<?xml version="1.0" encoding="UTF-8" standalone="no" ?>
<gpx xmlns="http://www.topografix.com/GPX/1/1" xmlns:xsi="http://www.w3.org/2001/XMLSchema-instance" xsi:schemaLocation="http://www.topografix.com/GPX/1/1 http://www.topografix.com/GPX/1/1/gpx.xsd" version="1.1" creator="VisuGPX - https://www.visugpx.com">
  <metadata>
    <name>Edirne-Mostar</name>
  </metadata>
  <trk>
    <name><![CDATA[Tour d'Europe: étape 714]]></name>
    <extensions>
      <line xmlns="http://www.topografix.com/GPX/gpx_style/0/2">
        <color>0000FF</color>
        <width>4</width>
      </line>
    </extensions>
    <trkseg>
      <trkpt lat="43.10744" lon="17.70346">
        <ele>62.559761</ele>
        <time>2022-06-12T08:33:09.102Z</time>
      </trkpt>
      <trkpt lat="43.10754" lon="17.70348">
        <ele>62.559761</ele>
        <time>2022-06-12T08:33:16.085Z</time>
      </trkpt>
      <trkpt lat="43.10765" lon="17.70351">
        <ele>62.559761</ele>
        <time>2022-06-12T08:33:23.100Z</time>
      </trkpt>
      <trkpt lat="43.10773" lon="17.70362">
        <ele>62.559761</ele>
        <time>2022-06-12T08:33:27.100Z</time>
      </trkpt>
      <trkpt lat="43.10782" lon="17.70368">
        <ele>62.559761</ele>
        <time>2022-06-12T08:33:30.108Z</time>
      </trkpt>
      <trkpt lat="43.10794" lon="17.70366">
        <ele>62.559761</ele>
        <time>2022-06-12T08:33:33.103Z</time>
      </trkpt>
      <trkpt lat="43.10805" lon="17.70365">
        <ele>62.559761</ele>
        <time>2022-06-12T08:33:36.145Z</time>
      </trkpt>
      <trkpt lat="43.10815" lon="17.70366">
        <ele>62.559761</ele>
        <time>2022-06-12T08:33:39.104Z</time>
      </trkpt>
      <trkpt lat="43.10826" lon="17.70368">
        <ele>62.559761</ele>
        <time>2022-06-12T08:33:42.122Z</time>
      </trkpt>
      <trkpt lat="43.10837" lon="17.70372">
        <ele>62.428358</ele>
        <time>2022-06-12T08:33:46.100Z</time>
      </trkpt>
      <trkpt lat="43.10848" lon="17.70374">
        <ele>62.275687</ele>
        <time>2022-06-12T08:33:49.094Z</time>
      </trkpt>
      <trkpt lat="43.10858" lon="17.70376">
        <ele>62.123948</ele>
        <time>2022-06-12T08:33:52.099Z</time>
      </trkpt>
      <trkpt lat="43.10869" lon="17.70379">
        <ele>61.97238</ele>
        <time>2022-06-12T08:33:55.105Z</time>
      </trkpt>
      <trkpt lat="43.10879" lon="17.70382">
        <ele>61.825787</ele>
        <time>2022-06-12T08:33:58.092Z</time>
      </trkpt>
      <trkpt lat="43.10889" lon="17.70384">
        <ele>61.675287</ele>
        <time>2022-06-12T08:34:01.106Z</time>
      </trkpt>
      <trkpt lat="43.10899" lon="17.70386">
        <ele>61.522616</ele>
        <time>2022-06-12T08:34:04.109Z</time>
      </trkpt>
      <trkpt lat="43.1091" lon="17.7039">
        <ele>61.361777</ele>
        <time>2022-06-12T08:34:07.109Z</time>
      </trkpt>
      <trkpt lat="43.1092" lon="17.70396">
        <ele>61.205942</ele>
        <time>2022-06-12T08:34:10.139Z</time>
      </trkpt>
      <trkpt lat="43.10929" lon="17.70404">
        <ele>61.054932</ele>
        <time>2022-06-12T08:34:13.159Z</time>
      </trkpt>
      <trkpt lat="43.10938" lon="17.70406">
        <ele>60.914365</ele>
        <time>2022-06-12T08:34:16.106Z</time>
      </trkpt>
      <trkpt lat="43.10948" lon="17.70399">
        <ele>60.755954</ele>
        <time>2022-06-12T08:34:19.103Z</time>
      </trkpt>
      <trkpt lat="43.10958" lon="17.70397">
        <ele>60.616968</ele>
        <time>2022-06-12T08:34:22.081Z</time>
      </trkpt>
      <trkpt lat="43.10969" lon="17.70398">
        <ele>60.461072</ele>
        <time>2022-06-12T08:34:25.120Z</time>
      </trkpt>
      <trkpt lat="43.10979" lon="17.70402">
        <ele>60.307323</ele>
        <time>2022-06-12T08:34:28.099Z</time>
      </trkpt>
      <trkpt lat="43.10989" lon="17.70405">
        <ele>60.162375</ele>
        <time>2022-06-12T08:34:31.102Z</time>
      </trkpt>
      <trkpt lat="43.10999" lon="17.70408">
        <ele>60.017538</ele>
        <time>2022-06-12T08:34:34.094Z</time>
      </trkpt>
      <trkpt lat="43.11009" lon="17.7041">
        <ele>59.751085</ele>
        <time>2022-06-12T08:34:37.129Z</time>
      </trkpt>
      <trkpt lat="43.11021" lon="17.70413">
        <ele>59.382672</ele>
        <time>2022-06-12T08:34:40.100Z</time>
      </trkpt>
      <trkpt lat="43.11033" lon="17.70418">
        <ele>59.008572</ele>
        <time>2022-06-12T08:34:43.103Z</time>
      </trkpt>
      <trkpt lat="43.11044" lon="17.70424">
        <ele>58.651692</ele>
        <time>2022-06-12T08:34:46.091Z</time>
      </trkpt>
      <trkpt lat="43.11056" lon="17.70431">
        <ele>58.263783</ele>
        <time>2022-06-12T08:34:49.109Z</time>
      </trkpt>
      <trkpt lat="43.11068" lon="17.70436">
        <ele>57.875464</ele>
        <time>2022-06-12T08:34:52.101Z</time>
      </trkpt>
      <trkpt lat="43.11079" lon="17.70444">
        <ele>57.503653</ele>
        <time>2022-06-12T08:34:55.103Z</time>
      </trkpt>
      <trkpt lat="43.11089" lon="17.70451">
        <ele>57.144282</ele>
        <time>2022-06-12T08:34:58.102Z</time>
      </trkpt>
      <trkpt lat="43.111" lon="17.70458">
        <ele>56.797626</ele>
        <time>2022-06-12T08:35:01.096Z</time>
      </trkpt>
      <trkpt lat="43.1111" lon="17.70464">
        <ele>56.452918</ele>
        <time>2022-06-12T08:35:04.097Z</time>
      </trkpt>
      <trkpt lat="43.11122" lon="17.7047">
        <ele>56.077247</ele>
        <time>2022-06-12T08:35:07.099Z</time>
      </trkpt>
      <trkpt lat="43.11133" lon="17.70478">
        <ele>55.695837</ele>
        <time>2022-06-12T08:35:10.097Z</time>
      </trkpt>
      <trkpt lat="43.11145" lon="17.70485">
        <ele>55.306175</ele>
        <time>2022-06-12T08:35:13.101Z</time>
      </trkpt>
      <trkpt lat="43.11156" lon="17.70492">
        <ele>54.944055</ele>
        <time>2022-06-12T08:35:16.166Z</time>
      </trkpt>
      <trkpt lat="43.11166" lon="17.70501">
        <ele>54.572379</ele>
        <time>2022-06-12T08:35:19.095Z</time>
      </trkpt>
      <trkpt lat="43.11174" lon="17.70508">
        <ele>54.558495</ele>
        <time>2022-06-12T08:35:21.111Z</time>
      </trkpt>
      <trkpt lat="43.11182" lon="17.70514">
        <ele>54.588832</ele>
        <time>2022-06-12T08:35:23.107Z</time>
      </trkpt>
      <trkpt lat="43.11193" lon="17.70524">
        <ele>54.630205</ele>
        <time>2022-06-12T08:35:26.109Z</time>
      </trkpt>
      <trkpt lat="43.11204" lon="17.70533">
        <ele>54.669605</ele>
        <time>2022-06-12T08:35:29.097Z</time>
      </trkpt>
      <trkpt lat="43.11213" lon="17.70544">
        <ele>54.707124</ele>
        <time>2022-06-12T08:35:32.091Z</time>
      </trkpt>
      <trkpt lat="43.11221" lon="17.70555">
        <ele>54.745729</ele>
        <time>2022-06-12T08:35:35.102Z</time>
      </trkpt>
      <trkpt lat="43.11231" lon="17.70567">
        <ele>54.785569</ele>
        <time>2022-06-12T08:35:38.100Z</time>
      </trkpt>
      <trkpt lat="43.1124" lon="17.70576">
        <ele>54.823261</ele>
        <time>2022-06-12T08:35:41.095Z</time>
      </trkpt>
      <trkpt lat="43.1125" lon="17.70586">
        <ele>54.86147</ele>
        <time>2022-06-12T08:35:44.100Z</time>
      </trkpt>
      <trkpt lat="43.11261" lon="17.70596">
        <ele>54.902418</ele>
        <time>2022-06-12T08:35:47.101Z</time>
      </trkpt>
      <trkpt lat="43.11271" lon="17.70607">
        <ele>54.943633</ele>
        <time>2022-06-12T08:35:50.101Z</time>
      </trkpt>
      <trkpt lat="43.11282" lon="17.70616">
        <ele>54.984738</ele>
        <time>2022-06-12T08:35:53.104Z</time>
      </trkpt>
      <trkpt lat="43.11292" lon="17.70627">
        <ele>55.024153</ele>
        <time>2022-06-12T08:35:56.098Z</time>
      </trkpt>
      <trkpt lat="43.11301" lon="17.70636">
        <ele>55.060534</ele>
        <time>2022-06-12T08:35:59.130Z</time>
      </trkpt>
      <trkpt lat="43.11312" lon="17.70645">
        <ele>55.099523</ele>
        <time>2022-06-12T08:36:02.103Z</time>
      </trkpt>
      <trkpt lat="43.11322" lon="17.70656">
        <ele>55.479777</ele>
        <time>2022-06-12T08:36:05.113Z</time>
      </trkpt>
      <trkpt lat="43.11331" lon="17.70666">
        <ele>55.887545</ele>
        <time>2022-06-12T08:36:08.108Z</time>
      </trkpt>
      <trkpt lat="43.11341" lon="17.70676">
        <ele>56.284654</ele>
        <time>2022-06-12T08:36:11.123Z</time>
      </trkpt>
      <trkpt lat="43.1135" lon="17.70686">
        <ele>56.672594</ele>
        <time>2022-06-12T08:36:14.110Z</time>
      </trkpt>
      <trkpt lat="43.11359" lon="17.70695">
        <ele>57.026075</ele>
        <time>2022-06-12T08:36:17.102Z</time>
      </trkpt>
      <trkpt lat="43.11365" lon="17.70703">
        <ele>57.323909</ele>
        <time>2022-06-12T08:36:20.106Z</time>
      </trkpt>
      <trkpt lat="43.11367" lon="17.70717">
        <ele>57.665815</ele>
        <time>2022-06-12T08:36:25.103Z</time>
      </trkpt>
      <trkpt lat="43.11375" lon="17.70706">
        <ele>58.016309</ele>
        <time>2022-06-12T08:36:37.087Z</time>
      </trkpt>
      <trkpt lat="43.11382" lon="17.70697">
        <ele>58.350103</ele>
        <time>2022-06-12T08:36:41.099Z</time>
      </trkpt>
      <trkpt lat="43.11387" lon="17.70686">
        <ele>58.660932</ele>
        <time>2022-06-12T08:36:45.124Z</time>
      </trkpt>
      <trkpt lat="43.11393" lon="17.70676">
        <ele>58.975994</ele>
        <time>2022-06-12T08:36:48.106Z</time>
      </trkpt>
      <trkpt lat="43.11398" lon="17.70665">
        <ele>59.290045</ele>
        <time>2022-06-12T08:36:51.124Z</time>
      </trkpt>
      <trkpt lat="43.11402" lon="17.70651">
        <ele>59.644784</ele>
        <time>2022-06-12T08:36:55.106Z</time>
      </trkpt>
      <trkpt lat="43.11413" lon="17.70658">
        <ele>60.038408</ele>
        <time>2022-06-12T08:37:00.093Z</time>
      </trkpt>
      <trkpt lat="43.11422" lon="17.70667">
        <ele>60.402883</ele>
        <time>2022-06-12T08:37:04.089Z</time>
      </trkpt>
      <trkpt lat="43.1143" lon="17.70676">
        <ele>60.75014</ele>
        <time>2022-06-12T08:37:08.099Z</time>
      </trkpt>
      <trkpt lat="43.11438" lon="17.70685">
        <ele>60.907931</ele>
        <time>2022-06-12T08:37:11.100Z</time>
      </trkpt>
      <trkpt lat="43.11446" lon="17.70693">
        <ele>60.25474</ele>
        <time>2022-06-12T08:37:14.164Z</time>
      </trkpt>
      <trkpt lat="43.11454" lon="17.70703">
        <ele>59.6281</ele>
        <time>2022-06-12T08:37:17.094Z</time>
      </trkpt>
      <trkpt lat="43.11462" lon="17.70715">
        <ele>58.901131</ele>
        <time>2022-06-12T08:37:20.104Z</time>
      </trkpt>
      <trkpt lat="43.1147" lon="17.70727">
        <ele>58.151027</ele>
        <time>2022-06-12T08:37:23.128Z</time>
      </trkpt>
      <trkpt lat="43.1148" lon="17.70739">
        <ele>57.341355</ele>
        <time>2022-06-12T08:37:26.126Z</time>
      </trkpt>
      <trkpt lat="43.1149" lon="17.70749">
        <ele>56.599302</ele>
        <time>2022-06-12T08:37:29.102Z</time>
      </trkpt>
      <trkpt lat="43.11501" lon="17.70758">
        <ele>55.814783</ele>
        <time>2022-06-12T08:37:32.103Z</time>
      </trkpt>
      <trkpt lat="43.11512" lon="17.70764">
        <ele>55.107201</ele>
        <time>2022-06-12T08:37:35.094Z</time>
      </trkpt>
      <trkpt lat="43.11522" lon="17.70769">
        <ele>54.414972</ele>
        <time>2022-06-12T08:37:38.099Z</time>
      </trkpt>
      <trkpt lat="43.11534" lon="17.70772">
        <ele>53.697286</ele>
        <time>2022-06-12T08:37:41.111Z</time>
      </trkpt>
      <trkpt lat="43.11544" lon="17.70774">
        <ele>53.037454</ele>
        <time>2022-06-12T08:37:44.096Z</time>
      </trkpt>
      <trkpt lat="43.11555" lon="17.70774">
        <ele>52.374856</ele>
        <time>2022-06-12T08:37:47.110Z</time>
      </trkpt>
      <trkpt lat="43.11566" lon="17.70772">
        <ele>51.687451</ele>
        <time>2022-06-12T08:37:50.106Z</time>
      </trkpt>
      <trkpt lat="43.11577" lon="17.70767">
        <ele>50.976034</ele>
        <time>2022-06-12T08:37:53.094Z</time>
      </trkpt>
      <trkpt lat="43.11588" lon="17.70759">
        <ele>50.223691</ele>
        <time>2022-06-12T08:37:56.140Z</time>
      </trkpt>
      <trkpt lat="43.11598" lon="17.7075">
        <ele>50.217662</ele>
        <time>2022-06-12T08:37:59.092Z</time>
      </trkpt>
      <trkpt lat="43.11607" lon="17.7074">
        <ele>50.53202</ele>
        <time>2022-06-12T08:38:02.108Z</time>
      </trkpt>
      <trkpt lat="43.11615" lon="17.70729">
        <ele>50.830922</ele>
        <time>2022-06-12T08:38:05.113Z</time>
      </trkpt>
      <trkpt lat="43.11622" lon="17.70716">
        <ele>51.14322</ele>
        <time>2022-06-12T08:38:08.112Z</time>
      </trkpt>
      <trkpt lat="43.11629" lon="17.70703">
        <ele>51.461323</ele>
        <time>2022-06-12T08:38:11.101Z</time>
      </trkpt>
      <trkpt lat="43.11636" lon="17.70689">
        <ele>51.790801</ele>
        <time>2022-06-12T08:38:14.093Z</time>
      </trkpt>
      <trkpt lat="43.11642" lon="17.70673">
        <ele>52.144472</ele>
        <time>2022-06-12T08:38:17.106Z</time>
      </trkpt>
      <trkpt lat="43.11649" lon="17.70659">
        <ele>52.479976</ele>
        <time>2022-06-12T08:38:20.103Z</time>
      </trkpt>
      <trkpt lat="43.11656" lon="17.70645">
        <ele>52.810771</ele>
        <time>2022-06-12T08:38:23.125Z</time>
      </trkpt>
      <trkpt lat="43.11664" lon="17.70633">
        <ele>53.136486</ele>
        <time>2022-06-12T08:38:26.095Z</time>
      </trkpt>
      <trkpt lat="43.11673" lon="17.70621">
        <ele>53.453346</ele>
        <time>2022-06-12T08:38:29.099Z</time>
      </trkpt>
      <trkpt lat="43.11682" lon="17.70612">
        <ele>53.767083</ele>
        <time>2022-06-12T08:38:32.128Z</time>
      </trkpt>
      <trkpt lat="43.11692" lon="17.70605">
        <ele>54.069864</ele>
        <time>2022-06-12T08:38:35.105Z</time>
      </trkpt>
      <trkpt lat="43.11702" lon="17.70599">
        <ele>54.358105</ele>
        <time>2022-06-12T08:38:38.105Z</time>
      </trkpt>
      <trkpt lat="43.11712" lon="17.70594">
        <ele>54.652054</ele>
        <time>2022-06-12T08:38:42.101Z</time>
      </trkpt>
      <trkpt lat="43.11723" lon="17.7059">
        <ele>54.860525</ele>
        <time>2022-06-12T08:38:47.116Z</time>
      </trkpt>
      <trkpt lat="43.11732" lon="17.70586">
        <ele>54.941889</ele>
        <time>2022-06-12T08:38:53.101Z</time>
      </trkpt>
      <trkpt lat="43.11742" lon="17.7058">
        <ele>55.024725</ele>
        <time>2022-06-12T08:39:00.105Z</time>
      </trkpt>
      <trkpt lat="43.1175" lon="17.70575">
        <ele>55.099562</ele>
        <time>2022-06-12T08:39:06.102Z</time>
      </trkpt>
      <trkpt lat="43.11759" lon="17.7057">
        <ele>55.175902</ele>
        <time>2022-06-12T08:39:13.096Z</time>
      </trkpt>
      <trkpt lat="43.11768" lon="17.70567">
        <ele>55.253135</ele>
        <time>2022-06-12T08:39:19.097Z</time>
      </trkpt>
      <trkpt lat="43.11777" lon="17.70563">
        <ele>55.334158</ele>
        <time>2022-06-12T08:39:26.107Z</time>
      </trkpt>
      <trkpt lat="43.11787" lon="17.7056">
        <ele>55.415648</ele>
        <time>2022-06-12T08:39:33.092Z</time>
      </trkpt>
      <trkpt lat="43.11796" lon="17.70554">
        <ele>55.499464</ele>
        <time>2022-06-12T08:39:40.103Z</time>
      </trkpt>
      <trkpt lat="43.11806" lon="17.70552">
        <ele>55.576582</ele>
        <time>2022-06-12T08:39:46.104Z</time>
      </trkpt>
      <trkpt lat="43.11816" lon="17.7055">
        <ele>55.658187</ele>
        <time>2022-06-12T08:39:53.101Z</time>
      </trkpt>
      <trkpt lat="43.11825" lon="17.70549">
        <ele>55.736857</ele>
        <time>2022-06-12T08:39:59.105Z</time>
      </trkpt>
      <trkpt lat="43.11836" lon="17.70548">
        <ele>55.822862</ele>
        <time>2022-06-12T08:40:04.092Z</time>
      </trkpt>
      <trkpt lat="43.11847" lon="17.70548">
        <ele>55.911114</ele>
        <time>2022-06-12T08:40:08.112Z</time>
      </trkpt>
      <trkpt lat="43.11858" lon="17.70549">
        <ele>56.008418</ele>
        <time>2022-06-12T08:40:12.095Z</time>
      </trkpt>
      <trkpt lat="43.1187" lon="17.70551">
        <ele>56.101049</ele>
        <time>2022-06-12T08:40:15.112Z</time>
      </trkpt>
      <trkpt lat="43.11882" lon="17.70555">
        <ele>56.20278</ele>
        <time>2022-06-12T08:40:18.088Z</time>
      </trkpt>
      <trkpt lat="43.11894" lon="17.70557">
        <ele>56.272438</ele>
        <time>2022-06-12T08:40:21.135Z</time>
      </trkpt>
      <trkpt lat="43.11903" lon="17.70559">
        <ele>56.070783</ele>
        <time>2022-06-12T08:40:23.091Z</time>
      </trkpt>
      <trkpt lat="43.11912" lon="17.70562">
        <ele>55.868018</ele>
        <time>2022-06-12T08:40:25.073Z</time>
      </trkpt>
      <trkpt lat="43.11922" lon="17.70565">
        <ele>55.656636</ele>
        <time>2022-06-12T08:40:27.080Z</time>
      </trkpt>
      <trkpt lat="43.11932" lon="17.70569">
        <ele>55.430815</ele>
        <time>2022-06-12T08:40:29.071Z</time>
      </trkpt>
      <trkpt lat="43.11942" lon="17.70575">
        <ele>55.199088</ele>
        <time>2022-06-12T08:40:31.079Z</time>
      </trkpt>
      <trkpt lat="43.11951" lon="17.70582">
        <ele>54.964936</ele>
        <time>2022-06-12T08:40:33.080Z</time>
      </trkpt>
      <trkpt lat="43.11962" lon="17.7059">
        <ele>54.708244</ele>
        <time>2022-06-12T08:40:35.072Z</time>
      </trkpt>
      <trkpt lat="43.11973" lon="17.70598">
        <ele>54.451553</ele>
        <time>2022-06-12T08:40:37.074Z</time>
      </trkpt>
      <trkpt lat="43.11983" lon="17.70603">
        <ele>54.211601</ele>
        <time>2022-06-12T08:40:39.085Z</time>
      </trkpt>
      <trkpt lat="43.11993" lon="17.70607">
        <ele>53.98844</ele>
        <time>2022-06-12T08:40:41.073Z</time>
      </trkpt>
      <trkpt lat="43.12003" lon="17.70611">
        <ele>53.762694</ele>
        <time>2022-06-12T08:40:43.075Z</time>
      </trkpt>
      <trkpt lat="43.12013" lon="17.70614">
        <ele>53.547855</ele>
        <time>2022-06-12T08:40:45.078Z</time>
      </trkpt>
      <trkpt lat="43.12025" lon="17.70617">
        <ele>53.279231</ele>
        <time>2022-06-12T08:40:48.077Z</time>
      </trkpt>
      <trkpt lat="43.12037" lon="17.70619">
        <ele>53.02253</ele>
        <time>2022-06-12T08:40:51.072Z</time>
      </trkpt>
      <trkpt lat="43.12049" lon="17.70622">
        <ele>52.759987</ele>
        <time>2022-06-12T08:40:54.072Z</time>
      </trkpt>
      <trkpt lat="43.1206" lon="17.70622">
        <ele>52.526738</ele>
        <time>2022-06-12T08:40:57.081Z</time>
      </trkpt>
      <trkpt lat="43.12072" lon="17.70623">
        <ele>52.434295</ele>
        <time>2022-06-12T08:41:00.079Z</time>
      </trkpt>
      <trkpt lat="43.12083" lon="17.70625">
        <ele>52.420298</ele>
        <time>2022-06-12T08:41:03.069Z</time>
      </trkpt>
      <trkpt lat="43.12094" lon="17.70627">
        <ele>52.406756</ele>
        <time>2022-06-12T08:41:06.075Z</time>
      </trkpt>
      <trkpt lat="43.12104" lon="17.70629">
        <ele>52.393807</ele>
        <time>2022-06-12T08:41:09.079Z</time>
      </trkpt>
      <trkpt lat="43.12115" lon="17.70631">
        <ele>52.379618</ele>
        <time>2022-06-12T08:41:12.104Z</time>
      </trkpt>
      <trkpt lat="43.12126" lon="17.70636">
        <ele>52.364911</ele>
        <time>2022-06-12T08:41:15.088Z</time>
      </trkpt>
      <trkpt lat="43.12137" lon="17.7064">
        <ele>52.351314</ele>
        <time>2022-06-12T08:41:18.103Z</time>
      </trkpt>
      <trkpt lat="43.12147" lon="17.70644">
        <ele>52.337958</ele>
        <time>2022-06-12T08:41:21.076Z</time>
      </trkpt>
      <trkpt lat="43.12157" lon="17.70648">
        <ele>52.324695</ele>
        <time>2022-06-12T08:41:24.073Z</time>
      </trkpt>
      <trkpt lat="43.12168" lon="17.70651">
        <ele>52.311067</ele>
        <time>2022-06-12T08:41:27.073Z</time>
      </trkpt>
      <trkpt lat="43.12178" lon="17.70656">
        <ele>52.297704</ele>
        <time>2022-06-12T08:41:30.075Z</time>
      </trkpt>
      <trkpt lat="43.12187" lon="17.70664">
        <ele>52.283672</ele>
        <time>2022-06-12T08:41:33.080Z</time>
      </trkpt>
      <trkpt lat="43.12197" lon="17.70672">
        <ele>52.269837</ele>
        <time>2022-06-12T08:41:36.118Z</time>
      </trkpt>
      <trkpt lat="43.12205" lon="17.70679">
        <ele>52.258147</ele>
        <time>2022-06-12T08:41:40.106Z</time>
      </trkpt>
      <trkpt lat="43.12214" lon="17.70687">
        <ele>52.243592</ele>
        <time>2022-06-12T08:41:44.072Z</time>
      </trkpt>
      <trkpt lat="43.12223" lon="17.70694">
        <ele>52.231369</ele>
        <time>2022-06-12T08:41:47.079Z</time>
      </trkpt>
      <trkpt lat="43.12231" lon="17.70702">
        <ele>52.21854</ele>
        <time>2022-06-12T08:41:50.076Z</time>
      </trkpt>
      <trkpt lat="43.1224" lon="17.70711">
        <ele>52.306457</ele>
        <time>2022-06-12T08:41:53.084Z</time>
      </trkpt>
      <trkpt lat="43.12248" lon="17.7072">
        <ele>52.397747</ele>
        <time>2022-06-12T08:41:56.073Z</time>
      </trkpt>
      <trkpt lat="43.12256" lon="17.70729">
        <ele>52.486968</ele>
        <time>2022-06-12T08:41:59.079Z</time>
      </trkpt>
      <trkpt lat="43.12263" lon="17.70739">
        <ele>52.567681</ele>
        <time>2022-06-12T08:42:02.073Z</time>
      </trkpt>
      <trkpt lat="43.1227" lon="17.70749">
        <ele>52.658677</ele>
        <time>2022-06-12T08:42:05.072Z</time>
      </trkpt>
      <trkpt lat="43.12278" lon="17.70761">
        <ele>52.753455</ele>
        <time>2022-06-12T08:42:08.109Z</time>
      </trkpt>
      <trkpt lat="43.12286" lon="17.70771">
        <ele>52.843823</ele>
        <time>2022-06-12T08:42:11.070Z</time>
      </trkpt>
      <trkpt lat="43.12292" lon="17.70782">
        <ele>52.931479</ele>
        <time>2022-06-12T08:42:14.078Z</time>
      </trkpt>
      <trkpt lat="43.12299" lon="17.70793">
        <ele>53.022576</ele>
        <time>2022-06-12T08:42:17.071Z</time>
      </trkpt>
      <trkpt lat="43.12305" lon="17.70805">
        <ele>53.11162</ele>
        <time>2022-06-12T08:42:20.091Z</time>
      </trkpt>
      <trkpt lat="43.12311" lon="17.70817">
        <ele>53.202055</ele>
        <time>2022-06-12T08:42:23.077Z</time>
      </trkpt>
      <trkpt lat="43.12317" lon="17.7083">
        <ele>53.296146</ele>
        <time>2022-06-12T08:42:26.069Z</time>
      </trkpt>
      <trkpt lat="43.12322" lon="17.70843">
        <ele>53.385182</ele>
        <time>2022-06-12T08:42:29.095Z</time>
      </trkpt>
      <trkpt lat="43.12327" lon="17.70857">
        <ele>53.480502</ele>
        <time>2022-06-12T08:42:32.077Z</time>
      </trkpt>
      <trkpt lat="43.12332" lon="17.70871">
        <ele>53.574827</ele>
        <time>2022-06-12T08:42:35.076Z</time>
      </trkpt>
      <trkpt lat="43.12336" lon="17.70884">
        <ele>53.664088</ele>
        <time>2022-06-12T08:42:38.072Z</time>
      </trkpt>
      <trkpt lat="43.12341" lon="17.70897">
        <ele>53.7518</ele>
        <time>2022-06-12T08:42:41.080Z</time>
      </trkpt>
      <trkpt lat="43.12345" lon="17.70909">
        <ele>53.834664</ele>
        <time>2022-06-12T08:42:44.073Z</time>
      </trkpt>
      <trkpt lat="43.12348" lon="17.70921">
        <ele>53.916195</ele>
        <time>2022-06-12T08:42:47.074Z</time>
      </trkpt>
      <trkpt lat="43.12351" lon="17.70933">
        <ele>53.993027</ele>
        <time>2022-06-12T08:42:50.071Z</time>
      </trkpt>
      <trkpt lat="43.12355" lon="17.70945">
        <ele>54.077022</ele>
        <time>2022-06-12T08:42:54.069Z</time>
      </trkpt>
      <trkpt lat="43.1236" lon="17.70957">
        <ele>54.162214</ele>
        <time>2022-06-12T08:42:57.073Z</time>
      </trkpt>
      <trkpt lat="43.12366" lon="17.70971">
        <ele>54.25624</ele>
        <time>2022-06-12T08:43:00.072Z</time>
      </trkpt>
      <trkpt lat="43.1237" lon="17.70984">
        <ele>54.345691</ele>
        <time>2022-06-12T08:43:03.084Z</time>
      </trkpt>
      <trkpt lat="43.12374" lon="17.70997">
        <ele>54.435475</ele>
        <time>2022-06-12T08:43:06.078Z</time>
      </trkpt>
      <trkpt lat="43.12378" lon="17.71011">
        <ele>54.527782</ele>
        <time>2022-06-12T08:43:09.077Z</time>
      </trkpt>
      <trkpt lat="43.12383" lon="17.71025">
        <ele>54.620651</ele>
        <time>2022-06-12T08:43:12.085Z</time>
      </trkpt>
      <trkpt lat="43.12387" lon="17.71038">
        <ele>54.711181</ele>
        <time>2022-06-12T08:43:15.071Z</time>
      </trkpt>
      <trkpt lat="43.12391" lon="17.7105">
        <ele>54.791564</ele>
        <time>2022-06-12T08:43:18.073Z</time>
      </trkpt>
      <trkpt lat="43.12394" lon="17.71063">
        <ele>54.875136</ele>
        <time>2022-06-12T08:43:21.085Z</time>
      </trkpt>
      <trkpt lat="43.124" lon="17.71075">
        <ele>54.964166</ele>
        <time>2022-06-12T08:43:24.067Z</time>
      </trkpt>
      <trkpt lat="43.12404" lon="17.71088">
        <ele>55.055536</ele>
        <time>2022-06-12T08:43:27.097Z</time>
      </trkpt>
      <trkpt lat="43.12408" lon="17.71103">
        <ele>55.151859</ele>
        <time>2022-06-12T08:43:30.076Z</time>
      </trkpt>
      <trkpt lat="43.12412" lon="17.71116">
        <ele>55.242782</ele>
        <time>2022-06-12T08:43:33.074Z</time>
      </trkpt>
      <trkpt lat="43.12417" lon="17.71129">
        <ele>55.323879</ele>
        <time>2022-06-12T08:43:36.070Z</time>
      </trkpt>
      <trkpt lat="43.12421" lon="17.71143">
        <ele>55.406642</ele>
        <time>2022-06-12T08:43:39.086Z</time>
      </trkpt>
      <trkpt lat="43.12425" lon="17.71156">
        <ele>55.490964</ele>
        <time>2022-06-12T08:43:42.077Z</time>
      </trkpt>
      <trkpt lat="43.1243" lon="17.7117">
        <ele>55.57802</ele>
        <time>2022-06-12T08:43:45.080Z</time>
      </trkpt>
      <trkpt lat="43.12435" lon="17.71184">
        <ele>55.663261</ele>
        <time>2022-06-12T08:43:48.071Z</time>
      </trkpt>
      <trkpt lat="43.12439" lon="17.71197">
        <ele>55.745245</ele>
        <time>2022-06-12T08:43:51.087Z</time>
      </trkpt>
      <trkpt lat="43.12444" lon="17.7121">
        <ele>55.82537</ele>
        <time>2022-06-12T08:43:54.073Z</time>
      </trkpt>
      <trkpt lat="43.12448" lon="17.71223">
        <ele>55.904988</ele>
        <time>2022-06-12T08:43:57.071Z</time>
      </trkpt>
      <trkpt lat="43.12452" lon="17.71235">
        <ele>55.983304</ele>
        <time>2022-06-12T08:44:00.075Z</time>
      </trkpt>
      <trkpt lat="43.12457" lon="17.7125">
        <ele>56.07278</ele>
        <time>2022-06-12T08:44:04.090Z</time>
      </trkpt>
      <trkpt lat="43.12462" lon="17.71264">
        <ele>56.164938</ele>
        <time>2022-06-12T08:44:08.075Z</time>
      </trkpt>
      <trkpt lat="43.12466" lon="17.71276">
        <ele>56.236273</ele>
        <time>2022-06-12T08:44:11.086Z</time>
      </trkpt>
      <trkpt lat="43.12471" lon="17.71288">
        <ele>56.315222</ele>
        <time>2022-06-12T08:44:14.079Z</time>
      </trkpt>
      <trkpt lat="43.12476" lon="17.71301">
        <ele>56.397235</ele>
        <time>2022-06-12T08:44:17.080Z</time>
      </trkpt>
      <trkpt lat="43.1248" lon="17.71315">
        <ele>56.479587</ele>
        <time>2022-06-12T08:44:20.085Z</time>
      </trkpt>
      <trkpt lat="43.12485" lon="17.71328">
        <ele>56.565659</ele>
        <time>2022-06-12T08:44:23.083Z</time>
      </trkpt>
      <trkpt lat="43.12489" lon="17.71342">
        <ele>56.650782</ele>
        <time>2022-06-12T08:44:26.075Z</time>
      </trkpt>
      <trkpt lat="43.12494" lon="17.71356">
        <ele>56.654002</ele>
        <time>2022-06-12T08:44:29.077Z</time>
      </trkpt>
      <trkpt lat="43.12498" lon="17.7137">
        <ele>56.65713</ele>
        <time>2022-06-12T08:44:32.091Z</time>
      </trkpt>
      <trkpt lat="43.12502" lon="17.71384">
        <ele>56.660252</ele>
        <time>2022-06-12T08:44:35.085Z</time>
      </trkpt>
      <trkpt lat="43.12506" lon="17.71397">
        <ele>56.663375</ele>
        <time>2022-06-12T08:44:38.101Z</time>
      </trkpt>
      <trkpt lat="43.12511" lon="17.71411">
        <ele>56.666517</ele>
        <time>2022-06-12T08:44:41.072Z</time>
      </trkpt>
      <trkpt lat="43.12515" lon="17.71425">
        <ele>56.669771</ele>
        <time>2022-06-12T08:44:44.103Z</time>
      </trkpt>
      <trkpt lat="43.1252" lon="17.71438">
        <ele>56.672937</ele>
        <time>2022-06-12T08:44:47.092Z</time>
      </trkpt>
      <trkpt lat="43.12524" lon="17.71452">
        <ele>56.676102</ele>
        <time>2022-06-12T08:44:50.112Z</time>
      </trkpt>
      <trkpt lat="43.12529" lon="17.71466">
        <ele>56.679369</ele>
        <time>2022-06-12T08:44:53.075Z</time>
      </trkpt>
      <trkpt lat="43.12534" lon="17.7148">
        <ele>56.682636</ele>
        <time>2022-06-12T08:44:56.069Z</time>
      </trkpt>
      <trkpt lat="43.12538" lon="17.71494">
        <ele>56.685896</ele>
        <time>2022-06-12T08:44:59.077Z</time>
      </trkpt>
      <trkpt lat="43.12543" lon="17.71507">
        <ele>56.689035</ele>
        <time>2022-06-12T08:45:02.082Z</time>
      </trkpt>
      <trkpt lat="43.12548" lon="17.7152">
        <ele>56.692129</ele>
        <time>2022-06-12T08:45:05.078Z</time>
      </trkpt>
      <trkpt lat="43.12552" lon="17.71534">
        <ele>56.695268</ele>
        <time>2022-06-12T08:45:08.076Z</time>
      </trkpt>
      <trkpt lat="43.12557" lon="17.71547">
        <ele>56.698401</ele>
        <time>2022-06-12T08:45:11.076Z</time>
      </trkpt>
      <trkpt lat="43.12561" lon="17.7156">
        <ele>56.70131</ele>
        <time>2022-06-12T08:45:14.080Z</time>
      </trkpt>
      <trkpt lat="43.12565" lon="17.71573">
        <ele>56.854478</ele>
        <time>2022-06-12T08:45:17.092Z</time>
      </trkpt>
      <trkpt lat="43.1257" lon="17.71587">
        <ele>57.201941</ele>
        <time>2022-06-12T08:45:20.075Z</time>
      </trkpt>
      <trkpt lat="43.12575" lon="17.71601">
        <ele>57.570827</ele>
        <time>2022-06-12T08:45:23.093Z</time>
      </trkpt>
      <trkpt lat="43.1258" lon="17.71615">
        <ele>57.932135</ele>
        <time>2022-06-12T08:45:26.069Z</time>
      </trkpt>
      <trkpt lat="43.12585" lon="17.7163">
        <ele>58.301262</ele>
        <time>2022-06-12T08:45:29.078Z</time>
      </trkpt>
      <trkpt lat="43.12589" lon="17.71644">
        <ele>58.667906</ele>
        <time>2022-06-12T08:45:32.069Z</time>
      </trkpt>
      <trkpt lat="43.12594" lon="17.71658">
        <ele>59.026398</ele>
        <time>2022-06-12T08:45:35.074Z</time>
      </trkpt>
      <trkpt lat="43.12599" lon="17.71672">
        <ele>59.373637</ele>
        <time>2022-06-12T08:45:38.072Z</time>
      </trkpt>
      <trkpt lat="43.12603" lon="17.71686">
        <ele>59.714534</ele>
        <time>2022-06-12T08:45:41.088Z</time>
      </trkpt>
      <trkpt lat="43.12608" lon="17.71699">
        <ele>60.053105</ele>
        <time>2022-06-12T08:45:44.072Z</time>
      </trkpt>
      <trkpt lat="43.12612" lon="17.71712">
        <ele>60.391892</ele>
        <time>2022-06-12T08:45:47.087Z</time>
      </trkpt>
      <trkpt lat="43.12616" lon="17.71724">
        <ele>60.686268</ele>
        <time>2022-06-12T08:45:50.073Z</time>
      </trkpt>
      <trkpt lat="43.12621" lon="17.71738">
        <ele>61.028429</ele>
        <time>2022-06-12T08:45:54.070Z</time>
      </trkpt>
      <trkpt lat="43.12624" lon="17.7175">
        <ele>61.327685</ele>
        <time>2022-06-12T08:45:57.075Z</time>
      </trkpt>
      <trkpt lat="43.12628" lon="17.71763">
        <ele>61.649779</ele>
        <time>2022-06-12T08:46:00.072Z</time>
      </trkpt>
      <trkpt lat="43.12632" lon="17.71776">
        <ele>61.98487</ele>
        <time>2022-06-12T08:46:03.115Z</time>
      </trkpt>
      <trkpt lat="43.12637" lon="17.71789">
        <ele>62.313965</ele>
        <time>2022-06-12T08:46:06.084Z</time>
      </trkpt>
      <trkpt lat="43.12641" lon="17.71803">
        <ele>62.328085</ele>
        <time>2022-06-12T08:46:09.073Z</time>
      </trkpt>
      <trkpt lat="43.12645" lon="17.71816">
        <ele>62.276453</ele>
        <time>2022-06-12T08:46:12.071Z</time>
      </trkpt>
      <trkpt lat="43.1265" lon="17.71829">
        <ele>62.224408</ele>
        <time>2022-06-12T08:46:15.102Z</time>
      </trkpt>
      <trkpt lat="43.12653" lon="17.71843">
        <ele>62.17389</ele>
        <time>2022-06-12T08:46:18.069Z</time>
      </trkpt>
      <trkpt lat="43.12657" lon="17.71857">
        <ele>62.119613</ele>
        <time>2022-06-12T08:46:21.072Z</time>
      </trkpt>
      <trkpt lat="43.12661" lon="17.71871">
        <ele>62.066378</ele>
        <time>2022-06-12T08:46:24.082Z</time>
      </trkpt>
      <trkpt lat="43.12666" lon="17.71884">
        <ele>62.016174</ele>
        <time>2022-06-12T08:46:27.073Z</time>
      </trkpt>
      <trkpt lat="43.12671" lon="17.71896">
        <ele>61.967185</ele>
        <time>2022-06-12T08:46:30.071Z</time>
      </trkpt>
      <trkpt lat="43.12675" lon="17.71909">
        <ele>61.917307</ele>
        <time>2022-06-12T08:46:33.076Z</time>
      </trkpt>
      <trkpt lat="43.12679" lon="17.71923">
        <ele>61.863621</ele>
        <time>2022-06-12T08:46:36.073Z</time>
      </trkpt>
      <trkpt lat="43.12684" lon="17.71936">
        <ele>61.813264</ele>
        <time>2022-06-12T08:46:39.079Z</time>
      </trkpt>
      <trkpt lat="43.12689" lon="17.71951">
        <ele>61.756148</ele>
        <time>2022-06-12T08:46:42.074Z</time>
      </trkpt>
      <trkpt lat="43.12694" lon="17.71965">
        <ele>61.698614</ele>
        <time>2022-06-12T08:46:45.109Z</time>
      </trkpt>
      <trkpt lat="43.127" lon="17.71981">
        <ele>61.638112</ele>
        <time>2022-06-12T08:46:48.082Z</time>
      </trkpt>
      <trkpt lat="43.12704" lon="17.71995">
        <ele>61.585992</ele>
        <time>2022-06-12T08:46:51.071Z</time>
      </trkpt>
      <trkpt lat="43.12709" lon="17.72009">
        <ele>61.530252</ele>
        <time>2022-06-12T08:46:54.072Z</time>
      </trkpt>
      <trkpt lat="43.12715" lon="17.72023">
        <ele>61.615116</ele>
        <time>2022-06-12T08:46:57.084Z</time>
      </trkpt>
      <trkpt lat="43.12722" lon="17.72036">
        <ele>61.814135</ele>
        <time>2022-06-12T08:47:00.072Z</time>
      </trkpt>
      <trkpt lat="43.12729" lon="17.72051">
        <ele>62.036495</ele>
        <time>2022-06-12T08:47:03.080Z</time>
      </trkpt>
      <trkpt lat="43.12737" lon="17.72065">
        <ele>62.254624</ele>
        <time>2022-06-12T08:47:06.096Z</time>
      </trkpt>
      <trkpt lat="43.12743" lon="17.72078">
        <ele>62.446822</ele>
        <time>2022-06-12T08:47:09.089Z</time>
      </trkpt>
      <trkpt lat="43.12749" lon="17.72089">
        <ele>62.618727</ele>
        <time>2022-06-12T08:47:12.101Z</time>
      </trkpt>
      <trkpt lat="43.12757" lon="17.72101">
        <ele>62.820298</ele>
        <time>2022-06-12T08:47:16.076Z</time>
      </trkpt>
      <trkpt lat="43.12768" lon="17.72108">
        <ele>63.01785</ele>
        <time>2022-06-12T08:47:20.075Z</time>
      </trkpt>
      <trkpt lat="43.12774" lon="17.72116">
        <ele>63.173528</ele>
        <time>2022-06-12T08:47:26.083Z</time>
      </trkpt>
      <trkpt lat="43.12778" lon="17.72128">
        <ele>63.335485</ele>
        <time>2022-06-12T08:47:34.102Z</time>
      </trkpt>
      <trkpt lat="43.12783" lon="17.72139">
        <ele>63.498853</ele>
        <time>2022-06-12T08:47:43.079Z</time>
      </trkpt>
      <trkpt lat="43.1279" lon="17.72149">
        <ele>63.672151</ele>
        <time>2022-06-12T08:47:50.069Z</time>
      </trkpt>
      <trkpt lat="43.12799" lon="17.72155">
        <ele>63.842011</ele>
        <time>2022-06-12T08:47:58.075Z</time>
      </trkpt>
      <trkpt lat="43.12806" lon="17.72163">
        <ele>64.001951</ele>
        <time>2022-06-12T08:48:07.078Z</time>
      </trkpt>
      <trkpt lat="43.12809" lon="17.72178">
        <ele>64.189486</ele>
        <time>2022-06-12T08:48:27.111Z</time>
      </trkpt>
      <trkpt lat="43.12802" lon="17.72191">
        <ele>64.391511</ele>
        <time>2022-06-12T08:48:30.080Z</time>
      </trkpt>
      <trkpt lat="43.12792" lon="17.7219">
        <ele>64.568865</ele>
        <time>2022-06-12T08:48:34.082Z</time>
      </trkpt>
      <trkpt lat="43.12784" lon="17.72179">
        <ele>63.982174</ele>
        <time>2022-06-12T08:48:37.099Z</time>
      </trkpt>
      <trkpt lat="43.12776" lon="17.72167">
        <ele>63.379924</ele>
        <time>2022-06-12T08:48:40.076Z</time>
      </trkpt>
      <trkpt lat="43.12769" lon="17.72153">
        <ele>62.767861</ele>
        <time>2022-06-12T08:48:43.075Z</time>
      </trkpt>
      <trkpt lat="43.12763" lon="17.72138">
        <ele>62.11483</ele>
        <time>2022-06-12T08:48:46.069Z</time>
      </trkpt>
      <trkpt lat="43.12755" lon="17.7213">
        <ele>61.653965</ele>
        <time>2022-06-12T08:48:49.082Z</time>
      </trkpt>
      <trkpt lat="43.12756" lon="17.72145">
        <ele>61.119002</ele>
        <time>2022-06-12T08:48:53.073Z</time>
      </trkpt>
      <trkpt lat="43.12761" lon="17.72159">
        <ele>60.550679</ele>
        <time>2022-06-12T08:48:56.072Z</time>
      </trkpt>
      <trkpt lat="43.12766" lon="17.72174">
        <ele>59.912595</ele>
        <time>2022-06-12T08:48:59.072Z</time>
      </trkpt>
      <trkpt lat="43.1277" lon="17.72188">
        <ele>59.377301</ele>
        <time>2022-06-12T08:49:02.083Z</time>
      </trkpt>
      <trkpt lat="43.12776" lon="17.72198">
        <ele>58.900034</ele>
        <time>2022-06-12T08:49:05.099Z</time>
      </trkpt>
      <trkpt lat="43.12782" lon="17.72209">
        <ele>58.384253</ele>
        <time>2022-06-12T08:49:08.080Z</time>
      </trkpt>
      <trkpt lat="43.1279" lon="17.72219">
        <ele>57.844672</ele>
        <time>2022-06-12T08:49:11.091Z</time>
      </trkpt>
      <trkpt lat="43.12799" lon="17.72227">
        <ele>57.294237</ele>
        <time>2022-06-12T08:49:14.078Z</time>
      </trkpt>
      <trkpt lat="43.12809" lon="17.72234">
        <ele>56.724989</ele>
        <time>2022-06-12T08:49:17.088Z</time>
      </trkpt>
      <trkpt lat="43.12819" lon="17.72239">
        <ele>56.196451</ele>
        <time>2022-06-12T08:49:20.074Z</time>
      </trkpt>
      <trkpt lat="43.12828" lon="17.72242">
        <ele>55.713176</ele>
        <time>2022-06-12T08:49:23.073Z</time>
      </trkpt>
      <trkpt lat="43.12838" lon="17.72244">
        <ele>55.399001</ele>
        <time>2022-06-12T08:49:26.082Z</time>
      </trkpt>
      <trkpt lat="43.12851" lon="17.72252">
        <ele>55.177383</ele>
        <time>2022-06-12T08:49:29.071Z</time>
      </trkpt>
      <trkpt lat="43.1286" lon="17.7226">
        <ele>54.997345</ele>
        <time>2022-06-12T08:49:31.069Z</time>
      </trkpt>
      <trkpt lat="43.1287" lon="17.72269">
        <ele>54.820048</ele>
        <time>2022-06-12T08:49:33.079Z</time>
      </trkpt>
      <trkpt lat="43.12878" lon="17.72277">
        <ele>54.666136</ele>
        <time>2022-06-12T08:49:35.086Z</time>
      </trkpt>
      <trkpt lat="43.12886" lon="17.72283">
        <ele>54.514724</ele>
        <time>2022-06-12T08:49:37.085Z</time>
      </trkpt>
      <trkpt lat="43.12894" lon="17.72289">
        <ele>54.370592</ele>
        <time>2022-06-12T08:49:39.072Z</time>
      </trkpt>
      <trkpt lat="43.12906" lon="17.72295">
        <ele>54.176203</ele>
        <time>2022-06-12T08:49:42.077Z</time>
      </trkpt>
      <trkpt lat="43.12915" lon="17.72302">
        <ele>54.015694</ele>
        <time>2022-06-12T08:49:45.094Z</time>
      </trkpt>
      <trkpt lat="43.12925" lon="17.72307">
        <ele>53.848779</ele>
        <time>2022-06-12T08:49:48.076Z</time>
      </trkpt>
      <trkpt lat="43.12936" lon="17.72312">
        <ele>53.662162</ele>
        <time>2022-06-12T08:49:51.098Z</time>
      </trkpt>
      <trkpt lat="43.12946" lon="17.72318">
        <ele>53.488545</ele>
        <time>2022-06-12T08:49:54.106Z</time>
      </trkpt>
      <trkpt lat="43.12956" lon="17.72324">
        <ele>53.314688</ele>
        <time>2022-06-12T08:49:57.078Z</time>
      </trkpt>
      <trkpt lat="43.12967" lon="17.72329">
        <ele>53.129634</ele>
        <time>2022-06-12T08:50:00.066Z</time>
      </trkpt>
      <trkpt lat="43.12979" lon="17.72334">
        <ele>52.935636</ele>
        <time>2022-06-12T08:50:03.081Z</time>
      </trkpt>
      <trkpt lat="43.12991" lon="17.72338">
        <ele>52.735086</ele>
        <time>2022-06-12T08:50:06.077Z</time>
      </trkpt>
      <trkpt lat="43.13004" lon="17.72342">
        <ele>52.711014</ele>
        <time>2022-06-12T08:50:09.075Z</time>
      </trkpt>
      <trkpt lat="43.13015" lon="17.72344">
        <ele>52.81614</ele>
        <time>2022-06-12T08:50:12.084Z</time>
      </trkpt>
      <trkpt lat="43.13026" lon="17.72347">
        <ele>52.919852</ele>
        <time>2022-06-12T08:50:15.075Z</time>
      </trkpt>
      <trkpt lat="43.13037" lon="17.7235">
        <ele>53.018369</ele>
        <time>2022-06-12T08:50:18.073Z</time>
      </trkpt>
      <trkpt lat="43.13048" lon="17.72354">
        <ele>53.121135</ele>
        <time>2022-06-12T08:50:21.073Z</time>
      </trkpt>
      <trkpt lat="43.13059" lon="17.72357">
        <ele>53.226263</ele>
        <time>2022-06-12T08:50:24.071Z</time>
      </trkpt>
      <trkpt lat="43.1307" lon="17.72361">
        <ele>53.322854</ele>
        <time>2022-06-12T08:50:27.069Z</time>
      </trkpt>
      <trkpt lat="43.13079" lon="17.72365">
        <ele>53.412257</ele>
        <time>2022-06-12T08:50:30.075Z</time>
      </trkpt>
      <trkpt lat="43.13087" lon="17.72369">
        <ele>53.493502</ele>
        <time>2022-06-12T08:50:33.094Z</time>
      </trkpt>
      <trkpt lat="43.13096" lon="17.72372">
        <ele>53.578399</ele>
        <time>2022-06-12T08:50:36.084Z</time>
      </trkpt>
      <trkpt lat="43.13107" lon="17.72373">
        <ele>53.67052</ele>
        <time>2022-06-12T08:50:39.068Z</time>
      </trkpt>
      <trkpt lat="43.13119" lon="17.72374">
        <ele>53.781477</ele>
        <time>2022-06-12T08:50:42.096Z</time>
      </trkpt>
      <trkpt lat="43.13131" lon="17.72376">
        <ele>53.890589</ele>
        <time>2022-06-12T08:50:45.084Z</time>
      </trkpt>
      <trkpt lat="43.13142" lon="17.7238">
        <ele>53.996009</ele>
        <time>2022-06-12T08:50:48.095Z</time>
      </trkpt>
      <trkpt lat="43.13154" lon="17.72382">
        <ele>54.102421</ele>
        <time>2022-06-12T08:50:51.092Z</time>
      </trkpt>
      <trkpt lat="43.13165" lon="17.72383">
        <ele>54.202642</ele>
        <time>2022-06-12T08:50:54.091Z</time>
      </trkpt>
      <trkpt lat="43.13174" lon="17.72384">
        <ele>54.314886</ele>
        <time>2022-06-12T08:50:57.075Z</time>
      </trkpt>
      <trkpt lat="43.13186" lon="17.72388">
        <ele>54.652979</ele>
        <time>2022-06-12T08:51:01.078Z</time>
      </trkpt>
      <trkpt lat="43.13198" lon="17.72392">
        <ele>55.025731</ele>
        <time>2022-06-12T08:51:05.094Z</time>
      </trkpt>
      <trkpt lat="43.1321" lon="17.72395">
        <ele>55.378951</ele>
        <time>2022-06-12T08:51:08.082Z</time>
      </trkpt>
      <trkpt lat="43.13222" lon="17.72398">
        <ele>55.742353</ele>
        <time>2022-06-12T08:51:11.102Z</time>
      </trkpt>
      <trkpt lat="43.13234" lon="17.72401">
        <ele>56.077218</ele>
        <time>2022-06-12T08:51:14.071Z</time>
      </trkpt>
      <trkpt lat="43.13245" lon="17.72405">
        <ele>56.411018</ele>
        <time>2022-06-12T08:51:17.094Z</time>
      </trkpt>
      <trkpt lat="43.13256" lon="17.72408">
        <ele>56.742621</ele>
        <time>2022-06-12T08:51:20.074Z</time>
      </trkpt>
      <trkpt lat="43.13268" lon="17.7241">
        <ele>57.095317</ele>
        <time>2022-06-12T08:51:23.097Z</time>
      </trkpt>
      <trkpt lat="43.13279" lon="17.72413">
        <ele>57.418793</ele>
        <time>2022-06-12T08:51:26.082Z</time>
      </trkpt>
      <trkpt lat="43.13288" lon="17.72417">
        <ele>57.704179</ele>
        <time>2022-06-12T08:51:29.099Z</time>
      </trkpt>
      <trkpt lat="43.13298" lon="17.7242">
        <ele>57.992222</ele>
        <time>2022-06-12T08:51:32.074Z</time>
      </trkpt>
      <trkpt lat="43.13309" lon="17.72421">
        <ele>58.295675</ele>
        <time>2022-06-12T08:51:35.102Z</time>
      </trkpt>
      <trkpt lat="43.13319" lon="17.72423">
        <ele>58.605111</ele>
        <time>2022-06-12T08:51:38.080Z</time>
      </trkpt>
      <trkpt lat="43.1333" lon="17.72424">
        <ele>58.929429</ele>
        <time>2022-06-12T08:51:41.084Z</time>
      </trkpt>
      <trkpt lat="43.13342" lon="17.72426">
        <ele>59.271537</ele>
        <time>2022-06-12T08:51:44.069Z</time>
      </trkpt>
      <trkpt lat="43.13353" lon="17.72428">
        <ele>59.520235</ele>
        <time>2022-06-12T08:51:47.070Z</time>
      </trkpt>
      <trkpt lat="43.13365" lon="17.72431">
        <ele>59.56206</ele>
        <time>2022-06-12T08:51:50.075Z</time>
      </trkpt>
      <trkpt lat="43.13377" lon="17.72434">
        <ele>59.604523</ele>
        <time>2022-06-12T08:51:53.076Z</time>
      </trkpt>
      <trkpt lat="43.13388" lon="17.72439">
        <ele>59.643648</ele>
        <time>2022-06-12T08:51:56.091Z</time>
      </trkpt>
      <trkpt lat="43.134" lon="17.72442">
        <ele>59.687624</ele>
        <time>2022-06-12T08:51:59.107Z</time>
      </trkpt>
      <trkpt lat="43.13409" lon="17.72445">
        <ele>59.72074</ele>
        <time>2022-06-12T08:52:02.096Z</time>
      </trkpt>
      <trkpt lat="43.1342" lon="17.72448">
        <ele>59.757191</ele>
        <time>2022-06-12T08:52:07.118Z</time>
      </trkpt>
      <trkpt lat="43.13429" lon="17.7245">
        <ele>59.790699</ele>
        <time>2022-06-12T08:52:14.151Z</time>
      </trkpt>
      <trkpt lat="43.13439" lon="17.72452">
        <ele>59.824702</ele>
        <time>2022-06-12T08:52:19.108Z</time>
      </trkpt>
      <trkpt lat="43.13449" lon="17.72453">
        <ele>59.85882</ele>
        <time>2022-06-12T08:52:24.133Z</time>
      </trkpt>
      <trkpt lat="43.1346" lon="17.72455">
        <ele>59.898454</ele>
        <time>2022-06-12T08:52:29.106Z</time>
      </trkpt>
      <trkpt lat="43.13469" lon="17.72457">
        <ele>59.931949</ele>
        <time>2022-06-12T08:52:33.105Z</time>
      </trkpt>
      <trkpt lat="43.13479" lon="17.7246">
        <ele>59.967664</ele>
        <time>2022-06-12T08:52:37.107Z</time>
      </trkpt>
      <trkpt lat="43.1349" lon="17.72462">
        <ele>60.006565</ele>
        <time>2022-06-12T08:52:41.098Z</time>
      </trkpt>
      <trkpt lat="43.135" lon="17.72464">
        <ele>60.040594</ele>
        <time>2022-06-12T08:52:44.101Z</time>
      </trkpt>
      <trkpt lat="43.13511" lon="17.72466">
        <ele>60.079724</ele>
        <time>2022-06-12T08:52:47.135Z</time>
      </trkpt>
      <trkpt lat="43.13523" lon="17.72467">
        <ele>60.121069</ele>
        <time>2022-06-12T08:52:50.094Z</time>
      </trkpt>
      <trkpt lat="43.13536" lon="17.72472">
        <ele>60.27988</ele>
        <time>2022-06-12T08:52:53.106Z</time>
      </trkpt>
      <trkpt lat="43.13546" lon="17.72475">
        <ele>60.425797</ele>
        <time>2022-06-12T08:52:55.117Z</time>
      </trkpt>
      <trkpt lat="43.13556" lon="17.72478">
        <ele>60.587853</ele>
        <time>2022-06-12T08:52:57.121Z</time>
      </trkpt>
      <trkpt lat="43.13566" lon="17.72481">
        <ele>60.740941</ele>
        <time>2022-06-12T08:52:59.108Z</time>
      </trkpt>
      <trkpt lat="43.13578" lon="17.72485">
        <ele>60.93246</ele>
        <time>2022-06-12T08:53:02.111Z</time>
      </trkpt>
      <trkpt lat="43.13588" lon="17.72488">
        <ele>61.088058</ele>
        <time>2022-06-12T08:53:05.109Z</time>
      </trkpt>
      <trkpt lat="43.13597" lon="17.72492">
        <ele>61.233041</ele>
        <time>2022-06-12T08:53:08.103Z</time>
      </trkpt>
      <trkpt lat="43.13608" lon="17.72494">
        <ele>61.405697</ele>
        <time>2022-06-12T08:53:11.101Z</time>
      </trkpt>
      <trkpt lat="43.13619" lon="17.72496">
        <ele>61.568276</ele>
        <time>2022-06-12T08:53:14.107Z</time>
      </trkpt>
      <trkpt lat="43.13629" lon="17.72499">
        <ele>61.721779</ele>
        <time>2022-06-12T08:53:17.103Z</time>
      </trkpt>
      <trkpt lat="43.1364" lon="17.72503">
        <ele>61.898516</ele>
        <time>2022-06-12T08:53:20.099Z</time>
      </trkpt>
      <trkpt lat="43.1365" lon="17.72508">
        <ele>62.069817</ele>
        <time>2022-06-12T08:53:23.103Z</time>
      </trkpt>
      <trkpt lat="43.13661" lon="17.72511">
        <ele>62.228374</ele>
        <time>2022-06-12T08:53:26.101Z</time>
      </trkpt>
      <trkpt lat="43.13671" lon="17.72515">
        <ele>62.386002</ele>
        <time>2022-06-12T08:53:29.099Z</time>
      </trkpt>
      <trkpt lat="43.1368" lon="17.72519">
        <ele>62.543999</ele>
        <time>2022-06-12T08:53:32.094Z</time>
      </trkpt>
      <trkpt lat="43.13691" lon="17.72525">
        <ele>62.721081</ele>
        <time>2022-06-12T08:53:35.137Z</time>
      </trkpt>
      <trkpt lat="43.13703" lon="17.7253">
        <ele>62.850793</ele>
        <time>2022-06-12T08:53:38.091Z</time>
      </trkpt>
      <trkpt lat="43.13715" lon="17.72535">
        <ele>62.673372</ele>
        <time>2022-06-12T08:53:41.150Z</time>
      </trkpt>
      <trkpt lat="43.13728" lon="17.72539">
        <ele>62.485837</ele>
        <time>2022-06-12T08:53:44.103Z</time>
      </trkpt>
      <trkpt lat="43.1374" lon="17.72544">
        <ele>62.303631</ele>
        <time>2022-06-12T08:53:47.130Z</time>
      </trkpt>
      <trkpt lat="43.13752" lon="17.72549">
        <ele>62.12939</ele>
        <time>2022-06-12T08:53:50.104Z</time>
      </trkpt>
      <trkpt lat="43.13764" lon="17.72554">
        <ele>61.956873</ele>
        <time>2022-06-12T08:53:53.100Z</time>
      </trkpt>
      <trkpt lat="43.13775" lon="17.7256">
        <ele>61.788917</ele>
        <time>2022-06-12T08:53:56.093Z</time>
      </trkpt>
      <trkpt lat="43.13786" lon="17.72566">
        <ele>61.623588</ele>
        <time>2022-06-12T08:53:59.104Z</time>
      </trkpt>
      <trkpt lat="43.13796" lon="17.7257">
        <ele>61.46642</ele>
        <time>2022-06-12T08:54:02.099Z</time>
      </trkpt>
      <trkpt lat="43.13807" lon="17.72576">
        <ele>61.30502</ele>
        <time>2022-06-12T08:54:05.108Z</time>
      </trkpt>
      <trkpt lat="43.13817" lon="17.72582">
        <ele>61.150008</ele>
        <time>2022-06-12T08:54:08.100Z</time>
      </trkpt>
      <trkpt lat="43.13828" lon="17.72588">
        <ele>60.986123</ele>
        <time>2022-06-12T08:54:11.191Z</time>
      </trkpt>
      <trkpt lat="43.13838" lon="17.72595">
        <ele>60.819557</ele>
        <time>2022-06-12T08:54:14.152Z</time>
      </trkpt>
      <trkpt lat="43.13847" lon="17.72604">
        <ele>60.670013</ele>
        <time>2022-06-12T08:54:17.094Z</time>
      </trkpt>
      <trkpt lat="43.13855" lon="17.72611">
        <ele>60.539086</ele>
        <time>2022-06-12T08:54:20.092Z</time>
      </trkpt>
      <trkpt lat="43.13863" lon="17.72618">
        <ele>60.40051</ele>
        <time>2022-06-12T08:54:23.110Z</time>
      </trkpt>
      <trkpt lat="43.13873" lon="17.72627">
        <ele>60.364</ele>
        <time>2022-06-12T08:54:26.133Z</time>
      </trkpt>
      <trkpt lat="43.13882" lon="17.72635">
        <ele>60.40188</ele>
        <time>2022-06-12T08:54:29.092Z</time>
      </trkpt>
      <trkpt lat="43.13891" lon="17.72645">
        <ele>60.439808</ele>
        <time>2022-06-12T08:54:32.085Z</time>
      </trkpt>
      <trkpt lat="43.13899" lon="17.72652">
        <ele>60.472574</ele>
        <time>2022-06-12T08:54:35.114Z</time>
      </trkpt>
      <trkpt lat="43.13907" lon="17.72661">
        <ele>60.508258</ele>
        <time>2022-06-12T08:54:38.106Z</time>
      </trkpt>
      <trkpt lat="43.13918" lon="17.7267">
        <ele>60.549457</ele>
        <time>2022-06-12T08:54:41.103Z</time>
      </trkpt>
      <trkpt lat="43.13928" lon="17.72679">
        <ele>60.589843</ele>
        <time>2022-06-12T08:54:44.083Z</time>
      </trkpt>
      <trkpt lat="43.13937" lon="17.72687">
        <ele>60.626203</ele>
        <time>2022-06-12T08:54:47.090Z</time>
      </trkpt>
      <trkpt lat="43.13945" lon="17.72695">
        <ele>60.659541</ele>
        <time>2022-06-12T08:54:51.110Z</time>
      </trkpt>
      <trkpt lat="43.13966" lon="17.72711">
        <ele>60.738857</ele>
        <time>2022-06-12T09:16:07.105Z</time>
      </trkpt>
      <trkpt lat="43.13974" lon="17.72716">
        <ele>60.770513</ele>
        <time>2022-06-12T09:16:11.104Z</time>
      </trkpt>
      <trkpt lat="43.13985" lon="17.72723">
        <ele>60.809537</ele>
        <time>2022-06-12T09:16:15.085Z</time>
      </trkpt>
      <trkpt lat="43.13994" lon="17.7273">
        <ele>60.843601</ele>
        <time>2022-06-12T09:16:18.101Z</time>
      </trkpt>
      <trkpt lat="43.14004" lon="17.72737">
        <ele>60.882058</ele>
        <time>2022-06-12T09:16:21.109Z</time>
      </trkpt>
      <trkpt lat="43.14015" lon="17.72746">
        <ele>60.926277</ele>
        <time>2022-06-12T09:16:24.093Z</time>
      </trkpt>
      <trkpt lat="43.14023" lon="17.72752">
        <ele>60.980744</ele>
        <time>2022-06-12T09:16:26.107Z</time>
      </trkpt>
      <trkpt lat="43.14035" lon="17.72759">
        <ele>61.091214</ele>
        <time>2022-06-12T09:16:29.115Z</time>
      </trkpt>
      <trkpt lat="43.14045" lon="17.72764">
        <ele>61.191014</ele>
        <time>2022-06-12T09:16:32.105Z</time>
      </trkpt>
      <trkpt lat="43.14056" lon="17.72769">
        <ele>61.293322</ele>
        <time>2022-06-12T09:16:35.113Z</time>
      </trkpt>
      <trkpt lat="43.14067" lon="17.72774">
        <ele>61.392906</ele>
        <time>2022-06-12T09:16:38.104Z</time>
      </trkpt>
      <trkpt lat="43.14078" lon="17.72777">
        <ele>61.493072</ele>
        <time>2022-06-12T09:16:41.111Z</time>
      </trkpt>
      <trkpt lat="43.14088" lon="17.7278">
        <ele>61.579075</ele>
        <time>2022-06-12T09:16:44.092Z</time>
      </trkpt>
      <trkpt lat="43.14098" lon="17.72781">
        <ele>61.668058</ele>
        <time>2022-06-12T09:16:47.101Z</time>
      </trkpt>
      <trkpt lat="43.14107" lon="17.72783">
        <ele>61.752284</ele>
        <time>2022-06-12T09:16:50.100Z</time>
      </trkpt>
      <trkpt lat="43.14117" lon="17.72787">
        <ele>61.844475</ele>
        <time>2022-06-12T09:16:54.129Z</time>
      </trkpt>
      <trkpt lat="43.14127" lon="17.72791">
        <ele>61.932959</ele>
        <time>2022-06-12T09:16:58.100Z</time>
      </trkpt>
      <trkpt lat="43.14138" lon="17.72794">
        <ele>62.039227</ele>
        <time>2022-06-12T09:17:02.101Z</time>
      </trkpt>
      <trkpt lat="43.14148" lon="17.72794">
        <ele>62.128021</ele>
        <time>2022-06-12T09:17:05.137Z</time>
      </trkpt>
      <trkpt lat="43.14158" lon="17.72795">
        <ele>62.21248</ele>
        <time>2022-06-12T09:17:08.093Z</time>
      </trkpt>
      <trkpt lat="43.14169" lon="17.72796">
        <ele>62.309156</ele>
        <time>2022-06-12T09:17:11.103Z</time>
      </trkpt>
      <trkpt lat="43.1418" lon="17.72797">
        <ele>62.406142</ele>
        <time>2022-06-12T09:17:14.097Z</time>
      </trkpt>
      <trkpt lat="43.14189" lon="17.72798">
        <ele>62.49313</ele>
        <time>2022-06-12T09:17:17.103Z</time>
      </trkpt>
      <trkpt lat="43.14199" lon="17.72797">
        <ele>62.452753</ele>
        <time>2022-06-12T09:17:20.096Z</time>
      </trkpt>
      <trkpt lat="43.14208" lon="17.72794">
        <ele>62.266556</ele>
        <time>2022-06-12T09:17:23.109Z</time>
      </trkpt>
      <trkpt lat="43.14217" lon="17.7279">
        <ele>62.091953</ele>
        <time>2022-06-12T09:17:26.093Z</time>
      </trkpt>
      <trkpt lat="43.14229" lon="17.72786">
        <ele>61.858798</ele>
        <time>2022-06-12T09:17:30.113Z</time>
      </trkpt>
      <trkpt lat="43.14238" lon="17.72784">
        <ele>61.67689</ele>
        <time>2022-06-12T09:17:33.115Z</time>
      </trkpt>
      <trkpt lat="43.14247" lon="17.72779">
        <ele>61.486321</ele>
        <time>2022-06-12T09:17:36.097Z</time>
      </trkpt>
      <trkpt lat="43.14256" lon="17.72776">
        <ele>61.302658</ele>
        <time>2022-06-12T09:17:39.103Z</time>
      </trkpt>
      <trkpt lat="43.14266" lon="17.72772">
        <ele>61.118623</ele>
        <time>2022-06-12T09:17:42.097Z</time>
      </trkpt>
      <trkpt lat="43.14275" lon="17.72768">
        <ele>60.932155</ele>
        <time>2022-06-12T09:17:45.124Z</time>
      </trkpt>
      <trkpt lat="43.14284" lon="17.72764">
        <ele>60.744278</ele>
        <time>2022-06-12T09:17:48.126Z</time>
      </trkpt>
      <trkpt lat="43.14294" lon="17.72761">
        <ele>60.555377</ele>
        <time>2022-06-12T09:17:51.095Z</time>
      </trkpt>
      <trkpt lat="43.14303" lon="17.72756">
        <ele>60.351787</ele>
        <time>2022-06-12T09:17:54.097Z</time>
      </trkpt>
      <trkpt lat="43.14313" lon="17.72751">
        <ele>60.158922</ele>
        <time>2022-06-12T09:17:57.096Z</time>
      </trkpt>
      <trkpt lat="43.14323" lon="17.72749">
        <ele>59.960695</ele>
        <time>2022-06-12T09:18:00.136Z</time>
      </trkpt>
      <trkpt lat="43.14333" lon="17.72748">
        <ele>59.761448</ele>
        <time>2022-06-12T09:18:03.108Z</time>
      </trkpt>
      <trkpt lat="43.14345" lon="17.72746">
        <ele>59.540417</ele>
        <time>2022-06-12T09:18:06.103Z</time>
      </trkpt>
      <trkpt lat="43.14356" lon="17.72745">
        <ele>59.317617</ele>
        <time>2022-06-12T09:18:09.101Z</time>
      </trkpt>
      <trkpt lat="43.14367" lon="17.72745">
        <ele>59.10337</ele>
        <time>2022-06-12T09:18:12.100Z</time>
      </trkpt>
      <trkpt lat="43.14378" lon="17.72749">
        <ele>59.126963</ele>
        <time>2022-06-12T09:18:15.129Z</time>
      </trkpt>
      <trkpt lat="43.14389" lon="17.7275">
        <ele>59.189906</ele>
        <time>2022-06-12T09:18:18.093Z</time>
      </trkpt>
      <trkpt lat="43.14399" lon="17.72752">
        <ele>59.244984</ele>
        <time>2022-06-12T09:18:21.120Z</time>
      </trkpt>
      <trkpt lat="43.14408" lon="17.72754">
        <ele>59.299309</ele>
        <time>2022-06-12T09:18:24.105Z</time>
      </trkpt>
      <trkpt lat="43.14417" lon="17.72759">
        <ele>59.357037</ele>
        <time>2022-06-12T09:18:28.085Z</time>
      </trkpt>
      <trkpt lat="43.14427" lon="17.7276">
        <ele>59.416675</ele>
        <time>2022-06-12T09:18:35.107Z</time>
      </trkpt>
      <trkpt lat="43.14438" lon="17.72763">
        <ele>59.477871</ele>
        <time>2022-06-12T09:18:41.105Z</time>
      </trkpt>
      <trkpt lat="43.14448" lon="17.72767">
        <ele>59.540618</ele>
        <time>2022-06-12T09:18:45.111Z</time>
      </trkpt>
      <trkpt lat="43.14459" lon="17.72771">
        <ele>59.609467</ele>
        <time>2022-06-12T09:18:49.133Z</time>
      </trkpt>
      <trkpt lat="43.14468" lon="17.72775">
        <ele>59.664049</ele>
        <time>2022-06-12T09:18:52.103Z</time>
      </trkpt>
      <trkpt lat="43.14477" lon="17.72779">
        <ele>59.718458</ele>
        <time>2022-06-12T09:18:55.146Z</time>
      </trkpt>
      <trkpt lat="43.14486" lon="17.72784">
        <ele>59.774514</ele>
        <time>2022-06-12T09:18:58.102Z</time>
      </trkpt>
      <trkpt lat="43.14495" lon="17.72789">
        <ele>59.83158</ele>
        <time>2022-06-12T09:19:01.088Z</time>
      </trkpt>
      <trkpt lat="43.14504" lon="17.72795">
        <ele>59.890241</ele>
        <time>2022-06-12T09:19:04.097Z</time>
      </trkpt>
      <trkpt lat="43.14514" lon="17.72802">
        <ele>59.950449</ele>
        <time>2022-06-12T09:19:07.141Z</time>
      </trkpt>
      <trkpt lat="43.14523" lon="17.72809">
        <ele>60.011881</ele>
        <time>2022-06-12T09:19:10.101Z</time>
      </trkpt>
      <trkpt lat="43.14532" lon="17.72817">
        <ele>60.073288</ele>
        <time>2022-06-12T09:19:13.098Z</time>
      </trkpt>
      <trkpt lat="43.1454" lon="17.72825">
        <ele>60.181849</ele>
        <time>2022-06-12T09:19:16.115Z</time>
      </trkpt>
      <trkpt lat="43.14549" lon="17.72835">
        <ele>60.405642</ele>
        <time>2022-06-12T09:19:19.106Z</time>
      </trkpt>
      <trkpt lat="43.14558" lon="17.72843">
        <ele>60.614067</ele>
        <time>2022-06-12T09:19:22.109Z</time>
      </trkpt>
      <trkpt lat="43.14567" lon="17.72852">
        <ele>60.842471</ele>
        <time>2022-06-12T09:19:25.104Z</time>
      </trkpt>
      <trkpt lat="43.14576" lon="17.72862">
        <ele>61.064917</ele>
        <time>2022-06-12T09:19:28.090Z</time>
      </trkpt>
      <trkpt lat="43.14583" lon="17.72872">
        <ele>61.264008</ele>
        <time>2022-06-12T09:19:31.103Z</time>
      </trkpt>
      <trkpt lat="43.14592" lon="17.72881">
        <ele>61.481247</ele>
        <time>2022-06-12T09:19:34.103Z</time>
      </trkpt>
      <trkpt lat="43.146" lon="17.72891">
        <ele>61.695115</ele>
        <time>2022-06-12T09:19:37.100Z</time>
      </trkpt>
      <trkpt lat="43.14608" lon="17.72901">
        <ele>61.914223</ele>
        <time>2022-06-12T09:19:40.151Z</time>
      </trkpt>
      <trkpt lat="43.14617" lon="17.7291">
        <ele>62.131776</ele>
        <time>2022-06-12T09:19:43.111Z</time>
      </trkpt>
      <trkpt lat="43.14625" lon="17.7292">
        <ele>62.343564</ele>
        <time>2022-06-12T09:19:46.112Z</time>
      </trkpt>
      <trkpt lat="43.14633" lon="17.7293">
        <ele>62.557781</ele>
        <time>2022-06-12T09:19:49.115Z</time>
      </trkpt>
      <trkpt lat="43.1464" lon="17.7294">
        <ele>62.758469</ele>
        <time>2022-06-12T09:19:52.102Z</time>
      </trkpt>
      <trkpt lat="43.14649" lon="17.72949">
        <ele>62.972469</ele>
        <time>2022-06-12T09:19:55.109Z</time>
      </trkpt>
      <trkpt lat="43.14656" lon="17.72957">
        <ele>63.166797</ele>
        <time>2022-06-12T09:19:58.106Z</time>
      </trkpt>
      <trkpt lat="43.14665" lon="17.72966">
        <ele>63.376782</ele>
        <time>2022-06-12T09:20:01.104Z</time>
      </trkpt>
      <trkpt lat="43.14673" lon="17.72976">
        <ele>63.59744</ele>
        <time>2022-06-12T09:20:04.109Z</time>
      </trkpt>
      <trkpt lat="43.14681" lon="17.72985">
        <ele>63.782033</ele>
        <time>2022-06-12T09:20:07.108Z</time>
      </trkpt>
      <trkpt lat="43.14689" lon="17.72994">
        <ele>63.957057</ele>
        <time>2022-06-12T09:20:10.105Z</time>
      </trkpt>
      <trkpt lat="43.14695" lon="17.73003">
        <ele>64.11475</ele>
        <time>2022-06-12T09:20:13.095Z</time>
      </trkpt>
      <trkpt lat="43.14703" lon="17.73012">
        <ele>64.291891</ele>
        <time>2022-06-12T09:20:16.103Z</time>
      </trkpt>
      <trkpt lat="43.14711" lon="17.73022">
        <ele>64.47623</ele>
        <time>2022-06-12T09:20:19.128Z</time>
      </trkpt>
      <trkpt lat="43.14719" lon="17.73032">
        <ele>64.665248</ele>
        <time>2022-06-12T09:20:22.097Z</time>
      </trkpt>
      <trkpt lat="43.14728" lon="17.73042">
        <ele>64.860035</ele>
        <time>2022-06-12T09:20:25.137Z</time>
      </trkpt>
      <trkpt lat="43.14736" lon="17.73052">
        <ele>65.046039</ele>
        <time>2022-06-12T09:20:28.131Z</time>
      </trkpt>
      <trkpt lat="43.14744" lon="17.73062">
        <ele>65.22953</ele>
        <time>2022-06-12T09:20:31.145Z</time>
      </trkpt>
      <trkpt lat="43.14752" lon="17.73071">
        <ele>65.408788</ele>
        <time>2022-06-12T09:20:34.086Z</time>
      </trkpt>
      <trkpt lat="43.1476" lon="17.73081">
        <ele>65.604367</ele>
        <time>2022-06-12T09:20:37.140Z</time>
      </trkpt>
      <trkpt lat="43.14769" lon="17.73092">
        <ele>65.795875</ele>
        <time>2022-06-12T09:20:40.105Z</time>
      </trkpt>
      <trkpt lat="43.14777" lon="17.73102">
        <ele>65.986951</ele>
        <time>2022-06-12T09:20:43.100Z</time>
      </trkpt>
      <trkpt lat="43.14785" lon="17.73111">
        <ele>66.171401</ele>
        <time>2022-06-12T09:20:46.120Z</time>
      </trkpt>
      <trkpt lat="43.14793" lon="17.7312">
        <ele>66.351868</ele>
        <time>2022-06-12T09:20:49.106Z</time>
      </trkpt>
      <trkpt lat="43.14802" lon="17.7313">
        <ele>66.540886</ele>
        <time>2022-06-12T09:20:52.094Z</time>
      </trkpt>
      <trkpt lat="43.14809" lon="17.7314">
        <ele>66.713679</ele>
        <time>2022-06-12T09:20:55.093Z</time>
      </trkpt>
      <trkpt lat="43.14815" lon="17.7315">
        <ele>66.767382</ele>
        <time>2022-06-12T09:20:58.101Z</time>
      </trkpt>
      <trkpt lat="43.14821" lon="17.73161">
        <ele>66.773639</ele>
        <time>2022-06-12T09:21:01.116Z</time>
      </trkpt>
      <trkpt lat="43.14829" lon="17.73171">
        <ele>66.780362</ele>
        <time>2022-06-12T09:21:04.117Z</time>
      </trkpt>
      <trkpt lat="43.14835" lon="17.73181">
        <ele>66.786282</ele>
        <time>2022-06-12T09:21:07.110Z</time>
      </trkpt>
      <trkpt lat="43.14842" lon="17.7319">
        <ele>66.79251</ele>
        <time>2022-06-12T09:21:10.099Z</time>
      </trkpt>
      <trkpt lat="43.1485" lon="17.732">
        <ele>66.799272</ele>
        <time>2022-06-12T09:21:13.113Z</time>
      </trkpt>
      <trkpt lat="43.14862" lon="17.73205">
        <ele>66.807428</ele>
        <time>2022-06-12T09:21:17.104Z</time>
      </trkpt>
      <trkpt lat="43.14869" lon="17.73214">
        <ele>66.813673</ele>
        <time>2022-06-12T09:21:19.108Z</time>
      </trkpt>
      <trkpt lat="43.14879" lon="17.73225">
        <ele>66.821777</ele>
        <time>2022-06-12T09:21:22.105Z</time>
      </trkpt>
      <trkpt lat="43.14887" lon="17.73237">
        <ele>66.828968</ele>
        <time>2022-06-12T09:21:25.109Z</time>
      </trkpt>
      <trkpt lat="43.14893" lon="17.73247">
        <ele>66.835525</ele>
        <time>2022-06-12T09:21:28.114Z</time>
      </trkpt>
      <trkpt lat="43.14901" lon="17.73257">
        <ele>66.842458</ele>
        <time>2022-06-12T09:21:31.134Z</time>
      </trkpt>
      <trkpt lat="43.1491" lon="17.73268">
        <ele>66.849988</ele>
        <time>2022-06-12T09:21:34.112Z</time>
      </trkpt>
      <trkpt lat="43.14919" lon="17.73278">
        <ele>66.857166</ele>
        <time>2022-06-12T09:21:37.140Z</time>
      </trkpt>
      <trkpt lat="43.14927" lon="17.73287">
        <ele>66.863695</ele>
        <time>2022-06-12T09:21:40.085Z</time>
      </trkpt>
      <trkpt lat="43.14934" lon="17.73296">
        <ele>66.870007</ele>
        <time>2022-06-12T09:21:43.102Z</time>
      </trkpt>
      <trkpt lat="43.14941" lon="17.73305">
        <ele>66.876267</ele>
        <time>2022-06-12T09:21:46.102Z</time>
      </trkpt>
      <trkpt lat="43.14947" lon="17.73316">
        <ele>66.77179</ele>
        <time>2022-06-12T09:21:49.101Z</time>
      </trkpt>
      <trkpt lat="43.14954" lon="17.73325">
        <ele>66.640122</ele>
        <time>2022-06-12T09:21:52.110Z</time>
      </trkpt>
      <trkpt lat="43.14961" lon="17.73336">
        <ele>66.498716</ele>
        <time>2022-06-12T09:21:55.093Z</time>
      </trkpt>
      <trkpt lat="43.14968" lon="17.73346">
        <ele>66.354665</ele>
        <time>2022-06-12T09:21:58.104Z</time>
      </trkpt>
      <trkpt lat="43.14976" lon="17.73358">
        <ele>66.20061</ele>
        <time>2022-06-12T09:22:01.104Z</time>
      </trkpt>
      <trkpt lat="43.14981" lon="17.73371">
        <ele>66.051305</ele>
        <time>2022-06-12T09:22:05.117Z</time>
      </trkpt>
      <trkpt lat="43.14985" lon="17.73382">
        <ele>65.927137</ele>
        <time>2022-06-12T09:22:11.113Z</time>
      </trkpt>
      <trkpt lat="43.1499" lon="17.73393">
        <ele>65.797488</ele>
        <time>2022-06-12T09:22:17.100Z</time>
      </trkpt>
      <trkpt lat="43.14996" lon="17.73407">
        <ele>65.63488</ele>
        <time>2022-06-12T09:22:21.137Z</time>
      </trkpt>
      <trkpt lat="43.15001" lon="17.73421">
        <ele>65.485786</ele>
        <time>2022-06-12T09:22:25.111Z</time>
      </trkpt>
      <trkpt lat="43.15006" lon="17.73434">
        <ele>65.332575</ele>
        <time>2022-06-12T09:22:29.101Z</time>
      </trkpt>
      <trkpt lat="43.15011" lon="17.73445">
        <ele>65.209311</ele>
        <time>2022-06-12T09:22:32.148Z</time>
      </trkpt>
      <trkpt lat="43.15016" lon="17.73459">
        <ele>65.052615</ele>
        <time>2022-06-12T09:22:36.097Z</time>
      </trkpt>
      <trkpt lat="43.15021" lon="17.7347">
        <ele>64.917496</ele>
        <time>2022-06-12T09:22:40.102Z</time>
      </trkpt>
      <trkpt lat="43.15027" lon="17.73483">
        <ele>64.771018</ele>
        <time>2022-06-12T09:22:44.093Z</time>
      </trkpt>
      <trkpt lat="43.15032" lon="17.73497">
        <ele>64.612317</ele>
        <time>2022-06-12T09:22:48.106Z</time>
      </trkpt>
      <trkpt lat="43.15038" lon="17.73508">
        <ele>64.480283</ele>
        <time>2022-06-12T09:22:51.113Z</time>
      </trkpt>
      <trkpt lat="43.15046" lon="17.7352">
        <ele>64.340692</ele>
        <time>2022-06-12T09:22:55.092Z</time>
      </trkpt>
      <trkpt lat="43.1505" lon="17.73531">
        <ele>64.242128</ele>
        <time>2022-06-12T09:22:58.111Z</time>
      </trkpt>
      <trkpt lat="43.15054" lon="17.73543">
        <ele>64.139377</ele>
        <time>2022-06-12T09:23:01.099Z</time>
      </trkpt>
      <trkpt lat="43.15058" lon="17.73556">
        <ele>64.030121</ele>
        <time>2022-06-12T09:23:04.116Z</time>
      </trkpt>
      <trkpt lat="43.15063" lon="17.73573">
        <ele>63.887434</ele>
        <time>2022-06-12T09:23:07.106Z</time>
      </trkpt>
      <trkpt lat="43.15069" lon="17.73586">
        <ele>63.768697</ele>
        <time>2022-06-12T09:23:09.101Z</time>
      </trkpt>
      <trkpt lat="43.15076" lon="17.73597">
        <ele>63.65378</ele>
        <time>2022-06-12T09:23:12.112Z</time>
      </trkpt>
      <trkpt lat="43.15083" lon="17.73608">
        <ele>63.545644</ele>
        <time>2022-06-12T09:23:22.092Z</time>
      </trkpt>
      <trkpt lat="43.15091" lon="17.73619">
        <ele>63.423531</ele>
        <time>2022-06-12T09:23:26.096Z</time>
      </trkpt>
      <trkpt lat="43.151" lon="17.7363">
        <ele>63.291628</ele>
        <time>2022-06-12T09:23:30.106Z</time>
      </trkpt>
      <trkpt lat="43.15106" lon="17.73641">
        <ele>63.179985</ele>
        <time>2022-06-12T09:23:33.104Z</time>
      </trkpt>
      <trkpt lat="43.15113" lon="17.73651">
        <ele>63.075434</ele>
        <time>2022-06-12T09:23:36.126Z</time>
      </trkpt>
      <trkpt lat="43.1512" lon="17.73661">
        <ele>62.969743</ele>
        <time>2022-06-12T09:23:39.099Z</time>
      </trkpt>
      <trkpt lat="43.15127" lon="17.7367">
        <ele>62.869707</ele>
        <time>2022-06-12T09:23:42.106Z</time>
      </trkpt>
      <trkpt lat="43.15134" lon="17.73679">
        <ele>62.764146</ele>
        <time>2022-06-12T09:23:45.102Z</time>
      </trkpt>
      <trkpt lat="43.1514" lon="17.73689">
        <ele>62.664456</ele>
        <time>2022-06-12T09:23:48.110Z</time>
      </trkpt>
      <trkpt lat="43.15147" lon="17.73697">
        <ele>62.566501</ele>
        <time>2022-06-12T09:23:51.104Z</time>
      </trkpt>
      <trkpt lat="43.15154" lon="17.73705">
        <ele>62.526946</ele>
        <time>2022-06-12T09:23:54.104Z</time>
      </trkpt>
      <trkpt lat="43.15162" lon="17.73717">
        <ele>62.619218</ele>
        <time>2022-06-12T09:23:58.103Z</time>
      </trkpt>
      <trkpt lat="43.15168" lon="17.73726">
        <ele>62.695105</ele>
        <time>2022-06-12T09:24:01.131Z</time>
      </trkpt>
      <trkpt lat="43.15175" lon="17.73735">
        <ele>62.771554</ele>
        <time>2022-06-12T09:24:04.097Z</time>
      </trkpt>
      <trkpt lat="43.15182" lon="17.73744">
        <ele>62.845337</ele>
        <time>2022-06-12T09:24:07.138Z</time>
      </trkpt>
      <trkpt lat="43.15189" lon="17.73753">
        <ele>62.921689</ele>
        <time>2022-06-12T09:24:10.095Z</time>
      </trkpt>
      <trkpt lat="43.15197" lon="17.73761">
        <ele>63.000857</ele>
        <time>2022-06-12T09:24:13.093Z</time>
      </trkpt>
      <trkpt lat="43.15205" lon="17.7377">
        <ele>63.08148</ele>
        <time>2022-06-12T09:24:16.087Z</time>
      </trkpt>
      <trkpt lat="43.15212" lon="17.73777">
        <ele>63.155687</ele>
        <time>2022-06-12T09:24:19.108Z</time>
      </trkpt>
      <trkpt lat="43.15221" lon="17.73788">
        <ele>63.250677</ele>
        <time>2022-06-12T09:24:23.091Z</time>
      </trkpt>
      <trkpt lat="43.15228" lon="17.73797">
        <ele>63.328428</ele>
        <time>2022-06-12T09:24:26.103Z</time>
      </trkpt>
      <trkpt lat="43.15235" lon="17.73807">
        <ele>63.409366</ele>
        <time>2022-06-12T09:24:29.145Z</time>
      </trkpt>
      <trkpt lat="43.15243" lon="17.73817">
        <ele>63.492678</ele>
        <time>2022-06-12T09:24:32.094Z</time>
      </trkpt>
      <trkpt lat="43.1525" lon="17.73826">
        <ele>63.572635</ele>
        <time>2022-06-12T09:24:35.109Z</time>
      </trkpt>
      <trkpt lat="43.15258" lon="17.73835">
        <ele>63.654992</ele>
        <time>2022-06-12T09:24:38.095Z</time>
      </trkpt>
      <trkpt lat="43.15265" lon="17.73844">
        <ele>63.732331</ele>
        <time>2022-06-12T09:24:41.105Z</time>
      </trkpt>
      <trkpt lat="43.15273" lon="17.73856">
        <ele>63.827514</ele>
        <time>2022-06-12T09:24:45.116Z</time>
      </trkpt>
      <trkpt lat="43.15281" lon="17.73866">
        <ele>63.915006</ele>
        <time>2022-06-12T09:24:49.107Z</time>
      </trkpt>
      <trkpt lat="43.15289" lon="17.73875">
        <ele>63.932844</ele>
        <time>2022-06-12T09:24:52.117Z</time>
      </trkpt>
      <trkpt lat="43.15296" lon="17.73885">
        <ele>63.916587</ele>
        <time>2022-06-12T09:24:55.110Z</time>
      </trkpt>
      <trkpt lat="43.15303" lon="17.73894">
        <ele>63.900375</ele>
        <time>2022-06-12T09:24:58.109Z</time>
      </trkpt>
      <trkpt lat="43.15311" lon="17.73904">
        <ele>63.882622</ele>
        <time>2022-06-12T09:25:01.086Z</time>
      </trkpt>
      <trkpt lat="43.15319" lon="17.73915">
        <ele>63.865125</ele>
        <time>2022-06-12T09:25:04.104Z</time>
      </trkpt>
      <trkpt lat="43.15326" lon="17.73926">
        <ele>63.847457</ele>
        <time>2022-06-12T09:25:07.123Z</time>
      </trkpt>
      <trkpt lat="43.15335" lon="17.73936">
        <ele>63.828432</ele>
        <time>2022-06-12T09:25:10.097Z</time>
      </trkpt>
      <trkpt lat="43.15344" lon="17.73947">
        <ele>63.808858</ele>
        <time>2022-06-12T09:25:13.146Z</time>
      </trkpt>
      <trkpt lat="43.15352" lon="17.73958">
        <ele>63.790341</ele>
        <time>2022-06-12T09:25:16.096Z</time>
      </trkpt>
      <trkpt lat="43.1536" lon="17.73968">
        <ele>63.772086</ele>
        <time>2022-06-12T09:25:19.147Z</time>
      </trkpt>
      <trkpt lat="43.15368" lon="17.73978">
        <ele>63.755674</ele>
        <time>2022-06-12T09:25:22.099Z</time>
      </trkpt>
      <trkpt lat="43.15376" lon="17.73987">
        <ele>63.738533</ele>
        <time>2022-06-12T09:25:25.131Z</time>
      </trkpt>
      <trkpt lat="43.15384" lon="17.73996">
        <ele>63.721995</ele>
        <time>2022-06-12T09:25:28.091Z</time>
      </trkpt>
      <trkpt lat="43.15391" lon="17.74006">
        <ele>63.705855</ele>
        <time>2022-06-12T09:25:31.102Z</time>
      </trkpt>
      <trkpt lat="43.15398" lon="17.74015">
        <ele>63.689561</ele>
        <time>2022-06-12T09:25:34.108Z</time>
      </trkpt>
      <trkpt lat="43.15405" lon="17.74024">
        <ele>63.674311</ele>
        <time>2022-06-12T09:25:37.107Z</time>
      </trkpt>
      <trkpt lat="43.15413" lon="17.74035">
        <ele>63.655367</ele>
        <time>2022-06-12T09:25:41.127Z</time>
      </trkpt>
      <trkpt lat="43.1542" lon="17.74044">
        <ele>63.598646</ele>
        <time>2022-06-12T09:25:44.124Z</time>
      </trkpt>
      <trkpt lat="43.15427" lon="17.74053">
        <ele>63.524121</ele>
        <time>2022-06-12T09:25:47.093Z</time>
      </trkpt>
      <trkpt lat="43.15433" lon="17.74062">
        <ele>63.450413</ele>
        <time>2022-06-12T09:25:50.097Z</time>
      </trkpt>
      <trkpt lat="43.15441" lon="17.74072">
        <ele>63.375023</ele>
        <time>2022-06-12T09:25:53.122Z</time>
      </trkpt>
      <trkpt lat="43.15448" lon="17.74081">
        <ele>63.295629</ele>
        <time>2022-06-12T09:25:56.113Z</time>
      </trkpt>
      <trkpt lat="43.15455" lon="17.74091">
        <ele>63.215583</ele>
        <time>2022-06-12T09:25:59.113Z</time>
      </trkpt>
      <trkpt lat="43.15463" lon="17.74101">
        <ele>63.134189</ele>
        <time>2022-06-12T09:26:02.093Z</time>
      </trkpt>
      <trkpt lat="43.15469" lon="17.7411">
        <ele>63.062793</ele>
        <time>2022-06-12T09:26:05.104Z</time>
      </trkpt>
      <trkpt lat="43.15477" lon="17.7412">
        <ele>62.978042</ele>
        <time>2022-06-12T09:26:08.106Z</time>
      </trkpt>
      <trkpt lat="43.15486" lon="17.7413">
        <ele>62.891663</ele>
        <time>2022-06-12T09:26:11.104Z</time>
      </trkpt>
      <trkpt lat="43.15493" lon="17.74139">
        <ele>62.816416</ele>
        <time>2022-06-12T09:26:14.145Z</time>
      </trkpt>
      <trkpt lat="43.155" lon="17.74147">
        <ele>62.745216</ele>
        <time>2022-06-12T09:26:17.106Z</time>
      </trkpt>
      <trkpt lat="43.15507" lon="17.74156">
        <ele>62.673071</ele>
        <time>2022-06-12T09:26:20.137Z</time>
      </trkpt>
      <trkpt lat="43.15513" lon="17.74165">
        <ele>62.602908</ele>
        <time>2022-06-12T09:26:23.125Z</time>
      </trkpt>
      <trkpt lat="43.15519" lon="17.74175">
        <ele>62.532473</ele>
        <time>2022-06-12T09:26:26.136Z</time>
      </trkpt>
      <trkpt lat="43.15525" lon="17.74188">
        <ele>62.443784</ele>
        <time>2022-06-12T09:26:30.104Z</time>
      </trkpt>
      <trkpt lat="43.15532" lon="17.742">
        <ele>62.352816</ele>
        <time>2022-06-12T09:26:34.105Z</time>
      </trkpt>
      <trkpt lat="43.15539" lon="17.74211">
        <ele>62.271156</ele>
        <time>2022-06-12T09:26:37.156Z</time>
      </trkpt>
      <trkpt lat="43.15548" lon="17.74221">
        <ele>62.520571</ele>
        <time>2022-06-12T09:26:40.102Z</time>
      </trkpt>
      <trkpt lat="43.15558" lon="17.7423">
        <ele>62.845228</ele>
        <time>2022-06-12T09:26:43.166Z</time>
      </trkpt>
      <trkpt lat="43.15569" lon="17.74236">
        <ele>63.169966</ele>
        <time>2022-06-12T09:26:46.095Z</time>
      </trkpt>
      <trkpt lat="43.1558" lon="17.74243">
        <ele>63.496389</ele>
        <time>2022-06-12T09:26:49.094Z</time>
      </trkpt>
      <trkpt lat="43.1559" lon="17.74249">
        <ele>63.801422</ele>
        <time>2022-06-12T09:26:52.108Z</time>
      </trkpt>
      <trkpt lat="43.15599" lon="17.74256">
        <ele>64.084515</ele>
        <time>2022-06-12T09:26:55.103Z</time>
      </trkpt>
      <trkpt lat="43.15608" lon="17.74264">
        <ele>64.373887</ele>
        <time>2022-06-12T09:26:58.107Z</time>
      </trkpt>
      <trkpt lat="43.15617" lon="17.74273">
        <ele>64.674757</ele>
        <time>2022-06-12T09:27:01.087Z</time>
      </trkpt>
      <trkpt lat="43.15624" lon="17.74283">
        <ele>64.952703</ele>
        <time>2022-06-12T09:27:04.092Z</time>
      </trkpt>
      <trkpt lat="43.15632" lon="17.74292">
        <ele>65.237072</ele>
        <time>2022-06-12T09:27:07.111Z</time>
      </trkpt>
      <trkpt lat="43.15639" lon="17.74301">
        <ele>65.495298</ele>
        <time>2022-06-12T09:27:10.108Z</time>
      </trkpt>
      <trkpt lat="43.15649" lon="17.7431">
        <ele>65.820992</ele>
        <time>2022-06-12T09:27:14.099Z</time>
      </trkpt>
      <trkpt lat="43.15659" lon="17.74319">
        <ele>66.152408</ele>
        <time>2022-06-12T09:27:18.105Z</time>
      </trkpt>
      <trkpt lat="43.15668" lon="17.74327">
        <ele>66.451827</ele>
        <time>2022-06-12T09:27:21.100Z</time>
      </trkpt>
      <trkpt lat="43.15678" lon="17.74337">
        <ele>66.793123</ele>
        <time>2022-06-12T09:27:24.107Z</time>
      </trkpt>
      <trkpt lat="43.15687" lon="17.74348">
        <ele>67.121057</ele>
        <time>2022-06-12T09:27:27.104Z</time>
      </trkpt>
      <trkpt lat="43.15695" lon="17.74357">
        <ele>67.236902</ele>
        <time>2022-06-12T09:27:30.097Z</time>
      </trkpt>
      <trkpt lat="43.15704" lon="17.74369">
        <ele>67.317014</ele>
        <time>2022-06-12T09:27:33.156Z</time>
      </trkpt>
      <trkpt lat="43.15714" lon="17.7438">
        <ele>67.397836</ele>
        <time>2022-06-12T09:27:36.114Z</time>
      </trkpt>
      <trkpt lat="43.15722" lon="17.74392">
        <ele>67.475715</ele>
        <time>2022-06-12T09:27:39.093Z</time>
      </trkpt>
      <trkpt lat="43.15728" lon="17.74404">
        <ele>67.546286</ele>
        <time>2022-06-12T09:27:42.111Z</time>
      </trkpt>
      <trkpt lat="43.15734" lon="17.74418">
        <ele>67.623169</ele>
        <time>2022-06-12T09:27:45.129Z</time>
      </trkpt>
      <trkpt lat="43.15739" lon="17.74432">
        <ele>67.697287</ele>
        <time>2022-06-12T09:27:48.088Z</time>
      </trkpt>
      <trkpt lat="43.15742" lon="17.74446">
        <ele>67.76739</ele>
        <time>2022-06-12T09:27:51.109Z</time>
      </trkpt>
      <trkpt lat="43.15745" lon="17.74461">
        <ele>67.839225</ele>
        <time>2022-06-12T09:27:54.156Z</time>
      </trkpt>
      <trkpt lat="43.15747" lon="17.74475">
        <ele>67.911202</ele>
        <time>2022-06-12T09:27:57.164Z</time>
      </trkpt>
      <trkpt lat="43.15749" lon="17.74491">
        <ele>67.985989</ele>
        <time>2022-06-12T09:28:00.092Z</time>
      </trkpt>
      <trkpt lat="43.15751" lon="17.74506">
        <ele>68.059821</ele>
        <time>2022-06-12T09:28:03.104Z</time>
      </trkpt>
      <trkpt lat="43.15755" lon="17.7452">
        <ele>68.128117</ele>
        <time>2022-06-12T09:28:06.101Z</time>
      </trkpt>
      <trkpt lat="43.15761" lon="17.74533">
        <ele>68.19955</ele>
        <time>2022-06-12T09:28:09.105Z</time>
      </trkpt>
      <trkpt lat="43.15767" lon="17.74544">
        <ele>68.267822</ele>
        <time>2022-06-12T09:28:12.098Z</time>
      </trkpt>
      <trkpt lat="43.15773" lon="17.74555">
        <ele>68.332258</ele>
        <time>2022-06-12T09:28:15.108Z</time>
      </trkpt>
      <trkpt lat="43.15778" lon="17.7457">
        <ele>68.495282</ele>
        <time>2022-06-12T09:28:19.106Z</time>
      </trkpt>
      <trkpt lat="43.15782" lon="17.74585">
        <ele>68.678008</ele>
        <time>2022-06-12T09:28:22.087Z</time>
      </trkpt>
      <trkpt lat="43.15789" lon="17.74595">
        <ele>68.846265</ele>
        <time>2022-06-12T09:28:25.102Z</time>
      </trkpt>
      <trkpt lat="43.15799" lon="17.74596">
        <ele>69.010242</ele>
        <time>2022-06-12T09:28:28.096Z</time>
      </trkpt>
      <trkpt lat="43.15809" lon="17.7459">
        <ele>69.183163</ele>
        <time>2022-06-12T09:28:32.103Z</time>
      </trkpt>
      <trkpt lat="43.15817" lon="17.74598">
        <ele>69.333806</ele>
        <time>2022-06-12T09:28:38.099Z</time>
      </trkpt>
      <trkpt lat="43.1582" lon="17.74611">
        <ele>69.497292</ele>
        <time>2022-06-12T09:28:45.124Z</time>
      </trkpt>
      <trkpt lat="43.15825" lon="17.74624">
        <ele>69.66612</ele>
        <time>2022-06-12T09:28:51.098Z</time>
      </trkpt>
      <trkpt lat="43.15831" lon="17.74637">
        <ele>69.851924</ele>
        <time>2022-06-12T09:28:56.099Z</time>
      </trkpt>
      <trkpt lat="43.15836" lon="17.7465">
        <ele>70.023834</ele>
        <time>2022-06-12T09:29:00.096Z</time>
      </trkpt>
      <trkpt lat="43.1584" lon="17.74662">
        <ele>70.170684</ele>
        <time>2022-06-12T09:29:03.111Z</time>
      </trkpt>
      <trkpt lat="43.15843" lon="17.74673">
        <ele>70.317759</ele>
        <time>2022-06-12T09:29:06.095Z</time>
      </trkpt>
      <trkpt lat="43.15847" lon="17.74688">
        <ele>70.501587</ele>
        <time>2022-06-12T09:29:10.097Z</time>
      </trkpt>
      <trkpt lat="43.15851" lon="17.74701">
        <ele>70.666697</ele>
        <time>2022-06-12T09:29:14.110Z</time>
      </trkpt>
      <trkpt lat="43.15855" lon="17.74714">
        <ele>70.833876</ele>
        <time>2022-06-12T09:29:20.145Z</time>
      </trkpt>
      <trkpt lat="43.15861" lon="17.74725">
        <ele>70.984397</ele>
        <time>2022-06-12T09:29:24.108Z</time>
      </trkpt>
      <trkpt lat="43.15866" lon="17.74738">
        <ele>71.166085</ele>
        <time>2022-06-12T09:29:28.112Z</time>
      </trkpt>
      <trkpt lat="43.15871" lon="17.74751">
        <ele>71.186337</ele>
        <time>2022-06-12T09:29:32.097Z</time>
      </trkpt>
      <trkpt lat="43.15875" lon="17.74764">
        <ele>71.089874</ele>
        <time>2022-06-12T09:29:36.100Z</time>
      </trkpt>
      <trkpt lat="43.15879" lon="17.74779">
        <ele>70.978602</ele>
        <time>2022-06-12T09:29:40.102Z</time>
      </trkpt>
      <trkpt lat="43.15883" lon="17.74791">
        <ele>70.883066</ele>
        <time>2022-06-12T09:29:43.111Z</time>
      </trkpt>
      <trkpt lat="43.15887" lon="17.74804">
        <ele>70.789189</ele>
        <time>2022-06-12T09:29:46.109Z</time>
      </trkpt>
      <trkpt lat="43.1589" lon="17.74816">
        <ele>70.696375</ele>
        <time>2022-06-12T09:29:49.104Z</time>
      </trkpt>
      <trkpt lat="43.15894" lon="17.7483">
        <ele>70.594346</ele>
        <time>2022-06-12T09:29:52.110Z</time>
      </trkpt>
      <trkpt lat="43.15896" lon="17.74843">
        <ele>70.500794</ele>
        <time>2022-06-12T09:29:55.109Z</time>
      </trkpt>
      <trkpt lat="43.15899" lon="17.74855">
        <ele>70.411808</ele>
        <time>2022-06-12T09:29:58.095Z</time>
      </trkpt>
      <trkpt lat="43.15902" lon="17.74871">
        <ele>70.300795</ele>
        <time>2022-06-12T09:30:02.099Z</time>
      </trkpt>
      <trkpt lat="43.15904" lon="17.74884">
        <ele>70.208254</ele>
        <time>2022-06-12T09:30:05.109Z</time>
      </trkpt>
      <trkpt lat="43.15906" lon="17.74897">
        <ele>70.115382</ele>
        <time>2022-06-12T09:30:08.109Z</time>
      </trkpt>
      <trkpt lat="43.15908" lon="17.7491">
        <ele>70.017469</ele>
        <time>2022-06-12T09:30:11.093Z</time>
      </trkpt>
      <trkpt lat="43.1591" lon="17.74924">
        <ele>69.919447</ele>
        <time>2022-06-12T09:30:14.109Z</time>
      </trkpt>
      <trkpt lat="43.15911" lon="17.74937">
        <ele>69.829107</ele>
        <time>2022-06-12T09:30:17.096Z</time>
      </trkpt>
      <trkpt lat="43.15912" lon="17.74952">
        <ele>69.725752</ele>
        <time>2022-06-12T09:30:21.128Z</time>
      </trkpt>
      <trkpt lat="43.15913" lon="17.74967">
        <ele>69.616019</ele>
        <time>2022-06-12T09:30:27.104Z</time>
      </trkpt>
      <trkpt lat="43.15914" lon="17.7498">
        <ele>69.525366</ele>
        <time>2022-06-12T09:30:30.097Z</time>
      </trkpt>
      <trkpt lat="43.15916" lon="17.74996">
        <ele>69.327849</ele>
        <time>2022-06-12T09:30:34.104Z</time>
      </trkpt>
      <trkpt lat="43.15917" lon="17.75012">
        <ele>69.118215</ele>
        <time>2022-06-12T09:30:38.095Z</time>
      </trkpt>
      <trkpt lat="43.15919" lon="17.7503">
        <ele>68.884832</ele>
        <time>2022-06-12T09:30:45.122Z</time>
      </trkpt>
      <trkpt lat="43.15921" lon="17.75044">
        <ele>68.707655</ele>
        <time>2022-06-12T09:30:47.098Z</time>
      </trkpt>
      <trkpt lat="43.1592" lon="17.75059">
        <ele>68.516795</ele>
        <time>2022-06-12T09:30:50.105Z</time>
      </trkpt>
      <trkpt lat="43.15922" lon="17.75073">
        <ele>68.332025</ele>
        <time>2022-06-12T09:30:53.092Z</time>
      </trkpt>
      <trkpt lat="43.15922" lon="17.75086">
        <ele>68.166094</ele>
        <time>2022-06-12T09:30:56.110Z</time>
      </trkpt>
      <trkpt lat="43.15923" lon="17.75101">
        <ele>67.983807</ele>
        <time>2022-06-12T09:31:00.115Z</time>
      </trkpt>
      <trkpt lat="43.15924" lon="17.75116">
        <ele>67.782097</ele>
        <time>2022-06-12T09:31:05.155Z</time>
      </trkpt>
      <trkpt lat="43.15925" lon="17.75132">
        <ele>67.583065</ele>
        <time>2022-06-12T09:31:09.105Z</time>
      </trkpt>
      <trkpt lat="43.15925" lon="17.75144">
        <ele>67.426382</ele>
        <time>2022-06-12T09:31:12.111Z</time>
      </trkpt>
      <trkpt lat="43.15926" lon="17.7516">
        <ele>67.231403</ele>
        <time>2022-06-12T09:31:16.092Z</time>
      </trkpt>
      <trkpt lat="43.15927" lon="17.75174">
        <ele>67.046315</ele>
        <time>2022-06-12T09:31:20.104Z</time>
      </trkpt>
      <trkpt lat="43.15927" lon="17.7519">
        <ele>66.846623</ele>
        <time>2022-06-12T09:31:24.098Z</time>
      </trkpt>
      <trkpt lat="43.15928" lon="17.75202">
        <ele>66.68829</ele>
        <time>2022-06-12T09:31:28.104Z</time>
      </trkpt>
      <trkpt lat="43.15919" lon="17.75208">
        <ele>66.506381</ele>
        <time>2022-06-12T09:31:37.147Z</time>
      </trkpt>
      <trkpt lat="43.1591" lon="17.7521">
        <ele>66.368265</ele>
        <time>2022-06-12T09:31:44.102Z</time>
      </trkpt>
      <trkpt lat="43.1591" lon="17.75224">
        <ele>66.285955</ele>
        <time>2022-06-12T09:31:51.112Z</time>
      </trkpt>
      <trkpt lat="43.15909" lon="17.75236">
        <ele>66.214437</ele>
        <time>2022-06-12T09:31:53.108Z</time>
      </trkpt>
      <trkpt lat="43.15911" lon="17.7525">
        <ele>66.135029</ele>
        <time>2022-06-12T09:31:56.093Z</time>
      </trkpt>
      <trkpt lat="43.1591" lon="17.75265">
        <ele>66.046966</ele>
        <time>2022-06-12T09:31:59.182Z</time>
      </trkpt>
      <trkpt lat="43.15911" lon="17.7528">
        <ele>65.962645</ele>
        <time>2022-06-12T09:32:02.097Z</time>
      </trkpt>
      <trkpt lat="43.15913" lon="17.75295">
        <ele>65.873011</ele>
        <time>2022-06-12T09:32:05.111Z</time>
      </trkpt>
      <trkpt lat="43.15915" lon="17.75311">
        <ele>65.780855</ele>
        <time>2022-06-12T09:32:08.107Z</time>
      </trkpt>
      <trkpt lat="43.15916" lon="17.75328">
        <ele>65.685635</ele>
        <time>2022-06-12T09:32:11.105Z</time>
      </trkpt>
      <trkpt lat="43.15918" lon="17.7534">
        <ele>65.611328</ele>
        <time>2022-06-12T09:32:14.115Z</time>
      </trkpt>
      <trkpt lat="43.1592" lon="17.75355">
        <ele>65.526322</ele>
        <time>2022-06-12T09:32:17.114Z</time>
      </trkpt>
      <trkpt lat="43.15922" lon="17.75369">
        <ele>65.441248</ele>
        <time>2022-06-12T09:32:20.107Z</time>
      </trkpt>
      <trkpt lat="43.15925" lon="17.75384">
        <ele>65.353187</ele>
        <time>2022-06-12T09:32:23.114Z</time>
      </trkpt>
      <trkpt lat="43.1593" lon="17.754">
        <ele>65.256678</ele>
        <time>2022-06-12T09:32:26.125Z</time>
      </trkpt>
      <trkpt lat="43.15934" lon="17.75416">
        <ele>65.156387</ele>
        <time>2022-06-12T09:32:29.097Z</time>
      </trkpt>
      <trkpt lat="43.15937" lon="17.75432">
        <ele>65.061128</ele>
        <time>2022-06-12T09:32:32.083Z</time>
      </trkpt>
      <trkpt lat="43.1594" lon="17.75447">
        <ele>64.970335</ele>
        <time>2022-06-12T09:32:35.088Z</time>
      </trkpt>
      <trkpt lat="43.15942" lon="17.75463">
        <ele>64.946775</ele>
        <time>2022-06-12T09:32:38.121Z</time>
      </trkpt>
      <trkpt lat="43.15944" lon="17.7548">
        <ele>64.924726</ele>
        <time>2022-06-12T09:32:41.104Z</time>
      </trkpt>
      <trkpt lat="43.15945" lon="17.75496">
        <ele>64.903719</ele>
        <time>2022-06-12T09:32:44.097Z</time>
      </trkpt>
      <trkpt lat="43.15949" lon="17.75512">
        <ele>64.882452</ele>
        <time>2022-06-12T09:32:47.105Z</time>
      </trkpt>
      <trkpt lat="43.15954" lon="17.75528">
        <ele>64.860602</ele>
        <time>2022-06-12T09:32:50.127Z</time>
      </trkpt>
      <trkpt lat="43.15959" lon="17.75542">
        <ele>64.840079</ele>
        <time>2022-06-12T09:32:53.099Z</time>
      </trkpt>
      <trkpt lat="43.15965" lon="17.75556">
        <ele>64.819414</ele>
        <time>2022-06-12T09:32:56.105Z</time>
      </trkpt>
      <trkpt lat="43.15971" lon="17.7557">
        <ele>64.798082</ele>
        <time>2022-06-12T09:32:59.117Z</time>
      </trkpt>
      <trkpt lat="43.15977" lon="17.75583">
        <ele>64.777822</ele>
        <time>2022-06-12T09:33:02.093Z</time>
      </trkpt>
      <trkpt lat="43.15983" lon="17.75597">
        <ele>64.758062</ele>
        <time>2022-06-12T09:33:05.105Z</time>
      </trkpt>
      <trkpt lat="43.15989" lon="17.75609">
        <ele>64.738544</ele>
        <time>2022-06-12T09:33:08.111Z</time>
      </trkpt>
      <trkpt lat="43.15995" lon="17.75622">
        <ele>64.719787</ele>
        <time>2022-06-12T09:33:11.102Z</time>
      </trkpt>
      <trkpt lat="43.16001" lon="17.75635">
        <ele>64.700446</ele>
        <time>2022-06-12T09:33:14.095Z</time>
      </trkpt>
      <trkpt lat="43.16007" lon="17.75648">
        <ele>64.679955</ele>
        <time>2022-06-12T09:33:17.106Z</time>
      </trkpt>
      <trkpt lat="43.16013" lon="17.75662">
        <ele>64.658892</ele>
        <time>2022-06-12T09:33:20.107Z</time>
      </trkpt>
      <trkpt lat="43.16019" lon="17.75676">
        <ele>64.569383</ele>
        <time>2022-06-12T09:33:23.101Z</time>
      </trkpt>
      <trkpt lat="43.16024" lon="17.75688">
        <ele>64.434902</ele>
        <time>2022-06-12T09:33:26.102Z</time>
      </trkpt>
      <trkpt lat="43.1603" lon="17.75699">
        <ele>64.302809</ele>
        <time>2022-06-12T09:33:29.097Z</time>
      </trkpt>
      <trkpt lat="43.16037" lon="17.7571">
        <ele>64.168612</ele>
        <time>2022-06-12T09:33:32.092Z</time>
      </trkpt>
      <trkpt lat="43.16046" lon="17.75721">
        <ele>64.010118</ele>
        <time>2022-06-12T09:33:35.151Z</time>
      </trkpt>
      <trkpt lat="43.16054" lon="17.75729">
        <ele>63.886227</ele>
        <time>2022-06-12T09:33:38.108Z</time>
      </trkpt>
      <trkpt lat="43.16063" lon="17.75736">
        <ele>63.752748</ele>
        <time>2022-06-12T09:33:41.121Z</time>
      </trkpt>
      <trkpt lat="43.16072" lon="17.75744">
        <ele>63.620252</ele>
        <time>2022-06-12T09:33:44.109Z</time>
      </trkpt>
      <trkpt lat="43.16082" lon="17.7575">
        <ele>63.473404</ele>
        <time>2022-06-12T09:33:47.123Z</time>
      </trkpt>
      <trkpt lat="43.16093" lon="17.75756">
        <ele>63.324578</ele>
        <time>2022-06-12T09:33:50.123Z</time>
      </trkpt>
      <trkpt lat="43.16105" lon="17.75762">
        <ele>63.15793</ele>
        <time>2022-06-12T09:33:53.091Z</time>
      </trkpt>
      <trkpt lat="43.16116" lon="17.75771">
        <ele>62.998628</ele>
        <time>2022-06-12T09:33:56.095Z</time>
      </trkpt>
      <trkpt lat="43.16127" lon="17.7578">
        <ele>62.82693</ele>
        <time>2022-06-12T09:33:59.106Z</time>
      </trkpt>
      <trkpt lat="43.16135" lon="17.75785">
        <ele>62.709746</ele>
        <time>2022-06-12T09:34:01.101Z</time>
      </trkpt>
      <trkpt lat="43.16147" lon="17.75794">
        <ele>62.543921</ele>
        <time>2022-06-12T09:34:04.100Z</time>
      </trkpt>
      <trkpt lat="43.16159" lon="17.75802">
        <ele>62.372442</ele>
        <time>2022-06-12T09:34:07.111Z</time>
      </trkpt>
      <trkpt lat="43.16167" lon="17.75807">
        <ele>62.397943</ele>
        <time>2022-06-12T09:34:09.105Z</time>
      </trkpt>
      <trkpt lat="43.16176" lon="17.75812">
        <ele>62.488651</ele>
        <time>2022-06-12T09:34:11.102Z</time>
      </trkpt>
      <trkpt lat="43.16184" lon="17.75817">
        <ele>62.580648</ele>
        <time>2022-06-12T09:34:13.114Z</time>
      </trkpt>
      <trkpt lat="43.16193" lon="17.75822">
        <ele>62.674781</ele>
        <time>2022-06-12T09:34:15.110Z</time>
      </trkpt>
      <trkpt lat="43.16203" lon="17.75826">
        <ele>62.779705</ele>
        <time>2022-06-12T09:34:17.092Z</time>
      </trkpt>
      <trkpt lat="43.16213" lon="17.7583">
        <ele>62.882898</ele>
        <time>2022-06-12T09:34:19.111Z</time>
      </trkpt>
      <trkpt lat="43.16222" lon="17.75833">
        <ele>62.978631</ele>
        <time>2022-06-12T09:34:21.115Z</time>
      </trkpt>
      <trkpt lat="43.16231" lon="17.75835">
        <ele>63.071512</ele>
        <time>2022-06-12T09:34:23.096Z</time>
      </trkpt>
      <trkpt lat="43.1624" lon="17.75837">
        <ele>63.167677</ele>
        <time>2022-06-12T09:34:25.149Z</time>
      </trkpt>
      <trkpt lat="43.16253" lon="17.75838">
        <ele>63.29045</ele>
        <time>2022-06-12T09:34:28.096Z</time>
      </trkpt>
      <trkpt lat="43.16264" lon="17.7584">
        <ele>63.407896</ele>
        <time>2022-06-12T09:34:31.102Z</time>
      </trkpt>
      <trkpt lat="43.16276" lon="17.75843">
        <ele>63.523157</ele>
        <time>2022-06-12T09:34:34.091Z</time>
      </trkpt>
      <trkpt lat="43.16288" lon="17.75845">
        <ele>63.644107</ele>
        <time>2022-06-12T09:34:37.106Z</time>
      </trkpt>
      <trkpt lat="43.163" lon="17.75846">
        <ele>63.770752</ele>
        <time>2022-06-12T09:34:40.105Z</time>
      </trkpt>
      <trkpt lat="43.16312" lon="17.75845">
        <ele>63.889204</ele>
        <time>2022-06-12T09:34:43.108Z</time>
      </trkpt>
      <trkpt lat="43.16321" lon="17.75845">
        <ele>63.984585</ele>
        <time>2022-06-12T09:34:46.105Z</time>
      </trkpt>
      <trkpt lat="43.16334" lon="17.75844">
        <ele>64.106535</ele>
        <time>2022-06-12T09:34:50.109Z</time>
      </trkpt>
      <trkpt lat="43.16344" lon="17.75842">
        <ele>64.212003</ele>
        <time>2022-06-12T09:34:53.130Z</time>
      </trkpt>
      <trkpt lat="43.16356" lon="17.75842">
        <ele>64.328126</ele>
        <time>2022-06-12T09:34:56.106Z</time>
      </trkpt>
      <trkpt lat="43.16367" lon="17.7584">
        <ele>64.438451</ele>
        <time>2022-06-12T09:34:59.145Z</time>
      </trkpt>
      <trkpt lat="43.16377" lon="17.75839">
        <ele>64.545915</ele>
        <time>2022-06-12T09:35:02.112Z</time>
      </trkpt>
      <trkpt lat="43.16389" lon="17.75837">
        <ele>64.666864</ele>
        <time>2022-06-12T09:35:05.155Z</time>
      </trkpt>
      <trkpt lat="43.16401" lon="17.75835">
        <ele>64.783665</ele>
        <time>2022-06-12T09:35:08.105Z</time>
      </trkpt>
      <trkpt lat="43.16413" lon="17.75834">
        <ele>64.903696</ele>
        <time>2022-06-12T09:35:11.096Z</time>
      </trkpt>
      <trkpt lat="43.16425" lon="17.75834">
        <ele>65.023726</ele>
        <time>2022-06-12T09:35:14.096Z</time>
      </trkpt>
      <trkpt lat="43.16436" lon="17.75832">
        <ele>65.135315</ele>
        <time>2022-06-12T09:35:17.095Z</time>
      </trkpt>
      <trkpt lat="43.16448" lon="17.75831">
        <ele>65.254728</ele>
        <time>2022-06-12T09:35:20.107Z</time>
      </trkpt>
      <trkpt lat="43.16459" lon="17.75829">
        <ele>65.37072</ele>
        <time>2022-06-12T09:35:23.112Z</time>
      </trkpt>
      <trkpt lat="43.1647" lon="17.75828">
        <ele>65.474762</ele>
        <time>2022-06-12T09:35:26.107Z</time>
      </trkpt>
      <trkpt lat="43.1648" lon="17.75828">
        <ele>65.572745</ele>
        <time>2022-06-12T09:35:29.111Z</time>
      </trkpt>
      <trkpt lat="43.16491" lon="17.75829">
        <ele>65.685872</ele>
        <time>2022-06-12T09:35:32.121Z</time>
      </trkpt>
      <trkpt lat="43.16503" lon="17.75829">
        <ele>65.801857</ele>
        <time>2022-06-12T09:35:35.116Z</time>
      </trkpt>
      <trkpt lat="43.16513" lon="17.7583">
        <ele>65.906091</ele>
        <time>2022-06-12T09:35:38.130Z</time>
      </trkpt>
      <trkpt lat="43.16522" lon="17.75833">
        <ele>65.846201</ele>
        <time>2022-06-12T09:35:41.095Z</time>
      </trkpt>
      <trkpt lat="43.16532" lon="17.75835">
        <ele>65.708273</ele>
        <time>2022-06-12T09:35:44.145Z</time>
      </trkpt>
      <trkpt lat="43.16543" lon="17.75838">
        <ele>65.563248</ele>
        <time>2022-06-12T09:35:47.111Z</time>
      </trkpt>
      <trkpt lat="43.16553" lon="17.75842">
        <ele>65.410724</ele>
        <time>2022-06-12T09:35:50.112Z</time>
      </trkpt>
      <trkpt lat="43.16565" lon="17.75846">
        <ele>65.251037</ele>
        <time>2022-06-12T09:35:53.104Z</time>
      </trkpt>
      <trkpt lat="43.16576" lon="17.75851">
        <ele>65.086733</ele>
        <time>2022-06-12T09:35:56.108Z</time>
      </trkpt>
      <trkpt lat="43.16588" lon="17.75857">
        <ele>64.914346</ele>
        <time>2022-06-12T09:35:59.103Z</time>
      </trkpt>
      <trkpt lat="43.166" lon="17.75864">
        <ele>64.738384</ele>
        <time>2022-06-12T09:36:02.107Z</time>
      </trkpt>
      <trkpt lat="43.16611" lon="17.7587">
        <ele>64.563867</ele>
        <time>2022-06-12T09:36:05.136Z</time>
      </trkpt>
      <trkpt lat="43.16623" lon="17.75877">
        <ele>64.384775</ele>
        <time>2022-06-12T09:36:08.104Z</time>
      </trkpt>
      <trkpt lat="43.16635" lon="17.75883">
        <ele>64.217982</ele>
        <time>2022-06-12T09:36:11.104Z</time>
      </trkpt>
      <trkpt lat="43.16647" lon="17.7589">
        <ele>64.031906</ele>
        <time>2022-06-12T09:36:14.098Z</time>
      </trkpt>
      <trkpt lat="43.16659" lon="17.75897">
        <ele>63.848756</ele>
        <time>2022-06-12T09:36:17.133Z</time>
      </trkpt>
      <trkpt lat="43.16668" lon="17.75903">
        <ele>63.722004</ele>
        <time>2022-06-12T09:36:19.105Z</time>
      </trkpt>
      <trkpt lat="43.16676" lon="17.75908">
        <ele>63.595111</ele>
        <time>2022-06-12T09:36:21.092Z</time>
      </trkpt>
      <trkpt lat="43.16684" lon="17.75914">
        <ele>63.470909</ele>
        <time>2022-06-12T09:36:23.096Z</time>
      </trkpt>
      <trkpt lat="43.16692" lon="17.7592">
        <ele>63.494622</ele>
        <time>2022-06-12T09:36:25.109Z</time>
      </trkpt>
      <trkpt lat="43.167" lon="17.75925">
        <ele>63.528654</ele>
        <time>2022-06-12T09:36:27.121Z</time>
      </trkpt>
      <trkpt lat="43.16709" lon="17.75931">
        <ele>63.563127</ele>
        <time>2022-06-12T09:36:29.106Z</time>
      </trkpt>
      <trkpt lat="43.16718" lon="17.75936">
        <ele>63.597849</ele>
        <time>2022-06-12T09:36:31.094Z</time>
      </trkpt>
      <trkpt lat="43.16729" lon="17.75943">
        <ele>63.645665</ele>
        <time>2022-06-12T09:36:34.101Z</time>
      </trkpt>
      <trkpt lat="43.1674" lon="17.7595">
        <ele>63.690771</ele>
        <time>2022-06-12T09:36:37.100Z</time>
      </trkpt>
      <trkpt lat="43.16752" lon="17.75957">
        <ele>63.736455</ele>
        <time>2022-06-12T09:36:40.116Z</time>
      </trkpt>
      <trkpt lat="43.16763" lon="17.75963">
        <ele>63.780464</ele>
        <time>2022-06-12T09:36:43.108Z</time>
      </trkpt>
      <trkpt lat="43.16773" lon="17.7597">
        <ele>63.820645</ele>
        <time>2022-06-12T09:36:46.112Z</time>
      </trkpt>
      <trkpt lat="43.16782" lon="17.75976">
        <ele>63.859962</ele>
        <time>2022-06-12T09:36:49.103Z</time>
      </trkpt>
      <trkpt lat="43.16793" lon="17.75984">
        <ele>63.905538</ele>
        <time>2022-06-12T09:36:52.108Z</time>
      </trkpt>
      <trkpt lat="43.16803" lon="17.75993">
        <ele>63.948477</ele>
        <time>2022-06-12T09:36:55.104Z</time>
      </trkpt>
      <trkpt lat="43.16812" lon="17.76003">
        <ele>63.993713</ele>
        <time>2022-06-12T09:36:58.104Z</time>
      </trkpt>
      <trkpt lat="43.16823" lon="17.76014">
        <ele>64.042497</ele>
        <time>2022-06-12T09:37:01.133Z</time>
      </trkpt>
      <trkpt lat="43.1683" lon="17.76022">
        <ele>64.076424</ele>
        <time>2022-06-12T09:37:03.100Z</time>
      </trkpt>
      <trkpt lat="43.16841" lon="17.76034">
        <ele>64.12683</ele>
        <time>2022-06-12T09:37:06.089Z</time>
      </trkpt>
      <trkpt lat="43.16848" lon="17.76043">
        <ele>64.405451</ele>
        <time>2022-06-12T09:37:08.108Z</time>
      </trkpt>
      <trkpt lat="43.16855" lon="17.76051">
        <ele>64.689912</ele>
        <time>2022-06-12T09:37:10.104Z</time>
      </trkpt>
      <trkpt lat="43.16861" lon="17.76061">
        <ele>64.965509</ele>
        <time>2022-06-12T09:37:12.101Z</time>
      </trkpt>
      <trkpt lat="43.1687" lon="17.76073">
        <ele>65.347805</ele>
        <time>2022-06-12T09:37:15.108Z</time>
      </trkpt>
      <trkpt lat="43.16878" lon="17.76085">
        <ele>65.685147</ele>
        <time>2022-06-12T09:37:18.130Z</time>
      </trkpt>
      <trkpt lat="43.16884" lon="17.76097">
        <ele>66.010904</ele>
        <time>2022-06-12T09:37:21.097Z</time>
      </trkpt>
      <trkpt lat="43.16891" lon="17.76111">
        <ele>66.370124</ele>
        <time>2022-06-12T09:37:24.094Z</time>
      </trkpt>
      <trkpt lat="43.16897" lon="17.76125">
        <ele>66.729228</ele>
        <time>2022-06-12T09:37:27.106Z</time>
      </trkpt>
      <trkpt lat="43.16903" lon="17.76139">
        <ele>67.09137</ele>
        <time>2022-06-12T09:37:30.105Z</time>
      </trkpt>
      <trkpt lat="43.16909" lon="17.76154">
        <ele>67.453849</ele>
        <time>2022-06-12T09:37:33.109Z</time>
      </trkpt>
      <trkpt lat="43.16916" lon="17.76168">
        <ele>67.821572</ele>
        <time>2022-06-12T09:37:36.114Z</time>
      </trkpt>
      <trkpt lat="43.16922" lon="17.76184">
        <ele>68.21049</ele>
        <time>2022-06-12T09:37:39.113Z</time>
      </trkpt>
      <trkpt lat="43.16928" lon="17.76198">
        <ele>68.569593</ele>
        <time>2022-06-12T09:37:42.110Z</time>
      </trkpt>
      <trkpt lat="43.16935" lon="17.76212">
        <ele>68.937445</ele>
        <time>2022-06-12T09:37:45.117Z</time>
      </trkpt>
      <trkpt lat="43.16943" lon="17.76226">
        <ele>69.30525</ele>
        <time>2022-06-12T09:37:48.104Z</time>
      </trkpt>
      <trkpt lat="43.16948" lon="17.76239">
        <ele>69.446291</ele>
        <time>2022-06-12T09:37:51.091Z</time>
      </trkpt>
      <trkpt lat="43.16955" lon="17.76251">
        <ele>69.391346</ele>
        <time>2022-06-12T09:37:54.106Z</time>
      </trkpt>
      <trkpt lat="43.16961" lon="17.76263">
        <ele>69.336976</ele>
        <time>2022-06-12T09:37:57.143Z</time>
      </trkpt>
      <trkpt lat="43.16968" lon="17.76277">
        <ele>69.277848</ele>
        <time>2022-06-12T09:38:00.107Z</time>
      </trkpt>
      <trkpt lat="43.16975" lon="17.76292">
        <ele>69.212743</ele>
        <time>2022-06-12T09:38:03.097Z</time>
      </trkpt>
      <trkpt lat="43.16982" lon="17.76308">
        <ele>69.144524</ele>
        <time>2022-06-12T09:38:06.111Z</time>
      </trkpt>
      <trkpt lat="43.16987" lon="17.7632">
        <ele>69.094584</ele>
        <time>2022-06-12T09:38:08.134Z</time>
      </trkpt>
      <trkpt lat="43.16992" lon="17.76333">
        <ele>69.041126</ele>
        <time>2022-06-12T09:38:10.104Z</time>
      </trkpt>
      <trkpt lat="43.16997" lon="17.76345">
        <ele>68.988352</ele>
        <time>2022-06-12T09:38:12.092Z</time>
      </trkpt>
      <trkpt lat="43.17003" lon="17.76357">
        <ele>68.936607</ele>
        <time>2022-06-12T09:38:14.100Z</time>
      </trkpt>
      <trkpt lat="43.17009" lon="17.76368">
        <ele>68.886074</ele>
        <time>2022-06-12T09:38:16.098Z</time>
      </trkpt>
      <trkpt lat="43.17015" lon="17.76378">
        <ele>68.839445</ele>
        <time>2022-06-12T09:38:18.105Z</time>
      </trkpt>
      <trkpt lat="43.17023" lon="17.76391">
        <ele>68.778035</ele>
        <time>2022-06-12T09:38:21.108Z</time>
      </trkpt>
      <trkpt lat="43.17031" lon="17.76408">
        <ele>68.70543</ele>
        <time>2022-06-12T09:38:24.103Z</time>
      </trkpt>
      <trkpt lat="43.17036" lon="17.76419">
        <ele>68.656177</ele>
        <time>2022-06-12T09:38:26.106Z</time>
      </trkpt>
      <trkpt lat="43.17041" lon="17.76431">
        <ele>68.607995</ele>
        <time>2022-06-12T09:38:28.085Z</time>
      </trkpt>
      <trkpt lat="43.17046" lon="17.76442">
        <ele>68.569621</ele>
        <time>2022-06-12T09:38:30.100Z</time>
      </trkpt>
      <trkpt lat="43.1705" lon="17.76453">
        <ele>68.549902</ele>
        <time>2022-06-12T09:38:32.097Z</time>
      </trkpt>
      <trkpt lat="43.17057" lon="17.76468">
        <ele>68.523038</ele>
        <time>2022-06-12T09:38:35.121Z</time>
      </trkpt>
      <trkpt lat="43.17061" lon="17.7648">
        <ele>68.503268</ele>
        <time>2022-06-12T09:38:38.099Z</time>
      </trkpt>
      <trkpt lat="43.17066" lon="17.76494">
        <ele>68.479293</ele>
        <time>2022-06-12T09:38:42.100Z</time>
      </trkpt>
      <trkpt lat="43.17071" lon="17.76505">
        <ele>68.459362</ele>
        <time>2022-06-12T09:38:46.095Z</time>
      </trkpt>
      <trkpt lat="43.17076" lon="17.76521">
        <ele>68.433511</ele>
        <time>2022-06-12T09:38:50.112Z</time>
      </trkpt>
      <trkpt lat="43.17081" lon="17.76533">
        <ele>68.411867</ele>
        <time>2022-06-12T09:38:53.122Z</time>
      </trkpt>
      <trkpt lat="43.17084" lon="17.76547">
        <ele>68.389859</ele>
        <time>2022-06-12T09:38:56.145Z</time>
      </trkpt>
      <trkpt lat="43.17088" lon="17.76561">
        <ele>68.367197</ele>
        <time>2022-06-12T09:38:59.147Z</time>
      </trkpt>
      <trkpt lat="43.17091" lon="17.76575">
        <ele>68.345162</ele>
        <time>2022-06-12T09:39:02.096Z</time>
      </trkpt>
      <trkpt lat="43.17093" lon="17.76589">
        <ele>68.322768</ele>
        <time>2022-06-12T09:39:05.102Z</time>
      </trkpt>
      <trkpt lat="43.17096" lon="17.76605">
        <ele>68.298737</ele>
        <time>2022-06-12T09:39:08.095Z</time>
      </trkpt>
      <trkpt lat="43.17098" lon="17.76621">
        <ele>68.27366</ele>
        <time>2022-06-12T09:39:11.099Z</time>
      </trkpt>
      <trkpt lat="43.171" lon="17.76636">
        <ele>68.249709</ele>
        <time>2022-06-12T09:39:14.102Z</time>
      </trkpt>
      <trkpt lat="43.171" lon="17.76651">
        <ele>68.227719</ele>
        <time>2022-06-12T09:39:17.087Z</time>
      </trkpt>
      <trkpt lat="43.17101" lon="17.76667">
        <ele>68.203245</ele>
        <time>2022-06-12T09:39:20.100Z</time>
      </trkpt>
      <trkpt lat="43.17101" lon="17.76682">
        <ele>68.031621</ele>
        <time>2022-06-12T09:39:23.095Z</time>
      </trkpt>
      <trkpt lat="43.17102" lon="17.76697">
        <ele>67.834177</ele>
        <time>2022-06-12T09:39:26.112Z</time>
      </trkpt>
      <trkpt lat="43.17102" lon="17.76713">
        <ele>67.635443</ele>
        <time>2022-06-12T09:39:29.106Z</time>
      </trkpt>
      <trkpt lat="43.17102" lon="17.76728">
        <ele>67.436669</ele>
        <time>2022-06-12T09:39:32.148Z</time>
      </trkpt>
      <trkpt lat="43.17102" lon="17.76742">
        <ele>67.252151</ele>
        <time>2022-06-12T09:39:35.113Z</time>
      </trkpt>
      <trkpt lat="43.17103" lon="17.76756">
        <ele>67.076353</ele>
        <time>2022-06-12T09:39:38.101Z</time>
      </trkpt>
      <trkpt lat="43.17103" lon="17.7677">
        <ele>66.889129</ele>
        <time>2022-06-12T09:39:41.112Z</time>
      </trkpt>
      <trkpt lat="43.17103" lon="17.76786">
        <ele>66.692935</ele>
        <time>2022-06-12T09:39:44.109Z</time>
      </trkpt>
      <trkpt lat="43.17104" lon="17.76802">
        <ele>66.483843</ele>
        <time>2022-06-12T09:39:47.104Z</time>
      </trkpt>
      <trkpt lat="43.17104" lon="17.76818">
        <ele>66.274788</ele>
        <time>2022-06-12T09:39:50.103Z</time>
      </trkpt>
      <trkpt lat="43.17104" lon="17.76834">
        <ele>66.065695</ele>
        <time>2022-06-12T09:39:53.127Z</time>
      </trkpt>
      <trkpt lat="43.17105" lon="17.7685">
        <ele>65.861456</ele>
        <time>2022-06-12T09:39:56.108Z</time>
      </trkpt>
      <trkpt lat="43.17104" lon="17.76864">
        <ele>65.674157</ele>
        <time>2022-06-12T09:39:59.096Z</time>
      </trkpt>
      <trkpt lat="43.17104" lon="17.76879">
        <ele>65.480607</ele>
        <time>2022-06-12T09:40:02.097Z</time>
      </trkpt>
      <trkpt lat="43.17104" lon="17.76895">
        <ele>65.284286</ele>
        <time>2022-06-12T09:40:05.116Z</time>
      </trkpt>
      <trkpt lat="43.17104" lon="17.7691">
        <ele>65.083002</ele>
        <time>2022-06-12T09:40:08.104Z</time>
      </trkpt>
      <trkpt lat="43.17104" lon="17.76925">
        <ele>65.043812</ele>
        <time>2022-06-12T09:40:11.131Z</time>
      </trkpt>
      <trkpt lat="43.17104" lon="17.76941">
        <ele>65.082979</ele>
        <time>2022-06-12T09:40:14.111Z</time>
      </trkpt>
      <trkpt lat="43.17103" lon="17.76955">
        <ele>65.120862</ele>
        <time>2022-06-12T09:40:17.140Z</time>
      </trkpt>
      <trkpt lat="43.17103" lon="17.7697">
        <ele>65.158496</ele>
        <time>2022-06-12T09:40:20.105Z</time>
      </trkpt>
      <trkpt lat="43.17103" lon="17.76985">
        <ele>65.197428</ele>
        <time>2022-06-12T09:40:23.113Z</time>
      </trkpt>
      <trkpt lat="43.17102" lon="17.77">
        <ele>65.237134</ele>
        <time>2022-06-12T09:40:26.129Z</time>
      </trkpt>
      <trkpt lat="43.17102" lon="17.77016">
        <ele>65.2763</ele>
        <time>2022-06-12T09:40:29.135Z</time>
      </trkpt>
      <trkpt lat="43.17102" lon="17.77031">
        <ele>65.315209</ele>
        <time>2022-06-12T09:40:32.110Z</time>
      </trkpt>
      <trkpt lat="43.17102" lon="17.77046">
        <ele>65.35386</ele>
        <time>2022-06-12T09:40:35.112Z</time>
      </trkpt>
      <trkpt lat="43.17102" lon="17.77061">
        <ele>65.39408</ele>
        <time>2022-06-12T09:40:38.138Z</time>
      </trkpt>
      <trkpt lat="43.17102" lon="17.77077">
        <ele>65.434797</ele>
        <time>2022-06-12T09:40:41.091Z</time>
      </trkpt>
      <trkpt lat="43.17101" lon="17.77091">
        <ele>65.47117</ele>
        <time>2022-06-12T09:40:44.107Z</time>
      </trkpt>
      <trkpt lat="43.171" lon="17.77105">
        <ele>65.506534</ele>
        <time>2022-06-12T09:40:47.091Z</time>
      </trkpt>
      <trkpt lat="43.171" lon="17.77118">
        <ele>65.539583</ele>
        <time>2022-06-12T09:40:50.103Z</time>
      </trkpt>
      <trkpt lat="43.17099" lon="17.77131">
        <ele>65.574174</ele>
        <time>2022-06-12T09:40:53.102Z</time>
      </trkpt>
      <trkpt lat="43.17097" lon="17.77147">
        <ele>65.616256</ele>
        <time>2022-06-12T09:40:57.108Z</time>
      </trkpt>
      <trkpt lat="43.17096" lon="17.7716">
        <ele>65.649871</ele>
        <time>2022-06-12T09:41:00.106Z</time>
      </trkpt>
      <trkpt lat="43.17096" lon="17.77173">
        <ele>65.616552</ele>
        <time>2022-06-12T09:41:03.098Z</time>
      </trkpt>
      <trkpt lat="43.17096" lon="17.77186">
        <ele>65.574974</ele>
        <time>2022-06-12T09:41:07.129Z</time>
      </trkpt>
      <trkpt lat="43.17097" lon="17.772">
        <ele>65.528576</ele>
        <time>2022-06-12T09:41:11.114Z</time>
      </trkpt>
      <trkpt lat="43.17096" lon="17.77214">
        <ele>65.485399</ele>
        <time>2022-06-12T09:41:15.101Z</time>
      </trkpt>
      <trkpt lat="43.17097" lon="17.77227">
        <ele>65.442543</ele>
        <time>2022-06-12T09:41:18.153Z</time>
      </trkpt>
      <trkpt lat="43.17097" lon="17.77241">
        <ele>65.400012</ele>
        <time>2022-06-12T09:41:21.120Z</time>
      </trkpt>
      <trkpt lat="43.17097" lon="17.77255">
        <ele>65.354598</ele>
        <time>2022-06-12T09:41:24.132Z</time>
      </trkpt>
      <trkpt lat="43.17096" lon="17.77269">
        <ele>65.307839</ele>
        <time>2022-06-12T09:41:27.107Z</time>
      </trkpt>
      <trkpt lat="43.17095" lon="17.77285">
        <ele>65.259164</ele>
        <time>2022-06-12T09:41:30.104Z</time>
      </trkpt>
      <trkpt lat="43.17095" lon="17.77299">
        <ele>65.211789</ele>
        <time>2022-06-12T09:41:33.095Z</time>
      </trkpt>
      <trkpt lat="43.17095" lon="17.77315">
        <ele>65.163487</ele>
        <time>2022-06-12T09:41:36.115Z</time>
      </trkpt>
      <trkpt lat="43.17094" lon="17.7733">
        <ele>65.113917</ele>
        <time>2022-06-12T09:41:39.098Z</time>
      </trkpt>
      <trkpt lat="43.17094" lon="17.77345">
        <ele>65.064962</ele>
        <time>2022-06-12T09:41:42.095Z</time>
      </trkpt>
      <trkpt lat="43.17094" lon="17.77361">
        <ele>65.015719</ele>
        <time>2022-06-12T09:41:45.101Z</time>
      </trkpt>
      <trkpt lat="43.17094" lon="17.77375">
        <ele>64.969991</ele>
        <time>2022-06-12T09:41:48.121Z</time>
      </trkpt>
      <trkpt lat="43.17094" lon="17.7739">
        <ele>64.9217</ele>
        <time>2022-06-12T09:41:51.108Z</time>
      </trkpt>
      <trkpt lat="43.17094" lon="17.77405">
        <ele>64.874373</ele>
        <time>2022-06-12T09:41:54.116Z</time>
      </trkpt>
      <trkpt lat="43.17094" lon="17.7742">
        <ele>64.875368</ele>
        <time>2022-06-12T09:41:57.104Z</time>
      </trkpt>
      <trkpt lat="43.17094" lon="17.77436">
        <ele>64.889323</ele>
        <time>2022-06-12T09:42:00.095Z</time>
      </trkpt>
      <trkpt lat="43.17094" lon="17.77452">
        <ele>64.903019</ele>
        <time>2022-06-12T09:42:03.104Z</time>
      </trkpt>
      <trkpt lat="43.17093" lon="17.77468">
        <ele>64.917079</ele>
        <time>2022-06-12T09:42:06.107Z</time>
      </trkpt>
      <trkpt lat="43.17092" lon="17.77484">
        <ele>64.931621</ele>
        <time>2022-06-12T09:42:09.103Z</time>
      </trkpt>
      <trkpt lat="43.17091" lon="17.775">
        <ele>64.945663</ele>
        <time>2022-06-12T09:42:12.135Z</time>
      </trkpt>
      <trkpt lat="43.17089" lon="17.77516">
        <ele>64.959575</ele>
        <time>2022-06-12T09:42:15.135Z</time>
      </trkpt>
      <trkpt lat="43.17088" lon="17.77532">
        <ele>64.973457</ele>
        <time>2022-06-12T09:42:18.108Z</time>
      </trkpt>
      <trkpt lat="43.17086" lon="17.77547">
        <ele>64.986863</ele>
        <time>2022-06-12T09:42:21.104Z</time>
      </trkpt>
      <trkpt lat="43.17087" lon="17.77563">
        <ele>65.000742</ele>
        <time>2022-06-12T09:42:24.098Z</time>
      </trkpt>
      <trkpt lat="43.17088" lon="17.77579">
        <ele>65.015011</ele>
        <time>2022-06-12T09:42:27.108Z</time>
      </trkpt>
      <trkpt lat="43.17088" lon="17.77595">
        <ele>65.028886</ele>
        <time>2022-06-12T09:42:30.093Z</time>
      </trkpt>
      <trkpt lat="43.17089" lon="17.7761">
        <ele>65.04199</ele>
        <time>2022-06-12T09:42:33.101Z</time>
      </trkpt>
      <trkpt lat="43.17089" lon="17.77624">
        <ele>65.054628</ele>
        <time>2022-06-12T09:42:36.107Z</time>
      </trkpt>
      <trkpt lat="43.17089" lon="17.77638">
        <ele>65.067004</ele>
        <time>2022-06-12T09:42:39.099Z</time>
      </trkpt>
      <trkpt lat="43.17089" lon="17.77654">
        <ele>65.080873</ele>
        <time>2022-06-12T09:42:42.113Z</time>
      </trkpt>
      <trkpt lat="43.17089" lon="17.77669">
        <ele>64.983759</ele>
        <time>2022-06-12T09:42:45.112Z</time>
      </trkpt>
      <trkpt lat="43.17088" lon="17.77684">
        <ele>64.886352</ele>
        <time>2022-06-12T09:42:48.086Z</time>
      </trkpt>
      <trkpt lat="43.17088" lon="17.77698">
        <ele>64.795387</ele>
        <time>2022-06-12T09:42:51.092Z</time>
      </trkpt>
      <trkpt lat="43.17087" lon="17.77711">
        <ele>64.706128</ele>
        <time>2022-06-12T09:42:54.104Z</time>
      </trkpt>
      <trkpt lat="43.17087" lon="17.77726">
        <ele>64.611314</ele>
        <time>2022-06-12T09:42:57.124Z</time>
      </trkpt>
      <trkpt lat="43.17086" lon="17.77741">
        <ele>64.510619</ele>
        <time>2022-06-12T09:43:00.137Z</time>
      </trkpt>
      <trkpt lat="43.17086" lon="17.77757">
        <ele>64.409271</ele>
        <time>2022-06-12T09:43:03.108Z</time>
      </trkpt>
      <trkpt lat="43.17086" lon="17.77771">
        <ele>64.313836</ele>
        <time>2022-06-12T09:43:06.107Z</time>
      </trkpt>
      <trkpt lat="43.17086" lon="17.77786">
        <ele>64.219714</ele>
        <time>2022-06-12T09:43:09.109Z</time>
      </trkpt>
      <trkpt lat="43.17087" lon="17.778">
        <ele>64.122773</ele>
        <time>2022-06-12T09:43:12.128Z</time>
      </trkpt>
      <trkpt lat="43.17088" lon="17.77817">
        <ele>64.012347</ele>
        <time>2022-06-12T09:43:15.145Z</time>
      </trkpt>
      <trkpt lat="43.17089" lon="17.77833">
        <ele>63.907769</ele>
        <time>2022-06-12T09:43:18.101Z</time>
      </trkpt>
      <trkpt lat="43.17091" lon="17.77849">
        <ele>63.805568</ele>
        <time>2022-06-12T09:43:21.091Z</time>
      </trkpt>
      <trkpt lat="43.17092" lon="17.77864">
        <ele>63.705162</ele>
        <time>2022-06-12T09:43:24.096Z</time>
      </trkpt>
      <trkpt lat="43.17094" lon="17.77879">
        <ele>63.60485</ele>
        <time>2022-06-12T09:43:27.091Z</time>
      </trkpt>
      <trkpt lat="43.17096" lon="17.77895">
        <ele>63.501964</ele>
        <time>2022-06-12T09:43:30.093Z</time>
      </trkpt>
      <trkpt lat="43.17098" lon="17.77909">
        <ele>63.354525</ele>
        <time>2022-06-12T09:43:33.117Z</time>
      </trkpt>
      <trkpt lat="43.17101" lon="17.77924">
        <ele>63.185897</ele>
        <time>2022-06-12T09:43:36.097Z</time>
      </trkpt>
      <trkpt lat="43.17104" lon="17.77937">
        <ele>63.020499</ele>
        <time>2022-06-12T09:43:39.116Z</time>
      </trkpt>
      <trkpt lat="43.17108" lon="17.77951">
        <ele>62.860503</ele>
        <time>2022-06-12T09:43:42.096Z</time>
      </trkpt>
      <trkpt lat="43.17111" lon="17.77965">
        <ele>62.690289</ele>
        <time>2022-06-12T09:43:45.109Z</time>
      </trkpt>
      <trkpt lat="43.17115" lon="17.77978">
        <ele>62.531361</ele>
        <time>2022-06-12T09:43:48.105Z</time>
      </trkpt>
      <trkpt lat="43.17118" lon="17.77989">
        <ele>62.390925</ele>
        <time>2022-06-12T09:43:51.099Z</time>
      </trkpt>
      <trkpt lat="43.17124" lon="17.78004">
        <ele>62.20588</ele>
        <time>2022-06-12T09:43:55.116Z</time>
      </trkpt>
      <trkpt lat="43.17128" lon="17.78015">
        <ele>62.063442</ele>
        <time>2022-06-12T09:43:58.115Z</time>
      </trkpt>
      <trkpt lat="43.17133" lon="17.78026">
        <ele>61.907229</ele>
        <time>2022-06-12T09:44:01.099Z</time>
      </trkpt>
      <trkpt lat="43.17138" lon="17.78038">
        <ele>61.755337</ele>
        <time>2022-06-12T09:44:04.105Z</time>
      </trkpt>
      <trkpt lat="43.17143" lon="17.78049">
        <ele>61.604811</ele>
        <time>2022-06-12T09:44:07.141Z</time>
      </trkpt>
      <trkpt lat="43.17149" lon="17.78059">
        <ele>61.457211</ele>
        <time>2022-06-12T09:44:10.090Z</time>
      </trkpt>
      <trkpt lat="43.17157" lon="17.78068">
        <ele>61.304058</ele>
        <time>2022-06-12T09:44:13.155Z</time>
      </trkpt>
      <trkpt lat="43.17165" lon="17.78078">
        <ele>61.125789</ele>
        <time>2022-06-12T09:44:16.111Z</time>
      </trkpt>
      <trkpt lat="43.17173" lon="17.78088">
        <ele>60.957474</ele>
        <time>2022-06-12T09:44:19.100Z</time>
      </trkpt>
      <trkpt lat="43.1718" lon="17.78098">
        <ele>60.797608</ele>
        <time>2022-06-12T09:44:22.097Z</time>
      </trkpt>
      <trkpt lat="43.17188" lon="17.78108">
        <ele>60.643537</ele>
        <time>2022-06-12T09:44:25.137Z</time>
      </trkpt>
      <trkpt lat="43.17197" lon="17.78118">
        <ele>60.555471</ele>
        <time>2022-06-12T09:44:28.102Z</time>
      </trkpt>
      <trkpt lat="43.17208" lon="17.78128">
        <ele>60.451677</ele>
        <time>2022-06-12T09:44:32.089Z</time>
      </trkpt>
      <trkpt lat="43.17215" lon="17.78136">
        <ele>60.379952</ele>
        <time>2022-06-12T09:44:34.093Z</time>
      </trkpt>
      <trkpt lat="43.17225" lon="17.78144">
        <ele>60.29199</ele>
        <time>2022-06-12T09:44:37.107Z</time>
      </trkpt>
      <trkpt lat="43.17234" lon="17.78152">
        <ele>60.205397</ele>
        <time>2022-06-12T09:44:40.105Z</time>
      </trkpt>
      <trkpt lat="43.17243" lon="17.78161">
        <ele>60.121401</ele>
        <time>2022-06-12T09:44:43.091Z</time>
      </trkpt>
      <trkpt lat="43.17252" lon="17.78168">
        <ele>60.035206</ele>
        <time>2022-06-12T09:44:46.097Z</time>
      </trkpt>
      <trkpt lat="43.1726" lon="17.78174">
        <ele>59.96116</ele>
        <time>2022-06-12T09:44:49.117Z</time>
      </trkpt>
      <trkpt lat="43.17269" lon="17.7818">
        <ele>59.88721</ele>
        <time>2022-06-12T09:44:52.115Z</time>
      </trkpt>
      <trkpt lat="43.17278" lon="17.78185">
        <ele>59.811865</ele>
        <time>2022-06-12T09:44:55.113Z</time>
      </trkpt>
      <trkpt lat="43.17286" lon="17.7819">
        <ele>59.737183</ele>
        <time>2022-06-12T09:44:58.105Z</time>
      </trkpt>
      <trkpt lat="43.17295" lon="17.78195">
        <ele>59.662793</ele>
        <time>2022-06-12T09:45:01.093Z</time>
      </trkpt>
      <trkpt lat="43.17304" lon="17.78199">
        <ele>59.588577</ele>
        <time>2022-06-12T09:45:04.106Z</time>
      </trkpt>
      <trkpt lat="43.17313" lon="17.78202">
        <ele>59.516955</ele>
        <time>2022-06-12T09:45:07.102Z</time>
      </trkpt>
      <trkpt lat="43.17324" lon="17.78206">
        <ele>59.425046</ele>
        <time>2022-06-12T09:45:11.105Z</time>
      </trkpt>
      <trkpt lat="43.17333" lon="17.78209">
        <ele>59.353495</ele>
        <time>2022-06-12T09:45:14.090Z</time>
      </trkpt>
      <trkpt lat="43.17343" lon="17.78211">
        <ele>59.275993</ele>
        <time>2022-06-12T09:45:17.134Z</time>
      </trkpt>
      <trkpt lat="43.17352" lon="17.78213">
        <ele>59.388253</ele>
        <time>2022-06-12T09:45:20.092Z</time>
      </trkpt>
      <trkpt lat="43.17362" lon="17.78215">
        <ele>59.627357</ele>
        <time>2022-06-12T09:45:23.114Z</time>
      </trkpt>
      <trkpt lat="43.17372" lon="17.78217">
        <ele>59.873094</ele>
        <time>2022-06-12T09:45:26.103Z</time>
      </trkpt>
      <trkpt lat="43.17382" lon="17.78218">
        <ele>60.118831</ele>
        <time>2022-06-12T09:45:29.097Z</time>
      </trkpt>
      <trkpt lat="43.17392" lon="17.7822">
        <ele>60.367952</ele>
        <time>2022-06-12T09:45:32.097Z</time>
      </trkpt>
      <trkpt lat="43.17402" lon="17.78223">
        <ele>60.610931</ele>
        <time>2022-06-12T09:45:35.113Z</time>
      </trkpt>
      <trkpt lat="43.17411" lon="17.78225">
        <ele>60.842859</ele>
        <time>2022-06-12T09:45:38.149Z</time>
      </trkpt>
      <trkpt lat="43.1742" lon="17.78229">
        <ele>61.069672</ele>
        <time>2022-06-12T09:45:41.105Z</time>
      </trkpt>
      <trkpt lat="43.17428" lon="17.78232">
        <ele>61.293648</ele>
        <time>2022-06-12T09:45:44.141Z</time>
      </trkpt>
      <trkpt lat="43.17439" lon="17.78236">
        <ele>61.571384</ele>
        <time>2022-06-12T09:45:48.100Z</time>
      </trkpt>
      <trkpt lat="43.17451" lon="17.7824">
        <ele>61.868633</ele>
        <time>2022-06-12T09:45:52.097Z</time>
      </trkpt>
      <trkpt lat="43.17461" lon="17.78243">
        <ele>62.113052</ele>
        <time>2022-06-12T09:45:55.111Z</time>
      </trkpt>
      <trkpt lat="43.1747" lon="17.78247">
        <ele>62.362247</ele>
        <time>2022-06-12T09:45:58.096Z</time>
      </trkpt>
      <trkpt lat="43.1748" lon="17.7825">
        <ele>62.604573</ele>
        <time>2022-06-12T09:46:01.130Z</time>
      </trkpt>
      <trkpt lat="43.17489" lon="17.78253">
        <ele>62.842088</ele>
        <time>2022-06-12T09:46:04.111Z</time>
      </trkpt>
      <trkpt lat="43.17498" lon="17.78255">
        <ele>63.071993</ele>
        <time>2022-06-12T09:46:07.096Z</time>
      </trkpt>
      <trkpt lat="43.17508" lon="17.78258">
        <ele>63.315635</ele>
        <time>2022-06-12T09:46:10.098Z</time>
      </trkpt>
      <trkpt lat="43.17518" lon="17.7826">
        <ele>63.55134</ele>
        <time>2022-06-12T09:46:13.127Z</time>
      </trkpt>
      <trkpt lat="43.17527" lon="17.78262">
        <ele>63.632782</ele>
        <time>2022-06-12T09:46:16.103Z</time>
      </trkpt>
      <trkpt lat="43.17536" lon="17.78261">
        <ele>63.52032</ele>
        <time>2022-06-12T09:46:19.109Z</time>
      </trkpt>
      <trkpt lat="43.17548" lon="17.78258">
        <ele>63.378978</ele>
        <time>2022-06-12T09:46:23.174Z</time>
      </trkpt>
      <trkpt lat="43.17557" lon="17.78254">
        <ele>63.270915</ele>
        <time>2022-06-12T09:46:26.097Z</time>
      </trkpt>
      <trkpt lat="43.17566" lon="17.78247">
        <ele>63.14897</ele>
        <time>2022-06-12T09:46:30.105Z</time>
      </trkpt>
      <trkpt lat="43.17574" lon="17.7824">
        <ele>63.043243</ele>
        <time>2022-06-12T09:46:33.095Z</time>
      </trkpt>
      <trkpt lat="43.17582" lon="17.78232">
        <ele>62.921539</ele>
        <time>2022-06-12T09:46:36.092Z</time>
      </trkpt>
      <trkpt lat="43.17589" lon="17.78222">
        <ele>62.804033</ele>
        <time>2022-06-12T09:46:39.103Z</time>
      </trkpt>
      <trkpt lat="43.17596" lon="17.78212">
        <ele>62.685261</ele>
        <time>2022-06-12T09:46:43.112Z</time>
      </trkpt>
      <trkpt lat="43.17604" lon="17.782">
        <ele>62.548284</ele>
        <time>2022-06-12T09:46:47.102Z</time>
      </trkpt>
      <trkpt lat="43.17612" lon="17.7819">
        <ele>62.416088</ele>
        <time>2022-06-12T09:46:51.097Z</time>
      </trkpt>
      <trkpt lat="43.17619" lon="17.78181">
        <ele>62.310645</ele>
        <time>2022-06-12T09:46:54.117Z</time>
      </trkpt>
      <trkpt lat="43.17625" lon="17.78172">
        <ele>62.20433</ele>
        <time>2022-06-12T09:46:57.112Z</time>
      </trkpt>
      <trkpt lat="43.17631" lon="17.78161">
        <ele>62.080171</ele>
        <time>2022-06-12T09:47:00.101Z</time>
      </trkpt>
      <trkpt lat="43.17638" lon="17.78151">
        <ele>61.963447</ele>
        <time>2022-06-12T09:47:03.101Z</time>
      </trkpt>
      <trkpt lat="43.17646" lon="17.78143">
        <ele>61.851929</ele>
        <time>2022-06-12T09:47:06.099Z</time>
      </trkpt>
      <trkpt lat="43.17655" lon="17.78139">
        <ele>61.746448</ele>
        <time>2022-06-12T09:47:09.137Z</time>
      </trkpt>
      <trkpt lat="43.17664" lon="17.78136">
        <ele>61.635809</ele>
        <time>2022-06-12T09:47:12.089Z</time>
      </trkpt>
      <trkpt lat="43.17674" lon="17.78132">
        <ele>61.621956</ele>
        <time>2022-06-12T09:47:15.104Z</time>
      </trkpt>
      <trkpt lat="43.17685" lon="17.78128">
        <ele>61.709889</ele>
        <time>2022-06-12T09:47:18.140Z</time>
      </trkpt>
      <trkpt lat="43.17695" lon="17.78124">
        <ele>61.795569</ele>
        <time>2022-06-12T09:47:21.130Z</time>
      </trkpt>
      <trkpt lat="43.17704" lon="17.7812">
        <ele>61.874402</ele>
        <time>2022-06-12T09:47:24.098Z</time>
      </trkpt>
      <trkpt lat="43.17713" lon="17.78116">
        <ele>61.952197</ele>
        <time>2022-06-12T09:47:27.099Z</time>
      </trkpt>
      <trkpt lat="43.17722" lon="17.78112">
        <ele>62.028821</ele>
        <time>2022-06-12T09:47:30.095Z</time>
      </trkpt>
      <trkpt lat="43.17731" lon="17.78108">
        <ele>62.107214</ele>
        <time>2022-06-12T09:47:33.099Z</time>
      </trkpt>
      <trkpt lat="43.17741" lon="17.78104">
        <ele>62.186214</ele>
        <time>2022-06-12T09:47:36.086Z</time>
      </trkpt>
      <trkpt lat="43.17752" lon="17.78099">
        <ele>62.283124</ele>
        <time>2022-06-12T09:47:40.114Z</time>
      </trkpt>
      <trkpt lat="43.17763" lon="17.78094">
        <ele>62.380562</ele>
        <time>2022-06-12T09:47:44.109Z</time>
      </trkpt>
      <trkpt lat="43.17773" lon="17.78091">
        <ele>62.457665</ele>
        <time>2022-06-12T09:47:47.095Z</time>
      </trkpt>
      <trkpt lat="43.17782" lon="17.78086">
        <ele>62.538916</ele>
        <time>2022-06-12T09:47:50.095Z</time>
      </trkpt>
      <trkpt lat="43.17792" lon="17.78083">
        <ele>62.619784</ele>
        <time>2022-06-12T09:47:53.093Z</time>
      </trkpt>
      <trkpt lat="43.17801" lon="17.78079">
        <ele>62.700345</ele>
        <time>2022-06-12T09:47:56.111Z</time>
      </trkpt>
      <trkpt lat="43.1781" lon="17.78076">
        <ele>62.774956</ele>
        <time>2022-06-12T09:47:59.105Z</time>
      </trkpt>
      <trkpt lat="43.1782" lon="17.78073">
        <ele>62.855417</ele>
        <time>2022-06-12T09:48:02.103Z</time>
      </trkpt>
      <trkpt lat="43.17829" lon="17.78069">
        <ele>62.935367</ele>
        <time>2022-06-12T09:48:05.099Z</time>
      </trkpt>
      <trkpt lat="43.17838" lon="17.78066">
        <ele>63.01436</ele>
        <time>2022-06-12T09:48:08.103Z</time>
      </trkpt>
      <trkpt lat="43.17848" lon="17.78063">
        <ele>63.057996</ele>
        <time>2022-06-12T09:48:11.095Z</time>
      </trkpt>
      <trkpt lat="43.17857" lon="17.78059">
        <ele>63.084626</ele>
        <time>2022-06-12T09:48:14.129Z</time>
      </trkpt>
      <trkpt lat="43.17868" lon="17.78055">
        <ele>63.116744</ele>
        <time>2022-06-12T09:48:18.104Z</time>
      </trkpt>
      <trkpt lat="43.17878" lon="17.78051">
        <ele>63.14583</ele>
        <time>2022-06-12T09:48:21.126Z</time>
      </trkpt>
      <trkpt lat="43.17887" lon="17.78047">
        <ele>63.172735</ele>
        <time>2022-06-12T09:48:24.102Z</time>
      </trkpt>
      <trkpt lat="43.17896" lon="17.78044">
        <ele>63.198941</ele>
        <time>2022-06-12T09:48:27.098Z</time>
      </trkpt>
      <trkpt lat="43.17906" lon="17.78041">
        <ele>63.228139</ele>
        <time>2022-06-12T09:48:30.101Z</time>
      </trkpt>
      <trkpt lat="43.17916" lon="17.78037">
        <ele>63.257122</ele>
        <time>2022-06-12T09:48:33.115Z</time>
      </trkpt>
      <trkpt lat="43.17925" lon="17.78033">
        <ele>63.284514</ele>
        <time>2022-06-12T09:48:36.110Z</time>
      </trkpt>
      <trkpt lat="43.17934" lon="17.78029">
        <ele>63.311361</ele>
        <time>2022-06-12T09:48:39.101Z</time>
      </trkpt>
      <trkpt lat="43.17943" lon="17.78026">
        <ele>63.33734</ele>
        <time>2022-06-12T09:48:42.132Z</time>
      </trkpt>
      <trkpt lat="43.17951" lon="17.78023">
        <ele>63.362952</ele>
        <time>2022-06-12T09:48:45.112Z</time>
      </trkpt>
      <trkpt lat="43.17961" lon="17.78018">
        <ele>63.390772</ele>
        <time>2022-06-12T09:48:48.114Z</time>
      </trkpt>
      <trkpt lat="43.1797" lon="17.78015">
        <ele>63.418164</ele>
        <time>2022-06-12T09:48:51.108Z</time>
      </trkpt>
      <trkpt lat="43.1798" lon="17.78011">
        <ele>63.447044</ele>
        <time>2022-06-12T09:48:54.100Z</time>
      </trkpt>
      <trkpt lat="43.17989" lon="17.78007">
        <ele>63.474942</ele>
        <time>2022-06-12T09:48:57.105Z</time>
      </trkpt>
      <trkpt lat="43.17998" lon="17.78004">
        <ele>63.501847</ele>
        <time>2022-06-12T09:49:00.112Z</time>
      </trkpt>
      <trkpt lat="43.18007" lon="17.78001">
        <ele>63.527454</ele>
        <time>2022-06-12T09:49:03.100Z</time>
      </trkpt>
      <trkpt lat="43.18016" lon="17.77997">
        <ele>63.556326</ele>
        <time>2022-06-12T09:49:06.094Z</time>
      </trkpt>
      <trkpt lat="43.18026" lon="17.77993">
        <ele>63.594197</ele>
        <time>2022-06-12T09:49:09.094Z</time>
      </trkpt>
      <trkpt lat="43.18035" lon="17.77989">
        <ele>63.633143</ele>
        <time>2022-06-12T09:49:12.106Z</time>
      </trkpt>
      <trkpt lat="43.18044" lon="17.77986">
        <ele>63.670881</ele>
        <time>2022-06-12T09:49:15.100Z</time>
      </trkpt>
      <trkpt lat="43.18054" lon="17.77981">
        <ele>63.711119</ele>
        <time>2022-06-12T09:49:18.093Z</time>
      </trkpt>
      <trkpt lat="43.18063" lon="17.77977">
        <ele>63.748483</ele>
        <time>2022-06-12T09:49:21.096Z</time>
      </trkpt>
      <trkpt lat="43.18072" lon="17.77973">
        <ele>63.784906</ele>
        <time>2022-06-12T09:49:24.107Z</time>
      </trkpt>
      <trkpt lat="43.18082" lon="17.7797">
        <ele>63.823493</ele>
        <time>2022-06-12T09:49:27.093Z</time>
      </trkpt>
      <trkpt lat="43.18091" lon="17.77967">
        <ele>63.862875</ele>
        <time>2022-06-12T09:49:30.103Z</time>
      </trkpt>
      <trkpt lat="43.18101" lon="17.77963">
        <ele>63.903701</ele>
        <time>2022-06-12T09:49:33.102Z</time>
      </trkpt>
      <trkpt lat="43.18111" lon="17.77959">
        <ele>63.943772</ele>
        <time>2022-06-12T09:49:36.102Z</time>
      </trkpt>
      <trkpt lat="43.18122" lon="17.77955">
        <ele>63.986342</ele>
        <time>2022-06-12T09:49:39.125Z</time>
      </trkpt>
      <trkpt lat="43.18132" lon="17.7795">
        <ele>64.029627</ele>
        <time>2022-06-12T09:49:42.118Z</time>
      </trkpt>
      <trkpt lat="43.18142" lon="17.77944">
        <ele>64.072792</ele>
        <time>2022-06-12T09:49:45.145Z</time>
      </trkpt>
      <trkpt lat="43.18152" lon="17.77938">
        <ele>64.114495</ele>
        <time>2022-06-12T09:49:48.099Z</time>
      </trkpt>
      <trkpt lat="43.18161" lon="17.77933">
        <ele>64.15288</ele>
        <time>2022-06-12T09:49:51.104Z</time>
      </trkpt>
      <trkpt lat="43.1817" lon="17.77928">
        <ele>64.192091</ele>
        <time>2022-06-12T09:49:54.101Z</time>
      </trkpt>
      <trkpt lat="43.18182" lon="17.77924">
        <ele>64.238126</ele>
        <time>2022-06-12T09:49:57.104Z</time>
      </trkpt>
      <trkpt lat="43.18193" lon="17.7792">
        <ele>64.254189</ele>
        <time>2022-06-12T09:50:00.099Z</time>
      </trkpt>
      <trkpt lat="43.18203" lon="17.77916">
        <ele>64.255396</ele>
        <time>2022-06-12T09:50:03.102Z</time>
      </trkpt>
      <trkpt lat="43.18214" lon="17.77912">
        <ele>64.256578</ele>
        <time>2022-06-12T09:50:06.097Z</time>
      </trkpt>
      <trkpt lat="43.18223" lon="17.77907">
        <ele>64.257715</ele>
        <time>2022-06-12T09:50:09.095Z</time>
      </trkpt>
      <trkpt lat="43.18233" lon="17.77903">
        <ele>64.258814</ele>
        <time>2022-06-12T09:50:12.111Z</time>
      </trkpt>
      <trkpt lat="43.18242" lon="17.779">
        <ele>64.259868</ele>
        <time>2022-06-12T09:50:15.097Z</time>
      </trkpt>
      <trkpt lat="43.18252" lon="17.77895">
        <ele>64.260963</ele>
        <time>2022-06-12T09:50:18.095Z</time>
      </trkpt>
      <trkpt lat="43.1826" lon="17.77891">
        <ele>64.261962</ele>
        <time>2022-06-12T09:50:21.096Z</time>
      </trkpt>
      <trkpt lat="43.18269" lon="17.77886">
        <ele>64.263034</ele>
        <time>2022-06-12T09:50:24.094Z</time>
      </trkpt>
      <trkpt lat="43.18278" lon="17.77881">
        <ele>64.264115</ele>
        <time>2022-06-12T09:50:27.106Z</time>
      </trkpt>
      <trkpt lat="43.18288" lon="17.77876">
        <ele>64.265229</ele>
        <time>2022-06-12T09:50:30.140Z</time>
      </trkpt>
      <trkpt lat="43.18297" lon="17.77871">
        <ele>64.26632</ele>
        <time>2022-06-12T09:50:33.104Z</time>
      </trkpt>
      <trkpt lat="43.18307" lon="17.77865">
        <ele>64.26752</ele>
        <time>2022-06-12T09:50:36.091Z</time>
      </trkpt>
      <trkpt lat="43.18316" lon="17.77859">
        <ele>64.268614</ele>
        <time>2022-06-12T09:50:39.098Z</time>
      </trkpt>
      <trkpt lat="43.18326" lon="17.77852">
        <ele>64.269792</ele>
        <time>2022-06-12T09:50:42.105Z</time>
      </trkpt>
      <trkpt lat="43.18334" lon="17.77847">
        <ele>64.27087</ele>
        <time>2022-06-12T09:50:45.113Z</time>
      </trkpt>
      <trkpt lat="43.18344" lon="17.7784">
        <ele>64.272014</ele>
        <time>2022-06-12T09:50:48.083Z</time>
      </trkpt>
      <trkpt lat="43.18352" lon="17.77834">
        <ele>64.273079</ele>
        <time>2022-06-12T09:50:51.112Z</time>
      </trkpt>
      <trkpt lat="43.1836" lon="17.77827">
        <ele>63.93765</ele>
        <time>2022-06-12T09:50:54.114Z</time>
      </trkpt>
      <trkpt lat="43.1837" lon="17.7782">
        <ele>63.523519</ele>
        <time>2022-06-12T09:50:57.107Z</time>
      </trkpt>
      <trkpt lat="43.1838" lon="17.77812">
        <ele>63.115869</ele>
        <time>2022-06-12T09:51:00.095Z</time>
      </trkpt>
      <trkpt lat="43.1839" lon="17.77805">
        <ele>62.687654</ele>
        <time>2022-06-12T09:51:03.127Z</time>
      </trkpt>
      <trkpt lat="43.184" lon="17.77797">
        <ele>62.286184</ele>
        <time>2022-06-12T09:51:06.105Z</time>
      </trkpt>
      <trkpt lat="43.18409" lon="17.77789">
        <ele>61.871155</ele>
        <time>2022-06-12T09:51:09.123Z</time>
      </trkpt>
      <trkpt lat="43.18419" lon="17.77782">
        <ele>61.466733</ele>
        <time>2022-06-12T09:51:12.099Z</time>
      </trkpt>
      <trkpt lat="43.18429" lon="17.77774">
        <ele>61.060293</ele>
        <time>2022-06-12T09:51:15.103Z</time>
      </trkpt>
      <trkpt lat="43.18438" lon="17.77767">
        <ele>60.655872</ele>
        <time>2022-06-12T09:51:18.106Z</time>
      </trkpt>
      <trkpt lat="43.18448" lon="17.7776">
        <ele>60.250172</ele>
        <time>2022-06-12T09:51:21.103Z</time>
      </trkpt>
      <trkpt lat="43.18457" lon="17.77753">
        <ele>59.877207</ele>
        <time>2022-06-12T09:51:24.116Z</time>
      </trkpt>
      <trkpt lat="43.18466" lon="17.77747">
        <ele>59.497739</ele>
        <time>2022-06-12T09:51:27.106Z</time>
      </trkpt>
      <trkpt lat="43.18476" lon="17.7774">
        <ele>59.109301</ele>
        <time>2022-06-12T09:51:30.121Z</time>
      </trkpt>
      <trkpt lat="43.18485" lon="17.77733">
        <ele>58.706592</ele>
        <time>2022-06-12T09:51:33.097Z</time>
      </trkpt>
      <trkpt lat="43.18495" lon="17.77726">
        <ele>58.311632</ele>
        <time>2022-06-12T09:51:36.098Z</time>
      </trkpt>
      <trkpt lat="43.18504" lon="17.7772">
        <ele>57.925193</ele>
        <time>2022-06-12T09:51:39.107Z</time>
      </trkpt>
      <trkpt lat="43.18514" lon="17.77713">
        <ele>57.721713</ele>
        <time>2022-06-12T09:51:42.111Z</time>
      </trkpt>
      <trkpt lat="43.18524" lon="17.77706">
        <ele>57.833696</ele>
        <time>2022-06-12T09:51:45.090Z</time>
      </trkpt>
      <trkpt lat="43.18534" lon="17.77699">
        <ele>57.946681</ele>
        <time>2022-06-12T09:51:48.131Z</time>
      </trkpt>
      <trkpt lat="43.18544" lon="17.77691">
        <ele>58.055974</ele>
        <time>2022-06-12T09:51:51.105Z</time>
      </trkpt>
      <trkpt lat="43.18553" lon="17.77684">
        <ele>58.164037</ele>
        <time>2022-06-12T09:51:54.098Z</time>
      </trkpt>
      <trkpt lat="43.18563" lon="17.77676">
        <ele>58.278618</ele>
        <time>2022-06-12T09:51:57.103Z</time>
      </trkpt>
      <trkpt lat="43.18573" lon="17.77667">
        <ele>58.395005</ele>
        <time>2022-06-12T09:52:00.108Z</time>
      </trkpt>
      <trkpt lat="43.18582" lon="17.7766">
        <ele>58.502354</ele>
        <time>2022-06-12T09:52:03.104Z</time>
      </trkpt>
      <trkpt lat="43.1859" lon="17.77652">
        <ele>58.600532</ele>
        <time>2022-06-12T09:52:06.115Z</time>
      </trkpt>
      <trkpt lat="43.18601" lon="17.77642">
        <ele>58.730119</ele>
        <time>2022-06-12T09:52:09.098Z</time>
      </trkpt>
      <trkpt lat="43.18609" lon="17.77635">
        <ele>58.823347</ele>
        <time>2022-06-12T09:52:11.125Z</time>
      </trkpt>
      <trkpt lat="43.18619" lon="17.77626">
        <ele>58.951698</ele>
        <time>2022-06-12T09:52:14.105Z</time>
      </trkpt>
      <trkpt lat="43.1863" lon="17.77617">
        <ele>59.076995</ele>
        <time>2022-06-12T09:52:17.096Z</time>
      </trkpt>
      <trkpt lat="43.18641" lon="17.77609">
        <ele>59.197</ele>
        <time>2022-06-12T09:52:20.096Z</time>
      </trkpt>
      <trkpt lat="43.1865" lon="17.77602">
        <ele>59.303124</ele>
        <time>2022-06-12T09:52:23.093Z</time>
      </trkpt>
      <trkpt lat="43.18659" lon="17.77592">
        <ele>59.419885</ele>
        <time>2022-06-12T09:52:26.093Z</time>
      </trkpt>
      <trkpt lat="43.1867" lon="17.77585">
        <ele>59.616106</ele>
        <time>2022-06-12T09:52:29.098Z</time>
      </trkpt>
      <trkpt lat="43.1868" lon="17.77578">
        <ele>59.89001</ele>
        <time>2022-06-12T09:52:32.114Z</time>
      </trkpt>
      <trkpt lat="43.1869" lon="17.77571">
        <ele>60.169346</ele>
        <time>2022-06-12T09:52:35.102Z</time>
      </trkpt>
      <trkpt lat="43.187" lon="17.77565">
        <ele>60.43321</ele>
        <time>2022-06-12T09:52:38.131Z</time>
      </trkpt>
      <trkpt lat="43.18709" lon="17.77559">
        <ele>60.680698</ele>
        <time>2022-06-12T09:52:41.103Z</time>
      </trkpt>
      <trkpt lat="43.18718" lon="17.77552">
        <ele>60.940807</ele>
        <time>2022-06-12T09:52:44.131Z</time>
      </trkpt>
      <trkpt lat="43.18728" lon="17.77547">
        <ele>61.197964</ele>
        <time>2022-06-12T09:52:47.105Z</time>
      </trkpt>
      <trkpt lat="43.18737" lon="17.77542">
        <ele>61.443014</ele>
        <time>2022-06-12T09:52:50.108Z</time>
      </trkpt>
      <trkpt lat="43.18747" lon="17.77538">
        <ele>61.675878</ele>
        <time>2022-06-12T09:52:53.107Z</time>
      </trkpt>
      <trkpt lat="43.18757" lon="17.77533">
        <ele>61.933473</ele>
        <time>2022-06-12T09:52:56.105Z</time>
      </trkpt>
      <trkpt lat="43.18766" lon="17.77527">
        <ele>62.19357</ele>
        <time>2022-06-12T09:52:59.098Z</time>
      </trkpt>
      <trkpt lat="43.18777" lon="17.77523">
        <ele>62.467124</ele>
        <time>2022-06-12T09:53:02.094Z</time>
      </trkpt>
      <trkpt lat="43.18787" lon="17.77518">
        <ele>62.729335</ele>
        <time>2022-06-12T09:53:05.120Z</time>
      </trkpt>
      <trkpt lat="43.18797" lon="17.77514">
        <ele>62.977138</ele>
        <time>2022-06-12T09:53:08.108Z</time>
      </trkpt>
      <trkpt lat="43.18809" lon="17.77509">
        <ele>63.285939</ele>
        <time>2022-06-12T09:53:12.101Z</time>
      </trkpt>
      <trkpt lat="43.18819" lon="17.77504">
        <ele>63.552372</ele>
        <time>2022-06-12T09:53:15.121Z</time>
      </trkpt>
      <trkpt lat="43.1883" lon="17.775">
        <ele>63.82002</ele>
        <time>2022-06-12T09:53:18.167Z</time>
      </trkpt>
      <trkpt lat="43.18842" lon="17.77495">
        <ele>63.997153</ele>
        <time>2022-06-12T09:53:21.104Z</time>
      </trkpt>
      <trkpt lat="43.18853" lon="17.77489">
        <ele>64.131395</ele>
        <time>2022-06-12T09:53:24.097Z</time>
      </trkpt>
      <trkpt lat="43.18862" lon="17.77485">
        <ele>64.252597</ele>
        <time>2022-06-12T09:53:27.109Z</time>
      </trkpt>
      <trkpt lat="43.18872" lon="17.77481">
        <ele>64.386316</ele>
        <time>2022-06-12T09:53:31.101Z</time>
      </trkpt>
      <trkpt lat="43.18882" lon="17.77476">
        <ele>64.50529</ele>
        <time>2022-06-12T09:53:35.101Z</time>
      </trkpt>
      <trkpt lat="43.18893" lon="17.77471">
        <ele>64.651072</ele>
        <time>2022-06-12T09:53:38.105Z</time>
      </trkpt>
      <trkpt lat="43.18904" lon="17.77467">
        <ele>64.794887</ele>
        <time>2022-06-12T09:53:41.098Z</time>
      </trkpt>
      <trkpt lat="43.18915" lon="17.77462">
        <ele>64.93341</ele>
        <time>2022-06-12T09:53:44.095Z</time>
      </trkpt>
      <trkpt lat="43.18926" lon="17.77457">
        <ele>65.075704</ele>
        <time>2022-06-12T09:53:47.099Z</time>
      </trkpt>
      <trkpt lat="43.18936" lon="17.7745">
        <ele>65.21221</ele>
        <time>2022-06-12T09:53:50.093Z</time>
      </trkpt>
      <trkpt lat="43.18947" lon="17.77445">
        <ele>65.354879</ele>
        <time>2022-06-12T09:53:53.098Z</time>
      </trkpt>
      <trkpt lat="43.18958" lon="17.77439">
        <ele>65.489655</ele>
        <time>2022-06-12T09:53:56.097Z</time>
      </trkpt>
      <trkpt lat="43.18968" lon="17.77435">
        <ele>65.617206</ele>
        <time>2022-06-12T09:53:59.091Z</time>
      </trkpt>
      <trkpt lat="43.18977" lon="17.7743">
        <ele>65.741696</ele>
        <time>2022-06-12T09:54:02.083Z</time>
      </trkpt>
      <trkpt lat="43.18986" lon="17.77425">
        <ele>65.863589</ele>
        <time>2022-06-12T09:54:05.100Z</time>
      </trkpt>
      <trkpt lat="43.18996" lon="17.77421">
        <ele>65.98226</ele>
        <time>2022-06-12T09:54:08.108Z</time>
      </trkpt>
      <trkpt lat="43.19007" lon="17.77415">
        <ele>66.06079</ele>
        <time>2022-06-12T09:54:12.099Z</time>
      </trkpt>
      <trkpt lat="43.19016" lon="17.7741">
        <ele>66.069822</ele>
        <time>2022-06-12T09:54:15.105Z</time>
      </trkpt>
      <trkpt lat="43.19026" lon="17.77405">
        <ele>66.07911</ele>
        <time>2022-06-12T09:54:18.096Z</time>
      </trkpt>
      <trkpt lat="43.19036" lon="17.77401">
        <ele>66.088747</ele>
        <time>2022-06-12T09:54:21.095Z</time>
      </trkpt>
      <trkpt lat="43.19046" lon="17.77396">
        <ele>66.098876</ele>
        <time>2022-06-12T09:54:24.100Z</time>
      </trkpt>
      <trkpt lat="43.19057" lon="17.77393">
        <ele>66.108458</ele>
        <time>2022-06-12T09:54:27.095Z</time>
      </trkpt>
      <trkpt lat="43.19069" lon="17.77388">
        <ele>66.120167</ele>
        <time>2022-06-12T09:54:30.147Z</time>
      </trkpt>
      <trkpt lat="43.19081" lon="17.77384">
        <ele>66.131067</ele>
        <time>2022-06-12T09:54:33.104Z</time>
      </trkpt>
      <trkpt lat="43.19092" lon="17.7738">
        <ele>66.141342</ele>
        <time>2022-06-12T09:54:36.104Z</time>
      </trkpt>
      <trkpt lat="43.19102" lon="17.77377">
        <ele>66.151397</ele>
        <time>2022-06-12T09:54:39.099Z</time>
      </trkpt>
      <trkpt lat="43.19111" lon="17.77375">
        <ele>66.159882</ele>
        <time>2022-06-12T09:54:42.092Z</time>
      </trkpt>
      <trkpt lat="43.19122" lon="17.77373">
        <ele>66.169756</ele>
        <time>2022-06-12T09:54:45.096Z</time>
      </trkpt>
      <trkpt lat="43.19133" lon="17.77372">
        <ele>66.179859</ele>
        <time>2022-06-12T09:54:48.100Z</time>
      </trkpt>
      <trkpt lat="43.19144" lon="17.7737">
        <ele>66.190005</ele>
        <time>2022-06-12T09:54:51.096Z</time>
      </trkpt>
      <trkpt lat="43.19158" lon="17.7737">
        <ele>66.202036</ele>
        <time>2022-06-12T09:54:54.100Z</time>
      </trkpt>
      <trkpt lat="43.19167" lon="17.7737">
        <ele>66.210426</ele>
        <time>2022-06-12T09:54:56.106Z</time>
      </trkpt>
      <trkpt lat="43.19179" lon="17.7737">
        <ele>66.280867</ele>
        <time>2022-06-12T09:54:59.107Z</time>
      </trkpt>
      <trkpt lat="43.19191" lon="17.7737">
        <ele>66.512277</ele>
        <time>2022-06-12T09:55:02.092Z</time>
      </trkpt>
      <trkpt lat="43.19202" lon="17.77371">
        <ele>66.733542</ele>
        <time>2022-06-12T09:55:05.120Z</time>
      </trkpt>
      <trkpt lat="43.19212" lon="17.77373">
        <ele>66.946142</ele>
        <time>2022-06-12T09:55:08.109Z</time>
      </trkpt>
      <trkpt lat="43.19223" lon="17.77375">
        <ele>67.157967</ele>
        <time>2022-06-12T09:55:11.086Z</time>
      </trkpt>
      <trkpt lat="43.19233" lon="17.77378">
        <ele>67.375028</ele>
        <time>2022-06-12T09:55:14.135Z</time>
      </trkpt>
      <trkpt lat="43.19243" lon="17.7738">
        <ele>67.577714</ele>
        <time>2022-06-12T09:55:17.101Z</time>
      </trkpt>
      <trkpt lat="43.19253" lon="17.77383">
        <ele>67.786327</ele>
        <time>2022-06-12T09:55:20.139Z</time>
      </trkpt>
      <trkpt lat="43.19264" lon="17.77386">
        <ele>68.00261</ele>
        <time>2022-06-12T09:55:23.097Z</time>
      </trkpt>
      <trkpt lat="43.19274" lon="17.77391">
        <ele>68.221892</ele>
        <time>2022-06-12T09:55:26.096Z</time>
      </trkpt>
      <trkpt lat="43.19285" lon="17.77395">
        <ele>68.441018</ele>
        <time>2022-06-12T09:55:29.103Z</time>
      </trkpt>
      <trkpt lat="43.19295" lon="17.774">
        <ele>68.665493</ele>
        <time>2022-06-12T09:55:32.102Z</time>
      </trkpt>
      <trkpt lat="43.19306" lon="17.77405">
        <ele>68.894232</ele>
        <time>2022-06-12T09:55:35.117Z</time>
      </trkpt>
      <trkpt lat="43.19316" lon="17.77411">
        <ele>69.115552</ele>
        <time>2022-06-12T09:55:38.108Z</time>
      </trkpt>
      <trkpt lat="43.19326" lon="17.77416">
        <ele>69.33387</ele>
        <time>2022-06-12T09:55:41.103Z</time>
      </trkpt>
      <trkpt lat="43.19336" lon="17.77423">
        <ele>69.562559</ele>
        <time>2022-06-12T09:55:44.092Z</time>
      </trkpt>
      <trkpt lat="43.19346" lon="17.77431">
        <ele>69.78692</ele>
        <time>2022-06-12T09:55:47.108Z</time>
      </trkpt>
      <trkpt lat="43.19355" lon="17.77438">
        <ele>69.826061</ele>
        <time>2022-06-12T09:55:50.105Z</time>
      </trkpt>
      <trkpt lat="43.19365" lon="17.77446">
        <ele>69.812635</ele>
        <time>2022-06-12T09:55:53.113Z</time>
      </trkpt>
      <trkpt lat="43.19374" lon="17.77454">
        <ele>69.79978</ele>
        <time>2022-06-12T09:55:56.102Z</time>
      </trkpt>
      <trkpt lat="43.19382" lon="17.77462">
        <ele>69.787728</ele>
        <time>2022-06-12T09:55:59.105Z</time>
      </trkpt>
      <trkpt lat="43.1939" lon="17.7747">
        <ele>69.775061</ele>
        <time>2022-06-12T09:56:02.086Z</time>
      </trkpt>
      <trkpt lat="43.19399" lon="17.7748">
        <ele>69.761836</ele>
        <time>2022-06-12T09:56:05.132Z</time>
      </trkpt>
      <trkpt lat="43.19407" lon="17.77489">
        <ele>69.748091</ele>
        <time>2022-06-12T09:56:08.106Z</time>
      </trkpt>
      <trkpt lat="43.19416" lon="17.77499">
        <ele>69.734776</ele>
        <time>2022-06-12T09:56:11.086Z</time>
      </trkpt>
      <trkpt lat="43.19424" lon="17.77508">
        <ele>69.721724</ele>
        <time>2022-06-12T09:56:14.111Z</time>
      </trkpt>
      <trkpt lat="43.19432" lon="17.77518">
        <ele>69.709373</ele>
        <time>2022-06-12T09:56:17.139Z</time>
      </trkpt>
      <trkpt lat="43.19439" lon="17.77527">
        <ele>69.697083</ele>
        <time>2022-06-12T09:56:20.104Z</time>
      </trkpt>
      <trkpt lat="43.19447" lon="17.77536">
        <ele>69.685022</ele>
        <time>2022-06-12T09:56:23.109Z</time>
      </trkpt>
      <trkpt lat="43.19454" lon="17.77545">
        <ele>69.672847</ele>
        <time>2022-06-12T09:56:26.108Z</time>
      </trkpt>
      <trkpt lat="43.19462" lon="17.77554">
        <ele>69.660556</ele>
        <time>2022-06-12T09:56:29.104Z</time>
      </trkpt>
      <trkpt lat="43.1947" lon="17.77563">
        <ele>69.648402</ele>
        <time>2022-06-12T09:56:32.105Z</time>
      </trkpt>
      <trkpt lat="43.19478" lon="17.77572">
        <ele>69.635629</ele>
        <time>2022-06-12T09:56:35.128Z</time>
      </trkpt>
      <trkpt lat="43.19486" lon="17.77584">
        <ele>69.621249</ele>
        <time>2022-06-12T09:56:38.099Z</time>
      </trkpt>
      <trkpt lat="43.19496" lon="17.77594">
        <ele>69.388645</ele>
        <time>2022-06-12T09:56:41.109Z</time>
      </trkpt>
      <trkpt lat="43.19506" lon="17.77605">
        <ele>69.095673</ele>
        <time>2022-06-12T09:56:44.113Z</time>
      </trkpt>
      <trkpt lat="43.19512" lon="17.77613">
        <ele>68.877572</ele>
        <time>2022-06-12T09:56:46.104Z</time>
      </trkpt>
      <trkpt lat="43.19521" lon="17.77624">
        <ele>68.596785</ele>
        <time>2022-06-12T09:56:49.102Z</time>
      </trkpt>
      <trkpt lat="43.1953" lon="17.77634">
        <ele>68.335118</ele>
        <time>2022-06-12T09:56:52.111Z</time>
      </trkpt>
      <trkpt lat="43.19538" lon="17.77643">
        <ele>68.075512</ele>
        <time>2022-06-12T09:56:55.130Z</time>
      </trkpt>
      <trkpt lat="43.19547" lon="17.77653">
        <ele>67.796807</ele>
        <time>2022-06-12T09:56:58.117Z</time>
      </trkpt>
      <trkpt lat="43.19557" lon="17.77664">
        <ele>67.498571</ele>
        <time>2022-06-12T09:57:01.089Z</time>
      </trkpt>
      <trkpt lat="43.19567" lon="17.77673">
        <ele>67.218152</ele>
        <time>2022-06-12T09:57:04.132Z</time>
      </trkpt>
      <trkpt lat="43.19576" lon="17.77682">
        <ele>66.953462</ele>
        <time>2022-06-12T09:57:07.101Z</time>
      </trkpt>
      <trkpt lat="43.19585" lon="17.77691">
        <ele>66.688859</ele>
        <time>2022-06-12T09:57:10.103Z</time>
      </trkpt>
      <trkpt lat="43.19596" lon="17.77699">
        <ele>66.400497</ele>
        <time>2022-06-12T09:57:13.103Z</time>
      </trkpt>
      <trkpt lat="43.19607" lon="17.77708">
        <ele>66.101301</ele>
        <time>2022-06-12T09:57:16.103Z</time>
      </trkpt>
      <trkpt lat="43.19618" lon="17.77716">
        <ele>65.794865</ele>
        <time>2022-06-12T09:57:19.109Z</time>
      </trkpt>
      <trkpt lat="43.19629" lon="17.77723">
        <ele>65.510862</ele>
        <time>2022-06-12T09:57:22.112Z</time>
      </trkpt>
      <trkpt lat="43.19641" lon="17.77728">
        <ele>65.428801</ele>
        <time>2022-06-12T09:57:25.110Z</time>
      </trkpt>
      <trkpt lat="43.19652" lon="17.77734">
        <ele>65.632415</ele>
        <time>2022-06-12T09:57:28.134Z</time>
      </trkpt>
      <trkpt lat="43.19664" lon="17.77741">
        <ele>65.845584</ele>
        <time>2022-06-12T09:57:31.112Z</time>
      </trkpt>
      <trkpt lat="43.19676" lon="17.77747">
        <ele>66.05762</ele>
        <time>2022-06-12T09:57:34.110Z</time>
      </trkpt>
      <trkpt lat="43.19688" lon="17.77753">
        <ele>66.261519</ele>
        <time>2022-06-12T09:57:37.097Z</time>
      </trkpt>
      <trkpt lat="43.19699" lon="17.77758">
        <ele>66.456899</ele>
        <time>2022-06-12T09:57:40.096Z</time>
      </trkpt>
      <trkpt lat="43.19712" lon="17.77764">
        <ele>66.674351</ele>
        <time>2022-06-12T09:57:43.110Z</time>
      </trkpt>
      <trkpt lat="43.1972" lon="17.77771">
        <ele>66.828442</ele>
        <time>2022-06-12T09:57:45.149Z</time>
      </trkpt>
      <trkpt lat="43.19726" lon="17.77781">
        <ele>66.987632</ele>
        <time>2022-06-12T09:57:47.093Z</time>
      </trkpt>
      <trkpt lat="43.19731" lon="17.77795">
        <ele>67.16979</ele>
        <time>2022-06-12T09:57:50.112Z</time>
      </trkpt>
      <trkpt lat="43.19726" lon="17.77813">
        <ele>67.397673</ele>
        <time>2022-06-12T09:57:54.108Z</time>
      </trkpt>
      <trkpt lat="43.19722" lon="17.77825">
        <ele>67.560595</ele>
        <time>2022-06-12T09:57:56.124Z</time>
      </trkpt>
      <trkpt lat="43.19732" lon="17.77833">
        <ele>67.743682</ele>
        <time>2022-06-12T09:58:01.112Z</time>
      </trkpt>
      <trkpt lat="43.19741" lon="17.77843">
        <ele>67.94175</ele>
        <time>2022-06-12T09:58:05.120Z</time>
      </trkpt>
      <trkpt lat="43.19748" lon="17.77857">
        <ele>68.140543</ele>
        <time>2022-06-12T09:58:08.098Z</time>
      </trkpt>
      <trkpt lat="43.19754" lon="17.77868">
        <ele>68.300221</ele>
        <time>2022-06-12T09:58:10.111Z</time>
      </trkpt>
      <trkpt lat="43.19761" lon="17.77882">
        <ele>68.44786</ele>
        <time>2022-06-12T09:58:13.140Z</time>
      </trkpt>
      <trkpt lat="43.19768" lon="17.77896">
        <ele>68.59144</ele>
        <time>2022-06-12T09:58:16.095Z</time>
      </trkpt>
      <trkpt lat="43.19774" lon="17.77908">
        <ele>68.719704</ele>
        <time>2022-06-12T09:58:20.100Z</time>
      </trkpt>
      <trkpt lat="43.1978" lon="17.77918">
        <ele>68.833614</ele>
        <time>2022-06-12T09:58:23.092Z</time>
      </trkpt>
      <trkpt lat="43.19786" lon="17.7793">
        <ele>68.954089</ele>
        <time>2022-06-12T09:58:26.086Z</time>
      </trkpt>
      <trkpt lat="43.19791" lon="17.77943">
        <ele>69.080524</ele>
        <time>2022-06-12T09:58:29.107Z</time>
      </trkpt>
      <trkpt lat="43.19799" lon="17.77956">
        <ele>69.223528</ele>
        <time>2022-06-12T09:58:33.116Z</time>
      </trkpt>
      <trkpt lat="43.19806" lon="17.77968">
        <ele>69.357424</ele>
        <time>2022-06-12T09:58:36.104Z</time>
      </trkpt>
      <trkpt lat="43.19812" lon="17.77981">
        <ele>69.487102</ele>
        <time>2022-06-12T09:58:39.111Z</time>
      </trkpt>
      <trkpt lat="43.19819" lon="17.77992">
        <ele>69.610708</ele>
        <time>2022-06-12T09:58:42.114Z</time>
      </trkpt>
      <trkpt lat="43.19826" lon="17.78003">
        <ele>69.737245</ele>
        <time>2022-06-12T09:58:45.105Z</time>
      </trkpt>
      <trkpt lat="43.19831" lon="17.78013">
        <ele>69.845514</ele>
        <time>2022-06-12T09:58:48.104Z</time>
      </trkpt>
      <trkpt lat="43.19839" lon="17.78023">
        <ele>69.972019</ele>
        <time>2022-06-12T09:58:51.108Z</time>
      </trkpt>
      <trkpt lat="43.19846" lon="17.78033">
        <ele>70.089315</ele>
        <time>2022-06-12T09:58:54.104Z</time>
      </trkpt>
      <trkpt lat="43.19854" lon="17.78044">
        <ele>70.222586</ele>
        <time>2022-06-12T09:58:57.124Z</time>
      </trkpt>
      <trkpt lat="43.19863" lon="17.78057">
        <ele>70.37759</ele>
        <time>2022-06-12T09:59:00.105Z</time>
      </trkpt>
      <trkpt lat="43.19872" lon="17.7807">
        <ele>70.35644</ele>
        <time>2022-06-12T09:59:03.109Z</time>
      </trkpt>
      <trkpt lat="43.19881" lon="17.7808">
        <ele>70.294618</ele>
        <time>2022-06-12T09:59:06.106Z</time>
      </trkpt>
      <trkpt lat="43.1989" lon="17.7809">
        <ele>70.235234</ele>
        <time>2022-06-12T09:59:09.095Z</time>
      </trkpt>
      <trkpt lat="43.19898" lon="17.781">
        <ele>70.179765</ele>
        <time>2022-06-12T09:59:12.101Z</time>
      </trkpt>
      <trkpt lat="43.19907" lon="17.78109">
        <ele>70.122377</ele>
        <time>2022-06-12T09:59:15.147Z</time>
      </trkpt>
      <trkpt lat="43.19916" lon="17.78119">
        <ele>70.062527</ele>
        <time>2022-06-12T09:59:18.108Z</time>
      </trkpt>
      <trkpt lat="43.19924" lon="17.7813">
        <ele>70.006429</ele>
        <time>2022-06-12T09:59:21.103Z</time>
      </trkpt>
      <trkpt lat="43.19932" lon="17.78139">
        <ele>69.951208</ele>
        <time>2022-06-12T09:59:24.111Z</time>
      </trkpt>
      <trkpt lat="43.1994" lon="17.78149">
        <ele>69.89799</ele>
        <time>2022-06-12T09:59:27.109Z</time>
      </trkpt>
      <trkpt lat="43.19948" lon="17.78159">
        <ele>69.842522</ele>
        <time>2022-06-12T09:59:30.102Z</time>
      </trkpt>
      <trkpt lat="43.19955" lon="17.7817">
        <ele>69.786572</ele>
        <time>2022-06-12T09:59:33.104Z</time>
      </trkpt>
      <trkpt lat="43.19963" lon="17.7818">
        <ele>69.73276</ele>
        <time>2022-06-12T09:59:36.123Z</time>
      </trkpt>
      <trkpt lat="43.1997" lon="17.78191">
        <ele>69.677248</ele>
        <time>2022-06-12T09:59:39.103Z</time>
      </trkpt>
      <trkpt lat="43.19979" lon="17.78201">
        <ele>69.619294</ele>
        <time>2022-06-12T09:59:42.110Z</time>
      </trkpt>
      <trkpt lat="43.19988" lon="17.78211">
        <ele>69.562183</ele>
        <time>2022-06-12T09:59:45.176Z</time>
      </trkpt>
      <trkpt lat="43.19996" lon="17.78219">
        <ele>69.507571</ele>
        <time>2022-06-12T09:59:48.092Z</time>
      </trkpt>
      <trkpt lat="43.20004" lon="17.78229">
        <ele>69.434048</ele>
        <time>2022-06-12T09:59:51.143Z</time>
      </trkpt>
      <trkpt lat="43.20011" lon="17.78238">
        <ele>69.353155</ele>
        <time>2022-06-12T09:59:54.091Z</time>
      </trkpt>
      <trkpt lat="43.20017" lon="17.78248">
        <ele>69.272616</ele>
        <time>2022-06-12T09:59:57.106Z</time>
      </trkpt>
      <trkpt lat="43.20023" lon="17.78258">
        <ele>69.194643</ele>
        <time>2022-06-12T10:00:00.100Z</time>
      </trkpt>
      <trkpt lat="43.20031" lon="17.78265">
        <ele>69.118882</ele>
        <time>2022-06-12T10:00:04.135Z</time>
      </trkpt>
      <trkpt lat="43.2004" lon="17.7826">
        <ele>69.039471</ele>
        <time>2022-06-12T10:00:08.185Z</time>
      </trkpt>
      <trkpt lat="43.20046" lon="17.78251">
        <ele>68.9616</ele>
        <time>2022-06-12T10:00:10.150Z</time>
      </trkpt>
      <trkpt lat="43.20051" lon="17.7824">
        <ele>68.885565</ele>
        <time>2022-06-12T10:00:14.111Z</time>
      </trkpt>
      <trkpt lat="43.20058" lon="17.78231">
        <ele>68.806565</ele>
        <time>2022-06-12T10:00:17.119Z</time>
      </trkpt>
      <trkpt lat="43.20066" lon="17.78225">
        <ele>68.730275</ele>
        <time>2022-06-12T10:00:20.091Z</time>
      </trkpt>
      <trkpt lat="43.20074" lon="17.78238">
        <ele>68.627566</ele>
        <time>2022-06-12T10:00:25.129Z</time>
      </trkpt>
      <trkpt lat="43.20082" lon="17.7825">
        <ele>68.527885</ele>
        <time>2022-06-12T10:00:27.095Z</time>
      </trkpt>
      <trkpt lat="43.20089" lon="17.7826">
        <ele>68.447584</ele>
        <time>2022-06-12T10:00:30.110Z</time>
      </trkpt>
      <trkpt lat="43.20096" lon="17.7827">
        <ele>68.35709</ele>
        <time>2022-06-12T10:00:34.093Z</time>
      </trkpt>
      <trkpt lat="43.20107" lon="17.7828">
        <ele>68.253766</ele>
        <time>2022-06-12T10:00:38.093Z</time>
      </trkpt>
      <trkpt lat="43.20115" lon="17.78288">
        <ele>68.168984</ele>
        <time>2022-06-12T10:00:41.094Z</time>
      </trkpt>
      <trkpt lat="43.20123" lon="17.78296">
        <ele>68.081834</ele>
        <time>2022-06-12T10:00:44.110Z</time>
      </trkpt>
      <trkpt lat="43.20131" lon="17.78302">
        <ele>68.005996</ele>
        <time>2022-06-12T10:00:47.101Z</time>
      </trkpt>
      <trkpt lat="43.20145" lon="17.78302">
        <ele>68.037846</ele>
        <time>2022-06-12T10:00:51.103Z</time>
      </trkpt>
      <trkpt lat="43.20154" lon="17.78297">
        <ele>68.087251</ele>
        <time>2022-06-12T10:00:54.137Z</time>
      </trkpt>
      <trkpt lat="43.20164" lon="17.78294">
        <ele>68.136745</ele>
        <time>2022-06-12T10:00:57.099Z</time>
      </trkpt>
      <trkpt lat="43.20172" lon="17.78305">
        <ele>68.189559</ele>
        <time>2022-06-12T10:01:01.113Z</time>
      </trkpt>
      <trkpt lat="43.20182" lon="17.78314">
        <ele>68.245021</ele>
        <time>2022-06-12T10:01:03.107Z</time>
      </trkpt>
      <trkpt lat="43.20191" lon="17.78323">
        <ele>68.298509</ele>
        <time>2022-06-12T10:01:06.123Z</time>
      </trkpt>
      <trkpt lat="43.20199" lon="17.78331">
        <ele>68.347133</ele>
        <time>2022-06-12T10:01:09.094Z</time>
      </trkpt>
      <trkpt lat="43.20207" lon="17.78339">
        <ele>68.393177</ele>
        <time>2022-06-12T10:01:12.103Z</time>
      </trkpt>
      <trkpt lat="43.20215" lon="17.78347">
        <ele>68.44139</ele>
        <time>2022-06-12T10:01:15.109Z</time>
      </trkpt>
      <trkpt lat="43.20224" lon="17.78355">
        <ele>68.49135</ele>
        <time>2022-06-12T10:01:18.108Z</time>
      </trkpt>
      <trkpt lat="43.20233" lon="17.78365">
        <ele>68.54601</ele>
        <time>2022-06-12T10:01:21.100Z</time>
      </trkpt>
      <trkpt lat="43.20241" lon="17.78375">
        <ele>68.597991</ele>
        <time>2022-06-12T10:01:24.104Z</time>
      </trkpt>
      <trkpt lat="43.2025" lon="17.78385">
        <ele>68.652952</ele>
        <time>2022-06-12T10:01:27.136Z</time>
      </trkpt>
      <trkpt lat="43.20256" lon="17.78395">
        <ele>68.69952</ele>
        <time>2022-06-12T10:01:30.105Z</time>
      </trkpt>
      <trkpt lat="43.20264" lon="17.78406">
        <ele>68.749524</ele>
        <time>2022-06-12T10:01:33.107Z</time>
      </trkpt>
      <trkpt lat="43.2027" lon="17.78417">
        <ele>68.798504</ele>
        <time>2022-06-12T10:01:36.094Z</time>
      </trkpt>
      <trkpt lat="43.20276" lon="17.7843">
        <ele>68.863199</ele>
        <time>2022-06-12T10:01:39.134Z</time>
      </trkpt>
      <trkpt lat="43.20282" lon="17.78443">
        <ele>68.966695</ele>
        <time>2022-06-12T10:01:42.098Z</time>
      </trkpt>
      <trkpt lat="43.20287" lon="17.78457">
        <ele>69.072518</ele>
        <time>2022-06-12T10:01:45.110Z</time>
      </trkpt>
      <trkpt lat="43.20295" lon="17.78471">
        <ele>69.19019</ele>
        <time>2022-06-12T10:01:48.103Z</time>
      </trkpt>
      <trkpt lat="43.20302" lon="17.7848">
        <ele>69.280282</ele>
        <time>2022-06-12T10:01:50.100Z</time>
      </trkpt>
      <trkpt lat="43.2031" lon="17.78488">
        <ele>69.369505</ele>
        <time>2022-06-12T10:01:52.105Z</time>
      </trkpt>
      <trkpt lat="43.20317" lon="17.78495">
        <ele>69.453363</ele>
        <time>2022-06-12T10:01:54.092Z</time>
      </trkpt>
      <trkpt lat="43.20328" lon="17.78504">
        <ele>69.566521</ele>
        <time>2022-06-12T10:01:57.103Z</time>
      </trkpt>
      <trkpt lat="43.20337" lon="17.78513">
        <ele>69.672086</ele>
        <time>2022-06-12T10:02:00.141Z</time>
      </trkpt>
      <trkpt lat="43.20338" lon="17.78528">
        <ele>69.769311</ele>
        <time>2022-06-12T10:02:06.103Z</time>
      </trkpt>
      <trkpt lat="43.20332" lon="17.7854">
        <ele>69.869709</ele>
        <time>2022-06-12T10:02:09.097Z</time>
      </trkpt>
      <trkpt lat="43.20325" lon="17.78553">
        <ele>69.976629</ele>
        <time>2022-06-12T10:02:12.092Z</time>
      </trkpt>
      <trkpt lat="43.20318" lon="17.78563">
        <ele>70.067742</ele>
        <time>2022-06-12T10:02:15.104Z</time>
      </trkpt>
      <trkpt lat="43.20311" lon="17.78574">
        <ele>70.165693</ele>
        <time>2022-06-12T10:02:18.112Z</time>
      </trkpt>
      <trkpt lat="43.20303" lon="17.78586">
        <ele>70.27516</ele>
        <time>2022-06-12T10:02:21.106Z</time>
      </trkpt>
      <trkpt lat="43.20296" lon="17.78598">
        <ele>70.383324</ele>
        <time>2022-06-12T10:02:24.101Z</time>
      </trkpt>
      <trkpt lat="43.20289" lon="17.7861">
        <ele>70.48144</ele>
        <time>2022-06-12T10:02:27.164Z</time>
      </trkpt>
      <trkpt lat="43.20294" lon="17.78622">
        <ele>70.527754</ele>
        <time>2022-06-12T10:02:32.081Z</time>
      </trkpt>
      <trkpt lat="43.20301" lon="17.78633">
        <ele>70.569435</ele>
        <time>2022-06-12T10:02:34.100Z</time>
      </trkpt>
      <trkpt lat="43.2031" lon="17.78643">
        <ele>70.615105</ele>
        <time>2022-06-12T10:02:37.104Z</time>
      </trkpt>
      <trkpt lat="43.20319" lon="17.78651">
        <ele>70.655634</ele>
        <time>2022-06-12T10:02:40.106Z</time>
      </trkpt>
      <trkpt lat="43.20327" lon="17.78661">
        <ele>70.699562</ele>
        <time>2022-06-12T10:02:44.107Z</time>
      </trkpt>
      <trkpt lat="43.20336" lon="17.78672">
        <ele>70.745158</ele>
        <time>2022-06-12T10:02:47.100Z</time>
      </trkpt>
      <trkpt lat="43.20345" lon="17.78682">
        <ele>70.791783</ele>
        <time>2022-06-12T10:02:50.103Z</time>
      </trkpt>
      <trkpt lat="43.20353" lon="17.78689">
        <ele>70.827668</ele>
        <time>2022-06-12T10:02:53.099Z</time>
      </trkpt>
      <trkpt lat="43.20362" lon="17.78698">
        <ele>70.87063</ele>
        <time>2022-06-12T10:02:57.117Z</time>
      </trkpt>
      <trkpt lat="43.20373" lon="17.78705">
        <ele>70.91851</ele>
        <time>2022-06-12T10:03:01.149Z</time>
      </trkpt>
      <trkpt lat="43.20382" lon="17.78712">
        <ele>70.958554</ele>
        <time>2022-06-12T10:03:04.087Z</time>
      </trkpt>
      <trkpt lat="43.20391" lon="17.78719">
        <ele>71.001674</ele>
        <time>2022-06-12T10:03:07.098Z</time>
      </trkpt>
      <trkpt lat="43.204" lon="17.78724">
        <ele>71.038031</ele>
        <time>2022-06-12T10:03:10.127Z</time>
      </trkpt>
      <trkpt lat="43.2041" lon="17.7873">
        <ele>71.081839</ele>
        <time>2022-06-12T10:03:14.097Z</time>
      </trkpt>
      <trkpt lat="43.2042" lon="17.78741">
        <ele>71.129971</ele>
        <time>2022-06-12T10:03:18.103Z</time>
      </trkpt>
      <trkpt lat="43.20428" lon="17.78749">
        <ele>71.17131</ele>
        <time>2022-06-12T10:03:21.094Z</time>
      </trkpt>
      <trkpt lat="43.20439" lon="17.78757">
        <ele>71.126715</ele>
        <time>2022-06-12T10:03:24.104Z</time>
      </trkpt>
      <trkpt lat="43.20449" lon="17.78761">
        <ele>70.942194</ele>
        <time>2022-06-12T10:03:27.091Z</time>
      </trkpt>
      <trkpt lat="43.20459" lon="17.78765">
        <ele>70.773163</ele>
        <time>2022-06-12T10:03:30.115Z</time>
      </trkpt>
      <trkpt lat="43.2047" lon="17.78771">
        <ele>70.594097</ele>
        <time>2022-06-12T10:03:33.103Z</time>
      </trkpt>
      <trkpt lat="43.2048" lon="17.78776">
        <ele>70.417827</ele>
        <time>2022-06-12T10:03:36.110Z</time>
      </trkpt>
      <trkpt lat="43.2049" lon="17.78782">
        <ele>70.232105</ele>
        <time>2022-06-12T10:03:39.100Z</time>
      </trkpt>
      <trkpt lat="43.20501" lon="17.78789">
        <ele>70.029909</ele>
        <time>2022-06-12T10:03:42.098Z</time>
      </trkpt>
      <trkpt lat="43.20514" lon="17.78797">
        <ele>69.805482</ele>
        <time>2022-06-12T10:03:45.175Z</time>
      </trkpt>
      <trkpt lat="43.20522" lon="17.78802">
        <ele>69.652521</ele>
        <time>2022-06-12T10:03:47.120Z</time>
      </trkpt>
      <trkpt lat="43.20531" lon="17.78807">
        <ele>69.495454</ele>
        <time>2022-06-12T10:03:49.093Z</time>
      </trkpt>
      <trkpt lat="43.2054" lon="17.78811">
        <ele>69.346963</ele>
        <time>2022-06-12T10:03:51.101Z</time>
      </trkpt>
      <trkpt lat="43.20553" lon="17.78813">
        <ele>69.136655</ele>
        <time>2022-06-12T10:03:54.109Z</time>
      </trkpt>
      <trkpt lat="43.20563" lon="17.78814">
        <ele>68.972247</ele>
        <time>2022-06-12T10:03:57.105Z</time>
      </trkpt>
      <trkpt lat="43.20573" lon="17.78812">
        <ele>68.801697</ele>
        <time>2022-06-12T10:04:00.093Z</time>
      </trkpt>
      <trkpt lat="43.20582" lon="17.78804">
        <ele>68.626057</ele>
        <time>2022-06-12T10:04:05.124Z</time>
      </trkpt>
      <trkpt lat="43.20589" lon="17.78794">
        <ele>68.463023</ele>
        <time>2022-06-12T10:04:08.100Z</time>
      </trkpt>
      <trkpt lat="43.20596" lon="17.78784">
        <ele>68.28806</ele>
        <time>2022-06-12T10:04:12.104Z</time>
      </trkpt>
      <trkpt lat="43.20603" lon="17.78773">
        <ele>68.473663</ele>
        <time>2022-06-12T10:04:16.102Z</time>
      </trkpt>
      <trkpt lat="43.20609" lon="17.78763">
        <ele>68.736545</ele>
        <time>2022-06-12T10:04:20.089Z</time>
      </trkpt>
      <trkpt lat="43.20616" lon="17.78754">
        <ele>68.984291</ele>
        <time>2022-06-12T10:04:24.144Z</time>
      </trkpt>
      <trkpt lat="43.20627" lon="17.78754">
        <ele>69.282358</ele>
        <time>2022-06-12T10:04:31.104Z</time>
      </trkpt>
      <trkpt lat="43.20638" lon="17.78761">
        <ele>69.6229</ele>
        <time>2022-06-12T10:04:34.088Z</time>
      </trkpt>
      <trkpt lat="43.20648" lon="17.78767">
        <ele>69.919269</ele>
        <time>2022-06-12T10:04:38.097Z</time>
      </trkpt>
      <trkpt lat="43.20656" lon="17.78774">
        <ele>70.17165</ele>
        <time>2022-06-12T10:04:41.098Z</time>
      </trkpt>
      <trkpt lat="43.20665" lon="17.78783">
        <ele>70.475223</ele>
        <time>2022-06-12T10:04:45.103Z</time>
      </trkpt>
      <trkpt lat="43.20675" lon="17.78791">
        <ele>70.789269</ele>
        <time>2022-06-12T10:04:49.183Z</time>
      </trkpt>
      <trkpt lat="43.20684" lon="17.78801">
        <ele>71.089019</ele>
        <time>2022-06-12T10:04:53.107Z</time>
      </trkpt>
      <trkpt lat="43.20691" lon="17.78808">
        <ele>71.3347</ele>
        <time>2022-06-12T10:04:56.105Z</time>
      </trkpt>
      <trkpt lat="43.20699" lon="17.78815">
        <ele>71.592601</ele>
        <time>2022-06-12T10:04:59.096Z</time>
      </trkpt>
      <trkpt lat="43.20707" lon="17.78822">
        <ele>71.861966</ele>
        <time>2022-06-12T10:05:02.105Z</time>
      </trkpt>
      <trkpt lat="43.20716" lon="17.7883">
        <ele>72.14328</ele>
        <time>2022-06-12T10:05:05.101Z</time>
      </trkpt>
      <trkpt lat="43.20725" lon="17.78838">
        <ele>72.426863</ele>
        <time>2022-06-12T10:05:08.122Z</time>
      </trkpt>
      <trkpt lat="43.20732" lon="17.78845">
        <ele>72.679243</ele>
        <time>2022-06-12T10:05:11.106Z</time>
      </trkpt>
      <trkpt lat="43.20741" lon="17.78851">
        <ele>72.937987</ele>
        <time>2022-06-12T10:05:14.135Z</time>
      </trkpt>
      <trkpt lat="43.2075" lon="17.78857">
        <ele>73.028032</ele>
        <time>2022-06-12T10:05:17.107Z</time>
      </trkpt>
      <trkpt lat="43.20758" lon="17.78863">
        <ele>72.722776</ele>
        <time>2022-06-12T10:05:20.097Z</time>
      </trkpt>
      <trkpt lat="43.2077" lon="17.78867">
        <ele>72.340555</ele>
        <time>2022-06-12T10:05:24.105Z</time>
      </trkpt>
      <trkpt lat="43.2078" lon="17.7887">
        <ele>71.995494</ele>
        <time>2022-06-12T10:05:28.102Z</time>
      </trkpt>
      <trkpt lat="43.2079" lon="17.78873">
        <ele>71.652968</ele>
        <time>2022-06-12T10:05:32.109Z</time>
      </trkpt>
      <trkpt lat="43.208" lon="17.78876">
        <ele>71.351443</ele>
        <time>2022-06-12T10:05:35.128Z</time>
      </trkpt>
      <trkpt lat="43.20809" lon="17.78879">
        <ele>71.042846</ele>
        <time>2022-06-12T10:05:38.116Z</time>
      </trkpt>
      <trkpt lat="43.20818" lon="17.78881">
        <ele>70.745015</ele>
        <time>2022-06-12T10:05:41.111Z</time>
      </trkpt>
      <trkpt lat="43.20829" lon="17.78884">
        <ele>70.388406</ele>
        <time>2022-06-12T10:05:45.128Z</time>
      </trkpt>
      <trkpt lat="43.20838" lon="17.78886">
        <ele>70.087391</ele>
        <time>2022-06-12T10:05:48.104Z</time>
      </trkpt>
      <trkpt lat="43.20848" lon="17.78889">
        <ele>69.764779</ele>
        <time>2022-06-12T10:05:51.105Z</time>
      </trkpt>
      <trkpt lat="43.20858" lon="17.78891">
        <ele>69.430764</ele>
        <time>2022-06-12T10:05:54.100Z</time>
      </trkpt>
      <trkpt lat="43.20867" lon="17.78893">
        <ele>69.135712</ele>
        <time>2022-06-12T10:05:57.106Z</time>
      </trkpt>
      <trkpt lat="43.20878" lon="17.78896">
        <ele>68.768276</ele>
        <time>2022-06-12T10:06:01.108Z</time>
      </trkpt>
      <trkpt lat="43.20888" lon="17.78898">
        <ele>68.457324</ele>
        <time>2022-06-12T10:06:04.089Z</time>
      </trkpt>
      <trkpt lat="43.20898" lon="17.78901">
        <ele>68.132848</ele>
        <time>2022-06-12T10:06:07.095Z</time>
      </trkpt>
      <trkpt lat="43.20907" lon="17.78903">
        <ele>67.818317</ele>
        <time>2022-06-12T10:06:10.095Z</time>
      </trkpt>
      <trkpt lat="43.20917" lon="17.78905">
        <ele>67.515184</ele>
        <time>2022-06-12T10:06:13.093Z</time>
      </trkpt>
      <trkpt lat="43.20926" lon="17.78907">
        <ele>67.38329</ele>
        <time>2022-06-12T10:06:16.105Z</time>
      </trkpt>
      <trkpt lat="43.20938" lon="17.7891">
        <ele>67.61618</ele>
        <time>2022-06-12T10:06:20.106Z</time>
      </trkpt>
      <trkpt lat="43.20947" lon="17.78911">
        <ele>67.798941</ele>
        <time>2022-06-12T10:06:23.109Z</time>
      </trkpt>
      <trkpt lat="43.20959" lon="17.78915">
        <ele>68.024862</ele>
        <time>2022-06-12T10:06:27.096Z</time>
      </trkpt>
      <trkpt lat="43.2097" lon="17.78919">
        <ele>68.241159</ele>
        <time>2022-06-12T10:06:31.096Z</time>
      </trkpt>
      <trkpt lat="43.20979" lon="17.78922">
        <ele>68.421809</ele>
        <time>2022-06-12T10:06:34.107Z</time>
      </trkpt>
      <trkpt lat="43.2099" lon="17.78926">
        <ele>68.646984</ele>
        <time>2022-06-12T10:06:38.102Z</time>
      </trkpt>
      <trkpt lat="43.20999" lon="17.7893">
        <ele>68.824696</ele>
        <time>2022-06-12T10:06:41.117Z</time>
      </trkpt>
      <trkpt lat="43.21008" lon="17.78934">
        <ele>69.005578</ele>
        <time>2022-06-12T10:06:44.096Z</time>
      </trkpt>
      <trkpt lat="43.21017" lon="17.78939">
        <ele>69.182524</ele>
        <time>2022-06-12T10:06:47.094Z</time>
      </trkpt>
      <trkpt lat="43.21026" lon="17.78944">
        <ele>69.374797</ele>
        <time>2022-06-12T10:06:50.101Z</time>
      </trkpt>
      <trkpt lat="43.21035" lon="17.78948">
        <ele>69.560227</ele>
        <time>2022-06-12T10:06:53.096Z</time>
      </trkpt>
      <trkpt lat="43.21044" lon="17.78955">
        <ele>69.755623</ele>
        <time>2022-06-12T10:06:56.119Z</time>
      </trkpt>
      <trkpt lat="43.21053" lon="17.7896">
        <ele>69.935225</ele>
        <time>2022-06-12T10:06:59.127Z</time>
      </trkpt>
      <trkpt lat="43.21061" lon="17.78966">
        <ele>70.116767</ele>
        <time>2022-06-12T10:07:02.099Z</time>
      </trkpt>
      <trkpt lat="43.2107" lon="17.78972">
        <ele>70.301966</ele>
        <time>2022-06-12T10:07:05.149Z</time>
      </trkpt>
      <trkpt lat="43.21078" lon="17.78979">
        <ele>70.488732</ele>
        <time>2022-06-12T10:07:08.100Z</time>
      </trkpt>
      <trkpt lat="43.21086" lon="17.78986">
        <ele>70.665801</ele>
        <time>2022-06-12T10:07:11.105Z</time>
      </trkpt>
      <trkpt lat="43.21095" lon="17.78995">
        <ele>70.887757</ele>
        <time>2022-06-12T10:07:15.109Z</time>
      </trkpt>
      <trkpt lat="43.21102" lon="17.79002">
        <ele>71.073983</ele>
        <time>2022-06-12T10:07:18.096Z</time>
      </trkpt>
      <trkpt lat="43.2111" lon="17.7901">
        <ele>71.268291</ele>
        <time>2022-06-12T10:07:21.096Z</time>
      </trkpt>
      <trkpt lat="43.21118" lon="17.79019">
        <ele>71.47454</ele>
        <time>2022-06-12T10:07:24.091Z</time>
      </trkpt>
      <trkpt lat="43.21126" lon="17.79028">
        <ele>71.674891</ele>
        <time>2022-06-12T10:07:27.098Z</time>
      </trkpt>
      <trkpt lat="43.21135" lon="17.79039">
        <ele>71.913678</ele>
        <time>2022-06-12T10:07:31.108Z</time>
      </trkpt>
      <trkpt lat="43.21142" lon="17.79048">
        <ele>72.110503</ele>
        <time>2022-06-12T10:07:34.097Z</time>
      </trkpt>
      <trkpt lat="43.21149" lon="17.79058">
        <ele>72.311748</ele>
        <time>2022-06-12T10:07:37.107Z</time>
      </trkpt>
      <trkpt lat="43.21155" lon="17.79067">
        <ele>72.497301</ele>
        <time>2022-06-12T10:07:41.098Z</time>
      </trkpt>
      <trkpt lat="43.21162" lon="17.79079">
        <ele>72.717391</ele>
        <time>2022-06-12T10:07:44.105Z</time>
      </trkpt>
      <trkpt lat="43.21169" lon="17.79089">
        <ele>72.911036</ele>
        <time>2022-06-12T10:07:47.114Z</time>
      </trkpt>
      <trkpt lat="43.21176" lon="17.79101">
        <ele>73.143592</ele>
        <time>2022-06-12T10:07:51.104Z</time>
      </trkpt>
      <trkpt lat="43.21183" lon="17.79114">
        <ele>73.375125</ele>
        <time>2022-06-12T10:07:55.120Z</time>
      </trkpt>
      <trkpt lat="43.21188" lon="17.79127">
        <ele>73.596047</ele>
        <time>2022-06-12T10:07:59.095Z</time>
      </trkpt>
      <trkpt lat="43.21193" lon="17.79138">
        <ele>73.794625</ele>
        <time>2022-06-12T10:08:02.101Z</time>
      </trkpt>
      <trkpt lat="43.21199" lon="17.7915">
        <ele>73.999682</ele>
        <time>2022-06-12T10:08:05.108Z</time>
      </trkpt>
      <trkpt lat="43.21204" lon="17.79162">
        <ele>74.191624</ele>
        <time>2022-06-12T10:08:08.095Z</time>
      </trkpt>
      <trkpt lat="43.21208" lon="17.79172">
        <ele>74.374267</ele>
        <time>2022-06-12T10:08:11.104Z</time>
      </trkpt>
      <trkpt lat="43.21214" lon="17.79183">
        <ele>74.500992</ele>
        <time>2022-06-12T10:08:14.104Z</time>
      </trkpt>
      <trkpt lat="43.21219" lon="17.79195">
        <ele>74.623349</ele>
        <time>2022-06-12T10:08:17.107Z</time>
      </trkpt>
      <trkpt lat="43.21224" lon="17.79207">
        <ele>74.754301</ele>
        <time>2022-06-12T10:08:20.105Z</time>
      </trkpt>
      <trkpt lat="43.2123" lon="17.79219">
        <ele>74.892652</ele>
        <time>2022-06-12T10:08:23.112Z</time>
      </trkpt>
      <trkpt lat="43.21235" lon="17.79231">
        <ele>75.02428</ele>
        <time>2022-06-12T10:08:26.150Z</time>
      </trkpt>
      <trkpt lat="43.2124" lon="17.79243">
        <ele>75.155904</ele>
        <time>2022-06-12T10:08:29.108Z</time>
      </trkpt>
      <trkpt lat="43.21245" lon="17.79255">
        <ele>75.28553</ele>
        <time>2022-06-12T10:08:32.107Z</time>
      </trkpt>
      <trkpt lat="43.21251" lon="17.79266">
        <ele>75.415292</ele>
        <time>2022-06-12T10:08:35.116Z</time>
      </trkpt>
      <trkpt lat="43.21257" lon="17.79279">
        <ele>75.557617</ele>
        <time>2022-06-12T10:08:38.104Z</time>
      </trkpt>
      <trkpt lat="43.21263" lon="17.79292">
        <ele>75.693795</ele>
        <time>2022-06-12T10:08:41.103Z</time>
      </trkpt>
      <trkpt lat="43.21268" lon="17.79303">
        <ele>75.823422</ele>
        <time>2022-06-12T10:08:44.095Z</time>
      </trkpt>
      <trkpt lat="43.21273" lon="17.79315">
        <ele>75.951587</ele>
        <time>2022-06-12T10:08:47.095Z</time>
      </trkpt>
      <trkpt lat="43.21279" lon="17.79326">
        <ele>76.081349</ele>
        <time>2022-06-12T10:08:50.097Z</time>
      </trkpt>
      <trkpt lat="43.21286" lon="17.79338">
        <ele>76.218338</ele>
        <time>2022-06-12T10:08:53.108Z</time>
      </trkpt>
      <trkpt lat="43.21294" lon="17.79347">
        <ele>76.36336</ele>
        <time>2022-06-12T10:08:56.100Z</time>
      </trkpt>
      <trkpt lat="43.21305" lon="17.79355">
        <ele>76.515848</ele>
        <time>2022-06-12T10:08:59.134Z</time>
      </trkpt>
      <trkpt lat="43.21315" lon="17.79363">
        <ele>76.666354</ele>
        <time>2022-06-12T10:09:02.109Z</time>
      </trkpt>
      <trkpt lat="43.21326" lon="17.7937">
        <ele>76.404649</ele>
        <time>2022-06-12T10:09:05.136Z</time>
      </trkpt>
      <trkpt lat="43.21337" lon="17.79378">
        <ele>76.046976</ele>
        <time>2022-06-12T10:09:08.099Z</time>
      </trkpt>
      <trkpt lat="43.21347" lon="17.79387">
        <ele>75.709107</ele>
        <time>2022-06-12T10:09:11.095Z</time>
      </trkpt>
      <trkpt lat="43.21357" lon="17.79396">
        <ele>75.379213</ele>
        <time>2022-06-12T10:09:14.110Z</time>
      </trkpt>
      <trkpt lat="43.21365" lon="17.79406">
        <ele>75.078894</ele>
        <time>2022-06-12T10:09:17.101Z</time>
      </trkpt>
      <trkpt lat="43.21372" lon="17.79415">
        <ele>74.814251</ele>
        <time>2022-06-12T10:09:20.114Z</time>
      </trkpt>
      <trkpt lat="43.21379" lon="17.79424">
        <ele>74.542783</ele>
        <time>2022-06-12T10:09:23.093Z</time>
      </trkpt>
      <trkpt lat="43.21386" lon="17.79433">
        <ele>74.264485</ele>
        <time>2022-06-12T10:09:26.111Z</time>
      </trkpt>
      <trkpt lat="43.21394" lon="17.79444">
        <ele>73.972249</ele>
        <time>2022-06-12T10:09:29.092Z</time>
      </trkpt>
      <trkpt lat="43.21401" lon="17.79454">
        <ele>73.676056</ele>
        <time>2022-06-12T10:09:32.096Z</time>
      </trkpt>
      <trkpt lat="43.21409" lon="17.79465">
        <ele>73.361941</ele>
        <time>2022-06-12T10:09:35.111Z</time>
      </trkpt>
      <trkpt lat="43.21417" lon="17.79477">
        <ele>73.0347</ele>
        <time>2022-06-12T10:09:38.135Z</time>
      </trkpt>
      <trkpt lat="43.21425" lon="17.79489">
        <ele>72.709276</ele>
        <time>2022-06-12T10:09:41.099Z</time>
      </trkpt>
      <trkpt lat="43.21429" lon="17.795">
        <ele>72.455278</ele>
        <time>2022-06-12T10:09:44.130Z</time>
      </trkpt>
      <trkpt lat="43.21432" lon="17.79514">
        <ele>72.165148</ele>
        <time>2022-06-12T10:09:46.103Z</time>
      </trkpt>
      <trkpt lat="43.21439" lon="17.79526">
        <ele>71.846549</ele>
        <time>2022-06-12T10:09:48.104Z</time>
      </trkpt>
      <trkpt lat="43.21449" lon="17.79543">
        <ele>71.58161</ele>
        <time>2022-06-12T10:09:50.113Z</time>
      </trkpt>
      <trkpt lat="43.21459" lon="17.79553">
        <ele>71.457569</ele>
        <time>2022-06-12T10:09:52.105Z</time>
      </trkpt>
      <trkpt lat="43.21466" lon="17.79565">
        <ele>71.34612</ele>
        <time>2022-06-12T10:09:56.100Z</time>
      </trkpt>
      <trkpt lat="43.21469" lon="17.79577">
        <ele>71.254736</ele>
        <time>2022-06-12T10:09:59.099Z</time>
      </trkpt>
      <trkpt lat="43.21472" lon="17.79589">
        <ele>71.160831</ele>
        <time>2022-06-12T10:10:04.108Z</time>
      </trkpt>
      <trkpt lat="43.21476" lon="17.79603">
        <ele>71.056467</ele>
        <time>2022-06-12T10:10:09.107Z</time>
      </trkpt>
      <trkpt lat="43.2148" lon="17.79614">
        <ele>70.966761</ele>
        <time>2022-06-12T10:10:13.107Z</time>
      </trkpt>
      <trkpt lat="43.21483" lon="17.79627">
        <ele>70.868211</ele>
        <time>2022-06-12T10:10:17.091Z</time>
      </trkpt>
      <trkpt lat="43.21487" lon="17.7964">
        <ele>70.759944</ele>
        <time>2022-06-12T10:10:22.100Z</time>
      </trkpt>
      <trkpt lat="43.21491" lon="17.79653">
        <ele>70.665492</ele>
        <time>2022-06-12T10:10:27.092Z</time>
      </trkpt>
      <trkpt lat="43.21493" lon="17.79665">
        <ele>70.572949</ele>
        <time>2022-06-12T10:10:33.100Z</time>
      </trkpt>
      <trkpt lat="43.21496" lon="17.79679">
        <ele>70.466433</ele>
        <time>2022-06-12T10:10:38.091Z</time>
      </trkpt>
      <trkpt lat="43.21498" lon="17.79691">
        <ele>70.373562</ele>
        <time>2022-06-12T10:10:42.129Z</time>
      </trkpt>
      <trkpt lat="43.215" lon="17.79705">
        <ele>70.275006</ele>
        <time>2022-06-12T10:10:46.092Z</time>
      </trkpt>
      <trkpt lat="43.21501" lon="17.79719">
        <ele>70.170144</ele>
        <time>2022-06-12T10:10:50.106Z</time>
      </trkpt>
      <trkpt lat="43.21504" lon="17.79732">
        <ele>70.075162</ele>
        <time>2022-06-12T10:10:55.128Z</time>
      </trkpt>
      <trkpt lat="43.21502" lon="17.79747">
        <ele>69.965539</ele>
        <time>2022-06-12T10:10:59.109Z</time>
      </trkpt>
      <trkpt lat="43.21503" lon="17.79762">
        <ele>70.006349</ele>
        <time>2022-06-12T10:11:04.099Z</time>
      </trkpt>
      <trkpt lat="43.21504" lon="17.79774">
        <ele>70.362466</ele>
        <time>2022-06-12T10:11:08.088Z</time>
      </trkpt>
      <trkpt lat="43.21506" lon="17.79788">
        <ele>70.745943</ele>
        <time>2022-06-12T10:11:12.133Z</time>
      </trkpt>
      <trkpt lat="43.21511" lon="17.798">
        <ele>71.120297</ele>
        <time>2022-06-12T10:11:17.089Z</time>
      </trkpt>
      <trkpt lat="43.21512" lon="17.79813">
        <ele>71.480823</ele>
        <time>2022-06-12T10:11:21.093Z</time>
      </trkpt>
      <trkpt lat="43.21515" lon="17.79824">
        <ele>71.825716</ele>
        <time>2022-06-12T10:11:25.104Z</time>
      </trkpt>
      <trkpt lat="43.21517" lon="17.79837">
        <ele>72.174368</ele>
        <time>2022-06-12T10:11:29.104Z</time>
      </trkpt>
      <trkpt lat="43.2152" lon="17.79852">
        <ele>72.624217</ele>
        <time>2022-06-12T10:11:33.103Z</time>
      </trkpt>
      <trkpt lat="43.21525" lon="17.79864">
        <ele>73.017497</ele>
        <time>2022-06-12T10:11:37.089Z</time>
      </trkpt>
      <trkpt lat="43.21525" lon="17.79877">
        <ele>73.37322</ele>
        <time>2022-06-12T10:11:42.093Z</time>
      </trkpt>
      <trkpt lat="43.21527" lon="17.79892">
        <ele>73.802472</ele>
        <time>2022-06-12T10:11:47.099Z</time>
      </trkpt>
      <trkpt lat="43.2153" lon="17.79904">
        <ele>74.149769</ele>
        <time>2022-06-12T10:11:50.104Z</time>
      </trkpt>
      <trkpt lat="43.21532" lon="17.79919">
        <ele>74.557918</ele>
        <time>2022-06-12T10:11:54.099Z</time>
      </trkpt>
      <trkpt lat="43.21533" lon="17.79934">
        <ele>74.985574</ele>
        <time>2022-06-12T10:11:58.099Z</time>
      </trkpt>
      <trkpt lat="43.21535" lon="17.79948">
        <ele>75.392965</ele>
        <time>2022-06-12T10:12:02.097Z</time>
      </trkpt>
      <trkpt lat="43.21537" lon="17.79961">
        <ele>75.744429</ele>
        <time>2022-06-12T10:12:06.089Z</time>
      </trkpt>
      <trkpt lat="43.21537" lon="17.79977">
        <ele>76.187109</ele>
        <time>2022-06-12T10:12:11.125Z</time>
      </trkpt>
      <trkpt lat="43.21538" lon="17.7999">
        <ele>76.54487</ele>
        <time>2022-06-12T10:12:15.108Z</time>
      </trkpt>
      <trkpt lat="43.21538" lon="17.80004">
        <ele>76.943742</ele>
        <time>2022-06-12T10:12:21.092Z</time>
      </trkpt>
      <trkpt lat="43.21538" lon="17.80021">
        <ele>77.38625</ele>
        <time>2022-06-12T10:12:25.143Z</time>
      </trkpt>
      <trkpt lat="43.21537" lon="17.80034">
        <ele>77.732379</ele>
        <time>2022-06-12T10:12:29.093Z</time>
      </trkpt>
      <trkpt lat="43.21541" lon="17.80047">
        <ele>78.113611</ele>
        <time>2022-06-12T10:12:33.096Z</time>
      </trkpt>
      <trkpt lat="43.21543" lon="17.8006">
        <ele>78.466688</ele>
        <time>2022-06-12T10:12:38.104Z</time>
      </trkpt>
      <trkpt lat="43.21545" lon="17.80074">
        <ele>78.854739</ele>
        <time>2022-06-12T10:12:42.145Z</time>
      </trkpt>
      <trkpt lat="43.21547" lon="17.80087">
        <ele>79.210074</ele>
        <time>2022-06-12T10:12:45.116Z</time>
      </trkpt>
      <trkpt lat="43.21549" lon="17.80104">
        <ele>79.661174</ele>
        <time>2022-06-12T10:12:49.105Z</time>
      </trkpt>
      <trkpt lat="43.21551" lon="17.80117">
        <ele>80.003308</ele>
        <time>2022-06-12T10:12:52.098Z</time>
      </trkpt>
      <trkpt lat="43.2155" lon="17.80133">
        <ele>80.425872</ele>
        <time>2022-06-12T10:12:56.101Z</time>
      </trkpt>
      <trkpt lat="43.21551" lon="17.80148">
        <ele>80.840667</ele>
        <time>2022-06-12T10:13:00.112Z</time>
      </trkpt>
      <trkpt lat="43.21551" lon="17.80163">
        <ele>81.217356</ele>
        <time>2022-06-12T10:13:04.090Z</time>
      </trkpt>
      <trkpt lat="43.2155" lon="17.80176">
        <ele>81.571276</ele>
        <time>2022-06-12T10:13:08.099Z</time>
      </trkpt>
      <trkpt lat="43.21551" lon="17.80192">
        <ele>81.985404</ele>
        <time>2022-06-12T10:13:13.096Z</time>
      </trkpt>
      <trkpt lat="43.21549" lon="17.80208">
        <ele>82.41383</ele>
        <time>2022-06-12T10:13:17.134Z</time>
      </trkpt>
      <trkpt lat="43.21548" lon="17.80222">
        <ele>82.7922</ele>
        <time>2022-06-12T10:13:21.110Z</time>
      </trkpt>
      <trkpt lat="43.21545" lon="17.80237">
        <ele>83.207614</ele>
        <time>2022-06-12T10:13:25.100Z</time>
      </trkpt>
      <trkpt lat="43.21543" lon="17.8025">
        <ele>83.178297</ele>
        <time>2022-06-12T10:13:29.102Z</time>
      </trkpt>
      <trkpt lat="43.21544" lon="17.80264">
        <ele>83.031777</ele>
        <time>2022-06-12T10:13:34.111Z</time>
      </trkpt>
      <trkpt lat="43.21545" lon="17.80279">
        <ele>82.886454</ele>
        <time>2022-06-12T10:13:40.097Z</time>
      </trkpt>
      <trkpt lat="43.21544" lon="17.80294">
        <ele>82.735139</ele>
        <time>2022-06-12T10:13:45.105Z</time>
      </trkpt>
      <trkpt lat="43.21543" lon="17.80308">
        <ele>82.583189</ele>
        <time>2022-06-12T10:13:50.094Z</time>
      </trkpt>
      <trkpt lat="43.21543" lon="17.80322">
        <ele>82.441925</ele>
        <time>2022-06-12T10:13:56.091Z</time>
      </trkpt>
      <trkpt lat="43.21544" lon="17.80336">
        <ele>82.302635</ele>
        <time>2022-06-12T10:14:01.122Z</time>
      </trkpt>
      <trkpt lat="43.21544" lon="17.80348">
        <ele>82.176644</ele>
        <time>2022-06-12T10:14:05.172Z</time>
      </trkpt>
      <trkpt lat="43.21547" lon="17.80362">
        <ele>82.030119</ele>
        <time>2022-06-12T10:14:09.107Z</time>
      </trkpt>
      <trkpt lat="43.21552" lon="17.80375">
        <ele>81.889752</ele>
        <time>2022-06-12T10:14:13.104Z</time>
      </trkpt>
      <trkpt lat="43.21552" lon="17.80387">
        <ele>81.759761</ele>
        <time>2022-06-12T10:14:17.111Z</time>
      </trkpt>
      <trkpt lat="43.21554" lon="17.80402">
        <ele>81.604102</ele>
        <time>2022-06-12T10:14:21.099Z</time>
      </trkpt>
      <trkpt lat="43.21556" lon="17.80416">
        <ele>81.467731</ele>
        <time>2022-06-12T10:14:25.116Z</time>
      </trkpt>
      <trkpt lat="43.21557" lon="17.80428">
        <ele>81.342523</ele>
        <time>2022-06-12T10:14:29.123Z</time>
      </trkpt>
      <trkpt lat="43.21558" lon="17.80442">
        <ele>81.197993</ele>
        <time>2022-06-12T10:14:33.096Z</time>
      </trkpt>
      <trkpt lat="43.21559" lon="17.80455">
        <ele>81.065932</ele>
        <time>2022-06-12T10:14:37.099Z</time>
      </trkpt>
      <trkpt lat="43.2156" lon="17.80469">
        <ele>80.921402</ele>
        <time>2022-06-12T10:14:41.132Z</time>
      </trkpt>
      <trkpt lat="43.21559" lon="17.80482">
        <ele>80.789028</ele>
        <time>2022-06-12T10:14:45.108Z</time>
      </trkpt>
      <trkpt lat="43.2156" lon="17.80494">
        <ele>80.727906</ele>
        <time>2022-06-12T10:14:49.103Z</time>
      </trkpt>
      <trkpt lat="43.2156" lon="17.80507">
        <ele>80.671815</ele>
        <time>2022-06-12T10:14:53.107Z</time>
      </trkpt>
      <trkpt lat="43.21561" lon="17.8052">
        <ele>80.615692</ele>
        <time>2022-06-12T10:14:57.109Z</time>
      </trkpt>
      <trkpt lat="43.21562" lon="17.80533">
        <ele>80.555931</ele>
        <time>2022-06-12T10:15:01.098Z</time>
      </trkpt>
      <trkpt lat="43.21566" lon="17.80545">
        <ele>80.496787</ele>
        <time>2022-06-12T10:15:06.109Z</time>
      </trkpt>
      <trkpt lat="43.21568" lon="17.80561">
        <ele>80.424308</ele>
        <time>2022-06-12T10:15:10.108Z</time>
      </trkpt>
      <trkpt lat="43.21572" lon="17.80573">
        <ele>80.366633</ele>
        <time>2022-06-12T10:15:14.103Z</time>
      </trkpt>
      <trkpt lat="43.21573" lon="17.80585">
        <ele>80.311657</ele>
        <time>2022-06-12T10:15:18.100Z</time>
      </trkpt>
      <trkpt lat="43.21575" lon="17.80599">
        <ele>80.24951</ele>
        <time>2022-06-12T10:15:22.112Z</time>
      </trkpt>
      <trkpt lat="43.21577" lon="17.80611">
        <ele>80.192907</ele>
        <time>2022-06-12T10:15:26.104Z</time>
      </trkpt>
      <trkpt lat="43.21578" lon="17.80624">
        <ele>80.134718</ele>
        <time>2022-06-12T10:15:30.101Z</time>
      </trkpt>
      <trkpt lat="43.2158" lon="17.80639">
        <ele>80.068789</ele>
        <time>2022-06-12T10:15:36.106Z</time>
      </trkpt>
      <trkpt lat="43.21582" lon="17.80652">
        <ele>80.009997</ele>
        <time>2022-06-12T10:15:39.099Z</time>
      </trkpt>
      <trkpt lat="43.21583" lon="17.80664">
        <ele>79.955021</ele>
        <time>2022-06-12T10:15:42.088Z</time>
      </trkpt>
      <trkpt lat="43.21584" lon="17.80679">
        <ele>79.888415</ele>
        <time>2022-06-12T10:15:46.103Z</time>
      </trkpt>
      <trkpt lat="43.21584" lon="17.80693">
        <ele>79.826096</ele>
        <time>2022-06-12T10:15:50.182Z</time>
      </trkpt>
      <trkpt lat="43.21585" lon="17.80707">
        <ele>79.762415</ele>
        <time>2022-06-12T10:15:54.097Z</time>
      </trkpt>
      <trkpt lat="43.21586" lon="17.8072">
        <ele>79.703275</ele>
        <time>2022-06-12T10:15:58.089Z</time>
      </trkpt>
      <trkpt lat="43.21587" lon="17.80735">
        <ele>79.666517</ele>
        <time>2022-06-12T10:16:02.115Z</time>
      </trkpt>
      <trkpt lat="43.21587" lon="17.80751">
        <ele>79.644816</ele>
        <time>2022-06-12T10:16:06.092Z</time>
      </trkpt>
      <trkpt lat="43.21588" lon="17.80765">
        <ele>79.624086</ele>
        <time>2022-06-12T10:16:10.104Z</time>
      </trkpt>
      <trkpt lat="43.21588" lon="17.80779">
        <ele>79.605741</ele>
        <time>2022-06-12T10:16:14.103Z</time>
      </trkpt>
      <trkpt lat="43.21587" lon="17.80791">
        <ele>79.588445</ele>
        <time>2022-06-12T10:16:18.103Z</time>
      </trkpt>
      <trkpt lat="43.21586" lon="17.80806">
        <ele>79.566968</ele>
        <time>2022-06-12T10:16:23.107Z</time>
      </trkpt>
      <trkpt lat="43.21585" lon="17.8082">
        <ele>79.546868</ele>
        <time>2022-06-12T10:16:29.100Z</time>
      </trkpt>
      <trkpt lat="43.21586" lon="17.80835">
        <ele>79.526572</ele>
        <time>2022-06-12T10:16:34.097Z</time>
      </trkpt>
      <trkpt lat="43.21587" lon="17.80848">
        <ele>79.50849</ele>
        <time>2022-06-12T10:16:39.092Z</time>
      </trkpt>
      <trkpt lat="43.21591" lon="17.80863">
        <ele>79.486207</ele>
        <time>2022-06-12T10:16:45.107Z</time>
      </trkpt>
      <trkpt lat="43.21592" lon="17.80877">
        <ele>79.465854</ele>
        <time>2022-06-12T10:16:50.103Z</time>
      </trkpt>
      <trkpt lat="43.21594" lon="17.80891">
        <ele>79.446747</ele>
        <time>2022-06-12T10:16:54.107Z</time>
      </trkpt>
      <trkpt lat="43.21597" lon="17.80902">
        <ele>79.428922</ele>
        <time>2022-06-12T10:16:58.110Z</time>
      </trkpt>
      <trkpt lat="43.21601" lon="17.80917">
        <ele>79.407357</ele>
        <time>2022-06-12T10:17:03.095Z</time>
      </trkpt>
      <trkpt lat="43.21605" lon="17.80928">
        <ele>79.390049</ele>
        <time>2022-06-12T10:17:07.091Z</time>
      </trkpt>
      <trkpt lat="43.21607" lon="17.80943">
        <ele>79.368875</ele>
        <time>2022-06-12T10:17:12.105Z</time>
      </trkpt>
      <trkpt lat="43.2161" lon="17.80955">
        <ele>79.351438</ele>
        <time>2022-06-12T10:17:16.109Z</time>
      </trkpt>
      <trkpt lat="43.21611" lon="17.80968">
        <ele>79.328714</ele>
        <time>2022-06-12T10:17:20.113Z</time>
      </trkpt>
      <trkpt lat="43.21614" lon="17.8098">
        <ele>79.268176</ele>
        <time>2022-06-12T10:17:24.112Z</time>
      </trkpt>
      <trkpt lat="43.21619" lon="17.80992">
        <ele>79.202611</ele>
        <time>2022-06-12T10:17:29.101Z</time>
      </trkpt>
      <trkpt lat="43.2162" lon="17.81008">
        <ele>79.124993</ele>
        <time>2022-06-12T10:17:36.126Z</time>
      </trkpt>
      <trkpt lat="43.21625" lon="17.81022">
        <ele>79.055379</ele>
        <time>2022-06-12T10:17:39.097Z</time>
      </trkpt>
      <trkpt lat="43.21628" lon="17.81037">
        <ele>78.979803</ele>
        <time>2022-06-12T10:17:45.141Z</time>
      </trkpt>
      <trkpt lat="43.21633" lon="17.81051">
        <ele>78.905933</ele>
        <time>2022-06-12T10:17:49.099Z</time>
      </trkpt>
      <trkpt lat="43.21633" lon="17.81064">
        <ele>78.843855</ele>
        <time>2022-06-12T10:17:53.114Z</time>
      </trkpt>
      <trkpt lat="43.21639" lon="17.81075">
        <ele>78.780623</ele>
        <time>2022-06-12T10:17:57.096Z</time>
      </trkpt>
      <trkpt lat="43.21639" lon="17.81088">
        <ele>78.719398</ele>
        <time>2022-06-12T10:18:01.107Z</time>
      </trkpt>
      <trkpt lat="43.2164" lon="17.81102">
        <ele>78.649936</ele>
        <time>2022-06-12T10:18:05.101Z</time>
      </trkpt>
      <trkpt lat="43.21643" lon="17.81117">
        <ele>78.578591</ele>
        <time>2022-06-12T10:18:10.099Z</time>
      </trkpt>
      <trkpt lat="43.21643" lon="17.8113">
        <ele>78.516069</ele>
        <time>2022-06-12T10:18:14.102Z</time>
      </trkpt>
      <trkpt lat="43.21645" lon="17.81142">
        <ele>78.455916</ele>
        <time>2022-06-12T10:18:17.092Z</time>
      </trkpt>
      <trkpt lat="43.21645" lon="17.81159">
        <ele>78.376792</ele>
        <time>2022-06-12T10:18:22.106Z</time>
      </trkpt>
      <trkpt lat="43.21645" lon="17.81172">
        <ele>78.313294</ele>
        <time>2022-06-12T10:18:26.107Z</time>
      </trkpt>
      <trkpt lat="43.21649" lon="17.81187">
        <ele>78.240079</ele>
        <time>2022-06-12T10:18:31.100Z</time>
      </trkpt>
      <trkpt lat="43.2165" lon="17.812">
        <ele>78.178286</ele>
        <time>2022-06-12T10:18:35.128Z</time>
      </trkpt>
      <trkpt lat="43.21652" lon="17.81212">
        <ele>78.18017</ele>
        <time>2022-06-12T10:18:38.096Z</time>
      </trkpt>
      <trkpt lat="43.21653" lon="17.81226">
        <ele>78.200845</ele>
        <time>2022-06-12T10:18:42.105Z</time>
      </trkpt>
      <trkpt lat="43.21654" lon="17.81239">
        <ele>78.220233</ele>
        <time>2022-06-12T10:18:46.103Z</time>
      </trkpt>
      <trkpt lat="43.21657" lon="17.81254">
        <ele>78.243073</ele>
        <time>2022-06-12T10:18:51.110Z</time>
      </trkpt>
      <trkpt lat="43.21658" lon="17.81268">
        <ele>78.263602</ele>
        <time>2022-06-12T10:18:55.108Z</time>
      </trkpt>
      <trkpt lat="43.2166" lon="17.81283">
        <ele>78.285439</ele>
        <time>2022-06-12T10:18:59.093Z</time>
      </trkpt>
      <trkpt lat="43.21663" lon="17.81296">
        <ele>78.305199</ele>
        <time>2022-06-12T10:19:03.101Z</time>
      </trkpt>
      <trkpt lat="43.21664" lon="17.81309">
        <ele>78.324769</ele>
        <time>2022-06-12T10:19:07.095Z</time>
      </trkpt>
      <trkpt lat="43.21665" lon="17.81323">
        <ele>78.345649</ele>
        <time>2022-06-12T10:19:11.094Z</time>
      </trkpt>
      <trkpt lat="43.21666" lon="17.81338">
        <ele>78.367196</ele>
        <time>2022-06-12T10:19:15.106Z</time>
      </trkpt>
      <trkpt lat="43.21668" lon="17.81351">
        <ele>78.38705</ele>
        <time>2022-06-12T10:19:19.097Z</time>
      </trkpt>
      <trkpt lat="43.21669" lon="17.81365">
        <ele>78.406998</ele>
        <time>2022-06-12T10:19:23.092Z</time>
      </trkpt>
      <trkpt lat="43.21672" lon="17.81377">
        <ele>78.426416</ele>
        <time>2022-06-12T10:19:27.093Z</time>
      </trkpt>
      <trkpt lat="43.21674" lon="17.81393">
        <ele>78.450196</ele>
        <time>2022-06-12T10:19:32.093Z</time>
      </trkpt>
      <trkpt lat="43.21677" lon="17.81405">
        <ele>78.468454</ele>
        <time>2022-06-12T10:19:36.136Z</time>
      </trkpt>
      <trkpt lat="43.21678" lon="17.81419">
        <ele>78.489541</ele>
        <time>2022-06-12T10:19:41.094Z</time>
      </trkpt>
      <trkpt lat="43.21678" lon="17.81434">
        <ele>78.511518</ele>
        <time>2022-06-12T10:19:46.109Z</time>
      </trkpt>
      <trkpt lat="43.21679" lon="17.81447">
        <ele>78.552019</ele>
        <time>2022-06-12T10:19:50.103Z</time>
      </trkpt>
      <trkpt lat="43.21681" lon="17.81462">
        <ele>78.779762</ele>
        <time>2022-06-12T10:19:54.102Z</time>
      </trkpt>
      <trkpt lat="43.21682" lon="17.81477">
        <ele>79.002451</ele>
        <time>2022-06-12T10:19:58.095Z</time>
      </trkpt>
      <trkpt lat="43.21684" lon="17.81491">
        <ele>79.214616</ele>
        <time>2022-06-12T10:20:02.092Z</time>
      </trkpt>
      <trkpt lat="43.21683" lon="17.81504">
        <ele>79.421128</ele>
        <time>2022-06-12T10:20:07.099Z</time>
      </trkpt>
      <trkpt lat="43.21686" lon="17.81518">
        <ele>79.624189</ele>
        <time>2022-06-12T10:20:11.128Z</time>
      </trkpt>
      <trkpt lat="43.21688" lon="17.8153">
        <ele>79.810368</ele>
        <time>2022-06-12T10:20:15.117Z</time>
      </trkpt>
      <trkpt lat="43.2169" lon="17.81542">
        <ele>80.004767</ele>
        <time>2022-06-12T10:20:19.095Z</time>
      </trkpt>
      <trkpt lat="43.21691" lon="17.81556">
        <ele>80.204138</ele>
        <time>2022-06-12T10:20:23.125Z</time>
      </trkpt>
      <trkpt lat="43.21692" lon="17.81569">
        <ele>80.409473</ele>
        <time>2022-06-12T10:20:27.141Z</time>
      </trkpt>
      <trkpt lat="43.21693" lon="17.81584">
        <ele>80.626505</ele>
        <time>2022-06-12T10:20:31.128Z</time>
      </trkpt>
      <trkpt lat="43.21694" lon="17.81598">
        <ele>80.841808</ele>
        <time>2022-06-12T10:20:35.111Z</time>
      </trkpt>
      <trkpt lat="43.21695" lon="17.81614">
        <ele>81.086236</ele>
        <time>2022-06-12T10:20:41.117Z</time>
      </trkpt>
      <trkpt lat="43.21699" lon="17.81627">
        <ele>81.296443</ele>
        <time>2022-06-12T10:20:45.144Z</time>
      </trkpt>
      <trkpt lat="43.21699" lon="17.81642">
        <ele>81.51941</ele>
        <time>2022-06-12T10:20:51.130Z</time>
      </trkpt>
      <trkpt lat="43.21702" lon="17.81654">
        <ele>81.709255</ele>
        <time>2022-06-12T10:20:54.089Z</time>
      </trkpt>
      <trkpt lat="43.21702" lon="17.81669">
        <ele>81.930726</ele>
        <time>2022-06-12T10:20:59.101Z</time>
      </trkpt>
      <trkpt lat="43.21703" lon="17.81682">
        <ele>82.123775</ele>
        <time>2022-06-12T10:21:04.101Z</time>
      </trkpt>
      <trkpt lat="43.21706" lon="17.81696">
        <ele>81.989468</ele>
        <time>2022-06-12T10:21:12.102Z</time>
      </trkpt>
      <trkpt lat="43.21706" lon="17.81713">
        <ele>81.554247</ele>
        <time>2022-06-12T10:21:17.088Z</time>
      </trkpt>
      <trkpt lat="43.21708" lon="17.81726">
        <ele>81.209282</ele>
        <time>2022-06-12T10:21:21.093Z</time>
      </trkpt>
      <trkpt lat="43.21713" lon="17.81756">
        <ele>80.383538</ele>
        <time>2022-06-12T10:21:28.111Z</time>
      </trkpt>
      <trkpt lat="43.21716" lon="17.81772">
        <ele>79.942871</ele>
        <time>2022-06-12T10:21:30.139Z</time>
      </trkpt>
      <trkpt lat="43.21719" lon="17.81784">
        <ele>79.612837</ele>
        <time>2022-06-12T10:21:34.104Z</time>
      </trkpt>
      <trkpt lat="43.21721" lon="17.81797">
        <ele>79.2798</ele>
        <time>2022-06-12T10:21:38.100Z</time>
      </trkpt>
      <trkpt lat="43.21723" lon="17.81809">
        <ele>78.950144</ele>
        <time>2022-06-12T10:21:42.104Z</time>
      </trkpt>
      <trkpt lat="43.21726" lon="17.81821">
        <ele>78.608326</ele>
        <time>2022-06-12T10:21:46.108Z</time>
      </trkpt>
      <trkpt lat="43.21728" lon="17.81834">
        <ele>78.258062</ele>
        <time>2022-06-12T10:21:50.102Z</time>
      </trkpt>
      <trkpt lat="43.21731" lon="17.81847">
        <ele>77.903225</ele>
        <time>2022-06-12T10:21:54.107Z</time>
      </trkpt>
      <trkpt lat="43.21734" lon="17.81859">
        <ele>77.564929</ele>
        <time>2022-06-12T10:21:59.093Z</time>
      </trkpt>
      <trkpt lat="43.21736" lon="17.81872">
        <ele>77.211393</ele>
        <time>2022-06-12T10:22:03.090Z</time>
      </trkpt>
      <trkpt lat="43.21739" lon="17.81886">
        <ele>76.834278</ele>
        <time>2022-06-12T10:22:07.092Z</time>
      </trkpt>
      <trkpt lat="43.21743" lon="17.81899">
        <ele>76.468097</ele>
        <time>2022-06-12T10:22:11.101Z</time>
      </trkpt>
      <trkpt lat="43.21747" lon="17.81911">
        <ele>76.110167</ele>
        <time>2022-06-12T10:22:15.109Z</time>
      </trkpt>
      <trkpt lat="43.21749" lon="17.81924">
        <ele>75.766844</ele>
        <time>2022-06-12T10:22:20.136Z</time>
      </trkpt>
      <trkpt lat="43.21753" lon="17.81938">
        <ele>75.793366</ele>
        <time>2022-06-12T10:22:24.097Z</time>
      </trkpt>
      <trkpt lat="43.21758" lon="17.81949">
        <ele>75.867352</ele>
        <time>2022-06-12T10:22:28.106Z</time>
      </trkpt>
      <trkpt lat="43.21761" lon="17.8196">
        <ele>75.941364</ele>
        <time>2022-06-12T10:22:32.098Z</time>
      </trkpt>
      <trkpt lat="43.21766" lon="17.81974">
        <ele>76.03149</ele>
        <time>2022-06-12T10:22:37.128Z</time>
      </trkpt>
      <trkpt lat="43.2177" lon="17.81989">
        <ele>76.123488</ele>
        <time>2022-06-12T10:22:42.114Z</time>
      </trkpt>
      <trkpt lat="43.21774" lon="17.82003">
        <ele>76.215179</ele>
        <time>2022-06-12T10:22:47.109Z</time>
      </trkpt>
      <trkpt lat="43.21777" lon="17.82015">
        <ele>76.291574</ele>
        <time>2022-06-12T10:22:51.101Z</time>
      </trkpt>
      <trkpt lat="43.21782" lon="17.8203">
        <ele>76.389223</ele>
        <time>2022-06-12T10:22:57.093Z</time>
      </trkpt>
      <trkpt lat="43.21783" lon="17.82046">
        <ele>76.482323</ele>
        <time>2022-06-12T10:23:00.108Z</time>
      </trkpt>
      <trkpt lat="43.21787" lon="17.82057">
        <ele>76.558105</ele>
        <time>2022-06-12T10:23:03.093Z</time>
      </trkpt>
      <trkpt lat="43.21792" lon="17.8207">
        <ele>76.643344</ele>
        <time>2022-06-12T10:23:07.104Z</time>
      </trkpt>
      <trkpt lat="43.21797" lon="17.82084">
        <ele>76.736434</ele>
        <time>2022-06-12T10:23:11.109Z</time>
      </trkpt>
      <trkpt lat="43.218" lon="17.82099">
        <ele>76.824136</ele>
        <time>2022-06-12T10:23:15.121Z</time>
      </trkpt>
      <trkpt lat="43.21803" lon="17.82112">
        <ele>76.905895</ele>
        <time>2022-06-12T10:23:19.118Z</time>
      </trkpt>
      <trkpt lat="43.21806" lon="17.82126">
        <ele>76.995029</ele>
        <time>2022-06-12T10:23:23.109Z</time>
      </trkpt>
      <trkpt lat="43.21812" lon="17.82136">
        <ele>77.07485</ele>
        <time>2022-06-12T10:23:27.121Z</time>
      </trkpt>
      <trkpt lat="43.21818" lon="17.82148">
        <ele>77.15839</ele>
        <time>2022-06-12T10:23:31.099Z</time>
      </trkpt>
      <trkpt lat="43.21822" lon="17.82163">
        <ele>77.166487</ele>
        <time>2022-06-12T10:23:35.110Z</time>
      </trkpt>
      <trkpt lat="43.21826" lon="17.82176">
        <ele>77.148197</ele>
        <time>2022-06-12T10:23:39.145Z</time>
      </trkpt>
      <trkpt lat="43.21831" lon="17.82187">
        <ele>77.131723</ele>
        <time>2022-06-12T10:23:42.096Z</time>
      </trkpt>
      <trkpt lat="43.2184" lon="17.82199">
        <ele>77.109809</ele>
        <time>2022-06-12T10:23:47.115Z</time>
      </trkpt>
      <trkpt lat="43.21846" lon="17.82212">
        <ele>77.090028</ele>
        <time>2022-06-12T10:23:51.100Z</time>
      </trkpt>
      <trkpt lat="43.21854" lon="17.82224">
        <ele>77.070185</ele>
        <time>2022-06-12T10:23:55.153Z</time>
      </trkpt>
      <trkpt lat="43.21861" lon="17.82233">
        <ele>77.053302</ele>
        <time>2022-06-12T10:23:58.112Z</time>
      </trkpt>
      <trkpt lat="43.21867" lon="17.82246">
        <ele>77.033317</ele>
        <time>2022-06-12T10:24:02.104Z</time>
      </trkpt>
      <trkpt lat="43.21876" lon="17.82258">
        <ele>77.012413</ele>
        <time>2022-06-12T10:24:06.104Z</time>
      </trkpt>
      <trkpt lat="43.21884" lon="17.82267">
        <ele>76.994074</ele>
        <time>2022-06-12T10:24:09.108Z</time>
      </trkpt>
      <trkpt lat="43.21893" lon="17.82277">
        <ele>76.974136</ele>
        <time>2022-06-12T10:24:12.143Z</time>
      </trkpt>
      <trkpt lat="43.21901" lon="17.82286">
        <ele>76.954905</ele>
        <time>2022-06-12T10:24:15.113Z</time>
      </trkpt>
      <trkpt lat="43.2191" lon="17.82294">
        <ele>76.936138</ele>
        <time>2022-06-12T10:24:18.100Z</time>
      </trkpt>
      <trkpt lat="43.21919" lon="17.82301">
        <ele>76.918258</ele>
        <time>2022-06-12T10:24:21.105Z</time>
      </trkpt>
      <trkpt lat="43.21928" lon="17.82308">
        <ele>76.90073</ele>
        <time>2022-06-12T10:24:24.116Z</time>
      </trkpt>
      <trkpt lat="43.21936" lon="17.82316">
        <ele>76.882336</ele>
        <time>2022-06-12T10:24:27.100Z</time>
      </trkpt>
      <trkpt lat="43.21947" lon="17.82323">
        <ele>76.860126</ele>
        <time>2022-06-12T10:24:30.099Z</time>
      </trkpt>
      <trkpt lat="43.21957" lon="17.82329">
        <ele>76.831229</ele>
        <time>2022-06-12T10:24:33.104Z</time>
      </trkpt>
      <trkpt lat="43.21967" lon="17.82334">
        <ele>76.804018</ele>
        <time>2022-06-12T10:24:36.160Z</time>
      </trkpt>
      <trkpt lat="43.21977" lon="17.82338">
        <ele>76.77671</ele>
        <time>2022-06-12T10:24:39.095Z</time>
      </trkpt>
      <trkpt lat="43.21987" lon="17.82342">
        <ele>76.748353</ele>
        <time>2022-06-12T10:24:42.088Z</time>
      </trkpt>
      <trkpt lat="43.21997" lon="17.82345">
        <ele>76.72236</ele>
        <time>2022-06-12T10:24:45.112Z</time>
      </trkpt>
      <trkpt lat="43.22007" lon="17.82349">
        <ele>76.695246</ele>
        <time>2022-06-12T10:24:48.099Z</time>
      </trkpt>
      <trkpt lat="43.22017" lon="17.82352">
        <ele>76.668603</ele>
        <time>2022-06-12T10:24:51.114Z</time>
      </trkpt>
      <trkpt lat="43.22028" lon="17.82355">
        <ele>76.640796</ele>
        <time>2022-06-12T10:24:54.093Z</time>
      </trkpt>
      <trkpt lat="43.22037" lon="17.82358">
        <ele>76.614694</ele>
        <time>2022-06-12T10:24:57.094Z</time>
      </trkpt>
      <trkpt lat="43.22047" lon="17.82363">
        <ele>76.589242</ele>
        <time>2022-06-12T10:25:00.112Z</time>
      </trkpt>
      <trkpt lat="43.22057" lon="17.82367">
        <ele>76.562288</ele>
        <time>2022-06-12T10:25:03.132Z</time>
      </trkpt>
      <trkpt lat="43.22066" lon="17.8237">
        <ele>76.538086</ele>
        <time>2022-06-12T10:25:06.088Z</time>
      </trkpt>
      <trkpt lat="43.22075" lon="17.82375">
        <ele>76.511352</ele>
        <time>2022-06-12T10:25:09.093Z</time>
      </trkpt>
      <trkpt lat="43.22085" lon="17.82379">
        <ele>76.48519</ele>
        <time>2022-06-12T10:25:12.113Z</time>
      </trkpt>
      <trkpt lat="43.22094" lon="17.82382">
        <ele>76.46108</ele>
        <time>2022-06-12T10:25:15.112Z</time>
      </trkpt>
      <trkpt lat="43.22103" lon="17.82385">
        <ele>76.437526</ele>
        <time>2022-06-12T10:25:18.111Z</time>
      </trkpt>
      <trkpt lat="43.22113" lon="17.82389">
        <ele>76.4111</ele>
        <time>2022-06-12T10:25:21.102Z</time>
      </trkpt>
      <trkpt lat="43.22122" lon="17.82393">
        <ele>76.413837</ele>
        <time>2022-06-12T10:25:24.108Z</time>
      </trkpt>
      <trkpt lat="43.22131" lon="17.82397">
        <ele>76.438385</ele>
        <time>2022-06-12T10:25:27.092Z</time>
      </trkpt>
      <trkpt lat="43.22141" lon="17.82402">
        <ele>76.46382</ele>
        <time>2022-06-12T10:25:30.096Z</time>
      </trkpt>
      <trkpt lat="43.22151" lon="17.82405">
        <ele>76.487468</ele>
        <time>2022-06-12T10:25:33.092Z</time>
      </trkpt>
      <trkpt lat="43.2216" lon="17.82408">
        <ele>76.51075</ele>
        <time>2022-06-12T10:25:36.095Z</time>
      </trkpt>
      <trkpt lat="43.22172" lon="17.82412">
        <ele>76.539722</ele>
        <time>2022-06-12T10:25:40.094Z</time>
      </trkpt>
      <trkpt lat="43.22181" lon="17.82413">
        <ele>76.562261</ele>
        <time>2022-06-12T10:25:43.132Z</time>
      </trkpt>
      <trkpt lat="43.2219" lon="17.82415">
        <ele>76.58476</ele>
        <time>2022-06-12T10:25:46.112Z</time>
      </trkpt>
      <trkpt lat="43.22199" lon="17.82415">
        <ele>76.607895</ele>
        <time>2022-06-12T10:25:49.100Z</time>
      </trkpt>
      <trkpt lat="43.22209" lon="17.82415">
        <ele>76.630766</ele>
        <time>2022-06-12T10:25:52.106Z</time>
      </trkpt>
      <trkpt lat="43.2222" lon="17.82414">
        <ele>76.658367</ele>
        <time>2022-06-12T10:25:56.094Z</time>
      </trkpt>
      <trkpt lat="43.22229" lon="17.82413">
        <ele>76.68055</ele>
        <time>2022-06-12T10:25:59.101Z</time>
      </trkpt>
      <trkpt lat="43.2224" lon="17.82412">
        <ele>76.707395</ele>
        <time>2022-06-12T10:26:03.093Z</time>
      </trkpt>
      <trkpt lat="43.2225" lon="17.8241">
        <ele>76.730345</ele>
        <time>2022-06-12T10:26:06.115Z</time>
      </trkpt>
      <trkpt lat="43.22259" lon="17.82409">
        <ele>76.753675</ele>
        <time>2022-06-12T10:26:09.107Z</time>
      </trkpt>
      <trkpt lat="43.22269" lon="17.82406">
        <ele>76.778073</ele>
        <time>2022-06-12T10:26:12.113Z</time>
      </trkpt>
      <trkpt lat="43.22279" lon="17.82405">
        <ele>76.801979</ele>
        <time>2022-06-12T10:26:15.107Z</time>
      </trkpt>
      <trkpt lat="43.22288" lon="17.82404">
        <ele>76.825044</ele>
        <time>2022-06-12T10:26:18.085Z</time>
      </trkpt>
      <trkpt lat="43.22298" lon="17.82403">
        <ele>76.912812</ele>
        <time>2022-06-12T10:26:21.109Z</time>
      </trkpt>
      <trkpt lat="43.22308" lon="17.82401">
        <ele>77.087507</ele>
        <time>2022-06-12T10:26:24.104Z</time>
      </trkpt>
      <trkpt lat="43.22319" lon="17.82399">
        <ele>77.260541</ele>
        <time>2022-06-12T10:26:27.110Z</time>
      </trkpt>
      <trkpt lat="43.22329" lon="17.824">
        <ele>77.44392</ele>
        <time>2022-06-12T10:26:31.104Z</time>
      </trkpt>
      <trkpt lat="43.22339" lon="17.82402">
        <ele>77.609443</ele>
        <time>2022-06-12T10:26:34.107Z</time>
      </trkpt>
      <trkpt lat="43.22349" lon="17.82404">
        <ele>77.772329</ele>
        <time>2022-06-12T10:26:37.095Z</time>
      </trkpt>
      <trkpt lat="43.22359" lon="17.82406">
        <ele>77.953517</ele>
        <time>2022-06-12T10:26:40.114Z</time>
      </trkpt>
      <trkpt lat="43.22371" lon="17.82406">
        <ele>78.144966</ele>
        <time>2022-06-12T10:26:43.107Z</time>
      </trkpt>
      <trkpt lat="43.22383" lon="17.82405">
        <ele>78.345183</ele>
        <time>2022-06-12T10:26:46.143Z</time>
      </trkpt>
      <trkpt lat="43.22395" lon="17.82402">
        <ele>78.547172</ele>
        <time>2022-06-12T10:26:49.093Z</time>
      </trkpt>
      <trkpt lat="43.22406" lon="17.82401">
        <ele>78.73593</ele>
        <time>2022-06-12T10:26:52.115Z</time>
      </trkpt>
      <trkpt lat="43.22417" lon="17.824">
        <ele>78.926173</ele>
        <time>2022-06-12T10:26:55.110Z</time>
      </trkpt>
      <trkpt lat="43.22427" lon="17.824">
        <ele>79.090863</ele>
        <time>2022-06-12T10:26:58.095Z</time>
      </trkpt>
      <trkpt lat="43.22437" lon="17.824">
        <ele>79.255807</ele>
        <time>2022-06-12T10:27:00.112Z</time>
      </trkpt>
      <trkpt lat="43.22446" lon="17.82398">
        <ele>79.413532</ele>
        <time>2022-06-12T10:27:02.098Z</time>
      </trkpt>
      <trkpt lat="43.22458" lon="17.82396">
        <ele>79.619727</ele>
        <time>2022-06-12T10:27:05.110Z</time>
      </trkpt>
      <trkpt lat="43.2247" lon="17.82395">
        <ele>79.82355</ele>
        <time>2022-06-12T10:27:08.103Z</time>
      </trkpt>
      <trkpt lat="43.22482" lon="17.82392">
        <ele>79.672982</ele>
        <time>2022-06-12T10:27:11.086Z</time>
      </trkpt>
      <trkpt lat="43.22494" lon="17.8239">
        <ele>79.44134</ele>
        <time>2022-06-12T10:27:14.107Z</time>
      </trkpt>
      <trkpt lat="43.22506" lon="17.82386">
        <ele>79.209602</ele>
        <time>2022-06-12T10:27:17.107Z</time>
      </trkpt>
      <trkpt lat="43.22518" lon="17.82386">
        <ele>78.98745</ele>
        <time>2022-06-12T10:27:20.101Z</time>
      </trkpt>
      <trkpt lat="43.22531" lon="17.82383">
        <ele>78.734371</ele>
        <time>2022-06-12T10:27:23.103Z</time>
      </trkpt>
      <trkpt lat="43.22543" lon="17.8238">
        <ele>78.505258</ele>
        <time>2022-06-12T10:27:26.102Z</time>
      </trkpt>
      <trkpt lat="43.22555" lon="17.82377">
        <ele>78.270276</ele>
        <time>2022-06-12T10:27:29.147Z</time>
      </trkpt>
      <trkpt lat="43.22567" lon="17.82373">
        <ele>78.043018</ele>
        <time>2022-06-12T10:27:32.101Z</time>
      </trkpt>
      <trkpt lat="43.22579" lon="17.82371">
        <ele>77.815984</ele>
        <time>2022-06-12T10:27:35.112Z</time>
      </trkpt>
      <trkpt lat="43.2259" lon="17.82367">
        <ele>77.582795</ele>
        <time>2022-06-12T10:27:38.090Z</time>
      </trkpt>
      <trkpt lat="43.22599" lon="17.82364">
        <ele>77.412246</ele>
        <time>2022-06-12T10:27:40.144Z</time>
      </trkpt>
      <trkpt lat="43.22612" lon="17.82361">
        <ele>77.172266</ele>
        <time>2022-06-12T10:27:43.088Z</time>
      </trkpt>
      <trkpt lat="43.22623" lon="17.82358">
        <ele>76.960433</ele>
        <time>2022-06-12T10:27:46.106Z</time>
      </trkpt>
      <trkpt lat="43.22633" lon="17.82355">
        <ele>76.76541</ele>
        <time>2022-06-12T10:27:49.094Z</time>
      </trkpt>
      <trkpt lat="43.22643" lon="17.82352">
        <ele>76.561867</ele>
        <time>2022-06-12T10:27:52.104Z</time>
      </trkpt>
      <trkpt lat="43.22654" lon="17.82351">
        <ele>76.454772</ele>
        <time>2022-06-12T10:27:55.115Z</time>
      </trkpt>
      <trkpt lat="43.22665" lon="17.82348">
        <ele>76.475744</ele>
        <time>2022-06-12T10:27:58.110Z</time>
      </trkpt>
      <trkpt lat="43.22676" lon="17.82345">
        <ele>76.49593</ele>
        <time>2022-06-12T10:28:01.105Z</time>
      </trkpt>
      <trkpt lat="43.22687" lon="17.82341">
        <ele>76.517607</ele>
        <time>2022-06-12T10:28:04.100Z</time>
      </trkpt>
      <trkpt lat="43.22698" lon="17.82336">
        <ele>76.538097</ele>
        <time>2022-06-12T10:28:07.130Z</time>
      </trkpt>
      <trkpt lat="43.22708" lon="17.82334">
        <ele>76.558418</ele>
        <time>2022-06-12T10:28:10.099Z</time>
      </trkpt>
      <trkpt lat="43.22719" lon="17.82332">
        <ele>76.57743</ele>
        <time>2022-06-12T10:28:13.148Z</time>
      </trkpt>
      <trkpt lat="43.22729" lon="17.82332">
        <ele>76.596696</ele>
        <time>2022-06-12T10:28:16.076Z</time>
      </trkpt>
      <trkpt lat="43.2274" lon="17.82332">
        <ele>76.618015</ele>
        <time>2022-06-12T10:28:19.104Z</time>
      </trkpt>
      <trkpt lat="43.22753" lon="17.82331">
        <ele>76.641031</ele>
        <time>2022-06-12T10:28:22.098Z</time>
      </trkpt>
      <trkpt lat="43.22765" lon="17.82329">
        <ele>76.664059</ele>
        <time>2022-06-12T10:28:25.115Z</time>
      </trkpt>
      <trkpt lat="43.22775" lon="17.82328">
        <ele>76.684085</ele>
        <time>2022-06-12T10:28:28.105Z</time>
      </trkpt>
      <trkpt lat="43.22786" lon="17.82327">
        <ele>76.703602</ele>
        <time>2022-06-12T10:28:31.101Z</time>
      </trkpt>
      <trkpt lat="43.22796" lon="17.82325">
        <ele>76.722315</ele>
        <time>2022-06-12T10:28:34.107Z</time>
      </trkpt>
      <trkpt lat="43.22808" lon="17.82326">
        <ele>76.744578</ele>
        <time>2022-06-12T10:28:37.110Z</time>
      </trkpt>
      <trkpt lat="43.22818" lon="17.82328">
        <ele>76.765132</ele>
        <time>2022-06-12T10:28:40.110Z</time>
      </trkpt>
      <trkpt lat="43.2283" lon="17.82329">
        <ele>76.810836</ele>
        <time>2022-06-12T10:28:43.113Z</time>
      </trkpt>
      <trkpt lat="43.2284" lon="17.82332">
        <ele>76.9487</ele>
        <time>2022-06-12T10:28:46.128Z</time>
      </trkpt>
      <trkpt lat="43.2285" lon="17.82336">
        <ele>77.077381</ele>
        <time>2022-06-12T10:28:49.103Z</time>
      </trkpt>
      <trkpt lat="43.22861" lon="17.82339">
        <ele>77.215299</ele>
        <time>2022-06-12T10:28:52.130Z</time>
      </trkpt>
      <trkpt lat="43.22871" lon="17.82343">
        <ele>77.3435</ele>
        <time>2022-06-12T10:28:55.108Z</time>
      </trkpt>
      <trkpt lat="43.22881" lon="17.82347">
        <ele>77.477243</ele>
        <time>2022-06-12T10:28:58.128Z</time>
      </trkpt>
      <trkpt lat="43.22892" lon="17.82352">
        <ele>77.611458</ele>
        <time>2022-06-12T10:29:01.110Z</time>
      </trkpt>
      <trkpt lat="43.22901" lon="17.82357">
        <ele>77.7391</ele>
        <time>2022-06-12T10:29:04.116Z</time>
      </trkpt>
      <trkpt lat="43.22911" lon="17.82363">
        <ele>77.867897</ele>
        <time>2022-06-12T10:29:07.097Z</time>
      </trkpt>
      <trkpt lat="43.2292" lon="17.82368">
        <ele>77.993912</ele>
        <time>2022-06-12T10:29:10.087Z</time>
      </trkpt>
      <trkpt lat="43.22929" lon="17.82374">
        <ele>78.121821</ele>
        <time>2022-06-12T10:29:13.101Z</time>
      </trkpt>
      <trkpt lat="43.22937" lon="17.82381">
        <ele>78.239071</ele>
        <time>2022-06-12T10:29:16.111Z</time>
      </trkpt>
      <trkpt lat="43.22944" lon="17.82388">
        <ele>78.350589</ele>
        <time>2022-06-12T10:29:19.103Z</time>
      </trkpt>
      <trkpt lat="43.22953" lon="17.82397">
        <ele>78.48103</ele>
        <time>2022-06-12T10:29:22.105Z</time>
      </trkpt>
      <trkpt lat="43.22961" lon="17.82406">
        <ele>78.614795</ele>
        <time>2022-06-12T10:29:25.116Z</time>
      </trkpt>
      <trkpt lat="43.22968" lon="17.82415">
        <ele>78.733565</ele>
        <time>2022-06-12T10:29:28.118Z</time>
      </trkpt>
      <trkpt lat="43.22976" lon="17.82424">
        <ele>78.856312</ele>
        <time>2022-06-12T10:29:31.125Z</time>
      </trkpt>
      <trkpt lat="43.22983" lon="17.82433">
        <ele>78.978452</ele>
        <time>2022-06-12T10:29:34.122Z</time>
      </trkpt>
      <trkpt lat="43.2299" lon="17.82443">
        <ele>79.036818</ele>
        <time>2022-06-12T10:29:37.107Z</time>
      </trkpt>
      <trkpt lat="43.22998" lon="17.82453">
        <ele>79.060839</ele>
        <time>2022-06-12T10:29:40.104Z</time>
      </trkpt>
      <trkpt lat="43.23005" lon="17.82464">
        <ele>79.086781</ele>
        <time>2022-06-12T10:29:43.104Z</time>
      </trkpt>
      <trkpt lat="43.23014" lon="17.82475">
        <ele>79.114282</ele>
        <time>2022-06-12T10:29:46.104Z</time>
      </trkpt>
      <trkpt lat="43.23021" lon="17.82486">
        <ele>79.138516</ele>
        <time>2022-06-12T10:29:49.109Z</time>
      </trkpt>
      <trkpt lat="43.23026" lon="17.82498">
        <ele>79.162959</ele>
        <time>2022-06-12T10:29:52.098Z</time>
      </trkpt>
      <trkpt lat="43.23031" lon="17.82511">
        <ele>79.188603</ele>
        <time>2022-06-12T10:29:55.103Z</time>
      </trkpt>
      <trkpt lat="43.23034" lon="17.82524">
        <ele>79.211958</ele>
        <time>2022-06-12T10:29:58.091Z</time>
      </trkpt>
      <trkpt lat="43.23037" lon="17.82538">
        <ele>79.237298</ele>
        <time>2022-06-12T10:30:01.116Z</time>
      </trkpt>
      <trkpt lat="43.23038" lon="17.82553">
        <ele>79.262221</ele>
        <time>2022-06-12T10:30:04.085Z</time>
      </trkpt>
      <trkpt lat="43.23037" lon="17.82567">
        <ele>79.287091</ele>
        <time>2022-06-12T10:30:07.103Z</time>
      </trkpt>
      <trkpt lat="43.23037" lon="17.82581">
        <ele>79.311298</ele>
        <time>2022-06-12T10:30:10.140Z</time>
      </trkpt>
      <trkpt lat="43.23035" lon="17.82595">
        <ele>79.335874</ele>
        <time>2022-06-12T10:30:13.092Z</time>
      </trkpt>
      <trkpt lat="43.23033" lon="17.82612">
        <ele>79.363949</ele>
        <time>2022-06-12T10:30:16.095Z</time>
      </trkpt>
      <trkpt lat="43.2303" lon="17.82627">
        <ele>79.391519</ele>
        <time>2022-06-12T10:30:19.093Z</time>
      </trkpt>
      <trkpt lat="43.23028" lon="17.82642">
        <ele>79.416785</ele>
        <time>2022-06-12T10:30:22.096Z</time>
      </trkpt>
      <trkpt lat="43.23026" lon="17.82659">
        <ele>79.433917</ele>
        <time>2022-06-12T10:30:25.103Z</time>
      </trkpt>
      <trkpt lat="43.23025" lon="17.82675">
        <ele>79.365235</ele>
        <time>2022-06-12T10:30:28.100Z</time>
      </trkpt>
      <trkpt lat="43.23024" lon="17.82691">
        <ele>79.295944</ele>
        <time>2022-06-12T10:30:31.103Z</time>
      </trkpt>
      <trkpt lat="43.23024" lon="17.82706">
        <ele>79.23241</ele>
        <time>2022-06-12T10:30:34.106Z</time>
      </trkpt>
      <trkpt lat="43.23025" lon="17.82722">
        <ele>79.163873</ele>
        <time>2022-06-12T10:30:37.112Z</time>
      </trkpt>
      <trkpt lat="43.23026" lon="17.82738">
        <ele>79.095278</ele>
        <time>2022-06-12T10:30:40.097Z</time>
      </trkpt>
      <trkpt lat="43.23028" lon="17.82752">
        <ele>79.032586</ele>
        <time>2022-06-12T10:30:43.159Z</time>
      </trkpt>
      <trkpt lat="43.23029" lon="17.82766">
        <ele>78.971864</ele>
        <time>2022-06-12T10:30:46.102Z</time>
      </trkpt>
      <trkpt lat="43.23031" lon="17.82781">
        <ele>78.906849</ele>
        <time>2022-06-12T10:30:49.110Z</time>
      </trkpt>
      <trkpt lat="43.23034" lon="17.82795">
        <ele>78.845264</ele>
        <time>2022-06-12T10:30:52.096Z</time>
      </trkpt>
      <trkpt lat="43.23037" lon="17.82811">
        <ele>78.776858</ele>
        <time>2022-06-12T10:30:55.148Z</time>
      </trkpt>
      <trkpt lat="43.23039" lon="17.82826">
        <ele>78.709164</ele>
        <time>2022-06-12T10:30:58.091Z</time>
      </trkpt>
      <trkpt lat="43.23042" lon="17.82841">
        <ele>78.643812</ele>
        <time>2022-06-12T10:31:01.133Z</time>
      </trkpt>
      <trkpt lat="43.23045" lon="17.82856">
        <ele>78.577782</ele>
        <time>2022-06-12T10:31:04.102Z</time>
      </trkpt>
      <trkpt lat="43.23047" lon="17.8287">
        <ele>78.514102</ele>
        <time>2022-06-12T10:31:07.095Z</time>
      </trkpt>
      <trkpt lat="43.2305" lon="17.82885">
        <ele>78.44988</ele>
        <time>2022-06-12T10:31:10.103Z</time>
      </trkpt>
      <trkpt lat="43.23052" lon="17.829">
        <ele>78.383991</ele>
        <time>2022-06-12T10:31:13.107Z</time>
      </trkpt>
      <trkpt lat="43.23055" lon="17.82914">
        <ele>78.319686</ele>
        <time>2022-06-12T10:31:16.105Z</time>
      </trkpt>
      <trkpt lat="43.23057" lon="17.82929">
        <ele>78.252526</ele>
        <time>2022-06-12T10:31:19.105Z</time>
      </trkpt>
      <trkpt lat="43.2306" lon="17.82945">
        <ele>78.179778</ele>
        <time>2022-06-12T10:31:22.100Z</time>
      </trkpt>
      <trkpt lat="43.23062" lon="17.82959">
        <ele>78.112483</ele>
        <time>2022-06-12T10:31:25.104Z</time>
      </trkpt>
      <trkpt lat="43.23065" lon="17.82974">
        <ele>78.045332</ele>
        <time>2022-06-12T10:31:28.097Z</time>
      </trkpt>
      <trkpt lat="43.23068" lon="17.82989">
        <ele>77.97683</ele>
        <time>2022-06-12T10:31:31.137Z</time>
      </trkpt>
      <trkpt lat="43.23072" lon="17.83005">
        <ele>77.90274</ele>
        <time>2022-06-12T10:31:34.129Z</time>
      </trkpt>
      <trkpt lat="43.23077" lon="17.83018">
        <ele>77.838845</ele>
        <time>2022-06-12T10:31:37.105Z</time>
      </trkpt>
      <trkpt lat="43.23082" lon="17.83031">
        <ele>77.771094</ele>
        <time>2022-06-12T10:31:40.147Z</time>
      </trkpt>
      <trkpt lat="43.23087" lon="17.83045">
        <ele>77.700251</ele>
        <time>2022-06-12T10:31:43.092Z</time>
      </trkpt>
      <trkpt lat="43.23092" lon="17.83057">
        <ele>77.641017</ele>
        <time>2022-06-12T10:31:46.102Z</time>
      </trkpt>
      <trkpt lat="43.23098" lon="17.83071">
        <ele>77.568761</ele>
        <time>2022-06-12T10:31:50.104Z</time>
      </trkpt>
      <trkpt lat="43.23103" lon="17.83084">
        <ele>77.505153</ele>
        <time>2022-06-12T10:31:54.104Z</time>
      </trkpt>
      <trkpt lat="43.23108" lon="17.83095">
        <ele>77.444992</ele>
        <time>2022-06-12T10:31:58.112Z</time>
      </trkpt>
      <trkpt lat="43.23119" lon="17.83113">
        <ele>77.343236</ele>
        <time>2022-06-12T10:38:59.112Z</time>
      </trkpt>
      <trkpt lat="43.23126" lon="17.83123">
        <ele>77.263828</ele>
        <time>2022-06-12T10:39:03.105Z</time>
      </trkpt>
      <trkpt lat="43.23133" lon="17.83135">
        <ele>77.051804</ele>
        <time>2022-06-12T10:39:07.095Z</time>
      </trkpt>
      <trkpt lat="43.23141" lon="17.83146">
        <ele>76.84433</ele>
        <time>2022-06-12T10:39:11.100Z</time>
      </trkpt>
      <trkpt lat="43.23148" lon="17.83154">
        <ele>76.671593</ele>
        <time>2022-06-12T10:39:14.096Z</time>
      </trkpt>
      <trkpt lat="43.23156" lon="17.83162">
        <ele>76.499413</ele>
        <time>2022-06-12T10:39:17.101Z</time>
      </trkpt>
      <trkpt lat="43.23164" lon="17.83173">
        <ele>76.280325</ele>
        <time>2022-06-12T10:39:21.110Z</time>
      </trkpt>
      <trkpt lat="43.23174" lon="17.83181">
        <ele>76.072311</ele>
        <time>2022-06-12T10:39:25.139Z</time>
      </trkpt>
      <trkpt lat="43.23181" lon="17.83188">
        <ele>75.902732</ele>
        <time>2022-06-12T10:39:28.140Z</time>
      </trkpt>
      <trkpt lat="43.23189" lon="17.83195">
        <ele>75.72757</ele>
        <time>2022-06-12T10:39:31.145Z</time>
      </trkpt>
      <trkpt lat="43.23197" lon="17.83201">
        <ele>75.560342</ele>
        <time>2022-06-12T10:39:34.097Z</time>
      </trkpt>
      <trkpt lat="43.23208" lon="17.83208">
        <ele>75.34414</ele>
        <time>2022-06-12T10:39:38.095Z</time>
      </trkpt>
      <trkpt lat="43.23218" lon="17.83215">
        <ele>75.13473</ele>
        <time>2022-06-12T10:39:42.089Z</time>
      </trkpt>
      <trkpt lat="43.23229" lon="17.83221">
        <ele>74.920134</ele>
        <time>2022-06-12T10:39:46.089Z</time>
      </trkpt>
      <trkpt lat="43.23237" lon="17.83225">
        <ele>74.751396</ele>
        <time>2022-06-12T10:39:49.135Z</time>
      </trkpt>
      <trkpt lat="43.23246" lon="17.83229">
        <ele>74.580583</ele>
        <time>2022-06-12T10:39:52.113Z</time>
      </trkpt>
      <trkpt lat="43.23255" lon="17.83233">
        <ele>74.402637</ele>
        <time>2022-06-12T10:39:55.149Z</time>
      </trkpt>
      <trkpt lat="43.23264" lon="17.83237">
        <ele>74.227422</ele>
        <time>2022-06-12T10:39:58.126Z</time>
      </trkpt>
      <trkpt lat="43.23273" lon="17.83241">
        <ele>74.05302</ele>
        <time>2022-06-12T10:40:01.120Z</time>
      </trkpt>
      <trkpt lat="43.23283" lon="17.83245">
        <ele>73.95812</ele>
        <time>2022-06-12T10:40:04.109Z</time>
      </trkpt>
      <trkpt lat="43.23292" lon="17.83249">
        <ele>73.955713</ele>
        <time>2022-06-12T10:40:07.112Z</time>
      </trkpt>
      <trkpt lat="43.23302" lon="17.83253">
        <ele>73.953352</ele>
        <time>2022-06-12T10:40:10.098Z</time>
      </trkpt>
      <trkpt lat="43.23311" lon="17.83257">
        <ele>73.951194</ele>
        <time>2022-06-12T10:40:13.106Z</time>
      </trkpt>
      <trkpt lat="43.2332" lon="17.8326">
        <ele>73.949046</ele>
        <time>2022-06-12T10:40:16.093Z</time>
      </trkpt>
      <trkpt lat="43.23329" lon="17.83265">
        <ele>73.946708</ele>
        <time>2022-06-12T10:40:19.091Z</time>
      </trkpt>
      <trkpt lat="43.23338" lon="17.83269">
        <ele>73.944385</ele>
        <time>2022-06-12T10:40:22.103Z</time>
      </trkpt>
      <trkpt lat="43.23348" lon="17.83273">
        <ele>73.942013</ele>
        <time>2022-06-12T10:40:25.112Z</time>
      </trkpt>
      <trkpt lat="43.2336" lon="17.83278">
        <ele>73.939089</ele>
        <time>2022-06-12T10:40:29.106Z</time>
      </trkpt>
      <trkpt lat="43.23369" lon="17.83281">
        <ele>73.936904</ele>
        <time>2022-06-12T10:40:32.104Z</time>
      </trkpt>
      <trkpt lat="43.2338" lon="17.83287">
        <ele>73.934092</ele>
        <time>2022-06-12T10:40:36.101Z</time>
      </trkpt>
      <trkpt lat="43.2339" lon="17.83291">
        <ele>73.93172</ele>
        <time>2022-06-12T10:40:39.090Z</time>
      </trkpt>
      <trkpt lat="43.23399" lon="17.83294">
        <ele>73.929385</ele>
        <time>2022-06-12T10:40:42.097Z</time>
      </trkpt>
      <trkpt lat="43.23409" lon="17.83298">
        <ele>73.927087</ele>
        <time>2022-06-12T10:40:45.136Z</time>
      </trkpt>
      <trkpt lat="43.23419" lon="17.83302">
        <ele>73.924594</ele>
        <time>2022-06-12T10:40:48.092Z</time>
      </trkpt>
      <trkpt lat="43.23429" lon="17.83306">
        <ele>73.922037</ele>
        <time>2022-06-12T10:40:51.098Z</time>
      </trkpt>
      <trkpt lat="43.23439" lon="17.8331">
        <ele>73.91967</ele>
        <time>2022-06-12T10:40:54.103Z</time>
      </trkpt>
      <trkpt lat="43.2345" lon="17.83316">
        <ele>73.920644</ele>
        <time>2022-06-12T10:40:58.112Z</time>
      </trkpt>
      <trkpt lat="43.23462" lon="17.83318">
        <ele>74.101338</ele>
        <time>2022-06-12T10:41:02.093Z</time>
      </trkpt>
      <trkpt lat="43.23473" lon="17.83319">
        <ele>74.273948</ele>
        <time>2022-06-12T10:41:06.090Z</time>
      </trkpt>
      <trkpt lat="43.23482" lon="17.8332">
        <ele>74.415597</ele>
        <time>2022-06-12T10:41:09.100Z</time>
      </trkpt>
      <trkpt lat="43.23493" lon="17.83316">
        <ele>74.596595</ele>
        <time>2022-06-12T10:41:13.104Z</time>
      </trkpt>
      <trkpt lat="43.23502" lon="17.83311">
        <ele>74.741678</ele>
        <time>2022-06-12T10:41:16.101Z</time>
      </trkpt>
      <trkpt lat="43.23511" lon="17.83306">
        <ele>74.890471</ele>
        <time>2022-06-12T10:41:19.105Z</time>
      </trkpt>
      <trkpt lat="43.2352" lon="17.83301">
        <ele>75.049575</ele>
        <time>2022-06-12T10:41:22.133Z</time>
      </trkpt>
      <trkpt lat="43.23529" lon="17.83296">
        <ele>75.196036</ele>
        <time>2022-06-12T10:41:25.111Z</time>
      </trkpt>
      <trkpt lat="43.23538" lon="17.83291">
        <ele>75.344578</ele>
        <time>2022-06-12T10:41:28.097Z</time>
      </trkpt>
      <trkpt lat="43.23547" lon="17.83285">
        <ele>75.501845</ele>
        <time>2022-06-12T10:41:31.133Z</time>
      </trkpt>
      <trkpt lat="43.23559" lon="17.83279">
        <ele>75.697632</ele>
        <time>2022-06-12T10:41:35.113Z</time>
      </trkpt>
      <trkpt lat="43.23569" lon="17.83274">
        <ele>75.861256</ele>
        <time>2022-06-12T10:41:38.086Z</time>
      </trkpt>
      <trkpt lat="43.23578" lon="17.8327">
        <ele>76.009289</ele>
        <time>2022-06-12T10:41:41.133Z</time>
      </trkpt>
      <trkpt lat="43.23589" lon="17.83265">
        <ele>76.194069</ele>
        <time>2022-06-12T10:41:45.114Z</time>
      </trkpt>
      <trkpt lat="43.23599" lon="17.83259">
        <ele>76.367609</ele>
        <time>2022-06-12T10:41:49.104Z</time>
      </trkpt>
      <trkpt lat="43.2361" lon="17.83254">
        <ele>76.543934</ele>
        <time>2022-06-12T10:41:53.094Z</time>
      </trkpt>
      <trkpt lat="43.23621" lon="17.83249">
        <ele>76.705026</ele>
        <time>2022-06-12T10:41:57.134Z</time>
      </trkpt>
      <trkpt lat="43.2363" lon="17.83245">
        <ele>76.578974</ele>
        <time>2022-06-12T10:42:00.130Z</time>
      </trkpt>
      <trkpt lat="43.23639" lon="17.83242">
        <ele>76.448602</ele>
        <time>2022-06-12T10:42:03.137Z</time>
      </trkpt>
      <trkpt lat="43.23649" lon="17.83238">
        <ele>76.309905</ele>
        <time>2022-06-12T10:42:06.099Z</time>
      </trkpt>
      <trkpt lat="43.23658" lon="17.83234">
        <ele>76.178114</ele>
        <time>2022-06-12T10:42:09.099Z</time>
      </trkpt>
      <trkpt lat="43.23667" lon="17.8323">
        <ele>76.048488</ele>
        <time>2022-06-12T10:42:12.091Z</time>
      </trkpt>
      <trkpt lat="43.23677" lon="17.83226">
        <ele>75.913684</ele>
        <time>2022-06-12T10:42:15.101Z</time>
      </trkpt>
      <trkpt lat="43.23686" lon="17.83222">
        <ele>75.784057</ele>
        <time>2022-06-12T10:42:18.103Z</time>
      </trkpt>
      <trkpt lat="43.23697" lon="17.83218">
        <ele>75.634925</ele>
        <time>2022-06-12T10:42:22.100Z</time>
      </trkpt>
      <trkpt lat="43.23708" lon="17.83214">
        <ele>75.474464</ele>
        <time>2022-06-12T10:42:26.102Z</time>
      </trkpt>
      <trkpt lat="43.2372" lon="17.83215">
        <ele>75.320399</ele>
        <time>2022-06-12T10:42:30.108Z</time>
      </trkpt>
      <trkpt lat="43.23729" lon="17.83216">
        <ele>75.19461</ele>
        <time>2022-06-12T10:42:33.098Z</time>
      </trkpt>
      <trkpt lat="43.23738" lon="17.83218">
        <ele>75.068612</ele>
        <time>2022-06-12T10:42:36.095Z</time>
      </trkpt>
      <trkpt lat="43.23749" lon="17.83226">
        <ele>74.908713</ele>
        <time>2022-06-12T10:42:40.093Z</time>
      </trkpt>
      <trkpt lat="43.23757" lon="17.83234">
        <ele>74.771305</ele>
        <time>2022-06-12T10:42:43.133Z</time>
      </trkpt>
      <trkpt lat="43.23765" lon="17.83242">
        <ele>74.638849</ele>
        <time>2022-06-12T10:42:46.099Z</time>
      </trkpt>
      <trkpt lat="43.23772" lon="17.83251">
        <ele>74.507238</ele>
        <time>2022-06-12T10:42:52.084Z</time>
      </trkpt>
      <trkpt lat="43.23785" lon="17.83259">
        <ele>74.309659</ele>
        <time>2022-06-12T10:50:49.107Z</time>
      </trkpt>
      <trkpt lat="43.23796" lon="17.83255">
        <ele>74.372092</ele>
        <time>2022-06-12T10:50:54.111Z</time>
      </trkpt>
      <trkpt lat="43.23807" lon="17.83255">
        <ele>74.494639</ele>
        <time>2022-06-12T10:50:58.087Z</time>
      </trkpt>
      <trkpt lat="43.23818" lon="17.83256">
        <ele>74.605447</ele>
        <time>2022-06-12T10:51:02.134Z</time>
      </trkpt>
      <trkpt lat="43.23829" lon="17.83256">
        <ele>74.714574</ele>
        <time>2022-06-12T10:51:07.093Z</time>
      </trkpt>
      <trkpt lat="43.23839" lon="17.83259">
        <ele>74.818789</ele>
        <time>2022-06-12T10:51:11.121Z</time>
      </trkpt>
      <trkpt lat="43.23849" lon="17.8326">
        <ele>74.925951</ele>
        <time>2022-06-12T10:51:15.113Z</time>
      </trkpt>
      <trkpt lat="43.23859" lon="17.83261">
        <ele>75.026153</ele>
        <time>2022-06-12T10:51:19.150Z</time>
      </trkpt>
      <trkpt lat="43.23868" lon="17.8326">
        <ele>75.126115</ele>
        <time>2022-06-12T10:51:23.107Z</time>
      </trkpt>
      <trkpt lat="43.23878" lon="17.8326">
        <ele>75.224959</ele>
        <time>2022-06-12T10:51:29.112Z</time>
      </trkpt>
      <trkpt lat="43.23888" lon="17.83259">
        <ele>75.329394</ele>
        <time>2022-06-12T10:51:34.089Z</time>
      </trkpt>
      <trkpt lat="43.23898" lon="17.83255">
        <ele>75.438114</ele>
        <time>2022-06-12T10:51:39.095Z</time>
      </trkpt>
      <trkpt lat="43.2391" lon="17.83254">
        <ele>75.553895</ele>
        <time>2022-06-12T10:51:44.131Z</time>
      </trkpt>
      <trkpt lat="43.23919" lon="17.83253">
        <ele>75.650212</ele>
        <time>2022-06-12T10:51:48.114Z</time>
      </trkpt>
      <trkpt lat="43.23928" lon="17.83255">
        <ele>75.745755</ele>
        <time>2022-06-12T10:51:52.098Z</time>
      </trkpt>
      <trkpt lat="43.23939" lon="17.83258">
        <ele>75.863711</ele>
        <time>2022-06-12T10:51:56.095Z</time>
      </trkpt>
      <trkpt lat="43.23949" lon="17.8326">
        <ele>75.965501</ele>
        <time>2022-06-12T10:52:00.095Z</time>
      </trkpt>
      <trkpt lat="43.23958" lon="17.83262">
        <ele>76.061515</ele>
        <time>2022-06-12T10:52:04.134Z</time>
      </trkpt>
      <trkpt lat="43.23968" lon="17.83263">
        <ele>76.122708</ele>
        <time>2022-06-12T10:52:08.088Z</time>
      </trkpt>
      <trkpt lat="43.23979" lon="17.83263">
        <ele>76.074292</ele>
        <time>2022-06-12T10:52:12.098Z</time>
      </trkpt>
      <trkpt lat="43.23991" lon="17.83263">
        <ele>76.021805</ele>
        <time>2022-06-12T10:52:16.148Z</time>
      </trkpt>
      <trkpt lat="43.24002" lon="17.83262">
        <ele>75.970147</ele>
        <time>2022-06-12T10:52:20.104Z</time>
      </trkpt>
      <trkpt lat="43.24014" lon="17.83259">
        <ele>75.917027</ele>
        <time>2022-06-12T10:52:24.098Z</time>
      </trkpt>
      <trkpt lat="43.24025" lon="17.83256">
        <ele>75.863626</ele>
        <time>2022-06-12T10:52:28.109Z</time>
      </trkpt>
      <trkpt lat="43.24034" lon="17.83254">
        <ele>75.822827</ele>
        <time>2022-06-12T10:52:31.095Z</time>
      </trkpt>
      <trkpt lat="43.24044" lon="17.83251">
        <ele>75.778052</ele>
        <time>2022-06-12T10:52:34.085Z</time>
      </trkpt>
      <trkpt lat="43.24053" lon="17.83249">
        <ele>75.734606</ele>
        <time>2022-06-12T10:52:37.091Z</time>
      </trkpt>
      <trkpt lat="43.24063" lon="17.83246">
        <ele>75.690506</ele>
        <time>2022-06-12T10:52:40.112Z</time>
      </trkpt>
      <trkpt lat="43.24072" lon="17.83244">
        <ele>75.646921</ele>
        <time>2022-06-12T10:52:43.097Z</time>
      </trkpt>
      <trkpt lat="43.24082" lon="17.83241">
        <ele>75.602944</ele>
        <time>2022-06-12T10:52:46.104Z</time>
      </trkpt>
      <trkpt lat="43.24094" lon="17.83238">
        <ele>75.547319</ele>
        <time>2022-06-12T10:52:50.109Z</time>
      </trkpt>
      <trkpt lat="43.24104" lon="17.83236">
        <ele>75.502</ele>
        <time>2022-06-12T10:52:53.087Z</time>
      </trkpt>
      <trkpt lat="43.24114" lon="17.83235">
        <ele>75.45821</ele>
        <time>2022-06-12T10:52:56.100Z</time>
      </trkpt>
      <trkpt lat="43.24123" lon="17.83233">
        <ele>75.415178</ele>
        <time>2022-06-12T10:52:59.089Z</time>
      </trkpt>
      <trkpt lat="43.24133" lon="17.83231">
        <ele>75.368246</ele>
        <time>2022-06-12T10:53:02.105Z</time>
      </trkpt>
      <trkpt lat="43.24143" lon="17.8323">
        <ele>75.324736</ele>
        <time>2022-06-12T10:53:05.116Z</time>
      </trkpt>
      <trkpt lat="43.24153" lon="17.83229">
        <ele>75.498003</ele>
        <time>2022-06-12T10:53:08.092Z</time>
      </trkpt>
      <trkpt lat="43.24165" lon="17.83228">
        <ele>75.695906</ele>
        <time>2022-06-12T10:53:11.109Z</time>
      </trkpt>
      <trkpt lat="43.24177" lon="17.83227">
        <ele>75.910104</ele>
        <time>2022-06-12T10:53:14.128Z</time>
      </trkpt>
      <trkpt lat="43.24188" lon="17.83225">
        <ele>76.10673</ele>
        <time>2022-06-12T10:53:17.091Z</time>
      </trkpt>
      <trkpt lat="43.24198" lon="17.83224">
        <ele>76.281665</ele>
        <time>2022-06-12T10:53:20.101Z</time>
      </trkpt>
      <trkpt lat="43.24208" lon="17.83223">
        <ele>76.465878</ele>
        <time>2022-06-12T10:53:23.097Z</time>
      </trkpt>
      <trkpt lat="43.24219" lon="17.83222">
        <ele>76.655478</ele>
        <time>2022-06-12T10:53:26.095Z</time>
      </trkpt>
      <trkpt lat="43.24229" lon="17.83219">
        <ele>76.835507</ele>
        <time>2022-06-12T10:53:29.112Z</time>
      </trkpt>
      <trkpt lat="43.24238" lon="17.83215">
        <ele>77.013096</ele>
        <time>2022-06-12T10:53:32.094Z</time>
      </trkpt>
      <trkpt lat="43.24248" lon="17.8321">
        <ele>77.189751</ele>
        <time>2022-06-12T10:53:35.084Z</time>
      </trkpt>
      <trkpt lat="43.24256" lon="17.83203">
        <ele>77.357233</ele>
        <time>2022-06-12T10:53:38.093Z</time>
      </trkpt>
      <trkpt lat="43.24265" lon="17.83195">
        <ele>77.553007</ele>
        <time>2022-06-12T10:53:41.096Z</time>
      </trkpt>
      <trkpt lat="43.24275" lon="17.83186">
        <ele>77.755889</ele>
        <time>2022-06-12T10:53:44.126Z</time>
      </trkpt>
      <trkpt lat="43.24284" lon="17.83178">
        <ele>77.954443</ele>
        <time>2022-06-12T10:53:47.106Z</time>
      </trkpt>
      <trkpt lat="43.24294" lon="17.83169">
        <ele>78.153707</ele>
        <time>2022-06-12T10:53:50.148Z</time>
      </trkpt>
      <trkpt lat="43.24302" lon="17.83161">
        <ele>78.342783</ele>
        <time>2022-06-12T10:53:53.097Z</time>
      </trkpt>
      <trkpt lat="43.24312" lon="17.83153">
        <ele>78.572526</ele>
        <time>2022-06-12T10:53:56.145Z</time>
      </trkpt>
      <trkpt lat="43.24321" lon="17.83145">
        <ele>78.942182</ele>
        <time>2022-06-12T10:53:59.102Z</time>
      </trkpt>
      <trkpt lat="43.2433" lon="17.83136">
        <ele>79.331425</ele>
        <time>2022-06-12T10:54:02.104Z</time>
      </trkpt>
      <trkpt lat="43.2434" lon="17.83127">
        <ele>79.732209</ele>
        <time>2022-06-12T10:54:05.091Z</time>
      </trkpt>
      <trkpt lat="43.2435" lon="17.83119">
        <ele>80.125801</ele>
        <time>2022-06-12T10:54:08.099Z</time>
      </trkpt>
      <trkpt lat="43.2436" lon="17.83111">
        <ele>80.509596</ele>
        <time>2022-06-12T10:54:11.101Z</time>
      </trkpt>
      <trkpt lat="43.2437" lon="17.83103">
        <ele>80.914496</ele>
        <time>2022-06-12T10:54:14.112Z</time>
      </trkpt>
      <trkpt lat="43.24379" lon="17.83097">
        <ele>81.264563</ele>
        <time>2022-06-12T10:54:17.096Z</time>
      </trkpt>
      <trkpt lat="43.2439" lon="17.83092">
        <ele>81.631807</ele>
        <time>2022-06-12T10:54:20.095Z</time>
      </trkpt>
      <trkpt lat="43.244" lon="17.83086">
        <ele>82.021624</ele>
        <time>2022-06-12T10:54:23.115Z</time>
      </trkpt>
      <trkpt lat="43.2441" lon="17.83081">
        <ele>82.391174</ele>
        <time>2022-06-12T10:54:26.103Z</time>
      </trkpt>
      <trkpt lat="43.24421" lon="17.83076">
        <ele>82.764624</ele>
        <time>2022-06-12T10:54:29.098Z</time>
      </trkpt>
      <trkpt lat="43.2443" lon="17.83071">
        <ele>83.107595</ele>
        <time>2022-06-12T10:54:32.088Z</time>
      </trkpt>
      <trkpt lat="43.2444" lon="17.83068">
        <ele>83.440422</ele>
        <time>2022-06-12T10:54:35.134Z</time>
      </trkpt>
      <trkpt lat="43.2445" lon="17.83064">
        <ele>83.80683</ele>
        <time>2022-06-12T10:54:38.093Z</time>
      </trkpt>
      <trkpt lat="43.2446" lon="17.8306">
        <ele>84.142576</ele>
        <time>2022-06-12T10:54:41.132Z</time>
      </trkpt>
      <trkpt lat="43.2447" lon="17.83055">
        <ele>84.504784</ele>
        <time>2022-06-12T10:54:44.101Z</time>
      </trkpt>
      <trkpt lat="43.24481" lon="17.8305">
        <ele>84.329507</ele>
        <time>2022-06-12T10:54:48.092Z</time>
      </trkpt>
      <trkpt lat="43.24492" lon="17.83044">
        <ele>84.006929</ele>
        <time>2022-06-12T10:54:51.090Z</time>
      </trkpt>
      <trkpt lat="43.24502" lon="17.83038">
        <ele>83.673635</ele>
        <time>2022-06-12T10:54:54.109Z</time>
      </trkpt>
      <trkpt lat="43.24512" lon="17.83032">
        <ele>83.363796</ele>
        <time>2022-06-12T10:54:57.102Z</time>
      </trkpt>
      <trkpt lat="43.24522" lon="17.83027">
        <ele>83.051589</ele>
        <time>2022-06-12T10:55:00.101Z</time>
      </trkpt>
      <trkpt lat="43.24533" lon="17.83021">
        <ele>82.729407</ele>
        <time>2022-06-12T10:55:03.131Z</time>
      </trkpt>
      <trkpt lat="43.24542" lon="17.83016">
        <ele>82.430294</ele>
        <time>2022-06-12T10:55:06.103Z</time>
      </trkpt>
      <trkpt lat="43.24551" lon="17.83012">
        <ele>82.15586</ele>
        <time>2022-06-12T10:55:09.104Z</time>
      </trkpt>
      <trkpt lat="43.24561" lon="17.83006">
        <ele>81.851052</ele>
        <time>2022-06-12T10:55:12.101Z</time>
      </trkpt>
      <trkpt lat="43.2457" lon="17.83001">
        <ele>81.55512</ele>
        <time>2022-06-12T10:55:15.169Z</time>
      </trkpt>
      <trkpt lat="43.2458" lon="17.82997">
        <ele>81.26489</ele>
        <time>2022-06-12T10:55:18.101Z</time>
      </trkpt>
      <trkpt lat="43.2459" lon="17.82991">
        <ele>80.949665</ele>
        <time>2022-06-12T10:55:21.092Z</time>
      </trkpt>
      <trkpt lat="43.24601" lon="17.82985">
        <ele>80.613222</ele>
        <time>2022-06-12T10:55:24.103Z</time>
      </trkpt>
      <trkpt lat="43.2461" lon="17.8298">
        <ele>80.323465</ele>
        <time>2022-06-12T10:55:27.103Z</time>
      </trkpt>
      <trkpt lat="43.24619" lon="17.82975">
        <ele>80.040181</ele>
        <time>2022-06-12T10:55:30.088Z</time>
      </trkpt>
      <trkpt lat="43.24628" lon="17.8297">
        <ele>79.741883</ele>
        <time>2022-06-12T10:55:33.117Z</time>
      </trkpt>
      <trkpt lat="43.24638" lon="17.82965">
        <ele>79.446809</ele>
        <time>2022-06-12T10:55:36.109Z</time>
      </trkpt>
      <trkpt lat="43.24649" lon="17.82959">
        <ele>79.275222</ele>
        <time>2022-06-12T10:55:39.101Z</time>
      </trkpt>
      <trkpt lat="43.24661" lon="17.82952">
        <ele>79.129881</ele>
        <time>2022-06-12T10:55:42.104Z</time>
      </trkpt>
      <trkpt lat="43.24671" lon="17.82946">
        <ele>78.998982</ele>
        <time>2022-06-12T10:55:45.115Z</time>
      </trkpt>
      <trkpt lat="43.24681" lon="17.82941">
        <ele>78.875547</ele>
        <time>2022-06-12T10:55:48.093Z</time>
      </trkpt>
      <trkpt lat="43.24691" lon="17.82934">
        <ele>78.74918</ele>
        <time>2022-06-12T10:55:51.101Z</time>
      </trkpt>
      <trkpt lat="43.247" lon="17.82927">
        <ele>78.624009</ele>
        <time>2022-06-12T10:55:54.137Z</time>
      </trkpt>
      <trkpt lat="43.2471" lon="17.8292">
        <ele>78.494561</ele>
        <time>2022-06-12T10:55:57.117Z</time>
      </trkpt>
      <trkpt lat="43.2472" lon="17.82913">
        <ele>78.374109</ele>
        <time>2022-06-12T10:56:00.143Z</time>
      </trkpt>
      <trkpt lat="43.2473" lon="17.82906">
        <ele>78.244572</ele>
        <time>2022-06-12T10:56:03.108Z</time>
      </trkpt>
      <trkpt lat="43.24739" lon="17.829">
        <ele>78.122221</ele>
        <time>2022-06-12T10:56:06.110Z</time>
      </trkpt>
      <trkpt lat="43.24748" lon="17.82892">
        <ele>78.00355</ele>
        <time>2022-06-12T10:56:09.108Z</time>
      </trkpt>
      <trkpt lat="43.24756" lon="17.82883">
        <ele>77.879164</ele>
        <time>2022-06-12T10:56:12.097Z</time>
      </trkpt>
      <trkpt lat="43.24765" lon="17.82874">
        <ele>77.758795</ele>
        <time>2022-06-12T10:56:15.126Z</time>
      </trkpt>
      <trkpt lat="43.24774" lon="17.82864">
        <ele>77.626518</ele>
        <time>2022-06-12T10:56:18.077Z</time>
      </trkpt>
      <trkpt lat="43.24783" lon="17.82855">
        <ele>77.494365</ele>
        <time>2022-06-12T10:56:21.089Z</time>
      </trkpt>
      <trkpt lat="43.24791" lon="17.82846">
        <ele>77.37242</ele>
        <time>2022-06-12T10:56:24.105Z</time>
      </trkpt>
      <trkpt lat="43.24799" lon="17.82836">
        <ele>77.369241</ele>
        <time>2022-06-12T10:56:27.100Z</time>
      </trkpt>
      <trkpt lat="43.24808" lon="17.82827">
        <ele>77.475005</ele>
        <time>2022-06-12T10:56:30.112Z</time>
      </trkpt>
      <trkpt lat="43.24816" lon="17.82817">
        <ele>77.580904</ele>
        <time>2022-06-12T10:56:33.095Z</time>
      </trkpt>
      <trkpt lat="43.24825" lon="17.82808">
        <ele>77.687107</ele>
        <time>2022-06-12T10:56:36.095Z</time>
      </trkpt>
      <trkpt lat="43.24834" lon="17.82798">
        <ele>77.796128</ele>
        <time>2022-06-12T10:56:39.102Z</time>
      </trkpt>
      <trkpt lat="43.24842" lon="17.82789">
        <ele>77.899746</ele>
        <time>2022-06-12T10:56:42.085Z</time>
      </trkpt>
      <trkpt lat="43.24851" lon="17.8278">
        <ele>78.005833</ele>
        <time>2022-06-12T10:56:45.151Z</time>
      </trkpt>
      <trkpt lat="43.24859" lon="17.82771">
        <ele>78.106731</ele>
        <time>2022-06-12T10:56:48.108Z</time>
      </trkpt>
      <trkpt lat="43.24867" lon="17.82763">
        <ele>78.203209</ele>
        <time>2022-06-12T10:56:51.093Z</time>
      </trkpt>
      <trkpt lat="43.24876" lon="17.82754">
        <ele>78.304107</ele>
        <time>2022-06-12T10:56:54.124Z</time>
      </trkpt>
      <trkpt lat="43.24884" lon="17.82744">
        <ele>78.410626</ele>
        <time>2022-06-12T10:56:57.103Z</time>
      </trkpt>
      <trkpt lat="43.24893" lon="17.82735">
        <ele>78.519723</ele>
        <time>2022-06-12T10:57:00.096Z</time>
      </trkpt>
      <trkpt lat="43.24902" lon="17.82727">
        <ele>78.626031</ele>
        <time>2022-06-12T10:57:03.097Z</time>
      </trkpt>
      <trkpt lat="43.24914" lon="17.82717">
        <ele>78.752698</ele>
        <time>2022-06-12T10:57:06.119Z</time>
      </trkpt>
      <trkpt lat="43.24923" lon="17.82709">
        <ele>78.858841</ele>
        <time>2022-06-12T10:57:08.143Z</time>
      </trkpt>
      <trkpt lat="43.24932" lon="17.82701">
        <ele>78.961966</ele>
        <time>2022-06-12T10:57:10.094Z</time>
      </trkpt>
      <trkpt lat="43.24942" lon="17.82691">
        <ele>79.046625</ele>
        <time>2022-06-12T10:57:12.090Z</time>
      </trkpt>
      <trkpt lat="43.2495" lon="17.82683">
        <ele>79.051537</ele>
        <time>2022-06-12T10:57:14.133Z</time>
      </trkpt>
      <trkpt lat="43.2496" lon="17.82674">
        <ele>79.057772</ele>
        <time>2022-06-12T10:57:17.111Z</time>
      </trkpt>
      <trkpt lat="43.24968" lon="17.82667">
        <ele>79.062257</ele>
        <time>2022-06-12T10:57:20.144Z</time>
      </trkpt>
      <trkpt lat="43.24979" lon="17.82661">
        <ele>79.067858</ele>
        <time>2022-06-12T10:57:24.109Z</time>
      </trkpt>
      <trkpt lat="43.2499" lon="17.82654">
        <ele>79.073578</ele>
        <time>2022-06-12T10:57:28.102Z</time>
      </trkpt>
      <trkpt lat="43.25" lon="17.82647">
        <ele>79.079238</ele>
        <time>2022-06-12T10:57:32.108Z</time>
      </trkpt>
      <trkpt lat="43.25009" lon="17.8264">
        <ele>79.084107</ele>
        <time>2022-06-12T10:57:35.121Z</time>
      </trkpt>
      <trkpt lat="43.25018" lon="17.82634">
        <ele>79.08896</ele>
        <time>2022-06-12T10:57:38.107Z</time>
      </trkpt>
      <trkpt lat="43.25026" lon="17.82626">
        <ele>79.093912</ele>
        <time>2022-06-12T10:57:41.113Z</time>
      </trkpt>
      <trkpt lat="43.25035" lon="17.82619">
        <ele>79.098696</ele>
        <time>2022-06-12T10:57:44.105Z</time>
      </trkpt>
      <trkpt lat="43.25043" lon="17.82612">
        <ele>79.10335</ele>
        <time>2022-06-12T10:57:47.106Z</time>
      </trkpt>
      <trkpt lat="43.2505" lon="17.82604">
        <ele>79.107947</ele>
        <time>2022-06-12T10:57:50.098Z</time>
      </trkpt>
      <trkpt lat="43.25058" lon="17.82597">
        <ele>79.112497</ele>
        <time>2022-06-12T10:57:53.116Z</time>
      </trkpt>
      <trkpt lat="43.25065" lon="17.8259">
        <ele>79.117048</ele>
        <time>2022-06-12T10:57:56.104Z</time>
      </trkpt>
      <trkpt lat="43.25074" lon="17.82582">
        <ele>79.121859</ele>
        <time>2022-06-12T10:57:59.144Z</time>
      </trkpt>
      <trkpt lat="43.25082" lon="17.82575">
        <ele>79.126541</ele>
        <time>2022-06-12T10:58:02.096Z</time>
      </trkpt>
      <trkpt lat="43.25091" lon="17.82568">
        <ele>79.131638</ele>
        <time>2022-06-12T10:58:05.151Z</time>
      </trkpt>
      <trkpt lat="43.251" lon="17.8256">
        <ele>79.302221</ele>
        <time>2022-06-12T10:58:08.105Z</time>
      </trkpt>
      <trkpt lat="43.25109" lon="17.82553">
        <ele>79.494677</ele>
        <time>2022-06-12T10:58:11.133Z</time>
      </trkpt>
      <trkpt lat="43.25117" lon="17.82546">
        <ele>79.679569</ele>
        <time>2022-06-12T10:58:14.094Z</time>
      </trkpt>
      <trkpt lat="43.25125" lon="17.8254">
        <ele>79.858277</ele>
        <time>2022-06-12T10:58:17.103Z</time>
      </trkpt>
      <trkpt lat="43.25135" lon="17.82532">
        <ele>80.082413</ele>
        <time>2022-06-12T10:58:21.093Z</time>
      </trkpt>
      <trkpt lat="43.25144" lon="17.82526">
        <ele>80.277232</ele>
        <time>2022-06-12T10:58:25.101Z</time>
      </trkpt>
      <trkpt lat="43.25154" lon="17.82517">
        <ele>80.502603</ele>
        <time>2022-06-12T10:58:29.099Z</time>
      </trkpt>
      <trkpt lat="43.25163" lon="17.8251">
        <ele>80.706183</ele>
        <time>2022-06-12T10:58:32.094Z</time>
      </trkpt>
      <trkpt lat="43.25174" lon="17.82502">
        <ele>80.944807</ele>
        <time>2022-06-12T10:58:35.107Z</time>
      </trkpt>
      <trkpt lat="43.25183" lon="17.82494">
        <ele>81.147697</ele>
        <time>2022-06-12T10:58:37.083Z</time>
      </trkpt>
      <trkpt lat="43.25194" lon="17.82487">
        <ele>81.379562</ele>
        <time>2022-06-12T10:58:39.105Z</time>
      </trkpt>
      <trkpt lat="43.25203" lon="17.8248">
        <ele>81.586592</ele>
        <time>2022-06-12T10:58:41.100Z</time>
      </trkpt>
      <trkpt lat="43.25212" lon="17.82473">
        <ele>81.770286</ele>
        <time>2022-06-12T10:58:43.104Z</time>
      </trkpt>
      <trkpt lat="43.25221" lon="17.82467">
        <ele>81.965493</ele>
        <time>2022-06-12T10:58:47.094Z</time>
      </trkpt>
      <trkpt lat="43.2523" lon="17.8246">
        <ele>82.169534</ele>
        <time>2022-06-12T10:58:51.081Z</time>
      </trkpt>
      <trkpt lat="43.2524" lon="17.82452">
        <ele>82.394329</ele>
        <time>2022-06-12T10:58:55.117Z</time>
      </trkpt>
      <trkpt lat="43.2525" lon="17.82445">
        <ele>82.611073</ele>
        <time>2022-06-12T10:58:59.097Z</time>
      </trkpt>
      <trkpt lat="43.25258" lon="17.82439">
        <ele>82.913173</ele>
        <time>2022-06-12T10:59:02.136Z</time>
      </trkpt>
      <trkpt lat="43.25267" lon="17.82433">
        <ele>83.254336</ele>
        <time>2022-06-12T10:59:05.103Z</time>
      </trkpt>
      <trkpt lat="43.25276" lon="17.82427">
        <ele>83.580543</ele>
        <time>2022-06-12T10:59:08.096Z</time>
      </trkpt>
      <trkpt lat="43.25285" lon="17.82422">
        <ele>83.910501</ele>
        <time>2022-06-12T10:59:11.096Z</time>
      </trkpt>
      <trkpt lat="43.25293" lon="17.82417">
        <ele>84.217411</ele>
        <time>2022-06-12T10:59:14.105Z</time>
      </trkpt>
      <trkpt lat="43.25302" lon="17.82411">
        <ele>84.533196</ele>
        <time>2022-06-12T10:59:17.101Z</time>
      </trkpt>
      <trkpt lat="43.25311" lon="17.82406">
        <ele>84.881501</ele>
        <time>2022-06-12T10:59:20.104Z</time>
      </trkpt>
      <trkpt lat="43.25321" lon="17.824">
        <ele>85.244003</ele>
        <time>2022-06-12T10:59:23.101Z</time>
      </trkpt>
      <trkpt lat="43.25332" lon="17.82394">
        <ele>85.620702</ele>
        <time>2022-06-12T10:59:26.131Z</time>
      </trkpt>
      <trkpt lat="43.25342" lon="17.82388">
        <ele>85.97803</ele>
        <time>2022-06-12T10:59:29.105Z</time>
      </trkpt>
      <trkpt lat="43.25352" lon="17.82382">
        <ele>86.351514</ele>
        <time>2022-06-12T10:59:32.120Z</time>
      </trkpt>
      <trkpt lat="43.25362" lon="17.82377">
        <ele>86.719476</ele>
        <time>2022-06-12T10:59:35.138Z</time>
      </trkpt>
      <trkpt lat="43.25372" lon="17.82371">
        <ele>87.073748</ele>
        <time>2022-06-12T10:59:38.125Z</time>
      </trkpt>
      <trkpt lat="43.25381" lon="17.82365">
        <ele>87.407838</ele>
        <time>2022-06-12T10:59:41.094Z</time>
      </trkpt>
      <trkpt lat="43.2539" lon="17.82359">
        <ele>87.727672</ele>
        <time>2022-06-12T10:59:44.113Z</time>
      </trkpt>
      <trkpt lat="43.25398" lon="17.82354">
        <ele>88.048557</ele>
        <time>2022-06-12T10:59:47.096Z</time>
      </trkpt>
      <trkpt lat="43.25408" lon="17.82349">
        <ele>88.390725</ele>
        <time>2022-06-12T10:59:50.105Z</time>
      </trkpt>
      <trkpt lat="43.25416" lon="17.82343">
        <ele>88.48358</ele>
        <time>2022-06-12T10:59:53.096Z</time>
      </trkpt>
      <trkpt lat="43.25425" lon="17.82339">
        <ele>88.163678</ele>
        <time>2022-06-12T10:59:56.103Z</time>
      </trkpt>
      <trkpt lat="43.25434" lon="17.82334">
        <ele>87.820272</ele>
        <time>2022-06-12T10:59:59.106Z</time>
      </trkpt>
      <trkpt lat="43.25444" lon="17.8233">
        <ele>87.451855</ele>
        <time>2022-06-12T11:00:02.100Z</time>
      </trkpt>
      <trkpt lat="43.25454" lon="17.82327">
        <ele>87.112646</ele>
        <time>2022-06-12T11:00:05.114Z</time>
      </trkpt>
      <trkpt lat="43.25463" lon="17.82324">
        <ele>86.76893</ele>
        <time>2022-06-12T11:00:08.112Z</time>
      </trkpt>
      <trkpt lat="43.25473" lon="17.82322">
        <ele>86.417966</ele>
        <time>2022-06-12T11:00:11.133Z</time>
      </trkpt>
      <trkpt lat="43.25484" lon="17.8232">
        <ele>86.026794</ele>
        <time>2022-06-12T11:00:14.101Z</time>
      </trkpt>
      <trkpt lat="43.25497" lon="17.82318">
        <ele>85.592437</ele>
        <time>2022-06-12T11:00:17.105Z</time>
      </trkpt>
      <trkpt lat="43.25507" lon="17.8232">
        <ele>85.233732</ele>
        <time>2022-06-12T11:00:20.109Z</time>
      </trkpt>
      <trkpt lat="43.25518" lon="17.82323">
        <ele>84.825541</ele>
        <time>2022-06-12T11:00:23.096Z</time>
      </trkpt>
      <trkpt lat="43.25529" lon="17.82327">
        <ele>84.435682</ele>
        <time>2022-06-12T11:00:27.089Z</time>
      </trkpt>
      <trkpt lat="43.25539" lon="17.82329">
        <ele>84.088155</ele>
        <time>2022-06-12T11:00:30.103Z</time>
      </trkpt>
      <trkpt lat="43.2555" lon="17.82333">
        <ele>83.708707</ele>
        <time>2022-06-12T11:00:33.111Z</time>
      </trkpt>
      <trkpt lat="43.25564" lon="17.82336">
        <ele>83.186024</ele>
        <time>2022-06-12T11:00:36.103Z</time>
      </trkpt>
      <trkpt lat="43.25574" lon="17.82338">
        <ele>82.845778</ele>
        <time>2022-06-12T11:00:38.098Z</time>
      </trkpt>
      <trkpt lat="43.25584" lon="17.8234">
        <ele>82.484917</ele>
        <time>2022-06-12T11:00:40.102Z</time>
      </trkpt>
      <trkpt lat="43.25594" lon="17.82344">
        <ele>82.269465</ele>
        <time>2022-06-12T11:00:42.098Z</time>
      </trkpt>
      <trkpt lat="43.25603" lon="17.82348">
        <ele>82.17992</ele>
        <time>2022-06-12T11:00:44.106Z</time>
      </trkpt>
      <trkpt lat="43.25616" lon="17.82351">
        <ele>82.064074</ele>
        <time>2022-06-12T11:00:47.113Z</time>
      </trkpt>
      <trkpt lat="43.25627" lon="17.82354">
        <ele>81.965585</ele>
        <time>2022-06-12T11:00:50.101Z</time>
      </trkpt>
      <trkpt lat="43.25638" lon="17.82355">
        <ele>81.865903</ele>
        <time>2022-06-12T11:00:53.106Z</time>
      </trkpt>
      <trkpt lat="43.25649" lon="17.82357">
        <ele>81.765391</ele>
        <time>2022-06-12T11:00:56.153Z</time>
      </trkpt>
      <trkpt lat="43.25661" lon="17.82358">
        <ele>81.659662</ele>
        <time>2022-06-12T11:00:59.098Z</time>
      </trkpt>
      <trkpt lat="43.25671" lon="17.82359">
        <ele>81.569078</ele>
        <time>2022-06-12T11:01:02.103Z</time>
      </trkpt>
      <trkpt lat="43.25681" lon="17.82361">
        <ele>81.473231</ele>
        <time>2022-06-12T11:01:05.110Z</time>
      </trkpt>
      <trkpt lat="43.25692" lon="17.82361">
        <ele>81.380354</ele>
        <time>2022-06-12T11:01:08.118Z</time>
      </trkpt>
      <trkpt lat="43.25702" lon="17.82361">
        <ele>81.283009</ele>
        <time>2022-06-12T11:01:11.105Z</time>
      </trkpt>
      <trkpt lat="43.25713" lon="17.82361">
        <ele>81.189286</ele>
        <time>2022-06-12T11:01:14.105Z</time>
      </trkpt>
      <trkpt lat="43.25723" lon="17.82361">
        <ele>81.100062</ele>
        <time>2022-06-12T11:01:17.097Z</time>
      </trkpt>
      <trkpt lat="43.25732" lon="17.82361">
        <ele>81.014411</ele>
        <time>2022-06-12T11:01:20.097Z</time>
      </trkpt>
      <trkpt lat="43.25742" lon="17.8236">
        <ele>80.925078</ele>
        <time>2022-06-12T11:01:23.099Z</time>
      </trkpt>
      <trkpt lat="43.25752" lon="17.8236">
        <ele>80.832259</ele>
        <time>2022-06-12T11:01:26.097Z</time>
      </trkpt>
      <trkpt lat="43.25763" lon="17.82359">
        <ele>80.738456</ele>
        <time>2022-06-12T11:01:29.105Z</time>
      </trkpt>
      <trkpt lat="43.25772" lon="17.82359">
        <ele>80.718028</ele>
        <time>2022-06-12T11:01:32.105Z</time>
      </trkpt>
      <trkpt lat="43.25784" lon="17.82358">
        <ele>80.768801</ele>
        <time>2022-06-12T11:01:35.149Z</time>
      </trkpt>
      <trkpt lat="43.25795" lon="17.82358">
        <ele>80.819138</ele>
        <time>2022-06-12T11:01:38.094Z</time>
      </trkpt>
      <trkpt lat="43.25806" lon="17.82357">
        <ele>80.864665</ele>
        <time>2022-06-12T11:01:41.095Z</time>
      </trkpt>
      <trkpt lat="43.25816" lon="17.82357">
        <ele>80.909766</ele>
        <time>2022-06-12T11:01:44.112Z</time>
      </trkpt>
      <trkpt lat="43.25826" lon="17.82357">
        <ele>80.953083</ele>
        <time>2022-06-12T11:01:47.108Z</time>
      </trkpt>
      <trkpt lat="43.25836" lon="17.82357">
        <ele>80.996413</ele>
        <time>2022-06-12T11:01:50.096Z</time>
      </trkpt>
      <trkpt lat="43.25847" lon="17.82358">
        <ele>81.042919</ele>
        <time>2022-06-12T11:01:53.107Z</time>
      </trkpt>
      <trkpt lat="43.25858" lon="17.82361">
        <ele>81.095106</ele>
        <time>2022-06-12T11:01:56.097Z</time>
      </trkpt>
      <trkpt lat="43.2587" lon="17.82364">
        <ele>81.147854</ele>
        <time>2022-06-12T11:01:59.099Z</time>
      </trkpt>
      <trkpt lat="43.25882" lon="17.82367">
        <ele>81.200355</ele>
        <time>2022-06-12T11:02:02.095Z</time>
      </trkpt>
      <trkpt lat="43.25893" lon="17.8237">
        <ele>81.250469</ele>
        <time>2022-06-12T11:02:05.133Z</time>
      </trkpt>
      <trkpt lat="43.25904" lon="17.82374">
        <ele>81.299166</ele>
        <time>2022-06-12T11:02:08.148Z</time>
      </trkpt>
      <trkpt lat="43.25915" lon="17.82379">
        <ele>81.349566</ele>
        <time>2022-06-12T11:02:11.108Z</time>
      </trkpt>
      <trkpt lat="43.25926" lon="17.82381">
        <ele>81.400408</ele>
        <time>2022-06-12T11:02:14.130Z</time>
      </trkpt>
      <trkpt lat="43.25938" lon="17.82382">
        <ele>81.45051</ele>
        <time>2022-06-12T11:02:17.098Z</time>
      </trkpt>
      <trkpt lat="43.25949" lon="17.82384">
        <ele>81.464341</ele>
        <time>2022-06-12T11:02:20.100Z</time>
      </trkpt>
      <trkpt lat="43.25959" lon="17.82385">
        <ele>81.407849</ele>
        <time>2022-06-12T11:02:23.104Z</time>
      </trkpt>
      <trkpt lat="43.25969" lon="17.82387">
        <ele>81.350584</ele>
        <time>2022-06-12T11:02:26.093Z</time>
      </trkpt>
      <trkpt lat="43.25979" lon="17.82389">
        <ele>81.293156</ele>
        <time>2022-06-12T11:02:29.108Z</time>
      </trkpt>
      <trkpt lat="43.2599" lon="17.82392">
        <ele>81.232004</ele>
        <time>2022-06-12T11:02:32.103Z</time>
      </trkpt>
      <trkpt lat="43.26" lon="17.82395">
        <ele>81.172527</ele>
        <time>2022-06-12T11:02:35.106Z</time>
      </trkpt>
      <trkpt lat="43.2601" lon="17.82399">
        <ele>81.114451</ele>
        <time>2022-06-12T11:02:38.096Z</time>
      </trkpt>
      <trkpt lat="43.26019" lon="17.82404">
        <ele>81.056522</ele>
        <time>2022-06-12T11:02:41.093Z</time>
      </trkpt>
      <trkpt lat="43.26029" lon="17.8241">
        <ele>80.997771</ele>
        <time>2022-06-12T11:02:44.106Z</time>
      </trkpt>
      <trkpt lat="43.26037" lon="17.82414">
        <ele>80.947028</ele>
        <time>2022-06-12T11:02:47.124Z</time>
      </trkpt>
      <trkpt lat="43.26047" lon="17.82418">
        <ele>80.889066</ele>
        <time>2022-06-12T11:02:50.094Z</time>
      </trkpt>
      <trkpt lat="43.26056" lon="17.82421">
        <ele>80.837939</ele>
        <time>2022-06-12T11:02:53.124Z</time>
      </trkpt>
      <trkpt lat="43.26065" lon="17.82424">
        <ele>80.785272</ele>
        <time>2022-06-12T11:02:56.111Z</time>
      </trkpt>
      <trkpt lat="43.26076" lon="17.82427">
        <ele>80.72538</ele>
        <time>2022-06-12T11:02:59.101Z</time>
      </trkpt>
      <trkpt lat="43.26086" lon="17.8243">
        <ele>80.664633</ele>
        <time>2022-06-12T11:03:02.112Z</time>
      </trkpt>
      <trkpt lat="43.26097" lon="17.82432">
        <ele>80.603127</ele>
        <time>2022-06-12T11:03:05.103Z</time>
      </trkpt>
      <trkpt lat="43.26108" lon="17.82434">
        <ele>80.539238</ele>
        <time>2022-06-12T11:03:08.102Z</time>
      </trkpt>
      <trkpt lat="43.26119" lon="17.82435">
        <ele>80.477284</ele>
        <time>2022-06-12T11:03:11.102Z</time>
      </trkpt>
      <trkpt lat="43.2613" lon="17.82436">
        <ele>80.518503</ele>
        <time>2022-06-12T11:03:14.112Z</time>
      </trkpt>
      <trkpt lat="43.2614" lon="17.82437">
        <ele>80.57484</ele>
        <time>2022-06-12T11:03:17.102Z</time>
      </trkpt>
      <trkpt lat="43.26152" lon="17.82438">
        <ele>80.632562</ele>
        <time>2022-06-12T11:03:20.081Z</time>
      </trkpt>
      <trkpt lat="43.26163" lon="17.82439">
        <ele>80.690367</ele>
        <time>2022-06-12T11:03:23.111Z</time>
      </trkpt>
      <trkpt lat="43.26173" lon="17.8244">
        <ele>80.744985</ele>
        <time>2022-06-12T11:03:26.099Z</time>
      </trkpt>
      <trkpt lat="43.26184" lon="17.82441">
        <ele>80.798629</ele>
        <time>2022-06-12T11:03:29.104Z</time>
      </trkpt>
      <trkpt lat="43.26194" lon="17.82443">
        <ele>80.852449</ele>
        <time>2022-06-12T11:03:32.116Z</time>
      </trkpt>
      <trkpt lat="43.26205" lon="17.82444">
        <ele>80.907631</ele>
        <time>2022-06-12T11:03:35.105Z</time>
      </trkpt>
      <trkpt lat="43.26215" lon="17.82445">
        <ele>80.961373</ele>
        <time>2022-06-12T11:03:38.096Z</time>
      </trkpt>
      <trkpt lat="43.26226" lon="17.82446">
        <ele>81.013963</ele>
        <time>2022-06-12T11:03:41.102Z</time>
      </trkpt>
      <trkpt lat="43.26236" lon="17.82448">
        <ele>81.067783</ele>
        <time>2022-06-12T11:03:44.108Z</time>
      </trkpt>
      <trkpt lat="43.26246" lon="17.82449">
        <ele>81.119835</ele>
        <time>2022-06-12T11:03:47.095Z</time>
      </trkpt>
      <trkpt lat="43.26257" lon="17.8245">
        <ele>81.173899</ele>
        <time>2022-06-12T11:03:50.097Z</time>
      </trkpt>
      <trkpt lat="43.26267" lon="17.8245">
        <ele>81.226441</ele>
        <time>2022-06-12T11:03:53.145Z</time>
      </trkpt>
      <trkpt lat="43.26276" lon="17.82451">
        <ele>81.275441</ele>
        <time>2022-06-12T11:03:56.087Z</time>
      </trkpt>
      <trkpt lat="43.26286" lon="17.82452">
        <ele>81.326957</ele>
        <time>2022-06-12T11:03:59.098Z</time>
      </trkpt>
      <trkpt lat="43.26296" lon="17.82453">
        <ele>81.379009</ele>
        <time>2022-06-12T11:04:02.097Z</time>
      </trkpt>
      <trkpt lat="43.26306" lon="17.82455">
        <ele>81.415564</ele>
        <time>2022-06-12T11:04:05.115Z</time>
      </trkpt>
      <trkpt lat="43.26316" lon="17.82456">
        <ele>81.44657</ele>
        <time>2022-06-12T11:04:08.106Z</time>
      </trkpt>
      <trkpt lat="43.26326" lon="17.82457">
        <ele>81.478137</ele>
        <time>2022-06-12T11:04:11.095Z</time>
      </trkpt>
      <trkpt lat="43.26335" lon="17.82459">
        <ele>81.508329</ele>
        <time>2022-06-12T11:04:14.113Z</time>
      </trkpt>
      <trkpt lat="43.26345" lon="17.82459">
        <ele>81.540828</ele>
        <time>2022-06-12T11:04:17.108Z</time>
      </trkpt>
      <trkpt lat="43.26356" lon="17.82461">
        <ele>81.575307</ele>
        <time>2022-06-12T11:04:20.096Z</time>
      </trkpt>
      <trkpt lat="43.26367" lon="17.82462">
        <ele>81.608239</ele>
        <time>2022-06-12T11:04:23.110Z</time>
      </trkpt>
      <trkpt lat="43.26376" lon="17.82463">
        <ele>81.637322</ele>
        <time>2022-06-12T11:04:26.148Z</time>
      </trkpt>
      <trkpt lat="43.26385" lon="17.82464">
        <ele>81.667597</ele>
        <time>2022-06-12T11:04:29.092Z</time>
      </trkpt>
      <trkpt lat="43.26395" lon="17.82464">
        <ele>81.698536</ele>
        <time>2022-06-12T11:04:32.084Z</time>
      </trkpt>
      <trkpt lat="43.26405" lon="17.82466">
        <ele>81.730465</ele>
        <time>2022-06-12T11:04:35.122Z</time>
      </trkpt>
      <trkpt lat="43.26415" lon="17.82466">
        <ele>81.762361</ele>
        <time>2022-06-12T11:04:38.131Z</time>
      </trkpt>
      <trkpt lat="43.26426" lon="17.82467">
        <ele>81.794872</ele>
        <time>2022-06-12T11:04:41.097Z</time>
      </trkpt>
      <trkpt lat="43.26436" lon="17.82469">
        <ele>81.827782</ele>
        <time>2022-06-12T11:04:44.131Z</time>
      </trkpt>
      <trkpt lat="43.26447" lon="17.82469">
        <ele>81.863096</ele>
        <time>2022-06-12T11:04:47.103Z</time>
      </trkpt>
      <trkpt lat="43.26458" lon="17.82469">
        <ele>81.897143</ele>
        <time>2022-06-12T11:04:50.104Z</time>
      </trkpt>
      <trkpt lat="43.26469" lon="17.82465">
        <ele>81.93227</ele>
        <time>2022-06-12T11:04:53.104Z</time>
      </trkpt>
      <trkpt lat="43.26478" lon="17.82459">
        <ele>81.966323</ele>
        <time>2022-06-12T11:04:56.090Z</time>
      </trkpt>
      <trkpt lat="43.26486" lon="17.82449">
        <ele>82.031991</ele>
        <time>2022-06-12T11:04:59.094Z</time>
      </trkpt>
      <trkpt lat="43.2649" lon="17.82436">
        <ele>82.093998</ele>
        <time>2022-06-12T11:05:02.110Z</time>
      </trkpt>
      <trkpt lat="43.26492" lon="17.82424">
        <ele>82.151424</ele>
        <time>2022-06-12T11:05:05.111Z</time>
      </trkpt>
      <trkpt lat="43.26493" lon="17.8241">
        <ele>82.213931</ele>
        <time>2022-06-12T11:05:09.092Z</time>
      </trkpt>
      <trkpt lat="43.26494" lon="17.82398">
        <ele>82.271023</ele>
        <time>2022-06-12T11:05:13.166Z</time>
      </trkpt>
      <trkpt lat="43.26495" lon="17.82385">
        <ele>82.329403</ele>
        <time>2022-06-12T11:05:17.097Z</time>
      </trkpt>
      <trkpt lat="43.26495" lon="17.8237">
        <ele>82.396819</ele>
        <time>2022-06-12T11:05:21.105Z</time>
      </trkpt>
      <trkpt lat="43.26495" lon="17.82354">
        <ele>82.469618</ele>
        <time>2022-06-12T11:05:25.156Z</time>
      </trkpt>
      <trkpt lat="43.26497" lon="17.82341">
        <ele>82.526558</ele>
        <time>2022-06-12T11:05:28.110Z</time>
      </trkpt>
      <trkpt lat="43.26506" lon="17.82334">
        <ele>82.59216</ele>
        <time>2022-06-12T11:05:33.092Z</time>
      </trkpt>
      <trkpt lat="43.26516" lon="17.82333">
        <ele>82.655766</ele>
        <time>2022-06-12T11:05:35.114Z</time>
      </trkpt>
      <trkpt lat="43.26527" lon="17.82331">
        <ele>82.727584</ele>
        <time>2022-06-12T11:05:38.089Z</time>
      </trkpt>
      <trkpt lat="43.26537" lon="17.8233">
        <ele>82.786657</ele>
        <time>2022-06-12T11:05:41.097Z</time>
      </trkpt>
      <trkpt lat="43.26547" lon="17.82329">
        <ele>82.847883</ele>
        <time>2022-06-12T11:05:44.112Z</time>
      </trkpt>
      <trkpt lat="43.26556" lon="17.82328">
        <ele>82.90708</ele>
        <time>2022-06-12T11:05:47.136Z</time>
      </trkpt>
      <trkpt lat="43.26566" lon="17.82326">
        <ele>82.968924</ele>
        <time>2022-06-12T11:05:50.109Z</time>
      </trkpt>
      <trkpt lat="43.26578" lon="17.82325">
        <ele>83.039801</ele>
        <time>2022-06-12T11:05:54.107Z</time>
      </trkpt>
      <trkpt lat="43.26587" lon="17.82325">
        <ele>83.098172</ele>
        <time>2022-06-12T11:05:57.108Z</time>
      </trkpt>
      <trkpt lat="43.26597" lon="17.82324">
        <ele>83.15268</ele>
        <time>2022-06-12T11:06:00.098Z</time>
      </trkpt>
      <trkpt lat="43.26607" lon="17.82324">
        <ele>83.211177</ele>
        <time>2022-06-12T11:06:03.097Z</time>
      </trkpt>
      <trkpt lat="43.26617" lon="17.82324">
        <ele>83.266795</ele>
        <time>2022-06-12T11:06:06.110Z</time>
      </trkpt>
      <trkpt lat="43.26629" lon="17.82323">
        <ele>83.330887</ele>
        <time>2022-06-12T11:06:10.108Z</time>
      </trkpt>
      <trkpt lat="43.26639" lon="17.82322">
        <ele>83.390551</ele>
        <time>2022-06-12T11:06:14.121Z</time>
      </trkpt>
      <trkpt lat="43.2665" lon="17.82321">
        <ele>83.451924</ele>
        <time>2022-06-12T11:06:18.124Z</time>
      </trkpt>
      <trkpt lat="43.2666" lon="17.82321">
        <ele>83.50698</ele>
        <time>2022-06-12T11:06:21.098Z</time>
      </trkpt>
      <trkpt lat="43.2667" lon="17.82321">
        <ele>83.562042</ele>
        <time>2022-06-12T11:06:24.089Z</time>
      </trkpt>
      <trkpt lat="43.26681" lon="17.82319">
        <ele>83.62828</ele>
        <time>2022-06-12T11:06:28.099Z</time>
      </trkpt>
      <trkpt lat="43.26691" lon="17.82319">
        <ele>83.682268</ele>
        <time>2022-06-12T11:06:33.101Z</time>
      </trkpt>
      <trkpt lat="43.26701" lon="17.82321">
        <ele>83.736854</ele>
        <time>2022-06-12T11:06:37.134Z</time>
      </trkpt>
      <trkpt lat="43.26711" lon="17.82321">
        <ele>83.796417</ele>
        <time>2022-06-12T11:06:41.107Z</time>
      </trkpt>
      <trkpt lat="43.2672" lon="17.82321">
        <ele>83.848722</ele>
        <time>2022-06-12T11:06:44.093Z</time>
      </trkpt>
      <trkpt lat="43.26731" lon="17.8232">
        <ele>83.908903</ele>
        <time>2022-06-12T11:06:47.095Z</time>
      </trkpt>
      <trkpt lat="43.26741" lon="17.8232">
        <ele>83.966212</ele>
        <time>2022-06-12T11:06:50.105Z</time>
      </trkpt>
      <trkpt lat="43.26751" lon="17.82319">
        <ele>84.020745</ele>
        <time>2022-06-12T11:06:53.122Z</time>
      </trkpt>
      <trkpt lat="43.2676" lon="17.82319">
        <ele>84.073032</ele>
        <time>2022-06-12T11:06:56.099Z</time>
      </trkpt>
      <trkpt lat="43.2677" lon="17.82318">
        <ele>84.08474</ele>
        <time>2022-06-12T11:06:59.137Z</time>
      </trkpt>
      <trkpt lat="43.26779" lon="17.82318">
        <ele>84.076859</ele>
        <time>2022-06-12T11:07:02.097Z</time>
      </trkpt>
      <trkpt lat="43.26789" lon="17.82317">
        <ele>84.068797</ele>
        <time>2022-06-12T11:07:05.105Z</time>
      </trkpt>
      <trkpt lat="43.26798" lon="17.82316">
        <ele>84.061004</ele>
        <time>2022-06-12T11:07:08.103Z</time>
      </trkpt>
      <trkpt lat="43.26807" lon="17.82316">
        <ele>84.053133</ele>
        <time>2022-06-12T11:07:11.094Z</time>
      </trkpt>
      <trkpt lat="43.26816" lon="17.82316">
        <ele>84.045433</ele>
        <time>2022-06-12T11:07:14.106Z</time>
      </trkpt>
      <trkpt lat="43.26826" lon="17.82315">
        <ele>84.037475</ele>
        <time>2022-06-12T11:07:17.093Z</time>
      </trkpt>
      <trkpt lat="43.26835" lon="17.82315">
        <ele>84.029513</ele>
        <time>2022-06-12T11:07:20.097Z</time>
      </trkpt>
      <trkpt lat="43.26845" lon="17.82314">
        <ele>84.020796</ele>
        <time>2022-06-12T11:07:23.137Z</time>
      </trkpt>
      <trkpt lat="43.26856" lon="17.82314">
        <ele>84.01216</ele>
        <time>2022-06-12T11:07:26.099Z</time>
      </trkpt>
      <trkpt lat="43.26866" lon="17.82313">
        <ele>84.003695</ele>
        <time>2022-06-12T11:07:29.105Z</time>
      </trkpt>
      <trkpt lat="43.26875" lon="17.82313">
        <ele>83.995651</ele>
        <time>2022-06-12T11:07:32.104Z</time>
      </trkpt>
      <trkpt lat="43.26884" lon="17.82313">
        <ele>83.98795</ele>
        <time>2022-06-12T11:07:35.163Z</time>
      </trkpt>
      <trkpt lat="43.26896" lon="17.82312">
        <ele>83.978218</ele>
        <time>2022-06-12T11:07:39.095Z</time>
      </trkpt>
      <trkpt lat="43.26906" lon="17.82312">
        <ele>83.969499</ele>
        <time>2022-06-12T11:07:42.090Z</time>
      </trkpt>
      <trkpt lat="43.26916" lon="17.82311">
        <ele>83.961199</ele>
        <time>2022-06-12T11:07:45.120Z</time>
      </trkpt>
      <trkpt lat="43.26926" lon="17.82311">
        <ele>83.952566</ele>
        <time>2022-06-12T11:07:48.099Z</time>
      </trkpt>
      <trkpt lat="43.26936" lon="17.82311">
        <ele>83.94393</ele>
        <time>2022-06-12T11:07:51.131Z</time>
      </trkpt>
      <trkpt lat="43.26947" lon="17.8231">
        <ele>83.93809</ele>
        <time>2022-06-12T11:07:54.087Z</time>
      </trkpt>
      <trkpt lat="43.26957" lon="17.8231">
        <ele>83.938333</ele>
        <time>2022-06-12T11:07:57.146Z</time>
      </trkpt>
      <trkpt lat="43.26966" lon="17.82309">
        <ele>83.938568</ele>
        <time>2022-06-12T11:08:00.107Z</time>
      </trkpt>
      <trkpt lat="43.26976" lon="17.82308">
        <ele>83.938805</ele>
        <time>2022-06-12T11:08:03.102Z</time>
      </trkpt>
      <trkpt lat="43.26986" lon="17.82308">
        <ele>83.939048</ele>
        <time>2022-06-12T11:08:06.106Z</time>
      </trkpt>
      <trkpt lat="43.26996" lon="17.82307">
        <ele>83.939288</ele>
        <time>2022-06-12T11:08:09.105Z</time>
      </trkpt>
      <trkpt lat="43.27005" lon="17.82307">
        <ele>83.939527</ele>
        <time>2022-06-12T11:08:12.093Z</time>
      </trkpt>
      <trkpt lat="43.27015" lon="17.82307">
        <ele>83.939763</ele>
        <time>2022-06-12T11:08:15.104Z</time>
      </trkpt>
      <trkpt lat="43.27025" lon="17.82306">
        <ele>83.939997</ele>
        <time>2022-06-12T11:08:18.098Z</time>
      </trkpt>
      <trkpt lat="43.27034" lon="17.82306">
        <ele>83.940232</ele>
        <time>2022-06-12T11:08:21.104Z</time>
      </trkpt>
      <trkpt lat="43.27045" lon="17.82305">
        <ele>83.94048</ele>
        <time>2022-06-12T11:08:24.095Z</time>
      </trkpt>
      <trkpt lat="43.27054" lon="17.82305">
        <ele>83.940717</ele>
        <time>2022-06-12T11:08:27.104Z</time>
      </trkpt>
      <trkpt lat="43.27064" lon="17.82305">
        <ele>83.940954</ele>
        <time>2022-06-12T11:08:30.136Z</time>
      </trkpt>
      <trkpt lat="43.27074" lon="17.82304">
        <ele>83.94119</ele>
        <time>2022-06-12T11:08:33.117Z</time>
      </trkpt>
      <trkpt lat="43.27083" lon="17.82304">
        <ele>83.941419</ele>
        <time>2022-06-12T11:08:36.114Z</time>
      </trkpt>
      <trkpt lat="43.27092" lon="17.82304">
        <ele>83.941644</ele>
        <time>2022-06-12T11:08:39.112Z</time>
      </trkpt>
      <trkpt lat="43.27101" lon="17.82303">
        <ele>83.941866</ele>
        <time>2022-06-12T11:08:42.103Z</time>
      </trkpt>
      <trkpt lat="43.27113" lon="17.82305">
        <ele>83.942151</ele>
        <time>2022-06-12T11:08:46.087Z</time>
      </trkpt>
      <trkpt lat="43.27121" lon="17.82316">
        <ele>83.947785</ele>
        <time>2022-06-12T11:08:50.164Z</time>
      </trkpt>
      <trkpt lat="43.27126" lon="17.82328">
        <ele>83.986004</ele>
        <time>2022-06-12T11:08:53.103Z</time>
      </trkpt>
      <trkpt lat="43.27129" lon="17.82343">
        <ele>84.031506</ele>
        <time>2022-06-12T11:08:57.097Z</time>
      </trkpt>
      <trkpt lat="43.27133" lon="17.82355">
        <ele>84.068134</ele>
        <time>2022-06-12T11:09:00.105Z</time>
      </trkpt>
      <trkpt lat="43.27137" lon="17.82367">
        <ele>84.10536</ele>
        <time>2022-06-12T11:09:03.111Z</time>
      </trkpt>
      <trkpt lat="43.2714" lon="17.8238">
        <ele>84.143467</ele>
        <time>2022-06-12T11:09:06.100Z</time>
      </trkpt>
      <trkpt lat="43.27145" lon="17.82395">
        <ele>84.190747</ele>
        <time>2022-06-12T11:09:10.098Z</time>
      </trkpt>
      <trkpt lat="43.2715" lon="17.8241">
        <ele>84.236049</ele>
        <time>2022-06-12T11:09:13.100Z</time>
      </trkpt>
      <trkpt lat="43.27155" lon="17.82423">
        <ele>84.278158</ele>
        <time>2022-06-12T11:09:16.108Z</time>
      </trkpt>
      <trkpt lat="43.27161" lon="17.82437">
        <ele>84.321432</ele>
        <time>2022-06-12T11:09:19.094Z</time>
      </trkpt>
      <trkpt lat="43.27166" lon="17.82449">
        <ele>84.363201</ele>
        <time>2022-06-12T11:09:22.097Z</time>
      </trkpt>
      <trkpt lat="43.27171" lon="17.82461">
        <ele>84.400323</ele>
        <time>2022-06-12T11:09:25.101Z</time>
      </trkpt>
      <trkpt lat="43.27175" lon="17.82473">
        <ele>84.437482</ele>
        <time>2022-06-12T11:09:28.097Z</time>
      </trkpt>
      <trkpt lat="43.2718" lon="17.82484">
        <ele>84.475136</ele>
        <time>2022-06-12T11:09:31.107Z</time>
      </trkpt>
      <trkpt lat="43.27185" lon="17.82495">
        <ele>84.511414</ele>
        <time>2022-06-12T11:09:34.085Z</time>
      </trkpt>
      <trkpt lat="43.2719" lon="17.82506">
        <ele>84.546945</ele>
        <time>2022-06-12T11:09:37.108Z</time>
      </trkpt>
      <trkpt lat="43.27195" lon="17.82518">
        <ele>84.58503</ele>
        <time>2022-06-12T11:09:40.132Z</time>
      </trkpt>
      <trkpt lat="43.272" lon="17.8253">
        <ele>84.625152</ele>
        <time>2022-06-12T11:09:43.092Z</time>
      </trkpt>
      <trkpt lat="43.27204" lon="17.82542">
        <ele>84.607196</ele>
        <time>2022-06-12T11:09:46.104Z</time>
      </trkpt>
      <trkpt lat="43.27209" lon="17.82557">
        <ele>84.55271</ele>
        <time>2022-06-12T11:09:50.097Z</time>
      </trkpt>
      <trkpt lat="43.27213" lon="17.82568">
        <ele>84.50944</ele>
        <time>2022-06-12T11:09:53.088Z</time>
      </trkpt>
      <trkpt lat="43.27218" lon="17.8258">
        <ele>84.461964</ele>
        <time>2022-06-12T11:09:56.127Z</time>
      </trkpt>
      <trkpt lat="43.27223" lon="17.82593">
        <ele>84.415062</ele>
        <time>2022-06-12T11:09:59.099Z</time>
      </trkpt>
      <trkpt lat="43.27228" lon="17.82606">
        <ele>84.366653</ele>
        <time>2022-06-12T11:10:02.133Z</time>
      </trkpt>
      <trkpt lat="43.27232" lon="17.82619">
        <ele>84.319029</ele>
        <time>2022-06-12T11:10:05.102Z</time>
      </trkpt>
      <trkpt lat="43.27237" lon="17.82631">
        <ele>84.271095</ele>
        <time>2022-06-12T11:10:08.142Z</time>
      </trkpt>
      <trkpt lat="43.27242" lon="17.82643">
        <ele>84.225664</ele>
        <time>2022-06-12T11:10:11.107Z</time>
      </trkpt>
      <trkpt lat="43.27247" lon="17.82655">
        <ele>84.179445</ele>
        <time>2022-06-12T11:10:14.108Z</time>
      </trkpt>
      <trkpt lat="43.27252" lon="17.82667">
        <ele>84.131219</ele>
        <time>2022-06-12T11:10:17.096Z</time>
      </trkpt>
      <trkpt lat="43.27257" lon="17.82679">
        <ele>84.083808</ele>
        <time>2022-06-12T11:10:20.106Z</time>
      </trkpt>
      <trkpt lat="43.27262" lon="17.82692">
        <ele>84.036695</ele>
        <time>2022-06-12T11:10:23.089Z</time>
      </trkpt>
      <trkpt lat="43.27266" lon="17.82703">
        <ele>83.992179</ele>
        <time>2022-06-12T11:10:26.096Z</time>
      </trkpt>
      <trkpt lat="43.27271" lon="17.82716">
        <ele>83.943225</ele>
        <time>2022-06-12T11:10:29.103Z</time>
      </trkpt>
      <trkpt lat="43.27277" lon="17.82728">
        <ele>83.897356</ele>
        <time>2022-06-12T11:10:32.121Z</time>
      </trkpt>
      <trkpt lat="43.27282" lon="17.82739">
        <ele>83.853609</ele>
        <time>2022-06-12T11:10:35.099Z</time>
      </trkpt>
      <trkpt lat="43.27288" lon="17.82752">
        <ele>83.82328</ele>
        <time>2022-06-12T11:10:39.092Z</time>
      </trkpt>
      <trkpt lat="43.27295" lon="17.82763">
        <ele>83.968794</ele>
        <time>2022-06-12T11:10:42.096Z</time>
      </trkpt>
      <trkpt lat="43.27302" lon="17.82774">
        <ele>84.125782</ele>
        <time>2022-06-12T11:10:45.099Z</time>
      </trkpt>
      <trkpt lat="43.2731" lon="17.82785">
        <ele>84.287218</ele>
        <time>2022-06-12T11:10:48.086Z</time>
      </trkpt>
      <trkpt lat="43.27319" lon="17.82796">
        <ele>84.455354</ele>
        <time>2022-06-12T11:10:51.104Z</time>
      </trkpt>
      <trkpt lat="43.27328" lon="17.82806">
        <ele>84.621344</ele>
        <time>2022-06-12T11:10:54.107Z</time>
      </trkpt>
      <trkpt lat="43.27336" lon="17.82817">
        <ele>84.78591</ele>
        <time>2022-06-12T11:10:57.106Z</time>
      </trkpt>
      <trkpt lat="43.27345" lon="17.82827">
        <ele>84.947829</ele>
        <time>2022-06-12T11:11:00.100Z</time>
      </trkpt>
      <trkpt lat="43.27353" lon="17.82836">
        <ele>85.101372</ele>
        <time>2022-06-12T11:11:03.101Z</time>
      </trkpt>
      <trkpt lat="43.27362" lon="17.82845">
        <ele>85.251992</ele>
        <time>2022-06-12T11:11:06.112Z</time>
      </trkpt>
      <trkpt lat="43.27371" lon="17.82852">
        <ele>85.408205</ele>
        <time>2022-06-12T11:11:09.096Z</time>
      </trkpt>
      <trkpt lat="43.27381" lon="17.8286">
        <ele>85.563069</ele>
        <time>2022-06-12T11:11:12.095Z</time>
      </trkpt>
      <trkpt lat="43.27389" lon="17.82866">
        <ele>85.703931</ele>
        <time>2022-06-12T11:11:15.093Z</time>
      </trkpt>
      <trkpt lat="43.27399" lon="17.82872">
        <ele>85.85144</ele>
        <time>2022-06-12T11:11:18.108Z</time>
      </trkpt>
      <trkpt lat="43.27408" lon="17.82878">
        <ele>86.001183</ele>
        <time>2022-06-12T11:11:21.138Z</time>
      </trkpt>
      <trkpt lat="43.27418" lon="17.82885">
        <ele>86.159987</ele>
        <time>2022-06-12T11:11:24.097Z</time>
      </trkpt>
      <trkpt lat="43.27428" lon="17.82892">
        <ele>86.312409</ele>
        <time>2022-06-12T11:11:27.132Z</time>
      </trkpt>
      <trkpt lat="43.27437" lon="17.82899">
        <ele>86.419307</ele>
        <time>2022-06-12T11:11:30.093Z</time>
      </trkpt>
      <trkpt lat="43.27447" lon="17.82905">
        <ele>86.495826</ele>
        <time>2022-06-12T11:11:33.139Z</time>
      </trkpt>
      <trkpt lat="43.27456" lon="17.82912">
        <ele>86.573615</ele>
        <time>2022-06-12T11:11:36.088Z</time>
      </trkpt>
      <trkpt lat="43.27467" lon="17.82919">
        <ele>86.653715</ele>
        <time>2022-06-12T11:11:39.098Z</time>
      </trkpt>
      <trkpt lat="43.27477" lon="17.82925">
        <ele>86.731219</ele>
        <time>2022-06-12T11:11:42.098Z</time>
      </trkpt>
      <trkpt lat="43.27486" lon="17.8293">
        <ele>86.806744</ele>
        <time>2022-06-12T11:11:45.144Z</time>
      </trkpt>
      <trkpt lat="43.27495" lon="17.82935">
        <ele>86.876689</ele>
        <time>2022-06-12T11:11:48.098Z</time>
      </trkpt>
      <trkpt lat="43.27505" lon="17.8294">
        <ele>86.948026</ele>
        <time>2022-06-12T11:11:51.098Z</time>
      </trkpt>
      <trkpt lat="43.27514" lon="17.82945">
        <ele>87.016618</ele>
        <time>2022-06-12T11:11:54.101Z</time>
      </trkpt>
      <trkpt lat="43.27522" lon="17.82949">
        <ele>87.081815</ele>
        <time>2022-06-12T11:11:57.096Z</time>
      </trkpt>
      <trkpt lat="43.27531" lon="17.82953">
        <ele>87.148887</ele>
        <time>2022-06-12T11:12:00.101Z</time>
      </trkpt>
      <trkpt lat="43.2754" lon="17.82958">
        <ele>87.215431</ele>
        <time>2022-06-12T11:12:03.110Z</time>
      </trkpt>
      <trkpt lat="43.27549" lon="17.82961">
        <ele>87.284887</ele>
        <time>2022-06-12T11:12:06.144Z</time>
      </trkpt>
      <trkpt lat="43.27558" lon="17.82965">
        <ele>87.34964</ele>
        <time>2022-06-12T11:12:09.099Z</time>
      </trkpt>
      <trkpt lat="43.27569" lon="17.82969">
        <ele>87.42984</ele>
        <time>2022-06-12T11:12:13.105Z</time>
      </trkpt>
      <trkpt lat="43.2758" lon="17.82973">
        <ele>87.511138</ele>
        <time>2022-06-12T11:12:17.101Z</time>
      </trkpt>
      <trkpt lat="43.27588" lon="17.82977">
        <ele>87.576507</ele>
        <time>2022-06-12T11:12:20.084Z</time>
      </trkpt>
      <trkpt lat="43.27599" lon="17.82982">
        <ele>87.657394</ele>
        <time>2022-06-12T11:12:24.148Z</time>
      </trkpt>
      <trkpt lat="43.2761" lon="17.82987">
        <ele>87.67863</ele>
        <time>2022-06-12T11:12:28.097Z</time>
      </trkpt>
      <trkpt lat="43.27621" lon="17.82992">
        <ele>87.700911</ele>
        <time>2022-06-12T11:12:32.091Z</time>
      </trkpt>
      <trkpt lat="43.27632" lon="17.82998">
        <ele>87.72342</ele>
        <time>2022-06-12T11:12:36.099Z</time>
      </trkpt>
      <trkpt lat="43.2764" lon="17.83002">
        <ele>87.741098</ele>
        <time>2022-06-12T11:12:39.102Z</time>
      </trkpt>
      <trkpt lat="43.27649" lon="17.83006">
        <ele>87.759278</ele>
        <time>2022-06-12T11:12:42.100Z</time>
      </trkpt>
      <trkpt lat="43.27659" lon="17.8301">
        <ele>87.778414</ele>
        <time>2022-06-12T11:12:45.133Z</time>
      </trkpt>
      <trkpt lat="43.27669" lon="17.83015">
        <ele>87.798421</ele>
        <time>2022-06-12T11:12:48.094Z</time>
      </trkpt>
      <trkpt lat="43.27678" lon="17.83019">
        <ele>87.818061</ele>
        <time>2022-06-12T11:12:51.109Z</time>
      </trkpt>
      <trkpt lat="43.27688" lon="17.83023">
        <ele>87.837659</ele>
        <time>2022-06-12T11:12:54.106Z</time>
      </trkpt>
      <trkpt lat="43.27698" lon="17.83027">
        <ele>87.856765</ele>
        <time>2022-06-12T11:12:57.098Z</time>
      </trkpt>
      <trkpt lat="43.27706" lon="17.83031">
        <ele>87.874683</ele>
        <time>2022-06-12T11:13:00.097Z</time>
      </trkpt>
      <trkpt lat="43.27716" lon="17.83035">
        <ele>87.893093</ele>
        <time>2022-06-12T11:13:03.131Z</time>
      </trkpt>
      <trkpt lat="43.27725" lon="17.83039">
        <ele>87.912367</ele>
        <time>2022-06-12T11:13:06.094Z</time>
      </trkpt>
      <trkpt lat="43.27735" lon="17.83043">
        <ele>87.931824</ele>
        <time>2022-06-12T11:13:09.100Z</time>
      </trkpt>
      <trkpt lat="43.27744" lon="17.83048">
        <ele>87.951422</ele>
        <time>2022-06-12T11:13:12.103Z</time>
      </trkpt>
      <trkpt lat="43.27754" lon="17.83052">
        <ele>87.971204</ele>
        <time>2022-06-12T11:13:15.111Z</time>
      </trkpt>
      <trkpt lat="43.27764" lon="17.83056">
        <ele>87.991211</ele>
        <time>2022-06-12T11:13:18.102Z</time>
      </trkpt>
      <trkpt lat="43.27774" lon="17.83059">
        <ele>87.998286</ele>
        <time>2022-06-12T11:13:21.100Z</time>
      </trkpt>
      <trkpt lat="43.27784" lon="17.83063">
        <ele>87.985022</ele>
        <time>2022-06-12T11:13:24.118Z</time>
      </trkpt>
      <trkpt lat="43.27794" lon="17.83067">
        <ele>87.971229</ele>
        <time>2022-06-12T11:13:27.106Z</time>
      </trkpt>
      <trkpt lat="43.27803" lon="17.8307">
        <ele>87.959222</ele>
        <time>2022-06-12T11:13:30.093Z</time>
      </trkpt>
      <trkpt lat="43.27813" lon="17.83074">
        <ele>87.945225</ele>
        <time>2022-06-12T11:13:33.087Z</time>
      </trkpt>
      <trkpt lat="43.27823" lon="17.83077">
        <ele>87.931757</ele>
        <time>2022-06-12T11:13:36.105Z</time>
      </trkpt>
      <trkpt lat="43.27833" lon="17.8308">
        <ele>87.918398</ele>
        <time>2022-06-12T11:13:39.110Z</time>
      </trkpt>
      <trkpt lat="43.27843" lon="17.83083">
        <ele>87.904932</ele>
        <time>2022-06-12T11:13:42.093Z</time>
      </trkpt>
      <trkpt lat="43.27853" lon="17.83087">
        <ele>87.891233</ele>
        <time>2022-06-12T11:13:45.119Z</time>
      </trkpt>
      <trkpt lat="43.27864" lon="17.8309">
        <ele>87.877109</ele>
        <time>2022-06-12T11:13:48.091Z</time>
      </trkpt>
      <trkpt lat="43.27874" lon="17.83093">
        <ele>87.863093</ele>
        <time>2022-06-12T11:13:51.100Z</time>
      </trkpt>
      <trkpt lat="43.27886" lon="17.83097">
        <ele>87.847954</ele>
        <time>2022-06-12T11:13:54.090Z</time>
      </trkpt>
      <trkpt lat="43.27897" lon="17.831">
        <ele>87.83309</ele>
        <time>2022-06-12T11:13:57.101Z</time>
      </trkpt>
      <trkpt lat="43.27908" lon="17.83104">
        <ele>87.818671</ele>
        <time>2022-06-12T11:14:00.119Z</time>
      </trkpt>
      <trkpt lat="43.27919" lon="17.83107">
        <ele>87.804016</ele>
        <time>2022-06-12T11:14:03.109Z</time>
      </trkpt>
      <trkpt lat="43.27929" lon="17.8311">
        <ele>87.789636</ele>
        <time>2022-06-12T11:14:06.097Z</time>
      </trkpt>
      <trkpt lat="43.27939" lon="17.83113">
        <ele>87.776213</ele>
        <time>2022-06-12T11:14:09.118Z</time>
      </trkpt>
      <trkpt lat="43.2795" lon="17.83116">
        <ele>87.756312</ele>
        <time>2022-06-12T11:14:12.098Z</time>
      </trkpt>
      <trkpt lat="43.2796" lon="17.8312">
        <ele>87.728524</ele>
        <time>2022-06-12T11:14:15.134Z</time>
      </trkpt>
      <trkpt lat="43.27971" lon="17.83124">
        <ele>87.700886</ele>
        <time>2022-06-12T11:14:18.103Z</time>
      </trkpt>
      <trkpt lat="43.27982" lon="17.83127">
        <ele>87.672321</ele>
        <time>2022-06-12T11:14:21.106Z</time>
      </trkpt>
      <trkpt lat="43.27993" lon="17.83129">
        <ele>87.643621</ele>
        <time>2022-06-12T11:14:24.097Z</time>
      </trkpt>
      <trkpt lat="43.28004" lon="17.83132">
        <ele>87.615494</ele>
        <time>2022-06-12T11:14:27.107Z</time>
      </trkpt>
      <trkpt lat="43.28015" lon="17.83134">
        <ele>87.58589</ele>
        <time>2022-06-12T11:14:30.092Z</time>
      </trkpt>
      <trkpt lat="43.28026" lon="17.83137">
        <ele>87.557073</ele>
        <time>2022-06-12T11:14:33.098Z</time>
      </trkpt>
      <trkpt lat="43.28037" lon="17.83139">
        <ele>87.528004</ele>
        <time>2022-06-12T11:14:36.088Z</time>
      </trkpt>
      <trkpt lat="43.28048" lon="17.83142">
        <ele>87.499626</ele>
        <time>2022-06-12T11:14:39.098Z</time>
      </trkpt>
      <trkpt lat="43.28059" lon="17.83145">
        <ele>87.470526</ele>
        <time>2022-06-12T11:14:42.092Z</time>
      </trkpt>
      <trkpt lat="43.28071" lon="17.83148">
        <ele>87.441359</ele>
        <time>2022-06-12T11:14:45.143Z</time>
      </trkpt>
      <trkpt lat="43.28081" lon="17.8315">
        <ele>87.413924</ele>
        <time>2022-06-12T11:14:48.092Z</time>
      </trkpt>
      <trkpt lat="43.28092" lon="17.83151">
        <ele>87.385954</ele>
        <time>2022-06-12T11:14:51.090Z</time>
      </trkpt>
      <trkpt lat="43.28103" lon="17.83152">
        <ele>87.35805</ele>
        <time>2022-06-12T11:14:54.094Z</time>
      </trkpt>
      <trkpt lat="43.28114" lon="17.83151">
        <ele>87.3309</ele>
        <time>2022-06-12T11:14:57.105Z</time>
      </trkpt>
      <trkpt lat="43.28124" lon="17.8315">
        <ele>87.285788</ele>
        <time>2022-06-12T11:15:00.133Z</time>
      </trkpt>
      <trkpt lat="43.28135" lon="17.83146">
        <ele>87.158785</ele>
        <time>2022-06-12T11:15:03.097Z</time>
      </trkpt>
      <trkpt lat="43.28146" lon="17.83143">
        <ele>87.038221</ele>
        <time>2022-06-12T11:15:06.139Z</time>
      </trkpt>
      <trkpt lat="43.28156" lon="17.83139">
        <ele>86.918288</ele>
        <time>2022-06-12T11:15:09.106Z</time>
      </trkpt>
      <trkpt lat="43.28166" lon="17.83133">
        <ele>86.798713</ele>
        <time>2022-06-12T11:15:12.098Z</time>
      </trkpt>
      <trkpt lat="43.28175" lon="17.83126">
        <ele>86.682693</ele>
        <time>2022-06-12T11:15:15.112Z</time>
      </trkpt>
      <trkpt lat="43.28184" lon="17.8312">
        <ele>86.568598</ele>
        <time>2022-06-12T11:15:18.098Z</time>
      </trkpt>
      <trkpt lat="43.28193" lon="17.83114">
        <ele>86.448425</ele>
        <time>2022-06-12T11:15:21.096Z</time>
      </trkpt>
      <trkpt lat="43.28202" lon="17.83107">
        <ele>86.337338</ele>
        <time>2022-06-12T11:15:24.102Z</time>
      </trkpt>
      <trkpt lat="43.28211" lon="17.83101">
        <ele>86.224481</ele>
        <time>2022-06-12T11:15:27.103Z</time>
      </trkpt>
      <trkpt lat="43.2822" lon="17.83095">
        <ele>86.11001</ele>
        <time>2022-06-12T11:15:30.100Z</time>
      </trkpt>
      <trkpt lat="43.28228" lon="17.83088">
        <ele>85.999922</ele>
        <time>2022-06-12T11:15:33.107Z</time>
      </trkpt>
      <trkpt lat="43.28237" lon="17.83081">
        <ele>85.891305</ele>
        <time>2022-06-12T11:15:36.107Z</time>
      </trkpt>
      <trkpt lat="43.28245" lon="17.83075">
        <ele>85.781175</ele>
        <time>2022-06-12T11:15:39.092Z</time>
      </trkpt>
      <trkpt lat="43.28253" lon="17.83068">
        <ele>85.674912</ele>
        <time>2022-06-12T11:15:42.095Z</time>
      </trkpt>
      <trkpt lat="43.28261" lon="17.83061">
        <ele>85.568954</ele>
        <time>2022-06-12T11:15:45.130Z</time>
      </trkpt>
      <trkpt lat="43.28271" lon="17.83052">
        <ele>85.438593</ele>
        <time>2022-06-12T11:15:49.112Z</time>
      </trkpt>
      <trkpt lat="43.2828" lon="17.83042">
        <ele>85.305192</ele>
        <time>2022-06-12T11:15:53.101Z</time>
      </trkpt>
      <trkpt lat="43.28287" lon="17.83034">
        <ele>85.368037</ele>
        <time>2022-06-12T11:15:56.102Z</time>
      </trkpt>
      <trkpt lat="43.28294" lon="17.83026">
        <ele>85.494932</ele>
        <time>2022-06-12T11:15:59.098Z</time>
      </trkpt>
      <trkpt lat="43.28301" lon="17.83017">
        <ele>85.618746</ele>
        <time>2022-06-12T11:16:02.104Z</time>
      </trkpt>
      <trkpt lat="43.28308" lon="17.83007">
        <ele>85.75837</ele>
        <time>2022-06-12T11:16:05.109Z</time>
      </trkpt>
      <trkpt lat="43.28315" lon="17.82997">
        <ele>85.89285</ele>
        <time>2022-06-12T11:16:08.112Z</time>
      </trkpt>
      <trkpt lat="43.28321" lon="17.82987">
        <ele>86.025185</ele>
        <time>2022-06-12T11:16:11.111Z</time>
      </trkpt>
      <trkpt lat="43.28328" lon="17.82976">
        <ele>86.166819</ele>
        <time>2022-06-12T11:16:14.079Z</time>
      </trkpt>
      <trkpt lat="43.28334" lon="17.82966">
        <ele>86.296091</ele>
        <time>2022-06-12T11:16:17.104Z</time>
      </trkpt>
      <trkpt lat="43.2834" lon="17.82956">
        <ele>86.423555</ele>
        <time>2022-06-12T11:16:20.095Z</time>
      </trkpt>
      <trkpt lat="43.28346" lon="17.82945">
        <ele>86.558286</ele>
        <time>2022-06-12T11:16:23.109Z</time>
      </trkpt>
      <trkpt lat="43.28352" lon="17.82935">
        <ele>86.688995</ele>
        <time>2022-06-12T11:16:26.118Z</time>
      </trkpt>
      <trkpt lat="43.28358" lon="17.82925">
        <ele>86.819704</ele>
        <time>2022-06-12T11:16:29.101Z</time>
      </trkpt>
      <trkpt lat="43.28363" lon="17.82915">
        <ele>86.943149</ele>
        <time>2022-06-12T11:16:32.112Z</time>
      </trkpt>
      <trkpt lat="43.28369" lon="17.82904">
        <ele>87.079342</ele>
        <time>2022-06-12T11:16:35.107Z</time>
      </trkpt>
      <trkpt lat="43.28375" lon="17.82893">
        <ele>87.214723</ele>
        <time>2022-06-12T11:16:38.095Z</time>
      </trkpt>
      <trkpt lat="43.28382" lon="17.82882">
        <ele>87.359822</ele>
        <time>2022-06-12T11:16:41.096Z</time>
      </trkpt>
      <trkpt lat="43.28388" lon="17.82871">
        <ele>87.49388</ele>
        <time>2022-06-12T11:16:44.100Z</time>
      </trkpt>
      <trkpt lat="43.28395" lon="17.82859">
        <ele>87.645396</ele>
        <time>2022-06-12T11:16:47.104Z</time>
      </trkpt>
      <trkpt lat="43.28401" lon="17.82849">
        <ele>87.738812</ele>
        <time>2022-06-12T11:16:50.103Z</time>
      </trkpt>
      <trkpt lat="43.28406" lon="17.82838">
        <ele>87.777382</ele>
        <time>2022-06-12T11:16:53.101Z</time>
      </trkpt>
      <trkpt lat="43.28412" lon="17.82828">
        <ele>87.815241</ele>
        <time>2022-06-12T11:16:56.088Z</time>
      </trkpt>
      <trkpt lat="43.28418" lon="17.82818">
        <ele>87.854827</ele>
        <time>2022-06-12T11:16:59.101Z</time>
      </trkpt>
      <trkpt lat="43.28424" lon="17.82807">
        <ele>87.89459</ele>
        <time>2022-06-12T11:17:02.106Z</time>
      </trkpt>
      <trkpt lat="43.28429" lon="17.82796">
        <ele>87.932457</ele>
        <time>2022-06-12T11:17:05.174Z</time>
      </trkpt>
      <trkpt lat="43.28435" lon="17.82786">
        <ele>87.970551</ele>
        <time>2022-06-12T11:17:08.092Z</time>
      </trkpt>
      <trkpt lat="43.28441" lon="17.82775">
        <ele>88.00936</ele>
        <time>2022-06-12T11:17:11.100Z</time>
      </trkpt>
      <trkpt lat="43.28446" lon="17.82764">
        <ele>88.04966</ele>
        <time>2022-06-12T11:17:14.109Z</time>
      </trkpt>
      <trkpt lat="43.28452" lon="17.82753">
        <ele>88.089451</ele>
        <time>2022-06-12T11:17:17.113Z</time>
      </trkpt>
      <trkpt lat="43.28458" lon="17.82742">
        <ele>88.131381</ele>
        <time>2022-06-12T11:17:20.100Z</time>
      </trkpt>
      <trkpt lat="43.28465" lon="17.82731">
        <ele>88.173046</ele>
        <time>2022-06-12T11:17:23.099Z</time>
      </trkpt>
      <trkpt lat="43.2847" lon="17.8272">
        <ele>88.211382</ele>
        <time>2022-06-12T11:17:26.096Z</time>
      </trkpt>
      <trkpt lat="43.28476" lon="17.8271">
        <ele>88.249482</ele>
        <time>2022-06-12T11:17:29.113Z</time>
      </trkpt>
      <trkpt lat="43.28482" lon="17.82699">
        <ele>88.288079</ele>
        <time>2022-06-12T11:17:32.105Z</time>
      </trkpt>
      <trkpt lat="43.28487" lon="17.82687">
        <ele>88.331301</ele>
        <time>2022-06-12T11:17:35.111Z</time>
      </trkpt>
      <trkpt lat="43.28493" lon="17.82676">
        <ele>88.369875</ele>
        <time>2022-06-12T11:17:38.096Z</time>
      </trkpt>
      <trkpt lat="43.28498" lon="17.82666">
        <ele>88.407497</ele>
        <time>2022-06-12T11:17:41.109Z</time>
      </trkpt>
      <trkpt lat="43.28504" lon="17.82655">
        <ele>88.447499</ele>
        <time>2022-06-12T11:17:44.097Z</time>
      </trkpt>
      <trkpt lat="43.28509" lon="17.82645">
        <ele>88.547476</ele>
        <time>2022-06-12T11:17:47.107Z</time>
      </trkpt>
      <trkpt lat="43.28515" lon="17.82634">
        <ele>88.661483</ele>
        <time>2022-06-12T11:17:50.106Z</time>
      </trkpt>
      <trkpt lat="43.2852" lon="17.82623">
        <ele>88.77828</ele>
        <time>2022-06-12T11:17:53.091Z</time>
      </trkpt>
      <trkpt lat="43.28526" lon="17.82612">
        <ele>88.900158</ele>
        <time>2022-06-12T11:17:56.103Z</time>
      </trkpt>
      <trkpt lat="43.28531" lon="17.82602">
        <ele>89.011971</ele>
        <time>2022-06-12T11:17:59.140Z</time>
      </trkpt>
      <trkpt lat="43.28537" lon="17.8259">
        <ele>89.131044</ele>
        <time>2022-06-12T11:18:02.094Z</time>
      </trkpt>
      <trkpt lat="43.28541" lon="17.82578">
        <ele>89.255466</ele>
        <time>2022-06-12T11:18:05.133Z</time>
      </trkpt>
      <trkpt lat="43.28546" lon="17.82565">
        <ele>89.380181</ele>
        <time>2022-06-12T11:18:08.096Z</time>
      </trkpt>
      <trkpt lat="43.2855" lon="17.82552">
        <ele>89.502561</ele>
        <time>2022-06-12T11:18:11.080Z</time>
      </trkpt>
      <trkpt lat="43.28554" lon="17.8254">
        <ele>89.622243</ele>
        <time>2022-06-12T11:18:14.096Z</time>
      </trkpt>
      <trkpt lat="43.28557" lon="17.82527">
        <ele>89.740237</ele>
        <time>2022-06-12T11:18:17.108Z</time>
      </trkpt>
      <trkpt lat="43.2856" lon="17.82514">
        <ele>89.864409</ele>
        <time>2022-06-12T11:18:20.102Z</time>
      </trkpt>
      <trkpt lat="43.28563" lon="17.82501">
        <ele>89.983695</ele>
        <time>2022-06-12T11:18:23.096Z</time>
      </trkpt>
      <trkpt lat="43.28565" lon="17.82487">
        <ele>90.10841</ele>
        <time>2022-06-12T11:18:26.105Z</time>
      </trkpt>
      <trkpt lat="43.28568" lon="17.82473">
        <ele>90.235389</ele>
        <time>2022-06-12T11:18:29.096Z</time>
      </trkpt>
      <trkpt lat="43.2857" lon="17.82458">
        <ele>90.367535</ele>
        <time>2022-06-12T11:18:32.126Z</time>
      </trkpt>
      <trkpt lat="43.28573" lon="17.82446">
        <ele>90.484081</ele>
        <time>2022-06-12T11:18:35.111Z</time>
      </trkpt>
      <trkpt lat="43.28576" lon="17.82433">
        <ele>90.600821</ele>
        <time>2022-06-12T11:18:38.126Z</time>
      </trkpt>
      <trkpt lat="43.28578" lon="17.82421">
        <ele>90.642986</ele>
        <time>2022-06-12T11:18:41.106Z</time>
      </trkpt>
      <trkpt lat="43.28581" lon="17.82405">
        <ele>90.667232</ele>
        <time>2022-06-12T11:18:45.135Z</time>
      </trkpt>
      <trkpt lat="43.28584" lon="17.82393">
        <ele>90.68753</ele>
        <time>2022-06-12T11:18:48.109Z</time>
      </trkpt>
      <trkpt lat="43.28588" lon="17.8238">
        <ele>90.707757</ele>
        <time>2022-06-12T11:18:51.088Z</time>
      </trkpt>
      <trkpt lat="43.28593" lon="17.82366">
        <ele>90.731519</ele>
        <time>2022-06-12T11:18:55.118Z</time>
      </trkpt>
      <trkpt lat="43.286" lon="17.82353">
        <ele>90.755697</ele>
        <time>2022-06-12T11:18:59.095Z</time>
      </trkpt>
      <trkpt lat="43.28607" lon="17.82344">
        <ele>90.77575</ele>
        <time>2022-06-12T11:19:02.096Z</time>
      </trkpt>
      <trkpt lat="43.28615" lon="17.82334">
        <ele>90.797886</ele>
        <time>2022-06-12T11:19:05.111Z</time>
      </trkpt>
      <trkpt lat="43.28623" lon="17.82324">
        <ele>90.820109</ele>
        <time>2022-06-12T11:19:08.096Z</time>
      </trkpt>
      <trkpt lat="43.28632" lon="17.82317">
        <ele>90.841932</ele>
        <time>2022-06-12T11:19:11.081Z</time>
      </trkpt>
      <trkpt lat="43.28641" lon="17.82311">
        <ele>90.861809</ele>
        <time>2022-06-12T11:19:14.091Z</time>
      </trkpt>
      <trkpt lat="43.28649" lon="17.82305">
        <ele>90.880929</ele>
        <time>2022-06-12T11:19:17.090Z</time>
      </trkpt>
      <trkpt lat="43.28659" lon="17.82299">
        <ele>90.903</ele>
        <time>2022-06-12T11:19:20.101Z</time>
      </trkpt>
      <trkpt lat="43.28667" lon="17.82294">
        <ele>90.923008</ele>
        <time>2022-06-12T11:19:23.095Z</time>
      </trkpt>
      <trkpt lat="43.28676" lon="17.8229">
        <ele>90.94239</ele>
        <time>2022-06-12T11:19:26.104Z</time>
      </trkpt>
      <trkpt lat="43.28686" lon="17.82287">
        <ele>90.963053</ele>
        <time>2022-06-12T11:19:29.095Z</time>
      </trkpt>
      <trkpt lat="43.28696" lon="17.82285">
        <ele>90.983938</ele>
        <time>2022-06-12T11:19:32.109Z</time>
      </trkpt>
      <trkpt lat="43.28705" lon="17.82284">
        <ele>91.004824</ele>
        <time>2022-06-12T11:19:35.101Z</time>
      </trkpt>
      <trkpt lat="43.28715" lon="17.82284">
        <ele>91.042033</ele>
        <time>2022-06-12T11:19:38.148Z</time>
      </trkpt>
      <trkpt lat="43.28726" lon="17.82287">
        <ele>91.088955</ele>
        <time>2022-06-12T11:19:42.094Z</time>
      </trkpt>
      <trkpt lat="43.28738" lon="17.82294">
        <ele>91.138358</ele>
        <time>2022-06-12T11:19:46.095Z</time>
      </trkpt>
      <trkpt lat="43.28747" lon="17.82298">
        <ele>91.17819</ele>
        <time>2022-06-12T11:19:49.105Z</time>
      </trkpt>
      <trkpt lat="43.28757" lon="17.82303">
        <ele>91.21989</ele>
        <time>2022-06-12T11:19:52.143Z</time>
      </trkpt>
      <trkpt lat="43.28766" lon="17.82307">
        <ele>91.259982</ele>
        <time>2022-06-12T11:19:55.112Z</time>
      </trkpt>
      <trkpt lat="43.28775" lon="17.82311">
        <ele>91.296784</ele>
        <time>2022-06-12T11:19:58.137Z</time>
      </trkpt>
      <trkpt lat="43.28784" lon="17.82314">
        <ele>91.332842</ele>
        <time>2022-06-12T11:20:01.105Z</time>
      </trkpt>
      <trkpt lat="43.28793" lon="17.82316">
        <ele>91.369169</ele>
        <time>2022-06-12T11:20:04.119Z</time>
      </trkpt>
      <trkpt lat="43.28805" lon="17.82319">
        <ele>91.417706</ele>
        <time>2022-06-12T11:20:08.107Z</time>
      </trkpt>
      <trkpt lat="43.28814" lon="17.8232">
        <ele>91.456017</ele>
        <time>2022-06-12T11:20:11.103Z</time>
      </trkpt>
      <trkpt lat="43.28824" lon="17.82322">
        <ele>91.493932</ele>
        <time>2022-06-12T11:20:14.125Z</time>
      </trkpt>
      <trkpt lat="43.28833" lon="17.82324">
        <ele>91.531743</ele>
        <time>2022-06-12T11:20:17.102Z</time>
      </trkpt>
      <trkpt lat="43.28843" lon="17.82325">
        <ele>91.571063</ele>
        <time>2022-06-12T11:20:20.104Z</time>
      </trkpt>
      <trkpt lat="43.28853" lon="17.82325">
        <ele>91.611105</ele>
        <time>2022-06-12T11:20:23.092Z</time>
      </trkpt>
      <trkpt lat="43.28863" lon="17.82326">
        <ele>91.650322</ele>
        <time>2022-06-12T11:20:26.125Z</time>
      </trkpt>
      <trkpt lat="43.28872" lon="17.82327">
        <ele>91.68765</ele>
        <time>2022-06-12T11:20:29.109Z</time>
      </trkpt>
      <trkpt lat="43.28882" lon="17.82328">
        <ele>91.73577</ele>
        <time>2022-06-12T11:20:32.138Z</time>
      </trkpt>
      <trkpt lat="43.28891" lon="17.82328">
        <ele>91.841208</ele>
        <time>2022-06-12T11:20:35.105Z</time>
      </trkpt>
      <trkpt lat="43.28901" lon="17.82329">
        <ele>91.949905</ele>
        <time>2022-06-12T11:20:38.130Z</time>
      </trkpt>
      <trkpt lat="43.2891" lon="17.82329">
        <ele>92.053146</ele>
        <time>2022-06-12T11:20:41.106Z</time>
      </trkpt>
      <trkpt lat="43.28922" lon="17.8233">
        <ele>92.187802</ele>
        <time>2022-06-12T11:20:45.146Z</time>
      </trkpt>
      <trkpt lat="43.28932" lon="17.8233">
        <ele>92.294259</ele>
        <time>2022-06-12T11:20:48.091Z</time>
      </trkpt>
      <trkpt lat="43.28941" lon="17.82331">
        <ele>92.402972</ele>
        <time>2022-06-12T11:20:51.098Z</time>
      </trkpt>
      <trkpt lat="43.2895" lon="17.82331">
        <ele>92.506212</ele>
        <time>2022-06-12T11:20:54.104Z</time>
      </trkpt>
      <trkpt lat="43.28959" lon="17.82332">
        <ele>92.607137</ele>
        <time>2022-06-12T11:20:57.095Z</time>
      </trkpt>
      <trkpt lat="43.28969" lon="17.82333">
        <ele>92.710378</ele>
        <time>2022-06-12T11:21:00.111Z</time>
      </trkpt>
      <trkpt lat="43.28981" lon="17.82333">
        <ele>92.844895</ele>
        <time>2022-06-12T11:21:04.104Z</time>
      </trkpt>
      <trkpt lat="43.2899" lon="17.82333">
        <ele>92.947991</ele>
        <time>2022-06-12T11:21:07.091Z</time>
      </trkpt>
      <trkpt lat="43.28999" lon="17.82333">
        <ele>93.055556</ele>
        <time>2022-06-12T11:21:10.098Z</time>
      </trkpt>
      <trkpt lat="43.29009" lon="17.82333">
        <ele>93.15757</ele>
        <time>2022-06-12T11:21:13.098Z</time>
      </trkpt>
      <trkpt lat="43.29018" lon="17.82334">
        <ele>93.260769</ele>
        <time>2022-06-12T11:21:16.101Z</time>
      </trkpt>
      <trkpt lat="43.29029" lon="17.82335">
        <ele>93.389935</ele>
        <time>2022-06-12T11:21:20.108Z</time>
      </trkpt>
      <trkpt lat="43.29039" lon="17.82335">
        <ele>93.49974</ele>
        <time>2022-06-12T11:21:23.132Z</time>
      </trkpt>
      <trkpt lat="43.29051" lon="17.82336">
        <ele>93.63238</ele>
        <time>2022-06-12T11:21:27.104Z</time>
      </trkpt>
      <trkpt lat="43.2906" lon="17.82336">
        <ele>93.734345</ele>
        <time>2022-06-12T11:21:30.096Z</time>
      </trkpt>
      <trkpt lat="43.29072" lon="17.82337">
        <ele>93.553473</ele>
        <time>2022-06-12T11:21:34.109Z</time>
      </trkpt>
      <trkpt lat="43.29084" lon="17.82336">
        <ele>93.371695</ele>
        <time>2022-06-12T11:21:38.092Z</time>
      </trkpt>
      <trkpt lat="43.29096" lon="17.82336">
        <ele>93.191228</ele>
        <time>2022-06-12T11:21:42.099Z</time>
      </trkpt>
      <trkpt lat="43.29105" lon="17.82335">
        <ele>93.050625</ele>
        <time>2022-06-12T11:21:45.113Z</time>
      </trkpt>
      <trkpt lat="43.29117" lon="17.82334">
        <ele>92.868633</ele>
        <time>2022-06-12T11:21:49.105Z</time>
      </trkpt>
      <trkpt lat="43.29126" lon="17.82334">
        <ele>92.729468</ele>
        <time>2022-06-12T11:21:52.089Z</time>
      </trkpt>
      <trkpt lat="43.29135" lon="17.82333">
        <ele>92.589927</ele>
        <time>2022-06-12T11:21:55.100Z</time>
      </trkpt>
      <trkpt lat="43.29144" lon="17.82331">
        <ele>92.453211</ele>
        <time>2022-06-12T11:21:58.110Z</time>
      </trkpt>
      <trkpt lat="43.29154" lon="17.8233">
        <ele>92.304537</ele>
        <time>2022-06-12T11:22:01.089Z</time>
      </trkpt>
      <trkpt lat="43.29163" lon="17.82329">
        <ele>92.158811</ele>
        <time>2022-06-12T11:22:04.109Z</time>
      </trkpt>
      <trkpt lat="43.29173" lon="17.82328">
        <ele>92.013182</ele>
        <time>2022-06-12T11:22:07.107Z</time>
      </trkpt>
      <trkpt lat="43.29182" lon="17.82326">
        <ele>91.873918</ele>
        <time>2022-06-12T11:22:10.096Z</time>
      </trkpt>
      <trkpt lat="43.29194" lon="17.82324">
        <ele>91.685814</ele>
        <time>2022-06-12T11:22:14.136Z</time>
      </trkpt>
      <trkpt lat="43.29204" lon="17.82322">
        <ele>91.538348</ele>
        <time>2022-06-12T11:22:17.096Z</time>
      </trkpt>
      <trkpt lat="43.29213" lon="17.82321">
        <ele>91.39683</ele>
        <time>2022-06-12T11:22:20.100Z</time>
      </trkpt>
      <trkpt lat="43.29222" lon="17.82319">
        <ele>91.251174</ele>
        <time>2022-06-12T11:22:23.116Z</time>
      </trkpt>
      <trkpt lat="43.29231" lon="17.82317">
        <ele>91.10952</ele>
        <time>2022-06-12T11:22:26.095Z</time>
      </trkpt>
      <trkpt lat="43.29241" lon="17.82315">
        <ele>90.998501</ele>
        <time>2022-06-12T11:22:29.107Z</time>
      </trkpt>
      <trkpt lat="43.2925" lon="17.82313">
        <ele>91.05571</ele>
        <time>2022-06-12T11:22:32.092Z</time>
      </trkpt>
      <trkpt lat="43.2926" lon="17.82312">
        <ele>91.114714</ele>
        <time>2022-06-12T11:22:35.122Z</time>
      </trkpt>
      <trkpt lat="43.29269" lon="17.8231">
        <ele>91.173614</ele>
        <time>2022-06-12T11:22:38.105Z</time>
      </trkpt>
      <trkpt lat="43.29279" lon="17.82308">
        <ele>91.230225</ele>
        <time>2022-06-12T11:22:41.130Z</time>
      </trkpt>
      <trkpt lat="43.29288" lon="17.82307">
        <ele>91.286298</ele>
        <time>2022-06-12T11:22:44.121Z</time>
      </trkpt>
      <trkpt lat="43.29297" lon="17.82305">
        <ele>91.343998</ele>
        <time>2022-06-12T11:22:47.135Z</time>
      </trkpt>
      <trkpt lat="43.29307" lon="17.82304">
        <ele>91.401151</ele>
        <time>2022-06-12T11:22:50.104Z</time>
      </trkpt>
      <trkpt lat="43.29316" lon="17.82302">
        <ele>91.457054</ele>
        <time>2022-06-12T11:22:53.110Z</time>
      </trkpt>
      <trkpt lat="43.29325" lon="17.82301">
        <ele>91.51406</ele>
        <time>2022-06-12T11:22:56.130Z</time>
      </trkpt>
      <trkpt lat="43.29335" lon="17.82299">
        <ele>91.570513</ele>
        <time>2022-06-12T11:22:59.108Z</time>
      </trkpt>
      <trkpt lat="43.29344" lon="17.82298">
        <ele>91.626415</ele>
        <time>2022-06-12T11:23:02.113Z</time>
      </trkpt>
      <trkpt lat="43.29356" lon="17.82296">
        <ele>91.696905</ele>
        <time>2022-06-12T11:23:06.100Z</time>
      </trkpt>
      <trkpt lat="43.29365" lon="17.82295">
        <ele>91.755541</ele>
        <time>2022-06-12T11:23:09.143Z</time>
      </trkpt>
      <trkpt lat="43.29374" lon="17.82294">
        <ele>91.810024</ele>
        <time>2022-06-12T11:23:12.094Z</time>
      </trkpt>
      <trkpt lat="43.29383" lon="17.82293">
        <ele>91.864585</ele>
        <time>2022-06-12T11:23:15.108Z</time>
      </trkpt>
      <trkpt lat="43.29393" lon="17.82292">
        <ele>91.920909</ele>
        <time>2022-06-12T11:23:18.093Z</time>
      </trkpt>
      <trkpt lat="43.29402" lon="17.8229">
        <ele>91.978063</ele>
        <time>2022-06-12T11:23:21.095Z</time>
      </trkpt>
      <trkpt lat="43.29414" lon="17.82289">
        <ele>92.04829</ele>
        <time>2022-06-12T11:23:25.099Z</time>
      </trkpt>
      <trkpt lat="43.29423" lon="17.82287">
        <ele>92.117517</ele>
        <time>2022-06-12T11:23:28.105Z</time>
      </trkpt>
      <trkpt lat="43.29434" lon="17.82286">
        <ele>92.2211</ele>
        <time>2022-06-12T11:23:32.125Z</time>
      </trkpt>
      <trkpt lat="43.29446" lon="17.82283">
        <ele>92.328817</ele>
        <time>2022-06-12T11:23:36.096Z</time>
      </trkpt>
      <trkpt lat="43.29455" lon="17.82282">
        <ele>92.408457</ele>
        <time>2022-06-12T11:23:39.102Z</time>
      </trkpt>
      <trkpt lat="43.29467" lon="17.8228">
        <ele>92.517688</ele>
        <time>2022-06-12T11:23:43.096Z</time>
      </trkpt>
      <trkpt lat="43.29477" lon="17.82278">
        <ele>92.605676</ele>
        <time>2022-06-12T11:23:46.089Z</time>
      </trkpt>
      <trkpt lat="43.29487" lon="17.82276">
        <ele>92.691904</ele>
        <time>2022-06-12T11:23:49.113Z</time>
      </trkpt>
      <trkpt lat="43.29496" lon="17.82274">
        <ele>92.776788</ele>
        <time>2022-06-12T11:23:52.090Z</time>
      </trkpt>
      <trkpt lat="43.29508" lon="17.82271">
        <ele>92.884691</ele>
        <time>2022-06-12T11:23:56.099Z</time>
      </trkpt>
      <trkpt lat="43.29518" lon="17.82269">
        <ele>92.969574</ele>
        <time>2022-06-12T11:23:59.104Z</time>
      </trkpt>
      <trkpt lat="43.29527" lon="17.82267">
        <ele>93.051609</ele>
        <time>2022-06-12T11:24:02.103Z</time>
      </trkpt>
      <trkpt lat="43.29536" lon="17.82265">
        <ele>93.135506</ele>
        <time>2022-06-12T11:24:05.107Z</time>
      </trkpt>
      <trkpt lat="43.29545" lon="17.82263">
        <ele>93.219192</ele>
        <time>2022-06-12T11:24:08.092Z</time>
      </trkpt>
      <trkpt lat="43.29555" lon="17.8226">
        <ele>93.30412</ele>
        <time>2022-06-12T11:24:11.096Z</time>
      </trkpt>
      <trkpt lat="43.29566" lon="17.82256">
        <ele>93.409274</ele>
        <time>2022-06-12T11:24:15.109Z</time>
      </trkpt>
      <trkpt lat="43.29575" lon="17.82253">
        <ele>93.490445</ele>
        <time>2022-06-12T11:24:18.155Z</time>
      </trkpt>
      <trkpt lat="43.29584" lon="17.8225">
        <ele>93.574633</ele>
        <time>2022-06-12T11:24:21.111Z</time>
      </trkpt>
      <trkpt lat="43.29593" lon="17.82246">
        <ele>93.657282</ele>
        <time>2022-06-12T11:24:24.094Z</time>
      </trkpt>
      <trkpt lat="43.29602" lon="17.82243">
        <ele>93.725295</ele>
        <time>2022-06-12T11:24:27.092Z</time>
      </trkpt>
      <trkpt lat="43.29612" lon="17.82238">
        <ele>93.78824</ele>
        <time>2022-06-12T11:24:30.109Z</time>
      </trkpt>
      <trkpt lat="43.29622" lon="17.82235">
        <ele>93.856984</ele>
        <time>2022-06-12T11:24:33.104Z</time>
      </trkpt>
      <trkpt lat="43.29632" lon="17.8223">
        <ele>93.923766</ele>
        <time>2022-06-12T11:24:36.078Z</time>
      </trkpt>
      <trkpt lat="43.29641" lon="17.82226">
        <ele>93.986711</ele>
        <time>2022-06-12T11:24:39.100Z</time>
      </trkpt>
      <trkpt lat="43.2965" lon="17.82222">
        <ele>94.051225</ele>
        <time>2022-06-12T11:24:42.108Z</time>
      </trkpt>
      <trkpt lat="43.2966" lon="17.82218">
        <ele>94.114641</ele>
        <time>2022-06-12T11:24:45.157Z</time>
      </trkpt>
      <trkpt lat="43.29669" lon="17.82214">
        <ele>94.175502</ele>
        <time>2022-06-12T11:24:48.101Z</time>
      </trkpt>
      <trkpt lat="43.29678" lon="17.82211">
        <ele>94.239125</ele>
        <time>2022-06-12T11:24:51.082Z</time>
      </trkpt>
      <trkpt lat="43.29688" lon="17.82206">
        <ele>94.30654</ele>
        <time>2022-06-12T11:24:54.097Z</time>
      </trkpt>
      <trkpt lat="43.29698" lon="17.82202">
        <ele>94.373409</ele>
        <time>2022-06-12T11:24:57.104Z</time>
      </trkpt>
      <trkpt lat="43.29708" lon="17.82199">
        <ele>94.438291</ele>
        <time>2022-06-12T11:25:00.131Z</time>
      </trkpt>
      <trkpt lat="43.29717" lon="17.82196">
        <ele>94.500656</ele>
        <time>2022-06-12T11:25:03.096Z</time>
      </trkpt>
      <trkpt lat="43.29726" lon="17.82193">
        <ele>94.563372</ele>
        <time>2022-06-12T11:25:06.104Z</time>
      </trkpt>
      <trkpt lat="43.29738" lon="17.82192">
        <ele>94.63718</ele>
        <time>2022-06-12T11:25:10.096Z</time>
      </trkpt>
      <trkpt lat="43.29748" lon="17.82191">
        <ele>94.704905</ele>
        <time>2022-06-12T11:25:16.099Z</time>
      </trkpt>
      <trkpt lat="43.29757" lon="17.82182">
        <ele>94.777157</ele>
        <time>2022-06-12T11:28:07.068Z</time>
      </trkpt>
      <trkpt lat="43.29765" lon="17.82174">
        <ele>94.837637</ele>
        <time>2022-06-12T11:28:47.081Z</time>
      </trkpt>
      <trkpt lat="43.29776" lon="17.8216">
        <ele>94.452725</ele>
        <time>2022-06-12T11:29:55.094Z</time>
      </trkpt>
      <trkpt lat="43.29787" lon="17.82144">
        <ele>94.039767</ele>
        <time>2022-06-12T11:30:48.117Z</time>
      </trkpt>
      <trkpt lat="43.298" lon="17.8213">
        <ele>93.597055</ele>
        <time>2022-06-12T11:38:33.103Z</time>
      </trkpt>
      <trkpt lat="43.29795" lon="17.82143">
        <ele>93.320285</ele>
        <time>2022-06-12T11:51:49.095Z</time>
      </trkpt>
      <trkpt lat="43.29787" lon="17.8215">
        <ele>93.079311</ele>
        <time>2022-06-12T11:51:59.088Z</time>
      </trkpt>
      <trkpt lat="43.2978" lon="17.82157">
        <ele>92.836145</ele>
        <time>2022-06-12T11:52:11.094Z</time>
      </trkpt>
      <trkpt lat="43.29774" lon="17.82171">
        <ele>92.52637</ele>
        <time>2022-06-12T11:59:56.113Z</time>
      </trkpt>
      <trkpt lat="43.2977" lon="17.82157">
        <ele>92.246115</ele>
        <time>2022-06-12T12:15:27.089Z</time>
      </trkpt>
      <trkpt lat="43.29781" lon="17.82164">
        <ele>91.929756</ele>
        <time>2022-06-12T12:24:45.104Z</time>
      </trkpt>
      <trkpt lat="43.29789" lon="17.82173">
        <ele>91.669924</ele>
        <time>2022-06-12T12:24:53.121Z</time>
      </trkpt>
      <trkpt lat="43.29806" lon="17.8218">
        <ele>91.198492</ele>
        <time>2022-06-12T12:25:56.097Z</time>
      </trkpt>
      <trkpt lat="43.29816" lon="17.82183">
        <ele>90.936649</ele>
        <time>2022-06-12T12:26:03.084Z</time>
      </trkpt>
      <trkpt lat="43.29825" lon="17.82184">
        <ele>90.677154</ele>
        <time>2022-06-12T12:26:08.087Z</time>
      </trkpt>
      <trkpt lat="43.29836" lon="17.82184">
        <ele>90.408508</ele>
        <time>2022-06-12T12:26:14.084Z</time>
      </trkpt>
      <trkpt lat="43.29845" lon="17.82183">
        <ele>90.147066</ele>
        <time>2022-06-12T12:26:21.095Z</time>
      </trkpt>
      <trkpt lat="43.29855" lon="17.82182">
        <ele>90.054342</ele>
        <time>2022-06-12T12:26:29.110Z</time>
      </trkpt>
      <trkpt lat="43.29865" lon="17.82181">
        <ele>89.996485</ele>
        <time>2022-06-12T12:26:37.095Z</time>
      </trkpt>
      <trkpt lat="43.29875" lon="17.8218">
        <ele>89.937406</ele>
        <time>2022-06-12T12:26:45.105Z</time>
      </trkpt>
      <trkpt lat="43.29884" lon="17.82178">
        <ele>89.881102</ele>
        <time>2022-06-12T12:26:52.163Z</time>
      </trkpt>
      <trkpt lat="43.29894" lon="17.82175">
        <ele>89.82352</ele>
        <time>2022-06-12T12:26:59.090Z</time>
      </trkpt>
      <trkpt lat="43.29903" lon="17.82173">
        <ele>89.768594</ele>
        <time>2022-06-12T12:27:06.084Z</time>
      </trkpt>
      <trkpt lat="43.29913" lon="17.82171">
        <ele>89.707737</ele>
        <time>2022-06-12T12:27:14.084Z</time>
      </trkpt>
      <trkpt lat="43.29923" lon="17.82167">
        <ele>89.648349</ele>
        <time>2022-06-12T12:27:21.126Z</time>
      </trkpt>
      <trkpt lat="43.29932" lon="17.82163">
        <ele>89.590855</ele>
        <time>2022-06-12T12:27:28.096Z</time>
      </trkpt>
      <trkpt lat="43.29941" lon="17.82159">
        <ele>89.535581</ele>
        <time>2022-06-12T12:27:35.098Z</time>
      </trkpt>
      <trkpt lat="43.29951" lon="17.82155">
        <ele>89.473905</ele>
        <time>2022-06-12T12:27:43.086Z</time>
      </trkpt>
      <trkpt lat="43.29961" lon="17.82152">
        <ele>89.413946</ele>
        <time>2022-06-12T12:27:51.097Z</time>
      </trkpt>
      <trkpt lat="43.29968" lon="17.82144">
        <ele>89.356854</ele>
        <time>2022-06-12T12:27:59.089Z</time>
      </trkpt>
      <trkpt lat="43.29978" lon="17.82139">
        <ele>89.29733</ele>
        <time>2022-06-12T12:28:08.076Z</time>
      </trkpt>
      <trkpt lat="43.29987" lon="17.82138">
        <ele>89.239611</ele>
        <time>2022-06-12T12:28:15.129Z</time>
      </trkpt>
      <trkpt lat="43.29997" lon="17.82137">
        <ele>89.181585</ele>
        <time>2022-06-12T12:28:22.091Z</time>
      </trkpt>
      <trkpt lat="43.30007" lon="17.82134">
        <ele>89.121314</ele>
        <time>2022-06-12T12:28:30.093Z</time>
      </trkpt>
      <trkpt lat="43.30017" lon="17.82132">
        <ele>89.063231</ele>
        <time>2022-06-12T12:28:38.079Z</time>
      </trkpt>
      <trkpt lat="43.30025" lon="17.82128">
        <ele>89.016349</ele>
        <time>2022-06-12T12:28:48.092Z</time>
      </trkpt>
      <trkpt lat="43.30041" lon="17.8212">
        <ele>88.945227</ele>
        <time>2022-06-12T12:30:11.090Z</time>
      </trkpt>
      <trkpt lat="43.30051" lon="17.82118">
        <ele>88.905699</ele>
        <time>2022-06-12T12:30:22.082Z</time>
      </trkpt>
      <trkpt lat="43.3006" lon="17.82116">
        <ele>88.867412</ele>
        <time>2022-06-12T12:30:28.060Z</time>
      </trkpt>
      <trkpt lat="43.30068" lon="17.82112">
        <ele>88.82834</ele>
        <time>2022-06-12T12:30:37.077Z</time>
      </trkpt>
      <trkpt lat="43.30078" lon="17.82109">
        <ele>88.787714</ele>
        <time>2022-06-12T12:30:46.089Z</time>
      </trkpt>
      <trkpt lat="43.30087" lon="17.82106">
        <ele>88.747783</ele>
        <time>2022-06-12T12:30:55.099Z</time>
      </trkpt>
      <trkpt lat="43.30096" lon="17.82112">
        <ele>88.707992</ele>
        <time>2022-06-12T12:33:33.070Z</time>
      </trkpt>
      <trkpt lat="43.30106" lon="17.82111">
        <ele>88.667718</ele>
        <time>2022-06-12T12:33:41.083Z</time>
      </trkpt>
      <trkpt lat="43.30115" lon="17.82113">
        <ele>88.629431</ele>
        <time>2022-06-12T12:33:48.070Z</time>
      </trkpt>
      <trkpt lat="43.30124" lon="17.82113">
        <ele>88.591221</ele>
        <time>2022-06-12T12:33:55.110Z</time>
      </trkpt>
      <trkpt lat="43.30133" lon="17.82114">
        <ele>88.552399</ele>
        <time>2022-06-12T12:34:02.075Z</time>
      </trkpt>
      <trkpt lat="43.30143" lon="17.82117">
        <ele>88.510829</ele>
        <time>2022-06-12T12:34:10.087Z</time>
      </trkpt>
      <trkpt lat="43.30152" lon="17.82121">
        <ele>88.468973</ele>
        <time>2022-06-12T12:34:19.070Z</time>
      </trkpt>
      <trkpt lat="43.30162" lon="17.82123">
        <ele>88.42825</ele>
        <time>2022-06-12T12:34:28.056Z</time>
      </trkpt>
      <trkpt lat="43.30171" lon="17.82124">
        <ele>88.388238</ele>
        <time>2022-06-12T12:34:36.104Z</time>
      </trkpt>
      <trkpt lat="43.30181" lon="17.82127">
        <ele>88.346954</ele>
        <time>2022-06-12T12:34:44.088Z</time>
      </trkpt>
      <trkpt lat="43.30191" lon="17.82129">
        <ele>88.30468</ele>
        <time>2022-06-12T12:34:52.079Z</time>
      </trkpt>
      <trkpt lat="43.30201" lon="17.82132">
        <ele>88.226567</ele>
        <time>2022-06-12T12:35:00.086Z</time>
      </trkpt>
      <trkpt lat="43.3021" lon="17.82134">
        <ele>88.113061</ele>
        <time>2022-06-12T12:35:07.093Z</time>
      </trkpt>
      <trkpt lat="43.30219" lon="17.82138">
        <ele>87.995742</ele>
        <time>2022-06-12T12:35:14.077Z</time>
      </trkpt>
      <trkpt lat="43.30228" lon="17.8214">
        <ele>87.882128</ele>
        <time>2022-06-12T12:35:21.076Z</time>
      </trkpt>
      <trkpt lat="43.30237" lon="17.82143">
        <ele>87.765046</ele>
        <time>2022-06-12T12:35:29.078Z</time>
      </trkpt>
      <trkpt lat="43.30246" lon="17.82144">
        <ele>87.645738</ele>
        <time>2022-06-12T12:35:36.202Z</time>
      </trkpt>
      <trkpt lat="43.30256" lon="17.82146">
        <ele>87.52137</ele>
        <time>2022-06-12T12:35:44.084Z</time>
      </trkpt>
      <trkpt lat="43.30266" lon="17.82149">
        <ele>87.398347</ele>
        <time>2022-06-12T12:35:52.087Z</time>
      </trkpt>
      <trkpt lat="43.30275" lon="17.82151">
        <ele>87.282377</ele>
        <time>2022-06-12T12:35:59.086Z</time>
      </trkpt>
      <trkpt lat="43.30284" lon="17.82153">
        <ele>87.165294</ele>
        <time>2022-06-12T12:36:07.086Z</time>
      </trkpt>
      <trkpt lat="43.30293" lon="17.82157">
        <ele>87.044449</ele>
        <time>2022-06-12T12:36:16.114Z</time>
      </trkpt>
      <trkpt lat="43.30303" lon="17.82161">
        <ele>86.92615</ele>
        <time>2022-06-12T12:36:26.086Z</time>
      </trkpt>
      <trkpt lat="43.30312" lon="17.82163">
        <ele>86.811868</ele>
        <time>2022-06-12T12:36:34.088Z</time>
      </trkpt>
      <trkpt lat="43.3032" lon="17.82166">
        <ele>86.699665</ele>
        <time>2022-06-12T12:36:41.093Z</time>
      </trkpt>
      <trkpt lat="43.30331" lon="17.82168">
        <ele>86.571895</ele>
        <time>2022-06-12T12:36:49.075Z</time>
      </trkpt>
      <trkpt lat="43.3034" lon="17.8217">
        <ele>86.447647</ele>
        <time>2022-06-12T12:36:57.096Z</time>
      </trkpt>
      <trkpt lat="43.3035" lon="17.82173">
        <ele>86.327939</ele>
        <time>2022-06-12T12:37:05.081Z</time>
      </trkpt>
      <trkpt lat="43.3036" lon="17.82175">
        <ele>86.203069</ele>
        <time>2022-06-12T12:37:13.079Z</time>
      </trkpt>
      <trkpt lat="43.30369" lon="17.82178">
        <ele>86.085203</ele>
        <time>2022-06-12T12:37:21.087Z</time>
      </trkpt>
      <trkpt lat="43.30378" lon="17.8218">
        <ele>86.273951</ele>
        <time>2022-06-12T12:37:29.086Z</time>
      </trkpt>
      <trkpt lat="43.30387" lon="17.82183">
        <ele>86.670946</ele>
        <time>2022-06-12T12:37:37.081Z</time>
      </trkpt>
      <trkpt lat="43.30396" lon="17.82186">
        <ele>87.066538</ele>
        <time>2022-06-12T12:37:45.100Z</time>
      </trkpt>
      <trkpt lat="43.30405" lon="17.82188">
        <ele>87.495485</ele>
        <time>2022-06-12T12:37:53.085Z</time>
      </trkpt>
      <trkpt lat="43.30415" lon="17.82188">
        <ele>87.901365</ele>
        <time>2022-06-12T12:38:00.097Z</time>
      </trkpt>
      <trkpt lat="43.30424" lon="17.82191">
        <ele>88.312498</ele>
        <time>2022-06-12T12:38:08.096Z</time>
      </trkpt>
      <trkpt lat="43.30433" lon="17.82192">
        <ele>88.715708</ele>
        <time>2022-06-12T12:38:15.101Z</time>
      </trkpt>
      <trkpt lat="43.30443" lon="17.82192">
        <ele>89.15203</ele>
        <time>2022-06-12T12:38:24.080Z</time>
      </trkpt>
      <trkpt lat="43.30456" lon="17.82192">
        <ele>89.723632</ele>
        <time>2022-06-12T12:39:00.071Z</time>
      </trkpt>
      <trkpt lat="43.30465" lon="17.82197">
        <ele>90.157939</ele>
        <time>2022-06-12T12:39:08.067Z</time>
      </trkpt>
      <trkpt lat="43.30474" lon="17.82203">
        <ele>90.572083</ele>
        <time>2022-06-12T12:39:17.087Z</time>
      </trkpt>
      <trkpt lat="43.30482" lon="17.82208">
        <ele>90.974733</ele>
        <time>2022-06-12T12:39:25.071Z</time>
      </trkpt>
      <trkpt lat="43.30492" lon="17.8221">
        <ele>91.420423</ele>
        <time>2022-06-12T12:39:35.069Z</time>
      </trkpt>
      <trkpt lat="43.30501" lon="17.82212">
        <ele>91.816794</ele>
        <time>2022-06-12T12:39:40.068Z</time>
      </trkpt>
      <trkpt lat="43.30511" lon="17.82214">
        <ele>92.246821</ele>
        <time>2022-06-12T12:39:47.093Z</time>
      </trkpt>
      <trkpt lat="43.3052" lon="17.82218">
        <ele>92.676167</ele>
        <time>2022-06-12T12:39:55.152Z</time>
      </trkpt>
      <trkpt lat="43.3053" lon="17.82222">
        <ele>93.098153</ele>
        <time>2022-06-12T12:40:04.096Z</time>
      </trkpt>
      <trkpt lat="43.30539" lon="17.82226">
        <ele>93.520683</ele>
        <time>2022-06-12T12:40:12.082Z</time>
      </trkpt>
      <trkpt lat="43.30548" lon="17.82229">
        <ele>93.866504</ele>
        <time>2022-06-12T12:40:19.098Z</time>
      </trkpt>
      <trkpt lat="43.30558" lon="17.82231">
        <ele>93.661952</ele>
        <time>2022-06-12T12:40:27.078Z</time>
      </trkpt>
      <trkpt lat="43.30567" lon="17.82233">
        <ele>93.47245</ele>
        <time>2022-06-12T12:40:34.094Z</time>
      </trkpt>
      <trkpt lat="43.30576" lon="17.82236">
        <ele>93.285371</ele>
        <time>2022-06-12T12:40:42.084Z</time>
      </trkpt>
      <trkpt lat="43.30585" lon="17.82238">
        <ele>93.103096</ele>
        <time>2022-06-12T12:40:50.075Z</time>
      </trkpt>
      <trkpt lat="43.30594" lon="17.8224">
        <ele>92.912398</ele>
        <time>2022-06-12T12:40:58.135Z</time>
      </trkpt>
      <trkpt lat="43.30604" lon="17.82243">
        <ele>92.711809</ele>
        <time>2022-06-12T12:41:07.071Z</time>
      </trkpt>
      <trkpt lat="43.30613" lon="17.82246">
        <ele>92.518815</ele>
        <time>2022-06-12T12:41:15.079Z</time>
      </trkpt>
      <trkpt lat="43.30623" lon="17.82251">
        <ele>92.321186</ele>
        <time>2022-06-12T12:41:24.090Z</time>
      </trkpt>
      <trkpt lat="43.30632" lon="17.82255">
        <ele>92.112764</ele>
        <time>2022-06-12T12:41:32.115Z</time>
      </trkpt>
      <trkpt lat="43.30642" lon="17.82259">
        <ele>91.90988</ele>
        <time>2022-06-12T12:41:39.098Z</time>
      </trkpt>
      <trkpt lat="43.30652" lon="17.82261">
        <ele>91.703369</ele>
        <time>2022-06-12T12:41:46.092Z</time>
      </trkpt>
      <trkpt lat="43.30662" lon="17.82263">
        <ele>91.507288</ele>
        <time>2022-06-12T12:41:54.104Z</time>
      </trkpt>
      <trkpt lat="43.30671" lon="17.82265">
        <ele>91.316787</ele>
        <time>2022-06-12T12:42:02.087Z</time>
      </trkpt>
      <trkpt lat="43.3068" lon="17.82266">
        <ele>91.133314</ele>
        <time>2022-06-12T12:42:10.086Z</time>
      </trkpt>
      <trkpt lat="43.3069" lon="17.82268">
        <ele>90.938092</ele>
        <time>2022-06-12T12:42:18.083Z</time>
      </trkpt>
      <trkpt lat="43.30698" lon="17.8227">
        <ele>90.75364</ele>
        <time>2022-06-12T12:42:27.104Z</time>
      </trkpt>
      <trkpt lat="43.30708" lon="17.82272">
        <ele>90.561766</ele>
        <time>2022-06-12T12:42:35.097Z</time>
      </trkpt>
      <trkpt lat="43.30718" lon="17.82274">
        <ele>90.356813</ele>
        <time>2022-06-12T12:42:44.082Z</time>
      </trkpt>
      <trkpt lat="43.30727" lon="17.82277">
        <ele>90.425156</ele>
        <time>2022-06-12T12:42:52.090Z</time>
      </trkpt>
      <trkpt lat="43.30736" lon="17.82282">
        <ele>90.846858</ele>
        <time>2022-06-12T12:43:01.083Z</time>
      </trkpt>
      <trkpt lat="43.30746" lon="17.82287">
        <ele>91.286705</ele>
        <time>2022-06-12T12:43:09.090Z</time>
      </trkpt>
      <trkpt lat="43.30755" lon="17.8229">
        <ele>91.702972</ele>
        <time>2022-06-12T12:43:17.095Z</time>
      </trkpt>
      <trkpt lat="43.30765" lon="17.82291">
        <ele>92.128066</ele>
        <time>2022-06-12T12:43:25.099Z</time>
      </trkpt>
      <trkpt lat="43.30774" lon="17.82291">
        <ele>92.535723</ele>
        <time>2022-06-12T12:43:33.094Z</time>
      </trkpt>
      <trkpt lat="43.30784" lon="17.82293">
        <ele>92.970948</ele>
        <time>2022-06-12T12:43:41.064Z</time>
      </trkpt>
      <trkpt lat="43.30793" lon="17.82295">
        <ele>93.380004</ele>
        <time>2022-06-12T12:43:48.095Z</time>
      </trkpt>
      <trkpt lat="43.30802" lon="17.82297">
        <ele>93.776274</ele>
        <time>2022-06-12T12:43:56.068Z</time>
      </trkpt>
      <trkpt lat="43.30812" lon="17.82297">
        <ele>94.205977</ele>
        <time>2022-06-12T12:44:05.103Z</time>
      </trkpt>
      <trkpt lat="43.30821" lon="17.82298">
        <ele>94.596304</ele>
        <time>2022-06-12T12:44:12.089Z</time>
      </trkpt>
      <trkpt lat="43.30831" lon="17.82301">
        <ele>95.026032</ele>
        <time>2022-06-12T12:44:21.124Z</time>
      </trkpt>
      <trkpt lat="43.30841" lon="17.82303">
        <ele>95.457434</ele>
        <time>2022-06-12T12:44:29.076Z</time>
      </trkpt>
      <trkpt lat="43.3085" lon="17.82303">
        <ele>95.848588</ele>
        <time>2022-06-12T12:44:37.084Z</time>
      </trkpt>
      <trkpt lat="43.3086" lon="17.82304">
        <ele>96.282621</ele>
        <time>2022-06-12T12:44:45.091Z</time>
      </trkpt>
      <trkpt lat="43.30869" lon="17.82305">
        <ele>96.700196</ele>
        <time>2022-06-12T12:44:53.085Z</time>
      </trkpt>
      <trkpt lat="43.30879" lon="17.82307">
        <ele>97.097481</ele>
        <time>2022-06-12T12:45:01.086Z</time>
      </trkpt>
      <trkpt lat="43.30888" lon="17.82307">
        <ele>97.518373</ele>
        <time>2022-06-12T12:45:08.098Z</time>
      </trkpt>
      <trkpt lat="43.30898" lon="17.82308">
        <ele>97.926274</ele>
        <time>2022-06-12T12:45:14.093Z</time>
      </trkpt>
      <trkpt lat="43.30908" lon="17.82306">
        <ele>98.175301</ele>
        <time>2022-06-12T12:45:23.140Z</time>
      </trkpt>
      <trkpt lat="43.30917" lon="17.82305">
        <ele>98.349552</ele>
        <time>2022-06-12T12:45:32.099Z</time>
      </trkpt>
      <trkpt lat="43.30927" lon="17.82305">
        <ele>98.516752</ele>
        <time>2022-06-12T12:45:40.083Z</time>
      </trkpt>
      <trkpt lat="43.30936" lon="17.82305">
        <ele>98.685649</ele>
        <time>2022-06-12T12:45:48.095Z</time>
      </trkpt>
      <trkpt lat="43.30946" lon="17.82304">
        <ele>98.865884</ele>
        <time>2022-06-12T12:45:56.085Z</time>
      </trkpt>
      <trkpt lat="43.30955" lon="17.82303">
        <ele>99.026415</ele>
        <time>2022-06-12T12:46:04.074Z</time>
      </trkpt>
      <trkpt lat="43.30965" lon="17.82303">
        <ele>99.204221</ele>
        <time>2022-06-12T12:46:13.081Z</time>
      </trkpt>
      <trkpt lat="43.30974" lon="17.82304">
        <ele>99.364751</ele>
        <time>2022-06-12T12:46:21.086Z</time>
      </trkpt>
      <trkpt lat="43.30985" lon="17.82304">
        <ele>99.544358</ele>
        <time>2022-06-12T12:46:29.096Z</time>
      </trkpt>
      <trkpt lat="43.30995" lon="17.82303">
        <ele>99.726258</ele>
        <time>2022-06-12T12:46:38.080Z</time>
      </trkpt>
      <trkpt lat="43.31004" lon="17.82299">
        <ele>99.896118</ele>
        <time>2022-06-12T12:46:47.071Z</time>
      </trkpt>
      <trkpt lat="43.31013" lon="17.82297">
        <ele>100.063092</ele>
        <time>2022-06-12T12:46:55.108Z</time>
      </trkpt>
      <trkpt lat="43.31022" lon="17.82297">
        <ele>100.223357</ele>
        <time>2022-06-12T12:47:03.084Z</time>
      </trkpt>
      <trkpt lat="43.31033" lon="17.82297">
        <ele>100.40826</ele>
        <time>2022-06-12T12:47:11.092Z</time>
      </trkpt>
      <trkpt lat="43.31042" lon="17.82298">
        <ele>100.577558</ele>
        <time>2022-06-12T12:47:19.090Z</time>
      </trkpt>
      <trkpt lat="43.31051" lon="17.82297">
        <ele>100.74292</ele>
        <time>2022-06-12T12:47:26.111Z</time>
      </trkpt>
      <trkpt lat="43.31061" lon="17.82296">
        <ele>100.91677</ele>
        <time>2022-06-12T12:47:34.072Z</time>
      </trkpt>
      <trkpt lat="43.31071" lon="17.82293">
        <ele>101.088269</ele>
        <time>2022-06-12T12:47:42.096Z</time>
      </trkpt>
      <trkpt lat="43.3108" lon="17.82292">
        <ele>101.229158</ele>
        <time>2022-06-12T12:47:51.133Z</time>
      </trkpt>
      <trkpt lat="43.3109" lon="17.82291">
        <ele>101.081363</ele>
        <time>2022-06-12T12:48:00.093Z</time>
      </trkpt>
      <trkpt lat="43.31099" lon="17.82289">
        <ele>100.945362</ele>
        <time>2022-06-12T12:48:09.128Z</time>
      </trkpt>
      <trkpt lat="43.31108" lon="17.82288">
        <ele>100.806753</ele>
        <time>2022-06-12T12:48:17.091Z</time>
      </trkpt>
      <trkpt lat="43.31118" lon="17.82286">
        <ele>100.662831</ele>
        <time>2022-06-12T12:48:25.090Z</time>
      </trkpt>
      <trkpt lat="43.31127" lon="17.82286">
        <ele>100.523308</ele>
        <time>2022-06-12T12:48:33.079Z</time>
      </trkpt>
      <trkpt lat="43.31137" lon="17.82286">
        <ele>100.379334</ele>
        <time>2022-06-12T12:48:41.082Z</time>
      </trkpt>
      <trkpt lat="43.31146" lon="17.82286">
        <ele>100.245715</ele>
        <time>2022-06-12T12:48:48.088Z</time>
      </trkpt>
      <trkpt lat="43.31156" lon="17.82286">
        <ele>100.101774</ele>
        <time>2022-06-12T12:48:56.094Z</time>
      </trkpt>
      <trkpt lat="43.31165" lon="17.82287">
        <ele>99.966464</ele>
        <time>2022-06-12T12:49:03.097Z</time>
      </trkpt>
      <trkpt lat="43.31174" lon="17.82287">
        <ele>99.822511</ele>
        <time>2022-06-12T12:49:11.085Z</time>
      </trkpt>
      <trkpt lat="43.31185" lon="17.82287">
        <ele>99.668126</ele>
        <time>2022-06-12T12:49:19.091Z</time>
      </trkpt>
      <trkpt lat="43.31195" lon="17.82286">
        <ele>99.51942</ele>
        <time>2022-06-12T12:49:26.099Z</time>
      </trkpt>
      <trkpt lat="43.31204" lon="17.82285">
        <ele>99.378186</ele>
        <time>2022-06-12T12:49:35.082Z</time>
      </trkpt>
      <trkpt lat="43.31214" lon="17.82284">
        <ele>99.235145</ele>
        <time>2022-06-12T12:49:44.103Z</time>
      </trkpt>
      <trkpt lat="43.31223" lon="17.82281">
        <ele>99.091193</ele>
        <time>2022-06-12T12:49:53.082Z</time>
      </trkpt>
      <trkpt lat="43.31232" lon="17.82276">
        <ele>98.954417</ele>
        <time>2022-06-12T12:50:12.086Z</time>
      </trkpt>
      <trkpt lat="43.31241" lon="17.82277">
        <ele>98.817895</ele>
        <time>2022-06-12T12:50:20.096Z</time>
      </trkpt>
      <trkpt lat="43.31252" lon="17.82276">
        <ele>98.658987</ele>
        <time>2022-06-12T12:50:28.088Z</time>
      </trkpt>
      <trkpt lat="43.31262" lon="17.82276">
        <ele>98.598645</ele>
        <time>2022-06-12T12:50:35.099Z</time>
      </trkpt>
      <trkpt lat="43.31272" lon="17.82274">
        <ele>98.668911</ele>
        <time>2022-06-12T12:50:43.099Z</time>
      </trkpt>
      <trkpt lat="43.31281" lon="17.82271">
        <ele>98.735943</ele>
        <time>2022-06-12T12:50:51.090Z</time>
      </trkpt>
      <trkpt lat="43.31291" lon="17.82268">
        <ele>98.805133</ele>
        <time>2022-06-12T12:50:59.089Z</time>
      </trkpt>
      <trkpt lat="43.313" lon="17.82265">
        <ele>98.868797</ele>
        <time>2022-06-12T12:51:06.080Z</time>
      </trkpt>
      <trkpt lat="43.31309" lon="17.82262">
        <ele>98.933311</ele>
        <time>2022-06-12T12:51:14.095Z</time>
      </trkpt>
      <trkpt lat="43.31318" lon="17.82259">
        <ele>98.996113</ele>
        <time>2022-06-12T12:51:22.088Z</time>
      </trkpt>
      <trkpt lat="43.31328" lon="17.82258">
        <ele>99.06663</ele>
        <time>2022-06-12T12:51:31.089Z</time>
      </trkpt>
      <trkpt lat="43.31337" lon="17.82255">
        <ele>99.132247</ele>
        <time>2022-06-12T12:51:39.084Z</time>
      </trkpt>
      <trkpt lat="43.31346" lon="17.82251">
        <ele>99.199185</ele>
        <time>2022-06-12T12:51:47.095Z</time>
      </trkpt>
      <trkpt lat="43.31355" lon="17.82246">
        <ele>99.263621</ele>
        <time>2022-06-12T12:51:55.102Z</time>
      </trkpt>
      <trkpt lat="43.31364" lon="17.82242">
        <ele>99.329691</ele>
        <time>2022-06-12T12:52:02.094Z</time>
      </trkpt>
      <trkpt lat="43.31374" lon="17.82239">
        <ele>99.398881</ele>
        <time>2022-06-12T12:52:10.094Z</time>
      </trkpt>
      <trkpt lat="43.31383" lon="17.82236">
        <ele>99.461986</ele>
        <time>2022-06-12T12:52:18.079Z</time>
      </trkpt>
      <trkpt lat="43.31392" lon="17.82232">
        <ele>99.527602</ele>
        <time>2022-06-12T12:52:25.118Z</time>
      </trkpt>
      <trkpt lat="43.31401" lon="17.82227">
        <ele>99.593882</ele>
        <time>2022-06-12T12:52:33.095Z</time>
      </trkpt>
      <trkpt lat="43.31409" lon="17.82221">
        <ele>99.656187</ele>
        <time>2022-06-12T12:52:40.084Z</time>
      </trkpt>
      <trkpt lat="43.31418" lon="17.82216">
        <ele>99.723512</ele>
        <time>2022-06-12T12:52:48.095Z</time>
      </trkpt>
      <trkpt lat="43.31426" lon="17.82211">
        <ele>99.786444</ele>
        <time>2022-06-12T12:52:56.085Z</time>
      </trkpt>
      <trkpt lat="43.31435" lon="17.82206">
        <ele>99.751879</ele>
        <time>2022-06-12T12:53:04.085Z</time>
      </trkpt>
      <trkpt lat="43.31444" lon="17.82201">
        <ele>99.652547</ele>
        <time>2022-06-12T12:53:12.086Z</time>
      </trkpt>
      <trkpt lat="43.31453" lon="17.82198">
        <ele>99.55488</ele>
        <time>2022-06-12T12:53:19.085Z</time>
      </trkpt>
      <trkpt lat="43.31462" lon="17.82194">
        <ele>99.448588</ele>
        <time>2022-06-12T12:53:27.087Z</time>
      </trkpt>
      <trkpt lat="43.31472" lon="17.8219">
        <ele>99.34176</ele>
        <time>2022-06-12T12:53:35.103Z</time>
      </trkpt>
      <trkpt lat="43.31481" lon="17.82187">
        <ele>99.241853</ele>
        <time>2022-06-12T12:53:43.096Z</time>
      </trkpt>
      <trkpt lat="43.31491" lon="17.82182">
        <ele>99.137804</ele>
        <time>2022-06-12T12:53:52.093Z</time>
      </trkpt>
      <trkpt lat="43.315" lon="17.82178">
        <ele>99.036027</ele>
        <time>2022-06-12T12:54:00.093Z</time>
      </trkpt>
      <trkpt lat="43.31509" lon="17.82174">
        <ele>98.931744</ele>
        <time>2022-06-12T12:54:08.092Z</time>
      </trkpt>
      <trkpt lat="43.31518" lon="17.8217">
        <ele>98.835956</ele>
        <time>2022-06-12T12:54:16.112Z</time>
      </trkpt>
      <trkpt lat="43.31527" lon="17.82165">
        <ele>98.729431</ele>
        <time>2022-06-12T12:54:25.095Z</time>
      </trkpt>
      <trkpt lat="43.31536" lon="17.82161">
        <ele>98.628124</ele>
        <time>2022-06-12T12:54:33.084Z</time>
      </trkpt>
      <trkpt lat="43.31545" lon="17.82159">
        <ele>98.531013</ele>
        <time>2022-06-12T12:54:40.090Z</time>
      </trkpt>
      <trkpt lat="43.31554" lon="17.82156">
        <ele>98.435469</ele>
        <time>2022-06-12T12:54:48.091Z</time>
      </trkpt>
      <trkpt lat="43.31564" lon="17.82156">
        <ele>98.330839</ele>
        <time>2022-06-12T12:54:56.097Z</time>
      </trkpt>
      <trkpt lat="43.31574" lon="17.82155">
        <ele>98.229369</ele>
        <time>2022-06-12T12:55:04.088Z</time>
      </trkpt>
      <trkpt lat="43.31583" lon="17.82152">
        <ele>98.130426</ele>
        <time>2022-06-12T12:55:12.091Z</time>
      </trkpt>
      <trkpt lat="43.31592" lon="17.82148">
        <ele>98.024411</ele>
        <time>2022-06-12T12:55:20.090Z</time>
      </trkpt>
      <trkpt lat="43.31601" lon="17.82144">
        <ele>97.927864</ele>
        <time>2022-06-12T12:55:28.093Z</time>
      </trkpt>
      <trkpt lat="43.31611" lon="17.82141">
        <ele>97.931301</ele>
        <time>2022-06-12T12:55:37.102Z</time>
      </trkpt>
      <trkpt lat="43.3162" lon="17.8214">
        <ele>97.949101</ele>
        <time>2022-06-12T12:55:45.104Z</time>
      </trkpt>
      <trkpt lat="43.31631" lon="17.8214">
        <ele>97.968269</ele>
        <time>2022-06-12T12:55:53.084Z</time>
      </trkpt>
      <trkpt lat="43.3164" lon="17.82138">
        <ele>97.985795</ele>
        <time>2022-06-12T12:56:01.092Z</time>
      </trkpt>
      <trkpt lat="43.31649" lon="17.82136">
        <ele>98.00285</ele>
        <time>2022-06-12T12:56:08.102Z</time>
      </trkpt>
      <trkpt lat="43.31658" lon="17.82134">
        <ele>98.021139</ele>
        <time>2022-06-12T12:56:16.072Z</time>
      </trkpt>
      <trkpt lat="43.31667" lon="17.82131">
        <ele>98.038267</ele>
        <time>2022-06-12T12:56:23.089Z</time>
      </trkpt>
      <trkpt lat="43.31677" lon="17.82129">
        <ele>98.056122</ele>
        <time>2022-06-12T12:56:30.087Z</time>
      </trkpt>
      <trkpt lat="43.31686" lon="17.82128">
        <ele>98.073863</ele>
        <time>2022-06-12T12:56:38.101Z</time>
      </trkpt>
      <trkpt lat="43.31696" lon="17.82128">
        <ele>98.092094</ele>
        <time>2022-06-12T12:56:47.102Z</time>
      </trkpt>
      <trkpt lat="43.31706" lon="17.82126">
        <ele>98.110899</ele>
        <time>2022-06-12T12:56:57.088Z</time>
      </trkpt>
      <trkpt lat="43.31716" lon="17.82123">
        <ele>98.129815</ele>
        <time>2022-06-12T12:57:04.089Z</time>
      </trkpt>
      <trkpt lat="43.31725" lon="17.8212">
        <ele>98.148878</ele>
        <time>2022-06-12T12:57:12.090Z</time>
      </trkpt>
      <trkpt lat="43.31735" lon="17.82116">
        <ele>98.168129</ele>
        <time>2022-06-12T12:57:20.091Z</time>
      </trkpt>
      <trkpt lat="43.31744" lon="17.82114">
        <ele>98.185493</ele>
        <time>2022-06-12T12:57:28.093Z</time>
      </trkpt>
      <trkpt lat="43.31754" lon="17.82112">
        <ele>98.204278</ele>
        <time>2022-06-12T12:57:36.076Z</time>
      </trkpt>
      <trkpt lat="43.31764" lon="17.82111">
        <ele>98.221948</ele>
        <time>2022-06-12T12:57:44.089Z</time>
      </trkpt>
      <trkpt lat="43.31773" lon="17.82112">
        <ele>98.240377</ele>
        <time>2022-06-12T12:57:52.073Z</time>
      </trkpt>
      <trkpt lat="43.31782" lon="17.82114">
        <ele>98.260367</ele>
        <time>2022-06-12T12:58:00.069Z</time>
      </trkpt>
      <trkpt lat="43.31792" lon="17.8211">
        <ele>98.291281</ele>
        <time>2022-06-12T12:58:15.127Z</time>
      </trkpt>
      <trkpt lat="43.31801" lon="17.82108">
        <ele>98.323044</ele>
        <time>2022-06-12T12:58:24.073Z</time>
      </trkpt>
      <trkpt lat="43.3182" lon="17.82106">
        <ele>98.383818</ele>
        <time>2022-06-12T12:58:56.113Z</time>
      </trkpt>
      <trkpt lat="43.3183" lon="17.82104">
        <ele>98.415264</ele>
        <time>2022-06-12T12:59:05.120Z</time>
      </trkpt>
      <trkpt lat="43.3184" lon="17.82102">
        <ele>98.44728</ele>
        <time>2022-06-12T12:59:10.075Z</time>
      </trkpt>
      <trkpt lat="43.3185" lon="17.82101">
        <ele>98.479557</ele>
        <time>2022-06-12T12:59:19.074Z</time>
      </trkpt>
      <trkpt lat="43.31859" lon="17.821">
        <ele>98.510407</ele>
        <time>2022-06-12T12:59:28.069Z</time>
      </trkpt>
      <trkpt lat="43.31869" lon="17.82098">
        <ele>98.542205</ele>
        <time>2022-06-12T12:59:36.081Z</time>
      </trkpt>
      <trkpt lat="43.31878" lon="17.82093">
        <ele>98.573156</ele>
        <time>2022-06-12T12:59:44.063Z</time>
      </trkpt>
      <trkpt lat="43.31887" lon="17.82089">
        <ele>98.602037</ele>
        <time>2022-06-12T12:59:52.078Z</time>
      </trkpt>
      <trkpt lat="43.31897" lon="17.82089">
        <ele>98.63378</ele>
        <time>2022-06-12T13:00:00.089Z</time>
      </trkpt>
      <trkpt lat="43.31905" lon="17.82082">
        <ele>98.665122</ele>
        <time>2022-06-12T13:00:08.089Z</time>
      </trkpt>
      <trkpt lat="43.31913" lon="17.82075">
        <ele>98.694861</ele>
        <time>2022-06-12T13:00:16.078Z</time>
      </trkpt>
      <trkpt lat="43.31922" lon="17.82072">
        <ele>98.726545</ele>
        <time>2022-06-12T13:00:26.085Z</time>
      </trkpt>
      <trkpt lat="43.31932" lon="17.82078">
        <ele>98.759094</ele>
        <time>2022-06-12T13:00:35.085Z</time>
      </trkpt>
      <trkpt lat="43.31942" lon="17.8208">
        <ele>98.791689</ele>
        <time>2022-06-12T13:00:44.097Z</time>
      </trkpt>
      <trkpt lat="43.31952" lon="17.8208">
        <ele>98.824711</ele>
        <time>2022-06-12T13:00:52.108Z</time>
      </trkpt>
      <trkpt lat="43.31961" lon="17.82078">
        <ele>98.831371</ele>
        <time>2022-06-12T13:01:01.078Z</time>
      </trkpt>
      <trkpt lat="43.31971" lon="17.82078">
        <ele>98.83364</ele>
        <time>2022-06-12T13:01:10.092Z</time>
      </trkpt>
      <trkpt lat="43.3198" lon="17.82077">
        <ele>98.835744</ele>
        <time>2022-06-12T13:01:17.094Z</time>
      </trkpt>
      <trkpt lat="43.31989" lon="17.82073">
        <ele>98.837898</ele>
        <time>2022-06-12T13:01:25.071Z</time>
      </trkpt>
      <trkpt lat="43.31998" lon="17.82071">
        <ele>98.840115</ele>
        <time>2022-06-12T13:01:33.068Z</time>
      </trkpt>
      <trkpt lat="43.32008" lon="17.82071">
        <ele>98.842428</ele>
        <time>2022-06-12T13:01:42.063Z</time>
      </trkpt>
      <trkpt lat="43.32018" lon="17.82068">
        <ele>98.844759</ele>
        <time>2022-06-12T13:01:52.063Z</time>
      </trkpt>
      <trkpt lat="43.32027" lon="17.82067">
        <ele>98.846968</ele>
        <time>2022-06-12T13:02:03.087Z</time>
      </trkpt>
      <trkpt lat="43.32037" lon="17.82066">
        <ele>98.849217</ele>
        <time>2022-06-12T13:02:10.124Z</time>
      </trkpt>
      <trkpt lat="43.32047" lon="17.82064">
        <ele>98.851544</ele>
        <time>2022-06-12T13:02:18.094Z</time>
      </trkpt>
      <trkpt lat="43.32057" lon="17.82063">
        <ele>98.853913</ele>
        <time>2022-06-12T13:02:25.116Z</time>
      </trkpt>
      <trkpt lat="43.32066" lon="17.82061">
        <ele>98.856124</ele>
        <time>2022-06-12T13:02:35.096Z</time>
      </trkpt>
      <trkpt lat="43.32076" lon="17.8206">
        <ele>98.858374</ele>
        <time>2022-06-12T13:02:44.116Z</time>
      </trkpt>
      <trkpt lat="43.32085" lon="17.82059">
        <ele>98.860603</ele>
        <time>2022-06-12T13:02:53.088Z</time>
      </trkpt>
      <trkpt lat="43.32094" lon="17.82058">
        <ele>98.862791</ele>
        <time>2022-06-12T13:02:58.086Z</time>
      </trkpt>
      <trkpt lat="43.32104" lon="17.82056">
        <ele>98.864993</ele>
        <time>2022-06-12T13:03:04.088Z</time>
      </trkpt>
      <trkpt lat="43.32113" lon="17.82053">
        <ele>98.867112</ele>
        <time>2022-06-12T13:03:10.082Z</time>
      </trkpt>
      <trkpt lat="43.32122" lon="17.82051">
        <ele>98.869391</ele>
        <time>2022-06-12T13:03:17.083Z</time>
      </trkpt>
      <trkpt lat="43.32132" lon="17.82049">
        <ele>98.87509</ele>
        <time>2022-06-12T13:03:25.160Z</time>
      </trkpt>
      <trkpt lat="43.32141" lon="17.82047">
        <ele>98.965935</ele>
        <time>2022-06-12T13:03:32.095Z</time>
      </trkpt>
      <trkpt lat="43.3215" lon="17.82044">
        <ele>99.05225</ele>
        <time>2022-06-12T13:03:39.076Z</time>
      </trkpt>
      <trkpt lat="43.32159" lon="17.8204">
        <ele>99.140803</ele>
        <time>2022-06-12T13:03:48.108Z</time>
      </trkpt>
      <trkpt lat="43.32169" lon="17.8204">
        <ele>99.230338</ele>
        <time>2022-06-12T13:03:56.088Z</time>
      </trkpt>
      <trkpt lat="43.32178" lon="17.82037">
        <ele>99.320941</ele>
        <time>2022-06-12T13:04:04.085Z</time>
      </trkpt>
      <trkpt lat="43.32187" lon="17.82035">
        <ele>99.4078</ele>
        <time>2022-06-12T13:04:11.092Z</time>
      </trkpt>
      <trkpt lat="43.32196" lon="17.82033">
        <ele>99.496305</ele>
        <time>2022-06-12T13:04:19.089Z</time>
      </trkpt>
      <trkpt lat="43.32205" lon="17.8203">
        <ele>99.585066</ele>
        <time>2022-06-12T13:04:28.108Z</time>
      </trkpt>
      <trkpt lat="43.3223" lon="17.8203">
        <ele>99.821663</ele>
        <time>2022-06-12T13:05:46.090Z</time>
      </trkpt>
      <trkpt lat="43.3224" lon="17.82028">
        <ele>99.917892</ele>
        <time>2022-06-12T13:05:53.087Z</time>
      </trkpt>
      <trkpt lat="43.32251" lon="17.82026">
        <ele>100.017674</ele>
        <time>2022-06-12T13:05:58.090Z</time>
      </trkpt>
      <trkpt lat="43.32261" lon="17.82025">
        <ele>100.114131</ele>
        <time>2022-06-12T13:06:04.140Z</time>
      </trkpt>
      <trkpt lat="43.3227" lon="17.82024">
        <ele>100.201647</ele>
        <time>2022-06-12T13:06:11.081Z</time>
      </trkpt>
      <trkpt lat="43.32279" lon="17.82024">
        <ele>100.289064</ele>
        <time>2022-06-12T13:06:18.093Z</time>
      </trkpt>
      <trkpt lat="43.32289" lon="17.82023">
        <ele>100.382616</ele>
        <time>2022-06-12T13:06:25.092Z</time>
      </trkpt>
      <trkpt lat="43.32298" lon="17.82021">
        <ele>100.473937</ele>
        <time>2022-06-12T13:06:33.096Z</time>
      </trkpt>
      <trkpt lat="43.32308" lon="17.82019">
        <ele>100.565909</ele>
        <time>2022-06-12T13:06:42.094Z</time>
      </trkpt>
      <trkpt lat="43.32318" lon="17.82016">
        <ele>100.31332</ele>
        <time>2022-06-12T13:06:50.172Z</time>
      </trkpt>
      <trkpt lat="43.32327" lon="17.82014">
        <ele>99.998908</ele>
        <time>2022-06-12T13:06:58.087Z</time>
      </trkpt>
      <trkpt lat="43.32336" lon="17.82011">
        <ele>99.689039</ele>
        <time>2022-06-12T13:07:05.111Z</time>
      </trkpt>
      <trkpt lat="43.32346" lon="17.82009">
        <ele>99.385092</ele>
        <time>2022-06-12T13:07:12.171Z</time>
      </trkpt>
      <trkpt lat="43.32356" lon="17.82006">
        <ele>99.056523</ele>
        <time>2022-06-12T13:07:21.083Z</time>
      </trkpt>
      <trkpt lat="43.32365" lon="17.82002">
        <ele>98.732656</ele>
        <time>2022-06-12T13:07:29.088Z</time>
      </trkpt>
      <trkpt lat="43.32374" lon="17.81999">
        <ele>98.433893</ele>
        <time>2022-06-12T13:07:37.093Z</time>
      </trkpt>
      <trkpt lat="43.32383" lon="17.81994">
        <ele>98.133303</ele>
        <time>2022-06-12T13:07:44.087Z</time>
      </trkpt>
      <trkpt lat="43.32389" lon="17.81984">
        <ele>97.80883</ele>
        <time>2022-06-12T13:07:53.078Z</time>
      </trkpt>
      <trkpt lat="43.32399" lon="17.8198">
        <ele>97.477501</ele>
        <time>2022-06-12T13:08:01.080Z</time>
      </trkpt>
      <trkpt lat="43.32408" lon="17.81977">
        <ele>97.175607</ele>
        <time>2022-06-12T13:08:09.111Z</time>
      </trkpt>
      <trkpt lat="43.32418" lon="17.81973">
        <ele>96.849795</ele>
        <time>2022-06-12T13:08:16.081Z</time>
      </trkpt>
      <trkpt lat="43.32427" lon="17.81968">
        <ele>96.532506</ele>
        <time>2022-06-12T13:08:24.081Z</time>
      </trkpt>
      <trkpt lat="43.32435" lon="17.81962">
        <ele>96.236789</ele>
        <time>2022-06-12T13:08:32.077Z</time>
      </trkpt>
      <trkpt lat="43.32444" lon="17.81956">
        <ele>95.916405</ele>
        <time>2022-06-12T13:08:40.094Z</time>
      </trkpt>
      <trkpt lat="43.32452" lon="17.81949">
        <ele>95.623193</ele>
        <time>2022-06-12T13:08:47.081Z</time>
      </trkpt>
      <trkpt lat="43.32459" lon="17.81942">
        <ele>95.330711</ele>
        <time>2022-06-12T13:08:54.122Z</time>
      </trkpt>
      <trkpt lat="43.32467" lon="17.81935">
        <ele>95.014078</ele>
        <time>2022-06-12T13:09:02.088Z</time>
      </trkpt>
      <trkpt lat="43.32475" lon="17.81928">
        <ele>94.770132</ele>
        <time>2022-06-12T13:09:09.093Z</time>
      </trkpt>
      <trkpt lat="43.32483" lon="17.8192">
        <ele>94.89386</ele>
        <time>2022-06-12T13:09:16.075Z</time>
      </trkpt>
      <trkpt lat="43.3249" lon="17.81913">
        <ele>95.015744</ele>
        <time>2022-06-12T13:09:23.091Z</time>
      </trkpt>
      <trkpt lat="43.32497" lon="17.81904">
        <ele>95.150741</ele>
        <time>2022-06-12T13:09:31.075Z</time>
      </trkpt>
      <trkpt lat="43.32505" lon="17.81894">
        <ele>95.28998</ele>
        <time>2022-06-12T13:09:39.078Z</time>
      </trkpt>
      <trkpt lat="43.32512" lon="17.81885">
        <ele>95.419342</ele>
        <time>2022-06-12T13:09:46.084Z</time>
      </trkpt>
      <trkpt lat="43.32519" lon="17.81877">
        <ele>95.54477</ele>
        <time>2022-06-12T13:09:53.143Z</time>
      </trkpt>
      <trkpt lat="43.32526" lon="17.81868">
        <ele>95.673089</ele>
        <time>2022-06-12T13:10:00.122Z</time>
      </trkpt>
      <trkpt lat="43.32532" lon="17.81858">
        <ele>95.795517</ele>
        <time>2022-06-12T13:10:07.085Z</time>
      </trkpt>
      <trkpt lat="43.32538" lon="17.81848">
        <ele>95.931989</ele>
        <time>2022-06-12T13:10:15.095Z</time>
      </trkpt>
      <trkpt lat="43.32545" lon="17.81837">
        <ele>96.065632</ele>
        <time>2022-06-12T13:10:23.083Z</time>
      </trkpt>
      <trkpt lat="43.32552" lon="17.81827">
        <ele>96.200173</ele>
        <time>2022-06-12T13:10:32.078Z</time>
      </trkpt>
      <trkpt lat="43.32558" lon="17.81818">
        <ele>96.322459</ele>
        <time>2022-06-12T13:10:39.089Z</time>
      </trkpt>
      <trkpt lat="43.32564" lon="17.81808">
        <ele>96.453016</ele>
        <time>2022-06-12T13:10:47.080Z</time>
      </trkpt>
      <trkpt lat="43.32571" lon="17.81797">
        <ele>96.58863</ele>
        <time>2022-06-12T13:10:55.093Z</time>
      </trkpt>
      <trkpt lat="43.32577" lon="17.81787">
        <ele>96.721024</ele>
        <time>2022-06-12T13:11:02.086Z</time>
      </trkpt>
      <trkpt lat="43.32584" lon="17.81778">
        <ele>96.850009</ele>
        <time>2022-06-12T13:11:09.099Z</time>
      </trkpt>
      <trkpt lat="43.32591" lon="17.81769">
        <ele>96.977732</ele>
        <time>2022-06-12T13:11:16.121Z</time>
      </trkpt>
      <trkpt lat="43.32599" lon="17.81761">
        <ele>97.11002</ele>
        <time>2022-06-12T13:11:23.090Z</time>
      </trkpt>
      <trkpt lat="43.32606" lon="17.81753">
        <ele>97.165909</ele>
        <time>2022-06-12T13:11:30.093Z</time>
      </trkpt>
      <trkpt lat="43.32613" lon="17.81744">
        <ele>97.153771</ele>
        <time>2022-06-12T13:11:38.082Z</time>
      </trkpt>
      <trkpt lat="43.3262" lon="17.81735">
        <ele>97.142389</ele>
        <time>2022-06-12T13:11:45.125Z</time>
      </trkpt>
      <trkpt lat="43.32628" lon="17.81727">
        <ele>97.130751</ele>
        <time>2022-06-12T13:11:53.084Z</time>
      </trkpt>
      <trkpt lat="43.32635" lon="17.81719">
        <ele>97.119429</ele>
        <time>2022-06-12T13:12:00.093Z</time>
      </trkpt>
      <trkpt lat="43.32642" lon="17.81709">
        <ele>97.10687</ele>
        <time>2022-06-12T13:12:07.121Z</time>
      </trkpt>
      <trkpt lat="43.32649" lon="17.81701">
        <ele>97.095217</ele>
        <time>2022-06-12T13:12:14.091Z</time>
      </trkpt>
      <trkpt lat="43.32656" lon="17.81692">
        <ele>97.083861</ele>
        <time>2022-06-12T13:12:21.105Z</time>
      </trkpt>
      <trkpt lat="43.32664" lon="17.81684">
        <ele>97.072101</ele>
        <time>2022-06-12T13:12:29.073Z</time>
      </trkpt>
      <trkpt lat="43.32672" lon="17.81677">
        <ele>97.060403</ele>
        <time>2022-06-12T13:12:36.092Z</time>
      </trkpt>
      <trkpt lat="43.3268" lon="17.81669">
        <ele>97.048091</ele>
        <time>2022-06-12T13:12:44.095Z</time>
      </trkpt>
      <trkpt lat="43.32684" lon="17.81657">
        <ele>97.036376</ele>
        <time>2022-06-12T13:12:53.103Z</time>
      </trkpt>
      <trkpt lat="43.32691" lon="17.81649">
        <ele>97.025082</ele>
        <time>2022-06-12T13:13:02.085Z</time>
      </trkpt>
      <trkpt lat="43.32699" lon="17.81642">
        <ele>97.013536</ele>
        <time>2022-06-12T13:13:12.085Z</time>
      </trkpt>
      <trkpt lat="43.32707" lon="17.81636">
        <ele>97.002435</ele>
        <time>2022-06-12T13:13:20.080Z</time>
      </trkpt>
      <trkpt lat="43.32715" lon="17.8163">
        <ele>96.991002</ele>
        <time>2022-06-12T13:13:26.139Z</time>
      </trkpt>
      <trkpt lat="43.32724" lon="17.81625">
        <ele>96.979175</ele>
        <time>2022-06-12T13:13:34.091Z</time>
      </trkpt>
      <trkpt lat="43.32733" lon="17.81621">
        <ele>96.966943</ele>
        <time>2022-06-12T13:13:43.084Z</time>
      </trkpt>
      <trkpt lat="43.32741" lon="17.81614">
        <ele>96.955299</ele>
        <time>2022-06-12T13:13:52.089Z</time>
      </trkpt>
      <trkpt lat="43.3275" lon="17.81608">
        <ele>97.06429</ele>
        <time>2022-06-12T13:14:00.068Z</time>
      </trkpt>
      <trkpt lat="43.32759" lon="17.81605">
        <ele>97.256851</ele>
        <time>2022-06-12T13:14:08.087Z</time>
      </trkpt>
      <trkpt lat="43.32767" lon="17.816">
        <ele>97.444919</ele>
        <time>2022-06-12T13:14:16.148Z</time>
      </trkpt>
      <trkpt lat="43.32775" lon="17.81595">
        <ele>97.639861</ele>
        <time>2022-06-12T13:14:25.092Z</time>
      </trkpt>
      <trkpt lat="43.32802" lon="17.81605">
        <ele>98.202693</ele>
        <time>2022-06-12T13:15:02.089Z</time>
      </trkpt>
      <trkpt lat="43.3281" lon="17.816">
        <ele>98.395832</ele>
        <time>2022-06-12T13:15:09.096Z</time>
      </trkpt>
      <trkpt lat="43.32819" lon="17.81596">
        <ele>98.589511</ele>
        <time>2022-06-12T13:15:16.084Z</time>
      </trkpt>
      <trkpt lat="43.32828" lon="17.81593">
        <ele>98.77601</ele>
        <time>2022-06-12T13:15:23.122Z</time>
      </trkpt>
      <trkpt lat="43.32838" lon="17.81591">
        <ele>98.979871</ele>
        <time>2022-06-12T13:15:31.077Z</time>
      </trkpt>
      <trkpt lat="43.32847" lon="17.81587">
        <ele>99.187691</ele>
        <time>2022-06-12T13:15:39.088Z</time>
      </trkpt>
      <trkpt lat="43.32856" lon="17.81583">
        <ele>99.375559</ele>
        <time>2022-06-12T13:15:46.089Z</time>
      </trkpt>
      <trkpt lat="43.32865" lon="17.8158">
        <ele>99.565466</ele>
        <time>2022-06-12T13:15:54.091Z</time>
      </trkpt>
      <trkpt lat="43.32874" lon="17.81577">
        <ele>99.762389</ele>
        <time>2022-06-12T13:16:02.091Z</time>
      </trkpt>
      <trkpt lat="43.32901" lon="17.81562">
        <ele>100.364744</ele>
        <time>2022-06-12T13:17:41.088Z</time>
      </trkpt>
      <trkpt lat="43.3291" lon="17.81561">
        <ele>100.553264</ele>
        <time>2022-06-12T13:17:50.100Z</time>
      </trkpt>
      <trkpt lat="43.3292" lon="17.81561">
        <ele>100.623678</ele>
        <time>2022-06-12T13:17:58.088Z</time>
      </trkpt>
      <trkpt lat="43.32929" lon="17.81558">
        <ele>100.493943</ele>
        <time>2022-06-12T13:18:07.118Z</time>
      </trkpt>
      <trkpt lat="43.32939" lon="17.81554">
        <ele>100.363637</ele>
        <time>2022-06-12T13:18:15.106Z</time>
      </trkpt>
      <trkpt lat="43.32948" lon="17.81551">
        <ele>100.241721</ele>
        <time>2022-06-12T13:18:23.076Z</time>
      </trkpt>
      <trkpt lat="43.32959" lon="17.81548">
        <ele>100.108612</ele>
        <time>2022-06-12T13:18:31.087Z</time>
      </trkpt>
      <trkpt lat="43.32968" lon="17.81546">
        <ele>99.993622</ele>
        <time>2022-06-12T13:18:37.089Z</time>
      </trkpt>
      <trkpt lat="43.32978" lon="17.81546">
        <ele>99.864155</ele>
        <time>2022-06-12T13:18:43.088Z</time>
      </trkpt>
      <trkpt lat="43.32987" lon="17.81544">
        <ele>99.737627</ele>
        <time>2022-06-12T13:18:49.075Z</time>
      </trkpt>
      <trkpt lat="43.32997" lon="17.81543">
        <ele>99.609083</ele>
        <time>2022-06-12T13:18:55.097Z</time>
      </trkpt>
      <trkpt lat="43.33006" lon="17.81541">
        <ele>99.493064</ele>
        <time>2022-06-12T13:19:00.080Z</time>
      </trkpt>
      <trkpt lat="43.33016" lon="17.8154">
        <ele>99.364874</ele>
        <time>2022-06-12T13:19:07.094Z</time>
      </trkpt>
      <trkpt lat="43.33026" lon="17.81539">
        <ele>99.241331</ele>
        <time>2022-06-12T13:19:18.091Z</time>
      </trkpt>
      <trkpt lat="43.33036" lon="17.81537">
        <ele>99.116192</ele>
        <time>2022-06-12T13:19:28.095Z</time>
      </trkpt>
      <trkpt lat="43.33046" lon="17.81535">
        <ele>98.987003</ele>
        <time>2022-06-12T13:19:34.081Z</time>
      </trkpt>
      <trkpt lat="43.33055" lon="17.81535">
        <ele>98.870532</ele>
        <time>2022-06-12T13:19:40.083Z</time>
      </trkpt>
      <trkpt lat="43.33065" lon="17.81535">
        <ele>98.746385</ele>
        <time>2022-06-12T13:19:48.080Z</time>
      </trkpt>
      <trkpt lat="43.33074" lon="17.81535">
        <ele>98.624796</ele>
        <time>2022-06-12T13:19:58.089Z</time>
      </trkpt>
      <trkpt lat="43.33083" lon="17.81535">
        <ele>98.507028</ele>
        <time>2022-06-12T13:20:07.089Z</time>
      </trkpt>
      <trkpt lat="43.33093" lon="17.81534">
        <ele>98.375935</ele>
        <time>2022-06-12T13:20:15.147Z</time>
      </trkpt>
      <trkpt lat="43.33104" lon="17.81532">
        <ele>99.347217</ele>
        <time>2022-06-12T13:20:24.080Z</time>
      </trkpt>
      <trkpt lat="43.33113" lon="17.8153">
        <ele>100.296311</ele>
        <time>2022-06-12T13:20:33.082Z</time>
      </trkpt>
      <trkpt lat="43.33121" lon="17.81526">
        <ele>101.230877</ele>
        <time>2022-06-12T13:20:47.090Z</time>
      </trkpt>
      <trkpt lat="43.3313" lon="17.81519">
        <ele>102.202701</ele>
        <time>2022-06-12T13:20:56.089Z</time>
      </trkpt>
      <trkpt lat="43.3314" lon="17.81516">
        <ele>103.243334</ele>
        <time>2022-06-12T13:21:04.084Z</time>
      </trkpt>
      <trkpt lat="43.33149" lon="17.81514">
        <ele>104.186252</ele>
        <time>2022-06-12T13:21:11.078Z</time>
      </trkpt>
      <trkpt lat="43.33159" lon="17.8151">
        <ele>105.202956</ele>
        <time>2022-06-12T13:21:20.078Z</time>
      </trkpt>
      <trkpt lat="43.33168" lon="17.81508">
        <ele>106.152012</ele>
        <time>2022-06-12T13:21:28.116Z</time>
      </trkpt>
      <trkpt lat="43.33177" lon="17.81506">
        <ele>107.122402</ele>
        <time>2022-06-12T13:21:35.127Z</time>
      </trkpt>
      <trkpt lat="43.33186" lon="17.81501">
        <ele>108.065357</ele>
        <time>2022-06-12T13:21:43.086Z</time>
      </trkpt>
      <trkpt lat="43.33195" lon="17.81496">
        <ele>109.016973</ele>
        <time>2022-06-12T13:21:51.079Z</time>
      </trkpt>
      <trkpt lat="43.33204" lon="17.81492">
        <ele>110.038051</ele>
        <time>2022-06-12T13:21:59.076Z</time>
      </trkpt>
      <trkpt lat="43.33213" lon="17.81488">
        <ele>111.011681</ele>
        <time>2022-06-12T13:22:08.084Z</time>
      </trkpt>
      <trkpt lat="43.33223" lon="17.81484">
        <ele>111.985312</ele>
        <time>2022-06-12T13:22:18.076Z</time>
      </trkpt>
      <trkpt lat="43.33233" lon="17.81481">
        <ele>113.033024</ele>
        <time>2022-06-12T13:22:27.088Z</time>
      </trkpt>
      <trkpt lat="43.33242" lon="17.81479">
        <ele>113.961949</ele>
        <time>2022-06-12T13:22:32.120Z</time>
      </trkpt>
      <trkpt lat="43.33252" lon="17.81477">
        <ele>115.000802</ele>
        <time>2022-06-12T13:22:39.087Z</time>
      </trkpt>
      <trkpt lat="43.33261" lon="17.81472">
        <ele>115.961923</ele>
        <time>2022-06-12T13:22:54.092Z</time>
      </trkpt>
      <trkpt lat="43.33269" lon="17.81467">
        <ele>116.721086</ele>
        <time>2022-06-12T13:23:04.075Z</time>
      </trkpt>
      <trkpt lat="43.33271" lon="17.81453">
        <ele>117.112272</ele>
        <time>2022-06-12T13:23:14.087Z</time>
      </trkpt>
      <trkpt lat="43.33279" lon="17.81447">
        <ele>117.476496</ele>
        <time>2022-06-12T13:23:21.120Z</time>
      </trkpt>
      <trkpt lat="43.33289" lon="17.81443">
        <ele>117.858439</ele>
        <time>2022-06-12T13:23:28.071Z</time>
      </trkpt>
      <trkpt lat="43.33298" lon="17.81438">
        <ele>118.238663</ele>
        <time>2022-06-12T13:23:36.090Z</time>
      </trkpt>
      <trkpt lat="43.33305" lon="17.81431">
        <ele>118.592873</ele>
        <time>2022-06-12T13:23:44.092Z</time>
      </trkpt>
      <trkpt lat="43.33314" lon="17.81424">
        <ele>118.989118</ele>
        <time>2022-06-12T13:23:54.081Z</time>
      </trkpt>
      <trkpt lat="43.33323" lon="17.81417">
        <ele>119.374832</ele>
        <time>2022-06-12T13:24:03.085Z</time>
      </trkpt>
      <trkpt lat="43.33331" lon="17.8141">
        <ele>119.770646</ele>
        <time>2022-06-12T13:24:11.092Z</time>
      </trkpt>
      <trkpt lat="43.3334" lon="17.81404">
        <ele>120.148631</ele>
        <time>2022-06-12T13:24:21.089Z</time>
      </trkpt>
      <trkpt lat="43.33347" lon="17.81395">
        <ele>120.515964</ele>
        <time>2022-06-12T13:24:32.120Z</time>
      </trkpt>
      <trkpt lat="43.33357" lon="17.81391">
        <ele>120.899786</ele>
        <time>2022-06-12T13:24:40.100Z</time>
      </trkpt>
      <trkpt lat="43.33366" lon="17.81391">
        <ele>121.280405</ele>
        <time>2022-06-12T13:24:46.091Z</time>
      </trkpt>
      <trkpt lat="43.33376" lon="17.81393">
        <ele>121.647899</ele>
        <time>2022-06-12T13:24:51.088Z</time>
      </trkpt>
      <trkpt lat="43.33386" lon="17.81395">
        <ele>122.045941</ele>
        <time>2022-06-12T13:24:57.084Z</time>
      </trkpt>
      <trkpt lat="43.33396" lon="17.81397">
        <ele>122.449904</ele>
        <time>2022-06-12T13:25:03.073Z</time>
      </trkpt>
      <trkpt lat="43.33406" lon="17.81396">
        <ele>122.827454</ele>
        <time>2022-06-12T13:25:11.125Z</time>
      </trkpt>
      <trkpt lat="43.33415" lon="17.81392">
        <ele>123.193801</ele>
        <time>2022-06-12T13:25:20.083Z</time>
      </trkpt>
      <trkpt lat="43.33423" lon="17.81385">
        <ele>123.550736</ele>
        <time>2022-06-12T13:25:28.140Z</time>
      </trkpt>
      <trkpt lat="43.33432" lon="17.8138">
        <ele>122.913512</ele>
        <time>2022-06-12T13:25:36.087Z</time>
      </trkpt>
      <trkpt lat="43.33441" lon="17.81378">
        <ele>122.207476</ele>
        <time>2022-06-12T13:25:43.099Z</time>
      </trkpt>
      <trkpt lat="43.3345" lon="17.81375">
        <ele>121.51383</ele>
        <time>2022-06-12T13:25:51.080Z</time>
      </trkpt>
      <trkpt lat="43.33459" lon="17.81367">
        <ele>120.767955</ele>
        <time>2022-06-12T13:26:01.115Z</time>
      </trkpt>
      <trkpt lat="43.33467" lon="17.81365">
        <ele>120.086824</ele>
        <time>2022-06-12T13:26:11.097Z</time>
      </trkpt>
      <trkpt lat="43.33475" lon="17.81356">
        <ele>119.380101</ele>
        <time>2022-06-12T13:26:18.102Z</time>
      </trkpt>
      <trkpt lat="43.33481" lon="17.81347">
        <ele>118.671092</ele>
        <time>2022-06-12T13:26:24.089Z</time>
      </trkpt>
      <trkpt lat="43.33488" lon="17.81336">
        <ele>117.912619</ele>
        <time>2022-06-12T13:26:32.092Z</time>
      </trkpt>
      <trkpt lat="43.33496" lon="17.81328">
        <ele>117.177249</ele>
        <time>2022-06-12T13:26:41.074Z</time>
      </trkpt>
      <trkpt lat="43.33502" lon="17.81319">
        <ele>116.49161</ele>
        <time>2022-06-12T13:26:49.089Z</time>
      </trkpt>
      <trkpt lat="43.3351" lon="17.8131">
        <ele>115.732017</ele>
        <time>2022-06-12T13:26:58.138Z</time>
      </trkpt>
      <trkpt lat="43.33518" lon="17.81303">
        <ele>115.053416</ele>
        <time>2022-06-12T13:27:06.074Z</time>
      </trkpt>
      <trkpt lat="43.33525" lon="17.81294">
        <ele>114.333964</ele>
        <time>2022-06-12T13:27:15.089Z</time>
      </trkpt>
      <trkpt lat="43.33531" lon="17.81284">
        <ele>113.608147</ele>
        <time>2022-06-12T13:27:24.087Z</time>
      </trkpt>
      <trkpt lat="43.33537" lon="17.81273">
        <ele>112.859031</ele>
        <time>2022-06-12T13:27:33.089Z</time>
      </trkpt>
      <trkpt lat="43.33545" lon="17.81264">
        <ele>112.116832</ele>
        <time>2022-06-12T13:27:41.083Z</time>
      </trkpt>
      <trkpt lat="43.33553" lon="17.81256">
        <ele>111.413796</ele>
        <time>2022-06-12T13:27:49.083Z</time>
      </trkpt>
      <trkpt lat="43.33559" lon="17.81247">
        <ele>110.704438</ele>
        <time>2022-06-12T13:27:57.092Z</time>
      </trkpt>
      <trkpt lat="43.33566" lon="17.81238">
        <ele>110.188519</ele>
        <time>2022-06-12T13:28:05.129Z</time>
      </trkpt>
      <trkpt lat="43.33573" lon="17.81229">
        <ele>110.183643</ele>
        <time>2022-06-12T13:28:13.086Z</time>
      </trkpt>
      <trkpt lat="43.3358" lon="17.8122">
        <ele>110.178506</ele>
        <time>2022-06-12T13:28:21.091Z</time>
      </trkpt>
      <trkpt lat="43.33588" lon="17.81212">
        <ele>110.173156</ele>
        <time>2022-06-12T13:28:30.113Z</time>
      </trkpt>
      <trkpt lat="43.33595" lon="17.81204">
        <ele>110.168226</ele>
        <time>2022-06-12T13:28:38.116Z</time>
      </trkpt>
      <trkpt lat="43.33601" lon="17.81194">
        <ele>110.16302</ele>
        <time>2022-06-12T13:28:46.083Z</time>
      </trkpt>
      <trkpt lat="43.33604" lon="17.81181">
        <ele>110.1581</ele>
        <time>2022-06-12T13:28:56.105Z</time>
      </trkpt>
      <trkpt lat="43.33613" lon="17.81174">
        <ele>110.152844</ele>
        <time>2022-06-12T13:29:08.099Z</time>
      </trkpt>
      <trkpt lat="43.33619" lon="17.81164">
        <ele>110.147796</ele>
        <time>2022-06-12T13:29:16.058Z</time>
      </trkpt>
      <trkpt lat="43.33624" lon="17.81152">
        <ele>110.14242</ele>
        <time>2022-06-12T13:29:26.064Z</time>
      </trkpt>
      <trkpt lat="43.33629" lon="17.81141">
        <ele>110.137291</ele>
        <time>2022-06-12T13:29:34.064Z</time>
      </trkpt>
      <trkpt lat="43.33635" lon="17.81131">
        <ele>110.132458</ele>
        <time>2022-06-12T13:29:43.066Z</time>
      </trkpt>
      <trkpt lat="43.33642" lon="17.81123">
        <ele>110.127501</ele>
        <time>2022-06-12T13:29:50.093Z</time>
      </trkpt>
      <trkpt lat="43.3365" lon="17.81115">
        <ele>110.122135</ele>
        <time>2022-06-12T13:29:59.113Z</time>
      </trkpt>
      <trkpt lat="43.33658" lon="17.81107">
        <ele>110.117219</ele>
        <time>2022-06-12T13:30:04.084Z</time>
      </trkpt>
      <trkpt lat="43.33666" lon="17.81098">
        <ele>110.111773</ele>
        <time>2022-06-12T13:30:10.092Z</time>
      </trkpt>
      <trkpt lat="43.33672" lon="17.81089">
        <ele>110.1068</ele>
        <time>2022-06-12T13:30:16.103Z</time>
      </trkpt>
      <trkpt lat="43.33679" lon="17.8108">
        <ele>110.101803</ele>
        <time>2022-06-12T13:30:24.093Z</time>
      </trkpt>
      <trkpt lat="43.33687" lon="17.81072">
        <ele>110.096756</ele>
        <time>2022-06-12T13:30:32.089Z</time>
      </trkpt>
      <trkpt lat="43.33695" lon="17.81063">
        <ele>110.050565</ele>
        <time>2022-06-12T13:30:42.088Z</time>
      </trkpt>
      <trkpt lat="43.33702" lon="17.81055">
        <ele>109.989906</ele>
        <time>2022-06-12T13:30:49.085Z</time>
      </trkpt>
      <trkpt lat="43.33702" lon="17.81042">
        <ele>109.928805</ele>
        <time>2022-06-12T13:31:03.089Z</time>
      </trkpt>
      <trkpt lat="43.33695" lon="17.81033">
        <ele>109.865641</ele>
        <time>2022-06-12T13:31:09.087Z</time>
      </trkpt>
      <trkpt lat="43.33698" lon="17.81021">
        <ele>109.803388</ele>
        <time>2022-06-12T13:31:17.083Z</time>
      </trkpt>
      <trkpt lat="43.33708" lon="17.81021">
        <ele>109.738109</ele>
        <time>2022-06-12T13:31:29.082Z</time>
      </trkpt>
      <trkpt lat="43.33717" lon="17.81017">
        <ele>109.676458</ele>
        <time>2022-06-12T13:31:35.065Z</time>
      </trkpt>
      <trkpt lat="43.33725" lon="17.8101">
        <ele>109.611193</ele>
        <time>2022-06-12T13:31:43.060Z</time>
      </trkpt>
      <trkpt lat="43.3373" lon="17.80992">
        <ele>109.516522</ele>
        <time>2022-06-12T13:31:50.091Z</time>
      </trkpt>
      <trkpt lat="43.3373" lon="17.80978">
        <ele>109.448853</ele>
        <time>2022-06-12T13:31:58.059Z</time>
      </trkpt>
      <trkpt lat="43.33729" lon="17.80965">
        <ele>109.385851</ele>
        <time>2022-06-12T13:32:05.062Z</time>
      </trkpt>
      <trkpt lat="43.33729" lon="17.80953">
        <ele>109.325001</ele>
        <time>2022-06-12T13:32:13.071Z</time>
      </trkpt>
      <trkpt lat="43.33732" lon="17.8094">
        <ele>109.258968</ele>
        <time>2022-06-12T13:32:21.063Z</time>
      </trkpt>
      <trkpt lat="43.33734" lon="17.80927">
        <ele>109.196069</ele>
        <time>2022-06-12T13:32:29.068Z</time>
      </trkpt>
      <trkpt lat="43.33734" lon="17.80914">
        <ele>109.129425</ele>
        <time>2022-06-12T13:32:37.074Z</time>
      </trkpt>
      <trkpt lat="43.33735" lon="17.809">
        <ele>109.063582</ele>
        <time>2022-06-12T13:32:45.068Z</time>
      </trkpt>
      <trkpt lat="43.33735" lon="17.80888">
        <ele>109.001901</ele>
        <time>2022-06-12T13:32:52.057Z</time>
      </trkpt>
      <trkpt lat="43.33736" lon="17.80874">
        <ele>108.935636</ele>
        <time>2022-06-12T13:33:00.059Z</time>
      </trkpt>
      <trkpt lat="43.33738" lon="17.80861">
        <ele>108.982034</ele>
        <time>2022-06-12T13:33:08.060Z</time>
      </trkpt>
      <trkpt lat="43.3374" lon="17.80847">
        <ele>109.355053</ele>
        <time>2022-06-12T13:33:16.058Z</time>
      </trkpt>
      <trkpt lat="43.33744" lon="17.80834">
        <ele>109.727817</ele>
        <time>2022-06-12T13:33:24.064Z</time>
      </trkpt>
      <trkpt lat="43.33748" lon="17.80822">
        <ele>110.083177</ele>
        <time>2022-06-12T13:33:33.067Z</time>
      </trkpt>
      <trkpt lat="43.33747" lon="17.80809">
        <ele>110.447204</ele>
        <time>2022-06-12T13:33:42.063Z</time>
      </trkpt>
      <trkpt lat="43.33749" lon="17.80796">
        <ele>110.798366</ele>
        <time>2022-06-12T13:33:52.066Z</time>
      </trkpt>
      <trkpt lat="43.33748" lon="17.80784">
        <ele>111.130191</ele>
        <time>2022-06-12T13:34:00.060Z</time>
      </trkpt>
      <trkpt lat="43.33754" lon="17.80773">
        <ele>111.48392</ele>
        <time>2022-06-12T13:34:14.103Z</time>
      </trkpt>
      <trkpt lat="43.33757" lon="17.8076">
        <ele>111.836267</ele>
        <time>2022-06-12T13:34:32.059Z</time>
      </trkpt>
      <trkpt lat="43.33766" lon="17.8076">
        <ele>112.192974</ele>
        <time>2022-06-12T13:34:43.066Z</time>
      </trkpt>
      <trkpt lat="43.33778" lon="17.80762">
        <ele>112.625922</ele>
        <time>2022-06-12T13:34:47.065Z</time>
      </trkpt>
      <trkpt lat="43.33789" lon="17.80768">
        <ele>113.0819</ele>
        <time>2022-06-12T13:34:52.064Z</time>
      </trkpt>
      <trkpt lat="43.33799" lon="17.80774">
        <ele>113.470585</ele>
        <time>2022-06-12T13:34:56.058Z</time>
      </trkpt>
      <trkpt lat="43.33809" lon="17.80772">
        <ele>113.862935</ele>
        <time>2022-06-12T13:35:01.064Z</time>
      </trkpt>
      <trkpt lat="43.33818" lon="17.80775">
        <ele>114.199741</ele>
        <time>2022-06-12T13:35:10.060Z</time>
      </trkpt>
      <trkpt lat="43.33827" lon="17.80774">
        <ele>114.549707</ele>
        <time>2022-06-12T13:35:18.057Z</time>
      </trkpt>
      <trkpt lat="43.33835" lon="17.80768">
        <ele>114.890329</ele>
        <time>2022-06-12T13:35:25.065Z</time>
      </trkpt>
      <trkpt lat="43.33837" lon="17.80756">
        <ele>115.23015</ele>
        <time>2022-06-12T13:35:35.065Z</time>
      </trkpt>
      <trkpt lat="43.33835" lon="17.80743">
        <ele>115.553643</ele>
        <time>2022-06-12T13:35:42.059Z</time>
      </trkpt>
      <trkpt lat="43.33836" lon="17.8073">
        <ele>115.553643</ele>
        <time>2022-06-12T13:35:52.106Z</time>
      </trkpt>
      <trkpt lat="43.33835" lon="17.80717">
        <ele>115.553643</ele>
        <time>2022-06-12T13:35:59.058Z</time>
      </trkpt>
      <trkpt lat="43.33828" lon="17.80708">
        <ele>115.553643</ele>
        <time>2022-06-12T13:36:06.058Z</time>
      </trkpt>
      <trkpt lat="43.33827" lon="17.80695">
        <ele>115.553643</ele>
        <time>2022-06-12T13:36:13.061Z</time>
      </trkpt>
      <trkpt lat="43.33827" lon="17.80682">
        <ele>115.553643</ele>
        <time>2022-06-12T13:36:23.059Z</time>
      </trkpt>
      <trkpt lat="43.33832" lon="17.80673">
        <ele>115.553643</ele>
        <time>2022-06-12T13:36:35.061Z</time>
      </trkpt>
      <trkpt lat="43.33832" lon="17.80659">
        <ele>115.553643</ele>
        <time>2022-06-12T13:36:43.055Z</time>
      </trkpt>
      <trkpt lat="43.33841" lon="17.80658">
        <ele>115.553643</ele>
        <time>2022-06-12T13:37:09.072Z</time>
      </trkpt>
      <trkpt lat="43.33798" lon="17.80729">
        <ele>115.553643</ele>
        <time>2022-06-12T13:59:56.777Z</time>
      </trkpt>
    </trkseg>
  </trk>
  <trk>
    <name><![CDATA[Tour d'Europe: étape 713]]></name>
    <extensions>
      <line xmlns="http://www.topografix.com/GPX/gpx_style/0/2">
        <color>00FF00</color>
        <width>4</width>
      </line>
    </extensions>
    <trkseg>
      <trkpt lat="42.84719" lon="17.97979">
        <ele>313.263002</ele>
        <time>2022-06-11T08:03:25.832Z</time>
      </trkpt>
      <trkpt lat="42.8474" lon="17.97981">
        <ele>313.263002</ele>
        <time>2022-06-11T08:14:46.127Z</time>
      </trkpt>
      <trkpt lat="42.8475" lon="17.97989">
        <ele>313.263002</ele>
        <time>2022-06-11T08:14:50.089Z</time>
      </trkpt>
      <trkpt lat="42.84761" lon="17.9799">
        <ele>313.263002</ele>
        <time>2022-06-11T08:14:53.052Z</time>
      </trkpt>
      <trkpt lat="42.84771" lon="17.97987">
        <ele>313.263002</ele>
        <time>2022-06-11T08:14:56.024Z</time>
      </trkpt>
      <trkpt lat="42.84782" lon="17.97985">
        <ele>313.263002</ele>
        <time>2022-06-11T08:14:59.006Z</time>
      </trkpt>
      <trkpt lat="42.84792" lon="17.97983">
        <ele>313.263002</ele>
        <time>2022-06-11T08:15:02.028Z</time>
      </trkpt>
      <trkpt lat="42.84803" lon="17.97982">
        <ele>313.263002</ele>
        <time>2022-06-11T08:15:05.022Z</time>
      </trkpt>
      <trkpt lat="42.84813" lon="17.97982">
        <ele>313.242462</ele>
        <time>2022-06-11T08:15:08.128Z</time>
      </trkpt>
      <trkpt lat="42.84823" lon="17.97983">
        <ele>313.209649</ele>
        <time>2022-06-11T08:15:11.019Z</time>
      </trkpt>
      <trkpt lat="42.84833" lon="17.97985">
        <ele>313.1769</ele>
        <time>2022-06-11T08:15:14.010Z</time>
      </trkpt>
      <trkpt lat="42.84843" lon="17.97986">
        <ele>313.143129</ele>
        <time>2022-06-11T08:15:17.015Z</time>
      </trkpt>
      <trkpt lat="42.84854" lon="17.97988">
        <ele>313.108862</ele>
        <time>2022-06-11T08:15:20.005Z</time>
      </trkpt>
      <trkpt lat="42.84864" lon="17.9799">
        <ele>313.076076</ele>
        <time>2022-06-11T08:15:23.017Z</time>
      </trkpt>
      <trkpt lat="42.84875" lon="17.97994">
        <ele>313.039527</ele>
        <time>2022-06-11T08:15:27.012Z</time>
      </trkpt>
      <trkpt lat="42.84884" lon="17.97999">
        <ele>313.007291</ele>
        <time>2022-06-11T08:15:31.013Z</time>
      </trkpt>
      <trkpt lat="42.84893" lon="17.98003">
        <ele>312.975623</ele>
        <time>2022-06-11T08:15:35.020Z</time>
      </trkpt>
      <trkpt lat="42.84903" lon="17.98007">
        <ele>312.940865</ele>
        <time>2022-06-11T08:15:39.022Z</time>
      </trkpt>
      <trkpt lat="42.84912" lon="17.98015">
        <ele>312.906272</ele>
        <time>2022-06-11T08:15:43.016Z</time>
      </trkpt>
      <trkpt lat="42.84921" lon="17.98025">
        <ele>312.869289</ele>
        <time>2022-06-11T08:15:47.012Z</time>
      </trkpt>
      <trkpt lat="42.84929" lon="17.98034">
        <ele>312.83493</ele>
        <time>2022-06-11T08:15:51.023Z</time>
      </trkpt>
      <trkpt lat="42.84936" lon="17.98046">
        <ele>312.797805</ele>
        <time>2022-06-11T08:15:55.019Z</time>
      </trkpt>
      <trkpt lat="42.84943" lon="17.98057">
        <ele>312.762823</ele>
        <time>2022-06-11T08:15:59.048Z</time>
      </trkpt>
      <trkpt lat="42.84951" lon="17.98068">
        <ele>312.725966</ele>
        <time>2022-06-11T08:16:03.028Z</time>
      </trkpt>
      <trkpt lat="42.84959" lon="17.98079">
        <ele>312.68832</ele>
        <time>2022-06-11T08:16:07.022Z</time>
      </trkpt>
      <trkpt lat="42.84967" lon="17.98088">
        <ele>312.634382</ele>
        <time>2022-06-11T08:16:11.021Z</time>
      </trkpt>
      <trkpt lat="42.84976" lon="17.98095">
        <ele>312.566219</ele>
        <time>2022-06-11T08:16:15.033Z</time>
      </trkpt>
      <trkpt lat="42.84986" lon="17.98101">
        <ele>312.495904</ele>
        <time>2022-06-11T08:16:19.013Z</time>
      </trkpt>
      <trkpt lat="42.84995" lon="17.98107">
        <ele>312.4286</ele>
        <time>2022-06-11T08:16:23.017Z</time>
      </trkpt>
      <trkpt lat="42.85005" lon="17.98112">
        <ele>312.357792</ele>
        <time>2022-06-11T08:16:27.051Z</time>
      </trkpt>
      <trkpt lat="42.85015" lon="17.98118">
        <ele>312.285652</ele>
        <time>2022-06-11T08:16:31.044Z</time>
      </trkpt>
      <trkpt lat="42.85024" lon="17.98124">
        <ele>312.217154</ele>
        <time>2022-06-11T08:16:35.021Z</time>
      </trkpt>
      <trkpt lat="42.85034" lon="17.98129">
        <ele>312.149772</ele>
        <time>2022-06-11T08:16:39.054Z</time>
      </trkpt>
      <trkpt lat="42.85044" lon="17.98136">
        <ele>312.074453</ele>
        <time>2022-06-11T08:16:43.018Z</time>
      </trkpt>
      <trkpt lat="42.85053" lon="17.98145">
        <ele>311.998114</ele>
        <time>2022-06-11T08:16:47.016Z</time>
      </trkpt>
      <trkpt lat="42.85064" lon="17.98152">
        <ele>311.924013</ele>
        <time>2022-06-11T08:16:51.032Z</time>
      </trkpt>
      <trkpt lat="42.85074" lon="17.98157">
        <ele>311.8529</ele>
        <time>2022-06-11T08:16:55.059Z</time>
      </trkpt>
      <trkpt lat="42.85083" lon="17.98162">
        <ele>311.783225</ele>
        <time>2022-06-11T08:16:59.065Z</time>
      </trkpt>
      <trkpt lat="42.85093" lon="17.98167">
        <ele>311.717863</ele>
        <time>2022-06-11T08:17:03.031Z</time>
      </trkpt>
      <trkpt lat="42.85102" lon="17.98173">
        <ele>311.652136</ele>
        <time>2022-06-11T08:17:07.073Z</time>
      </trkpt>
      <trkpt lat="42.8511" lon="17.98178">
        <ele>311.588601</ele>
        <time>2022-06-11T08:17:11.018Z</time>
      </trkpt>
      <trkpt lat="42.85119" lon="17.98183">
        <ele>311.528492</ele>
        <time>2022-06-11T08:17:15.017Z</time>
      </trkpt>
      <trkpt lat="42.8513" lon="17.98187">
        <ele>311.628653</ele>
        <time>2022-06-11T08:17:20.056Z</time>
      </trkpt>
      <trkpt lat="42.85139" lon="17.98192">
        <ele>311.919748</ele>
        <time>2022-06-11T08:17:25.014Z</time>
      </trkpt>
      <trkpt lat="42.85149" lon="17.98195">
        <ele>312.190387</ele>
        <time>2022-06-11T08:17:29.066Z</time>
      </trkpt>
      <trkpt lat="42.85158" lon="17.98198">
        <ele>312.458827</ele>
        <time>2022-06-11T08:17:33.023Z</time>
      </trkpt>
      <trkpt lat="42.85167" lon="17.98201">
        <ele>312.737786</ele>
        <time>2022-06-11T08:17:37.043Z</time>
      </trkpt>
      <trkpt lat="42.85177" lon="17.98204">
        <ele>313.014952</ele>
        <time>2022-06-11T08:17:41.024Z</time>
      </trkpt>
      <trkpt lat="42.85187" lon="17.98207">
        <ele>313.29165</ele>
        <time>2022-06-11T08:17:45.008Z</time>
      </trkpt>
      <trkpt lat="42.85196" lon="17.9821">
        <ele>313.562861</ele>
        <time>2022-06-11T08:17:49.044Z</time>
      </trkpt>
      <trkpt lat="42.85205" lon="17.98213">
        <ele>313.833667</ele>
        <time>2022-06-11T08:17:53.014Z</time>
      </trkpt>
      <trkpt lat="42.85216" lon="17.98216">
        <ele>314.15179</ele>
        <time>2022-06-11T08:17:58.022Z</time>
      </trkpt>
      <trkpt lat="42.85226" lon="17.98219">
        <ele>314.425249</ele>
        <time>2022-06-11T08:18:02.029Z</time>
      </trkpt>
      <trkpt lat="42.85236" lon="17.98223">
        <ele>314.722159</ele>
        <time>2022-06-11T08:18:07.022Z</time>
      </trkpt>
      <trkpt lat="42.85246" lon="17.98226">
        <ele>315.011683</ele>
        <time>2022-06-11T08:18:12.031Z</time>
      </trkpt>
      <trkpt lat="42.85255" lon="17.98229">
        <ele>315.292478</ele>
        <time>2022-06-11T08:18:17.028Z</time>
      </trkpt>
      <trkpt lat="42.85265" lon="17.98231">
        <ele>315.579588</ele>
        <time>2022-06-11T08:18:22.019Z</time>
      </trkpt>
      <trkpt lat="42.85276" lon="17.98233">
        <ele>315.889812</ele>
        <time>2022-06-11T08:18:27.027Z</time>
      </trkpt>
      <trkpt lat="42.85287" lon="17.98234">
        <ele>316.182945</ele>
        <time>2022-06-11T08:18:32.034Z</time>
      </trkpt>
      <trkpt lat="42.85296" lon="17.98236">
        <ele>316.441271</ele>
        <time>2022-06-11T08:18:36.024Z</time>
      </trkpt>
      <trkpt lat="42.85305" lon="17.98237">
        <ele>316.636826</ele>
        <time>2022-06-11T08:18:40.022Z</time>
      </trkpt>
      <trkpt lat="42.85316" lon="17.98237">
        <ele>316.79217</ele>
        <time>2022-06-11T08:18:45.021Z</time>
      </trkpt>
      <trkpt lat="42.85327" lon="17.98238">
        <ele>316.940553</ele>
        <time>2022-06-11T08:18:50.035Z</time>
      </trkpt>
      <trkpt lat="42.85337" lon="17.98238">
        <ele>317.086091</ele>
        <time>2022-06-11T08:18:55.070Z</time>
      </trkpt>
      <trkpt lat="42.85348" lon="17.98238">
        <ele>317.228846</ele>
        <time>2022-06-11T08:19:00.028Z</time>
      </trkpt>
      <trkpt lat="42.85358" lon="17.98236">
        <ele>317.374968</ele>
        <time>2022-06-11T08:19:05.030Z</time>
      </trkpt>
      <trkpt lat="42.85368" lon="17.98236">
        <ele>317.517752</ele>
        <time>2022-06-11T08:19:10.029Z</time>
      </trkpt>
      <trkpt lat="42.85379" lon="17.98236">
        <ele>317.667488</ele>
        <time>2022-06-11T08:19:15.062Z</time>
      </trkpt>
      <trkpt lat="42.8539" lon="17.98235">
        <ele>317.816065</ele>
        <time>2022-06-11T08:19:20.040Z</time>
      </trkpt>
      <trkpt lat="42.85401" lon="17.98234">
        <ele>317.97156</ele>
        <time>2022-06-11T08:19:25.031Z</time>
      </trkpt>
      <trkpt lat="42.85411" lon="17.98233">
        <ele>318.101937</ele>
        <time>2022-06-11T08:19:29.020Z</time>
      </trkpt>
      <trkpt lat="42.8542" lon="17.98232">
        <ele>318.232989</ele>
        <time>2022-06-11T08:19:33.029Z</time>
      </trkpt>
      <trkpt lat="42.85429" lon="17.9823">
        <ele>318.359057</ele>
        <time>2022-06-11T08:19:37.035Z</time>
      </trkpt>
      <trkpt lat="42.85438" lon="17.98228">
        <ele>318.485277</ele>
        <time>2022-06-11T08:19:41.048Z</time>
      </trkpt>
      <trkpt lat="42.85448" lon="17.98226">
        <ele>318.629768</ele>
        <time>2022-06-11T08:19:46.022Z</time>
      </trkpt>
      <trkpt lat="42.85459" lon="17.98225">
        <ele>318.77589</ele>
        <time>2022-06-11T08:19:51.042Z</time>
      </trkpt>
      <trkpt lat="42.85469" lon="17.98221">
        <ele>318.918426</ele>
        <time>2022-06-11T08:19:56.069Z</time>
      </trkpt>
      <trkpt lat="42.85479" lon="17.98216">
        <ele>319.066037</ele>
        <time>2022-06-11T08:20:01.035Z</time>
      </trkpt>
      <trkpt lat="42.85487" lon="17.98212">
        <ele>319.154618</ele>
        <time>2022-06-11T08:20:05.027Z</time>
      </trkpt>
      <trkpt lat="42.85497" lon="17.98205">
        <ele>319.261619</ele>
        <time>2022-06-11T08:20:10.018Z</time>
      </trkpt>
      <trkpt lat="42.85506" lon="17.982">
        <ele>319.350742</ele>
        <time>2022-06-11T08:20:14.043Z</time>
      </trkpt>
      <trkpt lat="42.85515" lon="17.98193">
        <ele>319.456489</ele>
        <time>2022-06-11T08:20:19.033Z</time>
      </trkpt>
      <trkpt lat="42.85525" lon="17.98186">
        <ele>319.559283</ele>
        <time>2022-06-11T08:20:24.067Z</time>
      </trkpt>
      <trkpt lat="42.85533" lon="17.98176">
        <ele>319.666983</ele>
        <time>2022-06-11T08:20:29.028Z</time>
      </trkpt>
      <trkpt lat="42.8554" lon="17.98167">
        <ele>319.75581</ele>
        <time>2022-06-11T08:20:33.008Z</time>
      </trkpt>
      <trkpt lat="42.85547" lon="17.9816">
        <ele>319.845314</ele>
        <time>2022-06-11T08:20:37.032Z</time>
      </trkpt>
      <trkpt lat="42.85556" lon="17.98151">
        <ele>319.947529</ele>
        <time>2022-06-11T08:20:42.026Z</time>
      </trkpt>
      <trkpt lat="42.85564" lon="17.98142">
        <ele>320.046442</ele>
        <time>2022-06-11T08:20:47.012Z</time>
      </trkpt>
      <trkpt lat="42.85572" lon="17.98134">
        <ele>320.147527</ele>
        <time>2022-06-11T08:20:52.024Z</time>
      </trkpt>
      <trkpt lat="42.8558" lon="17.98124">
        <ele>320.248422</ele>
        <time>2022-06-11T08:20:57.054Z</time>
      </trkpt>
      <trkpt lat="42.85587" lon="17.98116">
        <ele>320.33796</ele>
        <time>2022-06-11T08:21:01.025Z</time>
      </trkpt>
      <trkpt lat="42.85595" lon="17.98108">
        <ele>320.430335</ele>
        <time>2022-06-11T08:21:05.080Z</time>
      </trkpt>
      <trkpt lat="42.85602" lon="17.981">
        <ele>320.517492</ele>
        <time>2022-06-11T08:21:09.025Z</time>
      </trkpt>
      <trkpt lat="42.8561" lon="17.98091">
        <ele>320.618154</ele>
        <time>2022-06-11T08:21:14.075Z</time>
      </trkpt>
      <trkpt lat="42.85618" lon="17.98082">
        <ele>320.723347</ele>
        <time>2022-06-11T08:21:19.027Z</time>
      </trkpt>
      <trkpt lat="42.85626" lon="17.98074">
        <ele>320.855358</ele>
        <time>2022-06-11T08:21:23.022Z</time>
      </trkpt>
      <trkpt lat="42.85633" lon="17.98066">
        <ele>321.121235</ele>
        <time>2022-06-11T08:21:27.040Z</time>
      </trkpt>
      <trkpt lat="42.85641" lon="17.98058">
        <ele>321.39104</ele>
        <time>2022-06-11T08:21:31.052Z</time>
      </trkpt>
      <trkpt lat="42.85649" lon="17.98051">
        <ele>321.650125</ele>
        <time>2022-06-11T08:21:35.062Z</time>
      </trkpt>
      <trkpt lat="42.85657" lon="17.98045">
        <ele>321.921664</ele>
        <time>2022-06-11T08:21:39.019Z</time>
      </trkpt>
      <trkpt lat="42.85665" lon="17.98036">
        <ele>322.230733</ele>
        <time>2022-06-11T08:21:44.032Z</time>
      </trkpt>
      <trkpt lat="42.85673" lon="17.98027">
        <ele>322.531675</ele>
        <time>2022-06-11T08:21:49.029Z</time>
      </trkpt>
      <trkpt lat="42.85683" lon="17.98025">
        <ele>322.819288</ele>
        <time>2022-06-11T08:21:54.022Z</time>
      </trkpt>
      <trkpt lat="42.85693" lon="17.98025">
        <ele>323.105796</ele>
        <time>2022-06-11T08:22:00.028Z</time>
      </trkpt>
      <trkpt lat="42.85704" lon="17.98022">
        <ele>323.420552</ele>
        <time>2022-06-11T08:22:05.024Z</time>
      </trkpt>
      <trkpt lat="42.85714" lon="17.98021">
        <ele>323.713348</ele>
        <time>2022-06-11T08:22:10.043Z</time>
      </trkpt>
      <trkpt lat="42.85725" lon="17.98022">
        <ele>324.00576</ele>
        <time>2022-06-11T08:22:15.016Z</time>
      </trkpt>
      <trkpt lat="42.85736" lon="17.98021">
        <ele>324.326544</ele>
        <time>2022-06-11T08:22:20.015Z</time>
      </trkpt>
      <trkpt lat="42.85745" lon="17.98021">
        <ele>324.587226</ele>
        <time>2022-06-11T08:22:24.017Z</time>
      </trkpt>
      <trkpt lat="42.85755" lon="17.98022">
        <ele>324.877022</ele>
        <time>2022-06-11T08:22:29.027Z</time>
      </trkpt>
      <trkpt lat="42.85766" lon="17.98024">
        <ele>325.197593</ele>
        <time>2022-06-11T08:22:34.029Z</time>
      </trkpt>
      <trkpt lat="42.85776" lon="17.98025">
        <ele>325.470757</ele>
        <time>2022-06-11T08:22:38.022Z</time>
      </trkpt>
      <trkpt lat="42.85786" lon="17.98026">
        <ele>325.75459</ele>
        <time>2022-06-11T08:22:42.022Z</time>
      </trkpt>
      <trkpt lat="42.85795" lon="17.98026">
        <ele>325.904665</ele>
        <time>2022-06-11T08:22:46.036Z</time>
      </trkpt>
      <trkpt lat="42.85805" lon="17.98027">
        <ele>325.747526</ele>
        <time>2022-06-11T08:22:50.040Z</time>
      </trkpt>
      <trkpt lat="42.85815" lon="17.98026">
        <ele>325.593397</ele>
        <time>2022-06-11T08:22:54.031Z</time>
      </trkpt>
      <trkpt lat="42.85824" lon="17.98025">
        <ele>325.451449</ele>
        <time>2022-06-11T08:22:58.050Z</time>
      </trkpt>
      <trkpt lat="42.85835" lon="17.98024">
        <ele>325.277795</ele>
        <time>2022-06-11T08:23:03.070Z</time>
      </trkpt>
      <trkpt lat="42.85844" lon="17.98021">
        <ele>325.138605</ele>
        <time>2022-06-11T08:23:07.027Z</time>
      </trkpt>
      <trkpt lat="42.85855" lon="17.98017">
        <ele>324.965998</ele>
        <time>2022-06-11T08:23:12.023Z</time>
      </trkpt>
      <trkpt lat="42.85865" lon="17.98012">
        <ele>324.798251</ele>
        <time>2022-06-11T08:23:17.031Z</time>
      </trkpt>
      <trkpt lat="42.85874" lon="17.98006">
        <ele>324.63821</ele>
        <time>2022-06-11T08:23:22.044Z</time>
      </trkpt>
      <trkpt lat="42.85883" lon="17.97999">
        <ele>324.481421</ele>
        <time>2022-06-11T08:23:27.038Z</time>
      </trkpt>
      <trkpt lat="42.85892" lon="17.97991">
        <ele>324.31292</ele>
        <time>2022-06-11T08:23:32.012Z</time>
      </trkpt>
      <trkpt lat="42.85899" lon="17.9798">
        <ele>324.149362</ele>
        <time>2022-06-11T08:23:37.058Z</time>
      </trkpt>
      <trkpt lat="42.85905" lon="17.97969">
        <ele>323.983693</ele>
        <time>2022-06-11T08:23:42.035Z</time>
      </trkpt>
      <trkpt lat="42.85911" lon="17.97956">
        <ele>323.816215</ele>
        <time>2022-06-11T08:23:47.048Z</time>
      </trkpt>
      <trkpt lat="42.85916" lon="17.97945">
        <ele>323.667272</ele>
        <time>2022-06-11T08:23:51.030Z</time>
      </trkpt>
      <trkpt lat="42.8592" lon="17.97932">
        <ele>323.505659</ele>
        <time>2022-06-11T08:23:56.032Z</time>
      </trkpt>
      <trkpt lat="42.85923" lon="17.97919">
        <ele>323.345225</ele>
        <time>2022-06-11T08:24:01.029Z</time>
      </trkpt>
      <trkpt lat="42.85926" lon="17.97905">
        <ele>323.183476</ele>
        <time>2022-06-11T08:24:06.040Z</time>
      </trkpt>
      <trkpt lat="42.85927" lon="17.97893">
        <ele>323.228316</ele>
        <time>2022-06-11T08:24:10.028Z</time>
      </trkpt>
      <trkpt lat="42.85928" lon="17.9788">
        <ele>323.340276</ele>
        <time>2022-06-11T08:24:14.018Z</time>
      </trkpt>
      <trkpt lat="42.85928" lon="17.97866">
        <ele>323.458735</ele>
        <time>2022-06-11T08:24:19.043Z</time>
      </trkpt>
      <trkpt lat="42.85927" lon="17.97852">
        <ele>323.57743</ele>
        <time>2022-06-11T08:24:24.022Z</time>
      </trkpt>
      <trkpt lat="42.85925" lon="17.97839">
        <ele>323.688099</ele>
        <time>2022-06-11T08:24:29.033Z</time>
      </trkpt>
      <trkpt lat="42.85921" lon="17.97826">
        <ele>323.811283</ele>
        <time>2022-06-11T08:24:34.038Z</time>
      </trkpt>
      <trkpt lat="42.85918" lon="17.97811">
        <ele>323.937863</ele>
        <time>2022-06-11T08:24:39.048Z</time>
      </trkpt>
      <trkpt lat="42.85915" lon="17.97797">
        <ele>324.059158</ele>
        <time>2022-06-11T08:24:44.028Z</time>
      </trkpt>
      <trkpt lat="42.85911" lon="17.97784">
        <ele>324.177796</ele>
        <time>2022-06-11T08:24:49.028Z</time>
      </trkpt>
      <trkpt lat="42.85908" lon="17.97773">
        <ele>324.281857</ele>
        <time>2022-06-11T08:24:53.026Z</time>
      </trkpt>
      <trkpt lat="42.85904" lon="17.9776">
        <ele>324.403474</ele>
        <time>2022-06-11T08:24:58.041Z</time>
      </trkpt>
      <trkpt lat="42.859" lon="17.97748">
        <ele>324.510395</ele>
        <time>2022-06-11T08:25:03.032Z</time>
      </trkpt>
      <trkpt lat="42.85896" lon="17.97737">
        <ele>324.614871</ele>
        <time>2022-06-11T08:25:08.066Z</time>
      </trkpt>
      <trkpt lat="42.85893" lon="17.97725">
        <ele>324.719347</ele>
        <time>2022-06-11T08:25:13.013Z</time>
      </trkpt>
      <trkpt lat="42.85891" lon="17.97711">
        <ele>324.843988</ele>
        <time>2022-06-11T08:25:18.054Z</time>
      </trkpt>
      <trkpt lat="42.85889" lon="17.97697">
        <ele>324.962774</ele>
        <time>2022-06-11T08:25:23.025Z</time>
      </trkpt>
      <trkpt lat="42.85887" lon="17.97682">
        <ele>325.093627</ele>
        <time>2022-06-11T08:25:28.031Z</time>
      </trkpt>
      <trkpt lat="42.85886" lon="17.97669">
        <ele>325.199884</ele>
        <time>2022-06-11T08:25:32.061Z</time>
      </trkpt>
      <trkpt lat="42.85886" lon="17.97657">
        <ele>325.32866</ele>
        <time>2022-06-11T08:25:36.027Z</time>
      </trkpt>
      <trkpt lat="42.85888" lon="17.97642">
        <ele>325.48568</ele>
        <time>2022-06-11T08:25:41.023Z</time>
      </trkpt>
      <trkpt lat="42.85892" lon="17.97629">
        <ele>325.637149</ele>
        <time>2022-06-11T08:25:46.030Z</time>
      </trkpt>
      <trkpt lat="42.85894" lon="17.97615">
        <ele>325.784277</ele>
        <time>2022-06-11T08:25:51.029Z</time>
      </trkpt>
      <trkpt lat="42.85897" lon="17.97603">
        <ele>325.923336</ele>
        <time>2022-06-11T08:25:56.062Z</time>
      </trkpt>
      <trkpt lat="42.85904" lon="17.97592">
        <ele>326.06374</ele>
        <time>2022-06-11T08:26:01.025Z</time>
      </trkpt>
      <trkpt lat="42.85909" lon="17.97581">
        <ele>326.201974</ele>
        <time>2022-06-11T08:26:06.077Z</time>
      </trkpt>
      <trkpt lat="42.85914" lon="17.9757">
        <ele>326.336512</ele>
        <time>2022-06-11T08:26:11.051Z</time>
      </trkpt>
      <trkpt lat="42.85919" lon="17.97559">
        <ele>326.476872</ele>
        <time>2022-06-11T08:26:16.019Z</time>
      </trkpt>
      <trkpt lat="42.85924" lon="17.97549">
        <ele>326.609108</ele>
        <time>2022-06-11T08:26:20.034Z</time>
      </trkpt>
      <trkpt lat="42.85931" lon="17.97537">
        <ele>326.763221</ele>
        <time>2022-06-11T08:26:25.034Z</time>
      </trkpt>
      <trkpt lat="42.85937" lon="17.97526">
        <ele>326.915423</ele>
        <time>2022-06-11T08:26:30.045Z</time>
      </trkpt>
      <trkpt lat="42.85943" lon="17.97513">
        <ele>327.07284</ele>
        <time>2022-06-11T08:26:35.006Z</time>
      </trkpt>
      <trkpt lat="42.8595" lon="17.97501">
        <ele>327.231826</ele>
        <time>2022-06-11T08:26:40.007Z</time>
      </trkpt>
      <trkpt lat="42.85956" lon="17.97491">
        <ele>327.3756</ele>
        <time>2022-06-11T08:26:44.011Z</time>
      </trkpt>
      <trkpt lat="42.85962" lon="17.97479">
        <ele>327.520193</ele>
        <time>2022-06-11T08:26:48.008Z</time>
      </trkpt>
      <trkpt lat="42.85967" lon="17.97469">
        <ele>327.65713</ele>
        <time>2022-06-11T08:26:52.002Z</time>
      </trkpt>
      <trkpt lat="42.85972" lon="17.97458">
        <ele>327.788798</ele>
        <time>2022-06-11T08:26:56.034Z</time>
      </trkpt>
      <trkpt lat="42.85976" lon="17.97447">
        <ele>327.964189</ele>
        <time>2022-06-11T08:26:59.999Z</time>
      </trkpt>
      <trkpt lat="42.85981" lon="17.97436">
        <ele>328.156457</ele>
        <time>2022-06-11T08:27:03.994Z</time>
      </trkpt>
      <trkpt lat="42.85985" lon="17.97423">
        <ele>328.376255</ele>
        <time>2022-06-11T08:27:09.000Z</time>
      </trkpt>
      <trkpt lat="42.85989" lon="17.97412">
        <ele>328.567371</ele>
        <time>2022-06-11T08:27:13.019Z</time>
      </trkpt>
      <trkpt lat="42.85994" lon="17.97398">
        <ele>328.794661</ele>
        <time>2022-06-11T08:27:17.993Z</time>
      </trkpt>
      <trkpt lat="42.85997" lon="17.97385">
        <ele>329.000634</ele>
        <time>2022-06-11T08:27:23.002Z</time>
      </trkpt>
      <trkpt lat="42.86" lon="17.97371">
        <ele>329.217684</ele>
        <time>2022-06-11T08:27:28.011Z</time>
      </trkpt>
      <trkpt lat="42.86003" lon="17.97359">
        <ele>329.405902</ele>
        <time>2022-06-11T08:27:31.998Z</time>
      </trkpt>
      <trkpt lat="42.86005" lon="17.97347">
        <ele>329.597919</ele>
        <time>2022-06-11T08:27:35.998Z</time>
      </trkpt>
      <trkpt lat="42.86006" lon="17.97332">
        <ele>329.822885</ele>
        <time>2022-06-11T08:27:40.998Z</time>
      </trkpt>
      <trkpt lat="42.86008" lon="17.97318">
        <ele>330.045846</ele>
        <time>2022-06-11T08:27:45.999Z</time>
      </trkpt>
      <trkpt lat="42.8601" lon="17.97305">
        <ele>330.249104</ele>
        <time>2022-06-11T08:27:50.996Z</time>
      </trkpt>
      <trkpt lat="42.86012" lon="17.97292">
        <ele>330.448545</ele>
        <time>2022-06-11T08:27:56.011Z</time>
      </trkpt>
      <trkpt lat="42.86014" lon="17.97279">
        <ele>330.64387</ele>
        <time>2022-06-11T08:28:00.992Z</time>
      </trkpt>
      <trkpt lat="42.86016" lon="17.97265">
        <ele>330.862664</ele>
        <time>2022-06-11T08:28:06.005Z</time>
      </trkpt>
      <trkpt lat="42.86018" lon="17.97251">
        <ele>331.080135</ele>
        <time>2022-06-11T08:28:11.000Z</time>
      </trkpt>
      <trkpt lat="42.8602" lon="17.97239">
        <ele>331.267281</ele>
        <time>2022-06-11T08:28:14.996Z</time>
      </trkpt>
      <trkpt lat="42.86022" lon="17.97224">
        <ele>331.501733</ele>
        <time>2022-06-11T08:28:20.007Z</time>
      </trkpt>
      <trkpt lat="42.86024" lon="17.97211">
        <ele>331.665134</ele>
        <time>2022-06-11T08:28:23.999Z</time>
      </trkpt>
      <trkpt lat="42.86027" lon="17.97196">
        <ele>331.841583</ele>
        <time>2022-06-11T08:28:29.002Z</time>
      </trkpt>
      <trkpt lat="42.86029" lon="17.97185">
        <ele>331.985851</ele>
        <time>2022-06-11T08:28:32.995Z</time>
      </trkpt>
      <trkpt lat="42.86031" lon="17.97173">
        <ele>332.131622</ele>
        <time>2022-06-11T08:28:37.031Z</time>
      </trkpt>
      <trkpt lat="42.86034" lon="17.97159">
        <ele>332.303087</ele>
        <time>2022-06-11T08:28:42.012Z</time>
      </trkpt>
      <trkpt lat="42.86035" lon="17.97144">
        <ele>332.474602</ele>
        <time>2022-06-11T08:28:46.996Z</time>
      </trkpt>
      <trkpt lat="42.86037" lon="17.97131">
        <ele>332.629709</ele>
        <time>2022-06-11T08:28:52.006Z</time>
      </trkpt>
      <trkpt lat="42.86041" lon="17.9712">
        <ele>332.776255</ele>
        <time>2022-06-11T08:28:56.003Z</time>
      </trkpt>
      <trkpt lat="42.86047" lon="17.9711">
        <ele>332.92805</ele>
        <time>2022-06-11T08:29:00.007Z</time>
      </trkpt>
      <trkpt lat="42.86052" lon="17.97098">
        <ele>333.092076</ele>
        <time>2022-06-11T08:29:05.055Z</time>
      </trkpt>
      <trkpt lat="42.86059" lon="17.97087">
        <ele>333.263001</ele>
        <time>2022-06-11T08:29:10.024Z</time>
      </trkpt>
      <trkpt lat="42.86065" lon="17.97078">
        <ele>333.409795</ele>
        <time>2022-06-11T08:29:14.014Z</time>
      </trkpt>
      <trkpt lat="42.86074" lon="17.97068">
        <ele>333.585962</ele>
        <time>2022-06-11T08:29:19.026Z</time>
      </trkpt>
      <trkpt lat="42.86082" lon="17.9706">
        <ele>333.756413</ele>
        <time>2022-06-11T08:29:24.021Z</time>
      </trkpt>
      <trkpt lat="42.86091" lon="17.97052">
        <ele>333.931557</ele>
        <time>2022-06-11T08:29:29.021Z</time>
      </trkpt>
      <trkpt lat="42.86101" lon="17.97044">
        <ele>334.108481</ele>
        <time>2022-06-11T08:29:34.029Z</time>
      </trkpt>
      <trkpt lat="42.86111" lon="17.97037">
        <ele>334.28822</ele>
        <time>2022-06-11T08:29:39.052Z</time>
      </trkpt>
      <trkpt lat="42.86119" lon="17.97032">
        <ele>334.43671</ele>
        <time>2022-06-11T08:29:43.018Z</time>
      </trkpt>
      <trkpt lat="42.86128" lon="17.97026">
        <ele>334.591247</ele>
        <time>2022-06-11T08:29:48.031Z</time>
      </trkpt>
      <trkpt lat="42.86137" lon="17.97024">
        <ele>334.733211</ele>
        <time>2022-06-11T08:29:53.025Z</time>
      </trkpt>
      <trkpt lat="42.86148" lon="17.9702">
        <ele>334.903317</ele>
        <time>2022-06-11T08:29:58.028Z</time>
      </trkpt>
      <trkpt lat="42.86158" lon="17.97016">
        <ele>335.074705</ele>
        <time>2022-06-11T08:30:03.007Z</time>
      </trkpt>
      <trkpt lat="42.86167" lon="17.97014">
        <ele>335.219011</ele>
        <time>2022-06-11T08:30:07.006Z</time>
      </trkpt>
      <trkpt lat="42.86177" lon="17.97013">
        <ele>335.364053</ele>
        <time>2022-06-11T08:30:11.024Z</time>
      </trkpt>
      <trkpt lat="42.86187" lon="17.97013">
        <ele>335.525545</ele>
        <time>2022-06-11T08:30:16.024Z</time>
      </trkpt>
      <trkpt lat="42.86197" lon="17.97013">
        <ele>335.673052</ele>
        <time>2022-06-11T08:30:21.033Z</time>
      </trkpt>
      <trkpt lat="42.86207" lon="17.97013">
        <ele>335.840743</ele>
        <time>2022-06-11T08:30:26.018Z</time>
      </trkpt>
      <trkpt lat="42.86217" lon="17.97013">
        <ele>335.985181</ele>
        <time>2022-06-11T08:30:30.020Z</time>
      </trkpt>
      <trkpt lat="42.86226" lon="17.97015">
        <ele>336.135637</ele>
        <time>2022-06-11T08:30:34.069Z</time>
      </trkpt>
      <trkpt lat="42.86235" lon="17.97018">
        <ele>336.280232</ele>
        <time>2022-06-11T08:30:38.031Z</time>
      </trkpt>
      <trkpt lat="42.86245" lon="17.97019">
        <ele>336.430537</ele>
        <time>2022-06-11T08:30:42.027Z</time>
      </trkpt>
      <trkpt lat="42.86256" lon="17.97022">
        <ele>336.601017</ele>
        <time>2022-06-11T08:30:47.030Z</time>
      </trkpt>
      <trkpt lat="42.86267" lon="17.97025">
        <ele>336.770623</ele>
        <time>2022-06-11T08:30:52.027Z</time>
      </trkpt>
      <trkpt lat="42.86277" lon="17.97027">
        <ele>336.941875</ele>
        <time>2022-06-11T08:30:57.062Z</time>
      </trkpt>
      <trkpt lat="42.86287" lon="17.9703">
        <ele>337.090794</ele>
        <time>2022-06-11T08:31:01.025Z</time>
      </trkpt>
      <trkpt lat="42.86297" lon="17.97033">
        <ele>337.231739</ele>
        <time>2022-06-11T08:31:05.029Z</time>
      </trkpt>
      <trkpt lat="42.86308" lon="17.97035">
        <ele>337.301373</ele>
        <time>2022-06-11T08:31:09.039Z</time>
      </trkpt>
      <trkpt lat="42.86318" lon="17.97036">
        <ele>337.361349</ele>
        <time>2022-06-11T08:31:12.014Z</time>
      </trkpt>
      <trkpt lat="42.8633" lon="17.97039">
        <ele>337.432638</ele>
        <time>2022-06-11T08:31:16.024Z</time>
      </trkpt>
      <trkpt lat="42.8634" lon="17.97042">
        <ele>337.490139</ele>
        <time>2022-06-11T08:31:19.068Z</time>
      </trkpt>
      <trkpt lat="42.86351" lon="17.97045">
        <ele>337.557772</ele>
        <time>2022-06-11T08:31:23.028Z</time>
      </trkpt>
      <trkpt lat="42.86362" lon="17.97046">
        <ele>337.622832</ele>
        <time>2022-06-11T08:31:27.019Z</time>
      </trkpt>
      <trkpt lat="42.86373" lon="17.97048">
        <ele>337.689608</ele>
        <time>2022-06-11T08:31:31.050Z</time>
      </trkpt>
      <trkpt lat="42.86384" lon="17.97048">
        <ele>337.757774</ele>
        <time>2022-06-11T08:31:35.038Z</time>
      </trkpt>
      <trkpt lat="42.86396" lon="17.97048">
        <ele>337.826006</ele>
        <time>2022-06-11T08:31:39.033Z</time>
      </trkpt>
      <trkpt lat="42.86407" lon="17.97046">
        <ele>337.891512</ele>
        <time>2022-06-11T08:31:43.015Z</time>
      </trkpt>
      <trkpt lat="42.86418" lon="17.97045">
        <ele>337.957607</ele>
        <time>2022-06-11T08:31:47.014Z</time>
      </trkpt>
      <trkpt lat="42.86429" lon="17.97042">
        <ele>338.023412</ele>
        <time>2022-06-11T08:31:51.029Z</time>
      </trkpt>
      <trkpt lat="42.8644" lon="17.97037">
        <ele>338.093615</ele>
        <time>2022-06-11T08:31:55.027Z</time>
      </trkpt>
      <trkpt lat="42.86449" lon="17.97034">
        <ele>338.147938</ele>
        <time>2022-06-11T08:31:58.032Z</time>
      </trkpt>
      <trkpt lat="42.86458" lon="17.97032">
        <ele>338.201482</ele>
        <time>2022-06-11T08:32:01.016Z</time>
      </trkpt>
      <trkpt lat="42.86467" lon="17.97028">
        <ele>338.255107</ele>
        <time>2022-06-11T08:32:04.063Z</time>
      </trkpt>
      <trkpt lat="42.86475" lon="17.97025">
        <ele>338.336599</ele>
        <time>2022-06-11T08:32:07.053Z</time>
      </trkpt>
      <trkpt lat="42.86485" lon="17.97022">
        <ele>338.469576</ele>
        <time>2022-06-11T08:32:10.071Z</time>
      </trkpt>
      <trkpt lat="42.86495" lon="17.97017">
        <ele>338.630267</ele>
        <time>2022-06-11T08:32:14.025Z</time>
      </trkpt>
      <trkpt lat="42.86506" lon="17.97012">
        <ele>338.794944</ele>
        <time>2022-06-11T08:32:18.021Z</time>
      </trkpt>
      <trkpt lat="42.86517" lon="17.97008">
        <ele>338.956077</ele>
        <time>2022-06-11T08:32:22.028Z</time>
      </trkpt>
      <trkpt lat="42.86528" lon="17.97006">
        <ele>339.112957</ele>
        <time>2022-06-11T08:32:26.038Z</time>
      </trkpt>
      <trkpt lat="42.8654" lon="17.97004">
        <ele>339.277741</ele>
        <time>2022-06-11T08:32:30.028Z</time>
      </trkpt>
      <trkpt lat="42.86551" lon="17.97002">
        <ele>339.438704</ele>
        <time>2022-06-11T08:32:34.032Z</time>
      </trkpt>
      <trkpt lat="42.86562" lon="17.97002">
        <ele>339.590408</ele>
        <time>2022-06-11T08:32:38.018Z</time>
      </trkpt>
      <trkpt lat="42.86572" lon="17.97003">
        <ele>339.740747</ele>
        <time>2022-06-11T08:32:42.022Z</time>
      </trkpt>
      <trkpt lat="42.86582" lon="17.97005">
        <ele>339.882095</ele>
        <time>2022-06-11T08:32:46.026Z</time>
      </trkpt>
      <trkpt lat="42.86593" lon="17.97008">
        <ele>340.03656</ele>
        <time>2022-06-11T08:32:50.025Z</time>
      </trkpt>
      <trkpt lat="42.86604" lon="17.97011">
        <ele>340.193247</ele>
        <time>2022-06-11T08:32:54.017Z</time>
      </trkpt>
      <trkpt lat="42.86614" lon="17.97016">
        <ele>340.348902</ele>
        <time>2022-06-11T08:32:58.014Z</time>
      </trkpt>
      <trkpt lat="42.86624" lon="17.9702">
        <ele>340.489554</ele>
        <time>2022-06-11T08:33:02.035Z</time>
      </trkpt>
      <trkpt lat="42.86633" lon="17.97023">
        <ele>340.626896</ele>
        <time>2022-06-11T08:33:06.028Z</time>
      </trkpt>
      <trkpt lat="42.86642" lon="17.97028">
        <ele>340.76546</ele>
        <time>2022-06-11T08:33:10.038Z</time>
      </trkpt>
      <trkpt lat="42.86651" lon="17.97032">
        <ele>340.865514</ele>
        <time>2022-06-11T08:33:14.038Z</time>
      </trkpt>
      <trkpt lat="42.86661" lon="17.97037">
        <ele>340.941394</ele>
        <time>2022-06-11T08:33:19.032Z</time>
      </trkpt>
      <trkpt lat="42.86671" lon="17.97043">
        <ele>341.015105</ele>
        <time>2022-06-11T08:33:24.022Z</time>
      </trkpt>
      <trkpt lat="42.86681" lon="17.97048">
        <ele>341.085324</ele>
        <time>2022-06-11T08:33:29.038Z</time>
      </trkpt>
      <trkpt lat="42.8669" lon="17.97055">
        <ele>341.154949</ele>
        <time>2022-06-11T08:33:34.049Z</time>
      </trkpt>
      <trkpt lat="42.86699" lon="17.97061">
        <ele>341.226018</ele>
        <time>2022-06-11T08:33:39.034Z</time>
      </trkpt>
      <trkpt lat="42.86708" lon="17.9707">
        <ele>341.301307</ele>
        <time>2022-06-11T08:33:44.026Z</time>
      </trkpt>
      <trkpt lat="42.86716" lon="17.97078">
        <ele>341.368887</ele>
        <time>2022-06-11T08:33:48.041Z</time>
      </trkpt>
      <trkpt lat="42.86724" lon="17.97085">
        <ele>341.434003</ele>
        <time>2022-06-11T08:33:52.020Z</time>
      </trkpt>
      <trkpt lat="42.86733" lon="17.97094">
        <ele>341.510128</ele>
        <time>2022-06-11T08:33:57.048Z</time>
      </trkpt>
      <trkpt lat="42.8674" lon="17.97101">
        <ele>341.572547</ele>
        <time>2022-06-11T08:34:01.032Z</time>
      </trkpt>
      <trkpt lat="42.86747" lon="17.97109">
        <ele>341.633454</ele>
        <time>2022-06-11T08:34:05.034Z</time>
      </trkpt>
      <trkpt lat="42.86756" lon="17.97116">
        <ele>341.705055</ele>
        <time>2022-06-11T08:34:10.028Z</time>
      </trkpt>
      <trkpt lat="42.86764" lon="17.97127">
        <ele>341.781443</ele>
        <time>2022-06-11T08:34:15.020Z</time>
      </trkpt>
      <trkpt lat="42.86772" lon="17.97135">
        <ele>341.847967</ele>
        <time>2022-06-11T08:34:19.124Z</time>
      </trkpt>
      <trkpt lat="42.86778" lon="17.97144">
        <ele>341.911398</ele>
        <time>2022-06-11T08:34:23.014Z</time>
      </trkpt>
      <trkpt lat="42.86786" lon="17.97154">
        <ele>341.984933</ele>
        <time>2022-06-11T08:34:28.032Z</time>
      </trkpt>
      <trkpt lat="42.86795" lon="17.97164">
        <ele>342.059825</ele>
        <time>2022-06-11T08:34:33.035Z</time>
      </trkpt>
      <trkpt lat="42.86804" lon="17.97172">
        <ele>342.961432</ele>
        <time>2022-06-11T08:34:38.018Z</time>
      </trkpt>
      <trkpt lat="42.86811" lon="17.97179">
        <ele>343.817472</ele>
        <time>2022-06-11T08:34:43.024Z</time>
      </trkpt>
      <trkpt lat="42.87185" lon="17.97303">
        <ele>368.139343</ele>
        <time>2022-06-11T08:40:11.035Z</time>
      </trkpt>
      <trkpt lat="42.87163" lon="17.97305">
        <ele>365.37272</ele>
        <time>2022-06-11T08:40:39.023Z</time>
      </trkpt>
      <trkpt lat="42.8717" lon="17.97312">
        <ele>364.195793</ele>
        <time>2022-06-11T08:41:00.027Z</time>
      </trkpt>
      <trkpt lat="42.8719" lon="17.9732">
        <ele>361.689842</ele>
        <time>2022-06-11T08:43:01.021Z</time>
      </trkpt>
      <trkpt lat="42.87199" lon="17.97326">
        <ele>360.47407</ele>
        <time>2022-06-11T08:43:07.025Z</time>
      </trkpt>
      <trkpt lat="42.87209" lon="17.9733">
        <ele>359.15379</ele>
        <time>2022-06-11T08:43:13.028Z</time>
      </trkpt>
      <trkpt lat="42.8722" lon="17.9733">
        <ele>357.820679</ele>
        <time>2022-06-11T08:43:19.032Z</time>
      </trkpt>
      <trkpt lat="42.8723" lon="17.97333">
        <ele>356.496245</ele>
        <time>2022-06-11T08:43:24.025Z</time>
      </trkpt>
      <trkpt lat="42.8724" lon="17.97336">
        <ele>355.231285</ele>
        <time>2022-06-11T08:43:29.024Z</time>
      </trkpt>
      <trkpt lat="42.8725" lon="17.9734">
        <ele>353.968725</ele>
        <time>2022-06-11T08:43:34.024Z</time>
      </trkpt>
      <trkpt lat="42.8726" lon="17.97341">
        <ele>352.64552</ele>
        <time>2022-06-11T08:43:39.055Z</time>
      </trkpt>
      <trkpt lat="42.87271" lon="17.97339">
        <ele>351.255121</ele>
        <time>2022-06-11T08:43:44.023Z</time>
      </trkpt>
      <trkpt lat="42.87282" lon="17.97337">
        <ele>351.307586</ele>
        <time>2022-06-11T08:43:49.026Z</time>
      </trkpt>
      <trkpt lat="42.87292" lon="17.97332">
        <ele>351.398219</ele>
        <time>2022-06-11T08:43:54.014Z</time>
      </trkpt>
      <trkpt lat="42.87301" lon="17.97327">
        <ele>351.483944</ele>
        <time>2022-06-11T08:43:59.040Z</time>
      </trkpt>
      <trkpt lat="42.8731" lon="17.97322">
        <ele>351.565831</ele>
        <time>2022-06-11T08:44:04.038Z</time>
      </trkpt>
      <trkpt lat="42.87319" lon="17.97318">
        <ele>351.645888</ele>
        <time>2022-06-11T08:44:09.027Z</time>
      </trkpt>
      <trkpt lat="42.87329" lon="17.97313">
        <ele>351.738908</ele>
        <time>2022-06-11T08:44:15.032Z</time>
      </trkpt>
      <trkpt lat="42.87338" lon="17.97309">
        <ele>351.817141</ele>
        <time>2022-06-11T08:44:20.012Z</time>
      </trkpt>
      <trkpt lat="42.87347" lon="17.97305">
        <ele>351.902461</ele>
        <time>2022-06-11T08:44:25.051Z</time>
      </trkpt>
      <trkpt lat="42.87357" lon="17.973">
        <ele>351.994062</ele>
        <time>2022-06-11T08:44:31.088Z</time>
      </trkpt>
      <trkpt lat="42.87366" lon="17.97296">
        <ele>352.075388</ele>
        <time>2022-06-11T08:44:36.032Z</time>
      </trkpt>
      <trkpt lat="42.87375" lon="17.97293">
        <ele>352.156259</ele>
        <time>2022-06-11T08:44:41.022Z</time>
      </trkpt>
      <trkpt lat="42.87385" lon="17.97291">
        <ele>352.236603</ele>
        <time>2022-06-11T08:44:46.032Z</time>
      </trkpt>
      <trkpt lat="42.87395" lon="17.97288">
        <ele>352.322722</ele>
        <time>2022-06-11T08:44:51.041Z</time>
      </trkpt>
      <trkpt lat="42.87405" lon="17.97285">
        <ele>352.410553</ele>
        <time>2022-06-11T08:44:56.052Z</time>
      </trkpt>
      <trkpt lat="42.87415" lon="17.97283">
        <ele>352.497209</ele>
        <time>2022-06-11T08:45:01.022Z</time>
      </trkpt>
      <trkpt lat="42.87424" lon="17.97281">
        <ele>352.578597</ele>
        <time>2022-06-11T08:45:06.013Z</time>
      </trkpt>
      <trkpt lat="42.87434" lon="17.97279">
        <ele>352.664223</ele>
        <time>2022-06-11T08:45:11.021Z</time>
      </trkpt>
      <trkpt lat="42.87444" lon="17.97277">
        <ele>352.750879</ele>
        <time>2022-06-11T08:45:16.026Z</time>
      </trkpt>
      <trkpt lat="42.87454" lon="17.97276">
        <ele>352.699521</ele>
        <time>2022-06-11T08:45:21.025Z</time>
      </trkpt>
      <trkpt lat="42.87463" lon="17.97274">
        <ele>352.634618</ele>
        <time>2022-06-11T08:45:26.061Z</time>
      </trkpt>
      <trkpt lat="42.87472" lon="17.97272">
        <ele>352.571588</ele>
        <time>2022-06-11T08:45:31.073Z</time>
      </trkpt>
      <trkpt lat="42.87482" lon="17.97271">
        <ele>352.506406</ele>
        <time>2022-06-11T08:45:36.024Z</time>
      </trkpt>
      <trkpt lat="42.87492" lon="17.97271">
        <ele>352.439298</ele>
        <time>2022-06-11T08:45:41.031Z</time>
      </trkpt>
      <trkpt lat="42.87502" lon="17.97271">
        <ele>352.372914</ele>
        <time>2022-06-11T08:45:46.032Z</time>
      </trkpt>
      <trkpt lat="42.87512" lon="17.9727">
        <ele>352.305058</ele>
        <time>2022-06-11T08:45:51.026Z</time>
      </trkpt>
      <trkpt lat="42.87522" lon="17.9727">
        <ele>352.235223</ele>
        <time>2022-06-11T08:45:56.029Z</time>
      </trkpt>
      <trkpt lat="42.87531" lon="17.97271">
        <ele>352.171541</ele>
        <time>2022-06-11T08:46:01.022Z</time>
      </trkpt>
      <trkpt lat="42.87541" lon="17.9727">
        <ele>352.109848</ele>
        <time>2022-06-11T08:46:06.029Z</time>
      </trkpt>
      <trkpt lat="42.87551" lon="17.97269">
        <ele>352.04061</ele>
        <time>2022-06-11T08:46:11.042Z</time>
      </trkpt>
      <trkpt lat="42.87561" lon="17.9727">
        <ele>351.972842</ele>
        <time>2022-06-11T08:46:16.023Z</time>
      </trkpt>
      <trkpt lat="42.8757" lon="17.97272">
        <ele>351.906389</ele>
        <time>2022-06-11T08:46:21.066Z</time>
      </trkpt>
      <trkpt lat="42.8758" lon="17.97275">
        <ele>351.838131</ele>
        <time>2022-06-11T08:46:26.028Z</time>
      </trkpt>
      <trkpt lat="42.8759" lon="17.97278">
        <ele>351.77107</ele>
        <time>2022-06-11T08:46:31.026Z</time>
      </trkpt>
      <trkpt lat="42.87601" lon="17.97282">
        <ele>351.695393</ele>
        <time>2022-06-11T08:46:36.035Z</time>
      </trkpt>
      <trkpt lat="42.87611" lon="17.97286">
        <ele>351.620371</ele>
        <time>2022-06-11T08:46:41.019Z</time>
      </trkpt>
      <trkpt lat="42.87621" lon="17.9729">
        <ele>351.554334</ele>
        <time>2022-06-11T08:46:46.021Z</time>
      </trkpt>
      <trkpt lat="42.87631" lon="17.97294">
        <ele>351.831977</ele>
        <time>2022-06-11T08:46:51.021Z</time>
      </trkpt>
      <trkpt lat="42.87641" lon="17.97297">
        <ele>352.183324</ele>
        <time>2022-06-11T08:46:56.030Z</time>
      </trkpt>
      <trkpt lat="42.87651" lon="17.973">
        <ele>352.514221</ele>
        <time>2022-06-11T08:47:01.037Z</time>
      </trkpt>
      <trkpt lat="42.87661" lon="17.97302">
        <ele>352.837703</ele>
        <time>2022-06-11T08:47:06.080Z</time>
      </trkpt>
      <trkpt lat="42.8767" lon="17.97304">
        <ele>353.150856</ele>
        <time>2022-06-11T08:47:11.012Z</time>
      </trkpt>
      <trkpt lat="42.8768" lon="17.97303">
        <ele>353.479713</ele>
        <time>2022-06-11T08:47:16.010Z</time>
      </trkpt>
      <trkpt lat="42.8769" lon="17.97302">
        <ele>353.804855</ele>
        <time>2022-06-11T08:47:21.037Z</time>
      </trkpt>
      <trkpt lat="42.87699" lon="17.973">
        <ele>354.123832</ele>
        <time>2022-06-11T08:47:26.039Z</time>
      </trkpt>
      <trkpt lat="42.87708" lon="17.97295">
        <ele>354.443229</ele>
        <time>2022-06-11T08:47:31.029Z</time>
      </trkpt>
      <trkpt lat="42.87717" lon="17.9729">
        <ele>354.770075</ele>
        <time>2022-06-11T08:47:36.025Z</time>
      </trkpt>
      <trkpt lat="42.87726" lon="17.97283">
        <ele>355.111244</ele>
        <time>2022-06-11T08:47:41.028Z</time>
      </trkpt>
      <trkpt lat="42.87735" lon="17.97276">
        <ele>355.446932</ele>
        <time>2022-06-11T08:47:46.018Z</time>
      </trkpt>
      <trkpt lat="42.87742" lon="17.97268">
        <ele>355.764076</ele>
        <time>2022-06-11T08:47:51.032Z</time>
      </trkpt>
      <trkpt lat="42.8775" lon="17.97259">
        <ele>356.09101</ele>
        <time>2022-06-11T08:47:56.071Z</time>
      </trkpt>
      <trkpt lat="42.87757" lon="17.97249">
        <ele>356.440011</ele>
        <time>2022-06-11T08:48:01.034Z</time>
      </trkpt>
      <trkpt lat="42.87765" lon="17.97238">
        <ele>356.80369</ele>
        <time>2022-06-11T08:48:06.030Z</time>
      </trkpt>
      <trkpt lat="42.87772" lon="17.97228">
        <ele>357.143387</ele>
        <time>2022-06-11T08:48:11.052Z</time>
      </trkpt>
      <trkpt lat="42.87778" lon="17.97217">
        <ele>357.483385</ele>
        <time>2022-06-11T08:48:16.047Z</time>
      </trkpt>
      <trkpt lat="42.87786" lon="17.97207">
        <ele>357.560741</ele>
        <time>2022-06-11T08:48:21.014Z</time>
      </trkpt>
      <trkpt lat="42.87792" lon="17.97196">
        <ele>357.620448</ele>
        <time>2022-06-11T08:48:26.022Z</time>
      </trkpt>
      <trkpt lat="42.878" lon="17.97186">
        <ele>357.683044</ele>
        <time>2022-06-11T08:48:31.019Z</time>
      </trkpt>
      <trkpt lat="42.87806" lon="17.97175">
        <ele>357.741204</ele>
        <time>2022-06-11T08:48:36.013Z</time>
      </trkpt>
      <trkpt lat="42.87813" lon="17.97164">
        <ele>357.802511</ele>
        <time>2022-06-11T08:48:41.034Z</time>
      </trkpt>
      <trkpt lat="42.87819" lon="17.97153">
        <ele>357.863169</ele>
        <time>2022-06-11T08:48:46.047Z</time>
      </trkpt>
      <trkpt lat="42.87826" lon="17.97144">
        <ele>357.917938</ele>
        <time>2022-06-11T08:48:51.019Z</time>
      </trkpt>
      <trkpt lat="42.87834" lon="17.97135">
        <ele>357.97951</ele>
        <time>2022-06-11T08:48:56.030Z</time>
      </trkpt>
      <trkpt lat="42.87843" lon="17.97127">
        <ele>358.040388</ele>
        <time>2022-06-11T08:49:01.033Z</time>
      </trkpt>
      <trkpt lat="42.87852" lon="17.97119">
        <ele>358.104478</ele>
        <time>2022-06-11T08:49:06.049Z</time>
      </trkpt>
      <trkpt lat="42.87861" lon="17.97113">
        <ele>358.163405</ele>
        <time>2022-06-11T08:49:11.036Z</time>
      </trkpt>
      <trkpt lat="42.8787" lon="17.97106">
        <ele>358.222182</ele>
        <time>2022-06-11T08:49:16.022Z</time>
      </trkpt>
      <trkpt lat="42.87879" lon="17.97099">
        <ele>358.281603</ele>
        <time>2022-06-11T08:49:21.050Z</time>
      </trkpt>
      <trkpt lat="42.87888" lon="17.97092">
        <ele>358.343069</ele>
        <time>2022-06-11T08:49:26.034Z</time>
      </trkpt>
      <trkpt lat="42.87898" lon="17.97086">
        <ele>358.404267</ele>
        <time>2022-06-11T08:49:31.084Z</time>
      </trkpt>
      <trkpt lat="42.87907" lon="17.97079">
        <ele>358.464504</ele>
        <time>2022-06-11T08:49:36.035Z</time>
      </trkpt>
      <trkpt lat="42.87916" lon="17.97072">
        <ele>358.525768</ele>
        <time>2022-06-11T08:49:41.024Z</time>
      </trkpt>
      <trkpt lat="42.87924" lon="17.97065">
        <ele>358.557341</ele>
        <time>2022-06-11T08:49:46.024Z</time>
      </trkpt>
      <trkpt lat="42.87932" lon="17.97059">
        <ele>358.568989</ele>
        <time>2022-06-11T08:49:51.034Z</time>
      </trkpt>
      <trkpt lat="42.8794" lon="17.97054">
        <ele>358.580492</ele>
        <time>2022-06-11T08:49:56.030Z</time>
      </trkpt>
      <trkpt lat="42.8795" lon="17.97047">
        <ele>358.594126</ele>
        <time>2022-06-11T08:50:01.040Z</time>
      </trkpt>
      <trkpt lat="42.87959" lon="17.97041">
        <ele>358.607492</ele>
        <time>2022-06-11T08:50:06.014Z</time>
      </trkpt>
      <trkpt lat="42.87968" lon="17.97034">
        <ele>358.620054</ele>
        <time>2022-06-11T08:50:11.063Z</time>
      </trkpt>
      <trkpt lat="42.87977" lon="17.97028">
        <ele>358.633195</ele>
        <time>2022-06-11T08:50:16.031Z</time>
      </trkpt>
      <trkpt lat="42.87986" lon="17.9702">
        <ele>358.647274</ele>
        <time>2022-06-11T08:50:21.029Z</time>
      </trkpt>
      <trkpt lat="42.87996" lon="17.97013">
        <ele>358.660996</ele>
        <time>2022-06-11T08:50:26.012Z</time>
      </trkpt>
      <trkpt lat="42.88005" lon="17.97007">
        <ele>358.673669</ele>
        <time>2022-06-11T08:50:31.023Z</time>
      </trkpt>
      <trkpt lat="42.88013" lon="17.97">
        <ele>358.686387</ele>
        <time>2022-06-11T08:50:36.023Z</time>
      </trkpt>
      <trkpt lat="42.88022" lon="17.96994">
        <ele>358.69924</ele>
        <time>2022-06-11T08:50:41.036Z</time>
      </trkpt>
      <trkpt lat="42.88031" lon="17.96988">
        <ele>358.711856</ele>
        <time>2022-06-11T08:50:46.023Z</time>
      </trkpt>
      <trkpt lat="42.8804" lon="17.96982">
        <ele>358.724587</ele>
        <time>2022-06-11T08:50:51.054Z</time>
      </trkpt>
      <trkpt lat="42.88049" lon="17.96976">
        <ele>358.736773</ele>
        <time>2022-06-11T08:50:56.050Z</time>
      </trkpt>
      <trkpt lat="42.88058" lon="17.96971">
        <ele>358.748961</ele>
        <time>2022-06-11T08:51:01.023Z</time>
      </trkpt>
      <trkpt lat="42.88067" lon="17.96966">
        <ele>358.761471</ele>
        <time>2022-06-11T08:51:06.031Z</time>
      </trkpt>
      <trkpt lat="42.88077" lon="17.96962">
        <ele>358.77462</ele>
        <time>2022-06-11T08:51:11.007Z</time>
      </trkpt>
      <trkpt lat="42.88086" lon="17.96958">
        <ele>358.757772</ele>
        <time>2022-06-11T08:51:16.022Z</time>
      </trkpt>
      <trkpt lat="42.88096" lon="17.96955">
        <ele>358.71973</ele>
        <time>2022-06-11T08:51:21.025Z</time>
      </trkpt>
      <trkpt lat="42.88106" lon="17.96953">
        <ele>358.680691</ele>
        <time>2022-06-11T08:51:26.028Z</time>
      </trkpt>
      <trkpt lat="42.88115" lon="17.96954">
        <ele>358.644531</ele>
        <time>2022-06-11T08:51:31.035Z</time>
      </trkpt>
      <trkpt lat="42.88125" lon="17.96955">
        <ele>358.607134</ele>
        <time>2022-06-11T08:51:36.027Z</time>
      </trkpt>
      <trkpt lat="42.88135" lon="17.96958">
        <ele>358.57009</ele>
        <time>2022-06-11T08:51:41.062Z</time>
      </trkpt>
      <trkpt lat="42.88144" lon="17.96961">
        <ele>358.533085</ele>
        <time>2022-06-11T08:51:46.025Z</time>
      </trkpt>
      <trkpt lat="42.88153" lon="17.96967">
        <ele>358.493816</ele>
        <time>2022-06-11T08:51:51.038Z</time>
      </trkpt>
      <trkpt lat="42.88163" lon="17.96973">
        <ele>358.451888</ele>
        <time>2022-06-11T08:51:56.043Z</time>
      </trkpt>
      <trkpt lat="42.88173" lon="17.9698">
        <ele>358.410643</ele>
        <time>2022-06-11T08:52:01.032Z</time>
      </trkpt>
      <trkpt lat="42.88181" lon="17.96987">
        <ele>358.375261</ele>
        <time>2022-06-11T08:52:06.030Z</time>
      </trkpt>
      <trkpt lat="42.88188" lon="17.96995">
        <ele>358.339575</ele>
        <time>2022-06-11T08:52:11.033Z</time>
      </trkpt>
      <trkpt lat="42.88195" lon="17.97005">
        <ele>358.302126</ele>
        <time>2022-06-11T08:52:16.019Z</time>
      </trkpt>
      <trkpt lat="42.88201" lon="17.97017">
        <ele>358.261618</ele>
        <time>2022-06-11T08:52:21.017Z</time>
      </trkpt>
      <trkpt lat="42.88207" lon="17.97028">
        <ele>358.22246</ele>
        <time>2022-06-11T08:52:26.022Z</time>
      </trkpt>
      <trkpt lat="42.88212" lon="17.97042">
        <ele>358.180426</ele>
        <time>2022-06-11T08:52:31.033Z</time>
      </trkpt>
      <trkpt lat="42.88216" lon="17.97055">
        <ele>358.13958</ele>
        <time>2022-06-11T08:52:36.023Z</time>
      </trkpt>
      <trkpt lat="42.88219" lon="17.97068">
        <ele>358.100294</ele>
        <time>2022-06-11T08:52:41.030Z</time>
      </trkpt>
      <trkpt lat="42.88224" lon="17.97081">
        <ele>358.269247</ele>
        <time>2022-06-11T08:52:46.001Z</time>
      </trkpt>
      <trkpt lat="42.88229" lon="17.97094">
        <ele>358.478245</ele>
        <time>2022-06-11T08:52:51.029Z</time>
      </trkpt>
      <trkpt lat="42.88233" lon="17.97107">
        <ele>358.678579</ele>
        <time>2022-06-11T08:52:56.018Z</time>
      </trkpt>
      <trkpt lat="42.88236" lon="17.97119">
        <ele>358.862272</ele>
        <time>2022-06-11T08:53:01.036Z</time>
      </trkpt>
      <trkpt lat="42.88241" lon="17.9713">
        <ele>359.039251</ele>
        <time>2022-06-11T08:53:06.088Z</time>
      </trkpt>
      <trkpt lat="42.88243" lon="17.97141">
        <ele>359.217666</ele>
        <time>2022-06-11T08:53:11.027Z</time>
      </trkpt>
      <trkpt lat="42.88247" lon="17.97153">
        <ele>359.397335</ele>
        <time>2022-06-11T08:53:16.020Z</time>
      </trkpt>
      <trkpt lat="42.88251" lon="17.97165">
        <ele>359.577216</ele>
        <time>2022-06-11T08:53:21.023Z</time>
      </trkpt>
      <trkpt lat="42.88255" lon="17.97177">
        <ele>359.766536</ele>
        <time>2022-06-11T08:53:26.028Z</time>
      </trkpt>
      <trkpt lat="42.8826" lon="17.97187">
        <ele>359.953727</ele>
        <time>2022-06-11T08:53:31.021Z</time>
      </trkpt>
      <trkpt lat="42.88266" lon="17.97197">
        <ele>360.136384</ele>
        <time>2022-06-11T08:53:36.015Z</time>
      </trkpt>
      <trkpt lat="42.88272" lon="17.97207">
        <ele>360.322901</ele>
        <time>2022-06-11T08:53:41.032Z</time>
      </trkpt>
      <trkpt lat="42.8828" lon="17.97217">
        <ele>360.536888</ele>
        <time>2022-06-11T08:53:46.025Z</time>
      </trkpt>
      <trkpt lat="42.88289" lon="17.97224">
        <ele>360.730749</ele>
        <time>2022-06-11T08:53:51.057Z</time>
      </trkpt>
      <trkpt lat="42.88298" lon="17.9723">
        <ele>360.930045</ele>
        <time>2022-06-11T08:53:56.019Z</time>
      </trkpt>
      <trkpt lat="42.88307" lon="17.97235">
        <ele>361.127031</ele>
        <time>2022-06-11T08:54:01.024Z</time>
      </trkpt>
      <trkpt lat="42.88316" lon="17.97243">
        <ele>361.332996</ele>
        <time>2022-06-11T08:54:06.036Z</time>
      </trkpt>
      <trkpt lat="42.88325" lon="17.97248">
        <ele>361.525508</ele>
        <time>2022-06-11T08:54:11.034Z</time>
      </trkpt>
      <trkpt lat="42.88335" lon="17.97251">
        <ele>361.6869</ele>
        <time>2022-06-11T08:54:16.027Z</time>
      </trkpt>
      <trkpt lat="42.88345" lon="17.97255">
        <ele>361.831472</ele>
        <time>2022-06-11T08:54:21.016Z</time>
      </trkpt>
      <trkpt lat="42.88355" lon="17.97261">
        <ele>361.979654</ele>
        <time>2022-06-11T08:54:26.030Z</time>
      </trkpt>
      <trkpt lat="42.88365" lon="17.97264">
        <ele>362.11785</ele>
        <time>2022-06-11T08:54:32.014Z</time>
      </trkpt>
      <trkpt lat="42.88374" lon="17.9726">
        <ele>362.243853</ele>
        <time>2022-06-11T08:54:39.038Z</time>
      </trkpt>
      <trkpt lat="42.88382" lon="17.97257">
        <ele>362.36842</ele>
        <time>2022-06-11T08:54:47.019Z</time>
      </trkpt>
      <trkpt lat="42.88391" lon="17.97262">
        <ele>362.498734</ele>
        <time>2022-06-11T08:54:52.012Z</time>
      </trkpt>
      <trkpt lat="42.88401" lon="17.97265">
        <ele>362.640349</ele>
        <time>2022-06-11T08:54:57.060Z</time>
      </trkpt>
      <trkpt lat="42.8841" lon="17.97267">
        <ele>362.765818</ele>
        <time>2022-06-11T08:55:01.023Z</time>
      </trkpt>
      <trkpt lat="42.8842" lon="17.97269">
        <ele>362.906107</ele>
        <time>2022-06-11T08:55:05.012Z</time>
      </trkpt>
      <trkpt lat="42.8843" lon="17.97272">
        <ele>363.051411</ele>
        <time>2022-06-11T08:55:09.018Z</time>
      </trkpt>
      <trkpt lat="42.88441" lon="17.97272">
        <ele>363.200294</ele>
        <time>2022-06-11T08:55:13.021Z</time>
      </trkpt>
      <trkpt lat="42.88452" lon="17.97272">
        <ele>363.350279</ele>
        <time>2022-06-11T08:55:17.023Z</time>
      </trkpt>
      <trkpt lat="42.88463" lon="17.9727">
        <ele>363.50421</ele>
        <time>2022-06-11T08:55:21.029Z</time>
      </trkpt>
      <trkpt lat="42.88475" lon="17.97268">
        <ele>363.664946</ele>
        <time>2022-06-11T08:55:25.007Z</time>
      </trkpt>
      <trkpt lat="42.88486" lon="17.97264">
        <ele>363.824844</ele>
        <time>2022-06-11T08:55:29.023Z</time>
      </trkpt>
      <trkpt lat="42.88497" lon="17.97259">
        <ele>363.977534</ele>
        <time>2022-06-11T08:55:33.055Z</time>
      </trkpt>
      <trkpt lat="42.88505" lon="17.97254">
        <ele>364.1077</ele>
        <time>2022-06-11T08:55:36.044Z</time>
      </trkpt>
      <trkpt lat="42.88515" lon="17.97248">
        <ele>364.236051</ele>
        <time>2022-06-11T08:55:39.027Z</time>
      </trkpt>
      <trkpt lat="42.88523" lon="17.97243">
        <ele>364.350983</ele>
        <time>2022-06-11T08:55:42.027Z</time>
      </trkpt>
      <trkpt lat="42.88532" lon="17.97237">
        <ele>364.463859</ele>
        <time>2022-06-11T08:55:45.019Z</time>
      </trkpt>
      <trkpt lat="42.88539" lon="17.9723">
        <ele>364.574697</ele>
        <time>2022-06-11T08:55:48.016Z</time>
      </trkpt>
      <trkpt lat="42.88548" lon="17.97224">
        <ele>364.693612</ele>
        <time>2022-06-11T08:55:51.013Z</time>
      </trkpt>
      <trkpt lat="42.88556" lon="17.97218">
        <ele>364.807162</ele>
        <time>2022-06-11T08:55:54.026Z</time>
      </trkpt>
      <trkpt lat="42.88565" lon="17.97211">
        <ele>364.931933</ele>
        <time>2022-06-11T08:55:57.048Z</time>
      </trkpt>
      <trkpt lat="42.88575" lon="17.97201">
        <ele>365.083285</ele>
        <time>2022-06-11T08:56:01.023Z</time>
      </trkpt>
      <trkpt lat="42.88583" lon="17.97193">
        <ele>365.209209</ele>
        <time>2022-06-11T08:56:04.022Z</time>
      </trkpt>
      <trkpt lat="42.88592" lon="17.97186">
        <ele>365.331854</ele>
        <time>2022-06-11T08:56:07.028Z</time>
      </trkpt>
      <trkpt lat="42.88601" lon="17.97181">
        <ele>365.454209</ele>
        <time>2022-06-11T08:56:10.027Z</time>
      </trkpt>
      <trkpt lat="42.88609" lon="17.97175">
        <ele>365.573781</ele>
        <time>2022-06-11T08:56:13.087Z</time>
      </trkpt>
      <trkpt lat="42.88618" lon="17.97169">
        <ele>365.692425</ele>
        <time>2022-06-11T08:56:16.023Z</time>
      </trkpt>
      <trkpt lat="42.88627" lon="17.97163">
        <ele>365.811461</ele>
        <time>2022-06-11T08:56:19.021Z</time>
      </trkpt>
      <trkpt lat="42.88635" lon="17.97158">
        <ele>365.924189</ele>
        <time>2022-06-11T08:56:22.033Z</time>
      </trkpt>
      <trkpt lat="42.88647" lon="17.97154">
        <ele>366.072645</ele>
        <time>2022-06-11T08:56:26.041Z</time>
      </trkpt>
      <trkpt lat="42.88657" lon="17.97152">
        <ele>366.196649</ele>
        <time>2022-06-11T08:56:29.003Z</time>
      </trkpt>
      <trkpt lat="42.88666" lon="17.97148">
        <ele>366.29239</ele>
        <time>2022-06-11T08:56:32.068Z</time>
      </trkpt>
      <trkpt lat="42.88675" lon="17.97142">
        <ele>366.266213</ele>
        <time>2022-06-11T08:56:35.004Z</time>
      </trkpt>
      <trkpt lat="42.88684" lon="17.97136">
        <ele>366.239883</ele>
        <time>2022-06-11T08:56:38.048Z</time>
      </trkpt>
      <trkpt lat="42.88693" lon="17.97129">
        <ele>366.212492</ele>
        <time>2022-06-11T08:56:41.014Z</time>
      </trkpt>
      <trkpt lat="42.88701" lon="17.97124">
        <ele>366.187939</ele>
        <time>2022-06-11T08:56:44.019Z</time>
      </trkpt>
      <trkpt lat="42.8871" lon="17.97121">
        <ele>366.162625</ele>
        <time>2022-06-11T08:56:47.023Z</time>
      </trkpt>
      <trkpt lat="42.88722" lon="17.97116">
        <ele>366.131151</ele>
        <time>2022-06-11T08:56:51.020Z</time>
      </trkpt>
      <trkpt lat="42.88733" lon="17.97112">
        <ele>366.09946</ele>
        <time>2022-06-11T08:56:55.075Z</time>
      </trkpt>
      <trkpt lat="42.88743" lon="17.97111">
        <ele>366.074119</ele>
        <time>2022-06-11T08:56:58.021Z</time>
      </trkpt>
      <trkpt lat="42.88752" lon="17.97109">
        <ele>366.04873</ele>
        <time>2022-06-11T08:57:01.028Z</time>
      </trkpt>
      <trkpt lat="42.88762" lon="17.97109">
        <ele>366.022891</ele>
        <time>2022-06-11T08:57:04.010Z</time>
      </trkpt>
      <trkpt lat="42.88772" lon="17.97109">
        <ele>365.995741</ele>
        <time>2022-06-11T08:57:07.012Z</time>
      </trkpt>
      <trkpt lat="42.88782" lon="17.97109">
        <ele>365.96935</ele>
        <time>2022-06-11T08:57:10.032Z</time>
      </trkpt>
      <trkpt lat="42.88792" lon="17.9711">
        <ele>365.942693</ele>
        <time>2022-06-11T08:57:13.032Z</time>
      </trkpt>
      <trkpt lat="42.88801" lon="17.97111">
        <ele>365.917868</ele>
        <time>2022-06-11T08:57:16.015Z</time>
      </trkpt>
      <trkpt lat="42.8881" lon="17.97113">
        <ele>365.89297</ele>
        <time>2022-06-11T08:57:19.020Z</time>
      </trkpt>
      <trkpt lat="42.8882" lon="17.97114">
        <ele>365.868356</ele>
        <time>2022-06-11T08:57:22.034Z</time>
      </trkpt>
      <trkpt lat="42.88829" lon="17.97115">
        <ele>365.843171</ele>
        <time>2022-06-11T08:57:25.019Z</time>
      </trkpt>
      <trkpt lat="42.88841" lon="17.97118">
        <ele>365.820167</ele>
        <time>2022-06-11T08:57:29.022Z</time>
      </trkpt>
      <trkpt lat="42.8885" lon="17.9712">
        <ele>365.828433</ele>
        <time>2022-06-11T08:57:32.021Z</time>
      </trkpt>
      <trkpt lat="42.8886" lon="17.97122">
        <ele>365.837769</ele>
        <time>2022-06-11T08:57:35.038Z</time>
      </trkpt>
      <trkpt lat="42.8887" lon="17.97126">
        <ele>365.846449</ele>
        <time>2022-06-11T08:57:38.016Z</time>
      </trkpt>
      <trkpt lat="42.88878" lon="17.9713">
        <ele>365.854543</ele>
        <time>2022-06-11T08:57:41.060Z</time>
      </trkpt>
      <trkpt lat="42.88889" lon="17.97135">
        <ele>365.86444</ele>
        <time>2022-06-11T08:57:45.021Z</time>
      </trkpt>
      <trkpt lat="42.889" lon="17.97136">
        <ele>365.873929</ele>
        <time>2022-06-11T08:57:49.021Z</time>
      </trkpt>
      <trkpt lat="42.88909" lon="17.97136">
        <ele>365.882263</ele>
        <time>2022-06-11T08:57:52.056Z</time>
      </trkpt>
      <trkpt lat="42.88919" lon="17.97139">
        <ele>365.891004</ele>
        <time>2022-06-11T08:57:56.060Z</time>
      </trkpt>
      <trkpt lat="42.88929" lon="17.97144">
        <ele>365.900964</ele>
        <time>2022-06-11T08:58:06.005Z</time>
      </trkpt>
      <trkpt lat="42.8894" lon="17.97145">
        <ele>365.910542</ele>
        <time>2022-06-11T08:58:10.038Z</time>
      </trkpt>
      <trkpt lat="42.8895" lon="17.97145">
        <ele>365.919669</ele>
        <time>2022-06-11T08:58:14.044Z</time>
      </trkpt>
      <trkpt lat="42.8896" lon="17.97148">
        <ele>365.928929</ele>
        <time>2022-06-11T08:58:18.009Z</time>
      </trkpt>
      <trkpt lat="42.88972" lon="17.97151">
        <ele>365.939056</ele>
        <time>2022-06-11T08:58:22.020Z</time>
      </trkpt>
      <trkpt lat="42.88981" lon="17.97155">
        <ele>365.947998</ele>
        <time>2022-06-11T08:58:25.032Z</time>
      </trkpt>
      <trkpt lat="42.88991" lon="17.97157">
        <ele>365.956439</ele>
        <time>2022-06-11T08:58:28.018Z</time>
      </trkpt>
      <trkpt lat="42.89" lon="17.97157">
        <ele>365.964775</ele>
        <time>2022-06-11T08:58:31.018Z</time>
      </trkpt>
      <trkpt lat="42.8901" lon="17.97155">
        <ele>365.973147</ele>
        <time>2022-06-11T08:58:34.014Z</time>
      </trkpt>
      <trkpt lat="42.89019" lon="17.97156">
        <ele>365.913607</ele>
        <time>2022-06-11T08:58:37.048Z</time>
      </trkpt>
      <trkpt lat="42.89028" lon="17.97157">
        <ele>365.781885</ele>
        <time>2022-06-11T08:58:40.024Z</time>
      </trkpt>
      <trkpt lat="42.89038" lon="17.97158">
        <ele>365.644774</ele>
        <time>2022-06-11T08:58:43.013Z</time>
      </trkpt>
      <trkpt lat="42.89049" lon="17.97158">
        <ele>365.498189</ele>
        <time>2022-06-11T08:58:46.031Z</time>
      </trkpt>
      <trkpt lat="42.89059" lon="17.97157">
        <ele>365.35535</ele>
        <time>2022-06-11T08:58:49.017Z</time>
      </trkpt>
      <trkpt lat="42.89069" lon="17.97155">
        <ele>365.21848</ele>
        <time>2022-06-11T08:58:52.020Z</time>
      </trkpt>
      <trkpt lat="42.89079" lon="17.97153">
        <ele>365.069571</ele>
        <time>2022-06-11T08:58:55.023Z</time>
      </trkpt>
      <trkpt lat="42.89088" lon="17.97149">
        <ele>364.934418</ele>
        <time>2022-06-11T08:58:58.016Z</time>
      </trkpt>
      <trkpt lat="42.89098" lon="17.97146">
        <ele>364.800604</ele>
        <time>2022-06-11T08:59:01.027Z</time>
      </trkpt>
      <trkpt lat="42.89108" lon="17.97143">
        <ele>364.659334</ele>
        <time>2022-06-11T08:59:04.023Z</time>
      </trkpt>
      <trkpt lat="42.89118" lon="17.97141">
        <ele>364.513191</ele>
        <time>2022-06-11T08:59:07.022Z</time>
      </trkpt>
      <trkpt lat="42.89129" lon="17.97138">
        <ele>364.361186</ele>
        <time>2022-06-11T08:59:10.034Z</time>
      </trkpt>
      <trkpt lat="42.89139" lon="17.97134">
        <ele>364.211739</ele>
        <time>2022-06-11T08:59:13.021Z</time>
      </trkpt>
      <trkpt lat="42.89149" lon="17.97131">
        <ele>364.071833</ele>
        <time>2022-06-11T08:59:16.067Z</time>
      </trkpt>
      <trkpt lat="42.89159" lon="17.97127">
        <ele>363.930457</ele>
        <time>2022-06-11T08:59:19.019Z</time>
      </trkpt>
      <trkpt lat="42.89168" lon="17.97125">
        <ele>363.793906</ele>
        <time>2022-06-11T08:59:22.030Z</time>
      </trkpt>
      <trkpt lat="42.89179" lon="17.97123">
        <ele>363.646913</ele>
        <time>2022-06-11T08:59:25.023Z</time>
      </trkpt>
      <trkpt lat="42.89189" lon="17.97122">
        <ele>363.496061</ele>
        <time>2022-06-11T08:59:28.021Z</time>
      </trkpt>
      <trkpt lat="42.892" lon="17.97122">
        <ele>363.326515</ele>
        <time>2022-06-11T08:59:31.010Z</time>
      </trkpt>
      <trkpt lat="42.89211" lon="17.97122">
        <ele>363.140852</ele>
        <time>2022-06-11T08:59:34.016Z</time>
      </trkpt>
      <trkpt lat="42.89222" lon="17.97122">
        <ele>362.950323</ele>
        <time>2022-06-11T08:59:37.016Z</time>
      </trkpt>
      <trkpt lat="42.89234" lon="17.97123">
        <ele>362.747509</ele>
        <time>2022-06-11T08:59:40.016Z</time>
      </trkpt>
      <trkpt lat="42.89246" lon="17.97126">
        <ele>362.551313</ele>
        <time>2022-06-11T08:59:43.023Z</time>
      </trkpt>
      <trkpt lat="42.89256" lon="17.97129">
        <ele>362.362933</ele>
        <time>2022-06-11T08:59:46.018Z</time>
      </trkpt>
      <trkpt lat="42.89267" lon="17.97132">
        <ele>362.178641</ele>
        <time>2022-06-11T08:59:49.030Z</time>
      </trkpt>
      <trkpt lat="42.89278" lon="17.97135">
        <ele>361.9998</ele>
        <time>2022-06-11T08:59:52.034Z</time>
      </trkpt>
      <trkpt lat="42.89288" lon="17.97139">
        <ele>361.819906</ele>
        <time>2022-06-11T08:59:55.008Z</time>
      </trkpt>
      <trkpt lat="42.89298" lon="17.97142">
        <ele>361.645663</ele>
        <time>2022-06-11T08:59:58.018Z</time>
      </trkpt>
      <trkpt lat="42.89308" lon="17.97146">
        <ele>361.465573</ele>
        <time>2022-06-11T09:00:01.024Z</time>
      </trkpt>
      <trkpt lat="42.89319" lon="17.97151">
        <ele>361.281758</ele>
        <time>2022-06-11T09:00:04.027Z</time>
      </trkpt>
      <trkpt lat="42.89329" lon="17.97156">
        <ele>361.099003</ele>
        <time>2022-06-11T09:00:07.020Z</time>
      </trkpt>
      <trkpt lat="42.89338" lon="17.97161">
        <ele>360.931172</ele>
        <time>2022-06-11T09:00:10.018Z</time>
      </trkpt>
      <trkpt lat="42.89348" lon="17.97164">
        <ele>360.760042</ele>
        <time>2022-06-11T09:00:13.047Z</time>
      </trkpt>
      <trkpt lat="42.89358" lon="17.97167">
        <ele>360.592306</ele>
        <time>2022-06-11T09:00:16.021Z</time>
      </trkpt>
      <trkpt lat="42.89368" lon="17.97172">
        <ele>360.440497</ele>
        <time>2022-06-11T09:00:19.012Z</time>
      </trkpt>
      <trkpt lat="42.89378" lon="17.97177">
        <ele>360.466044</ele>
        <time>2022-06-11T09:00:22.018Z</time>
      </trkpt>
      <trkpt lat="42.89388" lon="17.97182">
        <ele>360.492348</ele>
        <time>2022-06-11T09:00:25.026Z</time>
      </trkpt>
      <trkpt lat="42.89398" lon="17.9719">
        <ele>360.518263</ele>
        <time>2022-06-11T09:00:28.026Z</time>
      </trkpt>
      <trkpt lat="42.89408" lon="17.97197">
        <ele>360.544507</ele>
        <time>2022-06-11T09:00:31.008Z</time>
      </trkpt>
      <trkpt lat="42.89418" lon="17.97205">
        <ele>360.570827</ele>
        <time>2022-06-11T09:00:34.025Z</time>
      </trkpt>
      <trkpt lat="42.89428" lon="17.97212">
        <ele>360.597723</ele>
        <time>2022-06-11T09:00:37.025Z</time>
      </trkpt>
      <trkpt lat="42.89438" lon="17.97221">
        <ele>360.624565</ele>
        <time>2022-06-11T09:00:40.016Z</time>
      </trkpt>
      <trkpt lat="42.89447" lon="17.97229">
        <ele>360.651763</ele>
        <time>2022-06-11T09:00:43.030Z</time>
      </trkpt>
      <trkpt lat="42.89457" lon="17.97238">
        <ele>360.679156</ele>
        <time>2022-06-11T09:00:46.026Z</time>
      </trkpt>
      <trkpt lat="42.89467" lon="17.97247">
        <ele>360.705877</ele>
        <time>2022-06-11T09:00:49.009Z</time>
      </trkpt>
      <trkpt lat="42.89476" lon="17.97255">
        <ele>360.732303</ele>
        <time>2022-06-11T09:00:52.031Z</time>
      </trkpt>
      <trkpt lat="42.89486" lon="17.97264">
        <ele>360.759113</ele>
        <time>2022-06-11T09:00:55.010Z</time>
      </trkpt>
      <trkpt lat="42.89495" lon="17.97273">
        <ele>360.786696</ele>
        <time>2022-06-11T09:00:58.067Z</time>
      </trkpt>
      <trkpt lat="42.89505" lon="17.97282">
        <ele>360.813602</ele>
        <time>2022-06-11T09:01:01.025Z</time>
      </trkpt>
      <trkpt lat="42.89514" lon="17.9729">
        <ele>360.838776</ele>
        <time>2022-06-11T09:01:04.031Z</time>
      </trkpt>
      <trkpt lat="42.89522" lon="17.97299">
        <ele>360.890747</ele>
        <time>2022-06-11T09:01:07.031Z</time>
      </trkpt>
      <trkpt lat="42.89531" lon="17.9731">
        <ele>361.039463</ele>
        <time>2022-06-11T09:01:10.023Z</time>
      </trkpt>
      <trkpt lat="42.89538" lon="17.97322">
        <ele>361.186655</ele>
        <time>2022-06-11T09:01:13.023Z</time>
      </trkpt>
      <trkpt lat="42.89545" lon="17.97335">
        <ele>361.326921</ele>
        <time>2022-06-11T09:01:16.028Z</time>
      </trkpt>
      <trkpt lat="42.8955" lon="17.97347">
        <ele>361.45489</ele>
        <time>2022-06-11T09:01:19.045Z</time>
      </trkpt>
      <trkpt lat="42.89556" lon="17.9736">
        <ele>361.600266</ele>
        <time>2022-06-11T09:01:22.020Z</time>
      </trkpt>
      <trkpt lat="42.89561" lon="17.97374">
        <ele>361.743818</ele>
        <time>2022-06-11T09:01:25.026Z</time>
      </trkpt>
      <trkpt lat="42.89567" lon="17.97388">
        <ele>361.89443</ele>
        <time>2022-06-11T09:01:28.025Z</time>
      </trkpt>
      <trkpt lat="42.89573" lon="17.97402">
        <ele>362.036323</ele>
        <time>2022-06-11T09:01:31.041Z</time>
      </trkpt>
      <trkpt lat="42.89579" lon="17.97415">
        <ele>362.177107</ele>
        <time>2022-06-11T09:01:34.021Z</time>
      </trkpt>
      <trkpt lat="42.89584" lon="17.97428">
        <ele>362.314366</ele>
        <time>2022-06-11T09:01:37.031Z</time>
      </trkpt>
      <trkpt lat="42.89588" lon="17.97442">
        <ele>362.450114</ele>
        <time>2022-06-11T09:01:40.019Z</time>
      </trkpt>
      <trkpt lat="42.89592" lon="17.97456">
        <ele>362.593912</ele>
        <time>2022-06-11T09:01:43.055Z</time>
      </trkpt>
      <trkpt lat="42.89595" lon="17.97471">
        <ele>362.737829</ele>
        <time>2022-06-11T09:01:46.014Z</time>
      </trkpt>
      <trkpt lat="42.89599" lon="17.97485">
        <ele>362.868677</ele>
        <time>2022-06-11T09:01:49.054Z</time>
      </trkpt>
      <trkpt lat="42.89603" lon="17.97499">
        <ele>363.006971</ele>
        <time>2022-06-11T09:01:52.022Z</time>
      </trkpt>
      <trkpt lat="42.89607" lon="17.97515">
        <ele>363.179792</ele>
        <time>2022-06-11T09:01:55.036Z</time>
      </trkpt>
      <trkpt lat="42.89609" lon="17.9753">
        <ele>363.386321</ele>
        <time>2022-06-11T09:01:58.004Z</time>
      </trkpt>
      <trkpt lat="42.89613" lon="17.97545">
        <ele>363.592074</ele>
        <time>2022-06-11T09:02:01.033Z</time>
      </trkpt>
      <trkpt lat="42.89617" lon="17.9756">
        <ele>363.800742</ele>
        <time>2022-06-11T09:02:04.021Z</time>
      </trkpt>
      <trkpt lat="42.8962" lon="17.97573">
        <ele>363.988572</ele>
        <time>2022-06-11T09:02:07.001Z</time>
      </trkpt>
      <trkpt lat="42.89624" lon="17.97586">
        <ele>364.170738</ele>
        <time>2022-06-11T09:02:10.023Z</time>
      </trkpt>
      <trkpt lat="42.89627" lon="17.97599">
        <ele>364.348183</ele>
        <time>2022-06-11T09:02:13.030Z</time>
      </trkpt>
      <trkpt lat="42.89632" lon="17.97611">
        <ele>364.522293</ele>
        <time>2022-06-11T09:02:16.032Z</time>
      </trkpt>
      <trkpt lat="42.89636" lon="17.97623">
        <ele>364.700454</ele>
        <time>2022-06-11T09:02:19.008Z</time>
      </trkpt>
      <trkpt lat="42.89639" lon="17.97635">
        <ele>364.877898</ele>
        <time>2022-06-11T09:02:22.013Z</time>
      </trkpt>
      <trkpt lat="42.89644" lon="17.97647">
        <ele>365.052376</ele>
        <time>2022-06-11T09:02:25.038Z</time>
      </trkpt>
      <trkpt lat="42.8965" lon="17.97661">
        <ele>365.265901</ele>
        <time>2022-06-11T09:02:29.025Z</time>
      </trkpt>
      <trkpt lat="42.89655" lon="17.97672">
        <ele>365.437243</ele>
        <time>2022-06-11T09:02:32.024Z</time>
      </trkpt>
      <trkpt lat="42.89661" lon="17.97683">
        <ele>365.607085</ele>
        <time>2022-06-11T09:02:35.014Z</time>
      </trkpt>
      <trkpt lat="42.89667" lon="17.97693">
        <ele>365.788209</ele>
        <time>2022-06-11T09:02:38.028Z</time>
      </trkpt>
      <trkpt lat="42.89674" lon="17.97703">
        <ele>365.971326</ele>
        <time>2022-06-11T09:02:41.047Z</time>
      </trkpt>
      <trkpt lat="42.89681" lon="17.97714">
        <ele>366.156596</ele>
        <time>2022-06-11T09:02:44.024Z</time>
      </trkpt>
      <trkpt lat="42.89689" lon="17.97724">
        <ele>366.343886</ele>
        <time>2022-06-11T09:02:47.029Z</time>
      </trkpt>
      <trkpt lat="42.89696" lon="17.97733">
        <ele>366.30968</ele>
        <time>2022-06-11T09:02:50.016Z</time>
      </trkpt>
      <trkpt lat="42.89705" lon="17.97743">
        <ele>366.273793</ele>
        <time>2022-06-11T09:02:53.025Z</time>
      </trkpt>
      <trkpt lat="42.89713" lon="17.97754">
        <ele>366.236684</ele>
        <time>2022-06-11T09:02:56.019Z</time>
      </trkpt>
      <trkpt lat="42.89722" lon="17.97764">
        <ele>366.200477</ele>
        <time>2022-06-11T09:02:59.023Z</time>
      </trkpt>
      <trkpt lat="42.8973" lon="17.97774">
        <ele>366.164663</ele>
        <time>2022-06-11T09:03:02.011Z</time>
      </trkpt>
      <trkpt lat="42.89739" lon="17.97782">
        <ele>366.130038</ele>
        <time>2022-06-11T09:03:05.021Z</time>
      </trkpt>
      <trkpt lat="42.89747" lon="17.9779">
        <ele>366.096477</ele>
        <time>2022-06-11T09:03:08.007Z</time>
      </trkpt>
      <trkpt lat="42.89755" lon="17.97799">
        <ele>366.063347</ele>
        <time>2022-06-11T09:03:11.017Z</time>
      </trkpt>
      <trkpt lat="42.89763" lon="17.97806">
        <ele>366.031264</ele>
        <time>2022-06-11T09:03:14.023Z</time>
      </trkpt>
      <trkpt lat="42.89771" lon="17.97813">
        <ele>366.000735</ele>
        <time>2022-06-11T09:03:17.040Z</time>
      </trkpt>
      <trkpt lat="42.89779" lon="17.97818">
        <ele>365.971357</ele>
        <time>2022-06-11T09:03:20.031Z</time>
      </trkpt>
      <trkpt lat="42.89788" lon="17.97822">
        <ele>365.941144</ele>
        <time>2022-06-11T09:03:23.015Z</time>
      </trkpt>
      <trkpt lat="42.89797" lon="17.97828">
        <ele>365.908217</ele>
        <time>2022-06-11T09:03:26.059Z</time>
      </trkpt>
      <trkpt lat="42.89806" lon="17.97833">
        <ele>365.877154</ele>
        <time>2022-06-11T09:03:29.009Z</time>
      </trkpt>
      <trkpt lat="42.89815" lon="17.97838">
        <ele>365.847174</ele>
        <time>2022-06-11T09:03:32.002Z</time>
      </trkpt>
      <trkpt lat="42.89824" lon="17.97843">
        <ele>365.816556</ele>
        <time>2022-06-11T09:03:35.021Z</time>
      </trkpt>
      <trkpt lat="42.89834" lon="17.97846">
        <ele>365.782384</ele>
        <time>2022-06-11T09:03:38.017Z</time>
      </trkpt>
      <trkpt lat="42.89843" lon="17.97848">
        <ele>365.746942</ele>
        <time>2022-06-11T09:03:41.013Z</time>
      </trkpt>
      <trkpt lat="42.89853" lon="17.97849">
        <ele>365.694197</ele>
        <time>2022-06-11T09:03:44.018Z</time>
      </trkpt>
      <trkpt lat="42.89863" lon="17.97849">
        <ele>365.644839</ele>
        <time>2022-06-11T09:03:47.022Z</time>
      </trkpt>
      <trkpt lat="42.89875" lon="17.97848">
        <ele>365.582772</ele>
        <time>2022-06-11T09:03:51.026Z</time>
      </trkpt>
      <trkpt lat="42.89884" lon="17.97846">
        <ele>365.534479</ele>
        <time>2022-06-11T09:03:54.011Z</time>
      </trkpt>
      <trkpt lat="42.89893" lon="17.97844">
        <ele>365.487536</ele>
        <time>2022-06-11T09:03:57.013Z</time>
      </trkpt>
      <trkpt lat="42.89903" lon="17.97841">
        <ele>365.437229</ele>
        <time>2022-06-11T09:04:00.021Z</time>
      </trkpt>
      <trkpt lat="42.89913" lon="17.97837">
        <ele>365.383835</ele>
        <time>2022-06-11T09:04:03.024Z</time>
      </trkpt>
      <trkpt lat="42.89923" lon="17.97834">
        <ele>365.3327</ele>
        <time>2022-06-11T09:04:06.036Z</time>
      </trkpt>
      <trkpt lat="42.89932" lon="17.97832">
        <ele>365.282016</ele>
        <time>2022-06-11T09:04:09.028Z</time>
      </trkpt>
      <trkpt lat="42.89942" lon="17.97829">
        <ele>365.228953</ele>
        <time>2022-06-11T09:04:12.029Z</time>
      </trkpt>
      <trkpt lat="42.89952" lon="17.97826">
        <ele>365.17719</ele>
        <time>2022-06-11T09:04:15.008Z</time>
      </trkpt>
      <trkpt lat="42.89962" lon="17.97824">
        <ele>365.128306</ele>
        <time>2022-06-11T09:04:18.016Z</time>
      </trkpt>
      <trkpt lat="42.89971" lon="17.97822">
        <ele>365.08016</ele>
        <time>2022-06-11T09:04:21.023Z</time>
      </trkpt>
      <trkpt lat="42.8998" lon="17.97822">
        <ele>365.032805</ele>
        <time>2022-06-11T09:04:24.019Z</time>
      </trkpt>
      <trkpt lat="42.89991" lon="17.97818">
        <ele>364.974819</ele>
        <time>2022-06-11T09:04:28.026Z</time>
      </trkpt>
      <trkpt lat="42.9" lon="17.97818">
        <ele>364.926491</ele>
        <time>2022-06-11T09:04:31.021Z</time>
      </trkpt>
      <trkpt lat="42.90011" lon="17.97818">
        <ele>364.874028</ele>
        <time>2022-06-11T09:04:34.015Z</time>
      </trkpt>
      <trkpt lat="42.9002" lon="17.97815">
        <ele>364.845125</ele>
        <time>2022-06-11T09:04:37.033Z</time>
      </trkpt>
      <trkpt lat="42.90029" lon="17.97812">
        <ele>364.886826</ele>
        <time>2022-06-11T09:04:40.024Z</time>
      </trkpt>
      <trkpt lat="42.90041" lon="17.97808">
        <ele>364.941535</ele>
        <time>2022-06-11T09:04:44.024Z</time>
      </trkpt>
      <trkpt lat="42.90049" lon="17.97804">
        <ele>364.983481</ele>
        <time>2022-06-11T09:04:47.021Z</time>
      </trkpt>
      <trkpt lat="42.90061" lon="17.97799">
        <ele>365.036882</ele>
        <time>2022-06-11T09:04:51.054Z</time>
      </trkpt>
      <trkpt lat="42.90071" lon="17.97793">
        <ele>365.089653</ele>
        <time>2022-06-11T09:04:55.010Z</time>
      </trkpt>
      <trkpt lat="42.90082" lon="17.97786">
        <ele>365.144133</ele>
        <time>2022-06-11T09:04:59.024Z</time>
      </trkpt>
      <trkpt lat="42.90091" lon="17.97782">
        <ele>365.18759</ele>
        <time>2022-06-11T09:05:02.033Z</time>
      </trkpt>
      <trkpt lat="42.901" lon="17.97779">
        <ele>365.229534</ele>
        <time>2022-06-11T09:05:05.029Z</time>
      </trkpt>
      <trkpt lat="42.9011" lon="17.97774">
        <ele>365.275392</ele>
        <time>2022-06-11T09:05:08.016Z</time>
      </trkpt>
      <trkpt lat="42.90119" lon="17.97769">
        <ele>365.322219</ele>
        <time>2022-06-11T09:05:11.023Z</time>
      </trkpt>
      <trkpt lat="42.90129" lon="17.97764">
        <ele>365.368991</ele>
        <time>2022-06-11T09:05:14.016Z</time>
      </trkpt>
      <trkpt lat="42.90138" lon="17.97759">
        <ele>365.413111</ele>
        <time>2022-06-11T09:05:17.087Z</time>
      </trkpt>
      <trkpt lat="42.90149" lon="17.97754">
        <ele>365.466278</ele>
        <time>2022-06-11T09:05:21.022Z</time>
      </trkpt>
      <trkpt lat="42.90158" lon="17.97751">
        <ele>365.507624</ele>
        <time>2022-06-11T09:05:24.003Z</time>
      </trkpt>
      <trkpt lat="42.90167" lon="17.97748">
        <ele>365.552468</ele>
        <time>2022-06-11T09:05:27.027Z</time>
      </trkpt>
      <trkpt lat="42.90177" lon="17.97746">
        <ele>365.596545</ele>
        <time>2022-06-11T09:05:30.016Z</time>
      </trkpt>
      <trkpt lat="42.90186" lon="17.97745">
        <ele>365.639969</ele>
        <time>2022-06-11T09:05:33.020Z</time>
      </trkpt>
      <trkpt lat="42.90196" lon="17.97745">
        <ele>365.474168</ele>
        <time>2022-06-11T09:05:36.020Z</time>
      </trkpt>
      <trkpt lat="42.90206" lon="17.97745">
        <ele>365.170572</ele>
        <time>2022-06-11T09:05:39.032Z</time>
      </trkpt>
      <trkpt lat="42.90216" lon="17.97746">
        <ele>364.872592</ele>
        <time>2022-06-11T09:05:42.025Z</time>
      </trkpt>
      <trkpt lat="42.90227" lon="17.97747">
        <ele>364.569231</ele>
        <time>2022-06-11T09:05:45.022Z</time>
      </trkpt>
      <trkpt lat="42.90238" lon="17.97748">
        <ele>364.250615</ele>
        <time>2022-06-11T09:05:48.005Z</time>
      </trkpt>
      <trkpt lat="42.90249" lon="17.9775">
        <ele>363.937349</ele>
        <time>2022-06-11T09:05:51.005Z</time>
      </trkpt>
      <trkpt lat="42.9026" lon="17.97751">
        <ele>363.613707</ele>
        <time>2022-06-11T09:05:54.021Z</time>
      </trkpt>
      <trkpt lat="42.90271" lon="17.97753">
        <ele>363.281465</ele>
        <time>2022-06-11T09:05:57.020Z</time>
      </trkpt>
      <trkpt lat="42.90282" lon="17.97755">
        <ele>362.960008</ele>
        <time>2022-06-11T09:06:00.029Z</time>
      </trkpt>
      <trkpt lat="42.90293" lon="17.97757">
        <ele>362.654073</ele>
        <time>2022-06-11T09:06:03.015Z</time>
      </trkpt>
      <trkpt lat="42.90303" lon="17.97759">
        <ele>362.359862</ele>
        <time>2022-06-11T09:06:06.026Z</time>
      </trkpt>
      <trkpt lat="42.90313" lon="17.97761">
        <ele>362.074224</ele>
        <time>2022-06-11T09:06:09.021Z</time>
      </trkpt>
      <trkpt lat="42.90323" lon="17.97763">
        <ele>361.770528</ele>
        <time>2022-06-11T09:06:12.018Z</time>
      </trkpt>
      <trkpt lat="42.90334" lon="17.97764">
        <ele>361.467462</ele>
        <time>2022-06-11T09:06:15.016Z</time>
      </trkpt>
      <trkpt lat="42.90344" lon="17.97763">
        <ele>361.164277</ele>
        <time>2022-06-11T09:06:18.014Z</time>
      </trkpt>
      <trkpt lat="42.90355" lon="17.97762">
        <ele>360.863093</ele>
        <time>2022-06-11T09:06:21.020Z</time>
      </trkpt>
      <trkpt lat="42.90365" lon="17.97759">
        <ele>360.546253</ele>
        <time>2022-06-11T09:06:24.010Z</time>
      </trkpt>
      <trkpt lat="42.90376" lon="17.97756">
        <ele>360.499582</ele>
        <time>2022-06-11T09:06:27.046Z</time>
      </trkpt>
      <trkpt lat="42.90386" lon="17.97751">
        <ele>360.547741</ele>
        <time>2022-06-11T09:06:30.014Z</time>
      </trkpt>
      <trkpt lat="42.90397" lon="17.97747">
        <ele>360.595708</ele>
        <time>2022-06-11T09:06:33.062Z</time>
      </trkpt>
      <trkpt lat="42.90408" lon="17.97743">
        <ele>360.647535</ele>
        <time>2022-06-11T09:06:36.002Z</time>
      </trkpt>
      <trkpt lat="42.90421" lon="17.9774">
        <ele>360.702218</ele>
        <time>2022-06-11T09:06:39.025Z</time>
      </trkpt>
      <trkpt lat="42.90433" lon="17.97737">
        <ele>360.754273</ele>
        <time>2022-06-11T09:06:42.021Z</time>
      </trkpt>
      <trkpt lat="42.90443" lon="17.97737">
        <ele>360.801041</ele>
        <time>2022-06-11T09:06:45.016Z</time>
      </trkpt>
      <trkpt lat="42.90454" lon="17.97738">
        <ele>360.846278</ele>
        <time>2022-06-11T09:06:48.021Z</time>
      </trkpt>
      <trkpt lat="42.90464" lon="17.97741">
        <ele>360.892772</ele>
        <time>2022-06-11T09:06:51.022Z</time>
      </trkpt>
      <trkpt lat="42.90475" lon="17.97746">
        <ele>360.941773</ele>
        <time>2022-06-11T09:06:54.022Z</time>
      </trkpt>
      <trkpt lat="42.90484" lon="17.97751">
        <ele>360.986532</ele>
        <time>2022-06-11T09:06:57.016Z</time>
      </trkpt>
      <trkpt lat="42.90493" lon="17.97757">
        <ele>361.02986</ele>
        <time>2022-06-11T09:07:00.024Z</time>
      </trkpt>
      <trkpt lat="42.90503" lon="17.97762">
        <ele>361.074559</ele>
        <time>2022-06-11T09:07:03.015Z</time>
      </trkpt>
      <trkpt lat="42.90512" lon="17.97768">
        <ele>361.120406</ele>
        <time>2022-06-11T09:07:06.025Z</time>
      </trkpt>
      <trkpt lat="42.90522" lon="17.97773">
        <ele>361.166616</ele>
        <time>2022-06-11T09:07:09.015Z</time>
      </trkpt>
      <trkpt lat="42.90532" lon="17.97777">
        <ele>361.213471</ele>
        <time>2022-06-11T09:07:12.016Z</time>
      </trkpt>
      <trkpt lat="42.90543" lon="17.9778">
        <ele>361.182577</ele>
        <time>2022-06-11T09:07:15.011Z</time>
      </trkpt>
      <trkpt lat="42.90553" lon="17.97782">
        <ele>360.8876</ele>
        <time>2022-06-11T09:07:18.021Z</time>
      </trkpt>
      <trkpt lat="42.90564" lon="17.97783">
        <ele>360.593814</ele>
        <time>2022-06-11T09:07:21.021Z</time>
      </trkpt>
      <trkpt lat="42.90575" lon="17.97783">
        <ele>360.278565</ele>
        <time>2022-06-11T09:07:24.044Z</time>
      </trkpt>
      <trkpt lat="42.90585" lon="17.9778">
        <ele>359.991834</ele>
        <time>2022-06-11T09:07:27.021Z</time>
      </trkpt>
      <trkpt lat="42.90596" lon="17.97778">
        <ele>359.699983</ele>
        <time>2022-06-11T09:07:30.017Z</time>
      </trkpt>
      <trkpt lat="42.90605" lon="17.97774">
        <ele>359.421588</ele>
        <time>2022-06-11T09:07:33.004Z</time>
      </trkpt>
      <trkpt lat="42.90616" lon="17.97773">
        <ele>359.134396</ele>
        <time>2022-06-11T09:07:36.016Z</time>
      </trkpt>
      <trkpt lat="42.90627" lon="17.97769">
        <ele>358.810117</ele>
        <time>2022-06-11T09:07:39.011Z</time>
      </trkpt>
      <trkpt lat="42.90638" lon="17.97766">
        <ele>358.499972</ele>
        <time>2022-06-11T09:07:42.018Z</time>
      </trkpt>
      <trkpt lat="42.90649" lon="17.97762">
        <ele>358.184875</ele>
        <time>2022-06-11T09:07:45.004Z</time>
      </trkpt>
      <trkpt lat="42.9066" lon="17.97758">
        <ele>357.859743</ele>
        <time>2022-06-11T09:07:48.015Z</time>
      </trkpt>
      <trkpt lat="42.90671" lon="17.97754">
        <ele>357.542646</ele>
        <time>2022-06-11T09:07:51.017Z</time>
      </trkpt>
      <trkpt lat="42.90682" lon="17.9775">
        <ele>357.231176</ele>
        <time>2022-06-11T09:07:54.023Z</time>
      </trkpt>
      <trkpt lat="42.90693" lon="17.97747">
        <ele>356.904549</ele>
        <time>2022-06-11T09:07:57.062Z</time>
      </trkpt>
      <trkpt lat="42.90704" lon="17.97745">
        <ele>356.592201</ele>
        <time>2022-06-11T09:08:00.015Z</time>
      </trkpt>
      <trkpt lat="42.90715" lon="17.97743">
        <ele>356.298284</ele>
        <time>2022-06-11T09:08:03.046Z</time>
      </trkpt>
      <trkpt lat="42.90724" lon="17.9774">
        <ele>356.093394</ele>
        <time>2022-06-11T09:08:06.004Z</time>
      </trkpt>
      <trkpt lat="42.90734" lon="17.97737">
        <ele>355.908962</ele>
        <time>2022-06-11T09:08:09.043Z</time>
      </trkpt>
      <trkpt lat="42.90744" lon="17.97734">
        <ele>355.725419</ele>
        <time>2022-06-11T09:08:12.031Z</time>
      </trkpt>
      <trkpt lat="42.90754" lon="17.9773">
        <ele>355.536985</ele>
        <time>2022-06-11T09:08:15.049Z</time>
      </trkpt>
      <trkpt lat="42.90764" lon="17.97727">
        <ele>355.341196</ele>
        <time>2022-06-11T09:08:18.006Z</time>
      </trkpt>
      <trkpt lat="42.90775" lon="17.97724">
        <ele>355.146607</ele>
        <time>2022-06-11T09:08:21.028Z</time>
      </trkpt>
      <trkpt lat="42.90784" lon="17.9772">
        <ele>354.967313</ele>
        <time>2022-06-11T09:08:24.021Z</time>
      </trkpt>
      <trkpt lat="42.90793" lon="17.97715">
        <ele>354.788461</ele>
        <time>2022-06-11T09:08:27.021Z</time>
      </trkpt>
      <trkpt lat="42.90804" lon="17.97709">
        <ele>354.570594</ele>
        <time>2022-06-11T09:08:31.023Z</time>
      </trkpt>
      <trkpt lat="42.90813" lon="17.97704">
        <ele>354.395348</ele>
        <time>2022-06-11T09:08:34.017Z</time>
      </trkpt>
      <trkpt lat="42.90821" lon="17.97697">
        <ele>354.208701</ele>
        <time>2022-06-11T09:08:37.044Z</time>
      </trkpt>
      <trkpt lat="42.90831" lon="17.97689">
        <ele>354.012307</ele>
        <time>2022-06-11T09:08:40.026Z</time>
      </trkpt>
      <trkpt lat="42.90839" lon="17.97682">
        <ele>353.820065</ele>
        <time>2022-06-11T09:08:43.062Z</time>
      </trkpt>
      <trkpt lat="42.90848" lon="17.97674">
        <ele>353.640016</ele>
        <time>2022-06-11T09:08:46.017Z</time>
      </trkpt>
      <trkpt lat="42.90855" lon="17.97665">
        <ele>353.450433</ele>
        <time>2022-06-11T09:08:49.029Z</time>
      </trkpt>
      <trkpt lat="42.90863" lon="17.97656">
        <ele>353.254031</ele>
        <time>2022-06-11T09:08:52.015Z</time>
      </trkpt>
      <trkpt lat="42.90871" lon="17.97647">
        <ele>353.069228</ele>
        <time>2022-06-11T09:08:55.014Z</time>
      </trkpt>
      <trkpt lat="42.9088" lon="17.97638">
        <ele>353.009501</ele>
        <time>2022-06-11T09:08:58.028Z</time>
      </trkpt>
      <trkpt lat="42.90888" lon="17.97629">
        <ele>353.296388</ele>
        <time>2022-06-11T09:09:01.015Z</time>
      </trkpt>
      <trkpt lat="42.90895" lon="17.9762">
        <ele>353.577737</ele>
        <time>2022-06-11T09:09:04.061Z</time>
      </trkpt>
      <trkpt lat="42.90904" lon="17.97611">
        <ele>353.862078</ele>
        <time>2022-06-11T09:09:07.022Z</time>
      </trkpt>
      <trkpt lat="42.90912" lon="17.97603">
        <ele>354.149869</ele>
        <time>2022-06-11T09:09:10.019Z</time>
      </trkpt>
      <trkpt lat="42.9092" lon="17.97595">
        <ele>354.434923</ele>
        <time>2022-06-11T09:09:13.027Z</time>
      </trkpt>
      <trkpt lat="42.90929" lon="17.97587">
        <ele>354.721112</ele>
        <time>2022-06-11T09:09:16.016Z</time>
      </trkpt>
      <trkpt lat="42.90937" lon="17.97579">
        <ele>355.014241</ele>
        <time>2022-06-11T09:09:19.033Z</time>
      </trkpt>
      <trkpt lat="42.90947" lon="17.97571">
        <ele>355.314382</ele>
        <time>2022-06-11T09:09:22.030Z</time>
      </trkpt>
      <trkpt lat="42.90955" lon="17.97563">
        <ele>355.599507</ele>
        <time>2022-06-11T09:09:25.047Z</time>
      </trkpt>
      <trkpt lat="42.90964" lon="17.97556">
        <ele>355.878996</ele>
        <time>2022-06-11T09:09:28.031Z</time>
      </trkpt>
      <trkpt lat="42.90972" lon="17.9755">
        <ele>356.15405</ele>
        <time>2022-06-11T09:09:31.020Z</time>
      </trkpt>
      <trkpt lat="42.90982" lon="17.97543">
        <ele>356.454128</ele>
        <time>2022-06-11T09:09:34.019Z</time>
      </trkpt>
      <trkpt lat="42.90992" lon="17.97537">
        <ele>356.752371</ele>
        <time>2022-06-11T09:09:37.018Z</time>
      </trkpt>
      <trkpt lat="42.91001" lon="17.97529">
        <ele>357.047982</ele>
        <time>2022-06-11T09:09:40.022Z</time>
      </trkpt>
      <trkpt lat="42.91009" lon="17.97522">
        <ele>357.319511</ele>
        <time>2022-06-11T09:09:43.023Z</time>
      </trkpt>
      <trkpt lat="42.91017" lon="17.97514">
        <ele>357.589609</ele>
        <time>2022-06-11T09:09:46.030Z</time>
      </trkpt>
      <trkpt lat="42.91025" lon="17.97506">
        <ele>357.870114</ele>
        <time>2022-06-11T09:09:49.018Z</time>
      </trkpt>
      <trkpt lat="42.91032" lon="17.97498">
        <ele>358.104714</ele>
        <time>2022-06-11T09:09:52.016Z</time>
      </trkpt>
      <trkpt lat="42.91039" lon="17.97489">
        <ele>358.327436</ele>
        <time>2022-06-11T09:09:55.017Z</time>
      </trkpt>
      <trkpt lat="42.91047" lon="17.97481">
        <ele>358.554286</ele>
        <time>2022-06-11T09:09:58.014Z</time>
      </trkpt>
      <trkpt lat="42.91054" lon="17.97473">
        <ele>358.772949</ele>
        <time>2022-06-11T09:10:01.050Z</time>
      </trkpt>
      <trkpt lat="42.91063" lon="17.97462">
        <ele>359.054396</ele>
        <time>2022-06-11T09:10:05.017Z</time>
      </trkpt>
      <trkpt lat="42.91071" lon="17.97454">
        <ele>359.283382</ele>
        <time>2022-06-11T09:10:08.016Z</time>
      </trkpt>
      <trkpt lat="42.91078" lon="17.97445">
        <ele>359.506103</ele>
        <time>2022-06-11T09:10:11.019Z</time>
      </trkpt>
      <trkpt lat="42.91085" lon="17.97436">
        <ele>359.731159</ele>
        <time>2022-06-11T09:10:14.012Z</time>
      </trkpt>
      <trkpt lat="42.91091" lon="17.97427">
        <ele>359.947753</ele>
        <time>2022-06-11T09:10:17.044Z</time>
      </trkpt>
      <trkpt lat="42.91099" lon="17.97415">
        <ele>360.23537</ele>
        <time>2022-06-11T09:10:21.011Z</time>
      </trkpt>
      <trkpt lat="42.91106" lon="17.97405">
        <ele>360.466828</ele>
        <time>2022-06-11T09:10:24.044Z</time>
      </trkpt>
      <trkpt lat="42.91112" lon="17.97396">
        <ele>360.687525</ele>
        <time>2022-06-11T09:10:27.023Z</time>
      </trkpt>
      <trkpt lat="42.91119" lon="17.97386">
        <ele>360.912327</ele>
        <time>2022-06-11T09:10:30.023Z</time>
      </trkpt>
      <trkpt lat="42.91126" lon="17.97378">
        <ele>361.13855</ele>
        <time>2022-06-11T09:10:33.011Z</time>
      </trkpt>
      <trkpt lat="42.91134" lon="17.97369">
        <ele>361.375207</ele>
        <time>2022-06-11T09:10:36.018Z</time>
      </trkpt>
      <trkpt lat="42.91143" lon="17.9736">
        <ele>361.625158</ele>
        <time>2022-06-11T09:10:39.008Z</time>
      </trkpt>
      <trkpt lat="42.91152" lon="17.97352">
        <ele>361.881697</ele>
        <time>2022-06-11T09:10:42.022Z</time>
      </trkpt>
      <trkpt lat="42.91161" lon="17.97344">
        <ele>362.144542</ele>
        <time>2022-06-11T09:10:45.020Z</time>
      </trkpt>
      <trkpt lat="42.91171" lon="17.97337">
        <ele>361.81048</ele>
        <time>2022-06-11T09:10:48.023Z</time>
      </trkpt>
      <trkpt lat="42.91181" lon="17.9733">
        <ele>361.43817</ele>
        <time>2022-06-11T09:10:51.023Z</time>
      </trkpt>
      <trkpt lat="42.91191" lon="17.97324">
        <ele>361.07511</ele>
        <time>2022-06-11T09:10:54.028Z</time>
      </trkpt>
      <trkpt lat="42.91202" lon="17.97317">
        <ele>360.699051</ele>
        <time>2022-06-11T09:10:57.015Z</time>
      </trkpt>
      <trkpt lat="42.91212" lon="17.97311">
        <ele>360.329926</ele>
        <time>2022-06-11T09:11:00.017Z</time>
      </trkpt>
      <trkpt lat="42.91222" lon="17.97305">
        <ele>359.956957</ele>
        <time>2022-06-11T09:11:03.054Z</time>
      </trkpt>
      <trkpt lat="42.91233" lon="17.973">
        <ele>359.569095</ele>
        <time>2022-06-11T09:11:06.005Z</time>
      </trkpt>
      <trkpt lat="42.91244" lon="17.97294">
        <ele>359.183743</ele>
        <time>2022-06-11T09:11:09.029Z</time>
      </trkpt>
      <trkpt lat="42.91254" lon="17.97289">
        <ele>358.837497</ele>
        <time>2022-06-11T09:11:12.055Z</time>
      </trkpt>
      <trkpt lat="42.91264" lon="17.97284">
        <ele>358.477928</ele>
        <time>2022-06-11T09:11:15.060Z</time>
      </trkpt>
      <trkpt lat="42.91275" lon="17.97281">
        <ele>358.108604</ele>
        <time>2022-06-11T09:11:18.046Z</time>
      </trkpt>
      <trkpt lat="42.91287" lon="17.9728">
        <ele>357.711953</ele>
        <time>2022-06-11T09:11:21.026Z</time>
      </trkpt>
      <trkpt lat="42.91299" lon="17.9728">
        <ele>357.326184</ele>
        <time>2022-06-11T09:11:24.032Z</time>
      </trkpt>
      <trkpt lat="42.9131" lon="17.97282">
        <ele>356.958228</ele>
        <time>2022-06-11T09:11:27.039Z</time>
      </trkpt>
      <trkpt lat="42.91322" lon="17.97284">
        <ele>356.568549</ele>
        <time>2022-06-11T09:11:30.030Z</time>
      </trkpt>
      <trkpt lat="42.91333" lon="17.97287">
        <ele>356.240376</ele>
        <time>2022-06-11T09:11:33.015Z</time>
      </trkpt>
      <trkpt lat="42.91345" lon="17.97289">
        <ele>356.304234</ele>
        <time>2022-06-11T09:11:36.013Z</time>
      </trkpt>
      <trkpt lat="42.91356" lon="17.97291">
        <ele>356.36672</ele>
        <time>2022-06-11T09:11:39.015Z</time>
      </trkpt>
      <trkpt lat="42.91368" lon="17.97293">
        <ele>356.430198</ele>
        <time>2022-06-11T09:11:42.030Z</time>
      </trkpt>
      <trkpt lat="42.9138" lon="17.97293">
        <ele>356.495475</ele>
        <time>2022-06-11T09:11:45.020Z</time>
      </trkpt>
      <trkpt lat="42.91391" lon="17.97293">
        <ele>356.560753</ele>
        <time>2022-06-11T09:11:48.032Z</time>
      </trkpt>
      <trkpt lat="42.91403" lon="17.97292">
        <ele>356.625507</ele>
        <time>2022-06-11T09:11:51.030Z</time>
      </trkpt>
      <trkpt lat="42.91414" lon="17.97292">
        <ele>356.685286</ele>
        <time>2022-06-11T09:11:54.057Z</time>
      </trkpt>
      <trkpt lat="42.91425" lon="17.97292">
        <ele>356.746753</ele>
        <time>2022-06-11T09:11:57.021Z</time>
      </trkpt>
      <trkpt lat="42.91437" lon="17.97291">
        <ele>356.808878</ele>
        <time>2022-06-11T09:12:00.053Z</time>
      </trkpt>
      <trkpt lat="42.91448" lon="17.9729">
        <ele>356.869856</ele>
        <time>2022-06-11T09:12:03.025Z</time>
      </trkpt>
      <trkpt lat="42.91459" lon="17.97289">
        <ele>356.931406</ele>
        <time>2022-06-11T09:12:06.079Z</time>
      </trkpt>
      <trkpt lat="42.9147" lon="17.97288">
        <ele>356.991762</ele>
        <time>2022-06-11T09:12:09.023Z</time>
      </trkpt>
      <trkpt lat="42.91481" lon="17.97287">
        <ele>357.054908</ele>
        <time>2022-06-11T09:12:12.021Z</time>
      </trkpt>
      <trkpt lat="42.91492" lon="17.97285">
        <ele>357.114789</ele>
        <time>2022-06-11T09:12:15.026Z</time>
      </trkpt>
      <trkpt lat="42.91502" lon="17.97281">
        <ele>357.171711</ele>
        <time>2022-06-11T09:12:18.012Z</time>
      </trkpt>
      <trkpt lat="42.91512" lon="17.97276">
        <ele>357.236777</ele>
        <time>2022-06-11T09:12:21.024Z</time>
      </trkpt>
      <trkpt lat="42.91521" lon="17.97269">
        <ele>357.353287</ele>
        <time>2022-06-11T09:12:24.016Z</time>
      </trkpt>
      <trkpt lat="42.9153" lon="17.97262">
        <ele>357.469296</ele>
        <time>2022-06-11T09:12:27.029Z</time>
      </trkpt>
      <trkpt lat="42.91538" lon="17.97254">
        <ele>357.580744</ele>
        <time>2022-06-11T09:12:30.012Z</time>
      </trkpt>
      <trkpt lat="42.91546" lon="17.97245">
        <ele>357.697201</ele>
        <time>2022-06-11T09:12:33.028Z</time>
      </trkpt>
      <trkpt lat="42.91554" lon="17.97236">
        <ele>357.812178</ele>
        <time>2022-06-11T09:12:36.008Z</time>
      </trkpt>
      <trkpt lat="42.91561" lon="17.97225">
        <ele>357.92707</ele>
        <time>2022-06-11T09:12:39.074Z</time>
      </trkpt>
      <trkpt lat="42.91568" lon="17.97215">
        <ele>358.03959</ele>
        <time>2022-06-11T09:12:42.015Z</time>
      </trkpt>
      <trkpt lat="42.91575" lon="17.97204">
        <ele>358.156801</ele>
        <time>2022-06-11T09:12:45.039Z</time>
      </trkpt>
      <trkpt lat="42.91582" lon="17.97194">
        <ele>358.273435</ele>
        <time>2022-06-11T09:12:48.021Z</time>
      </trkpt>
      <trkpt lat="42.9159" lon="17.97184">
        <ele>358.389492</ele>
        <time>2022-06-11T09:12:51.021Z</time>
      </trkpt>
      <trkpt lat="42.91598" lon="17.97175">
        <ele>358.506553</ele>
        <time>2022-06-11T09:12:54.021Z</time>
      </trkpt>
      <trkpt lat="42.91608" lon="17.97167">
        <ele>358.630282</ele>
        <time>2022-06-11T09:12:57.021Z</time>
      </trkpt>
      <trkpt lat="42.91617" lon="17.9716">
        <ele>358.755084</ele>
        <time>2022-06-11T09:13:00.021Z</time>
      </trkpt>
      <trkpt lat="42.91627" lon="17.97154">
        <ele>358.875283</ele>
        <time>2022-06-11T09:13:03.012Z</time>
      </trkpt>
      <trkpt lat="42.91637" lon="17.9715">
        <ele>358.986856</ele>
        <time>2022-06-11T09:13:06.010Z</time>
      </trkpt>
      <trkpt lat="42.91647" lon="17.97147">
        <ele>359.098625</ele>
        <time>2022-06-11T09:13:09.032Z</time>
      </trkpt>
      <trkpt lat="42.91657" lon="17.97142">
        <ele>359.209534</ele>
        <time>2022-06-11T09:13:12.025Z</time>
      </trkpt>
      <trkpt lat="42.91668" lon="17.97138">
        <ele>359.137754</ele>
        <time>2022-06-11T09:13:15.021Z</time>
      </trkpt>
      <trkpt lat="42.91678" lon="17.97135">
        <ele>359.071841</ele>
        <time>2022-06-11T09:13:18.026Z</time>
      </trkpt>
      <trkpt lat="42.91688" lon="17.97131">
        <ele>359.004675</ele>
        <time>2022-06-11T09:13:21.025Z</time>
      </trkpt>
      <trkpt lat="42.91698" lon="17.97128">
        <ele>358.937394</ele>
        <time>2022-06-11T09:13:24.057Z</time>
      </trkpt>
      <trkpt lat="42.91708" lon="17.97125">
        <ele>358.872334</ele>
        <time>2022-06-11T09:13:27.011Z</time>
      </trkpt>
      <trkpt lat="42.91718" lon="17.97121">
        <ele>358.803914</ele>
        <time>2022-06-11T09:13:30.012Z</time>
      </trkpt>
      <trkpt lat="42.91729" lon="17.97117">
        <ele>358.7334</ele>
        <time>2022-06-11T09:13:33.014Z</time>
      </trkpt>
      <trkpt lat="42.91739" lon="17.97113">
        <ele>358.662517</ele>
        <time>2022-06-11T09:13:36.014Z</time>
      </trkpt>
      <trkpt lat="42.9175" lon="17.97109">
        <ele>358.593004</ele>
        <time>2022-06-11T09:13:39.013Z</time>
      </trkpt>
      <trkpt lat="42.9176" lon="17.97107">
        <ele>358.526967</ele>
        <time>2022-06-11T09:13:42.023Z</time>
      </trkpt>
      <trkpt lat="42.9177" lon="17.97104">
        <ele>358.458546</ele>
        <time>2022-06-11T09:13:45.049Z</time>
      </trkpt>
      <trkpt lat="42.91781" lon="17.97102">
        <ele>358.391372</ele>
        <time>2022-06-11T09:13:48.023Z</time>
      </trkpt>
      <trkpt lat="42.91791" lon="17.971">
        <ele>358.321063</ele>
        <time>2022-06-11T09:13:51.014Z</time>
      </trkpt>
      <trkpt lat="42.91802" lon="17.97099">
        <ele>358.255121</ele>
        <time>2022-06-11T09:13:54.022Z</time>
      </trkpt>
      <trkpt lat="42.91812" lon="17.97097">
        <ele>358.189644</ele>
        <time>2022-06-11T09:13:57.024Z</time>
      </trkpt>
      <trkpt lat="42.91822" lon="17.97095">
        <ele>358.121541</ele>
        <time>2022-06-11T09:14:00.021Z</time>
      </trkpt>
      <trkpt lat="42.91832" lon="17.97091">
        <ele>358.054375</ele>
        <time>2022-06-11T09:14:03.048Z</time>
      </trkpt>
      <trkpt lat="42.91842" lon="17.97086">
        <ele>358.087506</ele>
        <time>2022-06-11T09:14:06.003Z</time>
      </trkpt>
      <trkpt lat="42.91852" lon="17.9708">
        <ele>358.124395</ele>
        <time>2022-06-11T09:14:09.060Z</time>
      </trkpt>
      <trkpt lat="42.91862" lon="17.97074">
        <ele>358.160376</ele>
        <time>2022-06-11T09:14:12.063Z</time>
      </trkpt>
      <trkpt lat="42.91872" lon="17.97066">
        <ele>358.197458</ele>
        <time>2022-06-11T09:14:15.006Z</time>
      </trkpt>
      <trkpt lat="42.91882" lon="17.97059">
        <ele>358.233444</ele>
        <time>2022-06-11T09:14:18.012Z</time>
      </trkpt>
      <trkpt lat="42.91891" lon="17.97051">
        <ele>358.269523</ele>
        <time>2022-06-11T09:14:21.022Z</time>
      </trkpt>
      <trkpt lat="42.919" lon="17.97042">
        <ele>358.305987</ele>
        <time>2022-06-11T09:14:24.015Z</time>
      </trkpt>
      <trkpt lat="42.91909" lon="17.97033">
        <ele>358.344085</ele>
        <time>2022-06-11T09:14:27.015Z</time>
      </trkpt>
      <trkpt lat="42.91919" lon="17.97023">
        <ele>358.3822</ele>
        <time>2022-06-11T09:14:30.014Z</time>
      </trkpt>
      <trkpt lat="42.91927" lon="17.97014">
        <ele>358.41813</ele>
        <time>2022-06-11T09:14:33.031Z</time>
      </trkpt>
      <trkpt lat="42.91936" lon="17.97005">
        <ele>358.456458</ele>
        <time>2022-06-11T09:14:36.010Z</time>
      </trkpt>
      <trkpt lat="42.91945" lon="17.96994">
        <ele>358.494388</ele>
        <time>2022-06-11T09:14:39.022Z</time>
      </trkpt>
      <trkpt lat="42.91954" lon="17.96984">
        <ele>358.532819</ele>
        <time>2022-06-11T09:14:42.021Z</time>
      </trkpt>
      <trkpt lat="42.91963" lon="17.96974">
        <ele>358.57075</ele>
        <time>2022-06-11T09:14:45.060Z</time>
      </trkpt>
      <trkpt lat="42.91971" lon="17.96964">
        <ele>358.607648</ele>
        <time>2022-06-11T09:14:48.054Z</time>
      </trkpt>
      <trkpt lat="42.91979" lon="17.96953">
        <ele>358.644437</ele>
        <time>2022-06-11T09:14:51.024Z</time>
      </trkpt>
      <trkpt lat="42.91986" lon="17.9694">
        <ele>358.47647</ele>
        <time>2022-06-11T09:14:54.018Z</time>
      </trkpt>
      <trkpt lat="42.91992" lon="17.96928">
        <ele>358.309801</ele>
        <time>2022-06-11T09:14:57.019Z</time>
      </trkpt>
      <trkpt lat="42.91997" lon="17.96914">
        <ele>358.141501</ele>
        <time>2022-06-11T09:15:00.019Z</time>
      </trkpt>
      <trkpt lat="42.92003" lon="17.969">
        <ele>357.964881</ele>
        <time>2022-06-11T09:15:03.011Z</time>
      </trkpt>
      <trkpt lat="42.92007" lon="17.96886">
        <ele>357.78753</ele>
        <time>2022-06-11T09:15:06.000Z</time>
      </trkpt>
      <trkpt lat="42.92012" lon="17.96871">
        <ele>357.607915</ele>
        <time>2022-06-11T09:15:09.020Z</time>
      </trkpt>
      <trkpt lat="42.92018" lon="17.96856">
        <ele>357.426005</ele>
        <time>2022-06-11T09:15:12.019Z</time>
      </trkpt>
      <trkpt lat="42.92022" lon="17.96842">
        <ele>357.2547</ele>
        <time>2022-06-11T09:15:15.027Z</time>
      </trkpt>
      <trkpt lat="42.92028" lon="17.96829">
        <ele>357.086644</ele>
        <time>2022-06-11T09:15:18.026Z</time>
      </trkpt>
      <trkpt lat="42.92033" lon="17.96815">
        <ele>356.919567</ele>
        <time>2022-06-11T09:15:21.028Z</time>
      </trkpt>
      <trkpt lat="42.92039" lon="17.96803">
        <ele>356.74866</ele>
        <time>2022-06-11T09:15:24.020Z</time>
      </trkpt>
      <trkpt lat="42.92045" lon="17.9679">
        <ele>356.580437</ele>
        <time>2022-06-11T09:15:27.010Z</time>
      </trkpt>
      <trkpt lat="42.92052" lon="17.96777">
        <ele>356.409641</ele>
        <time>2022-06-11T09:15:30.030Z</time>
      </trkpt>
      <trkpt lat="42.92058" lon="17.96765">
        <ele>356.243335</ele>
        <time>2022-06-11T09:15:33.013Z</time>
      </trkpt>
      <trkpt lat="42.92066" lon="17.96753">
        <ele>356.057538</ele>
        <time>2022-06-11T09:15:36.022Z</time>
      </trkpt>
      <trkpt lat="42.92074" lon="17.96741">
        <ele>355.874709</ele>
        <time>2022-06-11T09:15:39.015Z</time>
      </trkpt>
      <trkpt lat="42.92082" lon="17.96729">
        <ele>355.697485</ele>
        <time>2022-06-11T09:15:42.013Z</time>
      </trkpt>
      <trkpt lat="42.9209" lon="17.96718">
        <ele>355.519807</ele>
        <time>2022-06-11T09:15:45.028Z</time>
      </trkpt>
      <trkpt lat="42.92097" lon="17.96708">
        <ele>355.357423</ele>
        <time>2022-06-11T09:15:48.025Z</time>
      </trkpt>
      <trkpt lat="42.92104" lon="17.96697">
        <ele>355.187398</ele>
        <time>2022-06-11T09:15:51.040Z</time>
      </trkpt>
      <trkpt lat="42.92112" lon="17.96687">
        <ele>355.017515</ele>
        <time>2022-06-11T09:15:54.022Z</time>
      </trkpt>
      <trkpt lat="42.92121" lon="17.96676">
        <ele>354.838357</ele>
        <time>2022-06-11T09:15:57.026Z</time>
      </trkpt>
      <trkpt lat="42.92129" lon="17.96667">
        <ele>354.660101</ele>
        <time>2022-06-11T09:16:00.029Z</time>
      </trkpt>
      <trkpt lat="42.92138" lon="17.96657">
        <ele>354.485001</ele>
        <time>2022-06-11T09:16:03.011Z</time>
      </trkpt>
      <trkpt lat="42.92147" lon="17.96647">
        <ele>354.30819</ele>
        <time>2022-06-11T09:16:06.020Z</time>
      </trkpt>
      <trkpt lat="42.92156" lon="17.96638">
        <ele>354.125293</ele>
        <time>2022-06-11T09:16:09.014Z</time>
      </trkpt>
      <trkpt lat="42.92166" lon="17.96629">
        <ele>353.942468</ele>
        <time>2022-06-11T09:16:12.027Z</time>
      </trkpt>
      <trkpt lat="42.92175" lon="17.9662">
        <ele>353.768096</ele>
        <time>2022-06-11T09:16:15.046Z</time>
      </trkpt>
      <trkpt lat="42.92184" lon="17.96611">
        <ele>353.587581</ele>
        <time>2022-06-11T09:16:18.032Z</time>
      </trkpt>
      <trkpt lat="42.92193" lon="17.966">
        <ele>353.404538</ele>
        <time>2022-06-11T09:16:21.032Z</time>
      </trkpt>
      <trkpt lat="42.922" lon="17.96588">
        <ele>353.22837</ele>
        <time>2022-06-11T09:16:24.027Z</time>
      </trkpt>
      <trkpt lat="42.92207" lon="17.96576">
        <ele>353.063197</ele>
        <time>2022-06-11T09:16:27.029Z</time>
      </trkpt>
      <trkpt lat="42.92214" lon="17.96564">
        <ele>352.932345</ele>
        <time>2022-06-11T09:16:30.027Z</time>
      </trkpt>
      <trkpt lat="42.9222" lon="17.96551">
        <ele>352.806256</ele>
        <time>2022-06-11T09:16:33.051Z</time>
      </trkpt>
      <trkpt lat="42.92225" lon="17.96537">
        <ele>352.681071</ele>
        <time>2022-06-11T09:16:36.063Z</time>
      </trkpt>
      <trkpt lat="42.92229" lon="17.96524">
        <ele>352.562524</ele>
        <time>2022-06-11T09:16:39.029Z</time>
      </trkpt>
      <trkpt lat="42.92231" lon="17.9651">
        <ele>352.44483</ele>
        <time>2022-06-11T09:16:42.023Z</time>
      </trkpt>
      <trkpt lat="42.92233" lon="17.96495">
        <ele>352.316781</ele>
        <time>2022-06-11T09:16:45.028Z</time>
      </trkpt>
      <trkpt lat="42.92234" lon="17.96479">
        <ele>352.183695</ele>
        <time>2022-06-11T09:16:48.023Z</time>
      </trkpt>
      <trkpt lat="42.92235" lon="17.96463">
        <ele>352.053295</ele>
        <time>2022-06-11T09:16:51.012Z</time>
      </trkpt>
      <trkpt lat="42.92237" lon="17.96447">
        <ele>351.919386</ele>
        <time>2022-06-11T09:16:54.023Z</time>
      </trkpt>
      <trkpt lat="42.92237" lon="17.96431">
        <ele>351.788605</ele>
        <time>2022-06-11T09:16:57.016Z</time>
      </trkpt>
      <trkpt lat="42.92238" lon="17.96415">
        <ele>351.657555</ele>
        <time>2022-06-11T09:17:00.021Z</time>
      </trkpt>
      <trkpt lat="42.92239" lon="17.964">
        <ele>351.528803</ele>
        <time>2022-06-11T09:17:03.017Z</time>
      </trkpt>
      <trkpt lat="42.9224" lon="17.96384">
        <ele>351.399935</ele>
        <time>2022-06-11T09:17:06.004Z</time>
      </trkpt>
      <trkpt lat="42.92243" lon="17.96369">
        <ele>351.273126</ele>
        <time>2022-06-11T09:17:09.026Z</time>
      </trkpt>
      <trkpt lat="42.92246" lon="17.96353">
        <ele>351.136206</ele>
        <time>2022-06-11T09:17:12.028Z</time>
      </trkpt>
      <trkpt lat="42.92251" lon="17.96337">
        <ele>351.041055</ele>
        <time>2022-06-11T09:17:15.020Z</time>
      </trkpt>
      <trkpt lat="42.92256" lon="17.96322">
        <ele>350.993018</ele>
        <time>2022-06-11T09:17:18.031Z</time>
      </trkpt>
      <trkpt lat="42.92262" lon="17.96308">
        <ele>350.944666</ele>
        <time>2022-06-11T09:17:21.013Z</time>
      </trkpt>
      <trkpt lat="42.92269" lon="17.96295">
        <ele>350.898303</ele>
        <time>2022-06-11T09:17:24.011Z</time>
      </trkpt>
      <trkpt lat="42.92275" lon="17.96281">
        <ele>350.848575</ele>
        <time>2022-06-11T09:17:27.010Z</time>
      </trkpt>
      <trkpt lat="42.92282" lon="17.96265">
        <ele>350.7978</ele>
        <time>2022-06-11T09:17:30.009Z</time>
      </trkpt>
      <trkpt lat="42.92287" lon="17.96249">
        <ele>350.746715</ele>
        <time>2022-06-11T09:17:33.056Z</time>
      </trkpt>
      <trkpt lat="42.9229" lon="17.96232">
        <ele>350.695631</ele>
        <time>2022-06-11T09:17:36.011Z</time>
      </trkpt>
      <trkpt lat="42.92294" lon="17.96216">
        <ele>350.64511</ele>
        <time>2022-06-11T09:17:39.029Z</time>
      </trkpt>
      <trkpt lat="42.92296" lon="17.96204">
        <ele>350.609355</ele>
        <time>2022-06-11T09:17:41.025Z</time>
      </trkpt>
      <trkpt lat="42.92299" lon="17.96192">
        <ele>350.572817</ele>
        <time>2022-06-11T09:17:43.048Z</time>
      </trkpt>
      <trkpt lat="42.92303" lon="17.96175">
        <ele>350.519939</ele>
        <time>2022-06-11T09:17:46.035Z</time>
      </trkpt>
      <trkpt lat="42.92306" lon="17.96157">
        <ele>350.466783</ele>
        <time>2022-06-11T09:17:49.024Z</time>
      </trkpt>
      <trkpt lat="42.92309" lon="17.96141">
        <ele>350.419107</ele>
        <time>2022-06-11T09:17:52.052Z</time>
      </trkpt>
      <trkpt lat="42.92314" lon="17.96125">
        <ele>350.369131</ele>
        <time>2022-06-11T09:17:55.012Z</time>
      </trkpt>
      <trkpt lat="42.92319" lon="17.96109">
        <ele>350.530453</ele>
        <time>2022-06-11T09:17:58.017Z</time>
      </trkpt>
      <trkpt lat="42.92322" lon="17.96098">
        <ele>350.717875</ele>
        <time>2022-06-11T09:18:00.014Z</time>
      </trkpt>
      <trkpt lat="42.92327" lon="17.96086">
        <ele>350.908874</ele>
        <time>2022-06-11T09:18:02.020Z</time>
      </trkpt>
      <trkpt lat="42.92331" lon="17.96075">
        <ele>351.103977</ele>
        <time>2022-06-11T09:18:04.019Z</time>
      </trkpt>
      <trkpt lat="42.92336" lon="17.96058">
        <ele>351.383643</ele>
        <time>2022-06-11T09:18:07.047Z</time>
      </trkpt>
      <trkpt lat="42.92342" lon="17.96042">
        <ele>351.661449</ele>
        <time>2022-06-11T09:18:10.026Z</time>
      </trkpt>
      <trkpt lat="42.92346" lon="17.96031">
        <ele>351.852898</ele>
        <time>2022-06-11T09:18:12.021Z</time>
      </trkpt>
      <trkpt lat="42.9235" lon="17.96019">
        <ele>352.046196</ele>
        <time>2022-06-11T09:18:14.030Z</time>
      </trkpt>
      <trkpt lat="42.92355" lon="17.96009">
        <ele>352.237405</ele>
        <time>2022-06-11T09:18:16.007Z</time>
      </trkpt>
      <trkpt lat="42.92361" lon="17.95998">
        <ele>352.433088</ele>
        <time>2022-06-11T09:18:18.049Z</time>
      </trkpt>
      <trkpt lat="42.92367" lon="17.95988">
        <ele>352.631282</ele>
        <time>2022-06-11T09:18:20.034Z</time>
      </trkpt>
      <trkpt lat="42.92372" lon="17.95978">
        <ele>352.829554</ele>
        <time>2022-06-11T09:18:22.009Z</time>
      </trkpt>
      <trkpt lat="42.9238" lon="17.95963">
        <ele>353.105265</ele>
        <time>2022-06-11T09:18:25.028Z</time>
      </trkpt>
      <trkpt lat="42.92388" lon="17.95949">
        <ele>353.379707</ele>
        <time>2022-06-11T09:18:28.014Z</time>
      </trkpt>
      <trkpt lat="42.92396" lon="17.95934">
        <ele>353.651742</ele>
        <time>2022-06-11T09:18:31.016Z</time>
      </trkpt>
      <trkpt lat="42.92404" lon="17.9592">
        <ele>353.92989</ele>
        <time>2022-06-11T09:18:34.016Z</time>
      </trkpt>
      <trkpt lat="42.9241" lon="17.9591">
        <ele>354.092833</ele>
        <time>2022-06-11T09:18:36.006Z</time>
      </trkpt>
      <trkpt lat="42.92418" lon="17.95896">
        <ele>354.032892</ele>
        <time>2022-06-11T09:18:39.016Z</time>
      </trkpt>
      <trkpt lat="42.92427" lon="17.95883">
        <ele>353.973387</ele>
        <time>2022-06-11T09:18:42.039Z</time>
      </trkpt>
      <trkpt lat="42.92436" lon="17.9587">
        <ele>353.917217</ele>
        <time>2022-06-11T09:18:45.019Z</time>
      </trkpt>
      <trkpt lat="42.92444" lon="17.95857">
        <ele>353.858439</ele>
        <time>2022-06-11T09:18:48.030Z</time>
      </trkpt>
      <trkpt lat="42.92454" lon="17.95844">
        <ele>353.7988</ele>
        <time>2022-06-11T09:18:51.023Z</time>
      </trkpt>
      <trkpt lat="42.92462" lon="17.95831">
        <ele>353.741157</ele>
        <time>2022-06-11T09:18:54.033Z</time>
      </trkpt>
      <trkpt lat="42.92468" lon="17.95821">
        <ele>353.699042</ele>
        <time>2022-06-11T09:18:56.015Z</time>
      </trkpt>
      <trkpt lat="42.92473" lon="17.95811">
        <ele>353.656937</ele>
        <time>2022-06-11T09:18:58.027Z</time>
      </trkpt>
      <trkpt lat="42.92478" lon="17.958">
        <ele>353.614929</ele>
        <time>2022-06-11T09:19:00.023Z</time>
      </trkpt>
      <trkpt lat="42.92482" lon="17.95789">
        <ele>353.574111</ele>
        <time>2022-06-11T09:19:02.020Z</time>
      </trkpt>
      <trkpt lat="42.92487" lon="17.95778">
        <ele>353.532164</ele>
        <time>2022-06-11T09:19:04.054Z</time>
      </trkpt>
      <trkpt lat="42.9249" lon="17.95766">
        <ele>353.489707</ele>
        <time>2022-06-11T09:19:06.023Z</time>
      </trkpt>
      <trkpt lat="42.92494" lon="17.95755">
        <ele>353.449528</ele>
        <time>2022-06-11T09:19:08.012Z</time>
      </trkpt>
      <trkpt lat="42.92498" lon="17.95738">
        <ele>353.390273</ele>
        <time>2022-06-11T09:19:11.027Z</time>
      </trkpt>
      <trkpt lat="42.92502" lon="17.95721">
        <ele>353.331643</ele>
        <time>2022-06-11T09:19:14.057Z</time>
      </trkpt>
      <trkpt lat="42.92506" lon="17.95705">
        <ele>353.203213</ele>
        <time>2022-06-11T09:19:17.031Z</time>
      </trkpt>
      <trkpt lat="42.9251" lon="17.95688">
        <ele>352.816531</ele>
        <time>2022-06-11T09:19:20.019Z</time>
      </trkpt>
      <trkpt lat="42.92515" lon="17.95673">
        <ele>352.43845</ele>
        <time>2022-06-11T09:19:23.023Z</time>
      </trkpt>
      <trkpt lat="42.92519" lon="17.95659">
        <ele>352.084761</ele>
        <time>2022-06-11T09:19:26.028Z</time>
      </trkpt>
      <trkpt lat="42.92523" lon="17.95646">
        <ele>351.759911</ele>
        <time>2022-06-11T09:19:29.017Z</time>
      </trkpt>
      <trkpt lat="42.92528" lon="17.95632">
        <ele>351.417712</ele>
        <time>2022-06-11T09:19:32.020Z</time>
      </trkpt>
      <trkpt lat="42.92534" lon="17.95619">
        <ele>351.068284</ele>
        <time>2022-06-11T09:19:35.023Z</time>
      </trkpt>
      <trkpt lat="42.9254" lon="17.95606">
        <ele>350.717597</ele>
        <time>2022-06-11T09:19:38.028Z</time>
      </trkpt>
      <trkpt lat="42.92545" lon="17.95593">
        <ele>350.390207</ele>
        <time>2022-06-11T09:19:41.028Z</time>
      </trkpt>
      <trkpt lat="42.9255" lon="17.9558">
        <ele>350.051415</ele>
        <time>2022-06-11T09:19:44.011Z</time>
      </trkpt>
      <trkpt lat="42.92555" lon="17.95567">
        <ele>349.70356</ele>
        <time>2022-06-11T09:19:47.017Z</time>
      </trkpt>
      <trkpt lat="42.92561" lon="17.95553">
        <ele>349.345302</ele>
        <time>2022-06-11T09:19:50.025Z</time>
      </trkpt>
      <trkpt lat="42.92566" lon="17.95538">
        <ele>348.974125</ele>
        <time>2022-06-11T09:19:53.027Z</time>
      </trkpt>
      <trkpt lat="42.92571" lon="17.95522">
        <ele>348.577458</ele>
        <time>2022-06-11T09:19:56.018Z</time>
      </trkpt>
      <trkpt lat="42.92575" lon="17.95506">
        <ele>348.182003</ele>
        <time>2022-06-11T09:19:59.075Z</time>
      </trkpt>
      <trkpt lat="42.92581" lon="17.95491">
        <ele>347.790609</ele>
        <time>2022-06-11T09:20:02.010Z</time>
      </trkpt>
      <trkpt lat="42.92586" lon="17.95476">
        <ele>347.743753</ele>
        <time>2022-06-11T09:20:05.008Z</time>
      </trkpt>
      <trkpt lat="42.92591" lon="17.9546">
        <ele>347.823457</ele>
        <time>2022-06-11T09:20:08.029Z</time>
      </trkpt>
      <trkpt lat="42.92596" lon="17.95443">
        <ele>347.911053</ele>
        <time>2022-06-11T09:20:11.026Z</time>
      </trkpt>
      <trkpt lat="42.92602" lon="17.95427">
        <ele>347.997173</ele>
        <time>2022-06-11T09:20:14.030Z</time>
      </trkpt>
      <trkpt lat="42.92607" lon="17.95412">
        <ele>348.07557</ele>
        <time>2022-06-11T09:20:17.016Z</time>
      </trkpt>
      <trkpt lat="42.92613" lon="17.95398">
        <ele>348.152263</ele>
        <time>2022-06-11T09:20:20.049Z</time>
      </trkpt>
      <trkpt lat="42.92619" lon="17.95386">
        <ele>348.226753</ele>
        <time>2022-06-11T09:20:23.024Z</time>
      </trkpt>
      <trkpt lat="42.92627" lon="17.95373">
        <ele>348.303733</ele>
        <time>2022-06-11T09:20:26.020Z</time>
      </trkpt>
      <trkpt lat="42.92634" lon="17.9536">
        <ele>348.384407</ele>
        <time>2022-06-11T09:20:29.028Z</time>
      </trkpt>
      <trkpt lat="42.92642" lon="17.95347">
        <ele>348.463136</ele>
        <time>2022-06-11T09:20:32.030Z</time>
      </trkpt>
      <trkpt lat="42.9265" lon="17.95333">
        <ele>348.549234</ele>
        <time>2022-06-11T09:20:35.015Z</time>
      </trkpt>
      <trkpt lat="42.92655" lon="17.95323">
        <ele>348.609071</ele>
        <time>2022-06-11T09:20:37.022Z</time>
      </trkpt>
      <trkpt lat="42.92661" lon="17.95313">
        <ele>348.669686</ele>
        <time>2022-06-11T09:20:39.028Z</time>
      </trkpt>
      <trkpt lat="42.92667" lon="17.95303">
        <ele>348.729522</ele>
        <time>2022-06-11T09:20:41.014Z</time>
      </trkpt>
      <trkpt lat="42.92674" lon="17.95289">
        <ele>348.813656</ele>
        <time>2022-06-11T09:20:44.012Z</time>
      </trkpt>
      <trkpt lat="42.92679" lon="17.95278">
        <ele>348.823182</ele>
        <time>2022-06-11T09:20:46.013Z</time>
      </trkpt>
      <trkpt lat="42.92686" lon="17.95263">
        <ele>348.566012</ele>
        <time>2022-06-11T09:20:49.007Z</time>
      </trkpt>
      <trkpt lat="42.92691" lon="17.95248">
        <ele>348.325753</ele>
        <time>2022-06-11T09:20:52.008Z</time>
      </trkpt>
      <trkpt lat="42.92696" lon="17.95232">
        <ele>348.081902</ele>
        <time>2022-06-11T09:20:55.024Z</time>
      </trkpt>
      <trkpt lat="42.927" lon="17.95216">
        <ele>347.831915</ele>
        <time>2022-06-11T09:20:58.029Z</time>
      </trkpt>
      <trkpt lat="42.92704" lon="17.952">
        <ele>347.589869</ele>
        <time>2022-06-11T09:21:01.024Z</time>
      </trkpt>
      <trkpt lat="42.92708" lon="17.95183">
        <ele>347.331053</ele>
        <time>2022-06-11T09:21:04.022Z</time>
      </trkpt>
      <trkpt lat="42.92712" lon="17.95166">
        <ele>347.074968</ele>
        <time>2022-06-11T09:21:07.018Z</time>
      </trkpt>
      <trkpt lat="42.92715" lon="17.95154">
        <ele>346.891405</ele>
        <time>2022-06-11T09:21:09.029Z</time>
      </trkpt>
      <trkpt lat="42.9272" lon="17.95137">
        <ele>346.633351</ele>
        <time>2022-06-11T09:21:12.020Z</time>
      </trkpt>
      <trkpt lat="42.92724" lon="17.9512">
        <ele>346.371044</ele>
        <time>2022-06-11T09:21:15.024Z</time>
      </trkpt>
      <trkpt lat="42.92727" lon="17.95108">
        <ele>346.18883</ele>
        <time>2022-06-11T09:21:17.061Z</time>
      </trkpt>
      <trkpt lat="42.9273" lon="17.95096">
        <ele>346.009895</ele>
        <time>2022-06-11T09:21:19.021Z</time>
      </trkpt>
      <trkpt lat="42.92734" lon="17.95079">
        <ele>345.744364</ele>
        <time>2022-06-11T09:21:22.027Z</time>
      </trkpt>
      <trkpt lat="42.92736" lon="17.95067">
        <ele>345.562634</ele>
        <time>2022-06-11T09:21:24.015Z</time>
      </trkpt>
      <trkpt lat="42.92738" lon="17.95048">
        <ele>345.315096</ele>
        <time>2022-06-11T09:21:27.019Z</time>
      </trkpt>
      <trkpt lat="42.92739" lon="17.95036">
        <ele>345.292769</ele>
        <time>2022-06-11T09:21:29.023Z</time>
      </trkpt>
      <trkpt lat="42.9274" lon="17.95023">
        <ele>345.270788</ele>
        <time>2022-06-11T09:21:31.032Z</time>
      </trkpt>
      <trkpt lat="42.9274" lon="17.9501">
        <ele>345.248541</ele>
        <time>2022-06-11T09:21:33.023Z</time>
      </trkpt>
      <trkpt lat="42.92739" lon="17.94998">
        <ele>345.226811</ele>
        <time>2022-06-11T09:21:35.028Z</time>
      </trkpt>
      <trkpt lat="42.92739" lon="17.94985">
        <ele>345.204739</ele>
        <time>2022-06-11T09:21:37.030Z</time>
      </trkpt>
      <trkpt lat="42.92739" lon="17.94972">
        <ele>345.182473</ele>
        <time>2022-06-11T09:21:39.039Z</time>
      </trkpt>
      <trkpt lat="42.92739" lon="17.94959">
        <ele>345.160049</ele>
        <time>2022-06-11T09:21:41.024Z</time>
      </trkpt>
      <trkpt lat="42.92738" lon="17.94947">
        <ele>345.138046</ele>
        <time>2022-06-11T09:21:43.015Z</time>
      </trkpt>
      <trkpt lat="42.92737" lon="17.94934">
        <ele>345.115993</ele>
        <time>2022-06-11T09:21:45.023Z</time>
      </trkpt>
      <trkpt lat="42.92736" lon="17.94922">
        <ele>345.094032</ele>
        <time>2022-06-11T09:21:47.031Z</time>
      </trkpt>
      <trkpt lat="42.92735" lon="17.94909">
        <ele>345.072523</ele>
        <time>2022-06-11T09:21:49.032Z</time>
      </trkpt>
      <trkpt lat="42.92734" lon="17.94897">
        <ele>345.050815</ele>
        <time>2022-06-11T09:21:51.014Z</time>
      </trkpt>
      <trkpt lat="42.92732" lon="17.94879">
        <ele>345.018864</ele>
        <time>2022-06-11T09:21:54.018Z</time>
      </trkpt>
      <trkpt lat="42.92731" lon="17.94866">
        <ele>344.996638</ele>
        <time>2022-06-11T09:21:56.014Z</time>
      </trkpt>
      <trkpt lat="42.9273" lon="17.94853">
        <ele>344.974138</ele>
        <time>2022-06-11T09:21:58.023Z</time>
      </trkpt>
      <trkpt lat="42.9273" lon="17.9484">
        <ele>344.952208</ele>
        <time>2022-06-11T09:22:00.043Z</time>
      </trkpt>
      <trkpt lat="42.92729" lon="17.94822">
        <ele>344.920867</ele>
        <time>2022-06-11T09:22:03.016Z</time>
      </trkpt>
      <trkpt lat="42.92728" lon="17.94805">
        <ele>344.890707</ele>
        <time>2022-06-11T09:22:06.012Z</time>
      </trkpt>
      <trkpt lat="42.92728" lon="17.94788">
        <ele>345.254798</ele>
        <time>2022-06-11T09:22:09.026Z</time>
      </trkpt>
      <trkpt lat="42.9273" lon="17.94771">
        <ele>345.621684</ele>
        <time>2022-06-11T09:22:12.026Z</time>
      </trkpt>
      <trkpt lat="42.92734" lon="17.94754">
        <ele>345.998079</ele>
        <time>2022-06-11T09:22:15.016Z</time>
      </trkpt>
      <trkpt lat="42.92739" lon="17.94737">
        <ele>346.39292</ele>
        <time>2022-06-11T09:22:18.020Z</time>
      </trkpt>
      <trkpt lat="42.92743" lon="17.94726">
        <ele>346.657464</ele>
        <time>2022-06-11T09:22:20.022Z</time>
      </trkpt>
      <trkpt lat="42.92747" lon="17.94715">
        <ele>346.924698</ele>
        <time>2022-06-11T09:22:22.023Z</time>
      </trkpt>
      <trkpt lat="42.92753" lon="17.94699">
        <ele>347.314377</ele>
        <time>2022-06-11T09:22:25.018Z</time>
      </trkpt>
      <trkpt lat="42.92758" lon="17.94683">
        <ele>347.688035</ele>
        <time>2022-06-11T09:22:28.023Z</time>
      </trkpt>
      <trkpt lat="42.92762" lon="17.94667">
        <ele>348.057359</ele>
        <time>2022-06-11T09:22:31.026Z</time>
      </trkpt>
      <trkpt lat="42.92765" lon="17.9465">
        <ele>348.422431</ele>
        <time>2022-06-11T09:22:34.050Z</time>
      </trkpt>
      <trkpt lat="42.92768" lon="17.94633">
        <ele>348.800917</ele>
        <time>2022-06-11T09:22:37.021Z</time>
      </trkpt>
      <trkpt lat="42.92769" lon="17.94615">
        <ele>349.181373</ele>
        <time>2022-06-11T09:22:40.008Z</time>
      </trkpt>
      <trkpt lat="42.92769" lon="17.94598">
        <ele>349.550729</ele>
        <time>2022-06-11T09:22:43.030Z</time>
      </trkpt>
      <trkpt lat="42.92769" lon="17.94579">
        <ele>349.945331</ele>
        <time>2022-06-11T09:22:46.060Z</time>
      </trkpt>
      <trkpt lat="42.92769" lon="17.94567">
        <ele>350.059373</ele>
        <time>2022-06-11T09:22:48.014Z</time>
      </trkpt>
      <trkpt lat="42.92769" lon="17.94555">
        <ele>349.608878</ele>
        <time>2022-06-11T09:22:49.996Z</time>
      </trkpt>
      <trkpt lat="42.92769" lon="17.94536">
        <ele>348.944397</ele>
        <time>2022-06-11T09:22:53.012Z</time>
      </trkpt>
      <trkpt lat="42.92768" lon="17.94524">
        <ele>348.489192</ele>
        <time>2022-06-11T09:22:55.016Z</time>
      </trkpt>
      <trkpt lat="42.92767" lon="17.94511">
        <ele>348.030756</ele>
        <time>2022-06-11T09:22:57.056Z</time>
      </trkpt>
      <trkpt lat="42.92765" lon="17.94499">
        <ele>347.562764</ele>
        <time>2022-06-11T09:22:59.013Z</time>
      </trkpt>
      <trkpt lat="42.92762" lon="17.94486">
        <ele>347.088119</ele>
        <time>2022-06-11T09:23:01.002Z</time>
      </trkpt>
      <trkpt lat="42.92758" lon="17.94475">
        <ele>346.627936</ele>
        <time>2022-06-11T09:23:03.047Z</time>
      </trkpt>
      <trkpt lat="42.92753" lon="17.94464">
        <ele>346.143721</ele>
        <time>2022-06-11T09:23:05.023Z</time>
      </trkpt>
      <trkpt lat="42.92747" lon="17.94453">
        <ele>345.674381</ele>
        <time>2022-06-11T09:23:07.023Z</time>
      </trkpt>
      <trkpt lat="42.92742" lon="17.94442">
        <ele>345.213833</ele>
        <time>2022-06-11T09:23:09.012Z</time>
      </trkpt>
      <trkpt lat="42.92735" lon="17.94428">
        <ele>344.58384</ele>
        <time>2022-06-11T09:23:12.017Z</time>
      </trkpt>
      <trkpt lat="42.92728" lon="17.94413">
        <ele>343.933955</ele>
        <time>2022-06-11T09:23:15.036Z</time>
      </trkpt>
      <trkpt lat="42.92723" lon="17.94397">
        <ele>343.302286</ele>
        <time>2022-06-11T09:23:18.014Z</time>
      </trkpt>
      <trkpt lat="42.92719" lon="17.94381">
        <ele>342.68169</ele>
        <time>2022-06-11T09:23:21.032Z</time>
      </trkpt>
      <trkpt lat="42.92716" lon="17.94363">
        <ele>342.028063</ele>
        <time>2022-06-11T09:23:24.023Z</time>
      </trkpt>
      <trkpt lat="42.92715" lon="17.94346">
        <ele>341.380484</ele>
        <time>2022-06-11T09:23:27.026Z</time>
      </trkpt>
      <trkpt lat="42.92713" lon="17.94328">
        <ele>341.123261</ele>
        <time>2022-06-11T09:23:30.051Z</time>
      </trkpt>
      <trkpt lat="42.92711" lon="17.9431">
        <ele>340.975401</ele>
        <time>2022-06-11T09:23:33.016Z</time>
      </trkpt>
      <trkpt lat="42.92708" lon="17.94293">
        <ele>340.83547</ele>
        <time>2022-06-11T09:23:36.052Z</time>
      </trkpt>
      <trkpt lat="42.92707" lon="17.94276">
        <ele>340.696959</ele>
        <time>2022-06-11T09:23:39.011Z</time>
      </trkpt>
      <trkpt lat="42.92707" lon="17.94258">
        <ele>340.549943</ele>
        <time>2022-06-11T09:23:42.021Z</time>
      </trkpt>
      <trkpt lat="42.92708" lon="17.94246">
        <ele>340.449084</ele>
        <time>2022-06-11T09:23:44.001Z</time>
      </trkpt>
      <trkpt lat="42.92708" lon="17.94228">
        <ele>340.303439</ele>
        <time>2022-06-11T09:23:47.060Z</time>
      </trkpt>
      <trkpt lat="42.92709" lon="17.9421">
        <ele>340.161157</ele>
        <time>2022-06-11T09:23:50.028Z</time>
      </trkpt>
      <trkpt lat="42.9271" lon="17.94193">
        <ele>340.018408</ele>
        <time>2022-06-11T09:23:53.050Z</time>
      </trkpt>
      <trkpt lat="42.92711" lon="17.94175">
        <ele>339.874589</ele>
        <time>2022-06-11T09:23:56.028Z</time>
      </trkpt>
      <trkpt lat="42.92711" lon="17.94158">
        <ele>339.732113</ele>
        <time>2022-06-11T09:23:59.044Z</time>
      </trkpt>
      <trkpt lat="42.92712" lon="17.9414">
        <ele>339.587512</ele>
        <time>2022-06-11T09:24:02.029Z</time>
      </trkpt>
      <trkpt lat="42.92711" lon="17.94123">
        <ele>339.447752</ele>
        <time>2022-06-11T09:24:05.047Z</time>
      </trkpt>
      <trkpt lat="42.9271" lon="17.94105">
        <ele>339.306394</ele>
        <time>2022-06-11T09:24:08.020Z</time>
      </trkpt>
      <trkpt lat="42.92708" lon="17.94087">
        <ele>339.242187</ele>
        <time>2022-06-11T09:24:11.016Z</time>
      </trkpt>
      <trkpt lat="42.92707" lon="17.9407">
        <ele>339.245252</ele>
        <time>2022-06-11T09:24:14.019Z</time>
      </trkpt>
      <trkpt lat="42.92706" lon="17.94052">
        <ele>339.248306</ele>
        <time>2022-06-11T09:24:17.016Z</time>
      </trkpt>
      <trkpt lat="42.92704" lon="17.94034">
        <ele>339.251374</ele>
        <time>2022-06-11T09:24:20.033Z</time>
      </trkpt>
      <trkpt lat="42.92703" lon="17.94017">
        <ele>339.254347</ele>
        <time>2022-06-11T09:24:23.026Z</time>
      </trkpt>
      <trkpt lat="42.92701" lon="17.93999">
        <ele>339.257432</ele>
        <time>2022-06-11T09:24:26.031Z</time>
      </trkpt>
      <trkpt lat="42.92701" lon="17.93987">
        <ele>339.259553</ele>
        <time>2022-06-11T09:24:28.015Z</time>
      </trkpt>
      <trkpt lat="42.927" lon="17.9397">
        <ele>339.262554</ele>
        <time>2022-06-11T09:24:31.024Z</time>
      </trkpt>
      <trkpt lat="42.927" lon="17.93952">
        <ele>339.265651</ele>
        <time>2022-06-11T09:24:34.025Z</time>
      </trkpt>
      <trkpt lat="42.927" lon="17.93934">
        <ele>339.268662</ele>
        <time>2022-06-11T09:24:37.023Z</time>
      </trkpt>
      <trkpt lat="42.927" lon="17.93916">
        <ele>339.271741</ele>
        <time>2022-06-11T09:24:40.012Z</time>
      </trkpt>
      <trkpt lat="42.927" lon="17.93904">
        <ele>339.273875</ele>
        <time>2022-06-11T09:24:42.017Z</time>
      </trkpt>
      <trkpt lat="42.927" lon="17.93891">
        <ele>339.276043</ele>
        <time>2022-06-11T09:24:44.062Z</time>
      </trkpt>
      <trkpt lat="42.92699" lon="17.93879">
        <ele>339.278178</ele>
        <time>2022-06-11T09:24:46.027Z</time>
      </trkpt>
      <trkpt lat="42.92699" lon="17.93867">
        <ele>339.280295</ele>
        <time>2022-06-11T09:24:48.054Z</time>
      </trkpt>
      <trkpt lat="42.92698" lon="17.93854">
        <ele>339.282417</ele>
        <time>2022-06-11T09:24:50.030Z</time>
      </trkpt>
      <trkpt lat="42.92696" lon="17.93836">
        <ele>339.268143</ele>
        <time>2022-06-11T09:24:53.021Z</time>
      </trkpt>
      <trkpt lat="42.92695" lon="17.93824">
        <ele>339.256887</ele>
        <time>2022-06-11T09:24:55.067Z</time>
      </trkpt>
      <trkpt lat="42.92693" lon="17.93811">
        <ele>339.245682</ele>
        <time>2022-06-11T09:24:57.029Z</time>
      </trkpt>
      <trkpt lat="42.92692" lon="17.93799">
        <ele>339.234564</ele>
        <time>2022-06-11T09:24:59.028Z</time>
      </trkpt>
      <trkpt lat="42.9269" lon="17.93787">
        <ele>339.223623</ele>
        <time>2022-06-11T09:25:01.023Z</time>
      </trkpt>
      <trkpt lat="42.92687" lon="17.93769">
        <ele>339.207652</ele>
        <time>2022-06-11T09:25:04.024Z</time>
      </trkpt>
      <trkpt lat="42.92684" lon="17.93753">
        <ele>339.192175</ele>
        <time>2022-06-11T09:25:07.044Z</time>
      </trkpt>
      <trkpt lat="42.92682" lon="17.9374">
        <ele>339.181055</ele>
        <time>2022-06-11T09:25:09.020Z</time>
      </trkpt>
      <trkpt lat="42.92681" lon="17.93728">
        <ele>339.169808</ele>
        <time>2022-06-11T09:25:11.010Z</time>
      </trkpt>
      <trkpt lat="42.92679" lon="17.93716">
        <ele>339.15867</ele>
        <time>2022-06-11T09:25:13.027Z</time>
      </trkpt>
      <trkpt lat="42.92678" lon="17.93703">
        <ele>339.14756</ele>
        <time>2022-06-11T09:25:15.027Z</time>
      </trkpt>
      <trkpt lat="42.92677" lon="17.93691">
        <ele>339.136443</ele>
        <time>2022-06-11T09:25:17.043Z</time>
      </trkpt>
      <trkpt lat="42.92675" lon="17.93679">
        <ele>339.125235</ele>
        <time>2022-06-11T09:25:19.017Z</time>
      </trkpt>
      <trkpt lat="42.92673" lon="17.93666">
        <ele>339.113765</ele>
        <time>2022-06-11T09:25:21.023Z</time>
      </trkpt>
      <trkpt lat="42.92671" lon="17.93653">
        <ele>339.1021</ele>
        <time>2022-06-11T09:25:23.020Z</time>
      </trkpt>
      <trkpt lat="42.9267" lon="17.93641">
        <ele>339.090807</ele>
        <time>2022-06-11T09:25:25.030Z</time>
      </trkpt>
      <trkpt lat="42.92667" lon="17.93628">
        <ele>339.079168</ele>
        <time>2022-06-11T09:25:27.023Z</time>
      </trkpt>
      <trkpt lat="42.92664" lon="17.93616">
        <ele>339.067614</ele>
        <time>2022-06-11T09:25:29.025Z</time>
      </trkpt>
      <trkpt lat="42.92661" lon="17.93604">
        <ele>338.976125</ele>
        <time>2022-06-11T09:25:31.028Z</time>
      </trkpt>
      <trkpt lat="42.92658" lon="17.93592">
        <ele>338.84617</ele>
        <time>2022-06-11T09:25:33.010Z</time>
      </trkpt>
      <trkpt lat="42.92654" lon="17.9358">
        <ele>338.713618</ele>
        <time>2022-06-11T09:25:35.023Z</time>
      </trkpt>
      <trkpt lat="42.9265" lon="17.93569">
        <ele>338.582834</ele>
        <time>2022-06-11T09:25:37.031Z</time>
      </trkpt>
      <trkpt lat="42.92646" lon="17.93558">
        <ele>338.447036</ele>
        <time>2022-06-11T09:25:39.051Z</time>
      </trkpt>
      <trkpt lat="42.92642" lon="17.93546">
        <ele>338.310864</ele>
        <time>2022-06-11T09:25:41.032Z</time>
      </trkpt>
      <trkpt lat="42.92638" lon="17.93534">
        <ele>338.176921</ele>
        <time>2022-06-11T09:25:43.011Z</time>
      </trkpt>
      <trkpt lat="42.92635" lon="17.93522">
        <ele>338.04253</ele>
        <time>2022-06-11T09:25:45.013Z</time>
      </trkpt>
      <trkpt lat="42.92631" lon="17.9351">
        <ele>337.904057</ele>
        <time>2022-06-11T09:25:47.000Z</time>
      </trkpt>
      <trkpt lat="42.92627" lon="17.93498">
        <ele>337.767885</ele>
        <time>2022-06-11T09:25:49.016Z</time>
      </trkpt>
      <trkpt lat="42.92624" lon="17.93486">
        <ele>337.638414</ele>
        <time>2022-06-11T09:25:51.017Z</time>
      </trkpt>
      <trkpt lat="42.9262" lon="17.93475">
        <ele>337.50763</ele>
        <time>2022-06-11T09:25:53.026Z</time>
      </trkpt>
      <trkpt lat="42.92616" lon="17.93463">
        <ele>337.37371</ele>
        <time>2022-06-11T09:25:55.013Z</time>
      </trkpt>
      <trkpt lat="42.92612" lon="17.93452">
        <ele>337.240391</ele>
        <time>2022-06-11T09:25:57.025Z</time>
      </trkpt>
      <trkpt lat="42.92608" lon="17.9344">
        <ele>337.102082</ele>
        <time>2022-06-11T09:25:59.033Z</time>
      </trkpt>
      <trkpt lat="42.92604" lon="17.93428">
        <ele>336.963122</ele>
        <time>2022-06-11T09:26:01.026Z</time>
      </trkpt>
      <trkpt lat="42.92599" lon="17.93416">
        <ele>336.827646</ele>
        <time>2022-06-11T09:26:03.008Z</time>
      </trkpt>
      <trkpt lat="42.92596" lon="17.93405">
        <ele>336.697976</ele>
        <time>2022-06-11T09:26:05.033Z</time>
      </trkpt>
      <trkpt lat="42.92592" lon="17.93393">
        <ele>336.562944</ele>
        <time>2022-06-11T09:26:07.062Z</time>
      </trkpt>
      <trkpt lat="42.92588" lon="17.93381">
        <ele>336.418601</ele>
        <time>2022-06-11T09:26:09.024Z</time>
      </trkpt>
      <trkpt lat="42.92583" lon="17.9337">
        <ele>336.270956</ele>
        <time>2022-06-11T09:26:11.018Z</time>
      </trkpt>
      <trkpt lat="42.92579" lon="17.93359">
        <ele>336.126807</ele>
        <time>2022-06-11T09:26:13.056Z</time>
      </trkpt>
      <trkpt lat="42.92574" lon="17.93348">
        <ele>335.98364</ele>
        <time>2022-06-11T09:26:15.016Z</time>
      </trkpt>
      <trkpt lat="42.9257" lon="17.93336">
        <ele>335.83975</ele>
        <time>2022-06-11T09:26:17.019Z</time>
      </trkpt>
      <trkpt lat="42.92565" lon="17.93325">
        <ele>335.698541</ele>
        <time>2022-06-11T09:26:19.043Z</time>
      </trkpt>
      <trkpt lat="42.92561" lon="17.93314">
        <ele>335.558609</ele>
        <time>2022-06-11T09:26:21.016Z</time>
      </trkpt>
      <trkpt lat="42.92557" lon="17.93303">
        <ele>335.415442</ele>
        <time>2022-06-11T09:26:23.022Z</time>
      </trkpt>
      <trkpt lat="42.92552" lon="17.93293">
        <ele>335.274421</ele>
        <time>2022-06-11T09:26:25.027Z</time>
      </trkpt>
      <trkpt lat="42.92544" lon="17.93277">
        <ele>335.065527</ele>
        <time>2022-06-11T09:26:28.015Z</time>
      </trkpt>
      <trkpt lat="42.92538" lon="17.93268">
        <ele>334.9266</ele>
        <time>2022-06-11T09:26:30.073Z</time>
      </trkpt>
      <trkpt lat="42.92532" lon="17.93258">
        <ele>334.783091</ele>
        <time>2022-06-11T09:26:32.015Z</time>
      </trkpt>
      <trkpt lat="42.92526" lon="17.93249">
        <ele>334.63757</ele>
        <time>2022-06-11T09:26:34.020Z</time>
      </trkpt>
      <trkpt lat="42.9252" lon="17.93239">
        <ele>334.491545</ele>
        <time>2022-06-11T09:26:36.003Z</time>
      </trkpt>
      <trkpt lat="42.92514" lon="17.93229">
        <ele>334.345647</ele>
        <time>2022-06-11T09:26:38.014Z</time>
      </trkpt>
      <trkpt lat="42.92508" lon="17.9322">
        <ele>334.202663</ele>
        <time>2022-06-11T09:26:40.015Z</time>
      </trkpt>
      <trkpt lat="42.92502" lon="17.9321">
        <ele>334.059154</ele>
        <time>2022-06-11T09:26:42.029Z</time>
      </trkpt>
      <trkpt lat="42.92496" lon="17.93201">
        <ele>333.920226</ele>
        <time>2022-06-11T09:26:44.033Z</time>
      </trkpt>
      <trkpt lat="42.9249" lon="17.93191">
        <ele>333.778574</ele>
        <time>2022-06-11T09:26:46.020Z</time>
      </trkpt>
      <trkpt lat="42.92484" lon="17.93181">
        <ele>333.756476</ele>
        <time>2022-06-11T09:26:48.021Z</time>
      </trkpt>
      <trkpt lat="42.92474" lon="17.93169">
        <ele>333.834759</ele>
        <time>2022-06-11T09:26:51.019Z</time>
      </trkpt>
      <trkpt lat="42.92464" lon="17.93157">
        <ele>333.916126</ele>
        <time>2022-06-11T09:26:54.003Z</time>
      </trkpt>
      <trkpt lat="42.92456" lon="17.9315">
        <ele>333.97288</ele>
        <time>2022-06-11T09:26:56.051Z</time>
      </trkpt>
      <trkpt lat="42.92448" lon="17.93143">
        <ele>334.030873</ele>
        <time>2022-06-11T09:26:58.022Z</time>
      </trkpt>
      <trkpt lat="42.9244" lon="17.93135">
        <ele>334.08665</ele>
        <time>2022-06-11T09:27:00.025Z</time>
      </trkpt>
      <trkpt lat="42.92429" lon="17.93125">
        <ele>334.165386</ele>
        <time>2022-06-11T09:27:03.040Z</time>
      </trkpt>
      <trkpt lat="42.92419" lon="17.93114">
        <ele>334.244415</ele>
        <time>2022-06-11T09:27:06.001Z</time>
      </trkpt>
      <trkpt lat="42.92409" lon="17.93102">
        <ele>334.322996</ele>
        <time>2022-06-11T09:27:09.012Z</time>
      </trkpt>
      <trkpt lat="42.92402" lon="17.93095">
        <ele>334.377644</ele>
        <time>2022-06-11T09:27:11.033Z</time>
      </trkpt>
      <trkpt lat="42.92391" lon="17.93086">
        <ele>334.449277</ele>
        <time>2022-06-11T09:27:14.023Z</time>
      </trkpt>
      <trkpt lat="42.92381" lon="17.93077">
        <ele>334.524835</ele>
        <time>2022-06-11T09:27:17.022Z</time>
      </trkpt>
      <trkpt lat="42.92373" lon="17.9307">
        <ele>334.580176</ele>
        <time>2022-06-11T09:27:19.033Z</time>
      </trkpt>
      <trkpt lat="42.92362" lon="17.93061">
        <ele>334.657831</ele>
        <time>2022-06-11T09:27:22.013Z</time>
      </trkpt>
      <trkpt lat="42.92353" lon="17.93055">
        <ele>334.713319</ele>
        <time>2022-06-11T09:27:24.056Z</time>
      </trkpt>
      <trkpt lat="42.92345" lon="17.9305">
        <ele>334.768987</ele>
        <time>2022-06-11T09:27:26.029Z</time>
      </trkpt>
      <trkpt lat="42.92333" lon="17.93043">
        <ele>334.913583</ele>
        <time>2022-06-11T09:27:29.022Z</time>
      </trkpt>
      <trkpt lat="42.92323" lon="17.93038">
        <ele>335.06652</ele>
        <time>2022-06-11T09:27:32.016Z</time>
      </trkpt>
      <trkpt lat="42.92314" lon="17.93032">
        <ele>335.207578</ele>
        <time>2022-06-11T09:27:35.027Z</time>
      </trkpt>
      <trkpt lat="42.92303" lon="17.93026">
        <ele>335.36389</ele>
        <time>2022-06-11T09:27:38.021Z</time>
      </trkpt>
      <trkpt lat="42.92291" lon="17.93021">
        <ele>335.540837</ele>
        <time>2022-06-11T09:27:41.015Z</time>
      </trkpt>
      <trkpt lat="42.92279" lon="17.93015">
        <ele>335.715294</ele>
        <time>2022-06-11T09:27:44.021Z</time>
      </trkpt>
      <trkpt lat="42.92268" lon="17.93008">
        <ele>335.893193</ele>
        <time>2022-06-11T09:27:47.049Z</time>
      </trkpt>
      <trkpt lat="42.92255" lon="17.93002">
        <ele>336.079802</ele>
        <time>2022-06-11T09:27:50.023Z</time>
      </trkpt>
      <trkpt lat="42.92247" lon="17.92998">
        <ele>336.206134</ele>
        <time>2022-06-11T09:27:52.024Z</time>
      </trkpt>
      <trkpt lat="42.92235" lon="17.92991">
        <ele>336.387636</ele>
        <time>2022-06-11T09:27:55.007Z</time>
      </trkpt>
      <trkpt lat="42.92223" lon="17.92985">
        <ele>336.564343</ele>
        <time>2022-06-11T09:27:58.019Z</time>
      </trkpt>
      <trkpt lat="42.92211" lon="17.92978">
        <ele>336.738078</ele>
        <time>2022-06-11T09:28:01.024Z</time>
      </trkpt>
      <trkpt lat="42.92202" lon="17.92973">
        <ele>336.88083</ele>
        <time>2022-06-11T09:28:04.027Z</time>
      </trkpt>
      <trkpt lat="42.92193" lon="17.92969">
        <ele>337.008026</ele>
        <time>2022-06-11T09:28:07.014Z</time>
      </trkpt>
      <trkpt lat="42.92184" lon="17.92967">
        <ele>337.140824</ele>
        <time>2022-06-11T09:28:10.016Z</time>
      </trkpt>
      <trkpt lat="42.92172" lon="17.92964">
        <ele>337.307368</ele>
        <time>2022-06-11T09:28:14.056Z</time>
      </trkpt>
      <trkpt lat="42.9216" lon="17.92962">
        <ele>337.267011</ele>
        <time>2022-06-11T09:28:18.022Z</time>
      </trkpt>
      <trkpt lat="42.92149" lon="17.92959">
        <ele>337.228032</ele>
        <time>2022-06-11T09:28:22.024Z</time>
      </trkpt>
      <trkpt lat="42.92139" lon="17.92958">
        <ele>337.192563</ele>
        <time>2022-06-11T09:28:26.045Z</time>
      </trkpt>
      <trkpt lat="42.92127" lon="17.92957">
        <ele>337.154095</ele>
        <time>2022-06-11T09:28:30.028Z</time>
      </trkpt>
      <trkpt lat="42.92118" lon="17.92955">
        <ele>337.123558</ele>
        <time>2022-06-11T09:28:33.030Z</time>
      </trkpt>
      <trkpt lat="42.92109" lon="17.92953">
        <ele>337.09052</ele>
        <time>2022-06-11T09:28:36.012Z</time>
      </trkpt>
      <trkpt lat="42.92098" lon="17.9295">
        <ele>337.054838</ele>
        <time>2022-06-11T09:28:39.024Z</time>
      </trkpt>
      <trkpt lat="42.92088" lon="17.92948">
        <ele>337.01986</ele>
        <time>2022-06-11T09:28:42.019Z</time>
      </trkpt>
      <trkpt lat="42.92078" lon="17.92944">
        <ele>336.983234</ele>
        <time>2022-06-11T09:28:45.014Z</time>
      </trkpt>
      <trkpt lat="42.92067" lon="17.92939">
        <ele>336.943619</ele>
        <time>2022-06-11T09:28:48.018Z</time>
      </trkpt>
      <trkpt lat="42.92057" lon="17.92931">
        <ele>336.905611</ele>
        <time>2022-06-11T09:28:51.025Z</time>
      </trkpt>
      <trkpt lat="42.92047" lon="17.92923">
        <ele>336.866149</ele>
        <time>2022-06-11T09:28:54.023Z</time>
      </trkpt>
      <trkpt lat="42.92038" lon="17.92914">
        <ele>336.827027</ele>
        <time>2022-06-11T09:28:57.016Z</time>
      </trkpt>
      <trkpt lat="42.92027" lon="17.92902">
        <ele>336.780848</ele>
        <time>2022-06-11T09:29:00.056Z</time>
      </trkpt>
      <trkpt lat="42.92019" lon="17.92895">
        <ele>336.747615</ele>
        <time>2022-06-11T09:29:02.022Z</time>
      </trkpt>
      <trkpt lat="42.92011" lon="17.92887">
        <ele>336.71579</ele>
        <time>2022-06-11T09:29:04.085Z</time>
      </trkpt>
      <trkpt lat="42.92004" lon="17.9288">
        <ele>336.723394</ele>
        <time>2022-06-11T09:29:06.005Z</time>
      </trkpt>
      <trkpt lat="42.91992" lon="17.9287">
        <ele>336.818656</ele>
        <time>2022-06-11T09:29:09.012Z</time>
      </trkpt>
      <trkpt lat="42.91984" lon="17.92864">
        <ele>336.886312</ele>
        <time>2022-06-11T09:29:11.016Z</time>
      </trkpt>
      <trkpt lat="42.91975" lon="17.92859">
        <ele>336.950997</ele>
        <time>2022-06-11T09:29:13.025Z</time>
      </trkpt>
      <trkpt lat="42.91963" lon="17.92854">
        <ele>337.045648</ele>
        <time>2022-06-11T09:29:16.022Z</time>
      </trkpt>
      <trkpt lat="42.9195" lon="17.92851">
        <ele>337.137552</ele>
        <time>2022-06-11T09:29:19.022Z</time>
      </trkpt>
      <trkpt lat="42.9194" lon="17.92851">
        <ele>337.203183</ele>
        <time>2022-06-11T09:29:21.065Z</time>
      </trkpt>
      <trkpt lat="42.91931" lon="17.92851">
        <ele>337.269496</ele>
        <time>2022-06-11T09:29:23.015Z</time>
      </trkpt>
      <trkpt lat="42.91922" lon="17.92853">
        <ele>337.334282</ele>
        <time>2022-06-11T09:29:25.009Z</time>
      </trkpt>
      <trkpt lat="42.9191" lon="17.92855">
        <ele>337.41642</ele>
        <time>2022-06-11T09:29:28.072Z</time>
      </trkpt>
      <trkpt lat="42.91902" lon="17.9286">
        <ele>337.480724</ele>
        <time>2022-06-11T09:29:30.027Z</time>
      </trkpt>
      <trkpt lat="42.91893" lon="17.92865">
        <ele>337.551157</ele>
        <time>2022-06-11T09:29:32.010Z</time>
      </trkpt>
      <trkpt lat="42.91884" lon="17.92869">
        <ele>337.618079</ele>
        <time>2022-06-11T09:29:34.028Z</time>
      </trkpt>
      <trkpt lat="42.91875" lon="17.92873">
        <ele>337.684376</ele>
        <time>2022-06-11T09:29:36.012Z</time>
      </trkpt>
      <trkpt lat="42.91865" lon="17.92877">
        <ele>337.752703</ele>
        <time>2022-06-11T09:29:38.023Z</time>
      </trkpt>
      <trkpt lat="42.91856" lon="17.9288">
        <ele>337.820887</ele>
        <time>2022-06-11T09:29:40.023Z</time>
      </trkpt>
      <trkpt lat="42.91847" lon="17.92884">
        <ele>337.890712</ele>
        <time>2022-06-11T09:29:42.004Z</time>
      </trkpt>
      <trkpt lat="42.91837" lon="17.92887">
        <ele>337.960645</ele>
        <time>2022-06-11T09:29:44.025Z</time>
      </trkpt>
      <trkpt lat="42.91827" lon="17.92891">
        <ele>337.882873</ele>
        <time>2022-06-11T09:29:46.027Z</time>
      </trkpt>
      <trkpt lat="42.91817" lon="17.92894">
        <ele>337.795124</ele>
        <time>2022-06-11T09:29:48.012Z</time>
      </trkpt>
      <trkpt lat="42.91808" lon="17.92898">
        <ele>337.706333</ele>
        <time>2022-06-11T09:29:50.063Z</time>
      </trkpt>
      <trkpt lat="42.91799" lon="17.92901">
        <ele>337.627238</ele>
        <time>2022-06-11T09:29:52.027Z</time>
      </trkpt>
      <trkpt lat="42.91788" lon="17.92904">
        <ele>337.529025</ele>
        <time>2022-06-11T09:29:55.012Z</time>
      </trkpt>
      <trkpt lat="42.91778" lon="17.92907">
        <ele>337.442803</ele>
        <time>2022-06-11T09:29:58.023Z</time>
      </trkpt>
      <trkpt lat="42.91769" lon="17.92912">
        <ele>337.349099</ele>
        <time>2022-06-11T09:30:01.023Z</time>
      </trkpt>
      <trkpt lat="42.91758" lon="17.92919">
        <ele>337.247102</ele>
        <time>2022-06-11T09:30:04.019Z</time>
      </trkpt>
      <trkpt lat="42.91748" lon="17.92928">
        <ele>337.139184</ele>
        <time>2022-06-11T09:30:07.056Z</time>
      </trkpt>
      <trkpt lat="42.91738" lon="17.92938">
        <ele>337.035657</ele>
        <time>2022-06-11T09:30:10.027Z</time>
      </trkpt>
      <trkpt lat="42.91728" lon="17.92946">
        <ele>336.927688</ele>
        <time>2022-06-11T09:30:13.029Z</time>
      </trkpt>
      <trkpt lat="42.91717" lon="17.92955">
        <ele>336.81512</ele>
        <time>2022-06-11T09:30:16.006Z</time>
      </trkpt>
      <trkpt lat="42.91705" lon="17.92964">
        <ele>336.696788</ele>
        <time>2022-06-11T09:30:19.020Z</time>
      </trkpt>
      <trkpt lat="42.91694" lon="17.92973">
        <ele>336.584639</ele>
        <time>2022-06-11T09:30:22.018Z</time>
      </trkpt>
      <trkpt lat="42.91683" lon="17.92981">
        <ele>336.474527</ele>
        <time>2022-06-11T09:30:25.031Z</time>
      </trkpt>
      <trkpt lat="42.91672" lon="17.92988">
        <ele>336.373541</ele>
        <time>2022-06-11T09:30:28.017Z</time>
      </trkpt>
      <trkpt lat="42.9166" lon="17.92994">
        <ele>336.309406</ele>
        <time>2022-06-11T09:30:31.022Z</time>
      </trkpt>
      <trkpt lat="42.91647" lon="17.92999">
        <ele>336.242682</ele>
        <time>2022-06-11T09:30:34.002Z</time>
      </trkpt>
      <trkpt lat="42.91635" lon="17.93004">
        <ele>336.176396</ele>
        <time>2022-06-11T09:30:37.023Z</time>
      </trkpt>
      <trkpt lat="42.91626" lon="17.93008">
        <ele>336.130819</ele>
        <time>2022-06-11T09:30:39.059Z</time>
      </trkpt>
      <trkpt lat="42.91613" lon="17.93013">
        <ele>336.063707</ele>
        <time>2022-06-11T09:30:42.055Z</time>
      </trkpt>
      <trkpt lat="42.91601" lon="17.93019">
        <ele>335.995974</ele>
        <time>2022-06-11T09:30:45.006Z</time>
      </trkpt>
      <trkpt lat="42.91592" lon="17.93022">
        <ele>335.949931</ele>
        <time>2022-06-11T09:30:47.006Z</time>
      </trkpt>
      <trkpt lat="42.9158" lon="17.93026">
        <ele>335.885842</ele>
        <time>2022-06-11T09:30:50.027Z</time>
      </trkpt>
      <trkpt lat="42.91567" lon="17.9303">
        <ele>335.819417</ele>
        <time>2022-06-11T09:30:53.028Z</time>
      </trkpt>
      <trkpt lat="42.91553" lon="17.93032">
        <ele>335.752228</ele>
        <time>2022-06-11T09:30:56.025Z</time>
      </trkpt>
      <trkpt lat="42.91545" lon="17.93034">
        <ele>335.706684</ele>
        <time>2022-06-11T09:30:58.046Z</time>
      </trkpt>
      <trkpt lat="42.91532" lon="17.93038">
        <ele>335.641523</ele>
        <time>2022-06-11T09:31:01.029Z</time>
      </trkpt>
      <trkpt lat="42.91519" lon="17.93042">
        <ele>335.575949</ele>
        <time>2022-06-11T09:31:04.031Z</time>
      </trkpt>
      <trkpt lat="42.91506" lon="17.93045">
        <ele>335.508231</ele>
        <time>2022-06-11T09:31:07.009Z</time>
      </trkpt>
      <trkpt lat="42.91497" lon="17.93047">
        <ele>335.472438</ele>
        <time>2022-06-11T09:31:09.027Z</time>
      </trkpt>
      <trkpt lat="42.91485" lon="17.93049">
        <ele>335.462878</ele>
        <time>2022-06-11T09:31:12.023Z</time>
      </trkpt>
      <trkpt lat="42.91471" lon="17.9305">
        <ele>335.45294</ele>
        <time>2022-06-11T09:31:15.022Z</time>
      </trkpt>
      <trkpt lat="42.91458" lon="17.9305">
        <ele>335.443085</ele>
        <time>2022-06-11T09:31:18.014Z</time>
      </trkpt>
      <trkpt lat="42.91446" lon="17.93048">
        <ele>335.43372</ele>
        <time>2022-06-11T09:31:21.048Z</time>
      </trkpt>
      <trkpt lat="42.91433" lon="17.93045">
        <ele>335.424044</ele>
        <time>2022-06-11T09:31:24.027Z</time>
      </trkpt>
      <trkpt lat="42.9142" lon="17.93043">
        <ele>335.41426</ele>
        <time>2022-06-11T09:31:27.056Z</time>
      </trkpt>
      <trkpt lat="42.91408" lon="17.93039">
        <ele>335.404471</ele>
        <time>2022-06-11T09:31:30.015Z</time>
      </trkpt>
      <trkpt lat="42.91395" lon="17.93036">
        <ele>335.394608</ele>
        <time>2022-06-11T09:31:33.015Z</time>
      </trkpt>
      <trkpt lat="42.91382" lon="17.93033">
        <ele>335.384949</ele>
        <time>2022-06-11T09:31:36.014Z</time>
      </trkpt>
      <trkpt lat="42.91369" lon="17.93031">
        <ele>335.374793</ele>
        <time>2022-06-11T09:31:39.014Z</time>
      </trkpt>
      <trkpt lat="42.91359" lon="17.93029">
        <ele>335.367675</ele>
        <time>2022-06-11T09:31:41.033Z</time>
      </trkpt>
      <trkpt lat="42.9135" lon="17.93029">
        <ele>335.360686</ele>
        <time>2022-06-11T09:31:43.012Z</time>
      </trkpt>
      <trkpt lat="42.91341" lon="17.93029">
        <ele>335.353772</ele>
        <time>2022-06-11T09:31:45.019Z</time>
      </trkpt>
      <trkpt lat="42.91332" lon="17.9303">
        <ele>335.34693</ele>
        <time>2022-06-11T09:31:47.047Z</time>
      </trkpt>
      <trkpt lat="42.91322" lon="17.9303">
        <ele>335.340091</ele>
        <time>2022-06-11T09:31:49.065Z</time>
      </trkpt>
      <trkpt lat="42.91313" lon="17.9303">
        <ele>335.279278</ele>
        <time>2022-06-11T09:31:51.025Z</time>
      </trkpt>
      <trkpt lat="42.913" lon="17.9303">
        <ele>335.176232</ele>
        <time>2022-06-11T09:31:54.024Z</time>
      </trkpt>
      <trkpt lat="42.91291" lon="17.9303">
        <ele>335.102855</ele>
        <time>2022-06-11T09:31:56.002Z</time>
      </trkpt>
      <trkpt lat="42.91281" lon="17.9303">
        <ele>335.03025</ele>
        <time>2022-06-11T09:31:58.027Z</time>
      </trkpt>
      <trkpt lat="42.91272" lon="17.93029">
        <ele>334.957598</ele>
        <time>2022-06-11T09:32:00.045Z</time>
      </trkpt>
      <trkpt lat="42.91263" lon="17.93029">
        <ele>334.885762</ele>
        <time>2022-06-11T09:32:02.018Z</time>
      </trkpt>
      <trkpt lat="42.9125" lon="17.93027">
        <ele>334.782732</ele>
        <time>2022-06-11T09:32:05.013Z</time>
      </trkpt>
      <trkpt lat="42.91238" lon="17.93023">
        <ele>334.685813</ele>
        <time>2022-06-11T09:32:08.019Z</time>
      </trkpt>
      <trkpt lat="42.91226" lon="17.93017">
        <ele>334.588253</ele>
        <time>2022-06-11T09:32:11.053Z</time>
      </trkpt>
      <trkpt lat="42.91214" lon="17.9301">
        <ele>334.489435</ele>
        <time>2022-06-11T09:32:14.016Z</time>
      </trkpt>
      <trkpt lat="42.91204" lon="17.93002">
        <ele>334.394892</ele>
        <time>2022-06-11T09:32:17.023Z</time>
      </trkpt>
      <trkpt lat="42.91196" lon="17.92995">
        <ele>334.322363</ele>
        <time>2022-06-11T09:32:19.018Z</time>
      </trkpt>
      <trkpt lat="42.91186" lon="17.92985">
        <ele>334.222407</ele>
        <time>2022-06-11T09:32:22.046Z</time>
      </trkpt>
      <trkpt lat="42.91176" lon="17.92975">
        <ele>334.1271</ele>
        <time>2022-06-11T09:32:25.018Z</time>
      </trkpt>
      <trkpt lat="42.91165" lon="17.92965">
        <ele>334.024591</ele>
        <time>2022-06-11T09:32:28.010Z</time>
      </trkpt>
      <trkpt lat="42.91154" lon="17.92955">
        <ele>333.932286</ele>
        <time>2022-06-11T09:32:31.049Z</time>
      </trkpt>
      <trkpt lat="42.91147" lon="17.92949">
        <ele>333.913887</ele>
        <time>2022-06-11T09:32:33.055Z</time>
      </trkpt>
      <trkpt lat="42.91136" lon="17.92938">
        <ele>333.887103</ele>
        <time>2022-06-11T09:32:36.013Z</time>
      </trkpt>
      <trkpt lat="42.91129" lon="17.92931">
        <ele>333.868799</ele>
        <time>2022-06-11T09:32:38.020Z</time>
      </trkpt>
      <trkpt lat="42.91118" lon="17.92921">
        <ele>333.842641</ele>
        <time>2022-06-11T09:32:41.014Z</time>
      </trkpt>
      <trkpt lat="42.91107" lon="17.92912">
        <ele>333.817311</ele>
        <time>2022-06-11T09:32:44.074Z</time>
      </trkpt>
      <trkpt lat="42.91096" lon="17.92905">
        <ele>333.791618</ele>
        <time>2022-06-11T09:32:47.032Z</time>
      </trkpt>
      <trkpt lat="42.91087" lon="17.92899">
        <ele>333.772645</ele>
        <time>2022-06-11T09:32:49.026Z</time>
      </trkpt>
      <trkpt lat="42.91079" lon="17.92894">
        <ele>333.754164</ele>
        <time>2022-06-11T09:32:51.028Z</time>
      </trkpt>
      <trkpt lat="42.91067" lon="17.92886">
        <ele>333.727577</ele>
        <time>2022-06-11T09:32:54.018Z</time>
      </trkpt>
      <trkpt lat="42.91055" lon="17.92879">
        <ele>333.701052</ele>
        <time>2022-06-11T09:32:57.013Z</time>
      </trkpt>
      <trkpt lat="42.91047" lon="17.92873">
        <ele>333.682262</ele>
        <time>2022-06-11T09:32:59.032Z</time>
      </trkpt>
      <trkpt lat="42.91034" lon="17.92867">
        <ele>333.655016</ele>
        <time>2022-06-11T09:33:02.011Z</time>
      </trkpt>
      <trkpt lat="42.91022" lon="17.92861">
        <ele>333.628567</ele>
        <time>2022-06-11T09:33:05.016Z</time>
      </trkpt>
      <trkpt lat="42.91011" lon="17.92854">
        <ele>333.603507</ele>
        <time>2022-06-11T09:33:08.025Z</time>
      </trkpt>
      <trkpt lat="42.91" lon="17.92846">
        <ele>333.578651</ele>
        <time>2022-06-11T09:33:11.040Z</time>
      </trkpt>
      <trkpt lat="42.90989" lon="17.92837">
        <ele>333.660802</ele>
        <time>2022-06-11T09:33:14.012Z</time>
      </trkpt>
      <trkpt lat="42.90979" lon="17.92828">
        <ele>333.790881</ele>
        <time>2022-06-11T09:33:17.007Z</time>
      </trkpt>
      <trkpt lat="42.90969" lon="17.92817">
        <ele>333.921055</ele>
        <time>2022-06-11T09:33:20.015Z</time>
      </trkpt>
      <trkpt lat="42.90958" lon="17.92809">
        <ele>334.050449</ele>
        <time>2022-06-11T09:33:23.023Z</time>
      </trkpt>
      <trkpt lat="42.90947" lon="17.928">
        <ele>334.18101</ele>
        <time>2022-06-11T09:33:26.015Z</time>
      </trkpt>
      <trkpt lat="42.90937" lon="17.9279">
        <ele>334.311834</ele>
        <time>2022-06-11T09:33:29.004Z</time>
      </trkpt>
      <trkpt lat="42.90926" lon="17.9278">
        <ele>334.443127</ele>
        <time>2022-06-11T09:33:32.019Z</time>
      </trkpt>
      <trkpt lat="42.90914" lon="17.92772">
        <ele>334.577524</ele>
        <time>2022-06-11T09:33:35.015Z</time>
      </trkpt>
      <trkpt lat="42.90907" lon="17.92765">
        <ele>334.671742</ele>
        <time>2022-06-11T09:33:37.012Z</time>
      </trkpt>
      <trkpt lat="42.90899" lon="17.92758">
        <ele>334.770661</ele>
        <time>2022-06-11T09:33:39.072Z</time>
      </trkpt>
      <trkpt lat="42.9089" lon="17.92751">
        <ele>334.871817</ele>
        <time>2022-06-11T09:33:41.025Z</time>
      </trkpt>
      <trkpt lat="42.90882" lon="17.92744">
        <ele>334.974367</ele>
        <time>2022-06-11T09:33:43.015Z</time>
      </trkpt>
      <trkpt lat="42.90873" lon="17.92738">
        <ele>335.075634</ele>
        <time>2022-06-11T09:33:45.012Z</time>
      </trkpt>
      <trkpt lat="42.90864" lon="17.92732">
        <ele>335.179911</ele>
        <time>2022-06-11T09:33:47.017Z</time>
      </trkpt>
      <trkpt lat="42.90855" lon="17.92726">
        <ele>335.285538</ele>
        <time>2022-06-11T09:33:49.031Z</time>
      </trkpt>
      <trkpt lat="42.90846" lon="17.92719">
        <ele>335.389335</ele>
        <time>2022-06-11T09:33:51.020Z</time>
      </trkpt>
      <trkpt lat="42.90837" lon="17.92713">
        <ele>335.4643</ele>
        <time>2022-06-11T09:33:53.013Z</time>
      </trkpt>
      <trkpt lat="42.90829" lon="17.92707">
        <ele>335.526264</ele>
        <time>2022-06-11T09:33:55.025Z</time>
      </trkpt>
      <trkpt lat="42.90819" lon="17.927">
        <ele>335.590385</ele>
        <time>2022-06-11T09:33:57.040Z</time>
      </trkpt>
      <trkpt lat="42.9081" lon="17.92695">
        <ele>335.654681</ele>
        <time>2022-06-11T09:33:59.013Z</time>
      </trkpt>
      <trkpt lat="42.908" lon="17.92689">
        <ele>335.720296</ele>
        <time>2022-06-11T09:34:01.017Z</time>
      </trkpt>
      <trkpt lat="42.90791" lon="17.92683">
        <ele>335.784074</ele>
        <time>2022-06-11T09:34:03.017Z</time>
      </trkpt>
      <trkpt lat="42.90781" lon="17.92679">
        <ele>335.847597</ele>
        <time>2022-06-11T09:34:05.020Z</time>
      </trkpt>
      <trkpt lat="42.90771" lon="17.92675">
        <ele>335.913081</ele>
        <time>2022-06-11T09:34:07.016Z</time>
      </trkpt>
      <trkpt lat="42.90761" lon="17.92671">
        <ele>335.979388</ele>
        <time>2022-06-11T09:34:09.027Z</time>
      </trkpt>
      <trkpt lat="42.9075" lon="17.92668">
        <ele>336.046319</ele>
        <time>2022-06-11T09:34:11.038Z</time>
      </trkpt>
      <trkpt lat="42.90739" lon="17.92667">
        <ele>336.11754</ele>
        <time>2022-06-11T09:34:13.015Z</time>
      </trkpt>
      <trkpt lat="42.90728" lon="17.92666">
        <ele>336.186119</ele>
        <time>2022-06-11T09:34:15.021Z</time>
      </trkpt>
      <trkpt lat="42.90717" lon="17.92665">
        <ele>336.253898</ele>
        <time>2022-06-11T09:34:17.021Z</time>
      </trkpt>
      <trkpt lat="42.90706" lon="17.92665">
        <ele>336.319798</ele>
        <time>2022-06-11T09:34:19.036Z</time>
      </trkpt>
      <trkpt lat="42.90696" lon="17.92667">
        <ele>336.385939</ele>
        <time>2022-06-11T09:34:21.043Z</time>
      </trkpt>
      <trkpt lat="42.90685" lon="17.92669">
        <ele>336.45189</ele>
        <time>2022-06-11T09:34:23.007Z</time>
      </trkpt>
      <trkpt lat="42.90674" lon="17.92671">
        <ele>336.519892</ele>
        <time>2022-06-11T09:34:25.022Z</time>
      </trkpt>
      <trkpt lat="42.90664" lon="17.92675">
        <ele>336.464644</ele>
        <time>2022-06-11T09:34:27.030Z</time>
      </trkpt>
      <trkpt lat="42.90653" lon="17.92679">
        <ele>336.337775</ele>
        <time>2022-06-11T09:34:29.013Z</time>
      </trkpt>
      <trkpt lat="42.90641" lon="17.92683">
        <ele>336.204184</ele>
        <time>2022-06-11T09:34:31.030Z</time>
      </trkpt>
      <trkpt lat="42.90629" lon="17.92686">
        <ele>336.071682</ele>
        <time>2022-06-11T09:34:33.021Z</time>
      </trkpt>
      <trkpt lat="42.90618" lon="17.92691">
        <ele>335.940091</ele>
        <time>2022-06-11T09:34:35.028Z</time>
      </trkpt>
      <trkpt lat="42.90607" lon="17.92696">
        <ele>335.807317</ele>
        <time>2022-06-11T09:34:37.028Z</time>
      </trkpt>
      <trkpt lat="42.90596" lon="17.92701">
        <ele>335.675847</ele>
        <time>2022-06-11T09:34:39.025Z</time>
      </trkpt>
      <trkpt lat="42.90585" lon="17.92708">
        <ele>335.545026</ele>
        <time>2022-06-11T09:34:41.026Z</time>
      </trkpt>
      <trkpt lat="42.90574" lon="17.92715">
        <ele>335.403312</ele>
        <time>2022-06-11T09:34:43.020Z</time>
      </trkpt>
      <trkpt lat="42.90564" lon="17.92723">
        <ele>335.274948</ele>
        <time>2022-06-11T09:34:45.067Z</time>
      </trkpt>
      <trkpt lat="42.90553" lon="17.9273">
        <ele>335.137131</ele>
        <time>2022-06-11T09:34:47.026Z</time>
      </trkpt>
      <trkpt lat="42.90542" lon="17.92738">
        <ele>335.001438</ele>
        <time>2022-06-11T09:34:49.024Z</time>
      </trkpt>
      <trkpt lat="42.90532" lon="17.92745">
        <ele>334.872591</ele>
        <time>2022-06-11T09:34:51.028Z</time>
      </trkpt>
      <trkpt lat="42.90521" lon="17.92752">
        <ele>334.742447</ele>
        <time>2022-06-11T09:34:53.014Z</time>
      </trkpt>
      <trkpt lat="42.90511" lon="17.92757">
        <ele>334.617842</ele>
        <time>2022-06-11T09:34:55.028Z</time>
      </trkpt>
      <trkpt lat="42.905" lon="17.92761">
        <ele>334.506986</ele>
        <time>2022-06-11T09:34:57.019Z</time>
      </trkpt>
      <trkpt lat="42.90489" lon="17.92765">
        <ele>334.425464</ele>
        <time>2022-06-11T09:34:59.011Z</time>
      </trkpt>
      <trkpt lat="42.90478" lon="17.92769">
        <ele>334.340827</ele>
        <time>2022-06-11T09:35:01.053Z</time>
      </trkpt>
      <trkpt lat="42.90467" lon="17.92773">
        <ele>334.258011</ele>
        <time>2022-06-11T09:35:03.019Z</time>
      </trkpt>
      <trkpt lat="42.90456" lon="17.92776">
        <ele>334.173545</ele>
        <time>2022-06-11T09:35:05.031Z</time>
      </trkpt>
      <trkpt lat="42.90444" lon="17.9278">
        <ele>334.084695</ele>
        <time>2022-06-11T09:35:07.049Z</time>
      </trkpt>
      <trkpt lat="42.90432" lon="17.92785">
        <ele>333.993527</ele>
        <time>2022-06-11T09:35:09.022Z</time>
      </trkpt>
      <trkpt lat="42.90421" lon="17.92789">
        <ele>333.906204</ele>
        <time>2022-06-11T09:35:11.023Z</time>
      </trkpt>
      <trkpt lat="42.9041" lon="17.92794">
        <ele>333.821289</ele>
        <time>2022-06-11T09:35:13.013Z</time>
      </trkpt>
      <trkpt lat="42.90399" lon="17.928">
        <ele>333.737219</ele>
        <time>2022-06-11T09:35:15.027Z</time>
      </trkpt>
      <trkpt lat="42.90388" lon="17.92806">
        <ele>333.654481</ele>
        <time>2022-06-11T09:35:17.018Z</time>
      </trkpt>
      <trkpt lat="42.90378" lon="17.92813">
        <ele>333.571928</ele>
        <time>2022-06-11T09:35:19.033Z</time>
      </trkpt>
      <trkpt lat="42.90368" lon="17.9282">
        <ele>333.489133</ele>
        <time>2022-06-11T09:35:21.019Z</time>
      </trkpt>
      <trkpt lat="42.90359" lon="17.92828">
        <ele>333.407882</ele>
        <time>2022-06-11T09:35:23.032Z</time>
      </trkpt>
      <trkpt lat="42.9035" lon="17.92837">
        <ele>333.327443</ele>
        <time>2022-06-11T09:35:25.033Z</time>
      </trkpt>
      <trkpt lat="42.90341" lon="17.92846">
        <ele>333.245023</ele>
        <time>2022-06-11T09:35:27.031Z</time>
      </trkpt>
      <trkpt lat="42.90331" lon="17.92854">
        <ele>333.257652</ele>
        <time>2022-06-11T09:35:29.023Z</time>
      </trkpt>
      <trkpt lat="42.9032" lon="17.9286">
        <ele>333.322598</ele>
        <time>2022-06-11T09:35:31.053Z</time>
      </trkpt>
      <trkpt lat="42.90309" lon="17.92864">
        <ele>333.390492</ele>
        <time>2022-06-11T09:35:33.022Z</time>
      </trkpt>
      <trkpt lat="42.90297" lon="17.92867">
        <ele>333.455963</ele>
        <time>2022-06-11T09:35:35.023Z</time>
      </trkpt>
      <trkpt lat="42.90286" lon="17.92869">
        <ele>333.522238</ele>
        <time>2022-06-11T09:35:37.022Z</time>
      </trkpt>
      <trkpt lat="42.90274" lon="17.92867">
        <ele>333.589044</ele>
        <time>2022-06-11T09:35:39.046Z</time>
      </trkpt>
      <trkpt lat="42.90262" lon="17.92864">
        <ele>333.657365</ele>
        <time>2022-06-11T09:35:41.015Z</time>
      </trkpt>
      <trkpt lat="42.90251" lon="17.92861">
        <ele>333.722055</ele>
        <time>2022-06-11T09:35:43.023Z</time>
      </trkpt>
      <trkpt lat="42.9024" lon="17.92857">
        <ele>333.782733</ele>
        <time>2022-06-11T09:35:45.010Z</time>
      </trkpt>
      <trkpt lat="42.9023" lon="17.92853">
        <ele>333.846607</ele>
        <time>2022-06-11T09:35:47.013Z</time>
      </trkpt>
      <trkpt lat="42.90219" lon="17.92848">
        <ele>333.910733</ele>
        <time>2022-06-11T09:35:49.024Z</time>
      </trkpt>
      <trkpt lat="42.90208" lon="17.92843">
        <ele>333.976856</ele>
        <time>2022-06-11T09:35:51.026Z</time>
      </trkpt>
      <trkpt lat="42.90197" lon="17.92838">
        <ele>334.038972</ele>
        <time>2022-06-11T09:35:53.044Z</time>
      </trkpt>
      <trkpt lat="42.90187" lon="17.92833">
        <ele>334.102426</ele>
        <time>2022-06-11T09:35:55.031Z</time>
      </trkpt>
      <trkpt lat="42.90176" lon="17.92827">
        <ele>334.166376</ele>
        <time>2022-06-11T09:35:57.019Z</time>
      </trkpt>
      <trkpt lat="42.90167" lon="17.92822">
        <ele>334.224998</ele>
        <time>2022-06-11T09:35:59.011Z</time>
      </trkpt>
      <trkpt lat="42.90157" lon="17.92815">
        <ele>334.103569</ele>
        <time>2022-06-11T09:36:01.015Z</time>
      </trkpt>
      <trkpt lat="42.90148" lon="17.92808">
        <ele>333.963306</ele>
        <time>2022-06-11T09:36:03.027Z</time>
      </trkpt>
      <trkpt lat="42.90139" lon="17.928">
        <ele>333.823478</ele>
        <time>2022-06-11T09:36:05.016Z</time>
      </trkpt>
      <trkpt lat="42.90131" lon="17.92792">
        <ele>333.689734</ele>
        <time>2022-06-11T09:36:07.019Z</time>
      </trkpt>
      <trkpt lat="42.90123" lon="17.92785">
        <ele>333.562622</ele>
        <time>2022-06-11T09:36:09.023Z</time>
      </trkpt>
      <trkpt lat="42.90115" lon="17.92777">
        <ele>333.430406</ele>
        <time>2022-06-11T09:36:11.018Z</time>
      </trkpt>
      <trkpt lat="42.90107" lon="17.92768">
        <ele>333.292483</ele>
        <time>2022-06-11T09:36:13.038Z</time>
      </trkpt>
      <trkpt lat="42.901" lon="17.92759">
        <ele>333.158543</ele>
        <time>2022-06-11T09:36:15.054Z</time>
      </trkpt>
      <trkpt lat="42.90092" lon="17.92749">
        <ele>333.01998</ele>
        <time>2022-06-11T09:36:17.005Z</time>
      </trkpt>
      <trkpt lat="42.90085" lon="17.92739">
        <ele>332.880621</ele>
        <time>2022-06-11T09:36:19.020Z</time>
      </trkpt>
      <trkpt lat="42.90079" lon="17.92728">
        <ele>332.742916</ele>
        <time>2022-06-11T09:36:21.081Z</time>
      </trkpt>
      <trkpt lat="42.90073" lon="17.92717">
        <ele>332.606889</ele>
        <time>2022-06-11T09:36:23.015Z</time>
      </trkpt>
      <trkpt lat="42.90068" lon="17.92706">
        <ele>332.481666</ele>
        <time>2022-06-11T09:36:25.030Z</time>
      </trkpt>
      <trkpt lat="42.90063" lon="17.92689">
        <ele>332.299488</ele>
        <time>2022-06-11T09:36:28.028Z</time>
      </trkpt>
      <trkpt lat="42.90059" lon="17.92677">
        <ele>332.171462</ele>
        <time>2022-06-11T09:36:30.013Z</time>
      </trkpt>
      <trkpt lat="42.90055" lon="17.92665">
        <ele>332.042588</ele>
        <time>2022-06-11T09:36:32.015Z</time>
      </trkpt>
      <trkpt lat="42.90053" lon="17.92652">
        <ele>331.917458</ele>
        <time>2022-06-11T09:36:34.030Z</time>
      </trkpt>
      <trkpt lat="42.90051" lon="17.9264">
        <ele>331.861448</ele>
        <time>2022-06-11T09:36:36.009Z</time>
      </trkpt>
      <trkpt lat="42.90049" lon="17.92627">
        <ele>332.012983</ele>
        <time>2022-06-11T09:36:38.059Z</time>
      </trkpt>
      <trkpt lat="42.90047" lon="17.92614">
        <ele>332.17058</ele>
        <time>2022-06-11T09:36:40.030Z</time>
      </trkpt>
      <trkpt lat="42.90046" lon="17.926">
        <ele>332.333349</ele>
        <time>2022-06-11T09:36:42.016Z</time>
      </trkpt>
      <trkpt lat="42.90046" lon="17.92586">
        <ele>332.498973</ele>
        <time>2022-06-11T09:36:44.016Z</time>
      </trkpt>
      <trkpt lat="42.90046" lon="17.92572">
        <ele>332.661236</ele>
        <time>2022-06-11T09:36:46.013Z</time>
      </trkpt>
      <trkpt lat="42.90048" lon="17.92559">
        <ele>332.819437</ele>
        <time>2022-06-11T09:36:48.029Z</time>
      </trkpt>
      <trkpt lat="42.9005" lon="17.92546">
        <ele>332.974206</ele>
        <time>2022-06-11T09:36:50.008Z</time>
      </trkpt>
      <trkpt lat="42.90053" lon="17.92534">
        <ele>333.121346</ele>
        <time>2022-06-11T09:36:52.034Z</time>
      </trkpt>
      <trkpt lat="42.90057" lon="17.92523">
        <ele>333.266628</ele>
        <time>2022-06-11T09:36:54.018Z</time>
      </trkpt>
      <trkpt lat="42.90061" lon="17.92512">
        <ele>333.415049</ele>
        <time>2022-06-11T09:36:56.014Z</time>
      </trkpt>
      <trkpt lat="42.90065" lon="17.92501">
        <ele>333.563188</ele>
        <time>2022-06-11T09:36:58.016Z</time>
      </trkpt>
      <trkpt lat="42.90072" lon="17.92485">
        <ele>333.778962</ele>
        <time>2022-06-11T09:37:01.040Z</time>
      </trkpt>
      <trkpt lat="42.90077" lon="17.92474">
        <ele>333.928433</ele>
        <time>2022-06-11T09:37:03.035Z</time>
      </trkpt>
      <trkpt lat="42.90083" lon="17.92458">
        <ele>334.137784</ele>
        <time>2022-06-11T09:37:06.048Z</time>
      </trkpt>
      <trkpt lat="42.90088" lon="17.92443">
        <ele>334.337826</ele>
        <time>2022-06-11T09:37:09.015Z</time>
      </trkpt>
      <trkpt lat="42.90093" lon="17.92426">
        <ele>334.543435</ele>
        <time>2022-06-11T09:37:12.003Z</time>
      </trkpt>
      <trkpt lat="42.90095" lon="17.92408">
        <ele>334.715293</ele>
        <time>2022-06-11T09:37:15.027Z</time>
      </trkpt>
      <trkpt lat="42.90096" lon="17.9239">
        <ele>334.752518</ele>
        <time>2022-06-11T09:37:18.045Z</time>
      </trkpt>
      <trkpt lat="42.90097" lon="17.92372">
        <ele>334.789665</ele>
        <time>2022-06-11T09:37:21.014Z</time>
      </trkpt>
      <trkpt lat="42.90097" lon="17.9236">
        <ele>334.815543</ele>
        <time>2022-06-11T09:37:23.031Z</time>
      </trkpt>
      <trkpt lat="42.90098" lon="17.92346">
        <ele>334.843115</ele>
        <time>2022-06-11T09:37:25.082Z</time>
      </trkpt>
      <trkpt lat="42.90098" lon="17.92333">
        <ele>334.870222</ele>
        <time>2022-06-11T09:37:27.020Z</time>
      </trkpt>
      <trkpt lat="42.90099" lon="17.9232">
        <ele>334.896545</ele>
        <time>2022-06-11T09:37:29.023Z</time>
      </trkpt>
      <trkpt lat="42.90101" lon="17.92308">
        <ele>334.922478</ele>
        <time>2022-06-11T09:37:31.039Z</time>
      </trkpt>
      <trkpt lat="42.90103" lon="17.92295">
        <ele>334.949119</ele>
        <time>2022-06-11T09:37:33.019Z</time>
      </trkpt>
      <trkpt lat="42.90106" lon="17.92282">
        <ele>334.977156</ele>
        <time>2022-06-11T09:37:35.011Z</time>
      </trkpt>
      <trkpt lat="42.9011" lon="17.92269">
        <ele>335.005587</ele>
        <time>2022-06-11T09:37:37.025Z</time>
      </trkpt>
      <trkpt lat="42.90114" lon="17.92257">
        <ele>335.032625</ele>
        <time>2022-06-11T09:37:39.023Z</time>
      </trkpt>
      <trkpt lat="42.90118" lon="17.92245">
        <ele>335.0604</ele>
        <time>2022-06-11T09:37:41.027Z</time>
      </trkpt>
      <trkpt lat="42.90122" lon="17.92233">
        <ele>335.087305</ele>
        <time>2022-06-11T09:37:43.020Z</time>
      </trkpt>
      <trkpt lat="42.90127" lon="17.92221">
        <ele>335.116303</ele>
        <time>2022-06-11T09:37:45.031Z</time>
      </trkpt>
      <trkpt lat="42.90132" lon="17.92209">
        <ele>335.14439</ele>
        <time>2022-06-11T09:37:47.021Z</time>
      </trkpt>
      <trkpt lat="42.90136" lon="17.92197">
        <ele>335.171603</ele>
        <time>2022-06-11T09:37:49.026Z</time>
      </trkpt>
      <trkpt lat="42.90139" lon="17.92184">
        <ele>335.198756</ele>
        <time>2022-06-11T09:37:51.032Z</time>
      </trkpt>
      <trkpt lat="42.90142" lon="17.92172">
        <ele>335.126888</ele>
        <time>2022-06-11T09:37:53.018Z</time>
      </trkpt>
      <trkpt lat="42.90143" lon="17.9216">
        <ele>334.983656</ele>
        <time>2022-06-11T09:37:55.028Z</time>
      </trkpt>
      <trkpt lat="42.90143" lon="17.92146">
        <ele>334.828818</ele>
        <time>2022-06-11T09:37:57.010Z</time>
      </trkpt>
      <trkpt lat="42.90144" lon="17.92133">
        <ele>334.675354</ele>
        <time>2022-06-11T09:37:59.055Z</time>
      </trkpt>
      <trkpt lat="42.90143" lon="17.9212">
        <ele>334.521527</ele>
        <time>2022-06-11T09:38:01.032Z</time>
      </trkpt>
      <trkpt lat="42.90141" lon="17.92106">
        <ele>334.362902</ele>
        <time>2022-06-11T09:38:03.019Z</time>
      </trkpt>
      <trkpt lat="42.90139" lon="17.92093">
        <ele>334.202911</ele>
        <time>2022-06-11T09:38:05.060Z</time>
      </trkpt>
      <trkpt lat="42.90134" lon="17.9208">
        <ele>334.035889</ele>
        <time>2022-06-11T09:38:07.022Z</time>
      </trkpt>
      <trkpt lat="42.90129" lon="17.92067">
        <ele>333.869237</ele>
        <time>2022-06-11T09:38:09.006Z</time>
      </trkpt>
      <trkpt lat="42.90123" lon="17.92056">
        <ele>333.713064</ele>
        <time>2022-06-11T09:38:11.046Z</time>
      </trkpt>
      <trkpt lat="42.90118" lon="17.92044">
        <ele>333.550048</ele>
        <time>2022-06-11T09:38:13.020Z</time>
      </trkpt>
      <trkpt lat="42.90113" lon="17.92031">
        <ele>333.384736</ele>
        <time>2022-06-11T09:38:15.020Z</time>
      </trkpt>
      <trkpt lat="42.90108" lon="17.92019">
        <ele>333.227283</ele>
        <time>2022-06-11T09:38:17.007Z</time>
      </trkpt>
      <trkpt lat="42.90102" lon="17.92008">
        <ele>333.066321</ele>
        <time>2022-06-11T09:38:19.022Z</time>
      </trkpt>
      <trkpt lat="42.90096" lon="17.91997">
        <ele>332.908354</ele>
        <time>2022-06-11T09:38:21.015Z</time>
      </trkpt>
      <trkpt lat="42.9009" lon="17.91986">
        <ele>332.750151</ele>
        <time>2022-06-11T09:38:23.028Z</time>
      </trkpt>
      <trkpt lat="42.90082" lon="17.91977">
        <ele>332.588835</ele>
        <time>2022-06-11T09:38:25.027Z</time>
      </trkpt>
      <trkpt lat="42.90074" lon="17.91968">
        <ele>332.424311</ele>
        <time>2022-06-11T09:38:27.026Z</time>
      </trkpt>
      <trkpt lat="42.90065" lon="17.91959">
        <ele>332.403002</ele>
        <time>2022-06-11T09:38:29.016Z</time>
      </trkpt>
      <trkpt lat="42.90058" lon="17.91951">
        <ele>332.428435</ele>
        <time>2022-06-11T09:38:31.065Z</time>
      </trkpt>
      <trkpt lat="42.90047" lon="17.91943">
        <ele>332.460453</ele>
        <time>2022-06-11T09:38:34.030Z</time>
      </trkpt>
      <trkpt lat="42.9004" lon="17.91936">
        <ele>332.484004</ele>
        <time>2022-06-11T09:38:37.024Z</time>
      </trkpt>
      <trkpt lat="42.90032" lon="17.91927">
        <ele>332.509201</ele>
        <time>2022-06-11T09:38:40.028Z</time>
      </trkpt>
      <trkpt lat="42.90024" lon="17.91918">
        <ele>332.536754</ele>
        <time>2022-06-11T09:38:43.025Z</time>
      </trkpt>
      <trkpt lat="42.90015" lon="17.91908">
        <ele>332.568102</ele>
        <time>2022-06-11T09:38:46.022Z</time>
      </trkpt>
      <trkpt lat="42.90004" lon="17.91897">
        <ele>332.602632</ele>
        <time>2022-06-11T09:38:49.028Z</time>
      </trkpt>
      <trkpt lat="42.89995" lon="17.91884">
        <ele>332.637462</ele>
        <time>2022-06-11T09:38:52.023Z</time>
      </trkpt>
      <trkpt lat="42.89988" lon="17.91876">
        <ele>332.661304</ele>
        <time>2022-06-11T09:38:54.028Z</time>
      </trkpt>
      <trkpt lat="42.89982" lon="17.91867">
        <ele>332.684959</ele>
        <time>2022-06-11T09:38:56.042Z</time>
      </trkpt>
      <trkpt lat="42.89975" lon="17.91859">
        <ele>332.709117</ele>
        <time>2022-06-11T09:38:58.018Z</time>
      </trkpt>
      <trkpt lat="42.89968" lon="17.9185">
        <ele>332.7337</ele>
        <time>2022-06-11T09:39:00.012Z</time>
      </trkpt>
      <trkpt lat="42.89961" lon="17.91841">
        <ele>332.757739</ele>
        <time>2022-06-11T09:39:02.064Z</time>
      </trkpt>
      <trkpt lat="42.89956" lon="17.91831">
        <ele>332.782912</ele>
        <time>2022-06-11T09:39:04.031Z</time>
      </trkpt>
      <trkpt lat="42.89948" lon="17.9182">
        <ele>332.810584</ele>
        <time>2022-06-11T09:39:06.011Z</time>
      </trkpt>
      <trkpt lat="42.89941" lon="17.91808">
        <ele>332.839948</ele>
        <time>2022-06-11T09:39:08.023Z</time>
      </trkpt>
      <trkpt lat="42.89935" lon="17.91796">
        <ele>332.878946</ele>
        <time>2022-06-11T09:39:10.025Z</time>
      </trkpt>
      <trkpt lat="42.89931" lon="17.91784">
        <ele>332.922752</ele>
        <time>2022-06-11T09:39:12.023Z</time>
      </trkpt>
      <trkpt lat="42.89928" lon="17.91772">
        <ele>332.963778</ele>
        <time>2022-06-11T09:39:14.023Z</time>
      </trkpt>
      <trkpt lat="42.89924" lon="17.91761">
        <ele>333.004912</ele>
        <time>2022-06-11T09:39:16.014Z</time>
      </trkpt>
      <trkpt lat="42.8992" lon="17.91749">
        <ele>333.04605</ele>
        <time>2022-06-11T09:39:18.062Z</time>
      </trkpt>
      <trkpt lat="42.89915" lon="17.91737">
        <ele>333.088744</ele>
        <time>2022-06-11T09:39:20.032Z</time>
      </trkpt>
      <trkpt lat="42.89911" lon="17.91726">
        <ele>333.131641</ele>
        <time>2022-06-11T09:39:22.007Z</time>
      </trkpt>
      <trkpt lat="42.89906" lon="17.91714">
        <ele>333.175173</ele>
        <time>2022-06-11T09:39:24.068Z</time>
      </trkpt>
      <trkpt lat="42.89902" lon="17.91702">
        <ele>333.219225</ele>
        <time>2022-06-11T09:39:26.032Z</time>
      </trkpt>
      <trkpt lat="42.89898" lon="17.91689">
        <ele>333.264195</ele>
        <time>2022-06-11T09:39:28.034Z</time>
      </trkpt>
      <trkpt lat="42.89895" lon="17.91676">
        <ele>333.308547</ele>
        <time>2022-06-11T09:39:30.046Z</time>
      </trkpt>
      <trkpt lat="42.89892" lon="17.91663">
        <ele>333.353782</ele>
        <time>2022-06-11T09:39:32.026Z</time>
      </trkpt>
      <trkpt lat="42.8989" lon="17.91649">
        <ele>333.399849</ele>
        <time>2022-06-11T09:39:34.030Z</time>
      </trkpt>
      <trkpt lat="42.89889" lon="17.91634">
        <ele>333.446442</ele>
        <time>2022-06-11T09:39:36.017Z</time>
      </trkpt>
      <trkpt lat="42.8989" lon="17.9162">
        <ele>333.491898</ele>
        <time>2022-06-11T09:39:38.030Z</time>
      </trkpt>
      <trkpt lat="42.89891" lon="17.91606">
        <ele>333.536961</ele>
        <time>2022-06-11T09:39:40.036Z</time>
      </trkpt>
      <trkpt lat="42.89893" lon="17.91593">
        <ele>333.581505</ele>
        <time>2022-06-11T09:39:42.052Z</time>
      </trkpt>
      <trkpt lat="42.89895" lon="17.9158">
        <ele>333.624945</ele>
        <time>2022-06-11T09:39:44.018Z</time>
      </trkpt>
      <trkpt lat="42.89897" lon="17.91567">
        <ele>333.677749</ele>
        <time>2022-06-11T09:39:46.071Z</time>
      </trkpt>
      <trkpt lat="42.899" lon="17.91555">
        <ele>333.745126</ele>
        <time>2022-06-11T09:39:48.010Z</time>
      </trkpt>
      <trkpt lat="42.89902" lon="17.91542">
        <ele>333.812789</ele>
        <time>2022-06-11T09:39:50.022Z</time>
      </trkpt>
      <trkpt lat="42.89904" lon="17.91529">
        <ele>333.8817</ele>
        <time>2022-06-11T09:39:52.023Z</time>
      </trkpt>
      <trkpt lat="42.89904" lon="17.91511">
        <ele>333.976876</ele>
        <time>2022-06-11T09:39:55.015Z</time>
      </trkpt>
      <trkpt lat="42.89904" lon="17.91492">
        <ele>334.07361</ele>
        <time>2022-06-11T09:39:58.029Z</time>
      </trkpt>
      <trkpt lat="42.89903" lon="17.9148">
        <ele>334.140377</ele>
        <time>2022-06-11T09:40:00.025Z</time>
      </trkpt>
      <trkpt lat="42.89901" lon="17.91467">
        <ele>334.206964</ele>
        <time>2022-06-11T09:40:02.032Z</time>
      </trkpt>
      <trkpt lat="42.89899" lon="17.91454">
        <ele>334.27463</ele>
        <time>2022-06-11T09:40:04.023Z</time>
      </trkpt>
      <trkpt lat="42.89897" lon="17.91441">
        <ele>334.34616</ele>
        <time>2022-06-11T09:40:06.012Z</time>
      </trkpt>
      <trkpt lat="42.89895" lon="17.91428">
        <ele>334.414181</ele>
        <time>2022-06-11T09:40:08.055Z</time>
      </trkpt>
      <trkpt lat="42.89892" lon="17.91415">
        <ele>334.48167</ele>
        <time>2022-06-11T09:40:10.033Z</time>
      </trkpt>
      <trkpt lat="42.8989" lon="17.91402">
        <ele>334.551523</ele>
        <time>2022-06-11T09:40:12.032Z</time>
      </trkpt>
      <trkpt lat="42.89888" lon="17.91389">
        <ele>334.624229</ele>
        <time>2022-06-11T09:40:14.025Z</time>
      </trkpt>
      <trkpt lat="42.89885" lon="17.91375">
        <ele>334.696465</ele>
        <time>2022-06-11T09:40:16.029Z</time>
      </trkpt>
      <trkpt lat="42.89884" lon="17.91361">
        <ele>334.770107</ele>
        <time>2022-06-11T09:40:18.035Z</time>
      </trkpt>
      <trkpt lat="42.89882" lon="17.91348">
        <ele>334.840275</ele>
        <time>2022-06-11T09:40:20.020Z</time>
      </trkpt>
      <trkpt lat="42.89881" lon="17.91335">
        <ele>334.906007</ele>
        <time>2022-06-11T09:40:22.031Z</time>
      </trkpt>
      <trkpt lat="42.89881" lon="17.91323">
        <ele>334.963668</ele>
        <time>2022-06-11T09:40:24.020Z</time>
      </trkpt>
      <trkpt lat="42.89882" lon="17.91305">
        <ele>335.04484</ele>
        <time>2022-06-11T09:40:27.022Z</time>
      </trkpt>
      <trkpt lat="42.89885" lon="17.91293">
        <ele>335.099491</ele>
        <time>2022-06-11T09:40:29.020Z</time>
      </trkpt>
      <trkpt lat="42.89888" lon="17.91281">
        <ele>335.154874</ele>
        <time>2022-06-11T09:40:31.025Z</time>
      </trkpt>
      <trkpt lat="42.89892" lon="17.91269">
        <ele>335.211664</ele>
        <time>2022-06-11T09:40:33.021Z</time>
      </trkpt>
      <trkpt lat="42.89896" lon="17.91258">
        <ele>335.266979</ele>
        <time>2022-06-11T09:40:35.019Z</time>
      </trkpt>
      <trkpt lat="42.89901" lon="17.91247">
        <ele>335.32241</ele>
        <time>2022-06-11T09:40:37.034Z</time>
      </trkpt>
      <trkpt lat="42.89906" lon="17.91237">
        <ele>335.37801</ele>
        <time>2022-06-11T09:40:39.028Z</time>
      </trkpt>
      <trkpt lat="42.89912" lon="17.91228">
        <ele>335.43422</ele>
        <time>2022-06-11T09:40:41.031Z</time>
      </trkpt>
      <trkpt lat="42.89922" lon="17.91215">
        <ele>335.514065</ele>
        <time>2022-06-11T09:40:44.021Z</time>
      </trkpt>
      <trkpt lat="42.89933" lon="17.91204">
        <ele>335.596745</ele>
        <time>2022-06-11T09:40:47.044Z</time>
      </trkpt>
      <trkpt lat="42.89942" lon="17.91197">
        <ele>335.658782</ele>
        <time>2022-06-11T09:40:49.010Z</time>
      </trkpt>
      <trkpt lat="42.89951" lon="17.91191">
        <ele>335.720814</ele>
        <time>2022-06-11T09:40:51.026Z</time>
      </trkpt>
      <trkpt lat="42.89961" lon="17.91187">
        <ele>335.785327</ele>
        <time>2022-06-11T09:40:53.019Z</time>
      </trkpt>
      <trkpt lat="42.89972" lon="17.91183">
        <ele>335.851771</ele>
        <time>2022-06-11T09:40:55.015Z</time>
      </trkpt>
      <trkpt lat="42.89981" lon="17.91179">
        <ele>335.912511</ele>
        <time>2022-06-11T09:40:57.019Z</time>
      </trkpt>
      <trkpt lat="42.89991" lon="17.91176">
        <ele>335.969946</ele>
        <time>2022-06-11T09:40:59.058Z</time>
      </trkpt>
      <trkpt lat="42.90003" lon="17.91171">
        <ele>335.908554</ele>
        <time>2022-06-11T09:41:02.032Z</time>
      </trkpt>
      <trkpt lat="42.90015" lon="17.91165">
        <ele>335.699025</ele>
        <time>2022-06-11T09:41:05.011Z</time>
      </trkpt>
      <trkpt lat="42.90024" lon="17.91162">
        <ele>335.541637</ele>
        <time>2022-06-11T09:41:07.028Z</time>
      </trkpt>
      <trkpt lat="42.90033" lon="17.91158">
        <ele>335.384332</ele>
        <time>2022-06-11T09:41:09.060Z</time>
      </trkpt>
      <trkpt lat="42.90043" lon="17.91154">
        <ele>335.207365</ele>
        <time>2022-06-11T09:41:11.021Z</time>
      </trkpt>
      <trkpt lat="42.90051" lon="17.91149">
        <ele>335.053226</ele>
        <time>2022-06-11T09:41:13.004Z</time>
      </trkpt>
      <trkpt lat="42.90061" lon="17.91137">
        <ele>334.836162</ele>
        <time>2022-06-11T09:41:16.030Z</time>
      </trkpt>
      <trkpt lat="42.90068" lon="17.91129">
        <ele>334.683642</ele>
        <time>2022-06-11T09:41:18.063Z</time>
      </trkpt>
      <trkpt lat="42.90078" lon="17.91119">
        <ele>334.474193</ele>
        <time>2022-06-11T09:41:21.020Z</time>
      </trkpt>
      <trkpt lat="42.90088" lon="17.91109">
        <ele>334.267152</ele>
        <time>2022-06-11T09:41:24.031Z</time>
      </trkpt>
      <trkpt lat="42.901" lon="17.911">
        <ele>334.041782</ele>
        <time>2022-06-11T09:41:27.028Z</time>
      </trkpt>
      <trkpt lat="42.90112" lon="17.91092">
        <ele>333.818132</ele>
        <time>2022-06-11T09:41:30.028Z</time>
      </trkpt>
      <trkpt lat="42.90121" lon="17.91087">
        <ele>333.659353</ele>
        <time>2022-06-11T09:41:32.015Z</time>
      </trkpt>
      <trkpt lat="42.9013" lon="17.91083">
        <ele>333.496082</ele>
        <time>2022-06-11T09:41:34.028Z</time>
      </trkpt>
      <trkpt lat="42.90139" lon="17.91079">
        <ele>333.337954</ele>
        <time>2022-06-11T09:41:36.023Z</time>
      </trkpt>
      <trkpt lat="42.90148" lon="17.91075">
        <ele>333.179034</ele>
        <time>2022-06-11T09:41:38.019Z</time>
      </trkpt>
      <trkpt lat="42.90161" lon="17.91074">
        <ele>332.975275</ele>
        <time>2022-06-11T09:41:41.014Z</time>
      </trkpt>
      <trkpt lat="42.90174" lon="17.91074">
        <ele>332.84263</ele>
        <time>2022-06-11T09:41:44.025Z</time>
      </trkpt>
      <trkpt lat="42.90186" lon="17.91074">
        <ele>332.717239</ele>
        <time>2022-06-11T09:41:47.027Z</time>
      </trkpt>
      <trkpt lat="42.90197" lon="17.91075">
        <ele>332.597139</ele>
        <time>2022-06-11T09:41:50.023Z</time>
      </trkpt>
      <trkpt lat="42.90209" lon="17.91072">
        <ele>332.466501</ele>
        <time>2022-06-11T09:41:53.026Z</time>
      </trkpt>
      <trkpt lat="42.90222" lon="17.9107">
        <ele>332.331828</ele>
        <time>2022-06-11T09:41:56.034Z</time>
      </trkpt>
      <trkpt lat="42.90234" lon="17.91067">
        <ele>332.199866</ele>
        <time>2022-06-11T09:41:59.056Z</time>
      </trkpt>
      <trkpt lat="42.90247" lon="17.91063">
        <ele>332.061099</ele>
        <time>2022-06-11T09:42:02.024Z</time>
      </trkpt>
      <trkpt lat="42.90256" lon="17.91061">
        <ele>331.965451</ele>
        <time>2022-06-11T09:42:04.028Z</time>
      </trkpt>
      <trkpt lat="42.90265" lon="17.91059">
        <ele>331.870981</ele>
        <time>2022-06-11T09:42:06.017Z</time>
      </trkpt>
      <trkpt lat="42.90278" lon="17.91055">
        <ele>331.728804</ele>
        <time>2022-06-11T09:42:09.041Z</time>
      </trkpt>
      <trkpt lat="42.90287" lon="17.91053">
        <ele>331.633722</ele>
        <time>2022-06-11T09:42:11.023Z</time>
      </trkpt>
      <trkpt lat="42.903" lon="17.9105">
        <ele>331.496215</ele>
        <time>2022-06-11T09:42:14.034Z</time>
      </trkpt>
      <trkpt lat="42.90312" lon="17.91047">
        <ele>331.369222</ele>
        <time>2022-06-11T09:42:17.027Z</time>
      </trkpt>
      <trkpt lat="42.90323" lon="17.91043">
        <ele>331.246743</ele>
        <time>2022-06-11T09:42:20.029Z</time>
      </trkpt>
      <trkpt lat="42.90335" lon="17.91037">
        <ele>331.119458</ele>
        <time>2022-06-11T09:42:23.029Z</time>
      </trkpt>
      <trkpt lat="42.90346" lon="17.91032">
        <ele>331.126559</ele>
        <time>2022-06-11T09:42:26.033Z</time>
      </trkpt>
      <trkpt lat="42.90358" lon="17.91026">
        <ele>331.142754</ele>
        <time>2022-06-11T09:42:29.024Z</time>
      </trkpt>
      <trkpt lat="42.90368" lon="17.91018">
        <ele>331.158689</ele>
        <time>2022-06-11T09:42:32.027Z</time>
      </trkpt>
      <trkpt lat="42.90378" lon="17.91006">
        <ele>331.175603</ele>
        <time>2022-06-11T09:42:35.025Z</time>
      </trkpt>
      <trkpt lat="42.90387" lon="17.90994">
        <ele>331.191679</ele>
        <time>2022-06-11T09:42:38.054Z</time>
      </trkpt>
      <trkpt lat="42.90397" lon="17.90983">
        <ele>331.208042</ele>
        <time>2022-06-11T09:42:41.032Z</time>
      </trkpt>
      <trkpt lat="42.90406" lon="17.90971">
        <ele>331.224921</ele>
        <time>2022-06-11T09:42:44.067Z</time>
      </trkpt>
      <trkpt lat="42.90416" lon="17.90959">
        <ele>331.242381</ele>
        <time>2022-06-11T09:42:47.025Z</time>
      </trkpt>
      <trkpt lat="42.90426" lon="17.90947">
        <ele>331.259387</ele>
        <time>2022-06-11T09:42:50.023Z</time>
      </trkpt>
      <trkpt lat="42.90436" lon="17.90936">
        <ele>331.276093</ele>
        <time>2022-06-11T09:42:53.022Z</time>
      </trkpt>
      <trkpt lat="42.90446" lon="17.90925">
        <ele>331.292926</ele>
        <time>2022-06-11T09:42:56.022Z</time>
      </trkpt>
      <trkpt lat="42.90456" lon="17.90914">
        <ele>331.309834</ele>
        <time>2022-06-11T09:42:59.044Z</time>
      </trkpt>
      <trkpt lat="42.90463" lon="17.90906">
        <ele>331.321749</ele>
        <time>2022-06-11T09:43:01.031Z</time>
      </trkpt>
      <trkpt lat="42.90473" lon="17.90895">
        <ele>331.338743</ele>
        <time>2022-06-11T09:43:04.039Z</time>
      </trkpt>
      <trkpt lat="42.90484" lon="17.90885">
        <ele>331.243982</ele>
        <time>2022-06-11T09:43:07.052Z</time>
      </trkpt>
      <trkpt lat="42.90493" lon="17.90873">
        <ele>331.063004</ele>
        <time>2022-06-11T09:43:10.018Z</time>
      </trkpt>
      <trkpt lat="42.90501" lon="17.90865">
        <ele>330.930761</ele>
        <time>2022-06-11T09:43:12.023Z</time>
      </trkpt>
      <trkpt lat="42.90508" lon="17.90857">
        <ele>330.80121</ele>
        <time>2022-06-11T09:43:14.006Z</time>
      </trkpt>
      <trkpt lat="42.90516" lon="17.90843">
        <ele>330.617333</ele>
        <time>2022-06-11T09:43:17.027Z</time>
      </trkpt>
      <trkpt lat="42.90521" lon="17.90833">
        <ele>330.488769</ele>
        <time>2022-06-11T09:43:19.027Z</time>
      </trkpt>
      <trkpt lat="42.90529" lon="17.9082">
        <ele>330.309885</ele>
        <time>2022-06-11T09:43:22.030Z</time>
      </trkpt>
      <trkpt lat="42.90538" lon="17.90806">
        <ele>330.121333</ele>
        <time>2022-06-11T09:43:25.026Z</time>
      </trkpt>
      <trkpt lat="42.90544" lon="17.90797">
        <ele>329.992155</ele>
        <time>2022-06-11T09:43:27.034Z</time>
      </trkpt>
      <trkpt lat="42.90552" lon="17.90783">
        <ele>329.808073</ele>
        <time>2022-06-11T09:43:30.020Z</time>
      </trkpt>
      <trkpt lat="42.90561" lon="17.9077">
        <ele>329.630548</ele>
        <time>2022-06-11T09:43:33.030Z</time>
      </trkpt>
      <trkpt lat="42.90569" lon="17.90758">
        <ele>329.455014</ele>
        <time>2022-06-11T09:43:36.033Z</time>
      </trkpt>
      <trkpt lat="42.90577" lon="17.90744">
        <ele>329.272369</ele>
        <time>2022-06-11T09:43:39.020Z</time>
      </trkpt>
      <trkpt lat="42.90583" lon="17.90735">
        <ele>329.145471</ele>
        <time>2022-06-11T09:43:41.030Z</time>
      </trkpt>
      <trkpt lat="42.9059" lon="17.90719">
        <ele>328.955752</ele>
        <time>2022-06-11T09:43:44.019Z</time>
      </trkpt>
      <trkpt lat="42.90595" lon="17.90708">
        <ele>328.823546</ele>
        <time>2022-06-11T09:43:46.057Z</time>
      </trkpt>
      <trkpt lat="42.90602" lon="17.90693">
        <ele>328.831192</ele>
        <time>2022-06-11T09:43:49.025Z</time>
      </trkpt>
      <trkpt lat="42.90606" lon="17.90681">
        <ele>328.851938</ele>
        <time>2022-06-11T09:43:51.031Z</time>
      </trkpt>
      <trkpt lat="42.9061" lon="17.90669">
        <ele>328.873124</ele>
        <time>2022-06-11T09:43:53.013Z</time>
      </trkpt>
      <trkpt lat="42.90614" lon="17.90657">
        <ele>328.894794</ele>
        <time>2022-06-11T09:43:55.032Z</time>
      </trkpt>
      <trkpt lat="42.90618" lon="17.90646">
        <ele>328.915931</ele>
        <time>2022-06-11T09:43:57.066Z</time>
      </trkpt>
      <trkpt lat="42.90624" lon="17.90635">
        <ele>328.936996</ele>
        <time>2022-06-11T09:43:59.023Z</time>
      </trkpt>
      <trkpt lat="42.90629" lon="17.90624">
        <ele>328.958335</ele>
        <time>2022-06-11T09:44:01.019Z</time>
      </trkpt>
      <trkpt lat="42.90634" lon="17.90613">
        <ele>328.979091</ele>
        <time>2022-06-11T09:44:03.026Z</time>
      </trkpt>
      <trkpt lat="42.9064" lon="17.90603">
        <ele>328.999901</ele>
        <time>2022-06-11T09:44:05.032Z</time>
      </trkpt>
      <trkpt lat="42.90646" lon="17.90593">
        <ele>329.020958</ele>
        <time>2022-06-11T09:44:07.030Z</time>
      </trkpt>
      <trkpt lat="42.90655" lon="17.90579">
        <ele>329.050336</ele>
        <time>2022-06-11T09:44:10.028Z</time>
      </trkpt>
      <trkpt lat="42.90663" lon="17.90565">
        <ele>329.079511</ele>
        <time>2022-06-11T09:44:13.026Z</time>
      </trkpt>
      <trkpt lat="42.90671" lon="17.9055">
        <ele>329.109424</ele>
        <time>2022-06-11T09:44:16.011Z</time>
      </trkpt>
      <trkpt lat="42.90675" lon="17.90539">
        <ele>329.129473</ele>
        <time>2022-06-11T09:44:18.025Z</time>
      </trkpt>
      <trkpt lat="42.90679" lon="17.90528">
        <ele>329.149926</ele>
        <time>2022-06-11T09:44:20.034Z</time>
      </trkpt>
      <trkpt lat="42.90683" lon="17.90516">
        <ele>329.170818</ele>
        <time>2022-06-11T09:44:22.012Z</time>
      </trkpt>
      <trkpt lat="42.90687" lon="17.90504">
        <ele>329.191824</ele>
        <time>2022-06-11T09:44:24.025Z</time>
      </trkpt>
      <trkpt lat="42.90691" lon="17.90493">
        <ele>329.180101</ele>
        <time>2022-06-11T09:44:26.023Z</time>
      </trkpt>
      <trkpt lat="42.90695" lon="17.90481">
        <ele>329.135024</ele>
        <time>2022-06-11T09:44:28.027Z</time>
      </trkpt>
      <trkpt lat="42.90699" lon="17.90469">
        <ele>329.089946</ele>
        <time>2022-06-11T09:44:30.056Z</time>
      </trkpt>
      <trkpt lat="42.90703" lon="17.90458">
        <ele>329.044562</ele>
        <time>2022-06-11T09:44:32.025Z</time>
      </trkpt>
      <trkpt lat="42.90707" lon="17.90447">
        <ele>329.000658</ele>
        <time>2022-06-11T09:44:34.033Z</time>
      </trkpt>
      <trkpt lat="42.90712" lon="17.90436">
        <ele>328.956535</ele>
        <time>2022-06-11T09:44:36.047Z</time>
      </trkpt>
      <trkpt lat="42.90717" lon="17.90425">
        <ele>328.911478</ele>
        <time>2022-06-11T09:44:38.032Z</time>
      </trkpt>
      <trkpt lat="42.90723" lon="17.90416">
        <ele>328.867833</ele>
        <time>2022-06-11T09:44:40.030Z</time>
      </trkpt>
      <trkpt lat="42.90728" lon="17.90406">
        <ele>328.823657</ele>
        <time>2022-06-11T09:44:42.026Z</time>
      </trkpt>
      <trkpt lat="42.90734" lon="17.90396">
        <ele>328.780286</ele>
        <time>2022-06-11T09:44:44.015Z</time>
      </trkpt>
      <trkpt lat="42.90743" lon="17.90383">
        <ele>328.716266</ele>
        <time>2022-06-11T09:44:47.061Z</time>
      </trkpt>
      <trkpt lat="42.90752" lon="17.90371">
        <ele>328.653773</ele>
        <time>2022-06-11T09:44:50.030Z</time>
      </trkpt>
      <trkpt lat="42.90759" lon="17.90362">
        <ele>328.607282</ele>
        <time>2022-06-11T09:44:52.032Z</time>
      </trkpt>
      <trkpt lat="42.90767" lon="17.90354">
        <ele>328.562964</ele>
        <time>2022-06-11T09:44:54.013Z</time>
      </trkpt>
      <trkpt lat="42.90774" lon="17.90347">
        <ele>328.518699</ele>
        <time>2022-06-11T09:44:56.027Z</time>
      </trkpt>
      <trkpt lat="42.90783" lon="17.90341">
        <ele>328.471702</ele>
        <time>2022-06-11T09:44:58.054Z</time>
      </trkpt>
      <trkpt lat="42.90792" lon="17.90336">
        <ele>328.422859</ele>
        <time>2022-06-11T09:45:00.028Z</time>
      </trkpt>
      <trkpt lat="42.90802" lon="17.90331">
        <ele>328.372892</ele>
        <time>2022-06-11T09:45:02.016Z</time>
      </trkpt>
      <trkpt lat="42.90811" lon="17.90328">
        <ele>328.337627</ele>
        <time>2022-06-11T09:45:04.068Z</time>
      </trkpt>
      <trkpt lat="42.9082" lon="17.90326">
        <ele>328.350179</ele>
        <time>2022-06-11T09:45:06.016Z</time>
      </trkpt>
      <trkpt lat="42.90833" lon="17.90326">
        <ele>328.366775</ele>
        <time>2022-06-11T09:45:09.019Z</time>
      </trkpt>
      <trkpt lat="42.90844" lon="17.90329">
        <ele>328.381685</ele>
        <time>2022-06-11T09:45:12.022Z</time>
      </trkpt>
      <trkpt lat="42.90853" lon="17.90332">
        <ele>328.394803</ele>
        <time>2022-06-11T09:45:15.031Z</time>
      </trkpt>
      <trkpt lat="42.90863" lon="17.90335">
        <ele>328.408265</ele>
        <time>2022-06-11T09:45:18.021Z</time>
      </trkpt>
      <trkpt lat="42.90872" lon="17.90339">
        <ele>328.421851</ele>
        <time>2022-06-11T09:45:21.025Z</time>
      </trkpt>
      <trkpt lat="42.90882" lon="17.90346">
        <ele>328.436472</ele>
        <time>2022-06-11T09:45:24.013Z</time>
      </trkpt>
      <trkpt lat="42.90892" lon="17.90353">
        <ele>328.451129</ele>
        <time>2022-06-11T09:45:27.023Z</time>
      </trkpt>
      <trkpt lat="42.90901" lon="17.9036">
        <ele>328.465765</ele>
        <time>2022-06-11T09:45:30.019Z</time>
      </trkpt>
      <trkpt lat="42.9091" lon="17.90367">
        <ele>328.47958</ele>
        <time>2022-06-11T09:45:33.021Z</time>
      </trkpt>
      <trkpt lat="42.90919" lon="17.90376">
        <ele>328.494909</ele>
        <time>2022-06-11T09:45:36.022Z</time>
      </trkpt>
      <trkpt lat="42.9093" lon="17.90385">
        <ele>328.511853</ele>
        <time>2022-06-11T09:45:39.013Z</time>
      </trkpt>
      <trkpt lat="42.9094" lon="17.90393">
        <ele>328.528337</ele>
        <time>2022-06-11T09:45:42.020Z</time>
      </trkpt>
      <trkpt lat="42.90951" lon="17.90401">
        <ele>328.544939</ele>
        <time>2022-06-11T09:45:45.038Z</time>
      </trkpt>
      <trkpt lat="42.90963" lon="17.90409">
        <ele>328.56201</ele>
        <time>2022-06-11T09:45:48.027Z</time>
      </trkpt>
      <trkpt lat="42.90974" lon="17.90417">
        <ele>328.562318</ele>
        <time>2022-06-11T09:45:51.022Z</time>
      </trkpt>
      <trkpt lat="42.90982" lon="17.90423">
        <ele>328.456676</ele>
        <time>2022-06-11T09:45:53.030Z</time>
      </trkpt>
      <trkpt lat="42.90994" lon="17.90431">
        <ele>328.306385</ele>
        <time>2022-06-11T09:45:56.024Z</time>
      </trkpt>
      <trkpt lat="42.91006" lon="17.90438">
        <ele>328.160645</ele>
        <time>2022-06-11T09:45:59.038Z</time>
      </trkpt>
      <trkpt lat="42.91016" lon="17.90446">
        <ele>328.023522</ele>
        <time>2022-06-11T09:46:02.020Z</time>
      </trkpt>
      <trkpt lat="42.91027" lon="17.90453">
        <ele>327.888826</ele>
        <time>2022-06-11T09:46:05.037Z</time>
      </trkpt>
      <trkpt lat="42.91038" lon="17.90459">
        <ele>327.755785</ele>
        <time>2022-06-11T09:46:08.027Z</time>
      </trkpt>
      <trkpt lat="42.91049" lon="17.90463">
        <ele>327.618645</ele>
        <time>2022-06-11T09:46:11.033Z</time>
      </trkpt>
      <trkpt lat="42.91061" lon="17.90467">
        <ele>327.482458</ele>
        <time>2022-06-11T09:46:14.017Z</time>
      </trkpt>
      <trkpt lat="42.91072" lon="17.90468">
        <ele>327.348803</ele>
        <time>2022-06-11T09:46:17.085Z</time>
      </trkpt>
      <trkpt lat="42.91084" lon="17.90467">
        <ele>327.214088</ele>
        <time>2022-06-11T09:46:20.026Z</time>
      </trkpt>
      <trkpt lat="42.91095" lon="17.90464">
        <ele>327.086252</ele>
        <time>2022-06-11T09:46:23.029Z</time>
      </trkpt>
      <trkpt lat="42.91106" lon="17.90461">
        <ele>326.958948</ele>
        <time>2022-06-11T09:46:26.031Z</time>
      </trkpt>
      <trkpt lat="42.91116" lon="17.90458">
        <ele>326.837094</ele>
        <time>2022-06-11T09:46:29.030Z</time>
      </trkpt>
      <trkpt lat="42.91127" lon="17.90454">
        <ele>326.713457</ele>
        <time>2022-06-11T09:46:32.011Z</time>
      </trkpt>
      <trkpt lat="42.91137" lon="17.9045">
        <ele>326.591942</ele>
        <time>2022-06-11T09:46:35.019Z</time>
      </trkpt>
      <trkpt lat="42.91147" lon="17.90445">
        <ele>326.537256</ele>
        <time>2022-06-11T09:46:38.025Z</time>
      </trkpt>
      <trkpt lat="42.91156" lon="17.90441">
        <ele>326.5889</ele>
        <time>2022-06-11T09:46:41.034Z</time>
      </trkpt>
      <trkpt lat="42.91166" lon="17.90436">
        <ele>326.641576</ele>
        <time>2022-06-11T09:46:44.017Z</time>
      </trkpt>
      <trkpt lat="42.91176" lon="17.9043">
        <ele>326.698063</ele>
        <time>2022-06-11T09:46:47.034Z</time>
      </trkpt>
      <trkpt lat="42.91185" lon="17.90424">
        <ele>326.752898</ele>
        <time>2022-06-11T09:46:50.062Z</time>
      </trkpt>
      <trkpt lat="42.91195" lon="17.90418">
        <ele>326.807408</ele>
        <time>2022-06-11T09:46:53.022Z</time>
      </trkpt>
      <trkpt lat="42.91205" lon="17.90413">
        <ele>326.862443</ele>
        <time>2022-06-11T09:46:56.077Z</time>
      </trkpt>
      <trkpt lat="42.91214" lon="17.90408">
        <ele>326.916794</ele>
        <time>2022-06-11T09:46:59.026Z</time>
      </trkpt>
      <trkpt lat="42.91224" lon="17.90403">
        <ele>326.971144</ele>
        <time>2022-06-11T09:47:02.025Z</time>
      </trkpt>
      <trkpt lat="42.91233" lon="17.90397">
        <ele>327.024573</ele>
        <time>2022-06-11T09:47:05.024Z</time>
      </trkpt>
      <trkpt lat="42.91242" lon="17.90389">
        <ele>327.077263</ele>
        <time>2022-06-11T09:47:08.009Z</time>
      </trkpt>
      <trkpt lat="42.9125" lon="17.9038">
        <ele>327.133582</ele>
        <time>2022-06-11T09:47:11.025Z</time>
      </trkpt>
      <trkpt lat="42.91258" lon="17.90371">
        <ele>327.187967</ele>
        <time>2022-06-11T09:47:14.042Z</time>
      </trkpt>
      <trkpt lat="42.91266" lon="17.90361">
        <ele>327.243825</ele>
        <time>2022-06-11T09:47:17.047Z</time>
      </trkpt>
      <trkpt lat="42.91274" lon="17.90351">
        <ele>327.298219</ele>
        <time>2022-06-11T09:47:20.028Z</time>
      </trkpt>
      <trkpt lat="42.91282" lon="17.9034">
        <ele>327.35553</ele>
        <time>2022-06-11T09:47:23.018Z</time>
      </trkpt>
      <trkpt lat="42.91289" lon="17.9033">
        <ele>327.409838</ele>
        <time>2022-06-11T09:47:26.018Z</time>
      </trkpt>
      <trkpt lat="42.91296" lon="17.9032">
        <ele>327.465938</ele>
        <time>2022-06-11T09:47:29.059Z</time>
      </trkpt>
      <trkpt lat="42.91303" lon="17.90309">
        <ele>327.539167</ele>
        <time>2022-06-11T09:47:32.030Z</time>
      </trkpt>
      <trkpt lat="42.9131" lon="17.90298">
        <ele>327.617981</ele>
        <time>2022-06-11T09:47:35.015Z</time>
      </trkpt>
      <trkpt lat="42.91318" lon="17.90287">
        <ele>327.696796</ele>
        <time>2022-06-11T09:47:38.032Z</time>
      </trkpt>
      <trkpt lat="42.91325" lon="17.90277">
        <ele>327.769372</ele>
        <time>2022-06-11T09:47:41.029Z</time>
      </trkpt>
      <trkpt lat="42.91333" lon="17.90267">
        <ele>327.845745</ele>
        <time>2022-06-11T09:47:44.019Z</time>
      </trkpt>
      <trkpt lat="42.91342" lon="17.90255">
        <ele>327.931433</ele>
        <time>2022-06-11T09:47:47.029Z</time>
      </trkpt>
      <trkpt lat="42.9135" lon="17.90243">
        <ele>328.01677</ele>
        <time>2022-06-11T09:47:50.019Z</time>
      </trkpt>
      <trkpt lat="42.91358" lon="17.9023">
        <ele>328.102513</ele>
        <time>2022-06-11T09:47:53.019Z</time>
      </trkpt>
      <trkpt lat="42.91365" lon="17.90217">
        <ele>328.184058</ele>
        <time>2022-06-11T09:47:56.022Z</time>
      </trkpt>
      <trkpt lat="42.91371" lon="17.90203">
        <ele>328.268969</ele>
        <time>2022-06-11T09:47:59.028Z</time>
      </trkpt>
      <trkpt lat="42.91378" lon="17.90189">
        <ele>328.351159</ele>
        <time>2022-06-11T09:48:02.025Z</time>
      </trkpt>
      <trkpt lat="42.91384" lon="17.90176">
        <ele>328.430804</ele>
        <time>2022-06-11T09:48:05.031Z</time>
      </trkpt>
      <trkpt lat="42.91389" lon="17.90163">
        <ele>328.509514</ele>
        <time>2022-06-11T09:48:08.053Z</time>
      </trkpt>
      <trkpt lat="42.91395" lon="17.9015">
        <ele>328.590095</ele>
        <time>2022-06-11T09:48:11.023Z</time>
      </trkpt>
      <trkpt lat="42.91401" lon="17.90136">
        <ele>328.669072</ele>
        <time>2022-06-11T09:48:14.057Z</time>
      </trkpt>
      <trkpt lat="42.91407" lon="17.90123">
        <ele>328.644046</ele>
        <time>2022-06-11T09:48:17.046Z</time>
      </trkpt>
      <trkpt lat="42.91412" lon="17.90109">
        <ele>328.481718</ele>
        <time>2022-06-11T09:48:20.055Z</time>
      </trkpt>
      <trkpt lat="42.91417" lon="17.90094">
        <ele>328.320317</ele>
        <time>2022-06-11T09:48:23.016Z</time>
      </trkpt>
      <trkpt lat="42.91422" lon="17.9008">
        <ele>328.162302</ele>
        <time>2022-06-11T09:48:26.012Z</time>
      </trkpt>
      <trkpt lat="42.91426" lon="17.90065">
        <ele>328.002094</ele>
        <time>2022-06-11T09:48:29.036Z</time>
      </trkpt>
      <trkpt lat="42.91429" lon="17.9005">
        <ele>327.843175</ele>
        <time>2022-06-11T09:48:32.016Z</time>
      </trkpt>
      <trkpt lat="42.91433" lon="17.90034">
        <ele>327.676382</ele>
        <time>2022-06-11T09:48:35.018Z</time>
      </trkpt>
      <trkpt lat="42.91436" lon="17.90018">
        <ele>327.516834</ele>
        <time>2022-06-11T09:48:38.026Z</time>
      </trkpt>
      <trkpt lat="42.91439" lon="17.90003">
        <ele>327.360448</ele>
        <time>2022-06-11T09:48:41.022Z</time>
      </trkpt>
      <trkpt lat="42.91443" lon="17.89988">
        <ele>327.195779</ele>
        <time>2022-06-11T09:48:44.020Z</time>
      </trkpt>
      <trkpt lat="42.91446" lon="17.89972">
        <ele>327.03207</ele>
        <time>2022-06-11T09:48:47.029Z</time>
      </trkpt>
      <trkpt lat="42.9145" lon="17.89957">
        <ele>326.873304</ele>
        <time>2022-06-11T09:48:50.014Z</time>
      </trkpt>
      <trkpt lat="42.91454" lon="17.89942">
        <ele>326.713129</ele>
        <time>2022-06-11T09:48:53.019Z</time>
      </trkpt>
      <trkpt lat="42.91458" lon="17.89927">
        <ele>326.556123</ele>
        <time>2022-06-11T09:48:56.033Z</time>
      </trkpt>
      <trkpt lat="42.9146" lon="17.89913">
        <ele>326.402398</ele>
        <time>2022-06-11T09:48:59.020Z</time>
      </trkpt>
      <trkpt lat="42.91462" lon="17.89897">
        <ele>326.246685</ele>
        <time>2022-06-11T09:49:02.038Z</time>
      </trkpt>
      <trkpt lat="42.91464" lon="17.89881">
        <ele>326.154071</ele>
        <time>2022-06-11T09:49:05.057Z</time>
      </trkpt>
      <trkpt lat="42.91465" lon="17.89866">
        <ele>326.061412</ele>
        <time>2022-06-11T09:49:08.022Z</time>
      </trkpt>
      <trkpt lat="42.91466" lon="17.8985">
        <ele>325.968753</ele>
        <time>2022-06-11T09:49:11.025Z</time>
      </trkpt>
      <trkpt lat="42.91467" lon="17.89834">
        <ele>325.874412</ele>
        <time>2022-06-11T09:49:14.017Z</time>
      </trkpt>
      <trkpt lat="42.91468" lon="17.89818">
        <ele>325.783042</ele>
        <time>2022-06-11T09:49:17.067Z</time>
      </trkpt>
      <trkpt lat="42.9147" lon="17.89802">
        <ele>325.686152</ele>
        <time>2022-06-11T09:49:20.023Z</time>
      </trkpt>
      <trkpt lat="42.91471" lon="17.89787">
        <ele>325.598165</ele>
        <time>2022-06-11T09:49:23.015Z</time>
      </trkpt>
      <trkpt lat="42.91473" lon="17.89771">
        <ele>325.506208</ele>
        <time>2022-06-11T09:49:26.024Z</time>
      </trkpt>
      <trkpt lat="42.91475" lon="17.89756">
        <ele>325.412385</ele>
        <time>2022-06-11T09:49:29.011Z</time>
      </trkpt>
      <trkpt lat="42.91478" lon="17.89739">
        <ele>325.315083</ele>
        <time>2022-06-11T09:49:32.020Z</time>
      </trkpt>
      <trkpt lat="42.9148" lon="17.89723">
        <ele>325.2214</ele>
        <time>2022-06-11T09:49:35.026Z</time>
      </trkpt>
      <trkpt lat="42.91482" lon="17.89707">
        <ele>325.12456</ele>
        <time>2022-06-11T09:49:38.052Z</time>
      </trkpt>
      <trkpt lat="42.91484" lon="17.89691">
        <ele>325.030018</ele>
        <time>2022-06-11T09:49:41.016Z</time>
      </trkpt>
      <trkpt lat="42.91486" lon="17.89676">
        <ele>324.938446</ele>
        <time>2022-06-11T09:49:44.027Z</time>
      </trkpt>
      <trkpt lat="42.91489" lon="17.89661">
        <ele>324.847724</ele>
        <time>2022-06-11T09:49:47.019Z</time>
      </trkpt>
      <trkpt lat="42.91493" lon="17.89646">
        <ele>324.878292</ele>
        <time>2022-06-11T09:49:50.012Z</time>
      </trkpt>
      <trkpt lat="42.91497" lon="17.89632">
        <ele>324.980879</ele>
        <time>2022-06-11T09:49:53.011Z</time>
      </trkpt>
      <trkpt lat="42.91501" lon="17.89617">
        <ele>325.084399</ele>
        <time>2022-06-11T09:49:56.083Z</time>
      </trkpt>
      <trkpt lat="42.91505" lon="17.89603">
        <ele>325.18905</ele>
        <time>2022-06-11T09:49:59.013Z</time>
      </trkpt>
      <trkpt lat="42.9151" lon="17.89588">
        <ele>325.297317</ele>
        <time>2022-06-11T09:50:02.019Z</time>
      </trkpt>
      <trkpt lat="42.91514" lon="17.89573">
        <ele>325.403337</ele>
        <time>2022-06-11T09:50:05.022Z</time>
      </trkpt>
      <trkpt lat="42.91517" lon="17.89558">
        <ele>325.508096</ele>
        <time>2022-06-11T09:50:08.026Z</time>
      </trkpt>
      <trkpt lat="42.91522" lon="17.89544">
        <ele>325.616183</ele>
        <time>2022-06-11T09:50:11.029Z</time>
      </trkpt>
      <trkpt lat="42.91526" lon="17.89529">
        <ele>325.723158</ele>
        <time>2022-06-11T09:50:14.028Z</time>
      </trkpt>
      <trkpt lat="42.9153" lon="17.89512">
        <ele>325.837762</ele>
        <time>2022-06-11T09:50:17.008Z</time>
      </trkpt>
      <trkpt lat="42.91534" lon="17.89498">
        <ele>325.94224</ele>
        <time>2022-06-11T09:50:20.016Z</time>
      </trkpt>
      <trkpt lat="42.91541" lon="17.89484">
        <ele>326.056422</ele>
        <time>2022-06-11T09:50:23.024Z</time>
      </trkpt>
      <trkpt lat="42.91547" lon="17.8947">
        <ele>326.164674</ele>
        <time>2022-06-11T09:50:26.017Z</time>
      </trkpt>
      <trkpt lat="42.91553" lon="17.89457">
        <ele>326.266941</ele>
        <time>2022-06-11T09:50:29.070Z</time>
      </trkpt>
      <trkpt lat="42.9156" lon="17.89445">
        <ele>326.368144</ele>
        <time>2022-06-11T09:50:32.024Z</time>
      </trkpt>
      <trkpt lat="42.91566" lon="17.89432">
        <ele>326.451327</ele>
        <time>2022-06-11T09:50:35.003Z</time>
      </trkpt>
      <trkpt lat="42.91572" lon="17.89418">
        <ele>326.375177</ele>
        <time>2022-06-11T09:50:38.014Z</time>
      </trkpt>
      <trkpt lat="42.91577" lon="17.89404">
        <ele>326.298232</ele>
        <time>2022-06-11T09:50:41.012Z</time>
      </trkpt>
      <trkpt lat="42.91583" lon="17.8939">
        <ele>326.219938</ele>
        <time>2022-06-11T09:50:44.016Z</time>
      </trkpt>
      <trkpt lat="42.91589" lon="17.89374">
        <ele>326.139066</ele>
        <time>2022-06-11T09:50:47.064Z</time>
      </trkpt>
      <trkpt lat="42.91592" lon="17.89359">
        <ele>326.06171</ele>
        <time>2022-06-11T09:50:50.026Z</time>
      </trkpt>
      <trkpt lat="42.91595" lon="17.89343">
        <ele>325.984421</ele>
        <time>2022-06-11T09:50:53.025Z</time>
      </trkpt>
      <trkpt lat="42.91598" lon="17.89327">
        <ele>325.908361</ele>
        <time>2022-06-11T09:50:56.025Z</time>
      </trkpt>
      <trkpt lat="42.91601" lon="17.89311">
        <ele>325.825993</ele>
        <time>2022-06-11T09:50:59.028Z</time>
      </trkpt>
      <trkpt lat="42.91604" lon="17.89294">
        <ele>325.743632</ele>
        <time>2022-06-11T09:51:02.031Z</time>
      </trkpt>
      <trkpt lat="42.91606" lon="17.89276">
        <ele>325.659152</ele>
        <time>2022-06-11T09:51:05.022Z</time>
      </trkpt>
      <trkpt lat="42.91609" lon="17.89259">
        <ele>325.577122</ele>
        <time>2022-06-11T09:51:08.104Z</time>
      </trkpt>
      <trkpt lat="42.91611" lon="17.89241">
        <ele>325.49089</ele>
        <time>2022-06-11T09:51:11.038Z</time>
      </trkpt>
      <trkpt lat="42.91614" lon="17.89224">
        <ele>325.406627</ele>
        <time>2022-06-11T09:51:14.027Z</time>
      </trkpt>
      <trkpt lat="42.91616" lon="17.89207">
        <ele>325.327008</ele>
        <time>2022-06-11T09:51:17.034Z</time>
      </trkpt>
      <trkpt lat="42.91619" lon="17.89191">
        <ele>325.266462</ele>
        <time>2022-06-11T09:51:20.022Z</time>
      </trkpt>
      <trkpt lat="42.91622" lon="17.89175">
        <ele>325.221168</ele>
        <time>2022-06-11T09:51:23.029Z</time>
      </trkpt>
      <trkpt lat="42.91625" lon="17.89158">
        <ele>325.174922</ele>
        <time>2022-06-11T09:51:26.017Z</time>
      </trkpt>
      <trkpt lat="42.91628" lon="17.89141">
        <ele>325.126284</ele>
        <time>2022-06-11T09:51:29.088Z</time>
      </trkpt>
      <trkpt lat="42.9163" lon="17.89129">
        <ele>325.092428</ele>
        <time>2022-06-11T09:51:31.034Z</time>
      </trkpt>
      <trkpt lat="42.91632" lon="17.89117">
        <ele>325.058452</ele>
        <time>2022-06-11T09:51:33.019Z</time>
      </trkpt>
      <trkpt lat="42.91634" lon="17.89099">
        <ele>325.008721</ele>
        <time>2022-06-11T09:51:36.024Z</time>
      </trkpt>
      <trkpt lat="42.91637" lon="17.89083">
        <ele>324.962288</ele>
        <time>2022-06-11T09:51:39.022Z</time>
      </trkpt>
      <trkpt lat="42.9164" lon="17.89066">
        <ele>324.915122</ele>
        <time>2022-06-11T09:51:42.023Z</time>
      </trkpt>
      <trkpt lat="42.91642" lon="17.89048">
        <ele>324.866195</ele>
        <time>2022-06-11T09:51:45.036Z</time>
      </trkpt>
      <trkpt lat="42.91645" lon="17.89031">
        <ele>324.817374</ele>
        <time>2022-06-11T09:51:48.005Z</time>
      </trkpt>
      <trkpt lat="42.91648" lon="17.89013">
        <ele>324.768554</ele>
        <time>2022-06-11T09:51:51.015Z</time>
      </trkpt>
      <trkpt lat="42.91651" lon="17.88997">
        <ele>324.721133</ele>
        <time>2022-06-11T09:51:54.022Z</time>
      </trkpt>
      <trkpt lat="42.91655" lon="17.8898">
        <ele>324.673138</ele>
        <time>2022-06-11T09:51:57.026Z</time>
      </trkpt>
      <trkpt lat="42.91659" lon="17.88963">
        <ele>324.623416</ele>
        <time>2022-06-11T09:52:00.008Z</time>
      </trkpt>
      <trkpt lat="42.91664" lon="17.88946">
        <ele>324.634713</ele>
        <time>2022-06-11T09:52:03.027Z</time>
      </trkpt>
      <trkpt lat="42.9167" lon="17.8893">
        <ele>324.647911</ele>
        <time>2022-06-11T09:52:06.035Z</time>
      </trkpt>
      <trkpt lat="42.91674" lon="17.88914">
        <ele>324.660503</ele>
        <time>2022-06-11T09:52:09.014Z</time>
      </trkpt>
      <trkpt lat="42.91678" lon="17.88898">
        <ele>324.673216</ele>
        <time>2022-06-11T09:52:12.016Z</time>
      </trkpt>
      <trkpt lat="42.91681" lon="17.88882">
        <ele>324.685385</ele>
        <time>2022-06-11T09:52:15.023Z</time>
      </trkpt>
      <trkpt lat="42.91685" lon="17.88866">
        <ele>324.69819</ele>
        <time>2022-06-11T09:52:18.056Z</time>
      </trkpt>
      <trkpt lat="42.91689" lon="17.8885">
        <ele>324.710777</ele>
        <time>2022-06-11T09:52:21.021Z</time>
      </trkpt>
      <trkpt lat="42.91693" lon="17.88834">
        <ele>324.723472</ele>
        <time>2022-06-11T09:52:24.015Z</time>
      </trkpt>
      <trkpt lat="42.91697" lon="17.88817">
        <ele>324.736451</ele>
        <time>2022-06-11T09:52:27.023Z</time>
      </trkpt>
      <trkpt lat="42.91701" lon="17.88801">
        <ele>324.749249</ele>
        <time>2022-06-11T09:52:30.023Z</time>
      </trkpt>
      <trkpt lat="42.91706" lon="17.88785">
        <ele>324.762221</ele>
        <time>2022-06-11T09:52:33.010Z</time>
      </trkpt>
      <trkpt lat="42.9171" lon="17.88769">
        <ele>324.774923</ele>
        <time>2022-06-11T09:52:36.005Z</time>
      </trkpt>
      <trkpt lat="42.91714" lon="17.88753">
        <ele>324.78776</ele>
        <time>2022-06-11T09:52:39.035Z</time>
      </trkpt>
      <trkpt lat="42.91717" lon="17.88736">
        <ele>324.800631</ele>
        <time>2022-06-11T09:52:42.037Z</time>
      </trkpt>
      <trkpt lat="42.91721" lon="17.8872">
        <ele>324.892278</ele>
        <time>2022-06-11T09:52:45.024Z</time>
      </trkpt>
      <trkpt lat="42.91726" lon="17.88705">
        <ele>325.02732</ele>
        <time>2022-06-11T09:52:48.030Z</time>
      </trkpt>
      <trkpt lat="42.91733" lon="17.88692">
        <ele>325.158059</ele>
        <time>2022-06-11T09:52:51.053Z</time>
      </trkpt>
      <trkpt lat="42.9174" lon="17.8868">
        <ele>325.287403</ele>
        <time>2022-06-11T09:52:54.020Z</time>
      </trkpt>
      <trkpt lat="42.91747" lon="17.88668">
        <ele>325.409044</ele>
        <time>2022-06-11T09:52:57.017Z</time>
      </trkpt>
      <trkpt lat="42.91754" lon="17.88658">
        <ele>325.520334</ele>
        <time>2022-06-11T09:53:01.007Z</time>
      </trkpt>
      <trkpt lat="42.91761" lon="17.88646">
        <ele>325.64726</ele>
        <time>2022-06-11T10:21:53.032Z</time>
      </trkpt>
      <trkpt lat="42.91764" lon="17.88634">
        <ele>325.751779</ele>
        <time>2022-06-11T10:21:57.039Z</time>
      </trkpt>
      <trkpt lat="42.91769" lon="17.88623">
        <ele>325.854801</ele>
        <time>2022-06-11T10:22:00.025Z</time>
      </trkpt>
      <trkpt lat="42.91774" lon="17.8861">
        <ele>325.976107</ele>
        <time>2022-06-11T10:22:03.015Z</time>
      </trkpt>
      <trkpt lat="42.91781" lon="17.88598">
        <ele>326.103521</ele>
        <time>2022-06-11T10:22:06.023Z</time>
      </trkpt>
      <trkpt lat="42.91789" lon="17.88586">
        <ele>326.232512</ele>
        <time>2022-06-11T10:22:09.023Z</time>
      </trkpt>
      <trkpt lat="42.91795" lon="17.88574">
        <ele>326.355892</ele>
        <time>2022-06-11T10:22:12.015Z</time>
      </trkpt>
      <trkpt lat="42.91802" lon="17.88562">
        <ele>326.481229</ele>
        <time>2022-06-11T10:22:15.005Z</time>
      </trkpt>
      <trkpt lat="42.91809" lon="17.88548">
        <ele>326.612518</ele>
        <time>2022-06-11T10:22:18.023Z</time>
      </trkpt>
      <trkpt lat="42.91815" lon="17.88535">
        <ele>326.743614</ele>
        <time>2022-06-11T10:22:21.023Z</time>
      </trkpt>
      <trkpt lat="42.91819" lon="17.8852">
        <ele>326.69263</ele>
        <time>2022-06-11T10:22:24.023Z</time>
      </trkpt>
      <trkpt lat="42.91823" lon="17.88505">
        <ele>326.442129</ele>
        <time>2022-06-11T10:22:27.019Z</time>
      </trkpt>
      <trkpt lat="42.91826" lon="17.88489">
        <ele>326.182714</ele>
        <time>2022-06-11T10:22:30.024Z</time>
      </trkpt>
      <trkpt lat="42.91827" lon="17.88471">
        <ele>325.896016</ele>
        <time>2022-06-11T10:22:33.020Z</time>
      </trkpt>
      <trkpt lat="42.91827" lon="17.88459">
        <ele>325.698521</ele>
        <time>2022-06-11T10:22:35.011Z</time>
      </trkpt>
      <trkpt lat="42.91827" lon="17.88446">
        <ele>325.496248</ele>
        <time>2022-06-11T10:22:39.014Z</time>
      </trkpt>
      <trkpt lat="42.91821" lon="17.88422">
        <ele>325.080498</ele>
        <time>2022-06-11T10:25:03.030Z</time>
      </trkpt>
      <trkpt lat="42.91818" lon="17.88409">
        <ele>324.876881</ele>
        <time>2022-06-11T10:25:06.025Z</time>
      </trkpt>
      <trkpt lat="42.91815" lon="17.88396">
        <ele>324.658534</ele>
        <time>2022-06-11T10:25:09.017Z</time>
      </trkpt>
      <trkpt lat="42.91811" lon="17.88383">
        <ele>324.436408</ele>
        <time>2022-06-11T10:25:12.027Z</time>
      </trkpt>
      <trkpt lat="42.91807" lon="17.88368">
        <ele>324.17677</ele>
        <time>2022-06-11T10:25:15.027Z</time>
      </trkpt>
      <trkpt lat="42.91803" lon="17.88352">
        <ele>323.902319</ele>
        <time>2022-06-11T10:25:18.013Z</time>
      </trkpt>
      <trkpt lat="42.918" lon="17.88336">
        <ele>323.637227</ele>
        <time>2022-06-11T10:25:21.022Z</time>
      </trkpt>
      <trkpt lat="42.91798" lon="17.88319">
        <ele>323.376589</ele>
        <time>2022-06-11T10:25:24.018Z</time>
      </trkpt>
      <trkpt lat="42.91797" lon="17.88303">
        <ele>323.115458</ele>
        <time>2022-06-11T10:25:27.048Z</time>
      </trkpt>
      <trkpt lat="42.91797" lon="17.88286">
        <ele>322.891675</ele>
        <time>2022-06-11T10:25:30.052Z</time>
      </trkpt>
      <trkpt lat="42.91798" lon="17.88269">
        <ele>322.838441</ele>
        <time>2022-06-11T10:25:33.024Z</time>
      </trkpt>
      <trkpt lat="42.918" lon="17.88252">
        <ele>322.78564</ele>
        <time>2022-06-11T10:25:36.061Z</time>
      </trkpt>
      <trkpt lat="42.91802" lon="17.88236">
        <ele>322.734629</ele>
        <time>2022-06-11T10:25:39.026Z</time>
      </trkpt>
      <trkpt lat="42.91804" lon="17.8822">
        <ele>322.685003</ele>
        <time>2022-06-11T10:25:42.023Z</time>
      </trkpt>
      <trkpt lat="42.91806" lon="17.88204">
        <ele>322.634232</ele>
        <time>2022-06-11T10:25:45.015Z</time>
      </trkpt>
      <trkpt lat="42.91808" lon="17.88187">
        <ele>322.582004</ele>
        <time>2022-06-11T10:25:48.015Z</time>
      </trkpt>
      <trkpt lat="42.91811" lon="17.8817">
        <ele>322.52891</ele>
        <time>2022-06-11T10:25:51.019Z</time>
      </trkpt>
      <trkpt lat="42.91814" lon="17.88154">
        <ele>322.476593</ele>
        <time>2022-06-11T10:25:54.018Z</time>
      </trkpt>
      <trkpt lat="42.91817" lon="17.88137">
        <ele>322.424994</ele>
        <time>2022-06-11T10:25:57.020Z</time>
      </trkpt>
      <trkpt lat="42.9182" lon="17.8812">
        <ele>322.369312</ele>
        <time>2022-06-11T10:26:00.025Z</time>
      </trkpt>
      <trkpt lat="42.91823" lon="17.88103">
        <ele>322.316418</ele>
        <time>2022-06-11T10:26:03.022Z</time>
      </trkpt>
      <trkpt lat="42.91827" lon="17.88086">
        <ele>322.262986</ele>
        <time>2022-06-11T10:26:06.022Z</time>
      </trkpt>
      <trkpt lat="42.91831" lon="17.8807">
        <ele>322.210413</ele>
        <time>2022-06-11T10:26:09.032Z</time>
      </trkpt>
      <trkpt lat="42.91837" lon="17.88055">
        <ele>322.156211</ele>
        <time>2022-06-11T10:26:12.017Z</time>
      </trkpt>
      <trkpt lat="42.91843" lon="17.8804">
        <ele>322.208306</ele>
        <time>2022-06-11T10:26:15.020Z</time>
      </trkpt>
      <trkpt lat="42.9185" lon="17.88026">
        <ele>322.287257</ele>
        <time>2022-06-11T10:26:18.020Z</time>
      </trkpt>
      <trkpt lat="42.91858" lon="17.88012">
        <ele>322.363687</ele>
        <time>2022-06-11T10:26:21.015Z</time>
      </trkpt>
      <trkpt lat="42.91865" lon="17.87999">
        <ele>322.440832</ele>
        <time>2022-06-11T10:26:24.012Z</time>
      </trkpt>
      <trkpt lat="42.91873" lon="17.87985">
        <ele>322.51767</ele>
        <time>2022-06-11T10:26:27.021Z</time>
      </trkpt>
      <trkpt lat="42.9188" lon="17.87972">
        <ele>322.593346</ele>
        <time>2022-06-11T10:26:30.019Z</time>
      </trkpt>
      <trkpt lat="42.91886" lon="17.87958">
        <ele>322.665186</ele>
        <time>2022-06-11T10:26:33.056Z</time>
      </trkpt>
      <trkpt lat="42.91891" lon="17.87943">
        <ele>322.739664</ele>
        <time>2022-06-11T10:26:36.021Z</time>
      </trkpt>
      <trkpt lat="42.91894" lon="17.87927">
        <ele>322.814143</ele>
        <time>2022-06-11T10:26:39.012Z</time>
      </trkpt>
      <trkpt lat="42.91898" lon="17.8791">
        <ele>322.891899</ele>
        <time>2022-06-11T10:26:42.022Z</time>
      </trkpt>
      <trkpt lat="42.91901" lon="17.87895">
        <ele>322.965728</ele>
        <time>2022-06-11T10:26:45.025Z</time>
      </trkpt>
      <trkpt lat="42.91906" lon="17.87879">
        <ele>323.042374</ele>
        <time>2022-06-11T10:26:48.016Z</time>
      </trkpt>
      <trkpt lat="42.9191" lon="17.87864">
        <ele>323.11644</ele>
        <time>2022-06-11T10:26:51.029Z</time>
      </trkpt>
      <trkpt lat="42.91916" lon="17.8785">
        <ele>323.18928</ele>
        <time>2022-06-11T10:26:54.040Z</time>
      </trkpt>
      <trkpt lat="42.91923" lon="17.87836">
        <ele>323.244482</ele>
        <time>2022-06-11T10:26:57.016Z</time>
      </trkpt>
      <trkpt lat="42.91928" lon="17.87822">
        <ele>323.140793</ele>
        <time>2022-06-11T10:27:00.023Z</time>
      </trkpt>
      <trkpt lat="42.91934" lon="17.87808">
        <ele>323.035224</ele>
        <time>2022-06-11T10:27:03.017Z</time>
      </trkpt>
      <trkpt lat="42.91941" lon="17.87794">
        <ele>322.926987</ele>
        <time>2022-06-11T10:27:06.014Z</time>
      </trkpt>
      <trkpt lat="42.91946" lon="17.87778">
        <ele>322.815377</ele>
        <time>2022-06-11T10:27:09.037Z</time>
      </trkpt>
      <trkpt lat="42.91951" lon="17.87762">
        <ele>322.702299</ele>
        <time>2022-06-11T10:27:12.020Z</time>
      </trkpt>
      <trkpt lat="42.91955" lon="17.87746">
        <ele>322.596648</ele>
        <time>2022-06-11T10:27:15.032Z</time>
      </trkpt>
      <trkpt lat="42.91958" lon="17.87731">
        <ele>322.492272</ele>
        <time>2022-06-11T10:27:18.018Z</time>
      </trkpt>
      <trkpt lat="42.91961" lon="17.87714">
        <ele>322.382679</ele>
        <time>2022-06-11T10:27:21.039Z</time>
      </trkpt>
      <trkpt lat="42.91965" lon="17.87698">
        <ele>322.270705</ele>
        <time>2022-06-11T10:27:24.019Z</time>
      </trkpt>
      <trkpt lat="42.91968" lon="17.87683">
        <ele>322.168673</ele>
        <time>2022-06-11T10:27:27.033Z</time>
      </trkpt>
      <trkpt lat="42.91973" lon="17.87669">
        <ele>322.069758</ele>
        <time>2022-06-11T10:27:30.082Z</time>
      </trkpt>
      <trkpt lat="42.91979" lon="17.87655">
        <ele>321.968863</ele>
        <time>2022-06-11T10:27:33.008Z</time>
      </trkpt>
      <trkpt lat="42.91986" lon="17.87642">
        <ele>321.861205</ele>
        <time>2022-06-11T10:27:36.018Z</time>
      </trkpt>
      <trkpt lat="42.91993" lon="17.87629">
        <ele>321.753975</ele>
        <time>2022-06-11T10:27:39.028Z</time>
      </trkpt>
      <trkpt lat="42.92" lon="17.87615">
        <ele>321.638726</ele>
        <time>2022-06-11T10:27:42.012Z</time>
      </trkpt>
      <trkpt lat="42.92007" lon="17.87602">
        <ele>321.467484</ele>
        <time>2022-06-11T10:27:45.020Z</time>
      </trkpt>
      <trkpt lat="42.92015" lon="17.87588">
        <ele>321.295362</ele>
        <time>2022-06-11T10:27:48.024Z</time>
      </trkpt>
      <trkpt lat="42.92022" lon="17.87576">
        <ele>321.132157</ele>
        <time>2022-06-11T10:27:51.016Z</time>
      </trkpt>
      <trkpt lat="42.9203" lon="17.87563">
        <ele>320.963147</ele>
        <time>2022-06-11T10:27:54.022Z</time>
      </trkpt>
      <trkpt lat="42.92038" lon="17.87551">
        <ele>320.790597</ele>
        <time>2022-06-11T10:27:57.031Z</time>
      </trkpt>
      <trkpt lat="42.92047" lon="17.87539">
        <ele>320.618557</ele>
        <time>2022-06-11T10:28:00.021Z</time>
      </trkpt>
      <trkpt lat="42.92056" lon="17.87527">
        <ele>320.452565</ele>
        <time>2022-06-11T10:28:03.060Z</time>
      </trkpt>
      <trkpt lat="42.92064" lon="17.87516">
        <ele>320.289708</ele>
        <time>2022-06-11T10:28:06.022Z</time>
      </trkpt>
      <trkpt lat="42.92072" lon="17.87505">
        <ele>320.124475</ele>
        <time>2022-06-11T10:28:09.012Z</time>
      </trkpt>
      <trkpt lat="42.9208" lon="17.87493">
        <ele>319.964907</ele>
        <time>2022-06-11T10:28:12.011Z</time>
      </trkpt>
      <trkpt lat="42.92087" lon="17.8748">
        <ele>319.796158</ele>
        <time>2022-06-11T10:28:15.016Z</time>
      </trkpt>
      <trkpt lat="42.92093" lon="17.87465">
        <ele>319.623562</ele>
        <time>2022-06-11T10:28:18.015Z</time>
      </trkpt>
      <trkpt lat="42.92099" lon="17.87451">
        <ele>319.45591</ele>
        <time>2022-06-11T10:28:21.020Z</time>
      </trkpt>
      <trkpt lat="42.92105" lon="17.87437">
        <ele>319.295114</ele>
        <time>2022-06-11T10:28:24.039Z</time>
      </trkpt>
      <trkpt lat="42.92111" lon="17.87423">
        <ele>319.202316</ele>
        <time>2022-06-11T10:28:27.020Z</time>
      </trkpt>
      <trkpt lat="42.92116" lon="17.87409">
        <ele>319.370699</ele>
        <time>2022-06-11T10:28:30.025Z</time>
      </trkpt>
      <trkpt lat="42.92121" lon="17.87394">
        <ele>319.549858</ele>
        <time>2022-06-11T10:28:33.023Z</time>
      </trkpt>
      <trkpt lat="42.92125" lon="17.87378">
        <ele>319.729672</ele>
        <time>2022-06-11T10:28:36.023Z</time>
      </trkpt>
      <trkpt lat="42.92129" lon="17.87363">
        <ele>319.906442</ele>
        <time>2022-06-11T10:28:39.028Z</time>
      </trkpt>
      <trkpt lat="42.92133" lon="17.87347">
        <ele>320.08372</ele>
        <time>2022-06-11T10:28:42.051Z</time>
      </trkpt>
      <trkpt lat="42.92138" lon="17.87333">
        <ele>320.253609</ele>
        <time>2022-06-11T10:28:45.013Z</time>
      </trkpt>
      <trkpt lat="42.92143" lon="17.87318">
        <ele>320.424226</ele>
        <time>2022-06-11T10:28:48.050Z</time>
      </trkpt>
      <trkpt lat="42.92148" lon="17.87305">
        <ele>320.593284</ele>
        <time>2022-06-11T10:28:51.031Z</time>
      </trkpt>
      <trkpt lat="42.92154" lon="17.87291">
        <ele>320.768859</ele>
        <time>2022-06-11T10:28:54.019Z</time>
      </trkpt>
      <trkpt lat="42.92162" lon="17.87278">
        <ele>320.945703</ele>
        <time>2022-06-11T10:28:57.027Z</time>
      </trkpt>
      <trkpt lat="42.92169" lon="17.87264">
        <ele>321.131984</ele>
        <time>2022-06-11T10:29:00.021Z</time>
      </trkpt>
      <trkpt lat="42.92176" lon="17.8725">
        <ele>321.309582</ele>
        <time>2022-06-11T10:29:03.028Z</time>
      </trkpt>
      <trkpt lat="42.92183" lon="17.87237">
        <ele>321.484688</ele>
        <time>2022-06-11T10:29:06.021Z</time>
      </trkpt>
      <trkpt lat="42.92189" lon="17.87223">
        <ele>321.662407</ele>
        <time>2022-06-11T10:29:09.017Z</time>
      </trkpt>
      <trkpt lat="42.92196" lon="17.87209">
        <ele>321.831749</ele>
        <time>2022-06-11T10:29:12.034Z</time>
      </trkpt>
      <trkpt lat="42.92202" lon="17.87195">
        <ele>321.957459</ele>
        <time>2022-06-11T10:29:15.018Z</time>
      </trkpt>
      <trkpt lat="42.92206" lon="17.87181">
        <ele>322.079884</ele>
        <time>2022-06-11T10:29:18.024Z</time>
      </trkpt>
      <trkpt lat="42.92212" lon="17.87167">
        <ele>322.205073</ele>
        <time>2022-06-11T10:29:21.022Z</time>
      </trkpt>
      <trkpt lat="42.92216" lon="17.87152">
        <ele>322.327944</ele>
        <time>2022-06-11T10:29:24.021Z</time>
      </trkpt>
      <trkpt lat="42.92221" lon="17.87137">
        <ele>322.45862</ele>
        <time>2022-06-11T10:29:27.086Z</time>
      </trkpt>
      <trkpt lat="42.92226" lon="17.87122">
        <ele>322.586175</ele>
        <time>2022-06-11T10:29:30.020Z</time>
      </trkpt>
      <trkpt lat="42.92232" lon="17.87108">
        <ele>322.710682</ele>
        <time>2022-06-11T10:29:33.020Z</time>
      </trkpt>
      <trkpt lat="42.92239" lon="17.87095">
        <ele>322.838169</ele>
        <time>2022-06-11T10:29:36.017Z</time>
      </trkpt>
      <trkpt lat="42.92246" lon="17.87081">
        <ele>322.968155</ele>
        <time>2022-06-11T10:29:39.018Z</time>
      </trkpt>
      <trkpt lat="42.92254" lon="17.87068">
        <ele>323.102644</ele>
        <time>2022-06-11T10:29:42.023Z</time>
      </trkpt>
      <trkpt lat="42.92262" lon="17.87054">
        <ele>323.23864</ele>
        <time>2022-06-11T10:29:45.019Z</time>
      </trkpt>
      <trkpt lat="42.92271" lon="17.87042">
        <ele>323.370411</ele>
        <time>2022-06-11T10:29:48.019Z</time>
      </trkpt>
      <trkpt lat="42.92278" lon="17.8703">
        <ele>323.495285</ele>
        <time>2022-06-11T10:29:51.018Z</time>
      </trkpt>
      <trkpt lat="42.92286" lon="17.87017">
        <ele>323.624083</ele>
        <time>2022-06-11T10:29:54.026Z</time>
      </trkpt>
      <trkpt lat="42.92293" lon="17.87003">
        <ele>323.733965</ele>
        <time>2022-06-11T10:29:57.024Z</time>
      </trkpt>
      <trkpt lat="42.92299" lon="17.86988">
        <ele>323.772688</ele>
        <time>2022-06-11T10:30:00.022Z</time>
      </trkpt>
      <trkpt lat="42.92305" lon="17.86974">
        <ele>323.810709</ele>
        <time>2022-06-11T10:30:03.015Z</time>
      </trkpt>
      <trkpt lat="42.9231" lon="17.86959">
        <ele>323.848906</ele>
        <time>2022-06-11T10:30:06.009Z</time>
      </trkpt>
      <trkpt lat="42.92315" lon="17.86944">
        <ele>323.886587</ele>
        <time>2022-06-11T10:30:09.030Z</time>
      </trkpt>
      <trkpt lat="42.92319" lon="17.86927">
        <ele>323.926039</ele>
        <time>2022-06-11T10:30:12.011Z</time>
      </trkpt>
      <trkpt lat="42.92322" lon="17.8691">
        <ele>323.966599</ele>
        <time>2022-06-11T10:30:15.021Z</time>
      </trkpt>
      <trkpt lat="42.92326" lon="17.86893">
        <ele>324.006636</ele>
        <time>2022-06-11T10:30:18.013Z</time>
      </trkpt>
      <trkpt lat="42.92329" lon="17.86876">
        <ele>324.048081</ele>
        <time>2022-06-11T10:30:21.013Z</time>
      </trkpt>
      <trkpt lat="42.92332" lon="17.86858">
        <ele>324.088777</ele>
        <time>2022-06-11T10:30:24.047Z</time>
      </trkpt>
      <trkpt lat="42.92335" lon="17.86842">
        <ele>324.12844</ele>
        <time>2022-06-11T10:30:27.028Z</time>
      </trkpt>
      <trkpt lat="42.9234" lon="17.86825">
        <ele>324.168967</ele>
        <time>2022-06-11T10:30:30.043Z</time>
      </trkpt>
      <trkpt lat="42.92344" lon="17.86814">
        <ele>324.197285</ele>
        <time>2022-06-11T10:30:32.021Z</time>
      </trkpt>
      <trkpt lat="42.92351" lon="17.86798">
        <ele>324.239166</ele>
        <time>2022-06-11T10:30:35.014Z</time>
      </trkpt>
      <trkpt lat="42.92358" lon="17.86783">
        <ele>324.280742</ele>
        <time>2022-06-11T10:30:38.018Z</time>
      </trkpt>
      <trkpt lat="42.92363" lon="17.86773">
        <ele>324.242353</ele>
        <time>2022-06-11T10:30:40.025Z</time>
      </trkpt>
      <trkpt lat="42.9237" lon="17.86758">
        <ele>324.157923</ele>
        <time>2022-06-11T10:30:43.049Z</time>
      </trkpt>
      <trkpt lat="42.92376" lon="17.86743">
        <ele>324.072555</ele>
        <time>2022-06-11T10:30:46.026Z</time>
      </trkpt>
      <trkpt lat="42.92381" lon="17.86728">
        <ele>323.991477</ele>
        <time>2022-06-11T10:30:49.017Z</time>
      </trkpt>
      <trkpt lat="42.92385" lon="17.86713">
        <ele>323.91072</ele>
        <time>2022-06-11T10:30:52.017Z</time>
      </trkpt>
      <trkpt lat="42.92388" lon="17.86697">
        <ele>323.82959</ele>
        <time>2022-06-11T10:30:55.020Z</time>
      </trkpt>
      <trkpt lat="42.92392" lon="17.8668">
        <ele>323.741672</ele>
        <time>2022-06-11T10:30:58.020Z</time>
      </trkpt>
      <trkpt lat="42.92397" lon="17.86663">
        <ele>323.655643</ele>
        <time>2022-06-11T10:31:01.025Z</time>
      </trkpt>
      <trkpt lat="42.92402" lon="17.86647">
        <ele>323.568573</ele>
        <time>2022-06-11T10:31:04.016Z</time>
      </trkpt>
      <trkpt lat="42.92407" lon="17.86632">
        <ele>323.484826</ele>
        <time>2022-06-11T10:31:07.023Z</time>
      </trkpt>
      <trkpt lat="42.92413" lon="17.86616">
        <ele>323.400065</ele>
        <time>2022-06-11T10:31:10.020Z</time>
      </trkpt>
      <trkpt lat="42.92419" lon="17.866">
        <ele>323.311579</ele>
        <time>2022-06-11T10:31:13.028Z</time>
      </trkpt>
      <trkpt lat="42.92424" lon="17.86585">
        <ele>323.228439</ele>
        <time>2022-06-11T10:31:16.027Z</time>
      </trkpt>
      <trkpt lat="42.9243" lon="17.8657">
        <ele>323.145863</ele>
        <time>2022-06-11T10:31:19.022Z</time>
      </trkpt>
      <trkpt lat="42.92435" lon="17.86555">
        <ele>323.082878</ele>
        <time>2022-06-11T10:31:22.055Z</time>
      </trkpt>
      <trkpt lat="42.9244" lon="17.86539">
        <ele>323.089651</ele>
        <time>2022-06-11T10:31:25.027Z</time>
      </trkpt>
      <trkpt lat="42.92445" lon="17.86523">
        <ele>323.096446</ele>
        <time>2022-06-11T10:31:28.044Z</time>
      </trkpt>
      <trkpt lat="42.92447" lon="17.86506">
        <ele>323.103129</ele>
        <time>2022-06-11T10:31:31.026Z</time>
      </trkpt>
      <trkpt lat="42.92448" lon="17.86488">
        <ele>323.11011</ele>
        <time>2022-06-11T10:31:34.024Z</time>
      </trkpt>
      <trkpt lat="42.92449" lon="17.86471">
        <ele>323.117113</ele>
        <time>2022-06-11T10:31:37.021Z</time>
      </trkpt>
      <trkpt lat="42.92449" lon="17.86452">
        <ele>323.124229</ele>
        <time>2022-06-11T10:31:40.027Z</time>
      </trkpt>
      <trkpt lat="42.92448" lon="17.8644">
        <ele>323.129024</ele>
        <time>2022-06-11T10:31:42.017Z</time>
      </trkpt>
      <trkpt lat="42.92447" lon="17.86428">
        <ele>323.133831</ele>
        <time>2022-06-11T10:31:44.018Z</time>
      </trkpt>
      <trkpt lat="42.92444" lon="17.8641">
        <ele>323.140973</ele>
        <time>2022-06-11T10:31:47.030Z</time>
      </trkpt>
      <trkpt lat="42.92441" lon="17.86394">
        <ele>323.147596</ele>
        <time>2022-06-11T10:31:50.025Z</time>
      </trkpt>
      <trkpt lat="42.92438" lon="17.86379">
        <ele>323.153616</ele>
        <time>2022-06-11T10:31:53.035Z</time>
      </trkpt>
      <trkpt lat="42.92434" lon="17.86364">
        <ele>323.159532</ele>
        <time>2022-06-11T10:31:56.020Z</time>
      </trkpt>
      <trkpt lat="42.9243" lon="17.86351">
        <ele>323.165475</ele>
        <time>2022-06-11T10:31:59.025Z</time>
      </trkpt>
      <trkpt lat="42.92424" lon="17.86337">
        <ele>323.171516</ele>
        <time>2022-06-11T10:32:02.057Z</time>
      </trkpt>
      <trkpt lat="42.92418" lon="17.86326">
        <ele>323.177006</ele>
        <time>2022-06-11T10:32:05.026Z</time>
      </trkpt>
      <trkpt lat="42.92411" lon="17.86314">
        <ele>323.305488</ele>
        <time>2022-06-11T10:32:08.049Z</time>
      </trkpt>
      <trkpt lat="42.92402" lon="17.86303">
        <ele>323.451432</ele>
        <time>2022-06-11T10:32:11.020Z</time>
      </trkpt>
      <trkpt lat="42.92392" lon="17.86292">
        <ele>323.600845</ele>
        <time>2022-06-11T10:32:14.015Z</time>
      </trkpt>
      <trkpt lat="42.92381" lon="17.86284">
        <ele>323.751012</ele>
        <time>2022-06-11T10:32:17.033Z</time>
      </trkpt>
      <trkpt lat="42.92371" lon="17.86277">
        <ele>323.884444</ele>
        <time>2022-06-11T10:32:20.058Z</time>
      </trkpt>
      <trkpt lat="42.9236" lon="17.86271">
        <ele>324.03046</ele>
        <time>2022-06-11T10:32:23.030Z</time>
      </trkpt>
      <trkpt lat="42.92349" lon="17.86266">
        <ele>324.172299</ele>
        <time>2022-06-11T10:32:26.020Z</time>
      </trkpt>
      <trkpt lat="42.92338" lon="17.86259">
        <ele>324.311589</ele>
        <time>2022-06-11T10:32:29.020Z</time>
      </trkpt>
      <trkpt lat="42.92328" lon="17.86253">
        <ele>324.446116</ele>
        <time>2022-06-11T10:32:32.030Z</time>
      </trkpt>
      <trkpt lat="42.92319" lon="17.86246">
        <ele>324.579333</ele>
        <time>2022-06-11T10:32:35.013Z</time>
      </trkpt>
      <trkpt lat="42.92307" lon="17.86236">
        <ele>324.742182</ele>
        <time>2022-06-11T10:32:38.022Z</time>
      </trkpt>
      <trkpt lat="42.92297" lon="17.86225">
        <ele>324.892461</ele>
        <time>2022-06-11T10:32:41.054Z</time>
      </trkpt>
      <trkpt lat="42.92289" lon="17.86214">
        <ele>325.039893</ele>
        <time>2022-06-11T10:32:44.023Z</time>
      </trkpt>
      <trkpt lat="42.92281" lon="17.86203">
        <ele>325.174171</ele>
        <time>2022-06-11T10:32:47.043Z</time>
      </trkpt>
      <trkpt lat="42.92272" lon="17.8619">
        <ele>325.326749</ele>
        <time>2022-06-11T10:32:50.021Z</time>
      </trkpt>
      <trkpt lat="42.92265" lon="17.86177">
        <ele>325.305864</ele>
        <time>2022-06-11T10:32:53.030Z</time>
      </trkpt>
      <trkpt lat="42.92258" lon="17.86165">
        <ele>325.256421</ele>
        <time>2022-06-11T10:32:56.019Z</time>
      </trkpt>
      <trkpt lat="42.92252" lon="17.86152">
        <ele>325.204239</ele>
        <time>2022-06-11T10:32:59.023Z</time>
      </trkpt>
      <trkpt lat="42.92245" lon="17.86138">
        <ele>325.1495</ele>
        <time>2022-06-11T10:33:02.052Z</time>
      </trkpt>
      <trkpt lat="42.92238" lon="17.86123">
        <ele>325.092141</ele>
        <time>2022-06-11T10:33:05.029Z</time>
      </trkpt>
      <trkpt lat="42.92231" lon="17.86108">
        <ele>325.033132</ele>
        <time>2022-06-11T10:33:08.027Z</time>
      </trkpt>
      <trkpt lat="42.92223" lon="17.86093">
        <ele>324.974151</ele>
        <time>2022-06-11T10:33:11.032Z</time>
      </trkpt>
      <trkpt lat="42.92217" lon="17.86078">
        <ele>324.917289</ele>
        <time>2022-06-11T10:33:14.037Z</time>
      </trkpt>
      <trkpt lat="42.92211" lon="17.86064">
        <ele>324.86562</ele>
        <time>2022-06-11T10:33:17.026Z</time>
      </trkpt>
      <trkpt lat="42.92205" lon="17.86051">
        <ele>324.817017</ele>
        <time>2022-06-11T10:33:20.020Z</time>
      </trkpt>
      <trkpt lat="42.922" lon="17.86038">
        <ele>324.767794</ele>
        <time>2022-06-11T10:33:23.030Z</time>
      </trkpt>
      <trkpt lat="42.92195" lon="17.86024">
        <ele>324.715328</ele>
        <time>2022-06-11T10:33:26.027Z</time>
      </trkpt>
      <trkpt lat="42.92192" lon="17.86009">
        <ele>324.665584</ele>
        <time>2022-06-11T10:33:29.023Z</time>
      </trkpt>
      <trkpt lat="42.92189" lon="17.85993">
        <ele>324.611334</ele>
        <time>2022-06-11T10:33:32.031Z</time>
      </trkpt>
      <trkpt lat="42.92185" lon="17.85977">
        <ele>324.556814</ele>
        <time>2022-06-11T10:33:35.023Z</time>
      </trkpt>
      <trkpt lat="42.92182" lon="17.85961">
        <ele>324.44621</ele>
        <time>2022-06-11T10:33:38.023Z</time>
      </trkpt>
      <trkpt lat="42.92181" lon="17.85945">
        <ele>324.329235</ele>
        <time>2022-06-11T10:33:41.036Z</time>
      </trkpt>
      <trkpt lat="42.92179" lon="17.85929">
        <ele>324.217012</ele>
        <time>2022-06-11T10:33:44.029Z</time>
      </trkpt>
      <trkpt lat="42.92179" lon="17.85913">
        <ele>324.103158</ele>
        <time>2022-06-11T10:33:47.059Z</time>
      </trkpt>
      <trkpt lat="42.92179" lon="17.85897">
        <ele>323.988779</ele>
        <time>2022-06-11T10:33:50.020Z</time>
      </trkpt>
      <trkpt lat="42.92178" lon="17.8588">
        <ele>323.868682</ele>
        <time>2022-06-11T10:33:53.029Z</time>
      </trkpt>
      <trkpt lat="42.92177" lon="17.85863">
        <ele>323.74678</ele>
        <time>2022-06-11T10:33:56.024Z</time>
      </trkpt>
      <trkpt lat="42.92177" lon="17.85846">
        <ele>323.619548</ele>
        <time>2022-06-11T10:33:59.022Z</time>
      </trkpt>
      <trkpt lat="42.92178" lon="17.85829">
        <ele>323.500038</ele>
        <time>2022-06-11T10:34:02.023Z</time>
      </trkpt>
      <trkpt lat="42.92178" lon="17.85812">
        <ele>323.382715</ele>
        <time>2022-06-11T10:34:05.012Z</time>
      </trkpt>
      <trkpt lat="42.92178" lon="17.85796">
        <ele>323.2676</ele>
        <time>2022-06-11T10:34:08.046Z</time>
      </trkpt>
      <trkpt lat="42.92178" lon="17.8578">
        <ele>323.147519</ele>
        <time>2022-06-11T10:34:11.025Z</time>
      </trkpt>
      <trkpt lat="42.92178" lon="17.85763">
        <ele>323.028089</ele>
        <time>2022-06-11T10:34:14.033Z</time>
      </trkpt>
      <trkpt lat="42.92176" lon="17.85747">
        <ele>322.911375</ele>
        <time>2022-06-11T10:34:17.016Z</time>
      </trkpt>
      <trkpt lat="42.92173" lon="17.85729">
        <ele>322.780326</ele>
        <time>2022-06-11T10:34:20.045Z</time>
      </trkpt>
      <trkpt lat="42.9217" lon="17.85713">
        <ele>322.613585</ele>
        <time>2022-06-11T10:34:23.045Z</time>
      </trkpt>
      <trkpt lat="42.92165" lon="17.85697">
        <ele>322.448285</ele>
        <time>2022-06-11T10:34:26.020Z</time>
      </trkpt>
      <trkpt lat="42.92159" lon="17.85682">
        <ele>322.276013</ele>
        <time>2022-06-11T10:34:29.025Z</time>
      </trkpt>
      <trkpt lat="42.92154" lon="17.85671">
        <ele>322.154938</ele>
        <time>2022-06-11T10:34:31.024Z</time>
      </trkpt>
      <trkpt lat="42.92148" lon="17.85655">
        <ele>321.982047</ele>
        <time>2022-06-11T10:34:34.053Z</time>
      </trkpt>
      <trkpt lat="42.92143" lon="17.8564">
        <ele>321.819157</ele>
        <time>2022-06-11T10:34:37.026Z</time>
      </trkpt>
      <trkpt lat="42.9214" lon="17.85628">
        <ele>321.69995</ele>
        <time>2022-06-11T10:34:39.019Z</time>
      </trkpt>
      <trkpt lat="42.92136" lon="17.85611">
        <ele>321.520287</ele>
        <time>2022-06-11T10:34:42.021Z</time>
      </trkpt>
      <trkpt lat="42.92133" lon="17.85599">
        <ele>321.399208</ele>
        <time>2022-06-11T10:34:44.016Z</time>
      </trkpt>
      <trkpt lat="42.92129" lon="17.85582">
        <ele>321.230795</ele>
        <time>2022-06-11T10:34:47.019Z</time>
      </trkpt>
      <trkpt lat="42.92127" lon="17.85565">
        <ele>321.058556</ele>
        <time>2022-06-11T10:34:50.024Z</time>
      </trkpt>
      <trkpt lat="42.92124" lon="17.85547">
        <ele>320.882953</ele>
        <time>2022-06-11T10:34:53.038Z</time>
      </trkpt>
      <trkpt lat="42.92123" lon="17.8553">
        <ele>320.716046</ele>
        <time>2022-06-11T10:34:56.029Z</time>
      </trkpt>
      <trkpt lat="42.92121" lon="17.85514">
        <ele>320.556653</ele>
        <time>2022-06-11T10:34:59.002Z</time>
      </trkpt>
      <trkpt lat="42.9212" lon="17.85498">
        <ele>320.405815</ele>
        <time>2022-06-11T10:35:02.018Z</time>
      </trkpt>
      <trkpt lat="42.92118" lon="17.85481">
        <ele>320.491044</ele>
        <time>2022-06-11T10:35:05.024Z</time>
      </trkpt>
      <trkpt lat="42.92117" lon="17.85469">
        <ele>320.551853</ele>
        <time>2022-06-11T10:35:07.028Z</time>
      </trkpt>
      <trkpt lat="42.92115" lon="17.85451">
        <ele>320.639295</ele>
        <time>2022-06-11T10:35:10.028Z</time>
      </trkpt>
      <trkpt lat="42.92113" lon="17.85438">
        <ele>320.702408</ele>
        <time>2022-06-11T10:35:12.022Z</time>
      </trkpt>
      <trkpt lat="42.92112" lon="17.85426">
        <ele>320.764409</ele>
        <time>2022-06-11T10:35:14.010Z</time>
      </trkpt>
      <trkpt lat="42.9211" lon="17.85412">
        <ele>320.830729</ele>
        <time>2022-06-11T10:35:16.027Z</time>
      </trkpt>
      <trkpt lat="42.92109" lon="17.85399">
        <ele>320.8969</ele>
        <time>2022-06-11T10:35:18.028Z</time>
      </trkpt>
      <trkpt lat="42.92108" lon="17.85386">
        <ele>320.957667</ele>
        <time>2022-06-11T10:35:20.025Z</time>
      </trkpt>
      <trkpt lat="42.92107" lon="17.85369">
        <ele>321.044109</ele>
        <time>2022-06-11T10:35:23.020Z</time>
      </trkpt>
      <trkpt lat="42.92108" lon="17.85351">
        <ele>321.130936</ele>
        <time>2022-06-11T10:35:26.037Z</time>
      </trkpt>
      <trkpt lat="42.92109" lon="17.85333">
        <ele>321.217563</ele>
        <time>2022-06-11T10:35:29.056Z</time>
      </trkpt>
      <trkpt lat="42.92111" lon="17.85316">
        <ele>321.305229</ele>
        <time>2022-06-11T10:35:32.022Z</time>
      </trkpt>
      <trkpt lat="42.92114" lon="17.85298">
        <ele>321.392728</ele>
        <time>2022-06-11T10:35:35.013Z</time>
      </trkpt>
      <trkpt lat="42.92118" lon="17.85282">
        <ele>321.476688</ele>
        <time>2022-06-11T10:35:38.020Z</time>
      </trkpt>
      <trkpt lat="42.92122" lon="17.85264">
        <ele>321.564644</ele>
        <time>2022-06-11T10:35:41.033Z</time>
      </trkpt>
      <trkpt lat="42.92126" lon="17.85247">
        <ele>321.649834</ele>
        <time>2022-06-11T10:35:44.028Z</time>
      </trkpt>
      <trkpt lat="42.9213" lon="17.8523">
        <ele>321.731294</ele>
        <time>2022-06-11T10:35:47.013Z</time>
      </trkpt>
      <trkpt lat="42.92133" lon="17.85213">
        <ele>321.808784</ele>
        <time>2022-06-11T10:35:50.010Z</time>
      </trkpt>
      <trkpt lat="42.92135" lon="17.85196">
        <ele>321.884531</ele>
        <time>2022-06-11T10:35:53.048Z</time>
      </trkpt>
      <trkpt lat="42.92135" lon="17.85178">
        <ele>321.964283</ele>
        <time>2022-06-11T10:35:56.015Z</time>
      </trkpt>
      <trkpt lat="42.92134" lon="17.8516">
        <ele>322.045482</ele>
        <time>2022-06-11T10:35:59.014Z</time>
      </trkpt>
      <trkpt lat="42.92134" lon="17.85148">
        <ele>322.101153</ele>
        <time>2022-06-11T10:36:01.034Z</time>
      </trkpt>
      <trkpt lat="42.92133" lon="17.85131">
        <ele>322.176616</ele>
        <time>2022-06-11T10:36:04.035Z</time>
      </trkpt>
      <trkpt lat="42.92132" lon="17.85116">
        <ele>322.244886</ele>
        <time>2022-06-11T10:36:07.033Z</time>
      </trkpt>
      <trkpt lat="42.92131" lon="17.851">
        <ele>322.317271</ele>
        <time>2022-06-11T10:36:10.008Z</time>
      </trkpt>
      <trkpt lat="42.9213" lon="17.85083">
        <ele>322.392062</ele>
        <time>2022-06-11T10:36:13.024Z</time>
      </trkpt>
      <trkpt lat="42.92128" lon="17.85066">
        <ele>322.469019</ele>
        <time>2022-06-11T10:36:16.016Z</time>
      </trkpt>
      <trkpt lat="42.92127" lon="17.85048">
        <ele>322.549044</ele>
        <time>2022-06-11T10:36:19.027Z</time>
      </trkpt>
      <trkpt lat="42.92126" lon="17.85031">
        <ele>322.627284</ele>
        <time>2022-06-11T10:36:22.025Z</time>
      </trkpt>
      <trkpt lat="42.92126" lon="17.85014">
        <ele>322.702161</ele>
        <time>2022-06-11T10:36:25.016Z</time>
      </trkpt>
      <trkpt lat="42.92125" lon="17.84998">
        <ele>322.809424</ele>
        <time>2022-06-11T10:36:28.023Z</time>
      </trkpt>
      <trkpt lat="42.92125" lon="17.84981">
        <ele>322.917062</ele>
        <time>2022-06-11T10:36:31.020Z</time>
      </trkpt>
      <trkpt lat="42.92123" lon="17.84964">
        <ele>323.028784</ele>
        <time>2022-06-11T10:36:34.023Z</time>
      </trkpt>
      <trkpt lat="42.9212" lon="17.84947">
        <ele>323.140014</ele>
        <time>2022-06-11T10:36:37.013Z</time>
      </trkpt>
      <trkpt lat="42.92116" lon="17.84931">
        <ele>323.250777</ele>
        <time>2022-06-11T10:36:40.033Z</time>
      </trkpt>
      <trkpt lat="42.92111" lon="17.84916">
        <ele>323.357222</ele>
        <time>2022-06-11T10:36:43.026Z</time>
      </trkpt>
      <trkpt lat="42.92106" lon="17.84902">
        <ele>323.456822</ele>
        <time>2022-06-11T10:36:46.024Z</time>
      </trkpt>
      <trkpt lat="42.92099" lon="17.8489">
        <ele>323.558303</ele>
        <time>2022-06-11T10:36:49.026Z</time>
      </trkpt>
      <trkpt lat="42.92092" lon="17.84876">
        <ele>323.667723</ele>
        <time>2022-06-11T10:36:52.030Z</time>
      </trkpt>
      <trkpt lat="42.92083" lon="17.84864">
        <ele>323.779825</ele>
        <time>2022-06-11T10:36:55.020Z</time>
      </trkpt>
      <trkpt lat="42.92075" lon="17.8485">
        <ele>323.893649</ele>
        <time>2022-06-11T10:36:58.015Z</time>
      </trkpt>
      <trkpt lat="42.92066" lon="17.84839">
        <ele>323.999668</ele>
        <time>2022-06-11T10:37:01.055Z</time>
      </trkpt>
      <trkpt lat="42.92057" lon="17.84829">
        <ele>324.103287</ele>
        <time>2022-06-11T10:37:04.020Z</time>
      </trkpt>
      <trkpt lat="42.92048" lon="17.84818">
        <ele>324.208985</ele>
        <time>2022-06-11T10:37:07.039Z</time>
      </trkpt>
      <trkpt lat="42.92039" lon="17.84807">
        <ele>324.326791</ele>
        <time>2022-06-11T10:37:10.010Z</time>
      </trkpt>
      <trkpt lat="42.92029" lon="17.84795">
        <ele>324.495421</ele>
        <time>2022-06-11T10:37:13.042Z</time>
      </trkpt>
      <trkpt lat="42.92023" lon="17.84785">
        <ele>324.610393</ele>
        <time>2022-06-11T10:37:15.020Z</time>
      </trkpt>
      <trkpt lat="42.92015" lon="17.84771">
        <ele>324.778204</ele>
        <time>2022-06-11T10:37:18.025Z</time>
      </trkpt>
      <trkpt lat="42.92006" lon="17.84758">
        <ele>324.943963</ele>
        <time>2022-06-11T10:37:21.024Z</time>
      </trkpt>
      <trkpt lat="42.91997" lon="17.84746">
        <ele>325.10991</ele>
        <time>2022-06-11T10:37:24.020Z</time>
      </trkpt>
      <trkpt lat="42.91989" lon="17.84733">
        <ele>325.265305</ele>
        <time>2022-06-11T10:37:27.016Z</time>
      </trkpt>
      <trkpt lat="42.91981" lon="17.84719">
        <ele>325.427746</ele>
        <time>2022-06-11T10:37:30.019Z</time>
      </trkpt>
      <trkpt lat="42.91973" lon="17.84705">
        <ele>325.593983</ele>
        <time>2022-06-11T10:37:33.019Z</time>
      </trkpt>
      <trkpt lat="42.91966" lon="17.8469">
        <ele>325.759873</ele>
        <time>2022-06-11T10:37:36.015Z</time>
      </trkpt>
      <trkpt lat="42.9196" lon="17.84674">
        <ele>325.923705</ele>
        <time>2022-06-11T10:37:39.019Z</time>
      </trkpt>
      <trkpt lat="42.91956" lon="17.84663">
        <ele>326.038208</ele>
        <time>2022-06-11T10:37:41.021Z</time>
      </trkpt>
      <trkpt lat="42.91952" lon="17.84652">
        <ele>326.153877</ele>
        <time>2022-06-11T10:37:43.026Z</time>
      </trkpt>
      <trkpt lat="42.9195" lon="17.84639">
        <ele>326.273524</ele>
        <time>2022-06-11T10:37:45.022Z</time>
      </trkpt>
      <trkpt lat="42.91947" lon="17.84627">
        <ele>326.387973</ele>
        <time>2022-06-11T10:37:47.024Z</time>
      </trkpt>
      <trkpt lat="42.91944" lon="17.84609">
        <ele>326.558614</ele>
        <time>2022-06-11T10:37:50.016Z</time>
      </trkpt>
      <trkpt lat="42.91942" lon="17.84592">
        <ele>326.517833</ele>
        <time>2022-06-11T10:37:53.020Z</time>
      </trkpt>
      <trkpt lat="42.91939" lon="17.84574">
        <ele>326.457962</ele>
        <time>2022-06-11T10:37:56.017Z</time>
      </trkpt>
      <trkpt lat="42.91937" lon="17.84557">
        <ele>326.39792</ele>
        <time>2022-06-11T10:37:59.033Z</time>
      </trkpt>
      <trkpt lat="42.91934" lon="17.8454">
        <ele>326.339244</ele>
        <time>2022-06-11T10:38:02.022Z</time>
      </trkpt>
      <trkpt lat="42.9193" lon="17.84523">
        <ele>326.278844</ele>
        <time>2022-06-11T10:38:05.022Z</time>
      </trkpt>
      <trkpt lat="42.91924" lon="17.84506">
        <ele>326.218045</ele>
        <time>2022-06-11T10:38:08.055Z</time>
      </trkpt>
      <trkpt lat="42.9192" lon="17.84495">
        <ele>326.17578</ele>
        <time>2022-06-11T10:38:10.025Z</time>
      </trkpt>
      <trkpt lat="42.91916" lon="17.84483">
        <ele>326.131799</ele>
        <time>2022-06-11T10:38:12.024Z</time>
      </trkpt>
      <trkpt lat="42.91912" lon="17.84471">
        <ele>326.087618</ele>
        <time>2022-06-11T10:38:14.020Z</time>
      </trkpt>
      <trkpt lat="42.91908" lon="17.84459">
        <ele>326.043134</ele>
        <time>2022-06-11T10:38:16.027Z</time>
      </trkpt>
      <trkpt lat="42.91903" lon="17.84443">
        <ele>325.983176</ele>
        <time>2022-06-11T10:38:19.044Z</time>
      </trkpt>
      <trkpt lat="42.91898" lon="17.84426">
        <ele>325.92242</ele>
        <time>2022-06-11T10:38:22.015Z</time>
      </trkpt>
      <trkpt lat="42.91894" lon="17.84415">
        <ele>325.880658</ele>
        <time>2022-06-11T10:38:24.008Z</time>
      </trkpt>
      <trkpt lat="42.9189" lon="17.84403">
        <ele>325.837981</ele>
        <time>2022-06-11T10:38:26.012Z</time>
      </trkpt>
      <trkpt lat="42.91885" lon="17.84387">
        <ele>325.776691</ele>
        <time>2022-06-11T10:38:29.024Z</time>
      </trkpt>
      <trkpt lat="42.9188" lon="17.84369">
        <ele>325.641315</ele>
        <time>2022-06-11T10:38:32.023Z</time>
      </trkpt>
      <trkpt lat="42.91878" lon="17.84358">
        <ele>325.5048</ele>
        <time>2022-06-11T10:38:34.016Z</time>
      </trkpt>
      <trkpt lat="42.91875" lon="17.84346">
        <ele>325.367224</ele>
        <time>2022-06-11T10:38:36.021Z</time>
      </trkpt>
      <trkpt lat="42.91872" lon="17.84328">
        <ele>325.168509</ele>
        <time>2022-06-11T10:38:39.026Z</time>
      </trkpt>
      <trkpt lat="42.91871" lon="17.84312">
        <ele>324.983661</ele>
        <time>2022-06-11T10:38:42.024Z</time>
      </trkpt>
      <trkpt lat="42.9187" lon="17.84297">
        <ele>324.818113</ele>
        <time>2022-06-11T10:38:45.020Z</time>
      </trkpt>
      <trkpt lat="42.91868" lon="17.8428">
        <ele>324.626456</ele>
        <time>2022-06-11T10:38:48.026Z</time>
      </trkpt>
      <trkpt lat="42.91867" lon="17.84263">
        <ele>324.43418</ele>
        <time>2022-06-11T10:38:51.047Z</time>
      </trkpt>
      <trkpt lat="42.91866" lon="17.84246">
        <ele>324.244733</ele>
        <time>2022-06-11T10:38:54.025Z</time>
      </trkpt>
      <trkpt lat="42.91865" lon="17.84233">
        <ele>324.105494</ele>
        <time>2022-06-11T10:38:56.037Z</time>
      </trkpt>
      <trkpt lat="42.91865" lon="17.84221">
        <ele>323.969591</ele>
        <time>2022-06-11T10:38:58.045Z</time>
      </trkpt>
      <trkpt lat="42.91865" lon="17.84204">
        <ele>323.777068</ele>
        <time>2022-06-11T10:39:01.032Z</time>
      </trkpt>
      <trkpt lat="42.91864" lon="17.84188">
        <ele>323.598695</ele>
        <time>2022-06-11T10:39:04.048Z</time>
      </trkpt>
      <trkpt lat="42.91864" lon="17.84173">
        <ele>323.433994</ele>
        <time>2022-06-11T10:39:07.030Z</time>
      </trkpt>
      <trkpt lat="42.91865" lon="17.84157">
        <ele>323.257633</ele>
        <time>2022-06-11T10:39:10.019Z</time>
      </trkpt>
      <trkpt lat="42.91866" lon="17.8414">
        <ele>323.063277</ele>
        <time>2022-06-11T10:39:13.021Z</time>
      </trkpt>
      <trkpt lat="42.91868" lon="17.84127">
        <ele>322.936137</ele>
        <time>2022-06-11T10:39:15.017Z</time>
      </trkpt>
      <trkpt lat="42.9187" lon="17.8411">
        <ele>322.761637</ele>
        <time>2022-06-11T10:39:18.022Z</time>
      </trkpt>
      <trkpt lat="42.91873" lon="17.84093">
        <ele>322.595775</ele>
        <time>2022-06-11T10:39:21.016Z</time>
      </trkpt>
      <trkpt lat="42.91877" lon="17.84077">
        <ele>322.427133</ele>
        <time>2022-06-11T10:39:24.017Z</time>
      </trkpt>
      <trkpt lat="42.91881" lon="17.84062">
        <ele>322.276382</ele>
        <time>2022-06-11T10:39:27.018Z</time>
      </trkpt>
      <trkpt lat="42.91886" lon="17.84049">
        <ele>322.131684</ele>
        <time>2022-06-11T10:39:30.020Z</time>
      </trkpt>
      <trkpt lat="42.91892" lon="17.84035">
        <ele>321.977886</ele>
        <time>2022-06-11T10:39:33.036Z</time>
      </trkpt>
      <trkpt lat="42.91898" lon="17.8402">
        <ele>321.80748</ele>
        <time>2022-06-11T10:39:36.019Z</time>
      </trkpt>
      <trkpt lat="42.91904" lon="17.84005">
        <ele>321.643238</ele>
        <time>2022-06-11T10:39:39.010Z</time>
      </trkpt>
      <trkpt lat="42.9191" lon="17.83991">
        <ele>321.483718</ele>
        <time>2022-06-11T10:39:42.047Z</time>
      </trkpt>
      <trkpt lat="42.91916" lon="17.83977">
        <ele>321.328038</ele>
        <time>2022-06-11T10:39:45.018Z</time>
      </trkpt>
      <trkpt lat="42.91921" lon="17.83962">
        <ele>321.168203</ele>
        <time>2022-06-11T10:39:48.014Z</time>
      </trkpt>
      <trkpt lat="42.91926" lon="17.83947">
        <ele>321.006035</ele>
        <time>2022-06-11T10:39:51.028Z</time>
      </trkpt>
      <trkpt lat="42.91932" lon="17.83932">
        <ele>320.84354</ele>
        <time>2022-06-11T10:39:54.021Z</time>
      </trkpt>
      <trkpt lat="42.91937" lon="17.83916">
        <ele>320.671269</ele>
        <time>2022-06-11T10:39:57.015Z</time>
      </trkpt>
      <trkpt lat="42.91942" lon="17.839">
        <ele>320.643491</ele>
        <time>2022-06-11T10:40:00.021Z</time>
      </trkpt>
      <trkpt lat="42.91947" lon="17.83884">
        <ele>320.6659</ele>
        <time>2022-06-11T10:40:03.015Z</time>
      </trkpt>
      <trkpt lat="42.91951" lon="17.83868">
        <ele>320.689428</ele>
        <time>2022-06-11T10:40:06.013Z</time>
      </trkpt>
      <trkpt lat="42.91955" lon="17.83852">
        <ele>320.711634</ele>
        <time>2022-06-11T10:40:09.021Z</time>
      </trkpt>
      <trkpt lat="42.91959" lon="17.83837">
        <ele>320.733835</ele>
        <time>2022-06-11T10:40:12.022Z</time>
      </trkpt>
      <trkpt lat="42.91964" lon="17.83822">
        <ele>320.756121</ele>
        <time>2022-06-11T10:40:15.049Z</time>
      </trkpt>
      <trkpt lat="42.91968" lon="17.83806">
        <ele>320.778385</ele>
        <time>2022-06-11T10:40:18.017Z</time>
      </trkpt>
      <trkpt lat="42.91971" lon="17.83791">
        <ele>320.800206</ele>
        <time>2022-06-11T10:40:21.050Z</time>
      </trkpt>
      <trkpt lat="42.91975" lon="17.83776">
        <ele>320.821705</ele>
        <time>2022-06-11T10:40:24.019Z</time>
      </trkpt>
      <trkpt lat="42.91979" lon="17.83761">
        <ele>320.843378</ele>
        <time>2022-06-11T10:40:27.019Z</time>
      </trkpt>
      <trkpt lat="42.91982" lon="17.83746">
        <ele>320.864433</ele>
        <time>2022-06-11T10:40:30.026Z</time>
      </trkpt>
      <trkpt lat="42.91987" lon="17.83731">
        <ele>320.885805</ele>
        <time>2022-06-11T10:40:33.019Z</time>
      </trkpt>
      <trkpt lat="42.91991" lon="17.83716">
        <ele>320.907304</ele>
        <time>2022-06-11T10:40:36.019Z</time>
      </trkpt>
      <trkpt lat="42.91996" lon="17.83701">
        <ele>320.929242</ele>
        <time>2022-06-11T10:40:39.043Z</time>
      </trkpt>
      <trkpt lat="42.92" lon="17.83686">
        <ele>320.951331</ele>
        <time>2022-06-11T10:40:42.012Z</time>
      </trkpt>
      <trkpt lat="42.92005" lon="17.83672">
        <ele>320.939392</ele>
        <time>2022-06-11T10:40:45.014Z</time>
      </trkpt>
      <trkpt lat="42.92012" lon="17.83658">
        <ele>320.910956</ele>
        <time>2022-06-11T10:40:48.019Z</time>
      </trkpt>
      <trkpt lat="42.92019" lon="17.83643">
        <ele>320.88068</ele>
        <time>2022-06-11T10:40:51.016Z</time>
      </trkpt>
      <trkpt lat="42.92026" lon="17.8363">
        <ele>320.852474</ele>
        <time>2022-06-11T10:40:54.024Z</time>
      </trkpt>
      <trkpt lat="42.92034" lon="17.83616">
        <ele>320.823297</ele>
        <time>2022-06-11T10:40:57.021Z</time>
      </trkpt>
      <trkpt lat="42.92041" lon="17.83603">
        <ele>320.795191</ele>
        <time>2022-06-11T10:41:00.019Z</time>
      </trkpt>
      <trkpt lat="42.92051" lon="17.83591">
        <ele>320.76583</ele>
        <time>2022-06-11T10:41:03.011Z</time>
      </trkpt>
      <trkpt lat="42.92059" lon="17.8358">
        <ele>320.73867</ele>
        <time>2022-06-11T10:41:06.020Z</time>
      </trkpt>
      <trkpt lat="42.92066" lon="17.83567">
        <ele>320.710805</ele>
        <time>2022-06-11T10:41:09.015Z</time>
      </trkpt>
      <trkpt lat="42.92074" lon="17.83555">
        <ele>320.684205</ele>
        <time>2022-06-11T10:41:12.062Z</time>
      </trkpt>
      <trkpt lat="42.9208" lon="17.83542">
        <ele>320.657365</ele>
        <time>2022-06-11T10:41:15.074Z</time>
      </trkpt>
      <trkpt lat="42.92087" lon="17.83528">
        <ele>320.629153</ele>
        <time>2022-06-11T10:41:18.017Z</time>
      </trkpt>
      <trkpt lat="42.92094" lon="17.83515">
        <ele>320.601086</ele>
        <time>2022-06-11T10:41:21.021Z</time>
      </trkpt>
      <trkpt lat="42.92101" lon="17.83501">
        <ele>320.572874</ele>
        <time>2022-06-11T10:41:24.024Z</time>
      </trkpt>
      <trkpt lat="42.92108" lon="17.83488">
        <ele>320.544802</ele>
        <time>2022-06-11T10:41:27.039Z</time>
      </trkpt>
      <trkpt lat="42.92115" lon="17.83474">
        <ele>320.51413</ele>
        <time>2022-06-11T10:41:30.030Z</time>
      </trkpt>
      <trkpt lat="42.92122" lon="17.8346">
        <ele>320.48318</ele>
        <time>2022-06-11T10:41:33.017Z</time>
      </trkpt>
      <trkpt lat="42.92129" lon="17.83446">
        <ele>320.451678</ele>
        <time>2022-06-11T10:41:36.019Z</time>
      </trkpt>
      <trkpt lat="42.92136" lon="17.83433">
        <ele>320.421249</ele>
        <time>2022-06-11T10:41:39.023Z</time>
      </trkpt>
      <trkpt lat="42.92143" lon="17.83419">
        <ele>320.390042</ele>
        <time>2022-06-11T10:41:42.018Z</time>
      </trkpt>
      <trkpt lat="42.9215" lon="17.83404">
        <ele>320.35707</ele>
        <time>2022-06-11T10:41:45.026Z</time>
      </trkpt>
      <trkpt lat="42.92158" lon="17.8339">
        <ele>320.324093</ele>
        <time>2022-06-11T10:41:48.030Z</time>
      </trkpt>
      <trkpt lat="42.92165" lon="17.83376">
        <ele>320.292126</ele>
        <time>2022-06-11T10:41:51.026Z</time>
      </trkpt>
      <trkpt lat="42.92172" lon="17.83361">
        <ele>320.26034</ele>
        <time>2022-06-11T10:41:54.020Z</time>
      </trkpt>
      <trkpt lat="42.92179" lon="17.83347">
        <ele>320.227666</ele>
        <time>2022-06-11T10:41:57.061Z</time>
      </trkpt>
      <trkpt lat="42.92186" lon="17.83333">
        <ele>320.196341</ele>
        <time>2022-06-11T10:42:00.028Z</time>
      </trkpt>
      <trkpt lat="42.92193" lon="17.83319">
        <ele>320.164839</ele>
        <time>2022-06-11T10:42:03.013Z</time>
      </trkpt>
      <trkpt lat="42.922" lon="17.83306">
        <ele>320.133655</ele>
        <time>2022-06-11T10:42:06.021Z</time>
      </trkpt>
      <trkpt lat="42.92207" lon="17.83292">
        <ele>320.102319</ele>
        <time>2022-06-11T10:42:09.014Z</time>
      </trkpt>
      <trkpt lat="42.92214" lon="17.83277">
        <ele>319.976757</ele>
        <time>2022-06-11T10:42:12.043Z</time>
      </trkpt>
      <trkpt lat="42.92221" lon="17.83263">
        <ele>319.735403</ele>
        <time>2022-06-11T10:42:15.021Z</time>
      </trkpt>
      <trkpt lat="42.92228" lon="17.8325">
        <ele>319.517188</ele>
        <time>2022-06-11T10:42:18.012Z</time>
      </trkpt>
      <trkpt lat="42.92234" lon="17.83238">
        <ele>319.296714</ele>
        <time>2022-06-11T10:42:21.022Z</time>
      </trkpt>
      <trkpt lat="42.92242" lon="17.83226">
        <ele>319.072338</ele>
        <time>2022-06-11T10:42:24.020Z</time>
      </trkpt>
      <trkpt lat="42.9225" lon="17.83214">
        <ele>318.842172</ele>
        <time>2022-06-11T10:42:27.038Z</time>
      </trkpt>
      <trkpt lat="42.92259" lon="17.83201">
        <ele>318.599258</ele>
        <time>2022-06-11T10:42:30.020Z</time>
      </trkpt>
      <trkpt lat="42.92268" lon="17.8319">
        <ele>318.360003</ele>
        <time>2022-06-11T10:42:33.017Z</time>
      </trkpt>
      <trkpt lat="42.92278" lon="17.8318">
        <ele>318.12993</ele>
        <time>2022-06-11T10:42:36.050Z</time>
      </trkpt>
      <trkpt lat="42.92286" lon="17.83171">
        <ele>317.926065</ele>
        <time>2022-06-11T10:42:39.014Z</time>
      </trkpt>
      <trkpt lat="42.92296" lon="17.83162">
        <ele>317.706042</ele>
        <time>2022-06-11T10:42:42.031Z</time>
      </trkpt>
      <trkpt lat="42.92306" lon="17.83154">
        <ele>317.465559</ele>
        <time>2022-06-11T10:42:45.015Z</time>
      </trkpt>
      <trkpt lat="42.92318" lon="17.83147">
        <ele>317.217752</ele>
        <time>2022-06-11T10:42:48.018Z</time>
      </trkpt>
      <trkpt lat="42.9233" lon="17.83141">
        <ele>316.979928</ele>
        <time>2022-06-11T10:42:51.015Z</time>
      </trkpt>
      <trkpt lat="42.92341" lon="17.83135">
        <ele>316.741749</ele>
        <time>2022-06-11T10:42:54.020Z</time>
      </trkpt>
      <trkpt lat="42.92352" lon="17.83127">
        <ele>316.723874</ele>
        <time>2022-06-11T10:42:57.029Z</time>
      </trkpt>
      <trkpt lat="42.92364" lon="17.83121">
        <ele>316.93043</ele>
        <time>2022-06-11T10:43:00.021Z</time>
      </trkpt>
      <trkpt lat="42.92376" lon="17.83114">
        <ele>317.131439</ele>
        <time>2022-06-11T10:43:03.021Z</time>
      </trkpt>
      <trkpt lat="42.92387" lon="17.83107">
        <ele>317.325971</ele>
        <time>2022-06-11T10:43:06.019Z</time>
      </trkpt>
      <trkpt lat="42.92398" lon="17.83101">
        <ele>317.52071</ele>
        <time>2022-06-11T10:43:09.054Z</time>
      </trkpt>
      <trkpt lat="42.92409" lon="17.83095">
        <ele>317.718738</ele>
        <time>2022-06-11T10:43:12.010Z</time>
      </trkpt>
      <trkpt lat="42.9242" lon="17.83089">
        <ele>317.91048</ele>
        <time>2022-06-11T10:43:15.017Z</time>
      </trkpt>
      <trkpt lat="42.92431" lon="17.83082">
        <ele>318.109545</ele>
        <time>2022-06-11T10:43:18.016Z</time>
      </trkpt>
      <trkpt lat="42.92443" lon="17.83075">
        <ele>318.311414</ele>
        <time>2022-06-11T10:43:21.024Z</time>
      </trkpt>
      <trkpt lat="42.92454" lon="17.83068">
        <ele>318.508419</ele>
        <time>2022-06-11T10:43:24.032Z</time>
      </trkpt>
      <trkpt lat="42.92464" lon="17.83061">
        <ele>318.690445</ele>
        <time>2022-06-11T10:43:27.045Z</time>
      </trkpt>
      <trkpt lat="42.92473" lon="17.83053">
        <ele>318.871322</ele>
        <time>2022-06-11T10:43:30.018Z</time>
      </trkpt>
      <trkpt lat="42.92484" lon="17.83046">
        <ele>319.062522</ele>
        <time>2022-06-11T10:43:33.024Z</time>
      </trkpt>
      <trkpt lat="42.92494" lon="17.83038">
        <ele>319.253892</ele>
        <time>2022-06-11T10:43:36.016Z</time>
      </trkpt>
      <trkpt lat="42.92503" lon="17.83027">
        <ele>319.447531</ele>
        <time>2022-06-11T10:43:39.012Z</time>
      </trkpt>
      <trkpt lat="42.92513" lon="17.83019">
        <ele>319.524481</ele>
        <time>2022-06-11T10:43:41.999Z</time>
      </trkpt>
      <trkpt lat="42.92523" lon="17.8301">
        <ele>319.514672</ele>
        <time>2022-06-11T10:43:45.021Z</time>
      </trkpt>
      <trkpt lat="42.92533" lon="17.83003">
        <ele>319.505279</ele>
        <time>2022-06-11T10:43:48.010Z</time>
      </trkpt>
      <trkpt lat="42.92542" lon="17.82994">
        <ele>319.495831</ele>
        <time>2022-06-11T10:43:51.025Z</time>
      </trkpt>
      <trkpt lat="42.92551" lon="17.82985">
        <ele>319.486166</ele>
        <time>2022-06-11T10:43:54.018Z</time>
      </trkpt>
      <trkpt lat="42.92561" lon="17.82979">
        <ele>319.476902</ele>
        <time>2022-06-11T10:43:57.027Z</time>
      </trkpt>
      <trkpt lat="42.92572" lon="17.82971">
        <ele>319.46719</ele>
        <time>2022-06-11T10:44:00.049Z</time>
      </trkpt>
      <trkpt lat="42.92582" lon="17.82964">
        <ele>319.457591</ele>
        <time>2022-06-11T10:44:03.021Z</time>
      </trkpt>
      <trkpt lat="42.92592" lon="17.82957">
        <ele>319.448188</ele>
        <time>2022-06-11T10:44:06.048Z</time>
      </trkpt>
      <trkpt lat="42.92602" lon="17.8295">
        <ele>319.43852</ele>
        <time>2022-06-11T10:44:09.025Z</time>
      </trkpt>
      <trkpt lat="42.92611" lon="17.82942">
        <ele>319.429423</ele>
        <time>2022-06-11T10:44:12.033Z</time>
      </trkpt>
      <trkpt lat="42.9262" lon="17.82936">
        <ele>319.420468</ele>
        <time>2022-06-11T10:44:15.024Z</time>
      </trkpt>
      <trkpt lat="42.9263" lon="17.82929">
        <ele>319.411793</ele>
        <time>2022-06-11T10:44:18.015Z</time>
      </trkpt>
      <trkpt lat="42.92639" lon="17.82921">
        <ele>319.402243</ele>
        <time>2022-06-11T10:44:21.019Z</time>
      </trkpt>
      <trkpt lat="42.92649" lon="17.82913">
        <ele>319.392663</ele>
        <time>2022-06-11T10:44:24.027Z</time>
      </trkpt>
      <trkpt lat="42.92658" lon="17.82905">
        <ele>319.383425</ele>
        <time>2022-06-11T10:44:27.019Z</time>
      </trkpt>
      <trkpt lat="42.92667" lon="17.82896">
        <ele>319.390624</ele>
        <time>2022-06-11T10:44:30.016Z</time>
      </trkpt>
      <trkpt lat="42.92677" lon="17.82887">
        <ele>319.415972</ele>
        <time>2022-06-11T10:44:33.013Z</time>
      </trkpt>
      <trkpt lat="42.92686" lon="17.82878">
        <ele>319.441145</ele>
        <time>2022-06-11T10:44:36.054Z</time>
      </trkpt>
      <trkpt lat="42.92696" lon="17.82867">
        <ele>319.46718</ele>
        <time>2022-06-11T10:44:39.019Z</time>
      </trkpt>
      <trkpt lat="42.92704" lon="17.82858">
        <ele>319.490987</ele>
        <time>2022-06-11T10:44:42.047Z</time>
      </trkpt>
      <trkpt lat="42.92713" lon="17.82849">
        <ele>319.514728</ele>
        <time>2022-06-11T10:44:45.018Z</time>
      </trkpt>
      <trkpt lat="42.92722" lon="17.8284">
        <ele>319.538105</ele>
        <time>2022-06-11T10:44:48.042Z</time>
      </trkpt>
      <trkpt lat="42.92731" lon="17.82832">
        <ele>319.562384</ele>
        <time>2022-06-11T10:44:51.027Z</time>
      </trkpt>
      <trkpt lat="42.92741" lon="17.82825">
        <ele>319.587027</ele>
        <time>2022-06-11T10:44:54.050Z</time>
      </trkpt>
      <trkpt lat="42.92751" lon="17.82817">
        <ele>319.61282</ele>
        <time>2022-06-11T10:44:57.023Z</time>
      </trkpt>
      <trkpt lat="42.92762" lon="17.8281">
        <ele>319.638312</ele>
        <time>2022-06-11T10:45:00.062Z</time>
      </trkpt>
      <trkpt lat="42.92773" lon="17.82804">
        <ele>319.663691</ele>
        <time>2022-06-11T10:45:03.019Z</time>
      </trkpt>
      <trkpt lat="42.92783" lon="17.82799">
        <ele>319.6873</ele>
        <time>2022-06-11T10:45:06.049Z</time>
      </trkpt>
      <trkpt lat="42.92794" lon="17.82794">
        <ele>319.71228</ele>
        <time>2022-06-11T10:45:09.015Z</time>
      </trkpt>
      <trkpt lat="42.92804" lon="17.82787">
        <ele>319.737244</ele>
        <time>2022-06-11T10:45:12.019Z</time>
      </trkpt>
      <trkpt lat="42.92815" lon="17.8278">
        <ele>319.763865</ele>
        <time>2022-06-11T10:45:15.054Z</time>
      </trkpt>
      <trkpt lat="42.92826" lon="17.82772">
        <ele>319.682875</ele>
        <time>2022-06-11T10:45:18.007Z</time>
      </trkpt>
      <trkpt lat="42.92838" lon="17.82764">
        <ele>319.565658</ele>
        <time>2022-06-11T10:45:21.023Z</time>
      </trkpt>
      <trkpt lat="42.92849" lon="17.82757">
        <ele>319.453522</ele>
        <time>2022-06-11T10:45:24.007Z</time>
      </trkpt>
      <trkpt lat="42.92861" lon="17.82749">
        <ele>319.332488</ele>
        <time>2022-06-11T10:45:27.019Z</time>
      </trkpt>
      <trkpt lat="42.92873" lon="17.82741">
        <ele>319.213791</ele>
        <time>2022-06-11T10:45:30.016Z</time>
      </trkpt>
      <trkpt lat="42.92884" lon="17.82734">
        <ele>319.101498</ele>
        <time>2022-06-11T10:45:33.019Z</time>
      </trkpt>
      <trkpt lat="42.92895" lon="17.82726">
        <ele>318.990996</ele>
        <time>2022-06-11T10:45:36.011Z</time>
      </trkpt>
      <trkpt lat="42.92907" lon="17.82718">
        <ele>318.870943</ele>
        <time>2022-06-11T10:45:39.018Z</time>
      </trkpt>
      <trkpt lat="42.92915" lon="17.82712">
        <ele>318.788613</ele>
        <time>2022-06-11T10:45:41.032Z</time>
      </trkpt>
      <trkpt lat="42.92922" lon="17.82705">
        <ele>318.70652</ele>
        <time>2022-06-11T10:45:43.026Z</time>
      </trkpt>
      <trkpt lat="42.92932" lon="17.82695">
        <ele>318.593265</ele>
        <time>2022-06-11T10:45:46.023Z</time>
      </trkpt>
      <trkpt lat="42.92942" lon="17.82683">
        <ele>318.476522</ele>
        <time>2022-06-11T10:45:49.010Z</time>
      </trkpt>
      <trkpt lat="42.92952" lon="17.82673">
        <ele>318.363354</ele>
        <time>2022-06-11T10:45:52.021Z</time>
      </trkpt>
      <trkpt lat="42.92962" lon="17.82662">
        <ele>318.248666</ele>
        <time>2022-06-11T10:45:55.027Z</time>
      </trkpt>
      <trkpt lat="42.92971" lon="17.82651">
        <ele>318.148692</ele>
        <time>2022-06-11T10:45:58.013Z</time>
      </trkpt>
      <trkpt lat="42.9298" lon="17.82639">
        <ele>318.207063</ele>
        <time>2022-06-11T10:46:01.022Z</time>
      </trkpt>
      <trkpt lat="42.92987" lon="17.82628">
        <ele>318.25967</ele>
        <time>2022-06-11T10:46:04.019Z</time>
      </trkpt>
      <trkpt lat="42.92995" lon="17.82616">
        <ele>318.315809</ele>
        <time>2022-06-11T10:46:07.024Z</time>
      </trkpt>
      <trkpt lat="42.93004" lon="17.82604">
        <ele>318.374769</ele>
        <time>2022-06-11T10:46:10.023Z</time>
      </trkpt>
      <trkpt lat="42.93014" lon="17.82592">
        <ele>318.436498</ele>
        <time>2022-06-11T10:46:13.043Z</time>
      </trkpt>
      <trkpt lat="42.93023" lon="17.82581">
        <ele>318.494425</ele>
        <time>2022-06-11T10:46:16.026Z</time>
      </trkpt>
      <trkpt lat="42.93032" lon="17.82568">
        <ele>318.557752</ele>
        <time>2022-06-11T10:46:19.021Z</time>
      </trkpt>
      <trkpt lat="42.93038" lon="17.82558">
        <ele>318.602265</ele>
        <time>2022-06-11T10:46:21.031Z</time>
      </trkpt>
      <trkpt lat="42.93047" lon="17.82544">
        <ele>318.666746</ele>
        <time>2022-06-11T10:46:24.051Z</time>
      </trkpt>
      <trkpt lat="42.93056" lon="17.82531">
        <ele>318.728336</ele>
        <time>2022-06-11T10:46:27.015Z</time>
      </trkpt>
      <trkpt lat="42.93065" lon="17.82518">
        <ele>318.788488</ele>
        <time>2022-06-11T10:46:30.015Z</time>
      </trkpt>
      <trkpt lat="42.93074" lon="17.82504">
        <ele>318.851396</ele>
        <time>2022-06-11T10:46:33.046Z</time>
      </trkpt>
      <trkpt lat="42.93081" lon="17.82492">
        <ele>318.908057</ele>
        <time>2022-06-11T10:46:36.024Z</time>
      </trkpt>
      <trkpt lat="42.9309" lon="17.8248">
        <ele>318.966228</ele>
        <time>2022-06-11T10:46:39.026Z</time>
      </trkpt>
      <trkpt lat="42.93096" lon="17.82471">
        <ele>318.942827</ele>
        <time>2022-06-11T10:46:41.073Z</time>
      </trkpt>
      <trkpt lat="42.93103" lon="17.82462">
        <ele>318.766297</ele>
        <time>2022-06-11T10:46:43.016Z</time>
      </trkpt>
      <trkpt lat="42.93109" lon="17.82453">
        <ele>318.586452</ele>
        <time>2022-06-11T10:46:45.019Z</time>
      </trkpt>
      <trkpt lat="42.93115" lon="17.82443">
        <ele>318.409981</ele>
        <time>2022-06-11T10:46:47.023Z</time>
      </trkpt>
      <trkpt lat="42.93123" lon="17.8243">
        <ele>318.162054</ele>
        <time>2022-06-11T10:46:50.021Z</time>
      </trkpt>
      <trkpt lat="42.93132" lon="17.82416">
        <ele>317.903304</ele>
        <time>2022-06-11T10:46:53.014Z</time>
      </trkpt>
      <trkpt lat="42.9314" lon="17.82404">
        <ele>317.674197</ele>
        <time>2022-06-11T10:46:56.022Z</time>
      </trkpt>
      <trkpt lat="42.93147" lon="17.82389">
        <ele>317.435223</ele>
        <time>2022-06-11T10:46:59.022Z</time>
      </trkpt>
      <trkpt lat="42.93152" lon="17.82379">
        <ele>317.254354</ele>
        <time>2022-06-11T10:47:01.019Z</time>
      </trkpt>
      <trkpt lat="42.93158" lon="17.82368">
        <ele>317.06673</ele>
        <time>2022-06-11T10:47:03.050Z</time>
      </trkpt>
      <trkpt lat="42.93163" lon="17.82359">
        <ele>316.893855</ele>
        <time>2022-06-11T10:47:05.013Z</time>
      </trkpt>
      <trkpt lat="42.93169" lon="17.82348">
        <ele>316.709579</ele>
        <time>2022-06-11T10:47:07.023Z</time>
      </trkpt>
      <trkpt lat="42.93175" lon="17.82338">
        <ele>316.535626</ele>
        <time>2022-06-11T10:47:09.057Z</time>
      </trkpt>
      <trkpt lat="42.93182" lon="17.82324">
        <ele>316.279815</ele>
        <time>2022-06-11T10:47:12.021Z</time>
      </trkpt>
      <trkpt lat="42.93191" lon="17.82309">
        <ele>316.024981</ele>
        <time>2022-06-11T10:47:15.023Z</time>
      </trkpt>
      <trkpt lat="42.932" lon="17.82297">
        <ele>315.785283</ele>
        <time>2022-06-11T10:47:18.015Z</time>
      </trkpt>
      <trkpt lat="42.93208" lon="17.82284">
        <ele>315.534796</ele>
        <time>2022-06-11T10:47:21.030Z</time>
      </trkpt>
      <trkpt lat="42.93216" lon="17.8227">
        <ele>315.488708</ele>
        <time>2022-06-11T10:47:24.021Z</time>
      </trkpt>
      <trkpt lat="42.93224" lon="17.82256">
        <ele>315.442114</ele>
        <time>2022-06-11T10:47:27.015Z</time>
      </trkpt>
      <trkpt lat="42.9323" lon="17.82246">
        <ele>315.409956</ele>
        <time>2022-06-11T10:47:29.023Z</time>
      </trkpt>
      <trkpt lat="42.93236" lon="17.82237">
        <ele>315.377147</ele>
        <time>2022-06-11T10:47:31.033Z</time>
      </trkpt>
      <trkpt lat="42.93243" lon="17.82228">
        <ele>315.345212</ele>
        <time>2022-06-11T10:47:33.023Z</time>
      </trkpt>
      <trkpt lat="42.93251" lon="17.82214">
        <ele>315.299892</ele>
        <time>2022-06-11T10:47:36.011Z</time>
      </trkpt>
      <trkpt lat="42.93257" lon="17.82206">
        <ele>315.267777</ele>
        <time>2022-06-11T10:47:38.041Z</time>
      </trkpt>
      <trkpt lat="42.93264" lon="17.82197">
        <ele>315.234813</ele>
        <time>2022-06-11T10:47:40.035Z</time>
      </trkpt>
      <trkpt lat="42.93272" lon="17.82189">
        <ele>315.200858</ele>
        <time>2022-06-11T10:47:42.020Z</time>
      </trkpt>
      <trkpt lat="42.9328" lon="17.82181">
        <ele>315.165562</ele>
        <time>2022-06-11T10:47:44.064Z</time>
      </trkpt>
      <trkpt lat="42.93287" lon="17.82172">
        <ele>315.131293</ele>
        <time>2022-06-11T10:47:46.026Z</time>
      </trkpt>
      <trkpt lat="42.93295" lon="17.82163">
        <ele>315.096401</ele>
        <time>2022-06-11T10:47:48.014Z</time>
      </trkpt>
      <trkpt lat="42.93302" lon="17.82155">
        <ele>315.063689</ele>
        <time>2022-06-11T10:47:50.028Z</time>
      </trkpt>
      <trkpt lat="42.93311" lon="17.82143">
        <ele>315.018286</ele>
        <time>2022-06-11T10:47:53.024Z</time>
      </trkpt>
      <trkpt lat="42.9332" lon="17.82131">
        <ele>314.973721</ele>
        <time>2022-06-11T10:47:56.025Z</time>
      </trkpt>
      <trkpt lat="42.93329" lon="17.82119">
        <ele>314.930396</ele>
        <time>2022-06-11T10:47:59.016Z</time>
      </trkpt>
      <trkpt lat="42.93337" lon="17.82106">
        <ele>314.919952</ele>
        <time>2022-06-11T10:48:02.033Z</time>
      </trkpt>
      <trkpt lat="42.93345" lon="17.82092">
        <ele>314.976623</ele>
        <time>2022-06-11T10:48:05.032Z</time>
      </trkpt>
      <trkpt lat="42.93353" lon="17.82079">
        <ele>315.030827</ele>
        <time>2022-06-11T10:48:08.021Z</time>
      </trkpt>
      <trkpt lat="42.93361" lon="17.82068">
        <ele>315.081123</ele>
        <time>2022-06-11T10:48:11.030Z</time>
      </trkpt>
      <trkpt lat="42.93368" lon="17.82057">
        <ele>315.129579</ele>
        <time>2022-06-11T10:48:14.023Z</time>
      </trkpt>
      <trkpt lat="42.93375" lon="17.82046">
        <ele>315.177748</ele>
        <time>2022-06-11T10:48:17.019Z</time>
      </trkpt>
      <trkpt lat="42.93382" lon="17.82034">
        <ele>315.229075</ele>
        <time>2022-06-11T10:48:20.015Z</time>
      </trkpt>
      <trkpt lat="42.93389" lon="17.8202">
        <ele>315.28376</ele>
        <time>2022-06-11T10:48:23.033Z</time>
      </trkpt>
      <trkpt lat="42.93396" lon="17.82006">
        <ele>315.338989</ele>
        <time>2022-06-11T10:48:26.024Z</time>
      </trkpt>
      <trkpt lat="42.93404" lon="17.81994">
        <ele>315.392216</ele>
        <time>2022-06-11T10:48:29.051Z</time>
      </trkpt>
      <trkpt lat="42.93411" lon="17.81981">
        <ele>315.446398</ele>
        <time>2022-06-11T10:48:32.029Z</time>
      </trkpt>
      <trkpt lat="42.93419" lon="17.81967">
        <ele>315.50319</ele>
        <time>2022-06-11T10:48:35.018Z</time>
      </trkpt>
      <trkpt lat="42.93426" lon="17.81953">
        <ele>315.558927</ele>
        <time>2022-06-11T10:48:38.019Z</time>
      </trkpt>
      <trkpt lat="42.93433" lon="17.8194">
        <ele>315.610437</ele>
        <time>2022-06-11T10:48:41.026Z</time>
      </trkpt>
      <trkpt lat="42.93439" lon="17.8193">
        <ele>315.652201</ele>
        <time>2022-06-11T10:48:44.022Z</time>
      </trkpt>
      <trkpt lat="42.93444" lon="17.81919">
        <ele>315.696101</ele>
        <time>2022-06-11T10:48:49.019Z</time>
      </trkpt>
      <trkpt lat="42.93439" lon="17.81949">
        <ele>315.033238</ele>
        <time>2022-06-11T10:51:26.030Z</time>
      </trkpt>
      <trkpt lat="42.93433" lon="17.81961">
        <ele>314.685124</ele>
        <time>2022-06-11T10:51:28.077Z</time>
      </trkpt>
      <trkpt lat="42.93428" lon="17.81972">
        <ele>314.355672</ele>
        <time>2022-06-11T10:51:30.020Z</time>
      </trkpt>
      <trkpt lat="42.93423" lon="17.81984">
        <ele>314.034704</ele>
        <time>2022-06-11T10:51:32.024Z</time>
      </trkpt>
      <trkpt lat="42.93417" lon="17.81996">
        <ele>313.699689</ele>
        <time>2022-06-11T10:51:34.017Z</time>
      </trkpt>
      <trkpt lat="42.93412" lon="17.82007">
        <ele>313.38386</ele>
        <time>2022-06-11T10:51:36.026Z</time>
      </trkpt>
      <trkpt lat="42.93408" lon="17.8202">
        <ele>313.036033</ele>
        <time>2022-06-11T10:51:38.019Z</time>
      </trkpt>
      <trkpt lat="42.93406" lon="17.82035">
        <ele>312.679354</ele>
        <time>2022-06-11T10:51:40.017Z</time>
      </trkpt>
      <trkpt lat="42.93406" lon="17.82051">
        <ele>312.293143</ele>
        <time>2022-06-11T10:51:42.018Z</time>
      </trkpt>
      <trkpt lat="42.93406" lon="17.82066">
        <ele>311.933642</ele>
        <time>2022-06-11T10:51:44.023Z</time>
      </trkpt>
      <trkpt lat="42.93406" lon="17.8208">
        <ele>311.607629</ele>
        <time>2022-06-11T10:51:46.058Z</time>
      </trkpt>
      <trkpt lat="42.93405" lon="17.82094">
        <ele>311.266736</ele>
        <time>2022-06-11T10:51:48.021Z</time>
      </trkpt>
      <trkpt lat="42.93404" lon="17.82107">
        <ele>310.937863</ele>
        <time>2022-06-11T10:51:50.023Z</time>
      </trkpt>
      <trkpt lat="42.934" lon="17.82124">
        <ele>310.525226</ele>
        <time>2022-06-11T10:51:53.018Z</time>
      </trkpt>
      <trkpt lat="42.93404" lon="17.82138">
        <ele>310.162285</ele>
        <time>2022-06-11T10:51:56.028Z</time>
      </trkpt>
      <trkpt lat="42.93417" lon="17.82144">
        <ele>309.537123</ele>
        <time>2022-06-11T10:51:58.020Z</time>
      </trkpt>
      <trkpt lat="42.93432" lon="17.82147">
        <ele>307.817431</ele>
        <time>2022-06-11T10:52:00.020Z</time>
      </trkpt>
      <trkpt lat="42.93449" lon="17.82149">
        <ele>305.881162</ele>
        <time>2022-06-11T10:52:02.023Z</time>
      </trkpt>
      <trkpt lat="42.93466" lon="17.8215">
        <ele>304.003204</ele>
        <time>2022-06-11T10:52:04.031Z</time>
      </trkpt>
      <trkpt lat="42.9348" lon="17.82153">
        <ele>302.440534</ele>
        <time>2022-06-11T10:52:06.018Z</time>
      </trkpt>
      <trkpt lat="42.93492" lon="17.82157">
        <ele>301.117712</ele>
        <time>2022-06-11T10:52:08.016Z</time>
      </trkpt>
      <trkpt lat="42.93503" lon="17.82164">
        <ele>299.754925</ele>
        <time>2022-06-11T10:52:10.026Z</time>
      </trkpt>
      <trkpt lat="42.93519" lon="17.82169">
        <ele>297.959637</ele>
        <time>2022-06-11T10:52:12.033Z</time>
      </trkpt>
      <trkpt lat="42.93528" lon="17.8217">
        <ele>296.880965</ele>
        <time>2022-06-11T10:52:13.017Z</time>
      </trkpt>
      <trkpt lat="42.93538" lon="17.82172">
        <ele>295.799364</ele>
        <time>2022-06-11T10:52:14.009Z</time>
      </trkpt>
      <trkpt lat="42.93548" lon="17.82174">
        <ele>294.651648</ele>
        <time>2022-06-11T10:52:15.010Z</time>
      </trkpt>
      <trkpt lat="42.93558" lon="17.82177">
        <ele>293.502527</ele>
        <time>2022-06-11T10:52:16.013Z</time>
      </trkpt>
      <trkpt lat="42.93569" lon="17.8218">
        <ele>292.354631</ele>
        <time>2022-06-11T10:52:17.015Z</time>
      </trkpt>
      <trkpt lat="42.93579" lon="17.82184">
        <ele>291.176587</ele>
        <time>2022-06-11T10:52:18.018Z</time>
      </trkpt>
      <trkpt lat="42.93589" lon="17.8219">
        <ele>289.958922</ele>
        <time>2022-06-11T10:52:19.001Z</time>
      </trkpt>
      <trkpt lat="42.93599" lon="17.82195">
        <ele>289.612547</ele>
        <time>2022-06-11T10:52:20.013Z</time>
      </trkpt>
      <trkpt lat="42.93609" lon="17.822">
        <ele>289.339771</ele>
        <time>2022-06-11T10:52:21.015Z</time>
      </trkpt>
      <trkpt lat="42.93619" lon="17.82204">
        <ele>289.077386</ele>
        <time>2022-06-11T10:52:22.028Z</time>
      </trkpt>
      <trkpt lat="42.93629" lon="17.82207">
        <ele>288.82183</ele>
        <time>2022-06-11T10:52:23.030Z</time>
      </trkpt>
      <trkpt lat="42.93638" lon="17.8221">
        <ele>288.570825</ele>
        <time>2022-06-11T10:52:24.011Z</time>
      </trkpt>
      <trkpt lat="42.93647" lon="17.82213">
        <ele>288.326524</ele>
        <time>2022-06-11T10:52:25.026Z</time>
      </trkpt>
      <trkpt lat="42.93657" lon="17.82215">
        <ele>288.086926</ele>
        <time>2022-06-11T10:52:26.028Z</time>
      </trkpt>
      <trkpt lat="42.93673" lon="17.82217">
        <ele>287.664541</ele>
        <time>2022-06-11T10:52:28.021Z</time>
      </trkpt>
      <trkpt lat="42.93685" lon="17.82219">
        <ele>287.36325</ele>
        <time>2022-06-11T10:52:30.029Z</time>
      </trkpt>
      <trkpt lat="42.93694" lon="17.82218">
        <ele>287.113397</ele>
        <time>2022-06-11T10:52:35.047Z</time>
      </trkpt>
      <trkpt lat="42.93704" lon="17.8222">
        <ele>286.86659</ele>
        <time>2022-06-11T10:52:43.014Z</time>
      </trkpt>
      <trkpt lat="42.93713" lon="17.82221">
        <ele>286.617691</ele>
        <time>2022-06-11T10:52:50.025Z</time>
      </trkpt>
      <trkpt lat="42.93723" lon="17.82224">
        <ele>286.358308</ele>
        <time>2022-06-11T10:52:56.026Z</time>
      </trkpt>
      <trkpt lat="42.93733" lon="17.82225">
        <ele>286.116285</ele>
        <time>2022-06-11T10:53:01.025Z</time>
      </trkpt>
      <trkpt lat="42.93743" lon="17.82226">
        <ele>285.846764</ele>
        <time>2022-06-11T10:53:07.021Z</time>
      </trkpt>
      <trkpt lat="42.93753" lon="17.82225">
        <ele>285.587423</ele>
        <time>2022-06-11T10:53:13.032Z</time>
      </trkpt>
      <trkpt lat="42.93763" lon="17.82226">
        <ele>285.348111</ele>
        <time>2022-06-11T10:53:18.030Z</time>
      </trkpt>
      <trkpt lat="42.93772" lon="17.82227">
        <ele>285.63301</ele>
        <time>2022-06-11T10:53:23.027Z</time>
      </trkpt>
      <trkpt lat="42.93782" lon="17.82229">
        <ele>286.291376</ele>
        <time>2022-06-11T10:53:29.020Z</time>
      </trkpt>
      <trkpt lat="42.93792" lon="17.82231">
        <ele>286.932587</ele>
        <time>2022-06-11T10:53:35.023Z</time>
      </trkpt>
      <trkpt lat="42.93802" lon="17.82229">
        <ele>287.577328</ele>
        <time>2022-06-11T10:53:41.016Z</time>
      </trkpt>
      <trkpt lat="42.93812" lon="17.8223">
        <ele>288.213037</ele>
        <time>2022-06-11T10:53:48.015Z</time>
      </trkpt>
      <trkpt lat="42.93822" lon="17.8223">
        <ele>288.841852</ele>
        <time>2022-06-11T10:53:55.033Z</time>
      </trkpt>
      <trkpt lat="42.93832" lon="17.82231">
        <ele>289.433388</ele>
        <time>2022-06-11T10:54:01.015Z</time>
      </trkpt>
      <trkpt lat="42.93841" lon="17.82233">
        <ele>290.061384</ele>
        <time>2022-06-11T10:54:08.050Z</time>
      </trkpt>
      <trkpt lat="42.93852" lon="17.82231">
        <ele>290.736894</ele>
        <time>2022-06-11T10:54:15.028Z</time>
      </trkpt>
      <trkpt lat="42.93863" lon="17.82232">
        <ele>291.410113</ele>
        <time>2022-06-11T10:54:21.014Z</time>
      </trkpt>
      <trkpt lat="42.93873" lon="17.82233">
        <ele>292.107408</ele>
        <time>2022-06-11T10:54:26.046Z</time>
      </trkpt>
      <trkpt lat="42.93885" lon="17.82234">
        <ele>292.812611</ele>
        <time>2022-06-11T10:54:30.012Z</time>
      </trkpt>
      <trkpt lat="42.93896" lon="17.82235">
        <ele>293.543918</ele>
        <time>2022-06-11T10:54:34.018Z</time>
      </trkpt>
      <trkpt lat="42.93907" lon="17.82236">
        <ele>294.244394</ele>
        <time>2022-06-11T10:54:38.030Z</time>
      </trkpt>
      <trkpt lat="42.93916" lon="17.82236">
        <ele>294.822332</ele>
        <time>2022-06-11T10:54:41.009Z</time>
      </trkpt>
      <trkpt lat="42.93928" lon="17.82236">
        <ele>295.584675</ele>
        <time>2022-06-11T10:54:45.022Z</time>
      </trkpt>
      <trkpt lat="42.93938" lon="17.82237">
        <ele>296.21385</ele>
        <time>2022-06-11T10:54:48.023Z</time>
      </trkpt>
      <trkpt lat="42.93948" lon="17.82237">
        <ele>296.67576</ele>
        <time>2022-06-11T10:54:51.040Z</time>
      </trkpt>
      <trkpt lat="42.93958" lon="17.82238">
        <ele>296.653125</ele>
        <time>2022-06-11T10:54:54.069Z</time>
      </trkpt>
      <trkpt lat="42.93969" lon="17.82239">
        <ele>296.629345</ele>
        <time>2022-06-11T10:54:57.052Z</time>
      </trkpt>
      <trkpt lat="42.9398" lon="17.82241">
        <ele>296.604895</ele>
        <time>2022-06-11T10:55:00.048Z</time>
      </trkpt>
      <trkpt lat="42.93991" lon="17.82242">
        <ele>296.581361</ele>
        <time>2022-06-11T10:55:03.033Z</time>
      </trkpt>
      <trkpt lat="42.94001" lon="17.82243">
        <ele>296.558091</ele>
        <time>2022-06-11T10:55:06.048Z</time>
      </trkpt>
      <trkpt lat="42.94012" lon="17.82244">
        <ele>296.53515</ele>
        <time>2022-06-11T10:55:09.021Z</time>
      </trkpt>
      <trkpt lat="42.94022" lon="17.82246">
        <ele>296.511806</ele>
        <time>2022-06-11T10:55:12.059Z</time>
      </trkpt>
      <trkpt lat="42.94033" lon="17.82248">
        <ele>296.486738</ele>
        <time>2022-06-11T10:55:15.020Z</time>
      </trkpt>
      <trkpt lat="42.94045" lon="17.8225">
        <ele>296.461819</ele>
        <time>2022-06-11T10:55:18.025Z</time>
      </trkpt>
      <trkpt lat="42.94056" lon="17.8225">
        <ele>296.437921</ele>
        <time>2022-06-11T10:55:21.019Z</time>
      </trkpt>
      <trkpt lat="42.94066" lon="17.8225">
        <ele>296.4149</ele>
        <time>2022-06-11T10:55:24.020Z</time>
      </trkpt>
      <trkpt lat="42.94077" lon="17.82249">
        <ele>296.391213</ele>
        <time>2022-06-11T10:55:27.020Z</time>
      </trkpt>
      <trkpt lat="42.94088" lon="17.82248">
        <ele>296.367214</ele>
        <time>2022-06-11T10:55:30.039Z</time>
      </trkpt>
      <trkpt lat="42.94099" lon="17.82248">
        <ele>296.343319</ele>
        <time>2022-06-11T10:55:33.011Z</time>
      </trkpt>
      <trkpt lat="42.9411" lon="17.82247">
        <ele>296.318516</ele>
        <time>2022-06-11T10:55:36.018Z</time>
      </trkpt>
      <trkpt lat="42.94122" lon="17.82246">
        <ele>296.293003</ele>
        <time>2022-06-11T10:55:39.016Z</time>
      </trkpt>
      <trkpt lat="42.94132" lon="17.82245">
        <ele>296.190015</ele>
        <time>2022-06-11T10:55:42.018Z</time>
      </trkpt>
      <trkpt lat="42.94141" lon="17.82244">
        <ele>296.072581</ele>
        <time>2022-06-11T10:55:45.050Z</time>
      </trkpt>
      <trkpt lat="42.94151" lon="17.82243">
        <ele>295.943252</ele>
        <time>2022-06-11T10:55:49.020Z</time>
      </trkpt>
      <trkpt lat="42.9416" lon="17.82242">
        <ele>295.827402</ele>
        <time>2022-06-11T10:55:53.024Z</time>
      </trkpt>
      <trkpt lat="42.9417" lon="17.8224">
        <ele>295.694902</ele>
        <time>2022-06-11T10:55:57.020Z</time>
      </trkpt>
      <trkpt lat="42.94179" lon="17.82236">
        <ele>295.579724</ele>
        <time>2022-06-11T10:56:01.023Z</time>
      </trkpt>
      <trkpt lat="42.94188" lon="17.82228">
        <ele>295.43845</ele>
        <time>2022-06-11T10:56:06.029Z</time>
      </trkpt>
      <trkpt lat="42.94199" lon="17.82222">
        <ele>295.295199</ele>
        <time>2022-06-11T10:56:11.015Z</time>
      </trkpt>
      <trkpt lat="42.94208" lon="17.82218">
        <ele>295.16815</ele>
        <time>2022-06-11T10:56:16.014Z</time>
      </trkpt>
      <trkpt lat="42.94217" lon="17.82211">
        <ele>295.036939</ele>
        <time>2022-06-11T10:56:21.025Z</time>
      </trkpt>
      <trkpt lat="42.94224" lon="17.82204">
        <ele>294.919691</ele>
        <time>2022-06-11T10:56:26.025Z</time>
      </trkpt>
      <trkpt lat="42.94232" lon="17.82197">
        <ele>294.799644</ele>
        <time>2022-06-11T10:56:32.029Z</time>
      </trkpt>
      <trkpt lat="42.94242" lon="17.82195">
        <ele>294.669538</ele>
        <time>2022-06-11T10:56:37.016Z</time>
      </trkpt>
      <trkpt lat="42.94253" lon="17.82196">
        <ele>294.53198</ele>
        <time>2022-06-11T10:56:42.018Z</time>
      </trkpt>
      <trkpt lat="42.94262" lon="17.82196">
        <ele>294.413745</ele>
        <time>2022-06-11T10:56:46.052Z</time>
      </trkpt>
      <trkpt lat="42.94273" lon="17.82197">
        <ele>294.27328</ele>
        <time>2022-06-11T10:56:51.023Z</time>
      </trkpt>
      <trkpt lat="42.94284" lon="17.822">
        <ele>294.129207</ele>
        <time>2022-06-11T10:56:56.025Z</time>
      </trkpt>
      <trkpt lat="42.94293" lon="17.82202">
        <ele>294.013192</ele>
        <time>2022-06-11T10:57:00.025Z</time>
      </trkpt>
      <trkpt lat="42.94304" lon="17.82203">
        <ele>293.662074</ele>
        <time>2022-06-11T10:57:05.012Z</time>
      </trkpt>
      <trkpt lat="42.94314" lon="17.82203">
        <ele>293.311367</ele>
        <time>2022-06-11T10:57:09.037Z</time>
      </trkpt>
      <trkpt lat="42.94323" lon="17.82203">
        <ele>292.945599</ele>
        <time>2022-06-11T10:57:13.026Z</time>
      </trkpt>
      <trkpt lat="42.94333" lon="17.82199">
        <ele>292.552965</ele>
        <time>2022-06-11T10:57:17.016Z</time>
      </trkpt>
      <trkpt lat="42.94344" lon="17.82193">
        <ele>292.140125</ele>
        <time>2022-06-11T10:57:21.020Z</time>
      </trkpt>
      <trkpt lat="42.94353" lon="17.82187">
        <ele>291.735458</ele>
        <time>2022-06-11T10:57:25.025Z</time>
      </trkpt>
      <trkpt lat="42.94363" lon="17.82181">
        <ele>291.347673</ele>
        <time>2022-06-11T10:57:29.014Z</time>
      </trkpt>
      <trkpt lat="42.94373" lon="17.82176">
        <ele>290.951798</ele>
        <time>2022-06-11T10:57:33.020Z</time>
      </trkpt>
      <trkpt lat="42.94382" lon="17.8217">
        <ele>290.572239</ele>
        <time>2022-06-11T10:57:37.021Z</time>
      </trkpt>
      <trkpt lat="42.94392" lon="17.82164">
        <ele>290.14586</ele>
        <time>2022-06-11T10:57:41.018Z</time>
      </trkpt>
      <trkpt lat="42.94402" lon="17.82159">
        <ele>289.750696</ele>
        <time>2022-06-11T10:57:45.021Z</time>
      </trkpt>
      <trkpt lat="42.94412" lon="17.82155">
        <ele>289.360886</ele>
        <time>2022-06-11T10:57:50.015Z</time>
      </trkpt>
      <trkpt lat="42.94421" lon="17.8215">
        <ele>288.972177</ele>
        <time>2022-06-11T10:57:55.010Z</time>
      </trkpt>
      <trkpt lat="42.94431" lon="17.82146">
        <ele>288.61111</ele>
        <time>2022-06-11T10:58:00.032Z</time>
      </trkpt>
      <trkpt lat="42.94441" lon="17.82141">
        <ele>288.208895</ele>
        <time>2022-06-11T10:58:05.023Z</time>
      </trkpt>
      <trkpt lat="42.9445" lon="17.82136">
        <ele>287.821171</ele>
        <time>2022-06-11T10:58:10.060Z</time>
      </trkpt>
      <trkpt lat="42.9446" lon="17.8213">
        <ele>287.429076</ele>
        <time>2022-06-11T10:58:15.023Z</time>
      </trkpt>
      <trkpt lat="42.94469" lon="17.82124">
        <ele>287.326656</ele>
        <time>2022-06-11T10:58:20.018Z</time>
      </trkpt>
      <trkpt lat="42.94478" lon="17.82119">
        <ele>287.661711</ele>
        <time>2022-06-11T10:58:25.025Z</time>
      </trkpt>
      <trkpt lat="42.94487" lon="17.82112">
        <ele>287.990601</ele>
        <time>2022-06-11T10:58:30.060Z</time>
      </trkpt>
      <trkpt lat="42.94495" lon="17.82106">
        <ele>288.304992</ele>
        <time>2022-06-11T10:58:35.029Z</time>
      </trkpt>
      <trkpt lat="42.94503" lon="17.82097">
        <ele>288.637964</ele>
        <time>2022-06-11T10:58:40.014Z</time>
      </trkpt>
      <trkpt lat="42.94509" lon="17.82085">
        <ele>289.000688</ele>
        <time>2022-06-11T10:58:45.027Z</time>
      </trkpt>
      <trkpt lat="42.94514" lon="17.82074">
        <ele>289.319561</ele>
        <time>2022-06-11T10:58:50.011Z</time>
      </trkpt>
      <trkpt lat="42.94519" lon="17.82062">
        <ele>289.653958</ele>
        <time>2022-06-11T10:58:55.050Z</time>
      </trkpt>
      <trkpt lat="42.94526" lon="17.82053">
        <ele>289.987553</ele>
        <time>2022-06-11T10:59:00.014Z</time>
      </trkpt>
      <trkpt lat="42.94535" lon="17.82046">
        <ele>290.313537</ele>
        <time>2022-06-11T10:59:05.026Z</time>
      </trkpt>
      <trkpt lat="42.94544" lon="17.82042">
        <ele>290.625842</ele>
        <time>2022-06-11T10:59:09.016Z</time>
      </trkpt>
      <trkpt lat="42.94554" lon="17.82041">
        <ele>290.949619</ele>
        <time>2022-06-11T10:59:14.011Z</time>
      </trkpt>
      <trkpt lat="42.94563" lon="17.82038">
        <ele>291.265533</ele>
        <time>2022-06-11T10:59:19.014Z</time>
      </trkpt>
      <trkpt lat="42.94573" lon="17.82038">
        <ele>291.584022</ele>
        <time>2022-06-11T10:59:24.005Z</time>
      </trkpt>
      <trkpt lat="42.94583" lon="17.82036">
        <ele>291.926519</ele>
        <time>2022-06-11T10:59:29.027Z</time>
      </trkpt>
      <trkpt lat="42.94593" lon="17.82031">
        <ele>292.278874</ele>
        <time>2022-06-11T10:59:34.050Z</time>
      </trkpt>
      <trkpt lat="42.94603" lon="17.82027">
        <ele>292.625</ele>
        <time>2022-06-11T10:59:39.026Z</time>
      </trkpt>
      <trkpt lat="42.94611" lon="17.82021">
        <ele>292.941225</ele>
        <time>2022-06-11T10:59:44.024Z</time>
      </trkpt>
      <trkpt lat="42.9462" lon="17.82014">
        <ele>293.305029</ele>
        <time>2022-06-11T10:59:49.032Z</time>
      </trkpt>
      <trkpt lat="42.9463" lon="17.82006">
        <ele>293.761525</ele>
        <time>2022-06-11T10:59:54.005Z</time>
      </trkpt>
      <trkpt lat="42.94638" lon="17.82">
        <ele>294.137634</ele>
        <time>2022-06-11T10:59:58.024Z</time>
      </trkpt>
      <trkpt lat="42.94646" lon="17.81995">
        <ele>294.51209</ele>
        <time>2022-06-11T11:00:02.017Z</time>
      </trkpt>
      <trkpt lat="42.94654" lon="17.81989">
        <ele>294.896838</ele>
        <time>2022-06-11T11:00:06.017Z</time>
      </trkpt>
      <trkpt lat="42.94662" lon="17.81978">
        <ele>295.355266</ele>
        <time>2022-06-11T11:00:10.013Z</time>
      </trkpt>
      <trkpt lat="42.94668" lon="17.81965">
        <ele>295.807215</ele>
        <time>2022-06-11T11:00:14.052Z</time>
      </trkpt>
      <trkpt lat="42.94673" lon="17.81953">
        <ele>296.237997</ele>
        <time>2022-06-11T11:00:18.023Z</time>
      </trkpt>
      <trkpt lat="42.94679" lon="17.81942">
        <ele>296.652537</ele>
        <time>2022-06-11T11:00:22.019Z</time>
      </trkpt>
      <trkpt lat="42.94685" lon="17.81933">
        <ele>297.041763</ele>
        <time>2022-06-11T11:00:26.017Z</time>
      </trkpt>
      <trkpt lat="42.94693" lon="17.81926">
        <ele>297.425982</ele>
        <time>2022-06-11T11:00:30.020Z</time>
      </trkpt>
      <trkpt lat="42.94702" lon="17.81922">
        <ele>297.823707</ele>
        <time>2022-06-11T11:00:34.020Z</time>
      </trkpt>
      <trkpt lat="42.94711" lon="17.81917">
        <ele>298.199999</ele>
        <time>2022-06-11T11:00:38.028Z</time>
      </trkpt>
      <trkpt lat="42.94719" lon="17.81913">
        <ele>298.575211</ele>
        <time>2022-06-11T11:00:42.018Z</time>
      </trkpt>
      <trkpt lat="42.94728" lon="17.81908">
        <ele>298.958153</ele>
        <time>2022-06-11T11:00:47.023Z</time>
      </trkpt>
      <trkpt lat="42.94738" lon="17.81903">
        <ele>299.38444</ele>
        <time>2022-06-11T11:00:52.024Z</time>
      </trkpt>
      <trkpt lat="42.94747" lon="17.81894">
        <ele>299.837945</ele>
        <time>2022-06-11T11:00:57.031Z</time>
      </trkpt>
      <trkpt lat="42.94755" lon="17.81888">
        <ele>300.237547</ele>
        <time>2022-06-11T11:01:01.029Z</time>
      </trkpt>
      <trkpt lat="42.94763" lon="17.8188">
        <ele>300.698606</ele>
        <time>2022-06-11T11:01:05.043Z</time>
      </trkpt>
      <trkpt lat="42.9477" lon="17.81869">
        <ele>301.656584</ele>
        <time>2022-06-11T11:01:09.027Z</time>
      </trkpt>
      <trkpt lat="42.94776" lon="17.81858">
        <ele>302.630077</ele>
        <time>2022-06-11T11:01:13.015Z</time>
      </trkpt>
      <trkpt lat="42.94782" lon="17.81846">
        <ele>303.603569</ele>
        <time>2022-06-11T11:01:17.019Z</time>
      </trkpt>
      <trkpt lat="42.94788" lon="17.81836">
        <ele>304.539528</ele>
        <time>2022-06-11T11:01:21.028Z</time>
      </trkpt>
      <trkpt lat="42.94794" lon="17.81825">
        <ele>305.41448</ele>
        <time>2022-06-11T11:01:25.028Z</time>
      </trkpt>
      <trkpt lat="42.94799" lon="17.81814">
        <ele>306.280533</ele>
        <time>2022-06-11T11:01:29.029Z</time>
      </trkpt>
      <trkpt lat="42.94805" lon="17.81803">
        <ele>307.265182</ele>
        <time>2022-06-11T11:01:33.046Z</time>
      </trkpt>
      <trkpt lat="42.94813" lon="17.81792">
        <ele>308.325362</ele>
        <time>2022-06-11T11:01:37.046Z</time>
      </trkpt>
      <trkpt lat="42.94822" lon="17.81783">
        <ele>309.337419</ele>
        <time>2022-06-11T11:01:41.019Z</time>
      </trkpt>
      <trkpt lat="42.94832" lon="17.81777">
        <ele>310.332092</ele>
        <time>2022-06-11T11:01:45.036Z</time>
      </trkpt>
      <trkpt lat="42.94842" lon="17.81773">
        <ele>311.330175</ele>
        <time>2022-06-11T11:01:49.026Z</time>
      </trkpt>
      <trkpt lat="42.9485" lon="17.81768">
        <ele>312.197829</ele>
        <time>2022-06-11T11:01:52.019Z</time>
      </trkpt>
      <trkpt lat="42.94861" lon="17.81762">
        <ele>313.281697</ele>
        <time>2022-06-11T11:01:56.056Z</time>
      </trkpt>
      <trkpt lat="42.94871" lon="17.81757">
        <ele>314.219551</ele>
        <time>2022-06-11T11:02:00.017Z</time>
      </trkpt>
      <trkpt lat="42.94879" lon="17.81749">
        <ele>315.131177</ele>
        <time>2022-06-11T11:02:04.023Z</time>
      </trkpt>
      <trkpt lat="42.94885" lon="17.81741">
        <ele>315.968787</ele>
        <time>2022-06-11T11:02:08.027Z</time>
      </trkpt>
      <trkpt lat="42.94894" lon="17.81732">
        <ele>316.934685</ele>
        <time>2022-06-11T11:02:13.011Z</time>
      </trkpt>
      <trkpt lat="42.94901" lon="17.81724">
        <ele>317.721283</ele>
        <time>2022-06-11T11:02:17.029Z</time>
      </trkpt>
      <trkpt lat="42.94909" lon="17.81716">
        <ele>318.448299</ele>
        <time>2022-06-11T11:02:21.022Z</time>
      </trkpt>
      <trkpt lat="42.94917" lon="17.81709">
        <ele>319.135516</ele>
        <time>2022-06-11T11:02:25.022Z</time>
      </trkpt>
      <trkpt lat="42.94925" lon="17.81702">
        <ele>319.812418</ele>
        <time>2022-06-11T11:02:29.050Z</time>
      </trkpt>
      <trkpt lat="42.94932" lon="17.81695">
        <ele>320.46861</ele>
        <time>2022-06-11T11:02:33.021Z</time>
      </trkpt>
      <trkpt lat="42.9494" lon="17.81689">
        <ele>321.135143</ele>
        <time>2022-06-11T11:02:37.020Z</time>
      </trkpt>
      <trkpt lat="42.94949" lon="17.81683">
        <ele>321.86156</ele>
        <time>2022-06-11T11:02:41.021Z</time>
      </trkpt>
      <trkpt lat="42.94957" lon="17.81677">
        <ele>322.550846</ele>
        <time>2022-06-11T11:02:45.017Z</time>
      </trkpt>
      <trkpt lat="42.94967" lon="17.81672">
        <ele>323.269848</ele>
        <time>2022-06-11T11:02:50.016Z</time>
      </trkpt>
      <trkpt lat="42.94978" lon="17.8167">
        <ele>324.091382</ele>
        <time>2022-06-11T11:02:55.035Z</time>
      </trkpt>
      <trkpt lat="42.94988" lon="17.81668">
        <ele>324.811894</ele>
        <time>2022-06-11T11:02:59.024Z</time>
      </trkpt>
      <trkpt lat="42.94999" lon="17.81667">
        <ele>325.6083</ele>
        <time>2022-06-11T11:03:03.026Z</time>
      </trkpt>
      <trkpt lat="42.9501" lon="17.81665">
        <ele>326.421061</ele>
        <time>2022-06-11T11:03:07.028Z</time>
      </trkpt>
      <trkpt lat="42.95019" lon="17.81664">
        <ele>327.109503</ele>
        <time>2022-06-11T11:03:11.016Z</time>
      </trkpt>
      <trkpt lat="42.95028" lon="17.81662">
        <ele>327.767613</ele>
        <time>2022-06-11T11:03:15.021Z</time>
      </trkpt>
      <trkpt lat="42.95037" lon="17.81658">
        <ele>328.428461</ele>
        <time>2022-06-11T11:03:19.017Z</time>
      </trkpt>
      <trkpt lat="42.95046" lon="17.81655">
        <ele>329.115891</ele>
        <time>2022-06-11T11:03:23.033Z</time>
      </trkpt>
      <trkpt lat="42.95054" lon="17.81646">
        <ele>329.889784</ele>
        <time>2022-06-11T11:03:28.017Z</time>
      </trkpt>
      <trkpt lat="42.95063" lon="17.81638">
        <ele>330.422834</ele>
        <time>2022-06-11T11:03:33.027Z</time>
      </trkpt>
      <trkpt lat="42.95071" lon="17.8163">
        <ele>330.366858</ele>
        <time>2022-06-11T11:03:38.029Z</time>
      </trkpt>
      <trkpt lat="42.9508" lon="17.81621">
        <ele>330.307142</ele>
        <time>2022-06-11T11:03:43.022Z</time>
      </trkpt>
      <trkpt lat="42.95088" lon="17.81612">
        <ele>330.249294</ele>
        <time>2022-06-11T11:03:48.072Z</time>
      </trkpt>
      <trkpt lat="42.95096" lon="17.81603">
        <ele>330.186511</ele>
        <time>2022-06-11T11:03:53.022Z</time>
      </trkpt>
      <trkpt lat="42.95105" lon="17.81596">
        <ele>330.129865</ele>
        <time>2022-06-11T11:03:58.021Z</time>
      </trkpt>
      <trkpt lat="42.95113" lon="17.81591">
        <ele>330.07875</ele>
        <time>2022-06-11T11:04:02.022Z</time>
      </trkpt>
      <trkpt lat="42.95122" lon="17.81586">
        <ele>330.02473</ele>
        <time>2022-06-11T11:04:06.011Z</time>
      </trkpt>
      <trkpt lat="42.95131" lon="17.8158">
        <ele>329.967355</ele>
        <time>2022-06-11T11:04:10.051Z</time>
      </trkpt>
      <trkpt lat="42.9514" lon="17.81576">
        <ele>329.914252</ele>
        <time>2022-06-11T11:04:14.023Z</time>
      </trkpt>
      <trkpt lat="42.9515" lon="17.81572">
        <ele>329.85341</ele>
        <time>2022-06-11T11:04:18.020Z</time>
      </trkpt>
      <trkpt lat="42.95159" lon="17.8157">
        <ele>329.801183</ele>
        <time>2022-06-11T11:04:22.035Z</time>
      </trkpt>
      <trkpt lat="42.95169" lon="17.81567">
        <ele>329.740406</ele>
        <time>2022-06-11T11:04:26.024Z</time>
      </trkpt>
      <trkpt lat="42.95179" lon="17.81563">
        <ele>329.68478</ele>
        <time>2022-06-11T11:04:29.012Z</time>
      </trkpt>
      <trkpt lat="42.95189" lon="17.8156">
        <ele>329.626673</ele>
        <time>2022-06-11T11:04:32.025Z</time>
      </trkpt>
      <trkpt lat="42.95198" lon="17.81558">
        <ele>329.573082</ele>
        <time>2022-06-11T11:04:35.016Z</time>
      </trkpt>
      <trkpt lat="42.95208" lon="17.81555">
        <ele>329.51286</ele>
        <time>2022-06-11T11:04:39.023Z</time>
      </trkpt>
      <trkpt lat="42.95219" lon="17.8155">
        <ele>329.450761</ele>
        <time>2022-06-11T11:04:43.022Z</time>
      </trkpt>
      <trkpt lat="42.95229" lon="17.81547">
        <ele>329.531467</ele>
        <time>2022-06-11T11:04:47.018Z</time>
      </trkpt>
      <trkpt lat="42.95239" lon="17.81543">
        <ele>329.751098</ele>
        <time>2022-06-11T11:04:51.019Z</time>
      </trkpt>
      <trkpt lat="42.9525" lon="17.8154">
        <ele>329.997692</ele>
        <time>2022-06-11T11:04:55.018Z</time>
      </trkpt>
      <trkpt lat="42.95261" lon="17.81535">
        <ele>330.233537</ele>
        <time>2022-06-11T11:04:59.014Z</time>
      </trkpt>
      <trkpt lat="42.9527" lon="17.81531">
        <ele>330.441759</ele>
        <time>2022-06-11T11:05:03.017Z</time>
      </trkpt>
      <trkpt lat="42.95279" lon="17.81525">
        <ele>330.663751</ele>
        <time>2022-06-11T11:05:07.060Z</time>
      </trkpt>
      <trkpt lat="42.95288" lon="17.81521">
        <ele>330.861759</ele>
        <time>2022-06-11T11:05:11.028Z</time>
      </trkpt>
      <trkpt lat="42.95297" lon="17.81517">
        <ele>331.05926</ele>
        <time>2022-06-11T11:05:15.014Z</time>
      </trkpt>
      <trkpt lat="42.95306" lon="17.81512">
        <ele>331.280642</ele>
        <time>2022-06-11T11:05:19.019Z</time>
      </trkpt>
      <trkpt lat="42.95315" lon="17.81504">
        <ele>331.506456</ele>
        <time>2022-06-11T11:05:23.027Z</time>
      </trkpt>
      <trkpt lat="42.95322" lon="17.81497">
        <ele>331.702029</ele>
        <time>2022-06-11T11:05:27.022Z</time>
      </trkpt>
      <trkpt lat="42.95329" lon="17.81487">
        <ele>331.910034</ele>
        <time>2022-06-11T11:05:31.028Z</time>
      </trkpt>
      <trkpt lat="42.95335" lon="17.81474">
        <ele>332.146752</ele>
        <time>2022-06-11T11:05:36.053Z</time>
      </trkpt>
      <trkpt lat="42.9534" lon="17.81463">
        <ele>332.35581</ele>
        <time>2022-06-11T11:05:41.030Z</time>
      </trkpt>
      <trkpt lat="42.95344" lon="17.81451">
        <ele>332.557382</ele>
        <time>2022-06-11T11:05:46.017Z</time>
      </trkpt>
      <trkpt lat="42.95348" lon="17.8144">
        <ele>332.764489</ele>
        <time>2022-06-11T11:05:51.024Z</time>
      </trkpt>
      <trkpt lat="42.95352" lon="17.81428">
        <ele>332.971251</ele>
        <time>2022-06-11T11:05:56.025Z</time>
      </trkpt>
      <trkpt lat="42.95357" lon="17.81416">
        <ele>333.184987</ele>
        <time>2022-06-11T11:06:02.016Z</time>
      </trkpt>
      <trkpt lat="42.95362" lon="17.81403">
        <ele>333.090332</ele>
        <time>2022-06-11T11:06:08.027Z</time>
      </trkpt>
      <trkpt lat="42.95366" lon="17.81392">
        <ele>332.758274</ele>
        <time>2022-06-11T11:06:13.023Z</time>
      </trkpt>
      <trkpt lat="42.9537" lon="17.8138">
        <ele>332.43665</ele>
        <time>2022-06-11T11:06:18.036Z</time>
      </trkpt>
      <trkpt lat="42.95374" lon="17.81369">
        <ele>332.114639</ele>
        <time>2022-06-11T11:06:23.022Z</time>
      </trkpt>
      <trkpt lat="42.95379" lon="17.81356">
        <ele>331.744398</ele>
        <time>2022-06-11T11:06:29.019Z</time>
      </trkpt>
      <trkpt lat="42.95384" lon="17.81343">
        <ele>331.352514</ele>
        <time>2022-06-11T11:06:35.013Z</time>
      </trkpt>
      <trkpt lat="42.9539" lon="17.81332">
        <ele>331.020289</ele>
        <time>2022-06-11T11:06:40.039Z</time>
      </trkpt>
      <trkpt lat="42.95395" lon="17.81322">
        <ele>330.692403</ele>
        <time>2022-06-11T11:06:45.017Z</time>
      </trkpt>
      <trkpt lat="42.95402" lon="17.8131">
        <ele>330.310603</ele>
        <time>2022-06-11T11:06:51.024Z</time>
      </trkpt>
      <trkpt lat="42.95409" lon="17.81299">
        <ele>329.925354</ele>
        <time>2022-06-11T11:06:56.014Z</time>
      </trkpt>
      <trkpt lat="42.95415" lon="17.8129">
        <ele>329.593802</ele>
        <time>2022-06-11T11:07:01.024Z</time>
      </trkpt>
      <trkpt lat="42.95421" lon="17.81279">
        <ele>329.257478</ele>
        <time>2022-06-11T11:07:07.011Z</time>
      </trkpt>
      <trkpt lat="42.95427" lon="17.81268">
        <ele>328.898457</ele>
        <time>2022-06-11T11:07:12.052Z</time>
      </trkpt>
      <trkpt lat="42.95433" lon="17.81257">
        <ele>328.55155</ele>
        <time>2022-06-11T11:07:17.027Z</time>
      </trkpt>
      <trkpt lat="42.9544" lon="17.81247">
        <ele>328.187786</ele>
        <time>2022-06-11T11:07:22.022Z</time>
      </trkpt>
      <trkpt lat="42.95446" lon="17.81236">
        <ele>327.849563</ele>
        <time>2022-06-11T11:07:27.023Z</time>
      </trkpt>
      <trkpt lat="42.95452" lon="17.81225">
        <ele>327.498639</ele>
        <time>2022-06-11T11:07:32.025Z</time>
      </trkpt>
      <trkpt lat="42.95458" lon="17.81215">
        <ele>327.172823</ele>
        <time>2022-06-11T11:07:37.016Z</time>
      </trkpt>
      <trkpt lat="42.95464" lon="17.81206">
        <ele>327.316597</ele>
        <time>2022-06-11T11:07:42.015Z</time>
      </trkpt>
      <trkpt lat="42.95471" lon="17.81197">
        <ele>328.113036</ele>
        <time>2022-06-11T11:07:46.021Z</time>
      </trkpt>
      <trkpt lat="42.95477" lon="17.81186">
        <ele>329.05345</ele>
        <time>2022-06-11T11:07:51.019Z</time>
      </trkpt>
      <trkpt lat="42.95485" lon="17.81175">
        <ele>330.014452</ele>
        <time>2022-06-11T11:07:56.018Z</time>
      </trkpt>
      <trkpt lat="42.95492" lon="17.81167">
        <ele>330.812318</ele>
        <time>2022-06-11T11:08:00.024Z</time>
      </trkpt>
      <trkpt lat="42.955" lon="17.81157">
        <ele>331.811553</ele>
        <time>2022-06-11T11:08:05.019Z</time>
      </trkpt>
      <trkpt lat="42.95507" lon="17.81147">
        <ele>332.716476</ele>
        <time>2022-06-11T11:08:09.015Z</time>
      </trkpt>
      <trkpt lat="42.95514" lon="17.81136">
        <ele>333.630931</ele>
        <time>2022-06-11T11:08:13.019Z</time>
      </trkpt>
      <trkpt lat="42.95521" lon="17.81126">
        <ele>334.590367</ele>
        <time>2022-06-11T11:08:18.020Z</time>
      </trkpt>
      <trkpt lat="42.95528" lon="17.81116">
        <ele>335.445076</ele>
        <time>2022-06-11T11:08:22.020Z</time>
      </trkpt>
      <trkpt lat="42.95533" lon="17.81105">
        <ele>336.306517</ele>
        <time>2022-06-11T11:08:26.053Z</time>
      </trkpt>
      <trkpt lat="42.95539" lon="17.81095">
        <ele>337.183524</ele>
        <time>2022-06-11T11:08:30.029Z</time>
      </trkpt>
      <trkpt lat="42.95545" lon="17.81085">
        <ele>338.019391</ele>
        <time>2022-06-11T11:08:34.029Z</time>
      </trkpt>
      <trkpt lat="42.9555" lon="17.81074">
        <ele>338.843823</ele>
        <time>2022-06-11T11:08:38.024Z</time>
      </trkpt>
      <trkpt lat="42.95556" lon="17.81062">
        <ele>339.763411</ele>
        <time>2022-06-11T11:08:43.020Z</time>
      </trkpt>
      <trkpt lat="42.9556" lon="17.81049">
        <ele>340.681104</ele>
        <time>2022-06-11T11:08:48.053Z</time>
      </trkpt>
      <trkpt lat="42.95565" lon="17.81038">
        <ele>341.526896</ele>
        <time>2022-06-11T11:08:52.019Z</time>
      </trkpt>
      <trkpt lat="42.95569" lon="17.81025">
        <ele>342.490966</ele>
        <time>2022-06-11T11:08:57.015Z</time>
      </trkpt>
      <trkpt lat="42.95573" lon="17.81011">
        <ele>342.961985</ele>
        <time>2022-06-11T11:09:02.017Z</time>
      </trkpt>
      <trkpt lat="42.95577" lon="17.80998">
        <ele>342.961155</ele>
        <time>2022-06-11T11:09:06.009Z</time>
      </trkpt>
      <trkpt lat="42.95581" lon="17.80984">
        <ele>342.960208</ele>
        <time>2022-06-11T11:09:10.026Z</time>
      </trkpt>
      <trkpt lat="42.95584" lon="17.80971">
        <ele>342.959388</ele>
        <time>2022-06-11T11:09:13.016Z</time>
      </trkpt>
      <trkpt lat="42.95587" lon="17.80958">
        <ele>342.958562</ele>
        <time>2022-06-11T11:09:16.005Z</time>
      </trkpt>
      <trkpt lat="42.95591" lon="17.80943">
        <ele>342.957544</ele>
        <time>2022-06-11T11:09:19.015Z</time>
      </trkpt>
      <trkpt lat="42.95594" lon="17.80925">
        <ele>342.956469</ele>
        <time>2022-06-11T11:09:22.035Z</time>
      </trkpt>
      <trkpt lat="42.95597" lon="17.80908">
        <ele>342.955371</ele>
        <time>2022-06-11T11:09:25.017Z</time>
      </trkpt>
      <trkpt lat="42.95598" lon="17.8089">
        <ele>342.954246</ele>
        <time>2022-06-11T11:09:28.053Z</time>
      </trkpt>
      <trkpt lat="42.956" lon="17.80877">
        <ele>342.953435</ele>
        <time>2022-06-11T11:09:30.018Z</time>
      </trkpt>
      <trkpt lat="42.95601" lon="17.80864">
        <ele>342.952638</ele>
        <time>2022-06-11T11:09:32.024Z</time>
      </trkpt>
      <trkpt lat="42.95602" lon="17.8085">
        <ele>342.951822</ele>
        <time>2022-06-11T11:09:34.067Z</time>
      </trkpt>
      <trkpt lat="42.95604" lon="17.80838">
        <ele>342.951067</ele>
        <time>2022-06-11T11:09:36.012Z</time>
      </trkpt>
      <trkpt lat="42.95605" lon="17.80826">
        <ele>342.950299</ele>
        <time>2022-06-11T11:09:38.026Z</time>
      </trkpt>
      <trkpt lat="42.95607" lon="17.80809">
        <ele>342.949241</ele>
        <time>2022-06-11T11:09:41.020Z</time>
      </trkpt>
      <trkpt lat="42.9561" lon="17.80793">
        <ele>342.948261</ele>
        <time>2022-06-11T11:09:44.022Z</time>
      </trkpt>
      <trkpt lat="42.95613" lon="17.80778">
        <ele>342.952319</ele>
        <time>2022-06-11T11:09:47.008Z</time>
      </trkpt>
      <trkpt lat="42.95615" lon="17.80762">
        <ele>342.994626</ele>
        <time>2022-06-11T11:09:50.022Z</time>
      </trkpt>
      <trkpt lat="42.95618" lon="17.80746">
        <ele>343.040318</ele>
        <time>2022-06-11T11:09:53.094Z</time>
      </trkpt>
      <trkpt lat="42.95621" lon="17.80729">
        <ele>343.086869</ele>
        <time>2022-06-11T11:09:56.040Z</time>
      </trkpt>
      <trkpt lat="42.95624" lon="17.80717">
        <ele>343.121111</ele>
        <time>2022-06-11T11:09:58.021Z</time>
      </trkpt>
      <trkpt lat="42.95626" lon="17.80704">
        <ele>343.154928</ele>
        <time>2022-06-11T11:10:00.032Z</time>
      </trkpt>
      <trkpt lat="42.95629" lon="17.80692">
        <ele>343.18879</ele>
        <time>2022-06-11T11:10:02.045Z</time>
      </trkpt>
      <trkpt lat="42.95632" lon="17.8068">
        <ele>343.224989</ele>
        <time>2022-06-11T11:10:04.034Z</time>
      </trkpt>
      <trkpt lat="42.95635" lon="17.80668">
        <ele>343.259054</ele>
        <time>2022-06-11T11:10:06.031Z</time>
      </trkpt>
      <trkpt lat="42.95639" lon="17.80656">
        <ele>343.293318</ele>
        <time>2022-06-11T11:10:08.018Z</time>
      </trkpt>
      <trkpt lat="42.95643" lon="17.80644">
        <ele>343.329807</ele>
        <time>2022-06-11T11:10:10.038Z</time>
      </trkpt>
      <trkpt lat="42.95648" lon="17.80631">
        <ele>343.369118</ele>
        <time>2022-06-11T11:10:12.024Z</time>
      </trkpt>
      <trkpt lat="42.95653" lon="17.80618">
        <ele>343.406333</ele>
        <time>2022-06-11T11:10:14.097Z</time>
      </trkpt>
      <trkpt lat="42.95655" lon="17.80602">
        <ele>343.450769</ele>
        <time>2022-06-11T11:10:17.023Z</time>
      </trkpt>
      <trkpt lat="42.95655" lon="17.80589">
        <ele>343.485599</ele>
        <time>2022-06-11T11:10:20.034Z</time>
      </trkpt>
      <trkpt lat="42.95653" lon="17.80574">
        <ele>343.524703</ele>
        <time>2022-06-11T11:10:24.022Z</time>
      </trkpt>
      <trkpt lat="42.95652" lon="17.80561">
        <ele>343.559347</ele>
        <time>2022-06-11T11:10:28.018Z</time>
      </trkpt>
      <trkpt lat="42.9565" lon="17.80549">
        <ele>343.592855</ele>
        <time>2022-06-11T11:10:32.028Z</time>
      </trkpt>
      <trkpt lat="42.95645" lon="17.80538">
        <ele>343.714898</ele>
        <time>2022-06-11T11:10:37.030Z</time>
      </trkpt>
      <trkpt lat="42.95639" lon="17.80529">
        <ele>343.883474</ele>
        <time>2022-06-11T11:10:42.057Z</time>
      </trkpt>
      <trkpt lat="42.95639" lon="17.80515">
        <ele>344.065394</ele>
        <time>2022-06-11T11:10:47.018Z</time>
      </trkpt>
      <trkpt lat="42.95641" lon="17.80502">
        <ele>344.238911</ele>
        <time>2022-06-11T11:10:51.025Z</time>
      </trkpt>
      <trkpt lat="42.95641" lon="17.80489">
        <ele>344.417916</ele>
        <time>2022-06-11T11:10:55.025Z</time>
      </trkpt>
      <trkpt lat="42.95641" lon="17.80476">
        <ele>344.595652</ele>
        <time>2022-06-11T11:10:59.019Z</time>
      </trkpt>
      <trkpt lat="42.95639" lon="17.80462">
        <ele>344.784031</ele>
        <time>2022-06-11T11:11:04.032Z</time>
      </trkpt>
      <trkpt lat="42.95639" lon="17.80448">
        <ele>344.970084</ele>
        <time>2022-06-11T11:11:09.023Z</time>
      </trkpt>
      <trkpt lat="42.95639" lon="17.80435">
        <ele>345.157191</ele>
        <time>2022-06-11T11:11:14.015Z</time>
      </trkpt>
      <trkpt lat="42.95641" lon="17.80422">
        <ele>345.334033</ele>
        <time>2022-06-11T11:11:18.006Z</time>
      </trkpt>
      <trkpt lat="42.95643" lon="17.80407">
        <ele>345.530338</ele>
        <time>2022-06-11T11:11:22.056Z</time>
      </trkpt>
      <trkpt lat="42.95643" lon="17.80392">
        <ele>345.733633</ele>
        <time>2022-06-11T11:11:26.023Z</time>
      </trkpt>
      <trkpt lat="42.95642" lon="17.80378">
        <ele>345.928918</ele>
        <time>2022-06-11T11:11:30.027Z</time>
      </trkpt>
      <trkpt lat="42.95644" lon="17.80365">
        <ele>346.10576</ele>
        <time>2022-06-11T11:11:33.042Z</time>
      </trkpt>
      <trkpt lat="42.95646" lon="17.80352">
        <ele>346.285356</ele>
        <time>2022-06-11T11:11:36.013Z</time>
      </trkpt>
      <trkpt lat="42.9565" lon="17.80339">
        <ele>346.469472</ele>
        <time>2022-06-11T11:11:39.049Z</time>
      </trkpt>
      <trkpt lat="42.95654" lon="17.80324">
        <ele>346.682849</ele>
        <time>2022-06-11T11:11:42.009Z</time>
      </trkpt>
      <trkpt lat="42.95655" lon="17.8031">
        <ele>346.868851</ele>
        <time>2022-06-11T11:11:45.056Z</time>
      </trkpt>
      <trkpt lat="42.95655" lon="17.80297">
        <ele>347.101064</ele>
        <time>2022-06-11T11:11:48.015Z</time>
      </trkpt>
      <trkpt lat="42.95655" lon="17.80285">
        <ele>347.354285</ele>
        <time>2022-06-11T11:11:51.022Z</time>
      </trkpt>
      <trkpt lat="42.95653" lon="17.80271">
        <ele>347.620382</ele>
        <time>2022-06-11T11:11:55.021Z</time>
      </trkpt>
      <trkpt lat="42.95651" lon="17.80258">
        <ele>347.887911</ele>
        <time>2022-06-11T11:11:59.022Z</time>
      </trkpt>
      <trkpt lat="42.9565" lon="17.80243">
        <ele>348.185625</ele>
        <time>2022-06-11T11:12:03.002Z</time>
      </trkpt>
      <trkpt lat="42.95646" lon="17.80229">
        <ele>348.488791</ele>
        <time>2022-06-11T11:12:07.020Z</time>
      </trkpt>
      <trkpt lat="42.95639" lon="17.80217">
        <ele>348.78561</ele>
        <time>2022-06-11T11:12:11.016Z</time>
      </trkpt>
      <trkpt lat="42.9563" lon="17.80209">
        <ele>349.06189</ele>
        <time>2022-06-11T11:12:15.014Z</time>
      </trkpt>
      <trkpt lat="42.95622" lon="17.80202">
        <ele>349.319153</ele>
        <time>2022-06-11T11:12:21.018Z</time>
      </trkpt>
      <trkpt lat="42.95613" lon="17.80208">
        <ele>349.592513</ele>
        <time>2022-06-11T11:21:55.027Z</time>
      </trkpt>
      <trkpt lat="42.95634" lon="17.80214">
        <ele>350.166353</ele>
        <time>2022-06-11T11:22:20.024Z</time>
      </trkpt>
      <trkpt lat="42.95644" lon="17.80222">
        <ele>350.473644</ele>
        <time>2022-06-11T11:22:24.042Z</time>
      </trkpt>
      <trkpt lat="42.9565" lon="17.80235">
        <ele>350.771757</ele>
        <time>2022-06-11T11:22:28.035Z</time>
      </trkpt>
      <trkpt lat="42.9565" lon="17.80247">
        <ele>351.026662</ele>
        <time>2022-06-11T11:22:32.030Z</time>
      </trkpt>
      <trkpt lat="42.95651" lon="17.80261">
        <ele>351.30412</ele>
        <time>2022-06-11T11:22:37.011Z</time>
      </trkpt>
      <trkpt lat="42.95652" lon="17.80277">
        <ele>351.605668</ele>
        <time>2022-06-11T11:22:42.010Z</time>
      </trkpt>
      <trkpt lat="42.95653" lon="17.8029">
        <ele>351.36772</ele>
        <time>2022-06-11T11:22:45.016Z</time>
      </trkpt>
      <trkpt lat="42.95655" lon="17.80304">
        <ele>350.292906</ele>
        <time>2022-06-11T11:22:48.018Z</time>
      </trkpt>
      <trkpt lat="42.95654" lon="17.80318">
        <ele>349.247495</ele>
        <time>2022-06-11T11:22:51.031Z</time>
      </trkpt>
      <trkpt lat="42.9565" lon="17.80331">
        <ele>348.174805</ele>
        <time>2022-06-11T11:22:55.005Z</time>
      </trkpt>
      <trkpt lat="42.95647" lon="17.80343">
        <ele>347.192582</ele>
        <time>2022-06-11T11:22:59.008Z</time>
      </trkpt>
      <trkpt lat="42.95642" lon="17.80354">
        <ele>346.182326</ele>
        <time>2022-06-11T11:23:04.004Z</time>
      </trkpt>
      <trkpt lat="42.95639" lon="17.80366">
        <ele>345.214343</ele>
        <time>2022-06-11T11:23:08.996Z</time>
      </trkpt>
      <trkpt lat="42.95638" lon="17.80381">
        <ele>344.085502</ele>
        <time>2022-06-11T11:23:15.011Z</time>
      </trkpt>
      <trkpt lat="42.95637" lon="17.80396">
        <ele>342.961505</ele>
        <time>2022-06-11T11:23:20.015Z</time>
      </trkpt>
      <trkpt lat="42.95635" lon="17.80409">
        <ele>341.977521</ele>
        <time>2022-06-11T11:23:24.015Z</time>
      </trkpt>
      <trkpt lat="42.95634" lon="17.80421">
        <ele>341.029678</ele>
        <time>2022-06-11T11:23:28.044Z</time>
      </trkpt>
      <trkpt lat="42.95634" lon="17.80434">
        <ele>340.062747</ele>
        <time>2022-06-11T11:23:32.014Z</time>
      </trkpt>
      <trkpt lat="42.95633" lon="17.80449">
        <ele>338.860894</ele>
        <time>2022-06-11T11:23:36.018Z</time>
      </trkpt>
      <trkpt lat="42.95633" lon="17.80462">
        <ele>337.879149</ele>
        <time>2022-06-11T11:23:40.025Z</time>
      </trkpt>
      <trkpt lat="42.95634" lon="17.80475">
        <ele>336.909737</ele>
        <time>2022-06-11T11:23:43.018Z</time>
      </trkpt>
      <trkpt lat="42.95634" lon="17.80489">
        <ele>335.829401</ele>
        <time>2022-06-11T11:23:46.014Z</time>
      </trkpt>
      <trkpt lat="42.95632" lon="17.80503">
        <ele>334.776227</ele>
        <time>2022-06-11T11:23:49.012Z</time>
      </trkpt>
      <trkpt lat="42.95631" lon="17.80515">
        <ele>333.828383</ele>
        <time>2022-06-11T11:23:52.007Z</time>
      </trkpt>
      <trkpt lat="42.95633" lon="17.80529">
        <ele>333.088322</ele>
        <time>2022-06-11T11:23:56.015Z</time>
      </trkpt>
      <trkpt lat="42.95638" lon="17.80542">
        <ele>333.147174</ele>
        <time>2022-06-11T11:23:58.999Z</time>
      </trkpt>
      <trkpt lat="42.95648" lon="17.80544">
        <ele>333.203489</ele>
        <time>2022-06-11T11:24:03.035Z</time>
      </trkpt>
      <trkpt lat="42.95655" lon="17.80531">
        <ele>333.26752</ele>
        <time>2022-06-11T11:24:07.009Z</time>
      </trkpt>
      <trkpt lat="42.95662" lon="17.80521">
        <ele>333.322781</ele>
        <time>2022-06-11T11:24:10.024Z</time>
      </trkpt>
      <trkpt lat="42.95672" lon="17.80511">
        <ele>333.388012</ele>
        <time>2022-06-11T11:24:13.010Z</time>
      </trkpt>
      <trkpt lat="42.95681" lon="17.805">
        <ele>333.454427</ele>
        <time>2022-06-11T11:24:16.012Z</time>
      </trkpt>
      <trkpt lat="42.9569" lon="17.8049">
        <ele>333.516521</ele>
        <time>2022-06-11T11:24:19.028Z</time>
      </trkpt>
      <trkpt lat="42.95696" lon="17.80481">
        <ele>333.566807</ele>
        <time>2022-06-11T11:24:22.023Z</time>
      </trkpt>
      <trkpt lat="42.95701" lon="17.80467">
        <ele>333.629617</ele>
        <time>2022-06-11T11:24:26.026Z</time>
      </trkpt>
      <trkpt lat="42.95703" lon="17.80455">
        <ele>333.678696</ele>
        <time>2022-06-11T11:24:29.018Z</time>
      </trkpt>
      <trkpt lat="42.95706" lon="17.80442">
        <ele>333.73359</ele>
        <time>2022-06-11T11:24:32.032Z</time>
      </trkpt>
      <trkpt lat="42.95708" lon="17.80429">
        <ele>333.786715</ele>
        <time>2022-06-11T11:24:35.013Z</time>
      </trkpt>
      <trkpt lat="42.9571" lon="17.80414">
        <ele>333.848362</ele>
        <time>2022-06-11T11:24:39.019Z</time>
      </trkpt>
      <trkpt lat="42.95712" lon="17.80401">
        <ele>333.901981</ele>
        <time>2022-06-11T11:24:43.049Z</time>
      </trkpt>
      <trkpt lat="42.95715" lon="17.80377">
        <ele>333.99925</ele>
        <time>2022-06-11T11:34:07.017Z</time>
      </trkpt>
      <trkpt lat="42.95717" lon="17.80364">
        <ele>334.052077</ele>
        <time>2022-06-11T11:34:10.000Z</time>
      </trkpt>
      <trkpt lat="42.95718" lon="17.80351">
        <ele>334.304047</ele>
        <time>2022-06-11T11:34:13.008Z</time>
      </trkpt>
      <trkpt lat="42.9572" lon="17.80338">
        <ele>334.571389</ele>
        <time>2022-06-11T11:34:15.996Z</time>
      </trkpt>
      <trkpt lat="42.95721" lon="17.80325">
        <ele>334.860918</ele>
        <time>2022-06-11T11:34:19.005Z</time>
      </trkpt>
      <trkpt lat="42.95723" lon="17.80312">
        <ele>335.13416</ele>
        <time>2022-06-11T11:34:22.005Z</time>
      </trkpt>
      <trkpt lat="42.95725" lon="17.803">
        <ele>335.391249</ele>
        <time>2022-06-11T11:34:25.007Z</time>
      </trkpt>
      <trkpt lat="42.95726" lon="17.80285">
        <ele>335.69352</ele>
        <time>2022-06-11T11:34:28.004Z</time>
      </trkpt>
      <trkpt lat="42.95728" lon="17.80271">
        <ele>335.991678</ele>
        <time>2022-06-11T11:34:31.001Z</time>
      </trkpt>
      <trkpt lat="42.95727" lon="17.80258">
        <ele>336.264287</ele>
        <time>2022-06-11T11:34:33.997Z</time>
      </trkpt>
      <trkpt lat="42.95725" lon="17.80245">
        <ele>336.546272</ele>
        <time>2022-06-11T11:34:37.013Z</time>
      </trkpt>
      <trkpt lat="42.95721" lon="17.80232">
        <ele>336.834001</ele>
        <time>2022-06-11T11:34:39.998Z</time>
      </trkpt>
      <trkpt lat="42.95716" lon="17.8022">
        <ele>337.123498</ele>
        <time>2022-06-11T11:34:43.006Z</time>
      </trkpt>
      <trkpt lat="42.95713" lon="17.80208">
        <ele>337.384042</ele>
        <time>2022-06-11T11:34:46.000Z</time>
      </trkpt>
      <trkpt lat="42.95709" lon="17.80196">
        <ele>337.64933</ele>
        <time>2022-06-11T11:34:49.011Z</time>
      </trkpt>
      <trkpt lat="42.95705" lon="17.80185">
        <ele>337.925339</ele>
        <time>2022-06-11T11:34:51.999Z</time>
      </trkpt>
      <trkpt lat="42.957" lon="17.80171">
        <ele>338.226771</ele>
        <time>2022-06-11T11:34:55.003Z</time>
      </trkpt>
      <trkpt lat="42.95697" lon="17.80159">
        <ele>338.502068</ele>
        <time>2022-06-11T11:34:57.993Z</time>
      </trkpt>
      <trkpt lat="42.95692" lon="17.80148">
        <ele>338.762144</ele>
        <time>2022-06-11T11:35:01.002Z</time>
      </trkpt>
      <trkpt lat="42.95688" lon="17.80135">
        <ele>339.056031</ele>
        <time>2022-06-11T11:35:04.993Z</time>
      </trkpt>
      <trkpt lat="42.95681" lon="17.80124">
        <ele>339.032689</ele>
        <time>2022-06-11T11:35:09.997Z</time>
      </trkpt>
      <trkpt lat="42.95679" lon="17.8011">
        <ele>338.828966</ele>
        <time>2022-06-11T11:35:13.997Z</time>
      </trkpt>
      <trkpt lat="42.95681" lon="17.80097">
        <ele>338.652862</ele>
        <time>2022-06-11T11:35:16.994Z</time>
      </trkpt>
      <trkpt lat="42.95683" lon="17.80085">
        <ele>338.475627</ele>
        <time>2022-06-11T11:35:20.996Z</time>
      </trkpt>
      <trkpt lat="42.9569" lon="17.80073">
        <ele>338.264542</ele>
        <time>2022-06-11T11:35:27.000Z</time>
      </trkpt>
      <trkpt lat="42.95698" lon="17.80066">
        <ele>338.081822</ele>
        <time>2022-06-11T11:35:30.987Z</time>
      </trkpt>
      <trkpt lat="42.95708" lon="17.80063">
        <ele>337.891581</ele>
        <time>2022-06-11T11:35:34.010Z</time>
      </trkpt>
      <trkpt lat="42.95718" lon="17.80059">
        <ele>337.701262</ele>
        <time>2022-06-11T11:35:37.004Z</time>
      </trkpt>
      <trkpt lat="42.9573" lon="17.80055">
        <ele>337.466176</ele>
        <time>2022-06-11T11:35:40.991Z</time>
      </trkpt>
      <trkpt lat="42.95739" lon="17.80051">
        <ele>337.286518</ele>
        <time>2022-06-11T11:35:43.988Z</time>
      </trkpt>
      <trkpt lat="42.95748" lon="17.80046">
        <ele>337.110388</ele>
        <time>2022-06-11T11:35:47.031Z</time>
      </trkpt>
      <trkpt lat="42.95756" lon="17.80039">
        <ele>336.920677</ele>
        <time>2022-06-11T11:35:49.997Z</time>
      </trkpt>
      <trkpt lat="42.95765" lon="17.80031">
        <ele>336.716438</ele>
        <time>2022-06-11T11:35:53.992Z</time>
      </trkpt>
      <trkpt lat="42.95774" lon="17.80023">
        <ele>336.520617</ele>
        <time>2022-06-11T11:35:57.992Z</time>
      </trkpt>
      <trkpt lat="42.95784" lon="17.80015">
        <ele>336.299208</ele>
        <time>2022-06-11T11:36:01.991Z</time>
      </trkpt>
      <trkpt lat="42.95793" lon="17.80007">
        <ele>336.101783</ele>
        <time>2022-06-11T11:36:05.990Z</time>
      </trkpt>
      <trkpt lat="42.95803" lon="17.79999">
        <ele>335.887384</ele>
        <time>2022-06-11T11:36:10.006Z</time>
      </trkpt>
      <trkpt lat="42.95812" lon="17.79991">
        <ele>335.659768</ele>
        <time>2022-06-11T11:36:14.009Z</time>
      </trkpt>
      <trkpt lat="42.9582" lon="17.79983">
        <ele>335.473171</ele>
        <time>2022-06-11T11:36:17.016Z</time>
      </trkpt>
      <trkpt lat="42.95828" lon="17.79975">
        <ele>335.272105</ele>
        <time>2022-06-11T11:36:20.019Z</time>
      </trkpt>
      <trkpt lat="42.95837" lon="17.79967">
        <ele>335.049177</ele>
        <time>2022-06-11T11:36:23.015Z</time>
      </trkpt>
      <trkpt lat="42.95845" lon="17.79959">
        <ele>334.845716</ele>
        <time>2022-06-11T11:36:26.019Z</time>
      </trkpt>
      <trkpt lat="42.95853" lon="17.79951">
        <ele>334.648797</ele>
        <time>2022-06-11T11:36:29.018Z</time>
      </trkpt>
      <trkpt lat="42.95862" lon="17.79942">
        <ele>334.417278</ele>
        <time>2022-06-11T11:36:33.007Z</time>
      </trkpt>
      <trkpt lat="42.95871" lon="17.79933">
        <ele>334.18529</ele>
        <time>2022-06-11T11:36:37.026Z</time>
      </trkpt>
      <trkpt lat="42.9588" lon="17.79926">
        <ele>333.969908</ele>
        <time>2022-06-11T11:36:41.015Z</time>
      </trkpt>
      <trkpt lat="42.9589" lon="17.79916">
        <ele>333.725299</ele>
        <time>2022-06-11T11:36:45.040Z</time>
      </trkpt>
      <trkpt lat="42.95898" lon="17.79909">
        <ele>333.533673</ele>
        <time>2022-06-11T11:36:48.021Z</time>
      </trkpt>
      <trkpt lat="42.95906" lon="17.79901">
        <ele>333.336988</ele>
        <time>2022-06-11T11:36:51.020Z</time>
      </trkpt>
      <trkpt lat="42.95914" lon="17.79893">
        <ele>333.136642</ele>
        <time>2022-06-11T11:36:53.997Z</time>
      </trkpt>
      <trkpt lat="42.95922" lon="17.79886">
        <ele>332.937296</ele>
        <time>2022-06-11T11:36:57.020Z</time>
      </trkpt>
      <trkpt lat="42.9593" lon="17.79878">
        <ele>332.740162</ele>
        <time>2022-06-11T11:37:00.013Z</time>
      </trkpt>
      <trkpt lat="42.95937" lon="17.79871">
        <ele>332.556088</ele>
        <time>2022-06-11T11:37:03.020Z</time>
      </trkpt>
      <trkpt lat="42.95945" lon="17.79863">
        <ele>332.351859</ele>
        <time>2022-06-11T11:37:06.010Z</time>
      </trkpt>
      <trkpt lat="42.95955" lon="17.79856">
        <ele>332.126739</ele>
        <time>2022-06-11T11:37:10.018Z</time>
      </trkpt>
      <trkpt lat="42.95964" lon="17.7985">
        <ele>331.685671</ele>
        <time>2022-06-11T11:37:14.022Z</time>
      </trkpt>
      <trkpt lat="42.95972" lon="17.79842">
        <ele>331.21651</ele>
        <time>2022-06-11T11:37:18.008Z</time>
      </trkpt>
      <trkpt lat="42.95981" lon="17.79835">
        <ele>330.689842</ele>
        <time>2022-06-11T11:37:22.004Z</time>
      </trkpt>
      <trkpt lat="42.95992" lon="17.79827">
        <ele>330.133687</ele>
        <time>2022-06-11T11:37:26.012Z</time>
      </trkpt>
      <trkpt lat="42.96002" lon="17.7982">
        <ele>329.556074</ele>
        <time>2022-06-11T11:37:29.993Z</time>
      </trkpt>
      <trkpt lat="42.96012" lon="17.79815">
        <ele>329.058399</ele>
        <time>2022-06-11T11:37:33.023Z</time>
      </trkpt>
      <trkpt lat="42.96024" lon="17.7981">
        <ele>328.481288</ele>
        <time>2022-06-11T11:37:36.031Z</time>
      </trkpt>
      <trkpt lat="42.96035" lon="17.79805">
        <ele>327.89924</ele>
        <time>2022-06-11T11:37:39.023Z</time>
      </trkpt>
      <trkpt lat="42.96046" lon="17.79801">
        <ele>327.374124</ele>
        <time>2022-06-11T11:37:42.011Z</time>
      </trkpt>
      <trkpt lat="42.96055" lon="17.79796">
        <ele>326.876233</ele>
        <time>2022-06-11T11:37:45.017Z</time>
      </trkpt>
      <trkpt lat="42.96065" lon="17.79792">
        <ele>326.372611</ele>
        <time>2022-06-11T11:37:48.003Z</time>
      </trkpt>
      <trkpt lat="42.96075" lon="17.79787">
        <ele>325.902982</ele>
        <time>2022-06-11T11:37:51.013Z</time>
      </trkpt>
      <trkpt lat="42.96084" lon="17.79782">
        <ele>325.410774</ele>
        <time>2022-06-11T11:37:54.025Z</time>
      </trkpt>
      <trkpt lat="42.96093" lon="17.79776">
        <ele>324.917461</ele>
        <time>2022-06-11T11:37:57.007Z</time>
      </trkpt>
      <trkpt lat="42.96102" lon="17.79768">
        <ele>324.424574</ele>
        <time>2022-06-11T11:38:00.012Z</time>
      </trkpt>
      <trkpt lat="42.9611" lon="17.7976">
        <ele>323.941573</ele>
        <time>2022-06-11T11:38:03.011Z</time>
      </trkpt>
      <trkpt lat="42.96118" lon="17.79752">
        <ele>323.477659</ele>
        <time>2022-06-11T11:38:06.025Z</time>
      </trkpt>
      <trkpt lat="42.96126" lon="17.79743">
        <ele>323.191373</ele>
        <time>2022-06-11T11:38:09.024Z</time>
      </trkpt>
      <trkpt lat="42.96135" lon="17.79733">
        <ele>322.882665</ele>
        <time>2022-06-11T11:38:12.010Z</time>
      </trkpt>
      <trkpt lat="42.96143" lon="17.79722">
        <ele>322.571402</ele>
        <time>2022-06-11T11:38:15.022Z</time>
      </trkpt>
      <trkpt lat="42.96151" lon="17.79713">
        <ele>322.275395</ele>
        <time>2022-06-11T11:38:18.010Z</time>
      </trkpt>
      <trkpt lat="42.96161" lon="17.79703">
        <ele>321.942703</ele>
        <time>2022-06-11T11:38:21.007Z</time>
      </trkpt>
      <trkpt lat="42.9617" lon="17.79694">
        <ele>321.634083</ele>
        <time>2022-06-11T11:38:24.002Z</time>
      </trkpt>
      <trkpt lat="42.9618" lon="17.79687">
        <ele>321.334259</ele>
        <time>2022-06-11T11:38:27.048Z</time>
      </trkpt>
      <trkpt lat="42.9619" lon="17.79681">
        <ele>321.025169</ele>
        <time>2022-06-11T11:38:30.017Z</time>
      </trkpt>
      <trkpt lat="42.96199" lon="17.79676">
        <ele>320.750525</ele>
        <time>2022-06-11T11:38:33.015Z</time>
      </trkpt>
      <trkpt lat="42.96209" lon="17.79669">
        <ele>320.443464</ele>
        <time>2022-06-11T11:38:37.020Z</time>
      </trkpt>
      <trkpt lat="42.96219" lon="17.79664">
        <ele>320.169404</ele>
        <time>2022-06-11T11:38:41.013Z</time>
      </trkpt>
      <trkpt lat="42.96228" lon="17.7966">
        <ele>319.901858</ele>
        <time>2022-06-11T11:38:45.005Z</time>
      </trkpt>
      <trkpt lat="42.96239" lon="17.79656">
        <ele>319.599658</ele>
        <time>2022-06-11T11:38:50.032Z</time>
      </trkpt>
      <trkpt lat="42.96249" lon="17.7965">
        <ele>319.293597</ele>
        <time>2022-06-11T11:38:55.055Z</time>
      </trkpt>
      <trkpt lat="42.96259" lon="17.79645">
        <ele>319.014862</ele>
        <time>2022-06-11T11:38:59.012Z</time>
      </trkpt>
      <trkpt lat="42.96268" lon="17.79642">
        <ele>318.744394</ele>
        <time>2022-06-11T11:39:03.025Z</time>
      </trkpt>
      <trkpt lat="42.96277" lon="17.79637">
        <ele>318.692014</ele>
        <time>2022-06-11T11:39:07.006Z</time>
      </trkpt>
      <trkpt lat="42.96288" lon="17.79634">
        <ele>319.159909</ele>
        <time>2022-06-11T11:39:11.006Z</time>
      </trkpt>
      <trkpt lat="42.96299" lon="17.79631">
        <ele>319.663776</ele>
        <time>2022-06-11T11:39:15.004Z</time>
      </trkpt>
      <trkpt lat="42.9631" lon="17.79628">
        <ele>320.150202</ele>
        <time>2022-06-11T11:39:19.007Z</time>
      </trkpt>
      <trkpt lat="42.96321" lon="17.79624">
        <ele>320.647355</ele>
        <time>2022-06-11T11:39:23.007Z</time>
      </trkpt>
      <trkpt lat="42.96331" lon="17.79621">
        <ele>321.108881</ele>
        <time>2022-06-11T11:39:26.999Z</time>
      </trkpt>
      <trkpt lat="42.96341" lon="17.79618">
        <ele>321.541787</ele>
        <time>2022-06-11T11:39:30.991Z</time>
      </trkpt>
      <trkpt lat="42.9635" lon="17.79616">
        <ele>321.937592</ele>
        <time>2022-06-11T11:39:34.998Z</time>
      </trkpt>
      <trkpt lat="42.96359" lon="17.79614">
        <ele>322.335331</ele>
        <time>2022-06-11T11:39:39.007Z</time>
      </trkpt>
      <trkpt lat="42.96369" lon="17.7961">
        <ele>322.812177</ele>
        <time>2022-06-11T11:39:43.990Z</time>
      </trkpt>
      <trkpt lat="42.96378" lon="17.79607">
        <ele>323.212413</ele>
        <time>2022-06-11T11:39:47.992Z</time>
      </trkpt>
      <trkpt lat="42.96387" lon="17.79603">
        <ele>323.644832</ele>
        <time>2022-06-11T11:39:53.017Z</time>
      </trkpt>
      <trkpt lat="42.96398" lon="17.796">
        <ele>324.115794</ele>
        <time>2022-06-11T11:39:57.998Z</time>
      </trkpt>
      <trkpt lat="42.96409" lon="17.79595">
        <ele>324.606414</ele>
        <time>2022-06-11T11:40:02.996Z</time>
      </trkpt>
      <trkpt lat="42.96419" lon="17.79591">
        <ele>325.095959</ele>
        <time>2022-06-11T11:40:08.019Z</time>
      </trkpt>
      <trkpt lat="42.9643" lon="17.79588">
        <ele>325.585926</ele>
        <time>2022-06-11T11:40:13.019Z</time>
      </trkpt>
      <trkpt lat="42.96439" lon="17.79584">
        <ele>325.988195</ele>
        <time>2022-06-11T11:40:17.058Z</time>
      </trkpt>
      <trkpt lat="42.9645" lon="17.7958">
        <ele>326.502369</ele>
        <time>2022-06-11T11:40:22.015Z</time>
      </trkpt>
      <trkpt lat="42.9646" lon="17.79575">
        <ele>327.200756</ele>
        <time>2022-06-11T11:40:27.058Z</time>
      </trkpt>
      <trkpt lat="42.96469" lon="17.79571">
        <ele>327.820339</ele>
        <time>2022-06-11T11:40:31.017Z</time>
      </trkpt>
      <trkpt lat="42.9648" lon="17.79567">
        <ele>328.496328</ele>
        <time>2022-06-11T11:40:36.029Z</time>
      </trkpt>
      <trkpt lat="42.9649" lon="17.79564">
        <ele>329.174282</ele>
        <time>2022-06-11T11:40:41.018Z</time>
      </trkpt>
      <trkpt lat="42.96501" lon="17.79561">
        <ele>329.884347</ele>
        <time>2022-06-11T11:40:46.022Z</time>
      </trkpt>
      <trkpt lat="42.96511" lon="17.79557">
        <ele>330.579138</ele>
        <time>2022-06-11T11:40:51.023Z</time>
      </trkpt>
      <trkpt lat="42.9652" lon="17.79553">
        <ele>331.157937</ele>
        <time>2022-06-11T11:40:55.005Z</time>
      </trkpt>
      <trkpt lat="42.9653" lon="17.7955">
        <ele>331.806743</ele>
        <time>2022-06-11T11:41:00.011Z</time>
      </trkpt>
      <trkpt lat="42.96539" lon="17.79545">
        <ele>332.403831</ele>
        <time>2022-06-11T11:41:04.016Z</time>
      </trkpt>
      <trkpt lat="42.96548" lon="17.79542">
        <ele>332.987666</ele>
        <time>2022-06-11T11:41:08.017Z</time>
      </trkpt>
      <trkpt lat="42.96557" lon="17.79538">
        <ele>333.579964</ele>
        <time>2022-06-11T11:41:12.016Z</time>
      </trkpt>
      <trkpt lat="42.96568" lon="17.79535">
        <ele>334.305502</ele>
        <time>2022-06-11T11:41:17.016Z</time>
      </trkpt>
      <trkpt lat="42.96577" lon="17.79533">
        <ele>334.907737</ele>
        <time>2022-06-11T11:41:21.028Z</time>
      </trkpt>
      <trkpt lat="42.96586" lon="17.79531">
        <ele>335.513277</ele>
        <time>2022-06-11T11:41:26.029Z</time>
      </trkpt>
      <trkpt lat="42.96598" lon="17.79527">
        <ele>336.294776</ele>
        <time>2022-06-11T11:41:30.014Z</time>
      </trkpt>
      <trkpt lat="42.96611" lon="17.79524">
        <ele>337.130654</ele>
        <time>2022-06-11T11:41:33.005Z</time>
      </trkpt>
      <trkpt lat="42.96621" lon="17.79523">
        <ele>337.775006</ele>
        <time>2022-06-11T11:41:35.008Z</time>
      </trkpt>
      <trkpt lat="42.96631" lon="17.79522">
        <ele>338.311421</ele>
        <time>2022-06-11T11:41:37.030Z</time>
      </trkpt>
      <trkpt lat="42.96642" lon="17.79527">
        <ele>338.989383</ele>
        <time>2022-06-11T11:41:40.036Z</time>
      </trkpt>
      <trkpt lat="42.9665" lon="17.79533">
        <ele>339.4974</ele>
        <time>2022-06-11T11:41:43.021Z</time>
      </trkpt>
      <trkpt lat="42.96654" lon="17.79545">
        <ele>340.045131</ele>
        <time>2022-06-11T11:41:49.009Z</time>
      </trkpt>
      <trkpt lat="42.96655" lon="17.79557">
        <ele>340.558333</ele>
        <time>2022-06-11T11:41:56.020Z</time>
      </trkpt>
      <trkpt lat="42.96656" lon="17.79569">
        <ele>341.071668</ele>
        <time>2022-06-11T11:42:02.019Z</time>
      </trkpt>
      <trkpt lat="42.96656" lon="17.79582">
        <ele>341.601077</ele>
        <time>2022-06-11T11:42:09.007Z</time>
      </trkpt>
      <trkpt lat="42.96653" lon="17.79594">
        <ele>342.121991</ele>
        <time>2022-06-11T11:42:16.043Z</time>
      </trkpt>
      <trkpt lat="42.9665" lon="17.79606">
        <ele>342.6393</ele>
        <time>2022-06-11T11:42:23.055Z</time>
      </trkpt>
      <trkpt lat="42.96646" lon="17.79618">
        <ele>343.1809</ele>
        <time>2022-06-11T11:42:30.002Z</time>
      </trkpt>
      <trkpt lat="42.96643" lon="17.7963">
        <ele>343.719925</ele>
        <time>2022-06-11T11:42:37.056Z</time>
      </trkpt>
      <trkpt lat="42.96653" lon="17.79631">
        <ele>344.292576</ele>
        <time>2022-06-11T11:42:46.020Z</time>
      </trkpt>
      <trkpt lat="42.96659" lon="17.79622">
        <ele>344.800787</ele>
        <time>2022-06-11T11:42:52.022Z</time>
      </trkpt>
      <trkpt lat="42.96665" lon="17.79612">
        <ele>345.35238</ele>
        <time>2022-06-11T11:43:00.010Z</time>
      </trkpt>
      <trkpt lat="42.96672" lon="17.79603">
        <ele>345.879347</ele>
        <time>2022-06-11T11:43:09.003Z</time>
      </trkpt>
      <trkpt lat="42.9668" lon="17.79595">
        <ele>346.448785</ele>
        <time>2022-06-11T11:43:17.006Z</time>
      </trkpt>
      <trkpt lat="42.96685" lon="17.79583">
        <ele>347.00991</ele>
        <time>2022-06-11T11:43:25.020Z</time>
      </trkpt>
      <trkpt lat="42.96691" lon="17.79572">
        <ele>347.580757</ele>
        <time>2022-06-11T11:43:34.022Z</time>
      </trkpt>
      <trkpt lat="42.96696" lon="17.79561">
        <ele>348.085277</ele>
        <time>2022-06-11T11:43:44.019Z</time>
      </trkpt>
      <trkpt lat="42.967" lon="17.7955">
        <ele>348.26846</ele>
        <time>2022-06-11T11:43:52.017Z</time>
      </trkpt>
      <trkpt lat="42.96703" lon="17.79538">
        <ele>348.458931</ele>
        <time>2022-06-11T11:43:59.038Z</time>
      </trkpt>
      <trkpt lat="42.96705" lon="17.79526">
        <ele>348.644946</ele>
        <time>2022-06-11T11:44:06.034Z</time>
      </trkpt>
      <trkpt lat="42.96706" lon="17.79512">
        <ele>348.84069</ele>
        <time>2022-06-11T11:44:15.029Z</time>
      </trkpt>
      <trkpt lat="42.96708" lon="17.795">
        <ele>349.039702</ele>
        <time>2022-06-11T11:44:24.016Z</time>
      </trkpt>
      <trkpt lat="42.96708" lon="17.79487">
        <ele>349.226394</ele>
        <time>2022-06-11T11:44:31.032Z</time>
      </trkpt>
      <trkpt lat="42.96704" lon="17.79475">
        <ele>349.421766</ele>
        <time>2022-06-11T11:44:39.022Z</time>
      </trkpt>
      <trkpt lat="42.96702" lon="17.79462">
        <ele>349.619774</ele>
        <time>2022-06-11T11:44:48.055Z</time>
      </trkpt>
      <trkpt lat="42.96706" lon="17.79449">
        <ele>349.820259</ele>
        <time>2022-06-11T11:44:58.023Z</time>
      </trkpt>
      <trkpt lat="42.96733" lon="17.79437">
        <ele>350.405169</ele>
        <time>2022-06-11T11:47:28.987Z</time>
      </trkpt>
      <trkpt lat="42.96742" lon="17.79434">
        <ele>350.597145</ele>
        <time>2022-06-11T11:47:30.993Z</time>
      </trkpt>
      <trkpt lat="42.96753" lon="17.79427">
        <ele>350.830258</ele>
        <time>2022-06-11T11:47:33.003Z</time>
      </trkpt>
      <trkpt lat="42.96764" lon="17.7942">
        <ele>351.092383</ele>
        <time>2022-06-11T11:47:34.998Z</time>
      </trkpt>
      <trkpt lat="42.96778" lon="17.79411">
        <ele>351.398417</ele>
        <time>2022-06-11T11:47:36.985Z</time>
      </trkpt>
      <trkpt lat="42.96794" lon="17.79404">
        <ele>351.727291</ele>
        <time>2022-06-11T11:47:38.991Z</time>
      </trkpt>
      <trkpt lat="42.9681" lon="17.79396">
        <ele>351.711843</ele>
        <time>2022-06-11T11:47:40.989Z</time>
      </trkpt>
      <trkpt lat="42.96827" lon="17.7939">
        <ele>351.695844</ele>
        <time>2022-06-11T11:47:42.997Z</time>
      </trkpt>
      <trkpt lat="42.96836" lon="17.79387">
        <ele>351.687496</ele>
        <time>2022-06-11T11:47:43.992Z</time>
      </trkpt>
      <trkpt lat="42.96845" lon="17.79383">
        <ele>351.67908</ele>
        <time>2022-06-11T11:47:45.091Z</time>
      </trkpt>
      <trkpt lat="42.96862" lon="17.79376">
        <ele>351.663512</ele>
        <time>2022-06-11T11:47:47.008Z</time>
      </trkpt>
      <trkpt lat="42.96876" lon="17.7937">
        <ele>351.650064</ele>
        <time>2022-06-11T11:47:49.031Z</time>
      </trkpt>
      <trkpt lat="42.96889" lon="17.79364">
        <ele>351.637633</ele>
        <time>2022-06-11T11:47:51.049Z</time>
      </trkpt>
      <trkpt lat="42.96901" lon="17.79358">
        <ele>351.626523</ele>
        <time>2022-06-11T11:47:53.025Z</time>
      </trkpt>
      <trkpt lat="42.9691" lon="17.79351">
        <ele>351.616608</ele>
        <time>2022-06-11T11:47:55.008Z</time>
      </trkpt>
      <trkpt lat="42.96918" lon="17.79344">
        <ele>351.608058</ele>
        <time>2022-06-11T11:47:57.005Z</time>
      </trkpt>
      <trkpt lat="42.96927" lon="17.79336">
        <ele>351.59873</ele>
        <time>2022-06-11T11:48:00.052Z</time>
      </trkpt>
      <trkpt lat="42.96936" lon="17.7933">
        <ele>351.58918</ele>
        <time>2022-06-11T11:48:04.995Z</time>
      </trkpt>
      <trkpt lat="42.96945" lon="17.79323">
        <ele>351.580305</ele>
        <time>2022-06-11T11:48:09.024Z</time>
      </trkpt>
      <trkpt lat="42.96957" lon="17.79317">
        <ele>351.568953</ele>
        <time>2022-06-11T11:48:13.024Z</time>
      </trkpt>
      <trkpt lat="42.96968" lon="17.79312">
        <ele>351.763644</ele>
        <time>2022-06-11T11:48:16.001Z</time>
      </trkpt>
      <trkpt lat="42.96979" lon="17.79308">
        <ele>352.027423</ele>
        <time>2022-06-11T11:48:19.027Z</time>
      </trkpt>
      <trkpt lat="42.96989" lon="17.79304">
        <ele>352.284366</ele>
        <time>2022-06-11T11:48:22.002Z</time>
      </trkpt>
      <trkpt lat="42.97002" lon="17.79301">
        <ele>352.580985</ele>
        <time>2022-06-11T11:48:25.014Z</time>
      </trkpt>
      <trkpt lat="42.97014" lon="17.79296">
        <ele>352.885653</ele>
        <time>2022-06-11T11:48:28.005Z</time>
      </trkpt>
      <trkpt lat="42.97025" lon="17.79292">
        <ele>353.15442</ele>
        <time>2022-06-11T11:48:31.022Z</time>
      </trkpt>
      <trkpt lat="42.97034" lon="17.79289">
        <ele>353.377431</ele>
        <time>2022-06-11T11:48:34.017Z</time>
      </trkpt>
      <trkpt lat="42.97044" lon="17.79285">
        <ele>353.602715</ele>
        <time>2022-06-11T11:48:37.024Z</time>
      </trkpt>
      <trkpt lat="42.97054" lon="17.79281">
        <ele>353.848353</ele>
        <time>2022-06-11T11:48:40.006Z</time>
      </trkpt>
      <trkpt lat="42.97064" lon="17.79276">
        <ele>354.105673</ele>
        <time>2022-06-11T11:48:43.012Z</time>
      </trkpt>
      <trkpt lat="42.97074" lon="17.7927">
        <ele>354.359543</ele>
        <time>2022-06-11T11:48:46.052Z</time>
      </trkpt>
      <trkpt lat="42.97083" lon="17.79265">
        <ele>354.597474</ele>
        <time>2022-06-11T11:48:49.019Z</time>
      </trkpt>
      <trkpt lat="42.97093" lon="17.79263">
        <ele>354.832666</ele>
        <time>2022-06-11T11:48:52.005Z</time>
      </trkpt>
      <trkpt lat="42.97104" lon="17.79263">
        <ele>355.086745</ele>
        <time>2022-06-11T11:48:55.021Z</time>
      </trkpt>
      <trkpt lat="42.97114" lon="17.79267">
        <ele>355.328308</ele>
        <time>2022-06-11T11:48:58.029Z</time>
      </trkpt>
      <trkpt lat="42.97123" lon="17.79273">
        <ele>355.549923</ele>
        <time>2022-06-11T11:49:01.014Z</time>
      </trkpt>
      <trkpt lat="42.97131" lon="17.79281">
        <ele>355.800379</ele>
        <time>2022-06-11T11:49:05.048Z</time>
      </trkpt>
      <trkpt lat="42.97137" lon="17.79293">
        <ele>356.154901</ele>
        <time>2022-06-11T11:49:09.019Z</time>
      </trkpt>
      <trkpt lat="42.97143" lon="17.79303">
        <ele>356.481082</ele>
        <time>2022-06-11T11:49:13.021Z</time>
      </trkpt>
      <trkpt lat="42.97149" lon="17.79313">
        <ele>356.822201</ele>
        <time>2022-06-11T11:49:17.028Z</time>
      </trkpt>
      <trkpt lat="42.97157" lon="17.79323">
        <ele>357.17992</ele>
        <time>2022-06-11T11:49:21.012Z</time>
      </trkpt>
      <trkpt lat="42.97164" lon="17.79331">
        <ele>357.497268</ele>
        <time>2022-06-11T11:49:25.030Z</time>
      </trkpt>
      <trkpt lat="42.97173" lon="17.79339">
        <ele>357.859859</ele>
        <time>2022-06-11T11:49:30.045Z</time>
      </trkpt>
      <trkpt lat="42.97182" lon="17.79344">
        <ele>358.180486</ele>
        <time>2022-06-11T11:49:34.015Z</time>
      </trkpt>
      <trkpt lat="42.97192" lon="17.79349">
        <ele>358.55397</ele>
        <time>2022-06-11T11:49:39.024Z</time>
      </trkpt>
      <trkpt lat="42.97201" lon="17.79352">
        <ele>358.891817</ele>
        <time>2022-06-11T11:49:43.994Z</time>
      </trkpt>
      <trkpt lat="42.9721" lon="17.79357">
        <ele>359.220672</ele>
        <time>2022-06-11T11:49:48.993Z</time>
      </trkpt>
      <trkpt lat="42.97221" lon="17.79362">
        <ele>359.600512</ele>
        <time>2022-06-11T11:49:53.995Z</time>
      </trkpt>
      <trkpt lat="42.97229" lon="17.79367">
        <ele>359.922854</ele>
        <time>2022-06-11T11:49:58.015Z</time>
      </trkpt>
      <trkpt lat="42.9724" lon="17.79372">
        <ele>360.295467</ele>
        <time>2022-06-11T11:50:02.997Z</time>
      </trkpt>
      <trkpt lat="42.9725" lon="17.79377">
        <ele>360.675763</ele>
        <time>2022-06-11T11:50:08.020Z</time>
      </trkpt>
      <trkpt lat="42.9726" lon="17.79382">
        <ele>361.047512</ele>
        <time>2022-06-11T11:50:13.014Z</time>
      </trkpt>
      <trkpt lat="42.9727" lon="17.79385">
        <ele>361.390989</ele>
        <time>2022-06-11T11:50:18.045Z</time>
      </trkpt>
      <trkpt lat="42.9728" lon="17.79385">
        <ele>361.730638</ele>
        <time>2022-06-11T11:50:24.026Z</time>
      </trkpt>
      <trkpt lat="42.9729" lon="17.79384">
        <ele>362.224459</ele>
        <time>2022-06-11T11:50:30.021Z</time>
      </trkpt>
      <trkpt lat="42.97299" lon="17.79383">
        <ele>362.956175</ele>
        <time>2022-06-11T11:50:35.024Z</time>
      </trkpt>
      <trkpt lat="42.97308" lon="17.79383">
        <ele>363.674355</ele>
        <time>2022-06-11T11:50:40.034Z</time>
      </trkpt>
      <trkpt lat="42.97319" lon="17.79382">
        <ele>364.510118</ele>
        <time>2022-06-11T11:50:46.015Z</time>
      </trkpt>
      <trkpt lat="42.97329" lon="17.79384">
        <ele>365.282795</ele>
        <time>2022-06-11T11:50:52.022Z</time>
      </trkpt>
      <trkpt lat="42.97339" lon="17.79385">
        <ele>366.088142</ele>
        <time>2022-06-11T11:50:58.039Z</time>
      </trkpt>
      <trkpt lat="42.9735" lon="17.79383">
        <ele>366.914957</ele>
        <time>2022-06-11T11:51:04.014Z</time>
      </trkpt>
      <trkpt lat="42.97359" lon="17.79382">
        <ele>367.626455</ele>
        <time>2022-06-11T11:51:09.017Z</time>
      </trkpt>
      <trkpt lat="42.97368" lon="17.79382">
        <ele>368.329046</ele>
        <time>2022-06-11T11:51:14.024Z</time>
      </trkpt>
      <trkpt lat="42.97377" lon="17.7938">
        <ele>369.066822</ele>
        <time>2022-06-11T11:51:20.015Z</time>
      </trkpt>
      <trkpt lat="42.97387" lon="17.79378">
        <ele>369.820984</ele>
        <time>2022-06-11T11:51:26.015Z</time>
      </trkpt>
      <trkpt lat="42.97396" lon="17.79374">
        <ele>370.552345</ele>
        <time>2022-06-11T11:51:32.014Z</time>
      </trkpt>
      <trkpt lat="42.97406" lon="17.7937">
        <ele>371.362586</ele>
        <time>2022-06-11T11:51:38.024Z</time>
      </trkpt>
      <trkpt lat="42.97415" lon="17.79366">
        <ele>372.106844</ele>
        <time>2022-06-11T11:51:43.025Z</time>
      </trkpt>
      <trkpt lat="42.97424" lon="17.79363">
        <ele>372.830004</ele>
        <time>2022-06-11T11:51:48.017Z</time>
      </trkpt>
      <trkpt lat="42.97433" lon="17.79358">
        <ele>373.624305</ele>
        <time>2022-06-11T11:51:54.014Z</time>
      </trkpt>
      <trkpt lat="42.97443" lon="17.79354">
        <ele>374.422709</ele>
        <time>2022-06-11T11:52:01.024Z</time>
      </trkpt>
      <trkpt lat="42.97452" lon="17.79351">
        <ele>375.130667</ele>
        <time>2022-06-11T11:52:07.023Z</time>
      </trkpt>
      <trkpt lat="42.97461" lon="17.79346">
        <ele>375.91743</ele>
        <time>2022-06-11T11:52:14.046Z</time>
      </trkpt>
      <trkpt lat="42.9747" lon="17.79342">
        <ele>376.242904</ele>
        <time>2022-06-11T11:52:21.027Z</time>
      </trkpt>
      <trkpt lat="42.97479" lon="17.7934">
        <ele>376.511653</ele>
        <time>2022-06-11T11:52:27.054Z</time>
      </trkpt>
      <trkpt lat="42.9749" lon="17.79338">
        <ele>376.817698</ele>
        <time>2022-06-11T11:52:34.026Z</time>
      </trkpt>
      <trkpt lat="42.975" lon="17.79337">
        <ele>377.134843</ele>
        <time>2022-06-11T11:52:41.015Z</time>
      </trkpt>
      <trkpt lat="42.9751" lon="17.79337">
        <ele>377.403566</ele>
        <time>2022-06-11T11:52:46.007Z</time>
      </trkpt>
      <trkpt lat="42.97519" lon="17.79335">
        <ele>377.670484</ele>
        <time>2022-06-11T11:52:50.992Z</time>
      </trkpt>
      <trkpt lat="42.97528" lon="17.79331">
        <ele>377.965071</ele>
        <time>2022-06-11T11:52:57.013Z</time>
      </trkpt>
      <trkpt lat="42.97537" lon="17.79328">
        <ele>378.245044</ele>
        <time>2022-06-11T11:53:03.991Z</time>
      </trkpt>
      <trkpt lat="42.97548" lon="17.79327">
        <ele>378.540532</ele>
        <time>2022-06-11T11:53:09.988Z</time>
      </trkpt>
      <trkpt lat="42.97557" lon="17.79327">
        <ele>378.812048</ele>
        <time>2022-06-11T11:53:15.006Z</time>
      </trkpt>
      <trkpt lat="42.97566" lon="17.79327">
        <ele>379.080711</ele>
        <time>2022-06-11T11:53:21.011Z</time>
      </trkpt>
      <trkpt lat="42.97576" lon="17.79327">
        <ele>379.366887</ele>
        <time>2022-06-11T11:53:27.001Z</time>
      </trkpt>
      <trkpt lat="42.97585" lon="17.79328">
        <ele>379.641985</ele>
        <time>2022-06-11T11:53:33.994Z</time>
      </trkpt>
      <trkpt lat="42.97595" lon="17.79331">
        <ele>379.935177</ele>
        <time>2022-06-11T11:53:43.994Z</time>
      </trkpt>
      <trkpt lat="42.97605" lon="17.79334">
        <ele>380.218455</ele>
        <time>2022-06-11T11:53:53.011Z</time>
      </trkpt>
      <trkpt lat="42.97614" lon="17.79339">
        <ele>380.508675</ele>
        <time>2022-06-11T11:53:59.996Z</time>
      </trkpt>
      <trkpt lat="42.97624" lon="17.79343">
        <ele>380.823721</ele>
        <time>2022-06-11T11:54:05.994Z</time>
      </trkpt>
      <trkpt lat="42.97633" lon="17.79349">
        <ele>381.122156</ele>
        <time>2022-06-11T11:54:10.990Z</time>
      </trkpt>
      <trkpt lat="42.97643" lon="17.79356">
        <ele>381.240253</ele>
        <time>2022-06-11T11:54:14.995Z</time>
      </trkpt>
      <trkpt lat="42.97651" lon="17.79363">
        <ele>381.221789</ele>
        <time>2022-06-11T11:54:17.989Z</time>
      </trkpt>
      <trkpt lat="42.97659" lon="17.79371">
        <ele>381.201593</ele>
        <time>2022-06-11T11:54:21.001Z</time>
      </trkpt>
      <trkpt lat="42.97668" lon="17.7938">
        <ele>381.180904</ele>
        <time>2022-06-11T11:54:23.998Z</time>
      </trkpt>
      <trkpt lat="42.97677" lon="17.79387">
        <ele>381.159629</ele>
        <time>2022-06-11T11:54:27.034Z</time>
      </trkpt>
      <trkpt lat="42.97687" lon="17.79394">
        <ele>381.136893</ele>
        <time>2022-06-11T11:54:29.993Z</time>
      </trkpt>
      <trkpt lat="42.97697" lon="17.79402">
        <ele>381.114068</ele>
        <time>2022-06-11T11:54:33.002Z</time>
      </trkpt>
      <trkpt lat="42.97704" lon="17.79412">
        <ele>381.092934</ele>
        <time>2022-06-11T11:54:35.990Z</time>
      </trkpt>
      <trkpt lat="42.97711" lon="17.79423">
        <ele>381.073186</ele>
        <time>2022-06-11T11:54:38.994Z</time>
      </trkpt>
      <trkpt lat="42.97718" lon="17.79432">
        <ele>381.054082</ele>
        <time>2022-06-11T11:54:41.989Z</time>
      </trkpt>
      <trkpt lat="42.97725" lon="17.7944">
        <ele>381.034562</ele>
        <time>2022-06-11T11:54:45.007Z</time>
      </trkpt>
      <trkpt lat="42.97732" lon="17.79449">
        <ele>381.016086</ele>
        <time>2022-06-11T11:54:47.996Z</time>
      </trkpt>
      <trkpt lat="42.97741" lon="17.79461">
        <ele>380.992341</ele>
        <time>2022-06-11T11:54:51.990Z</time>
      </trkpt>
      <trkpt lat="42.97749" lon="17.79468">
        <ele>380.972073</ele>
        <time>2022-06-11T11:54:55.017Z</time>
      </trkpt>
      <trkpt lat="42.9776" lon="17.79474">
        <ele>380.949536</ele>
        <time>2022-06-11T11:54:58.995Z</time>
      </trkpt>
      <trkpt lat="42.9777" lon="17.79475">
        <ele>380.929185</ele>
        <time>2022-06-11T11:55:03.007Z</time>
      </trkpt>
      <trkpt lat="42.9778" lon="17.79478">
        <ele>380.908964</ele>
        <time>2022-06-11T11:55:06.999Z</time>
      </trkpt>
      <trkpt lat="42.97791" lon="17.7948">
        <ele>381.13251</ele>
        <time>2022-06-11T11:55:11.003Z</time>
      </trkpt>
      <trkpt lat="42.97803" lon="17.79479">
        <ele>381.664498</ele>
        <time>2022-06-11T11:55:14.994Z</time>
      </trkpt>
      <trkpt lat="42.97813" lon="17.79477">
        <ele>382.103788</ele>
        <time>2022-06-11T11:55:17.991Z</time>
      </trkpt>
      <trkpt lat="42.97822" lon="17.79478">
        <ele>382.515473</ele>
        <time>2022-06-11T11:55:20.999Z</time>
      </trkpt>
      <trkpt lat="42.97832" lon="17.7948">
        <ele>382.926693</ele>
        <time>2022-06-11T11:55:24.007Z</time>
      </trkpt>
      <trkpt lat="42.97841" lon="17.79483">
        <ele>383.34936</ele>
        <time>2022-06-11T11:55:26.986Z</time>
      </trkpt>
      <trkpt lat="42.97851" lon="17.79487">
        <ele>383.808699</ele>
        <time>2022-06-11T11:55:31.001Z</time>
      </trkpt>
      <trkpt lat="42.9786" lon="17.7949">
        <ele>384.227825</ele>
        <time>2022-06-11T11:55:35.006Z</time>
      </trkpt>
      <trkpt lat="42.9787" lon="17.79492">
        <ele>384.65689</ele>
        <time>2022-06-11T11:55:38.993Z</time>
      </trkpt>
      <trkpt lat="42.9788" lon="17.79491">
        <ele>385.113637</ele>
        <time>2022-06-11T11:55:42.994Z</time>
      </trkpt>
      <trkpt lat="42.97889" lon="17.79488">
        <ele>385.519105</ele>
        <time>2022-06-11T11:55:46.992Z</time>
      </trkpt>
      <trkpt lat="42.97897" lon="17.79479">
        <ele>385.981171</ele>
        <time>2022-06-11T11:55:51.997Z</time>
      </trkpt>
      <trkpt lat="42.97908" lon="17.79473">
        <ele>386.478971</ele>
        <time>2022-06-11T11:55:57.027Z</time>
      </trkpt>
      <trkpt lat="42.97918" lon="17.79473">
        <ele>386.952806</ele>
        <time>2022-06-11T11:56:01.990Z</time>
      </trkpt>
      <trkpt lat="42.97927" lon="17.79479">
        <ele>387.383521</ele>
        <time>2022-06-11T11:56:05.994Z</time>
      </trkpt>
      <trkpt lat="42.97937" lon="17.79484">
        <ele>387.85758</ele>
        <time>2022-06-11T11:56:11.021Z</time>
      </trkpt>
      <trkpt lat="42.97946" lon="17.79485">
        <ele>388.263842</ele>
        <time>2022-06-11T11:56:16.056Z</time>
      </trkpt>
      <trkpt lat="42.97956" lon="17.79484">
        <ele>388.675404</ele>
        <time>2022-06-11T11:56:22.020Z</time>
      </trkpt>
      <trkpt lat="42.97965" lon="17.79479">
        <ele>389.074981</ele>
        <time>2022-06-11T11:56:27.044Z</time>
      </trkpt>
      <trkpt lat="42.97975" lon="17.79475">
        <ele>389.490283</ele>
        <time>2022-06-11T11:56:33.049Z</time>
      </trkpt>
      <trkpt lat="42.97984" lon="17.79472">
        <ele>389.855287</ele>
        <time>2022-06-11T11:56:38.020Z</time>
      </trkpt>
      <trkpt lat="42.97994" lon="17.79469">
        <ele>390.284458</ele>
        <time>2022-06-11T11:56:44.012Z</time>
      </trkpt>
      <trkpt lat="42.98003" lon="17.79465">
        <ele>390.648824</ele>
        <time>2022-06-11T11:56:49.060Z</time>
      </trkpt>
      <trkpt lat="42.98012" lon="17.7946">
        <ele>391.05122</ele>
        <time>2022-06-11T11:56:55.012Z</time>
      </trkpt>
      <trkpt lat="42.98021" lon="17.79456">
        <ele>391.441958</ele>
        <time>2022-06-11T11:57:00.045Z</time>
      </trkpt>
      <trkpt lat="42.9803" lon="17.79452">
        <ele>391.804558</ele>
        <time>2022-06-11T11:57:05.027Z</time>
      </trkpt>
      <trkpt lat="42.9804" lon="17.79446">
        <ele>392.222894</ele>
        <time>2022-06-11T11:57:11.028Z</time>
      </trkpt>
      <trkpt lat="42.98049" lon="17.79443">
        <ele>392.592351</ele>
        <time>2022-06-11T11:57:16.019Z</time>
      </trkpt>
      <trkpt lat="42.98059" lon="17.79439">
        <ele>393.015765</ele>
        <time>2022-06-11T11:57:22.030Z</time>
      </trkpt>
      <trkpt lat="42.98068" lon="17.79436">
        <ele>393.400583</ele>
        <time>2022-06-11T11:57:28.020Z</time>
      </trkpt>
      <trkpt lat="42.98079" lon="17.79431">
        <ele>393.841357</ele>
        <time>2022-06-11T11:57:34.015Z</time>
      </trkpt>
      <trkpt lat="42.98089" lon="17.79429">
        <ele>394.243739</ele>
        <time>2022-06-11T11:57:40.023Z</time>
      </trkpt>
      <trkpt lat="42.98099" lon="17.79426">
        <ele>394.672458</ele>
        <time>2022-06-11T11:57:46.051Z</time>
      </trkpt>
      <trkpt lat="42.9811" lon="17.79423">
        <ele>395.095899</ele>
        <time>2022-06-11T11:57:52.047Z</time>
      </trkpt>
      <trkpt lat="42.9812" lon="17.79419">
        <ele>395.5123</ele>
        <time>2022-06-11T11:57:59.020Z</time>
      </trkpt>
      <trkpt lat="42.9813" lon="17.79418">
        <ele>395.936874</ele>
        <time>2022-06-11T11:58:05.032Z</time>
      </trkpt>
      <trkpt lat="42.98141" lon="17.7942">
        <ele>396.639368</ele>
        <time>2022-06-11T11:58:11.029Z</time>
      </trkpt>
      <trkpt lat="42.98151" lon="17.79421">
        <ele>397.381479</ele>
        <time>2022-06-11T11:58:17.020Z</time>
      </trkpt>
      <trkpt lat="42.9816" lon="17.79425">
        <ele>398.118146</ele>
        <time>2022-06-11T11:58:23.016Z</time>
      </trkpt>
      <trkpt lat="42.9817" lon="17.7943">
        <ele>398.915567</ele>
        <time>2022-06-11T11:58:29.022Z</time>
      </trkpt>
      <trkpt lat="42.98179" lon="17.79436">
        <ele>399.595247</ele>
        <time>2022-06-11T11:58:35.026Z</time>
      </trkpt>
      <trkpt lat="42.98189" lon="17.79437">
        <ele>400.33069</ele>
        <time>2022-06-11T11:58:43.049Z</time>
      </trkpt>
      <trkpt lat="42.98199" lon="17.79438">
        <ele>401.060577</ele>
        <time>2022-06-11T11:58:51.019Z</time>
      </trkpt>
      <trkpt lat="42.98208" lon="17.79437">
        <ele>401.754186</ele>
        <time>2022-06-11T11:58:58.019Z</time>
      </trkpt>
      <trkpt lat="42.98217" lon="17.79436">
        <ele>402.426681</ele>
        <time>2022-06-11T11:59:05.022Z</time>
      </trkpt>
      <trkpt lat="42.98227" lon="17.79437">
        <ele>403.149742</ele>
        <time>2022-06-11T11:59:13.005Z</time>
      </trkpt>
      <trkpt lat="42.98236" lon="17.79437">
        <ele>403.83531</ele>
        <time>2022-06-11T11:59:20.017Z</time>
      </trkpt>
      <trkpt lat="42.98245" lon="17.79439">
        <ele>404.498451</ele>
        <time>2022-06-11T11:59:28.053Z</time>
      </trkpt>
      <trkpt lat="42.98254" lon="17.79444">
        <ele>405.202923</ele>
        <time>2022-06-11T11:59:36.017Z</time>
      </trkpt>
      <trkpt lat="42.98261" lon="17.79453">
        <ele>405.905734</ele>
        <time>2022-06-11T11:59:45.031Z</time>
      </trkpt>
      <trkpt lat="42.98267" lon="17.79462">
        <ele>406.583853</ele>
        <time>2022-06-11T11:59:53.002Z</time>
      </trkpt>
      <trkpt lat="42.98275" lon="17.7947">
        <ele>407.300008</ele>
        <time>2022-06-11T12:00:02.013Z</time>
      </trkpt>
      <trkpt lat="42.98283" lon="17.79475">
        <ele>407.964033</ele>
        <time>2022-06-11T12:00:10.010Z</time>
      </trkpt>
      <trkpt lat="42.98291" lon="17.79483">
        <ele>408.639843</ele>
        <time>2022-06-11T12:00:18.021Z</time>
      </trkpt>
      <trkpt lat="42.98307" lon="17.795">
        <ele>410.757538</ele>
        <time>2022-06-11T12:03:05.024Z</time>
      </trkpt>
      <trkpt lat="42.98314" lon="17.79508">
        <ele>411.864556</ele>
        <time>2022-06-11T12:03:12.023Z</time>
      </trkpt>
      <trkpt lat="42.9832" lon="17.79517">
        <ele>412.978702</ele>
        <time>2022-06-11T12:03:20.023Z</time>
      </trkpt>
      <trkpt lat="42.98327" lon="17.79524">
        <ele>414.087129</ele>
        <time>2022-06-11T12:03:28.020Z</time>
      </trkpt>
      <trkpt lat="42.9833" lon="17.79537">
        <ele>415.230373</ele>
        <time>2022-06-11T12:03:38.028Z</time>
      </trkpt>
      <trkpt lat="42.98329" lon="17.79549">
        <ele>416.341555</ele>
        <time>2022-06-11T12:03:49.013Z</time>
      </trkpt>
      <trkpt lat="42.9833" lon="17.79561">
        <ele>417.447641</ele>
        <time>2022-06-11T12:04:00.016Z</time>
      </trkpt>
      <trkpt lat="42.98336" lon="17.79571">
        <ele>418.584035</ele>
        <time>2022-06-11T12:04:09.018Z</time>
      </trkpt>
      <trkpt lat="42.98344" lon="17.79579">
        <ele>419.821134</ele>
        <time>2022-06-11T12:04:18.014Z</time>
      </trkpt>
      <trkpt lat="42.98353" lon="17.79584">
        <ele>420.956876</ele>
        <time>2022-06-11T12:04:25.015Z</time>
      </trkpt>
      <trkpt lat="42.98361" lon="17.7959">
        <ele>422.147915</ele>
        <time>2022-06-11T12:04:35.025Z</time>
      </trkpt>
      <trkpt lat="42.98369" lon="17.79598">
        <ele>423.299141</ele>
        <time>2022-06-11T12:04:47.016Z</time>
      </trkpt>
      <trkpt lat="42.98376" lon="17.79607">
        <ele>424.48757</ele>
        <time>2022-06-11T12:04:57.014Z</time>
      </trkpt>
      <trkpt lat="42.98384" lon="17.79613">
        <ele>425.62524</ele>
        <time>2022-06-11T12:05:06.022Z</time>
      </trkpt>
      <trkpt lat="42.98392" lon="17.7962">
        <ele>426.844623</ele>
        <time>2022-06-11T12:05:16.024Z</time>
      </trkpt>
      <trkpt lat="42.98399" lon="17.79629">
        <ele>427.965148</ele>
        <time>2022-06-11T12:05:25.018Z</time>
      </trkpt>
      <trkpt lat="42.98405" lon="17.79638">
        <ele>429.072937</ele>
        <time>2022-06-11T12:05:35.052Z</time>
      </trkpt>
      <trkpt lat="42.9841" lon="17.7965">
        <ele>430.283683</ele>
        <time>2022-06-11T12:05:45.019Z</time>
      </trkpt>
      <trkpt lat="42.9841" lon="17.79663">
        <ele>431.446806</ele>
        <time>2022-06-11T12:05:55.048Z</time>
      </trkpt>
      <trkpt lat="42.9841" lon="17.79676">
        <ele>432.337261</ele>
        <time>2022-06-11T12:06:05.017Z</time>
      </trkpt>
      <trkpt lat="42.98409" lon="17.79689">
        <ele>433.262228</ele>
        <time>2022-06-11T12:06:15.038Z</time>
      </trkpt>
      <trkpt lat="42.98407" lon="17.79701">
        <ele>434.171444</ele>
        <time>2022-06-11T12:06:26.019Z</time>
      </trkpt>
      <trkpt lat="42.98406" lon="17.79715">
        <ele>435.119142</ele>
        <time>2022-06-11T12:06:36.023Z</time>
      </trkpt>
      <trkpt lat="42.98405" lon="17.79728">
        <ele>436.023581</ele>
        <time>2022-06-11T12:06:44.020Z</time>
      </trkpt>
      <trkpt lat="42.98404" lon="17.79741">
        <ele>436.967648</ele>
        <time>2022-06-11T12:06:54.015Z</time>
      </trkpt>
      <trkpt lat="42.984" lon="17.79753">
        <ele>437.880595</ele>
        <time>2022-06-11T12:07:02.015Z</time>
      </trkpt>
      <trkpt lat="42.98395" lon="17.79764">
        <ele>438.811208</ele>
        <time>2022-06-11T12:07:12.021Z</time>
      </trkpt>
      <trkpt lat="42.98392" lon="17.79776">
        <ele>439.705448</ele>
        <time>2022-06-11T12:07:20.026Z</time>
      </trkpt>
      <trkpt lat="42.98385" lon="17.79786">
        <ele>440.622722</ele>
        <time>2022-06-11T12:07:29.044Z</time>
      </trkpt>
      <trkpt lat="42.98381" lon="17.79797">
        <ele>441.48486</ele>
        <time>2022-06-11T12:07:39.028Z</time>
      </trkpt>
      <trkpt lat="42.98375" lon="17.79806">
        <ele>442.372146</ele>
        <time>2022-06-11T12:07:48.018Z</time>
      </trkpt>
      <trkpt lat="42.9837" lon="17.79817">
        <ele>443.289866</ele>
        <time>2022-06-11T12:08:00.025Z</time>
      </trkpt>
      <trkpt lat="42.98364" lon="17.79826">
        <ele>444.162361</ele>
        <time>2022-06-11T12:08:07.010Z</time>
      </trkpt>
      <trkpt lat="42.98358" lon="17.79838">
        <ele>445.123106</ele>
        <time>2022-06-11T12:08:17.015Z</time>
      </trkpt>
      <trkpt lat="42.98352" lon="17.79847">
        <ele>445.99421</ele>
        <time>2022-06-11T12:08:24.048Z</time>
      </trkpt>
      <trkpt lat="42.98348" lon="17.79859">
        <ele>446.944567</ele>
        <time>2022-06-11T12:08:35.048Z</time>
      </trkpt>
      <trkpt lat="42.98344" lon="17.79871">
        <ele>447.852864</ele>
        <time>2022-06-11T12:08:43.022Z</time>
      </trkpt>
      <trkpt lat="42.98339" lon="17.79883">
        <ele>448.722259</ele>
        <time>2022-06-11T12:08:52.059Z</time>
      </trkpt>
      <trkpt lat="42.98336" lon="17.79895">
        <ele>449.343784</ele>
        <time>2022-06-11T12:09:04.020Z</time>
      </trkpt>
      <trkpt lat="42.98334" lon="17.79907">
        <ele>449.929039</ele>
        <time>2022-06-11T12:09:10.020Z</time>
      </trkpt>
      <trkpt lat="42.98331" lon="17.7992">
        <ele>450.546003</ele>
        <time>2022-06-11T12:09:16.040Z</time>
      </trkpt>
      <trkpt lat="42.98328" lon="17.79933">
        <ele>451.202618</ele>
        <time>2022-06-11T12:09:22.020Z</time>
      </trkpt>
      <trkpt lat="42.98325" lon="17.79945">
        <ele>451.790181</ele>
        <time>2022-06-11T12:09:28.025Z</time>
      </trkpt>
      <trkpt lat="42.98322" lon="17.79957">
        <ele>452.422663</ele>
        <time>2022-06-11T12:09:35.022Z</time>
      </trkpt>
      <trkpt lat="42.98319" lon="17.7997">
        <ele>453.043696</ele>
        <time>2022-06-11T12:09:42.009Z</time>
      </trkpt>
      <trkpt lat="42.98317" lon="17.79982">
        <ele>453.654551</ele>
        <time>2022-06-11T12:09:49.021Z</time>
      </trkpt>
      <trkpt lat="42.98313" lon="17.79994">
        <ele>454.276856</ele>
        <time>2022-06-11T12:09:56.034Z</time>
      </trkpt>
      <trkpt lat="42.9831" lon="17.80007">
        <ele>454.896908</ele>
        <time>2022-06-11T12:10:03.022Z</time>
      </trkpt>
      <trkpt lat="42.98308" lon="17.8002">
        <ele>455.525531</ele>
        <time>2022-06-11T12:10:10.010Z</time>
      </trkpt>
      <trkpt lat="42.98304" lon="17.80031">
        <ele>456.131443</ele>
        <time>2022-06-11T12:10:16.017Z</time>
      </trkpt>
      <trkpt lat="42.98302" lon="17.80045">
        <ele>456.804099</ele>
        <time>2022-06-11T12:10:23.015Z</time>
      </trkpt>
      <trkpt lat="42.98299" lon="17.80059">
        <ele>457.467634</ele>
        <time>2022-06-11T12:10:29.024Z</time>
      </trkpt>
      <trkpt lat="42.98296" lon="17.80072">
        <ele>458.127236</ele>
        <time>2022-06-11T12:10:35.030Z</time>
      </trkpt>
      <trkpt lat="42.98293" lon="17.80085">
        <ele>458.777787</ele>
        <time>2022-06-11T12:10:41.028Z</time>
      </trkpt>
      <trkpt lat="42.98291" lon="17.80098">
        <ele>459.398991</ele>
        <time>2022-06-11T12:10:47.019Z</time>
      </trkpt>
      <trkpt lat="42.98289" lon="17.80112">
        <ele>460.0555</ele>
        <time>2022-06-11T12:10:53.026Z</time>
      </trkpt>
      <trkpt lat="42.98286" lon="17.80125">
        <ele>460.228935</ele>
        <time>2022-06-11T12:10:59.057Z</time>
      </trkpt>
      <trkpt lat="42.98282" lon="17.80137">
        <ele>460.231574</ele>
        <time>2022-06-11T12:11:05.047Z</time>
      </trkpt>
      <trkpt lat="42.98278" lon="17.80149">
        <ele>460.233963</ele>
        <time>2022-06-11T12:11:10.019Z</time>
      </trkpt>
      <trkpt lat="42.98275" lon="17.80161">
        <ele>460.236451</ele>
        <time>2022-06-11T12:11:16.052Z</time>
      </trkpt>
      <trkpt lat="42.98273" lon="17.80173">
        <ele>460.238994</ele>
        <time>2022-06-11T12:11:23.017Z</time>
      </trkpt>
      <trkpt lat="42.9827" lon="17.80186">
        <ele>460.241416</ele>
        <time>2022-06-11T12:11:29.013Z</time>
      </trkpt>
      <trkpt lat="42.98268" lon="17.80198">
        <ele>460.243868</ele>
        <time>2022-06-11T12:11:35.030Z</time>
      </trkpt>
      <trkpt lat="42.98266" lon="17.8021">
        <ele>460.246301</ele>
        <time>2022-06-11T12:11:41.029Z</time>
      </trkpt>
      <trkpt lat="42.98263" lon="17.80224">
        <ele>460.249095</ele>
        <time>2022-06-11T12:11:48.998Z</time>
      </trkpt>
      <trkpt lat="42.98261" lon="17.80238">
        <ele>460.251814</ele>
        <time>2022-06-11T12:11:53.999Z</time>
      </trkpt>
      <trkpt lat="42.98261" lon="17.80252">
        <ele>460.254518</ele>
        <time>2022-06-11T12:11:57.998Z</time>
      </trkpt>
      <trkpt lat="42.98262" lon="17.80266">
        <ele>460.257241</ele>
        <time>2022-06-11T12:12:01.017Z</time>
      </trkpt>
      <trkpt lat="42.98262" lon="17.8028">
        <ele>460.260052</ele>
        <time>2022-06-11T12:12:05.006Z</time>
      </trkpt>
      <trkpt lat="42.98263" lon="17.80293">
        <ele>460.262576</ele>
        <time>2022-06-11T12:12:09.032Z</time>
      </trkpt>
      <trkpt lat="42.98266" lon="17.80306">
        <ele>460.265067</ele>
        <time>2022-06-11T12:12:12.997Z</time>
      </trkpt>
      <trkpt lat="42.98268" lon="17.80319">
        <ele>460.267689</ele>
        <time>2022-06-11T12:12:17.007Z</time>
      </trkpt>
      <trkpt lat="42.98267" lon="17.80334">
        <ele>460.270608</ele>
        <time>2022-06-11T12:12:22.009Z</time>
      </trkpt>
      <trkpt lat="42.98267" lon="17.80347">
        <ele>460.273083</ele>
        <time>2022-06-11T12:12:25.992Z</time>
      </trkpt>
      <trkpt lat="42.98265" lon="17.80361">
        <ele>459.864698</ele>
        <time>2022-06-11T12:12:29.995Z</time>
      </trkpt>
      <trkpt lat="42.98266" lon="17.80374">
        <ele>459.191806</ele>
        <time>2022-06-11T12:12:35.013Z</time>
      </trkpt>
      <trkpt lat="42.98267" lon="17.80386">
        <ele>458.50874</ele>
        <time>2022-06-11T12:12:38.992Z</time>
      </trkpt>
      <trkpt lat="42.98268" lon="17.804">
        <ele>457.762743</ele>
        <time>2022-06-11T12:12:42.999Z</time>
      </trkpt>
      <trkpt lat="42.98271" lon="17.80414">
        <ele>456.971123</ele>
        <time>2022-06-11T12:12:47.002Z</time>
      </trkpt>
      <trkpt lat="42.98277" lon="17.80426">
        <ele>456.180911</ele>
        <time>2022-06-11T12:12:51.006Z</time>
      </trkpt>
      <trkpt lat="42.98282" lon="17.80435">
        <ele>455.504895</ele>
        <time>2022-06-11T12:12:52.993Z</time>
      </trkpt>
      <trkpt lat="42.98291" lon="17.80445">
        <ele>454.659995</ele>
        <time>2022-06-11T12:12:54.999Z</time>
      </trkpt>
      <trkpt lat="42.98302" lon="17.80454">
        <ele>453.728264</ele>
        <time>2022-06-11T12:12:56.998Z</time>
      </trkpt>
      <trkpt lat="42.98313" lon="17.80465">
        <ele>452.685412</ele>
        <time>2022-06-11T12:12:59.002Z</time>
      </trkpt>
      <trkpt lat="42.98325" lon="17.80477">
        <ele>451.580831</ele>
        <time>2022-06-11T12:13:01.008Z</time>
      </trkpt>
      <trkpt lat="42.98338" lon="17.8049">
        <ele>450.396937</ele>
        <time>2022-06-11T12:13:02.988Z</time>
      </trkpt>
      <trkpt lat="42.9835" lon="17.80505">
        <ele>449.135583</ele>
        <time>2022-06-11T12:13:04.991Z</time>
      </trkpt>
      <trkpt lat="42.98363" lon="17.80522">
        <ele>447.84223</ele>
        <time>2022-06-11T12:13:07.005Z</time>
      </trkpt>
      <trkpt lat="42.98375" lon="17.80537">
        <ele>446.654159</ele>
        <time>2022-06-11T12:13:09.009Z</time>
      </trkpt>
      <trkpt lat="42.98388" lon="17.8055">
        <ele>445.65793</ele>
        <time>2022-06-11T12:13:11.006Z</time>
      </trkpt>
      <trkpt lat="42.98402" lon="17.80561">
        <ele>444.676851</ele>
        <time>2022-06-11T12:13:12.998Z</time>
      </trkpt>
      <trkpt lat="42.98416" lon="17.80573">
        <ele>443.687616</ele>
        <time>2022-06-11T12:13:15.005Z</time>
      </trkpt>
      <trkpt lat="42.98427" lon="17.80589">
        <ele>442.680145</ele>
        <time>2022-06-11T12:13:17.026Z</time>
      </trkpt>
      <trkpt lat="42.98436" lon="17.80609">
        <ele>441.634574</ele>
        <time>2022-06-11T12:13:18.996Z</time>
      </trkpt>
      <trkpt lat="42.98444" lon="17.80631">
        <ele>440.531358</ele>
        <time>2022-06-11T12:13:21.000Z</time>
      </trkpt>
      <trkpt lat="42.98449" lon="17.80642">
        <ele>439.972421</ele>
        <time>2022-06-11T12:13:21.988Z</time>
      </trkpt>
      <trkpt lat="42.98453" lon="17.80653">
        <ele>439.404486</ele>
        <time>2022-06-11T12:13:22.995Z</time>
      </trkpt>
      <trkpt lat="42.98458" lon="17.80664">
        <ele>438.833454</ele>
        <time>2022-06-11T12:13:23.996Z</time>
      </trkpt>
      <trkpt lat="42.98463" lon="17.80675">
        <ele>438.271569</ele>
        <time>2022-06-11T12:13:24.998Z</time>
      </trkpt>
      <trkpt lat="42.98467" lon="17.80686">
        <ele>437.711596</ele>
        <time>2022-06-11T12:13:26.040Z</time>
      </trkpt>
      <trkpt lat="42.98472" lon="17.80697">
        <ele>437.149711</ele>
        <time>2022-06-11T12:13:27.008Z</time>
      </trkpt>
      <trkpt lat="42.9848" lon="17.80717">
        <ele>436.10223</ele>
        <time>2022-06-11T12:13:29.001Z</time>
      </trkpt>
      <trkpt lat="42.9849" lon="17.80735">
        <ele>435.373635</ele>
        <time>2022-06-11T12:13:31.004Z</time>
      </trkpt>
      <trkpt lat="42.985" lon="17.80754">
        <ele>434.689723</ele>
        <time>2022-06-11T12:13:33.061Z</time>
      </trkpt>
      <trkpt lat="42.9851" lon="17.80773">
        <ele>434.001091</ele>
        <time>2022-06-11T12:13:34.999Z</time>
      </trkpt>
      <trkpt lat="42.98517" lon="17.80792">
        <ele>433.36343</ele>
        <time>2022-06-11T12:13:37.001Z</time>
      </trkpt>
      <trkpt lat="42.98522" lon="17.80813">
        <ele>432.699737</ele>
        <time>2022-06-11T12:13:38.998Z</time>
      </trkpt>
      <trkpt lat="42.98526" lon="17.80836">
        <ele>432.005156</ele>
        <time>2022-06-11T12:13:41.000Z</time>
      </trkpt>
      <trkpt lat="42.98532" lon="17.80858">
        <ele>431.302661</ele>
        <time>2022-06-11T12:13:42.997Z</time>
      </trkpt>
      <trkpt lat="42.98536" lon="17.80869">
        <ele>430.93508</ele>
        <time>2022-06-11T12:13:43.992Z</time>
      </trkpt>
      <trkpt lat="42.98548" lon="17.80887">
        <ele>430.222218</ele>
        <time>2022-06-11T12:13:45.995Z</time>
      </trkpt>
      <trkpt lat="42.98562" lon="17.809">
        <ele>429.555194</ele>
        <time>2022-06-11T12:13:47.995Z</time>
      </trkpt>
      <trkpt lat="42.98573" lon="17.80909">
        <ele>429.007115</ele>
        <time>2022-06-11T12:13:50.009Z</time>
      </trkpt>
      <trkpt lat="42.98585" lon="17.80917">
        <ele>428.600687</ele>
        <time>2022-06-11T12:13:52.000Z</time>
      </trkpt>
      <trkpt lat="42.98597" lon="17.80927">
        <ele>428.678532</ele>
        <time>2022-06-11T12:13:53.984Z</time>
      </trkpt>
      <trkpt lat="42.98609" lon="17.80936">
        <ele>428.756174</ele>
        <time>2022-06-11T12:13:56.016Z</time>
      </trkpt>
      <trkpt lat="42.9862" lon="17.80945">
        <ele>428.830659</ele>
        <time>2022-06-11T12:13:57.991Z</time>
      </trkpt>
      <trkpt lat="42.98631" lon="17.80953">
        <ele>428.900159</ele>
        <time>2022-06-11T12:14:00.004Z</time>
      </trkpt>
      <trkpt lat="42.98641" lon="17.8096">
        <ele>428.964608</ele>
        <time>2022-06-11T12:14:01.998Z</time>
      </trkpt>
      <trkpt lat="42.9865" lon="17.80966">
        <ele>429.022827</ele>
        <time>2022-06-11T12:14:03.994Z</time>
      </trkpt>
      <trkpt lat="42.98662" lon="17.80974">
        <ele>429.094827</ele>
        <time>2022-06-11T12:14:06.994Z</time>
      </trkpt>
      <trkpt lat="42.98667" lon="17.80985">
        <ele>429.147968</ele>
        <time>2022-06-11T12:14:09.986Z</time>
      </trkpt>
      <trkpt lat="42.98664" lon="17.80997">
        <ele>429.200443</ele>
        <time>2022-06-11T12:14:14.988Z</time>
      </trkpt>
      <trkpt lat="42.9866" lon="17.81015">
        <ele>429.277828</ele>
        <time>2022-06-11T12:25:16.032Z</time>
      </trkpt>
      <trkpt lat="42.98657" lon="17.81027">
        <ele>429.329627</ele>
        <time>2022-06-11T12:25:20.029Z</time>
      </trkpt>
      <trkpt lat="42.98654" lon="17.81041">
        <ele>429.391861</ele>
        <time>2022-06-11T12:25:24.011Z</time>
      </trkpt>
      <trkpt lat="42.98649" lon="17.81056">
        <ele>429.459573</ele>
        <time>2022-06-11T12:25:28.014Z</time>
      </trkpt>
      <trkpt lat="42.98646" lon="17.81068">
        <ele>429.513797</ele>
        <time>2022-06-11T12:25:31.024Z</time>
      </trkpt>
      <trkpt lat="42.98642" lon="17.8108">
        <ele>429.567651</ele>
        <time>2022-06-11T12:25:34.010Z</time>
      </trkpt>
      <trkpt lat="42.98638" lon="17.81095">
        <ele>429.558105</ele>
        <time>2022-06-11T12:25:38.006Z</time>
      </trkpt>
      <trkpt lat="42.98635" lon="17.81108">
        <ele>429.47594</ele>
        <time>2022-06-11T12:25:41.009Z</time>
      </trkpt>
      <trkpt lat="42.98632" lon="17.81121">
        <ele>429.387938</ele>
        <time>2022-06-11T12:25:44.009Z</time>
      </trkpt>
      <trkpt lat="42.98629" lon="17.81133">
        <ele>429.308667</ele>
        <time>2022-06-11T12:25:47.024Z</time>
      </trkpt>
      <trkpt lat="42.98624" lon="17.81148">
        <ele>429.208731</ele>
        <time>2022-06-11T12:25:51.025Z</time>
      </trkpt>
      <trkpt lat="42.9862" lon="17.81163">
        <ele>429.110894</ele>
        <time>2022-06-11T12:25:54.019Z</time>
      </trkpt>
      <trkpt lat="42.98615" lon="17.81178">
        <ele>429.004526</ele>
        <time>2022-06-11T12:25:57.064Z</time>
      </trkpt>
      <trkpt lat="42.98611" lon="17.8119">
        <ele>428.927359</ele>
        <time>2022-06-11T12:25:59.056Z</time>
      </trkpt>
      <trkpt lat="42.98607" lon="17.81202">
        <ele>428.842574</ele>
        <time>2022-06-11T12:26:01.030Z</time>
      </trkpt>
      <trkpt lat="42.98601" lon="17.81216">
        <ele>428.746809</ele>
        <time>2022-06-11T12:26:03.015Z</time>
      </trkpt>
      <trkpt lat="42.98596" lon="17.81229">
        <ele>428.649132</ele>
        <time>2022-06-11T12:26:05.095Z</time>
      </trkpt>
      <trkpt lat="42.98588" lon="17.8124">
        <ele>428.558802</ele>
        <time>2022-06-11T12:26:07.038Z</time>
      </trkpt>
      <trkpt lat="42.9858" lon="17.81248">
        <ele>428.473019</ele>
        <time>2022-06-11T12:26:10.029Z</time>
      </trkpt>
      <trkpt lat="42.98575" lon="17.8126">
        <ele>428.389245</ele>
        <time>2022-06-11T12:26:14.030Z</time>
      </trkpt>
      <trkpt lat="42.98577" lon="17.81272">
        <ele>428.309555</ele>
        <time>2022-06-11T12:26:17.021Z</time>
      </trkpt>
      <trkpt lat="42.98583" lon="17.81287">
        <ele>428.204272</ele>
        <time>2022-06-11T12:26:20.021Z</time>
      </trkpt>
      <trkpt lat="42.9859" lon="17.81301">
        <ele>428.097597</ele>
        <time>2022-06-11T12:26:23.018Z</time>
      </trkpt>
      <trkpt lat="42.98597" lon="17.81316">
        <ele>427.99468</ele>
        <time>2022-06-11T12:26:26.023Z</time>
      </trkpt>
      <trkpt lat="42.98605" lon="17.81329">
        <ele>427.892278</ele>
        <time>2022-06-11T12:26:29.027Z</time>
      </trkpt>
      <trkpt lat="42.98613" lon="17.81344">
        <ele>427.782228</ele>
        <time>2022-06-11T12:26:32.064Z</time>
      </trkpt>
      <trkpt lat="42.98618" lon="17.81354">
        <ele>427.707108</ele>
        <time>2022-06-11T12:26:34.025Z</time>
      </trkpt>
      <trkpt lat="42.98624" lon="17.81364">
        <ele>427.631917</ele>
        <time>2022-06-11T12:26:36.015Z</time>
      </trkpt>
      <trkpt lat="42.9863" lon="17.81374">
        <ele>427.556981</ele>
        <time>2022-06-11T12:26:38.023Z</time>
      </trkpt>
      <trkpt lat="42.98636" lon="17.81383">
        <ele>427.482388</ele>
        <time>2022-06-11T12:26:40.032Z</time>
      </trkpt>
      <trkpt lat="42.98643" lon="17.81393">
        <ele>427.404841</ele>
        <time>2022-06-11T12:26:42.028Z</time>
      </trkpt>
      <trkpt lat="42.98649" lon="17.81403">
        <ele>427.32856</ele>
        <time>2022-06-11T12:26:44.042Z</time>
      </trkpt>
      <trkpt lat="42.98655" lon="17.81413">
        <ele>427.249421</ele>
        <time>2022-06-11T12:26:46.013Z</time>
      </trkpt>
      <trkpt lat="42.98661" lon="17.81423">
        <ele>427.169469</ele>
        <time>2022-06-11T12:26:48.027Z</time>
      </trkpt>
      <trkpt lat="42.98667" lon="17.81433">
        <ele>427.095139</ele>
        <time>2022-06-11T12:26:50.033Z</time>
      </trkpt>
      <trkpt lat="42.98673" lon="17.81443">
        <ele>427.020951</ele>
        <time>2022-06-11T12:26:52.026Z</time>
      </trkpt>
      <trkpt lat="42.9868" lon="17.81458">
        <ele>426.911806</ele>
        <time>2022-06-11T12:26:55.024Z</time>
      </trkpt>
      <trkpt lat="42.98686" lon="17.81468">
        <ele>426.838111</ele>
        <time>2022-06-11T12:26:57.035Z</time>
      </trkpt>
      <trkpt lat="42.98694" lon="17.81483">
        <ele>426.729494</ele>
        <time>2022-06-11T12:27:00.045Z</time>
      </trkpt>
      <trkpt lat="42.98701" lon="17.81499">
        <ele>426.620916</ele>
        <time>2022-06-11T12:27:03.003Z</time>
      </trkpt>
      <trkpt lat="42.98705" lon="17.81509">
        <ele>426.630404</ele>
        <time>2022-06-11T12:27:05.026Z</time>
      </trkpt>
      <trkpt lat="42.9871" lon="17.81521">
        <ele>426.640714</ele>
        <time>2022-06-11T12:27:07.031Z</time>
      </trkpt>
      <trkpt lat="42.98714" lon="17.81532">
        <ele>426.650772</ele>
        <time>2022-06-11T12:27:09.021Z</time>
      </trkpt>
      <trkpt lat="42.98718" lon="17.81544">
        <ele>426.660909</ele>
        <time>2022-06-11T12:27:11.053Z</time>
      </trkpt>
      <trkpt lat="42.98721" lon="17.81555">
        <ele>426.670772</ele>
        <time>2022-06-11T12:27:13.022Z</time>
      </trkpt>
      <trkpt lat="42.98725" lon="17.81567">
        <ele>426.681053</ele>
        <time>2022-06-11T12:27:15.020Z</time>
      </trkpt>
      <trkpt lat="42.98728" lon="17.8158">
        <ele>426.691512</ele>
        <time>2022-06-11T12:27:17.065Z</time>
      </trkpt>
      <trkpt lat="42.98731" lon="17.81592">
        <ele>426.701964</ele>
        <time>2022-06-11T12:27:19.022Z</time>
      </trkpt>
      <trkpt lat="42.98734" lon="17.81605">
        <ele>426.712102</ele>
        <time>2022-06-11T12:27:21.032Z</time>
      </trkpt>
      <trkpt lat="42.98736" lon="17.81617">
        <ele>426.722194</ele>
        <time>2022-06-11T12:27:23.061Z</time>
      </trkpt>
      <trkpt lat="42.98739" lon="17.81629">
        <ele>426.732028</ele>
        <time>2022-06-11T12:27:25.023Z</time>
      </trkpt>
      <trkpt lat="42.98741" lon="17.81641">
        <ele>426.742415</ele>
        <time>2022-06-11T12:27:27.010Z</time>
      </trkpt>
      <trkpt lat="42.98744" lon="17.81654">
        <ele>426.752629</ele>
        <time>2022-06-11T12:27:29.074Z</time>
      </trkpt>
      <trkpt lat="42.98746" lon="17.81666">
        <ele>426.76289</ele>
        <time>2022-06-11T12:27:31.019Z</time>
      </trkpt>
      <trkpt lat="42.98749" lon="17.8168">
        <ele>426.77366</ele>
        <time>2022-06-11T12:27:33.026Z</time>
      </trkpt>
      <trkpt lat="42.98751" lon="17.81692">
        <ele>426.784047</ele>
        <time>2022-06-11T12:27:35.025Z</time>
      </trkpt>
      <trkpt lat="42.98754" lon="17.81704">
        <ele>426.794002</ele>
        <time>2022-06-11T12:27:37.028Z</time>
      </trkpt>
      <trkpt lat="42.98756" lon="17.81716">
        <ele>426.803944</ele>
        <time>2022-06-11T12:27:39.013Z</time>
      </trkpt>
      <trkpt lat="42.98759" lon="17.81728">
        <ele>426.813583</ele>
        <time>2022-06-11T12:27:41.011Z</time>
      </trkpt>
      <trkpt lat="42.98761" lon="17.8174">
        <ele>426.941915</ele>
        <time>2022-06-11T12:27:43.005Z</time>
      </trkpt>
      <trkpt lat="42.98764" lon="17.81757">
        <ele>427.152986</ele>
        <time>2022-06-11T12:27:46.013Z</time>
      </trkpt>
      <trkpt lat="42.98768" lon="17.81774">
        <ele>427.363626</ele>
        <time>2022-06-11T12:27:49.010Z</time>
      </trkpt>
      <trkpt lat="42.98771" lon="17.81791">
        <ele>427.57618</ele>
        <time>2022-06-11T12:27:52.019Z</time>
      </trkpt>
      <trkpt lat="42.98775" lon="17.81808">
        <ele>427.789304</ele>
        <time>2022-06-11T12:27:55.004Z</time>
      </trkpt>
      <trkpt lat="42.98778" lon="17.81826">
        <ele>428.008099</ele>
        <time>2022-06-11T12:27:58.008Z</time>
      </trkpt>
      <trkpt lat="42.98782" lon="17.81843">
        <ele>428.222649</ele>
        <time>2022-06-11T12:28:01.036Z</time>
      </trkpt>
      <trkpt lat="42.98784" lon="17.81855">
        <ele>428.370457</ele>
        <time>2022-06-11T12:28:03.025Z</time>
      </trkpt>
      <trkpt lat="42.98787" lon="17.81871">
        <ele>428.579104</ele>
        <time>2022-06-11T12:28:06.013Z</time>
      </trkpt>
      <trkpt lat="42.98791" lon="17.81887">
        <ele>428.782194</ele>
        <time>2022-06-11T12:28:09.019Z</time>
      </trkpt>
      <trkpt lat="42.98794" lon="17.81904">
        <ele>428.986592</ele>
        <time>2022-06-11T12:28:12.018Z</time>
      </trkpt>
      <trkpt lat="42.98797" lon="17.81921">
        <ele>429.194071</ele>
        <time>2022-06-11T12:28:15.019Z</time>
      </trkpt>
      <trkpt lat="42.98801" lon="17.81937">
        <ele>429.399341</ele>
        <time>2022-06-11T12:28:18.014Z</time>
      </trkpt>
      <trkpt lat="42.98804" lon="17.81953">
        <ele>429.606013</ele>
        <time>2022-06-11T12:28:21.023Z</time>
      </trkpt>
      <trkpt lat="42.98808" lon="17.81971">
        <ele>429.818332</ele>
        <time>2022-06-11T12:28:24.028Z</time>
      </trkpt>
      <trkpt lat="42.98812" lon="17.81987">
        <ele>429.997789</ele>
        <time>2022-06-11T12:28:27.019Z</time>
      </trkpt>
      <trkpt lat="42.98815" lon="17.82004">
        <ele>430.176718</ele>
        <time>2022-06-11T12:28:30.019Z</time>
      </trkpt>
      <trkpt lat="42.98819" lon="17.8202">
        <ele>430.349881</ele>
        <time>2022-06-11T12:28:33.017Z</time>
      </trkpt>
      <trkpt lat="42.98823" lon="17.82035">
        <ele>430.522494</ele>
        <time>2022-06-11T12:28:36.028Z</time>
      </trkpt>
      <trkpt lat="42.98826" lon="17.82051">
        <ele>430.696405</ele>
        <time>2022-06-11T12:28:39.014Z</time>
      </trkpt>
      <trkpt lat="42.98829" lon="17.82067">
        <ele>430.870548</ele>
        <time>2022-06-11T12:28:42.020Z</time>
      </trkpt>
      <trkpt lat="42.98833" lon="17.82084">
        <ele>431.048866</ele>
        <time>2022-06-11T12:28:45.023Z</time>
      </trkpt>
      <trkpt lat="42.98836" lon="17.821">
        <ele>431.22842</ele>
        <time>2022-06-11T12:28:48.021Z</time>
      </trkpt>
      <trkpt lat="42.98839" lon="17.82115">
        <ele>431.390734</ele>
        <time>2022-06-11T12:28:51.020Z</time>
      </trkpt>
      <trkpt lat="42.98842" lon="17.82132">
        <ele>431.5682</ele>
        <time>2022-06-11T12:28:54.034Z</time>
      </trkpt>
      <trkpt lat="42.98845" lon="17.82148">
        <ele>431.739243</ele>
        <time>2022-06-11T12:28:57.025Z</time>
      </trkpt>
      <trkpt lat="42.98848" lon="17.82163">
        <ele>431.908563</ele>
        <time>2022-06-11T12:29:00.021Z</time>
      </trkpt>
      <trkpt lat="42.98852" lon="17.82179">
        <ele>432.084066</ele>
        <time>2022-06-11T12:29:03.029Z</time>
      </trkpt>
      <trkpt lat="42.98856" lon="17.82194">
        <ele>432.25083</ele>
        <time>2022-06-11T12:29:06.025Z</time>
      </trkpt>
      <trkpt lat="42.98859" lon="17.82209">
        <ele>432.316052</ele>
        <time>2022-06-11T12:29:09.019Z</time>
      </trkpt>
      <trkpt lat="42.98862" lon="17.82226">
        <ele>432.247187</ele>
        <time>2022-06-11T12:29:12.020Z</time>
      </trkpt>
      <trkpt lat="42.98865" lon="17.8224">
        <ele>432.184905</ele>
        <time>2022-06-11T12:29:15.017Z</time>
      </trkpt>
      <trkpt lat="42.98868" lon="17.82255">
        <ele>432.123237</ele>
        <time>2022-06-11T12:29:18.024Z</time>
      </trkpt>
      <trkpt lat="42.98872" lon="17.82271">
        <ele>432.057305</ele>
        <time>2022-06-11T12:29:21.014Z</time>
      </trkpt>
      <trkpt lat="42.98875" lon="17.82286">
        <ele>431.991047</ele>
        <time>2022-06-11T12:29:24.034Z</time>
      </trkpt>
      <trkpt lat="42.98878" lon="17.82302">
        <ele>431.924791</ele>
        <time>2022-06-11T12:29:27.012Z</time>
      </trkpt>
      <trkpt lat="42.9888" lon="17.82319">
        <ele>431.856736</ele>
        <time>2022-06-11T12:29:30.037Z</time>
      </trkpt>
      <trkpt lat="42.98883" lon="17.82334">
        <ele>431.790619</ele>
        <time>2022-06-11T12:29:33.024Z</time>
      </trkpt>
      <trkpt lat="42.98887" lon="17.8235">
        <ele>431.726118</ele>
        <time>2022-06-11T12:29:36.027Z</time>
      </trkpt>
      <trkpt lat="42.98891" lon="17.82365">
        <ele>431.661821</ele>
        <time>2022-06-11T12:29:39.024Z</time>
      </trkpt>
      <trkpt lat="42.98894" lon="17.82379">
        <ele>431.598264</ele>
        <time>2022-06-11T12:29:42.009Z</time>
      </trkpt>
      <trkpt lat="42.98898" lon="17.82394">
        <ele>431.536626</ele>
        <time>2022-06-11T12:29:45.041Z</time>
      </trkpt>
      <trkpt lat="42.98902" lon="17.82409">
        <ele>431.473837</ele>
        <time>2022-06-11T12:29:48.028Z</time>
      </trkpt>
      <trkpt lat="42.98909" lon="17.82421">
        <ele>431.408622</ele>
        <time>2022-06-11T12:29:51.021Z</time>
      </trkpt>
      <trkpt lat="42.98921" lon="17.82424">
        <ele>431.32892</ele>
        <time>2022-06-11T12:29:54.024Z</time>
      </trkpt>
      <trkpt lat="42.9893" lon="17.82421">
        <ele>431.094365</ele>
        <time>2022-06-11T12:29:56.020Z</time>
      </trkpt>
      <trkpt lat="42.98941" lon="17.82414">
        <ele>430.793384</ele>
        <time>2022-06-11T12:29:59.075Z</time>
      </trkpt>
      <trkpt lat="42.9895" lon="17.82407">
        <ele>430.520759</ele>
        <time>2022-06-11T12:30:02.049Z</time>
      </trkpt>
      <trkpt lat="42.98959" lon="17.82402">
        <ele>430.292695</ele>
        <time>2022-06-11T12:30:05.049Z</time>
      </trkpt>
      <trkpt lat="42.98968" lon="17.82396">
        <ele>430.02516</ele>
        <time>2022-06-11T12:30:08.072Z</time>
      </trkpt>
      <trkpt lat="42.98978" lon="17.82389">
        <ele>429.741962</ele>
        <time>2022-06-11T12:30:11.065Z</time>
      </trkpt>
      <trkpt lat="42.98988" lon="17.8238">
        <ele>429.444956</ele>
        <time>2022-06-11T12:30:14.028Z</time>
      </trkpt>
      <trkpt lat="42.98998" lon="17.82369">
        <ele>429.121797</ele>
        <time>2022-06-11T12:30:17.048Z</time>
      </trkpt>
      <trkpt lat="42.99004" lon="17.82359">
        <ele>428.892848</ele>
        <time>2022-06-11T12:30:19.043Z</time>
      </trkpt>
      <trkpt lat="42.9901" lon="17.82349">
        <ele>428.65319</ele>
        <time>2022-06-11T12:30:21.052Z</time>
      </trkpt>
      <trkpt lat="42.99015" lon="17.82336">
        <ele>428.386432</ele>
        <time>2022-06-11T12:30:23.029Z</time>
      </trkpt>
      <trkpt lat="42.9902" lon="17.82323">
        <ele>428.114517</ele>
        <time>2022-06-11T12:30:25.021Z</time>
      </trkpt>
      <trkpt lat="42.99023" lon="17.82308">
        <ele>427.835875</ele>
        <time>2022-06-11T12:30:27.037Z</time>
      </trkpt>
      <trkpt lat="42.99026" lon="17.82293">
        <ele>427.54489</ele>
        <time>2022-06-11T12:30:29.030Z</time>
      </trkpt>
      <trkpt lat="42.99029" lon="17.82277">
        <ele>427.241963</ele>
        <time>2022-06-11T12:30:31.012Z</time>
      </trkpt>
      <trkpt lat="42.99033" lon="17.82261">
        <ele>426.941535</ele>
        <time>2022-06-11T12:30:33.052Z</time>
      </trkpt>
      <trkpt lat="42.99037" lon="17.82245">
        <ele>426.548841</ele>
        <time>2022-06-11T12:30:35.014Z</time>
      </trkpt>
      <trkpt lat="42.99042" lon="17.8223">
        <ele>426.13019</ele>
        <time>2022-06-11T12:30:37.022Z</time>
      </trkpt>
      <trkpt lat="42.99046" lon="17.82214">
        <ele>425.719273</ele>
        <time>2022-06-11T12:30:39.047Z</time>
      </trkpt>
      <trkpt lat="42.99053" lon="17.822">
        <ele>425.296267</ele>
        <time>2022-06-11T12:30:41.023Z</time>
      </trkpt>
      <trkpt lat="42.9906" lon="17.82185">
        <ele>424.847938</ele>
        <time>2022-06-11T12:30:43.013Z</time>
      </trkpt>
      <trkpt lat="42.99068" lon="17.8217">
        <ele>424.389705</ele>
        <time>2022-06-11T12:30:45.024Z</time>
      </trkpt>
      <trkpt lat="42.99076" lon="17.82153">
        <ele>423.898857</ele>
        <time>2022-06-11T12:30:47.030Z</time>
      </trkpt>
      <trkpt lat="42.99084" lon="17.82136">
        <ele>423.394598</ele>
        <time>2022-06-11T12:30:49.022Z</time>
      </trkpt>
      <trkpt lat="42.9909" lon="17.82118">
        <ele>422.892353</ele>
        <time>2022-06-11T12:30:51.024Z</time>
      </trkpt>
      <trkpt lat="42.99097" lon="17.821">
        <ele>422.387898</ele>
        <time>2022-06-11T12:30:53.013Z</time>
      </trkpt>
      <trkpt lat="42.99105" lon="17.82083">
        <ele>421.878552</ele>
        <time>2022-06-11T12:30:55.014Z</time>
      </trkpt>
      <trkpt lat="42.99114" lon="17.82066">
        <ele>421.36606</ele>
        <time>2022-06-11T12:30:57.024Z</time>
      </trkpt>
      <trkpt lat="42.99124" lon="17.82051">
        <ele>420.850591</ele>
        <time>2022-06-11T12:30:59.019Z</time>
      </trkpt>
      <trkpt lat="42.99135" lon="17.82036">
        <ele>420.579007</ele>
        <time>2022-06-11T12:31:01.010Z</time>
      </trkpt>
      <trkpt lat="42.99145" lon="17.82022">
        <ele>420.402077</ele>
        <time>2022-06-11T12:31:03.019Z</time>
      </trkpt>
      <trkpt lat="42.99154" lon="17.82008">
        <ele>420.232896</ele>
        <time>2022-06-11T12:31:05.023Z</time>
      </trkpt>
      <trkpt lat="42.99161" lon="17.81992">
        <ele>420.064222</ele>
        <time>2022-06-11T12:31:07.053Z</time>
      </trkpt>
      <trkpt lat="42.99169" lon="17.81975">
        <ele>419.893792</ele>
        <time>2022-06-11T12:31:09.024Z</time>
      </trkpt>
      <trkpt lat="42.99175" lon="17.81959">
        <ele>419.729154</ele>
        <time>2022-06-11T12:31:11.019Z</time>
      </trkpt>
      <trkpt lat="42.99181" lon="17.81943">
        <ele>419.575651</ele>
        <time>2022-06-11T12:31:13.014Z</time>
      </trkpt>
      <trkpt lat="42.99185" lon="17.8193">
        <ele>419.443961</ele>
        <time>2022-06-11T12:31:15.025Z</time>
      </trkpt>
      <trkpt lat="42.99189" lon="17.81919">
        <ele>419.330769</ele>
        <time>2022-06-11T12:31:17.033Z</time>
      </trkpt>
      <trkpt lat="42.99194" lon="17.81903">
        <ele>419.180203</ele>
        <time>2022-06-11T12:31:20.010Z</time>
      </trkpt>
      <trkpt lat="42.992" lon="17.81887">
        <ele>419.023194</ele>
        <time>2022-06-11T12:31:23.031Z</time>
      </trkpt>
      <trkpt lat="42.99204" lon="17.81876">
        <ele>418.912066</ele>
        <time>2022-06-11T12:31:25.006Z</time>
      </trkpt>
      <trkpt lat="42.99208" lon="17.81864">
        <ele>418.794051</ele>
        <time>2022-06-11T12:31:27.028Z</time>
      </trkpt>
      <trkpt lat="42.99213" lon="17.8185">
        <ele>418.655171</ele>
        <time>2022-06-11T12:31:29.025Z</time>
      </trkpt>
      <trkpt lat="42.99218" lon="17.81837">
        <ele>418.496743</ele>
        <time>2022-06-11T12:31:31.019Z</time>
      </trkpt>
      <trkpt lat="42.99222" lon="17.81824">
        <ele>418.070999</ele>
        <time>2022-06-11T12:31:33.027Z</time>
      </trkpt>
      <trkpt lat="42.99226" lon="17.81812">
        <ele>417.666992</ele>
        <time>2022-06-11T12:31:35.057Z</time>
      </trkpt>
      <trkpt lat="42.99231" lon="17.81796">
        <ele>417.147313</ele>
        <time>2022-06-11T12:31:38.026Z</time>
      </trkpt>
      <trkpt lat="42.99234" lon="17.81779">
        <ele>416.613285</ele>
        <time>2022-06-11T12:31:41.066Z</time>
      </trkpt>
      <trkpt lat="42.99237" lon="17.81766">
        <ele>416.223526</ele>
        <time>2022-06-11T12:31:43.025Z</time>
      </trkpt>
      <trkpt lat="42.99239" lon="17.81753">
        <ele>415.792296</ele>
        <time>2022-06-11T12:31:45.020Z</time>
      </trkpt>
      <trkpt lat="42.99243" lon="17.81737">
        <ele>415.298429</ele>
        <time>2022-06-11T12:31:47.025Z</time>
      </trkpt>
      <trkpt lat="42.99248" lon="17.8172">
        <ele>414.73982</ele>
        <time>2022-06-11T12:31:49.020Z</time>
      </trkpt>
      <trkpt lat="42.99253" lon="17.81704">
        <ele>414.205264</ele>
        <time>2022-06-11T12:31:51.003Z</time>
      </trkpt>
      <trkpt lat="42.99258" lon="17.81688">
        <ele>413.677328</ele>
        <time>2022-06-11T12:31:53.017Z</time>
      </trkpt>
      <trkpt lat="42.99262" lon="17.81671">
        <ele>413.109337</ele>
        <time>2022-06-11T12:31:55.021Z</time>
      </trkpt>
      <trkpt lat="42.99267" lon="17.81653">
        <ele>412.533993</ele>
        <time>2022-06-11T12:31:57.028Z</time>
      </trkpt>
      <trkpt lat="42.99271" lon="17.81635">
        <ele>411.968319</ele>
        <time>2022-06-11T12:31:59.025Z</time>
      </trkpt>
      <trkpt lat="42.99274" lon="17.81616">
        <ele>411.380218</ele>
        <time>2022-06-11T12:32:01.020Z</time>
      </trkpt>
      <trkpt lat="42.99278" lon="17.81597">
        <ele>410.528295</ele>
        <time>2022-06-11T12:32:03.027Z</time>
      </trkpt>
      <trkpt lat="42.99282" lon="17.81578">
        <ele>409.417047</ele>
        <time>2022-06-11T12:32:05.012Z</time>
      </trkpt>
      <trkpt lat="42.99287" lon="17.81559">
        <ele>408.345597</ele>
        <time>2022-06-11T12:32:07.015Z</time>
      </trkpt>
      <trkpt lat="42.9929" lon="17.81542">
        <ele>407.341182</ele>
        <time>2022-06-11T12:32:09.026Z</time>
      </trkpt>
      <trkpt lat="42.99294" lon="17.81525">
        <ele>406.345397</ele>
        <time>2022-06-11T12:32:11.007Z</time>
      </trkpt>
      <trkpt lat="42.99299" lon="17.81506">
        <ele>405.219658</ele>
        <time>2022-06-11T12:32:13.025Z</time>
      </trkpt>
      <trkpt lat="42.99305" lon="17.81488">
        <ele>404.087453</ele>
        <time>2022-06-11T12:32:15.053Z</time>
      </trkpt>
      <trkpt lat="42.99311" lon="17.8147">
        <ele>403.010705</ele>
        <time>2022-06-11T12:32:17.039Z</time>
      </trkpt>
      <trkpt lat="42.99316" lon="17.81454">
        <ele>401.989656</ele>
        <time>2022-06-11T12:32:19.015Z</time>
      </trkpt>
      <trkpt lat="42.99323" lon="17.81436">
        <ele>400.864238</ele>
        <time>2022-06-11T12:32:21.047Z</time>
      </trkpt>
      <trkpt lat="42.9933" lon="17.81416">
        <ele>399.609829</ele>
        <time>2022-06-11T12:32:23.014Z</time>
      </trkpt>
      <trkpt lat="42.99336" lon="17.81394">
        <ele>398.311115</ele>
        <time>2022-06-11T12:32:25.027Z</time>
      </trkpt>
      <trkpt lat="42.99343" lon="17.81372">
        <ele>396.987427</ele>
        <time>2022-06-11T12:32:27.050Z</time>
      </trkpt>
      <trkpt lat="42.99346" lon="17.8136">
        <ele>396.405945</ele>
        <time>2022-06-11T12:32:28.022Z</time>
      </trkpt>
      <trkpt lat="42.9935" lon="17.81349">
        <ele>395.810781</ele>
        <time>2022-06-11T12:32:29.026Z</time>
      </trkpt>
      <trkpt lat="42.99353" lon="17.81337">
        <ele>395.224924</ele>
        <time>2022-06-11T12:32:30.022Z</time>
      </trkpt>
      <trkpt lat="42.99357" lon="17.81326">
        <ele>394.638444</ele>
        <time>2022-06-11T12:32:31.026Z</time>
      </trkpt>
      <trkpt lat="42.99363" lon="17.81304">
        <ele>393.520183</ele>
        <time>2022-06-11T12:32:33.062Z</time>
      </trkpt>
      <trkpt lat="42.99369" lon="17.81284">
        <ele>392.513113</ele>
        <time>2022-06-11T12:32:35.027Z</time>
      </trkpt>
      <trkpt lat="42.99374" lon="17.81265">
        <ele>391.532717</ele>
        <time>2022-06-11T12:32:37.013Z</time>
      </trkpt>
      <trkpt lat="42.99382" lon="17.81245">
        <ele>390.499313</ele>
        <time>2022-06-11T12:32:39.042Z</time>
      </trkpt>
      <trkpt lat="42.9939" lon="17.81226">
        <ele>389.445101</ele>
        <time>2022-06-11T12:32:41.022Z</time>
      </trkpt>
      <trkpt lat="42.99398" lon="17.8121">
        <ele>388.529055</ele>
        <time>2022-06-11T12:32:43.038Z</time>
      </trkpt>
      <trkpt lat="42.99406" lon="17.81195">
        <ele>387.656034</ele>
        <time>2022-06-11T12:32:45.058Z</time>
      </trkpt>
      <trkpt lat="42.99416" lon="17.81181">
        <ele>386.711315</ele>
        <time>2022-06-11T12:32:47.026Z</time>
      </trkpt>
      <trkpt lat="42.99426" lon="17.81167">
        <ele>385.830972</ele>
        <time>2022-06-11T12:32:49.032Z</time>
      </trkpt>
      <trkpt lat="42.99432" lon="17.81158">
        <ele>385.293235</ele>
        <time>2022-06-11T12:32:51.052Z</time>
      </trkpt>
      <trkpt lat="42.9944" lon="17.81148">
        <ele>384.682752</ele>
        <time>2022-06-11T12:32:54.023Z</time>
      </trkpt>
      <trkpt lat="42.9945" lon="17.81135">
        <ele>383.934573</ele>
        <time>2022-06-11T12:32:57.018Z</time>
      </trkpt>
      <trkpt lat="42.99458" lon="17.81125">
        <ele>383.301188</ele>
        <time>2022-06-11T12:32:59.019Z</time>
      </trkpt>
      <trkpt lat="42.99466" lon="17.81114">
        <ele>382.690706</ele>
        <time>2022-06-11T12:33:01.039Z</time>
      </trkpt>
      <trkpt lat="42.99473" lon="17.81102">
        <ele>382.065479</ele>
        <time>2022-06-11T12:33:03.038Z</time>
      </trkpt>
      <trkpt lat="42.99479" lon="17.8109">
        <ele>381.457026</ele>
        <time>2022-06-11T12:33:05.020Z</time>
      </trkpt>
      <trkpt lat="42.99487" lon="17.8108">
        <ele>380.891224</ele>
        <time>2022-06-11T12:33:07.029Z</time>
      </trkpt>
      <trkpt lat="42.99496" lon="17.8107">
        <ele>380.268076</ele>
        <time>2022-06-11T12:33:09.016Z</time>
      </trkpt>
      <trkpt lat="42.99506" lon="17.81064">
        <ele>379.615481</ele>
        <time>2022-06-11T12:33:11.035Z</time>
      </trkpt>
      <trkpt lat="42.99518" lon="17.81063">
        <ele>378.980072</ele>
        <time>2022-06-11T12:33:13.026Z</time>
      </trkpt>
      <trkpt lat="42.99527" lon="17.81061">
        <ele>378.45469</ele>
        <time>2022-06-11T12:33:15.022Z</time>
      </trkpt>
      <trkpt lat="42.99535" lon="17.81056">
        <ele>377.955534</ele>
        <time>2022-06-11T12:33:17.023Z</time>
      </trkpt>
      <trkpt lat="42.99544" lon="17.81048">
        <ele>377.392619</ele>
        <time>2022-06-11T12:33:19.080Z</time>
      </trkpt>
      <trkpt lat="42.99551" lon="17.81037">
        <ele>376.787168</ele>
        <time>2022-06-11T12:33:21.034Z</time>
      </trkpt>
      <trkpt lat="42.99558" lon="17.81025">
        <ele>376.152507</ele>
        <time>2022-06-11T12:33:23.028Z</time>
      </trkpt>
      <trkpt lat="42.99563" lon="17.81013">
        <ele>375.646238</ele>
        <time>2022-06-11T12:33:25.026Z</time>
      </trkpt>
      <trkpt lat="42.99569" lon="17.81001">
        <ele>375.629115</ele>
        <time>2022-06-11T12:33:27.027Z</time>
      </trkpt>
      <trkpt lat="42.99576" lon="17.80987">
        <ele>375.608686</ele>
        <time>2022-06-11T12:33:29.053Z</time>
      </trkpt>
      <trkpt lat="42.99582" lon="17.80973">
        <ele>375.589152</ele>
        <time>2022-06-11T12:33:31.024Z</time>
      </trkpt>
      <trkpt lat="42.99588" lon="17.80961">
        <ele>375.570885</ele>
        <time>2022-06-11T12:33:33.028Z</time>
      </trkpt>
      <trkpt lat="42.99595" lon="17.80949">
        <ele>375.553211</ele>
        <time>2022-06-11T12:33:35.013Z</time>
      </trkpt>
      <trkpt lat="42.99602" lon="17.80937">
        <ele>375.534168</ele>
        <time>2022-06-11T12:33:37.043Z</time>
      </trkpt>
      <trkpt lat="42.99609" lon="17.80926">
        <ele>375.516809</ele>
        <time>2022-06-11T12:33:39.020Z</time>
      </trkpt>
      <trkpt lat="42.99618" lon="17.80914">
        <ele>375.49672</ele>
        <time>2022-06-11T12:33:42.016Z</time>
      </trkpt>
      <trkpt lat="42.99625" lon="17.80902">
        <ele>375.477916</ele>
        <time>2022-06-11T12:33:46.028Z</time>
      </trkpt>
      <trkpt lat="42.99632" lon="17.80893">
        <ele>375.46203</ele>
        <time>2022-06-11T12:33:50.017Z</time>
      </trkpt>
      <trkpt lat="42.99642" lon="17.80885">
        <ele>375.44346</ele>
        <time>2022-06-11T12:33:55.037Z</time>
      </trkpt>
      <trkpt lat="42.99653" lon="17.80883">
        <ele>375.425372</ele>
        <time>2022-06-11T12:33:59.022Z</time>
      </trkpt>
      <trkpt lat="42.99665" lon="17.80885">
        <ele>375.405554</ele>
        <time>2022-06-11T12:34:03.022Z</time>
      </trkpt>
      <trkpt lat="42.99674" lon="17.80886">
        <ele>375.390015</ele>
        <time>2022-06-11T12:34:06.032Z</time>
      </trkpt>
      <trkpt lat="42.99686" lon="17.80889">
        <ele>375.370844</ele>
        <time>2022-06-11T12:34:10.023Z</time>
      </trkpt>
      <trkpt lat="42.99695" lon="17.80891">
        <ele>375.355901</ele>
        <time>2022-06-11T12:34:13.012Z</time>
      </trkpt>
      <trkpt lat="42.99706" lon="17.80893">
        <ele>375.36039</ele>
        <time>2022-06-11T12:34:16.027Z</time>
      </trkpt>
      <trkpt lat="42.99718" lon="17.80894">
        <ele>375.373588</ele>
        <time>2022-06-11T12:34:19.006Z</time>
      </trkpt>
      <trkpt lat="42.99731" lon="17.80893">
        <ele>375.387339</ele>
        <time>2022-06-11T12:34:22.027Z</time>
      </trkpt>
      <trkpt lat="42.99741" lon="17.8089">
        <ele>375.397488</ele>
        <time>2022-06-11T12:34:24.022Z</time>
      </trkpt>
      <trkpt lat="42.99749" lon="17.80884">
        <ele>375.40791</ele>
        <time>2022-06-11T12:34:26.024Z</time>
      </trkpt>
      <trkpt lat="42.99758" lon="17.80874">
        <ele>375.419952</ele>
        <time>2022-06-11T12:34:28.010Z</time>
      </trkpt>
      <trkpt lat="42.99768" lon="17.80863">
        <ele>375.432972</ele>
        <time>2022-06-11T12:34:30.035Z</time>
      </trkpt>
      <trkpt lat="42.99777" lon="17.80851">
        <ele>375.446902</ele>
        <time>2022-06-11T12:34:32.011Z</time>
      </trkpt>
      <trkpt lat="42.99788" lon="17.80839">
        <ele>375.460948</ele>
        <time>2022-06-11T12:34:34.009Z</time>
      </trkpt>
      <trkpt lat="42.99797" lon="17.80828">
        <ele>375.474063</ele>
        <time>2022-06-11T12:34:36.028Z</time>
      </trkpt>
      <trkpt lat="42.99805" lon="17.80818">
        <ele>375.485734</ele>
        <time>2022-06-11T12:34:38.018Z</time>
      </trkpt>
      <trkpt lat="42.99814" lon="17.80808">
        <ele>375.497283</ele>
        <time>2022-06-11T12:34:40.043Z</time>
      </trkpt>
      <trkpt lat="42.99822" lon="17.80802">
        <ele>375.507412</ele>
        <time>2022-06-11T12:34:42.008Z</time>
      </trkpt>
      <trkpt lat="42.9983" lon="17.80794">
        <ele>375.51713</ele>
        <time>2022-06-11T12:34:44.032Z</time>
      </trkpt>
      <trkpt lat="42.99837" lon="17.80787">
        <ele>375.527232</ele>
        <time>2022-06-11T12:34:46.059Z</time>
      </trkpt>
      <trkpt lat="42.99845" lon="17.80776">
        <ele>375.538909</ele>
        <time>2022-06-11T12:34:49.014Z</time>
      </trkpt>
      <trkpt lat="42.99853" lon="17.80768">
        <ele>375.391355</ele>
        <time>2022-06-11T12:34:52.073Z</time>
      </trkpt>
      <trkpt lat="42.99861" lon="17.80758">
        <ele>375.175908</ele>
        <time>2022-06-11T12:34:56.005Z</time>
      </trkpt>
      <trkpt lat="42.9987" lon="17.80748">
        <ele>374.94157</ele>
        <time>2022-06-11T12:35:00.036Z</time>
      </trkpt>
      <trkpt lat="42.99877" lon="17.80738">
        <ele>374.722381</ele>
        <time>2022-06-11T12:35:03.014Z</time>
      </trkpt>
      <trkpt lat="42.99885" lon="17.80727">
        <ele>374.503845</ele>
        <time>2022-06-11T12:35:06.016Z</time>
      </trkpt>
      <trkpt lat="42.99894" lon="17.80716">
        <ele>374.256445</ele>
        <time>2022-06-11T12:35:09.048Z</time>
      </trkpt>
      <trkpt lat="42.99901" lon="17.80708">
        <ele>374.072505</ele>
        <time>2022-06-11T12:35:11.030Z</time>
      </trkpt>
      <trkpt lat="42.99907" lon="17.807">
        <ele>373.88958</ele>
        <time>2022-06-11T12:35:13.020Z</time>
      </trkpt>
      <trkpt lat="42.99914" lon="17.80691">
        <ele>373.703664</ele>
        <time>2022-06-11T12:35:15.013Z</time>
      </trkpt>
      <trkpt lat="42.99921" lon="17.80683">
        <ele>373.507746</ele>
        <time>2022-06-11T12:35:17.011Z</time>
      </trkpt>
      <trkpt lat="42.99929" lon="17.80673">
        <ele>373.303334</ele>
        <time>2022-06-11T12:35:19.037Z</time>
      </trkpt>
      <trkpt lat="42.99936" lon="17.80663">
        <ele>373.089355</ele>
        <time>2022-06-11T12:35:21.019Z</time>
      </trkpt>
      <trkpt lat="42.99944" lon="17.80653">
        <ele>372.868923</ele>
        <time>2022-06-11T12:35:23.012Z</time>
      </trkpt>
      <trkpt lat="42.99952" lon="17.80642">
        <ele>372.637699</ele>
        <time>2022-06-11T12:35:25.014Z</time>
      </trkpt>
      <trkpt lat="42.99961" lon="17.80631">
        <ele>372.395728</ele>
        <time>2022-06-11T12:35:27.050Z</time>
      </trkpt>
      <trkpt lat="42.99969" lon="17.8062">
        <ele>372.170758</ele>
        <time>2022-06-11T12:35:29.019Z</time>
      </trkpt>
      <trkpt lat="42.99976" lon="17.80611">
        <ele>371.973873</ele>
        <time>2022-06-11T12:35:31.081Z</time>
      </trkpt>
      <trkpt lat="42.99983" lon="17.80603">
        <ele>371.635243</ele>
        <time>2022-06-11T12:35:33.024Z</time>
      </trkpt>
      <trkpt lat="42.99991" lon="17.80596">
        <ele>371.150184</ele>
        <time>2022-06-11T12:35:35.062Z</time>
      </trkpt>
      <trkpt lat="42.99999" lon="17.80588">
        <ele>370.656749</ele>
        <time>2022-06-11T12:35:37.073Z</time>
      </trkpt>
      <trkpt lat="43.00007" lon="17.8058">
        <ele>370.148436</ele>
        <time>2022-06-11T12:35:39.020Z</time>
      </trkpt>
      <trkpt lat="43.00015" lon="17.80572">
        <ele>369.656331</ele>
        <time>2022-06-11T12:35:41.029Z</time>
      </trkpt>
      <trkpt lat="43.00023" lon="17.80564">
        <ele>369.133532</ele>
        <time>2022-06-11T12:35:43.013Z</time>
      </trkpt>
      <trkpt lat="43.00031" lon="17.80556">
        <ele>368.650321</ele>
        <time>2022-06-11T12:35:45.020Z</time>
      </trkpt>
      <trkpt lat="43.00039" lon="17.80548">
        <ele>368.154763</ele>
        <time>2022-06-11T12:35:47.020Z</time>
      </trkpt>
      <trkpt lat="43.00047" lon="17.8054">
        <ele>367.62543</ele>
        <time>2022-06-11T12:35:49.024Z</time>
      </trkpt>
      <trkpt lat="43.00056" lon="17.80531">
        <ele>367.079465</ele>
        <time>2022-06-11T12:35:51.024Z</time>
      </trkpt>
      <trkpt lat="43.00064" lon="17.80522">
        <ele>366.533142</ele>
        <time>2022-06-11T12:35:53.011Z</time>
      </trkpt>
      <trkpt lat="43.00073" lon="17.80513">
        <ele>365.986819</ele>
        <time>2022-06-11T12:35:55.024Z</time>
      </trkpt>
      <trkpt lat="43.00082" lon="17.80505">
        <ele>365.45154</ele>
        <time>2022-06-11T12:35:57.026Z</time>
      </trkpt>
      <trkpt lat="43.0009" lon="17.80497">
        <ele>364.933012</ele>
        <time>2022-06-11T12:35:59.065Z</time>
      </trkpt>
      <trkpt lat="43.00098" lon="17.8049">
        <ele>364.437456</ele>
        <time>2022-06-11T12:36:01.048Z</time>
      </trkpt>
      <trkpt lat="43.00106" lon="17.80482">
        <ele>363.941537</ele>
        <time>2022-06-11T12:36:03.029Z</time>
      </trkpt>
      <trkpt lat="43.00115" lon="17.80476">
        <ele>363.452488</ele>
        <time>2022-06-11T12:36:05.016Z</time>
      </trkpt>
      <trkpt lat="43.00123" lon="17.8047">
        <ele>362.97163</ele>
        <time>2022-06-11T12:36:07.022Z</time>
      </trkpt>
      <trkpt lat="43.00132" lon="17.80462">
        <ele>362.198714</ele>
        <time>2022-06-11T12:36:09.031Z</time>
      </trkpt>
      <trkpt lat="43.00141" lon="17.80453">
        <ele>361.261075</ele>
        <time>2022-06-11T12:36:11.045Z</time>
      </trkpt>
      <trkpt lat="43.0015" lon="17.80444">
        <ele>360.274621</ele>
        <time>2022-06-11T12:36:13.033Z</time>
      </trkpt>
      <trkpt lat="43.00159" lon="17.80436">
        <ele>359.298546</ele>
        <time>2022-06-11T12:36:15.014Z</time>
      </trkpt>
      <trkpt lat="43.00168" lon="17.80428">
        <ele>358.407393</ele>
        <time>2022-06-11T12:36:17.025Z</time>
      </trkpt>
      <trkpt lat="43.00177" lon="17.80422">
        <ele>357.562223</ele>
        <time>2022-06-11T12:36:19.024Z</time>
      </trkpt>
      <trkpt lat="43.00188" lon="17.80414">
        <ele>356.503601</ele>
        <time>2022-06-11T12:36:22.069Z</time>
      </trkpt>
      <trkpt lat="43.00199" lon="17.80405">
        <ele>355.333769</ele>
        <time>2022-06-11T12:36:25.024Z</time>
      </trkpt>
      <trkpt lat="43.00211" lon="17.80396">
        <ele>354.192654</ele>
        <time>2022-06-11T12:36:28.049Z</time>
      </trkpt>
      <trkpt lat="43.00222" lon="17.8039">
        <ele>353.119402</ele>
        <time>2022-06-11T12:36:31.016Z</time>
      </trkpt>
      <trkpt lat="43.00232" lon="17.80388">
        <ele>352.256279</ele>
        <time>2022-06-11T12:36:33.031Z</time>
      </trkpt>
      <trkpt lat="43.00241" lon="17.80384">
        <ele>351.429488</ele>
        <time>2022-06-11T12:36:35.034Z</time>
      </trkpt>
      <trkpt lat="43.00252" lon="17.80376">
        <ele>350.31736</ele>
        <time>2022-06-11T12:36:38.030Z</time>
      </trkpt>
      <trkpt lat="43.00259" lon="17.80365">
        <ele>349.459744</ele>
        <time>2022-06-11T12:36:40.069Z</time>
      </trkpt>
      <trkpt lat="43.00264" lon="17.80352">
        <ele>348.50759</ele>
        <time>2022-06-11T12:36:42.019Z</time>
      </trkpt>
      <trkpt lat="43.00269" lon="17.80338">
        <ele>347.499242</ele>
        <time>2022-06-11T12:36:44.026Z</time>
      </trkpt>
      <trkpt lat="43.00272" lon="17.80324">
        <ele>346.455886</ele>
        <time>2022-06-11T12:36:46.018Z</time>
      </trkpt>
      <trkpt lat="43.00277" lon="17.80308">
        <ele>345.02775</ele>
        <time>2022-06-11T12:36:49.028Z</time>
      </trkpt>
      <trkpt lat="43.00279" lon="17.80296">
        <ele>344.039857</ele>
        <time>2022-06-11T12:36:51.049Z</time>
      </trkpt>
      <trkpt lat="43.0028" lon="17.80283">
        <ele>342.997413</ele>
        <time>2022-06-11T12:36:53.011Z</time>
      </trkpt>
      <trkpt lat="43.00279" lon="17.80268">
        <ele>341.852165</ele>
        <time>2022-06-11T12:36:55.020Z</time>
      </trkpt>
      <trkpt lat="43.00279" lon="17.80253">
        <ele>340.643681</ele>
        <time>2022-06-11T12:36:57.013Z</time>
      </trkpt>
      <trkpt lat="43.0028" lon="17.8024">
        <ele>339.546414</ele>
        <time>2022-06-11T12:36:59.026Z</time>
      </trkpt>
      <trkpt lat="43.0028" lon="17.80222">
        <ele>338.105522</ele>
        <time>2022-06-11T12:37:02.084Z</time>
      </trkpt>
      <trkpt lat="43.0028" lon="17.80209">
        <ele>337.110996</ele>
        <time>2022-06-11T12:37:04.019Z</time>
      </trkpt>
      <trkpt lat="43.00282" lon="17.80196">
        <ele>335.993882</ele>
        <time>2022-06-11T12:37:06.028Z</time>
      </trkpt>
      <trkpt lat="43.00286" lon="17.80183">
        <ele>334.88091</ele>
        <time>2022-06-11T12:37:08.019Z</time>
      </trkpt>
      <trkpt lat="43.00291" lon="17.80172">
        <ele>333.868261</ele>
        <time>2022-06-11T12:37:10.028Z</time>
      </trkpt>
      <trkpt lat="43.00297" lon="17.80163">
        <ele>332.875773</ele>
        <time>2022-06-11T12:37:12.025Z</time>
      </trkpt>
      <trkpt lat="43.00305" lon="17.80156">
        <ele>331.833041</ele>
        <time>2022-06-11T12:37:14.022Z</time>
      </trkpt>
      <trkpt lat="43.00318" lon="17.80153">
        <ele>330.449091</ele>
        <time>2022-06-11T12:37:16.027Z</time>
      </trkpt>
      <trkpt lat="43.0033" lon="17.80151">
        <ele>329.085349</ele>
        <time>2022-06-11T12:37:18.083Z</time>
      </trkpt>
      <trkpt lat="43.00342" lon="17.80153">
        <ele>327.740737</ele>
        <time>2022-06-11T12:37:20.028Z</time>
      </trkpt>
      <trkpt lat="43.00354" lon="17.80158">
        <ele>326.498494</ele>
        <time>2022-06-11T12:37:22.020Z</time>
      </trkpt>
      <trkpt lat="43.00365" lon="17.80167">
        <ele>325.191157</ele>
        <time>2022-06-11T12:37:24.030Z</time>
      </trkpt>
      <trkpt lat="43.00376" lon="17.80178">
        <ele>323.771955</ele>
        <time>2022-06-11T12:37:26.028Z</time>
      </trkpt>
      <trkpt lat="43.00387" lon="17.80188">
        <ele>322.404273</ele>
        <time>2022-06-11T12:37:28.035Z</time>
      </trkpt>
      <trkpt lat="43.00397" lon="17.80198">
        <ele>321.121719</ele>
        <time>2022-06-11T12:37:30.027Z</time>
      </trkpt>
      <trkpt lat="43.00408" lon="17.80207">
        <ele>319.774525</ele>
        <time>2022-06-11T12:37:32.024Z</time>
      </trkpt>
      <trkpt lat="43.00419" lon="17.80217">
        <ele>318.410607</ele>
        <time>2022-06-11T12:37:34.022Z</time>
      </trkpt>
      <trkpt lat="43.00429" lon="17.80228">
        <ele>317.120155</ele>
        <time>2022-06-11T12:37:36.020Z</time>
      </trkpt>
      <trkpt lat="43.00436" lon="17.80239">
        <ele>316.010664</ele>
        <time>2022-06-11T12:37:38.025Z</time>
      </trkpt>
      <trkpt lat="43.00441" lon="17.80251">
        <ele>314.996277</ele>
        <time>2022-06-11T12:37:40.064Z</time>
      </trkpt>
      <trkpt lat="43.00446" lon="17.80262">
        <ele>314.010014</ele>
        <time>2022-06-11T12:37:42.037Z</time>
      </trkpt>
      <trkpt lat="43.00453" lon="17.80275">
        <ele>312.850072</ele>
        <time>2022-06-11T12:37:44.015Z</time>
      </trkpt>
      <trkpt lat="43.00459" lon="17.80288">
        <ele>311.61635</ele>
        <time>2022-06-11T12:37:46.053Z</time>
      </trkpt>
      <trkpt lat="43.00465" lon="17.80302">
        <ele>310.425363</ele>
        <time>2022-06-11T12:37:48.031Z</time>
      </trkpt>
      <trkpt lat="43.00471" lon="17.80316">
        <ele>309.217476</ele>
        <time>2022-06-11T12:37:50.024Z</time>
      </trkpt>
      <trkpt lat="43.00477" lon="17.80327">
        <ele>308.659438</ele>
        <time>2022-06-11T12:37:52.054Z</time>
      </trkpt>
      <trkpt lat="43.00482" lon="17.80338">
        <ele>308.252763</ele>
        <time>2022-06-11T12:37:54.020Z</time>
      </trkpt>
      <trkpt lat="43.00487" lon="17.8035">
        <ele>307.789061</ele>
        <time>2022-06-11T12:37:56.015Z</time>
      </trkpt>
      <trkpt lat="43.00495" lon="17.80363">
        <ele>307.261051</ele>
        <time>2022-06-11T12:37:58.018Z</time>
      </trkpt>
      <trkpt lat="43.00504" lon="17.80376">
        <ele>306.693285</ele>
        <time>2022-06-11T12:38:00.025Z</time>
      </trkpt>
      <trkpt lat="43.00512" lon="17.80388">
        <ele>306.185242</ele>
        <time>2022-06-11T12:38:02.031Z</time>
      </trkpt>
      <trkpt lat="43.00518" lon="17.80397">
        <ele>305.764129</ele>
        <time>2022-06-11T12:38:04.025Z</time>
      </trkpt>
      <trkpt lat="43.00524" lon="17.80407">
        <ele>305.3625</ele>
        <time>2022-06-11T12:38:06.031Z</time>
      </trkpt>
      <trkpt lat="43.0053" lon="17.80417">
        <ele>304.938189</ele>
        <time>2022-06-11T12:38:08.022Z</time>
      </trkpt>
      <trkpt lat="43.00536" lon="17.80428">
        <ele>304.500818</ele>
        <time>2022-06-11T12:38:10.015Z</time>
      </trkpt>
      <trkpt lat="43.00542" lon="17.8044">
        <ele>304.032517</ele>
        <time>2022-06-11T12:38:12.019Z</time>
      </trkpt>
      <trkpt lat="43.00549" lon="17.80451">
        <ele>303.561007</ele>
        <time>2022-06-11T12:38:14.039Z</time>
      </trkpt>
      <trkpt lat="43.00555" lon="17.80462">
        <ele>303.136678</ele>
        <time>2022-06-11T12:38:16.038Z</time>
      </trkpt>
      <trkpt lat="43.0056" lon="17.80472">
        <ele>302.73564</ele>
        <time>2022-06-11T12:38:18.029Z</time>
      </trkpt>
      <trkpt lat="43.00568" lon="17.80486">
        <ele>302.173939</ele>
        <time>2022-06-11T12:38:21.026Z</time>
      </trkpt>
      <trkpt lat="43.00573" lon="17.80512">
        <ele>301.304119</ele>
        <time>2022-06-11T12:47:50.036Z</time>
      </trkpt>
      <trkpt lat="43.00574" lon="17.80527">
        <ele>300.735674</ele>
        <time>2022-06-11T12:47:54.037Z</time>
      </trkpt>
      <trkpt lat="43.00574" lon="17.80543">
        <ele>300.084456</ele>
        <time>2022-06-11T12:47:57.031Z</time>
      </trkpt>
      <trkpt lat="43.00572" lon="17.80559">
        <ele>299.410916</ele>
        <time>2022-06-11T12:48:00.015Z</time>
      </trkpt>
      <trkpt lat="43.00568" lon="17.80574">
        <ele>298.754755</ele>
        <time>2022-06-11T12:48:03.024Z</time>
      </trkpt>
      <trkpt lat="43.00563" lon="17.80586">
        <ele>298.17649</ele>
        <time>2022-06-11T12:48:06.022Z</time>
      </trkpt>
      <trkpt lat="43.00555" lon="17.80596">
        <ele>297.592172</ele>
        <time>2022-06-11T12:48:09.021Z</time>
      </trkpt>
      <trkpt lat="43.00544" lon="17.80601">
        <ele>296.955664</ele>
        <time>2022-06-11T12:48:12.020Z</time>
      </trkpt>
      <trkpt lat="43.00533" lon="17.80604">
        <ele>296.286438</ele>
        <time>2022-06-11T12:48:15.036Z</time>
      </trkpt>
      <trkpt lat="43.00522" lon="17.80609">
        <ele>295.629324</ele>
        <time>2022-06-11T12:48:18.035Z</time>
      </trkpt>
      <trkpt lat="43.0052" lon="17.80623">
        <ele>295.047853</ele>
        <time>2022-06-11T12:48:21.057Z</time>
      </trkpt>
      <trkpt lat="43.00527" lon="17.80634">
        <ele>294.501751</ele>
        <time>2022-06-11T12:48:23.007Z</time>
      </trkpt>
      <trkpt lat="43.00537" lon="17.80641">
        <ele>293.822411</ele>
        <time>2022-06-11T12:48:25.022Z</time>
      </trkpt>
      <trkpt lat="43.00547" lon="17.80645">
        <ele>293.272412</ele>
        <time>2022-06-11T12:48:27.055Z</time>
      </trkpt>
      <trkpt lat="43.00559" lon="17.80649">
        <ele>292.534429</ele>
        <time>2022-06-11T12:48:30.032Z</time>
      </trkpt>
      <trkpt lat="43.00573" lon="17.80652">
        <ele>291.780763</ele>
        <time>2022-06-11T12:48:33.008Z</time>
      </trkpt>
      <trkpt lat="43.00582" lon="17.80654">
        <ele>291.235358</ele>
        <time>2022-06-11T12:48:35.031Z</time>
      </trkpt>
      <trkpt lat="43.00595" lon="17.80653">
        <ele>290.610447</ele>
        <time>2022-06-11T12:48:38.058Z</time>
      </trkpt>
      <trkpt lat="43.00607" lon="17.80649">
        <ele>290.064488</ele>
        <time>2022-06-11T12:48:41.054Z</time>
      </trkpt>
      <trkpt lat="43.00617" lon="17.8064">
        <ele>289.51821</ele>
        <time>2022-06-11T12:48:44.050Z</time>
      </trkpt>
      <trkpt lat="43.00626" lon="17.80628">
        <ele>288.966268</ele>
        <time>2022-06-11T12:48:47.020Z</time>
      </trkpt>
      <trkpt lat="43.00633" lon="17.80619">
        <ele>288.534467</ele>
        <time>2022-06-11T12:48:50.095Z</time>
      </trkpt>
      <trkpt lat="43.00643" lon="17.80618">
        <ele>288.099033</ele>
        <time>2022-06-11T12:48:54.030Z</time>
      </trkpt>
      <trkpt lat="43.00643" lon="17.80633">
        <ele>287.592205</ele>
        <time>2022-06-11T12:48:58.028Z</time>
      </trkpt>
      <trkpt lat="43.00633" lon="17.80645">
        <ele>287.009345</ele>
        <time>2022-06-11T12:49:01.056Z</time>
      </trkpt>
      <trkpt lat="43.00621" lon="17.80652">
        <ele>286.414971</ele>
        <time>2022-06-11T12:49:04.031Z</time>
      </trkpt>
      <trkpt lat="43.0061" lon="17.80655">
        <ele>285.94048</ele>
        <time>2022-06-11T12:49:07.023Z</time>
      </trkpt>
      <trkpt lat="43.006" lon="17.80659">
        <ele>285.454455</ele>
        <time>2022-06-11T12:49:11.006Z</time>
      </trkpt>
      <trkpt lat="43.00589" lon="17.80661">
        <ele>284.954329</ele>
        <time>2022-06-11T12:49:15.019Z</time>
      </trkpt>
      <trkpt lat="43.00579" lon="17.80665">
        <ele>284.505656</ele>
        <time>2022-06-11T12:49:18.025Z</time>
      </trkpt>
      <trkpt lat="43.00567" lon="17.80668">
        <ele>283.950282</ele>
        <time>2022-06-11T12:49:21.037Z</time>
      </trkpt>
      <trkpt lat="43.00558" lon="17.8067">
        <ele>283.529607</ele>
        <time>2022-06-11T12:49:23.018Z</time>
      </trkpt>
      <trkpt lat="43.00547" lon="17.80673">
        <ele>283.065736</ele>
        <time>2022-06-11T12:49:25.021Z</time>
      </trkpt>
      <trkpt lat="43.00538" lon="17.80676">
        <ele>282.661023</ele>
        <time>2022-06-11T12:49:27.012Z</time>
      </trkpt>
      <trkpt lat="43.00528" lon="17.80678">
        <ele>282.288581</ele>
        <time>2022-06-11T12:49:29.032Z</time>
      </trkpt>
      <trkpt lat="43.00519" lon="17.80679">
        <ele>281.936163</ele>
        <time>2022-06-11T12:49:31.036Z</time>
      </trkpt>
      <trkpt lat="43.0051" lon="17.80677">
        <ele>281.562674</ele>
        <time>2022-06-11T12:49:33.017Z</time>
      </trkpt>
      <trkpt lat="43.00501" lon="17.80672">
        <ele>281.183792</ele>
        <time>2022-06-11T12:49:35.048Z</time>
      </trkpt>
      <trkpt lat="43.00492" lon="17.80662">
        <ele>280.729044</ele>
        <time>2022-06-11T12:49:38.026Z</time>
      </trkpt>
      <trkpt lat="43.00487" lon="17.80649">
        <ele>280.328154</ele>
        <time>2022-06-11T12:49:41.026Z</time>
      </trkpt>
      <trkpt lat="43.00485" lon="17.80634">
        <ele>279.886571</ele>
        <time>2022-06-11T12:49:44.036Z</time>
      </trkpt>
      <trkpt lat="43.00483" lon="17.80618">
        <ele>279.432031</ele>
        <time>2022-06-11T12:49:47.020Z</time>
      </trkpt>
      <trkpt lat="43.00481" lon="17.80603">
        <ele>278.992208</ele>
        <time>2022-06-11T12:49:50.028Z</time>
      </trkpt>
      <trkpt lat="43.00479" lon="17.80588">
        <ele>278.553061</ele>
        <time>2022-06-11T12:49:53.024Z</time>
      </trkpt>
      <trkpt lat="43.00472" lon="17.80576">
        <ele>278.122444</ele>
        <time>2022-06-11T12:49:56.064Z</time>
      </trkpt>
      <trkpt lat="43.00462" lon="17.8058">
        <ele>277.707792</ele>
        <time>2022-06-11T12:49:59.034Z</time>
      </trkpt>
      <trkpt lat="43.00458" lon="17.80597">
        <ele>277.211991</ele>
        <time>2022-06-11T12:50:02.028Z</time>
      </trkpt>
      <trkpt lat="43.00458" lon="17.80611">
        <ele>276.798126</ele>
        <time>2022-06-11T12:50:04.029Z</time>
      </trkpt>
      <trkpt lat="43.00462" lon="17.80625">
        <ele>276.390954</ele>
        <time>2022-06-11T12:50:06.024Z</time>
      </trkpt>
      <trkpt lat="43.00466" lon="17.80639">
        <ele>275.926347</ele>
        <time>2022-06-11T12:50:08.054Z</time>
      </trkpt>
      <trkpt lat="43.0047" lon="17.80656">
        <ele>275.180349</ele>
        <time>2022-06-11T12:50:10.032Z</time>
      </trkpt>
      <trkpt lat="43.00475" lon="17.80671">
        <ele>274.476348</ele>
        <time>2022-06-11T12:50:12.035Z</time>
      </trkpt>
      <trkpt lat="43.0048" lon="17.80685">
        <ele>273.812543</ele>
        <time>2022-06-11T12:50:14.059Z</time>
      </trkpt>
      <trkpt lat="43.00487" lon="17.80696">
        <ele>273.180034</ele>
        <time>2022-06-11T12:50:16.020Z</time>
      </trkpt>
      <trkpt lat="43.00497" lon="17.80704">
        <ele>272.482504</ele>
        <time>2022-06-11T12:50:18.014Z</time>
      </trkpt>
      <trkpt lat="43.0051" lon="17.80709">
        <ele>271.702996</ele>
        <time>2022-06-11T12:50:20.067Z</time>
      </trkpt>
      <trkpt lat="43.00522" lon="17.80713">
        <ele>270.971195</ele>
        <time>2022-06-11T12:50:22.028Z</time>
      </trkpt>
      <trkpt lat="43.00534" lon="17.80716">
        <ele>270.243499</ele>
        <time>2022-06-11T12:50:24.029Z</time>
      </trkpt>
      <trkpt lat="43.00546" lon="17.80718">
        <ele>269.581958</ele>
        <time>2022-06-11T12:50:26.024Z</time>
      </trkpt>
      <trkpt lat="43.00556" lon="17.80719">
        <ele>268.97431</ele>
        <time>2022-06-11T12:50:28.031Z</time>
      </trkpt>
      <trkpt lat="43.00567" lon="17.8072">
        <ele>268.319912</ele>
        <time>2022-06-11T12:50:30.035Z</time>
      </trkpt>
      <trkpt lat="43.0058" lon="17.80722">
        <ele>267.535724</ele>
        <time>2022-06-11T12:50:32.031Z</time>
      </trkpt>
      <trkpt lat="43.00594" lon="17.80724">
        <ele>266.72191</ele>
        <time>2022-06-11T12:50:34.020Z</time>
      </trkpt>
      <trkpt lat="43.00607" lon="17.80725">
        <ele>265.93811</ele>
        <time>2022-06-11T12:50:36.034Z</time>
      </trkpt>
      <trkpt lat="43.0062" lon="17.80727">
        <ele>265.133842</ele>
        <time>2022-06-11T12:50:38.042Z</time>
      </trkpt>
      <trkpt lat="43.00632" lon="17.80728">
        <ele>264.086519</ele>
        <time>2022-06-11T12:50:40.014Z</time>
      </trkpt>
      <trkpt lat="43.00645" lon="17.8073">
        <ele>263.028714</ele>
        <time>2022-06-11T12:50:42.029Z</time>
      </trkpt>
      <trkpt lat="43.00657" lon="17.80732">
        <ele>262.001005</ele>
        <time>2022-06-11T12:50:44.018Z</time>
      </trkpt>
      <trkpt lat="43.0067" lon="17.80735">
        <ele>260.977109</ele>
        <time>2022-06-11T12:50:46.049Z</time>
      </trkpt>
      <trkpt lat="43.00682" lon="17.80737">
        <ele>259.972358</ele>
        <time>2022-06-11T12:50:48.031Z</time>
      </trkpt>
      <trkpt lat="43.00693" lon="17.80737">
        <ele>259.044441</ele>
        <time>2022-06-11T12:50:50.025Z</time>
      </trkpt>
      <trkpt lat="43.00703" lon="17.80734">
        <ele>258.212437</ele>
        <time>2022-06-11T12:50:52.021Z</time>
      </trkpt>
      <trkpt lat="43.00711" lon="17.80728">
        <ele>257.460481</ele>
        <time>2022-06-11T12:50:54.025Z</time>
      </trkpt>
      <trkpt lat="43.00721" lon="17.80717">
        <ele>256.390764</ele>
        <time>2022-06-11T12:50:57.041Z</time>
      </trkpt>
      <trkpt lat="43.0073" lon="17.80705">
        <ele>255.343914</ele>
        <time>2022-06-11T12:51:00.064Z</time>
      </trkpt>
      <trkpt lat="43.00737" lon="17.80694">
        <ele>254.428317</ele>
        <time>2022-06-11T12:51:03.023Z</time>
      </trkpt>
      <trkpt lat="43.00745" lon="17.80684">
        <ele>253.535935</ele>
        <time>2022-06-11T12:51:06.030Z</time>
      </trkpt>
      <trkpt lat="43.00751" lon="17.80671">
        <ele>252.630873</ele>
        <time>2022-06-11T12:51:09.029Z</time>
      </trkpt>
      <trkpt lat="43.00752" lon="17.80655">
        <ele>251.615738</ele>
        <time>2022-06-11T12:51:12.011Z</time>
      </trkpt>
      <trkpt lat="43.00752" lon="17.8064">
        <ele>250.754812</ele>
        <time>2022-06-11T12:51:14.025Z</time>
      </trkpt>
      <trkpt lat="43.0075" lon="17.80625">
        <ele>250.108294</ele>
        <time>2022-06-11T12:51:16.029Z</time>
      </trkpt>
      <trkpt lat="43.00747" lon="17.80609">
        <ele>249.526097</ele>
        <time>2022-06-11T12:51:18.022Z</time>
      </trkpt>
      <trkpt lat="43.00744" lon="17.80594">
        <ele>248.991779</ele>
        <time>2022-06-11T12:51:20.016Z</time>
      </trkpt>
      <trkpt lat="43.00741" lon="17.80581">
        <ele>248.521449</ele>
        <time>2022-06-11T12:51:22.008Z</time>
      </trkpt>
      <trkpt lat="43.00737" lon="17.80568">
        <ele>248.04918</ele>
        <time>2022-06-11T12:51:24.055Z</time>
      </trkpt>
      <trkpt lat="43.00736" lon="17.80555">
        <ele>247.619513</ele>
        <time>2022-06-11T12:51:26.051Z</time>
      </trkpt>
      <trkpt lat="43.0074" lon="17.80538">
        <ele>246.985446</ele>
        <time>2022-06-11T12:51:29.022Z</time>
      </trkpt>
      <trkpt lat="43.00747" lon="17.80528">
        <ele>246.51712</ele>
        <time>2022-06-11T12:51:31.023Z</time>
      </trkpt>
      <trkpt lat="43.00755" lon="17.80522">
        <ele>246.079927</ele>
        <time>2022-06-11T12:51:33.047Z</time>
      </trkpt>
      <trkpt lat="43.00766" lon="17.8052">
        <ele>245.561524</ele>
        <time>2022-06-11T12:51:36.021Z</time>
      </trkpt>
      <trkpt lat="43.00777" lon="17.80519">
        <ele>245.064227</ele>
        <time>2022-06-11T12:51:39.056Z</time>
      </trkpt>
      <trkpt lat="43.00787" lon="17.80519">
        <ele>244.590378</ele>
        <time>2022-06-11T12:51:42.014Z</time>
      </trkpt>
      <trkpt lat="43.008" lon="17.80518">
        <ele>244.002856</ele>
        <time>2022-06-11T12:51:45.025Z</time>
      </trkpt>
      <trkpt lat="43.00809" lon="17.80517">
        <ele>243.57333</ele>
        <time>2022-06-11T12:51:47.027Z</time>
      </trkpt>
      <trkpt lat="43.00822" lon="17.80515">
        <ele>242.943676</ele>
        <time>2022-06-11T12:51:50.024Z</time>
      </trkpt>
      <trkpt lat="43.00835" lon="17.80515">
        <ele>242.324296</ele>
        <time>2022-06-11T12:51:53.021Z</time>
      </trkpt>
      <trkpt lat="43.00844" lon="17.80515">
        <ele>241.890133</ele>
        <time>2022-06-11T12:51:55.035Z</time>
      </trkpt>
      <trkpt lat="43.00853" lon="17.80515">
        <ele>241.433908</ele>
        <time>2022-06-11T12:51:57.050Z</time>
      </trkpt>
      <trkpt lat="43.00866" lon="17.80514">
        <ele>240.774601</ele>
        <time>2022-06-11T12:52:00.029Z</time>
      </trkpt>
      <trkpt lat="43.00876" lon="17.80513">
        <ele>240.287753</ele>
        <time>2022-06-11T12:52:02.028Z</time>
      </trkpt>
      <trkpt lat="43.00886" lon="17.80512">
        <ele>239.753125</ele>
        <time>2022-06-11T12:52:04.024Z</time>
      </trkpt>
      <trkpt lat="43.00897" lon="17.80508">
        <ele>239.179941</ele>
        <time>2022-06-11T12:52:06.027Z</time>
      </trkpt>
      <trkpt lat="43.00908" lon="17.80502">
        <ele>238.568028</ele>
        <time>2022-06-11T12:52:08.029Z</time>
      </trkpt>
      <trkpt lat="43.00919" lon="17.80491">
        <ele>237.897189</ele>
        <time>2022-06-11T12:52:10.055Z</time>
      </trkpt>
      <trkpt lat="43.00927" lon="17.80478">
        <ele>237.267559</ele>
        <time>2022-06-11T12:52:12.033Z</time>
      </trkpt>
      <trkpt lat="43.00933" lon="17.80462">
        <ele>236.614383</ele>
        <time>2022-06-11T12:52:14.062Z</time>
      </trkpt>
      <trkpt lat="43.00936" lon="17.80446">
        <ele>236.011753</ele>
        <time>2022-06-11T12:52:16.013Z</time>
      </trkpt>
      <trkpt lat="43.00936" lon="17.80431">
        <ele>235.422526</ele>
        <time>2022-06-11T12:52:18.023Z</time>
      </trkpt>
      <trkpt lat="43.00932" lon="17.80415">
        <ele>234.818314</ele>
        <time>2022-06-11T12:52:20.038Z</time>
      </trkpt>
      <trkpt lat="43.00926" lon="17.80402">
        <ele>234.225514</ele>
        <time>2022-06-11T12:52:22.028Z</time>
      </trkpt>
      <trkpt lat="43.00919" lon="17.8039">
        <ele>233.68086</ele>
        <time>2022-06-11T12:52:24.034Z</time>
      </trkpt>
      <trkpt lat="43.00913" lon="17.8038">
        <ele>233.186808</ele>
        <time>2022-06-11T12:52:26.030Z</time>
      </trkpt>
      <trkpt lat="43.00907" lon="17.8037">
        <ele>232.883988</ele>
        <time>2022-06-11T12:52:28.028Z</time>
      </trkpt>
      <trkpt lat="43.00901" lon="17.80356">
        <ele>232.728248</ele>
        <time>2022-06-11T12:52:31.011Z</time>
      </trkpt>
      <trkpt lat="43.00896" lon="17.8034">
        <ele>232.564741</ele>
        <time>2022-06-11T12:52:34.026Z</time>
      </trkpt>
      <trkpt lat="43.00891" lon="17.80328">
        <ele>232.43408</ele>
        <time>2022-06-11T12:52:36.019Z</time>
      </trkpt>
      <trkpt lat="43.00887" lon="17.80315">
        <ele>232.301544</ele>
        <time>2022-06-11T12:52:38.017Z</time>
      </trkpt>
      <trkpt lat="43.00885" lon="17.803">
        <ele>232.16241</ele>
        <time>2022-06-11T12:52:40.020Z</time>
      </trkpt>
      <trkpt lat="43.00884" lon="17.80285">
        <ele>232.019678</ele>
        <time>2022-06-11T12:52:42.020Z</time>
      </trkpt>
      <trkpt lat="43.00883" lon="17.8027">
        <ele>231.876946</ele>
        <time>2022-06-11T12:52:44.032Z</time>
      </trkpt>
      <trkpt lat="43.00882" lon="17.80255">
        <ele>231.732088</ele>
        <time>2022-06-11T12:52:46.025Z</time>
      </trkpt>
      <trkpt lat="43.00882" lon="17.8024">
        <ele>231.591132</ele>
        <time>2022-06-11T12:52:48.015Z</time>
      </trkpt>
      <trkpt lat="43.00884" lon="17.80226">
        <ele>231.459749</ele>
        <time>2022-06-11T12:52:50.019Z</time>
      </trkpt>
      <trkpt lat="43.00885" lon="17.80212">
        <ele>231.330861</ele>
        <time>2022-06-11T12:52:52.023Z</time>
      </trkpt>
      <trkpt lat="43.00887" lon="17.80198">
        <ele>231.200984</ele>
        <time>2022-06-11T12:52:54.009Z</time>
      </trkpt>
      <trkpt lat="43.00889" lon="17.80185">
        <ele>231.075297</ele>
        <time>2022-06-11T12:52:56.028Z</time>
      </trkpt>
      <trkpt lat="43.00891" lon="17.80173">
        <ele>230.952811</ele>
        <time>2022-06-11T12:52:58.055Z</time>
      </trkpt>
      <trkpt lat="43.00893" lon="17.8016">
        <ele>230.828879</ele>
        <time>2022-06-11T12:53:00.023Z</time>
      </trkpt>
      <trkpt lat="43.00896" lon="17.80147">
        <ele>230.704594</ele>
        <time>2022-06-11T12:53:02.030Z</time>
      </trkpt>
      <trkpt lat="43.009" lon="17.80135">
        <ele>230.440201</ele>
        <time>2022-06-11T12:53:04.057Z</time>
      </trkpt>
      <trkpt lat="43.00907" lon="17.80123">
        <ele>229.931196</ele>
        <time>2022-06-11T12:53:06.032Z</time>
      </trkpt>
      <trkpt lat="43.00914" lon="17.80112">
        <ele>229.396081</ele>
        <time>2022-06-11T12:53:08.014Z</time>
      </trkpt>
      <trkpt lat="43.00923" lon="17.80103">
        <ele>228.852069</ele>
        <time>2022-06-11T12:53:10.020Z</time>
      </trkpt>
      <trkpt lat="43.00931" lon="17.80092">
        <ele>228.289225</ele>
        <time>2022-06-11T12:53:13.024Z</time>
      </trkpt>
      <trkpt lat="43.00941" lon="17.80081">
        <ele>227.683603</ele>
        <time>2022-06-11T12:53:17.060Z</time>
      </trkpt>
      <trkpt lat="43.00945" lon="17.80068">
        <ele>227.153012</ele>
        <time>2022-06-11T12:53:21.022Z</time>
      </trkpt>
      <trkpt lat="43.00934" lon="17.80038">
        <ele>225.961187</ele>
        <time>2022-06-11T12:54:19.032Z</time>
      </trkpt>
      <trkpt lat="43.00926" lon="17.80027">
        <ele>225.394511</ele>
        <time>2022-06-11T12:54:22.054Z</time>
      </trkpt>
      <trkpt lat="43.0092" lon="17.80018">
        <ele>224.949264</ele>
        <time>2022-06-11T12:54:24.052Z</time>
      </trkpt>
      <trkpt lat="43.00912" lon="17.8001">
        <ele>224.485863</ele>
        <time>2022-06-11T12:54:26.011Z</time>
      </trkpt>
      <trkpt lat="43.00905" lon="17.80001">
        <ele>224.016446</ele>
        <time>2022-06-11T12:54:28.028Z</time>
      </trkpt>
      <trkpt lat="43.00898" lon="17.79992">
        <ele>223.547212</ele>
        <time>2022-06-11T12:54:30.057Z</time>
      </trkpt>
      <trkpt lat="43.0089" lon="17.79982">
        <ele>223.039578</ele>
        <time>2022-06-11T12:54:32.018Z</time>
      </trkpt>
      <trkpt lat="43.00882" lon="17.79973">
        <ele>222.502498</ele>
        <time>2022-06-11T12:54:34.025Z</time>
      </trkpt>
      <trkpt lat="43.00873" lon="17.79961">
        <ele>221.906449</ele>
        <time>2022-06-11T12:54:36.012Z</time>
      </trkpt>
      <trkpt lat="43.00865" lon="17.79949">
        <ele>220.952097</ele>
        <time>2022-06-11T12:54:38.043Z</time>
      </trkpt>
      <trkpt lat="43.00857" lon="17.79936">
        <ele>219.944331</ele>
        <time>2022-06-11T12:54:40.018Z</time>
      </trkpt>
      <trkpt lat="43.00848" lon="17.79923">
        <ele>218.839023</ele>
        <time>2022-06-11T12:54:42.034Z</time>
      </trkpt>
      <trkpt lat="43.00839" lon="17.7991">
        <ele>217.749736</ele>
        <time>2022-06-11T12:54:44.019Z</time>
      </trkpt>
      <trkpt lat="43.00829" lon="17.79901">
        <ele>216.766731</ele>
        <time>2022-06-11T12:54:46.017Z</time>
      </trkpt>
      <trkpt lat="43.0082" lon="17.79894">
        <ele>215.900763</ele>
        <time>2022-06-11T12:54:48.025Z</time>
      </trkpt>
      <trkpt lat="43.00809" lon="17.79891">
        <ele>215.019832</ele>
        <time>2022-06-11T12:54:50.022Z</time>
      </trkpt>
      <trkpt lat="43.00796" lon="17.79894">
        <ele>213.920962</ele>
        <time>2022-06-11T12:54:52.023Z</time>
      </trkpt>
      <trkpt lat="43.00784" lon="17.79901">
        <ele>212.825473</ele>
        <time>2022-06-11T12:54:54.028Z</time>
      </trkpt>
      <trkpt lat="43.00772" lon="17.79909">
        <ele>211.727271</ele>
        <time>2022-06-11T12:54:56.016Z</time>
      </trkpt>
      <trkpt lat="43.0076" lon="17.79915">
        <ele>210.63068</ele>
        <time>2022-06-11T12:54:58.049Z</time>
      </trkpt>
      <trkpt lat="43.00748" lon="17.79919">
        <ele>209.665897</ele>
        <time>2022-06-11T12:55:00.040Z</time>
      </trkpt>
      <trkpt lat="43.00738" lon="17.79922">
        <ele>208.786958</ele>
        <time>2022-06-11T12:55:02.033Z</time>
      </trkpt>
      <trkpt lat="43.00726" lon="17.79919">
        <ele>207.764466</ele>
        <time>2022-06-11T12:55:05.009Z</time>
      </trkpt>
      <trkpt lat="43.00719" lon="17.7991">
        <ele>206.989796</ele>
        <time>2022-06-11T12:55:07.015Z</time>
      </trkpt>
      <trkpt lat="43.00715" lon="17.79896">
        <ele>206.417041</ele>
        <time>2022-06-11T12:55:09.023Z</time>
      </trkpt>
      <trkpt lat="43.00717" lon="17.79883">
        <ele>205.874759</ele>
        <time>2022-06-11T12:55:11.027Z</time>
      </trkpt>
      <trkpt lat="43.0072" lon="17.7987">
        <ele>205.365777</ele>
        <time>2022-06-11T12:55:13.017Z</time>
      </trkpt>
      <trkpt lat="43.00723" lon="17.79858">
        <ele>204.858918</ele>
        <time>2022-06-11T12:55:15.040Z</time>
      </trkpt>
      <trkpt lat="43.00727" lon="17.79845">
        <ele>204.317614</ele>
        <time>2022-06-11T12:55:17.029Z</time>
      </trkpt>
      <trkpt lat="43.00734" lon="17.79832">
        <ele>203.673617</ele>
        <time>2022-06-11T12:55:19.028Z</time>
      </trkpt>
      <trkpt lat="43.00741" lon="17.79821">
        <ele>203.102999</ele>
        <time>2022-06-11T12:55:21.031Z</time>
      </trkpt>
      <trkpt lat="43.00749" lon="17.79812">
        <ele>202.561601</ele>
        <time>2022-06-11T12:55:23.020Z</time>
      </trkpt>
      <trkpt lat="43.00758" lon="17.79799">
        <ele>201.884175</ele>
        <time>2022-06-11T12:55:26.051Z</time>
      </trkpt>
      <trkpt lat="43.00766" lon="17.79788">
        <ele>201.251543</ele>
        <time>2022-06-11T12:55:29.029Z</time>
      </trkpt>
      <trkpt lat="43.00774" lon="17.79777">
        <ele>200.632005</ele>
        <time>2022-06-11T12:55:31.999Z</time>
      </trkpt>
      <trkpt lat="43.00782" lon="17.79766">
        <ele>200.032093</ele>
        <time>2022-06-11T12:55:35.016Z</time>
      </trkpt>
      <trkpt lat="43.00792" lon="17.79757">
        <ele>199.394285</ele>
        <time>2022-06-11T12:55:38.025Z</time>
      </trkpt>
      <trkpt lat="43.00806" lon="17.79757">
        <ele>198.645884</ele>
        <time>2022-06-11T12:55:41.020Z</time>
      </trkpt>
      <trkpt lat="43.00817" lon="17.79758">
        <ele>198.046138</ele>
        <time>2022-06-11T12:55:43.014Z</time>
      </trkpt>
      <trkpt lat="43.00828" lon="17.79759">
        <ele>197.461576</ele>
        <time>2022-06-11T12:55:45.026Z</time>
      </trkpt>
      <trkpt lat="43.0084" lon="17.7976">
        <ele>197.111703</ele>
        <time>2022-06-11T12:55:47.025Z</time>
      </trkpt>
      <trkpt lat="43.00851" lon="17.79761">
        <ele>196.800225</ele>
        <time>2022-06-11T12:55:49.029Z</time>
      </trkpt>
      <trkpt lat="43.00863" lon="17.79762">
        <ele>196.47231</ele>
        <time>2022-06-11T12:55:51.024Z</time>
      </trkpt>
      <trkpt lat="43.00875" lon="17.79762">
        <ele>196.149883</ele>
        <time>2022-06-11T12:55:53.035Z</time>
      </trkpt>
      <trkpt lat="43.00887" lon="17.79762">
        <ele>195.830359</ele>
        <time>2022-06-11T12:55:55.024Z</time>
      </trkpt>
      <trkpt lat="43.00899" lon="17.79763">
        <ele>195.491437</ele>
        <time>2022-06-11T12:55:57.023Z</time>
      </trkpt>
      <trkpt lat="43.00912" lon="17.79765">
        <ele>195.156282</ele>
        <time>2022-06-11T12:55:59.028Z</time>
      </trkpt>
      <trkpt lat="43.00924" lon="17.79767">
        <ele>194.809411</ele>
        <time>2022-06-11T12:56:01.025Z</time>
      </trkpt>
      <trkpt lat="43.00937" lon="17.7977">
        <ele>194.459318</ele>
        <time>2022-06-11T12:56:03.044Z</time>
      </trkpt>
      <trkpt lat="43.0095" lon="17.79773">
        <ele>194.097529</ele>
        <time>2022-06-11T12:56:05.073Z</time>
      </trkpt>
      <trkpt lat="43.00964" lon="17.79776">
        <ele>193.716197</ele>
        <time>2022-06-11T12:56:07.016Z</time>
      </trkpt>
      <trkpt lat="43.00979" lon="17.7978">
        <ele>193.304512</ele>
        <time>2022-06-11T12:56:09.003Z</time>
      </trkpt>
      <trkpt lat="43.00994" lon="17.79783">
        <ele>192.894121</ele>
        <time>2022-06-11T12:56:11.031Z</time>
      </trkpt>
      <trkpt lat="43.01008" lon="17.79786">
        <ele>192.508638</ele>
        <time>2022-06-11T12:56:13.026Z</time>
      </trkpt>
      <trkpt lat="43.01021" lon="17.79785">
        <ele>192.382832</ele>
        <time>2022-06-11T12:56:15.024Z</time>
      </trkpt>
      <trkpt lat="43.01034" lon="17.79785">
        <ele>192.259937</ele>
        <time>2022-06-11T12:56:17.022Z</time>
      </trkpt>
      <trkpt lat="43.01046" lon="17.79783">
        <ele>192.149299</ele>
        <time>2022-06-11T12:56:19.022Z</time>
      </trkpt>
      <trkpt lat="43.01056" lon="17.79779">
        <ele>192.046611</ele>
        <time>2022-06-11T12:56:21.015Z</time>
      </trkpt>
      <trkpt lat="43.01065" lon="17.79774">
        <ele>191.956539</ele>
        <time>2022-06-11T12:56:23.018Z</time>
      </trkpt>
      <trkpt lat="43.01073" lon="17.79768">
        <ele>191.864162</ele>
        <time>2022-06-11T12:56:25.016Z</time>
      </trkpt>
      <trkpt lat="43.01082" lon="17.79761">
        <ele>191.769133</ele>
        <time>2022-06-11T12:56:27.063Z</time>
      </trkpt>
      <trkpt lat="43.0109" lon="17.79754">
        <ele>191.673402</ele>
        <time>2022-06-11T12:56:29.025Z</time>
      </trkpt>
      <trkpt lat="43.011" lon="17.79746">
        <ele>191.567472</ele>
        <time>2022-06-11T12:56:31.061Z</time>
      </trkpt>
      <trkpt lat="43.01109" lon="17.79738">
        <ele>191.461231</ele>
        <time>2022-06-11T12:56:33.016Z</time>
      </trkpt>
      <trkpt lat="43.01118" lon="17.79729">
        <ele>191.356831</ele>
        <time>2022-06-11T12:56:35.016Z</time>
      </trkpt>
      <trkpt lat="43.01125" lon="17.7972">
        <ele>191.263322</ele>
        <time>2022-06-11T12:56:37.026Z</time>
      </trkpt>
      <trkpt lat="43.0113" lon="17.7971">
        <ele>191.176883</ele>
        <time>2022-06-11T12:56:39.039Z</time>
      </trkpt>
      <trkpt lat="43.01136" lon="17.797">
        <ele>191.084484</ele>
        <time>2022-06-11T12:56:41.031Z</time>
      </trkpt>
      <trkpt lat="43.01143" lon="17.79685">
        <ele>190.963087</ele>
        <time>2022-06-11T12:56:44.011Z</time>
      </trkpt>
      <trkpt lat="43.0115" lon="17.79671">
        <ele>190.840518</ele>
        <time>2022-06-11T12:56:47.028Z</time>
      </trkpt>
      <trkpt lat="43.01156" lon="17.79655">
        <ele>190.266664</ele>
        <time>2022-06-11T12:56:50.076Z</time>
      </trkpt>
      <trkpt lat="43.0116" lon="17.7964">
        <ele>189.437631</ele>
        <time>2022-06-11T12:56:53.021Z</time>
      </trkpt>
      <trkpt lat="43.01161" lon="17.79625">
        <ele>188.645524</ele>
        <time>2022-06-11T12:56:56.026Z</time>
      </trkpt>
      <trkpt lat="43.01161" lon="17.7961">
        <ele>187.814049</ele>
        <time>2022-06-11T12:56:59.026Z</time>
      </trkpt>
      <trkpt lat="43.0116" lon="17.79593">
        <ele>186.896125</ele>
        <time>2022-06-11T12:57:02.019Z</time>
      </trkpt>
      <trkpt lat="43.01155" lon="17.79577">
        <ele>185.967223</ele>
        <time>2022-06-11T12:57:05.062Z</time>
      </trkpt>
      <trkpt lat="43.01147" lon="17.79562">
        <ele>185.003464</ele>
        <time>2022-06-11T12:57:08.030Z</time>
      </trkpt>
      <trkpt lat="43.01141" lon="17.79551">
        <ele>184.261438</ele>
        <time>2022-06-11T12:57:10.036Z</time>
      </trkpt>
      <trkpt lat="43.01134" lon="17.79541">
        <ele>183.506995</ele>
        <time>2022-06-11T12:57:12.053Z</time>
      </trkpt>
      <trkpt lat="43.01126" lon="17.79532">
        <ele>182.776186</ele>
        <time>2022-06-11T12:57:14.007Z</time>
      </trkpt>
      <trkpt lat="43.01119" lon="17.79525">
        <ele>182.099246</ele>
        <time>2022-06-11T12:57:16.030Z</time>
      </trkpt>
      <trkpt lat="43.01111" lon="17.79518">
        <ele>181.433476</ele>
        <time>2022-06-11T12:57:18.028Z</time>
      </trkpt>
      <trkpt lat="43.01103" lon="17.79512">
        <ele>180.742641</ele>
        <time>2022-06-11T12:57:20.016Z</time>
      </trkpt>
      <trkpt lat="43.01091" lon="17.79505">
        <ele>179.798425</ele>
        <time>2022-06-11T12:57:23.071Z</time>
      </trkpt>
      <trkpt lat="43.01079" lon="17.79497">
        <ele>178.843132</ele>
        <time>2022-06-11T12:57:26.017Z</time>
      </trkpt>
      <trkpt lat="43.01068" lon="17.79489">
        <ele>177.935928</ele>
        <time>2022-06-11T12:57:29.024Z</time>
      </trkpt>
      <trkpt lat="43.01059" lon="17.79485">
        <ele>177.379797</ele>
        <time>2022-06-11T12:57:31.028Z</time>
      </trkpt>
      <trkpt lat="43.0105" lon="17.79481">
        <ele>176.860093</ele>
        <time>2022-06-11T12:57:33.018Z</time>
      </trkpt>
      <trkpt lat="43.01041" lon="17.79477">
        <ele>176.336909</ele>
        <time>2022-06-11T12:57:35.029Z</time>
      </trkpt>
      <trkpt lat="43.01032" lon="17.79473">
        <ele>175.821258</ele>
        <time>2022-06-11T12:57:37.028Z</time>
      </trkpt>
      <trkpt lat="43.0102" lon="17.79469">
        <ele>175.131221</ele>
        <time>2022-06-11T12:57:40.024Z</time>
      </trkpt>
      <trkpt lat="43.0101" lon="17.79459">
        <ele>174.49735</ele>
        <time>2022-06-11T12:57:43.025Z</time>
      </trkpt>
      <trkpt lat="43.01007" lon="17.79448">
        <ele>174.004457</ele>
        <time>2022-06-11T12:57:45.073Z</time>
      </trkpt>
      <trkpt lat="43.01006" lon="17.79434">
        <ele>173.471661</ele>
        <time>2022-06-11T12:57:47.019Z</time>
      </trkpt>
      <trkpt lat="43.01008" lon="17.79417">
        <ele>172.785526</ele>
        <time>2022-06-11T12:57:50.032Z</time>
      </trkpt>
      <trkpt lat="43.01013" lon="17.79402">
        <ele>172.135846</ele>
        <time>2022-06-11T12:57:53.024Z</time>
      </trkpt>
      <trkpt lat="43.01019" lon="17.79387">
        <ele>171.470865</ele>
        <time>2022-06-11T12:57:56.055Z</time>
      </trkpt>
      <trkpt lat="43.01022" lon="17.79376">
        <ele>170.97437</ele>
        <time>2022-06-11T12:57:58.031Z</time>
      </trkpt>
      <trkpt lat="43.01026" lon="17.79365">
        <ele>170.486345</ele>
        <time>2022-06-11T12:58:00.017Z</time>
      </trkpt>
      <trkpt lat="43.01031" lon="17.79354">
        <ele>169.984882</ele>
        <time>2022-06-11T12:58:02.057Z</time>
      </trkpt>
      <trkpt lat="43.01036" lon="17.79343">
        <ele>169.453241</ele>
        <time>2022-06-11T12:58:04.020Z</time>
      </trkpt>
      <trkpt lat="43.01042" lon="17.79332">
        <ele>168.928426</ele>
        <time>2022-06-11T12:58:06.030Z</time>
      </trkpt>
      <trkpt lat="43.01047" lon="17.7932">
        <ele>168.384535</ele>
        <time>2022-06-11T12:58:08.054Z</time>
      </trkpt>
      <trkpt lat="43.01052" lon="17.79308">
        <ele>167.857793</ele>
        <time>2022-06-11T12:58:10.023Z</time>
      </trkpt>
      <trkpt lat="43.01057" lon="17.79295">
        <ele>167.412035</ele>
        <time>2022-06-11T12:58:12.014Z</time>
      </trkpt>
      <trkpt lat="43.0106" lon="17.79282">
        <ele>167.013055</ele>
        <time>2022-06-11T12:58:14.012Z</time>
      </trkpt>
      <trkpt lat="43.0106" lon="17.79267">
        <ele>166.562568</ele>
        <time>2022-06-11T12:58:16.025Z</time>
      </trkpt>
      <trkpt lat="43.01054" lon="17.79251">
        <ele>166.02904</ele>
        <time>2022-06-11T12:58:18.020Z</time>
      </trkpt>
      <trkpt lat="43.01045" lon="17.79242">
        <ele>165.572974</ele>
        <time>2022-06-11T12:58:20.030Z</time>
      </trkpt>
      <trkpt lat="43.01035" lon="17.79236">
        <ele>165.143872</ele>
        <time>2022-06-11T12:58:22.031Z</time>
      </trkpt>
      <trkpt lat="43.01025" lon="17.79231">
        <ele>164.724524</ele>
        <time>2022-06-11T12:58:24.056Z</time>
      </trkpt>
      <trkpt lat="43.01016" lon="17.79225">
        <ele>164.311484</ele>
        <time>2022-06-11T12:58:26.033Z</time>
      </trkpt>
      <trkpt lat="43.0101" lon="17.79214">
        <ele>163.886715</ele>
        <time>2022-06-11T12:58:28.018Z</time>
      </trkpt>
      <trkpt lat="43.01005" lon="17.79201">
        <ele>163.45971</ele>
        <time>2022-06-11T12:58:30.077Z</time>
      </trkpt>
      <trkpt lat="43.01006" lon="17.79188">
        <ele>163.075537</ele>
        <time>2022-06-11T12:58:32.039Z</time>
      </trkpt>
      <trkpt lat="43.01008" lon="17.79172">
        <ele>162.590803</ele>
        <time>2022-06-11T12:58:35.033Z</time>
      </trkpt>
      <trkpt lat="43.01009" lon="17.79157">
        <ele>162.140034</ele>
        <time>2022-06-11T12:58:38.036Z</time>
      </trkpt>
      <trkpt lat="43.0101" lon="17.79139">
        <ele>161.614431</ele>
        <time>2022-06-11T12:58:41.039Z</time>
      </trkpt>
      <trkpt lat="43.0101" lon="17.79127">
        <ele>161.230323</ele>
        <time>2022-06-11T12:58:43.019Z</time>
      </trkpt>
      <trkpt lat="43.0101" lon="17.79114">
        <ele>160.855081</ele>
        <time>2022-06-11T12:58:45.012Z</time>
      </trkpt>
      <trkpt lat="43.01012" lon="17.79097">
        <ele>160.265678</ele>
        <time>2022-06-11T12:58:48.020Z</time>
      </trkpt>
      <trkpt lat="43.01019" lon="17.79082">
        <ele>159.613593</ele>
        <time>2022-06-11T12:58:51.040Z</time>
      </trkpt>
      <trkpt lat="43.01025" lon="17.79071">
        <ele>159.117524</ele>
        <time>2022-06-11T12:58:53.014Z</time>
      </trkpt>
      <trkpt lat="43.01031" lon="17.79062">
        <ele>158.650786</ele>
        <time>2022-06-11T12:58:55.030Z</time>
      </trkpt>
      <trkpt lat="43.01037" lon="17.79053">
        <ele>158.177798</ele>
        <time>2022-06-11T12:58:57.034Z</time>
      </trkpt>
      <trkpt lat="43.01046" lon="17.79045">
        <ele>157.651028</ele>
        <time>2022-06-11T12:58:59.038Z</time>
      </trkpt>
      <trkpt lat="43.01055" lon="17.79043">
        <ele>157.173183</ele>
        <time>2022-06-11T12:59:01.013Z</time>
      </trkpt>
      <trkpt lat="43.01065" lon="17.79046">
        <ele>156.641188</ele>
        <time>2022-06-11T12:59:03.025Z</time>
      </trkpt>
      <trkpt lat="43.01076" lon="17.7905">
        <ele>156.073881</ele>
        <time>2022-06-11T12:59:05.025Z</time>
      </trkpt>
      <trkpt lat="43.01086" lon="17.79054">
        <ele>155.505599</ele>
        <time>2022-06-11T12:59:07.024Z</time>
      </trkpt>
      <trkpt lat="43.01096" lon="17.79056">
        <ele>154.984707</ele>
        <time>2022-06-11T12:59:09.045Z</time>
      </trkpt>
      <trkpt lat="43.01105" lon="17.79058">
        <ele>154.519233</ele>
        <time>2022-06-11T12:59:11.015Z</time>
      </trkpt>
      <trkpt lat="43.01114" lon="17.79061">
        <ele>154.054498</ele>
        <time>2022-06-11T12:59:13.020Z</time>
      </trkpt>
      <trkpt lat="43.01123" lon="17.79063">
        <ele>153.585779</ele>
        <time>2022-06-11T12:59:15.024Z</time>
      </trkpt>
      <trkpt lat="43.01132" lon="17.79067">
        <ele>153.109373</ele>
        <time>2022-06-11T12:59:17.025Z</time>
      </trkpt>
      <trkpt lat="43.01142" lon="17.79067">
        <ele>152.612419</ele>
        <time>2022-06-11T12:59:19.020Z</time>
      </trkpt>
      <trkpt lat="43.01155" lon="17.79065">
        <ele>151.934678</ele>
        <time>2022-06-11T12:59:22.023Z</time>
      </trkpt>
      <trkpt lat="43.01164" lon="17.79061">
        <ele>151.465569</ele>
        <time>2022-06-11T12:59:24.025Z</time>
      </trkpt>
      <trkpt lat="43.01173" lon="17.79056">
        <ele>150.795812</ele>
        <time>2022-06-11T12:59:26.028Z</time>
      </trkpt>
      <trkpt lat="43.01183" lon="17.79052">
        <ele>150.05749</ele>
        <time>2022-06-11T12:59:28.026Z</time>
      </trkpt>
      <trkpt lat="43.01193" lon="17.79048">
        <ele>149.345605</ele>
        <time>2022-06-11T12:59:30.026Z</time>
      </trkpt>
      <trkpt lat="43.01203" lon="17.79044">
        <ele>148.62006</ele>
        <time>2022-06-11T12:59:32.019Z</time>
      </trkpt>
      <trkpt lat="43.01213" lon="17.7904">
        <ele>147.878526</ele>
        <time>2022-06-11T12:59:34.022Z</time>
      </trkpt>
      <trkpt lat="43.01223" lon="17.79035">
        <ele>147.131933</ele>
        <time>2022-06-11T12:59:36.015Z</time>
      </trkpt>
      <trkpt lat="43.01233" lon="17.79029">
        <ele>146.363193</ele>
        <time>2022-06-11T12:59:38.027Z</time>
      </trkpt>
      <trkpt lat="43.01243" lon="17.79024">
        <ele>145.614079</ele>
        <time>2022-06-11T12:59:40.032Z</time>
      </trkpt>
      <trkpt lat="43.01252" lon="17.79019">
        <ele>144.886447</ele>
        <time>2022-06-11T12:59:42.058Z</time>
      </trkpt>
      <trkpt lat="43.01262" lon="17.79013">
        <ele>144.159279</ele>
        <time>2022-06-11T12:59:44.018Z</time>
      </trkpt>
      <trkpt lat="43.01272" lon="17.79006">
        <ele>143.374738</ele>
        <time>2022-06-11T12:59:46.008Z</time>
      </trkpt>
      <trkpt lat="43.01281" lon="17.78997">
        <ele>142.603073</ele>
        <time>2022-06-11T12:59:48.015Z</time>
      </trkpt>
      <trkpt lat="43.01286" lon="17.78986">
        <ele>141.913984</ele>
        <time>2022-06-11T12:59:50.017Z</time>
      </trkpt>
      <trkpt lat="43.01289" lon="17.78973">
        <ele>141.216618</ele>
        <time>2022-06-11T12:59:52.017Z</time>
      </trkpt>
      <trkpt lat="43.01287" lon="17.7896">
        <ele>140.516837</ele>
        <time>2022-06-11T12:59:54.009Z</time>
      </trkpt>
      <trkpt lat="43.01284" lon="17.78946">
        <ele>139.778349</ele>
        <time>2022-06-11T12:59:56.023Z</time>
      </trkpt>
      <trkpt lat="43.01279" lon="17.78931">
        <ele>138.945152</ele>
        <time>2022-06-11T12:59:58.030Z</time>
      </trkpt>
      <trkpt lat="43.01273" lon="17.78916">
        <ele>138.230947</ele>
        <time>2022-06-11T13:00:00.026Z</time>
      </trkpt>
      <trkpt lat="43.01268" lon="17.78899">
        <ele>137.529051</ele>
        <time>2022-06-11T13:00:02.025Z</time>
      </trkpt>
      <trkpt lat="43.01262" lon="17.78885">
        <ele>136.898605</ele>
        <time>2022-06-11T13:00:04.049Z</time>
      </trkpt>
      <trkpt lat="43.01258" lon="17.78873">
        <ele>136.362357</ele>
        <time>2022-06-11T13:00:06.023Z</time>
      </trkpt>
      <trkpt lat="43.01253" lon="17.7886">
        <ele>135.832745</ele>
        <time>2022-06-11T13:00:08.015Z</time>
      </trkpt>
      <trkpt lat="43.01248" lon="17.78848">
        <ele>135.280269</ele>
        <time>2022-06-11T13:00:10.066Z</time>
      </trkpt>
      <trkpt lat="43.01245" lon="17.78835">
        <ele>134.760564</ele>
        <time>2022-06-11T13:00:12.028Z</time>
      </trkpt>
      <trkpt lat="43.01245" lon="17.78822">
        <ele>134.254194</ele>
        <time>2022-06-11T13:00:14.030Z</time>
      </trkpt>
      <trkpt lat="43.01248" lon="17.7881">
        <ele>133.740086</ele>
        <time>2022-06-11T13:00:16.020Z</time>
      </trkpt>
      <trkpt lat="43.01255" lon="17.788">
        <ele>133.204971</ele>
        <time>2022-06-11T13:00:18.025Z</time>
      </trkpt>
      <trkpt lat="43.01264" lon="17.78794">
        <ele>132.688137</ele>
        <time>2022-06-11T13:00:20.017Z</time>
      </trkpt>
      <trkpt lat="43.01276" lon="17.78787">
        <ele>131.996587</ele>
        <time>2022-06-11T13:00:23.018Z</time>
      </trkpt>
      <trkpt lat="43.01289" lon="17.78782">
        <ele>131.299013</ele>
        <time>2022-06-11T13:00:26.028Z</time>
      </trkpt>
      <trkpt lat="43.01299" lon="17.78779">
        <ele>130.759414</ele>
        <time>2022-06-11T13:00:28.011Z</time>
      </trkpt>
      <trkpt lat="43.0131" lon="17.78774">
        <ele>130.139362</ele>
        <time>2022-06-11T13:00:30.024Z</time>
      </trkpt>
      <trkpt lat="43.01321" lon="17.78769">
        <ele>129.509094</ele>
        <time>2022-06-11T13:00:32.042Z</time>
      </trkpt>
      <trkpt lat="43.01333" lon="17.78764">
        <ele>128.743923</ele>
        <time>2022-06-11T13:00:34.027Z</time>
      </trkpt>
      <trkpt lat="43.01343" lon="17.78756">
        <ele>127.876522</ele>
        <time>2022-06-11T13:00:36.018Z</time>
      </trkpt>
      <trkpt lat="43.01352" lon="17.78746">
        <ele>127.010293</ele>
        <time>2022-06-11T13:00:38.047Z</time>
      </trkpt>
      <trkpt lat="43.01358" lon="17.78731">
        <ele>126.121003</ele>
        <time>2022-06-11T13:00:40.034Z</time>
      </trkpt>
      <trkpt lat="43.01362" lon="17.78715">
        <ele>125.208319</ele>
        <time>2022-06-11T13:00:42.024Z</time>
      </trkpt>
      <trkpt lat="43.01363" lon="17.787">
        <ele>124.397732</ele>
        <time>2022-06-11T13:00:44.058Z</time>
      </trkpt>
      <trkpt lat="43.01363" lon="17.78685">
        <ele>123.594085</ele>
        <time>2022-06-11T13:00:46.032Z</time>
      </trkpt>
      <trkpt lat="43.01363" lon="17.78669">
        <ele>122.731796</ele>
        <time>2022-06-11T13:00:48.028Z</time>
      </trkpt>
      <trkpt lat="43.01362" lon="17.78654">
        <ele>121.910529</ele>
        <time>2022-06-11T13:00:50.028Z</time>
      </trkpt>
      <trkpt lat="43.01362" lon="17.78638">
        <ele>121.100438</ele>
        <time>2022-06-11T13:00:52.022Z</time>
      </trkpt>
      <trkpt lat="43.01362" lon="17.78623">
        <ele>120.265199</ele>
        <time>2022-06-11T13:00:54.018Z</time>
      </trkpt>
      <trkpt lat="43.01364" lon="17.78607">
        <ele>119.421189</ele>
        <time>2022-06-11T13:00:56.037Z</time>
      </trkpt>
      <trkpt lat="43.0137" lon="17.78594">
        <ele>118.546791</ele>
        <time>2022-06-11T13:00:58.023Z</time>
      </trkpt>
      <trkpt lat="43.0138" lon="17.78586">
        <ele>117.729868</ele>
        <time>2022-06-11T13:01:00.048Z</time>
      </trkpt>
      <trkpt lat="43.01389" lon="17.78583">
        <ele>117.026544</ele>
        <time>2022-06-11T13:01:02.023Z</time>
      </trkpt>
      <trkpt lat="43.014" lon="17.78583">
        <ele>116.228382</ele>
        <time>2022-06-11T13:01:04.019Z</time>
      </trkpt>
      <trkpt lat="43.0141" lon="17.78585">
        <ele>115.463394</ele>
        <time>2022-06-11T13:01:06.054Z</time>
      </trkpt>
      <trkpt lat="43.01421" lon="17.78587">
        <ele>114.665009</ele>
        <time>2022-06-11T13:01:08.004Z</time>
      </trkpt>
      <trkpt lat="43.01431" lon="17.78587">
        <ele>113.938643</ele>
        <time>2022-06-11T13:01:10.021Z</time>
      </trkpt>
      <trkpt lat="43.0144" lon="17.78586">
        <ele>113.269278</ele>
        <time>2022-06-11T13:01:12.047Z</time>
      </trkpt>
      <trkpt lat="43.01453" lon="17.78583">
        <ele>112.289041</ele>
        <time>2022-06-11T13:01:15.026Z</time>
      </trkpt>
      <trkpt lat="43.01467" lon="17.78579">
        <ele>111.283531</ele>
        <time>2022-06-11T13:01:18.055Z</time>
      </trkpt>
      <trkpt lat="43.01476" lon="17.78576">
        <ele>110.61306</ele>
        <time>2022-06-11T13:01:20.018Z</time>
      </trkpt>
      <trkpt lat="43.01488" lon="17.78569">
        <ele>109.667452</ele>
        <time>2022-06-11T13:01:23.027Z</time>
      </trkpt>
      <trkpt lat="43.01496" lon="17.78563">
        <ele>109.006064</ele>
        <time>2022-06-11T13:01:25.016Z</time>
      </trkpt>
      <trkpt lat="43.01504" lon="17.78557">
        <ele>108.299747</ele>
        <time>2022-06-11T13:01:27.028Z</time>
      </trkpt>
      <trkpt lat="43.01516" lon="17.78549">
        <ele>107.32974</ele>
        <time>2022-06-11T13:01:30.008Z</time>
      </trkpt>
      <trkpt lat="43.01527" lon="17.78539">
        <ele>106.327214</ele>
        <time>2022-06-11T13:01:32.988Z</time>
      </trkpt>
      <trkpt lat="43.01535" lon="17.78529">
        <ele>105.568504</ele>
        <time>2022-06-11T13:01:35.031Z</time>
      </trkpt>
      <trkpt lat="43.01542" lon="17.78519">
        <ele>104.791755</ele>
        <time>2022-06-11T13:01:37.051Z</time>
      </trkpt>
      <trkpt lat="43.01549" lon="17.78506">
        <ele>103.960113</ele>
        <time>2022-06-11T13:01:39.022Z</time>
      </trkpt>
      <trkpt lat="43.01554" lon="17.78493">
        <ele>103.144552</ele>
        <time>2022-06-11T13:01:41.032Z</time>
      </trkpt>
      <trkpt lat="43.01559" lon="17.7848">
        <ele>102.221168</ele>
        <time>2022-06-11T13:01:43.018Z</time>
      </trkpt>
      <trkpt lat="43.01563" lon="17.78467">
        <ele>101.177184</ele>
        <time>2022-06-11T13:01:45.023Z</time>
      </trkpt>
      <trkpt lat="43.01566" lon="17.78455">
        <ele>100.276504</ele>
        <time>2022-06-11T13:01:47.050Z</time>
      </trkpt>
      <trkpt lat="43.01567" lon="17.78442">
        <ele>99.400801</ele>
        <time>2022-06-11T13:01:49.015Z</time>
      </trkpt>
      <trkpt lat="43.01566" lon="17.78429">
        <ele>98.467265</ele>
        <time>2022-06-11T13:01:51.029Z</time>
      </trkpt>
      <trkpt lat="43.01562" lon="17.78417">
        <ele>97.503248</ele>
        <time>2022-06-11T13:01:53.026Z</time>
      </trkpt>
      <trkpt lat="43.01557" lon="17.78404">
        <ele>96.499591</ele>
        <time>2022-06-11T13:01:55.019Z</time>
      </trkpt>
      <trkpt lat="43.01553" lon="17.78393">
        <ele>95.581547</ele>
        <time>2022-06-11T13:01:57.025Z</time>
      </trkpt>
      <trkpt lat="43.0155" lon="17.78381">
        <ele>94.695565</ele>
        <time>2022-06-11T13:01:59.023Z</time>
      </trkpt>
      <trkpt lat="43.0155" lon="17.78368">
        <ele>93.79524</ele>
        <time>2022-06-11T13:02:01.019Z</time>
      </trkpt>
      <trkpt lat="43.01556" lon="17.78352">
        <ele>92.50704</ele>
        <time>2022-06-11T13:02:04.053Z</time>
      </trkpt>
      <trkpt lat="43.01567" lon="17.78344">
        <ele>91.28339</ele>
        <time>2022-06-11T13:02:07.099Z</time>
      </trkpt>
      <trkpt lat="43.01576" lon="17.78342">
        <ele>90.341057</ele>
        <time>2022-06-11T13:02:09.025Z</time>
      </trkpt>
      <trkpt lat="43.01587" lon="17.78339">
        <ele>89.309381</ele>
        <time>2022-06-11T13:02:11.054Z</time>
      </trkpt>
      <trkpt lat="43.01597" lon="17.78335">
        <ele>88.293427</ele>
        <time>2022-06-11T13:02:13.015Z</time>
      </trkpt>
      <trkpt lat="43.01606" lon="17.78332">
        <ele>87.353764</ele>
        <time>2022-06-11T13:02:15.062Z</time>
      </trkpt>
      <trkpt lat="43.01619" lon="17.78327">
        <ele>86.064885</ele>
        <time>2022-06-11T13:02:18.028Z</time>
      </trkpt>
      <trkpt lat="43.01631" lon="17.78323">
        <ele>84.918851</ele>
        <time>2022-06-11T13:02:21.022Z</time>
      </trkpt>
      <trkpt lat="43.01643" lon="17.78318">
        <ele>83.785038</ele>
        <time>2022-06-11T13:02:24.039Z</time>
      </trkpt>
      <trkpt lat="43.01652" lon="17.78314">
        <ele>82.924288</ele>
        <time>2022-06-11T13:02:26.068Z</time>
      </trkpt>
      <trkpt lat="43.01664" lon="17.78311">
        <ele>81.797409</ele>
        <time>2022-06-11T13:02:29.035Z</time>
      </trkpt>
      <trkpt lat="43.01676" lon="17.78307">
        <ele>80.696798</ele>
        <time>2022-06-11T13:02:32.023Z</time>
      </trkpt>
      <trkpt lat="43.01688" lon="17.78304">
        <ele>79.622423</ele>
        <time>2022-06-11T13:02:35.025Z</time>
      </trkpt>
      <trkpt lat="43.01701" lon="17.783">
        <ele>78.430095</ele>
        <time>2022-06-11T13:02:38.052Z</time>
      </trkpt>
      <trkpt lat="43.01713" lon="17.78295">
        <ele>77.261482</ele>
        <time>2022-06-11T13:02:41.020Z</time>
      </trkpt>
      <trkpt lat="43.01725" lon="17.78288">
        <ele>76.105189</ele>
        <time>2022-06-11T13:02:44.049Z</time>
      </trkpt>
      <trkpt lat="43.01734" lon="17.78283">
        <ele>75.234921</ele>
        <time>2022-06-11T13:02:46.022Z</time>
      </trkpt>
      <trkpt lat="43.01743" lon="17.78278">
        <ele>74.384399</ele>
        <time>2022-06-11T13:02:48.020Z</time>
      </trkpt>
      <trkpt lat="43.01755" lon="17.7827">
        <ele>73.202202</ele>
        <time>2022-06-11T13:02:51.024Z</time>
      </trkpt>
      <trkpt lat="43.01765" lon="17.78262">
        <ele>72.183604</ele>
        <time>2022-06-11T13:02:54.010Z</time>
      </trkpt>
      <trkpt lat="43.01772" lon="17.78253">
        <ele>71.292441</ele>
        <time>2022-06-11T13:02:58.016Z</time>
      </trkpt>
      <trkpt lat="43.01775" lon="17.78239">
        <ele>70.366561</ele>
        <time>2022-06-11T13:03:03.027Z</time>
      </trkpt>
      <trkpt lat="43.01773" lon="17.78227">
        <ele>69.545597</ele>
        <time>2022-06-11T13:03:06.058Z</time>
      </trkpt>
      <trkpt lat="43.01769" lon="17.78213">
        <ele>68.747009</ele>
        <time>2022-06-11T13:03:09.032Z</time>
      </trkpt>
      <trkpt lat="43.01763" lon="17.78196">
        <ele>67.908784</ele>
        <time>2022-06-11T13:03:12.060Z</time>
      </trkpt>
      <trkpt lat="43.01758" lon="17.78185">
        <ele>67.287545</ele>
        <time>2022-06-11T13:03:14.052Z</time>
      </trkpt>
      <trkpt lat="43.01752" lon="17.78174">
        <ele>66.697249</ele>
        <time>2022-06-11T13:03:16.020Z</time>
      </trkpt>
      <trkpt lat="43.01746" lon="17.78165">
        <ele>66.131766</ele>
        <time>2022-06-11T13:03:18.017Z</time>
      </trkpt>
      <trkpt lat="43.01739" lon="17.78154">
        <ele>65.489667</ele>
        <time>2022-06-11T13:03:20.043Z</time>
      </trkpt>
      <trkpt lat="43.01732" lon="17.78142">
        <ele>64.769753</ele>
        <time>2022-06-11T13:03:22.036Z</time>
      </trkpt>
      <trkpt lat="43.01723" lon="17.78129">
        <ele>64.008376</ele>
        <time>2022-06-11T13:03:24.028Z</time>
      </trkpt>
      <trkpt lat="43.01714" lon="17.78117">
        <ele>63.228804</ele>
        <time>2022-06-11T13:03:26.035Z</time>
      </trkpt>
      <trkpt lat="43.01705" lon="17.78105">
        <ele>62.450505</ele>
        <time>2022-06-11T13:03:28.017Z</time>
      </trkpt>
      <trkpt lat="43.01696" lon="17.78093">
        <ele>61.691694</ele>
        <time>2022-06-11T13:03:30.027Z</time>
      </trkpt>
      <trkpt lat="43.01688" lon="17.78081">
        <ele>60.904961</ele>
        <time>2022-06-11T13:03:32.024Z</time>
      </trkpt>
      <trkpt lat="43.01678" lon="17.78069">
        <ele>60.125387</ele>
        <time>2022-06-11T13:03:34.027Z</time>
      </trkpt>
      <trkpt lat="43.01668" lon="17.78058">
        <ele>59.333963</ele>
        <time>2022-06-11T13:03:36.016Z</time>
      </trkpt>
      <trkpt lat="43.01659" lon="17.78046">
        <ele>58.527206</ele>
        <time>2022-06-11T13:03:38.047Z</time>
      </trkpt>
      <trkpt lat="43.0165" lon="17.78033">
        <ele>58.100241</ele>
        <time>2022-06-11T13:03:40.056Z</time>
      </trkpt>
      <trkpt lat="43.0164" lon="17.78021">
        <ele>58.088439</ele>
        <time>2022-06-11T13:03:42.032Z</time>
      </trkpt>
      <trkpt lat="43.0163" lon="17.78008">
        <ele>58.076189</ele>
        <time>2022-06-11T13:03:44.026Z</time>
      </trkpt>
      <trkpt lat="43.0162" lon="17.77995">
        <ele>58.063847</ele>
        <time>2022-06-11T13:03:46.031Z</time>
      </trkpt>
      <trkpt lat="43.0161" lon="17.77982">
        <ele>58.051239</ele>
        <time>2022-06-11T13:03:48.017Z</time>
      </trkpt>
      <trkpt lat="43.01601" lon="17.77969">
        <ele>58.038932</ele>
        <time>2022-06-11T13:03:50.016Z</time>
      </trkpt>
      <trkpt lat="43.01592" lon="17.77955">
        <ele>58.027108</ele>
        <time>2022-06-11T13:03:52.033Z</time>
      </trkpt>
      <trkpt lat="43.01583" lon="17.77944">
        <ele>58.01588</ele>
        <time>2022-06-11T13:03:54.008Z</time>
      </trkpt>
      <trkpt lat="43.01575" lon="17.77933">
        <ele>58.006307</ele>
        <time>2022-06-11T13:03:56.024Z</time>
      </trkpt>
      <trkpt lat="43.01568" lon="17.77924">
        <ele>57.997362</ele>
        <time>2022-06-11T13:03:58.023Z</time>
      </trkpt>
      <trkpt lat="43.01561" lon="17.77914">
        <ele>57.987688</ele>
        <time>2022-06-11T13:04:00.016Z</time>
      </trkpt>
      <trkpt lat="43.01552" lon="17.77902">
        <ele>57.97711</ele>
        <time>2022-06-11T13:04:02.046Z</time>
      </trkpt>
      <trkpt lat="43.01544" lon="17.77891">
        <ele>57.966595</ele>
        <time>2022-06-11T13:04:04.009Z</time>
      </trkpt>
      <trkpt lat="43.01535" lon="17.7788">
        <ele>57.956055</ele>
        <time>2022-06-11T13:04:06.024Z</time>
      </trkpt>
      <trkpt lat="43.01528" lon="17.77869">
        <ele>57.945993</ele>
        <time>2022-06-11T13:04:08.016Z</time>
      </trkpt>
      <trkpt lat="43.0152" lon="17.77857">
        <ele>58.020686</ele>
        <time>2022-06-11T13:04:10.035Z</time>
      </trkpt>
      <trkpt lat="43.01514" lon="17.77843">
        <ele>58.124494</ele>
        <time>2022-06-11T13:04:12.016Z</time>
      </trkpt>
      <trkpt lat="43.01508" lon="17.77828">
        <ele>58.229709</ele>
        <time>2022-06-11T13:04:14.023Z</time>
      </trkpt>
      <trkpt lat="43.01504" lon="17.77814">
        <ele>58.328295</ele>
        <time>2022-06-11T13:04:16.023Z</time>
      </trkpt>
      <trkpt lat="43.015" lon="17.778">
        <ele>58.421612</ele>
        <time>2022-06-11T13:04:18.025Z</time>
      </trkpt>
      <trkpt lat="43.01499" lon="17.77786">
        <ele>58.512884</ele>
        <time>2022-06-11T13:04:20.034Z</time>
      </trkpt>
      <trkpt lat="43.015" lon="17.77773">
        <ele>58.59443</ele>
        <time>2022-06-11T13:04:22.027Z</time>
      </trkpt>
      <trkpt lat="43.01501" lon="17.77761">
        <ele>58.675202</ele>
        <time>2022-06-11T13:04:24.054Z</time>
      </trkpt>
      <trkpt lat="43.01505" lon="17.77745">
        <ele>58.782537</ele>
        <time>2022-06-11T13:04:27.031Z</time>
      </trkpt>
      <trkpt lat="43.0151" lon="17.77729">
        <ele>58.886958</ele>
        <time>2022-06-11T13:04:30.019Z</time>
      </trkpt>
      <trkpt lat="43.01515" lon="17.77714">
        <ele>58.997091</ele>
        <time>2022-06-11T13:04:33.028Z</time>
      </trkpt>
      <trkpt lat="43.01524" lon="17.77701">
        <ele>59.105119</ele>
        <time>2022-06-11T13:04:36.027Z</time>
      </trkpt>
      <trkpt lat="43.01534" lon="17.77692">
        <ele>59.210512</ele>
        <time>2022-06-11T13:04:39.015Z</time>
      </trkpt>
      <trkpt lat="43.01544" lon="17.77684">
        <ele>59.313259</ele>
        <time>2022-06-11T13:04:42.052Z</time>
      </trkpt>
      <trkpt lat="43.01556" lon="17.77678">
        <ele>59.418882</ele>
        <time>2022-06-11T13:04:45.032Z</time>
      </trkpt>
      <trkpt lat="43.01567" lon="17.77674">
        <ele>59.527727</ele>
        <time>2022-06-11T13:04:48.034Z</time>
      </trkpt>
      <trkpt lat="43.01578" lon="17.77668">
        <ele>59.706984</ele>
        <time>2022-06-11T13:04:51.043Z</time>
      </trkpt>
      <trkpt lat="43.01589" lon="17.77663">
        <ele>59.882008</ele>
        <time>2022-06-11T13:04:54.016Z</time>
      </trkpt>
      <trkpt lat="43.016" lon="17.77658">
        <ele>60.05472</ele>
        <time>2022-06-11T13:04:57.046Z</time>
      </trkpt>
      <trkpt lat="43.01609" lon="17.77653">
        <ele>60.197488</ele>
        <time>2022-06-11T13:05:00.015Z</time>
      </trkpt>
      <trkpt lat="43.01618" lon="17.77648">
        <ele>60.344647</ele>
        <time>2022-06-11T13:05:03.026Z</time>
      </trkpt>
      <trkpt lat="43.01626" lon="17.77642">
        <ele>60.488532</ele>
        <time>2022-06-11T13:05:06.026Z</time>
      </trkpt>
      <trkpt lat="43.01634" lon="17.77636">
        <ele>60.627286</ele>
        <time>2022-06-11T13:05:09.025Z</time>
      </trkpt>
      <trkpt lat="43.01644" lon="17.77628">
        <ele>60.804664</ele>
        <time>2022-06-11T13:05:13.009Z</time>
      </trkpt>
      <trkpt lat="43.01652" lon="17.77622">
        <ele>60.94004</ele>
        <time>2022-06-11T13:05:16.021Z</time>
      </trkpt>
      <trkpt lat="43.0166" lon="17.77615">
        <ele>61.078253</ele>
        <time>2022-06-11T13:05:19.010Z</time>
      </trkpt>
      <trkpt lat="43.01667" lon="17.77608">
        <ele>61.213951</ele>
        <time>2022-06-11T13:05:22.023Z</time>
      </trkpt>
      <trkpt lat="43.01677" lon="17.77598">
        <ele>61.39265</ele>
        <time>2022-06-11T13:05:26.062Z</time>
      </trkpt>
      <trkpt lat="43.01683" lon="17.77589">
        <ele>61.530529</ele>
        <time>2022-06-11T13:05:29.024Z</time>
      </trkpt>
      <trkpt lat="43.0169" lon="17.77579">
        <ele>61.680842</ele>
        <time>2022-06-11T13:05:32.012Z</time>
      </trkpt>
      <trkpt lat="43.01698" lon="17.7757">
        <ele>61.832752</ele>
        <time>2022-06-11T13:05:35.020Z</time>
      </trkpt>
      <trkpt lat="43.01706" lon="17.7756">
        <ele>61.989478</ele>
        <time>2022-06-11T13:05:38.020Z</time>
      </trkpt>
      <trkpt lat="43.01713" lon="17.7755">
        <ele>62.151865</ele>
        <time>2022-06-11T13:05:41.025Z</time>
      </trkpt>
      <trkpt lat="43.01721" lon="17.7754">
        <ele>62.39852</ele>
        <time>2022-06-11T13:05:44.025Z</time>
      </trkpt>
      <trkpt lat="43.01728" lon="17.7753">
        <ele>62.669924</ele>
        <time>2022-06-11T13:05:47.030Z</time>
      </trkpt>
      <trkpt lat="43.01732" lon="17.77517">
        <ele>62.955487</ele>
        <time>2022-06-11T13:05:50.032Z</time>
      </trkpt>
      <trkpt lat="43.01736" lon="17.77503">
        <ele>63.24837</ele>
        <time>2022-06-11T13:05:53.027Z</time>
      </trkpt>
      <trkpt lat="43.0174" lon="17.77488">
        <ele>63.560974</ele>
        <time>2022-06-11T13:05:56.007Z</time>
      </trkpt>
      <trkpt lat="43.01744" lon="17.77472">
        <ele>63.891963</ele>
        <time>2022-06-11T13:05:59.055Z</time>
      </trkpt>
      <trkpt lat="43.01748" lon="17.77455">
        <ele>64.257085</ele>
        <time>2022-06-11T13:06:02.039Z</time>
      </trkpt>
      <trkpt lat="43.01751" lon="17.77441">
        <ele>64.5359</ele>
        <time>2022-06-11T13:06:04.035Z</time>
      </trkpt>
      <trkpt lat="43.01755" lon="17.7743">
        <ele>64.78159</ele>
        <time>2022-06-11T13:06:06.013Z</time>
      </trkpt>
      <trkpt lat="43.01761" lon="17.77415">
        <ele>65.120744</ele>
        <time>2022-06-11T13:06:09.018Z</time>
      </trkpt>
      <trkpt lat="43.01768" lon="17.77401">
        <ele>65.459014</ele>
        <time>2022-06-11T13:06:12.025Z</time>
      </trkpt>
      <trkpt lat="43.01777" lon="17.77389">
        <ele>65.79547</ele>
        <time>2022-06-11T13:06:15.025Z</time>
      </trkpt>
      <trkpt lat="43.01787" lon="17.7738">
        <ele>66.124961</ele>
        <time>2022-06-11T13:06:18.027Z</time>
      </trkpt>
      <trkpt lat="43.01796" lon="17.7737">
        <ele>66.444407</ele>
        <time>2022-06-11T13:06:21.026Z</time>
      </trkpt>
      <trkpt lat="43.01806" lon="17.77362">
        <ele>66.754314</ele>
        <time>2022-06-11T13:06:24.023Z</time>
      </trkpt>
      <trkpt lat="43.01816" lon="17.77354">
        <ele>67.070669</ele>
        <time>2022-06-11T13:06:27.016Z</time>
      </trkpt>
      <trkpt lat="43.01825" lon="17.77344">
        <ele>67.008345</ele>
        <time>2022-06-11T13:06:30.046Z</time>
      </trkpt>
      <trkpt lat="43.01834" lon="17.77335">
        <ele>66.923461</ele>
        <time>2022-06-11T13:06:33.063Z</time>
      </trkpt>
      <trkpt lat="43.01843" lon="17.77325">
        <ele>66.834339</ele>
        <time>2022-06-11T13:06:36.045Z</time>
      </trkpt>
      <trkpt lat="43.01852" lon="17.77314">
        <ele>66.74253</ele>
        <time>2022-06-11T13:06:39.048Z</time>
      </trkpt>
      <trkpt lat="43.0186" lon="17.77302">
        <ele>66.65267</ele>
        <time>2022-06-11T13:06:42.015Z</time>
      </trkpt>
      <trkpt lat="43.01867" lon="17.7729">
        <ele>66.569158</ele>
        <time>2022-06-11T13:06:45.024Z</time>
      </trkpt>
      <trkpt lat="43.01874" lon="17.77277">
        <ele>66.483874</ele>
        <time>2022-06-11T13:06:48.032Z</time>
      </trkpt>
      <trkpt lat="43.0188" lon="17.77267">
        <ele>66.409682</ele>
        <time>2022-06-11T13:06:51.025Z</time>
      </trkpt>
      <trkpt lat="43.01885" lon="17.77256">
        <ele>66.339349</ele>
        <time>2022-06-11T13:06:54.022Z</time>
      </trkpt>
      <trkpt lat="43.01891" lon="17.77242">
        <ele>66.251231</ele>
        <time>2022-06-11T13:06:58.025Z</time>
      </trkpt>
      <trkpt lat="43.01897" lon="17.77231">
        <ele>66.176902</ele>
        <time>2022-06-11T13:07:02.016Z</time>
      </trkpt>
      <trkpt lat="43.019" lon="17.77218">
        <ele>66.100387</ele>
        <time>2022-06-11T13:07:06.023Z</time>
      </trkpt>
      <trkpt lat="43.01903" lon="17.77204">
        <ele>66.019979</ele>
        <time>2022-06-11T13:07:10.022Z</time>
      </trkpt>
      <trkpt lat="43.01904" lon="17.77191">
        <ele>65.950941</ele>
        <time>2022-06-11T13:07:13.013Z</time>
      </trkpt>
      <trkpt lat="43.01906" lon="17.77179">
        <ele>65.880001</ele>
        <time>2022-06-11T13:07:16.032Z</time>
      </trkpt>
      <trkpt lat="43.01907" lon="17.77164">
        <ele>65.79651</ele>
        <time>2022-06-11T13:07:20.028Z</time>
      </trkpt>
      <trkpt lat="43.01906" lon="17.77149">
        <ele>65.712573</ele>
        <time>2022-06-11T13:07:24.067Z</time>
      </trkpt>
      <trkpt lat="43.01904" lon="17.77135">
        <ele>65.612745</ele>
        <time>2022-06-11T13:07:28.049Z</time>
      </trkpt>
      <trkpt lat="43.01899" lon="17.77121">
        <ele>65.508861</ele>
        <time>2022-06-11T13:07:32.019Z</time>
      </trkpt>
      <trkpt lat="43.01893" lon="17.77111">
        <ele>65.421742</ele>
        <time>2022-06-11T13:07:35.031Z</time>
      </trkpt>
      <trkpt lat="43.01888" lon="17.77101">
        <ele>65.337887</ele>
        <time>2022-06-11T13:07:38.034Z</time>
      </trkpt>
      <trkpt lat="43.01884" lon="17.77089">
        <ele>65.249927</ele>
        <time>2022-06-11T13:07:41.020Z</time>
      </trkpt>
      <trkpt lat="43.01879" lon="17.77077">
        <ele>65.157469</ele>
        <time>2022-06-11T13:07:44.020Z</time>
      </trkpt>
      <trkpt lat="43.01872" lon="17.77064">
        <ele>65.048538</ele>
        <time>2022-06-11T13:07:47.069Z</time>
      </trkpt>
      <trkpt lat="43.01867" lon="17.77053">
        <ele>64.962806</ele>
        <time>2022-06-11T13:07:49.014Z</time>
      </trkpt>
      <trkpt lat="43.01863" lon="17.77037">
        <ele>64.847309</ele>
        <time>2022-06-11T13:07:52.023Z</time>
      </trkpt>
      <trkpt lat="43.01864" lon="17.77021">
        <ele>64.739353</ele>
        <time>2022-06-11T13:07:55.026Z</time>
      </trkpt>
      <trkpt lat="43.01866" lon="17.77005">
        <ele>64.629696</ele>
        <time>2022-06-11T13:07:58.048Z</time>
      </trkpt>
      <trkpt lat="43.01871" lon="17.76992">
        <ele>64.532224</ele>
        <time>2022-06-11T13:08:01.024Z</time>
      </trkpt>
      <trkpt lat="43.01877" lon="17.76981">
        <ele>64.438222</ele>
        <time>2022-06-11T13:08:04.061Z</time>
      </trkpt>
      <trkpt lat="43.01884" lon="17.76969">
        <ele>64.339123</ele>
        <time>2022-06-11T13:08:07.024Z</time>
      </trkpt>
      <trkpt lat="43.01891" lon="17.76958">
        <ele>64.235377</ele>
        <time>2022-06-11T13:08:10.027Z</time>
      </trkpt>
      <trkpt lat="43.01899" lon="17.76946">
        <ele>64.126668</ele>
        <time>2022-06-11T13:08:13.020Z</time>
      </trkpt>
      <trkpt lat="43.01906" lon="17.76934">
        <ele>64.251647</ele>
        <time>2022-06-11T13:08:16.044Z</time>
      </trkpt>
      <trkpt lat="43.01914" lon="17.76922">
        <ele>64.60666</ele>
        <time>2022-06-11T13:08:19.017Z</time>
      </trkpt>
      <trkpt lat="43.01921" lon="17.7691">
        <ele>64.956521</ele>
        <time>2022-06-11T13:08:22.026Z</time>
      </trkpt>
      <trkpt lat="43.01928" lon="17.769">
        <ele>65.269854</ele>
        <time>2022-06-11T13:08:25.045Z</time>
      </trkpt>
      <trkpt lat="43.01935" lon="17.7689">
        <ele>65.567446</ele>
        <time>2022-06-11T13:08:28.017Z</time>
      </trkpt>
      <trkpt lat="43.01941" lon="17.76882">
        <ele>65.846489</ele>
        <time>2022-06-11T13:08:31.024Z</time>
      </trkpt>
      <trkpt lat="43.0195" lon="17.76871">
        <ele>66.202071</ele>
        <time>2022-06-11T13:08:35.020Z</time>
      </trkpt>
      <trkpt lat="43.01957" lon="17.7686">
        <ele>66.547199</ele>
        <time>2022-06-11T13:08:39.025Z</time>
      </trkpt>
      <trkpt lat="43.01964" lon="17.76851">
        <ele>66.849153</ele>
        <time>2022-06-11T13:08:43.014Z</time>
      </trkpt>
      <trkpt lat="43.01971" lon="17.76841">
        <ele>67.140803</ele>
        <time>2022-06-11T13:08:48.057Z</time>
      </trkpt>
      <trkpt lat="43.01975" lon="17.7683">
        <ele>67.4214</ele>
        <time>2022-06-11T13:08:52.050Z</time>
      </trkpt>
      <trkpt lat="43.01981" lon="17.76818">
        <ele>67.74513</ele>
        <time>2022-06-11T13:08:56.021Z</time>
      </trkpt>
      <trkpt lat="43.01988" lon="17.76807">
        <ele>68.064932</ele>
        <time>2022-06-11T13:09:00.026Z</time>
      </trkpt>
      <trkpt lat="43.01993" lon="17.76796">
        <ele>68.370141</ele>
        <time>2022-06-11T13:09:04.018Z</time>
      </trkpt>
      <trkpt lat="43.02" lon="17.76786">
        <ele>68.670446</ele>
        <time>2022-06-11T13:09:08.018Z</time>
      </trkpt>
      <trkpt lat="43.02008" lon="17.76776">
        <ele>68.992843</ele>
        <time>2022-06-11T13:09:13.022Z</time>
      </trkpt>
      <trkpt lat="43.02014" lon="17.76767">
        <ele>69.275075</ele>
        <time>2022-06-11T13:09:17.017Z</time>
      </trkpt>
      <trkpt lat="43.0202" lon="17.76757">
        <ele>69.577562</ele>
        <time>2022-06-11T13:09:21.058Z</time>
      </trkpt>
      <trkpt lat="43.02025" lon="17.76744">
        <ele>69.537268</ele>
        <time>2022-06-11T13:09:25.027Z</time>
      </trkpt>
      <trkpt lat="43.02031" lon="17.7673">
        <ele>69.45057</ele>
        <time>2022-06-11T13:09:29.031Z</time>
      </trkpt>
      <trkpt lat="43.02035" lon="17.76715">
        <ele>69.363229</ele>
        <time>2022-06-11T13:09:33.032Z</time>
      </trkpt>
      <trkpt lat="43.02038" lon="17.767">
        <ele>69.272002</ele>
        <time>2022-06-11T13:09:37.021Z</time>
      </trkpt>
      <trkpt lat="43.0204" lon="17.76687">
        <ele>69.202009</ele>
        <time>2022-06-11T13:09:40.026Z</time>
      </trkpt>
      <trkpt lat="43.02042" lon="17.76673">
        <ele>69.118914</ele>
        <time>2022-06-11T13:09:43.023Z</time>
      </trkpt>
      <trkpt lat="43.02044" lon="17.76656">
        <ele>69.021532</ele>
        <time>2022-06-11T13:09:46.025Z</time>
      </trkpt>
      <trkpt lat="43.02046" lon="17.7664">
        <ele>68.932652</ele>
        <time>2022-06-11T13:09:49.060Z</time>
      </trkpt>
      <trkpt lat="43.02049" lon="17.76625">
        <ele>68.849241</ele>
        <time>2022-06-11T13:09:52.019Z</time>
      </trkpt>
      <trkpt lat="43.02052" lon="17.76611">
        <ele>68.766369</ele>
        <time>2022-06-11T13:09:55.050Z</time>
      </trkpt>
      <trkpt lat="43.02055" lon="17.76596">
        <ele>68.680394</ele>
        <time>2022-06-11T13:09:58.029Z</time>
      </trkpt>
      <trkpt lat="43.02058" lon="17.76582">
        <ele>68.593575</ele>
        <time>2022-06-11T13:10:01.015Z</time>
      </trkpt>
      <trkpt lat="43.02063" lon="17.76567">
        <ele>68.50244</ele>
        <time>2022-06-11T13:10:04.013Z</time>
      </trkpt>
      <trkpt lat="43.0207" lon="17.76554">
        <ele>68.413596</ele>
        <time>2022-06-11T13:10:07.038Z</time>
      </trkpt>
      <trkpt lat="43.02076" lon="17.76542">
        <ele>68.331434</ele>
        <time>2022-06-11T13:10:10.010Z</time>
      </trkpt>
      <trkpt lat="43.02083" lon="17.7653">
        <ele>68.245298</ele>
        <time>2022-06-11T13:10:13.018Z</time>
      </trkpt>
      <trkpt lat="43.0209" lon="17.76518">
        <ele>68.006544</ele>
        <time>2022-06-11T13:10:16.023Z</time>
      </trkpt>
      <trkpt lat="43.02097" lon="17.76506">
        <ele>67.755722</ele>
        <time>2022-06-11T13:10:19.025Z</time>
      </trkpt>
      <trkpt lat="43.02104" lon="17.76494">
        <ele>67.491688</ele>
        <time>2022-06-11T13:10:22.019Z</time>
      </trkpt>
      <trkpt lat="43.02111" lon="17.76478">
        <ele>67.186916</ele>
        <time>2022-06-11T13:10:25.016Z</time>
      </trkpt>
      <trkpt lat="43.02114" lon="17.76466">
        <ele>66.973731</ele>
        <time>2022-06-11T13:10:27.023Z</time>
      </trkpt>
      <trkpt lat="43.02118" lon="17.76454">
        <ele>66.753499</ele>
        <time>2022-06-11T13:10:29.015Z</time>
      </trkpt>
      <trkpt lat="43.02121" lon="17.76436">
        <ele>66.448233</ele>
        <time>2022-06-11T13:10:32.025Z</time>
      </trkpt>
      <trkpt lat="43.02124" lon="17.76418">
        <ele>66.142798</ele>
        <time>2022-06-11T13:10:35.015Z</time>
      </trkpt>
      <trkpt lat="43.02126" lon="17.76401">
        <ele>65.851539</ele>
        <time>2022-06-11T13:10:38.041Z</time>
      </trkpt>
      <trkpt lat="43.02127" lon="17.76384">
        <ele>65.561974</ele>
        <time>2022-06-11T13:10:41.019Z</time>
      </trkpt>
      <trkpt lat="43.02127" lon="17.76367">
        <ele>65.28157</ele>
        <time>2022-06-11T13:10:44.022Z</time>
      </trkpt>
      <trkpt lat="43.02128" lon="17.7635">
        <ele>65.004502</ele>
        <time>2022-06-11T13:10:47.031Z</time>
      </trkpt>
      <trkpt lat="43.02129" lon="17.76334">
        <ele>64.738218</ele>
        <time>2022-06-11T13:10:50.028Z</time>
      </trkpt>
      <trkpt lat="43.02133" lon="17.76319">
        <ele>64.469449</ele>
        <time>2022-06-11T13:10:53.024Z</time>
      </trkpt>
      <trkpt lat="43.02139" lon="17.76304">
        <ele>64.180185</ele>
        <time>2022-06-11T13:10:56.037Z</time>
      </trkpt>
      <trkpt lat="43.02147" lon="17.7629">
        <ele>64.032651</ele>
        <time>2022-06-11T13:10:59.031Z</time>
      </trkpt>
      <trkpt lat="43.02154" lon="17.76279">
        <ele>63.922773</ele>
        <time>2022-06-11T13:11:02.006Z</time>
      </trkpt>
      <trkpt lat="43.02163" lon="17.76268">
        <ele>63.811957</ele>
        <time>2022-06-11T13:11:05.018Z</time>
      </trkpt>
      <trkpt lat="43.02171" lon="17.76257">
        <ele>63.705449</ele>
        <time>2022-06-11T13:11:08.024Z</time>
      </trkpt>
      <trkpt lat="43.02179" lon="17.76248">
        <ele>63.607688</ele>
        <time>2022-06-11T13:11:11.035Z</time>
      </trkpt>
      <trkpt lat="43.02187" lon="17.76239">
        <ele>63.506978</ele>
        <time>2022-06-11T13:11:14.016Z</time>
      </trkpt>
      <trkpt lat="43.02197" lon="17.7623">
        <ele>63.398465</ele>
        <time>2022-06-11T13:11:17.021Z</time>
      </trkpt>
      <trkpt lat="43.02207" lon="17.7622">
        <ele>63.280733</ele>
        <time>2022-06-11T13:11:20.028Z</time>
      </trkpt>
      <trkpt lat="43.02213" lon="17.76211">
        <ele>63.192762</ele>
        <time>2022-06-11T13:11:22.029Z</time>
      </trkpt>
      <trkpt lat="43.02219" lon="17.76201">
        <ele>63.105266</ele>
        <time>2022-06-11T13:11:24.058Z</time>
      </trkpt>
      <trkpt lat="43.02224" lon="17.76189">
        <ele>63.009572</ele>
        <time>2022-06-11T13:11:26.028Z</time>
      </trkpt>
      <trkpt lat="43.02227" lon="17.76174">
        <ele>62.904585</ele>
        <time>2022-06-11T13:11:28.028Z</time>
      </trkpt>
      <trkpt lat="43.02227" lon="17.76158">
        <ele>62.793455</ele>
        <time>2022-06-11T13:11:30.024Z</time>
      </trkpt>
      <trkpt lat="43.02228" lon="17.76144">
        <ele>62.695316</ele>
        <time>2022-06-11T13:11:32.038Z</time>
      </trkpt>
      <trkpt lat="43.02229" lon="17.76131">
        <ele>62.604265</ele>
        <time>2022-06-11T13:11:34.065Z</time>
      </trkpt>
      <trkpt lat="43.0223" lon="17.76119">
        <ele>62.515519</ele>
        <time>2022-06-11T13:11:36.015Z</time>
      </trkpt>
      <trkpt lat="43.02231" lon="17.76106">
        <ele>62.42757</ele>
        <time>2022-06-11T13:11:38.048Z</time>
      </trkpt>
      <trkpt lat="43.02232" lon="17.76093">
        <ele>62.194297</ele>
        <time>2022-06-11T13:11:40.030Z</time>
      </trkpt>
      <trkpt lat="43.02233" lon="17.76078">
        <ele>61.923641</ele>
        <time>2022-06-11T13:11:42.016Z</time>
      </trkpt>
      <trkpt lat="43.02233" lon="17.76064">
        <ele>61.660228</ele>
        <time>2022-06-11T13:11:44.024Z</time>
      </trkpt>
      <trkpt lat="43.02234" lon="17.76049">
        <ele>61.399905</ele>
        <time>2022-06-11T13:11:46.055Z</time>
      </trkpt>
      <trkpt lat="43.02235" lon="17.76035">
        <ele>61.144243</ele>
        <time>2022-06-11T13:11:48.034Z</time>
      </trkpt>
      <trkpt lat="43.02237" lon="17.76022">
        <ele>60.893112</ele>
        <time>2022-06-11T13:11:50.025Z</time>
      </trkpt>
      <trkpt lat="43.0224" lon="17.76009">
        <ele>60.649925</ele>
        <time>2022-06-11T13:11:52.056Z</time>
      </trkpt>
      <trkpt lat="43.02244" lon="17.75991">
        <ele>60.318511</ele>
        <time>2022-06-11T13:11:55.050Z</time>
      </trkpt>
      <trkpt lat="43.02248" lon="17.75976">
        <ele>60.016127</ele>
        <time>2022-06-11T13:11:58.026Z</time>
      </trkpt>
      <trkpt lat="43.02253" lon="17.75961">
        <ele>59.729083</ele>
        <time>2022-06-11T13:12:01.013Z</time>
      </trkpt>
      <trkpt lat="43.02258" lon="17.75947">
        <ele>59.442134</ele>
        <time>2022-06-11T13:12:04.015Z</time>
      </trkpt>
      <trkpt lat="43.02264" lon="17.75932">
        <ele>59.133982</ele>
        <time>2022-06-11T13:12:07.039Z</time>
      </trkpt>
      <trkpt lat="43.02271" lon="17.75918">
        <ele>58.811673</ele>
        <time>2022-06-11T13:12:10.030Z</time>
      </trkpt>
      <trkpt lat="43.02279" lon="17.75903">
        <ele>58.49102</ele>
        <time>2022-06-11T13:12:13.034Z</time>
      </trkpt>
      <trkpt lat="43.02287" lon="17.75889">
        <ele>58.167204</ele>
        <time>2022-06-11T13:12:16.027Z</time>
      </trkpt>
      <trkpt lat="43.02296" lon="17.75877">
        <ele>57.932282</ele>
        <time>2022-06-11T13:12:19.029Z</time>
      </trkpt>
      <trkpt lat="43.02304" lon="17.75865">
        <ele>57.844071</ele>
        <time>2022-06-11T13:12:22.017Z</time>
      </trkpt>
      <trkpt lat="43.02314" lon="17.75854">
        <ele>57.752278</ele>
        <time>2022-06-11T13:12:25.058Z</time>
      </trkpt>
      <trkpt lat="43.02323" lon="17.75844">
        <ele>57.667146</ele>
        <time>2022-06-11T13:12:28.007Z</time>
      </trkpt>
      <trkpt lat="43.02332" lon="17.75834">
        <ele>57.584159</ele>
        <time>2022-06-11T13:12:31.015Z</time>
      </trkpt>
      <trkpt lat="43.02341" lon="17.75825">
        <ele>57.495275</ele>
        <time>2022-06-11T13:12:34.027Z</time>
      </trkpt>
      <trkpt lat="43.02351" lon="17.75813">
        <ele>57.398971</ele>
        <time>2022-06-11T13:12:37.023Z</time>
      </trkpt>
      <trkpt lat="43.02361" lon="17.75801">
        <ele>57.303315</ele>
        <time>2022-06-11T13:12:40.021Z</time>
      </trkpt>
      <trkpt lat="43.02371" lon="17.7579">
        <ele>57.207314</ele>
        <time>2022-06-11T13:12:43.014Z</time>
      </trkpt>
      <trkpt lat="43.02378" lon="17.75782">
        <ele>57.141304</ele>
        <time>2022-06-11T13:12:45.024Z</time>
      </trkpt>
      <trkpt lat="43.02389" lon="17.75771">
        <ele>57.046023</ele>
        <time>2022-06-11T13:12:48.022Z</time>
      </trkpt>
      <trkpt lat="43.02398" lon="17.75761">
        <ele>56.957347</ele>
        <time>2022-06-11T13:12:51.032Z</time>
      </trkpt>
      <trkpt lat="43.02407" lon="17.75751">
        <ele>56.871971</ele>
        <time>2022-06-11T13:12:54.039Z</time>
      </trkpt>
      <trkpt lat="43.02417" lon="17.7574">
        <ele>56.781185</ele>
        <time>2022-06-11T13:12:57.015Z</time>
      </trkpt>
      <trkpt lat="43.02426" lon="17.7573">
        <ele>56.69424</ele>
        <time>2022-06-11T13:13:00.059Z</time>
      </trkpt>
      <trkpt lat="43.02435" lon="17.7572">
        <ele>56.73644</ele>
        <time>2022-06-11T13:13:03.025Z</time>
      </trkpt>
      <trkpt lat="43.02444" lon="17.7571">
        <ele>56.930142</ele>
        <time>2022-06-11T13:13:06.021Z</time>
      </trkpt>
      <trkpt lat="43.02452" lon="17.75701">
        <ele>57.106826</ele>
        <time>2022-06-11T13:13:09.024Z</time>
      </trkpt>
      <trkpt lat="43.02462" lon="17.75691">
        <ele>57.307971</ele>
        <time>2022-06-11T13:13:12.012Z</time>
      </trkpt>
      <trkpt lat="43.0247" lon="17.75682">
        <ele>57.486474</ele>
        <time>2022-06-11T13:13:15.020Z</time>
      </trkpt>
      <trkpt lat="43.02478" lon="17.75673">
        <ele>57.656963</ele>
        <time>2022-06-11T13:13:18.054Z</time>
      </trkpt>
      <trkpt lat="43.02485" lon="17.75665">
        <ele>57.820827</ele>
        <time>2022-06-11T13:13:21.022Z</time>
      </trkpt>
      <trkpt lat="43.02493" lon="17.75657">
        <ele>57.987321</ele>
        <time>2022-06-11T13:13:24.069Z</time>
      </trkpt>
      <trkpt lat="43.025" lon="17.75649">
        <ele>58.140492</ele>
        <time>2022-06-11T13:13:27.035Z</time>
      </trkpt>
      <trkpt lat="43.02509" lon="17.75639">
        <ele>58.338197</ele>
        <time>2022-06-11T13:13:31.017Z</time>
      </trkpt>
      <trkpt lat="43.02518" lon="17.75629">
        <ele>58.529344</ele>
        <time>2022-06-11T13:13:35.066Z</time>
      </trkpt>
      <trkpt lat="43.02526" lon="17.75618">
        <ele>58.725074</ele>
        <time>2022-06-11T13:13:39.021Z</time>
      </trkpt>
      <trkpt lat="43.02534" lon="17.75606">
        <ele>58.923055</ele>
        <time>2022-06-11T13:13:43.025Z</time>
      </trkpt>
      <trkpt lat="43.02542" lon="17.75595">
        <ele>59.119886</ele>
        <time>2022-06-11T13:13:47.027Z</time>
      </trkpt>
      <trkpt lat="43.0255" lon="17.75583">
        <ele>59.307371</ele>
        <time>2022-06-11T13:13:51.024Z</time>
      </trkpt>
      <trkpt lat="43.02556" lon="17.75574">
        <ele>59.461363</ele>
        <time>2022-06-11T13:13:54.024Z</time>
      </trkpt>
      <trkpt lat="43.02562" lon="17.75565">
        <ele>59.619489</ele>
        <time>2022-06-11T13:13:57.032Z</time>
      </trkpt>
      <trkpt lat="43.02569" lon="17.75555">
        <ele>59.676162</ele>
        <time>2022-06-11T13:14:00.031Z</time>
      </trkpt>
      <trkpt lat="43.02576" lon="17.75545">
        <ele>59.657538</ele>
        <time>2022-06-11T13:14:03.032Z</time>
      </trkpt>
      <trkpt lat="43.02584" lon="17.75534">
        <ele>59.636767</ele>
        <time>2022-06-11T13:14:06.027Z</time>
      </trkpt>
      <trkpt lat="43.02592" lon="17.75522">
        <ele>59.615575</ele>
        <time>2022-06-11T13:14:09.069Z</time>
      </trkpt>
      <trkpt lat="43.02599" lon="17.75511">
        <ele>59.594411</ele>
        <time>2022-06-11T13:14:12.043Z</time>
      </trkpt>
      <trkpt lat="43.02607" lon="17.75498">
        <ele>59.572516</ele>
        <time>2022-06-11T13:14:15.040Z</time>
      </trkpt>
      <trkpt lat="43.02614" lon="17.75486">
        <ele>59.551584</ele>
        <time>2022-06-11T13:14:18.015Z</time>
      </trkpt>
      <trkpt lat="43.02621" lon="17.75475">
        <ele>59.531138</ele>
        <time>2022-06-11T13:14:21.020Z</time>
      </trkpt>
      <trkpt lat="43.02628" lon="17.75463">
        <ele>59.510164</ele>
        <time>2022-06-11T13:14:24.029Z</time>
      </trkpt>
      <trkpt lat="43.02635" lon="17.75452">
        <ele>59.490993</ele>
        <time>2022-06-11T13:14:27.022Z</time>
      </trkpt>
      <trkpt lat="43.02642" lon="17.75441">
        <ele>59.471129</ele>
        <time>2022-06-11T13:14:30.023Z</time>
      </trkpt>
      <trkpt lat="43.0265" lon="17.7543">
        <ele>59.450839</ele>
        <time>2022-06-11T13:14:33.054Z</time>
      </trkpt>
      <trkpt lat="43.02657" lon="17.7542">
        <ele>59.431452</ele>
        <time>2022-06-11T13:14:36.021Z</time>
      </trkpt>
      <trkpt lat="43.02665" lon="17.75411">
        <ele>59.412269</ele>
        <time>2022-06-11T13:14:39.015Z</time>
      </trkpt>
      <trkpt lat="43.02672" lon="17.75401">
        <ele>59.393365</ele>
        <time>2022-06-11T13:14:42.058Z</time>
      </trkpt>
      <trkpt lat="43.0268" lon="17.75391">
        <ele>59.374621</ele>
        <time>2022-06-11T13:14:45.023Z</time>
      </trkpt>
      <trkpt lat="43.02686" lon="17.75381">
        <ele>59.35649</ele>
        <time>2022-06-11T13:14:48.014Z</time>
      </trkpt>
      <trkpt lat="43.02693" lon="17.75372">
        <ele>59.743363</ele>
        <time>2022-06-11T13:14:51.024Z</time>
      </trkpt>
      <trkpt lat="43.02699" lon="17.75362">
        <ele>60.199329</ele>
        <time>2022-06-11T13:14:54.051Z</time>
      </trkpt>
      <trkpt lat="43.02705" lon="17.75352">
        <ele>60.635764</ele>
        <time>2022-06-11T13:14:57.025Z</time>
      </trkpt>
      <trkpt lat="43.02711" lon="17.75342">
        <ele>61.046999</ele>
        <time>2022-06-11T13:15:00.048Z</time>
      </trkpt>
      <trkpt lat="43.02717" lon="17.75332">
        <ele>61.475353</ele>
        <time>2022-06-11T13:15:03.013Z</time>
      </trkpt>
      <trkpt lat="43.02722" lon="17.75322">
        <ele>61.892026</ele>
        <time>2022-06-11T13:15:06.026Z</time>
      </trkpt>
      <trkpt lat="43.02729" lon="17.75313">
        <ele>62.323793</ele>
        <time>2022-06-11T13:15:09.056Z</time>
      </trkpt>
      <trkpt lat="43.02735" lon="17.75303">
        <ele>62.763727</ele>
        <time>2022-06-11T13:15:12.029Z</time>
      </trkpt>
      <trkpt lat="43.02742" lon="17.75294">
        <ele>63.193538</ele>
        <time>2022-06-11T13:15:15.035Z</time>
      </trkpt>
      <trkpt lat="43.02748" lon="17.75283">
        <ele>63.648442</ele>
        <time>2022-06-11T13:15:18.032Z</time>
      </trkpt>
      <trkpt lat="43.02754" lon="17.75272">
        <ele>64.116546</ele>
        <time>2022-06-11T13:15:21.024Z</time>
      </trkpt>
      <trkpt lat="43.0276" lon="17.75262">
        <ele>64.55338</ele>
        <time>2022-06-11T13:15:24.025Z</time>
      </trkpt>
      <trkpt lat="43.02766" lon="17.75252">
        <ele>64.991712</ele>
        <time>2022-06-11T13:15:27.027Z</time>
      </trkpt>
      <trkpt lat="43.02772" lon="17.75242">
        <ele>65.406142</ele>
        <time>2022-06-11T13:15:30.028Z</time>
      </trkpt>
      <trkpt lat="43.02779" lon="17.75229">
        <ele>65.95538</ele>
        <time>2022-06-11T13:15:34.069Z</time>
      </trkpt>
      <trkpt lat="43.02784" lon="17.75218">
        <ele>66.377812</ele>
        <time>2022-06-11T13:15:37.011Z</time>
      </trkpt>
      <trkpt lat="43.0279" lon="17.75208">
        <ele>66.829865</ele>
        <time>2022-06-11T13:15:40.065Z</time>
      </trkpt>
      <trkpt lat="43.02795" lon="17.75197">
        <ele>67.279447</ele>
        <time>2022-06-11T13:15:43.027Z</time>
      </trkpt>
      <trkpt lat="43.02799" lon="17.75184">
        <ele>67.626996</ele>
        <time>2022-06-11T13:15:46.052Z</time>
      </trkpt>
      <trkpt lat="43.02804" lon="17.75172">
        <ele>67.722422</ele>
        <time>2022-06-11T13:15:49.013Z</time>
      </trkpt>
      <trkpt lat="43.02809" lon="17.7516">
        <ele>67.814703</ele>
        <time>2022-06-11T13:15:52.015Z</time>
      </trkpt>
      <trkpt lat="43.02814" lon="17.75148">
        <ele>67.906888</ele>
        <time>2022-06-11T13:15:55.026Z</time>
      </trkpt>
      <trkpt lat="43.02818" lon="17.75135">
        <ele>68.002399</ele>
        <time>2022-06-11T13:15:58.072Z</time>
      </trkpt>
      <trkpt lat="43.02822" lon="17.75122">
        <ele>68.097819</ele>
        <time>2022-06-11T13:16:01.027Z</time>
      </trkpt>
      <trkpt lat="43.02825" lon="17.75108">
        <ele>68.193388</ele>
        <time>2022-06-11T13:16:04.061Z</time>
      </trkpt>
      <trkpt lat="43.02828" lon="17.75094">
        <ele>68.290003</ele>
        <time>2022-06-11T13:16:07.020Z</time>
      </trkpt>
      <trkpt lat="43.0283" lon="17.7508">
        <ele>68.387263</ele>
        <time>2022-06-11T13:16:10.011Z</time>
      </trkpt>
      <trkpt lat="43.02833" lon="17.75066">
        <ele>68.485829</ele>
        <time>2022-06-11T13:16:13.010Z</time>
      </trkpt>
      <trkpt lat="43.02833" lon="17.75051">
        <ele>68.587288</ele>
        <time>2022-06-11T13:16:16.031Z</time>
      </trkpt>
      <trkpt lat="43.02834" lon="17.75036">
        <ele>68.690538</ele>
        <time>2022-06-11T13:16:19.016Z</time>
      </trkpt>
      <trkpt lat="43.02834" lon="17.75021">
        <ele>68.789709</ele>
        <time>2022-06-11T13:16:22.051Z</time>
      </trkpt>
      <trkpt lat="43.02835" lon="17.75007">
        <ele>68.884602</ele>
        <time>2022-06-11T13:16:25.028Z</time>
      </trkpt>
      <trkpt lat="43.02835" lon="17.74993">
        <ele>68.979832</ele>
        <time>2022-06-11T13:16:28.021Z</time>
      </trkpt>
      <trkpt lat="43.02835" lon="17.7498">
        <ele>69.068205</ele>
        <time>2022-06-11T13:16:31.028Z</time>
      </trkpt>
      <trkpt lat="43.02834" lon="17.74966">
        <ele>69.160247</ele>
        <time>2022-06-11T13:16:34.024Z</time>
      </trkpt>
      <trkpt lat="43.02834" lon="17.74951">
        <ele>69.262862</ele>
        <time>2022-06-11T13:16:37.026Z</time>
      </trkpt>
      <trkpt lat="43.02834" lon="17.74936">
        <ele>69.567173</ele>
        <time>2022-06-11T13:16:40.022Z</time>
      </trkpt>
      <trkpt lat="43.02835" lon="17.74922">
        <ele>69.86496</ele>
        <time>2022-06-11T13:16:43.040Z</time>
      </trkpt>
      <trkpt lat="43.02835" lon="17.74908">
        <ele>70.141169</ele>
        <time>2022-06-11T13:16:46.035Z</time>
      </trkpt>
      <trkpt lat="43.02835" lon="17.74895">
        <ele>70.408092</ele>
        <time>2022-06-11T13:16:49.020Z</time>
      </trkpt>
      <trkpt lat="43.02838" lon="17.74883">
        <ele>70.663426</ele>
        <time>2022-06-11T13:16:52.020Z</time>
      </trkpt>
      <trkpt lat="43.02841" lon="17.74867">
        <ele>70.983759</ele>
        <time>2022-06-11T13:16:56.023Z</time>
      </trkpt>
      <trkpt lat="43.02844" lon="17.74852">
        <ele>71.290649</ele>
        <time>2022-06-11T13:17:00.029Z</time>
      </trkpt>
      <trkpt lat="43.02846" lon="17.74838">
        <ele>71.584053</ele>
        <time>2022-06-11T13:17:04.060Z</time>
      </trkpt>
      <trkpt lat="43.02847" lon="17.74824">
        <ele>71.86928</ele>
        <time>2022-06-11T13:17:08.026Z</time>
      </trkpt>
      <trkpt lat="43.02849" lon="17.74811">
        <ele>72.135612</ele>
        <time>2022-06-11T13:17:12.031Z</time>
      </trkpt>
      <trkpt lat="43.02852" lon="17.74799">
        <ele>72.406276</ele>
        <time>2022-06-11T13:17:16.005Z</time>
      </trkpt>
      <trkpt lat="43.02854" lon="17.74785">
        <ele>72.68039</ele>
        <time>2022-06-11T13:17:20.036Z</time>
      </trkpt>
      <trkpt lat="43.02857" lon="17.74771">
        <ele>72.968965</ele>
        <time>2022-06-11T13:17:24.023Z</time>
      </trkpt>
      <trkpt lat="43.02858" lon="17.74756">
        <ele>73.271703</ele>
        <time>2022-06-11T13:17:28.019Z</time>
      </trkpt>
      <trkpt lat="43.02859" lon="17.74741">
        <ele>73.576612</ele>
        <time>2022-06-11T13:17:32.048Z</time>
      </trkpt>
      <trkpt lat="43.0286" lon="17.74726">
        <ele>73.879698</ele>
        <time>2022-06-11T13:17:36.018Z</time>
      </trkpt>
      <trkpt lat="43.0286" lon="17.74711">
        <ele>74.19628</ele>
        <time>2022-06-11T13:17:40.018Z</time>
      </trkpt>
      <trkpt lat="43.02861" lon="17.74695">
        <ele>74.409734</ele>
        <time>2022-06-11T13:17:44.060Z</time>
      </trkpt>
      <trkpt lat="43.02862" lon="17.7468">
        <ele>74.61017</ele>
        <time>2022-06-11T13:17:48.008Z</time>
      </trkpt>
      <trkpt lat="43.02862" lon="17.74664">
        <ele>74.826135</ele>
        <time>2022-06-11T13:17:52.023Z</time>
      </trkpt>
      <trkpt lat="43.02862" lon="17.74651">
        <ele>75.000718</ele>
        <time>2022-06-11T13:17:55.020Z</time>
      </trkpt>
      <trkpt lat="43.02862" lon="17.74637">
        <ele>75.183379</ele>
        <time>2022-06-11T13:17:58.024Z</time>
      </trkpt>
      <trkpt lat="43.02863" lon="17.74623">
        <ele>75.3797</ele>
        <time>2022-06-11T13:18:01.033Z</time>
      </trkpt>
      <trkpt lat="43.02865" lon="17.74607">
        <ele>75.586226</ele>
        <time>2022-06-11T13:18:04.023Z</time>
      </trkpt>
      <trkpt lat="43.02869" lon="17.74591">
        <ele>75.820925</ele>
        <time>2022-06-11T13:18:07.042Z</time>
      </trkpt>
      <trkpt lat="43.02876" lon="17.74575">
        <ele>76.06278</ele>
        <time>2022-06-11T13:18:10.030Z</time>
      </trkpt>
      <trkpt lat="43.02885" lon="17.74562">
        <ele>76.299466</ele>
        <time>2022-06-11T13:18:13.015Z</time>
      </trkpt>
      <trkpt lat="43.02895" lon="17.74552">
        <ele>76.522404</ele>
        <time>2022-06-11T13:18:16.028Z</time>
      </trkpt>
      <trkpt lat="43.02903" lon="17.74542">
        <ele>76.731293</ele>
        <time>2022-06-11T13:18:19.018Z</time>
      </trkpt>
      <trkpt lat="43.02913" lon="17.74531">
        <ele>76.958231</ele>
        <time>2022-06-11T13:18:22.022Z</time>
      </trkpt>
      <trkpt lat="43.02922" lon="17.7452">
        <ele>77.178915</ele>
        <time>2022-06-11T13:18:25.024Z</time>
      </trkpt>
      <trkpt lat="43.02931" lon="17.74507">
        <ele>77.409945</ele>
        <time>2022-06-11T13:18:28.025Z</time>
      </trkpt>
      <trkpt lat="43.02939" lon="17.74493">
        <ele>77.604177</ele>
        <time>2022-06-11T13:18:31.017Z</time>
      </trkpt>
      <trkpt lat="43.02946" lon="17.74479">
        <ele>77.77654</ele>
        <time>2022-06-11T13:18:34.015Z</time>
      </trkpt>
      <trkpt lat="43.02954" lon="17.74465">
        <ele>77.950426</ele>
        <time>2022-06-11T13:18:37.043Z</time>
      </trkpt>
      <trkpt lat="43.02962" lon="17.7445">
        <ele>78.126694</ele>
        <time>2022-06-11T13:18:40.017Z</time>
      </trkpt>
      <trkpt lat="43.02969" lon="17.74436">
        <ele>78.301444</ele>
        <time>2022-06-11T13:18:43.030Z</time>
      </trkpt>
      <trkpt lat="43.02976" lon="17.7442">
        <ele>78.470887</ele>
        <time>2022-06-11T13:18:46.026Z</time>
      </trkpt>
      <trkpt lat="43.02982" lon="17.74405">
        <ele>78.642683</ele>
        <time>2022-06-11T13:18:49.025Z</time>
      </trkpt>
      <trkpt lat="43.02986" lon="17.74394">
        <ele>78.764493</ele>
        <time>2022-06-11T13:18:51.036Z</time>
      </trkpt>
      <trkpt lat="43.02991" lon="17.74382">
        <ele>78.892722</ele>
        <time>2022-06-11T13:18:53.035Z</time>
      </trkpt>
      <trkpt lat="43.02995" lon="17.7437">
        <ele>79.026679</ele>
        <time>2022-06-11T13:18:55.025Z</time>
      </trkpt>
      <trkpt lat="43.03" lon="17.74358">
        <ele>79.163937</ele>
        <time>2022-06-11T13:18:57.029Z</time>
      </trkpt>
      <trkpt lat="43.03005" lon="17.74345">
        <ele>79.304999</ele>
        <time>2022-06-11T13:18:59.037Z</time>
      </trkpt>
      <trkpt lat="43.0301" lon="17.74332">
        <ele>79.447518</ele>
        <time>2022-06-11T13:19:01.016Z</time>
      </trkpt>
      <trkpt lat="43.03016" lon="17.7432">
        <ele>79.586781</ele>
        <time>2022-06-11T13:19:03.071Z</time>
      </trkpt>
      <trkpt lat="43.03022" lon="17.7431">
        <ele>79.719921</ele>
        <time>2022-06-11T13:19:05.033Z</time>
      </trkpt>
      <trkpt lat="43.03029" lon="17.743">
        <ele>79.850059</ele>
        <time>2022-06-11T13:19:07.024Z</time>
      </trkpt>
      <trkpt lat="43.03035" lon="17.7429">
        <ele>79.726013</ele>
        <time>2022-06-11T13:19:09.032Z</time>
      </trkpt>
      <trkpt lat="43.03043" lon="17.74276">
        <ele>79.346136</ele>
        <time>2022-06-11T13:19:12.035Z</time>
      </trkpt>
      <trkpt lat="43.03049" lon="17.74266">
        <ele>79.084847</ele>
        <time>2022-06-11T13:19:14.054Z</time>
      </trkpt>
      <trkpt lat="43.03055" lon="17.74256">
        <ele>78.810173</ele>
        <time>2022-06-11T13:19:16.016Z</time>
      </trkpt>
      <trkpt lat="43.0306" lon="17.74244">
        <ele>78.530268</ele>
        <time>2022-06-11T13:19:18.018Z</time>
      </trkpt>
      <trkpt lat="43.03066" lon="17.74233">
        <ele>78.250364</ele>
        <time>2022-06-11T13:19:20.065Z</time>
      </trkpt>
      <trkpt lat="43.03071" lon="17.74223">
        <ele>77.982167</ele>
        <time>2022-06-11T13:19:22.032Z</time>
      </trkpt>
      <trkpt lat="43.03075" lon="17.74212">
        <ele>77.717646</ele>
        <time>2022-06-11T13:19:24.037Z</time>
      </trkpt>
      <trkpt lat="43.03079" lon="17.742">
        <ele>77.455702</ele>
        <time>2022-06-11T13:19:26.016Z</time>
      </trkpt>
      <trkpt lat="43.03083" lon="17.74182">
        <ele>77.06101</ele>
        <time>2022-06-11T13:19:29.052Z</time>
      </trkpt>
      <trkpt lat="43.03085" lon="17.74169">
        <ele>76.784289</ele>
        <time>2022-06-11T13:19:31.064Z</time>
      </trkpt>
      <trkpt lat="43.03086" lon="17.74155">
        <ele>76.501578</ele>
        <time>2022-06-11T13:19:33.023Z</time>
      </trkpt>
      <trkpt lat="43.03086" lon="17.74142">
        <ele>76.223951</ele>
        <time>2022-06-11T13:19:35.025Z</time>
      </trkpt>
      <trkpt lat="43.03085" lon="17.7413">
        <ele>75.962272</ele>
        <time>2022-06-11T13:19:37.052Z</time>
      </trkpt>
      <trkpt lat="43.03084" lon="17.74117">
        <ele>75.691499</ele>
        <time>2022-06-11T13:19:39.025Z</time>
      </trkpt>
      <trkpt lat="43.03083" lon="17.74103">
        <ele>75.412116</ele>
        <time>2022-06-11T13:19:41.012Z</time>
      </trkpt>
      <trkpt lat="43.03082" lon="17.7409">
        <ele>75.128583</ele>
        <time>2022-06-11T13:19:43.032Z</time>
      </trkpt>
      <trkpt lat="43.03081" lon="17.74076">
        <ele>74.831841</ele>
        <time>2022-06-11T13:19:45.033Z</time>
      </trkpt>
      <trkpt lat="43.03081" lon="17.74062">
        <ele>74.52668</ele>
        <time>2022-06-11T13:19:47.027Z</time>
      </trkpt>
      <trkpt lat="43.03082" lon="17.74048">
        <ele>74.219079</ele>
        <time>2022-06-11T13:19:49.035Z</time>
      </trkpt>
      <trkpt lat="43.03084" lon="17.74035">
        <ele>73.927004</ele>
        <time>2022-06-11T13:19:51.035Z</time>
      </trkpt>
      <trkpt lat="43.03089" lon="17.74022">
        <ele>73.615706</ele>
        <time>2022-06-11T13:19:53.069Z</time>
      </trkpt>
      <trkpt lat="43.03094" lon="17.7401">
        <ele>73.308901</ele>
        <time>2022-06-11T13:19:55.012Z</time>
      </trkpt>
      <trkpt lat="43.031" lon="17.73999">
        <ele>73.005524</ele>
        <time>2022-06-11T13:19:57.016Z</time>
      </trkpt>
      <trkpt lat="43.03106" lon="17.7399">
        <ele>72.710059</ele>
        <time>2022-06-11T13:19:59.016Z</time>
      </trkpt>
      <trkpt lat="43.03114" lon="17.73982">
        <ele>72.424098</ele>
        <time>2022-06-11T13:20:01.016Z</time>
      </trkpt>
      <trkpt lat="43.03122" lon="17.73975">
        <ele>72.131195</ele>
        <time>2022-06-11T13:20:03.030Z</time>
      </trkpt>
      <trkpt lat="43.03131" lon="17.73968">
        <ele>71.824881</ele>
        <time>2022-06-11T13:20:05.022Z</time>
      </trkpt>
      <trkpt lat="43.0314" lon="17.73961">
        <ele>71.504783</ele>
        <time>2022-06-11T13:20:07.028Z</time>
      </trkpt>
      <trkpt lat="43.03149" lon="17.73953">
        <ele>71.194002</ele>
        <time>2022-06-11T13:20:09.061Z</time>
      </trkpt>
      <trkpt lat="43.03157" lon="17.73946">
        <ele>70.890702</ele>
        <time>2022-06-11T13:20:11.028Z</time>
      </trkpt>
      <trkpt lat="43.03166" lon="17.73939">
        <ele>70.578226</ele>
        <time>2022-06-11T13:20:13.028Z</time>
      </trkpt>
      <trkpt lat="43.03175" lon="17.73931">
        <ele>70.268746</ele>
        <time>2022-06-11T13:20:15.050Z</time>
      </trkpt>
      <trkpt lat="43.03183" lon="17.73924">
        <ele>69.981718</ele>
        <time>2022-06-11T13:20:17.023Z</time>
      </trkpt>
      <trkpt lat="43.03191" lon="17.73917">
        <ele>69.688286</ele>
        <time>2022-06-11T13:20:19.023Z</time>
      </trkpt>
      <trkpt lat="43.03199" lon="17.7391">
        <ele>69.394916</ele>
        <time>2022-06-11T13:20:21.060Z</time>
      </trkpt>
      <trkpt lat="43.03208" lon="17.73904">
        <ele>69.296628</ele>
        <time>2022-06-11T13:20:23.030Z</time>
      </trkpt>
      <trkpt lat="43.03215" lon="17.73895">
        <ele>69.26367</ele>
        <time>2022-06-11T13:20:25.022Z</time>
      </trkpt>
      <trkpt lat="43.03222" lon="17.73884">
        <ele>69.229955</ele>
        <time>2022-06-11T13:20:27.027Z</time>
      </trkpt>
      <trkpt lat="43.03228" lon="17.73873">
        <ele>69.1956</ele>
        <time>2022-06-11T13:20:29.015Z</time>
      </trkpt>
      <trkpt lat="43.03234" lon="17.73862">
        <ele>69.160451</ele>
        <time>2022-06-11T13:20:31.024Z</time>
      </trkpt>
      <trkpt lat="43.03241" lon="17.7385">
        <ele>69.124849</ele>
        <time>2022-06-11T13:20:33.017Z</time>
      </trkpt>
      <trkpt lat="43.03248" lon="17.73839">
        <ele>69.089108</ele>
        <time>2022-06-11T13:20:35.024Z</time>
      </trkpt>
      <trkpt lat="43.03254" lon="17.73828">
        <ele>69.055733</ele>
        <time>2022-06-11T13:20:37.014Z</time>
      </trkpt>
      <trkpt lat="43.03259" lon="17.73817">
        <ele>69.023355</ele>
        <time>2022-06-11T13:20:39.032Z</time>
      </trkpt>
      <trkpt lat="43.03265" lon="17.73807">
        <ele>68.992164</ele>
        <time>2022-06-11T13:20:41.029Z</time>
      </trkpt>
      <trkpt lat="43.0327" lon="17.73796">
        <ele>68.959333</ele>
        <time>2022-06-11T13:20:43.049Z</time>
      </trkpt>
      <trkpt lat="43.03276" lon="17.73785">
        <ele>68.925958</ele>
        <time>2022-06-11T13:20:45.012Z</time>
      </trkpt>
      <trkpt lat="43.03282" lon="17.73774">
        <ele>68.892777</ele>
        <time>2022-06-11T13:20:47.019Z</time>
      </trkpt>
      <trkpt lat="43.03287" lon="17.73762">
        <ele>68.859376</ele>
        <time>2022-06-11T13:20:49.026Z</time>
      </trkpt>
      <trkpt lat="43.03293" lon="17.73751">
        <ele>68.824619</ele>
        <time>2022-06-11T13:20:51.028Z</time>
      </trkpt>
      <trkpt lat="43.03298" lon="17.73739">
        <ele>68.791376</ele>
        <time>2022-06-11T13:20:53.008Z</time>
      </trkpt>
      <trkpt lat="43.03304" lon="17.73727">
        <ele>68.756462</ele>
        <time>2022-06-11T13:20:55.067Z</time>
      </trkpt>
      <trkpt lat="43.03309" lon="17.73714">
        <ele>68.720913</ele>
        <time>2022-06-11T13:20:57.030Z</time>
      </trkpt>
      <trkpt lat="43.03314" lon="17.73702">
        <ele>68.722579</ele>
        <time>2022-06-11T13:20:59.020Z</time>
      </trkpt>
      <trkpt lat="43.03319" lon="17.73691">
        <ele>68.725986</ele>
        <time>2022-06-11T13:21:01.027Z</time>
      </trkpt>
      <trkpt lat="43.03323" lon="17.73679">
        <ele>68.72939</ele>
        <time>2022-06-11T13:21:03.026Z</time>
      </trkpt>
      <trkpt lat="43.03329" lon="17.73668">
        <ele>68.733114</ele>
        <time>2022-06-11T13:21:05.019Z</time>
      </trkpt>
      <trkpt lat="43.03334" lon="17.73657">
        <ele>68.736537</ele>
        <time>2022-06-11T13:21:07.030Z</time>
      </trkpt>
      <trkpt lat="43.03339" lon="17.73641">
        <ele>68.741211</ele>
        <time>2022-06-11T13:21:10.027Z</time>
      </trkpt>
      <trkpt lat="43.03341" lon="17.73629">
        <ele>68.744587</ele>
        <time>2022-06-11T13:21:12.048Z</time>
      </trkpt>
      <trkpt lat="43.03344" lon="17.73615">
        <ele>68.748274</ele>
        <time>2022-06-11T13:21:14.025Z</time>
      </trkpt>
      <trkpt lat="43.03345" lon="17.73601">
        <ele>68.752044</ele>
        <time>2022-06-11T13:21:16.013Z</time>
      </trkpt>
      <trkpt lat="43.03347" lon="17.73588">
        <ele>68.755571</ele>
        <time>2022-06-11T13:21:18.069Z</time>
      </trkpt>
      <trkpt lat="43.03349" lon="17.73575">
        <ele>68.759128</ele>
        <time>2022-06-11T13:21:20.014Z</time>
      </trkpt>
      <trkpt lat="43.03354" lon="17.73563">
        <ele>68.762643</ele>
        <time>2022-06-11T13:21:22.021Z</time>
      </trkpt>
      <trkpt lat="43.03357" lon="17.73551">
        <ele>68.766237</ele>
        <time>2022-06-11T13:21:24.055Z</time>
      </trkpt>
      <trkpt lat="43.03361" lon="17.73538">
        <ele>68.76993</ele>
        <time>2022-06-11T13:21:26.030Z</time>
      </trkpt>
      <trkpt lat="43.03365" lon="17.73525">
        <ele>68.773602</ele>
        <time>2022-06-11T13:21:28.014Z</time>
      </trkpt>
      <trkpt lat="43.03369" lon="17.73513">
        <ele>68.777215</ele>
        <time>2022-06-11T13:21:30.028Z</time>
      </trkpt>
      <trkpt lat="43.03374" lon="17.73501">
        <ele>68.780817</ele>
        <time>2022-06-11T13:21:32.020Z</time>
      </trkpt>
      <trkpt lat="43.03377" lon="17.73488">
        <ele>68.784476</ele>
        <time>2022-06-11T13:21:34.034Z</time>
      </trkpt>
      <trkpt lat="43.03381" lon="17.73476">
        <ele>68.492557</ele>
        <time>2022-06-11T13:21:36.026Z</time>
      </trkpt>
      <trkpt lat="43.03386" lon="17.73464">
        <ele>68.187449</ele>
        <time>2022-06-11T13:21:38.017Z</time>
      </trkpt>
      <trkpt lat="43.0339" lon="17.73452">
        <ele>67.895768</ele>
        <time>2022-06-11T13:21:40.027Z</time>
      </trkpt>
      <trkpt lat="43.03392" lon="17.73439">
        <ele>67.592791</ele>
        <time>2022-06-11T13:21:42.030Z</time>
      </trkpt>
      <trkpt lat="43.03394" lon="17.73426">
        <ele>67.307731</ele>
        <time>2022-06-11T13:21:44.022Z</time>
      </trkpt>
      <trkpt lat="43.03394" lon="17.73412">
        <ele>66.981525</ele>
        <time>2022-06-11T13:21:46.035Z</time>
      </trkpt>
      <trkpt lat="43.03394" lon="17.73398">
        <ele>66.66893</ele>
        <time>2022-06-11T13:21:48.029Z</time>
      </trkpt>
      <trkpt lat="43.03394" lon="17.73385">
        <ele>66.385227</ele>
        <time>2022-06-11T13:21:50.020Z</time>
      </trkpt>
      <trkpt lat="43.03393" lon="17.73369">
        <ele>66.032779</ele>
        <time>2022-06-11T13:21:53.024Z</time>
      </trkpt>
      <trkpt lat="43.03394" lon="17.73352">
        <ele>65.645746</ele>
        <time>2022-06-11T13:21:56.024Z</time>
      </trkpt>
      <trkpt lat="43.03394" lon="17.73339">
        <ele>65.35326</ele>
        <time>2022-06-11T13:21:58.030Z</time>
      </trkpt>
      <trkpt lat="43.03393" lon="17.73326">
        <ele>65.058289</ele>
        <time>2022-06-11T13:22:00.030Z</time>
      </trkpt>
      <trkpt lat="43.03392" lon="17.73313">
        <ele>64.771702</ele>
        <time>2022-06-11T13:22:02.021Z</time>
      </trkpt>
      <trkpt lat="43.03392" lon="17.73296">
        <ele>64.405523</ele>
        <time>2022-06-11T13:22:05.031Z</time>
      </trkpt>
      <trkpt lat="43.03393" lon="17.73283">
        <ele>64.105343</ele>
        <time>2022-06-11T13:22:08.045Z</time>
      </trkpt>
      <trkpt lat="43.03395" lon="17.7327">
        <ele>63.817072</ele>
        <time>2022-06-11T13:22:11.025Z</time>
      </trkpt>
      <trkpt lat="43.03395" lon="17.73257">
        <ele>63.524013</ele>
        <time>2022-06-11T13:22:14.088Z</time>
      </trkpt>
      <trkpt lat="43.03396" lon="17.73243">
        <ele>63.262283</ele>
        <time>2022-06-11T13:22:17.033Z</time>
      </trkpt>
      <trkpt lat="43.03397" lon="17.73229">
        <ele>63.145821</ele>
        <time>2022-06-11T13:22:20.020Z</time>
      </trkpt>
      <trkpt lat="43.03397" lon="17.73214">
        <ele>63.019468</ele>
        <time>2022-06-11T13:22:23.026Z</time>
      </trkpt>
      <trkpt lat="43.03398" lon="17.732">
        <ele>62.897343</ele>
        <time>2022-06-11T13:22:26.017Z</time>
      </trkpt>
      <trkpt lat="43.03398" lon="17.73184">
        <ele>62.771827</ele>
        <time>2022-06-11T13:22:29.023Z</time>
      </trkpt>
      <trkpt lat="43.03397" lon="17.73169">
        <ele>62.643207</ele>
        <time>2022-06-11T13:22:32.028Z</time>
      </trkpt>
      <trkpt lat="43.03395" lon="17.73155">
        <ele>62.523599</ele>
        <time>2022-06-11T13:22:35.010Z</time>
      </trkpt>
      <trkpt lat="43.03393" lon="17.7314">
        <ele>62.398492</ele>
        <time>2022-06-11T13:22:38.016Z</time>
      </trkpt>
      <trkpt lat="43.03392" lon="17.73124">
        <ele>62.266878</ele>
        <time>2022-06-11T13:22:41.043Z</time>
      </trkpt>
      <trkpt lat="43.03392" lon="17.73108">
        <ele>62.131267</ele>
        <time>2022-06-11T13:22:44.020Z</time>
      </trkpt>
      <trkpt lat="43.03396" lon="17.73092">
        <ele>61.99422</ele>
        <time>2022-06-11T13:22:47.058Z</time>
      </trkpt>
      <trkpt lat="43.034" lon="17.73076">
        <ele>61.85042</ele>
        <time>2022-06-11T13:22:50.014Z</time>
      </trkpt>
      <trkpt lat="43.03406" lon="17.7306">
        <ele>61.705155</ele>
        <time>2022-06-11T13:22:53.012Z</time>
      </trkpt>
      <trkpt lat="43.03409" lon="17.73043">
        <ele>61.556013</ele>
        <time>2022-06-11T13:22:56.069Z</time>
      </trkpt>
      <trkpt lat="43.03413" lon="17.73026">
        <ele>61.411604</ele>
        <time>2022-06-11T13:22:59.041Z</time>
      </trkpt>
      <trkpt lat="43.03415" lon="17.73008">
        <ele>61.259905</ele>
        <time>2022-06-11T13:23:02.034Z</time>
      </trkpt>
      <trkpt lat="43.03417" lon="17.72991">
        <ele>60.917986</ele>
        <time>2022-06-11T13:23:05.033Z</time>
      </trkpt>
      <trkpt lat="43.03419" lon="17.72974">
        <ele>60.563948</ele>
        <time>2022-06-11T13:23:08.028Z</time>
      </trkpt>
      <trkpt lat="43.03421" lon="17.72957">
        <ele>60.212378</ele>
        <time>2022-06-11T13:23:11.058Z</time>
      </trkpt>
      <trkpt lat="43.03423" lon="17.7294">
        <ele>59.864873</ele>
        <time>2022-06-11T13:23:14.051Z</time>
      </trkpt>
      <trkpt lat="43.03425" lon="17.72924">
        <ele>59.518919</ele>
        <time>2022-06-11T13:23:17.073Z</time>
      </trkpt>
      <trkpt lat="43.03426" lon="17.72906">
        <ele>59.145902</ele>
        <time>2022-06-11T13:23:20.030Z</time>
      </trkpt>
      <trkpt lat="43.03426" lon="17.72893">
        <ele>58.884715</ele>
        <time>2022-06-11T13:23:22.032Z</time>
      </trkpt>
      <trkpt lat="43.03426" lon="17.7288">
        <ele>58.627701</ele>
        <time>2022-06-11T13:23:24.018Z</time>
      </trkpt>
      <trkpt lat="43.03426" lon="17.72862">
        <ele>58.249209</ele>
        <time>2022-06-11T13:23:27.099Z</time>
      </trkpt>
      <trkpt lat="43.03427" lon="17.72849">
        <ele>57.990002</ele>
        <time>2022-06-11T13:23:29.011Z</time>
      </trkpt>
      <trkpt lat="43.03428" lon="17.72832">
        <ele>57.632951</ele>
        <time>2022-06-11T13:23:32.024Z</time>
      </trkpt>
      <trkpt lat="43.03428" lon="17.72815">
        <ele>57.286963</ele>
        <time>2022-06-11T13:23:35.032Z</time>
      </trkpt>
      <trkpt lat="43.03429" lon="17.72798">
        <ele>56.930978</ele>
        <time>2022-06-11T13:23:38.064Z</time>
      </trkpt>
      <trkpt lat="43.03429" lon="17.7278">
        <ele>56.567046</ele>
        <time>2022-06-11T13:23:41.030Z</time>
      </trkpt>
      <trkpt lat="43.0343" lon="17.72763">
        <ele>56.216377</ele>
        <time>2022-06-11T13:23:44.010Z</time>
      </trkpt>
      <trkpt lat="43.03431" lon="17.72747">
        <ele>57.072702</ele>
        <time>2022-06-11T13:23:47.035Z</time>
      </trkpt>
      <trkpt lat="43.03432" lon="17.72731">
        <ele>58.049695</ele>
        <time>2022-06-11T13:23:50.039Z</time>
      </trkpt>
      <trkpt lat="43.03433" lon="17.72715">
        <ele>58.995865</ele>
        <time>2022-06-11T13:23:53.021Z</time>
      </trkpt>
      <trkpt lat="43.03433" lon="17.72702">
        <ele>59.756075</ele>
        <time>2022-06-11T13:23:56.047Z</time>
      </trkpt>
      <trkpt lat="43.03434" lon="17.72687">
        <ele>60.672859</ele>
        <time>2022-06-11T13:24:01.024Z</time>
      </trkpt>
      <trkpt lat="43.03437" lon="17.72674">
        <ele>61.508614</ele>
        <time>2022-06-11T13:24:06.016Z</time>
      </trkpt>
      <trkpt lat="43.03441" lon="17.72661">
        <ele>62.333431</ele>
        <time>2022-06-11T13:24:12.023Z</time>
      </trkpt>
      <trkpt lat="43.03446" lon="17.72649">
        <ele>63.173925</ele>
        <time>2022-06-11T13:24:18.025Z</time>
      </trkpt>
      <trkpt lat="43.03452" lon="17.72638">
        <ele>64.018906</ele>
        <time>2022-06-11T13:24:24.028Z</time>
      </trkpt>
      <trkpt lat="43.03456" lon="17.72626">
        <ele>64.760825</ele>
        <time>2022-06-11T13:24:30.026Z</time>
      </trkpt>
      <trkpt lat="43.03462" lon="17.72616">
        <ele>65.552628</ele>
        <time>2022-06-11T13:24:37.028Z</time>
      </trkpt>
      <trkpt lat="43.03469" lon="17.72607">
        <ele>66.310284</ele>
        <time>2022-06-11T13:24:43.029Z</time>
      </trkpt>
      <trkpt lat="43.03475" lon="17.72598">
        <ele>67.079794</ele>
        <time>2022-06-11T13:24:49.019Z</time>
      </trkpt>
      <trkpt lat="43.03481" lon="17.72587">
        <ele>67.852288</ele>
        <time>2022-06-11T13:24:55.038Z</time>
      </trkpt>
      <trkpt lat="43.03487" lon="17.72578">
        <ele>68.646073</ele>
        <time>2022-06-11T13:25:00.022Z</time>
      </trkpt>
      <trkpt lat="43.03493" lon="17.72564">
        <ele>69.598057</ele>
        <time>2022-06-11T13:25:05.024Z</time>
      </trkpt>
      <trkpt lat="43.03499" lon="17.72554">
        <ele>70.386201</ele>
        <time>2022-06-11T13:25:08.072Z</time>
      </trkpt>
      <trkpt lat="43.03506" lon="17.72544">
        <ele>70.927055</ele>
        <time>2022-06-11T13:25:11.051Z</time>
      </trkpt>
      <trkpt lat="43.03515" lon="17.72535">
        <ele>71.003859</ele>
        <time>2022-06-11T13:25:14.024Z</time>
      </trkpt>
      <trkpt lat="43.03522" lon="17.72525">
        <ele>71.077812</ele>
        <time>2022-06-11T13:25:17.028Z</time>
      </trkpt>
      <trkpt lat="43.03529" lon="17.72513">
        <ele>71.154286</ele>
        <time>2022-06-11T13:25:19.996Z</time>
      </trkpt>
      <trkpt lat="43.03538" lon="17.72503">
        <ele>71.234271</ele>
        <time>2022-06-11T13:25:23.022Z</time>
      </trkpt>
      <trkpt lat="43.03545" lon="17.72491">
        <ele>71.314285</ele>
        <time>2022-06-11T13:25:26.028Z</time>
      </trkpt>
      <trkpt lat="43.03553" lon="17.72479">
        <ele>71.395453</ele>
        <time>2022-06-11T13:25:29.017Z</time>
      </trkpt>
      <trkpt lat="43.0356" lon="17.72468">
        <ele>71.471766</ele>
        <time>2022-06-11T13:25:32.023Z</time>
      </trkpt>
      <trkpt lat="43.03566" lon="17.72455">
        <ele>71.550209</ele>
        <time>2022-06-11T13:25:35.033Z</time>
      </trkpt>
      <trkpt lat="43.03573" lon="17.72441">
        <ele>71.636643</ele>
        <time>2022-06-11T13:25:38.018Z</time>
      </trkpt>
      <trkpt lat="43.03578" lon="17.72425">
        <ele>71.724736</ele>
        <time>2022-06-11T13:25:41.065Z</time>
      </trkpt>
      <trkpt lat="43.03582" lon="17.72409">
        <ele>71.812779</ele>
        <time>2022-06-11T13:25:44.027Z</time>
      </trkpt>
      <trkpt lat="43.03586" lon="17.72392">
        <ele>71.904444</ele>
        <time>2022-06-11T13:25:47.047Z</time>
      </trkpt>
      <trkpt lat="43.03589" lon="17.7238">
        <ele>71.971648</ele>
        <time>2022-06-11T13:25:49.015Z</time>
      </trkpt>
      <trkpt lat="43.03591" lon="17.72367">
        <ele>72.040196</ele>
        <time>2022-06-11T13:25:51.015Z</time>
      </trkpt>
      <trkpt lat="43.03594" lon="17.72355">
        <ele>72.103397</ele>
        <time>2022-06-11T13:25:53.031Z</time>
      </trkpt>
      <trkpt lat="43.036" lon="17.72339">
        <ele>72.159089</ele>
        <time>2022-06-11T13:25:56.036Z</time>
      </trkpt>
      <trkpt lat="43.03605" lon="17.72324">
        <ele>72.138979</ele>
        <time>2022-06-11T13:25:59.019Z</time>
      </trkpt>
      <trkpt lat="43.03611" lon="17.72309">
        <ele>72.119092</ele>
        <time>2022-06-11T13:26:02.006Z</time>
      </trkpt>
      <trkpt lat="43.03617" lon="17.72294">
        <ele>72.099661</ele>
        <time>2022-06-11T13:26:05.012Z</time>
      </trkpt>
      <trkpt lat="43.03623" lon="17.7228">
        <ele>72.081622</ele>
        <time>2022-06-11T13:26:08.042Z</time>
      </trkpt>
      <trkpt lat="43.03627" lon="17.72267">
        <ele>72.065005</ele>
        <time>2022-06-11T13:26:11.026Z</time>
      </trkpt>
      <trkpt lat="43.03632" lon="17.72254">
        <ele>72.047669</ele>
        <time>2022-06-11T13:26:14.028Z</time>
      </trkpt>
      <trkpt lat="43.03639" lon="17.72241">
        <ele>72.029453</ele>
        <time>2022-06-11T13:26:17.029Z</time>
      </trkpt>
      <trkpt lat="43.03644" lon="17.72228">
        <ele>72.012074</ele>
        <time>2022-06-11T13:26:20.052Z</time>
      </trkpt>
      <trkpt lat="43.03649" lon="17.72215">
        <ele>71.994874</ele>
        <time>2022-06-11T13:26:23.021Z</time>
      </trkpt>
      <trkpt lat="43.03655" lon="17.72203">
        <ele>71.978533</ele>
        <time>2022-06-11T13:26:26.064Z</time>
      </trkpt>
      <trkpt lat="43.0366" lon="17.72191">
        <ele>71.962263</ele>
        <time>2022-06-11T13:26:29.023Z</time>
      </trkpt>
      <trkpt lat="43.03666" lon="17.7218">
        <ele>71.946562</ele>
        <time>2022-06-11T13:26:32.056Z</time>
      </trkpt>
      <trkpt lat="43.03672" lon="17.72169">
        <ele>71.930489</ele>
        <time>2022-06-11T13:26:35.043Z</time>
      </trkpt>
      <trkpt lat="43.03678" lon="17.72158">
        <ele>71.914417</ele>
        <time>2022-06-11T13:26:38.019Z</time>
      </trkpt>
      <trkpt lat="43.03684" lon="17.72146">
        <ele>71.898699</ele>
        <time>2022-06-11T13:26:41.033Z</time>
      </trkpt>
      <trkpt lat="43.03689" lon="17.72135">
        <ele>71.882429</ele>
        <time>2022-06-11T13:26:44.024Z</time>
      </trkpt>
      <trkpt lat="43.03695" lon="17.72123">
        <ele>71.56072</ele>
        <time>2022-06-11T13:26:47.024Z</time>
      </trkpt>
      <trkpt lat="43.03702" lon="17.7211">
        <ele>71.192862</ele>
        <time>2022-06-11T13:26:50.020Z</time>
      </trkpt>
      <trkpt lat="43.03707" lon="17.72097">
        <ele>70.813654</ele>
        <time>2022-06-11T13:26:53.024Z</time>
      </trkpt>
      <trkpt lat="43.03713" lon="17.72083">
        <ele>70.426061</ele>
        <time>2022-06-11T13:26:56.029Z</time>
      </trkpt>
      <trkpt lat="43.03718" lon="17.72068">
        <ele>70.011468</ele>
        <time>2022-06-11T13:26:59.024Z</time>
      </trkpt>
      <trkpt lat="43.03724" lon="17.72052">
        <ele>69.585107</ele>
        <time>2022-06-11T13:27:02.055Z</time>
      </trkpt>
      <trkpt lat="43.03728" lon="17.72041">
        <ele>69.277687</ele>
        <time>2022-06-11T13:27:04.030Z</time>
      </trkpt>
      <trkpt lat="43.03732" lon="17.72029">
        <ele>68.954504</ele>
        <time>2022-06-11T13:27:06.026Z</time>
      </trkpt>
      <trkpt lat="43.03735" lon="17.72016">
        <ele>68.632523</ele>
        <time>2022-06-11T13:27:08.022Z</time>
      </trkpt>
      <trkpt lat="43.03739" lon="17.72004">
        <ele>68.295497</ele>
        <time>2022-06-11T13:27:10.018Z</time>
      </trkpt>
      <trkpt lat="43.03743" lon="17.71991">
        <ele>67.961388</ele>
        <time>2022-06-11T13:27:12.023Z</time>
      </trkpt>
      <trkpt lat="43.03746" lon="17.7198">
        <ele>67.654115</ele>
        <time>2022-06-11T13:27:14.038Z</time>
      </trkpt>
      <trkpt lat="43.0375" lon="17.71968">
        <ele>67.341978</ele>
        <time>2022-06-11T13:27:16.058Z</time>
      </trkpt>
      <trkpt lat="43.03755" lon="17.71952">
        <ele>66.91932</ele>
        <time>2022-06-11T13:27:19.030Z</time>
      </trkpt>
      <trkpt lat="43.03761" lon="17.71938">
        <ele>66.517985</ele>
        <time>2022-06-11T13:27:22.019Z</time>
      </trkpt>
      <trkpt lat="43.03766" lon="17.71923">
        <ele>66.126914</ele>
        <time>2022-06-11T13:27:25.024Z</time>
      </trkpt>
      <trkpt lat="43.03771" lon="17.71912">
        <ele>65.920726</ele>
        <time>2022-06-11T13:27:28.023Z</time>
      </trkpt>
      <trkpt lat="43.03775" lon="17.71898">
        <ele>66.339704</ele>
        <time>2022-06-11T13:27:32.039Z</time>
      </trkpt>
      <trkpt lat="43.03779" lon="17.71886">
        <ele>66.731382</ele>
        <time>2022-06-11T13:27:36.022Z</time>
      </trkpt>
      <trkpt lat="43.03783" lon="17.71874">
        <ele>67.111028</ele>
        <time>2022-06-11T13:27:40.034Z</time>
      </trkpt>
      <trkpt lat="43.03787" lon="17.71862">
        <ele>67.490524</ele>
        <time>2022-06-11T13:27:44.031Z</time>
      </trkpt>
      <trkpt lat="43.03791" lon="17.7185">
        <ele>67.848987</ele>
        <time>2022-06-11T13:27:48.025Z</time>
      </trkpt>
      <trkpt lat="43.03792" lon="17.71837">
        <ele>68.214586</ele>
        <time>2022-06-11T13:27:52.027Z</time>
      </trkpt>
      <trkpt lat="43.03792" lon="17.71822">
        <ele>68.660706</ele>
        <time>2022-06-11T13:27:57.034Z</time>
      </trkpt>
      <trkpt lat="43.03792" lon="17.71808">
        <ele>69.061238</ele>
        <time>2022-06-11T13:28:01.010Z</time>
      </trkpt>
      <trkpt lat="43.03791" lon="17.71795">
        <ele>69.445953</ele>
        <time>2022-06-11T13:28:05.021Z</time>
      </trkpt>
      <trkpt lat="43.03789" lon="17.71782">
        <ele>69.81176</ele>
        <time>2022-06-11T13:28:09.056Z</time>
      </trkpt>
      <trkpt lat="43.03786" lon="17.7177">
        <ele>70.186675</ele>
        <time>2022-06-11T13:28:13.024Z</time>
      </trkpt>
      <trkpt lat="43.03783" lon="17.71757">
        <ele>70.545901</ele>
        <time>2022-06-11T13:28:17.052Z</time>
      </trkpt>
      <trkpt lat="43.03781" lon="17.71744">
        <ele>70.947072</ele>
        <time>2022-06-11T13:28:22.049Z</time>
      </trkpt>
      <trkpt lat="43.0378" lon="17.71729">
        <ele>71.370332</ele>
        <time>2022-06-11T13:28:27.024Z</time>
      </trkpt>
      <trkpt lat="43.03782" lon="17.71715">
        <ele>71.785122</ele>
        <time>2022-06-11T13:28:32.034Z</time>
      </trkpt>
      <trkpt lat="43.03784" lon="17.71701">
        <ele>72.19621</ele>
        <time>2022-06-11T13:28:37.060Z</time>
      </trkpt>
      <trkpt lat="43.03788" lon="17.71688">
        <ele>72.593743</ele>
        <time>2022-06-11T13:28:43.016Z</time>
      </trkpt>
      <trkpt lat="43.03793" lon="17.71676">
        <ele>73.092271</ele>
        <time>2022-06-11T13:28:50.051Z</time>
      </trkpt>
      <trkpt lat="43.03799" lon="17.71664">
        <ele>73.88196</ele>
        <time>2022-06-11T13:28:56.070Z</time>
      </trkpt>
      <trkpt lat="43.03805" lon="17.71653">
        <ele>74.658392</ele>
        <time>2022-06-11T13:29:02.027Z</time>
      </trkpt>
      <trkpt lat="43.03811" lon="17.71643">
        <ele>75.413379</ele>
        <time>2022-06-11T13:29:09.054Z</time>
      </trkpt>
      <trkpt lat="43.03819" lon="17.71635">
        <ele>76.169224</ele>
        <time>2022-06-11T13:29:15.030Z</time>
      </trkpt>
      <trkpt lat="43.03827" lon="17.71629">
        <ele>76.871634</ele>
        <time>2022-06-11T13:29:21.016Z</time>
      </trkpt>
      <trkpt lat="43.03835" lon="17.71621">
        <ele>77.646592</ele>
        <time>2022-06-11T13:29:29.055Z</time>
      </trkpt>
      <trkpt lat="43.03842" lon="17.71612">
        <ele>78.355331</ele>
        <time>2022-06-11T13:29:36.024Z</time>
      </trkpt>
      <trkpt lat="43.03849" lon="17.71602">
        <ele>79.112728</ele>
        <time>2022-06-11T13:29:44.020Z</time>
      </trkpt>
      <trkpt lat="43.03854" lon="17.71591">
        <ele>79.891275</ele>
        <time>2022-06-11T13:29:52.033Z</time>
      </trkpt>
      <trkpt lat="43.03859" lon="17.7158">
        <ele>80.599956</ele>
        <time>2022-06-11T13:29:59.033Z</time>
      </trkpt>
      <trkpt lat="43.03864" lon="17.71569">
        <ele>81.294998</ele>
        <time>2022-06-11T13:30:06.020Z</time>
      </trkpt>
      <trkpt lat="43.03868" lon="17.71558">
        <ele>82.029686</ele>
        <time>2022-06-11T13:30:13.023Z</time>
      </trkpt>
      <trkpt lat="43.03872" lon="17.71546">
        <ele>82.774478</ele>
        <time>2022-06-11T13:30:20.033Z</time>
      </trkpt>
      <trkpt lat="43.03877" lon="17.71534">
        <ele>83.534828</ele>
        <time>2022-06-11T13:30:28.033Z</time>
      </trkpt>
      <trkpt lat="43.03882" lon="17.71523">
        <ele>84.239855</ele>
        <time>2022-06-11T13:30:36.014Z</time>
      </trkpt>
      <trkpt lat="43.03885" lon="17.71512">
        <ele>84.939423</ele>
        <time>2022-06-11T13:30:43.027Z</time>
      </trkpt>
      <trkpt lat="43.0389" lon="17.71501">
        <ele>85.663552</ele>
        <time>2022-06-11T13:30:51.056Z</time>
      </trkpt>
      <trkpt lat="43.03893" lon="17.71489">
        <ele>86.395668</ele>
        <time>2022-06-11T13:31:00.015Z</time>
      </trkpt>
      <trkpt lat="43.03898" lon="17.71478">
        <ele>86.637231</ele>
        <time>2022-06-11T13:31:07.040Z</time>
      </trkpt>
      <trkpt lat="43.03902" lon="17.71466">
        <ele>86.470285</ele>
        <time>2022-06-11T13:31:14.016Z</time>
      </trkpt>
      <trkpt lat="43.03905" lon="17.71455">
        <ele>86.303144</ele>
        <time>2022-06-11T13:31:21.033Z</time>
      </trkpt>
      <trkpt lat="43.03908" lon="17.71441">
        <ele>86.117891</ele>
        <time>2022-06-11T13:31:28.062Z</time>
      </trkpt>
      <trkpt lat="43.03909" lon="17.71427">
        <ele>85.931349</ele>
        <time>2022-06-11T13:31:35.029Z</time>
      </trkpt>
      <trkpt lat="43.03909" lon="17.71415">
        <ele>85.766076</ele>
        <time>2022-06-11T13:31:41.030Z</time>
      </trkpt>
      <trkpt lat="43.0391" lon="17.71402">
        <ele>85.597348</ele>
        <time>2022-06-11T13:31:47.017Z</time>
      </trkpt>
      <trkpt lat="43.03909" lon="17.71389">
        <ele>85.414614</ele>
        <time>2022-06-11T13:31:52.032Z</time>
      </trkpt>
      <trkpt lat="43.0391" lon="17.71375">
        <ele>85.233276</ele>
        <time>2022-06-11T13:31:57.032Z</time>
      </trkpt>
      <trkpt lat="43.03909" lon="17.71361">
        <ele>85.047797</ele>
        <time>2022-06-11T13:32:02.079Z</time>
      </trkpt>
      <trkpt lat="43.03909" lon="17.71348">
        <ele>84.873053</ele>
        <time>2022-06-11T13:32:07.027Z</time>
      </trkpt>
      <trkpt lat="43.0391" lon="17.71335">
        <ele>84.692798</ele>
        <time>2022-06-11T13:32:12.051Z</time>
      </trkpt>
      <trkpt lat="43.03912" lon="17.71321">
        <ele>84.505295</ele>
        <time>2022-06-11T13:32:17.024Z</time>
      </trkpt>
      <trkpt lat="43.03913" lon="17.71307">
        <ele>84.322261</ele>
        <time>2022-06-11T13:32:22.025Z</time>
      </trkpt>
      <trkpt lat="43.03916" lon="17.71294">
        <ele>84.14438</ele>
        <time>2022-06-11T13:32:27.044Z</time>
      </trkpt>
      <trkpt lat="43.03919" lon="17.7128">
        <ele>83.944498</ele>
        <time>2022-06-11T13:32:31.056Z</time>
      </trkpt>
      <trkpt lat="43.03923" lon="17.71267">
        <ele>83.749195</ele>
        <time>2022-06-11T13:32:34.024Z</time>
      </trkpt>
      <trkpt lat="43.03933" lon="17.71255">
        <ele>83.513426</ele>
        <time>2022-06-11T13:32:37.026Z</time>
      </trkpt>
      <trkpt lat="43.03942" lon="17.71249">
        <ele>83.206426</ele>
        <time>2022-06-11T13:32:39.013Z</time>
      </trkpt>
      <trkpt lat="43.03952" lon="17.71245">
        <ele>82.805088</ele>
        <time>2022-06-11T13:32:41.035Z</time>
      </trkpt>
      <trkpt lat="43.03962" lon="17.71241">
        <ele>82.382055</ele>
        <time>2022-06-11T13:32:43.016Z</time>
      </trkpt>
      <trkpt lat="43.03973" lon="17.71238">
        <ele>81.947754</ele>
        <time>2022-06-11T13:32:45.047Z</time>
      </trkpt>
      <trkpt lat="43.03985" lon="17.71235">
        <ele>81.496562</ele>
        <time>2022-06-11T13:32:47.095Z</time>
      </trkpt>
      <trkpt lat="43.03996" lon="17.71231">
        <ele>81.037811</ele>
        <time>2022-06-11T13:32:49.017Z</time>
      </trkpt>
      <trkpt lat="43.04008" lon="17.71228">
        <ele>80.577209</ele>
        <time>2022-06-11T13:32:51.029Z</time>
      </trkpt>
      <trkpt lat="43.0402" lon="17.71224">
        <ele>80.095837</ele>
        <time>2022-06-11T13:32:53.018Z</time>
      </trkpt>
      <trkpt lat="43.04033" lon="17.7122">
        <ele>79.584342</ele>
        <time>2022-06-11T13:32:55.040Z</time>
      </trkpt>
      <trkpt lat="43.04047" lon="17.71215">
        <ele>79.041425</ele>
        <time>2022-06-11T13:32:57.020Z</time>
      </trkpt>
      <trkpt lat="43.0406" lon="17.7121">
        <ele>78.501237</ele>
        <time>2022-06-11T13:32:59.013Z</time>
      </trkpt>
      <trkpt lat="43.04073" lon="17.71203">
        <ele>77.954255</ele>
        <time>2022-06-11T13:33:01.043Z</time>
      </trkpt>
      <trkpt lat="43.04085" lon="17.71194">
        <ele>77.417511</ele>
        <time>2022-06-11T13:33:03.027Z</time>
      </trkpt>
      <trkpt lat="43.04097" lon="17.71184">
        <ele>76.889073</ele>
        <time>2022-06-11T13:33:05.023Z</time>
      </trkpt>
      <trkpt lat="43.04107" lon="17.71171">
        <ele>76.370043</ele>
        <time>2022-06-11T13:33:07.028Z</time>
      </trkpt>
      <trkpt lat="43.04115" lon="17.71155">
        <ele>75.863293</ele>
        <time>2022-06-11T13:33:09.035Z</time>
      </trkpt>
      <trkpt lat="43.04121" lon="17.71138">
        <ele>75.348375</ele>
        <time>2022-06-11T13:33:11.024Z</time>
      </trkpt>
      <trkpt lat="43.04126" lon="17.71119">
        <ele>74.831097</ele>
        <time>2022-06-11T13:33:13.024Z</time>
      </trkpt>
      <trkpt lat="43.04129" lon="17.71099">
        <ele>74.282862</ele>
        <time>2022-06-11T13:33:15.021Z</time>
      </trkpt>
      <trkpt lat="43.04132" lon="17.71078">
        <ele>73.717136</ele>
        <time>2022-06-11T13:33:17.014Z</time>
      </trkpt>
      <trkpt lat="43.04135" lon="17.71057">
        <ele>73.144109</ele>
        <time>2022-06-11T13:33:19.038Z</time>
      </trkpt>
      <trkpt lat="43.04138" lon="17.71037">
        <ele>72.600558</ele>
        <time>2022-06-11T13:33:21.025Z</time>
      </trkpt>
      <trkpt lat="43.04141" lon="17.71016">
        <ele>72.054918</ele>
        <time>2022-06-11T13:33:23.028Z</time>
      </trkpt>
      <trkpt lat="43.04146" lon="17.70998">
        <ele>71.541499</ele>
        <time>2022-06-11T13:33:25.027Z</time>
      </trkpt>
      <trkpt lat="43.04154" lon="17.70984">
        <ele>71.058394</ele>
        <time>2022-06-11T13:33:27.064Z</time>
      </trkpt>
      <trkpt lat="43.04167" lon="17.70975">
        <ele>70.545564</ele>
        <time>2022-06-11T13:33:29.059Z</time>
      </trkpt>
      <trkpt lat="43.0418" lon="17.70971">
        <ele>70.063596</ele>
        <time>2022-06-11T13:33:31.028Z</time>
      </trkpt>
      <trkpt lat="43.04192" lon="17.70976">
        <ele>69.721615</ele>
        <time>2022-06-11T13:33:33.025Z</time>
      </trkpt>
      <trkpt lat="43.04204" lon="17.70981">
        <ele>69.436965</ele>
        <time>2022-06-11T13:33:35.068Z</time>
      </trkpt>
      <trkpt lat="43.04214" lon="17.70984">
        <ele>69.174808</ele>
        <time>2022-06-11T13:33:37.035Z</time>
      </trkpt>
      <trkpt lat="43.04225" lon="17.70986">
        <ele>68.925423</ele>
        <time>2022-06-11T13:33:39.022Z</time>
      </trkpt>
      <trkpt lat="43.04236" lon="17.70985">
        <ele>68.66217</ele>
        <time>2022-06-11T13:33:41.023Z</time>
      </trkpt>
      <trkpt lat="43.04246" lon="17.70978">
        <ele>68.387548</ele>
        <time>2022-06-11T13:33:43.020Z</time>
      </trkpt>
      <trkpt lat="43.04255" lon="17.70966">
        <ele>68.088571</ele>
        <time>2022-06-11T13:33:45.028Z</time>
      </trkpt>
      <trkpt lat="43.04261" lon="17.70951">
        <ele>67.789354</ele>
        <time>2022-06-11T13:33:47.029Z</time>
      </trkpt>
      <trkpt lat="43.04267" lon="17.70934">
        <ele>67.475752</ele>
        <time>2022-06-11T13:33:49.049Z</time>
      </trkpt>
      <trkpt lat="43.04273" lon="17.70918">
        <ele>67.149054</ele>
        <time>2022-06-11T13:33:51.016Z</time>
      </trkpt>
      <trkpt lat="43.04282" lon="17.70901">
        <ele>66.791761</ele>
        <time>2022-06-11T13:33:53.027Z</time>
      </trkpt>
      <trkpt lat="43.04293" lon="17.7089">
        <ele>66.454087</ele>
        <time>2022-06-11T13:33:55.052Z</time>
      </trkpt>
      <trkpt lat="43.04305" lon="17.70882">
        <ele>66.134611</ele>
        <time>2022-06-11T13:33:57.024Z</time>
      </trkpt>
      <trkpt lat="43.04318" lon="17.70876">
        <ele>65.817705</ele>
        <time>2022-06-11T13:33:59.030Z</time>
      </trkpt>
      <trkpt lat="43.0433" lon="17.70872">
        <ele>65.253377</ele>
        <time>2022-06-11T13:34:01.033Z</time>
      </trkpt>
      <trkpt lat="43.04341" lon="17.70867">
        <ele>64.543994</ele>
        <time>2022-06-11T13:34:03.039Z</time>
      </trkpt>
      <trkpt lat="43.04351" lon="17.7086">
        <ele>63.824614</ele>
        <time>2022-06-11T13:34:05.033Z</time>
      </trkpt>
      <trkpt lat="43.04363" lon="17.70852">
        <ele>63.02271</ele>
        <time>2022-06-11T13:34:07.028Z</time>
      </trkpt>
      <trkpt lat="43.04372" lon="17.70839">
        <ele>62.216457</ele>
        <time>2022-06-11T13:34:09.023Z</time>
      </trkpt>
      <trkpt lat="43.04379" lon="17.70824">
        <ele>61.391469</ele>
        <time>2022-06-11T13:34:11.030Z</time>
      </trkpt>
      <trkpt lat="43.04387" lon="17.70808">
        <ele>60.532741</ele>
        <time>2022-06-11T13:34:13.029Z</time>
      </trkpt>
      <trkpt lat="43.04395" lon="17.70792">
        <ele>59.609414</ele>
        <time>2022-06-11T13:34:15.030Z</time>
      </trkpt>
      <trkpt lat="43.04405" lon="17.70775">
        <ele>58.670443</ele>
        <time>2022-06-11T13:34:17.010Z</time>
      </trkpt>
      <trkpt lat="43.04414" lon="17.70763">
        <ele>57.847034</ele>
        <time>2022-06-11T13:34:19.022Z</time>
      </trkpt>
      <trkpt lat="43.04423" lon="17.70751">
        <ele>57.079351</ele>
        <time>2022-06-11T13:34:21.024Z</time>
      </trkpt>
      <trkpt lat="43.04433" lon="17.7074">
        <ele>56.29422</ele>
        <time>2022-06-11T13:34:23.055Z</time>
      </trkpt>
      <trkpt lat="43.04444" lon="17.70729">
        <ele>55.442889</ele>
        <time>2022-06-11T13:34:25.013Z</time>
      </trkpt>
      <trkpt lat="43.04455" lon="17.70718">
        <ele>54.599615</ele>
        <time>2022-06-11T13:34:27.040Z</time>
      </trkpt>
      <trkpt lat="43.04466" lon="17.70707">
        <ele>54.180432</ele>
        <time>2022-06-11T13:34:29.050Z</time>
      </trkpt>
      <trkpt lat="43.04477" lon="17.70696">
        <ele>53.792497</ele>
        <time>2022-06-11T13:34:31.021Z</time>
      </trkpt>
      <trkpt lat="43.04489" lon="17.70684">
        <ele>53.385966</ele>
        <time>2022-06-11T13:34:33.035Z</time>
      </trkpt>
      <trkpt lat="43.045" lon="17.70672">
        <ele>52.981393</ele>
        <time>2022-06-11T13:34:35.018Z</time>
      </trkpt>
      <trkpt lat="43.04512" lon="17.7066">
        <ele>52.582117</ele>
        <time>2022-06-11T13:34:37.019Z</time>
      </trkpt>
      <trkpt lat="43.04524" lon="17.70648">
        <ele>52.167681</ele>
        <time>2022-06-11T13:34:39.033Z</time>
      </trkpt>
      <trkpt lat="43.04536" lon="17.70637">
        <ele>51.763801</ele>
        <time>2022-06-11T13:34:41.036Z</time>
      </trkpt>
      <trkpt lat="43.04548" lon="17.70626">
        <ele>51.375983</ele>
        <time>2022-06-11T13:34:43.031Z</time>
      </trkpt>
      <trkpt lat="43.04558" lon="17.70616">
        <ele>51.008809</ele>
        <time>2022-06-11T13:34:45.061Z</time>
      </trkpt>
      <trkpt lat="43.04568" lon="17.70605">
        <ele>50.670987</ele>
        <time>2022-06-11T13:34:47.064Z</time>
      </trkpt>
      <trkpt lat="43.04576" lon="17.70595">
        <ele>50.349799</ele>
        <time>2022-06-11T13:34:49.023Z</time>
      </trkpt>
      <trkpt lat="43.04584" lon="17.70584">
        <ele>50.048545</ele>
        <time>2022-06-11T13:34:51.017Z</time>
      </trkpt>
      <trkpt lat="43.04591" lon="17.70572">
        <ele>49.74729</ele>
        <time>2022-06-11T13:34:53.023Z</time>
      </trkpt>
      <trkpt lat="43.04598" lon="17.70563">
        <ele>49.550369</ele>
        <time>2022-06-11T13:34:55.008Z</time>
      </trkpt>
      <trkpt lat="43.04604" lon="17.70554">
        <ele>49.708259</ele>
        <time>2022-06-11T13:34:57.028Z</time>
      </trkpt>
      <trkpt lat="43.04613" lon="17.70541">
        <ele>49.922434</ele>
        <time>2022-06-11T13:35:00.014Z</time>
      </trkpt>
      <trkpt lat="43.0462" lon="17.70528">
        <ele>50.119421</ele>
        <time>2022-06-11T13:35:03.017Z</time>
      </trkpt>
      <trkpt lat="43.04626" lon="17.70516">
        <ele>50.308395</ele>
        <time>2022-06-11T13:35:06.017Z</time>
      </trkpt>
      <trkpt lat="43.04632" lon="17.70503">
        <ele>50.492668</ele>
        <time>2022-06-11T13:35:09.023Z</time>
      </trkpt>
      <trkpt lat="43.04637" lon="17.70491">
        <ele>50.669132</ele>
        <time>2022-06-11T13:35:12.018Z</time>
      </trkpt>
      <trkpt lat="43.04641" lon="17.70479">
        <ele>50.833525</ele>
        <time>2022-06-11T13:35:15.036Z</time>
      </trkpt>
      <trkpt lat="43.04648" lon="17.70466">
        <ele>51.019581</ele>
        <time>2022-06-11T13:35:18.032Z</time>
      </trkpt>
      <trkpt lat="43.04654" lon="17.70454">
        <ele>51.204571</ele>
        <time>2022-06-11T13:35:21.025Z</time>
      </trkpt>
      <trkpt lat="43.0466" lon="17.70442">
        <ele>51.383604</ele>
        <time>2022-06-11T13:35:24.066Z</time>
      </trkpt>
      <trkpt lat="43.04667" lon="17.70431">
        <ele>51.565346</ele>
        <time>2022-06-11T13:35:27.015Z</time>
      </trkpt>
      <trkpt lat="43.04674" lon="17.7042">
        <ele>51.743924</ele>
        <time>2022-06-11T13:35:30.018Z</time>
      </trkpt>
      <trkpt lat="43.04682" lon="17.70409">
        <ele>51.937311</ele>
        <time>2022-06-11T13:35:33.015Z</time>
      </trkpt>
      <trkpt lat="43.04689" lon="17.70398">
        <ele>52.119537</ele>
        <time>2022-06-11T13:35:36.025Z</time>
      </trkpt>
      <trkpt lat="43.04696" lon="17.70388">
        <ele>52.290123</ele>
        <time>2022-06-11T13:35:39.029Z</time>
      </trkpt>
      <trkpt lat="43.04703" lon="17.70379">
        <ele>52.462527</ele>
        <time>2022-06-11T13:35:42.023Z</time>
      </trkpt>
      <trkpt lat="43.04711" lon="17.70369">
        <ele>52.781538</ele>
        <time>2022-06-11T13:35:45.027Z</time>
      </trkpt>
      <trkpt lat="43.04718" lon="17.7036">
        <ele>53.337897</ele>
        <time>2022-06-11T13:35:48.035Z</time>
      </trkpt>
      <trkpt lat="43.04725" lon="17.70351">
        <ele>53.862505</ele>
        <time>2022-06-11T13:35:51.043Z</time>
      </trkpt>
      <trkpt lat="43.04732" lon="17.70342">
        <ele>54.40858</ele>
        <time>2022-06-11T13:35:54.026Z</time>
      </trkpt>
      <trkpt lat="43.0474" lon="17.70334">
        <ele>54.924099</ele>
        <time>2022-06-11T13:35:57.024Z</time>
      </trkpt>
      <trkpt lat="43.04747" lon="17.70326">
        <ele>55.452129</ele>
        <time>2022-06-11T13:36:00.027Z</time>
      </trkpt>
      <trkpt lat="43.04756" lon="17.70317">
        <ele>56.100146</ele>
        <time>2022-06-11T13:36:04.085Z</time>
      </trkpt>
      <trkpt lat="43.04766" lon="17.70307">
        <ele>56.74667</ele>
        <time>2022-06-11T13:36:08.018Z</time>
      </trkpt>
      <trkpt lat="43.04774" lon="17.703">
        <ele>57.259945</ele>
        <time>2022-06-11T13:36:12.016Z</time>
      </trkpt>
      <trkpt lat="43.0478" lon="17.70292">
        <ele>57.773414</ele>
        <time>2022-06-11T13:36:16.020Z</time>
      </trkpt>
      <trkpt lat="43.04787" lon="17.70281">
        <ele>58.334165</ele>
        <time>2022-06-11T13:36:21.150Z</time>
      </trkpt>
      <trkpt lat="43.04794" lon="17.70271">
        <ele>58.88995</ele>
        <time>2022-06-11T13:36:27.019Z</time>
      </trkpt>
      <trkpt lat="43.048" lon="17.70261">
        <ele>59.456189</ele>
        <time>2022-06-11T13:36:33.038Z</time>
      </trkpt>
      <trkpt lat="43.04805" lon="17.70248">
        <ele>60.03309</ele>
        <time>2022-06-11T13:36:39.020Z</time>
      </trkpt>
      <trkpt lat="43.04807" lon="17.70234">
        <ele>60.58825</ele>
        <time>2022-06-11T13:36:46.027Z</time>
      </trkpt>
      <trkpt lat="43.04808" lon="17.70222">
        <ele>61.093801</ele>
        <time>2022-06-11T13:36:52.024Z</time>
      </trkpt>
      <trkpt lat="43.04809" lon="17.70209">
        <ele>61.608037</ele>
        <time>2022-06-11T13:36:58.019Z</time>
      </trkpt>
      <trkpt lat="43.04812" lon="17.70196">
        <ele>62.179142</ele>
        <time>2022-06-11T13:37:05.051Z</time>
      </trkpt>
      <trkpt lat="43.04814" lon="17.70183">
        <ele>62.571688</ele>
        <time>2022-06-11T13:37:11.036Z</time>
      </trkpt>
      <trkpt lat="43.04819" lon="17.70172">
        <ele>62.669079</ele>
        <time>2022-06-11T13:37:16.025Z</time>
      </trkpt>
      <trkpt lat="43.04826" lon="17.70164">
        <ele>62.766644</ele>
        <time>2022-06-11T13:37:21.058Z</time>
      </trkpt>
      <trkpt lat="43.04834" lon="17.70158">
        <ele>62.867293</ele>
        <time>2022-06-11T13:37:26.016Z</time>
      </trkpt>
      <trkpt lat="43.04843" lon="17.70154">
        <ele>62.965916</ele>
        <time>2022-06-11T13:37:31.034Z</time>
      </trkpt>
      <trkpt lat="43.04853" lon="17.70149">
        <ele>63.078648</ele>
        <time>2022-06-11T13:37:37.023Z</time>
      </trkpt>
      <trkpt lat="43.04862" lon="17.70143">
        <ele>63.184058</ele>
        <time>2022-06-11T13:37:44.029Z</time>
      </trkpt>
      <trkpt lat="43.04871" lon="17.7014">
        <ele>63.2834</ele>
        <time>2022-06-11T13:37:50.024Z</time>
      </trkpt>
      <trkpt lat="43.0488" lon="17.70139">
        <ele>63.387007</ele>
        <time>2022-06-11T13:37:56.029Z</time>
      </trkpt>
      <trkpt lat="43.04891" lon="17.70139">
        <ele>63.496849</ele>
        <time>2022-06-11T13:38:02.024Z</time>
      </trkpt>
      <trkpt lat="43.04901" lon="17.70139">
        <ele>63.602447</ele>
        <time>2022-06-11T13:38:08.012Z</time>
      </trkpt>
      <trkpt lat="43.04911" lon="17.70141">
        <ele>63.712805</ele>
        <time>2022-06-11T13:38:14.066Z</time>
      </trkpt>
      <trkpt lat="43.04921" lon="17.70141">
        <ele>63.818403</ele>
        <time>2022-06-11T13:38:20.024Z</time>
      </trkpt>
      <trkpt lat="43.04931" lon="17.70142">
        <ele>63.926369</ele>
        <time>2022-06-11T13:38:27.048Z</time>
      </trkpt>
      <trkpt lat="43.04941" lon="17.70143">
        <ele>64.032062</ele>
        <time>2022-06-11T13:38:33.028Z</time>
      </trkpt>
      <trkpt lat="43.04951" lon="17.70145">
        <ele>64.1395</ele>
        <time>2022-06-11T13:38:40.023Z</time>
      </trkpt>
      <trkpt lat="43.0496" lon="17.70145">
        <ele>64.240836</ele>
        <time>2022-06-11T13:38:48.047Z</time>
      </trkpt>
      <trkpt lat="43.04969" lon="17.70143">
        <ele>64.338451</ele>
        <time>2022-06-11T13:38:56.021Z</time>
      </trkpt>
      <trkpt lat="43.04979" lon="17.70144">
        <ele>64.438975</ele>
        <time>2022-06-11T13:39:02.006Z</time>
      </trkpt>
      <trkpt lat="43.04988" lon="17.7015">
        <ele>64.413962</ele>
        <time>2022-06-11T13:39:05.036Z</time>
      </trkpt>
      <trkpt lat="43.05001" lon="17.70155">
        <ele>64.341983</ele>
        <time>2022-06-11T13:39:08.019Z</time>
      </trkpt>
      <trkpt lat="43.0501" lon="17.70157">
        <ele>64.292117</ele>
        <time>2022-06-11T13:39:10.021Z</time>
      </trkpt>
      <trkpt lat="43.05022" lon="17.7016">
        <ele>64.226744</ele>
        <time>2022-06-11T13:39:13.050Z</time>
      </trkpt>
      <trkpt lat="43.05034" lon="17.70166">
        <ele>64.158353</ele>
        <time>2022-06-11T13:39:16.030Z</time>
      </trkpt>
      <trkpt lat="43.05047" lon="17.70172">
        <ele>64.086407</ele>
        <time>2022-06-11T13:39:19.027Z</time>
      </trkpt>
      <trkpt lat="43.05057" lon="17.70174">
        <ele>64.03318</ele>
        <time>2022-06-11T13:39:21.027Z</time>
      </trkpt>
      <trkpt lat="43.05066" lon="17.70176">
        <ele>63.983669</ele>
        <time>2022-06-11T13:39:23.014Z</time>
      </trkpt>
      <trkpt lat="43.05077" lon="17.70182">
        <ele>63.918697</ele>
        <time>2022-06-11T13:39:26.030Z</time>
      </trkpt>
      <trkpt lat="43.05086" lon="17.70194">
        <ele>63.848956</ele>
        <time>2022-06-11T13:39:29.061Z</time>
      </trkpt>
      <trkpt lat="43.05094" lon="17.70204">
        <ele>63.795415</ele>
        <time>2022-06-11T13:39:31.003Z</time>
      </trkpt>
      <trkpt lat="43.05101" lon="17.70214">
        <ele>63.739125</ele>
        <time>2022-06-11T13:39:33.008Z</time>
      </trkpt>
      <trkpt lat="43.05109" lon="17.70223">
        <ele>63.682775</ele>
        <time>2022-06-11T13:39:35.014Z</time>
      </trkpt>
      <trkpt lat="43.05118" lon="17.70232">
        <ele>63.623067</ele>
        <time>2022-06-11T13:39:37.031Z</time>
      </trkpt>
      <trkpt lat="43.05128" lon="17.70242">
        <ele>63.557942</ele>
        <time>2022-06-11T13:39:39.053Z</time>
      </trkpt>
      <trkpt lat="43.05137" lon="17.70253">
        <ele>63.49377</ele>
        <time>2022-06-11T13:39:41.040Z</time>
      </trkpt>
      <trkpt lat="43.05145" lon="17.70264">
        <ele>63.378908</ele>
        <time>2022-06-11T13:39:43.025Z</time>
      </trkpt>
      <trkpt lat="43.05153" lon="17.70274">
        <ele>63.263069</ele>
        <time>2022-06-11T13:39:45.038Z</time>
      </trkpt>
      <trkpt lat="43.05162" lon="17.70285">
        <ele>63.148429</ele>
        <time>2022-06-11T13:39:47.019Z</time>
      </trkpt>
      <trkpt lat="43.0517" lon="17.70295">
        <ele>63.035517</ele>
        <time>2022-06-11T13:39:49.041Z</time>
      </trkpt>
      <trkpt lat="43.05179" lon="17.70306">
        <ele>62.921413</ele>
        <time>2022-06-11T13:39:51.021Z</time>
      </trkpt>
      <trkpt lat="43.05187" lon="17.70316">
        <ele>62.804077</ele>
        <time>2022-06-11T13:39:53.021Z</time>
      </trkpt>
      <trkpt lat="43.05196" lon="17.70327">
        <ele>62.683502</ele>
        <time>2022-06-11T13:39:55.017Z</time>
      </trkpt>
      <trkpt lat="43.05205" lon="17.70338">
        <ele>62.561946</ele>
        <time>2022-06-11T13:39:57.028Z</time>
      </trkpt>
      <trkpt lat="43.05214" lon="17.7035">
        <ele>62.433191</ele>
        <time>2022-06-11T13:39:59.063Z</time>
      </trkpt>
      <trkpt lat="43.05223" lon="17.70361">
        <ele>62.313877</ele>
        <time>2022-06-11T13:40:01.040Z</time>
      </trkpt>
      <trkpt lat="43.05231" lon="17.70373">
        <ele>62.192619</ele>
        <time>2022-06-11T13:40:03.026Z</time>
      </trkpt>
      <trkpt lat="43.05239" lon="17.70384">
        <ele>62.078567</ele>
        <time>2022-06-11T13:40:05.071Z</time>
      </trkpt>
      <trkpt lat="43.05247" lon="17.70395">
        <ele>61.967288</ele>
        <time>2022-06-11T13:40:07.031Z</time>
      </trkpt>
      <trkpt lat="43.05254" lon="17.70407">
        <ele>61.858969</ele>
        <time>2022-06-11T13:40:09.027Z</time>
      </trkpt>
      <trkpt lat="43.05259" lon="17.70418">
        <ele>61.764143</ele>
        <time>2022-06-11T13:40:11.030Z</time>
      </trkpt>
      <trkpt lat="43.05263" lon="17.70429">
        <ele>61.639737</ele>
        <time>2022-06-11T13:40:13.024Z</time>
      </trkpt>
      <trkpt lat="43.05268" lon="17.70441">
        <ele>61.379955</ele>
        <time>2022-06-11T13:40:14.993Z</time>
      </trkpt>
      <trkpt lat="43.05272" lon="17.70454">
        <ele>61.112147</ele>
        <time>2022-06-11T13:40:17.060Z</time>
      </trkpt>
      <trkpt lat="43.05275" lon="17.70467">
        <ele>60.835962</ele>
        <time>2022-06-11T13:40:19.014Z</time>
      </trkpt>
      <trkpt lat="43.05278" lon="17.7048">
        <ele>60.570794</ele>
        <time>2022-06-11T13:40:21.032Z</time>
      </trkpt>
      <trkpt lat="43.05282" lon="17.70492">
        <ele>60.317986</ele>
        <time>2022-06-11T13:40:23.041Z</time>
      </trkpt>
      <trkpt lat="43.05286" lon="17.70505">
        <ele>60.047446</ele>
        <time>2022-06-11T13:40:25.028Z</time>
      </trkpt>
      <trkpt lat="43.05292" lon="17.70518">
        <ele>59.755392</ele>
        <time>2022-06-11T13:40:27.028Z</time>
      </trkpt>
      <trkpt lat="43.05297" lon="17.70531">
        <ele>59.467216</ele>
        <time>2022-06-11T13:40:29.017Z</time>
      </trkpt>
      <trkpt lat="43.05303" lon="17.70545">
        <ele>59.163891</ele>
        <time>2022-06-11T13:40:31.062Z</time>
      </trkpt>
      <trkpt lat="43.0531" lon="17.70556">
        <ele>58.868589</ele>
        <time>2022-06-11T13:40:33.011Z</time>
      </trkpt>
      <trkpt lat="43.05317" lon="17.70566">
        <ele>58.601318</ele>
        <time>2022-06-11T13:40:35.016Z</time>
      </trkpt>
      <trkpt lat="43.05324" lon="17.70575">
        <ele>58.361569</ele>
        <time>2022-06-11T13:40:37.048Z</time>
      </trkpt>
      <trkpt lat="43.05332" lon="17.70584">
        <ele>58.082764</ele>
        <time>2022-06-11T13:40:40.027Z</time>
      </trkpt>
      <trkpt lat="43.05342" lon="17.7059">
        <ele>57.786635</ele>
        <time>2022-06-11T13:40:44.020Z</time>
      </trkpt>
      <trkpt lat="43.05352" lon="17.70594">
        <ele>57.520113</ele>
        <time>2022-06-11T13:40:47.022Z</time>
      </trkpt>
      <trkpt lat="43.05361" lon="17.70596">
        <ele>57.281203</ele>
        <time>2022-06-11T13:40:50.020Z</time>
      </trkpt>
      <trkpt lat="43.05368" lon="17.70602">
        <ele>57.038348</ele>
        <time>2022-06-11T13:40:52.030Z</time>
      </trkpt>
      <trkpt lat="43.05381" lon="17.70607">
        <ele>56.821401</ele>
        <time>2022-06-11T13:40:55.049Z</time>
      </trkpt>
      <trkpt lat="43.05392" lon="17.70607">
        <ele>56.688514</ele>
        <time>2022-06-11T13:40:58.007Z</time>
      </trkpt>
      <trkpt lat="43.05403" lon="17.70606">
        <ele>56.549264</ele>
        <time>2022-06-11T13:41:03.018Z</time>
      </trkpt>
      <trkpt lat="43.05412" lon="17.70601">
        <ele>56.430955</ele>
        <time>2022-06-11T13:41:09.049Z</time>
      </trkpt>
      <trkpt lat="43.05421" lon="17.70595">
        <ele>56.301138</ele>
        <time>2022-06-11T13:41:14.033Z</time>
      </trkpt>
      <trkpt lat="43.05432" lon="17.70592">
        <ele>56.16338</ele>
        <time>2022-06-11T13:41:19.037Z</time>
      </trkpt>
      <trkpt lat="43.05443" lon="17.70587">
        <ele>56.029283</ele>
        <time>2022-06-11T13:41:23.026Z</time>
      </trkpt>
      <trkpt lat="43.05452" lon="17.70581">
        <ele>55.906174</ele>
        <time>2022-06-11T13:41:26.018Z</time>
      </trkpt>
      <trkpt lat="43.05461" lon="17.70575">
        <ele>55.778164</ele>
        <time>2022-06-11T13:41:29.024Z</time>
      </trkpt>
      <trkpt lat="43.0547" lon="17.70568">
        <ele>55.647149</ele>
        <time>2022-06-11T13:41:32.022Z</time>
      </trkpt>
      <trkpt lat="43.05479" lon="17.70561">
        <ele>55.524386</ele>
        <time>2022-06-11T13:41:35.018Z</time>
      </trkpt>
      <trkpt lat="43.05488" lon="17.70556">
        <ele>55.407183</ele>
        <time>2022-06-11T13:41:38.021Z</time>
      </trkpt>
      <trkpt lat="43.05498" lon="17.70549">
        <ele>55.268365</ele>
        <time>2022-06-11T13:41:42.048Z</time>
      </trkpt>
      <trkpt lat="43.05506" lon="17.70542">
        <ele>55.152282</ele>
        <time>2022-06-11T13:41:46.028Z</time>
      </trkpt>
      <trkpt lat="43.05514" lon="17.70537">
        <ele>55.03738</ele>
        <time>2022-06-11T13:41:53.069Z</time>
      </trkpt>
      <trkpt lat="43.05524" lon="17.70531">
        <ele>54.906105</ele>
        <time>2022-06-11T13:42:00.028Z</time>
      </trkpt>
      <trkpt lat="43.05534" lon="17.70523">
        <ele>54.77017</ele>
        <time>2022-06-11T13:42:06.035Z</time>
      </trkpt>
      <trkpt lat="43.05544" lon="17.70516">
        <ele>54.575854</ele>
        <time>2022-06-11T13:42:11.053Z</time>
      </trkpt>
      <trkpt lat="43.05554" lon="17.7051">
        <ele>54.326426</ele>
        <time>2022-06-11T13:42:14.024Z</time>
      </trkpt>
      <trkpt lat="43.05565" lon="17.70502">
        <ele>54.082385</ele>
        <time>2022-06-11T13:42:17.032Z</time>
      </trkpt>
      <trkpt lat="43.05574" lon="17.70496">
        <ele>53.863483</ele>
        <time>2022-06-11T13:42:20.025Z</time>
      </trkpt>
      <trkpt lat="43.05583" lon="17.70491">
        <ele>53.658624</ele>
        <time>2022-06-11T13:42:23.020Z</time>
      </trkpt>
      <trkpt lat="43.05591" lon="17.70485">
        <ele>53.464672</ele>
        <time>2022-06-11T13:42:26.034Z</time>
      </trkpt>
      <trkpt lat="43.05601" lon="17.70477">
        <ele>53.222488</ele>
        <time>2022-06-11T13:42:30.029Z</time>
      </trkpt>
      <trkpt lat="43.05612" lon="17.7047">
        <ele>52.970471</ele>
        <time>2022-06-11T13:42:34.108Z</time>
      </trkpt>
      <trkpt lat="43.05621" lon="17.70464">
        <ele>52.766781</ele>
        <time>2022-06-11T13:42:37.028Z</time>
      </trkpt>
      <trkpt lat="43.05631" lon="17.70457">
        <ele>52.529281</ele>
        <time>2022-06-11T13:42:41.021Z</time>
      </trkpt>
      <trkpt lat="43.05641" lon="17.7045">
        <ele>52.29759</ele>
        <time>2022-06-11T13:42:45.022Z</time>
      </trkpt>
      <trkpt lat="43.05649" lon="17.70445">
        <ele>52.104797</ele>
        <time>2022-06-11T13:42:50.027Z</time>
      </trkpt>
      <trkpt lat="43.05658" lon="17.70438">
        <ele>51.888923</ele>
        <time>2022-06-11T13:42:56.088Z</time>
      </trkpt>
      <trkpt lat="43.05666" lon="17.70432">
        <ele>51.695286</ele>
        <time>2022-06-11T13:43:00.084Z</time>
      </trkpt>
      <trkpt lat="43.05678" lon="17.70428">
        <ele>51.435841</ele>
        <time>2022-06-11T13:43:04.012Z</time>
      </trkpt>
      <trkpt lat="43.05691" lon="17.70424">
        <ele>51.163896</ele>
        <time>2022-06-11T13:43:07.013Z</time>
      </trkpt>
      <trkpt lat="43.05702" lon="17.70418">
        <ele>50.931641</ele>
        <time>2022-06-11T13:43:10.031Z</time>
      </trkpt>
      <trkpt lat="43.0571" lon="17.70412">
        <ele>50.860346</ele>
        <time>2022-06-11T13:43:13.032Z</time>
      </trkpt>
      <trkpt lat="43.05717" lon="17.70404">
        <ele>50.789835</ele>
        <time>2022-06-11T13:43:16.024Z</time>
      </trkpt>
      <trkpt lat="43.05726" lon="17.70395">
        <ele>50.700718</ele>
        <time>2022-06-11T13:43:20.035Z</time>
      </trkpt>
      <trkpt lat="43.05735" lon="17.70389">
        <ele>50.628918</ele>
        <time>2022-06-11T13:43:23.037Z</time>
      </trkpt>
      <trkpt lat="43.05743" lon="17.70383">
        <ele>50.555484</ele>
        <time>2022-06-11T13:43:26.040Z</time>
      </trkpt>
      <trkpt lat="43.05751" lon="17.70376">
        <ele>50.483232</ele>
        <time>2022-06-11T13:43:29.025Z</time>
      </trkpt>
      <trkpt lat="43.0576" lon="17.7037">
        <ele>50.403514</ele>
        <time>2022-06-11T13:43:32.034Z</time>
      </trkpt>
      <trkpt lat="43.05769" lon="17.70363">
        <ele>50.31958</ele>
        <time>2022-06-11T13:43:35.026Z</time>
      </trkpt>
      <trkpt lat="43.05779" lon="17.70356">
        <ele>50.23209</ele>
        <time>2022-06-11T13:43:38.016Z</time>
      </trkpt>
      <trkpt lat="43.0579" lon="17.70348">
        <ele>50.142961</ele>
        <time>2022-06-11T13:43:41.024Z</time>
      </trkpt>
      <trkpt lat="43.05799" lon="17.70341">
        <ele>50.0578</ele>
        <time>2022-06-11T13:43:44.048Z</time>
      </trkpt>
      <trkpt lat="43.05808" lon="17.70334">
        <ele>49.975212</ele>
        <time>2022-06-11T13:43:47.057Z</time>
      </trkpt>
      <trkpt lat="43.05818" lon="17.70326">
        <ele>49.890866</ele>
        <time>2022-06-11T13:43:50.053Z</time>
      </trkpt>
      <trkpt lat="43.05828" lon="17.70317">
        <ele>49.797918</ele>
        <time>2022-06-11T13:43:53.039Z</time>
      </trkpt>
      <trkpt lat="43.05838" lon="17.70308">
        <ele>49.702709</ele>
        <time>2022-06-11T13:43:56.016Z</time>
      </trkpt>
      <trkpt lat="43.05848" lon="17.70298">
        <ele>49.608483</ele>
        <time>2022-06-11T13:43:59.036Z</time>
      </trkpt>
      <trkpt lat="43.05858" lon="17.70289">
        <ele>49.536384</ele>
        <time>2022-06-11T13:44:02.036Z</time>
      </trkpt>
      <trkpt lat="43.05867" lon="17.70278">
        <ele>49.511428</ele>
        <time>2022-06-11T13:44:05.027Z</time>
      </trkpt>
      <trkpt lat="43.05876" lon="17.70267">
        <ele>49.486327</ele>
        <time>2022-06-11T13:44:08.022Z</time>
      </trkpt>
      <trkpt lat="43.05884" lon="17.70257">
        <ele>49.461688</ele>
        <time>2022-06-11T13:44:11.032Z</time>
      </trkpt>
      <trkpt lat="43.05893" lon="17.70247">
        <ele>49.437843</ele>
        <time>2022-06-11T13:44:14.021Z</time>
      </trkpt>
      <trkpt lat="43.05902" lon="17.70237">
        <ele>49.413605</ele>
        <time>2022-06-11T13:44:17.057Z</time>
      </trkpt>
      <trkpt lat="43.0591" lon="17.70227">
        <ele>49.389901</ele>
        <time>2022-06-11T13:44:20.031Z</time>
      </trkpt>
      <trkpt lat="43.05919" lon="17.70216">
        <ele>49.366141</ele>
        <time>2022-06-11T13:44:23.041Z</time>
      </trkpt>
      <trkpt lat="43.05927" lon="17.70206">
        <ele>49.342644</ele>
        <time>2022-06-11T13:44:26.007Z</time>
      </trkpt>
      <trkpt lat="43.05935" lon="17.70195">
        <ele>49.319284</ele>
        <time>2022-06-11T13:44:29.035Z</time>
      </trkpt>
      <trkpt lat="43.05943" lon="17.70185">
        <ele>49.296503</ele>
        <time>2022-06-11T13:44:32.027Z</time>
      </trkpt>
      <trkpt lat="43.0595" lon="17.70174">
        <ele>49.273511</ele>
        <time>2022-06-11T13:44:35.028Z</time>
      </trkpt>
      <trkpt lat="43.05958" lon="17.70163">
        <ele>49.249953</ele>
        <time>2022-06-11T13:44:38.028Z</time>
      </trkpt>
      <trkpt lat="43.05965" lon="17.70151">
        <ele>49.22642</ele>
        <time>2022-06-11T13:44:41.038Z</time>
      </trkpt>
      <trkpt lat="43.05973" lon="17.7014">
        <ele>49.202772</ele>
        <time>2022-06-11T13:44:44.022Z</time>
      </trkpt>
      <trkpt lat="43.0598" lon="17.70128">
        <ele>49.179431</ele>
        <time>2022-06-11T13:44:47.022Z</time>
      </trkpt>
      <trkpt lat="43.05987" lon="17.70116">
        <ele>49.303751</ele>
        <time>2022-06-11T13:44:50.025Z</time>
      </trkpt>
      <trkpt lat="43.05994" lon="17.70106">
        <ele>49.595722</ele>
        <time>2022-06-11T13:44:53.025Z</time>
      </trkpt>
      <trkpt lat="43.06" lon="17.70094">
        <ele>49.89712</ele>
        <time>2022-06-11T13:44:56.026Z</time>
      </trkpt>
      <trkpt lat="43.06006" lon="17.70081">
        <ele>50.211944</ele>
        <time>2022-06-11T13:44:59.025Z</time>
      </trkpt>
      <trkpt lat="43.06012" lon="17.70069">
        <ele>50.520053</ele>
        <time>2022-06-11T13:45:02.049Z</time>
      </trkpt>
      <trkpt lat="43.06018" lon="17.70058">
        <ele>50.814966</ele>
        <time>2022-06-11T13:45:05.025Z</time>
      </trkpt>
      <trkpt lat="43.06024" lon="17.70046">
        <ele>51.10988</ele>
        <time>2022-06-11T13:45:08.016Z</time>
      </trkpt>
      <trkpt lat="43.06029" lon="17.70035">
        <ele>51.36523</ele>
        <time>2022-06-11T13:45:11.018Z</time>
      </trkpt>
      <trkpt lat="43.06034" lon="17.70025">
        <ele>51.625599</ele>
        <time>2022-06-11T13:45:15.025Z</time>
      </trkpt>
      <trkpt lat="43.06043" lon="17.70004">
        <ele>52.137296</ele>
        <time>2022-06-11T13:45:37.048Z</time>
      </trkpt>
      <trkpt lat="43.06049" lon="17.69992">
        <ele>52.424054</ele>
        <time>2022-06-11T13:45:41.056Z</time>
      </trkpt>
      <trkpt lat="43.06054" lon="17.69979">
        <ele>52.735389</ele>
        <time>2022-06-11T13:45:45.031Z</time>
      </trkpt>
      <trkpt lat="43.06058" lon="17.69968">
        <ele>53.001427</ele>
        <time>2022-06-11T13:45:48.023Z</time>
      </trkpt>
      <trkpt lat="43.06063" lon="17.69957">
        <ele>53.256776</ele>
        <time>2022-06-11T13:45:51.034Z</time>
      </trkpt>
      <trkpt lat="43.06069" lon="17.69944">
        <ele>53.574128</ele>
        <time>2022-06-11T13:45:54.024Z</time>
      </trkpt>
      <trkpt lat="43.06076" lon="17.69931">
        <ele>53.903986</ele>
        <time>2022-06-11T13:45:57.002Z</time>
      </trkpt>
      <trkpt lat="43.06082" lon="17.69918">
        <ele>54.2391</ele>
        <time>2022-06-11T13:46:00.031Z</time>
      </trkpt>
      <trkpt lat="43.06088" lon="17.69903">
        <ele>54.521019</ele>
        <time>2022-06-11T13:46:03.028Z</time>
      </trkpt>
      <trkpt lat="43.06095" lon="17.69888">
        <ele>54.807546</ele>
        <time>2022-06-11T13:46:06.025Z</time>
      </trkpt>
      <trkpt lat="43.06102" lon="17.69874">
        <ele>55.098047</ele>
        <time>2022-06-11T13:46:09.028Z</time>
      </trkpt>
      <trkpt lat="43.06108" lon="17.69864">
        <ele>55.30608</ele>
        <time>2022-06-11T13:46:11.037Z</time>
      </trkpt>
      <trkpt lat="43.06117" lon="17.69851">
        <ele>55.594816</ele>
        <time>2022-06-11T13:46:14.014Z</time>
      </trkpt>
      <trkpt lat="43.06126" lon="17.69839">
        <ele>55.870328</ele>
        <time>2022-06-11T13:46:17.018Z</time>
      </trkpt>
      <trkpt lat="43.06134" lon="17.69828">
        <ele>56.136916</ele>
        <time>2022-06-11T13:46:20.035Z</time>
      </trkpt>
      <trkpt lat="43.06143" lon="17.69817">
        <ele>56.401787</ele>
        <time>2022-06-11T13:46:23.031Z</time>
      </trkpt>
      <trkpt lat="43.06152" lon="17.69807">
        <ele>56.661586</ele>
        <time>2022-06-11T13:46:26.020Z</time>
      </trkpt>
      <trkpt lat="43.06162" lon="17.69798">
        <ele>56.928585</ele>
        <time>2022-06-11T13:46:29.025Z</time>
      </trkpt>
      <trkpt lat="43.06171" lon="17.69788">
        <ele>57.200181</ele>
        <time>2022-06-11T13:46:32.014Z</time>
      </trkpt>
      <trkpt lat="43.06181" lon="17.69779">
        <ele>57.473545</ele>
        <time>2022-06-11T13:46:35.033Z</time>
      </trkpt>
      <trkpt lat="43.06191" lon="17.69769">
        <ele>57.746105</ele>
        <time>2022-06-11T13:46:38.027Z</time>
      </trkpt>
      <trkpt lat="43.062" lon="17.69759">
        <ele>58.009935</ele>
        <time>2022-06-11T13:46:41.022Z</time>
      </trkpt>
      <trkpt lat="43.06209" lon="17.69749">
        <ele>58.261644</ele>
        <time>2022-06-11T13:46:44.025Z</time>
      </trkpt>
      <trkpt lat="43.06217" lon="17.69739">
        <ele>58.122694</ele>
        <time>2022-06-11T13:46:47.052Z</time>
      </trkpt>
      <trkpt lat="43.06225" lon="17.69727">
        <ele>57.864638</ele>
        <time>2022-06-11T13:46:50.022Z</time>
      </trkpt>
      <trkpt lat="43.06233" lon="17.69716">
        <ele>57.598421</ele>
        <time>2022-06-11T13:46:53.027Z</time>
      </trkpt>
      <trkpt lat="43.06242" lon="17.69704">
        <ele>57.323784</ele>
        <time>2022-06-11T13:46:56.020Z</time>
      </trkpt>
      <trkpt lat="43.06249" lon="17.69691">
        <ele>57.065085</ele>
        <time>2022-06-11T13:46:59.024Z</time>
      </trkpt>
      <trkpt lat="43.06257" lon="17.69679">
        <ele>56.807324</ele>
        <time>2022-06-11T13:47:02.006Z</time>
      </trkpt>
      <trkpt lat="43.06264" lon="17.69664">
        <ele>56.523787</ele>
        <time>2022-06-11T13:47:05.026Z</time>
      </trkpt>
      <trkpt lat="43.06269" lon="17.69654">
        <ele>56.32615</ele>
        <time>2022-06-11T13:47:07.031Z</time>
      </trkpt>
      <trkpt lat="43.06276" lon="17.6964">
        <ele>56.047912</ele>
        <time>2022-06-11T13:47:10.016Z</time>
      </trkpt>
      <trkpt lat="43.06283" lon="17.69627">
        <ele>55.785359</ele>
        <time>2022-06-11T13:47:13.028Z</time>
      </trkpt>
      <trkpt lat="43.06291" lon="17.69613">
        <ele>55.499252</ele>
        <time>2022-06-11T13:47:16.022Z</time>
      </trkpt>
      <trkpt lat="43.06299" lon="17.69599">
        <ele>55.206602</ele>
        <time>2022-06-11T13:47:19.028Z</time>
      </trkpt>
      <trkpt lat="43.06304" lon="17.69588">
        <ele>55.0002</ele>
        <time>2022-06-11T13:47:21.024Z</time>
      </trkpt>
      <trkpt lat="43.0631" lon="17.69578">
        <ele>54.790959</ele>
        <time>2022-06-11T13:47:23.015Z</time>
      </trkpt>
      <trkpt lat="43.06315" lon="17.69567">
        <ele>54.580366</ele>
        <time>2022-06-11T13:47:25.038Z</time>
      </trkpt>
      <trkpt lat="43.0632" lon="17.69555">
        <ele>54.364325</ele>
        <time>2022-06-11T13:47:27.051Z</time>
      </trkpt>
      <trkpt lat="43.06325" lon="17.69545">
        <ele>54.121044</ele>
        <time>2022-06-11T13:47:29.024Z</time>
      </trkpt>
      <trkpt lat="43.06333" lon="17.69529">
        <ele>53.749898</ele>
        <time>2022-06-11T13:47:32.026Z</time>
      </trkpt>
      <trkpt lat="43.06338" lon="17.69519">
        <ele>53.496713</ele>
        <time>2022-06-11T13:47:34.032Z</time>
      </trkpt>
      <trkpt lat="43.06343" lon="17.69509">
        <ele>53.251516</ele>
        <time>2022-06-11T13:47:36.030Z</time>
      </trkpt>
      <trkpt lat="43.06351" lon="17.69494">
        <ele>52.888602</ele>
        <time>2022-06-11T13:47:39.045Z</time>
      </trkpt>
      <trkpt lat="43.06356" lon="17.69483">
        <ele>52.618226</ele>
        <time>2022-06-11T13:47:41.032Z</time>
      </trkpt>
      <trkpt lat="43.06361" lon="17.69471">
        <ele>52.356097</ele>
        <time>2022-06-11T13:47:43.014Z</time>
      </trkpt>
      <trkpt lat="43.06366" lon="17.6946">
        <ele>52.083266</ele>
        <time>2022-06-11T13:47:45.051Z</time>
      </trkpt>
      <trkpt lat="43.06372" lon="17.69449">
        <ele>51.815546</ele>
        <time>2022-06-11T13:47:47.040Z</time>
      </trkpt>
      <trkpt lat="43.06378" lon="17.69439">
        <ele>51.557415</ele>
        <time>2022-06-11T13:47:49.030Z</time>
      </trkpt>
      <trkpt lat="43.06384" lon="17.69428">
        <ele>51.289715</ele>
        <time>2022-06-11T13:47:51.029Z</time>
      </trkpt>
      <trkpt lat="43.06389" lon="17.69416">
        <ele>51.013334</ele>
        <time>2022-06-11T13:47:53.026Z</time>
      </trkpt>
      <trkpt lat="43.06394" lon="17.69405">
        <ele>50.748075</ele>
        <time>2022-06-11T13:47:55.060Z</time>
      </trkpt>
      <trkpt lat="43.06399" lon="17.69394">
        <ele>50.495877</ele>
        <time>2022-06-11T13:47:57.054Z</time>
      </trkpt>
      <trkpt lat="43.06406" lon="17.6938">
        <ele>50.156612</ele>
        <time>2022-06-11T13:48:00.031Z</time>
      </trkpt>
      <trkpt lat="43.06413" lon="17.69366">
        <ele>49.817536</ele>
        <time>2022-06-11T13:48:03.017Z</time>
      </trkpt>
      <trkpt lat="43.06419" lon="17.69353">
        <ele>49.506285</ele>
        <time>2022-06-11T13:48:06.056Z</time>
      </trkpt>
      <trkpt lat="43.06423" lon="17.69342">
        <ele>49.380398</ele>
        <time>2022-06-11T13:48:08.024Z</time>
      </trkpt>
      <trkpt lat="43.06429" lon="17.69327">
        <ele>49.309644</ele>
        <time>2022-06-11T13:48:11.057Z</time>
      </trkpt>
      <trkpt lat="43.06433" lon="17.69314">
        <ele>49.254123</ele>
        <time>2022-06-11T13:48:14.031Z</time>
      </trkpt>
      <trkpt lat="43.06437" lon="17.693">
        <ele>49.192805</ele>
        <time>2022-06-11T13:48:18.031Z</time>
      </trkpt>
      <trkpt lat="43.06459" lon="17.69282">
        <ele>49.050687</ele>
        <time>2022-06-11T13:51:38.059Z</time>
      </trkpt>
      <trkpt lat="43.06466" lon="17.6927">
        <ele>48.990511</ele>
        <time>2022-06-11T13:51:42.033Z</time>
      </trkpt>
      <trkpt lat="43.06474" lon="17.69258">
        <ele>48.924537</ele>
        <time>2022-06-11T13:51:46.013Z</time>
      </trkpt>
      <trkpt lat="43.06481" lon="17.69248">
        <ele>48.867956</ele>
        <time>2022-06-11T13:51:49.022Z</time>
      </trkpt>
      <trkpt lat="43.06488" lon="17.69237">
        <ele>48.808812</ele>
        <time>2022-06-11T13:51:52.061Z</time>
      </trkpt>
      <trkpt lat="43.06495" lon="17.69227">
        <ele>48.751109</ele>
        <time>2022-06-11T13:51:55.028Z</time>
      </trkpt>
      <trkpt lat="43.06503" lon="17.69217">
        <ele>48.691578</ele>
        <time>2022-06-11T13:51:58.054Z</time>
      </trkpt>
      <trkpt lat="43.06511" lon="17.69207">
        <ele>48.631187</ele>
        <time>2022-06-11T13:52:01.026Z</time>
      </trkpt>
      <trkpt lat="43.0652" lon="17.69197">
        <ele>48.568406</ele>
        <time>2022-06-11T13:52:04.062Z</time>
      </trkpt>
      <trkpt lat="43.06528" lon="17.69186">
        <ele>48.505262</ele>
        <time>2022-06-11T13:52:07.034Z</time>
      </trkpt>
      <trkpt lat="43.06538" lon="17.69176">
        <ele>48.438264</ele>
        <time>2022-06-11T13:52:10.008Z</time>
      </trkpt>
      <trkpt lat="43.06547" lon="17.69167">
        <ele>48.393808</ele>
        <time>2022-06-11T13:52:13.054Z</time>
      </trkpt>
      <trkpt lat="43.06558" lon="17.69159">
        <ele>48.360881</ele>
        <time>2022-06-11T13:52:16.011Z</time>
      </trkpt>
      <trkpt lat="43.06569" lon="17.69151">
        <ele>48.327379</ele>
        <time>2022-06-11T13:52:19.033Z</time>
      </trkpt>
      <trkpt lat="43.06579" lon="17.69143">
        <ele>48.29426</ele>
        <time>2022-06-11T13:52:22.023Z</time>
      </trkpt>
      <trkpt lat="43.0659" lon="17.69136">
        <ele>48.262337</ele>
        <time>2022-06-11T13:52:25.025Z</time>
      </trkpt>
      <trkpt lat="43.066" lon="17.69129">
        <ele>48.230647</ele>
        <time>2022-06-11T13:52:28.041Z</time>
      </trkpt>
      <trkpt lat="43.06611" lon="17.69126">
        <ele>48.199701</ele>
        <time>2022-06-11T13:52:31.019Z</time>
      </trkpt>
      <trkpt lat="43.06624" lon="17.69128">
        <ele>48.163447</ele>
        <time>2022-06-11T13:52:34.016Z</time>
      </trkpt>
      <trkpt lat="43.06634" lon="17.69131">
        <ele>48.13613</ele>
        <time>2022-06-11T13:52:36.108Z</time>
      </trkpt>
      <trkpt lat="43.06644" lon="17.69135">
        <ele>48.107273</ele>
        <time>2022-06-11T13:52:38.014Z</time>
      </trkpt>
      <trkpt lat="43.06654" lon="17.69139">
        <ele>48.078434</ele>
        <time>2022-06-11T13:52:40.032Z</time>
      </trkpt>
      <trkpt lat="43.06664" lon="17.69142">
        <ele>48.050462</ele>
        <time>2022-06-11T13:52:42.036Z</time>
      </trkpt>
      <trkpt lat="43.06674" lon="17.69145">
        <ele>48.024338</ele>
        <time>2022-06-11T13:52:44.031Z</time>
      </trkpt>
      <trkpt lat="43.06683" lon="17.69146">
        <ele>47.997977</ele>
        <time>2022-06-11T13:52:46.018Z</time>
      </trkpt>
      <trkpt lat="43.06693" lon="17.69148">
        <ele>47.972474</ele>
        <time>2022-06-11T13:52:48.030Z</time>
      </trkpt>
      <trkpt lat="43.06706" lon="17.6915">
        <ele>47.936806</ele>
        <time>2022-06-11T13:52:51.034Z</time>
      </trkpt>
      <trkpt lat="43.06719" lon="17.69151">
        <ele>48.107562</ele>
        <time>2022-06-11T13:52:54.025Z</time>
      </trkpt>
      <trkpt lat="43.06731" lon="17.69153">
        <ele>48.409341</ele>
        <time>2022-06-11T13:52:57.034Z</time>
      </trkpt>
      <trkpt lat="43.06743" lon="17.69156">
        <ele>48.703552</ele>
        <time>2022-06-11T13:53:00.029Z</time>
      </trkpt>
      <trkpt lat="43.06756" lon="17.69157">
        <ele>49.001256</ele>
        <time>2022-06-11T13:53:03.068Z</time>
      </trkpt>
      <trkpt lat="43.06767" lon="17.69157">
        <ele>49.274076</ele>
        <time>2022-06-11T13:53:06.015Z</time>
      </trkpt>
      <trkpt lat="43.06779" lon="17.69157">
        <ele>49.556422</ele>
        <time>2022-06-11T13:53:09.019Z</time>
      </trkpt>
      <trkpt lat="43.06791" lon="17.69157">
        <ele>49.85314</ele>
        <time>2022-06-11T13:53:12.031Z</time>
      </trkpt>
      <trkpt lat="43.06804" lon="17.69155">
        <ele>50.158464</ele>
        <time>2022-06-11T13:53:15.049Z</time>
      </trkpt>
      <trkpt lat="43.06816" lon="17.69152">
        <ele>50.446531</ele>
        <time>2022-06-11T13:53:18.036Z</time>
      </trkpt>
      <trkpt lat="43.06828" lon="17.69149">
        <ele>50.738135</ele>
        <time>2022-06-11T13:53:21.024Z</time>
      </trkpt>
      <trkpt lat="43.06839" lon="17.69143">
        <ele>51.027937</ele>
        <time>2022-06-11T13:53:24.012Z</time>
      </trkpt>
      <trkpt lat="43.06849" lon="17.69137">
        <ele>51.293765</ele>
        <time>2022-06-11T13:53:27.043Z</time>
      </trkpt>
      <trkpt lat="43.0686" lon="17.69131">
        <ele>51.578403</ele>
        <time>2022-06-11T13:53:30.030Z</time>
      </trkpt>
      <trkpt lat="43.06872" lon="17.69125">
        <ele>51.865546</ele>
        <time>2022-06-11T13:53:33.029Z</time>
      </trkpt>
      <trkpt lat="43.06883" lon="17.6912">
        <ele>52.163805</ele>
        <time>2022-06-11T13:53:36.017Z</time>
      </trkpt>
      <trkpt lat="43.06895" lon="17.69114">
        <ele>52.242625</ele>
        <time>2022-06-11T13:53:39.031Z</time>
      </trkpt>
      <trkpt lat="43.06908" lon="17.6911">
        <ele>52.263651</ele>
        <time>2022-06-11T13:53:42.027Z</time>
      </trkpt>
      <trkpt lat="43.06919" lon="17.69106">
        <ele>52.283272</ele>
        <time>2022-06-11T13:53:45.022Z</time>
      </trkpt>
      <trkpt lat="43.0693" lon="17.69103">
        <ele>52.301511</ele>
        <time>2022-06-11T13:53:48.033Z</time>
      </trkpt>
      <trkpt lat="43.06941" lon="17.69102">
        <ele>52.31931</ele>
        <time>2022-06-11T13:53:51.039Z</time>
      </trkpt>
      <trkpt lat="43.06952" lon="17.69101">
        <ele>52.338209</ele>
        <time>2022-06-11T13:53:54.042Z</time>
      </trkpt>
      <trkpt lat="43.06963" lon="17.691">
        <ele>52.35677</ele>
        <time>2022-06-11T13:53:57.028Z</time>
      </trkpt>
      <trkpt lat="43.06976" lon="17.69099">
        <ele>52.377128</ele>
        <time>2022-06-11T13:54:00.019Z</time>
      </trkpt>
      <trkpt lat="43.06988" lon="17.69098">
        <ele>52.397147</ele>
        <time>2022-06-11T13:54:03.014Z</time>
      </trkpt>
      <trkpt lat="43.06999" lon="17.69097">
        <ele>52.416202</ele>
        <time>2022-06-11T13:54:06.011Z</time>
      </trkpt>
      <trkpt lat="43.07011" lon="17.69097">
        <ele>52.435223</ele>
        <time>2022-06-11T13:54:09.027Z</time>
      </trkpt>
      <trkpt lat="43.07023" lon="17.69096">
        <ele>52.456267</ele>
        <time>2022-06-11T13:54:12.034Z</time>
      </trkpt>
      <trkpt lat="43.07035" lon="17.69095">
        <ele>52.476338</ele>
        <time>2022-06-11T13:54:15.032Z</time>
      </trkpt>
      <trkpt lat="43.07047" lon="17.69094">
        <ele>52.496047</ele>
        <time>2022-06-11T13:54:18.034Z</time>
      </trkpt>
      <trkpt lat="43.07059" lon="17.69093">
        <ele>52.515591</ele>
        <time>2022-06-11T13:54:21.029Z</time>
      </trkpt>
      <trkpt lat="43.0707" lon="17.69092">
        <ele>52.341719</ele>
        <time>2022-06-11T13:54:24.033Z</time>
      </trkpt>
      <trkpt lat="43.07082" lon="17.69092">
        <ele>52.010946</ele>
        <time>2022-06-11T13:54:27.075Z</time>
      </trkpt>
      <trkpt lat="43.07094" lon="17.69093">
        <ele>51.682981</ele>
        <time>2022-06-11T13:54:30.028Z</time>
      </trkpt>
      <trkpt lat="43.07105" lon="17.69092">
        <ele>51.360372</ele>
        <time>2022-06-11T13:54:33.023Z</time>
      </trkpt>
      <trkpt lat="43.07117" lon="17.69092">
        <ele>51.021124</ele>
        <time>2022-06-11T13:54:36.010Z</time>
      </trkpt>
      <trkpt lat="43.07129" lon="17.69093">
        <ele>50.675827</ele>
        <time>2022-06-11T13:54:39.032Z</time>
      </trkpt>
      <trkpt lat="43.07142" lon="17.69094">
        <ele>50.329346</ele>
        <time>2022-06-11T13:54:42.031Z</time>
      </trkpt>
      <trkpt lat="43.07153" lon="17.69097">
        <ele>50.011652</ele>
        <time>2022-06-11T13:54:45.039Z</time>
      </trkpt>
      <trkpt lat="43.07164" lon="17.691">
        <ele>49.698123</ele>
        <time>2022-06-11T13:54:48.038Z</time>
      </trkpt>
      <trkpt lat="43.07174" lon="17.69103">
        <ele>49.392117</ele>
        <time>2022-06-11T13:54:51.010Z</time>
      </trkpt>
      <trkpt lat="43.07185" lon="17.69107">
        <ele>49.079809</ele>
        <time>2022-06-11T13:54:54.024Z</time>
      </trkpt>
      <trkpt lat="43.07195" lon="17.69112">
        <ele>48.769451</ele>
        <time>2022-06-11T13:54:57.034Z</time>
      </trkpt>
      <trkpt lat="43.07204" lon="17.69119">
        <ele>48.472803</ele>
        <time>2022-06-11T13:55:00.040Z</time>
      </trkpt>
      <trkpt lat="43.07214" lon="17.69125">
        <ele>48.185439</ele>
        <time>2022-06-11T13:55:03.040Z</time>
      </trkpt>
      <trkpt lat="43.07223" lon="17.69132">
        <ele>47.881334</ele>
        <time>2022-06-11T13:55:06.023Z</time>
      </trkpt>
      <trkpt lat="43.07232" lon="17.69139">
        <ele>47.57286</ele>
        <time>2022-06-11T13:55:09.040Z</time>
      </trkpt>
      <trkpt lat="43.07242" lon="17.69147">
        <ele>47.462626</ele>
        <time>2022-06-11T13:55:12.032Z</time>
      </trkpt>
      <trkpt lat="43.07252" lon="17.69154">
        <ele>47.503125</ele>
        <time>2022-06-11T13:55:15.019Z</time>
      </trkpt>
      <trkpt lat="43.07261" lon="17.69162">
        <ele>47.544476</ele>
        <time>2022-06-11T13:55:18.066Z</time>
      </trkpt>
      <trkpt lat="43.07271" lon="17.69171">
        <ele>47.588028</ele>
        <time>2022-06-11T13:55:21.023Z</time>
      </trkpt>
      <trkpt lat="43.07282" lon="17.69177">
        <ele>47.6302</ele>
        <time>2022-06-11T13:55:24.071Z</time>
      </trkpt>
      <trkpt lat="43.07292" lon="17.69185">
        <ele>47.673156</ele>
        <time>2022-06-11T13:55:27.012Z</time>
      </trkpt>
      <trkpt lat="43.07302" lon="17.69193">
        <ele>47.715485</ele>
        <time>2022-06-11T13:55:30.068Z</time>
      </trkpt>
      <trkpt lat="43.07312" lon="17.69201">
        <ele>47.757881</ele>
        <time>2022-06-11T13:55:33.019Z</time>
      </trkpt>
      <trkpt lat="43.07321" lon="17.6921">
        <ele>47.800379</ele>
        <time>2022-06-11T13:55:36.075Z</time>
      </trkpt>
      <trkpt lat="43.07331" lon="17.69218">
        <ele>47.843684</ele>
        <time>2022-06-11T13:55:39.066Z</time>
      </trkpt>
      <trkpt lat="43.07342" lon="17.69227">
        <ele>47.888317</ele>
        <time>2022-06-11T13:55:42.030Z</time>
      </trkpt>
      <trkpt lat="43.07352" lon="17.69236">
        <ele>47.93275</ele>
        <time>2022-06-11T13:55:45.058Z</time>
      </trkpt>
      <trkpt lat="43.07362" lon="17.69245">
        <ele>47.976591</ele>
        <time>2022-06-11T13:55:48.020Z</time>
      </trkpt>
      <trkpt lat="43.07371" lon="17.69254">
        <ele>48.019349</ele>
        <time>2022-06-11T13:55:51.068Z</time>
      </trkpt>
      <trkpt lat="43.07381" lon="17.69263">
        <ele>48.062563</ele>
        <time>2022-06-11T13:55:54.039Z</time>
      </trkpt>
      <trkpt lat="43.07391" lon="17.69271">
        <ele>48.109353</ele>
        <time>2022-06-11T13:55:57.023Z</time>
      </trkpt>
      <trkpt lat="43.074" lon="17.69279">
        <ele>48.211624</ele>
        <time>2022-06-11T13:56:00.025Z</time>
      </trkpt>
      <trkpt lat="43.0741" lon="17.69287">
        <ele>48.316384</ele>
        <time>2022-06-11T13:56:03.035Z</time>
      </trkpt>
      <trkpt lat="43.0742" lon="17.69295">
        <ele>48.419239</ele>
        <time>2022-06-11T13:56:06.035Z</time>
      </trkpt>
      <trkpt lat="43.07429" lon="17.69303">
        <ele>48.517479</ele>
        <time>2022-06-11T13:56:09.027Z</time>
      </trkpt>
      <trkpt lat="43.07438" lon="17.6931">
        <ele>48.615881</ele>
        <time>2022-06-11T13:56:12.027Z</time>
      </trkpt>
      <trkpt lat="43.07448" lon="17.69317">
        <ele>48.713566</ele>
        <time>2022-06-11T13:56:15.064Z</time>
      </trkpt>
      <trkpt lat="43.07458" lon="17.69323">
        <ele>48.813151</ele>
        <time>2022-06-11T13:56:18.023Z</time>
      </trkpt>
      <trkpt lat="43.07468" lon="17.69328">
        <ele>48.910011</ele>
        <time>2022-06-11T13:56:21.053Z</time>
      </trkpt>
      <trkpt lat="43.07478" lon="17.69334">
        <ele>49.012315</ele>
        <time>2022-06-11T13:56:24.028Z</time>
      </trkpt>
      <trkpt lat="43.07489" lon="17.6934">
        <ele>49.120682</ele>
        <time>2022-06-11T13:56:27.026Z</time>
      </trkpt>
      <trkpt lat="43.07501" lon="17.69345">
        <ele>49.23028</ele>
        <time>2022-06-11T13:56:30.019Z</time>
      </trkpt>
      <trkpt lat="43.07512" lon="17.69349">
        <ele>49.336024</ele>
        <time>2022-06-11T13:56:33.031Z</time>
      </trkpt>
      <trkpt lat="43.07523" lon="17.69352">
        <ele>49.437844</ele>
        <time>2022-06-11T13:56:36.020Z</time>
      </trkpt>
      <trkpt lat="43.07534" lon="17.69355">
        <ele>49.540672</ele>
        <time>2022-06-11T13:56:39.028Z</time>
      </trkpt>
      <trkpt lat="43.07544" lon="17.69357">
        <ele>49.634314</ele>
        <time>2022-06-11T13:56:42.023Z</time>
      </trkpt>
      <trkpt lat="43.07555" lon="17.69359">
        <ele>49.737927</ele>
        <time>2022-06-11T13:56:45.036Z</time>
      </trkpt>
      <trkpt lat="43.07566" lon="17.69362">
        <ele>49.709729</ele>
        <time>2022-06-11T13:56:48.039Z</time>
      </trkpt>
      <trkpt lat="43.07578" lon="17.69365">
        <ele>49.67328</ele>
        <time>2022-06-11T13:56:51.072Z</time>
      </trkpt>
      <trkpt lat="43.0759" lon="17.69368">
        <ele>49.637843</ele>
        <time>2022-06-11T13:56:54.026Z</time>
      </trkpt>
      <trkpt lat="43.07601" lon="17.69371">
        <ele>49.601135</ele>
        <time>2022-06-11T13:56:57.055Z</time>
      </trkpt>
      <trkpt lat="43.07612" lon="17.69375">
        <ele>49.567287</ele>
        <time>2022-06-11T13:57:00.035Z</time>
      </trkpt>
      <trkpt lat="43.07623" lon="17.69378">
        <ele>49.534081</ele>
        <time>2022-06-11T13:57:03.029Z</time>
      </trkpt>
      <trkpt lat="43.07634" lon="17.69381">
        <ele>49.50108</ele>
        <time>2022-06-11T13:57:06.070Z</time>
      </trkpt>
      <trkpt lat="43.07645" lon="17.69385">
        <ele>49.466642</ele>
        <time>2022-06-11T13:57:09.017Z</time>
      </trkpt>
      <trkpt lat="43.07655" lon="17.69388">
        <ele>49.434028</ele>
        <time>2022-06-11T13:57:12.064Z</time>
      </trkpt>
      <trkpt lat="43.07666" lon="17.69392">
        <ele>49.400363</ele>
        <time>2022-06-11T13:57:15.031Z</time>
      </trkpt>
      <trkpt lat="43.07676" lon="17.69396">
        <ele>49.368845</ele>
        <time>2022-06-11T13:57:18.019Z</time>
      </trkpt>
      <trkpt lat="43.07687" lon="17.69399">
        <ele>49.334592</ele>
        <time>2022-06-11T13:57:21.023Z</time>
      </trkpt>
      <trkpt lat="43.07698" lon="17.69403">
        <ele>49.298813</ele>
        <time>2022-06-11T13:57:24.043Z</time>
      </trkpt>
      <trkpt lat="43.07709" lon="17.69407">
        <ele>49.264774</ele>
        <time>2022-06-11T13:57:27.052Z</time>
      </trkpt>
      <trkpt lat="43.0772" lon="17.69411">
        <ele>49.23064</ele>
        <time>2022-06-11T13:57:30.046Z</time>
      </trkpt>
      <trkpt lat="43.0773" lon="17.69416">
        <ele>49.197272</ele>
        <time>2022-06-11T13:57:33.034Z</time>
      </trkpt>
      <trkpt lat="43.07741" lon="17.6942">
        <ele>49.157396</ele>
        <time>2022-06-11T13:57:36.020Z</time>
      </trkpt>
      <trkpt lat="43.07752" lon="17.69424">
        <ele>49.118212</ele>
        <time>2022-06-11T13:57:39.022Z</time>
      </trkpt>
      <trkpt lat="43.07763" lon="17.69428">
        <ele>49.077462</ele>
        <time>2022-06-11T13:57:42.027Z</time>
      </trkpt>
      <trkpt lat="43.07774" lon="17.69433">
        <ele>49.035953</ele>
        <time>2022-06-11T13:57:45.068Z</time>
      </trkpt>
      <trkpt lat="43.07785" lon="17.69437">
        <ele>48.99465</ele>
        <time>2022-06-11T13:57:48.026Z</time>
      </trkpt>
      <trkpt lat="43.07795" lon="17.6944">
        <ele>48.955894</ele>
        <time>2022-06-11T13:57:51.046Z</time>
      </trkpt>
      <trkpt lat="43.07806" lon="17.69444">
        <ele>48.916037</ele>
        <time>2022-06-11T13:57:54.029Z</time>
      </trkpt>
      <trkpt lat="43.07817" lon="17.69448">
        <ele>48.877821</ele>
        <time>2022-06-11T13:57:57.024Z</time>
      </trkpt>
      <trkpt lat="43.07827" lon="17.69451">
        <ele>48.839783</ele>
        <time>2022-06-11T13:58:00.018Z</time>
      </trkpt>
      <trkpt lat="43.07838" lon="17.69455">
        <ele>48.80122</ele>
        <time>2022-06-11T13:58:03.036Z</time>
      </trkpt>
      <trkpt lat="43.07849" lon="17.69456">
        <ele>48.76098</ele>
        <time>2022-06-11T13:58:06.029Z</time>
      </trkpt>
      <trkpt lat="43.0786" lon="17.69458">
        <ele>48.721506</ele>
        <time>2022-06-11T13:58:09.029Z</time>
      </trkpt>
      <trkpt lat="43.07871" lon="17.69459">
        <ele>48.681498</ele>
        <time>2022-06-11T13:58:12.023Z</time>
      </trkpt>
      <trkpt lat="43.07882" lon="17.69459">
        <ele>48.641889</ele>
        <time>2022-06-11T13:58:15.054Z</time>
      </trkpt>
      <trkpt lat="43.07893" lon="17.69458">
        <ele>48.602614</ele>
        <time>2022-06-11T13:58:18.034Z</time>
      </trkpt>
      <trkpt lat="43.07904" lon="17.69457">
        <ele>48.56385</ele>
        <time>2022-06-11T13:58:21.026Z</time>
      </trkpt>
      <trkpt lat="43.07915" lon="17.69455">
        <ele>48.572972</ele>
        <time>2022-06-11T13:58:24.040Z</time>
      </trkpt>
      <trkpt lat="43.07926" lon="17.69453">
        <ele>48.598629</ele>
        <time>2022-06-11T13:58:27.042Z</time>
      </trkpt>
      <trkpt lat="43.07937" lon="17.69452">
        <ele>48.625245</ele>
        <time>2022-06-11T13:58:30.027Z</time>
      </trkpt>
      <trkpt lat="43.07949" lon="17.6945">
        <ele>48.6519</ele>
        <time>2022-06-11T13:58:33.042Z</time>
      </trkpt>
      <trkpt lat="43.0796" lon="17.69448">
        <ele>48.678115</ele>
        <time>2022-06-11T13:58:36.030Z</time>
      </trkpt>
      <trkpt lat="43.07971" lon="17.69446">
        <ele>48.704123</ele>
        <time>2022-06-11T13:58:39.020Z</time>
      </trkpt>
      <trkpt lat="43.07982" lon="17.69444">
        <ele>48.729878</ele>
        <time>2022-06-11T13:58:42.027Z</time>
      </trkpt>
      <trkpt lat="43.07993" lon="17.69442">
        <ele>48.755057</ele>
        <time>2022-06-11T13:58:45.025Z</time>
      </trkpt>
      <trkpt lat="43.08003" lon="17.6944">
        <ele>48.7801</ele>
        <time>2022-06-11T13:58:48.020Z</time>
      </trkpt>
      <trkpt lat="43.08014" lon="17.69439">
        <ele>48.805757</ele>
        <time>2022-06-11T13:58:51.085Z</time>
      </trkpt>
      <trkpt lat="43.08025" lon="17.69437">
        <ele>48.830508</ele>
        <time>2022-06-11T13:58:54.024Z</time>
      </trkpt>
      <trkpt lat="43.08035" lon="17.69434">
        <ele>48.854426</ele>
        <time>2022-06-11T13:58:57.058Z</time>
      </trkpt>
      <trkpt lat="43.08045" lon="17.69432">
        <ele>48.878477</ele>
        <time>2022-06-11T13:59:00.066Z</time>
      </trkpt>
      <trkpt lat="43.08056" lon="17.6943">
        <ele>48.903082</ele>
        <time>2022-06-11T13:59:03.016Z</time>
      </trkpt>
      <trkpt lat="43.08066" lon="17.69428">
        <ele>48.925989</ele>
        <time>2022-06-11T13:59:06.018Z</time>
      </trkpt>
      <trkpt lat="43.08076" lon="17.69427">
        <ele>48.949505</ele>
        <time>2022-06-11T13:59:09.033Z</time>
      </trkpt>
      <trkpt lat="43.08086" lon="17.69426">
        <ele>48.970761</ele>
        <time>2022-06-11T13:59:12.023Z</time>
      </trkpt>
      <trkpt lat="43.08096" lon="17.69424">
        <ele>48.962961</ele>
        <time>2022-06-11T13:59:15.026Z</time>
      </trkpt>
      <trkpt lat="43.08106" lon="17.69423">
        <ele>48.954926</ele>
        <time>2022-06-11T13:59:18.027Z</time>
      </trkpt>
      <trkpt lat="43.08117" lon="17.69422">
        <ele>48.946901</ele>
        <time>2022-06-11T13:59:21.031Z</time>
      </trkpt>
      <trkpt lat="43.08127" lon="17.69421">
        <ele>48.93888</ele>
        <time>2022-06-11T13:59:24.055Z</time>
      </trkpt>
      <trkpt lat="43.08137" lon="17.6942">
        <ele>48.931021</ele>
        <time>2022-06-11T13:59:27.025Z</time>
      </trkpt>
      <trkpt lat="43.08148" lon="17.6942">
        <ele>48.922947</ele>
        <time>2022-06-11T13:59:30.026Z</time>
      </trkpt>
      <trkpt lat="43.08158" lon="17.69419">
        <ele>48.915331</ele>
        <time>2022-06-11T13:59:33.024Z</time>
      </trkpt>
      <trkpt lat="43.08168" lon="17.69419">
        <ele>48.907796</ele>
        <time>2022-06-11T13:59:36.030Z</time>
      </trkpt>
      <trkpt lat="43.08178" lon="17.69419">
        <ele>48.899876</ele>
        <time>2022-06-11T13:59:39.035Z</time>
      </trkpt>
      <trkpt lat="43.08188" lon="17.69419">
        <ele>48.892339</ele>
        <time>2022-06-11T13:59:42.031Z</time>
      </trkpt>
      <trkpt lat="43.08198" lon="17.6942">
        <ele>48.884648</ele>
        <time>2022-06-11T13:59:45.026Z</time>
      </trkpt>
      <trkpt lat="43.08208" lon="17.6942">
        <ele>48.8768</ele>
        <time>2022-06-11T13:59:48.043Z</time>
      </trkpt>
      <trkpt lat="43.08218" lon="17.69422">
        <ele>48.868606</ele>
        <time>2022-06-11T13:59:51.025Z</time>
      </trkpt>
      <trkpt lat="43.08229" lon="17.69423">
        <ele>48.860418</ele>
        <time>2022-06-11T13:59:54.011Z</time>
      </trkpt>
      <trkpt lat="43.08239" lon="17.69425">
        <ele>48.852426</ele>
        <time>2022-06-11T13:59:57.048Z</time>
      </trkpt>
      <trkpt lat="43.0825" lon="17.69427">
        <ele>48.844191</ele>
        <time>2022-06-11T14:00:00.028Z</time>
      </trkpt>
      <trkpt lat="43.08261" lon="17.6943">
        <ele>48.835732</ele>
        <time>2022-06-11T14:00:03.033Z</time>
      </trkpt>
      <trkpt lat="43.08271" lon="17.69433">
        <ele>48.862565</ele>
        <time>2022-06-11T14:00:06.064Z</time>
      </trkpt>
      <trkpt lat="43.08281" lon="17.69436">
        <ele>48.910606</ele>
        <time>2022-06-11T14:00:09.031Z</time>
      </trkpt>
      <trkpt lat="43.08292" lon="17.69439">
        <ele>48.959195</ele>
        <time>2022-06-11T14:00:12.032Z</time>
      </trkpt>
      <trkpt lat="43.08302" lon="17.69443">
        <ele>49.006492</ele>
        <time>2022-06-11T14:00:15.046Z</time>
      </trkpt>
      <trkpt lat="43.08312" lon="17.69445">
        <ele>49.049334</ele>
        <time>2022-06-11T14:00:18.046Z</time>
      </trkpt>
      <trkpt lat="43.08321" lon="17.69448">
        <ele>49.092053</ele>
        <time>2022-06-11T14:00:21.036Z</time>
      </trkpt>
      <trkpt lat="43.08332" lon="17.69451">
        <ele>49.141059</ele>
        <time>2022-06-11T14:00:24.025Z</time>
      </trkpt>
      <trkpt lat="43.08343" lon="17.69456">
        <ele>49.193097</ele>
        <time>2022-06-11T14:00:27.030Z</time>
      </trkpt>
      <trkpt lat="43.08355" lon="17.69462">
        <ele>49.248582</ele>
        <time>2022-06-11T14:00:30.030Z</time>
      </trkpt>
      <trkpt lat="43.08366" lon="17.69468">
        <ele>49.302548</ele>
        <time>2022-06-11T14:00:33.049Z</time>
      </trkpt>
      <trkpt lat="43.08377" lon="17.69473">
        <ele>49.35311</ele>
        <time>2022-06-11T14:00:36.019Z</time>
      </trkpt>
      <trkpt lat="43.08388" lon="17.69477">
        <ele>49.402116</ele>
        <time>2022-06-11T14:00:39.022Z</time>
      </trkpt>
      <trkpt lat="43.08398" lon="17.69481">
        <ele>49.451292</ele>
        <time>2022-06-11T14:00:42.024Z</time>
      </trkpt>
      <trkpt lat="43.08409" lon="17.69485">
        <ele>49.49825</ele>
        <time>2022-06-11T14:00:45.014Z</time>
      </trkpt>
      <trkpt lat="43.08419" lon="17.69489">
        <ele>49.544096</ele>
        <time>2022-06-11T14:00:48.027Z</time>
      </trkpt>
      <trkpt lat="43.08429" lon="17.69493">
        <ele>49.590205</ele>
        <time>2022-06-11T14:00:51.034Z</time>
      </trkpt>
      <trkpt lat="43.08439" lon="17.69496">
        <ele>49.641318</ele>
        <time>2022-06-11T14:00:54.026Z</time>
      </trkpt>
      <trkpt lat="43.08449" lon="17.69499">
        <ele>49.720511</ele>
        <time>2022-06-11T14:00:57.021Z</time>
      </trkpt>
      <trkpt lat="43.08459" lon="17.69503">
        <ele>49.803909</ele>
        <time>2022-06-11T14:01:00.029Z</time>
      </trkpt>
      <trkpt lat="43.08469" lon="17.69505">
        <ele>49.886077</ele>
        <time>2022-06-11T14:01:03.034Z</time>
      </trkpt>
      <trkpt lat="43.08479" lon="17.69508">
        <ele>49.965931</ele>
        <time>2022-06-11T14:01:06.032Z</time>
      </trkpt>
      <trkpt lat="43.0849" lon="17.69511">
        <ele>50.049084</ele>
        <time>2022-06-11T14:01:09.023Z</time>
      </trkpt>
      <trkpt lat="43.08499" lon="17.69513">
        <ele>50.127398</ele>
        <time>2022-06-11T14:01:12.024Z</time>
      </trkpt>
      <trkpt lat="43.08509" lon="17.69517">
        <ele>50.207758</ele>
        <time>2022-06-11T14:01:15.032Z</time>
      </trkpt>
      <trkpt lat="43.08519" lon="17.6952">
        <ele>50.286035</ele>
        <time>2022-06-11T14:01:18.053Z</time>
      </trkpt>
      <trkpt lat="43.08528" lon="17.69524">
        <ele>50.362767</ele>
        <time>2022-06-11T14:01:21.034Z</time>
      </trkpt>
      <trkpt lat="43.08538" lon="17.69528">
        <ele>50.439991</ele>
        <time>2022-06-11T14:01:24.025Z</time>
      </trkpt>
      <trkpt lat="43.08548" lon="17.69532">
        <ele>50.520553</ele>
        <time>2022-06-11T14:01:27.023Z</time>
      </trkpt>
      <trkpt lat="43.08557" lon="17.69536">
        <ele>50.600195</ele>
        <time>2022-06-11T14:01:30.036Z</time>
      </trkpt>
      <trkpt lat="43.08568" lon="17.6954">
        <ele>50.683883</ele>
        <time>2022-06-11T14:01:33.018Z</time>
      </trkpt>
      <trkpt lat="43.08578" lon="17.69544">
        <ele>50.767389</ele>
        <time>2022-06-11T14:01:36.036Z</time>
      </trkpt>
      <trkpt lat="43.08588" lon="17.69549">
        <ele>50.84997</ele>
        <time>2022-06-11T14:01:39.027Z</time>
      </trkpt>
      <trkpt lat="43.08598" lon="17.69554">
        <ele>50.935328</ele>
        <time>2022-06-11T14:01:42.035Z</time>
      </trkpt>
      <trkpt lat="43.08608" lon="17.69558">
        <ele>51.020393</ele>
        <time>2022-06-11T14:01:45.027Z</time>
      </trkpt>
      <trkpt lat="43.08619" lon="17.69562">
        <ele>50.998179</ele>
        <time>2022-06-11T14:01:48.029Z</time>
      </trkpt>
      <trkpt lat="43.08628" lon="17.69565">
        <ele>50.947316</ele>
        <time>2022-06-11T14:01:51.039Z</time>
      </trkpt>
      <trkpt lat="43.08637" lon="17.6957">
        <ele>50.894925</ele>
        <time>2022-06-11T14:01:54.035Z</time>
      </trkpt>
      <trkpt lat="43.08647" lon="17.69575">
        <ele>50.838708</ele>
        <time>2022-06-11T14:01:57.036Z</time>
      </trkpt>
      <trkpt lat="43.08657" lon="17.6958">
        <ele>50.783248</ele>
        <time>2022-06-11T14:02:00.030Z</time>
      </trkpt>
      <trkpt lat="43.08667" lon="17.69585">
        <ele>50.727286</ele>
        <time>2022-06-11T14:02:03.023Z</time>
      </trkpt>
      <trkpt lat="43.08676" lon="17.6959">
        <ele>50.673968</ele>
        <time>2022-06-11T14:02:06.023Z</time>
      </trkpt>
      <trkpt lat="43.08685" lon="17.69595">
        <ele>50.621994</ele>
        <time>2022-06-11T14:02:09.032Z</time>
      </trkpt>
      <trkpt lat="43.08695" lon="17.696">
        <ele>50.568823</ele>
        <time>2022-06-11T14:02:12.015Z</time>
      </trkpt>
      <trkpt lat="43.08704" lon="17.69605">
        <ele>50.515856</ele>
        <time>2022-06-11T14:02:15.024Z</time>
      </trkpt>
      <trkpt lat="43.08714" lon="17.6961">
        <ele>50.461704</ele>
        <time>2022-06-11T14:02:18.031Z</time>
      </trkpt>
      <trkpt lat="43.08723" lon="17.69615">
        <ele>50.407971</ele>
        <time>2022-06-11T14:02:21.033Z</time>
      </trkpt>
      <trkpt lat="43.08733" lon="17.6962">
        <ele>50.353527</ele>
        <time>2022-06-11T14:02:24.024Z</time>
      </trkpt>
      <trkpt lat="43.08741" lon="17.69625">
        <ele>50.303038</ele>
        <time>2022-06-11T14:02:27.060Z</time>
      </trkpt>
      <trkpt lat="43.08751" lon="17.69629">
        <ele>50.251707</ele>
        <time>2022-06-11T14:02:30.030Z</time>
      </trkpt>
      <trkpt lat="43.0876" lon="17.69634">
        <ele>50.19874</ele>
        <time>2022-06-11T14:02:33.049Z</time>
      </trkpt>
      <trkpt lat="43.0877" lon="17.69638">
        <ele>50.144906</ele>
        <time>2022-06-11T14:02:36.030Z</time>
      </trkpt>
      <trkpt lat="43.08779" lon="17.69644">
        <ele>50.091131</ele>
        <time>2022-06-11T14:02:39.014Z</time>
      </trkpt>
      <trkpt lat="43.08789" lon="17.69649">
        <ele>50.141125</ele>
        <time>2022-06-11T14:02:42.024Z</time>
      </trkpt>
      <trkpt lat="43.08797" lon="17.69653">
        <ele>50.191248</ele>
        <time>2022-06-11T14:02:45.018Z</time>
      </trkpt>
      <trkpt lat="43.08806" lon="17.69657">
        <ele>50.241625</ele>
        <time>2022-06-11T14:02:48.026Z</time>
      </trkpt>
      <trkpt lat="43.08815" lon="17.69662">
        <ele>50.292328</ele>
        <time>2022-06-11T14:02:51.008Z</time>
      </trkpt>
      <trkpt lat="43.08823" lon="17.69668">
        <ele>50.343006</ele>
        <time>2022-06-11T14:02:54.032Z</time>
      </trkpt>
      <trkpt lat="43.08832" lon="17.69673">
        <ele>50.394661</ele>
        <time>2022-06-11T14:02:57.019Z</time>
      </trkpt>
      <trkpt lat="43.08841" lon="17.69678">
        <ele>50.445513</ele>
        <time>2022-06-11T14:03:00.048Z</time>
      </trkpt>
      <trkpt lat="43.0885" lon="17.69683">
        <ele>50.499816</ele>
        <time>2022-06-11T14:03:03.043Z</time>
      </trkpt>
      <trkpt lat="43.08859" lon="17.69689">
        <ele>50.551813</ele>
        <time>2022-06-11T14:03:06.061Z</time>
      </trkpt>
      <trkpt lat="43.08867" lon="17.69694">
        <ele>50.602491</ele>
        <time>2022-06-11T14:03:09.014Z</time>
      </trkpt>
      <trkpt lat="43.08875" lon="17.697">
        <ele>50.651507</ele>
        <time>2022-06-11T14:03:12.047Z</time>
      </trkpt>
      <trkpt lat="43.08884" lon="17.69705">
        <ele>50.701178</ele>
        <time>2022-06-11T14:03:15.030Z</time>
      </trkpt>
      <trkpt lat="43.08893" lon="17.6971">
        <ele>50.752989</ele>
        <time>2022-06-11T14:03:18.048Z</time>
      </trkpt>
      <trkpt lat="43.08901" lon="17.69715">
        <ele>50.803342</ele>
        <time>2022-06-11T14:03:21.041Z</time>
      </trkpt>
      <trkpt lat="43.08909" lon="17.6972">
        <ele>50.8527</ele>
        <time>2022-06-11T14:03:24.035Z</time>
      </trkpt>
      <trkpt lat="43.0892" lon="17.69728">
        <ele>50.914915</ele>
        <time>2022-06-11T14:03:28.019Z</time>
      </trkpt>
      <trkpt lat="43.08928" lon="17.69732">
        <ele>50.965976</ele>
        <time>2022-06-11T14:03:31.048Z</time>
      </trkpt>
      <trkpt lat="43.08938" lon="17.69737">
        <ele>51.019482</ele>
        <time>2022-06-11T14:03:34.026Z</time>
      </trkpt>
      <trkpt lat="43.08946" lon="17.69743">
        <ele>51.098984</ele>
        <time>2022-06-11T14:03:37.033Z</time>
      </trkpt>
      <trkpt lat="43.08955" lon="17.69748">
        <ele>51.288522</ele>
        <time>2022-06-11T14:03:40.029Z</time>
      </trkpt>
      <trkpt lat="43.08964" lon="17.69754">
        <ele>51.504162</ele>
        <time>2022-06-11T14:03:43.017Z</time>
      </trkpt>
      <trkpt lat="43.08974" lon="17.6976">
        <ele>51.73296</ele>
        <time>2022-06-11T14:03:46.026Z</time>
      </trkpt>
      <trkpt lat="43.08984" lon="17.69768">
        <ele>51.967672</ele>
        <time>2022-06-11T14:03:49.025Z</time>
      </trkpt>
      <trkpt lat="43.08993" lon="17.69775">
        <ele>52.178924</ele>
        <time>2022-06-11T14:03:52.030Z</time>
      </trkpt>
      <trkpt lat="43.09002" lon="17.69781">
        <ele>52.37912</ele>
        <time>2022-06-11T14:03:55.057Z</time>
      </trkpt>
      <trkpt lat="43.09011" lon="17.6979">
        <ele>52.617389</ele>
        <time>2022-06-11T14:03:59.026Z</time>
      </trkpt>
      <trkpt lat="43.09021" lon="17.69799">
        <ele>52.862581</ele>
        <time>2022-06-11T14:04:03.015Z</time>
      </trkpt>
      <trkpt lat="43.0903" lon="17.69804">
        <ele>53.058966</ele>
        <time>2022-06-11T14:04:06.036Z</time>
      </trkpt>
      <trkpt lat="43.0904" lon="17.69804">
        <ele>53.258407</ele>
        <time>2022-06-11T14:04:09.022Z</time>
      </trkpt>
      <trkpt lat="43.09049" lon="17.69803">
        <ele>53.455982</ele>
        <time>2022-06-11T14:04:12.031Z</time>
      </trkpt>
      <trkpt lat="43.09059" lon="17.698">
        <ele>53.666373</ele>
        <time>2022-06-11T14:04:15.030Z</time>
      </trkpt>
      <trkpt lat="43.09071" lon="17.69797">
        <ele>53.906477</ele>
        <time>2022-06-11T14:04:18.066Z</time>
      </trkpt>
      <trkpt lat="43.09082" lon="17.69792">
        <ele>54.146131</ele>
        <time>2022-06-11T14:04:21.028Z</time>
      </trkpt>
      <trkpt lat="43.09092" lon="17.69786">
        <ele>54.367889</ele>
        <time>2022-06-11T14:04:24.036Z</time>
      </trkpt>
      <trkpt lat="43.09101" lon="17.69783">
        <ele>54.569687</ele>
        <time>2022-06-11T14:04:27.024Z</time>
      </trkpt>
      <trkpt lat="43.09111" lon="17.69782">
        <ele>54.772499</ele>
        <time>2022-06-11T14:04:30.017Z</time>
      </trkpt>
      <trkpt lat="43.09121" lon="17.69783">
        <ele>54.90323</ele>
        <time>2022-06-11T14:04:33.049Z</time>
      </trkpt>
      <trkpt lat="43.0913" lon="17.69784">
        <ele>55.037084</ele>
        <time>2022-06-11T14:04:36.016Z</time>
      </trkpt>
      <trkpt lat="43.0914" lon="17.69784">
        <ele>55.177641</ele>
        <time>2022-06-11T14:04:39.016Z</time>
      </trkpt>
      <trkpt lat="43.09149" lon="17.6978">
        <ele>55.308523</ele>
        <time>2022-06-11T14:04:42.020Z</time>
      </trkpt>
      <trkpt lat="43.09157" lon="17.69772">
        <ele>55.447857</ele>
        <time>2022-06-11T14:04:45.027Z</time>
      </trkpt>
      <trkpt lat="43.09166" lon="17.69764">
        <ele>55.609051</ele>
        <time>2022-06-11T14:04:48.026Z</time>
      </trkpt>
      <trkpt lat="43.09178" lon="17.69756">
        <ele>55.788129</ele>
        <time>2022-06-11T14:04:51.024Z</time>
      </trkpt>
      <trkpt lat="43.09188" lon="17.6975">
        <ele>55.949473</ele>
        <time>2022-06-11T14:04:54.025Z</time>
      </trkpt>
      <trkpt lat="43.09198" lon="17.69742">
        <ele>56.106511</ele>
        <time>2022-06-11T14:04:57.021Z</time>
      </trkpt>
      <trkpt lat="43.09205" lon="17.69733">
        <ele>56.250144</ele>
        <time>2022-06-11T14:05:00.020Z</time>
      </trkpt>
      <trkpt lat="43.09213" lon="17.69724">
        <ele>56.394176</ele>
        <time>2022-06-11T14:05:03.056Z</time>
      </trkpt>
      <trkpt lat="43.09221" lon="17.69713">
        <ele>56.560107</ele>
        <time>2022-06-11T14:05:07.019Z</time>
      </trkpt>
      <trkpt lat="43.09231" lon="17.69705">
        <ele>56.717145</ele>
        <time>2022-06-11T14:05:11.030Z</time>
      </trkpt>
      <trkpt lat="43.09241" lon="17.69704">
        <ele>56.868566</ele>
        <time>2022-06-11T14:05:15.027Z</time>
      </trkpt>
      <trkpt lat="43.09251" lon="17.69711">
        <ele>57.020378</ele>
        <time>2022-06-11T14:05:19.155Z</time>
      </trkpt>
      <trkpt lat="43.0926" lon="17.6972">
        <ele>57.18262</ele>
        <time>2022-06-11T14:05:23.028Z</time>
      </trkpt>
      <trkpt lat="43.09268" lon="17.69728">
        <ele>57.295921</ele>
        <time>2022-06-11T14:05:26.024Z</time>
      </trkpt>
      <trkpt lat="43.09275" lon="17.69734">
        <ele>57.08685</ele>
        <time>2022-06-11T14:05:29.032Z</time>
      </trkpt>
      <trkpt lat="43.09287" lon="17.69737">
        <ele>56.803434</ele>
        <time>2022-06-11T14:05:33.024Z</time>
      </trkpt>
      <trkpt lat="43.09298" lon="17.69738">
        <ele>56.568158</ele>
        <time>2022-06-11T14:05:36.025Z</time>
      </trkpt>
      <trkpt lat="43.09307" lon="17.6974">
        <ele>56.347392</ele>
        <time>2022-06-11T14:05:39.092Z</time>
      </trkpt>
      <trkpt lat="43.09316" lon="17.69742">
        <ele>56.127192</ele>
        <time>2022-06-11T14:05:42.012Z</time>
      </trkpt>
      <trkpt lat="43.09325" lon="17.69745">
        <ele>55.908224</ele>
        <time>2022-06-11T14:05:45.029Z</time>
      </trkpt>
      <trkpt lat="43.09334" lon="17.69748">
        <ele>55.695782</ele>
        <time>2022-06-11T14:05:48.017Z</time>
      </trkpt>
      <trkpt lat="43.09343" lon="17.69752">
        <ele>55.477613</ele>
        <time>2022-06-11T14:05:51.031Z</time>
      </trkpt>
      <trkpt lat="43.09352" lon="17.69758">
        <ele>55.254128</ele>
        <time>2022-06-11T14:05:53.988Z</time>
      </trkpt>
      <trkpt lat="43.0936" lon="17.69765">
        <ele>55.043729</ele>
        <time>2022-06-11T14:05:57.023Z</time>
      </trkpt>
      <trkpt lat="43.09369" lon="17.69773">
        <ele>54.783947</ele>
        <time>2022-06-11T14:06:01.024Z</time>
      </trkpt>
      <trkpt lat="43.09376" lon="17.6978">
        <ele>54.568263</ele>
        <time>2022-06-11T14:06:04.012Z</time>
      </trkpt>
      <trkpt lat="43.09384" lon="17.69789">
        <ele>54.329852</ele>
        <time>2022-06-11T14:06:07.031Z</time>
      </trkpt>
      <trkpt lat="43.09394" lon="17.69798">
        <ele>54.074874</ele>
        <time>2022-06-11T14:06:10.021Z</time>
      </trkpt>
      <trkpt lat="43.09402" lon="17.69807">
        <ele>53.822452</ele>
        <time>2022-06-11T14:06:13.030Z</time>
      </trkpt>
      <trkpt lat="43.0941" lon="17.69817">
        <ele>53.572449</ele>
        <time>2022-06-11T14:06:16.031Z</time>
      </trkpt>
      <trkpt lat="43.09418" lon="17.69826">
        <ele>53.325767</ele>
        <time>2022-06-11T14:06:19.026Z</time>
      </trkpt>
      <trkpt lat="43.09426" lon="17.69836">
        <ele>53.149859</ele>
        <time>2022-06-11T14:06:22.026Z</time>
      </trkpt>
      <trkpt lat="43.09434" lon="17.69844">
        <ele>53.240602</ele>
        <time>2022-06-11T14:06:25.032Z</time>
      </trkpt>
      <trkpt lat="43.09442" lon="17.69851">
        <ele>53.324967</ele>
        <time>2022-06-11T14:06:28.034Z</time>
      </trkpt>
      <trkpt lat="43.09452" lon="17.69857">
        <ele>53.423481</ele>
        <time>2022-06-11T14:06:32.058Z</time>
      </trkpt>
      <trkpt lat="43.09462" lon="17.69862">
        <ele>53.522347</ele>
        <time>2022-06-11T14:06:35.023Z</time>
      </trkpt>
      <trkpt lat="43.09473" lon="17.69865">
        <ele>53.621299</ele>
        <time>2022-06-11T14:06:38.010Z</time>
      </trkpt>
      <trkpt lat="43.09485" lon="17.6987">
        <ele>53.732869</ele>
        <time>2022-06-11T14:06:41.019Z</time>
      </trkpt>
      <trkpt lat="43.09497" lon="17.69873">
        <ele>53.845655</ele>
        <time>2022-06-11T14:06:44.027Z</time>
      </trkpt>
      <trkpt lat="43.09508" lon="17.69876">
        <ele>53.943163</ele>
        <time>2022-06-11T14:06:47.025Z</time>
      </trkpt>
      <trkpt lat="43.09518" lon="17.69878">
        <ele>54.038853</ele>
        <time>2022-06-11T14:06:50.025Z</time>
      </trkpt>
      <trkpt lat="43.0953" lon="17.6988">
        <ele>54.146047</ele>
        <time>2022-06-11T14:06:53.046Z</time>
      </trkpt>
      <trkpt lat="43.0954" lon="17.6988">
        <ele>54.23165</ele>
        <time>2022-06-11T14:06:55.054Z</time>
      </trkpt>
      <trkpt lat="43.09552" lon="17.69879">
        <ele>54.346179</ele>
        <time>2022-06-11T14:06:58.024Z</time>
      </trkpt>
      <trkpt lat="43.09562" lon="17.6988">
        <ele>54.431226</ele>
        <time>2022-06-11T14:07:00.019Z</time>
      </trkpt>
      <trkpt lat="43.09575" lon="17.69881">
        <ele>54.545822</ele>
        <time>2022-06-11T14:07:03.043Z</time>
      </trkpt>
      <trkpt lat="43.09586" lon="17.69882">
        <ele>54.648595</ele>
        <time>2022-06-11T14:07:06.023Z</time>
      </trkpt>
      <trkpt lat="43.09596" lon="17.69882">
        <ele>54.743193</ele>
        <time>2022-06-11T14:07:09.019Z</time>
      </trkpt>
      <trkpt lat="43.09607" lon="17.69881">
        <ele>54.750896</ele>
        <time>2022-06-11T14:07:12.052Z</time>
      </trkpt>
      <trkpt lat="43.09617" lon="17.69879">
        <ele>54.751581</ele>
        <time>2022-06-11T14:07:15.029Z</time>
      </trkpt>
      <trkpt lat="43.09629" lon="17.69879">
        <ele>54.752429</ele>
        <time>2022-06-11T14:07:18.055Z</time>
      </trkpt>
      <trkpt lat="43.09642" lon="17.69879">
        <ele>54.753264</ele>
        <time>2022-06-11T14:07:21.035Z</time>
      </trkpt>
      <trkpt lat="43.09655" lon="17.69879">
        <ele>54.754152</ele>
        <time>2022-06-11T14:07:24.022Z</time>
      </trkpt>
      <trkpt lat="43.09668" lon="17.6988">
        <ele>54.755003</ele>
        <time>2022-06-11T14:07:27.036Z</time>
      </trkpt>
      <trkpt lat="43.09679" lon="17.69881">
        <ele>54.755743</ele>
        <time>2022-06-11T14:07:30.016Z</time>
      </trkpt>
      <trkpt lat="43.09688" lon="17.69882">
        <ele>54.756411</ele>
        <time>2022-06-11T14:07:33.014Z</time>
      </trkpt>
      <trkpt lat="43.09698" lon="17.69882">
        <ele>54.75703</ele>
        <time>2022-06-11T14:07:36.012Z</time>
      </trkpt>
      <trkpt lat="43.09708" lon="17.69883">
        <ele>54.75773</ele>
        <time>2022-06-11T14:07:39.033Z</time>
      </trkpt>
      <trkpt lat="43.0972" lon="17.69883">
        <ele>54.758558</ele>
        <time>2022-06-11T14:07:42.026Z</time>
      </trkpt>
      <trkpt lat="43.09733" lon="17.69884">
        <ele>54.759413</ele>
        <time>2022-06-11T14:07:45.026Z</time>
      </trkpt>
      <trkpt lat="43.09746" lon="17.69885">
        <ele>54.760269</ele>
        <time>2022-06-11T14:07:48.034Z</time>
      </trkpt>
      <trkpt lat="43.09758" lon="17.69885">
        <ele>54.761117</ele>
        <time>2022-06-11T14:07:51.032Z</time>
      </trkpt>
      <trkpt lat="43.09771" lon="17.69885">
        <ele>54.761938</ele>
        <time>2022-06-11T14:07:54.035Z</time>
      </trkpt>
      <trkpt lat="43.09782" lon="17.69885">
        <ele>54.68289</ele>
        <time>2022-06-11T14:07:57.043Z</time>
      </trkpt>
      <trkpt lat="43.09794" lon="17.69886">
        <ele>54.504932</ele>
        <time>2022-06-11T14:08:00.032Z</time>
      </trkpt>
      <trkpt lat="43.09806" lon="17.69886">
        <ele>54.325659</ele>
        <time>2022-06-11T14:08:03.041Z</time>
      </trkpt>
      <trkpt lat="43.09818" lon="17.69886">
        <ele>54.143429</ele>
        <time>2022-06-11T14:08:06.029Z</time>
      </trkpt>
      <trkpt lat="43.0983" lon="17.69886">
        <ele>53.958214</ele>
        <time>2022-06-11T14:08:09.059Z</time>
      </trkpt>
      <trkpt lat="43.09842" lon="17.69887">
        <ele>53.777186</ele>
        <time>2022-06-11T14:08:12.039Z</time>
      </trkpt>
      <trkpt lat="43.09855" lon="17.69888">
        <ele>53.590207</ele>
        <time>2022-06-11T14:08:15.018Z</time>
      </trkpt>
      <trkpt lat="43.09867" lon="17.69888">
        <ele>53.406497</ele>
        <time>2022-06-11T14:08:18.027Z</time>
      </trkpt>
      <trkpt lat="43.09878" lon="17.69888">
        <ele>53.24073</ele>
        <time>2022-06-11T14:08:21.034Z</time>
      </trkpt>
      <trkpt lat="43.09889" lon="17.69888">
        <ele>53.073584</ele>
        <time>2022-06-11T14:08:24.029Z</time>
      </trkpt>
      <trkpt lat="43.09899" lon="17.69889">
        <ele>52.915381</ele>
        <time>2022-06-11T14:08:27.032Z</time>
      </trkpt>
      <trkpt lat="43.09909" lon="17.69889">
        <ele>52.770788</ele>
        <time>2022-06-11T14:08:30.020Z</time>
      </trkpt>
      <trkpt lat="43.09921" lon="17.6989">
        <ele>52.592983</ele>
        <time>2022-06-11T14:08:34.019Z</time>
      </trkpt>
      <trkpt lat="43.09932" lon="17.69889">
        <ele>52.42274</ele>
        <time>2022-06-11T14:08:38.031Z</time>
      </trkpt>
      <trkpt lat="43.09943" lon="17.6989">
        <ele>52.255305</ele>
        <time>2022-06-11T14:08:42.029Z</time>
      </trkpt>
      <trkpt lat="43.09952" lon="17.69889">
        <ele>52.119033</ele>
        <time>2022-06-11T14:08:46.041Z</time>
      </trkpt>
      <trkpt lat="43.09963" lon="17.69889">
        <ele>52.264632</ele>
        <time>2022-06-11T14:08:50.027Z</time>
      </trkpt>
      <trkpt lat="43.09972" lon="17.69887">
        <ele>52.602201</ele>
        <time>2022-06-11T14:08:54.035Z</time>
      </trkpt>
      <trkpt lat="43.09983" lon="17.69886">
        <ele>52.981628</ele>
        <time>2022-06-11T14:08:58.016Z</time>
      </trkpt>
      <trkpt lat="43.09994" lon="17.69883">
        <ele>53.356765</ele>
        <time>2022-06-11T14:09:02.038Z</time>
      </trkpt>
      <trkpt lat="43.10005" lon="17.69881">
        <ele>53.739548</ele>
        <time>2022-06-11T14:09:06.034Z</time>
      </trkpt>
      <trkpt lat="43.10016" lon="17.69878">
        <ele>54.149895</ele>
        <time>2022-06-11T14:09:10.029Z</time>
      </trkpt>
      <trkpt lat="43.10026" lon="17.69875">
        <ele>54.484192</ele>
        <time>2022-06-11T14:09:13.037Z</time>
      </trkpt>
      <trkpt lat="43.10035" lon="17.69871">
        <ele>54.803544</ele>
        <time>2022-06-11T14:09:16.075Z</time>
      </trkpt>
      <trkpt lat="43.10045" lon="17.69867">
        <ele>55.193517</ele>
        <time>2022-06-11T14:09:20.021Z</time>
      </trkpt>
      <trkpt lat="43.10054" lon="17.69863">
        <ele>55.510901</ele>
        <time>2022-06-11T14:09:23.029Z</time>
      </trkpt>
      <trkpt lat="43.10064" lon="17.69859">
        <ele>55.866559</ele>
        <time>2022-06-11T14:09:26.031Z</time>
      </trkpt>
      <trkpt lat="43.10074" lon="17.69853">
        <ele>56.245316</ele>
        <time>2022-06-11T14:09:29.027Z</time>
      </trkpt>
      <trkpt lat="43.10084" lon="17.69847">
        <ele>56.621311</ele>
        <time>2022-06-11T14:09:32.047Z</time>
      </trkpt>
      <trkpt lat="43.10094" lon="17.6984">
        <ele>57.002368</ele>
        <time>2022-06-11T14:09:35.028Z</time>
      </trkpt>
      <trkpt lat="43.10102" lon="17.69834">
        <ele>57.338614</ele>
        <time>2022-06-11T14:09:38.025Z</time>
      </trkpt>
      <trkpt lat="43.10112" lon="17.69827">
        <ele>57.700702</ele>
        <time>2022-06-11T14:09:41.015Z</time>
      </trkpt>
      <trkpt lat="43.10121" lon="17.6982">
        <ele>58.058541</ele>
        <time>2022-06-11T14:09:44.056Z</time>
      </trkpt>
      <trkpt lat="43.10131" lon="17.69813">
        <ele>58.196363</ele>
        <time>2022-06-11T14:09:47.029Z</time>
      </trkpt>
      <trkpt lat="43.10143" lon="17.69805">
        <ele>57.987424</ele>
        <time>2022-06-11T14:09:50.015Z</time>
      </trkpt>
      <trkpt lat="43.10154" lon="17.69798">
        <ele>57.790313</ele>
        <time>2022-06-11T14:09:53.024Z</time>
      </trkpt>
      <trkpt lat="43.10165" lon="17.69789">
        <ele>57.594633</ele>
        <time>2022-06-11T14:09:56.030Z</time>
      </trkpt>
      <trkpt lat="43.10176" lon="17.69783">
        <ele>57.406442</ele>
        <time>2022-06-11T14:09:59.027Z</time>
      </trkpt>
      <trkpt lat="43.10187" lon="17.69776">
        <ele>57.211256</ele>
        <time>2022-06-11T14:10:02.015Z</time>
      </trkpt>
      <trkpt lat="43.10198" lon="17.69771">
        <ele>57.021562</ele>
        <time>2022-06-11T14:10:05.016Z</time>
      </trkpt>
      <trkpt lat="43.1021" lon="17.69767">
        <ele>56.82327</ele>
        <time>2022-06-11T14:10:08.024Z</time>
      </trkpt>
      <trkpt lat="43.10222" lon="17.69762">
        <ele>56.633575</ele>
        <time>2022-06-11T14:10:11.029Z</time>
      </trkpt>
      <trkpt lat="43.10233" lon="17.69759">
        <ele>56.448418</ele>
        <time>2022-06-11T14:10:14.059Z</time>
      </trkpt>
      <trkpt lat="43.10245" lon="17.69757">
        <ele>56.264357</ele>
        <time>2022-06-11T14:10:17.032Z</time>
      </trkpt>
      <trkpt lat="43.10257" lon="17.69756">
        <ele>56.071686</ele>
        <time>2022-06-11T14:10:20.024Z</time>
      </trkpt>
      <trkpt lat="43.10268" lon="17.69756">
        <ele>55.887082</ele>
        <time>2022-06-11T14:10:23.018Z</time>
      </trkpt>
      <trkpt lat="43.10279" lon="17.69757">
        <ele>55.715081</ele>
        <time>2022-06-11T14:10:26.038Z</time>
      </trkpt>
      <trkpt lat="43.1029" lon="17.69758">
        <ele>55.549486</ele>
        <time>2022-06-11T14:10:29.020Z</time>
      </trkpt>
      <trkpt lat="43.103" lon="17.69759">
        <ele>55.352455</ele>
        <time>2022-06-11T14:10:32.029Z</time>
      </trkpt>
      <trkpt lat="43.10311" lon="17.69762">
        <ele>55.065435</ele>
        <time>2022-06-11T14:10:35.032Z</time>
      </trkpt>
      <trkpt lat="43.10322" lon="17.69764">
        <ele>54.789007</ele>
        <time>2022-06-11T14:10:38.049Z</time>
      </trkpt>
      <trkpt lat="43.10332" lon="17.69766">
        <ele>54.50916</ele>
        <time>2022-06-11T14:10:41.035Z</time>
      </trkpt>
      <trkpt lat="43.10343" lon="17.69769">
        <ele>54.22571</ele>
        <time>2022-06-11T14:10:44.033Z</time>
      </trkpt>
      <trkpt lat="43.10353" lon="17.69773">
        <ele>53.954049</ele>
        <time>2022-06-11T14:10:47.031Z</time>
      </trkpt>
      <trkpt lat="43.10363" lon="17.69777">
        <ele>53.69008</ele>
        <time>2022-06-11T14:10:50.031Z</time>
      </trkpt>
      <trkpt lat="43.10373" lon="17.69781">
        <ele>53.416777</ele>
        <time>2022-06-11T14:10:53.016Z</time>
      </trkpt>
      <trkpt lat="43.10382" lon="17.69785">
        <ele>53.147632</ele>
        <time>2022-06-11T14:10:56.029Z</time>
      </trkpt>
      <trkpt lat="43.10392" lon="17.6979">
        <ele>52.888834</ele>
        <time>2022-06-11T14:10:59.056Z</time>
      </trkpt>
      <trkpt lat="43.10401" lon="17.69794">
        <ele>52.637142</ele>
        <time>2022-06-11T14:11:02.024Z</time>
      </trkpt>
      <trkpt lat="43.10411" lon="17.69799">
        <ele>52.359955</ele>
        <time>2022-06-11T14:11:05.036Z</time>
      </trkpt>
      <trkpt lat="43.10421" lon="17.69803">
        <ele>52.083009</ele>
        <time>2022-06-11T14:11:08.022Z</time>
      </trkpt>
      <trkpt lat="43.1043" lon="17.69809">
        <ele>51.821259</ele>
        <time>2022-06-11T14:11:11.013Z</time>
      </trkpt>
      <trkpt lat="43.10441" lon="17.69815">
        <ele>51.520711</ele>
        <time>2022-06-11T14:11:14.018Z</time>
      </trkpt>
      <trkpt lat="43.10452" lon="17.69821">
        <ele>51.200496</ele>
        <time>2022-06-11T14:11:17.046Z</time>
      </trkpt>
      <trkpt lat="43.10463" lon="17.69825">
        <ele>50.916815</ele>
        <time>2022-06-11T14:11:20.032Z</time>
      </trkpt>
      <trkpt lat="43.10473" lon="17.69827">
        <ele>50.73299</ele>
        <time>2022-06-11T14:11:23.044Z</time>
      </trkpt>
      <trkpt lat="43.10484" lon="17.6983">
        <ele>50.738357</ele>
        <time>2022-06-11T14:11:26.028Z</time>
      </trkpt>
      <trkpt lat="43.10495" lon="17.69833">
        <ele>50.74362</ele>
        <time>2022-06-11T14:11:29.026Z</time>
      </trkpt>
      <trkpt lat="43.10506" lon="17.69835">
        <ele>50.749058</ele>
        <time>2022-06-11T14:11:32.035Z</time>
      </trkpt>
      <trkpt lat="43.10516" lon="17.69836">
        <ele>50.754097</ele>
        <time>2022-06-11T14:11:35.028Z</time>
      </trkpt>
      <trkpt lat="43.10526" lon="17.69838">
        <ele>50.758678</ele>
        <time>2022-06-11T14:11:38.024Z</time>
      </trkpt>
      <trkpt lat="43.10531" lon="17.69849">
        <ele>50.763222</ele>
        <time>2022-06-11T14:11:43.028Z</time>
      </trkpt>
      <trkpt lat="43.1053" lon="17.69862">
        <ele>50.76796</ele>
        <time>2022-06-11T14:11:47.013Z</time>
      </trkpt>
      <trkpt lat="43.10526" lon="17.69876">
        <ele>50.773036</ele>
        <time>2022-06-11T14:11:52.031Z</time>
      </trkpt>
      <trkpt lat="43.10528" lon="17.69891">
        <ele>50.778276</ele>
        <time>2022-06-11T14:11:57.040Z</time>
      </trkpt>
      <trkpt lat="43.10536" lon="17.69897">
        <ele>50.782626</ele>
        <time>2022-06-11T14:12:01.019Z</time>
      </trkpt>
      <trkpt lat="43.10544" lon="17.69903">
        <ele>50.787214</ele>
        <time>2022-06-11T14:12:07.013Z</time>
      </trkpt>
      <trkpt lat="43.10554" lon="17.69908">
        <ele>50.792159</ele>
        <time>2022-06-11T14:12:11.053Z</time>
      </trkpt>
      <trkpt lat="43.10563" lon="17.6991">
        <ele>50.796634</ele>
        <time>2022-06-11T14:12:15.024Z</time>
      </trkpt>
      <trkpt lat="43.10572" lon="17.69914">
        <ele>50.801139</ele>
        <time>2022-06-11T14:12:19.011Z</time>
      </trkpt>
      <trkpt lat="43.10582" lon="17.69917">
        <ele>50.806185</ele>
        <time>2022-06-11T14:12:23.996Z</time>
      </trkpt>
      <trkpt lat="43.10592" lon="17.69921">
        <ele>50.810934</ele>
        <time>2022-06-11T14:12:28.012Z</time>
      </trkpt>
      <trkpt lat="43.10601" lon="17.69924">
        <ele>50.815663</ele>
        <time>2022-06-11T14:12:33.009Z</time>
      </trkpt>
      <trkpt lat="43.10612" lon="17.69925">
        <ele>50.879696</ele>
        <time>2022-06-11T14:12:38.019Z</time>
      </trkpt>
      <trkpt lat="43.10623" lon="17.69928">
        <ele>50.995459</ele>
        <time>2022-06-11T14:12:44.015Z</time>
      </trkpt>
      <trkpt lat="43.10632" lon="17.69933">
        <ele>51.095003</ele>
        <time>2022-06-11T14:12:48.029Z</time>
      </trkpt>
      <trkpt lat="43.1064" lon="17.69939">
        <ele>51.192857</ele>
        <time>2022-06-11T14:12:53.015Z</time>
      </trkpt>
      <trkpt lat="43.10646" lon="17.69948">
        <ele>51.289509</ele>
        <time>2022-06-11T14:12:58.032Z</time>
      </trkpt>
      <trkpt lat="43.10654" lon="17.69957">
        <ele>51.397519</ele>
        <time>2022-06-11T14:13:03.005Z</time>
      </trkpt>
      <trkpt lat="43.10661" lon="17.69966">
        <ele>51.501099</ele>
        <time>2022-06-11T14:13:07.043Z</time>
      </trkpt>
      <trkpt lat="43.10669" lon="17.69976">
        <ele>51.608981</ele>
        <time>2022-06-11T14:13:12.065Z</time>
      </trkpt>
      <trkpt lat="43.10676" lon="17.69985">
        <ele>51.712517</ele>
        <time>2022-06-11T14:13:16.031Z</time>
      </trkpt>
      <trkpt lat="43.10684" lon="17.69995">
        <ele>51.827958</ele>
        <time>2022-06-11T14:13:20.016Z</time>
      </trkpt>
      <trkpt lat="43.10691" lon="17.70006">
        <ele>51.941927</ele>
        <time>2022-06-11T14:13:24.047Z</time>
      </trkpt>
      <trkpt lat="43.10699" lon="17.70015">
        <ele>52.055553</ele>
        <time>2022-06-11T14:13:28.003Z</time>
      </trkpt>
      <trkpt lat="43.10707" lon="17.70021">
        <ele>52.150755</ele>
        <time>2022-06-11T14:13:31.000Z</time>
      </trkpt>
      <trkpt lat="43.10717" lon="17.70025">
        <ele>52.255729</ele>
        <time>2022-06-11T14:13:34.002Z</time>
      </trkpt>
      <trkpt lat="43.10726" lon="17.70024">
        <ele>52.354799</ele>
        <time>2022-06-11T14:13:37.015Z</time>
      </trkpt>
      <trkpt lat="43.10736" lon="17.70024">
        <ele>52.457054</ele>
        <time>2022-06-11T14:13:40.004Z</time>
      </trkpt>
      <trkpt lat="43.10747" lon="17.70022">
        <ele>52.571625</ele>
        <time>2022-06-11T14:13:42.998Z</time>
      </trkpt>
      <trkpt lat="43.10756" lon="17.70021">
        <ele>52.671765</ele>
        <time>2022-06-11T14:13:45.997Z</time>
      </trkpt>
      <trkpt lat="43.10768" lon="17.70021">
        <ele>52.931566</ele>
        <time>2022-06-11T14:13:49.997Z</time>
      </trkpt>
      <trkpt lat="43.10779" lon="17.70023">
        <ele>53.290072</ele>
        <time>2022-06-11T14:13:54.001Z</time>
      </trkpt>
      <trkpt lat="43.10791" lon="17.70028">
        <ele>53.644623</ele>
        <time>2022-06-11T14:13:57.995Z</time>
      </trkpt>
      <trkpt lat="43.108" lon="17.70033">
        <ele>53.957661</ele>
        <time>2022-06-11T14:14:00.997Z</time>
      </trkpt>
      <trkpt lat="43.10811" lon="17.70039">
        <ele>54.307167</ele>
        <time>2022-06-11T14:14:04.993Z</time>
      </trkpt>
      <trkpt lat="43.10819" lon="17.70045">
        <ele>54.579984</ele>
        <time>2022-06-11T14:14:08.004Z</time>
      </trkpt>
      <trkpt lat="43.10828" lon="17.70055">
        <ele>54.927392</ele>
        <time>2022-06-11T14:14:12.010Z</time>
      </trkpt>
      <trkpt lat="43.10835" lon="17.70066">
        <ele>55.257639</ele>
        <time>2022-06-11T14:14:16.001Z</time>
      </trkpt>
      <trkpt lat="43.10842" lon="17.70077">
        <ele>55.585567</ele>
        <time>2022-06-11T14:14:20.014Z</time>
      </trkpt>
      <trkpt lat="43.1085" lon="17.70089">
        <ele>55.94262</ele>
        <time>2022-06-11T14:14:24.012Z</time>
      </trkpt>
      <trkpt lat="43.10856" lon="17.70099">
        <ele>56.213334</ele>
        <time>2022-06-11T14:14:27.004Z</time>
      </trkpt>
      <trkpt lat="43.10862" lon="17.70112">
        <ele>56.545728</ele>
        <time>2022-06-11T14:14:31.001Z</time>
      </trkpt>
      <trkpt lat="43.1087" lon="17.70118">
        <ele>56.828241</ele>
        <time>2022-06-11T14:14:34.000Z</time>
      </trkpt>
      <trkpt lat="43.10879" lon="17.70121">
        <ele>57.112669</ele>
        <time>2022-06-11T14:14:37.003Z</time>
      </trkpt>
      <trkpt lat="43.10889" lon="17.70123">
        <ele>57.411521</ele>
        <time>2022-06-11T14:14:40.036Z</time>
      </trkpt>
      <trkpt lat="43.10899" lon="17.70127">
        <ele>57.738728</ele>
        <time>2022-06-11T14:14:43.994Z</time>
      </trkpt>
      <trkpt lat="43.10898" lon="17.70143">
        <ele>58.07592</ele>
        <time>2022-06-11T14:14:48.999Z</time>
      </trkpt>
      <trkpt lat="43.10895" lon="17.70156">
        <ele>58.439207</ele>
        <time>2022-06-11T14:14:52.002Z</time>
      </trkpt>
      <trkpt lat="43.10891" lon="17.70169">
        <ele>58.795255</ele>
        <time>2022-06-11T14:14:54.986Z</time>
      </trkpt>
      <trkpt lat="43.10888" lon="17.70183">
        <ele>59.166</ele>
        <time>2022-06-11T14:14:57.992Z</time>
      </trkpt>
      <trkpt lat="43.10885" lon="17.70196">
        <ele>59.527821</ele>
        <time>2022-06-11T14:15:00.995Z</time>
      </trkpt>
      <trkpt lat="43.10883" lon="17.70209">
        <ele>59.866942</ele>
        <time>2022-06-11T14:15:04.005Z</time>
      </trkpt>
      <trkpt lat="43.10881" lon="17.70224">
        <ele>60.246572</ele>
        <time>2022-06-11T14:15:06.999Z</time>
      </trkpt>
      <trkpt lat="43.10881" lon="17.70242">
        <ele>60.716589</ele>
        <time>2022-06-11T14:15:10.010Z</time>
      </trkpt>
      <trkpt lat="43.10879" lon="17.70257">
        <ele>61.108902</ele>
        <time>2022-06-11T14:15:12.997Z</time>
      </trkpt>
      <trkpt lat="43.1088" lon="17.70273">
        <ele>61.502775</ele>
        <time>2022-06-11T14:15:15.989Z</time>
      </trkpt>
      <trkpt lat="43.10883" lon="17.70286">
        <ele>61.871066</ele>
        <time>2022-06-11T14:15:19.000Z</time>
      </trkpt>
      <trkpt lat="43.10886" lon="17.703">
        <ele>62.236373</ele>
        <time>2022-06-11T14:15:21.999Z</time>
      </trkpt>
      <trkpt lat="43.10886" lon="17.70314">
        <ele>62.590722</ele>
        <time>2022-06-11T14:15:24.996Z</time>
      </trkpt>
      <trkpt lat="43.10878" lon="17.70323">
        <ele>62.950488</ele>
        <time>2022-06-11T14:15:28.994Z</time>
      </trkpt>
      <trkpt lat="43.10869" lon="17.70319">
        <ele>63.289708</ele>
        <time>2022-06-11T14:15:31.995Z</time>
      </trkpt>
      <trkpt lat="43.10858" lon="17.70317">
        <ele>63.658092</ele>
        <time>2022-06-11T14:15:35.025Z</time>
      </trkpt>
      <trkpt lat="43.10849" lon="17.70317">
        <ele>63.989067</ele>
        <time>2022-06-11T14:15:37.994Z</time>
      </trkpt>
      <trkpt lat="43.1084" lon="17.70315">
        <ele>64.309351</ele>
        <time>2022-06-11T14:15:40.991Z</time>
      </trkpt>
      <trkpt lat="43.10831" lon="17.70311">
        <ele>64.458916</ele>
        <time>2022-06-11T14:15:43.993Z</time>
      </trkpt>
      <trkpt lat="43.10822" lon="17.70305">
        <ele>64.458916</ele>
        <time>2022-06-11T14:15:47.002Z</time>
      </trkpt>
      <trkpt lat="43.10812" lon="17.70298">
        <ele>64.458916</ele>
        <time>2022-06-11T14:15:49.995Z</time>
      </trkpt>
      <trkpt lat="43.10801" lon="17.70291">
        <ele>64.458916</ele>
        <time>2022-06-11T14:15:53.003Z</time>
      </trkpt>
      <trkpt lat="43.10791" lon="17.70284">
        <ele>64.458916</ele>
        <time>2022-06-11T14:15:56.008Z</time>
      </trkpt>
      <trkpt lat="43.1078" lon="17.70283">
        <ele>64.458916</ele>
        <time>2022-06-11T14:15:59.005Z</time>
      </trkpt>
      <trkpt lat="43.10775" lon="17.70295">
        <ele>64.458916</ele>
        <time>2022-06-11T14:16:02.988Z</time>
      </trkpt>
      <trkpt lat="43.10772" lon="17.70309">
        <ele>64.458916</ele>
        <time>2022-06-11T14:16:07.996Z</time>
      </trkpt>
      <trkpt lat="43.10773" lon="17.70328">
        <ele>64.458916</ele>
        <time>2022-06-11T14:16:58.023Z</time>
      </trkpt>
      <trkpt lat="43.10773" lon="17.70341">
        <ele>64.458916</ele>
        <time>2022-06-11T14:17:07.024Z</time>
      </trkpt>
      <trkpt lat="43.10753" lon="17.70341">
        <ele>64.458916</ele>
        <time>2022-06-11T14:19:03.996Z</time>
      </trkpt>
      <trkpt lat="43.10743" lon="17.70338">
        <ele>64.458916</ele>
        <time>2022-06-11T14:19:09.991Z</time>
      </trkpt>
      <trkpt lat="43.10727" lon="17.70299">
        <ele>64.458916</ele>
        <time>2022-06-11T14:19:50.030Z</time>
      </trkpt>
      <trkpt lat="43.10723" lon="17.703">
        <ele>64.458916</ele>
        <time>2022-06-11T14:20:37.852Z</time>
      </trkpt>
    </trkseg>
  </trk>
  <trk>
    <name><![CDATA[Tour d'Europe: étape 713]]></name>
    <extensions>
      <line xmlns="http://www.topografix.com/GPX/gpx_style/0/2">
        <color>FF0000</color>
        <width>4</width>
      </line>
    </extensions>
    <trkseg>
      <trkpt lat="42.64141" lon="18.10949">
        <ele>52.612819</ele>
        <time>2022-06-10T07:51:07.575Z</time>
      </trkpt>
      <trkpt lat="42.6413" lon="18.10944">
        <ele>52.612819</ele>
        <time>2022-06-10T07:51:09.464Z</time>
      </trkpt>
      <trkpt lat="42.64117" lon="18.10933">
        <ele>52.612819</ele>
        <time>2022-06-10T07:51:11.723Z</time>
      </trkpt>
      <trkpt lat="42.64106" lon="18.10942">
        <ele>52.612819</ele>
        <time>2022-06-10T07:53:12.704Z</time>
      </trkpt>
      <trkpt lat="42.64104" lon="18.10958">
        <ele>52.612819</ele>
        <time>2022-06-10T07:54:57.703Z</time>
      </trkpt>
      <trkpt lat="42.64114" lon="18.10944">
        <ele>52.612819</ele>
        <time>2022-06-10T07:56:08.730Z</time>
      </trkpt>
      <trkpt lat="42.64117" lon="18.10979">
        <ele>52.692345</ele>
        <time>2022-06-10T07:56:57.692Z</time>
      </trkpt>
      <trkpt lat="42.64114" lon="18.10991">
        <ele>53.036753</ele>
        <time>2022-06-10T07:57:05.679Z</time>
      </trkpt>
      <trkpt lat="42.6411" lon="18.11002">
        <ele>53.395018</ele>
        <time>2022-06-10T07:57:14.758Z</time>
      </trkpt>
      <trkpt lat="42.64105" lon="18.11013">
        <ele>53.74846</ele>
        <time>2022-06-10T07:57:20.696Z</time>
      </trkpt>
      <trkpt lat="42.64101" lon="18.11025">
        <ele>54.107061</ele>
        <time>2022-06-10T07:57:26.713Z</time>
      </trkpt>
      <trkpt lat="42.64096" lon="18.11036">
        <ele>54.477479</ele>
        <time>2022-06-10T07:57:34.690Z</time>
      </trkpt>
      <trkpt lat="42.64095" lon="18.11049">
        <ele>54.845059</ele>
        <time>2022-06-10T07:57:41.696Z</time>
      </trkpt>
      <trkpt lat="42.64094" lon="18.11062">
        <ele>55.210427</ele>
        <time>2022-06-10T07:57:50.694Z</time>
      </trkpt>
      <trkpt lat="42.64094" lon="18.11075">
        <ele>55.570974</ele>
        <time>2022-06-10T07:58:00.699Z</time>
      </trkpt>
      <trkpt lat="42.64103" lon="18.11078">
        <ele>55.923246</ele>
        <time>2022-06-10T07:58:08.708Z</time>
      </trkpt>
      <trkpt lat="42.64113" lon="18.11081">
        <ele>56.29012</ele>
        <time>2022-06-10T07:58:15.694Z</time>
      </trkpt>
      <trkpt lat="42.64122" lon="18.11084">
        <ele>56.682189</ele>
        <time>2022-06-10T07:58:21.706Z</time>
      </trkpt>
      <trkpt lat="42.64132" lon="18.11089">
        <ele>57.079333</ele>
        <time>2022-06-10T07:58:27.689Z</time>
      </trkpt>
      <trkpt lat="42.64141" lon="18.11096">
        <ele>57.470576</ele>
        <time>2022-06-10T07:58:33.694Z</time>
      </trkpt>
      <trkpt lat="42.64147" lon="18.11107">
        <ele>57.859823</ele>
        <time>2022-06-10T07:58:40.699Z</time>
      </trkpt>
      <trkpt lat="42.64152" lon="18.11118">
        <ele>58.236271</ele>
        <time>2022-06-10T07:58:46.696Z</time>
      </trkpt>
      <trkpt lat="42.64159" lon="18.11129">
        <ele>58.633124</ele>
        <time>2022-06-10T07:58:53.687Z</time>
      </trkpt>
      <trkpt lat="42.64165" lon="18.11139">
        <ele>58.983926</ele>
        <time>2022-06-10T07:59:01.692Z</time>
      </trkpt>
      <trkpt lat="42.64171" lon="18.11148">
        <ele>59.344901</ele>
        <time>2022-06-10T07:59:12.724Z</time>
      </trkpt>
      <trkpt lat="42.6418" lon="18.11153">
        <ele>59.386626</ele>
        <time>2022-06-10T07:59:24.688Z</time>
      </trkpt>
      <trkpt lat="42.64189" lon="18.11158">
        <ele>59.244424</ele>
        <time>2022-06-10T07:59:37.698Z</time>
      </trkpt>
      <trkpt lat="42.64192" lon="18.1117">
        <ele>59.099268</ele>
        <time>2022-06-10T07:59:48.704Z</time>
      </trkpt>
      <trkpt lat="42.64193" lon="18.11184">
        <ele>58.940904</ele>
        <time>2022-06-10T07:59:53.696Z</time>
      </trkpt>
      <trkpt lat="42.64195" lon="18.11197">
        <ele>58.79829</ele>
        <time>2022-06-10T07:59:57.765Z</time>
      </trkpt>
      <trkpt lat="42.64196" lon="18.11209">
        <ele>58.649572</ele>
        <time>2022-06-10T08:00:02.704Z</time>
      </trkpt>
      <trkpt lat="42.64198" lon="18.11222">
        <ele>58.507837</ele>
        <time>2022-06-10T08:00:09.694Z</time>
      </trkpt>
      <trkpt lat="42.642" lon="18.11235">
        <ele>58.357641</ele>
        <time>2022-06-10T08:00:17.698Z</time>
      </trkpt>
      <trkpt lat="42.64203" lon="18.11247">
        <ele>58.212004</ele>
        <time>2022-06-10T08:00:24.737Z</time>
      </trkpt>
      <trkpt lat="42.64205" lon="18.11259">
        <ele>58.070552</ele>
        <time>2022-06-10T08:00:30.697Z</time>
      </trkpt>
      <trkpt lat="42.64205" lon="18.11271">
        <ele>57.930691</ele>
        <time>2022-06-10T08:00:39.691Z</time>
      </trkpt>
      <trkpt lat="42.64204" lon="18.11284">
        <ele>57.779839</ele>
        <time>2022-06-10T08:00:50.706Z</time>
      </trkpt>
      <trkpt lat="42.64203" lon="18.11296">
        <ele>57.64124</ele>
        <time>2022-06-10T08:00:56.702Z</time>
      </trkpt>
      <trkpt lat="42.64204" lon="18.1131">
        <ele>57.490673</ele>
        <time>2022-06-10T08:01:03.727Z</time>
      </trkpt>
      <trkpt lat="42.64213" lon="18.11311">
        <ele>57.34091</ele>
        <time>2022-06-10T08:05:05.693Z</time>
      </trkpt>
      <trkpt lat="42.64205" lon="18.11317">
        <ele>57.19827</ele>
        <time>2022-06-10T08:05:52.695Z</time>
      </trkpt>
      <trkpt lat="42.64204" lon="18.11329">
        <ele>57.052505</ele>
        <time>2022-06-10T08:05:59.725Z</time>
      </trkpt>
      <trkpt lat="42.64202" lon="18.11342">
        <ele>56.904641</ele>
        <time>2022-06-10T08:06:08.695Z</time>
      </trkpt>
      <trkpt lat="42.64201" lon="18.11354">
        <ele>56.765402</ele>
        <time>2022-06-10T08:06:16.695Z</time>
      </trkpt>
      <trkpt lat="42.642" lon="18.11368">
        <ele>56.502442</ele>
        <time>2022-06-10T08:06:22.690Z</time>
      </trkpt>
      <trkpt lat="42.642" lon="18.11381">
        <ele>56.196543</ele>
        <time>2022-06-10T08:06:30.721Z</time>
      </trkpt>
      <trkpt lat="42.64198" lon="18.11399">
        <ele>55.754584</ele>
        <time>2022-06-10T08:13:35.702Z</time>
      </trkpt>
      <trkpt lat="42.64209" lon="18.11296">
        <ele>53.211311</ele>
        <time>2022-06-10T08:16:56.706Z</time>
      </trkpt>
      <trkpt lat="42.64222" lon="18.11295">
        <ele>52.798673</ele>
        <time>2022-06-10T08:16:59.704Z</time>
      </trkpt>
      <trkpt lat="42.64231" lon="18.1129">
        <ele>52.470738</ele>
        <time>2022-06-10T08:17:01.711Z</time>
      </trkpt>
      <trkpt lat="42.6424" lon="18.11286">
        <ele>52.154643</ele>
        <time>2022-06-10T08:17:03.699Z</time>
      </trkpt>
      <trkpt lat="42.64249" lon="18.11279">
        <ele>51.819346</ele>
        <time>2022-06-10T08:17:05.685Z</time>
      </trkpt>
      <trkpt lat="42.64254" lon="18.11267">
        <ele>51.495021</ele>
        <time>2022-06-10T08:17:07.768Z</time>
      </trkpt>
      <trkpt lat="42.64252" lon="18.11248">
        <ele>51.025285</ele>
        <time>2022-06-10T08:17:10.700Z</time>
      </trkpt>
      <trkpt lat="42.64249" lon="18.11234">
        <ele>50.759919</ele>
        <time>2022-06-10T08:17:12.700Z</time>
      </trkpt>
      <trkpt lat="42.64245" lon="18.11218">
        <ele>50.94604</ele>
        <time>2022-06-10T08:17:14.706Z</time>
      </trkpt>
      <trkpt lat="42.6424" lon="18.11199">
        <ele>51.166789</ele>
        <time>2022-06-10T08:17:16.707Z</time>
      </trkpt>
      <trkpt lat="42.64236" lon="18.1118">
        <ele>51.383667</ele>
        <time>2022-06-10T08:17:18.698Z</time>
      </trkpt>
      <trkpt lat="42.64233" lon="18.11151">
        <ele>51.701714</ele>
        <time>2022-06-10T08:17:21.764Z</time>
      </trkpt>
      <trkpt lat="42.6423" lon="18.11118">
        <ele>52.064006</ele>
        <time>2022-06-10T08:17:24.703Z</time>
      </trkpt>
      <trkpt lat="42.6423" lon="18.11096">
        <ele>52.307341</ele>
        <time>2022-06-10T08:17:26.713Z</time>
      </trkpt>
      <trkpt lat="42.64237" lon="18.11056">
        <ele>52.760849</ele>
        <time>2022-06-10T08:17:31.747Z</time>
      </trkpt>
      <trkpt lat="42.64246" lon="18.11044">
        <ele>52.935885</ele>
        <time>2022-06-10T08:17:33.708Z</time>
      </trkpt>
      <trkpt lat="42.64256" lon="18.11041">
        <ele>53.098427</ele>
        <time>2022-06-10T08:17:35.699Z</time>
      </trkpt>
      <trkpt lat="42.64322" lon="18.11098">
        <ele>56.048726</ele>
        <time>2022-06-10T08:17:48.701Z</time>
      </trkpt>
      <trkpt lat="42.64328" lon="18.11117">
        <ele>56.774678</ele>
        <time>2022-06-10T08:17:50.700Z</time>
      </trkpt>
      <trkpt lat="42.64332" lon="18.11141">
        <ele>57.597423</ele>
        <time>2022-06-10T08:17:52.700Z</time>
      </trkpt>
      <trkpt lat="42.64332" lon="18.11154">
        <ele>58.022393</ele>
        <time>2022-06-10T08:17:53.698Z</time>
      </trkpt>
      <trkpt lat="42.64332" lon="18.11167">
        <ele>58.464459</ele>
        <time>2022-06-10T08:17:54.746Z</time>
      </trkpt>
      <trkpt lat="42.64331" lon="18.11179">
        <ele>58.88953</ele>
        <time>2022-06-10T08:17:55.745Z</time>
      </trkpt>
      <trkpt lat="42.64332" lon="18.11202">
        <ele>59.657933</ele>
        <time>2022-06-10T08:17:57.703Z</time>
      </trkpt>
      <trkpt lat="42.64333" lon="18.1122">
        <ele>60.291656</ele>
        <time>2022-06-10T08:17:59.706Z</time>
      </trkpt>
      <trkpt lat="42.64333" lon="18.1124">
        <ele>60.954674</ele>
        <time>2022-06-10T08:18:01.707Z</time>
      </trkpt>
      <trkpt lat="42.64334" lon="18.1126">
        <ele>61.632237</ele>
        <time>2022-06-10T08:18:03.707Z</time>
      </trkpt>
      <trkpt lat="42.64335" lon="18.11281">
        <ele>63.019014</ele>
        <time>2022-06-10T08:18:05.711Z</time>
      </trkpt>
      <trkpt lat="42.64337" lon="18.11303">
        <ele>64.460654</ele>
        <time>2022-06-10T08:18:07.701Z</time>
      </trkpt>
      <trkpt lat="42.64336" lon="18.11326">
        <ele>66.065618</ele>
        <time>2022-06-10T08:18:09.707Z</time>
      </trkpt>
      <trkpt lat="42.64335" lon="18.11339">
        <ele>66.894248</ele>
        <time>2022-06-10T08:18:10.747Z</time>
      </trkpt>
      <trkpt lat="42.64333" lon="18.11352">
        <ele>67.812484</ele>
        <time>2022-06-10T08:18:11.697Z</time>
      </trkpt>
      <trkpt lat="42.64331" lon="18.11374">
        <ele>69.303303</ele>
        <time>2022-06-10T08:18:13.699Z</time>
      </trkpt>
      <trkpt lat="42.6431" lon="18.11499">
        <ele>77.991859</ele>
        <time>2022-06-10T08:18:26.714Z</time>
      </trkpt>
      <trkpt lat="42.64312" lon="18.11521">
        <ele>78.87311</ele>
        <time>2022-06-10T08:18:28.706Z</time>
      </trkpt>
      <trkpt lat="42.64313" lon="18.11533">
        <ele>79.323555</ele>
        <time>2022-06-10T08:18:29.740Z</time>
      </trkpt>
      <trkpt lat="42.64313" lon="18.11547">
        <ele>79.823603</ele>
        <time>2022-06-10T08:18:30.767Z</time>
      </trkpt>
      <trkpt lat="42.64313" lon="18.11561">
        <ele>80.316268</ele>
        <time>2022-06-10T08:18:31.738Z</time>
      </trkpt>
      <trkpt lat="42.64311" lon="18.11576">
        <ele>80.867139</ele>
        <time>2022-06-10T08:18:32.694Z</time>
      </trkpt>
      <trkpt lat="42.64309" lon="18.11591">
        <ele>81.441261</ele>
        <time>2022-06-10T08:18:33.693Z</time>
      </trkpt>
      <trkpt lat="42.64308" lon="18.11605">
        <ele>81.921115</ele>
        <time>2022-06-10T08:18:34.710Z</time>
      </trkpt>
      <trkpt lat="42.64305" lon="18.1162">
        <ele>82.509633</ele>
        <time>2022-06-10T08:18:35.690Z</time>
      </trkpt>
      <trkpt lat="42.643" lon="18.11635">
        <ele>83.083417</ele>
        <time>2022-06-10T08:18:36.758Z</time>
      </trkpt>
      <trkpt lat="42.64296" lon="18.11649">
        <ele>83.623489</ele>
        <time>2022-06-10T08:18:37.709Z</time>
      </trkpt>
      <trkpt lat="42.64293" lon="18.11662">
        <ele>84.124732</ele>
        <time>2022-06-10T08:18:38.695Z</time>
      </trkpt>
      <trkpt lat="42.64286" lon="18.11688">
        <ele>85.105678</ele>
        <time>2022-06-10T08:18:40.696Z</time>
      </trkpt>
      <trkpt lat="42.64233" lon="18.11907">
        <ele>92.864874</ele>
        <time>2022-06-10T08:18:56.805Z</time>
      </trkpt>
      <trkpt lat="42.64229" lon="18.11922">
        <ele>93.401848</ele>
        <time>2022-06-10T08:18:57.705Z</time>
      </trkpt>
      <trkpt lat="42.64224" lon="18.11936">
        <ele>93.920559</ele>
        <time>2022-06-10T08:18:58.707Z</time>
      </trkpt>
      <trkpt lat="42.63369" lon="18.13697">
        <ele>220.648478</ele>
        <time>2022-06-10T08:21:10.812Z</time>
      </trkpt>
      <trkpt lat="42.6336" lon="18.13705">
        <ele>219.953882</ele>
        <time>2022-06-10T08:21:11.736Z</time>
      </trkpt>
      <trkpt lat="42.63176" lon="18.14597">
        <ele>86.208061</ele>
        <time>2022-06-10T08:22:12.769Z</time>
      </trkpt>
      <trkpt lat="42.63081" lon="18.15583">
        <ele>171.645113</ele>
        <time>2022-06-10T08:23:32.711Z</time>
      </trkpt>
      <trkpt lat="42.63086" lon="18.15598">
        <ele>171.885703</ele>
        <time>2022-06-10T08:23:33.710Z</time>
      </trkpt>
      <trkpt lat="42.63091" lon="18.15612">
        <ele>172.111231</ele>
        <time>2022-06-10T08:23:34.739Z</time>
      </trkpt>
      <trkpt lat="42.63097" lon="18.15626">
        <ele>172.342778</ele>
        <time>2022-06-10T08:23:35.705Z</time>
      </trkpt>
      <trkpt lat="42.63103" lon="18.15641">
        <ele>172.582669</ele>
        <time>2022-06-10T08:23:36.728Z</time>
      </trkpt>
      <trkpt lat="42.6311" lon="18.15657">
        <ele>172.850837</ele>
        <time>2022-06-10T08:23:37.702Z</time>
      </trkpt>
      <trkpt lat="42.63117" lon="18.15674">
        <ele>173.134629</ele>
        <time>2022-06-10T08:23:38.706Z</time>
      </trkpt>
      <trkpt lat="42.63123" lon="18.1569">
        <ele>173.392713</ele>
        <time>2022-06-10T08:23:39.699Z</time>
      </trkpt>
      <trkpt lat="42.63132" lon="18.15708">
        <ele>173.694618</ele>
        <time>2022-06-10T08:23:40.705Z</time>
      </trkpt>
      <trkpt lat="42.63254" lon="18.15896">
        <ele>173.683195</ele>
        <time>2022-06-10T08:23:54.794Z</time>
      </trkpt>
      <trkpt lat="42.63267" lon="18.15905">
        <ele>174.327304</ele>
        <time>2022-06-10T08:23:55.714Z</time>
      </trkpt>
      <trkpt lat="42.6328" lon="18.15916">
        <ele>175.008771</ele>
        <time>2022-06-10T08:23:56.700Z</time>
      </trkpt>
      <trkpt lat="42.63293" lon="18.15928">
        <ele>175.686556</ele>
        <time>2022-06-10T08:23:57.745Z</time>
      </trkpt>
      <trkpt lat="42.63305" lon="18.1594">
        <ele>176.366174</ele>
        <time>2022-06-10T08:23:58.699Z</time>
      </trkpt>
      <trkpt lat="42.63318" lon="18.15952">
        <ele>177.040885</ele>
        <time>2022-06-10T08:23:59.688Z</time>
      </trkpt>
      <trkpt lat="42.63341" lon="18.15982">
        <ele>178.450765</ele>
        <time>2022-06-10T08:24:01.713Z</time>
      </trkpt>
      <trkpt lat="42.63351" lon="18.15997">
        <ele>179.128975</ele>
        <time>2022-06-10T08:24:02.708Z</time>
      </trkpt>
      <trkpt lat="42.63362" lon="18.16013">
        <ele>179.82637</ele>
        <time>2022-06-10T08:24:03.710Z</time>
      </trkpt>
      <trkpt lat="42.63372" lon="18.1603">
        <ele>180.516056</ele>
        <time>2022-06-10T08:24:04.740Z</time>
      </trkpt>
      <trkpt lat="42.63381" lon="18.16048">
        <ele>181.218527</ele>
        <time>2022-06-10T08:24:05.702Z</time>
      </trkpt>
      <trkpt lat="42.6339" lon="18.16067">
        <ele>182.193758</ele>
        <time>2022-06-10T08:24:06.718Z</time>
      </trkpt>
      <trkpt lat="42.64199" lon="18.1648">
        <ele>239.48626</ele>
        <time>2022-06-10T08:25:41.771Z</time>
      </trkpt>
      <trkpt lat="42.64203" lon="18.16459">
        <ele>240.565747</ele>
        <time>2022-06-10T08:25:42.768Z</time>
      </trkpt>
      <trkpt lat="42.64208" lon="18.16437">
        <ele>241.605571</ele>
        <time>2022-06-10T08:25:43.803Z</time>
      </trkpt>
      <trkpt lat="42.64212" lon="18.16417">
        <ele>242.587573</ele>
        <time>2022-06-10T08:25:44.767Z</time>
      </trkpt>
      <trkpt lat="42.64217" lon="18.16397">
        <ele>243.592326</ele>
        <time>2022-06-10T08:25:45.714Z</time>
      </trkpt>
      <trkpt lat="42.64221" lon="18.16377">
        <ele>244.544583</ele>
        <time>2022-06-10T08:25:46.756Z</time>
      </trkpt>
      <trkpt lat="42.64225" lon="18.16357">
        <ele>245.502931</ele>
        <time>2022-06-10T08:25:47.716Z</time>
      </trkpt>
      <trkpt lat="42.64229" lon="18.16337">
        <ele>246.483854</ele>
        <time>2022-06-10T08:25:48.714Z</time>
      </trkpt>
      <trkpt lat="42.64234" lon="18.16319">
        <ele>247.376361</ele>
        <time>2022-06-10T08:25:49.711Z</time>
      </trkpt>
      <trkpt lat="42.64239" lon="18.16301">
        <ele>248.269111</ele>
        <time>2022-06-10T08:25:50.705Z</time>
      </trkpt>
      <trkpt lat="42.64245" lon="18.16283">
        <ele>249.17831</ele>
        <time>2022-06-10T08:25:51.703Z</time>
      </trkpt>
      <trkpt lat="42.6425" lon="18.16264">
        <ele>250.12764</ele>
        <time>2022-06-10T08:25:52.736Z</time>
      </trkpt>
      <trkpt lat="42.64254" lon="18.16246">
        <ele>251.026756</ele>
        <time>2022-06-10T08:25:53.702Z</time>
      </trkpt>
      <trkpt lat="42.6426" lon="18.16228">
        <ele>251.936858</ele>
        <time>2022-06-10T08:25:54.705Z</time>
      </trkpt>
      <trkpt lat="42.64265" lon="18.1621">
        <ele>252.765764</ele>
        <time>2022-06-10T08:25:55.695Z</time>
      </trkpt>
      <trkpt lat="42.6427" lon="18.16193">
        <ele>253.544693</ele>
        <time>2022-06-10T08:25:56.736Z</time>
      </trkpt>
      <trkpt lat="42.64277" lon="18.16173">
        <ele>254.430388</ele>
        <time>2022-06-10T08:25:57.700Z</time>
      </trkpt>
      <trkpt lat="42.64284" lon="18.16155">
        <ele>255.285441</ele>
        <time>2022-06-10T08:25:58.703Z</time>
      </trkpt>
      <trkpt lat="42.6429" lon="18.16137">
        <ele>256.096622</ele>
        <time>2022-06-10T08:25:59.707Z</time>
      </trkpt>
      <trkpt lat="42.64295" lon="18.16119">
        <ele>256.864272</ele>
        <time>2022-06-10T08:26:00.705Z</time>
      </trkpt>
      <trkpt lat="42.64301" lon="18.16102">
        <ele>257.648584</ele>
        <time>2022-06-10T08:26:01.709Z</time>
      </trkpt>
      <trkpt lat="42.64305" lon="18.16084">
        <ele>258.403512</ele>
        <time>2022-06-10T08:26:02.698Z</time>
      </trkpt>
      <trkpt lat="42.6431" lon="18.16066">
        <ele>259.208488</ele>
        <time>2022-06-10T08:26:03.832Z</time>
      </trkpt>
      <trkpt lat="42.64314" lon="18.16047">
        <ele>260.018233</ele>
        <time>2022-06-10T08:26:04.730Z</time>
      </trkpt>
      <trkpt lat="42.64317" lon="18.16027">
        <ele>260.825638</ele>
        <time>2022-06-10T08:26:05.722Z</time>
      </trkpt>
      <trkpt lat="42.64321" lon="18.16008">
        <ele>261.635501</ele>
        <time>2022-06-10T08:26:06.746Z</time>
      </trkpt>
      <trkpt lat="42.64325" lon="18.15989">
        <ele>262.46644</ele>
        <time>2022-06-10T08:26:07.690Z</time>
      </trkpt>
      <trkpt lat="42.64331" lon="18.15971">
        <ele>263.965731</ele>
        <time>2022-06-10T08:26:08.709Z</time>
      </trkpt>
      <trkpt lat="42.64337" lon="18.15952">
        <ele>265.589331</ele>
        <time>2022-06-10T08:26:09.702Z</time>
      </trkpt>
      <trkpt lat="42.64343" lon="18.15935">
        <ele>267.136886</ele>
        <time>2022-06-10T08:26:10.695Z</time>
      </trkpt>
      <trkpt lat="42.64348" lon="18.15919">
        <ele>268.463075</ele>
        <time>2022-06-10T08:26:11.717Z</time>
      </trkpt>
      <trkpt lat="42.64353" lon="18.15904">
        <ele>269.75844</ele>
        <time>2022-06-10T08:26:12.701Z</time>
      </trkpt>
      <trkpt lat="42.64357" lon="18.15887">
        <ele>271.236627</ele>
        <time>2022-06-10T08:26:13.707Z</time>
      </trkpt>
      <trkpt lat="42.64363" lon="18.15871">
        <ele>272.646905</ele>
        <time>2022-06-10T08:26:14.828Z</time>
      </trkpt>
      <trkpt lat="42.64367" lon="18.15855">
        <ele>274.005919</ele>
        <time>2022-06-10T08:26:15.699Z</time>
      </trkpt>
      <trkpt lat="42.64372" lon="18.15841">
        <ele>275.243817</ele>
        <time>2022-06-10T08:26:16.718Z</time>
      </trkpt>
      <trkpt lat="42.64502" lon="18.1588">
        <ele>292.079164</ele>
        <time>2022-06-10T08:26:39.731Z</time>
      </trkpt>
      <trkpt lat="42.64515" lon="18.15878">
        <ele>293.887086</ele>
        <time>2022-06-10T08:44:01.712Z</time>
      </trkpt>
      <trkpt lat="42.64524" lon="18.15875">
        <ele>295.170289</ele>
        <time>2022-06-10T08:44:06.739Z</time>
      </trkpt>
      <trkpt lat="42.64533" lon="18.15873">
        <ele>296.516285</ele>
        <time>2022-06-10T08:44:11.718Z</time>
      </trkpt>
      <trkpt lat="42.64542" lon="18.1587">
        <ele>297.812805</ele>
        <time>2022-06-10T08:44:16.704Z</time>
      </trkpt>
      <trkpt lat="42.64552" lon="18.15867">
        <ele>299.227569</ele>
        <time>2022-06-10T08:44:21.700Z</time>
      </trkpt>
      <trkpt lat="42.64561" lon="18.15866">
        <ele>300.55853</ele>
        <time>2022-06-10T08:44:26.717Z</time>
      </trkpt>
      <trkpt lat="42.64571" lon="18.15865">
        <ele>301.97973</ele>
        <time>2022-06-10T08:44:31.701Z</time>
      </trkpt>
      <trkpt lat="42.64581" lon="18.15866">
        <ele>303.431704</ele>
        <time>2022-06-10T08:44:37.706Z</time>
      </trkpt>
      <trkpt lat="42.64591" lon="18.15867">
        <ele>304.753167</ele>
        <time>2022-06-10T08:44:42.707Z</time>
      </trkpt>
      <trkpt lat="42.64599" lon="18.15871">
        <ele>306.053825</ele>
        <time>2022-06-10T08:44:47.727Z</time>
      </trkpt>
      <trkpt lat="42.64608" lon="18.15876">
        <ele>307.425021</ele>
        <time>2022-06-10T08:44:52.713Z</time>
      </trkpt>
      <trkpt lat="42.64617" lon="18.15883">
        <ele>307.947743</ele>
        <time>2022-06-10T08:44:57.721Z</time>
      </trkpt>
      <trkpt lat="42.64625" lon="18.1589">
        <ele>308.396028</ele>
        <time>2022-06-10T08:45:02.720Z</time>
      </trkpt>
      <trkpt lat="42.64633" lon="18.15899">
        <ele>308.888868</ele>
        <time>2022-06-10T08:45:08.708Z</time>
      </trkpt>
      <trkpt lat="42.64641" lon="18.15907">
        <ele>309.342856</ele>
        <time>2022-06-10T08:45:13.716Z</time>
      </trkpt>
      <trkpt lat="42.64649" lon="18.15915">
        <ele>309.786235</ele>
        <time>2022-06-10T08:45:18.738Z</time>
      </trkpt>
      <trkpt lat="42.64656" lon="18.15921">
        <ele>310.202232</ele>
        <time>2022-06-10T08:45:23.706Z</time>
      </trkpt>
      <trkpt lat="42.64665" lon="18.15927">
        <ele>310.635297</ele>
        <time>2022-06-10T08:45:28.715Z</time>
      </trkpt>
      <trkpt lat="42.64673" lon="18.15933">
        <ele>311.052723</ele>
        <time>2022-06-10T08:45:33.741Z</time>
      </trkpt>
      <trkpt lat="42.64682" lon="18.15938">
        <ele>311.508067</ele>
        <time>2022-06-10T08:45:38.730Z</time>
      </trkpt>
      <trkpt lat="42.64691" lon="18.15943">
        <ele>311.936256</ele>
        <time>2022-06-10T08:45:43.726Z</time>
      </trkpt>
      <trkpt lat="42.647" lon="18.15946">
        <ele>312.400393</ele>
        <time>2022-06-10T08:45:48.712Z</time>
      </trkpt>
      <trkpt lat="42.64711" lon="18.15946">
        <ele>312.885173</ele>
        <time>2022-06-10T08:45:53.717Z</time>
      </trkpt>
      <trkpt lat="42.6472" lon="18.15946">
        <ele>313.305165</ele>
        <time>2022-06-10T08:45:57.711Z</time>
      </trkpt>
      <trkpt lat="42.64729" lon="18.15944">
        <ele>313.728881</ele>
        <time>2022-06-10T08:46:01.693Z</time>
      </trkpt>
      <trkpt lat="42.64739" lon="18.15943">
        <ele>314.197553</ele>
        <time>2022-06-10T08:46:06.707Z</time>
      </trkpt>
      <trkpt lat="42.64749" lon="18.1594">
        <ele>314.679607</ele>
        <time>2022-06-10T08:46:11.700Z</time>
      </trkpt>
      <trkpt lat="42.6476" lon="18.15936">
        <ele>315.180781</ele>
        <time>2022-06-10T08:46:16.726Z</time>
      </trkpt>
      <trkpt lat="42.6477" lon="18.15932">
        <ele>315.677544</ele>
        <time>2022-06-10T08:46:21.694Z</time>
      </trkpt>
      <trkpt lat="42.6478" lon="18.15927">
        <ele>315.97062</ele>
        <time>2022-06-10T08:46:26.712Z</time>
      </trkpt>
      <trkpt lat="42.64791" lon="18.15924">
        <ele>316.194178</ele>
        <time>2022-06-10T08:46:31.703Z</time>
      </trkpt>
      <trkpt lat="42.64801" lon="18.15922">
        <ele>316.406031</ele>
        <time>2022-06-10T08:46:36.736Z</time>
      </trkpt>
      <trkpt lat="42.64812" lon="18.1592">
        <ele>316.638397</ele>
        <time>2022-06-10T08:46:41.686Z</time>
      </trkpt>
      <trkpt lat="42.64821" lon="18.1592">
        <ele>316.82693</ele>
        <time>2022-06-10T08:46:45.702Z</time>
      </trkpt>
      <trkpt lat="42.64831" lon="18.15919">
        <ele>317.019825</ele>
        <time>2022-06-10T08:46:49.688Z</time>
      </trkpt>
      <trkpt lat="42.64842" lon="18.15921">
        <ele>317.242121</ele>
        <time>2022-06-10T08:46:54.695Z</time>
      </trkpt>
      <trkpt lat="42.64852" lon="18.15923">
        <ele>317.460286</ele>
        <time>2022-06-10T08:46:59.685Z</time>
      </trkpt>
      <trkpt lat="42.64862" lon="18.15926">
        <ele>317.668116</ele>
        <time>2022-06-10T08:47:04.693Z</time>
      </trkpt>
      <trkpt lat="42.64872" lon="18.15928">
        <ele>317.868712</ele>
        <time>2022-06-10T08:47:10.690Z</time>
      </trkpt>
      <trkpt lat="42.64881" lon="18.15931">
        <ele>318.068018</ele>
        <time>2022-06-10T08:47:16.686Z</time>
      </trkpt>
      <trkpt lat="42.6489" lon="18.15932">
        <ele>318.259296</ele>
        <time>2022-06-10T08:47:21.685Z</time>
      </trkpt>
      <trkpt lat="42.649" lon="18.15934">
        <ele>318.453406</ele>
        <time>2022-06-10T08:47:26.694Z</time>
      </trkpt>
      <trkpt lat="42.64911" lon="18.15936">
        <ele>318.676544</ele>
        <time>2022-06-10T08:47:31.684Z</time>
      </trkpt>
      <trkpt lat="42.64921" lon="18.15938">
        <ele>318.887495</ele>
        <time>2022-06-10T08:47:36.685Z</time>
      </trkpt>
      <trkpt lat="42.6493" lon="18.1594">
        <ele>319.082218</ele>
        <time>2022-06-10T08:47:41.702Z</time>
      </trkpt>
      <trkpt lat="42.64942" lon="18.15942">
        <ele>319.317742</ele>
        <time>2022-06-10T08:47:46.693Z</time>
      </trkpt>
      <trkpt lat="42.64952" lon="18.15943">
        <ele>319.612995</ele>
        <time>2022-06-10T08:47:51.687Z</time>
      </trkpt>
      <trkpt lat="42.64963" lon="18.15943">
        <ele>320.247708</ele>
        <time>2022-06-10T08:47:56.689Z</time>
      </trkpt>
      <trkpt lat="42.64973" lon="18.15942">
        <ele>320.876027</ele>
        <time>2022-06-10T08:48:01.680Z</time>
      </trkpt>
      <trkpt lat="42.64983" lon="18.15942">
        <ele>321.535157</ele>
        <time>2022-06-10T08:48:06.698Z</time>
      </trkpt>
      <trkpt lat="42.64992" lon="18.15942">
        <ele>322.094694</ele>
        <time>2022-06-10T08:48:10.693Z</time>
      </trkpt>
      <trkpt lat="42.65003" lon="18.15942">
        <ele>322.760039</ele>
        <time>2022-06-10T08:48:15.693Z</time>
      </trkpt>
      <trkpt lat="42.65013" lon="18.15942">
        <ele>323.363698</ele>
        <time>2022-06-10T08:48:20.676Z</time>
      </trkpt>
      <trkpt lat="42.65022" lon="18.15942">
        <ele>323.930098</ele>
        <time>2022-06-10T08:48:24.723Z</time>
      </trkpt>
      <trkpt lat="42.65032" lon="18.15939">
        <ele>324.575266</ele>
        <time>2022-06-10T08:48:29.705Z</time>
      </trkpt>
      <trkpt lat="42.65042" lon="18.15937">
        <ele>325.201261</ele>
        <time>2022-06-10T08:48:34.711Z</time>
      </trkpt>
      <trkpt lat="42.65051" lon="18.15935">
        <ele>325.782476</ele>
        <time>2022-06-10T08:48:39.718Z</time>
      </trkpt>
      <trkpt lat="42.65061" lon="18.15934">
        <ele>326.409003</ele>
        <time>2022-06-10T08:48:45.708Z</time>
      </trkpt>
      <trkpt lat="42.65071" lon="18.15934">
        <ele>327.000242</ele>
        <time>2022-06-10T08:48:51.699Z</time>
      </trkpt>
      <trkpt lat="42.6508" lon="18.15935">
        <ele>327.585074</ele>
        <time>2022-06-10T08:48:57.780Z</time>
      </trkpt>
      <trkpt lat="42.6509" lon="18.15934">
        <ele>328.196399</ele>
        <time>2022-06-10T08:49:03.699Z</time>
      </trkpt>
      <trkpt lat="42.651" lon="18.15932">
        <ele>328.859955</ele>
        <time>2022-06-10T08:49:09.700Z</time>
      </trkpt>
      <trkpt lat="42.65111" lon="18.15931">
        <ele>329.51351</ele>
        <time>2022-06-10T08:49:15.693Z</time>
      </trkpt>
      <trkpt lat="42.65121" lon="18.15928">
        <ele>330.142154</ele>
        <time>2022-06-10T08:49:21.712Z</time>
      </trkpt>
      <trkpt lat="42.6513" lon="18.15924">
        <ele>330.699937</ele>
        <time>2022-06-10T08:49:28.687Z</time>
      </trkpt>
      <trkpt lat="42.6514" lon="18.15922">
        <ele>330.805123</ele>
        <time>2022-06-10T08:49:33.700Z</time>
      </trkpt>
      <trkpt lat="42.6515" lon="18.15921">
        <ele>330.902536</ele>
        <time>2022-06-10T08:49:37.719Z</time>
      </trkpt>
      <trkpt lat="42.6516" lon="18.15919">
        <ele>331.006496</ele>
        <time>2022-06-10T08:49:42.708Z</time>
      </trkpt>
      <trkpt lat="42.6517" lon="18.15916">
        <ele>331.119095</ele>
        <time>2022-06-10T08:49:47.710Z</time>
      </trkpt>
      <trkpt lat="42.65179" lon="18.15914">
        <ele>331.214882</ele>
        <time>2022-06-10T08:49:52.701Z</time>
      </trkpt>
      <trkpt lat="42.65189" lon="18.15913">
        <ele>331.32171</ele>
        <time>2022-06-10T08:49:58.716Z</time>
      </trkpt>
      <trkpt lat="42.65199" lon="18.15911">
        <ele>331.426462</ele>
        <time>2022-06-10T08:50:04.708Z</time>
      </trkpt>
      <trkpt lat="42.65235" lon="18.15904">
        <ele>331.799264</ele>
        <time>2022-06-10T08:52:47.781Z</time>
      </trkpt>
      <trkpt lat="42.65245" lon="18.15899">
        <ele>331.916055</ele>
        <time>2022-06-10T08:52:51.709Z</time>
      </trkpt>
      <trkpt lat="42.65256" lon="18.15902">
        <ele>332.027081</ele>
        <time>2022-06-10T08:52:58.742Z</time>
      </trkpt>
      <trkpt lat="42.65266" lon="18.15905">
        <ele>332.135149</ele>
        <time>2022-06-10T08:53:03.704Z</time>
      </trkpt>
      <trkpt lat="42.65275" lon="18.1591">
        <ele>332.233641</ele>
        <time>2022-06-10T08:53:08.712Z</time>
      </trkpt>
      <trkpt lat="42.65283" lon="18.15915">
        <ele>332.330979</ele>
        <time>2022-06-10T08:53:14.702Z</time>
      </trkpt>
      <trkpt lat="42.65292" lon="18.15919">
        <ele>332.431239</ele>
        <time>2022-06-10T08:53:21.701Z</time>
      </trkpt>
      <trkpt lat="42.65302" lon="18.15923">
        <ele>332.531273</ele>
        <time>2022-06-10T08:53:27.718Z</time>
      </trkpt>
      <trkpt lat="42.65311" lon="18.15924">
        <ele>332.936811</ele>
        <time>2022-06-10T08:53:33.699Z</time>
      </trkpt>
      <trkpt lat="42.6532" lon="18.15924">
        <ele>333.470925</ele>
        <time>2022-06-10T08:53:40.710Z</time>
      </trkpt>
      <trkpt lat="42.6533" lon="18.15924">
        <ele>334.045512</ele>
        <time>2022-06-10T08:53:47.707Z</time>
      </trkpt>
      <trkpt lat="42.6534" lon="18.15925">
        <ele>334.651289</ele>
        <time>2022-06-10T08:53:54.700Z</time>
      </trkpt>
      <trkpt lat="42.65351" lon="18.15927">
        <ele>335.245884</ele>
        <time>2022-06-10T08:54:01.739Z</time>
      </trkpt>
      <trkpt lat="42.6536" lon="18.15926">
        <ele>335.774109</ele>
        <time>2022-06-10T08:54:07.748Z</time>
      </trkpt>
      <trkpt lat="42.65369" lon="18.15926">
        <ele>336.343037</ele>
        <time>2022-06-10T08:54:13.743Z</time>
      </trkpt>
      <trkpt lat="42.65379" lon="18.15925">
        <ele>336.895745</ele>
        <time>2022-06-10T08:54:19.703Z</time>
      </trkpt>
      <trkpt lat="42.65388" lon="18.15925">
        <ele>337.44138</ele>
        <time>2022-06-10T08:54:25.721Z</time>
      </trkpt>
      <trkpt lat="42.65399" lon="18.15926">
        <ele>338.050851</ele>
        <time>2022-06-10T08:54:32.717Z</time>
      </trkpt>
      <trkpt lat="42.65408" lon="18.15926">
        <ele>338.590615</ele>
        <time>2022-06-10T08:54:38.706Z</time>
      </trkpt>
      <trkpt lat="42.65417" lon="18.15923">
        <ele>339.133084</ele>
        <time>2022-06-10T08:54:44.713Z</time>
      </trkpt>
      <trkpt lat="42.65426" lon="18.15924">
        <ele>339.662963</ele>
        <time>2022-06-10T08:54:50.708Z</time>
      </trkpt>
      <trkpt lat="42.65437" lon="18.15926">
        <ele>340.2835</ele>
        <time>2022-06-10T08:54:56.702Z</time>
      </trkpt>
      <trkpt lat="42.65446" lon="18.15924">
        <ele>340.815523</ele>
        <time>2022-06-10T08:55:02.704Z</time>
      </trkpt>
      <trkpt lat="42.65455" lon="18.1592">
        <ele>341.372073</ele>
        <time>2022-06-10T08:55:09.718Z</time>
      </trkpt>
      <trkpt lat="42.65465" lon="18.15918">
        <ele>341.926231</ele>
        <time>2022-06-10T08:55:15.704Z</time>
      </trkpt>
      <trkpt lat="42.65474" lon="18.15916">
        <ele>342.482972</ele>
        <time>2022-06-10T08:55:21.705Z</time>
      </trkpt>
      <trkpt lat="42.65484" lon="18.15915">
        <ele>343.052606</ele>
        <time>2022-06-10T08:55:28.697Z</time>
      </trkpt>
      <trkpt lat="42.65494" lon="18.15913">
        <ele>343.413972</ele>
        <time>2022-06-10T08:55:34.698Z</time>
      </trkpt>
      <trkpt lat="42.65503" lon="18.15913">
        <ele>343.760469</ele>
        <time>2022-06-10T08:55:40.709Z</time>
      </trkpt>
      <trkpt lat="42.65513" lon="18.15916">
        <ele>344.130867</ele>
        <time>2022-06-10T08:55:47.708Z</time>
      </trkpt>
      <trkpt lat="42.65522" lon="18.15918">
        <ele>344.466743</ele>
        <time>2022-06-10T08:55:53.742Z</time>
      </trkpt>
      <trkpt lat="42.65532" lon="18.15923">
        <ele>344.852978</ele>
        <time>2022-06-10T08:55:59.712Z</time>
      </trkpt>
      <trkpt lat="42.65541" lon="18.1593">
        <ele>345.220778</ele>
        <time>2022-06-10T08:56:05.715Z</time>
      </trkpt>
      <trkpt lat="42.65548" lon="18.15938">
        <ele>345.562745</ele>
        <time>2022-06-10T08:56:11.699Z</time>
      </trkpt>
      <trkpt lat="42.65555" lon="18.15947">
        <ele>345.919333</ele>
        <time>2022-06-10T08:56:17.707Z</time>
      </trkpt>
      <trkpt lat="42.65562" lon="18.15955">
        <ele>346.259806</ele>
        <time>2022-06-10T08:56:23.711Z</time>
      </trkpt>
      <trkpt lat="42.65569" lon="18.15966">
        <ele>346.640833</ele>
        <time>2022-06-10T08:56:30.693Z</time>
      </trkpt>
      <trkpt lat="42.65574" lon="18.15978">
        <ele>347.023047</ele>
        <time>2022-06-10T08:56:37.735Z</time>
      </trkpt>
      <trkpt lat="42.65581" lon="18.15987">
        <ele>347.371174</ele>
        <time>2022-06-10T08:56:43.740Z</time>
      </trkpt>
      <trkpt lat="42.65587" lon="18.15997">
        <ele>347.71568</ele>
        <time>2022-06-10T08:56:49.751Z</time>
      </trkpt>
      <trkpt lat="42.65593" lon="18.16008">
        <ele>348.086673</ele>
        <time>2022-06-10T08:56:56.714Z</time>
      </trkpt>
      <trkpt lat="42.656" lon="18.16018">
        <ele>348.464083</ele>
        <time>2022-06-10T08:57:03.700Z</time>
      </trkpt>
      <trkpt lat="42.65606" lon="18.16029">
        <ele>348.835112</ele>
        <time>2022-06-10T08:57:10.704Z</time>
      </trkpt>
      <trkpt lat="42.65612" lon="18.16039">
        <ele>349.190585</ele>
        <time>2022-06-10T08:57:17.708Z</time>
      </trkpt>
      <trkpt lat="42.65618" lon="18.16049">
        <ele>349.540183</ele>
        <time>2022-06-10T08:57:24.702Z</time>
      </trkpt>
      <trkpt lat="42.65625" lon="18.16057">
        <ele>350.256834</ele>
        <time>2022-06-10T08:57:30.710Z</time>
      </trkpt>
      <trkpt lat="42.65632" lon="18.16066">
        <ele>351.195893</ele>
        <time>2022-06-10T08:57:37.720Z</time>
      </trkpt>
      <trkpt lat="42.6564" lon="18.16075">
        <ele>352.147372</ele>
        <time>2022-06-10T08:57:45.710Z</time>
      </trkpt>
      <trkpt lat="42.65649" lon="18.16082">
        <ele>353.086005</ele>
        <time>2022-06-10T08:57:52.710Z</time>
      </trkpt>
      <trkpt lat="42.65656" lon="18.16092">
        <ele>354.049037</ele>
        <time>2022-06-10T08:57:59.724Z</time>
      </trkpt>
      <trkpt lat="42.65663" lon="18.16101">
        <ele>354.997632</ele>
        <time>2022-06-10T08:58:07.705Z</time>
      </trkpt>
      <trkpt lat="42.65668" lon="18.16114">
        <ele>355.989136</ele>
        <time>2022-06-10T08:58:13.714Z</time>
      </trkpt>
      <trkpt lat="42.65676" lon="18.16123">
        <ele>356.93773</ele>
        <time>2022-06-10T08:58:19.749Z</time>
      </trkpt>
      <trkpt lat="42.65681" lon="18.16136">
        <ele>357.917419</ele>
        <time>2022-06-10T08:58:26.713Z</time>
      </trkpt>
      <trkpt lat="42.65684" lon="18.16148">
        <ele>358.827846</ele>
        <time>2022-06-10T08:58:33.708Z</time>
      </trkpt>
      <trkpt lat="42.65683" lon="18.16163">
        <ele>359.818729</ele>
        <time>2022-06-10T08:58:40.703Z</time>
      </trkpt>
      <trkpt lat="42.65682" lon="18.16175">
        <ele>360.666234</ele>
        <time>2022-06-10T08:58:46.697Z</time>
      </trkpt>
      <trkpt lat="42.65681" lon="18.16188">
        <ele>361.613079</ele>
        <time>2022-06-10T08:58:53.704Z</time>
      </trkpt>
      <trkpt lat="42.65678" lon="18.162">
        <ele>362.455881</ele>
        <time>2022-06-10T08:58:59.714Z</time>
      </trkpt>
      <trkpt lat="42.65678" lon="18.16213">
        <ele>363.347736</ele>
        <time>2022-06-10T08:59:06.703Z</time>
      </trkpt>
      <trkpt lat="42.65677" lon="18.16227">
        <ele>364.297353</ele>
        <time>2022-06-10T08:59:13.728Z</time>
      </trkpt>
      <trkpt lat="42.65676" lon="18.1624">
        <ele>365.189751</ele>
        <time>2022-06-10T08:59:19.711Z</time>
      </trkpt>
      <trkpt lat="42.65678" lon="18.16253">
        <ele>366.090015</ele>
        <time>2022-06-10T08:59:25.704Z</time>
      </trkpt>
      <trkpt lat="42.6568" lon="18.16265">
        <ele>366.770372</ele>
        <time>2022-06-10T08:59:31.702Z</time>
      </trkpt>
      <trkpt lat="42.65684" lon="18.16276">
        <ele>367.327073</ele>
        <time>2022-06-10T08:59:38.699Z</time>
      </trkpt>
      <trkpt lat="42.65691" lon="18.16285">
        <ele>367.846996</ele>
        <time>2022-06-10T08:59:45.740Z</time>
      </trkpt>
      <trkpt lat="42.65699" lon="18.16291">
        <ele>368.361709</ele>
        <time>2022-06-10T08:59:51.706Z</time>
      </trkpt>
      <trkpt lat="42.65707" lon="18.16298">
        <ele>368.898147</ele>
        <time>2022-06-10T08:59:58.706Z</time>
      </trkpt>
      <trkpt lat="42.65715" lon="18.16303">
        <ele>369.435997</ele>
        <time>2022-06-10T09:00:04.700Z</time>
      </trkpt>
      <trkpt lat="42.65724" lon="18.16307">
        <ele>369.956123</ele>
        <time>2022-06-10T09:00:10.702Z</time>
      </trkpt>
      <trkpt lat="42.65733" lon="18.16309">
        <ele>370.486366</ele>
        <time>2022-06-10T09:00:17.717Z</time>
      </trkpt>
      <trkpt lat="42.65742" lon="18.1631">
        <ele>371.015148</ele>
        <time>2022-06-10T09:00:24.713Z</time>
      </trkpt>
      <trkpt lat="42.65752" lon="18.16312">
        <ele>371.616171</ele>
        <time>2022-06-10T09:00:31.700Z</time>
      </trkpt>
      <trkpt lat="42.65762" lon="18.16311">
        <ele>372.199102</ele>
        <time>2022-06-10T09:00:38.702Z</time>
      </trkpt>
      <trkpt lat="42.65772" lon="18.16309">
        <ele>372.723236</ele>
        <time>2022-06-10T09:00:44.719Z</time>
      </trkpt>
      <trkpt lat="42.65781" lon="18.16304">
        <ele>373.290642</ele>
        <time>2022-06-10T09:00:51.719Z</time>
      </trkpt>
      <trkpt lat="42.65789" lon="18.16299">
        <ele>373.825775</ele>
        <time>2022-06-10T09:00:58.697Z</time>
      </trkpt>
      <trkpt lat="42.65799" lon="18.16295">
        <ele>374.40937</ele>
        <time>2022-06-10T09:01:05.705Z</time>
      </trkpt>
      <trkpt lat="42.65809" lon="18.1629">
        <ele>374.998711</ele>
        <time>2022-06-10T09:01:12.703Z</time>
      </trkpt>
      <trkpt lat="42.65818" lon="18.16288">
        <ele>375.544152</ele>
        <time>2022-06-10T09:01:19.695Z</time>
      </trkpt>
      <trkpt lat="42.65826" lon="18.16282">
        <ele>376.074137</ele>
        <time>2022-06-10T09:01:25.695Z</time>
      </trkpt>
      <trkpt lat="42.65835" lon="18.16275">
        <ele>376.652525</ele>
        <time>2022-06-10T09:01:32.706Z</time>
      </trkpt>
      <trkpt lat="42.65844" lon="18.16269">
        <ele>377.376207</ele>
        <time>2022-06-10T09:01:39.695Z</time>
      </trkpt>
      <trkpt lat="42.65853" lon="18.16265">
        <ele>378.112311</ele>
        <time>2022-06-10T09:01:45.712Z</time>
      </trkpt>
      <trkpt lat="42.65862" lon="18.16262">
        <ele>378.84475</ele>
        <time>2022-06-10T09:01:51.774Z</time>
      </trkpt>
      <trkpt lat="42.65872" lon="18.16262">
        <ele>379.566423</ele>
        <time>2022-06-10T09:01:58.711Z</time>
      </trkpt>
      <trkpt lat="42.65882" lon="18.16263">
        <ele>380.324811</ele>
        <time>2022-06-10T09:02:05.718Z</time>
      </trkpt>
      <trkpt lat="42.65898" lon="18.16269">
        <ele>381.61964</ele>
        <time>2022-06-10T09:04:35.707Z</time>
      </trkpt>
      <trkpt lat="42.65915" lon="18.16309">
        <ele>384.181969</ele>
        <time>2022-06-10T09:10:12.710Z</time>
      </trkpt>
      <trkpt lat="42.65918" lon="18.16323">
        <ele>385.007351</ele>
        <time>2022-06-10T09:10:16.751Z</time>
      </trkpt>
      <trkpt lat="42.65919" lon="18.16338">
        <ele>385.893643</ele>
        <time>2022-06-10T09:10:20.706Z</time>
      </trkpt>
      <trkpt lat="42.6592" lon="18.16351">
        <ele>386.628683</ele>
        <time>2022-06-10T09:10:25.712Z</time>
      </trkpt>
      <trkpt lat="42.6592" lon="18.16365">
        <ele>387.425585</ele>
        <time>2022-06-10T09:10:30.711Z</time>
      </trkpt>
      <trkpt lat="42.65919" lon="18.16379">
        <ele>388.211622</ele>
        <time>2022-06-10T09:10:35.697Z</time>
      </trkpt>
      <trkpt lat="42.65919" lon="18.16394">
        <ele>389.030504</ele>
        <time>2022-06-10T09:10:40.710Z</time>
      </trkpt>
      <trkpt lat="42.6592" lon="18.16407">
        <ele>389.795081</ele>
        <time>2022-06-10T09:10:45.737Z</time>
      </trkpt>
      <trkpt lat="42.65919" lon="18.16423">
        <ele>390.652922</ele>
        <time>2022-06-10T09:10:50.735Z</time>
      </trkpt>
      <trkpt lat="42.65919" lon="18.16436">
        <ele>390.973192</ele>
        <time>2022-06-10T09:10:56.698Z</time>
      </trkpt>
      <trkpt lat="42.6592" lon="18.16457">
        <ele>391.458774</ele>
        <time>2022-06-10T09:12:10.736Z</time>
      </trkpt>
      <trkpt lat="42.65919" lon="18.16471">
        <ele>391.78975</ele>
        <time>2022-06-10T09:12:15.697Z</time>
      </trkpt>
      <trkpt lat="42.65919" lon="18.16483">
        <ele>392.07684</ele>
        <time>2022-06-10T09:12:19.710Z</time>
      </trkpt>
      <trkpt lat="42.6592" lon="18.16498">
        <ele>392.42092</ele>
        <time>2022-06-10T09:12:24.778Z</time>
      </trkpt>
      <trkpt lat="42.65921" lon="18.16512">
        <ele>392.75998</ele>
        <time>2022-06-10T09:12:29.705Z</time>
      </trkpt>
      <trkpt lat="42.65923" lon="18.16524">
        <ele>393.054471</ele>
        <time>2022-06-10T09:12:33.712Z</time>
      </trkpt>
      <trkpt lat="42.65925" lon="18.16537">
        <ele>393.362236</ele>
        <time>2022-06-10T09:12:37.701Z</time>
      </trkpt>
      <trkpt lat="42.65928" lon="18.16551">
        <ele>393.702078</ele>
        <time>2022-06-10T09:12:41.718Z</time>
      </trkpt>
      <trkpt lat="42.6593" lon="18.16565">
        <ele>394.038045</ele>
        <time>2022-06-10T09:12:45.742Z</time>
      </trkpt>
      <trkpt lat="42.65933" lon="18.16577">
        <ele>394.34145</ele>
        <time>2022-06-10T09:12:49.702Z</time>
      </trkpt>
      <trkpt lat="42.65934" lon="18.1659">
        <ele>394.643475</ele>
        <time>2022-06-10T09:12:53.742Z</time>
      </trkpt>
      <trkpt lat="42.65937" lon="18.16602">
        <ele>394.939217</ele>
        <time>2022-06-10T09:12:57.713Z</time>
      </trkpt>
      <trkpt lat="42.65939" lon="18.16614">
        <ele>395.237929</ele>
        <time>2022-06-10T09:13:01.719Z</time>
      </trkpt>
      <trkpt lat="42.65941" lon="18.16627">
        <ele>395.542885</ele>
        <time>2022-06-10T09:13:05.708Z</time>
      </trkpt>
      <trkpt lat="42.65943" lon="18.16641">
        <ele>395.880431</ele>
        <time>2022-06-10T09:13:10.735Z</time>
      </trkpt>
      <trkpt lat="42.65945" lon="18.16654">
        <ele>396.19</ele>
        <time>2022-06-10T09:13:14.702Z</time>
      </trkpt>
      <trkpt lat="42.65947" lon="18.16667">
        <ele>396.452717</ele>
        <time>2022-06-10T09:13:18.704Z</time>
      </trkpt>
      <trkpt lat="42.65947" lon="18.1668">
        <ele>396.657456</ele>
        <time>2022-06-10T09:13:22.706Z</time>
      </trkpt>
      <trkpt lat="42.65947" lon="18.16694">
        <ele>396.869482</ele>
        <time>2022-06-10T09:13:26.731Z</time>
      </trkpt>
      <trkpt lat="42.65947" lon="18.16707">
        <ele>397.072428</ele>
        <time>2022-06-10T09:13:30.712Z</time>
      </trkpt>
      <trkpt lat="42.65946" lon="18.16721">
        <ele>397.27854</ele>
        <time>2022-06-10T09:13:34.727Z</time>
      </trkpt>
      <trkpt lat="42.65946" lon="18.16734">
        <ele>397.483</ele>
        <time>2022-06-10T09:13:38.719Z</time>
      </trkpt>
      <trkpt lat="42.65945" lon="18.16749">
        <ele>397.70577</ele>
        <time>2022-06-10T09:13:42.713Z</time>
      </trkpt>
      <trkpt lat="42.65944" lon="18.16762">
        <ele>397.895546</ele>
        <time>2022-06-10T09:13:45.712Z</time>
      </trkpt>
      <trkpt lat="42.65942" lon="18.16777">
        <ele>398.137908</ele>
        <time>2022-06-10T09:13:49.699Z</time>
      </trkpt>
      <trkpt lat="42.65941" lon="18.16793">
        <ele>398.381829</ele>
        <time>2022-06-10T09:13:53.711Z</time>
      </trkpt>
      <trkpt lat="42.6594" lon="18.16806">
        <ele>398.57773</ele>
        <time>2022-06-10T09:13:56.719Z</time>
      </trkpt>
      <trkpt lat="42.65938" lon="18.16819">
        <ele>398.767644</ele>
        <time>2022-06-10T09:13:59.758Z</time>
      </trkpt>
      <trkpt lat="42.65937" lon="18.16831">
        <ele>398.953976</ele>
        <time>2022-06-10T09:14:02.744Z</time>
      </trkpt>
      <trkpt lat="42.65936" lon="18.16843">
        <ele>399.146587</ele>
        <time>2022-06-10T09:14:05.724Z</time>
      </trkpt>
      <trkpt lat="42.65935" lon="18.16856">
        <ele>399.344683</ele>
        <time>2022-06-10T09:14:08.742Z</time>
      </trkpt>
      <trkpt lat="42.65933" lon="18.1687">
        <ele>399.553544</ele>
        <time>2022-06-10T09:14:11.708Z</time>
      </trkpt>
      <trkpt lat="42.65933" lon="18.16884">
        <ele>399.758749</ele>
        <time>2022-06-10T09:14:14.710Z</time>
      </trkpt>
      <trkpt lat="42.65931" lon="18.16897">
        <ele>399.962764</ele>
        <time>2022-06-10T09:14:17.721Z</time>
      </trkpt>
      <trkpt lat="42.6593" lon="18.1691">
        <ele>400.1112</ele>
        <time>2022-06-10T09:14:20.699Z</time>
      </trkpt>
      <trkpt lat="42.65928" lon="18.16923">
        <ele>400.17318</ele>
        <time>2022-06-10T09:14:23.713Z</time>
      </trkpt>
      <trkpt lat="42.65927" lon="18.16935">
        <ele>400.235071</ele>
        <time>2022-06-10T09:14:26.704Z</time>
      </trkpt>
      <trkpt lat="42.65926" lon="18.16947">
        <ele>400.294845</ele>
        <time>2022-06-10T09:14:29.703Z</time>
      </trkpt>
      <trkpt lat="42.65924" lon="18.16959">
        <ele>400.354413</ele>
        <time>2022-06-10T09:14:32.735Z</time>
      </trkpt>
      <trkpt lat="42.65923" lon="18.16972">
        <ele>400.416304</ele>
        <time>2022-06-10T09:14:35.732Z</time>
      </trkpt>
      <trkpt lat="42.65922" lon="18.16988">
        <ele>400.495928</ele>
        <time>2022-06-10T09:14:39.725Z</time>
      </trkpt>
      <trkpt lat="42.6592" lon="18.17001">
        <ele>400.558221</ele>
        <time>2022-06-10T09:14:42.702Z</time>
      </trkpt>
      <trkpt lat="42.65919" lon="18.17013">
        <ele>400.618358</ele>
        <time>2022-06-10T09:14:45.722Z</time>
      </trkpt>
      <trkpt lat="42.65918" lon="18.17026">
        <ele>400.682515</ele>
        <time>2022-06-10T09:14:48.705Z</time>
      </trkpt>
      <trkpt lat="42.65916" lon="18.17039">
        <ele>400.744918</ele>
        <time>2022-06-10T09:14:51.708Z</time>
      </trkpt>
      <trkpt lat="42.65914" lon="18.17051">
        <ele>400.80469</ele>
        <time>2022-06-10T09:14:54.712Z</time>
      </trkpt>
      <trkpt lat="42.65912" lon="18.17064">
        <ele>400.868898</ele>
        <time>2022-06-10T09:14:57.722Z</time>
      </trkpt>
      <trkpt lat="42.65911" lon="18.17077">
        <ele>400.933865</ele>
        <time>2022-06-10T09:15:00.743Z</time>
      </trkpt>
      <trkpt lat="42.65909" lon="18.17089">
        <ele>400.995434</ele>
        <time>2022-06-10T09:15:03.704Z</time>
      </trkpt>
      <trkpt lat="42.65907" lon="18.17102">
        <ele>401.05775</ele>
        <time>2022-06-10T09:15:06.706Z</time>
      </trkpt>
      <trkpt lat="42.65905" lon="18.17114">
        <ele>401.119102</ele>
        <time>2022-06-10T09:15:09.705Z</time>
      </trkpt>
      <trkpt lat="42.65902" lon="18.17126">
        <ele>401.179767</ele>
        <time>2022-06-10T09:15:12.710Z</time>
      </trkpt>
      <trkpt lat="42.65899" lon="18.17138">
        <ele>401.241265</ele>
        <time>2022-06-10T09:15:15.718Z</time>
      </trkpt>
      <trkpt lat="42.65894" lon="18.17149">
        <ele>401.333284</ele>
        <time>2022-06-10T09:15:18.717Z</time>
      </trkpt>
      <trkpt lat="42.65888" lon="18.17159">
        <ele>401.463091</ele>
        <time>2022-06-10T09:15:21.713Z</time>
      </trkpt>
      <trkpt lat="42.65882" lon="18.17169">
        <ele>401.587679</ele>
        <time>2022-06-10T09:15:24.695Z</time>
      </trkpt>
      <trkpt lat="42.65875" lon="18.17177">
        <ele>401.71077</ele>
        <time>2022-06-10T09:15:27.703Z</time>
      </trkpt>
      <trkpt lat="42.65866" lon="18.17186">
        <ele>401.864637</ele>
        <time>2022-06-10T09:15:31.693Z</time>
      </trkpt>
      <trkpt lat="42.65856" lon="18.17192">
        <ele>402.006981</ele>
        <time>2022-06-10T09:15:35.707Z</time>
      </trkpt>
      <trkpt lat="42.65846" lon="18.17198">
        <ele>402.15778</ele>
        <time>2022-06-10T09:15:39.715Z</time>
      </trkpt>
      <trkpt lat="42.65835" lon="18.17203">
        <ele>402.304043</ele>
        <time>2022-06-10T09:15:43.710Z</time>
      </trkpt>
      <trkpt lat="42.65825" lon="18.17209">
        <ele>402.449643</ele>
        <time>2022-06-10T09:15:47.699Z</time>
      </trkpt>
      <trkpt lat="42.65816" lon="18.17216">
        <ele>402.595973</ele>
        <time>2022-06-10T09:15:51.729Z</time>
      </trkpt>
      <trkpt lat="42.65807" lon="18.17226">
        <ele>402.756213</ele>
        <time>2022-06-10T09:15:55.701Z</time>
      </trkpt>
      <trkpt lat="42.65801" lon="18.17237">
        <ele>402.883586</ele>
        <time>2022-06-10T09:15:58.737Z</time>
      </trkpt>
      <trkpt lat="42.65796" lon="18.17248">
        <ele>403.012045</ele>
        <time>2022-06-10T09:16:01.696Z</time>
      </trkpt>
      <trkpt lat="42.65794" lon="18.17261">
        <ele>403.145495</ele>
        <time>2022-06-10T09:16:04.722Z</time>
      </trkpt>
      <trkpt lat="42.65792" lon="18.17277">
        <ele>403.303538</ele>
        <time>2022-06-10T09:16:08.734Z</time>
      </trkpt>
      <trkpt lat="42.65791" lon="18.17292">
        <ele>403.457185</ele>
        <time>2022-06-10T09:16:12.693Z</time>
      </trkpt>
      <trkpt lat="42.6579" lon="18.17308">
        <ele>403.615085</ele>
        <time>2022-06-10T09:16:16.714Z</time>
      </trkpt>
      <trkpt lat="42.65787" lon="18.17323">
        <ele>403.955062</ele>
        <time>2022-06-10T09:16:20.725Z</time>
      </trkpt>
      <trkpt lat="42.65784" lon="18.17337">
        <ele>404.493277</ele>
        <time>2022-06-10T09:16:24.716Z</time>
      </trkpt>
      <trkpt lat="42.65782" lon="18.17352">
        <ele>405.021941</ele>
        <time>2022-06-10T09:16:28.717Z</time>
      </trkpt>
      <trkpt lat="42.65779" lon="18.17366">
        <ele>405.581671</ele>
        <time>2022-06-10T09:16:32.714Z</time>
      </trkpt>
      <trkpt lat="42.65775" lon="18.17381">
        <ele>406.158907</ele>
        <time>2022-06-10T09:16:36.750Z</time>
      </trkpt>
      <trkpt lat="42.65771" lon="18.17396">
        <ele>406.729527</ele>
        <time>2022-06-10T09:16:40.710Z</time>
      </trkpt>
      <trkpt lat="42.65769" lon="18.17411">
        <ele>407.29716</ele>
        <time>2022-06-10T09:16:44.698Z</time>
      </trkpt>
      <trkpt lat="42.65767" lon="18.17427">
        <ele>407.867321</ele>
        <time>2022-06-10T09:16:48.703Z</time>
      </trkpt>
      <trkpt lat="42.65767" lon="18.17441">
        <ele>408.386277</ele>
        <time>2022-06-10T09:16:52.694Z</time>
      </trkpt>
      <trkpt lat="42.65768" lon="18.17456">
        <ele>408.914703</ele>
        <time>2022-06-10T09:16:56.737Z</time>
      </trkpt>
      <trkpt lat="42.6577" lon="18.17469">
        <ele>409.424567</ele>
        <time>2022-06-10T09:17:00.715Z</time>
      </trkpt>
      <trkpt lat="42.65775" lon="18.17482">
        <ele>409.925283</ele>
        <time>2022-06-10T09:17:04.696Z</time>
      </trkpt>
      <trkpt lat="42.65781" lon="18.17492">
        <ele>410.398869</ele>
        <time>2022-06-10T09:17:08.711Z</time>
      </trkpt>
      <trkpt lat="42.65788" lon="18.17501">
        <ele>410.869305</ele>
        <time>2022-06-10T09:17:12.716Z</time>
      </trkpt>
      <trkpt lat="42.65796" lon="18.17509">
        <ele>411.381609</ele>
        <time>2022-06-10T09:17:16.692Z</time>
      </trkpt>
      <trkpt lat="42.65806" lon="18.17517">
        <ele>411.919331</ele>
        <time>2022-06-10T09:17:20.688Z</time>
      </trkpt>
      <trkpt lat="42.65815" lon="18.17523">
        <ele>412.45862</ele>
        <time>2022-06-10T09:17:24.738Z</time>
      </trkpt>
      <trkpt lat="42.65826" lon="18.17527">
        <ele>412.705753</ele>
        <time>2022-06-10T09:17:28.710Z</time>
      </trkpt>
      <trkpt lat="42.65835" lon="18.17532">
        <ele>412.868102</ele>
        <time>2022-06-10T09:17:32.726Z</time>
      </trkpt>
      <trkpt lat="42.65844" lon="18.17536">
        <ele>413.017112</ele>
        <time>2022-06-10T09:17:36.717Z</time>
      </trkpt>
      <trkpt lat="42.65853" lon="18.17541">
        <ele>413.174531</ele>
        <time>2022-06-10T09:17:40.715Z</time>
      </trkpt>
      <trkpt lat="42.65862" lon="18.17545">
        <ele>413.326214</ele>
        <time>2022-06-10T09:17:44.704Z</time>
      </trkpt>
      <trkpt lat="42.65871" lon="18.17549">
        <ele>413.477897</ele>
        <time>2022-06-10T09:17:48.700Z</time>
      </trkpt>
      <trkpt lat="42.6588" lon="18.17552">
        <ele>413.627998</ele>
        <time>2022-06-10T09:17:52.734Z</time>
      </trkpt>
      <trkpt lat="42.6589" lon="18.17554">
        <ele>413.785383</ele>
        <time>2022-06-10T09:17:56.716Z</time>
      </trkpt>
      <trkpt lat="42.659" lon="18.17556">
        <ele>413.945634</ele>
        <time>2022-06-10T09:18:00.702Z</time>
      </trkpt>
      <trkpt lat="42.6591" lon="18.17557">
        <ele>414.111871</ele>
        <time>2022-06-10T09:18:04.710Z</time>
      </trkpt>
      <trkpt lat="42.6592" lon="18.17559">
        <ele>414.270001</ele>
        <time>2022-06-10T09:18:08.698Z</time>
      </trkpt>
      <trkpt lat="42.6593" lon="18.17558">
        <ele>414.428994</ele>
        <time>2022-06-10T09:18:12.720Z</time>
      </trkpt>
      <trkpt lat="42.65939" lon="18.17559">
        <ele>414.580248</ele>
        <time>2022-06-10T09:18:16.696Z</time>
      </trkpt>
      <trkpt lat="42.65949" lon="18.17559">
        <ele>414.742659</ele>
        <time>2022-06-10T09:18:20.733Z</time>
      </trkpt>
      <trkpt lat="42.65959" lon="18.17559">
        <ele>414.906504</ele>
        <time>2022-06-10T09:18:24.702Z</time>
      </trkpt>
      <trkpt lat="42.65969" lon="18.1756">
        <ele>415.056155</ele>
        <time>2022-06-10T09:18:28.707Z</time>
      </trkpt>
      <trkpt lat="42.65979" lon="18.17561">
        <ele>415.223774</ele>
        <time>2022-06-10T09:18:32.713Z</time>
      </trkpt>
      <trkpt lat="42.6599" lon="18.17564">
        <ele>415.405294</ele>
        <time>2022-06-10T09:18:36.735Z</time>
      </trkpt>
      <trkpt lat="42.66001" lon="18.17568">
        <ele>415.367018</ele>
        <time>2022-06-10T09:18:40.696Z</time>
      </trkpt>
      <trkpt lat="42.66011" lon="18.17574">
        <ele>415.237824</ele>
        <time>2022-06-10T09:18:44.722Z</time>
      </trkpt>
      <trkpt lat="42.66021" lon="18.17579">
        <ele>415.116908</ele>
        <time>2022-06-10T09:18:48.716Z</time>
      </trkpt>
      <trkpt lat="42.6603" lon="18.17583">
        <ele>415.005711</ele>
        <time>2022-06-10T09:18:52.708Z</time>
      </trkpt>
      <trkpt lat="42.66039" lon="18.17588">
        <ele>414.886491</ele>
        <time>2022-06-10T09:18:56.696Z</time>
      </trkpt>
      <trkpt lat="42.66049" lon="18.17594">
        <ele>414.763869</ele>
        <time>2022-06-10T09:19:00.699Z</time>
      </trkpt>
      <trkpt lat="42.66058" lon="18.17599">
        <ele>414.649838</ele>
        <time>2022-06-10T09:19:04.722Z</time>
      </trkpt>
      <trkpt lat="42.66068" lon="18.17606">
        <ele>414.522969</ele>
        <time>2022-06-10T09:19:08.708Z</time>
      </trkpt>
      <trkpt lat="42.66077" lon="18.17613">
        <ele>414.399125</ele>
        <time>2022-06-10T09:19:12.714Z</time>
      </trkpt>
      <trkpt lat="42.66085" lon="18.17622">
        <ele>414.278901</ele>
        <time>2022-06-10T09:19:16.714Z</time>
      </trkpt>
      <trkpt lat="42.66093" lon="18.1763">
        <ele>414.161957</ele>
        <time>2022-06-10T09:19:20.715Z</time>
      </trkpt>
      <trkpt lat="42.661" lon="18.1764">
        <ele>414.041934</ele>
        <time>2022-06-10T09:19:24.705Z</time>
      </trkpt>
      <trkpt lat="42.66107" lon="18.17651">
        <ele>413.922427</ele>
        <time>2022-06-10T09:19:28.705Z</time>
      </trkpt>
      <trkpt lat="42.66113" lon="18.17661">
        <ele>413.811527</ele>
        <time>2022-06-10T09:19:32.754Z</time>
      </trkpt>
      <trkpt lat="42.66119" lon="18.17672">
        <ele>413.693733</ele>
        <time>2022-06-10T09:19:36.716Z</time>
      </trkpt>
      <trkpt lat="42.66124" lon="18.17683">
        <ele>413.584844</ele>
        <time>2022-06-10T09:19:40.711Z</time>
      </trkpt>
      <trkpt lat="42.66129" lon="18.17693">
        <ele>413.478061</ele>
        <time>2022-06-10T09:19:44.719Z</time>
      </trkpt>
      <trkpt lat="42.66136" lon="18.17703">
        <ele>413.387001</ele>
        <time>2022-06-10T09:19:48.697Z</time>
      </trkpt>
      <trkpt lat="42.66142" lon="18.17715">
        <ele>413.877855</ele>
        <time>2022-06-10T09:19:52.726Z</time>
      </trkpt>
      <trkpt lat="42.66148" lon="18.17727">
        <ele>414.374387</ele>
        <time>2022-06-10T09:19:56.734Z</time>
      </trkpt>
      <trkpt lat="42.66154" lon="18.17739">
        <ele>414.85704</ele>
        <time>2022-06-10T09:20:00.712Z</time>
      </trkpt>
      <trkpt lat="42.6616" lon="18.1775">
        <ele>415.342598</ele>
        <time>2022-06-10T09:20:04.741Z</time>
      </trkpt>
      <trkpt lat="42.66166" lon="18.17761">
        <ele>415.78559</ele>
        <time>2022-06-10T09:20:08.708Z</time>
      </trkpt>
      <trkpt lat="42.66171" lon="18.17774">
        <ele>416.276265</ele>
        <time>2022-06-10T09:20:12.683Z</time>
      </trkpt>
      <trkpt lat="42.66176" lon="18.17786">
        <ele>416.753532</ele>
        <time>2022-06-10T09:20:16.739Z</time>
      </trkpt>
      <trkpt lat="42.66179" lon="18.178">
        <ele>417.227998</ele>
        <time>2022-06-10T09:20:20.724Z</time>
      </trkpt>
      <trkpt lat="42.66179" lon="18.17814">
        <ele>417.726574</ele>
        <time>2022-06-10T09:20:24.716Z</time>
      </trkpt>
      <trkpt lat="42.66177" lon="18.17828">
        <ele>418.196915</ele>
        <time>2022-06-10T09:20:28.714Z</time>
      </trkpt>
      <trkpt lat="42.66173" lon="18.1784">
        <ele>418.640808</ele>
        <time>2022-06-10T09:20:32.714Z</time>
      </trkpt>
      <trkpt lat="42.66167" lon="18.1785">
        <ele>419.082581</ele>
        <time>2022-06-10T09:20:36.732Z</time>
      </trkpt>
      <trkpt lat="42.6616" lon="18.17859">
        <ele>419.530414</ele>
        <time>2022-06-10T09:20:40.718Z</time>
      </trkpt>
      <trkpt lat="42.66152" lon="18.17866">
        <ele>419.970094</ele>
        <time>2022-06-10T09:20:44.722Z</time>
      </trkpt>
      <trkpt lat="42.66143" lon="18.17871">
        <ele>420.421247</ele>
        <time>2022-06-10T09:20:49.745Z</time>
      </trkpt>
      <trkpt lat="42.66133" lon="18.17875">
        <ele>420.904998</ele>
        <time>2022-06-10T09:20:54.713Z</time>
      </trkpt>
      <trkpt lat="42.66123" lon="18.17879">
        <ele>421.393592</ele>
        <time>2022-06-10T09:20:59.700Z</time>
      </trkpt>
      <trkpt lat="42.66113" lon="18.17884">
        <ele>421.833972</ele>
        <time>2022-06-10T09:21:04.713Z</time>
      </trkpt>
      <trkpt lat="42.66103" lon="18.1789">
        <ele>422.264359</ele>
        <time>2022-06-10T09:21:09.715Z</time>
      </trkpt>
      <trkpt lat="42.66093" lon="18.17894">
        <ele>422.704046</ele>
        <time>2022-06-10T09:21:14.714Z</time>
      </trkpt>
      <trkpt lat="42.66083" lon="18.17899">
        <ele>423.155149</ele>
        <time>2022-06-10T09:21:19.703Z</time>
      </trkpt>
      <trkpt lat="42.66073" lon="18.17903">
        <ele>423.577254</ele>
        <time>2022-06-10T09:21:24.707Z</time>
      </trkpt>
      <trkpt lat="42.66064" lon="18.17908">
        <ele>423.947926</ele>
        <time>2022-06-10T09:21:28.760Z</time>
      </trkpt>
      <trkpt lat="42.66056" lon="18.17914">
        <ele>424.345881</ele>
        <time>2022-06-10T09:21:33.718Z</time>
      </trkpt>
      <trkpt lat="42.66047" lon="18.17922">
        <ele>424.78125</ele>
        <time>2022-06-10T09:21:38.737Z</time>
      </trkpt>
      <trkpt lat="42.66039" lon="18.17931">
        <ele>425.196949</ele>
        <time>2022-06-10T09:21:43.721Z</time>
      </trkpt>
      <trkpt lat="42.66033" lon="18.17942">
        <ele>425.61773</ele>
        <time>2022-06-10T09:21:48.746Z</time>
      </trkpt>
      <trkpt lat="42.66029" lon="18.17954">
        <ele>425.996591</ele>
        <time>2022-06-10T09:21:52.707Z</time>
      </trkpt>
      <trkpt lat="42.66034" lon="18.17966">
        <ele>426.390003</ele>
        <time>2022-06-10T09:21:57.748Z</time>
      </trkpt>
      <trkpt lat="42.66043" lon="18.17963">
        <ele>426.776864</ele>
        <time>2022-06-10T09:22:03.739Z</time>
      </trkpt>
      <trkpt lat="42.66049" lon="18.17953">
        <ele>427.164461</ele>
        <time>2022-06-10T09:22:11.713Z</time>
      </trkpt>
      <trkpt lat="42.66052" lon="18.17924">
        <ele>428.040917</ele>
        <time>2022-06-10T09:31:04.717Z</time>
      </trkpt>
      <trkpt lat="42.66056" lon="18.17914">
        <ele>428.407549</ele>
        <time>2022-06-10T09:31:07.720Z</time>
      </trkpt>
      <trkpt lat="42.66066" lon="18.17908">
        <ele>428.850032</ele>
        <time>2022-06-10T09:31:10.704Z</time>
      </trkpt>
      <trkpt lat="42.66079" lon="18.17902">
        <ele>428.806617</ele>
        <time>2022-06-10T09:31:13.726Z</time>
      </trkpt>
      <trkpt lat="42.66091" lon="18.17895">
        <ele>428.564198</ele>
        <time>2022-06-10T09:31:16.745Z</time>
      </trkpt>
      <trkpt lat="42.66101" lon="18.17892">
        <ele>428.382118</ele>
        <time>2022-06-10T09:31:18.709Z</time>
      </trkpt>
      <trkpt lat="42.66112" lon="18.17889">
        <ele>428.185139</ele>
        <time>2022-06-10T09:31:20.717Z</time>
      </trkpt>
      <trkpt lat="42.66123" lon="18.17885">
        <ele>427.986631</ele>
        <time>2022-06-10T09:31:22.717Z</time>
      </trkpt>
      <trkpt lat="42.66133" lon="18.1788">
        <ele>427.792119</ele>
        <time>2022-06-10T09:31:24.711Z</time>
      </trkpt>
      <trkpt lat="42.66142" lon="18.17876">
        <ele>427.621855</ele>
        <time>2022-06-10T09:31:26.708Z</time>
      </trkpt>
      <trkpt lat="42.6615" lon="18.17872">
        <ele>427.454965</ele>
        <time>2022-06-10T09:31:28.706Z</time>
      </trkpt>
      <trkpt lat="42.6616" lon="18.17866">
        <ele>427.273151</ele>
        <time>2022-06-10T09:31:30.748Z</time>
      </trkpt>
      <trkpt lat="42.66169" lon="18.17859">
        <ele>427.083368</ele>
        <time>2022-06-10T09:31:32.705Z</time>
      </trkpt>
      <trkpt lat="42.66176" lon="18.17847">
        <ele>426.876543</ele>
        <time>2022-06-10T09:31:34.717Z</time>
      </trkpt>
      <trkpt lat="42.6618" lon="18.17831">
        <ele>426.65814</ele>
        <time>2022-06-10T09:31:36.712Z</time>
      </trkpt>
      <trkpt lat="42.66182" lon="18.17814">
        <ele>426.432201</ele>
        <time>2022-06-10T09:31:38.727Z</time>
      </trkpt>
      <trkpt lat="42.66182" lon="18.17797">
        <ele>426.202897</ele>
        <time>2022-06-10T09:31:40.710Z</time>
      </trkpt>
      <trkpt lat="42.66178" lon="18.1778">
        <ele>425.975342</ele>
        <time>2022-06-10T09:31:42.728Z</time>
      </trkpt>
      <trkpt lat="42.66172" lon="18.17765">
        <ele>425.737953</ele>
        <time>2022-06-10T09:31:44.737Z</time>
      </trkpt>
      <trkpt lat="42.66164" lon="18.1775">
        <ele>425.100174</ele>
        <time>2022-06-10T09:31:46.705Z</time>
      </trkpt>
      <trkpt lat="42.66156" lon="18.17735">
        <ele>424.442822</ele>
        <time>2022-06-10T09:31:48.729Z</time>
      </trkpt>
      <trkpt lat="42.66148" lon="18.1772">
        <ele>423.782701</ele>
        <time>2022-06-10T09:31:50.692Z</time>
      </trkpt>
      <trkpt lat="42.6614" lon="18.17705">
        <ele>423.11138</ele>
        <time>2022-06-10T09:31:52.706Z</time>
      </trkpt>
      <trkpt lat="42.66132" lon="18.17689">
        <ele>422.428408</ele>
        <time>2022-06-10T09:31:54.733Z</time>
      </trkpt>
      <trkpt lat="42.66124" lon="18.17671">
        <ele>421.687657</ele>
        <time>2022-06-10T09:31:56.725Z</time>
      </trkpt>
      <trkpt lat="42.66115" lon="18.17654">
        <ele>420.947943</ele>
        <time>2022-06-10T09:31:58.742Z</time>
      </trkpt>
      <trkpt lat="42.66106" lon="18.17638">
        <ele>420.227825</ele>
        <time>2022-06-10T09:32:00.745Z</time>
      </trkpt>
      <trkpt lat="42.66095" lon="18.17622">
        <ele>419.493391</ele>
        <time>2022-06-10T09:32:02.710Z</time>
      </trkpt>
      <trkpt lat="42.66083" lon="18.17608">
        <ele>418.731907</ele>
        <time>2022-06-10T09:32:04.704Z</time>
      </trkpt>
      <trkpt lat="42.6607" lon="18.17597">
        <ele>417.980355</ele>
        <time>2022-06-10T09:32:06.729Z</time>
      </trkpt>
      <trkpt lat="42.66055" lon="18.17589">
        <ele>417.214742</ele>
        <time>2022-06-10T09:32:08.706Z</time>
      </trkpt>
      <trkpt lat="42.6604" lon="18.17581">
        <ele>416.281775</ele>
        <time>2022-06-10T09:32:10.702Z</time>
      </trkpt>
      <trkpt lat="42.66025" lon="18.17573">
        <ele>415.276186</ele>
        <time>2022-06-10T09:32:12.707Z</time>
      </trkpt>
      <trkpt lat="42.66009" lon="18.17564">
        <ele>414.248893</ele>
        <time>2022-06-10T09:32:14.706Z</time>
      </trkpt>
      <trkpt lat="42.65992" lon="18.17557">
        <ele>413.195926</ele>
        <time>2022-06-10T09:32:16.687Z</time>
      </trkpt>
      <trkpt lat="42.65975" lon="18.17553">
        <ele>412.152398</ele>
        <time>2022-06-10T09:32:18.697Z</time>
      </trkpt>
      <trkpt lat="42.65958" lon="18.17552">
        <ele>411.127219</ele>
        <time>2022-06-10T09:32:20.702Z</time>
      </trkpt>
      <trkpt lat="42.65941" lon="18.17553">
        <ele>410.125967</ele>
        <time>2022-06-10T09:32:22.703Z</time>
      </trkpt>
      <trkpt lat="42.65924" lon="18.17554">
        <ele>409.113565</ele>
        <time>2022-06-10T09:32:24.710Z</time>
      </trkpt>
      <trkpt lat="42.65907" lon="18.17553">
        <ele>408.083393</ele>
        <time>2022-06-10T09:32:26.723Z</time>
      </trkpt>
      <trkpt lat="42.6589" lon="18.17549">
        <ele>407.041187</ele>
        <time>2022-06-10T09:32:28.691Z</time>
      </trkpt>
      <trkpt lat="42.65873" lon="18.17541">
        <ele>406.137109</ele>
        <time>2022-06-10T09:32:30.721Z</time>
      </trkpt>
      <trkpt lat="42.65856" lon="18.17533">
        <ele>405.545876</ele>
        <time>2022-06-10T09:32:32.719Z</time>
      </trkpt>
      <trkpt lat="42.6584" lon="18.17525">
        <ele>404.965447</ele>
        <time>2022-06-10T09:32:34.695Z</time>
      </trkpt>
      <trkpt lat="42.65824" lon="18.17518">
        <ele>404.416648</ele>
        <time>2022-06-10T09:32:36.746Z</time>
      </trkpt>
      <trkpt lat="42.65808" lon="18.17509">
        <ele>403.857615</ele>
        <time>2022-06-10T09:32:38.711Z</time>
      </trkpt>
      <trkpt lat="42.65794" lon="18.17497">
        <ele>403.298961</ele>
        <time>2022-06-10T09:32:40.716Z</time>
      </trkpt>
      <trkpt lat="42.65783" lon="18.17481">
        <ele>402.759521</ele>
        <time>2022-06-10T09:32:42.711Z</time>
      </trkpt>
      <trkpt lat="42.65774" lon="18.17463">
        <ele>402.219756</ele>
        <time>2022-06-10T09:32:44.706Z</time>
      </trkpt>
      <trkpt lat="42.6577" lon="18.1744">
        <ele>401.651946</ele>
        <time>2022-06-10T09:32:46.732Z</time>
      </trkpt>
      <trkpt lat="42.6577" lon="18.17417">
        <ele>401.100413</ele>
        <time>2022-06-10T09:32:48.764Z</time>
      </trkpt>
      <trkpt lat="42.65776" lon="18.17395">
        <ele>400.533605</ele>
        <time>2022-06-10T09:32:50.711Z</time>
      </trkpt>
      <trkpt lat="42.65783" lon="18.17374">
        <ele>400.325577</ele>
        <time>2022-06-10T09:32:52.704Z</time>
      </trkpt>
      <trkpt lat="42.65788" lon="18.17352">
        <ele>400.257666</ele>
        <time>2022-06-10T09:32:54.714Z</time>
      </trkpt>
      <trkpt lat="42.65792" lon="18.1733">
        <ele>400.191382</ele>
        <time>2022-06-10T09:32:56.728Z</time>
      </trkpt>
      <trkpt lat="42.65796" lon="18.17308">
        <ele>400.124872</ele>
        <time>2022-06-10T09:32:58.708Z</time>
      </trkpt>
      <trkpt lat="42.65798" lon="18.17288">
        <ele>400.062295</ele>
        <time>2022-06-10T09:33:00.721Z</time>
      </trkpt>
      <trkpt lat="42.65799" lon="18.17267">
        <ele>400.002301</ele>
        <time>2022-06-10T09:33:02.724Z</time>
      </trkpt>
      <trkpt lat="42.65802" lon="18.17248">
        <ele>399.942061</ele>
        <time>2022-06-10T09:33:04.711Z</time>
      </trkpt>
      <trkpt lat="42.65809" lon="18.1723">
        <ele>399.882458</ele>
        <time>2022-06-10T09:33:06.725Z</time>
      </trkpt>
      <trkpt lat="42.6582" lon="18.17217">
        <ele>399.822342</ele>
        <time>2022-06-10T09:33:08.717Z</time>
      </trkpt>
      <trkpt lat="42.65835" lon="18.17209">
        <ele>399.759634</ele>
        <time>2022-06-10T09:33:10.707Z</time>
      </trkpt>
      <trkpt lat="42.65848" lon="18.17202">
        <ele>399.701866</ele>
        <time>2022-06-10T09:33:12.708Z</time>
      </trkpt>
      <trkpt lat="42.6586" lon="18.17195">
        <ele>399.643368</ele>
        <time>2022-06-10T09:33:14.718Z</time>
      </trkpt>
      <trkpt lat="42.65872" lon="18.17187">
        <ele>399.481171</ele>
        <time>2022-06-10T09:33:16.690Z</time>
      </trkpt>
      <trkpt lat="42.65882" lon="18.17177">
        <ele>399.320138</ele>
        <time>2022-06-10T09:33:18.705Z</time>
      </trkpt>
      <trkpt lat="42.65891" lon="18.17164">
        <ele>399.163175</ele>
        <time>2022-06-10T09:33:20.714Z</time>
      </trkpt>
      <trkpt lat="42.65898" lon="18.17151">
        <ele>399.011162</ele>
        <time>2022-06-10T09:33:22.727Z</time>
      </trkpt>
      <trkpt lat="42.65905" lon="18.17135">
        <ele>398.848921</ele>
        <time>2022-06-10T09:33:24.709Z</time>
      </trkpt>
      <trkpt lat="42.65908" lon="18.17119">
        <ele>398.691451</ele>
        <time>2022-06-10T09:33:26.710Z</time>
      </trkpt>
      <trkpt lat="42.65912" lon="18.17102">
        <ele>398.529699</ele>
        <time>2022-06-10T09:33:28.764Z</time>
      </trkpt>
      <trkpt lat="42.65914" lon="18.17084">
        <ele>398.364945</ele>
        <time>2022-06-10T09:33:30.707Z</time>
      </trkpt>
      <trkpt lat="42.65917" lon="18.17066">
        <ele>398.200698</ele>
        <time>2022-06-10T09:33:32.764Z</time>
      </trkpt>
      <trkpt lat="42.6592" lon="18.17049">
        <ele>398.037098</ele>
        <time>2022-06-10T09:33:34.716Z</time>
      </trkpt>
      <trkpt lat="42.65922" lon="18.17031">
        <ele>397.874447</ele>
        <time>2022-06-10T09:33:36.730Z</time>
      </trkpt>
      <trkpt lat="42.65924" lon="18.17014">
        <ele>397.711108</ele>
        <time>2022-06-10T09:33:38.710Z</time>
      </trkpt>
      <trkpt lat="42.65926" lon="18.16997">
        <ele>397.550474</ele>
        <time>2022-06-10T09:33:40.714Z</time>
      </trkpt>
      <trkpt lat="42.65928" lon="18.16979">
        <ele>397.368642</ele>
        <time>2022-06-10T09:33:42.714Z</time>
      </trkpt>
      <trkpt lat="42.6593" lon="18.16962">
        <ele>397.041871</ele>
        <time>2022-06-10T09:33:44.716Z</time>
      </trkpt>
      <trkpt lat="42.65932" lon="18.16945">
        <ele>396.722056</ele>
        <time>2022-06-10T09:33:46.719Z</time>
      </trkpt>
      <trkpt lat="42.65934" lon="18.16928">
        <ele>396.40988</ele>
        <time>2022-06-10T09:33:48.708Z</time>
      </trkpt>
      <trkpt lat="42.65936" lon="18.16911">
        <ele>396.094368</ele>
        <time>2022-06-10T09:33:50.710Z</time>
      </trkpt>
      <trkpt lat="42.65938" lon="18.16894">
        <ele>395.785484</ele>
        <time>2022-06-10T09:33:52.723Z</time>
      </trkpt>
      <trkpt lat="42.65939" lon="18.16878">
        <ele>395.490063</ele>
        <time>2022-06-10T09:33:54.703Z</time>
      </trkpt>
      <trkpt lat="42.65941" lon="18.16863">
        <ele>395.204097</ele>
        <time>2022-06-10T09:33:56.741Z</time>
      </trkpt>
      <trkpt lat="42.65942" lon="18.16848">
        <ele>394.927254</ele>
        <time>2022-06-10T09:33:58.714Z</time>
      </trkpt>
      <trkpt lat="42.65944" lon="18.16834">
        <ele>394.659867</ele>
        <time>2022-06-10T09:34:00.751Z</time>
      </trkpt>
      <trkpt lat="42.65945" lon="18.1682">
        <ele>394.402291</ele>
        <time>2022-06-10T09:34:02.718Z</time>
      </trkpt>
      <trkpt lat="42.65947" lon="18.16807">
        <ele>394.160054</ele>
        <time>2022-06-10T09:34:04.715Z</time>
      </trkpt>
      <trkpt lat="42.65948" lon="18.16794">
        <ele>393.928723</ele>
        <time>2022-06-10T09:34:06.741Z</time>
      </trkpt>
      <trkpt lat="42.6595" lon="18.16782">
        <ele>393.697391</ele>
        <time>2022-06-10T09:34:08.683Z</time>
      </trkpt>
      <trkpt lat="42.65951" lon="18.1677">
        <ele>393.463827</ele>
        <time>2022-06-10T09:34:10.723Z</time>
      </trkpt>
      <trkpt lat="42.65953" lon="18.16757">
        <ele>393.232496</ele>
        <time>2022-06-10T09:34:12.726Z</time>
      </trkpt>
      <trkpt lat="42.65954" lon="18.16745">
        <ele>393.006786</ele>
        <time>2022-06-10T09:34:14.802Z</time>
      </trkpt>
      <trkpt lat="42.65955" lon="18.16727">
        <ele>392.838888</ele>
        <time>2022-06-10T09:34:17.734Z</time>
      </trkpt>
      <trkpt lat="42.65955" lon="18.16711">
        <ele>392.741987</ele>
        <time>2022-06-10T09:34:20.715Z</time>
      </trkpt>
      <trkpt lat="42.65955" lon="18.16695">
        <ele>392.649269</ele>
        <time>2022-06-10T09:34:23.718Z</time>
      </trkpt>
      <trkpt lat="42.65954" lon="18.16679">
        <ele>392.555539</ele>
        <time>2022-06-10T09:34:26.711Z</time>
      </trkpt>
      <trkpt lat="42.65953" lon="18.16663">
        <ele>392.461887</ele>
        <time>2022-06-10T09:34:29.699Z</time>
      </trkpt>
      <trkpt lat="42.65951" lon="18.16647">
        <ele>392.369719</ele>
        <time>2022-06-10T09:34:32.705Z</time>
      </trkpt>
      <trkpt lat="42.65949" lon="18.16631">
        <ele>392.273278</ele>
        <time>2022-06-10T09:34:35.669Z</time>
      </trkpt>
      <trkpt lat="42.65946" lon="18.16614">
        <ele>392.173843</ele>
        <time>2022-06-10T09:34:38.693Z</time>
      </trkpt>
      <trkpt lat="42.65943" lon="18.16597">
        <ele>392.073054</ele>
        <time>2022-06-10T09:34:41.688Z</time>
      </trkpt>
      <trkpt lat="42.6594" lon="18.16581">
        <ele>391.970943</ele>
        <time>2022-06-10T09:34:44.733Z</time>
      </trkpt>
      <trkpt lat="42.65937" lon="18.16569">
        <ele>391.898683</ele>
        <time>2022-06-10T09:34:46.685Z</time>
      </trkpt>
      <trkpt lat="42.65935" lon="18.16556">
        <ele>391.82491</ele>
        <time>2022-06-10T09:34:48.707Z</time>
      </trkpt>
      <trkpt lat="42.65933" lon="18.16544">
        <ele>391.74968</ele>
        <time>2022-06-10T09:34:50.712Z</time>
      </trkpt>
      <trkpt lat="42.65932" lon="18.16531">
        <ele>391.673731</ele>
        <time>2022-06-10T09:34:52.816Z</time>
      </trkpt>
      <trkpt lat="42.6593" lon="18.16518">
        <ele>391.59889</ele>
        <time>2022-06-10T09:34:54.701Z</time>
      </trkpt>
      <trkpt lat="42.65929" lon="18.16505">
        <ele>391.519198</ele>
        <time>2022-06-10T09:34:56.749Z</time>
      </trkpt>
      <trkpt lat="42.65928" lon="18.16491">
        <ele>391.471502</ele>
        <time>2022-06-10T09:34:58.708Z</time>
      </trkpt>
      <trkpt lat="42.65927" lon="18.16478">
        <ele>391.450602</ele>
        <time>2022-06-10T09:35:00.707Z</time>
      </trkpt>
      <trkpt lat="42.65925" lon="18.16462">
        <ele>391.42383</ele>
        <time>2022-06-10T09:35:03.696Z</time>
      </trkpt>
      <trkpt lat="42.65925" lon="18.16449">
        <ele>391.401419</ele>
        <time>2022-06-10T09:35:07.736Z</time>
      </trkpt>
      <trkpt lat="42.65926" lon="18.16425">
        <ele>391.361536</ele>
        <time>2022-06-10T09:36:27.689Z</time>
      </trkpt>
      <trkpt lat="42.65927" lon="18.16411">
        <ele>391.339263</ele>
        <time>2022-06-10T09:36:31.688Z</time>
      </trkpt>
      <trkpt lat="42.65926" lon="18.16399">
        <ele>391.319024</ele>
        <time>2022-06-10T09:36:34.688Z</time>
      </trkpt>
      <trkpt lat="42.65926" lon="18.16385">
        <ele>391.296292</ele>
        <time>2022-06-10T09:36:37.702Z</time>
      </trkpt>
      <trkpt lat="42.65926" lon="18.16371">
        <ele>391.272897</ele>
        <time>2022-06-10T09:36:40.685Z</time>
      </trkpt>
      <trkpt lat="42.6593" lon="18.16359">
        <ele>391.250232</ele>
        <time>2022-06-10T09:36:43.708Z</time>
      </trkpt>
      <trkpt lat="42.6594" lon="18.16352">
        <ele>391.225099</ele>
        <time>2022-06-10T09:36:46.700Z</time>
      </trkpt>
      <trkpt lat="42.65951" lon="18.16357">
        <ele>391.198675</ele>
        <time>2022-06-10T09:36:49.699Z</time>
      </trkpt>
      <trkpt lat="42.65961" lon="18.16363">
        <ele>391.172853</ele>
        <time>2022-06-10T09:36:52.698Z</time>
      </trkpt>
      <trkpt lat="42.65972" lon="18.1637">
        <ele>391.146154</ele>
        <time>2022-06-10T09:36:55.682Z</time>
      </trkpt>
      <trkpt lat="42.65984" lon="18.16377">
        <ele>391.117269</ele>
        <time>2022-06-10T09:36:58.689Z</time>
      </trkpt>
      <trkpt lat="42.65996" lon="18.16384">
        <ele>391.087765</ele>
        <time>2022-06-10T09:37:01.681Z</time>
      </trkpt>
      <trkpt lat="42.66006" lon="18.16392">
        <ele>390.903026</ele>
        <time>2022-06-10T09:37:04.738Z</time>
      </trkpt>
      <trkpt lat="42.66014" lon="18.16401">
        <ele>390.684375</ele>
        <time>2022-06-10T09:37:07.685Z</time>
      </trkpt>
      <trkpt lat="42.6602" lon="18.16412">
        <ele>390.470447</ele>
        <time>2022-06-10T09:37:10.686Z</time>
      </trkpt>
      <trkpt lat="42.66027" lon="18.16421">
        <ele>390.267169</ele>
        <time>2022-06-10T09:37:13.682Z</time>
      </trkpt>
      <trkpt lat="42.66034" lon="18.1643">
        <ele>390.06389</ele>
        <time>2022-06-10T09:37:16.685Z</time>
      </trkpt>
      <trkpt lat="42.66041" lon="18.16439">
        <ele>389.860357</ele>
        <time>2022-06-10T09:37:19.697Z</time>
      </trkpt>
      <trkpt lat="42.66047" lon="18.16449">
        <ele>389.667427</ele>
        <time>2022-06-10T09:37:22.714Z</time>
      </trkpt>
      <trkpt lat="42.66055" lon="18.16459">
        <ele>389.443005</ele>
        <time>2022-06-10T09:37:26.735Z</time>
      </trkpt>
      <trkpt lat="42.66074" lon="18.16472">
        <ele>388.994166</ele>
        <time>2022-06-10T09:38:22.707Z</time>
      </trkpt>
      <trkpt lat="42.66083" lon="18.16478">
        <ele>388.775296</ele>
        <time>2022-06-10T09:38:26.691Z</time>
      </trkpt>
      <trkpt lat="42.66093" lon="18.16484">
        <ele>388.538502</ele>
        <time>2022-06-10T09:38:30.722Z</time>
      </trkpt>
      <trkpt lat="42.66102" lon="18.16488">
        <ele>388.344064</ele>
        <time>2022-06-10T09:38:33.689Z</time>
      </trkpt>
      <trkpt lat="42.66112" lon="18.16491">
        <ele>388.131989</ele>
        <time>2022-06-10T09:38:36.732Z</time>
      </trkpt>
      <trkpt lat="42.66122" lon="18.16493">
        <ele>387.927936</ele>
        <time>2022-06-10T09:38:39.674Z</time>
      </trkpt>
      <trkpt lat="42.66132" lon="18.16494">
        <ele>387.707806</ele>
        <time>2022-06-10T09:38:42.675Z</time>
      </trkpt>
      <trkpt lat="42.66145" lon="18.16496">
        <ele>387.442519</ele>
        <time>2022-06-10T09:38:45.682Z</time>
      </trkpt>
      <trkpt lat="42.66154" lon="18.16497">
        <ele>387.180934</ele>
        <time>2022-06-10T09:38:47.696Z</time>
      </trkpt>
      <trkpt lat="42.66164" lon="18.16499">
        <ele>386.635756</ele>
        <time>2022-06-10T09:38:49.679Z</time>
      </trkpt>
      <trkpt lat="42.66175" lon="18.165">
        <ele>386.080128</ele>
        <time>2022-06-10T09:38:51.690Z</time>
      </trkpt>
      <trkpt lat="42.66185" lon="18.16502">
        <ele>385.524499</ele>
        <time>2022-06-10T09:38:53.707Z</time>
      </trkpt>
      <trkpt lat="42.66196" lon="18.16502">
        <ele>384.961596</ele>
        <time>2022-06-10T09:38:55.679Z</time>
      </trkpt>
      <trkpt lat="42.66207" lon="18.16503">
        <ele>384.383013</ele>
        <time>2022-06-10T09:38:57.685Z</time>
      </trkpt>
      <trkpt lat="42.66217" lon="18.16502">
        <ele>383.846115</ele>
        <time>2022-06-10T09:38:59.726Z</time>
      </trkpt>
      <trkpt lat="42.66226" lon="18.165">
        <ele>383.364539</ele>
        <time>2022-06-10T09:39:01.704Z</time>
      </trkpt>
      <trkpt lat="42.66237" lon="18.16496">
        <ele>382.745403</ele>
        <time>2022-06-10T09:39:04.692Z</time>
      </trkpt>
      <trkpt lat="42.66249" lon="18.16489">
        <ele>382.111377</ele>
        <time>2022-06-10T09:39:07.697Z</time>
      </trkpt>
      <trkpt lat="42.66257" lon="18.16485">
        <ele>381.609292</ele>
        <time>2022-06-10T09:39:09.706Z</time>
      </trkpt>
      <trkpt lat="42.66269" lon="18.16483">
        <ele>381.022297</ele>
        <time>2022-06-10T09:39:11.706Z</time>
      </trkpt>
      <trkpt lat="42.66281" lon="18.16486">
        <ele>380.379224</ele>
        <time>2022-06-10T09:39:13.701Z</time>
      </trkpt>
      <trkpt lat="42.66291" lon="18.16491">
        <ele>379.809106</ele>
        <time>2022-06-10T09:39:15.703Z</time>
      </trkpt>
      <trkpt lat="42.66301" lon="18.16494">
        <ele>379.266089</ele>
        <time>2022-06-10T09:39:17.735Z</time>
      </trkpt>
      <trkpt lat="42.66311" lon="18.16498">
        <ele>378.730965</ele>
        <time>2022-06-10T09:39:19.698Z</time>
      </trkpt>
      <trkpt lat="42.66321" lon="18.165">
        <ele>378.204352</ele>
        <time>2022-06-10T09:39:21.712Z</time>
      </trkpt>
      <trkpt lat="42.6633" lon="18.16502">
        <ele>377.73788</ele>
        <time>2022-06-10T09:39:23.715Z</time>
      </trkpt>
      <trkpt lat="42.66341" lon="18.16504">
        <ele>377.404042</ele>
        <time>2022-06-10T09:39:25.703Z</time>
      </trkpt>
      <trkpt lat="42.66352" lon="18.16505">
        <ele>377.052393</ele>
        <time>2022-06-10T09:39:27.703Z</time>
      </trkpt>
      <trkpt lat="42.66362" lon="18.16505">
        <ele>376.710977</ele>
        <time>2022-06-10T09:39:29.699Z</time>
      </trkpt>
      <trkpt lat="42.66372" lon="18.16505">
        <ele>376.392141</ele>
        <time>2022-06-10T09:39:31.705Z</time>
      </trkpt>
      <trkpt lat="42.66385" lon="18.16503">
        <ele>375.969172</ele>
        <time>2022-06-10T09:39:34.700Z</time>
      </trkpt>
      <trkpt lat="42.66397" lon="18.16501">
        <ele>375.573171</ele>
        <time>2022-06-10T09:39:37.709Z</time>
      </trkpt>
      <trkpt lat="42.66411" lon="18.165">
        <ele>375.13397</ele>
        <time>2022-06-10T09:39:40.705Z</time>
      </trkpt>
      <trkpt lat="42.66421" lon="18.16498">
        <ele>374.81201</ele>
        <time>2022-06-10T09:39:42.703Z</time>
      </trkpt>
      <trkpt lat="42.66431" lon="18.16497">
        <ele>374.502137</ele>
        <time>2022-06-10T09:39:44.727Z</time>
      </trkpt>
      <trkpt lat="42.66444" lon="18.16498">
        <ele>374.079168</ele>
        <time>2022-06-10T09:39:47.697Z</time>
      </trkpt>
      <trkpt lat="42.66455" lon="18.16503">
        <ele>373.688018</ele>
        <time>2022-06-10T09:39:50.754Z</time>
      </trkpt>
      <trkpt lat="42.66465" lon="18.16509">
        <ele>373.351638</ele>
        <time>2022-06-10T09:39:53.703Z</time>
      </trkpt>
      <trkpt lat="42.66475" lon="18.16511">
        <ele>373.03415</ele>
        <time>2022-06-10T09:39:56.704Z</time>
      </trkpt>
      <trkpt lat="42.66484" lon="18.16513">
        <ele>372.734494</ele>
        <time>2022-06-10T09:39:59.712Z</time>
      </trkpt>
      <trkpt lat="42.66493" lon="18.16517">
        <ele>372.411326</ele>
        <time>2022-06-10T09:40:02.704Z</time>
      </trkpt>
      <trkpt lat="42.66503" lon="18.1652">
        <ele>372.090011</ele>
        <time>2022-06-10T09:40:05.715Z</time>
      </trkpt>
      <trkpt lat="42.66513" lon="18.16524">
        <ele>372.140967</ele>
        <time>2022-06-10T09:40:08.703Z</time>
      </trkpt>
      <trkpt lat="42.66523" lon="18.16527">
        <ele>372.261396</ele>
        <time>2022-06-10T09:40:11.698Z</time>
      </trkpt>
      <trkpt lat="42.66532" lon="18.1653">
        <ele>372.379167</ele>
        <time>2022-06-10T09:40:14.712Z</time>
      </trkpt>
      <trkpt lat="42.66542" lon="18.16534">
        <ele>372.497166</ele>
        <time>2022-06-10T09:40:17.717Z</time>
      </trkpt>
      <trkpt lat="42.66551" lon="18.16536">
        <ele>372.606794</ele>
        <time>2022-06-10T09:40:20.699Z</time>
      </trkpt>
      <trkpt lat="42.6656" lon="18.16537">
        <ele>372.71897</ele>
        <time>2022-06-10T09:40:23.706Z</time>
      </trkpt>
      <trkpt lat="42.6657" lon="18.16539">
        <ele>372.833733</ele>
        <time>2022-06-10T09:40:26.732Z</time>
      </trkpt>
      <trkpt lat="42.6658" lon="18.1654">
        <ele>372.955281</ele>
        <time>2022-06-10T09:40:29.720Z</time>
      </trkpt>
      <trkpt lat="42.6659" lon="18.1654">
        <ele>373.081166</ele>
        <time>2022-06-10T09:40:32.706Z</time>
      </trkpt>
      <trkpt lat="42.66601" lon="18.16539">
        <ele>373.206458</ele>
        <time>2022-06-10T09:40:35.705Z</time>
      </trkpt>
      <trkpt lat="42.66611" lon="18.16536">
        <ele>373.33501</ele>
        <time>2022-06-10T09:40:38.723Z</time>
      </trkpt>
      <trkpt lat="42.66621" lon="18.16533">
        <ele>373.459339</ele>
        <time>2022-06-10T09:40:41.717Z</time>
      </trkpt>
      <trkpt lat="42.66632" lon="18.16529">
        <ele>373.5917</ele>
        <time>2022-06-10T09:40:44.703Z</time>
      </trkpt>
      <trkpt lat="42.66642" lon="18.16526">
        <ele>373.720144</ele>
        <time>2022-06-10T09:40:47.725Z</time>
      </trkpt>
      <trkpt lat="42.66653" lon="18.16523">
        <ele>373.847421</ele>
        <time>2022-06-10T09:40:50.733Z</time>
      </trkpt>
      <trkpt lat="42.66663" lon="18.1652">
        <ele>373.970788</ele>
        <time>2022-06-10T09:40:53.732Z</time>
      </trkpt>
      <trkpt lat="42.66672" lon="18.16516">
        <ele>374.085559</ele>
        <time>2022-06-10T09:40:56.720Z</time>
      </trkpt>
      <trkpt lat="42.66681" lon="18.16513">
        <ele>374.200481</ele>
        <time>2022-06-10T09:40:59.757Z</time>
      </trkpt>
      <trkpt lat="42.66692" lon="18.16508">
        <ele>374.432687</ele>
        <time>2022-06-10T09:41:03.702Z</time>
      </trkpt>
      <trkpt lat="42.66703" lon="18.16503">
        <ele>374.662435</ele>
        <time>2022-06-10T09:41:07.704Z</time>
      </trkpt>
      <trkpt lat="42.66712" lon="18.16494">
        <ele>374.886477</ele>
        <time>2022-06-10T09:41:11.699Z</time>
      </trkpt>
      <trkpt lat="42.66721" lon="18.16485">
        <ele>375.105731</ele>
        <time>2022-06-10T09:41:15.704Z</time>
      </trkpt>
      <trkpt lat="42.6673" lon="18.16477">
        <ele>375.315818</ele>
        <time>2022-06-10T09:41:19.711Z</time>
      </trkpt>
      <trkpt lat="42.66739" lon="18.16468">
        <ele>375.527681</ele>
        <time>2022-06-10T09:41:23.705Z</time>
      </trkpt>
      <trkpt lat="42.66747" lon="18.16458">
        <ele>375.74692</ele>
        <time>2022-06-10T09:41:27.737Z</time>
      </trkpt>
      <trkpt lat="42.66754" lon="18.16447">
        <ele>375.964947</ele>
        <time>2022-06-10T09:41:31.703Z</time>
      </trkpt>
      <trkpt lat="42.66762" lon="18.16435">
        <ele>376.199844</ele>
        <time>2022-06-10T09:41:35.710Z</time>
      </trkpt>
      <trkpt lat="42.66768" lon="18.16426">
        <ele>376.380893</ele>
        <time>2022-06-10T09:41:38.706Z</time>
      </trkpt>
      <trkpt lat="42.66775" lon="18.16417">
        <ele>376.566267</ele>
        <time>2022-06-10T09:41:41.717Z</time>
      </trkpt>
      <trkpt lat="42.66781" lon="18.16407">
        <ele>376.75405</ele>
        <time>2022-06-10T09:41:44.721Z</time>
      </trkpt>
      <trkpt lat="42.66787" lon="18.16398">
        <ele>376.938154</ele>
        <time>2022-06-10T09:41:47.699Z</time>
      </trkpt>
      <trkpt lat="42.66793" lon="18.16388">
        <ele>377.128898</ele>
        <time>2022-06-10T09:41:50.716Z</time>
      </trkpt>
      <trkpt lat="42.668" lon="18.16378">
        <ele>377.318676</ele>
        <time>2022-06-10T09:41:53.710Z</time>
      </trkpt>
      <trkpt lat="42.66806" lon="18.16369">
        <ele>377.51078</ele>
        <time>2022-06-10T09:41:56.703Z</time>
      </trkpt>
      <trkpt lat="42.66814" lon="18.1636">
        <ele>377.711751</ele>
        <time>2022-06-10T09:41:59.701Z</time>
      </trkpt>
      <trkpt lat="42.66822" lon="18.16352">
        <ele>377.878203</ele>
        <time>2022-06-10T09:42:02.704Z</time>
      </trkpt>
      <trkpt lat="42.6683" lon="18.16346">
        <ele>378.030688</ele>
        <time>2022-06-10T09:42:05.697Z</time>
      </trkpt>
      <trkpt lat="42.6684" lon="18.16337">
        <ele>378.224149</ele>
        <time>2022-06-10T09:42:09.711Z</time>
      </trkpt>
      <trkpt lat="42.6685" lon="18.16331">
        <ele>378.413412</ele>
        <time>2022-06-10T09:42:13.775Z</time>
      </trkpt>
      <trkpt lat="42.6686" lon="18.16329">
        <ele>378.570318</ele>
        <time>2022-06-10T09:42:17.725Z</time>
      </trkpt>
      <trkpt lat="42.66869" lon="18.16328">
        <ele>378.728106</ele>
        <time>2022-06-10T09:42:21.715Z</time>
      </trkpt>
      <trkpt lat="42.6688" lon="18.16327">
        <ele>378.902272</ele>
        <time>2022-06-10T09:42:25.744Z</time>
      </trkpt>
      <trkpt lat="42.66892" lon="18.16325">
        <ele>379.096817</ele>
        <time>2022-06-10T09:42:29.733Z</time>
      </trkpt>
      <trkpt lat="42.669" lon="18.16321">
        <ele>379.243985</ele>
        <time>2022-06-10T09:42:32.713Z</time>
      </trkpt>
      <trkpt lat="42.66909" lon="18.16316">
        <ele>379.402368</ele>
        <time>2022-06-10T09:42:35.699Z</time>
      </trkpt>
      <trkpt lat="42.66917" lon="18.16309">
        <ele>379.556501</ele>
        <time>2022-06-10T09:42:38.699Z</time>
      </trkpt>
      <trkpt lat="42.66924" lon="18.16302">
        <ele>379.707322</ele>
        <time>2022-06-10T09:42:41.707Z</time>
      </trkpt>
      <trkpt lat="42.66932" lon="18.16295">
        <ele>379.859266</ele>
        <time>2022-06-10T09:42:44.715Z</time>
      </trkpt>
      <trkpt lat="42.6694" lon="18.16287">
        <ele>380.01606</ele>
        <time>2022-06-10T09:42:47.699Z</time>
      </trkpt>
      <trkpt lat="42.66947" lon="18.16279">
        <ele>380.172655</ele>
        <time>2022-06-10T09:42:50.708Z</time>
      </trkpt>
      <trkpt lat="42.66955" lon="18.16269">
        <ele>380.345655</ele>
        <time>2022-06-10T09:42:53.715Z</time>
      </trkpt>
      <trkpt lat="42.66963" lon="18.16261">
        <ele>380.508351</ele>
        <time>2022-06-10T09:42:56.707Z</time>
      </trkpt>
      <trkpt lat="42.66973" lon="18.16256">
        <ele>380.678106</ele>
        <time>2022-06-10T09:42:59.725Z</time>
      </trkpt>
      <trkpt lat="42.66983" lon="18.16259">
        <ele>381.19363</ele>
        <time>2022-06-10T09:43:02.709Z</time>
      </trkpt>
      <trkpt lat="42.66991" lon="18.16269">
        <ele>381.783466</ele>
        <time>2022-06-10T09:43:05.702Z</time>
      </trkpt>
      <trkpt lat="42.66997" lon="18.16279">
        <ele>382.321391</ele>
        <time>2022-06-10T09:43:09.725Z</time>
      </trkpt>
      <trkpt lat="42.67006" lon="18.16286">
        <ele>382.904207</ele>
        <time>2022-06-10T09:43:15.702Z</time>
      </trkpt>
      <trkpt lat="42.67015" lon="18.16292">
        <ele>383.428606</ele>
        <time>2022-06-10T09:43:22.712Z</time>
      </trkpt>
      <trkpt lat="42.67025" lon="18.16294">
        <ele>383.995635</ele>
        <time>2022-06-10T09:43:29.692Z</time>
      </trkpt>
      <trkpt lat="42.67034" lon="18.16291">
        <ele>384.517839</ele>
        <time>2022-06-10T09:43:35.699Z</time>
      </trkpt>
      <trkpt lat="42.67043" lon="18.16289">
        <ele>385.041961</ele>
        <time>2022-06-10T09:43:41.720Z</time>
      </trkpt>
      <trkpt lat="42.67052" lon="18.16286">
        <ele>385.561319</ele>
        <time>2022-06-10T09:43:47.703Z</time>
      </trkpt>
      <trkpt lat="42.67061" lon="18.16281">
        <ele>386.109197</ele>
        <time>2022-06-10T09:43:54.707Z</time>
      </trkpt>
      <trkpt lat="42.67071" lon="18.16276">
        <ele>386.655529</ele>
        <time>2022-06-10T09:44:00.705Z</time>
      </trkpt>
      <trkpt lat="42.67079" lon="18.16271">
        <ele>387.174563</ele>
        <time>2022-06-10T09:44:05.698Z</time>
      </trkpt>
      <trkpt lat="42.67088" lon="18.16267">
        <ele>387.688518</ele>
        <time>2022-06-10T09:44:10.729Z</time>
      </trkpt>
      <trkpt lat="42.67097" lon="18.16265">
        <ele>388.203015</ele>
        <time>2022-06-10T09:44:15.712Z</time>
      </trkpt>
      <trkpt lat="42.67106" lon="18.16262">
        <ele>388.741434</ele>
        <time>2022-06-10T09:44:20.722Z</time>
      </trkpt>
      <trkpt lat="42.67115" lon="18.16258">
        <ele>389.246466</ele>
        <time>2022-06-10T09:44:25.728Z</time>
      </trkpt>
      <trkpt lat="42.67124" lon="18.1625">
        <ele>389.838335</ele>
        <time>2022-06-10T09:44:31.704Z</time>
      </trkpt>
      <trkpt lat="42.6713" lon="18.16241">
        <ele>390.354553</ele>
        <time>2022-06-10T09:44:36.752Z</time>
      </trkpt>
      <trkpt lat="42.67136" lon="18.1623">
        <ele>390.89156</ele>
        <time>2022-06-10T09:44:41.713Z</time>
      </trkpt>
      <trkpt lat="42.67138" lon="18.16217">
        <ele>391.37938</ele>
        <time>2022-06-10T09:44:46.760Z</time>
      </trkpt>
      <trkpt lat="42.67139" lon="18.16205">
        <ele>391.849031</ele>
        <time>2022-06-10T09:44:52.698Z</time>
      </trkpt>
      <trkpt lat="42.67141" lon="18.16191">
        <ele>392.370047</ele>
        <time>2022-06-10T09:44:59.714Z</time>
      </trkpt>
      <trkpt lat="42.67145" lon="18.1618">
        <ele>392.841535</ele>
        <time>2022-06-10T09:45:05.717Z</time>
      </trkpt>
      <trkpt lat="42.67152" lon="18.16171">
        <ele>393.348851</ele>
        <time>2022-06-10T09:45:13.699Z</time>
      </trkpt>
      <trkpt lat="42.67161" lon="18.16169">
        <ele>393.831226</ele>
        <time>2022-06-10T09:45:21.816Z</time>
      </trkpt>
      <trkpt lat="42.6717" lon="18.16165">
        <ele>394.298888</ele>
        <time>2022-06-10T09:45:28.705Z</time>
      </trkpt>
      <trkpt lat="42.67179" lon="18.16161">
        <ele>394.779101</ele>
        <time>2022-06-10T09:45:35.713Z</time>
      </trkpt>
      <trkpt lat="42.67188" lon="18.16157">
        <ele>395.25535</ele>
        <time>2022-06-10T09:45:43.719Z</time>
      </trkpt>
      <trkpt lat="42.67196" lon="18.16149">
        <ele>395.779063</ele>
        <time>2022-06-10T09:45:51.716Z</time>
      </trkpt>
      <trkpt lat="42.67204" lon="18.16142">
        <ele>396.268457</ele>
        <time>2022-06-10T09:45:58.736Z</time>
      </trkpt>
      <trkpt lat="42.67212" lon="18.16135">
        <ele>396.756119</ele>
        <time>2022-06-10T09:46:05.709Z</time>
      </trkpt>
      <trkpt lat="42.67221" lon="18.16128">
        <ele>397.266815</ele>
        <time>2022-06-10T09:46:12.716Z</time>
      </trkpt>
      <trkpt lat="42.6723" lon="18.16123">
        <ele>397.770774</ele>
        <time>2022-06-10T09:46:19.705Z</time>
      </trkpt>
      <trkpt lat="42.67238" lon="18.16116">
        <ele>398.282315</ele>
        <time>2022-06-10T09:46:25.717Z</time>
      </trkpt>
      <trkpt lat="42.67245" lon="18.16107">
        <ele>398.759257</ele>
        <time>2022-06-10T09:46:30.745Z</time>
      </trkpt>
      <trkpt lat="42.67252" lon="18.16098">
        <ele>399.24343</ele>
        <time>2022-06-10T09:46:35.708Z</time>
      </trkpt>
      <trkpt lat="42.67258" lon="18.16086">
        <ele>399.81428</ele>
        <time>2022-06-10T09:46:40.709Z</time>
      </trkpt>
      <trkpt lat="42.67263" lon="18.16074">
        <ele>399.756084</ele>
        <time>2022-06-10T09:46:44.764Z</time>
      </trkpt>
      <trkpt lat="42.67268" lon="18.1606">
        <ele>399.465606</ele>
        <time>2022-06-10T09:46:48.723Z</time>
      </trkpt>
      <trkpt lat="42.67273" lon="18.16048">
        <ele>399.217989</ele>
        <time>2022-06-10T09:46:51.711Z</time>
      </trkpt>
      <trkpt lat="42.67277" lon="18.16035">
        <ele>398.950245</ele>
        <time>2022-06-10T09:46:54.699Z</time>
      </trkpt>
      <trkpt lat="42.67282" lon="18.16019">
        <ele>398.627934</ele>
        <time>2022-06-10T09:46:57.711Z</time>
      </trkpt>
      <trkpt lat="42.67285" lon="18.16007">
        <ele>398.385801</ele>
        <time>2022-06-10T09:46:59.707Z</time>
      </trkpt>
      <trkpt lat="42.67289" lon="18.15994">
        <ele>398.117619</ele>
        <time>2022-06-10T09:47:01.699Z</time>
      </trkpt>
      <trkpt lat="42.67294" lon="18.15979">
        <ele>397.821175</ele>
        <time>2022-06-10T09:47:03.716Z</time>
      </trkpt>
      <trkpt lat="42.67298" lon="18.15965">
        <ele>397.537376</ele>
        <time>2022-06-10T09:47:05.700Z</time>
      </trkpt>
      <trkpt lat="42.67302" lon="18.15951">
        <ele>397.259594</ele>
        <time>2022-06-10T09:47:07.701Z</time>
      </trkpt>
      <trkpt lat="42.67305" lon="18.15939">
        <ele>397.013479</ele>
        <time>2022-06-10T09:47:09.703Z</time>
      </trkpt>
      <trkpt lat="42.67311" lon="18.15923">
        <ele>396.683582</ele>
        <time>2022-06-10T09:47:12.715Z</time>
      </trkpt>
      <trkpt lat="42.67315" lon="18.15912">
        <ele>396.445782</ele>
        <time>2022-06-10T09:47:14.724Z</time>
      </trkpt>
      <trkpt lat="42.67322" lon="18.15902">
        <ele>396.181459</ele>
        <time>2022-06-10T09:47:16.715Z</time>
      </trkpt>
      <trkpt lat="42.67332" lon="18.15891">
        <ele>395.871905</ele>
        <time>2022-06-10T09:47:18.708Z</time>
      </trkpt>
      <trkpt lat="42.67343" lon="18.15881">
        <ele>395.539042</ele>
        <time>2022-06-10T09:47:20.701Z</time>
      </trkpt>
      <trkpt lat="42.67354" lon="18.1587">
        <ele>395.202538</ele>
        <time>2022-06-10T09:47:22.703Z</time>
      </trkpt>
      <trkpt lat="42.67367" lon="18.15858">
        <ele>394.861409</ele>
        <time>2022-06-10T09:47:24.770Z</time>
      </trkpt>
      <trkpt lat="42.67378" lon="18.15845">
        <ele>394.533846</ele>
        <time>2022-06-10T09:47:26.715Z</time>
      </trkpt>
      <trkpt lat="42.67388" lon="18.15832">
        <ele>394.222654</ele>
        <time>2022-06-10T09:47:28.714Z</time>
      </trkpt>
      <trkpt lat="42.67397" lon="18.1582">
        <ele>393.93383</ele>
        <time>2022-06-10T09:47:30.700Z</time>
      </trkpt>
      <trkpt lat="42.67405" lon="18.15808">
        <ele>393.659975</ele>
        <time>2022-06-10T09:47:32.707Z</time>
      </trkpt>
      <trkpt lat="42.67414" lon="18.15796">
        <ele>393.386962</ele>
        <time>2022-06-10T09:47:34.706Z</time>
      </trkpt>
      <trkpt lat="42.67422" lon="18.15786">
        <ele>393.134942</ele>
        <time>2022-06-10T09:47:36.706Z</time>
      </trkpt>
      <trkpt lat="42.67431" lon="18.15777">
        <ele>392.886943</ele>
        <time>2022-06-10T09:47:38.711Z</time>
      </trkpt>
      <trkpt lat="42.67438" lon="18.15767">
        <ele>392.651294</ele>
        <time>2022-06-10T09:47:40.695Z</time>
      </trkpt>
      <trkpt lat="42.67445" lon="18.15758">
        <ele>392.441932</ele>
        <time>2022-06-10T09:47:42.702Z</time>
      </trkpt>
      <trkpt lat="42.67452" lon="18.15749">
        <ele>392.228314</ele>
        <time>2022-06-10T09:47:44.709Z</time>
      </trkpt>
      <trkpt lat="42.6746" lon="18.15735">
        <ele>391.93261</ele>
        <time>2022-06-10T09:47:47.694Z</time>
      </trkpt>
      <trkpt lat="42.67468" lon="18.15723">
        <ele>391.663676</ele>
        <time>2022-06-10T09:47:50.719Z</time>
      </trkpt>
      <trkpt lat="42.67476" lon="18.15711">
        <ele>391.402661</ele>
        <time>2022-06-10T09:47:53.703Z</time>
      </trkpt>
      <trkpt lat="42.67484" lon="18.15701">
        <ele>391.361559</ele>
        <time>2022-06-10T09:47:56.738Z</time>
      </trkpt>
      <trkpt lat="42.67492" lon="18.1569">
        <ele>391.402898</ele>
        <time>2022-06-10T09:47:59.710Z</time>
      </trkpt>
      <trkpt lat="42.67499" lon="18.15677">
        <ele>391.445807</ele>
        <time>2022-06-10T09:48:02.703Z</time>
      </trkpt>
      <trkpt lat="42.67507" lon="18.15665">
        <ele>391.488488</ele>
        <time>2022-06-10T09:48:05.714Z</time>
      </trkpt>
      <trkpt lat="42.67514" lon="18.15653">
        <ele>391.529972</ele>
        <time>2022-06-10T09:48:08.706Z</time>
      </trkpt>
      <trkpt lat="42.67522" lon="18.15642">
        <ele>391.569413</ele>
        <time>2022-06-10T09:48:11.689Z</time>
      </trkpt>
      <trkpt lat="42.67529" lon="18.15631">
        <ele>391.60922</ele>
        <time>2022-06-10T09:48:14.718Z</time>
      </trkpt>
      <trkpt lat="42.67536" lon="18.15619">
        <ele>391.650412</ele>
        <time>2022-06-10T09:48:17.703Z</time>
      </trkpt>
      <trkpt lat="42.67544" lon="18.15607">
        <ele>391.693093</ele>
        <time>2022-06-10T09:48:20.698Z</time>
      </trkpt>
      <trkpt lat="42.67551" lon="18.15595">
        <ele>391.733977</ele>
        <time>2022-06-10T09:48:23.711Z</time>
      </trkpt>
      <trkpt lat="42.67559" lon="18.15583">
        <ele>391.776275</ele>
        <time>2022-06-10T09:48:26.736Z</time>
      </trkpt>
      <trkpt lat="42.67567" lon="18.15572">
        <ele>391.817523</ele>
        <time>2022-06-10T09:48:29.722Z</time>
      </trkpt>
      <trkpt lat="42.67575" lon="18.15559">
        <ele>391.861438</ele>
        <time>2022-06-10T09:48:32.718Z</time>
      </trkpt>
      <trkpt lat="42.67583" lon="18.15547">
        <ele>391.905552</ele>
        <time>2022-06-10T09:48:35.704Z</time>
      </trkpt>
      <trkpt lat="42.67591" lon="18.15535">
        <ele>391.948788</ele>
        <time>2022-06-10T09:48:38.697Z</time>
      </trkpt>
      <trkpt lat="42.67599" lon="18.15523">
        <ele>392.022333</ele>
        <time>2022-06-10T09:48:41.731Z</time>
      </trkpt>
      <trkpt lat="42.67607" lon="18.15511">
        <ele>392.262887</ele>
        <time>2022-06-10T09:48:44.722Z</time>
      </trkpt>
      <trkpt lat="42.67615" lon="18.15498">
        <ele>392.501854</ele>
        <time>2022-06-10T09:48:47.713Z</time>
      </trkpt>
      <trkpt lat="42.67623" lon="18.15486">
        <ele>392.732065</ele>
        <time>2022-06-10T09:48:50.686Z</time>
      </trkpt>
      <trkpt lat="42.67631" lon="18.15473">
        <ele>392.972926</ele>
        <time>2022-06-10T09:48:53.705Z</time>
      </trkpt>
      <trkpt lat="42.6764" lon="18.15461">
        <ele>393.22123</ele>
        <time>2022-06-10T09:48:56.697Z</time>
      </trkpt>
      <trkpt lat="42.67649" lon="18.15448">
        <ele>393.478055</ele>
        <time>2022-06-10T09:48:59.704Z</time>
      </trkpt>
      <trkpt lat="42.67658" lon="18.15435">
        <ele>393.717642</ele>
        <time>2022-06-10T09:49:02.704Z</time>
      </trkpt>
      <trkpt lat="42.67666" lon="18.15424">
        <ele>393.943561</ele>
        <time>2022-06-10T09:49:05.708Z</time>
      </trkpt>
      <trkpt lat="42.67674" lon="18.15411">
        <ele>394.176303</ele>
        <time>2022-06-10T09:49:08.727Z</time>
      </trkpt>
      <trkpt lat="42.67683" lon="18.15399">
        <ele>394.430037</ele>
        <time>2022-06-10T09:49:11.705Z</time>
      </trkpt>
      <trkpt lat="42.6769" lon="18.15385">
        <ele>394.669998</ele>
        <time>2022-06-10T09:49:14.715Z</time>
      </trkpt>
      <trkpt lat="42.67697" lon="18.15372">
        <ele>394.908817</ele>
        <time>2022-06-10T09:49:17.711Z</time>
      </trkpt>
      <trkpt lat="42.67705" lon="18.15358">
        <ele>395.151079</ele>
        <time>2022-06-10T09:49:20.704Z</time>
      </trkpt>
      <trkpt lat="42.67713" lon="18.15345">
        <ele>395.396091</ele>
        <time>2022-06-10T09:49:23.715Z</time>
      </trkpt>
      <trkpt lat="42.67721" lon="18.15333">
        <ele>395.375895</ele>
        <time>2022-06-10T09:49:26.709Z</time>
      </trkpt>
      <trkpt lat="42.6773" lon="18.1532">
        <ele>395.221407</ele>
        <time>2022-06-10T09:49:29.707Z</time>
      </trkpt>
      <trkpt lat="42.67738" lon="18.15308">
        <ele>395.071496</ele>
        <time>2022-06-10T09:49:32.720Z</time>
      </trkpt>
      <trkpt lat="42.67745" lon="18.15296">
        <ele>394.933874</ele>
        <time>2022-06-10T09:49:35.719Z</time>
      </trkpt>
      <trkpt lat="42.67753" lon="18.15284">
        <ele>394.790184</ele>
        <time>2022-06-10T09:49:38.747Z</time>
      </trkpt>
      <trkpt lat="42.67762" lon="18.15272">
        <ele>394.645346</ele>
        <time>2022-06-10T09:49:41.719Z</time>
      </trkpt>
      <trkpt lat="42.6777" lon="18.1526">
        <ele>394.498844</ele>
        <time>2022-06-10T09:49:44.703Z</time>
      </trkpt>
      <trkpt lat="42.67778" lon="18.15247">
        <ele>394.353491</ele>
        <time>2022-06-10T09:49:47.695Z</time>
      </trkpt>
      <trkpt lat="42.67785" lon="18.15235">
        <ele>394.219535</ele>
        <time>2022-06-10T09:49:50.723Z</time>
      </trkpt>
      <trkpt lat="42.67793" lon="18.15223">
        <ele>394.075039</ele>
        <time>2022-06-10T09:49:53.701Z</time>
      </trkpt>
      <trkpt lat="42.67801" lon="18.15211">
        <ele>393.924853</ele>
        <time>2022-06-10T09:49:56.733Z</time>
      </trkpt>
      <trkpt lat="42.67809" lon="18.15197">
        <ele>393.774629</ele>
        <time>2022-06-10T09:49:59.711Z</time>
      </trkpt>
      <trkpt lat="42.67817" lon="18.15185">
        <ele>393.625384</ele>
        <time>2022-06-10T09:50:02.746Z</time>
      </trkpt>
      <trkpt lat="42.67826" lon="18.15172">
        <ele>393.475474</ele>
        <time>2022-06-10T09:50:05.714Z</time>
      </trkpt>
      <trkpt lat="42.67833" lon="18.15159">
        <ele>393.329925</ele>
        <time>2022-06-10T09:50:08.740Z</time>
      </trkpt>
      <trkpt lat="42.67841" lon="18.15147">
        <ele>393.30069</ele>
        <time>2022-06-10T09:50:11.714Z</time>
      </trkpt>
      <trkpt lat="42.6785" lon="18.15136">
        <ele>393.289863</ele>
        <time>2022-06-10T09:50:14.743Z</time>
      </trkpt>
      <trkpt lat="42.67859" lon="18.15125">
        <ele>393.279544</ele>
        <time>2022-06-10T09:50:17.716Z</time>
      </trkpt>
      <trkpt lat="42.67869" lon="18.15116">
        <ele>393.268589</ele>
        <time>2022-06-10T09:50:20.712Z</time>
      </trkpt>
      <trkpt lat="42.67878" lon="18.15108">
        <ele>393.259292</ele>
        <time>2022-06-10T09:50:23.706Z</time>
      </trkpt>
      <trkpt lat="42.67888" lon="18.15101">
        <ele>393.249517</ele>
        <time>2022-06-10T09:50:26.695Z</time>
      </trkpt>
      <trkpt lat="42.67899" lon="18.15097">
        <ele>393.238625</ele>
        <time>2022-06-10T09:50:29.741Z</time>
      </trkpt>
      <trkpt lat="42.67911" lon="18.15093">
        <ele>393.227818</ele>
        <time>2022-06-10T09:50:32.706Z</time>
      </trkpt>
      <trkpt lat="42.67922" lon="18.1509">
        <ele>393.218034</ele>
        <time>2022-06-10T09:50:35.724Z</time>
      </trkpt>
      <trkpt lat="42.67933" lon="18.1509">
        <ele>393.208169</ele>
        <time>2022-06-10T09:50:38.715Z</time>
      </trkpt>
      <trkpt lat="42.67946" lon="18.15094">
        <ele>393.196639</ele>
        <time>2022-06-10T09:50:41.696Z</time>
      </trkpt>
      <trkpt lat="42.67958" lon="18.15098">
        <ele>393.18547</ele>
        <time>2022-06-10T09:50:44.700Z</time>
      </trkpt>
      <trkpt lat="42.6797" lon="18.151">
        <ele>393.174716</ele>
        <time>2022-06-10T09:50:47.701Z</time>
      </trkpt>
      <trkpt lat="42.67982" lon="18.15103">
        <ele>393.163574</ele>
        <time>2022-06-10T09:50:50.719Z</time>
      </trkpt>
      <trkpt lat="42.67995" lon="18.15107">
        <ele>393.151901</ele>
        <time>2022-06-10T09:50:53.729Z</time>
      </trkpt>
      <trkpt lat="42.68007" lon="18.15111">
        <ele>393.240722</ele>
        <time>2022-06-10T09:50:56.729Z</time>
      </trkpt>
      <trkpt lat="42.68018" lon="18.15114">
        <ele>393.345852</ele>
        <time>2022-06-10T09:50:59.764Z</time>
      </trkpt>
      <trkpt lat="42.68029" lon="18.15117">
        <ele>393.455532</ele>
        <time>2022-06-10T09:51:02.756Z</time>
      </trkpt>
      <trkpt lat="42.68041" lon="18.15121">
        <ele>393.565707</ele>
        <time>2022-06-10T09:51:05.702Z</time>
      </trkpt>
      <trkpt lat="42.68051" lon="18.15123">
        <ele>393.659549</ele>
        <time>2022-06-10T09:51:08.703Z</time>
      </trkpt>
      <trkpt lat="42.68061" lon="18.15127">
        <ele>393.760089</ele>
        <time>2022-06-10T09:51:12.700Z</time>
      </trkpt>
      <trkpt lat="42.68071" lon="18.1513">
        <ele>393.857205</ele>
        <time>2022-06-10T09:51:15.718Z</time>
      </trkpt>
      <trkpt lat="42.68082" lon="18.15134">
        <ele>393.957354</ele>
        <time>2022-06-10T09:51:18.706Z</time>
      </trkpt>
      <trkpt lat="42.68092" lon="18.15138">
        <ele>394.052859</ele>
        <time>2022-06-10T09:51:21.708Z</time>
      </trkpt>
      <trkpt lat="42.681" lon="18.15142">
        <ele>394.138701</ele>
        <time>2022-06-10T09:51:24.720Z</time>
      </trkpt>
      <trkpt lat="42.68112" lon="18.15146">
        <ele>394.249853</ele>
        <time>2022-06-10T09:51:27.733Z</time>
      </trkpt>
      <trkpt lat="42.68121" lon="18.15149">
        <ele>394.337451</ele>
        <time>2022-06-10T09:51:29.688Z</time>
      </trkpt>
      <trkpt lat="42.68133" lon="18.15152">
        <ele>394.452874</ele>
        <time>2022-06-10T09:51:32.686Z</time>
      </trkpt>
      <trkpt lat="42.68146" lon="18.15155">
        <ele>394.573375</ele>
        <time>2022-06-10T09:51:35.704Z</time>
      </trkpt>
      <trkpt lat="42.68159" lon="18.15158">
        <ele>394.693616</ele>
        <time>2022-06-10T09:51:38.708Z</time>
      </trkpt>
      <trkpt lat="42.68169" lon="18.15159">
        <ele>394.790313</ele>
        <time>2022-06-10T09:51:40.716Z</time>
      </trkpt>
      <trkpt lat="42.68182" lon="18.1516">
        <ele>394.645845</ele>
        <time>2022-06-10T09:51:42.716Z</time>
      </trkpt>
      <trkpt lat="42.68194" lon="18.15159">
        <ele>394.412788</ele>
        <time>2022-06-10T09:51:44.731Z</time>
      </trkpt>
      <trkpt lat="42.68204" lon="18.15158">
        <ele>394.206767</ele>
        <time>2022-06-10T09:51:46.724Z</time>
      </trkpt>
      <trkpt lat="42.68213" lon="18.15156">
        <ele>394.028112</ele>
        <time>2022-06-10T09:51:48.715Z</time>
      </trkpt>
      <trkpt lat="42.68226" lon="18.15151">
        <ele>393.767201</ele>
        <time>2022-06-10T09:51:51.725Z</time>
      </trkpt>
      <trkpt lat="42.68238" lon="18.15145">
        <ele>393.50628</ele>
        <time>2022-06-10T09:51:54.702Z</time>
      </trkpt>
      <trkpt lat="42.6825" lon="18.15138">
        <ele>393.247155</ele>
        <time>2022-06-10T09:51:57.690Z</time>
      </trkpt>
      <trkpt lat="42.6826" lon="18.15129">
        <ele>393.011451</ele>
        <time>2022-06-10T09:52:00.729Z</time>
      </trkpt>
      <trkpt lat="42.6827" lon="18.15119">
        <ele>392.768419</ele>
        <time>2022-06-10T09:52:03.710Z</time>
      </trkpt>
      <trkpt lat="42.68279" lon="18.15108">
        <ele>392.523105</ele>
        <time>2022-06-10T09:52:06.716Z</time>
      </trkpt>
      <trkpt lat="42.68289" lon="18.15096">
        <ele>392.264627</ele>
        <time>2022-06-10T09:52:09.710Z</time>
      </trkpt>
      <trkpt lat="42.68297" lon="18.15082">
        <ele>392.004629</ele>
        <time>2022-06-10T09:52:12.740Z</time>
      </trkpt>
      <trkpt lat="42.68302" lon="18.15071">
        <ele>391.824664</ele>
        <time>2022-06-10T09:52:14.714Z</time>
      </trkpt>
      <trkpt lat="42.68307" lon="18.1506">
        <ele>391.643911</ele>
        <time>2022-06-10T09:52:16.739Z</time>
      </trkpt>
      <trkpt lat="42.68311" lon="18.15043">
        <ele>391.37474</ele>
        <time>2022-06-10T09:52:19.718Z</time>
      </trkpt>
      <trkpt lat="42.68314" lon="18.15031">
        <ele>391.225996</ele>
        <time>2022-06-10T09:52:21.704Z</time>
      </trkpt>
      <trkpt lat="42.68317" lon="18.15018">
        <ele>391.123443</ele>
        <time>2022-06-10T09:52:23.705Z</time>
      </trkpt>
      <trkpt lat="42.68319" lon="18.15005">
        <ele>391.018913</ele>
        <time>2022-06-10T09:52:25.721Z</time>
      </trkpt>
      <trkpt lat="42.68322" lon="18.14992">
        <ele>390.912628</ele>
        <time>2022-06-10T09:52:27.702Z</time>
      </trkpt>
      <trkpt lat="42.68324" lon="18.14978">
        <ele>390.806664</ele>
        <time>2022-06-10T09:52:29.706Z</time>
      </trkpt>
      <trkpt lat="42.68325" lon="18.14965">
        <ele>390.701655</ele>
        <time>2022-06-10T09:52:31.726Z</time>
      </trkpt>
      <trkpt lat="42.68326" lon="18.14951">
        <ele>390.595101</ele>
        <time>2022-06-10T09:52:33.693Z</time>
      </trkpt>
      <trkpt lat="42.68327" lon="18.14937">
        <ele>390.487775</ele>
        <time>2022-06-10T09:52:35.730Z</time>
      </trkpt>
      <trkpt lat="42.68328" lon="18.14924">
        <ele>390.381222</ele>
        <time>2022-06-10T09:52:37.718Z</time>
      </trkpt>
      <trkpt lat="42.6833" lon="18.1491">
        <ele>390.269711</ele>
        <time>2022-06-10T09:52:39.718Z</time>
      </trkpt>
      <trkpt lat="42.68332" lon="18.14896">
        <ele>390.160085</ele>
        <time>2022-06-10T09:52:41.707Z</time>
      </trkpt>
      <trkpt lat="42.68334" lon="18.14882">
        <ele>390.048574</ele>
        <time>2022-06-10T09:52:43.718Z</time>
      </trkpt>
      <trkpt lat="42.68336" lon="18.14868">
        <ele>389.938665</ele>
        <time>2022-06-10T09:52:45.718Z</time>
      </trkpt>
      <trkpt lat="42.68337" lon="18.14855">
        <ele>389.836607</ele>
        <time>2022-06-10T09:52:47.712Z</time>
      </trkpt>
      <trkpt lat="42.68339" lon="18.14841">
        <ele>389.728699</ele>
        <time>2022-06-10T09:52:49.726Z</time>
      </trkpt>
      <trkpt lat="42.6834" lon="18.14827">
        <ele>389.621373</ele>
        <time>2022-06-10T09:52:51.700Z</time>
      </trkpt>
      <trkpt lat="42.68341" lon="18.14814">
        <ele>389.515241</ele>
        <time>2022-06-10T09:52:53.722Z</time>
      </trkpt>
      <trkpt lat="42.68342" lon="18.14801">
        <ele>389.413183</ele>
        <time>2022-06-10T09:52:55.717Z</time>
      </trkpt>
      <trkpt lat="42.68343" lon="18.14788">
        <ele>389.334178</ele>
        <time>2022-06-10T09:52:57.715Z</time>
      </trkpt>
      <trkpt lat="42.68345" lon="18.14775">
        <ele>389.270455</ele>
        <time>2022-06-10T09:52:59.719Z</time>
      </trkpt>
      <trkpt lat="42.68347" lon="18.14762">
        <ele>389.205357</ele>
        <time>2022-06-10T09:53:01.699Z</time>
      </trkpt>
      <trkpt lat="42.6835" lon="18.1475">
        <ele>389.141859</ele>
        <time>2022-06-10T09:53:03.684Z</time>
      </trkpt>
      <trkpt lat="42.68353" lon="18.14737">
        <ele>389.077268</ele>
        <time>2022-06-10T09:53:05.708Z</time>
      </trkpt>
      <trkpt lat="42.68357" lon="18.14725">
        <ele>389.014746</ele>
        <time>2022-06-10T09:53:07.720Z</time>
      </trkpt>
      <trkpt lat="42.68361" lon="18.14713">
        <ele>388.95072</ele>
        <time>2022-06-10T09:53:09.753Z</time>
      </trkpt>
      <trkpt lat="42.68364" lon="18.14702">
        <ele>388.889193</ele>
        <time>2022-06-10T09:53:11.700Z</time>
      </trkpt>
      <trkpt lat="42.68369" lon="18.14691">
        <ele>388.827336</ele>
        <time>2022-06-10T09:53:13.707Z</time>
      </trkpt>
      <trkpt lat="42.68376" lon="18.14676">
        <ele>388.739454</ele>
        <time>2022-06-10T09:53:16.721Z</time>
      </trkpt>
      <trkpt lat="42.68383" lon="18.14661">
        <ele>388.657884</ele>
        <time>2022-06-10T09:53:19.714Z</time>
      </trkpt>
      <trkpt lat="42.68389" lon="18.14652">
        <ele>388.596528</ele>
        <time>2022-06-10T09:53:23.701Z</time>
      </trkpt>
      <trkpt lat="42.68399" lon="18.14633">
        <ele>388.484825</ele>
        <time>2022-06-10T09:56:17.720Z</time>
      </trkpt>
      <trkpt lat="42.68406" lon="18.1462">
        <ele>388.404184</ele>
        <time>2022-06-10T09:56:21.709Z</time>
      </trkpt>
      <trkpt lat="42.68413" lon="18.14611">
        <ele>388.337938</ele>
        <time>2022-06-10T09:56:24.703Z</time>
      </trkpt>
      <trkpt lat="42.68421" lon="18.14601">
        <ele>388.265299</ele>
        <time>2022-06-10T09:56:27.702Z</time>
      </trkpt>
      <trkpt lat="42.6843" lon="18.14591">
        <ele>388.188466</ele>
        <time>2022-06-10T09:56:30.698Z</time>
      </trkpt>
      <trkpt lat="42.6844" lon="18.14581">
        <ele>387.924402</ele>
        <time>2022-06-10T09:56:33.746Z</time>
      </trkpt>
      <trkpt lat="42.6845" lon="18.14572">
        <ele>387.618757</ele>
        <time>2022-06-10T09:56:36.720Z</time>
      </trkpt>
      <trkpt lat="42.68461" lon="18.14564">
        <ele>387.307383</ele>
        <time>2022-06-10T09:56:39.723Z</time>
      </trkpt>
      <trkpt lat="42.68473" lon="18.14557">
        <ele>386.984565</ele>
        <time>2022-06-10T09:56:42.712Z</time>
      </trkpt>
      <trkpt lat="42.68485" lon="18.1455">
        <ele>386.659549</ele>
        <time>2022-06-10T09:56:45.719Z</time>
      </trkpt>
      <trkpt lat="42.68497" lon="18.14543">
        <ele>386.335569</ele>
        <time>2022-06-10T09:56:48.676Z</time>
      </trkpt>
      <trkpt lat="42.68509" lon="18.14537">
        <ele>386.004164</ele>
        <time>2022-06-10T09:56:51.682Z</time>
      </trkpt>
      <trkpt lat="42.68521" lon="18.1453">
        <ele>385.675146</ele>
        <time>2022-06-10T09:56:54.677Z</time>
      </trkpt>
      <trkpt lat="42.68533" lon="18.14524">
        <ele>385.352816</ele>
        <time>2022-06-10T09:56:57.698Z</time>
      </trkpt>
      <trkpt lat="42.68546" lon="18.14518">
        <ele>385.029696</ele>
        <time>2022-06-10T09:57:00.680Z</time>
      </trkpt>
      <trkpt lat="42.68558" lon="18.14514">
        <ele>384.705516</ele>
        <time>2022-06-10T09:57:03.691Z</time>
      </trkpt>
      <trkpt lat="42.68567" lon="18.14511">
        <ele>384.477639</ele>
        <time>2022-06-10T09:57:05.701Z</time>
      </trkpt>
      <trkpt lat="42.68577" lon="18.1451">
        <ele>384.239176</ele>
        <time>2022-06-10T09:57:07.689Z</time>
      </trkpt>
      <trkpt lat="42.68586" lon="18.14509">
        <ele>384.006629</ele>
        <time>2022-06-10T09:57:09.692Z</time>
      </trkpt>
      <trkpt lat="42.68595" lon="18.14509">
        <ele>383.771934</ele>
        <time>2022-06-10T09:57:11.688Z</time>
      </trkpt>
      <trkpt lat="42.68605" lon="18.14509">
        <ele>383.548295</ele>
        <time>2022-06-10T09:57:13.687Z</time>
      </trkpt>
      <trkpt lat="42.68615" lon="18.1451">
        <ele>383.32443</ele>
        <time>2022-06-10T09:57:15.681Z</time>
      </trkpt>
      <trkpt lat="42.68624" lon="18.14512">
        <ele>383.111223</ele>
        <time>2022-06-10T09:57:17.679Z</time>
      </trkpt>
      <trkpt lat="42.68633" lon="18.14513">
        <ele>382.897597</ele>
        <time>2022-06-10T09:57:19.696Z</time>
      </trkpt>
      <trkpt lat="42.68643" lon="18.14516">
        <ele>382.669623</ele>
        <time>2022-06-10T09:57:21.686Z</time>
      </trkpt>
      <trkpt lat="42.68653" lon="18.14519">
        <ele>382.442781</ele>
        <time>2022-06-10T09:57:23.721Z</time>
      </trkpt>
      <trkpt lat="42.68662" lon="18.14523">
        <ele>382.220217</ele>
        <time>2022-06-10T09:57:25.695Z</time>
      </trkpt>
      <trkpt lat="42.68671" lon="18.14529">
        <ele>381.992765</ele>
        <time>2022-06-10T09:57:27.686Z</time>
      </trkpt>
      <trkpt lat="42.6868" lon="18.14534">
        <ele>381.767407</ele>
        <time>2022-06-10T09:57:29.684Z</time>
      </trkpt>
      <trkpt lat="42.68689" lon="18.1454">
        <ele>381.546605</ele>
        <time>2022-06-10T09:57:31.698Z</time>
      </trkpt>
      <trkpt lat="42.68697" lon="18.14546">
        <ele>381.327422</ele>
        <time>2022-06-10T09:57:33.686Z</time>
      </trkpt>
      <trkpt lat="42.68706" lon="18.14553">
        <ele>381.10263</ele>
        <time>2022-06-10T09:57:35.691Z</time>
      </trkpt>
      <trkpt lat="42.68715" lon="18.14559">
        <ele>380.877782</ele>
        <time>2022-06-10T09:57:37.693Z</time>
      </trkpt>
      <trkpt lat="42.68723" lon="18.14565">
        <ele>380.654959</ele>
        <time>2022-06-10T09:57:39.678Z</time>
      </trkpt>
      <trkpt lat="42.68732" lon="18.14571">
        <ele>380.433379</ele>
        <time>2022-06-10T09:57:41.699Z</time>
      </trkpt>
      <trkpt lat="42.6874" lon="18.14577">
        <ele>380.221869</ele>
        <time>2022-06-10T09:57:43.674Z</time>
      </trkpt>
      <trkpt lat="42.68749" lon="18.14582">
        <ele>380.015215</ele>
        <time>2022-06-10T09:57:45.676Z</time>
      </trkpt>
      <trkpt lat="42.68757" lon="18.14586">
        <ele>379.807194</ele>
        <time>2022-06-10T09:57:47.680Z</time>
      </trkpt>
      <trkpt lat="42.68766" lon="18.1459">
        <ele>379.601849</ele>
        <time>2022-06-10T09:57:49.694Z</time>
      </trkpt>
      <trkpt lat="42.68775" lon="18.14593">
        <ele>379.527804</ele>
        <time>2022-06-10T09:57:51.684Z</time>
      </trkpt>
      <trkpt lat="42.68784" lon="18.14595">
        <ele>379.45721</ele>
        <time>2022-06-10T09:57:53.688Z</time>
      </trkpt>
      <trkpt lat="42.68794" lon="18.14595">
        <ele>379.385797</ele>
        <time>2022-06-10T09:57:55.698Z</time>
      </trkpt>
      <trkpt lat="42.68803" lon="18.14594">
        <ele>379.31573</ele>
        <time>2022-06-10T09:57:57.685Z</time>
      </trkpt>
      <trkpt lat="42.68812" lon="18.14592">
        <ele>379.243045</ele>
        <time>2022-06-10T09:57:59.677Z</time>
      </trkpt>
      <trkpt lat="42.68822" lon="18.1459">
        <ele>379.167909</ele>
        <time>2022-06-10T09:58:01.696Z</time>
      </trkpt>
      <trkpt lat="42.68833" lon="18.14587">
        <ele>379.087527</ele>
        <time>2022-06-10T09:58:03.691Z</time>
      </trkpt>
      <trkpt lat="42.68843" lon="18.14583">
        <ele>379.007596</ele>
        <time>2022-06-10T09:58:05.740Z</time>
      </trkpt>
      <trkpt lat="42.68853" lon="18.14578">
        <ele>378.930578</ele>
        <time>2022-06-10T09:58:07.691Z</time>
      </trkpt>
      <trkpt lat="42.68861" lon="18.14573">
        <ele>378.858029</ele>
        <time>2022-06-10T09:58:09.692Z</time>
      </trkpt>
      <trkpt lat="42.68873" lon="18.14565">
        <ele>378.757531</ele>
        <time>2022-06-10T09:58:12.690Z</time>
      </trkpt>
      <trkpt lat="42.68883" lon="18.14556">
        <ele>378.667693</ele>
        <time>2022-06-10T09:58:15.692Z</time>
      </trkpt>
      <trkpt lat="42.68894" lon="18.14546">
        <ele>378.573163</ele>
        <time>2022-06-10T09:58:18.672Z</time>
      </trkpt>
      <trkpt lat="42.68904" lon="18.14536">
        <ele>378.479645</ele>
        <time>2022-06-10T09:58:21.700Z</time>
      </trkpt>
      <trkpt lat="42.68912" lon="18.14531">
        <ele>378.410939</ele>
        <time>2022-06-10T09:58:23.679Z</time>
      </trkpt>
      <trkpt lat="42.68921" lon="18.14526">
        <ele>378.338174</ele>
        <time>2022-06-10T09:58:25.684Z</time>
      </trkpt>
      <trkpt lat="42.68931" lon="18.14523">
        <ele>378.262896</ele>
        <time>2022-06-10T09:58:27.750Z</time>
      </trkpt>
      <trkpt lat="42.6894" lon="18.14521">
        <ele>378.091266</ele>
        <time>2022-06-10T09:58:29.702Z</time>
      </trkpt>
      <trkpt lat="42.68953" lon="18.14518">
        <ele>377.775703</ele>
        <time>2022-06-10T09:58:32.700Z</time>
      </trkpt>
      <trkpt lat="42.68966" lon="18.14517">
        <ele>377.471049</ele>
        <time>2022-06-10T09:58:35.716Z</time>
      </trkpt>
      <trkpt lat="42.68978" lon="18.14518">
        <ele>377.183099</ele>
        <time>2022-06-10T09:58:38.742Z</time>
      </trkpt>
      <trkpt lat="42.68991" lon="18.14521">
        <ele>376.859979</ele>
        <time>2022-06-10T09:58:41.695Z</time>
      </trkpt>
      <trkpt lat="42.69" lon="18.14526">
        <ele>376.636458</ele>
        <time>2022-06-10T09:58:43.707Z</time>
      </trkpt>
      <trkpt lat="42.69009" lon="18.14531">
        <ele>376.400257</ele>
        <time>2022-06-10T09:58:45.703Z</time>
      </trkpt>
      <trkpt lat="42.69018" lon="18.14537">
        <ele>376.162791</ele>
        <time>2022-06-10T09:58:47.717Z</time>
      </trkpt>
      <trkpt lat="42.69027" lon="18.14544">
        <ele>375.927803</ele>
        <time>2022-06-10T09:58:49.747Z</time>
      </trkpt>
      <trkpt lat="42.69034" lon="18.14552">
        <ele>375.692043</ele>
        <time>2022-06-10T09:58:51.723Z</time>
      </trkpt>
      <trkpt lat="42.69042" lon="18.14561">
        <ele>375.458125</ele>
        <time>2022-06-10T09:58:53.713Z</time>
      </trkpt>
      <trkpt lat="42.69048" lon="18.1457">
        <ele>375.229678</ele>
        <time>2022-06-10T09:58:55.713Z</time>
      </trkpt>
      <trkpt lat="42.69054" lon="18.14581">
        <ele>374.997321</ele>
        <time>2022-06-10T09:58:57.740Z</time>
      </trkpt>
      <trkpt lat="42.6906" lon="18.14592">
        <ele>374.761925</ele>
        <time>2022-06-10T09:58:59.716Z</time>
      </trkpt>
      <trkpt lat="42.69065" lon="18.14604">
        <ele>374.529625</ele>
        <time>2022-06-10T09:59:01.715Z</time>
      </trkpt>
      <trkpt lat="42.6907" lon="18.14615">
        <ele>374.297889</ele>
        <time>2022-06-10T09:59:03.703Z</time>
      </trkpt>
      <trkpt lat="42.69075" lon="18.14627">
        <ele>374.058947</ele>
        <time>2022-06-10T09:59:05.732Z</time>
      </trkpt>
      <trkpt lat="42.6908" lon="18.14639">
        <ele>373.883679</ele>
        <time>2022-06-10T09:59:07.724Z</time>
      </trkpt>
      <trkpt lat="42.69085" lon="18.14651">
        <ele>373.747085</ele>
        <time>2022-06-10T09:59:09.714Z</time>
      </trkpt>
      <trkpt lat="42.6909" lon="18.14664">
        <ele>373.606427</ele>
        <time>2022-06-10T09:59:11.705Z</time>
      </trkpt>
      <trkpt lat="42.69095" lon="18.14676">
        <ele>373.468317</ele>
        <time>2022-06-10T09:59:13.707Z</time>
      </trkpt>
      <trkpt lat="42.69099" lon="18.14688">
        <ele>373.335781</ele>
        <time>2022-06-10T09:59:15.711Z</time>
      </trkpt>
      <trkpt lat="42.69104" lon="18.147">
        <ele>373.204727</ele>
        <time>2022-06-10T09:59:17.705Z</time>
      </trkpt>
      <trkpt lat="42.69109" lon="18.14717">
        <ele>373.023187</ele>
        <time>2022-06-10T09:59:20.711Z</time>
      </trkpt>
      <trkpt lat="42.69113" lon="18.1473">
        <ele>372.888975</ele>
        <time>2022-06-10T09:59:22.715Z</time>
      </trkpt>
      <trkpt lat="42.69115" lon="18.14743">
        <ele>372.751926</ele>
        <time>2022-06-10T09:59:24.689Z</time>
      </trkpt>
      <trkpt lat="42.69116" lon="18.14757">
        <ele>372.621975</ele>
        <time>2022-06-10T09:59:26.728Z</time>
      </trkpt>
      <trkpt lat="42.69117" lon="18.1477">
        <ele>372.488553</ele>
        <time>2022-06-10T09:59:28.694Z</time>
      </trkpt>
      <trkpt lat="42.69117" lon="18.14784">
        <ele>372.350062</ele>
        <time>2022-06-10T09:59:30.716Z</time>
      </trkpt>
      <trkpt lat="42.69117" lon="18.14798">
        <ele>372.215735</ele>
        <time>2022-06-10T09:59:32.704Z</time>
      </trkpt>
      <trkpt lat="42.69116" lon="18.14812">
        <ele>372.080272</ele>
        <time>2022-06-10T09:59:34.716Z</time>
      </trkpt>
      <trkpt lat="42.69116" lon="18.14825">
        <ele>371.947082</ele>
        <time>2022-06-10T09:59:36.706Z</time>
      </trkpt>
      <trkpt lat="42.69117" lon="18.14839">
        <ele>371.813792</ele>
        <time>2022-06-10T09:59:38.700Z</time>
      </trkpt>
      <trkpt lat="42.69117" lon="18.14853">
        <ele>371.681582</ele>
        <time>2022-06-10T09:59:40.699Z</time>
      </trkpt>
      <trkpt lat="42.69117" lon="18.14867">
        <ele>371.515867</ele>
        <time>2022-06-10T09:59:42.718Z</time>
      </trkpt>
      <trkpt lat="42.69117" lon="18.14881">
        <ele>371.25759</ele>
        <time>2022-06-10T09:59:44.705Z</time>
      </trkpt>
      <trkpt lat="42.69117" lon="18.14894">
        <ele>371.012238</ele>
        <time>2022-06-10T09:59:46.709Z</time>
      </trkpt>
      <trkpt lat="42.69116" lon="18.14907">
        <ele>370.776276</ele>
        <time>2022-06-10T09:59:48.704Z</time>
      </trkpt>
      <trkpt lat="42.69116" lon="18.1492">
        <ele>370.54922</ele>
        <time>2022-06-10T09:59:50.720Z</time>
      </trkpt>
      <trkpt lat="42.69123" lon="18.14935">
        <ele>370.223893</ele>
        <time>2022-06-10T09:59:53.701Z</time>
      </trkpt>
      <trkpt lat="42.6913" lon="18.14942">
        <ele>369.996884</ele>
        <time>2022-06-10T09:59:55.710Z</time>
      </trkpt>
      <trkpt lat="42.6914" lon="18.14943">
        <ele>369.739886</ele>
        <time>2022-06-10T09:59:57.818Z</time>
      </trkpt>
      <trkpt lat="42.69148" lon="18.14934">
        <ele>369.490091</ele>
        <time>2022-06-10T09:59:59.707Z</time>
      </trkpt>
      <trkpt lat="42.69151" lon="18.1492">
        <ele>369.228351</ele>
        <time>2022-06-10T10:00:01.706Z</time>
      </trkpt>
      <trkpt lat="42.69154" lon="18.14907">
        <ele>368.965329</ele>
        <time>2022-06-10T10:00:03.751Z</time>
      </trkpt>
      <trkpt lat="42.69165" lon="18.14898">
        <ele>368.641497</ele>
        <time>2022-06-10T10:00:06.696Z</time>
      </trkpt>
      <trkpt lat="42.69177" lon="18.14904">
        <ele>368.324717</ele>
        <time>2022-06-10T10:00:08.715Z</time>
      </trkpt>
      <trkpt lat="42.69188" lon="18.14912">
        <ele>368.034135</ele>
        <time>2022-06-10T10:00:10.706Z</time>
      </trkpt>
      <trkpt lat="42.69199" lon="18.1491">
        <ele>367.736922</ele>
        <time>2022-06-10T10:00:12.719Z</time>
      </trkpt>
      <trkpt lat="42.69209" lon="18.14899">
        <ele>367.42196</ele>
        <time>2022-06-10T10:00:14.716Z</time>
      </trkpt>
      <trkpt lat="42.69217" lon="18.14889">
        <ele>367.147587</ele>
        <time>2022-06-10T10:00:16.720Z</time>
      </trkpt>
      <trkpt lat="42.69225" lon="18.14879">
        <ele>366.748955</ele>
        <time>2022-06-10T10:00:18.718Z</time>
      </trkpt>
      <trkpt lat="42.69232" lon="18.1487">
        <ele>366.314448</ele>
        <time>2022-06-10T10:00:20.742Z</time>
      </trkpt>
      <trkpt lat="42.69239" lon="18.1486">
        <ele>365.888372</ele>
        <time>2022-06-10T10:00:22.704Z</time>
      </trkpt>
      <trkpt lat="42.69246" lon="18.1485">
        <ele>365.453338</ele>
        <time>2022-06-10T10:00:24.698Z</time>
      </trkpt>
      <trkpt lat="42.69254" lon="18.1484">
        <ele>364.985898</ele>
        <time>2022-06-10T10:00:26.712Z</time>
      </trkpt>
      <trkpt lat="42.69262" lon="18.14828">
        <ele>364.471642</ele>
        <time>2022-06-10T10:00:28.687Z</time>
      </trkpt>
      <trkpt lat="42.69272" lon="18.14818">
        <ele>363.938989</ele>
        <time>2022-06-10T10:00:30.707Z</time>
      </trkpt>
      <trkpt lat="42.69285" lon="18.1481">
        <ele>363.338337</ele>
        <time>2022-06-10T10:00:32.702Z</time>
      </trkpt>
      <trkpt lat="42.69299" lon="18.14804">
        <ele>362.704742</ele>
        <time>2022-06-10T10:00:34.712Z</time>
      </trkpt>
      <trkpt lat="42.69313" lon="18.14802">
        <ele>362.079925</ele>
        <time>2022-06-10T10:00:36.711Z</time>
      </trkpt>
      <trkpt lat="42.69328" lon="18.14801">
        <ele>361.460466</ele>
        <time>2022-06-10T10:00:38.751Z</time>
      </trkpt>
      <trkpt lat="42.69341" lon="18.14799">
        <ele>360.86245</ele>
        <time>2022-06-10T10:00:40.714Z</time>
      </trkpt>
      <trkpt lat="42.69354" lon="18.14792">
        <ele>360.273673</ele>
        <time>2022-06-10T10:00:42.750Z</time>
      </trkpt>
      <trkpt lat="42.69367" lon="18.14784">
        <ele>359.668748</ele>
        <time>2022-06-10T10:00:44.730Z</time>
      </trkpt>
      <trkpt lat="42.69379" lon="18.14774">
        <ele>358.975546</ele>
        <time>2022-06-10T10:00:46.700Z</time>
      </trkpt>
      <trkpt lat="42.69388" lon="18.14762">
        <ele>358.247645</ele>
        <time>2022-06-10T10:00:48.708Z</time>
      </trkpt>
      <trkpt lat="42.69397" lon="18.14747">
        <ele>357.455625</ele>
        <time>2022-06-10T10:00:50.709Z</time>
      </trkpt>
      <trkpt lat="42.69407" lon="18.14732">
        <ele>356.612005</ele>
        <time>2022-06-10T10:00:52.720Z</time>
      </trkpt>
      <trkpt lat="42.69417" lon="18.14717">
        <ele>355.827345</ele>
        <time>2022-06-10T10:00:54.762Z</time>
      </trkpt>
      <trkpt lat="42.69427" lon="18.14704">
        <ele>355.063433</ele>
        <time>2022-06-10T10:00:56.720Z</time>
      </trkpt>
      <trkpt lat="42.69438" lon="18.14693">
        <ele>354.310466</ele>
        <time>2022-06-10T10:00:58.723Z</time>
      </trkpt>
      <trkpt lat="42.69449" lon="18.14684">
        <ele>353.581075</ele>
        <time>2022-06-10T10:01:00.746Z</time>
      </trkpt>
      <trkpt lat="42.6946" lon="18.14676">
        <ele>352.879042</ele>
        <time>2022-06-10T10:01:02.705Z</time>
      </trkpt>
      <trkpt lat="42.6947" lon="18.14671">
        <ele>352.268204</ele>
        <time>2022-06-10T10:01:04.704Z</time>
      </trkpt>
      <trkpt lat="42.69481" lon="18.14669">
        <ele>351.64327</ele>
        <time>2022-06-10T10:01:06.714Z</time>
      </trkpt>
      <trkpt lat="42.69493" lon="18.14672">
        <ele>350.968526</ele>
        <time>2022-06-10T10:01:08.713Z</time>
      </trkpt>
      <trkpt lat="42.69505" lon="18.14679">
        <ele>350.222344</ele>
        <time>2022-06-10T10:01:10.713Z</time>
      </trkpt>
      <trkpt lat="42.69516" lon="18.14689">
        <ele>349.509194</ele>
        <time>2022-06-10T10:01:12.715Z</time>
      </trkpt>
      <trkpt lat="42.69524" lon="18.14701">
        <ele>349.138693</ele>
        <time>2022-06-10T10:01:14.699Z</time>
      </trkpt>
      <trkpt lat="42.6953" lon="18.14713">
        <ele>348.902356</ele>
        <time>2022-06-10T10:01:16.743Z</time>
      </trkpt>
      <trkpt lat="42.69537" lon="18.14725">
        <ele>348.68095</ele>
        <time>2022-06-10T10:01:18.705Z</time>
      </trkpt>
      <trkpt lat="42.69543" lon="18.14737">
        <ele>348.453206</ele>
        <time>2022-06-10T10:01:20.715Z</time>
      </trkpt>
      <trkpt lat="42.69549" lon="18.14749">
        <ele>348.220637</ele>
        <time>2022-06-10T10:01:22.737Z</time>
      </trkpt>
      <trkpt lat="42.69555" lon="18.14762">
        <ele>347.985317</ele>
        <time>2022-06-10T10:01:24.687Z</time>
      </trkpt>
      <trkpt lat="42.69561" lon="18.14774">
        <ele>347.762</ele>
        <time>2022-06-10T10:01:26.729Z</time>
      </trkpt>
      <trkpt lat="42.69567" lon="18.14786">
        <ele>347.545032</ele>
        <time>2022-06-10T10:01:28.711Z</time>
      </trkpt>
      <trkpt lat="42.69573" lon="18.14797">
        <ele>347.322997</ele>
        <time>2022-06-10T10:01:30.711Z</time>
      </trkpt>
      <trkpt lat="42.69583" lon="18.14808">
        <ele>347.069212</ele>
        <time>2022-06-10T10:01:32.716Z</time>
      </trkpt>
      <trkpt lat="42.69593" lon="18.14818">
        <ele>346.809358</ele>
        <time>2022-06-10T10:01:34.708Z</time>
      </trkpt>
      <trkpt lat="42.69603" lon="18.14829">
        <ele>346.540941</ele>
        <time>2022-06-10T10:01:36.710Z</time>
      </trkpt>
      <trkpt lat="42.6961" lon="18.14841">
        <ele>346.291366</ele>
        <time>2022-06-10T10:01:38.716Z</time>
      </trkpt>
      <trkpt lat="42.69616" lon="18.14855">
        <ele>346.049676</ele>
        <time>2022-06-10T10:01:40.754Z</time>
      </trkpt>
      <trkpt lat="42.6962" lon="18.14869">
        <ele>345.818331</ele>
        <time>2022-06-10T10:01:42.710Z</time>
      </trkpt>
      <trkpt lat="42.69624" lon="18.14881">
        <ele>345.612992</ele>
        <time>2022-06-10T10:01:44.724Z</time>
      </trkpt>
      <trkpt lat="42.69628" lon="18.14892">
        <ele>345.267346</ele>
        <time>2022-06-10T10:01:46.731Z</time>
      </trkpt>
      <trkpt lat="42.69633" lon="18.14907">
        <ele>344.660333</ele>
        <time>2022-06-10T10:01:49.704Z</time>
      </trkpt>
      <trkpt lat="42.69638" lon="18.1492">
        <ele>344.133087</ele>
        <time>2022-06-10T10:01:52.701Z</time>
      </trkpt>
      <trkpt lat="42.69642" lon="18.14933">
        <ele>343.639475</ele>
        <time>2022-06-10T10:01:55.727Z</time>
      </trkpt>
      <trkpt lat="42.69645" lon="18.14947">
        <ele>343.120542</ele>
        <time>2022-06-10T10:01:58.699Z</time>
      </trkpt>
      <trkpt lat="42.69649" lon="18.14962">
        <ele>342.549316</ele>
        <time>2022-06-10T10:02:01.725Z</time>
      </trkpt>
      <trkpt lat="42.69653" lon="18.14979">
        <ele>341.9185</ele>
        <time>2022-06-10T10:02:04.710Z</time>
      </trkpt>
      <trkpt lat="42.69656" lon="18.14991">
        <ele>341.465166</ele>
        <time>2022-06-10T10:02:06.719Z</time>
      </trkpt>
      <trkpt lat="42.69659" lon="18.15003">
        <ele>341.014788</ele>
        <time>2022-06-10T10:02:08.705Z</time>
      </trkpt>
      <trkpt lat="42.69662" lon="18.15014">
        <ele>340.550467</ele>
        <time>2022-06-10T10:02:10.697Z</time>
      </trkpt>
      <trkpt lat="42.69667" lon="18.15028">
        <ele>340.024368</ele>
        <time>2022-06-10T10:02:12.738Z</time>
      </trkpt>
      <trkpt lat="42.69671" lon="18.15044">
        <ele>339.409563</ele>
        <time>2022-06-10T10:02:14.732Z</time>
      </trkpt>
      <trkpt lat="42.69675" lon="18.15059">
        <ele>338.829615</ele>
        <time>2022-06-10T10:02:16.737Z</time>
      </trkpt>
      <trkpt lat="42.6968" lon="18.15073">
        <ele>338.275283</ele>
        <time>2022-06-10T10:02:18.741Z</time>
      </trkpt>
      <trkpt lat="42.69688" lon="18.15085">
        <ele>337.699797</ele>
        <time>2022-06-10T10:02:20.701Z</time>
      </trkpt>
      <trkpt lat="42.69697" lon="18.15096">
        <ele>337.108956</ele>
        <time>2022-06-10T10:02:22.714Z</time>
      </trkpt>
      <trkpt lat="42.69705" lon="18.15108">
        <ele>336.661329</ele>
        <time>2022-06-10T10:02:24.705Z</time>
      </trkpt>
      <trkpt lat="42.69713" lon="18.15118">
        <ele>336.459497</ele>
        <time>2022-06-10T10:02:26.713Z</time>
      </trkpt>
      <trkpt lat="42.69721" lon="18.15127">
        <ele>336.263659</ele>
        <time>2022-06-10T10:02:28.698Z</time>
      </trkpt>
      <trkpt lat="42.6973" lon="18.15136">
        <ele>336.058808</ele>
        <time>2022-06-10T10:02:30.722Z</time>
      </trkpt>
      <trkpt lat="42.69739" lon="18.15146">
        <ele>335.846558</ele>
        <time>2022-06-10T10:02:32.703Z</time>
      </trkpt>
      <trkpt lat="42.69747" lon="18.15154">
        <ele>335.659103</ele>
        <time>2022-06-10T10:02:34.704Z</time>
      </trkpt>
      <trkpt lat="42.69756" lon="18.15165">
        <ele>335.43322</ele>
        <time>2022-06-10T10:02:37.720Z</time>
      </trkpt>
      <trkpt lat="42.69764" lon="18.15174">
        <ele>335.224865</ele>
        <time>2022-06-10T10:02:40.730Z</time>
      </trkpt>
      <trkpt lat="42.69772" lon="18.15184">
        <ele>335.026346</ele>
        <time>2022-06-10T10:02:43.709Z</time>
      </trkpt>
      <trkpt lat="42.69781" lon="18.15193">
        <ele>334.808762</ele>
        <time>2022-06-10T10:02:46.704Z</time>
      </trkpt>
      <trkpt lat="42.6979" lon="18.15203">
        <ele>334.589658</ele>
        <time>2022-06-10T10:02:49.713Z</time>
      </trkpt>
      <trkpt lat="42.69799" lon="18.15213">
        <ele>334.375764</ele>
        <time>2022-06-10T10:02:52.704Z</time>
      </trkpt>
      <trkpt lat="42.69808" lon="18.15222">
        <ele>334.167974</ele>
        <time>2022-06-10T10:02:55.723Z</time>
      </trkpt>
      <trkpt lat="42.69816" lon="18.15231">
        <ele>333.979029</ele>
        <time>2022-06-10T10:02:58.731Z</time>
      </trkpt>
      <trkpt lat="42.69823" lon="18.1524">
        <ele>333.792621</ele>
        <time>2022-06-10T10:03:01.704Z</time>
      </trkpt>
      <trkpt lat="42.69831" lon="18.15249">
        <ele>333.603893</ele>
        <time>2022-06-10T10:03:04.714Z</time>
      </trkpt>
      <trkpt lat="42.69838" lon="18.15258">
        <ele>333.41736</ele>
        <time>2022-06-10T10:03:07.702Z</time>
      </trkpt>
      <trkpt lat="42.69846" lon="18.15264">
        <ele>333.397213</ele>
        <time>2022-06-10T10:03:10.720Z</time>
      </trkpt>
      <trkpt lat="42.69856" lon="18.15269">
        <ele>333.428179</ele>
        <time>2022-06-10T10:03:13.713Z</time>
      </trkpt>
      <trkpt lat="42.69867" lon="18.15273">
        <ele>333.463735</ele>
        <time>2022-06-10T10:03:16.740Z</time>
      </trkpt>
      <trkpt lat="42.6988" lon="18.15273">
        <ele>333.502112</ele>
        <time>2022-06-10T10:03:19.747Z</time>
      </trkpt>
      <trkpt lat="42.69893" lon="18.15275">
        <ele>333.542091</ele>
        <time>2022-06-10T10:03:22.755Z</time>
      </trkpt>
      <trkpt lat="42.69906" lon="18.15275">
        <ele>333.580122</ele>
        <time>2022-06-10T10:03:25.734Z</time>
      </trkpt>
      <trkpt lat="42.69918" lon="18.15273">
        <ele>333.617657</ele>
        <time>2022-06-10T10:03:28.695Z</time>
      </trkpt>
      <trkpt lat="42.6993" lon="18.15273">
        <ele>333.654808</ele>
        <time>2022-06-10T10:03:31.699Z</time>
      </trkpt>
      <trkpt lat="42.69943" lon="18.15272">
        <ele>333.692558</ele>
        <time>2022-06-10T10:03:34.717Z</time>
      </trkpt>
      <trkpt lat="42.69955" lon="18.15273">
        <ele>333.730631</ele>
        <time>2022-06-10T10:03:37.722Z</time>
      </trkpt>
      <trkpt lat="42.69967" lon="18.15274">
        <ele>333.765705</ele>
        <time>2022-06-10T10:03:40.706Z</time>
      </trkpt>
      <trkpt lat="42.69977" lon="18.15278">
        <ele>333.798356</ele>
        <time>2022-06-10T10:03:43.704Z</time>
      </trkpt>
      <trkpt lat="42.69984" lon="18.15288">
        <ele>333.828496</ele>
        <time>2022-06-10T10:03:46.713Z</time>
      </trkpt>
      <trkpt lat="42.69992" lon="18.15296">
        <ele>333.859994</ele>
        <time>2022-06-10T10:03:51.706Z</time>
      </trkpt>
      <trkpt lat="42.7" lon="18.15304">
        <ele>333.889578</ele>
        <time>2022-06-10T10:03:55.712Z</time>
      </trkpt>
      <trkpt lat="42.7001" lon="18.15314">
        <ele>333.91616</ele>
        <time>2022-06-10T10:03:59.711Z</time>
      </trkpt>
      <trkpt lat="42.70018" lon="18.15322">
        <ele>333.870764</ele>
        <time>2022-06-10T10:04:02.710Z</time>
      </trkpt>
      <trkpt lat="42.70027" lon="18.15332">
        <ele>333.822628</ele>
        <time>2022-06-10T10:04:05.699Z</time>
      </trkpt>
      <trkpt lat="42.70036" lon="18.15343">
        <ele>333.76636</ele>
        <time>2022-06-10T10:04:08.704Z</time>
      </trkpt>
      <trkpt lat="42.70043" lon="18.15352">
        <ele>333.725246</ele>
        <time>2022-06-10T10:04:10.740Z</time>
      </trkpt>
      <trkpt lat="42.7005" lon="18.15361">
        <ele>333.683685</ele>
        <time>2022-06-10T10:04:12.742Z</time>
      </trkpt>
      <trkpt lat="42.70057" lon="18.15371">
        <ele>333.639789</ele>
        <time>2022-06-10T10:04:14.719Z</time>
      </trkpt>
      <trkpt lat="42.70064" lon="18.1538">
        <ele>333.59648</ele>
        <time>2022-06-10T10:04:16.733Z</time>
      </trkpt>
      <trkpt lat="42.70071" lon="18.1539">
        <ele>333.554314</ele>
        <time>2022-06-10T10:04:18.712Z</time>
      </trkpt>
      <trkpt lat="42.70077" lon="18.154">
        <ele>333.512329</ele>
        <time>2022-06-10T10:04:20.721Z</time>
      </trkpt>
      <trkpt lat="42.70084" lon="18.15409">
        <ele>333.468564</ele>
        <time>2022-06-10T10:04:22.719Z</time>
      </trkpt>
      <trkpt lat="42.70092" lon="18.15419">
        <ele>333.423789</ele>
        <time>2022-06-10T10:04:24.720Z</time>
      </trkpt>
      <trkpt lat="42.70099" lon="18.15429">
        <ele>333.379412</ele>
        <time>2022-06-10T10:04:26.703Z</time>
      </trkpt>
      <trkpt lat="42.70106" lon="18.15439">
        <ele>333.337079</ele>
        <time>2022-06-10T10:04:28.703Z</time>
      </trkpt>
      <trkpt lat="42.70112" lon="18.15448">
        <ele>333.294149</ele>
        <time>2022-06-10T10:04:30.694Z</time>
      </trkpt>
      <trkpt lat="42.70119" lon="18.15458">
        <ele>333.252582</ele>
        <time>2022-06-10T10:04:32.746Z</time>
      </trkpt>
      <trkpt lat="42.70125" lon="18.15467">
        <ele>333.211015</ele>
        <time>2022-06-10T10:04:34.760Z</time>
      </trkpt>
      <trkpt lat="42.70132" lon="18.15477">
        <ele>333.168316</ele>
        <time>2022-06-10T10:04:36.714Z</time>
      </trkpt>
      <trkpt lat="42.70139" lon="18.15487">
        <ele>333.09797</ele>
        <time>2022-06-10T10:04:38.744Z</time>
      </trkpt>
      <trkpt lat="42.70146" lon="18.15496">
        <ele>332.983429</ele>
        <time>2022-06-10T10:04:40.708Z</time>
      </trkpt>
      <trkpt lat="42.70153" lon="18.15506">
        <ele>332.868888</ele>
        <time>2022-06-10T10:04:42.711Z</time>
      </trkpt>
      <trkpt lat="42.7016" lon="18.15515">
        <ele>332.751217</ele>
        <time>2022-06-10T10:04:44.714Z</time>
      </trkpt>
      <trkpt lat="42.70166" lon="18.15525">
        <ele>332.637041</ele>
        <time>2022-06-10T10:04:46.712Z</time>
      </trkpt>
      <trkpt lat="42.70173" lon="18.15534">
        <ele>332.517502</ele>
        <time>2022-06-10T10:04:48.719Z</time>
      </trkpt>
      <trkpt lat="42.7018" lon="18.15544">
        <ele>332.402332</ele>
        <time>2022-06-10T10:04:50.703Z</time>
      </trkpt>
      <trkpt lat="42.70187" lon="18.15553">
        <ele>332.291958</ele>
        <time>2022-06-10T10:04:52.704Z</time>
      </trkpt>
      <trkpt lat="42.70193" lon="18.15562">
        <ele>332.182605</ele>
        <time>2022-06-10T10:04:54.704Z</time>
      </trkpt>
      <trkpt lat="42.70199" lon="18.15571">
        <ele>332.072011</ele>
        <time>2022-06-10T10:04:56.698Z</time>
      </trkpt>
      <trkpt lat="42.70206" lon="18.1558">
        <ele>331.956014</ele>
        <time>2022-06-10T10:04:58.724Z</time>
      </trkpt>
      <trkpt lat="42.70213" lon="18.15591">
        <ele>331.832658</ele>
        <time>2022-06-10T10:05:00.760Z</time>
      </trkpt>
      <trkpt lat="42.7022" lon="18.15601">
        <ele>331.712039</ele>
        <time>2022-06-10T10:05:02.709Z</time>
      </trkpt>
      <trkpt lat="42.70227" lon="18.15611">
        <ele>331.588037</ele>
        <time>2022-06-10T10:05:04.709Z</time>
      </trkpt>
      <trkpt lat="42.70234" lon="18.15621">
        <ele>331.468868</ele>
        <time>2022-06-10T10:05:06.700Z</time>
      </trkpt>
      <trkpt lat="42.7024" lon="18.15631">
        <ele>331.356142</ele>
        <time>2022-06-10T10:05:08.723Z</time>
      </trkpt>
      <trkpt lat="42.70247" lon="18.1564">
        <ele>331.24615</ele>
        <time>2022-06-10T10:05:10.724Z</time>
      </trkpt>
      <trkpt lat="42.70252" lon="18.1565">
        <ele>331.134722</ele>
        <time>2022-06-10T10:05:12.717Z</time>
      </trkpt>
      <trkpt lat="42.70258" lon="18.15661">
        <ele>331.023973</ele>
        <time>2022-06-10T10:05:14.743Z</time>
      </trkpt>
      <trkpt lat="42.70263" lon="18.15672">
        <ele>330.941241</ele>
        <time>2022-06-10T10:05:16.709Z</time>
      </trkpt>
      <trkpt lat="42.70268" lon="18.15683">
        <ele>330.868118</ele>
        <time>2022-06-10T10:05:18.706Z</time>
      </trkpt>
      <trkpt lat="42.70273" lon="18.15695">
        <ele>330.794518</ele>
        <time>2022-06-10T10:05:20.709Z</time>
      </trkpt>
      <trkpt lat="42.70278" lon="18.15711">
        <ele>330.697636</ele>
        <time>2022-06-10T10:05:23.714Z</time>
      </trkpt>
      <trkpt lat="42.70282" lon="18.15722">
        <ele>330.62939</ele>
        <time>2022-06-10T10:05:25.695Z</time>
      </trkpt>
      <trkpt lat="42.70287" lon="18.15738">
        <ele>330.531702</ele>
        <time>2022-06-10T10:05:28.759Z</time>
      </trkpt>
      <trkpt lat="42.70291" lon="18.15755">
        <ele>330.436472</ele>
        <time>2022-06-10T10:05:31.707Z</time>
      </trkpt>
      <trkpt lat="42.70292" lon="18.15772">
        <ele>330.342121</ele>
        <time>2022-06-10T10:05:34.706Z</time>
      </trkpt>
      <trkpt lat="42.70293" lon="18.1579">
        <ele>330.240212</ele>
        <time>2022-06-10T10:05:37.708Z</time>
      </trkpt>
      <trkpt lat="42.70294" lon="18.15802">
        <ele>330.171498</ele>
        <time>2022-06-10T10:05:39.732Z</time>
      </trkpt>
      <trkpt lat="42.70294" lon="18.15815">
        <ele>330.102392</ele>
        <time>2022-06-10T10:05:41.700Z</time>
      </trkpt>
      <trkpt lat="42.70294" lon="18.15827">
        <ele>330.033925</ele>
        <time>2022-06-10T10:05:43.714Z</time>
      </trkpt>
      <trkpt lat="42.70293" lon="18.15841">
        <ele>329.960122</ele>
        <time>2022-06-10T10:05:45.733Z</time>
      </trkpt>
      <trkpt lat="42.70292" lon="18.15854">
        <ele>329.883411</ele>
        <time>2022-06-10T10:05:47.704Z</time>
      </trkpt>
      <trkpt lat="42.70291" lon="18.15868">
        <ele>329.8082</ele>
        <time>2022-06-10T10:05:49.696Z</time>
      </trkpt>
      <trkpt lat="42.70291" lon="18.15882">
        <ele>329.730683</ele>
        <time>2022-06-10T10:05:51.714Z</time>
      </trkpt>
      <trkpt lat="42.70289" lon="18.15896">
        <ele>329.654057</ele>
        <time>2022-06-10T10:05:53.710Z</time>
      </trkpt>
      <trkpt lat="42.70288" lon="18.1591">
        <ele>329.619273</ele>
        <time>2022-06-10T10:05:55.748Z</time>
      </trkpt>
      <trkpt lat="42.70288" lon="18.15923">
        <ele>329.589788</ele>
        <time>2022-06-10T10:05:57.716Z</time>
      </trkpt>
      <trkpt lat="42.70287" lon="18.15936">
        <ele>329.560283</ele>
        <time>2022-06-10T10:05:59.713Z</time>
      </trkpt>
      <trkpt lat="42.70286" lon="18.1595">
        <ele>329.530293</ele>
        <time>2022-06-10T10:06:01.724Z</time>
      </trkpt>
      <trkpt lat="42.70285" lon="18.15963">
        <ele>329.500493</ele>
        <time>2022-06-10T10:06:03.706Z</time>
      </trkpt>
      <trkpt lat="42.70284" lon="18.15977">
        <ele>329.469718</ele>
        <time>2022-06-10T10:06:05.716Z</time>
      </trkpt>
      <trkpt lat="42.70283" lon="18.15991">
        <ele>329.440468</ele>
        <time>2022-06-10T10:06:07.724Z</time>
      </trkpt>
      <trkpt lat="42.70281" lon="18.16004">
        <ele>329.410782</ele>
        <time>2022-06-10T10:06:09.762Z</time>
      </trkpt>
      <trkpt lat="42.7028" lon="18.16017">
        <ele>329.38157</ele>
        <time>2022-06-10T10:06:11.699Z</time>
      </trkpt>
      <trkpt lat="42.70279" lon="18.16031">
        <ele>329.350796</ele>
        <time>2022-06-10T10:06:13.699Z</time>
      </trkpt>
      <trkpt lat="42.70278" lon="18.16045">
        <ele>329.320493</ele>
        <time>2022-06-10T10:06:15.705Z</time>
      </trkpt>
      <trkpt lat="42.70276" lon="18.16058">
        <ele>329.290154</ele>
        <time>2022-06-10T10:06:17.705Z</time>
      </trkpt>
      <trkpt lat="42.70275" lon="18.16072">
        <ele>329.259341</ele>
        <time>2022-06-10T10:06:19.741Z</time>
      </trkpt>
      <trkpt lat="42.70274" lon="18.16087">
        <ele>329.227694</ele>
        <time>2022-06-10T10:06:21.705Z</time>
      </trkpt>
      <trkpt lat="42.70272" lon="18.16101">
        <ele>329.196738</ele>
        <time>2022-06-10T10:06:23.744Z</time>
      </trkpt>
      <trkpt lat="42.70272" lon="18.16115">
        <ele>329.165897</ele>
        <time>2022-06-10T10:06:25.710Z</time>
      </trkpt>
      <trkpt lat="42.70271" lon="18.16129">
        <ele>329.134877</ele>
        <time>2022-06-10T10:06:27.715Z</time>
      </trkpt>
      <trkpt lat="42.7027" lon="18.16143">
        <ele>329.102139</ele>
        <time>2022-06-10T10:06:29.708Z</time>
      </trkpt>
      <trkpt lat="42.70269" lon="18.16156">
        <ele>329.062516</ele>
        <time>2022-06-10T10:06:31.712Z</time>
      </trkpt>
      <trkpt lat="42.70268" lon="18.1617">
        <ele>329.023972</ele>
        <time>2022-06-10T10:06:33.700Z</time>
      </trkpt>
      <trkpt lat="42.70269" lon="18.16183">
        <ele>328.985756</ele>
        <time>2022-06-10T10:06:35.724Z</time>
      </trkpt>
      <trkpt lat="42.7027" lon="18.16197">
        <ele>328.94465</ele>
        <time>2022-06-10T10:06:37.712Z</time>
      </trkpt>
      <trkpt lat="42.70271" lon="18.16211">
        <ele>328.90297</ele>
        <time>2022-06-10T10:06:39.715Z</time>
      </trkpt>
      <trkpt lat="42.70272" lon="18.16225">
        <ele>328.862198</ele>
        <time>2022-06-10T10:06:41.717Z</time>
      </trkpt>
      <trkpt lat="42.70274" lon="18.16239">
        <ele>328.821559</ele>
        <time>2022-06-10T10:06:43.723Z</time>
      </trkpt>
      <trkpt lat="42.70276" lon="18.16253">
        <ele>328.782006</ele>
        <time>2022-06-10T10:06:45.704Z</time>
      </trkpt>
      <trkpt lat="42.70278" lon="18.16266">
        <ele>328.743504</ele>
        <time>2022-06-10T10:06:47.722Z</time>
      </trkpt>
      <trkpt lat="42.70281" lon="18.16278">
        <ele>328.705751</ele>
        <time>2022-06-10T10:06:49.739Z</time>
      </trkpt>
      <trkpt lat="42.70283" lon="18.16291">
        <ele>328.667674</ele>
        <time>2022-06-10T10:06:51.695Z</time>
      </trkpt>
      <trkpt lat="42.70287" lon="18.16303">
        <ele>328.630476</ele>
        <time>2022-06-10T10:06:53.709Z</time>
      </trkpt>
      <trkpt lat="42.7029" lon="18.16315">
        <ele>328.592832</ele>
        <time>2022-06-10T10:06:55.701Z</time>
      </trkpt>
      <trkpt lat="42.70294" lon="18.16327">
        <ele>328.555035</ele>
        <time>2022-06-10T10:06:57.693Z</time>
      </trkpt>
      <trkpt lat="42.70298" lon="18.16339">
        <ele>328.517392</ele>
        <time>2022-06-10T10:06:59.707Z</time>
      </trkpt>
      <trkpt lat="42.70302" lon="18.16351">
        <ele>328.480327</ele>
        <time>2022-06-10T10:07:01.702Z</time>
      </trkpt>
      <trkpt lat="42.70308" lon="18.16367">
        <ele>328.427508</ele>
        <time>2022-06-10T10:07:04.728Z</time>
      </trkpt>
      <trkpt lat="42.70314" lon="18.16383">
        <ele>328.278503</ele>
        <time>2022-06-10T10:07:07.776Z</time>
      </trkpt>
      <trkpt lat="42.70318" lon="18.16395">
        <ele>328.112498</ele>
        <time>2022-06-10T10:07:09.690Z</time>
      </trkpt>
      <trkpt lat="42.70322" lon="18.16406">
        <ele>327.950009</ele>
        <time>2022-06-10T10:07:11.719Z</time>
      </trkpt>
      <trkpt lat="42.70326" lon="18.16417">
        <ele>327.787135</ele>
        <time>2022-06-10T10:07:13.717Z</time>
      </trkpt>
      <trkpt lat="42.7033" lon="18.16428">
        <ele>327.625032</ele>
        <time>2022-06-10T10:07:15.706Z</time>
      </trkpt>
      <trkpt lat="42.70334" lon="18.16439">
        <ele>327.461746</ele>
        <time>2022-06-10T10:07:17.703Z</time>
      </trkpt>
      <trkpt lat="42.70338" lon="18.16451">
        <ele>327.297276</ele>
        <time>2022-06-10T10:07:19.717Z</time>
      </trkpt>
      <trkpt lat="42.70344" lon="18.16467">
        <ele>327.060302</ele>
        <time>2022-06-10T10:07:22.718Z</time>
      </trkpt>
      <trkpt lat="42.7035" lon="18.16483">
        <ele>326.826336</ele>
        <time>2022-06-10T10:07:25.711Z</time>
      </trkpt>
      <trkpt lat="42.70356" lon="18.16498">
        <ele>326.600429</ele>
        <time>2022-06-10T10:07:28.708Z</time>
      </trkpt>
      <trkpt lat="42.70361" lon="18.16514">
        <ele>326.370144</ele>
        <time>2022-06-10T10:07:31.693Z</time>
      </trkpt>
      <trkpt lat="42.70368" lon="18.16529">
        <ele>326.140556</ele>
        <time>2022-06-10T10:07:34.705Z</time>
      </trkpt>
      <trkpt lat="42.70374" lon="18.16545">
        <ele>325.90107</ele>
        <time>2022-06-10T10:07:37.757Z</time>
      </trkpt>
      <trkpt lat="42.70379" lon="18.16556">
        <ele>325.738933</ele>
        <time>2022-06-10T10:07:39.691Z</time>
      </trkpt>
      <trkpt lat="42.70384" lon="18.16566">
        <ele>325.578305</ele>
        <time>2022-06-10T10:07:41.714Z</time>
      </trkpt>
      <trkpt lat="42.70391" lon="18.16582">
        <ele>325.342737</ele>
        <time>2022-06-10T10:07:44.703Z</time>
      </trkpt>
      <trkpt lat="42.70398" lon="18.16596">
        <ele>325.201338</ele>
        <time>2022-06-10T10:07:47.701Z</time>
      </trkpt>
      <trkpt lat="42.70407" lon="18.1661">
        <ele>325.205543</ele>
        <time>2022-06-10T10:07:50.701Z</time>
      </trkpt>
      <trkpt lat="42.70415" lon="18.16624">
        <ele>325.209711</ele>
        <time>2022-06-10T10:07:53.695Z</time>
      </trkpt>
      <trkpt lat="42.70424" lon="18.16638">
        <ele>325.213846</ele>
        <time>2022-06-10T10:07:56.710Z</time>
      </trkpt>
      <trkpt lat="42.70432" lon="18.16651">
        <ele>325.217945</ele>
        <time>2022-06-10T10:07:59.722Z</time>
      </trkpt>
      <trkpt lat="42.70441" lon="18.16665">
        <ele>325.221989</ele>
        <time>2022-06-10T10:08:02.712Z</time>
      </trkpt>
      <trkpt lat="42.7045" lon="18.16678">
        <ele>325.226168</ele>
        <time>2022-06-10T10:08:05.734Z</time>
      </trkpt>
      <trkpt lat="42.70458" lon="18.16692">
        <ele>325.230318</ele>
        <time>2022-06-10T10:08:08.694Z</time>
      </trkpt>
      <trkpt lat="42.70466" lon="18.16706">
        <ele>325.234352</ele>
        <time>2022-06-10T10:08:11.731Z</time>
      </trkpt>
      <trkpt lat="42.70474" lon="18.16719">
        <ele>325.238348</ele>
        <time>2022-06-10T10:08:14.702Z</time>
      </trkpt>
      <trkpt lat="42.70482" lon="18.16734">
        <ele>325.242549</ele>
        <time>2022-06-10T10:08:17.702Z</time>
      </trkpt>
      <trkpt lat="42.7049" lon="18.16747">
        <ele>325.246585</ele>
        <time>2022-06-10T10:08:20.711Z</time>
      </trkpt>
      <trkpt lat="42.70496" lon="18.16757">
        <ele>325.249463</ele>
        <time>2022-06-10T10:08:22.710Z</time>
      </trkpt>
      <trkpt lat="42.70503" lon="18.16766">
        <ele>325.252401</ele>
        <time>2022-06-10T10:08:24.710Z</time>
      </trkpt>
      <trkpt lat="42.70509" lon="18.16775">
        <ele>325.255263</ele>
        <time>2022-06-10T10:08:26.703Z</time>
      </trkpt>
      <trkpt lat="42.70517" lon="18.16787">
        <ele>325.188785</ele>
        <time>2022-06-10T10:08:29.708Z</time>
      </trkpt>
      <trkpt lat="42.70527" lon="18.16799">
        <ele>325.097463</ele>
        <time>2022-06-10T10:08:32.714Z</time>
      </trkpt>
      <trkpt lat="42.70533" lon="18.16808">
        <ele>325.031672</ele>
        <time>2022-06-10T10:08:34.753Z</time>
      </trkpt>
      <trkpt lat="42.70539" lon="18.16818">
        <ele>324.966488</ele>
        <time>2022-06-10T10:08:36.717Z</time>
      </trkpt>
      <trkpt lat="42.70548" lon="18.16831">
        <ele>324.871552</ele>
        <time>2022-06-10T10:08:39.746Z</time>
      </trkpt>
      <trkpt lat="42.70553" lon="18.16842">
        <ele>324.80308</ele>
        <time>2022-06-10T10:08:41.731Z</time>
      </trkpt>
      <trkpt lat="42.70559" lon="18.16852">
        <ele>324.735884</ele>
        <time>2022-06-10T10:08:43.722Z</time>
      </trkpt>
      <trkpt lat="42.70564" lon="18.16862">
        <ele>324.670336</ele>
        <time>2022-06-10T10:08:45.722Z</time>
      </trkpt>
      <trkpt lat="42.70572" lon="18.16875">
        <ele>324.578888</ele>
        <time>2022-06-10T10:08:48.728Z</time>
      </trkpt>
      <trkpt lat="42.7058" lon="18.16889">
        <ele>324.487873</ele>
        <time>2022-06-10T10:08:51.752Z</time>
      </trkpt>
      <trkpt lat="42.70587" lon="18.16903">
        <ele>324.3977</ele>
        <time>2022-06-10T10:08:54.708Z</time>
      </trkpt>
      <trkpt lat="42.70595" lon="18.16917">
        <ele>324.304563</ele>
        <time>2022-06-10T10:08:57.714Z</time>
      </trkpt>
      <trkpt lat="42.70602" lon="18.16931">
        <ele>324.215245</ele>
        <time>2022-06-10T10:09:00.705Z</time>
      </trkpt>
      <trkpt lat="42.7061" lon="18.16944">
        <ele>324.124217</ele>
        <time>2022-06-10T10:09:03.713Z</time>
      </trkpt>
      <trkpt lat="42.70618" lon="18.16958">
        <ele>324.029693</ele>
        <time>2022-06-10T10:09:06.720Z</time>
      </trkpt>
      <trkpt lat="42.70627" lon="18.16972">
        <ele>323.942091</ele>
        <time>2022-06-10T10:09:09.717Z</time>
      </trkpt>
      <trkpt lat="42.70635" lon="18.16984">
        <ele>323.873976</ele>
        <time>2022-06-10T10:09:12.714Z</time>
      </trkpt>
      <trkpt lat="42.70643" lon="18.16996">
        <ele>323.806231</ele>
        <time>2022-06-10T10:09:15.713Z</time>
      </trkpt>
      <trkpt lat="42.70651" lon="18.17009">
        <ele>323.737126</ele>
        <time>2022-06-10T10:09:18.731Z</time>
      </trkpt>
      <trkpt lat="42.70659" lon="18.17022">
        <ele>323.667491</ele>
        <time>2022-06-10T10:09:21.710Z</time>
      </trkpt>
      <trkpt lat="42.70667" lon="18.17035">
        <ele>323.598531</ele>
        <time>2022-06-10T10:09:24.728Z</time>
      </trkpt>
      <trkpt lat="42.70675" lon="18.17048">
        <ele>323.52781</ele>
        <time>2022-06-10T10:09:27.708Z</time>
      </trkpt>
      <trkpt lat="42.70683" lon="18.17061">
        <ele>323.455362</ele>
        <time>2022-06-10T10:09:30.712Z</time>
      </trkpt>
      <trkpt lat="42.70691" lon="18.17074">
        <ele>323.385408</ele>
        <time>2022-06-10T10:09:33.704Z</time>
      </trkpt>
      <trkpt lat="42.70699" lon="18.17088">
        <ele>323.31417</ele>
        <time>2022-06-10T10:09:36.739Z</time>
      </trkpt>
      <trkpt lat="42.70707" lon="18.17101">
        <ele>323.242547</ele>
        <time>2022-06-10T10:09:39.707Z</time>
      </trkpt>
      <trkpt lat="42.70716" lon="18.17115">
        <ele>323.167804</ele>
        <time>2022-06-10T10:09:42.739Z</time>
      </trkpt>
      <trkpt lat="42.70725" lon="18.17128">
        <ele>323.095292</ele>
        <time>2022-06-10T10:09:45.722Z</time>
      </trkpt>
      <trkpt lat="42.70733" lon="18.17141">
        <ele>323.024572</ele>
        <time>2022-06-10T10:09:48.762Z</time>
      </trkpt>
      <trkpt lat="42.70741" lon="18.17154">
        <ele>322.954437</ele>
        <time>2022-06-10T10:09:51.713Z</time>
      </trkpt>
      <trkpt lat="42.70748" lon="18.17167">
        <ele>323.020332</ele>
        <time>2022-06-10T10:09:54.714Z</time>
      </trkpt>
      <trkpt lat="42.70756" lon="18.17181">
        <ele>323.089197</ele>
        <time>2022-06-10T10:09:57.713Z</time>
      </trkpt>
      <trkpt lat="42.70764" lon="18.17194">
        <ele>323.157068</ele>
        <time>2022-06-10T10:10:00.712Z</time>
      </trkpt>
      <trkpt lat="42.70773" lon="18.17206">
        <ele>323.223674</ele>
        <time>2022-06-10T10:10:03.699Z</time>
      </trkpt>
      <trkpt lat="42.70781" lon="18.17219">
        <ele>323.290215</ele>
        <time>2022-06-10T10:10:06.713Z</time>
      </trkpt>
      <trkpt lat="42.70788" lon="18.17232">
        <ele>323.356733</ele>
        <time>2022-06-10T10:10:09.707Z</time>
      </trkpt>
      <trkpt lat="42.70796" lon="18.17246">
        <ele>323.425865</ele>
        <time>2022-06-10T10:10:12.705Z</time>
      </trkpt>
      <trkpt lat="42.70804" lon="18.17259">
        <ele>323.492365</ele>
        <time>2022-06-10T10:10:15.700Z</time>
      </trkpt>
      <trkpt lat="42.70811" lon="18.17272">
        <ele>323.557369</ele>
        <time>2022-06-10T10:10:18.712Z</time>
      </trkpt>
      <trkpt lat="42.70819" lon="18.17284">
        <ele>323.621345</ele>
        <time>2022-06-10T10:10:21.711Z</time>
      </trkpt>
      <trkpt lat="42.70828" lon="18.17297">
        <ele>323.688703</ele>
        <time>2022-06-10T10:10:24.703Z</time>
      </trkpt>
      <trkpt lat="42.70835" lon="18.17309">
        <ele>323.754053</ele>
        <time>2022-06-10T10:10:27.721Z</time>
      </trkpt>
      <trkpt lat="42.70844" lon="18.17323">
        <ele>323.826671</ele>
        <time>2022-06-10T10:10:30.703Z</time>
      </trkpt>
      <trkpt lat="42.70852" lon="18.17338">
        <ele>323.89859</ele>
        <time>2022-06-10T10:10:33.713Z</time>
      </trkpt>
      <trkpt lat="42.70857" lon="18.17348">
        <ele>323.878965</ele>
        <time>2022-06-10T10:10:35.705Z</time>
      </trkpt>
      <trkpt lat="42.70863" lon="18.17358">
        <ele>323.77582</ele>
        <time>2022-06-10T10:10:37.698Z</time>
      </trkpt>
      <trkpt lat="42.70868" lon="18.17368">
        <ele>323.673989</ele>
        <time>2022-06-10T10:10:39.755Z</time>
      </trkpt>
      <trkpt lat="42.70876" lon="18.17383">
        <ele>323.525171</ele>
        <time>2022-06-10T10:10:42.708Z</time>
      </trkpt>
      <trkpt lat="42.70881" lon="18.17393">
        <ele>323.422584</ele>
        <time>2022-06-10T10:10:44.717Z</time>
      </trkpt>
      <trkpt lat="42.70886" lon="18.17404">
        <ele>323.316756</ele>
        <time>2022-06-10T10:10:46.713Z</time>
      </trkpt>
      <trkpt lat="42.70892" lon="18.17415">
        <ele>323.208895</ele>
        <time>2022-06-10T10:10:48.702Z</time>
      </trkpt>
      <trkpt lat="42.70897" lon="18.17425">
        <ele>323.101715</ele>
        <time>2022-06-10T10:10:50.723Z</time>
      </trkpt>
      <trkpt lat="42.70902" lon="18.17436">
        <ele>322.999181</ele>
        <time>2022-06-10T10:10:52.707Z</time>
      </trkpt>
      <trkpt lat="42.70909" lon="18.17451">
        <ele>322.854019</ele>
        <time>2022-06-10T10:10:55.730Z</time>
      </trkpt>
      <trkpt lat="42.70915" lon="18.17467">
        <ele>322.706324</ele>
        <time>2022-06-10T10:10:58.735Z</time>
      </trkpt>
      <trkpt lat="42.70922" lon="18.17483">
        <ele>322.552387</ele>
        <time>2022-06-10T10:11:01.721Z</time>
      </trkpt>
      <trkpt lat="42.70928" lon="18.17493">
        <ele>322.447869</ele>
        <time>2022-06-10T10:11:03.705Z</time>
      </trkpt>
      <trkpt lat="42.70933" lon="18.17504">
        <ele>322.343606</ele>
        <time>2022-06-10T10:11:05.719Z</time>
      </trkpt>
      <trkpt lat="42.70937" lon="18.17515">
        <ele>322.237783</ele>
        <time>2022-06-10T10:11:07.731Z</time>
      </trkpt>
      <trkpt lat="42.70942" lon="18.17526">
        <ele>322.133521</ele>
        <time>2022-06-10T10:11:09.716Z</time>
      </trkpt>
      <trkpt lat="42.70947" lon="18.17537">
        <ele>322.031099</ele>
        <time>2022-06-10T10:11:11.736Z</time>
      </trkpt>
      <trkpt lat="42.70954" lon="18.17553">
        <ele>321.842403</ele>
        <time>2022-06-10T10:11:14.724Z</time>
      </trkpt>
      <trkpt lat="42.70959" lon="18.17564">
        <ele>321.626726</ele>
        <time>2022-06-10T10:11:16.709Z</time>
      </trkpt>
      <trkpt lat="42.70963" lon="18.17574">
        <ele>321.417762</ele>
        <time>2022-06-10T10:11:18.706Z</time>
      </trkpt>
      <trkpt lat="42.70971" lon="18.17589">
        <ele>321.108596</ele>
        <time>2022-06-10T10:11:21.718Z</time>
      </trkpt>
      <trkpt lat="42.70977" lon="18.17605">
        <ele>320.80361</ele>
        <time>2022-06-10T10:11:24.715Z</time>
      </trkpt>
      <trkpt lat="42.70982" lon="18.17616">
        <ele>320.595824</ele>
        <time>2022-06-10T10:11:26.704Z</time>
      </trkpt>
      <trkpt lat="42.70989" lon="18.17631">
        <ele>320.290838</ele>
        <time>2022-06-10T10:11:29.718Z</time>
      </trkpt>
      <trkpt lat="42.70996" lon="18.17647">
        <ele>319.986396</ele>
        <time>2022-06-10T10:11:32.721Z</time>
      </trkpt>
      <trkpt lat="42.71003" lon="18.17661">
        <ele>319.688327</ele>
        <time>2022-06-10T10:11:35.718Z</time>
      </trkpt>
      <trkpt lat="42.71009" lon="18.17676">
        <ele>319.402828</ele>
        <time>2022-06-10T10:11:38.698Z</time>
      </trkpt>
      <trkpt lat="42.71017" lon="18.17689">
        <ele>319.110302</ele>
        <time>2022-06-10T10:11:41.720Z</time>
      </trkpt>
      <trkpt lat="42.71023" lon="18.17699">
        <ele>318.898353</ele>
        <time>2022-06-10T10:11:43.710Z</time>
      </trkpt>
      <trkpt lat="42.71032" lon="18.17712">
        <ele>318.597522</ele>
        <time>2022-06-10T10:11:46.753Z</time>
      </trkpt>
      <trkpt lat="42.71041" lon="18.17726">
        <ele>318.283987</ele>
        <time>2022-06-10T10:11:49.706Z</time>
      </trkpt>
      <trkpt lat="42.71047" lon="18.17736">
        <ele>318.07681</ele>
        <time>2022-06-10T10:11:51.709Z</time>
      </trkpt>
      <trkpt lat="42.71053" lon="18.17745">
        <ele>317.856141</ele>
        <time>2022-06-10T10:11:53.698Z</time>
      </trkpt>
      <trkpt lat="42.7106" lon="18.17755">
        <ele>317.789089</ele>
        <time>2022-06-10T10:11:55.721Z</time>
      </trkpt>
      <trkpt lat="42.71067" lon="18.17764">
        <ele>317.795067</ele>
        <time>2022-06-10T10:11:57.741Z</time>
      </trkpt>
      <trkpt lat="42.71073" lon="18.17773">
        <ele>317.801089</ele>
        <time>2022-06-10T10:11:59.715Z</time>
      </trkpt>
      <trkpt lat="42.7108" lon="18.17783">
        <ele>317.806991</ele>
        <time>2022-06-10T10:12:01.704Z</time>
      </trkpt>
      <trkpt lat="42.71087" lon="18.17792">
        <ele>317.812993</ele>
        <time>2022-06-10T10:12:03.708Z</time>
      </trkpt>
      <trkpt lat="42.71093" lon="18.17801">
        <ele>317.818549</ele>
        <time>2022-06-10T10:12:05.722Z</time>
      </trkpt>
      <trkpt lat="42.71099" lon="18.1781">
        <ele>317.824198</ele>
        <time>2022-06-10T10:12:07.707Z</time>
      </trkpt>
      <trkpt lat="42.71105" lon="18.17819">
        <ele>317.829992</ele>
        <time>2022-06-10T10:12:09.707Z</time>
      </trkpt>
      <trkpt lat="42.71112" lon="18.17829">
        <ele>317.835851</ele>
        <time>2022-06-10T10:12:11.719Z</time>
      </trkpt>
      <trkpt lat="42.71121" lon="18.17842">
        <ele>317.844038</ele>
        <time>2022-06-10T10:12:14.712Z</time>
      </trkpt>
      <trkpt lat="42.7113" lon="18.17855">
        <ele>317.852386</ele>
        <time>2022-06-10T10:12:17.716Z</time>
      </trkpt>
      <trkpt lat="42.7114" lon="18.17868">
        <ele>317.860767</ele>
        <time>2022-06-10T10:12:20.719Z</time>
      </trkpt>
      <trkpt lat="42.71146" lon="18.17877">
        <ele>317.866399</ele>
        <time>2022-06-10T10:12:22.707Z</time>
      </trkpt>
      <trkpt lat="42.71153" lon="18.17885">
        <ele>317.872108</ele>
        <time>2022-06-10T10:12:24.713Z</time>
      </trkpt>
      <trkpt lat="42.71162" lon="18.17899">
        <ele>317.880499</ele>
        <time>2022-06-10T10:12:27.710Z</time>
      </trkpt>
      <trkpt lat="42.71171" lon="18.17911">
        <ele>317.88876</ele>
        <time>2022-06-10T10:12:30.731Z</time>
      </trkpt>
      <trkpt lat="42.71181" lon="18.17924">
        <ele>317.894675</ele>
        <time>2022-06-10T10:12:33.714Z</time>
      </trkpt>
      <trkpt lat="42.7119" lon="18.17938">
        <ele>317.82544</ele>
        <time>2022-06-10T10:12:36.722Z</time>
      </trkpt>
      <trkpt lat="42.71197" lon="18.17947">
        <ele>317.777797</ele>
        <time>2022-06-10T10:12:38.702Z</time>
      </trkpt>
      <trkpt lat="42.71203" lon="18.17956">
        <ele>317.730431</ele>
        <time>2022-06-10T10:12:40.714Z</time>
      </trkpt>
      <trkpt lat="42.71209" lon="18.17965">
        <ele>317.682087</ele>
        <time>2022-06-10T10:12:42.712Z</time>
      </trkpt>
      <trkpt lat="42.71216" lon="18.17974">
        <ele>317.633928</ele>
        <time>2022-06-10T10:12:44.704Z</time>
      </trkpt>
      <trkpt lat="42.71222" lon="18.17984">
        <ele>317.586352</ele>
        <time>2022-06-10T10:12:46.748Z</time>
      </trkpt>
      <trkpt lat="42.71228" lon="18.17993">
        <ele>317.539886</ele>
        <time>2022-06-10T10:12:48.733Z</time>
      </trkpt>
      <trkpt lat="42.71237" lon="18.18006">
        <ele>317.471853</ele>
        <time>2022-06-10T10:12:51.714Z</time>
      </trkpt>
      <trkpt lat="42.71243" lon="18.18015">
        <ele>317.425522</ele>
        <time>2022-06-10T10:12:53.699Z</time>
      </trkpt>
      <trkpt lat="42.71252" lon="18.18029">
        <ele>317.357209</ele>
        <time>2022-06-10T10:12:56.720Z</time>
      </trkpt>
      <trkpt lat="42.71258" lon="18.18038">
        <ele>317.310814</ele>
        <time>2022-06-10T10:12:58.713Z</time>
      </trkpt>
      <trkpt lat="42.71264" lon="18.18047">
        <ele>317.264537</ele>
        <time>2022-06-10T10:13:00.702Z</time>
      </trkpt>
      <trkpt lat="42.71273" lon="18.18061">
        <ele>317.197526</ele>
        <time>2022-06-10T10:13:03.761Z</time>
      </trkpt>
      <trkpt lat="42.71279" lon="18.1807">
        <ele>317.151132</ele>
        <time>2022-06-10T10:13:05.698Z</time>
      </trkpt>
      <trkpt lat="42.71288" lon="18.18084">
        <ele>317.081496</ele>
        <time>2022-06-10T10:13:08.703Z</time>
      </trkpt>
      <trkpt lat="42.71294" lon="18.18094">
        <ele>317.033451</ele>
        <time>2022-06-10T10:13:10.744Z</time>
      </trkpt>
      <trkpt lat="42.71302" lon="18.18108">
        <ele>316.968405</ele>
        <time>2022-06-10T10:13:13.709Z</time>
      </trkpt>
      <trkpt lat="42.71311" lon="18.18122">
        <ele>316.925141</ele>
        <time>2022-06-10T10:13:16.718Z</time>
      </trkpt>
      <trkpt lat="42.71319" lon="18.18136">
        <ele>316.882677</ele>
        <time>2022-06-10T10:13:19.743Z</time>
      </trkpt>
      <trkpt lat="42.71327" lon="18.18149">
        <ele>316.839962</ele>
        <time>2022-06-10T10:13:22.735Z</time>
      </trkpt>
      <trkpt lat="42.71336" lon="18.18162">
        <ele>316.798329</ele>
        <time>2022-06-10T10:13:25.720Z</time>
      </trkpt>
      <trkpt lat="42.71345" lon="18.18175">
        <ele>316.755843</ele>
        <time>2022-06-10T10:13:28.721Z</time>
      </trkpt>
      <trkpt lat="42.71354" lon="18.18187">
        <ele>316.715514</ele>
        <time>2022-06-10T10:13:31.708Z</time>
      </trkpt>
      <trkpt lat="42.71363" lon="18.18198">
        <ele>316.676452</ele>
        <time>2022-06-10T10:13:34.711Z</time>
      </trkpt>
      <trkpt lat="42.71372" lon="18.1821">
        <ele>316.636028</ele>
        <time>2022-06-10T10:13:37.713Z</time>
      </trkpt>
      <trkpt lat="42.71381" lon="18.18221">
        <ele>316.594632</ele>
        <time>2022-06-10T10:13:40.748Z</time>
      </trkpt>
      <trkpt lat="42.71391" lon="18.18232">
        <ele>316.554402</ele>
        <time>2022-06-10T10:13:43.716Z</time>
      </trkpt>
      <trkpt lat="42.71401" lon="18.18243">
        <ele>316.512101</ele>
        <time>2022-06-10T10:13:46.714Z</time>
      </trkpt>
      <trkpt lat="42.71412" lon="18.18253">
        <ele>316.47078</ele>
        <time>2022-06-10T10:13:49.697Z</time>
      </trkpt>
      <trkpt lat="42.71421" lon="18.18264">
        <ele>316.431038</ele>
        <time>2022-06-10T10:13:52.716Z</time>
      </trkpt>
      <trkpt lat="42.71432" lon="18.18272">
        <ele>316.391734</ele>
        <time>2022-06-10T10:13:55.707Z</time>
      </trkpt>
      <trkpt lat="42.71442" lon="18.18281">
        <ele>316.399043</ele>
        <time>2022-06-10T10:13:58.735Z</time>
      </trkpt>
      <trkpt lat="42.71452" lon="18.18289">
        <ele>316.406441</ele>
        <time>2022-06-10T10:14:01.701Z</time>
      </trkpt>
      <trkpt lat="42.71463" lon="18.18297">
        <ele>316.414089</ele>
        <time>2022-06-10T10:14:04.743Z</time>
      </trkpt>
      <trkpt lat="42.71473" lon="18.18305">
        <ele>316.421419</ele>
        <time>2022-06-10T10:14:07.715Z</time>
      </trkpt>
      <trkpt lat="42.71483" lon="18.18313">
        <ele>316.428569</ele>
        <time>2022-06-10T10:14:10.714Z</time>
      </trkpt>
      <trkpt lat="42.71492" lon="18.18322">
        <ele>316.435592</ele>
        <time>2022-06-10T10:14:13.706Z</time>
      </trkpt>
      <trkpt lat="42.71501" lon="18.1833">
        <ele>316.442284</ele>
        <time>2022-06-10T10:14:16.707Z</time>
      </trkpt>
      <trkpt lat="42.71511" lon="18.18338">
        <ele>316.449003</ele>
        <time>2022-06-10T10:14:19.713Z</time>
      </trkpt>
      <trkpt lat="42.7152" lon="18.18346">
        <ele>316.455901</ele>
        <time>2022-06-10T10:14:22.720Z</time>
      </trkpt>
      <trkpt lat="42.71529" lon="18.18355">
        <ele>316.462949</ele>
        <time>2022-06-10T10:14:25.706Z</time>
      </trkpt>
      <trkpt lat="42.71539" lon="18.18364">
        <ele>316.470515</ele>
        <time>2022-06-10T10:14:28.711Z</time>
      </trkpt>
      <trkpt lat="42.71549" lon="18.18374">
        <ele>316.478102</ele>
        <time>2022-06-10T10:14:31.703Z</time>
      </trkpt>
      <trkpt lat="42.71558" lon="18.18383">
        <ele>316.485201</ele>
        <time>2022-06-10T10:14:34.709Z</time>
      </trkpt>
      <trkpt lat="42.71568" lon="18.18393">
        <ele>316.492481</ele>
        <time>2022-06-10T10:14:37.743Z</time>
      </trkpt>
      <trkpt lat="42.71577" lon="18.18404">
        <ele>316.499954</ele>
        <time>2022-06-10T10:14:40.698Z</time>
      </trkpt>
      <trkpt lat="42.71586" lon="18.18414">
        <ele>316.468502</ele>
        <time>2022-06-10T10:14:43.745Z</time>
      </trkpt>
      <trkpt lat="42.71595" lon="18.18425">
        <ele>316.401566</ele>
        <time>2022-06-10T10:14:46.717Z</time>
      </trkpt>
      <trkpt lat="42.71604" lon="18.18436">
        <ele>316.336435</ele>
        <time>2022-06-10T10:14:49.715Z</time>
      </trkpt>
      <trkpt lat="42.71614" lon="18.18446">
        <ele>316.269551</ele>
        <time>2022-06-10T10:14:52.713Z</time>
      </trkpt>
      <trkpt lat="42.71623" lon="18.18457">
        <ele>316.203835</ele>
        <time>2022-06-10T10:14:55.720Z</time>
      </trkpt>
      <trkpt lat="42.71633" lon="18.18467">
        <ele>316.138704</ele>
        <time>2022-06-10T10:14:58.714Z</time>
      </trkpt>
      <trkpt lat="42.71642" lon="18.18478">
        <ele>316.07229</ele>
        <time>2022-06-10T10:15:01.703Z</time>
      </trkpt>
      <trkpt lat="42.71651" lon="18.1849">
        <ele>316.003897</ele>
        <time>2022-06-10T10:15:04.717Z</time>
      </trkpt>
      <trkpt lat="42.7166" lon="18.18501">
        <ele>315.937626</ele>
        <time>2022-06-10T10:15:07.708Z</time>
      </trkpt>
      <trkpt lat="42.7167" lon="18.18511">
        <ele>315.872579</ele>
        <time>2022-06-10T10:15:10.712Z</time>
      </trkpt>
      <trkpt lat="42.71679" lon="18.18523">
        <ele>315.802986</ele>
        <time>2022-06-10T10:15:13.712Z</time>
      </trkpt>
      <trkpt lat="42.71689" lon="18.18535">
        <ele>315.732419</ele>
        <time>2022-06-10T10:15:16.706Z</time>
      </trkpt>
      <trkpt lat="42.71696" lon="18.18543">
        <ele>315.683851</ele>
        <time>2022-06-10T10:15:18.724Z</time>
      </trkpt>
      <trkpt lat="42.71705" lon="18.18556">
        <ele>315.614256</ele>
        <time>2022-06-10T10:15:21.742Z</time>
      </trkpt>
      <trkpt lat="42.71714" lon="18.18567">
        <ele>315.54625</ele>
        <time>2022-06-10T10:15:24.718Z</time>
      </trkpt>
      <trkpt lat="42.71724" lon="18.18577">
        <ele>315.605804</ele>
        <time>2022-06-10T10:15:27.713Z</time>
      </trkpt>
      <trkpt lat="42.71734" lon="18.18588">
        <ele>315.691907</ele>
        <time>2022-06-10T10:15:30.713Z</time>
      </trkpt>
      <trkpt lat="42.71743" lon="18.18598">
        <ele>315.775528</ele>
        <time>2022-06-10T10:15:33.715Z</time>
      </trkpt>
      <trkpt lat="42.71751" lon="18.18609">
        <ele>315.858089</ele>
        <time>2022-06-10T10:15:36.706Z</time>
      </trkpt>
      <trkpt lat="42.7176" lon="18.18619">
        <ele>315.942981</ele>
        <time>2022-06-10T10:15:39.721Z</time>
      </trkpt>
      <trkpt lat="42.7177" lon="18.18631">
        <ele>316.033297</ele>
        <time>2022-06-10T10:15:42.707Z</time>
      </trkpt>
      <trkpt lat="42.71779" lon="18.18641">
        <ele>316.117634</ele>
        <time>2022-06-10T10:15:45.704Z</time>
      </trkpt>
      <trkpt lat="42.71789" lon="18.18651">
        <ele>316.203507</ele>
        <time>2022-06-10T10:15:48.702Z</time>
      </trkpt>
      <trkpt lat="42.71797" lon="18.18662">
        <ele>316.288354</ele>
        <time>2022-06-10T10:15:51.705Z</time>
      </trkpt>
      <trkpt lat="42.71806" lon="18.18672">
        <ele>316.370036</ele>
        <time>2022-06-10T10:15:54.726Z</time>
      </trkpt>
      <trkpt lat="42.71815" lon="18.18684">
        <ele>316.458747</ele>
        <time>2022-06-10T10:15:57.708Z</time>
      </trkpt>
      <trkpt lat="42.71825" lon="18.18695">
        <ele>316.550096</ele>
        <time>2022-06-10T10:16:00.744Z</time>
      </trkpt>
      <trkpt lat="42.71834" lon="18.18707">
        <ele>316.640926</ele>
        <time>2022-06-10T10:16:03.698Z</time>
      </trkpt>
      <trkpt lat="42.71843" lon="18.18718">
        <ele>316.727892</ele>
        <time>2022-06-10T10:16:06.740Z</time>
      </trkpt>
      <trkpt lat="42.71852" lon="18.1873">
        <ele>316.813796</ele>
        <time>2022-06-10T10:16:09.740Z</time>
      </trkpt>
      <trkpt lat="42.71862" lon="18.18742">
        <ele>316.818608</ele>
        <time>2022-06-10T10:16:12.715Z</time>
      </trkpt>
      <trkpt lat="42.71871" lon="18.18753">
        <ele>316.823312</ele>
        <time>2022-06-10T10:16:15.721Z</time>
      </trkpt>
      <trkpt lat="42.71879" lon="18.18765">
        <ele>316.827878</ele>
        <time>2022-06-10T10:16:18.708Z</time>
      </trkpt>
      <trkpt lat="42.71888" lon="18.18779">
        <ele>316.832694</ele>
        <time>2022-06-10T10:16:21.708Z</time>
      </trkpt>
      <trkpt lat="42.71895" lon="18.18793">
        <ele>316.837584</ele>
        <time>2022-06-10T10:16:24.730Z</time>
      </trkpt>
      <trkpt lat="42.71903" lon="18.18807">
        <ele>316.842384</ele>
        <time>2022-06-10T10:16:27.711Z</time>
      </trkpt>
      <trkpt lat="42.71909" lon="18.18821">
        <ele>316.847133</ele>
        <time>2022-06-10T10:16:30.691Z</time>
      </trkpt>
      <trkpt lat="42.71915" lon="18.18836">
        <ele>316.851811</ele>
        <time>2022-06-10T10:16:33.704Z</time>
      </trkpt>
      <trkpt lat="42.71921" lon="18.18852">
        <ele>316.856671</ele>
        <time>2022-06-10T10:16:36.743Z</time>
      </trkpt>
      <trkpt lat="42.71926" lon="18.18869">
        <ele>316.861655</ele>
        <time>2022-06-10T10:16:39.713Z</time>
      </trkpt>
      <trkpt lat="42.71932" lon="18.18884">
        <ele>316.866607</ele>
        <time>2022-06-10T10:16:42.700Z</time>
      </trkpt>
      <trkpt lat="42.71937" lon="18.189">
        <ele>316.871368</ele>
        <time>2022-06-10T10:16:45.708Z</time>
      </trkpt>
      <trkpt lat="42.71943" lon="18.18915">
        <ele>316.876096</ele>
        <time>2022-06-10T10:16:48.703Z</time>
      </trkpt>
      <trkpt lat="42.71949" lon="18.18929">
        <ele>316.880548</ele>
        <time>2022-06-10T10:16:51.730Z</time>
      </trkpt>
      <trkpt lat="42.71955" lon="18.18943">
        <ele>316.665322</ele>
        <time>2022-06-10T10:16:54.698Z</time>
      </trkpt>
      <trkpt lat="42.71962" lon="18.18958">
        <ele>316.369574</ele>
        <time>2022-06-10T10:16:57.715Z</time>
      </trkpt>
      <trkpt lat="42.7197" lon="18.18971">
        <ele>316.092929</ele>
        <time>2022-06-10T10:17:00.718Z</time>
      </trkpt>
      <trkpt lat="42.71978" lon="18.18985">
        <ele>315.794164</ele>
        <time>2022-06-10T10:17:03.714Z</time>
      </trkpt>
      <trkpt lat="42.71985" lon="18.18994">
        <ele>315.580686</ele>
        <time>2022-06-10T10:17:05.712Z</time>
      </trkpt>
      <trkpt lat="42.71991" lon="18.19002">
        <ele>315.374771</ele>
        <time>2022-06-10T10:17:07.705Z</time>
      </trkpt>
      <trkpt lat="42.72" lon="18.19015">
        <ele>315.085459</ele>
        <time>2022-06-10T10:17:10.713Z</time>
      </trkpt>
      <trkpt lat="42.72009" lon="18.19027">
        <ele>314.798831</ele>
        <time>2022-06-10T10:17:13.719Z</time>
      </trkpt>
      <trkpt lat="42.7202" lon="18.19037">
        <ele>314.505994</ele>
        <time>2022-06-10T10:17:16.741Z</time>
      </trkpt>
      <trkpt lat="42.72031" lon="18.19047">
        <ele>314.212469</ele>
        <time>2022-06-10T10:17:19.713Z</time>
      </trkpt>
      <trkpt lat="42.72042" lon="18.19056">
        <ele>313.91494</ele>
        <time>2022-06-10T10:17:22.714Z</time>
      </trkpt>
      <trkpt lat="42.72052" lon="18.19065">
        <ele>313.626131</ele>
        <time>2022-06-10T10:17:25.709Z</time>
      </trkpt>
      <trkpt lat="42.72063" lon="18.19075">
        <ele>313.348657</ele>
        <time>2022-06-10T10:17:28.698Z</time>
      </trkpt>
      <trkpt lat="42.72074" lon="18.19084">
        <ele>313.053219</ele>
        <time>2022-06-10T10:17:31.695Z</time>
      </trkpt>
      <trkpt lat="42.72084" lon="18.19093">
        <ele>312.822453</ele>
        <time>2022-06-10T10:17:34.715Z</time>
      </trkpt>
      <trkpt lat="42.72095" lon="18.19101">
        <ele>312.986856</ele>
        <time>2022-06-10T10:17:37.745Z</time>
      </trkpt>
      <trkpt lat="42.72105" lon="18.19109">
        <ele>313.142924</ele>
        <time>2022-06-10T10:17:40.711Z</time>
      </trkpt>
      <trkpt lat="42.72115" lon="18.19117">
        <ele>313.301856</ele>
        <time>2022-06-10T10:17:43.714Z</time>
      </trkpt>
      <trkpt lat="42.72125" lon="18.19126">
        <ele>313.467775</ele>
        <time>2022-06-10T10:17:46.716Z</time>
      </trkpt>
      <trkpt lat="42.72136" lon="18.19134">
        <ele>313.633944</ele>
        <time>2022-06-10T10:17:49.704Z</time>
      </trkpt>
      <trkpt lat="42.72146" lon="18.19142">
        <ele>313.794395</ele>
        <time>2022-06-10T10:17:52.738Z</time>
      </trkpt>
      <trkpt lat="42.72156" lon="18.1915">
        <ele>313.949963</ele>
        <time>2022-06-10T10:17:55.700Z</time>
      </trkpt>
      <trkpt lat="42.72166" lon="18.19158">
        <ele>314.113443</ele>
        <time>2022-06-10T10:17:58.732Z</time>
      </trkpt>
      <trkpt lat="42.72176" lon="18.19166">
        <ele>314.272578</ele>
        <time>2022-06-10T10:18:01.702Z</time>
      </trkpt>
      <trkpt lat="42.72186" lon="18.19174">
        <ele>314.428487</ele>
        <time>2022-06-10T10:18:04.700Z</time>
      </trkpt>
      <trkpt lat="42.72196" lon="18.19182">
        <ele>314.590624</ele>
        <time>2022-06-10T10:18:07.742Z</time>
      </trkpt>
      <trkpt lat="42.72207" lon="18.1919">
        <ele>314.75697</ele>
        <time>2022-06-10T10:18:10.709Z</time>
      </trkpt>
      <trkpt lat="42.72217" lon="18.19198">
        <ele>314.919223</ele>
        <time>2022-06-10T10:18:13.718Z</time>
      </trkpt>
      <trkpt lat="42.72227" lon="18.19207">
        <ele>315.081689</ele>
        <time>2022-06-10T10:18:16.740Z</time>
      </trkpt>
      <trkpt lat="42.72238" lon="18.19215">
        <ele>315.246173</ele>
        <time>2022-06-10T10:18:19.706Z</time>
      </trkpt>
      <trkpt lat="42.72248" lon="18.19223">
        <ele>315.070329</ele>
        <time>2022-06-10T10:18:22.747Z</time>
      </trkpt>
      <trkpt lat="42.72259" lon="18.1923">
        <ele>314.872596</ele>
        <time>2022-06-10T10:18:25.720Z</time>
      </trkpt>
      <trkpt lat="42.72269" lon="18.19239">
        <ele>314.669542</ele>
        <time>2022-06-10T10:18:28.761Z</time>
      </trkpt>
      <trkpt lat="42.7228" lon="18.19247">
        <ele>314.463331</ele>
        <time>2022-06-10T10:18:31.716Z</time>
      </trkpt>
      <trkpt lat="42.7229" lon="18.19255">
        <ele>314.256966</ele>
        <time>2022-06-10T10:18:34.715Z</time>
      </trkpt>
      <trkpt lat="42.72301" lon="18.19263">
        <ele>314.053074</ele>
        <time>2022-06-10T10:18:37.734Z</time>
      </trkpt>
      <trkpt lat="42.72312" lon="18.19271">
        <ele>313.850463</ele>
        <time>2022-06-10T10:18:40.703Z</time>
      </trkpt>
      <trkpt lat="42.72322" lon="18.19279">
        <ele>313.653165</ele>
        <time>2022-06-10T10:18:43.714Z</time>
      </trkpt>
      <trkpt lat="42.72332" lon="18.19286">
        <ele>313.462819</ele>
        <time>2022-06-10T10:18:46.717Z</time>
      </trkpt>
      <trkpt lat="42.72342" lon="18.19293">
        <ele>313.269744</ele>
        <time>2022-06-10T10:18:49.717Z</time>
      </trkpt>
      <trkpt lat="42.72352" lon="18.19302">
        <ele>313.075944</ele>
        <time>2022-06-10T10:18:52.716Z</time>
      </trkpt>
      <trkpt lat="42.72362" lon="18.19309">
        <ele>312.890411</ele>
        <time>2022-06-10T10:18:55.703Z</time>
      </trkpt>
      <trkpt lat="42.72371" lon="18.19318">
        <ele>312.707226</ele>
        <time>2022-06-10T10:18:58.707Z</time>
      </trkpt>
      <trkpt lat="42.7238" lon="18.19325">
        <ele>312.529142</ele>
        <time>2022-06-10T10:19:01.709Z</time>
      </trkpt>
      <trkpt lat="42.72389" lon="18.19332">
        <ele>312.360939</ele>
        <time>2022-06-10T10:19:04.721Z</time>
      </trkpt>
      <trkpt lat="42.72398" lon="18.1934">
        <ele>312.232408</ele>
        <time>2022-06-10T10:19:07.738Z</time>
      </trkpt>
      <trkpt lat="42.72408" lon="18.19347">
        <ele>312.18438</ele>
        <time>2022-06-10T10:19:10.715Z</time>
      </trkpt>
      <trkpt lat="42.72417" lon="18.19354">
        <ele>312.140002</ele>
        <time>2022-06-10T10:19:13.715Z</time>
      </trkpt>
      <trkpt lat="42.72427" lon="18.19361">
        <ele>312.09373</ele>
        <time>2022-06-10T10:19:16.735Z</time>
      </trkpt>
      <trkpt lat="42.72436" lon="18.19369">
        <ele>312.048991</ele>
        <time>2022-06-10T10:19:19.720Z</time>
      </trkpt>
      <trkpt lat="42.72445" lon="18.19375">
        <ele>312.009044</ele>
        <time>2022-06-10T10:19:22.703Z</time>
      </trkpt>
      <trkpt lat="42.72453" lon="18.19381">
        <ele>311.971578</ele>
        <time>2022-06-10T10:19:25.714Z</time>
      </trkpt>
      <trkpt lat="42.72461" lon="18.19388">
        <ele>311.930528</ele>
        <time>2022-06-10T10:19:28.703Z</time>
      </trkpt>
      <trkpt lat="42.7247" lon="18.19394">
        <ele>311.888555</ele>
        <time>2022-06-10T10:19:31.708Z</time>
      </trkpt>
      <trkpt lat="42.72479" lon="18.19401">
        <ele>311.84786</ele>
        <time>2022-06-10T10:19:34.715Z</time>
      </trkpt>
      <trkpt lat="42.72487" lon="18.19408">
        <ele>311.807713</ele>
        <time>2022-06-10T10:19:37.707Z</time>
      </trkpt>
      <trkpt lat="42.72495" lon="18.19415">
        <ele>311.767916</ele>
        <time>2022-06-10T10:19:40.711Z</time>
      </trkpt>
      <trkpt lat="42.72503" lon="18.19422">
        <ele>311.72922</ele>
        <time>2022-06-10T10:19:43.716Z</time>
      </trkpt>
      <trkpt lat="42.72511" lon="18.19428">
        <ele>311.690095</ele>
        <time>2022-06-10T10:19:46.726Z</time>
      </trkpt>
      <trkpt lat="42.7252" lon="18.19434">
        <ele>311.649166</ele>
        <time>2022-06-10T10:19:49.709Z</time>
      </trkpt>
      <trkpt lat="42.72529" lon="18.19439">
        <ele>311.607111</ele>
        <time>2022-06-10T10:19:52.718Z</time>
      </trkpt>
      <trkpt lat="42.72538" lon="18.19445">
        <ele>311.567808</ele>
        <time>2022-06-10T10:19:55.706Z</time>
      </trkpt>
      <trkpt lat="42.72547" lon="18.1945">
        <ele>311.525488</ele>
        <time>2022-06-10T10:19:58.741Z</time>
      </trkpt>
      <trkpt lat="42.72556" lon="18.19454">
        <ele>311.575117</ele>
        <time>2022-06-10T10:20:01.699Z</time>
      </trkpt>
      <trkpt lat="42.72566" lon="18.19458">
        <ele>311.745332</ele>
        <time>2022-06-10T10:20:04.700Z</time>
      </trkpt>
      <trkpt lat="42.72575" lon="18.19461">
        <ele>311.919008</ele>
        <time>2022-06-10T10:20:07.703Z</time>
      </trkpt>
      <trkpt lat="42.72584" lon="18.19465">
        <ele>312.088286</ele>
        <time>2022-06-10T10:20:10.712Z</time>
      </trkpt>
      <trkpt lat="42.72594" lon="18.19467">
        <ele>312.259494</ele>
        <time>2022-06-10T10:20:13.698Z</time>
      </trkpt>
      <trkpt lat="42.72604" lon="18.19469">
        <ele>312.440068</ele>
        <time>2022-06-10T10:20:16.713Z</time>
      </trkpt>
      <trkpt lat="42.72614" lon="18.1947">
        <ele>312.625632</ele>
        <time>2022-06-10T10:20:19.709Z</time>
      </trkpt>
      <trkpt lat="42.72624" lon="18.19472">
        <ele>312.804445</ele>
        <time>2022-06-10T10:20:22.718Z</time>
      </trkpt>
      <trkpt lat="42.72635" lon="18.19473">
        <ele>312.987579</ele>
        <time>2022-06-10T10:20:25.703Z</time>
      </trkpt>
      <trkpt lat="42.72645" lon="18.19472">
        <ele>313.166958</ele>
        <time>2022-06-10T10:20:28.763Z</time>
      </trkpt>
      <trkpt lat="42.72654" lon="18.19471">
        <ele>313.337698</ele>
        <time>2022-06-10T10:20:31.696Z</time>
      </trkpt>
      <trkpt lat="42.72663" lon="18.19471">
        <ele>313.499185</ele>
        <time>2022-06-10T10:20:34.708Z</time>
      </trkpt>
      <trkpt lat="42.72674" lon="18.19478">
        <ele>313.700136</ele>
        <time>2022-06-10T10:20:38.716Z</time>
      </trkpt>
      <trkpt lat="42.72681" lon="18.19487">
        <ele>313.877079</ele>
        <time>2022-06-10T10:20:41.703Z</time>
      </trkpt>
      <trkpt lat="42.72689" lon="18.19497">
        <ele>314.065446</ele>
        <time>2022-06-10T10:20:44.708Z</time>
      </trkpt>
      <trkpt lat="42.72697" lon="18.19506">
        <ele>314.256188</ele>
        <time>2022-06-10T10:20:47.766Z</time>
      </trkpt>
      <trkpt lat="42.72706" lon="18.19516">
        <ele>314.452401</ele>
        <time>2022-06-10T10:20:50.704Z</time>
      </trkpt>
      <trkpt lat="42.72715" lon="18.19529">
        <ele>314.684653</ele>
        <time>2022-06-10T10:20:53.716Z</time>
      </trkpt>
      <trkpt lat="42.72724" lon="18.19539">
        <ele>315.016865</ele>
        <time>2022-06-10T10:20:56.717Z</time>
      </trkpt>
      <trkpt lat="42.72733" lon="18.19545">
        <ele>315.320748</ele>
        <time>2022-06-10T10:20:59.701Z</time>
      </trkpt>
      <trkpt lat="42.72744" lon="18.19547">
        <ele>315.624668</ele>
        <time>2022-06-10T10:21:02.698Z</time>
      </trkpt>
      <trkpt lat="42.72755" lon="18.1955">
        <ele>315.952431</ele>
        <time>2022-06-10T10:21:06.758Z</time>
      </trkpt>
      <trkpt lat="42.72764" lon="18.19551">
        <ele>316.220216</ele>
        <time>2022-06-10T10:21:10.708Z</time>
      </trkpt>
      <trkpt lat="42.72774" lon="18.19551">
        <ele>316.513271</ele>
        <time>2022-06-10T10:21:14.716Z</time>
      </trkpt>
      <trkpt lat="42.72785" lon="18.19549">
        <ele>316.835556</ele>
        <time>2022-06-10T10:21:18.709Z</time>
      </trkpt>
      <trkpt lat="42.72794" lon="18.19548">
        <ele>317.111599</ele>
        <time>2022-06-10T10:21:21.705Z</time>
      </trkpt>
      <trkpt lat="42.72804" lon="18.19548">
        <ele>317.387641</ele>
        <time>2022-06-10T10:21:24.716Z</time>
      </trkpt>
      <trkpt lat="42.72816" lon="18.19547">
        <ele>317.733711</ele>
        <time>2022-06-10T10:21:28.748Z</time>
      </trkpt>
      <trkpt lat="42.72827" lon="18.19546">
        <ele>318.056478</ele>
        <time>2022-06-10T10:21:32.714Z</time>
      </trkpt>
      <trkpt lat="42.72837" lon="18.19545">
        <ele>318.34972</ele>
        <time>2022-06-10T10:21:36.702Z</time>
      </trkpt>
      <trkpt lat="42.72847" lon="18.19541">
        <ele>318.643624</ele>
        <time>2022-06-10T10:21:40.721Z</time>
      </trkpt>
      <trkpt lat="42.72856" lon="18.19532">
        <ele>318.979636</ele>
        <time>2022-06-10T10:21:44.745Z</time>
      </trkpt>
      <trkpt lat="42.72864" lon="18.19525">
        <ele>319.245912</ele>
        <time>2022-06-10T10:21:47.708Z</time>
      </trkpt>
      <trkpt lat="42.72871" lon="18.19517">
        <ele>319.521057</ele>
        <time>2022-06-10T10:21:50.730Z</time>
      </trkpt>
      <trkpt lat="42.72879" lon="18.19508">
        <ele>319.811146</ele>
        <time>2022-06-10T10:21:53.704Z</time>
      </trkpt>
      <trkpt lat="42.72886" lon="18.19499">
        <ele>319.827657</ele>
        <time>2022-06-10T10:21:56.739Z</time>
      </trkpt>
      <trkpt lat="42.72893" lon="18.19491">
        <ele>319.707671</ele>
        <time>2022-06-10T10:21:59.725Z</time>
      </trkpt>
      <trkpt lat="42.72899" lon="18.19481">
        <ele>319.587391</ele>
        <time>2022-06-10T10:22:02.753Z</time>
      </trkpt>
      <trkpt lat="42.72907" lon="18.19472">
        <ele>319.456134</ele>
        <time>2022-06-10T10:22:07.696Z</time>
      </trkpt>
      <trkpt lat="42.72922" lon="18.19484">
        <ele>319.228053</ele>
        <time>2022-06-10T10:25:44.714Z</time>
      </trkpt>
      <trkpt lat="42.72932" lon="18.1949">
        <ele>319.082064</ele>
        <time>2022-06-10T10:25:47.722Z</time>
      </trkpt>
      <trkpt lat="42.72942" lon="18.19497">
        <ele>318.935035</ele>
        <time>2022-06-10T10:25:50.711Z</time>
      </trkpt>
      <trkpt lat="42.72951" lon="18.19504">
        <ele>318.807169</ele>
        <time>2022-06-10T10:25:53.710Z</time>
      </trkpt>
      <trkpt lat="42.72959" lon="18.19511">
        <ele>318.678856</ele>
        <time>2022-06-10T10:25:56.738Z</time>
      </trkpt>
      <trkpt lat="42.72968" lon="18.19516">
        <ele>318.549247</ele>
        <time>2022-06-10T10:25:59.716Z</time>
      </trkpt>
      <trkpt lat="42.7298" lon="18.1952">
        <ele>318.400717</ele>
        <time>2022-06-10T10:26:03.688Z</time>
      </trkpt>
      <trkpt lat="42.72989" lon="18.19517">
        <ele>318.272037</ele>
        <time>2022-06-10T10:26:07.707Z</time>
      </trkpt>
      <trkpt lat="42.72998" lon="18.19513">
        <ele>318.147752</ele>
        <time>2022-06-10T10:26:11.725Z</time>
      </trkpt>
      <trkpt lat="42.73008" lon="18.19506">
        <ele>318.003726</ele>
        <time>2022-06-10T10:26:15.708Z</time>
      </trkpt>
      <trkpt lat="42.73019" lon="18.19498">
        <ele>317.85025</ele>
        <time>2022-06-10T10:26:19.703Z</time>
      </trkpt>
      <trkpt lat="42.73027" lon="18.19491">
        <ele>317.716178</ele>
        <time>2022-06-10T10:26:22.716Z</time>
      </trkpt>
      <trkpt lat="42.73037" lon="18.19485">
        <ele>317.575237</ele>
        <time>2022-06-10T10:26:25.709Z</time>
      </trkpt>
      <trkpt lat="42.73047" lon="18.19482">
        <ele>317.700531</ele>
        <time>2022-06-10T10:26:28.707Z</time>
      </trkpt>
      <trkpt lat="42.73057" lon="18.19483">
        <ele>317.819844</ele>
        <time>2022-06-10T10:26:31.706Z</time>
      </trkpt>
      <trkpt lat="42.73069" lon="18.19486">
        <ele>317.966253</ele>
        <time>2022-06-10T10:26:35.703Z</time>
      </trkpt>
      <trkpt lat="42.7308" lon="18.19488">
        <ele>318.101349</ele>
        <time>2022-06-10T10:26:39.711Z</time>
      </trkpt>
      <trkpt lat="42.73089" lon="18.1949">
        <ele>318.217824</ele>
        <time>2022-06-10T10:26:42.699Z</time>
      </trkpt>
      <trkpt lat="42.73098" lon="18.19492">
        <ele>318.336345</ele>
        <time>2022-06-10T10:26:45.702Z</time>
      </trkpt>
      <trkpt lat="42.73109" lon="18.19493">
        <ele>318.460565</ele>
        <time>2022-06-10T10:26:50.714Z</time>
      </trkpt>
      <trkpt lat="42.73118" lon="18.19491">
        <ele>318.577755</ele>
        <time>2022-06-10T10:26:55.715Z</time>
      </trkpt>
      <trkpt lat="42.73129" lon="18.19489">
        <ele>318.708533</ele>
        <time>2022-06-10T10:26:59.716Z</time>
      </trkpt>
      <trkpt lat="42.73139" lon="18.19484">
        <ele>318.844298</ele>
        <time>2022-06-10T10:27:03.697Z</time>
      </trkpt>
      <trkpt lat="42.73149" lon="18.19479">
        <ele>318.978082</ele>
        <time>2022-06-10T10:27:07.714Z</time>
      </trkpt>
      <trkpt lat="42.73155" lon="18.19466">
        <ele>319.116504</ele>
        <time>2022-06-10T10:27:11.720Z</time>
      </trkpt>
      <trkpt lat="42.7315" lon="18.19453">
        <ele>319.249683</ele>
        <time>2022-06-10T10:27:15.711Z</time>
      </trkpt>
      <trkpt lat="42.73141" lon="18.19443">
        <ele>319.392493</ele>
        <time>2022-06-10T10:27:19.705Z</time>
      </trkpt>
      <trkpt lat="42.73132" lon="18.19433">
        <ele>319.53862</ele>
        <time>2022-06-10T10:27:23.704Z</time>
      </trkpt>
      <trkpt lat="42.73124" lon="18.19424">
        <ele>319.66535</ele>
        <time>2022-06-10T10:27:26.755Z</time>
      </trkpt>
      <trkpt lat="42.73115" lon="18.19412">
        <ele>319.785327</ele>
        <time>2022-06-10T10:27:29.700Z</time>
      </trkpt>
      <trkpt lat="42.73105" lon="18.194">
        <ele>319.791733</ele>
        <time>2022-06-10T10:27:32.753Z</time>
      </trkpt>
      <trkpt lat="42.73096" lon="18.19388">
        <ele>319.79796</ele>
        <time>2022-06-10T10:27:35.701Z</time>
      </trkpt>
      <trkpt lat="42.73086" lon="18.19375">
        <ele>319.804361</ele>
        <time>2022-06-10T10:27:38.707Z</time>
      </trkpt>
      <trkpt lat="42.73078" lon="18.19363">
        <ele>319.810227</ele>
        <time>2022-06-10T10:27:41.708Z</time>
      </trkpt>
      <trkpt lat="42.73069" lon="18.19352">
        <ele>319.816123</ele>
        <time>2022-06-10T10:27:44.737Z</time>
      </trkpt>
      <trkpt lat="42.7306" lon="18.1934">
        <ele>319.821974</ele>
        <time>2022-06-10T10:27:47.710Z</time>
      </trkpt>
      <trkpt lat="42.73055" lon="18.19327">
        <ele>319.827127</ele>
        <time>2022-06-10T10:27:50.713Z</time>
      </trkpt>
      <trkpt lat="42.73052" lon="18.19312">
        <ele>319.832583</ele>
        <time>2022-06-10T10:27:53.704Z</time>
      </trkpt>
      <trkpt lat="42.73051" lon="18.19296">
        <ele>319.838338</ele>
        <time>2022-06-10T10:27:56.705Z</time>
      </trkpt>
      <trkpt lat="42.73056" lon="18.19282">
        <ele>319.843696</ele>
        <time>2022-06-10T10:27:59.691Z</time>
      </trkpt>
      <trkpt lat="42.73064" lon="18.19273">
        <ele>319.848597</ele>
        <time>2022-06-10T10:28:02.701Z</time>
      </trkpt>
      <trkpt lat="42.73074" lon="18.19266">
        <ele>319.853873</ele>
        <time>2022-06-10T10:28:05.732Z</time>
      </trkpt>
      <trkpt lat="42.73084" lon="18.19262">
        <ele>319.858856</ele>
        <time>2022-06-10T10:28:08.685Z</time>
      </trkpt>
      <trkpt lat="42.73093" lon="18.19257">
        <ele>319.863873</ele>
        <time>2022-06-10T10:28:11.732Z</time>
      </trkpt>
      <trkpt lat="42.73105" lon="18.19251">
        <ele>319.869575</ele>
        <time>2022-06-10T10:28:14.712Z</time>
      </trkpt>
      <trkpt lat="42.73116" lon="18.19245">
        <ele>319.664026</ele>
        <time>2022-06-10T10:28:17.716Z</time>
      </trkpt>
      <trkpt lat="42.73127" lon="18.19241">
        <ele>319.431436</ele>
        <time>2022-06-10T10:28:20.702Z</time>
      </trkpt>
      <trkpt lat="42.73138" lon="18.19235">
        <ele>319.19406</ele>
        <time>2022-06-10T10:28:23.715Z</time>
      </trkpt>
      <trkpt lat="42.73149" lon="18.1923">
        <ele>318.948053</ele>
        <time>2022-06-10T10:28:26.700Z</time>
      </trkpt>
      <trkpt lat="42.73161" lon="18.19225">
        <ele>318.70491</ele>
        <time>2022-06-10T10:28:29.702Z</time>
      </trkpt>
      <trkpt lat="42.73172" lon="18.19219">
        <ele>318.451209</ele>
        <time>2022-06-10T10:28:32.707Z</time>
      </trkpt>
      <trkpt lat="42.73184" lon="18.19213">
        <ele>318.200298</ele>
        <time>2022-06-10T10:28:35.717Z</time>
      </trkpt>
      <trkpt lat="42.73195" lon="18.19208">
        <ele>317.961279</ele>
        <time>2022-06-10T10:28:38.698Z</time>
      </trkpt>
      <trkpt lat="42.73206" lon="18.19202">
        <ele>317.730054</ele>
        <time>2022-06-10T10:28:41.705Z</time>
      </trkpt>
      <trkpt lat="42.73217" lon="18.19197">
        <ele>317.480671</ele>
        <time>2022-06-10T10:28:44.736Z</time>
      </trkpt>
      <trkpt lat="42.73229" lon="18.19191">
        <ele>317.23024</ele>
        <time>2022-06-10T10:28:47.718Z</time>
      </trkpt>
      <trkpt lat="42.7324" lon="18.19185">
        <ele>316.979329</ele>
        <time>2022-06-10T10:28:50.754Z</time>
      </trkpt>
      <trkpt lat="42.73251" lon="18.19179">
        <ele>316.741653</ele>
        <time>2022-06-10T10:28:53.709Z</time>
      </trkpt>
      <trkpt lat="42.73263" lon="18.19173">
        <ele>316.49316</ele>
        <time>2022-06-10T10:28:56.782Z</time>
      </trkpt>
      <trkpt lat="42.73275" lon="18.19168">
        <ele>316.242304</ele>
        <time>2022-06-10T10:28:59.706Z</time>
      </trkpt>
      <trkpt lat="42.73286" lon="18.19161">
        <ele>316.162396</ele>
        <time>2022-06-10T10:29:02.708Z</time>
      </trkpt>
      <trkpt lat="42.73298" lon="18.19155">
        <ele>316.093386</ele>
        <time>2022-06-10T10:29:05.722Z</time>
      </trkpt>
      <trkpt lat="42.7331" lon="18.19148">
        <ele>316.024917</ele>
        <time>2022-06-10T10:29:08.714Z</time>
      </trkpt>
      <trkpt lat="42.73322" lon="18.19141">
        <ele>315.953524</ele>
        <time>2022-06-10T10:29:11.712Z</time>
      </trkpt>
      <trkpt lat="42.73334" lon="18.19135">
        <ele>315.886905</ele>
        <time>2022-06-10T10:29:14.703Z</time>
      </trkpt>
      <trkpt lat="42.73345" lon="18.1913">
        <ele>315.820664</ele>
        <time>2022-06-10T10:29:17.704Z</time>
      </trkpt>
      <trkpt lat="42.73357" lon="18.19124">
        <ele>315.751995</ele>
        <time>2022-06-10T10:29:20.720Z</time>
      </trkpt>
      <trkpt lat="42.73369" lon="18.19118">
        <ele>315.684738</ele>
        <time>2022-06-10T10:29:23.720Z</time>
      </trkpt>
      <trkpt lat="42.73381" lon="18.19112">
        <ele>315.61671</ele>
        <time>2022-06-10T10:29:26.711Z</time>
      </trkpt>
      <trkpt lat="42.73393" lon="18.19107">
        <ele>315.548436</ele>
        <time>2022-06-10T10:29:29.700Z</time>
      </trkpt>
      <trkpt lat="42.73405" lon="18.191">
        <ele>315.480073</ele>
        <time>2022-06-10T10:29:32.724Z</time>
      </trkpt>
      <trkpt lat="42.73416" lon="18.19094">
        <ele>315.411911</ele>
        <time>2022-06-10T10:29:35.711Z</time>
      </trkpt>
      <trkpt lat="42.73429" lon="18.19088">
        <ele>315.341961</ele>
        <time>2022-06-10T10:29:38.711Z</time>
      </trkpt>
      <trkpt lat="42.73441" lon="18.19081">
        <ele>315.273097</ele>
        <time>2022-06-10T10:29:41.697Z</time>
      </trkpt>
      <trkpt lat="42.73452" lon="18.19076">
        <ele>315.181969</ele>
        <time>2022-06-10T10:29:44.706Z</time>
      </trkpt>
      <trkpt lat="42.73464" lon="18.1907">
        <ele>315.078126</ele>
        <time>2022-06-10T10:29:47.743Z</time>
      </trkpt>
      <trkpt lat="42.73476" lon="18.19063">
        <ele>314.974061</ele>
        <time>2022-06-10T10:29:50.715Z</time>
      </trkpt>
      <trkpt lat="42.73487" lon="18.19057">
        <ele>314.869315</ele>
        <time>2022-06-10T10:29:53.726Z</time>
      </trkpt>
      <trkpt lat="42.73499" lon="18.1905">
        <ele>314.763375</ele>
        <time>2022-06-10T10:29:56.717Z</time>
      </trkpt>
      <trkpt lat="42.73508" lon="18.19045">
        <ele>314.688739</ele>
        <time>2022-06-10T10:29:58.757Z</time>
      </trkpt>
      <trkpt lat="42.73516" lon="18.1904">
        <ele>314.615001</ele>
        <time>2022-06-10T10:30:00.704Z</time>
      </trkpt>
      <trkpt lat="42.73528" lon="18.19035">
        <ele>314.508356</ele>
        <time>2022-06-10T10:30:03.706Z</time>
      </trkpt>
      <trkpt lat="42.7354" lon="18.19029">
        <ele>314.407319</ele>
        <time>2022-06-10T10:30:06.721Z</time>
      </trkpt>
      <trkpt lat="42.73552" lon="18.19022">
        <ele>314.301817</ele>
        <time>2022-06-10T10:30:09.707Z</time>
      </trkpt>
      <trkpt lat="42.73564" lon="18.19014">
        <ele>314.194819</ele>
        <time>2022-06-10T10:30:12.709Z</time>
      </trkpt>
      <trkpt lat="42.73575" lon="18.19009">
        <ele>314.096319</ele>
        <time>2022-06-10T10:30:15.704Z</time>
      </trkpt>
      <trkpt lat="42.73587" lon="18.19003">
        <ele>313.990838</ele>
        <time>2022-06-10T10:30:18.710Z</time>
      </trkpt>
      <trkpt lat="42.73599" lon="18.18998">
        <ele>313.886884</ele>
        <time>2022-06-10T10:30:21.746Z</time>
      </trkpt>
      <trkpt lat="42.73611" lon="18.18992">
        <ele>313.779597</ele>
        <time>2022-06-10T10:30:24.737Z</time>
      </trkpt>
      <trkpt lat="42.73623" lon="18.18986">
        <ele>313.619954</ele>
        <time>2022-06-10T10:30:27.765Z</time>
      </trkpt>
      <trkpt lat="42.73635" lon="18.18979">
        <ele>313.464102</ele>
        <time>2022-06-10T10:30:30.699Z</time>
      </trkpt>
      <trkpt lat="42.73647" lon="18.18973">
        <ele>313.309062</ele>
        <time>2022-06-10T10:30:33.713Z</time>
      </trkpt>
      <trkpt lat="42.73658" lon="18.18967">
        <ele>313.152387</ele>
        <time>2022-06-10T10:30:36.736Z</time>
      </trkpt>
      <trkpt lat="42.7367" lon="18.18961">
        <ele>313.000789</ele>
        <time>2022-06-10T10:30:39.702Z</time>
      </trkpt>
      <trkpt lat="42.73682" lon="18.18955">
        <ele>312.84444</ele>
        <time>2022-06-10T10:30:42.704Z</time>
      </trkpt>
      <trkpt lat="42.73694" lon="18.18948">
        <ele>312.684927</ele>
        <time>2022-06-10T10:30:45.717Z</time>
      </trkpt>
      <trkpt lat="42.73706" lon="18.18942">
        <ele>312.523921</ele>
        <time>2022-06-10T10:30:48.731Z</time>
      </trkpt>
      <trkpt lat="42.73718" lon="18.18936">
        <ele>312.363548</ele>
        <time>2022-06-10T10:30:51.733Z</time>
      </trkpt>
      <trkpt lat="42.7373" lon="18.18929">
        <ele>312.203078</ele>
        <time>2022-06-10T10:30:54.714Z</time>
      </trkpt>
      <trkpt lat="42.73742" lon="18.18923">
        <ele>312.049043</ele>
        <time>2022-06-10T10:30:57.703Z</time>
      </trkpt>
      <trkpt lat="42.73753" lon="18.18916">
        <ele>311.887733</ele>
        <time>2022-06-10T10:31:00.730Z</time>
      </trkpt>
      <trkpt lat="42.73765" lon="18.18909">
        <ele>311.726727</ele>
        <time>2022-06-10T10:31:03.722Z</time>
      </trkpt>
      <trkpt lat="42.73777" lon="18.18902">
        <ele>311.568006</ele>
        <time>2022-06-10T10:31:06.716Z</time>
      </trkpt>
      <trkpt lat="42.73789" lon="18.18894">
        <ele>311.538046</ele>
        <time>2022-06-10T10:31:09.703Z</time>
      </trkpt>
      <trkpt lat="42.738" lon="18.18887">
        <ele>311.519316</ele>
        <time>2022-06-10T10:31:12.708Z</time>
      </trkpt>
      <trkpt lat="42.73811" lon="18.18879">
        <ele>311.500414</ele>
        <time>2022-06-10T10:31:15.707Z</time>
      </trkpt>
      <trkpt lat="42.73822" lon="18.18871">
        <ele>311.481447</ele>
        <time>2022-06-10T10:31:18.729Z</time>
      </trkpt>
      <trkpt lat="42.73833" lon="18.18863">
        <ele>311.4625</ele>
        <time>2022-06-10T10:31:21.715Z</time>
      </trkpt>
      <trkpt lat="42.73844" lon="18.18854">
        <ele>311.4434</ele>
        <time>2022-06-10T10:31:24.704Z</time>
      </trkpt>
      <trkpt lat="42.73855" lon="18.18846">
        <ele>311.424584</ele>
        <time>2022-06-10T10:31:27.707Z</time>
      </trkpt>
      <trkpt lat="42.73865" lon="18.18837">
        <ele>311.406157</ele>
        <time>2022-06-10T10:31:30.744Z</time>
      </trkpt>
      <trkpt lat="42.73875" lon="18.18829">
        <ele>311.387975</ele>
        <time>2022-06-10T10:31:33.717Z</time>
      </trkpt>
      <trkpt lat="42.73885" lon="18.1882">
        <ele>311.369865</ele>
        <time>2022-06-10T10:31:36.715Z</time>
      </trkpt>
      <trkpt lat="42.73896" lon="18.18812">
        <ele>311.351553</ele>
        <time>2022-06-10T10:31:39.713Z</time>
      </trkpt>
      <trkpt lat="42.73906" lon="18.18802">
        <ele>311.332212</ele>
        <time>2022-06-10T10:31:42.728Z</time>
      </trkpt>
      <trkpt lat="42.73916" lon="18.18792">
        <ele>311.313806</ele>
        <time>2022-06-10T10:31:45.743Z</time>
      </trkpt>
      <trkpt lat="42.73926" lon="18.18783">
        <ele>311.295276</ele>
        <time>2022-06-10T10:31:48.743Z</time>
      </trkpt>
      <trkpt lat="42.73936" lon="18.18773">
        <ele>311.282551</ele>
        <time>2022-06-10T10:31:51.721Z</time>
      </trkpt>
      <trkpt lat="42.73946" lon="18.18763">
        <ele>311.278775</ele>
        <time>2022-06-10T10:31:54.705Z</time>
      </trkpt>
      <trkpt lat="42.73956" lon="18.18753">
        <ele>311.27505</ele>
        <time>2022-06-10T10:31:57.730Z</time>
      </trkpt>
      <trkpt lat="42.73966" lon="18.18743">
        <ele>311.271251</ele>
        <time>2022-06-10T10:32:00.709Z</time>
      </trkpt>
      <trkpt lat="42.73976" lon="18.18734">
        <ele>311.267563</ele>
        <time>2022-06-10T10:32:03.702Z</time>
      </trkpt>
      <trkpt lat="42.73986" lon="18.18724">
        <ele>311.263888</ele>
        <time>2022-06-10T10:32:06.724Z</time>
      </trkpt>
      <trkpt lat="42.73996" lon="18.18716">
        <ele>311.26031</ele>
        <time>2022-06-10T10:32:09.718Z</time>
      </trkpt>
      <trkpt lat="42.74006" lon="18.18707">
        <ele>311.256933</ele>
        <time>2022-06-10T10:32:12.725Z</time>
      </trkpt>
      <trkpt lat="42.74014" lon="18.18697">
        <ele>311.253525</ele>
        <time>2022-06-10T10:32:15.731Z</time>
      </trkpt>
      <trkpt lat="42.74023" lon="18.18688">
        <ele>311.250233</ele>
        <time>2022-06-10T10:32:18.752Z</time>
      </trkpt>
      <trkpt lat="42.74033" lon="18.18679">
        <ele>311.246769</ele>
        <time>2022-06-10T10:32:21.708Z</time>
      </trkpt>
      <trkpt lat="42.74042" lon="18.1867">
        <ele>311.243094</ele>
        <time>2022-06-10T10:32:24.733Z</time>
      </trkpt>
      <trkpt lat="42.7405" lon="18.18662">
        <ele>311.240344</ele>
        <time>2022-06-10T10:32:26.710Z</time>
      </trkpt>
      <trkpt lat="42.74057" lon="18.18654">
        <ele>311.237524</ele>
        <time>2022-06-10T10:32:28.707Z</time>
      </trkpt>
      <trkpt lat="42.74067" lon="18.18643">
        <ele>311.233657</ele>
        <time>2022-06-10T10:32:31.717Z</time>
      </trkpt>
      <trkpt lat="42.74078" lon="18.18633">
        <ele>311.229718</ele>
        <time>2022-06-10T10:32:34.716Z</time>
      </trkpt>
      <trkpt lat="42.74088" lon="18.18622">
        <ele>311.356243</ele>
        <time>2022-06-10T10:32:37.699Z</time>
      </trkpt>
      <trkpt lat="42.74096" lon="18.18616">
        <ele>311.447291</ele>
        <time>2022-06-10T10:32:39.725Z</time>
      </trkpt>
      <trkpt lat="42.74106" lon="18.18606">
        <ele>311.571016</ele>
        <time>2022-06-10T10:32:42.723Z</time>
      </trkpt>
      <trkpt lat="42.74116" lon="18.18597">
        <ele>311.697664</ele>
        <time>2022-06-10T10:32:45.703Z</time>
      </trkpt>
      <trkpt lat="42.74127" lon="18.18587">
        <ele>311.824289</ele>
        <time>2022-06-10T10:32:48.716Z</time>
      </trkpt>
      <trkpt lat="42.74137" lon="18.18577">
        <ele>311.951867</ele>
        <time>2022-06-10T10:32:51.700Z</time>
      </trkpt>
      <trkpt lat="42.74148" lon="18.18567">
        <ele>312.080559</ele>
        <time>2022-06-10T10:32:54.720Z</time>
      </trkpt>
      <trkpt lat="42.74158" lon="18.18557">
        <ele>312.205567</ele>
        <time>2022-06-10T10:32:57.721Z</time>
      </trkpt>
      <trkpt lat="42.74168" lon="18.18547">
        <ele>312.336171</ele>
        <time>2022-06-10T10:33:00.696Z</time>
      </trkpt>
      <trkpt lat="42.74179" lon="18.18536">
        <ele>312.465794</ele>
        <time>2022-06-10T10:33:03.743Z</time>
      </trkpt>
      <trkpt lat="42.7419" lon="18.18525">
        <ele>312.600385</ele>
        <time>2022-06-10T10:33:06.702Z</time>
      </trkpt>
      <trkpt lat="42.74197" lon="18.18518">
        <ele>312.690352</ele>
        <time>2022-06-10T10:33:08.728Z</time>
      </trkpt>
      <trkpt lat="42.74207" lon="18.18508">
        <ele>312.818638</ele>
        <time>2022-06-10T10:33:11.702Z</time>
      </trkpt>
      <trkpt lat="42.74217" lon="18.18498">
        <ele>312.940321</ele>
        <time>2022-06-10T10:33:14.727Z</time>
      </trkpt>
      <trkpt lat="42.74226" lon="18.18488">
        <ele>313.078888</ele>
        <time>2022-06-10T10:33:17.716Z</time>
      </trkpt>
      <trkpt lat="42.74236" lon="18.18478">
        <ele>313.301128</ele>
        <time>2022-06-10T10:33:20.743Z</time>
      </trkpt>
      <trkpt lat="42.74246" lon="18.18469">
        <ele>313.524641</ele>
        <time>2022-06-10T10:33:23.720Z</time>
      </trkpt>
      <trkpt lat="42.74256" lon="18.18459">
        <ele>313.743041</ele>
        <time>2022-06-10T10:33:26.713Z</time>
      </trkpt>
      <trkpt lat="42.74266" lon="18.1845">
        <ele>313.965158</ele>
        <time>2022-06-10T10:33:29.709Z</time>
      </trkpt>
      <trkpt lat="42.74276" lon="18.1844">
        <ele>314.181173</ele>
        <time>2022-06-10T10:33:32.718Z</time>
      </trkpt>
      <trkpt lat="42.74286" lon="18.18431">
        <ele>314.407684</ele>
        <time>2022-06-10T10:33:35.717Z</time>
      </trkpt>
      <trkpt lat="42.74296" lon="18.18421">
        <ele>314.626709</ele>
        <time>2022-06-10T10:33:38.704Z</time>
      </trkpt>
      <trkpt lat="42.74306" lon="18.18411">
        <ele>314.852808</ele>
        <time>2022-06-10T10:33:41.716Z</time>
      </trkpt>
      <trkpt lat="42.74316" lon="18.18401">
        <ele>315.085508</ele>
        <time>2022-06-10T10:33:44.708Z</time>
      </trkpt>
      <trkpt lat="42.74326" lon="18.1839">
        <ele>315.317555</ele>
        <time>2022-06-10T10:33:47.719Z</time>
      </trkpt>
      <trkpt lat="42.74336" lon="18.18381">
        <ele>315.534328</ele>
        <time>2022-06-10T10:33:50.710Z</time>
      </trkpt>
      <trkpt lat="42.74346" lon="18.18372">
        <ele>315.742837</ele>
        <time>2022-06-10T10:33:53.700Z</time>
      </trkpt>
      <trkpt lat="42.74355" lon="18.18363">
        <ele>315.94912</ele>
        <time>2022-06-10T10:33:56.711Z</time>
      </trkpt>
      <trkpt lat="42.74364" lon="18.18354">
        <ele>316.157629</ele>
        <time>2022-06-10T10:33:59.720Z</time>
      </trkpt>
      <trkpt lat="42.74374" lon="18.18346">
        <ele>316.338456</ele>
        <time>2022-06-10T10:34:02.705Z</time>
      </trkpt>
      <trkpt lat="42.74383" lon="18.18337">
        <ele>316.481166</ele>
        <time>2022-06-10T10:34:05.736Z</time>
      </trkpt>
      <trkpt lat="42.74393" lon="18.18327">
        <ele>316.630963</ele>
        <time>2022-06-10T10:34:08.723Z</time>
      </trkpt>
      <trkpt lat="42.74403" lon="18.18317">
        <ele>316.775799</ele>
        <time>2022-06-10T10:34:11.713Z</time>
      </trkpt>
      <trkpt lat="42.74413" lon="18.18308">
        <ele>316.921963</ele>
        <time>2022-06-10T10:34:14.707Z</time>
      </trkpt>
      <trkpt lat="42.74422" lon="18.18298">
        <ele>317.060232</ele>
        <time>2022-06-10T10:34:17.718Z</time>
      </trkpt>
      <trkpt lat="42.74431" lon="18.18289">
        <ele>317.194421</ele>
        <time>2022-06-10T10:34:20.705Z</time>
      </trkpt>
      <trkpt lat="42.7444" lon="18.18281">
        <ele>317.33105</ele>
        <time>2022-06-10T10:34:23.698Z</time>
      </trkpt>
      <trkpt lat="42.74449" lon="18.18272">
        <ele>317.46114</ele>
        <time>2022-06-10T10:34:26.700Z</time>
      </trkpt>
      <trkpt lat="42.74458" lon="18.18264">
        <ele>317.59428</ele>
        <time>2022-06-10T10:34:29.704Z</time>
      </trkpt>
      <trkpt lat="42.74466" lon="18.18254">
        <ele>317.728692</ele>
        <time>2022-06-10T10:34:32.703Z</time>
      </trkpt>
      <trkpt lat="42.74476" lon="18.18244">
        <ele>317.877581</ele>
        <time>2022-06-10T10:34:35.709Z</time>
      </trkpt>
      <trkpt lat="42.74486" lon="18.18233">
        <ele>318.034386</ele>
        <time>2022-06-10T10:34:38.720Z</time>
      </trkpt>
      <trkpt lat="42.74496" lon="18.18223">
        <ele>318.188633</ele>
        <time>2022-06-10T10:34:41.752Z</time>
      </trkpt>
      <trkpt lat="42.74507" lon="18.18214">
        <ele>318.340852</ele>
        <time>2022-06-10T10:34:44.734Z</time>
      </trkpt>
      <trkpt lat="42.74517" lon="18.18205">
        <ele>318.477774</ele>
        <time>2022-06-10T10:34:47.706Z</time>
      </trkpt>
      <trkpt lat="42.74527" lon="18.18195">
        <ele>318.407219</ele>
        <time>2022-06-10T10:34:50.692Z</time>
      </trkpt>
      <trkpt lat="42.74537" lon="18.18185">
        <ele>318.335022</ele>
        <time>2022-06-10T10:34:53.724Z</time>
      </trkpt>
      <trkpt lat="42.74547" lon="18.18175">
        <ele>318.262112</ele>
        <time>2022-06-10T10:34:56.727Z</time>
      </trkpt>
      <trkpt lat="42.74557" lon="18.18164">
        <ele>318.187993</ele>
        <time>2022-06-10T10:34:59.719Z</time>
      </trkpt>
      <trkpt lat="42.74567" lon="18.18155">
        <ele>318.121963</ele>
        <time>2022-06-10T10:35:02.705Z</time>
      </trkpt>
      <trkpt lat="42.74576" lon="18.18146">
        <ele>318.056676</ele>
        <time>2022-06-10T10:35:05.695Z</time>
      </trkpt>
      <trkpt lat="42.74586" lon="18.18137">
        <ele>317.988061</ele>
        <time>2022-06-10T10:35:08.706Z</time>
      </trkpt>
      <trkpt lat="42.74596" lon="18.18128">
        <ele>317.917783</ele>
        <time>2022-06-10T10:35:11.734Z</time>
      </trkpt>
      <trkpt lat="42.74607" lon="18.18118">
        <ele>317.845611</ele>
        <time>2022-06-10T10:35:14.716Z</time>
      </trkpt>
      <trkpt lat="42.74616" lon="18.18108">
        <ele>317.775469</ele>
        <time>2022-06-10T10:35:17.720Z</time>
      </trkpt>
      <trkpt lat="42.74626" lon="18.18098">
        <ele>317.704202</ele>
        <time>2022-06-10T10:35:20.706Z</time>
      </trkpt>
      <trkpt lat="42.74636" lon="18.18089">
        <ele>317.63721</ele>
        <time>2022-06-10T10:35:23.755Z</time>
      </trkpt>
      <trkpt lat="42.74644" lon="18.1808">
        <ele>317.574991</ele>
        <time>2022-06-10T10:35:26.737Z</time>
      </trkpt>
      <trkpt lat="42.74654" lon="18.18071">
        <ele>317.510137</ele>
        <time>2022-06-10T10:35:29.701Z</time>
      </trkpt>
      <trkpt lat="42.74663" lon="18.18062">
        <ele>317.442347</ele>
        <time>2022-06-10T10:35:32.699Z</time>
      </trkpt>
      <trkpt lat="42.74672" lon="18.18052">
        <ele>317.312708</ele>
        <time>2022-06-10T10:35:35.714Z</time>
      </trkpt>
      <trkpt lat="42.74682" lon="18.18043">
        <ele>317.184549</ele>
        <time>2022-06-10T10:35:38.702Z</time>
      </trkpt>
      <trkpt lat="42.74692" lon="18.18033">
        <ele>317.055513</ele>
        <time>2022-06-10T10:35:41.727Z</time>
      </trkpt>
      <trkpt lat="42.74702" lon="18.18023">
        <ele>316.927925</ele>
        <time>2022-06-10T10:35:44.705Z</time>
      </trkpt>
      <trkpt lat="42.74712" lon="18.18013">
        <ele>316.79432</ele>
        <time>2022-06-10T10:35:47.713Z</time>
      </trkpt>
      <trkpt lat="42.74722" lon="18.18003">
        <ele>316.663494</ele>
        <time>2022-06-10T10:35:50.738Z</time>
      </trkpt>
      <trkpt lat="42.74732" lon="18.17994">
        <ele>316.536213</ele>
        <time>2022-06-10T10:35:53.724Z</time>
      </trkpt>
      <trkpt lat="42.74742" lon="18.17984">
        <ele>316.404967</ele>
        <time>2022-06-10T10:35:56.740Z</time>
      </trkpt>
      <trkpt lat="42.74752" lon="18.17974">
        <ele>316.272765</ele>
        <time>2022-06-10T10:35:59.723Z</time>
      </trkpt>
      <trkpt lat="42.74762" lon="18.17964">
        <ele>316.134008</ele>
        <time>2022-06-10T10:36:02.707Z</time>
      </trkpt>
      <trkpt lat="42.74772" lon="18.17954">
        <ele>316.001618</ele>
        <time>2022-06-10T10:36:05.705Z</time>
      </trkpt>
      <trkpt lat="42.74782" lon="18.17944">
        <ele>315.875094</ele>
        <time>2022-06-10T10:36:08.702Z</time>
      </trkpt>
      <trkpt lat="42.74791" lon="18.17934">
        <ele>315.749892</ele>
        <time>2022-06-10T10:36:11.696Z</time>
      </trkpt>
      <trkpt lat="42.74801" lon="18.17925">
        <ele>315.621735</ele>
        <time>2022-06-10T10:36:14.705Z</time>
      </trkpt>
      <trkpt lat="42.74811" lon="18.17915">
        <ele>315.488095</ele>
        <time>2022-06-10T10:36:17.706Z</time>
      </trkpt>
      <trkpt lat="42.74821" lon="18.17904">
        <ele>315.359588</ele>
        <time>2022-06-10T10:36:20.713Z</time>
      </trkpt>
      <trkpt lat="42.74832" lon="18.17894">
        <ele>315.232882</ele>
        <time>2022-06-10T10:36:23.707Z</time>
      </trkpt>
      <trkpt lat="42.74842" lon="18.17885">
        <ele>315.115226</ele>
        <time>2022-06-10T10:36:26.744Z</time>
      </trkpt>
      <trkpt lat="42.74851" lon="18.17876">
        <ele>314.9988</ele>
        <time>2022-06-10T10:36:29.753Z</time>
      </trkpt>
      <trkpt lat="42.74861" lon="18.17867">
        <ele>314.880734</ele>
        <time>2022-06-10T10:36:32.704Z</time>
      </trkpt>
      <trkpt lat="42.74871" lon="18.17857">
        <ele>314.761378</ele>
        <time>2022-06-10T10:36:35.700Z</time>
      </trkpt>
      <trkpt lat="42.74882" lon="18.17847">
        <ele>314.628086</ele>
        <time>2022-06-10T10:36:38.718Z</time>
      </trkpt>
      <trkpt lat="42.74893" lon="18.17836">
        <ele>314.49681</ele>
        <time>2022-06-10T10:36:41.711Z</time>
      </trkpt>
      <trkpt lat="42.74903" lon="18.17826">
        <ele>314.365908</ele>
        <time>2022-06-10T10:36:44.792Z</time>
      </trkpt>
      <trkpt lat="42.74913" lon="18.17816">
        <ele>314.242042</ele>
        <time>2022-06-10T10:36:47.732Z</time>
      </trkpt>
      <trkpt lat="42.74923" lon="18.17806">
        <ele>314.120842</ele>
        <time>2022-06-10T10:36:50.707Z</time>
      </trkpt>
      <trkpt lat="42.74933" lon="18.17795">
        <ele>313.994363</ele>
        <time>2022-06-10T10:36:53.702Z</time>
      </trkpt>
      <trkpt lat="42.74943" lon="18.17785">
        <ele>313.864622</ele>
        <time>2022-06-10T10:36:56.721Z</time>
      </trkpt>
      <trkpt lat="42.74954" lon="18.17775">
        <ele>313.734983</ele>
        <time>2022-06-10T10:36:59.705Z</time>
      </trkpt>
      <trkpt lat="42.74964" lon="18.17764">
        <ele>313.519837</ele>
        <time>2022-06-10T10:37:02.701Z</time>
      </trkpt>
      <trkpt lat="42.74975" lon="18.17754">
        <ele>313.300427</ele>
        <time>2022-06-10T10:37:05.711Z</time>
      </trkpt>
      <trkpt lat="42.74985" lon="18.17743">
        <ele>313.085281</ele>
        <time>2022-06-10T10:37:08.710Z</time>
      </trkpt>
      <trkpt lat="42.74996" lon="18.17734">
        <ele>312.869506</ele>
        <time>2022-06-10T10:37:11.704Z</time>
      </trkpt>
      <trkpt lat="42.75004" lon="18.17727">
        <ele>312.715983</ele>
        <time>2022-06-10T10:37:13.706Z</time>
      </trkpt>
      <trkpt lat="42.75011" lon="18.1772">
        <ele>312.564535</ele>
        <time>2022-06-10T10:37:15.707Z</time>
      </trkpt>
      <trkpt lat="42.75022" lon="18.1771">
        <ele>312.350872</ele>
        <time>2022-06-10T10:37:18.719Z</time>
      </trkpt>
      <trkpt lat="42.75032" lon="18.177">
        <ele>312.141313</ele>
        <time>2022-06-10T10:37:21.702Z</time>
      </trkpt>
      <trkpt lat="42.75042" lon="18.1769">
        <ele>311.938691</ele>
        <time>2022-06-10T10:37:24.723Z</time>
      </trkpt>
      <trkpt lat="42.75052" lon="18.1768">
        <ele>311.726243</ele>
        <time>2022-06-10T10:37:27.712Z</time>
      </trkpt>
      <trkpt lat="42.75062" lon="18.1767">
        <ele>311.512449</ele>
        <time>2022-06-10T10:37:30.702Z</time>
      </trkpt>
      <trkpt lat="42.75073" lon="18.1766">
        <ele>311.297304</ele>
        <time>2022-06-10T10:37:33.726Z</time>
      </trkpt>
      <trkpt lat="42.75083" lon="18.17649">
        <ele>311.076554</ele>
        <time>2022-06-10T10:37:36.703Z</time>
      </trkpt>
      <trkpt lat="42.75093" lon="18.17638">
        <ele>310.865293</ele>
        <time>2022-06-10T10:37:39.696Z</time>
      </trkpt>
      <trkpt lat="42.75104" lon="18.17628">
        <ele>310.69044</ele>
        <time>2022-06-10T10:37:42.707Z</time>
      </trkpt>
      <trkpt lat="42.75114" lon="18.17618">
        <ele>310.579504</ele>
        <time>2022-06-10T10:37:45.703Z</time>
      </trkpt>
      <trkpt lat="42.75125" lon="18.17608">
        <ele>310.469976</ele>
        <time>2022-06-10T10:37:48.725Z</time>
      </trkpt>
      <trkpt lat="42.75135" lon="18.17598">
        <ele>310.365548</ele>
        <time>2022-06-10T10:37:51.714Z</time>
      </trkpt>
      <trkpt lat="42.75145" lon="18.17588">
        <ele>310.261977</ele>
        <time>2022-06-10T10:37:54.745Z</time>
      </trkpt>
      <trkpt lat="42.75154" lon="18.17578">
        <ele>310.1586</ele>
        <time>2022-06-10T10:37:57.721Z</time>
      </trkpt>
      <trkpt lat="42.75165" lon="18.17568">
        <ele>310.050042</ele>
        <time>2022-06-10T10:38:00.721Z</time>
      </trkpt>
      <trkpt lat="42.75175" lon="18.17558">
        <ele>309.944686</ele>
        <time>2022-06-10T10:38:03.716Z</time>
      </trkpt>
      <trkpt lat="42.75185" lon="18.17548">
        <ele>309.835851</ele>
        <time>2022-06-10T10:38:06.717Z</time>
      </trkpt>
      <trkpt lat="42.75196" lon="18.17538">
        <ele>309.72908</ele>
        <time>2022-06-10T10:38:09.714Z</time>
      </trkpt>
      <trkpt lat="42.75206" lon="18.17528">
        <ele>309.62236</ele>
        <time>2022-06-10T10:38:12.712Z</time>
      </trkpt>
      <trkpt lat="42.75216" lon="18.17518">
        <ele>309.516208</ele>
        <time>2022-06-10T10:38:15.717Z</time>
      </trkpt>
      <trkpt lat="42.75226" lon="18.17508">
        <ele>309.410852</ele>
        <time>2022-06-10T10:38:18.719Z</time>
      </trkpt>
      <trkpt lat="42.75236" lon="18.17498">
        <ele>309.306802</ele>
        <time>2022-06-10T10:38:21.716Z</time>
      </trkpt>
      <trkpt lat="42.75246" lon="18.17488">
        <ele>309.216646</ele>
        <time>2022-06-10T10:38:24.747Z</time>
      </trkpt>
      <trkpt lat="42.75256" lon="18.17477">
        <ele>309.426405</ele>
        <time>2022-06-10T10:38:27.737Z</time>
      </trkpt>
      <trkpt lat="42.75266" lon="18.17467">
        <ele>309.633032</ele>
        <time>2022-06-10T10:38:30.714Z</time>
      </trkpt>
      <trkpt lat="42.75276" lon="18.17458">
        <ele>309.835552</ele>
        <time>2022-06-10T10:38:33.745Z</time>
      </trkpt>
      <trkpt lat="42.75286" lon="18.17448">
        <ele>310.042882</ele>
        <time>2022-06-10T10:38:36.711Z</time>
      </trkpt>
      <trkpt lat="42.75296" lon="18.17438">
        <ele>310.248368</ele>
        <time>2022-06-10T10:38:39.716Z</time>
      </trkpt>
      <trkpt lat="42.75306" lon="18.17428">
        <ele>310.454994</ele>
        <time>2022-06-10T10:38:42.713Z</time>
      </trkpt>
      <trkpt lat="42.75316" lon="18.17419">
        <ele>310.651354</ele>
        <time>2022-06-10T10:38:45.704Z</time>
      </trkpt>
      <trkpt lat="42.75326" lon="18.17409">
        <ele>310.853943</ele>
        <time>2022-06-10T10:38:48.705Z</time>
      </trkpt>
      <trkpt lat="42.75335" lon="18.17399">
        <ele>311.051951</ele>
        <time>2022-06-10T10:38:51.702Z</time>
      </trkpt>
      <trkpt lat="42.75346" lon="18.17389">
        <ele>311.26063</ele>
        <time>2022-06-10T10:38:54.705Z</time>
      </trkpt>
      <trkpt lat="42.75356" lon="18.17379">
        <ele>311.476823</ele>
        <time>2022-06-10T10:38:57.704Z</time>
      </trkpt>
      <trkpt lat="42.75367" lon="18.17368">
        <ele>311.701928</ele>
        <time>2022-06-10T10:39:00.708Z</time>
      </trkpt>
      <trkpt lat="42.75374" lon="18.17361">
        <ele>311.850662</ele>
        <time>2022-06-10T10:39:02.704Z</time>
      </trkpt>
      <trkpt lat="42.75385" lon="18.17351">
        <ele>312.060001</ele>
        <time>2022-06-10T10:39:05.704Z</time>
      </trkpt>
      <trkpt lat="42.75395" lon="18.17342">
        <ele>312.249636</ele>
        <time>2022-06-10T10:39:08.701Z</time>
      </trkpt>
      <trkpt lat="42.75406" lon="18.17332">
        <ele>312.422393</ele>
        <time>2022-06-10T10:39:11.714Z</time>
      </trkpt>
      <trkpt lat="42.75417" lon="18.17322">
        <ele>312.602485</ele>
        <time>2022-06-10T10:39:14.708Z</time>
      </trkpt>
      <trkpt lat="42.75427" lon="18.17312">
        <ele>312.779209</ele>
        <time>2022-06-10T10:39:17.706Z</time>
      </trkpt>
      <trkpt lat="42.75438" lon="18.17303">
        <ele>312.952065</ele>
        <time>2022-06-10T10:39:20.704Z</time>
      </trkpt>
      <trkpt lat="42.75449" lon="18.17294">
        <ele>313.125404</ele>
        <time>2022-06-10T10:39:23.754Z</time>
      </trkpt>
      <trkpt lat="42.75458" lon="18.17284">
        <ele>313.290307</ele>
        <time>2022-06-10T10:39:26.715Z</time>
      </trkpt>
      <trkpt lat="42.75468" lon="18.17274">
        <ele>313.455211</ele>
        <time>2022-06-10T10:39:29.742Z</time>
      </trkpt>
      <trkpt lat="42.75478" lon="18.17264">
        <ele>313.625278</ele>
        <time>2022-06-10T10:39:32.706Z</time>
      </trkpt>
      <trkpt lat="42.75489" lon="18.17254">
        <ele>313.80043</ele>
        <time>2022-06-10T10:39:35.736Z</time>
      </trkpt>
      <trkpt lat="42.75498" lon="18.17244">
        <ele>313.965288</ele>
        <time>2022-06-10T10:39:38.743Z</time>
      </trkpt>
      <trkpt lat="42.75508" lon="18.17235">
        <ele>314.130871</ele>
        <time>2022-06-10T10:39:41.743Z</time>
      </trkpt>
      <trkpt lat="42.75518" lon="18.17224">
        <ele>314.299272</ele>
        <time>2022-06-10T10:39:44.724Z</time>
      </trkpt>
      <trkpt lat="42.75528" lon="18.17214">
        <ele>314.473154</ele>
        <time>2022-06-10T10:39:47.702Z</time>
      </trkpt>
      <trkpt lat="42.75538" lon="18.17204">
        <ele>314.641173</ele>
        <time>2022-06-10T10:39:50.699Z</time>
      </trkpt>
      <trkpt lat="42.75548" lon="18.17194">
        <ele>314.437873</ele>
        <time>2022-06-10T10:39:53.714Z</time>
      </trkpt>
      <trkpt lat="42.75558" lon="18.17184">
        <ele>314.23526</ele>
        <time>2022-06-10T10:39:56.718Z</time>
      </trkpt>
      <trkpt lat="42.75568" lon="18.17175">
        <ele>314.038136</ele>
        <time>2022-06-10T10:39:59.711Z</time>
      </trkpt>
      <trkpt lat="42.75578" lon="18.17165">
        <ele>313.835563</ele>
        <time>2022-06-10T10:40:02.724Z</time>
      </trkpt>
      <trkpt lat="42.75589" lon="18.17156">
        <ele>313.624103</ele>
        <time>2022-06-10T10:40:05.696Z</time>
      </trkpt>
      <trkpt lat="42.75599" lon="18.17145">
        <ele>313.412498</ele>
        <time>2022-06-10T10:40:08.707Z</time>
      </trkpt>
      <trkpt lat="42.75609" lon="18.17135">
        <ele>313.206715</ele>
        <time>2022-06-10T10:40:11.744Z</time>
      </trkpt>
      <trkpt lat="42.75619" lon="18.17125">
        <ele>312.997255</ele>
        <time>2022-06-10T10:40:14.700Z</time>
      </trkpt>
      <trkpt lat="42.75629" lon="18.17114">
        <ele>312.791068</ele>
        <time>2022-06-10T10:40:17.723Z</time>
      </trkpt>
      <trkpt lat="42.75639" lon="18.17104">
        <ele>312.588822</ele>
        <time>2022-06-10T10:40:20.704Z</time>
      </trkpt>
      <trkpt lat="42.75648" lon="18.17094">
        <ele>312.38788</ele>
        <time>2022-06-10T10:40:23.710Z</time>
      </trkpt>
      <trkpt lat="42.75658" lon="18.17084">
        <ele>312.184892</ele>
        <time>2022-06-10T10:40:26.722Z</time>
      </trkpt>
      <trkpt lat="42.75668" lon="18.17073">
        <ele>311.972413</ele>
        <time>2022-06-10T10:40:29.707Z</time>
      </trkpt>
      <trkpt lat="42.75678" lon="18.17063">
        <ele>311.769717</ele>
        <time>2022-06-10T10:40:32.718Z</time>
      </trkpt>
      <trkpt lat="42.75688" lon="18.17054">
        <ele>311.888357</ele>
        <time>2022-06-10T10:40:35.701Z</time>
      </trkpt>
      <trkpt lat="42.75698" lon="18.17045">
        <ele>312.297044</ele>
        <time>2022-06-10T10:40:38.696Z</time>
      </trkpt>
      <trkpt lat="42.75708" lon="18.17035">
        <ele>312.705518</ele>
        <time>2022-06-10T10:40:41.707Z</time>
      </trkpt>
      <trkpt lat="42.75719" lon="18.17027">
        <ele>313.105245</ele>
        <time>2022-06-10T10:40:44.758Z</time>
      </trkpt>
      <trkpt lat="42.7573" lon="18.17019">
        <ele>313.517147</ele>
        <time>2022-06-10T10:40:47.700Z</time>
      </trkpt>
      <trkpt lat="42.7574" lon="18.17013">
        <ele>313.910129</ele>
        <time>2022-06-10T10:40:50.711Z</time>
      </trkpt>
      <trkpt lat="42.75752" lon="18.17008">
        <ele>314.308196</ele>
        <time>2022-06-10T10:40:53.695Z</time>
      </trkpt>
      <trkpt lat="42.75763" lon="18.17003">
        <ele>314.709462</ele>
        <time>2022-06-10T10:40:56.704Z</time>
      </trkpt>
      <trkpt lat="42.75775" lon="18.16997">
        <ele>315.125786</ele>
        <time>2022-06-10T10:40:59.717Z</time>
      </trkpt>
      <trkpt lat="42.75786" lon="18.16992">
        <ele>315.53663</ele>
        <time>2022-06-10T10:41:02.711Z</time>
      </trkpt>
      <trkpt lat="42.75798" lon="18.16987">
        <ele>315.939431</ele>
        <time>2022-06-10T10:41:05.708Z</time>
      </trkpt>
      <trkpt lat="42.75809" lon="18.16982">
        <ele>316.346191</ele>
        <time>2022-06-10T10:41:08.725Z</time>
      </trkpt>
      <trkpt lat="42.75821" lon="18.16976">
        <ele>316.752952</ele>
        <time>2022-06-10T10:41:11.716Z</time>
      </trkpt>
      <trkpt lat="42.75831" lon="18.16971">
        <ele>317.134776</ele>
        <time>2022-06-10T10:41:14.703Z</time>
      </trkpt>
      <trkpt lat="42.75842" lon="18.16964">
        <ele>317.516719</ele>
        <time>2022-06-10T10:41:17.704Z</time>
      </trkpt>
      <trkpt lat="42.75852" lon="18.16956">
        <ele>317.684028</ele>
        <time>2022-06-10T10:41:20.704Z</time>
      </trkpt>
      <trkpt lat="42.75863" lon="18.16948">
        <ele>317.65026</ele>
        <time>2022-06-10T10:41:23.733Z</time>
      </trkpt>
      <trkpt lat="42.75873" lon="18.16938">
        <ele>317.617336</ele>
        <time>2022-06-10T10:41:26.699Z</time>
      </trkpt>
      <trkpt lat="42.75882" lon="18.16927">
        <ele>317.584522</ele>
        <time>2022-06-10T10:41:29.708Z</time>
      </trkpt>
      <trkpt lat="42.7589" lon="18.16915">
        <ele>317.551562</ele>
        <time>2022-06-10T10:41:32.721Z</time>
      </trkpt>
      <trkpt lat="42.75898" lon="18.16901">
        <ele>317.517294</ele>
        <time>2022-06-10T10:41:35.710Z</time>
      </trkpt>
      <trkpt lat="42.75905" lon="18.16887">
        <ele>317.483957</ele>
        <time>2022-06-10T10:41:38.707Z</time>
      </trkpt>
      <trkpt lat="42.75912" lon="18.16874">
        <ele>317.451886</ele>
        <time>2022-06-10T10:41:41.718Z</time>
      </trkpt>
      <trkpt lat="42.75918" lon="18.16859">
        <ele>317.418693</ele>
        <time>2022-06-10T10:41:44.702Z</time>
      </trkpt>
      <trkpt lat="42.75922" lon="18.16843">
        <ele>317.385805</ele>
        <time>2022-06-10T10:41:47.719Z</time>
      </trkpt>
      <trkpt lat="42.75926" lon="18.16828">
        <ele>317.353777</ele>
        <time>2022-06-10T10:41:50.715Z</time>
      </trkpt>
      <trkpt lat="42.75929" lon="18.16811">
        <ele>317.319873</ele>
        <time>2022-06-10T10:41:53.709Z</time>
      </trkpt>
      <trkpt lat="42.75931" lon="18.16794">
        <ele>317.286907</ele>
        <time>2022-06-10T10:41:56.692Z</time>
      </trkpt>
      <trkpt lat="42.75933" lon="18.16778">
        <ele>317.253918</ele>
        <time>2022-06-10T10:41:59.702Z</time>
      </trkpt>
      <trkpt lat="42.75934" lon="18.1676">
        <ele>317.219587</ele>
        <time>2022-06-10T10:42:02.697Z</time>
      </trkpt>
      <trkpt lat="42.75935" lon="18.16744">
        <ele>316.944289</ele>
        <time>2022-06-10T10:42:05.703Z</time>
      </trkpt>
      <trkpt lat="42.75936" lon="18.16726">
        <ele>316.649694</ele>
        <time>2022-06-10T10:42:08.734Z</time>
      </trkpt>
      <trkpt lat="42.75936" lon="18.1671">
        <ele>316.3702</ele>
        <time>2022-06-10T10:42:11.737Z</time>
      </trkpt>
      <trkpt lat="42.75937" lon="18.16693">
        <ele>316.08239</ele>
        <time>2022-06-10T10:42:14.717Z</time>
      </trkpt>
      <trkpt lat="42.75938" lon="18.16676">
        <ele>315.789628</ele>
        <time>2022-06-10T10:42:17.688Z</time>
      </trkpt>
      <trkpt lat="42.75938" lon="18.16658">
        <ele>315.488596</ele>
        <time>2022-06-10T10:42:20.709Z</time>
      </trkpt>
      <trkpt lat="42.7594" lon="18.16641">
        <ele>315.199714</ele>
        <time>2022-06-10T10:42:23.702Z</time>
      </trkpt>
      <trkpt lat="42.75942" lon="18.16625">
        <ele>314.921917</ele>
        <time>2022-06-10T10:42:26.708Z</time>
      </trkpt>
      <trkpt lat="42.75944" lon="18.16609">
        <ele>314.639066</ele>
        <time>2022-06-10T10:42:29.703Z</time>
      </trkpt>
      <trkpt lat="42.75945" lon="18.16592">
        <ele>314.355587</ele>
        <time>2022-06-10T10:42:32.703Z</time>
      </trkpt>
      <trkpt lat="42.75946" lon="18.16575">
        <ele>314.065341</ele>
        <time>2022-06-10T10:42:35.708Z</time>
      </trkpt>
      <trkpt lat="42.75949" lon="18.16559">
        <ele>313.782471</ele>
        <time>2022-06-10T10:42:38.715Z</time>
      </trkpt>
      <trkpt lat="42.75951" lon="18.16542">
        <ele>313.48855</ele>
        <time>2022-06-10T10:42:41.694Z</time>
      </trkpt>
      <trkpt lat="42.75954" lon="18.16525">
        <ele>313.189139</ele>
        <time>2022-06-10T10:42:44.701Z</time>
      </trkpt>
      <trkpt lat="42.75957" lon="18.16508">
        <ele>313.036886</ele>
        <time>2022-06-10T10:42:47.720Z</time>
      </trkpt>
      <trkpt lat="42.75959" lon="18.1649">
        <ele>313.002944</ele>
        <time>2022-06-10T10:42:50.709Z</time>
      </trkpt>
      <trkpt lat="42.75962" lon="18.16472">
        <ele>312.96853</ele>
        <time>2022-06-10T10:42:53.720Z</time>
      </trkpt>
      <trkpt lat="42.75964" lon="18.16456">
        <ele>312.936445</ele>
        <time>2022-06-10T10:42:56.783Z</time>
      </trkpt>
      <trkpt lat="42.75967" lon="18.1644">
        <ele>312.905241</ele>
        <time>2022-06-10T10:42:59.701Z</time>
      </trkpt>
      <trkpt lat="42.75971" lon="18.16424">
        <ele>312.874067</ele>
        <time>2022-06-10T10:43:02.712Z</time>
      </trkpt>
      <trkpt lat="42.75974" lon="18.16408">
        <ele>312.842486</ele>
        <time>2022-06-10T10:43:05.740Z</time>
      </trkpt>
      <trkpt lat="42.75977" lon="18.16391">
        <ele>312.809894</ele>
        <time>2022-06-10T10:43:08.710Z</time>
      </trkpt>
      <trkpt lat="42.75981" lon="18.16374">
        <ele>312.775666</ele>
        <time>2022-06-10T10:43:11.759Z</time>
      </trkpt>
      <trkpt lat="42.75986" lon="18.16357">
        <ele>312.741806</ele>
        <time>2022-06-10T10:43:14.710Z</time>
      </trkpt>
      <trkpt lat="42.7599" lon="18.16341">
        <ele>312.708746</ele>
        <time>2022-06-10T10:43:17.741Z</time>
      </trkpt>
      <trkpt lat="42.75994" lon="18.16324">
        <ele>312.675417</ele>
        <time>2022-06-10T10:43:20.738Z</time>
      </trkpt>
      <trkpt lat="42.75998" lon="18.16308">
        <ele>312.642973</ele>
        <time>2022-06-10T10:43:23.730Z</time>
      </trkpt>
      <trkpt lat="42.76002" lon="18.16291">
        <ele>312.61009</ele>
        <time>2022-06-10T10:43:26.712Z</time>
      </trkpt>
      <trkpt lat="42.76005" lon="18.16274">
        <ele>312.499662</ele>
        <time>2022-06-10T10:43:29.738Z</time>
      </trkpt>
      <trkpt lat="42.76008" lon="18.16257">
        <ele>312.297751</ele>
        <time>2022-06-10T10:43:32.716Z</time>
      </trkpt>
      <trkpt lat="42.76011" lon="18.1624">
        <ele>312.099922</ele>
        <time>2022-06-10T10:43:35.726Z</time>
      </trkpt>
      <trkpt lat="42.76014" lon="18.16223">
        <ele>311.899344</ele>
        <time>2022-06-10T10:43:38.699Z</time>
      </trkpt>
      <trkpt lat="42.76016" lon="18.16206">
        <ele>311.697362</ele>
        <time>2022-06-10T10:43:41.712Z</time>
      </trkpt>
      <trkpt lat="42.76018" lon="18.16188">
        <ele>311.488554</ele>
        <time>2022-06-10T10:43:44.724Z</time>
      </trkpt>
      <trkpt lat="42.76019" lon="18.16171">
        <ele>311.283914</ele>
        <time>2022-06-10T10:43:47.704Z</time>
      </trkpt>
      <trkpt lat="42.7602" lon="18.16153">
        <ele>311.081159</ele>
        <time>2022-06-10T10:43:50.699Z</time>
      </trkpt>
      <trkpt lat="42.76019" lon="18.16136">
        <ele>310.884482</ele>
        <time>2022-06-10T10:43:53.708Z</time>
      </trkpt>
      <trkpt lat="42.76019" lon="18.16119">
        <ele>310.684185</ele>
        <time>2022-06-10T10:43:56.718Z</time>
      </trkpt>
      <trkpt lat="42.76018" lon="18.16101">
        <ele>310.479198</ele>
        <time>2022-06-10T10:43:59.738Z</time>
      </trkpt>
      <trkpt lat="42.76018" lon="18.16084">
        <ele>310.280157</ele>
        <time>2022-06-10T10:44:02.695Z</time>
      </trkpt>
      <trkpt lat="42.76017" lon="18.16066">
        <ele>310.07235</ele>
        <time>2022-06-10T10:44:05.711Z</time>
      </trkpt>
      <trkpt lat="42.76015" lon="18.16049">
        <ele>309.869479</ele>
        <time>2022-06-10T10:44:08.730Z</time>
      </trkpt>
      <trkpt lat="42.76014" lon="18.16031">
        <ele>309.766422</ele>
        <time>2022-06-10T10:44:11.708Z</time>
      </trkpt>
      <trkpt lat="42.76012" lon="18.16014">
        <ele>309.787467</ele>
        <time>2022-06-10T10:44:14.730Z</time>
      </trkpt>
      <trkpt lat="42.76011" lon="18.15997">
        <ele>309.808794</ele>
        <time>2022-06-10T10:44:17.703Z</time>
      </trkpt>
      <trkpt lat="42.76009" lon="18.1598">
        <ele>309.830291</ele>
        <time>2022-06-10T10:44:20.731Z</time>
      </trkpt>
      <trkpt lat="42.76006" lon="18.15963">
        <ele>309.851848</ele>
        <time>2022-06-10T10:44:23.733Z</time>
      </trkpt>
      <trkpt lat="42.76004" lon="18.15946">
        <ele>309.872048</ele>
        <time>2022-06-10T10:44:26.719Z</time>
      </trkpt>
      <trkpt lat="42.76003" lon="18.15931">
        <ele>309.891443</ele>
        <time>2022-06-10T10:44:29.699Z</time>
      </trkpt>
      <trkpt lat="42.76002" lon="18.15916">
        <ele>309.910249</ele>
        <time>2022-06-10T10:44:32.714Z</time>
      </trkpt>
      <trkpt lat="42.76" lon="18.159">
        <ele>309.929262</ele>
        <time>2022-06-10T10:44:35.706Z</time>
      </trkpt>
      <trkpt lat="42.75998" lon="18.15886">
        <ele>309.947762</ele>
        <time>2022-06-10T10:44:38.707Z</time>
      </trkpt>
      <trkpt lat="42.75996" lon="18.15871">
        <ele>309.966113</ele>
        <time>2022-06-10T10:44:41.741Z</time>
      </trkpt>
      <trkpt lat="42.75994" lon="18.15857">
        <ele>309.983675</ele>
        <time>2022-06-10T10:44:44.703Z</time>
      </trkpt>
      <trkpt lat="42.75992" lon="18.15843">
        <ele>310.000683</ele>
        <time>2022-06-10T10:44:47.732Z</time>
      </trkpt>
      <trkpt lat="42.75991" lon="18.15831">
        <ele>310.016131</ele>
        <time>2022-06-10T10:44:50.699Z</time>
      </trkpt>
      <trkpt lat="42.7599" lon="18.15817">
        <ele>310.032715</ele>
        <time>2022-06-10T10:44:53.712Z</time>
      </trkpt>
      <trkpt lat="42.75988" lon="18.15804">
        <ele>310.04999</ele>
        <time>2022-06-10T10:44:56.716Z</time>
      </trkpt>
      <trkpt lat="42.75986" lon="18.15789">
        <ele>310.120641</ele>
        <time>2022-06-10T10:44:59.725Z</time>
      </trkpt>
      <trkpt lat="42.75985" lon="18.15774">
        <ele>310.241955</ele>
        <time>2022-06-10T10:45:02.710Z</time>
      </trkpt>
      <trkpt lat="42.75983" lon="18.15759">
        <ele>310.364863</ele>
        <time>2022-06-10T10:45:05.748Z</time>
      </trkpt>
      <trkpt lat="42.75981" lon="18.15744">
        <ele>310.490258</ele>
        <time>2022-06-10T10:45:08.708Z</time>
      </trkpt>
      <trkpt lat="42.75979" lon="18.15727">
        <ele>310.628343</ele>
        <time>2022-06-10T10:45:11.713Z</time>
      </trkpt>
      <trkpt lat="42.75977" lon="18.1571">
        <ele>310.765454</ele>
        <time>2022-06-10T10:45:14.713Z</time>
      </trkpt>
      <trkpt lat="42.75975" lon="18.15693">
        <ele>310.903361</ele>
        <time>2022-06-10T10:45:17.716Z</time>
      </trkpt>
      <trkpt lat="42.75973" lon="18.15676">
        <ele>311.042858</ele>
        <time>2022-06-10T10:45:20.756Z</time>
      </trkpt>
      <trkpt lat="42.75971" lon="18.15659">
        <ele>311.186507</ele>
        <time>2022-06-10T10:45:23.721Z</time>
      </trkpt>
      <trkpt lat="42.75969" lon="18.15642">
        <ele>311.322848</ele>
        <time>2022-06-10T10:45:26.742Z</time>
      </trkpt>
      <trkpt lat="42.75968" lon="18.15625">
        <ele>311.460242</ele>
        <time>2022-06-10T10:45:29.703Z</time>
      </trkpt>
      <trkpt lat="42.75967" lon="18.15609">
        <ele>311.589704</ele>
        <time>2022-06-10T10:45:32.742Z</time>
      </trkpt>
      <trkpt lat="42.75967" lon="18.15593">
        <ele>311.716997</ele>
        <time>2022-06-10T10:45:35.716Z</time>
      </trkpt>
      <trkpt lat="42.75968" lon="18.15581">
        <ele>311.816385</ele>
        <time>2022-06-10T10:45:37.706Z</time>
      </trkpt>
      <trkpt lat="42.75968" lon="18.15563">
        <ele>311.959936</ele>
        <time>2022-06-10T10:45:40.719Z</time>
      </trkpt>
      <trkpt lat="42.75968" lon="18.15546">
        <ele>312.037886</ele>
        <time>2022-06-10T10:45:43.698Z</time>
      </trkpt>
      <trkpt lat="42.75969" lon="18.15528">
        <ele>312.050491</ele>
        <time>2022-06-10T10:45:46.740Z</time>
      </trkpt>
      <trkpt lat="42.7597" lon="18.1551">
        <ele>312.063082</ele>
        <time>2022-06-10T10:45:49.728Z</time>
      </trkpt>
      <trkpt lat="42.7597" lon="18.15493">
        <ele>312.07552</ele>
        <time>2022-06-10T10:45:52.709Z</time>
      </trkpt>
      <trkpt lat="42.75971" lon="18.15481">
        <ele>312.084199</ele>
        <time>2022-06-10T10:45:54.716Z</time>
      </trkpt>
      <trkpt lat="42.75971" lon="18.15468">
        <ele>312.093086</ele>
        <time>2022-06-10T10:45:56.704Z</time>
      </trkpt>
      <trkpt lat="42.75971" lon="18.15456">
        <ele>312.101973</ele>
        <time>2022-06-10T10:45:58.724Z</time>
      </trkpt>
      <trkpt lat="42.75971" lon="18.15438">
        <ele>312.114696</ele>
        <time>2022-06-10T10:46:01.721Z</time>
      </trkpt>
      <trkpt lat="42.75971" lon="18.15425">
        <ele>312.123511</ele>
        <time>2022-06-10T10:46:03.728Z</time>
      </trkpt>
      <trkpt lat="42.75972" lon="18.15408">
        <ele>312.13575</ele>
        <time>2022-06-10T10:46:06.743Z</time>
      </trkpt>
      <trkpt lat="42.75973" lon="18.15391">
        <ele>312.147865</ele>
        <time>2022-06-10T10:46:09.707Z</time>
      </trkpt>
      <trkpt lat="42.75974" lon="18.15373">
        <ele>312.160783</ele>
        <time>2022-06-10T10:46:12.702Z</time>
      </trkpt>
      <trkpt lat="42.75975" lon="18.15356">
        <ele>312.172885</ele>
        <time>2022-06-10T10:46:15.704Z</time>
      </trkpt>
      <trkpt lat="42.75975" lon="18.1534">
        <ele>312.184349</ele>
        <time>2022-06-10T10:46:18.714Z</time>
      </trkpt>
      <trkpt lat="42.75976" lon="18.15323">
        <ele>312.196528</ele>
        <time>2022-06-10T10:46:21.712Z</time>
      </trkpt>
      <trkpt lat="42.75977" lon="18.15308">
        <ele>312.196949</ele>
        <time>2022-06-10T10:46:24.708Z</time>
      </trkpt>
      <trkpt lat="42.75979" lon="18.15291">
        <ele>312.118327</ele>
        <time>2022-06-10T10:46:27.712Z</time>
      </trkpt>
      <trkpt lat="42.7598" lon="18.15274">
        <ele>312.035839</ele>
        <time>2022-06-10T10:46:30.703Z</time>
      </trkpt>
      <trkpt lat="42.75981" lon="18.15256">
        <ele>311.951696</ele>
        <time>2022-06-10T10:46:33.707Z</time>
      </trkpt>
      <trkpt lat="42.75981" lon="18.15239">
        <ele>311.869509</ele>
        <time>2022-06-10T10:46:36.738Z</time>
      </trkpt>
      <trkpt lat="42.75982" lon="18.15222">
        <ele>311.78821</ele>
        <time>2022-06-10T10:46:39.708Z</time>
      </trkpt>
      <trkpt lat="42.75983" lon="18.15204">
        <ele>311.703675</ele>
        <time>2022-06-10T10:46:42.730Z</time>
      </trkpt>
      <trkpt lat="42.75983" lon="18.15191">
        <ele>311.643859</ele>
        <time>2022-06-10T10:46:44.699Z</time>
      </trkpt>
      <trkpt lat="42.75983" lon="18.15179">
        <ele>311.584466</ele>
        <time>2022-06-10T10:46:46.726Z</time>
      </trkpt>
      <trkpt lat="42.75984" lon="18.15161">
        <ele>311.500323</ele>
        <time>2022-06-10T10:46:49.708Z</time>
      </trkpt>
      <trkpt lat="42.75984" lon="18.15144">
        <ele>311.418159</ele>
        <time>2022-06-10T10:46:52.705Z</time>
      </trkpt>
      <trkpt lat="42.75985" lon="18.15126">
        <ele>311.334997</ele>
        <time>2022-06-10T10:46:55.697Z</time>
      </trkpt>
      <trkpt lat="42.75986" lon="18.15109">
        <ele>311.253247</ele>
        <time>2022-06-10T10:46:58.705Z</time>
      </trkpt>
      <trkpt lat="42.75988" lon="18.15092">
        <ele>311.172112</ele>
        <time>2022-06-10T10:47:01.716Z</time>
      </trkpt>
      <trkpt lat="42.75989" lon="18.15075">
        <ele>311.091379</ele>
        <time>2022-06-10T10:47:04.714Z</time>
      </trkpt>
      <trkpt lat="42.7599" lon="18.15059">
        <ele>311.216257</ele>
        <time>2022-06-10T10:47:07.701Z</time>
      </trkpt>
      <trkpt lat="42.7599" lon="18.15042">
        <ele>311.665293</ele>
        <time>2022-06-10T10:47:10.706Z</time>
      </trkpt>
      <trkpt lat="42.7599" lon="18.15026">
        <ele>312.11167</ele>
        <time>2022-06-10T10:47:13.731Z</time>
      </trkpt>
      <trkpt lat="42.75988" lon="18.15009">
        <ele>312.569974</ele>
        <time>2022-06-10T10:47:16.711Z</time>
      </trkpt>
      <trkpt lat="42.75984" lon="18.14993">
        <ele>313.00974</ele>
        <time>2022-06-10T10:47:19.721Z</time>
      </trkpt>
      <trkpt lat="42.75981" lon="18.14977">
        <ele>313.47398</ele>
        <time>2022-06-10T10:47:22.713Z</time>
      </trkpt>
      <trkpt lat="42.75977" lon="18.14961">
        <ele>313.934914</ele>
        <time>2022-06-10T10:47:25.706Z</time>
      </trkpt>
      <trkpt lat="42.75972" lon="18.14945">
        <ele>314.409216</ele>
        <time>2022-06-10T10:47:28.697Z</time>
      </trkpt>
      <trkpt lat="42.75966" lon="18.1493">
        <ele>314.861795</ele>
        <time>2022-06-10T10:47:31.705Z</time>
      </trkpt>
      <trkpt lat="42.75959" lon="18.14915">
        <ele>315.334055</ele>
        <time>2022-06-10T10:47:34.717Z</time>
      </trkpt>
      <trkpt lat="42.75952" lon="18.14901">
        <ele>315.796535</ele>
        <time>2022-06-10T10:47:37.718Z</time>
      </trkpt>
      <trkpt lat="42.75944" lon="18.14888">
        <ele>316.252415</ele>
        <time>2022-06-10T10:47:40.713Z</time>
      </trkpt>
      <trkpt lat="42.75936" lon="18.14876">
        <ele>316.713816</ele>
        <time>2022-06-10T10:47:43.712Z</time>
      </trkpt>
      <trkpt lat="42.75926" lon="18.14866">
        <ele>317.148681</ele>
        <time>2022-06-10T10:47:46.744Z</time>
      </trkpt>
      <trkpt lat="42.75917" lon="18.14857">
        <ele>317.543037</ele>
        <time>2022-06-10T10:47:49.703Z</time>
      </trkpt>
      <trkpt lat="42.75908" lon="18.14847">
        <ele>317.60927</ele>
        <time>2022-06-10T10:47:52.687Z</time>
      </trkpt>
      <trkpt lat="42.75898" lon="18.14836">
        <ele>317.519579</ele>
        <time>2022-06-10T10:47:55.700Z</time>
      </trkpt>
      <trkpt lat="42.75889" lon="18.14824">
        <ele>317.428664</ele>
        <time>2022-06-10T10:47:58.719Z</time>
      </trkpt>
      <trkpt lat="42.75882" lon="18.14814">
        <ele>317.357017</ele>
        <time>2022-06-10T10:48:00.711Z</time>
      </trkpt>
      <trkpt lat="42.75875" lon="18.14804">
        <ele>317.286903</ele>
        <time>2022-06-10T10:48:02.692Z</time>
      </trkpt>
      <trkpt lat="42.75869" lon="18.14794">
        <ele>317.219934</ele>
        <time>2022-06-10T10:48:04.712Z</time>
      </trkpt>
      <trkpt lat="42.75863" lon="18.14784">
        <ele>317.152515</ele>
        <time>2022-06-10T10:48:06.718Z</time>
      </trkpt>
      <trkpt lat="42.75858" lon="18.14772">
        <ele>317.080412</ele>
        <time>2022-06-10T10:48:08.715Z</time>
      </trkpt>
      <trkpt lat="42.75853" lon="18.14761">
        <ele>317.013065</ele>
        <time>2022-06-10T10:48:10.717Z</time>
      </trkpt>
      <trkpt lat="42.75849" lon="18.1475">
        <ele>316.948168</ele>
        <time>2022-06-10T10:48:12.714Z</time>
      </trkpt>
      <trkpt lat="42.75844" lon="18.14733">
        <ele>316.855809</ele>
        <time>2022-06-10T10:48:15.740Z</time>
      </trkpt>
      <trkpt lat="42.7584" lon="18.14716">
        <ele>316.76427</ele>
        <time>2022-06-10T10:48:18.693Z</time>
      </trkpt>
      <trkpt lat="42.75836" lon="18.147">
        <ele>316.673212</ele>
        <time>2022-06-10T10:48:21.704Z</time>
      </trkpt>
      <trkpt lat="42.75834" lon="18.14683">
        <ele>316.58483</ele>
        <time>2022-06-10T10:48:24.724Z</time>
      </trkpt>
      <trkpt lat="42.75832" lon="18.14666">
        <ele>316.496121</ele>
        <time>2022-06-10T10:48:27.739Z</time>
      </trkpt>
      <trkpt lat="42.75832" lon="18.14648">
        <ele>316.404332</ele>
        <time>2022-06-10T10:48:30.708Z</time>
      </trkpt>
      <trkpt lat="42.75832" lon="18.14631">
        <ele>315.991016</ele>
        <time>2022-06-10T10:48:33.717Z</time>
      </trkpt>
      <trkpt lat="42.75833" lon="18.14613">
        <ele>315.565956</ele>
        <time>2022-06-10T10:48:36.703Z</time>
      </trkpt>
      <trkpt lat="42.75835" lon="18.14596">
        <ele>315.147497</ele>
        <time>2022-06-10T10:48:39.713Z</time>
      </trkpt>
      <trkpt lat="42.75838" lon="18.14581">
        <ele>314.754432</ele>
        <time>2022-06-10T10:48:42.687Z</time>
      </trkpt>
      <trkpt lat="42.75842" lon="18.14565">
        <ele>314.332733</ele>
        <time>2022-06-10T10:48:45.703Z</time>
      </trkpt>
      <trkpt lat="42.75847" lon="18.14549">
        <ele>313.917587</ele>
        <time>2022-06-10T10:48:48.699Z</time>
      </trkpt>
      <trkpt lat="42.75854" lon="18.14534">
        <ele>313.490485</ele>
        <time>2022-06-10T10:48:51.713Z</time>
      </trkpt>
      <trkpt lat="42.75861" lon="18.14519">
        <ele>313.041568</ele>
        <time>2022-06-10T10:48:54.716Z</time>
      </trkpt>
      <trkpt lat="42.75868" lon="18.14503">
        <ele>312.601732</ele>
        <time>2022-06-10T10:48:57.704Z</time>
      </trkpt>
      <trkpt lat="42.75874" lon="18.14489">
        <ele>312.190275</ele>
        <time>2022-06-10T10:49:00.746Z</time>
      </trkpt>
      <trkpt lat="42.75879" lon="18.14478">
        <ele>311.886975</ele>
        <time>2022-06-10T10:49:02.715Z</time>
      </trkpt>
      <trkpt lat="42.75886" lon="18.14466">
        <ele>311.499447</ele>
        <time>2022-06-10T10:49:05.705Z</time>
      </trkpt>
      <trkpt lat="42.75892" lon="18.14451">
        <ele>311.082739</ele>
        <time>2022-06-10T10:49:08.718Z</time>
      </trkpt>
      <trkpt lat="42.75897" lon="18.14437">
        <ele>310.69578</ele>
        <time>2022-06-10T10:49:11.704Z</time>
      </trkpt>
      <trkpt lat="42.75902" lon="18.14422">
        <ele>310.292697</ele>
        <time>2022-06-10T10:49:14.712Z</time>
      </trkpt>
      <trkpt lat="42.75908" lon="18.14408">
        <ele>309.909568</ele>
        <time>2022-06-10T10:49:17.706Z</time>
      </trkpt>
      <trkpt lat="42.75913" lon="18.14392">
        <ele>309.497429</ele>
        <time>2022-06-10T10:49:20.695Z</time>
      </trkpt>
      <trkpt lat="42.75919" lon="18.14377">
        <ele>309.098341</ele>
        <time>2022-06-10T10:49:23.713Z</time>
      </trkpt>
      <trkpt lat="42.75925" lon="18.14363">
        <ele>308.706303</ele>
        <time>2022-06-10T10:49:26.699Z</time>
      </trkpt>
      <trkpt lat="42.75931" lon="18.14348">
        <ele>308.313786</ele>
        <time>2022-06-10T10:49:29.756Z</time>
      </trkpt>
      <trkpt lat="42.75937" lon="18.14334">
        <ele>307.923813</ele>
        <time>2022-06-10T10:49:32.692Z</time>
      </trkpt>
      <trkpt lat="42.75943" lon="18.1432">
        <ele>307.52556</ele>
        <time>2022-06-10T10:49:35.717Z</time>
      </trkpt>
      <trkpt lat="42.75947" lon="18.14309">
        <ele>307.230442</ele>
        <time>2022-06-10T10:49:37.692Z</time>
      </trkpt>
      <trkpt lat="42.75953" lon="18.14294">
        <ele>306.81955</ele>
        <time>2022-06-10T10:49:40.750Z</time>
      </trkpt>
      <trkpt lat="42.7596" lon="18.1428">
        <ele>306.439048</ele>
        <time>2022-06-10T10:49:43.721Z</time>
      </trkpt>
      <trkpt lat="42.75965" lon="18.14265">
        <ele>306.02786</ele>
        <time>2022-06-10T10:49:46.692Z</time>
      </trkpt>
      <trkpt lat="42.75972" lon="18.1425">
        <ele>305.622329</ele>
        <time>2022-06-10T10:49:49.705Z</time>
      </trkpt>
      <trkpt lat="42.75979" lon="18.14236">
        <ele>305.222774</ele>
        <time>2022-06-10T10:49:52.713Z</time>
      </trkpt>
      <trkpt lat="42.75986" lon="18.14228">
        <ele>304.924996</ele>
        <time>2022-06-10T10:49:55.710Z</time>
      </trkpt>
      <trkpt lat="42.75995" lon="18.14199">
        <ele>304.447935</ele>
        <time>2022-06-10T10:53:30.723Z</time>
      </trkpt>
      <trkpt lat="42.76" lon="18.14186">
        <ele>304.344014</ele>
        <time>2022-06-10T10:53:36.707Z</time>
      </trkpt>
      <trkpt lat="42.76005" lon="18.14172">
        <ele>304.235052</ele>
        <time>2022-06-10T10:53:40.704Z</time>
      </trkpt>
      <trkpt lat="42.7601" lon="18.14159">
        <ele>304.137947</ele>
        <time>2022-06-10T10:53:43.705Z</time>
      </trkpt>
      <trkpt lat="42.76016" lon="18.14148">
        <ele>304.04167</ele>
        <time>2022-06-10T10:53:46.698Z</time>
      </trkpt>
      <trkpt lat="42.76021" lon="18.14134">
        <ele>303.936935</ele>
        <time>2022-06-10T10:53:49.686Z</time>
      </trkpt>
      <trkpt lat="42.76027" lon="18.14121">
        <ele>303.829704</ele>
        <time>2022-06-10T10:53:52.702Z</time>
      </trkpt>
      <trkpt lat="42.76033" lon="18.14109">
        <ele>303.729986</ele>
        <time>2022-06-10T10:53:55.732Z</time>
      </trkpt>
      <trkpt lat="42.76038" lon="18.14097">
        <ele>303.630498</ele>
        <time>2022-06-10T10:53:58.710Z</time>
      </trkpt>
      <trkpt lat="42.76044" lon="18.14083">
        <ele>303.524935</ele>
        <time>2022-06-10T10:54:01.700Z</time>
      </trkpt>
      <trkpt lat="42.76049" lon="18.1407">
        <ele>303.422004</ele>
        <time>2022-06-10T10:54:04.716Z</time>
      </trkpt>
      <trkpt lat="42.76055" lon="18.14056">
        <ele>303.30972</ele>
        <time>2022-06-10T10:54:07.698Z</time>
      </trkpt>
      <trkpt lat="42.76061" lon="18.14041">
        <ele>303.190284</ele>
        <time>2022-06-10T10:54:10.750Z</time>
      </trkpt>
      <trkpt lat="42.76066" lon="18.14029">
        <ele>303.098753</ele>
        <time>2022-06-10T10:54:12.707Z</time>
      </trkpt>
      <trkpt lat="42.76071" lon="18.14017">
        <ele>302.998782</ele>
        <time>2022-06-10T10:54:14.706Z</time>
      </trkpt>
      <trkpt lat="42.76077" lon="18.14005">
        <ele>302.903326</ele>
        <time>2022-06-10T10:54:16.737Z</time>
      </trkpt>
      <trkpt lat="42.76084" lon="18.1399">
        <ele>303.424425</ele>
        <time>2022-06-10T10:54:19.708Z</time>
      </trkpt>
      <trkpt lat="42.7609" lon="18.13977">
        <ele>304.07298</ele>
        <time>2022-06-10T10:54:22.711Z</time>
      </trkpt>
      <trkpt lat="42.76095" lon="18.13964">
        <ele>304.740808</ele>
        <time>2022-06-10T10:54:25.719Z</time>
      </trkpt>
      <trkpt lat="42.761" lon="18.1395">
        <ele>305.410854</ele>
        <time>2022-06-10T10:54:28.711Z</time>
      </trkpt>
      <trkpt lat="42.76106" lon="18.13936">
        <ele>306.084231</ele>
        <time>2022-06-10T10:54:31.715Z</time>
      </trkpt>
      <trkpt lat="42.76112" lon="18.13921">
        <ele>306.80446</ele>
        <time>2022-06-10T10:54:34.712Z</time>
      </trkpt>
      <trkpt lat="42.76118" lon="18.13907">
        <ele>307.510755</ele>
        <time>2022-06-10T10:54:37.707Z</time>
      </trkpt>
      <trkpt lat="42.76124" lon="18.13892">
        <ele>308.233283</ele>
        <time>2022-06-10T10:54:40.719Z</time>
      </trkpt>
      <trkpt lat="42.76132" lon="18.13878">
        <ele>308.98374</ele>
        <time>2022-06-10T10:54:43.715Z</time>
      </trkpt>
      <trkpt lat="42.76139" lon="18.13866">
        <ele>309.650275</ele>
        <time>2022-06-10T10:54:46.716Z</time>
      </trkpt>
      <trkpt lat="42.76148" lon="18.13856">
        <ele>310.322411</ele>
        <time>2022-06-10T10:54:49.750Z</time>
      </trkpt>
      <trkpt lat="42.76157" lon="18.13846">
        <ele>311.00839</ele>
        <time>2022-06-10T10:54:52.735Z</time>
      </trkpt>
      <trkpt lat="42.76168" lon="18.13837">
        <ele>311.737224</ele>
        <time>2022-06-10T10:54:55.711Z</time>
      </trkpt>
      <trkpt lat="42.7618" lon="18.13829">
        <ele>312.482609</ele>
        <time>2022-06-10T10:54:58.720Z</time>
      </trkpt>
      <trkpt lat="42.76191" lon="18.13821">
        <ele>313.257079</ele>
        <time>2022-06-10T10:55:01.711Z</time>
      </trkpt>
      <trkpt lat="42.76199" lon="18.13815">
        <ele>313.598332</ele>
        <time>2022-06-10T10:55:03.715Z</time>
      </trkpt>
      <trkpt lat="42.76211" lon="18.13806">
        <ele>314.044445</ele>
        <time>2022-06-10T10:55:06.705Z</time>
      </trkpt>
      <trkpt lat="42.76219" lon="18.138">
        <ele>314.351181</ele>
        <time>2022-06-10T10:55:08.702Z</time>
      </trkpt>
      <trkpt lat="42.7623" lon="18.13792">
        <ele>314.781297</ele>
        <time>2022-06-10T10:55:11.736Z</time>
      </trkpt>
      <trkpt lat="42.76241" lon="18.13783">
        <ele>315.222565</ele>
        <time>2022-06-10T10:55:14.728Z</time>
      </trkpt>
      <trkpt lat="42.76251" lon="18.13775">
        <ele>315.626765</ele>
        <time>2022-06-10T10:55:17.694Z</time>
      </trkpt>
      <trkpt lat="42.76261" lon="18.13766">
        <ele>316.030614</ele>
        <time>2022-06-10T10:55:20.710Z</time>
      </trkpt>
      <trkpt lat="42.76269" lon="18.13754">
        <ele>316.43548</ele>
        <time>2022-06-10T10:55:23.706Z</time>
      </trkpt>
      <trkpt lat="42.76276" lon="18.13741">
        <ele>316.836466</ele>
        <time>2022-06-10T10:55:26.714Z</time>
      </trkpt>
      <trkpt lat="42.76282" lon="18.13727">
        <ele>317.242993</ele>
        <time>2022-06-10T10:55:29.715Z</time>
      </trkpt>
      <trkpt lat="42.76289" lon="18.13713">
        <ele>317.657697</ele>
        <time>2022-06-10T10:55:32.709Z</time>
      </trkpt>
      <trkpt lat="42.76295" lon="18.13698">
        <ele>318.093502</ele>
        <time>2022-06-10T10:55:35.709Z</time>
      </trkpt>
      <trkpt lat="42.763" lon="18.13681">
        <ele>318.545592</ele>
        <time>2022-06-10T10:55:38.740Z</time>
      </trkpt>
      <trkpt lat="42.76304" lon="18.13664">
        <ele>318.988785</ele>
        <time>2022-06-10T10:55:41.711Z</time>
      </trkpt>
      <trkpt lat="42.76307" lon="18.13647">
        <ele>319.429891</ele>
        <time>2022-06-10T10:55:44.738Z</time>
      </trkpt>
      <trkpt lat="42.76309" lon="18.13631">
        <ele>319.145283</ele>
        <time>2022-06-10T10:55:47.707Z</time>
      </trkpt>
      <trkpt lat="42.7631" lon="18.13614">
        <ele>318.792041</ele>
        <time>2022-06-10T10:55:50.712Z</time>
      </trkpt>
      <trkpt lat="42.7631" lon="18.13596">
        <ele>318.438071</ele>
        <time>2022-06-10T10:55:53.738Z</time>
      </trkpt>
      <trkpt lat="42.7631" lon="18.13579">
        <ele>318.088137</ele>
        <time>2022-06-10T10:55:56.732Z</time>
      </trkpt>
      <trkpt lat="42.76308" lon="18.13564">
        <ele>317.770918</ele>
        <time>2022-06-10T10:55:59.695Z</time>
      </trkpt>
      <trkpt lat="42.76304" lon="18.13548">
        <ele>317.446861</ele>
        <time>2022-06-10T10:56:02.718Z</time>
      </trkpt>
      <trkpt lat="42.76301" lon="18.13532">
        <ele>317.095051</ele>
        <time>2022-06-10T10:56:05.712Z</time>
      </trkpt>
      <trkpt lat="42.76299" lon="18.13515">
        <ele>316.753745</ele>
        <time>2022-06-10T10:56:08.710Z</time>
      </trkpt>
      <trkpt lat="42.76296" lon="18.13498">
        <ele>316.389975</ele>
        <time>2022-06-10T10:56:11.705Z</time>
      </trkpt>
      <trkpt lat="42.76294" lon="18.13481">
        <ele>316.039305</ele>
        <time>2022-06-10T10:56:14.717Z</time>
      </trkpt>
      <trkpt lat="42.76293" lon="18.13463">
        <ele>315.677159</ele>
        <time>2022-06-10T10:56:17.713Z</time>
      </trkpt>
      <trkpt lat="42.76292" lon="18.13451">
        <ele>315.423939</ele>
        <time>2022-06-10T10:56:19.708Z</time>
      </trkpt>
      <trkpt lat="42.76293" lon="18.13433">
        <ele>315.073347</ele>
        <time>2022-06-10T10:56:22.704Z</time>
      </trkpt>
      <trkpt lat="42.76294" lon="18.13415">
        <ele>314.699833</ele>
        <time>2022-06-10T10:56:25.721Z</time>
      </trkpt>
      <trkpt lat="42.76295" lon="18.13398">
        <ele>314.269681</ele>
        <time>2022-06-10T10:56:28.699Z</time>
      </trkpt>
      <trkpt lat="42.76297" lon="18.13381">
        <ele>313.753164</ele>
        <time>2022-06-10T10:56:31.717Z</time>
      </trkpt>
      <trkpt lat="42.76299" lon="18.13365">
        <ele>313.253662</ele>
        <time>2022-06-10T10:56:34.691Z</time>
      </trkpt>
      <trkpt lat="42.76301" lon="18.13348">
        <ele>312.718265</ele>
        <time>2022-06-10T10:56:37.696Z</time>
      </trkpt>
      <trkpt lat="42.76301" lon="18.1333">
        <ele>312.173037</ele>
        <time>2022-06-10T10:56:40.706Z</time>
      </trkpt>
      <trkpt lat="42.76302" lon="18.13312">
        <ele>311.61067</ele>
        <time>2022-06-10T10:56:43.714Z</time>
      </trkpt>
      <trkpt lat="42.76304" lon="18.13295">
        <ele>311.064614</ele>
        <time>2022-06-10T10:56:46.731Z</time>
      </trkpt>
      <trkpt lat="42.76305" lon="18.13283">
        <ele>310.680873</ele>
        <time>2022-06-10T10:56:48.704Z</time>
      </trkpt>
      <trkpt lat="42.76308" lon="18.13265">
        <ele>310.128018</ele>
        <time>2022-06-10T10:56:51.693Z</time>
      </trkpt>
      <trkpt lat="42.76311" lon="18.13248">
        <ele>309.576616</ele>
        <time>2022-06-10T10:56:54.724Z</time>
      </trkpt>
      <trkpt lat="42.76315" lon="18.13231">
        <ele>309.038577</ele>
        <time>2022-06-10T10:56:57.702Z</time>
      </trkpt>
      <trkpt lat="42.7632" lon="18.13215">
        <ele>308.510714</ele>
        <time>2022-06-10T10:57:00.703Z</time>
      </trkpt>
      <trkpt lat="42.76325" lon="18.13201">
        <ele>308.001673</ele>
        <time>2022-06-10T10:57:03.764Z</time>
      </trkpt>
      <trkpt lat="42.7633" lon="18.13185">
        <ele>307.466766</ele>
        <time>2022-06-10T10:57:06.711Z</time>
      </trkpt>
      <trkpt lat="42.76336" lon="18.1317">
        <ele>306.936494</ele>
        <time>2022-06-10T10:57:09.718Z</time>
      </trkpt>
      <trkpt lat="42.76343" lon="18.13154">
        <ele>306.962724</ele>
        <time>2022-06-10T10:57:12.717Z</time>
      </trkpt>
      <trkpt lat="42.76348" lon="18.13143">
        <ele>307.018728</ele>
        <time>2022-06-10T10:57:14.740Z</time>
      </trkpt>
      <trkpt lat="42.76353" lon="18.13133">
        <ele>307.076329</ele>
        <time>2022-06-10T10:57:16.708Z</time>
      </trkpt>
      <trkpt lat="42.76361" lon="18.13119">
        <ele>307.15428</ele>
        <time>2022-06-10T10:57:19.713Z</time>
      </trkpt>
      <trkpt lat="42.7637" lon="18.13108">
        <ele>307.230056</ele>
        <time>2022-06-10T10:57:22.708Z</time>
      </trkpt>
      <trkpt lat="42.7638" lon="18.13097">
        <ele>307.304925</ele>
        <time>2022-06-10T10:57:25.704Z</time>
      </trkpt>
      <trkpt lat="42.76388" lon="18.13085">
        <ele>307.380432</ele>
        <time>2022-06-10T10:57:28.724Z</time>
      </trkpt>
      <trkpt lat="42.76398" lon="18.13074">
        <ele>307.456375</ele>
        <time>2022-06-10T10:57:31.740Z</time>
      </trkpt>
      <trkpt lat="42.76408" lon="18.13064">
        <ele>307.531881</ele>
        <time>2022-06-10T10:57:34.734Z</time>
      </trkpt>
      <trkpt lat="42.76418" lon="18.13055">
        <ele>307.606825</ele>
        <time>2022-06-10T10:57:37.749Z</time>
      </trkpt>
      <trkpt lat="42.76429" lon="18.13044">
        <ele>307.689863</ele>
        <time>2022-06-10T10:57:40.699Z</time>
      </trkpt>
      <trkpt lat="42.7644" lon="18.13035">
        <ele>307.769472</ele>
        <time>2022-06-10T10:57:43.694Z</time>
      </trkpt>
      <trkpt lat="42.76452" lon="18.13025">
        <ele>307.850821</ele>
        <time>2022-06-10T10:57:46.704Z</time>
      </trkpt>
      <trkpt lat="42.76463" lon="18.13017">
        <ele>307.929191</ele>
        <time>2022-06-10T10:57:49.707Z</time>
      </trkpt>
      <trkpt lat="42.76474" lon="18.13008">
        <ele>308.056776</ele>
        <time>2022-06-10T10:57:52.724Z</time>
      </trkpt>
      <trkpt lat="42.76485" lon="18.12999">
        <ele>308.295527</ele>
        <time>2022-06-10T10:57:55.715Z</time>
      </trkpt>
      <trkpt lat="42.76496" lon="18.12991">
        <ele>308.527399</ele>
        <time>2022-06-10T10:57:58.713Z</time>
      </trkpt>
      <trkpt lat="42.76506" lon="18.12981">
        <ele>308.755569</ele>
        <time>2022-06-10T10:58:01.713Z</time>
      </trkpt>
      <trkpt lat="42.76516" lon="18.12972">
        <ele>308.97683</ele>
        <time>2022-06-10T10:58:04.761Z</time>
      </trkpt>
      <trkpt lat="42.76526" lon="18.12964">
        <ele>309.201595</ele>
        <time>2022-06-10T10:58:07.702Z</time>
      </trkpt>
      <trkpt lat="42.76536" lon="18.12954">
        <ele>309.423686</ele>
        <time>2022-06-10T10:58:10.751Z</time>
      </trkpt>
      <trkpt lat="42.76545" lon="18.12944">
        <ele>309.638842</ele>
        <time>2022-06-10T10:58:13.713Z</time>
      </trkpt>
      <trkpt lat="42.76552" lon="18.12931">
        <ele>309.861394</ele>
        <time>2022-06-10T10:58:16.707Z</time>
      </trkpt>
      <trkpt lat="42.7656" lon="18.12918">
        <ele>310.095938</ele>
        <time>2022-06-10T10:58:19.742Z</time>
      </trkpt>
      <trkpt lat="42.76568" lon="18.12905">
        <ele>310.31849</ele>
        <time>2022-06-10T10:58:22.711Z</time>
      </trkpt>
      <trkpt lat="42.76575" lon="18.12892">
        <ele>310.540838</ele>
        <time>2022-06-10T10:58:25.720Z</time>
      </trkpt>
      <trkpt lat="42.76582" lon="18.12879">
        <ele>310.763061</ele>
        <time>2022-06-10T10:58:28.723Z</time>
      </trkpt>
      <trkpt lat="42.76589" lon="18.12866">
        <ele>310.977602</ele>
        <time>2022-06-10T10:58:31.698Z</time>
      </trkpt>
      <trkpt lat="42.76598" lon="18.12854">
        <ele>311.214942</ele>
        <time>2022-06-10T10:58:34.720Z</time>
      </trkpt>
      <trkpt lat="42.76606" lon="18.1284">
        <ele>311.327406</ele>
        <time>2022-06-10T10:58:37.708Z</time>
      </trkpt>
      <trkpt lat="42.76615" lon="18.12827">
        <ele>311.325163</ele>
        <time>2022-06-10T10:58:40.711Z</time>
      </trkpt>
      <trkpt lat="42.76622" lon="18.12813">
        <ele>311.322952</ele>
        <time>2022-06-10T10:58:43.711Z</time>
      </trkpt>
      <trkpt lat="42.7663" lon="18.128">
        <ele>311.32083</ele>
        <time>2022-06-10T10:58:46.732Z</time>
      </trkpt>
      <trkpt lat="42.76639" lon="18.12787">
        <ele>311.318681</ele>
        <time>2022-06-10T10:58:49.754Z</time>
      </trkpt>
      <trkpt lat="42.76647" lon="18.12775">
        <ele>311.316607</ele>
        <time>2022-06-10T10:58:52.718Z</time>
      </trkpt>
      <trkpt lat="42.76655" lon="18.12762">
        <ele>311.314483</ele>
        <time>2022-06-10T10:58:55.697Z</time>
      </trkpt>
      <trkpt lat="42.76662" lon="18.12749">
        <ele>311.312373</ele>
        <time>2022-06-10T10:58:58.706Z</time>
      </trkpt>
      <trkpt lat="42.7667" lon="18.12737">
        <ele>311.31024</ele>
        <time>2022-06-10T10:59:01.711Z</time>
      </trkpt>
      <trkpt lat="42.76676" lon="18.12727">
        <ele>311.308672</ele>
        <time>2022-06-10T10:59:03.716Z</time>
      </trkpt>
      <trkpt lat="42.76682" lon="18.12718">
        <ele>311.30711</ele>
        <time>2022-06-10T10:59:05.724Z</time>
      </trkpt>
      <trkpt lat="42.76687" lon="18.12708">
        <ele>311.305554</ele>
        <time>2022-06-10T10:59:07.716Z</time>
      </trkpt>
      <trkpt lat="42.76696" lon="18.12694">
        <ele>311.30331</ele>
        <time>2022-06-10T10:59:10.707Z</time>
      </trkpt>
      <trkpt lat="42.76703" lon="18.12681">
        <ele>311.301159</ele>
        <time>2022-06-10T10:59:13.704Z</time>
      </trkpt>
      <trkpt lat="42.76711" lon="18.12668">
        <ele>311.298995</ele>
        <time>2022-06-10T10:59:16.699Z</time>
      </trkpt>
      <trkpt lat="42.7672" lon="18.12656">
        <ele>311.17569</ele>
        <time>2022-06-10T10:59:19.716Z</time>
      </trkpt>
      <trkpt lat="42.76728" lon="18.12642">
        <ele>310.790788</ele>
        <time>2022-06-10T10:59:22.735Z</time>
      </trkpt>
      <trkpt lat="42.76736" lon="18.12628">
        <ele>310.40806</ele>
        <time>2022-06-10T10:59:25.710Z</time>
      </trkpt>
      <trkpt lat="42.76744" lon="18.12615">
        <ele>310.056958</ele>
        <time>2022-06-10T10:59:28.731Z</time>
      </trkpt>
      <trkpt lat="42.7675" lon="18.12602">
        <ele>309.702287</ele>
        <time>2022-06-10T10:59:31.718Z</time>
      </trkpt>
      <trkpt lat="42.76758" lon="18.12587">
        <ele>309.32641</ele>
        <time>2022-06-10T10:59:34.712Z</time>
      </trkpt>
      <trkpt lat="42.76765" lon="18.12573">
        <ele>308.961155</ele>
        <time>2022-06-10T10:59:37.716Z</time>
      </trkpt>
      <trkpt lat="42.76772" lon="18.1256">
        <ele>308.601327</ele>
        <time>2022-06-10T10:59:40.705Z</time>
      </trkpt>
      <trkpt lat="42.76779" lon="18.12548">
        <ele>308.256907</ele>
        <time>2022-06-10T10:59:43.694Z</time>
      </trkpt>
      <trkpt lat="42.76786" lon="18.12534">
        <ele>307.904009</ele>
        <time>2022-06-10T10:59:46.718Z</time>
      </trkpt>
      <trkpt lat="42.76792" lon="18.12521">
        <ele>307.554176</ele>
        <time>2022-06-10T10:59:49.715Z</time>
      </trkpt>
      <trkpt lat="42.76798" lon="18.12506">
        <ele>307.201862</ele>
        <time>2022-06-10T10:59:52.704Z</time>
      </trkpt>
      <trkpt lat="42.76803" lon="18.12492">
        <ele>306.853464</ele>
        <time>2022-06-10T10:59:55.696Z</time>
      </trkpt>
      <trkpt lat="42.76806" lon="18.12477">
        <ele>306.517431</ele>
        <time>2022-06-10T10:59:58.702Z</time>
      </trkpt>
      <trkpt lat="42.76811" lon="18.12462">
        <ele>306.169561</ele>
        <time>2022-06-10T11:00:01.719Z</time>
      </trkpt>
      <trkpt lat="42.76814" lon="18.12446">
        <ele>306.035711</ele>
        <time>2022-06-10T11:00:04.708Z</time>
      </trkpt>
      <trkpt lat="42.76816" lon="18.12429">
        <ele>306.12988</ele>
        <time>2022-06-10T11:00:07.740Z</time>
      </trkpt>
      <trkpt lat="42.76819" lon="18.12412">
        <ele>306.225496</ele>
        <time>2022-06-10T11:00:10.716Z</time>
      </trkpt>
      <trkpt lat="42.76821" lon="18.12397">
        <ele>306.313919</ele>
        <time>2022-06-10T11:00:13.749Z</time>
      </trkpt>
      <trkpt lat="42.76823" lon="18.1238">
        <ele>306.407411</ele>
        <time>2022-06-10T11:00:16.736Z</time>
      </trkpt>
      <trkpt lat="42.76826" lon="18.12363">
        <ele>306.506274</ele>
        <time>2022-06-10T11:00:19.695Z</time>
      </trkpt>
      <trkpt lat="42.76829" lon="18.12351">
        <ele>306.574874</ele>
        <time>2022-06-10T11:00:21.725Z</time>
      </trkpt>
      <trkpt lat="42.76832" lon="18.12334">
        <ele>306.675007</ele>
        <time>2022-06-10T11:00:24.727Z</time>
      </trkpt>
      <trkpt lat="42.76836" lon="18.12316">
        <ele>306.77545</ele>
        <time>2022-06-10T11:00:27.746Z</time>
      </trkpt>
      <trkpt lat="42.76841" lon="18.123">
        <ele>306.86976</ele>
        <time>2022-06-10T11:00:30.711Z</time>
      </trkpt>
      <trkpt lat="42.76845" lon="18.12285">
        <ele>306.960444</ele>
        <time>2022-06-10T11:00:33.709Z</time>
      </trkpt>
      <trkpt lat="42.76849" lon="18.12271">
        <ele>307.046796</ele>
        <time>2022-06-10T11:00:36.744Z</time>
      </trkpt>
      <trkpt lat="42.76856" lon="18.12258">
        <ele>307.135059</ele>
        <time>2022-06-10T11:00:39.725Z</time>
      </trkpt>
      <trkpt lat="42.76863" lon="18.12245">
        <ele>307.223242</ele>
        <time>2022-06-10T11:00:42.705Z</time>
      </trkpt>
      <trkpt lat="42.76871" lon="18.12234">
        <ele>307.308205</ele>
        <time>2022-06-10T11:00:45.711Z</time>
      </trkpt>
      <trkpt lat="42.76878" lon="18.12221">
        <ele>307.445804</ele>
        <time>2022-06-10T11:00:48.708Z</time>
      </trkpt>
      <trkpt lat="42.76886" lon="18.12208">
        <ele>307.632786</ele>
        <time>2022-06-10T11:00:51.695Z</time>
      </trkpt>
      <trkpt lat="42.76894" lon="18.12194">
        <ele>307.823056</ele>
        <time>2022-06-10T11:00:54.726Z</time>
      </trkpt>
      <trkpt lat="42.76901" lon="18.12182">
        <ele>308.00653</ele>
        <time>2022-06-10T11:00:57.699Z</time>
      </trkpt>
      <trkpt lat="42.76909" lon="18.12168">
        <ele>308.196875</ele>
        <time>2022-06-10T11:01:00.720Z</time>
      </trkpt>
      <trkpt lat="42.76917" lon="18.12154">
        <ele>308.391089</ele>
        <time>2022-06-10T11:01:03.718Z</time>
      </trkpt>
      <trkpt lat="42.76925" lon="18.12141">
        <ele>308.582264</ele>
        <time>2022-06-10T11:01:06.707Z</time>
      </trkpt>
      <trkpt lat="42.76932" lon="18.12127">
        <ele>308.765418</ele>
        <time>2022-06-10T11:01:09.712Z</time>
      </trkpt>
      <trkpt lat="42.76938" lon="18.12117">
        <ele>308.903244</ele>
        <time>2022-06-10T11:01:11.700Z</time>
      </trkpt>
      <trkpt lat="42.76947" lon="18.12104">
        <ele>309.104371</ele>
        <time>2022-06-10T11:01:14.704Z</time>
      </trkpt>
      <trkpt lat="42.76955" lon="18.1209">
        <ele>309.304019</ele>
        <time>2022-06-10T11:01:17.711Z</time>
      </trkpt>
      <trkpt lat="42.76963" lon="18.12077">
        <ele>309.492708</ele>
        <time>2022-06-10T11:01:20.696Z</time>
      </trkpt>
      <trkpt lat="42.76971" lon="18.12064">
        <ele>309.670994</ele>
        <time>2022-06-10T11:01:23.740Z</time>
      </trkpt>
      <trkpt lat="42.76978" lon="18.12051">
        <ele>309.855931</ele>
        <time>2022-06-10T11:01:26.716Z</time>
      </trkpt>
      <trkpt lat="42.76985" lon="18.12037">
        <ele>310.033069</ele>
        <time>2022-06-10T11:01:29.703Z</time>
      </trkpt>
      <trkpt lat="42.76991" lon="18.12023">
        <ele>309.948361</ele>
        <time>2022-06-10T11:01:32.712Z</time>
      </trkpt>
      <trkpt lat="42.76997" lon="18.12008">
        <ele>309.829519</ele>
        <time>2022-06-10T11:01:35.708Z</time>
      </trkpt>
      <trkpt lat="42.77003" lon="18.11994">
        <ele>309.713804</ele>
        <time>2022-06-10T11:01:38.712Z</time>
      </trkpt>
      <trkpt lat="42.77009" lon="18.1198">
        <ele>309.596502</ele>
        <time>2022-06-10T11:01:41.705Z</time>
      </trkpt>
      <trkpt lat="42.77016" lon="18.11965">
        <ele>309.473549</ele>
        <time>2022-06-10T11:01:44.711Z</time>
      </trkpt>
      <trkpt lat="42.77021" lon="18.11953">
        <ele>309.383703</ele>
        <time>2022-06-10T11:01:46.725Z</time>
      </trkpt>
      <trkpt lat="42.77025" lon="18.11942">
        <ele>309.293124</ele>
        <time>2022-06-10T11:01:48.704Z</time>
      </trkpt>
      <trkpt lat="42.7703" lon="18.11931">
        <ele>309.206043</ele>
        <time>2022-06-10T11:01:50.698Z</time>
      </trkpt>
      <trkpt lat="42.77035" lon="18.11921">
        <ele>309.120504</ele>
        <time>2022-06-10T11:01:52.713Z</time>
      </trkpt>
      <trkpt lat="42.77042" lon="18.11907">
        <ele>308.999991</ele>
        <time>2022-06-10T11:01:55.714Z</time>
      </trkpt>
      <trkpt lat="42.77049" lon="18.11893">
        <ele>308.884157</ele>
        <time>2022-06-10T11:01:58.708Z</time>
      </trkpt>
      <trkpt lat="42.77058" lon="18.1188">
        <ele>308.763027</ele>
        <time>2022-06-10T11:02:01.714Z</time>
      </trkpt>
      <trkpt lat="42.77066" lon="18.11867">
        <ele>308.637743</ele>
        <time>2022-06-10T11:02:04.711Z</time>
      </trkpt>
      <trkpt lat="42.77076" lon="18.11855">
        <ele>308.515116</ele>
        <time>2022-06-10T11:02:07.719Z</time>
      </trkpt>
      <trkpt lat="42.77086" lon="18.11844">
        <ele>308.392566</ele>
        <time>2022-06-10T11:02:10.705Z</time>
      </trkpt>
      <trkpt lat="42.77096" lon="18.11834">
        <ele>308.211913</ele>
        <time>2022-06-10T11:02:13.716Z</time>
      </trkpt>
      <trkpt lat="42.77106" lon="18.11823">
        <ele>307.987645</ele>
        <time>2022-06-10T11:02:16.711Z</time>
      </trkpt>
      <trkpt lat="42.77117" lon="18.11813">
        <ele>307.764912</ele>
        <time>2022-06-10T11:02:19.693Z</time>
      </trkpt>
      <trkpt lat="42.77126" lon="18.11804">
        <ele>307.55903</ele>
        <time>2022-06-10T11:02:22.708Z</time>
      </trkpt>
      <trkpt lat="42.77135" lon="18.11797">
        <ele>307.373203</ele>
        <time>2022-06-10T11:02:25.786Z</time>
      </trkpt>
      <trkpt lat="42.77145" lon="18.1179">
        <ele>307.173627</ele>
        <time>2022-06-10T11:02:28.717Z</time>
      </trkpt>
      <trkpt lat="42.77156" lon="18.11782">
        <ele>306.959581</ele>
        <time>2022-06-10T11:02:31.707Z</time>
      </trkpt>
      <trkpt lat="42.77167" lon="18.11773">
        <ele>306.736086</ele>
        <time>2022-06-10T11:02:34.713Z</time>
      </trkpt>
      <trkpt lat="42.77177" lon="18.11764">
        <ele>306.512592</ele>
        <time>2022-06-10T11:02:37.726Z</time>
      </trkpt>
      <trkpt lat="42.77189" lon="18.11755">
        <ele>306.282247</ele>
        <time>2022-06-10T11:02:40.727Z</time>
      </trkpt>
      <trkpt lat="42.772" lon="18.11747">
        <ele>306.060652</ele>
        <time>2022-06-10T11:02:43.709Z</time>
      </trkpt>
      <trkpt lat="42.77212" lon="18.11742">
        <ele>305.839375</ele>
        <time>2022-06-10T11:02:46.748Z</time>
      </trkpt>
      <trkpt lat="42.77224" lon="18.1174">
        <ele>305.614468</ele>
        <time>2022-06-10T11:02:49.734Z</time>
      </trkpt>
      <trkpt lat="42.77237" lon="18.1174">
        <ele>305.393672</ele>
        <time>2022-06-10T11:02:52.733Z</time>
      </trkpt>
      <trkpt lat="42.77249" lon="18.11741">
        <ele>305.173666</ele>
        <time>2022-06-10T11:02:55.715Z</time>
      </trkpt>
      <trkpt lat="42.77261" lon="18.11745">
        <ele>305.085055</ele>
        <time>2022-06-10T11:02:58.750Z</time>
      </trkpt>
      <trkpt lat="42.77272" lon="18.11749">
        <ele>305.000548</ele>
        <time>2022-06-10T11:03:01.724Z</time>
      </trkpt>
      <trkpt lat="42.77283" lon="18.11753">
        <ele>304.920689</ele>
        <time>2022-06-10T11:03:04.728Z</time>
      </trkpt>
      <trkpt lat="42.77295" lon="18.11756">
        <ele>304.838648</ele>
        <time>2022-06-10T11:03:07.700Z</time>
      </trkpt>
      <trkpt lat="42.77306" lon="18.11758">
        <ele>304.759315</ele>
        <time>2022-06-10T11:03:10.703Z</time>
      </trkpt>
      <trkpt lat="42.77317" lon="18.1176">
        <ele>304.678116</ele>
        <time>2022-06-10T11:03:13.711Z</time>
      </trkpt>
      <trkpt lat="42.77329" lon="18.1176">
        <ele>304.595057</ele>
        <time>2022-06-10T11:03:16.707Z</time>
      </trkpt>
      <trkpt lat="42.7734" lon="18.11759">
        <ele>304.513266</ele>
        <time>2022-06-10T11:03:19.700Z</time>
      </trkpt>
      <trkpt lat="42.77351" lon="18.11755">
        <ele>304.436286</ele>
        <time>2022-06-10T11:03:22.717Z</time>
      </trkpt>
      <trkpt lat="42.77362" lon="18.11751">
        <ele>304.349313</ele>
        <time>2022-06-10T11:03:25.723Z</time>
      </trkpt>
      <trkpt lat="42.77375" lon="18.11744">
        <ele>304.255948</ele>
        <time>2022-06-10T11:03:28.738Z</time>
      </trkpt>
      <trkpt lat="42.77386" lon="18.11736">
        <ele>304.16413</ele>
        <time>2022-06-10T11:03:31.709Z</time>
      </trkpt>
      <trkpt lat="42.77398" lon="18.11728">
        <ele>304.06924</ele>
        <time>2022-06-10T11:03:34.707Z</time>
      </trkpt>
      <trkpt lat="42.7741" lon="18.1172">
        <ele>303.97435</ele>
        <time>2022-06-10T11:03:37.694Z</time>
      </trkpt>
      <trkpt lat="42.77422" lon="18.11711">
        <ele>303.879524</ele>
        <time>2022-06-10T11:03:40.716Z</time>
      </trkpt>
      <trkpt lat="42.77433" lon="18.11703">
        <ele>303.784036</ele>
        <time>2022-06-10T11:03:43.750Z</time>
      </trkpt>
      <trkpt lat="42.77445" lon="18.11695">
        <ele>303.689023</ele>
        <time>2022-06-10T11:03:46.698Z</time>
      </trkpt>
      <trkpt lat="42.77456" lon="18.11688">
        <ele>303.59714</ele>
        <time>2022-06-10T11:03:49.707Z</time>
      </trkpt>
      <trkpt lat="42.77467" lon="18.1168">
        <ele>303.506004</ele>
        <time>2022-06-10T11:03:52.709Z</time>
      </trkpt>
      <trkpt lat="42.77478" lon="18.11673">
        <ele>303.413251</ele>
        <time>2022-06-10T11:03:55.706Z</time>
      </trkpt>
      <trkpt lat="42.77489" lon="18.11665">
        <ele>303.32464</ele>
        <time>2022-06-10T11:03:58.708Z</time>
      </trkpt>
      <trkpt lat="42.77499" lon="18.11656">
        <ele>303.233357</ele>
        <time>2022-06-10T11:04:01.724Z</time>
      </trkpt>
      <trkpt lat="42.7751" lon="18.11646">
        <ele>303.138463</ele>
        <time>2022-06-10T11:04:04.705Z</time>
      </trkpt>
      <trkpt lat="42.77521" lon="18.11636">
        <ele>303.042065</ele>
        <time>2022-06-10T11:04:07.710Z</time>
      </trkpt>
      <trkpt lat="42.77531" lon="18.11625">
        <ele>302.948106</ele>
        <time>2022-06-10T11:04:10.706Z</time>
      </trkpt>
      <trkpt lat="42.7754" lon="18.11614">
        <ele>302.854657</ele>
        <time>2022-06-10T11:04:13.704Z</time>
      </trkpt>
      <trkpt lat="42.77549" lon="18.11602">
        <ele>302.762607</ele>
        <time>2022-06-10T11:04:16.708Z</time>
      </trkpt>
      <trkpt lat="42.77559" lon="18.1159">
        <ele>302.666923</ele>
        <time>2022-06-10T11:04:19.724Z</time>
      </trkpt>
      <trkpt lat="42.77568" lon="18.11579">
        <ele>302.577856</ele>
        <time>2022-06-10T11:04:22.707Z</time>
      </trkpt>
      <trkpt lat="42.77575" lon="18.11569">
        <ele>302.713052</ele>
        <time>2022-06-10T11:04:25.717Z</time>
      </trkpt>
      <trkpt lat="42.77583" lon="18.11558">
        <ele>302.917728</ele>
        <time>2022-06-10T11:04:28.713Z</time>
      </trkpt>
      <trkpt lat="42.77591" lon="18.11547">
        <ele>303.11264</ele>
        <time>2022-06-10T11:04:31.721Z</time>
      </trkpt>
      <trkpt lat="42.77598" lon="18.11537">
        <ele>303.291823</ele>
        <time>2022-06-10T11:04:34.723Z</time>
      </trkpt>
      <trkpt lat="42.77606" lon="18.11525">
        <ele>303.511336</ele>
        <time>2022-06-10T11:04:38.709Z</time>
      </trkpt>
      <trkpt lat="42.77612" lon="18.11514">
        <ele>303.691211</ele>
        <time>2022-06-10T11:04:41.722Z</time>
      </trkpt>
      <trkpt lat="42.77618" lon="18.11502">
        <ele>303.885883</ele>
        <time>2022-06-10T11:04:44.719Z</time>
      </trkpt>
      <trkpt lat="42.77623" lon="18.11488">
        <ele>304.081844</ele>
        <time>2022-06-10T11:04:47.708Z</time>
      </trkpt>
      <trkpt lat="42.77628" lon="18.11474">
        <ele>304.292043</ele>
        <time>2022-06-10T11:04:50.705Z</time>
      </trkpt>
      <trkpt lat="42.77633" lon="18.11458">
        <ele>304.523681</ele>
        <time>2022-06-10T11:04:53.706Z</time>
      </trkpt>
      <trkpt lat="42.77636" lon="18.11442">
        <ele>304.74683</ele>
        <time>2022-06-10T11:04:56.700Z</time>
      </trkpt>
      <trkpt lat="42.7764" lon="18.11426">
        <ele>304.96671</ele>
        <time>2022-06-10T11:04:59.712Z</time>
      </trkpt>
      <trkpt lat="42.77643" lon="18.1141">
        <ele>305.181499</ele>
        <time>2022-06-10T11:05:02.733Z</time>
      </trkpt>
      <trkpt lat="42.77643" lon="18.11393">
        <ele>305.403638</ele>
        <time>2022-06-10T11:05:05.718Z</time>
      </trkpt>
      <trkpt lat="42.77643" lon="18.11376">
        <ele>305.630589</ele>
        <time>2022-06-10T11:05:08.726Z</time>
      </trkpt>
      <trkpt lat="42.77644" lon="18.11359">
        <ele>305.916636</ele>
        <time>2022-06-10T11:05:11.762Z</time>
      </trkpt>
      <trkpt lat="42.77644" lon="18.11341">
        <ele>306.353536</ele>
        <time>2022-06-10T11:05:14.717Z</time>
      </trkpt>
      <trkpt lat="42.77643" lon="18.11324">
        <ele>306.78611</ele>
        <time>2022-06-10T11:05:17.746Z</time>
      </trkpt>
      <trkpt lat="42.77641" lon="18.11307">
        <ele>307.203561</ele>
        <time>2022-06-10T11:05:20.707Z</time>
      </trkpt>
      <trkpt lat="42.7764" lon="18.1129">
        <ele>307.628818</ele>
        <time>2022-06-10T11:05:23.755Z</time>
      </trkpt>
      <trkpt lat="42.77638" lon="18.11272">
        <ele>308.067715</ele>
        <time>2022-06-10T11:05:26.709Z</time>
      </trkpt>
      <trkpt lat="42.77637" lon="18.11255">
        <ele>308.500357</ele>
        <time>2022-06-10T11:05:29.736Z</time>
      </trkpt>
      <trkpt lat="42.77636" lon="18.11238">
        <ele>308.924978</ele>
        <time>2022-06-10T11:05:32.720Z</time>
      </trkpt>
      <trkpt lat="42.77636" lon="18.1122">
        <ele>309.371799</ele>
        <time>2022-06-10T11:05:35.744Z</time>
      </trkpt>
      <trkpt lat="42.77636" lon="18.11202">
        <ele>309.810984</ele>
        <time>2022-06-10T11:05:38.716Z</time>
      </trkpt>
      <trkpt lat="42.77635" lon="18.11186">
        <ele>310.224249</ele>
        <time>2022-06-10T11:05:41.710Z</time>
      </trkpt>
      <trkpt lat="42.77634" lon="18.11169">
        <ele>310.632861</ele>
        <time>2022-06-10T11:05:44.712Z</time>
      </trkpt>
      <trkpt lat="42.77633" lon="18.11153">
        <ele>311.042761</ele>
        <time>2022-06-10T11:05:47.692Z</time>
      </trkpt>
      <trkpt lat="42.77632" lon="18.11137">
        <ele>311.438718</ele>
        <time>2022-06-10T11:05:50.696Z</time>
      </trkpt>
      <trkpt lat="42.77631" lon="18.11121">
        <ele>311.826729</ele>
        <time>2022-06-10T11:05:53.701Z</time>
      </trkpt>
      <trkpt lat="42.7763" lon="18.11105">
        <ele>311.529571</ele>
        <time>2022-06-10T11:05:56.708Z</time>
      </trkpt>
      <trkpt lat="42.7763" lon="18.11089">
        <ele>311.141116</ele>
        <time>2022-06-10T11:05:59.718Z</time>
      </trkpt>
      <trkpt lat="42.7763" lon="18.11073">
        <ele>310.754836</ele>
        <time>2022-06-10T11:06:02.704Z</time>
      </trkpt>
      <trkpt lat="42.77629" lon="18.11056">
        <ele>310.353667</ele>
        <time>2022-06-10T11:06:05.712Z</time>
      </trkpt>
      <trkpt lat="42.77629" lon="18.11038">
        <ele>309.928926</ele>
        <time>2022-06-10T11:06:08.708Z</time>
      </trkpt>
      <trkpt lat="42.77631" lon="18.1102">
        <ele>309.497415</ele>
        <time>2022-06-10T11:06:11.728Z</time>
      </trkpt>
      <trkpt lat="42.77633" lon="18.11003">
        <ele>309.0711</ele>
        <time>2022-06-10T11:06:14.723Z</time>
      </trkpt>
      <trkpt lat="42.77638" lon="18.10986">
        <ele>308.643398</ele>
        <time>2022-06-10T11:06:17.699Z</time>
      </trkpt>
      <trkpt lat="42.77643" lon="18.1097">
        <ele>308.226138</ele>
        <time>2022-06-10T11:06:20.747Z</time>
      </trkpt>
      <trkpt lat="42.7765" lon="18.10955">
        <ele>307.797388</ele>
        <time>2022-06-10T11:06:23.707Z</time>
      </trkpt>
      <trkpt lat="42.77658" lon="18.10941">
        <ele>307.377876</ele>
        <time>2022-06-10T11:06:26.757Z</time>
      </trkpt>
      <trkpt lat="42.77666" lon="18.10929">
        <ele>306.97063</ele>
        <time>2022-06-10T11:06:29.748Z</time>
      </trkpt>
      <trkpt lat="42.77676" lon="18.10919">
        <ele>306.561984</ele>
        <time>2022-06-10T11:06:32.706Z</time>
      </trkpt>
      <trkpt lat="42.77687" lon="18.1091">
        <ele>306.151315</ele>
        <time>2022-06-10T11:06:35.713Z</time>
      </trkpt>
      <trkpt lat="42.77698" lon="18.10901">
        <ele>305.890992</ele>
        <time>2022-06-10T11:06:38.716Z</time>
      </trkpt>
      <trkpt lat="42.7771" lon="18.10895">
        <ele>305.717309</ele>
        <time>2022-06-10T11:06:41.714Z</time>
      </trkpt>
      <trkpt lat="42.77722" lon="18.1089">
        <ele>305.53187</ele>
        <time>2022-06-10T11:06:44.726Z</time>
      </trkpt>
      <trkpt lat="42.77734" lon="18.10885">
        <ele>305.360654</ele>
        <time>2022-06-10T11:06:47.715Z</time>
      </trkpt>
      <trkpt lat="42.77746" lon="18.10881">
        <ele>305.19349</ele>
        <time>2022-06-10T11:06:50.720Z</time>
      </trkpt>
      <trkpt lat="42.77758" lon="18.10879">
        <ele>305.026462</ele>
        <time>2022-06-10T11:06:53.707Z</time>
      </trkpt>
      <trkpt lat="42.77769" lon="18.10874">
        <ele>304.860492</ele>
        <time>2022-06-10T11:06:56.710Z</time>
      </trkpt>
      <trkpt lat="42.77781" lon="18.10867">
        <ele>304.692884</ele>
        <time>2022-06-10T11:06:59.704Z</time>
      </trkpt>
      <trkpt lat="42.77791" lon="18.10857">
        <ele>304.514886</ele>
        <time>2022-06-10T11:07:02.712Z</time>
      </trkpt>
      <trkpt lat="42.778" lon="18.10846">
        <ele>304.344902</ele>
        <time>2022-06-10T11:07:05.739Z</time>
      </trkpt>
      <trkpt lat="42.77809" lon="18.10834">
        <ele>304.170341</ele>
        <time>2022-06-10T11:07:08.715Z</time>
      </trkpt>
      <trkpt lat="42.77817" lon="18.1082">
        <ele>303.993735</ele>
        <time>2022-06-10T11:07:11.761Z</time>
      </trkpt>
      <trkpt lat="42.77824" lon="18.10805">
        <ele>303.821415</ele>
        <time>2022-06-10T11:07:14.699Z</time>
      </trkpt>
      <trkpt lat="42.77829" lon="18.10789">
        <ele>303.640389</ele>
        <time>2022-06-10T11:07:17.760Z</time>
      </trkpt>
      <trkpt lat="42.77833" lon="18.10772">
        <ele>303.704773</ele>
        <time>2022-06-10T11:07:20.711Z</time>
      </trkpt>
      <trkpt lat="42.77836" lon="18.10754">
        <ele>304.266717</ele>
        <time>2022-06-10T11:07:23.720Z</time>
      </trkpt>
      <trkpt lat="42.77838" lon="18.10737">
        <ele>304.816232</ele>
        <time>2022-06-10T11:07:26.694Z</time>
      </trkpt>
      <trkpt lat="42.7784" lon="18.10721">
        <ele>305.343921</ele>
        <time>2022-06-10T11:07:29.711Z</time>
      </trkpt>
      <trkpt lat="42.77841" lon="18.10703">
        <ele>305.893616</ele>
        <time>2022-06-10T11:07:32.708Z</time>
      </trkpt>
      <trkpt lat="42.77843" lon="18.10686">
        <ele>306.450999</ele>
        <time>2022-06-10T11:07:35.715Z</time>
      </trkpt>
      <trkpt lat="42.77844" lon="18.10668">
        <ele>307.009713</ele>
        <time>2022-06-10T11:07:38.729Z</time>
      </trkpt>
      <trkpt lat="42.77846" lon="18.10651">
        <ele>307.55358</ele>
        <time>2022-06-10T11:07:41.704Z</time>
      </trkpt>
      <trkpt lat="42.77847" lon="18.10634">
        <ele>308.104218</ele>
        <time>2022-06-10T11:07:44.721Z</time>
      </trkpt>
      <trkpt lat="42.77847" lon="18.10617">
        <ele>308.644887</ele>
        <time>2022-06-10T11:07:47.715Z</time>
      </trkpt>
      <trkpt lat="42.77846" lon="18.106">
        <ele>309.184324</ele>
        <time>2022-06-10T11:07:50.738Z</time>
      </trkpt>
      <trkpt lat="42.77843" lon="18.10583">
        <ele>309.715592</ele>
        <time>2022-06-10T11:07:53.728Z</time>
      </trkpt>
      <trkpt lat="42.77839" lon="18.10568">
        <ele>310.246799</ele>
        <time>2022-06-10T11:07:56.711Z</time>
      </trkpt>
      <trkpt lat="42.77832" lon="18.10553">
        <ele>310.793702</ele>
        <time>2022-06-10T11:07:59.716Z</time>
      </trkpt>
      <trkpt lat="42.77827" lon="18.10543">
        <ele>311.181048</ele>
        <time>2022-06-10T11:08:01.749Z</time>
      </trkpt>
      <trkpt lat="42.77822" lon="18.10533">
        <ele>311.366893</ele>
        <time>2022-06-10T11:08:03.724Z</time>
      </trkpt>
      <trkpt lat="42.77813" lon="18.10519">
        <ele>311.560208</ele>
        <time>2022-06-10T11:08:06.732Z</time>
      </trkpt>
      <trkpt lat="42.77805" lon="18.10506">
        <ele>311.744394</ele>
        <time>2022-06-10T11:08:09.716Z</time>
      </trkpt>
      <trkpt lat="42.77795" lon="18.10496">
        <ele>311.919974</ele>
        <time>2022-06-10T11:08:12.710Z</time>
      </trkpt>
      <trkpt lat="42.77787" lon="18.10484">
        <ele>312.101114</ele>
        <time>2022-06-10T11:08:15.709Z</time>
      </trkpt>
      <trkpt lat="42.77778" lon="18.10471">
        <ele>312.278551</ele>
        <time>2022-06-10T11:08:18.709Z</time>
      </trkpt>
      <trkpt lat="42.77771" lon="18.10458">
        <ele>312.459386</ele>
        <time>2022-06-10T11:08:21.717Z</time>
      </trkpt>
      <trkpt lat="42.77764" lon="18.10444">
        <ele>312.640223</ele>
        <time>2022-06-10T11:08:24.715Z</time>
      </trkpt>
      <trkpt lat="42.77759" lon="18.10429">
        <ele>312.819665</ele>
        <time>2022-06-10T11:08:27.709Z</time>
      </trkpt>
      <trkpt lat="42.77755" lon="18.10412">
        <ele>313.00553</ele>
        <time>2022-06-10T11:08:30.713Z</time>
      </trkpt>
      <trkpt lat="42.77753" lon="18.10395">
        <ele>313.194327</ele>
        <time>2022-06-10T11:08:33.717Z</time>
      </trkpt>
      <trkpt lat="42.77752" lon="18.10378">
        <ele>313.376335</ele>
        <time>2022-06-10T11:08:36.704Z</time>
      </trkpt>
      <trkpt lat="42.77752" lon="18.1036">
        <ele>313.559033</ele>
        <time>2022-06-10T11:08:39.757Z</time>
      </trkpt>
      <trkpt lat="42.77754" lon="18.10344">
        <ele>313.733997</ele>
        <time>2022-06-10T11:08:42.708Z</time>
      </trkpt>
      <trkpt lat="42.77757" lon="18.10329">
        <ele>313.832422</ele>
        <time>2022-06-10T11:08:45.698Z</time>
      </trkpt>
      <trkpt lat="42.77761" lon="18.10315">
        <ele>313.487822</ele>
        <time>2022-06-10T11:08:48.704Z</time>
      </trkpt>
      <trkpt lat="42.77766" lon="18.103">
        <ele>313.138079</ele>
        <time>2022-06-10T11:08:51.724Z</time>
      </trkpt>
      <trkpt lat="42.77772" lon="18.10286">
        <ele>312.775129</ele>
        <time>2022-06-10T11:08:54.721Z</time>
      </trkpt>
      <trkpt lat="42.77779" lon="18.10271">
        <ele>312.397583</ele>
        <time>2022-06-10T11:08:57.711Z</time>
      </trkpt>
      <trkpt lat="42.77786" lon="18.10257">
        <ele>312.02723</ele>
        <time>2022-06-10T11:09:00.716Z</time>
      </trkpt>
      <trkpt lat="42.77793" lon="18.10242">
        <ele>311.637636</ele>
        <time>2022-06-10T11:09:03.703Z</time>
      </trkpt>
      <trkpt lat="42.77799" lon="18.10227">
        <ele>311.250723</ele>
        <time>2022-06-10T11:09:06.702Z</time>
      </trkpt>
      <trkpt lat="42.77806" lon="18.10213">
        <ele>310.87446</ele>
        <time>2022-06-10T11:09:09.716Z</time>
      </trkpt>
      <trkpt lat="42.77812" lon="18.10199">
        <ele>310.505968</ele>
        <time>2022-06-10T11:09:12.701Z</time>
      </trkpt>
      <trkpt lat="42.7782" lon="18.10184">
        <ele>310.118527</ele>
        <time>2022-06-10T11:09:15.712Z</time>
      </trkpt>
      <trkpt lat="42.77826" lon="18.1017">
        <ele>309.740983</ele>
        <time>2022-06-10T11:09:18.727Z</time>
      </trkpt>
      <trkpt lat="42.77833" lon="18.10154">
        <ele>309.338958</ele>
        <time>2022-06-10T11:09:21.717Z</time>
      </trkpt>
      <trkpt lat="42.77837" lon="18.10142">
        <ele>309.062522</ele>
        <time>2022-06-10T11:09:23.751Z</time>
      </trkpt>
      <trkpt lat="42.77842" lon="18.10126">
        <ele>308.666456</ele>
        <time>2022-06-10T11:09:26.704Z</time>
      </trkpt>
      <trkpt lat="42.77846" lon="18.10109">
        <ele>308.568118</ele>
        <time>2022-06-10T11:09:29.708Z</time>
      </trkpt>
      <trkpt lat="42.7785" lon="18.10092">
        <ele>308.740926</ele>
        <time>2022-06-10T11:09:32.720Z</time>
      </trkpt>
      <trkpt lat="42.77853" lon="18.10075">
        <ele>308.919333</ele>
        <time>2022-06-10T11:09:35.732Z</time>
      </trkpt>
      <trkpt lat="42.77855" lon="18.10058">
        <ele>309.092041</ele>
        <time>2022-06-10T11:09:38.724Z</time>
      </trkpt>
      <trkpt lat="42.77857" lon="18.1004">
        <ele>309.264386</ele>
        <time>2022-06-10T11:09:41.716Z</time>
      </trkpt>
      <trkpt lat="42.77858" lon="18.10023">
        <ele>309.436619</ele>
        <time>2022-06-10T11:09:44.701Z</time>
      </trkpt>
      <trkpt lat="42.77859" lon="18.10005">
        <ele>309.614966</ele>
        <time>2022-06-10T11:09:47.713Z</time>
      </trkpt>
      <trkpt lat="42.7786" lon="18.09987">
        <ele>309.789626</ele>
        <time>2022-06-10T11:09:50.747Z</time>
      </trkpt>
      <trkpt lat="42.77862" lon="18.09969">
        <ele>309.969</ele>
        <time>2022-06-10T11:09:53.713Z</time>
      </trkpt>
      <trkpt lat="42.77864" lon="18.09952">
        <ele>310.145064</ele>
        <time>2022-06-10T11:09:56.712Z</time>
      </trkpt>
      <trkpt lat="42.77866" lon="18.09934">
        <ele>310.319739</ele>
        <time>2022-06-10T11:09:59.711Z</time>
      </trkpt>
      <trkpt lat="42.77868" lon="18.09917">
        <ele>310.497344</ele>
        <time>2022-06-10T11:10:02.714Z</time>
      </trkpt>
      <trkpt lat="42.77871" lon="18.09899">
        <ele>310.679256</ele>
        <time>2022-06-10T11:10:05.707Z</time>
      </trkpt>
      <trkpt lat="42.77874" lon="18.09886">
        <ele>310.803628</ele>
        <time>2022-06-10T11:10:07.705Z</time>
      </trkpt>
      <trkpt lat="42.77876" lon="18.09875">
        <ele>310.865339</ele>
        <time>2022-06-10T11:10:09.739Z</time>
      </trkpt>
      <trkpt lat="42.77879" lon="18.09857">
        <ele>310.630773</ele>
        <time>2022-06-10T11:10:12.712Z</time>
      </trkpt>
      <trkpt lat="42.77883" lon="18.09846">
        <ele>310.468719</ele>
        <time>2022-06-10T11:10:14.704Z</time>
      </trkpt>
      <trkpt lat="42.77887" lon="18.09828">
        <ele>310.223281</ele>
        <time>2022-06-10T11:10:17.713Z</time>
      </trkpt>
      <trkpt lat="42.77889" lon="18.09816">
        <ele>310.056659</ele>
        <time>2022-06-10T11:10:19.716Z</time>
      </trkpt>
      <trkpt lat="42.77892" lon="18.09798">
        <ele>309.81684</ele>
        <time>2022-06-10T11:10:22.712Z</time>
      </trkpt>
      <trkpt lat="42.77895" lon="18.0978">
        <ele>309.572011</ele>
        <time>2022-06-10T11:10:25.710Z</time>
      </trkpt>
      <trkpt lat="42.77898" lon="18.09763">
        <ele>309.334014</ele>
        <time>2022-06-10T11:10:28.704Z</time>
      </trkpt>
      <trkpt lat="42.77901" lon="18.09745">
        <ele>309.099877</ele>
        <time>2022-06-10T11:10:31.720Z</time>
      </trkpt>
      <trkpt lat="42.77903" lon="18.09729">
        <ele>308.87643</ele>
        <time>2022-06-10T11:10:34.705Z</time>
      </trkpt>
      <trkpt lat="42.77907" lon="18.09712">
        <ele>308.642313</ele>
        <time>2022-06-10T11:10:37.741Z</time>
      </trkpt>
      <trkpt lat="42.7791" lon="18.09695">
        <ele>308.411621</ele>
        <time>2022-06-10T11:10:40.741Z</time>
      </trkpt>
      <trkpt lat="42.77913" lon="18.09678">
        <ele>308.182471</ele>
        <time>2022-06-10T11:10:43.729Z</time>
      </trkpt>
      <trkpt lat="42.77916" lon="18.09661">
        <ele>307.945353</ele>
        <time>2022-06-10T11:10:46.716Z</time>
      </trkpt>
      <trkpt lat="42.77919" lon="18.09643">
        <ele>307.71081</ele>
        <time>2022-06-10T11:10:49.708Z</time>
      </trkpt>
      <trkpt lat="42.77921" lon="18.09625">
        <ele>307.419953</ele>
        <time>2022-06-10T11:10:52.712Z</time>
      </trkpt>
      <trkpt lat="42.77924" lon="18.09608">
        <ele>307.127543</ele>
        <time>2022-06-10T11:10:55.716Z</time>
      </trkpt>
      <trkpt lat="42.77926" lon="18.09591">
        <ele>306.844171</ele>
        <time>2022-06-10T11:10:58.721Z</time>
      </trkpt>
      <trkpt lat="42.77929" lon="18.09574">
        <ele>306.551327</ele>
        <time>2022-06-10T11:11:01.718Z</time>
      </trkpt>
      <trkpt lat="42.77931" lon="18.09556">
        <ele>306.247006</ele>
        <time>2022-06-10T11:11:04.708Z</time>
      </trkpt>
      <trkpt lat="42.77933" lon="18.09539">
        <ele>305.947553</ele>
        <time>2022-06-10T11:11:07.702Z</time>
      </trkpt>
      <trkpt lat="42.77937" lon="18.09522">
        <ele>305.656498</ele>
        <time>2022-06-10T11:11:10.727Z</time>
      </trkpt>
      <trkpt lat="42.77942" lon="18.09507">
        <ele>305.376953</ele>
        <time>2022-06-10T11:11:13.706Z</time>
      </trkpt>
      <trkpt lat="42.77949" lon="18.09493">
        <ele>305.095017</ele>
        <time>2022-06-10T11:11:16.712Z</time>
      </trkpt>
      <trkpt lat="42.77957" lon="18.09478">
        <ele>304.792011</ele>
        <time>2022-06-10T11:11:19.717Z</time>
      </trkpt>
      <trkpt lat="42.77965" lon="18.09465">
        <ele>304.498734</ele>
        <time>2022-06-10T11:11:22.714Z</time>
      </trkpt>
      <trkpt lat="42.77972" lon="18.09457">
        <ele>304.28942</ele>
        <time>2022-06-10T11:11:24.710Z</time>
      </trkpt>
      <trkpt lat="42.77979" lon="18.09449">
        <ele>304.081519</ele>
        <time>2022-06-10T11:11:26.716Z</time>
      </trkpt>
      <trkpt lat="42.77989" lon="18.09438">
        <ele>303.785194</ele>
        <time>2022-06-10T11:11:29.748Z</time>
      </trkpt>
      <trkpt lat="42.77999" lon="18.09429">
        <ele>303.528997</ele>
        <time>2022-06-10T11:11:32.734Z</time>
      </trkpt>
      <trkpt lat="42.78009" lon="18.09421">
        <ele>303.339467</ele>
        <time>2022-06-10T11:11:35.713Z</time>
      </trkpt>
      <trkpt lat="42.7802" lon="18.09416">
        <ele>303.158254</ele>
        <time>2022-06-10T11:11:38.727Z</time>
      </trkpt>
      <trkpt lat="42.78032" lon="18.09412">
        <ele>302.946198</ele>
        <time>2022-06-10T11:11:41.711Z</time>
      </trkpt>
      <trkpt lat="42.78041" lon="18.09409">
        <ele>302.795838</ele>
        <time>2022-06-10T11:11:43.756Z</time>
      </trkpt>
      <trkpt lat="42.7805" lon="18.09408">
        <ele>302.641804</ele>
        <time>2022-06-10T11:11:45.720Z</time>
      </trkpt>
      <trkpt lat="42.78063" lon="18.09406">
        <ele>302.420527</ele>
        <time>2022-06-10T11:11:48.712Z</time>
      </trkpt>
      <trkpt lat="42.78076" lon="18.09404">
        <ele>302.202063</ele>
        <time>2022-06-10T11:11:51.733Z</time>
      </trkpt>
      <trkpt lat="42.78089" lon="18.09402">
        <ele>301.997171</ele>
        <time>2022-06-10T11:11:54.750Z</time>
      </trkpt>
      <trkpt lat="42.781" lon="18.09401">
        <ele>301.805823</ele>
        <time>2022-06-10T11:11:57.724Z</time>
      </trkpt>
      <trkpt lat="42.78112" lon="18.09399">
        <ele>301.606799</ele>
        <time>2022-06-10T11:12:00.714Z</time>
      </trkpt>
      <trkpt lat="42.78124" lon="18.09395">
        <ele>301.410155</ele>
        <time>2022-06-10T11:12:03.692Z</time>
      </trkpt>
      <trkpt lat="42.78135" lon="18.09391">
        <ele>301.223073</ele>
        <time>2022-06-10T11:12:06.740Z</time>
      </trkpt>
      <trkpt lat="42.78146" lon="18.09389">
        <ele>301.033538</ele>
        <time>2022-06-10T11:12:09.715Z</time>
      </trkpt>
      <trkpt lat="42.78157" lon="18.09386">
        <ele>300.846604</ele>
        <time>2022-06-10T11:12:12.711Z</time>
      </trkpt>
      <trkpt lat="42.78169" lon="18.09382">
        <ele>300.647208</ele>
        <time>2022-06-10T11:12:15.699Z</time>
      </trkpt>
      <trkpt lat="42.78181" lon="18.09378">
        <ele>300.461337</ele>
        <time>2022-06-10T11:12:18.715Z</time>
      </trkpt>
      <trkpt lat="42.7819" lon="18.09375">
        <ele>300.338471</ele>
        <time>2022-06-10T11:12:20.732Z</time>
      </trkpt>
      <trkpt lat="42.78199" lon="18.09372">
        <ele>300.217139</ele>
        <time>2022-06-10T11:12:22.708Z</time>
      </trkpt>
      <trkpt lat="42.78212" lon="18.09368">
        <ele>300.040444</ele>
        <time>2022-06-10T11:12:25.710Z</time>
      </trkpt>
      <trkpt lat="42.78224" lon="18.09362">
        <ele>299.870766</ele>
        <time>2022-06-10T11:12:28.724Z</time>
      </trkpt>
      <trkpt lat="42.78236" lon="18.09357">
        <ele>299.703565</ele>
        <time>2022-06-10T11:12:31.730Z</time>
      </trkpt>
      <trkpt lat="42.78247" lon="18.09354">
        <ele>299.543379</ele>
        <time>2022-06-10T11:12:34.712Z</time>
      </trkpt>
      <trkpt lat="42.7826" lon="18.09349">
        <ele>299.374428</ele>
        <time>2022-06-10T11:12:37.715Z</time>
      </trkpt>
      <trkpt lat="42.78272" lon="18.09345">
        <ele>299.19824</ele>
        <time>2022-06-10T11:12:40.715Z</time>
      </trkpt>
      <trkpt lat="42.78285" lon="18.09341">
        <ele>299.022772</ele>
        <time>2022-06-10T11:12:43.728Z</time>
      </trkpt>
      <trkpt lat="42.78297" lon="18.09337">
        <ele>298.851905</ele>
        <time>2022-06-10T11:12:46.715Z</time>
      </trkpt>
      <trkpt lat="42.78309" lon="18.09332">
        <ele>298.684532</ele>
        <time>2022-06-10T11:12:49.713Z</time>
      </trkpt>
      <trkpt lat="42.78321" lon="18.09326">
        <ele>298.521466</ele>
        <time>2022-06-10T11:12:52.711Z</time>
      </trkpt>
      <trkpt lat="42.78331" lon="18.09317">
        <ele>298.35848</ele>
        <time>2022-06-10T11:12:55.720Z</time>
      </trkpt>
      <trkpt lat="42.78342" lon="18.09308">
        <ele>298.189737</ele>
        <time>2022-06-10T11:12:58.700Z</time>
      </trkpt>
      <trkpt lat="42.78352" lon="18.09297">
        <ele>298.415848</ele>
        <time>2022-06-10T11:13:01.732Z</time>
      </trkpt>
      <trkpt lat="42.78361" lon="18.09284">
        <ele>298.678193</ele>
        <time>2022-06-10T11:13:04.737Z</time>
      </trkpt>
      <trkpt lat="42.78369" lon="18.09271">
        <ele>298.930005</ele>
        <time>2022-06-10T11:13:07.704Z</time>
      </trkpt>
      <trkpt lat="42.78376" lon="18.09257">
        <ele>299.175359</ele>
        <time>2022-06-10T11:13:10.716Z</time>
      </trkpt>
      <trkpt lat="42.78383" lon="18.09243">
        <ele>299.427142</ele>
        <time>2022-06-10T11:13:13.737Z</time>
      </trkpt>
      <trkpt lat="42.7839" lon="18.09228">
        <ele>299.675403</ele>
        <time>2022-06-10T11:13:16.738Z</time>
      </trkpt>
      <trkpt lat="42.78396" lon="18.09214">
        <ele>299.916812</ele>
        <time>2022-06-10T11:13:19.704Z</time>
      </trkpt>
      <trkpt lat="42.78402" lon="18.09198">
        <ele>300.17397</ele>
        <time>2022-06-10T11:13:22.716Z</time>
      </trkpt>
      <trkpt lat="42.78409" lon="18.09183">
        <ele>300.430395</ele>
        <time>2022-06-10T11:13:25.717Z</time>
      </trkpt>
      <trkpt lat="42.78415" lon="18.09168">
        <ele>300.685876</ele>
        <time>2022-06-10T11:13:28.703Z</time>
      </trkpt>
      <trkpt lat="42.78423" lon="18.09154">
        <ele>300.938383</ele>
        <time>2022-06-10T11:13:31.716Z</time>
      </trkpt>
      <trkpt lat="42.78432" lon="18.09141">
        <ele>301.204212</ele>
        <time>2022-06-10T11:13:34.707Z</time>
      </trkpt>
      <trkpt lat="42.78441" lon="18.09129">
        <ele>301.458326</ele>
        <time>2022-06-10T11:13:37.720Z</time>
      </trkpt>
      <trkpt lat="42.78451" lon="18.09118">
        <ele>301.70839</ele>
        <time>2022-06-10T11:13:40.715Z</time>
      </trkpt>
      <trkpt lat="42.78461" lon="18.09108">
        <ele>301.576354</ele>
        <time>2022-06-10T11:13:43.706Z</time>
      </trkpt>
      <trkpt lat="42.78473" lon="18.09099">
        <ele>301.370614</ele>
        <time>2022-06-10T11:13:46.725Z</time>
      </trkpt>
      <trkpt lat="42.78481" lon="18.09093">
        <ele>301.229715</ele>
        <time>2022-06-10T11:13:48.725Z</time>
      </trkpt>
      <trkpt lat="42.78493" lon="18.09087">
        <ele>301.028077</ele>
        <time>2022-06-10T11:13:51.734Z</time>
      </trkpt>
      <trkpt lat="42.78505" lon="18.0908">
        <ele>300.833863</ele>
        <time>2022-06-10T11:13:54.714Z</time>
      </trkpt>
      <trkpt lat="42.78517" lon="18.09075">
        <ele>300.627699</ele>
        <time>2022-06-10T11:13:57.721Z</time>
      </trkpt>
      <trkpt lat="42.7853" lon="18.09071">
        <ele>300.42604</ele>
        <time>2022-06-10T11:14:00.695Z</time>
      </trkpt>
      <trkpt lat="42.78543" lon="18.09068">
        <ele>300.222056</ele>
        <time>2022-06-10T11:14:03.718Z</time>
      </trkpt>
      <trkpt lat="42.78556" lon="18.09067">
        <ele>300.02665</ele>
        <time>2022-06-10T11:14:06.741Z</time>
      </trkpt>
      <trkpt lat="42.78568" lon="18.09067">
        <ele>299.836306</ele>
        <time>2022-06-10T11:14:09.712Z</time>
      </trkpt>
      <trkpt lat="42.7858" lon="18.09069">
        <ele>299.642849</ele>
        <time>2022-06-10T11:14:12.708Z</time>
      </trkpt>
      <trkpt lat="42.78593" lon="18.09072">
        <ele>299.44344</ele>
        <time>2022-06-10T11:14:15.691Z</time>
      </trkpt>
      <trkpt lat="42.78606" lon="18.09076">
        <ele>299.246241</ele>
        <time>2022-06-10T11:14:18.711Z</time>
      </trkpt>
      <trkpt lat="42.78618" lon="18.09079">
        <ele>299.04926</ele>
        <time>2022-06-10T11:14:21.708Z</time>
      </trkpt>
      <trkpt lat="42.7863" lon="18.09083">
        <ele>298.954222</ele>
        <time>2022-06-10T11:14:24.758Z</time>
      </trkpt>
      <trkpt lat="42.78643" lon="18.09087">
        <ele>298.936866</ele>
        <time>2022-06-10T11:14:27.723Z</time>
      </trkpt>
      <trkpt lat="42.78656" lon="18.0909">
        <ele>298.920404</ele>
        <time>2022-06-10T11:14:30.694Z</time>
      </trkpt>
      <trkpt lat="42.78668" lon="18.09093">
        <ele>298.904023</ele>
        <time>2022-06-10T11:14:33.704Z</time>
      </trkpt>
      <trkpt lat="42.78681" lon="18.09093">
        <ele>298.887486</ele>
        <time>2022-06-10T11:14:36.727Z</time>
      </trkpt>
      <trkpt lat="42.78694" lon="18.09094">
        <ele>298.870183</ele>
        <time>2022-06-10T11:14:39.721Z</time>
      </trkpt>
      <trkpt lat="42.78708" lon="18.09093">
        <ele>298.852732</ele>
        <time>2022-06-10T11:14:42.723Z</time>
      </trkpt>
      <trkpt lat="42.7872" lon="18.09092">
        <ele>298.836167</ele>
        <time>2022-06-10T11:14:45.716Z</time>
      </trkpt>
      <trkpt lat="42.78733" lon="18.0909">
        <ele>298.82012</ele>
        <time>2022-06-10T11:14:48.705Z</time>
      </trkpt>
      <trkpt lat="42.78745" lon="18.0909">
        <ele>298.804363</ele>
        <time>2022-06-10T11:14:51.714Z</time>
      </trkpt>
      <trkpt lat="42.78757" lon="18.09089">
        <ele>298.788991</ele>
        <time>2022-06-10T11:14:54.728Z</time>
      </trkpt>
      <trkpt lat="42.78768" lon="18.09086">
        <ele>298.773329</ele>
        <time>2022-06-10T11:14:57.711Z</time>
      </trkpt>
      <trkpt lat="42.7878" lon="18.09083">
        <ele>298.757495</ele>
        <time>2022-06-10T11:15:00.709Z</time>
      </trkpt>
      <trkpt lat="42.78792" lon="18.09078">
        <ele>298.741975</ele>
        <time>2022-06-10T11:15:03.708Z</time>
      </trkpt>
      <trkpt lat="42.78803" lon="18.09071">
        <ele>298.806107</ele>
        <time>2022-06-10T11:15:06.715Z</time>
      </trkpt>
      <trkpt lat="42.78813" lon="18.09062">
        <ele>299.166306</ele>
        <time>2022-06-10T11:15:09.741Z</time>
      </trkpt>
      <trkpt lat="42.78823" lon="18.09051">
        <ele>299.534834</ele>
        <time>2022-06-10T11:15:12.733Z</time>
      </trkpt>
      <trkpt lat="42.78832" lon="18.0904">
        <ele>299.891562</ele>
        <time>2022-06-10T11:15:15.693Z</time>
      </trkpt>
      <trkpt lat="42.7884" lon="18.09027">
        <ele>300.268426</ele>
        <time>2022-06-10T11:15:18.717Z</time>
      </trkpt>
      <trkpt lat="42.78847" lon="18.09014">
        <ele>300.624218</ele>
        <time>2022-06-10T11:15:21.732Z</time>
      </trkpt>
      <trkpt lat="42.78852" lon="18.09">
        <ele>300.960868</ele>
        <time>2022-06-10T11:15:24.724Z</time>
      </trkpt>
      <trkpt lat="42.78856" lon="18.08986">
        <ele>301.288549</ele>
        <time>2022-06-10T11:15:27.717Z</time>
      </trkpt>
      <trkpt lat="42.78859" lon="18.08972">
        <ele>301.615808</ele>
        <time>2022-06-10T11:15:30.710Z</time>
      </trkpt>
      <trkpt lat="42.78863" lon="18.08957">
        <ele>301.966895</ele>
        <time>2022-06-10T11:15:33.701Z</time>
      </trkpt>
      <trkpt lat="42.78864" lon="18.0894">
        <ele>302.326703</ele>
        <time>2022-06-10T11:15:36.704Z</time>
      </trkpt>
      <trkpt lat="42.78863" lon="18.08925">
        <ele>302.669919</ele>
        <time>2022-06-10T11:15:39.724Z</time>
      </trkpt>
      <trkpt lat="42.78861" lon="18.08908">
        <ele>303.037663</ele>
        <time>2022-06-10T11:15:42.717Z</time>
      </trkpt>
      <trkpt lat="42.78859" lon="18.0889">
        <ele>303.435105</ele>
        <time>2022-06-10T11:15:45.706Z</time>
      </trkpt>
      <trkpt lat="42.78856" lon="18.08872">
        <ele>303.835295</ele>
        <time>2022-06-10T11:15:48.728Z</time>
      </trkpt>
      <trkpt lat="42.78853" lon="18.08855">
        <ele>304.175018</ele>
        <time>2022-06-10T11:15:51.731Z</time>
      </trkpt>
      <trkpt lat="42.78849" lon="18.08838">
        <ele>304.429881</ele>
        <time>2022-06-10T11:15:54.742Z</time>
      </trkpt>
      <trkpt lat="42.78847" lon="18.08822">
        <ele>304.663176</ele>
        <time>2022-06-10T11:15:57.730Z</time>
      </trkpt>
      <trkpt lat="42.78845" lon="18.08806">
        <ele>304.892098</ele>
        <time>2022-06-10T11:16:00.706Z</time>
      </trkpt>
      <trkpt lat="42.78846" lon="18.0879">
        <ele>305.126798</ele>
        <time>2022-06-10T11:16:03.708Z</time>
      </trkpt>
      <trkpt lat="42.78847" lon="18.08773">
        <ele>305.361247</ele>
        <time>2022-06-10T11:16:06.716Z</time>
      </trkpt>
      <trkpt lat="42.7885" lon="18.08758">
        <ele>305.592525</ele>
        <time>2022-06-10T11:16:09.709Z</time>
      </trkpt>
      <trkpt lat="42.78853" lon="18.08742">
        <ele>305.818533</ele>
        <time>2022-06-10T11:16:12.724Z</time>
      </trkpt>
      <trkpt lat="42.78858" lon="18.08727">
        <ele>306.061685</ele>
        <time>2022-06-10T11:16:15.721Z</time>
      </trkpt>
      <trkpt lat="42.78862" lon="18.08711">
        <ele>306.30157</ele>
        <time>2022-06-10T11:16:18.735Z</time>
      </trkpt>
      <trkpt lat="42.78866" lon="18.08695">
        <ele>306.534667</ele>
        <time>2022-06-10T11:16:21.708Z</time>
      </trkpt>
      <trkpt lat="42.7887" lon="18.08681">
        <ele>306.759003</ele>
        <time>2022-06-10T11:16:24.719Z</time>
      </trkpt>
      <trkpt lat="42.78875" lon="18.08666">
        <ele>306.985821</ele>
        <time>2022-06-10T11:16:27.700Z</time>
      </trkpt>
      <trkpt lat="42.78881" lon="18.08652">
        <ele>307.228427</ele>
        <time>2022-06-10T11:16:30.718Z</time>
      </trkpt>
      <trkpt lat="42.78888" lon="18.08638">
        <ele>307.469528</ele>
        <time>2022-06-10T11:16:33.746Z</time>
      </trkpt>
      <trkpt lat="42.78896" lon="18.08625">
        <ele>307.369877</ele>
        <time>2022-06-10T11:16:36.698Z</time>
      </trkpt>
      <trkpt lat="42.78905" lon="18.08614">
        <ele>306.972718</ele>
        <time>2022-06-10T11:16:39.735Z</time>
      </trkpt>
      <trkpt lat="42.78914" lon="18.08605">
        <ele>306.570849</ele>
        <time>2022-06-10T11:16:42.710Z</time>
      </trkpt>
      <trkpt lat="42.78924" lon="18.08595">
        <ele>306.156538</ele>
        <time>2022-06-10T11:16:45.699Z</time>
      </trkpt>
      <trkpt lat="42.78934" lon="18.08586">
        <ele>305.74915</ele>
        <time>2022-06-10T11:16:48.707Z</time>
      </trkpt>
      <trkpt lat="42.78943" lon="18.08576">
        <ele>305.345797</ele>
        <time>2022-06-10T11:16:51.718Z</time>
      </trkpt>
      <trkpt lat="42.78953" lon="18.08567">
        <ele>304.950614</ele>
        <time>2022-06-10T11:16:54.718Z</time>
      </trkpt>
      <trkpt lat="42.78962" lon="18.08556">
        <ele>304.544182</ele>
        <time>2022-06-10T11:16:57.714Z</time>
      </trkpt>
      <trkpt lat="42.7897" lon="18.08546">
        <ele>304.159741</ele>
        <time>2022-06-10T11:17:00.744Z</time>
      </trkpt>
      <trkpt lat="42.78979" lon="18.08537">
        <ele>303.772633</ele>
        <time>2022-06-10T11:17:03.708Z</time>
      </trkpt>
      <trkpt lat="42.78989" lon="18.08527">
        <ele>303.372241</ele>
        <time>2022-06-10T11:17:06.713Z</time>
      </trkpt>
      <trkpt lat="42.78998" lon="18.08517">
        <ele>302.977781</ele>
        <time>2022-06-10T11:17:09.721Z</time>
      </trkpt>
      <trkpt lat="42.79007" lon="18.08508">
        <ele>302.581393</ele>
        <time>2022-06-10T11:17:12.732Z</time>
      </trkpt>
      <trkpt lat="42.79017" lon="18.08499">
        <ele>302.155783</ele>
        <time>2022-06-10T11:17:15.713Z</time>
      </trkpt>
      <trkpt lat="42.79027" lon="18.0849">
        <ele>301.7513</ele>
        <time>2022-06-10T11:17:18.697Z</time>
      </trkpt>
      <trkpt lat="42.79037" lon="18.08483">
        <ele>301.475971</ele>
        <time>2022-06-10T11:17:21.706Z</time>
      </trkpt>
      <trkpt lat="42.79047" lon="18.08478">
        <ele>301.571737</ele>
        <time>2022-06-10T11:17:24.728Z</time>
      </trkpt>
      <trkpt lat="42.79056" lon="18.08474">
        <ele>301.661273</ele>
        <time>2022-06-10T11:17:27.728Z</time>
      </trkpt>
      <trkpt lat="42.79065" lon="18.08471">
        <ele>301.748636</ele>
        <time>2022-06-10T11:17:30.712Z</time>
      </trkpt>
      <trkpt lat="42.79074" lon="18.08467">
        <ele>301.834987</ele>
        <time>2022-06-10T11:17:33.770Z</time>
      </trkpt>
      <trkpt lat="42.79084" lon="18.08465">
        <ele>301.927398</ele>
        <time>2022-06-10T11:17:36.714Z</time>
      </trkpt>
      <trkpt lat="42.79094" lon="18.08465">
        <ele>302.02659</ele>
        <time>2022-06-10T11:17:39.703Z</time>
      </trkpt>
      <trkpt lat="42.79105" lon="18.08465">
        <ele>302.124029</ele>
        <time>2022-06-10T11:17:42.719Z</time>
      </trkpt>
      <trkpt lat="42.79115" lon="18.08465">
        <ele>302.223205</ele>
        <time>2022-06-10T11:17:45.712Z</time>
      </trkpt>
      <trkpt lat="42.79126" lon="18.08465">
        <ele>302.319562</ele>
        <time>2022-06-10T11:17:48.720Z</time>
      </trkpt>
      <trkpt lat="42.79136" lon="18.08467">
        <ele>302.413597</ele>
        <time>2022-06-10T11:17:51.718Z</time>
      </trkpt>
      <trkpt lat="42.79146" lon="18.08468">
        <ele>302.508494</ele>
        <time>2022-06-10T11:17:54.712Z</time>
      </trkpt>
      <trkpt lat="42.79155" lon="18.0847">
        <ele>302.600821</ele>
        <time>2022-06-10T11:17:57.727Z</time>
      </trkpt>
      <trkpt lat="42.79165" lon="18.08472">
        <ele>302.694347</ele>
        <time>2022-06-10T11:18:00.692Z</time>
      </trkpt>
      <trkpt lat="42.79175" lon="18.08475">
        <ele>302.786821</ele>
        <time>2022-06-10T11:18:03.713Z</time>
      </trkpt>
      <trkpt lat="42.79184" lon="18.08477">
        <ele>302.875492</ele>
        <time>2022-06-10T11:18:06.708Z</time>
      </trkpt>
      <trkpt lat="42.79194" lon="18.08479">
        <ele>302.969846</ele>
        <time>2022-06-10T11:18:09.722Z</time>
      </trkpt>
      <trkpt lat="42.79204" lon="18.08481">
        <ele>303.063273</ele>
        <time>2022-06-10T11:18:12.720Z</time>
      </trkpt>
      <trkpt lat="42.79215" lon="18.08483">
        <ele>303.205244</ele>
        <time>2022-06-10T11:18:15.711Z</time>
      </trkpt>
      <trkpt lat="42.79225" lon="18.08485">
        <ele>303.471879</ele>
        <time>2022-06-10T11:18:18.693Z</time>
      </trkpt>
      <trkpt lat="42.79235" lon="18.08487">
        <ele>303.725308</ele>
        <time>2022-06-10T11:18:21.690Z</time>
      </trkpt>
      <trkpt lat="42.79245" lon="18.08488">
        <ele>303.975379</ele>
        <time>2022-06-10T11:18:24.700Z</time>
      </trkpt>
      <trkpt lat="42.79255" lon="18.08489">
        <ele>304.229305</ele>
        <time>2022-06-10T11:18:27.744Z</time>
      </trkpt>
      <trkpt lat="42.79265" lon="18.08487">
        <ele>304.474579</ele>
        <time>2022-06-10T11:18:30.717Z</time>
      </trkpt>
      <trkpt lat="42.79274" lon="18.08485">
        <ele>304.722273</ele>
        <time>2022-06-10T11:18:33.727Z</time>
      </trkpt>
      <trkpt lat="42.79283" lon="18.08481">
        <ele>304.957935</ele>
        <time>2022-06-10T11:18:36.708Z</time>
      </trkpt>
      <trkpt lat="42.79292" lon="18.08477">
        <ele>305.191598</ele>
        <time>2022-06-10T11:18:39.694Z</time>
      </trkpt>
      <trkpt lat="42.79301" lon="18.08472">
        <ele>305.435614</ele>
        <time>2022-06-10T11:18:42.728Z</time>
      </trkpt>
      <trkpt lat="42.7931" lon="18.08466">
        <ele>305.694867</ele>
        <time>2022-06-10T11:18:45.726Z</time>
      </trkpt>
      <trkpt lat="42.79319" lon="18.08459">
        <ele>305.944617</ele>
        <time>2022-06-10T11:18:48.719Z</time>
      </trkpt>
      <trkpt lat="42.79328" lon="18.08452">
        <ele>306.202286</ele>
        <time>2022-06-10T11:18:51.703Z</time>
      </trkpt>
      <trkpt lat="42.79336" lon="18.08445">
        <ele>306.447526</ele>
        <time>2022-06-10T11:18:54.757Z</time>
      </trkpt>
      <trkpt lat="42.79344" lon="18.08436">
        <ele>306.707497</ele>
        <time>2022-06-10T11:18:57.725Z</time>
      </trkpt>
      <trkpt lat="42.79352" lon="18.08427">
        <ele>306.956068</ele>
        <time>2022-06-10T11:19:00.707Z</time>
      </trkpt>
      <trkpt lat="42.7936" lon="18.08417">
        <ele>307.228953</ele>
        <time>2022-06-10T11:19:03.714Z</time>
      </trkpt>
      <trkpt lat="42.79367" lon="18.08406">
        <ele>307.496967</ele>
        <time>2022-06-10T11:19:06.747Z</time>
      </trkpt>
      <trkpt lat="42.79375" lon="18.08397">
        <ele>307.687386</ele>
        <time>2022-06-10T11:19:09.715Z</time>
      </trkpt>
      <trkpt lat="42.79383" lon="18.08388">
        <ele>307.768894</ele>
        <time>2022-06-10T11:19:12.758Z</time>
      </trkpt>
      <trkpt lat="42.79392" lon="18.08381">
        <ele>307.852278</ele>
        <time>2022-06-10T11:19:15.712Z</time>
      </trkpt>
      <trkpt lat="42.79401" lon="18.08374">
        <ele>307.935685</ele>
        <time>2022-06-10T11:19:18.704Z</time>
      </trkpt>
      <trkpt lat="42.7941" lon="18.08367">
        <ele>308.014855</ele>
        <time>2022-06-10T11:19:21.751Z</time>
      </trkpt>
      <trkpt lat="42.7942" lon="18.08362">
        <ele>308.096388</ele>
        <time>2022-06-10T11:19:24.709Z</time>
      </trkpt>
      <trkpt lat="42.79429" lon="18.08357">
        <ele>308.178431</ele>
        <time>2022-06-10T11:19:27.749Z</time>
      </trkpt>
      <trkpt lat="42.79438" lon="18.08351">
        <ele>308.254452</ele>
        <time>2022-06-10T11:19:30.704Z</time>
      </trkpt>
      <trkpt lat="42.79449" lon="18.08345">
        <ele>308.34526</ele>
        <time>2022-06-10T11:19:34.712Z</time>
      </trkpt>
      <trkpt lat="42.7946" lon="18.08338">
        <ele>308.437766</ele>
        <time>2022-06-10T11:19:38.757Z</time>
      </trkpt>
      <trkpt lat="42.79469" lon="18.08335">
        <ele>308.511734</ele>
        <time>2022-06-10T11:19:41.706Z</time>
      </trkpt>
      <trkpt lat="42.79479" lon="18.0833">
        <ele>308.595155</ele>
        <time>2022-06-10T11:19:44.735Z</time>
      </trkpt>
      <trkpt lat="42.79488" lon="18.08323">
        <ele>308.680528</ele>
        <time>2022-06-10T11:19:47.703Z</time>
      </trkpt>
      <trkpt lat="42.79498" lon="18.08317">
        <ele>308.765134</ele>
        <time>2022-06-10T11:19:50.714Z</time>
      </trkpt>
      <trkpt lat="42.79509" lon="18.08312">
        <ele>308.857658</ele>
        <time>2022-06-10T11:19:53.720Z</time>
      </trkpt>
      <trkpt lat="42.79521" lon="18.08308">
        <ele>308.949932</ele>
        <time>2022-06-10T11:19:56.703Z</time>
      </trkpt>
      <trkpt lat="42.79531" lon="18.08303">
        <ele>309.037836</ele>
        <time>2022-06-10T11:19:59.735Z</time>
      </trkpt>
      <trkpt lat="42.79541" lon="18.08297">
        <ele>309.282087</ele>
        <time>2022-06-10T11:20:02.705Z</time>
      </trkpt>
      <trkpt lat="42.7955" lon="18.08289">
        <ele>309.610819</ele>
        <time>2022-06-10T11:20:05.703Z</time>
      </trkpt>
      <trkpt lat="42.79558" lon="18.08281">
        <ele>309.941071</ele>
        <time>2022-06-10T11:20:08.716Z</time>
      </trkpt>
      <trkpt lat="42.79566" lon="18.08271">
        <ele>310.264378</ele>
        <time>2022-06-10T11:20:11.733Z</time>
      </trkpt>
      <trkpt lat="42.79572" lon="18.08261">
        <ele>310.574854</ele>
        <time>2022-06-10T11:20:14.716Z</time>
      </trkpt>
      <trkpt lat="42.79579" lon="18.08249">
        <ele>310.914899</ele>
        <time>2022-06-10T11:20:17.707Z</time>
      </trkpt>
      <trkpt lat="42.79585" lon="18.08237">
        <ele>311.260442</ele>
        <time>2022-06-10T11:20:20.707Z</time>
      </trkpt>
      <trkpt lat="42.7959" lon="18.08223">
        <ele>311.608702</ele>
        <time>2022-06-10T11:20:23.746Z</time>
      </trkpt>
      <trkpt lat="42.79595" lon="18.08208">
        <ele>311.985831</ele>
        <time>2022-06-10T11:20:26.721Z</time>
      </trkpt>
      <trkpt lat="42.79598" lon="18.08192">
        <ele>312.350498</ele>
        <time>2022-06-10T11:20:29.700Z</time>
      </trkpt>
      <trkpt lat="42.79599" lon="18.08177">
        <ele>312.707614</ele>
        <time>2022-06-10T11:20:32.704Z</time>
      </trkpt>
      <trkpt lat="42.79599" lon="18.08163">
        <ele>313.035085</ele>
        <time>2022-06-10T11:20:35.739Z</time>
      </trkpt>
      <trkpt lat="42.79597" lon="18.08148">
        <ele>313.374401</ele>
        <time>2022-06-10T11:20:38.748Z</time>
      </trkpt>
      <trkpt lat="42.79597" lon="18.08134">
        <ele>313.70416</ele>
        <time>2022-06-10T11:20:41.756Z</time>
      </trkpt>
      <trkpt lat="42.79597" lon="18.08118">
        <ele>314.052448</ele>
        <time>2022-06-10T11:20:44.709Z</time>
      </trkpt>
      <trkpt lat="42.79595" lon="18.08104">
        <ele>314.39365</ele>
        <time>2022-06-10T11:20:47.736Z</time>
      </trkpt>
      <trkpt lat="42.79594" lon="18.08089">
        <ele>314.649473</ele>
        <time>2022-06-10T11:20:50.731Z</time>
      </trkpt>
      <trkpt lat="42.79593" lon="18.08076">
        <ele>314.446225</ele>
        <time>2022-06-10T11:20:53.743Z</time>
      </trkpt>
      <trkpt lat="42.79593" lon="18.08061">
        <ele>314.229692</ele>
        <time>2022-06-10T11:20:56.730Z</time>
      </trkpt>
      <trkpt lat="42.79593" lon="18.08047">
        <ele>314.008757</ele>
        <time>2022-06-10T11:20:59.714Z</time>
      </trkpt>
      <trkpt lat="42.79593" lon="18.08033">
        <ele>313.803999</ele>
        <time>2022-06-10T11:21:02.708Z</time>
      </trkpt>
      <trkpt lat="42.79596" lon="18.08018">
        <ele>313.58357</ele>
        <time>2022-06-10T11:21:05.693Z</time>
      </trkpt>
      <trkpt lat="42.79599" lon="18.08003">
        <ele>313.344649</ele>
        <time>2022-06-10T11:21:08.672Z</time>
      </trkpt>
      <trkpt lat="42.79604" lon="18.07988">
        <ele>313.105833</ele>
        <time>2022-06-10T11:21:11.683Z</time>
      </trkpt>
      <trkpt lat="42.7961" lon="18.07974">
        <ele>312.859939</ele>
        <time>2022-06-10T11:21:14.673Z</time>
      </trkpt>
      <trkpt lat="42.79616" lon="18.07962">
        <ele>312.637092</ele>
        <time>2022-06-10T11:21:17.674Z</time>
      </trkpt>
      <trkpt lat="42.79624" lon="18.07949">
        <ele>312.381193</ele>
        <time>2022-06-10T11:21:20.708Z</time>
      </trkpt>
      <trkpt lat="42.79633" lon="18.07937">
        <ele>312.132247</ele>
        <time>2022-06-10T11:21:23.728Z</time>
      </trkpt>
      <trkpt lat="42.79642" lon="18.07928">
        <ele>311.896528</ele>
        <time>2022-06-10T11:21:26.742Z</time>
      </trkpt>
      <trkpt lat="42.79651" lon="18.0792">
        <ele>311.670283</ele>
        <time>2022-06-10T11:21:29.750Z</time>
      </trkpt>
      <trkpt lat="42.79661" lon="18.0791">
        <ele>311.435623</ele>
        <time>2022-06-10T11:21:32.799Z</time>
      </trkpt>
      <trkpt lat="42.7967" lon="18.07901">
        <ele>311.197671</ele>
        <time>2022-06-10T11:21:35.713Z</time>
      </trkpt>
      <trkpt lat="42.79679" lon="18.07892">
        <ele>310.95526</ele>
        <time>2022-06-10T11:21:38.707Z</time>
      </trkpt>
      <trkpt lat="42.79687" lon="18.07882">
        <ele>310.669304</ele>
        <time>2022-06-10T11:21:41.716Z</time>
      </trkpt>
      <trkpt lat="42.79694" lon="18.0787">
        <ele>310.378112</ele>
        <time>2022-06-10T11:21:44.705Z</time>
      </trkpt>
      <trkpt lat="42.797" lon="18.07858">
        <ele>310.084095</ele>
        <time>2022-06-10T11:21:47.724Z</time>
      </trkpt>
      <trkpt lat="42.79706" lon="18.07846">
        <ele>309.809512</ele>
        <time>2022-06-10T11:21:50.720Z</time>
      </trkpt>
      <trkpt lat="42.79712" lon="18.07833">
        <ele>309.519715</ele>
        <time>2022-06-10T11:21:53.723Z</time>
      </trkpt>
      <trkpt lat="42.79718" lon="18.0782">
        <ele>309.21536</ele>
        <time>2022-06-10T11:21:56.710Z</time>
      </trkpt>
      <trkpt lat="42.79723" lon="18.07806">
        <ele>308.910709</ele>
        <time>2022-06-10T11:21:59.724Z</time>
      </trkpt>
      <trkpt lat="42.7973" lon="18.07793">
        <ele>308.600717</ele>
        <time>2022-06-10T11:22:02.706Z</time>
      </trkpt>
      <trkpt lat="42.79738" lon="18.07781">
        <ele>308.29423</ele>
        <time>2022-06-10T11:22:05.713Z</time>
      </trkpt>
      <trkpt lat="42.79746" lon="18.0777">
        <ele>307.99174</ele>
        <time>2022-06-10T11:22:08.714Z</time>
      </trkpt>
      <trkpt lat="42.79755" lon="18.07761">
        <ele>307.693304</ele>
        <time>2022-06-10T11:22:11.707Z</time>
      </trkpt>
      <trkpt lat="42.79764" lon="18.07753">
        <ele>307.413711</ele>
        <time>2022-06-10T11:22:14.704Z</time>
      </trkpt>
      <trkpt lat="42.79774" lon="18.07747">
        <ele>307.118491</ele>
        <time>2022-06-10T11:22:17.709Z</time>
      </trkpt>
      <trkpt lat="42.79785" lon="18.07742">
        <ele>306.818098</ele>
        <time>2022-06-10T11:22:20.709Z</time>
      </trkpt>
      <trkpt lat="42.79796" lon="18.07735">
        <ele>306.508557</ele>
        <time>2022-06-10T11:22:23.737Z</time>
      </trkpt>
      <trkpt lat="42.79806" lon="18.07729">
        <ele>306.166347</ele>
        <time>2022-06-10T11:22:26.753Z</time>
      </trkpt>
      <trkpt lat="42.79818" lon="18.07723">
        <ele>305.675394</ele>
        <time>2022-06-10T11:22:29.738Z</time>
      </trkpt>
      <trkpt lat="42.79828" lon="18.07718">
        <ele>305.211213</ele>
        <time>2022-06-10T11:22:32.710Z</time>
      </trkpt>
      <trkpt lat="42.7984" lon="18.07711">
        <ele>304.72226</ele>
        <time>2022-06-10T11:22:35.770Z</time>
      </trkpt>
      <trkpt lat="42.79848" lon="18.07707">
        <ele>304.348651</ele>
        <time>2022-06-10T11:22:37.712Z</time>
      </trkpt>
      <trkpt lat="42.79861" lon="18.07702">
        <ele>303.830165</ele>
        <time>2022-06-10T11:22:40.711Z</time>
      </trkpt>
      <trkpt lat="42.7987" lon="18.07698">
        <ele>303.449482</ele>
        <time>2022-06-10T11:22:42.696Z</time>
      </trkpt>
      <trkpt lat="42.79879" lon="18.07694">
        <ele>303.072096</ele>
        <time>2022-06-10T11:22:44.724Z</time>
      </trkpt>
      <trkpt lat="42.79887" lon="18.07689">
        <ele>302.695664</ele>
        <time>2022-06-10T11:22:46.747Z</time>
      </trkpt>
      <trkpt lat="42.79896" lon="18.07684">
        <ele>302.317782</ele>
        <time>2022-06-10T11:22:48.723Z</time>
      </trkpt>
      <trkpt lat="42.79904" lon="18.07679">
        <ele>301.944739</ele>
        <time>2022-06-10T11:22:50.703Z</time>
      </trkpt>
      <trkpt lat="42.79913" lon="18.07674">
        <ele>301.579157</ele>
        <time>2022-06-10T11:22:52.722Z</time>
      </trkpt>
      <trkpt lat="42.79921" lon="18.07669">
        <ele>301.204045</ele>
        <time>2022-06-10T11:22:54.733Z</time>
      </trkpt>
      <trkpt lat="42.7993" lon="18.07663">
        <ele>300.824929</ele>
        <time>2022-06-10T11:22:56.722Z</time>
      </trkpt>
      <trkpt lat="42.79938" lon="18.07657">
        <ele>300.448428</ele>
        <time>2022-06-10T11:22:58.720Z</time>
      </trkpt>
      <trkpt lat="42.79946" lon="18.0765">
        <ele>300.067263</ele>
        <time>2022-06-10T11:23:00.748Z</time>
      </trkpt>
      <trkpt lat="42.79956" lon="18.07639">
        <ele>299.532653</ele>
        <time>2022-06-10T11:23:03.727Z</time>
      </trkpt>
      <trkpt lat="42.79966" lon="18.07627">
        <ele>299.024213</ele>
        <time>2022-06-10T11:23:06.718Z</time>
      </trkpt>
      <trkpt lat="42.79975" lon="18.07613">
        <ele>299.019825</ele>
        <time>2022-06-10T11:23:09.716Z</time>
      </trkpt>
      <trkpt lat="42.79983" lon="18.07598">
        <ele>299.015413</ele>
        <time>2022-06-10T11:23:12.711Z</time>
      </trkpt>
      <trkpt lat="42.79991" lon="18.07583">
        <ele>299.011019</ele>
        <time>2022-06-10T11:23:15.710Z</time>
      </trkpt>
      <trkpt lat="42.79999" lon="18.0757">
        <ele>299.006794</ele>
        <time>2022-06-10T11:23:18.724Z</time>
      </trkpt>
      <trkpt lat="42.80008" lon="18.07557">
        <ele>299.002487</ele>
        <time>2022-06-10T11:23:21.711Z</time>
      </trkpt>
      <trkpt lat="42.80018" lon="18.07544">
        <ele>298.998193</ele>
        <time>2022-06-10T11:23:24.728Z</time>
      </trkpt>
      <trkpt lat="42.80025" lon="18.07536">
        <ele>298.995169</ele>
        <time>2022-06-10T11:23:26.726Z</time>
      </trkpt>
      <trkpt lat="42.80032" lon="18.07529">
        <ele>298.992222</ele>
        <time>2022-06-10T11:23:28.702Z</time>
      </trkpt>
      <trkpt lat="42.80043" lon="18.07519">
        <ele>298.987815</ele>
        <time>2022-06-10T11:23:31.712Z</time>
      </trkpt>
      <trkpt lat="42.80054" lon="18.07508">
        <ele>298.983423</ele>
        <time>2022-06-10T11:23:34.725Z</time>
      </trkpt>
      <trkpt lat="42.80062" lon="18.07502">
        <ele>298.980366</ele>
        <time>2022-06-10T11:23:36.702Z</time>
      </trkpt>
      <trkpt lat="42.8007" lon="18.07495">
        <ele>298.977352</ele>
        <time>2022-06-10T11:23:38.723Z</time>
      </trkpt>
      <trkpt lat="42.80078" lon="18.07488">
        <ele>298.974321</ele>
        <time>2022-06-10T11:23:40.711Z</time>
      </trkpt>
      <trkpt lat="42.80086" lon="18.07482">
        <ele>298.971253</ele>
        <time>2022-06-10T11:23:42.728Z</time>
      </trkpt>
      <trkpt lat="42.80098" lon="18.07473">
        <ele>298.966945</ele>
        <time>2022-06-10T11:23:45.832Z</time>
      </trkpt>
      <trkpt lat="42.80109" lon="18.07465">
        <ele>298.962943</ele>
        <time>2022-06-10T11:23:48.719Z</time>
      </trkpt>
      <trkpt lat="42.80121" lon="18.07456">
        <ele>298.959096</ele>
        <time>2022-06-10T11:23:51.742Z</time>
      </trkpt>
      <trkpt lat="42.80132" lon="18.07447">
        <ele>298.955326</ele>
        <time>2022-06-10T11:23:54.717Z</time>
      </trkpt>
      <trkpt lat="42.80144" lon="18.07439">
        <ele>298.951457</ele>
        <time>2022-06-10T11:23:57.733Z</time>
      </trkpt>
      <trkpt lat="42.80155" lon="18.07431">
        <ele>298.947773</ele>
        <time>2022-06-10T11:24:00.716Z</time>
      </trkpt>
      <trkpt lat="42.80167" lon="18.07423">
        <ele>298.944048</ele>
        <time>2022-06-10T11:24:03.724Z</time>
      </trkpt>
      <trkpt lat="42.80179" lon="18.07417">
        <ele>298.940269</ele>
        <time>2022-06-10T11:24:06.805Z</time>
      </trkpt>
      <trkpt lat="42.80191" lon="18.0741">
        <ele>298.936592</ele>
        <time>2022-06-10T11:24:09.739Z</time>
      </trkpt>
      <trkpt lat="42.80202" lon="18.07405">
        <ele>298.933015</ele>
        <time>2022-06-10T11:24:12.713Z</time>
      </trkpt>
      <trkpt lat="42.80213" lon="18.07399">
        <ele>298.92967</ele>
        <time>2022-06-10T11:24:15.707Z</time>
      </trkpt>
      <trkpt lat="42.80224" lon="18.07395">
        <ele>298.926298</ele>
        <time>2022-06-10T11:24:18.711Z</time>
      </trkpt>
      <trkpt lat="42.80236" lon="18.07391">
        <ele>298.922793</ele>
        <time>2022-06-10T11:24:21.717Z</time>
      </trkpt>
      <trkpt lat="42.80248" lon="18.07386">
        <ele>298.919187</ele>
        <time>2022-06-10T11:24:24.810Z</time>
      </trkpt>
      <trkpt lat="42.8026" lon="18.07382">
        <ele>298.915495</ele>
        <time>2022-06-10T11:24:27.716Z</time>
      </trkpt>
      <trkpt lat="42.80272" lon="18.07379">
        <ele>299.01725</ele>
        <time>2022-06-10T11:24:30.721Z</time>
      </trkpt>
      <trkpt lat="42.80284" lon="18.07376">
        <ele>299.260701</ele>
        <time>2022-06-10T11:24:33.713Z</time>
      </trkpt>
      <trkpt lat="42.80296" lon="18.07373">
        <ele>299.519764</ele>
        <time>2022-06-10T11:24:36.705Z</time>
      </trkpt>
      <trkpt lat="42.80309" lon="18.07369">
        <ele>299.78347</ele>
        <time>2022-06-10T11:24:39.707Z</time>
      </trkpt>
      <trkpt lat="42.8032" lon="18.07367">
        <ele>300.028722</ele>
        <time>2022-06-10T11:24:42.709Z</time>
      </trkpt>
      <trkpt lat="42.80332" lon="18.07364">
        <ele>300.270959</ele>
        <time>2022-06-10T11:24:45.729Z</time>
      </trkpt>
      <trkpt lat="42.80343" lon="18.07359">
        <ele>300.509697</ele>
        <time>2022-06-10T11:24:48.736Z</time>
      </trkpt>
      <trkpt lat="42.80355" lon="18.07356">
        <ele>300.762962</ele>
        <time>2022-06-10T11:24:51.705Z</time>
      </trkpt>
      <trkpt lat="42.80367" lon="18.07353">
        <ele>301.024057</ele>
        <time>2022-06-10T11:24:54.709Z</time>
      </trkpt>
      <trkpt lat="42.80379" lon="18.07349">
        <ele>301.275602</ele>
        <time>2022-06-10T11:24:57.707Z</time>
      </trkpt>
      <trkpt lat="42.80392" lon="18.07347">
        <ele>301.534931</ele>
        <time>2022-06-10T11:25:00.722Z</time>
      </trkpt>
      <trkpt lat="42.80404" lon="18.07345">
        <ele>301.794822</ele>
        <time>2022-06-10T11:25:03.709Z</time>
      </trkpt>
      <trkpt lat="42.80413" lon="18.07344">
        <ele>301.981414</ele>
        <time>2022-06-10T11:25:05.766Z</time>
      </trkpt>
      <trkpt lat="42.80422" lon="18.07342">
        <ele>302.172889</ele>
        <time>2022-06-10T11:25:07.730Z</time>
      </trkpt>
      <trkpt lat="42.80435" lon="18.07342">
        <ele>302.43981</ele>
        <time>2022-06-10T11:25:10.711Z</time>
      </trkpt>
      <trkpt lat="42.80448" lon="18.07343">
        <ele>302.748881</ele>
        <time>2022-06-10T11:25:13.706Z</time>
      </trkpt>
      <trkpt lat="42.80459" lon="18.07344">
        <ele>303.1318</ele>
        <time>2022-06-10T11:25:16.785Z</time>
      </trkpt>
      <trkpt lat="42.80472" lon="18.07346">
        <ele>303.549127</ele>
        <time>2022-06-10T11:25:19.716Z</time>
      </trkpt>
      <trkpt lat="42.80485" lon="18.07348">
        <ele>303.987749</ele>
        <time>2022-06-10T11:25:22.706Z</time>
      </trkpt>
      <trkpt lat="42.80497" lon="18.07349">
        <ele>304.401514</ele>
        <time>2022-06-10T11:25:25.706Z</time>
      </trkpt>
      <trkpt lat="42.80509" lon="18.07351">
        <ele>304.811728</ele>
        <time>2022-06-10T11:25:28.723Z</time>
      </trkpt>
      <trkpt lat="42.80521" lon="18.07352">
        <ele>305.218819</ele>
        <time>2022-06-10T11:25:31.710Z</time>
      </trkpt>
      <trkpt lat="42.80533" lon="18.07354">
        <ele>305.604593</ele>
        <time>2022-06-10T11:25:34.700Z</time>
      </trkpt>
      <trkpt lat="42.80544" lon="18.07356">
        <ele>305.985243</ele>
        <time>2022-06-10T11:25:37.714Z</time>
      </trkpt>
      <trkpt lat="42.80556" lon="18.07356">
        <ele>306.3808</ele>
        <time>2022-06-10T11:25:40.725Z</time>
      </trkpt>
      <trkpt lat="42.80568" lon="18.07356">
        <ele>306.779706</ele>
        <time>2022-06-10T11:25:43.766Z</time>
      </trkpt>
      <trkpt lat="42.8058" lon="18.07356">
        <ele>307.191833</ele>
        <time>2022-06-10T11:25:46.721Z</time>
      </trkpt>
      <trkpt lat="42.80592" lon="18.07356">
        <ele>307.59725</ele>
        <time>2022-06-10T11:25:49.725Z</time>
      </trkpt>
      <trkpt lat="42.80605" lon="18.07354">
        <ele>308.01769</ele>
        <time>2022-06-10T11:25:52.700Z</time>
      </trkpt>
      <trkpt lat="42.80617" lon="18.07352">
        <ele>308.422752</ele>
        <time>2022-06-10T11:25:55.720Z</time>
      </trkpt>
      <trkpt lat="42.80628" lon="18.07351">
        <ele>308.572229</ele>
        <time>2022-06-10T11:25:58.730Z</time>
      </trkpt>
      <trkpt lat="42.80639" lon="18.0735">
        <ele>308.327691</ele>
        <time>2022-06-10T11:26:01.707Z</time>
      </trkpt>
      <trkpt lat="42.8065" lon="18.07348">
        <ele>308.076007</ele>
        <time>2022-06-10T11:26:04.697Z</time>
      </trkpt>
      <trkpt lat="42.80661" lon="18.07347">
        <ele>307.831193</ele>
        <time>2022-06-10T11:26:07.747Z</time>
      </trkpt>
      <trkpt lat="42.80673" lon="18.07344">
        <ele>307.567459</ele>
        <time>2022-06-10T11:26:10.706Z</time>
      </trkpt>
      <trkpt lat="42.80685" lon="18.07343">
        <ele>307.305147</ele>
        <time>2022-06-10T11:26:13.712Z</time>
      </trkpt>
      <trkpt lat="42.80697" lon="18.07341">
        <ele>307.040503</ele>
        <time>2022-06-10T11:26:16.711Z</time>
      </trkpt>
      <trkpt lat="42.80709" lon="18.07339">
        <ele>306.776548</ele>
        <time>2022-06-10T11:26:19.710Z</time>
      </trkpt>
      <trkpt lat="42.80721" lon="18.07337">
        <ele>306.507053</ele>
        <time>2022-06-10T11:26:22.738Z</time>
      </trkpt>
      <trkpt lat="42.80733" lon="18.07336">
        <ele>306.245112</ele>
        <time>2022-06-10T11:26:25.704Z</time>
      </trkpt>
      <trkpt lat="42.80745" lon="18.07334">
        <ele>305.982167</ele>
        <time>2022-06-10T11:26:28.710Z</time>
      </trkpt>
      <trkpt lat="42.80757" lon="18.07332">
        <ele>305.720822</ele>
        <time>2022-06-10T11:26:31.711Z</time>
      </trkpt>
      <trkpt lat="42.80769" lon="18.0733">
        <ele>305.452943</ele>
        <time>2022-06-10T11:26:34.725Z</time>
      </trkpt>
      <trkpt lat="42.8078" lon="18.07329">
        <ele>305.196722</ele>
        <time>2022-06-10T11:26:37.711Z</time>
      </trkpt>
      <trkpt lat="42.80792" lon="18.07328">
        <ele>304.941786</ele>
        <time>2022-06-10T11:26:40.714Z</time>
      </trkpt>
      <trkpt lat="42.80803" lon="18.07326">
        <ele>304.725267</ele>
        <time>2022-06-10T11:26:43.713Z</time>
      </trkpt>
      <trkpt lat="42.80815" lon="18.07327">
        <ele>305.115906</ele>
        <time>2022-06-10T11:26:46.711Z</time>
      </trkpt>
      <trkpt lat="42.80827" lon="18.07329">
        <ele>305.500481</ele>
        <time>2022-06-10T11:26:49.713Z</time>
      </trkpt>
      <trkpt lat="42.80839" lon="18.07333">
        <ele>305.899612</ele>
        <time>2022-06-10T11:26:52.703Z</time>
      </trkpt>
      <trkpt lat="42.80851" lon="18.07338">
        <ele>306.316144</ele>
        <time>2022-06-10T11:26:55.717Z</time>
      </trkpt>
      <trkpt lat="42.80863" lon="18.07345">
        <ele>306.731535</ele>
        <time>2022-06-10T11:26:58.696Z</time>
      </trkpt>
      <trkpt lat="42.80874" lon="18.07353">
        <ele>307.135179</ele>
        <time>2022-06-10T11:27:01.740Z</time>
      </trkpt>
      <trkpt lat="42.80885" lon="18.07361">
        <ele>307.547104</ele>
        <time>2022-06-10T11:27:04.713Z</time>
      </trkpt>
      <trkpt lat="42.80897" lon="18.07369">
        <ele>307.965464</ele>
        <time>2022-06-10T11:27:07.749Z</time>
      </trkpt>
      <trkpt lat="42.80908" lon="18.07378">
        <ele>308.378166</ele>
        <time>2022-06-10T11:27:10.716Z</time>
      </trkpt>
      <trkpt lat="42.80918" lon="18.07388">
        <ele>308.777121</ele>
        <time>2022-06-10T11:27:13.730Z</time>
      </trkpt>
      <trkpt lat="42.80928" lon="18.07398">
        <ele>309.182352</ele>
        <time>2022-06-10T11:27:16.721Z</time>
      </trkpt>
      <trkpt lat="42.80938" lon="18.07407">
        <ele>309.565302</ele>
        <time>2022-06-10T11:27:19.719Z</time>
      </trkpt>
      <trkpt lat="42.80948" lon="18.07416">
        <ele>309.946542</ele>
        <time>2022-06-10T11:27:22.702Z</time>
      </trkpt>
      <trkpt lat="42.80957" lon="18.07425">
        <ele>310.31587</ele>
        <time>2022-06-10T11:27:25.715Z</time>
      </trkpt>
      <trkpt lat="42.80967" lon="18.07434">
        <ele>310.508743</ele>
        <time>2022-06-10T11:27:28.703Z</time>
      </trkpt>
      <trkpt lat="42.80977" lon="18.07443">
        <ele>310.497154</ele>
        <time>2022-06-10T11:27:31.712Z</time>
      </trkpt>
      <trkpt lat="42.80988" lon="18.07451">
        <ele>310.485139</ele>
        <time>2022-06-10T11:27:34.705Z</time>
      </trkpt>
      <trkpt lat="42.80999" lon="18.0746">
        <ele>310.473027</ele>
        <time>2022-06-10T11:27:37.719Z</time>
      </trkpt>
      <trkpt lat="42.81011" lon="18.07467">
        <ele>310.460808</ele>
        <time>2022-06-10T11:27:40.709Z</time>
      </trkpt>
      <trkpt lat="42.81022" lon="18.07473">
        <ele>310.449337</ele>
        <time>2022-06-10T11:27:43.715Z</time>
      </trkpt>
      <trkpt lat="42.81033" lon="18.07478">
        <ele>310.4378</ele>
        <time>2022-06-10T11:27:46.701Z</time>
      </trkpt>
      <trkpt lat="42.81044" lon="18.07483">
        <ele>310.426691</ele>
        <time>2022-06-10T11:27:49.709Z</time>
      </trkpt>
      <trkpt lat="42.81056" lon="18.07487">
        <ele>310.41557</ele>
        <time>2022-06-10T11:27:52.767Z</time>
      </trkpt>
      <trkpt lat="42.81067" lon="18.07489">
        <ele>310.404406</ele>
        <time>2022-06-10T11:27:55.701Z</time>
      </trkpt>
      <trkpt lat="42.81079" lon="18.07492">
        <ele>310.393024</ele>
        <time>2022-06-10T11:27:58.740Z</time>
      </trkpt>
      <trkpt lat="42.81091" lon="18.07494">
        <ele>310.381671</ele>
        <time>2022-06-10T11:28:01.729Z</time>
      </trkpt>
      <trkpt lat="42.81103" lon="18.07494">
        <ele>310.370498</ele>
        <time>2022-06-10T11:28:04.714Z</time>
      </trkpt>
      <trkpt lat="42.81115" lon="18.07494">
        <ele>310.358667</ele>
        <time>2022-06-10T11:28:07.723Z</time>
      </trkpt>
      <trkpt lat="42.81128" lon="18.07494">
        <ele>310.34645</ele>
        <time>2022-06-10T11:28:10.725Z</time>
      </trkpt>
      <trkpt lat="42.8114" lon="18.07493">
        <ele>310.211289</ele>
        <time>2022-06-10T11:28:13.728Z</time>
      </trkpt>
      <trkpt lat="42.81152" lon="18.0749">
        <ele>310.008461</ele>
        <time>2022-06-10T11:28:16.731Z</time>
      </trkpt>
      <trkpt lat="42.81164" lon="18.07487">
        <ele>309.801346</ele>
        <time>2022-06-10T11:28:19.722Z</time>
      </trkpt>
      <trkpt lat="42.81176" lon="18.07485">
        <ele>309.595894</ele>
        <time>2022-06-10T11:28:22.720Z</time>
      </trkpt>
      <trkpt lat="42.81188" lon="18.07483">
        <ele>309.391879</ele>
        <time>2022-06-10T11:28:25.712Z</time>
      </trkpt>
      <trkpt lat="42.812" lon="18.07482">
        <ele>309.178955</ele>
        <time>2022-06-10T11:28:28.715Z</time>
      </trkpt>
      <trkpt lat="42.81213" lon="18.07482">
        <ele>308.97307</ele>
        <time>2022-06-10T11:28:31.711Z</time>
      </trkpt>
      <trkpt lat="42.81225" lon="18.07484">
        <ele>308.76988</ele>
        <time>2022-06-10T11:28:34.724Z</time>
      </trkpt>
      <trkpt lat="42.81237" lon="18.07487">
        <ele>308.558564</ele>
        <time>2022-06-10T11:28:37.749Z</time>
      </trkpt>
      <trkpt lat="42.81249" lon="18.07492">
        <ele>308.346578</ele>
        <time>2022-06-10T11:28:40.719Z</time>
      </trkpt>
      <trkpt lat="42.81261" lon="18.07497">
        <ele>308.129976</ele>
        <time>2022-06-10T11:28:43.802Z</time>
      </trkpt>
      <trkpt lat="42.81274" lon="18.07501">
        <ele>307.907506</ele>
        <time>2022-06-10T11:28:46.711Z</time>
      </trkpt>
      <trkpt lat="42.81287" lon="18.07504">
        <ele>307.690964</ele>
        <time>2022-06-10T11:28:49.705Z</time>
      </trkpt>
      <trkpt lat="42.81299" lon="18.07506">
        <ele>307.479054</ele>
        <time>2022-06-10T11:28:52.710Z</time>
      </trkpt>
      <trkpt lat="42.81312" lon="18.0751">
        <ele>307.323037</ele>
        <time>2022-06-10T11:28:55.718Z</time>
      </trkpt>
      <trkpt lat="42.81324" lon="18.07513">
        <ele>307.397116</ele>
        <time>2022-06-10T11:28:58.711Z</time>
      </trkpt>
      <trkpt lat="42.81337" lon="18.07518">
        <ele>307.47384</ele>
        <time>2022-06-10T11:29:01.708Z</time>
      </trkpt>
      <trkpt lat="42.81349" lon="18.07526">
        <ele>307.548112</ele>
        <time>2022-06-10T11:29:04.709Z</time>
      </trkpt>
      <trkpt lat="42.81357" lon="18.07532">
        <ele>307.601067</ele>
        <time>2022-06-10T11:29:06.728Z</time>
      </trkpt>
      <trkpt lat="42.81365" lon="18.07538">
        <ele>307.654952</ele>
        <time>2022-06-10T11:29:08.711Z</time>
      </trkpt>
      <trkpt lat="42.81376" lon="18.07548">
        <ele>307.732441</ele>
        <time>2022-06-10T11:29:11.711Z</time>
      </trkpt>
      <trkpt lat="42.81387" lon="18.07558">
        <ele>307.80997</ele>
        <time>2022-06-10T11:29:14.703Z</time>
      </trkpt>
      <trkpt lat="42.81396" lon="18.07564">
        <ele>307.86342</ele>
        <time>2022-06-10T11:29:16.740Z</time>
      </trkpt>
      <trkpt lat="42.81408" lon="18.07569">
        <ele>307.936684</ele>
        <time>2022-06-10T11:29:19.715Z</time>
      </trkpt>
      <trkpt lat="42.8142" lon="18.07574">
        <ele>308.00981</ele>
        <time>2022-06-10T11:29:22.731Z</time>
      </trkpt>
      <trkpt lat="42.81433" lon="18.07578">
        <ele>308.087871</ele>
        <time>2022-06-10T11:29:25.706Z</time>
      </trkpt>
      <trkpt lat="42.81442" lon="18.0758">
        <ele>308.141842</ele>
        <time>2022-06-10T11:29:27.755Z</time>
      </trkpt>
      <trkpt lat="42.81451" lon="18.0758">
        <ele>308.195652</ele>
        <time>2022-06-10T11:29:29.722Z</time>
      </trkpt>
      <trkpt lat="42.8146" lon="18.07581">
        <ele>308.24732</ele>
        <time>2022-06-10T11:29:31.713Z</time>
      </trkpt>
      <trkpt lat="42.8147" lon="18.07583">
        <ele>308.302241</ele>
        <time>2022-06-10T11:29:33.686Z</time>
      </trkpt>
      <trkpt lat="42.81479" lon="18.07585">
        <ele>308.303007</ele>
        <time>2022-06-10T11:29:35.683Z</time>
      </trkpt>
      <trkpt lat="42.81492" lon="18.07588">
        <ele>307.808585</ele>
        <time>2022-06-10T11:29:38.678Z</time>
      </trkpt>
      <trkpt lat="42.81501" lon="18.07589">
        <ele>307.451563</ele>
        <time>2022-06-10T11:29:40.694Z</time>
      </trkpt>
      <trkpt lat="42.8151" lon="18.07591">
        <ele>307.109842</ele>
        <time>2022-06-10T11:29:42.687Z</time>
      </trkpt>
      <trkpt lat="42.81523" lon="18.07592">
        <ele>306.61877</ele>
        <time>2022-06-10T11:29:45.685Z</time>
      </trkpt>
      <trkpt lat="42.81535" lon="18.07594">
        <ele>306.1606</ele>
        <time>2022-06-10T11:29:48.691Z</time>
      </trkpt>
      <trkpt lat="42.81546" lon="18.07596">
        <ele>305.730781</ele>
        <time>2022-06-10T11:29:51.681Z</time>
      </trkpt>
      <trkpt lat="42.81557" lon="18.07597">
        <ele>305.325389</ele>
        <time>2022-06-10T11:29:54.681Z</time>
      </trkpt>
      <trkpt lat="42.81567" lon="18.07599">
        <ele>304.947783</ele>
        <time>2022-06-10T11:29:57.683Z</time>
      </trkpt>
      <trkpt lat="42.81577" lon="18.07601">
        <ele>304.564878</ele>
        <time>2022-06-10T11:30:00.684Z</time>
      </trkpt>
      <trkpt lat="42.81587" lon="18.07601">
        <ele>304.187831</ele>
        <time>2022-06-10T11:30:03.682Z</time>
      </trkpt>
      <trkpt lat="42.81597" lon="18.07601">
        <ele>303.80325</ele>
        <time>2022-06-10T11:30:06.719Z</time>
      </trkpt>
      <trkpt lat="42.81607" lon="18.07603">
        <ele>303.429369</ele>
        <time>2022-06-10T11:30:09.683Z</time>
      </trkpt>
      <trkpt lat="42.81618" lon="18.07605">
        <ele>303.007018</ele>
        <time>2022-06-10T11:30:12.690Z</time>
      </trkpt>
      <trkpt lat="42.8163" lon="18.07603">
        <ele>302.560365</ele>
        <time>2022-06-10T11:30:15.714Z</time>
      </trkpt>
      <trkpt lat="42.81642" lon="18.07601">
        <ele>302.104393</ele>
        <time>2022-06-10T11:30:18.698Z</time>
      </trkpt>
      <trkpt lat="42.81655" lon="18.07599">
        <ele>301.62564</ele>
        <time>2022-06-10T11:30:21.690Z</time>
      </trkpt>
      <trkpt lat="42.81667" lon="18.07596">
        <ele>301.195768</ele>
        <time>2022-06-10T11:30:24.702Z</time>
      </trkpt>
      <trkpt lat="42.8168" lon="18.07591">
        <ele>300.761984</ele>
        <time>2022-06-10T11:30:27.699Z</time>
      </trkpt>
      <trkpt lat="42.81692" lon="18.07585">
        <ele>300.335717</ele>
        <time>2022-06-10T11:30:30.688Z</time>
      </trkpt>
      <trkpt lat="42.81703" lon="18.07577">
        <ele>299.906646</ele>
        <time>2022-06-10T11:30:33.679Z</time>
      </trkpt>
      <trkpt lat="42.81714" lon="18.07569">
        <ele>299.498375</ele>
        <time>2022-06-10T11:30:36.703Z</time>
      </trkpt>
      <trkpt lat="42.81726" lon="18.07562">
        <ele>299.070164</ele>
        <time>2022-06-10T11:30:39.691Z</time>
      </trkpt>
      <trkpt lat="42.81738" lon="18.07554">
        <ele>298.635107</ele>
        <time>2022-06-10T11:30:42.683Z</time>
      </trkpt>
      <trkpt lat="42.81749" lon="18.07547">
        <ele>298.217158</ele>
        <time>2022-06-10T11:30:45.681Z</time>
      </trkpt>
      <trkpt lat="42.81761" lon="18.07539">
        <ele>297.801073</ele>
        <time>2022-06-10T11:30:48.696Z</time>
      </trkpt>
      <trkpt lat="42.81772" lon="18.07531">
        <ele>297.381334</ele>
        <time>2022-06-10T11:30:51.683Z</time>
      </trkpt>
      <trkpt lat="42.81784" lon="18.07523">
        <ele>296.946482</ele>
        <time>2022-06-10T11:30:54.690Z</time>
      </trkpt>
      <trkpt lat="42.81795" lon="18.07515">
        <ele>296.51245</ele>
        <time>2022-06-10T11:30:57.691Z</time>
      </trkpt>
      <trkpt lat="42.81807" lon="18.07508">
        <ele>296.104442</ele>
        <time>2022-06-10T11:31:00.706Z</time>
      </trkpt>
      <trkpt lat="42.81818" lon="18.075">
        <ele>295.692121</ele>
        <time>2022-06-10T11:31:03.684Z</time>
      </trkpt>
      <trkpt lat="42.81828" lon="18.07493">
        <ele>295.620423</ele>
        <time>2022-06-10T11:31:06.699Z</time>
      </trkpt>
      <trkpt lat="42.8184" lon="18.07485">
        <ele>295.628409</ele>
        <time>2022-06-10T11:31:09.681Z</time>
      </trkpt>
      <trkpt lat="42.81851" lon="18.07478">
        <ele>295.636371</ele>
        <time>2022-06-10T11:31:12.691Z</time>
      </trkpt>
      <trkpt lat="42.81863" lon="18.0747">
        <ele>295.644834</ele>
        <time>2022-06-10T11:31:15.678Z</time>
      </trkpt>
      <trkpt lat="42.81874" lon="18.07462">
        <ele>295.652841</ele>
        <time>2022-06-10T11:31:18.690Z</time>
      </trkpt>
      <trkpt lat="42.81885" lon="18.07455">
        <ele>295.660792</ele>
        <time>2022-06-10T11:31:21.682Z</time>
      </trkpt>
      <trkpt lat="42.81897" lon="18.07446">
        <ele>295.669225</ele>
        <time>2022-06-10T11:31:24.684Z</time>
      </trkpt>
      <trkpt lat="42.81909" lon="18.07439">
        <ele>295.677555</ele>
        <time>2022-06-10T11:31:27.689Z</time>
      </trkpt>
      <trkpt lat="42.8192" lon="18.07431">
        <ele>295.685754</ele>
        <time>2022-06-10T11:31:30.685Z</time>
      </trkpt>
      <trkpt lat="42.81931" lon="18.07423">
        <ele>295.693507</ele>
        <time>2022-06-10T11:31:33.704Z</time>
      </trkpt>
      <trkpt lat="42.81942" lon="18.07416">
        <ele>295.701313</ele>
        <time>2022-06-10T11:31:36.698Z</time>
      </trkpt>
      <trkpt lat="42.81953" lon="18.07408">
        <ele>295.709095</ele>
        <time>2022-06-10T11:31:39.703Z</time>
      </trkpt>
      <trkpt lat="42.81964" lon="18.074">
        <ele>295.717027</ele>
        <time>2022-06-10T11:31:42.732Z</time>
      </trkpt>
      <trkpt lat="42.81973" lon="18.07391">
        <ele>295.724162</ele>
        <time>2022-06-10T11:31:45.698Z</time>
      </trkpt>
      <trkpt lat="42.81982" lon="18.07382">
        <ele>295.796301</ele>
        <time>2022-06-10T11:31:48.702Z</time>
      </trkpt>
      <trkpt lat="42.81991" lon="18.07375">
        <ele>295.978826</ele>
        <time>2022-06-10T11:31:51.710Z</time>
      </trkpt>
      <trkpt lat="42.82" lon="18.07366">
        <ele>296.176192</ele>
        <time>2022-06-10T11:31:54.717Z</time>
      </trkpt>
      <trkpt lat="42.82009" lon="18.07358">
        <ele>296.357927</ele>
        <time>2022-06-10T11:31:57.703Z</time>
      </trkpt>
      <trkpt lat="42.82018" lon="18.07348">
        <ele>296.553833</ele>
        <time>2022-06-10T11:32:00.711Z</time>
      </trkpt>
      <trkpt lat="42.82027" lon="18.0734">
        <ele>296.73837</ele>
        <time>2022-06-10T11:32:03.710Z</time>
      </trkpt>
      <trkpt lat="42.82035" lon="18.07332">
        <ele>296.915025</ele>
        <time>2022-06-10T11:32:06.731Z</time>
      </trkpt>
      <trkpt lat="42.82044" lon="18.07325">
        <ele>297.087557</ele>
        <time>2022-06-10T11:32:09.734Z</time>
      </trkpt>
      <trkpt lat="42.82052" lon="18.07316">
        <ele>297.260749</ele>
        <time>2022-06-10T11:32:12.745Z</time>
      </trkpt>
      <trkpt lat="42.8206" lon="18.07308">
        <ele>297.440965</ele>
        <time>2022-06-10T11:32:15.707Z</time>
      </trkpt>
      <trkpt lat="42.8207" lon="18.07301">
        <ele>297.625132</ele>
        <time>2022-06-10T11:32:18.752Z</time>
      </trkpt>
      <trkpt lat="42.82078" lon="18.07293">
        <ele>297.806059</ele>
        <time>2022-06-10T11:32:21.720Z</time>
      </trkpt>
      <trkpt lat="42.82087" lon="18.07285">
        <ele>297.994107</ele>
        <time>2022-06-10T11:32:24.729Z</time>
      </trkpt>
      <trkpt lat="42.82096" lon="18.07276">
        <ele>298.185155</ele>
        <time>2022-06-10T11:32:27.720Z</time>
      </trkpt>
      <trkpt lat="42.82106" lon="18.07267">
        <ele>298.381056</ele>
        <time>2022-06-10T11:32:30.716Z</time>
      </trkpt>
      <trkpt lat="42.82114" lon="18.07258">
        <ele>298.56483</ele>
        <time>2022-06-10T11:32:33.708Z</time>
      </trkpt>
      <trkpt lat="42.82123" lon="18.0725">
        <ele>298.75578</ele>
        <time>2022-06-10T11:32:36.717Z</time>
      </trkpt>
      <trkpt lat="42.82132" lon="18.07242">
        <ele>298.906768</ele>
        <time>2022-06-10T11:32:39.704Z</time>
      </trkpt>
      <trkpt lat="42.82142" lon="18.07235">
        <ele>299.037902</ele>
        <time>2022-06-10T11:32:42.714Z</time>
      </trkpt>
      <trkpt lat="42.8215" lon="18.07226">
        <ele>299.169815</ele>
        <time>2022-06-10T11:32:45.730Z</time>
      </trkpt>
      <trkpt lat="42.8216" lon="18.07219">
        <ele>299.302923</ele>
        <time>2022-06-10T11:32:48.722Z</time>
      </trkpt>
      <trkpt lat="42.8217" lon="18.07211">
        <ele>299.439769</ele>
        <time>2022-06-10T11:32:51.737Z</time>
      </trkpt>
      <trkpt lat="42.8218" lon="18.07204">
        <ele>299.584646</ele>
        <time>2022-06-10T11:32:54.695Z</time>
      </trkpt>
      <trkpt lat="42.82191" lon="18.07196">
        <ele>299.731619</ele>
        <time>2022-06-10T11:32:57.744Z</time>
      </trkpt>
      <trkpt lat="42.822" lon="18.07187">
        <ele>299.873654</ele>
        <time>2022-06-10T11:33:00.714Z</time>
      </trkpt>
      <trkpt lat="42.82211" lon="18.0718">
        <ele>300.01774</ele>
        <time>2022-06-10T11:33:03.701Z</time>
      </trkpt>
      <trkpt lat="42.82223" lon="18.07173">
        <ele>300.175528</ele>
        <time>2022-06-10T11:33:06.712Z</time>
      </trkpt>
      <trkpt lat="42.82233" lon="18.07166">
        <ele>300.32033</ele>
        <time>2022-06-10T11:33:09.710Z</time>
      </trkpt>
      <trkpt lat="42.82244" lon="18.0716">
        <ele>300.45666</ele>
        <time>2022-06-10T11:33:12.716Z</time>
      </trkpt>
      <trkpt lat="42.82254" lon="18.07155">
        <ele>300.591026</ele>
        <time>2022-06-10T11:33:15.729Z</time>
      </trkpt>
      <trkpt lat="42.82265" lon="18.07148">
        <ele>300.741416</ele>
        <time>2022-06-10T11:33:18.722Z</time>
      </trkpt>
      <trkpt lat="42.82277" lon="18.07142">
        <ele>300.895974</ele>
        <time>2022-06-10T11:33:21.707Z</time>
      </trkpt>
      <trkpt lat="42.82289" lon="18.07135">
        <ele>300.982587</ele>
        <time>2022-06-10T11:33:24.723Z</time>
      </trkpt>
      <trkpt lat="42.82297" lon="18.0713">
        <ele>300.756861</ele>
        <time>2022-06-10T11:33:26.712Z</time>
      </trkpt>
      <trkpt lat="42.82306" lon="18.07125">
        <ele>300.528956</ele>
        <time>2022-06-10T11:33:28.717Z</time>
      </trkpt>
      <trkpt lat="42.82317" lon="18.07118">
        <ele>300.218914</ele>
        <time>2022-06-10T11:33:31.695Z</time>
      </trkpt>
      <trkpt lat="42.8233" lon="18.07111">
        <ele>299.89953</ele>
        <time>2022-06-10T11:33:34.716Z</time>
      </trkpt>
      <trkpt lat="42.82341" lon="18.07105">
        <ele>299.600582</ele>
        <time>2022-06-10T11:33:37.719Z</time>
      </trkpt>
      <trkpt lat="42.82352" lon="18.07098">
        <ele>299.300123</ele>
        <time>2022-06-10T11:33:40.727Z</time>
      </trkpt>
      <trkpt lat="42.82363" lon="18.07092">
        <ele>299.003116</ele>
        <time>2022-06-10T11:33:43.713Z</time>
      </trkpt>
      <trkpt lat="42.82375" lon="18.07086">
        <ele>298.707427</ele>
        <time>2022-06-10T11:33:46.694Z</time>
      </trkpt>
      <trkpt lat="42.82386" lon="18.0708">
        <ele>298.421742</ele>
        <time>2022-06-10T11:33:49.701Z</time>
      </trkpt>
      <trkpt lat="42.82396" lon="18.07074">
        <ele>298.141297</ele>
        <time>2022-06-10T11:33:52.705Z</time>
      </trkpt>
      <trkpt lat="42.82406" lon="18.07068">
        <ele>297.874172</ele>
        <time>2022-06-10T11:33:55.710Z</time>
      </trkpt>
      <trkpt lat="42.82417" lon="18.07062">
        <ele>297.598816</ele>
        <time>2022-06-10T11:33:58.710Z</time>
      </trkpt>
      <trkpt lat="42.82427" lon="18.07056">
        <ele>297.318963</ele>
        <time>2022-06-10T11:34:01.716Z</time>
      </trkpt>
      <trkpt lat="42.82438" lon="18.0705">
        <ele>297.041123</ele>
        <time>2022-06-10T11:34:04.759Z</time>
      </trkpt>
      <trkpt lat="42.82448" lon="18.07044">
        <ele>296.765551</ele>
        <time>2022-06-10T11:34:07.700Z</time>
      </trkpt>
      <trkpt lat="42.82459" lon="18.07039">
        <ele>296.679382</ele>
        <time>2022-06-10T11:34:10.725Z</time>
      </trkpt>
      <trkpt lat="42.8247" lon="18.07034">
        <ele>296.743305</ele>
        <time>2022-06-10T11:34:13.728Z</time>
      </trkpt>
      <trkpt lat="42.82481" lon="18.07029">
        <ele>296.805672</ele>
        <time>2022-06-10T11:34:16.715Z</time>
      </trkpt>
      <trkpt lat="42.82492" lon="18.07024">
        <ele>296.868417</ele>
        <time>2022-06-10T11:34:19.705Z</time>
      </trkpt>
      <trkpt lat="42.82502" lon="18.07018">
        <ele>296.927245</ele>
        <time>2022-06-10T11:34:22.704Z</time>
      </trkpt>
      <trkpt lat="42.82512" lon="18.07013">
        <ele>296.984648</ele>
        <time>2022-06-10T11:34:25.705Z</time>
      </trkpt>
      <trkpt lat="42.82521" lon="18.07007">
        <ele>297.041345</ele>
        <time>2022-06-10T11:34:28.703Z</time>
      </trkpt>
      <trkpt lat="42.82531" lon="18.07002">
        <ele>297.096729</ele>
        <time>2022-06-10T11:34:31.715Z</time>
      </trkpt>
      <trkpt lat="42.82541" lon="18.06996">
        <ele>297.155556</ele>
        <time>2022-06-10T11:34:34.716Z</time>
      </trkpt>
      <trkpt lat="42.82551" lon="18.06991">
        <ele>297.214308</ele>
        <time>2022-06-10T11:34:37.757Z</time>
      </trkpt>
      <trkpt lat="42.82561" lon="18.06986">
        <ele>297.275044</ele>
        <time>2022-06-10T11:34:40.700Z</time>
      </trkpt>
      <trkpt lat="42.8257" lon="18.06979">
        <ele>297.328777</ele>
        <time>2022-06-10T11:34:43.706Z</time>
      </trkpt>
      <trkpt lat="42.82578" lon="18.06973">
        <ele>297.379078</ele>
        <time>2022-06-10T11:34:46.720Z</time>
      </trkpt>
      <trkpt lat="42.82586" lon="18.06966">
        <ele>297.433093</ele>
        <time>2022-06-10T11:34:49.715Z</time>
      </trkpt>
      <trkpt lat="42.82595" lon="18.0696">
        <ele>297.487023</ele>
        <time>2022-06-10T11:34:52.707Z</time>
      </trkpt>
      <trkpt lat="42.82603" lon="18.06951">
        <ele>297.543107</ele>
        <time>2022-06-10T11:34:55.705Z</time>
      </trkpt>
      <trkpt lat="42.82611" lon="18.06942">
        <ele>297.597812</ele>
        <time>2022-06-10T11:34:58.696Z</time>
      </trkpt>
      <trkpt lat="42.82619" lon="18.06933">
        <ele>297.875049</ele>
        <time>2022-06-10T11:35:01.715Z</time>
      </trkpt>
      <trkpt lat="42.82626" lon="18.06924">
        <ele>298.315861</ele>
        <time>2022-06-10T11:35:04.745Z</time>
      </trkpt>
      <trkpt lat="42.82634" lon="18.06914">
        <ele>298.771396</ele>
        <time>2022-06-10T11:35:07.720Z</time>
      </trkpt>
      <trkpt lat="42.82641" lon="18.06903">
        <ele>299.230827</ele>
        <time>2022-06-10T11:35:10.744Z</time>
      </trkpt>
      <trkpt lat="42.82648" lon="18.06892">
        <ele>299.701553</ele>
        <time>2022-06-10T11:35:13.709Z</time>
      </trkpt>
      <trkpt lat="42.82655" lon="18.06881">
        <ele>300.178602</ele>
        <time>2022-06-10T11:35:16.722Z</time>
      </trkpt>
      <trkpt lat="42.82661" lon="18.06869">
        <ele>300.637882</ele>
        <time>2022-06-10T11:35:19.703Z</time>
      </trkpt>
      <trkpt lat="42.82666" lon="18.06856">
        <ele>301.10669</ele>
        <time>2022-06-10T11:35:22.713Z</time>
      </trkpt>
      <trkpt lat="42.82671" lon="18.06843">
        <ele>301.601428</ele>
        <time>2022-06-10T11:35:25.711Z</time>
      </trkpt>
      <trkpt lat="42.82676" lon="18.06828">
        <ele>302.111295</ele>
        <time>2022-06-10T11:35:28.727Z</time>
      </trkpt>
      <trkpt lat="42.82681" lon="18.06814">
        <ele>302.617308</ele>
        <time>2022-06-10T11:35:31.717Z</time>
      </trkpt>
      <trkpt lat="42.82687" lon="18.068">
        <ele>303.13005</ele>
        <time>2022-06-10T11:35:34.707Z</time>
      </trkpt>
      <trkpt lat="42.82692" lon="18.06786">
        <ele>303.637974</ele>
        <time>2022-06-10T11:35:37.718Z</time>
      </trkpt>
      <trkpt lat="42.82697" lon="18.06772">
        <ele>304.148963</ele>
        <time>2022-06-10T11:35:40.720Z</time>
      </trkpt>
      <trkpt lat="42.82702" lon="18.06758">
        <ele>304.644706</ele>
        <time>2022-06-10T11:35:43.756Z</time>
      </trkpt>
      <trkpt lat="42.82707" lon="18.06743">
        <ele>305.144073</ele>
        <time>2022-06-10T11:35:46.707Z</time>
      </trkpt>
      <trkpt lat="42.82711" lon="18.06728">
        <ele>305.509423</ele>
        <time>2022-06-10T11:35:49.726Z</time>
      </trkpt>
      <trkpt lat="42.82716" lon="18.06713">
        <ele>305.533547</ele>
        <time>2022-06-10T11:35:52.702Z</time>
      </trkpt>
      <trkpt lat="42.8272" lon="18.06697">
        <ele>305.558624</ele>
        <time>2022-06-10T11:35:55.708Z</time>
      </trkpt>
      <trkpt lat="42.82724" lon="18.06681">
        <ele>305.583218</ele>
        <time>2022-06-10T11:35:58.714Z</time>
      </trkpt>
      <trkpt lat="42.82728" lon="18.06665">
        <ele>305.607608</ele>
        <time>2022-06-10T11:36:01.708Z</time>
      </trkpt>
      <trkpt lat="42.82732" lon="18.0665">
        <ele>305.631329</ele>
        <time>2022-06-10T11:36:04.711Z</time>
      </trkpt>
      <trkpt lat="42.82735" lon="18.06634">
        <ele>305.654342</ele>
        <time>2022-06-10T11:36:07.737Z</time>
      </trkpt>
      <trkpt lat="42.82739" lon="18.06619">
        <ele>305.677387</ele>
        <time>2022-06-10T11:36:10.726Z</time>
      </trkpt>
      <trkpt lat="42.82743" lon="18.06604">
        <ele>305.701162</ele>
        <time>2022-06-10T11:36:13.695Z</time>
      </trkpt>
      <trkpt lat="42.82746" lon="18.06589">
        <ele>305.723812</ele>
        <time>2022-06-10T11:36:16.704Z</time>
      </trkpt>
      <trkpt lat="42.8275" lon="18.06574">
        <ele>305.746356</ele>
        <time>2022-06-10T11:36:19.720Z</time>
      </trkpt>
      <trkpt lat="42.82753" lon="18.0656">
        <ele>305.769125</ele>
        <time>2022-06-10T11:36:22.740Z</time>
      </trkpt>
      <trkpt lat="42.82757" lon="18.06544">
        <ele>305.793226</ele>
        <time>2022-06-10T11:36:25.715Z</time>
      </trkpt>
      <trkpt lat="42.8276" lon="18.06528">
        <ele>305.816505</ele>
        <time>2022-06-10T11:36:28.714Z</time>
      </trkpt>
      <trkpt lat="42.82762" lon="18.06514">
        <ele>305.838236</ele>
        <time>2022-06-10T11:36:31.714Z</time>
      </trkpt>
      <trkpt lat="42.82764" lon="18.06497">
        <ele>305.875525</ele>
        <time>2022-06-10T11:36:34.726Z</time>
      </trkpt>
      <trkpt lat="42.82767" lon="18.06482">
        <ele>305.983987</ele>
        <time>2022-06-10T11:36:37.705Z</time>
      </trkpt>
      <trkpt lat="42.8277" lon="18.06467">
        <ele>306.091599</ele>
        <time>2022-06-10T11:36:40.702Z</time>
      </trkpt>
      <trkpt lat="42.82774" lon="18.06453">
        <ele>306.196024</ele>
        <time>2022-06-10T11:36:43.707Z</time>
      </trkpt>
      <trkpt lat="42.82777" lon="18.06437">
        <ele>306.30562</ele>
        <time>2022-06-10T11:36:46.711Z</time>
      </trkpt>
      <trkpt lat="42.82779" lon="18.06422">
        <ele>306.413031</ele>
        <time>2022-06-10T11:36:49.770Z</time>
      </trkpt>
      <trkpt lat="42.82781" lon="18.06406">
        <ele>306.520647</ele>
        <time>2022-06-10T11:36:52.715Z</time>
      </trkpt>
      <trkpt lat="42.82783" lon="18.06391">
        <ele>306.627396</ele>
        <time>2022-06-10T11:36:55.703Z</time>
      </trkpt>
      <trkpt lat="42.82786" lon="18.06376">
        <ele>306.731453</ele>
        <time>2022-06-10T11:36:58.702Z</time>
      </trkpt>
      <trkpt lat="42.82788" lon="18.06361">
        <ele>306.837255</ele>
        <time>2022-06-10T11:37:01.710Z</time>
      </trkpt>
      <trkpt lat="42.8279" lon="18.06347">
        <ele>306.938736</ele>
        <time>2022-06-10T11:37:04.689Z</time>
      </trkpt>
      <trkpt lat="42.82793" lon="18.06332">
        <ele>307.042967</ele>
        <time>2022-06-10T11:37:07.719Z</time>
      </trkpt>
      <trkpt lat="42.82795" lon="18.06317">
        <ele>307.15011</ele>
        <time>2022-06-10T11:37:10.708Z</time>
      </trkpt>
      <trkpt lat="42.82798" lon="18.06301">
        <ele>307.261469</ele>
        <time>2022-06-10T11:37:13.707Z</time>
      </trkpt>
      <trkpt lat="42.828" lon="18.06286">
        <ele>307.368728</ele>
        <time>2022-06-10T11:37:16.807Z</time>
      </trkpt>
      <trkpt lat="42.82802" lon="18.06271">
        <ele>307.474484</ele>
        <time>2022-06-10T11:37:19.735Z</time>
      </trkpt>
      <trkpt lat="42.82802" lon="18.06255">
        <ele>307.571713</ele>
        <time>2022-06-10T11:37:22.719Z</time>
      </trkpt>
      <trkpt lat="42.82803" lon="18.0624">
        <ele>307.65031</ele>
        <time>2022-06-10T11:37:25.733Z</time>
      </trkpt>
      <trkpt lat="42.82804" lon="18.06225">
        <ele>307.726422</ele>
        <time>2022-06-10T11:37:28.741Z</time>
      </trkpt>
      <trkpt lat="42.82804" lon="18.06209">
        <ele>307.802932</ele>
        <time>2022-06-10T11:37:31.725Z</time>
      </trkpt>
      <trkpt lat="42.82805" lon="18.06194">
        <ele>307.87949</ele>
        <time>2022-06-10T11:37:34.723Z</time>
      </trkpt>
      <trkpt lat="42.82805" lon="18.06179">
        <ele>307.955071</ele>
        <time>2022-06-10T11:37:37.700Z</time>
      </trkpt>
      <trkpt lat="42.82806" lon="18.06164">
        <ele>308.029646</ele>
        <time>2022-06-10T11:37:40.726Z</time>
      </trkpt>
      <trkpt lat="42.82805" lon="18.06149">
        <ele>308.106232</ele>
        <time>2022-06-10T11:37:43.715Z</time>
      </trkpt>
      <trkpt lat="42.82805" lon="18.06134">
        <ele>308.184264</ele>
        <time>2022-06-10T11:37:46.700Z</time>
      </trkpt>
      <trkpt lat="42.82806" lon="18.06118">
        <ele>308.261792</ele>
        <time>2022-06-10T11:37:49.713Z</time>
      </trkpt>
      <trkpt lat="42.82806" lon="18.06103">
        <ele>308.339824</ele>
        <time>2022-06-10T11:37:52.703Z</time>
      </trkpt>
      <trkpt lat="42.82806" lon="18.06087">
        <ele>308.419365</ele>
        <time>2022-06-10T11:37:55.709Z</time>
      </trkpt>
      <trkpt lat="42.82806" lon="18.06072">
        <ele>308.497384</ele>
        <time>2022-06-10T11:37:58.727Z</time>
      </trkpt>
      <trkpt lat="42.82806" lon="18.06057">
        <ele>308.571406</ele>
        <time>2022-06-10T11:38:01.707Z</time>
      </trkpt>
      <trkpt lat="42.82806" lon="18.06042">
        <ele>308.644898</ele>
        <time>2022-06-10T11:38:04.707Z</time>
      </trkpt>
      <trkpt lat="42.82807" lon="18.06027">
        <ele>308.719596</ele>
        <time>2022-06-10T11:38:07.759Z</time>
      </trkpt>
      <trkpt lat="42.82807" lon="18.06013">
        <ele>308.794815</ele>
        <time>2022-06-10T11:38:10.716Z</time>
      </trkpt>
      <trkpt lat="42.82807" lon="18.05998">
        <ele>308.873332</ele>
        <time>2022-06-10T11:38:13.743Z</time>
      </trkpt>
      <trkpt lat="42.82808" lon="18.05984">
        <ele>308.954082</ele>
        <time>2022-06-10T11:38:16.733Z</time>
      </trkpt>
      <trkpt lat="42.82809" lon="18.05969">
        <ele>309.032826</ele>
        <time>2022-06-10T11:38:19.736Z</time>
      </trkpt>
      <trkpt lat="42.8281" lon="18.05956">
        <ele>309.109095</ele>
        <time>2022-06-10T11:38:22.708Z</time>
      </trkpt>
      <trkpt lat="42.82813" lon="18.05943">
        <ele>309.181695</ele>
        <time>2022-06-10T11:38:25.745Z</time>
      </trkpt>
      <trkpt lat="42.82815" lon="18.0593">
        <ele>309.255737</ele>
        <time>2022-06-10T11:38:28.732Z</time>
      </trkpt>
      <trkpt lat="42.82818" lon="18.05917">
        <ele>309.330222</ele>
        <time>2022-06-10T11:38:31.742Z</time>
      </trkpt>
      <trkpt lat="42.82821" lon="18.05903">
        <ele>309.407164</ele>
        <time>2022-06-10T11:38:34.722Z</time>
      </trkpt>
      <trkpt lat="42.82824" lon="18.0589">
        <ele>309.481436</ele>
        <time>2022-06-10T11:38:37.739Z</time>
      </trkpt>
      <trkpt lat="42.82827" lon="18.05877">
        <ele>309.558458</ele>
        <time>2022-06-10T11:38:40.710Z</time>
      </trkpt>
      <trkpt lat="42.82831" lon="18.05864">
        <ele>309.634118</ele>
        <time>2022-06-10T11:38:43.736Z</time>
      </trkpt>
      <trkpt lat="42.82834" lon="18.05851">
        <ele>309.708767</ele>
        <time>2022-06-10T11:38:46.705Z</time>
      </trkpt>
      <trkpt lat="42.82837" lon="18.05838">
        <ele>309.785975</ele>
        <time>2022-06-10T11:38:49.709Z</time>
      </trkpt>
      <trkpt lat="42.82841" lon="18.05824">
        <ele>309.866266</ele>
        <time>2022-06-10T11:38:52.724Z</time>
      </trkpt>
      <trkpt lat="42.82845" lon="18.05811">
        <ele>309.94247</ele>
        <time>2022-06-10T11:38:55.704Z</time>
      </trkpt>
      <trkpt lat="42.82847" lon="18.05799">
        <ele>310.013591</ele>
        <time>2022-06-10T11:38:58.716Z</time>
      </trkpt>
      <trkpt lat="42.82851" lon="18.05787">
        <ele>310.084621</ele>
        <time>2022-06-10T11:39:01.704Z</time>
      </trkpt>
      <trkpt lat="42.82853" lon="18.05774">
        <ele>310.149736</ele>
        <time>2022-06-10T11:39:04.708Z</time>
      </trkpt>
      <trkpt lat="42.82856" lon="18.05761">
        <ele>310.212303</ele>
        <time>2022-06-10T11:39:07.704Z</time>
      </trkpt>
      <trkpt lat="42.82858" lon="18.05747">
        <ele>310.275961</ele>
        <time>2022-06-10T11:39:10.726Z</time>
      </trkpt>
      <trkpt lat="42.82859" lon="18.05734">
        <ele>310.338663</ele>
        <time>2022-06-10T11:39:13.713Z</time>
      </trkpt>
      <trkpt lat="42.82861" lon="18.05721">
        <ele>310.399297</ele>
        <time>2022-06-10T11:39:16.736Z</time>
      </trkpt>
      <trkpt lat="42.82862" lon="18.05707">
        <ele>310.461313</ele>
        <time>2022-06-10T11:39:19.717Z</time>
      </trkpt>
      <trkpt lat="42.82863" lon="18.05694">
        <ele>310.520153</ele>
        <time>2022-06-10T11:39:22.710Z</time>
      </trkpt>
      <trkpt lat="42.82864" lon="18.05682">
        <ele>310.57648</ele>
        <time>2022-06-10T11:39:25.721Z</time>
      </trkpt>
      <trkpt lat="42.82865" lon="18.05666">
        <ele>310.649396</ele>
        <time>2022-06-10T11:39:29.722Z</time>
      </trkpt>
      <trkpt lat="42.82866" lon="18.0565">
        <ele>310.722057</ele>
        <time>2022-06-10T11:39:33.708Z</time>
      </trkpt>
      <trkpt lat="42.82867" lon="18.05635">
        <ele>310.79458</ele>
        <time>2022-06-10T11:39:37.722Z</time>
      </trkpt>
      <trkpt lat="42.82868" lon="18.05622">
        <ele>310.854198</ele>
        <time>2022-06-10T11:39:40.708Z</time>
      </trkpt>
      <trkpt lat="42.82868" lon="18.05609">
        <ele>310.911728</ele>
        <time>2022-06-10T11:39:43.703Z</time>
      </trkpt>
      <trkpt lat="42.82868" lon="18.05596">
        <ele>310.969726</ele>
        <time>2022-06-10T11:39:46.734Z</time>
      </trkpt>
      <trkpt lat="42.82868" lon="18.05584">
        <ele>311.02771</ele>
        <time>2022-06-10T11:39:49.708Z</time>
      </trkpt>
      <trkpt lat="42.82867" lon="18.05571">
        <ele>311.086817</ele>
        <time>2022-06-10T11:39:52.702Z</time>
      </trkpt>
      <trkpt lat="42.82866" lon="18.05558">
        <ele>311.145875</ele>
        <time>2022-06-10T11:39:55.712Z</time>
      </trkpt>
      <trkpt lat="42.82865" lon="18.05545">
        <ele>311.205715</ele>
        <time>2022-06-10T11:39:58.711Z</time>
      </trkpt>
      <trkpt lat="42.82862" lon="18.05533">
        <ele>311.303693</ele>
        <time>2022-06-10T11:40:01.753Z</time>
      </trkpt>
      <trkpt lat="42.82859" lon="18.05521">
        <ele>311.478917</ele>
        <time>2022-06-10T11:40:04.719Z</time>
      </trkpt>
      <trkpt lat="42.82855" lon="18.05505">
        <ele>311.704932</ele>
        <time>2022-06-10T11:40:08.718Z</time>
      </trkpt>
      <trkpt lat="42.82849" lon="18.05494">
        <ele>311.896589</ele>
        <time>2022-06-10T11:40:11.707Z</time>
      </trkpt>
      <trkpt lat="42.82845" lon="18.05483">
        <ele>312.070443</ele>
        <time>2022-06-10T11:40:14.714Z</time>
      </trkpt>
      <trkpt lat="42.8284" lon="18.05472">
        <ele>312.247081</ele>
        <time>2022-06-10T11:40:17.720Z</time>
      </trkpt>
      <trkpt lat="42.82835" lon="18.05462">
        <ele>312.424026</ele>
        <time>2022-06-10T11:40:20.724Z</time>
      </trkpt>
      <trkpt lat="42.82829" lon="18.05451">
        <ele>312.605323</ele>
        <time>2022-06-10T11:40:23.706Z</time>
      </trkpt>
      <trkpt lat="42.82825" lon="18.0544">
        <ele>312.781097</ele>
        <time>2022-06-10T11:40:26.715Z</time>
      </trkpt>
      <trkpt lat="42.8282" lon="18.05429">
        <ele>312.959482</ele>
        <time>2022-06-10T11:40:29.746Z</time>
      </trkpt>
      <trkpt lat="42.82815" lon="18.05418">
        <ele>313.13307</ele>
        <time>2022-06-10T11:40:32.714Z</time>
      </trkpt>
      <trkpt lat="42.82809" lon="18.05405">
        <ele>313.35112</ele>
        <time>2022-06-10T11:40:36.695Z</time>
      </trkpt>
      <trkpt lat="42.82804" lon="18.05393">
        <ele>313.530752</ele>
        <time>2022-06-10T11:40:39.711Z</time>
      </trkpt>
      <trkpt lat="42.828" lon="18.05383">
        <ele>313.706961</ele>
        <time>2022-06-10T11:40:42.696Z</time>
      </trkpt>
      <trkpt lat="42.82795" lon="18.05371">
        <ele>313.887912</ele>
        <time>2022-06-10T11:40:45.723Z</time>
      </trkpt>
      <trkpt lat="42.8279" lon="18.05357">
        <ele>314.110693</ele>
        <time>2022-06-10T11:40:49.733Z</time>
      </trkpt>
      <trkpt lat="42.82785" lon="18.05346">
        <ele>314.288083</ele>
        <time>2022-06-10T11:40:52.736Z</time>
      </trkpt>
      <trkpt lat="42.8278" lon="18.05333">
        <ele>314.487482</ele>
        <time>2022-06-10T11:40:55.728Z</time>
      </trkpt>
      <trkpt lat="42.82775" lon="18.0532">
        <ele>314.658425</ele>
        <time>2022-06-10T11:40:58.702Z</time>
      </trkpt>
      <trkpt lat="42.82772" lon="18.05307">
        <ele>314.714219</ele>
        <time>2022-06-10T11:41:01.715Z</time>
      </trkpt>
      <trkpt lat="42.82769" lon="18.05293">
        <ele>314.768998</ele>
        <time>2022-06-10T11:41:04.714Z</time>
      </trkpt>
      <trkpt lat="42.82766" lon="18.0528">
        <ele>314.821852</ele>
        <time>2022-06-10T11:41:07.713Z</time>
      </trkpt>
      <trkpt lat="42.82763" lon="18.05267">
        <ele>314.875075</ele>
        <time>2022-06-10T11:41:10.704Z</time>
      </trkpt>
      <trkpt lat="42.82761" lon="18.05254">
        <ele>314.925398</ele>
        <time>2022-06-10T11:41:13.712Z</time>
      </trkpt>
      <trkpt lat="42.8276" lon="18.0524">
        <ele>314.977388</ele>
        <time>2022-06-10T11:41:16.792Z</time>
      </trkpt>
      <trkpt lat="42.82759" lon="18.05227">
        <ele>315.027723</ele>
        <time>2022-06-10T11:41:19.720Z</time>
      </trkpt>
      <trkpt lat="42.82758" lon="18.05214">
        <ele>315.079745</ele>
        <time>2022-06-10T11:41:22.725Z</time>
      </trkpt>
      <trkpt lat="42.82759" lon="18.052">
        <ele>315.131353</ele>
        <time>2022-06-10T11:41:25.717Z</time>
      </trkpt>
      <trkpt lat="42.8276" lon="18.05188">
        <ele>315.180371</ele>
        <time>2022-06-10T11:41:28.733Z</time>
      </trkpt>
      <trkpt lat="42.82762" lon="18.05174">
        <ele>315.232969</ele>
        <time>2022-06-10T11:41:31.736Z</time>
      </trkpt>
      <trkpt lat="42.82765" lon="18.05161">
        <ele>315.286898</ele>
        <time>2022-06-10T11:41:34.799Z</time>
      </trkpt>
      <trkpt lat="42.82767" lon="18.05147">
        <ele>315.34204</ele>
        <time>2022-06-10T11:41:37.735Z</time>
      </trkpt>
      <trkpt lat="42.82769" lon="18.05134">
        <ele>315.3905</ele>
        <time>2022-06-10T11:41:40.707Z</time>
      </trkpt>
      <trkpt lat="42.82771" lon="18.05122">
        <ele>315.441317</ele>
        <time>2022-06-10T11:41:43.746Z</time>
      </trkpt>
      <trkpt lat="42.82773" lon="18.05108">
        <ele>315.493436</ele>
        <time>2022-06-10T11:41:46.709Z</time>
      </trkpt>
      <trkpt lat="42.82774" lon="18.05095">
        <ele>315.54333</ele>
        <time>2022-06-10T11:41:49.724Z</time>
      </trkpt>
      <trkpt lat="42.82775" lon="18.05081">
        <ele>315.590333</ele>
        <time>2022-06-10T11:41:52.732Z</time>
      </trkpt>
      <trkpt lat="42.82777" lon="18.05066">
        <ele>315.589675</ele>
        <time>2022-06-10T11:41:55.740Z</time>
      </trkpt>
      <trkpt lat="42.82779" lon="18.05052">
        <ele>315.58904</ele>
        <time>2022-06-10T11:41:58.698Z</time>
      </trkpt>
      <trkpt lat="42.82781" lon="18.05038">
        <ele>315.588396</ele>
        <time>2022-06-10T11:42:01.713Z</time>
      </trkpt>
      <trkpt lat="42.82785" lon="18.05024">
        <ele>315.587727</ele>
        <time>2022-06-10T11:42:04.708Z</time>
      </trkpt>
      <trkpt lat="42.82787" lon="18.0501">
        <ele>315.58707</ele>
        <time>2022-06-10T11:42:07.744Z</time>
      </trkpt>
      <trkpt lat="42.82788" lon="18.04997">
        <ele>315.586486</ele>
        <time>2022-06-10T11:42:10.723Z</time>
      </trkpt>
      <trkpt lat="42.8279" lon="18.04984">
        <ele>315.585893</ele>
        <time>2022-06-10T11:42:13.756Z</time>
      </trkpt>
      <trkpt lat="42.82791" lon="18.04971">
        <ele>315.585299</ele>
        <time>2022-06-10T11:42:16.756Z</time>
      </trkpt>
      <trkpt lat="42.82794" lon="18.04955">
        <ele>315.584575</ele>
        <time>2022-06-10T11:42:20.725Z</time>
      </trkpt>
      <trkpt lat="42.82797" lon="18.04942">
        <ele>315.583982</ele>
        <time>2022-06-10T11:42:23.710Z</time>
      </trkpt>
      <trkpt lat="42.82799" lon="18.04928">
        <ele>315.583354</ele>
        <time>2022-06-10T11:42:26.697Z</time>
      </trkpt>
      <trkpt lat="42.82802" lon="18.04915">
        <ele>315.582725</ele>
        <time>2022-06-10T11:42:29.701Z</time>
      </trkpt>
      <trkpt lat="42.82805" lon="18.04901">
        <ele>315.582094</ele>
        <time>2022-06-10T11:42:32.706Z</time>
      </trkpt>
      <trkpt lat="42.82809" lon="18.04888">
        <ele>315.581446</ele>
        <time>2022-06-10T11:42:35.713Z</time>
      </trkpt>
      <trkpt lat="42.82814" lon="18.04875">
        <ele>315.580791</ele>
        <time>2022-06-10T11:42:38.716Z</time>
      </trkpt>
      <trkpt lat="42.82819" lon="18.0486">
        <ele>315.580071</ele>
        <time>2022-06-10T11:42:41.747Z</time>
      </trkpt>
      <trkpt lat="42.82824" lon="18.04846">
        <ele>315.535539</ele>
        <time>2022-06-10T11:42:44.715Z</time>
      </trkpt>
      <trkpt lat="42.8283" lon="18.04831">
        <ele>315.329276</ele>
        <time>2022-06-10T11:42:47.719Z</time>
      </trkpt>
      <trkpt lat="42.82836" lon="18.04819">
        <ele>315.134968</ele>
        <time>2022-06-10T11:42:50.707Z</time>
      </trkpt>
      <trkpt lat="42.82841" lon="18.04806">
        <ele>314.954054</ele>
        <time>2022-06-10T11:42:53.714Z</time>
      </trkpt>
      <trkpt lat="42.82846" lon="18.04793">
        <ele>314.765077</ele>
        <time>2022-06-10T11:42:56.736Z</time>
      </trkpt>
      <trkpt lat="42.82852" lon="18.0478">
        <ele>314.578632</ele>
        <time>2022-06-10T11:42:59.720Z</time>
      </trkpt>
      <trkpt lat="42.82857" lon="18.04767">
        <ele>314.387064</ele>
        <time>2022-06-10T11:43:02.715Z</time>
      </trkpt>
      <trkpt lat="42.82862" lon="18.04753">
        <ele>314.189176</ele>
        <time>2022-06-10T11:43:05.702Z</time>
      </trkpt>
      <trkpt lat="42.82867" lon="18.04739">
        <ele>313.996742</ele>
        <time>2022-06-10T11:43:08.709Z</time>
      </trkpt>
      <trkpt lat="42.82872" lon="18.04726">
        <ele>313.796046</ele>
        <time>2022-06-10T11:43:11.720Z</time>
      </trkpt>
      <trkpt lat="42.82879" lon="18.04712">
        <ele>313.580903</ele>
        <time>2022-06-10T11:43:14.700Z</time>
      </trkpt>
      <trkpt lat="42.82885" lon="18.04698">
        <ele>313.377585</ele>
        <time>2022-06-10T11:43:17.715Z</time>
      </trkpt>
      <trkpt lat="42.8289" lon="18.04685">
        <ele>313.185543</ele>
        <time>2022-06-10T11:43:20.804Z</time>
      </trkpt>
      <trkpt lat="42.82896" lon="18.04672">
        <ele>312.993648</ele>
        <time>2022-06-10T11:43:23.700Z</time>
      </trkpt>
      <trkpt lat="42.82901" lon="18.04659">
        <ele>312.805495</ele>
        <time>2022-06-10T11:43:26.701Z</time>
      </trkpt>
      <trkpt lat="42.82907" lon="18.04646">
        <ele>312.612294</ele>
        <time>2022-06-10T11:43:29.719Z</time>
      </trkpt>
      <trkpt lat="42.82912" lon="18.04632">
        <ele>312.448184</ele>
        <time>2022-06-10T11:43:32.752Z</time>
      </trkpt>
      <trkpt lat="42.82918" lon="18.0462">
        <ele>312.417392</ele>
        <time>2022-06-10T11:43:35.718Z</time>
      </trkpt>
      <trkpt lat="42.82923" lon="18.04607">
        <ele>312.38601</ele>
        <time>2022-06-10T11:43:38.699Z</time>
      </trkpt>
      <trkpt lat="42.82928" lon="18.04593">
        <ele>312.353348</ele>
        <time>2022-06-10T11:43:41.707Z</time>
      </trkpt>
      <trkpt lat="42.82933" lon="18.04578">
        <ele>312.320361</ele>
        <time>2022-06-10T11:43:44.717Z</time>
      </trkpt>
      <trkpt lat="42.82937" lon="18.04565">
        <ele>312.289518</ele>
        <time>2022-06-10T11:43:47.723Z</time>
      </trkpt>
      <trkpt lat="42.82941" lon="18.04551">
        <ele>312.258106</ele>
        <time>2022-06-10T11:43:50.738Z</time>
      </trkpt>
      <trkpt lat="42.82945" lon="18.04536">
        <ele>312.224232</ele>
        <time>2022-06-10T11:43:53.705Z</time>
      </trkpt>
      <trkpt lat="42.8295" lon="18.04521">
        <ele>312.190403</ele>
        <time>2022-06-10T11:43:56.731Z</time>
      </trkpt>
      <trkpt lat="42.82954" lon="18.04506">
        <ele>312.157458</ele>
        <time>2022-06-10T11:43:59.719Z</time>
      </trkpt>
      <trkpt lat="42.82959" lon="18.04491">
        <ele>312.123881</ele>
        <time>2022-06-10T11:44:02.699Z</time>
      </trkpt>
      <trkpt lat="42.82962" lon="18.04477">
        <ele>312.092763</ele>
        <time>2022-06-10T11:44:05.732Z</time>
      </trkpt>
      <trkpt lat="42.82967" lon="18.04463">
        <ele>312.060157</ele>
        <time>2022-06-10T11:44:08.706Z</time>
      </trkpt>
      <trkpt lat="42.82972" lon="18.04448">
        <ele>312.025668</ele>
        <time>2022-06-10T11:44:11.708Z</time>
      </trkpt>
      <trkpt lat="42.82977" lon="18.04434">
        <ele>311.991679</ele>
        <time>2022-06-10T11:44:14.712Z</time>
      </trkpt>
      <trkpt lat="42.82982" lon="18.04419">
        <ele>311.957635</ele>
        <time>2022-06-10T11:44:17.696Z</time>
      </trkpt>
      <trkpt lat="42.82987" lon="18.04406">
        <ele>311.827386</ele>
        <time>2022-06-10T11:44:20.709Z</time>
      </trkpt>
      <trkpt lat="42.82993" lon="18.04393">
        <ele>311.579874</ele>
        <time>2022-06-10T11:44:23.704Z</time>
      </trkpt>
      <trkpt lat="42.82999" lon="18.04381">
        <ele>311.32198</ele>
        <time>2022-06-10T11:44:26.695Z</time>
      </trkpt>
      <trkpt lat="42.83006" lon="18.04368">
        <ele>311.060199</ele>
        <time>2022-06-10T11:44:29.708Z</time>
      </trkpt>
      <trkpt lat="42.83012" lon="18.04357">
        <ele>310.816227</ele>
        <time>2022-06-10T11:44:32.707Z</time>
      </trkpt>
      <trkpt lat="42.83019" lon="18.04345">
        <ele>310.556806</ele>
        <time>2022-06-10T11:44:35.720Z</time>
      </trkpt>
      <trkpt lat="42.83027" lon="18.04332">
        <ele>310.272999</ele>
        <time>2022-06-10T11:44:38.751Z</time>
      </trkpt>
      <trkpt lat="42.83035" lon="18.04318">
        <ele>309.979163</ele>
        <time>2022-06-10T11:44:41.720Z</time>
      </trkpt>
      <trkpt lat="42.83043" lon="18.04306">
        <ele>309.690294</ele>
        <time>2022-06-10T11:44:44.713Z</time>
      </trkpt>
      <trkpt lat="42.83051" lon="18.04292">
        <ele>309.395149</ele>
        <time>2022-06-10T11:44:47.693Z</time>
      </trkpt>
      <trkpt lat="42.83059" lon="18.0428">
        <ele>309.109085</ele>
        <time>2022-06-10T11:44:50.715Z</time>
      </trkpt>
      <trkpt lat="42.83067" lon="18.04267">
        <ele>308.818935</ele>
        <time>2022-06-10T11:44:53.716Z</time>
      </trkpt>
      <trkpt lat="42.83073" lon="18.04257">
        <ele>308.609684</ele>
        <time>2022-06-10T11:44:55.734Z</time>
      </trkpt>
      <trkpt lat="42.83081" lon="18.04245">
        <ele>308.319534</ele>
        <time>2022-06-10T11:44:58.707Z</time>
      </trkpt>
      <trkpt lat="42.8309" lon="18.04231">
        <ele>308.02121</ele>
        <time>2022-06-10T11:45:01.742Z</time>
      </trkpt>
      <trkpt lat="42.83098" lon="18.04218">
        <ele>307.845422</ele>
        <time>2022-06-10T11:45:04.711Z</time>
      </trkpt>
      <trkpt lat="42.83106" lon="18.04203">
        <ele>308.293726</ele>
        <time>2022-06-10T11:45:07.732Z</time>
      </trkpt>
      <trkpt lat="42.83113" lon="18.04189">
        <ele>308.730784</ele>
        <time>2022-06-10T11:45:10.706Z</time>
      </trkpt>
      <trkpt lat="42.8312" lon="18.04173">
        <ele>309.17879</ele>
        <time>2022-06-10T11:45:13.703Z</time>
      </trkpt>
      <trkpt lat="42.83126" lon="18.04158">
        <ele>309.621137</ele>
        <time>2022-06-10T11:45:16.733Z</time>
      </trkpt>
      <trkpt lat="42.83132" lon="18.04142">
        <ele>310.065095</ele>
        <time>2022-06-10T11:45:19.728Z</time>
      </trkpt>
      <trkpt lat="42.83137" lon="18.04126">
        <ele>310.518472</ele>
        <time>2022-06-10T11:45:22.741Z</time>
      </trkpt>
      <trkpt lat="42.83143" lon="18.04109">
        <ele>310.975206</ele>
        <time>2022-06-10T11:45:25.713Z</time>
      </trkpt>
      <trkpt lat="42.83148" lon="18.04093">
        <ele>311.42907</ele>
        <time>2022-06-10T11:45:28.715Z</time>
      </trkpt>
      <trkpt lat="42.83155" lon="18.04077">
        <ele>311.869264</ele>
        <time>2022-06-10T11:45:31.705Z</time>
      </trkpt>
      <trkpt lat="42.83162" lon="18.04063">
        <ele>312.291856</ele>
        <time>2022-06-10T11:45:34.693Z</time>
      </trkpt>
      <trkpt lat="42.83169" lon="18.0405">
        <ele>312.708039</ele>
        <time>2022-06-10T11:45:37.713Z</time>
      </trkpt>
      <trkpt lat="42.83176" lon="18.04036">
        <ele>313.130283</ele>
        <time>2022-06-10T11:45:40.739Z</time>
      </trkpt>
      <trkpt lat="42.83183" lon="18.04022">
        <ele>313.550316</ele>
        <time>2022-06-10T11:45:43.706Z</time>
      </trkpt>
      <trkpt lat="42.8319" lon="18.04009">
        <ele>313.895218</ele>
        <time>2022-06-10T11:45:46.788Z</time>
      </trkpt>
      <trkpt lat="42.83198" lon="18.03995">
        <ele>313.761397</ele>
        <time>2022-06-10T11:45:49.717Z</time>
      </trkpt>
      <trkpt lat="42.83205" lon="18.0398">
        <ele>313.624821</ele>
        <time>2022-06-10T11:45:52.726Z</time>
      </trkpt>
      <trkpt lat="42.83212" lon="18.03966">
        <ele>313.494078</ele>
        <time>2022-06-10T11:45:55.723Z</time>
      </trkpt>
      <trkpt lat="42.83219" lon="18.03953">
        <ele>313.367703</ele>
        <time>2022-06-10T11:45:58.703Z</time>
      </trkpt>
      <trkpt lat="42.83227" lon="18.0394">
        <ele>313.242379</ele>
        <time>2022-06-10T11:46:01.718Z</time>
      </trkpt>
      <trkpt lat="42.83235" lon="18.03928">
        <ele>313.11223</ele>
        <time>2022-06-10T11:46:04.780Z</time>
      </trkpt>
      <trkpt lat="42.83244" lon="18.03915">
        <ele>312.974043</ele>
        <time>2022-06-10T11:46:07.731Z</time>
      </trkpt>
      <trkpt lat="42.83254" lon="18.03904">
        <ele>312.836666</ele>
        <time>2022-06-10T11:46:10.701Z</time>
      </trkpt>
      <trkpt lat="42.83265" lon="18.03895">
        <ele>312.705946</ele>
        <time>2022-06-10T11:46:13.699Z</time>
      </trkpt>
      <trkpt lat="42.83276" lon="18.03888">
        <ele>312.576509</ele>
        <time>2022-06-10T11:46:16.708Z</time>
      </trkpt>
      <trkpt lat="42.83287" lon="18.03881">
        <ele>312.445239</ele>
        <time>2022-06-10T11:46:19.708Z</time>
      </trkpt>
      <trkpt lat="42.83299" lon="18.03873">
        <ele>312.31288</ele>
        <time>2022-06-10T11:46:22.707Z</time>
      </trkpt>
      <trkpt lat="42.83309" lon="18.03864">
        <ele>312.181639</ele>
        <time>2022-06-10T11:46:25.724Z</time>
      </trkpt>
      <trkpt lat="42.83319" lon="18.03855">
        <ele>312.056346</ele>
        <time>2022-06-10T11:46:28.710Z</time>
      </trkpt>
      <trkpt lat="42.83328" lon="18.03844">
        <ele>312.058557</ele>
        <time>2022-06-10T11:46:31.716Z</time>
      </trkpt>
      <trkpt lat="42.83335" lon="18.03832">
        <ele>312.114941</ele>
        <time>2022-06-10T11:46:34.746Z</time>
      </trkpt>
      <trkpt lat="42.83343" lon="18.03818">
        <ele>312.174069</ele>
        <time>2022-06-10T11:46:37.723Z</time>
      </trkpt>
      <trkpt lat="42.83351" lon="18.03805">
        <ele>312.232809</ele>
        <time>2022-06-10T11:46:40.736Z</time>
      </trkpt>
      <trkpt lat="42.83357" lon="18.03789">
        <ele>312.293162</ele>
        <time>2022-06-10T11:46:43.705Z</time>
      </trkpt>
      <trkpt lat="42.83362" lon="18.03773">
        <ele>312.353012</ele>
        <time>2022-06-10T11:46:46.707Z</time>
      </trkpt>
      <trkpt lat="42.83366" lon="18.03757">
        <ele>312.412845</ele>
        <time>2022-06-10T11:46:49.696Z</time>
      </trkpt>
      <trkpt lat="42.8337" lon="18.03742">
        <ele>312.467362</ele>
        <time>2022-06-10T11:46:52.698Z</time>
      </trkpt>
      <trkpt lat="42.83375" lon="18.03726">
        <ele>312.528517</ele>
        <time>2022-06-10T11:46:55.719Z</time>
      </trkpt>
      <trkpt lat="42.83379" lon="18.03714">
        <ele>312.57094</ele>
        <time>2022-06-10T11:46:57.747Z</time>
      </trkpt>
      <trkpt lat="42.83382" lon="18.03697">
        <ele>312.631994</ele>
        <time>2022-06-10T11:47:00.714Z</time>
      </trkpt>
      <trkpt lat="42.83384" lon="18.03685">
        <ele>312.674168</ele>
        <time>2022-06-10T11:47:02.717Z</time>
      </trkpt>
      <trkpt lat="42.83387" lon="18.03667">
        <ele>312.736473</ele>
        <time>2022-06-10T11:47:05.715Z</time>
      </trkpt>
      <trkpt lat="42.83389" lon="18.0365">
        <ele>312.795438</ele>
        <time>2022-06-10T11:47:08.686Z</time>
      </trkpt>
      <trkpt lat="42.83392" lon="18.03634">
        <ele>312.853837</ele>
        <time>2022-06-10T11:47:11.711Z</time>
      </trkpt>
      <trkpt lat="42.83395" lon="18.03618">
        <ele>312.98406</ele>
        <time>2022-06-10T11:47:14.740Z</time>
      </trkpt>
      <trkpt lat="42.83397" lon="18.03602">
        <ele>313.134714</ele>
        <time>2022-06-10T11:47:17.712Z</time>
      </trkpt>
      <trkpt lat="42.834" lon="18.03586">
        <ele>313.287412</ele>
        <time>2022-06-10T11:47:20.699Z</time>
      </trkpt>
      <trkpt lat="42.83401" lon="18.0357">
        <ele>313.438095</ele>
        <time>2022-06-10T11:47:23.719Z</time>
      </trkpt>
      <trkpt lat="42.83404" lon="18.03554">
        <ele>313.58386</ele>
        <time>2022-06-10T11:47:26.713Z</time>
      </trkpt>
      <trkpt lat="42.83407" lon="18.03538">
        <ele>313.737743</ele>
        <time>2022-06-10T11:47:29.722Z</time>
      </trkpt>
      <trkpt lat="42.83411" lon="18.03523">
        <ele>313.884371</ele>
        <time>2022-06-10T11:47:32.732Z</time>
      </trkpt>
      <trkpt lat="42.83415" lon="18.03508">
        <ele>314.034006</ele>
        <time>2022-06-10T11:47:35.703Z</time>
      </trkpt>
      <trkpt lat="42.83421" lon="18.03493">
        <ele>314.183633</ele>
        <time>2022-06-10T11:47:38.727Z</time>
      </trkpt>
      <trkpt lat="42.83427" lon="18.03479">
        <ele>314.332119</ele>
        <time>2022-06-10T11:47:41.715Z</time>
      </trkpt>
      <trkpt lat="42.83433" lon="18.03466">
        <ele>314.478421</ele>
        <time>2022-06-10T11:47:44.724Z</time>
      </trkpt>
      <trkpt lat="42.83439" lon="18.03451">
        <ele>314.632946</ele>
        <time>2022-06-10T11:47:47.759Z</time>
      </trkpt>
      <trkpt lat="42.83446" lon="18.03436">
        <ele>314.793928</ele>
        <time>2022-06-10T11:47:50.702Z</time>
      </trkpt>
      <trkpt lat="42.83452" lon="18.03422">
        <ele>314.949059</ele>
        <time>2022-06-10T11:47:53.737Z</time>
      </trkpt>
      <trkpt lat="42.83458" lon="18.03406">
        <ele>315.112837</ele>
        <time>2022-06-10T11:47:56.707Z</time>
      </trkpt>
      <trkpt lat="42.83463" lon="18.0339">
        <ele>314.973055</ele>
        <time>2022-06-10T11:47:59.730Z</time>
      </trkpt>
      <trkpt lat="42.83466" lon="18.03374">
        <ele>314.831316</ele>
        <time>2022-06-10T11:48:02.712Z</time>
      </trkpt>
      <trkpt lat="42.83469" lon="18.03358">
        <ele>314.688241</ele>
        <time>2022-06-10T11:48:05.746Z</time>
      </trkpt>
      <trkpt lat="42.83471" lon="18.0334">
        <ele>314.536562</ele>
        <time>2022-06-10T11:48:08.728Z</time>
      </trkpt>
      <trkpt lat="42.83473" lon="18.03322">
        <ele>314.383553</ele>
        <time>2022-06-10T11:48:11.719Z</time>
      </trkpt>
      <trkpt lat="42.83475" lon="18.03305">
        <ele>314.234078</ele>
        <time>2022-06-10T11:48:14.712Z</time>
      </trkpt>
      <trkpt lat="42.83477" lon="18.03288">
        <ele>314.088865</ele>
        <time>2022-06-10T11:48:17.708Z</time>
      </trkpt>
      <trkpt lat="42.83479" lon="18.03271">
        <ele>313.940706</ele>
        <time>2022-06-10T11:48:20.711Z</time>
      </trkpt>
      <trkpt lat="42.83482" lon="18.03254">
        <ele>313.796263</ele>
        <time>2022-06-10T11:48:23.727Z</time>
      </trkpt>
      <trkpt lat="42.83484" lon="18.03238">
        <ele>313.651667</ele>
        <time>2022-06-10T11:48:26.705Z</time>
      </trkpt>
      <trkpt lat="42.83486" lon="18.03221">
        <ele>313.504989</ele>
        <time>2022-06-10T11:48:29.720Z</time>
      </trkpt>
      <trkpt lat="42.83489" lon="18.03204">
        <ele>313.356419</ele>
        <time>2022-06-10T11:48:32.704Z</time>
      </trkpt>
      <trkpt lat="42.83493" lon="18.03187">
        <ele>313.210372</ele>
        <time>2022-06-10T11:48:35.728Z</time>
      </trkpt>
      <trkpt lat="42.83498" lon="18.03172">
        <ele>313.069869</ele>
        <time>2022-06-10T11:48:38.751Z</time>
      </trkpt>
      <trkpt lat="42.83503" lon="18.03158">
        <ele>313.036151</ele>
        <time>2022-06-10T11:48:41.723Z</time>
      </trkpt>
      <trkpt lat="42.8351" lon="18.03144">
        <ele>313.042387</ele>
        <time>2022-06-10T11:48:44.699Z</time>
      </trkpt>
      <trkpt lat="42.83517" lon="18.03131">
        <ele>313.048445</ele>
        <time>2022-06-10T11:48:47.711Z</time>
      </trkpt>
      <trkpt lat="42.83523" lon="18.0312">
        <ele>313.053989</ele>
        <time>2022-06-10T11:48:50.706Z</time>
      </trkpt>
      <trkpt lat="42.83532" lon="18.03109">
        <ele>313.060119</ele>
        <time>2022-06-10T11:48:53.723Z</time>
      </trkpt>
      <trkpt lat="42.83541" lon="18.03096">
        <ele>313.06699</ele>
        <time>2022-06-10T11:48:56.726Z</time>
      </trkpt>
      <trkpt lat="42.83551" lon="18.03086">
        <ele>313.073261</ele>
        <time>2022-06-10T11:48:59.708Z</time>
      </trkpt>
      <trkpt lat="42.83561" lon="18.03077">
        <ele>313.079937</ele>
        <time>2022-06-10T11:49:02.706Z</time>
      </trkpt>
      <trkpt lat="42.83571" lon="18.03067">
        <ele>313.086098</ele>
        <time>2022-06-10T11:49:05.726Z</time>
      </trkpt>
      <trkpt lat="42.83579" lon="18.03058">
        <ele>313.091608</ele>
        <time>2022-06-10T11:49:08.716Z</time>
      </trkpt>
      <trkpt lat="42.83587" lon="18.0305">
        <ele>313.096835</ele>
        <time>2022-06-10T11:49:11.708Z</time>
      </trkpt>
      <trkpt lat="42.83596" lon="18.03039">
        <ele>313.10318</ele>
        <time>2022-06-10T11:49:14.725Z</time>
      </trkpt>
      <trkpt lat="42.83606" lon="18.03028">
        <ele>313.109873</ele>
        <time>2022-06-10T11:49:17.742Z</time>
      </trkpt>
      <trkpt lat="42.83614" lon="18.03016">
        <ele>313.115885</ele>
        <time>2022-06-10T11:49:20.711Z</time>
      </trkpt>
      <trkpt lat="42.83623" lon="18.03004">
        <ele>313.122472</ele>
        <time>2022-06-10T11:49:23.739Z</time>
      </trkpt>
      <trkpt lat="42.83629" lon="18.02995">
        <ele>313.113305</ele>
        <time>2022-06-10T11:49:25.694Z</time>
      </trkpt>
      <trkpt lat="42.83636" lon="18.02986">
        <ele>313.076437</ele>
        <time>2022-06-10T11:49:27.715Z</time>
      </trkpt>
      <trkpt lat="42.83644" lon="18.02974">
        <ele>313.028778</ele>
        <time>2022-06-10T11:49:30.716Z</time>
      </trkpt>
      <trkpt lat="42.83652" lon="18.0296">
        <ele>312.975983</ele>
        <time>2022-06-10T11:49:33.703Z</time>
      </trkpt>
      <trkpt lat="42.83659" lon="18.02952">
        <ele>312.939019</ele>
        <time>2022-06-10T11:49:35.710Z</time>
      </trkpt>
      <trkpt lat="42.8367" lon="18.0294">
        <ele>312.885971</ele>
        <time>2022-06-10T11:49:38.711Z</time>
      </trkpt>
      <trkpt lat="42.83678" lon="18.02927">
        <ele>312.83404</ele>
        <time>2022-06-10T11:49:41.702Z</time>
      </trkpt>
      <trkpt lat="42.83686" lon="18.02912">
        <ele>312.78084</ele>
        <time>2022-06-10T11:49:44.700Z</time>
      </trkpt>
      <trkpt lat="42.83695" lon="18.029">
        <ele>312.730117</ele>
        <time>2022-06-10T11:49:47.703Z</time>
      </trkpt>
      <trkpt lat="42.83705" lon="18.02887">
        <ele>312.677107</ele>
        <time>2022-06-10T11:49:50.726Z</time>
      </trkpt>
      <trkpt lat="42.83714" lon="18.02876">
        <ele>312.626332</ele>
        <time>2022-06-10T11:49:53.699Z</time>
      </trkpt>
      <trkpt lat="42.83724" lon="18.02867">
        <ele>312.580926</ele>
        <time>2022-06-10T11:49:56.711Z</time>
      </trkpt>
      <trkpt lat="42.83733" lon="18.02857">
        <ele>312.532237</ele>
        <time>2022-06-10T11:49:59.729Z</time>
      </trkpt>
      <trkpt lat="42.83743" lon="18.02849">
        <ele>312.487076</ele>
        <time>2022-06-10T11:50:02.717Z</time>
      </trkpt>
      <trkpt lat="42.83754" lon="18.02842">
        <ele>312.439764</ele>
        <time>2022-06-10T11:50:05.723Z</time>
      </trkpt>
      <trkpt lat="42.83764" lon="18.02835">
        <ele>312.505322</ele>
        <time>2022-06-10T11:50:08.710Z</time>
      </trkpt>
      <trkpt lat="42.83776" lon="18.02829">
        <ele>312.792203</ele>
        <time>2022-06-10T11:50:11.707Z</time>
      </trkpt>
      <trkpt lat="42.83788" lon="18.02824">
        <ele>313.075811</ele>
        <time>2022-06-10T11:50:14.764Z</time>
      </trkpt>
      <trkpt lat="42.83799" lon="18.0282">
        <ele>313.342287</ele>
        <time>2022-06-10T11:50:17.719Z</time>
      </trkpt>
      <trkpt lat="42.83811" lon="18.02815">
        <ele>313.641707</ele>
        <time>2022-06-10T11:50:20.711Z</time>
      </trkpt>
      <trkpt lat="42.83822" lon="18.0281">
        <ele>313.915458</ele>
        <time>2022-06-10T11:50:23.710Z</time>
      </trkpt>
      <trkpt lat="42.83834" lon="18.02804">
        <ele>314.210469</ele>
        <time>2022-06-10T11:50:26.730Z</time>
      </trkpt>
      <trkpt lat="42.83843" lon="18.02799">
        <ele>314.421417</ele>
        <time>2022-06-10T11:50:28.716Z</time>
      </trkpt>
      <trkpt lat="42.83851" lon="18.02793">
        <ele>314.63501</ele>
        <time>2022-06-10T11:50:30.706Z</time>
      </trkpt>
      <trkpt lat="42.83859" lon="18.02787">
        <ele>314.844954</ele>
        <time>2022-06-10T11:50:32.703Z</time>
      </trkpt>
      <trkpt lat="42.83867" lon="18.02781">
        <ele>315.064473</ele>
        <time>2022-06-10T11:50:34.715Z</time>
      </trkpt>
      <trkpt lat="42.83874" lon="18.02774">
        <ele>315.273158</ele>
        <time>2022-06-10T11:50:36.741Z</time>
      </trkpt>
      <trkpt lat="42.83882" lon="18.02765">
        <ele>315.494482</ele>
        <time>2022-06-10T11:50:38.697Z</time>
      </trkpt>
      <trkpt lat="42.83888" lon="18.02757">
        <ele>315.709379</ele>
        <time>2022-06-10T11:50:40.703Z</time>
      </trkpt>
      <trkpt lat="42.83897" lon="18.02743">
        <ele>316.01564</ele>
        <time>2022-06-10T11:50:43.710Z</time>
      </trkpt>
      <trkpt lat="42.83904" lon="18.02734">
        <ele>316.232021</ele>
        <time>2022-06-10T11:50:45.718Z</time>
      </trkpt>
      <trkpt lat="42.8391" lon="18.02724">
        <ele>316.446158</ele>
        <time>2022-06-10T11:50:47.755Z</time>
      </trkpt>
      <trkpt lat="42.83917" lon="18.02712">
        <ele>316.564865</ele>
        <time>2022-06-10T11:50:50.722Z</time>
      </trkpt>
      <trkpt lat="42.83925" lon="18.02698">
        <ele>316.538167</ele>
        <time>2022-06-10T11:50:53.712Z</time>
      </trkpt>
      <trkpt lat="42.83933" lon="18.02686">
        <ele>316.513646</ele>
        <time>2022-06-10T11:50:56.703Z</time>
      </trkpt>
      <trkpt lat="42.83941" lon="18.02676">
        <ele>316.490425</ele>
        <time>2022-06-10T11:50:59.707Z</time>
      </trkpt>
      <trkpt lat="42.83949" lon="18.02665">
        <ele>316.466277</ele>
        <time>2022-06-10T11:51:02.708Z</time>
      </trkpt>
      <trkpt lat="42.83958" lon="18.02656">
        <ele>316.442592</ele>
        <time>2022-06-10T11:51:05.716Z</time>
      </trkpt>
      <trkpt lat="42.83968" lon="18.02646">
        <ele>316.418061</ele>
        <time>2022-06-10T11:51:09.737Z</time>
      </trkpt>
      <trkpt lat="42.83977" lon="18.02639">
        <ele>316.396281</ele>
        <time>2022-06-10T11:51:12.710Z</time>
      </trkpt>
      <trkpt lat="42.83988" lon="18.0263">
        <ele>316.370073</ele>
        <time>2022-06-10T11:51:15.742Z</time>
      </trkpt>
      <trkpt lat="42.83999" lon="18.02623">
        <ele>316.344293</ele>
        <time>2022-06-10T11:51:18.717Z</time>
      </trkpt>
      <trkpt lat="42.84011" lon="18.02619">
        <ele>316.317864</ele>
        <time>2022-06-10T11:51:21.739Z</time>
      </trkpt>
      <trkpt lat="42.84024" lon="18.02616">
        <ele>316.291317</ele>
        <time>2022-06-10T11:51:24.708Z</time>
      </trkpt>
      <trkpt lat="42.84036" lon="18.02615">
        <ele>316.264564</ele>
        <time>2022-06-10T11:51:27.743Z</time>
      </trkpt>
      <trkpt lat="42.84046" lon="18.02614">
        <ele>316.245508</ele>
        <time>2022-06-10T11:51:29.711Z</time>
      </trkpt>
      <trkpt lat="42.84059" lon="18.02613">
        <ele>316.217705</ele>
        <time>2022-06-10T11:51:32.724Z</time>
      </trkpt>
      <trkpt lat="42.84072" lon="18.02613">
        <ele>315.959411</ele>
        <time>2022-06-10T11:51:35.711Z</time>
      </trkpt>
      <trkpt lat="42.84084" lon="18.02612">
        <ele>315.388457</ele>
        <time>2022-06-10T11:51:38.707Z</time>
      </trkpt>
      <trkpt lat="42.84097" lon="18.02612">
        <ele>314.818246</ele>
        <time>2022-06-10T11:51:41.704Z</time>
      </trkpt>
      <trkpt lat="42.8411" lon="18.02611">
        <ele>314.242772</ele>
        <time>2022-06-10T11:51:44.711Z</time>
      </trkpt>
      <trkpt lat="42.84122" lon="18.02609">
        <ele>313.686726</ele>
        <time>2022-06-10T11:51:47.721Z</time>
      </trkpt>
      <trkpt lat="42.84134" lon="18.02604">
        <ele>313.092105</ele>
        <time>2022-06-10T11:51:50.746Z</time>
      </trkpt>
      <trkpt lat="42.84146" lon="18.02597">
        <ele>312.519493</ele>
        <time>2022-06-10T11:51:53.715Z</time>
      </trkpt>
      <trkpt lat="42.84157" lon="18.02587">
        <ele>311.945523</ele>
        <time>2022-06-10T11:51:56.748Z</time>
      </trkpt>
      <trkpt lat="42.84166" lon="18.02575">
        <ele>311.356242</ele>
        <time>2022-06-10T11:51:59.718Z</time>
      </trkpt>
      <trkpt lat="42.84175" lon="18.02562">
        <ele>310.755078</ele>
        <time>2022-06-10T11:52:02.717Z</time>
      </trkpt>
      <trkpt lat="42.84182" lon="18.02553">
        <ele>310.340624</ele>
        <time>2022-06-10T11:52:04.707Z</time>
      </trkpt>
      <trkpt lat="42.84188" lon="18.02544">
        <ele>309.919843</ele>
        <time>2022-06-10T11:52:06.740Z</time>
      </trkpt>
      <trkpt lat="42.84197" lon="18.02531">
        <ele>309.32396</ele>
        <time>2022-06-10T11:52:09.720Z</time>
      </trkpt>
      <trkpt lat="42.84203" lon="18.02522">
        <ele>308.911106</ele>
        <time>2022-06-10T11:52:11.714Z</time>
      </trkpt>
      <trkpt lat="42.8421" lon="18.02513">
        <ele>308.483217</ele>
        <time>2022-06-10T11:52:13.736Z</time>
      </trkpt>
      <trkpt lat="42.84217" lon="18.02504">
        <ele>308.062393</ele>
        <time>2022-06-10T11:52:15.715Z</time>
      </trkpt>
      <trkpt lat="42.84227" lon="18.02492">
        <ele>308.003829</ele>
        <time>2022-06-10T11:52:18.728Z</time>
      </trkpt>
      <trkpt lat="42.84235" lon="18.02485">
        <ele>307.964202</ele>
        <time>2022-06-10T11:52:20.728Z</time>
      </trkpt>
      <trkpt lat="42.84244" lon="18.02479">
        <ele>307.922615</ele>
        <time>2022-06-10T11:52:22.703Z</time>
      </trkpt>
      <trkpt lat="42.84252" lon="18.02474">
        <ele>307.88074</ele>
        <time>2022-06-10T11:52:24.717Z</time>
      </trkpt>
      <trkpt lat="42.84261" lon="18.02468">
        <ele>307.839779</ele>
        <time>2022-06-10T11:52:26.703Z</time>
      </trkpt>
      <trkpt lat="42.8427" lon="18.02464">
        <ele>307.799315</ele>
        <time>2022-06-10T11:52:28.738Z</time>
      </trkpt>
      <trkpt lat="42.84278" lon="18.02459">
        <ele>307.759886</ele>
        <time>2022-06-10T11:52:30.707Z</time>
      </trkpt>
      <trkpt lat="42.84287" lon="18.02454">
        <ele>307.719446</ele>
        <time>2022-06-10T11:52:32.710Z</time>
      </trkpt>
      <trkpt lat="42.84295" lon="18.02449">
        <ele>307.680362</ele>
        <time>2022-06-10T11:52:34.729Z</time>
      </trkpt>
      <trkpt lat="42.84305" lon="18.02445">
        <ele>307.638532</ele>
        <time>2022-06-10T11:52:36.717Z</time>
      </trkpt>
      <trkpt lat="42.84313" lon="18.0244">
        <ele>307.598188</ele>
        <time>2022-06-10T11:52:38.699Z</time>
      </trkpt>
      <trkpt lat="42.84322" lon="18.02435">
        <ele>307.558408</ele>
        <time>2022-06-10T11:52:40.708Z</time>
      </trkpt>
      <trkpt lat="42.84331" lon="18.02432">
        <ele>307.518344</ele>
        <time>2022-06-10T11:52:42.704Z</time>
      </trkpt>
      <trkpt lat="42.8434" lon="18.02428">
        <ele>307.476834</ele>
        <time>2022-06-10T11:52:44.710Z</time>
      </trkpt>
      <trkpt lat="42.84349" lon="18.02423">
        <ele>307.435692</ele>
        <time>2022-06-10T11:52:46.757Z</time>
      </trkpt>
      <trkpt lat="42.84357" lon="18.02418">
        <ele>307.396165</ele>
        <time>2022-06-10T11:52:48.709Z</time>
      </trkpt>
      <trkpt lat="42.84369" lon="18.0241">
        <ele>307.338879</ele>
        <time>2022-06-10T11:52:51.717Z</time>
      </trkpt>
      <trkpt lat="42.84377" lon="18.02403">
        <ele>307.299977</ele>
        <time>2022-06-10T11:52:53.716Z</time>
      </trkpt>
      <trkpt lat="42.84387" lon="18.02392">
        <ele>307.173862</ele>
        <time>2022-06-10T11:52:56.771Z</time>
      </trkpt>
      <trkpt lat="42.84397" lon="18.0238">
        <ele>307.028274</ele>
        <time>2022-06-10T11:52:59.717Z</time>
      </trkpt>
      <trkpt lat="42.84404" lon="18.02371">
        <ele>306.926834</ele>
        <time>2022-06-10T11:53:01.711Z</time>
      </trkpt>
      <trkpt lat="42.8441" lon="18.02361">
        <ele>306.827086</ele>
        <time>2022-06-10T11:53:03.755Z</time>
      </trkpt>
      <trkpt lat="42.84415" lon="18.02351">
        <ele>306.726034</ele>
        <time>2022-06-10T11:53:05.707Z</time>
      </trkpt>
      <trkpt lat="42.84422" lon="18.02342">
        <ele>306.624083</ele>
        <time>2022-06-10T11:53:07.729Z</time>
      </trkpt>
      <trkpt lat="42.84427" lon="18.02332">
        <ele>306.52564</ele>
        <time>2022-06-10T11:53:09.732Z</time>
      </trkpt>
      <trkpt lat="42.84433" lon="18.02323">
        <ele>306.427735</ele>
        <time>2022-06-10T11:53:11.712Z</time>
      </trkpt>
      <trkpt lat="42.84439" lon="18.02313">
        <ele>306.328519</ele>
        <time>2022-06-10T11:53:13.720Z</time>
      </trkpt>
      <trkpt lat="42.84448" lon="18.02299">
        <ele>306.183665</ele>
        <time>2022-06-10T11:53:16.711Z</time>
      </trkpt>
      <trkpt lat="42.84456" lon="18.02286">
        <ele>306.044573</ele>
        <time>2022-06-10T11:53:19.723Z</time>
      </trkpt>
      <trkpt lat="42.84461" lon="18.02276">
        <ele>305.94681</ele>
        <time>2022-06-10T11:53:21.764Z</time>
      </trkpt>
      <trkpt lat="42.84467" lon="18.02267">
        <ele>305.846985</ele>
        <time>2022-06-10T11:53:23.709Z</time>
      </trkpt>
      <trkpt lat="42.84475" lon="18.02252">
        <ele>305.703023</ele>
        <time>2022-06-10T11:53:26.735Z</time>
      </trkpt>
      <trkpt lat="42.84484" lon="18.02239">
        <ele>305.557753</ele>
        <time>2022-06-10T11:53:29.732Z</time>
      </trkpt>
      <trkpt lat="42.84492" lon="18.02225">
        <ele>305.414957</ele>
        <time>2022-06-10T11:53:32.704Z</time>
      </trkpt>
      <trkpt lat="42.845" lon="18.02212">
        <ele>305.411739</ele>
        <time>2022-06-10T11:53:35.709Z</time>
      </trkpt>
      <trkpt lat="42.84508" lon="18.02198">
        <ele>305.599023</ele>
        <time>2022-06-10T11:53:38.719Z</time>
      </trkpt>
      <trkpt lat="42.84516" lon="18.02186">
        <ele>305.781951</ele>
        <time>2022-06-10T11:53:41.706Z</time>
      </trkpt>
      <trkpt lat="42.84526" lon="18.02174">
        <ele>305.970942</ele>
        <time>2022-06-10T11:53:44.711Z</time>
      </trkpt>
      <trkpt lat="42.84536" lon="18.02163">
        <ele>306.168416</ele>
        <time>2022-06-10T11:53:47.732Z</time>
      </trkpt>
      <trkpt lat="42.84546" lon="18.02152">
        <ele>306.364905</ele>
        <time>2022-06-10T11:53:50.728Z</time>
      </trkpt>
      <trkpt lat="42.84558" lon="18.02144">
        <ele>306.559429</ele>
        <time>2022-06-10T11:53:53.719Z</time>
      </trkpt>
      <trkpt lat="42.84569" lon="18.02136">
        <ele>306.750521</ele>
        <time>2022-06-10T11:53:56.712Z</time>
      </trkpt>
      <trkpt lat="42.84581" lon="18.02129">
        <ele>306.939757</ele>
        <time>2022-06-10T11:53:59.722Z</time>
      </trkpt>
      <trkpt lat="42.84593" lon="18.02123">
        <ele>307.137368</ele>
        <time>2022-06-10T11:54:02.713Z</time>
      </trkpt>
      <trkpt lat="42.84605" lon="18.02118">
        <ele>307.32423</ele>
        <time>2022-06-10T11:54:05.749Z</time>
      </trkpt>
      <trkpt lat="42.84618" lon="18.02116">
        <ele>307.513784</ele>
        <time>2022-06-10T11:54:08.707Z</time>
      </trkpt>
      <trkpt lat="42.84627" lon="18.02113">
        <ele>307.65463</ele>
        <time>2022-06-10T11:54:10.733Z</time>
      </trkpt>
      <trkpt lat="42.84636" lon="18.0211">
        <ele>307.791805</ele>
        <time>2022-06-10T11:54:12.723Z</time>
      </trkpt>
      <trkpt lat="42.84644" lon="18.02107">
        <ele>307.928621</ele>
        <time>2022-06-10T11:54:14.732Z</time>
      </trkpt>
      <trkpt lat="42.84653" lon="18.02102">
        <ele>307.986688</ele>
        <time>2022-06-10T11:54:16.712Z</time>
      </trkpt>
      <trkpt lat="42.84661" lon="18.02097">
        <ele>307.816665</ele>
        <time>2022-06-10T11:54:18.717Z</time>
      </trkpt>
      <trkpt lat="42.84669" lon="18.02091">
        <ele>307.649592</ele>
        <time>2022-06-10T11:54:20.724Z</time>
      </trkpt>
      <trkpt lat="42.84677" lon="18.02084">
        <ele>307.484079</ele>
        <time>2022-06-10T11:54:22.704Z</time>
      </trkpt>
      <trkpt lat="42.84687" lon="18.02074">
        <ele>307.255144</ele>
        <time>2022-06-10T11:54:25.707Z</time>
      </trkpt>
      <trkpt lat="42.84695" lon="18.02062">
        <ele>307.034692</ele>
        <time>2022-06-10T11:54:28.717Z</time>
      </trkpt>
      <trkpt lat="42.84703" lon="18.02049">
        <ele>306.805068</ele>
        <time>2022-06-10T11:54:31.719Z</time>
      </trkpt>
      <trkpt lat="42.84713" lon="18.02037">
        <ele>306.569466</ele>
        <time>2022-06-10T11:54:34.710Z</time>
      </trkpt>
      <trkpt lat="42.84721" lon="18.02025">
        <ele>306.343554</ele>
        <time>2022-06-10T11:54:37.722Z</time>
      </trkpt>
      <trkpt lat="42.8473" lon="18.02013">
        <ele>306.115607</ele>
        <time>2022-06-10T11:54:40.711Z</time>
      </trkpt>
      <trkpt lat="42.84738" lon="18.02001">
        <ele>305.898871</ele>
        <time>2022-06-10T11:54:43.713Z</time>
      </trkpt>
      <trkpt lat="42.84745" lon="18.01988">
        <ele>305.67493</ele>
        <time>2022-06-10T11:54:46.731Z</time>
      </trkpt>
      <trkpt lat="42.84753" lon="18.01974">
        <ele>305.437025</ele>
        <time>2022-06-10T11:54:49.712Z</time>
      </trkpt>
      <trkpt lat="42.8476" lon="18.0196">
        <ele>305.20996</ele>
        <time>2022-06-10T11:54:52.707Z</time>
      </trkpt>
      <trkpt lat="42.84767" lon="18.01946">
        <ele>304.984985</ele>
        <time>2022-06-10T11:54:55.744Z</time>
      </trkpt>
      <trkpt lat="42.84773" lon="18.01931">
        <ele>304.750713</ele>
        <time>2022-06-10T11:54:58.754Z</time>
      </trkpt>
      <trkpt lat="42.84779" lon="18.01916">
        <ele>304.943529</ele>
        <time>2022-06-10T11:55:01.714Z</time>
      </trkpt>
      <trkpt lat="42.84787" lon="18.01901">
        <ele>305.198421</ele>
        <time>2022-06-10T11:55:04.703Z</time>
      </trkpt>
      <trkpt lat="42.84794" lon="18.01888">
        <ele>305.435713</ele>
        <time>2022-06-10T11:55:07.737Z</time>
      </trkpt>
      <trkpt lat="42.84803" lon="18.01876">
        <ele>305.683009</ele>
        <time>2022-06-10T11:55:10.724Z</time>
      </trkpt>
      <trkpt lat="42.84813" lon="18.01865">
        <ele>305.930215</ele>
        <time>2022-06-10T11:55:13.762Z</time>
      </trkpt>
      <trkpt lat="42.84824" lon="18.01856">
        <ele>306.171639</ele>
        <time>2022-06-10T11:55:16.717Z</time>
      </trkpt>
      <trkpt lat="42.84835" lon="18.01846">
        <ele>306.427043</ele>
        <time>2022-06-10T11:55:19.707Z</time>
      </trkpt>
      <trkpt lat="42.84845" lon="18.01835">
        <ele>306.683637</ele>
        <time>2022-06-10T11:55:22.747Z</time>
      </trkpt>
      <trkpt lat="42.84855" lon="18.01825">
        <ele>306.929601</ele>
        <time>2022-06-10T11:55:25.711Z</time>
      </trkpt>
      <trkpt lat="42.84866" lon="18.01814">
        <ele>307.184474</ele>
        <time>2022-06-10T11:55:28.720Z</time>
      </trkpt>
      <trkpt lat="42.84876" lon="18.01804">
        <ele>307.429594</ele>
        <time>2022-06-10T11:55:31.748Z</time>
      </trkpt>
      <trkpt lat="42.84887" lon="18.01793">
        <ele>307.685325</ele>
        <time>2022-06-10T11:55:34.715Z</time>
      </trkpt>
      <trkpt lat="42.84897" lon="18.01783">
        <ele>307.928885</ele>
        <time>2022-06-10T11:55:37.719Z</time>
      </trkpt>
      <trkpt lat="42.84907" lon="18.01772">
        <ele>308.177896</ele>
        <time>2022-06-10T11:55:40.703Z</time>
      </trkpt>
      <trkpt lat="42.84917" lon="18.01761">
        <ele>308.265465</ele>
        <time>2022-06-10T11:55:43.712Z</time>
      </trkpt>
      <trkpt lat="42.84927" lon="18.0175">
        <ele>308.326632</ele>
        <time>2022-06-10T11:55:46.736Z</time>
      </trkpt>
      <trkpt lat="42.84936" lon="18.01738">
        <ele>308.3859</ele>
        <time>2022-06-10T11:55:49.724Z</time>
      </trkpt>
      <trkpt lat="42.84945" lon="18.01725">
        <ele>308.446138</ele>
        <time>2022-06-10T11:55:52.716Z</time>
      </trkpt>
      <trkpt lat="42.84953" lon="18.01711">
        <ele>308.50875</ele>
        <time>2022-06-10T11:55:55.713Z</time>
      </trkpt>
      <trkpt lat="42.84961" lon="18.01696">
        <ele>308.568851</ele>
        <time>2022-06-10T11:55:58.712Z</time>
      </trkpt>
      <trkpt lat="42.84967" lon="18.01681">
        <ele>308.627898</ele>
        <time>2022-06-10T11:56:01.773Z</time>
      </trkpt>
      <trkpt lat="42.84973" lon="18.01666">
        <ele>308.687637</ele>
        <time>2022-06-10T11:56:04.722Z</time>
      </trkpt>
      <trkpt lat="42.84978" lon="18.0165">
        <ele>308.748301</ele>
        <time>2022-06-10T11:56:07.714Z</time>
      </trkpt>
      <trkpt lat="42.84984" lon="18.01634">
        <ele>308.808382</ele>
        <time>2022-06-10T11:56:10.725Z</time>
      </trkpt>
      <trkpt lat="42.84989" lon="18.01618">
        <ele>308.868525</ele>
        <time>2022-06-10T11:56:13.724Z</time>
      </trkpt>
      <trkpt lat="42.84994" lon="18.01608">
        <ele>308.910712</ele>
        <time>2022-06-10T11:56:15.707Z</time>
      </trkpt>
      <trkpt lat="42.85001" lon="18.01595">
        <ele>308.967483</ele>
        <time>2022-06-10T11:56:18.719Z</time>
      </trkpt>
      <trkpt lat="42.8501" lon="18.01582">
        <ele>309.028043</ele>
        <time>2022-06-10T11:56:21.708Z</time>
      </trkpt>
      <trkpt lat="42.85019" lon="18.01569">
        <ele>308.903507</ele>
        <time>2022-06-10T11:56:24.700Z</time>
      </trkpt>
      <trkpt lat="42.85028" lon="18.01557">
        <ele>308.614936</ele>
        <time>2022-06-10T11:56:27.730Z</time>
      </trkpt>
      <trkpt lat="42.85035" lon="18.01548">
        <ele>308.41443</ele>
        <time>2022-06-10T11:56:29.705Z</time>
      </trkpt>
      <trkpt lat="42.85044" lon="18.01535">
        <ele>308.119699</ele>
        <time>2022-06-10T11:56:32.726Z</time>
      </trkpt>
      <trkpt lat="42.85049" lon="18.01525">
        <ele>307.916775</ele>
        <time>2022-06-10T11:56:34.741Z</time>
      </trkpt>
      <trkpt lat="42.85056" lon="18.0151">
        <ele>307.62085</ele>
        <time>2022-06-10T11:56:37.715Z</time>
      </trkpt>
      <trkpt lat="42.85063" lon="18.01494">
        <ele>307.317813</ele>
        <time>2022-06-10T11:56:40.708Z</time>
      </trkpt>
      <trkpt lat="42.85069" lon="18.01477">
        <ele>307.023379</ele>
        <time>2022-06-10T11:56:43.705Z</time>
      </trkpt>
      <trkpt lat="42.85074" lon="18.01461">
        <ele>306.733823</ele>
        <time>2022-06-10T11:56:46.722Z</time>
      </trkpt>
      <trkpt lat="42.8508" lon="18.01445">
        <ele>306.444675</ele>
        <time>2022-06-10T11:56:49.705Z</time>
      </trkpt>
      <trkpt lat="42.85085" lon="18.01429">
        <ele>306.152683</ele>
        <time>2022-06-10T11:56:52.709Z</time>
      </trkpt>
      <trkpt lat="42.85092" lon="18.01414">
        <ele>305.857116</ele>
        <time>2022-06-10T11:56:55.716Z</time>
      </trkpt>
      <trkpt lat="42.85099" lon="18.01398">
        <ele>305.559803</ele>
        <time>2022-06-10T11:56:58.708Z</time>
      </trkpt>
      <trkpt lat="42.85107" lon="18.01384">
        <ele>305.264765</ele>
        <time>2022-06-10T11:57:01.713Z</time>
      </trkpt>
      <trkpt lat="42.85112" lon="18.01374">
        <ele>305.063243</ele>
        <time>2022-06-10T11:57:03.735Z</time>
      </trkpt>
      <trkpt lat="42.8512" lon="18.0136">
        <ele>304.935275</ele>
        <time>2022-06-10T11:57:06.702Z</time>
      </trkpt>
      <trkpt lat="42.85129" lon="18.01347">
        <ele>304.81719</ele>
        <time>2022-06-10T11:57:09.718Z</time>
      </trkpt>
      <trkpt lat="42.85139" lon="18.01334">
        <ele>304.697726</ele>
        <time>2022-06-10T11:57:12.736Z</time>
      </trkpt>
      <trkpt lat="42.85145" lon="18.01324">
        <ele>304.614351</ele>
        <time>2022-06-10T11:57:14.720Z</time>
      </trkpt>
      <trkpt lat="42.85151" lon="18.01316">
        <ele>304.532555</ele>
        <time>2022-06-10T11:57:16.717Z</time>
      </trkpt>
      <trkpt lat="42.85161" lon="18.01302">
        <ele>304.411989</ele>
        <time>2022-06-10T11:57:19.706Z</time>
      </trkpt>
      <trkpt lat="42.8517" lon="18.0129">
        <ele>304.295679</ele>
        <time>2022-06-10T11:57:22.715Z</time>
      </trkpt>
      <trkpt lat="42.85179" lon="18.01277">
        <ele>304.178394</ele>
        <time>2022-06-10T11:57:25.703Z</time>
      </trkpt>
      <trkpt lat="42.85188" lon="18.01265">
        <ele>304.06161</ele>
        <time>2022-06-10T11:57:28.752Z</time>
      </trkpt>
      <trkpt lat="42.85197" lon="18.01253">
        <ele>303.945893</ele>
        <time>2022-06-10T11:57:31.721Z</time>
      </trkpt>
      <trkpt lat="42.85204" lon="18.01244">
        <ele>303.862834</ele>
        <time>2022-06-10T11:57:33.709Z</time>
      </trkpt>
      <trkpt lat="42.8521" lon="18.01235">
        <ele>303.781168</ele>
        <time>2022-06-10T11:57:35.767Z</time>
      </trkpt>
      <trkpt lat="42.85216" lon="18.01226">
        <ele>303.698663</ele>
        <time>2022-06-10T11:57:37.717Z</time>
      </trkpt>
      <trkpt lat="42.85222" lon="18.01216">
        <ele>303.617349</ele>
        <time>2022-06-10T11:57:39.702Z</time>
      </trkpt>
      <trkpt lat="42.85228" lon="18.01208">
        <ele>303.535553</ele>
        <time>2022-06-10T11:57:41.714Z</time>
      </trkpt>
      <trkpt lat="42.85237" lon="18.01194">
        <ele>303.462728</ele>
        <time>2022-06-10T11:57:44.724Z</time>
      </trkpt>
      <trkpt lat="42.85242" lon="18.01183">
        <ele>303.711865</ele>
        <time>2022-06-10T11:57:46.753Z</time>
      </trkpt>
      <trkpt lat="42.85249" lon="18.01168">
        <ele>304.066939</ele>
        <time>2022-06-10T11:57:49.737Z</time>
      </trkpt>
      <trkpt lat="42.85254" lon="18.01152">
        <ele>304.415053</ele>
        <time>2022-06-10T11:57:52.747Z</time>
      </trkpt>
      <trkpt lat="42.85259" lon="18.01136">
        <ele>304.76905</ele>
        <time>2022-06-10T11:57:55.725Z</time>
      </trkpt>
      <trkpt lat="42.85263" lon="18.0112">
        <ele>305.108591</ele>
        <time>2022-06-10T11:57:58.712Z</time>
      </trkpt>
      <trkpt lat="42.85264" lon="18.01104">
        <ele>305.437465</ele>
        <time>2022-06-10T11:58:01.698Z</time>
      </trkpt>
      <trkpt lat="42.85266" lon="18.01087">
        <ele>305.779261</ele>
        <time>2022-06-10T11:58:04.706Z</time>
      </trkpt>
      <trkpt lat="42.85267" lon="18.0107">
        <ele>306.121824</ele>
        <time>2022-06-10T11:58:07.710Z</time>
      </trkpt>
      <trkpt lat="42.85268" lon="18.01054">
        <ele>306.441496</ele>
        <time>2022-06-10T11:58:10.709Z</time>
      </trkpt>
      <trkpt lat="42.85269" lon="18.01038">
        <ele>306.753597</ele>
        <time>2022-06-10T11:58:13.723Z</time>
      </trkpt>
      <trkpt lat="42.8527" lon="18.01022">
        <ele>307.077468</ele>
        <time>2022-06-10T11:58:16.712Z</time>
      </trkpt>
      <trkpt lat="42.85271" lon="18.01007">
        <ele>307.38641</ele>
        <time>2022-06-10T11:58:19.708Z</time>
      </trkpt>
      <trkpt lat="42.85274" lon="18.00991">
        <ele>307.720896</ele>
        <time>2022-06-10T11:58:22.710Z</time>
      </trkpt>
      <trkpt lat="42.85277" lon="18.00976">
        <ele>308.035021</ele>
        <time>2022-06-10T11:58:25.747Z</time>
      </trkpt>
      <trkpt lat="42.85281" lon="18.00962">
        <ele>308.333193</ele>
        <time>2022-06-10T11:58:28.708Z</time>
      </trkpt>
      <trkpt lat="42.85286" lon="18.00949">
        <ele>308.363547</ele>
        <time>2022-06-10T11:58:31.722Z</time>
      </trkpt>
      <trkpt lat="42.8529" lon="18.00935">
        <ele>308.380752</ele>
        <time>2022-06-10T11:58:34.712Z</time>
      </trkpt>
      <trkpt lat="42.85295" lon="18.00922">
        <ele>308.397749</ele>
        <time>2022-06-10T11:58:37.749Z</time>
      </trkpt>
      <trkpt lat="42.85299" lon="18.00908">
        <ele>308.414763</ele>
        <time>2022-06-10T11:58:40.707Z</time>
      </trkpt>
      <trkpt lat="42.85303" lon="18.00894">
        <ele>308.432024</ele>
        <time>2022-06-10T11:58:43.721Z</time>
      </trkpt>
      <trkpt lat="42.85308" lon="18.00879">
        <ele>308.450535</ele>
        <time>2022-06-10T11:58:46.707Z</time>
      </trkpt>
      <trkpt lat="42.85313" lon="18.00865">
        <ele>308.468356</ele>
        <time>2022-06-10T11:58:49.760Z</time>
      </trkpt>
      <trkpt lat="42.85318" lon="18.00852">
        <ele>308.485042</ele>
        <time>2022-06-10T11:58:52.723Z</time>
      </trkpt>
      <trkpt lat="42.85323" lon="18.00839">
        <ele>308.502809</ele>
        <time>2022-06-10T11:58:55.711Z</time>
      </trkpt>
      <trkpt lat="42.85328" lon="18.00824">
        <ele>308.520897</ele>
        <time>2022-06-10T11:58:58.731Z</time>
      </trkpt>
      <trkpt lat="42.85332" lon="18.00809">
        <ele>308.539612</ele>
        <time>2022-06-10T11:59:01.718Z</time>
      </trkpt>
      <trkpt lat="42.85335" lon="18.00792">
        <ele>308.55937</ele>
        <time>2022-06-10T11:59:04.704Z</time>
      </trkpt>
      <trkpt lat="42.85338" lon="18.00776">
        <ele>308.578837</ele>
        <time>2022-06-10T11:59:07.701Z</time>
      </trkpt>
      <trkpt lat="42.8534" lon="18.0076">
        <ele>308.597735</ele>
        <time>2022-06-10T11:59:10.742Z</time>
      </trkpt>
      <trkpt lat="42.85342" lon="18.00745">
        <ele>308.61491</ele>
        <time>2022-06-10T11:59:13.712Z</time>
      </trkpt>
      <trkpt lat="42.85344" lon="18.00728">
        <ele>308.650209</ele>
        <time>2022-06-10T11:59:16.708Z</time>
      </trkpt>
      <trkpt lat="42.85345" lon="18.00711">
        <ele>308.739046</ele>
        <time>2022-06-10T11:59:19.719Z</time>
      </trkpt>
      <trkpt lat="42.85346" lon="18.00694">
        <ele>308.828464</ele>
        <time>2022-06-10T11:59:22.722Z</time>
      </trkpt>
      <trkpt lat="42.85347" lon="18.00677">
        <ele>308.915431</ele>
        <time>2022-06-10T11:59:25.734Z</time>
      </trkpt>
      <trkpt lat="42.85347" lon="18.0066">
        <ele>309.001883</ele>
        <time>2022-06-10T11:59:28.715Z</time>
      </trkpt>
      <trkpt lat="42.85347" lon="18.00643">
        <ele>309.08879</ele>
        <time>2022-06-10T11:59:31.702Z</time>
      </trkpt>
      <trkpt lat="42.85346" lon="18.00626">
        <ele>309.17853</ele>
        <time>2022-06-10T11:59:34.712Z</time>
      </trkpt>
      <trkpt lat="42.85343" lon="18.00609">
        <ele>309.26869</ele>
        <time>2022-06-10T11:59:37.723Z</time>
      </trkpt>
      <trkpt lat="42.85339" lon="18.00592">
        <ele>309.358983</ele>
        <time>2022-06-10T11:59:40.717Z</time>
      </trkpt>
      <trkpt lat="42.85334" lon="18.00576">
        <ele>309.447941</ele>
        <time>2022-06-10T11:59:43.708Z</time>
      </trkpt>
      <trkpt lat="42.85328" lon="18.0056">
        <ele>309.540872</ele>
        <time>2022-06-10T11:59:46.723Z</time>
      </trkpt>
      <trkpt lat="42.85321" lon="18.00546">
        <ele>309.63068</ele>
        <time>2022-06-10T11:59:49.739Z</time>
      </trkpt>
      <trkpt lat="42.85315" lon="18.00531">
        <ele>309.717435</ele>
        <time>2022-06-10T11:59:52.723Z</time>
      </trkpt>
      <trkpt lat="42.85309" lon="18.00516">
        <ele>309.806534</ele>
        <time>2022-06-10T11:59:55.741Z</time>
      </trkpt>
      <trkpt lat="42.85303" lon="18.00501">
        <ele>309.885217</ele>
        <time>2022-06-10T11:59:58.716Z</time>
      </trkpt>
      <trkpt lat="42.85298" lon="18.00485">
        <ele>309.732576</ele>
        <time>2022-06-10T12:00:01.740Z</time>
      </trkpt>
      <trkpt lat="42.85294" lon="18.0047">
        <ele>309.581209</ele>
        <time>2022-06-10T12:00:04.730Z</time>
      </trkpt>
      <trkpt lat="42.8529" lon="18.00453">
        <ele>309.421259</ele>
        <time>2022-06-10T12:00:07.743Z</time>
      </trkpt>
      <trkpt lat="42.85286" lon="18.00436">
        <ele>309.258358</ele>
        <time>2022-06-10T12:00:10.724Z</time>
      </trkpt>
      <trkpt lat="42.85281" lon="18.0042">
        <ele>309.094484</ele>
        <time>2022-06-10T12:00:13.755Z</time>
      </trkpt>
      <trkpt lat="42.85277" lon="18.00404">
        <ele>308.939257</ele>
        <time>2022-06-10T12:00:16.730Z</time>
      </trkpt>
      <trkpt lat="42.85274" lon="18.00386">
        <ele>308.778639</ele>
        <time>2022-06-10T12:00:19.753Z</time>
      </trkpt>
      <trkpt lat="42.85272" lon="18.00369">
        <ele>308.615107</ele>
        <time>2022-06-10T12:00:22.709Z</time>
      </trkpt>
      <trkpt lat="42.85271" lon="18.00351">
        <ele>308.452398</ele>
        <time>2022-06-10T12:00:25.733Z</time>
      </trkpt>
      <trkpt lat="42.85273" lon="18.00334">
        <ele>308.293919</ele>
        <time>2022-06-10T12:00:28.697Z</time>
      </trkpt>
      <trkpt lat="42.85275" lon="18.00317">
        <ele>308.139787</ele>
        <time>2022-06-10T12:00:31.737Z</time>
      </trkpt>
      <trkpt lat="42.85276" lon="18.003">
        <ele>307.985093</ele>
        <time>2022-06-10T12:00:34.730Z</time>
      </trkpt>
      <trkpt lat="42.85278" lon="18.00283">
        <ele>307.827519</ele>
        <time>2022-06-10T12:00:37.745Z</time>
      </trkpt>
      <trkpt lat="42.85278" lon="18.00266">
        <ele>307.670382</ele>
        <time>2022-06-10T12:00:40.741Z</time>
      </trkpt>
      <trkpt lat="42.85277" lon="18.00248">
        <ele>307.651563</ele>
        <time>2022-06-10T12:00:43.727Z</time>
      </trkpt>
      <trkpt lat="42.85274" lon="18.00231">
        <ele>307.652847</ele>
        <time>2022-06-10T12:00:46.712Z</time>
      </trkpt>
      <trkpt lat="42.85271" lon="18.00214">
        <ele>307.654123</ele>
        <time>2022-06-10T12:00:49.746Z</time>
      </trkpt>
      <trkpt lat="42.85266" lon="18.00198">
        <ele>307.655386</ele>
        <time>2022-06-10T12:00:52.704Z</time>
      </trkpt>
      <trkpt lat="42.85261" lon="18.00181">
        <ele>307.656715</ele>
        <time>2022-06-10T12:00:55.742Z</time>
      </trkpt>
      <trkpt lat="42.85257" lon="18.0017">
        <ele>307.657617</ele>
        <time>2022-06-10T12:00:57.719Z</time>
      </trkpt>
      <trkpt lat="42.85254" lon="18.00158">
        <ele>307.658519</ele>
        <time>2022-06-10T12:00:59.712Z</time>
      </trkpt>
      <trkpt lat="42.85249" lon="18.00141">
        <ele>307.65984</ele>
        <time>2022-06-10T12:01:02.701Z</time>
      </trkpt>
      <trkpt lat="42.85244" lon="18.00125">
        <ele>307.661127</ele>
        <time>2022-06-10T12:01:05.750Z</time>
      </trkpt>
      <trkpt lat="42.85241" lon="18.00113">
        <ele>307.66203</ele>
        <time>2022-06-10T12:01:07.708Z</time>
      </trkpt>
      <trkpt lat="42.85237" lon="18.00102">
        <ele>307.662928</ele>
        <time>2022-06-10T12:01:09.711Z</time>
      </trkpt>
      <trkpt lat="42.85233" lon="18.00086">
        <ele>307.664175</ele>
        <time>2022-06-10T12:01:12.708Z</time>
      </trkpt>
      <trkpt lat="42.85228" lon="18.0007">
        <ele>307.665422</ele>
        <time>2022-06-10T12:01:15.737Z</time>
      </trkpt>
      <trkpt lat="42.85223" lon="18.00055">
        <ele>307.666652</ele>
        <time>2022-06-10T12:01:18.734Z</time>
      </trkpt>
      <trkpt lat="42.85218" lon="18.00039">
        <ele>307.667899</ele>
        <time>2022-06-10T12:01:21.727Z</time>
      </trkpt>
      <trkpt lat="42.85214" lon="18.00023">
        <ele>307.712138</ele>
        <time>2022-06-10T12:01:24.727Z</time>
      </trkpt>
      <trkpt lat="42.8521" lon="18.00008">
        <ele>307.77071</ele>
        <time>2022-06-10T12:01:27.713Z</time>
      </trkpt>
      <trkpt lat="42.85206" lon="17.99994">
        <ele>307.82801</ele>
        <time>2022-06-10T12:01:30.743Z</time>
      </trkpt>
      <trkpt lat="42.85201" lon="17.99979">
        <ele>307.888513</ele>
        <time>2022-06-10T12:01:33.737Z</time>
      </trkpt>
      <trkpt lat="42.85194" lon="17.99965">
        <ele>307.950084</ele>
        <time>2022-06-10T12:01:36.722Z</time>
      </trkpt>
      <trkpt lat="42.85187" lon="17.99951">
        <ele>308.014762</ele>
        <time>2022-06-10T12:01:39.741Z</time>
      </trkpt>
      <trkpt lat="42.8518" lon="17.99936">
        <ele>308.0804</ele>
        <time>2022-06-10T12:01:42.699Z</time>
      </trkpt>
      <trkpt lat="42.85172" lon="17.99924">
        <ele>308.140835</ele>
        <time>2022-06-10T12:01:45.758Z</time>
      </trkpt>
      <trkpt lat="42.85163" lon="17.99914">
        <ele>308.19643</ele>
        <time>2022-06-10T12:01:48.698Z</time>
      </trkpt>
      <trkpt lat="42.85153" lon="17.99904">
        <ele>308.262754</ele>
        <time>2022-06-10T12:01:51.714Z</time>
      </trkpt>
      <trkpt lat="42.85142" lon="17.99893">
        <ele>308.329302</ele>
        <time>2022-06-10T12:01:54.717Z</time>
      </trkpt>
      <trkpt lat="42.85131" lon="17.99882">
        <ele>308.39751</ele>
        <time>2022-06-10T12:01:57.705Z</time>
      </trkpt>
      <trkpt lat="42.85122" lon="17.99872">
        <ele>308.45927</ele>
        <time>2022-06-10T12:02:00.709Z</time>
      </trkpt>
      <trkpt lat="42.85114" lon="17.99861">
        <ele>308.515652</ele>
        <time>2022-06-10T12:02:03.711Z</time>
      </trkpt>
      <trkpt lat="42.85108" lon="17.9985">
        <ele>308.568652</ele>
        <time>2022-06-10T12:02:06.737Z</time>
      </trkpt>
      <trkpt lat="42.85102" lon="17.99838">
        <ele>308.616669</ele>
        <time>2022-06-10T12:02:09.715Z</time>
      </trkpt>
      <trkpt lat="42.85096" lon="17.99829">
        <ele>308.659687</ele>
        <time>2022-06-10T12:02:12.727Z</time>
      </trkpt>
      <trkpt lat="42.8509" lon="17.99816">
        <ele>308.709589</ele>
        <time>2022-06-10T12:02:16.734Z</time>
      </trkpt>
      <trkpt lat="42.85086" lon="17.99804">
        <ele>308.755764</ele>
        <time>2022-06-10T12:02:19.727Z</time>
      </trkpt>
      <trkpt lat="42.85082" lon="17.99793">
        <ele>308.798576</ele>
        <time>2022-06-10T12:02:22.731Z</time>
      </trkpt>
      <trkpt lat="42.8508" lon="17.99781">
        <ele>308.841166</ele>
        <time>2022-06-10T12:02:25.727Z</time>
      </trkpt>
      <trkpt lat="42.85076" lon="17.99765">
        <ele>308.898242</ele>
        <time>2022-06-10T12:02:29.707Z</time>
      </trkpt>
      <trkpt lat="42.85075" lon="17.99752">
        <ele>308.942416</ele>
        <time>2022-06-10T12:02:32.709Z</time>
      </trkpt>
      <trkpt lat="42.85073" lon="17.99739">
        <ele>308.988556</ele>
        <time>2022-06-10T12:02:35.747Z</time>
      </trkpt>
      <trkpt lat="42.85071" lon="17.99727">
        <ele>309.033305</ele>
        <time>2022-06-10T12:02:38.713Z</time>
      </trkpt>
      <trkpt lat="42.85069" lon="17.99714">
        <ele>309.078682</ele>
        <time>2022-06-10T12:02:41.716Z</time>
      </trkpt>
      <trkpt lat="42.85066" lon="17.99701">
        <ele>309.122641</ele>
        <time>2022-06-10T12:02:44.699Z</time>
      </trkpt>
      <trkpt lat="42.85062" lon="17.99689">
        <ele>309.169607</ele>
        <time>2022-06-10T12:02:47.727Z</time>
      </trkpt>
      <trkpt lat="42.85058" lon="17.99676">
        <ele>309.218867</ele>
        <time>2022-06-10T12:02:50.711Z</time>
      </trkpt>
      <trkpt lat="42.85052" lon="17.99664">
        <ele>309.26561</ele>
        <time>2022-06-10T12:02:53.727Z</time>
      </trkpt>
      <trkpt lat="42.85047" lon="17.99653">
        <ele>309.312139</ele>
        <time>2022-06-10T12:02:56.729Z</time>
      </trkpt>
      <trkpt lat="42.85039" lon="17.99643">
        <ele>309.363312</ele>
        <time>2022-06-10T12:02:59.714Z</time>
      </trkpt>
      <trkpt lat="42.8503" lon="17.99632">
        <ele>309.418484</ele>
        <time>2022-06-10T12:03:02.729Z</time>
      </trkpt>
      <trkpt lat="42.85021" lon="17.99621">
        <ele>309.607054</ele>
        <time>2022-06-10T12:03:05.704Z</time>
      </trkpt>
      <trkpt lat="42.85011" lon="17.99612">
        <ele>309.805877</ele>
        <time>2022-06-10T12:03:08.709Z</time>
      </trkpt>
      <trkpt lat="42.85001" lon="17.99603">
        <ele>310.001289</ele>
        <time>2022-06-10T12:03:11.715Z</time>
      </trkpt>
      <trkpt lat="42.84992" lon="17.99594">
        <ele>310.195288</ele>
        <time>2022-06-10T12:03:14.709Z</time>
      </trkpt>
      <trkpt lat="42.84982" lon="17.99584">
        <ele>310.383932</ele>
        <time>2022-06-10T12:03:17.707Z</time>
      </trkpt>
      <trkpt lat="42.84973" lon="17.99575">
        <ele>310.568029</ele>
        <time>2022-06-10T12:03:20.710Z</time>
      </trkpt>
      <trkpt lat="42.84966" lon="17.99565">
        <ele>310.743365</ele>
        <time>2022-06-10T12:03:23.700Z</time>
      </trkpt>
      <trkpt lat="42.84959" lon="17.99553">
        <ele>310.92161</ele>
        <time>2022-06-10T12:03:26.740Z</time>
      </trkpt>
      <trkpt lat="42.84951" lon="17.99541">
        <ele>311.112359</ele>
        <time>2022-06-10T12:03:29.714Z</time>
      </trkpt>
      <trkpt lat="42.84944" lon="17.99529">
        <ele>311.30082</ele>
        <time>2022-06-10T12:03:32.699Z</time>
      </trkpt>
      <trkpt lat="42.84937" lon="17.99517">
        <ele>311.489737</ele>
        <time>2022-06-10T12:03:35.723Z</time>
      </trkpt>
      <trkpt lat="42.84931" lon="17.99505">
        <ele>311.666591</ele>
        <time>2022-06-10T12:03:38.713Z</time>
      </trkpt>
      <trkpt lat="42.84924" lon="17.99493">
        <ele>311.848147</ele>
        <time>2022-06-10T12:03:41.710Z</time>
      </trkpt>
      <trkpt lat="42.84917" lon="17.99482">
        <ele>312.021224</ele>
        <time>2022-06-10T12:03:44.711Z</time>
      </trkpt>
      <trkpt lat="42.84908" lon="17.9947">
        <ele>312.228415</ele>
        <time>2022-06-10T12:03:47.731Z</time>
      </trkpt>
      <trkpt lat="42.84901" lon="17.99456">
        <ele>312.341799</ele>
        <time>2022-06-10T12:03:50.719Z</time>
      </trkpt>
      <trkpt lat="42.84893" lon="17.99444">
        <ele>312.2206</ele>
        <time>2022-06-10T12:03:53.723Z</time>
      </trkpt>
      <trkpt lat="42.84887" lon="17.9943">
        <ele>312.098879</ele>
        <time>2022-06-10T12:03:56.747Z</time>
      </trkpt>
      <trkpt lat="42.8488" lon="17.99416">
        <ele>311.975074</ele>
        <time>2022-06-10T12:03:59.705Z</time>
      </trkpt>
      <trkpt lat="42.84874" lon="17.99403">
        <ele>311.86049</ele>
        <time>2022-06-10T12:04:02.722Z</time>
      </trkpt>
      <trkpt lat="42.84869" lon="17.9939">
        <ele>311.750015</ele>
        <time>2022-06-10T12:04:05.713Z</time>
      </trkpt>
      <trkpt lat="42.84863" lon="17.99377">
        <ele>311.636831</ele>
        <time>2022-06-10T12:04:08.720Z</time>
      </trkpt>
      <trkpt lat="42.84857" lon="17.99364">
        <ele>311.530011</ele>
        <time>2022-06-10T12:04:11.719Z</time>
      </trkpt>
      <trkpt lat="42.84852" lon="17.99351">
        <ele>311.418771</ele>
        <time>2022-06-10T12:04:14.711Z</time>
      </trkpt>
      <trkpt lat="42.84846" lon="17.99338">
        <ele>311.308217</ele>
        <time>2022-06-10T12:04:17.724Z</time>
      </trkpt>
      <trkpt lat="42.84841" lon="17.99325">
        <ele>311.196051</ele>
        <time>2022-06-10T12:04:20.810Z</time>
      </trkpt>
      <trkpt lat="42.84836" lon="17.99311">
        <ele>311.078033</ele>
        <time>2022-06-10T12:04:23.704Z</time>
      </trkpt>
      <trkpt lat="42.84829" lon="17.99297">
        <ele>310.95558</ele>
        <time>2022-06-10T12:04:26.768Z</time>
      </trkpt>
      <trkpt lat="42.84823" lon="17.99283">
        <ele>310.833945</ele>
        <time>2022-06-10T12:04:29.738Z</time>
      </trkpt>
      <trkpt lat="42.84816" lon="17.99269">
        <ele>310.715403</ele>
        <time>2022-06-10T12:04:32.716Z</time>
      </trkpt>
      <trkpt lat="42.8481" lon="17.99256">
        <ele>310.602151</ele>
        <time>2022-06-10T12:04:35.732Z</time>
      </trkpt>
      <trkpt lat="42.84804" lon="17.99242">
        <ele>310.529642</ele>
        <time>2022-06-10T12:04:38.719Z</time>
      </trkpt>
      <trkpt lat="42.84798" lon="17.99228">
        <ele>310.480069</ele>
        <time>2022-06-10T12:04:41.740Z</time>
      </trkpt>
      <trkpt lat="42.84792" lon="17.99214">
        <ele>310.429258</ele>
        <time>2022-06-10T12:04:44.714Z</time>
      </trkpt>
      <trkpt lat="42.84786" lon="17.99201">
        <ele>310.377851</ele>
        <time>2022-06-10T12:04:47.747Z</time>
      </trkpt>
      <trkpt lat="42.84779" lon="17.99187">
        <ele>310.326506</ele>
        <time>2022-06-10T12:04:50.707Z</time>
      </trkpt>
      <trkpt lat="42.84773" lon="17.99177">
        <ele>310.286489</ele>
        <time>2022-06-10T12:04:52.703Z</time>
      </trkpt>
      <trkpt lat="42.84768" lon="17.99166">
        <ele>310.245916</ele>
        <time>2022-06-10T12:04:54.708Z</time>
      </trkpt>
      <trkpt lat="42.84764" lon="17.99155">
        <ele>310.206614</ele>
        <time>2022-06-10T12:04:56.769Z</time>
      </trkpt>
      <trkpt lat="42.84761" lon="17.99143">
        <ele>310.167806</ele>
        <time>2022-06-10T12:04:58.758Z</time>
      </trkpt>
      <trkpt lat="42.84761" lon="17.99127">
        <ele>310.118196</ele>
        <time>2022-06-10T12:05:01.689Z</time>
      </trkpt>
      <trkpt lat="42.8476" lon="17.99111">
        <ele>310.067921</ele>
        <time>2022-06-10T12:05:05.702Z</time>
      </trkpt>
      <trkpt lat="42.84757" lon="17.99097">
        <ele>310.023873</ele>
        <time>2022-06-10T12:05:08.703Z</time>
      </trkpt>
      <trkpt lat="42.84755" lon="17.99082">
        <ele>309.976487</ele>
        <time>2022-06-10T12:05:11.714Z</time>
      </trkpt>
      <trkpt lat="42.84752" lon="17.99066">
        <ele>309.924921</ele>
        <time>2022-06-10T12:05:14.717Z</time>
      </trkpt>
      <trkpt lat="42.8475" lon="17.9905">
        <ele>309.87208</ele>
        <time>2022-06-10T12:05:17.720Z</time>
      </trkpt>
      <trkpt lat="42.84747" lon="17.99034">
        <ele>309.822666</ele>
        <time>2022-06-10T12:05:20.733Z</time>
      </trkpt>
      <trkpt lat="42.84744" lon="17.99019">
        <ele>309.826063</ele>
        <time>2022-06-10T12:05:23.716Z</time>
      </trkpt>
      <trkpt lat="42.8474" lon="17.99004">
        <ele>309.879173</ele>
        <time>2022-06-10T12:05:26.764Z</time>
      </trkpt>
      <trkpt lat="42.84734" lon="17.98989">
        <ele>309.935523</ele>
        <time>2022-06-10T12:05:29.710Z</time>
      </trkpt>
      <trkpt lat="42.84727" lon="17.98974">
        <ele>309.99345</ele>
        <time>2022-06-10T12:05:32.723Z</time>
      </trkpt>
      <trkpt lat="42.8472" lon="17.98959">
        <ele>310.051806</ele>
        <time>2022-06-10T12:05:35.701Z</time>
      </trkpt>
      <trkpt lat="42.84711" lon="17.98946">
        <ele>310.110123</ele>
        <time>2022-06-10T12:05:38.710Z</time>
      </trkpt>
      <trkpt lat="42.84702" lon="17.98933">
        <ele>310.168521</ele>
        <time>2022-06-10T12:05:41.712Z</time>
      </trkpt>
      <trkpt lat="42.84693" lon="17.98921">
        <ele>310.227467</ele>
        <time>2022-06-10T12:05:44.727Z</time>
      </trkpt>
      <trkpt lat="42.84686" lon="17.98912">
        <ele>310.269392</ele>
        <time>2022-06-10T12:05:46.735Z</time>
      </trkpt>
      <trkpt lat="42.84679" lon="17.98903">
        <ele>310.311437</ele>
        <time>2022-06-10T12:05:48.703Z</time>
      </trkpt>
      <trkpt lat="42.84671" lon="17.9889">
        <ele>310.369865</ele>
        <time>2022-06-10T12:05:51.716Z</time>
      </trkpt>
      <trkpt lat="42.84662" lon="17.98877">
        <ele>310.427096</ele>
        <time>2022-06-10T12:05:54.734Z</time>
      </trkpt>
      <trkpt lat="42.84655" lon="17.98862">
        <ele>310.484497</ele>
        <time>2022-06-10T12:05:57.708Z</time>
      </trkpt>
      <trkpt lat="42.84649" lon="17.98846">
        <ele>310.543688</ele>
        <time>2022-06-10T12:06:00.737Z</time>
      </trkpt>
      <trkpt lat="42.84645" lon="17.98829">
        <ele>310.602663</ele>
        <time>2022-06-10T12:06:03.720Z</time>
      </trkpt>
      <trkpt lat="42.84642" lon="17.98817">
        <ele>310.526928</ele>
        <time>2022-06-10T12:06:05.734Z</time>
      </trkpt>
      <trkpt lat="42.84638" lon="17.98805">
        <ele>310.441819</ele>
        <time>2022-06-10T12:06:07.710Z</time>
      </trkpt>
      <trkpt lat="42.84634" lon="17.98789">
        <ele>310.321239</ele>
        <time>2022-06-10T12:06:10.699Z</time>
      </trkpt>
      <trkpt lat="42.8463" lon="17.98772">
        <ele>310.20166</ele>
        <time>2022-06-10T12:06:13.705Z</time>
      </trkpt>
      <trkpt lat="42.84627" lon="17.98755">
        <ele>310.083803</ele>
        <time>2022-06-10T12:06:16.707Z</time>
      </trkpt>
      <trkpt lat="42.84624" lon="17.98738">
        <ele>309.963004</ele>
        <time>2022-06-10T12:06:19.715Z</time>
      </trkpt>
      <trkpt lat="42.8462" lon="17.98721">
        <ele>309.842331</ele>
        <time>2022-06-10T12:06:22.718Z</time>
      </trkpt>
      <trkpt lat="42.84617" lon="17.98705">
        <ele>309.72932</ele>
        <time>2022-06-10T12:06:25.762Z</time>
      </trkpt>
      <trkpt lat="42.84615" lon="17.98687">
        <ele>309.608245</ele>
        <time>2022-06-10T12:06:28.710Z</time>
      </trkpt>
      <trkpt lat="42.84614" lon="17.9867">
        <ele>309.490932</ele>
        <time>2022-06-10T12:06:31.720Z</time>
      </trkpt>
      <trkpt lat="42.84613" lon="17.98653">
        <ele>309.378185</ele>
        <time>2022-06-10T12:06:34.686Z</time>
      </trkpt>
      <trkpt lat="42.84613" lon="17.98636">
        <ele>309.260588</ele>
        <time>2022-06-10T12:06:37.686Z</time>
      </trkpt>
      <trkpt lat="42.84613" lon="17.98618">
        <ele>309.141054</ele>
        <time>2022-06-10T12:06:40.718Z</time>
      </trkpt>
      <trkpt lat="42.84613" lon="17.98601">
        <ele>309.023497</ele>
        <time>2022-06-10T12:06:43.717Z</time>
      </trkpt>
      <trkpt lat="42.84612" lon="17.98584">
        <ele>308.940986</ele>
        <time>2022-06-10T12:06:46.702Z</time>
      </trkpt>
      <trkpt lat="42.84612" lon="17.98566">
        <ele>308.941786</ele>
        <time>2022-06-10T12:06:49.722Z</time>
      </trkpt>
      <trkpt lat="42.84611" lon="17.98554">
        <ele>308.942349</ele>
        <time>2022-06-10T12:06:51.720Z</time>
      </trkpt>
      <trkpt lat="42.84611" lon="17.98536">
        <ele>308.943148</ele>
        <time>2022-06-10T12:06:54.706Z</time>
      </trkpt>
      <trkpt lat="42.8461" lon="17.98518">
        <ele>308.943956</ele>
        <time>2022-06-10T12:06:57.679Z</time>
      </trkpt>
      <trkpt lat="42.8461" lon="17.985">
        <ele>308.944768</ele>
        <time>2022-06-10T12:07:00.684Z</time>
      </trkpt>
      <trkpt lat="42.84609" lon="17.98482">
        <ele>308.945591</ele>
        <time>2022-06-10T12:07:03.683Z</time>
      </trkpt>
      <trkpt lat="42.84608" lon="17.98464">
        <ele>308.946403</ele>
        <time>2022-06-10T12:07:06.711Z</time>
      </trkpt>
      <trkpt lat="42.84608" lon="17.98446">
        <ele>308.94721</ele>
        <time>2022-06-10T12:07:09.682Z</time>
      </trkpt>
      <trkpt lat="42.84608" lon="17.98428">
        <ele>308.948027</ele>
        <time>2022-06-10T12:07:12.687Z</time>
      </trkpt>
      <trkpt lat="42.84607" lon="17.9841">
        <ele>308.94882</ele>
        <time>2022-06-10T12:07:15.683Z</time>
      </trkpt>
      <trkpt lat="42.84607" lon="17.98392">
        <ele>308.949632</ele>
        <time>2022-06-10T12:07:18.684Z</time>
      </trkpt>
      <trkpt lat="42.84608" lon="17.98374">
        <ele>308.950431</ele>
        <time>2022-06-10T12:07:21.687Z</time>
      </trkpt>
      <trkpt lat="42.8461" lon="17.98357">
        <ele>308.951207</ele>
        <time>2022-06-10T12:07:24.698Z</time>
      </trkpt>
      <trkpt lat="42.84613" lon="17.98341">
        <ele>308.975033</ele>
        <time>2022-06-10T12:07:27.683Z</time>
      </trkpt>
      <trkpt lat="42.84616" lon="17.98329">
        <ele>309.058332</ele>
        <time>2022-06-10T12:07:29.742Z</time>
      </trkpt>
      <trkpt lat="42.84621" lon="17.98316">
        <ele>309.162014</ele>
        <time>2022-06-10T12:07:32.692Z</time>
      </trkpt>
      <trkpt lat="42.84624" lon="17.98303">
        <ele>309.250144</ele>
        <time>2022-06-10T12:07:35.678Z</time>
      </trkpt>
      <trkpt lat="42.84628" lon="17.98287">
        <ele>309.366027</ele>
        <time>2022-06-10T12:07:38.690Z</time>
      </trkpt>
      <trkpt lat="42.84633" lon="17.9827">
        <ele>309.483818</ele>
        <time>2022-06-10T12:07:41.702Z</time>
      </trkpt>
      <trkpt lat="42.84637" lon="17.98258">
        <ele>309.57278</ele>
        <time>2022-06-10T12:07:43.689Z</time>
      </trkpt>
      <trkpt lat="42.84641" lon="17.98245">
        <ele>309.663939</ele>
        <time>2022-06-10T12:07:45.690Z</time>
      </trkpt>
      <trkpt lat="42.84643" lon="17.98233">
        <ele>309.748307</ele>
        <time>2022-06-10T12:07:47.723Z</time>
      </trkpt>
      <trkpt lat="42.84647" lon="17.98221">
        <ele>309.836316</ele>
        <time>2022-06-10T12:07:49.692Z</time>
      </trkpt>
      <trkpt lat="42.8465" lon="17.98209">
        <ele>309.921311</ele>
        <time>2022-06-10T12:07:51.685Z</time>
      </trkpt>
      <trkpt lat="42.84654" lon="17.98197">
        <ele>310.009241</ele>
        <time>2022-06-10T12:07:53.682Z</time>
      </trkpt>
      <trkpt lat="42.84658" lon="17.98183">
        <ele>310.110394</ele>
        <time>2022-06-10T12:07:55.679Z</time>
      </trkpt>
      <trkpt lat="42.84662" lon="17.9817">
        <ele>310.199427</ele>
        <time>2022-06-10T12:07:57.683Z</time>
      </trkpt>
      <trkpt lat="42.84666" lon="17.98159">
        <ele>310.283342</ele>
        <time>2022-06-10T12:07:59.686Z</time>
      </trkpt>
      <trkpt lat="42.84671" lon="17.98142">
        <ele>310.406748</ele>
        <time>2022-06-10T12:08:02.702Z</time>
      </trkpt>
      <trkpt lat="42.84674" lon="17.98125">
        <ele>310.525567</ele>
        <time>2022-06-10T12:08:05.693Z</time>
      </trkpt>
      <trkpt lat="42.8468" lon="17.98108">
        <ele>310.588221</ele>
        <time>2022-06-10T12:08:08.682Z</time>
      </trkpt>
      <trkpt lat="42.84684" lon="17.98092">
        <ele>310.588221</ele>
        <time>2022-06-10T12:08:11.685Z</time>
      </trkpt>
      <trkpt lat="42.8469" lon="17.98076">
        <ele>310.588221</ele>
        <time>2022-06-10T12:08:14.699Z</time>
      </trkpt>
      <trkpt lat="42.84696" lon="17.98061">
        <ele>310.588221</ele>
        <time>2022-06-10T12:08:17.691Z</time>
      </trkpt>
      <trkpt lat="42.84703" lon="17.98047">
        <ele>310.588221</ele>
        <time>2022-06-10T12:08:20.686Z</time>
      </trkpt>
      <trkpt lat="42.8471" lon="17.98035">
        <ele>310.588221</ele>
        <time>2022-06-10T12:08:23.684Z</time>
      </trkpt>
      <trkpt lat="42.84717" lon="17.98024">
        <ele>310.588221</ele>
        <time>2022-06-10T12:08:26.684Z</time>
      </trkpt>
      <trkpt lat="42.84724" lon="17.98015">
        <ele>310.588221</ele>
        <time>2022-06-10T12:08:29.689Z</time>
      </trkpt>
      <trkpt lat="42.8473" lon="17.98006">
        <ele>310.588221</ele>
        <time>2022-06-10T12:08:32.682Z</time>
      </trkpt>
      <trkpt lat="42.84734" lon="17.97994">
        <ele>310.588221</ele>
        <time>2022-06-10T12:08:38.678Z</time>
      </trkpt>
      <trkpt lat="42.84727" lon="17.97996">
        <ele>310.588221</ele>
        <time>2022-06-10T12:09:36.983Z</time>
      </trkpt>
    </trkseg>
  </trk>
  <trk>
    <name><![CDATA[Tour d'Europe: étape 703]]></name>
    <extensions>
      <line xmlns="http://www.topografix.com/GPX/gpx_style/0/2">
        <color>00FFFF</color>
        <width>4</width>
      </line>
    </extensions>
    <trkseg>
      <trkpt lat="42.45168" lon="18.54455">
        <ele>82.810271</ele>
        <time>2022-06-01T08:17:21.867Z</time>
      </trkpt>
      <trkpt lat="42.45148" lon="18.54485">
        <ele>82.810271</ele>
        <time>2022-06-01T08:17:22.861Z</time>
      </trkpt>
      <trkpt lat="42.45161" lon="18.54482">
        <ele>82.810271</ele>
        <time>2022-06-01T08:17:24.584Z</time>
      </trkpt>
      <trkpt lat="42.45169" lon="18.54462">
        <ele>82.810271</ele>
        <time>2022-06-01T08:20:39.583Z</time>
      </trkpt>
      <trkpt lat="42.45173" lon="18.5445">
        <ele>82.810271</ele>
        <time>2022-06-01T08:20:42.705Z</time>
      </trkpt>
      <trkpt lat="42.45171" lon="18.54437">
        <ele>82.810271</ele>
        <time>2022-06-01T08:20:44.570Z</time>
      </trkpt>
      <trkpt lat="42.45168" lon="18.54422">
        <ele>82.804141</ele>
        <time>2022-06-01T08:20:47.592Z</time>
      </trkpt>
      <trkpt lat="42.45164" lon="18.54409">
        <ele>82.463311</ele>
        <time>2022-06-01T08:20:50.572Z</time>
      </trkpt>
      <trkpt lat="42.45157" lon="18.544">
        <ele>82.146463</ele>
        <time>2022-06-01T08:20:55.581Z</time>
      </trkpt>
      <trkpt lat="42.45147" lon="18.54398">
        <ele>81.807618</ele>
        <time>2022-06-01T08:20:59.580Z</time>
      </trkpt>
      <trkpt lat="42.45138" lon="18.54408">
        <ele>81.404762</ele>
        <time>2022-06-01T08:21:02.615Z</time>
      </trkpt>
      <trkpt lat="42.45134" lon="18.5442">
        <ele>81.09302</ele>
        <time>2022-06-01T08:21:05.664Z</time>
      </trkpt>
      <trkpt lat="42.45127" lon="18.54435">
        <ele>80.648323</ele>
        <time>2022-06-01T08:21:08.600Z</time>
      </trkpt>
      <trkpt lat="42.45123" lon="18.54449">
        <ele>80.282869</ele>
        <time>2022-06-01T08:21:11.579Z</time>
      </trkpt>
      <trkpt lat="42.4512" lon="18.54461">
        <ele>79.978876</ele>
        <time>2022-06-01T08:21:14.582Z</time>
      </trkpt>
      <trkpt lat="42.45117" lon="18.54474">
        <ele>79.649578</ele>
        <time>2022-06-01T08:21:17.594Z</time>
      </trkpt>
      <trkpt lat="42.45114" lon="18.54487">
        <ele>79.311398</ele>
        <time>2022-06-01T08:21:20.588Z</time>
      </trkpt>
      <trkpt lat="42.45111" lon="18.545">
        <ele>78.976412</ele>
        <time>2022-06-01T08:21:22.590Z</time>
      </trkpt>
      <trkpt lat="42.45108" lon="18.54515">
        <ele>78.583216</ele>
        <time>2022-06-01T08:21:24.584Z</time>
      </trkpt>
      <trkpt lat="42.45106" lon="18.54533">
        <ele>78.156283</ele>
        <time>2022-06-01T08:21:26.619Z</time>
      </trkpt>
      <trkpt lat="42.45105" lon="18.54548">
        <ele>77.775833</ele>
        <time>2022-06-01T08:21:28.596Z</time>
      </trkpt>
      <trkpt lat="42.45103" lon="18.5456">
        <ele>77.474424</ele>
        <time>2022-06-01T08:21:30.587Z</time>
      </trkpt>
      <trkpt lat="42.451" lon="18.54577">
        <ele>77.052016</ele>
        <time>2022-06-01T08:21:33.584Z</time>
      </trkpt>
      <trkpt lat="42.45097" lon="18.54594">
        <ele>76.689148</ele>
        <time>2022-06-01T08:21:36.590Z</time>
      </trkpt>
      <trkpt lat="42.45096" lon="18.54608">
        <ele>76.426804</ele>
        <time>2022-06-01T08:21:39.583Z</time>
      </trkpt>
      <trkpt lat="42.45096" lon="18.54624">
        <ele>76.149624</ele>
        <time>2022-06-01T08:21:42.617Z</time>
      </trkpt>
      <trkpt lat="42.45096" lon="18.54641">
        <ele>75.850958</ele>
        <time>2022-06-01T08:21:45.577Z</time>
      </trkpt>
      <trkpt lat="42.45095" lon="18.54659">
        <ele>75.539691</ele>
        <time>2022-06-01T08:21:48.638Z</time>
      </trkpt>
      <trkpt lat="42.45094" lon="18.54671">
        <ele>75.322359</ele>
        <time>2022-06-01T08:21:50.601Z</time>
      </trkpt>
      <trkpt lat="42.45095" lon="18.54684">
        <ele>75.094597</ele>
        <time>2022-06-01T08:21:52.612Z</time>
      </trkpt>
      <trkpt lat="42.45095" lon="18.54697">
        <ele>74.857949</ele>
        <time>2022-06-01T08:21:54.570Z</time>
      </trkpt>
      <trkpt lat="42.45095" lon="18.54713">
        <ele>74.57374</ele>
        <time>2022-06-01T08:21:57.600Z</time>
      </trkpt>
      <trkpt lat="42.45096" lon="18.54727">
        <ele>74.32763</ele>
        <time>2022-06-01T08:22:00.587Z</time>
      </trkpt>
      <trkpt lat="42.45098" lon="18.54741">
        <ele>74.075081</ele>
        <time>2022-06-01T08:22:03.588Z</time>
      </trkpt>
      <trkpt lat="42.45103" lon="18.54758">
        <ele>73.75349</ele>
        <time>2022-06-01T08:22:06.587Z</time>
      </trkpt>
      <trkpt lat="42.45105" lon="18.54775">
        <ele>73.457063</ele>
        <time>2022-06-01T08:22:09.585Z</time>
      </trkpt>
      <trkpt lat="42.45101" lon="18.54787">
        <ele>73.2161</ele>
        <time>2022-06-01T08:22:12.582Z</time>
      </trkpt>
      <trkpt lat="42.45097" lon="18.54799">
        <ele>72.986321</ele>
        <time>2022-06-01T08:22:15.588Z</time>
      </trkpt>
      <trkpt lat="42.45091" lon="18.54809">
        <ele>72.770412</ele>
        <time>2022-06-01T08:22:18.594Z</time>
      </trkpt>
      <trkpt lat="42.45083" lon="18.54821">
        <ele>72.381905</ele>
        <time>2022-06-01T08:22:22.584Z</time>
      </trkpt>
      <trkpt lat="42.45074" lon="18.54817">
        <ele>71.542186</ele>
        <time>2022-06-01T08:22:28.593Z</time>
      </trkpt>
      <trkpt lat="42.45074" lon="18.54803">
        <ele>70.726669</ele>
        <time>2022-06-01T08:22:33.616Z</time>
      </trkpt>
      <trkpt lat="42.45074" lon="18.54789">
        <ele>69.826437</ele>
        <time>2022-06-01T08:22:39.609Z</time>
      </trkpt>
      <trkpt lat="42.45076" lon="18.54773">
        <ele>68.852246</ele>
        <time>2022-06-01T08:22:43.693Z</time>
      </trkpt>
      <trkpt lat="42.45077" lon="18.5476">
        <ele>68.025496</ele>
        <time>2022-06-01T08:22:46.580Z</time>
      </trkpt>
      <trkpt lat="42.45079" lon="18.54744">
        <ele>67.067622</ele>
        <time>2022-06-01T08:22:50.574Z</time>
      </trkpt>
      <trkpt lat="42.45081" lon="18.54732">
        <ele>66.277211</ele>
        <time>2022-06-01T08:22:53.598Z</time>
      </trkpt>
      <trkpt lat="42.45077" lon="18.5472">
        <ele>65.52673</ele>
        <time>2022-06-01T08:22:57.579Z</time>
      </trkpt>
      <trkpt lat="42.45066" lon="18.54721">
        <ele>64.571594</ele>
        <time>2022-06-01T08:23:05.587Z</time>
      </trkpt>
      <trkpt lat="42.45054" lon="18.54724">
        <ele>63.618218</ele>
        <time>2022-06-01T08:23:09.672Z</time>
      </trkpt>
      <trkpt lat="42.45046" lon="18.54734">
        <ele>62.663701</ele>
        <time>2022-06-01T08:23:13.591Z</time>
      </trkpt>
      <trkpt lat="42.45041" lon="18.54746">
        <ele>61.843114</ele>
        <time>2022-06-01T08:23:16.589Z</time>
      </trkpt>
      <trkpt lat="42.45035" lon="18.54758">
        <ele>60.951216</ele>
        <time>2022-06-01T08:23:20.586Z</time>
      </trkpt>
      <trkpt lat="42.45031" lon="18.54744">
        <ele>60.050764</ele>
        <time>2022-06-01T08:23:25.599Z</time>
      </trkpt>
      <trkpt lat="42.45021" lon="18.54737">
        <ele>59.120874</ele>
        <time>2022-06-01T08:23:30.574Z</time>
      </trkpt>
      <trkpt lat="42.45012" lon="18.54741">
        <ele>58.350191</ele>
        <time>2022-06-01T08:23:33.596Z</time>
      </trkpt>
      <trkpt lat="42.45001" lon="18.54742">
        <ele>57.432715</ele>
        <time>2022-06-01T08:23:37.564Z</time>
      </trkpt>
      <trkpt lat="42.4499" lon="18.54739">
        <ele>56.457957</ele>
        <time>2022-06-01T08:23:41.596Z</time>
      </trkpt>
      <trkpt lat="42.4498" lon="18.54739">
        <ele>55.640349</ele>
        <time>2022-06-01T08:23:45.589Z</time>
      </trkpt>
      <trkpt lat="42.44971" lon="18.54734">
        <ele>54.764003</ele>
        <time>2022-06-01T08:23:50.616Z</time>
      </trkpt>
      <trkpt lat="42.44966" lon="18.54719">
        <ele>53.7727</ele>
        <time>2022-06-01T08:23:54.584Z</time>
      </trkpt>
      <trkpt lat="42.44962" lon="18.54708">
        <ele>52.984111</ele>
        <time>2022-06-01T08:23:57.655Z</time>
      </trkpt>
      <trkpt lat="42.4496" lon="18.54696">
        <ele>52.211402</ele>
        <time>2022-06-01T08:24:00.598Z</time>
      </trkpt>
      <trkpt lat="42.44956" lon="18.54682">
        <ele>51.313402</ele>
        <time>2022-06-01T08:24:03.577Z</time>
      </trkpt>
      <trkpt lat="42.44952" lon="18.54668">
        <ele>50.400867</ele>
        <time>2022-06-01T08:24:06.582Z</time>
      </trkpt>
      <trkpt lat="42.4495" lon="18.54655">
        <ele>49.539769</ele>
        <time>2022-06-01T08:24:09.580Z</time>
      </trkpt>
      <trkpt lat="42.44946" lon="18.5464">
        <ele>48.577584</ele>
        <time>2022-06-01T08:24:12.609Z</time>
      </trkpt>
      <trkpt lat="42.44944" lon="18.54627">
        <ele>47.733998</ele>
        <time>2022-06-01T08:24:15.583Z</time>
      </trkpt>
      <trkpt lat="42.44945" lon="18.54613">
        <ele>46.8495</ele>
        <time>2022-06-01T08:24:18.581Z</time>
      </trkpt>
      <trkpt lat="42.44946" lon="18.54598">
        <ele>45.911787</ele>
        <time>2022-06-01T08:24:21.589Z</time>
      </trkpt>
      <trkpt lat="42.44948" lon="18.54583">
        <ele>44.984385</ele>
        <time>2022-06-01T08:24:24.583Z</time>
      </trkpt>
      <trkpt lat="42.44952" lon="18.54569">
        <ele>44.051448</ele>
        <time>2022-06-01T08:24:27.572Z</time>
      </trkpt>
      <trkpt lat="42.44956" lon="18.54556">
        <ele>43.153124</ele>
        <time>2022-06-01T08:24:30.586Z</time>
      </trkpt>
      <trkpt lat="42.4496" lon="18.54542">
        <ele>42.433439</ele>
        <time>2022-06-01T08:24:33.589Z</time>
      </trkpt>
      <trkpt lat="42.44964" lon="18.5453">
        <ele>42.357629</ele>
        <time>2022-06-01T08:24:36.576Z</time>
      </trkpt>
      <trkpt lat="42.44968" lon="18.54519">
        <ele>42.281635</ele>
        <time>2022-06-01T08:24:39.624Z</time>
      </trkpt>
      <trkpt lat="42.44973" lon="18.54507">
        <ele>42.20077</ele>
        <time>2022-06-01T08:24:42.581Z</time>
      </trkpt>
      <trkpt lat="42.44978" lon="18.54495">
        <ele>42.121613</ele>
        <time>2022-06-01T08:24:45.607Z</time>
      </trkpt>
      <trkpt lat="42.44983" lon="18.54482">
        <ele>42.038115</ele>
        <time>2022-06-01T08:24:48.586Z</time>
      </trkpt>
      <trkpt lat="42.44987" lon="18.54469">
        <ele>41.956735</ele>
        <time>2022-06-01T08:24:51.618Z</time>
      </trkpt>
      <trkpt lat="42.44992" lon="18.54456">
        <ele>41.873564</ele>
        <time>2022-06-01T08:24:54.579Z</time>
      </trkpt>
      <trkpt lat="42.44996" lon="18.54442">
        <ele>41.782332</ele>
        <time>2022-06-01T08:24:57.570Z</time>
      </trkpt>
      <trkpt lat="42.44999" lon="18.54426">
        <ele>41.686333</ele>
        <time>2022-06-01T08:25:00.588Z</time>
      </trkpt>
      <trkpt lat="42.45" lon="18.54409">
        <ele>41.586471</ele>
        <time>2022-06-01T08:25:03.624Z</time>
      </trkpt>
      <trkpt lat="42.45002" lon="18.54393">
        <ele>41.492603</ele>
        <time>2022-06-01T08:25:06.593Z</time>
      </trkpt>
      <trkpt lat="42.45005" lon="18.54379">
        <ele>41.404334</ele>
        <time>2022-06-01T08:25:09.587Z</time>
      </trkpt>
      <trkpt lat="42.45008" lon="18.54365">
        <ele>41.320216</ele>
        <time>2022-06-01T08:25:12.596Z</time>
      </trkpt>
      <trkpt lat="42.45011" lon="18.5435">
        <ele>41.232301</ele>
        <time>2022-06-01T08:25:15.587Z</time>
      </trkpt>
      <trkpt lat="42.45015" lon="18.54337">
        <ele>41.145819</ele>
        <time>2022-06-01T08:25:18.655Z</time>
      </trkpt>
      <trkpt lat="42.4502" lon="18.54322">
        <ele>41.05429</ele>
        <time>2022-06-01T08:25:21.576Z</time>
      </trkpt>
      <trkpt lat="42.45025" lon="18.54307">
        <ele>41.242061</ele>
        <time>2022-06-01T08:25:24.569Z</time>
      </trkpt>
      <trkpt lat="42.4503" lon="18.54292">
        <ele>41.526251</ele>
        <time>2022-06-01T08:25:27.582Z</time>
      </trkpt>
      <trkpt lat="42.45034" lon="18.54278">
        <ele>41.787996</ele>
        <time>2022-06-01T08:25:30.574Z</time>
      </trkpt>
      <trkpt lat="42.45039" lon="18.54264">
        <ele>42.054272</ele>
        <time>2022-06-01T08:25:33.588Z</time>
      </trkpt>
      <trkpt lat="42.45043" lon="18.54249">
        <ele>42.337566</ele>
        <time>2022-06-01T08:25:36.585Z</time>
      </trkpt>
      <trkpt lat="42.45048" lon="18.54233">
        <ele>42.63283</ele>
        <time>2022-06-01T08:25:39.597Z</time>
      </trkpt>
      <trkpt lat="42.45053" lon="18.54216">
        <ele>42.941315</ele>
        <time>2022-06-01T08:25:42.595Z</time>
      </trkpt>
      <trkpt lat="42.45057" lon="18.542">
        <ele>43.231406</ele>
        <time>2022-06-01T08:25:45.592Z</time>
      </trkpt>
      <trkpt lat="42.45059" lon="18.54185">
        <ele>43.505032</ele>
        <time>2022-06-01T08:25:48.618Z</time>
      </trkpt>
      <trkpt lat="42.45058" lon="18.54169">
        <ele>43.77333</ele>
        <time>2022-06-01T08:25:51.584Z</time>
      </trkpt>
      <trkpt lat="42.45055" lon="18.54153">
        <ele>44.062884</ele>
        <time>2022-06-01T08:25:54.615Z</time>
      </trkpt>
      <trkpt lat="42.4505" lon="18.54136">
        <ele>44.36872</ele>
        <time>2022-06-01T08:25:57.602Z</time>
      </trkpt>
      <trkpt lat="42.45045" lon="18.54122">
        <ele>44.644153</ele>
        <time>2022-06-01T08:26:00.587Z</time>
      </trkpt>
      <trkpt lat="42.45039" lon="18.54108">
        <ele>44.925709</ele>
        <time>2022-06-01T08:26:03.584Z</time>
      </trkpt>
      <trkpt lat="42.45032" lon="18.54095">
        <ele>45.194895</ele>
        <time>2022-06-01T08:26:06.572Z</time>
      </trkpt>
      <trkpt lat="42.45025" lon="18.54082">
        <ele>45.307916</ele>
        <time>2022-06-01T08:26:09.599Z</time>
      </trkpt>
      <trkpt lat="42.45018" lon="18.54068">
        <ele>45.393805</ele>
        <time>2022-06-01T08:26:12.583Z</time>
      </trkpt>
      <trkpt lat="42.45011" lon="18.54056">
        <ele>45.477183</ele>
        <time>2022-06-01T08:26:15.588Z</time>
      </trkpt>
      <trkpt lat="42.45005" lon="18.54044">
        <ele>45.555494</ele>
        <time>2022-06-01T08:26:18.572Z</time>
      </trkpt>
      <trkpt lat="42.45001" lon="18.54032">
        <ele>45.624814</ele>
        <time>2022-06-01T08:26:23.594Z</time>
      </trkpt>
      <trkpt lat="42.44997" lon="18.5402">
        <ele>45.692054</ele>
        <time>2022-06-01T08:26:27.576Z</time>
      </trkpt>
      <trkpt lat="42.44993" lon="18.54009">
        <ele>45.756019</ele>
        <time>2022-06-01T08:26:30.588Z</time>
      </trkpt>
      <trkpt lat="42.44991" lon="18.53996">
        <ele>45.82642</ele>
        <time>2022-06-01T08:26:33.567Z</time>
      </trkpt>
      <trkpt lat="42.44989" lon="18.53982">
        <ele>45.896872</ele>
        <time>2022-06-01T08:26:36.591Z</time>
      </trkpt>
      <trkpt lat="42.44988" lon="18.53969">
        <ele>45.967628</ele>
        <time>2022-06-01T08:26:39.617Z</time>
      </trkpt>
      <trkpt lat="42.44987" lon="18.53954">
        <ele>46.045608</ele>
        <time>2022-06-01T08:26:42.579Z</time>
      </trkpt>
      <trkpt lat="42.44986" lon="18.53939">
        <ele>46.123101</ele>
        <time>2022-06-01T08:26:45.582Z</time>
      </trkpt>
      <trkpt lat="42.44985" lon="18.53925">
        <ele>46.196788</ele>
        <time>2022-06-01T08:26:48.630Z</time>
      </trkpt>
      <trkpt lat="42.44983" lon="18.53911">
        <ele>46.272135</ele>
        <time>2022-06-01T08:26:51.597Z</time>
      </trkpt>
      <trkpt lat="42.4498" lon="18.53897">
        <ele>46.350496</ele>
        <time>2022-06-01T08:26:54.596Z</time>
      </trkpt>
      <trkpt lat="42.44976" lon="18.53881">
        <ele>46.435353</ele>
        <time>2022-06-01T08:26:57.598Z</time>
      </trkpt>
      <trkpt lat="42.44971" lon="18.53867">
        <ele>46.484234</ele>
        <time>2022-06-01T08:27:00.583Z</time>
      </trkpt>
      <trkpt lat="42.44967" lon="18.53855">
        <ele>46.31446</ele>
        <time>2022-06-01T08:27:03.611Z</time>
      </trkpt>
      <trkpt lat="42.4496" lon="18.53843">
        <ele>46.121959</ele>
        <time>2022-06-01T08:27:06.642Z</time>
      </trkpt>
      <trkpt lat="42.44954" lon="18.53829">
        <ele>45.919114</ele>
        <time>2022-06-01T08:27:09.590Z</time>
      </trkpt>
      <trkpt lat="42.44947" lon="18.53816">
        <ele>45.710572</ele>
        <time>2022-06-01T08:27:12.598Z</time>
      </trkpt>
      <trkpt lat="42.44941" lon="18.53802">
        <ele>45.503953</ele>
        <time>2022-06-01T08:27:15.583Z</time>
      </trkpt>
      <trkpt lat="42.44937" lon="18.53787">
        <ele>45.30288</ele>
        <time>2022-06-01T08:27:18.616Z</time>
      </trkpt>
      <trkpt lat="42.44934" lon="18.53771">
        <ele>45.101534</ele>
        <time>2022-06-01T08:27:21.574Z</time>
      </trkpt>
      <trkpt lat="42.44931" lon="18.53755">
        <ele>44.892033</ele>
        <time>2022-06-01T08:27:24.573Z</time>
      </trkpt>
      <trkpt lat="42.4493" lon="18.53739">
        <ele>44.680812</ele>
        <time>2022-06-01T08:27:27.590Z</time>
      </trkpt>
      <trkpt lat="42.44933" lon="18.53722">
        <ele>44.473507</ele>
        <time>2022-06-01T08:27:30.592Z</time>
      </trkpt>
      <trkpt lat="42.44935" lon="18.53707">
        <ele>44.267688</ele>
        <time>2022-06-01T08:27:33.578Z</time>
      </trkpt>
      <trkpt lat="42.44939" lon="18.53691">
        <ele>44.057348</ele>
        <time>2022-06-01T08:27:36.597Z</time>
      </trkpt>
      <trkpt lat="42.44946" lon="18.53676">
        <ele>43.83254</ele>
        <time>2022-06-01T08:27:39.582Z</time>
      </trkpt>
      <trkpt lat="42.44952" lon="18.53665">
        <ele>43.662659</ele>
        <time>2022-06-01T08:27:41.564Z</time>
      </trkpt>
      <trkpt lat="42.44957" lon="18.53655">
        <ele>43.499828</ele>
        <time>2022-06-01T08:27:43.609Z</time>
      </trkpt>
      <trkpt lat="42.44963" lon="18.53644">
        <ele>43.569531</ele>
        <time>2022-06-01T08:27:45.581Z</time>
      </trkpt>
      <trkpt lat="42.44968" lon="18.53631">
        <ele>43.900884</ele>
        <time>2022-06-01T08:27:48.594Z</time>
      </trkpt>
      <trkpt lat="42.44974" lon="18.53616">
        <ele>44.251242</ele>
        <time>2022-06-01T08:27:51.622Z</time>
      </trkpt>
      <trkpt lat="42.44979" lon="18.53601">
        <ele>44.613599</ele>
        <time>2022-06-01T08:27:54.580Z</time>
      </trkpt>
      <trkpt lat="42.44984" lon="18.53587">
        <ele>44.934063</ele>
        <time>2022-06-01T08:27:57.619Z</time>
      </trkpt>
      <trkpt lat="42.44987" lon="18.53575">
        <ele>45.202631</ele>
        <time>2022-06-01T08:27:59.594Z</time>
      </trkpt>
      <trkpt lat="42.44991" lon="18.53564">
        <ele>45.461644</ele>
        <time>2022-06-01T08:28:01.579Z</time>
      </trkpt>
      <trkpt lat="42.44996" lon="18.53554">
        <ele>45.721237</ele>
        <time>2022-06-01T08:28:03.583Z</time>
      </trkpt>
      <trkpt lat="42.45004" lon="18.5354">
        <ele>46.107055</ele>
        <time>2022-06-01T08:28:06.571Z</time>
      </trkpt>
      <trkpt lat="42.45014" lon="18.53527">
        <ele>46.479517</ele>
        <time>2022-06-01T08:28:09.586Z</time>
      </trkpt>
      <trkpt lat="42.45022" lon="18.53516">
        <ele>46.82225</ele>
        <time>2022-06-01T08:28:12.594Z</time>
      </trkpt>
      <trkpt lat="42.45027" lon="18.53504">
        <ele>47.121888</ele>
        <time>2022-06-01T08:28:15.593Z</time>
      </trkpt>
      <trkpt lat="42.45035" lon="18.53492">
        <ele>47.461095</ele>
        <time>2022-06-01T08:28:18.623Z</time>
      </trkpt>
      <trkpt lat="42.45041" lon="18.53481">
        <ele>47.727373</ele>
        <time>2022-06-01T08:28:21.573Z</time>
      </trkpt>
      <trkpt lat="42.45045" lon="18.53469">
        <ele>48.009699</ele>
        <time>2022-06-01T08:28:24.600Z</time>
      </trkpt>
      <trkpt lat="42.45051" lon="18.5346">
        <ele>48.272611</ele>
        <time>2022-06-01T08:28:26.581Z</time>
      </trkpt>
      <trkpt lat="42.45059" lon="18.53448">
        <ele>48.607042</ele>
        <time>2022-06-01T08:28:29.580Z</time>
      </trkpt>
      <trkpt lat="42.45065" lon="18.53438">
        <ele>48.745711</ele>
        <time>2022-06-01T08:28:32.593Z</time>
      </trkpt>
      <trkpt lat="42.45071" lon="18.53425">
        <ele>48.908478</ele>
        <time>2022-06-01T08:28:35.589Z</time>
      </trkpt>
      <trkpt lat="42.45077" lon="18.53415">
        <ele>49.043836</ele>
        <time>2022-06-01T08:28:37.573Z</time>
      </trkpt>
      <trkpt lat="42.45083" lon="18.53405">
        <ele>49.176611</ele>
        <time>2022-06-01T08:28:39.611Z</time>
      </trkpt>
      <trkpt lat="42.45089" lon="18.53395">
        <ele>49.305628</ele>
        <time>2022-06-01T08:28:41.609Z</time>
      </trkpt>
      <trkpt lat="42.45094" lon="18.53386">
        <ele>49.436001</ele>
        <time>2022-06-01T08:28:43.588Z</time>
      </trkpt>
      <trkpt lat="42.45101" lon="18.53372">
        <ele>49.607752</ele>
        <time>2022-06-01T08:28:46.601Z</time>
      </trkpt>
      <trkpt lat="42.45106" lon="18.53357">
        <ele>49.782618</ele>
        <time>2022-06-01T08:28:49.583Z</time>
      </trkpt>
      <trkpt lat="42.45112" lon="18.53341">
        <ele>49.967743</ele>
        <time>2022-06-01T08:28:52.586Z</time>
      </trkpt>
      <trkpt lat="42.45117" lon="18.53326">
        <ele>50.14814</ele>
        <time>2022-06-01T08:28:55.571Z</time>
      </trkpt>
      <trkpt lat="42.45123" lon="18.53311">
        <ele>50.322567</ele>
        <time>2022-06-01T08:28:58.609Z</time>
      </trkpt>
      <trkpt lat="42.45129" lon="18.53295">
        <ele>50.511767</ele>
        <time>2022-06-01T08:29:01.580Z</time>
      </trkpt>
      <trkpt lat="42.45134" lon="18.53278">
        <ele>50.703199</ele>
        <time>2022-06-01T08:29:04.581Z</time>
      </trkpt>
      <trkpt lat="42.4514" lon="18.53263">
        <ele>50.884865</ele>
        <time>2022-06-01T08:29:07.590Z</time>
      </trkpt>
      <trkpt lat="42.45145" lon="18.53247">
        <ele>51.065584</ele>
        <time>2022-06-01T08:29:10.585Z</time>
      </trkpt>
      <trkpt lat="42.4515" lon="18.53232">
        <ele>51.006203</ele>
        <time>2022-06-01T08:29:13.563Z</time>
      </trkpt>
      <trkpt lat="42.45155" lon="18.53217">
        <ele>50.671275</ele>
        <time>2022-06-01T08:29:16.584Z</time>
      </trkpt>
      <trkpt lat="42.45161" lon="18.53204">
        <ele>50.357269</ele>
        <time>2022-06-01T08:29:19.583Z</time>
      </trkpt>
      <trkpt lat="42.45168" lon="18.53192">
        <ele>50.064985</ele>
        <time>2022-06-01T08:29:23.577Z</time>
      </trkpt>
      <trkpt lat="42.45173" lon="18.53177">
        <ele>49.729904</ele>
        <time>2022-06-01T08:29:26.598Z</time>
      </trkpt>
      <trkpt lat="42.45176" lon="18.53163">
        <ele>49.449674</ele>
        <time>2022-06-01T08:29:28.578Z</time>
      </trkpt>
      <trkpt lat="42.45178" lon="18.53149">
        <ele>49.169422</ele>
        <time>2022-06-01T08:29:30.585Z</time>
      </trkpt>
      <trkpt lat="42.4518" lon="18.53137">
        <ele>48.907637</ele>
        <time>2022-06-01T08:29:32.593Z</time>
      </trkpt>
      <trkpt lat="42.45183" lon="18.53124">
        <ele>48.643112</ele>
        <time>2022-06-01T08:29:34.578Z</time>
      </trkpt>
      <trkpt lat="42.45186" lon="18.53108">
        <ele>48.31054</ele>
        <time>2022-06-01T08:29:37.623Z</time>
      </trkpt>
      <trkpt lat="42.45188" lon="18.53096">
        <ele>48.048121</ele>
        <time>2022-06-01T08:29:40.595Z</time>
      </trkpt>
      <trkpt lat="42.45192" lon="18.53079">
        <ele>47.707813</ele>
        <time>2022-06-01T08:29:43.660Z</time>
      </trkpt>
      <trkpt lat="42.45195" lon="18.53065">
        <ele>47.407143</ele>
        <time>2022-06-01T08:29:46.604Z</time>
      </trkpt>
      <trkpt lat="42.45201" lon="18.53055">
        <ele>47.158154</ele>
        <time>2022-06-01T08:29:49.580Z</time>
      </trkpt>
      <trkpt lat="42.45207" lon="18.53043">
        <ele>46.854484</ele>
        <time>2022-06-01T08:29:57.582Z</time>
      </trkpt>
      <trkpt lat="42.45214" lon="18.53033">
        <ele>46.593904</ele>
        <time>2022-06-01T08:30:00.587Z</time>
      </trkpt>
      <trkpt lat="42.45221" lon="18.53022">
        <ele>46.293971</ele>
        <time>2022-06-01T08:30:03.588Z</time>
      </trkpt>
      <trkpt lat="42.45231" lon="18.53013">
        <ele>45.700201</ele>
        <time>2022-06-01T08:30:06.590Z</time>
      </trkpt>
      <trkpt lat="42.45241" lon="18.53003">
        <ele>45.049272</ele>
        <time>2022-06-01T08:30:09.589Z</time>
      </trkpt>
      <trkpt lat="42.4525" lon="18.52992">
        <ele>44.443925</ele>
        <time>2022-06-01T08:30:12.583Z</time>
      </trkpt>
      <trkpt lat="42.4526" lon="18.52983">
        <ele>43.813977</ele>
        <time>2022-06-01T08:30:15.590Z</time>
      </trkpt>
      <trkpt lat="42.45269" lon="18.52971">
        <ele>43.170467</ele>
        <time>2022-06-01T08:30:18.580Z</time>
      </trkpt>
      <trkpt lat="42.45278" lon="18.52961">
        <ele>42.548349</ele>
        <time>2022-06-01T08:30:21.584Z</time>
      </trkpt>
      <trkpt lat="42.45287" lon="18.52949">
        <ele>41.898996</ele>
        <time>2022-06-01T08:30:24.575Z</time>
      </trkpt>
      <trkpt lat="42.45295" lon="18.52936">
        <ele>41.254367</ele>
        <time>2022-06-01T08:30:27.609Z</time>
      </trkpt>
      <trkpt lat="42.453" lon="18.52925">
        <ele>40.765167</ele>
        <time>2022-06-01T08:30:29.575Z</time>
      </trkpt>
      <trkpt lat="42.45304" lon="18.52914">
        <ele>40.28685</ele>
        <time>2022-06-01T08:30:31.594Z</time>
      </trkpt>
      <trkpt lat="42.45311" lon="18.529">
        <ele>39.629475</ele>
        <time>2022-06-01T08:30:34.577Z</time>
      </trkpt>
      <trkpt lat="42.45318" lon="18.52885">
        <ele>38.976016</ele>
        <time>2022-06-01T08:30:37.578Z</time>
      </trkpt>
      <trkpt lat="42.45322" lon="18.52874">
        <ele>38.506278</ele>
        <time>2022-06-01T08:30:39.593Z</time>
      </trkpt>
      <trkpt lat="42.45325" lon="18.52859">
        <ele>37.927173</ele>
        <time>2022-06-01T08:30:42.612Z</time>
      </trkpt>
      <trkpt lat="42.45327" lon="18.52842">
        <ele>37.273108</ele>
        <time>2022-06-01T08:30:45.590Z</time>
      </trkpt>
      <trkpt lat="42.4533" lon="18.52826">
        <ele>37.056078</ele>
        <time>2022-06-01T08:30:48.597Z</time>
      </trkpt>
      <trkpt lat="42.45332" lon="18.52809">
        <ele>37.228915</ele>
        <time>2022-06-01T08:30:51.586Z</time>
      </trkpt>
      <trkpt lat="42.45334" lon="18.52792">
        <ele>37.399752</ele>
        <time>2022-06-01T08:30:54.585Z</time>
      </trkpt>
      <trkpt lat="42.45335" lon="18.52777">
        <ele>37.550794</ele>
        <time>2022-06-01T08:30:57.579Z</time>
      </trkpt>
      <trkpt lat="42.45335" lon="18.52765">
        <ele>37.676282</ele>
        <time>2022-06-01T08:31:00.593Z</time>
      </trkpt>
      <trkpt lat="42.45335" lon="18.5275">
        <ele>37.825004</ele>
        <time>2022-06-01T08:31:05.570Z</time>
      </trkpt>
      <trkpt lat="42.45324" lon="18.52708">
        <ele>38.276225</ele>
        <time>2022-06-01T08:31:12.634Z</time>
      </trkpt>
      <trkpt lat="42.45337" lon="18.52706">
        <ele>38.456652</ele>
        <time>2022-06-01T08:31:13.588Z</time>
      </trkpt>
      <trkpt lat="42.45347" lon="18.52698">
        <ele>38.606636</ele>
        <time>2022-06-01T08:31:15.574Z</time>
      </trkpt>
      <trkpt lat="42.45356" lon="18.52693">
        <ele>38.74067</ele>
        <time>2022-06-01T08:31:17.578Z</time>
      </trkpt>
      <trkpt lat="42.45365" lon="18.52685">
        <ele>38.890815</ele>
        <time>2022-06-01T08:31:20.604Z</time>
      </trkpt>
      <trkpt lat="42.45372" lon="18.52674">
        <ele>39.039111</ele>
        <time>2022-06-01T08:31:23.624Z</time>
      </trkpt>
      <trkpt lat="42.45381" lon="18.5266">
        <ele>39.220969</ele>
        <time>2022-06-01T08:31:26.597Z</time>
      </trkpt>
      <trkpt lat="42.45386" lon="18.52649">
        <ele>39.355922</ele>
        <time>2022-06-01T08:31:28.583Z</time>
      </trkpt>
      <trkpt lat="42.45394" lon="18.52637">
        <ele>39.743391</ele>
        <time>2022-06-01T08:31:31.598Z</time>
      </trkpt>
      <trkpt lat="42.45405" lon="18.52629">
        <ele>40.289079</ele>
        <time>2022-06-01T08:31:34.582Z</time>
      </trkpt>
      <trkpt lat="42.45415" lon="18.5262">
        <ele>40.857176</ele>
        <time>2022-06-01T08:31:37.577Z</time>
      </trkpt>
      <trkpt lat="42.45426" lon="18.52614">
        <ele>41.365817</ele>
        <time>2022-06-01T08:31:40.585Z</time>
      </trkpt>
      <trkpt lat="42.45437" lon="18.52608">
        <ele>41.930073</ele>
        <time>2022-06-01T08:31:43.623Z</time>
      </trkpt>
      <trkpt lat="42.45449" lon="18.52602">
        <ele>42.484168</ele>
        <time>2022-06-01T08:31:46.588Z</time>
      </trkpt>
      <trkpt lat="42.4546" lon="18.52597">
        <ele>43.031706</ele>
        <time>2022-06-01T08:31:49.629Z</time>
      </trkpt>
      <trkpt lat="42.45471" lon="18.52591">
        <ele>43.536875</ele>
        <time>2022-06-01T08:31:52.588Z</time>
      </trkpt>
      <trkpt lat="42.4548" lon="18.52586">
        <ele>43.986406</ele>
        <time>2022-06-01T08:31:55.590Z</time>
      </trkpt>
      <trkpt lat="42.45489" lon="18.52579">
        <ele>44.441518</ele>
        <time>2022-06-01T08:31:58.578Z</time>
      </trkpt>
      <trkpt lat="42.45497" lon="18.5257">
        <ele>44.934196</ele>
        <time>2022-06-01T08:32:01.614Z</time>
      </trkpt>
      <trkpt lat="42.45505" lon="18.52563">
        <ele>45.33949</ele>
        <time>2022-06-01T08:32:04.586Z</time>
      </trkpt>
      <trkpt lat="42.45513" lon="18.52555">
        <ele>45.787191</ele>
        <time>2022-06-01T08:32:07.638Z</time>
      </trkpt>
      <trkpt lat="42.45522" lon="18.52546">
        <ele>46.306237</ele>
        <time>2022-06-01T08:32:10.590Z</time>
      </trkpt>
      <trkpt lat="42.45534" lon="18.52538">
        <ele>46.900745</ele>
        <time>2022-06-01T08:32:13.583Z</time>
      </trkpt>
      <trkpt lat="42.45544" lon="18.52531">
        <ele>47.441833</ele>
        <time>2022-06-01T08:32:16.589Z</time>
      </trkpt>
      <trkpt lat="42.45553" lon="18.52523">
        <ele>47.520954</ele>
        <time>2022-06-01T08:32:19.571Z</time>
      </trkpt>
      <trkpt lat="42.45564" lon="18.52515">
        <ele>47.451028</ele>
        <time>2022-06-01T08:32:22.580Z</time>
      </trkpt>
      <trkpt lat="42.45575" lon="18.52509">
        <ele>47.383416</ele>
        <time>2022-06-01T08:32:25.581Z</time>
      </trkpt>
      <trkpt lat="42.45586" lon="18.52501">
        <ele>47.315275</ele>
        <time>2022-06-01T08:32:28.596Z</time>
      </trkpt>
      <trkpt lat="42.45595" lon="18.52493">
        <ele>47.25522</ele>
        <time>2022-06-01T08:32:31.577Z</time>
      </trkpt>
      <trkpt lat="42.45603" lon="18.52482">
        <ele>47.187674</ele>
        <time>2022-06-01T08:32:34.581Z</time>
      </trkpt>
      <trkpt lat="42.45611" lon="18.52469">
        <ele>47.119701</ele>
        <time>2022-06-01T08:32:37.588Z</time>
      </trkpt>
      <trkpt lat="42.45617" lon="18.52455">
        <ele>47.049815</ele>
        <time>2022-06-01T08:32:40.586Z</time>
      </trkpt>
      <trkpt lat="42.45623" lon="18.52442">
        <ele>46.9877</ele>
        <time>2022-06-01T08:32:43.596Z</time>
      </trkpt>
      <trkpt lat="42.45629" lon="18.52427">
        <ele>46.916498</ele>
        <time>2022-06-01T08:32:46.608Z</time>
      </trkpt>
      <trkpt lat="42.45634" lon="18.52411">
        <ele>46.844355</ele>
        <time>2022-06-01T08:32:49.570Z</time>
      </trkpt>
      <trkpt lat="42.45639" lon="18.52398">
        <ele>46.780981</ele>
        <time>2022-06-01T08:32:52.583Z</time>
      </trkpt>
      <trkpt lat="42.45644" lon="18.52385">
        <ele>46.721357</ele>
        <time>2022-06-01T08:32:55.587Z</time>
      </trkpt>
      <trkpt lat="42.45647" lon="18.52371">
        <ele>46.659548</ele>
        <time>2022-06-01T08:32:58.596Z</time>
      </trkpt>
      <trkpt lat="42.45651" lon="18.52355">
        <ele>46.589374</ele>
        <time>2022-06-01T08:33:01.581Z</time>
      </trkpt>
      <trkpt lat="42.45657" lon="18.52341">
        <ele>46.496143</ele>
        <time>2022-06-01T08:33:04.580Z</time>
      </trkpt>
      <trkpt lat="42.45661" lon="18.52329">
        <ele>46.372801</ele>
        <time>2022-06-01T08:33:07.600Z</time>
      </trkpt>
      <trkpt lat="42.45665" lon="18.52316">
        <ele>46.244122</ele>
        <time>2022-06-01T08:33:10.576Z</time>
      </trkpt>
      <trkpt lat="42.4567" lon="18.52302">
        <ele>46.106445</ele>
        <time>2022-06-01T08:33:14.566Z</time>
      </trkpt>
      <trkpt lat="42.45675" lon="18.5229">
        <ele>45.986622</ele>
        <time>2022-06-01T08:33:17.620Z</time>
      </trkpt>
      <trkpt lat="42.45679" lon="18.52278">
        <ele>45.85944</ele>
        <time>2022-06-01T08:33:20.630Z</time>
      </trkpt>
      <trkpt lat="42.45683" lon="18.52265">
        <ele>45.738714</ele>
        <time>2022-06-01T08:33:23.591Z</time>
      </trkpt>
      <trkpt lat="42.45688" lon="18.52252">
        <ele>45.604992</ele>
        <time>2022-06-01T08:33:26.578Z</time>
      </trkpt>
      <trkpt lat="42.45695" lon="18.5224">
        <ele>45.470367</ele>
        <time>2022-06-01T08:33:29.584Z</time>
      </trkpt>
      <trkpt lat="42.45701" lon="18.5223">
        <ele>45.351016</ele>
        <time>2022-06-01T08:33:32.582Z</time>
      </trkpt>
      <trkpt lat="42.45708" lon="18.52222">
        <ele>45.230821</ele>
        <time>2022-06-01T08:33:35.582Z</time>
      </trkpt>
      <trkpt lat="42.45716" lon="18.52213">
        <ele>45.110161</ele>
        <time>2022-06-01T08:33:38.589Z</time>
      </trkpt>
      <trkpt lat="42.45724" lon="18.52205">
        <ele>44.98028</ele>
        <time>2022-06-01T08:33:42.583Z</time>
      </trkpt>
      <trkpt lat="42.45733" lon="18.52195">
        <ele>44.841257</ele>
        <time>2022-06-01T08:33:45.577Z</time>
      </trkpt>
      <trkpt lat="42.45742" lon="18.52185">
        <ele>44.698044</ele>
        <time>2022-06-01T08:33:48.585Z</time>
      </trkpt>
      <trkpt lat="42.45749" lon="18.52173">
        <ele>44.558288</ele>
        <time>2022-06-01T08:33:51.604Z</time>
      </trkpt>
      <trkpt lat="42.45755" lon="18.52159">
        <ele>44.417634</ele>
        <time>2022-06-01T08:33:54.562Z</time>
      </trkpt>
      <trkpt lat="42.45759" lon="18.52145">
        <ele>44.168483</ele>
        <time>2022-06-01T08:33:57.588Z</time>
      </trkpt>
      <trkpt lat="42.45764" lon="18.52133">
        <ele>43.818114</ele>
        <time>2022-06-01T08:34:00.595Z</time>
      </trkpt>
      <trkpt lat="42.45769" lon="18.5212">
        <ele>43.458684</ele>
        <time>2022-06-01T08:34:03.628Z</time>
      </trkpt>
      <trkpt lat="42.45773" lon="18.52106">
        <ele>43.086629</ele>
        <time>2022-06-01T08:34:06.594Z</time>
      </trkpt>
      <trkpt lat="42.45776" lon="18.52091">
        <ele>42.715538</ele>
        <time>2022-06-01T08:34:09.599Z</time>
      </trkpt>
      <trkpt lat="42.4578" lon="18.52078">
        <ele>42.354494</ele>
        <time>2022-06-01T08:34:12.586Z</time>
      </trkpt>
      <trkpt lat="42.45785" lon="18.52064">
        <ele>41.974474</ele>
        <time>2022-06-01T08:34:15.602Z</time>
      </trkpt>
      <trkpt lat="42.4579" lon="18.5205">
        <ele>41.600523</ele>
        <time>2022-06-01T08:34:18.577Z</time>
      </trkpt>
      <trkpt lat="42.45796" lon="18.52038">
        <ele>41.235344</ele>
        <time>2022-06-01T08:34:21.585Z</time>
      </trkpt>
      <trkpt lat="42.45802" lon="18.52024">
        <ele>40.856476</ele>
        <time>2022-06-01T08:34:24.574Z</time>
      </trkpt>
      <trkpt lat="42.45808" lon="18.52011">
        <ele>40.466577</ele>
        <time>2022-06-01T08:34:27.587Z</time>
      </trkpt>
      <trkpt lat="42.45815" lon="18.51998">
        <ele>40.062966</ele>
        <time>2022-06-01T08:34:30.581Z</time>
      </trkpt>
      <trkpt lat="42.45822" lon="18.51984">
        <ele>39.653569</ele>
        <time>2022-06-01T08:34:33.581Z</time>
      </trkpt>
      <trkpt lat="42.45829" lon="18.5197">
        <ele>39.231785</ele>
        <time>2022-06-01T08:34:36.697Z</time>
      </trkpt>
      <trkpt lat="42.45837" lon="18.51956">
        <ele>38.804112</ele>
        <time>2022-06-01T08:34:39.596Z</time>
      </trkpt>
      <trkpt lat="42.45843" lon="18.51942">
        <ele>38.404082</ele>
        <time>2022-06-01T08:34:42.581Z</time>
      </trkpt>
      <trkpt lat="42.45849" lon="18.51929">
        <ele>38.546883</ele>
        <time>2022-06-01T08:34:45.594Z</time>
      </trkpt>
      <trkpt lat="42.45855" lon="18.51916">
        <ele>38.834494</ele>
        <time>2022-06-01T08:34:48.581Z</time>
      </trkpt>
      <trkpt lat="42.45861" lon="18.51904">
        <ele>39.098823</ele>
        <time>2022-06-01T08:34:51.581Z</time>
      </trkpt>
      <trkpt lat="42.45867" lon="18.51892">
        <ele>39.358576</ele>
        <time>2022-06-01T08:34:54.606Z</time>
      </trkpt>
      <trkpt lat="42.45872" lon="18.51879">
        <ele>39.616817</ele>
        <time>2022-06-01T08:34:57.591Z</time>
      </trkpt>
      <trkpt lat="42.45878" lon="18.51867">
        <ele>39.876918</ele>
        <time>2022-06-01T08:35:00.571Z</time>
      </trkpt>
      <trkpt lat="42.45884" lon="18.51856">
        <ele>40.129338</ele>
        <time>2022-06-01T08:35:03.615Z</time>
      </trkpt>
      <trkpt lat="42.4589" lon="18.51846">
        <ele>40.365009</ele>
        <time>2022-06-01T08:35:06.584Z</time>
      </trkpt>
      <trkpt lat="42.45896" lon="18.51833">
        <ele>40.640671</ele>
        <time>2022-06-01T08:35:09.619Z</time>
      </trkpt>
      <trkpt lat="42.45901" lon="18.51816">
        <ele>40.974959</ele>
        <time>2022-06-01T08:35:12.572Z</time>
      </trkpt>
      <trkpt lat="42.45902" lon="18.51801">
        <ele>41.24222</ele>
        <time>2022-06-01T08:35:15.623Z</time>
      </trkpt>
      <trkpt lat="42.45906" lon="18.51784">
        <ele>41.562886</ele>
        <time>2022-06-01T08:35:18.572Z</time>
      </trkpt>
      <trkpt lat="42.45909" lon="18.51772">
        <ele>41.804486</ele>
        <time>2022-06-01T08:35:20.582Z</time>
      </trkpt>
      <trkpt lat="42.45913" lon="18.51759">
        <ele>42.042631</ele>
        <time>2022-06-01T08:35:22.581Z</time>
      </trkpt>
      <trkpt lat="42.45917" lon="18.51744">
        <ele>42.342401</ele>
        <time>2022-06-01T08:35:25.575Z</time>
      </trkpt>
      <trkpt lat="42.45922" lon="18.51731">
        <ele>42.601369</ele>
        <time>2022-06-01T08:35:28.594Z</time>
      </trkpt>
      <trkpt lat="42.45925" lon="18.51716">
        <ele>42.893023</ele>
        <time>2022-06-01T08:35:31.570Z</time>
      </trkpt>
      <trkpt lat="42.45925" lon="18.51699">
        <ele>43.243625</ele>
        <time>2022-06-01T08:35:34.567Z</time>
      </trkpt>
      <trkpt lat="42.45924" lon="18.51686">
        <ele>43.512628</ele>
        <time>2022-06-01T08:35:36.582Z</time>
      </trkpt>
      <trkpt lat="42.45922" lon="18.51672">
        <ele>43.799766</ele>
        <time>2022-06-01T08:35:38.578Z</time>
      </trkpt>
      <trkpt lat="42.45919" lon="18.51655">
        <ele>44.165543</ele>
        <time>2022-06-01T08:35:41.576Z</time>
      </trkpt>
      <trkpt lat="42.45918" lon="18.51639">
        <ele>44.48932</ele>
        <time>2022-06-01T08:35:44.611Z</time>
      </trkpt>
      <trkpt lat="42.45916" lon="18.51623">
        <ele>44.822496</ele>
        <time>2022-06-01T08:35:47.584Z</time>
      </trkpt>
      <trkpt lat="42.4591" lon="18.51607">
        <ele>45.182202</ele>
        <time>2022-06-01T08:35:50.599Z</time>
      </trkpt>
      <trkpt lat="42.45904" lon="18.51594">
        <ele>45.494969</ele>
        <time>2022-06-01T08:35:53.608Z</time>
      </trkpt>
      <trkpt lat="42.45898" lon="18.5158">
        <ele>45.819917</ele>
        <time>2022-06-01T08:35:56.591Z</time>
      </trkpt>
      <trkpt lat="42.45893" lon="18.51569">
        <ele>46.088289</ele>
        <time>2022-06-01T08:35:59.590Z</time>
      </trkpt>
      <trkpt lat="42.45887" lon="18.51555">
        <ele>46.40434</ele>
        <time>2022-06-01T08:36:02.584Z</time>
      </trkpt>
      <trkpt lat="42.45882" lon="18.51541">
        <ele>46.722519</ele>
        <time>2022-06-01T08:36:05.569Z</time>
      </trkpt>
      <trkpt lat="42.45878" lon="18.5153">
        <ele>46.986509</ele>
        <time>2022-06-01T08:36:08.591Z</time>
      </trkpt>
      <trkpt lat="42.45873" lon="18.51518">
        <ele>47.261574</ele>
        <time>2022-06-01T08:36:11.581Z</time>
      </trkpt>
      <trkpt lat="42.45868" lon="18.51504">
        <ele>47.579415</ele>
        <time>2022-06-01T08:36:14.594Z</time>
      </trkpt>
      <trkpt lat="42.45862" lon="18.5149">
        <ele>47.600004</ele>
        <time>2022-06-01T08:36:17.597Z</time>
      </trkpt>
      <trkpt lat="42.45857" lon="18.51476">
        <ele>47.4219</ele>
        <time>2022-06-01T08:36:20.590Z</time>
      </trkpt>
      <trkpt lat="42.45852" lon="18.51462">
        <ele>47.24894</ele>
        <time>2022-06-01T08:36:23.584Z</time>
      </trkpt>
      <trkpt lat="42.45847" lon="18.51449">
        <ele>47.079716</ele>
        <time>2022-06-01T08:36:26.585Z</time>
      </trkpt>
      <trkpt lat="42.45843" lon="18.51434">
        <ele>46.89913</ele>
        <time>2022-06-01T08:36:29.588Z</time>
      </trkpt>
      <trkpt lat="42.45839" lon="18.5142">
        <ele>46.726815</ele>
        <time>2022-06-01T08:36:32.590Z</time>
      </trkpt>
      <trkpt lat="42.45833" lon="18.51407">
        <ele>46.551985</ele>
        <time>2022-06-01T08:36:35.612Z</time>
      </trkpt>
      <trkpt lat="42.45828" lon="18.51394">
        <ele>46.380875</ele>
        <time>2022-06-01T08:36:38.598Z</time>
      </trkpt>
      <trkpt lat="42.45822" lon="18.5138">
        <ele>46.206509</ele>
        <time>2022-06-01T08:36:41.625Z</time>
      </trkpt>
      <trkpt lat="42.45817" lon="18.51365">
        <ele>46.025703</ele>
        <time>2022-06-01T08:36:44.590Z</time>
      </trkpt>
      <trkpt lat="42.45811" lon="18.51352">
        <ele>45.848002</ele>
        <time>2022-06-01T08:36:47.590Z</time>
      </trkpt>
      <trkpt lat="42.45806" lon="18.5134">
        <ele>45.683576</ele>
        <time>2022-06-01T08:36:50.585Z</time>
      </trkpt>
      <trkpt lat="42.45801" lon="18.51328">
        <ele>45.528089</ele>
        <time>2022-06-01T08:36:53.580Z</time>
      </trkpt>
      <trkpt lat="42.45796" lon="18.51316">
        <ele>45.371851</ele>
        <time>2022-06-01T08:36:56.582Z</time>
      </trkpt>
      <trkpt lat="42.45789" lon="18.51302">
        <ele>45.189646</ele>
        <time>2022-06-01T08:36:59.576Z</time>
      </trkpt>
      <trkpt lat="42.45785" lon="18.5129">
        <ele>45.040365</ele>
        <time>2022-06-01T08:37:02.609Z</time>
      </trkpt>
      <trkpt lat="42.45781" lon="18.5128">
        <ele>45.044751</ele>
        <time>2022-06-01T08:37:05.605Z</time>
      </trkpt>
      <trkpt lat="42.45772" lon="18.51268">
        <ele>45.453541</ele>
        <time>2022-06-01T08:37:09.591Z</time>
      </trkpt>
      <trkpt lat="42.45766" lon="18.51259">
        <ele>45.782186</ele>
        <time>2022-06-01T08:37:12.581Z</time>
      </trkpt>
      <trkpt lat="42.45759" lon="18.51247">
        <ele>46.149264</ele>
        <time>2022-06-01T08:37:15.592Z</time>
      </trkpt>
      <trkpt lat="42.45752" lon="18.51235">
        <ele>46.546516</ele>
        <time>2022-06-01T08:37:18.580Z</time>
      </trkpt>
      <trkpt lat="42.45746" lon="18.51224">
        <ele>46.895248</ele>
        <time>2022-06-01T08:37:21.577Z</time>
      </trkpt>
      <trkpt lat="42.45741" lon="18.51212">
        <ele>47.245749</ele>
        <time>2022-06-01T08:37:24.614Z</time>
      </trkpt>
      <trkpt lat="42.45734" lon="18.512">
        <ele>47.61462</ele>
        <time>2022-06-01T08:37:27.577Z</time>
      </trkpt>
      <trkpt lat="42.45727" lon="18.5119">
        <ele>47.971483</ele>
        <time>2022-06-01T08:37:30.595Z</time>
      </trkpt>
      <trkpt lat="42.45719" lon="18.51179">
        <ele>48.354516</ele>
        <time>2022-06-01T08:37:33.581Z</time>
      </trkpt>
      <trkpt lat="42.45711" lon="18.51169">
        <ele>48.714347</ele>
        <time>2022-06-01T08:37:36.617Z</time>
      </trkpt>
      <trkpt lat="42.45703" lon="18.51157">
        <ele>49.118437</ele>
        <time>2022-06-01T08:37:39.580Z</time>
      </trkpt>
      <trkpt lat="42.45697" lon="18.51146">
        <ele>49.479637</ele>
        <time>2022-06-01T08:37:42.618Z</time>
      </trkpt>
      <trkpt lat="42.45689" lon="18.51133">
        <ele>49.911497</ele>
        <time>2022-06-01T08:37:45.580Z</time>
      </trkpt>
      <trkpt lat="42.45681" lon="18.5112">
        <ele>50.321058</ele>
        <time>2022-06-01T08:37:48.579Z</time>
      </trkpt>
      <trkpt lat="42.45674" lon="18.51108">
        <ele>50.717814</ele>
        <time>2022-06-01T08:37:51.568Z</time>
      </trkpt>
      <trkpt lat="42.45666" lon="18.51096">
        <ele>51.044441</ele>
        <time>2022-06-01T08:37:54.579Z</time>
      </trkpt>
      <trkpt lat="42.45657" lon="18.51084">
        <ele>50.571041</ele>
        <time>2022-06-01T08:37:57.576Z</time>
      </trkpt>
      <trkpt lat="42.45649" lon="18.51071">
        <ele>50.06515</ele>
        <time>2022-06-01T08:38:00.588Z</time>
      </trkpt>
      <trkpt lat="42.45641" lon="18.51058">
        <ele>49.590369</ele>
        <time>2022-06-01T08:38:03.578Z</time>
      </trkpt>
      <trkpt lat="42.45634" lon="18.51046">
        <ele>49.143887</ele>
        <time>2022-06-01T08:38:06.598Z</time>
      </trkpt>
      <trkpt lat="42.45628" lon="18.51034">
        <ele>48.7391</ele>
        <time>2022-06-01T08:38:09.579Z</time>
      </trkpt>
      <trkpt lat="42.45621" lon="18.51022">
        <ele>48.292737</ele>
        <time>2022-06-01T08:38:12.588Z</time>
      </trkpt>
      <trkpt lat="42.45613" lon="18.51009">
        <ele>47.81848</ele>
        <time>2022-06-01T08:38:15.574Z</time>
      </trkpt>
      <trkpt lat="42.45605" lon="18.50996">
        <ele>47.342976</ele>
        <time>2022-06-01T08:38:18.593Z</time>
      </trkpt>
      <trkpt lat="42.45597" lon="18.50985">
        <ele>46.881744</ele>
        <time>2022-06-01T08:38:21.594Z</time>
      </trkpt>
      <trkpt lat="42.45589" lon="18.50972">
        <ele>46.40793</ele>
        <time>2022-06-01T08:38:24.582Z</time>
      </trkpt>
      <trkpt lat="42.45581" lon="18.5096">
        <ele>45.935328</ele>
        <time>2022-06-01T08:38:27.597Z</time>
      </trkpt>
      <trkpt lat="42.45573" lon="18.50948">
        <ele>45.499189</ele>
        <time>2022-06-01T08:38:30.582Z</time>
      </trkpt>
      <trkpt lat="42.45566" lon="18.50938">
        <ele>45.105201</ele>
        <time>2022-06-01T08:38:33.627Z</time>
      </trkpt>
      <trkpt lat="42.45558" lon="18.50928">
        <ele>44.667786</ele>
        <time>2022-06-01T08:38:36.582Z</time>
      </trkpt>
      <trkpt lat="42.45551" lon="18.50918">
        <ele>44.276453</ele>
        <time>2022-06-01T08:38:39.616Z</time>
      </trkpt>
      <trkpt lat="42.45545" lon="18.50907">
        <ele>44.055412</ele>
        <time>2022-06-01T08:38:42.591Z</time>
      </trkpt>
      <trkpt lat="42.45536" lon="18.50894">
        <ele>43.917658</ele>
        <time>2022-06-01T08:38:45.622Z</time>
      </trkpt>
      <trkpt lat="42.45529" lon="18.50884">
        <ele>43.81845</ele>
        <time>2022-06-01T08:38:47.579Z</time>
      </trkpt>
      <trkpt lat="42.45523" lon="18.50875">
        <ele>43.723266</ele>
        <time>2022-06-01T08:38:49.573Z</time>
      </trkpt>
      <trkpt lat="42.45516" lon="18.50866">
        <ele>43.630251</ele>
        <time>2022-06-01T08:38:51.584Z</time>
      </trkpt>
      <trkpt lat="42.45509" lon="18.50858">
        <ele>43.534059</ele>
        <time>2022-06-01T08:38:53.595Z</time>
      </trkpt>
      <trkpt lat="42.455" lon="18.50846">
        <ele>43.397264</ele>
        <time>2022-06-01T08:38:56.618Z</time>
      </trkpt>
      <trkpt lat="42.4549" lon="18.50834">
        <ele>43.262244</ele>
        <time>2022-06-01T08:38:59.574Z</time>
      </trkpt>
      <trkpt lat="42.4548" lon="18.50822">
        <ele>43.129431</ele>
        <time>2022-06-01T08:39:02.574Z</time>
      </trkpt>
      <trkpt lat="42.45472" lon="18.50809">
        <ele>43.001682</ele>
        <time>2022-06-01T08:39:05.583Z</time>
      </trkpt>
      <trkpt lat="42.45463" lon="18.50798">
        <ele>42.8797</ele>
        <time>2022-06-01T08:39:08.580Z</time>
      </trkpt>
      <trkpt lat="42.45454" lon="18.50787">
        <ele>42.753563</ele>
        <time>2022-06-01T08:39:11.579Z</time>
      </trkpt>
      <trkpt lat="42.45445" lon="18.50775">
        <ele>42.624011</ele>
        <time>2022-06-01T08:39:14.597Z</time>
      </trkpt>
      <trkpt lat="42.45437" lon="18.50763">
        <ele>42.49975</ele>
        <time>2022-06-01T08:39:17.594Z</time>
      </trkpt>
      <trkpt lat="42.45428" lon="18.50751">
        <ele>42.370808</ele>
        <time>2022-06-01T08:39:20.674Z</time>
      </trkpt>
      <trkpt lat="42.45419" lon="18.50739">
        <ele>42.179478</ele>
        <time>2022-06-01T08:39:23.583Z</time>
      </trkpt>
      <trkpt lat="42.4541" lon="18.50728">
        <ele>41.777565</ele>
        <time>2022-06-01T08:39:26.598Z</time>
      </trkpt>
      <trkpt lat="42.45401" lon="18.50716">
        <ele>41.368163</ele>
        <time>2022-06-01T08:39:29.595Z</time>
      </trkpt>
      <trkpt lat="42.45395" lon="18.50702">
        <ele>40.96223</ele>
        <time>2022-06-01T08:39:32.600Z</time>
      </trkpt>
      <trkpt lat="42.45395" lon="18.50684">
        <ele>40.533302</ele>
        <time>2022-06-01T08:39:35.577Z</time>
      </trkpt>
      <trkpt lat="42.454" lon="18.5067">
        <ele>40.150047</ele>
        <time>2022-06-01T08:39:38.591Z</time>
      </trkpt>
      <trkpt lat="42.45405" lon="18.50658">
        <ele>39.82541</ele>
        <time>2022-06-01T08:39:41.666Z</time>
      </trkpt>
      <trkpt lat="42.45409" lon="18.50645">
        <ele>39.485492</ele>
        <time>2022-06-01T08:39:44.579Z</time>
      </trkpt>
      <trkpt lat="42.45412" lon="18.50632">
        <ele>39.156875</ele>
        <time>2022-06-01T08:39:47.582Z</time>
      </trkpt>
      <trkpt lat="42.45414" lon="18.50621">
        <ele>38.859508</ele>
        <time>2022-06-01T08:39:50.585Z</time>
      </trkpt>
      <trkpt lat="42.45418" lon="18.50606">
        <ele>38.492502</ele>
        <time>2022-06-01T08:39:54.580Z</time>
      </trkpt>
      <trkpt lat="42.45422" lon="18.50592">
        <ele>38.120666</ele>
        <time>2022-06-01T08:39:58.592Z</time>
      </trkpt>
      <trkpt lat="42.45427" lon="18.5058">
        <ele>37.782594</ele>
        <time>2022-06-01T08:40:02.578Z</time>
      </trkpt>
      <trkpt lat="42.45432" lon="18.50568">
        <ele>37.456217</ele>
        <time>2022-06-01T08:40:06.599Z</time>
      </trkpt>
      <trkpt lat="42.45437" lon="18.50555">
        <ele>37.0925</ele>
        <time>2022-06-01T08:40:10.578Z</time>
      </trkpt>
      <trkpt lat="42.45445" lon="18.50544">
        <ele>36.740251</ele>
        <time>2022-06-01T08:40:14.629Z</time>
      </trkpt>
      <trkpt lat="42.45451" lon="18.50536">
        <ele>36.443026</ele>
        <time>2022-06-01T08:40:17.592Z</time>
      </trkpt>
      <trkpt lat="42.45459" lon="18.50528">
        <ele>36.609314</ele>
        <time>2022-06-01T08:40:20.594Z</time>
      </trkpt>
      <trkpt lat="42.45467" lon="18.50518">
        <ele>36.952398</ele>
        <time>2022-06-01T08:40:23.592Z</time>
      </trkpt>
      <trkpt lat="42.45474" lon="18.50508">
        <ele>37.284768</ele>
        <time>2022-06-01T08:40:26.618Z</time>
      </trkpt>
      <trkpt lat="42.45482" lon="18.50498">
        <ele>37.634057</ele>
        <time>2022-06-01T08:40:29.589Z</time>
      </trkpt>
      <trkpt lat="42.4549" lon="18.50488">
        <ele>37.973321</ele>
        <time>2022-06-01T08:40:32.575Z</time>
      </trkpt>
      <trkpt lat="42.45498" lon="18.50478">
        <ele>38.349985</ele>
        <time>2022-06-01T08:40:35.655Z</time>
      </trkpt>
      <trkpt lat="42.45505" lon="18.50469">
        <ele>38.653299</ele>
        <time>2022-06-01T08:40:39.582Z</time>
      </trkpt>
      <trkpt lat="42.45513" lon="18.5046">
        <ele>38.998053</ele>
        <time>2022-06-01T08:40:43.662Z</time>
      </trkpt>
      <trkpt lat="42.45521" lon="18.50448">
        <ele>39.358299</ele>
        <time>2022-06-01T08:40:46.581Z</time>
      </trkpt>
      <trkpt lat="42.45527" lon="18.50434">
        <ele>39.743088</ele>
        <time>2022-06-01T08:40:49.571Z</time>
      </trkpt>
      <trkpt lat="42.45531" lon="18.5042">
        <ele>40.111808</ele>
        <time>2022-06-01T08:40:52.592Z</time>
      </trkpt>
      <trkpt lat="42.45532" lon="18.50408">
        <ele>40.402169</ele>
        <time>2022-06-01T08:40:55.578Z</time>
      </trkpt>
      <trkpt lat="42.45535" lon="18.50393">
        <ele>40.76575</ele>
        <time>2022-06-01T08:40:58.578Z</time>
      </trkpt>
      <trkpt lat="42.45539" lon="18.5038">
        <ele>41.093258</ele>
        <time>2022-06-01T08:41:01.583Z</time>
      </trkpt>
      <trkpt lat="42.45539" lon="18.50368">
        <ele>41.385497</ele>
        <time>2022-06-01T08:41:04.590Z</time>
      </trkpt>
      <trkpt lat="42.45541" lon="18.50354">
        <ele>41.729114</ele>
        <time>2022-06-01T08:41:07.575Z</time>
      </trkpt>
      <trkpt lat="42.45544" lon="18.50342">
        <ele>42.016638</ele>
        <time>2022-06-01T08:41:10.571Z</time>
      </trkpt>
      <trkpt lat="42.45545" lon="18.50326">
        <ele>42.268305</ele>
        <time>2022-06-01T08:41:14.583Z</time>
      </trkpt>
      <trkpt lat="42.45546" lon="18.50312">
        <ele>42.43219</ele>
        <time>2022-06-01T08:41:17.598Z</time>
      </trkpt>
      <trkpt lat="42.45545" lon="18.50297">
        <ele>42.605707</ele>
        <time>2022-06-01T08:41:20.647Z</time>
      </trkpt>
      <trkpt lat="42.45543" lon="18.50281">
        <ele>42.78509</ele>
        <time>2022-06-01T08:41:23.577Z</time>
      </trkpt>
      <trkpt lat="42.45542" lon="18.50265">
        <ele>42.964791</ele>
        <time>2022-06-01T08:41:26.569Z</time>
      </trkpt>
      <trkpt lat="42.45541" lon="18.5025">
        <ele>43.138369</ele>
        <time>2022-06-01T08:41:29.583Z</time>
      </trkpt>
      <trkpt lat="42.45541" lon="18.50234">
        <ele>43.320596</ele>
        <time>2022-06-01T08:41:32.584Z</time>
      </trkpt>
      <trkpt lat="42.45541" lon="18.50219">
        <ele>43.495933</ele>
        <time>2022-06-01T08:41:35.582Z</time>
      </trkpt>
      <trkpt lat="42.45542" lon="18.50202">
        <ele>43.690736</ele>
        <time>2022-06-01T08:41:38.583Z</time>
      </trkpt>
      <trkpt lat="42.45542" lon="18.50184">
        <ele>43.887539</ele>
        <time>2022-06-01T08:41:41.594Z</time>
      </trkpt>
      <trkpt lat="42.45541" lon="18.50172">
        <ele>44.026317</ele>
        <time>2022-06-01T08:41:43.572Z</time>
      </trkpt>
      <trkpt lat="42.45542" lon="18.50159">
        <ele>44.177605</ele>
        <time>2022-06-01T08:41:45.616Z</time>
      </trkpt>
      <trkpt lat="42.45542" lon="18.50146">
        <ele>44.328388</ele>
        <time>2022-06-01T08:41:47.584Z</time>
      </trkpt>
      <trkpt lat="42.45543" lon="18.50128">
        <ele>44.534549</ele>
        <time>2022-06-01T08:41:50.578Z</time>
      </trkpt>
      <trkpt lat="42.45544" lon="18.50115">
        <ele>44.676864</ele>
        <time>2022-06-01T08:41:52.581Z</time>
      </trkpt>
      <trkpt lat="42.45545" lon="18.50097">
        <ele>44.878906</ele>
        <time>2022-06-01T08:41:55.576Z</time>
      </trkpt>
      <trkpt lat="42.45546" lon="18.50084">
        <ele>44.85718</ele>
        <time>2022-06-01T08:41:57.586Z</time>
      </trkpt>
      <trkpt lat="42.45546" lon="18.50066">
        <ele>44.718773</ele>
        <time>2022-06-01T08:42:00.599Z</time>
      </trkpt>
      <trkpt lat="42.45547" lon="18.50049">
        <ele>44.584769</ele>
        <time>2022-06-01T08:42:03.580Z</time>
      </trkpt>
      <trkpt lat="42.45548" lon="18.50032">
        <ele>44.451767</ele>
        <time>2022-06-01T08:42:06.580Z</time>
      </trkpt>
      <trkpt lat="42.45548" lon="18.50019">
        <ele>44.35516</ele>
        <time>2022-06-01T08:42:08.588Z</time>
      </trkpt>
      <trkpt lat="42.45548" lon="18.50006">
        <ele>44.253745</ele>
        <time>2022-06-01T08:42:10.566Z</time>
      </trkpt>
      <trkpt lat="42.45548" lon="18.49993">
        <ele>44.156389</ele>
        <time>2022-06-01T08:42:12.568Z</time>
      </trkpt>
      <trkpt lat="42.45548" lon="18.49981">
        <ele>44.061068</ele>
        <time>2022-06-01T08:42:14.588Z</time>
      </trkpt>
      <trkpt lat="42.45546" lon="18.49963">
        <ele>43.922711</ele>
        <time>2022-06-01T08:42:17.585Z</time>
      </trkpt>
      <trkpt lat="42.45542" lon="18.49947">
        <ele>43.789127</ele>
        <time>2022-06-01T08:42:20.592Z</time>
      </trkpt>
      <trkpt lat="42.45538" lon="18.49931">
        <ele>43.657525</ele>
        <time>2022-06-01T08:42:23.600Z</time>
      </trkpt>
      <trkpt lat="42.45534" lon="18.49915">
        <ele>43.532104</ele>
        <time>2022-06-01T08:42:26.583Z</time>
      </trkpt>
      <trkpt lat="42.4553" lon="18.499">
        <ele>43.40342</ele>
        <time>2022-06-01T08:42:29.592Z</time>
      </trkpt>
      <trkpt lat="42.45525" lon="18.49884">
        <ele>43.272107</ele>
        <time>2022-06-01T08:42:32.578Z</time>
      </trkpt>
      <trkpt lat="42.45521" lon="18.49867">
        <ele>43.13546</ele>
        <time>2022-06-01T08:42:35.630Z</time>
      </trkpt>
      <trkpt lat="42.45518" lon="18.4985">
        <ele>43.017905</ele>
        <time>2022-06-01T08:42:38.592Z</time>
      </trkpt>
      <trkpt lat="42.45516" lon="18.49832">
        <ele>42.943206</ele>
        <time>2022-06-01T08:42:41.558Z</time>
      </trkpt>
      <trkpt lat="42.45514" lon="18.4982">
        <ele>42.890816</ele>
        <time>2022-06-01T08:42:43.575Z</time>
      </trkpt>
      <trkpt lat="42.45515" lon="18.49807">
        <ele>42.835817</ele>
        <time>2022-06-01T08:42:45.598Z</time>
      </trkpt>
      <trkpt lat="42.45516" lon="18.49793">
        <ele>42.779378</ele>
        <time>2022-06-01T08:42:47.577Z</time>
      </trkpt>
      <trkpt lat="42.45518" lon="18.49781">
        <ele>42.724609</ele>
        <time>2022-06-01T08:42:49.571Z</time>
      </trkpt>
      <trkpt lat="42.45521" lon="18.49768">
        <ele>42.671743</ele>
        <time>2022-06-01T08:42:51.588Z</time>
      </trkpt>
      <trkpt lat="42.45525" lon="18.49752">
        <ele>42.598922</ele>
        <time>2022-06-01T08:42:54.592Z</time>
      </trkpt>
      <trkpt lat="42.4553" lon="18.49736">
        <ele>42.524735</ele>
        <time>2022-06-01T08:42:57.610Z</time>
      </trkpt>
      <trkpt lat="42.45536" lon="18.49726">
        <ele>42.471714</ele>
        <time>2022-06-01T08:42:59.604Z</time>
      </trkpt>
      <trkpt lat="42.45543" lon="18.4971">
        <ele>42.397506</ele>
        <time>2022-06-01T08:43:02.589Z</time>
      </trkpt>
      <trkpt lat="42.45548" lon="18.49701">
        <ele>42.346189</ele>
        <time>2022-06-01T08:43:04.582Z</time>
      </trkpt>
      <trkpt lat="42.45554" lon="18.49691">
        <ele>42.292986</ele>
        <time>2022-06-01T08:43:06.631Z</time>
      </trkpt>
      <trkpt lat="42.45561" lon="18.49682">
        <ele>42.237857</ele>
        <time>2022-06-01T08:43:08.594Z</time>
      </trkpt>
      <trkpt lat="42.4557" lon="18.49669">
        <ele>42.160902</ele>
        <time>2022-06-01T08:43:11.589Z</time>
      </trkpt>
      <trkpt lat="42.45579" lon="18.49655">
        <ele>42.084814</ele>
        <time>2022-06-01T08:43:14.592Z</time>
      </trkpt>
      <trkpt lat="42.45586" lon="18.49646">
        <ele>42.033468</ele>
        <time>2022-06-01T08:43:16.585Z</time>
      </trkpt>
      <trkpt lat="42.45592" lon="18.49637">
        <ele>42.016079</ele>
        <time>2022-06-01T08:43:18.603Z</time>
      </trkpt>
      <trkpt lat="42.45601" lon="18.49625">
        <ele>42.00549</ele>
        <time>2022-06-01T08:43:21.606Z</time>
      </trkpt>
      <trkpt lat="42.4561" lon="18.49612">
        <ele>41.995195</ele>
        <time>2022-06-01T08:43:24.584Z</time>
      </trkpt>
      <trkpt lat="42.45618" lon="18.496">
        <ele>41.98537</ele>
        <time>2022-06-01T08:43:27.577Z</time>
      </trkpt>
      <trkpt lat="42.45626" lon="18.49587">
        <ele>41.975553</ele>
        <time>2022-06-01T08:43:30.581Z</time>
      </trkpt>
      <trkpt lat="42.45635" lon="18.49575">
        <ele>41.965026</ele>
        <time>2022-06-01T08:43:33.593Z</time>
      </trkpt>
      <trkpt lat="42.45643" lon="18.49561">
        <ele>41.95477</ele>
        <time>2022-06-01T08:43:36.579Z</time>
      </trkpt>
      <trkpt lat="42.45649" lon="18.49552">
        <ele>41.947483</ele>
        <time>2022-06-01T08:43:38.584Z</time>
      </trkpt>
      <trkpt lat="42.45655" lon="18.49542">
        <ele>41.939822</ele>
        <time>2022-06-01T08:43:40.579Z</time>
      </trkpt>
      <trkpt lat="42.45663" lon="18.49529">
        <ele>41.929591</ele>
        <time>2022-06-01T08:43:43.588Z</time>
      </trkpt>
      <trkpt lat="42.45671" lon="18.49514">
        <ele>41.918868</ele>
        <time>2022-06-01T08:43:46.578Z</time>
      </trkpt>
      <trkpt lat="42.45677" lon="18.49498">
        <ele>41.90811</ele>
        <time>2022-06-01T08:43:49.581Z</time>
      </trkpt>
      <trkpt lat="42.45682" lon="18.49482">
        <ele>41.897648</ele>
        <time>2022-06-01T08:43:52.589Z</time>
      </trkpt>
      <trkpt lat="42.45686" lon="18.49466">
        <ele>41.887438</ele>
        <time>2022-06-01T08:43:55.577Z</time>
      </trkpt>
      <trkpt lat="42.45689" lon="18.49454">
        <ele>41.880143</ele>
        <time>2022-06-01T08:43:57.583Z</time>
      </trkpt>
      <trkpt lat="42.45691" lon="18.49437">
        <ele>42.115736</ele>
        <time>2022-06-01T08:44:00.620Z</time>
      </trkpt>
      <trkpt lat="42.45693" lon="18.4942">
        <ele>42.450047</ele>
        <time>2022-06-01T08:44:03.624Z</time>
      </trkpt>
      <trkpt lat="42.45695" lon="18.49402">
        <ele>42.802389</ele>
        <time>2022-06-01T08:44:06.606Z</time>
      </trkpt>
      <trkpt lat="42.45694" lon="18.49385">
        <ele>43.147222</ele>
        <time>2022-06-01T08:44:09.608Z</time>
      </trkpt>
      <trkpt lat="42.45694" lon="18.49367">
        <ele>43.503782</ele>
        <time>2022-06-01T08:44:12.562Z</time>
      </trkpt>
      <trkpt lat="42.45694" lon="18.49349">
        <ele>43.854483</ele>
        <time>2022-06-01T08:44:15.598Z</time>
      </trkpt>
      <trkpt lat="42.45694" lon="18.49331">
        <ele>44.205102</ele>
        <time>2022-06-01T08:44:18.691Z</time>
      </trkpt>
      <trkpt lat="42.45694" lon="18.49319">
        <ele>44.45074</ele>
        <time>2022-06-01T08:44:20.576Z</time>
      </trkpt>
      <trkpt lat="42.45694" lon="18.49307">
        <ele>44.696892</ele>
        <time>2022-06-01T08:44:22.589Z</time>
      </trkpt>
      <trkpt lat="42.45696" lon="18.49294">
        <ele>44.943417</ele>
        <time>2022-06-01T08:44:24.590Z</time>
      </trkpt>
      <trkpt lat="42.45698" lon="18.49276">
        <ele>45.305947</ele>
        <time>2022-06-01T08:44:27.590Z</time>
      </trkpt>
      <trkpt lat="42.45701" lon="18.4926">
        <ele>45.641973</ele>
        <time>2022-06-01T08:44:30.600Z</time>
      </trkpt>
      <trkpt lat="42.45705" lon="18.49243">
        <ele>45.986256</ele>
        <time>2022-06-01T08:44:33.606Z</time>
      </trkpt>
      <trkpt lat="42.45709" lon="18.49232">
        <ele>46.234111</ele>
        <time>2022-06-01T08:44:35.569Z</time>
      </trkpt>
      <trkpt lat="42.45717" lon="18.49218">
        <ele>46.584786</ele>
        <time>2022-06-01T08:44:38.570Z</time>
      </trkpt>
      <trkpt lat="42.45725" lon="18.49206">
        <ele>46.797651</ele>
        <time>2022-06-01T08:44:41.593Z</time>
      </trkpt>
      <trkpt lat="42.45733" lon="18.49194">
        <ele>46.940637</ele>
        <time>2022-06-01T08:44:44.573Z</time>
      </trkpt>
      <trkpt lat="42.45742" lon="18.49185">
        <ele>47.081435</ele>
        <time>2022-06-01T08:44:47.576Z</time>
      </trkpt>
      <trkpt lat="42.45752" lon="18.49175">
        <ele>47.223478</ele>
        <time>2022-06-01T08:44:50.582Z</time>
      </trkpt>
      <trkpt lat="42.45762" lon="18.49166">
        <ele>47.370432</ele>
        <time>2022-06-01T08:44:53.584Z</time>
      </trkpt>
      <trkpt lat="42.45772" lon="18.49157">
        <ele>47.518854</ele>
        <time>2022-06-01T08:44:56.580Z</time>
      </trkpt>
      <trkpt lat="42.45783" lon="18.49147">
        <ele>47.676811</ele>
        <time>2022-06-01T08:44:59.593Z</time>
      </trkpt>
      <trkpt lat="42.45794" lon="18.49137">
        <ele>47.832752</ele>
        <time>2022-06-01T08:45:02.583Z</time>
      </trkpt>
      <trkpt lat="42.45805" lon="18.49128">
        <ele>47.988531</ele>
        <time>2022-06-01T08:45:05.614Z</time>
      </trkpt>
      <trkpt lat="42.45815" lon="18.4912">
        <ele>48.129199</ele>
        <time>2022-06-01T08:45:08.578Z</time>
      </trkpt>
      <trkpt lat="42.45825" lon="18.49111">
        <ele>48.275155</ele>
        <time>2022-06-01T08:45:11.636Z</time>
      </trkpt>
      <trkpt lat="42.45835" lon="18.49101">
        <ele>48.431606</ele>
        <time>2022-06-01T08:45:14.587Z</time>
      </trkpt>
      <trkpt lat="42.45846" lon="18.49091">
        <ele>48.586074</ele>
        <time>2022-06-01T08:45:17.627Z</time>
      </trkpt>
      <trkpt lat="42.45856" lon="18.49081">
        <ele>48.737068</ele>
        <time>2022-06-01T08:45:20.562Z</time>
      </trkpt>
      <trkpt lat="42.45865" lon="18.49071">
        <ele>48.88464</ele>
        <time>2022-06-01T08:45:23.623Z</time>
      </trkpt>
      <trkpt lat="42.45875" lon="18.4906">
        <ele>48.820831</ele>
        <time>2022-06-01T08:45:26.589Z</time>
      </trkpt>
      <trkpt lat="42.45884" lon="18.4905">
        <ele>48.756711</ele>
        <time>2022-06-01T08:45:29.589Z</time>
      </trkpt>
      <trkpt lat="42.45894" lon="18.49038">
        <ele>48.691384</ele>
        <time>2022-06-01T08:45:32.589Z</time>
      </trkpt>
      <trkpt lat="42.45903" lon="18.49027">
        <ele>48.626835</ele>
        <time>2022-06-01T08:45:35.576Z</time>
      </trkpt>
      <trkpt lat="42.45912" lon="18.49015">
        <ele>48.560718</ele>
        <time>2022-06-01T08:45:38.588Z</time>
      </trkpt>
      <trkpt lat="42.45921" lon="18.49003">
        <ele>48.497152</ele>
        <time>2022-06-01T08:45:41.602Z</time>
      </trkpt>
      <trkpt lat="42.4593" lon="18.4899">
        <ele>48.429875</ele>
        <time>2022-06-01T08:45:44.579Z</time>
      </trkpt>
      <trkpt lat="42.45939" lon="18.48978">
        <ele>48.363325</ele>
        <time>2022-06-01T08:45:47.594Z</time>
      </trkpt>
      <trkpt lat="42.45948" lon="18.48966">
        <ele>48.298584</ele>
        <time>2022-06-01T08:45:50.583Z</time>
      </trkpt>
      <trkpt lat="42.45956" lon="18.48953">
        <ele>48.234198</ele>
        <time>2022-06-01T08:45:53.572Z</time>
      </trkpt>
      <trkpt lat="42.45965" lon="18.48942">
        <ele>48.17127</ele>
        <time>2022-06-01T08:45:56.616Z</time>
      </trkpt>
      <trkpt lat="42.45974" lon="18.4893">
        <ele>48.105537</ele>
        <time>2022-06-01T08:45:59.579Z</time>
      </trkpt>
      <trkpt lat="42.45982" lon="18.48918">
        <ele>48.043513</ele>
        <time>2022-06-01T08:46:02.614Z</time>
      </trkpt>
      <trkpt lat="42.45991" lon="18.48907">
        <ele>47.981903</ele>
        <time>2022-06-01T08:46:05.609Z</time>
      </trkpt>
      <trkpt lat="42.45999" lon="18.48895">
        <ele>48.126578</ele>
        <time>2022-06-01T08:46:08.590Z</time>
      </trkpt>
      <trkpt lat="42.46008" lon="18.48884">
        <ele>48.443955</ele>
        <time>2022-06-01T08:46:11.585Z</time>
      </trkpt>
      <trkpt lat="42.46016" lon="18.48873">
        <ele>48.759958</ele>
        <time>2022-06-01T08:46:14.618Z</time>
      </trkpt>
      <trkpt lat="42.46024" lon="18.48862">
        <ele>49.063296</ele>
        <time>2022-06-01T08:46:17.582Z</time>
      </trkpt>
      <trkpt lat="42.46031" lon="18.48851">
        <ele>49.368103</ele>
        <time>2022-06-01T08:46:20.588Z</time>
      </trkpt>
      <trkpt lat="42.46039" lon="18.48839">
        <ele>49.684951</ele>
        <time>2022-06-01T08:46:23.594Z</time>
      </trkpt>
      <trkpt lat="42.46047" lon="18.48829">
        <ele>49.964029</ele>
        <time>2022-06-01T08:46:26.623Z</time>
      </trkpt>
      <trkpt lat="42.46053" lon="18.4882">
        <ele>50.212149</ele>
        <time>2022-06-01T08:46:29.611Z</time>
      </trkpt>
      <trkpt lat="42.46062" lon="18.4881">
        <ele>50.526047</ele>
        <time>2022-06-01T08:46:33.590Z</time>
      </trkpt>
      <trkpt lat="42.46069" lon="18.488">
        <ele>50.802319</ele>
        <time>2022-06-01T08:46:36.594Z</time>
      </trkpt>
      <trkpt lat="42.46077" lon="18.48791">
        <ele>51.080961</ele>
        <time>2022-06-01T08:46:39.620Z</time>
      </trkpt>
      <trkpt lat="42.46085" lon="18.48781">
        <ele>51.360301</ele>
        <time>2022-06-01T08:46:42.590Z</time>
      </trkpt>
      <trkpt lat="42.46092" lon="18.48771">
        <ele>51.6436</ele>
        <time>2022-06-01T08:46:45.602Z</time>
      </trkpt>
      <trkpt lat="42.461" lon="18.48763">
        <ele>51.906476</ele>
        <time>2022-06-01T08:46:48.578Z</time>
      </trkpt>
      <trkpt lat="42.46107" lon="18.48754">
        <ele>52.169165</ele>
        <time>2022-06-01T08:46:51.617Z</time>
      </trkpt>
      <trkpt lat="42.46115" lon="18.48746">
        <ele>52.429514</ele>
        <time>2022-06-01T08:46:54.599Z</time>
      </trkpt>
      <trkpt lat="42.46122" lon="18.48737">
        <ele>52.6932</ele>
        <time>2022-06-01T08:46:57.586Z</time>
      </trkpt>
      <trkpt lat="42.4613" lon="18.48729">
        <ele>52.91634</ele>
        <time>2022-06-01T08:47:00.587Z</time>
      </trkpt>
      <trkpt lat="42.46137" lon="18.4872">
        <ele>53.106884</ele>
        <time>2022-06-01T08:47:03.592Z</time>
      </trkpt>
      <trkpt lat="42.46144" lon="18.48712">
        <ele>53.292959</ele>
        <time>2022-06-01T08:47:06.594Z</time>
      </trkpt>
      <trkpt lat="42.4615" lon="18.48703">
        <ele>53.47606</ele>
        <time>2022-06-01T08:47:09.612Z</time>
      </trkpt>
      <trkpt lat="42.46157" lon="18.48695">
        <ele>53.660186</ele>
        <time>2022-06-01T08:47:12.572Z</time>
      </trkpt>
      <trkpt lat="42.46166" lon="18.48684">
        <ele>53.895458</ele>
        <time>2022-06-01T08:47:16.581Z</time>
      </trkpt>
      <trkpt lat="42.46175" lon="18.48674">
        <ele>54.133316</ele>
        <time>2022-06-01T08:47:20.609Z</time>
      </trkpt>
      <trkpt lat="42.46183" lon="18.48663">
        <ele>54.359757</ele>
        <time>2022-06-01T08:47:24.581Z</time>
      </trkpt>
      <trkpt lat="42.4619" lon="18.48655">
        <ele>54.559824</ele>
        <time>2022-06-01T08:47:27.584Z</time>
      </trkpt>
      <trkpt lat="42.46198" lon="18.48647">
        <ele>54.750193</ele>
        <time>2022-06-01T08:47:30.593Z</time>
      </trkpt>
      <trkpt lat="42.46205" lon="18.48639">
        <ele>54.933069</ele>
        <time>2022-06-01T08:47:33.601Z</time>
      </trkpt>
      <trkpt lat="42.46212" lon="18.48631">
        <ele>55.118758</ele>
        <time>2022-06-01T08:47:36.590Z</time>
      </trkpt>
      <trkpt lat="42.46219" lon="18.48622">
        <ele>55.303321</ele>
        <time>2022-06-01T08:47:39.581Z</time>
      </trkpt>
      <trkpt lat="42.46226" lon="18.48614">
        <ele>55.499801</ele>
        <time>2022-06-01T08:47:42.562Z</time>
      </trkpt>
      <trkpt lat="42.46233" lon="18.48605">
        <ele>55.695843</ele>
        <time>2022-06-01T08:47:45.648Z</time>
      </trkpt>
      <trkpt lat="42.46241" lon="18.48596">
        <ele>55.89591</ele>
        <time>2022-06-01T08:47:48.589Z</time>
      </trkpt>
      <trkpt lat="42.46248" lon="18.48588">
        <ele>56.079104</ele>
        <time>2022-06-01T08:47:51.641Z</time>
      </trkpt>
      <trkpt lat="42.46256" lon="18.48582">
        <ele>56.263253</ele>
        <time>2022-06-01T08:47:54.578Z</time>
      </trkpt>
      <trkpt lat="42.46264" lon="18.48573">
        <ele>56.415848</ele>
        <time>2022-06-01T08:47:57.591Z</time>
      </trkpt>
      <trkpt lat="42.46272" lon="18.48565">
        <ele>56.446354</ele>
        <time>2022-06-01T08:48:00.634Z</time>
      </trkpt>
      <trkpt lat="42.4628" lon="18.48559">
        <ele>56.474619</ele>
        <time>2022-06-01T08:48:03.588Z</time>
      </trkpt>
      <trkpt lat="42.46289" lon="18.48554">
        <ele>56.502817</ele>
        <time>2022-06-01T08:48:06.614Z</time>
      </trkpt>
      <trkpt lat="42.46298" lon="18.4855">
        <ele>56.530246</ele>
        <time>2022-06-01T08:48:09.598Z</time>
      </trkpt>
      <trkpt lat="42.46307" lon="18.48546">
        <ele>56.559456</ele>
        <time>2022-06-01T08:48:12.580Z</time>
      </trkpt>
      <trkpt lat="42.46318" lon="18.48543">
        <ele>56.590733</ele>
        <time>2022-06-01T08:48:15.590Z</time>
      </trkpt>
      <trkpt lat="42.46327" lon="18.48539">
        <ele>56.620575</ele>
        <time>2022-06-01T08:48:18.593Z</time>
      </trkpt>
      <trkpt lat="42.46337" lon="18.48536">
        <ele>56.649689</ele>
        <time>2022-06-01T08:48:21.585Z</time>
      </trkpt>
      <trkpt lat="42.46346" lon="18.48534">
        <ele>56.677375</ele>
        <time>2022-06-01T08:48:24.595Z</time>
      </trkpt>
      <trkpt lat="42.46358" lon="18.48531">
        <ele>56.713031</ele>
        <time>2022-06-01T08:48:28.591Z</time>
      </trkpt>
      <trkpt lat="42.46369" lon="18.48528">
        <ele>56.744752</ele>
        <time>2022-06-01T08:48:31.602Z</time>
      </trkpt>
      <trkpt lat="42.46379" lon="18.48523">
        <ele>56.776255</ele>
        <time>2022-06-01T08:48:34.591Z</time>
      </trkpt>
      <trkpt lat="42.46388" lon="18.48518">
        <ele>56.805546</ele>
        <time>2022-06-01T08:48:37.576Z</time>
      </trkpt>
      <trkpt lat="42.46397" lon="18.48514">
        <ele>56.832695</ele>
        <time>2022-06-01T08:48:40.594Z</time>
      </trkpt>
      <trkpt lat="42.46406" lon="18.48509">
        <ele>56.861879</ele>
        <time>2022-06-01T08:48:43.595Z</time>
      </trkpt>
      <trkpt lat="42.46415" lon="18.48504">
        <ele>56.891336</ele>
        <time>2022-06-01T08:48:46.590Z</time>
      </trkpt>
      <trkpt lat="42.46423" lon="18.48499">
        <ele>56.918632</ele>
        <time>2022-06-01T08:48:49.589Z</time>
      </trkpt>
      <trkpt lat="42.46432" lon="18.48493">
        <ele>56.946676</ele>
        <time>2022-06-01T08:48:52.592Z</time>
      </trkpt>
      <trkpt lat="42.4644" lon="18.48486">
        <ele>56.974141</ele>
        <time>2022-06-01T08:48:55.617Z</time>
      </trkpt>
      <trkpt lat="42.46449" lon="18.4848">
        <ele>57.001995</ele>
        <time>2022-06-01T08:48:58.596Z</time>
      </trkpt>
      <trkpt lat="42.46458" lon="18.48472">
        <ele>57.031777</ele>
        <time>2022-06-01T08:49:01.586Z</time>
      </trkpt>
      <trkpt lat="42.46466" lon="18.48464">
        <ele>57.062256</ele>
        <time>2022-06-01T08:49:04.581Z</time>
      </trkpt>
      <trkpt lat="42.46474" lon="18.48456">
        <ele>57.090245</ele>
        <time>2022-06-01T08:49:07.602Z</time>
      </trkpt>
      <trkpt lat="42.46481" lon="18.48449">
        <ele>57.116243</ele>
        <time>2022-06-01T08:49:10.582Z</time>
      </trkpt>
      <trkpt lat="42.4649" lon="18.48441">
        <ele>57.144005</ele>
        <time>2022-06-01T08:49:13.624Z</time>
      </trkpt>
      <trkpt lat="42.46498" lon="18.48434">
        <ele>57.173661</ele>
        <time>2022-06-01T08:49:16.578Z</time>
      </trkpt>
      <trkpt lat="42.46507" lon="18.48426">
        <ele>57.203596</ele>
        <time>2022-06-01T08:49:19.618Z</time>
      </trkpt>
      <trkpt lat="42.46516" lon="18.4842">
        <ele>57.233153</ele>
        <time>2022-06-01T08:49:22.595Z</time>
      </trkpt>
      <trkpt lat="42.46525" lon="18.48414">
        <ele>57.261268</ele>
        <time>2022-06-01T08:49:25.578Z</time>
      </trkpt>
      <trkpt lat="42.46533" lon="18.48408">
        <ele>57.287569</ele>
        <time>2022-06-01T08:49:28.591Z</time>
      </trkpt>
      <trkpt lat="42.46544" lon="18.48401">
        <ele>57.321469</ele>
        <time>2022-06-01T08:49:32.588Z</time>
      </trkpt>
      <trkpt lat="42.46552" lon="18.48395">
        <ele>57.348443</ele>
        <time>2022-06-01T08:49:35.593Z</time>
      </trkpt>
      <trkpt lat="42.46561" lon="18.4839">
        <ele>57.375</ele>
        <time>2022-06-01T08:49:38.579Z</time>
      </trkpt>
      <trkpt lat="42.46572" lon="18.48383">
        <ele>57.409077</ele>
        <time>2022-06-01T08:49:42.592Z</time>
      </trkpt>
      <trkpt lat="42.46582" lon="18.48376">
        <ele>57.442458</ele>
        <time>2022-06-01T08:49:46.584Z</time>
      </trkpt>
      <trkpt lat="42.46593" lon="18.4837">
        <ele>57.680068</ele>
        <time>2022-06-01T08:49:50.584Z</time>
      </trkpt>
      <trkpt lat="42.46603" lon="18.48364">
        <ele>58.001848</ele>
        <time>2022-06-01T08:49:54.582Z</time>
      </trkpt>
      <trkpt lat="42.46611" lon="18.48359">
        <ele>58.256791</ele>
        <time>2022-06-01T08:49:57.590Z</time>
      </trkpt>
      <trkpt lat="42.46622" lon="18.48352">
        <ele>58.594793</ele>
        <time>2022-06-01T08:50:01.590Z</time>
      </trkpt>
      <trkpt lat="42.46633" lon="18.48345">
        <ele>58.934459</ele>
        <time>2022-06-01T08:50:05.593Z</time>
      </trkpt>
      <trkpt lat="42.46641" lon="18.4834">
        <ele>59.19805</ele>
        <time>2022-06-01T08:50:08.587Z</time>
      </trkpt>
      <trkpt lat="42.4665" lon="18.48335">
        <ele>59.461848</ele>
        <time>2022-06-01T08:50:11.585Z</time>
      </trkpt>
      <trkpt lat="42.46658" lon="18.48331">
        <ele>59.720698</ele>
        <time>2022-06-01T08:50:14.585Z</time>
      </trkpt>
      <trkpt lat="42.46668" lon="18.48324">
        <ele>60.034412</ele>
        <time>2022-06-01T08:50:18.581Z</time>
      </trkpt>
      <trkpt lat="42.46679" lon="18.48317">
        <ele>60.379233</ele>
        <time>2022-06-01T08:50:22.600Z</time>
      </trkpt>
      <trkpt lat="42.46688" lon="18.48312">
        <ele>60.648066</ele>
        <time>2022-06-01T08:50:25.580Z</time>
      </trkpt>
      <trkpt lat="42.46696" lon="18.48307">
        <ele>60.912513</ele>
        <time>2022-06-01T08:50:28.583Z</time>
      </trkpt>
      <trkpt lat="42.46705" lon="18.48302">
        <ele>61.172639</ele>
        <time>2022-06-01T08:50:31.584Z</time>
      </trkpt>
      <trkpt lat="42.46713" lon="18.48297">
        <ele>61.431893</ele>
        <time>2022-06-01T08:50:34.590Z</time>
      </trkpt>
      <trkpt lat="42.46721" lon="18.48291">
        <ele>61.699134</ele>
        <time>2022-06-01T08:50:37.617Z</time>
      </trkpt>
      <trkpt lat="42.4673" lon="18.48286">
        <ele>61.960981</ele>
        <time>2022-06-01T08:50:40.592Z</time>
      </trkpt>
      <trkpt lat="42.46738" lon="18.4828">
        <ele>62.220676</ele>
        <time>2022-06-01T08:50:43.611Z</time>
      </trkpt>
      <trkpt lat="42.46746" lon="18.48274">
        <ele>62.486777</ele>
        <time>2022-06-01T08:50:46.584Z</time>
      </trkpt>
      <trkpt lat="42.46754" lon="18.48267">
        <ele>62.560516</ele>
        <time>2022-06-01T08:50:49.604Z</time>
      </trkpt>
      <trkpt lat="42.46763" lon="18.48261">
        <ele>62.548446</ele>
        <time>2022-06-01T08:50:52.615Z</time>
      </trkpt>
      <trkpt lat="42.46771" lon="18.48255">
        <ele>62.535701</ele>
        <time>2022-06-01T08:50:55.559Z</time>
      </trkpt>
      <trkpt lat="42.4678" lon="18.48249">
        <ele>62.52366</ele>
        <time>2022-06-01T08:50:58.586Z</time>
      </trkpt>
      <trkpt lat="42.46789" lon="18.48244">
        <ele>62.511272</ele>
        <time>2022-06-01T08:51:01.596Z</time>
      </trkpt>
      <trkpt lat="42.46798" lon="18.48237">
        <ele>62.497493</ele>
        <time>2022-06-01T08:51:04.624Z</time>
      </trkpt>
      <trkpt lat="42.46807" lon="18.48229">
        <ele>62.483888</ele>
        <time>2022-06-01T08:51:07.594Z</time>
      </trkpt>
      <trkpt lat="42.46816" lon="18.48222">
        <ele>62.470465</ele>
        <time>2022-06-01T08:51:10.588Z</time>
      </trkpt>
      <trkpt lat="42.46826" lon="18.48216">
        <ele>62.457018</ele>
        <time>2022-06-01T08:51:13.575Z</time>
      </trkpt>
      <trkpt lat="42.46835" lon="18.4821">
        <ele>62.443539</ele>
        <time>2022-06-01T08:51:16.583Z</time>
      </trkpt>
      <trkpt lat="42.46844" lon="18.48204">
        <ele>62.430561</ele>
        <time>2022-06-01T08:51:19.587Z</time>
      </trkpt>
      <trkpt lat="42.46853" lon="18.48197">
        <ele>62.41837</ele>
        <time>2022-06-01T08:51:22.580Z</time>
      </trkpt>
      <trkpt lat="42.46861" lon="18.4819">
        <ele>62.406094</ele>
        <time>2022-06-01T08:51:25.575Z</time>
      </trkpt>
      <trkpt lat="42.46869" lon="18.48182">
        <ele>62.392335</ele>
        <time>2022-06-01T08:51:28.595Z</time>
      </trkpt>
      <trkpt lat="42.46879" lon="18.48175">
        <ele>62.378242</ele>
        <time>2022-06-01T08:51:31.588Z</time>
      </trkpt>
      <trkpt lat="42.46888" lon="18.48169">
        <ele>62.366077</ele>
        <time>2022-06-01T08:51:34.591Z</time>
      </trkpt>
      <trkpt lat="42.46896" lon="18.4816">
        <ele>62.352726</ele>
        <time>2022-06-01T08:51:37.577Z</time>
      </trkpt>
      <trkpt lat="42.46904" lon="18.48155">
        <ele>62.34099</ele>
        <time>2022-06-01T08:51:40.579Z</time>
      </trkpt>
      <trkpt lat="42.46913" lon="18.48149">
        <ele>62.14929</ele>
        <time>2022-06-01T08:51:43.580Z</time>
      </trkpt>
      <trkpt lat="42.46922" lon="18.48142">
        <ele>61.909621</ele>
        <time>2022-06-01T08:51:46.602Z</time>
      </trkpt>
      <trkpt lat="42.46932" lon="18.48135">
        <ele>61.65348</ele>
        <time>2022-06-01T08:51:49.591Z</time>
      </trkpt>
      <trkpt lat="42.46942" lon="18.48128">
        <ele>61.385662</ele>
        <time>2022-06-01T08:51:52.627Z</time>
      </trkpt>
      <trkpt lat="42.46953" lon="18.48119">
        <ele>61.096903</ele>
        <time>2022-06-01T08:51:55.575Z</time>
      </trkpt>
      <trkpt lat="42.46964" lon="18.48112">
        <ele>60.810512</ele>
        <time>2022-06-01T08:51:58.597Z</time>
      </trkpt>
      <trkpt lat="42.46975" lon="18.48103">
        <ele>60.532939</ele>
        <time>2022-06-01T08:52:01.631Z</time>
      </trkpt>
      <trkpt lat="42.46985" lon="18.48095">
        <ele>60.256725</ele>
        <time>2022-06-01T08:52:04.575Z</time>
      </trkpt>
      <trkpt lat="42.46995" lon="18.48087">
        <ele>59.991603</ele>
        <time>2022-06-01T08:52:07.591Z</time>
      </trkpt>
      <trkpt lat="42.47005" lon="18.48079">
        <ele>59.738063</ele>
        <time>2022-06-01T08:52:10.588Z</time>
      </trkpt>
      <trkpt lat="42.47014" lon="18.48071">
        <ele>59.469634</ele>
        <time>2022-06-01T08:52:13.591Z</time>
      </trkpt>
      <trkpt lat="42.47024" lon="18.48062">
        <ele>59.206984</ele>
        <time>2022-06-01T08:52:16.619Z</time>
      </trkpt>
      <trkpt lat="42.47033" lon="18.48054">
        <ele>58.945312</ele>
        <time>2022-06-01T08:52:19.582Z</time>
      </trkpt>
      <trkpt lat="42.47043" lon="18.48044">
        <ele>58.678859</ele>
        <time>2022-06-01T08:52:22.595Z</time>
      </trkpt>
      <trkpt lat="42.47053" lon="18.48035">
        <ele>58.408581</ele>
        <time>2022-06-01T08:52:25.565Z</time>
      </trkpt>
      <trkpt lat="42.47062" lon="18.48026">
        <ele>58.166981</ele>
        <time>2022-06-01T08:52:28.588Z</time>
      </trkpt>
      <trkpt lat="42.47071" lon="18.48016">
        <ele>57.980668</ele>
        <time>2022-06-01T08:52:31.580Z</time>
      </trkpt>
      <trkpt lat="42.4708" lon="18.48006">
        <ele>57.795406</ele>
        <time>2022-06-01T08:52:34.627Z</time>
      </trkpt>
      <trkpt lat="42.47088" lon="18.47995">
        <ele>57.606193</ele>
        <time>2022-06-01T08:52:37.576Z</time>
      </trkpt>
      <trkpt lat="42.47097" lon="18.47984">
        <ele>57.422807</ele>
        <time>2022-06-01T08:52:40.590Z</time>
      </trkpt>
      <trkpt lat="42.47106" lon="18.47973">
        <ele>57.230146</ele>
        <time>2022-06-01T08:52:43.588Z</time>
      </trkpt>
      <trkpt lat="42.47114" lon="18.47962">
        <ele>57.04162</ele>
        <time>2022-06-01T08:52:46.578Z</time>
      </trkpt>
      <trkpt lat="42.47122" lon="18.47951">
        <ele>56.871528</ele>
        <time>2022-06-01T08:52:49.596Z</time>
      </trkpt>
      <trkpt lat="42.47129" lon="18.4794">
        <ele>56.695126</ele>
        <time>2022-06-01T08:52:52.591Z</time>
      </trkpt>
      <trkpt lat="42.47137" lon="18.47929">
        <ele>56.522402</ele>
        <time>2022-06-01T08:52:55.589Z</time>
      </trkpt>
      <trkpt lat="42.47144" lon="18.47918">
        <ele>56.34748</ele>
        <time>2022-06-01T08:52:58.593Z</time>
      </trkpt>
      <trkpt lat="42.47151" lon="18.47906">
        <ele>56.170516</ele>
        <time>2022-06-01T08:53:01.618Z</time>
      </trkpt>
      <trkpt lat="42.47158" lon="18.47896">
        <ele>56.009219</ele>
        <time>2022-06-01T08:53:04.575Z</time>
      </trkpt>
      <trkpt lat="42.47164" lon="18.47885">
        <ele>55.841595</ele>
        <time>2022-06-01T08:53:07.594Z</time>
      </trkpt>
      <trkpt lat="42.47171" lon="18.47875">
        <ele>55.677958</ele>
        <time>2022-06-01T08:53:10.591Z</time>
      </trkpt>
      <trkpt lat="42.47178" lon="18.47865">
        <ele>55.521405</ele>
        <time>2022-06-01T08:53:13.613Z</time>
      </trkpt>
      <trkpt lat="42.47185" lon="18.47855">
        <ele>55.360758</ele>
        <time>2022-06-01T08:53:16.583Z</time>
      </trkpt>
      <trkpt lat="42.47191" lon="18.47844">
        <ele>55.743865</ele>
        <time>2022-06-01T08:53:19.581Z</time>
      </trkpt>
      <trkpt lat="42.47198" lon="18.47834">
        <ele>56.146336</ele>
        <time>2022-06-01T08:53:22.596Z</time>
      </trkpt>
      <trkpt lat="42.47205" lon="18.47822">
        <ele>56.552128</ele>
        <time>2022-06-01T08:53:25.580Z</time>
      </trkpt>
      <trkpt lat="42.47211" lon="18.47812">
        <ele>56.932746</ele>
        <time>2022-06-01T08:53:28.589Z</time>
      </trkpt>
      <trkpt lat="42.47217" lon="18.47801">
        <ele>57.308788</ele>
        <time>2022-06-01T08:53:31.596Z</time>
      </trkpt>
      <trkpt lat="42.47222" lon="18.4779">
        <ele>57.671422</ele>
        <time>2022-06-01T08:53:34.618Z</time>
      </trkpt>
      <trkpt lat="42.47227" lon="18.47779">
        <ele>58.052241</ele>
        <time>2022-06-01T08:53:37.580Z</time>
      </trkpt>
      <trkpt lat="42.47233" lon="18.47769">
        <ele>58.412312</ele>
        <time>2022-06-01T08:53:40.577Z</time>
      </trkpt>
      <trkpt lat="42.47238" lon="18.47757">
        <ele>58.792772</ele>
        <time>2022-06-01T08:53:43.579Z</time>
      </trkpt>
      <trkpt lat="42.47244" lon="18.47744">
        <ele>59.237726</ele>
        <time>2022-06-01T08:53:47.605Z</time>
      </trkpt>
      <trkpt lat="42.47249" lon="18.47734">
        <ele>59.58599</ele>
        <time>2022-06-01T08:53:50.592Z</time>
      </trkpt>
      <trkpt lat="42.47253" lon="18.47722">
        <ele>59.942599</ele>
        <time>2022-06-01T08:53:53.564Z</time>
      </trkpt>
      <trkpt lat="42.47259" lon="18.47709">
        <ele>60.386499</ele>
        <time>2022-06-01T08:53:57.557Z</time>
      </trkpt>
      <trkpt lat="42.47263" lon="18.47698">
        <ele>60.741429</ele>
        <time>2022-06-01T08:54:00.597Z</time>
      </trkpt>
      <trkpt lat="42.47267" lon="18.47686">
        <ele>61.116672</ele>
        <time>2022-06-01T08:54:03.573Z</time>
      </trkpt>
      <trkpt lat="42.47271" lon="18.47674">
        <ele>61.475095</ele>
        <time>2022-06-01T08:54:06.576Z</time>
      </trkpt>
      <trkpt lat="42.47276" lon="18.4766">
        <ele>61.909096</ele>
        <time>2022-06-01T08:54:10.593Z</time>
      </trkpt>
      <trkpt lat="42.47281" lon="18.47647">
        <ele>62.281014</ele>
        <time>2022-06-01T08:54:14.588Z</time>
      </trkpt>
      <trkpt lat="42.47286" lon="18.47633">
        <ele>62.374098</ele>
        <time>2022-06-01T08:54:18.610Z</time>
      </trkpt>
      <trkpt lat="42.47289" lon="18.47619">
        <ele>62.464535</ele>
        <time>2022-06-01T08:54:22.592Z</time>
      </trkpt>
      <trkpt lat="42.47294" lon="18.47605">
        <ele>62.560246</ele>
        <time>2022-06-01T08:54:26.573Z</time>
      </trkpt>
      <trkpt lat="42.47298" lon="18.47591">
        <ele>62.652144</ele>
        <time>2022-06-01T08:54:30.577Z</time>
      </trkpt>
      <trkpt lat="42.47301" lon="18.47578">
        <ele>62.739081</ele>
        <time>2022-06-01T08:54:34.605Z</time>
      </trkpt>
      <trkpt lat="42.47305" lon="18.47565">
        <ele>62.826601</ele>
        <time>2022-06-01T08:54:38.598Z</time>
      </trkpt>
      <trkpt lat="42.47308" lon="18.47553">
        <ele>62.902787</ele>
        <time>2022-06-01T08:54:41.599Z</time>
      </trkpt>
      <trkpt lat="42.47312" lon="18.47539">
        <ele>62.998686</ele>
        <time>2022-06-01T08:54:45.609Z</time>
      </trkpt>
      <trkpt lat="42.47318" lon="18.47527">
        <ele>63.084945</ele>
        <time>2022-06-01T08:54:49.601Z</time>
      </trkpt>
      <trkpt lat="42.47322" lon="18.47514">
        <ele>63.172907</ele>
        <time>2022-06-01T08:54:53.585Z</time>
      </trkpt>
      <trkpt lat="42.47326" lon="18.47501">
        <ele>63.263951</ele>
        <time>2022-06-01T08:54:57.619Z</time>
      </trkpt>
      <trkpt lat="42.47332" lon="18.47487">
        <ele>63.357406</ele>
        <time>2022-06-01T08:55:01.584Z</time>
      </trkpt>
      <trkpt lat="42.47337" lon="18.47474">
        <ele>63.454078</ele>
        <time>2022-06-01T08:55:05.593Z</time>
      </trkpt>
      <trkpt lat="42.47343" lon="18.4746">
        <ele>63.552642</ele>
        <time>2022-06-01T08:55:09.594Z</time>
      </trkpt>
      <trkpt lat="42.47349" lon="18.4745">
        <ele>63.630987</ele>
        <time>2022-06-01T08:55:12.594Z</time>
      </trkpt>
      <trkpt lat="42.47354" lon="18.47439">
        <ele>63.709333</ele>
        <time>2022-06-01T08:55:15.582Z</time>
      </trkpt>
      <trkpt lat="42.4736" lon="18.47429">
        <ele>63.779119</ele>
        <time>2022-06-01T08:55:18.588Z</time>
      </trkpt>
      <trkpt lat="42.47366" lon="18.4742">
        <ele>63.801902</ele>
        <time>2022-06-01T08:55:21.591Z</time>
      </trkpt>
      <trkpt lat="42.47373" lon="18.4741">
        <ele>63.825892</ele>
        <time>2022-06-01T08:55:24.633Z</time>
      </trkpt>
      <trkpt lat="42.47379" lon="18.474">
        <ele>63.849882</ele>
        <time>2022-06-01T08:55:27.591Z</time>
      </trkpt>
      <trkpt lat="42.47386" lon="18.47388">
        <ele>63.875468</ele>
        <time>2022-06-01T08:55:30.590Z</time>
      </trkpt>
      <trkpt lat="42.47392" lon="18.47378">
        <ele>63.89936</ele>
        <time>2022-06-01T08:55:33.583Z</time>
      </trkpt>
      <trkpt lat="42.47399" lon="18.47369">
        <ele>63.922615</ele>
        <time>2022-06-01T08:55:36.567Z</time>
      </trkpt>
      <trkpt lat="42.47406" lon="18.4736">
        <ele>63.946144</ele>
        <time>2022-06-01T08:55:39.599Z</time>
      </trkpt>
      <trkpt lat="42.47413" lon="18.47351">
        <ele>63.968726</ele>
        <time>2022-06-01T08:55:42.589Z</time>
      </trkpt>
      <trkpt lat="42.47419" lon="18.47342">
        <ele>63.992066</ele>
        <time>2022-06-01T08:55:45.578Z</time>
      </trkpt>
      <trkpt lat="42.47425" lon="18.47331">
        <ele>64.01593</ele>
        <time>2022-06-01T08:55:48.578Z</time>
      </trkpt>
      <trkpt lat="42.47432" lon="18.47319">
        <ele>64.042657</ele>
        <time>2022-06-01T08:55:51.597Z</time>
      </trkpt>
      <trkpt lat="42.47439" lon="18.47307">
        <ele>64.07068</ele>
        <time>2022-06-01T08:55:54.618Z</time>
      </trkpt>
      <trkpt lat="42.47444" lon="18.47294">
        <ele>64.097128</ele>
        <time>2022-06-01T08:55:57.583Z</time>
      </trkpt>
      <trkpt lat="42.47449" lon="18.4728">
        <ele>64.124068</ele>
        <time>2022-06-01T08:56:00.611Z</time>
      </trkpt>
      <trkpt lat="42.47451" lon="18.47266">
        <ele>64.14921</ele>
        <time>2022-06-01T08:56:03.595Z</time>
      </trkpt>
      <trkpt lat="42.47454" lon="18.47252">
        <ele>64.175018</ele>
        <time>2022-06-01T08:56:06.595Z</time>
      </trkpt>
      <trkpt lat="42.47458" lon="18.47239">
        <ele>64.201235</ele>
        <time>2022-06-01T08:56:09.594Z</time>
      </trkpt>
      <trkpt lat="42.4746" lon="18.47225">
        <ele>64.415771</ele>
        <time>2022-06-01T08:56:12.583Z</time>
      </trkpt>
      <trkpt lat="42.47462" lon="18.47213">
        <ele>64.72283</ele>
        <time>2022-06-01T08:56:15.582Z</time>
      </trkpt>
      <trkpt lat="42.47466" lon="18.47198">
        <ele>65.109916</ele>
        <time>2022-06-01T08:56:19.579Z</time>
      </trkpt>
      <trkpt lat="42.4747" lon="18.47187">
        <ele>65.413471</ele>
        <time>2022-06-01T08:56:22.592Z</time>
      </trkpt>
      <trkpt lat="42.47475" lon="18.47173">
        <ele>65.791489</ele>
        <time>2022-06-01T08:56:26.587Z</time>
      </trkpt>
      <trkpt lat="42.47479" lon="18.47162">
        <ele>66.114952</ele>
        <time>2022-06-01T08:56:29.593Z</time>
      </trkpt>
      <trkpt lat="42.47483" lon="18.47149">
        <ele>66.458657</ele>
        <time>2022-06-01T08:56:32.611Z</time>
      </trkpt>
      <trkpt lat="42.47487" lon="18.47137">
        <ele>66.776216</ele>
        <time>2022-06-01T08:56:35.593Z</time>
      </trkpt>
      <trkpt lat="42.47492" lon="18.47126">
        <ele>67.090073</ele>
        <time>2022-06-01T08:56:38.584Z</time>
      </trkpt>
      <trkpt lat="42.47496" lon="18.47114">
        <ele>67.428238</ele>
        <time>2022-06-01T08:56:41.588Z</time>
      </trkpt>
      <trkpt lat="42.475" lon="18.47102">
        <ele>67.750332</ele>
        <time>2022-06-01T08:56:44.579Z</time>
      </trkpt>
      <trkpt lat="42.47503" lon="18.4709">
        <ele>68.062351</ele>
        <time>2022-06-01T08:56:47.586Z</time>
      </trkpt>
      <trkpt lat="42.47507" lon="18.47077">
        <ele>68.403544</ele>
        <time>2022-06-01T08:56:50.611Z</time>
      </trkpt>
      <trkpt lat="42.47509" lon="18.47065">
        <ele>68.702514</ele>
        <time>2022-06-01T08:56:53.591Z</time>
      </trkpt>
      <trkpt lat="42.47511" lon="18.47052">
        <ele>69.036638</ele>
        <time>2022-06-01T08:56:56.601Z</time>
      </trkpt>
      <trkpt lat="42.47513" lon="18.47038">
        <ele>69.379375</ele>
        <time>2022-06-01T08:56:59.582Z</time>
      </trkpt>
      <trkpt lat="42.47515" lon="18.47024">
        <ele>69.73667</ele>
        <time>2022-06-01T08:57:02.586Z</time>
      </trkpt>
      <trkpt lat="42.47517" lon="18.47009">
        <ele>70.117831</ele>
        <time>2022-06-01T08:57:05.584Z</time>
      </trkpt>
      <trkpt lat="42.47521" lon="18.46993">
        <ele>70.328564</ele>
        <time>2022-06-01T08:57:08.577Z</time>
      </trkpt>
      <trkpt lat="42.47524" lon="18.46977">
        <ele>70.475754</ele>
        <time>2022-06-01T08:57:11.592Z</time>
      </trkpt>
      <trkpt lat="42.47528" lon="18.46962">
        <ele>70.621025</ele>
        <time>2022-06-01T08:57:14.598Z</time>
      </trkpt>
      <trkpt lat="42.47532" lon="18.46947">
        <ele>70.760446</ele>
        <time>2022-06-01T08:57:17.599Z</time>
      </trkpt>
      <trkpt lat="42.47537" lon="18.46934">
        <ele>70.895382</ele>
        <time>2022-06-01T08:57:20.603Z</time>
      </trkpt>
      <trkpt lat="42.47542" lon="18.4692">
        <ele>71.030336</ele>
        <time>2022-06-01T08:57:23.579Z</time>
      </trkpt>
      <trkpt lat="42.47548" lon="18.46907">
        <ele>71.173427</ele>
        <time>2022-06-01T08:57:26.574Z</time>
      </trkpt>
      <trkpt lat="42.47554" lon="18.46893">
        <ele>71.314357</ele>
        <time>2022-06-01T08:57:29.620Z</time>
      </trkpt>
      <trkpt lat="42.4756" lon="18.46881">
        <ele>71.449248</ele>
        <time>2022-06-01T08:57:32.598Z</time>
      </trkpt>
      <trkpt lat="42.47566" lon="18.46868">
        <ele>71.58318</ele>
        <time>2022-06-01T08:57:35.615Z</time>
      </trkpt>
      <trkpt lat="42.47571" lon="18.46855">
        <ele>71.710064</ele>
        <time>2022-06-01T08:57:38.591Z</time>
      </trkpt>
      <trkpt lat="42.47576" lon="18.46841">
        <ele>71.849553</ele>
        <time>2022-06-01T08:57:41.618Z</time>
      </trkpt>
      <trkpt lat="42.4758" lon="18.46828">
        <ele>71.976445</ele>
        <time>2022-06-01T08:57:44.594Z</time>
      </trkpt>
      <trkpt lat="42.47583" lon="18.46813">
        <ele>72.115</ele>
        <time>2022-06-01T08:57:47.574Z</time>
      </trkpt>
      <trkpt lat="42.47586" lon="18.46799">
        <ele>72.244619</ele>
        <time>2022-06-01T08:57:50.583Z</time>
      </trkpt>
      <trkpt lat="42.47589" lon="18.46787">
        <ele>72.363769</ele>
        <time>2022-06-01T08:57:53.570Z</time>
      </trkpt>
      <trkpt lat="42.47591" lon="18.46772">
        <ele>72.638457</ele>
        <time>2022-06-01T08:57:57.589Z</time>
      </trkpt>
      <trkpt lat="42.47592" lon="18.46758">
        <ele>72.933285</ele>
        <time>2022-06-01T08:58:01.580Z</time>
      </trkpt>
      <trkpt lat="42.47594" lon="18.46743">
        <ele>73.282314</ele>
        <time>2022-06-01T08:58:05.598Z</time>
      </trkpt>
      <trkpt lat="42.47596" lon="18.46727">
        <ele>73.625247</ele>
        <time>2022-06-01T08:58:09.655Z</time>
      </trkpt>
      <trkpt lat="42.47598" lon="18.46712">
        <ele>73.949203</ele>
        <time>2022-06-01T08:58:13.596Z</time>
      </trkpt>
      <trkpt lat="42.476" lon="18.46698">
        <ele>74.274338</ele>
        <time>2022-06-01T08:58:17.596Z</time>
      </trkpt>
      <trkpt lat="42.47601" lon="18.46683">
        <ele>74.588591</ele>
        <time>2022-06-01T08:58:21.588Z</time>
      </trkpt>
      <trkpt lat="42.47602" lon="18.46669">
        <ele>74.903504</ele>
        <time>2022-06-01T08:58:25.581Z</time>
      </trkpt>
      <trkpt lat="42.47604" lon="18.46653">
        <ele>75.246785</ele>
        <time>2022-06-01T08:58:29.592Z</time>
      </trkpt>
      <trkpt lat="42.47605" lon="18.46639">
        <ele>75.544883</ele>
        <time>2022-06-01T08:58:33.586Z</time>
      </trkpt>
      <trkpt lat="42.47605" lon="18.46626">
        <ele>75.838164</ele>
        <time>2022-06-01T08:58:37.617Z</time>
      </trkpt>
      <trkpt lat="42.47606" lon="18.46612">
        <ele>76.145251</ele>
        <time>2022-06-01T08:58:41.599Z</time>
      </trkpt>
      <trkpt lat="42.47609" lon="18.46598">
        <ele>76.457496</ele>
        <time>2022-06-01T08:58:45.584Z</time>
      </trkpt>
      <trkpt lat="42.4761" lon="18.46584">
        <ele>76.770254</ele>
        <time>2022-06-01T08:58:49.578Z</time>
      </trkpt>
      <trkpt lat="42.47612" lon="18.46571">
        <ele>77.052146</ele>
        <time>2022-06-01T08:58:53.588Z</time>
      </trkpt>
      <trkpt lat="42.47616" lon="18.46559">
        <ele>77.330474</ele>
        <time>2022-06-01T08:58:57.580Z</time>
      </trkpt>
      <trkpt lat="42.4762" lon="18.46546">
        <ele>77.644125</ele>
        <time>2022-06-01T08:59:01.592Z</time>
      </trkpt>
      <trkpt lat="42.47623" lon="18.46532">
        <ele>77.842402</ele>
        <time>2022-06-01T08:59:05.597Z</time>
      </trkpt>
      <trkpt lat="42.47627" lon="18.46518">
        <ele>78.024339</ele>
        <time>2022-06-01T08:59:09.594Z</time>
      </trkpt>
      <trkpt lat="42.47631" lon="18.46504">
        <ele>78.198911</ele>
        <time>2022-06-01T08:59:13.590Z</time>
      </trkpt>
      <trkpt lat="42.47635" lon="18.46491">
        <ele>78.373289</ele>
        <time>2022-06-01T08:59:17.598Z</time>
      </trkpt>
      <trkpt lat="42.4764" lon="18.46479">
        <ele>78.539801</ele>
        <time>2022-06-01T08:59:21.595Z</time>
      </trkpt>
      <trkpt lat="42.47646" lon="18.46466">
        <ele>78.725516</ele>
        <time>2022-06-01T08:59:25.569Z</time>
      </trkpt>
      <trkpt lat="42.47653" lon="18.46454">
        <ele>78.91965</ele>
        <time>2022-06-01T08:59:29.594Z</time>
      </trkpt>
      <trkpt lat="42.47659" lon="18.46444">
        <ele>79.070989</ele>
        <time>2022-06-01T08:59:32.601Z</time>
      </trkpt>
      <trkpt lat="42.47667" lon="18.46432">
        <ele>79.263461</ele>
        <time>2022-06-01T08:59:36.593Z</time>
      </trkpt>
      <trkpt lat="42.47674" lon="18.4642">
        <ele>79.444947</ele>
        <time>2022-06-01T08:59:40.601Z</time>
      </trkpt>
      <trkpt lat="42.4768" lon="18.46409">
        <ele>79.61564</ele>
        <time>2022-06-01T08:59:44.617Z</time>
      </trkpt>
      <trkpt lat="42.47687" lon="18.46399">
        <ele>79.782083</ele>
        <time>2022-06-01T08:59:48.595Z</time>
      </trkpt>
      <trkpt lat="42.47693" lon="18.46386">
        <ele>79.962833</ele>
        <time>2022-06-01T08:59:52.582Z</time>
      </trkpt>
      <trkpt lat="42.47698" lon="18.46373">
        <ele>80.146832</ele>
        <time>2022-06-01T08:59:56.607Z</time>
      </trkpt>
      <trkpt lat="42.47704" lon="18.46362">
        <ele>80.318494</ele>
        <time>2022-06-01T09:00:00.576Z</time>
      </trkpt>
      <trkpt lat="42.4771" lon="18.46349">
        <ele>80.49826</ele>
        <time>2022-06-01T09:00:04.596Z</time>
      </trkpt>
      <trkpt lat="42.47717" lon="18.46337">
        <ele>80.710579</ele>
        <time>2022-06-01T09:00:08.585Z</time>
      </trkpt>
      <trkpt lat="42.47723" lon="18.46326">
        <ele>81.082666</ele>
        <time>2022-06-01T09:00:12.575Z</time>
      </trkpt>
      <trkpt lat="42.4773" lon="18.46314">
        <ele>81.47521</ele>
        <time>2022-06-01T09:00:16.594Z</time>
      </trkpt>
      <trkpt lat="42.47737" lon="18.46302">
        <ele>81.840917</ele>
        <time>2022-06-01T09:00:20.595Z</time>
      </trkpt>
      <trkpt lat="42.47744" lon="18.46291">
        <ele>82.224364</ele>
        <time>2022-06-01T09:00:24.632Z</time>
      </trkpt>
      <trkpt lat="42.47751" lon="18.4628">
        <ele>82.5849</ele>
        <time>2022-06-01T09:00:28.579Z</time>
      </trkpt>
      <trkpt lat="42.47757" lon="18.46268">
        <ele>82.969138</ele>
        <time>2022-06-01T09:00:32.592Z</time>
      </trkpt>
      <trkpt lat="42.47764" lon="18.46256">
        <ele>83.336857</ele>
        <time>2022-06-01T09:00:36.582Z</time>
      </trkpt>
      <trkpt lat="42.4777" lon="18.46245">
        <ele>83.702794</ele>
        <time>2022-06-01T09:00:40.595Z</time>
      </trkpt>
      <trkpt lat="42.47777" lon="18.46234">
        <ele>84.068922</ele>
        <time>2022-06-01T09:00:44.583Z</time>
      </trkpt>
      <trkpt lat="42.47784" lon="18.46224">
        <ele>84.419576</ele>
        <time>2022-06-01T09:00:48.591Z</time>
      </trkpt>
      <trkpt lat="42.47791" lon="18.46214">
        <ele>84.773984</ele>
        <time>2022-06-01T09:00:52.571Z</time>
      </trkpt>
      <trkpt lat="42.47797" lon="18.46204">
        <ele>85.096897</ele>
        <time>2022-06-01T09:00:56.611Z</time>
      </trkpt>
      <trkpt lat="42.47803" lon="18.46193">
        <ele>85.440232</ele>
        <time>2022-06-01T09:01:00.578Z</time>
      </trkpt>
      <trkpt lat="42.4781" lon="18.46182">
        <ele>85.809156</ele>
        <time>2022-06-01T09:01:04.570Z</time>
      </trkpt>
      <trkpt lat="42.47817" lon="18.46172">
        <ele>86.171951</ele>
        <time>2022-06-01T09:01:08.589Z</time>
      </trkpt>
      <trkpt lat="42.47824" lon="18.46162">
        <ele>86.51449</ele>
        <time>2022-06-01T09:01:12.588Z</time>
      </trkpt>
      <trkpt lat="42.4783" lon="18.46153">
        <ele>86.832597</ele>
        <time>2022-06-01T09:01:16.574Z</time>
      </trkpt>
      <trkpt lat="42.47837" lon="18.46142">
        <ele>87.070514</ele>
        <time>2022-06-01T09:01:21.571Z</time>
      </trkpt>
      <trkpt lat="42.47842" lon="18.46131">
        <ele>87.264164</ele>
        <time>2022-06-01T09:01:26.596Z</time>
      </trkpt>
      <trkpt lat="42.4785" lon="18.4612">
        <ele>87.493064</ele>
        <time>2022-06-01T09:01:31.601Z</time>
      </trkpt>
      <trkpt lat="42.47856" lon="18.46111">
        <ele>87.68107</ele>
        <time>2022-06-01T09:01:35.580Z</time>
      </trkpt>
      <trkpt lat="42.47862" lon="18.46102">
        <ele>87.871102</ele>
        <time>2022-06-01T09:01:39.592Z</time>
      </trkpt>
      <trkpt lat="42.47868" lon="18.46091">
        <ele>88.07024</ele>
        <time>2022-06-01T09:01:43.576Z</time>
      </trkpt>
      <trkpt lat="42.47873" lon="18.46079">
        <ele>88.281798</ele>
        <time>2022-06-01T09:01:47.572Z</time>
      </trkpt>
      <trkpt lat="42.47878" lon="18.46068">
        <ele>88.479304</ele>
        <time>2022-06-01T09:01:51.587Z</time>
      </trkpt>
      <trkpt lat="42.47884" lon="18.46056">
        <ele>88.692102</ele>
        <time>2022-06-01T09:01:56.584Z</time>
      </trkpt>
      <trkpt lat="42.47889" lon="18.46043">
        <ele>88.911424</ele>
        <time>2022-06-01T09:02:01.566Z</time>
      </trkpt>
      <trkpt lat="42.47893" lon="18.46029">
        <ele>89.135867</ele>
        <time>2022-06-01T09:02:06.581Z</time>
      </trkpt>
      <trkpt lat="42.47896" lon="18.46016">
        <ele>89.351014</ele>
        <time>2022-06-01T09:02:11.578Z</time>
      </trkpt>
      <trkpt lat="42.479" lon="18.46004">
        <ele>89.535727</ele>
        <time>2022-06-01T09:02:15.623Z</time>
      </trkpt>
      <trkpt lat="42.47904" lon="18.4599">
        <ele>89.766532</ele>
        <time>2022-06-01T09:02:20.592Z</time>
      </trkpt>
      <trkpt lat="42.47907" lon="18.45978">
        <ele>89.960452</ele>
        <time>2022-06-01T09:02:24.585Z</time>
      </trkpt>
      <trkpt lat="42.47911" lon="18.45966">
        <ele>90.165328</ele>
        <time>2022-06-01T09:02:28.582Z</time>
      </trkpt>
      <trkpt lat="42.47915" lon="18.45953">
        <ele>90.373411</ele>
        <time>2022-06-01T09:02:32.596Z</time>
      </trkpt>
      <trkpt lat="42.47919" lon="18.4594">
        <ele>90.60964</ele>
        <time>2022-06-01T09:02:36.574Z</time>
      </trkpt>
      <trkpt lat="42.47924" lon="18.45925">
        <ele>90.944883</ele>
        <time>2022-06-01T09:02:40.597Z</time>
      </trkpt>
      <trkpt lat="42.47927" lon="18.45914">
        <ele>91.202182</ele>
        <time>2022-06-01T09:02:43.654Z</time>
      </trkpt>
      <trkpt lat="42.47933" lon="18.45899">
        <ele>91.538336</ele>
        <time>2022-06-01T09:02:47.585Z</time>
      </trkpt>
      <trkpt lat="42.47938" lon="18.45887">
        <ele>91.835877</ele>
        <time>2022-06-01T09:02:51.583Z</time>
      </trkpt>
      <trkpt lat="42.47944" lon="18.45873">
        <ele>92.168935</ele>
        <time>2022-06-01T09:02:55.588Z</time>
      </trkpt>
      <trkpt lat="42.47949" lon="18.45862">
        <ele>92.457483</ele>
        <time>2022-06-01T09:02:58.578Z</time>
      </trkpt>
      <trkpt lat="42.47956" lon="18.45851">
        <ele>92.753023</ele>
        <time>2022-06-01T09:03:01.576Z</time>
      </trkpt>
      <trkpt lat="42.47963" lon="18.45842">
        <ele>93.01827</ele>
        <time>2022-06-01T09:03:04.602Z</time>
      </trkpt>
      <trkpt lat="42.47972" lon="18.45832">
        <ele>93.343812</ele>
        <time>2022-06-01T09:03:08.612Z</time>
      </trkpt>
      <trkpt lat="42.47979" lon="18.45824">
        <ele>93.603972</ele>
        <time>2022-06-01T09:03:11.598Z</time>
      </trkpt>
      <trkpt lat="42.47988" lon="18.45815">
        <ele>93.922192</ele>
        <time>2022-06-01T09:03:15.615Z</time>
      </trkpt>
      <trkpt lat="42.47998" lon="18.45807">
        <ele>94.252147</ele>
        <time>2022-06-01T09:03:19.584Z</time>
      </trkpt>
      <trkpt lat="42.48008" lon="18.45799">
        <ele>94.585837</ele>
        <time>2022-06-01T09:03:23.572Z</time>
      </trkpt>
      <trkpt lat="42.48019" lon="18.45792">
        <ele>94.927956</ele>
        <time>2022-06-01T09:03:27.601Z</time>
      </trkpt>
      <trkpt lat="42.48027" lon="18.45787">
        <ele>95.184785</ele>
        <time>2022-06-01T09:03:30.599Z</time>
      </trkpt>
      <trkpt lat="42.48036" lon="18.45781">
        <ele>95.472785</ele>
        <time>2022-06-01T09:03:34.577Z</time>
      </trkpt>
      <trkpt lat="42.48047" lon="18.45775">
        <ele>95.798198</ele>
        <time>2022-06-01T09:03:38.573Z</time>
      </trkpt>
      <trkpt lat="42.48056" lon="18.4577">
        <ele>96.061473</ele>
        <time>2022-06-01T09:03:41.553Z</time>
      </trkpt>
      <trkpt lat="42.48066" lon="18.45763">
        <ele>96.385473</ele>
        <time>2022-06-01T09:03:45.561Z</time>
      </trkpt>
      <trkpt lat="42.48076" lon="18.45754">
        <ele>96.723493</ele>
        <time>2022-06-01T09:03:49.566Z</time>
      </trkpt>
      <trkpt lat="42.48083" lon="18.45747">
        <ele>96.97833</ele>
        <time>2022-06-01T09:03:52.552Z</time>
      </trkpt>
      <trkpt lat="42.48092" lon="18.45736">
        <ele>97.308175</ele>
        <time>2022-06-01T09:03:56.556Z</time>
      </trkpt>
      <trkpt lat="42.48099" lon="18.45726">
        <ele>97.578799</ele>
        <time>2022-06-01T09:03:59.602Z</time>
      </trkpt>
      <trkpt lat="42.48104" lon="18.45717">
        <ele>97.831052</ele>
        <time>2022-06-01T09:04:02.560Z</time>
      </trkpt>
      <trkpt lat="42.48111" lon="18.45699">
        <ele>98.234514</ele>
        <time>2022-06-01T09:04:07.554Z</time>
      </trkpt>
      <trkpt lat="42.48114" lon="18.45685">
        <ele>98.546087</ele>
        <time>2022-06-01T09:04:11.557Z</time>
      </trkpt>
      <trkpt lat="42.48118" lon="18.4567">
        <ele>98.871638</ele>
        <time>2022-06-01T09:04:15.558Z</time>
      </trkpt>
      <trkpt lat="42.48119" lon="18.45657">
        <ele>99.135</ele>
        <time>2022-06-01T09:04:18.553Z</time>
      </trkpt>
      <trkpt lat="42.4812" lon="18.45642">
        <ele>99.456671</ele>
        <time>2022-06-01T09:04:22.572Z</time>
      </trkpt>
      <trkpt lat="42.48121" lon="18.45628">
        <ele>99.733488</ele>
        <time>2022-06-01T09:04:26.554Z</time>
      </trkpt>
      <trkpt lat="42.48122" lon="18.45615">
        <ele>100.001594</ele>
        <time>2022-06-01T09:04:31.562Z</time>
      </trkpt>
      <trkpt lat="42.48122" lon="18.45581">
        <ele>100.702565</ele>
        <time>2022-06-01T09:05:17.562Z</time>
      </trkpt>
      <trkpt lat="42.48121" lon="18.4556">
        <ele>100.995883</ele>
        <time>2022-06-01T09:06:44.586Z</time>
      </trkpt>
      <trkpt lat="42.48124" lon="18.45542">
        <ele>101.260573</ele>
        <time>2022-06-01T09:08:40.624Z</time>
      </trkpt>
      <trkpt lat="42.48121" lon="18.45528">
        <ele>101.46603</ele>
        <time>2022-06-01T09:08:45.582Z</time>
      </trkpt>
      <trkpt lat="42.4812" lon="18.45515">
        <ele>101.649088</ele>
        <time>2022-06-01T09:08:49.583Z</time>
      </trkpt>
      <trkpt lat="42.4812" lon="18.455">
        <ele>101.86439</ele>
        <time>2022-06-01T09:08:54.595Z</time>
      </trkpt>
      <trkpt lat="42.48122" lon="18.45485">
        <ele>102.078221</ele>
        <time>2022-06-01T09:08:59.597Z</time>
      </trkpt>
      <trkpt lat="42.48124" lon="18.45471">
        <ele>102.280553</ele>
        <time>2022-06-01T09:09:04.583Z</time>
      </trkpt>
      <trkpt lat="42.48126" lon="18.45458">
        <ele>102.463085</ele>
        <time>2022-06-01T09:09:09.588Z</time>
      </trkpt>
      <trkpt lat="42.48129" lon="18.45446">
        <ele>102.65911</ele>
        <time>2022-06-01T09:09:14.568Z</time>
      </trkpt>
      <trkpt lat="42.48134" lon="18.45433">
        <ele>102.854152</ele>
        <time>2022-06-01T09:09:20.597Z</time>
      </trkpt>
      <trkpt lat="42.48138" lon="18.45422">
        <ele>103.029969</ele>
        <time>2022-06-01T09:09:26.614Z</time>
      </trkpt>
      <trkpt lat="42.48141" lon="18.45409">
        <ele>103.231283</ele>
        <time>2022-06-01T09:09:33.591Z</time>
      </trkpt>
      <trkpt lat="42.48145" lon="18.45397">
        <ele>103.410272</ele>
        <time>2022-06-01T09:09:39.592Z</time>
      </trkpt>
      <trkpt lat="42.48149" lon="18.45384">
        <ele>103.612246</ele>
        <time>2022-06-01T09:09:46.591Z</time>
      </trkpt>
      <trkpt lat="42.48151" lon="18.4537">
        <ele>103.81171</ele>
        <time>2022-06-01T09:09:53.596Z</time>
      </trkpt>
      <trkpt lat="42.48155" lon="18.45358">
        <ele>103.988437</ele>
        <time>2022-06-01T09:09:59.583Z</time>
      </trkpt>
      <trkpt lat="42.48158" lon="18.45347">
        <ele>104.268675</ele>
        <time>2022-06-01T09:10:05.589Z</time>
      </trkpt>
      <trkpt lat="42.48161" lon="18.45335">
        <ele>105.154168</ele>
        <time>2022-06-01T09:10:11.581Z</time>
      </trkpt>
      <trkpt lat="42.48164" lon="18.45322">
        <ele>106.112482</ele>
        <time>2022-06-01T09:10:17.606Z</time>
      </trkpt>
      <trkpt lat="42.48166" lon="18.4531">
        <ele>107.019596</ele>
        <time>2022-06-01T09:10:23.567Z</time>
      </trkpt>
      <trkpt lat="42.48169" lon="18.45297">
        <ele>107.982202</ele>
        <time>2022-06-01T09:10:29.579Z</time>
      </trkpt>
      <trkpt lat="42.48173" lon="18.45284">
        <ele>108.997786</ele>
        <time>2022-06-01T09:10:36.579Z</time>
      </trkpt>
      <trkpt lat="42.48178" lon="18.45272">
        <ele>109.965698</ele>
        <time>2022-06-01T09:10:42.639Z</time>
      </trkpt>
      <trkpt lat="42.4818" lon="18.45259">
        <ele>110.933136</ele>
        <time>2022-06-01T09:10:50.579Z</time>
      </trkpt>
      <trkpt lat="42.48181" lon="18.45247">
        <ele>111.847883</ele>
        <time>2022-06-01T09:10:56.583Z</time>
      </trkpt>
      <trkpt lat="42.48183" lon="18.45234">
        <ele>112.727271</ele>
        <time>2022-06-01T09:11:02.601Z</time>
      </trkpt>
      <trkpt lat="42.48185" lon="18.45223">
        <ele>113.614088</ele>
        <time>2022-06-01T09:11:09.592Z</time>
      </trkpt>
      <trkpt lat="42.48185" lon="18.45209">
        <ele>114.567315</ele>
        <time>2022-06-01T09:11:18.576Z</time>
      </trkpt>
      <trkpt lat="42.48184" lon="18.45197">
        <ele>115.438014</ele>
        <time>2022-06-01T09:11:26.574Z</time>
      </trkpt>
      <trkpt lat="42.48185" lon="18.45185">
        <ele>116.345296</ele>
        <time>2022-06-01T09:11:34.594Z</time>
      </trkpt>
      <trkpt lat="42.48185" lon="18.45172">
        <ele>117.255572</ele>
        <time>2022-06-01T09:11:41.588Z</time>
      </trkpt>
      <trkpt lat="42.48185" lon="18.45158">
        <ele>118.225521</ele>
        <time>2022-06-01T09:11:48.590Z</time>
      </trkpt>
      <trkpt lat="42.48184" lon="18.45144">
        <ele>119.237252</ele>
        <time>2022-06-01T09:11:55.584Z</time>
      </trkpt>
      <trkpt lat="42.48183" lon="18.45131">
        <ele>120.214332</ele>
        <time>2022-06-01T09:12:03.573Z</time>
      </trkpt>
      <trkpt lat="42.48182" lon="18.45118">
        <ele>121.115478</ele>
        <time>2022-06-01T09:12:10.584Z</time>
      </trkpt>
      <trkpt lat="42.48182" lon="18.45105">
        <ele>121.945875</ele>
        <time>2022-06-01T09:12:17.572Z</time>
      </trkpt>
      <trkpt lat="42.4818" lon="18.45092">
        <ele>122.687537</ele>
        <time>2022-06-01T09:12:24.601Z</time>
      </trkpt>
      <trkpt lat="42.48179" lon="18.45079">
        <ele>123.393205</ele>
        <time>2022-06-01T09:12:33.590Z</time>
      </trkpt>
      <trkpt lat="42.48179" lon="18.45066">
        <ele>124.08453</ele>
        <time>2022-06-01T09:12:40.602Z</time>
      </trkpt>
      <trkpt lat="42.48181" lon="18.45053">
        <ele>124.798574</ele>
        <time>2022-06-01T09:12:47.619Z</time>
      </trkpt>
      <trkpt lat="42.48182" lon="18.45039">
        <ele>125.522132</ele>
        <time>2022-06-01T09:12:55.573Z</time>
      </trkpt>
      <trkpt lat="42.48181" lon="18.45026">
        <ele>126.238644</ele>
        <time>2022-06-01T09:13:03.591Z</time>
      </trkpt>
      <trkpt lat="42.48182" lon="18.45014">
        <ele>126.901507</ele>
        <time>2022-06-01T09:13:10.622Z</time>
      </trkpt>
      <trkpt lat="42.48181" lon="18.45001">
        <ele>127.564652</ele>
        <time>2022-06-01T09:13:17.590Z</time>
      </trkpt>
      <trkpt lat="42.4818" lon="18.44988">
        <ele>128.284728</ele>
        <time>2022-06-01T09:13:25.582Z</time>
      </trkpt>
      <trkpt lat="42.4818" lon="18.44975">
        <ele>128.980161</ele>
        <time>2022-06-01T09:13:32.589Z</time>
      </trkpt>
      <trkpt lat="42.48181" lon="18.44963">
        <ele>129.667358</ele>
        <time>2022-06-01T09:13:39.628Z</time>
      </trkpt>
      <trkpt lat="42.48182" lon="18.4495">
        <ele>130.328229</ele>
        <time>2022-06-01T09:13:46.585Z</time>
      </trkpt>
      <trkpt lat="42.48185" lon="18.44938">
        <ele>131.04735</ele>
        <time>2022-06-01T09:13:54.592Z</time>
      </trkpt>
      <trkpt lat="42.48188" lon="18.44925">
        <ele>131.787871</ele>
        <time>2022-06-01T09:14:01.586Z</time>
      </trkpt>
      <trkpt lat="42.48192" lon="18.44913">
        <ele>132.465735</ele>
        <time>2022-06-01T09:14:08.581Z</time>
      </trkpt>
      <trkpt lat="42.48195" lon="18.44901">
        <ele>133.150782</ele>
        <time>2022-06-01T09:14:16.580Z</time>
      </trkpt>
      <trkpt lat="42.48198" lon="18.4489">
        <ele>133.811095</ele>
        <time>2022-06-01T09:14:24.579Z</time>
      </trkpt>
      <trkpt lat="42.48202" lon="18.44877">
        <ele>134.5314</ele>
        <time>2022-06-01T09:14:32.585Z</time>
      </trkpt>
      <trkpt lat="42.48206" lon="18.44866">
        <ele>135.335045</ele>
        <time>2022-06-01T09:14:39.594Z</time>
      </trkpt>
      <trkpt lat="42.4821" lon="18.44854">
        <ele>136.237925</ele>
        <time>2022-06-01T09:14:47.582Z</time>
      </trkpt>
      <trkpt lat="42.48214" lon="18.44843">
        <ele>137.080994</ele>
        <time>2022-06-01T09:14:55.587Z</time>
      </trkpt>
      <trkpt lat="42.48218" lon="18.44832">
        <ele>137.940518</ele>
        <time>2022-06-01T09:15:02.587Z</time>
      </trkpt>
      <trkpt lat="42.48224" lon="18.44821">
        <ele>138.848181</ele>
        <time>2022-06-01T09:15:10.606Z</time>
      </trkpt>
      <trkpt lat="42.48229" lon="18.44811">
        <ele>139.696521</ele>
        <time>2022-06-01T09:15:18.589Z</time>
      </trkpt>
      <trkpt lat="42.48235" lon="18.44801">
        <ele>140.588599</ele>
        <time>2022-06-01T09:15:26.620Z</time>
      </trkpt>
      <trkpt lat="42.48241" lon="18.44791">
        <ele>141.45361</ele>
        <time>2022-06-01T09:15:34.625Z</time>
      </trkpt>
      <trkpt lat="42.48248" lon="18.44782">
        <ele>142.365892</ele>
        <time>2022-06-01T09:15:42.619Z</time>
      </trkpt>
      <trkpt lat="42.48254" lon="18.44772">
        <ele>143.284484</ele>
        <time>2022-06-01T09:15:50.587Z</time>
      </trkpt>
      <trkpt lat="42.48262" lon="18.44762">
        <ele>144.228819</ele>
        <time>2022-06-01T09:15:58.586Z</time>
      </trkpt>
      <trkpt lat="42.4827" lon="18.44753">
        <ele>145.195077</ele>
        <time>2022-06-01T09:16:05.619Z</time>
      </trkpt>
      <trkpt lat="42.48277" lon="18.44746">
        <ele>146.035235</ele>
        <time>2022-06-01T09:16:12.604Z</time>
      </trkpt>
      <trkpt lat="42.48283" lon="18.44736">
        <ele>146.927309</ele>
        <time>2022-06-01T09:16:20.591Z</time>
      </trkpt>
      <trkpt lat="42.48289" lon="18.44727">
        <ele>147.794907</ele>
        <time>2022-06-01T09:16:28.557Z</time>
      </trkpt>
      <trkpt lat="42.48296" lon="18.44717">
        <ele>148.722517</ele>
        <time>2022-06-01T09:16:36.559Z</time>
      </trkpt>
      <trkpt lat="42.48301" lon="18.44706">
        <ele>149.581672</ele>
        <time>2022-06-01T09:16:43.570Z</time>
      </trkpt>
      <trkpt lat="42.48307" lon="18.44696">
        <ele>150.457211</ele>
        <time>2022-06-01T09:16:52.552Z</time>
      </trkpt>
      <trkpt lat="42.48313" lon="18.44687">
        <ele>151.31561</ele>
        <time>2022-06-01T09:17:00.570Z</time>
      </trkpt>
      <trkpt lat="42.48319" lon="18.44677">
        <ele>152.264599</ele>
        <time>2022-06-01T09:17:07.565Z</time>
      </trkpt>
      <trkpt lat="42.48325" lon="18.44668">
        <ele>153.249226</ele>
        <time>2022-06-01T09:17:14.560Z</time>
      </trkpt>
      <trkpt lat="42.4833" lon="18.44657">
        <ele>154.27856</ele>
        <time>2022-06-01T09:17:22.579Z</time>
      </trkpt>
      <trkpt lat="42.48336" lon="18.44647">
        <ele>155.282671</ele>
        <time>2022-06-01T09:17:30.575Z</time>
      </trkpt>
      <trkpt lat="42.48342" lon="18.44637">
        <ele>156.266786</ele>
        <time>2022-06-01T09:17:37.550Z</time>
      </trkpt>
      <trkpt lat="42.48348" lon="18.44628">
        <ele>157.246555</ele>
        <time>2022-06-01T09:17:44.566Z</time>
      </trkpt>
      <trkpt lat="42.48352" lon="18.44617">
        <ele>158.221096</ele>
        <time>2022-06-01T09:17:51.556Z</time>
      </trkpt>
      <trkpt lat="42.48358" lon="18.44606">
        <ele>159.282031</ele>
        <time>2022-06-01T09:17:59.562Z</time>
      </trkpt>
      <trkpt lat="42.48363" lon="18.44595">
        <ele>160.265892</ele>
        <time>2022-06-01T09:18:07.555Z</time>
      </trkpt>
      <trkpt lat="42.48367" lon="18.44584">
        <ele>161.254681</ele>
        <time>2022-06-01T09:18:15.556Z</time>
      </trkpt>
      <trkpt lat="42.48372" lon="18.44573">
        <ele>162.309611</ele>
        <time>2022-06-01T09:18:22.596Z</time>
      </trkpt>
      <trkpt lat="42.48377" lon="18.44562">
        <ele>163.342413</ele>
        <time>2022-06-01T09:18:29.555Z</time>
      </trkpt>
      <trkpt lat="42.48382" lon="18.4455">
        <ele>164.400364</ele>
        <time>2022-06-01T09:18:37.585Z</time>
      </trkpt>
      <trkpt lat="42.48385" lon="18.44538">
        <ele>165.407101</ele>
        <time>2022-06-01T09:18:46.570Z</time>
      </trkpt>
      <trkpt lat="42.48387" lon="18.44525">
        <ele>166.479705</ele>
        <time>2022-06-01T09:18:55.565Z</time>
      </trkpt>
      <trkpt lat="42.4839" lon="18.44513">
        <ele>167.469418</ele>
        <time>2022-06-01T09:19:04.574Z</time>
      </trkpt>
      <trkpt lat="42.48393" lon="18.44499">
        <ele>168.591175</ele>
        <time>2022-06-01T09:19:12.563Z</time>
      </trkpt>
      <trkpt lat="42.48397" lon="18.44486">
        <ele>169.661472</ele>
        <time>2022-06-01T09:19:20.600Z</time>
      </trkpt>
      <trkpt lat="42.484" lon="18.44474">
        <ele>170.679175</ele>
        <time>2022-06-01T09:19:28.556Z</time>
      </trkpt>
      <trkpt lat="42.48402" lon="18.44462">
        <ele>171.398136</ele>
        <time>2022-06-01T09:19:36.556Z</time>
      </trkpt>
      <trkpt lat="42.48405" lon="18.44449">
        <ele>172.091645</ele>
        <time>2022-06-01T09:19:44.567Z</time>
      </trkpt>
      <trkpt lat="42.48408" lon="18.44437">
        <ele>172.789344</ele>
        <time>2022-06-01T09:19:51.555Z</time>
      </trkpt>
      <trkpt lat="42.4841" lon="18.44425">
        <ele>173.464019</ele>
        <time>2022-06-01T09:19:58.592Z</time>
      </trkpt>
      <trkpt lat="42.48414" lon="18.44414">
        <ele>174.118933</ele>
        <time>2022-06-01T09:20:05.551Z</time>
      </trkpt>
      <trkpt lat="42.48416" lon="18.44402">
        <ele>174.792543</ele>
        <time>2022-06-01T09:20:13.557Z</time>
      </trkpt>
      <trkpt lat="42.4842" lon="18.4439">
        <ele>175.507496</ele>
        <time>2022-06-01T09:20:21.559Z</time>
      </trkpt>
      <trkpt lat="42.48423" lon="18.44377">
        <ele>176.199648</ele>
        <time>2022-06-01T09:20:29.573Z</time>
      </trkpt>
      <trkpt lat="42.48426" lon="18.44364">
        <ele>176.92588</ele>
        <time>2022-06-01T09:20:37.554Z</time>
      </trkpt>
      <trkpt lat="42.48428" lon="18.44351">
        <ele>177.655819</ele>
        <time>2022-06-01T09:20:46.594Z</time>
      </trkpt>
      <trkpt lat="42.48431" lon="18.44338">
        <ele>178.382051</ele>
        <time>2022-06-01T09:20:54.560Z</time>
      </trkpt>
      <trkpt lat="42.48435" lon="18.44325">
        <ele>179.109979</ele>
        <time>2022-06-01T09:21:02.552Z</time>
      </trkpt>
      <trkpt lat="42.48438" lon="18.44314">
        <ele>179.764914</ele>
        <time>2022-06-01T09:21:09.557Z</time>
      </trkpt>
      <trkpt lat="42.48441" lon="18.44302">
        <ele>180.434904</ele>
        <time>2022-06-01T09:21:17.559Z</time>
      </trkpt>
      <trkpt lat="42.48444" lon="18.44291">
        <ele>181.104894</ele>
        <time>2022-06-01T09:21:24.578Z</time>
      </trkpt>
      <trkpt lat="42.48447" lon="18.44278">
        <ele>181.82441</ele>
        <time>2022-06-01T09:21:32.555Z</time>
      </trkpt>
      <trkpt lat="42.48451" lon="18.44266">
        <ele>182.512713</ele>
        <time>2022-06-01T09:21:39.559Z</time>
      </trkpt>
      <trkpt lat="42.48456" lon="18.44255">
        <ele>183.213077</ele>
        <time>2022-06-01T09:21:47.563Z</time>
      </trkpt>
      <trkpt lat="42.48459" lon="18.44242">
        <ele>183.959243</ele>
        <time>2022-06-01T09:21:55.577Z</time>
      </trkpt>
      <trkpt lat="42.48462" lon="18.44229">
        <ele>184.806454</ele>
        <time>2022-06-01T09:22:03.554Z</time>
      </trkpt>
      <trkpt lat="42.48466" lon="18.44217">
        <ele>185.60508</ele>
        <time>2022-06-01T09:22:11.564Z</time>
      </trkpt>
      <trkpt lat="42.48469" lon="18.44205">
        <ele>186.417711</ele>
        <time>2022-06-01T09:22:18.560Z</time>
      </trkpt>
      <trkpt lat="42.48472" lon="18.44193">
        <ele>187.206104</ele>
        <time>2022-06-01T09:22:25.567Z</time>
      </trkpt>
      <trkpt lat="42.48476" lon="18.44181">
        <ele>188.055009</ele>
        <time>2022-06-01T09:22:33.559Z</time>
      </trkpt>
      <trkpt lat="42.48481" lon="18.44169">
        <ele>188.888956</ele>
        <time>2022-06-01T09:22:41.581Z</time>
      </trkpt>
      <trkpt lat="42.48486" lon="18.44158">
        <ele>189.683113</ele>
        <time>2022-06-01T09:22:49.561Z</time>
      </trkpt>
      <trkpt lat="42.4849" lon="18.44147">
        <ele>190.447584</ele>
        <time>2022-06-01T09:22:56.558Z</time>
      </trkpt>
      <trkpt lat="42.48497" lon="18.44137">
        <ele>191.334134</ele>
        <time>2022-06-01T09:23:03.571Z</time>
      </trkpt>
      <trkpt lat="42.48503" lon="18.44127">
        <ele>192.129805</ele>
        <time>2022-06-01T09:23:11.554Z</time>
      </trkpt>
      <trkpt lat="42.48509" lon="18.44117">
        <ele>192.965206</ele>
        <time>2022-06-01T09:23:19.562Z</time>
      </trkpt>
      <trkpt lat="42.48515" lon="18.44106">
        <ele>193.749776</ele>
        <time>2022-06-01T09:23:27.552Z</time>
      </trkpt>
      <trkpt lat="42.4852" lon="18.44096">
        <ele>194.54414</ele>
        <time>2022-06-01T09:23:35.553Z</time>
      </trkpt>
      <trkpt lat="42.48525" lon="18.44086">
        <ele>195.320353</ele>
        <time>2022-06-01T09:23:42.557Z</time>
      </trkpt>
      <trkpt lat="42.48531" lon="18.44075">
        <ele>196.109687</ele>
        <time>2022-06-01T09:23:49.577Z</time>
      </trkpt>
      <trkpt lat="42.48536" lon="18.44065">
        <ele>196.924211</ele>
        <time>2022-06-01T09:23:57.551Z</time>
      </trkpt>
      <trkpt lat="42.48542" lon="18.44054">
        <ele>197.729929</ele>
        <time>2022-06-01T09:24:05.560Z</time>
      </trkpt>
      <trkpt lat="42.48547" lon="18.44043">
        <ele>198.574655</ele>
        <time>2022-06-01T09:24:13.581Z</time>
      </trkpt>
      <trkpt lat="42.48551" lon="18.4403">
        <ele>199.242866</ele>
        <time>2022-06-01T09:24:21.561Z</time>
      </trkpt>
      <trkpt lat="42.48555" lon="18.44019">
        <ele>199.6011</ele>
        <time>2022-06-01T09:24:28.554Z</time>
      </trkpt>
      <trkpt lat="42.4856" lon="18.44008">
        <ele>199.97495</ele>
        <time>2022-06-01T09:24:35.558Z</time>
      </trkpt>
      <trkpt lat="42.48563" lon="18.43996">
        <ele>200.34722</ele>
        <time>2022-06-01T09:24:43.557Z</time>
      </trkpt>
      <trkpt lat="42.48566" lon="18.43983">
        <ele>200.739136</ele>
        <time>2022-06-01T09:24:51.562Z</time>
      </trkpt>
      <trkpt lat="42.48568" lon="18.4397">
        <ele>201.119299</ele>
        <time>2022-06-01T09:24:59.565Z</time>
      </trkpt>
      <trkpt lat="42.4857" lon="18.43957">
        <ele>201.496855</ele>
        <time>2022-06-01T09:25:07.555Z</time>
      </trkpt>
      <trkpt lat="42.4857" lon="18.43945">
        <ele>201.86044</ele>
        <time>2022-06-01T09:25:14.561Z</time>
      </trkpt>
      <trkpt lat="42.48572" lon="18.43933">
        <ele>202.210975</ele>
        <time>2022-06-01T09:25:21.586Z</time>
      </trkpt>
      <trkpt lat="42.48575" lon="18.4392">
        <ele>202.608996</ele>
        <time>2022-06-01T09:25:29.559Z</time>
      </trkpt>
      <trkpt lat="42.48578" lon="18.43906">
        <ele>203.007848</ele>
        <time>2022-06-01T09:25:37.554Z</time>
      </trkpt>
      <trkpt lat="42.48581" lon="18.43894">
        <ele>203.381493</ele>
        <time>2022-06-01T09:25:44.555Z</time>
      </trkpt>
      <trkpt lat="42.48585" lon="18.43882">
        <ele>203.782123</ele>
        <time>2022-06-01T09:25:51.558Z</time>
      </trkpt>
      <trkpt lat="42.48589" lon="18.4387">
        <ele>204.147946</ele>
        <time>2022-06-01T09:25:58.560Z</time>
      </trkpt>
      <trkpt lat="42.48593" lon="18.43857">
        <ele>204.548575</ele>
        <time>2022-06-01T09:26:06.556Z</time>
      </trkpt>
      <trkpt lat="42.48599" lon="18.43845">
        <ele>204.953828</ele>
        <time>2022-06-01T09:26:14.563Z</time>
      </trkpt>
      <trkpt lat="42.48605" lon="18.43835">
        <ele>205.342482</ele>
        <time>2022-06-01T09:26:22.561Z</time>
      </trkpt>
      <trkpt lat="42.48613" lon="18.43826">
        <ele>205.730563</ele>
        <time>2022-06-01T09:26:31.558Z</time>
      </trkpt>
      <trkpt lat="42.48621" lon="18.43819">
        <ele>206.113028</ele>
        <time>2022-06-01T09:26:38.565Z</time>
      </trkpt>
      <trkpt lat="42.4863" lon="18.43815">
        <ele>206.621609</ele>
        <time>2022-06-01T09:26:44.570Z</time>
      </trkpt>
      <trkpt lat="42.48639" lon="18.4381">
        <ele>207.180114</ele>
        <time>2022-06-01T09:26:52.574Z</time>
      </trkpt>
      <trkpt lat="42.48648" lon="18.43806">
        <ele>207.70311</ele>
        <time>2022-06-01T09:27:00.563Z</time>
      </trkpt>
      <trkpt lat="42.48658" lon="18.43803">
        <ele>208.271339</ele>
        <time>2022-06-01T09:27:07.561Z</time>
      </trkpt>
      <trkpt lat="42.48667" lon="18.43801">
        <ele>208.814564</ele>
        <time>2022-06-01T09:27:14.560Z</time>
      </trkpt>
      <trkpt lat="42.48676" lon="18.43797">
        <ele>209.337913</ele>
        <time>2022-06-01T09:27:21.566Z</time>
      </trkpt>
      <trkpt lat="42.48685" lon="18.43794">
        <ele>209.884038</ele>
        <time>2022-06-01T09:27:29.578Z</time>
      </trkpt>
      <trkpt lat="42.48695" lon="18.43789">
        <ele>210.450037</ele>
        <time>2022-06-01T09:27:37.556Z</time>
      </trkpt>
      <trkpt lat="42.48704" lon="18.43785">
        <ele>211.001589</ele>
        <time>2022-06-01T09:27:45.556Z</time>
      </trkpt>
      <trkpt lat="42.48713" lon="18.43779">
        <ele>211.557353</ele>
        <time>2022-06-01T09:27:53.577Z</time>
      </trkpt>
      <trkpt lat="42.48721" lon="18.43774">
        <ele>212.086284</ele>
        <time>2022-06-01T09:28:01.570Z</time>
      </trkpt>
      <trkpt lat="42.48729" lon="18.43766">
        <ele>212.636698</ele>
        <time>2022-06-01T09:28:09.556Z</time>
      </trkpt>
      <trkpt lat="42.48736" lon="18.43758">
        <ele>213.171904</ele>
        <time>2022-06-01T09:28:17.583Z</time>
      </trkpt>
      <trkpt lat="42.48743" lon="18.43748">
        <ele>213.728046</ele>
        <time>2022-06-01T09:28:24.574Z</time>
      </trkpt>
      <trkpt lat="42.48749" lon="18.43738">
        <ele>214.264603</ele>
        <time>2022-06-01T09:28:31.554Z</time>
      </trkpt>
      <trkpt lat="42.48754" lon="18.43727">
        <ele>214.780961</ele>
        <time>2022-06-01T09:28:38.559Z</time>
      </trkpt>
      <trkpt lat="42.4876" lon="18.43717">
        <ele>215.319481</ele>
        <time>2022-06-01T09:28:45.578Z</time>
      </trkpt>
      <trkpt lat="42.48765" lon="18.43706">
        <ele>215.845057</ele>
        <time>2022-06-01T09:28:51.558Z</time>
      </trkpt>
      <trkpt lat="42.4877" lon="18.43696">
        <ele>216.443383</ele>
        <time>2022-06-01T09:28:58.563Z</time>
      </trkpt>
      <trkpt lat="42.48775" lon="18.43686">
        <ele>217.356546</ele>
        <time>2022-06-01T09:29:05.558Z</time>
      </trkpt>
      <trkpt lat="42.4878" lon="18.43674">
        <ele>218.380724</ele>
        <time>2022-06-01T09:29:13.559Z</time>
      </trkpt>
      <trkpt lat="42.48785" lon="18.43664">
        <ele>219.325024</ele>
        <time>2022-06-01T09:29:21.577Z</time>
      </trkpt>
      <trkpt lat="42.4879" lon="18.43651">
        <ele>220.359297</ele>
        <time>2022-06-01T09:29:28.575Z</time>
      </trkpt>
      <trkpt lat="42.48796" lon="18.43643">
        <ele>221.276766</ele>
        <time>2022-06-01T09:29:36.560Z</time>
      </trkpt>
      <trkpt lat="42.48803" lon="18.43632">
        <ele>222.339102</ele>
        <time>2022-06-01T09:29:43.556Z</time>
      </trkpt>
      <trkpt lat="42.48807" lon="18.4362">
        <ele>223.310172</ele>
        <time>2022-06-01T09:29:51.566Z</time>
      </trkpt>
      <trkpt lat="42.48812" lon="18.43609">
        <ele>224.283777</ele>
        <time>2022-06-01T09:29:58.566Z</time>
      </trkpt>
      <trkpt lat="42.48818" lon="18.43599">
        <ele>225.211962</ele>
        <time>2022-06-01T09:30:05.559Z</time>
      </trkpt>
      <trkpt lat="42.48825" lon="18.43591">
        <ele>226.152896</ele>
        <time>2022-06-01T09:30:12.575Z</time>
      </trkpt>
      <trkpt lat="42.48833" lon="18.43583">
        <ele>227.143028</ele>
        <time>2022-06-01T09:30:19.557Z</time>
      </trkpt>
      <trkpt lat="42.4884" lon="18.43576">
        <ele>228.065054</ele>
        <time>2022-06-01T09:30:27.556Z</time>
      </trkpt>
      <trkpt lat="42.48847" lon="18.43568">
        <ele>229.001386</ele>
        <time>2022-06-01T09:30:34.560Z</time>
      </trkpt>
      <trkpt lat="42.48855" lon="18.43561">
        <ele>229.944105</ele>
        <time>2022-06-01T09:30:41.552Z</time>
      </trkpt>
      <trkpt lat="42.48864" lon="18.43553">
        <ele>231.005853</ele>
        <time>2022-06-01T09:30:48.571Z</time>
      </trkpt>
      <trkpt lat="42.48873" lon="18.43547">
        <ele>232.010006</ele>
        <time>2022-06-01T09:30:54.574Z</time>
      </trkpt>
      <trkpt lat="42.4888" lon="18.43539">
        <ele>232.946516</ele>
        <time>2022-06-01T09:31:03.582Z</time>
      </trkpt>
      <trkpt lat="42.48888" lon="18.43531">
        <ele>233.943746</ele>
        <time>2022-06-01T09:31:12.568Z</time>
      </trkpt>
      <trkpt lat="42.48897" lon="18.43525">
        <ele>234.820509</ele>
        <time>2022-06-01T09:31:20.557Z</time>
      </trkpt>
      <trkpt lat="42.48906" lon="18.43519">
        <ele>235.555424</ele>
        <time>2022-06-01T09:31:27.556Z</time>
      </trkpt>
      <trkpt lat="42.48915" lon="18.43513">
        <ele>236.286463</ele>
        <time>2022-06-01T09:31:34.564Z</time>
      </trkpt>
      <trkpt lat="42.48923" lon="18.43507">
        <ele>236.967779</ele>
        <time>2022-06-01T09:31:41.556Z</time>
      </trkpt>
      <trkpt lat="42.48931" lon="18.43499">
        <ele>237.678317</ele>
        <time>2022-06-01T09:31:49.556Z</time>
      </trkpt>
      <trkpt lat="42.4894" lon="18.43494">
        <ele>238.37365</ele>
        <time>2022-06-01T09:31:56.570Z</time>
      </trkpt>
      <trkpt lat="42.48949" lon="18.43488">
        <ele>239.077903</ele>
        <time>2022-06-01T09:32:03.560Z</time>
      </trkpt>
      <trkpt lat="42.48956" lon="18.43481">
        <ele>239.741063</ele>
        <time>2022-06-01T09:32:10.554Z</time>
      </trkpt>
      <trkpt lat="42.48964" lon="18.43473">
        <ele>240.461077</ele>
        <time>2022-06-01T09:32:18.570Z</time>
      </trkpt>
      <trkpt lat="42.48973" lon="18.43467">
        <ele>241.156404</ele>
        <time>2022-06-01T09:32:25.554Z</time>
      </trkpt>
      <trkpt lat="42.48981" lon="18.43461">
        <ele>241.846624</ele>
        <time>2022-06-01T09:32:32.555Z</time>
      </trkpt>
      <trkpt lat="42.48991" lon="18.43456">
        <ele>242.580005</ele>
        <time>2022-06-01T09:32:40.559Z</time>
      </trkpt>
      <trkpt lat="42.49" lon="18.43452">
        <ele>243.290523</ele>
        <time>2022-06-01T09:32:50.551Z</time>
      </trkpt>
      <trkpt lat="42.49009" lon="18.43446">
        <ele>244.036401</ele>
        <time>2022-06-01T09:32:59.559Z</time>
      </trkpt>
      <trkpt lat="42.49018" lon="18.4344">
        <ele>244.739425</ele>
        <time>2022-06-01T09:33:06.564Z</time>
      </trkpt>
      <trkpt lat="42.49027" lon="18.43433">
        <ele>245.492862</ele>
        <time>2022-06-01T09:33:13.573Z</time>
      </trkpt>
      <trkpt lat="42.49035" lon="18.43424">
        <ele>246.222278</ele>
        <time>2022-06-01T09:33:20.559Z</time>
      </trkpt>
      <trkpt lat="42.49053" lon="18.43395">
        <ele>247.197364</ele>
        <time>2022-06-01T09:35:01.558Z</time>
      </trkpt>
      <trkpt lat="42.49078" lon="18.43384">
        <ele>246.389077</ele>
        <time>2022-06-01T09:37:30.587Z</time>
      </trkpt>
      <trkpt lat="42.49096" lon="18.43363">
        <ele>245.684978</ele>
        <time>2022-06-01T09:38:46.597Z</time>
      </trkpt>
      <trkpt lat="42.49104" lon="18.43354">
        <ele>245.370243</ele>
        <time>2022-06-01T09:38:50.575Z</time>
      </trkpt>
      <trkpt lat="42.49113" lon="18.43344">
        <ele>245.019662</ele>
        <time>2022-06-01T09:38:54.591Z</time>
      </trkpt>
      <trkpt lat="42.49122" lon="18.43334">
        <ele>244.663004</ele>
        <time>2022-06-01T09:38:58.602Z</time>
      </trkpt>
      <trkpt lat="42.49129" lon="18.43323">
        <ele>244.345504</ele>
        <time>2022-06-01T09:39:01.571Z</time>
      </trkpt>
      <trkpt lat="42.49135" lon="18.43309">
        <ele>243.9798</ele>
        <time>2022-06-01T09:39:04.601Z</time>
      </trkpt>
      <trkpt lat="42.4914" lon="18.43298">
        <ele>243.690799</ele>
        <time>2022-06-01T09:39:06.621Z</time>
      </trkpt>
      <trkpt lat="42.49145" lon="18.43287">
        <ele>243.407161</ele>
        <time>2022-06-01T09:39:08.594Z</time>
      </trkpt>
      <trkpt lat="42.4915" lon="18.43276">
        <ele>243.123524</ele>
        <time>2022-06-01T09:39:10.584Z</time>
      </trkpt>
      <trkpt lat="42.49155" lon="18.43264">
        <ele>242.808507</ele>
        <time>2022-06-01T09:39:12.588Z</time>
      </trkpt>
      <trkpt lat="42.49161" lon="18.4325">
        <ele>242.439081</ele>
        <time>2022-06-01T09:39:14.576Z</time>
      </trkpt>
      <trkpt lat="42.49169" lon="18.43233">
        <ele>241.955657</ele>
        <time>2022-06-01T09:39:16.579Z</time>
      </trkpt>
      <trkpt lat="42.49177" lon="18.43216">
        <ele>241.181255</ele>
        <time>2022-06-01T09:39:18.591Z</time>
      </trkpt>
      <trkpt lat="42.49185" lon="18.43202">
        <ele>240.468057</ele>
        <time>2022-06-01T09:39:20.613Z</time>
      </trkpt>
      <trkpt lat="42.49193" lon="18.43189">
        <ele>239.807889</ele>
        <time>2022-06-01T09:39:22.593Z</time>
      </trkpt>
      <trkpt lat="42.49202" lon="18.43176">
        <ele>239.111239</ele>
        <time>2022-06-01T09:39:24.592Z</time>
      </trkpt>
      <trkpt lat="42.49212" lon="18.4316">
        <ele>238.30882</ele>
        <time>2022-06-01T09:39:26.588Z</time>
      </trkpt>
      <trkpt lat="42.49222" lon="18.43142">
        <ele>237.420244</ele>
        <time>2022-06-01T09:39:28.600Z</time>
      </trkpt>
      <trkpt lat="42.49233" lon="18.43124">
        <ele>236.522295</ele>
        <time>2022-06-01T09:39:30.598Z</time>
      </trkpt>
      <trkpt lat="42.49242" lon="18.43106">
        <ele>235.683837</ele>
        <time>2022-06-01T09:39:32.583Z</time>
      </trkpt>
      <trkpt lat="42.4925" lon="18.43087">
        <ele>234.826185</ele>
        <time>2022-06-01T09:39:34.614Z</time>
      </trkpt>
      <trkpt lat="42.49259" lon="18.43067">
        <ele>233.920367</ele>
        <time>2022-06-01T09:39:36.628Z</time>
      </trkpt>
      <trkpt lat="42.49268" lon="18.43047">
        <ele>233.00111</ele>
        <time>2022-06-01T09:39:38.596Z</time>
      </trkpt>
      <trkpt lat="42.49276" lon="18.43025">
        <ele>232.282352</ele>
        <time>2022-06-01T09:39:40.591Z</time>
      </trkpt>
      <trkpt lat="42.49282" lon="18.43004">
        <ele>231.75478</ele>
        <time>2022-06-01T09:39:42.568Z</time>
      </trkpt>
      <trkpt lat="42.49289" lon="18.42983">
        <ele>231.229655</ele>
        <time>2022-06-01T09:39:44.574Z</time>
      </trkpt>
      <trkpt lat="42.49295" lon="18.42962">
        <ele>230.703759</ele>
        <time>2022-06-01T09:39:46.591Z</time>
      </trkpt>
      <trkpt lat="42.49301" lon="18.4294">
        <ele>230.167089</ele>
        <time>2022-06-01T09:39:48.583Z</time>
      </trkpt>
      <trkpt lat="42.49306" lon="18.42918">
        <ele>229.619428</ele>
        <time>2022-06-01T09:39:50.578Z</time>
      </trkpt>
      <trkpt lat="42.49312" lon="18.42895">
        <ele>229.052167</ele>
        <time>2022-06-01T09:39:52.573Z</time>
      </trkpt>
      <trkpt lat="42.49318" lon="18.42872">
        <ele>228.496899</ele>
        <time>2022-06-01T09:39:54.593Z</time>
      </trkpt>
      <trkpt lat="42.49324" lon="18.42851">
        <ele>227.949106</ele>
        <time>2022-06-01T09:39:56.594Z</time>
      </trkpt>
      <trkpt lat="42.49332" lon="18.42829">
        <ele>227.385468</ele>
        <time>2022-06-01T09:39:58.606Z</time>
      </trkpt>
      <trkpt lat="42.49337" lon="18.42818">
        <ele>227.089505</ele>
        <time>2022-06-01T09:39:59.579Z</time>
      </trkpt>
      <trkpt lat="42.49341" lon="18.42806">
        <ele>226.755152</ele>
        <time>2022-06-01T09:40:00.587Z</time>
      </trkpt>
      <trkpt lat="42.49347" lon="18.42795">
        <ele>226.384613</ele>
        <time>2022-06-01T09:40:01.591Z</time>
      </trkpt>
      <trkpt lat="42.49352" lon="18.42784">
        <ele>226.012504</ele>
        <time>2022-06-01T09:40:02.586Z</time>
      </trkpt>
      <trkpt lat="42.49358" lon="18.42774">
        <ele>225.638184</ele>
        <time>2022-06-01T09:40:03.595Z</time>
      </trkpt>
      <trkpt lat="42.49364" lon="18.42765">
        <ele>225.2768</ele>
        <time>2022-06-01T09:40:04.624Z</time>
      </trkpt>
      <trkpt lat="42.4937" lon="18.42755">
        <ele>224.910731</ele>
        <time>2022-06-01T09:40:05.587Z</time>
      </trkpt>
      <trkpt lat="42.49377" lon="18.42745">
        <ele>224.548492</ele>
        <time>2022-06-01T09:40:06.580Z</time>
      </trkpt>
      <trkpt lat="42.49389" lon="18.42728">
        <ele>223.85226</ele>
        <time>2022-06-01T09:40:08.625Z</time>
      </trkpt>
      <trkpt lat="42.49395" lon="18.42719">
        <ele>223.497753</ele>
        <time>2022-06-01T09:40:09.615Z</time>
      </trkpt>
      <trkpt lat="42.49402" lon="18.4271">
        <ele>223.142556</ele>
        <time>2022-06-01T09:40:10.571Z</time>
      </trkpt>
      <trkpt lat="42.49408" lon="18.42701">
        <ele>222.786604</ele>
        <time>2022-06-01T09:40:11.584Z</time>
      </trkpt>
      <trkpt lat="42.49415" lon="18.42693">
        <ele>222.420296</ele>
        <time>2022-06-01T09:40:12.562Z</time>
      </trkpt>
      <trkpt lat="42.49422" lon="18.42684">
        <ele>222.065099</ele>
        <time>2022-06-01T09:40:13.576Z</time>
      </trkpt>
      <trkpt lat="42.49428" lon="18.42675">
        <ele>221.709148</ele>
        <time>2022-06-01T09:40:14.586Z</time>
      </trkpt>
      <trkpt lat="42.49435" lon="18.42666">
        <ele>221.350537</ele>
        <time>2022-06-01T09:40:15.582Z</time>
      </trkpt>
      <trkpt lat="42.49441" lon="18.42657">
        <ele>220.996001</ele>
        <time>2022-06-01T09:40:16.588Z</time>
      </trkpt>
      <trkpt lat="42.49447" lon="18.42647">
        <ele>220.632763</ele>
        <time>2022-06-01T09:40:17.586Z</time>
      </trkpt>
      <trkpt lat="42.49453" lon="18.42637">
        <ele>220.267549</ele>
        <time>2022-06-01T09:40:18.590Z</time>
      </trkpt>
      <trkpt lat="42.49459" lon="18.42627">
        <ele>219.823854</ele>
        <time>2022-06-01T09:40:19.583Z</time>
      </trkpt>
      <trkpt lat="42.49465" lon="18.42617">
        <ele>219.142986</ele>
        <time>2022-06-01T09:40:20.631Z</time>
      </trkpt>
      <trkpt lat="42.49471" lon="18.42607">
        <ele>218.462118</ele>
        <time>2022-06-01T09:40:21.593Z</time>
      </trkpt>
      <trkpt lat="42.49477" lon="18.42597">
        <ele>217.799053</ele>
        <time>2022-06-01T09:40:22.577Z</time>
      </trkpt>
      <trkpt lat="42.49483" lon="18.42586">
        <ele>217.10674</ele>
        <time>2022-06-01T09:40:23.584Z</time>
      </trkpt>
      <trkpt lat="42.49488" lon="18.42574">
        <ele>216.405261</ele>
        <time>2022-06-01T09:40:24.592Z</time>
      </trkpt>
      <trkpt lat="42.49494" lon="18.42563">
        <ele>215.707048</ele>
        <time>2022-06-01T09:40:25.586Z</time>
      </trkpt>
      <trkpt lat="42.49499" lon="18.42551">
        <ele>214.984382</ele>
        <time>2022-06-01T09:40:26.590Z</time>
      </trkpt>
      <trkpt lat="42.49505" lon="18.42539">
        <ele>214.253005</ele>
        <time>2022-06-01T09:40:27.590Z</time>
      </trkpt>
      <trkpt lat="42.4951" lon="18.42527">
        <ele>213.536356</ele>
        <time>2022-06-01T09:40:28.575Z</time>
      </trkpt>
      <trkpt lat="42.49515" lon="18.42516">
        <ele>212.829359</ele>
        <time>2022-06-01T09:40:29.598Z</time>
      </trkpt>
      <trkpt lat="42.49521" lon="18.42504">
        <ele>212.113533</ele>
        <time>2022-06-01T09:40:30.576Z</time>
      </trkpt>
      <trkpt lat="42.49526" lon="18.42492">
        <ele>211.386519</ele>
        <time>2022-06-01T09:40:31.580Z</time>
      </trkpt>
      <trkpt lat="42.49532" lon="18.42481">
        <ele>210.663856</ele>
        <time>2022-06-01T09:40:32.583Z</time>
      </trkpt>
      <trkpt lat="42.49537" lon="18.42468">
        <ele>209.940727</ele>
        <time>2022-06-01T09:40:33.581Z</time>
      </trkpt>
      <trkpt lat="42.49541" lon="18.42456">
        <ele>209.226211</ele>
        <time>2022-06-01T09:40:34.622Z</time>
      </trkpt>
      <trkpt lat="42.49546" lon="18.42444">
        <ele>208.53594</ele>
        <time>2022-06-01T09:40:35.597Z</time>
      </trkpt>
      <trkpt lat="42.49551" lon="18.42433">
        <ele>207.850215</ele>
        <time>2022-06-01T09:40:36.606Z</time>
      </trkpt>
      <trkpt lat="42.49556" lon="18.42421">
        <ele>207.105483</ele>
        <time>2022-06-01T09:40:37.570Z</time>
      </trkpt>
      <trkpt lat="42.49562" lon="18.42411">
        <ele>206.199632</ele>
        <time>2022-06-01T09:40:38.586Z</time>
      </trkpt>
      <trkpt lat="42.49568" lon="18.424">
        <ele>205.281631</ele>
        <time>2022-06-01T09:40:39.597Z</time>
      </trkpt>
      <trkpt lat="42.49575" lon="18.4239">
        <ele>204.358835</ele>
        <time>2022-06-01T09:40:40.629Z</time>
      </trkpt>
      <trkpt lat="42.49582" lon="18.42381">
        <ele>203.425563</ele>
        <time>2022-06-01T09:40:41.631Z</time>
      </trkpt>
      <trkpt lat="42.49591" lon="18.42374">
        <ele>202.487731</ele>
        <time>2022-06-01T09:40:42.584Z</time>
      </trkpt>
      <trkpt lat="42.496" lon="18.42367">
        <ele>201.531423</ele>
        <time>2022-06-01T09:40:43.585Z</time>
      </trkpt>
      <trkpt lat="42.49609" lon="18.4236">
        <ele>200.586346</ele>
        <time>2022-06-01T09:40:44.585Z</time>
      </trkpt>
      <trkpt lat="42.49618" lon="18.42355">
        <ele>199.616975</ele>
        <time>2022-06-01T09:40:45.581Z</time>
      </trkpt>
      <trkpt lat="42.49628" lon="18.42349">
        <ele>198.649646</ele>
        <time>2022-06-01T09:40:46.574Z</time>
      </trkpt>
      <trkpt lat="42.49638" lon="18.42344">
        <ele>197.6787</ele>
        <time>2022-06-01T09:40:47.582Z</time>
      </trkpt>
      <trkpt lat="42.49647" lon="18.4234">
        <ele>196.754438</ele>
        <time>2022-06-01T09:40:48.591Z</time>
      </trkpt>
      <trkpt lat="42.49657" lon="18.42336">
        <ele>195.825858</ele>
        <time>2022-06-01T09:40:49.573Z</time>
      </trkpt>
      <trkpt lat="42.49667" lon="18.4233">
        <ele>194.864511</ele>
        <time>2022-06-01T09:40:50.587Z</time>
      </trkpt>
      <trkpt lat="42.49676" lon="18.42325">
        <ele>193.917668</ele>
        <time>2022-06-01T09:40:51.570Z</time>
      </trkpt>
      <trkpt lat="42.49685" lon="18.42318">
        <ele>192.970415</ele>
        <time>2022-06-01T09:40:52.592Z</time>
      </trkpt>
      <trkpt lat="42.49694" lon="18.42311">
        <ele>192.007325</ele>
        <time>2022-06-01T09:40:53.576Z</time>
      </trkpt>
      <trkpt lat="42.49703" lon="18.42303">
        <ele>191.038859</ele>
        <time>2022-06-01T09:40:54.593Z</time>
      </trkpt>
      <trkpt lat="42.49711" lon="18.42295">
        <ele>190.173758</ele>
        <time>2022-06-01T09:40:55.593Z</time>
      </trkpt>
      <trkpt lat="42.49719" lon="18.42285">
        <ele>189.367698</ele>
        <time>2022-06-01T09:40:56.594Z</time>
      </trkpt>
      <trkpt lat="42.49727" lon="18.42275">
        <ele>188.536737</ele>
        <time>2022-06-01T09:40:57.614Z</time>
      </trkpt>
      <trkpt lat="42.49735" lon="18.42263">
        <ele>187.663245</ele>
        <time>2022-06-01T09:40:58.600Z</time>
      </trkpt>
      <trkpt lat="42.49742" lon="18.4225">
        <ele>186.755691</ele>
        <time>2022-06-01T09:40:59.598Z</time>
      </trkpt>
      <trkpt lat="42.4975" lon="18.42237">
        <ele>185.840089</ele>
        <time>2022-06-01T09:41:00.587Z</time>
      </trkpt>
      <trkpt lat="42.49757" lon="18.42224">
        <ele>184.915636</ele>
        <time>2022-06-01T09:41:01.595Z</time>
      </trkpt>
      <trkpt lat="42.49764" lon="18.42211">
        <ele>184.000194</ele>
        <time>2022-06-01T09:41:02.577Z</time>
      </trkpt>
      <trkpt lat="42.49772" lon="18.42199">
        <ele>183.102142</ele>
        <time>2022-06-01T09:41:03.617Z</time>
      </trkpt>
      <trkpt lat="42.4978" lon="18.42186">
        <ele>182.202598</ele>
        <time>2022-06-01T09:41:04.576Z</time>
      </trkpt>
      <trkpt lat="42.49788" lon="18.42174">
        <ele>181.28734</ele>
        <time>2022-06-01T09:41:05.591Z</time>
      </trkpt>
      <trkpt lat="42.49796" lon="18.42162">
        <ele>180.379296</ele>
        <time>2022-06-01T09:41:06.611Z</time>
      </trkpt>
      <trkpt lat="42.49804" lon="18.42151">
        <ele>179.483398</ele>
        <time>2022-06-01T09:41:07.603Z</time>
      </trkpt>
      <trkpt lat="42.49813" lon="18.42139">
        <ele>178.575602</ele>
        <time>2022-06-01T09:41:08.558Z</time>
      </trkpt>
      <trkpt lat="42.49821" lon="18.42128">
        <ele>177.6741</ele>
        <time>2022-06-01T09:41:09.593Z</time>
      </trkpt>
      <trkpt lat="42.4983" lon="18.42117">
        <ele>176.855119</ele>
        <time>2022-06-01T09:41:10.582Z</time>
      </trkpt>
      <trkpt lat="42.49838" lon="18.42107">
        <ele>176.14402</ele>
        <time>2022-06-01T09:41:11.599Z</time>
      </trkpt>
      <trkpt lat="42.49847" lon="18.42096">
        <ele>175.428215</ele>
        <time>2022-06-01T09:41:12.570Z</time>
      </trkpt>
      <trkpt lat="42.49857" lon="18.42087">
        <ele>174.718809</ele>
        <time>2022-06-01T09:41:13.582Z</time>
      </trkpt>
      <trkpt lat="42.49866" lon="18.42078">
        <ele>174.032112</ele>
        <time>2022-06-01T09:41:14.619Z</time>
      </trkpt>
      <trkpt lat="42.49874" lon="18.42069">
        <ele>173.378788</ele>
        <time>2022-06-01T09:41:15.579Z</time>
      </trkpt>
      <trkpt lat="42.49883" lon="18.42061">
        <ele>172.753381</ele>
        <time>2022-06-01T09:41:16.576Z</time>
      </trkpt>
      <trkpt lat="42.49891" lon="18.42053">
        <ele>172.147758</ele>
        <time>2022-06-01T09:41:17.575Z</time>
      </trkpt>
      <trkpt lat="42.49898" lon="18.42045">
        <ele>171.554006</ele>
        <time>2022-06-01T09:41:18.585Z</time>
      </trkpt>
      <trkpt lat="42.49906" lon="18.42037">
        <ele>170.970566</ele>
        <time>2022-06-01T09:41:19.584Z</time>
      </trkpt>
      <trkpt lat="42.49913" lon="18.42029">
        <ele>170.402264</ele>
        <time>2022-06-01T09:41:20.582Z</time>
      </trkpt>
      <trkpt lat="42.49921" lon="18.42022">
        <ele>169.843582</ele>
        <time>2022-06-01T09:41:21.572Z</time>
      </trkpt>
      <trkpt lat="42.49928" lon="18.42014">
        <ele>169.278004</ele>
        <time>2022-06-01T09:41:22.586Z</time>
      </trkpt>
      <trkpt lat="42.49936" lon="18.42006">
        <ele>168.702134</ele>
        <time>2022-06-01T09:41:23.590Z</time>
      </trkpt>
      <trkpt lat="42.49943" lon="18.41998">
        <ele>168.101407</ele>
        <time>2022-06-01T09:41:24.579Z</time>
      </trkpt>
      <trkpt lat="42.49951" lon="18.4199">
        <ele>167.492521</ele>
        <time>2022-06-01T09:41:25.551Z</time>
      </trkpt>
      <trkpt lat="42.49959" lon="18.41982">
        <ele>166.893222</ele>
        <time>2022-06-01T09:41:26.580Z</time>
      </trkpt>
      <trkpt lat="42.49967" lon="18.41973">
        <ele>166.296709</ele>
        <time>2022-06-01T09:41:27.563Z</time>
      </trkpt>
      <trkpt lat="42.49975" lon="18.41965">
        <ele>165.785438</ele>
        <time>2022-06-01T09:41:28.675Z</time>
      </trkpt>
      <trkpt lat="42.49982" lon="18.41956">
        <ele>165.311605</ele>
        <time>2022-06-01T09:41:29.578Z</time>
      </trkpt>
      <trkpt lat="42.4999" lon="18.41947">
        <ele>164.831956</ele>
        <time>2022-06-01T09:41:30.605Z</time>
      </trkpt>
      <trkpt lat="42.49998" lon="18.41938">
        <ele>164.34885</ele>
        <time>2022-06-01T09:41:31.587Z</time>
      </trkpt>
      <trkpt lat="42.50006" lon="18.41929">
        <ele>163.859912</ele>
        <time>2022-06-01T09:41:32.572Z</time>
      </trkpt>
      <trkpt lat="42.50014" lon="18.4192">
        <ele>163.366676</ele>
        <time>2022-06-01T09:41:33.589Z</time>
      </trkpt>
      <trkpt lat="42.50022" lon="18.41912">
        <ele>162.885102</ele>
        <time>2022-06-01T09:41:34.587Z</time>
      </trkpt>
      <trkpt lat="42.50031" lon="18.41903">
        <ele>162.395525</ele>
        <time>2022-06-01T09:41:35.586Z</time>
      </trkpt>
      <trkpt lat="42.50038" lon="18.41894">
        <ele>161.908758</ele>
        <time>2022-06-01T09:41:36.583Z</time>
      </trkpt>
      <trkpt lat="42.50046" lon="18.41885">
        <ele>161.42199</ele>
        <time>2022-06-01T09:41:37.576Z</time>
      </trkpt>
      <trkpt lat="42.50054" lon="18.41875">
        <ele>160.92581</ele>
        <time>2022-06-01T09:41:38.571Z</time>
      </trkpt>
      <trkpt lat="42.50063" lon="18.41866">
        <ele>160.4274</ele>
        <time>2022-06-01T09:41:39.580Z</time>
      </trkpt>
      <trkpt lat="42.50071" lon="18.41857">
        <ele>159.925743</ele>
        <time>2022-06-01T09:41:40.589Z</time>
      </trkpt>
      <trkpt lat="42.50078" lon="18.41847">
        <ele>159.431083</ele>
        <time>2022-06-01T09:41:41.571Z</time>
      </trkpt>
      <trkpt lat="42.50086" lon="18.41837">
        <ele>158.935178</ele>
        <time>2022-06-01T09:41:42.599Z</time>
      </trkpt>
      <trkpt lat="42.50094" lon="18.41827">
        <ele>158.432109</ele>
        <time>2022-06-01T09:41:43.570Z</time>
      </trkpt>
      <trkpt lat="42.50101" lon="18.41817">
        <ele>157.928376</ele>
        <time>2022-06-01T09:41:44.614Z</time>
      </trkpt>
      <trkpt lat="42.50109" lon="18.41806">
        <ele>157.464094</ele>
        <time>2022-06-01T09:41:45.575Z</time>
      </trkpt>
      <trkpt lat="42.50116" lon="18.41796">
        <ele>157.034799</ele>
        <time>2022-06-01T09:41:46.595Z</time>
      </trkpt>
      <trkpt lat="42.50123" lon="18.41785">
        <ele>156.612202</ele>
        <time>2022-06-01T09:41:47.591Z</time>
      </trkpt>
      <trkpt lat="42.50129" lon="18.41775">
        <ele>156.197351</ele>
        <time>2022-06-01T09:41:48.559Z</time>
      </trkpt>
      <trkpt lat="42.50136" lon="18.41765">
        <ele>155.778433</ele>
        <time>2022-06-01T09:41:49.593Z</time>
      </trkpt>
      <trkpt lat="42.50143" lon="18.41754">
        <ele>155.36713</ele>
        <time>2022-06-01T09:41:50.595Z</time>
      </trkpt>
      <trkpt lat="42.50149" lon="18.41744">
        <ele>154.957723</ele>
        <time>2022-06-01T09:41:51.584Z</time>
      </trkpt>
      <trkpt lat="42.50156" lon="18.41734">
        <ele>154.553282</ele>
        <time>2022-06-01T09:41:52.613Z</time>
      </trkpt>
      <trkpt lat="42.50162" lon="18.41724">
        <ele>154.146564</ele>
        <time>2022-06-01T09:41:53.579Z</time>
      </trkpt>
      <trkpt lat="42.50168" lon="18.41714">
        <ele>153.752044</ele>
        <time>2022-06-01T09:41:54.584Z</time>
      </trkpt>
      <trkpt lat="42.50175" lon="18.41704">
        <ele>153.354838</ele>
        <time>2022-06-01T09:41:55.608Z</time>
      </trkpt>
      <trkpt lat="42.50181" lon="18.41694">
        <ele>152.95219</ele>
        <time>2022-06-01T09:41:56.611Z</time>
      </trkpt>
      <trkpt lat="42.50188" lon="18.41684">
        <ele>152.557249</ele>
        <time>2022-06-01T09:41:57.565Z</time>
      </trkpt>
      <trkpt lat="42.50194" lon="18.41674">
        <ele>152.160441</ele>
        <time>2022-06-01T09:41:58.598Z</time>
      </trkpt>
      <trkpt lat="42.50201" lon="18.41664">
        <ele>151.760527</ele>
        <time>2022-06-01T09:41:59.622Z</time>
      </trkpt>
      <trkpt lat="42.50207" lon="18.41655">
        <ele>151.375062</ele>
        <time>2022-06-01T09:42:00.567Z</time>
      </trkpt>
      <trkpt lat="42.50213" lon="18.41645">
        <ele>150.996819</ele>
        <time>2022-06-01T09:42:01.557Z</time>
      </trkpt>
      <trkpt lat="42.50219" lon="18.41636">
        <ele>150.625793</ele>
        <time>2022-06-01T09:42:02.587Z</time>
      </trkpt>
      <trkpt lat="42.50232" lon="18.41619">
        <ele>150.245232</ele>
        <time>2022-06-01T09:42:04.594Z</time>
      </trkpt>
      <trkpt lat="42.50244" lon="18.41603">
        <ele>150.088266</ele>
        <time>2022-06-01T09:42:06.595Z</time>
      </trkpt>
      <trkpt lat="42.50256" lon="18.41586">
        <ele>149.937162</ele>
        <time>2022-06-01T09:42:08.583Z</time>
      </trkpt>
      <trkpt lat="42.50268" lon="18.41571">
        <ele>149.788194</ele>
        <time>2022-06-01T09:42:10.581Z</time>
      </trkpt>
      <trkpt lat="42.5028" lon="18.41555">
        <ele>149.642896</ele>
        <time>2022-06-01T09:42:12.593Z</time>
      </trkpt>
      <trkpt lat="42.50291" lon="18.41541">
        <ele>149.505424</ele>
        <time>2022-06-01T09:42:14.590Z</time>
      </trkpt>
      <trkpt lat="42.50302" lon="18.41527">
        <ele>149.374689</ele>
        <time>2022-06-01T09:42:16.569Z</time>
      </trkpt>
      <trkpt lat="42.50312" lon="18.41514">
        <ele>149.246965</ele>
        <time>2022-06-01T09:42:18.584Z</time>
      </trkpt>
      <trkpt lat="42.50323" lon="18.41501">
        <ele>149.116892</ele>
        <time>2022-06-01T09:42:20.585Z</time>
      </trkpt>
      <trkpt lat="42.50333" lon="18.41488">
        <ele>148.988591</ele>
        <time>2022-06-01T09:42:22.571Z</time>
      </trkpt>
      <trkpt lat="42.50343" lon="18.41475">
        <ele>148.867117</ele>
        <time>2022-06-01T09:42:24.588Z</time>
      </trkpt>
      <trkpt lat="42.50352" lon="18.41462">
        <ele>148.749766</ele>
        <time>2022-06-01T09:42:26.581Z</time>
      </trkpt>
      <trkpt lat="42.50361" lon="18.41449">
        <ele>148.842197</ele>
        <time>2022-06-01T09:42:28.588Z</time>
      </trkpt>
      <trkpt lat="42.50368" lon="18.41435">
        <ele>148.969618</ele>
        <time>2022-06-01T09:42:30.603Z</time>
      </trkpt>
      <trkpt lat="42.50376" lon="18.41422">
        <ele>149.093985</ele>
        <time>2022-06-01T09:42:32.593Z</time>
      </trkpt>
      <trkpt lat="42.50382" lon="18.41408">
        <ele>149.213681</ele>
        <time>2022-06-01T09:42:34.603Z</time>
      </trkpt>
      <trkpt lat="42.50388" lon="18.41394">
        <ele>149.333396</ele>
        <time>2022-06-01T09:42:36.605Z</time>
      </trkpt>
      <trkpt lat="42.50394" lon="18.41379">
        <ele>149.461699</ele>
        <time>2022-06-01T09:42:38.595Z</time>
      </trkpt>
      <trkpt lat="42.504" lon="18.41364">
        <ele>149.589089</ele>
        <time>2022-06-01T09:42:40.584Z</time>
      </trkpt>
      <trkpt lat="42.50404" lon="18.41349">
        <ele>149.704588</ele>
        <time>2022-06-01T09:42:42.617Z</time>
      </trkpt>
      <trkpt lat="42.50408" lon="18.41333">
        <ele>149.829168</ele>
        <time>2022-06-01T09:42:44.586Z</time>
      </trkpt>
      <trkpt lat="42.50411" lon="18.41317">
        <ele>149.951281</ele>
        <time>2022-06-01T09:42:46.595Z</time>
      </trkpt>
      <trkpt lat="42.50414" lon="18.41301">
        <ele>150.071987</ele>
        <time>2022-06-01T09:42:48.587Z</time>
      </trkpt>
      <trkpt lat="42.50416" lon="18.41286">
        <ele>150.18308</ele>
        <time>2022-06-01T09:42:50.593Z</time>
      </trkpt>
      <trkpt lat="42.50419" lon="18.41271">
        <ele>150.301774</ele>
        <time>2022-06-01T09:42:52.587Z</time>
      </trkpt>
      <trkpt lat="42.50422" lon="18.41254">
        <ele>150.431779</ele>
        <time>2022-06-01T09:42:54.572Z</time>
      </trkpt>
      <trkpt lat="42.50424" lon="18.41236">
        <ele>150.528149</ele>
        <time>2022-06-01T09:42:56.580Z</time>
      </trkpt>
      <trkpt lat="42.50427" lon="18.41218">
        <ele>150.494897</ele>
        <time>2022-06-01T09:42:58.610Z</time>
      </trkpt>
      <trkpt lat="42.50431" lon="18.41202">
        <ele>150.462696</ele>
        <time>2022-06-01T09:43:00.580Z</time>
      </trkpt>
      <trkpt lat="42.50435" lon="18.41185">
        <ele>150.430389</ele>
        <time>2022-06-01T09:43:02.583Z</time>
      </trkpt>
      <trkpt lat="42.5044" lon="18.41169">
        <ele>150.399214</ele>
        <time>2022-06-01T09:43:04.588Z</time>
      </trkpt>
      <trkpt lat="42.50445" lon="18.41154">
        <ele>150.367592</ele>
        <time>2022-06-01T09:43:06.586Z</time>
      </trkpt>
      <trkpt lat="42.5045" lon="18.4114">
        <ele>150.338358</ele>
        <time>2022-06-01T09:43:08.583Z</time>
      </trkpt>
      <trkpt lat="42.50456" lon="18.41126">
        <ele>150.309472</ele>
        <time>2022-06-01T09:43:10.621Z</time>
      </trkpt>
      <trkpt lat="42.50462" lon="18.41113">
        <ele>150.281125</ele>
        <time>2022-06-01T09:43:12.598Z</time>
      </trkpt>
      <trkpt lat="42.50467" lon="18.411">
        <ele>150.253608</ele>
        <time>2022-06-01T09:43:14.605Z</time>
      </trkpt>
      <trkpt lat="42.50474" lon="18.41088">
        <ele>150.225878</ele>
        <time>2022-06-01T09:43:16.586Z</time>
      </trkpt>
      <trkpt lat="42.50479" lon="18.41076">
        <ele>150.19928</ele>
        <time>2022-06-01T09:43:18.582Z</time>
      </trkpt>
      <trkpt lat="42.50485" lon="18.41064">
        <ele>150.172586</ele>
        <time>2022-06-01T09:43:20.584Z</time>
      </trkpt>
      <trkpt lat="42.50491" lon="18.41052">
        <ele>150.146198</ele>
        <time>2022-06-01T09:43:22.611Z</time>
      </trkpt>
      <trkpt lat="42.50496" lon="18.4104">
        <ele>150.120651</ele>
        <time>2022-06-01T09:43:24.595Z</time>
      </trkpt>
      <trkpt lat="42.50502" lon="18.41029">
        <ele>150.095605</ele>
        <time>2022-06-01T09:43:26.585Z</time>
      </trkpt>
      <trkpt lat="42.50507" lon="18.41018">
        <ele>150.00599</ele>
        <time>2022-06-01T09:43:28.621Z</time>
      </trkpt>
      <trkpt lat="42.50513" lon="18.41008">
        <ele>149.86252</ele>
        <time>2022-06-01T09:43:30.583Z</time>
      </trkpt>
      <trkpt lat="42.50518" lon="18.40998">
        <ele>149.723479</ele>
        <time>2022-06-01T09:43:32.617Z</time>
      </trkpt>
      <trkpt lat="42.50525" lon="18.40982">
        <ele>149.520605</ele>
        <time>2022-06-01T09:43:35.583Z</time>
      </trkpt>
      <trkpt lat="42.50531" lon="18.40966">
        <ele>149.315626</ele>
        <time>2022-06-01T09:43:38.577Z</time>
      </trkpt>
      <trkpt lat="42.50538" lon="18.40951">
        <ele>149.121744</ele>
        <time>2022-06-01T09:43:41.592Z</time>
      </trkpt>
      <trkpt lat="42.50543" lon="18.40938">
        <ele>148.950018</ele>
        <time>2022-06-01T09:43:44.602Z</time>
      </trkpt>
      <trkpt lat="42.50548" lon="18.40925">
        <ele>148.787217</ele>
        <time>2022-06-01T09:43:48.579Z</time>
      </trkpt>
      <trkpt lat="42.50552" lon="18.40914">
        <ele>148.644541</ele>
        <time>2022-06-01T09:43:51.598Z</time>
      </trkpt>
      <trkpt lat="42.50557" lon="18.40901">
        <ele>148.476219</ele>
        <time>2022-06-01T09:43:54.575Z</time>
      </trkpt>
      <trkpt lat="42.50561" lon="18.40886">
        <ele>148.293638</ele>
        <time>2022-06-01T09:43:57.593Z</time>
      </trkpt>
      <trkpt lat="42.50566" lon="18.4087">
        <ele>148.108481</ele>
        <time>2022-06-01T09:44:00.619Z</time>
      </trkpt>
      <trkpt lat="42.5057" lon="18.40855">
        <ele>147.923357</ele>
        <time>2022-06-01T09:44:03.582Z</time>
      </trkpt>
      <trkpt lat="42.50575" lon="18.40839">
        <ele>147.729737</ele>
        <time>2022-06-01T09:44:06.637Z</time>
      </trkpt>
      <trkpt lat="42.50579" lon="18.40823">
        <ele>147.539318</ele>
        <time>2022-06-01T09:44:09.592Z</time>
      </trkpt>
      <trkpt lat="42.50583" lon="18.40807">
        <ele>147.342516</ele>
        <time>2022-06-01T09:44:12.619Z</time>
      </trkpt>
      <trkpt lat="42.50586" lon="18.40795">
        <ele>147.208843</ele>
        <time>2022-06-01T09:44:14.593Z</time>
      </trkpt>
      <trkpt lat="42.50591" lon="18.40778">
        <ele>147.008734</ele>
        <time>2022-06-01T09:44:17.576Z</time>
      </trkpt>
      <trkpt lat="42.50595" lon="18.40767">
        <ele>146.872671</ele>
        <time>2022-06-01T09:44:19.614Z</time>
      </trkpt>
      <trkpt lat="42.50598" lon="18.40754">
        <ele>146.729409</ele>
        <time>2022-06-01T09:44:21.577Z</time>
      </trkpt>
      <trkpt lat="42.50602" lon="18.40742">
        <ele>146.58573</ele>
        <time>2022-06-01T09:44:23.586Z</time>
      </trkpt>
      <trkpt lat="42.50604" lon="18.4073">
        <ele>146.448302</ele>
        <time>2022-06-01T09:44:25.577Z</time>
      </trkpt>
      <trkpt lat="42.50607" lon="18.40718">
        <ele>146.31065</ele>
        <time>2022-06-01T09:44:27.591Z</time>
      </trkpt>
      <trkpt lat="42.50609" lon="18.40706">
        <ele>146.171764</ele>
        <time>2022-06-01T09:44:29.587Z</time>
      </trkpt>
      <trkpt lat="42.50612" lon="18.40694">
        <ele>146.031577</ele>
        <time>2022-06-01T09:44:31.595Z</time>
      </trkpt>
      <trkpt lat="42.50615" lon="18.40681">
        <ele>145.888852</ele>
        <time>2022-06-01T09:44:33.602Z</time>
      </trkpt>
      <trkpt lat="42.50618" lon="18.40669">
        <ele>145.750276</ele>
        <time>2022-06-01T09:44:35.580Z</time>
      </trkpt>
      <trkpt lat="42.50621" lon="18.40657">
        <ele>145.61411</ele>
        <time>2022-06-01T09:44:37.582Z</time>
      </trkpt>
      <trkpt lat="42.50623" lon="18.40645">
        <ele>145.472846</ele>
        <time>2022-06-01T09:44:39.627Z</time>
      </trkpt>
      <trkpt lat="42.50625" lon="18.40631">
        <ele>145.323068</ele>
        <time>2022-06-01T09:44:41.597Z</time>
      </trkpt>
      <trkpt lat="42.50626" lon="18.40618">
        <ele>145.178511</ele>
        <time>2022-06-01T09:44:43.586Z</time>
      </trkpt>
      <trkpt lat="42.50627" lon="18.40605">
        <ele>145.032576</ele>
        <time>2022-06-01T09:44:45.591Z</time>
      </trkpt>
      <trkpt lat="42.50628" lon="18.40591">
        <ele>144.88591</ele>
        <time>2022-06-01T09:44:47.590Z</time>
      </trkpt>
      <trkpt lat="42.50627" lon="18.40578">
        <ele>144.738204</ele>
        <time>2022-06-01T09:44:49.586Z</time>
      </trkpt>
      <trkpt lat="42.50627" lon="18.40565">
        <ele>144.568211</ele>
        <time>2022-06-01T09:44:51.639Z</time>
      </trkpt>
      <trkpt lat="42.50626" lon="18.40551">
        <ele>144.377988</ele>
        <time>2022-06-01T09:44:53.591Z</time>
      </trkpt>
      <trkpt lat="42.50624" lon="18.40538">
        <ele>144.183732</ele>
        <time>2022-06-01T09:44:55.582Z</time>
      </trkpt>
      <trkpt lat="42.50622" lon="18.40525">
        <ele>143.986681</ele>
        <time>2022-06-01T09:44:57.560Z</time>
      </trkpt>
      <trkpt lat="42.50619" lon="18.40511">
        <ele>143.781557</ele>
        <time>2022-06-01T09:44:59.581Z</time>
      </trkpt>
      <trkpt lat="42.50615" lon="18.40497">
        <ele>143.568813</ele>
        <time>2022-06-01T09:45:01.583Z</time>
      </trkpt>
      <trkpt lat="42.50611" lon="18.40483">
        <ele>143.353206</ele>
        <time>2022-06-01T09:45:03.581Z</time>
      </trkpt>
      <trkpt lat="42.50607" lon="18.40469">
        <ele>143.136368</ele>
        <time>2022-06-01T09:45:05.587Z</time>
      </trkpt>
      <trkpt lat="42.50604" lon="18.40455">
        <ele>142.923474</ele>
        <time>2022-06-01T09:45:07.578Z</time>
      </trkpt>
      <trkpt lat="42.50601" lon="18.40441">
        <ele>142.711728</ele>
        <time>2022-06-01T09:45:09.586Z</time>
      </trkpt>
      <trkpt lat="42.50598" lon="18.40427">
        <ele>142.499149</ele>
        <time>2022-06-01T09:45:11.567Z</time>
      </trkpt>
      <trkpt lat="42.50595" lon="18.40413">
        <ele>142.292097</ele>
        <time>2022-06-01T09:45:13.617Z</time>
      </trkpt>
      <trkpt lat="42.50592" lon="18.40398">
        <ele>142.07359</ele>
        <time>2022-06-01T09:45:15.585Z</time>
      </trkpt>
      <trkpt lat="42.5059" lon="18.40383">
        <ele>141.852805</ele>
        <time>2022-06-01T09:45:17.588Z</time>
      </trkpt>
      <trkpt lat="42.50589" lon="18.40367">
        <ele>141.628304</ele>
        <time>2022-06-01T09:45:19.585Z</time>
      </trkpt>
      <trkpt lat="42.50588" lon="18.40352">
        <ele>141.409002</ele>
        <time>2022-06-01T09:45:21.665Z</time>
      </trkpt>
      <trkpt lat="42.50587" lon="18.40337">
        <ele>141.19207</ele>
        <time>2022-06-01T09:45:23.585Z</time>
      </trkpt>
      <trkpt lat="42.50587" lon="18.40323">
        <ele>140.808452</ele>
        <time>2022-06-01T09:45:25.590Z</time>
      </trkpt>
      <trkpt lat="42.50587" lon="18.40307">
        <ele>140.372972</ele>
        <time>2022-06-01T09:45:27.626Z</time>
      </trkpt>
      <trkpt lat="42.50589" lon="18.40293">
        <ele>139.952692</ele>
        <time>2022-06-01T09:45:29.581Z</time>
      </trkpt>
      <trkpt lat="42.5059" lon="18.4028">
        <ele>139.596018</ele>
        <time>2022-06-01T09:45:31.599Z</time>
      </trkpt>
      <trkpt lat="42.50609" lon="18.40241">
        <ele>138.256257</ele>
        <time>2022-06-01T09:46:02.695Z</time>
      </trkpt>
      <trkpt lat="42.50614" lon="18.40229">
        <ele>137.856052</ele>
        <time>2022-06-01T09:46:04.590Z</time>
      </trkpt>
      <trkpt lat="42.5062" lon="18.40217">
        <ele>137.434318</ele>
        <time>2022-06-01T09:46:06.566Z</time>
      </trkpt>
      <trkpt lat="42.50626" lon="18.40206">
        <ele>137.05643</ele>
        <time>2022-06-01T09:46:08.563Z</time>
      </trkpt>
      <trkpt lat="42.50631" lon="18.40196">
        <ele>136.69217</ele>
        <time>2022-06-01T09:46:10.564Z</time>
      </trkpt>
      <trkpt lat="42.50636" lon="18.40185">
        <ele>136.334559</ele>
        <time>2022-06-01T09:46:12.550Z</time>
      </trkpt>
      <trkpt lat="42.50641" lon="18.40175">
        <ele>135.974827</ele>
        <time>2022-06-01T09:46:14.563Z</time>
      </trkpt>
      <trkpt lat="42.50647" lon="18.40165">
        <ele>135.621266</ele>
        <time>2022-06-01T09:46:16.566Z</time>
      </trkpt>
      <trkpt lat="42.50654" lon="18.40157">
        <ele>135.268087</ele>
        <time>2022-06-01T09:46:18.576Z</time>
      </trkpt>
      <trkpt lat="42.50661" lon="18.40149">
        <ele>134.909898</ele>
        <time>2022-06-01T09:46:20.621Z</time>
      </trkpt>
      <trkpt lat="42.50668" lon="18.40141">
        <ele>134.53427</ele>
        <time>2022-06-01T09:46:22.638Z</time>
      </trkpt>
      <trkpt lat="42.50678" lon="18.40128">
        <ele>134.027391</ele>
        <time>2022-06-01T09:46:25.626Z</time>
      </trkpt>
      <trkpt lat="42.50685" lon="18.40119">
        <ele>133.678714</ele>
        <time>2022-06-01T09:46:27.602Z</time>
      </trkpt>
      <trkpt lat="42.50691" lon="18.40108">
        <ele>133.295252</ele>
        <time>2022-06-01T09:46:29.621Z</time>
      </trkpt>
      <trkpt lat="42.50698" lon="18.40096">
        <ele>132.916262</ele>
        <time>2022-06-01T09:46:31.595Z</time>
      </trkpt>
      <trkpt lat="42.50703" lon="18.40085">
        <ele>132.545233</ele>
        <time>2022-06-01T09:46:33.602Z</time>
      </trkpt>
      <trkpt lat="42.50708" lon="18.40072">
        <ele>132.157914</ele>
        <time>2022-06-01T09:46:35.600Z</time>
      </trkpt>
      <trkpt lat="42.50712" lon="18.4006">
        <ele>131.788862</ele>
        <time>2022-06-01T09:46:37.598Z</time>
      </trkpt>
      <trkpt lat="42.50717" lon="18.40047">
        <ele>131.401427</ele>
        <time>2022-06-01T09:46:40.565Z</time>
      </trkpt>
      <trkpt lat="42.50738" lon="18.40049">
        <ele>130.659233</ele>
        <time>2022-06-01T09:47:42.576Z</time>
      </trkpt>
      <trkpt lat="42.50747" lon="18.4005">
        <ele>130.30297</ele>
        <time>2022-06-01T09:47:47.561Z</time>
      </trkpt>
      <trkpt lat="42.50757" lon="18.4005">
        <ele>129.967235</ele>
        <time>2022-06-01T09:47:51.550Z</time>
      </trkpt>
      <trkpt lat="42.50766" lon="18.40044">
        <ele>129.587897</ele>
        <time>2022-06-01T09:47:57.602Z</time>
      </trkpt>
      <trkpt lat="42.50769" lon="18.4003">
        <ele>129.202379</ele>
        <time>2022-06-01T09:48:02.641Z</time>
      </trkpt>
      <trkpt lat="42.50768" lon="18.40015">
        <ele>128.795638</ele>
        <time>2022-06-01T09:48:07.601Z</time>
      </trkpt>
      <trkpt lat="42.50765" lon="18.40003">
        <ele>128.45592</ele>
        <time>2022-06-01T09:48:11.582Z</time>
      </trkpt>
      <trkpt lat="42.50762" lon="18.39991">
        <ele>128.112687</ele>
        <time>2022-06-01T09:48:15.575Z</time>
      </trkpt>
      <trkpt lat="42.50762" lon="18.39978">
        <ele>127.765488</ele>
        <time>2022-06-01T09:48:19.610Z</time>
      </trkpt>
      <trkpt lat="42.50762" lon="18.39963">
        <ele>127.690394</ele>
        <time>2022-06-01T09:48:23.580Z</time>
      </trkpt>
      <trkpt lat="42.50763" lon="18.39949">
        <ele>127.817274</ele>
        <time>2022-06-01T09:48:27.573Z</time>
      </trkpt>
      <trkpt lat="42.50764" lon="18.39935">
        <ele>127.93822</ele>
        <time>2022-06-01T09:48:31.593Z</time>
      </trkpt>
      <trkpt lat="42.50767" lon="18.39922">
        <ele>128.058198</ele>
        <time>2022-06-01T09:48:35.622Z</time>
      </trkpt>
      <trkpt lat="42.50771" lon="18.39908">
        <ele>128.192909</ele>
        <time>2022-06-01T09:48:39.598Z</time>
      </trkpt>
      <trkpt lat="42.50774" lon="18.39893">
        <ele>128.329444</ele>
        <time>2022-06-01T09:48:43.589Z</time>
      </trkpt>
      <trkpt lat="42.50778" lon="18.3988">
        <ele>128.452167</ele>
        <time>2022-06-01T09:48:47.592Z</time>
      </trkpt>
      <trkpt lat="42.5078" lon="18.39864">
        <ele>128.592174</ele>
        <time>2022-06-01T09:48:51.587Z</time>
      </trkpt>
      <trkpt lat="42.50783" lon="18.39849">
        <ele>128.728482</ele>
        <time>2022-06-01T09:48:55.582Z</time>
      </trkpt>
      <trkpt lat="42.50785" lon="18.39834">
        <ele>128.864789</ele>
        <time>2022-06-01T09:48:59.599Z</time>
      </trkpt>
      <trkpt lat="42.50787" lon="18.39822">
        <ele>128.975813</ele>
        <time>2022-06-01T09:49:03.622Z</time>
      </trkpt>
      <trkpt lat="42.5079" lon="18.39808">
        <ele>129.105752</ele>
        <time>2022-06-01T09:49:08.601Z</time>
      </trkpt>
      <trkpt lat="42.50792" lon="18.39794">
        <ele>129.232943</ele>
        <time>2022-06-01T09:49:12.581Z</time>
      </trkpt>
      <trkpt lat="42.50796" lon="18.39778">
        <ele>129.381367</ele>
        <time>2022-06-01T09:49:16.590Z</time>
      </trkpt>
      <trkpt lat="42.508" lon="18.39763">
        <ele>129.520659</ele>
        <time>2022-06-01T09:49:20.624Z</time>
      </trkpt>
      <trkpt lat="42.50805" lon="18.39749">
        <ele>129.65609</ele>
        <time>2022-06-01T09:49:24.592Z</time>
      </trkpt>
      <trkpt lat="42.50811" lon="18.39736">
        <ele>129.739904</ele>
        <time>2022-06-01T09:49:29.566Z</time>
      </trkpt>
      <trkpt lat="42.50818" lon="18.39727">
        <ele>129.650176</ele>
        <time>2022-06-01T09:49:33.571Z</time>
      </trkpt>
      <trkpt lat="42.50826" lon="18.39717">
        <ele>129.548168</ele>
        <time>2022-06-01T09:49:37.588Z</time>
      </trkpt>
      <trkpt lat="42.50834" lon="18.39706">
        <ele>129.443421</ele>
        <time>2022-06-01T09:49:41.571Z</time>
      </trkpt>
      <trkpt lat="42.50841" lon="18.39696">
        <ele>129.346782</ele>
        <time>2022-06-01T09:49:45.596Z</time>
      </trkpt>
      <trkpt lat="42.50848" lon="18.39683">
        <ele>129.239561</ele>
        <time>2022-06-01T09:49:49.599Z</time>
      </trkpt>
      <trkpt lat="42.50852" lon="18.39671">
        <ele>129.152463</ele>
        <time>2022-06-01T09:49:52.580Z</time>
      </trkpt>
      <trkpt lat="42.50856" lon="18.3966">
        <ele>129.065973</ele>
        <time>2022-06-01T09:49:55.586Z</time>
      </trkpt>
      <trkpt lat="42.50861" lon="18.39646">
        <ele>128.958165</ele>
        <time>2022-06-01T09:49:59.584Z</time>
      </trkpt>
      <trkpt lat="42.50865" lon="18.39634">
        <ele>128.872639</ele>
        <time>2022-06-01T09:50:02.592Z</time>
      </trkpt>
      <trkpt lat="42.50869" lon="18.39622">
        <ele>128.78729</ele>
        <time>2022-06-01T09:50:05.615Z</time>
      </trkpt>
      <trkpt lat="42.50872" lon="18.39608">
        <ele>128.682455</ele>
        <time>2022-06-01T09:50:09.595Z</time>
      </trkpt>
      <trkpt lat="42.50875" lon="18.39592">
        <ele>128.572122</ele>
        <time>2022-06-01T09:50:13.615Z</time>
      </trkpt>
      <trkpt lat="42.50876" lon="18.39576">
        <ele>128.464798</ele>
        <time>2022-06-01T09:50:17.574Z</time>
      </trkpt>
      <trkpt lat="42.50878" lon="18.39562">
        <ele>128.368686</ele>
        <time>2022-06-01T09:50:21.579Z</time>
      </trkpt>
      <trkpt lat="42.5088" lon="18.3955">
        <ele>128.279478</ele>
        <time>2022-06-01T09:50:25.576Z</time>
      </trkpt>
      <trkpt lat="42.50883" lon="18.39535">
        <ele>128.176206</ele>
        <time>2022-06-01T09:50:30.586Z</time>
      </trkpt>
      <trkpt lat="42.50888" lon="18.39523">
        <ele>128.06057</ele>
        <time>2022-06-01T09:50:34.576Z</time>
      </trkpt>
      <trkpt lat="42.50893" lon="18.3951">
        <ele>127.844331</ele>
        <time>2022-06-01T09:50:38.574Z</time>
      </trkpt>
      <trkpt lat="42.50899" lon="18.39498">
        <ele>127.621957</ele>
        <time>2022-06-01T09:50:42.577Z</time>
      </trkpt>
      <trkpt lat="42.50905" lon="18.39487">
        <ele>127.425906</ele>
        <time>2022-06-01T09:50:46.605Z</time>
      </trkpt>
      <trkpt lat="42.5091" lon="18.39476">
        <ele>127.223849</ele>
        <time>2022-06-01T09:50:51.622Z</time>
      </trkpt>
      <trkpt lat="42.50915" lon="18.39466">
        <ele>127.036306</ele>
        <time>2022-06-01T09:50:55.575Z</time>
      </trkpt>
      <trkpt lat="42.5092" lon="18.39455">
        <ele>126.84076</ele>
        <time>2022-06-01T09:50:59.586Z</time>
      </trkpt>
      <trkpt lat="42.50924" lon="18.39443">
        <ele>126.645228</ele>
        <time>2022-06-01T09:51:03.579Z</time>
      </trkpt>
      <trkpt lat="42.50928" lon="18.39429">
        <ele>126.425223</ele>
        <time>2022-06-01T09:51:08.577Z</time>
      </trkpt>
      <trkpt lat="42.50934" lon="18.39417">
        <ele>126.202189</ele>
        <time>2022-06-01T09:51:13.618Z</time>
      </trkpt>
      <trkpt lat="42.50939" lon="18.39404">
        <ele>125.986555</ele>
        <time>2022-06-01T09:51:18.586Z</time>
      </trkpt>
      <trkpt lat="42.50943" lon="18.39391">
        <ele>125.775864</ele>
        <time>2022-06-01T09:51:23.601Z</time>
      </trkpt>
      <trkpt lat="42.50948" lon="18.39379">
        <ele>125.572411</ele>
        <time>2022-06-01T09:51:28.579Z</time>
      </trkpt>
      <trkpt lat="42.50954" lon="18.39367">
        <ele>125.348291</ele>
        <time>2022-06-01T09:51:33.589Z</time>
      </trkpt>
      <trkpt lat="42.5096" lon="18.39355">
        <ele>125.137203</ele>
        <time>2022-06-01T09:51:38.592Z</time>
      </trkpt>
      <trkpt lat="42.50966" lon="18.39344">
        <ele>124.929297</ele>
        <time>2022-06-01T09:51:43.584Z</time>
      </trkpt>
      <trkpt lat="42.50973" lon="18.39333">
        <ele>124.711499</ele>
        <time>2022-06-01T09:51:48.564Z</time>
      </trkpt>
      <trkpt lat="42.50979" lon="18.39324">
        <ele>124.527278</ele>
        <time>2022-06-01T09:51:52.588Z</time>
      </trkpt>
      <trkpt lat="42.50986" lon="18.39312">
        <ele>124.284479</ele>
        <time>2022-06-01T09:51:57.605Z</time>
      </trkpt>
      <trkpt lat="42.50992" lon="18.39303">
        <ele>124.074072</ele>
        <time>2022-06-01T09:52:01.590Z</time>
      </trkpt>
      <trkpt lat="42.50998" lon="18.39292">
        <ele>123.841413</ele>
        <time>2022-06-01T09:52:06.595Z</time>
      </trkpt>
      <trkpt lat="42.51004" lon="18.3928">
        <ele>123.59373</ele>
        <time>2022-06-01T09:52:11.581Z</time>
      </trkpt>
      <trkpt lat="42.51011" lon="18.39269">
        <ele>123.366438</ele>
        <time>2022-06-01T09:52:15.590Z</time>
      </trkpt>
      <trkpt lat="42.51017" lon="18.39259">
        <ele>123.147051</ele>
        <time>2022-06-01T09:52:19.587Z</time>
      </trkpt>
      <trkpt lat="42.51022" lon="18.39249">
        <ele>122.923918</ele>
        <time>2022-06-01T09:52:23.598Z</time>
      </trkpt>
      <trkpt lat="42.51028" lon="18.39238">
        <ele>122.698068</ele>
        <time>2022-06-01T09:52:27.619Z</time>
      </trkpt>
      <trkpt lat="42.51034" lon="18.39228">
        <ele>122.485759</ele>
        <time>2022-06-01T09:52:31.564Z</time>
      </trkpt>
      <trkpt lat="42.51039" lon="18.39217">
        <ele>122.273225</ele>
        <time>2022-06-01T09:52:35.557Z</time>
      </trkpt>
      <trkpt lat="42.51044" lon="18.39205">
        <ele>122.03194</ele>
        <time>2022-06-01T09:52:40.553Z</time>
      </trkpt>
      <trkpt lat="42.5105" lon="18.39194">
        <ele>121.801975</ele>
        <time>2022-06-01T09:52:45.543Z</time>
      </trkpt>
      <trkpt lat="42.51057" lon="18.39183">
        <ele>121.556867</ele>
        <time>2022-06-01T09:52:50.558Z</time>
      </trkpt>
      <trkpt lat="42.51063" lon="18.39172">
        <ele>121.336395</ele>
        <time>2022-06-01T09:52:54.557Z</time>
      </trkpt>
      <trkpt lat="42.51069" lon="18.39162">
        <ele>121.106739</ele>
        <time>2022-06-01T09:52:58.574Z</time>
      </trkpt>
      <trkpt lat="42.51076" lon="18.39152">
        <ele>120.870926</ele>
        <time>2022-06-01T09:53:02.562Z</time>
      </trkpt>
      <trkpt lat="42.51083" lon="18.39141">
        <ele>120.628281</ele>
        <time>2022-06-01T09:53:06.569Z</time>
      </trkpt>
      <trkpt lat="42.51088" lon="18.3913">
        <ele>120.413273</ele>
        <time>2022-06-01T09:53:10.558Z</time>
      </trkpt>
      <trkpt lat="42.51094" lon="18.39119">
        <ele>120.1641</ele>
        <time>2022-06-01T09:53:14.606Z</time>
      </trkpt>
      <trkpt lat="42.511" lon="18.39107">
        <ele>119.917004</ele>
        <time>2022-06-01T09:53:18.582Z</time>
      </trkpt>
      <trkpt lat="42.51106" lon="18.39097">
        <ele>119.683218</ele>
        <time>2022-06-01T09:53:23.598Z</time>
      </trkpt>
      <trkpt lat="42.5111" lon="18.39086">
        <ele>119.460889</ele>
        <time>2022-06-01T09:53:28.578Z</time>
      </trkpt>
      <trkpt lat="42.51116" lon="18.39076">
        <ele>119.225377</ele>
        <time>2022-06-01T09:53:33.598Z</time>
      </trkpt>
      <trkpt lat="42.51123" lon="18.39064">
        <ele>118.953582</ele>
        <time>2022-06-01T09:53:38.631Z</time>
      </trkpt>
      <trkpt lat="42.51128" lon="18.39053">
        <ele>118.716924</ele>
        <time>2022-06-01T09:53:42.597Z</time>
      </trkpt>
      <trkpt lat="42.51135" lon="18.39042">
        <ele>118.467164</ele>
        <time>2022-06-01T09:53:47.575Z</time>
      </trkpt>
      <trkpt lat="42.51141" lon="18.39031">
        <ele>118.205825</ele>
        <time>2022-06-01T09:53:52.560Z</time>
      </trkpt>
      <trkpt lat="42.51146" lon="18.3902">
        <ele>117.968376</ele>
        <time>2022-06-01T09:53:57.613Z</time>
      </trkpt>
      <trkpt lat="42.51151" lon="18.39009">
        <ele>117.743039</ele>
        <time>2022-06-01T09:54:02.601Z</time>
      </trkpt>
      <trkpt lat="42.51156" lon="18.38997">
        <ele>117.496616</ele>
        <time>2022-06-01T09:54:07.581Z</time>
      </trkpt>
      <trkpt lat="42.51161" lon="18.38985">
        <ele>117.239129</ele>
        <time>2022-06-01T09:54:13.585Z</time>
      </trkpt>
      <trkpt lat="42.51167" lon="18.38972">
        <ele>116.976244</ele>
        <time>2022-06-01T09:54:19.593Z</time>
      </trkpt>
      <trkpt lat="42.51172" lon="18.38959">
        <ele>116.71238</ele>
        <time>2022-06-01T09:54:25.582Z</time>
      </trkpt>
      <trkpt lat="42.51176" lon="18.38948">
        <ele>116.484914</ele>
        <time>2022-06-01T09:54:29.590Z</time>
      </trkpt>
      <trkpt lat="42.51182" lon="18.38938">
        <ele>116.240987</ele>
        <time>2022-06-01T09:54:34.572Z</time>
      </trkpt>
      <trkpt lat="42.51188" lon="18.38927">
        <ele>116.002824</ele>
        <time>2022-06-01T09:54:39.586Z</time>
      </trkpt>
      <trkpt lat="42.51193" lon="18.38916">
        <ele>115.818603</ele>
        <time>2022-06-01T09:54:43.594Z</time>
      </trkpt>
      <trkpt lat="42.51198" lon="18.38905">
        <ele>115.64911</ele>
        <time>2022-06-01T09:54:48.588Z</time>
      </trkpt>
      <trkpt lat="42.51203" lon="18.38894">
        <ele>115.4816</ele>
        <time>2022-06-01T09:54:53.593Z</time>
      </trkpt>
      <trkpt lat="42.51207" lon="18.3888">
        <ele>115.295176</ele>
        <time>2022-06-01T09:54:59.590Z</time>
      </trkpt>
      <trkpt lat="42.51211" lon="18.38867">
        <ele>115.124066</ele>
        <time>2022-06-01T09:55:04.582Z</time>
      </trkpt>
      <trkpt lat="42.51215" lon="18.38856">
        <ele>114.964682</ele>
        <time>2022-06-01T09:55:09.613Z</time>
      </trkpt>
      <trkpt lat="42.5122" lon="18.38845">
        <ele>114.798541</ele>
        <time>2022-06-01T09:55:14.594Z</time>
      </trkpt>
      <trkpt lat="42.51225" lon="18.38831">
        <ele>114.598611</ele>
        <time>2022-06-01T09:55:19.610Z</time>
      </trkpt>
      <trkpt lat="42.51231" lon="18.38819">
        <ele>114.416073</ele>
        <time>2022-06-01T09:55:23.635Z</time>
      </trkpt>
      <trkpt lat="42.51236" lon="18.38808">
        <ele>114.253608</ele>
        <time>2022-06-01T09:55:27.600Z</time>
      </trkpt>
      <trkpt lat="42.51241" lon="18.38794">
        <ele>114.062416</ele>
        <time>2022-06-01T09:55:32.604Z</time>
      </trkpt>
      <trkpt lat="42.51246" lon="18.38782">
        <ele>113.887708</ele>
        <time>2022-06-01T09:55:37.605Z</time>
      </trkpt>
      <trkpt lat="42.5125" lon="18.38771">
        <ele>113.725295</ele>
        <time>2022-06-01T09:55:42.579Z</time>
      </trkpt>
      <trkpt lat="42.51255" lon="18.38757">
        <ele>113.538027</ele>
        <time>2022-06-01T09:55:47.587Z</time>
      </trkpt>
      <trkpt lat="42.51256" lon="18.38745">
        <ele>113.380508</ele>
        <time>2022-06-01T09:55:51.595Z</time>
      </trkpt>
      <trkpt lat="42.51255" lon="18.38731">
        <ele>113.206451</ele>
        <time>2022-06-01T09:55:56.584Z</time>
      </trkpt>
      <trkpt lat="42.51252" lon="18.38717">
        <ele>113.025303</ele>
        <time>2022-06-01T09:56:01.600Z</time>
      </trkpt>
      <trkpt lat="42.51252" lon="18.38704">
        <ele>112.856435</ele>
        <time>2022-06-01T09:56:06.593Z</time>
      </trkpt>
      <trkpt lat="42.51254" lon="18.3869">
        <ele>112.618957</ele>
        <time>2022-06-01T09:56:11.601Z</time>
      </trkpt>
      <trkpt lat="42.51257" lon="18.38678">
        <ele>112.39052</ele>
        <time>2022-06-01T09:56:15.581Z</time>
      </trkpt>
      <trkpt lat="42.51261" lon="18.38666">
        <ele>112.16529</ele>
        <time>2022-06-01T09:56:19.590Z</time>
      </trkpt>
      <trkpt lat="42.51266" lon="18.38654">
        <ele>111.920931</ele>
        <time>2022-06-01T09:56:24.612Z</time>
      </trkpt>
      <trkpt lat="42.51271" lon="18.38642">
        <ele>111.681863</ele>
        <time>2022-06-01T09:56:29.590Z</time>
      </trkpt>
      <trkpt lat="42.51276" lon="18.38631">
        <ele>111.440064</ele>
        <time>2022-06-01T09:56:34.587Z</time>
      </trkpt>
      <trkpt lat="42.51282" lon="18.38619">
        <ele>111.185034</ele>
        <time>2022-06-01T09:56:40.580Z</time>
      </trkpt>
      <trkpt lat="42.51287" lon="18.38607">
        <ele>110.952933</ele>
        <time>2022-06-01T09:56:45.576Z</time>
      </trkpt>
      <trkpt lat="42.51293" lon="18.38595">
        <ele>110.707156</ele>
        <time>2022-06-01T09:56:50.587Z</time>
      </trkpt>
      <trkpt lat="42.51298" lon="18.38582">
        <ele>110.452372</ele>
        <time>2022-06-01T09:56:55.598Z</time>
      </trkpt>
      <trkpt lat="42.51302" lon="18.38571">
        <ele>110.22394</ele>
        <time>2022-06-01T09:57:00.580Z</time>
      </trkpt>
      <trkpt lat="42.51306" lon="18.3856">
        <ele>110.006503</ele>
        <time>2022-06-01T09:57:05.589Z</time>
      </trkpt>
      <trkpt lat="42.51311" lon="18.38549">
        <ele>109.771122</ele>
        <time>2022-06-01T09:57:10.576Z</time>
      </trkpt>
      <trkpt lat="42.51316" lon="18.38536">
        <ele>109.533821</ele>
        <time>2022-06-01T09:57:15.591Z</time>
      </trkpt>
      <trkpt lat="42.51321" lon="18.38524">
        <ele>109.282803</ele>
        <time>2022-06-01T09:57:20.592Z</time>
      </trkpt>
      <trkpt lat="42.51325" lon="18.38513">
        <ele>109.056463</ele>
        <time>2022-06-01T09:57:25.595Z</time>
      </trkpt>
      <trkpt lat="42.5133" lon="18.38501">
        <ele>108.824363</ele>
        <time>2022-06-01T09:57:30.597Z</time>
      </trkpt>
      <trkpt lat="42.51336" lon="18.3849">
        <ele>108.590587</ele>
        <time>2022-06-01T09:57:35.599Z</time>
      </trkpt>
      <trkpt lat="42.51342" lon="18.38479">
        <ele>108.45193</ele>
        <time>2022-06-01T09:57:40.580Z</time>
      </trkpt>
      <trkpt lat="42.51348" lon="18.38468">
        <ele>108.347466</ele>
        <time>2022-06-01T09:57:45.584Z</time>
      </trkpt>
      <trkpt lat="42.51354" lon="18.38457">
        <ele>108.248986</ele>
        <time>2022-06-01T09:57:50.577Z</time>
      </trkpt>
      <trkpt lat="42.51358" lon="18.38447">
        <ele>108.154726</ele>
        <time>2022-06-01T09:57:54.598Z</time>
      </trkpt>
      <trkpt lat="42.51363" lon="18.38435">
        <ele>108.055564</ele>
        <time>2022-06-01T09:57:59.754Z</time>
      </trkpt>
      <trkpt lat="42.51369" lon="18.38424">
        <ele>107.950532</ele>
        <time>2022-06-01T09:58:04.579Z</time>
      </trkpt>
      <trkpt lat="42.51375" lon="18.38414">
        <ele>107.852662</ele>
        <time>2022-06-01T09:58:08.577Z</time>
      </trkpt>
      <trkpt lat="42.51381" lon="18.38402">
        <ele>107.747598</ele>
        <time>2022-06-01T09:58:12.607Z</time>
      </trkpt>
      <trkpt lat="42.51386" lon="18.3839">
        <ele>107.638481</ele>
        <time>2022-06-01T09:58:16.584Z</time>
      </trkpt>
      <trkpt lat="42.51392" lon="18.38379">
        <ele>107.532823</ele>
        <time>2022-06-01T09:58:20.579Z</time>
      </trkpt>
      <trkpt lat="42.51398" lon="18.38367">
        <ele>107.419601</ele>
        <time>2022-06-01T09:58:24.590Z</time>
      </trkpt>
      <trkpt lat="42.51405" lon="18.38353">
        <ele>107.296788</ele>
        <time>2022-06-01T09:58:28.574Z</time>
      </trkpt>
      <trkpt lat="42.5141" lon="18.38342">
        <ele>107.197746</ele>
        <time>2022-06-01T09:58:31.597Z</time>
      </trkpt>
      <trkpt lat="42.51415" lon="18.38331">
        <ele>107.100136</ele>
        <time>2022-06-01T09:58:34.652Z</time>
      </trkpt>
      <trkpt lat="42.5142" lon="18.3832">
        <ele>106.999824</ele>
        <time>2022-06-01T09:58:37.592Z</time>
      </trkpt>
      <trkpt lat="42.51425" lon="18.38308">
        <ele>106.897098</ele>
        <time>2022-06-01T09:58:40.619Z</time>
      </trkpt>
      <trkpt lat="42.5143" lon="18.38296">
        <ele>106.792266</ele>
        <time>2022-06-01T09:58:43.578Z</time>
      </trkpt>
      <trkpt lat="42.51434" lon="18.38284">
        <ele>106.690381</ele>
        <time>2022-06-01T09:58:46.598Z</time>
      </trkpt>
      <trkpt lat="42.51438" lon="18.38271">
        <ele>106.771845</ele>
        <time>2022-06-01T09:58:49.579Z</time>
      </trkpt>
      <trkpt lat="42.51442" lon="18.38259">
        <ele>106.865968</ele>
        <time>2022-06-01T09:58:52.580Z</time>
      </trkpt>
      <trkpt lat="42.51446" lon="18.38245">
        <ele>106.96437</ele>
        <time>2022-06-01T09:58:55.588Z</time>
      </trkpt>
      <trkpt lat="42.5145" lon="18.38232">
        <ele>107.063122</ele>
        <time>2022-06-01T09:58:58.619Z</time>
      </trkpt>
      <trkpt lat="42.51454" lon="18.38219">
        <ele>107.160618</ele>
        <time>2022-06-01T09:59:01.591Z</time>
      </trkpt>
      <trkpt lat="42.51459" lon="18.38205">
        <ele>107.263951</ele>
        <time>2022-06-01T09:59:04.596Z</time>
      </trkpt>
      <trkpt lat="42.51463" lon="18.3819">
        <ele>107.369358</ele>
        <time>2022-06-01T09:59:07.600Z</time>
      </trkpt>
      <trkpt lat="42.51469" lon="18.38176">
        <ele>107.484324</ele>
        <time>2022-06-01T09:59:10.575Z</time>
      </trkpt>
      <trkpt lat="42.51476" lon="18.38161">
        <ele>107.602196</ele>
        <time>2022-06-01T09:59:13.595Z</time>
      </trkpt>
      <trkpt lat="42.51483" lon="18.38146">
        <ele>107.722741</ele>
        <time>2022-06-01T09:59:16.572Z</time>
      </trkpt>
      <trkpt lat="42.5149" lon="18.38133">
        <ele>107.837251</ele>
        <time>2022-06-01T09:59:19.592Z</time>
      </trkpt>
      <trkpt lat="42.51498" lon="18.38119">
        <ele>107.95843</ele>
        <time>2022-06-01T09:59:22.583Z</time>
      </trkpt>
      <trkpt lat="42.51504" lon="18.38109">
        <ele>108.043505</ele>
        <time>2022-06-01T09:59:24.576Z</time>
      </trkpt>
      <trkpt lat="42.51513" lon="18.38096">
        <ele>108.166393</ele>
        <time>2022-06-01T09:59:27.588Z</time>
      </trkpt>
      <trkpt lat="42.51522" lon="18.38083">
        <ele>108.28478</ele>
        <time>2022-06-01T09:59:30.586Z</time>
      </trkpt>
      <trkpt lat="42.51531" lon="18.3807">
        <ele>108.298886</ele>
        <time>2022-06-01T09:59:33.575Z</time>
      </trkpt>
      <trkpt lat="42.51537" lon="18.3806">
        <ele>108.232131</ele>
        <time>2022-06-01T09:59:35.585Z</time>
      </trkpt>
      <trkpt lat="42.51543" lon="18.38051">
        <ele>108.164124</ele>
        <time>2022-06-01T09:59:37.615Z</time>
      </trkpt>
      <trkpt lat="42.51551" lon="18.38038">
        <ele>108.071611</ele>
        <time>2022-06-01T09:59:40.582Z</time>
      </trkpt>
      <trkpt lat="42.5156" lon="18.38025">
        <ele>107.97399</ele>
        <time>2022-06-01T09:59:43.589Z</time>
      </trkpt>
      <trkpt lat="42.51569" lon="18.38011">
        <ele>107.875736</ele>
        <time>2022-06-01T09:59:46.614Z</time>
      </trkpt>
      <trkpt lat="42.51575" lon="18.38001">
        <ele>107.807813</ele>
        <time>2022-06-01T09:59:48.615Z</time>
      </trkpt>
      <trkpt lat="42.51583" lon="18.37987">
        <ele>107.70944</ele>
        <time>2022-06-01T09:59:51.563Z</time>
      </trkpt>
      <trkpt lat="42.5159" lon="18.37972">
        <ele>107.614816</ele>
        <time>2022-06-01T09:59:54.582Z</time>
      </trkpt>
      <trkpt lat="42.51595" lon="18.37962">
        <ele>107.54776</ele>
        <time>2022-06-01T09:59:56.585Z</time>
      </trkpt>
      <trkpt lat="42.51602" lon="18.37948">
        <ele>107.454596</ele>
        <time>2022-06-01T09:59:59.575Z</time>
      </trkpt>
      <trkpt lat="42.5161" lon="18.37934">
        <ele>107.361019</ele>
        <time>2022-06-01T10:00:02.593Z</time>
      </trkpt>
      <trkpt lat="42.51617" lon="18.37919">
        <ele>107.266524</ele>
        <time>2022-06-01T10:00:05.583Z</time>
      </trkpt>
      <trkpt lat="42.51624" lon="18.37905">
        <ele>107.175087</ele>
        <time>2022-06-01T10:00:08.596Z</time>
      </trkpt>
      <trkpt lat="42.51632" lon="18.37891">
        <ele>107.080206</ele>
        <time>2022-06-01T10:00:11.590Z</time>
      </trkpt>
      <trkpt lat="42.51639" lon="18.37877">
        <ele>107.023911</ele>
        <time>2022-06-01T10:00:14.567Z</time>
      </trkpt>
      <trkpt lat="42.51647" lon="18.37862">
        <ele>107.018105</ele>
        <time>2022-06-01T10:00:17.595Z</time>
      </trkpt>
      <trkpt lat="42.51654" lon="18.37848">
        <ele>107.012509</ele>
        <time>2022-06-01T10:00:20.586Z</time>
      </trkpt>
      <trkpt lat="42.51661" lon="18.37834">
        <ele>107.006852</ele>
        <time>2022-06-01T10:00:23.585Z</time>
      </trkpt>
      <trkpt lat="42.51668" lon="18.3782">
        <ele>107.001426</ele>
        <time>2022-06-01T10:00:26.588Z</time>
      </trkpt>
      <trkpt lat="42.51675" lon="18.37806">
        <ele>106.99604</ele>
        <time>2022-06-01T10:00:29.583Z</time>
      </trkpt>
      <trkpt lat="42.51681" lon="18.37793">
        <ele>106.99081</ele>
        <time>2022-06-01T10:00:32.597Z</time>
      </trkpt>
      <trkpt lat="42.51688" lon="18.3778">
        <ele>106.985671</ele>
        <time>2022-06-01T10:00:35.582Z</time>
      </trkpt>
      <trkpt lat="42.51693" lon="18.37767">
        <ele>106.980787</ele>
        <time>2022-06-01T10:00:38.602Z</time>
      </trkpt>
      <trkpt lat="42.51698" lon="18.37753">
        <ele>106.975866</ele>
        <time>2022-06-01T10:00:41.587Z</time>
      </trkpt>
      <trkpt lat="42.51703" lon="18.37739">
        <ele>106.970837</ele>
        <time>2022-06-01T10:00:44.608Z</time>
      </trkpt>
      <trkpt lat="42.51708" lon="18.37726">
        <ele>106.965877</ele>
        <time>2022-06-01T10:00:47.590Z</time>
      </trkpt>
      <trkpt lat="42.51713" lon="18.37712">
        <ele>106.960819</ele>
        <time>2022-06-01T10:00:50.605Z</time>
      </trkpt>
      <trkpt lat="42.51717" lon="18.37697">
        <ele>106.955518</ele>
        <time>2022-06-01T10:00:53.599Z</time>
      </trkpt>
      <trkpt lat="42.5172" lon="18.37682">
        <ele>106.950547</ele>
        <time>2022-06-01T10:00:56.580Z</time>
      </trkpt>
      <trkpt lat="42.51724" lon="18.37667">
        <ele>106.934218</ele>
        <time>2022-06-01T10:00:59.592Z</time>
      </trkpt>
      <trkpt lat="42.51728" lon="18.37654">
        <ele>106.888089</ele>
        <time>2022-06-01T10:01:02.582Z</time>
      </trkpt>
      <trkpt lat="42.51732" lon="18.3764">
        <ele>106.842974</ele>
        <time>2022-06-01T10:01:05.595Z</time>
      </trkpt>
      <trkpt lat="42.51734" lon="18.37625">
        <ele>106.794527</ele>
        <time>2022-06-01T10:01:08.576Z</time>
      </trkpt>
      <trkpt lat="42.51738" lon="18.3761">
        <ele>106.747903</ele>
        <time>2022-06-01T10:01:11.694Z</time>
      </trkpt>
      <trkpt lat="42.51742" lon="18.37595">
        <ele>106.697826</ele>
        <time>2022-06-01T10:01:14.589Z</time>
      </trkpt>
      <trkpt lat="42.51745" lon="18.37581">
        <ele>106.651697</ele>
        <time>2022-06-01T10:01:17.593Z</time>
      </trkpt>
      <trkpt lat="42.51749" lon="18.37569">
        <ele>106.609656</ele>
        <time>2022-06-01T10:01:20.599Z</time>
      </trkpt>
      <trkpt lat="42.51751" lon="18.37555">
        <ele>106.56725</ele>
        <time>2022-06-01T10:01:23.597Z</time>
      </trkpt>
      <trkpt lat="42.51754" lon="18.37543">
        <ele>106.528151</ele>
        <time>2022-06-01T10:01:26.598Z</time>
      </trkpt>
      <trkpt lat="42.51759" lon="18.37529">
        <ele>106.479543</ele>
        <time>2022-06-01T10:01:30.579Z</time>
      </trkpt>
      <trkpt lat="42.51762" lon="18.37516">
        <ele>106.435844</ele>
        <time>2022-06-01T10:01:34.649Z</time>
      </trkpt>
      <trkpt lat="42.51765" lon="18.37491">
        <ele>106.356894</ele>
        <time>2022-06-01T10:07:46.575Z</time>
      </trkpt>
      <trkpt lat="42.51769" lon="18.37479">
        <ele>106.316304</ele>
        <time>2022-06-01T10:07:50.561Z</time>
      </trkpt>
      <trkpt lat="42.51779" lon="18.37471">
        <ele>106.269384</ele>
        <time>2022-06-01T10:07:55.554Z</time>
      </trkpt>
      <trkpt lat="42.51791" lon="18.37475">
        <ele>106.214137</ele>
        <time>2022-06-01T10:07:58.553Z</time>
      </trkpt>
      <trkpt lat="42.51803" lon="18.3748">
        <ele>106.039348</ele>
        <time>2022-06-01T10:08:01.564Z</time>
      </trkpt>
      <trkpt lat="42.51814" lon="18.37485">
        <ele>105.770193</ele>
        <time>2022-06-01T10:08:04.553Z</time>
      </trkpt>
      <trkpt lat="42.51825" lon="18.3749">
        <ele>105.508173</ele>
        <time>2022-06-01T10:08:07.559Z</time>
      </trkpt>
      <trkpt lat="42.51837" lon="18.37496">
        <ele>105.201264</ele>
        <time>2022-06-01T10:08:10.556Z</time>
      </trkpt>
      <trkpt lat="42.51846" lon="18.375">
        <ele>104.990654</ele>
        <time>2022-06-01T10:08:12.554Z</time>
      </trkpt>
      <trkpt lat="42.51859" lon="18.37504">
        <ele>104.677882</ele>
        <time>2022-06-01T10:08:15.564Z</time>
      </trkpt>
      <trkpt lat="42.51867" lon="18.37509">
        <ele>104.467261</ele>
        <time>2022-06-01T10:08:17.583Z</time>
      </trkpt>
      <trkpt lat="42.51875" lon="18.37514">
        <ele>104.256686</ele>
        <time>2022-06-01T10:08:19.559Z</time>
      </trkpt>
      <trkpt lat="42.51884" lon="18.37519">
        <ele>104.031154</ele>
        <time>2022-06-01T10:08:21.560Z</time>
      </trkpt>
      <trkpt lat="42.51896" lon="18.37526">
        <ele>103.731694</ele>
        <time>2022-06-01T10:08:24.554Z</time>
      </trkpt>
      <trkpt lat="42.51904" lon="18.37532">
        <ele>103.519789</ele>
        <time>2022-06-01T10:08:26.560Z</time>
      </trkpt>
      <trkpt lat="42.51913" lon="18.37538">
        <ele>103.287198</ele>
        <time>2022-06-01T10:08:28.578Z</time>
      </trkpt>
      <trkpt lat="42.51922" lon="18.37543">
        <ele>103.058846</ele>
        <time>2022-06-01T10:08:30.562Z</time>
      </trkpt>
      <trkpt lat="42.5193" lon="18.37548">
        <ele>102.84331</ele>
        <time>2022-06-01T10:08:32.561Z</time>
      </trkpt>
      <trkpt lat="42.51939" lon="18.37554">
        <ele>102.631867</ele>
        <time>2022-06-01T10:08:34.576Z</time>
      </trkpt>
      <trkpt lat="42.51947" lon="18.37559">
        <ele>102.42057</ele>
        <time>2022-06-01T10:08:36.555Z</time>
      </trkpt>
      <trkpt lat="42.51958" lon="18.37566">
        <ele>102.12556</ele>
        <time>2022-06-01T10:08:39.559Z</time>
      </trkpt>
      <trkpt lat="42.51968" lon="18.37574">
        <ele>102.005266</ele>
        <time>2022-06-01T10:08:42.557Z</time>
      </trkpt>
      <trkpt lat="42.51978" lon="18.37581">
        <ele>102.03783</ele>
        <time>2022-06-01T10:08:45.570Z</time>
      </trkpt>
      <trkpt lat="42.51987" lon="18.37588">
        <ele>102.068498</ele>
        <time>2022-06-01T10:08:48.578Z</time>
      </trkpt>
      <trkpt lat="42.51997" lon="18.37595">
        <ele>102.102134</ele>
        <time>2022-06-01T10:08:51.570Z</time>
      </trkpt>
      <trkpt lat="42.52006" lon="18.376">
        <ele>102.132181</ele>
        <time>2022-06-01T10:08:54.563Z</time>
      </trkpt>
      <trkpt lat="42.52015" lon="18.37606">
        <ele>102.161755</ele>
        <time>2022-06-01T10:08:57.585Z</time>
      </trkpt>
      <trkpt lat="42.52024" lon="18.37614">
        <ele>102.195029</ele>
        <time>2022-06-01T10:09:00.576Z</time>
      </trkpt>
      <trkpt lat="42.52035" lon="18.37623">
        <ele>102.232633</ele>
        <time>2022-06-01T10:09:03.571Z</time>
      </trkpt>
      <trkpt lat="42.52045" lon="18.3763">
        <ele>102.265694</ele>
        <time>2022-06-01T10:09:06.600Z</time>
      </trkpt>
      <trkpt lat="42.52055" lon="18.37636">
        <ele>102.297065</ele>
        <time>2022-06-01T10:09:09.579Z</time>
      </trkpt>
      <trkpt lat="42.52066" lon="18.37642">
        <ele>102.334722</ele>
        <time>2022-06-01T10:09:13.582Z</time>
      </trkpt>
      <trkpt lat="42.52076" lon="18.37648">
        <ele>102.365462</ele>
        <time>2022-06-01T10:09:16.593Z</time>
      </trkpt>
      <trkpt lat="42.52085" lon="18.37654">
        <ele>102.394659</ele>
        <time>2022-06-01T10:09:19.638Z</time>
      </trkpt>
      <trkpt lat="42.52094" lon="18.37659">
        <ele>102.424217</ele>
        <time>2022-06-01T10:09:22.581Z</time>
      </trkpt>
      <trkpt lat="42.52103" lon="18.37665">
        <ele>102.453601</ele>
        <time>2022-06-01T10:09:25.603Z</time>
      </trkpt>
      <trkpt lat="42.52112" lon="18.3767">
        <ele>102.483728</ele>
        <time>2022-06-01T10:09:28.582Z</time>
      </trkpt>
      <trkpt lat="42.52121" lon="18.37674">
        <ele>102.510644</ele>
        <time>2022-06-01T10:09:31.615Z</time>
      </trkpt>
      <trkpt lat="42.5213" lon="18.37677">
        <ele>102.651532</ele>
        <time>2022-06-01T10:09:35.589Z</time>
      </trkpt>
      <trkpt lat="42.52141" lon="18.3768">
        <ele>102.946582</ele>
        <time>2022-06-01T10:09:39.578Z</time>
      </trkpt>
      <trkpt lat="42.52151" lon="18.37684">
        <ele>103.210435</ele>
        <time>2022-06-01T10:09:42.594Z</time>
      </trkpt>
      <trkpt lat="42.52162" lon="18.37686">
        <ele>103.478669</ele>
        <time>2022-06-01T10:09:45.602Z</time>
      </trkpt>
      <trkpt lat="42.52172" lon="18.37689">
        <ele>103.735358</ele>
        <time>2022-06-01T10:09:48.567Z</time>
      </trkpt>
      <trkpt lat="42.52183" lon="18.37693">
        <ele>104.041173</ele>
        <time>2022-06-01T10:09:52.598Z</time>
      </trkpt>
      <trkpt lat="42.52192" lon="18.37696">
        <ele>104.279124</ele>
        <time>2022-06-01T10:09:55.588Z</time>
      </trkpt>
      <trkpt lat="42.52201" lon="18.37699">
        <ele>104.520949</ele>
        <time>2022-06-01T10:09:58.624Z</time>
      </trkpt>
      <trkpt lat="42.52213" lon="18.37701">
        <ele>104.804726</ele>
        <time>2022-06-01T10:10:02.575Z</time>
      </trkpt>
      <trkpt lat="42.52223" lon="18.37703">
        <ele>105.072664</ele>
        <time>2022-06-01T10:10:06.591Z</time>
      </trkpt>
      <trkpt lat="42.52232" lon="18.37704">
        <ele>105.310656</ele>
        <time>2022-06-01T10:10:09.599Z</time>
      </trkpt>
      <trkpt lat="42.52242" lon="18.37705">
        <ele>105.550997</ele>
        <time>2022-06-01T10:10:12.582Z</time>
      </trkpt>
      <trkpt lat="42.52253" lon="18.37707">
        <ele>105.84568</ele>
        <time>2022-06-01T10:10:16.592Z</time>
      </trkpt>
      <trkpt lat="42.52262" lon="18.37709">
        <ele>106.07447</ele>
        <time>2022-06-01T10:10:19.582Z</time>
      </trkpt>
      <trkpt lat="42.52273" lon="18.37711">
        <ele>106.362033</ele>
        <time>2022-06-01T10:10:23.581Z</time>
      </trkpt>
      <trkpt lat="42.52282" lon="18.37713">
        <ele>106.597329</ele>
        <time>2022-06-01T10:10:26.652Z</time>
      </trkpt>
      <trkpt lat="42.52292" lon="18.37714">
        <ele>106.832788</ele>
        <time>2022-06-01T10:10:29.583Z</time>
      </trkpt>
      <trkpt lat="42.52302" lon="18.37717">
        <ele>107.106952</ele>
        <time>2022-06-01T10:10:33.581Z</time>
      </trkpt>
      <trkpt lat="42.52312" lon="18.3772">
        <ele>107.188254</ele>
        <time>2022-06-01T10:10:36.587Z</time>
      </trkpt>
      <trkpt lat="42.52323" lon="18.37723">
        <ele>107.283103</ele>
        <time>2022-06-01T10:10:40.587Z</time>
      </trkpt>
      <trkpt lat="42.52332" lon="18.37726">
        <ele>107.366487</ele>
        <time>2022-06-01T10:10:44.590Z</time>
      </trkpt>
      <trkpt lat="42.52342" lon="18.37728">
        <ele>107.450297</ele>
        <time>2022-06-01T10:10:48.625Z</time>
      </trkpt>
      <trkpt lat="42.52353" lon="18.3773">
        <ele>107.543098</ele>
        <time>2022-06-01T10:10:52.598Z</time>
      </trkpt>
      <trkpt lat="42.52363" lon="18.37734">
        <ele>107.629614</ele>
        <time>2022-06-01T10:10:56.593Z</time>
      </trkpt>
      <trkpt lat="42.52372" lon="18.37737">
        <ele>107.711082</ele>
        <time>2022-06-01T10:11:00.583Z</time>
      </trkpt>
      <trkpt lat="42.52381" lon="18.3774">
        <ele>107.790879</ele>
        <time>2022-06-01T10:11:04.581Z</time>
      </trkpt>
      <trkpt lat="42.52392" lon="18.37742">
        <ele>107.883763</ele>
        <time>2022-06-01T10:11:09.570Z</time>
      </trkpt>
      <trkpt lat="42.52402" lon="18.37744">
        <ele>107.972854</ele>
        <time>2022-06-01T10:11:14.584Z</time>
      </trkpt>
      <trkpt lat="42.52412" lon="18.37747">
        <ele>108.06019</ele>
        <time>2022-06-01T10:11:18.583Z</time>
      </trkpt>
      <trkpt lat="42.52422" lon="18.3775">
        <ele>108.14803</ele>
        <time>2022-06-01T10:11:22.591Z</time>
      </trkpt>
      <trkpt lat="42.52433" lon="18.37755">
        <ele>108.244485</ele>
        <time>2022-06-01T10:11:27.590Z</time>
      </trkpt>
      <trkpt lat="42.52444" lon="18.37761">
        <ele>108.34374</ele>
        <time>2022-06-01T10:11:31.587Z</time>
      </trkpt>
      <trkpt lat="42.52454" lon="18.37763">
        <ele>108.433796</ele>
        <time>2022-06-01T10:11:34.604Z</time>
      </trkpt>
      <trkpt lat="42.52463" lon="18.37766">
        <ele>108.513852</ele>
        <time>2022-06-01T10:11:37.590Z</time>
      </trkpt>
      <trkpt lat="42.52473" lon="18.3777">
        <ele>108.600076</ele>
        <time>2022-06-01T10:11:41.597Z</time>
      </trkpt>
      <trkpt lat="42.52482" lon="18.37773">
        <ele>108.645134</ele>
        <time>2022-06-01T10:11:45.589Z</time>
      </trkpt>
      <trkpt lat="42.52492" lon="18.37777">
        <ele>108.668251</ele>
        <time>2022-06-01T10:11:49.575Z</time>
      </trkpt>
      <trkpt lat="42.52501" lon="18.3778">
        <ele>108.690471</ele>
        <time>2022-06-01T10:11:53.566Z</time>
      </trkpt>
      <trkpt lat="42.52512" lon="18.37785">
        <ele>108.716635</ele>
        <time>2022-06-01T10:11:57.629Z</time>
      </trkpt>
      <trkpt lat="42.52522" lon="18.3779">
        <ele>108.742085</ele>
        <time>2022-06-01T10:12:01.586Z</time>
      </trkpt>
      <trkpt lat="42.52532" lon="18.37794">
        <ele>108.764174</ele>
        <time>2022-06-01T10:12:04.593Z</time>
      </trkpt>
      <trkpt lat="42.52541" lon="18.37798">
        <ele>108.787318</ele>
        <time>2022-06-01T10:12:07.595Z</time>
      </trkpt>
      <trkpt lat="42.52551" lon="18.37802">
        <ele>108.810213</ele>
        <time>2022-06-01T10:12:10.578Z</time>
      </trkpt>
      <trkpt lat="42.5256" lon="18.37806">
        <ele>108.833136</ele>
        <time>2022-06-01T10:12:13.603Z</time>
      </trkpt>
      <trkpt lat="42.5257" lon="18.37809">
        <ele>108.85614</ele>
        <time>2022-06-01T10:12:16.577Z</time>
      </trkpt>
      <trkpt lat="42.5258" lon="18.37812">
        <ele>108.879516</ele>
        <time>2022-06-01T10:12:19.588Z</time>
      </trkpt>
      <trkpt lat="42.5259" lon="18.37816">
        <ele>108.903511</ele>
        <time>2022-06-01T10:12:22.601Z</time>
      </trkpt>
      <trkpt lat="42.52601" lon="18.3782">
        <ele>108.930113</ele>
        <time>2022-06-01T10:12:25.577Z</time>
      </trkpt>
      <trkpt lat="42.52614" lon="18.37824">
        <ele>108.959836</ele>
        <time>2022-06-01T10:12:28.591Z</time>
      </trkpt>
      <trkpt lat="42.52627" lon="18.37828">
        <ele>108.990307</ele>
        <time>2022-06-01T10:12:31.592Z</time>
      </trkpt>
      <trkpt lat="42.52636" lon="18.37831">
        <ele>109.011183</ele>
        <time>2022-06-01T10:12:33.595Z</time>
      </trkpt>
      <trkpt lat="42.52645" lon="18.37833">
        <ele>109.032477</ele>
        <time>2022-06-01T10:12:35.580Z</time>
      </trkpt>
      <trkpt lat="42.52654" lon="18.37836">
        <ele>108.95707</ele>
        <time>2022-06-01T10:12:37.579Z</time>
      </trkpt>
      <trkpt lat="42.52663" lon="18.37838">
        <ele>108.73004</ele>
        <time>2022-06-01T10:12:39.586Z</time>
      </trkpt>
      <trkpt lat="42.52672" lon="18.3784">
        <ele>108.499507</ele>
        <time>2022-06-01T10:12:41.594Z</time>
      </trkpt>
      <trkpt lat="42.52682" lon="18.37842">
        <ele>108.267119</ele>
        <time>2022-06-01T10:12:43.574Z</time>
      </trkpt>
      <trkpt lat="42.52691" lon="18.37844">
        <ele>108.037412</ele>
        <time>2022-06-01T10:12:45.589Z</time>
      </trkpt>
      <trkpt lat="42.527" lon="18.37846">
        <ele>107.807951</ele>
        <time>2022-06-01T10:12:47.587Z</time>
      </trkpt>
      <trkpt lat="42.52709" lon="18.37847">
        <ele>107.580914</ele>
        <time>2022-06-01T10:12:49.581Z</time>
      </trkpt>
      <trkpt lat="42.52719" lon="18.37849">
        <ele>107.346108</ele>
        <time>2022-06-01T10:12:51.586Z</time>
      </trkpt>
      <trkpt lat="42.52728" lon="18.37851">
        <ele>107.112634</ele>
        <time>2022-06-01T10:12:53.595Z</time>
      </trkpt>
      <trkpt lat="42.52738" lon="18.37852">
        <ele>106.882077</ele>
        <time>2022-06-01T10:12:55.588Z</time>
      </trkpt>
      <trkpt lat="42.52748" lon="18.37853">
        <ele>106.638869</ele>
        <time>2022-06-01T10:12:57.589Z</time>
      </trkpt>
      <trkpt lat="42.52757" lon="18.37854">
        <ele>106.405394</ele>
        <time>2022-06-01T10:12:59.575Z</time>
      </trkpt>
      <trkpt lat="42.52767" lon="18.37855">
        <ele>106.160334</ele>
        <time>2022-06-01T10:13:01.584Z</time>
      </trkpt>
      <trkpt lat="42.52777" lon="18.37856">
        <ele>105.910505</ele>
        <time>2022-06-01T10:13:03.586Z</time>
      </trkpt>
      <trkpt lat="42.52788" lon="18.37856">
        <ele>105.658486</ele>
        <time>2022-06-01T10:13:05.683Z</time>
      </trkpt>
      <trkpt lat="42.52798" lon="18.37857">
        <ele>105.40151</ele>
        <time>2022-06-01T10:13:07.591Z</time>
      </trkpt>
      <trkpt lat="42.52808" lon="18.37858">
        <ele>105.158622</ele>
        <time>2022-06-01T10:13:09.587Z</time>
      </trkpt>
      <trkpt lat="42.52818" lon="18.3786">
        <ele>104.923816</ele>
        <time>2022-06-01T10:13:11.624Z</time>
      </trkpt>
      <trkpt lat="42.52827" lon="18.37862">
        <ele>104.698106</ele>
        <time>2022-06-01T10:13:13.571Z</time>
      </trkpt>
      <trkpt lat="42.5284" lon="18.37864">
        <ele>104.685703</ele>
        <time>2022-06-01T10:13:16.574Z</time>
      </trkpt>
      <trkpt lat="42.52851" lon="18.37865">
        <ele>104.727427</ele>
        <time>2022-06-01T10:13:19.581Z</time>
      </trkpt>
      <trkpt lat="42.52863" lon="18.37864">
        <ele>104.767288</ele>
        <time>2022-06-01T10:13:22.618Z</time>
      </trkpt>
      <trkpt lat="42.52874" lon="18.37862">
        <ele>104.808266</ele>
        <time>2022-06-01T10:13:25.582Z</time>
      </trkpt>
      <trkpt lat="42.52885" lon="18.37859">
        <ele>104.845473</ele>
        <time>2022-06-01T10:13:28.588Z</time>
      </trkpt>
      <trkpt lat="42.52895" lon="18.37857">
        <ele>104.882329</ele>
        <time>2022-06-01T10:13:31.581Z</time>
      </trkpt>
      <trkpt lat="42.52904" lon="18.37856">
        <ele>104.915175</ele>
        <time>2022-06-01T10:13:34.587Z</time>
      </trkpt>
      <trkpt lat="42.52913" lon="18.3785">
        <ele>104.949596</ele>
        <time>2022-06-01T10:13:38.596Z</time>
      </trkpt>
      <trkpt lat="42.52923" lon="18.37844">
        <ele>104.986834</ele>
        <time>2022-06-01T10:13:42.606Z</time>
      </trkpt>
      <trkpt lat="42.52932" lon="18.37838">
        <ele>105.023607</ele>
        <time>2022-06-01T10:13:46.593Z</time>
      </trkpt>
      <trkpt lat="42.52942" lon="18.37834">
        <ele>105.060416</ele>
        <time>2022-06-01T10:13:50.602Z</time>
      </trkpt>
      <trkpt lat="42.52952" lon="18.37837">
        <ele>105.097772</ele>
        <time>2022-06-01T10:13:54.568Z</time>
      </trkpt>
      <trkpt lat="42.52962" lon="18.37841">
        <ele>105.132281</ele>
        <time>2022-06-01T10:13:58.593Z</time>
      </trkpt>
      <trkpt lat="42.5297" lon="18.37831">
        <ele>105.172129</ele>
        <time>2022-06-01T10:14:03.561Z</time>
      </trkpt>
      <trkpt lat="42.52977" lon="18.37817">
        <ele>105.212747</ele>
        <time>2022-06-01T10:14:06.575Z</time>
      </trkpt>
      <trkpt lat="42.52985" lon="18.37811">
        <ele>105.24769</ele>
        <time>2022-06-01T10:14:08.586Z</time>
      </trkpt>
      <trkpt lat="42.52999" lon="18.37811">
        <ele>105.154834</ele>
        <time>2022-06-01T10:14:10.585Z</time>
      </trkpt>
      <trkpt lat="42.53013" lon="18.37815">
        <ele>104.746457</ele>
        <time>2022-06-01T10:14:12.570Z</time>
      </trkpt>
      <trkpt lat="42.53027" lon="18.37819">
        <ele>104.325939</ele>
        <time>2022-06-01T10:14:14.580Z</time>
      </trkpt>
      <trkpt lat="42.53042" lon="18.37821">
        <ele>103.890554</ele>
        <time>2022-06-01T10:14:16.580Z</time>
      </trkpt>
      <trkpt lat="42.53058" lon="18.37821">
        <ele>103.436911</ele>
        <time>2022-06-01T10:14:18.596Z</time>
      </trkpt>
      <trkpt lat="42.53074" lon="18.37819">
        <ele>102.958746</ele>
        <time>2022-06-01T10:14:20.592Z</time>
      </trkpt>
      <trkpt lat="42.53091" lon="18.37813">
        <ele>102.451335</ele>
        <time>2022-06-01T10:14:22.585Z</time>
      </trkpt>
      <trkpt lat="42.53107" lon="18.37804">
        <ele>101.964329</ele>
        <time>2022-06-01T10:14:24.595Z</time>
      </trkpt>
      <trkpt lat="42.53121" lon="18.37793">
        <ele>101.482889</ele>
        <time>2022-06-01T10:14:26.610Z</time>
      </trkpt>
      <trkpt lat="42.53136" lon="18.37784">
        <ele>101.029093</ele>
        <time>2022-06-01T10:14:28.592Z</time>
      </trkpt>
      <trkpt lat="42.53149" lon="18.37775">
        <ele>100.600907</ele>
        <time>2022-06-01T10:14:30.598Z</time>
      </trkpt>
      <trkpt lat="42.53162" lon="18.37766">
        <ele>100.176936</ele>
        <time>2022-06-01T10:14:32.639Z</time>
      </trkpt>
      <trkpt lat="42.53174" lon="18.37755">
        <ele>99.846254</ele>
        <time>2022-06-01T10:14:34.585Z</time>
      </trkpt>
      <trkpt lat="42.53186" lon="18.37744">
        <ele>99.557641</ele>
        <time>2022-06-01T10:14:36.596Z</time>
      </trkpt>
      <trkpt lat="42.53197" lon="18.37733">
        <ele>99.278202</ele>
        <time>2022-06-01T10:14:38.619Z</time>
      </trkpt>
      <trkpt lat="42.53207" lon="18.37723">
        <ele>99.01787</ele>
        <time>2022-06-01T10:14:40.592Z</time>
      </trkpt>
      <trkpt lat="42.53216" lon="18.37713">
        <ele>98.771206</ele>
        <time>2022-06-01T10:14:42.596Z</time>
      </trkpt>
      <trkpt lat="42.53225" lon="18.37706">
        <ele>98.556601</ele>
        <time>2022-06-01T10:14:44.581Z</time>
      </trkpt>
      <trkpt lat="42.53236" lon="18.37705">
        <ele>98.343099</ele>
        <time>2022-06-01T10:14:46.591Z</time>
      </trkpt>
      <trkpt lat="42.53246" lon="18.37711">
        <ele>98.116786</ele>
        <time>2022-06-01T10:14:48.611Z</time>
      </trkpt>
      <trkpt lat="42.53255" lon="18.37719">
        <ele>97.896057</ele>
        <time>2022-06-01T10:14:50.567Z</time>
      </trkpt>
      <trkpt lat="42.53263" lon="18.37725">
        <ele>97.706667</ele>
        <time>2022-06-01T10:14:52.615Z</time>
      </trkpt>
      <trkpt lat="42.53273" lon="18.37734">
        <ele>97.455831</ele>
        <time>2022-06-01T10:14:55.610Z</time>
      </trkpt>
      <trkpt lat="42.53282" lon="18.37742">
        <ele>97.236825</ele>
        <time>2022-06-01T10:14:58.585Z</time>
      </trkpt>
      <trkpt lat="42.53291" lon="18.37748">
        <ele>97.036321</ele>
        <time>2022-06-01T10:15:01.629Z</time>
      </trkpt>
      <trkpt lat="42.533" lon="18.37755">
        <ele>96.823916</ele>
        <time>2022-06-01T10:15:04.586Z</time>
      </trkpt>
      <trkpt lat="42.5331" lon="18.37763">
        <ele>96.58803</ele>
        <time>2022-06-01T10:15:07.584Z</time>
      </trkpt>
      <trkpt lat="42.5332" lon="18.37773">
        <ele>96.493596</ele>
        <time>2022-06-01T10:15:10.592Z</time>
      </trkpt>
      <trkpt lat="42.53329" lon="18.37781">
        <ele>96.767959</ele>
        <time>2022-06-01T10:15:12.570Z</time>
      </trkpt>
      <trkpt lat="42.53337" lon="18.37787">
        <ele>97.037945</ele>
        <time>2022-06-01T10:15:14.576Z</time>
      </trkpt>
      <trkpt lat="42.53346" lon="18.37793">
        <ele>97.320934</ele>
        <time>2022-06-01T10:15:16.583Z</time>
      </trkpt>
      <trkpt lat="42.53356" lon="18.378">
        <ele>97.608945</ele>
        <time>2022-06-01T10:15:18.576Z</time>
      </trkpt>
      <trkpt lat="42.53365" lon="18.37806">
        <ele>97.8916</ele>
        <time>2022-06-01T10:15:20.587Z</time>
      </trkpt>
      <trkpt lat="42.53374" lon="18.37811">
        <ele>98.161999</ele>
        <time>2022-06-01T10:15:22.590Z</time>
      </trkpt>
      <trkpt lat="42.53386" lon="18.37818">
        <ele>98.528698</ele>
        <time>2022-06-01T10:15:25.590Z</time>
      </trkpt>
      <trkpt lat="42.53398" lon="18.37821">
        <ele>98.861167</ele>
        <time>2022-06-01T10:15:28.609Z</time>
      </trkpt>
      <trkpt lat="42.53409" lon="18.37817">
        <ele>99.178487</ele>
        <time>2022-06-01T10:15:31.577Z</time>
      </trkpt>
      <trkpt lat="42.5342" lon="18.37813">
        <ele>99.505456</ele>
        <time>2022-06-01T10:15:34.637Z</time>
      </trkpt>
      <trkpt lat="42.5343" lon="18.37809">
        <ele>99.78319</ele>
        <time>2022-06-01T10:15:37.600Z</time>
      </trkpt>
      <trkpt lat="42.53439" lon="18.37806">
        <ele>100.044915</ele>
        <time>2022-06-01T10:15:41.600Z</time>
      </trkpt>
      <trkpt lat="42.53448" lon="18.37803">
        <ele>100.305539</ele>
        <time>2022-06-01T10:15:47.618Z</time>
      </trkpt>
      <trkpt lat="42.53447" lon="18.3779">
        <ele>100.584052</ele>
        <time>2022-06-01T10:15:53.575Z</time>
      </trkpt>
      <trkpt lat="42.53443" lon="18.37779">
        <ele>100.835276</ele>
        <time>2022-06-01T10:15:58.595Z</time>
      </trkpt>
      <trkpt lat="42.5344" lon="18.37767">
        <ele>101.091269</ele>
        <time>2022-06-01T10:16:01.592Z</time>
      </trkpt>
      <trkpt lat="42.5344" lon="18.37752">
        <ele>101.381319</ele>
        <time>2022-06-01T10:16:03.645Z</time>
      </trkpt>
      <trkpt lat="42.53439" lon="18.37738">
        <ele>101.442218</ele>
        <time>2022-06-01T10:16:05.603Z</time>
      </trkpt>
      <trkpt lat="42.53439" lon="18.37726">
        <ele>101.494594</ele>
        <time>2022-06-01T10:16:07.629Z</time>
      </trkpt>
      <trkpt lat="42.53436" lon="18.37709">
        <ele>101.569091</ele>
        <time>2022-06-01T10:16:10.598Z</time>
      </trkpt>
      <trkpt lat="42.53431" lon="18.37694">
        <ele>101.637789</ele>
        <time>2022-06-01T10:16:13.582Z</time>
      </trkpt>
      <trkpt lat="42.53429" lon="18.37681">
        <ele>101.696421</ele>
        <time>2022-06-01T10:16:16.590Z</time>
      </trkpt>
      <trkpt lat="42.53427" lon="18.37668">
        <ele>101.752743</ele>
        <time>2022-06-01T10:16:19.550Z</time>
      </trkpt>
      <trkpt lat="42.53425" lon="18.37656">
        <ele>101.805841</ele>
        <time>2022-06-01T10:16:22.597Z</time>
      </trkpt>
      <trkpt lat="42.53422" lon="18.3764">
        <ele>101.873112</ele>
        <time>2022-06-01T10:16:26.577Z</time>
      </trkpt>
      <trkpt lat="42.53421" lon="18.37625">
        <ele>101.938042</ele>
        <time>2022-06-01T10:16:30.581Z</time>
      </trkpt>
      <trkpt lat="42.53421" lon="18.37611">
        <ele>101.998516</ele>
        <time>2022-06-01T10:16:34.612Z</time>
      </trkpt>
      <trkpt lat="42.53421" lon="18.37597">
        <ele>102.056044</ele>
        <time>2022-06-01T10:16:38.589Z</time>
      </trkpt>
      <trkpt lat="42.53424" lon="18.37584">
        <ele>102.113799</ele>
        <time>2022-06-01T10:16:42.589Z</time>
      </trkpt>
      <trkpt lat="42.53424" lon="18.37572">
        <ele>102.167224</ele>
        <time>2022-06-01T10:16:46.618Z</time>
      </trkpt>
      <trkpt lat="42.53424" lon="18.37559">
        <ele>102.221921</ele>
        <time>2022-06-01T10:16:50.589Z</time>
      </trkpt>
      <trkpt lat="42.53422" lon="18.37544">
        <ele>102.286877</ele>
        <time>2022-06-01T10:16:55.611Z</time>
      </trkpt>
      <trkpt lat="42.5342" lon="18.37532">
        <ele>102.339438</ele>
        <time>2022-06-01T10:16:59.582Z</time>
      </trkpt>
      <trkpt lat="42.53419" lon="18.37517">
        <ele>102.402351</ele>
        <time>2022-06-01T10:17:04.632Z</time>
      </trkpt>
      <trkpt lat="42.53418" lon="18.37503">
        <ele>102.608278</ele>
        <time>2022-06-01T10:17:09.580Z</time>
      </trkpt>
      <trkpt lat="42.5342" lon="18.37491">
        <ele>102.833054</ele>
        <time>2022-06-01T10:17:13.587Z</time>
      </trkpt>
      <trkpt lat="42.53421" lon="18.37476">
        <ele>103.105107</ele>
        <time>2022-06-01T10:17:18.653Z</time>
      </trkpt>
      <trkpt lat="42.53423" lon="18.37464">
        <ele>103.332723</ele>
        <time>2022-06-01T10:17:22.580Z</time>
      </trkpt>
      <trkpt lat="42.53428" lon="18.3745">
        <ele>103.603014</ele>
        <time>2022-06-01T10:17:27.599Z</time>
      </trkpt>
      <trkpt lat="42.53432" lon="18.37438">
        <ele>103.868339</ele>
        <time>2022-06-01T10:17:32.567Z</time>
      </trkpt>
      <trkpt lat="42.53436" lon="18.37426">
        <ele>104.110606</ele>
        <time>2022-06-01T10:17:37.600Z</time>
      </trkpt>
      <trkpt lat="42.53441" lon="18.37415">
        <ele>104.345762</ele>
        <time>2022-06-01T10:17:42.594Z</time>
      </trkpt>
      <trkpt lat="42.53446" lon="18.37402">
        <ele>104.603409</ele>
        <time>2022-06-01T10:17:47.570Z</time>
      </trkpt>
      <trkpt lat="42.53448" lon="18.37391">
        <ele>104.82615</ele>
        <time>2022-06-01T10:17:52.568Z</time>
      </trkpt>
      <trkpt lat="42.53451" lon="18.37379">
        <ele>105.053094</ele>
        <time>2022-06-01T10:17:57.585Z</time>
      </trkpt>
      <trkpt lat="42.53452" lon="18.37365">
        <ele>105.304053</ele>
        <time>2022-06-01T10:18:02.584Z</time>
      </trkpt>
      <trkpt lat="42.53454" lon="18.37351">
        <ele>105.56129</ele>
        <time>2022-06-01T10:18:08.587Z</time>
      </trkpt>
      <trkpt lat="42.53455" lon="18.37338">
        <ele>105.81424</ele>
        <time>2022-06-01T10:18:13.577Z</time>
      </trkpt>
      <trkpt lat="42.53457" lon="18.37323">
        <ele>106.085751</ele>
        <time>2022-06-01T10:18:18.616Z</time>
      </trkpt>
      <trkpt lat="42.53458" lon="18.37311">
        <ele>106.312867</ele>
        <time>2022-06-01T10:18:22.587Z</time>
      </trkpt>
      <trkpt lat="42.53461" lon="18.37298">
        <ele>106.557672</ele>
        <time>2022-06-01T10:18:26.579Z</time>
      </trkpt>
      <trkpt lat="42.53463" lon="18.37284">
        <ele>106.831617</ele>
        <time>2022-06-01T10:18:31.587Z</time>
      </trkpt>
      <trkpt lat="42.53465" lon="18.37269">
        <ele>106.98981</ele>
        <time>2022-06-01T10:18:35.585Z</time>
      </trkpt>
      <trkpt lat="42.53467" lon="18.37257">
        <ele>107.090421</ele>
        <time>2022-06-01T10:18:38.571Z</time>
      </trkpt>
      <trkpt lat="42.53469" lon="18.37245">
        <ele>107.191347</ele>
        <time>2022-06-01T10:18:41.612Z</time>
      </trkpt>
      <trkpt lat="42.5347" lon="18.37232">
        <ele>107.292274</ele>
        <time>2022-06-01T10:18:44.594Z</time>
      </trkpt>
      <trkpt lat="42.53471" lon="18.37219">
        <ele>107.395748</ele>
        <time>2022-06-01T10:18:47.615Z</time>
      </trkpt>
      <trkpt lat="42.53472" lon="18.37206">
        <ele>107.496226</ele>
        <time>2022-06-01T10:18:50.608Z</time>
      </trkpt>
      <trkpt lat="42.53472" lon="18.3719">
        <ele>107.621975</ele>
        <time>2022-06-01T10:18:54.580Z</time>
      </trkpt>
      <trkpt lat="42.53472" lon="18.37176">
        <ele>107.734391</ele>
        <time>2022-06-01T10:18:58.598Z</time>
      </trkpt>
      <trkpt lat="42.53473" lon="18.37162">
        <ele>107.84719</ele>
        <time>2022-06-01T10:19:02.587Z</time>
      </trkpt>
      <trkpt lat="42.53474" lon="18.37149">
        <ele>107.953591</ele>
        <time>2022-06-01T10:19:06.580Z</time>
      </trkpt>
      <trkpt lat="42.53477" lon="18.37135">
        <ele>108.065733</ele>
        <time>2022-06-01T10:19:10.611Z</time>
      </trkpt>
      <trkpt lat="42.53479" lon="18.37121">
        <ele>108.178625</ele>
        <time>2022-06-01T10:19:14.601Z</time>
      </trkpt>
      <trkpt lat="42.53481" lon="18.37108">
        <ele>108.283641</ele>
        <time>2022-06-01T10:19:18.574Z</time>
      </trkpt>
      <trkpt lat="42.53484" lon="18.37094">
        <ele>108.394837</ele>
        <time>2022-06-01T10:19:23.575Z</time>
      </trkpt>
      <trkpt lat="42.53487" lon="18.37082">
        <ele>108.500972</ele>
        <time>2022-06-01T10:19:28.583Z</time>
      </trkpt>
      <trkpt lat="42.53491" lon="18.37069">
        <ele>108.609771</ele>
        <time>2022-06-01T10:19:33.567Z</time>
      </trkpt>
      <trkpt lat="42.53494" lon="18.37057">
        <ele>108.711429</ele>
        <time>2022-06-01T10:19:38.581Z</time>
      </trkpt>
      <trkpt lat="42.53497" lon="18.37043">
        <ele>108.82385</ele>
        <time>2022-06-01T10:19:43.593Z</time>
      </trkpt>
      <trkpt lat="42.535" lon="18.37031">
        <ele>108.973538</ele>
        <time>2022-06-01T10:19:47.599Z</time>
      </trkpt>
      <trkpt lat="42.53503" lon="18.37018">
        <ele>109.154214</ele>
        <time>2022-06-01T10:19:51.584Z</time>
      </trkpt>
      <trkpt lat="42.53507" lon="18.37003">
        <ele>109.351812</ele>
        <time>2022-06-01T10:19:55.624Z</time>
      </trkpt>
      <trkpt lat="42.5351" lon="18.36989">
        <ele>109.535647</ele>
        <time>2022-06-01T10:19:59.579Z</time>
      </trkpt>
      <trkpt lat="42.53514" lon="18.36975">
        <ele>109.731431</ele>
        <time>2022-06-01T10:20:03.596Z</time>
      </trkpt>
      <trkpt lat="42.53518" lon="18.36961">
        <ele>109.919433</ele>
        <time>2022-06-01T10:20:07.588Z</time>
      </trkpt>
      <trkpt lat="42.53522" lon="18.36946">
        <ele>110.123716</ele>
        <time>2022-06-01T10:20:11.597Z</time>
      </trkpt>
      <trkpt lat="42.53524" lon="18.3693">
        <ele>110.32766</ele>
        <time>2022-06-01T10:20:15.607Z</time>
      </trkpt>
      <trkpt lat="42.53527" lon="18.36916">
        <ele>110.518517</ele>
        <time>2022-06-01T10:20:19.583Z</time>
      </trkpt>
      <trkpt lat="42.53529" lon="18.36902">
        <ele>110.704054</ele>
        <time>2022-06-01T10:20:23.590Z</time>
      </trkpt>
      <trkpt lat="42.5353" lon="18.36888">
        <ele>110.874496</ele>
        <time>2022-06-01T10:20:27.588Z</time>
      </trkpt>
      <trkpt lat="42.53532" lon="18.36875">
        <ele>111.042985</ele>
        <time>2022-06-01T10:20:31.583Z</time>
      </trkpt>
      <trkpt lat="42.53534" lon="18.36863">
        <ele>111.20622</ele>
        <time>2022-06-01T10:20:35.577Z</time>
      </trkpt>
      <trkpt lat="42.53536" lon="18.36849">
        <ele>111.381972</ele>
        <time>2022-06-01T10:20:39.574Z</time>
      </trkpt>
      <trkpt lat="42.53537" lon="18.36835">
        <ele>111.564182</ele>
        <time>2022-06-01T10:20:43.582Z</time>
      </trkpt>
      <trkpt lat="42.53537" lon="18.36821">
        <ele>111.739089</ele>
        <time>2022-06-01T10:20:47.574Z</time>
      </trkpt>
      <trkpt lat="42.53536" lon="18.36807">
        <ele>111.929738</ele>
        <time>2022-06-01T10:20:52.627Z</time>
      </trkpt>
      <trkpt lat="42.53535" lon="18.36792">
        <ele>111.930273</ele>
        <time>2022-06-01T10:20:57.586Z</time>
      </trkpt>
      <trkpt lat="42.53533" lon="18.36779">
        <ele>111.903993</ele>
        <time>2022-06-01T10:21:01.579Z</time>
      </trkpt>
      <trkpt lat="42.53532" lon="18.36765">
        <ele>111.87681</ele>
        <time>2022-06-01T10:21:05.586Z</time>
      </trkpt>
      <trkpt lat="42.53532" lon="18.36751">
        <ele>111.850341</ele>
        <time>2022-06-01T10:21:09.587Z</time>
      </trkpt>
      <trkpt lat="42.53533" lon="18.36737">
        <ele>111.822207</ele>
        <time>2022-06-01T10:21:13.581Z</time>
      </trkpt>
      <trkpt lat="42.53535" lon="18.36723">
        <ele>111.793778</ele>
        <time>2022-06-01T10:21:17.590Z</time>
      </trkpt>
      <trkpt lat="42.5354" lon="18.36708">
        <ele>111.761901</ele>
        <time>2022-06-01T10:21:21.567Z</time>
      </trkpt>
      <trkpt lat="42.53545" lon="18.36696">
        <ele>111.735479</ele>
        <time>2022-06-01T10:21:24.591Z</time>
      </trkpt>
      <trkpt lat="42.53549" lon="18.36685">
        <ele>111.71025</ele>
        <time>2022-06-01T10:21:27.575Z</time>
      </trkpt>
      <trkpt lat="42.53554" lon="18.36672">
        <ele>111.682783</ele>
        <time>2022-06-01T10:21:30.589Z</time>
      </trkpt>
      <trkpt lat="42.53557" lon="18.36659">
        <ele>111.653996</ele>
        <time>2022-06-01T10:21:33.588Z</time>
      </trkpt>
      <trkpt lat="42.5356" lon="18.36645">
        <ele>111.626201</ele>
        <time>2022-06-01T10:21:36.592Z</time>
      </trkpt>
      <trkpt lat="42.53562" lon="18.36631">
        <ele>111.598597</ele>
        <time>2022-06-01T10:21:39.593Z</time>
      </trkpt>
      <trkpt lat="42.53565" lon="18.36617">
        <ele>111.570039</ele>
        <time>2022-06-01T10:21:42.588Z</time>
      </trkpt>
      <trkpt lat="42.53566" lon="18.36601">
        <ele>111.539487</ele>
        <time>2022-06-01T10:21:45.599Z</time>
      </trkpt>
      <trkpt lat="42.53567" lon="18.36585">
        <ele>111.507507</ele>
        <time>2022-06-01T10:21:48.579Z</time>
      </trkpt>
      <trkpt lat="42.53567" lon="18.36569">
        <ele>111.477224</ele>
        <time>2022-06-01T10:21:51.596Z</time>
      </trkpt>
      <trkpt lat="42.53567" lon="18.36553">
        <ele>111.484137</ele>
        <time>2022-06-01T10:21:54.623Z</time>
      </trkpt>
      <trkpt lat="42.53567" lon="18.36538">
        <ele>111.490789</ele>
        <time>2022-06-01T10:21:57.585Z</time>
      </trkpt>
      <trkpt lat="42.53567" lon="18.36524">
        <ele>111.49705</ele>
        <time>2022-06-01T10:22:00.589Z</time>
      </trkpt>
      <trkpt lat="42.53568" lon="18.36509">
        <ele>111.503587</ele>
        <time>2022-06-01T10:22:03.588Z</time>
      </trkpt>
      <trkpt lat="42.53568" lon="18.36493">
        <ele>111.510202</ele>
        <time>2022-06-01T10:22:06.572Z</time>
      </trkpt>
      <trkpt lat="42.53569" lon="18.36478">
        <ele>111.516903</ele>
        <time>2022-06-01T10:22:09.583Z</time>
      </trkpt>
      <trkpt lat="42.5357" lon="18.36463">
        <ele>111.523505</ele>
        <time>2022-06-01T10:22:12.576Z</time>
      </trkpt>
      <trkpt lat="42.53571" lon="18.36448">
        <ele>111.530207</ele>
        <time>2022-06-01T10:22:15.599Z</time>
      </trkpt>
      <trkpt lat="42.53572" lon="18.36433">
        <ele>111.536658</ele>
        <time>2022-06-01T10:22:18.600Z</time>
      </trkpt>
      <trkpt lat="42.53572" lon="18.36415">
        <ele>111.544353</ele>
        <time>2022-06-01T10:22:21.583Z</time>
      </trkpt>
      <trkpt lat="42.53572" lon="18.36402">
        <ele>111.549961</ele>
        <time>2022-06-01T10:22:23.626Z</time>
      </trkpt>
      <trkpt lat="42.53572" lon="18.36389">
        <ele>111.555526</ele>
        <time>2022-06-01T10:22:25.587Z</time>
      </trkpt>
      <trkpt lat="42.53572" lon="18.36371">
        <ele>111.563352</ele>
        <time>2022-06-01T10:22:28.580Z</time>
      </trkpt>
      <trkpt lat="42.53573" lon="18.36356">
        <ele>111.569955</ele>
        <time>2022-06-01T10:22:31.590Z</time>
      </trkpt>
      <trkpt lat="42.53577" lon="18.36344">
        <ele>111.575776</ele>
        <time>2022-06-01T10:22:34.593Z</time>
      </trkpt>
      <trkpt lat="42.53582" lon="18.36333">
        <ele>111.58153</ele>
        <time>2022-06-01T10:22:37.585Z</time>
      </trkpt>
      <trkpt lat="42.53587" lon="18.36322">
        <ele>111.700914</ele>
        <time>2022-06-01T10:22:40.586Z</time>
      </trkpt>
      <trkpt lat="42.53594" lon="18.36309">
        <ele>111.908994</ele>
        <time>2022-06-01T10:22:44.618Z</time>
      </trkpt>
      <trkpt lat="42.53599" lon="18.36299">
        <ele>112.079684</ele>
        <time>2022-06-01T10:22:47.583Z</time>
      </trkpt>
      <trkpt lat="42.53606" lon="18.36287">
        <ele>112.285137</ele>
        <time>2022-06-01T10:22:51.588Z</time>
      </trkpt>
      <trkpt lat="42.53611" lon="18.36274">
        <ele>112.487277</ele>
        <time>2022-06-01T10:22:55.579Z</time>
      </trkpt>
      <trkpt lat="42.53616" lon="18.36262">
        <ele>112.677581</ele>
        <time>2022-06-01T10:22:59.597Z</time>
      </trkpt>
      <trkpt lat="42.53621" lon="18.36249">
        <ele>112.865781</ele>
        <time>2022-06-01T10:23:03.600Z</time>
      </trkpt>
      <trkpt lat="42.53627" lon="18.36238">
        <ele>113.052013</ele>
        <time>2022-06-01T10:23:07.621Z</time>
      </trkpt>
      <trkpt lat="42.53631" lon="18.36226">
        <ele>113.239076</ele>
        <time>2022-06-01T10:23:11.589Z</time>
      </trkpt>
      <trkpt lat="42.53636" lon="18.36214">
        <ele>113.418459</ele>
        <time>2022-06-01T10:23:15.571Z</time>
      </trkpt>
      <trkpt lat="42.5364" lon="18.36201">
        <ele>113.598526</ele>
        <time>2022-06-01T10:23:19.587Z</time>
      </trkpt>
      <trkpt lat="42.53642" lon="18.3619">
        <ele>113.765096</ele>
        <time>2022-06-01T10:23:23.578Z</time>
      </trkpt>
      <trkpt lat="42.53646" lon="18.36176">
        <ele>113.960454</ele>
        <time>2022-06-01T10:23:27.596Z</time>
      </trkpt>
      <trkpt lat="42.53651" lon="18.36162">
        <ele>114.175066</ele>
        <time>2022-06-01T10:23:31.592Z</time>
      </trkpt>
      <trkpt lat="42.53655" lon="18.3615">
        <ele>114.34999</ele>
        <time>2022-06-01T10:23:34.586Z</time>
      </trkpt>
      <trkpt lat="42.53658" lon="18.36138">
        <ele>114.523664</ele>
        <time>2022-06-01T10:23:37.586Z</time>
      </trkpt>
      <trkpt lat="42.53662" lon="18.36125">
        <ele>114.711227</ele>
        <time>2022-06-01T10:23:40.587Z</time>
      </trkpt>
      <trkpt lat="42.53666" lon="18.36111">
        <ele>114.856191</ele>
        <time>2022-06-01T10:23:43.588Z</time>
      </trkpt>
      <trkpt lat="42.53668" lon="18.36097">
        <ele>114.701098</ele>
        <time>2022-06-01T10:23:46.626Z</time>
      </trkpt>
      <trkpt lat="42.53669" lon="18.36084">
        <ele>114.555564</ele>
        <time>2022-06-01T10:23:49.571Z</time>
      </trkpt>
      <trkpt lat="42.53672" lon="18.36072">
        <ele>114.420838</ele>
        <time>2022-06-01T10:23:52.580Z</time>
      </trkpt>
      <trkpt lat="42.53674" lon="18.3606">
        <ele>114.288653</ele>
        <time>2022-06-01T10:23:55.592Z</time>
      </trkpt>
      <trkpt lat="42.53677" lon="18.36048">
        <ele>114.15705</ele>
        <time>2022-06-01T10:23:58.591Z</time>
      </trkpt>
      <trkpt lat="42.53681" lon="18.36037">
        <ele>114.02509</ele>
        <time>2022-06-01T10:24:01.631Z</time>
      </trkpt>
      <trkpt lat="42.53688" lon="18.36025">
        <ele>113.859295</ele>
        <time>2022-06-01T10:24:04.564Z</time>
      </trkpt>
      <trkpt lat="42.53694" lon="18.36011">
        <ele>113.687129</ele>
        <time>2022-06-01T10:24:07.638Z</time>
      </trkpt>
      <trkpt lat="42.53699" lon="18.35997">
        <ele>113.512621</ele>
        <time>2022-06-01T10:24:10.593Z</time>
      </trkpt>
      <trkpt lat="42.53703" lon="18.35984">
        <ele>113.359831</ele>
        <time>2022-06-01T10:24:13.586Z</time>
      </trkpt>
      <trkpt lat="42.53706" lon="18.35972">
        <ele>113.220697</ele>
        <time>2022-06-01T10:24:16.608Z</time>
      </trkpt>
      <trkpt lat="42.53709" lon="18.35955">
        <ele>113.035312</ele>
        <time>2022-06-01T10:24:19.595Z</time>
      </trkpt>
      <trkpt lat="42.53712" lon="18.3594">
        <ele>112.865082</ele>
        <time>2022-06-01T10:24:22.587Z</time>
      </trkpt>
      <trkpt lat="42.53717" lon="18.35925">
        <ele>112.693463</ele>
        <time>2022-06-01T10:24:25.604Z</time>
      </trkpt>
      <trkpt lat="42.53722" lon="18.3591">
        <ele>112.518906</ele>
        <time>2022-06-01T10:24:28.589Z</time>
      </trkpt>
      <trkpt lat="42.53727" lon="18.35895">
        <ele>112.340614</ele>
        <time>2022-06-01T10:24:31.598Z</time>
      </trkpt>
      <trkpt lat="42.53731" lon="18.35879">
        <ele>112.197687</ele>
        <time>2022-06-01T10:24:34.588Z</time>
      </trkpt>
      <trkpt lat="42.53736" lon="18.35865">
        <ele>112.106545</ele>
        <time>2022-06-01T10:24:37.580Z</time>
      </trkpt>
      <trkpt lat="42.5374" lon="18.3585">
        <ele>112.011214</ele>
        <time>2022-06-01T10:24:40.575Z</time>
      </trkpt>
      <trkpt lat="42.53745" lon="18.35835">
        <ele>111.914001</ele>
        <time>2022-06-01T10:24:43.601Z</time>
      </trkpt>
      <trkpt lat="42.53749" lon="18.3582">
        <ele>111.823188</ele>
        <time>2022-06-01T10:24:46.627Z</time>
      </trkpt>
      <trkpt lat="42.53753" lon="18.35808">
        <ele>111.74385</ele>
        <time>2022-06-01T10:24:49.575Z</time>
      </trkpt>
      <trkpt lat="42.53757" lon="18.35793">
        <ele>111.649832</ele>
        <time>2022-06-01T10:24:53.594Z</time>
      </trkpt>
      <trkpt lat="42.53761" lon="18.35779">
        <ele>111.55736</ele>
        <time>2022-06-01T10:24:57.586Z</time>
      </trkpt>
      <trkpt lat="42.53764" lon="18.35766">
        <ele>111.480344</ele>
        <time>2022-06-01T10:25:00.592Z</time>
      </trkpt>
      <trkpt lat="42.53768" lon="18.35754">
        <ele>111.403633</ele>
        <time>2022-06-01T10:25:03.572Z</time>
      </trkpt>
      <trkpt lat="42.53771" lon="18.35741">
        <ele>111.32362</ele>
        <time>2022-06-01T10:25:06.575Z</time>
      </trkpt>
      <trkpt lat="42.53776" lon="18.35728">
        <ele>111.239397</ele>
        <time>2022-06-01T10:25:09.574Z</time>
      </trkpt>
      <trkpt lat="42.5378" lon="18.35714">
        <ele>111.148802</ele>
        <time>2022-06-01T10:25:12.576Z</time>
      </trkpt>
      <trkpt lat="42.53783" lon="18.357">
        <ele>111.062679</ele>
        <time>2022-06-01T10:25:15.589Z</time>
      </trkpt>
      <trkpt lat="42.53787" lon="18.35687">
        <ele>110.976011</ele>
        <time>2022-06-01T10:25:18.588Z</time>
      </trkpt>
      <trkpt lat="42.5379" lon="18.35674">
        <ele>110.895624</ele>
        <time>2022-06-01T10:25:21.584Z</time>
      </trkpt>
      <trkpt lat="42.53792" lon="18.3566">
        <ele>110.811152</ele>
        <time>2022-06-01T10:25:24.582Z</time>
      </trkpt>
      <trkpt lat="42.53796" lon="18.35647">
        <ele>110.745033</ele>
        <time>2022-06-01T10:25:27.587Z</time>
      </trkpt>
      <trkpt lat="42.53799" lon="18.35634">
        <ele>110.679329</ele>
        <time>2022-06-01T10:25:30.576Z</time>
      </trkpt>
      <trkpt lat="42.53803" lon="18.35619">
        <ele>110.605286</ele>
        <time>2022-06-01T10:25:33.587Z</time>
      </trkpt>
      <trkpt lat="42.53807" lon="18.35604">
        <ele>110.528763</ele>
        <time>2022-06-01T10:25:36.584Z</time>
      </trkpt>
      <trkpt lat="42.5381" lon="18.35588">
        <ele>110.445211</ele>
        <time>2022-06-01T10:25:39.582Z</time>
      </trkpt>
      <trkpt lat="42.53812" lon="18.35575">
        <ele>110.382493</ele>
        <time>2022-06-01T10:25:41.592Z</time>
      </trkpt>
      <trkpt lat="42.53814" lon="18.35561">
        <ele>110.315984</ele>
        <time>2022-06-01T10:25:43.582Z</time>
      </trkpt>
      <trkpt lat="42.53817" lon="18.35547">
        <ele>110.246997</ele>
        <time>2022-06-01T10:25:45.591Z</time>
      </trkpt>
      <trkpt lat="42.53819" lon="18.35532">
        <ele>110.17309</ele>
        <time>2022-06-01T10:25:47.599Z</time>
      </trkpt>
      <trkpt lat="42.53822" lon="18.35517">
        <ele>110.099014</ele>
        <time>2022-06-01T10:25:49.577Z</time>
      </trkpt>
      <trkpt lat="42.53825" lon="18.35502">
        <ele>110.023715</ele>
        <time>2022-06-01T10:25:51.582Z</time>
      </trkpt>
      <trkpt lat="42.53828" lon="18.35488">
        <ele>109.952872</ele>
        <time>2022-06-01T10:25:53.590Z</time>
      </trkpt>
      <trkpt lat="42.53831" lon="18.35474">
        <ele>109.885059</ele>
        <time>2022-06-01T10:25:55.578Z</time>
      </trkpt>
      <trkpt lat="42.53834" lon="18.35463">
        <ele>109.826064</ele>
        <time>2022-06-01T10:25:57.568Z</time>
      </trkpt>
      <trkpt lat="42.53838" lon="18.35446">
        <ele>109.740134</ele>
        <time>2022-06-01T10:26:00.592Z</time>
      </trkpt>
      <trkpt lat="42.53844" lon="18.3543">
        <ele>109.657345</ele>
        <time>2022-06-01T10:26:03.579Z</time>
      </trkpt>
      <trkpt lat="42.53848" lon="18.35419">
        <ele>109.601505</ele>
        <time>2022-06-01T10:26:05.610Z</time>
      </trkpt>
      <trkpt lat="42.53855" lon="18.35404">
        <ele>109.523751</ele>
        <time>2022-06-01T10:26:08.600Z</time>
      </trkpt>
      <trkpt lat="42.53861" lon="18.35389">
        <ele>109.448745</ele>
        <time>2022-06-01T10:26:11.587Z</time>
      </trkpt>
      <trkpt lat="42.53863" lon="18.35377">
        <ele>109.394683</ele>
        <time>2022-06-01T10:26:13.595Z</time>
      </trkpt>
      <trkpt lat="42.53865" lon="18.35365">
        <ele>109.338013</ele>
        <time>2022-06-01T10:26:15.589Z</time>
      </trkpt>
      <trkpt lat="42.53867" lon="18.35352">
        <ele>109.281773</ele>
        <time>2022-06-01T10:26:17.591Z</time>
      </trkpt>
      <trkpt lat="42.53868" lon="18.35339">
        <ele>109.226242</ele>
        <time>2022-06-01T10:26:19.590Z</time>
      </trkpt>
      <trkpt lat="42.53868" lon="18.35327">
        <ele>109.171854</ele>
        <time>2022-06-01T10:26:21.573Z</time>
      </trkpt>
      <trkpt lat="42.53868" lon="18.3531">
        <ele>109.098229</ele>
        <time>2022-06-01T10:26:24.598Z</time>
      </trkpt>
      <trkpt lat="42.53869" lon="18.35295">
        <ele>109.030307</ele>
        <time>2022-06-01T10:26:27.605Z</time>
      </trkpt>
      <trkpt lat="42.53872" lon="18.3528">
        <ele>108.964331</ele>
        <time>2022-06-01T10:26:30.597Z</time>
      </trkpt>
      <trkpt lat="42.53874" lon="18.35265">
        <ele>108.895232</ele>
        <time>2022-06-01T10:26:33.600Z</time>
      </trkpt>
      <trkpt lat="42.53879" lon="18.35249">
        <ele>108.82163</ele>
        <time>2022-06-01T10:26:36.590Z</time>
      </trkpt>
      <trkpt lat="42.53882" lon="18.35233">
        <ele>108.747968</ele>
        <time>2022-06-01T10:26:39.620Z</time>
      </trkpt>
      <trkpt lat="42.53887" lon="18.35216">
        <ele>108.668795</ele>
        <time>2022-06-01T10:26:42.586Z</time>
      </trkpt>
      <trkpt lat="42.53892" lon="18.35199">
        <ele>108.587577</ele>
        <time>2022-06-01T10:26:45.567Z</time>
      </trkpt>
      <trkpt lat="42.53895" lon="18.35187">
        <ele>108.526513</ele>
        <time>2022-06-01T10:26:47.584Z</time>
      </trkpt>
      <trkpt lat="42.53898" lon="18.35174">
        <ele>108.459607</ele>
        <time>2022-06-01T10:26:49.590Z</time>
      </trkpt>
      <trkpt lat="42.53902" lon="18.35161">
        <ele>108.391297</ele>
        <time>2022-06-01T10:26:51.592Z</time>
      </trkpt>
      <trkpt lat="42.53905" lon="18.35148">
        <ele>108.321787</ele>
        <time>2022-06-01T10:26:53.604Z</time>
      </trkpt>
      <trkpt lat="42.53909" lon="18.35136">
        <ele>108.253205</ele>
        <time>2022-06-01T10:26:55.588Z</time>
      </trkpt>
      <trkpt lat="42.53913" lon="18.35123">
        <ele>108.185129</ele>
        <time>2022-06-01T10:26:57.590Z</time>
      </trkpt>
      <trkpt lat="42.53916" lon="18.35109">
        <ele>108.113964</ele>
        <time>2022-06-01T10:26:59.595Z</time>
      </trkpt>
      <trkpt lat="42.5392" lon="18.35096">
        <ele>108.043524</ele>
        <time>2022-06-01T10:27:01.593Z</time>
      </trkpt>
      <trkpt lat="42.53925" lon="18.35084">
        <ele>107.972555</ele>
        <time>2022-06-01T10:27:03.608Z</time>
      </trkpt>
      <trkpt lat="42.53929" lon="18.3507">
        <ele>107.89824</ele>
        <time>2022-06-01T10:27:05.579Z</time>
      </trkpt>
      <trkpt lat="42.53933" lon="18.35057">
        <ele>107.82547</ele>
        <time>2022-06-01T10:27:07.597Z</time>
      </trkpt>
      <trkpt lat="42.53938" lon="18.35044">
        <ele>107.754347</ele>
        <time>2022-06-01T10:27:09.588Z</time>
      </trkpt>
      <trkpt lat="42.53942" lon="18.35031">
        <ele>107.680837</ele>
        <time>2022-06-01T10:27:11.592Z</time>
      </trkpt>
      <trkpt lat="42.53946" lon="18.35018">
        <ele>107.611821</ele>
        <time>2022-06-01T10:27:13.580Z</time>
      </trkpt>
      <trkpt lat="42.53949" lon="18.35004">
        <ele>107.542229</ele>
        <time>2022-06-01T10:27:15.592Z</time>
      </trkpt>
      <trkpt lat="42.53952" lon="18.34992">
        <ele>107.476383</ele>
        <time>2022-06-01T10:27:17.591Z</time>
      </trkpt>
      <trkpt lat="42.53955" lon="18.34979">
        <ele>107.411972</ele>
        <time>2022-06-01T10:27:19.596Z</time>
      </trkpt>
      <trkpt lat="42.53958" lon="18.34967">
        <ele>107.34831</ele>
        <time>2022-06-01T10:27:21.596Z</time>
      </trkpt>
      <trkpt lat="42.53961" lon="18.34955">
        <ele>107.277053</ele>
        <time>2022-06-01T10:27:23.582Z</time>
      </trkpt>
      <trkpt lat="42.53964" lon="18.34943">
        <ele>107.206897</ele>
        <time>2022-06-01T10:27:25.563Z</time>
      </trkpt>
      <trkpt lat="42.53966" lon="18.34931">
        <ele>107.136209</ele>
        <time>2022-06-01T10:27:27.592Z</time>
      </trkpt>
      <trkpt lat="42.53969" lon="18.34919">
        <ele>107.067408</ele>
        <time>2022-06-01T10:27:29.593Z</time>
      </trkpt>
      <trkpt lat="42.53972" lon="18.34908">
        <ele>106.999135</ele>
        <time>2022-06-01T10:27:31.582Z</time>
      </trkpt>
      <trkpt lat="42.53977" lon="18.34891">
        <ele>106.89688</ele>
        <time>2022-06-01T10:27:34.576Z</time>
      </trkpt>
      <trkpt lat="42.5398" lon="18.34879">
        <ele>106.828886</ele>
        <time>2022-06-01T10:27:36.627Z</time>
      </trkpt>
      <trkpt lat="42.53984" lon="18.34863">
        <ele>106.731865</ele>
        <time>2022-06-01T10:27:39.576Z</time>
      </trkpt>
      <trkpt lat="42.53988" lon="18.34847">
        <ele>106.636673</ele>
        <time>2022-06-01T10:27:42.584Z</time>
      </trkpt>
      <trkpt lat="42.53992" lon="18.3483">
        <ele>106.539478</ele>
        <time>2022-06-01T10:27:45.578Z</time>
      </trkpt>
      <trkpt lat="42.53996" lon="18.34813">
        <ele>106.439579</ele>
        <time>2022-06-01T10:27:48.603Z</time>
      </trkpt>
      <trkpt lat="42.54001" lon="18.34797">
        <ele>106.344915</ele>
        <time>2022-06-01T10:27:51.570Z</time>
      </trkpt>
      <trkpt lat="42.54006" lon="18.34782">
        <ele>106.25091</ele>
        <time>2022-06-01T10:27:54.598Z</time>
      </trkpt>
      <trkpt lat="42.54012" lon="18.34765">
        <ele>106.148857</ele>
        <time>2022-06-01T10:27:57.589Z</time>
      </trkpt>
      <trkpt lat="42.54018" lon="18.34749">
        <ele>106.046761</ele>
        <time>2022-06-01T10:28:00.584Z</time>
      </trkpt>
      <trkpt lat="42.54023" lon="18.34737">
        <ele>105.971346</ele>
        <time>2022-06-01T10:28:02.584Z</time>
      </trkpt>
      <trkpt lat="42.54029" lon="18.34725">
        <ele>105.896522</ele>
        <time>2022-06-01T10:28:04.608Z</time>
      </trkpt>
      <trkpt lat="42.54036" lon="18.34713">
        <ele>105.81332</ele>
        <time>2022-06-01T10:28:06.566Z</time>
      </trkpt>
      <trkpt lat="42.54046" lon="18.34701">
        <ele>105.720368</ele>
        <time>2022-06-01T10:28:08.602Z</time>
      </trkpt>
      <trkpt lat="42.54055" lon="18.34689">
        <ele>105.629888</ele>
        <time>2022-06-01T10:28:10.608Z</time>
      </trkpt>
      <trkpt lat="42.54063" lon="18.34677">
        <ele>105.545621</ele>
        <time>2022-06-01T10:28:12.587Z</time>
      </trkpt>
      <trkpt lat="42.54069" lon="18.34664">
        <ele>105.467149</ele>
        <time>2022-06-01T10:28:14.581Z</time>
      </trkpt>
      <trkpt lat="42.54073" lon="18.34652">
        <ele>105.395079</ele>
        <time>2022-06-01T10:28:16.586Z</time>
      </trkpt>
      <trkpt lat="42.54076" lon="18.3464">
        <ele>105.329877</ele>
        <time>2022-06-01T10:28:18.591Z</time>
      </trkpt>
      <trkpt lat="42.5408" lon="18.34624">
        <ele>105.238421</ele>
        <time>2022-06-01T10:28:21.629Z</time>
      </trkpt>
      <trkpt lat="42.54084" lon="18.34608">
        <ele>105.155031</ele>
        <time>2022-06-01T10:28:24.569Z</time>
      </trkpt>
      <trkpt lat="42.54087" lon="18.34592">
        <ele>105.067832</ele>
        <time>2022-06-01T10:28:27.576Z</time>
      </trkpt>
      <trkpt lat="42.54089" lon="18.34574">
        <ele>104.97256</ele>
        <time>2022-06-01T10:28:30.587Z</time>
      </trkpt>
      <trkpt lat="42.54091" lon="18.34562">
        <ele>104.906445</ele>
        <time>2022-06-01T10:28:32.587Z</time>
      </trkpt>
      <trkpt lat="42.54095" lon="18.3455">
        <ele>104.83618</ele>
        <time>2022-06-01T10:28:34.581Z</time>
      </trkpt>
      <trkpt lat="42.54098" lon="18.34538">
        <ele>104.769833</ele>
        <time>2022-06-01T10:28:36.568Z</time>
      </trkpt>
      <trkpt lat="42.54103" lon="18.34526">
        <ele>104.7065</ele>
        <time>2022-06-01T10:28:38.581Z</time>
      </trkpt>
      <trkpt lat="42.54108" lon="18.34515">
        <ele>104.716591</ele>
        <time>2022-06-01T10:28:40.612Z</time>
      </trkpt>
      <trkpt lat="42.54114" lon="18.34503">
        <ele>104.727019</ele>
        <time>2022-06-01T10:28:42.588Z</time>
      </trkpt>
      <trkpt lat="42.5412" lon="18.3449">
        <ele>104.73797</ele>
        <time>2022-06-01T10:28:44.600Z</time>
      </trkpt>
      <trkpt lat="42.54126" lon="18.34478">
        <ele>104.748404</ele>
        <time>2022-06-01T10:28:46.614Z</time>
      </trkpt>
      <trkpt lat="42.54132" lon="18.34466">
        <ele>104.758723</ele>
        <time>2022-06-01T10:28:48.631Z</time>
      </trkpt>
      <trkpt lat="42.54138" lon="18.34454">
        <ele>104.769272</ele>
        <time>2022-06-01T10:28:50.576Z</time>
      </trkpt>
      <trkpt lat="42.54144" lon="18.34442">
        <ele>104.77996</ele>
        <time>2022-06-01T10:28:52.589Z</time>
      </trkpt>
      <trkpt lat="42.54149" lon="18.34429">
        <ele>104.791021</ele>
        <time>2022-06-01T10:28:54.586Z</time>
      </trkpt>
      <trkpt lat="42.54155" lon="18.34416">
        <ele>104.801934</ele>
        <time>2022-06-01T10:28:56.586Z</time>
      </trkpt>
      <trkpt lat="42.5416" lon="18.34403">
        <ele>104.812833</ele>
        <time>2022-06-01T10:28:58.576Z</time>
      </trkpt>
      <trkpt lat="42.54165" lon="18.34391">
        <ele>104.823017</ele>
        <time>2022-06-01T10:29:00.590Z</time>
      </trkpt>
      <trkpt lat="42.54171" lon="18.3438">
        <ele>104.832519</ele>
        <time>2022-06-01T10:29:02.571Z</time>
      </trkpt>
      <trkpt lat="42.54176" lon="18.34369">
        <ele>104.841663</ele>
        <time>2022-06-01T10:29:04.598Z</time>
      </trkpt>
      <trkpt lat="42.54182" lon="18.34354">
        <ele>104.854252</ele>
        <time>2022-06-01T10:29:07.591Z</time>
      </trkpt>
      <trkpt lat="42.54188" lon="18.34339">
        <ele>104.866995</ele>
        <time>2022-06-01T10:29:10.580Z</time>
      </trkpt>
      <trkpt lat="42.54196" lon="18.34324">
        <ele>104.879774</ele>
        <time>2022-06-01T10:29:13.580Z</time>
      </trkpt>
      <trkpt lat="42.54203" lon="18.3431">
        <ele>104.877393</ele>
        <time>2022-06-01T10:29:16.627Z</time>
      </trkpt>
      <trkpt lat="42.54209" lon="18.34295">
        <ele>104.868899</ele>
        <time>2022-06-01T10:29:19.593Z</time>
      </trkpt>
      <trkpt lat="42.54215" lon="18.34281">
        <ele>104.861077</ele>
        <time>2022-06-01T10:29:22.596Z</time>
      </trkpt>
      <trkpt lat="42.54222" lon="18.34268">
        <ele>104.853202</ele>
        <time>2022-06-01T10:29:25.691Z</time>
      </trkpt>
      <trkpt lat="42.54228" lon="18.34254">
        <ele>104.845133</ele>
        <time>2022-06-01T10:29:28.619Z</time>
      </trkpt>
      <trkpt lat="42.54234" lon="18.3424">
        <ele>104.837327</ele>
        <time>2022-06-01T10:29:31.561Z</time>
      </trkpt>
      <trkpt lat="42.54239" lon="18.34227">
        <ele>104.829834</ele>
        <time>2022-06-01T10:29:34.569Z</time>
      </trkpt>
      <trkpt lat="42.54245" lon="18.34214">
        <ele>104.822403</ele>
        <time>2022-06-01T10:29:37.722Z</time>
      </trkpt>
      <trkpt lat="42.54251" lon="18.34201">
        <ele>104.814766</ele>
        <time>2022-06-01T10:29:40.598Z</time>
      </trkpt>
      <trkpt lat="42.54257" lon="18.34189">
        <ele>104.807575</ele>
        <time>2022-06-01T10:29:43.618Z</time>
      </trkpt>
      <trkpt lat="42.54264" lon="18.3418">
        <ele>104.800945</ele>
        <time>2022-06-01T10:29:46.577Z</time>
      </trkpt>
      <trkpt lat="42.54272" lon="18.34172">
        <ele>104.794626</ele>
        <time>2022-06-01T10:29:49.595Z</time>
      </trkpt>
      <trkpt lat="42.54282" lon="18.34167">
        <ele>104.787239</ele>
        <time>2022-06-01T10:29:52.582Z</time>
      </trkpt>
      <trkpt lat="42.54292" lon="18.34164">
        <ele>104.780476</ele>
        <time>2022-06-01T10:29:55.593Z</time>
      </trkpt>
      <trkpt lat="42.54301" lon="18.34162">
        <ele>104.774096</ele>
        <time>2022-06-01T10:29:58.574Z</time>
      </trkpt>
      <trkpt lat="42.54311" lon="18.3416">
        <ele>104.767818</ele>
        <time>2022-06-01T10:30:01.588Z</time>
      </trkpt>
      <trkpt lat="42.5432" lon="18.34159">
        <ele>104.81562</ele>
        <time>2022-06-01T10:30:04.581Z</time>
      </trkpt>
      <trkpt lat="42.54331" lon="18.34157">
        <ele>105.112139</ele>
        <time>2022-06-01T10:30:08.574Z</time>
      </trkpt>
      <trkpt lat="42.54342" lon="18.34155">
        <ele>105.393579</ele>
        <time>2022-06-01T10:30:12.618Z</time>
      </trkpt>
      <trkpt lat="42.54352" lon="18.34153">
        <ele>105.661982</ele>
        <time>2022-06-01T10:30:16.606Z</time>
      </trkpt>
      <trkpt lat="42.54363" lon="18.3415">
        <ele>105.947801</ele>
        <time>2022-06-01T10:30:20.572Z</time>
      </trkpt>
      <trkpt lat="42.54374" lon="18.34148">
        <ele>106.223867</ele>
        <time>2022-06-01T10:30:24.596Z</time>
      </trkpt>
      <trkpt lat="42.54384" lon="18.34147">
        <ele>106.490894</ele>
        <time>2022-06-01T10:30:28.571Z</time>
      </trkpt>
      <trkpt lat="42.54394" lon="18.34145">
        <ele>106.747289</ele>
        <time>2022-06-01T10:30:32.579Z</time>
      </trkpt>
      <trkpt lat="42.54404" lon="18.34144">
        <ele>106.99892</ele>
        <time>2022-06-01T10:30:36.589Z</time>
      </trkpt>
      <trkpt lat="42.54413" lon="18.34144">
        <ele>107.249147</ele>
        <time>2022-06-01T10:30:40.647Z</time>
      </trkpt>
      <trkpt lat="42.54423" lon="18.34144">
        <ele>107.504555</ele>
        <time>2022-06-01T10:30:44.585Z</time>
      </trkpt>
      <trkpt lat="42.54434" lon="18.34143">
        <ele>107.788825</ele>
        <time>2022-06-01T10:30:49.591Z</time>
      </trkpt>
      <trkpt lat="42.54444" lon="18.34142">
        <ele>108.039629</ele>
        <time>2022-06-01T10:30:54.596Z</time>
      </trkpt>
      <trkpt lat="42.54454" lon="18.34141">
        <ele>108.287859</ele>
        <time>2022-06-01T10:30:59.583Z</time>
      </trkpt>
      <trkpt lat="42.54463" lon="18.34141">
        <ele>108.540723</ele>
        <time>2022-06-01T10:31:04.581Z</time>
      </trkpt>
      <trkpt lat="42.54473" lon="18.3414">
        <ele>108.783948</ele>
        <time>2022-06-01T10:31:09.627Z</time>
      </trkpt>
      <trkpt lat="42.54481" lon="18.34136">
        <ele>109.019302</ele>
        <time>2022-06-01T10:31:14.581Z</time>
      </trkpt>
      <trkpt lat="42.5449" lon="18.34131">
        <ele>109.263015</ele>
        <time>2022-06-01T10:31:19.579Z</time>
      </trkpt>
      <trkpt lat="42.54499" lon="18.34125">
        <ele>109.596497</ele>
        <time>2022-06-01T10:31:24.581Z</time>
      </trkpt>
      <trkpt lat="42.54507" lon="18.34118">
        <ele>110.000857</ele>
        <time>2022-06-01T10:31:28.591Z</time>
      </trkpt>
      <trkpt lat="42.54516" lon="18.3411">
        <ele>110.473493</ele>
        <time>2022-06-01T10:31:32.594Z</time>
      </trkpt>
      <trkpt lat="42.54524" lon="18.34102">
        <ele>110.89567</ele>
        <time>2022-06-01T10:31:36.582Z</time>
      </trkpt>
      <trkpt lat="42.54532" lon="18.34094">
        <ele>111.307473</ele>
        <time>2022-06-01T10:31:40.595Z</time>
      </trkpt>
      <trkpt lat="42.54539" lon="18.34087">
        <ele>111.703722</ele>
        <time>2022-06-01T10:31:44.591Z</time>
      </trkpt>
      <trkpt lat="42.54547" lon="18.3408">
        <ele>112.099672</ele>
        <time>2022-06-01T10:31:48.581Z</time>
      </trkpt>
      <trkpt lat="42.54555" lon="18.34074">
        <ele>112.508273</ele>
        <time>2022-06-01T10:31:52.582Z</time>
      </trkpt>
      <trkpt lat="42.54565" lon="18.34069">
        <ele>112.928492</ele>
        <time>2022-06-01T10:31:57.587Z</time>
      </trkpt>
      <trkpt lat="42.54575" lon="18.34071">
        <ele>113.371154</ele>
        <time>2022-06-01T10:32:03.578Z</time>
      </trkpt>
      <trkpt lat="42.54584" lon="18.3408">
        <ele>113.855386</ele>
        <time>2022-06-01T10:32:08.580Z</time>
      </trkpt>
      <trkpt lat="42.54591" lon="18.34087">
        <ele>114.248258</ele>
        <time>2022-06-01T10:32:12.578Z</time>
      </trkpt>
      <trkpt lat="42.54598" lon="18.34095">
        <ele>114.636025</ele>
        <time>2022-06-01T10:32:16.602Z</time>
      </trkpt>
      <trkpt lat="42.54606" lon="18.34104">
        <ele>115.06831</ele>
        <time>2022-06-01T10:32:21.579Z</time>
      </trkpt>
      <trkpt lat="42.54614" lon="18.34113">
        <ele>115.505705</ele>
        <time>2022-06-01T10:32:26.574Z</time>
      </trkpt>
      <trkpt lat="42.54621" lon="18.34121">
        <ele>115.89188</ele>
        <time>2022-06-01T10:32:31.574Z</time>
      </trkpt>
      <trkpt lat="42.54628" lon="18.34129">
        <ele>116.312685</ele>
        <time>2022-06-01T10:32:37.589Z</time>
      </trkpt>
      <trkpt lat="42.54634" lon="18.34138">
        <ele>116.703515</ele>
        <time>2022-06-01T10:32:44.588Z</time>
      </trkpt>
      <trkpt lat="42.54642" lon="18.34148">
        <ele>117.151645</ele>
        <time>2022-06-01T10:32:50.631Z</time>
      </trkpt>
      <trkpt lat="42.54649" lon="18.34156">
        <ele>117.67049</ele>
        <time>2022-06-01T10:32:56.633Z</time>
      </trkpt>
      <trkpt lat="42.54656" lon="18.34164">
        <ele>118.209858</ele>
        <time>2022-06-01T10:33:02.581Z</time>
      </trkpt>
      <trkpt lat="42.54664" lon="18.34172">
        <ele>118.7548</ele>
        <time>2022-06-01T10:33:08.577Z</time>
      </trkpt>
      <trkpt lat="42.54671" lon="18.34181">
        <ele>119.280585</ele>
        <time>2022-06-01T10:33:14.596Z</time>
      </trkpt>
      <trkpt lat="42.54679" lon="18.3419">
        <ele>119.875991</ele>
        <time>2022-06-01T10:33:21.583Z</time>
      </trkpt>
      <trkpt lat="42.54688" lon="18.34197">
        <ele>120.449956</ele>
        <time>2022-06-01T10:33:28.605Z</time>
      </trkpt>
      <trkpt lat="42.54695" lon="18.34205">
        <ele>120.994897</ele>
        <time>2022-06-01T10:33:35.629Z</time>
      </trkpt>
      <trkpt lat="42.54703" lon="18.34214">
        <ele>121.581259</ele>
        <time>2022-06-01T10:33:42.586Z</time>
      </trkpt>
      <trkpt lat="42.54711" lon="18.34222">
        <ele>122.149121</ele>
        <time>2022-06-01T10:33:49.596Z</time>
      </trkpt>
      <trkpt lat="42.5472" lon="18.3423">
        <ele>122.727854</ele>
        <time>2022-06-01T10:33:57.592Z</time>
      </trkpt>
      <trkpt lat="42.54729" lon="18.34236">
        <ele>123.267586</ele>
        <time>2022-06-01T10:34:04.591Z</time>
      </trkpt>
      <trkpt lat="42.54739" lon="18.34241">
        <ele>123.864758</ele>
        <time>2022-06-01T10:34:11.582Z</time>
      </trkpt>
      <trkpt lat="42.54748" lon="18.34244">
        <ele>124.431873</ele>
        <time>2022-06-01T10:34:18.580Z</time>
      </trkpt>
      <trkpt lat="42.54758" lon="18.34247">
        <ele>125.013225</ele>
        <time>2022-06-01T10:34:25.560Z</time>
      </trkpt>
      <trkpt lat="42.54767" lon="18.34249">
        <ele>125.528949</ele>
        <time>2022-06-01T10:34:31.559Z</time>
      </trkpt>
      <trkpt lat="42.54776" lon="18.34249">
        <ele>126.042165</ele>
        <time>2022-06-01T10:34:38.558Z</time>
      </trkpt>
      <trkpt lat="42.54786" lon="18.34248">
        <ele>126.603947</ele>
        <time>2022-06-01T10:34:46.549Z</time>
      </trkpt>
      <trkpt lat="42.54796" lon="18.34245">
        <ele>127.133911</ele>
        <time>2022-06-01T10:34:53.558Z</time>
      </trkpt>
      <trkpt lat="42.54805" lon="18.34243">
        <ele>127.435621</ele>
        <time>2022-06-01T10:35:00.551Z</time>
      </trkpt>
      <trkpt lat="42.54814" lon="18.34238">
        <ele>127.653508</ele>
        <time>2022-06-01T10:35:09.597Z</time>
      </trkpt>
      <trkpt lat="42.54823" lon="18.34232">
        <ele>127.89419</ele>
        <time>2022-06-01T10:35:16.575Z</time>
      </trkpt>
      <trkpt lat="42.54829" lon="18.34221">
        <ele>128.129429</ele>
        <time>2022-06-01T10:35:20.565Z</time>
      </trkpt>
      <trkpt lat="42.54835" lon="18.34206">
        <ele>128.41735</ele>
        <time>2022-06-01T10:35:23.563Z</time>
      </trkpt>
      <trkpt lat="42.5484" lon="18.34196">
        <ele>128.628608</ele>
        <time>2022-06-01T10:35:25.550Z</time>
      </trkpt>
      <trkpt lat="42.54848" lon="18.34183">
        <ele>128.924702</ele>
        <time>2022-06-01T10:35:28.564Z</time>
      </trkpt>
      <trkpt lat="42.54853" lon="18.3417">
        <ele>129.180827</ele>
        <time>2022-06-01T10:35:31.557Z</time>
      </trkpt>
      <trkpt lat="42.54856" lon="18.34158">
        <ele>129.399075</ele>
        <time>2022-06-01T10:35:34.553Z</time>
      </trkpt>
      <trkpt lat="42.54858" lon="18.34145">
        <ele>129.621093</ele>
        <time>2022-06-01T10:35:37.577Z</time>
      </trkpt>
      <trkpt lat="42.54861" lon="18.3413">
        <ele>129.885044</ele>
        <time>2022-06-01T10:35:41.577Z</time>
      </trkpt>
      <trkpt lat="42.54862" lon="18.34117">
        <ele>130.119263</ele>
        <time>2022-06-01T10:35:45.572Z</time>
      </trkpt>
      <trkpt lat="42.54861" lon="18.34105">
        <ele>130.332881</ele>
        <time>2022-06-01T10:35:49.550Z</time>
      </trkpt>
      <trkpt lat="42.5486" lon="18.34092">
        <ele>130.545676</ele>
        <time>2022-06-01T10:35:53.557Z</time>
      </trkpt>
      <trkpt lat="42.54859" lon="18.34079">
        <ele>130.77453</ele>
        <time>2022-06-01T10:35:57.567Z</time>
      </trkpt>
      <trkpt lat="42.54866" lon="18.34051">
        <ele>131.283974</ele>
        <time>2022-06-01T10:38:22.591Z</time>
      </trkpt>
      <trkpt lat="42.54874" lon="18.34037">
        <ele>131.360386</ele>
        <time>2022-06-01T10:38:25.555Z</time>
      </trkpt>
      <trkpt lat="42.5488" lon="18.34028">
        <ele>131.152523</ele>
        <time>2022-06-01T10:38:27.548Z</time>
      </trkpt>
      <trkpt lat="42.54887" lon="18.34018">
        <ele>130.930789</ele>
        <time>2022-06-01T10:38:29.549Z</time>
      </trkpt>
      <trkpt lat="42.54895" lon="18.34009">
        <ele>130.699759</ele>
        <time>2022-06-01T10:38:31.561Z</time>
      </trkpt>
      <trkpt lat="42.54904" lon="18.34001">
        <ele>130.458491</ele>
        <time>2022-06-01T10:38:33.565Z</time>
      </trkpt>
      <trkpt lat="42.54914" lon="18.33996">
        <ele>130.23122</ele>
        <time>2022-06-01T10:38:35.556Z</time>
      </trkpt>
      <trkpt lat="42.54925" lon="18.33991">
        <ele>129.957713</ele>
        <time>2022-06-01T10:38:38.566Z</time>
      </trkpt>
      <trkpt lat="42.54935" lon="18.33988">
        <ele>129.730325</ele>
        <time>2022-06-01T10:38:41.557Z</time>
      </trkpt>
      <trkpt lat="42.54944" lon="18.33984">
        <ele>129.518447</ele>
        <time>2022-06-01T10:38:44.559Z</time>
      </trkpt>
      <trkpt lat="42.54954" lon="18.33981">
        <ele>129.30973</ele>
        <time>2022-06-01T10:38:47.571Z</time>
      </trkpt>
      <trkpt lat="42.54962" lon="18.33977">
        <ele>129.107305</ele>
        <time>2022-06-01T10:38:50.553Z</time>
      </trkpt>
      <trkpt lat="42.54972" lon="18.33972">
        <ele>128.884603</ele>
        <time>2022-06-01T10:38:53.555Z</time>
      </trkpt>
      <trkpt lat="42.54981" lon="18.33965">
        <ele>128.643693</ele>
        <time>2022-06-01T10:38:56.588Z</time>
      </trkpt>
      <trkpt lat="42.54991" lon="18.33959">
        <ele>128.404468</ele>
        <time>2022-06-01T10:38:59.569Z</time>
      </trkpt>
      <trkpt lat="42.55" lon="18.33951">
        <ele>128.171685</ele>
        <time>2022-06-01T10:39:02.580Z</time>
      </trkpt>
      <trkpt lat="42.55009" lon="18.33943">
        <ele>127.922707</ele>
        <time>2022-06-01T10:39:05.566Z</time>
      </trkpt>
      <trkpt lat="42.55019" lon="18.33932">
        <ele>127.639248</ele>
        <time>2022-06-01T10:39:08.586Z</time>
      </trkpt>
      <trkpt lat="42.55026" lon="18.33924">
        <ele>127.511384</ele>
        <time>2022-06-01T10:39:10.613Z</time>
      </trkpt>
      <trkpt lat="42.55033" lon="18.33915">
        <ele>127.676169</ele>
        <time>2022-06-01T10:39:12.555Z</time>
      </trkpt>
      <trkpt lat="42.55039" lon="18.33902">
        <ele>127.883701</ele>
        <time>2022-06-01T10:39:15.562Z</time>
      </trkpt>
      <trkpt lat="42.55043" lon="18.3389">
        <ele>128.063643</ele>
        <time>2022-06-01T10:39:18.569Z</time>
      </trkpt>
      <trkpt lat="42.55047" lon="18.33878">
        <ele>128.227453</ele>
        <time>2022-06-01T10:39:21.559Z</time>
      </trkpt>
      <trkpt lat="42.55051" lon="18.33866">
        <ele>128.414932</ele>
        <time>2022-06-01T10:39:25.555Z</time>
      </trkpt>
      <trkpt lat="42.55056" lon="18.33852">
        <ele>128.616304</ele>
        <time>2022-06-01T10:39:29.568Z</time>
      </trkpt>
      <trkpt lat="42.5506" lon="18.33841">
        <ele>128.779247</ele>
        <time>2022-06-01T10:39:32.547Z</time>
      </trkpt>
      <trkpt lat="42.55067" lon="18.33829">
        <ele>128.980271</ele>
        <time>2022-06-01T10:39:35.556Z</time>
      </trkpt>
      <trkpt lat="42.55073" lon="18.33816">
        <ele>129.184379</ele>
        <time>2022-06-01T10:39:38.552Z</time>
      </trkpt>
      <trkpt lat="42.55081" lon="18.33804">
        <ele>129.403988</ele>
        <time>2022-06-01T10:39:41.560Z</time>
      </trkpt>
      <trkpt lat="42.5509" lon="18.3379">
        <ele>129.64643</ele>
        <time>2022-06-01T10:39:44.558Z</time>
      </trkpt>
      <trkpt lat="42.55096" lon="18.3378">
        <ele>129.818896</ele>
        <time>2022-06-01T10:39:46.563Z</time>
      </trkpt>
      <trkpt lat="42.55103" lon="18.3377">
        <ele>130.000934</ele>
        <time>2022-06-01T10:39:48.578Z</time>
      </trkpt>
      <trkpt lat="42.55109" lon="18.33759">
        <ele>130.174109</ele>
        <time>2022-06-01T10:39:50.572Z</time>
      </trkpt>
      <trkpt lat="42.55115" lon="18.33749">
        <ele>130.353116</ele>
        <time>2022-06-01T10:39:52.587Z</time>
      </trkpt>
      <trkpt lat="42.55122" lon="18.33739">
        <ele>130.535249</ele>
        <time>2022-06-01T10:39:54.556Z</time>
      </trkpt>
      <trkpt lat="42.55129" lon="18.33729">
        <ele>130.71007</ele>
        <time>2022-06-01T10:39:56.562Z</time>
      </trkpt>
      <trkpt lat="42.55135" lon="18.3372">
        <ele>130.657964</ele>
        <time>2022-06-01T10:39:58.595Z</time>
      </trkpt>
      <trkpt lat="42.55141" lon="18.3371">
        <ele>130.601203</ele>
        <time>2022-06-01T10:40:00.555Z</time>
      </trkpt>
      <trkpt lat="42.55149" lon="18.33696">
        <ele>130.516971</ele>
        <time>2022-06-01T10:40:03.565Z</time>
      </trkpt>
      <trkpt lat="42.55157" lon="18.33682">
        <ele>130.434641</ele>
        <time>2022-06-01T10:40:06.557Z</time>
      </trkpt>
      <trkpt lat="42.55163" lon="18.33672">
        <ele>130.374968</ele>
        <time>2022-06-01T10:40:08.553Z</time>
      </trkpt>
      <trkpt lat="42.55169" lon="18.33662">
        <ele>130.314306</ele>
        <time>2022-06-01T10:40:10.568Z</time>
      </trkpt>
      <trkpt lat="42.55175" lon="18.33652">
        <ele>130.251119</ele>
        <time>2022-06-01T10:40:12.554Z</time>
      </trkpt>
      <trkpt lat="42.55181" lon="18.33641">
        <ele>130.186469</ele>
        <time>2022-06-01T10:40:14.551Z</time>
      </trkpt>
      <trkpt lat="42.55187" lon="18.33629">
        <ele>130.120822</ele>
        <time>2022-06-01T10:40:16.559Z</time>
      </trkpt>
      <trkpt lat="42.55192" lon="18.33617">
        <ele>130.0549</ele>
        <time>2022-06-01T10:40:18.549Z</time>
      </trkpt>
      <trkpt lat="42.55198" lon="18.33605">
        <ele>129.986836</ele>
        <time>2022-06-01T10:40:20.580Z</time>
      </trkpt>
      <trkpt lat="42.55205" lon="18.33592">
        <ele>129.915415</ele>
        <time>2022-06-01T10:40:22.565Z</time>
      </trkpt>
      <trkpt lat="42.55213" lon="18.3358">
        <ele>129.841998</ele>
        <time>2022-06-01T10:40:24.554Z</time>
      </trkpt>
      <trkpt lat="42.5522" lon="18.33568">
        <ele>129.767498</ele>
        <time>2022-06-01T10:40:26.552Z</time>
      </trkpt>
      <trkpt lat="42.55228" lon="18.33556">
        <ele>129.692909</ele>
        <time>2022-06-01T10:40:28.553Z</time>
      </trkpt>
      <trkpt lat="42.55235" lon="18.33543">
        <ele>129.617142</ele>
        <time>2022-06-01T10:40:30.564Z</time>
      </trkpt>
      <trkpt lat="42.55244" lon="18.33531">
        <ele>129.448738</ele>
        <time>2022-06-01T10:40:32.560Z</time>
      </trkpt>
      <trkpt lat="42.55252" lon="18.33519">
        <ele>129.188756</ele>
        <time>2022-06-01T10:40:34.560Z</time>
      </trkpt>
      <trkpt lat="42.5526" lon="18.33507">
        <ele>128.927598</ele>
        <time>2022-06-01T10:40:36.551Z</time>
      </trkpt>
      <trkpt lat="42.55268" lon="18.33494">
        <ele>128.677257</ele>
        <time>2022-06-01T10:40:38.550Z</time>
      </trkpt>
      <trkpt lat="42.55274" lon="18.33482">
        <ele>128.444838</ele>
        <time>2022-06-01T10:40:40.549Z</time>
      </trkpt>
      <trkpt lat="42.5528" lon="18.33472">
        <ele>128.230048</ele>
        <time>2022-06-01T10:40:42.578Z</time>
      </trkpt>
      <trkpt lat="42.55286" lon="18.33461">
        <ele>128.034277</ele>
        <time>2022-06-01T10:40:44.555Z</time>
      </trkpt>
      <trkpt lat="42.55294" lon="18.33449">
        <ele>127.776251</ele>
        <time>2022-06-01T10:40:47.561Z</time>
      </trkpt>
      <trkpt lat="42.55301" lon="18.33437">
        <ele>127.529689</ele>
        <time>2022-06-01T10:40:50.549Z</time>
      </trkpt>
      <trkpt lat="42.55308" lon="18.33424">
        <ele>127.28087</ele>
        <time>2022-06-01T10:40:53.566Z</time>
      </trkpt>
      <trkpt lat="42.55315" lon="18.33412">
        <ele>127.031747</ele>
        <time>2022-06-01T10:40:56.564Z</time>
      </trkpt>
      <trkpt lat="42.55322" lon="18.33398">
        <ele>126.772814</ele>
        <time>2022-06-01T10:40:59.576Z</time>
      </trkpt>
      <trkpt lat="42.55328" lon="18.33385">
        <ele>126.524137</ele>
        <time>2022-06-01T10:41:02.557Z</time>
      </trkpt>
      <trkpt lat="42.55334" lon="18.33371">
        <ele>126.27458</ele>
        <time>2022-06-01T10:41:05.582Z</time>
      </trkpt>
      <trkpt lat="42.55339" lon="18.33358">
        <ele>126.041146</ele>
        <time>2022-06-01T10:41:08.557Z</time>
      </trkpt>
      <trkpt lat="42.55344" lon="18.33345">
        <ele>125.825237</ele>
        <time>2022-06-01T10:41:11.555Z</time>
      </trkpt>
      <trkpt lat="42.55349" lon="18.33333">
        <ele>125.628977</ele>
        <time>2022-06-01T10:41:14.557Z</time>
      </trkpt>
      <trkpt lat="42.55354" lon="18.3332">
        <ele>125.417633</ele>
        <time>2022-06-01T10:41:18.553Z</time>
      </trkpt>
      <trkpt lat="42.55359" lon="18.33306">
        <ele>125.211116</ele>
        <time>2022-06-01T10:41:22.592Z</time>
      </trkpt>
      <trkpt lat="42.55364" lon="18.33291">
        <ele>124.985934</ele>
        <time>2022-06-01T10:41:26.564Z</time>
      </trkpt>
      <trkpt lat="42.55368" lon="18.33277">
        <ele>124.789274</ele>
        <time>2022-06-01T10:41:29.568Z</time>
      </trkpt>
      <trkpt lat="42.55372" lon="18.33262">
        <ele>124.563242</ele>
        <time>2022-06-01T10:41:32.558Z</time>
      </trkpt>
      <trkpt lat="42.55377" lon="18.33251">
        <ele>124.396562</ele>
        <time>2022-06-01T10:41:34.572Z</time>
      </trkpt>
      <trkpt lat="42.55383" lon="18.33241">
        <ele>124.220165</ele>
        <time>2022-06-01T10:41:36.558Z</time>
      </trkpt>
      <trkpt lat="42.55389" lon="18.33231">
        <ele>124.035505</ele>
        <time>2022-06-01T10:41:38.554Z</time>
      </trkpt>
      <trkpt lat="42.55398" lon="18.3322">
        <ele>123.819053</ele>
        <time>2022-06-01T10:41:40.552Z</time>
      </trkpt>
      <trkpt lat="42.55408" lon="18.3321">
        <ele>123.582223</ele>
        <time>2022-06-01T10:41:42.555Z</time>
      </trkpt>
      <trkpt lat="42.55419" lon="18.332">
        <ele>123.332409</ele>
        <time>2022-06-01T10:41:44.587Z</time>
      </trkpt>
      <trkpt lat="42.55429" lon="18.33189">
        <ele>123.093897</ele>
        <time>2022-06-01T10:41:46.556Z</time>
      </trkpt>
      <trkpt lat="42.55439" lon="18.33175">
        <ele>122.847</ele>
        <time>2022-06-01T10:41:48.554Z</time>
      </trkpt>
      <trkpt lat="42.55446" lon="18.33161">
        <ele>122.607069</ele>
        <time>2022-06-01T10:41:50.576Z</time>
      </trkpt>
      <trkpt lat="42.55452" lon="18.33145">
        <ele>122.365016</ele>
        <time>2022-06-01T10:41:52.553Z</time>
      </trkpt>
      <trkpt lat="42.55457" lon="18.33128">
        <ele>122.103838</ele>
        <time>2022-06-01T10:41:54.549Z</time>
      </trkpt>
      <trkpt lat="42.55458" lon="18.33109">
        <ele>121.830447</ele>
        <time>2022-06-01T10:41:56.575Z</time>
      </trkpt>
      <trkpt lat="42.55457" lon="18.3309">
        <ele>121.554177</ele>
        <time>2022-06-01T10:41:58.552Z</time>
      </trkpt>
      <trkpt lat="42.55455" lon="18.33072">
        <ele>121.291404</ele>
        <time>2022-06-01T10:42:00.560Z</time>
      </trkpt>
      <trkpt lat="42.55452" lon="18.33055">
        <ele>121.038493</ele>
        <time>2022-06-01T10:42:02.549Z</time>
      </trkpt>
      <trkpt lat="42.55452" lon="18.33039">
        <ele>120.811621</ele>
        <time>2022-06-01T10:42:04.555Z</time>
      </trkpt>
      <trkpt lat="42.55453" lon="18.33025">
        <ele>120.605239</ele>
        <time>2022-06-01T10:42:06.550Z</time>
      </trkpt>
      <trkpt lat="42.55455" lon="18.33012">
        <ele>120.418182</ele>
        <time>2022-06-01T10:42:08.547Z</time>
      </trkpt>
      <trkpt lat="42.55456" lon="18.33">
        <ele>120.242157</ele>
        <time>2022-06-01T10:42:10.558Z</time>
      </trkpt>
      <trkpt lat="42.55459" lon="18.32982">
        <ele>119.991719</ele>
        <time>2022-06-01T10:42:13.561Z</time>
      </trkpt>
      <trkpt lat="42.5546" lon="18.32966">
        <ele>119.752711</ele>
        <time>2022-06-01T10:42:16.561Z</time>
      </trkpt>
      <trkpt lat="42.55462" lon="18.3295">
        <ele>119.521312</ele>
        <time>2022-06-01T10:42:19.553Z</time>
      </trkpt>
      <trkpt lat="42.55465" lon="18.32934">
        <ele>119.287071</ele>
        <time>2022-06-01T10:42:22.577Z</time>
      </trkpt>
      <trkpt lat="42.55466" lon="18.32917">
        <ele>119.042077</ele>
        <time>2022-06-01T10:42:25.552Z</time>
      </trkpt>
      <trkpt lat="42.55467" lon="18.329">
        <ele>118.829134</ele>
        <time>2022-06-01T10:42:28.564Z</time>
      </trkpt>
      <trkpt lat="42.55468" lon="18.32882">
        <ele>118.63321</ele>
        <time>2022-06-01T10:42:31.568Z</time>
      </trkpt>
      <trkpt lat="42.55468" lon="18.3287">
        <ele>118.495996</ele>
        <time>2022-06-01T10:42:33.559Z</time>
      </trkpt>
      <trkpt lat="42.55468" lon="18.32857">
        <ele>118.355557</ele>
        <time>2022-06-01T10:42:35.565Z</time>
      </trkpt>
      <trkpt lat="42.55469" lon="18.32844">
        <ele>118.21623</ele>
        <time>2022-06-01T10:42:37.567Z</time>
      </trkpt>
      <trkpt lat="42.55469" lon="18.32831">
        <ele>118.07035</ele>
        <time>2022-06-01T10:42:39.571Z</time>
      </trkpt>
      <trkpt lat="42.55469" lon="18.32816">
        <ele>117.916853</ele>
        <time>2022-06-01T10:42:41.558Z</time>
      </trkpt>
      <trkpt lat="42.55469" lon="18.32802">
        <ele>117.760119</ele>
        <time>2022-06-01T10:42:43.551Z</time>
      </trkpt>
      <trkpt lat="42.55469" lon="18.32788">
        <ele>117.604445</ele>
        <time>2022-06-01T10:42:45.573Z</time>
      </trkpt>
      <trkpt lat="42.55469" lon="18.32774">
        <ele>117.454212</ele>
        <time>2022-06-01T10:42:47.570Z</time>
      </trkpt>
      <trkpt lat="42.5547" lon="18.32761">
        <ele>117.309421</ele>
        <time>2022-06-01T10:42:49.556Z</time>
      </trkpt>
      <trkpt lat="42.5547" lon="18.32748">
        <ele>117.173359</ele>
        <time>2022-06-01T10:42:51.559Z</time>
      </trkpt>
      <trkpt lat="42.5547" lon="18.32736">
        <ele>117.037877</ele>
        <time>2022-06-01T10:42:53.562Z</time>
      </trkpt>
      <trkpt lat="42.55471" lon="18.32718">
        <ele>116.846034</ele>
        <time>2022-06-01T10:42:56.575Z</time>
      </trkpt>
      <trkpt lat="42.55472" lon="18.32701">
        <ele>116.654327</ele>
        <time>2022-06-01T10:42:59.563Z</time>
      </trkpt>
      <trkpt lat="42.55472" lon="18.32684">
        <ele>116.470234</ele>
        <time>2022-06-01T10:43:02.577Z</time>
      </trkpt>
      <trkpt lat="42.55472" lon="18.32667">
        <ele>116.290588</ele>
        <time>2022-06-01T10:43:05.561Z</time>
      </trkpt>
      <trkpt lat="42.55473" lon="18.32652">
        <ele>116.347072</ele>
        <time>2022-06-01T10:43:08.557Z</time>
      </trkpt>
      <trkpt lat="42.55475" lon="18.32637">
        <ele>116.436747</ele>
        <time>2022-06-01T10:43:11.554Z</time>
      </trkpt>
      <trkpt lat="42.55477" lon="18.32622">
        <ele>116.533809</ele>
        <time>2022-06-01T10:43:14.552Z</time>
      </trkpt>
      <trkpt lat="42.5548" lon="18.32604">
        <ele>116.643138</ele>
        <time>2022-06-01T10:43:17.570Z</time>
      </trkpt>
      <trkpt lat="42.55481" lon="18.32587">
        <ele>116.751116</ele>
        <time>2022-06-01T10:43:20.566Z</time>
      </trkpt>
      <trkpt lat="42.55483" lon="18.32569">
        <ele>116.861705</ele>
        <time>2022-06-01T10:43:23.554Z</time>
      </trkpt>
      <trkpt lat="42.55484" lon="18.32551">
        <ele>116.971592</ele>
        <time>2022-06-01T10:43:26.563Z</time>
      </trkpt>
      <trkpt lat="42.55485" lon="18.32539">
        <ele>117.046334</ele>
        <time>2022-06-01T10:43:28.558Z</time>
      </trkpt>
      <trkpt lat="42.55486" lon="18.32526">
        <ele>117.124511</ele>
        <time>2022-06-01T10:43:30.582Z</time>
      </trkpt>
      <trkpt lat="42.55486" lon="18.32513">
        <ele>117.208613</ele>
        <time>2022-06-01T10:43:32.557Z</time>
      </trkpt>
      <trkpt lat="42.55486" lon="18.32498">
        <ele>117.296394</ele>
        <time>2022-06-01T10:43:34.552Z</time>
      </trkpt>
      <trkpt lat="42.55487" lon="18.32484">
        <ele>117.381821</ele>
        <time>2022-06-01T10:43:36.563Z</time>
      </trkpt>
      <trkpt lat="42.55488" lon="18.32471">
        <ele>117.466253</ele>
        <time>2022-06-01T10:43:38.561Z</time>
      </trkpt>
      <trkpt lat="42.55488" lon="18.32457">
        <ele>117.552294</ele>
        <time>2022-06-01T10:43:40.560Z</time>
      </trkpt>
      <trkpt lat="42.55489" lon="18.32443">
        <ele>117.635582</ele>
        <time>2022-06-01T10:43:42.559Z</time>
      </trkpt>
      <trkpt lat="42.5549" lon="18.3243">
        <ele>117.720013</ele>
        <time>2022-06-01T10:43:44.557Z</time>
      </trkpt>
      <trkpt lat="42.55491" lon="18.32416">
        <ele>117.675402</ele>
        <time>2022-06-01T10:43:46.554Z</time>
      </trkpt>
      <trkpt lat="42.55493" lon="18.32402">
        <ele>117.489589</ele>
        <time>2022-06-01T10:43:48.579Z</time>
      </trkpt>
      <trkpt lat="42.55494" lon="18.32388">
        <ele>117.305389</ele>
        <time>2022-06-01T10:43:50.553Z</time>
      </trkpt>
      <trkpt lat="42.55496" lon="18.32375">
        <ele>117.122511</ele>
        <time>2022-06-01T10:43:52.549Z</time>
      </trkpt>
      <trkpt lat="42.55498" lon="18.32361">
        <ele>116.934169</ele>
        <time>2022-06-01T10:43:54.575Z</time>
      </trkpt>
      <trkpt lat="42.55501" lon="18.32348">
        <ele>116.745399</ele>
        <time>2022-06-01T10:43:56.569Z</time>
      </trkpt>
      <trkpt lat="42.55503" lon="18.32334">
        <ele>116.559224</ele>
        <time>2022-06-01T10:43:58.566Z</time>
      </trkpt>
      <trkpt lat="42.55506" lon="18.32321">
        <ele>116.370098</ele>
        <time>2022-06-01T10:44:00.575Z</time>
      </trkpt>
      <trkpt lat="42.5551" lon="18.32307">
        <ele>116.174908</ele>
        <time>2022-06-01T10:44:02.553Z</time>
      </trkpt>
      <trkpt lat="42.55515" lon="18.32294">
        <ele>115.978821</ele>
        <time>2022-06-01T10:44:04.559Z</time>
      </trkpt>
      <trkpt lat="42.55519" lon="18.3228">
        <ele>115.774165</ele>
        <time>2022-06-01T10:44:06.557Z</time>
      </trkpt>
      <trkpt lat="42.55521" lon="18.32265">
        <ele>115.572223</ele>
        <time>2022-06-01T10:44:08.552Z</time>
      </trkpt>
      <trkpt lat="42.55519" lon="18.3225">
        <ele>115.37292</ele>
        <time>2022-06-01T10:44:10.570Z</time>
      </trkpt>
      <trkpt lat="42.55516" lon="18.32236">
        <ele>115.177915</ele>
        <time>2022-06-01T10:44:12.558Z</time>
      </trkpt>
      <trkpt lat="42.55513" lon="18.32222">
        <ele>114.989321</ele>
        <time>2022-06-01T10:44:14.557Z</time>
      </trkpt>
      <trkpt lat="42.5551" lon="18.3221">
        <ele>114.807337</ele>
        <time>2022-06-01T10:44:16.551Z</time>
      </trkpt>
      <trkpt lat="42.55506" lon="18.32197">
        <ele>114.628485</ele>
        <time>2022-06-01T10:44:18.561Z</time>
      </trkpt>
      <trkpt lat="42.55503" lon="18.32185">
        <ele>114.4835</ele>
        <time>2022-06-01T10:44:20.556Z</time>
      </trkpt>
      <trkpt lat="42.555" lon="18.32173">
        <ele>114.429109</ele>
        <time>2022-06-01T10:44:22.555Z</time>
      </trkpt>
      <trkpt lat="42.55498" lon="18.3216">
        <ele>114.374343</ele>
        <time>2022-06-01T10:44:24.555Z</time>
      </trkpt>
      <trkpt lat="42.55496" lon="18.32148">
        <ele>114.318961</ele>
        <time>2022-06-01T10:44:26.555Z</time>
      </trkpt>
      <trkpt lat="42.55497" lon="18.32135">
        <ele>114.264439</ele>
        <time>2022-06-01T10:44:28.559Z</time>
      </trkpt>
      <trkpt lat="42.55497" lon="18.32122">
        <ele>114.210959</ele>
        <time>2022-06-01T10:44:30.558Z</time>
      </trkpt>
      <trkpt lat="42.55499" lon="18.3211">
        <ele>114.158981</ele>
        <time>2022-06-01T10:44:32.559Z</time>
      </trkpt>
      <trkpt lat="42.555" lon="18.32098">
        <ele>114.10641</ele>
        <time>2022-06-01T10:44:34.588Z</time>
      </trkpt>
      <trkpt lat="42.55503" lon="18.32081">
        <ele>114.031767</ele>
        <time>2022-06-01T10:44:37.564Z</time>
      </trkpt>
      <trkpt lat="42.55506" lon="18.32064">
        <ele>113.953672</ele>
        <time>2022-06-01T10:44:40.580Z</time>
      </trkpt>
      <trkpt lat="42.55509" lon="18.32051">
        <ele>113.897832</ele>
        <time>2022-06-01T10:44:42.587Z</time>
      </trkpt>
      <trkpt lat="42.55512" lon="18.32039">
        <ele>113.843034</ele>
        <time>2022-06-01T10:44:44.587Z</time>
      </trkpt>
      <trkpt lat="42.55515" lon="18.32026">
        <ele>113.783797</ele>
        <time>2022-06-01T10:44:46.639Z</time>
      </trkpt>
      <trkpt lat="42.55518" lon="18.32013">
        <ele>113.723103</ele>
        <time>2022-06-01T10:44:48.579Z</time>
      </trkpt>
      <trkpt lat="42.55521" lon="18.31999">
        <ele>113.662581</ele>
        <time>2022-06-01T10:44:50.590Z</time>
      </trkpt>
      <trkpt lat="42.55525" lon="18.31987">
        <ele>113.604086</ele>
        <time>2022-06-01T10:44:52.582Z</time>
      </trkpt>
      <trkpt lat="42.5553" lon="18.31974">
        <ele>113.543035</ele>
        <time>2022-06-01T10:44:54.578Z</time>
      </trkpt>
      <trkpt lat="42.55536" lon="18.31961">
        <ele>113.4789</ele>
        <time>2022-06-01T10:44:56.579Z</time>
      </trkpt>
      <trkpt lat="42.55542" lon="18.31949">
        <ele>113.384334</ele>
        <time>2022-06-01T10:44:58.577Z</time>
      </trkpt>
      <trkpt lat="42.55547" lon="18.31936">
        <ele>113.26728</ele>
        <time>2022-06-01T10:45:00.585Z</time>
      </trkpt>
      <trkpt lat="42.55552" lon="18.31923">
        <ele>113.152672</ele>
        <time>2022-06-01T10:45:02.579Z</time>
      </trkpt>
      <trkpt lat="42.55557" lon="18.31911">
        <ele>113.03909</ele>
        <time>2022-06-01T10:45:04.570Z</time>
      </trkpt>
      <trkpt lat="42.55561" lon="18.31899">
        <ele>112.934532</ele>
        <time>2022-06-01T10:45:06.611Z</time>
      </trkpt>
      <trkpt lat="42.55565" lon="18.31887">
        <ele>112.834117</ele>
        <time>2022-06-01T10:45:08.583Z</time>
      </trkpt>
      <trkpt lat="42.55569" lon="18.31876">
        <ele>112.73152</ele>
        <time>2022-06-01T10:45:10.579Z</time>
      </trkpt>
      <trkpt lat="42.55575" lon="18.3186">
        <ele>112.586741</ele>
        <time>2022-06-01T10:45:13.605Z</time>
      </trkpt>
      <trkpt lat="42.55579" lon="18.31848">
        <ele>112.48755</ele>
        <time>2022-06-01T10:45:15.584Z</time>
      </trkpt>
      <trkpt lat="42.55582" lon="18.31837">
        <ele>112.389908</ele>
        <time>2022-06-01T10:45:17.602Z</time>
      </trkpt>
      <trkpt lat="42.55585" lon="18.31825">
        <ele>112.289988</ele>
        <time>2022-06-01T10:45:19.579Z</time>
      </trkpt>
      <trkpt lat="42.55587" lon="18.31811">
        <ele>112.180055</ele>
        <time>2022-06-01T10:45:21.600Z</time>
      </trkpt>
      <trkpt lat="42.55589" lon="18.31798">
        <ele>112.068141</ele>
        <time>2022-06-01T10:45:23.571Z</time>
      </trkpt>
      <trkpt lat="42.5559" lon="18.31784">
        <ele>111.95998</ele>
        <time>2022-06-01T10:45:25.614Z</time>
      </trkpt>
      <trkpt lat="42.55591" lon="18.3177">
        <ele>111.848915</ele>
        <time>2022-06-01T10:45:27.571Z</time>
      </trkpt>
      <trkpt lat="42.55592" lon="18.31756">
        <ele>111.735299</ele>
        <time>2022-06-01T10:45:29.580Z</time>
      </trkpt>
      <trkpt lat="42.55594" lon="18.31742">
        <ele>111.621817</ele>
        <time>2022-06-01T10:45:31.562Z</time>
      </trkpt>
      <trkpt lat="42.55596" lon="18.31727">
        <ele>111.504037</ele>
        <time>2022-06-01T10:45:33.570Z</time>
      </trkpt>
      <trkpt lat="42.55599" lon="18.31713">
        <ele>111.412421</ele>
        <time>2022-06-01T10:45:35.550Z</time>
      </trkpt>
      <trkpt lat="42.55602" lon="18.317">
        <ele>111.321909</ele>
        <time>2022-06-01T10:45:37.568Z</time>
      </trkpt>
      <trkpt lat="42.55605" lon="18.31686">
        <ele>111.233306</ele>
        <time>2022-06-01T10:45:39.566Z</time>
      </trkpt>
      <trkpt lat="42.55609" lon="18.31673">
        <ele>111.144395</ele>
        <time>2022-06-01T10:45:41.555Z</time>
      </trkpt>
      <trkpt lat="42.55613" lon="18.3166">
        <ele>111.055204</ele>
        <time>2022-06-01T10:45:43.552Z</time>
      </trkpt>
      <trkpt lat="42.55616" lon="18.31647">
        <ele>110.968074</ele>
        <time>2022-06-01T10:45:45.559Z</time>
      </trkpt>
      <trkpt lat="42.55619" lon="18.31634">
        <ele>110.883208</ele>
        <time>2022-06-01T10:45:47.559Z</time>
      </trkpt>
      <trkpt lat="42.55622" lon="18.31621">
        <ele>110.802088</ele>
        <time>2022-06-01T10:45:49.567Z</time>
      </trkpt>
      <trkpt lat="42.55625" lon="18.3161">
        <ele>110.725169</ele>
        <time>2022-06-01T10:45:51.553Z</time>
      </trkpt>
      <trkpt lat="42.55629" lon="18.31594">
        <ele>110.617426</ele>
        <time>2022-06-01T10:45:54.583Z</time>
      </trkpt>
      <trkpt lat="42.55634" lon="18.31578">
        <ele>110.510843</ele>
        <time>2022-06-01T10:45:57.552Z</time>
      </trkpt>
      <trkpt lat="42.55638" lon="18.31562">
        <ele>110.403041</ele>
        <time>2022-06-01T10:46:00.585Z</time>
      </trkpt>
      <trkpt lat="42.55644" lon="18.31546">
        <ele>110.295672</ele>
        <time>2022-06-01T10:46:03.560Z</time>
      </trkpt>
      <trkpt lat="42.5565" lon="18.3153">
        <ele>110.18008</ele>
        <time>2022-06-01T10:46:06.564Z</time>
      </trkpt>
      <trkpt lat="42.55654" lon="18.31519">
        <ele>110.102266</ele>
        <time>2022-06-01T10:46:08.560Z</time>
      </trkpt>
      <trkpt lat="42.55657" lon="18.31508">
        <ele>110.025689</ele>
        <time>2022-06-01T10:46:10.571Z</time>
      </trkpt>
      <trkpt lat="42.5566" lon="18.31496">
        <ele>109.958585</ele>
        <time>2022-06-01T10:46:12.578Z</time>
      </trkpt>
      <trkpt lat="42.55663" lon="18.31484">
        <ele>109.916341</ele>
        <time>2022-06-01T10:46:14.568Z</time>
      </trkpt>
      <trkpt lat="42.55667" lon="18.31467">
        <ele>109.856788</ele>
        <time>2022-06-01T10:46:17.574Z</time>
      </trkpt>
      <trkpt lat="42.55669" lon="18.3145">
        <ele>109.800211</ele>
        <time>2022-06-01T10:46:20.559Z</time>
      </trkpt>
      <trkpt lat="42.55671" lon="18.31435">
        <ele>109.748557</ele>
        <time>2022-06-01T10:46:23.580Z</time>
      </trkpt>
      <trkpt lat="42.55674" lon="18.31421">
        <ele>109.699374</ele>
        <time>2022-06-01T10:46:26.579Z</time>
      </trkpt>
      <trkpt lat="42.55677" lon="18.31407">
        <ele>109.649962</ele>
        <time>2022-06-01T10:46:29.623Z</time>
      </trkpt>
      <trkpt lat="42.55681" lon="18.31392">
        <ele>109.597675</ele>
        <time>2022-06-01T10:46:32.591Z</time>
      </trkpt>
      <trkpt lat="42.55685" lon="18.31377">
        <ele>109.542381</ele>
        <time>2022-06-01T10:46:35.604Z</time>
      </trkpt>
      <trkpt lat="42.55688" lon="18.3136">
        <ele>109.483668</ele>
        <time>2022-06-01T10:46:38.607Z</time>
      </trkpt>
      <trkpt lat="42.55692" lon="18.31343">
        <ele>109.424115</ele>
        <time>2022-06-01T10:46:41.577Z</time>
      </trkpt>
      <trkpt lat="42.55695" lon="18.31326">
        <ele>109.365011</ele>
        <time>2022-06-01T10:46:44.572Z</time>
      </trkpt>
      <trkpt lat="42.55698" lon="18.31309">
        <ele>109.305706</ele>
        <time>2022-06-01T10:46:47.570Z</time>
      </trkpt>
      <trkpt lat="42.557" lon="18.31292">
        <ele>109.247672</ele>
        <time>2022-06-01T10:46:50.581Z</time>
      </trkpt>
      <trkpt lat="42.55702" lon="18.31274">
        <ele>109.187687</ele>
        <time>2022-06-01T10:46:53.587Z</time>
      </trkpt>
      <trkpt lat="42.55702" lon="18.31262">
        <ele>109.165936</ele>
        <time>2022-06-01T10:46:55.590Z</time>
      </trkpt>
      <trkpt lat="42.557" lon="18.31244">
        <ele>109.390019</ele>
        <time>2022-06-01T10:46:58.588Z</time>
      </trkpt>
      <trkpt lat="42.557" lon="18.31227">
        <ele>109.603527</ele>
        <time>2022-06-01T10:47:01.587Z</time>
      </trkpt>
      <trkpt lat="42.55701" lon="18.3121">
        <ele>109.816088</ele>
        <time>2022-06-01T10:47:04.580Z</time>
      </trkpt>
      <trkpt lat="42.55703" lon="18.31195">
        <ele>110.012259</ele>
        <time>2022-06-01T10:47:07.592Z</time>
      </trkpt>
      <trkpt lat="42.55705" lon="18.3118">
        <ele>110.207188</ele>
        <time>2022-06-01T10:47:10.572Z</time>
      </trkpt>
      <trkpt lat="42.55708" lon="18.31166">
        <ele>110.390836</ele>
        <time>2022-06-01T10:47:13.626Z</time>
      </trkpt>
      <trkpt lat="42.55711" lon="18.31154">
        <ele>110.546825</ele>
        <time>2022-06-01T10:47:16.587Z</time>
      </trkpt>
      <trkpt lat="42.55715" lon="18.31141">
        <ele>110.727018</ele>
        <time>2022-06-01T10:47:19.580Z</time>
      </trkpt>
      <trkpt lat="42.5572" lon="18.31128">
        <ele>110.906276</ele>
        <time>2022-06-01T10:47:22.588Z</time>
      </trkpt>
      <trkpt lat="42.55725" lon="18.31114">
        <ele>111.096202</ele>
        <time>2022-06-01T10:47:26.596Z</time>
      </trkpt>
      <trkpt lat="42.5573" lon="18.31101">
        <ele>111.284302</ele>
        <time>2022-06-01T10:47:30.591Z</time>
      </trkpt>
      <trkpt lat="42.55735" lon="18.31087">
        <ele>111.484431</ele>
        <time>2022-06-01T10:47:34.589Z</time>
      </trkpt>
      <trkpt lat="42.5574" lon="18.31073">
        <ele>111.676051</ele>
        <time>2022-06-01T10:47:38.598Z</time>
      </trkpt>
      <trkpt lat="42.55744" lon="18.31059">
        <ele>111.865177</ele>
        <time>2022-06-01T10:47:42.639Z</time>
      </trkpt>
      <trkpt lat="42.55748" lon="18.31045">
        <ele>112.057277</ele>
        <time>2022-06-01T10:47:46.575Z</time>
      </trkpt>
      <trkpt lat="42.55753" lon="18.31031">
        <ele>112.187919</ele>
        <time>2022-06-01T10:47:50.599Z</time>
      </trkpt>
      <trkpt lat="42.55756" lon="18.31019">
        <ele>112.018056</ele>
        <time>2022-06-01T10:47:54.584Z</time>
      </trkpt>
      <trkpt lat="42.55759" lon="18.31006">
        <ele>111.840129</ele>
        <time>2022-06-01T10:47:58.606Z</time>
      </trkpt>
      <trkpt lat="42.55762" lon="18.30992">
        <ele>111.661476</ele>
        <time>2022-06-01T10:48:02.579Z</time>
      </trkpt>
      <trkpt lat="42.55764" lon="18.30977">
        <ele>111.455459</ele>
        <time>2022-06-01T10:48:06.574Z</time>
      </trkpt>
      <trkpt lat="42.55766" lon="18.30964">
        <ele>111.289931</ele>
        <time>2022-06-01T10:48:09.590Z</time>
      </trkpt>
      <trkpt lat="42.55765" lon="18.30949">
        <ele>111.10416</ele>
        <time>2022-06-01T10:48:12.588Z</time>
      </trkpt>
      <trkpt lat="42.55764" lon="18.30934">
        <ele>110.906245</ele>
        <time>2022-06-01T10:48:15.588Z</time>
      </trkpt>
      <trkpt lat="42.55761" lon="18.30919">
        <ele>110.704158</ele>
        <time>2022-06-01T10:48:18.588Z</time>
      </trkpt>
      <trkpt lat="42.55756" lon="18.30903">
        <ele>110.483695</ele>
        <time>2022-06-01T10:48:21.581Z</time>
      </trkpt>
      <trkpt lat="42.55749" lon="18.30888">
        <ele>110.253123</ele>
        <time>2022-06-01T10:48:24.610Z</time>
      </trkpt>
      <trkpt lat="42.55744" lon="18.30877">
        <ele>110.09525</ele>
        <time>2022-06-01T10:48:26.609Z</time>
      </trkpt>
      <trkpt lat="42.55741" lon="18.30865">
        <ele>109.936084</ele>
        <time>2022-06-01T10:48:28.578Z</time>
      </trkpt>
      <trkpt lat="42.55738" lon="18.30853">
        <ele>109.773319</ele>
        <time>2022-06-01T10:48:30.577Z</time>
      </trkpt>
      <trkpt lat="42.55737" lon="18.30841">
        <ele>109.617144</ele>
        <time>2022-06-01T10:48:32.585Z</time>
      </trkpt>
      <trkpt lat="42.55737" lon="18.30825">
        <ele>109.415035</ele>
        <time>2022-06-01T10:48:35.580Z</time>
      </trkpt>
      <trkpt lat="42.55738" lon="18.30809">
        <ele>109.205808</ele>
        <time>2022-06-01T10:48:38.626Z</time>
      </trkpt>
      <trkpt lat="42.55739" lon="18.30792">
        <ele>109.140315</ele>
        <time>2022-06-01T10:48:41.593Z</time>
      </trkpt>
      <trkpt lat="42.55739" lon="18.30775">
        <ele>109.252156</ele>
        <time>2022-06-01T10:48:44.586Z</time>
      </trkpt>
      <trkpt lat="42.5574" lon="18.30758">
        <ele>109.363307</ele>
        <time>2022-06-01T10:48:47.572Z</time>
      </trkpt>
      <trkpt lat="42.55741" lon="18.30742">
        <ele>109.468071</ele>
        <time>2022-06-01T10:48:50.583Z</time>
      </trkpt>
      <trkpt lat="42.55742" lon="18.30727">
        <ele>109.571609</ele>
        <time>2022-06-01T10:48:53.572Z</time>
      </trkpt>
      <trkpt lat="42.55745" lon="18.30713">
        <ele>109.669109</ele>
        <time>2022-06-01T10:48:56.567Z</time>
      </trkpt>
      <trkpt lat="42.55748" lon="18.307">
        <ele>109.758308</ele>
        <time>2022-06-01T10:48:59.594Z</time>
      </trkpt>
      <trkpt lat="42.55751" lon="18.30687">
        <ele>109.84841</ele>
        <time>2022-06-01T10:49:02.578Z</time>
      </trkpt>
      <trkpt lat="42.55755" lon="18.30673">
        <ele>109.940938</ele>
        <time>2022-06-01T10:49:05.576Z</time>
      </trkpt>
      <trkpt lat="42.55759" lon="18.30659">
        <ele>110.040871</ele>
        <time>2022-06-01T10:49:08.591Z</time>
      </trkpt>
      <trkpt lat="42.55763" lon="18.30644">
        <ele>110.148213</ele>
        <time>2022-06-01T10:49:11.635Z</time>
      </trkpt>
      <trkpt lat="42.55767" lon="18.30628">
        <ele>110.255547</ele>
        <time>2022-06-01T10:49:14.589Z</time>
      </trkpt>
      <trkpt lat="42.55772" lon="18.30612">
        <ele>110.370667</ele>
        <time>2022-06-01T10:49:17.576Z</time>
      </trkpt>
      <trkpt lat="42.55775" lon="18.30601">
        <ele>110.452105</ele>
        <time>2022-06-01T10:49:19.593Z</time>
      </trkpt>
      <trkpt lat="42.55778" lon="18.30589">
        <ele>110.533069</ele>
        <time>2022-06-01T10:49:21.586Z</time>
      </trkpt>
      <trkpt lat="42.5578" lon="18.30577">
        <ele>110.614587</ele>
        <time>2022-06-01T10:49:23.594Z</time>
      </trkpt>
      <trkpt lat="42.55781" lon="18.30559">
        <ele>110.685027</ele>
        <time>2022-06-01T10:49:26.587Z</time>
      </trkpt>
      <trkpt lat="42.55782" lon="18.3054">
        <ele>110.654804</ele>
        <time>2022-06-01T10:49:29.655Z</time>
      </trkpt>
      <trkpt lat="42.55784" lon="18.30524">
        <ele>110.626883</ele>
        <time>2022-06-01T10:49:32.582Z</time>
      </trkpt>
      <trkpt lat="42.55786" lon="18.30507">
        <ele>110.598982</ele>
        <time>2022-06-01T10:49:35.578Z</time>
      </trkpt>
      <trkpt lat="42.55789" lon="18.30491">
        <ele>110.57136</ele>
        <time>2022-06-01T10:49:38.584Z</time>
      </trkpt>
      <trkpt lat="42.55792" lon="18.30475">
        <ele>110.544015</ele>
        <time>2022-06-01T10:49:41.576Z</time>
      </trkpt>
      <trkpt lat="42.55795" lon="18.3046">
        <ele>110.517211</ele>
        <time>2022-06-01T10:49:44.622Z</time>
      </trkpt>
      <trkpt lat="42.55798" lon="18.30445">
        <ele>110.491096</ele>
        <time>2022-06-01T10:49:47.579Z</time>
      </trkpt>
      <trkpt lat="42.55801" lon="18.3043">
        <ele>110.465201</ele>
        <time>2022-06-01T10:49:50.582Z</time>
      </trkpt>
      <trkpt lat="42.55804" lon="18.30415">
        <ele>110.439246</ele>
        <time>2022-06-01T10:49:53.600Z</time>
      </trkpt>
      <trkpt lat="42.55807" lon="18.304">
        <ele>110.414437</ele>
        <time>2022-06-01T10:49:56.589Z</time>
      </trkpt>
      <trkpt lat="42.55809" lon="18.30386">
        <ele>110.389887</ele>
        <time>2022-06-01T10:49:59.582Z</time>
      </trkpt>
      <trkpt lat="42.55813" lon="18.30371">
        <ele>110.364574</ele>
        <time>2022-06-01T10:50:02.611Z</time>
      </trkpt>
      <trkpt lat="42.55817" lon="18.30357">
        <ele>110.339062</ele>
        <time>2022-06-01T10:50:05.601Z</time>
      </trkpt>
      <trkpt lat="42.55822" lon="18.30343">
        <ele>110.312393</ele>
        <time>2022-06-01T10:50:08.577Z</time>
      </trkpt>
      <trkpt lat="42.55829" lon="18.30328">
        <ele>110.263761</ele>
        <time>2022-06-01T10:50:11.586Z</time>
      </trkpt>
      <trkpt lat="42.55832" lon="18.30317">
        <ele>110.147078</ele>
        <time>2022-06-01T10:50:13.626Z</time>
      </trkpt>
      <trkpt lat="42.55835" lon="18.30304">
        <ele>110.023264</ele>
        <time>2022-06-01T10:50:15.602Z</time>
      </trkpt>
      <trkpt lat="42.55838" lon="18.30291">
        <ele>109.895656</ele>
        <time>2022-06-01T10:50:17.596Z</time>
      </trkpt>
      <trkpt lat="42.5584" lon="18.30279">
        <ele>109.773222</ele>
        <time>2022-06-01T10:50:19.612Z</time>
      </trkpt>
      <trkpt lat="42.55841" lon="18.30265">
        <ele>109.645531</ele>
        <time>2022-06-01T10:50:21.601Z</time>
      </trkpt>
      <trkpt lat="42.55842" lon="18.30252">
        <ele>109.515796</ele>
        <time>2022-06-01T10:50:23.589Z</time>
      </trkpt>
      <trkpt lat="42.55844" lon="18.30237">
        <ele>109.381545</ele>
        <time>2022-06-01T10:50:25.591Z</time>
      </trkpt>
      <trkpt lat="42.55844" lon="18.30224">
        <ele>109.249918</ele>
        <time>2022-06-01T10:50:27.596Z</time>
      </trkpt>
      <trkpt lat="42.55844" lon="18.30209">
        <ele>109.114598</ele>
        <time>2022-06-01T10:50:29.579Z</time>
      </trkpt>
      <trkpt lat="42.55842" lon="18.30195">
        <ele>108.97608</ele>
        <time>2022-06-01T10:50:31.568Z</time>
      </trkpt>
      <trkpt lat="42.5584" lon="18.30181">
        <ele>108.841349</ele>
        <time>2022-06-01T10:50:33.592Z</time>
      </trkpt>
      <trkpt lat="42.55838" lon="18.30168">
        <ele>108.714749</ele>
        <time>2022-06-01T10:50:35.589Z</time>
      </trkpt>
      <trkpt lat="42.55837" lon="18.30155">
        <ele>108.597529</ele>
        <time>2022-06-01T10:50:37.582Z</time>
      </trkpt>
      <trkpt lat="42.55837" lon="18.30138">
        <ele>108.432152</ele>
        <time>2022-06-01T10:50:40.594Z</time>
      </trkpt>
      <trkpt lat="42.5584" lon="18.30122">
        <ele>108.278001</ele>
        <time>2022-06-01T10:50:43.590Z</time>
      </trkpt>
      <trkpt lat="42.55844" lon="18.30108">
        <ele>108.135708</ele>
        <time>2022-06-01T10:50:46.586Z</time>
      </trkpt>
      <trkpt lat="42.55849" lon="18.30096">
        <ele>108.007731</ele>
        <time>2022-06-01T10:50:49.597Z</time>
      </trkpt>
      <trkpt lat="42.55855" lon="18.30084">
        <ele>108.036507</ele>
        <time>2022-06-01T10:50:52.608Z</time>
      </trkpt>
      <trkpt lat="42.5586" lon="18.30073">
        <ele>108.100533</ele>
        <time>2022-06-01T10:50:55.609Z</time>
      </trkpt>
      <trkpt lat="42.55865" lon="18.30062">
        <ele>108.165761</ele>
        <time>2022-06-01T10:50:58.591Z</time>
      </trkpt>
      <trkpt lat="42.5587" lon="18.3005">
        <ele>108.234763</ele>
        <time>2022-06-01T10:51:01.589Z</time>
      </trkpt>
      <trkpt lat="42.55875" lon="18.30038">
        <ele>108.305653</ele>
        <time>2022-06-01T10:51:04.587Z</time>
      </trkpt>
      <trkpt lat="42.55881" lon="18.30026">
        <ele>108.377098</ele>
        <time>2022-06-01T10:51:07.584Z</time>
      </trkpt>
      <trkpt lat="42.55886" lon="18.30014">
        <ele>108.445109</ele>
        <time>2022-06-01T10:51:10.571Z</time>
      </trkpt>
      <trkpt lat="42.55891" lon="18.30003">
        <ele>108.51147</ele>
        <time>2022-06-01T10:51:13.586Z</time>
      </trkpt>
      <trkpt lat="42.55896" lon="18.29991">
        <ele>108.582286</ele>
        <time>2022-06-01T10:51:16.599Z</time>
      </trkpt>
      <trkpt lat="42.55903" lon="18.29978">
        <ele>108.657275</ele>
        <time>2022-06-01T10:51:19.586Z</time>
      </trkpt>
      <trkpt lat="42.55911" lon="18.29966">
        <ele>108.73887</ele>
        <time>2022-06-01T10:51:22.585Z</time>
      </trkpt>
      <trkpt lat="42.55918" lon="18.29951">
        <ele>108.824483</ele>
        <time>2022-06-01T10:51:25.589Z</time>
      </trkpt>
      <trkpt lat="42.55921" lon="18.29936">
        <ele>108.904214</ele>
        <time>2022-06-01T10:51:28.610Z</time>
      </trkpt>
      <trkpt lat="42.55925" lon="18.29921">
        <ele>108.982106</ele>
        <time>2022-06-01T10:51:31.587Z</time>
      </trkpt>
      <trkpt lat="42.55928" lon="18.29907">
        <ele>109.055871</ele>
        <time>2022-06-01T10:51:34.582Z</time>
      </trkpt>
      <trkpt lat="42.55931" lon="18.29894">
        <ele>109.125988</ele>
        <time>2022-06-01T10:51:37.567Z</time>
      </trkpt>
      <trkpt lat="42.55936" lon="18.29881">
        <ele>109.195778</ele>
        <time>2022-06-01T10:51:40.591Z</time>
      </trkpt>
      <trkpt lat="42.55941" lon="18.29867">
        <ele>109.310324</ele>
        <time>2022-06-01T10:51:43.611Z</time>
      </trkpt>
      <trkpt lat="42.55947" lon="18.29855">
        <ele>109.42338</ele>
        <time>2022-06-01T10:51:46.589Z</time>
      </trkpt>
      <trkpt lat="42.55953" lon="18.29842">
        <ele>109.535992</ele>
        <time>2022-06-01T10:51:49.578Z</time>
      </trkpt>
      <trkpt lat="42.5596" lon="18.29828">
        <ele>109.664095</ele>
        <time>2022-06-01T10:51:52.586Z</time>
      </trkpt>
      <trkpt lat="42.55967" lon="18.29814">
        <ele>109.788714</ele>
        <time>2022-06-01T10:51:55.574Z</time>
      </trkpt>
      <trkpt lat="42.55973" lon="18.298">
        <ele>109.909035</ele>
        <time>2022-06-01T10:51:58.585Z</time>
      </trkpt>
      <trkpt lat="42.55977" lon="18.29786">
        <ele>110.019063</ele>
        <time>2022-06-01T10:52:01.578Z</time>
      </trkpt>
      <trkpt lat="42.55979" lon="18.29773">
        <ele>110.123997</ele>
        <time>2022-06-01T10:52:04.601Z</time>
      </trkpt>
      <trkpt lat="42.55982" lon="18.2976">
        <ele>110.219019</ele>
        <time>2022-06-01T10:52:07.596Z</time>
      </trkpt>
      <trkpt lat="42.55983" lon="18.29748">
        <ele>110.30992</ele>
        <time>2022-06-01T10:52:10.592Z</time>
      </trkpt>
      <trkpt lat="42.55984" lon="18.29733">
        <ele>110.425216</ele>
        <time>2022-06-01T10:52:14.581Z</time>
      </trkpt>
      <trkpt lat="42.55985" lon="18.2972">
        <ele>110.525168</ele>
        <time>2022-06-01T10:52:18.598Z</time>
      </trkpt>
      <trkpt lat="42.55986" lon="18.29706">
        <ele>110.629471</ele>
        <time>2022-06-01T10:52:22.579Z</time>
      </trkpt>
      <trkpt lat="42.55987" lon="18.29692">
        <ele>110.735012</ele>
        <time>2022-06-01T10:52:26.582Z</time>
      </trkpt>
      <trkpt lat="42.55988" lon="18.29678">
        <ele>110.840903</ele>
        <time>2022-06-01T10:52:30.604Z</time>
      </trkpt>
      <trkpt lat="42.55989" lon="18.29664">
        <ele>110.947607</ele>
        <time>2022-06-01T10:52:34.581Z</time>
      </trkpt>
      <trkpt lat="42.55992" lon="18.29651">
        <ele>111.011938</ele>
        <time>2022-06-01T10:52:37.595Z</time>
      </trkpt>
      <trkpt lat="42.55995" lon="18.29638">
        <ele>110.975904</ele>
        <time>2022-06-01T10:52:40.593Z</time>
      </trkpt>
      <trkpt lat="42.55998" lon="18.29624">
        <ele>110.93409</ele>
        <time>2022-06-01T10:52:43.592Z</time>
      </trkpt>
      <trkpt lat="42.56001" lon="18.29607">
        <ele>110.886846</ele>
        <time>2022-06-01T10:52:46.587Z</time>
      </trkpt>
      <trkpt lat="42.56004" lon="18.29595">
        <ele>110.85177</ele>
        <time>2022-06-01T10:52:48.600Z</time>
      </trkpt>
      <trkpt lat="42.56007" lon="18.29583">
        <ele>110.817306</ele>
        <time>2022-06-01T10:52:50.587Z</time>
      </trkpt>
      <trkpt lat="42.56009" lon="18.29571">
        <ele>110.782952</ele>
        <time>2022-06-01T10:52:52.576Z</time>
      </trkpt>
      <trkpt lat="42.56013" lon="18.29559">
        <ele>110.74878</ele>
        <time>2022-06-01T10:52:54.609Z</time>
      </trkpt>
      <trkpt lat="42.56016" lon="18.29547">
        <ele>110.713919</ele>
        <time>2022-06-01T10:52:56.586Z</time>
      </trkpt>
      <trkpt lat="42.5602" lon="18.29536">
        <ele>110.680128</ele>
        <time>2022-06-01T10:52:58.581Z</time>
      </trkpt>
      <trkpt lat="42.56023" lon="18.29524">
        <ele>110.646599</ele>
        <time>2022-06-01T10:53:00.584Z</time>
      </trkpt>
      <trkpt lat="42.56026" lon="18.29513">
        <ele>110.613197</ele>
        <time>2022-06-01T10:53:02.569Z</time>
      </trkpt>
      <trkpt lat="42.56029" lon="18.29501">
        <ele>110.579794</ele>
        <time>2022-06-01T10:53:04.589Z</time>
      </trkpt>
      <trkpt lat="42.56033" lon="18.2949">
        <ele>110.54612</ele>
        <time>2022-06-01T10:53:06.598Z</time>
      </trkpt>
      <trkpt lat="42.56036" lon="18.29479">
        <ele>110.512558</ele>
        <time>2022-06-01T10:53:08.582Z</time>
      </trkpt>
      <trkpt lat="42.56039" lon="18.29467">
        <ele>110.477862</ele>
        <time>2022-06-01T10:53:10.603Z</time>
      </trkpt>
      <trkpt lat="42.56043" lon="18.29455">
        <ele>110.443145</ele>
        <time>2022-06-01T10:53:12.586Z</time>
      </trkpt>
      <trkpt lat="42.56046" lon="18.29443">
        <ele>110.408284</ele>
        <time>2022-06-01T10:53:14.598Z</time>
      </trkpt>
      <trkpt lat="42.5605" lon="18.29432">
        <ele>110.373847</ele>
        <time>2022-06-01T10:53:16.602Z</time>
      </trkpt>
      <trkpt lat="42.56053" lon="18.2942">
        <ele>110.340257</ele>
        <time>2022-06-01T10:53:18.567Z</time>
      </trkpt>
      <trkpt lat="42.56057" lon="18.29408">
        <ele>110.307446</ele>
        <time>2022-06-01T10:53:20.591Z</time>
      </trkpt>
      <trkpt lat="42.56061" lon="18.29397">
        <ele>110.275857</ele>
        <time>2022-06-01T10:53:22.640Z</time>
      </trkpt>
      <trkpt lat="42.56065" lon="18.2938">
        <ele>110.230114</ele>
        <time>2022-06-01T10:53:25.586Z</time>
      </trkpt>
      <trkpt lat="42.56067" lon="18.29363">
        <ele>110.18397</ele>
        <time>2022-06-01T10:53:28.564Z</time>
      </trkpt>
      <trkpt lat="42.56069" lon="18.29346">
        <ele>110.139662</ele>
        <time>2022-06-01T10:53:31.587Z</time>
      </trkpt>
      <trkpt lat="42.5607" lon="18.29328">
        <ele>110.095069</ele>
        <time>2022-06-01T10:53:34.577Z</time>
      </trkpt>
      <trkpt lat="42.56071" lon="18.29311">
        <ele>110.050001</ele>
        <time>2022-06-01T10:53:37.581Z</time>
      </trkpt>
      <trkpt lat="42.56072" lon="18.29295">
        <ele>110.007704</ele>
        <time>2022-06-01T10:53:40.587Z</time>
      </trkpt>
      <trkpt lat="42.56072" lon="18.29279">
        <ele>109.968754</ele>
        <time>2022-06-01T10:53:43.598Z</time>
      </trkpt>
      <trkpt lat="42.56073" lon="18.29265">
        <ele>109.930969</ele>
        <time>2022-06-01T10:53:46.593Z</time>
      </trkpt>
      <trkpt lat="42.56074" lon="18.2925">
        <ele>109.891612</ele>
        <time>2022-06-01T10:53:49.599Z</time>
      </trkpt>
      <trkpt lat="42.56076" lon="18.29236">
        <ele>109.854675</ele>
        <time>2022-06-01T10:53:52.581Z</time>
      </trkpt>
      <trkpt lat="42.56078" lon="18.29222">
        <ele>109.818291</ele>
        <time>2022-06-01T10:53:55.611Z</time>
      </trkpt>
      <trkpt lat="42.56081" lon="18.29207">
        <ele>109.779976</ele>
        <time>2022-06-01T10:53:58.590Z</time>
      </trkpt>
      <trkpt lat="42.56084" lon="18.29192">
        <ele>109.740101</ele>
        <time>2022-06-01T10:54:01.569Z</time>
      </trkpt>
      <trkpt lat="42.56087" lon="18.29178">
        <ele>109.729541</ele>
        <time>2022-06-01T10:54:04.616Z</time>
      </trkpt>
      <trkpt lat="42.56091" lon="18.29163">
        <ele>109.740703</ele>
        <time>2022-06-01T10:54:07.622Z</time>
      </trkpt>
      <trkpt lat="42.56095" lon="18.29148">
        <ele>109.751498</ele>
        <time>2022-06-01T10:54:10.582Z</time>
      </trkpt>
      <trkpt lat="42.56098" lon="18.29134">
        <ele>109.762143</ele>
        <time>2022-06-01T10:54:13.588Z</time>
      </trkpt>
      <trkpt lat="42.56102" lon="18.29119">
        <ele>109.772772</ele>
        <time>2022-06-01T10:54:16.591Z</time>
      </trkpt>
      <trkpt lat="42.56106" lon="18.29105">
        <ele>109.783475</ele>
        <time>2022-06-01T10:54:19.592Z</time>
      </trkpt>
      <trkpt lat="42.56109" lon="18.29091">
        <ele>109.793809</ele>
        <time>2022-06-01T10:54:22.599Z</time>
      </trkpt>
      <trkpt lat="42.56113" lon="18.29077">
        <ele>109.804179</ele>
        <time>2022-06-01T10:54:25.610Z</time>
      </trkpt>
      <trkpt lat="42.56115" lon="18.29063">
        <ele>109.814283</ele>
        <time>2022-06-01T10:54:28.589Z</time>
      </trkpt>
      <trkpt lat="42.56117" lon="18.29048">
        <ele>109.824597</ele>
        <time>2022-06-01T10:54:31.620Z</time>
      </trkpt>
      <trkpt lat="42.56118" lon="18.29034">
        <ele>109.83496</ele>
        <time>2022-06-01T10:54:34.586Z</time>
      </trkpt>
      <trkpt lat="42.56118" lon="18.29019">
        <ele>109.845552</ele>
        <time>2022-06-01T10:54:37.580Z</time>
      </trkpt>
      <trkpt lat="42.56118" lon="18.29003">
        <ele>109.856564</ele>
        <time>2022-06-01T10:54:40.592Z</time>
      </trkpt>
      <trkpt lat="42.5612" lon="18.28987">
        <ele>109.86782</ele>
        <time>2022-06-01T10:54:43.605Z</time>
      </trkpt>
      <trkpt lat="42.56122" lon="18.28971">
        <ele>109.879236</ele>
        <time>2022-06-01T10:54:46.571Z</time>
      </trkpt>
      <trkpt lat="42.56125" lon="18.28956">
        <ele>109.89043</ele>
        <time>2022-06-01T10:54:49.582Z</time>
      </trkpt>
      <trkpt lat="42.56127" lon="18.28941">
        <ele>110.143931</ele>
        <time>2022-06-01T10:54:52.579Z</time>
      </trkpt>
      <trkpt lat="42.5613" lon="18.28926">
        <ele>110.540762</ele>
        <time>2022-06-01T10:54:55.575Z</time>
      </trkpt>
      <trkpt lat="42.56132" lon="18.28912">
        <ele>110.937835</ele>
        <time>2022-06-01T10:54:58.579Z</time>
      </trkpt>
      <trkpt lat="42.56135" lon="18.28897">
        <ele>111.333758</ele>
        <time>2022-06-01T10:55:01.584Z</time>
      </trkpt>
      <trkpt lat="42.56137" lon="18.28883">
        <ele>111.723758</ele>
        <time>2022-06-01T10:55:04.565Z</time>
      </trkpt>
      <trkpt lat="42.56139" lon="18.28869">
        <ele>112.101832</ele>
        <time>2022-06-01T10:55:07.579Z</time>
      </trkpt>
      <trkpt lat="42.56141" lon="18.28855">
        <ele>112.479642</ele>
        <time>2022-06-01T10:55:10.667Z</time>
      </trkpt>
      <trkpt lat="42.56143" lon="18.28841">
        <ele>112.853062</ele>
        <time>2022-06-01T10:55:13.586Z</time>
      </trkpt>
      <trkpt lat="42.56145" lon="18.28827">
        <ele>113.233041</ele>
        <time>2022-06-01T10:55:16.583Z</time>
      </trkpt>
      <trkpt lat="42.56147" lon="18.28814">
        <ele>113.591017</ele>
        <time>2022-06-01T10:55:19.580Z</time>
      </trkpt>
      <trkpt lat="42.56149" lon="18.28802">
        <ele>113.921438</ele>
        <time>2022-06-01T10:55:22.601Z</time>
      </trkpt>
      <trkpt lat="42.56151" lon="18.28787">
        <ele>114.329679</ele>
        <time>2022-06-01T10:55:26.612Z</time>
      </trkpt>
      <trkpt lat="42.56154" lon="18.28774">
        <ele>114.692366</ele>
        <time>2022-06-01T10:55:30.585Z</time>
      </trkpt>
      <trkpt lat="42.56159" lon="18.28763">
        <ele>115.0323</ele>
        <time>2022-06-01T10:55:34.603Z</time>
      </trkpt>
      <trkpt lat="42.56164" lon="18.2875">
        <ele>115.437273</ele>
        <time>2022-06-01T10:55:39.586Z</time>
      </trkpt>
      <trkpt lat="42.5617" lon="18.2874">
        <ele>115.77197</ele>
        <time>2022-06-01T10:55:43.603Z</time>
      </trkpt>
      <trkpt lat="42.56175" lon="18.28729">
        <ele>116.103512</ele>
        <time>2022-06-01T10:55:47.579Z</time>
      </trkpt>
      <trkpt lat="42.56181" lon="18.28719">
        <ele>116.477466</ele>
        <time>2022-06-01T10:55:51.573Z</time>
      </trkpt>
      <trkpt lat="42.56187" lon="18.28707">
        <ele>117.204636</ele>
        <time>2022-06-01T10:55:56.588Z</time>
      </trkpt>
      <trkpt lat="42.56192" lon="18.28697">
        <ele>117.803057</ele>
        <time>2022-06-01T10:56:00.610Z</time>
      </trkpt>
      <trkpt lat="42.56197" lon="18.28686">
        <ele>118.431249</ele>
        <time>2022-06-01T10:56:04.574Z</time>
      </trkpt>
      <trkpt lat="42.56201" lon="18.28674">
        <ele>119.08253</ele>
        <time>2022-06-01T10:56:08.601Z</time>
      </trkpt>
      <trkpt lat="42.56205" lon="18.28662">
        <ele>119.731033</ele>
        <time>2022-06-01T10:56:12.584Z</time>
      </trkpt>
      <trkpt lat="42.5621" lon="18.28651">
        <ele>120.350532</ele>
        <time>2022-06-01T10:56:16.593Z</time>
      </trkpt>
      <trkpt lat="42.56214" lon="18.2864">
        <ele>120.956111</ele>
        <time>2022-06-01T10:56:20.577Z</time>
      </trkpt>
      <trkpt lat="42.56219" lon="18.28626">
        <ele>121.703951</ele>
        <time>2022-06-01T10:56:25.588Z</time>
      </trkpt>
      <trkpt lat="42.56223" lon="18.28614">
        <ele>122.333473</ele>
        <time>2022-06-01T10:56:29.588Z</time>
      </trkpt>
      <trkpt lat="42.56228" lon="18.28603">
        <ele>122.961409</ele>
        <time>2022-06-01T10:56:33.642Z</time>
      </trkpt>
      <trkpt lat="42.56232" lon="18.2859">
        <ele>123.640001</ele>
        <time>2022-06-01T10:56:37.573Z</time>
      </trkpt>
      <trkpt lat="42.56236" lon="18.28578">
        <ele>124.276788</ele>
        <time>2022-06-01T10:56:41.586Z</time>
      </trkpt>
      <trkpt lat="42.56241" lon="18.28567">
        <ele>124.935359</ele>
        <time>2022-06-01T10:56:45.587Z</time>
      </trkpt>
      <trkpt lat="42.56246" lon="18.28556">
        <ele>125.589775</ele>
        <time>2022-06-01T10:56:49.583Z</time>
      </trkpt>
      <trkpt lat="42.56252" lon="18.28545">
        <ele>126.223135</ele>
        <time>2022-06-01T10:56:53.582Z</time>
      </trkpt>
      <trkpt lat="42.56256" lon="18.28534">
        <ele>126.839551</ele>
        <time>2022-06-01T10:56:57.571Z</time>
      </trkpt>
      <trkpt lat="42.56262" lon="18.28524">
        <ele>127.436854</ele>
        <time>2022-06-01T10:57:01.621Z</time>
      </trkpt>
      <trkpt lat="42.56267" lon="18.28513">
        <ele>128.058415</ele>
        <time>2022-06-01T10:57:05.585Z</time>
      </trkpt>
      <trkpt lat="42.56272" lon="18.28503">
        <ele>128.249396</ele>
        <time>2022-06-01T10:57:09.586Z</time>
      </trkpt>
      <trkpt lat="42.56276" lon="18.28492">
        <ele>128.127492</ele>
        <time>2022-06-01T10:57:13.588Z</time>
      </trkpt>
      <trkpt lat="42.5628" lon="18.2848">
        <ele>128.003111</ele>
        <time>2022-06-01T10:57:17.576Z</time>
      </trkpt>
      <trkpt lat="42.56286" lon="18.28468">
        <ele>127.856003</ele>
        <time>2022-06-01T10:57:22.580Z</time>
      </trkpt>
      <trkpt lat="42.5629" lon="18.28456">
        <ele>127.73313</ele>
        <time>2022-06-01T10:57:26.591Z</time>
      </trkpt>
      <trkpt lat="42.56294" lon="18.28446">
        <ele>127.61226</ele>
        <time>2022-06-01T10:57:30.581Z</time>
      </trkpt>
      <trkpt lat="42.56299" lon="18.28435">
        <ele>127.484434</ele>
        <time>2022-06-01T10:57:34.597Z</time>
      </trkpt>
      <trkpt lat="42.56304" lon="18.28423">
        <ele>127.350022</ele>
        <time>2022-06-01T10:57:38.600Z</time>
      </trkpt>
      <trkpt lat="42.56309" lon="18.28411">
        <ele>127.213503</ele>
        <time>2022-06-01T10:57:42.578Z</time>
      </trkpt>
      <trkpt lat="42.56313" lon="18.28398">
        <ele>127.077276</ele>
        <time>2022-06-01T10:57:46.587Z</time>
      </trkpt>
      <trkpt lat="42.56319" lon="18.28384">
        <ele>126.922885</ele>
        <time>2022-06-01T10:57:50.595Z</time>
      </trkpt>
      <trkpt lat="42.56324" lon="18.2837">
        <ele>126.769722</ele>
        <time>2022-06-01T10:57:54.581Z</time>
      </trkpt>
      <trkpt lat="42.56329" lon="18.28356">
        <ele>126.616421</ele>
        <time>2022-06-01T10:57:58.568Z</time>
      </trkpt>
      <trkpt lat="42.56333" lon="18.28344">
        <ele>126.487354</ele>
        <time>2022-06-01T10:58:01.605Z</time>
      </trkpt>
      <trkpt lat="42.56338" lon="18.28331">
        <ele>126.3442</ele>
        <time>2022-06-01T10:58:04.635Z</time>
      </trkpt>
      <trkpt lat="42.56342" lon="18.28317">
        <ele>126.192697</ele>
        <time>2022-06-01T10:58:07.591Z</time>
      </trkpt>
      <trkpt lat="42.56347" lon="18.28302">
        <ele>126.033071</ele>
        <time>2022-06-01T10:58:10.583Z</time>
      </trkpt>
      <trkpt lat="42.56351" lon="18.28287">
        <ele>125.884098</ele>
        <time>2022-06-01T10:58:13.584Z</time>
      </trkpt>
      <trkpt lat="42.56355" lon="18.28272">
        <ele>125.772045</ele>
        <time>2022-06-01T10:58:16.587Z</time>
      </trkpt>
      <trkpt lat="42.56359" lon="18.28258">
        <ele>125.666357</ele>
        <time>2022-06-01T10:58:19.586Z</time>
      </trkpt>
      <trkpt lat="42.56361" lon="18.28244">
        <ele>125.565116</ele>
        <time>2022-06-01T10:58:22.582Z</time>
      </trkpt>
      <trkpt lat="42.56364" lon="18.28232">
        <ele>125.472253</ele>
        <time>2022-06-01T10:58:25.592Z</time>
      </trkpt>
      <trkpt lat="42.56367" lon="18.2822">
        <ele>125.383783</ele>
        <time>2022-06-01T10:58:28.574Z</time>
      </trkpt>
      <trkpt lat="42.5637" lon="18.28205">
        <ele>125.274231</ele>
        <time>2022-06-01T10:58:32.574Z</time>
      </trkpt>
      <trkpt lat="42.56373" lon="18.28191">
        <ele>125.167894</ele>
        <time>2022-06-01T10:58:36.578Z</time>
      </trkpt>
      <trkpt lat="42.56376" lon="18.28177">
        <ele>125.065697</ele>
        <time>2022-06-01T10:58:40.578Z</time>
      </trkpt>
      <trkpt lat="42.56379" lon="18.28164">
        <ele>124.96506</ele>
        <time>2022-06-01T10:58:44.586Z</time>
      </trkpt>
      <trkpt lat="42.56384" lon="18.28152">
        <ele>124.863079</ele>
        <time>2022-06-01T10:58:48.577Z</time>
      </trkpt>
      <trkpt lat="42.5639" lon="18.2814">
        <ele>124.763042</ele>
        <time>2022-06-01T10:58:52.577Z</time>
      </trkpt>
      <trkpt lat="42.56396" lon="18.28129">
        <ele>124.660866</ele>
        <time>2022-06-01T10:58:56.576Z</time>
      </trkpt>
      <trkpt lat="42.56402" lon="18.28117">
        <ele>124.558562</ele>
        <time>2022-06-01T10:59:00.581Z</time>
      </trkpt>
      <trkpt lat="42.56407" lon="18.28106">
        <ele>124.467713</ele>
        <time>2022-06-01T10:59:04.597Z</time>
      </trkpt>
      <trkpt lat="42.56413" lon="18.28095">
        <ele>124.36952</ele>
        <time>2022-06-01T10:59:08.579Z</time>
      </trkpt>
      <trkpt lat="42.56418" lon="18.28083">
        <ele>124.270813</ele>
        <time>2022-06-01T10:59:12.583Z</time>
      </trkpt>
      <trkpt lat="42.56423" lon="18.28073">
        <ele>124.180171</ele>
        <time>2022-06-01T10:59:16.597Z</time>
      </trkpt>
      <trkpt lat="42.5643" lon="18.28061">
        <ele>124.625501</ele>
        <time>2022-06-01T10:59:21.584Z</time>
      </trkpt>
      <trkpt lat="42.56435" lon="18.28048">
        <ele>125.146779</ele>
        <time>2022-06-01T10:59:26.765Z</time>
      </trkpt>
      <trkpt lat="42.56441" lon="18.28036">
        <ele>125.664984</ele>
        <time>2022-06-01T10:59:31.590Z</time>
      </trkpt>
      <trkpt lat="42.56447" lon="18.28026">
        <ele>126.107088</ele>
        <time>2022-06-01T10:59:35.563Z</time>
      </trkpt>
      <trkpt lat="42.56452" lon="18.28013">
        <ele>126.625325</ele>
        <time>2022-06-01T10:59:40.594Z</time>
      </trkpt>
      <trkpt lat="42.56458" lon="18.28">
        <ele>127.151408</ele>
        <time>2022-06-01T10:59:45.588Z</time>
      </trkpt>
      <trkpt lat="42.56462" lon="18.27989">
        <ele>127.589851</ele>
        <time>2022-06-01T10:59:49.573Z</time>
      </trkpt>
      <trkpt lat="42.56467" lon="18.27976">
        <ele>128.093452</ele>
        <time>2022-06-01T10:59:54.579Z</time>
      </trkpt>
      <trkpt lat="42.56472" lon="18.27963">
        <ele>128.60628</ele>
        <time>2022-06-01T10:59:59.584Z</time>
      </trkpt>
      <trkpt lat="42.56477" lon="18.27952">
        <ele>129.041961</ele>
        <time>2022-06-01T11:00:03.611Z</time>
      </trkpt>
      <trkpt lat="42.56482" lon="18.2794">
        <ele>129.545264</ele>
        <time>2022-06-01T11:00:08.577Z</time>
      </trkpt>
      <trkpt lat="42.56487" lon="18.27928">
        <ele>130.006855</ele>
        <time>2022-06-01T11:00:12.583Z</time>
      </trkpt>
      <trkpt lat="42.56491" lon="18.27916">
        <ele>130.477059</ele>
        <time>2022-06-01T11:00:16.562Z</time>
      </trkpt>
      <trkpt lat="42.56494" lon="18.27903">
        <ele>130.94145</ele>
        <time>2022-06-01T11:00:20.594Z</time>
      </trkpt>
      <trkpt lat="42.56497" lon="18.27889">
        <ele>131.482904</ele>
        <time>2022-06-01T11:00:25.618Z</time>
      </trkpt>
      <trkpt lat="42.56501" lon="18.27877">
        <ele>131.921038</ele>
        <time>2022-06-01T11:00:29.589Z</time>
      </trkpt>
      <trkpt lat="42.56504" lon="18.27865">
        <ele>132.365898</ele>
        <time>2022-06-01T11:00:33.588Z</time>
      </trkpt>
      <trkpt lat="42.56508" lon="18.27853">
        <ele>132.704996</ele>
        <time>2022-06-01T11:00:37.621Z</time>
      </trkpt>
      <trkpt lat="42.56512" lon="18.2784">
        <ele>132.68381</ele>
        <time>2022-06-01T11:00:42.590Z</time>
      </trkpt>
      <trkpt lat="42.56516" lon="18.27828">
        <ele>132.666377</ele>
        <time>2022-06-01T11:00:46.602Z</time>
      </trkpt>
      <trkpt lat="42.5652" lon="18.27816">
        <ele>132.647285</ele>
        <time>2022-06-01T11:00:50.585Z</time>
      </trkpt>
      <trkpt lat="42.56525" lon="18.27805">
        <ele>132.628448</ele>
        <time>2022-06-01T11:00:54.609Z</time>
      </trkpt>
      <trkpt lat="42.56531" lon="18.27794">
        <ele>132.609744</ele>
        <time>2022-06-01T11:00:58.565Z</time>
      </trkpt>
      <trkpt lat="42.56536" lon="18.27784">
        <ele>132.591779</ele>
        <time>2022-06-01T11:01:02.585Z</time>
      </trkpt>
      <trkpt lat="42.5654" lon="18.27772">
        <ele>132.57298</ele>
        <time>2022-06-01T11:01:06.608Z</time>
      </trkpt>
      <trkpt lat="42.56545" lon="18.2776">
        <ele>132.553395</ele>
        <time>2022-06-01T11:01:10.590Z</time>
      </trkpt>
      <trkpt lat="42.5655" lon="18.27749">
        <ele>132.534693</ele>
        <time>2022-06-01T11:01:14.603Z</time>
      </trkpt>
      <trkpt lat="42.56555" lon="18.27737">
        <ele>132.515027</ele>
        <time>2022-06-01T11:01:18.579Z</time>
      </trkpt>
      <trkpt lat="42.5656" lon="18.27725">
        <ele>132.49603</ele>
        <time>2022-06-01T11:01:22.579Z</time>
      </trkpt>
      <trkpt lat="42.56565" lon="18.27713">
        <ele>132.475611</ele>
        <time>2022-06-01T11:01:26.578Z</time>
      </trkpt>
      <trkpt lat="42.5657" lon="18.27701">
        <ele>132.456287</ele>
        <time>2022-06-01T11:01:30.582Z</time>
      </trkpt>
      <trkpt lat="42.56574" lon="18.27688">
        <ele>132.436876</ele>
        <time>2022-06-01T11:01:34.584Z</time>
      </trkpt>
      <trkpt lat="42.56579" lon="18.27676">
        <ele>132.417401</ele>
        <time>2022-06-01T11:01:38.586Z</time>
      </trkpt>
      <trkpt lat="42.56583" lon="18.27664">
        <ele>132.398395</ele>
        <time>2022-06-01T11:01:42.591Z</time>
      </trkpt>
      <trkpt lat="42.56588" lon="18.27652">
        <ele>132.379164</ele>
        <time>2022-06-01T11:01:46.580Z</time>
      </trkpt>
      <trkpt lat="42.56592" lon="18.27641">
        <ele>132.349784</ele>
        <time>2022-06-01T11:01:50.593Z</time>
      </trkpt>
      <trkpt lat="42.56598" lon="18.2763">
        <ele>132.10802</ele>
        <time>2022-06-01T11:01:54.576Z</time>
      </trkpt>
      <trkpt lat="42.56604" lon="18.2762">
        <ele>131.880734</ele>
        <time>2022-06-01T11:01:58.579Z</time>
      </trkpt>
      <trkpt lat="42.56608" lon="18.27609">
        <ele>131.644431</ele>
        <time>2022-06-01T11:02:02.585Z</time>
      </trkpt>
      <trkpt lat="42.56614" lon="18.27597">
        <ele>131.397935</ele>
        <time>2022-06-01T11:02:06.624Z</time>
      </trkpt>
      <trkpt lat="42.5662" lon="18.27586">
        <ele>131.150353</ele>
        <time>2022-06-01T11:02:10.574Z</time>
      </trkpt>
      <trkpt lat="42.56625" lon="18.27574">
        <ele>130.896</ele>
        <time>2022-06-01T11:02:14.585Z</time>
      </trkpt>
      <trkpt lat="42.56631" lon="18.27563">
        <ele>130.642505</ele>
        <time>2022-06-01T11:02:18.638Z</time>
      </trkpt>
      <trkpt lat="42.56638" lon="18.27551">
        <ele>130.37293</ele>
        <time>2022-06-01T11:02:22.621Z</time>
      </trkpt>
      <trkpt lat="42.56644" lon="18.27541">
        <ele>130.139912</ele>
        <time>2022-06-01T11:02:25.587Z</time>
      </trkpt>
      <trkpt lat="42.56649" lon="18.2753">
        <ele>129.902471</ele>
        <time>2022-06-01T11:02:28.613Z</time>
      </trkpt>
      <trkpt lat="42.56655" lon="18.27519">
        <ele>129.661995</ele>
        <time>2022-06-01T11:02:31.581Z</time>
      </trkpt>
      <trkpt lat="42.56661" lon="18.27507">
        <ele>129.392997</ele>
        <time>2022-06-01T11:02:34.592Z</time>
      </trkpt>
      <trkpt lat="42.56665" lon="18.27492">
        <ele>129.108594</ele>
        <time>2022-06-01T11:02:37.572Z</time>
      </trkpt>
      <trkpt lat="42.5667" lon="18.27477">
        <ele>128.813593</ele>
        <time>2022-06-01T11:02:40.571Z</time>
      </trkpt>
      <trkpt lat="42.56677" lon="18.27464">
        <ele>128.517312</ele>
        <time>2022-06-01T11:02:43.591Z</time>
      </trkpt>
      <trkpt lat="42.56683" lon="18.2745">
        <ele>128.229554</ele>
        <time>2022-06-01T11:02:46.584Z</time>
      </trkpt>
      <trkpt lat="42.56689" lon="18.27437">
        <ele>127.959271</ele>
        <time>2022-06-01T11:02:49.591Z</time>
      </trkpt>
      <trkpt lat="42.56694" lon="18.27425">
        <ele>128.17261</ele>
        <time>2022-06-01T11:02:52.578Z</time>
      </trkpt>
      <trkpt lat="42.567" lon="18.27414">
        <ele>128.416476</ele>
        <time>2022-06-01T11:02:55.581Z</time>
      </trkpt>
      <trkpt lat="42.56705" lon="18.27403">
        <ele>128.640899</ele>
        <time>2022-06-01T11:02:58.593Z</time>
      </trkpt>
      <trkpt lat="42.56709" lon="18.27392">
        <ele>128.865837</ele>
        <time>2022-06-01T11:03:01.580Z</time>
      </trkpt>
      <trkpt lat="42.56715" lon="18.27378">
        <ele>129.14303</ele>
        <time>2022-06-01T11:03:05.576Z</time>
      </trkpt>
      <trkpt lat="42.56721" lon="18.27365">
        <ele>129.422529</ele>
        <time>2022-06-01T11:03:09.615Z</time>
      </trkpt>
      <trkpt lat="42.56728" lon="18.27352">
        <ele>129.69461</ele>
        <time>2022-06-01T11:03:13.622Z</time>
      </trkpt>
      <trkpt lat="42.56733" lon="18.27339">
        <ele>129.959891</ele>
        <time>2022-06-01T11:03:17.572Z</time>
      </trkpt>
      <trkpt lat="42.56738" lon="18.27326">
        <ele>130.219609</ele>
        <time>2022-06-01T11:03:21.585Z</time>
      </trkpt>
      <trkpt lat="42.56743" lon="18.27314">
        <ele>130.456763</ele>
        <time>2022-06-01T11:03:25.581Z</time>
      </trkpt>
      <trkpt lat="42.56748" lon="18.27303">
        <ele>130.682926</ele>
        <time>2022-06-01T11:03:29.580Z</time>
      </trkpt>
      <trkpt lat="42.56753" lon="18.27292">
        <ele>130.915292</ele>
        <time>2022-06-01T11:03:33.576Z</time>
      </trkpt>
      <trkpt lat="42.56758" lon="18.2728">
        <ele>131.161309</ele>
        <time>2022-06-01T11:03:37.574Z</time>
      </trkpt>
      <trkpt lat="42.56764" lon="18.27268">
        <ele>131.414</ele>
        <time>2022-06-01T11:03:41.635Z</time>
      </trkpt>
      <trkpt lat="42.56769" lon="18.27256">
        <ele>131.654699</ele>
        <time>2022-06-01T11:03:45.601Z</time>
      </trkpt>
      <trkpt lat="42.56774" lon="18.27245">
        <ele>131.87615</ele>
        <time>2022-06-01T11:03:49.606Z</time>
      </trkpt>
      <trkpt lat="42.56778" lon="18.27232">
        <ele>132.136842</ele>
        <time>2022-06-01T11:03:54.598Z</time>
      </trkpt>
      <trkpt lat="42.56783" lon="18.2722">
        <ele>132.343299</ele>
        <time>2022-06-01T11:03:58.595Z</time>
      </trkpt>
      <trkpt lat="42.56787" lon="18.27209">
        <ele>132.522845</ele>
        <time>2022-06-01T11:04:02.596Z</time>
      </trkpt>
      <trkpt lat="42.56792" lon="18.27197">
        <ele>132.6992</ele>
        <time>2022-06-01T11:04:06.608Z</time>
      </trkpt>
      <trkpt lat="42.56796" lon="18.27184">
        <ele>132.902488</ele>
        <time>2022-06-01T11:04:11.579Z</time>
      </trkpt>
      <trkpt lat="42.568" lon="18.27173">
        <ele>133.071055</ele>
        <time>2022-06-01T11:04:15.586Z</time>
      </trkpt>
      <trkpt lat="42.56804" lon="18.27162">
        <ele>133.240883</ele>
        <time>2022-06-01T11:04:19.587Z</time>
      </trkpt>
      <trkpt lat="42.56807" lon="18.2715">
        <ele>133.41176</ele>
        <time>2022-06-01T11:04:23.561Z</time>
      </trkpt>
      <trkpt lat="42.56811" lon="18.27139">
        <ele>133.590195</ele>
        <time>2022-06-01T11:04:27.587Z</time>
      </trkpt>
      <trkpt lat="42.56816" lon="18.27127">
        <ele>133.767037</ele>
        <time>2022-06-01T11:04:31.578Z</time>
      </trkpt>
      <trkpt lat="42.5682" lon="18.27116">
        <ele>133.939249</ele>
        <time>2022-06-01T11:04:35.594Z</time>
      </trkpt>
      <trkpt lat="42.56824" lon="18.27105">
        <ele>134.110649</ele>
        <time>2022-06-01T11:04:39.581Z</time>
      </trkpt>
      <trkpt lat="42.56828" lon="18.27094">
        <ele>134.285397</ele>
        <time>2022-06-01T11:04:43.603Z</time>
      </trkpt>
      <trkpt lat="42.56833" lon="18.27082">
        <ele>134.467542</ele>
        <time>2022-06-01T11:04:47.578Z</time>
      </trkpt>
      <trkpt lat="42.56838" lon="18.2707">
        <ele>134.666262</ele>
        <time>2022-06-01T11:04:51.583Z</time>
      </trkpt>
      <trkpt lat="42.56845" lon="18.27058">
        <ele>134.87347</ele>
        <time>2022-06-01T11:04:55.585Z</time>
      </trkpt>
      <trkpt lat="42.56851" lon="18.27049">
        <ele>135.046262</ele>
        <time>2022-06-01T11:04:58.591Z</time>
      </trkpt>
      <trkpt lat="42.56857" lon="18.27039">
        <ele>135.223399</ele>
        <time>2022-06-01T11:05:01.581Z</time>
      </trkpt>
      <trkpt lat="42.56862" lon="18.27028">
        <ele>135.401916</ele>
        <time>2022-06-01T11:05:04.589Z</time>
      </trkpt>
      <trkpt lat="42.56867" lon="18.27017">
        <ele>135.581467</ele>
        <time>2022-06-01T11:05:07.580Z</time>
      </trkpt>
      <trkpt lat="42.56873" lon="18.27007">
        <ele>135.703973</ele>
        <time>2022-06-01T11:05:10.593Z</time>
      </trkpt>
      <trkpt lat="42.5688" lon="18.26994">
        <ele>135.839178</ele>
        <time>2022-06-01T11:05:14.579Z</time>
      </trkpt>
      <trkpt lat="42.56886" lon="18.26984">
        <ele>135.946627</ele>
        <time>2022-06-01T11:05:17.589Z</time>
      </trkpt>
      <trkpt lat="42.56892" lon="18.26973">
        <ele>136.060115</ele>
        <time>2022-06-01T11:05:20.584Z</time>
      </trkpt>
      <trkpt lat="42.56898" lon="18.26962">
        <ele>136.172933</ele>
        <time>2022-06-01T11:05:23.578Z</time>
      </trkpt>
      <trkpt lat="42.56903" lon="18.26951">
        <ele>136.286459</ele>
        <time>2022-06-01T11:05:26.592Z</time>
      </trkpt>
      <trkpt lat="42.56909" lon="18.26939">
        <ele>136.401698</ele>
        <time>2022-06-01T11:05:29.589Z</time>
      </trkpt>
      <trkpt lat="42.56913" lon="18.26928">
        <ele>136.509284</ele>
        <time>2022-06-01T11:05:32.609Z</time>
      </trkpt>
      <trkpt lat="42.56918" lon="18.26917">
        <ele>136.613387</ele>
        <time>2022-06-01T11:05:35.586Z</time>
      </trkpt>
      <trkpt lat="42.56923" lon="18.26907">
        <ele>136.717583</ele>
        <time>2022-06-01T11:05:38.622Z</time>
      </trkpt>
      <trkpt lat="42.56929" lon="18.26893">
        <ele>136.851613</ele>
        <time>2022-06-01T11:05:42.576Z</time>
      </trkpt>
      <trkpt lat="42.56934" lon="18.2688">
        <ele>136.982333</ele>
        <time>2022-06-01T11:05:46.587Z</time>
      </trkpt>
      <trkpt lat="42.56939" lon="18.26869">
        <ele>137.085879</ele>
        <time>2022-06-01T11:05:49.581Z</time>
      </trkpt>
      <trkpt lat="42.56945" lon="18.26855">
        <ele>137.219354</ele>
        <time>2022-06-01T11:05:53.584Z</time>
      </trkpt>
      <trkpt lat="42.56951" lon="18.26842">
        <ele>137.350475</ele>
        <time>2022-06-01T11:05:57.591Z</time>
      </trkpt>
      <trkpt lat="42.56957" lon="18.26828">
        <ele>137.484344</ele>
        <time>2022-06-01T11:06:01.615Z</time>
      </trkpt>
      <trkpt lat="42.56963" lon="18.26815">
        <ele>137.616398</ele>
        <time>2022-06-01T11:06:05.585Z</time>
      </trkpt>
      <trkpt lat="42.56968" lon="18.26801">
        <ele>137.821436</ele>
        <time>2022-06-01T11:06:09.583Z</time>
      </trkpt>
      <trkpt lat="42.56973" lon="18.26788">
        <ele>138.078463</ele>
        <time>2022-06-01T11:06:13.592Z</time>
      </trkpt>
      <trkpt lat="42.56979" lon="18.26775">
        <ele>138.334281</ele>
        <time>2022-06-01T11:06:17.581Z</time>
      </trkpt>
      <trkpt lat="42.56984" lon="18.26761">
        <ele>138.595626</ele>
        <time>2022-06-01T11:06:21.576Z</time>
      </trkpt>
      <trkpt lat="42.56989" lon="18.26747">
        <ele>138.86085</ele>
        <time>2022-06-01T11:06:25.584Z</time>
      </trkpt>
      <trkpt lat="42.56994" lon="18.26733">
        <ele>139.130302</ele>
        <time>2022-06-01T11:06:29.575Z</time>
      </trkpt>
      <trkpt lat="42.56999" lon="18.2672">
        <ele>139.385047</ele>
        <time>2022-06-01T11:06:33.612Z</time>
      </trkpt>
      <trkpt lat="42.57003" lon="18.26706">
        <ele>139.635733</ele>
        <time>2022-06-01T11:06:37.590Z</time>
      </trkpt>
      <trkpt lat="42.57008" lon="18.26694">
        <ele>139.863911</ele>
        <time>2022-06-01T11:06:41.616Z</time>
      </trkpt>
      <trkpt lat="42.57011" lon="18.26683">
        <ele>140.073267</ele>
        <time>2022-06-01T11:06:45.572Z</time>
      </trkpt>
      <trkpt lat="42.57015" lon="18.2667">
        <ele>140.310862</ele>
        <time>2022-06-01T11:06:50.624Z</time>
      </trkpt>
      <trkpt lat="42.57018" lon="18.26658">
        <ele>140.533761</ele>
        <time>2022-06-01T11:06:55.593Z</time>
      </trkpt>
      <trkpt lat="42.57022" lon="18.26645">
        <ele>140.765398</ele>
        <time>2022-06-01T11:07:01.576Z</time>
      </trkpt>
      <trkpt lat="42.57026" lon="18.26632">
        <ele>140.999689</ele>
        <time>2022-06-01T11:07:07.576Z</time>
      </trkpt>
      <trkpt lat="42.57029" lon="18.2662">
        <ele>141.218529</ele>
        <time>2022-06-01T11:07:13.562Z</time>
      </trkpt>
      <trkpt lat="42.57033" lon="18.26609">
        <ele>141.439641</ele>
        <time>2022-06-01T11:07:18.590Z</time>
      </trkpt>
      <trkpt lat="42.57038" lon="18.26596">
        <ele>141.671897</ele>
        <time>2022-06-01T11:07:24.560Z</time>
      </trkpt>
      <trkpt lat="42.57043" lon="18.26585">
        <ele>141.857425</ele>
        <time>2022-06-01T11:07:30.591Z</time>
      </trkpt>
      <trkpt lat="42.57047" lon="18.26572">
        <ele>141.960419</ele>
        <time>2022-06-01T11:07:36.587Z</time>
      </trkpt>
      <trkpt lat="42.57052" lon="18.26561">
        <ele>142.053878</ele>
        <time>2022-06-01T11:07:41.568Z</time>
      </trkpt>
      <trkpt lat="42.57057" lon="18.26551">
        <ele>142.148864</ele>
        <time>2022-06-01T11:07:46.591Z</time>
      </trkpt>
      <trkpt lat="42.57063" lon="18.2654">
        <ele>142.250553</ele>
        <time>2022-06-01T11:07:51.582Z</time>
      </trkpt>
      <trkpt lat="42.57068" lon="18.26527">
        <ele>142.36032</ele>
        <time>2022-06-01T11:07:56.573Z</time>
      </trkpt>
      <trkpt lat="42.57073" lon="18.26516">
        <ele>142.455283</ele>
        <time>2022-06-01T11:08:00.622Z</time>
      </trkpt>
      <trkpt lat="42.57077" lon="18.26504">
        <ele>142.554868</ele>
        <time>2022-06-01T11:08:04.591Z</time>
      </trkpt>
      <trkpt lat="42.5708" lon="18.26492">
        <ele>142.648404</ele>
        <time>2022-06-01T11:08:08.579Z</time>
      </trkpt>
      <trkpt lat="42.57082" lon="18.26479">
        <ele>142.746818</ele>
        <time>2022-06-01T11:08:12.579Z</time>
      </trkpt>
      <trkpt lat="42.57084" lon="18.26466">
        <ele>142.846986</ele>
        <time>2022-06-01T11:08:16.596Z</time>
      </trkpt>
      <trkpt lat="42.57086" lon="18.26454">
        <ele>142.939572</ele>
        <time>2022-06-01T11:08:20.594Z</time>
      </trkpt>
      <trkpt lat="42.57089" lon="18.26442">
        <ele>143.035206</ele>
        <time>2022-06-01T11:08:25.586Z</time>
      </trkpt>
      <trkpt lat="42.57092" lon="18.2643">
        <ele>143.129899</ele>
        <time>2022-06-01T11:08:30.600Z</time>
      </trkpt>
      <trkpt lat="42.57095" lon="18.26417">
        <ele>143.227745</ele>
        <time>2022-06-01T11:08:35.587Z</time>
      </trkpt>
      <trkpt lat="42.57097" lon="18.26405">
        <ele>143.324002</ele>
        <time>2022-06-01T11:08:40.622Z</time>
      </trkpt>
      <trkpt lat="42.57102" lon="18.26392">
        <ele>143.433467</ele>
        <time>2022-06-01T11:08:46.610Z</time>
      </trkpt>
      <trkpt lat="42.57105" lon="18.26379">
        <ele>143.531622</ele>
        <time>2022-06-01T11:08:51.598Z</time>
      </trkpt>
      <trkpt lat="42.5711" lon="18.26368">
        <ele>143.632275</ele>
        <time>2022-06-01T11:08:56.585Z</time>
      </trkpt>
      <trkpt lat="42.57114" lon="18.26357">
        <ele>143.75196</ele>
        <time>2022-06-01T11:09:00.600Z</time>
      </trkpt>
      <trkpt lat="42.57119" lon="18.26345">
        <ele>143.889012</ele>
        <time>2022-06-01T11:09:04.583Z</time>
      </trkpt>
      <trkpt lat="42.57125" lon="18.26331">
        <ele>144.045993</ele>
        <time>2022-06-01T11:09:08.575Z</time>
      </trkpt>
      <trkpt lat="42.5713" lon="18.26319">
        <ele>144.184348</ele>
        <time>2022-06-01T11:09:11.603Z</time>
      </trkpt>
      <trkpt lat="42.57134" lon="18.26306">
        <ele>144.331895</ele>
        <time>2022-06-01T11:09:14.577Z</time>
      </trkpt>
      <trkpt lat="42.57138" lon="18.26292">
        <ele>144.486514</ele>
        <time>2022-06-01T11:09:17.580Z</time>
      </trkpt>
      <trkpt lat="42.57142" lon="18.26278">
        <ele>144.635325</ele>
        <time>2022-06-01T11:09:20.592Z</time>
      </trkpt>
      <trkpt lat="42.57145" lon="18.26265">
        <ele>144.780837</ele>
        <time>2022-06-01T11:09:23.585Z</time>
      </trkpt>
      <trkpt lat="42.57148" lon="18.26252">
        <ele>144.916121</ele>
        <time>2022-06-01T11:09:26.615Z</time>
      </trkpt>
      <trkpt lat="42.57151" lon="18.2624">
        <ele>145.040683</ele>
        <time>2022-06-01T11:09:29.591Z</time>
      </trkpt>
      <trkpt lat="42.57155" lon="18.26226">
        <ele>145.19427</ele>
        <time>2022-06-01T11:09:33.593Z</time>
      </trkpt>
      <trkpt lat="42.5716" lon="18.26213">
        <ele>145.343683</ele>
        <time>2022-06-01T11:09:37.637Z</time>
      </trkpt>
      <trkpt lat="42.57164" lon="18.26199">
        <ele>145.488827</ele>
        <time>2022-06-01T11:09:41.568Z</time>
      </trkpt>
      <trkpt lat="42.57167" lon="18.26186">
        <ele>145.635246</ele>
        <time>2022-06-01T11:09:45.582Z</time>
      </trkpt>
      <trkpt lat="42.57172" lon="18.26171">
        <ele>145.798962</ele>
        <time>2022-06-01T11:09:49.600Z</time>
      </trkpt>
      <trkpt lat="42.57178" lon="18.26159">
        <ele>145.938283</ele>
        <time>2022-06-01T11:09:52.588Z</time>
      </trkpt>
      <trkpt lat="42.57182" lon="18.26148">
        <ele>146.072208</ele>
        <time>2022-06-01T11:09:55.585Z</time>
      </trkpt>
      <trkpt lat="42.57187" lon="18.26135">
        <ele>146.280694</ele>
        <time>2022-06-01T11:09:58.598Z</time>
      </trkpt>
      <trkpt lat="42.57192" lon="18.26122">
        <ele>146.544156</ele>
        <time>2022-06-01T11:10:01.594Z</time>
      </trkpt>
      <trkpt lat="42.57197" lon="18.26109">
        <ele>146.815342</ele>
        <time>2022-06-01T11:10:04.590Z</time>
      </trkpt>
      <trkpt lat="42.57202" lon="18.26096">
        <ele>147.082485</ele>
        <time>2022-06-01T11:10:07.583Z</time>
      </trkpt>
      <trkpt lat="42.57206" lon="18.26083">
        <ele>147.327817</ele>
        <time>2022-06-01T11:10:10.583Z</time>
      </trkpt>
      <trkpt lat="42.5721" lon="18.26071">
        <ele>147.556821</ele>
        <time>2022-06-01T11:10:13.593Z</time>
      </trkpt>
      <trkpt lat="42.57213" lon="18.26059">
        <ele>147.785543</ele>
        <time>2022-06-01T11:10:16.569Z</time>
      </trkpt>
      <trkpt lat="42.57217" lon="18.26048">
        <ele>148.010074</ele>
        <time>2022-06-01T11:10:19.578Z</time>
      </trkpt>
      <trkpt lat="42.5722" lon="18.26033">
        <ele>148.291035</ele>
        <time>2022-06-01T11:10:23.582Z</time>
      </trkpt>
      <trkpt lat="42.57224" lon="18.26017">
        <ele>148.575402</ele>
        <time>2022-06-01T11:10:27.548Z</time>
      </trkpt>
      <trkpt lat="42.57227" lon="18.26002">
        <ele>148.864557</ele>
        <time>2022-06-01T11:10:31.581Z</time>
      </trkpt>
      <trkpt lat="42.57231" lon="18.25987">
        <ele>149.144424</ele>
        <time>2022-06-01T11:10:35.580Z</time>
      </trkpt>
      <trkpt lat="42.57234" lon="18.25973">
        <ele>149.401347</ele>
        <time>2022-06-01T11:10:39.563Z</time>
      </trkpt>
      <trkpt lat="42.57237" lon="18.2596">
        <ele>149.647308</ele>
        <time>2022-06-01T11:10:43.606Z</time>
      </trkpt>
      <trkpt lat="42.57239" lon="18.25947">
        <ele>149.883209</ele>
        <time>2022-06-01T11:10:47.556Z</time>
      </trkpt>
      <trkpt lat="42.57242" lon="18.25934">
        <ele>150.124761</ele>
        <time>2022-06-01T11:10:51.582Z</time>
      </trkpt>
      <trkpt lat="42.57244" lon="18.25921">
        <ele>150.371101</ele>
        <time>2022-06-01T11:10:55.607Z</time>
      </trkpt>
      <trkpt lat="42.57248" lon="18.25908">
        <ele>150.538601</ele>
        <time>2022-06-01T11:10:59.602Z</time>
      </trkpt>
      <trkpt lat="42.57251" lon="18.25895">
        <ele>150.639504</ele>
        <time>2022-06-01T11:11:03.559Z</time>
      </trkpt>
      <trkpt lat="42.57255" lon="18.25882">
        <ele>150.748261</ele>
        <time>2022-06-01T11:11:07.551Z</time>
      </trkpt>
      <trkpt lat="42.57259" lon="18.25869">
        <ele>150.850168</ele>
        <time>2022-06-01T11:11:11.550Z</time>
      </trkpt>
      <trkpt lat="42.57262" lon="18.25856">
        <ele>150.949298</ele>
        <time>2022-06-01T11:11:15.561Z</time>
      </trkpt>
      <trkpt lat="42.57266" lon="18.25843">
        <ele>151.052944</ele>
        <time>2022-06-01T11:11:19.549Z</time>
      </trkpt>
      <trkpt lat="42.57268" lon="18.25829">
        <ele>151.159496</ele>
        <time>2022-06-01T11:11:23.576Z</time>
      </trkpt>
      <trkpt lat="42.57272" lon="18.25815">
        <ele>151.26909</ele>
        <time>2022-06-01T11:11:27.547Z</time>
      </trkpt>
      <trkpt lat="42.57276" lon="18.258">
        <ele>151.38561</ele>
        <time>2022-06-01T11:11:31.549Z</time>
      </trkpt>
      <trkpt lat="42.57279" lon="18.25786">
        <ele>151.498335</ele>
        <time>2022-06-01T11:11:35.555Z</time>
      </trkpt>
      <trkpt lat="42.57283" lon="18.25772">
        <ele>151.61106</ele>
        <time>2022-06-01T11:11:39.551Z</time>
      </trkpt>
      <trkpt lat="42.57287" lon="18.25758">
        <ele>151.72062</ele>
        <time>2022-06-01T11:11:43.546Z</time>
      </trkpt>
      <trkpt lat="42.57291" lon="18.25743">
        <ele>151.838179</ele>
        <time>2022-06-01T11:11:47.548Z</time>
      </trkpt>
      <trkpt lat="42.57294" lon="18.25728">
        <ele>151.953012</ele>
        <time>2022-06-01T11:11:51.546Z</time>
      </trkpt>
      <trkpt lat="42.57298" lon="18.25714">
        <ele>152.065737</ele>
        <time>2022-06-01T11:11:55.558Z</time>
      </trkpt>
      <trkpt lat="42.57301" lon="18.257">
        <ele>152.175406</ele>
        <time>2022-06-01T11:11:59.550Z</time>
      </trkpt>
      <trkpt lat="42.57305" lon="18.25685">
        <ele>152.286404</ele>
        <time>2022-06-01T11:12:03.573Z</time>
      </trkpt>
      <trkpt lat="42.57308" lon="18.25671">
        <ele>152.369236</ele>
        <time>2022-06-01T11:12:07.549Z</time>
      </trkpt>
      <trkpt lat="42.57311" lon="18.25658">
        <ele>152.448072</ele>
        <time>2022-06-01T11:12:11.550Z</time>
      </trkpt>
      <trkpt lat="42.57315" lon="18.25644">
        <ele>152.527891</ele>
        <time>2022-06-01T11:12:15.580Z</time>
      </trkpt>
      <trkpt lat="42.57318" lon="18.25629">
        <ele>152.610152</ele>
        <time>2022-06-01T11:12:19.552Z</time>
      </trkpt>
      <trkpt lat="42.57322" lon="18.25615">
        <ele>152.692026</ele>
        <time>2022-06-01T11:12:23.585Z</time>
      </trkpt>
      <trkpt lat="42.57325" lon="18.256">
        <ele>152.773305</ele>
        <time>2022-06-01T11:12:27.573Z</time>
      </trkpt>
      <trkpt lat="42.57329" lon="18.25587">
        <ele>152.851604</ele>
        <time>2022-06-01T11:12:31.556Z</time>
      </trkpt>
      <trkpt lat="42.57332" lon="18.25574">
        <ele>152.925863</ele>
        <time>2022-06-01T11:12:35.559Z</time>
      </trkpt>
      <trkpt lat="42.57335" lon="18.25561">
        <ele>152.999153</ele>
        <time>2022-06-01T11:12:39.572Z</time>
      </trkpt>
      <trkpt lat="42.57338" lon="18.25547">
        <ele>153.076067</ele>
        <time>2022-06-01T11:12:43.556Z</time>
      </trkpt>
      <trkpt lat="42.5734" lon="18.25534">
        <ele>153.148016</ele>
        <time>2022-06-01T11:12:47.557Z</time>
      </trkpt>
      <trkpt lat="42.57343" lon="18.25522">
        <ele>153.218429</ele>
        <time>2022-06-01T11:12:51.567Z</time>
      </trkpt>
      <trkpt lat="42.57347" lon="18.25509">
        <ele>153.295196</ele>
        <time>2022-06-01T11:12:55.560Z</time>
      </trkpt>
      <trkpt lat="42.5735" lon="18.25495">
        <ele>153.372325</ele>
        <time>2022-06-01T11:12:59.549Z</time>
      </trkpt>
      <trkpt lat="42.57353" lon="18.25481">
        <ele>153.452564</ele>
        <time>2022-06-01T11:13:03.552Z</time>
      </trkpt>
      <trkpt lat="42.57356" lon="18.25469">
        <ele>153.523508</ele>
        <time>2022-06-01T11:13:07.553Z</time>
      </trkpt>
      <trkpt lat="42.57359" lon="18.25457">
        <ele>153.592141</ele>
        <time>2022-06-01T11:13:11.555Z</time>
      </trkpt>
      <trkpt lat="42.57362" lon="18.25443">
        <ele>153.922213</ele>
        <time>2022-06-01T11:13:15.550Z</time>
      </trkpt>
      <trkpt lat="42.57366" lon="18.25431">
        <ele>154.396324</ele>
        <time>2022-06-01T11:13:19.571Z</time>
      </trkpt>
      <trkpt lat="42.5737" lon="18.25418">
        <ele>154.884116</ele>
        <time>2022-06-01T11:13:23.560Z</time>
      </trkpt>
      <trkpt lat="42.57372" lon="18.25405">
        <ele>155.335764</ele>
        <time>2022-06-01T11:13:27.568Z</time>
      </trkpt>
      <trkpt lat="42.57375" lon="18.25393">
        <ele>155.788255</ele>
        <time>2022-06-01T11:13:31.571Z</time>
      </trkpt>
      <trkpt lat="42.57378" lon="18.25381">
        <ele>156.222937</ele>
        <time>2022-06-01T11:13:35.558Z</time>
      </trkpt>
      <trkpt lat="42.57381" lon="18.25368">
        <ele>156.676897</ele>
        <time>2022-06-01T11:13:39.550Z</time>
      </trkpt>
      <trkpt lat="42.57385" lon="18.25357">
        <ele>157.102527</ele>
        <time>2022-06-01T11:13:43.546Z</time>
      </trkpt>
      <trkpt lat="42.5739" lon="18.25344">
        <ele>157.59904</ele>
        <time>2022-06-01T11:13:48.579Z</time>
      </trkpt>
      <trkpt lat="42.57394" lon="18.25333">
        <ele>158.032127</ele>
        <time>2022-06-01T11:13:52.567Z</time>
      </trkpt>
      <trkpt lat="42.57399" lon="18.25322">
        <ele>158.478791</ele>
        <time>2022-06-01T11:13:56.567Z</time>
      </trkpt>
      <trkpt lat="42.57404" lon="18.25311">
        <ele>158.918858</ele>
        <time>2022-06-01T11:14:00.550Z</time>
      </trkpt>
      <trkpt lat="42.57409" lon="18.25299">
        <ele>159.383317</ele>
        <time>2022-06-01T11:14:04.555Z</time>
      </trkpt>
      <trkpt lat="42.57414" lon="18.25289">
        <ele>159.806776</ele>
        <time>2022-06-01T11:14:08.559Z</time>
      </trkpt>
      <trkpt lat="42.57419" lon="18.25276">
        <ele>160.319804</ele>
        <time>2022-06-01T11:14:13.559Z</time>
      </trkpt>
      <trkpt lat="42.57424" lon="18.25265">
        <ele>160.749207</ele>
        <time>2022-06-01T11:14:17.554Z</time>
      </trkpt>
      <trkpt lat="42.5743" lon="18.25252">
        <ele>161.271065</ele>
        <time>2022-06-01T11:14:22.586Z</time>
      </trkpt>
      <trkpt lat="42.57434" lon="18.25242">
        <ele>161.694523</ele>
        <time>2022-06-01T11:14:26.553Z</time>
      </trkpt>
      <trkpt lat="42.57437" lon="18.25229">
        <ele>162.001166</ele>
        <time>2022-06-01T11:14:30.554Z</time>
      </trkpt>
      <trkpt lat="42.57441" lon="18.25217">
        <ele>161.905756</ele>
        <time>2022-06-01T11:14:34.555Z</time>
      </trkpt>
      <trkpt lat="42.57445" lon="18.25203">
        <ele>161.797011</ele>
        <time>2022-06-01T11:14:39.558Z</time>
      </trkpt>
      <trkpt lat="42.57449" lon="18.25189">
        <ele>161.687844</ele>
        <time>2022-06-01T11:14:44.581Z</time>
      </trkpt>
      <trkpt lat="42.57453" lon="18.25175">
        <ele>161.576166</ele>
        <time>2022-06-01T11:14:49.555Z</time>
      </trkpt>
      <trkpt lat="42.57456" lon="18.25161">
        <ele>161.466317</ele>
        <time>2022-06-01T11:14:54.550Z</time>
      </trkpt>
      <trkpt lat="42.57458" lon="18.25148">
        <ele>161.370678</ele>
        <time>2022-06-01T11:14:58.552Z</time>
      </trkpt>
      <trkpt lat="42.57459" lon="18.25135">
        <ele>161.273315</ele>
        <time>2022-06-01T11:15:02.553Z</time>
      </trkpt>
      <trkpt lat="42.5746" lon="18.25121">
        <ele>161.173778</ele>
        <time>2022-06-01T11:15:06.548Z</time>
      </trkpt>
      <trkpt lat="42.57461" lon="18.25108">
        <ele>161.075932</ele>
        <time>2022-06-01T11:15:10.564Z</time>
      </trkpt>
      <trkpt lat="42.57463" lon="18.25095">
        <ele>160.982455</ele>
        <time>2022-06-01T11:15:14.559Z</time>
      </trkpt>
      <trkpt lat="42.57465" lon="18.25083">
        <ele>160.889142</ele>
        <time>2022-06-01T11:15:18.572Z</time>
      </trkpt>
      <trkpt lat="42.57466" lon="18.2507">
        <ele>160.793089</ele>
        <time>2022-06-01T11:15:22.557Z</time>
      </trkpt>
      <trkpt lat="42.57467" lon="18.25057">
        <ele>160.699173</ele>
        <time>2022-06-01T11:15:26.553Z</time>
      </trkpt>
      <trkpt lat="42.57468" lon="18.25044">
        <ele>160.60095</ele>
        <time>2022-06-01T11:15:30.554Z</time>
      </trkpt>
      <trkpt lat="42.5747" lon="18.25031">
        <ele>160.504898</ele>
        <time>2022-06-01T11:15:34.563Z</time>
      </trkpt>
      <trkpt lat="42.57471" lon="18.25017">
        <ele>160.404931</ele>
        <time>2022-06-01T11:15:38.564Z</time>
      </trkpt>
      <trkpt lat="42.57473" lon="18.25005">
        <ele>160.310026</ele>
        <time>2022-06-01T11:15:42.582Z</time>
      </trkpt>
      <trkpt lat="42.57476" lon="18.24992">
        <ele>160.283966</ele>
        <time>2022-06-01T11:15:46.604Z</time>
      </trkpt>
      <trkpt lat="42.57478" lon="18.24978">
        <ele>160.483121</ele>
        <time>2022-06-01T11:15:50.569Z</time>
      </trkpt>
      <trkpt lat="42.57479" lon="18.24964">
        <ele>160.667051</ele>
        <time>2022-06-01T11:15:54.614Z</time>
      </trkpt>
      <trkpt lat="42.57481" lon="18.24951">
        <ele>160.849257</ele>
        <time>2022-06-01T11:15:58.578Z</time>
      </trkpt>
      <trkpt lat="42.57483" lon="18.24937">
        <ele>161.035173</ele>
        <time>2022-06-01T11:16:02.581Z</time>
      </trkpt>
      <trkpt lat="42.57485" lon="18.24924">
        <ele>161.220179</ele>
        <time>2022-06-01T11:16:06.576Z</time>
      </trkpt>
      <trkpt lat="42.57488" lon="18.24911">
        <ele>161.405184</ele>
        <time>2022-06-01T11:16:10.569Z</time>
      </trkpt>
      <trkpt lat="42.57489" lon="18.24898">
        <ele>161.578992</ele>
        <time>2022-06-01T11:16:14.578Z</time>
      </trkpt>
      <trkpt lat="42.57491" lon="18.24885">
        <ele>161.76446</ele>
        <time>2022-06-01T11:16:19.574Z</time>
      </trkpt>
      <trkpt lat="42.57494" lon="18.24872">
        <ele>161.941934</ele>
        <time>2022-06-01T11:16:26.584Z</time>
      </trkpt>
      <trkpt lat="42.57487" lon="18.24881">
        <ele>162.111472</ele>
        <time>2022-06-01T11:16:41.582Z</time>
      </trkpt>
      <trkpt lat="42.57494" lon="18.24891">
        <ele>162.294803</ele>
        <time>2022-06-01T11:16:48.586Z</time>
      </trkpt>
      <trkpt lat="42.57497" lon="18.24878">
        <ele>162.4759</ele>
        <time>2022-06-01T11:18:22.616Z</time>
      </trkpt>
      <trkpt lat="42.57499" lon="18.24848">
        <ele>162.886808</ele>
        <time>2022-06-01T11:18:48.582Z</time>
      </trkpt>
      <trkpt lat="42.575" lon="18.24835">
        <ele>163.060199</ele>
        <time>2022-06-01T11:18:52.587Z</time>
      </trkpt>
      <trkpt lat="42.57501" lon="18.2482">
        <ele>163.261426</ele>
        <time>2022-06-01T11:18:57.598Z</time>
      </trkpt>
      <trkpt lat="42.57503" lon="18.24806">
        <ele>163.456543</ele>
        <time>2022-06-01T11:19:02.596Z</time>
      </trkpt>
      <trkpt lat="42.57506" lon="18.24794">
        <ele>163.798548</ele>
        <time>2022-06-01T11:19:06.581Z</time>
      </trkpt>
      <trkpt lat="42.5751" lon="18.24782">
        <ele>164.375832</ele>
        <time>2022-06-01T11:19:10.570Z</time>
      </trkpt>
      <trkpt lat="42.57512" lon="18.2477">
        <ele>164.920842</ele>
        <time>2022-06-01T11:19:14.580Z</time>
      </trkpt>
      <trkpt lat="42.57514" lon="18.24756">
        <ele>165.550463</ele>
        <time>2022-06-01T11:19:19.592Z</time>
      </trkpt>
      <trkpt lat="42.5752" lon="18.24746">
        <ele>166.088996</ele>
        <time>2022-06-01T11:19:24.607Z</time>
      </trkpt>
      <trkpt lat="42.57527" lon="18.24739">
        <ele>166.621768</ele>
        <time>2022-06-01T11:19:29.587Z</time>
      </trkpt>
      <trkpt lat="42.57535" lon="18.24732">
        <ele>167.191375</ele>
        <time>2022-06-01T11:19:35.588Z</time>
      </trkpt>
      <trkpt lat="42.5754" lon="18.2472">
        <ele>167.794873</ele>
        <time>2022-06-01T11:19:41.616Z</time>
      </trkpt>
      <trkpt lat="42.57544" lon="18.24708">
        <ele>168.38744</ele>
        <time>2022-06-01T11:19:47.581Z</time>
      </trkpt>
      <trkpt lat="42.5755" lon="18.24696">
        <ele>168.981672</ele>
        <time>2022-06-01T11:19:53.592Z</time>
      </trkpt>
      <trkpt lat="42.57553" lon="18.24684">
        <ele>169.552047</ele>
        <time>2022-06-01T11:19:59.567Z</time>
      </trkpt>
      <trkpt lat="42.57556" lon="18.24673">
        <ele>170.089352</ele>
        <time>2022-06-01T11:20:05.581Z</time>
      </trkpt>
      <trkpt lat="42.57559" lon="18.24661">
        <ele>170.639086</ele>
        <time>2022-06-01T11:20:11.578Z</time>
      </trkpt>
      <trkpt lat="42.57564" lon="18.24648">
        <ele>171.247556</ele>
        <time>2022-06-01T11:20:17.570Z</time>
      </trkpt>
      <trkpt lat="42.57568" lon="18.24636">
        <ele>171.811337</ele>
        <time>2022-06-01T11:20:23.572Z</time>
      </trkpt>
      <trkpt lat="42.57572" lon="18.24623">
        <ele>172.441504</ele>
        <time>2022-06-01T11:20:30.584Z</time>
      </trkpt>
      <trkpt lat="42.57576" lon="18.24609">
        <ele>173.095938</ele>
        <time>2022-06-01T11:20:37.563Z</time>
      </trkpt>
      <trkpt lat="42.57579" lon="18.24597">
        <ele>173.65789</ele>
        <time>2022-06-01T11:20:42.585Z</time>
      </trkpt>
      <trkpt lat="42.57582" lon="18.24585">
        <ele>174.209556</ele>
        <time>2022-06-01T11:20:46.588Z</time>
      </trkpt>
      <trkpt lat="42.57586" lon="18.24572">
        <ele>174.27303</ele>
        <time>2022-06-01T11:20:50.573Z</time>
      </trkpt>
      <trkpt lat="42.5759" lon="18.2456">
        <ele>174.321589</ele>
        <time>2022-06-01T11:20:53.617Z</time>
      </trkpt>
      <trkpt lat="42.57594" lon="18.24547">
        <ele>174.374876</ele>
        <time>2022-06-01T11:20:56.599Z</time>
      </trkpt>
      <trkpt lat="42.57598" lon="18.24532">
        <ele>174.433214</ele>
        <time>2022-06-01T11:20:59.575Z</time>
      </trkpt>
      <trkpt lat="42.576" lon="18.2452">
        <ele>174.478903</ele>
        <time>2022-06-01T11:21:01.573Z</time>
      </trkpt>
      <trkpt lat="42.57603" lon="18.24508">
        <ele>174.527964</ele>
        <time>2022-06-01T11:21:03.577Z</time>
      </trkpt>
      <trkpt lat="42.57608" lon="18.24495">
        <ele>174.58192</ele>
        <time>2022-06-01T11:21:05.577Z</time>
      </trkpt>
      <trkpt lat="42.57613" lon="18.24482">
        <ele>174.634103</ele>
        <time>2022-06-01T11:21:07.595Z</time>
      </trkpt>
      <trkpt lat="42.57617" lon="18.2447">
        <ele>174.683314</ele>
        <time>2022-06-01T11:21:09.583Z</time>
      </trkpt>
      <trkpt lat="42.57621" lon="18.24455">
        <ele>174.74384</ele>
        <time>2022-06-01T11:21:12.576Z</time>
      </trkpt>
      <trkpt lat="42.57626" lon="18.2444">
        <ele>174.802326</ele>
        <time>2022-06-01T11:21:15.624Z</time>
      </trkpt>
      <trkpt lat="42.5763" lon="18.24429">
        <ele>174.848615</ele>
        <time>2022-06-01T11:21:18.570Z</time>
      </trkpt>
      <trkpt lat="42.57634" lon="18.24415">
        <ele>174.903226</ele>
        <time>2022-06-01T11:21:21.581Z</time>
      </trkpt>
      <trkpt lat="42.57637" lon="18.24402">
        <ele>174.954215</ele>
        <time>2022-06-01T11:21:24.585Z</time>
      </trkpt>
      <trkpt lat="42.57642" lon="18.24391">
        <ele>175.000881</ele>
        <time>2022-06-01T11:21:27.576Z</time>
      </trkpt>
      <trkpt lat="42.57646" lon="18.24378">
        <ele>175.051437</ele>
        <time>2022-06-01T11:21:30.589Z</time>
      </trkpt>
      <trkpt lat="42.5765" lon="18.24367">
        <ele>175.099223</ele>
        <time>2022-06-01T11:21:33.571Z</time>
      </trkpt>
      <trkpt lat="42.57655" lon="18.24353">
        <ele>175.154941</ele>
        <time>2022-06-01T11:21:37.561Z</time>
      </trkpt>
      <trkpt lat="42.57662" lon="18.24342">
        <ele>175.205916</ele>
        <time>2022-06-01T11:21:42.563Z</time>
      </trkpt>
      <trkpt lat="42.57668" lon="18.24331">
        <ele>175.256406</ele>
        <time>2022-06-01T11:21:46.578Z</time>
      </trkpt>
      <trkpt lat="42.57674" lon="18.2432">
        <ele>175.304981</ele>
        <time>2022-06-01T11:21:49.611Z</time>
      </trkpt>
      <trkpt lat="42.57679" lon="18.24308">
        <ele>175.353957</ele>
        <time>2022-06-01T11:21:52.590Z</time>
      </trkpt>
      <trkpt lat="42.57684" lon="18.24296">
        <ele>175.401508</ele>
        <time>2022-06-01T11:21:56.587Z</time>
      </trkpt>
      <trkpt lat="42.57678" lon="18.24285">
        <ele>175.448062</ele>
        <time>2022-06-01T11:22:01.592Z</time>
      </trkpt>
      <trkpt lat="42.57697" lon="18.24277">
        <ele>175.540828</ele>
        <time>2022-06-01T11:48:24.607Z</time>
      </trkpt>
      <trkpt lat="42.57703" lon="18.24268">
        <ele>175.587603</ele>
        <time>2022-06-01T11:48:27.580Z</time>
      </trkpt>
      <trkpt lat="42.57712" lon="18.24274">
        <ele>175.634268</ele>
        <time>2022-06-01T11:48:31.689Z</time>
      </trkpt>
      <trkpt lat="42.57723" lon="18.24278">
        <ele>175.69086</ele>
        <time>2022-06-01T11:48:34.566Z</time>
      </trkpt>
      <trkpt lat="42.57733" lon="18.24284">
        <ele>175.744764</ele>
        <time>2022-06-01T11:48:37.557Z</time>
      </trkpt>
      <trkpt lat="42.57742" lon="18.24291">
        <ele>175.793044</ele>
        <time>2022-06-01T11:48:40.587Z</time>
      </trkpt>
      <trkpt lat="42.57751" lon="18.24298">
        <ele>175.842967</ele>
        <time>2022-06-01T11:48:43.559Z</time>
      </trkpt>
      <trkpt lat="42.57759" lon="18.24305">
        <ele>175.890083</ele>
        <time>2022-06-01T11:48:46.559Z</time>
      </trkpt>
      <trkpt lat="42.57768" lon="18.24312">
        <ele>175.939699</ele>
        <time>2022-06-01T11:48:49.561Z</time>
      </trkpt>
      <trkpt lat="42.57778" lon="18.2432">
        <ele>175.994014</ele>
        <time>2022-06-01T11:48:53.568Z</time>
      </trkpt>
      <trkpt lat="42.57787" lon="18.24325">
        <ele>176.338367</ele>
        <time>2022-06-01T11:48:57.569Z</time>
      </trkpt>
      <trkpt lat="42.57796" lon="18.24331">
        <ele>176.69673</ele>
        <time>2022-06-01T11:49:01.575Z</time>
      </trkpt>
      <trkpt lat="42.57806" lon="18.24337">
        <ele>177.074049</ele>
        <time>2022-06-01T11:49:06.570Z</time>
      </trkpt>
      <trkpt lat="42.57819" lon="18.24345">
        <ele>177.542997</ele>
        <time>2022-06-01T11:49:12.580Z</time>
      </trkpt>
      <trkpt lat="42.57828" lon="18.24352">
        <ele>177.937596</ele>
        <time>2022-06-01T11:49:16.581Z</time>
      </trkpt>
      <trkpt lat="42.57837" lon="18.24359">
        <ele>178.290685</ele>
        <time>2022-06-01T11:49:21.564Z</time>
      </trkpt>
      <trkpt lat="42.57847" lon="18.24364">
        <ele>178.633583</ele>
        <time>2022-06-01T11:49:27.573Z</time>
      </trkpt>
      <trkpt lat="42.57855" lon="18.24369">
        <ele>178.950131</ele>
        <time>2022-06-01T11:49:33.573Z</time>
      </trkpt>
      <trkpt lat="42.57864" lon="18.24374">
        <ele>179.287537</ele>
        <time>2022-06-01T11:49:40.574Z</time>
      </trkpt>
      <trkpt lat="42.57871" lon="18.24362">
        <ele>179.689691</ele>
        <time>2022-06-01T11:49:48.642Z</time>
      </trkpt>
      <trkpt lat="42.57869" lon="18.24345">
        <ele>180.13104</ele>
        <time>2022-06-01T11:49:51.581Z</time>
      </trkpt>
      <trkpt lat="42.57868" lon="18.24332">
        <ele>180.48912</ele>
        <time>2022-06-01T11:49:53.577Z</time>
      </trkpt>
      <trkpt lat="42.57865" lon="18.24317">
        <ele>180.868095</ele>
        <time>2022-06-01T11:49:55.582Z</time>
      </trkpt>
      <trkpt lat="42.57863" lon="18.24303">
        <ele>181.227452</ele>
        <time>2022-06-01T11:49:57.568Z</time>
      </trkpt>
      <trkpt lat="42.57861" lon="18.2429">
        <ele>181.574993</ele>
        <time>2022-06-01T11:49:59.569Z</time>
      </trkpt>
      <trkpt lat="42.57859" lon="18.24276">
        <ele>181.938099</ele>
        <time>2022-06-01T11:50:01.583Z</time>
      </trkpt>
      <trkpt lat="42.57856" lon="18.2426">
        <ele>181.990753</ele>
        <time>2022-06-01T11:50:03.569Z</time>
      </trkpt>
      <trkpt lat="42.57854" lon="18.24246">
        <ele>181.171575</ele>
        <time>2022-06-01T11:50:05.588Z</time>
      </trkpt>
      <trkpt lat="42.57851" lon="18.24232">
        <ele>180.443886</ele>
        <time>2022-06-01T11:50:07.575Z</time>
      </trkpt>
      <trkpt lat="42.57849" lon="18.24218">
        <ele>179.663144</ele>
        <time>2022-06-01T11:50:09.584Z</time>
      </trkpt>
      <trkpt lat="42.57846" lon="18.24203">
        <ele>178.818532</ele>
        <time>2022-06-01T11:50:11.607Z</time>
      </trkpt>
      <trkpt lat="42.57843" lon="18.24188">
        <ele>177.982544</ele>
        <time>2022-06-01T11:50:13.568Z</time>
      </trkpt>
      <trkpt lat="42.5784" lon="18.24173">
        <ele>177.162188</ele>
        <time>2022-06-01T11:50:15.581Z</time>
      </trkpt>
      <trkpt lat="42.57838" lon="18.24159">
        <ele>176.348913</ele>
        <time>2022-06-01T11:50:17.565Z</time>
      </trkpt>
      <trkpt lat="42.57834" lon="18.24144">
        <ele>175.520495</ele>
        <time>2022-06-01T11:50:19.579Z</time>
      </trkpt>
      <trkpt lat="42.57831" lon="18.24131">
        <ele>174.777946</ele>
        <time>2022-06-01T11:50:21.566Z</time>
      </trkpt>
      <trkpt lat="42.57828" lon="18.24116">
        <ele>173.959834</ele>
        <time>2022-06-01T11:50:24.590Z</time>
      </trkpt>
      <trkpt lat="42.57825" lon="18.241">
        <ele>173.073199</ele>
        <time>2022-06-01T11:50:28.606Z</time>
      </trkpt>
      <trkpt lat="42.57822" lon="18.24089">
        <ele>172.410499</ele>
        <time>2022-06-01T11:50:32.582Z</time>
      </trkpt>
      <trkpt lat="42.57823" lon="18.24074">
        <ele>171.607874</ele>
        <time>2022-06-01T11:50:37.572Z</time>
      </trkpt>
      <trkpt lat="42.57819" lon="18.24071">
        <ele>171.288775</ele>
        <time>2022-06-01T11:52:16.753Z</time>
      </trkpt>
      <trkpt lat="42.57818" lon="18.24051">
        <ele>170.205084</ele>
        <time>2022-06-01T11:59:29.588Z</time>
      </trkpt>
      <trkpt lat="42.57814" lon="18.24038">
        <ele>169.43778</ele>
        <time>2022-06-01T11:59:34.593Z</time>
      </trkpt>
      <trkpt lat="42.57809" lon="18.24026">
        <ele>168.479901</ele>
        <time>2022-06-01T11:59:38.570Z</time>
      </trkpt>
      <trkpt lat="42.57803" lon="18.24011">
        <ele>167.134488</ele>
        <time>2022-06-01T11:59:42.581Z</time>
      </trkpt>
      <trkpt lat="42.57799" lon="18.24001">
        <ele>166.085415</ele>
        <time>2022-06-01T11:59:46.586Z</time>
      </trkpt>
      <trkpt lat="42.57794" lon="18.23987">
        <ele>164.779791</ele>
        <time>2022-06-01T11:59:50.583Z</time>
      </trkpt>
      <trkpt lat="42.57789" lon="18.23975">
        <ele>163.724835</ele>
        <time>2022-06-01T11:59:53.573Z</time>
      </trkpt>
      <trkpt lat="42.57784" lon="18.23964">
        <ele>162.620096</ele>
        <time>2022-06-01T11:59:56.599Z</time>
      </trkpt>
      <trkpt lat="42.57778" lon="18.23951">
        <ele>161.364638</ele>
        <time>2022-06-01T11:59:59.563Z</time>
      </trkpt>
      <trkpt lat="42.57773" lon="18.23941">
        <ele>160.337512</ele>
        <time>2022-06-01T12:00:01.567Z</time>
      </trkpt>
      <trkpt lat="42.57769" lon="18.23929">
        <ele>159.228861</ele>
        <time>2022-06-01T12:00:03.588Z</time>
      </trkpt>
      <trkpt lat="42.57764" lon="18.23917">
        <ele>158.075307</ele>
        <time>2022-06-01T12:00:05.582Z</time>
      </trkpt>
      <trkpt lat="42.57758" lon="18.23905">
        <ele>156.936144</ele>
        <time>2022-06-01T12:00:07.572Z</time>
      </trkpt>
      <trkpt lat="42.57754" lon="18.23894">
        <ele>155.869707</ele>
        <time>2022-06-01T12:00:09.566Z</time>
      </trkpt>
      <trkpt lat="42.57753" lon="18.23876">
        <ele>154.4068</ele>
        <time>2022-06-01T12:00:12.601Z</time>
      </trkpt>
      <trkpt lat="42.57755" lon="18.23863">
        <ele>153.212767</ele>
        <time>2022-06-01T12:00:16.587Z</time>
      </trkpt>
      <trkpt lat="42.57759" lon="18.2385">
        <ele>152.038446</ele>
        <time>2022-06-01T12:00:22.591Z</time>
      </trkpt>
      <trkpt lat="42.57764" lon="18.23839">
        <ele>151.018259</ele>
        <time>2022-06-01T12:00:25.642Z</time>
      </trkpt>
      <trkpt lat="42.57773" lon="18.23827">
        <ele>149.558587</ele>
        <time>2022-06-01T12:00:28.593Z</time>
      </trkpt>
      <trkpt lat="42.57781" lon="18.23817">
        <ele>148.592317</ele>
        <time>2022-06-01T12:00:30.590Z</time>
      </trkpt>
      <trkpt lat="42.57788" lon="18.23806">
        <ele>148.122251</ele>
        <time>2022-06-01T12:00:32.595Z</time>
      </trkpt>
      <trkpt lat="42.57797" lon="18.23795">
        <ele>147.639233</ele>
        <time>2022-06-01T12:00:34.603Z</time>
      </trkpt>
      <trkpt lat="42.57804" lon="18.23784">
        <ele>147.144256</ele>
        <time>2022-06-01T12:00:36.626Z</time>
      </trkpt>
      <trkpt lat="42.57812" lon="18.23772">
        <ele>146.644167</ele>
        <time>2022-06-01T12:00:38.580Z</time>
      </trkpt>
      <trkpt lat="42.5782" lon="18.23759">
        <ele>146.087334</ele>
        <time>2022-06-01T12:00:40.585Z</time>
      </trkpt>
      <trkpt lat="42.57829" lon="18.23746">
        <ele>145.537118</ele>
        <time>2022-06-01T12:00:42.587Z</time>
      </trkpt>
      <trkpt lat="42.57837" lon="18.23734">
        <ele>145.038085</ele>
        <time>2022-06-01T12:00:44.604Z</time>
      </trkpt>
      <trkpt lat="42.57844" lon="18.23722">
        <ele>144.527967</ele>
        <time>2022-06-01T12:00:46.582Z</time>
      </trkpt>
      <trkpt lat="42.57853" lon="18.23709">
        <ele>143.993953</ele>
        <time>2022-06-01T12:00:48.581Z</time>
      </trkpt>
      <trkpt lat="42.57862" lon="18.23696">
        <ele>143.415799</ele>
        <time>2022-06-01T12:00:50.575Z</time>
      </trkpt>
      <trkpt lat="42.57871" lon="18.23683">
        <ele>142.865585</ele>
        <time>2022-06-01T12:00:52.590Z</time>
      </trkpt>
      <trkpt lat="42.57879" lon="18.23671">
        <ele>142.331572</ele>
        <time>2022-06-01T12:00:54.572Z</time>
      </trkpt>
      <trkpt lat="42.57888" lon="18.23657">
        <ele>141.754594</ele>
        <time>2022-06-01T12:00:56.662Z</time>
      </trkpt>
      <trkpt lat="42.57898" lon="18.23644">
        <ele>141.154407</ele>
        <time>2022-06-01T12:00:58.569Z</time>
      </trkpt>
      <trkpt lat="42.57909" lon="18.23632">
        <ele>140.342549</ele>
        <time>2022-06-01T12:01:00.582Z</time>
      </trkpt>
      <trkpt lat="42.57919" lon="18.23619">
        <ele>139.440158</ele>
        <time>2022-06-01T12:01:02.589Z</time>
      </trkpt>
      <trkpt lat="42.57931" lon="18.23608">
        <ele>138.51479</ele>
        <time>2022-06-01T12:01:04.577Z</time>
      </trkpt>
      <trkpt lat="42.57943" lon="18.23597">
        <ele>137.58478</ele>
        <time>2022-06-01T12:01:06.582Z</time>
      </trkpt>
      <trkpt lat="42.57956" lon="18.23586">
        <ele>136.590998</ele>
        <time>2022-06-01T12:01:08.569Z</time>
      </trkpt>
      <trkpt lat="42.57972" lon="18.23577">
        <ele>135.525828</ele>
        <time>2022-06-01T12:01:10.612Z</time>
      </trkpt>
      <trkpt lat="42.57988" lon="18.23568">
        <ele>134.385376</ele>
        <time>2022-06-01T12:01:12.665Z</time>
      </trkpt>
      <trkpt lat="42.58004" lon="18.2356">
        <ele>133.306199</ele>
        <time>2022-06-01T12:01:14.591Z</time>
      </trkpt>
      <trkpt lat="42.5802" lon="18.23551">
        <ele>132.201476</ele>
        <time>2022-06-01T12:01:16.577Z</time>
      </trkpt>
      <trkpt lat="42.58036" lon="18.23542">
        <ele>131.042162</ele>
        <time>2022-06-01T12:01:18.562Z</time>
      </trkpt>
      <trkpt lat="42.58045" lon="18.23538">
        <ele>130.445805</ele>
        <time>2022-06-01T12:01:19.583Z</time>
      </trkpt>
      <trkpt lat="42.58054" lon="18.23533">
        <ele>129.863139</ele>
        <time>2022-06-01T12:01:20.580Z</time>
      </trkpt>
      <trkpt lat="42.58063" lon="18.23529">
        <ele>129.290424</ele>
        <time>2022-06-01T12:01:21.619Z</time>
      </trkpt>
      <trkpt lat="42.58072" lon="18.23525">
        <ele>128.791887</ele>
        <time>2022-06-01T12:01:22.582Z</time>
      </trkpt>
      <trkpt lat="42.58082" lon="18.23521">
        <ele>128.284815</ele>
        <time>2022-06-01T12:01:23.590Z</time>
      </trkpt>
      <trkpt lat="42.58091" lon="18.23517">
        <ele>127.794543</ele>
        <time>2022-06-01T12:01:24.641Z</time>
      </trkpt>
      <trkpt lat="42.581" lon="18.23514">
        <ele>127.324754</ele>
        <time>2022-06-01T12:01:25.575Z</time>
      </trkpt>
      <trkpt lat="42.58109" lon="18.23511">
        <ele>126.869183</ele>
        <time>2022-06-01T12:01:26.569Z</time>
      </trkpt>
      <trkpt lat="42.58126" lon="18.23507">
        <ele>125.987437</ele>
        <time>2022-06-01T12:01:28.578Z</time>
      </trkpt>
      <trkpt lat="42.58142" lon="18.23502">
        <ele>125.139038</ele>
        <time>2022-06-01T12:01:30.550Z</time>
      </trkpt>
      <trkpt lat="42.58158" lon="18.23497">
        <ele>124.320651</ele>
        <time>2022-06-01T12:01:32.560Z</time>
      </trkpt>
      <trkpt lat="42.58176" lon="18.23492">
        <ele>123.418523</ele>
        <time>2022-06-01T12:01:34.570Z</time>
      </trkpt>
      <trkpt lat="42.58193" lon="18.23487">
        <ele>122.520426</ele>
        <time>2022-06-01T12:01:36.567Z</time>
      </trkpt>
      <trkpt lat="42.58202" lon="18.23484">
        <ele>122.054999</ele>
        <time>2022-06-01T12:01:37.559Z</time>
      </trkpt>
      <trkpt lat="42.58212" lon="18.23481">
        <ele>121.536203</ele>
        <time>2022-06-01T12:01:38.550Z</time>
      </trkpt>
      <trkpt lat="42.58222" lon="18.23478">
        <ele>121.019062</ele>
        <time>2022-06-01T12:01:39.558Z</time>
      </trkpt>
      <trkpt lat="42.58232" lon="18.23475">
        <ele>120.517515</ele>
        <time>2022-06-01T12:01:40.547Z</time>
      </trkpt>
      <trkpt lat="42.58241" lon="18.23472">
        <ele>120.034845</ele>
        <time>2022-06-01T12:01:41.551Z</time>
      </trkpt>
      <trkpt lat="42.58251" lon="18.23469">
        <ele>119.556308</ele>
        <time>2022-06-01T12:01:42.564Z</time>
      </trkpt>
      <trkpt lat="42.58261" lon="18.23467">
        <ele>119.09528</ele>
        <time>2022-06-01T12:01:43.578Z</time>
      </trkpt>
      <trkpt lat="42.5827" lon="18.23464">
        <ele>118.64296</ele>
        <time>2022-06-01T12:01:44.550Z</time>
      </trkpt>
      <trkpt lat="42.58287" lon="18.23458">
        <ele>117.809552</ele>
        <time>2022-06-01T12:01:46.543Z</time>
      </trkpt>
      <trkpt lat="42.58296" lon="18.23456">
        <ele>117.373681</ele>
        <time>2022-06-01T12:01:47.548Z</time>
      </trkpt>
      <trkpt lat="42.58313" lon="18.23451">
        <ele>116.540582</ele>
        <time>2022-06-01T12:01:49.563Z</time>
      </trkpt>
      <trkpt lat="42.58331" lon="18.23445">
        <ele>115.661835</ele>
        <time>2022-06-01T12:01:51.553Z</time>
      </trkpt>
      <trkpt lat="42.5834" lon="18.23443">
        <ele>115.201927</ele>
        <time>2022-06-01T12:01:52.543Z</time>
      </trkpt>
      <trkpt lat="42.5835" lon="18.23439">
        <ele>114.728585</ele>
        <time>2022-06-01T12:01:53.551Z</time>
      </trkpt>
      <trkpt lat="42.5836" lon="18.23435">
        <ele>114.242336</ele>
        <time>2022-06-01T12:01:54.584Z</time>
      </trkpt>
      <trkpt lat="42.5837" lon="18.23431">
        <ele>113.745351</ele>
        <time>2022-06-01T12:01:55.558Z</time>
      </trkpt>
      <trkpt lat="42.58379" lon="18.23424">
        <ele>113.22929</ele>
        <time>2022-06-01T12:01:56.559Z</time>
      </trkpt>
      <trkpt lat="42.58389" lon="18.23418">
        <ele>112.700475</ele>
        <time>2022-06-01T12:01:57.554Z</time>
      </trkpt>
      <trkpt lat="42.58399" lon="18.23413">
        <ele>112.195893</ele>
        <time>2022-06-01T12:01:58.562Z</time>
      </trkpt>
      <trkpt lat="42.58409" lon="18.23407">
        <ele>111.767719</ele>
        <time>2022-06-01T12:01:59.549Z</time>
      </trkpt>
      <trkpt lat="42.58418" lon="18.23401">
        <ele>111.620764</ele>
        <time>2022-06-01T12:02:00.549Z</time>
      </trkpt>
      <trkpt lat="42.58426" lon="18.23395">
        <ele>111.486131</ele>
        <time>2022-06-01T12:02:01.550Z</time>
      </trkpt>
      <trkpt lat="42.58435" lon="18.23387">
        <ele>111.342595</ele>
        <time>2022-06-01T12:02:02.558Z</time>
      </trkpt>
      <trkpt lat="42.58443" lon="18.23379">
        <ele>111.198471</ele>
        <time>2022-06-01T12:02:03.545Z</time>
      </trkpt>
      <trkpt lat="42.58451" lon="18.23371">
        <ele>111.063093</ele>
        <time>2022-06-01T12:02:04.546Z</time>
      </trkpt>
      <trkpt lat="42.58458" lon="18.23363">
        <ele>110.931626</ele>
        <time>2022-06-01T12:02:05.573Z</time>
      </trkpt>
      <trkpt lat="42.58465" lon="18.23354">
        <ele>110.800222</ele>
        <time>2022-06-01T12:02:06.559Z</time>
      </trkpt>
      <trkpt lat="42.58472" lon="18.23346">
        <ele>110.669827</ele>
        <time>2022-06-01T12:02:07.546Z</time>
      </trkpt>
      <trkpt lat="42.58485" lon="18.23331">
        <ele>110.424218</ele>
        <time>2022-06-01T12:02:09.559Z</time>
      </trkpt>
      <trkpt lat="42.58497" lon="18.23317">
        <ele>110.195427</ele>
        <time>2022-06-01T12:02:11.547Z</time>
      </trkpt>
      <trkpt lat="42.58509" lon="18.23302">
        <ele>109.970263</ele>
        <time>2022-06-01T12:02:13.545Z</time>
      </trkpt>
      <trkpt lat="42.58521" lon="18.23289">
        <ele>109.76029</ele>
        <time>2022-06-01T12:02:15.553Z</time>
      </trkpt>
      <trkpt lat="42.58532" lon="18.23277">
        <ele>109.555964</ele>
        <time>2022-06-01T12:02:17.550Z</time>
      </trkpt>
      <trkpt lat="42.58543" lon="18.23265">
        <ele>109.35378</ele>
        <time>2022-06-01T12:02:19.542Z</time>
      </trkpt>
      <trkpt lat="42.58554" lon="18.23256">
        <ele>109.401451</ele>
        <time>2022-06-01T12:02:21.544Z</time>
      </trkpt>
      <trkpt lat="42.58566" lon="18.23249">
        <ele>109.74716</ele>
        <time>2022-06-01T12:02:23.555Z</time>
      </trkpt>
      <trkpt lat="42.58577" lon="18.23241">
        <ele>110.097961</ele>
        <time>2022-06-01T12:02:25.547Z</time>
      </trkpt>
      <trkpt lat="42.58589" lon="18.23234">
        <ele>110.436304</ele>
        <time>2022-06-01T12:02:27.548Z</time>
      </trkpt>
      <trkpt lat="42.586" lon="18.23229">
        <ele>110.742015</ele>
        <time>2022-06-01T12:02:29.574Z</time>
      </trkpt>
      <trkpt lat="42.58609" lon="18.23224">
        <ele>111.001611</ele>
        <time>2022-06-01T12:02:31.549Z</time>
      </trkpt>
      <trkpt lat="42.58617" lon="18.2322">
        <ele>111.245523</ele>
        <time>2022-06-01T12:02:33.545Z</time>
      </trkpt>
      <trkpt lat="42.58628" lon="18.23214">
        <ele>111.559826</ele>
        <time>2022-06-01T12:02:36.558Z</time>
      </trkpt>
      <trkpt lat="42.58638" lon="18.23208">
        <ele>111.852545</ele>
        <time>2022-06-01T12:02:39.558Z</time>
      </trkpt>
      <trkpt lat="42.58647" lon="18.23202">
        <ele>112.121626</ele>
        <time>2022-06-01T12:02:42.561Z</time>
      </trkpt>
      <trkpt lat="42.58656" lon="18.23197">
        <ele>112.388239</ele>
        <time>2022-06-01T12:02:45.546Z</time>
      </trkpt>
      <trkpt lat="42.58665" lon="18.23191">
        <ele>112.645429</ele>
        <time>2022-06-01T12:02:48.555Z</time>
      </trkpt>
      <trkpt lat="42.58675" lon="18.23184">
        <ele>112.956895</ele>
        <time>2022-06-01T12:02:52.540Z</time>
      </trkpt>
      <trkpt lat="42.58686" lon="18.23177">
        <ele>113.272408</ele>
        <time>2022-06-01T12:02:56.554Z</time>
      </trkpt>
      <trkpt lat="42.58696" lon="18.23169">
        <ele>113.58373</ele>
        <time>2022-06-01T12:03:00.550Z</time>
      </trkpt>
      <trkpt lat="42.58704" lon="18.23162">
        <ele>113.855811</ele>
        <time>2022-06-01T12:03:04.554Z</time>
      </trkpt>
      <trkpt lat="42.58713" lon="18.23155">
        <ele>114.129538</ele>
        <time>2022-06-01T12:03:08.558Z</time>
      </trkpt>
      <trkpt lat="42.58721" lon="18.23148">
        <ele>114.461175</ele>
        <time>2022-06-01T12:03:13.550Z</time>
      </trkpt>
      <trkpt lat="42.58729" lon="18.2314">
        <ele>114.788343</ele>
        <time>2022-06-01T12:03:18.548Z</time>
      </trkpt>
      <trkpt lat="42.58738" lon="18.23134">
        <ele>115.115143</ele>
        <time>2022-06-01T12:03:23.551Z</time>
      </trkpt>
      <trkpt lat="42.58746" lon="18.23125">
        <ele>115.454363</ele>
        <time>2022-06-01T12:03:29.552Z</time>
      </trkpt>
      <trkpt lat="42.58754" lon="18.23116">
        <ele>115.803087</ele>
        <time>2022-06-01T12:03:35.562Z</time>
      </trkpt>
      <trkpt lat="42.58761" lon="18.23107">
        <ele>116.123091</ele>
        <time>2022-06-01T12:03:40.555Z</time>
      </trkpt>
      <trkpt lat="42.58769" lon="18.23099">
        <ele>116.449769</ele>
        <time>2022-06-01T12:03:46.547Z</time>
      </trkpt>
      <trkpt lat="42.58776" lon="18.23091">
        <ele>116.759627</ele>
        <time>2022-06-01T12:03:51.589Z</time>
      </trkpt>
      <trkpt lat="42.58784" lon="18.23081">
        <ele>117.108889</ele>
        <time>2022-06-01T12:03:57.578Z</time>
      </trkpt>
      <trkpt lat="42.58793" lon="18.23073">
        <ele>117.453751</ele>
        <time>2022-06-01T12:04:02.553Z</time>
      </trkpt>
      <trkpt lat="42.58801" lon="18.23066">
        <ele>117.769854</ele>
        <time>2022-06-01T12:04:07.547Z</time>
      </trkpt>
      <trkpt lat="42.58809" lon="18.23059">
        <ele>118.090058</ele>
        <time>2022-06-01T12:04:12.550Z</time>
      </trkpt>
      <trkpt lat="42.58817" lon="18.23052">
        <ele>118.42013</ele>
        <time>2022-06-01T12:04:17.547Z</time>
      </trkpt>
      <trkpt lat="42.58825" lon="18.23046">
        <ele>118.719069</ele>
        <time>2022-06-01T12:04:22.550Z</time>
      </trkpt>
      <trkpt lat="42.58833" lon="18.23039">
        <ele>119.024203</ele>
        <time>2022-06-01T12:04:27.554Z</time>
      </trkpt>
      <trkpt lat="42.58841" lon="18.23032">
        <ele>119.332274</ele>
        <time>2022-06-01T12:04:32.575Z</time>
      </trkpt>
      <trkpt lat="42.58849" lon="18.23026">
        <ele>119.641021</ele>
        <time>2022-06-01T12:04:37.546Z</time>
      </trkpt>
      <trkpt lat="42.58858" lon="18.23022">
        <ele>119.953863</ele>
        <time>2022-06-01T12:04:42.558Z</time>
      </trkpt>
      <trkpt lat="42.58867" lon="18.23019">
        <ele>120.387904</ele>
        <time>2022-06-01T12:04:47.546Z</time>
      </trkpt>
      <trkpt lat="42.58875" lon="18.23014">
        <ele>120.873917</ele>
        <time>2022-06-01T12:04:52.545Z</time>
      </trkpt>
      <trkpt lat="42.58885" lon="18.23009">
        <ele>121.428755</ele>
        <time>2022-06-01T12:04:57.549Z</time>
      </trkpt>
      <trkpt lat="42.58895" lon="18.23006">
        <ele>121.969523</ele>
        <time>2022-06-01T12:05:03.540Z</time>
      </trkpt>
      <trkpt lat="42.58906" lon="18.23002">
        <ele>122.524517</ele>
        <time>2022-06-01T12:05:09.542Z</time>
      </trkpt>
      <trkpt lat="42.58915" lon="18.22999">
        <ele>123.014003</ele>
        <time>2022-06-01T12:05:14.547Z</time>
      </trkpt>
      <trkpt lat="42.58924" lon="18.22996">
        <ele>123.516225</ele>
        <time>2022-06-01T12:05:19.568Z</time>
      </trkpt>
      <trkpt lat="42.58933" lon="18.22991">
        <ele>124.024503</ele>
        <time>2022-06-01T12:05:25.544Z</time>
      </trkpt>
      <trkpt lat="42.58943" lon="18.22987">
        <ele>124.543272</ele>
        <time>2022-06-01T12:05:31.547Z</time>
      </trkpt>
      <trkpt lat="42.58953" lon="18.22984">
        <ele>125.073487</ele>
        <time>2022-06-01T12:05:37.553Z</time>
      </trkpt>
      <trkpt lat="42.58963" lon="18.22983">
        <ele>125.599384</ele>
        <time>2022-06-01T12:05:43.551Z</time>
      </trkpt>
      <trkpt lat="42.58972" lon="18.22985">
        <ele>126.101322</ele>
        <time>2022-06-01T12:05:47.586Z</time>
      </trkpt>
      <trkpt lat="42.58982" lon="18.22986">
        <ele>126.609542</ele>
        <time>2022-06-01T12:05:52.547Z</time>
      </trkpt>
      <trkpt lat="42.58991" lon="18.22983">
        <ele>127.081988</ele>
        <time>2022-06-01T12:05:58.554Z</time>
      </trkpt>
      <trkpt lat="42.59" lon="18.22982">
        <ele>127.584167</ele>
        <time>2022-06-01T12:06:04.543Z</time>
      </trkpt>
      <trkpt lat="42.5901" lon="18.22984">
        <ele>128.124545</ele>
        <time>2022-06-01T12:06:11.577Z</time>
      </trkpt>
      <trkpt lat="42.59021" lon="18.22989">
        <ele>128.720469</ele>
        <time>2022-06-01T12:06:15.546Z</time>
      </trkpt>
      <trkpt lat="42.5903" lon="18.22991">
        <ele>129.209574</ele>
        <time>2022-06-01T12:06:19.545Z</time>
      </trkpt>
      <trkpt lat="42.5904" lon="18.22995">
        <ele>129.519659</ele>
        <time>2022-06-01T12:06:24.557Z</time>
      </trkpt>
      <trkpt lat="42.5905" lon="18.23001">
        <ele>129.667639</ele>
        <time>2022-06-01T12:06:28.560Z</time>
      </trkpt>
      <trkpt lat="42.59061" lon="18.23002">
        <ele>129.80695</ele>
        <time>2022-06-01T12:06:33.577Z</time>
      </trkpt>
      <trkpt lat="42.5907" lon="18.23002">
        <ele>129.931628</ele>
        <time>2022-06-01T12:06:38.556Z</time>
      </trkpt>
      <trkpt lat="42.59079" lon="18.23003">
        <ele>130.056447</ele>
        <time>2022-06-01T12:06:43.547Z</time>
      </trkpt>
      <trkpt lat="42.59089" lon="18.23003">
        <ele>130.201797</ele>
        <time>2022-06-01T12:06:49.547Z</time>
      </trkpt>
      <trkpt lat="42.591" lon="18.23005">
        <ele>130.343948</ele>
        <time>2022-06-01T12:06:55.578Z</time>
      </trkpt>
      <trkpt lat="42.5911" lon="18.23005">
        <ele>130.479642</ele>
        <time>2022-06-01T12:07:00.563Z</time>
      </trkpt>
      <trkpt lat="42.59119" lon="18.23002">
        <ele>130.610155</ele>
        <time>2022-06-01T12:07:06.546Z</time>
      </trkpt>
      <trkpt lat="42.59128" lon="18.23005">
        <ele>130.741786</ele>
        <time>2022-06-01T12:07:11.550Z</time>
      </trkpt>
      <trkpt lat="42.59138" lon="18.23005">
        <ele>130.871955</ele>
        <time>2022-06-01T12:07:15.557Z</time>
      </trkpt>
      <trkpt lat="42.59148" lon="18.23004">
        <ele>131.006857</ele>
        <time>2022-06-01T12:07:20.556Z</time>
      </trkpt>
      <trkpt lat="42.59158" lon="18.23004">
        <ele>131.142494</ele>
        <time>2022-06-01T12:07:25.548Z</time>
      </trkpt>
      <trkpt lat="42.59168" lon="18.23005">
        <ele>131.282369</ele>
        <time>2022-06-01T12:07:30.548Z</time>
      </trkpt>
      <trkpt lat="42.59178" lon="18.23004">
        <ele>131.422475</ele>
        <time>2022-06-01T12:07:36.570Z</time>
      </trkpt>
      <trkpt lat="42.59189" lon="18.23004">
        <ele>131.569073</ele>
        <time>2022-06-01T12:07:42.563Z</time>
      </trkpt>
      <trkpt lat="42.59199" lon="18.23003">
        <ele>131.71716</ele>
        <time>2022-06-01T12:07:47.570Z</time>
      </trkpt>
      <trkpt lat="42.5921" lon="18.23004">
        <ele>131.858363</ele>
        <time>2022-06-01T12:07:51.553Z</time>
      </trkpt>
      <trkpt lat="42.5922" lon="18.23004">
        <ele>132.130052</ele>
        <time>2022-06-01T12:07:55.553Z</time>
      </trkpt>
      <trkpt lat="42.59231" lon="18.23003">
        <ele>132.454214</ele>
        <time>2022-06-01T12:07:59.553Z</time>
      </trkpt>
      <trkpt lat="42.59242" lon="18.23003">
        <ele>132.760587</ele>
        <time>2022-06-01T12:08:04.571Z</time>
      </trkpt>
      <trkpt lat="42.59253" lon="18.23003">
        <ele>133.096163</ele>
        <time>2022-06-01T12:08:09.544Z</time>
      </trkpt>
      <trkpt lat="42.59262" lon="18.23002">
        <ele>133.375617</ele>
        <time>2022-06-01T12:08:13.553Z</time>
      </trkpt>
      <trkpt lat="42.59272" lon="18.23001">
        <ele>133.664202</ele>
        <time>2022-06-01T12:08:17.545Z</time>
      </trkpt>
      <trkpt lat="42.59281" lon="18.22999">
        <ele>133.940549</ele>
        <time>2022-06-01T12:08:21.546Z</time>
      </trkpt>
      <trkpt lat="42.59291" lon="18.22998">
        <ele>134.21777</ele>
        <time>2022-06-01T12:08:25.546Z</time>
      </trkpt>
      <trkpt lat="42.59301" lon="18.22997">
        <ele>134.52496</ele>
        <time>2022-06-01T12:08:29.541Z</time>
      </trkpt>
      <trkpt lat="42.59312" lon="18.22995">
        <ele>134.849268</ele>
        <time>2022-06-01T12:08:33.552Z</time>
      </trkpt>
      <trkpt lat="42.59323" lon="18.22993">
        <ele>135.189609</ele>
        <time>2022-06-01T12:08:37.563Z</time>
      </trkpt>
      <trkpt lat="42.59332" lon="18.22992">
        <ele>135.457599</ele>
        <time>2022-06-01T12:08:40.563Z</time>
      </trkpt>
      <trkpt lat="42.59343" lon="18.22993">
        <ele>135.781556</ele>
        <time>2022-06-01T12:08:44.556Z</time>
      </trkpt>
      <trkpt lat="42.59354" lon="18.22996">
        <ele>136.10557</ele>
        <time>2022-06-01T12:08:48.552Z</time>
      </trkpt>
      <trkpt lat="42.59362" lon="18.22999">
        <ele>136.373462</ele>
        <time>2022-06-01T12:08:51.557Z</time>
      </trkpt>
      <trkpt lat="42.59371" lon="18.23004">
        <ele>136.64161</ele>
        <time>2022-06-01T12:08:54.551Z</time>
      </trkpt>
      <trkpt lat="42.5938" lon="18.23009">
        <ele>136.929319</ele>
        <time>2022-06-01T12:08:57.546Z</time>
      </trkpt>
      <trkpt lat="42.59388" lon="18.23015">
        <ele>137.208913</ele>
        <time>2022-06-01T12:09:00.547Z</time>
      </trkpt>
      <trkpt lat="42.59398" lon="18.2302">
        <ele>136.733446</ele>
        <time>2022-06-01T12:09:03.562Z</time>
      </trkpt>
      <trkpt lat="42.59406" lon="18.23026">
        <ele>136.190253</ele>
        <time>2022-06-01T12:09:06.548Z</time>
      </trkpt>
      <trkpt lat="42.59416" lon="18.23034">
        <ele>135.554975</ele>
        <time>2022-06-01T12:09:09.547Z</time>
      </trkpt>
      <trkpt lat="42.59425" lon="18.23041">
        <ele>134.979765</ele>
        <time>2022-06-01T12:09:12.553Z</time>
      </trkpt>
      <trkpt lat="42.59434" lon="18.23047">
        <ele>134.418294</ele>
        <time>2022-06-01T12:09:15.547Z</time>
      </trkpt>
      <trkpt lat="42.59444" lon="18.23054">
        <ele>133.801065</ele>
        <time>2022-06-01T12:09:18.546Z</time>
      </trkpt>
      <trkpt lat="42.59455" lon="18.2306">
        <ele>133.152308</ele>
        <time>2022-06-01T12:09:21.560Z</time>
      </trkpt>
      <trkpt lat="42.59467" lon="18.23068">
        <ele>132.411517</ele>
        <time>2022-06-01T12:09:24.577Z</time>
      </trkpt>
      <trkpt lat="42.59478" lon="18.23074">
        <ele>131.74399</ele>
        <time>2022-06-01T12:09:27.550Z</time>
      </trkpt>
      <trkpt lat="42.59491" lon="18.23081">
        <ele>131.006359</ele>
        <time>2022-06-01T12:09:30.578Z</time>
      </trkpt>
      <trkpt lat="42.59503" lon="18.23087">
        <ele>130.31126</ele>
        <time>2022-06-01T12:09:33.556Z</time>
      </trkpt>
      <trkpt lat="42.59515" lon="18.23093">
        <ele>129.587147</ele>
        <time>2022-06-01T12:09:36.572Z</time>
      </trkpt>
      <trkpt lat="42.59527" lon="18.23098">
        <ele>128.867939</ele>
        <time>2022-06-01T12:09:39.546Z</time>
      </trkpt>
      <trkpt lat="42.59537" lon="18.23101">
        <ele>128.345459</ele>
        <time>2022-06-01T12:09:41.547Z</time>
      </trkpt>
      <trkpt lat="42.59546" lon="18.23103">
        <ele>127.841442</ele>
        <time>2022-06-01T12:09:43.548Z</time>
      </trkpt>
      <trkpt lat="42.59555" lon="18.23104">
        <ele>127.340464</ele>
        <time>2022-06-01T12:09:45.556Z</time>
      </trkpt>
      <trkpt lat="42.59568" lon="18.23105">
        <ele>127.473099</ele>
        <time>2022-06-01T12:09:48.545Z</time>
      </trkpt>
      <trkpt lat="42.59577" lon="18.23106">
        <ele>127.592676</ele>
        <time>2022-06-01T12:09:50.556Z</time>
      </trkpt>
      <trkpt lat="42.59586" lon="18.23106">
        <ele>127.712173</ele>
        <time>2022-06-01T12:09:52.560Z</time>
      </trkpt>
      <trkpt lat="42.59599" lon="18.23104">
        <ele>127.885578</ele>
        <time>2022-06-01T12:09:55.570Z</time>
      </trkpt>
      <trkpt lat="42.59608" lon="18.23102">
        <ele>128.003418</ele>
        <time>2022-06-01T12:09:57.555Z</time>
      </trkpt>
      <trkpt lat="42.59617" lon="18.231">
        <ele>128.121299</ele>
        <time>2022-06-01T12:09:59.546Z</time>
      </trkpt>
      <trkpt lat="42.5963" lon="18.23097">
        <ele>128.293797</ele>
        <time>2022-06-01T12:10:02.555Z</time>
      </trkpt>
      <trkpt lat="42.59639" lon="18.23096">
        <ele>128.411243</ele>
        <time>2022-06-01T12:10:04.547Z</time>
      </trkpt>
      <trkpt lat="42.59648" lon="18.23094">
        <ele>128.530963</ele>
        <time>2022-06-01T12:10:06.561Z</time>
      </trkpt>
      <trkpt lat="42.59657" lon="18.23091">
        <ele>128.651352</ele>
        <time>2022-06-01T12:10:08.557Z</time>
      </trkpt>
      <trkpt lat="42.59667" lon="18.2309">
        <ele>128.779328</ele>
        <time>2022-06-01T12:10:10.544Z</time>
      </trkpt>
      <trkpt lat="42.59678" lon="18.2309">
        <ele>128.919618</ele>
        <time>2022-06-01T12:10:12.575Z</time>
      </trkpt>
      <trkpt lat="42.59688" lon="18.2309">
        <ele>129.050801</ele>
        <time>2022-06-01T12:10:14.557Z</time>
      </trkpt>
      <trkpt lat="42.59698" lon="18.23089">
        <ele>129.175245</ele>
        <time>2022-06-01T12:10:16.545Z</time>
      </trkpt>
      <trkpt lat="42.59707" lon="18.23087">
        <ele>129.303324</ele>
        <time>2022-06-01T12:10:18.551Z</time>
      </trkpt>
      <trkpt lat="42.59717" lon="18.23086">
        <ele>129.428618</ele>
        <time>2022-06-01T12:10:20.565Z</time>
      </trkpt>
      <trkpt lat="42.59727" lon="18.23084">
        <ele>129.557988</ele>
        <time>2022-06-01T12:10:22.552Z</time>
      </trkpt>
      <trkpt lat="42.59737" lon="18.23084">
        <ele>129.596254</ele>
        <time>2022-06-01T12:10:24.559Z</time>
      </trkpt>
      <trkpt lat="42.59746" lon="18.23083">
        <ele>129.428307</ele>
        <time>2022-06-01T12:10:26.546Z</time>
      </trkpt>
      <trkpt lat="42.59756" lon="18.23084">
        <ele>129.265543</ele>
        <time>2022-06-01T12:10:28.550Z</time>
      </trkpt>
      <trkpt lat="42.59767" lon="18.23087">
        <ele>129.073203</ele>
        <time>2022-06-01T12:10:30.551Z</time>
      </trkpt>
      <trkpt lat="42.59777" lon="18.23092">
        <ele>128.877052</ele>
        <time>2022-06-01T12:10:32.552Z</time>
      </trkpt>
      <trkpt lat="42.59788" lon="18.23096">
        <ele>128.694359</ele>
        <time>2022-06-01T12:10:34.552Z</time>
      </trkpt>
      <trkpt lat="42.59797" lon="18.23102">
        <ele>128.511918</ele>
        <time>2022-06-01T12:10:36.553Z</time>
      </trkpt>
      <trkpt lat="42.59807" lon="18.23107">
        <ele>128.336482</ele>
        <time>2022-06-01T12:10:38.549Z</time>
      </trkpt>
      <trkpt lat="42.59817" lon="18.23116">
        <ele>128.125071</ele>
        <time>2022-06-01T12:10:40.546Z</time>
      </trkpt>
      <trkpt lat="42.59827" lon="18.23124">
        <ele>127.9189</ele>
        <time>2022-06-01T12:10:42.554Z</time>
      </trkpt>
      <trkpt lat="42.59837" lon="18.23133">
        <ele>127.72499</ele>
        <time>2022-06-01T12:10:44.549Z</time>
      </trkpt>
      <trkpt lat="42.59845" lon="18.2314">
        <ele>127.556073</ele>
        <time>2022-06-01T12:10:46.546Z</time>
      </trkpt>
      <trkpt lat="42.59852" lon="18.23149">
        <ele>127.387412</ele>
        <time>2022-06-01T12:10:48.551Z</time>
      </trkpt>
      <trkpt lat="42.59859" lon="18.23157">
        <ele>127.224905</ele>
        <time>2022-06-01T12:10:50.551Z</time>
      </trkpt>
      <trkpt lat="42.59867" lon="18.23167">
        <ele>127.043777</ele>
        <time>2022-06-01T12:10:52.551Z</time>
      </trkpt>
      <trkpt lat="42.59874" lon="18.23181">
        <ele>126.832492</ele>
        <time>2022-06-01T12:10:54.549Z</time>
      </trkpt>
      <trkpt lat="42.5988" lon="18.23193">
        <ele>126.639675</ele>
        <time>2022-06-01T12:10:56.550Z</time>
      </trkpt>
      <trkpt lat="42.59886" lon="18.23207">
        <ele>126.636101</ele>
        <time>2022-06-01T12:10:58.556Z</time>
      </trkpt>
      <trkpt lat="42.59891" lon="18.23221">
        <ele>126.858463</ele>
        <time>2022-06-01T12:11:00.546Z</time>
      </trkpt>
      <trkpt lat="42.59895" lon="18.23236">
        <ele>127.067333</ele>
        <time>2022-06-01T12:11:02.554Z</time>
      </trkpt>
      <trkpt lat="42.59899" lon="18.23249">
        <ele>127.261587</ele>
        <time>2022-06-01T12:11:04.556Z</time>
      </trkpt>
      <trkpt lat="42.59903" lon="18.23262">
        <ele>127.449334</ele>
        <time>2022-06-01T12:11:06.549Z</time>
      </trkpt>
      <trkpt lat="42.59908" lon="18.23273">
        <ele>127.629767</ele>
        <time>2022-06-01T12:11:08.552Z</time>
      </trkpt>
      <trkpt lat="42.59916" lon="18.23282">
        <ele>127.810821</ele>
        <time>2022-06-01T12:11:10.577Z</time>
      </trkpt>
      <trkpt lat="42.59924" lon="18.2329">
        <ele>127.996495</ele>
        <time>2022-06-01T12:11:12.560Z</time>
      </trkpt>
      <trkpt lat="42.59934" lon="18.23294">
        <ele>128.18343</ele>
        <time>2022-06-01T12:11:14.558Z</time>
      </trkpt>
      <trkpt lat="42.59944" lon="18.23296">
        <ele>128.377854</ele>
        <time>2022-06-01T12:11:16.578Z</time>
      </trkpt>
      <trkpt lat="42.59954" lon="18.23296">
        <ele>128.562877</ele>
        <time>2022-06-01T12:11:18.551Z</time>
      </trkpt>
      <trkpt lat="42.59963" lon="18.23294">
        <ele>128.731721</ele>
        <time>2022-06-01T12:11:20.556Z</time>
      </trkpt>
      <trkpt lat="42.59972" lon="18.23289">
        <ele>128.898048</ele>
        <time>2022-06-01T12:11:22.557Z</time>
      </trkpt>
      <trkpt lat="42.5998" lon="18.2328">
        <ele>129.090921</ele>
        <time>2022-06-01T12:11:24.551Z</time>
      </trkpt>
      <trkpt lat="42.59988" lon="18.2327">
        <ele>129.289742</ele>
        <time>2022-06-01T12:11:26.557Z</time>
      </trkpt>
      <trkpt lat="42.59997" lon="18.23261">
        <ele>129.496258</ele>
        <time>2022-06-01T12:11:28.561Z</time>
      </trkpt>
      <trkpt lat="42.60006" lon="18.23252">
        <ele>129.700184</ele>
        <time>2022-06-01T12:11:30.552Z</time>
      </trkpt>
      <trkpt lat="42.60015" lon="18.23242">
        <ele>129.986393</ele>
        <time>2022-06-01T12:11:32.557Z</time>
      </trkpt>
      <trkpt lat="42.60024" lon="18.23235">
        <ele>130.347208</ele>
        <time>2022-06-01T12:11:34.564Z</time>
      </trkpt>
      <trkpt lat="42.60033" lon="18.2323">
        <ele>130.685119</ele>
        <time>2022-06-01T12:11:36.572Z</time>
      </trkpt>
      <trkpt lat="42.60043" lon="18.23225">
        <ele>131.063831</ele>
        <time>2022-06-01T12:11:38.552Z</time>
      </trkpt>
      <trkpt lat="42.60053" lon="18.23221">
        <ele>131.434188</ele>
        <time>2022-06-01T12:11:40.554Z</time>
      </trkpt>
      <trkpt lat="42.60062" lon="18.23214">
        <ele>131.794947</ele>
        <time>2022-06-01T12:11:42.554Z</time>
      </trkpt>
      <trkpt lat="42.60071" lon="18.23208">
        <ele>132.154556</ele>
        <time>2022-06-01T12:11:44.581Z</time>
      </trkpt>
      <trkpt lat="42.6008" lon="18.23204">
        <ele>132.512237</ele>
        <time>2022-06-01T12:11:46.553Z</time>
      </trkpt>
      <trkpt lat="42.6009" lon="18.232">
        <ele>132.860166</ele>
        <time>2022-06-01T12:11:48.547Z</time>
      </trkpt>
      <trkpt lat="42.60099" lon="18.23197">
        <ele>133.194459</ele>
        <time>2022-06-01T12:11:50.559Z</time>
      </trkpt>
      <trkpt lat="42.60108" lon="18.23192">
        <ele>133.536318</ele>
        <time>2022-06-01T12:11:52.558Z</time>
      </trkpt>
      <trkpt lat="42.60116" lon="18.23186">
        <ele>133.879308</ele>
        <time>2022-06-01T12:11:54.542Z</time>
      </trkpt>
      <trkpt lat="42.60124" lon="18.23179">
        <ele>134.204295</ele>
        <time>2022-06-01T12:11:56.549Z</time>
      </trkpt>
      <trkpt lat="42.60136" lon="18.23169">
        <ele>134.691065</ele>
        <time>2022-06-01T12:11:59.547Z</time>
      </trkpt>
      <trkpt lat="42.60144" lon="18.23164">
        <ele>135.032409</ele>
        <time>2022-06-01T12:12:01.575Z</time>
      </trkpt>
      <trkpt lat="42.60153" lon="18.23158">
        <ele>135.387571</ele>
        <time>2022-06-01T12:12:03.552Z</time>
      </trkpt>
      <trkpt lat="42.60163" lon="18.23154">
        <ele>135.759467</ele>
        <time>2022-06-01T12:12:05.547Z</time>
      </trkpt>
      <trkpt lat="42.60173" lon="18.23152">
        <ele>136.110468</ele>
        <time>2022-06-01T12:12:07.576Z</time>
      </trkpt>
      <trkpt lat="42.60183" lon="18.23148">
        <ele>135.889939</ele>
        <time>2022-06-01T12:12:09.548Z</time>
      </trkpt>
      <trkpt lat="42.60193" lon="18.23145">
        <ele>135.382924</ele>
        <time>2022-06-01T12:12:11.546Z</time>
      </trkpt>
      <trkpt lat="42.60204" lon="18.23145">
        <ele>134.845434</ele>
        <time>2022-06-01T12:12:13.575Z</time>
      </trkpt>
      <trkpt lat="42.60215" lon="18.23144">
        <ele>134.341272</ele>
        <time>2022-06-01T12:12:15.597Z</time>
      </trkpt>
      <trkpt lat="42.60225" lon="18.23144">
        <ele>133.842017</ele>
        <time>2022-06-01T12:12:17.591Z</time>
      </trkpt>
      <trkpt lat="42.60236" lon="18.23147">
        <ele>133.298935</ele>
        <time>2022-06-01T12:12:19.586Z</time>
      </trkpt>
      <trkpt lat="42.60248" lon="18.23152">
        <ele>132.693438</ele>
        <time>2022-06-01T12:12:21.582Z</time>
      </trkpt>
      <trkpt lat="42.60261" lon="18.23159">
        <ele>132.065881</ele>
        <time>2022-06-01T12:12:23.580Z</time>
      </trkpt>
      <trkpt lat="42.60272" lon="18.23163">
        <ele>131.510027</ele>
        <time>2022-06-01T12:12:25.570Z</time>
      </trkpt>
      <trkpt lat="42.60283" lon="18.23167">
        <ele>130.977237</ele>
        <time>2022-06-01T12:12:27.557Z</time>
      </trkpt>
      <trkpt lat="42.60293" lon="18.23171">
        <ele>130.458054</ele>
        <time>2022-06-01T12:12:29.574Z</time>
      </trkpt>
      <trkpt lat="42.60304" lon="18.23176">
        <ele>129.913921</ele>
        <time>2022-06-01T12:12:31.576Z</time>
      </trkpt>
      <trkpt lat="42.60313" lon="18.23181">
        <ele>129.409064</ele>
        <time>2022-06-01T12:12:33.573Z</time>
      </trkpt>
      <trkpt lat="42.60323" lon="18.23186">
        <ele>128.909959</ele>
        <time>2022-06-01T12:12:35.583Z</time>
      </trkpt>
      <trkpt lat="42.60332" lon="18.23192">
        <ele>128.42611</ele>
        <time>2022-06-01T12:12:37.574Z</time>
      </trkpt>
      <trkpt lat="42.60341" lon="18.23198">
        <ele>127.961216</ele>
        <time>2022-06-01T12:12:39.573Z</time>
      </trkpt>
      <trkpt lat="42.60353" lon="18.23204">
        <ele>127.373845</ele>
        <time>2022-06-01T12:12:42.576Z</time>
      </trkpt>
      <trkpt lat="42.60363" lon="18.23209">
        <ele>126.960705</ele>
        <time>2022-06-01T12:12:44.574Z</time>
      </trkpt>
      <trkpt lat="42.60371" lon="18.23216">
        <ele>126.592071</ele>
        <time>2022-06-01T12:12:46.572Z</time>
      </trkpt>
      <trkpt lat="42.6038" lon="18.23223">
        <ele>126.171306</ele>
        <time>2022-06-01T12:12:48.617Z</time>
      </trkpt>
      <trkpt lat="42.6039" lon="18.2323">
        <ele>125.705223</ele>
        <time>2022-06-01T12:12:50.668Z</time>
      </trkpt>
      <trkpt lat="42.60401" lon="18.23236">
        <ele>125.207332</ele>
        <time>2022-06-01T12:12:52.607Z</time>
      </trkpt>
      <trkpt lat="42.60411" lon="18.23243">
        <ele>124.788681</ele>
        <time>2022-06-01T12:12:54.596Z</time>
      </trkpt>
      <trkpt lat="42.60419" lon="18.23248">
        <ele>124.406958</ele>
        <time>2022-06-01T12:12:56.574Z</time>
      </trkpt>
      <trkpt lat="42.60428" lon="18.23253">
        <ele>124.014281</ele>
        <time>2022-06-01T12:12:58.579Z</time>
      </trkpt>
      <trkpt lat="42.60437" lon="18.23258">
        <ele>123.633724</ele>
        <time>2022-06-01T12:13:00.585Z</time>
      </trkpt>
      <trkpt lat="42.60446" lon="18.23262">
        <ele>123.256989</ele>
        <time>2022-06-01T12:13:02.580Z</time>
      </trkpt>
      <trkpt lat="42.60456" lon="18.23266">
        <ele>122.841729</ele>
        <time>2022-06-01T12:13:04.583Z</time>
      </trkpt>
      <trkpt lat="42.60465" lon="18.2327">
        <ele>122.437203</ele>
        <time>2022-06-01T12:13:06.573Z</time>
      </trkpt>
      <trkpt lat="42.60475" lon="18.23275">
        <ele>122.010917</ele>
        <time>2022-06-01T12:13:08.582Z</time>
      </trkpt>
      <trkpt lat="42.60486" lon="18.23279">
        <ele>121.571207</ele>
        <time>2022-06-01T12:13:10.573Z</time>
      </trkpt>
      <trkpt lat="42.60495" lon="18.23281">
        <ele>121.19538</ele>
        <time>2022-06-01T12:13:12.681Z</time>
      </trkpt>
      <trkpt lat="42.60506" lon="18.23285">
        <ele>120.746127</ele>
        <time>2022-06-01T12:13:14.613Z</time>
      </trkpt>
      <trkpt lat="42.60517" lon="18.23288">
        <ele>120.430863</ele>
        <time>2022-06-01T12:13:16.610Z</time>
      </trkpt>
      <trkpt lat="42.60528" lon="18.2329">
        <ele>120.872026</ele>
        <time>2022-06-01T12:13:18.574Z</time>
      </trkpt>
      <trkpt lat="42.60539" lon="18.2329">
        <ele>121.30768</ele>
        <time>2022-06-01T12:13:20.593Z</time>
      </trkpt>
      <trkpt lat="42.60549" lon="18.2329">
        <ele>121.74325</ele>
        <time>2022-06-01T12:13:22.589Z</time>
      </trkpt>
      <trkpt lat="42.6056" lon="18.23289">
        <ele>122.179659</ele>
        <time>2022-06-01T12:13:24.580Z</time>
      </trkpt>
      <trkpt lat="42.60569" lon="18.23288">
        <ele>122.567339</ele>
        <time>2022-06-01T12:13:26.575Z</time>
      </trkpt>
      <trkpt lat="42.6058" lon="18.23285">
        <ele>123.010487</ele>
        <time>2022-06-01T12:13:28.608Z</time>
      </trkpt>
      <trkpt lat="42.60591" lon="18.23283">
        <ele>123.487276</ele>
        <time>2022-06-01T12:13:30.599Z</time>
      </trkpt>
      <trkpt lat="42.60602" lon="18.23281">
        <ele>123.943712</ele>
        <time>2022-06-01T12:13:32.572Z</time>
      </trkpt>
      <trkpt lat="42.60612" lon="18.23277">
        <ele>124.372919</ele>
        <time>2022-06-01T12:13:34.591Z</time>
      </trkpt>
      <trkpt lat="42.60625" lon="18.23273">
        <ele>124.916902</ele>
        <time>2022-06-01T12:13:37.588Z</time>
      </trkpt>
      <trkpt lat="42.60636" lon="18.2327">
        <ele>125.380447</ele>
        <time>2022-06-01T12:13:39.574Z</time>
      </trkpt>
      <trkpt lat="42.60647" lon="18.23268">
        <ele>125.823854</ele>
        <time>2022-06-01T12:13:41.591Z</time>
      </trkpt>
      <trkpt lat="42.60658" lon="18.23266">
        <ele>126.263593</ele>
        <time>2022-06-01T12:13:43.597Z</time>
      </trkpt>
      <trkpt lat="42.60668" lon="18.23264">
        <ele>126.673625</ele>
        <time>2022-06-01T12:13:45.561Z</time>
      </trkpt>
      <trkpt lat="42.6068" lon="18.23261">
        <ele>127.178496</ele>
        <time>2022-06-01T12:13:48.585Z</time>
      </trkpt>
      <trkpt lat="42.60692" lon="18.23254">
        <ele>127.72505</ele>
        <time>2022-06-01T12:13:51.578Z</time>
      </trkpt>
      <trkpt lat="42.607" lon="18.23247">
        <ele>127.89901</ele>
        <time>2022-06-01T12:13:53.620Z</time>
      </trkpt>
      <trkpt lat="42.60707" lon="18.23239">
        <ele>128.066721</ele>
        <time>2022-06-01T12:13:55.604Z</time>
      </trkpt>
      <trkpt lat="42.60712" lon="18.23229">
        <ele>128.232971</ele>
        <time>2022-06-01T12:13:57.609Z</time>
      </trkpt>
      <trkpt lat="42.60718" lon="18.23218">
        <ele>128.408753</ele>
        <time>2022-06-01T12:13:59.607Z</time>
      </trkpt>
      <trkpt lat="42.60724" lon="18.23206">
        <ele>128.594066</ele>
        <time>2022-06-01T12:14:01.571Z</time>
      </trkpt>
      <trkpt lat="42.6073" lon="18.23194">
        <ele>128.784806</ele>
        <time>2022-06-01T12:14:03.608Z</time>
      </trkpt>
      <trkpt lat="42.60736" lon="18.23183">
        <ele>128.964862</ele>
        <time>2022-06-01T12:14:05.581Z</time>
      </trkpt>
      <trkpt lat="42.60742" lon="18.23172">
        <ele>129.152333</ele>
        <time>2022-06-01T12:14:07.584Z</time>
      </trkpt>
      <trkpt lat="42.60748" lon="18.2316">
        <ele>129.344082</ele>
        <time>2022-06-01T12:14:09.583Z</time>
      </trkpt>
      <trkpt lat="42.60755" lon="18.2315">
        <ele>129.520166</ele>
        <time>2022-06-01T12:14:11.587Z</time>
      </trkpt>
      <trkpt lat="42.60761" lon="18.2314">
        <ele>129.698209</ele>
        <time>2022-06-01T12:14:13.581Z</time>
      </trkpt>
      <trkpt lat="42.60769" lon="18.23131">
        <ele>129.875233</ele>
        <time>2022-06-01T12:14:15.588Z</time>
      </trkpt>
      <trkpt lat="42.60776" lon="18.23123">
        <ele>130.043161</ele>
        <time>2022-06-01T12:14:17.659Z</time>
      </trkpt>
      <trkpt lat="42.60783" lon="18.23115">
        <ele>130.204351</ele>
        <time>2022-06-01T12:14:19.580Z</time>
      </trkpt>
      <trkpt lat="42.60791" lon="18.23109">
        <ele>130.3692</ele>
        <time>2022-06-01T12:14:21.623Z</time>
      </trkpt>
      <trkpt lat="42.60799" lon="18.23102">
        <ele>130.532487</ele>
        <time>2022-06-01T12:14:23.611Z</time>
      </trkpt>
      <trkpt lat="42.60807" lon="18.23095">
        <ele>130.696125</ele>
        <time>2022-06-01T12:14:25.575Z</time>
      </trkpt>
      <trkpt lat="42.60815" lon="18.2309">
        <ele>130.865915</ele>
        <time>2022-06-01T12:14:27.617Z</time>
      </trkpt>
      <trkpt lat="42.60825" lon="18.23085">
        <ele>130.850854</ele>
        <time>2022-06-01T12:14:29.583Z</time>
      </trkpt>
      <trkpt lat="42.60835" lon="18.2308">
        <ele>130.666034</ele>
        <time>2022-06-01T12:14:31.573Z</time>
      </trkpt>
      <trkpt lat="42.60844" lon="18.23074">
        <ele>130.477311</ele>
        <time>2022-06-01T12:14:33.629Z</time>
      </trkpt>
      <trkpt lat="42.60853" lon="18.23067">
        <ele>130.293949</ele>
        <time>2022-06-01T12:14:35.587Z</time>
      </trkpt>
      <trkpt lat="42.60861" lon="18.23059">
        <ele>130.112238</ele>
        <time>2022-06-01T12:14:37.648Z</time>
      </trkpt>
      <trkpt lat="42.60868" lon="18.2305">
        <ele>129.937162</ele>
        <time>2022-06-01T12:14:39.599Z</time>
      </trkpt>
      <trkpt lat="42.60875" lon="18.23041">
        <ele>129.758054</ele>
        <time>2022-06-01T12:14:41.593Z</time>
      </trkpt>
      <trkpt lat="42.60882" lon="18.23031">
        <ele>129.578954</ele>
        <time>2022-06-01T12:14:43.576Z</time>
      </trkpt>
      <trkpt lat="42.60888" lon="18.23021">
        <ele>129.402015</ele>
        <time>2022-06-01T12:14:45.576Z</time>
      </trkpt>
      <trkpt lat="42.60894" lon="18.23009">
        <ele>129.21875</ele>
        <time>2022-06-01T12:14:47.583Z</time>
      </trkpt>
      <trkpt lat="42.60899" lon="18.22998">
        <ele>129.039273</ele>
        <time>2022-06-01T12:14:49.575Z</time>
      </trkpt>
      <trkpt lat="42.60904" lon="18.22987">
        <ele>128.870873</ele>
        <time>2022-06-01T12:14:51.576Z</time>
      </trkpt>
      <trkpt lat="42.6091" lon="18.22971">
        <ele>128.632513</ele>
        <time>2022-06-01T12:14:54.569Z</time>
      </trkpt>
      <trkpt lat="42.60916" lon="18.22959">
        <ele>128.446612</ele>
        <time>2022-06-01T12:14:56.572Z</time>
      </trkpt>
      <trkpt lat="42.60921" lon="18.22946">
        <ele>128.251209</ele>
        <time>2022-06-01T12:14:58.581Z</time>
      </trkpt>
      <trkpt lat="42.60926" lon="18.22936">
        <ele>128.079834</ele>
        <time>2022-06-01T12:15:00.577Z</time>
      </trkpt>
      <trkpt lat="42.60931" lon="18.22925">
        <ele>127.911624</ele>
        <time>2022-06-01T12:15:02.601Z</time>
      </trkpt>
      <trkpt lat="42.60938" lon="18.22911">
        <ele>127.679214</ele>
        <time>2022-06-01T12:15:05.575Z</time>
      </trkpt>
      <trkpt lat="42.60945" lon="18.22902">
        <ele>127.499903</ele>
        <time>2022-06-01T12:15:07.580Z</time>
      </trkpt>
      <trkpt lat="42.60953" lon="18.22893">
        <ele>127.3086</ele>
        <time>2022-06-01T12:15:09.575Z</time>
      </trkpt>
      <trkpt lat="42.60961" lon="18.22884">
        <ele>127.120036</ele>
        <time>2022-06-01T12:15:11.567Z</time>
      </trkpt>
      <trkpt lat="42.60968" lon="18.22875">
        <ele>126.930953</ele>
        <time>2022-06-01T12:15:13.584Z</time>
      </trkpt>
      <trkpt lat="42.60976" lon="18.22866">
        <ele>126.748279</ele>
        <time>2022-06-01T12:15:15.580Z</time>
      </trkpt>
      <trkpt lat="42.60984" lon="18.22858">
        <ele>126.560012</ele>
        <time>2022-06-01T12:15:17.617Z</time>
      </trkpt>
      <trkpt lat="42.60992" lon="18.2285">
        <ele>126.379544</ele>
        <time>2022-06-01T12:15:19.608Z</time>
      </trkpt>
      <trkpt lat="42.60999" lon="18.22842">
        <ele>126.203044</ele>
        <time>2022-06-01T12:15:21.581Z</time>
      </trkpt>
      <trkpt lat="42.61007" lon="18.22835">
        <ele>126.025107</ele>
        <time>2022-06-01T12:15:23.589Z</time>
      </trkpt>
      <trkpt lat="42.61015" lon="18.22828">
        <ele>125.849503</ele>
        <time>2022-06-01T12:15:25.577Z</time>
      </trkpt>
      <trkpt lat="42.61023" lon="18.22821">
        <ele>125.661085</ele>
        <time>2022-06-01T12:15:27.569Z</time>
      </trkpt>
      <trkpt lat="42.61032" lon="18.22814">
        <ele>125.466432</ele>
        <time>2022-06-01T12:15:29.580Z</time>
      </trkpt>
      <trkpt lat="42.61041" lon="18.22808">
        <ele>125.281654</ele>
        <time>2022-06-01T12:15:31.570Z</time>
      </trkpt>
      <trkpt lat="42.6105" lon="18.22802">
        <ele>125.098205</ele>
        <time>2022-06-01T12:15:33.589Z</time>
      </trkpt>
      <trkpt lat="42.61059" lon="18.22796">
        <ele>124.918625</ele>
        <time>2022-06-01T12:15:35.572Z</time>
      </trkpt>
      <trkpt lat="42.61067" lon="18.22791">
        <ele>124.74483</ele>
        <time>2022-06-01T12:15:37.598Z</time>
      </trkpt>
      <trkpt lat="42.6108" lon="18.22785">
        <ele>124.496869</ele>
        <time>2022-06-01T12:15:40.583Z</time>
      </trkpt>
      <trkpt lat="42.61088" lon="18.2278">
        <ele>124.362021</ele>
        <time>2022-06-01T12:15:42.583Z</time>
      </trkpt>
      <trkpt lat="42.61101" lon="18.22773">
        <ele>124.728107</ele>
        <time>2022-06-01T12:15:45.575Z</time>
      </trkpt>
      <trkpt lat="42.6111" lon="18.22769">
        <ele>124.997605</ele>
        <time>2022-06-01T12:15:47.621Z</time>
      </trkpt>
      <trkpt lat="42.61119" lon="18.22764">
        <ele>125.269434</ele>
        <time>2022-06-01T12:15:49.597Z</time>
      </trkpt>
      <trkpt lat="42.61128" lon="18.22759">
        <ele>125.527798</ele>
        <time>2022-06-01T12:15:51.599Z</time>
      </trkpt>
      <trkpt lat="42.61137" lon="18.22755">
        <ele>125.797954</ele>
        <time>2022-06-01T12:15:53.586Z</time>
      </trkpt>
      <trkpt lat="42.61151" lon="18.2275">
        <ele>126.190427</ele>
        <time>2022-06-01T12:15:56.629Z</time>
      </trkpt>
      <trkpt lat="42.61161" lon="18.22746">
        <ele>126.475839</ele>
        <time>2022-06-01T12:15:58.577Z</time>
      </trkpt>
      <trkpt lat="42.61171" lon="18.22742">
        <ele>126.768819</ele>
        <time>2022-06-01T12:16:00.569Z</time>
      </trkpt>
      <trkpt lat="42.61181" lon="18.22737">
        <ele>127.047583</ele>
        <time>2022-06-01T12:16:02.579Z</time>
      </trkpt>
      <trkpt lat="42.6119" lon="18.22732">
        <ele>127.328771</ele>
        <time>2022-06-01T12:16:04.578Z</time>
      </trkpt>
      <trkpt lat="42.612" lon="18.22727">
        <ele>127.610502</ele>
        <time>2022-06-01T12:16:06.577Z</time>
      </trkpt>
      <trkpt lat="42.61209" lon="18.22722">
        <ele>127.876276</ele>
        <time>2022-06-01T12:16:08.589Z</time>
      </trkpt>
      <trkpt lat="42.61217" lon="18.22716">
        <ele>128.136618</ele>
        <time>2022-06-01T12:16:10.600Z</time>
      </trkpt>
      <trkpt lat="42.61226" lon="18.2271">
        <ele>128.40406</ele>
        <time>2022-06-01T12:16:12.582Z</time>
      </trkpt>
      <trkpt lat="42.61235" lon="18.22705">
        <ele>128.670044</ele>
        <time>2022-06-01T12:16:14.575Z</time>
      </trkpt>
      <trkpt lat="42.61244" lon="18.227">
        <ele>128.941872</ele>
        <time>2022-06-01T12:16:16.579Z</time>
      </trkpt>
      <trkpt lat="42.61253" lon="18.22694">
        <ele>129.211976</ele>
        <time>2022-06-01T12:16:18.627Z</time>
      </trkpt>
      <trkpt lat="42.61262" lon="18.22688">
        <ele>129.050721</ele>
        <time>2022-06-01T12:16:20.592Z</time>
      </trkpt>
      <trkpt lat="42.6127" lon="18.22681">
        <ele>128.75745</ele>
        <time>2022-06-01T12:16:22.618Z</time>
      </trkpt>
      <trkpt lat="42.61278" lon="18.22673">
        <ele>128.477482</ele>
        <time>2022-06-01T12:16:24.583Z</time>
      </trkpt>
      <trkpt lat="42.61286" lon="18.22665">
        <ele>128.191283</ele>
        <time>2022-06-01T12:16:26.584Z</time>
      </trkpt>
      <trkpt lat="42.61293" lon="18.22656">
        <ele>127.907611</ele>
        <time>2022-06-01T12:16:28.577Z</time>
      </trkpt>
      <trkpt lat="42.613" lon="18.22646">
        <ele>127.608192</ele>
        <time>2022-06-01T12:16:30.610Z</time>
      </trkpt>
      <trkpt lat="42.61307" lon="18.22636">
        <ele>127.309671</ele>
        <time>2022-06-01T12:16:32.579Z</time>
      </trkpt>
      <trkpt lat="42.61314" lon="18.22626">
        <ele>127.014486</ele>
        <time>2022-06-01T12:16:34.571Z</time>
      </trkpt>
      <trkpt lat="42.6132" lon="18.22616">
        <ele>126.734287</ele>
        <time>2022-06-01T12:16:36.619Z</time>
      </trkpt>
      <trkpt lat="42.61326" lon="18.22606">
        <ele>126.454173</ele>
        <time>2022-06-01T12:16:38.586Z</time>
      </trkpt>
      <trkpt lat="42.61333" lon="18.22597">
        <ele>126.175636</ele>
        <time>2022-06-01T12:16:40.585Z</time>
      </trkpt>
      <trkpt lat="42.61339" lon="18.22587">
        <ele>125.901038</ele>
        <time>2022-06-01T12:16:42.601Z</time>
      </trkpt>
      <trkpt lat="42.61344" lon="18.22576">
        <ele>125.629098</ele>
        <time>2022-06-01T12:16:44.583Z</time>
      </trkpt>
      <trkpt lat="42.61349" lon="18.22565">
        <ele>125.346774</ele>
        <time>2022-06-01T12:16:46.585Z</time>
      </trkpt>
      <trkpt lat="42.61354" lon="18.22553">
        <ele>125.05182</ele>
        <time>2022-06-01T12:16:48.583Z</time>
      </trkpt>
      <trkpt lat="42.61359" lon="18.22542">
        <ele>124.76382</ele>
        <time>2022-06-01T12:16:50.581Z</time>
      </trkpt>
      <trkpt lat="42.61365" lon="18.22531">
        <ele>124.48365</ele>
        <time>2022-06-01T12:16:52.582Z</time>
      </trkpt>
      <trkpt lat="42.6137" lon="18.22521">
        <ele>124.203395</ele>
        <time>2022-06-01T12:16:54.582Z</time>
      </trkpt>
      <trkpt lat="42.61375" lon="18.22509">
        <ele>123.891309</ele>
        <time>2022-06-01T12:16:56.586Z</time>
      </trkpt>
      <trkpt lat="42.6138" lon="18.22497">
        <ele>123.519685</ele>
        <time>2022-06-01T12:16:58.582Z</time>
      </trkpt>
      <trkpt lat="42.61385" lon="18.22485">
        <ele>123.140353</ele>
        <time>2022-06-01T12:17:00.578Z</time>
      </trkpt>
      <trkpt lat="42.61389" lon="18.22473">
        <ele>122.766979</ele>
        <time>2022-06-01T12:17:02.567Z</time>
      </trkpt>
      <trkpt lat="42.61393" lon="18.2246">
        <ele>122.400856</ele>
        <time>2022-06-01T12:17:04.592Z</time>
      </trkpt>
      <trkpt lat="42.61396" lon="18.22448">
        <ele>122.041211</ele>
        <time>2022-06-01T12:17:06.603Z</time>
      </trkpt>
      <trkpt lat="42.614" lon="18.22436">
        <ele>121.66179</ele>
        <time>2022-06-01T12:17:08.684Z</time>
      </trkpt>
      <trkpt lat="42.61404" lon="18.22423">
        <ele>121.289365</ele>
        <time>2022-06-01T12:17:10.579Z</time>
      </trkpt>
      <trkpt lat="42.61409" lon="18.22411">
        <ele>120.92771</ele>
        <time>2022-06-01T12:17:12.580Z</time>
      </trkpt>
      <trkpt lat="42.61414" lon="18.22399">
        <ele>120.546567</ele>
        <time>2022-06-01T12:17:14.609Z</time>
      </trkpt>
      <trkpt lat="42.61418" lon="18.22387">
        <ele>120.172506</ele>
        <time>2022-06-01T12:17:16.588Z</time>
      </trkpt>
      <trkpt lat="42.61423" lon="18.22376">
        <ele>119.808171</ele>
        <time>2022-06-01T12:17:18.582Z</time>
      </trkpt>
      <trkpt lat="42.61427" lon="18.22364">
        <ele>119.454727</ele>
        <time>2022-06-01T12:17:20.574Z</time>
      </trkpt>
      <trkpt lat="42.61433" lon="18.22348">
        <ele>118.947946</ele>
        <time>2022-06-01T12:17:23.610Z</time>
      </trkpt>
      <trkpt lat="42.6144" lon="18.22332">
        <ele>118.442853</ele>
        <time>2022-06-01T12:17:26.587Z</time>
      </trkpt>
      <trkpt lat="42.61445" lon="18.22321">
        <ele>118.096325</ele>
        <time>2022-06-01T12:17:28.587Z</time>
      </trkpt>
      <trkpt lat="42.6145" lon="18.2231">
        <ele>117.754487</ele>
        <time>2022-06-01T12:17:30.618Z</time>
      </trkpt>
      <trkpt lat="42.61455" lon="18.22299">
        <ele>117.393371</ele>
        <time>2022-06-01T12:17:32.582Z</time>
      </trkpt>
      <trkpt lat="42.6146" lon="18.22289">
        <ele>117.12788</ele>
        <time>2022-06-01T12:17:34.597Z</time>
      </trkpt>
      <trkpt lat="42.61464" lon="18.22278">
        <ele>116.897546</ele>
        <time>2022-06-01T12:17:36.575Z</time>
      </trkpt>
      <trkpt lat="42.6147" lon="18.22261">
        <ele>116.559482</ele>
        <time>2022-06-01T12:17:39.592Z</time>
      </trkpt>
      <trkpt lat="42.61473" lon="18.2225">
        <ele>116.325322</ele>
        <time>2022-06-01T12:17:41.593Z</time>
      </trkpt>
      <trkpt lat="42.61477" lon="18.22238">
        <ele>116.073592</ele>
        <time>2022-06-01T12:17:43.568Z</time>
      </trkpt>
      <trkpt lat="42.61481" lon="18.22226">
        <ele>115.827782</ele>
        <time>2022-06-01T12:17:45.586Z</time>
      </trkpt>
      <trkpt lat="42.61484" lon="18.22214">
        <ele>115.591913</ele>
        <time>2022-06-01T12:17:47.651Z</time>
      </trkpt>
      <trkpt lat="42.61487" lon="18.22196">
        <ele>115.255647</ele>
        <time>2022-06-01T12:17:50.615Z</time>
      </trkpt>
      <trkpt lat="42.6149" lon="18.22179">
        <ele>114.921048</ele>
        <time>2022-06-01T12:17:53.583Z</time>
      </trkpt>
      <trkpt lat="42.61491" lon="18.22167">
        <ele>114.689098</ele>
        <time>2022-06-01T12:17:55.587Z</time>
      </trkpt>
      <trkpt lat="42.61492" lon="18.22155">
        <ele>114.457152</ele>
        <time>2022-06-01T12:17:57.601Z</time>
      </trkpt>
      <trkpt lat="42.61493" lon="18.22136">
        <ele>114.113327</ele>
        <time>2022-06-01T12:18:00.578Z</time>
      </trkpt>
      <trkpt lat="42.61494" lon="18.22118">
        <ele>113.771138</ele>
        <time>2022-06-01T12:18:03.580Z</time>
      </trkpt>
      <trkpt lat="42.61496" lon="18.221">
        <ele>113.425938</ele>
        <time>2022-06-01T12:18:06.574Z</time>
      </trkpt>
      <trkpt lat="42.61497" lon="18.22082">
        <ele>113.089104</ele>
        <time>2022-06-01T12:18:09.591Z</time>
      </trkpt>
      <trkpt lat="42.61499" lon="18.22064">
        <ele>112.7389</ele>
        <time>2022-06-01T12:18:12.580Z</time>
      </trkpt>
      <trkpt lat="42.615" lon="18.22046">
        <ele>112.718849</ele>
        <time>2022-06-01T12:18:15.582Z</time>
      </trkpt>
      <trkpt lat="42.61502" lon="18.22029">
        <ele>112.724261</ele>
        <time>2022-06-01T12:18:18.571Z</time>
      </trkpt>
      <trkpt lat="42.61504" lon="18.22012">
        <ele>112.729283</ele>
        <time>2022-06-01T12:18:21.576Z</time>
      </trkpt>
      <trkpt lat="42.61507" lon="18.21995">
        <ele>112.73475</ele>
        <time>2022-06-01T12:18:24.608Z</time>
      </trkpt>
      <trkpt lat="42.6151" lon="18.21978">
        <ele>112.739975</ele>
        <time>2022-06-01T12:18:27.578Z</time>
      </trkpt>
      <trkpt lat="42.61514" lon="18.2196">
        <ele>112.745536</ele>
        <time>2022-06-01T12:18:30.549Z</time>
      </trkpt>
      <trkpt lat="42.61519" lon="18.21945">
        <ele>112.750763</ele>
        <time>2022-06-01T12:18:33.579Z</time>
      </trkpt>
      <trkpt lat="42.61522" lon="18.21932">
        <ele>112.754734</ele>
        <time>2022-06-01T12:18:35.574Z</time>
      </trkpt>
      <trkpt lat="42.61527" lon="18.21915">
        <ele>112.760313</ele>
        <time>2022-06-01T12:18:38.588Z</time>
      </trkpt>
      <trkpt lat="42.6153" lon="18.21902">
        <ele>112.764412</ele>
        <time>2022-06-01T12:18:40.568Z</time>
      </trkpt>
      <trkpt lat="42.61534" lon="18.2189">
        <ele>112.768345</ele>
        <time>2022-06-01T12:18:42.581Z</time>
      </trkpt>
      <trkpt lat="42.61539" lon="18.21879">
        <ele>112.772254</ele>
        <time>2022-06-01T12:18:44.598Z</time>
      </trkpt>
      <trkpt lat="42.61543" lon="18.21867">
        <ele>112.776293</ele>
        <time>2022-06-01T12:18:46.560Z</time>
      </trkpt>
      <trkpt lat="42.61547" lon="18.21856">
        <ele>112.780082</ele>
        <time>2022-06-01T12:18:48.591Z</time>
      </trkpt>
      <trkpt lat="42.61552" lon="18.2184">
        <ele>112.785236</ele>
        <time>2022-06-01T12:18:51.579Z</time>
      </trkpt>
      <trkpt lat="42.61557" lon="18.2183">
        <ele>112.914063</ele>
        <time>2022-06-01T12:18:53.579Z</time>
      </trkpt>
      <trkpt lat="42.61563" lon="18.2182">
        <ele>113.396716</ele>
        <time>2022-06-01T12:18:55.614Z</time>
      </trkpt>
      <trkpt lat="42.61568" lon="18.2181">
        <ele>113.898689</ele>
        <time>2022-06-01T12:18:57.591Z</time>
      </trkpt>
      <trkpt lat="42.61573" lon="18.218">
        <ele>114.381424</ele>
        <time>2022-06-01T12:18:59.577Z</time>
      </trkpt>
      <trkpt lat="42.61579" lon="18.2179">
        <ele>114.879976</ele>
        <time>2022-06-01T12:19:01.590Z</time>
      </trkpt>
      <trkpt lat="42.61584" lon="18.2178">
        <ele>115.368972</ele>
        <time>2022-06-01T12:19:03.579Z</time>
      </trkpt>
      <trkpt lat="42.6159" lon="18.2177">
        <ele>115.854794</ele>
        <time>2022-06-01T12:19:05.591Z</time>
      </trkpt>
      <trkpt lat="42.61598" lon="18.21757">
        <ele>116.560589</ele>
        <time>2022-06-01T12:19:08.609Z</time>
      </trkpt>
      <trkpt lat="42.61607" lon="18.21743">
        <ele>117.271016</ele>
        <time>2022-06-01T12:19:11.591Z</time>
      </trkpt>
      <trkpt lat="42.61615" lon="18.21729">
        <ele>117.944384</ele>
        <time>2022-06-01T12:19:14.590Z</time>
      </trkpt>
      <trkpt lat="42.61624" lon="18.21717">
        <ele>118.63785</ele>
        <time>2022-06-01T12:19:17.580Z</time>
      </trkpt>
      <trkpt lat="42.61629" lon="18.21707">
        <ele>119.120803</ele>
        <time>2022-06-01T12:19:19.579Z</time>
      </trkpt>
      <trkpt lat="42.61635" lon="18.21697">
        <ele>119.623034</ele>
        <time>2022-06-01T12:19:21.570Z</time>
      </trkpt>
      <trkpt lat="42.61641" lon="18.21687">
        <ele>120.134342</ele>
        <time>2022-06-01T12:19:23.586Z</time>
      </trkpt>
      <trkpt lat="42.61648" lon="18.21677">
        <ele>120.662496</ele>
        <time>2022-06-01T12:19:25.602Z</time>
      </trkpt>
      <trkpt lat="42.61655" lon="18.21669">
        <ele>121.17345</ele>
        <time>2022-06-01T12:19:27.564Z</time>
      </trkpt>
      <trkpt lat="42.61662" lon="18.2166">
        <ele>121.690003</ele>
        <time>2022-06-01T12:19:29.563Z</time>
      </trkpt>
      <trkpt lat="42.61669" lon="18.21651">
        <ele>122.194708</ele>
        <time>2022-06-01T12:19:31.559Z</time>
      </trkpt>
      <trkpt lat="42.61675" lon="18.21642">
        <ele>122.595416</ele>
        <time>2022-06-01T12:19:33.583Z</time>
      </trkpt>
      <trkpt lat="42.61682" lon="18.21633">
        <ele>122.924829</ele>
        <time>2022-06-01T12:19:35.555Z</time>
      </trkpt>
      <trkpt lat="42.61689" lon="18.21624">
        <ele>123.261087</ele>
        <time>2022-06-01T12:19:37.579Z</time>
      </trkpt>
      <trkpt lat="42.61696" lon="18.21615">
        <ele>123.606822</ele>
        <time>2022-06-01T12:19:39.569Z</time>
      </trkpt>
      <trkpt lat="42.61703" lon="18.21606">
        <ele>123.941713</ele>
        <time>2022-06-01T12:19:41.571Z</time>
      </trkpt>
      <trkpt lat="42.61712" lon="18.21593">
        <ele>124.403082</ele>
        <time>2022-06-01T12:19:44.573Z</time>
      </trkpt>
      <trkpt lat="42.61719" lon="18.21584">
        <ele>124.72904</ele>
        <time>2022-06-01T12:19:46.594Z</time>
      </trkpt>
      <trkpt lat="42.61727" lon="18.21574">
        <ele>125.10584</ele>
        <time>2022-06-01T12:19:48.588Z</time>
      </trkpt>
      <trkpt lat="42.61735" lon="18.21565">
        <ele>125.4645</ele>
        <time>2022-06-01T12:19:50.580Z</time>
      </trkpt>
      <trkpt lat="42.61743" lon="18.21556">
        <ele>125.831555</ele>
        <time>2022-06-01T12:19:52.600Z</time>
      </trkpt>
      <trkpt lat="42.61751" lon="18.21548">
        <ele>126.167063</ele>
        <time>2022-06-01T12:19:54.581Z</time>
      </trkpt>
      <trkpt lat="42.61758" lon="18.2154">
        <ele>126.503577</ele>
        <time>2022-06-01T12:19:56.588Z</time>
      </trkpt>
      <trkpt lat="42.61766" lon="18.21532">
        <ele>126.850231</ele>
        <time>2022-06-01T12:19:58.591Z</time>
      </trkpt>
      <trkpt lat="42.61774" lon="18.21523">
        <ele>127.21553</ele>
        <time>2022-06-01T12:20:00.577Z</time>
      </trkpt>
      <trkpt lat="42.61783" lon="18.21516">
        <ele>127.575108</ele>
        <time>2022-06-01T12:20:02.562Z</time>
      </trkpt>
      <trkpt lat="42.61792" lon="18.21508">
        <ele>127.941788</ele>
        <time>2022-06-01T12:20:04.579Z</time>
      </trkpt>
      <trkpt lat="42.618" lon="18.215">
        <ele>128.292569</ele>
        <time>2022-06-01T12:20:06.574Z</time>
      </trkpt>
      <trkpt lat="42.61808" lon="18.21494">
        <ele>128.620873</ele>
        <time>2022-06-01T12:20:08.595Z</time>
      </trkpt>
      <trkpt lat="42.61817" lon="18.21487">
        <ele>128.515138</ele>
        <time>2022-06-01T12:20:10.571Z</time>
      </trkpt>
      <trkpt lat="42.61826" lon="18.21481">
        <ele>128.277743</ele>
        <time>2022-06-01T12:20:12.589Z</time>
      </trkpt>
      <trkpt lat="42.61836" lon="18.21477">
        <ele>128.046945</ele>
        <time>2022-06-01T12:20:14.574Z</time>
      </trkpt>
      <trkpt lat="42.61845" lon="18.21473">
        <ele>127.806391</ele>
        <time>2022-06-01T12:20:16.587Z</time>
      </trkpt>
      <trkpt lat="42.61856" lon="18.2147">
        <ele>127.556136</ele>
        <time>2022-06-01T12:20:18.592Z</time>
      </trkpt>
      <trkpt lat="42.61866" lon="18.21466">
        <ele>127.30649</ele>
        <time>2022-06-01T12:20:20.582Z</time>
      </trkpt>
      <trkpt lat="42.61876" lon="18.21461">
        <ele>127.051126</ele>
        <time>2022-06-01T12:20:22.591Z</time>
      </trkpt>
      <trkpt lat="42.61886" lon="18.21456">
        <ele>126.805295</ele>
        <time>2022-06-01T12:20:24.618Z</time>
      </trkpt>
      <trkpt lat="42.61894" lon="18.21448">
        <ele>126.565126</ele>
        <time>2022-06-01T12:20:26.580Z</time>
      </trkpt>
      <trkpt lat="42.61902" lon="18.2144">
        <ele>126.324813</ele>
        <time>2022-06-01T12:20:28.580Z</time>
      </trkpt>
      <trkpt lat="42.6191" lon="18.21431">
        <ele>126.089552</ele>
        <time>2022-06-01T12:20:30.600Z</time>
      </trkpt>
      <trkpt lat="42.61917" lon="18.21421">
        <ele>125.855926</ele>
        <time>2022-06-01T12:20:32.598Z</time>
      </trkpt>
      <trkpt lat="42.61923" lon="18.21411">
        <ele>125.632024</ele>
        <time>2022-06-01T12:20:34.581Z</time>
      </trkpt>
      <trkpt lat="42.61928" lon="18.214">
        <ele>125.409129</ele>
        <time>2022-06-01T12:20:36.578Z</time>
      </trkpt>
      <trkpt lat="42.61933" lon="18.21389">
        <ele>125.182035</ele>
        <time>2022-06-01T12:20:38.589Z</time>
      </trkpt>
      <trkpt lat="42.61938" lon="18.21377">
        <ele>124.937949</ele>
        <time>2022-06-01T12:20:40.601Z</time>
      </trkpt>
      <trkpt lat="42.61944" lon="18.21365">
        <ele>124.68618</ele>
        <time>2022-06-01T12:20:42.574Z</time>
      </trkpt>
      <trkpt lat="42.61949" lon="18.21352">
        <ele>124.438523</ele>
        <time>2022-06-01T12:20:44.587Z</time>
      </trkpt>
      <trkpt lat="42.61955" lon="18.21339">
        <ele>124.241073</ele>
        <time>2022-06-01T12:20:46.582Z</time>
      </trkpt>
      <trkpt lat="42.6196" lon="18.21326">
        <ele>124.053188</ele>
        <time>2022-06-01T12:20:48.581Z</time>
      </trkpt>
      <trkpt lat="42.61965" lon="18.21314">
        <ele>123.87123</ele>
        <time>2022-06-01T12:20:50.587Z</time>
      </trkpt>
      <trkpt lat="42.6197" lon="18.21301">
        <ele>123.68381</ele>
        <time>2022-06-01T12:20:52.584Z</time>
      </trkpt>
      <trkpt lat="42.61977" lon="18.21289">
        <ele>123.494133</ele>
        <time>2022-06-01T12:20:54.582Z</time>
      </trkpt>
      <trkpt lat="42.61984" lon="18.21278">
        <ele>123.295423</ele>
        <time>2022-06-01T12:20:56.576Z</time>
      </trkpt>
      <trkpt lat="42.61993" lon="18.21266">
        <ele>123.090872</ele>
        <time>2022-06-01T12:20:58.586Z</time>
      </trkpt>
      <trkpt lat="42.62001" lon="18.21255">
        <ele>122.873769</ele>
        <time>2022-06-01T12:21:00.580Z</time>
      </trkpt>
      <trkpt lat="42.62012" lon="18.21245">
        <ele>122.652399</ele>
        <time>2022-06-01T12:21:02.582Z</time>
      </trkpt>
      <trkpt lat="42.62022" lon="18.21237">
        <ele>122.44036</ele>
        <time>2022-06-01T12:21:04.607Z</time>
      </trkpt>
      <trkpt lat="42.62033" lon="18.21229">
        <ele>122.233696</ele>
        <time>2022-06-01T12:21:06.582Z</time>
      </trkpt>
      <trkpt lat="42.62043" lon="18.21224">
        <ele>122.047848</ele>
        <time>2022-06-01T12:21:08.572Z</time>
      </trkpt>
      <trkpt lat="42.62054" lon="18.2122">
        <ele>121.843963</ele>
        <time>2022-06-01T12:21:10.571Z</time>
      </trkpt>
      <trkpt lat="42.62064" lon="18.21217">
        <ele>121.659474</ele>
        <time>2022-06-01T12:21:12.582Z</time>
      </trkpt>
      <trkpt lat="42.62075" lon="18.21214">
        <ele>121.468682</ele>
        <time>2022-06-01T12:21:14.580Z</time>
      </trkpt>
      <trkpt lat="42.62086" lon="18.21213">
        <ele>121.298431</ele>
        <time>2022-06-01T12:21:16.589Z</time>
      </trkpt>
      <trkpt lat="42.62097" lon="18.21214">
        <ele>121.214831</ele>
        <time>2022-06-01T12:21:18.581Z</time>
      </trkpt>
      <trkpt lat="42.62109" lon="18.21215">
        <ele>121.125945</ele>
        <time>2022-06-01T12:21:20.570Z</time>
      </trkpt>
      <trkpt lat="42.6212" lon="18.21215">
        <ele>121.041643</ele>
        <time>2022-06-01T12:21:22.583Z</time>
      </trkpt>
      <trkpt lat="42.62133" lon="18.21215">
        <ele>120.944645</ele>
        <time>2022-06-01T12:21:24.576Z</time>
      </trkpt>
      <trkpt lat="42.62144" lon="18.21214">
        <ele>120.859484</ele>
        <time>2022-06-01T12:21:26.647Z</time>
      </trkpt>
      <trkpt lat="42.62155" lon="18.21212">
        <ele>120.776189</ele>
        <time>2022-06-01T12:21:28.583Z</time>
      </trkpt>
      <trkpt lat="42.62166" lon="18.21208">
        <ele>120.694405</ele>
        <time>2022-06-01T12:21:30.585Z</time>
      </trkpt>
      <trkpt lat="42.62176" lon="18.21203">
        <ele>120.614761</ele>
        <time>2022-06-01T12:21:32.620Z</time>
      </trkpt>
      <trkpt lat="42.62186" lon="18.21197">
        <ele>120.533647</ele>
        <time>2022-06-01T12:21:34.584Z</time>
      </trkpt>
      <trkpt lat="42.62196" lon="18.21191">
        <ele>120.45074</ele>
        <time>2022-06-01T12:21:36.573Z</time>
      </trkpt>
      <trkpt lat="42.62207" lon="18.21185">
        <ele>120.36306</ele>
        <time>2022-06-01T12:21:38.553Z</time>
      </trkpt>
      <trkpt lat="42.62217" lon="18.21179">
        <ele>120.280572</ele>
        <time>2022-06-01T12:21:40.588Z</time>
      </trkpt>
      <trkpt lat="42.62227" lon="18.21173">
        <ele>120.198117</ele>
        <time>2022-06-01T12:21:42.589Z</time>
      </trkpt>
      <trkpt lat="42.62237" lon="18.21166">
        <ele>120.117675</ele>
        <time>2022-06-01T12:21:44.611Z</time>
      </trkpt>
      <trkpt lat="42.62247" lon="18.2116">
        <ele>120.037659</ele>
        <time>2022-06-01T12:21:46.575Z</time>
      </trkpt>
      <trkpt lat="42.62256" lon="18.21153">
        <ele>119.957939</ele>
        <time>2022-06-01T12:21:48.588Z</time>
      </trkpt>
      <trkpt lat="42.62264" lon="18.21149">
        <ele>119.880946</ele>
        <time>2022-06-01T12:21:50.597Z</time>
      </trkpt>
      <trkpt lat="42.62275" lon="18.21139">
        <ele>119.776702</ele>
        <time>2022-06-01T12:21:52.583Z</time>
      </trkpt>
      <trkpt lat="42.62286" lon="18.2113">
        <ele>119.668694</ele>
        <time>2022-06-01T12:21:54.565Z</time>
      </trkpt>
      <trkpt lat="42.62299" lon="18.21123">
        <ele>119.556254</ele>
        <time>2022-06-01T12:21:56.584Z</time>
      </trkpt>
      <trkpt lat="42.6231" lon="18.21116">
        <ele>119.448139</ele>
        <time>2022-06-01T12:21:58.578Z</time>
      </trkpt>
      <trkpt lat="42.62323" lon="18.21109">
        <ele>119.337383</ele>
        <time>2022-06-01T12:22:00.574Z</time>
      </trkpt>
      <trkpt lat="42.62336" lon="18.21104">
        <ele>119.219198</ele>
        <time>2022-06-01T12:22:02.580Z</time>
      </trkpt>
      <trkpt lat="42.6235" lon="18.21097">
        <ele>119.094352</ele>
        <time>2022-06-01T12:22:04.559Z</time>
      </trkpt>
      <trkpt lat="42.62363" lon="18.21087">
        <ele>118.97319</ele>
        <time>2022-06-01T12:22:06.622Z</time>
      </trkpt>
      <trkpt lat="42.62377" lon="18.21078">
        <ele>118.847035</ele>
        <time>2022-06-01T12:22:08.577Z</time>
      </trkpt>
      <trkpt lat="42.6239" lon="18.21068">
        <ele>118.719745</ele>
        <time>2022-06-01T12:22:10.566Z</time>
      </trkpt>
      <trkpt lat="42.62402" lon="18.21058">
        <ele>118.603439</ele>
        <time>2022-06-01T12:22:12.583Z</time>
      </trkpt>
      <trkpt lat="42.62413" lon="18.21047">
        <ele>118.489592</ele>
        <time>2022-06-01T12:22:14.590Z</time>
      </trkpt>
      <trkpt lat="42.62424" lon="18.21035">
        <ele>117.938613</ele>
        <time>2022-06-01T12:22:16.578Z</time>
      </trkpt>
      <trkpt lat="42.62434" lon="18.21021">
        <ele>117.311913</ele>
        <time>2022-06-01T12:22:18.590Z</time>
      </trkpt>
      <trkpt lat="42.62443" lon="18.21007">
        <ele>116.673923</ele>
        <time>2022-06-01T12:22:20.584Z</time>
      </trkpt>
      <trkpt lat="42.62453" lon="18.20993">
        <ele>116.063598</ele>
        <time>2022-06-01T12:22:22.630Z</time>
      </trkpt>
      <trkpt lat="42.62461" lon="18.20978">
        <ele>115.448814</ele>
        <time>2022-06-01T12:22:24.594Z</time>
      </trkpt>
      <trkpt lat="42.62469" lon="18.20962">
        <ele>114.800837</ele>
        <time>2022-06-01T12:22:26.578Z</time>
      </trkpt>
      <trkpt lat="42.62476" lon="18.20943">
        <ele>114.110614</ele>
        <time>2022-06-01T12:22:28.578Z</time>
      </trkpt>
      <trkpt lat="42.62482" lon="18.20924">
        <ele>113.440126</ele>
        <time>2022-06-01T12:22:30.575Z</time>
      </trkpt>
      <trkpt lat="42.62486" lon="18.20904">
        <ele>112.742985</ele>
        <time>2022-06-01T12:22:32.585Z</time>
      </trkpt>
      <trkpt lat="42.62488" lon="18.20883">
        <ele>112.056378</ele>
        <time>2022-06-01T12:22:34.602Z</time>
      </trkpt>
      <trkpt lat="42.6249" lon="18.20861">
        <ele>111.341501</ele>
        <time>2022-06-01T12:22:36.585Z</time>
      </trkpt>
      <trkpt lat="42.6249" lon="18.20839">
        <ele>110.620472</ele>
        <time>2022-06-01T12:22:38.573Z</time>
      </trkpt>
      <trkpt lat="42.6249" lon="18.20817">
        <ele>109.578743</ele>
        <time>2022-06-01T12:22:40.591Z</time>
      </trkpt>
      <trkpt lat="42.62489" lon="18.20794">
        <ele>108.430045</ele>
        <time>2022-06-01T12:22:42.572Z</time>
      </trkpt>
      <trkpt lat="42.62485" lon="18.20772">
        <ele>107.288884</ele>
        <time>2022-06-01T12:22:44.583Z</time>
      </trkpt>
      <trkpt lat="42.6248" lon="18.20751">
        <ele>106.138101</ele>
        <time>2022-06-01T12:22:46.560Z</time>
      </trkpt>
      <trkpt lat="42.62476" lon="18.20728">
        <ele>104.957013</ele>
        <time>2022-06-01T12:22:48.581Z</time>
      </trkpt>
      <trkpt lat="42.6247" lon="18.20706">
        <ele>103.774941</ele>
        <time>2022-06-01T12:22:50.585Z</time>
      </trkpt>
      <trkpt lat="42.62463" lon="18.20685">
        <ele>102.603158</ele>
        <time>2022-06-01T12:22:52.587Z</time>
      </trkpt>
      <trkpt lat="42.6246" lon="18.20674">
        <ele>101.976271</ele>
        <time>2022-06-01T12:22:53.586Z</time>
      </trkpt>
      <trkpt lat="42.62456" lon="18.20662">
        <ele>101.308123</ele>
        <time>2022-06-01T12:22:54.594Z</time>
      </trkpt>
      <trkpt lat="42.62453" lon="18.2065">
        <ele>100.659801</ele>
        <time>2022-06-01T12:22:55.570Z</time>
      </trkpt>
      <trkpt lat="42.62449" lon="18.20637">
        <ele>99.978074</ele>
        <time>2022-06-01T12:22:56.564Z</time>
      </trkpt>
      <trkpt lat="42.62446" lon="18.20625">
        <ele>99.325014</ele>
        <time>2022-06-01T12:22:57.579Z</time>
      </trkpt>
      <trkpt lat="42.62442" lon="18.20614">
        <ele>98.688652</ele>
        <time>2022-06-01T12:22:58.582Z</time>
      </trkpt>
      <trkpt lat="42.62436" lon="18.20591">
        <ele>97.646563</ele>
        <time>2022-06-01T12:23:00.585Z</time>
      </trkpt>
      <trkpt lat="42.62429" lon="18.20571">
        <ele>96.837757</ele>
        <time>2022-06-01T12:23:02.566Z</time>
      </trkpt>
      <trkpt lat="42.62424" lon="18.20548">
        <ele>95.997675</ele>
        <time>2022-06-01T12:23:04.601Z</time>
      </trkpt>
      <trkpt lat="42.62419" lon="18.20527">
        <ele>95.19108</ele>
        <time>2022-06-01T12:23:06.621Z</time>
      </trkpt>
      <trkpt lat="42.62414" lon="18.20503">
        <ele>94.333916</ele>
        <time>2022-06-01T12:23:08.581Z</time>
      </trkpt>
      <trkpt lat="42.62412" lon="18.20491">
        <ele>93.879249</ele>
        <time>2022-06-01T12:23:09.584Z</time>
      </trkpt>
      <trkpt lat="42.6241" lon="18.20478">
        <ele>93.408044</ele>
        <time>2022-06-01T12:23:10.609Z</time>
      </trkpt>
      <trkpt lat="42.62409" lon="18.20465">
        <ele>92.93502</ele>
        <time>2022-06-01T12:23:11.559Z</time>
      </trkpt>
      <trkpt lat="42.62408" lon="18.20452">
        <ele>92.47243</ele>
        <time>2022-06-01T12:23:12.578Z</time>
      </trkpt>
      <trkpt lat="42.62407" lon="18.20439">
        <ele>92.029428</ele>
        <time>2022-06-01T12:23:13.592Z</time>
      </trkpt>
      <trkpt lat="42.62407" lon="18.20427">
        <ele>91.587617</ele>
        <time>2022-06-01T12:23:14.581Z</time>
      </trkpt>
      <trkpt lat="42.62407" lon="18.20415">
        <ele>91.142114</ele>
        <time>2022-06-01T12:23:15.646Z</time>
      </trkpt>
      <trkpt lat="42.62409" lon="18.2039">
        <ele>90.271642</ele>
        <time>2022-06-01T12:23:17.576Z</time>
      </trkpt>
      <trkpt lat="42.62412" lon="18.20367">
        <ele>89.428037</ele>
        <time>2022-06-01T12:23:19.570Z</time>
      </trkpt>
      <trkpt lat="42.62417" lon="18.20345">
        <ele>88.965884</ele>
        <time>2022-06-01T12:23:21.606Z</time>
      </trkpt>
      <trkpt lat="42.62423" lon="18.20325">
        <ele>88.558242</ele>
        <time>2022-06-01T12:23:23.591Z</time>
      </trkpt>
      <trkpt lat="42.6243" lon="18.20305">
        <ele>88.151298</ele>
        <time>2022-06-01T12:23:25.586Z</time>
      </trkpt>
      <trkpt lat="42.62438" lon="18.20286">
        <ele>87.748094</ele>
        <time>2022-06-01T12:23:27.602Z</time>
      </trkpt>
      <trkpt lat="42.62447" lon="18.20267">
        <ele>87.341812</ele>
        <time>2022-06-01T12:23:29.584Z</time>
      </trkpt>
      <trkpt lat="42.62456" lon="18.2025">
        <ele>86.943278</ele>
        <time>2022-06-01T12:23:31.588Z</time>
      </trkpt>
      <trkpt lat="42.62467" lon="18.20235">
        <ele>86.563226</ele>
        <time>2022-06-01T12:23:33.588Z</time>
      </trkpt>
      <trkpt lat="42.62478" lon="18.2022">
        <ele>86.175412</ele>
        <time>2022-06-01T12:23:35.594Z</time>
      </trkpt>
      <trkpt lat="42.6249" lon="18.20206">
        <ele>85.77438</ele>
        <time>2022-06-01T12:23:37.578Z</time>
      </trkpt>
      <trkpt lat="42.62502" lon="18.20191">
        <ele>85.364156</ele>
        <time>2022-06-01T12:23:39.572Z</time>
      </trkpt>
      <trkpt lat="42.62514" lon="18.20175">
        <ele>84.942944</ele>
        <time>2022-06-01T12:23:41.566Z</time>
      </trkpt>
      <trkpt lat="42.62525" lon="18.20158">
        <ele>84.238435</ele>
        <time>2022-06-01T12:23:43.589Z</time>
      </trkpt>
      <trkpt lat="42.62535" lon="18.20139">
        <ele>83.428636</ele>
        <time>2022-06-01T12:23:45.576Z</time>
      </trkpt>
      <trkpt lat="42.62545" lon="18.20119">
        <ele>82.591939</ele>
        <time>2022-06-01T12:23:47.590Z</time>
      </trkpt>
      <trkpt lat="42.62553" lon="18.20099">
        <ele>81.761829</ele>
        <time>2022-06-01T12:23:49.579Z</time>
      </trkpt>
      <trkpt lat="42.62559" lon="18.20076">
        <ele>80.902404</ele>
        <time>2022-06-01T12:23:51.620Z</time>
      </trkpt>
      <trkpt lat="42.62561" lon="18.20064">
        <ele>80.469952</ele>
        <time>2022-06-01T12:23:52.572Z</time>
      </trkpt>
      <trkpt lat="42.62563" lon="18.20051">
        <ele>80.006598</ele>
        <time>2022-06-01T12:23:53.571Z</time>
      </trkpt>
      <trkpt lat="42.62564" lon="18.20038">
        <ele>79.566371</ele>
        <time>2022-06-01T12:23:54.595Z</time>
      </trkpt>
      <trkpt lat="42.62565" lon="18.20026">
        <ele>79.131928</ele>
        <time>2022-06-01T12:23:55.631Z</time>
      </trkpt>
      <trkpt lat="42.62565" lon="18.20012">
        <ele>78.657224</ele>
        <time>2022-06-01T12:23:56.578Z</time>
      </trkpt>
      <trkpt lat="42.62565" lon="18.19998">
        <ele>78.158134</ele>
        <time>2022-06-01T12:23:57.568Z</time>
      </trkpt>
      <trkpt lat="42.62565" lon="18.19985">
        <ele>77.685614</ele>
        <time>2022-06-01T12:23:58.579Z</time>
      </trkpt>
      <trkpt lat="42.62563" lon="18.19972">
        <ele>77.216876</ele>
        <time>2022-06-01T12:23:59.582Z</time>
      </trkpt>
      <trkpt lat="42.62561" lon="18.19959">
        <ele>76.751036</ele>
        <time>2022-06-01T12:24:00.594Z</time>
      </trkpt>
      <trkpt lat="42.62559" lon="18.19946">
        <ele>76.292462</ele>
        <time>2022-06-01T12:24:01.691Z</time>
      </trkpt>
      <trkpt lat="42.62557" lon="18.19933">
        <ele>75.796857</ele>
        <time>2022-06-01T12:24:02.580Z</time>
      </trkpt>
      <trkpt lat="42.62554" lon="18.19921">
        <ele>75.285307</ele>
        <time>2022-06-01T12:24:03.580Z</time>
      </trkpt>
      <trkpt lat="42.62551" lon="18.19909">
        <ele>74.774052</ele>
        <time>2022-06-01T12:24:04.571Z</time>
      </trkpt>
      <trkpt lat="42.62547" lon="18.19896">
        <ele>74.266467</ele>
        <time>2022-06-01T12:24:05.608Z</time>
      </trkpt>
      <trkpt lat="42.62544" lon="18.19884">
        <ele>73.758667</ele>
        <time>2022-06-01T12:24:06.581Z</time>
      </trkpt>
      <trkpt lat="42.62541" lon="18.19872">
        <ele>73.263887</ele>
        <time>2022-06-01T12:24:07.581Z</time>
      </trkpt>
      <trkpt lat="42.62538" lon="18.19861">
        <ele>72.785503</ele>
        <time>2022-06-01T12:24:08.610Z</time>
      </trkpt>
      <trkpt lat="42.62534" lon="18.19849">
        <ele>72.306915</ele>
        <time>2022-06-01T12:24:09.586Z</time>
      </trkpt>
      <trkpt lat="42.62528" lon="18.19827">
        <ele>71.382555</ele>
        <time>2022-06-01T12:24:11.590Z</time>
      </trkpt>
      <trkpt lat="42.62522" lon="18.19806">
        <ele>70.518961</ele>
        <time>2022-06-01T12:24:13.663Z</time>
      </trkpt>
      <trkpt lat="42.62518" lon="18.19785">
        <ele>69.680035</ele>
        <time>2022-06-01T12:24:15.562Z</time>
      </trkpt>
      <trkpt lat="42.62517" lon="18.19764">
        <ele>68.845252</ele>
        <time>2022-06-01T12:24:17.611Z</time>
      </trkpt>
      <trkpt lat="42.62516" lon="18.19743">
        <ele>68.008738</ele>
        <time>2022-06-01T12:24:19.580Z</time>
      </trkpt>
      <trkpt lat="42.62518" lon="18.1972">
        <ele>67.137</ele>
        <time>2022-06-01T12:24:21.590Z</time>
      </trkpt>
      <trkpt lat="42.62521" lon="18.19698">
        <ele>66.316546</ele>
        <time>2022-06-01T12:24:23.576Z</time>
      </trkpt>
      <trkpt lat="42.62523" lon="18.19675">
        <ele>65.515947</ele>
        <time>2022-06-01T12:24:25.574Z</time>
      </trkpt>
      <trkpt lat="42.62527" lon="18.19653">
        <ele>64.739506</ele>
        <time>2022-06-01T12:24:27.579Z</time>
      </trkpt>
      <trkpt lat="42.6253" lon="18.19631">
        <ele>63.981632</ele>
        <time>2022-06-01T12:24:29.621Z</time>
      </trkpt>
      <trkpt lat="42.62532" lon="18.19608">
        <ele>63.202793</ele>
        <time>2022-06-01T12:24:31.602Z</time>
      </trkpt>
      <trkpt lat="42.62536" lon="18.19585">
        <ele>62.384561</ele>
        <time>2022-06-01T12:24:33.671Z</time>
      </trkpt>
      <trkpt lat="42.62537" lon="18.19562">
        <ele>61.591879</ele>
        <time>2022-06-01T12:24:35.578Z</time>
      </trkpt>
      <trkpt lat="42.62539" lon="18.19538">
        <ele>60.794376</ele>
        <time>2022-06-01T12:24:37.573Z</time>
      </trkpt>
      <trkpt lat="42.62539" lon="18.19516">
        <ele>60.029042</ele>
        <time>2022-06-01T12:24:39.559Z</time>
      </trkpt>
      <trkpt lat="42.62539" lon="18.19495">
        <ele>59.294512</ele>
        <time>2022-06-01T12:24:41.613Z</time>
      </trkpt>
      <trkpt lat="42.62538" lon="18.19473">
        <ele>58.551697</ele>
        <time>2022-06-01T12:24:43.596Z</time>
      </trkpt>
      <trkpt lat="42.62537" lon="18.1945">
        <ele>57.304776</ele>
        <time>2022-06-01T12:24:45.575Z</time>
      </trkpt>
      <trkpt lat="42.62535" lon="18.19426">
        <ele>55.889155</ele>
        <time>2022-06-01T12:24:47.590Z</time>
      </trkpt>
      <trkpt lat="42.62533" lon="18.19402">
        <ele>54.446421</ele>
        <time>2022-06-01T12:24:49.581Z</time>
      </trkpt>
      <trkpt lat="42.62531" lon="18.19379">
        <ele>53.083959</ele>
        <time>2022-06-01T12:24:51.620Z</time>
      </trkpt>
      <trkpt lat="42.62528" lon="18.19358">
        <ele>51.77134</ele>
        <time>2022-06-01T12:24:53.583Z</time>
      </trkpt>
      <trkpt lat="42.62524" lon="18.19337">
        <ele>50.527161</ele>
        <time>2022-06-01T12:24:55.577Z</time>
      </trkpt>
      <trkpt lat="42.62521" lon="18.19318">
        <ele>49.335734</ele>
        <time>2022-06-01T12:24:57.587Z</time>
      </trkpt>
      <trkpt lat="42.62518" lon="18.19301">
        <ele>48.290656</ele>
        <time>2022-06-01T12:24:59.575Z</time>
      </trkpt>
      <trkpt lat="42.62514" lon="18.19283">
        <ele>47.231872</ele>
        <time>2022-06-01T12:25:01.621Z</time>
      </trkpt>
      <trkpt lat="42.62511" lon="18.19268">
        <ele>46.293097</ele>
        <time>2022-06-01T12:25:03.647Z</time>
      </trkpt>
      <trkpt lat="42.62507" lon="18.19254">
        <ele>45.377747</ele>
        <time>2022-06-01T12:25:05.618Z</time>
      </trkpt>
      <trkpt lat="42.62504" lon="18.19241">
        <ele>44.584787</ele>
        <time>2022-06-01T12:25:07.600Z</time>
      </trkpt>
      <trkpt lat="42.625" lon="18.19227">
        <ele>43.974291</ele>
        <time>2022-06-01T12:25:10.601Z</time>
      </trkpt>
      <trkpt lat="42.62496" lon="18.19213">
        <ele>44.578698</ele>
        <time>2022-06-01T12:25:13.562Z</time>
      </trkpt>
      <trkpt lat="42.62494" lon="18.19199">
        <ele>45.144294</ele>
        <time>2022-06-01T12:25:16.548Z</time>
      </trkpt>
      <trkpt lat="42.62485" lon="18.19211">
        <ele>45.794923</ele>
        <time>2022-06-01T12:25:55.626Z</time>
      </trkpt>
      <trkpt lat="42.62488" lon="18.19223">
        <ele>46.310545</ele>
        <time>2022-06-01T12:26:03.563Z</time>
      </trkpt>
      <trkpt lat="42.62491" lon="18.19235">
        <ele>46.821492</ele>
        <time>2022-06-01T12:26:12.555Z</time>
      </trkpt>
      <trkpt lat="42.625" lon="18.19238">
        <ele>47.338392</ele>
        <time>2022-06-01T12:26:26.548Z</time>
      </trkpt>
      <trkpt lat="42.62507" lon="18.19227">
        <ele>47.940234</ele>
        <time>2022-06-01T12:26:30.559Z</time>
      </trkpt>
      <trkpt lat="42.62516" lon="18.19217">
        <ele>48.600993</ele>
        <time>2022-06-01T12:26:33.549Z</time>
      </trkpt>
      <trkpt lat="42.62526" lon="18.19214">
        <ele>49.119858</ele>
        <time>2022-06-01T12:26:36.557Z</time>
      </trkpt>
      <trkpt lat="42.62531" lon="18.19226">
        <ele>49.661357</ele>
        <time>2022-06-01T12:26:39.582Z</time>
      </trkpt>
      <trkpt lat="42.62537" lon="18.19235">
        <ele>50.193727</ele>
        <time>2022-06-01T12:26:43.553Z</time>
      </trkpt>
      <trkpt lat="42.62545" lon="18.19243">
        <ele>50.696588</ele>
        <time>2022-06-01T12:26:48.555Z</time>
      </trkpt>
      <trkpt lat="42.62553" lon="18.19251">
        <ele>51.25873</ele>
        <time>2022-06-01T12:26:53.550Z</time>
      </trkpt>
      <trkpt lat="42.62561" lon="18.19258">
        <ele>51.779468</ele>
        <time>2022-06-01T12:26:58.547Z</time>
      </trkpt>
      <trkpt lat="42.6257" lon="18.19265">
        <ele>52.369767</ele>
        <time>2022-06-01T12:27:05.557Z</time>
      </trkpt>
      <trkpt lat="42.6258" lon="18.19267">
        <ele>52.937711</ele>
        <time>2022-06-01T12:27:09.554Z</time>
      </trkpt>
      <trkpt lat="42.62589" lon="18.19261">
        <ele>53.506154</ele>
        <time>2022-06-01T12:27:15.547Z</time>
      </trkpt>
      <trkpt lat="42.62596" lon="18.19252">
        <ele>53.943239</ele>
        <time>2022-06-01T12:27:21.591Z</time>
      </trkpt>
      <trkpt lat="42.62605" lon="18.19244">
        <ele>54.273819</ele>
        <time>2022-06-01T12:27:26.575Z</time>
      </trkpt>
      <trkpt lat="42.62613" lon="18.19238">
        <ele>54.600589</ele>
        <time>2022-06-01T12:27:31.580Z</time>
      </trkpt>
      <trkpt lat="42.62621" lon="18.19229">
        <ele>54.938608</ele>
        <time>2022-06-01T12:27:35.610Z</time>
      </trkpt>
      <trkpt lat="42.62628" lon="18.19221">
        <ele>55.257184</ele>
        <time>2022-06-01T12:27:39.604Z</time>
      </trkpt>
      <trkpt lat="42.62633" lon="18.19209">
        <ele>55.58625</ele>
        <time>2022-06-01T12:27:42.570Z</time>
      </trkpt>
      <trkpt lat="42.62639" lon="18.19197">
        <ele>55.947018</ele>
        <time>2022-06-01T12:27:45.575Z</time>
      </trkpt>
      <trkpt lat="42.62647" lon="18.19185">
        <ele>56.339876</ele>
        <time>2022-06-01T12:27:48.580Z</time>
      </trkpt>
      <trkpt lat="42.62655" lon="18.19172">
        <ele>56.764191</ele>
        <time>2022-06-01T12:27:51.606Z</time>
      </trkpt>
      <trkpt lat="42.62662" lon="18.19158">
        <ele>57.184241</ele>
        <time>2022-06-01T12:27:54.607Z</time>
      </trkpt>
      <trkpt lat="42.62669" lon="18.19145">
        <ele>57.568564</ele>
        <time>2022-06-01T12:27:57.578Z</time>
      </trkpt>
      <trkpt lat="42.62676" lon="18.19132">
        <ele>57.982586</ele>
        <time>2022-06-01T12:28:00.578Z</time>
      </trkpt>
      <trkpt lat="42.62683" lon="18.19118">
        <ele>58.390959</ele>
        <time>2022-06-01T12:28:03.625Z</time>
      </trkpt>
      <trkpt lat="42.6269" lon="18.19106">
        <ele>58.777175</ele>
        <time>2022-06-01T12:28:06.580Z</time>
      </trkpt>
      <trkpt lat="42.62696" lon="18.19092">
        <ele>59.17195</ele>
        <time>2022-06-01T12:28:09.588Z</time>
      </trkpt>
      <trkpt lat="42.62702" lon="18.19082">
        <ele>59.504349</ele>
        <time>2022-06-01T12:28:12.582Z</time>
      </trkpt>
      <trkpt lat="42.6271" lon="18.19069">
        <ele>59.713241</ele>
        <time>2022-06-01T12:28:15.584Z</time>
      </trkpt>
      <trkpt lat="42.62716" lon="18.19056">
        <ele>59.201685</ele>
        <time>2022-06-01T12:28:18.587Z</time>
      </trkpt>
      <trkpt lat="42.62724" lon="18.19044">
        <ele>58.682124</ele>
        <time>2022-06-01T12:28:21.566Z</time>
      </trkpt>
      <trkpt lat="42.62732" lon="18.1903">
        <ele>58.105416</ele>
        <time>2022-06-01T12:28:24.584Z</time>
      </trkpt>
      <trkpt lat="42.62739" lon="18.19017">
        <ele>57.587923</ele>
        <time>2022-06-01T12:28:27.576Z</time>
      </trkpt>
      <trkpt lat="42.62747" lon="18.19004">
        <ele>57.047136</ele>
        <time>2022-06-01T12:28:30.602Z</time>
      </trkpt>
      <trkpt lat="42.62755" lon="18.18991">
        <ele>56.506052</ele>
        <time>2022-06-01T12:28:33.578Z</time>
      </trkpt>
      <trkpt lat="42.62762" lon="18.18978">
        <ele>55.960658</ele>
        <time>2022-06-01T12:28:36.582Z</time>
      </trkpt>
      <trkpt lat="42.6277" lon="18.18965">
        <ele>55.429422</ele>
        <time>2022-06-01T12:28:39.579Z</time>
      </trkpt>
      <trkpt lat="42.62777" lon="18.18952">
        <ele>54.920428</ele>
        <time>2022-06-01T12:28:42.589Z</time>
      </trkpt>
      <trkpt lat="42.62784" lon="18.18938">
        <ele>54.36609</ele>
        <time>2022-06-01T12:28:45.570Z</time>
      </trkpt>
      <trkpt lat="42.62791" lon="18.18924">
        <ele>53.819545</ele>
        <time>2022-06-01T12:28:48.591Z</time>
      </trkpt>
      <trkpt lat="42.62796" lon="18.18913">
        <ele>53.401246</ele>
        <time>2022-06-01T12:28:51.555Z</time>
      </trkpt>
      <trkpt lat="42.628" lon="18.18898">
        <ele>52.87766</ele>
        <time>2022-06-01T12:28:55.569Z</time>
      </trkpt>
      <trkpt lat="42.62803" lon="18.18883">
        <ele>52.377669</ele>
        <time>2022-06-01T12:28:58.584Z</time>
      </trkpt>
      <trkpt lat="42.62806" lon="18.18867">
        <ele>51.862752</ele>
        <time>2022-06-01T12:29:01.587Z</time>
      </trkpt>
      <trkpt lat="42.62808" lon="18.18852">
        <ele>51.313879</ele>
        <time>2022-06-01T12:29:04.578Z</time>
      </trkpt>
      <trkpt lat="42.62811" lon="18.18835">
        <ele>50.731451</ele>
        <time>2022-06-01T12:29:07.580Z</time>
      </trkpt>
      <trkpt lat="42.62814" lon="18.18819">
        <ele>50.17126</ele>
        <time>2022-06-01T12:29:10.610Z</time>
      </trkpt>
      <trkpt lat="42.62817" lon="18.18804">
        <ele>49.645796</ele>
        <time>2022-06-01T12:29:13.619Z</time>
      </trkpt>
      <trkpt lat="42.6282" lon="18.18789">
        <ele>49.091724</ele>
        <time>2022-06-01T12:29:16.578Z</time>
      </trkpt>
      <trkpt lat="42.62823" lon="18.18773">
        <ele>48.528782</ele>
        <time>2022-06-01T12:29:19.579Z</time>
      </trkpt>
      <trkpt lat="42.62824" lon="18.18757">
        <ele>47.981519</ele>
        <time>2022-06-01T12:29:22.580Z</time>
      </trkpt>
      <trkpt lat="42.62828" lon="18.18742">
        <ele>47.435777</ele>
        <time>2022-06-01T12:29:25.571Z</time>
      </trkpt>
      <trkpt lat="42.62831" lon="18.18726">
        <ele>46.882151</ele>
        <time>2022-06-01T12:29:28.581Z</time>
      </trkpt>
      <trkpt lat="42.62834" lon="18.1871">
        <ele>46.321218</ele>
        <time>2022-06-01T12:29:31.606Z</time>
      </trkpt>
      <trkpt lat="42.62838" lon="18.18695">
        <ele>45.75224</ele>
        <time>2022-06-01T12:29:34.576Z</time>
      </trkpt>
      <trkpt lat="42.62841" lon="18.18679">
        <ele>45.19039</ele>
        <time>2022-06-01T12:29:37.551Z</time>
      </trkpt>
      <trkpt lat="42.62844" lon="18.18663">
        <ele>44.64059</ele>
        <time>2022-06-01T12:29:40.547Z</time>
      </trkpt>
      <trkpt lat="42.62846" lon="18.18647">
        <ele>44.084282</ele>
        <time>2022-06-01T12:29:43.549Z</time>
      </trkpt>
      <trkpt lat="42.6285" lon="18.18631">
        <ele>43.602902</ele>
        <time>2022-06-01T12:29:46.553Z</time>
      </trkpt>
      <trkpt lat="42.62853" lon="18.18615">
        <ele>43.991298</ele>
        <time>2022-06-01T12:29:49.551Z</time>
      </trkpt>
      <trkpt lat="42.62857" lon="18.18599">
        <ele>44.362581</ele>
        <time>2022-06-01T12:29:52.551Z</time>
      </trkpt>
      <trkpt lat="42.62861" lon="18.18583">
        <ele>44.737171</ele>
        <time>2022-06-01T12:29:55.563Z</time>
      </trkpt>
      <trkpt lat="42.62865" lon="18.18568">
        <ele>45.105341</ele>
        <time>2022-06-01T12:29:58.551Z</time>
      </trkpt>
      <trkpt lat="42.62868" lon="18.18553">
        <ele>45.46335</ele>
        <time>2022-06-01T12:30:01.574Z</time>
      </trkpt>
      <trkpt lat="42.62871" lon="18.18537">
        <ele>45.828197</ele>
        <time>2022-06-01T12:30:04.559Z</time>
      </trkpt>
      <trkpt lat="42.62873" lon="18.18522">
        <ele>46.159011</ele>
        <time>2022-06-01T12:30:07.548Z</time>
      </trkpt>
      <trkpt lat="42.62876" lon="18.18509">
        <ele>46.48026</ele>
        <time>2022-06-01T12:30:11.547Z</time>
      </trkpt>
      <trkpt lat="42.6288" lon="18.18494">
        <ele>46.832418</ele>
        <time>2022-06-01T12:30:15.542Z</time>
      </trkpt>
      <trkpt lat="42.62884" lon="18.18481">
        <ele>47.142537</ele>
        <time>2022-06-01T12:30:18.558Z</time>
      </trkpt>
      <trkpt lat="42.62887" lon="18.18468">
        <ele>47.460843</ele>
        <time>2022-06-01T12:30:21.544Z</time>
      </trkpt>
      <trkpt lat="42.62892" lon="18.18454">
        <ele>47.799462</ele>
        <time>2022-06-01T12:30:24.557Z</time>
      </trkpt>
      <trkpt lat="42.62897" lon="18.18441">
        <ele>48.141779</ele>
        <time>2022-06-01T12:30:27.569Z</time>
      </trkpt>
      <trkpt lat="42.62907" lon="18.18439">
        <ele>48.451694</ele>
        <time>2022-06-01T12:30:30.626Z</time>
      </trkpt>
      <trkpt lat="42.62917" lon="18.18444">
        <ele>48.775961</ele>
        <time>2022-06-01T12:30:33.597Z</time>
      </trkpt>
      <trkpt lat="42.62929" lon="18.18448">
        <ele>49.161236</ele>
        <time>2022-06-01T12:30:37.586Z</time>
      </trkpt>
      <trkpt lat="42.62937" lon="18.18452">
        <ele>49.505254</ele>
        <time>2022-06-01T12:30:40.569Z</time>
      </trkpt>
      <trkpt lat="42.62948" lon="18.18459">
        <ele>49.931759</ele>
        <time>2022-06-01T12:30:44.579Z</time>
      </trkpt>
      <trkpt lat="42.62956" lon="18.18469">
        <ele>50.347316</ele>
        <time>2022-06-01T12:30:49.599Z</time>
      </trkpt>
      <trkpt lat="42.62961" lon="18.18481">
        <ele>50.749416</ele>
        <time>2022-06-01T12:30:54.592Z</time>
      </trkpt>
      <trkpt lat="42.62968" lon="18.18492">
        <ele>51.129212</ele>
        <time>2022-06-01T12:30:58.610Z</time>
      </trkpt>
      <trkpt lat="42.62972" lon="18.18503">
        <ele>51.480354</ele>
        <time>2022-06-01T12:31:02.574Z</time>
      </trkpt>
      <trkpt lat="42.62978" lon="18.18514">
        <ele>51.850846</ele>
        <time>2022-06-01T12:31:06.579Z</time>
      </trkpt>
      <trkpt lat="42.62985" lon="18.18525">
        <ele>52.237576</ele>
        <time>2022-06-01T12:31:10.601Z</time>
      </trkpt>
      <trkpt lat="42.62993" lon="18.18531">
        <ele>52.579616</ele>
        <time>2022-06-01T12:31:13.589Z</time>
      </trkpt>
      <trkpt lat="42.63002" lon="18.18535">
        <ele>52.927108</ele>
        <time>2022-06-01T12:31:16.587Z</time>
      </trkpt>
      <trkpt lat="42.63012" lon="18.18535">
        <ele>53.297705</ele>
        <time>2022-06-01T12:31:19.575Z</time>
      </trkpt>
      <trkpt lat="42.63023" lon="18.18532">
        <ele>53.716638</ele>
        <time>2022-06-01T12:31:23.580Z</time>
      </trkpt>
      <trkpt lat="42.63033" lon="18.18529">
        <ele>54.12195</ele>
        <time>2022-06-01T12:31:27.570Z</time>
      </trkpt>
      <trkpt lat="42.63044" lon="18.1853">
        <ele>54.545098</ele>
        <time>2022-06-01T12:31:31.579Z</time>
      </trkpt>
      <trkpt lat="42.63056" lon="18.18532">
        <ele>54.96584</ele>
        <time>2022-06-01T12:31:35.598Z</time>
      </trkpt>
      <trkpt lat="42.63064" lon="18.18537">
        <ele>55.328418</ele>
        <time>2022-06-01T12:31:39.575Z</time>
      </trkpt>
      <trkpt lat="42.63073" lon="18.18546">
        <ele>55.741842</ele>
        <time>2022-06-01T12:31:44.615Z</time>
      </trkpt>
      <trkpt lat="42.63081" lon="18.18554">
        <ele>55.856585</ele>
        <time>2022-06-01T12:31:48.570Z</time>
      </trkpt>
      <trkpt lat="42.6309" lon="18.18561">
        <ele>55.915157</ele>
        <time>2022-06-01T12:31:52.569Z</time>
      </trkpt>
      <trkpt lat="42.63101" lon="18.18564">
        <ele>55.979596</ele>
        <time>2022-06-01T12:31:56.577Z</time>
      </trkpt>
      <trkpt lat="42.63112" lon="18.18558">
        <ele>56.044449</ele>
        <time>2022-06-01T12:32:00.591Z</time>
      </trkpt>
      <trkpt lat="42.63116" lon="18.18545">
        <ele>56.101775</ele>
        <time>2022-06-01T12:32:04.585Z</time>
      </trkpt>
      <trkpt lat="42.6312" lon="18.18531">
        <ele>56.163074</ele>
        <time>2022-06-01T12:32:08.584Z</time>
      </trkpt>
      <trkpt lat="42.63124" lon="18.18516">
        <ele>56.23107</ele>
        <time>2022-06-01T12:32:12.613Z</time>
      </trkpt>
      <trkpt lat="42.63128" lon="18.18504">
        <ele>56.287161</ele>
        <time>2022-06-01T12:32:15.577Z</time>
      </trkpt>
      <trkpt lat="42.63131" lon="18.18491">
        <ele>56.345309</ele>
        <time>2022-06-01T12:32:18.577Z</time>
      </trkpt>
      <trkpt lat="42.63135" lon="18.18477">
        <ele>56.410142</ele>
        <time>2022-06-01T12:32:21.587Z</time>
      </trkpt>
      <trkpt lat="42.6314" lon="18.18461">
        <ele>56.482064</ele>
        <time>2022-06-01T12:32:24.579Z</time>
      </trkpt>
      <trkpt lat="42.63145" lon="18.1845">
        <ele>56.534333</ele>
        <time>2022-06-01T12:32:26.582Z</time>
      </trkpt>
      <trkpt lat="42.63152" lon="18.18441">
        <ele>56.589045</ele>
        <time>2022-06-01T12:32:28.579Z</time>
      </trkpt>
      <trkpt lat="42.6316" lon="18.18434">
        <ele>56.64263</ele>
        <time>2022-06-01T12:32:30.582Z</time>
      </trkpt>
      <trkpt lat="42.63171" lon="18.18426">
        <ele>56.716178</ele>
        <time>2022-06-01T12:32:33.596Z</time>
      </trkpt>
      <trkpt lat="42.63183" lon="18.18422">
        <ele>56.78515</ele>
        <time>2022-06-01T12:32:36.595Z</time>
      </trkpt>
      <trkpt lat="42.63193" lon="18.18419">
        <ele>56.839488</ele>
        <time>2022-06-01T12:32:39.592Z</time>
      </trkpt>
      <trkpt lat="42.63203" lon="18.18419">
        <ele>56.859299</ele>
        <time>2022-06-01T12:32:42.590Z</time>
      </trkpt>
      <trkpt lat="42.63213" lon="18.18414">
        <ele>56.878957</ele>
        <time>2022-06-01T12:32:45.596Z</time>
      </trkpt>
      <trkpt lat="42.63222" lon="18.18408">
        <ele>56.897967</ele>
        <time>2022-06-01T12:32:48.577Z</time>
      </trkpt>
      <trkpt lat="42.63231" lon="18.18401">
        <ele>56.916944</ele>
        <time>2022-06-01T12:32:51.597Z</time>
      </trkpt>
      <trkpt lat="42.63241" lon="18.18392">
        <ele>56.939711</ele>
        <time>2022-06-01T12:32:55.587Z</time>
      </trkpt>
      <trkpt lat="42.63249" lon="18.18384">
        <ele>56.960062</ele>
        <time>2022-06-01T12:32:58.590Z</time>
      </trkpt>
      <trkpt lat="42.63259" lon="18.18377">
        <ele>56.980045</ele>
        <time>2022-06-01T12:33:01.620Z</time>
      </trkpt>
      <trkpt lat="42.63268" lon="18.18372">
        <ele>56.999658</ele>
        <time>2022-06-01T12:33:04.628Z</time>
      </trkpt>
      <trkpt lat="42.63278" lon="18.18367">
        <ele>57.01891</ele>
        <time>2022-06-01T12:33:07.579Z</time>
      </trkpt>
      <trkpt lat="42.63288" lon="18.18365">
        <ele>57.038748</ele>
        <time>2022-06-01T12:33:10.562Z</time>
      </trkpt>
      <trkpt lat="42.63298" lon="18.1836">
        <ele>57.059533</ele>
        <time>2022-06-01T12:33:13.586Z</time>
      </trkpt>
      <trkpt lat="42.63308" lon="18.18353">
        <ele>57.081154</ele>
        <time>2022-06-01T12:33:16.570Z</time>
      </trkpt>
      <trkpt lat="42.63317" lon="18.18345">
        <ele>57.101956</ele>
        <time>2022-06-01T12:33:19.579Z</time>
      </trkpt>
      <trkpt lat="42.63324" lon="18.18335">
        <ele>57.1214</ele>
        <time>2022-06-01T12:33:22.588Z</time>
      </trkpt>
      <trkpt lat="42.63331" lon="18.18325">
        <ele>57.139512</ele>
        <time>2022-06-01T12:33:25.576Z</time>
      </trkpt>
      <trkpt lat="42.63336" lon="18.18314">
        <ele>57.15799</ele>
        <time>2022-06-01T12:33:28.559Z</time>
      </trkpt>
      <trkpt lat="42.6334" lon="18.18302">
        <ele>57.176578</ele>
        <time>2022-06-01T12:33:31.658Z</time>
      </trkpt>
      <trkpt lat="42.63344" lon="18.18288">
        <ele>56.77318</ele>
        <time>2022-06-01T12:33:34.611Z</time>
      </trkpt>
      <trkpt lat="42.63347" lon="18.18275">
        <ele>56.30603</ele>
        <time>2022-06-01T12:33:37.590Z</time>
      </trkpt>
      <trkpt lat="42.63349" lon="18.18261">
        <ele>55.828491</ele>
        <time>2022-06-01T12:33:40.570Z</time>
      </trkpt>
      <trkpt lat="42.63351" lon="18.18246">
        <ele>55.315791</ele>
        <time>2022-06-01T12:33:43.598Z</time>
      </trkpt>
      <trkpt lat="42.63355" lon="18.18232">
        <ele>54.817848</ele>
        <time>2022-06-01T12:33:46.579Z</time>
      </trkpt>
      <trkpt lat="42.63361" lon="18.18221">
        <ele>54.343137</ele>
        <time>2022-06-01T12:33:49.576Z</time>
      </trkpt>
      <trkpt lat="42.63367" lon="18.18211">
        <ele>53.896286</ele>
        <time>2022-06-01T12:33:52.563Z</time>
      </trkpt>
      <trkpt lat="42.63376" lon="18.18202">
        <ele>53.398921</ele>
        <time>2022-06-01T12:33:56.589Z</time>
      </trkpt>
      <trkpt lat="42.63383" lon="18.18194">
        <ele>52.966119</ele>
        <time>2022-06-01T12:34:00.589Z</time>
      </trkpt>
      <trkpt lat="42.63393" lon="18.18188">
        <ele>52.487859</ele>
        <time>2022-06-01T12:34:06.568Z</time>
      </trkpt>
      <trkpt lat="42.63399" lon="18.18177">
        <ele>52.017962</ele>
        <time>2022-06-01T12:34:11.587Z</time>
      </trkpt>
      <trkpt lat="42.63392" lon="18.18162">
        <ele>51.42791</ele>
        <time>2022-06-01T12:34:14.572Z</time>
      </trkpt>
      <trkpt lat="42.63384" lon="18.1815">
        <ele>50.876993</ele>
        <time>2022-06-01T12:34:16.571Z</time>
      </trkpt>
      <trkpt lat="42.63377" lon="18.18135">
        <ele>50.278381</ele>
        <time>2022-06-01T12:34:18.578Z</time>
      </trkpt>
      <trkpt lat="42.63371" lon="18.18119">
        <ele>49.651049</ele>
        <time>2022-06-01T12:34:20.571Z</time>
      </trkpt>
      <trkpt lat="42.63364" lon="18.18103">
        <ele>49.056069</ele>
        <time>2022-06-01T12:34:22.572Z</time>
      </trkpt>
      <trkpt lat="42.63359" lon="18.18088">
        <ele>48.921572</ele>
        <time>2022-06-01T12:34:24.580Z</time>
      </trkpt>
      <trkpt lat="42.63356" lon="18.18072">
        <ele>48.890599</ele>
        <time>2022-06-01T12:34:26.566Z</time>
      </trkpt>
      <trkpt lat="42.63358" lon="18.18057">
        <ele>48.862018</ele>
        <time>2022-06-01T12:34:28.574Z</time>
      </trkpt>
      <trkpt lat="42.63361" lon="18.18041">
        <ele>48.830194</ele>
        <time>2022-06-01T12:34:31.576Z</time>
      </trkpt>
      <trkpt lat="42.63364" lon="18.18028">
        <ele>48.803483</ele>
        <time>2022-06-01T12:34:34.572Z</time>
      </trkpt>
      <trkpt lat="42.6337" lon="18.18011">
        <ele>48.769145</ele>
        <time>2022-06-01T12:34:37.566Z</time>
      </trkpt>
      <trkpt lat="42.63375" lon="18.17999">
        <ele>48.743037</ele>
        <time>2022-06-01T12:34:39.563Z</time>
      </trkpt>
      <trkpt lat="42.6338" lon="18.17987">
        <ele>48.717133</ele>
        <time>2022-06-01T12:34:41.602Z</time>
      </trkpt>
      <trkpt lat="42.63385" lon="18.17975">
        <ele>48.69097</ele>
        <time>2022-06-01T12:34:43.575Z</time>
      </trkpt>
      <trkpt lat="42.63391" lon="18.17965">
        <ele>48.666287</ele>
        <time>2022-06-01T12:34:45.579Z</time>
      </trkpt>
      <trkpt lat="42.63398" lon="18.17951">
        <ele>48.634464</ele>
        <time>2022-06-01T12:34:48.587Z</time>
      </trkpt>
      <trkpt lat="42.63404" lon="18.17937">
        <ele>48.604422</ele>
        <time>2022-06-01T12:34:51.642Z</time>
      </trkpt>
      <trkpt lat="42.63408" lon="18.17922">
        <ele>48.572844</ele>
        <time>2022-06-01T12:34:54.580Z</time>
      </trkpt>
      <trkpt lat="42.63412" lon="18.17906">
        <ele>48.541969</ele>
        <time>2022-06-01T12:34:57.588Z</time>
      </trkpt>
      <trkpt lat="42.63417" lon="18.17891">
        <ele>48.509283</ele>
        <time>2022-06-01T12:35:00.577Z</time>
      </trkpt>
      <trkpt lat="42.63423" lon="18.17875">
        <ele>48.568006</ele>
        <time>2022-06-01T12:35:03.608Z</time>
      </trkpt>
      <trkpt lat="42.6343" lon="18.1786">
        <ele>48.900474</ele>
        <time>2022-06-01T12:35:06.583Z</time>
      </trkpt>
      <trkpt lat="42.63436" lon="18.17847">
        <ele>49.197036</ele>
        <time>2022-06-01T12:35:09.574Z</time>
      </trkpt>
      <trkpt lat="42.63441" lon="18.17836">
        <ele>49.450861</ele>
        <time>2022-06-01T12:35:12.587Z</time>
      </trkpt>
      <trkpt lat="42.63447" lon="18.17826">
        <ele>49.701886</ele>
        <time>2022-06-01T12:35:16.585Z</time>
      </trkpt>
      <trkpt lat="42.63452" lon="18.17815">
        <ele>49.955632</ele>
        <time>2022-06-01T12:35:21.620Z</time>
      </trkpt>
      <trkpt lat="42.63456" lon="18.17802">
        <ele>50.225651</ele>
        <time>2022-06-01T12:35:28.572Z</time>
      </trkpt>
      <trkpt lat="42.63461" lon="18.1779">
        <ele>50.483655</ele>
        <time>2022-06-01T12:35:33.562Z</time>
      </trkpt>
      <trkpt lat="42.6347" lon="18.17776">
        <ele>50.841111</ele>
        <time>2022-06-01T12:35:36.585Z</time>
      </trkpt>
      <trkpt lat="42.63478" lon="18.17763">
        <ele>51.168017</ele>
        <time>2022-06-01T12:35:38.606Z</time>
      </trkpt>
      <trkpt lat="42.63484" lon="18.1775">
        <ele>51.468279</ele>
        <time>2022-06-01T12:35:40.556Z</time>
      </trkpt>
      <trkpt lat="42.63489" lon="18.17737">
        <ele>51.749402</ele>
        <time>2022-06-01T12:35:42.550Z</time>
      </trkpt>
      <trkpt lat="42.63493" lon="18.17725">
        <ele>52.001393</ele>
        <time>2022-06-01T12:35:44.553Z</time>
      </trkpt>
      <trkpt lat="42.63497" lon="18.17713">
        <ele>52.257261</ele>
        <time>2022-06-01T12:35:46.585Z</time>
      </trkpt>
      <trkpt lat="42.635" lon="18.17701">
        <ele>52.508227</ele>
        <time>2022-06-01T12:35:48.557Z</time>
      </trkpt>
      <trkpt lat="42.63506" lon="18.17686">
        <ele>52.845145</ele>
        <time>2022-06-01T12:35:51.574Z</time>
      </trkpt>
      <trkpt lat="42.63511" lon="18.17671">
        <ele>53.162781</ele>
        <time>2022-06-01T12:35:54.633Z</time>
      </trkpt>
      <trkpt lat="42.63516" lon="18.17657">
        <ele>53.947691</ele>
        <time>2022-06-01T12:35:57.586Z</time>
      </trkpt>
      <trkpt lat="42.6352" lon="18.17643">
        <ele>54.830094</ele>
        <time>2022-06-01T12:36:00.570Z</time>
      </trkpt>
      <trkpt lat="42.63524" lon="18.17629">
        <ele>55.659544</ele>
        <time>2022-06-01T12:36:03.625Z</time>
      </trkpt>
      <trkpt lat="42.63528" lon="18.17616">
        <ele>56.496536</ele>
        <time>2022-06-01T12:36:06.579Z</time>
      </trkpt>
      <trkpt lat="42.63532" lon="18.17604">
        <ele>57.235905</ele>
        <time>2022-06-01T12:36:09.563Z</time>
      </trkpt>
      <trkpt lat="42.63536" lon="18.17592">
        <ele>57.976277</ele>
        <time>2022-06-01T12:36:13.550Z</time>
      </trkpt>
      <trkpt lat="42.63541" lon="18.17579">
        <ele>58.811877</ele>
        <time>2022-06-01T12:36:18.587Z</time>
      </trkpt>
      <trkpt lat="42.63545" lon="18.17567">
        <ele>59.592277</ele>
        <time>2022-06-01T12:36:24.585Z</time>
      </trkpt>
      <trkpt lat="42.63546" lon="18.17553">
        <ele>60.40977</ele>
        <time>2022-06-01T12:36:30.580Z</time>
      </trkpt>
      <trkpt lat="42.63547" lon="18.17539">
        <ele>61.189054</ele>
        <time>2022-06-01T12:36:36.574Z</time>
      </trkpt>
      <trkpt lat="42.63549" lon="18.17527">
        <ele>61.906273</ele>
        <time>2022-06-01T12:36:41.578Z</time>
      </trkpt>
      <trkpt lat="42.63549" lon="18.17514">
        <ele>62.629403</ele>
        <time>2022-06-01T12:36:46.643Z</time>
      </trkpt>
      <trkpt lat="42.6355" lon="18.17501">
        <ele>63.40127</ele>
        <time>2022-06-01T12:36:52.586Z</time>
      </trkpt>
      <trkpt lat="42.63551" lon="18.17487">
        <ele>64.18828</ele>
        <time>2022-06-01T12:36:57.621Z</time>
      </trkpt>
      <trkpt lat="42.63553" lon="18.17475">
        <ele>64.923847</ele>
        <time>2022-06-01T12:37:03.616Z</time>
      </trkpt>
      <trkpt lat="42.63554" lon="18.17462">
        <ele>65.635971</ele>
        <time>2022-06-01T12:37:11.582Z</time>
      </trkpt>
      <trkpt lat="42.63553" lon="18.17449">
        <ele>66.419242</ele>
        <time>2022-06-01T12:37:17.580Z</time>
      </trkpt>
      <trkpt lat="42.63556" lon="18.17435">
        <ele>67.197261</ele>
        <time>2022-06-01T12:37:24.591Z</time>
      </trkpt>
      <trkpt lat="42.63556" lon="18.1742">
        <ele>66.741997</ele>
        <time>2022-06-01T12:37:30.578Z</time>
      </trkpt>
      <trkpt lat="42.63555" lon="18.17407">
        <ele>66.343306</ele>
        <time>2022-06-01T12:37:34.583Z</time>
      </trkpt>
      <trkpt lat="42.63556" lon="18.17393">
        <ele>65.906098</ele>
        <time>2022-06-01T12:37:37.573Z</time>
      </trkpt>
      <trkpt lat="42.63559" lon="18.17377">
        <ele>65.381267</ele>
        <time>2022-06-01T12:37:40.581Z</time>
      </trkpt>
      <trkpt lat="42.63561" lon="18.17364">
        <ele>64.989412</ele>
        <time>2022-06-01T12:37:42.588Z</time>
      </trkpt>
      <trkpt lat="42.63563" lon="18.17348">
        <ele>64.473675</ele>
        <time>2022-06-01T12:37:45.581Z</time>
      </trkpt>
      <trkpt lat="42.63566" lon="18.17335">
        <ele>64.06228</ele>
        <time>2022-06-01T12:37:47.583Z</time>
      </trkpt>
      <trkpt lat="42.63569" lon="18.17321">
        <ele>63.599264</ele>
        <time>2022-06-01T12:37:51.603Z</time>
      </trkpt>
      <trkpt lat="42.6357" lon="18.17308">
        <ele>63.207622</ele>
        <time>2022-06-01T12:37:54.602Z</time>
      </trkpt>
      <trkpt lat="42.63568" lon="18.17293">
        <ele>62.725447</ele>
        <time>2022-06-01T12:37:57.589Z</time>
      </trkpt>
      <trkpt lat="42.63568" lon="18.17277">
        <ele>62.251808</ele>
        <time>2022-06-01T12:38:00.613Z</time>
      </trkpt>
      <trkpt lat="42.63568" lon="18.17265">
        <ele>61.868186</ele>
        <time>2022-06-01T12:38:03.586Z</time>
      </trkpt>
      <trkpt lat="42.63567" lon="18.17249">
        <ele>61.383736</ele>
        <time>2022-06-01T12:38:07.594Z</time>
      </trkpt>
      <trkpt lat="42.63566" lon="18.17234">
        <ele>60.901982</ele>
        <time>2022-06-01T12:38:11.620Z</time>
      </trkpt>
      <trkpt lat="42.63563" lon="18.1722">
        <ele>60.441943</ele>
        <time>2022-06-01T12:38:14.579Z</time>
      </trkpt>
      <trkpt lat="42.63561" lon="18.17203">
        <ele>59.924524</ele>
        <time>2022-06-01T12:38:17.587Z</time>
      </trkpt>
      <trkpt lat="42.6356" lon="18.17186">
        <ele>59.621191</ele>
        <time>2022-06-01T12:38:20.583Z</time>
      </trkpt>
      <trkpt lat="42.63558" lon="18.1717">
        <ele>59.569274</ele>
        <time>2022-06-01T12:38:23.607Z</time>
      </trkpt>
      <trkpt lat="42.63556" lon="18.17154">
        <ele>59.519382</ele>
        <time>2022-06-01T12:38:26.567Z</time>
      </trkpt>
      <trkpt lat="42.63554" lon="18.17139">
        <ele>59.469816</ele>
        <time>2022-06-01T12:38:29.585Z</time>
      </trkpt>
      <trkpt lat="42.63553" lon="18.17125">
        <ele>59.424763</ele>
        <time>2022-06-01T12:38:32.570Z</time>
      </trkpt>
      <trkpt lat="42.6355" lon="18.1711">
        <ele>59.376642</ele>
        <time>2022-06-01T12:38:35.596Z</time>
      </trkpt>
      <trkpt lat="42.63547" lon="18.17096">
        <ele>59.331562</ele>
        <time>2022-06-01T12:38:38.578Z</time>
      </trkpt>
      <trkpt lat="42.63545" lon="18.17082">
        <ele>59.284242</ele>
        <time>2022-06-01T12:38:41.571Z</time>
      </trkpt>
      <trkpt lat="42.63544" lon="18.17068">
        <ele>59.241224</ele>
        <time>2022-06-01T12:38:44.577Z</time>
      </trkpt>
      <trkpt lat="42.63542" lon="18.17055">
        <ele>59.196473</ele>
        <time>2022-06-01T12:38:48.591Z</time>
      </trkpt>
      <trkpt lat="42.63542" lon="18.17041">
        <ele>59.152086</ele>
        <time>2022-06-01T12:38:52.583Z</time>
      </trkpt>
      <trkpt lat="42.63542" lon="18.17027">
        <ele>59.108325</ele>
        <time>2022-06-01T12:38:55.574Z</time>
      </trkpt>
      <trkpt lat="42.63542" lon="18.17012">
        <ele>59.061688</ele>
        <time>2022-06-01T12:38:59.564Z</time>
      </trkpt>
      <trkpt lat="42.63543" lon="18.16999">
        <ele>59.021682</ele>
        <time>2022-06-01T12:39:03.582Z</time>
      </trkpt>
      <trkpt lat="42.63545" lon="18.16986">
        <ele>58.978244</ele>
        <time>2022-06-01T12:39:08.592Z</time>
      </trkpt>
      <trkpt lat="42.63547" lon="18.16972">
        <ele>58.933703</ele>
        <time>2022-06-01T12:39:12.572Z</time>
      </trkpt>
      <trkpt lat="42.63551" lon="18.16959">
        <ele>58.888028</ele>
        <time>2022-06-01T12:39:17.587Z</time>
      </trkpt>
      <trkpt lat="42.63553" lon="18.16946">
        <ele>59.633745</ele>
        <time>2022-06-01T12:39:23.580Z</time>
      </trkpt>
      <trkpt lat="42.63555" lon="18.16934">
        <ele>60.794182</ele>
        <time>2022-06-01T12:39:31.588Z</time>
      </trkpt>
      <trkpt lat="42.63559" lon="18.16921">
        <ele>62.077064</ele>
        <time>2022-06-01T12:39:39.578Z</time>
      </trkpt>
      <trkpt lat="42.63563" lon="18.1691">
        <ele>63.229303</ele>
        <time>2022-06-01T12:39:47.601Z</time>
      </trkpt>
      <trkpt lat="42.63561" lon="18.16898">
        <ele>64.379412</ele>
        <time>2022-06-01T12:39:53.585Z</time>
      </trkpt>
      <trkpt lat="42.63561" lon="18.16885">
        <ele>65.634876</ele>
        <time>2022-06-01T12:40:00.578Z</time>
      </trkpt>
      <trkpt lat="42.63556" lon="18.16874">
        <ele>66.798371</ele>
        <time>2022-06-01T12:40:10.570Z</time>
      </trkpt>
      <trkpt lat="42.6355" lon="18.16864">
        <ele>68.000732</ele>
        <time>2022-06-01T12:40:19.587Z</time>
      </trkpt>
      <trkpt lat="42.63543" lon="18.16856">
        <ele>69.193399</ele>
        <time>2022-06-01T12:40:26.620Z</time>
      </trkpt>
      <trkpt lat="42.63533" lon="18.1685">
        <ele>70.483922</ele>
        <time>2022-06-01T12:40:32.602Z</time>
      </trkpt>
      <trkpt lat="42.63525" lon="18.16846">
        <ele>71.685299</ele>
        <time>2022-06-01T12:40:36.569Z</time>
      </trkpt>
      <trkpt lat="42.63515" lon="18.16844">
        <ele>72.964355</ele>
        <time>2022-06-01T12:40:40.575Z</time>
      </trkpt>
      <trkpt lat="42.63504" lon="18.16842">
        <ele>74.293608</ele>
        <time>2022-06-01T12:40:45.590Z</time>
      </trkpt>
      <trkpt lat="42.63495" lon="18.16844">
        <ele>75.519329</ele>
        <time>2022-06-01T12:40:50.590Z</time>
      </trkpt>
      <trkpt lat="42.63485" lon="18.1685">
        <ele>76.801957</ele>
        <time>2022-06-01T12:40:57.593Z</time>
      </trkpt>
      <trkpt lat="42.63478" lon="18.16859">
        <ele>78.062578</ele>
        <time>2022-06-01T12:41:06.585Z</time>
      </trkpt>
      <trkpt lat="42.63471" lon="18.16868">
        <ele>79.325549</ele>
        <time>2022-06-01T12:41:13.595Z</time>
      </trkpt>
      <trkpt lat="42.63463" lon="18.16877">
        <ele>80.6366</ele>
        <time>2022-06-01T12:41:20.583Z</time>
      </trkpt>
      <trkpt lat="42.63453" lon="18.16883">
        <ele>81.915704</ele>
        <time>2022-06-01T12:41:27.569Z</time>
      </trkpt>
      <trkpt lat="42.63446" lon="18.16892">
        <ele>82.725749</ele>
        <time>2022-06-01T12:41:35.580Z</time>
      </trkpt>
      <trkpt lat="42.63437" lon="18.16898">
        <ele>83.538138</ele>
        <time>2022-06-01T12:41:42.602Z</time>
      </trkpt>
      <trkpt lat="42.63429" lon="18.16905">
        <ele>84.326126</ele>
        <time>2022-06-01T12:41:50.598Z</time>
      </trkpt>
      <trkpt lat="42.63421" lon="18.16914">
        <ele>85.156467</ele>
        <time>2022-06-01T12:41:58.578Z</time>
      </trkpt>
      <trkpt lat="42.63413" lon="18.16921">
        <ele>85.90386</ele>
        <time>2022-06-01T12:42:09.612Z</time>
      </trkpt>
      <trkpt lat="42.63404" lon="18.16925">
        <ele>86.709327</ele>
        <time>2022-06-01T12:42:15.567Z</time>
      </trkpt>
      <trkpt lat="42.63395" lon="18.1693">
        <ele>87.52939</ele>
        <time>2022-06-01T12:42:22.602Z</time>
      </trkpt>
      <trkpt lat="42.63386" lon="18.16934">
        <ele>88.274837</ele>
        <time>2022-06-01T12:42:29.580Z</time>
      </trkpt>
      <trkpt lat="42.63377" lon="18.16935">
        <ele>89.031861</ele>
        <time>2022-06-01T12:42:36.569Z</time>
      </trkpt>
      <trkpt lat="42.63368" lon="18.1694">
        <ele>89.802855</ele>
        <time>2022-06-01T12:42:43.606Z</time>
      </trkpt>
      <trkpt lat="42.63359" lon="18.16942">
        <ele>90.541531</ele>
        <time>2022-06-01T12:42:51.567Z</time>
      </trkpt>
      <trkpt lat="42.63349" lon="18.16942">
        <ele>91.318411</ele>
        <time>2022-06-01T12:43:01.589Z</time>
      </trkpt>
      <trkpt lat="42.6334" lon="18.16943">
        <ele>92.124214</ele>
        <time>2022-06-01T12:43:10.581Z</time>
      </trkpt>
      <trkpt lat="42.6333" lon="18.16943">
        <ele>92.893481</ele>
        <time>2022-06-01T12:43:19.561Z</time>
      </trkpt>
      <trkpt lat="42.63321" lon="18.1694">
        <ele>93.642346</ele>
        <time>2022-06-01T12:43:27.588Z</time>
      </trkpt>
      <trkpt lat="42.63311" lon="18.16937">
        <ele>94.469428</ele>
        <time>2022-06-01T12:43:36.599Z</time>
      </trkpt>
      <trkpt lat="42.63302" lon="18.16934">
        <ele>95.274942</ele>
        <time>2022-06-01T12:43:44.570Z</time>
      </trkpt>
      <trkpt lat="42.63294" lon="18.16925">
        <ele>96.129301</ele>
        <time>2022-06-01T12:43:52.586Z</time>
      </trkpt>
      <trkpt lat="42.63284" lon="18.16922">
        <ele>96.727592</ele>
        <time>2022-06-01T12:43:59.579Z</time>
      </trkpt>
      <trkpt lat="42.63275" lon="18.16918">
        <ele>97.167901</ele>
        <time>2022-06-01T12:44:08.570Z</time>
      </trkpt>
      <trkpt lat="42.63266" lon="18.1692">
        <ele>97.609913</ele>
        <time>2022-06-01T12:44:15.584Z</time>
      </trkpt>
      <trkpt lat="42.63257" lon="18.16924">
        <ele>98.038231</ele>
        <time>2022-06-01T12:44:22.596Z</time>
      </trkpt>
      <trkpt lat="42.6325" lon="18.16931">
        <ele>98.472007</ele>
        <time>2022-06-01T12:44:32.588Z</time>
      </trkpt>
      <trkpt lat="42.63242" lon="18.1694">
        <ele>98.934858</ele>
        <time>2022-06-01T12:44:40.580Z</time>
      </trkpt>
      <trkpt lat="42.63235" lon="18.1695">
        <ele>99.392651</ele>
        <time>2022-06-01T12:44:48.584Z</time>
      </trkpt>
      <trkpt lat="42.63228" lon="18.16958">
        <ele>99.827897</ele>
        <time>2022-06-01T12:44:57.594Z</time>
      </trkpt>
      <trkpt lat="42.6322" lon="18.16964">
        <ele>100.283271</ele>
        <time>2022-06-01T12:45:04.579Z</time>
      </trkpt>
      <trkpt lat="42.63214" lon="18.16954">
        <ele>100.717123</ele>
        <time>2022-06-01T12:45:13.620Z</time>
      </trkpt>
      <trkpt lat="42.63216" lon="18.16941">
        <ele>101.171644</ele>
        <time>2022-06-01T12:45:21.608Z</time>
      </trkpt>
      <trkpt lat="42.6322" lon="18.16929">
        <ele>101.612623</ele>
        <time>2022-06-01T12:45:28.586Z</time>
      </trkpt>
      <trkpt lat="42.63223" lon="18.16917">
        <ele>102.066495</ele>
        <time>2022-06-01T12:45:34.598Z</time>
      </trkpt>
      <trkpt lat="42.63227" lon="18.16903">
        <ele>102.565584</ele>
        <time>2022-06-01T12:45:41.558Z</time>
      </trkpt>
      <trkpt lat="42.6323" lon="18.1689">
        <ele>103.02445</ele>
        <time>2022-06-01T12:45:47.564Z</time>
      </trkpt>
      <trkpt lat="42.63233" lon="18.16878">
        <ele>103.462229</ele>
        <time>2022-06-01T12:45:53.569Z</time>
      </trkpt>
      <trkpt lat="42.63237" lon="18.16865">
        <ele>103.956405</ele>
        <time>2022-06-01T12:45:59.551Z</time>
      </trkpt>
      <trkpt lat="42.63239" lon="18.16853">
        <ele>104.393827</ele>
        <time>2022-06-01T12:46:05.579Z</time>
      </trkpt>
      <trkpt lat="42.6324" lon="18.16839">
        <ele>104.868296</ele>
        <time>2022-06-01T12:46:11.570Z</time>
      </trkpt>
      <trkpt lat="42.6324" lon="18.16826">
        <ele>105.191361</ele>
        <time>2022-06-01T12:46:16.587Z</time>
      </trkpt>
      <trkpt lat="42.63239" lon="18.16813">
        <ele>105.500059</ele>
        <time>2022-06-01T12:46:20.579Z</time>
      </trkpt>
      <trkpt lat="42.63238" lon="18.16799">
        <ele>105.869456</ele>
        <time>2022-06-01T12:46:24.606Z</time>
      </trkpt>
      <trkpt lat="42.63236" lon="18.16785">
        <ele>106.224809</ele>
        <time>2022-06-01T12:46:27.592Z</time>
      </trkpt>
      <trkpt lat="42.63235" lon="18.1677">
        <ele>106.596457</ele>
        <time>2022-06-01T12:46:30.587Z</time>
      </trkpt>
      <trkpt lat="42.63235" lon="18.16754">
        <ele>106.997267</ele>
        <time>2022-06-01T12:46:33.575Z</time>
      </trkpt>
      <trkpt lat="42.63235" lon="18.16739">
        <ele>107.373043</ele>
        <time>2022-06-01T12:46:36.590Z</time>
      </trkpt>
      <trkpt lat="42.63234" lon="18.16725">
        <ele>107.735257</ele>
        <time>2022-06-01T12:46:39.588Z</time>
      </trkpt>
      <trkpt lat="42.63234" lon="18.16709">
        <ele>108.121046</ele>
        <time>2022-06-01T12:46:43.575Z</time>
      </trkpt>
      <trkpt lat="42.63234" lon="18.16695">
        <ele>108.479218</ele>
        <time>2022-06-01T12:46:47.591Z</time>
      </trkpt>
      <trkpt lat="42.63234" lon="18.16681">
        <ele>108.837584</ele>
        <time>2022-06-01T12:46:51.582Z</time>
      </trkpt>
      <trkpt lat="42.63233" lon="18.16668">
        <ele>109.160919</ele>
        <time>2022-06-01T12:46:55.586Z</time>
      </trkpt>
      <trkpt lat="42.63233" lon="18.16654">
        <ele>109.496557</ele>
        <time>2022-06-01T12:46:59.618Z</time>
      </trkpt>
      <trkpt lat="42.63233" lon="18.16642">
        <ele>109.817118</ele>
        <time>2022-06-01T12:47:03.588Z</time>
      </trkpt>
      <trkpt lat="42.63233" lon="18.16628">
        <ele>110.162772</ele>
        <time>2022-06-01T12:47:08.580Z</time>
      </trkpt>
      <trkpt lat="42.63233" lon="18.16615">
        <ele>110.490899</ele>
        <time>2022-06-01T12:47:12.585Z</time>
      </trkpt>
      <trkpt lat="42.63231" lon="18.16602">
        <ele>110.815483</ele>
        <time>2022-06-01T12:47:16.594Z</time>
      </trkpt>
      <trkpt lat="42.63231" lon="18.16587">
        <ele>111.213504</ele>
        <time>2022-06-01T12:47:21.582Z</time>
      </trkpt>
      <trkpt lat="42.6323" lon="18.16574">
        <ele>111.613745</ele>
        <time>2022-06-01T12:47:26.599Z</time>
      </trkpt>
      <trkpt lat="42.63228" lon="18.16561">
        <ele>112.003762</ele>
        <time>2022-06-01T12:47:30.599Z</time>
      </trkpt>
      <trkpt lat="42.63226" lon="18.16548">
        <ele>112.387375</ele>
        <time>2022-06-01T12:47:35.558Z</time>
      </trkpt>
      <trkpt lat="42.63226" lon="18.16534">
        <ele>112.783687</ele>
        <time>2022-06-01T12:47:40.582Z</time>
      </trkpt>
      <trkpt lat="42.63224" lon="18.1652">
        <ele>113.201205</ele>
        <time>2022-06-01T12:47:44.558Z</time>
      </trkpt>
      <trkpt lat="42.63224" lon="18.16505">
        <ele>113.631966</ele>
        <time>2022-06-01T12:47:49.585Z</time>
      </trkpt>
      <trkpt lat="42.63223" lon="18.16491">
        <ele>114.05582</ele>
        <time>2022-06-01T12:47:54.611Z</time>
      </trkpt>
      <trkpt lat="42.63223" lon="18.16477">
        <ele>114.451638</ele>
        <time>2022-06-01T12:47:59.561Z</time>
      </trkpt>
      <trkpt lat="42.63222" lon="18.16465">
        <ele>114.806478</ele>
        <time>2022-06-01T12:48:04.586Z</time>
      </trkpt>
      <trkpt lat="42.6322" lon="18.16453">
        <ele>115.168719</ele>
        <time>2022-06-01T12:48:10.580Z</time>
      </trkpt>
      <trkpt lat="42.63219" lon="18.16438">
        <ele>115.595863</ele>
        <time>2022-06-01T12:48:15.590Z</time>
      </trkpt>
      <trkpt lat="42.63218" lon="18.16423">
        <ele>116.030166</ele>
        <time>2022-06-01T12:48:20.570Z</time>
      </trkpt>
      <trkpt lat="42.63219" lon="18.16409">
        <ele>116.449939</ele>
        <time>2022-06-01T12:48:26.572Z</time>
      </trkpt>
      <trkpt lat="42.6322" lon="18.16395">
        <ele>116.834625</ele>
        <time>2022-06-01T12:48:32.569Z</time>
      </trkpt>
      <trkpt lat="42.63219" lon="18.16381">
        <ele>117.2453</ele>
        <time>2022-06-01T12:48:37.587Z</time>
      </trkpt>
      <trkpt lat="42.63218" lon="18.16369">
        <ele>117.602426</ele>
        <time>2022-06-01T12:48:42.587Z</time>
      </trkpt>
      <trkpt lat="42.63218" lon="18.16356">
        <ele>117.980802</ele>
        <time>2022-06-01T12:48:47.575Z</time>
      </trkpt>
      <trkpt lat="42.63215" lon="18.16343">
        <ele>118.220986</ele>
        <time>2022-06-01T12:48:52.581Z</time>
      </trkpt>
      <trkpt lat="42.63211" lon="18.16331">
        <ele>118.404018</ele>
        <time>2022-06-01T12:48:57.600Z</time>
      </trkpt>
      <trkpt lat="42.63206" lon="18.16321">
        <ele>118.579006</ele>
        <time>2022-06-01T12:49:01.592Z</time>
      </trkpt>
      <trkpt lat="42.63199" lon="18.16309">
        <ele>118.782971</ele>
        <time>2022-06-01T12:49:06.588Z</time>
      </trkpt>
      <trkpt lat="42.63194" lon="18.16295">
        <ele>118.991246</ele>
        <time>2022-06-01T12:49:11.581Z</time>
      </trkpt>
      <trkpt lat="42.63191" lon="18.16284">
        <ele>119.168716</ele>
        <time>2022-06-01T12:49:16.574Z</time>
      </trkpt>
      <trkpt lat="42.63184" lon="18.16274">
        <ele>119.359999</ele>
        <time>2022-06-01T12:49:21.585Z</time>
      </trkpt>
      <trkpt lat="42.63177" lon="18.16263">
        <ele>119.546276</ele>
        <time>2022-06-01T12:49:26.579Z</time>
      </trkpt>
      <trkpt lat="42.63172" lon="18.16252">
        <ele>119.721831</ele>
        <time>2022-06-01T12:49:31.570Z</time>
      </trkpt>
      <trkpt lat="42.63167" lon="18.16242">
        <ele>119.897917</ele>
        <time>2022-06-01T12:49:36.565Z</time>
      </trkpt>
      <trkpt lat="42.63161" lon="18.16231">
        <ele>120.086533</ele>
        <time>2022-06-01T12:49:42.611Z</time>
      </trkpt>
      <trkpt lat="42.63156" lon="18.16219">
        <ele>120.281156</ele>
        <time>2022-06-01T12:49:47.591Z</time>
      </trkpt>
      <trkpt lat="42.63151" lon="18.16208">
        <ele>120.464026</ele>
        <time>2022-06-01T12:49:52.637Z</time>
      </trkpt>
      <trkpt lat="42.63145" lon="18.16198">
        <ele>120.633514</ele>
        <time>2022-06-01T12:49:57.570Z</time>
      </trkpt>
      <trkpt lat="42.6314" lon="18.16186">
        <ele>120.828711</ele>
        <time>2022-06-01T12:50:02.598Z</time>
      </trkpt>
      <trkpt lat="42.63135" lon="18.16174">
        <ele>121.013778</ele>
        <time>2022-06-01T12:50:08.587Z</time>
      </trkpt>
      <trkpt lat="42.63127" lon="18.16165">
        <ele>121.2052</ele>
        <time>2022-06-01T12:50:13.567Z</time>
      </trkpt>
      <trkpt lat="42.63119" lon="18.16157">
        <ele>121.398942</ele>
        <time>2022-06-01T12:50:18.572Z</time>
      </trkpt>
      <trkpt lat="42.6311" lon="18.16152">
        <ele>121.66594</ele>
        <time>2022-06-01T12:50:23.616Z</time>
      </trkpt>
      <trkpt lat="42.63102" lon="18.16146">
        <ele>121.994929</ele>
        <time>2022-06-01T12:50:28.557Z</time>
      </trkpt>
      <trkpt lat="42.63093" lon="18.1614">
        <ele>122.353012</ele>
        <time>2022-06-01T12:50:33.563Z</time>
      </trkpt>
      <trkpt lat="42.63083" lon="18.16138">
        <ele>122.692151</ele>
        <time>2022-06-01T12:50:37.571Z</time>
      </trkpt>
      <trkpt lat="42.63073" lon="18.16134">
        <ele>123.059202</ele>
        <time>2022-06-01T12:50:41.606Z</time>
      </trkpt>
      <trkpt lat="42.63065" lon="18.16125">
        <ele>123.424947</ele>
        <time>2022-06-01T12:50:46.584Z</time>
      </trkpt>
      <trkpt lat="42.63062" lon="18.16112">
        <ele>123.779038</ele>
        <time>2022-06-01T12:50:51.585Z</time>
      </trkpt>
      <trkpt lat="42.63058" lon="18.16099">
        <ele>124.135748</ele>
        <time>2022-06-01T12:50:55.578Z</time>
      </trkpt>
      <trkpt lat="42.63056" lon="18.16087">
        <ele>124.456763</ele>
        <time>2022-06-01T12:50:59.587Z</time>
      </trkpt>
      <trkpt lat="42.63056" lon="18.16075">
        <ele>124.77096</ele>
        <time>2022-06-01T12:51:04.559Z</time>
      </trkpt>
      <trkpt lat="42.63057" lon="18.16062">
        <ele>125.100992</ele>
        <time>2022-06-01T12:51:09.568Z</time>
      </trkpt>
      <trkpt lat="42.63055" lon="18.1605">
        <ele>125.42459</ele>
        <time>2022-06-01T12:51:13.568Z</time>
      </trkpt>
      <trkpt lat="42.63054" lon="18.16036">
        <ele>125.781625</ele>
        <time>2022-06-01T12:51:18.572Z</time>
      </trkpt>
      <trkpt lat="42.63054" lon="18.16024">
        <ele>126.098396</ele>
        <time>2022-06-01T12:51:23.607Z</time>
      </trkpt>
      <trkpt lat="42.63054" lon="18.1601">
        <ele>126.453987</ele>
        <time>2022-06-01T12:51:29.593Z</time>
      </trkpt>
      <trkpt lat="42.63056" lon="18.15998">
        <ele>126.772548</ele>
        <time>2022-06-01T12:51:35.585Z</time>
      </trkpt>
      <trkpt lat="42.63055" lon="18.15985">
        <ele>127.097644</ele>
        <time>2022-06-01T12:51:41.593Z</time>
      </trkpt>
      <trkpt lat="42.63057" lon="18.15972">
        <ele>127.448364</ele>
        <time>2022-06-01T12:51:47.597Z</time>
      </trkpt>
      <trkpt lat="42.63057" lon="18.15958">
        <ele>127.830773</ele>
        <time>2022-06-01T12:51:53.601Z</time>
      </trkpt>
      <trkpt lat="42.63055" lon="18.15944">
        <ele>128.453478</ele>
        <time>2022-06-01T12:51:59.585Z</time>
      </trkpt>
      <trkpt lat="42.63054" lon="18.15932">
        <ele>129.032501</ele>
        <time>2022-06-01T12:52:05.585Z</time>
      </trkpt>
      <trkpt lat="42.63054" lon="18.15918">
        <ele>129.635277</ele>
        <time>2022-06-01T12:52:13.577Z</time>
      </trkpt>
      <trkpt lat="42.63052" lon="18.15905">
        <ele>130.232708</ele>
        <time>2022-06-01T12:52:21.581Z</time>
      </trkpt>
      <trkpt lat="42.63051" lon="18.15892">
        <ele>130.838577</ele>
        <time>2022-06-01T12:52:28.587Z</time>
      </trkpt>
      <trkpt lat="42.6305" lon="18.15879">
        <ele>131.419667</ele>
        <time>2022-06-01T12:52:35.608Z</time>
      </trkpt>
      <trkpt lat="42.63049" lon="18.15867">
        <ele>131.9838</ele>
        <time>2022-06-01T12:52:44.590Z</time>
      </trkpt>
      <trkpt lat="42.63046" lon="18.15853">
        <ele>132.627771</ele>
        <time>2022-06-01T12:52:51.584Z</time>
      </trkpt>
      <trkpt lat="42.63045" lon="18.1584">
        <ele>133.202322</ele>
        <time>2022-06-01T12:52:59.584Z</time>
      </trkpt>
      <trkpt lat="42.63046" lon="18.15827">
        <ele>133.791731</ele>
        <time>2022-06-01T12:53:08.586Z</time>
      </trkpt>
      <trkpt lat="42.63043" lon="18.15815">
        <ele>134.36741</ele>
        <time>2022-06-01T12:53:15.600Z</time>
      </trkpt>
      <trkpt lat="42.63041" lon="18.15801">
        <ele>134.990115</ele>
        <time>2022-06-01T12:53:24.572Z</time>
      </trkpt>
      <trkpt lat="42.63038" lon="18.15789">
        <ele>135.545485</ele>
        <time>2022-06-01T12:53:31.569Z</time>
      </trkpt>
      <trkpt lat="42.63038" lon="18.15776">
        <ele>136.131833</ele>
        <time>2022-06-01T12:53:40.618Z</time>
      </trkpt>
      <trkpt lat="42.63036" lon="18.15763">
        <ele>136.747992</ele>
        <time>2022-06-01T12:53:53.560Z</time>
      </trkpt>
      <trkpt lat="42.63036" lon="18.15749">
        <ele>137.359797</ele>
        <time>2022-06-01T12:54:00.587Z</time>
      </trkpt>
      <trkpt lat="42.63034" lon="18.15736">
        <ele>137.956879</ele>
        <time>2022-06-01T12:54:08.573Z</time>
      </trkpt>
      <trkpt lat="42.63028" lon="18.15727">
        <ele>138.513985</ele>
        <time>2022-06-01T12:54:17.589Z</time>
      </trkpt>
      <trkpt lat="42.63019" lon="18.15722">
        <ele>139.110168</ele>
        <time>2022-06-01T12:54:24.571Z</time>
      </trkpt>
      <trkpt lat="42.6301" lon="18.15721">
        <ele>139.702957</ele>
        <time>2022-06-01T12:54:31.569Z</time>
      </trkpt>
      <trkpt lat="42.62999" lon="18.15721">
        <ele>140.363779</ele>
        <time>2022-06-01T12:54:37.579Z</time>
      </trkpt>
      <trkpt lat="42.62991" lon="18.15725">
        <ele>140.940976</ele>
        <time>2022-06-01T12:54:42.584Z</time>
      </trkpt>
      <trkpt lat="42.62985" lon="18.15735">
        <ele>141.513358</ele>
        <time>2022-06-01T12:54:48.583Z</time>
      </trkpt>
      <trkpt lat="42.62983" lon="18.15749">
        <ele>142.180414</ele>
        <time>2022-06-01T12:54:54.590Z</time>
      </trkpt>
      <trkpt lat="42.6298" lon="18.15762">
        <ele>142.847562</ele>
        <time>2022-06-01T12:55:00.608Z</time>
      </trkpt>
      <trkpt lat="42.62978" lon="18.15776">
        <ele>143.517634</ele>
        <time>2022-06-01T12:55:05.584Z</time>
      </trkpt>
      <trkpt lat="42.62975" lon="18.15789">
        <ele>144.125784</ele>
        <time>2022-06-01T12:55:09.586Z</time>
      </trkpt>
      <trkpt lat="42.62973" lon="18.15802">
        <ele>144.738921</ele>
        <time>2022-06-01T12:55:13.610Z</time>
      </trkpt>
      <trkpt lat="42.62971" lon="18.15814">
        <ele>145.328732</ele>
        <time>2022-06-01T12:55:17.587Z</time>
      </trkpt>
      <trkpt lat="42.62971" lon="18.15827">
        <ele>145.946618</ele>
        <time>2022-06-01T12:55:21.588Z</time>
      </trkpt>
      <trkpt lat="42.62971" lon="18.15842">
        <ele>146.647454</ele>
        <time>2022-06-01T12:55:26.577Z</time>
      </trkpt>
      <trkpt lat="42.6297" lon="18.15854">
        <ele>147.221707</ele>
        <time>2022-06-01T12:55:30.586Z</time>
      </trkpt>
      <trkpt lat="42.62968" lon="18.15868">
        <ele>147.851359</ele>
        <time>2022-06-01T12:55:34.624Z</time>
      </trkpt>
      <trkpt lat="42.62967" lon="18.1588">
        <ele>148.442225</ele>
        <time>2022-06-01T12:55:38.575Z</time>
      </trkpt>
      <trkpt lat="42.62967" lon="18.15895">
        <ele>149.134417</ele>
        <time>2022-06-01T12:55:43.581Z</time>
      </trkpt>
      <trkpt lat="42.62965" lon="18.15907">
        <ele>149.73411</ele>
        <time>2022-06-01T12:55:47.568Z</time>
      </trkpt>
      <trkpt lat="42.62963" lon="18.1592">
        <ele>150.1423</ele>
        <time>2022-06-01T12:55:51.623Z</time>
      </trkpt>
      <trkpt lat="42.62962" lon="18.15934">
        <ele>149.977646</ele>
        <time>2022-06-01T12:55:56.597Z</time>
      </trkpt>
      <trkpt lat="42.62959" lon="18.15947">
        <ele>149.827848</ele>
        <time>2022-06-01T12:56:00.582Z</time>
      </trkpt>
      <trkpt lat="42.62956" lon="18.15962">
        <ele>149.667079</ele>
        <time>2022-06-01T12:56:05.634Z</time>
      </trkpt>
      <trkpt lat="42.62954" lon="18.15974">
        <ele>149.530971</ele>
        <time>2022-06-01T12:56:09.569Z</time>
      </trkpt>
      <trkpt lat="42.62952" lon="18.15987">
        <ele>149.384408</ele>
        <time>2022-06-01T12:56:14.591Z</time>
      </trkpt>
      <trkpt lat="42.62943" lon="18.16012">
        <ele>149.071448</ele>
        <time>2022-06-01T13:01:49.596Z</time>
      </trkpt>
      <trkpt lat="42.62937" lon="18.16023">
        <ele>148.920456</ele>
        <time>2022-06-01T13:01:53.574Z</time>
      </trkpt>
      <trkpt lat="42.62933" lon="18.16035">
        <ele>148.786878</ele>
        <time>2022-06-01T13:01:56.580Z</time>
      </trkpt>
      <trkpt lat="42.6293" lon="18.16048">
        <ele>148.631856</ele>
        <time>2022-06-01T13:02:00.578Z</time>
      </trkpt>
      <trkpt lat="42.62927" lon="18.16059">
        <ele>148.498107</ele>
        <time>2022-06-01T13:02:04.574Z</time>
      </trkpt>
      <trkpt lat="42.62923" lon="18.16072">
        <ele>148.355589</ele>
        <time>2022-06-01T13:02:08.604Z</time>
      </trkpt>
      <trkpt lat="42.62921" lon="18.16084">
        <ele>148.213637</ele>
        <time>2022-06-01T13:02:13.554Z</time>
      </trkpt>
      <trkpt lat="42.62918" lon="18.16097">
        <ele>148.069357</ele>
        <time>2022-06-01T13:02:18.580Z</time>
      </trkpt>
      <trkpt lat="42.62916" lon="18.1611">
        <ele>147.924564</ele>
        <time>2022-06-01T13:02:23.593Z</time>
      </trkpt>
      <trkpt lat="42.62914" lon="18.16124">
        <ele>147.76096</ele>
        <time>2022-06-01T13:02:28.580Z</time>
      </trkpt>
      <trkpt lat="42.62912" lon="18.16138">
        <ele>147.606251</ele>
        <time>2022-06-01T13:02:33.585Z</time>
      </trkpt>
      <trkpt lat="42.6291" lon="18.16153">
        <ele>147.755484</ele>
        <time>2022-06-01T13:02:38.568Z</time>
      </trkpt>
      <trkpt lat="42.62892" lon="18.16157">
        <ele>149.011353</ele>
        <time>2022-06-01T13:03:42.583Z</time>
      </trkpt>
      <trkpt lat="42.6289" lon="18.16145">
        <ele>149.668049</ele>
        <time>2022-06-01T13:03:47.580Z</time>
      </trkpt>
      <trkpt lat="42.62893" lon="18.16133">
        <ele>150.303884</ele>
        <time>2022-06-01T13:03:53.585Z</time>
      </trkpt>
      <trkpt lat="42.62896" lon="18.1612">
        <ele>151.013751</ele>
        <time>2022-06-01T13:03:59.590Z</time>
      </trkpt>
      <trkpt lat="42.62899" lon="18.16108">
        <ele>151.660589</ele>
        <time>2022-06-01T13:04:04.583Z</time>
      </trkpt>
      <trkpt lat="42.62901" lon="18.16093">
        <ele>152.426421</ele>
        <time>2022-06-01T13:04:10.602Z</time>
      </trkpt>
      <trkpt lat="42.62904" lon="18.16081">
        <ele>153.118582</ele>
        <time>2022-06-01T13:04:15.588Z</time>
      </trkpt>
      <trkpt lat="42.62906" lon="18.16067">
        <ele>153.836573</ele>
        <time>2022-06-01T13:04:21.610Z</time>
      </trkpt>
      <trkpt lat="42.6291" lon="18.16054">
        <ele>154.580191</ele>
        <time>2022-06-01T13:04:27.591Z</time>
      </trkpt>
      <trkpt lat="42.62913" lon="18.16042">
        <ele>155.211135</ele>
        <time>2022-06-01T13:04:33.583Z</time>
      </trkpt>
      <trkpt lat="42.62916" lon="18.16028">
        <ele>155.970465</ele>
        <time>2022-06-01T13:04:39.597Z</time>
      </trkpt>
      <trkpt lat="42.62918" lon="18.16015">
        <ele>156.633402</ele>
        <time>2022-06-01T13:04:44.571Z</time>
      </trkpt>
      <trkpt lat="42.62921" lon="18.16002">
        <ele>157.301273</ele>
        <time>2022-06-01T13:04:49.595Z</time>
      </trkpt>
      <trkpt lat="42.62923" lon="18.1599">
        <ele>157.949832</ele>
        <time>2022-06-01T13:04:54.586Z</time>
      </trkpt>
      <trkpt lat="42.62924" lon="18.15978">
        <ele>158.60089</ele>
        <time>2022-06-01T13:05:00.579Z</time>
      </trkpt>
      <trkpt lat="42.62925" lon="18.15964">
        <ele>159.294448</ele>
        <time>2022-06-01T13:05:06.588Z</time>
      </trkpt>
      <trkpt lat="42.62926" lon="18.15952">
        <ele>159.939652</ele>
        <time>2022-06-01T13:05:11.588Z</time>
      </trkpt>
      <trkpt lat="42.62927" lon="18.15939">
        <ele>160.454533</ele>
        <time>2022-06-01T13:05:16.583Z</time>
      </trkpt>
      <trkpt lat="42.62927" lon="18.15925">
        <ele>161.000316</ele>
        <time>2022-06-01T13:05:22.581Z</time>
      </trkpt>
      <trkpt lat="42.62927" lon="18.15912">
        <ele>161.488536</ele>
        <time>2022-06-01T13:05:27.597Z</time>
      </trkpt>
      <trkpt lat="42.62927" lon="18.15899">
        <ele>161.988175</ele>
        <time>2022-06-01T13:05:33.588Z</time>
      </trkpt>
      <trkpt lat="42.62927" lon="18.15885">
        <ele>162.541719</ele>
        <time>2022-06-01T13:05:39.584Z</time>
      </trkpt>
      <trkpt lat="42.62927" lon="18.15872">
        <ele>163.015175</ele>
        <time>2022-06-01T13:05:44.584Z</time>
      </trkpt>
      <trkpt lat="42.62928" lon="18.15858">
        <ele>163.562531</ele>
        <time>2022-06-01T13:05:50.568Z</time>
      </trkpt>
      <trkpt lat="42.62929" lon="18.15845">
        <ele>164.085159</ele>
        <time>2022-06-01T13:05:56.598Z</time>
      </trkpt>
      <trkpt lat="42.62931" lon="18.15831">
        <ele>164.612948</ele>
        <time>2022-06-01T13:06:02.591Z</time>
      </trkpt>
      <trkpt lat="42.62932" lon="18.15817">
        <ele>165.143136</ele>
        <time>2022-06-01T13:06:08.597Z</time>
      </trkpt>
      <trkpt lat="42.62932" lon="18.15804">
        <ele>165.654411</ele>
        <time>2022-06-01T13:06:14.619Z</time>
      </trkpt>
      <trkpt lat="42.6293" lon="18.1579">
        <ele>166.219315</ele>
        <time>2022-06-01T13:06:20.586Z</time>
      </trkpt>
      <trkpt lat="42.6293" lon="18.15776">
        <ele>166.742118</ele>
        <time>2022-06-01T13:06:26.568Z</time>
      </trkpt>
      <trkpt lat="42.62932" lon="18.15763">
        <ele>167.275905</ele>
        <time>2022-06-01T13:06:32.589Z</time>
      </trkpt>
      <trkpt lat="42.62931" lon="18.1575">
        <ele>167.787157</ele>
        <time>2022-06-01T13:06:38.594Z</time>
      </trkpt>
      <trkpt lat="42.62931" lon="18.15737">
        <ele>168.267692</ele>
        <time>2022-06-01T13:06:44.628Z</time>
      </trkpt>
      <trkpt lat="42.62931" lon="18.15724">
        <ele>168.756247</ele>
        <time>2022-06-01T13:06:50.581Z</time>
      </trkpt>
      <trkpt lat="42.62933" lon="18.15712">
        <ele>169.261443</ele>
        <time>2022-06-01T13:06:56.566Z</time>
      </trkpt>
      <trkpt lat="42.62934" lon="18.15698">
        <ele>169.856652</ele>
        <time>2022-06-01T13:07:03.587Z</time>
      </trkpt>
      <trkpt lat="42.62937" lon="18.15685">
        <ele>170.47569</ele>
        <time>2022-06-01T13:07:10.581Z</time>
      </trkpt>
      <trkpt lat="42.6294" lon="18.15671">
        <ele>171.12794</ele>
        <time>2022-06-01T13:07:16.572Z</time>
      </trkpt>
      <trkpt lat="42.62942" lon="18.15658">
        <ele>171.727955</ele>
        <time>2022-06-01T13:07:23.588Z</time>
      </trkpt>
      <trkpt lat="42.62945" lon="18.15645">
        <ele>172.34763</ele>
        <time>2022-06-01T13:07:30.580Z</time>
      </trkpt>
      <trkpt lat="42.62948" lon="18.15633">
        <ele>172.922548</ele>
        <time>2022-06-01T13:07:35.589Z</time>
      </trkpt>
      <trkpt lat="42.62951" lon="18.15621">
        <ele>173.495284</ele>
        <time>2022-06-01T13:07:41.571Z</time>
      </trkpt>
      <trkpt lat="42.62956" lon="18.15608">
        <ele>174.132669</ele>
        <time>2022-06-01T13:07:47.567Z</time>
      </trkpt>
      <trkpt lat="42.62961" lon="18.15598">
        <ele>174.695998</ele>
        <time>2022-06-01T13:07:53.590Z</time>
      </trkpt>
      <trkpt lat="42.62965" lon="18.15586">
        <ele>175.292794</ele>
        <time>2022-06-01T13:08:00.576Z</time>
      </trkpt>
      <trkpt lat="42.62969" lon="18.15574">
        <ele>175.869862</ele>
        <time>2022-06-01T13:08:08.576Z</time>
      </trkpt>
      <trkpt lat="42.62973" lon="18.15563">
        <ele>176.431497</ele>
        <time>2022-06-01T13:08:14.572Z</time>
      </trkpt>
      <trkpt lat="42.62977" lon="18.15551">
        <ele>176.999809</ele>
        <time>2022-06-01T13:08:20.577Z</time>
      </trkpt>
      <trkpt lat="42.62981" lon="18.1554">
        <ele>177.585747</ele>
        <time>2022-06-01T13:08:29.573Z</time>
      </trkpt>
      <trkpt lat="42.62985" lon="18.15528">
        <ele>178.194623</ele>
        <time>2022-06-01T13:08:37.578Z</time>
      </trkpt>
      <trkpt lat="42.62989" lon="18.15515">
        <ele>178.820501</ele>
        <time>2022-06-01T13:08:44.567Z</time>
      </trkpt>
      <trkpt lat="42.62992" lon="18.15503">
        <ele>179.403839</ele>
        <time>2022-06-01T13:08:50.582Z</time>
      </trkpt>
      <trkpt lat="42.62995" lon="18.15491">
        <ele>179.977999</ele>
        <time>2022-06-01T13:08:57.569Z</time>
      </trkpt>
      <trkpt lat="42.62997" lon="18.15478">
        <ele>180.570072</ele>
        <time>2022-06-01T13:09:04.564Z</time>
      </trkpt>
      <trkpt lat="42.62998" lon="18.15465">
        <ele>181.150097</ele>
        <time>2022-06-01T13:09:12.571Z</time>
      </trkpt>
      <trkpt lat="42.63" lon="18.15451">
        <ele>181.797082</ele>
        <time>2022-06-01T13:09:18.615Z</time>
      </trkpt>
      <trkpt lat="42.63002" lon="18.15438">
        <ele>182.419266</ele>
        <time>2022-06-01T13:09:25.590Z</time>
      </trkpt>
      <trkpt lat="42.63001" lon="18.15425">
        <ele>182.997473</ele>
        <time>2022-06-01T13:09:31.574Z</time>
      </trkpt>
      <trkpt lat="42.63" lon="18.15412">
        <ele>183.594948</ele>
        <time>2022-06-01T13:09:38.584Z</time>
      </trkpt>
      <trkpt lat="42.62999" lon="18.15399">
        <ele>184.201297</ele>
        <time>2022-06-01T13:09:43.582Z</time>
      </trkpt>
      <trkpt lat="42.63001" lon="18.15387">
        <ele>184.764153</ele>
        <time>2022-06-01T13:09:47.578Z</time>
      </trkpt>
      <trkpt lat="42.63001" lon="18.15373">
        <ele>185.371385</ele>
        <time>2022-06-01T13:09:52.616Z</time>
      </trkpt>
      <trkpt lat="42.62998" lon="18.15361">
        <ele>185.952289</ele>
        <time>2022-06-01T13:09:58.584Z</time>
      </trkpt>
      <trkpt lat="42.63" lon="18.15347">
        <ele>186.61913</ele>
        <time>2022-06-01T13:10:04.587Z</time>
      </trkpt>
      <trkpt lat="42.62999" lon="18.15333">
        <ele>187.244023</ele>
        <time>2022-06-01T13:10:08.558Z</time>
      </trkpt>
      <trkpt lat="42.62999" lon="18.15319">
        <ele>187.895005</ele>
        <time>2022-06-01T13:10:12.600Z</time>
      </trkpt>
      <trkpt lat="42.62996" lon="18.15305">
        <ele>188.572771</ele>
        <time>2022-06-01T13:10:16.603Z</time>
      </trkpt>
      <trkpt lat="42.62995" lon="18.1529">
        <ele>189.266127</ele>
        <time>2022-06-01T13:10:20.585Z</time>
      </trkpt>
      <trkpt lat="42.62995" lon="18.15274">
        <ele>189.976244</ele>
        <time>2022-06-01T13:10:23.572Z</time>
      </trkpt>
      <trkpt lat="42.62998" lon="18.15256">
        <ele>190.835122</ele>
        <time>2022-06-01T13:10:26.600Z</time>
      </trkpt>
      <trkpt lat="42.63001" lon="18.15242">
        <ele>191.490916</ele>
        <time>2022-06-01T13:10:28.569Z</time>
      </trkpt>
      <trkpt lat="42.63005" lon="18.15225">
        <ele>191.541103</ele>
        <time>2022-06-01T13:10:30.615Z</time>
      </trkpt>
      <trkpt lat="42.63009" lon="18.15208">
        <ele>191.456131</ele>
        <time>2022-06-01T13:10:32.605Z</time>
      </trkpt>
      <trkpt lat="42.63013" lon="18.15189">
        <ele>191.362395</ele>
        <time>2022-06-01T13:10:34.584Z</time>
      </trkpt>
      <trkpt lat="42.63018" lon="18.15171">
        <ele>191.270935</ele>
        <time>2022-06-01T13:10:36.579Z</time>
      </trkpt>
      <trkpt lat="42.63023" lon="18.15153">
        <ele>191.180141</ele>
        <time>2022-06-01T13:10:38.599Z</time>
      </trkpt>
      <trkpt lat="42.63028" lon="18.15136">
        <ele>191.095272</ele>
        <time>2022-06-01T13:10:40.576Z</time>
      </trkpt>
      <trkpt lat="42.63032" lon="18.15118">
        <ele>191.008953</ele>
        <time>2022-06-01T13:10:42.589Z</time>
      </trkpt>
      <trkpt lat="42.63036" lon="18.15101">
        <ele>190.926149</ele>
        <time>2022-06-01T13:10:44.586Z</time>
      </trkpt>
      <trkpt lat="42.63039" lon="18.15084">
        <ele>190.844507</ele>
        <time>2022-06-01T13:10:46.579Z</time>
      </trkpt>
      <trkpt lat="42.63042" lon="18.15068">
        <ele>190.763685</ele>
        <time>2022-06-01T13:10:48.567Z</time>
      </trkpt>
      <trkpt lat="42.63047" lon="18.15051">
        <ele>190.67708</ele>
        <time>2022-06-01T13:10:50.591Z</time>
      </trkpt>
      <trkpt lat="42.63053" lon="18.15033">
        <ele>190.584013</ele>
        <time>2022-06-01T13:10:52.575Z</time>
      </trkpt>
      <trkpt lat="42.6306" lon="18.15015">
        <ele>190.491187</ele>
        <time>2022-06-01T13:10:54.594Z</time>
      </trkpt>
      <trkpt lat="42.63067" lon="18.14998">
        <ele>190.347545</ele>
        <time>2022-06-01T13:10:56.580Z</time>
      </trkpt>
      <trkpt lat="42.63075" lon="18.14982">
        <ele>190.190162</ele>
        <time>2022-06-01T13:10:58.608Z</time>
      </trkpt>
      <trkpt lat="42.63082" lon="18.14966">
        <ele>190.032601</ele>
        <time>2022-06-01T13:11:00.567Z</time>
      </trkpt>
      <trkpt lat="42.6309" lon="18.14947">
        <ele>189.860163</ele>
        <time>2022-06-01T13:11:02.587Z</time>
      </trkpt>
      <trkpt lat="42.63097" lon="18.14929">
        <ele>189.691162</ele>
        <time>2022-06-01T13:11:04.577Z</time>
      </trkpt>
      <trkpt lat="42.63103" lon="18.14911">
        <ele>189.5327</ele>
        <time>2022-06-01T13:11:06.598Z</time>
      </trkpt>
      <trkpt lat="42.63108" lon="18.14895">
        <ele>189.380682</ele>
        <time>2022-06-01T13:11:08.580Z</time>
      </trkpt>
      <trkpt lat="42.63115" lon="18.1488">
        <ele>189.239366</ele>
        <time>2022-06-01T13:11:10.576Z</time>
      </trkpt>
      <trkpt lat="42.6312" lon="18.14866">
        <ele>189.113229</ele>
        <time>2022-06-01T13:11:12.601Z</time>
      </trkpt>
      <trkpt lat="42.63124" lon="18.14852">
        <ele>188.989422</ele>
        <time>2022-06-01T13:11:14.599Z</time>
      </trkpt>
      <trkpt lat="42.63128" lon="18.14841">
        <ele>188.888496</ele>
        <time>2022-06-01T13:11:16.578Z</time>
      </trkpt>
      <trkpt lat="42.63132" lon="18.14826">
        <ele>188.75484</ele>
        <time>2022-06-01T13:11:19.570Z</time>
      </trkpt>
      <trkpt lat="42.63135" lon="18.1481">
        <ele>188.622609</ele>
        <time>2022-06-01T13:11:22.562Z</time>
      </trkpt>
      <trkpt lat="42.63139" lon="18.14796">
        <ele>188.498212</ele>
        <time>2022-06-01T13:11:25.557Z</time>
      </trkpt>
      <trkpt lat="42.63143" lon="18.14783">
        <ele>188.592723</ele>
        <time>2022-06-01T13:11:28.582Z</time>
      </trkpt>
      <trkpt lat="42.63146" lon="18.14771">
        <ele>188.809827</ele>
        <time>2022-06-01T13:11:31.563Z</time>
      </trkpt>
      <trkpt lat="42.6315" lon="18.14756">
        <ele>189.075213</ele>
        <time>2022-06-01T13:11:35.578Z</time>
      </trkpt>
      <trkpt lat="42.63153" lon="18.14743">
        <ele>189.324779</ele>
        <time>2022-06-01T13:11:39.615Z</time>
      </trkpt>
      <trkpt lat="42.63159" lon="18.14733">
        <ele>189.534118</ele>
        <time>2022-06-01T13:11:44.582Z</time>
      </trkpt>
      <trkpt lat="42.63162" lon="18.14721">
        <ele>189.747535</ele>
        <time>2022-06-01T13:11:49.566Z</time>
      </trkpt>
      <trkpt lat="42.63165" lon="18.14708">
        <ele>189.98343</ele>
        <time>2022-06-01T13:11:55.618Z</time>
      </trkpt>
      <trkpt lat="42.63168" lon="18.14695">
        <ele>190.211333</ele>
        <time>2022-06-01T13:12:02.575Z</time>
      </trkpt>
      <trkpt lat="42.63172" lon="18.14683">
        <ele>190.436579</ele>
        <time>2022-06-01T13:12:08.579Z</time>
      </trkpt>
      <trkpt lat="42.63174" lon="18.1467">
        <ele>190.661936</ele>
        <time>2022-06-01T13:12:14.580Z</time>
      </trkpt>
      <trkpt lat="42.63177" lon="18.14657">
        <ele>190.907</ele>
        <time>2022-06-01T13:12:20.583Z</time>
      </trkpt>
      <trkpt lat="42.63178" lon="18.14643">
        <ele>191.144168</ele>
        <time>2022-06-01T13:12:25.581Z</time>
      </trkpt>
      <trkpt lat="42.63178" lon="18.1463">
        <ele>191.35961</ele>
        <time>2022-06-01T13:12:30.642Z</time>
      </trkpt>
      <trkpt lat="42.63178" lon="18.14618">
        <ele>191.571631</ele>
        <time>2022-06-01T13:12:35.576Z</time>
      </trkpt>
      <trkpt lat="42.63179" lon="18.14605">
        <ele>191.79733</ele>
        <time>2022-06-01T13:12:41.592Z</time>
      </trkpt>
      <trkpt lat="42.63181" lon="18.14592">
        <ele>192.012094</ele>
        <time>2022-06-01T13:12:48.578Z</time>
      </trkpt>
      <trkpt lat="42.63181" lon="18.1458">
        <ele>192.232958</ele>
        <time>2022-06-01T13:12:55.581Z</time>
      </trkpt>
      <trkpt lat="42.63184" lon="18.14567">
        <ele>192.4516</ele>
        <time>2022-06-01T13:13:02.594Z</time>
      </trkpt>
      <trkpt lat="42.63184" lon="18.14553">
        <ele>193.091285</ele>
        <time>2022-06-01T13:13:09.581Z</time>
      </trkpt>
      <trkpt lat="42.63186" lon="18.14541">
        <ele>194.562916</ele>
        <time>2022-06-01T13:13:15.556Z</time>
      </trkpt>
      <trkpt lat="42.63188" lon="18.14529">
        <ele>196.054108</ele>
        <time>2022-06-01T13:13:21.568Z</time>
      </trkpt>
      <trkpt lat="42.6319" lon="18.14517">
        <ele>197.566095</ele>
        <time>2022-06-01T13:13:28.580Z</time>
      </trkpt>
      <trkpt lat="42.63193" lon="18.14504">
        <ele>199.167128</ele>
        <time>2022-06-01T13:13:35.599Z</time>
      </trkpt>
      <trkpt lat="42.63194" lon="18.14491">
        <ele>200.805737</ele>
        <time>2022-06-01T13:13:42.581Z</time>
      </trkpt>
      <trkpt lat="42.63196" lon="18.14478">
        <ele>202.351717</ele>
        <time>2022-06-01T13:13:48.585Z</time>
      </trkpt>
      <trkpt lat="42.63198" lon="18.14465">
        <ele>203.965895</ele>
        <time>2022-06-01T13:13:54.601Z</time>
      </trkpt>
      <trkpt lat="42.63201" lon="18.14452">
        <ele>205.652941</ele>
        <time>2022-06-01T13:14:02.578Z</time>
      </trkpt>
      <trkpt lat="42.63204" lon="18.1444">
        <ele>207.151837</ele>
        <time>2022-06-01T13:14:09.579Z</time>
      </trkpt>
      <trkpt lat="42.63207" lon="18.14428">
        <ele>208.64411</ele>
        <time>2022-06-01T13:14:16.574Z</time>
      </trkpt>
      <trkpt lat="42.63211" lon="18.14417">
        <ele>210.210807</ele>
        <time>2022-06-01T13:14:23.568Z</time>
      </trkpt>
      <trkpt lat="42.63216" lon="18.14406">
        <ele>211.791477</ele>
        <time>2022-06-01T13:14:29.578Z</time>
      </trkpt>
      <trkpt lat="42.63222" lon="18.14395">
        <ele>213.32048</ele>
        <time>2022-06-01T13:14:36.583Z</time>
      </trkpt>
      <trkpt lat="42.63231" lon="18.1439">
        <ele>214.998861</ele>
        <time>2022-06-01T13:14:45.570Z</time>
      </trkpt>
      <trkpt lat="42.63238" lon="18.14381">
        <ele>216.563813</ele>
        <time>2022-06-01T13:14:52.558Z</time>
      </trkpt>
      <trkpt lat="42.63246" lon="18.14377">
        <ele>218.045868</ele>
        <time>2022-06-01T13:15:00.580Z</time>
      </trkpt>
      <trkpt lat="42.63255" lon="18.14371">
        <ele>219.667713</ele>
        <time>2022-06-01T13:15:08.607Z</time>
      </trkpt>
      <trkpt lat="42.63264" lon="18.14365">
        <ele>221.21588</ele>
        <time>2022-06-01T13:15:14.599Z</time>
      </trkpt>
      <trkpt lat="42.63272" lon="18.1436">
        <ele>222.193546</ele>
        <time>2022-06-01T13:15:21.571Z</time>
      </trkpt>
      <trkpt lat="42.63281" lon="18.14353">
        <ele>222.220028</ele>
        <time>2022-06-01T13:15:28.587Z</time>
      </trkpt>
      <trkpt lat="42.6329" lon="18.14349">
        <ele>222.245608</ele>
        <time>2022-06-01T13:15:33.589Z</time>
      </trkpt>
      <trkpt lat="42.63299" lon="18.14341">
        <ele>222.271795</ele>
        <time>2022-06-01T13:15:40.589Z</time>
      </trkpt>
      <trkpt lat="42.63307" lon="18.14336">
        <ele>222.295625</ele>
        <time>2022-06-01T13:15:51.548Z</time>
      </trkpt>
      <trkpt lat="42.63314" lon="18.14327">
        <ele>222.321274</ele>
        <time>2022-06-01T13:15:58.570Z</time>
      </trkpt>
      <trkpt lat="42.63319" lon="18.14316">
        <ele>222.34551</ele>
        <time>2022-06-01T13:16:04.594Z</time>
      </trkpt>
      <trkpt lat="42.63322" lon="18.14303">
        <ele>222.372065</ele>
        <time>2022-06-01T13:16:12.587Z</time>
      </trkpt>
      <trkpt lat="42.63326" lon="18.14292">
        <ele>222.395914</ele>
        <time>2022-06-01T13:16:19.600Z</time>
      </trkpt>
      <trkpt lat="42.63329" lon="18.14279">
        <ele>222.422029</ele>
        <time>2022-06-01T13:16:27.579Z</time>
      </trkpt>
      <trkpt lat="42.63332" lon="18.14267">
        <ele>222.446959</ele>
        <time>2022-06-01T13:16:34.577Z</time>
      </trkpt>
      <trkpt lat="42.63334" lon="18.14254">
        <ele>222.472231</ele>
        <time>2022-06-01T13:16:40.577Z</time>
      </trkpt>
      <trkpt lat="42.63335" lon="18.1424">
        <ele>222.498245</ele>
        <time>2022-06-01T13:16:49.577Z</time>
      </trkpt>
      <trkpt lat="42.6334" lon="18.1423">
        <ele>222.522038</ele>
        <time>2022-06-01T13:16:57.582Z</time>
      </trkpt>
      <trkpt lat="42.63342" lon="18.14216">
        <ele>222.548769</ele>
        <time>2022-06-01T13:17:04.569Z</time>
      </trkpt>
      <trkpt lat="42.63346" lon="18.14205">
        <ele>222.57302</ele>
        <time>2022-06-01T13:17:11.589Z</time>
      </trkpt>
      <trkpt lat="42.63353" lon="18.14195">
        <ele>222.59902</ele>
        <time>2022-06-01T13:17:19.589Z</time>
      </trkpt>
      <trkpt lat="42.63359" lon="18.14185">
        <ele>222.623265</ele>
        <time>2022-06-01T13:17:27.575Z</time>
      </trkpt>
      <trkpt lat="42.63365" lon="18.14176">
        <ele>222.647356</ele>
        <time>2022-06-01T13:17:37.576Z</time>
      </trkpt>
      <trkpt lat="42.63368" lon="18.14146">
        <ele>223.468326</ele>
        <time>2022-06-01T13:20:08.580Z</time>
      </trkpt>
      <trkpt lat="42.63367" lon="18.14133">
        <ele>223.861062</ele>
        <time>2022-06-01T13:20:14.578Z</time>
      </trkpt>
      <trkpt lat="42.63366" lon="18.1412">
        <ele>224.254489</ele>
        <time>2022-06-01T13:20:20.607Z</time>
      </trkpt>
      <trkpt lat="42.63366" lon="18.14107">
        <ele>224.64768</ele>
        <time>2022-06-01T13:20:26.577Z</time>
      </trkpt>
      <trkpt lat="42.63365" lon="18.14093">
        <ele>225.05897</ele>
        <time>2022-06-01T13:20:33.560Z</time>
      </trkpt>
      <trkpt lat="42.63364" lon="18.14079">
        <ele>225.478227</ele>
        <time>2022-06-01T13:20:39.565Z</time>
      </trkpt>
      <trkpt lat="42.63363" lon="18.14067">
        <ele>225.856543</ele>
        <time>2022-06-01T13:20:45.558Z</time>
      </trkpt>
      <trkpt lat="42.6336" lon="18.14055">
        <ele>226.22817</ele>
        <time>2022-06-01T13:20:52.586Z</time>
      </trkpt>
      <trkpt lat="42.63358" lon="18.14043">
        <ele>226.60142</ele>
        <time>2022-06-01T13:21:03.557Z</time>
      </trkpt>
      <trkpt lat="42.63353" lon="18.14032">
        <ele>226.991587</ele>
        <time>2022-06-01T13:21:12.559Z</time>
      </trkpt>
      <trkpt lat="42.63347" lon="18.14022">
        <ele>227.373602</ele>
        <time>2022-06-01T13:21:20.620Z</time>
      </trkpt>
      <trkpt lat="42.63344" lon="18.14009">
        <ele>227.78854</ele>
        <time>2022-06-01T13:21:28.583Z</time>
      </trkpt>
      <trkpt lat="42.63342" lon="18.13996">
        <ele>228.172869</ele>
        <time>2022-06-01T13:21:35.586Z</time>
      </trkpt>
      <trkpt lat="42.63342" lon="18.13983">
        <ele>228.578626</ele>
        <time>2022-06-01T13:21:41.574Z</time>
      </trkpt>
      <trkpt lat="42.6334" lon="18.13971">
        <ele>228.955208</ele>
        <time>2022-06-01T13:21:47.590Z</time>
      </trkpt>
      <trkpt lat="42.63338" lon="18.13957">
        <ele>229.372758</ele>
        <time>2022-06-01T13:21:54.618Z</time>
      </trkpt>
      <trkpt lat="42.63336" lon="18.13945">
        <ele>229.744087</ele>
        <time>2022-06-01T13:22:00.621Z</time>
      </trkpt>
      <trkpt lat="42.63334" lon="18.13932">
        <ele>230.180465</ele>
        <time>2022-06-01T13:22:06.614Z</time>
      </trkpt>
      <trkpt lat="42.63333" lon="18.1392">
        <ele>230.717505</ele>
        <time>2022-06-01T13:22:12.596Z</time>
      </trkpt>
      <trkpt lat="42.63329" lon="18.13907">
        <ele>231.324858</ele>
        <time>2022-06-01T13:22:20.575Z</time>
      </trkpt>
      <trkpt lat="42.63326" lon="18.13896">
        <ele>231.858562</ele>
        <time>2022-06-01T13:22:26.647Z</time>
      </trkpt>
      <trkpt lat="42.63324" lon="18.13883">
        <ele>232.436819</ele>
        <time>2022-06-01T13:22:32.580Z</time>
      </trkpt>
      <trkpt lat="42.63323" lon="18.13869">
        <ele>233.039446</ele>
        <time>2022-06-01T13:22:39.619Z</time>
      </trkpt>
      <trkpt lat="42.63321" lon="18.13856">
        <ele>233.614904</ele>
        <time>2022-06-01T13:22:46.582Z</time>
      </trkpt>
      <trkpt lat="42.63318" lon="18.13843">
        <ele>234.217156</ele>
        <time>2022-06-01T13:22:53.587Z</time>
      </trkpt>
      <trkpt lat="42.63317" lon="18.13828">
        <ele>234.870826</ele>
        <time>2022-06-01T13:23:00.585Z</time>
      </trkpt>
      <trkpt lat="42.63321" lon="18.13817">
        <ele>235.433447</ele>
        <time>2022-06-01T13:23:09.582Z</time>
      </trkpt>
      <trkpt lat="42.63324" lon="18.13802">
        <ele>236.065302</ele>
        <time>2022-06-01T13:23:17.588Z</time>
      </trkpt>
      <trkpt lat="42.63325" lon="18.1379">
        <ele>236.610163</ele>
        <time>2022-06-01T13:23:22.571Z</time>
      </trkpt>
      <trkpt lat="42.63324" lon="18.13777">
        <ele>237.178025</ele>
        <time>2022-06-01T13:23:28.584Z</time>
      </trkpt>
      <trkpt lat="42.63326" lon="18.13765">
        <ele>237.707294</ele>
        <time>2022-06-01T13:23:33.613Z</time>
      </trkpt>
      <trkpt lat="42.6333" lon="18.13752">
        <ele>238.306425</ele>
        <time>2022-06-01T13:23:42.538Z</time>
      </trkpt>
      <trkpt lat="42.63335" lon="18.13741">
        <ele>238.885838</ele>
        <time>2022-06-01T13:23:48.571Z</time>
      </trkpt>
      <trkpt lat="42.63339" lon="18.1373">
        <ele>239.42566</ele>
        <time>2022-06-01T13:23:55.550Z</time>
      </trkpt>
      <trkpt lat="42.63344" lon="18.13719">
        <ele>239.971125</ele>
        <time>2022-06-01T13:24:01.557Z</time>
      </trkpt>
      <trkpt lat="42.63349" lon="18.13706">
        <ele>240.610158</ele>
        <time>2022-06-01T13:24:08.585Z</time>
      </trkpt>
      <trkpt lat="42.63351" lon="18.13692">
        <ele>240.557513</ele>
        <time>2022-06-01T13:24:16.573Z</time>
      </trkpt>
      <trkpt lat="42.63364" lon="18.13674">
        <ele>240.280739</ele>
        <time>2022-06-01T13:25:02.592Z</time>
      </trkpt>
      <trkpt lat="42.63375" lon="18.13663">
        <ele>240.089635</ele>
        <time>2022-06-01T13:25:05.623Z</time>
      </trkpt>
      <trkpt lat="42.63382" lon="18.13653">
        <ele>239.937715</ele>
        <time>2022-06-01T13:25:07.582Z</time>
      </trkpt>
      <trkpt lat="42.6339" lon="18.13642">
        <ele>239.77269</ele>
        <time>2022-06-01T13:25:09.579Z</time>
      </trkpt>
      <trkpt lat="42.63398" lon="18.1363">
        <ele>239.601423</ele>
        <time>2022-06-01T13:25:11.564Z</time>
      </trkpt>
      <trkpt lat="42.63406" lon="18.1362">
        <ele>239.437364</ele>
        <time>2022-06-01T13:25:13.578Z</time>
      </trkpt>
      <trkpt lat="42.63414" lon="18.1361">
        <ele>239.286558</ele>
        <time>2022-06-01T13:25:15.556Z</time>
      </trkpt>
      <trkpt lat="42.63422" lon="18.136">
        <ele>239.131378</ele>
        <time>2022-06-01T13:25:17.555Z</time>
      </trkpt>
      <trkpt lat="42.6343" lon="18.13591">
        <ele>238.973471</ele>
        <time>2022-06-01T13:25:19.594Z</time>
      </trkpt>
      <trkpt lat="42.6344" lon="18.13584">
        <ele>238.822358</ele>
        <time>2022-06-01T13:25:21.586Z</time>
      </trkpt>
      <trkpt lat="42.63448" lon="18.13577">
        <ele>238.681934</ele>
        <time>2022-06-01T13:25:23.577Z</time>
      </trkpt>
      <trkpt lat="42.63459" lon="18.13569">
        <ele>238.502012</ele>
        <time>2022-06-01T13:25:26.568Z</time>
      </trkpt>
      <trkpt lat="42.63467" lon="18.13562">
        <ele>238.359679</ele>
        <time>2022-06-01T13:25:28.580Z</time>
      </trkpt>
      <trkpt lat="42.63476" lon="18.13555">
        <ele>238.210845</ele>
        <time>2022-06-01T13:25:30.565Z</time>
      </trkpt>
      <trkpt lat="42.63485" lon="18.13546">
        <ele>237.984534</ele>
        <time>2022-06-01T13:25:32.576Z</time>
      </trkpt>
      <trkpt lat="42.63494" lon="18.13537">
        <ele>237.445297</ele>
        <time>2022-06-01T13:25:34.555Z</time>
      </trkpt>
      <trkpt lat="42.63505" lon="18.13527">
        <ele>236.881798</ele>
        <time>2022-06-01T13:25:36.579Z</time>
      </trkpt>
      <trkpt lat="42.63516" lon="18.13518">
        <ele>236.282113</ele>
        <time>2022-06-01T13:25:38.586Z</time>
      </trkpt>
      <trkpt lat="42.63527" lon="18.13508">
        <ele>235.701602</ele>
        <time>2022-06-01T13:25:40.577Z</time>
      </trkpt>
      <trkpt lat="42.63535" lon="18.13496">
        <ele>235.141152</ele>
        <time>2022-06-01T13:25:42.594Z</time>
      </trkpt>
      <trkpt lat="42.63547" lon="18.13483">
        <ele>234.454569</ele>
        <time>2022-06-01T13:25:44.625Z</time>
      </trkpt>
      <trkpt lat="42.63553" lon="18.13473">
        <ele>234.032193</ele>
        <time>2022-06-01T13:25:45.599Z</time>
      </trkpt>
      <trkpt lat="42.63568" lon="18.13459">
        <ele>233.221002</ele>
        <time>2022-06-01T13:25:47.603Z</time>
      </trkpt>
      <trkpt lat="42.63583" lon="18.13447">
        <ele>232.425338</ele>
        <time>2022-06-01T13:25:49.601Z</time>
      </trkpt>
      <trkpt lat="42.63597" lon="18.13436">
        <ele>231.671022</ele>
        <time>2022-06-01T13:25:51.595Z</time>
      </trkpt>
      <trkpt lat="42.63611" lon="18.13426">
        <ele>230.996486</ele>
        <time>2022-06-01T13:25:53.586Z</time>
      </trkpt>
      <trkpt lat="42.63623" lon="18.13416">
        <ele>230.344289</ele>
        <time>2022-06-01T13:25:55.556Z</time>
      </trkpt>
      <trkpt lat="42.63637" lon="18.13406">
        <ele>229.306402</ele>
        <time>2022-06-01T13:25:57.555Z</time>
      </trkpt>
      <trkpt lat="42.63652" lon="18.13397">
        <ele>227.721887</ele>
        <time>2022-06-01T13:25:59.567Z</time>
      </trkpt>
      <trkpt lat="42.63666" lon="18.13386">
        <ele>226.175122</ele>
        <time>2022-06-01T13:26:01.618Z</time>
      </trkpt>
      <trkpt lat="42.63679" lon="18.13374">
        <ele>224.673308</ele>
        <time>2022-06-01T13:26:03.579Z</time>
      </trkpt>
      <trkpt lat="42.6369" lon="18.13362">
        <ele>223.340193</ele>
        <time>2022-06-01T13:26:05.587Z</time>
      </trkpt>
      <trkpt lat="42.63701" lon="18.13346">
        <ele>221.75893</ele>
        <time>2022-06-01T13:26:07.574Z</time>
      </trkpt>
      <trkpt lat="42.63711" lon="18.13327">
        <ele>220.144457</ele>
        <time>2022-06-01T13:26:09.575Z</time>
      </trkpt>
      <trkpt lat="42.63721" lon="18.1331">
        <ele>218.59061</ele>
        <time>2022-06-01T13:26:11.577Z</time>
      </trkpt>
      <trkpt lat="42.63732" lon="18.13294">
        <ele>217.096178</ele>
        <time>2022-06-01T13:26:13.586Z</time>
      </trkpt>
      <trkpt lat="42.63742" lon="18.1328">
        <ele>215.688504</ele>
        <time>2022-06-01T13:26:15.583Z</time>
      </trkpt>
      <trkpt lat="42.63749" lon="18.13266">
        <ele>214.487857</ele>
        <time>2022-06-01T13:26:17.577Z</time>
      </trkpt>
      <trkpt lat="42.63753" lon="18.13249">
        <ele>213.213694</ele>
        <time>2022-06-01T13:26:19.593Z</time>
      </trkpt>
      <trkpt lat="42.63754" lon="18.13231">
        <ele>211.94065</ele>
        <time>2022-06-01T13:26:21.580Z</time>
      </trkpt>
      <trkpt lat="42.63756" lon="18.13214">
        <ele>210.766652</ele>
        <time>2022-06-01T13:26:23.637Z</time>
      </trkpt>
      <trkpt lat="42.63757" lon="18.132">
        <ele>209.819988</ele>
        <time>2022-06-01T13:26:25.578Z</time>
      </trkpt>
      <trkpt lat="42.63759" lon="18.13188">
        <ele>208.941604</ele>
        <time>2022-06-01T13:26:27.581Z</time>
      </trkpt>
      <trkpt lat="42.63762" lon="18.13175">
        <ele>208.00507</ele>
        <time>2022-06-01T13:26:29.568Z</time>
      </trkpt>
      <trkpt lat="42.63767" lon="18.13162">
        <ele>206.99543</ele>
        <time>2022-06-01T13:26:31.585Z</time>
      </trkpt>
      <trkpt lat="42.63772" lon="18.13149">
        <ele>205.969773</ele>
        <time>2022-06-01T13:26:33.580Z</time>
      </trkpt>
      <trkpt lat="42.63779" lon="18.13135">
        <ele>204.804824</ele>
        <time>2022-06-01T13:26:35.565Z</time>
      </trkpt>
      <trkpt lat="42.63788" lon="18.13121">
        <ele>203.512995</ele>
        <time>2022-06-01T13:26:37.582Z</time>
      </trkpt>
      <trkpt lat="42.63797" lon="18.13108">
        <ele>202.283339</ele>
        <time>2022-06-01T13:26:39.563Z</time>
      </trkpt>
      <trkpt lat="42.63805" lon="18.13094">
        <ele>201.008861</ele>
        <time>2022-06-01T13:26:41.547Z</time>
      </trkpt>
      <trkpt lat="42.63812" lon="18.13074">
        <ele>199.443547</ele>
        <time>2022-06-01T13:26:43.587Z</time>
      </trkpt>
      <trkpt lat="42.63818" lon="18.13052">
        <ele>197.848758</ele>
        <time>2022-06-01T13:26:45.580Z</time>
      </trkpt>
      <trkpt lat="42.63824" lon="18.13032">
        <ele>196.323973</ele>
        <time>2022-06-01T13:26:47.584Z</time>
      </trkpt>
      <trkpt lat="42.63831" lon="18.13012">
        <ele>194.792947</ele>
        <time>2022-06-01T13:26:49.587Z</time>
      </trkpt>
      <trkpt lat="42.63838" lon="18.12996">
        <ele>193.34295</ele>
        <time>2022-06-01T13:26:51.580Z</time>
      </trkpt>
      <trkpt lat="42.63847" lon="18.1298">
        <ele>191.902873</ele>
        <time>2022-06-01T13:26:53.589Z</time>
      </trkpt>
      <trkpt lat="42.63857" lon="18.12967">
        <ele>190.504604</ele>
        <time>2022-06-01T13:26:55.566Z</time>
      </trkpt>
      <trkpt lat="42.63869" lon="18.12955">
        <ele>189.060954</ele>
        <time>2022-06-01T13:26:57.617Z</time>
      </trkpt>
      <trkpt lat="42.63882" lon="18.12943">
        <ele>187.425175</ele>
        <time>2022-06-01T13:26:59.588Z</time>
      </trkpt>
      <trkpt lat="42.6389" lon="18.12937">
        <ele>186.524044</ele>
        <time>2022-06-01T13:27:00.583Z</time>
      </trkpt>
      <trkpt lat="42.63898" lon="18.1293">
        <ele>185.609883</ele>
        <time>2022-06-01T13:27:01.605Z</time>
      </trkpt>
      <trkpt lat="42.63912" lon="18.12914">
        <ele>183.84894</ele>
        <time>2022-06-01T13:27:03.611Z</time>
      </trkpt>
      <trkpt lat="42.63917" lon="18.12904">
        <ele>182.931868</ele>
        <time>2022-06-01T13:27:04.604Z</time>
      </trkpt>
      <trkpt lat="42.6392" lon="18.12892">
        <ele>182.023083</ele>
        <time>2022-06-01T13:27:05.606Z</time>
      </trkpt>
      <trkpt lat="42.63926" lon="18.1287">
        <ele>180.263038</ele>
        <time>2022-06-01T13:27:07.557Z</time>
      </trkpt>
      <trkpt lat="42.63931" lon="18.12859">
        <ele>179.365075</ele>
        <time>2022-06-01T13:27:08.561Z</time>
      </trkpt>
      <trkpt lat="42.63936" lon="18.12849">
        <ele>178.456362</ele>
        <time>2022-06-01T13:27:09.570Z</time>
      </trkpt>
      <trkpt lat="42.63942" lon="18.12839">
        <ele>177.48713</ele>
        <time>2022-06-01T13:27:10.569Z</time>
      </trkpt>
      <trkpt lat="42.63948" lon="18.1283">
        <ele>176.406872</ele>
        <time>2022-06-01T13:27:11.585Z</time>
      </trkpt>
      <trkpt lat="42.63954" lon="18.1282">
        <ele>175.316175</ele>
        <time>2022-06-01T13:27:12.591Z</time>
      </trkpt>
      <trkpt lat="42.6396" lon="18.1281">
        <ele>174.24772</ele>
        <time>2022-06-01T13:27:13.620Z</time>
      </trkpt>
      <trkpt lat="42.63966" lon="18.128">
        <ele>173.152359</ele>
        <time>2022-06-01T13:27:14.589Z</time>
      </trkpt>
      <trkpt lat="42.63972" lon="18.12789">
        <ele>171.995645</ele>
        <time>2022-06-01T13:27:15.589Z</time>
      </trkpt>
      <trkpt lat="42.63978" lon="18.12778">
        <ele>170.831516</ele>
        <time>2022-06-01T13:27:16.578Z</time>
      </trkpt>
      <trkpt lat="42.63985" lon="18.12766">
        <ele>169.591939</ele>
        <time>2022-06-01T13:27:17.586Z</time>
      </trkpt>
      <trkpt lat="42.63992" lon="18.12755">
        <ele>168.350696</ele>
        <time>2022-06-01T13:27:18.583Z</time>
      </trkpt>
      <trkpt lat="42.63999" lon="18.12745">
        <ele>167.133665</ele>
        <time>2022-06-01T13:27:19.570Z</time>
      </trkpt>
      <trkpt lat="42.64006" lon="18.12734">
        <ele>165.917972</ele>
        <time>2022-06-01T13:27:20.630Z</time>
      </trkpt>
      <trkpt lat="42.64013" lon="18.12723">
        <ele>164.718301</ele>
        <time>2022-06-01T13:27:21.599Z</time>
      </trkpt>
      <trkpt lat="42.64019" lon="18.12712">
        <ele>163.574544</ele>
        <time>2022-06-01T13:27:22.598Z</time>
      </trkpt>
      <trkpt lat="42.64025" lon="18.12702">
        <ele>162.464909</ele>
        <time>2022-06-01T13:27:23.592Z</time>
      </trkpt>
      <trkpt lat="42.64031" lon="18.12692">
        <ele>161.416375</ele>
        <time>2022-06-01T13:27:24.652Z</time>
      </trkpt>
      <trkpt lat="42.6404" lon="18.12676">
        <ele>159.640404</ele>
        <time>2022-06-01T13:27:26.577Z</time>
      </trkpt>
      <trkpt lat="42.64048" lon="18.12665">
        <ele>158.342034</ele>
        <time>2022-06-01T13:27:28.583Z</time>
      </trkpt>
      <trkpt lat="42.64052" lon="18.1265">
        <ele>156.964129</ele>
        <time>2022-06-01T13:27:30.555Z</time>
      </trkpt>
      <trkpt lat="42.64052" lon="18.12635">
        <ele>155.372917</ele>
        <time>2022-06-01T13:27:32.570Z</time>
      </trkpt>
      <trkpt lat="42.64051" lon="18.12622">
        <ele>154.040994</ele>
        <time>2022-06-01T13:27:34.575Z</time>
      </trkpt>
      <trkpt lat="42.64049" lon="18.12608">
        <ele>152.488104</ele>
        <time>2022-06-01T13:27:36.584Z</time>
      </trkpt>
      <trkpt lat="42.64049" lon="18.12591">
        <ele>150.760469</ele>
        <time>2022-06-01T13:27:38.575Z</time>
      </trkpt>
      <trkpt lat="42.64052" lon="18.12574">
        <ele>148.962325</ele>
        <time>2022-06-01T13:27:41.616Z</time>
      </trkpt>
      <trkpt lat="42.64052" lon="18.1256">
        <ele>147.423297</ele>
        <time>2022-06-01T13:27:43.575Z</time>
      </trkpt>
      <trkpt lat="42.64053" lon="18.12542">
        <ele>145.573132</ele>
        <time>2022-06-01T13:27:45.569Z</time>
      </trkpt>
      <trkpt lat="42.64055" lon="18.12522">
        <ele>143.450626</ele>
        <time>2022-06-01T13:27:47.559Z</time>
      </trkpt>
      <trkpt lat="42.64057" lon="18.12502">
        <ele>141.274385</ele>
        <time>2022-06-01T13:27:49.561Z</time>
      </trkpt>
      <trkpt lat="42.6406" lon="18.12482">
        <ele>139.150138</ele>
        <time>2022-06-01T13:27:51.555Z</time>
      </trkpt>
      <trkpt lat="42.64062" lon="18.12463">
        <ele>137.085802</ele>
        <time>2022-06-01T13:27:53.580Z</time>
      </trkpt>
      <trkpt lat="42.64064" lon="18.12442">
        <ele>134.832445</ele>
        <time>2022-06-01T13:27:55.581Z</time>
      </trkpt>
      <trkpt lat="42.64068" lon="18.1242">
        <ele>132.565882</ele>
        <time>2022-06-01T13:27:57.563Z</time>
      </trkpt>
      <trkpt lat="42.64071" lon="18.12403">
        <ele>130.911983</ele>
        <time>2022-06-01T13:27:59.571Z</time>
      </trkpt>
      <trkpt lat="42.64074" lon="18.12387">
        <ele>129.779172</ele>
        <time>2022-06-01T13:28:01.566Z</time>
      </trkpt>
      <trkpt lat="42.64077" lon="18.12374">
        <ele>128.796594</ele>
        <time>2022-06-01T13:28:03.588Z</time>
      </trkpt>
      <trkpt lat="42.64079" lon="18.12362">
        <ele>127.904239</ele>
        <time>2022-06-01T13:28:05.602Z</time>
      </trkpt>
      <trkpt lat="42.64082" lon="18.12347">
        <ele>126.887471</ele>
        <time>2022-06-01T13:28:07.560Z</time>
      </trkpt>
      <trkpt lat="42.64084" lon="18.12331">
        <ele>125.728028</ele>
        <time>2022-06-01T13:28:09.615Z</time>
      </trkpt>
      <trkpt lat="42.64086" lon="18.12316">
        <ele>124.617972</ele>
        <time>2022-06-01T13:28:11.567Z</time>
      </trkpt>
      <trkpt lat="42.64089" lon="18.12297">
        <ele>123.275969</ele>
        <time>2022-06-01T13:28:13.595Z</time>
      </trkpt>
      <trkpt lat="42.64093" lon="18.12279">
        <ele>121.985802</ele>
        <time>2022-06-01T13:28:15.586Z</time>
      </trkpt>
      <trkpt lat="42.64096" lon="18.12263">
        <ele>120.775607</ele>
        <time>2022-06-01T13:28:17.564Z</time>
      </trkpt>
      <trkpt lat="42.64099" lon="18.12248">
        <ele>119.687133</ele>
        <time>2022-06-01T13:28:19.568Z</time>
      </trkpt>
      <trkpt lat="42.64103" lon="18.12235">
        <ele>118.720972</ele>
        <time>2022-06-01T13:28:21.585Z</time>
      </trkpt>
      <trkpt lat="42.64106" lon="18.1222">
        <ele>117.614299</ele>
        <time>2022-06-01T13:28:23.640Z</time>
      </trkpt>
      <trkpt lat="42.64109" lon="18.12204">
        <ele>116.448309</ele>
        <time>2022-06-01T13:28:25.582Z</time>
      </trkpt>
      <trkpt lat="42.64113" lon="18.12189">
        <ele>115.330158</ele>
        <time>2022-06-01T13:28:27.587Z</time>
      </trkpt>
      <trkpt lat="42.64116" lon="18.12176">
        <ele>114.375777</ele>
        <time>2022-06-01T13:28:29.550Z</time>
      </trkpt>
      <trkpt lat="42.64121" lon="18.12161">
        <ele>114.709331</ele>
        <time>2022-06-01T13:28:32.574Z</time>
      </trkpt>
      <trkpt lat="42.64113" lon="18.12169">
        <ele>115.107208</ele>
        <time>2022-06-01T13:28:45.576Z</time>
      </trkpt>
      <trkpt lat="42.64109" lon="18.12182">
        <ele>115.566698</ele>
        <time>2022-06-01T13:28:50.690Z</time>
      </trkpt>
      <trkpt lat="42.64105" lon="18.12196">
        <ele>116.03289</ele>
        <time>2022-06-01T13:28:55.602Z</time>
      </trkpt>
      <trkpt lat="42.64101" lon="18.1221">
        <ele>116.489008</ele>
        <time>2022-06-01T13:29:01.596Z</time>
      </trkpt>
      <trkpt lat="42.64098" lon="18.12222">
        <ele>116.892404</ele>
        <time>2022-06-01T13:29:06.579Z</time>
      </trkpt>
      <trkpt lat="42.64093" lon="18.12235">
        <ele>117.361027</ele>
        <time>2022-06-01T13:29:11.569Z</time>
      </trkpt>
      <trkpt lat="42.64087" lon="18.12246">
        <ele>117.773129</ele>
        <time>2022-06-01T13:29:16.586Z</time>
      </trkpt>
      <trkpt lat="42.64084" lon="18.12258">
        <ele>118.161987</ele>
        <time>2022-06-01T13:29:21.556Z</time>
      </trkpt>
      <trkpt lat="42.64079" lon="18.12272">
        <ele>118.629223</ele>
        <time>2022-06-01T13:29:27.572Z</time>
      </trkpt>
      <trkpt lat="42.64075" lon="18.12286">
        <ele>119.105836</ele>
        <time>2022-06-01T13:29:31.598Z</time>
      </trkpt>
      <trkpt lat="42.6407" lon="18.12299">
        <ele>119.572777</ele>
        <time>2022-06-01T13:29:35.586Z</time>
      </trkpt>
      <trkpt lat="42.64067" lon="18.12315">
        <ele>120.070055</ele>
        <time>2022-06-01T13:29:39.585Z</time>
      </trkpt>
      <trkpt lat="42.64064" lon="18.12328">
        <ele>120.512853</ele>
        <time>2022-06-01T13:29:42.578Z</time>
      </trkpt>
      <trkpt lat="42.64061" lon="18.12344">
        <ele>121.026017</ele>
        <time>2022-06-01T13:29:45.562Z</time>
      </trkpt>
      <trkpt lat="42.64057" lon="18.12356">
        <ele>121.43629</ele>
        <time>2022-06-01T13:29:47.580Z</time>
      </trkpt>
      <trkpt lat="42.64052" lon="18.12369">
        <ele>121.865686</ele>
        <time>2022-06-01T13:29:49.594Z</time>
      </trkpt>
      <trkpt lat="42.64047" lon="18.12383">
        <ele>121.492583</ele>
        <time>2022-06-01T13:29:51.643Z</time>
      </trkpt>
      <trkpt lat="42.64041" lon="18.12398">
        <ele>121.097319</ele>
        <time>2022-06-01T13:29:53.586Z</time>
      </trkpt>
      <trkpt lat="42.64036" lon="18.12413">
        <ele>120.691272</ele>
        <time>2022-06-01T13:29:55.584Z</time>
      </trkpt>
      <trkpt lat="42.64031" lon="18.12429">
        <ele>120.282179</ele>
        <time>2022-06-01T13:29:57.572Z</time>
      </trkpt>
      <trkpt lat="42.64027" lon="18.12447">
        <ele>119.830411</ele>
        <time>2022-06-01T13:29:59.576Z</time>
      </trkpt>
      <trkpt lat="42.64023" lon="18.12466">
        <ele>119.361522</ele>
        <time>2022-06-01T13:30:01.595Z</time>
      </trkpt>
      <trkpt lat="42.64017" lon="18.12484">
        <ele>118.901685</ele>
        <time>2022-06-01T13:30:03.576Z</time>
      </trkpt>
      <trkpt lat="42.64012" lon="18.12501">
        <ele>118.465631</ele>
        <time>2022-06-01T13:30:05.581Z</time>
      </trkpt>
      <trkpt lat="42.64008" lon="18.12516">
        <ele>118.066654</ele>
        <time>2022-06-01T13:30:07.649Z</time>
      </trkpt>
      <trkpt lat="42.64004" lon="18.12533">
        <ele>117.644092</ele>
        <time>2022-06-01T13:30:09.594Z</time>
      </trkpt>
      <trkpt lat="42.63999" lon="18.1255">
        <ele>117.222693</ele>
        <time>2022-06-01T13:30:11.567Z</time>
      </trkpt>
      <trkpt lat="42.63995" lon="18.12565">
        <ele>116.838287</ele>
        <time>2022-06-01T13:30:13.637Z</time>
      </trkpt>
      <trkpt lat="42.63992" lon="18.12579">
        <ele>116.472166</ele>
        <time>2022-06-01T13:30:15.556Z</time>
      </trkpt>
      <trkpt lat="42.63988" lon="18.12592">
        <ele>116.145938</ele>
        <time>2022-06-01T13:30:17.601Z</time>
      </trkpt>
      <trkpt lat="42.63986" lon="18.12604">
        <ele>115.727172</ele>
        <time>2022-06-01T13:30:19.577Z</time>
      </trkpt>
      <trkpt lat="42.63975" lon="18.12605">
        <ele>115.163363</ele>
        <time>2022-06-01T13:30:24.601Z</time>
      </trkpt>
      <trkpt lat="42.63976" lon="18.12589">
        <ele>114.531297</ele>
        <time>2022-06-01T13:30:27.571Z</time>
      </trkpt>
      <trkpt lat="42.63979" lon="18.12569">
        <ele>113.739396</ele>
        <time>2022-06-01T13:30:30.588Z</time>
      </trkpt>
      <trkpt lat="42.63981" lon="18.12552">
        <ele>113.043738</ele>
        <time>2022-06-01T13:30:32.582Z</time>
      </trkpt>
      <trkpt lat="42.63983" lon="18.12534">
        <ele>112.324711</ele>
        <time>2022-06-01T13:30:34.599Z</time>
      </trkpt>
      <trkpt lat="42.63987" lon="18.12515">
        <ele>111.567261</ele>
        <time>2022-06-01T13:30:36.585Z</time>
      </trkpt>
      <trkpt lat="42.63991" lon="18.12497">
        <ele>110.835144</ele>
        <time>2022-06-01T13:30:38.577Z</time>
      </trkpt>
      <trkpt lat="42.63995" lon="18.12481">
        <ele>110.16297</ele>
        <time>2022-06-01T13:30:40.588Z</time>
      </trkpt>
      <trkpt lat="42.63999" lon="18.12464">
        <ele>109.456647</ele>
        <time>2022-06-01T13:30:42.577Z</time>
      </trkpt>
      <trkpt lat="42.64003" lon="18.12446">
        <ele>108.713102</ele>
        <time>2022-06-01T13:30:44.577Z</time>
      </trkpt>
      <trkpt lat="42.64006" lon="18.12427">
        <ele>107.940355</ele>
        <time>2022-06-01T13:30:46.572Z</time>
      </trkpt>
      <trkpt lat="42.6401" lon="18.12408">
        <ele>107.17526</ele>
        <time>2022-06-01T13:30:48.584Z</time>
      </trkpt>
      <trkpt lat="42.64013" lon="18.12389">
        <ele>106.412726</ele>
        <time>2022-06-01T13:30:50.595Z</time>
      </trkpt>
      <trkpt lat="42.64016" lon="18.1237">
        <ele>105.543518</ele>
        <time>2022-06-01T13:30:52.562Z</time>
      </trkpt>
      <trkpt lat="42.6402" lon="18.12349">
        <ele>104.610036</ele>
        <time>2022-06-01T13:30:54.618Z</time>
      </trkpt>
      <trkpt lat="42.64024" lon="18.12327">
        <ele>103.611764</ele>
        <time>2022-06-01T13:30:56.568Z</time>
      </trkpt>
      <trkpt lat="42.64029" lon="18.12306">
        <ele>102.641599</ele>
        <time>2022-06-01T13:30:58.586Z</time>
      </trkpt>
      <trkpt lat="42.64033" lon="18.12284">
        <ele>101.662879</ele>
        <time>2022-06-01T13:31:00.629Z</time>
      </trkpt>
      <trkpt lat="42.64037" lon="18.12261">
        <ele>100.650478</ele>
        <time>2022-06-01T13:31:02.577Z</time>
      </trkpt>
      <trkpt lat="42.64041" lon="18.1224">
        <ele>99.685912</ele>
        <time>2022-06-01T13:31:04.572Z</time>
      </trkpt>
      <trkpt lat="42.64045" lon="18.1222">
        <ele>98.810354</ele>
        <time>2022-06-01T13:31:06.613Z</time>
      </trkpt>
      <trkpt lat="42.64048" lon="18.12202">
        <ele>97.967238</ele>
        <time>2022-06-01T13:31:08.566Z</time>
      </trkpt>
      <trkpt lat="42.64052" lon="18.12182">
        <ele>97.10579</ele>
        <time>2022-06-01T13:31:10.547Z</time>
      </trkpt>
      <trkpt lat="42.64055" lon="18.12162">
        <ele>96.172313</ele>
        <time>2022-06-01T13:31:12.577Z</time>
      </trkpt>
      <trkpt lat="42.64058" lon="18.12145">
        <ele>95.369996</ele>
        <time>2022-06-01T13:31:14.561Z</time>
      </trkpt>
      <trkpt lat="42.6406" lon="18.12129">
        <ele>94.575149</ele>
        <time>2022-06-01T13:31:16.575Z</time>
      </trkpt>
      <trkpt lat="42.64063" lon="18.12113">
        <ele>93.72132</ele>
        <time>2022-06-01T13:31:18.575Z</time>
      </trkpt>
      <trkpt lat="42.64067" lon="18.12097">
        <ele>92.87829</ele>
        <time>2022-06-01T13:31:20.570Z</time>
      </trkpt>
      <trkpt lat="42.64072" lon="18.12083">
        <ele>92.068136</ele>
        <time>2022-06-01T13:31:22.571Z</time>
      </trkpt>
      <trkpt lat="42.64077" lon="18.12066">
        <ele>91.166148</ele>
        <time>2022-06-01T13:31:24.585Z</time>
      </trkpt>
      <trkpt lat="42.64083" lon="18.12051">
        <ele>90.293569</ele>
        <time>2022-06-01T13:31:26.571Z</time>
      </trkpt>
      <trkpt lat="42.6409" lon="18.12038">
        <ele>89.500259</ele>
        <time>2022-06-01T13:31:28.573Z</time>
      </trkpt>
      <trkpt lat="42.64097" lon="18.12023">
        <ele>88.567395</ele>
        <time>2022-06-01T13:31:30.574Z</time>
      </trkpt>
      <trkpt lat="42.64105" lon="18.12007">
        <ele>87.61802</ele>
        <time>2022-06-01T13:31:32.590Z</time>
      </trkpt>
      <trkpt lat="42.64112" lon="18.1199">
        <ele>86.582107</ele>
        <time>2022-06-01T13:31:34.580Z</time>
      </trkpt>
      <trkpt lat="42.64119" lon="18.11969">
        <ele>85.451319</ele>
        <time>2022-06-01T13:31:36.623Z</time>
      </trkpt>
      <trkpt lat="42.64126" lon="18.11949">
        <ele>84.309048</ele>
        <time>2022-06-01T13:31:38.584Z</time>
      </trkpt>
      <trkpt lat="42.64132" lon="18.11928">
        <ele>83.240528</ele>
        <time>2022-06-01T13:31:40.614Z</time>
      </trkpt>
      <trkpt lat="42.64138" lon="18.11909">
        <ele>82.542406</ele>
        <time>2022-06-01T13:31:42.608Z</time>
      </trkpt>
      <trkpt lat="42.64143" lon="18.11888">
        <ele>81.851343</ele>
        <time>2022-06-01T13:31:44.565Z</time>
      </trkpt>
      <trkpt lat="42.64148" lon="18.11867">
        <ele>81.123622</ele>
        <time>2022-06-01T13:31:46.567Z</time>
      </trkpt>
      <trkpt lat="42.64152" lon="18.11846">
        <ele>80.408665</ele>
        <time>2022-06-01T13:31:48.582Z</time>
      </trkpt>
      <trkpt lat="42.64155" lon="18.11827">
        <ele>79.748843</ele>
        <time>2022-06-01T13:31:50.636Z</time>
      </trkpt>
      <trkpt lat="42.64158" lon="18.11807">
        <ele>79.085809</ele>
        <time>2022-06-01T13:31:52.571Z</time>
      </trkpt>
      <trkpt lat="42.6416" lon="18.11789">
        <ele>78.512006</ele>
        <time>2022-06-01T13:31:54.574Z</time>
      </trkpt>
      <trkpt lat="42.64161" lon="18.1177">
        <ele>77.873721</ele>
        <time>2022-06-01T13:31:56.587Z</time>
      </trkpt>
      <trkpt lat="42.64163" lon="18.11751">
        <ele>77.247426</ele>
        <time>2022-06-01T13:31:58.569Z</time>
      </trkpt>
      <trkpt lat="42.64166" lon="18.11734">
        <ele>76.680778</ele>
        <time>2022-06-01T13:32:00.571Z</time>
      </trkpt>
      <trkpt lat="42.6417" lon="18.11719">
        <ele>76.145696</ele>
        <time>2022-06-01T13:32:02.616Z</time>
      </trkpt>
      <trkpt lat="42.64174" lon="18.11701">
        <ele>75.542829</ele>
        <time>2022-06-01T13:32:04.579Z</time>
      </trkpt>
      <trkpt lat="42.6418" lon="18.11683">
        <ele>74.728153</ele>
        <time>2022-06-01T13:32:06.569Z</time>
      </trkpt>
      <trkpt lat="42.64185" lon="18.11663">
        <ele>73.834183</ele>
        <time>2022-06-01T13:32:08.599Z</time>
      </trkpt>
      <trkpt lat="42.64189" lon="18.11644">
        <ele>72.933393</ele>
        <time>2022-06-01T13:32:10.642Z</time>
      </trkpt>
      <trkpt lat="42.64191" lon="18.11623">
        <ele>72.041583</ele>
        <time>2022-06-01T13:32:12.564Z</time>
      </trkpt>
      <trkpt lat="42.6419" lon="18.11604">
        <ele>71.166138</ele>
        <time>2022-06-01T13:32:14.587Z</time>
      </trkpt>
      <trkpt lat="42.64187" lon="18.11584">
        <ele>70.305795</ele>
        <time>2022-06-01T13:32:16.573Z</time>
      </trkpt>
      <trkpt lat="42.64184" lon="18.11564">
        <ele>69.426023</ele>
        <time>2022-06-01T13:32:18.586Z</time>
      </trkpt>
      <trkpt lat="42.64182" lon="18.11546">
        <ele>68.614795</ele>
        <time>2022-06-01T13:32:20.571Z</time>
      </trkpt>
      <trkpt lat="42.64179" lon="18.11529">
        <ele>67.832952</ele>
        <time>2022-06-01T13:32:22.565Z</time>
      </trkpt>
      <trkpt lat="42.64178" lon="18.11511">
        <ele>67.065451</ele>
        <time>2022-06-01T13:32:24.580Z</time>
      </trkpt>
      <trkpt lat="42.6418" lon="18.11496">
        <ele>66.404202</ele>
        <time>2022-06-01T13:32:26.613Z</time>
      </trkpt>
      <trkpt lat="42.64182" lon="18.1148">
        <ele>65.69625</ele>
        <time>2022-06-01T13:32:28.566Z</time>
      </trkpt>
      <trkpt lat="42.64183" lon="18.11464">
        <ele>64.97963</ele>
        <time>2022-06-01T13:32:30.583Z</time>
      </trkpt>
      <trkpt lat="42.64185" lon="18.11451">
        <ele>64.575974</ele>
        <time>2022-06-01T13:32:32.574Z</time>
      </trkpt>
      <trkpt lat="42.64186" lon="18.11434">
        <ele>64.424946</ele>
        <time>2022-06-01T13:32:35.567Z</time>
      </trkpt>
      <trkpt lat="42.64187" lon="18.1142">
        <ele>64.300809</ele>
        <time>2022-06-01T13:32:38.628Z</time>
      </trkpt>
      <trkpt lat="42.64187" lon="18.11402">
        <ele>64.140108</ele>
        <time>2022-06-01T13:32:41.571Z</time>
      </trkpt>
      <trkpt lat="42.64188" lon="18.11389">
        <ele>64.019598</ele>
        <time>2022-06-01T13:32:43.575Z</time>
      </trkpt>
      <trkpt lat="42.64189" lon="18.11374">
        <ele>63.891282</ele>
        <time>2022-06-01T13:32:45.580Z</time>
      </trkpt>
      <trkpt lat="42.64191" lon="18.1136">
        <ele>63.758088</ele>
        <time>2022-06-01T13:32:47.562Z</time>
      </trkpt>
      <trkpt lat="42.64192" lon="18.11345">
        <ele>63.630513</ele>
        <time>2022-06-01T13:32:49.570Z</time>
      </trkpt>
      <trkpt lat="42.64194" lon="18.11328">
        <ele>63.477026</ele>
        <time>2022-06-01T13:32:52.595Z</time>
      </trkpt>
      <trkpt lat="42.64197" lon="18.11316">
        <ele>63.359802</ele>
        <time>2022-06-01T13:32:55.590Z</time>
      </trkpt>
      <trkpt lat="42.64203" lon="18.11306">
        <ele>63.248357</ele>
        <time>2022-06-01T13:32:58.585Z</time>
      </trkpt>
      <trkpt lat="42.64212" lon="18.113">
        <ele>63.125486</ele>
        <time>2022-06-01T13:33:02.575Z</time>
      </trkpt>
      <trkpt lat="42.6422" lon="18.11293">
        <ele>63.005359</ele>
        <time>2022-06-01T13:33:06.583Z</time>
      </trkpt>
      <trkpt lat="42.64228" lon="18.11286">
        <ele>62.888002</ele>
        <time>2022-06-01T13:33:11.573Z</time>
      </trkpt>
      <trkpt lat="42.64236" lon="18.11275">
        <ele>62.76028</ele>
        <time>2022-06-01T13:33:16.545Z</time>
      </trkpt>
      <trkpt lat="42.6424" lon="18.11262">
        <ele>62.624993</ele>
        <time>2022-06-01T13:33:21.557Z</time>
      </trkpt>
      <trkpt lat="42.64239" lon="18.11248">
        <ele>62.501367</ele>
        <time>2022-06-01T13:33:27.554Z</time>
      </trkpt>
      <trkpt lat="42.64237" lon="18.11235">
        <ele>62.559232</ele>
        <time>2022-06-01T13:33:32.548Z</time>
      </trkpt>
      <trkpt lat="42.64234" lon="18.11223">
        <ele>62.783513</ele>
        <time>2022-06-01T13:33:36.550Z</time>
      </trkpt>
      <trkpt lat="42.64231" lon="18.11209">
        <ele>63.036115</ele>
        <time>2022-06-01T13:33:40.552Z</time>
      </trkpt>
      <trkpt lat="42.64228" lon="18.11197">
        <ele>63.2495</ele>
        <time>2022-06-01T13:33:44.548Z</time>
      </trkpt>
      <trkpt lat="42.64228" lon="18.11184">
        <ele>63.484392</ele>
        <time>2022-06-01T13:33:50.545Z</time>
      </trkpt>
      <trkpt lat="42.64229" lon="18.11171">
        <ele>63.714262</ele>
        <time>2022-06-01T13:33:56.547Z</time>
      </trkpt>
      <trkpt lat="42.64231" lon="18.11157">
        <ele>63.959981</ele>
        <time>2022-06-01T13:34:01.546Z</time>
      </trkpt>
      <trkpt lat="42.64233" lon="18.11144">
        <ele>64.188979</ele>
        <time>2022-06-01T13:34:05.551Z</time>
      </trkpt>
      <trkpt lat="42.64233" lon="18.11129">
        <ele>64.440467</ele>
        <time>2022-06-01T13:34:10.562Z</time>
      </trkpt>
      <trkpt lat="42.64233" lon="18.11114">
        <ele>64.695457</ele>
        <time>2022-06-01T13:34:17.553Z</time>
      </trkpt>
      <trkpt lat="42.64234" lon="18.11101">
        <ele>64.92905</ele>
        <time>2022-06-01T13:34:25.543Z</time>
      </trkpt>
      <trkpt lat="42.64235" lon="18.11087">
        <ele>65.179245</ele>
        <time>2022-06-01T13:34:32.549Z</time>
      </trkpt>
      <trkpt lat="42.64237" lon="18.11074">
        <ele>65.403345</ele>
        <time>2022-06-01T13:34:38.547Z</time>
      </trkpt>
      <trkpt lat="42.64239" lon="18.11061">
        <ele>65.627942</ele>
        <time>2022-06-01T13:34:45.554Z</time>
      </trkpt>
      <trkpt lat="42.64241" lon="18.11048">
        <ele>65.855232</ele>
        <time>2022-06-01T13:34:51.544Z</time>
      </trkpt>
      <trkpt lat="42.64243" lon="18.11034">
        <ele>66.105712</ele>
        <time>2022-06-01T13:34:58.548Z</time>
      </trkpt>
      <trkpt lat="42.64245" lon="18.1102">
        <ele>66.360363</ele>
        <time>2022-06-01T13:35:02.549Z</time>
      </trkpt>
      <trkpt lat="42.64247" lon="18.11006">
        <ele>66.602996</ele>
        <time>2022-06-01T13:35:05.545Z</time>
      </trkpt>
      <trkpt lat="42.64251" lon="18.10992">
        <ele>67.352212</ele>
        <time>2022-06-01T13:35:08.543Z</time>
      </trkpt>
      <trkpt lat="42.64255" lon="18.10976">
        <ele>68.390826</ele>
        <time>2022-06-01T13:35:11.552Z</time>
      </trkpt>
      <trkpt lat="42.64259" lon="18.10961">
        <ele>69.39496</ele>
        <time>2022-06-01T13:35:14.538Z</time>
      </trkpt>
      <trkpt lat="42.64265" lon="18.10949">
        <ele>70.316309</ele>
        <time>2022-06-01T13:35:17.539Z</time>
      </trkpt>
      <trkpt lat="42.64271" lon="18.10936">
        <ele>71.251468</ele>
        <time>2022-06-01T13:35:20.553Z</time>
      </trkpt>
      <trkpt lat="42.64277" lon="18.10924">
        <ele>72.145741</ele>
        <time>2022-06-01T13:35:23.543Z</time>
      </trkpt>
      <trkpt lat="42.64283" lon="18.10912">
        <ele>73.021888</ele>
        <time>2022-06-01T13:35:26.544Z</time>
      </trkpt>
      <trkpt lat="42.64289" lon="18.109">
        <ele>73.951857</ele>
        <time>2022-06-01T13:35:29.548Z</time>
      </trkpt>
      <trkpt lat="42.64296" lon="18.10885">
        <ele>75.052058</ele>
        <time>2022-06-01T13:35:32.540Z</time>
      </trkpt>
      <trkpt lat="42.64302" lon="18.10874">
        <ele>75.91184</ele>
        <time>2022-06-01T13:35:34.546Z</time>
      </trkpt>
      <trkpt lat="42.64308" lon="18.1086">
        <ele>76.88648</ele>
        <time>2022-06-01T13:35:36.547Z</time>
      </trkpt>
      <trkpt lat="42.64313" lon="18.10846">
        <ele>77.880939</ele>
        <time>2022-06-01T13:35:38.548Z</time>
      </trkpt>
      <trkpt lat="42.64313" lon="18.10831">
        <ele>78.828864</ele>
        <time>2022-06-01T13:35:40.541Z</time>
      </trkpt>
      <trkpt lat="42.64309" lon="18.10815">
        <ele>79.893997</ele>
        <time>2022-06-01T13:35:42.550Z</time>
      </trkpt>
      <trkpt lat="42.64299" lon="18.10804">
        <ele>80.930594</ele>
        <time>2022-06-01T13:35:44.541Z</time>
      </trkpt>
      <trkpt lat="42.64285" lon="18.10793">
        <ele>81.287765</ele>
        <time>2022-06-01T13:35:46.548Z</time>
      </trkpt>
      <trkpt lat="42.64274" lon="18.10784">
        <ele>79.67376</ele>
        <time>2022-06-01T13:35:48.549Z</time>
      </trkpt>
      <trkpt lat="42.64265" lon="18.10778">
        <ele>78.456026</ele>
        <time>2022-06-01T13:35:50.560Z</time>
      </trkpt>
      <trkpt lat="42.64256" lon="18.10771">
        <ele>77.227972</ele>
        <time>2022-06-01T13:35:54.541Z</time>
      </trkpt>
      <trkpt lat="42.64247" lon="18.10765">
        <ele>75.971651</ele>
        <time>2022-06-01T13:36:03.553Z</time>
      </trkpt>
      <trkpt lat="42.64239" lon="18.10758">
        <ele>74.723538</ele>
        <time>2022-06-01T13:36:12.547Z</time>
      </trkpt>
      <trkpt lat="42.6423" lon="18.10747">
        <ele>73.238059</ele>
        <time>2022-06-01T13:36:16.540Z</time>
      </trkpt>
      <trkpt lat="42.6422" lon="18.10733">
        <ele>71.489775</ele>
        <time>2022-06-01T13:36:19.539Z</time>
      </trkpt>
      <trkpt lat="42.64214" lon="18.10722">
        <ele>70.234968</ele>
        <time>2022-06-01T13:36:21.550Z</time>
      </trkpt>
      <trkpt lat="42.64209" lon="18.10711">
        <ele>69.022867</ele>
        <time>2022-06-01T13:36:23.538Z</time>
      </trkpt>
      <trkpt lat="42.64203" lon="18.107">
        <ele>67.774878</ele>
        <time>2022-06-01T13:36:32.538Z</time>
      </trkpt>
      <trkpt lat="42.64198" lon="18.10689">
        <ele>66.555082</ele>
        <time>2022-06-01T13:36:43.547Z</time>
      </trkpt>
      <trkpt lat="42.64194" lon="18.10677">
        <ele>65.385953</ele>
        <time>2022-06-01T13:36:46.543Z</time>
      </trkpt>
      <trkpt lat="42.6419" lon="18.10665">
        <ele>64.158896</ele>
        <time>2022-06-01T13:36:49.562Z</time>
      </trkpt>
      <trkpt lat="42.64184" lon="18.10653">
        <ele>62.811822</ele>
        <time>2022-06-01T13:36:53.556Z</time>
      </trkpt>
      <trkpt lat="42.6418" lon="18.10641">
        <ele>61.645329</ele>
        <time>2022-06-01T13:36:59.546Z</time>
      </trkpt>
      <trkpt lat="42.6417" lon="18.10646">
        <ele>60.285645</ele>
        <time>2022-06-01T13:37:04.542Z</time>
      </trkpt>
      <trkpt lat="42.64168" lon="18.10658">
        <ele>59.377107</ele>
        <time>2022-06-01T13:37:08.546Z</time>
      </trkpt>
      <trkpt lat="42.64167" lon="18.10673">
        <ele>58.854577</ele>
        <time>2022-06-01T13:37:15.561Z</time>
      </trkpt>
      <trkpt lat="42.64166" lon="18.10686">
        <ele>58.394071</ele>
        <time>2022-06-01T13:37:21.551Z</time>
      </trkpt>
      <trkpt lat="42.64174" lon="18.107">
        <ele>57.757594</ele>
        <time>2022-06-01T13:37:28.542Z</time>
      </trkpt>
      <trkpt lat="42.64182" lon="18.10707">
        <ele>57.309503</ele>
        <time>2022-06-01T13:37:31.547Z</time>
      </trkpt>
      <trkpt lat="42.64173" lon="18.10711">
        <ele>56.863359</ele>
        <time>2022-06-01T13:37:39.551Z</time>
      </trkpt>
      <trkpt lat="42.64167" lon="18.10702">
        <ele>56.423416</ele>
        <time>2022-06-01T13:37:43.554Z</time>
      </trkpt>
      <trkpt lat="42.6416" lon="18.10712">
        <ele>55.94923</ele>
        <time>2022-06-01T13:37:48.546Z</time>
      </trkpt>
      <trkpt lat="42.64161" lon="18.10726">
        <ele>55.455239</ele>
        <time>2022-06-01T13:38:04.548Z</time>
      </trkpt>
      <trkpt lat="42.64159" lon="18.10739">
        <ele>54.970497</ele>
        <time>2022-06-01T13:38:09.549Z</time>
      </trkpt>
      <trkpt lat="42.64156" lon="18.10751">
        <ele>54.524037</ele>
        <time>2022-06-01T13:38:13.552Z</time>
      </trkpt>
      <trkpt lat="42.64152" lon="18.10764">
        <ele>54.02264</ele>
        <time>2022-06-01T13:38:17.540Z</time>
      </trkpt>
      <trkpt lat="42.64149" lon="18.10776">
        <ele>53.57461</ele>
        <time>2022-06-01T13:38:23.553Z</time>
      </trkpt>
      <trkpt lat="42.64127" lon="18.10773">
        <ele>52.507587</ele>
        <time>2022-06-01T13:39:45.567Z</time>
      </trkpt>
      <trkpt lat="42.6412" lon="18.10761">
        <ele>51.957793</ele>
        <time>2022-06-01T13:39:54.630Z</time>
      </trkpt>
      <trkpt lat="42.64098" lon="18.10784">
        <ele>50.79451</ele>
        <time>2022-06-01T13:46:53.720Z</time>
      </trkpt>
      <trkpt lat="42.64107" lon="18.10767">
        <ele>50.79451</ele>
        <time>2022-06-01T13:46:56.574Z</time>
      </trkpt>
      <trkpt lat="42.64115" lon="18.10761">
        <ele>50.79451</ele>
        <time>2022-06-01T13:47:21.579Z</time>
      </trkpt>
      <trkpt lat="42.64124" lon="18.10767">
        <ele>50.79451</ele>
        <time>2022-06-01T13:47:29.584Z</time>
      </trkpt>
      <trkpt lat="42.6413" lon="18.10778">
        <ele>50.79451</ele>
        <time>2022-06-01T13:47:37.615Z</time>
      </trkpt>
      <trkpt lat="42.64136" lon="18.10787">
        <ele>50.79451</ele>
        <time>2022-06-01T13:47:43.551Z</time>
      </trkpt>
      <trkpt lat="42.64142" lon="18.10796">
        <ele>50.79451</ele>
        <time>2022-06-01T13:48:01.577Z</time>
      </trkpt>
      <trkpt lat="42.64141" lon="18.10809">
        <ele>50.79451</ele>
        <time>2022-06-01T13:48:13.557Z</time>
      </trkpt>
      <trkpt lat="42.64139" lon="18.10822">
        <ele>50.79451</ele>
        <time>2022-06-01T13:48:25.561Z</time>
      </trkpt>
      <trkpt lat="42.64136" lon="18.10835">
        <ele>50.79451</ele>
        <time>2022-06-01T13:48:35.557Z</time>
      </trkpt>
      <trkpt lat="42.64134" lon="18.10847">
        <ele>50.79451</ele>
        <time>2022-06-01T13:48:46.623Z</time>
      </trkpt>
      <trkpt lat="42.64134" lon="18.1086">
        <ele>50.79451</ele>
        <time>2022-06-01T13:48:54.602Z</time>
      </trkpt>
      <trkpt lat="42.64133" lon="18.10873">
        <ele>50.79451</ele>
        <time>2022-06-01T13:49:04.564Z</time>
      </trkpt>
      <trkpt lat="42.64132" lon="18.10886">
        <ele>50.79451</ele>
        <time>2022-06-01T13:49:12.558Z</time>
      </trkpt>
      <trkpt lat="42.6413" lon="18.109">
        <ele>50.79451</ele>
        <time>2022-06-01T13:49:21.554Z</time>
      </trkpt>
      <trkpt lat="42.64129" lon="18.10913">
        <ele>50.79451</ele>
        <time>2022-06-01T13:49:28.572Z</time>
      </trkpt>
      <trkpt lat="42.64125" lon="18.10927">
        <ele>50.79451</ele>
        <time>2022-06-01T13:49:35.563Z</time>
      </trkpt>
      <trkpt lat="42.64121" lon="18.10938">
        <ele>50.79451</ele>
        <time>2022-06-01T13:49:41.549Z</time>
      </trkpt>
      <trkpt lat="42.64115" lon="18.10938">
        <ele>50.79451</ele>
        <time>2022-06-01T13:50:56.390Z</time>
      </trkpt>
    </trkseg>
  </trk>
  <trk>
    <name><![CDATA[Tour d'Europe: étape 702]]></name>
    <extensions>
      <line xmlns="http://www.topografix.com/GPX/gpx_style/0/2">
        <color>FFFF00</color>
        <width>4</width>
      </line>
    </extensions>
    <trkseg>
      <trkpt lat="42.4279" lon="18.77223">
        <ele>55.233286</ele>
        <time>2022-05-31T08:07:23.561Z</time>
      </trkpt>
      <trkpt lat="42.42779" lon="18.77208">
        <ele>55.233286</ele>
        <time>2022-05-31T08:07:26.561Z</time>
      </trkpt>
      <trkpt lat="42.42773" lon="18.77241">
        <ele>55.233286</ele>
        <time>2022-05-31T08:11:16.541Z</time>
      </trkpt>
      <trkpt lat="42.42764" lon="18.77243">
        <ele>55.233286</ele>
        <time>2022-05-31T08:11:20.540Z</time>
      </trkpt>
      <trkpt lat="42.42755" lon="18.77248">
        <ele>55.233286</ele>
        <time>2022-05-31T08:11:25.530Z</time>
      </trkpt>
      <trkpt lat="42.42747" lon="18.77258">
        <ele>55.233286</ele>
        <time>2022-05-31T08:11:29.544Z</time>
      </trkpt>
      <trkpt lat="42.42739" lon="18.77266">
        <ele>55.233286</ele>
        <time>2022-05-31T08:11:36.542Z</time>
      </trkpt>
      <trkpt lat="42.42728" lon="18.77268">
        <ele>55.166346</ele>
        <time>2022-05-31T08:11:41.585Z</time>
      </trkpt>
      <trkpt lat="42.42721" lon="18.77259">
        <ele>54.891818</ele>
        <time>2022-05-31T08:12:00.540Z</time>
      </trkpt>
      <trkpt lat="42.42722" lon="18.77247">
        <ele>54.621784</ele>
        <time>2022-05-31T08:12:03.589Z</time>
      </trkpt>
      <trkpt lat="42.42723" lon="18.77231">
        <ele>54.279297</ele>
        <time>2022-05-31T08:12:07.543Z</time>
      </trkpt>
      <trkpt lat="42.42726" lon="18.77219">
        <ele>54.010296</ele>
        <time>2022-05-31T08:12:10.542Z</time>
      </trkpt>
      <trkpt lat="42.4273" lon="18.77205">
        <ele>53.683499</ele>
        <time>2022-05-31T08:12:13.555Z</time>
      </trkpt>
      <trkpt lat="42.42734" lon="18.77192">
        <ele>53.387306</ele>
        <time>2022-05-31T08:12:16.557Z</time>
      </trkpt>
      <trkpt lat="42.42738" lon="18.7718">
        <ele>53.099134</ele>
        <time>2022-05-31T08:12:20.534Z</time>
      </trkpt>
      <trkpt lat="42.42742" lon="18.77167">
        <ele>52.80491</ele>
        <time>2022-05-31T08:12:25.548Z</time>
      </trkpt>
      <trkpt lat="42.42744" lon="18.77154">
        <ele>52.515505</ele>
        <time>2022-05-31T08:12:29.547Z</time>
      </trkpt>
      <trkpt lat="42.42746" lon="18.77141">
        <ele>52.229061</ele>
        <time>2022-05-31T08:12:32.545Z</time>
      </trkpt>
      <trkpt lat="42.42749" lon="18.77128">
        <ele>51.936535</ele>
        <time>2022-05-31T08:12:35.538Z</time>
      </trkpt>
      <trkpt lat="42.42752" lon="18.77117">
        <ele>51.673502</ele>
        <time>2022-05-31T08:12:38.567Z</time>
      </trkpt>
      <trkpt lat="42.42754" lon="18.77103">
        <ele>51.381492</ele>
        <time>2022-05-31T08:12:41.542Z</time>
      </trkpt>
      <trkpt lat="42.42757" lon="18.77087">
        <ele>51.036549</ele>
        <time>2022-05-31T08:12:44.541Z</time>
      </trkpt>
      <trkpt lat="42.4276" lon="18.77074">
        <ele>50.741301</ele>
        <time>2022-05-31T08:12:47.554Z</time>
      </trkpt>
      <trkpt lat="42.42763" lon="18.77061">
        <ele>50.434735</ele>
        <time>2022-05-31T08:12:50.559Z</time>
      </trkpt>
      <trkpt lat="42.4277" lon="18.77011">
        <ele>50.573806</ele>
        <time>2022-05-31T08:15:34.519Z</time>
      </trkpt>
      <trkpt lat="42.42771" lon="18.76998">
        <ele>50.826505</ele>
        <time>2022-05-31T08:15:37.513Z</time>
      </trkpt>
      <trkpt lat="42.4277" lon="18.76984">
        <ele>51.090615</ele>
        <time>2022-05-31T08:15:40.523Z</time>
      </trkpt>
      <trkpt lat="42.42769" lon="18.7697">
        <ele>51.367861</ele>
        <time>2022-05-31T08:15:43.532Z</time>
      </trkpt>
      <trkpt lat="42.42769" lon="18.76954">
        <ele>51.677049</ele>
        <time>2022-05-31T08:15:46.573Z</time>
      </trkpt>
      <trkpt lat="42.42772" lon="18.76941">
        <ele>51.927378</ele>
        <time>2022-05-31T08:15:49.548Z</time>
      </trkpt>
      <trkpt lat="42.42776" lon="18.7693">
        <ele>52.159756</ele>
        <time>2022-05-31T08:15:52.547Z</time>
      </trkpt>
      <trkpt lat="42.42779" lon="18.76918">
        <ele>52.40499</ele>
        <time>2022-05-31T08:15:55.581Z</time>
      </trkpt>
      <trkpt lat="42.42789" lon="18.76912">
        <ele>52.680854</ele>
        <time>2022-05-31T08:15:59.526Z</time>
      </trkpt>
      <trkpt lat="42.42797" lon="18.76919">
        <ele>52.93222</ele>
        <time>2022-05-31T08:16:02.543Z</time>
      </trkpt>
      <trkpt lat="42.42807" lon="18.76923">
        <ele>53.203689</ele>
        <time>2022-05-31T08:16:05.550Z</time>
      </trkpt>
      <trkpt lat="42.42819" lon="18.76925">
        <ele>53.514964</ele>
        <time>2022-05-31T08:16:08.551Z</time>
      </trkpt>
      <trkpt lat="42.42828" lon="18.76928">
        <ele>53.756607</ele>
        <time>2022-05-31T08:16:10.565Z</time>
      </trkpt>
      <trkpt lat="42.42841" lon="18.7693">
        <ele>54.090122</ele>
        <time>2022-05-31T08:16:13.551Z</time>
      </trkpt>
      <trkpt lat="42.42852" lon="18.76931">
        <ele>54.369815</ele>
        <time>2022-05-31T08:16:16.578Z</time>
      </trkpt>
      <trkpt lat="42.42863" lon="18.76934">
        <ele>54.695804</ele>
        <time>2022-05-31T08:16:20.531Z</time>
      </trkpt>
      <trkpt lat="42.42874" lon="18.76937">
        <ele>55.705761</ele>
        <time>2022-05-31T08:16:24.552Z</time>
      </trkpt>
      <trkpt lat="42.42884" lon="18.76938">
        <ele>56.622071</ele>
        <time>2022-05-31T08:16:28.549Z</time>
      </trkpt>
      <trkpt lat="42.42894" lon="18.76939">
        <ele>57.516209</ele>
        <time>2022-05-31T08:16:33.575Z</time>
      </trkpt>
      <trkpt lat="42.42903" lon="18.7694">
        <ele>58.385249</ele>
        <time>2022-05-31T08:16:38.537Z</time>
      </trkpt>
      <trkpt lat="42.42914" lon="18.7694">
        <ele>59.324049</ele>
        <time>2022-05-31T08:16:45.556Z</time>
      </trkpt>
      <trkpt lat="42.42923" lon="18.76942">
        <ele>60.187553</ele>
        <time>2022-05-31T08:16:52.556Z</time>
      </trkpt>
      <trkpt lat="42.42933" lon="18.7694">
        <ele>61.126925</ele>
        <time>2022-05-31T08:16:57.544Z</time>
      </trkpt>
      <trkpt lat="42.42942" lon="18.76938">
        <ele>61.972345</ele>
        <time>2022-05-31T08:17:01.547Z</time>
      </trkpt>
      <trkpt lat="42.42952" lon="18.76936">
        <ele>62.881084</ele>
        <time>2022-05-31T08:17:07.583Z</time>
      </trkpt>
      <trkpt lat="42.42962" lon="18.76932">
        <ele>63.789839</ele>
        <time>2022-05-31T08:17:13.569Z</time>
      </trkpt>
      <trkpt lat="42.42971" lon="18.76928">
        <ele>64.685497</ele>
        <time>2022-05-31T08:17:20.538Z</time>
      </trkpt>
      <trkpt lat="42.42981" lon="18.76924">
        <ele>65.59196</ele>
        <time>2022-05-31T08:17:26.550Z</time>
      </trkpt>
      <trkpt lat="42.42989" lon="18.76919">
        <ele>66.436045</ele>
        <time>2022-05-31T08:17:31.546Z</time>
      </trkpt>
      <trkpt lat="42.42998" lon="18.76914">
        <ele>67.344429</ele>
        <time>2022-05-31T08:17:37.532Z</time>
      </trkpt>
      <trkpt lat="42.43008" lon="18.76909">
        <ele>68.261709</ele>
        <time>2022-05-31T08:17:44.538Z</time>
      </trkpt>
      <trkpt lat="42.43017" lon="18.76905">
        <ele>69.179152</ele>
        <time>2022-05-31T08:17:50.537Z</time>
      </trkpt>
      <trkpt lat="42.43027" lon="18.76899">
        <ele>70.118007</ele>
        <time>2022-05-31T08:17:56.544Z</time>
      </trkpt>
      <trkpt lat="42.43035" lon="18.76893">
        <ele>70.979488</ele>
        <time>2022-05-31T08:18:01.540Z</time>
      </trkpt>
      <trkpt lat="42.43045" lon="18.76888">
        <ele>71.141796</ele>
        <time>2022-05-31T08:18:07.528Z</time>
      </trkpt>
      <trkpt lat="42.43055" lon="18.76889">
        <ele>71.242637</ele>
        <time>2022-05-31T08:18:11.562Z</time>
      </trkpt>
      <trkpt lat="42.43065" lon="18.76889">
        <ele>71.340056</ele>
        <time>2022-05-31T08:18:15.568Z</time>
      </trkpt>
      <trkpt lat="42.43075" lon="18.76889">
        <ele>71.442435</ele>
        <time>2022-05-31T08:18:20.532Z</time>
      </trkpt>
      <trkpt lat="42.43085" lon="18.76893">
        <ele>71.543404</ele>
        <time>2022-05-31T08:18:25.642Z</time>
      </trkpt>
      <trkpt lat="42.43093" lon="18.76898">
        <ele>71.636714</ele>
        <time>2022-05-31T08:18:30.526Z</time>
      </trkpt>
      <trkpt lat="42.43102" lon="18.76903">
        <ele>71.732066</ele>
        <time>2022-05-31T08:18:35.545Z</time>
      </trkpt>
      <trkpt lat="42.43111" lon="18.76907">
        <ele>71.822923</ele>
        <time>2022-05-31T08:18:40.632Z</time>
      </trkpt>
      <trkpt lat="42.43121" lon="18.76909">
        <ele>71.919557</ele>
        <time>2022-05-31T08:18:45.561Z</time>
      </trkpt>
      <trkpt lat="42.4313" lon="18.76913">
        <ele>72.012624</ele>
        <time>2022-05-31T08:18:50.527Z</time>
      </trkpt>
      <trkpt lat="42.43139" lon="18.76918">
        <ele>72.111283</ele>
        <time>2022-05-31T08:18:55.535Z</time>
      </trkpt>
      <trkpt lat="42.43148" lon="18.76921">
        <ele>72.209909</ele>
        <time>2022-05-31T08:19:00.535Z</time>
      </trkpt>
      <trkpt lat="42.43158" lon="18.76924">
        <ele>72.304763</ele>
        <time>2022-05-31T08:19:05.538Z</time>
      </trkpt>
      <trkpt lat="42.43168" lon="18.76928">
        <ele>72.407379</ele>
        <time>2022-05-31T08:19:10.577Z</time>
      </trkpt>
      <trkpt lat="42.43178" lon="18.76932">
        <ele>72.511567</ele>
        <time>2022-05-31T08:19:15.570Z</time>
      </trkpt>
      <trkpt lat="42.43188" lon="18.76934">
        <ele>72.615688</ele>
        <time>2022-05-31T08:19:20.540Z</time>
      </trkpt>
      <trkpt lat="42.43198" lon="18.76935">
        <ele>72.719498</ele>
        <time>2022-05-31T08:19:25.563Z</time>
      </trkpt>
      <trkpt lat="42.43209" lon="18.76936">
        <ele>72.82291</ele>
        <time>2022-05-31T08:19:30.533Z</time>
      </trkpt>
      <trkpt lat="42.4322" lon="18.76935">
        <ele>72.578439</ele>
        <time>2022-05-31T08:19:34.548Z</time>
      </trkpt>
      <trkpt lat="42.43229" lon="18.76933">
        <ele>72.355482</ele>
        <time>2022-05-31T08:19:37.547Z</time>
      </trkpt>
      <trkpt lat="42.43241" lon="18.7693">
        <ele>72.060226</ele>
        <time>2022-05-31T08:19:41.553Z</time>
      </trkpt>
      <trkpt lat="42.43252" lon="18.76929">
        <ele>71.792852</ele>
        <time>2022-05-31T08:19:44.575Z</time>
      </trkpt>
      <trkpt lat="42.43265" lon="18.76926">
        <ele>71.491504</ele>
        <time>2022-05-31T08:19:47.535Z</time>
      </trkpt>
      <trkpt lat="42.43277" lon="18.76921">
        <ele>71.1731</ele>
        <time>2022-05-31T08:19:50.572Z</time>
      </trkpt>
      <trkpt lat="42.43287" lon="18.76916">
        <ele>70.918197</ele>
        <time>2022-05-31T08:19:52.569Z</time>
      </trkpt>
      <trkpt lat="42.43298" lon="18.7691">
        <ele>70.629475</ele>
        <time>2022-05-31T08:19:54.551Z</time>
      </trkpt>
      <trkpt lat="42.43311" lon="18.76904">
        <ele>70.307643</ele>
        <time>2022-05-31T08:19:56.567Z</time>
      </trkpt>
      <trkpt lat="42.43325" lon="18.76898">
        <ele>69.949679</ele>
        <time>2022-05-31T08:19:58.547Z</time>
      </trkpt>
      <trkpt lat="42.43339" lon="18.76891">
        <ele>69.586031</ele>
        <time>2022-05-31T08:20:00.544Z</time>
      </trkpt>
      <trkpt lat="42.43353" lon="18.76885">
        <ele>69.228624</ele>
        <time>2022-05-31T08:20:02.585Z</time>
      </trkpt>
      <trkpt lat="42.43367" lon="18.76877">
        <ele>68.856475</ele>
        <time>2022-05-31T08:20:04.527Z</time>
      </trkpt>
      <trkpt lat="42.43382" lon="18.76868">
        <ele>68.439516</ele>
        <time>2022-05-31T08:20:06.545Z</time>
      </trkpt>
      <trkpt lat="42.43397" lon="18.7686">
        <ele>67.689881</ele>
        <time>2022-05-31T08:20:08.577Z</time>
      </trkpt>
      <trkpt lat="42.43412" lon="18.76852">
        <ele>66.917415</ele>
        <time>2022-05-31T08:20:10.527Z</time>
      </trkpt>
      <trkpt lat="42.43428" lon="18.76845">
        <ele>66.111279</ele>
        <time>2022-05-31T08:20:12.549Z</time>
      </trkpt>
      <trkpt lat="42.43445" lon="18.76837">
        <ele>65.293713</ele>
        <time>2022-05-31T08:20:14.544Z</time>
      </trkpt>
      <trkpt lat="42.4346" lon="18.7683">
        <ele>64.520087</ele>
        <time>2022-05-31T08:20:16.532Z</time>
      </trkpt>
      <trkpt lat="42.43475" lon="18.76822">
        <ele>63.761015</ele>
        <time>2022-05-31T08:20:18.537Z</time>
      </trkpt>
      <trkpt lat="42.43489" lon="18.76815">
        <ele>63.047598</ele>
        <time>2022-05-31T08:20:20.554Z</time>
      </trkpt>
      <trkpt lat="42.43502" lon="18.76808">
        <ele>62.372575</ele>
        <time>2022-05-31T08:20:22.543Z</time>
      </trkpt>
      <trkpt lat="42.43516" lon="18.76802">
        <ele>61.709967</ele>
        <time>2022-05-31T08:20:24.532Z</time>
      </trkpt>
      <trkpt lat="42.43529" lon="18.76795">
        <ele>61.023616</ele>
        <time>2022-05-31T08:20:26.555Z</time>
      </trkpt>
      <trkpt lat="42.43543" lon="18.76789">
        <ele>60.343116</ele>
        <time>2022-05-31T08:20:28.571Z</time>
      </trkpt>
      <trkpt lat="42.43556" lon="18.76782">
        <ele>59.677446</ele>
        <time>2022-05-31T08:20:30.549Z</time>
      </trkpt>
      <trkpt lat="42.43569" lon="18.76774">
        <ele>59.037226</ele>
        <time>2022-05-31T08:20:32.557Z</time>
      </trkpt>
      <trkpt lat="42.43581" lon="18.76767">
        <ele>58.427761</ele>
        <time>2022-05-31T08:20:34.583Z</time>
      </trkpt>
      <trkpt lat="42.43592" lon="18.76759">
        <ele>57.832853</ele>
        <time>2022-05-31T08:20:36.600Z</time>
      </trkpt>
      <trkpt lat="42.43603" lon="18.7675">
        <ele>57.242033</ele>
        <time>2022-05-31T08:20:38.533Z</time>
      </trkpt>
      <trkpt lat="42.43614" lon="18.76742">
        <ele>56.670516</ele>
        <time>2022-05-31T08:20:40.538Z</time>
      </trkpt>
      <trkpt lat="42.43625" lon="18.76734">
        <ele>56.10809</ele>
        <time>2022-05-31T08:20:42.552Z</time>
      </trkpt>
      <trkpt lat="42.43634" lon="18.76727">
        <ele>55.623314</ele>
        <time>2022-05-31T08:20:44.552Z</time>
      </trkpt>
      <trkpt lat="42.43643" lon="18.76716">
        <ele>55.055927</ele>
        <time>2022-05-31T08:20:47.546Z</time>
      </trkpt>
      <trkpt lat="42.43639" lon="18.76703">
        <ele>54.573724</ele>
        <time>2022-05-31T08:20:50.532Z</time>
      </trkpt>
      <trkpt lat="42.43629" lon="18.76698">
        <ele>54.092124</ele>
        <time>2022-05-31T08:20:52.532Z</time>
      </trkpt>
      <trkpt lat="42.43618" lon="18.76694">
        <ele>53.564501</ele>
        <time>2022-05-31T08:20:54.581Z</time>
      </trkpt>
      <trkpt lat="42.43607" lon="18.76688">
        <ele>52.987539</ele>
        <time>2022-05-31T08:20:56.585Z</time>
      </trkpt>
      <trkpt lat="42.43593" lon="18.76681">
        <ele>52.308893</ele>
        <time>2022-05-31T08:20:58.543Z</time>
      </trkpt>
      <trkpt lat="42.4358" lon="18.76675">
        <ele>51.686198</ele>
        <time>2022-05-31T08:21:00.550Z</time>
      </trkpt>
      <trkpt lat="42.43569" lon="18.7667">
        <ele>51.696919</ele>
        <time>2022-05-31T08:21:02.545Z</time>
      </trkpt>
      <trkpt lat="42.43559" lon="18.76663">
        <ele>51.748373</ele>
        <time>2022-05-31T08:21:05.625Z</time>
      </trkpt>
      <trkpt lat="42.43549" lon="18.76655">
        <ele>51.797427</ele>
        <time>2022-05-31T08:21:09.620Z</time>
      </trkpt>
      <trkpt lat="42.43538" lon="18.76646">
        <ele>51.851729</ele>
        <time>2022-05-31T08:21:12.552Z</time>
      </trkpt>
      <trkpt lat="42.43531" lon="18.76638">
        <ele>51.89106</ele>
        <time>2022-05-31T08:21:14.549Z</time>
      </trkpt>
      <trkpt lat="42.43525" lon="18.76625">
        <ele>51.939949</ele>
        <time>2022-05-31T08:21:17.551Z</time>
      </trkpt>
      <trkpt lat="42.43532" lon="18.76616">
        <ele>51.981885</ele>
        <time>2022-05-31T08:21:22.634Z</time>
      </trkpt>
      <trkpt lat="42.43542" lon="18.76606">
        <ele>52.032495</ele>
        <time>2022-05-31T08:21:25.558Z</time>
      </trkpt>
      <trkpt lat="42.43549" lon="18.766">
        <ele>52.070584</ele>
        <time>2022-05-31T08:21:27.549Z</time>
      </trkpt>
      <trkpt lat="42.43558" lon="18.76588">
        <ele>52.122414</ele>
        <time>2022-05-31T08:21:30.527Z</time>
      </trkpt>
      <trkpt lat="42.43565" lon="18.76575">
        <ele>52.17326</ele>
        <time>2022-05-31T08:21:33.549Z</time>
      </trkpt>
      <trkpt lat="42.4357" lon="18.7656">
        <ele>52.224122</ele>
        <time>2022-05-31T08:21:36.626Z</time>
      </trkpt>
      <trkpt lat="42.43574" lon="18.76545">
        <ele>52.274256</ele>
        <time>2022-05-31T08:21:39.544Z</time>
      </trkpt>
      <trkpt lat="42.43579" lon="18.76532">
        <ele>52.320614</ele>
        <time>2022-05-31T08:21:42.520Z</time>
      </trkpt>
      <trkpt lat="42.43583" lon="18.76521">
        <ele>52.361418</ele>
        <time>2022-05-31T08:21:45.561Z</time>
      </trkpt>
      <trkpt lat="42.43588" lon="18.76508">
        <ele>52.407071</ele>
        <time>2022-05-31T08:21:49.554Z</time>
      </trkpt>
      <trkpt lat="42.43594" lon="18.76493">
        <ele>52.380195</ele>
        <time>2022-05-31T08:21:53.536Z</time>
      </trkpt>
      <trkpt lat="42.436" lon="18.76482">
        <ele>52.340725</ele>
        <time>2022-05-31T08:21:56.557Z</time>
      </trkpt>
      <trkpt lat="42.43609" lon="18.76476">
        <ele>52.303738</ele>
        <time>2022-05-31T08:21:59.552Z</time>
      </trkpt>
      <trkpt lat="42.4362" lon="18.76471">
        <ele>52.256159</ele>
        <time>2022-05-31T08:22:02.552Z</time>
      </trkpt>
      <trkpt lat="42.43629" lon="18.76468">
        <ele>52.220129</ele>
        <time>2022-05-31T08:22:04.554Z</time>
      </trkpt>
      <trkpt lat="42.43641" lon="18.76465">
        <ele>52.173035</ele>
        <time>2022-05-31T08:22:07.542Z</time>
      </trkpt>
      <trkpt lat="42.43652" lon="18.76462">
        <ele>52.130588</ele>
        <time>2022-05-31T08:22:10.555Z</time>
      </trkpt>
      <trkpt lat="42.43662" lon="18.76461">
        <ele>52.091485</ele>
        <time>2022-05-31T08:22:13.551Z</time>
      </trkpt>
      <trkpt lat="42.43673" lon="18.76463">
        <ele>52.047884</ele>
        <time>2022-05-31T08:22:16.554Z</time>
      </trkpt>
      <trkpt lat="42.43685" lon="18.76464">
        <ele>51.999197</ele>
        <time>2022-05-31T08:22:19.841Z</time>
      </trkpt>
      <trkpt lat="42.43698" lon="18.76464">
        <ele>51.949555</ele>
        <time>2022-05-31T08:22:22.550Z</time>
      </trkpt>
      <trkpt lat="42.43707" lon="18.76462">
        <ele>51.913262</ele>
        <time>2022-05-31T08:22:24.556Z</time>
      </trkpt>
      <trkpt lat="42.43717" lon="18.76458">
        <ele>51.871066</ele>
        <time>2022-05-31T08:22:26.564Z</time>
      </trkpt>
      <trkpt lat="42.43727" lon="18.76455">
        <ele>51.832622</ele>
        <time>2022-05-31T08:22:28.551Z</time>
      </trkpt>
      <trkpt lat="42.43737" lon="18.76452">
        <ele>51.79424</ele>
        <time>2022-05-31T08:22:30.535Z</time>
      </trkpt>
      <trkpt lat="42.43746" lon="18.7645">
        <ele>51.755917</ele>
        <time>2022-05-31T08:22:32.578Z</time>
      </trkpt>
      <trkpt lat="42.43758" lon="18.76445">
        <ele>51.713887</ele>
        <time>2022-05-31T08:22:35.577Z</time>
      </trkpt>
      <trkpt lat="42.43768" lon="18.76439">
        <ele>51.705943</ele>
        <time>2022-05-31T08:22:38.539Z</time>
      </trkpt>
      <trkpt lat="42.43777" lon="18.76436">
        <ele>51.699295</ele>
        <time>2022-05-31T08:22:41.555Z</time>
      </trkpt>
      <trkpt lat="42.43787" lon="18.76433">
        <ele>51.692178</ele>
        <time>2022-05-31T08:22:44.544Z</time>
      </trkpt>
      <trkpt lat="42.43796" lon="18.76427">
        <ele>51.684801</ele>
        <time>2022-05-31T08:22:47.526Z</time>
      </trkpt>
      <trkpt lat="42.43805" lon="18.7642">
        <ele>51.677558</ele>
        <time>2022-05-31T08:22:50.536Z</time>
      </trkpt>
      <trkpt lat="42.43812" lon="18.76412">
        <ele>51.670668</ele>
        <time>2022-05-31T08:22:53.554Z</time>
      </trkpt>
      <trkpt lat="42.4382" lon="18.76405">
        <ele>51.663662</ele>
        <time>2022-05-31T08:22:57.548Z</time>
      </trkpt>
      <trkpt lat="42.43828" lon="18.76397">
        <ele>51.656836</ele>
        <time>2022-05-31T08:23:00.538Z</time>
      </trkpt>
      <trkpt lat="42.43838" lon="18.76389">
        <ele>51.648309</ele>
        <time>2022-05-31T08:23:03.578Z</time>
      </trkpt>
      <trkpt lat="42.43849" lon="18.7638">
        <ele>51.639485</ele>
        <time>2022-05-31T08:23:06.557Z</time>
      </trkpt>
      <trkpt lat="42.43858" lon="18.76371">
        <ele>51.630989</ele>
        <time>2022-05-31T08:23:09.544Z</time>
      </trkpt>
      <trkpt lat="42.43868" lon="18.76362">
        <ele>51.622524</ele>
        <time>2022-05-31T08:23:12.585Z</time>
      </trkpt>
      <trkpt lat="42.43878" lon="18.76354">
        <ele>51.614259</ele>
        <time>2022-05-31T08:23:15.557Z</time>
      </trkpt>
      <trkpt lat="42.43888" lon="18.76346">
        <ele>51.605693</ele>
        <time>2022-05-31T08:23:19.548Z</time>
      </trkpt>
      <trkpt lat="42.43896" lon="18.76337">
        <ele>51.598564</ele>
        <time>2022-05-31T08:23:23.551Z</time>
      </trkpt>
      <trkpt lat="42.43905" lon="18.76329">
        <ele>51.590661</ele>
        <time>2022-05-31T08:23:27.551Z</time>
      </trkpt>
      <trkpt lat="42.43915" lon="18.76324">
        <ele>51.541384</ele>
        <time>2022-05-31T08:23:30.549Z</time>
      </trkpt>
      <trkpt lat="42.43926" lon="18.76318">
        <ele>51.418441</ele>
        <time>2022-05-31T08:23:33.597Z</time>
      </trkpt>
      <trkpt lat="42.43937" lon="18.76314">
        <ele>51.30314</ele>
        <time>2022-05-31T08:23:36.541Z</time>
      </trkpt>
      <trkpt lat="42.43948" lon="18.76309">
        <ele>51.184323</ele>
        <time>2022-05-31T08:23:39.548Z</time>
      </trkpt>
      <trkpt lat="42.43959" lon="18.76303">
        <ele>51.065569</ele>
        <time>2022-05-31T08:23:42.528Z</time>
      </trkpt>
      <trkpt lat="42.43969" lon="18.76297">
        <ele>50.947311</ele>
        <time>2022-05-31T08:23:45.563Z</time>
      </trkpt>
      <trkpt lat="42.43978" lon="18.76287">
        <ele>50.830645</ele>
        <time>2022-05-31T08:23:48.543Z</time>
      </trkpt>
      <trkpt lat="42.43986" lon="18.76274">
        <ele>50.705072</ele>
        <time>2022-05-31T08:23:51.539Z</time>
      </trkpt>
      <trkpt lat="42.43993" lon="18.76261">
        <ele>50.579028</ele>
        <time>2022-05-31T08:23:54.552Z</time>
      </trkpt>
      <trkpt lat="42.44002" lon="18.76252">
        <ele>50.466308</ele>
        <time>2022-05-31T08:23:57.550Z</time>
      </trkpt>
      <trkpt lat="42.44012" lon="18.76245">
        <ele>50.353312</ele>
        <time>2022-05-31T08:24:00.538Z</time>
      </trkpt>
      <trkpt lat="42.44023" lon="18.7624">
        <ele>50.227954</ele>
        <time>2022-05-31T08:24:03.525Z</time>
      </trkpt>
      <trkpt lat="42.44034" lon="18.76235">
        <ele>50.109402</ele>
        <time>2022-05-31T08:24:06.545Z</time>
      </trkpt>
      <trkpt lat="42.44044" lon="18.7623">
        <ele>49.997953</ele>
        <time>2022-05-31T08:24:09.530Z</time>
      </trkpt>
      <trkpt lat="42.44056" lon="18.76225">
        <ele>49.870515</ele>
        <time>2022-05-31T08:24:12.563Z</time>
      </trkpt>
      <trkpt lat="42.44068" lon="18.76221">
        <ele>49.744251</ele>
        <time>2022-05-31T08:24:15.527Z</time>
      </trkpt>
      <trkpt lat="42.4408" lon="18.76218">
        <ele>49.752592</ele>
        <time>2022-05-31T08:24:18.579Z</time>
      </trkpt>
      <trkpt lat="42.44092" lon="18.76216">
        <ele>49.772956</ele>
        <time>2022-05-31T08:24:21.541Z</time>
      </trkpt>
      <trkpt lat="42.44103" lon="18.76213">
        <ele>49.791808</ele>
        <time>2022-05-31T08:24:24.546Z</time>
      </trkpt>
      <trkpt lat="42.44115" lon="18.76212">
        <ele>49.812456</ele>
        <time>2022-05-31T08:24:27.541Z</time>
      </trkpt>
      <trkpt lat="42.44128" lon="18.7621">
        <ele>49.833811</ele>
        <time>2022-05-31T08:24:30.548Z</time>
      </trkpt>
      <trkpt lat="42.44138" lon="18.76208">
        <ele>49.851802</ele>
        <time>2022-05-31T08:24:33.534Z</time>
      </trkpt>
      <trkpt lat="42.44149" lon="18.76207">
        <ele>49.870385</ele>
        <time>2022-05-31T08:24:36.577Z</time>
      </trkpt>
      <trkpt lat="42.44162" lon="18.76203">
        <ele>49.892361</ele>
        <time>2022-05-31T08:24:39.533Z</time>
      </trkpt>
      <trkpt lat="42.44175" lon="18.76201">
        <ele>49.91422</ele>
        <time>2022-05-31T08:24:42.572Z</time>
      </trkpt>
      <trkpt lat="42.44188" lon="18.76204">
        <ele>49.935595</ele>
        <time>2022-05-31T08:24:45.545Z</time>
      </trkpt>
      <trkpt lat="42.44199" lon="18.7621">
        <ele>49.955895</ele>
        <time>2022-05-31T08:24:48.538Z</time>
      </trkpt>
      <trkpt lat="42.4421" lon="18.76215">
        <ele>49.976368</ele>
        <time>2022-05-31T08:24:51.540Z</time>
      </trkpt>
      <trkpt lat="42.44221" lon="18.76223">
        <ele>49.996375</ele>
        <time>2022-05-31T08:24:54.541Z</time>
      </trkpt>
      <trkpt lat="42.44228" lon="18.76234">
        <ele>50.014427</ele>
        <time>2022-05-31T08:24:57.546Z</time>
      </trkpt>
      <trkpt lat="42.44233" lon="18.76248">
        <ele>50.034289</ele>
        <time>2022-05-31T08:25:00.543Z</time>
      </trkpt>
      <trkpt lat="42.44239" lon="18.76262">
        <ele>49.935943</ele>
        <time>2022-05-31T08:25:03.538Z</time>
      </trkpt>
      <trkpt lat="42.44246" lon="18.76274">
        <ele>49.822965</ele>
        <time>2022-05-31T08:25:06.536Z</time>
      </trkpt>
      <trkpt lat="42.44253" lon="18.76286">
        <ele>49.71529</ele>
        <time>2022-05-31T08:25:09.586Z</time>
      </trkpt>
      <trkpt lat="42.4426" lon="18.76297">
        <ele>49.604704</ele>
        <time>2022-05-31T08:25:12.552Z</time>
      </trkpt>
      <trkpt lat="42.44269" lon="18.76309">
        <ele>49.485694</ele>
        <time>2022-05-31T08:25:16.547Z</time>
      </trkpt>
      <trkpt lat="42.44276" lon="18.76317">
        <ele>49.395505</ele>
        <time>2022-05-31T08:25:20.544Z</time>
      </trkpt>
      <trkpt lat="42.44283" lon="18.76325">
        <ele>49.303625</ele>
        <time>2022-05-31T08:25:23.544Z</time>
      </trkpt>
      <trkpt lat="42.4429" lon="18.76337">
        <ele>49.194714</ele>
        <time>2022-05-31T08:25:26.556Z</time>
      </trkpt>
      <trkpt lat="42.44298" lon="18.76348">
        <ele>49.080901</ele>
        <time>2022-05-31T08:25:29.548Z</time>
      </trkpt>
      <trkpt lat="42.44306" lon="18.76358">
        <ele>48.968815</ele>
        <time>2022-05-31T08:25:32.548Z</time>
      </trkpt>
      <trkpt lat="42.44316" lon="18.76366">
        <ele>48.855535</ele>
        <time>2022-05-31T08:25:35.539Z</time>
      </trkpt>
      <trkpt lat="42.44328" lon="18.76372">
        <ele>48.729807</ele>
        <time>2022-05-31T08:25:38.566Z</time>
      </trkpt>
      <trkpt lat="42.44338" lon="18.76372">
        <ele>48.636196</ele>
        <time>2022-05-31T08:25:40.554Z</time>
      </trkpt>
      <trkpt lat="42.44347" lon="18.76372">
        <ele>48.546522</ele>
        <time>2022-05-31T08:25:42.531Z</time>
      </trkpt>
      <trkpt lat="42.44359" lon="18.76372">
        <ele>48.4234</ele>
        <time>2022-05-31T08:25:45.556Z</time>
      </trkpt>
      <trkpt lat="42.4437" lon="18.76371">
        <ele>48.316545</ele>
        <time>2022-05-31T08:25:48.537Z</time>
      </trkpt>
      <trkpt lat="42.44379" lon="18.76377">
        <ele>48.155115</ele>
        <time>2022-05-31T08:25:51.548Z</time>
      </trkpt>
      <trkpt lat="42.44388" lon="18.76387">
        <ele>47.916877</ele>
        <time>2022-05-31T08:25:54.573Z</time>
      </trkpt>
      <trkpt lat="42.44397" lon="18.76396">
        <ele>47.663069</ele>
        <time>2022-05-31T08:25:57.543Z</time>
      </trkpt>
      <trkpt lat="42.44407" lon="18.76404">
        <ele>47.410651</ele>
        <time>2022-05-31T08:26:00.586Z</time>
      </trkpt>
      <trkpt lat="42.44416" lon="18.76412">
        <ele>47.172068</ele>
        <time>2022-05-31T08:26:03.548Z</time>
      </trkpt>
      <trkpt lat="42.44427" lon="18.76419">
        <ele>46.917709</ele>
        <time>2022-05-31T08:26:06.572Z</time>
      </trkpt>
      <trkpt lat="42.44438" lon="18.76427">
        <ele>46.644817</ele>
        <time>2022-05-31T08:26:09.536Z</time>
      </trkpt>
      <trkpt lat="42.44448" lon="18.76433">
        <ele>46.405781</ele>
        <time>2022-05-31T08:26:12.544Z</time>
      </trkpt>
      <trkpt lat="42.44457" lon="18.76438">
        <ele>46.2016</ele>
        <time>2022-05-31T08:26:15.529Z</time>
      </trkpt>
      <trkpt lat="42.44468" lon="18.76441">
        <ele>45.942154</ele>
        <time>2022-05-31T08:26:19.557Z</time>
      </trkpt>
      <trkpt lat="42.44477" lon="18.76447">
        <ele>45.721474</ele>
        <time>2022-05-31T08:26:22.547Z</time>
      </trkpt>
      <trkpt lat="42.44488" lon="18.76455">
        <ele>45.45354</ele>
        <time>2022-05-31T08:26:25.541Z</time>
      </trkpt>
      <trkpt lat="42.445" lon="18.76461">
        <ele>45.18105</ele>
        <time>2022-05-31T08:26:28.544Z</time>
      </trkpt>
      <trkpt lat="42.44511" lon="18.76467">
        <ele>44.929456</ele>
        <time>2022-05-31T08:26:31.556Z</time>
      </trkpt>
      <trkpt lat="42.4452" lon="18.76474">
        <ele>44.699335</ele>
        <time>2022-05-31T08:26:34.557Z</time>
      </trkpt>
      <trkpt lat="42.4453" lon="18.7648">
        <ele>44.454265</ele>
        <time>2022-05-31T08:26:39.545Z</time>
      </trkpt>
      <trkpt lat="42.4454" lon="18.76484">
        <ele>44.473341</ele>
        <time>2022-05-31T08:26:42.572Z</time>
      </trkpt>
      <trkpt lat="42.4455" lon="18.7649">
        <ele>44.726058</ele>
        <time>2022-05-31T08:26:45.574Z</time>
      </trkpt>
      <trkpt lat="42.44561" lon="18.76496">
        <ele>44.991312</ele>
        <time>2022-05-31T08:26:48.567Z</time>
      </trkpt>
      <trkpt lat="42.44573" lon="18.76503">
        <ele>45.282828</ele>
        <time>2022-05-31T08:26:51.567Z</time>
      </trkpt>
      <trkpt lat="42.44582" lon="18.76508">
        <ele>45.487499</ele>
        <time>2022-05-31T08:26:53.560Z</time>
      </trkpt>
      <trkpt lat="42.44593" lon="18.76513">
        <ele>45.753299</ele>
        <time>2022-05-31T08:26:56.551Z</time>
      </trkpt>
      <trkpt lat="42.44604" lon="18.7652">
        <ele>46.010318</ele>
        <time>2022-05-31T08:26:59.590Z</time>
      </trkpt>
      <trkpt lat="42.44613" lon="18.76525">
        <ele>46.236241</ele>
        <time>2022-05-31T08:27:03.547Z</time>
      </trkpt>
      <trkpt lat="42.44623" lon="18.76531">
        <ele>46.474332</ele>
        <time>2022-05-31T08:27:08.548Z</time>
      </trkpt>
      <trkpt lat="42.44631" lon="18.76537">
        <ele>46.686062</ele>
        <time>2022-05-31T08:27:11.577Z</time>
      </trkpt>
      <trkpt lat="42.4464" lon="18.76541">
        <ele>46.893397</ele>
        <time>2022-05-31T08:27:14.575Z</time>
      </trkpt>
      <trkpt lat="42.44649" lon="18.76546">
        <ele>47.109644</ele>
        <time>2022-05-31T08:27:17.551Z</time>
      </trkpt>
      <trkpt lat="42.44661" lon="18.76549">
        <ele>47.383232</ele>
        <time>2022-05-31T08:27:20.564Z</time>
      </trkpt>
      <trkpt lat="42.44673" lon="18.7655">
        <ele>47.648597</ele>
        <time>2022-05-31T08:27:23.547Z</time>
      </trkpt>
      <trkpt lat="42.44685" lon="18.76548">
        <ele>47.915196</ele>
        <time>2022-05-31T08:27:26.540Z</time>
      </trkpt>
      <trkpt lat="42.44695" lon="18.76544">
        <ele>48.153756</ele>
        <time>2022-05-31T08:27:30.525Z</time>
      </trkpt>
      <trkpt lat="42.44705" lon="18.76542">
        <ele>48.374564</ele>
        <time>2022-05-31T08:27:33.564Z</time>
      </trkpt>
      <trkpt lat="42.44715" lon="18.7654">
        <ele>48.584607</ele>
        <time>2022-05-31T08:27:36.546Z</time>
      </trkpt>
      <trkpt lat="42.44726" lon="18.76538">
        <ele>48.806952</ele>
        <time>2022-05-31T08:27:39.546Z</time>
      </trkpt>
      <trkpt lat="42.44738" lon="18.76537">
        <ele>49.041035</ele>
        <time>2022-05-31T08:27:42.538Z</time>
      </trkpt>
      <trkpt lat="42.44749" lon="18.76538">
        <ele>49.254706</ele>
        <time>2022-05-31T08:27:45.541Z</time>
      </trkpt>
      <trkpt lat="42.44759" lon="18.76543">
        <ele>49.476705</ele>
        <time>2022-05-31T08:27:48.546Z</time>
      </trkpt>
      <trkpt lat="42.4477" lon="18.76547">
        <ele>49.704981</ele>
        <time>2022-05-31T08:27:51.546Z</time>
      </trkpt>
      <trkpt lat="42.44779" lon="18.76553">
        <ele>49.904596</ele>
        <time>2022-05-31T08:27:54.545Z</time>
      </trkpt>
      <trkpt lat="42.4479" lon="18.76557">
        <ele>50.12971</ele>
        <time>2022-05-31T08:27:58.547Z</time>
      </trkpt>
      <trkpt lat="42.448" lon="18.76561">
        <ele>50.337098</ele>
        <time>2022-05-31T08:28:01.549Z</time>
      </trkpt>
      <trkpt lat="42.44811" lon="18.76565">
        <ele>50.559194</ele>
        <time>2022-05-31T08:28:04.544Z</time>
      </trkpt>
      <trkpt lat="42.44822" lon="18.7657">
        <ele>50.788963</ele>
        <time>2022-05-31T08:28:07.585Z</time>
      </trkpt>
      <trkpt lat="42.44833" lon="18.76573">
        <ele>51.019911</ele>
        <time>2022-05-31T08:28:10.549Z</time>
      </trkpt>
      <trkpt lat="42.44845" lon="18.76574">
        <ele>51.274769</ele>
        <time>2022-05-31T08:28:13.556Z</time>
      </trkpt>
      <trkpt lat="42.44858" lon="18.76571">
        <ele>51.520938</ele>
        <time>2022-05-31T08:28:16.553Z</time>
      </trkpt>
      <trkpt lat="42.44869" lon="18.76569">
        <ele>51.757579</ele>
        <time>2022-05-31T08:28:19.544Z</time>
      </trkpt>
      <trkpt lat="42.4488" lon="18.76567">
        <ele>51.96791</ele>
        <time>2022-05-31T08:28:23.564Z</time>
      </trkpt>
      <trkpt lat="42.4489" lon="18.76559">
        <ele>52.171602</ele>
        <time>2022-05-31T08:28:27.548Z</time>
      </trkpt>
      <trkpt lat="42.449" lon="18.76552">
        <ele>52.358536</ele>
        <time>2022-05-31T08:28:30.537Z</time>
      </trkpt>
      <trkpt lat="42.44909" lon="18.76543">
        <ele>52.554658</ele>
        <time>2022-05-31T08:28:33.569Z</time>
      </trkpt>
      <trkpt lat="42.44919" lon="18.76532">
        <ele>52.764627</ele>
        <time>2022-05-31T08:28:36.547Z</time>
      </trkpt>
      <trkpt lat="42.44928" lon="18.76521">
        <ele>52.97523</ele>
        <time>2022-05-31T08:28:39.545Z</time>
      </trkpt>
      <trkpt lat="42.44937" lon="18.7651">
        <ele>53.175781</ele>
        <time>2022-05-31T08:28:42.555Z</time>
      </trkpt>
      <trkpt lat="42.44947" lon="18.76503">
        <ele>53.369578</ele>
        <time>2022-05-31T08:28:45.549Z</time>
      </trkpt>
      <trkpt lat="42.44957" lon="18.76499">
        <ele>53.546042</ele>
        <time>2022-05-31T08:28:48.548Z</time>
      </trkpt>
      <trkpt lat="42.44967" lon="18.765">
        <ele>53.7089</ele>
        <time>2022-05-31T08:28:53.555Z</time>
      </trkpt>
      <trkpt lat="42.44976" lon="18.76499">
        <ele>53.873496</ele>
        <time>2022-05-31T08:28:58.532Z</time>
      </trkpt>
      <trkpt lat="42.44986" lon="18.76502">
        <ele>54.033795</ele>
        <time>2022-05-31T08:29:02.595Z</time>
      </trkpt>
      <trkpt lat="42.44996" lon="18.765">
        <ele>54.213103</ele>
        <time>2022-05-31T08:29:07.541Z</time>
      </trkpt>
      <trkpt lat="42.45005" lon="18.76495">
        <ele>54.382753</ele>
        <time>2022-05-31T08:29:11.549Z</time>
      </trkpt>
      <trkpt lat="42.45016" lon="18.76489">
        <ele>54.574367</ele>
        <time>2022-05-31T08:29:15.534Z</time>
      </trkpt>
      <trkpt lat="42.45027" lon="18.76485">
        <ele>54.765524</ele>
        <time>2022-05-31T08:29:19.548Z</time>
      </trkpt>
      <trkpt lat="42.45037" lon="18.76487">
        <ele>54.946827</ele>
        <time>2022-05-31T08:29:23.556Z</time>
      </trkpt>
      <trkpt lat="42.45047" lon="18.76494">
        <ele>55.005218</ele>
        <time>2022-05-31T08:29:27.541Z</time>
      </trkpt>
      <trkpt lat="42.45054" lon="18.76504">
        <ele>54.992574</ele>
        <time>2022-05-31T08:29:30.579Z</time>
      </trkpt>
      <trkpt lat="42.45062" lon="18.76516">
        <ele>54.978666</ele>
        <time>2022-05-31T08:29:33.561Z</time>
      </trkpt>
      <trkpt lat="42.45073" lon="18.76525">
        <ele>54.96359</ele>
        <time>2022-05-31T08:29:36.582Z</time>
      </trkpt>
      <trkpt lat="42.45084" lon="18.76528">
        <ele>54.950295</ele>
        <time>2022-05-31T08:29:40.540Z</time>
      </trkpt>
      <trkpt lat="42.45095" lon="18.76529">
        <ele>54.937905</ele>
        <time>2022-05-31T08:29:43.551Z</time>
      </trkpt>
      <trkpt lat="42.45108" lon="18.76528">
        <ele>54.922949</ele>
        <time>2022-05-31T08:29:46.537Z</time>
      </trkpt>
      <trkpt lat="42.4512" lon="18.76529">
        <ele>54.908347</ele>
        <time>2022-05-31T08:29:49.555Z</time>
      </trkpt>
      <trkpt lat="42.45132" lon="18.76528">
        <ele>54.893623</ele>
        <time>2022-05-31T08:29:52.578Z</time>
      </trkpt>
      <trkpt lat="42.45145" lon="18.76527">
        <ele>54.878637</ele>
        <time>2022-05-31T08:29:55.571Z</time>
      </trkpt>
      <trkpt lat="42.45158" lon="18.76525">
        <ele>54.863698</ele>
        <time>2022-05-31T08:29:58.549Z</time>
      </trkpt>
      <trkpt lat="42.4517" lon="18.76523">
        <ele>54.848679</ele>
        <time>2022-05-31T08:30:01.548Z</time>
      </trkpt>
      <trkpt lat="42.45182" lon="18.76521">
        <ele>54.834788</ele>
        <time>2022-05-31T08:30:04.588Z</time>
      </trkpt>
      <trkpt lat="42.45193" lon="18.76516">
        <ele>54.821431</ele>
        <time>2022-05-31T08:30:07.542Z</time>
      </trkpt>
      <trkpt lat="42.45202" lon="18.76513">
        <ele>54.809903</ele>
        <time>2022-05-31T08:30:10.530Z</time>
      </trkpt>
      <trkpt lat="42.45212" lon="18.76511">
        <ele>54.819939</ele>
        <time>2022-05-31T08:30:13.557Z</time>
      </trkpt>
      <trkpt lat="42.45225" lon="18.76506">
        <ele>54.902753</ele>
        <time>2022-05-31T08:30:16.524Z</time>
      </trkpt>
      <trkpt lat="42.45234" lon="18.76502">
        <ele>54.962138</ele>
        <time>2022-05-31T08:30:18.553Z</time>
      </trkpt>
      <trkpt lat="42.45246" lon="18.76501">
        <ele>55.033718</ele>
        <time>2022-05-31T08:30:21.540Z</time>
      </trkpt>
      <trkpt lat="42.45256" lon="18.76501">
        <ele>55.092124</ele>
        <time>2022-05-31T08:30:24.548Z</time>
      </trkpt>
      <trkpt lat="42.45264" lon="18.76498">
        <ele>55.148385</ele>
        <time>2022-05-31T08:30:27.549Z</time>
      </trkpt>
      <trkpt lat="42.45274" lon="18.76496">
        <ele>55.210281</ele>
        <time>2022-05-31T08:30:30.549Z</time>
      </trkpt>
      <trkpt lat="42.45286" lon="18.76494">
        <ele>55.280113</ele>
        <time>2022-05-31T08:30:33.553Z</time>
      </trkpt>
      <trkpt lat="42.45299" lon="18.76494">
        <ele>55.360635</ele>
        <time>2022-05-31T08:30:36.543Z</time>
      </trkpt>
      <trkpt lat="42.45311" lon="18.76497">
        <ele>55.438305</ele>
        <time>2022-05-31T08:30:39.552Z</time>
      </trkpt>
      <trkpt lat="42.45323" lon="18.76501">
        <ele>55.512453</ele>
        <time>2022-05-31T08:30:42.537Z</time>
      </trkpt>
      <trkpt lat="42.45335" lon="18.76503">
        <ele>55.584794</ele>
        <time>2022-05-31T08:30:45.542Z</time>
      </trkpt>
      <trkpt lat="42.45346" lon="18.76505">
        <ele>55.65511</ele>
        <time>2022-05-31T08:30:48.590Z</time>
      </trkpt>
      <trkpt lat="42.45358" lon="18.76507">
        <ele>55.729345</ele>
        <time>2022-05-31T08:30:51.550Z</time>
      </trkpt>
      <trkpt lat="42.45369" lon="18.76512">
        <ele>55.801276</ele>
        <time>2022-05-31T08:30:54.536Z</time>
      </trkpt>
      <trkpt lat="42.45378" lon="18.76518">
        <ele>55.864289</ele>
        <time>2022-05-31T08:30:57.553Z</time>
      </trkpt>
      <trkpt lat="42.45388" lon="18.76526">
        <ele>55.807425</ele>
        <time>2022-05-31T08:31:00.533Z</time>
      </trkpt>
      <trkpt lat="42.45397" lon="18.76534">
        <ele>55.552859</ele>
        <time>2022-05-31T08:31:03.554Z</time>
      </trkpt>
      <trkpt lat="42.45407" lon="18.76542">
        <ele>55.286952</ele>
        <time>2022-05-31T08:31:06.549Z</time>
      </trkpt>
      <trkpt lat="42.45418" lon="18.76548">
        <ele>55.00513</ele>
        <time>2022-05-31T08:31:09.548Z</time>
      </trkpt>
      <trkpt lat="42.45429" lon="18.76553">
        <ele>54.739123</ele>
        <time>2022-05-31T08:31:12.542Z</time>
      </trkpt>
      <trkpt lat="42.45439" lon="18.76557">
        <ele>54.489866</ele>
        <time>2022-05-31T08:31:15.561Z</time>
      </trkpt>
      <trkpt lat="42.45448" lon="18.76561">
        <ele>54.25698</ele>
        <time>2022-05-31T08:31:18.580Z</time>
      </trkpt>
      <trkpt lat="42.45459" lon="18.76567">
        <ele>53.978639</ele>
        <time>2022-05-31T08:31:22.553Z</time>
      </trkpt>
      <trkpt lat="42.45468" lon="18.7657">
        <ele>53.756111</ele>
        <time>2022-05-31T08:31:25.531Z</time>
      </trkpt>
      <trkpt lat="42.4548" lon="18.76576">
        <ele>53.47542</ele>
        <time>2022-05-31T08:31:29.535Z</time>
      </trkpt>
      <trkpt lat="42.45489" lon="18.76581">
        <ele>53.240819</ele>
        <time>2022-05-31T08:31:32.557Z</time>
      </trkpt>
      <trkpt lat="42.45498" lon="18.76587">
        <ele>53.008248</ele>
        <time>2022-05-31T08:31:36.537Z</time>
      </trkpt>
      <trkpt lat="42.45509" lon="18.76592">
        <ele>52.728671</ele>
        <time>2022-05-31T08:31:40.533Z</time>
      </trkpt>
      <trkpt lat="42.4552" lon="18.76594">
        <ele>52.455294</ele>
        <time>2022-05-31T08:31:43.579Z</time>
      </trkpt>
      <trkpt lat="42.45533" lon="18.76592">
        <ele>52.168026</ele>
        <time>2022-05-31T08:31:46.558Z</time>
      </trkpt>
      <trkpt lat="42.45545" lon="18.76591">
        <ele>51.865761</ele>
        <time>2022-05-31T08:31:49.546Z</time>
      </trkpt>
      <trkpt lat="42.45558" lon="18.76589">
        <ele>51.715321</ele>
        <time>2022-05-31T08:31:52.553Z</time>
      </trkpt>
      <trkpt lat="42.45571" lon="18.76587">
        <ele>51.791177</ele>
        <time>2022-05-31T08:31:55.526Z</time>
      </trkpt>
      <trkpt lat="42.45583" lon="18.76583">
        <ele>51.865494</ele>
        <time>2022-05-31T08:31:58.551Z</time>
      </trkpt>
      <trkpt lat="42.45595" lon="18.76583">
        <ele>51.93761</ele>
        <time>2022-05-31T08:32:01.578Z</time>
      </trkpt>
      <trkpt lat="42.45607" lon="18.76586">
        <ele>52.008768</ele>
        <time>2022-05-31T08:32:04.553Z</time>
      </trkpt>
      <trkpt lat="42.45619" lon="18.76591">
        <ele>52.08079</ele>
        <time>2022-05-31T08:32:07.556Z</time>
      </trkpt>
      <trkpt lat="42.45631" lon="18.76591">
        <ele>52.154615</ele>
        <time>2022-05-31T08:32:10.546Z</time>
      </trkpt>
      <trkpt lat="42.45641" lon="18.76581">
        <ele>52.226736</ele>
        <time>2022-05-31T08:32:13.549Z</time>
      </trkpt>
      <trkpt lat="42.45649" lon="18.7657">
        <ele>52.293685</ele>
        <time>2022-05-31T08:32:16.593Z</time>
      </trkpt>
      <trkpt lat="42.45657" lon="18.7656">
        <ele>52.359426</ele>
        <time>2022-05-31T08:32:19.545Z</time>
      </trkpt>
      <trkpt lat="42.45668" lon="18.76552">
        <ele>52.430248</ele>
        <time>2022-05-31T08:32:22.550Z</time>
      </trkpt>
      <trkpt lat="42.45679" lon="18.76547">
        <ele>52.49847</ele>
        <time>2022-05-31T08:32:25.546Z</time>
      </trkpt>
      <trkpt lat="42.45688" lon="18.76541">
        <ele>52.558052</ele>
        <time>2022-05-31T08:32:28.554Z</time>
      </trkpt>
      <trkpt lat="42.45698" lon="18.76535">
        <ele>52.622681</ele>
        <time>2022-05-31T08:32:32.545Z</time>
      </trkpt>
      <trkpt lat="42.45707" lon="18.76527">
        <ele>52.686663</ele>
        <time>2022-05-31T08:32:36.553Z</time>
      </trkpt>
      <trkpt lat="42.45715" lon="18.7652">
        <ele>52.741911</ele>
        <time>2022-05-31T08:32:39.543Z</time>
      </trkpt>
      <trkpt lat="42.45724" lon="18.76513">
        <ele>53.050202</ele>
        <time>2022-05-31T08:32:42.550Z</time>
      </trkpt>
      <trkpt lat="42.45734" lon="18.76507">
        <ele>53.393789</ele>
        <time>2022-05-31T08:32:45.585Z</time>
      </trkpt>
      <trkpt lat="42.45745" lon="18.765">
        <ele>53.7726</ele>
        <time>2022-05-31T08:32:48.560Z</time>
      </trkpt>
      <trkpt lat="42.45756" lon="18.76495">
        <ele>54.122108</ele>
        <time>2022-05-31T08:32:51.555Z</time>
      </trkpt>
      <trkpt lat="42.45766" lon="18.76492">
        <ele>54.456049</ele>
        <time>2022-05-31T08:32:54.551Z</time>
      </trkpt>
      <trkpt lat="42.45776" lon="18.76492">
        <ele>54.741961</ele>
        <time>2022-05-31T08:32:57.548Z</time>
      </trkpt>
      <trkpt lat="42.45786" lon="18.76493">
        <ele>55.069389</ele>
        <time>2022-05-31T08:33:01.554Z</time>
      </trkpt>
      <trkpt lat="42.45796" lon="18.76496">
        <ele>55.371979</ele>
        <time>2022-05-31T08:33:04.542Z</time>
      </trkpt>
      <trkpt lat="42.45805" lon="18.76499">
        <ele>55.67226</ele>
        <time>2022-05-31T08:33:08.539Z</time>
      </trkpt>
      <trkpt lat="42.45816" lon="18.76503">
        <ele>56.015861</ele>
        <time>2022-05-31T08:33:12.559Z</time>
      </trkpt>
      <trkpt lat="42.45827" lon="18.76509">
        <ele>56.387418</ele>
        <time>2022-05-31T08:33:16.529Z</time>
      </trkpt>
      <trkpt lat="42.45837" lon="18.76513">
        <ele>56.703835</ele>
        <time>2022-05-31T08:33:20.543Z</time>
      </trkpt>
      <trkpt lat="42.45846" lon="18.76516">
        <ele>57.00241</ele>
        <time>2022-05-31T08:33:25.551Z</time>
      </trkpt>
      <trkpt lat="42.45857" lon="18.76516">
        <ele>57.338034</ele>
        <time>2022-05-31T08:33:29.549Z</time>
      </trkpt>
      <trkpt lat="42.45866" lon="18.76514">
        <ele>57.633024</ele>
        <time>2022-05-31T08:33:32.543Z</time>
      </trkpt>
      <trkpt lat="42.45876" lon="18.7651">
        <ele>57.93718</ele>
        <time>2022-05-31T08:33:35.554Z</time>
      </trkpt>
      <trkpt lat="42.45884" lon="18.76505">
        <ele>58.235662</ele>
        <time>2022-05-31T08:33:38.549Z</time>
      </trkpt>
      <trkpt lat="42.45893" lon="18.76498">
        <ele>58.461952</ele>
        <time>2022-05-31T08:33:41.550Z</time>
      </trkpt>
      <trkpt lat="42.45902" lon="18.7649">
        <ele>58.652939</ele>
        <time>2022-05-31T08:33:44.557Z</time>
      </trkpt>
      <trkpt lat="42.4591" lon="18.76482">
        <ele>58.84239</ele>
        <time>2022-05-31T08:33:47.580Z</time>
      </trkpt>
      <trkpt lat="42.45919" lon="18.76475">
        <ele>59.031908</ele>
        <time>2022-05-31T08:33:50.533Z</time>
      </trkpt>
      <trkpt lat="42.45929" lon="18.76471">
        <ele>59.220672</ele>
        <time>2022-05-31T08:33:53.567Z</time>
      </trkpt>
      <trkpt lat="42.4594" lon="18.76475">
        <ele>59.439716</ele>
        <time>2022-05-31T08:33:56.553Z</time>
      </trkpt>
      <trkpt lat="42.45952" lon="18.76477">
        <ele>59.655615</ele>
        <time>2022-05-31T08:33:59.582Z</time>
      </trkpt>
      <trkpt lat="42.45963" lon="18.76479">
        <ele>59.853974</ele>
        <time>2022-05-31T08:34:02.545Z</time>
      </trkpt>
      <trkpt lat="42.45974" lon="18.76479">
        <ele>60.059842</ele>
        <time>2022-05-31T08:34:05.547Z</time>
      </trkpt>
      <trkpt lat="42.45983" lon="18.76475">
        <ele>60.237893</ele>
        <time>2022-05-31T08:34:08.547Z</time>
      </trkpt>
      <trkpt lat="42.45992" lon="18.76468">
        <ele>60.417282</ele>
        <time>2022-05-31T08:34:11.533Z</time>
      </trkpt>
      <trkpt lat="42.45999" lon="18.76456">
        <ele>60.632132</ele>
        <time>2022-05-31T08:34:15.546Z</time>
      </trkpt>
      <trkpt lat="42.46008" lon="18.76447">
        <ele>60.832183</ele>
        <time>2022-05-31T08:34:18.559Z</time>
      </trkpt>
      <trkpt lat="42.46015" lon="18.76435">
        <ele>61.038941</ele>
        <time>2022-05-31T08:34:21.575Z</time>
      </trkpt>
      <trkpt lat="42.46024" lon="18.76424">
        <ele>61.263256</ele>
        <time>2022-05-31T08:34:24.546Z</time>
      </trkpt>
      <trkpt lat="42.46032" lon="18.76413">
        <ele>61.476612</ele>
        <time>2022-05-31T08:34:27.548Z</time>
      </trkpt>
      <trkpt lat="42.46043" lon="18.76408">
        <ele>61.510472</ele>
        <time>2022-05-31T08:34:30.539Z</time>
      </trkpt>
      <trkpt lat="42.46054" lon="18.76407">
        <ele>60.820081</ele>
        <time>2022-05-31T08:34:33.538Z</time>
      </trkpt>
      <trkpt lat="42.46066" lon="18.76408">
        <ele>60.091931</ele>
        <time>2022-05-31T08:34:36.561Z</time>
      </trkpt>
      <trkpt lat="42.46077" lon="18.7641">
        <ele>59.469994</ele>
        <time>2022-05-31T08:34:39.538Z</time>
      </trkpt>
      <trkpt lat="42.46088" lon="18.76411">
        <ele>58.778073</ele>
        <time>2022-05-31T08:34:44.556Z</time>
      </trkpt>
      <trkpt lat="42.461" lon="18.76413">
        <ele>58.047841</ele>
        <time>2022-05-31T08:34:48.549Z</time>
      </trkpt>
      <trkpt lat="42.46111" lon="18.76415">
        <ele>57.390132</ele>
        <time>2022-05-31T08:34:51.546Z</time>
      </trkpt>
      <trkpt lat="42.46122" lon="18.76416">
        <ele>56.769566</ele>
        <time>2022-05-31T08:34:54.551Z</time>
      </trkpt>
      <trkpt lat="42.46132" lon="18.76417">
        <ele>56.142606</ele>
        <time>2022-05-31T08:34:57.577Z</time>
      </trkpt>
      <trkpt lat="42.46142" lon="18.76418">
        <ele>55.523131</ele>
        <time>2022-05-31T08:35:00.538Z</time>
      </trkpt>
      <trkpt lat="42.46154" lon="18.7642">
        <ele>54.836035</ele>
        <time>2022-05-31T08:35:03.582Z</time>
      </trkpt>
      <trkpt lat="42.46165" lon="18.76422">
        <ele>54.176764</ele>
        <time>2022-05-31T08:35:06.544Z</time>
      </trkpt>
      <trkpt lat="42.46175" lon="18.76423">
        <ele>53.526704</ele>
        <time>2022-05-31T08:35:09.593Z</time>
      </trkpt>
      <trkpt lat="42.46186" lon="18.76422">
        <ele>52.866092</ele>
        <time>2022-05-31T08:35:12.545Z</time>
      </trkpt>
      <trkpt lat="42.46197" lon="18.76421">
        <ele>52.21981</ele>
        <time>2022-05-31T08:35:15.559Z</time>
      </trkpt>
      <trkpt lat="42.46208" lon="18.76418">
        <ele>51.581748</ele>
        <time>2022-05-31T08:35:18.547Z</time>
      </trkpt>
      <trkpt lat="42.46218" lon="18.76414">
        <ele>50.933898</ele>
        <time>2022-05-31T08:35:21.537Z</time>
      </trkpt>
      <trkpt lat="42.46228" lon="18.76412">
        <ele>50.894532</ele>
        <time>2022-05-31T08:35:24.518Z</time>
      </trkpt>
      <trkpt lat="42.4624" lon="18.76411">
        <ele>50.953662</ele>
        <time>2022-05-31T08:35:27.537Z</time>
      </trkpt>
      <trkpt lat="42.4625" lon="18.76408">
        <ele>51.005146</ele>
        <time>2022-05-31T08:35:30.524Z</time>
      </trkpt>
      <trkpt lat="42.46261" lon="18.76405">
        <ele>51.060834</ele>
        <time>2022-05-31T08:35:33.551Z</time>
      </trkpt>
      <trkpt lat="42.46272" lon="18.76402">
        <ele>51.113181</ele>
        <time>2022-05-31T08:35:36.573Z</time>
      </trkpt>
      <trkpt lat="42.46282" lon="18.76398">
        <ele>51.166574</ele>
        <time>2022-05-31T08:35:39.556Z</time>
      </trkpt>
      <trkpt lat="42.46294" lon="18.76394">
        <ele>51.227223</ele>
        <time>2022-05-31T08:35:42.580Z</time>
      </trkpt>
      <trkpt lat="42.46306" lon="18.76391">
        <ele>51.286898</ele>
        <time>2022-05-31T08:35:45.529Z</time>
      </trkpt>
      <trkpt lat="42.46317" lon="18.7639">
        <ele>51.342353</ele>
        <time>2022-05-31T08:35:48.570Z</time>
      </trkpt>
      <trkpt lat="42.46328" lon="18.76391">
        <ele>51.39634</ele>
        <time>2022-05-31T08:35:51.539Z</time>
      </trkpt>
      <trkpt lat="42.4634" lon="18.76392">
        <ele>51.4514</ele>
        <time>2022-05-31T08:35:54.554Z</time>
      </trkpt>
      <trkpt lat="42.4635" lon="18.76393">
        <ele>51.502962</ele>
        <time>2022-05-31T08:35:57.545Z</time>
      </trkpt>
      <trkpt lat="42.46361" lon="18.76394">
        <ele>51.556068</ele>
        <time>2022-05-31T08:36:00.539Z</time>
      </trkpt>
      <trkpt lat="42.46371" lon="18.76396">
        <ele>51.605903</ele>
        <time>2022-05-31T08:36:03.545Z</time>
      </trkpt>
      <trkpt lat="42.46381" lon="18.76397">
        <ele>51.657056</ele>
        <time>2022-05-31T08:36:06.543Z</time>
      </trkpt>
      <trkpt lat="42.46392" lon="18.76397">
        <ele>51.708037</ele>
        <time>2022-05-31T08:36:09.548Z</time>
      </trkpt>
      <trkpt lat="42.46402" lon="18.76398">
        <ele>51.715718</ele>
        <time>2022-05-31T08:36:12.530Z</time>
      </trkpt>
      <trkpt lat="42.46412" lon="18.76398">
        <ele>51.67756</ele>
        <time>2022-05-31T08:36:15.548Z</time>
      </trkpt>
      <trkpt lat="42.46422" lon="18.76396">
        <ele>51.636801</ele>
        <time>2022-05-31T08:36:18.558Z</time>
      </trkpt>
      <trkpt lat="42.46433" lon="18.76394">
        <ele>51.594246</ele>
        <time>2022-05-31T08:36:21.578Z</time>
      </trkpt>
      <trkpt lat="42.46444" lon="18.7639">
        <ele>51.551897</ele>
        <time>2022-05-31T08:36:24.565Z</time>
      </trkpt>
      <trkpt lat="42.46454" lon="18.76386">
        <ele>51.510873</ele>
        <time>2022-05-31T08:36:27.545Z</time>
      </trkpt>
      <trkpt lat="42.46465" lon="18.76383">
        <ele>51.471167</ele>
        <time>2022-05-31T08:36:30.528Z</time>
      </trkpt>
      <trkpt lat="42.46474" lon="18.7638">
        <ele>51.433009</ele>
        <time>2022-05-31T08:36:33.561Z</time>
      </trkpt>
      <trkpt lat="42.46484" lon="18.76376">
        <ele>51.393973</ele>
        <time>2022-05-31T08:36:36.602Z</time>
      </trkpt>
      <trkpt lat="42.46494" lon="18.76373">
        <ele>51.355513</ele>
        <time>2022-05-31T08:36:39.579Z</time>
      </trkpt>
      <trkpt lat="42.46505" lon="18.7637">
        <ele>51.312215</ele>
        <time>2022-05-31T08:36:43.539Z</time>
      </trkpt>
      <trkpt lat="42.46514" lon="18.76367">
        <ele>51.27624</ele>
        <time>2022-05-31T08:36:47.555Z</time>
      </trkpt>
      <trkpt lat="42.46525" lon="18.76362">
        <ele>51.231884</ele>
        <time>2022-05-31T08:36:51.594Z</time>
      </trkpt>
      <trkpt lat="42.46534" lon="18.76358">
        <ele>51.196197</ele>
        <time>2022-05-31T08:36:54.549Z</time>
      </trkpt>
      <trkpt lat="42.46543" lon="18.76355">
        <ele>51.16136</ele>
        <time>2022-05-31T08:36:57.589Z</time>
      </trkpt>
      <trkpt lat="42.46552" lon="18.76352">
        <ele>51.125504</ele>
        <time>2022-05-31T08:37:00.541Z</time>
      </trkpt>
      <trkpt lat="42.46562" lon="18.76348">
        <ele>51.085803</ele>
        <time>2022-05-31T08:37:03.548Z</time>
      </trkpt>
      <trkpt lat="42.46572" lon="18.76345">
        <ele>51.047665</ele>
        <time>2022-05-31T08:37:06.557Z</time>
      </trkpt>
      <trkpt lat="42.46582" lon="18.76343">
        <ele>51.066544</ele>
        <time>2022-05-31T08:37:09.540Z</time>
      </trkpt>
      <trkpt lat="42.46592" lon="18.76341">
        <ele>51.086987</ele>
        <time>2022-05-31T08:37:12.540Z</time>
      </trkpt>
      <trkpt lat="42.46603" lon="18.76339">
        <ele>51.107661</ele>
        <time>2022-05-31T08:37:15.549Z</time>
      </trkpt>
      <trkpt lat="42.46614" lon="18.76337">
        <ele>51.128932</ele>
        <time>2022-05-31T08:37:18.547Z</time>
      </trkpt>
      <trkpt lat="42.46624" lon="18.76332">
        <ele>51.149467</ele>
        <time>2022-05-31T08:37:21.543Z</time>
      </trkpt>
      <trkpt lat="42.46635" lon="18.76328">
        <ele>51.171403</ele>
        <time>2022-05-31T08:37:24.534Z</time>
      </trkpt>
      <trkpt lat="42.46646" lon="18.76325">
        <ele>51.193214</ele>
        <time>2022-05-31T08:37:27.537Z</time>
      </trkpt>
      <trkpt lat="42.46657" lon="18.76321">
        <ele>51.214287</ele>
        <time>2022-05-31T08:37:30.540Z</time>
      </trkpt>
      <trkpt lat="42.46666" lon="18.76317">
        <ele>51.233815</ele>
        <time>2022-05-31T08:37:33.553Z</time>
      </trkpt>
      <trkpt lat="42.46676" lon="18.76315">
        <ele>51.253309</ele>
        <time>2022-05-31T08:37:36.548Z</time>
      </trkpt>
      <trkpt lat="42.46686" lon="18.76311">
        <ele>51.273417</ele>
        <time>2022-05-31T08:37:39.545Z</time>
      </trkpt>
      <trkpt lat="42.46696" lon="18.76308">
        <ele>51.293042</ele>
        <time>2022-05-31T08:37:42.540Z</time>
      </trkpt>
      <trkpt lat="42.46706" lon="18.76306">
        <ele>51.312031</ele>
        <time>2022-05-31T08:37:45.546Z</time>
      </trkpt>
      <trkpt lat="42.46718" lon="18.76303">
        <ele>51.334378</ele>
        <time>2022-05-31T08:37:48.583Z</time>
      </trkpt>
      <trkpt lat="42.46727" lon="18.76303">
        <ele>51.352444</ele>
        <time>2022-05-31T08:37:51.556Z</time>
      </trkpt>
      <trkpt lat="42.46737" lon="18.76301">
        <ele>51.371181</ele>
        <time>2022-05-31T08:37:54.536Z</time>
      </trkpt>
      <trkpt lat="42.46748" lon="18.76303">
        <ele>51.39262</ele>
        <time>2022-05-31T08:37:58.537Z</time>
      </trkpt>
      <trkpt lat="42.46757" lon="18.76307">
        <ele>51.708723</ele>
        <time>2022-05-31T08:38:01.558Z</time>
      </trkpt>
      <trkpt lat="42.46768" lon="18.76313">
        <ele>52.093406</ele>
        <time>2022-05-31T08:38:04.551Z</time>
      </trkpt>
      <trkpt lat="42.4678" lon="18.76319">
        <ele>52.519652</ele>
        <time>2022-05-31T08:38:07.538Z</time>
      </trkpt>
      <trkpt lat="42.46791" lon="18.76323">
        <ele>52.920281</ele>
        <time>2022-05-31T08:38:10.573Z</time>
      </trkpt>
      <trkpt lat="42.46802" lon="18.76327">
        <ele>53.298439</ele>
        <time>2022-05-31T08:38:13.575Z</time>
      </trkpt>
      <trkpt lat="42.46814" lon="18.76331">
        <ele>53.691988</ele>
        <time>2022-05-31T08:38:16.547Z</time>
      </trkpt>
      <trkpt lat="42.46824" lon="18.76336">
        <ele>54.051521</ele>
        <time>2022-05-31T08:38:19.548Z</time>
      </trkpt>
      <trkpt lat="42.46834" lon="18.7634">
        <ele>54.400901</ele>
        <time>2022-05-31T08:38:22.543Z</time>
      </trkpt>
      <trkpt lat="42.46845" lon="18.76343">
        <ele>54.750115</ele>
        <time>2022-05-31T08:38:25.562Z</time>
      </trkpt>
      <trkpt lat="42.46855" lon="18.76346">
        <ele>55.11009</ele>
        <time>2022-05-31T08:38:28.550Z</time>
      </trkpt>
      <trkpt lat="42.46866" lon="18.76351">
        <ele>55.468063</ele>
        <time>2022-05-31T08:38:31.538Z</time>
      </trkpt>
      <trkpt lat="42.46874" lon="18.76356">
        <ele>55.778245</ele>
        <time>2022-05-31T08:38:34.556Z</time>
      </trkpt>
      <trkpt lat="42.46883" lon="18.76361">
        <ele>56.087471</ele>
        <time>2022-05-31T08:38:37.554Z</time>
      </trkpt>
      <trkpt lat="42.46892" lon="18.76365">
        <ele>56.419465</ele>
        <time>2022-05-31T08:38:40.553Z</time>
      </trkpt>
      <trkpt lat="42.46902" lon="18.76369">
        <ele>56.749912</ele>
        <time>2022-05-31T08:38:43.548Z</time>
      </trkpt>
      <trkpt lat="42.46911" lon="18.76374">
        <ele>57.085827</ele>
        <time>2022-05-31T08:38:46.562Z</time>
      </trkpt>
      <trkpt lat="42.4692" lon="18.76379">
        <ele>57.366138</ele>
        <time>2022-05-31T08:38:49.549Z</time>
      </trkpt>
      <trkpt lat="42.4693" lon="18.76384">
        <ele>57.433114</ele>
        <time>2022-05-31T08:38:52.572Z</time>
      </trkpt>
      <trkpt lat="42.4694" lon="18.76391">
        <ele>57.504558</ele>
        <time>2022-05-31T08:38:55.545Z</time>
      </trkpt>
      <trkpt lat="42.4695" lon="18.76398">
        <ele>57.577679</ele>
        <time>2022-05-31T08:38:58.528Z</time>
      </trkpt>
      <trkpt lat="42.46959" lon="18.76408">
        <ele>57.649925</ele>
        <time>2022-05-31T08:39:01.541Z</time>
      </trkpt>
      <trkpt lat="42.46967" lon="18.76418">
        <ele>57.715168</ele>
        <time>2022-05-31T08:39:04.536Z</time>
      </trkpt>
      <trkpt lat="42.46974" lon="18.76428">
        <ele>57.781005</ele>
        <time>2022-05-31T08:39:07.556Z</time>
      </trkpt>
      <trkpt lat="42.46982" lon="18.7644">
        <ele>57.8558</ele>
        <time>2022-05-31T08:39:11.581Z</time>
      </trkpt>
      <trkpt lat="42.4699" lon="18.76449">
        <ele>57.924966</ele>
        <time>2022-05-31T08:39:15.551Z</time>
      </trkpt>
      <trkpt lat="42.46999" lon="18.76455">
        <ele>57.985653</ele>
        <time>2022-05-31T08:39:19.592Z</time>
      </trkpt>
      <trkpt lat="42.47008" lon="18.76459">
        <ele>58.047047</ele>
        <time>2022-05-31T08:39:23.553Z</time>
      </trkpt>
      <trkpt lat="42.47017" lon="18.76463">
        <ele>58.110192</ele>
        <time>2022-05-31T08:39:27.539Z</time>
      </trkpt>
      <trkpt lat="42.47027" lon="18.76465">
        <ele>58.169962</ele>
        <time>2022-05-31T08:39:31.553Z</time>
      </trkpt>
      <trkpt lat="42.47037" lon="18.76465">
        <ele>58.232091</ele>
        <time>2022-05-31T08:39:36.551Z</time>
      </trkpt>
      <trkpt lat="42.47047" lon="18.76464">
        <ele>58.296923</ele>
        <time>2022-05-31T08:39:41.552Z</time>
      </trkpt>
      <trkpt lat="42.47056" lon="18.7646">
        <ele>58.361018</ele>
        <time>2022-05-31T08:39:47.546Z</time>
      </trkpt>
      <trkpt lat="42.47065" lon="18.76452">
        <ele>58.424777</ele>
        <time>2022-05-31T08:39:53.552Z</time>
      </trkpt>
      <trkpt lat="42.47074" lon="18.7645">
        <ele>58.485724</ele>
        <time>2022-05-31T08:39:59.565Z</time>
      </trkpt>
      <trkpt lat="42.47082" lon="18.76457">
        <ele>58.734961</ele>
        <time>2022-05-31T08:40:05.554Z</time>
      </trkpt>
      <trkpt lat="42.47093" lon="18.76454">
        <ele>59.090347</ele>
        <time>2022-05-31T08:40:10.554Z</time>
      </trkpt>
      <trkpt lat="42.47103" lon="18.76449">
        <ele>59.408396</ele>
        <time>2022-05-31T08:40:14.577Z</time>
      </trkpt>
      <trkpt lat="42.47112" lon="18.76443">
        <ele>59.731361</ele>
        <time>2022-05-31T08:40:18.547Z</time>
      </trkpt>
      <trkpt lat="42.47122" lon="18.76437">
        <ele>60.07205</ele>
        <time>2022-05-31T08:40:22.571Z</time>
      </trkpt>
      <trkpt lat="42.47133" lon="18.76432">
        <ele>60.425811</ele>
        <time>2022-05-31T08:40:26.534Z</time>
      </trkpt>
      <trkpt lat="42.47143" lon="18.76426">
        <ele>60.777884</ele>
        <time>2022-05-31T08:40:30.539Z</time>
      </trkpt>
      <trkpt lat="42.47153" lon="18.76419">
        <ele>61.136805</ele>
        <time>2022-05-31T08:40:34.556Z</time>
      </trkpt>
      <trkpt lat="42.47162" lon="18.76413">
        <ele>61.436191</ele>
        <time>2022-05-31T08:40:37.556Z</time>
      </trkpt>
      <trkpt lat="42.47171" lon="18.76408">
        <ele>61.745463</ele>
        <time>2022-05-31T08:40:40.531Z</time>
      </trkpt>
      <trkpt lat="42.47181" lon="18.76403">
        <ele>62.068055</ele>
        <time>2022-05-31T08:40:43.540Z</time>
      </trkpt>
      <trkpt lat="42.47191" lon="18.764">
        <ele>62.397178</ele>
        <time>2022-05-31T08:40:46.548Z</time>
      </trkpt>
      <trkpt lat="42.472" lon="18.76398">
        <ele>62.690999</ele>
        <time>2022-05-31T08:40:49.543Z</time>
      </trkpt>
      <trkpt lat="42.47212" lon="18.764">
        <ele>63.067698</ele>
        <time>2022-05-31T08:40:52.547Z</time>
      </trkpt>
      <trkpt lat="42.47225" lon="18.76404">
        <ele>63.486858</ele>
        <time>2022-05-31T08:40:55.538Z</time>
      </trkpt>
      <trkpt lat="42.47234" lon="18.76409">
        <ele>63.767365</ele>
        <time>2022-05-31T08:40:57.548Z</time>
      </trkpt>
      <trkpt lat="42.47242" lon="18.76415">
        <ele>64.058469</ele>
        <time>2022-05-31T08:40:59.553Z</time>
      </trkpt>
      <trkpt lat="42.47251" lon="18.76423">
        <ele>63.83111</ele>
        <time>2022-05-31T08:41:01.580Z</time>
      </trkpt>
      <trkpt lat="42.4726" lon="18.76432">
        <ele>63.449477</ele>
        <time>2022-05-31T08:41:03.534Z</time>
      </trkpt>
      <trkpt lat="42.47269" lon="18.76442">
        <ele>63.073587</ele>
        <time>2022-05-31T08:41:05.636Z</time>
      </trkpt>
      <trkpt lat="42.47279" lon="18.76453">
        <ele>62.685342</ele>
        <time>2022-05-31T08:41:07.544Z</time>
      </trkpt>
      <trkpt lat="42.47289" lon="18.76462">
        <ele>62.287729</ele>
        <time>2022-05-31T08:41:09.556Z</time>
      </trkpt>
      <trkpt lat="42.47301" lon="18.7647">
        <ele>61.875722</ele>
        <time>2022-05-31T08:41:11.555Z</time>
      </trkpt>
      <trkpt lat="42.47315" lon="18.76475">
        <ele>61.399328</ele>
        <time>2022-05-31T08:41:13.568Z</time>
      </trkpt>
      <trkpt lat="42.47331" lon="18.76477">
        <ele>60.867589</ele>
        <time>2022-05-31T08:41:15.525Z</time>
      </trkpt>
      <trkpt lat="42.47347" lon="18.76475">
        <ele>60.361462</ele>
        <time>2022-05-31T08:41:17.556Z</time>
      </trkpt>
      <trkpt lat="42.47362" lon="18.7647">
        <ele>59.859583</ele>
        <time>2022-05-31T08:41:19.575Z</time>
      </trkpt>
      <trkpt lat="42.47377" lon="18.76465">
        <ele>59.357873</ele>
        <time>2022-05-31T08:41:21.559Z</time>
      </trkpt>
      <trkpt lat="42.47392" lon="18.7646">
        <ele>58.861682</ele>
        <time>2022-05-31T08:41:23.544Z</time>
      </trkpt>
      <trkpt lat="42.47406" lon="18.76457">
        <ele>58.410274</ele>
        <time>2022-05-31T08:41:25.537Z</time>
      </trkpt>
      <trkpt lat="42.4742" lon="18.76458">
        <ele>58.209707</ele>
        <time>2022-05-31T08:41:27.557Z</time>
      </trkpt>
      <trkpt lat="42.47434" lon="18.76463">
        <ele>58.051827</ele>
        <time>2022-05-31T08:41:29.558Z</time>
      </trkpt>
      <trkpt lat="42.47447" lon="18.7647">
        <ele>57.901415</ele>
        <time>2022-05-31T08:41:31.545Z</time>
      </trkpt>
      <trkpt lat="42.47459" lon="18.76477">
        <ele>57.759063</ele>
        <time>2022-05-31T08:41:33.546Z</time>
      </trkpt>
      <trkpt lat="42.4747" lon="18.76482">
        <ele>57.6237</ele>
        <time>2022-05-31T08:41:35.565Z</time>
      </trkpt>
      <trkpt lat="42.47483" lon="18.76484">
        <ele>57.486774</ele>
        <time>2022-05-31T08:41:37.550Z</time>
      </trkpt>
      <trkpt lat="42.47495" lon="18.76483">
        <ele>57.348211</ele>
        <time>2022-05-31T08:41:39.554Z</time>
      </trkpt>
      <trkpt lat="42.47508" lon="18.7648">
        <ele>57.21191</ele>
        <time>2022-05-31T08:41:41.528Z</time>
      </trkpt>
      <trkpt lat="42.47519" lon="18.76477">
        <ele>57.086587</ele>
        <time>2022-05-31T08:41:43.557Z</time>
      </trkpt>
      <trkpt lat="42.4753" lon="18.76476">
        <ele>56.965876</ele>
        <time>2022-05-31T08:41:45.555Z</time>
      </trkpt>
      <trkpt lat="42.47541" lon="18.76475">
        <ele>56.844245</ele>
        <time>2022-05-31T08:41:47.528Z</time>
      </trkpt>
      <trkpt lat="42.47552" lon="18.76476">
        <ele>56.724507</ele>
        <time>2022-05-31T08:41:49.554Z</time>
      </trkpt>
      <trkpt lat="42.47562" lon="18.76478">
        <ele>56.611082</ele>
        <time>2022-05-31T08:41:51.550Z</time>
      </trkpt>
      <trkpt lat="42.47572" lon="18.7648">
        <ele>56.502974</ele>
        <time>2022-05-31T08:41:53.550Z</time>
      </trkpt>
      <trkpt lat="42.47585" lon="18.76484">
        <ele>56.367686</ele>
        <time>2022-05-31T08:41:56.550Z</time>
      </trkpt>
      <trkpt lat="42.47598" lon="18.76482">
        <ele>56.366987</ele>
        <time>2022-05-31T08:41:59.545Z</time>
      </trkpt>
      <trkpt lat="42.47607" lon="18.76477">
        <ele>56.366489</ele>
        <time>2022-05-31T08:42:01.542Z</time>
      </trkpt>
      <trkpt lat="42.47615" lon="18.76469">
        <ele>56.36597</ele>
        <time>2022-05-31T08:42:03.550Z</time>
      </trkpt>
      <trkpt lat="42.47623" lon="18.7646">
        <ele>56.365422</ele>
        <time>2022-05-31T08:42:05.550Z</time>
      </trkpt>
      <trkpt lat="42.4763" lon="18.7645">
        <ele>56.364894</ele>
        <time>2022-05-31T08:42:07.536Z</time>
      </trkpt>
      <trkpt lat="42.47637" lon="18.76441">
        <ele>56.364384</ele>
        <time>2022-05-31T08:42:09.537Z</time>
      </trkpt>
      <trkpt lat="42.47645" lon="18.76432">
        <ele>56.36385</ele>
        <time>2022-05-31T08:42:11.555Z</time>
      </trkpt>
      <trkpt lat="42.47652" lon="18.76423">
        <ele>56.3633</ele>
        <time>2022-05-31T08:42:13.541Z</time>
      </trkpt>
      <trkpt lat="42.4766" lon="18.76414">
        <ele>56.362751</ele>
        <time>2022-05-31T08:42:15.566Z</time>
      </trkpt>
      <trkpt lat="42.47668" lon="18.76405">
        <ele>56.362209</ele>
        <time>2022-05-31T08:42:17.550Z</time>
      </trkpt>
      <trkpt lat="42.47677" lon="18.76395">
        <ele>56.361637</ele>
        <time>2022-05-31T08:42:19.626Z</time>
      </trkpt>
      <trkpt lat="42.47685" lon="18.76388">
        <ele>56.361098</ele>
        <time>2022-05-31T08:42:21.577Z</time>
      </trkpt>
      <trkpt lat="42.47694" lon="18.76383">
        <ele>56.360615</ele>
        <time>2022-05-31T08:42:23.553Z</time>
      </trkpt>
      <trkpt lat="42.47706" lon="18.76376">
        <ele>56.359915</ele>
        <time>2022-05-31T08:42:26.555Z</time>
      </trkpt>
      <trkpt lat="42.47717" lon="18.76369">
        <ele>56.359283</ele>
        <time>2022-05-31T08:42:29.544Z</time>
      </trkpt>
      <trkpt lat="42.47728" lon="18.76361">
        <ele>56.35863</ele>
        <time>2022-05-31T08:42:32.586Z</time>
      </trkpt>
      <trkpt lat="42.47738" lon="18.76353">
        <ele>56.370739</ele>
        <time>2022-05-31T08:42:35.545Z</time>
      </trkpt>
      <trkpt lat="42.4775" lon="18.76347">
        <ele>56.401258</ele>
        <time>2022-05-31T08:42:38.563Z</time>
      </trkpt>
      <trkpt lat="42.4776" lon="18.76345">
        <ele>56.424666</ele>
        <time>2022-05-31T08:42:40.539Z</time>
      </trkpt>
      <trkpt lat="42.4777" lon="18.76342">
        <ele>56.447202</ele>
        <time>2022-05-31T08:42:42.616Z</time>
      </trkpt>
      <trkpt lat="42.47778" lon="18.7634">
        <ele>56.468546</ele>
        <time>2022-05-31T08:42:44.540Z</time>
      </trkpt>
      <trkpt lat="42.47791" lon="18.76337">
        <ele>56.498394</ele>
        <time>2022-05-31T08:42:47.539Z</time>
      </trkpt>
      <trkpt lat="42.47802" lon="18.76334">
        <ele>56.525353</ele>
        <time>2022-05-31T08:42:50.539Z</time>
      </trkpt>
      <trkpt lat="42.47812" lon="18.76331">
        <ele>56.550364</ele>
        <time>2022-05-31T08:42:53.549Z</time>
      </trkpt>
      <trkpt lat="42.47822" lon="18.76326">
        <ele>56.574251</ele>
        <time>2022-05-31T08:42:56.555Z</time>
      </trkpt>
      <trkpt lat="42.47831" lon="18.76321">
        <ele>56.598707</ele>
        <time>2022-05-31T08:42:59.552Z</time>
      </trkpt>
      <trkpt lat="42.4784" lon="18.76317">
        <ele>56.619975</ele>
        <time>2022-05-31T08:43:02.584Z</time>
      </trkpt>
      <trkpt lat="42.47851" lon="18.76312">
        <ele>56.646231</ele>
        <time>2022-05-31T08:43:06.580Z</time>
      </trkpt>
      <trkpt lat="42.4786" lon="18.76309">
        <ele>56.668729</ele>
        <time>2022-05-31T08:43:09.544Z</time>
      </trkpt>
      <trkpt lat="42.47871" lon="18.76306">
        <ele>56.694704</ele>
        <time>2022-05-31T08:43:12.546Z</time>
      </trkpt>
      <trkpt lat="42.47882" lon="18.76307">
        <ele>56.721401</ele>
        <time>2022-05-31T08:43:15.551Z</time>
      </trkpt>
      <trkpt lat="42.47892" lon="18.7631">
        <ele>56.746454</ele>
        <time>2022-05-31T08:43:18.546Z</time>
      </trkpt>
      <trkpt lat="42.47903" lon="18.76315">
        <ele>56.773917</ele>
        <time>2022-05-31T08:43:21.535Z</time>
      </trkpt>
      <trkpt lat="42.47913" lon="18.76317">
        <ele>56.67051</ele>
        <time>2022-05-31T08:43:24.550Z</time>
      </trkpt>
      <trkpt lat="42.47924" lon="18.76321">
        <ele>56.469714</ele>
        <time>2022-05-31T08:43:28.570Z</time>
      </trkpt>
      <trkpt lat="42.47933" lon="18.76326">
        <ele>56.282465</ele>
        <time>2022-05-31T08:43:31.553Z</time>
      </trkpt>
      <trkpt lat="42.47943" lon="18.76334">
        <ele>56.070288</ele>
        <time>2022-05-31T08:43:34.548Z</time>
      </trkpt>
      <trkpt lat="42.47953" lon="18.76342">
        <ele>55.854855</ele>
        <time>2022-05-31T08:43:37.556Z</time>
      </trkpt>
      <trkpt lat="42.47963" lon="18.76351">
        <ele>55.634945</ele>
        <time>2022-05-31T08:43:40.547Z</time>
      </trkpt>
      <trkpt lat="42.47973" lon="18.76359">
        <ele>55.419813</ele>
        <time>2022-05-31T08:43:43.556Z</time>
      </trkpt>
      <trkpt lat="42.47983" lon="18.76366">
        <ele>55.205354</ele>
        <time>2022-05-31T08:43:46.543Z</time>
      </trkpt>
      <trkpt lat="42.47993" lon="18.76373">
        <ele>54.999701</ele>
        <time>2022-05-31T08:43:49.548Z</time>
      </trkpt>
      <trkpt lat="42.48002" lon="18.7638">
        <ele>54.795679</ele>
        <time>2022-05-31T08:43:52.552Z</time>
      </trkpt>
      <trkpt lat="42.48013" lon="18.76384">
        <ele>54.584891</ele>
        <time>2022-05-31T08:43:55.527Z</time>
      </trkpt>
      <trkpt lat="42.48025" lon="18.7639">
        <ele>54.366217</ele>
        <time>2022-05-31T08:43:58.537Z</time>
      </trkpt>
      <trkpt lat="42.48035" lon="18.76392">
        <ele>54.169969</ele>
        <time>2022-05-31T08:44:01.545Z</time>
      </trkpt>
      <trkpt lat="42.48046" lon="18.7639">
        <ele>53.959823</ele>
        <time>2022-05-31T08:44:04.545Z</time>
      </trkpt>
      <trkpt lat="42.48059" lon="18.76386">
        <ele>53.722723</ele>
        <time>2022-05-31T08:44:07.548Z</time>
      </trkpt>
      <trkpt lat="42.48071" lon="18.76382">
        <ele>53.490728</ele>
        <time>2022-05-31T08:44:10.554Z</time>
      </trkpt>
      <trkpt lat="42.48084" lon="18.76379">
        <ele>53.405018</ele>
        <time>2022-05-31T08:44:13.572Z</time>
      </trkpt>
      <trkpt lat="42.48095" lon="18.76377">
        <ele>53.350793</ele>
        <time>2022-05-31T08:44:16.549Z</time>
      </trkpt>
      <trkpt lat="42.48106" lon="18.76378">
        <ele>53.303503</ele>
        <time>2022-05-31T08:44:19.585Z</time>
      </trkpt>
      <trkpt lat="42.48117" lon="18.76378">
        <ele>53.251235</ele>
        <time>2022-05-31T08:44:23.536Z</time>
      </trkpt>
      <trkpt lat="42.48127" lon="18.76377">
        <ele>53.205749</ele>
        <time>2022-05-31T08:44:26.555Z</time>
      </trkpt>
      <trkpt lat="42.48137" lon="18.76378">
        <ele>53.159822</ele>
        <time>2022-05-31T08:44:29.546Z</time>
      </trkpt>
      <trkpt lat="42.48148" lon="18.76381">
        <ele>53.108842</ele>
        <time>2022-05-31T08:44:32.547Z</time>
      </trkpt>
      <trkpt lat="42.48159" lon="18.76385">
        <ele>53.058459</ele>
        <time>2022-05-31T08:44:35.552Z</time>
      </trkpt>
      <trkpt lat="42.4817" lon="18.76388">
        <ele>53.00811</ele>
        <time>2022-05-31T08:44:38.550Z</time>
      </trkpt>
      <trkpt lat="42.4818" lon="18.76392">
        <ele>52.959515</ele>
        <time>2022-05-31T08:44:41.540Z</time>
      </trkpt>
      <trkpt lat="42.48188" lon="18.76398">
        <ele>52.91879</ele>
        <time>2022-05-31T08:44:44.531Z</time>
      </trkpt>
      <trkpt lat="42.48198" lon="18.76403">
        <ele>52.868528</ele>
        <time>2022-05-31T08:44:49.554Z</time>
      </trkpt>
      <trkpt lat="42.48207" lon="18.76408">
        <ele>52.827524</ele>
        <time>2022-05-31T08:44:52.554Z</time>
      </trkpt>
      <trkpt lat="42.48216" lon="18.76414">
        <ele>52.782098</ele>
        <time>2022-05-31T08:44:55.544Z</time>
      </trkpt>
      <trkpt lat="42.48225" lon="18.76421">
        <ele>52.734719</ele>
        <time>2022-05-31T08:44:58.548Z</time>
      </trkpt>
      <trkpt lat="42.48232" lon="18.76428">
        <ele>52.692766</ele>
        <time>2022-05-31T08:45:01.576Z</time>
      </trkpt>
      <trkpt lat="42.48241" lon="18.76433">
        <ele>52.648021</ele>
        <time>2022-05-31T08:45:05.550Z</time>
      </trkpt>
      <trkpt lat="42.4825" lon="18.76438">
        <ele>52.754741</ele>
        <time>2022-05-31T08:45:08.549Z</time>
      </trkpt>
      <trkpt lat="42.48259" lon="18.76444">
        <ele>52.929169</ele>
        <time>2022-05-31T08:45:11.577Z</time>
      </trkpt>
      <trkpt lat="42.48268" lon="18.7645">
        <ele>53.104221</ele>
        <time>2022-05-31T08:45:14.533Z</time>
      </trkpt>
      <trkpt lat="42.48277" lon="18.76456">
        <ele>53.284129</ele>
        <time>2022-05-31T08:45:17.544Z</time>
      </trkpt>
      <trkpt lat="42.48286" lon="18.7646">
        <ele>53.450245</ele>
        <time>2022-05-31T08:45:20.544Z</time>
      </trkpt>
      <trkpt lat="42.48296" lon="18.76464">
        <ele>53.63305</ele>
        <time>2022-05-31T08:45:23.552Z</time>
      </trkpt>
      <trkpt lat="42.48306" lon="18.76469">
        <ele>53.828133</ele>
        <time>2022-05-31T08:45:26.552Z</time>
      </trkpt>
      <trkpt lat="42.48317" lon="18.76475">
        <ele>54.035091</ele>
        <time>2022-05-31T08:45:29.555Z</time>
      </trkpt>
      <trkpt lat="42.48327" lon="18.76478">
        <ele>54.209639</ele>
        <time>2022-05-31T08:45:32.551Z</time>
      </trkpt>
      <trkpt lat="42.48337" lon="18.7648">
        <ele>54.383046</ele>
        <time>2022-05-31T08:45:36.537Z</time>
      </trkpt>
      <trkpt lat="42.48348" lon="18.76479">
        <ele>54.584013</ele>
        <time>2022-05-31T08:45:40.548Z</time>
      </trkpt>
      <trkpt lat="42.48357" lon="18.76479">
        <ele>54.74985</ele>
        <time>2022-05-31T08:45:43.555Z</time>
      </trkpt>
      <trkpt lat="42.48367" lon="18.76478">
        <ele>54.922793</ele>
        <time>2022-05-31T08:45:46.572Z</time>
      </trkpt>
      <trkpt lat="42.48378" lon="18.7648">
        <ele>55.109649</ele>
        <time>2022-05-31T08:45:49.547Z</time>
      </trkpt>
      <trkpt lat="42.48387" lon="18.76483">
        <ele>55.283135</ele>
        <time>2022-05-31T08:45:52.522Z</time>
      </trkpt>
      <trkpt lat="42.48397" lon="18.76488">
        <ele>55.461346</ele>
        <time>2022-05-31T08:45:55.531Z</time>
      </trkpt>
      <trkpt lat="42.48408" lon="18.76495">
        <ele>55.672288</ele>
        <time>2022-05-31T08:45:59.653Z</time>
      </trkpt>
      <trkpt lat="42.48416" lon="18.76501">
        <ele>55.912134</ele>
        <time>2022-05-31T08:46:02.545Z</time>
      </trkpt>
      <trkpt lat="42.48423" lon="18.76509">
        <ele>56.44963</ele>
        <time>2022-05-31T08:46:05.570Z</time>
      </trkpt>
      <trkpt lat="42.48431" lon="18.76521">
        <ele>57.132174</ele>
        <time>2022-05-31T08:46:09.589Z</time>
      </trkpt>
      <trkpt lat="42.48438" lon="18.76533">
        <ele>57.815011</ele>
        <time>2022-05-31T08:46:13.547Z</time>
      </trkpt>
      <trkpt lat="42.48444" lon="18.76545">
        <ele>58.451918</ele>
        <time>2022-05-31T08:46:17.548Z</time>
      </trkpt>
      <trkpt lat="42.4845" lon="18.76555">
        <ele>59.001603</ele>
        <time>2022-05-31T08:46:21.548Z</time>
      </trkpt>
      <trkpt lat="42.48456" lon="18.76567">
        <ele>59.614597</ele>
        <time>2022-05-31T08:46:26.594Z</time>
      </trkpt>
      <trkpt lat="42.48462" lon="18.76577">
        <ele>60.18538</ele>
        <time>2022-05-31T08:46:31.551Z</time>
      </trkpt>
      <trkpt lat="42.48467" lon="18.76588">
        <ele>60.740889</ele>
        <time>2022-05-31T08:46:38.590Z</time>
      </trkpt>
      <trkpt lat="42.48461" lon="18.76598">
        <ele>61.269813</ele>
        <time>2022-05-31T08:46:49.577Z</time>
      </trkpt>
      <trkpt lat="42.48455" lon="18.76608">
        <ele>61.853843</ele>
        <time>2022-05-31T08:46:58.551Z</time>
      </trkpt>
      <trkpt lat="42.48462" lon="18.76618">
        <ele>62.416896</ele>
        <time>2022-05-31T08:47:03.541Z</time>
      </trkpt>
      <trkpt lat="42.48471" lon="18.76625">
        <ele>63.046114</ele>
        <time>2022-05-31T08:47:08.551Z</time>
      </trkpt>
      <trkpt lat="42.4848" lon="18.76633">
        <ele>63.678164</ele>
        <time>2022-05-31T08:47:12.532Z</time>
      </trkpt>
      <trkpt lat="42.48488" lon="18.76639">
        <ele>64.213194</ele>
        <time>2022-05-31T08:47:15.532Z</time>
      </trkpt>
      <trkpt lat="42.48498" lon="18.76646">
        <ele>64.904841</ele>
        <time>2022-05-31T08:47:19.536Z</time>
      </trkpt>
      <trkpt lat="42.48507" lon="18.76651">
        <ele>65.433637</ele>
        <time>2022-05-31T08:47:22.521Z</time>
      </trkpt>
      <trkpt lat="42.48515" lon="18.76657">
        <ele>65.96797</ele>
        <time>2022-05-31T08:47:25.558Z</time>
      </trkpt>
      <trkpt lat="42.48525" lon="18.76662">
        <ele>66.528077</ele>
        <time>2022-05-31T08:47:29.545Z</time>
      </trkpt>
      <trkpt lat="42.48535" lon="18.76667">
        <ele>66.908073</ele>
        <time>2022-05-31T08:47:32.553Z</time>
      </trkpt>
      <trkpt lat="42.48544" lon="18.76671">
        <ele>67.266877</ele>
        <time>2022-05-31T08:47:35.541Z</time>
      </trkpt>
      <trkpt lat="42.48553" lon="18.76675">
        <ele>67.60729</ele>
        <time>2022-05-31T08:47:38.554Z</time>
      </trkpt>
      <trkpt lat="42.48562" lon="18.76679">
        <ele>67.945657</ele>
        <time>2022-05-31T08:47:41.535Z</time>
      </trkpt>
      <trkpt lat="42.48571" lon="18.76682">
        <ele>68.304102</ele>
        <time>2022-05-31T08:47:44.556Z</time>
      </trkpt>
      <trkpt lat="42.48581" lon="18.76685">
        <ele>68.673598</ele>
        <time>2022-05-31T08:47:47.544Z</time>
      </trkpt>
      <trkpt lat="42.4859" lon="18.76688">
        <ele>69.046122</ele>
        <time>2022-05-31T08:47:50.568Z</time>
      </trkpt>
      <trkpt lat="42.48599" lon="18.76689">
        <ele>69.384794</ele>
        <time>2022-05-31T08:47:53.555Z</time>
      </trkpt>
      <trkpt lat="42.4861" lon="18.76688">
        <ele>69.760534</ele>
        <time>2022-05-31T08:47:56.553Z</time>
      </trkpt>
      <trkpt lat="42.48619" lon="18.76685">
        <ele>70.107087</ele>
        <time>2022-05-31T08:47:59.541Z</time>
      </trkpt>
      <trkpt lat="42.48629" lon="18.76677">
        <ele>70.538752</ele>
        <time>2022-05-31T08:48:03.545Z</time>
      </trkpt>
      <trkpt lat="42.48634" lon="18.76667">
        <ele>70.904716</ele>
        <time>2022-05-31T08:48:06.538Z</time>
      </trkpt>
      <trkpt lat="42.48638" lon="18.76654">
        <ele>71.277324</ele>
        <time>2022-05-31T08:48:09.550Z</time>
      </trkpt>
      <trkpt lat="42.48639" lon="18.76639">
        <ele>71.675846</ele>
        <time>2022-05-31T08:48:12.557Z</time>
      </trkpt>
      <trkpt lat="42.48639" lon="18.76623">
        <ele>72.130478</ele>
        <time>2022-05-31T08:48:15.586Z</time>
      </trkpt>
      <trkpt lat="42.4864" lon="18.76611">
        <ele>72.463941</ele>
        <time>2022-05-31T08:48:17.537Z</time>
      </trkpt>
      <trkpt lat="42.48642" lon="18.76598">
        <ele>72.808118</ele>
        <time>2022-05-31T08:48:19.535Z</time>
      </trkpt>
      <trkpt lat="42.48646" lon="18.76586">
        <ele>72.858432</ele>
        <time>2022-05-31T08:48:21.576Z</time>
      </trkpt>
      <trkpt lat="42.48652" lon="18.76576">
        <ele>72.394923</ele>
        <time>2022-05-31T08:48:23.556Z</time>
      </trkpt>
      <trkpt lat="42.4866" lon="18.76567">
        <ele>71.920963</ele>
        <time>2022-05-31T08:48:25.579Z</time>
      </trkpt>
      <trkpt lat="42.48669" lon="18.76559">
        <ele>71.453769</ele>
        <time>2022-05-31T08:48:27.545Z</time>
      </trkpt>
      <trkpt lat="42.48678" lon="18.76552">
        <ele>70.976021</ele>
        <time>2022-05-31T08:48:29.533Z</time>
      </trkpt>
      <trkpt lat="42.48688" lon="18.76547">
        <ele>70.470945</ele>
        <time>2022-05-31T08:48:31.577Z</time>
      </trkpt>
      <trkpt lat="42.48699" lon="18.76541">
        <ele>69.959827</ele>
        <time>2022-05-31T08:48:33.562Z</time>
      </trkpt>
      <trkpt lat="42.48711" lon="18.76536">
        <ele>69.383299</ele>
        <time>2022-05-31T08:48:35.552Z</time>
      </trkpt>
      <trkpt lat="42.48723" lon="18.76531">
        <ele>68.800749</ele>
        <time>2022-05-31T08:48:37.568Z</time>
      </trkpt>
      <trkpt lat="42.48735" lon="18.76528">
        <ele>68.235178</ele>
        <time>2022-05-31T08:48:39.548Z</time>
      </trkpt>
      <trkpt lat="42.48748" lon="18.76527">
        <ele>67.670638</ele>
        <time>2022-05-31T08:48:41.553Z</time>
      </trkpt>
      <trkpt lat="42.48762" lon="18.7653">
        <ele>67.003039</ele>
        <time>2022-05-31T08:48:43.574Z</time>
      </trkpt>
      <trkpt lat="42.48777" lon="18.76534">
        <ele>66.310375</ele>
        <time>2022-05-31T08:48:45.555Z</time>
      </trkpt>
      <trkpt lat="42.48792" lon="18.76537">
        <ele>65.614259</ele>
        <time>2022-05-31T08:48:47.550Z</time>
      </trkpt>
      <trkpt lat="42.48809" lon="18.76537">
        <ele>64.876915</ele>
        <time>2022-05-31T08:48:49.551Z</time>
      </trkpt>
      <trkpt lat="42.48823" lon="18.76532">
        <ele>64.38785</ele>
        <time>2022-05-31T08:48:51.557Z</time>
      </trkpt>
      <trkpt lat="42.48836" lon="18.76524">
        <ele>63.909212</ele>
        <time>2022-05-31T08:48:53.554Z</time>
      </trkpt>
      <trkpt lat="42.48849" lon="18.76513">
        <ele>63.418104</ele>
        <time>2022-05-31T08:48:55.539Z</time>
      </trkpt>
      <trkpt lat="42.4886" lon="18.76501">
        <ele>62.950198</ele>
        <time>2022-05-31T08:48:57.538Z</time>
      </trkpt>
      <trkpt lat="42.48871" lon="18.76489">
        <ele>62.522604</ele>
        <time>2022-05-31T08:48:59.533Z</time>
      </trkpt>
      <trkpt lat="42.4888" lon="18.76477">
        <ele>62.101409</ele>
        <time>2022-05-31T08:49:01.531Z</time>
      </trkpt>
      <trkpt lat="42.48889" lon="18.76465">
        <ele>61.684514</ele>
        <time>2022-05-31T08:49:03.529Z</time>
      </trkpt>
      <trkpt lat="42.48898" lon="18.76456">
        <ele>61.319337</ele>
        <time>2022-05-31T08:49:05.532Z</time>
      </trkpt>
      <trkpt lat="42.48908" lon="18.76446">
        <ele>60.934906</ele>
        <time>2022-05-31T08:49:07.533Z</time>
      </trkpt>
      <trkpt lat="42.48919" lon="18.76437">
        <ele>60.517129</ele>
        <time>2022-05-31T08:49:09.549Z</time>
      </trkpt>
      <trkpt lat="42.4893" lon="18.76429">
        <ele>60.10558</ele>
        <time>2022-05-31T08:49:11.529Z</time>
      </trkpt>
      <trkpt lat="42.48941" lon="18.76421">
        <ele>59.711075</ele>
        <time>2022-05-31T08:49:13.528Z</time>
      </trkpt>
      <trkpt lat="42.48951" lon="18.76415">
        <ele>59.354568</ele>
        <time>2022-05-31T08:49:15.614Z</time>
      </trkpt>
      <trkpt lat="42.4896" lon="18.7641">
        <ele>59.014597</ele>
        <time>2022-05-31T08:49:17.531Z</time>
      </trkpt>
      <trkpt lat="42.4897" lon="18.76405">
        <ele>59.259409</ele>
        <time>2022-05-31T08:49:19.534Z</time>
      </trkpt>
      <trkpt lat="42.48982" lon="18.76399">
        <ele>59.596109</ele>
        <time>2022-05-31T08:49:22.530Z</time>
      </trkpt>
      <trkpt lat="42.48993" lon="18.76391">
        <ele>59.918957</ele>
        <time>2022-05-31T08:49:25.529Z</time>
      </trkpt>
      <trkpt lat="42.49002" lon="18.7638">
        <ele>60.220193</ele>
        <time>2022-05-31T08:49:28.534Z</time>
      </trkpt>
      <trkpt lat="42.49011" lon="18.76365">
        <ele>60.573497</ele>
        <time>2022-05-31T08:49:32.558Z</time>
      </trkpt>
      <trkpt lat="42.49017" lon="18.76355">
        <ele>60.815534</ele>
        <time>2022-05-31T08:49:35.533Z</time>
      </trkpt>
      <trkpt lat="42.49022" lon="18.76343">
        <ele>61.080382</ele>
        <time>2022-05-31T08:49:38.570Z</time>
      </trkpt>
      <trkpt lat="42.49028" lon="18.76331">
        <ele>61.350354</ele>
        <time>2022-05-31T08:49:41.636Z</time>
      </trkpt>
      <trkpt lat="42.49034" lon="18.76318">
        <ele>61.620085</ele>
        <time>2022-05-31T08:49:44.580Z</time>
      </trkpt>
      <trkpt lat="42.49038" lon="18.76305">
        <ele>61.889591</ele>
        <time>2022-05-31T08:49:47.552Z</time>
      </trkpt>
      <trkpt lat="42.49041" lon="18.76293">
        <ele>62.123903</ele>
        <time>2022-05-31T08:49:50.582Z</time>
      </trkpt>
      <trkpt lat="42.49045" lon="18.76279">
        <ele>62.398167</ele>
        <time>2022-05-31T08:49:54.558Z</time>
      </trkpt>
      <trkpt lat="42.49047" lon="18.76265">
        <ele>62.682358</ele>
        <time>2022-05-31T08:49:58.525Z</time>
      </trkpt>
      <trkpt lat="42.49049" lon="18.76252">
        <ele>62.917463</ele>
        <time>2022-05-31T08:50:01.547Z</time>
      </trkpt>
      <trkpt lat="42.49049" lon="18.76237">
        <ele>63.207216</ele>
        <time>2022-05-31T08:50:05.537Z</time>
      </trkpt>
      <trkpt lat="42.49047" lon="18.76223">
        <ele>63.470357</ele>
        <time>2022-05-31T08:50:09.553Z</time>
      </trkpt>
      <trkpt lat="42.49045" lon="18.7621">
        <ele>63.540794</ele>
        <time>2022-05-31T08:50:13.578Z</time>
      </trkpt>
      <trkpt lat="42.49042" lon="18.76198">
        <ele>63.498829</ele>
        <time>2022-05-31T08:50:17.551Z</time>
      </trkpt>
      <trkpt lat="42.49039" lon="18.76185">
        <ele>63.45322</ele>
        <time>2022-05-31T08:50:21.552Z</time>
      </trkpt>
      <trkpt lat="42.49034" lon="18.76172">
        <ele>63.404077</ele>
        <time>2022-05-31T08:50:25.561Z</time>
      </trkpt>
      <trkpt lat="42.4903" lon="18.76159">
        <ele>63.357161</ele>
        <time>2022-05-31T08:50:29.579Z</time>
      </trkpt>
      <trkpt lat="42.49026" lon="18.76146">
        <ele>63.313186</ele>
        <time>2022-05-31T08:50:33.532Z</time>
      </trkpt>
      <trkpt lat="42.49023" lon="18.76134">
        <ele>63.272191</ele>
        <time>2022-05-31T08:50:37.571Z</time>
      </trkpt>
      <trkpt lat="42.4902" lon="18.7612">
        <ele>63.223597</ele>
        <time>2022-05-31T08:50:42.549Z</time>
      </trkpt>
      <trkpt lat="42.49017" lon="18.76107">
        <ele>63.177053</ele>
        <time>2022-05-31T08:50:47.547Z</time>
      </trkpt>
      <trkpt lat="42.49015" lon="18.76093">
        <ele>63.130057</ele>
        <time>2022-05-31T08:50:52.551Z</time>
      </trkpt>
      <trkpt lat="42.49015" lon="18.7608">
        <ele>63.089985</ele>
        <time>2022-05-31T08:50:56.559Z</time>
      </trkpt>
      <trkpt lat="42.49017" lon="18.76068">
        <ele>63.048638</ele>
        <time>2022-05-31T08:51:00.545Z</time>
      </trkpt>
      <trkpt lat="42.49018" lon="18.76053">
        <ele>63.000062</ele>
        <time>2022-05-31T08:51:05.595Z</time>
      </trkpt>
      <trkpt lat="42.49018" lon="18.76038">
        <ele>62.951074</ele>
        <time>2022-05-31T08:51:10.545Z</time>
      </trkpt>
      <trkpt lat="42.49019" lon="18.76023">
        <ele>62.902219</ele>
        <time>2022-05-31T08:51:15.545Z</time>
      </trkpt>
      <trkpt lat="42.49022" lon="18.7601">
        <ele>62.85565</ele>
        <time>2022-05-31T08:51:20.535Z</time>
      </trkpt>
      <trkpt lat="42.49023" lon="18.75997">
        <ele>62.813982</ele>
        <time>2022-05-31T08:51:24.571Z</time>
      </trkpt>
      <trkpt lat="42.49025" lon="18.75984">
        <ele>62.770215</ele>
        <time>2022-05-31T08:51:28.544Z</time>
      </trkpt>
      <trkpt lat="42.49028" lon="18.75971">
        <ele>62.662079</ele>
        <time>2022-05-31T08:51:32.590Z</time>
      </trkpt>
      <trkpt lat="42.49031" lon="18.75958">
        <ele>62.555677</ele>
        <time>2022-05-31T08:51:36.566Z</time>
      </trkpt>
      <trkpt lat="42.49035" lon="18.75947">
        <ele>62.455428</ele>
        <time>2022-05-31T08:51:40.544Z</time>
      </trkpt>
      <trkpt lat="42.49039" lon="18.75935">
        <ele>62.34433</ele>
        <time>2022-05-31T08:51:44.587Z</time>
      </trkpt>
      <trkpt lat="42.49044" lon="18.75922">
        <ele>62.230868</ele>
        <time>2022-05-31T08:51:48.537Z</time>
      </trkpt>
      <trkpt lat="42.49049" lon="18.7591">
        <ele>62.119876</ele>
        <time>2022-05-31T08:51:52.600Z</time>
      </trkpt>
      <trkpt lat="42.49053" lon="18.75897">
        <ele>62.001913</ele>
        <time>2022-05-31T08:51:56.544Z</time>
      </trkpt>
      <trkpt lat="42.49056" lon="18.75884">
        <ele>61.893961</ele>
        <time>2022-05-31T08:51:59.531Z</time>
      </trkpt>
      <trkpt lat="42.49059" lon="18.7587">
        <ele>61.768996</ele>
        <time>2022-05-31T08:52:02.552Z</time>
      </trkpt>
      <trkpt lat="42.49062" lon="18.75853">
        <ele>61.632788</ele>
        <time>2022-05-31T08:52:05.545Z</time>
      </trkpt>
      <trkpt lat="42.49063" lon="18.75836">
        <ele>61.489147</ele>
        <time>2022-05-31T08:52:08.554Z</time>
      </trkpt>
      <trkpt lat="42.49064" lon="18.75822">
        <ele>61.379873</ele>
        <time>2022-05-31T08:52:10.528Z</time>
      </trkpt>
      <trkpt lat="42.49063" lon="18.75807">
        <ele>61.25831</ele>
        <time>2022-05-31T08:52:12.543Z</time>
      </trkpt>
      <trkpt lat="42.49062" lon="18.75792">
        <ele>61.130814</ele>
        <time>2022-05-31T08:52:14.527Z</time>
      </trkpt>
      <trkpt lat="42.49061" lon="18.75776">
        <ele>61.001421</ele>
        <time>2022-05-31T08:52:16.540Z</time>
      </trkpt>
      <trkpt lat="42.49059" lon="18.7576">
        <ele>60.866698</ele>
        <time>2022-05-31T08:52:18.587Z</time>
      </trkpt>
      <trkpt lat="42.49056" lon="18.75743">
        <ele>60.877831</ele>
        <time>2022-05-31T08:52:20.535Z</time>
      </trkpt>
      <trkpt lat="42.49052" lon="18.75727">
        <ele>61.151866</ele>
        <time>2022-05-31T08:52:22.575Z</time>
      </trkpt>
      <trkpt lat="42.49047" lon="18.75709">
        <ele>61.455105</ele>
        <time>2022-05-31T08:52:24.543Z</time>
      </trkpt>
      <trkpt lat="42.49041" lon="18.7569">
        <ele>61.787533</ele>
        <time>2022-05-31T08:52:26.543Z</time>
      </trkpt>
      <trkpt lat="42.49034" lon="18.7567">
        <ele>62.136004</ele>
        <time>2022-05-31T08:52:28.668Z</time>
      </trkpt>
      <trkpt lat="42.49026" lon="18.75651">
        <ele>62.488505</ele>
        <time>2022-05-31T08:52:30.537Z</time>
      </trkpt>
      <trkpt lat="42.49018" lon="18.75632">
        <ele>62.839646</ele>
        <time>2022-05-31T08:52:32.550Z</time>
      </trkpt>
      <trkpt lat="42.49011" lon="18.75613">
        <ele>63.176385</ele>
        <time>2022-05-31T08:52:34.583Z</time>
      </trkpt>
      <trkpt lat="42.49005" lon="18.75595">
        <ele>63.49339</ele>
        <time>2022-05-31T08:52:36.537Z</time>
      </trkpt>
      <trkpt lat="42.48999" lon="18.75578">
        <ele>63.80454</ele>
        <time>2022-05-31T08:52:38.551Z</time>
      </trkpt>
      <trkpt lat="42.48995" lon="18.75557">
        <ele>64.137039</ele>
        <time>2022-05-31T08:52:40.548Z</time>
      </trkpt>
      <trkpt lat="42.48994" lon="18.75536">
        <ele>64.482372</ele>
        <time>2022-05-31T08:52:42.560Z</time>
      </trkpt>
      <trkpt lat="42.48995" lon="18.75515">
        <ele>64.691982</ele>
        <time>2022-05-31T08:52:44.572Z</time>
      </trkpt>
      <trkpt lat="42.49" lon="18.75495">
        <ele>64.723865</ele>
        <time>2022-05-31T08:52:46.553Z</time>
      </trkpt>
      <trkpt lat="42.49006" lon="18.75477">
        <ele>64.753178</ele>
        <time>2022-05-31T08:52:48.558Z</time>
      </trkpt>
      <trkpt lat="42.49014" lon="18.75461">
        <ele>64.782428</ele>
        <time>2022-05-31T08:52:50.545Z</time>
      </trkpt>
      <trkpt lat="42.49021" lon="18.75443">
        <ele>64.813286</ele>
        <time>2022-05-31T08:52:52.544Z</time>
      </trkpt>
      <trkpt lat="42.49028" lon="18.75424">
        <ele>64.844862</ele>
        <time>2022-05-31T08:52:54.557Z</time>
      </trkpt>
      <trkpt lat="42.49031" lon="18.75405">
        <ele>64.875008</ele>
        <time>2022-05-31T08:52:56.568Z</time>
      </trkpt>
      <trkpt lat="42.49032" lon="18.75384">
        <ele>64.905827</ele>
        <time>2022-05-31T08:52:58.568Z</time>
      </trkpt>
      <trkpt lat="42.49029" lon="18.75365">
        <ele>64.935434</ele>
        <time>2022-05-31T08:53:00.545Z</time>
      </trkpt>
      <trkpt lat="42.49024" lon="18.75348">
        <ele>64.961912</ele>
        <time>2022-05-31T08:53:02.548Z</time>
      </trkpt>
      <trkpt lat="42.49017" lon="18.75335">
        <ele>64.98694</ele>
        <time>2022-05-31T08:53:04.543Z</time>
      </trkpt>
      <trkpt lat="42.49009" lon="18.75324">
        <ele>65.010004</ele>
        <time>2022-05-31T08:53:06.546Z</time>
      </trkpt>
      <trkpt lat="42.49001" lon="18.75315">
        <ele>65.032038</ele>
        <time>2022-05-31T08:53:08.580Z</time>
      </trkpt>
      <trkpt lat="42.48993" lon="18.75307">
        <ele>65.180336</ele>
        <time>2022-05-31T08:53:10.541Z</time>
      </trkpt>
      <trkpt lat="42.48985" lon="18.753">
        <ele>65.638862</ele>
        <time>2022-05-31T08:53:12.538Z</time>
      </trkpt>
      <trkpt lat="42.48978" lon="18.75293">
        <ele>66.091196</ele>
        <time>2022-05-31T08:53:14.558Z</time>
      </trkpt>
      <trkpt lat="42.48971" lon="18.75285">
        <ele>66.561149</ele>
        <time>2022-05-31T08:53:16.565Z</time>
      </trkpt>
      <trkpt lat="42.48963" lon="18.75277">
        <ele>67.04496</ele>
        <time>2022-05-31T08:53:18.553Z</time>
      </trkpt>
      <trkpt lat="42.48957" lon="18.75267">
        <ele>67.52136</ele>
        <time>2022-05-31T08:53:20.535Z</time>
      </trkpt>
      <trkpt lat="42.48949" lon="18.75253">
        <ele>68.187984</ele>
        <time>2022-05-31T08:53:23.570Z</time>
      </trkpt>
      <trkpt lat="42.48943" lon="18.75243">
        <ele>68.670352</ele>
        <time>2022-05-31T08:53:25.584Z</time>
      </trkpt>
      <trkpt lat="42.48936" lon="18.75233">
        <ele>69.148216</ele>
        <time>2022-05-31T08:53:27.557Z</time>
      </trkpt>
      <trkpt lat="42.4893" lon="18.75223">
        <ele>69.642628</ele>
        <time>2022-05-31T08:53:29.557Z</time>
      </trkpt>
      <trkpt lat="42.48924" lon="18.75212">
        <ele>70.118808</ele>
        <time>2022-05-31T08:53:31.572Z</time>
      </trkpt>
      <trkpt lat="42.48919" lon="18.75202">
        <ele>70.598411</ele>
        <time>2022-05-31T08:53:33.565Z</time>
      </trkpt>
      <trkpt lat="42.48913" lon="18.75192">
        <ele>71.062755</ele>
        <time>2022-05-31T08:53:35.551Z</time>
      </trkpt>
      <trkpt lat="42.48907" lon="18.75182">
        <ele>71.540122</ele>
        <time>2022-05-31T08:53:37.547Z</time>
      </trkpt>
      <trkpt lat="42.48901" lon="18.75172">
        <ele>71.999297</ele>
        <time>2022-05-31T08:53:39.554Z</time>
      </trkpt>
      <trkpt lat="42.48894" lon="18.75158">
        <ele>72.639245</ele>
        <time>2022-05-31T08:53:42.539Z</time>
      </trkpt>
      <trkpt lat="42.48887" lon="18.75144">
        <ele>73.276575</ele>
        <time>2022-05-31T08:53:45.556Z</time>
      </trkpt>
      <trkpt lat="42.48879" lon="18.7513">
        <ele>73.931181</ele>
        <time>2022-05-31T08:53:48.567Z</time>
      </trkpt>
      <trkpt lat="42.48872" lon="18.75115">
        <ele>73.750566</ele>
        <time>2022-05-31T08:53:51.543Z</time>
      </trkpt>
      <trkpt lat="42.48866" lon="18.75099">
        <ele>73.348858</ele>
        <time>2022-05-31T08:53:54.542Z</time>
      </trkpt>
      <trkpt lat="42.48859" lon="18.75085">
        <ele>72.953593</ele>
        <time>2022-05-31T08:53:57.554Z</time>
      </trkpt>
      <trkpt lat="42.48852" lon="18.75072">
        <ele>72.59329</ele>
        <time>2022-05-31T08:54:00.583Z</time>
      </trkpt>
      <trkpt lat="42.48846" lon="18.75059">
        <ele>72.242144</ele>
        <time>2022-05-31T08:54:03.571Z</time>
      </trkpt>
      <trkpt lat="42.48841" lon="18.75043">
        <ele>71.853769</ele>
        <time>2022-05-31T08:54:06.551Z</time>
      </trkpt>
      <trkpt lat="42.48833" lon="18.75032">
        <ele>71.502535</ele>
        <time>2022-05-31T08:54:09.563Z</time>
      </trkpt>
      <trkpt lat="42.48821" lon="18.75023">
        <ele>71.088454</ele>
        <time>2022-05-31T08:54:12.563Z</time>
      </trkpt>
      <trkpt lat="42.48814" lon="18.75014">
        <ele>70.79844</ele>
        <time>2022-05-31T08:54:14.553Z</time>
      </trkpt>
      <trkpt lat="42.48808" lon="18.75004">
        <ele>70.490088</ele>
        <time>2022-05-31T08:54:16.538Z</time>
      </trkpt>
      <trkpt lat="42.48802" lon="18.74993">
        <ele>70.195169</ele>
        <time>2022-05-31T08:54:18.561Z</time>
      </trkpt>
      <trkpt lat="42.48797" lon="18.74977">
        <ele>69.787893</ele>
        <time>2022-05-31T08:54:21.546Z</time>
      </trkpt>
      <trkpt lat="42.48795" lon="18.74964">
        <ele>69.496607</ele>
        <time>2022-05-31T08:54:23.581Z</time>
      </trkpt>
      <trkpt lat="42.48792" lon="18.74952">
        <ele>69.207018</ele>
        <time>2022-05-31T08:54:25.547Z</time>
      </trkpt>
      <trkpt lat="42.48789" lon="18.74935">
        <ele>68.811741</ele>
        <time>2022-05-31T08:54:28.556Z</time>
      </trkpt>
      <trkpt lat="42.48784" lon="18.74918">
        <ele>68.442575</ele>
        <time>2022-05-31T08:54:31.557Z</time>
      </trkpt>
      <trkpt lat="42.48782" lon="18.74907">
        <ele>68.248078</ele>
        <time>2022-05-31T08:54:33.553Z</time>
      </trkpt>
      <trkpt lat="42.48779" lon="18.74895">
        <ele>68.054142</ele>
        <time>2022-05-31T08:54:35.552Z</time>
      </trkpt>
      <trkpt lat="42.48776" lon="18.74883">
        <ele>67.848392</ele>
        <time>2022-05-31T08:54:37.562Z</time>
      </trkpt>
      <trkpt lat="42.48773" lon="18.74871">
        <ele>67.650559</ele>
        <time>2022-05-31T08:54:39.542Z</time>
      </trkpt>
      <trkpt lat="42.48771" lon="18.74855">
        <ele>67.388759</ele>
        <time>2022-05-31T08:54:42.552Z</time>
      </trkpt>
      <trkpt lat="42.48766" lon="18.7484">
        <ele>67.140253</ele>
        <time>2022-05-31T08:54:45.575Z</time>
      </trkpt>
      <trkpt lat="42.4876" lon="18.74828">
        <ele>66.900402</ele>
        <time>2022-05-31T08:54:48.552Z</time>
      </trkpt>
      <trkpt lat="42.48754" lon="18.74812">
        <ele>66.614202</ele>
        <time>2022-05-31T08:54:51.558Z</time>
      </trkpt>
      <trkpt lat="42.48747" lon="18.74797">
        <ele>66.333796</ele>
        <time>2022-05-31T08:54:54.544Z</time>
      </trkpt>
      <trkpt lat="42.48739" lon="18.74782">
        <ele>66.042218</ele>
        <time>2022-05-31T08:54:57.558Z</time>
      </trkpt>
      <trkpt lat="42.48731" lon="18.74767">
        <ele>65.754414</ele>
        <time>2022-05-31T08:55:00.531Z</time>
      </trkpt>
      <trkpt lat="42.48727" lon="18.74757">
        <ele>65.559747</ele>
        <time>2022-05-31T08:55:02.544Z</time>
      </trkpt>
      <trkpt lat="42.48721" lon="18.74741">
        <ele>65.289709</ele>
        <time>2022-05-31T08:55:05.549Z</time>
      </trkpt>
      <trkpt lat="42.48718" lon="18.74724">
        <ele>65.008968</ele>
        <time>2022-05-31T08:55:08.554Z</time>
      </trkpt>
      <trkpt lat="42.48715" lon="18.74707">
        <ele>64.727533</ele>
        <time>2022-05-31T08:55:11.532Z</time>
      </trkpt>
      <trkpt lat="42.48712" lon="18.7469">
        <ele>64.370389</ele>
        <time>2022-05-31T08:55:14.555Z</time>
      </trkpt>
      <trkpt lat="42.48708" lon="18.74673">
        <ele>63.969292</ele>
        <time>2022-05-31T08:55:17.544Z</time>
      </trkpt>
      <trkpt lat="42.48705" lon="18.74656">
        <ele>63.591616</ele>
        <time>2022-05-31T08:55:20.538Z</time>
      </trkpt>
      <trkpt lat="42.48701" lon="18.7464">
        <ele>63.222979</ele>
        <time>2022-05-31T08:55:23.556Z</time>
      </trkpt>
      <trkpt lat="42.48698" lon="18.74624">
        <ele>62.848823</ele>
        <time>2022-05-31T08:55:26.551Z</time>
      </trkpt>
      <trkpt lat="42.48694" lon="18.74607">
        <ele>62.456608</ele>
        <time>2022-05-31T08:55:29.575Z</time>
      </trkpt>
      <trkpt lat="42.48692" lon="18.74589">
        <ele>62.073863</ele>
        <time>2022-05-31T08:55:32.564Z</time>
      </trkpt>
      <trkpt lat="42.48689" lon="18.74573">
        <ele>61.690123</ele>
        <time>2022-05-31T08:55:35.584Z</time>
      </trkpt>
      <trkpt lat="42.48685" lon="18.74557">
        <ele>61.324874</ele>
        <time>2022-05-31T08:55:38.546Z</time>
      </trkpt>
      <trkpt lat="42.4868" lon="18.74541">
        <ele>60.950223</ele>
        <time>2022-05-31T08:55:41.554Z</time>
      </trkpt>
      <trkpt lat="42.48674" lon="18.74526">
        <ele>60.578051</ele>
        <time>2022-05-31T08:55:44.559Z</time>
      </trkpt>
      <trkpt lat="42.48669" lon="18.74512">
        <ele>60.219779</ele>
        <time>2022-05-31T08:55:47.550Z</time>
      </trkpt>
      <trkpt lat="42.48663" lon="18.74496">
        <ele>59.843682</ele>
        <time>2022-05-31T08:55:50.538Z</time>
      </trkpt>
      <trkpt lat="42.48659" lon="18.7448">
        <ele>59.453561</ele>
        <time>2022-05-31T08:55:53.546Z</time>
      </trkpt>
      <trkpt lat="42.48655" lon="18.74464">
        <ele>59.1684</ele>
        <time>2022-05-31T08:55:56.545Z</time>
      </trkpt>
      <trkpt lat="42.48651" lon="18.74448">
        <ele>58.968303</ele>
        <time>2022-05-31T08:55:59.551Z</time>
      </trkpt>
      <trkpt lat="42.48647" lon="18.74432">
        <ele>58.772827</ele>
        <time>2022-05-31T08:56:02.546Z</time>
      </trkpt>
      <trkpt lat="42.48643" lon="18.74416">
        <ele>58.575084</ele>
        <time>2022-05-31T08:56:05.543Z</time>
      </trkpt>
      <trkpt lat="42.48638" lon="18.744">
        <ele>58.372983</ele>
        <time>2022-05-31T08:56:08.551Z</time>
      </trkpt>
      <trkpt lat="42.48634" lon="18.74385">
        <ele>58.18465</ele>
        <time>2022-05-31T08:56:11.555Z</time>
      </trkpt>
      <trkpt lat="42.48629" lon="18.74371">
        <ele>58.004011</ele>
        <time>2022-05-31T08:56:14.560Z</time>
      </trkpt>
      <trkpt lat="42.48621" lon="18.7436">
        <ele>57.822424</ele>
        <time>2022-05-31T08:56:17.540Z</time>
      </trkpt>
      <trkpt lat="42.48611" lon="18.74349">
        <ele>57.619367</ele>
        <time>2022-05-31T08:56:20.541Z</time>
      </trkpt>
      <trkpt lat="42.48601" lon="18.74339">
        <ele>57.408619</ele>
        <time>2022-05-31T08:56:23.553Z</time>
      </trkpt>
      <trkpt lat="42.4859" lon="18.74328">
        <ele>57.196834</ele>
        <time>2022-05-31T08:56:26.549Z</time>
      </trkpt>
      <trkpt lat="42.48581" lon="18.74315">
        <ele>56.981114</ele>
        <time>2022-05-31T08:56:29.549Z</time>
      </trkpt>
      <trkpt lat="42.48575" lon="18.74304">
        <ele>56.83016</ele>
        <time>2022-05-31T08:56:31.552Z</time>
      </trkpt>
      <trkpt lat="42.48571" lon="18.74293">
        <ele>56.686852</ele>
        <time>2022-05-31T08:56:33.556Z</time>
      </trkpt>
      <trkpt lat="42.48568" lon="18.74276">
        <ele>56.476149</ele>
        <time>2022-05-31T08:56:36.548Z</time>
      </trkpt>
      <trkpt lat="42.48568" lon="18.74258">
        <ele>56.459732</ele>
        <time>2022-05-31T08:56:39.528Z</time>
      </trkpt>
      <trkpt lat="42.48568" lon="18.74241">
        <ele>56.546044</ele>
        <time>2022-05-31T08:56:42.546Z</time>
      </trkpt>
      <trkpt lat="42.4857" lon="18.74223">
        <ele>56.635422</ele>
        <time>2022-05-31T08:56:45.559Z</time>
      </trkpt>
      <trkpt lat="42.48571" lon="18.74206">
        <ele>56.724651</ele>
        <time>2022-05-31T08:56:48.555Z</time>
      </trkpt>
      <trkpt lat="42.48572" lon="18.74189">
        <ele>56.812237</ele>
        <time>2022-05-31T08:56:51.559Z</time>
      </trkpt>
      <trkpt lat="42.48573" lon="18.74171">
        <ele>56.90159</ele>
        <time>2022-05-31T08:56:54.548Z</time>
      </trkpt>
      <trkpt lat="42.48571" lon="18.74154">
        <ele>56.989036</ele>
        <time>2022-05-31T08:56:57.549Z</time>
      </trkpt>
      <trkpt lat="42.48567" lon="18.74138">
        <ele>57.074717</ele>
        <time>2022-05-31T08:57:00.568Z</time>
      </trkpt>
      <trkpt lat="42.48561" lon="18.74124">
        <ele>57.159066</ele>
        <time>2022-05-31T08:57:03.559Z</time>
      </trkpt>
      <trkpt lat="42.48554" lon="18.74109">
        <ele>57.248116</ele>
        <time>2022-05-31T08:57:06.593Z</time>
      </trkpt>
      <trkpt lat="42.48548" lon="18.74092">
        <ele>57.342814</ele>
        <time>2022-05-31T08:57:09.545Z</time>
      </trkpt>
      <trkpt lat="42.48544" lon="18.7408">
        <ele>57.406001</ele>
        <time>2022-05-31T08:57:11.573Z</time>
      </trkpt>
      <trkpt lat="42.48542" lon="18.74069">
        <ele>57.468404</ele>
        <time>2022-05-31T08:57:13.561Z</time>
      </trkpt>
      <trkpt lat="42.48539" lon="18.74056">
        <ele>57.537214</ele>
        <time>2022-05-31T08:57:15.564Z</time>
      </trkpt>
      <trkpt lat="42.48537" lon="18.74043">
        <ele>57.603397</ele>
        <time>2022-05-31T08:57:17.557Z</time>
      </trkpt>
      <trkpt lat="42.48535" lon="18.7403">
        <ele>57.616724</ele>
        <time>2022-05-31T08:57:19.547Z</time>
      </trkpt>
      <trkpt lat="42.48532" lon="18.74017">
        <ele>57.567849</ele>
        <time>2022-05-31T08:57:21.545Z</time>
      </trkpt>
      <trkpt lat="42.48529" lon="18.74005">
        <ele>57.519842</ele>
        <time>2022-05-31T08:57:23.584Z</time>
      </trkpt>
      <trkpt lat="42.48524" lon="18.73993">
        <ele>57.473307</ele>
        <time>2022-05-31T08:57:25.544Z</time>
      </trkpt>
      <trkpt lat="42.48519" lon="18.73983">
        <ele>57.425361</ele>
        <time>2022-05-31T08:57:27.537Z</time>
      </trkpt>
      <trkpt lat="42.48512" lon="18.73973">
        <ele>57.37757</ele>
        <time>2022-05-31T08:57:29.557Z</time>
      </trkpt>
      <trkpt lat="42.48506" lon="18.73964">
        <ele>57.332564</ele>
        <time>2022-05-31T08:57:31.563Z</time>
      </trkpt>
      <trkpt lat="42.48496" lon="18.73952">
        <ele>57.265654</ele>
        <time>2022-05-31T08:57:34.577Z</time>
      </trkpt>
      <trkpt lat="42.48489" lon="18.73944">
        <ele>57.220184</ele>
        <time>2022-05-31T08:57:36.533Z</time>
      </trkpt>
      <trkpt lat="42.48482" lon="18.73935">
        <ele>57.174567</ele>
        <time>2022-05-31T08:57:38.559Z</time>
      </trkpt>
      <trkpt lat="42.48475" lon="18.73926">
        <ele>57.126649</ele>
        <time>2022-05-31T08:57:40.539Z</time>
      </trkpt>
      <trkpt lat="42.48468" lon="18.73917">
        <ele>57.07635</ele>
        <time>2022-05-31T08:57:42.550Z</time>
      </trkpt>
      <trkpt lat="42.48462" lon="18.73906">
        <ele>57.026022</ele>
        <time>2022-05-31T08:57:44.566Z</time>
      </trkpt>
      <trkpt lat="42.48456" lon="18.73895">
        <ele>56.97483</ele>
        <time>2022-05-31T08:57:46.547Z</time>
      </trkpt>
      <trkpt lat="42.4845" lon="18.73883">
        <ele>56.924958</ele>
        <time>2022-05-31T08:57:48.560Z</time>
      </trkpt>
      <trkpt lat="42.48446" lon="18.73872">
        <ele>56.877464</ele>
        <time>2022-05-31T08:57:50.539Z</time>
      </trkpt>
      <trkpt lat="42.48442" lon="18.7386">
        <ele>56.83014</ele>
        <time>2022-05-31T08:57:52.541Z</time>
      </trkpt>
      <trkpt lat="42.48439" lon="18.73847">
        <ele>56.781749</ele>
        <time>2022-05-31T08:57:54.552Z</time>
      </trkpt>
      <trkpt lat="42.48437" lon="18.73834">
        <ele>56.787515</ele>
        <time>2022-05-31T08:57:56.569Z</time>
      </trkpt>
      <trkpt lat="42.48435" lon="18.73822">
        <ele>56.922767</ele>
        <time>2022-05-31T08:57:58.528Z</time>
      </trkpt>
      <trkpt lat="42.48435" lon="18.73809">
        <ele>57.057669</ele>
        <time>2022-05-31T08:58:00.535Z</time>
      </trkpt>
      <trkpt lat="42.48435" lon="18.73796">
        <ele>57.189375</ele>
        <time>2022-05-31T08:58:02.587Z</time>
      </trkpt>
      <trkpt lat="42.48435" lon="18.73784">
        <ele>57.320097</ele>
        <time>2022-05-31T08:58:04.544Z</time>
      </trkpt>
      <trkpt lat="42.48436" lon="18.73771">
        <ele>57.456006</ele>
        <time>2022-05-31T08:58:06.556Z</time>
      </trkpt>
      <trkpt lat="42.48436" lon="18.73758">
        <ele>57.592151</ele>
        <time>2022-05-31T08:58:08.569Z</time>
      </trkpt>
      <trkpt lat="42.48437" lon="18.73745">
        <ele>57.721834</ele>
        <time>2022-05-31T08:58:10.523Z</time>
      </trkpt>
      <trkpt lat="42.48438" lon="18.73727">
        <ele>57.912255</ele>
        <time>2022-05-31T08:58:13.553Z</time>
      </trkpt>
      <trkpt lat="42.48437" lon="18.73709">
        <ele>58.097916</ele>
        <time>2022-05-31T08:58:16.553Z</time>
      </trkpt>
      <trkpt lat="42.48435" lon="18.73697">
        <ele>58.228986</ele>
        <time>2022-05-31T08:58:18.555Z</time>
      </trkpt>
      <trkpt lat="42.48433" lon="18.73685">
        <ele>58.36287</ele>
        <time>2022-05-31T08:58:20.548Z</time>
      </trkpt>
      <trkpt lat="42.48431" lon="18.73671">
        <ele>58.503722</ele>
        <time>2022-05-31T08:58:22.544Z</time>
      </trkpt>
      <trkpt lat="42.48429" lon="18.73657">
        <ele>58.651748</ele>
        <time>2022-05-31T08:58:24.541Z</time>
      </trkpt>
      <trkpt lat="42.48427" lon="18.73644">
        <ele>58.799946</ele>
        <time>2022-05-31T08:58:26.551Z</time>
      </trkpt>
      <trkpt lat="42.48425" lon="18.7363">
        <ele>58.944078</ele>
        <time>2022-05-31T08:58:28.555Z</time>
      </trkpt>
      <trkpt lat="42.48424" lon="18.73618">
        <ele>59.077734</ele>
        <time>2022-05-31T08:58:30.533Z</time>
      </trkpt>
      <trkpt lat="42.48423" lon="18.73604">
        <ele>59.219096</ele>
        <time>2022-05-31T08:58:32.558Z</time>
      </trkpt>
      <trkpt lat="42.48423" lon="18.7359">
        <ele>59.363212</ele>
        <time>2022-05-31T08:58:34.561Z</time>
      </trkpt>
      <trkpt lat="42.48423" lon="18.73578">
        <ele>59.498001</ele>
        <time>2022-05-31T08:58:36.546Z</time>
      </trkpt>
      <trkpt lat="42.48424" lon="18.73561">
        <ele>59.685729</ele>
        <time>2022-05-31T08:58:39.573Z</time>
      </trkpt>
      <trkpt lat="42.48424" lon="18.73543">
        <ele>59.875334</ele>
        <time>2022-05-31T08:58:42.557Z</time>
      </trkpt>
      <trkpt lat="42.48424" lon="18.73527">
        <ele>60.049954</ele>
        <time>2022-05-31T08:58:45.540Z</time>
      </trkpt>
      <trkpt lat="42.48421" lon="18.7351">
        <ele>60.233828</ele>
        <time>2022-05-31T08:58:48.542Z</time>
      </trkpt>
      <trkpt lat="42.48416" lon="18.73495">
        <ele>60.415505</ele>
        <time>2022-05-31T08:58:51.547Z</time>
      </trkpt>
      <trkpt lat="42.4841" lon="18.73481">
        <ele>60.589945</ele>
        <time>2022-05-31T08:58:54.545Z</time>
      </trkpt>
      <trkpt lat="42.48404" lon="18.73466">
        <ele>60.767549</ele>
        <time>2022-05-31T08:58:57.543Z</time>
      </trkpt>
      <trkpt lat="42.48397" lon="18.73454">
        <ele>60.939226</ele>
        <time>2022-05-31T08:59:00.533Z</time>
      </trkpt>
      <trkpt lat="42.48389" lon="18.7344">
        <ele>61.12496</ele>
        <time>2022-05-31T08:59:03.554Z</time>
      </trkpt>
      <trkpt lat="42.48381" lon="18.73427">
        <ele>61.309024</ele>
        <time>2022-05-31T08:59:06.553Z</time>
      </trkpt>
      <trkpt lat="42.48373" lon="18.73413">
        <ele>61.498105</ele>
        <time>2022-05-31T08:59:09.548Z</time>
      </trkpt>
      <trkpt lat="42.48367" lon="18.73397">
        <ele>61.687203</ele>
        <time>2022-05-31T08:59:12.555Z</time>
      </trkpt>
      <trkpt lat="42.48361" lon="18.73381">
        <ele>61.883859</ele>
        <time>2022-05-31T08:59:15.545Z</time>
      </trkpt>
      <trkpt lat="42.48359" lon="18.73369">
        <ele>61.789911</ele>
        <time>2022-05-31T08:59:17.558Z</time>
      </trkpt>
      <trkpt lat="42.48356" lon="18.73357">
        <ele>61.590621</ele>
        <time>2022-05-31T08:59:19.587Z</time>
      </trkpt>
      <trkpt lat="42.48354" lon="18.73344">
        <ele>61.381002</ele>
        <time>2022-05-31T08:59:21.560Z</time>
      </trkpt>
      <trkpt lat="42.48352" lon="18.73332">
        <ele>61.177592</ele>
        <time>2022-05-31T08:59:23.556Z</time>
      </trkpt>
      <trkpt lat="42.4835" lon="18.7332">
        <ele>60.979158</ele>
        <time>2022-05-31T08:59:25.567Z</time>
      </trkpt>
      <trkpt lat="42.48349" lon="18.73307">
        <ele>60.775454</ele>
        <time>2022-05-31T08:59:27.552Z</time>
      </trkpt>
      <trkpt lat="42.48349" lon="18.73294">
        <ele>60.569303</ele>
        <time>2022-05-31T08:59:29.552Z</time>
      </trkpt>
      <trkpt lat="42.48348" lon="18.7328">
        <ele>60.349164</ele>
        <time>2022-05-31T08:59:31.563Z</time>
      </trkpt>
      <trkpt lat="42.48349" lon="18.73266">
        <ele>60.123773</ele>
        <time>2022-05-31T08:59:33.567Z</time>
      </trkpt>
      <trkpt lat="42.4835" lon="18.73252">
        <ele>59.895815</ele>
        <time>2022-05-31T08:59:35.546Z</time>
      </trkpt>
      <trkpt lat="42.48352" lon="18.73237">
        <ele>59.66229</ele>
        <time>2022-05-31T08:59:37.551Z</time>
      </trkpt>
      <trkpt lat="42.48354" lon="18.73223">
        <ele>59.430485</ele>
        <time>2022-05-31T08:59:39.547Z</time>
      </trkpt>
      <trkpt lat="42.48357" lon="18.7321">
        <ele>59.209286</ele>
        <time>2022-05-31T08:59:41.564Z</time>
      </trkpt>
      <trkpt lat="42.48361" lon="18.73198">
        <ele>58.99971</ele>
        <time>2022-05-31T08:59:43.542Z</time>
      </trkpt>
      <trkpt lat="42.48365" lon="18.73184">
        <ele>58.772998</ele>
        <time>2022-05-31T08:59:45.575Z</time>
      </trkpt>
      <trkpt lat="42.48369" lon="18.73171">
        <ele>58.533212</ele>
        <time>2022-05-31T08:59:47.578Z</time>
      </trkpt>
      <trkpt lat="42.48374" lon="18.73158">
        <ele>58.298364</ele>
        <time>2022-05-31T08:59:49.578Z</time>
      </trkpt>
      <trkpt lat="42.4838" lon="18.73145">
        <ele>58.066675</ele>
        <time>2022-05-31T08:59:51.539Z</time>
      </trkpt>
      <trkpt lat="42.48386" lon="18.73134">
        <ele>58.22137</ele>
        <time>2022-05-31T08:59:53.560Z</time>
      </trkpt>
      <trkpt lat="42.48392" lon="18.73124">
        <ele>58.439646</ele>
        <time>2022-05-31T08:59:55.573Z</time>
      </trkpt>
      <trkpt lat="42.48399" lon="18.73113">
        <ele>58.65842</ele>
        <time>2022-05-31T08:59:57.524Z</time>
      </trkpt>
      <trkpt lat="42.48406" lon="18.73104">
        <ele>58.872606</ele>
        <time>2022-05-31T08:59:59.548Z</time>
      </trkpt>
      <trkpt lat="42.48412" lon="18.73095">
        <ele>59.074578</ele>
        <time>2022-05-31T09:00:01.535Z</time>
      </trkpt>
      <trkpt lat="42.48418" lon="18.73086">
        <ele>59.272042</ele>
        <time>2022-05-31T09:00:03.533Z</time>
      </trkpt>
      <trkpt lat="42.48426" lon="18.73073">
        <ele>59.549713</ele>
        <time>2022-05-31T09:00:06.548Z</time>
      </trkpt>
      <trkpt lat="42.48433" lon="18.73058">
        <ele>59.828775</ele>
        <time>2022-05-31T09:00:09.577Z</time>
      </trkpt>
      <trkpt lat="42.48438" lon="18.73047">
        <ele>60.02708</ele>
        <time>2022-05-31T09:00:11.545Z</time>
      </trkpt>
      <trkpt lat="42.48444" lon="18.73031">
        <ele>60.313937</ele>
        <time>2022-05-31T09:00:14.552Z</time>
      </trkpt>
      <trkpt lat="42.48449" lon="18.73015">
        <ele>60.601309</ele>
        <time>2022-05-31T09:00:17.535Z</time>
      </trkpt>
      <trkpt lat="42.48451" lon="18.73002">
        <ele>60.803378</ele>
        <time>2022-05-31T09:00:19.539Z</time>
      </trkpt>
      <trkpt lat="42.48454" lon="18.7299">
        <ele>61.007372</ele>
        <time>2022-05-31T09:00:21.552Z</time>
      </trkpt>
      <trkpt lat="42.48455" lon="18.72977">
        <ele>61.213944</ele>
        <time>2022-05-31T09:00:23.564Z</time>
      </trkpt>
      <trkpt lat="42.48456" lon="18.72965">
        <ele>61.41212</ele>
        <time>2022-05-31T09:00:25.549Z</time>
      </trkpt>
      <trkpt lat="42.48456" lon="18.72952">
        <ele>61.615753</ele>
        <time>2022-05-31T09:00:27.554Z</time>
      </trkpt>
      <trkpt lat="42.48457" lon="18.72939">
        <ele>61.830773</ele>
        <time>2022-05-31T09:00:29.554Z</time>
      </trkpt>
      <trkpt lat="42.48457" lon="18.72926">
        <ele>61.923098</ele>
        <time>2022-05-31T09:00:31.549Z</time>
      </trkpt>
      <trkpt lat="42.48457" lon="18.72914">
        <ele>61.874303</ele>
        <time>2022-05-31T09:00:33.552Z</time>
      </trkpt>
      <trkpt lat="42.48458" lon="18.72901">
        <ele>61.824775</ele>
        <time>2022-05-31T09:00:35.539Z</time>
      </trkpt>
      <trkpt lat="42.48457" lon="18.72889">
        <ele>61.776395</ele>
        <time>2022-05-31T09:00:37.572Z</time>
      </trkpt>
      <trkpt lat="42.48457" lon="18.72875">
        <ele>61.724941</ele>
        <time>2022-05-31T09:00:39.564Z</time>
      </trkpt>
      <trkpt lat="42.48457" lon="18.72862">
        <ele>61.672277</ele>
        <time>2022-05-31T09:00:41.549Z</time>
      </trkpt>
      <trkpt lat="42.48457" lon="18.72848">
        <ele>61.620035</ele>
        <time>2022-05-31T09:00:43.578Z</time>
      </trkpt>
      <trkpt lat="42.48456" lon="18.72835">
        <ele>61.568516</ele>
        <time>2022-05-31T09:00:45.549Z</time>
      </trkpt>
      <trkpt lat="42.48455" lon="18.72822">
        <ele>61.516405</ele>
        <time>2022-05-31T09:00:47.548Z</time>
      </trkpt>
      <trkpt lat="42.48454" lon="18.72809">
        <ele>61.463907</ele>
        <time>2022-05-31T09:00:49.537Z</time>
      </trkpt>
      <trkpt lat="42.48453" lon="18.72794">
        <ele>61.408641</ele>
        <time>2022-05-31T09:00:51.549Z</time>
      </trkpt>
      <trkpt lat="42.48452" lon="18.72781">
        <ele>61.354591</ele>
        <time>2022-05-31T09:00:53.556Z</time>
      </trkpt>
      <trkpt lat="42.48451" lon="18.72767">
        <ele>61.300815</ele>
        <time>2022-05-31T09:00:55.579Z</time>
      </trkpt>
      <trkpt lat="42.48449" lon="18.72754">
        <ele>61.248288</ele>
        <time>2022-05-31T09:00:57.561Z</time>
      </trkpt>
      <trkpt lat="42.48448" lon="18.72741">
        <ele>61.197538</ele>
        <time>2022-05-31T09:00:59.546Z</time>
      </trkpt>
      <trkpt lat="42.48446" lon="18.72727">
        <ele>61.144924</ele>
        <time>2022-05-31T09:01:01.549Z</time>
      </trkpt>
      <trkpt lat="42.48445" lon="18.72714">
        <ele>61.089915</ele>
        <time>2022-05-31T09:01:03.563Z</time>
      </trkpt>
      <trkpt lat="42.48442" lon="18.727">
        <ele>61.036024</ele>
        <time>2022-05-31T09:01:05.550Z</time>
      </trkpt>
      <trkpt lat="42.4844" lon="18.72687">
        <ele>60.913562</ele>
        <time>2022-05-31T09:01:07.539Z</time>
      </trkpt>
      <trkpt lat="42.48438" lon="18.72673">
        <ele>60.56397</ele>
        <time>2022-05-31T09:01:09.546Z</time>
      </trkpt>
      <trkpt lat="42.48435" lon="18.72659">
        <ele>60.201124</ele>
        <time>2022-05-31T09:01:11.598Z</time>
      </trkpt>
      <trkpt lat="42.48433" lon="18.72646">
        <ele>59.843998</ele>
        <time>2022-05-31T09:01:13.570Z</time>
      </trkpt>
      <trkpt lat="42.4843" lon="18.72632">
        <ele>59.49074</ele>
        <time>2022-05-31T09:01:15.545Z</time>
      </trkpt>
      <trkpt lat="42.48427" lon="18.72619">
        <ele>59.133032</ele>
        <time>2022-05-31T09:01:17.546Z</time>
      </trkpt>
      <trkpt lat="42.48425" lon="18.72605">
        <ele>58.765213</ele>
        <time>2022-05-31T09:01:19.552Z</time>
      </trkpt>
      <trkpt lat="42.48422" lon="18.72592">
        <ele>58.417262</ele>
        <time>2022-05-31T09:01:21.558Z</time>
      </trkpt>
      <trkpt lat="42.4842" lon="18.72579">
        <ele>58.076746</ele>
        <time>2022-05-31T09:01:23.539Z</time>
      </trkpt>
      <trkpt lat="42.48418" lon="18.72565">
        <ele>57.734832</ele>
        <time>2022-05-31T09:01:25.556Z</time>
      </trkpt>
      <trkpt lat="42.48417" lon="18.72552">
        <ele>57.392132</ele>
        <time>2022-05-31T09:01:27.539Z</time>
      </trkpt>
      <trkpt lat="42.48415" lon="18.72539">
        <ele>57.062539</ele>
        <time>2022-05-31T09:01:29.561Z</time>
      </trkpt>
      <trkpt lat="42.48414" lon="18.72527">
        <ele>56.735958</ele>
        <time>2022-05-31T09:01:31.548Z</time>
      </trkpt>
      <trkpt lat="42.48413" lon="18.72514">
        <ele>56.403956</ele>
        <time>2022-05-31T09:01:33.549Z</time>
      </trkpt>
      <trkpt lat="42.48413" lon="18.725">
        <ele>56.06767</ele>
        <time>2022-05-31T09:01:35.559Z</time>
      </trkpt>
      <trkpt lat="42.48413" lon="18.72487">
        <ele>55.721198</ele>
        <time>2022-05-31T09:01:37.552Z</time>
      </trkpt>
      <trkpt lat="42.48413" lon="18.72474">
        <ele>55.387369</ele>
        <time>2022-05-31T09:01:39.547Z</time>
      </trkpt>
      <trkpt lat="42.48413" lon="18.72461">
        <ele>55.050994</ele>
        <time>2022-05-31T09:01:41.557Z</time>
      </trkpt>
      <trkpt lat="42.48413" lon="18.72447">
        <ele>54.761396</ele>
        <time>2022-05-31T09:01:43.546Z</time>
      </trkpt>
      <trkpt lat="42.48413" lon="18.72434">
        <ele>54.665836</ele>
        <time>2022-05-31T09:01:45.571Z</time>
      </trkpt>
      <trkpt lat="42.48413" lon="18.72421">
        <ele>54.565786</ele>
        <time>2022-05-31T09:01:47.543Z</time>
      </trkpt>
      <trkpt lat="42.48414" lon="18.72407">
        <ele>54.462696</ele>
        <time>2022-05-31T09:01:49.544Z</time>
      </trkpt>
      <trkpt lat="42.48414" lon="18.72393">
        <ele>54.361086</ele>
        <time>2022-05-31T09:01:51.551Z</time>
      </trkpt>
      <trkpt lat="42.48415" lon="18.72379">
        <ele>54.259476</ele>
        <time>2022-05-31T09:01:53.553Z</time>
      </trkpt>
      <trkpt lat="42.48415" lon="18.72366">
        <ele>54.160932</ele>
        <time>2022-05-31T09:01:55.557Z</time>
      </trkpt>
      <trkpt lat="42.48415" lon="18.72353">
        <ele>54.061542</ele>
        <time>2022-05-31T09:01:57.541Z</time>
      </trkpt>
      <trkpt lat="42.48416" lon="18.7234">
        <ele>53.963677</ele>
        <time>2022-05-31T09:01:59.539Z</time>
      </trkpt>
      <trkpt lat="42.48417" lon="18.72326">
        <ele>53.86442</ele>
        <time>2022-05-31T09:02:01.534Z</time>
      </trkpt>
      <trkpt lat="42.48418" lon="18.72313">
        <ele>53.767597</ele>
        <time>2022-05-31T09:02:03.556Z</time>
      </trkpt>
      <trkpt lat="42.48419" lon="18.723">
        <ele>53.667826</ele>
        <time>2022-05-31T09:02:05.544Z</time>
      </trkpt>
      <trkpt lat="42.4842" lon="18.72286">
        <ele>53.567098</ele>
        <time>2022-05-31T09:02:07.560Z</time>
      </trkpt>
      <trkpt lat="42.48421" lon="18.72273">
        <ele>53.465369</ele>
        <time>2022-05-31T09:02:09.558Z</time>
      </trkpt>
      <trkpt lat="42.48422" lon="18.72259">
        <ele>53.36717</ele>
        <time>2022-05-31T09:02:11.533Z</time>
      </trkpt>
      <trkpt lat="42.48423" lon="18.72247">
        <ele>53.272445</ele>
        <time>2022-05-31T09:02:13.589Z</time>
      </trkpt>
      <trkpt lat="42.48424" lon="18.72233">
        <ele>53.173411</ele>
        <time>2022-05-31T09:02:15.546Z</time>
      </trkpt>
      <trkpt lat="42.48424" lon="18.72221">
        <ele>53.079333</ele>
        <time>2022-05-31T09:02:17.554Z</time>
      </trkpt>
      <trkpt lat="42.48424" lon="18.72208">
        <ele>52.983768</ele>
        <time>2022-05-31T09:02:19.550Z</time>
      </trkpt>
      <trkpt lat="42.48424" lon="18.72195">
        <ele>53.137533</ele>
        <time>2022-05-31T09:02:21.557Z</time>
      </trkpt>
      <trkpt lat="42.48424" lon="18.72181">
        <ele>53.31617</ele>
        <time>2022-05-31T09:02:23.551Z</time>
      </trkpt>
      <trkpt lat="42.48424" lon="18.72168">
        <ele>53.501472</ele>
        <time>2022-05-31T09:02:25.562Z</time>
      </trkpt>
      <trkpt lat="42.48425" lon="18.72153">
        <ele>53.696443</ele>
        <time>2022-05-31T09:02:27.540Z</time>
      </trkpt>
      <trkpt lat="42.48425" lon="18.72139">
        <ele>53.888456</ele>
        <time>2022-05-31T09:02:29.565Z</time>
      </trkpt>
      <trkpt lat="42.48425" lon="18.72125">
        <ele>54.080513</ele>
        <time>2022-05-31T09:02:31.530Z</time>
      </trkpt>
      <trkpt lat="42.48425" lon="18.7211">
        <ele>54.269806</ele>
        <time>2022-05-31T09:02:33.550Z</time>
      </trkpt>
      <trkpt lat="42.48424" lon="18.72096">
        <ele>54.459808</ele>
        <time>2022-05-31T09:02:35.548Z</time>
      </trkpt>
      <trkpt lat="42.48424" lon="18.72082">
        <ele>54.658633</ele>
        <time>2022-05-31T09:02:37.541Z</time>
      </trkpt>
      <trkpt lat="42.48423" lon="18.72067">
        <ele>54.858965</ele>
        <time>2022-05-31T09:02:39.530Z</time>
      </trkpt>
      <trkpt lat="42.48422" lon="18.72053">
        <ele>55.047796</ele>
        <time>2022-05-31T09:02:41.529Z</time>
      </trkpt>
      <trkpt lat="42.48421" lon="18.72038">
        <ele>55.251331</ele>
        <time>2022-05-31T09:02:43.550Z</time>
      </trkpt>
      <trkpt lat="42.4842" lon="18.72022">
        <ele>55.459707</ele>
        <time>2022-05-31T09:02:45.546Z</time>
      </trkpt>
      <trkpt lat="42.4842" lon="18.72007">
        <ele>55.658698</ele>
        <time>2022-05-31T09:02:47.581Z</time>
      </trkpt>
      <trkpt lat="42.48419" lon="18.71992">
        <ele>55.867582</ele>
        <time>2022-05-31T09:02:49.532Z</time>
      </trkpt>
      <trkpt lat="42.48417" lon="18.71976">
        <ele>56.074794</ele>
        <time>2022-05-31T09:02:51.545Z</time>
      </trkpt>
      <trkpt lat="42.48416" lon="18.71961">
        <ele>56.253514</ele>
        <time>2022-05-31T09:02:53.551Z</time>
      </trkpt>
      <trkpt lat="42.48414" lon="18.71947">
        <ele>56.276862</ele>
        <time>2022-05-31T09:02:55.554Z</time>
      </trkpt>
      <trkpt lat="42.48413" lon="18.71933">
        <ele>56.299376</ele>
        <time>2022-05-31T09:02:57.553Z</time>
      </trkpt>
      <trkpt lat="42.48411" lon="18.71918">
        <ele>56.322036</ele>
        <time>2022-05-31T09:02:59.545Z</time>
      </trkpt>
      <trkpt lat="42.48409" lon="18.71904">
        <ele>56.345138</ele>
        <time>2022-05-31T09:03:01.545Z</time>
      </trkpt>
      <trkpt lat="42.48407" lon="18.7189">
        <ele>56.36727</ele>
        <time>2022-05-31T09:03:03.536Z</time>
      </trkpt>
      <trkpt lat="42.48405" lon="18.71877">
        <ele>56.38896</ele>
        <time>2022-05-31T09:03:05.557Z</time>
      </trkpt>
      <trkpt lat="42.48402" lon="18.71864">
        <ele>56.41058</ele>
        <time>2022-05-31T09:03:07.563Z</time>
      </trkpt>
      <trkpt lat="42.484" lon="18.7185">
        <ele>56.432607</ele>
        <time>2022-05-31T09:03:09.548Z</time>
      </trkpt>
      <trkpt lat="42.48398" lon="18.71836">
        <ele>56.455001</ele>
        <time>2022-05-31T09:03:11.545Z</time>
      </trkpt>
      <trkpt lat="42.48395" lon="18.71823">
        <ele>56.47658</ele>
        <time>2022-05-31T09:03:13.537Z</time>
      </trkpt>
      <trkpt lat="42.48394" lon="18.7181">
        <ele>56.496879</ele>
        <time>2022-05-31T09:03:15.549Z</time>
      </trkpt>
      <trkpt lat="42.48393" lon="18.71797">
        <ele>56.517232</ele>
        <time>2022-05-31T09:03:17.553Z</time>
      </trkpt>
      <trkpt lat="42.48391" lon="18.71784">
        <ele>56.537758</ele>
        <time>2022-05-31T09:03:19.553Z</time>
      </trkpt>
      <trkpt lat="42.4839" lon="18.71772">
        <ele>56.557161</ele>
        <time>2022-05-31T09:03:21.552Z</time>
      </trkpt>
      <trkpt lat="42.48387" lon="18.71756">
        <ele>56.583984</ele>
        <time>2022-05-31T09:03:24.549Z</time>
      </trkpt>
      <trkpt lat="42.48385" lon="18.71739">
        <ele>56.610797</ele>
        <time>2022-05-31T09:03:27.545Z</time>
      </trkpt>
      <trkpt lat="42.48383" lon="18.71722">
        <ele>56.63045</ele>
        <time>2022-05-31T09:03:30.544Z</time>
      </trkpt>
      <trkpt lat="42.48381" lon="18.71705">
        <ele>56.598884</ele>
        <time>2022-05-31T09:03:33.567Z</time>
      </trkpt>
      <trkpt lat="42.4838" lon="18.71688">
        <ele>56.569124</ele>
        <time>2022-05-31T09:03:36.534Z</time>
      </trkpt>
      <trkpt lat="42.48378" lon="18.71673">
        <ele>56.540118</ele>
        <time>2022-05-31T09:03:39.557Z</time>
      </trkpt>
      <trkpt lat="42.48377" lon="18.71656">
        <ele>56.510028</ele>
        <time>2022-05-31T09:03:42.606Z</time>
      </trkpt>
      <trkpt lat="42.48376" lon="18.71638">
        <ele>56.477754</ele>
        <time>2022-05-31T09:03:45.545Z</time>
      </trkpt>
      <trkpt lat="42.48376" lon="18.71621">
        <ele>56.445875</ele>
        <time>2022-05-31T09:03:48.578Z</time>
      </trkpt>
      <trkpt lat="42.48376" lon="18.71604">
        <ele>56.414193</ele>
        <time>2022-05-31T09:03:51.552Z</time>
      </trkpt>
      <trkpt lat="42.48375" lon="18.71586">
        <ele>56.382487</ele>
        <time>2022-05-31T09:03:54.587Z</time>
      </trkpt>
      <trkpt lat="42.48376" lon="18.71573">
        <ele>56.359342</ele>
        <time>2022-05-31T09:03:56.584Z</time>
      </trkpt>
      <trkpt lat="42.48375" lon="18.71561">
        <ele>56.337106</ele>
        <time>2022-05-31T09:03:58.542Z</time>
      </trkpt>
      <trkpt lat="42.48375" lon="18.71543">
        <ele>56.303945</ele>
        <time>2022-05-31T09:04:01.545Z</time>
      </trkpt>
      <trkpt lat="42.48374" lon="18.71531">
        <ele>56.2815</ele>
        <time>2022-05-31T09:04:03.554Z</time>
      </trkpt>
      <trkpt lat="42.48374" lon="18.71513">
        <ele>56.248529</ele>
        <time>2022-05-31T09:04:06.553Z</time>
      </trkpt>
      <trkpt lat="42.48374" lon="18.71495">
        <ele>56.215751</ele>
        <time>2022-05-31T09:04:09.543Z</time>
      </trkpt>
      <trkpt lat="42.48374" lon="18.71482">
        <ele>56.192809</ele>
        <time>2022-05-31T09:04:11.550Z</time>
      </trkpt>
      <trkpt lat="42.48374" lon="18.71468">
        <ele>56.149005</ele>
        <time>2022-05-31T09:04:13.550Z</time>
      </trkpt>
      <trkpt lat="42.48374" lon="18.71454">
        <ele>56.102101</ele>
        <time>2022-05-31T09:04:15.549Z</time>
      </trkpt>
      <trkpt lat="42.48375" lon="18.71441">
        <ele>56.05585</ele>
        <time>2022-05-31T09:04:17.553Z</time>
      </trkpt>
      <trkpt lat="42.48375" lon="18.71427">
        <ele>56.011227</ele>
        <time>2022-05-31T09:04:19.551Z</time>
      </trkpt>
      <trkpt lat="42.48376" lon="18.71414">
        <ele>55.965291</ele>
        <time>2022-05-31T09:04:21.578Z</time>
      </trkpt>
      <trkpt lat="42.48376" lon="18.714">
        <ele>55.920714</ele>
        <time>2022-05-31T09:04:23.579Z</time>
      </trkpt>
      <trkpt lat="42.48377" lon="18.71386">
        <ele>55.874319</ele>
        <time>2022-05-31T09:04:25.557Z</time>
      </trkpt>
      <trkpt lat="42.48379" lon="18.71373">
        <ele>55.828333</ele>
        <time>2022-05-31T09:04:27.583Z</time>
      </trkpt>
      <trkpt lat="42.4838" lon="18.71359">
        <ele>55.780896</ele>
        <time>2022-05-31T09:04:29.553Z</time>
      </trkpt>
      <trkpt lat="42.48381" lon="18.71345">
        <ele>55.734412</ele>
        <time>2022-05-31T09:04:31.551Z</time>
      </trkpt>
      <trkpt lat="42.48382" lon="18.71331">
        <ele>55.688094</ele>
        <time>2022-05-31T09:04:33.602Z</time>
      </trkpt>
      <trkpt lat="42.48384" lon="18.71318">
        <ele>55.641325</ele>
        <time>2022-05-31T09:04:35.542Z</time>
      </trkpt>
      <trkpt lat="42.48386" lon="18.71303">
        <ele>55.59355</ele>
        <time>2022-05-31T09:04:37.546Z</time>
      </trkpt>
      <trkpt lat="42.48387" lon="18.71289">
        <ele>55.543852</ele>
        <time>2022-05-31T09:04:39.535Z</time>
      </trkpt>
      <trkpt lat="42.48389" lon="18.71274">
        <ele>55.493551</ele>
        <time>2022-05-31T09:04:41.547Z</time>
      </trkpt>
      <trkpt lat="42.4839" lon="18.71258">
        <ele>55.441469</ele>
        <time>2022-05-31T09:04:43.548Z</time>
      </trkpt>
      <trkpt lat="42.48392" lon="18.71243">
        <ele>55.390112</ele>
        <time>2022-05-31T09:04:45.549Z</time>
      </trkpt>
      <trkpt lat="42.48393" lon="18.71228">
        <ele>55.331657</ele>
        <time>2022-05-31T09:04:47.550Z</time>
      </trkpt>
      <trkpt lat="42.48394" lon="18.71212">
        <ele>55.26889</ele>
        <time>2022-05-31T09:04:49.558Z</time>
      </trkpt>
      <trkpt lat="42.48395" lon="18.71196">
        <ele>55.205949</ele>
        <time>2022-05-31T09:04:51.549Z</time>
      </trkpt>
      <trkpt lat="42.48396" lon="18.71181">
        <ele>55.143009</ele>
        <time>2022-05-31T09:04:53.544Z</time>
      </trkpt>
      <trkpt lat="42.48397" lon="18.71164">
        <ele>55.078294</ele>
        <time>2022-05-31T09:04:55.570Z</time>
      </trkpt>
      <trkpt lat="42.48398" lon="18.71147">
        <ele>55.009892</ele>
        <time>2022-05-31T09:04:57.554Z</time>
      </trkpt>
      <trkpt lat="42.48397" lon="18.7113">
        <ele>54.943204</ele>
        <time>2022-05-31T09:04:59.554Z</time>
      </trkpt>
      <trkpt lat="42.48396" lon="18.71113">
        <ele>54.875517</ele>
        <time>2022-05-31T09:05:01.546Z</time>
      </trkpt>
      <trkpt lat="42.48395" lon="18.71096">
        <ele>54.808621</ele>
        <time>2022-05-31T09:05:03.548Z</time>
      </trkpt>
      <trkpt lat="42.48394" lon="18.71081">
        <ele>54.746911</ele>
        <time>2022-05-31T09:05:05.556Z</time>
      </trkpt>
      <trkpt lat="42.48394" lon="18.71065">
        <ele>54.684515</ele>
        <time>2022-05-31T09:05:07.548Z</time>
      </trkpt>
      <trkpt lat="42.48393" lon="18.7105">
        <ele>54.6241</ele>
        <time>2022-05-31T09:05:09.545Z</time>
      </trkpt>
      <trkpt lat="42.48393" lon="18.71035">
        <ele>54.564146</ele>
        <time>2022-05-31T09:05:11.543Z</time>
      </trkpt>
      <trkpt lat="42.48393" lon="18.7102">
        <ele>54.504969</ele>
        <time>2022-05-31T09:05:13.549Z</time>
      </trkpt>
      <trkpt lat="42.48392" lon="18.71006">
        <ele>54.447328</ele>
        <time>2022-05-31T09:05:15.543Z</time>
      </trkpt>
      <trkpt lat="42.48392" lon="18.70991">
        <ele>54.42677</ele>
        <time>2022-05-31T09:05:17.620Z</time>
      </trkpt>
      <trkpt lat="42.48391" lon="18.70977">
        <ele>54.507632</ele>
        <time>2022-05-31T09:05:19.559Z</time>
      </trkpt>
      <trkpt lat="42.48392" lon="18.70962">
        <ele>54.588548</ele>
        <time>2022-05-31T09:05:21.555Z</time>
      </trkpt>
      <trkpt lat="42.48393" lon="18.70949">
        <ele>54.666781</ele>
        <time>2022-05-31T09:05:23.532Z</time>
      </trkpt>
      <trkpt lat="42.48393" lon="18.70935">
        <ele>54.74451</ele>
        <time>2022-05-31T09:05:25.560Z</time>
      </trkpt>
      <trkpt lat="42.48394" lon="18.70921">
        <ele>54.824478</ele>
        <time>2022-05-31T09:05:27.555Z</time>
      </trkpt>
      <trkpt lat="42.48395" lon="18.70906">
        <ele>54.905211</ele>
        <time>2022-05-31T09:05:29.545Z</time>
      </trkpt>
      <trkpt lat="42.48396" lon="18.70893">
        <ele>54.982594</ele>
        <time>2022-05-31T09:05:31.552Z</time>
      </trkpt>
      <trkpt lat="42.48398" lon="18.70879">
        <ele>55.059599</ele>
        <time>2022-05-31T09:05:33.558Z</time>
      </trkpt>
      <trkpt lat="42.48399" lon="18.70866">
        <ele>55.134039</ele>
        <time>2022-05-31T09:05:35.548Z</time>
      </trkpt>
      <trkpt lat="42.48401" lon="18.70853">
        <ele>55.205832</ele>
        <time>2022-05-31T09:05:37.551Z</time>
      </trkpt>
      <trkpt lat="42.48403" lon="18.70841">
        <ele>55.277273</ele>
        <time>2022-05-31T09:05:39.640Z</time>
      </trkpt>
      <trkpt lat="42.48405" lon="18.70829">
        <ele>55.348915</ele>
        <time>2022-05-31T09:05:41.549Z</time>
      </trkpt>
      <trkpt lat="42.48407" lon="18.70817">
        <ele>55.417529</ele>
        <time>2022-05-31T09:05:43.545Z</time>
      </trkpt>
      <trkpt lat="42.4841" lon="18.70804">
        <ele>55.489171</ele>
        <time>2022-05-31T09:05:45.573Z</time>
      </trkpt>
      <trkpt lat="42.48412" lon="18.70792">
        <ele>55.56199</ele>
        <time>2022-05-31T09:05:47.553Z</time>
      </trkpt>
      <trkpt lat="42.48416" lon="18.7078">
        <ele>55.632658</ele>
        <time>2022-05-31T09:05:49.540Z</time>
      </trkpt>
      <trkpt lat="42.48421" lon="18.70764">
        <ele>55.729087</ele>
        <time>2022-05-31T09:05:52.552Z</time>
      </trkpt>
      <trkpt lat="42.48424" lon="18.70749">
        <ele>55.703429</ele>
        <time>2022-05-31T09:05:55.554Z</time>
      </trkpt>
      <trkpt lat="42.48427" lon="18.70735">
        <ele>55.556099</ele>
        <time>2022-05-31T09:05:58.629Z</time>
      </trkpt>
      <trkpt lat="42.4843" lon="18.70719">
        <ele>55.402916</ele>
        <time>2022-05-31T09:06:01.543Z</time>
      </trkpt>
      <trkpt lat="42.48433" lon="18.70701">
        <ele>55.223653</ele>
        <time>2022-05-31T09:06:04.547Z</time>
      </trkpt>
      <trkpt lat="42.48435" lon="18.70685">
        <ele>55.072352</ele>
        <time>2022-05-31T09:06:06.564Z</time>
      </trkpt>
      <trkpt lat="42.48439" lon="18.70668">
        <ele>54.898639</ele>
        <time>2022-05-31T09:06:08.593Z</time>
      </trkpt>
      <trkpt lat="42.48442" lon="18.70651">
        <ele>54.727193</ele>
        <time>2022-05-31T09:06:10.528Z</time>
      </trkpt>
      <trkpt lat="42.48441" lon="18.70633">
        <ele>54.556973</ele>
        <time>2022-05-31T09:06:12.504Z</time>
      </trkpt>
      <trkpt lat="42.48438" lon="18.70617">
        <ele>54.398539</ele>
        <time>2022-05-31T09:06:14.511Z</time>
      </trkpt>
      <trkpt lat="42.48433" lon="18.70603">
        <ele>54.24786</ele>
        <time>2022-05-31T09:06:16.511Z</time>
      </trkpt>
      <trkpt lat="42.48427" lon="18.70591">
        <ele>54.108228</ele>
        <time>2022-05-31T09:06:18.531Z</time>
      </trkpt>
      <trkpt lat="42.48423" lon="18.70578">
        <ele>53.97092</ele>
        <time>2022-05-31T09:06:20.549Z</time>
      </trkpt>
      <trkpt lat="42.48421" lon="18.70564">
        <ele>53.835869</ele>
        <time>2022-05-31T09:06:22.530Z</time>
      </trkpt>
      <trkpt lat="42.4842" lon="18.7055">
        <ele>53.697297</ele>
        <time>2022-05-31T09:06:24.564Z</time>
      </trkpt>
      <trkpt lat="42.4842" lon="18.70536">
        <ele>53.562621</ele>
        <time>2022-05-31T09:06:26.559Z</time>
      </trkpt>
      <trkpt lat="42.4842" lon="18.70521">
        <ele>53.424165</ele>
        <time>2022-05-31T09:06:28.542Z</time>
      </trkpt>
      <trkpt lat="42.4842" lon="18.70507">
        <ele>53.265613</ele>
        <time>2022-05-31T09:06:30.548Z</time>
      </trkpt>
      <trkpt lat="42.48421" lon="18.70493">
        <ele>53.101674</ele>
        <time>2022-05-31T09:06:32.536Z</time>
      </trkpt>
      <trkpt lat="42.48422" lon="18.70479">
        <ele>52.945602</ele>
        <time>2022-05-31T09:06:34.527Z</time>
      </trkpt>
      <trkpt lat="42.48423" lon="18.70466">
        <ele>52.797323</ele>
        <time>2022-05-31T09:06:36.555Z</time>
      </trkpt>
      <trkpt lat="42.48423" lon="18.70451">
        <ele>52.626735</ele>
        <time>2022-05-31T09:06:38.536Z</time>
      </trkpt>
      <trkpt lat="42.48425" lon="18.70435">
        <ele>52.435699</ele>
        <time>2022-05-31T09:06:40.544Z</time>
      </trkpt>
      <trkpt lat="42.48429" lon="18.70421">
        <ele>52.260541</ele>
        <time>2022-05-31T09:06:42.642Z</time>
      </trkpt>
      <trkpt lat="42.48435" lon="18.70409">
        <ele>52.096666</ele>
        <time>2022-05-31T09:06:44.558Z</time>
      </trkpt>
      <trkpt lat="42.48442" lon="18.704">
        <ele>51.95152</ele>
        <time>2022-05-31T09:06:46.576Z</time>
      </trkpt>
      <trkpt lat="42.48449" lon="18.70391">
        <ele>51.80242</ele>
        <time>2022-05-31T09:06:48.557Z</time>
      </trkpt>
      <trkpt lat="42.48456" lon="18.70382">
        <ele>51.656189</ele>
        <time>2022-05-31T09:06:50.596Z</time>
      </trkpt>
      <trkpt lat="42.48465" lon="18.7037">
        <ele>51.465345</ele>
        <time>2022-05-31T09:06:53.568Z</time>
      </trkpt>
      <trkpt lat="42.48472" lon="18.70363">
        <ele>51.324897</ele>
        <time>2022-05-31T09:06:55.544Z</time>
      </trkpt>
      <trkpt lat="42.4848" lon="18.70355">
        <ele>51.167869</ele>
        <time>2022-05-31T09:06:57.536Z</time>
      </trkpt>
      <trkpt lat="42.48489" lon="18.70347">
        <ele>51.005132</ele>
        <time>2022-05-31T09:06:59.537Z</time>
      </trkpt>
      <trkpt lat="42.48497" lon="18.70339">
        <ele>50.853885</ele>
        <time>2022-05-31T09:07:01.550Z</time>
      </trkpt>
      <trkpt lat="42.48504" lon="18.70331">
        <ele>50.711776</ele>
        <time>2022-05-31T09:07:03.570Z</time>
      </trkpt>
      <trkpt lat="42.48514" lon="18.70318">
        <ele>50.58374</ele>
        <time>2022-05-31T09:07:06.553Z</time>
      </trkpt>
      <trkpt lat="42.48519" lon="18.70303">
        <ele>50.492738</ele>
        <time>2022-05-31T09:07:09.540Z</time>
      </trkpt>
      <trkpt lat="42.48522" lon="18.70289">
        <ele>50.409852</ele>
        <time>2022-05-31T09:07:12.553Z</time>
      </trkpt>
      <trkpt lat="42.48522" lon="18.70274">
        <ele>50.328273</ele>
        <time>2022-05-31T09:07:15.539Z</time>
      </trkpt>
      <trkpt lat="42.48521" lon="18.70259">
        <ele>50.245484</ele>
        <time>2022-05-31T09:07:18.545Z</time>
      </trkpt>
      <trkpt lat="42.48518" lon="18.70245">
        <ele>50.162491</ele>
        <time>2022-05-31T09:07:21.531Z</time>
      </trkpt>
      <trkpt lat="42.48513" lon="18.70231">
        <ele>50.077519</ele>
        <time>2022-05-31T09:07:24.559Z</time>
      </trkpt>
      <trkpt lat="42.48508" lon="18.70217">
        <ele>49.993245</ele>
        <time>2022-05-31T09:07:27.555Z</time>
      </trkpt>
      <trkpt lat="42.48504" lon="18.70202">
        <ele>49.905578</ele>
        <time>2022-05-31T09:07:30.535Z</time>
      </trkpt>
      <trkpt lat="42.485" lon="18.70187">
        <ele>49.816018</ele>
        <time>2022-05-31T09:07:33.555Z</time>
      </trkpt>
      <trkpt lat="42.485" lon="18.70169">
        <ele>49.718398</ele>
        <time>2022-05-31T09:07:36.574Z</time>
      </trkpt>
      <trkpt lat="42.485" lon="18.70152">
        <ele>49.622501</ele>
        <time>2022-05-31T09:07:39.539Z</time>
      </trkpt>
      <trkpt lat="42.48498" lon="18.70136">
        <ele>49.532969</ele>
        <time>2022-05-31T09:07:42.572Z</time>
      </trkpt>
      <trkpt lat="42.48499" lon="18.7012">
        <ele>49.444085</ele>
        <time>2022-05-31T09:07:46.535Z</time>
      </trkpt>
      <trkpt lat="42.48499" lon="18.70105">
        <ele>49.364173</ele>
        <time>2022-05-31T09:07:49.541Z</time>
      </trkpt>
      <trkpt lat="42.48498" lon="18.70092">
        <ele>49.282093</ele>
        <time>2022-05-31T09:07:52.553Z</time>
      </trkpt>
      <trkpt lat="42.48499" lon="18.70077">
        <ele>49.153658</ele>
        <time>2022-05-31T09:07:55.530Z</time>
      </trkpt>
      <trkpt lat="42.48504" lon="18.70062">
        <ele>49.02707</ele>
        <time>2022-05-31T09:07:58.585Z</time>
      </trkpt>
      <trkpt lat="42.48509" lon="18.70048">
        <ele>48.892216</ele>
        <time>2022-05-31T09:08:01.572Z</time>
      </trkpt>
      <trkpt lat="42.48512" lon="18.70031">
        <ele>48.74985</ele>
        <time>2022-05-31T09:08:04.539Z</time>
      </trkpt>
      <trkpt lat="42.48516" lon="18.70015">
        <ele>48.605672</ele>
        <time>2022-05-31T09:08:07.560Z</time>
      </trkpt>
      <trkpt lat="42.48523" lon="18.7">
        <ele>48.464683</ele>
        <time>2022-05-31T09:08:10.530Z</time>
      </trkpt>
      <trkpt lat="42.4853" lon="18.69987">
        <ele>48.330393</ele>
        <time>2022-05-31T09:08:13.549Z</time>
      </trkpt>
      <trkpt lat="42.48537" lon="18.69976">
        <ele>48.209884</ele>
        <time>2022-05-31T09:08:16.550Z</time>
      </trkpt>
      <trkpt lat="42.48542" lon="18.69964">
        <ele>48.0913</ele>
        <time>2022-05-31T09:08:19.593Z</time>
      </trkpt>
      <trkpt lat="42.48548" lon="18.6995">
        <ele>47.959605</ele>
        <time>2022-05-31T09:08:22.555Z</time>
      </trkpt>
      <trkpt lat="42.48553" lon="18.69936">
        <ele>47.827998</ele>
        <time>2022-05-31T09:08:25.539Z</time>
      </trkpt>
      <trkpt lat="42.4856" lon="18.69922">
        <ele>47.68876</ele>
        <time>2022-05-31T09:08:28.546Z</time>
      </trkpt>
      <trkpt lat="42.48566" lon="18.69909">
        <ele>47.55885</ele>
        <time>2022-05-31T09:08:31.548Z</time>
      </trkpt>
      <trkpt lat="42.48573" lon="18.69897">
        <ele>47.435244</ele>
        <time>2022-05-31T09:08:34.544Z</time>
      </trkpt>
      <trkpt lat="42.48577" lon="18.69885">
        <ele>47.323255</ele>
        <time>2022-05-31T09:08:38.559Z</time>
      </trkpt>
      <trkpt lat="42.48583" lon="18.69874">
        <ele>47.356823</ele>
        <time>2022-05-31T09:08:46.556Z</time>
      </trkpt>
      <trkpt lat="42.48587" lon="18.69862">
        <ele>47.462075</ele>
        <time>2022-05-31T09:08:52.533Z</time>
      </trkpt>
      <trkpt lat="42.48593" lon="18.69852">
        <ele>47.565685</ele>
        <time>2022-05-31T09:09:08.576Z</time>
      </trkpt>
      <trkpt lat="42.48605" lon="18.69823">
        <ele>47.837768</ele>
        <time>2022-05-31T09:09:56.568Z</time>
      </trkpt>
      <trkpt lat="42.4861" lon="18.69812">
        <ele>47.938837</ele>
        <time>2022-05-31T09:10:00.539Z</time>
      </trkpt>
      <trkpt lat="42.48613" lon="18.698">
        <ele>48.036924</ele>
        <time>2022-05-31T09:10:03.557Z</time>
      </trkpt>
      <trkpt lat="42.48619" lon="18.69791">
        <ele>48.13599</ele>
        <time>2022-05-31T09:10:06.566Z</time>
      </trkpt>
      <trkpt lat="42.48625" lon="18.69781">
        <ele>48.237821</ele>
        <time>2022-05-31T09:10:09.543Z</time>
      </trkpt>
      <trkpt lat="42.48633" lon="18.69772">
        <ele>48.34395</ele>
        <time>2022-05-31T09:10:12.543Z</time>
      </trkpt>
      <trkpt lat="42.4864" lon="18.69761">
        <ele>48.463747</ele>
        <time>2022-05-31T09:10:15.550Z</time>
      </trkpt>
      <trkpt lat="42.48649" lon="18.69753">
        <ele>48.58731</ele>
        <time>2022-05-31T09:10:18.555Z</time>
      </trkpt>
      <trkpt lat="42.4866" lon="18.69743">
        <ele>48.723672</ele>
        <time>2022-05-31T09:10:21.548Z</time>
      </trkpt>
      <trkpt lat="42.4867" lon="18.69735">
        <ele>48.852504</ele>
        <time>2022-05-31T09:10:24.546Z</time>
      </trkpt>
      <trkpt lat="42.4868" lon="18.69728">
        <ele>48.978835</ele>
        <time>2022-05-31T09:10:27.549Z</time>
      </trkpt>
      <trkpt lat="42.48691" lon="18.69722">
        <ele>49.105164</ele>
        <time>2022-05-31T09:10:30.540Z</time>
      </trkpt>
      <trkpt lat="42.48701" lon="18.69718">
        <ele>49.217353</ele>
        <time>2022-05-31T09:10:33.552Z</time>
      </trkpt>
      <trkpt lat="42.4871" lon="18.69713">
        <ele>49.231268</ele>
        <time>2022-05-31T09:10:36.552Z</time>
      </trkpt>
      <trkpt lat="42.4872" lon="18.69707">
        <ele>49.222983</ele>
        <time>2022-05-31T09:10:39.542Z</time>
      </trkpt>
      <trkpt lat="42.48731" lon="18.69701">
        <ele>49.213851</ele>
        <time>2022-05-31T09:10:43.562Z</time>
      </trkpt>
      <trkpt lat="42.48739" lon="18.69697">
        <ele>49.20672</ele>
        <time>2022-05-31T09:10:47.553Z</time>
      </trkpt>
      <trkpt lat="42.48748" lon="18.69689">
        <ele>49.198323</ele>
        <time>2022-05-31T09:10:51.588Z</time>
      </trkpt>
      <trkpt lat="42.48755" lon="18.69681">
        <ele>49.190786</ele>
        <time>2022-05-31T09:10:54.547Z</time>
      </trkpt>
      <trkpt lat="42.48762" lon="18.69669">
        <ele>49.18189</ele>
        <time>2022-05-31T09:10:58.550Z</time>
      </trkpt>
      <trkpt lat="42.48766" lon="18.69658">
        <ele>49.174771</ele>
        <time>2022-05-31T09:11:01.552Z</time>
      </trkpt>
      <trkpt lat="42.48768" lon="18.69646">
        <ele>49.16754</ele>
        <time>2022-05-31T09:11:04.590Z</time>
      </trkpt>
      <trkpt lat="42.48772" lon="18.69633">
        <ele>49.158882</ele>
        <time>2022-05-31T09:11:08.557Z</time>
      </trkpt>
      <trkpt lat="42.48775" lon="18.6962">
        <ele>49.151125</ele>
        <time>2022-05-31T09:11:12.558Z</time>
      </trkpt>
      <trkpt lat="42.48777" lon="18.69607">
        <ele>49.143265</ele>
        <time>2022-05-31T09:11:16.566Z</time>
      </trkpt>
      <trkpt lat="42.48781" lon="18.69564">
        <ele>49.118021</ele>
        <time>2022-05-31T09:12:27.565Z</time>
      </trkpt>
      <trkpt lat="42.48788" lon="18.69554">
        <ele>49.110194</ele>
        <time>2022-05-31T09:12:31.549Z</time>
      </trkpt>
      <trkpt lat="42.48794" lon="18.69542">
        <ele>49.101765</ele>
        <time>2022-05-31T09:12:36.553Z</time>
      </trkpt>
      <trkpt lat="42.48799" lon="18.69529">
        <ele>49.172956</ele>
        <time>2022-05-31T09:12:40.543Z</time>
      </trkpt>
      <trkpt lat="42.48805" lon="18.69517">
        <ele>49.515806</ele>
        <time>2022-05-31T09:12:44.543Z</time>
      </trkpt>
      <trkpt lat="42.48811" lon="18.69506">
        <ele>49.840716</ele>
        <time>2022-05-31T09:12:48.558Z</time>
      </trkpt>
      <trkpt lat="42.48819" lon="18.69496">
        <ele>50.194291</ele>
        <time>2022-05-31T09:12:52.547Z</time>
      </trkpt>
      <trkpt lat="42.48828" lon="18.69488">
        <ele>50.535682</ele>
        <time>2022-05-31T09:12:57.552Z</time>
      </trkpt>
      <trkpt lat="42.48838" lon="18.69485">
        <ele>50.869126</ele>
        <time>2022-05-31T09:13:02.538Z</time>
      </trkpt>
      <trkpt lat="42.48847" lon="18.69482">
        <ele>51.162494</ele>
        <time>2022-05-31T09:13:07.572Z</time>
      </trkpt>
      <trkpt lat="42.48856" lon="18.69482">
        <ele>51.465628</ele>
        <time>2022-05-31T09:13:12.545Z</time>
      </trkpt>
      <trkpt lat="42.48867" lon="18.6948">
        <ele>51.808494</ele>
        <time>2022-05-31T09:13:17.557Z</time>
      </trkpt>
      <trkpt lat="42.48875" lon="18.69474">
        <ele>52.101722</ele>
        <time>2022-05-31T09:13:24.550Z</time>
      </trkpt>
      <trkpt lat="42.48916" lon="18.69434">
        <ele>53.742838</ele>
        <time>2022-05-31T09:37:49.521Z</time>
      </trkpt>
      <trkpt lat="42.48923" lon="18.69425">
        <ele>54.069295</ele>
        <time>2022-05-31T09:37:53.521Z</time>
      </trkpt>
      <trkpt lat="42.4893" lon="18.69414">
        <ele>54.384826</ele>
        <time>2022-05-31T09:37:57.514Z</time>
      </trkpt>
      <trkpt lat="42.48936" lon="18.69405">
        <ele>54.703136</ele>
        <time>2022-05-31T09:38:01.528Z</time>
      </trkpt>
      <trkpt lat="42.48943" lon="18.69396">
        <ele>54.825894</ele>
        <time>2022-05-31T09:38:06.526Z</time>
      </trkpt>
      <trkpt lat="42.48951" lon="18.69387">
        <ele>54.642576</ele>
        <time>2022-05-31T09:38:11.519Z</time>
      </trkpt>
      <trkpt lat="42.48955" lon="18.69375">
        <ele>54.472311</ele>
        <time>2022-05-31T09:38:16.533Z</time>
      </trkpt>
      <trkpt lat="42.48961" lon="18.69365">
        <ele>54.308986</ele>
        <time>2022-05-31T09:38:21.587Z</time>
      </trkpt>
      <trkpt lat="42.48969" lon="18.69358">
        <ele>54.137137</ele>
        <time>2022-05-31T09:38:26.516Z</time>
      </trkpt>
      <trkpt lat="42.48977" lon="18.6935">
        <ele>53.964301</ele>
        <time>2022-05-31T09:38:29.519Z</time>
      </trkpt>
      <trkpt lat="42.48985" lon="18.69338">
        <ele>53.755431</ele>
        <time>2022-05-31T09:38:32.531Z</time>
      </trkpt>
      <trkpt lat="42.48993" lon="18.69327">
        <ele>53.541387</ele>
        <time>2022-05-31T09:38:35.512Z</time>
      </trkpt>
      <trkpt lat="42.49002" lon="18.69316">
        <ele>53.328096</ele>
        <time>2022-05-31T09:38:38.519Z</time>
      </trkpt>
      <trkpt lat="42.49011" lon="18.69305">
        <ele>53.120666</ele>
        <time>2022-05-31T09:38:41.520Z</time>
      </trkpt>
      <trkpt lat="42.49019" lon="18.69294">
        <ele>52.911914</ele>
        <time>2022-05-31T09:38:44.525Z</time>
      </trkpt>
      <trkpt lat="42.49029" lon="18.69284">
        <ele>52.7006</ele>
        <time>2022-05-31T09:38:47.518Z</time>
      </trkpt>
      <trkpt lat="42.49039" lon="18.69275">
        <ele>52.478937</ele>
        <time>2022-05-31T09:38:50.517Z</time>
      </trkpt>
      <trkpt lat="42.4905" lon="18.69264">
        <ele>52.246778</ele>
        <time>2022-05-31T09:38:53.527Z</time>
      </trkpt>
      <trkpt lat="42.49061" lon="18.69255">
        <ele>52.013859</ele>
        <time>2022-05-31T09:38:56.522Z</time>
      </trkpt>
      <trkpt lat="42.49072" lon="18.69245">
        <ele>51.774472</ele>
        <time>2022-05-31T09:38:59.513Z</time>
      </trkpt>
      <trkpt lat="42.4908" lon="18.69239">
        <ele>51.387626</ele>
        <time>2022-05-31T09:39:01.515Z</time>
      </trkpt>
      <trkpt lat="42.49088" lon="18.69233">
        <ele>50.83477</ele>
        <time>2022-05-31T09:39:03.540Z</time>
      </trkpt>
      <trkpt lat="42.49097" lon="18.69227">
        <ele>50.264753</ele>
        <time>2022-05-31T09:39:05.518Z</time>
      </trkpt>
      <trkpt lat="42.49105" lon="18.69222">
        <ele>49.681274</ele>
        <time>2022-05-31T09:39:07.516Z</time>
      </trkpt>
      <trkpt lat="42.49114" lon="18.69217">
        <ele>49.07539</ele>
        <time>2022-05-31T09:39:09.548Z</time>
      </trkpt>
      <trkpt lat="42.49123" lon="18.69211">
        <ele>48.480729</ele>
        <time>2022-05-31T09:39:11.521Z</time>
      </trkpt>
      <trkpt lat="42.49133" lon="18.69207">
        <ele>47.883922</ele>
        <time>2022-05-31T09:39:13.519Z</time>
      </trkpt>
      <trkpt lat="42.49142" lon="18.69203">
        <ele>47.272632</ele>
        <time>2022-05-31T09:39:15.537Z</time>
      </trkpt>
      <trkpt lat="42.49151" lon="18.69199">
        <ele>46.674374</ele>
        <time>2022-05-31T09:39:17.518Z</time>
      </trkpt>
      <trkpt lat="42.49161" lon="18.69194">
        <ele>46.038412</ele>
        <time>2022-05-31T09:39:19.519Z</time>
      </trkpt>
      <trkpt lat="42.49171" lon="18.69189">
        <ele>45.41661</ele>
        <time>2022-05-31T09:39:21.516Z</time>
      </trkpt>
      <trkpt lat="42.4918" lon="18.69185">
        <ele>44.831382</ele>
        <time>2022-05-31T09:39:23.524Z</time>
      </trkpt>
      <trkpt lat="42.49189" lon="18.69182">
        <ele>44.260555</ele>
        <time>2022-05-31T09:39:25.517Z</time>
      </trkpt>
      <trkpt lat="42.49198" lon="18.69177">
        <ele>43.68552</ele>
        <time>2022-05-31T09:39:27.528Z</time>
      </trkpt>
      <trkpt lat="42.4921" lon="18.69172">
        <ele>42.879781</ele>
        <time>2022-05-31T09:39:30.527Z</time>
      </trkpt>
      <trkpt lat="42.49219" lon="18.6917">
        <ele>42.322812</ele>
        <time>2022-05-31T09:39:32.533Z</time>
      </trkpt>
      <trkpt lat="42.49232" lon="18.69166">
        <ele>41.521198</ele>
        <time>2022-05-31T09:39:35.517Z</time>
      </trkpt>
      <trkpt lat="42.49241" lon="18.69164">
        <ele>40.953756</ele>
        <time>2022-05-31T09:39:37.521Z</time>
      </trkpt>
      <trkpt lat="42.49254" lon="18.69163">
        <ele>40.693412</ele>
        <time>2022-05-31T09:39:40.524Z</time>
      </trkpt>
      <trkpt lat="42.49268" lon="18.69164">
        <ele>40.69406</ele>
        <time>2022-05-31T09:39:43.547Z</time>
      </trkpt>
      <trkpt lat="42.49279" lon="18.69164">
        <ele>40.694599</ele>
        <time>2022-05-31T09:39:46.528Z</time>
      </trkpt>
      <trkpt lat="42.4929" lon="18.69165">
        <ele>40.695143</ele>
        <time>2022-05-31T09:39:49.544Z</time>
      </trkpt>
      <trkpt lat="42.49301" lon="18.69165">
        <ele>40.695696</ele>
        <time>2022-05-31T09:39:52.525Z</time>
      </trkpt>
      <trkpt lat="42.49311" lon="18.69163">
        <ele>40.696189</ele>
        <time>2022-05-31T09:39:55.540Z</time>
      </trkpt>
      <trkpt lat="42.4932" lon="18.69161">
        <ele>40.696657</ele>
        <time>2022-05-31T09:39:58.521Z</time>
      </trkpt>
      <trkpt lat="42.4933" lon="18.69159">
        <ele>40.697147</ele>
        <time>2022-05-31T09:40:01.533Z</time>
      </trkpt>
      <trkpt lat="42.49341" lon="18.69159">
        <ele>40.697652</ele>
        <time>2022-05-31T09:40:04.520Z</time>
      </trkpt>
      <trkpt lat="42.49351" lon="18.69158">
        <ele>40.698167</ele>
        <time>2022-05-31T09:40:07.583Z</time>
      </trkpt>
      <trkpt lat="42.49362" lon="18.69158">
        <ele>40.698681</ele>
        <time>2022-05-31T09:40:10.525Z</time>
      </trkpt>
      <trkpt lat="42.49373" lon="18.69158">
        <ele>40.69922</ele>
        <time>2022-05-31T09:40:13.525Z</time>
      </trkpt>
      <trkpt lat="42.49384" lon="18.69159">
        <ele>40.69977</ele>
        <time>2022-05-31T09:40:16.518Z</time>
      </trkpt>
      <trkpt lat="42.49395" lon="18.69161">
        <ele>40.700306</ele>
        <time>2022-05-31T09:40:19.525Z</time>
      </trkpt>
      <trkpt lat="42.49406" lon="18.69162">
        <ele>40.700876</ele>
        <time>2022-05-31T09:40:22.527Z</time>
      </trkpt>
      <trkpt lat="42.49418" lon="18.69164">
        <ele>40.701473</ele>
        <time>2022-05-31T09:40:25.520Z</time>
      </trkpt>
      <trkpt lat="42.49429" lon="18.69163">
        <ele>40.871839</ele>
        <time>2022-05-31T09:40:28.525Z</time>
      </trkpt>
      <trkpt lat="42.49441" lon="18.69162">
        <ele>41.295944</ele>
        <time>2022-05-31T09:40:31.520Z</time>
      </trkpt>
      <trkpt lat="42.49452" lon="18.6916">
        <ele>41.713105</ele>
        <time>2022-05-31T09:40:34.518Z</time>
      </trkpt>
      <trkpt lat="42.49463" lon="18.69157">
        <ele>42.131933</ele>
        <time>2022-05-31T09:40:37.520Z</time>
      </trkpt>
      <trkpt lat="42.49475" lon="18.69152">
        <ele>42.568936</ele>
        <time>2022-05-31T09:40:40.514Z</time>
      </trkpt>
      <trkpt lat="42.49487" lon="18.69145">
        <ele>43.071744</ele>
        <time>2022-05-31T09:40:43.512Z</time>
      </trkpt>
      <trkpt lat="42.49496" lon="18.69139">
        <ele>43.430464</ele>
        <time>2022-05-31T09:40:45.525Z</time>
      </trkpt>
      <trkpt lat="42.49505" lon="18.69133">
        <ele>43.787998</ele>
        <time>2022-05-31T09:40:47.516Z</time>
      </trkpt>
      <trkpt lat="42.49514" lon="18.69127">
        <ele>44.141406</ele>
        <time>2022-05-31T09:40:49.521Z</time>
      </trkpt>
      <trkpt lat="42.49522" lon="18.69122">
        <ele>44.486593</ele>
        <time>2022-05-31T09:40:51.518Z</time>
      </trkpt>
      <trkpt lat="42.49531" lon="18.69117">
        <ele>44.843978</ele>
        <time>2022-05-31T09:40:53.538Z</time>
      </trkpt>
      <trkpt lat="42.49541" lon="18.69114">
        <ele>45.200416</ele>
        <time>2022-05-31T09:40:55.514Z</time>
      </trkpt>
      <trkpt lat="42.49551" lon="18.69111">
        <ele>45.575873</ele>
        <time>2022-05-31T09:40:57.518Z</time>
      </trkpt>
      <trkpt lat="42.49561" lon="18.69109">
        <ele>45.949263</ele>
        <time>2022-05-31T09:40:59.539Z</time>
      </trkpt>
      <trkpt lat="42.49571" lon="18.69108">
        <ele>46.329913</ele>
        <time>2022-05-31T09:41:01.530Z</time>
      </trkpt>
      <trkpt lat="42.49582" lon="18.69108">
        <ele>46.713608</ele>
        <time>2022-05-31T09:41:03.522Z</time>
      </trkpt>
      <trkpt lat="42.49592" lon="18.69109">
        <ele>47.102303</ele>
        <time>2022-05-31T09:41:05.562Z</time>
      </trkpt>
      <trkpt lat="42.49603" lon="18.69111">
        <ele>47.32665</ele>
        <time>2022-05-31T09:41:07.541Z</time>
      </trkpt>
      <trkpt lat="42.49614" lon="18.69113">
        <ele>47.417428</ele>
        <time>2022-05-31T09:41:09.550Z</time>
      </trkpt>
      <trkpt lat="42.49625" lon="18.69116">
        <ele>47.511699</ele>
        <time>2022-05-31T09:41:11.592Z</time>
      </trkpt>
      <trkpt lat="42.49635" lon="18.6912">
        <ele>47.603582</ele>
        <time>2022-05-31T09:41:13.548Z</time>
      </trkpt>
      <trkpt lat="42.49645" lon="18.69125">
        <ele>47.691291</ele>
        <time>2022-05-31T09:41:15.551Z</time>
      </trkpt>
      <trkpt lat="42.49654" lon="18.69129">
        <ele>47.779216</ele>
        <time>2022-05-31T09:41:17.549Z</time>
      </trkpt>
      <trkpt lat="42.49664" lon="18.69135">
        <ele>47.866688</ele>
        <time>2022-05-31T09:41:19.563Z</time>
      </trkpt>
      <trkpt lat="42.49674" lon="18.6914">
        <ele>47.957489</ele>
        <time>2022-05-31T09:41:21.549Z</time>
      </trkpt>
      <trkpt lat="42.49683" lon="18.69147">
        <ele>48.048031</ele>
        <time>2022-05-31T09:41:23.540Z</time>
      </trkpt>
      <trkpt lat="42.49693" lon="18.69153">
        <ele>48.138165</ele>
        <time>2022-05-31T09:41:25.532Z</time>
      </trkpt>
      <trkpt lat="42.49702" lon="18.6916">
        <ele>48.229254</ele>
        <time>2022-05-31T09:41:27.548Z</time>
      </trkpt>
      <trkpt lat="42.49712" lon="18.69166">
        <ele>48.319303</ele>
        <time>2022-05-31T09:41:29.585Z</time>
      </trkpt>
      <trkpt lat="42.49721" lon="18.69172">
        <ele>48.404188</ele>
        <time>2022-05-31T09:41:31.545Z</time>
      </trkpt>
      <trkpt lat="42.4973" lon="18.69178">
        <ele>48.491884</ele>
        <time>2022-05-31T09:41:33.577Z</time>
      </trkpt>
      <trkpt lat="42.49739" lon="18.69185">
        <ele>48.582426</ele>
        <time>2022-05-31T09:41:35.573Z</time>
      </trkpt>
      <trkpt lat="42.49749" lon="18.6919">
        <ele>48.675039</ele>
        <time>2022-05-31T09:41:37.546Z</time>
      </trkpt>
      <trkpt lat="42.49759" lon="18.69196">
        <ele>48.766693</ele>
        <time>2022-05-31T09:41:39.523Z</time>
      </trkpt>
      <trkpt lat="42.4977" lon="18.692">
        <ele>48.728687</ele>
        <time>2022-05-31T09:41:41.541Z</time>
      </trkpt>
      <trkpt lat="42.4978" lon="18.69204">
        <ele>48.590345</ele>
        <time>2022-05-31T09:41:43.560Z</time>
      </trkpt>
      <trkpt lat="42.4979" lon="18.69208">
        <ele>48.455706</ele>
        <time>2022-05-31T09:41:45.539Z</time>
      </trkpt>
      <trkpt lat="42.49801" lon="18.69212">
        <ele>48.312414</ele>
        <time>2022-05-31T09:41:47.557Z</time>
      </trkpt>
      <trkpt lat="42.49811" lon="18.69214">
        <ele>48.176196</ele>
        <time>2022-05-31T09:41:49.550Z</time>
      </trkpt>
      <trkpt lat="42.49822" lon="18.69217">
        <ele>48.038711</ele>
        <time>2022-05-31T09:41:51.553Z</time>
      </trkpt>
      <trkpt lat="42.49833" lon="18.69219">
        <ele>47.896013</ele>
        <time>2022-05-31T09:41:53.559Z</time>
      </trkpt>
      <trkpt lat="42.49844" lon="18.69221">
        <ele>47.750919</ele>
        <time>2022-05-31T09:41:55.548Z</time>
      </trkpt>
      <trkpt lat="42.49855" lon="18.69223">
        <ele>47.616498</ele>
        <time>2022-05-31T09:41:57.574Z</time>
      </trkpt>
      <trkpt lat="42.49865" lon="18.69226">
        <ele>47.478041</ele>
        <time>2022-05-31T09:41:59.550Z</time>
      </trkpt>
      <trkpt lat="42.49876" lon="18.69228">
        <ele>47.338414</ele>
        <time>2022-05-31T09:42:01.546Z</time>
      </trkpt>
      <trkpt lat="42.49888" lon="18.69229">
        <ele>47.188719</ele>
        <time>2022-05-31T09:42:03.565Z</time>
      </trkpt>
      <trkpt lat="42.49899" lon="18.69231">
        <ele>47.042845</ele>
        <time>2022-05-31T09:42:05.585Z</time>
      </trkpt>
      <trkpt lat="42.49909" lon="18.69233">
        <ele>46.907479</ele>
        <time>2022-05-31T09:42:07.555Z</time>
      </trkpt>
      <trkpt lat="42.4992" lon="18.69235">
        <ele>46.765745</ele>
        <time>2022-05-31T09:42:09.554Z</time>
      </trkpt>
      <trkpt lat="42.49932" lon="18.69239">
        <ele>46.606922</ele>
        <time>2022-05-31T09:42:11.555Z</time>
      </trkpt>
      <trkpt lat="42.49944" lon="18.69241">
        <ele>46.3953</ele>
        <time>2022-05-31T09:42:13.541Z</time>
      </trkpt>
      <trkpt lat="42.49955" lon="18.69245">
        <ele>46.015516</ele>
        <time>2022-05-31T09:42:15.541Z</time>
      </trkpt>
      <trkpt lat="42.49967" lon="18.69248">
        <ele>45.63427</ele>
        <time>2022-05-31T09:42:17.555Z</time>
      </trkpt>
      <trkpt lat="42.49978" lon="18.69252">
        <ele>45.264592</ele>
        <time>2022-05-31T09:42:19.549Z</time>
      </trkpt>
      <trkpt lat="42.49989" lon="18.69255">
        <ele>44.889674</ele>
        <time>2022-05-31T09:42:21.544Z</time>
      </trkpt>
      <trkpt lat="42.5" lon="18.69259">
        <ele>44.515714</ele>
        <time>2022-05-31T09:42:23.553Z</time>
      </trkpt>
      <trkpt lat="42.50012" lon="18.69263">
        <ele>44.127355</ele>
        <time>2022-05-31T09:42:25.542Z</time>
      </trkpt>
      <trkpt lat="42.50023" lon="18.69267">
        <ele>43.757677</ele>
        <time>2022-05-31T09:42:27.540Z</time>
      </trkpt>
      <trkpt lat="42.50034" lon="18.69271">
        <ele>43.378786</ele>
        <time>2022-05-31T09:42:29.548Z</time>
      </trkpt>
      <trkpt lat="42.50046" lon="18.69273">
        <ele>42.999393</ele>
        <time>2022-05-31T09:42:31.574Z</time>
      </trkpt>
      <trkpt lat="42.50057" lon="18.69272">
        <ele>42.645675</ele>
        <time>2022-05-31T09:42:33.546Z</time>
      </trkpt>
      <trkpt lat="42.50067" lon="18.69269">
        <ele>42.292238</ele>
        <time>2022-05-31T09:42:35.551Z</time>
      </trkpt>
      <trkpt lat="42.50078" lon="18.69265">
        <ele>41.938683</ele>
        <time>2022-05-31T09:42:37.570Z</time>
      </trkpt>
      <trkpt lat="42.50087" lon="18.69258">
        <ele>41.599803</ele>
        <time>2022-05-31T09:42:39.551Z</time>
      </trkpt>
      <trkpt lat="42.50096" lon="18.69251">
        <ele>41.24895</ele>
        <time>2022-05-31T09:42:41.561Z</time>
      </trkpt>
      <trkpt lat="42.50107" lon="18.69243">
        <ele>40.878249</ele>
        <time>2022-05-31T09:42:43.600Z</time>
      </trkpt>
      <trkpt lat="42.50118" lon="18.69237">
        <ele>40.655152</ele>
        <time>2022-05-31T09:42:45.541Z</time>
      </trkpt>
      <trkpt lat="42.50129" lon="18.69231">
        <ele>40.614333</ele>
        <time>2022-05-31T09:42:47.577Z</time>
      </trkpt>
      <trkpt lat="42.50141" lon="18.69227">
        <ele>40.576382</ele>
        <time>2022-05-31T09:42:49.554Z</time>
      </trkpt>
      <trkpt lat="42.50151" lon="18.69224">
        <ele>40.542656</ele>
        <time>2022-05-31T09:42:51.541Z</time>
      </trkpt>
      <trkpt lat="42.5016" lon="18.6922">
        <ele>40.510072</ele>
        <time>2022-05-31T09:42:53.549Z</time>
      </trkpt>
      <trkpt lat="42.5017" lon="18.69219">
        <ele>40.476883</ele>
        <time>2022-05-31T09:42:55.553Z</time>
      </trkpt>
      <trkpt lat="42.50181" lon="18.69218">
        <ele>40.440832</ele>
        <time>2022-05-31T09:42:57.552Z</time>
      </trkpt>
      <trkpt lat="42.50194" lon="18.69219">
        <ele>40.400471</ele>
        <time>2022-05-31T09:42:59.558Z</time>
      </trkpt>
      <trkpt lat="42.50207" lon="18.69223">
        <ele>40.356517</ele>
        <time>2022-05-31T09:43:01.547Z</time>
      </trkpt>
      <trkpt lat="42.50219" lon="18.69229">
        <ele>40.314145</ele>
        <time>2022-05-31T09:43:03.530Z</time>
      </trkpt>
      <trkpt lat="42.5023" lon="18.69237">
        <ele>40.273457</ele>
        <time>2022-05-31T09:43:05.579Z</time>
      </trkpt>
      <trkpt lat="42.50239" lon="18.69248">
        <ele>40.232555</ele>
        <time>2022-05-31T09:43:07.557Z</time>
      </trkpt>
      <trkpt lat="42.50247" lon="18.6926">
        <ele>40.192662</ele>
        <time>2022-05-31T09:43:09.544Z</time>
      </trkpt>
      <trkpt lat="42.50254" lon="18.69274">
        <ele>40.152759</ele>
        <time>2022-05-31T09:43:11.551Z</time>
      </trkpt>
      <trkpt lat="42.50258" lon="18.6929">
        <ele>40.11382</ele>
        <time>2022-05-31T09:43:13.556Z</time>
      </trkpt>
      <trkpt lat="42.50259" lon="18.69306">
        <ele>40.176674</ele>
        <time>2022-05-31T09:43:15.573Z</time>
      </trkpt>
      <trkpt lat="42.5026" lon="18.69322">
        <ele>40.464714</ele>
        <time>2022-05-31T09:43:17.554Z</time>
      </trkpt>
      <trkpt lat="42.50261" lon="18.69337">
        <ele>40.74862</ele>
        <time>2022-05-31T09:43:19.546Z</time>
      </trkpt>
      <trkpt lat="42.50263" lon="18.69353">
        <ele>41.033824</ele>
        <time>2022-05-31T09:43:21.530Z</time>
      </trkpt>
      <trkpt lat="42.50266" lon="18.69367">
        <ele>41.310675</ele>
        <time>2022-05-31T09:43:23.552Z</time>
      </trkpt>
      <trkpt lat="42.50271" lon="18.69381">
        <ele>41.590437</ele>
        <time>2022-05-31T09:43:25.556Z</time>
      </trkpt>
      <trkpt lat="42.50279" lon="18.69393">
        <ele>41.877037</ele>
        <time>2022-05-31T09:43:27.558Z</time>
      </trkpt>
      <trkpt lat="42.50288" lon="18.69403">
        <ele>42.177347</ele>
        <time>2022-05-31T09:43:29.557Z</time>
      </trkpt>
      <trkpt lat="42.50299" lon="18.69411">
        <ele>42.475526</ele>
        <time>2022-05-31T09:43:31.553Z</time>
      </trkpt>
      <trkpt lat="42.50309" lon="18.69418">
        <ele>42.755096</ele>
        <time>2022-05-31T09:43:33.534Z</time>
      </trkpt>
      <trkpt lat="42.50319" lon="18.69425">
        <ele>43.052066</ele>
        <time>2022-05-31T09:43:35.549Z</time>
      </trkpt>
      <trkpt lat="42.50329" lon="18.69433">
        <ele>43.334298</ele>
        <time>2022-05-31T09:43:37.549Z</time>
      </trkpt>
      <trkpt lat="42.5034" lon="18.6944">
        <ele>43.635753</ele>
        <time>2022-05-31T09:43:39.542Z</time>
      </trkpt>
      <trkpt lat="42.5035" lon="18.69447">
        <ele>43.90886</ele>
        <time>2022-05-31T09:43:41.547Z</time>
      </trkpt>
      <trkpt lat="42.50359" lon="18.69452">
        <ele>44.147168</ele>
        <time>2022-05-31T09:43:43.556Z</time>
      </trkpt>
      <trkpt lat="42.5037" lon="18.69454">
        <ele>44.410766</ele>
        <time>2022-05-31T09:43:45.573Z</time>
      </trkpt>
      <trkpt lat="42.5038" lon="18.69454">
        <ele>44.704673</ele>
        <time>2022-05-31T09:43:47.550Z</time>
      </trkpt>
      <trkpt lat="42.50389" lon="18.69455">
        <ele>45.012699</ele>
        <time>2022-05-31T09:43:49.535Z</time>
      </trkpt>
      <trkpt lat="42.50401" lon="18.69452">
        <ele>45.438353</ele>
        <time>2022-05-31T09:43:52.575Z</time>
      </trkpt>
      <trkpt lat="42.50412" lon="18.69447">
        <ele>45.841088</ele>
        <time>2022-05-31T09:43:55.536Z</time>
      </trkpt>
      <trkpt lat="42.50423" lon="18.6944">
        <ele>46.250721</ele>
        <time>2022-05-31T09:43:58.551Z</time>
      </trkpt>
      <trkpt lat="42.50433" lon="18.69435">
        <ele>46.625108</ele>
        <time>2022-05-31T09:44:01.561Z</time>
      </trkpt>
      <trkpt lat="42.50441" lon="18.69429">
        <ele>46.936253</ele>
        <time>2022-05-31T09:44:04.552Z</time>
      </trkpt>
      <trkpt lat="42.50452" lon="18.69422">
        <ele>47.331666</ele>
        <time>2022-05-31T09:44:08.549Z</time>
      </trkpt>
      <trkpt lat="42.50461" lon="18.69415">
        <ele>47.686677</ele>
        <time>2022-05-31T09:44:12.556Z</time>
      </trkpt>
      <trkpt lat="42.5047" lon="18.69411">
        <ele>48.019705</ele>
        <time>2022-05-31T09:44:16.559Z</time>
      </trkpt>
      <trkpt lat="42.50479" lon="18.69407">
        <ele>48.363263</ele>
        <time>2022-05-31T09:44:21.553Z</time>
      </trkpt>
      <trkpt lat="42.50488" lon="18.69402">
        <ele>48.685507</ele>
        <time>2022-05-31T09:44:25.563Z</time>
      </trkpt>
      <trkpt lat="42.50497" lon="18.69396">
        <ele>49.031724</ele>
        <time>2022-05-31T09:44:29.562Z</time>
      </trkpt>
      <trkpt lat="42.50506" lon="18.69391">
        <ele>49.368527</ele>
        <time>2022-05-31T09:44:33.538Z</time>
      </trkpt>
      <trkpt lat="42.50516" lon="18.69385">
        <ele>49.740662</ele>
        <time>2022-05-31T09:44:37.547Z</time>
      </trkpt>
      <trkpt lat="42.50526" lon="18.69379">
        <ele>50.107187</ele>
        <time>2022-05-31T09:44:41.532Z</time>
      </trkpt>
      <trkpt lat="42.50536" lon="18.69375">
        <ele>50.462928</ele>
        <time>2022-05-31T09:44:45.546Z</time>
      </trkpt>
      <trkpt lat="42.50546" lon="18.69371">
        <ele>50.741066</ele>
        <time>2022-05-31T09:44:49.544Z</time>
      </trkpt>
      <trkpt lat="42.50557" lon="18.69369">
        <ele>50.856051</ele>
        <time>2022-05-31T09:44:53.561Z</time>
      </trkpt>
      <trkpt lat="42.50567" lon="18.69368">
        <ele>50.952139</ele>
        <time>2022-05-31T09:44:56.553Z</time>
      </trkpt>
      <trkpt lat="42.50576" lon="18.69369">
        <ele>51.053565</ele>
        <time>2022-05-31T09:44:59.542Z</time>
      </trkpt>
      <trkpt lat="42.50586" lon="18.69372">
        <ele>51.156622</ele>
        <time>2022-05-31T09:45:02.547Z</time>
      </trkpt>
      <trkpt lat="42.50597" lon="18.69377">
        <ele>51.279296</ele>
        <time>2022-05-31T09:45:05.531Z</time>
      </trkpt>
      <trkpt lat="42.50606" lon="18.69382">
        <ele>51.378714</ele>
        <time>2022-05-31T09:45:07.549Z</time>
      </trkpt>
      <trkpt lat="42.50615" lon="18.69389">
        <ele>51.478519</ele>
        <time>2022-05-31T09:45:09.548Z</time>
      </trkpt>
      <trkpt lat="42.50623" lon="18.69398">
        <ele>51.588343</ele>
        <time>2022-05-31T09:45:11.546Z</time>
      </trkpt>
      <trkpt lat="42.50631" lon="18.69408">
        <ele>51.705244</ele>
        <time>2022-05-31T09:45:13.537Z</time>
      </trkpt>
      <trkpt lat="42.5064" lon="18.6942">
        <ele>51.831145</ele>
        <time>2022-05-31T09:45:15.558Z</time>
      </trkpt>
      <trkpt lat="42.50648" lon="18.69434">
        <ele>51.966649</ele>
        <time>2022-05-31T09:45:17.546Z</time>
      </trkpt>
      <trkpt lat="42.50657" lon="18.69449">
        <ele>52.112985</ele>
        <time>2022-05-31T09:45:19.560Z</time>
      </trkpt>
      <trkpt lat="42.50667" lon="18.69464">
        <ele>52.269931</ele>
        <time>2022-05-31T09:45:21.548Z</time>
      </trkpt>
      <trkpt lat="42.50678" lon="18.6948">
        <ele>52.431542</ele>
        <time>2022-05-31T09:45:23.550Z</time>
      </trkpt>
      <trkpt lat="42.50688" lon="18.69496">
        <ele>52.463171</ele>
        <time>2022-05-31T09:45:25.570Z</time>
      </trkpt>
      <trkpt lat="42.50698" lon="18.69512">
        <ele>51.99458</ele>
        <time>2022-05-31T09:45:27.550Z</time>
      </trkpt>
      <trkpt lat="42.50709" lon="18.69527">
        <ele>51.522859</ele>
        <time>2022-05-31T09:45:29.555Z</time>
      </trkpt>
      <trkpt lat="42.50721" lon="18.69542">
        <ele>51.05204</ele>
        <time>2022-05-31T09:45:31.549Z</time>
      </trkpt>
      <trkpt lat="42.50732" lon="18.69555">
        <ele>50.607284</ele>
        <time>2022-05-31T09:45:33.540Z</time>
      </trkpt>
      <trkpt lat="42.50743" lon="18.69566">
        <ele>50.185983</ele>
        <time>2022-05-31T09:45:35.570Z</time>
      </trkpt>
      <trkpt lat="42.50756" lon="18.69575">
        <ele>49.757028</ele>
        <time>2022-05-31T09:45:37.541Z</time>
      </trkpt>
      <trkpt lat="42.50768" lon="18.69581">
        <ele>49.366484</ele>
        <time>2022-05-31T09:45:39.551Z</time>
      </trkpt>
      <trkpt lat="42.5078" lon="18.69587">
        <ele>48.981784</ele>
        <time>2022-05-31T09:45:41.568Z</time>
      </trkpt>
      <trkpt lat="42.5079" lon="18.69592">
        <ele>48.65856</ele>
        <time>2022-05-31T09:45:43.549Z</time>
      </trkpt>
      <trkpt lat="42.508" lon="18.69596">
        <ele>48.353452</ele>
        <time>2022-05-31T09:45:45.540Z</time>
      </trkpt>
      <trkpt lat="42.50809" lon="18.69599">
        <ele>48.061969</ele>
        <time>2022-05-31T09:45:47.596Z</time>
      </trkpt>
      <trkpt lat="42.50818" lon="18.69603">
        <ele>47.776037</ele>
        <time>2022-05-31T09:45:49.549Z</time>
      </trkpt>
      <trkpt lat="42.5083" lon="18.6961">
        <ele>47.392849</ele>
        <time>2022-05-31T09:45:52.547Z</time>
      </trkpt>
      <trkpt lat="42.50842" lon="18.69618">
        <ele>47.055624</ele>
        <time>2022-05-31T09:45:55.539Z</time>
      </trkpt>
      <trkpt lat="42.50853" lon="18.69624">
        <ele>46.826724</ele>
        <time>2022-05-31T09:45:58.606Z</time>
      </trkpt>
      <trkpt lat="42.50864" lon="18.69633">
        <ele>46.603791</ele>
        <time>2022-05-31T09:46:01.544Z</time>
      </trkpt>
      <trkpt lat="42.50874" lon="18.69642">
        <ele>46.372751</ele>
        <time>2022-05-31T09:46:04.545Z</time>
      </trkpt>
      <trkpt lat="42.50886" lon="18.6965">
        <ele>46.128319</ele>
        <time>2022-05-31T09:46:07.523Z</time>
      </trkpt>
      <trkpt lat="42.50898" lon="18.69656">
        <ele>45.877155</ele>
        <time>2022-05-31T09:46:10.510Z</time>
      </trkpt>
      <trkpt lat="42.50907" lon="18.6966">
        <ele>45.710181</ele>
        <time>2022-05-31T09:46:12.549Z</time>
      </trkpt>
      <trkpt lat="42.50916" lon="18.69664">
        <ele>45.537361</ele>
        <time>2022-05-31T09:46:14.577Z</time>
      </trkpt>
      <trkpt lat="42.50925" lon="18.69667">
        <ele>45.365227</ele>
        <time>2022-05-31T09:46:16.544Z</time>
      </trkpt>
      <trkpt lat="42.50938" lon="18.6967">
        <ele>45.11729</ele>
        <time>2022-05-31T09:46:19.550Z</time>
      </trkpt>
      <trkpt lat="42.50951" lon="18.69672">
        <ele>44.872408</ele>
        <time>2022-05-31T09:46:22.544Z</time>
      </trkpt>
      <trkpt lat="42.50965" lon="18.69672">
        <ele>44.621011</ele>
        <time>2022-05-31T09:46:25.565Z</time>
      </trkpt>
      <trkpt lat="42.50978" lon="18.69671">
        <ele>44.37693</ele>
        <time>2022-05-31T09:46:28.537Z</time>
      </trkpt>
      <trkpt lat="42.5099" lon="18.69669">
        <ele>44.137503</ele>
        <time>2022-05-31T09:46:31.591Z</time>
      </trkpt>
      <trkpt lat="42.50999" lon="18.69665">
        <ele>43.961862</ele>
        <time>2022-05-31T09:46:33.527Z</time>
      </trkpt>
      <trkpt lat="42.51009" lon="18.69661">
        <ele>43.824737</ele>
        <time>2022-05-31T09:46:35.550Z</time>
      </trkpt>
      <trkpt lat="42.51019" lon="18.69657">
        <ele>43.887136</ele>
        <time>2022-05-31T09:46:37.575Z</time>
      </trkpt>
      <trkpt lat="42.51028" lon="18.69652">
        <ele>43.949725</ele>
        <time>2022-05-31T09:46:39.535Z</time>
      </trkpt>
      <trkpt lat="42.51037" lon="18.69646">
        <ele>44.013917</ele>
        <time>2022-05-31T09:46:41.553Z</time>
      </trkpt>
      <trkpt lat="42.51046" lon="18.69641">
        <ele>44.07356</ele>
        <time>2022-05-31T09:46:43.566Z</time>
      </trkpt>
      <trkpt lat="42.51054" lon="18.69635">
        <ele>44.132502</ele>
        <time>2022-05-31T09:46:45.553Z</time>
      </trkpt>
      <trkpt lat="42.51062" lon="18.69629">
        <ele>44.190671</ele>
        <time>2022-05-31T09:46:47.539Z</time>
      </trkpt>
      <trkpt lat="42.5107" lon="18.69622">
        <ele>44.250411</ele>
        <time>2022-05-31T09:46:49.589Z</time>
      </trkpt>
      <trkpt lat="42.51078" lon="18.69616">
        <ele>44.310085</ele>
        <time>2022-05-31T09:46:51.551Z</time>
      </trkpt>
      <trkpt lat="42.51086" lon="18.69609">
        <ele>44.369224</ele>
        <time>2022-05-31T09:46:53.533Z</time>
      </trkpt>
      <trkpt lat="42.51094" lon="18.69602">
        <ele>44.426237</ele>
        <time>2022-05-31T09:46:55.586Z</time>
      </trkpt>
      <trkpt lat="42.51106" lon="18.69596">
        <ele>44.506844</ele>
        <time>2022-05-31T09:46:58.548Z</time>
      </trkpt>
      <trkpt lat="42.51115" lon="18.69592">
        <ele>44.565077</ele>
        <time>2022-05-31T09:47:00.550Z</time>
      </trkpt>
      <trkpt lat="42.51128" lon="18.69587">
        <ele>44.648258</ele>
        <time>2022-05-31T09:47:03.550Z</time>
      </trkpt>
      <trkpt lat="42.5114" lon="18.69584">
        <ele>44.73058</ele>
        <time>2022-05-31T09:47:06.552Z</time>
      </trkpt>
      <trkpt lat="42.51149" lon="18.69581">
        <ele>44.786865</ele>
        <time>2022-05-31T09:47:08.544Z</time>
      </trkpt>
      <trkpt lat="42.51158" lon="18.69579">
        <ele>44.846593</ele>
        <time>2022-05-31T09:47:10.540Z</time>
      </trkpt>
      <trkpt lat="42.51168" lon="18.69577">
        <ele>44.907834</ele>
        <time>2022-05-31T09:47:12.575Z</time>
      </trkpt>
      <trkpt lat="42.51178" lon="18.69575">
        <ele>44.919752</ele>
        <time>2022-05-31T09:47:14.557Z</time>
      </trkpt>
      <trkpt lat="42.51187" lon="18.69573">
        <ele>44.865958</ele>
        <time>2022-05-31T09:47:16.550Z</time>
      </trkpt>
      <trkpt lat="42.51197" lon="18.69571">
        <ele>44.813257</ele>
        <time>2022-05-31T09:47:18.556Z</time>
      </trkpt>
      <trkpt lat="42.51206" lon="18.6957">
        <ele>44.761899</ele>
        <time>2022-05-31T09:47:20.538Z</time>
      </trkpt>
      <trkpt lat="42.51215" lon="18.69569">
        <ele>44.711979</ele>
        <time>2022-05-31T09:47:22.548Z</time>
      </trkpt>
      <trkpt lat="42.51225" lon="18.69567">
        <ele>44.660204</ele>
        <time>2022-05-31T09:47:24.535Z</time>
      </trkpt>
      <trkpt lat="42.51234" lon="18.69565">
        <ele>44.609687</ele>
        <time>2022-05-31T09:47:26.538Z</time>
      </trkpt>
      <trkpt lat="42.51243" lon="18.69563">
        <ele>44.557244</ele>
        <time>2022-05-31T09:47:28.537Z</time>
      </trkpt>
      <trkpt lat="42.51253" lon="18.69559">
        <ele>44.502518</ele>
        <time>2022-05-31T09:47:30.539Z</time>
      </trkpt>
      <trkpt lat="42.51262" lon="18.69555">
        <ele>44.447776</ele>
        <time>2022-05-31T09:47:32.546Z</time>
      </trkpt>
      <trkpt lat="42.51271" lon="18.69551">
        <ele>44.394337</ele>
        <time>2022-05-31T09:47:34.532Z</time>
      </trkpt>
      <trkpt lat="42.5128" lon="18.69547">
        <ele>44.34192</ele>
        <time>2022-05-31T09:47:36.547Z</time>
      </trkpt>
      <trkpt lat="42.51289" lon="18.69542">
        <ele>44.288351</ele>
        <time>2022-05-31T09:47:38.554Z</time>
      </trkpt>
      <trkpt lat="42.51299" lon="18.69538">
        <ele>44.235302</ele>
        <time>2022-05-31T09:47:40.546Z</time>
      </trkpt>
      <trkpt lat="42.51308" lon="18.69534">
        <ele>44.182636</ele>
        <time>2022-05-31T09:47:42.552Z</time>
      </trkpt>
      <trkpt lat="42.51317" lon="18.69529">
        <ele>44.128885</ele>
        <time>2022-05-31T09:47:44.545Z</time>
      </trkpt>
      <trkpt lat="42.51325" lon="18.69525">
        <ele>44.077793</ele>
        <time>2022-05-31T09:47:46.545Z</time>
      </trkpt>
      <trkpt lat="42.51334" lon="18.69521">
        <ele>44.0267</ele>
        <time>2022-05-31T09:47:48.553Z</time>
      </trkpt>
      <trkpt lat="42.51343" lon="18.69517">
        <ele>43.975981</ele>
        <time>2022-05-31T09:47:50.532Z</time>
      </trkpt>
      <trkpt lat="42.51352" lon="18.69513">
        <ele>43.924543</ele>
        <time>2022-05-31T09:47:52.541Z</time>
      </trkpt>
      <trkpt lat="42.5136" lon="18.69508">
        <ele>43.87103</ele>
        <time>2022-05-31T09:47:54.547Z</time>
      </trkpt>
      <trkpt lat="42.51369" lon="18.69502">
        <ele>43.817527</ele>
        <time>2022-05-31T09:47:56.540Z</time>
      </trkpt>
      <trkpt lat="42.51377" lon="18.69497">
        <ele>43.765757</ele>
        <time>2022-05-31T09:47:58.597Z</time>
      </trkpt>
      <trkpt lat="42.51385" lon="18.69492">
        <ele>43.714339</ele>
        <time>2022-05-31T09:48:00.536Z</time>
      </trkpt>
      <trkpt lat="42.51397" lon="18.69485">
        <ele>43.637538</ele>
        <time>2022-05-31T09:48:03.536Z</time>
      </trkpt>
      <trkpt lat="42.51409" lon="18.69475">
        <ele>43.55941</ele>
        <time>2022-05-31T09:48:06.535Z</time>
      </trkpt>
      <trkpt lat="42.51418" lon="18.6947">
        <ele>43.505881</ele>
        <time>2022-05-31T09:48:08.549Z</time>
      </trkpt>
      <trkpt lat="42.51429" lon="18.69463">
        <ele>43.435694</ele>
        <time>2022-05-31T09:48:11.553Z</time>
      </trkpt>
      <trkpt lat="42.5144" lon="18.69455">
        <ele>43.361135</ele>
        <time>2022-05-31T09:48:14.537Z</time>
      </trkpt>
      <trkpt lat="42.51452" lon="18.69447">
        <ele>43.285426</ele>
        <time>2022-05-31T09:48:17.547Z</time>
      </trkpt>
      <trkpt lat="42.5146" lon="18.69441">
        <ele>43.233238</ele>
        <time>2022-05-31T09:48:19.574Z</time>
      </trkpt>
      <trkpt lat="42.51468" lon="18.69435">
        <ele>43.180855</ele>
        <time>2022-05-31T09:48:21.551Z</time>
      </trkpt>
      <trkpt lat="42.51476" lon="18.6943">
        <ele>43.12905</ele>
        <time>2022-05-31T09:48:23.554Z</time>
      </trkpt>
      <trkpt lat="42.51488" lon="18.69421">
        <ele>43.053143</ele>
        <time>2022-05-31T09:48:26.537Z</time>
      </trkpt>
      <trkpt lat="42.51499" lon="18.69412">
        <ele>42.979185</ele>
        <time>2022-05-31T09:48:29.573Z</time>
      </trkpt>
      <trkpt lat="42.51507" lon="18.69405">
        <ele>42.926637</ele>
        <time>2022-05-31T09:48:31.578Z</time>
      </trkpt>
      <trkpt lat="42.51515" lon="18.69399">
        <ele>42.993543</ele>
        <time>2022-05-31T09:48:33.539Z</time>
      </trkpt>
      <trkpt lat="42.51526" lon="18.6939">
        <ele>43.098274</ele>
        <time>2022-05-31T09:48:36.541Z</time>
      </trkpt>
      <trkpt lat="42.51537" lon="18.69381">
        <ele>43.20321</ele>
        <time>2022-05-31T09:48:39.537Z</time>
      </trkpt>
      <trkpt lat="42.51548" lon="18.69371">
        <ele>43.30635</ele>
        <time>2022-05-31T09:48:42.580Z</time>
      </trkpt>
      <trkpt lat="42.51558" lon="18.69361">
        <ele>43.406556</ele>
        <time>2022-05-31T09:48:45.550Z</time>
      </trkpt>
      <trkpt lat="42.51566" lon="18.69354">
        <ele>43.478388</ele>
        <time>2022-05-31T09:48:47.555Z</time>
      </trkpt>
      <trkpt lat="42.51576" lon="18.69344">
        <ele>43.582836</ele>
        <time>2022-05-31T09:48:50.539Z</time>
      </trkpt>
      <trkpt lat="42.51587" lon="18.69333">
        <ele>43.686224</ele>
        <time>2022-05-31T09:48:53.558Z</time>
      </trkpt>
      <trkpt lat="42.51596" lon="18.69321">
        <ele>43.7878</ele>
        <time>2022-05-31T09:48:56.546Z</time>
      </trkpt>
      <trkpt lat="42.51605" lon="18.69309">
        <ele>43.886757</ele>
        <time>2022-05-31T09:48:59.574Z</time>
      </trkpt>
      <trkpt lat="42.51614" lon="18.69297">
        <ele>43.987648</ele>
        <time>2022-05-31T09:49:02.527Z</time>
      </trkpt>
      <trkpt lat="42.51622" lon="18.69284">
        <ele>44.088978</ele>
        <time>2022-05-31T09:49:05.586Z</time>
      </trkpt>
      <trkpt lat="42.51631" lon="18.69271">
        <ele>44.190196</ele>
        <time>2022-05-31T09:49:08.545Z</time>
      </trkpt>
      <trkpt lat="42.51639" lon="18.69257">
        <ele>44.295084</ele>
        <time>2022-05-31T09:49:11.580Z</time>
      </trkpt>
      <trkpt lat="42.51646" lon="18.69243">
        <ele>44.454203</ele>
        <time>2022-05-31T09:49:14.550Z</time>
      </trkpt>
      <trkpt lat="42.51654" lon="18.6923">
        <ele>44.703308</ele>
        <time>2022-05-31T09:49:17.576Z</time>
      </trkpt>
      <trkpt lat="42.51661" lon="18.69215">
        <ele>44.961045</ele>
        <time>2022-05-31T09:49:20.537Z</time>
      </trkpt>
      <trkpt lat="42.51668" lon="18.692">
        <ele>45.218782</ele>
        <time>2022-05-31T09:49:23.563Z</time>
      </trkpt>
      <trkpt lat="42.51674" lon="18.69184">
        <ele>45.478074</ele>
        <time>2022-05-31T09:49:26.542Z</time>
      </trkpt>
      <trkpt lat="42.51681" lon="18.69169">
        <ele>45.737048</ele>
        <time>2022-05-31T09:49:29.554Z</time>
      </trkpt>
      <trkpt lat="42.51687" lon="18.69153">
        <ele>45.99225</ele>
        <time>2022-05-31T09:49:32.539Z</time>
      </trkpt>
      <trkpt lat="42.51692" lon="18.69137">
        <ele>46.246617</ele>
        <time>2022-05-31T09:49:35.541Z</time>
      </trkpt>
      <trkpt lat="42.51696" lon="18.69126">
        <ele>46.424546</ele>
        <time>2022-05-31T09:49:37.553Z</time>
      </trkpt>
      <trkpt lat="42.51699" lon="18.69115">
        <ele>46.605905</ele>
        <time>2022-05-31T09:49:39.538Z</time>
      </trkpt>
      <trkpt lat="42.51702" lon="18.69103">
        <ele>46.785216</ele>
        <time>2022-05-31T09:49:41.549Z</time>
      </trkpt>
      <trkpt lat="42.51706" lon="18.69087">
        <ele>47.036915</ele>
        <time>2022-05-31T09:49:44.549Z</time>
      </trkpt>
      <trkpt lat="42.5171" lon="18.6907">
        <ele>47.29965</ele>
        <time>2022-05-31T09:49:47.551Z</time>
      </trkpt>
      <trkpt lat="42.51713" lon="18.69052">
        <ele>47.559686</ele>
        <time>2022-05-31T09:49:50.549Z</time>
      </trkpt>
      <trkpt lat="42.51715" lon="18.6904">
        <ele>47.746137</ele>
        <time>2022-05-31T09:49:52.593Z</time>
      </trkpt>
      <trkpt lat="42.51718" lon="18.69028">
        <ele>47.92425</ele>
        <time>2022-05-31T09:49:54.544Z</time>
      </trkpt>
      <trkpt lat="42.5172" lon="18.69015">
        <ele>48.063202</ele>
        <time>2022-05-31T09:49:56.555Z</time>
      </trkpt>
      <trkpt lat="42.51721" lon="18.69002">
        <ele>48.202412</ele>
        <time>2022-05-31T09:49:58.558Z</time>
      </trkpt>
      <trkpt lat="42.51722" lon="18.6899">
        <ele>48.334646</ele>
        <time>2022-05-31T09:50:00.533Z</time>
      </trkpt>
      <trkpt lat="42.51724" lon="18.68977">
        <ele>48.473857</ele>
        <time>2022-05-31T09:50:02.555Z</time>
      </trkpt>
      <trkpt lat="42.51725" lon="18.68964">
        <ele>48.61311</ele>
        <time>2022-05-31T09:50:04.558Z</time>
      </trkpt>
      <trkpt lat="42.51726" lon="18.68951">
        <ele>48.755242</ele>
        <time>2022-05-31T09:50:06.563Z</time>
      </trkpt>
      <trkpt lat="42.51727" lon="18.68938">
        <ele>48.893775</ele>
        <time>2022-05-31T09:50:08.551Z</time>
      </trkpt>
      <trkpt lat="42.51727" lon="18.68925">
        <ele>49.027933</ele>
        <time>2022-05-31T09:50:10.528Z</time>
      </trkpt>
      <trkpt lat="42.51727" lon="18.68913">
        <ele>49.15886</ele>
        <time>2022-05-31T09:50:12.544Z</time>
      </trkpt>
      <trkpt lat="42.51727" lon="18.689">
        <ele>49.292956</ele>
        <time>2022-05-31T09:50:14.551Z</time>
      </trkpt>
      <trkpt lat="42.51727" lon="18.68888">
        <ele>49.423922</ele>
        <time>2022-05-31T09:50:16.542Z</time>
      </trkpt>
      <trkpt lat="42.51727" lon="18.6887">
        <ele>49.614434</ele>
        <time>2022-05-31T09:50:19.556Z</time>
      </trkpt>
      <trkpt lat="42.51727" lon="18.68858">
        <ele>49.744273</ele>
        <time>2022-05-31T09:50:21.582Z</time>
      </trkpt>
      <trkpt lat="42.51727" lon="18.6884">
        <ele>49.93694</ele>
        <time>2022-05-31T09:50:24.546Z</time>
      </trkpt>
      <trkpt lat="42.51726" lon="18.68822">
        <ele>50.123262</ele>
        <time>2022-05-31T09:50:27.550Z</time>
      </trkpt>
      <trkpt lat="42.51726" lon="18.6881">
        <ele>50.256411</ele>
        <time>2022-05-31T09:50:29.554Z</time>
      </trkpt>
      <trkpt lat="42.51725" lon="18.68796">
        <ele>50.399005</ele>
        <time>2022-05-31T09:50:31.578Z</time>
      </trkpt>
      <trkpt lat="42.51723" lon="18.68784">
        <ele>50.538964</ele>
        <time>2022-05-31T09:50:33.541Z</time>
      </trkpt>
      <trkpt lat="42.51721" lon="18.68766">
        <ele>50.759209</ele>
        <time>2022-05-31T09:50:36.551Z</time>
      </trkpt>
      <trkpt lat="42.51719" lon="18.68753">
        <ele>50.90949</ele>
        <time>2022-05-31T09:50:38.553Z</time>
      </trkpt>
      <trkpt lat="42.51715" lon="18.68737">
        <ele>51.120795</ele>
        <time>2022-05-31T09:50:41.552Z</time>
      </trkpt>
      <trkpt lat="42.51712" lon="18.68725">
        <ele>51.267715</ele>
        <time>2022-05-31T09:50:43.582Z</time>
      </trkpt>
      <trkpt lat="42.51707" lon="18.68715">
        <ele>51.416094</ele>
        <time>2022-05-31T09:50:45.551Z</time>
      </trkpt>
      <trkpt lat="42.51702" lon="18.68704">
        <ele>51.568586</ele>
        <time>2022-05-31T09:50:47.551Z</time>
      </trkpt>
      <trkpt lat="42.51697" lon="18.68694">
        <ele>51.717653</ele>
        <time>2022-05-31T09:50:49.581Z</time>
      </trkpt>
      <trkpt lat="42.51687" lon="18.68681">
        <ele>51.934067</ele>
        <time>2022-05-31T09:50:52.540Z</time>
      </trkpt>
      <trkpt lat="42.51677" lon="18.6867">
        <ele>52.151219</ele>
        <time>2022-05-31T09:50:55.535Z</time>
      </trkpt>
      <trkpt lat="42.51669" lon="18.68663">
        <ele>52.299077</ele>
        <time>2022-05-31T09:50:57.552Z</time>
      </trkpt>
      <trkpt lat="42.51661" lon="18.68657">
        <ele>52.449682</ele>
        <time>2022-05-31T09:50:59.547Z</time>
      </trkpt>
      <trkpt lat="42.51654" lon="18.68649">
        <ele>52.597037</ele>
        <time>2022-05-31T09:51:01.544Z</time>
      </trkpt>
      <trkpt lat="42.51647" lon="18.68641">
        <ele>52.747599</ele>
        <time>2022-05-31T09:51:03.549Z</time>
      </trkpt>
      <trkpt lat="42.51638" lon="18.68628">
        <ele>52.959186</ele>
        <time>2022-05-31T09:51:06.562Z</time>
      </trkpt>
      <trkpt lat="42.51631" lon="18.68615">
        <ele>53.156649</ele>
        <time>2022-05-31T09:51:09.554Z</time>
      </trkpt>
      <trkpt lat="42.51626" lon="18.68601">
        <ele>53.34627</ele>
        <time>2022-05-31T09:51:12.550Z</time>
      </trkpt>
      <trkpt lat="42.51622" lon="18.68589">
        <ele>53.731759</ele>
        <time>2022-05-31T09:51:15.539Z</time>
      </trkpt>
      <trkpt lat="42.51618" lon="18.68577">
        <ele>54.608751</ele>
        <time>2022-05-31T09:51:19.549Z</time>
      </trkpt>
      <trkpt lat="42.51614" lon="18.68564">
        <ele>55.489907</ele>
        <time>2022-05-31T09:51:24.529Z</time>
      </trkpt>
      <trkpt lat="42.51612" lon="18.6855">
        <ele>56.388368</ele>
        <time>2022-05-31T09:51:30.529Z</time>
      </trkpt>
      <trkpt lat="42.51613" lon="18.68535">
        <ele>57.367438</ele>
        <time>2022-05-31T09:51:36.552Z</time>
      </trkpt>
      <trkpt lat="42.51612" lon="18.68521">
        <ele>58.227536</ele>
        <time>2022-05-31T09:51:41.541Z</time>
      </trkpt>
      <trkpt lat="42.5161" lon="18.68507">
        <ele>59.107777</ele>
        <time>2022-05-31T09:51:47.548Z</time>
      </trkpt>
      <trkpt lat="42.51608" lon="18.68494">
        <ele>60.011316</ele>
        <time>2022-05-31T09:51:53.553Z</time>
      </trkpt>
      <trkpt lat="42.51611" lon="18.68481">
        <ele>60.861128</ele>
        <time>2022-05-31T09:52:00.541Z</time>
      </trkpt>
      <trkpt lat="42.51612" lon="18.68469">
        <ele>61.661192</ele>
        <time>2022-05-31T09:52:06.540Z</time>
      </trkpt>
      <trkpt lat="42.5161" lon="18.68455">
        <ele>62.587048</ele>
        <time>2022-05-31T09:52:12.553Z</time>
      </trkpt>
      <trkpt lat="42.51605" lon="18.68442">
        <ele>63.494953</ele>
        <time>2022-05-31T09:52:18.556Z</time>
      </trkpt>
      <trkpt lat="42.516" lon="18.68432">
        <ele>64.267792</ele>
        <time>2022-05-31T09:52:24.579Z</time>
      </trkpt>
      <trkpt lat="42.51595" lon="18.68421">
        <ele>65.076123</ele>
        <time>2022-05-31T09:52:30.535Z</time>
      </trkpt>
      <trkpt lat="42.51589" lon="18.68411">
        <ele>65.920815</ele>
        <time>2022-05-31T09:52:36.620Z</time>
      </trkpt>
      <trkpt lat="42.51581" lon="18.684">
        <ele>66.855766</ele>
        <time>2022-05-31T09:52:42.553Z</time>
      </trkpt>
      <trkpt lat="42.51576" lon="18.6839">
        <ele>67.654152</ele>
        <time>2022-05-31T09:52:47.583Z</time>
      </trkpt>
      <trkpt lat="42.5157" lon="18.6838">
        <ele>68.43266</ele>
        <time>2022-05-31T09:52:52.555Z</time>
      </trkpt>
      <trkpt lat="42.51565" lon="18.6837">
        <ele>69.114831</ele>
        <time>2022-05-31T09:52:58.591Z</time>
      </trkpt>
      <trkpt lat="42.51561" lon="18.68359">
        <ele>69.546639</ele>
        <time>2022-05-31T09:53:04.541Z</time>
      </trkpt>
      <trkpt lat="42.51557" lon="18.68347">
        <ele>70.006994</ele>
        <time>2022-05-31T09:53:11.541Z</time>
      </trkpt>
      <trkpt lat="42.51552" lon="18.68335">
        <ele>70.478397</ele>
        <time>2022-05-31T09:53:18.548Z</time>
      </trkpt>
      <trkpt lat="42.51549" lon="18.68323">
        <ele>70.917487</ele>
        <time>2022-05-31T09:53:23.560Z</time>
      </trkpt>
      <trkpt lat="42.51545" lon="18.68312">
        <ele>71.354658</ele>
        <time>2022-05-31T09:53:28.545Z</time>
      </trkpt>
      <trkpt lat="42.51541" lon="18.683">
        <ele>71.805451</ele>
        <time>2022-05-31T09:53:34.550Z</time>
      </trkpt>
      <trkpt lat="42.51535" lon="18.68291">
        <ele>72.24905</ele>
        <time>2022-05-31T09:53:40.537Z</time>
      </trkpt>
      <trkpt lat="42.51526" lon="18.68285">
        <ele>72.699475</ele>
        <time>2022-05-31T09:53:46.547Z</time>
      </trkpt>
      <trkpt lat="42.51518" lon="18.6828">
        <ele>73.144149</ele>
        <time>2022-05-31T09:53:52.546Z</time>
      </trkpt>
      <trkpt lat="42.51507" lon="18.68278">
        <ele>73.662726</ele>
        <time>2022-05-31T09:53:59.546Z</time>
      </trkpt>
      <trkpt lat="42.51497" lon="18.68277">
        <ele>74.119461</ele>
        <time>2022-05-31T09:54:04.555Z</time>
      </trkpt>
      <trkpt lat="42.51488" lon="18.68276">
        <ele>74.586282</ele>
        <time>2022-05-31T09:54:10.543Z</time>
      </trkpt>
      <trkpt lat="42.51478" lon="18.68277">
        <ele>75.04516</ele>
        <time>2022-05-31T09:54:16.542Z</time>
      </trkpt>
      <trkpt lat="42.51468" lon="18.68276">
        <ele>75.514708</ele>
        <time>2022-05-31T09:54:23.545Z</time>
      </trkpt>
      <trkpt lat="42.51458" lon="18.68274">
        <ele>75.990404</ele>
        <time>2022-05-31T09:54:30.532Z</time>
      </trkpt>
      <trkpt lat="42.51449" lon="18.68268">
        <ele>76.474195</ele>
        <time>2022-05-31T09:54:36.530Z</time>
      </trkpt>
      <trkpt lat="42.5144" lon="18.68263">
        <ele>76.953533</ele>
        <time>2022-05-31T09:54:42.545Z</time>
      </trkpt>
      <trkpt lat="42.51432" lon="18.68254">
        <ele>77.420934</ele>
        <time>2022-05-31T09:54:48.544Z</time>
      </trkpt>
      <trkpt lat="42.51424" lon="18.68245">
        <ele>77.540673</ele>
        <time>2022-05-31T09:54:55.539Z</time>
      </trkpt>
      <trkpt lat="42.51417" lon="18.68235">
        <ele>77.587637</ele>
        <time>2022-05-31T09:55:02.546Z</time>
      </trkpt>
      <trkpt lat="42.5141" lon="18.68226">
        <ele>77.630442</ele>
        <time>2022-05-31T09:55:08.550Z</time>
      </trkpt>
      <trkpt lat="42.51403" lon="18.68216">
        <ele>77.674209</ele>
        <time>2022-05-31T09:55:14.537Z</time>
      </trkpt>
      <trkpt lat="42.51396" lon="18.68208">
        <ele>77.715348</ele>
        <time>2022-05-31T09:55:20.527Z</time>
      </trkpt>
      <trkpt lat="42.51389" lon="18.68198">
        <ele>77.759547</ele>
        <time>2022-05-31T09:55:26.576Z</time>
      </trkpt>
      <trkpt lat="42.51382" lon="18.68189">
        <ele>77.802035</ele>
        <time>2022-05-31T09:55:31.542Z</time>
      </trkpt>
      <trkpt lat="42.51375" lon="18.6818">
        <ele>77.845143</ele>
        <time>2022-05-31T09:55:36.549Z</time>
      </trkpt>
      <trkpt lat="42.51367" lon="18.68171">
        <ele>77.893611</ele>
        <time>2022-05-31T09:55:41.554Z</time>
      </trkpt>
      <trkpt lat="42.51358" lon="18.68164">
        <ele>77.938714</ele>
        <time>2022-05-31T09:55:45.547Z</time>
      </trkpt>
      <trkpt lat="42.51349" lon="18.68156">
        <ele>77.984921</ele>
        <time>2022-05-31T09:55:49.585Z</time>
      </trkpt>
      <trkpt lat="42.51339" lon="18.68148">
        <ele>78.037859</ele>
        <time>2022-05-31T09:55:53.553Z</time>
      </trkpt>
      <trkpt lat="42.51329" lon="18.6814">
        <ele>78.087254</ele>
        <time>2022-05-31T09:55:56.533Z</time>
      </trkpt>
      <trkpt lat="42.51319" lon="18.68132">
        <ele>78.141989</ele>
        <time>2022-05-31T09:55:59.555Z</time>
      </trkpt>
      <trkpt lat="42.5131" lon="18.68129">
        <ele>78.182746</ele>
        <time>2022-05-31T09:56:01.554Z</time>
      </trkpt>
      <trkpt lat="42.513" lon="18.68128">
        <ele>78.225085</ele>
        <time>2022-05-31T09:56:03.534Z</time>
      </trkpt>
      <trkpt lat="42.5129" lon="18.68131">
        <ele>78.27419</ele>
        <time>2022-05-31T09:56:05.539Z</time>
      </trkpt>
      <trkpt lat="42.51279" lon="18.68137">
        <ele>78.115181</ele>
        <time>2022-05-31T09:56:07.553Z</time>
      </trkpt>
      <trkpt lat="42.51267" lon="18.68144">
        <ele>77.714846</ele>
        <time>2022-05-31T09:56:09.541Z</time>
      </trkpt>
      <trkpt lat="42.51254" lon="18.68149">
        <ele>77.306738</ele>
        <time>2022-05-31T09:56:11.587Z</time>
      </trkpt>
      <trkpt lat="42.51241" lon="18.68151">
        <ele>76.88773</ele>
        <time>2022-05-31T09:56:13.547Z</time>
      </trkpt>
      <trkpt lat="42.51227" lon="18.68149">
        <ele>76.456012</ele>
        <time>2022-05-31T09:56:15.552Z</time>
      </trkpt>
      <trkpt lat="42.51213" lon="18.68144">
        <ele>76.006782</ele>
        <time>2022-05-31T09:56:17.531Z</time>
      </trkpt>
      <trkpt lat="42.51201" lon="18.68134">
        <ele>75.555103</ele>
        <time>2022-05-31T09:56:19.549Z</time>
      </trkpt>
      <trkpt lat="42.5119" lon="18.6812">
        <ele>75.087463</ele>
        <time>2022-05-31T09:56:21.549Z</time>
      </trkpt>
      <trkpt lat="42.5118" lon="18.68103">
        <ele>74.590173</ele>
        <time>2022-05-31T09:56:23.542Z</time>
      </trkpt>
      <trkpt lat="42.5117" lon="18.68085">
        <ele>74.063481</ele>
        <time>2022-05-31T09:56:25.575Z</time>
      </trkpt>
      <trkpt lat="42.51161" lon="18.68065">
        <ele>73.504147</ele>
        <time>2022-05-31T09:56:27.553Z</time>
      </trkpt>
      <trkpt lat="42.51156" lon="18.68054">
        <ele>73.211743</ele>
        <time>2022-05-31T09:56:28.552Z</time>
      </trkpt>
      <trkpt lat="42.51152" lon="18.68042">
        <ele>72.924686</ele>
        <time>2022-05-31T09:56:29.554Z</time>
      </trkpt>
      <trkpt lat="42.51148" lon="18.68031">
        <ele>72.63127</ele>
        <time>2022-05-31T09:56:30.541Z</time>
      </trkpt>
      <trkpt lat="42.51144" lon="18.68019">
        <ele>72.336043</ele>
        <time>2022-05-31T09:56:31.554Z</time>
      </trkpt>
      <trkpt lat="42.51141" lon="18.68007">
        <ele>72.045819</ele>
        <time>2022-05-31T09:56:32.553Z</time>
      </trkpt>
      <trkpt lat="42.51137" lon="18.67995">
        <ele>71.754375</ele>
        <time>2022-05-31T09:56:33.577Z</time>
      </trkpt>
      <trkpt lat="42.51133" lon="18.67983">
        <ele>71.465344</ele>
        <time>2022-05-31T09:56:34.548Z</time>
      </trkpt>
      <trkpt lat="42.5113" lon="18.67971">
        <ele>71.180813</ele>
        <time>2022-05-31T09:56:35.584Z</time>
      </trkpt>
      <trkpt lat="42.51126" lon="18.67959">
        <ele>70.900466</ele>
        <time>2022-05-31T09:56:36.547Z</time>
      </trkpt>
      <trkpt lat="42.51121" lon="18.67939">
        <ele>70.403797</ele>
        <time>2022-05-31T09:56:38.549Z</time>
      </trkpt>
      <trkpt lat="42.51114" lon="18.67921">
        <ele>69.971295</ele>
        <time>2022-05-31T09:56:40.552Z</time>
      </trkpt>
      <trkpt lat="42.51105" lon="18.67905">
        <ele>69.511521</ele>
        <time>2022-05-31T09:56:42.550Z</time>
      </trkpt>
      <trkpt lat="42.51091" lon="18.67893">
        <ele>69.018985</ele>
        <time>2022-05-31T09:56:44.547Z</time>
      </trkpt>
      <trkpt lat="42.51076" lon="18.67883">
        <ele>68.515011</ele>
        <time>2022-05-31T09:56:46.542Z</time>
      </trkpt>
      <trkpt lat="42.51061" lon="18.67872">
        <ele>67.992541</ele>
        <time>2022-05-31T09:56:48.547Z</time>
      </trkpt>
      <trkpt lat="42.51046" lon="18.67863">
        <ele>67.480683</ele>
        <time>2022-05-31T09:56:50.525Z</time>
      </trkpt>
      <trkpt lat="42.51028" lon="18.67858">
        <ele>66.784528</ele>
        <time>2022-05-31T09:56:52.585Z</time>
      </trkpt>
      <trkpt lat="42.51011" lon="18.67859">
        <ele>65.920565</ele>
        <time>2022-05-31T09:56:54.544Z</time>
      </trkpt>
      <trkpt lat="42.50994" lon="18.67866">
        <ele>65.063738</ele>
        <time>2022-05-31T09:56:56.551Z</time>
      </trkpt>
      <trkpt lat="42.50977" lon="18.67872">
        <ele>64.206911</ele>
        <time>2022-05-31T09:56:58.552Z</time>
      </trkpt>
      <trkpt lat="42.50961" lon="18.67876">
        <ele>63.39635</ele>
        <time>2022-05-31T09:57:00.535Z</time>
      </trkpt>
      <trkpt lat="42.50944" lon="18.67875">
        <ele>62.575938</ele>
        <time>2022-05-31T09:57:02.565Z</time>
      </trkpt>
      <trkpt lat="42.50928" lon="18.6787">
        <ele>61.747067</ele>
        <time>2022-05-31T09:57:04.554Z</time>
      </trkpt>
      <trkpt lat="42.50911" lon="18.67862">
        <ele>60.886452</ele>
        <time>2022-05-31T09:57:06.545Z</time>
      </trkpt>
      <trkpt lat="42.50897" lon="18.67849">
        <ele>60.025918</ele>
        <time>2022-05-31T09:57:08.575Z</time>
      </trkpt>
      <trkpt lat="42.50883" lon="18.67835">
        <ele>59.18249</ele>
        <time>2022-05-31T09:57:10.531Z</time>
      </trkpt>
      <trkpt lat="42.50869" lon="18.67821">
        <ele>58.365295</ele>
        <time>2022-05-31T09:57:12.551Z</time>
      </trkpt>
      <trkpt lat="42.50856" lon="18.67808">
        <ele>57.855676</ele>
        <time>2022-05-31T09:57:14.540Z</time>
      </trkpt>
      <trkpt lat="42.50843" lon="18.67793">
        <ele>57.349474</ele>
        <time>2022-05-31T09:57:16.550Z</time>
      </trkpt>
      <trkpt lat="42.50831" lon="18.67778">
        <ele>56.853049</ele>
        <time>2022-05-31T09:57:18.556Z</time>
      </trkpt>
      <trkpt lat="42.5082" lon="18.67763">
        <ele>56.372253</ele>
        <time>2022-05-31T09:57:20.534Z</time>
      </trkpt>
      <trkpt lat="42.50809" lon="18.67747">
        <ele>55.883623</ele>
        <time>2022-05-31T09:57:22.539Z</time>
      </trkpt>
      <trkpt lat="42.50796" lon="18.67734">
        <ele>55.392204</ele>
        <time>2022-05-31T09:57:24.537Z</time>
      </trkpt>
      <trkpt lat="42.50782" lon="18.67722">
        <ele>54.893961</ele>
        <time>2022-05-31T09:57:26.559Z</time>
      </trkpt>
      <trkpt lat="42.50767" lon="18.67712">
        <ele>54.382827</ele>
        <time>2022-05-31T09:57:28.545Z</time>
      </trkpt>
      <trkpt lat="42.50751" lon="18.67705">
        <ele>53.875127</ele>
        <time>2022-05-31T09:57:30.570Z</time>
      </trkpt>
      <trkpt lat="42.50735" lon="18.677">
        <ele>53.379418</ele>
        <time>2022-05-31T09:57:32.545Z</time>
      </trkpt>
      <trkpt lat="42.50719" lon="18.67695">
        <ele>52.875191</ele>
        <time>2022-05-31T09:57:34.561Z</time>
      </trkpt>
      <trkpt lat="42.50702" lon="18.6769">
        <ele>52.366869</ele>
        <time>2022-05-31T09:57:36.568Z</time>
      </trkpt>
      <trkpt lat="42.50685" lon="18.67686">
        <ele>51.853654</ele>
        <time>2022-05-31T09:57:38.554Z</time>
      </trkpt>
      <trkpt lat="42.50667" lon="18.67685">
        <ele>51.314664</ele>
        <time>2022-05-31T09:57:40.540Z</time>
      </trkpt>
      <trkpt lat="42.50657" lon="18.67685">
        <ele>51.031607</ele>
        <time>2022-05-31T09:57:41.562Z</time>
      </trkpt>
      <trkpt lat="42.50648" lon="18.67687">
        <ele>50.759393</ele>
        <time>2022-05-31T09:57:42.546Z</time>
      </trkpt>
      <trkpt lat="42.5063" lon="18.67689">
        <ele>50.225891</ele>
        <time>2022-05-31T09:57:44.553Z</time>
      </trkpt>
      <trkpt lat="42.50621" lon="18.67688">
        <ele>49.95236</ele>
        <time>2022-05-31T09:57:45.545Z</time>
      </trkpt>
      <trkpt lat="42.50612" lon="18.67687">
        <ele>49.674689</ele>
        <time>2022-05-31T09:57:46.556Z</time>
      </trkpt>
      <trkpt lat="42.50603" lon="18.67685">
        <ele>49.397747</ele>
        <time>2022-05-31T09:57:47.577Z</time>
      </trkpt>
      <trkpt lat="42.50594" lon="18.67683">
        <ele>49.121333</ele>
        <time>2022-05-31T09:57:48.538Z</time>
      </trkpt>
      <trkpt lat="42.50585" lon="18.67679">
        <ele>48.847093</ele>
        <time>2022-05-31T09:57:49.534Z</time>
      </trkpt>
      <trkpt lat="42.50568" lon="18.6767">
        <ele>48.319595</ele>
        <time>2022-05-31T09:57:51.563Z</time>
      </trkpt>
      <trkpt lat="42.50552" lon="18.67658">
        <ele>47.77663</ele>
        <time>2022-05-31T09:57:53.533Z</time>
      </trkpt>
      <trkpt lat="42.50545" lon="18.6765">
        <ele>47.550438</ele>
        <time>2022-05-31T09:57:54.548Z</time>
      </trkpt>
      <trkpt lat="42.50537" lon="18.67642">
        <ele>47.482837</ele>
        <time>2022-05-31T09:57:55.535Z</time>
      </trkpt>
      <trkpt lat="42.5053" lon="18.67634">
        <ele>47.417239</ele>
        <time>2022-05-31T09:57:56.541Z</time>
      </trkpt>
      <trkpt lat="42.50519" lon="18.67615">
        <ele>47.29244</ele>
        <time>2022-05-31T09:57:58.578Z</time>
      </trkpt>
      <trkpt lat="42.50509" lon="18.67596">
        <ele>47.170698</ele>
        <time>2022-05-31T09:58:00.533Z</time>
      </trkpt>
      <trkpt lat="42.50501" lon="18.67575">
        <ele>47.050943</ele>
        <time>2022-05-31T09:58:02.570Z</time>
      </trkpt>
      <trkpt lat="42.50494" lon="18.67555">
        <ele>46.936057</ele>
        <time>2022-05-31T09:58:04.548Z</time>
      </trkpt>
      <trkpt lat="42.50488" lon="18.67535">
        <ele>46.823602</ele>
        <time>2022-05-31T09:58:06.550Z</time>
      </trkpt>
      <trkpt lat="42.50483" lon="18.67515">
        <ele>46.715586</ele>
        <time>2022-05-31T09:58:08.544Z</time>
      </trkpt>
      <trkpt lat="42.50479" lon="18.67496">
        <ele>46.610748</ele>
        <time>2022-05-31T09:58:10.563Z</time>
      </trkpt>
      <trkpt lat="42.50478" lon="18.67476">
        <ele>46.507391</ele>
        <time>2022-05-31T09:58:12.542Z</time>
      </trkpt>
      <trkpt lat="42.50478" lon="18.67457">
        <ele>46.409587</ele>
        <time>2022-05-31T09:58:14.538Z</time>
      </trkpt>
      <trkpt lat="42.5048" lon="18.67439">
        <ele>46.318356</ele>
        <time>2022-05-31T09:58:16.552Z</time>
      </trkpt>
      <trkpt lat="42.50483" lon="18.67423">
        <ele>46.438159</ele>
        <time>2022-05-31T09:58:18.555Z</time>
      </trkpt>
      <trkpt lat="42.50486" lon="18.67408">
        <ele>46.579718</ele>
        <time>2022-05-31T09:58:20.525Z</time>
      </trkpt>
      <trkpt lat="42.5049" lon="18.67394">
        <ele>46.717246</ele>
        <time>2022-05-31T09:58:22.549Z</time>
      </trkpt>
      <trkpt lat="42.50494" lon="18.6738">
        <ele>46.853702</ele>
        <time>2022-05-31T09:58:24.549Z</time>
      </trkpt>
      <trkpt lat="42.50499" lon="18.67367">
        <ele>46.986469</ele>
        <time>2022-05-31T09:58:26.570Z</time>
      </trkpt>
      <trkpt lat="42.50504" lon="18.67355">
        <ele>47.108417</ele>
        <time>2022-05-31T09:58:28.551Z</time>
      </trkpt>
      <trkpt lat="42.50508" lon="18.67343">
        <ele>47.232226</ele>
        <time>2022-05-31T09:58:30.541Z</time>
      </trkpt>
      <trkpt lat="42.50513" lon="18.67332">
        <ele>47.35097</ele>
        <time>2022-05-31T09:58:32.550Z</time>
      </trkpt>
      <trkpt lat="42.50517" lon="18.6732">
        <ele>47.467505</ele>
        <time>2022-05-31T09:58:34.544Z</time>
      </trkpt>
      <trkpt lat="42.50521" lon="18.67308">
        <ele>47.58561</ele>
        <time>2022-05-31T09:58:36.557Z</time>
      </trkpt>
      <trkpt lat="42.50527" lon="18.67292">
        <ele>47.746612</ele>
        <time>2022-05-31T09:58:39.584Z</time>
      </trkpt>
      <trkpt lat="42.50532" lon="18.67276">
        <ele>47.906003</ele>
        <time>2022-05-31T09:58:42.563Z</time>
      </trkpt>
      <trkpt lat="42.50535" lon="18.67258">
        <ele>48.071769</ele>
        <time>2022-05-31T09:58:45.546Z</time>
      </trkpt>
      <trkpt lat="42.50534" lon="18.6724">
        <ele>48.236596</ele>
        <time>2022-05-31T09:58:48.548Z</time>
      </trkpt>
      <trkpt lat="42.50531" lon="18.67228">
        <ele>48.355816</ele>
        <time>2022-05-31T09:58:50.532Z</time>
      </trkpt>
      <trkpt lat="42.50526" lon="18.67217">
        <ele>48.475425</ele>
        <time>2022-05-31T09:58:52.532Z</time>
      </trkpt>
      <trkpt lat="42.5052" lon="18.67205">
        <ele>48.620023</ele>
        <time>2022-05-31T09:58:54.570Z</time>
      </trkpt>
      <trkpt lat="42.50515" lon="18.67194">
        <ele>48.765747</ele>
        <time>2022-05-31T09:58:56.548Z</time>
      </trkpt>
      <trkpt lat="42.50509" lon="18.67183">
        <ele>48.913134</ele>
        <time>2022-05-31T09:58:58.549Z</time>
      </trkpt>
      <trkpt lat="42.50503" lon="18.67172">
        <ele>49.065066</ele>
        <time>2022-05-31T09:59:00.535Z</time>
      </trkpt>
      <trkpt lat="42.50498" lon="18.67161">
        <ele>49.217176</ele>
        <time>2022-05-31T09:59:02.552Z</time>
      </trkpt>
      <trkpt lat="42.50492" lon="18.67149">
        <ele>49.370945</ele>
        <time>2022-05-31T09:59:04.540Z</time>
      </trkpt>
      <trkpt lat="42.50487" lon="18.67137">
        <ele>49.526004</ele>
        <time>2022-05-31T09:59:06.557Z</time>
      </trkpt>
      <trkpt lat="42.50482" lon="18.67125">
        <ele>49.68334</ele>
        <time>2022-05-31T09:59:08.552Z</time>
      </trkpt>
      <trkpt lat="42.50477" lon="18.67112">
        <ele>49.846115</ele>
        <time>2022-05-31T09:59:10.541Z</time>
      </trkpt>
      <trkpt lat="42.50473" lon="18.67098">
        <ele>50.003361</ele>
        <time>2022-05-31T09:59:12.555Z</time>
      </trkpt>
      <trkpt lat="42.5047" lon="18.67085">
        <ele>50.163766</ele>
        <time>2022-05-31T09:59:14.540Z</time>
      </trkpt>
      <trkpt lat="42.50468" lon="18.6707">
        <ele>50.327457</ele>
        <time>2022-05-31T09:59:16.550Z</time>
      </trkpt>
      <trkpt lat="42.50466" lon="18.67056">
        <ele>50.484664</ele>
        <time>2022-05-31T09:59:18.588Z</time>
      </trkpt>
      <trkpt lat="42.50465" lon="18.67042">
        <ele>50.638354</ele>
        <time>2022-05-31T09:59:20.541Z</time>
      </trkpt>
      <trkpt lat="42.50464" lon="18.67029">
        <ele>50.790172</ele>
        <time>2022-05-31T09:59:22.545Z</time>
      </trkpt>
      <trkpt lat="42.50462" lon="18.67015">
        <ele>50.944549</ele>
        <time>2022-05-31T09:59:24.579Z</time>
      </trkpt>
      <trkpt lat="42.50461" lon="18.67001">
        <ele>51.096926</ele>
        <time>2022-05-31T09:59:26.545Z</time>
      </trkpt>
      <trkpt lat="42.50459" lon="18.66988">
        <ele>51.220347</ele>
        <time>2022-05-31T09:59:28.552Z</time>
      </trkpt>
      <trkpt lat="42.50458" lon="18.66975">
        <ele>51.147926</ele>
        <time>2022-05-31T09:59:30.542Z</time>
      </trkpt>
      <trkpt lat="42.50457" lon="18.66963">
        <ele>51.075982</ele>
        <time>2022-05-31T09:59:32.556Z</time>
      </trkpt>
      <trkpt lat="42.50456" lon="18.66949">
        <ele>51.002384</ele>
        <time>2022-05-31T09:59:34.553Z</time>
      </trkpt>
      <trkpt lat="42.50457" lon="18.66936">
        <ele>50.926918</ele>
        <time>2022-05-31T09:59:36.560Z</time>
      </trkpt>
      <trkpt lat="42.50458" lon="18.66923">
        <ele>50.853054</ele>
        <time>2022-05-31T09:59:38.549Z</time>
      </trkpt>
      <trkpt lat="42.50459" lon="18.66909">
        <ele>50.777635</ele>
        <time>2022-05-31T09:59:40.530Z</time>
      </trkpt>
      <trkpt lat="42.50461" lon="18.66896">
        <ele>50.704521</ele>
        <time>2022-05-31T09:59:42.541Z</time>
      </trkpt>
      <trkpt lat="42.50463" lon="18.66884">
        <ele>50.632702</ele>
        <time>2022-05-31T09:59:44.548Z</time>
      </trkpt>
      <trkpt lat="42.50466" lon="18.66872">
        <ele>50.564071</ele>
        <time>2022-05-31T09:59:46.549Z</time>
      </trkpt>
      <trkpt lat="42.50469" lon="18.6686">
        <ele>50.494699</ele>
        <time>2022-05-31T09:59:48.552Z</time>
      </trkpt>
      <trkpt lat="42.50471" lon="18.66848">
        <ele>50.42413</ele>
        <time>2022-05-31T09:59:50.541Z</time>
      </trkpt>
      <trkpt lat="42.50474" lon="18.66835">
        <ele>50.351024</ele>
        <time>2022-05-31T09:59:52.552Z</time>
      </trkpt>
      <trkpt lat="42.50475" lon="18.66817">
        <ele>50.251262</ele>
        <time>2022-05-31T09:59:55.552Z</time>
      </trkpt>
      <trkpt lat="42.50473" lon="18.668">
        <ele>50.152482</ele>
        <time>2022-05-31T09:59:58.548Z</time>
      </trkpt>
      <trkpt lat="42.50466" lon="18.66784">
        <ele>50.050241</ele>
        <time>2022-05-31T10:00:01.544Z</time>
      </trkpt>
      <trkpt lat="42.5046" lon="18.66774">
        <ele>49.981768</ele>
        <time>2022-05-31T10:00:03.532Z</time>
      </trkpt>
      <trkpt lat="42.50452" lon="18.66767">
        <ele>49.913275</ele>
        <time>2022-05-31T10:00:05.579Z</time>
      </trkpt>
      <trkpt lat="42.50443" lon="18.66762">
        <ele>49.849894</ele>
        <time>2022-05-31T10:00:07.553Z</time>
      </trkpt>
      <trkpt lat="42.50435" lon="18.66758">
        <ele>49.797575</ele>
        <time>2022-05-31T10:00:09.534Z</time>
      </trkpt>
      <trkpt lat="42.50426" lon="18.66756">
        <ele>49.746108</ele>
        <time>2022-05-31T10:00:11.544Z</time>
      </trkpt>
      <trkpt lat="42.50417" lon="18.66752">
        <ele>49.693907</ele>
        <time>2022-05-31T10:00:13.556Z</time>
      </trkpt>
      <trkpt lat="42.50404" lon="18.66747">
        <ele>49.618679</ele>
        <time>2022-05-31T10:00:16.541Z</time>
      </trkpt>
      <trkpt lat="42.50395" lon="18.66742">
        <ele>49.564877</ele>
        <time>2022-05-31T10:00:18.557Z</time>
      </trkpt>
      <trkpt lat="42.50386" lon="18.66737">
        <ele>49.508822</ele>
        <time>2022-05-31T10:00:20.540Z</time>
      </trkpt>
      <trkpt lat="42.50377" lon="18.66731">
        <ele>49.453524</ele>
        <time>2022-05-31T10:00:22.551Z</time>
      </trkpt>
      <trkpt lat="42.50369" lon="18.66725">
        <ele>49.399325</ele>
        <time>2022-05-31T10:00:24.549Z</time>
      </trkpt>
      <trkpt lat="42.50361" lon="18.66717">
        <ele>49.34734</ele>
        <time>2022-05-31T10:00:26.543Z</time>
      </trkpt>
      <trkpt lat="42.50354" lon="18.6671">
        <ele>49.294291</ele>
        <time>2022-05-31T10:00:28.595Z</time>
      </trkpt>
      <trkpt lat="42.50346" lon="18.66701">
        <ele>49.238578</ele>
        <time>2022-05-31T10:00:30.542Z</time>
      </trkpt>
      <trkpt lat="42.5034" lon="18.66691">
        <ele>49.182686</ele>
        <time>2022-05-31T10:00:32.541Z</time>
      </trkpt>
      <trkpt lat="42.50333" lon="18.6668">
        <ele>49.124784</ele>
        <time>2022-05-31T10:00:34.549Z</time>
      </trkpt>
      <trkpt lat="42.50327" lon="18.6667">
        <ele>49.072237</ele>
        <time>2022-05-31T10:00:36.539Z</time>
      </trkpt>
      <trkpt lat="42.50322" lon="18.6666">
        <ele>49.019388</ele>
        <time>2022-05-31T10:00:38.549Z</time>
      </trkpt>
      <trkpt lat="42.50317" lon="18.66649">
        <ele>48.966867</ele>
        <time>2022-05-31T10:00:40.537Z</time>
      </trkpt>
      <trkpt lat="42.50313" lon="18.66637">
        <ele>48.913008</ele>
        <time>2022-05-31T10:00:42.551Z</time>
      </trkpt>
      <trkpt lat="42.5031" lon="18.66625">
        <ele>48.852267</ele>
        <time>2022-05-31T10:00:44.543Z</time>
      </trkpt>
      <trkpt lat="42.50306" lon="18.66612">
        <ele>48.709631</ele>
        <time>2022-05-31T10:00:46.548Z</time>
      </trkpt>
      <trkpt lat="42.50302" lon="18.666">
        <ele>48.564629</ele>
        <time>2022-05-31T10:00:48.555Z</time>
      </trkpt>
      <trkpt lat="42.50298" lon="18.66588">
        <ele>48.422998</ele>
        <time>2022-05-31T10:00:50.575Z</time>
      </trkpt>
      <trkpt lat="42.50294" lon="18.66577">
        <ele>48.280321</ele>
        <time>2022-05-31T10:00:52.560Z</time>
      </trkpt>
      <trkpt lat="42.50289" lon="18.66565">
        <ele>48.138099</ele>
        <time>2022-05-31T10:00:54.549Z</time>
      </trkpt>
      <trkpt lat="42.50284" lon="18.66554">
        <ele>47.995218</ele>
        <time>2022-05-31T10:00:56.568Z</time>
      </trkpt>
      <trkpt lat="42.50277" lon="18.66544">
        <ele>47.851027</ele>
        <time>2022-05-31T10:00:58.531Z</time>
      </trkpt>
      <trkpt lat="42.50272" lon="18.66535">
        <ele>47.714187</ele>
        <time>2022-05-31T10:01:00.530Z</time>
      </trkpt>
      <trkpt lat="42.50263" lon="18.6652">
        <ele>47.517783</ele>
        <time>2022-05-31T10:01:03.529Z</time>
      </trkpt>
      <trkpt lat="42.50258" lon="18.66511">
        <ele>47.383475</ele>
        <time>2022-05-31T10:01:05.539Z</time>
      </trkpt>
      <trkpt lat="42.50252" lon="18.66501">
        <ele>47.24139</ele>
        <time>2022-05-31T10:01:07.534Z</time>
      </trkpt>
      <trkpt lat="42.50245" lon="18.66491">
        <ele>47.097449</ele>
        <time>2022-05-31T10:01:09.531Z</time>
      </trkpt>
      <trkpt lat="42.50238" lon="18.66482">
        <ele>46.959225</ele>
        <time>2022-05-31T10:01:11.553Z</time>
      </trkpt>
      <trkpt lat="42.50231" lon="18.66474">
        <ele>46.822289</ele>
        <time>2022-05-31T10:01:13.538Z</time>
      </trkpt>
      <trkpt lat="42.50222" lon="18.66461">
        <ele>46.629964</ele>
        <time>2022-05-31T10:01:16.526Z</time>
      </trkpt>
      <trkpt lat="42.50216" lon="18.66452">
        <ele>46.496635</ele>
        <time>2022-05-31T10:01:18.531Z</time>
      </trkpt>
      <trkpt lat="42.50207" lon="18.6644">
        <ele>46.304161</ele>
        <time>2022-05-31T10:01:21.523Z</time>
      </trkpt>
      <trkpt lat="42.50201" lon="18.66431">
        <ele>46.232975</ele>
        <time>2022-05-31T10:01:23.521Z</time>
      </trkpt>
      <trkpt lat="42.50194" lon="18.66423">
        <ele>46.333083</ele>
        <time>2022-05-31T10:01:25.542Z</time>
      </trkpt>
      <trkpt lat="42.50187" lon="18.66415">
        <ele>46.435523</ele>
        <time>2022-05-31T10:01:27.516Z</time>
      </trkpt>
      <trkpt lat="42.50178" lon="18.66403">
        <ele>46.575492</ele>
        <time>2022-05-31T10:01:30.546Z</time>
      </trkpt>
      <trkpt lat="42.50169" lon="18.66394">
        <ele>46.700589</ele>
        <time>2022-05-31T10:01:33.573Z</time>
      </trkpt>
      <trkpt lat="42.50159" lon="18.66386">
        <ele>46.826388</ele>
        <time>2022-05-31T10:01:36.528Z</time>
      </trkpt>
      <trkpt lat="42.50149" lon="18.66381">
        <ele>46.948464</ele>
        <time>2022-05-31T10:01:39.576Z</time>
      </trkpt>
      <trkpt lat="42.50139" lon="18.66375">
        <ele>47.07127</ele>
        <time>2022-05-31T10:01:42.613Z</time>
      </trkpt>
      <trkpt lat="42.50128" lon="18.66367">
        <ele>47.198008</ele>
        <time>2022-05-31T10:01:45.571Z</time>
      </trkpt>
      <trkpt lat="42.5012" lon="18.66359">
        <ele>47.317534</ele>
        <time>2022-05-31T10:01:48.554Z</time>
      </trkpt>
      <trkpt lat="42.50112" lon="18.66349">
        <ele>47.43535</ele>
        <time>2022-05-31T10:01:51.538Z</time>
      </trkpt>
      <trkpt lat="42.50105" lon="18.66337">
        <ele>47.561353</ele>
        <time>2022-05-31T10:01:54.545Z</time>
      </trkpt>
      <trkpt lat="42.50098" lon="18.66325">
        <ele>47.681978</ele>
        <time>2022-05-31T10:01:57.551Z</time>
      </trkpt>
      <trkpt lat="42.50094" lon="18.66312">
        <ele>47.805258</ele>
        <time>2022-05-31T10:02:00.545Z</time>
      </trkpt>
      <trkpt lat="42.5009" lon="18.66297">
        <ele>47.930314</ele>
        <time>2022-05-31T10:02:03.545Z</time>
      </trkpt>
      <trkpt lat="42.50088" lon="18.66283">
        <ele>48.052132</ele>
        <time>2022-05-31T10:02:06.533Z</time>
      </trkpt>
      <trkpt lat="42.50088" lon="18.66267">
        <ele>48.175795</ele>
        <time>2022-05-31T10:02:09.550Z</time>
      </trkpt>
      <trkpt lat="42.50088" lon="18.66252">
        <ele>48.270542</ele>
        <time>2022-05-31T10:02:12.553Z</time>
      </trkpt>
      <trkpt lat="42.50088" lon="18.66236">
        <ele>48.357064</ele>
        <time>2022-05-31T10:02:15.552Z</time>
      </trkpt>
      <trkpt lat="42.50087" lon="18.6622">
        <ele>48.446032</ele>
        <time>2022-05-31T10:02:18.554Z</time>
      </trkpt>
      <trkpt lat="42.50084" lon="18.66205">
        <ele>48.534237</ele>
        <time>2022-05-31T10:02:21.548Z</time>
      </trkpt>
      <trkpt lat="42.5008" lon="18.66189">
        <ele>48.625043</ele>
        <time>2022-05-31T10:02:24.551Z</time>
      </trkpt>
      <trkpt lat="42.50075" lon="18.66174">
        <ele>48.71946</ele>
        <time>2022-05-31T10:02:27.581Z</time>
      </trkpt>
      <trkpt lat="42.50069" lon="18.66158">
        <ele>48.816623</ele>
        <time>2022-05-31T10:02:30.549Z</time>
      </trkpt>
      <trkpt lat="42.50061" lon="18.66144">
        <ele>48.915729</ele>
        <time>2022-05-31T10:02:33.539Z</time>
      </trkpt>
      <trkpt lat="42.50054" lon="18.66136">
        <ele>48.984555</ele>
        <time>2022-05-31T10:02:35.544Z</time>
      </trkpt>
      <trkpt lat="42.50047" lon="18.66129">
        <ele>49.054575</ele>
        <time>2022-05-31T10:02:37.550Z</time>
      </trkpt>
      <trkpt lat="42.50038" lon="18.66122">
        <ele>49.127857</ele>
        <time>2022-05-31T10:02:39.579Z</time>
      </trkpt>
      <trkpt lat="42.5003" lon="18.66116">
        <ele>49.200968</ele>
        <time>2022-05-31T10:02:41.529Z</time>
      </trkpt>
      <trkpt lat="42.50021" lon="18.66109">
        <ele>49.273422</ele>
        <time>2022-05-31T10:02:43.541Z</time>
      </trkpt>
      <trkpt lat="42.50012" lon="18.66104">
        <ele>49.345607</ele>
        <time>2022-05-31T10:02:45.561Z</time>
      </trkpt>
      <trkpt lat="42.50004" lon="18.66099">
        <ele>49.418265</ele>
        <time>2022-05-31T10:02:47.529Z</time>
      </trkpt>
      <trkpt lat="42.49995" lon="18.66094">
        <ele>49.489108</ele>
        <time>2022-05-31T10:02:49.542Z</time>
      </trkpt>
      <trkpt lat="42.49986" lon="18.6609">
        <ele>49.549347</ele>
        <time>2022-05-31T10:02:51.583Z</time>
      </trkpt>
      <trkpt lat="42.49977" lon="18.66085">
        <ele>49.456807</ele>
        <time>2022-05-31T10:02:53.548Z</time>
      </trkpt>
      <trkpt lat="42.49968" lon="18.6608">
        <ele>49.364522</ele>
        <time>2022-05-31T10:02:55.543Z</time>
      </trkpt>
      <trkpt lat="42.49959" lon="18.66076">
        <ele>49.271981</ele>
        <time>2022-05-31T10:02:57.544Z</time>
      </trkpt>
      <trkpt lat="42.4995" lon="18.66069">
        <ele>49.176935</ele>
        <time>2022-05-31T10:02:59.531Z</time>
      </trkpt>
      <trkpt lat="42.49941" lon="18.66061">
        <ele>49.0743</ele>
        <time>2022-05-31T10:03:01.547Z</time>
      </trkpt>
      <trkpt lat="42.49932" lon="18.66053">
        <ele>48.968957</ele>
        <time>2022-05-31T10:03:03.574Z</time>
      </trkpt>
      <trkpt lat="42.49923" lon="18.66045">
        <ele>48.863226</ele>
        <time>2022-05-31T10:03:05.549Z</time>
      </trkpt>
      <trkpt lat="42.49914" lon="18.66036">
        <ele>48.756706</ele>
        <time>2022-05-31T10:03:07.548Z</time>
      </trkpt>
      <trkpt lat="42.49905" lon="18.66027">
        <ele>48.65339</ele>
        <time>2022-05-31T10:03:09.583Z</time>
      </trkpt>
      <trkpt lat="42.49898" lon="18.66017">
        <ele>48.553253</ele>
        <time>2022-05-31T10:03:11.556Z</time>
      </trkpt>
      <trkpt lat="42.49892" lon="18.66006">
        <ele>48.460043</ele>
        <time>2022-05-31T10:03:13.537Z</time>
      </trkpt>
      <trkpt lat="42.49886" lon="18.65996">
        <ele>48.364583</ele>
        <time>2022-05-31T10:03:15.553Z</time>
      </trkpt>
      <trkpt lat="42.49879" lon="18.65985">
        <ele>48.266868</ele>
        <time>2022-05-31T10:03:17.547Z</time>
      </trkpt>
      <trkpt lat="42.49873" lon="18.65975">
        <ele>48.17059</ele>
        <time>2022-05-31T10:03:19.553Z</time>
      </trkpt>
      <trkpt lat="42.49867" lon="18.65965">
        <ele>48.079483</ele>
        <time>2022-05-31T10:03:21.533Z</time>
      </trkpt>
      <trkpt lat="42.49861" lon="18.65955">
        <ele>47.990271</ele>
        <time>2022-05-31T10:03:23.549Z</time>
      </trkpt>
      <trkpt lat="42.49852" lon="18.65941">
        <ele>47.865168</ele>
        <time>2022-05-31T10:03:26.526Z</time>
      </trkpt>
      <trkpt lat="42.49844" lon="18.65929">
        <ele>47.867083</ele>
        <time>2022-05-31T10:03:29.545Z</time>
      </trkpt>
      <trkpt lat="42.49835" lon="18.65917">
        <ele>47.909821</ele>
        <time>2022-05-31T10:03:32.555Z</time>
      </trkpt>
      <trkpt lat="42.49826" lon="18.65905">
        <ele>47.954413</ele>
        <time>2022-05-31T10:03:35.561Z</time>
      </trkpt>
      <trkpt lat="42.49818" lon="18.65893">
        <ele>47.996367</ele>
        <time>2022-05-31T10:03:38.555Z</time>
      </trkpt>
      <trkpt lat="42.4981" lon="18.65883">
        <ele>48.033302</ele>
        <time>2022-05-31T10:03:41.556Z</time>
      </trkpt>
      <trkpt lat="42.49803" lon="18.65873">
        <ele>48.070725</ele>
        <time>2022-05-31T10:03:44.542Z</time>
      </trkpt>
      <trkpt lat="42.49793" lon="18.65863">
        <ele>48.112401</ele>
        <time>2022-05-31T10:03:47.552Z</time>
      </trkpt>
      <trkpt lat="42.49783" lon="18.65853">
        <ele>48.156496</ele>
        <time>2022-05-31T10:03:50.541Z</time>
      </trkpt>
      <trkpt lat="42.49771" lon="18.65845">
        <ele>48.203398</ele>
        <time>2022-05-31T10:03:53.549Z</time>
      </trkpt>
      <trkpt lat="42.49761" lon="18.65842">
        <ele>48.237858</ele>
        <time>2022-05-31T10:03:55.546Z</time>
      </trkpt>
      <trkpt lat="42.49752" lon="18.65839">
        <ele>48.272118</ele>
        <time>2022-05-31T10:03:57.545Z</time>
      </trkpt>
      <trkpt lat="42.49742" lon="18.65835">
        <ele>48.306536</ele>
        <time>2022-05-31T10:03:59.551Z</time>
      </trkpt>
      <trkpt lat="42.49733" lon="18.65829">
        <ele>48.341034</ele>
        <time>2022-05-31T10:04:01.550Z</time>
      </trkpt>
      <trkpt lat="42.49725" lon="18.65822">
        <ele>48.374451</ele>
        <time>2022-05-31T10:04:03.535Z</time>
      </trkpt>
      <trkpt lat="42.49717" lon="18.65815">
        <ele>48.407705</ele>
        <time>2022-05-31T10:04:05.555Z</time>
      </trkpt>
      <trkpt lat="42.4971" lon="18.65807">
        <ele>48.441686</ele>
        <time>2022-05-31T10:04:07.552Z</time>
      </trkpt>
      <trkpt lat="42.49703" lon="18.65796">
        <ele>48.450044</ele>
        <time>2022-05-31T10:04:09.549Z</time>
      </trkpt>
      <trkpt lat="42.49696" lon="18.65785">
        <ele>48.417692</ele>
        <time>2022-05-31T10:04:11.598Z</time>
      </trkpt>
      <trkpt lat="42.49691" lon="18.65772">
        <ele>48.386267</ele>
        <time>2022-05-31T10:04:13.558Z</time>
      </trkpt>
      <trkpt lat="42.49686" lon="18.6576">
        <ele>48.354716</ele>
        <time>2022-05-31T10:04:15.546Z</time>
      </trkpt>
      <trkpt lat="42.49682" lon="18.65748">
        <ele>48.326705</ele>
        <time>2022-05-31T10:04:17.566Z</time>
      </trkpt>
      <trkpt lat="42.49679" lon="18.65736">
        <ele>48.297274</ele>
        <time>2022-05-31T10:04:19.548Z</time>
      </trkpt>
      <trkpt lat="42.49677" lon="18.65723">
        <ele>48.267355</ele>
        <time>2022-05-31T10:04:21.546Z</time>
      </trkpt>
      <trkpt lat="42.49671" lon="18.65707">
        <ele>48.230027</ele>
        <time>2022-05-31T10:04:23.538Z</time>
      </trkpt>
      <trkpt lat="42.49666" lon="18.65693">
        <ele>48.195075</ele>
        <time>2022-05-31T10:04:25.537Z</time>
      </trkpt>
      <trkpt lat="42.49661" lon="18.65679">
        <ele>48.16032</ele>
        <time>2022-05-31T10:04:27.543Z</time>
      </trkpt>
      <trkpt lat="42.49656" lon="18.65666">
        <ele>48.127349</ele>
        <time>2022-05-31T10:04:29.539Z</time>
      </trkpt>
      <trkpt lat="42.49651" lon="18.65652">
        <ele>48.094578</ele>
        <time>2022-05-31T10:04:31.537Z</time>
      </trkpt>
      <trkpt lat="42.49647" lon="18.65639">
        <ele>48.062242</ele>
        <time>2022-05-31T10:04:33.535Z</time>
      </trkpt>
      <trkpt lat="42.49644" lon="18.65625">
        <ele>48.029361</ele>
        <time>2022-05-31T10:04:35.562Z</time>
      </trkpt>
      <trkpt lat="42.49642" lon="18.65611">
        <ele>47.997748</ele>
        <time>2022-05-31T10:04:37.574Z</time>
      </trkpt>
      <trkpt lat="42.4964" lon="18.65596">
        <ele>47.965806</ele>
        <time>2022-05-31T10:04:39.550Z</time>
      </trkpt>
      <trkpt lat="42.49638" lon="18.65583">
        <ele>47.93643</ele>
        <time>2022-05-31T10:04:41.535Z</time>
      </trkpt>
      <trkpt lat="42.49636" lon="18.65571">
        <ele>47.9533</ele>
        <time>2022-05-31T10:04:43.548Z</time>
      </trkpt>
      <trkpt lat="42.49634" lon="18.65559">
        <ele>48.002644</ele>
        <time>2022-05-31T10:04:45.552Z</time>
      </trkpt>
      <trkpt lat="42.49631" lon="18.65546">
        <ele>48.05612</ele>
        <time>2022-05-31T10:04:47.540Z</time>
      </trkpt>
      <trkpt lat="42.49625" lon="18.6553">
        <ele>48.12555</ele>
        <time>2022-05-31T10:04:50.531Z</time>
      </trkpt>
      <trkpt lat="42.4962" lon="18.6552">
        <ele>48.175966</ele>
        <time>2022-05-31T10:04:52.529Z</time>
      </trkpt>
      <trkpt lat="42.49614" lon="18.65509">
        <ele>48.228962</ele>
        <time>2022-05-31T10:04:54.542Z</time>
      </trkpt>
      <trkpt lat="42.49606" lon="18.65496">
        <ele>48.297754</ele>
        <time>2022-05-31T10:04:57.540Z</time>
      </trkpt>
      <trkpt lat="42.496" lon="18.65487">
        <ele>48.346505</ele>
        <time>2022-05-31T10:04:59.579Z</time>
      </trkpt>
      <trkpt lat="42.49592" lon="18.65472">
        <ele>48.418178</ele>
        <time>2022-05-31T10:05:02.529Z</time>
      </trkpt>
      <trkpt lat="42.49586" lon="18.65458">
        <ele>48.485701</ele>
        <time>2022-05-31T10:05:05.530Z</time>
      </trkpt>
      <trkpt lat="42.49577" lon="18.65447">
        <ele>48.550171</ele>
        <time>2022-05-31T10:05:08.545Z</time>
      </trkpt>
      <trkpt lat="42.49566" lon="18.65443">
        <ele>48.610201</ele>
        <time>2022-05-31T10:05:11.637Z</time>
      </trkpt>
      <trkpt lat="42.49555" lon="18.65448">
        <ele>48.670967</ele>
        <time>2022-05-31T10:05:14.547Z</time>
      </trkpt>
      <trkpt lat="42.49543" lon="18.65448">
        <ele>48.734889</ele>
        <time>2022-05-31T10:05:17.539Z</time>
      </trkpt>
      <trkpt lat="42.49534" lon="18.65434">
        <ele>48.811478</ele>
        <time>2022-05-31T10:05:20.540Z</time>
      </trkpt>
      <trkpt lat="42.49529" lon="18.65421">
        <ele>48.871261</ele>
        <time>2022-05-31T10:05:22.546Z</time>
      </trkpt>
      <trkpt lat="42.49526" lon="18.65408">
        <ele>48.904589</ele>
        <time>2022-05-31T10:05:24.578Z</time>
      </trkpt>
      <trkpt lat="42.49524" lon="18.65395">
        <ele>48.918718</ele>
        <time>2022-05-31T10:05:26.539Z</time>
      </trkpt>
      <trkpt lat="42.49521" lon="18.65383">
        <ele>48.932665</ele>
        <time>2022-05-31T10:05:28.537Z</time>
      </trkpt>
      <trkpt lat="42.49518" lon="18.65371">
        <ele>48.946709</ele>
        <time>2022-05-31T10:05:30.533Z</time>
      </trkpt>
      <trkpt lat="42.49516" lon="18.65358">
        <ele>48.961637</ele>
        <time>2022-05-31T10:05:32.548Z</time>
      </trkpt>
      <trkpt lat="42.49513" lon="18.65345">
        <ele>48.976164</ele>
        <time>2022-05-31T10:05:34.550Z</time>
      </trkpt>
      <trkpt lat="42.4951" lon="18.65333">
        <ele>48.989724</ele>
        <time>2022-05-31T10:05:36.543Z</time>
      </trkpt>
      <trkpt lat="42.49508" lon="18.65321">
        <ele>49.00328</ele>
        <time>2022-05-31T10:05:38.570Z</time>
      </trkpt>
      <trkpt lat="42.49505" lon="18.65309">
        <ele>49.017264</ele>
        <time>2022-05-31T10:05:40.632Z</time>
      </trkpt>
      <trkpt lat="42.49501" lon="18.65293">
        <ele>49.036188</ele>
        <time>2022-05-31T10:05:43.560Z</time>
      </trkpt>
      <trkpt lat="42.49498" lon="18.65282">
        <ele>49.049704</ele>
        <time>2022-05-31T10:05:45.551Z</time>
      </trkpt>
      <trkpt lat="42.49493" lon="18.6527">
        <ele>49.063645</ele>
        <time>2022-05-31T10:05:47.588Z</time>
      </trkpt>
      <trkpt lat="42.49489" lon="18.65259">
        <ele>49.077524</ele>
        <time>2022-05-31T10:05:49.556Z</time>
      </trkpt>
      <trkpt lat="42.49481" lon="18.65245">
        <ele>49.096988</ele>
        <time>2022-05-31T10:05:52.548Z</time>
      </trkpt>
      <trkpt lat="42.49476" lon="18.65235">
        <ele>49.110965</ele>
        <time>2022-05-31T10:05:54.554Z</time>
      </trkpt>
      <trkpt lat="42.4947" lon="18.65224">
        <ele>49.125031</ele>
        <time>2022-05-31T10:05:56.551Z</time>
      </trkpt>
      <trkpt lat="42.49464" lon="18.65214">
        <ele>49.140071</ele>
        <time>2022-05-31T10:05:58.539Z</time>
      </trkpt>
      <trkpt lat="42.49458" lon="18.65204">
        <ele>49.153723</ele>
        <time>2022-05-31T10:06:00.520Z</time>
      </trkpt>
      <trkpt lat="42.49449" lon="18.65192">
        <ele>49.132867</ele>
        <time>2022-05-31T10:06:03.529Z</time>
      </trkpt>
      <trkpt lat="42.4944" lon="18.65184">
        <ele>49.060871</ele>
        <time>2022-05-31T10:06:06.556Z</time>
      </trkpt>
      <trkpt lat="42.49429" lon="18.65179">
        <ele>48.982204</ele>
        <time>2022-05-31T10:06:09.565Z</time>
      </trkpt>
      <trkpt lat="42.49416" lon="18.65179">
        <ele>48.896956</ele>
        <time>2022-05-31T10:06:12.591Z</time>
      </trkpt>
      <trkpt lat="42.49407" lon="18.65181">
        <ele>48.83574</ele>
        <time>2022-05-31T10:06:14.544Z</time>
      </trkpt>
      <trkpt lat="42.49398" lon="18.65184">
        <ele>48.768895</ele>
        <time>2022-05-31T10:06:16.548Z</time>
      </trkpt>
      <trkpt lat="42.49387" lon="18.65186">
        <ele>48.698906</ele>
        <time>2022-05-31T10:06:18.544Z</time>
      </trkpt>
      <trkpt lat="42.49376" lon="18.65187">
        <ele>48.622977</ele>
        <time>2022-05-31T10:06:20.580Z</time>
      </trkpt>
      <trkpt lat="42.49366" lon="18.65184">
        <ele>48.556738</ele>
        <time>2022-05-31T10:06:22.552Z</time>
      </trkpt>
      <trkpt lat="42.49356" lon="18.65178">
        <ele>48.485112</ele>
        <time>2022-05-31T10:06:24.552Z</time>
      </trkpt>
      <trkpt lat="42.49347" lon="18.65171">
        <ele>48.412063</ele>
        <time>2022-05-31T10:06:26.542Z</time>
      </trkpt>
      <trkpt lat="42.49338" lon="18.65162">
        <ele>48.336755</ele>
        <time>2022-05-31T10:06:28.544Z</time>
      </trkpt>
      <trkpt lat="42.49329" lon="18.65152">
        <ele>48.257701</ele>
        <time>2022-05-31T10:06:30.535Z</time>
      </trkpt>
      <trkpt lat="42.4932" lon="18.65142">
        <ele>48.180359</ele>
        <time>2022-05-31T10:06:32.546Z</time>
      </trkpt>
      <trkpt lat="42.49312" lon="18.65132">
        <ele>48.108827</ele>
        <time>2022-05-31T10:06:34.556Z</time>
      </trkpt>
      <trkpt lat="42.49304" lon="18.65122">
        <ele>48.036466</ele>
        <time>2022-05-31T10:06:36.551Z</time>
      </trkpt>
      <trkpt lat="42.49296" lon="18.65113">
        <ele>47.964584</ele>
        <time>2022-05-31T10:06:38.548Z</time>
      </trkpt>
      <trkpt lat="42.49287" lon="18.65104">
        <ele>47.806196</ele>
        <time>2022-05-31T10:06:40.545Z</time>
      </trkpt>
      <trkpt lat="42.49279" lon="18.65096">
        <ele>47.642758</ele>
        <time>2022-05-31T10:06:42.534Z</time>
      </trkpt>
      <trkpt lat="42.4927" lon="18.65089">
        <ele>47.480944</ele>
        <time>2022-05-31T10:06:44.554Z</time>
      </trkpt>
      <trkpt lat="42.49261" lon="18.65082">
        <ele>47.313464</ele>
        <time>2022-05-31T10:06:46.551Z</time>
      </trkpt>
      <trkpt lat="42.49252" lon="18.65075">
        <ele>47.156282</ele>
        <time>2022-05-31T10:06:48.561Z</time>
      </trkpt>
      <trkpt lat="42.49244" lon="18.65067">
        <ele>47.001928</ele>
        <time>2022-05-31T10:06:50.546Z</time>
      </trkpt>
      <trkpt lat="42.49236" lon="18.6506">
        <ele>46.848144</ele>
        <time>2022-05-31T10:06:52.553Z</time>
      </trkpt>
      <trkpt lat="42.49224" lon="18.6505">
        <ele>46.636723</ele>
        <time>2022-05-31T10:06:55.550Z</time>
      </trkpt>
      <trkpt lat="42.49217" lon="18.65043">
        <ele>46.495343</ele>
        <time>2022-05-31T10:06:57.550Z</time>
      </trkpt>
      <trkpt lat="42.49209" lon="18.65036">
        <ele>46.337737</ele>
        <time>2022-05-31T10:06:59.552Z</time>
      </trkpt>
      <trkpt lat="42.492" lon="18.65029">
        <ele>46.188892</ele>
        <time>2022-05-31T10:07:01.537Z</time>
      </trkpt>
      <trkpt lat="42.49192" lon="18.65024">
        <ele>46.043588</ele>
        <time>2022-05-31T10:07:03.536Z</time>
      </trkpt>
      <trkpt lat="42.49183" lon="18.65022">
        <ele>45.901605</ele>
        <time>2022-05-31T10:07:05.557Z</time>
      </trkpt>
      <trkpt lat="42.49174" lon="18.65022">
        <ele>45.755845</ele>
        <time>2022-05-31T10:07:07.557Z</time>
      </trkpt>
      <trkpt lat="42.4916" lon="18.65025">
        <ele>45.5455</ele>
        <time>2022-05-31T10:07:10.549Z</time>
      </trkpt>
      <trkpt lat="42.49151" lon="18.65029">
        <ele>45.390299</ele>
        <time>2022-05-31T10:07:12.554Z</time>
      </trkpt>
      <trkpt lat="42.49141" lon="18.65032">
        <ele>45.23421</ele>
        <time>2022-05-31T10:07:14.541Z</time>
      </trkpt>
      <trkpt lat="42.49131" lon="18.65035">
        <ele>45.133802</ele>
        <time>2022-05-31T10:07:16.551Z</time>
      </trkpt>
      <trkpt lat="42.49121" lon="18.65035">
        <ele>45.121412</ele>
        <time>2022-05-31T10:07:18.542Z</time>
      </trkpt>
      <trkpt lat="42.49111" lon="18.65034">
        <ele>45.108847</ele>
        <time>2022-05-31T10:07:20.542Z</time>
      </trkpt>
      <trkpt lat="42.49102" lon="18.65032">
        <ele>45.097139</ele>
        <time>2022-05-31T10:07:22.542Z</time>
      </trkpt>
      <trkpt lat="42.49089" lon="18.65025">
        <ele>45.080641</ele>
        <time>2022-05-31T10:07:25.558Z</time>
      </trkpt>
      <trkpt lat="42.49078" lon="18.65017">
        <ele>45.064507</ele>
        <time>2022-05-31T10:07:28.535Z</time>
      </trkpt>
      <trkpt lat="42.49068" lon="18.65006">
        <ele>45.048758</ele>
        <time>2022-05-31T10:07:31.546Z</time>
      </trkpt>
      <trkpt lat="42.49057" lon="18.64995">
        <ele>45.032366</ele>
        <time>2022-05-31T10:07:34.545Z</time>
      </trkpt>
      <trkpt lat="42.49051" lon="18.64986">
        <ele>45.021093</ele>
        <time>2022-05-31T10:07:36.545Z</time>
      </trkpt>
      <trkpt lat="42.49045" lon="18.64977">
        <ele>45.009576</ele>
        <time>2022-05-31T10:07:38.576Z</time>
      </trkpt>
      <trkpt lat="42.49038" lon="18.64967">
        <ele>44.99732</ele>
        <time>2022-05-31T10:07:40.536Z</time>
      </trkpt>
      <trkpt lat="42.49031" lon="18.64957">
        <ele>44.984728</ele>
        <time>2022-05-31T10:07:42.542Z</time>
      </trkpt>
      <trkpt lat="42.49024" lon="18.64946">
        <ele>44.971582</ele>
        <time>2022-05-31T10:07:44.552Z</time>
      </trkpt>
      <trkpt lat="42.49017" lon="18.64936">
        <ele>44.9591</ele>
        <time>2022-05-31T10:07:46.552Z</time>
      </trkpt>
      <trkpt lat="42.49009" lon="18.64927">
        <ele>44.945649</ele>
        <time>2022-05-31T10:07:48.551Z</time>
      </trkpt>
      <trkpt lat="42.49" lon="18.64919">
        <ele>44.932624</ele>
        <time>2022-05-31T10:07:50.533Z</time>
      </trkpt>
      <trkpt lat="42.48992" lon="18.64912">
        <ele>44.920447</ele>
        <time>2022-05-31T10:07:52.557Z</time>
      </trkpt>
      <trkpt lat="42.48982" lon="18.64908">
        <ele>44.964246</ele>
        <time>2022-05-31T10:07:54.538Z</time>
      </trkpt>
      <trkpt lat="42.48972" lon="18.64904">
        <ele>45.049321</ele>
        <time>2022-05-31T10:07:56.539Z</time>
      </trkpt>
      <trkpt lat="42.4896" lon="18.64904">
        <ele>45.136616</ele>
        <time>2022-05-31T10:07:58.537Z</time>
      </trkpt>
      <trkpt lat="42.48949" lon="18.64904">
        <ele>45.218484</ele>
        <time>2022-05-31T10:08:00.549Z</time>
      </trkpt>
      <trkpt lat="42.48938" lon="18.64907">
        <ele>45.303996</ele>
        <time>2022-05-31T10:08:02.536Z</time>
      </trkpt>
      <trkpt lat="42.48928" lon="18.64911">
        <ele>45.385378</ele>
        <time>2022-05-31T10:08:04.540Z</time>
      </trkpt>
      <trkpt lat="42.48919" lon="18.64916">
        <ele>45.463251</ele>
        <time>2022-05-31T10:08:06.557Z</time>
      </trkpt>
      <trkpt lat="42.48911" lon="18.64924">
        <ele>45.539228</ele>
        <time>2022-05-31T10:08:08.555Z</time>
      </trkpt>
      <trkpt lat="42.48904" lon="18.64933">
        <ele>45.616324</ele>
        <time>2022-05-31T10:08:10.535Z</time>
      </trkpt>
      <trkpt lat="42.48897" lon="18.64944">
        <ele>45.6938</ele>
        <time>2022-05-31T10:08:12.552Z</time>
      </trkpt>
      <trkpt lat="42.4889" lon="18.64954">
        <ele>45.773357</ele>
        <time>2022-05-31T10:08:14.549Z</time>
      </trkpt>
      <trkpt lat="42.48884" lon="18.64966">
        <ele>45.85554</ele>
        <time>2022-05-31T10:08:16.554Z</time>
      </trkpt>
      <trkpt lat="42.48878" lon="18.64978">
        <ele>45.935466</ele>
        <time>2022-05-31T10:08:18.549Z</time>
      </trkpt>
      <trkpt lat="42.48872" lon="18.64989">
        <ele>46.016755</ele>
        <time>2022-05-31T10:08:20.529Z</time>
      </trkpt>
      <trkpt lat="42.48866" lon="18.65001">
        <ele>46.098971</ele>
        <time>2022-05-31T10:08:22.554Z</time>
      </trkpt>
      <trkpt lat="42.48859" lon="18.65014">
        <ele>46.186598</ele>
        <time>2022-05-31T10:08:24.540Z</time>
      </trkpt>
      <trkpt lat="42.48852" lon="18.65026">
        <ele>46.272026</ele>
        <time>2022-05-31T10:08:26.578Z</time>
      </trkpt>
      <trkpt lat="42.48845" lon="18.65037">
        <ele>46.195436</ele>
        <time>2022-05-31T10:08:28.558Z</time>
      </trkpt>
      <trkpt lat="42.48838" lon="18.65048">
        <ele>46.070706</ele>
        <time>2022-05-31T10:08:30.529Z</time>
      </trkpt>
      <trkpt lat="42.4883" lon="18.65058">
        <ele>45.950354</ele>
        <time>2022-05-31T10:08:32.589Z</time>
      </trkpt>
      <trkpt lat="42.48823" lon="18.65068">
        <ele>45.831022</ele>
        <time>2022-05-31T10:08:34.548Z</time>
      </trkpt>
      <trkpt lat="42.48815" lon="18.65078">
        <ele>45.711838</ele>
        <time>2022-05-31T10:08:36.552Z</time>
      </trkpt>
      <trkpt lat="42.48807" lon="18.65087">
        <ele>45.590595</ele>
        <time>2022-05-31T10:08:38.557Z</time>
      </trkpt>
      <trkpt lat="42.48799" lon="18.65095">
        <ele>45.471898</ele>
        <time>2022-05-31T10:08:40.527Z</time>
      </trkpt>
      <trkpt lat="42.48791" lon="18.65103">
        <ele>45.356124</ele>
        <time>2022-05-31T10:08:42.576Z</time>
      </trkpt>
      <trkpt lat="42.48783" lon="18.65109">
        <ele>45.249855</ele>
        <time>2022-05-31T10:08:44.552Z</time>
      </trkpt>
      <trkpt lat="42.48776" lon="18.65116">
        <ele>45.145078</ele>
        <time>2022-05-31T10:08:46.547Z</time>
      </trkpt>
      <trkpt lat="42.48764" lon="18.65125">
        <ele>44.988751</ele>
        <time>2022-05-31T10:08:49.538Z</time>
      </trkpt>
      <trkpt lat="42.48752" lon="18.65135">
        <ele>44.83409</ele>
        <time>2022-05-31T10:08:52.544Z</time>
      </trkpt>
      <trkpt lat="42.48741" lon="18.65145">
        <ele>44.677098</ele>
        <time>2022-05-31T10:08:55.549Z</time>
      </trkpt>
      <trkpt lat="42.48733" lon="18.65151">
        <ele>44.569846</ele>
        <time>2022-05-31T10:08:57.576Z</time>
      </trkpt>
      <trkpt lat="42.48723" lon="18.6516">
        <ele>44.428676</ele>
        <time>2022-05-31T10:09:00.517Z</time>
      </trkpt>
      <trkpt lat="42.48712" lon="18.6517">
        <ele>44.275115</ele>
        <time>2022-05-31T10:09:03.573Z</time>
      </trkpt>
      <trkpt lat="42.48704" lon="18.65182">
        <ele>44.307065</ele>
        <time>2022-05-31T10:09:06.527Z</time>
      </trkpt>
      <trkpt lat="42.48699" lon="18.65197">
        <ele>44.481763</ele>
        <time>2022-05-31T10:09:09.578Z</time>
      </trkpt>
      <trkpt lat="42.48696" lon="18.65213">
        <ele>44.662335</ele>
        <time>2022-05-31T10:09:12.556Z</time>
      </trkpt>
      <trkpt lat="42.48696" lon="18.65228">
        <ele>44.822208</ele>
        <time>2022-05-31T10:09:15.563Z</time>
      </trkpt>
      <trkpt lat="42.48698" lon="18.65243">
        <ele>44.98823</ele>
        <time>2022-05-31T10:09:18.549Z</time>
      </trkpt>
      <trkpt lat="42.487" lon="18.6526">
        <ele>45.176726</ele>
        <time>2022-05-31T10:09:21.589Z</time>
      </trkpt>
      <trkpt lat="42.48703" lon="18.65276">
        <ele>45.363089</ele>
        <time>2022-05-31T10:09:24.550Z</time>
      </trkpt>
      <trkpt lat="42.48704" lon="18.65288">
        <ele>45.496509</ele>
        <time>2022-05-31T10:09:26.557Z</time>
      </trkpt>
      <trkpt lat="42.48705" lon="18.65301">
        <ele>45.632943</ele>
        <time>2022-05-31T10:09:28.551Z</time>
      </trkpt>
      <trkpt lat="42.48705" lon="18.65313">
        <ele>45.766765</ele>
        <time>2022-05-31T10:09:30.541Z</time>
      </trkpt>
      <trkpt lat="42.48705" lon="18.6533">
        <ele>45.945121</ele>
        <time>2022-05-31T10:09:33.571Z</time>
      </trkpt>
      <trkpt lat="42.48706" lon="18.65346">
        <ele>46.120196</ele>
        <time>2022-05-31T10:09:36.544Z</time>
      </trkpt>
      <trkpt lat="42.48705" lon="18.65361">
        <ele>46.288767</ele>
        <time>2022-05-31T10:09:39.595Z</time>
      </trkpt>
      <trkpt lat="42.48705" lon="18.65377">
        <ele>46.461668</ele>
        <time>2022-05-31T10:09:42.557Z</time>
      </trkpt>
      <trkpt lat="42.48705" lon="18.65393">
        <ele>46.632394</ele>
        <time>2022-05-31T10:09:45.553Z</time>
      </trkpt>
      <trkpt lat="42.48705" lon="18.65409">
        <ele>46.805389</ele>
        <time>2022-05-31T10:09:48.539Z</time>
      </trkpt>
      <trkpt lat="42.48705" lon="18.65425">
        <ele>46.759925</ele>
        <time>2022-05-31T10:09:51.546Z</time>
      </trkpt>
      <trkpt lat="42.48705" lon="18.65441">
        <ele>46.612405</ele>
        <time>2022-05-31T10:09:54.551Z</time>
      </trkpt>
      <trkpt lat="42.48704" lon="18.65457">
        <ele>46.459952</ele>
        <time>2022-05-31T10:09:57.551Z</time>
      </trkpt>
      <trkpt lat="42.48703" lon="18.65473">
        <ele>46.303063</ele>
        <time>2022-05-31T10:10:00.553Z</time>
      </trkpt>
      <trkpt lat="42.48701" lon="18.6549">
        <ele>46.145877</ele>
        <time>2022-05-31T10:10:03.532Z</time>
      </trkpt>
      <trkpt lat="42.48699" lon="18.65507">
        <ele>45.977986</ele>
        <time>2022-05-31T10:10:06.545Z</time>
      </trkpt>
      <trkpt lat="42.48697" lon="18.65525">
        <ele>45.808798</ele>
        <time>2022-05-31T10:10:09.579Z</time>
      </trkpt>
      <trkpt lat="42.48696" lon="18.65538">
        <ele>45.68528</ele>
        <time>2022-05-31T10:10:11.541Z</time>
      </trkpt>
      <trkpt lat="42.48696" lon="18.6555">
        <ele>45.566886</ele>
        <time>2022-05-31T10:10:13.579Z</time>
      </trkpt>
      <trkpt lat="42.48694" lon="18.65568">
        <ele>45.396756</ele>
        <time>2022-05-31T10:10:16.532Z</time>
      </trkpt>
      <trkpt lat="42.48692" lon="18.65586">
        <ele>45.221918</ele>
        <time>2022-05-31T10:10:19.580Z</time>
      </trkpt>
      <trkpt lat="42.4869" lon="18.65599">
        <ele>45.096193</ele>
        <time>2022-05-31T10:10:21.548Z</time>
      </trkpt>
      <trkpt lat="42.48689" lon="18.65612">
        <ele>44.972172</ele>
        <time>2022-05-31T10:10:23.538Z</time>
      </trkpt>
      <trkpt lat="42.48688" lon="18.65625">
        <ele>44.848654</ele>
        <time>2022-05-31T10:10:25.565Z</time>
      </trkpt>
      <trkpt lat="42.48687" lon="18.65638">
        <ele>44.726469</ele>
        <time>2022-05-31T10:10:27.551Z</time>
      </trkpt>
      <trkpt lat="42.48687" lon="18.6565">
        <ele>44.606511</ele>
        <time>2022-05-31T10:10:29.553Z</time>
      </trkpt>
      <trkpt lat="42.48687" lon="18.65663">
        <ele>44.49218</ele>
        <time>2022-05-31T10:10:31.566Z</time>
      </trkpt>
      <trkpt lat="42.48688" lon="18.65681">
        <ele>44.340583</ele>
        <time>2022-05-31T10:10:34.557Z</time>
      </trkpt>
      <trkpt lat="42.4869" lon="18.65698">
        <ele>44.194197</ele>
        <time>2022-05-31T10:10:37.555Z</time>
      </trkpt>
      <trkpt lat="42.48692" lon="18.6571">
        <ele>44.089272</ele>
        <time>2022-05-31T10:10:39.548Z</time>
      </trkpt>
      <trkpt lat="42.48694" lon="18.65722">
        <ele>43.983294</ele>
        <time>2022-05-31T10:10:41.548Z</time>
      </trkpt>
      <trkpt lat="42.48697" lon="18.65734">
        <ele>43.873636</ele>
        <time>2022-05-31T10:10:43.555Z</time>
      </trkpt>
      <trkpt lat="42.48699" lon="18.65748">
        <ele>43.753642</ele>
        <time>2022-05-31T10:10:45.545Z</time>
      </trkpt>
      <trkpt lat="42.48702" lon="18.65762">
        <ele>43.632296</ele>
        <time>2022-05-31T10:10:47.531Z</time>
      </trkpt>
      <trkpt lat="42.48705" lon="18.65776">
        <ele>43.512843</ele>
        <time>2022-05-31T10:10:49.541Z</time>
      </trkpt>
      <trkpt lat="42.48707" lon="18.6579">
        <ele>43.38432</ele>
        <time>2022-05-31T10:10:51.544Z</time>
      </trkpt>
      <trkpt lat="42.48708" lon="18.65803">
        <ele>43.274616</ele>
        <time>2022-05-31T10:10:53.588Z</time>
      </trkpt>
      <trkpt lat="42.48707" lon="18.65817">
        <ele>43.155855</ele>
        <time>2022-05-31T10:10:55.569Z</time>
      </trkpt>
      <trkpt lat="42.48706" lon="18.65831">
        <ele>43.042908</ele>
        <time>2022-05-31T10:10:57.556Z</time>
      </trkpt>
      <trkpt lat="42.48704" lon="18.65843">
        <ele>42.934663</ele>
        <time>2022-05-31T10:10:59.540Z</time>
      </trkpt>
      <trkpt lat="42.48701" lon="18.6586">
        <ele>42.783838</ele>
        <time>2022-05-31T10:11:02.556Z</time>
      </trkpt>
      <trkpt lat="42.48697" lon="18.65875">
        <ele>42.64816</ele>
        <time>2022-05-31T10:11:05.568Z</time>
      </trkpt>
      <trkpt lat="42.48692" lon="18.65893">
        <ele>42.492518</ele>
        <time>2022-05-31T10:11:08.549Z</time>
      </trkpt>
      <trkpt lat="42.48689" lon="18.65905">
        <ele>42.619355</ele>
        <time>2022-05-31T10:11:10.552Z</time>
      </trkpt>
      <trkpt lat="42.48686" lon="18.65918">
        <ele>42.786924</ele>
        <time>2022-05-31T10:11:12.591Z</time>
      </trkpt>
      <trkpt lat="42.48684" lon="18.65931">
        <ele>42.95676</ele>
        <time>2022-05-31T10:11:14.579Z</time>
      </trkpt>
      <trkpt lat="42.48682" lon="18.65943">
        <ele>43.121175</ele>
        <time>2022-05-31T10:11:16.538Z</time>
      </trkpt>
      <trkpt lat="42.48681" lon="18.65956">
        <ele>43.284081</ele>
        <time>2022-05-31T10:11:18.545Z</time>
      </trkpt>
      <trkpt lat="42.48681" lon="18.6597">
        <ele>43.456142</ele>
        <time>2022-05-31T10:11:20.546Z</time>
      </trkpt>
      <trkpt lat="42.48683" lon="18.65983">
        <ele>43.626782</ele>
        <time>2022-05-31T10:11:22.548Z</time>
      </trkpt>
      <trkpt lat="42.48686" lon="18.65996">
        <ele>43.800721</ele>
        <time>2022-05-31T10:11:24.553Z</time>
      </trkpt>
      <trkpt lat="42.4869" lon="18.66009">
        <ele>43.974822</ele>
        <time>2022-05-31T10:11:26.521Z</time>
      </trkpt>
      <trkpt lat="42.48694" lon="18.66022">
        <ele>44.150562</ele>
        <time>2022-05-31T10:11:28.548Z</time>
      </trkpt>
      <trkpt lat="42.48697" lon="18.66035">
        <ele>44.328476</ele>
        <time>2022-05-31T10:11:30.536Z</time>
      </trkpt>
      <trkpt lat="42.48702" lon="18.66049">
        <ele>44.522024</ele>
        <time>2022-05-31T10:11:32.539Z</time>
      </trkpt>
      <trkpt lat="42.48706" lon="18.66062">
        <ele>44.69913</ele>
        <time>2022-05-31T10:11:34.547Z</time>
      </trkpt>
      <trkpt lat="42.4871" lon="18.66075">
        <ele>44.873561</ele>
        <time>2022-05-31T10:11:36.570Z</time>
      </trkpt>
      <trkpt lat="42.48714" lon="18.66088">
        <ele>45.050978</ele>
        <time>2022-05-31T10:11:38.538Z</time>
      </trkpt>
      <trkpt lat="42.48717" lon="18.66101">
        <ele>45.229035</ele>
        <time>2022-05-31T10:11:40.536Z</time>
      </trkpt>
      <trkpt lat="42.48719" lon="18.66115">
        <ele>45.412767</ele>
        <time>2022-05-31T10:11:42.560Z</time>
      </trkpt>
      <trkpt lat="42.48721" lon="18.66129">
        <ele>45.558097</ele>
        <time>2022-05-31T10:11:44.544Z</time>
      </trkpt>
      <trkpt lat="42.48722" lon="18.66143">
        <ele>45.544521</ele>
        <time>2022-05-31T10:11:46.540Z</time>
      </trkpt>
      <trkpt lat="42.48722" lon="18.66157">
        <ele>45.530296</ele>
        <time>2022-05-31T10:11:48.556Z</time>
      </trkpt>
      <trkpt lat="42.48722" lon="18.66172">
        <ele>45.516042</ele>
        <time>2022-05-31T10:11:50.542Z</time>
      </trkpt>
      <trkpt lat="42.4872" lon="18.66187">
        <ele>45.501472</ele>
        <time>2022-05-31T10:11:52.537Z</time>
      </trkpt>
      <trkpt lat="42.48718" lon="18.66202">
        <ele>45.48693</ele>
        <time>2022-05-31T10:11:54.555Z</time>
      </trkpt>
      <trkpt lat="42.48715" lon="18.66216">
        <ele>45.473086</ele>
        <time>2022-05-31T10:11:56.580Z</time>
      </trkpt>
      <trkpt lat="42.48712" lon="18.66229">
        <ele>45.45919</ele>
        <time>2022-05-31T10:11:58.559Z</time>
      </trkpt>
      <trkpt lat="42.48708" lon="18.66243">
        <ele>45.445568</ele>
        <time>2022-05-31T10:12:00.542Z</time>
      </trkpt>
      <trkpt lat="42.48704" lon="18.66256">
        <ele>45.431177</ele>
        <time>2022-05-31T10:12:02.546Z</time>
      </trkpt>
      <trkpt lat="42.487" lon="18.66271">
        <ele>45.416462</ele>
        <time>2022-05-31T10:12:04.544Z</time>
      </trkpt>
      <trkpt lat="42.48696" lon="18.66284">
        <ele>45.402105</ele>
        <time>2022-05-31T10:12:06.560Z</time>
      </trkpt>
      <trkpt lat="42.48692" lon="18.66298">
        <ele>45.387666</ele>
        <time>2022-05-31T10:12:08.562Z</time>
      </trkpt>
      <trkpt lat="42.48689" lon="18.66313">
        <ele>45.373127</ele>
        <time>2022-05-31T10:12:10.535Z</time>
      </trkpt>
      <trkpt lat="42.48686" lon="18.66328">
        <ele>45.358216</ele>
        <time>2022-05-31T10:12:12.557Z</time>
      </trkpt>
      <trkpt lat="42.48684" lon="18.66342">
        <ele>45.344202</ele>
        <time>2022-05-31T10:12:14.522Z</time>
      </trkpt>
      <trkpt lat="42.48683" lon="18.66357">
        <ele>45.32917</ele>
        <time>2022-05-31T10:12:16.543Z</time>
      </trkpt>
      <trkpt lat="42.48681" lon="18.66373">
        <ele>45.181779</ele>
        <time>2022-05-31T10:12:18.587Z</time>
      </trkpt>
      <trkpt lat="42.48679" lon="18.66389">
        <ele>44.978108</ele>
        <time>2022-05-31T10:12:20.534Z</time>
      </trkpt>
      <trkpt lat="42.48677" lon="18.66406">
        <ele>44.759053</ele>
        <time>2022-05-31T10:12:22.541Z</time>
      </trkpt>
      <trkpt lat="42.48673" lon="18.66423">
        <ele>44.540831</ele>
        <time>2022-05-31T10:12:24.542Z</time>
      </trkpt>
      <trkpt lat="42.48669" lon="18.66438">
        <ele>44.33064</ele>
        <time>2022-05-31T10:12:26.529Z</time>
      </trkpt>
      <trkpt lat="42.48664" lon="18.66453">
        <ele>44.119802</ele>
        <time>2022-05-31T10:12:28.549Z</time>
      </trkpt>
      <trkpt lat="42.48658" lon="18.66467">
        <ele>43.910364</ele>
        <time>2022-05-31T10:12:30.542Z</time>
      </trkpt>
      <trkpt lat="42.48653" lon="18.66481">
        <ele>43.712376</ele>
        <time>2022-05-31T10:12:32.523Z</time>
      </trkpt>
      <trkpt lat="42.48647" lon="18.66495">
        <ele>43.507657</ele>
        <time>2022-05-31T10:12:34.555Z</time>
      </trkpt>
      <trkpt lat="42.48641" lon="18.66509">
        <ele>43.30405</ele>
        <time>2022-05-31T10:12:36.554Z</time>
      </trkpt>
      <trkpt lat="42.48636" lon="18.66523">
        <ele>43.103586</ele>
        <time>2022-05-31T10:12:38.525Z</time>
      </trkpt>
      <trkpt lat="42.48632" lon="18.66537">
        <ele>42.907743</ele>
        <time>2022-05-31T10:12:40.572Z</time>
      </trkpt>
      <trkpt lat="42.4863" lon="18.66552">
        <ele>42.72003</ele>
        <time>2022-05-31T10:12:42.552Z</time>
      </trkpt>
      <trkpt lat="42.48629" lon="18.66567">
        <ele>42.529453</ele>
        <time>2022-05-31T10:12:44.529Z</time>
      </trkpt>
      <trkpt lat="42.4863" lon="18.66582">
        <ele>42.338978</ele>
        <time>2022-05-31T10:12:46.582Z</time>
      </trkpt>
      <trkpt lat="42.48632" lon="18.66596">
        <ele>42.279749</ele>
        <time>2022-05-31T10:12:48.542Z</time>
      </trkpt>
      <trkpt lat="42.48635" lon="18.66609">
        <ele>42.506911</ele>
        <time>2022-05-31T10:12:50.552Z</time>
      </trkpt>
      <trkpt lat="42.48638" lon="18.66624">
        <ele>42.744256</ele>
        <time>2022-05-31T10:12:52.538Z</time>
      </trkpt>
      <trkpt lat="42.48639" lon="18.66639">
        <ele>42.994716</ele>
        <time>2022-05-31T10:12:54.548Z</time>
      </trkpt>
      <trkpt lat="42.48639" lon="18.66655">
        <ele>43.241786</ele>
        <time>2022-05-31T10:12:56.544Z</time>
      </trkpt>
      <trkpt lat="42.48639" lon="18.66671">
        <ele>43.493832</ele>
        <time>2022-05-31T10:12:58.531Z</time>
      </trkpt>
      <trkpt lat="42.48638" lon="18.66686">
        <ele>43.73387</ele>
        <time>2022-05-31T10:13:00.537Z</time>
      </trkpt>
      <trkpt lat="42.48636" lon="18.66699">
        <ele>43.958428</ele>
        <time>2022-05-31T10:13:02.536Z</time>
      </trkpt>
      <trkpt lat="42.48634" lon="18.66712">
        <ele>44.163397</ele>
        <time>2022-05-31T10:13:04.552Z</time>
      </trkpt>
      <trkpt lat="42.48632" lon="18.66724">
        <ele>44.367717</ele>
        <time>2022-05-31T10:13:06.553Z</time>
      </trkpt>
      <trkpt lat="42.48629" lon="18.66738">
        <ele>44.58723</ele>
        <time>2022-05-31T10:13:08.528Z</time>
      </trkpt>
      <trkpt lat="42.48625" lon="18.66751">
        <ele>44.810803</ele>
        <time>2022-05-31T10:13:10.524Z</time>
      </trkpt>
      <trkpt lat="42.48621" lon="18.66763">
        <ele>45.030632</ele>
        <time>2022-05-31T10:13:12.544Z</time>
      </trkpt>
      <trkpt lat="42.48616" lon="18.66775">
        <ele>45.237741</ele>
        <time>2022-05-31T10:13:14.547Z</time>
      </trkpt>
      <trkpt lat="42.48611" lon="18.66786">
        <ele>45.453684</ele>
        <time>2022-05-31T10:13:16.540Z</time>
      </trkpt>
      <trkpt lat="42.48605" lon="18.66797">
        <ele>45.670668</ele>
        <time>2022-05-31T10:13:18.558Z</time>
      </trkpt>
      <trkpt lat="42.48599" lon="18.66808">
        <ele>45.883704</ele>
        <time>2022-05-31T10:13:20.534Z</time>
      </trkpt>
      <trkpt lat="42.48593" lon="18.66818">
        <ele>46.094246</ele>
        <time>2022-05-31T10:13:22.546Z</time>
      </trkpt>
      <trkpt lat="42.48587" lon="18.66828">
        <ele>46.017336</ele>
        <time>2022-05-31T10:13:24.550Z</time>
      </trkpt>
      <trkpt lat="42.48581" lon="18.66837">
        <ele>45.936267</ele>
        <time>2022-05-31T10:13:26.589Z</time>
      </trkpt>
      <trkpt lat="42.48575" lon="18.66847">
        <ele>45.849379</ele>
        <time>2022-05-31T10:13:28.542Z</time>
      </trkpt>
      <trkpt lat="42.48569" lon="18.66857">
        <ele>45.767851</ele>
        <time>2022-05-31T10:13:30.527Z</time>
      </trkpt>
      <trkpt lat="42.48563" lon="18.66867">
        <ele>45.685764</ele>
        <time>2022-05-31T10:13:32.528Z</time>
      </trkpt>
      <trkpt lat="42.48556" lon="18.66881">
        <ele>45.57252</ele>
        <time>2022-05-31T10:13:35.525Z</time>
      </trkpt>
      <trkpt lat="42.48549" lon="18.66896">
        <ele>45.452106</ele>
        <time>2022-05-31T10:13:38.539Z</time>
      </trkpt>
      <trkpt lat="42.48544" lon="18.66908">
        <ele>45.368267</ele>
        <time>2022-05-31T10:13:40.539Z</time>
      </trkpt>
      <trkpt lat="42.4854" lon="18.66919">
        <ele>45.286844</ele>
        <time>2022-05-31T10:13:42.551Z</time>
      </trkpt>
      <trkpt lat="42.48536" lon="18.6693">
        <ele>45.204007</ele>
        <time>2022-05-31T10:13:44.536Z</time>
      </trkpt>
      <trkpt lat="42.48532" lon="18.66941">
        <ele>45.123167</ele>
        <time>2022-05-31T10:13:46.552Z</time>
      </trkpt>
      <trkpt lat="42.48526" lon="18.66957">
        <ele>45.003811</ele>
        <time>2022-05-31T10:13:49.573Z</time>
      </trkpt>
      <trkpt lat="42.48522" lon="18.66968">
        <ele>44.922395</ele>
        <time>2022-05-31T10:13:51.543Z</time>
      </trkpt>
      <trkpt lat="42.48518" lon="18.6698">
        <ele>44.839192</ele>
        <time>2022-05-31T10:13:53.533Z</time>
      </trkpt>
      <trkpt lat="42.48514" lon="18.66991">
        <ele>44.757768</ele>
        <time>2022-05-31T10:13:55.537Z</time>
      </trkpt>
      <trkpt lat="42.48509" lon="18.67001">
        <ele>44.67737</ele>
        <time>2022-05-31T10:13:57.550Z</time>
      </trkpt>
      <trkpt lat="42.48505" lon="18.67012">
        <ele>44.594683</ele>
        <time>2022-05-31T10:13:59.534Z</time>
      </trkpt>
      <trkpt lat="42.485" lon="18.67024">
        <ele>44.507495</ele>
        <time>2022-05-31T10:14:01.563Z</time>
      </trkpt>
      <trkpt lat="42.48494" lon="18.67036">
        <ele>44.323918</ele>
        <time>2022-05-31T10:14:03.541Z</time>
      </trkpt>
      <trkpt lat="42.48489" lon="18.67047">
        <ele>44.130636</ele>
        <time>2022-05-31T10:14:05.536Z</time>
      </trkpt>
      <trkpt lat="42.48484" lon="18.67059">
        <ele>43.945852</ele>
        <time>2022-05-31T10:14:07.552Z</time>
      </trkpt>
      <trkpt lat="42.4848" lon="18.67071">
        <ele>43.761417</ele>
        <time>2022-05-31T10:14:09.543Z</time>
      </trkpt>
      <trkpt lat="42.48476" lon="18.67082">
        <ele>43.584144</ele>
        <time>2022-05-31T10:14:11.560Z</time>
      </trkpt>
      <trkpt lat="42.48472" lon="18.67094">
        <ele>43.39414</ele>
        <time>2022-05-31T10:14:13.579Z</time>
      </trkpt>
      <trkpt lat="42.48468" lon="18.67106">
        <ele>43.219018</ele>
        <time>2022-05-31T10:14:15.554Z</time>
      </trkpt>
      <trkpt lat="42.48465" lon="18.67118">
        <ele>43.035432</ele>
        <time>2022-05-31T10:14:17.578Z</time>
      </trkpt>
      <trkpt lat="42.48462" lon="18.67131">
        <ele>42.842515</ele>
        <time>2022-05-31T10:14:19.556Z</time>
      </trkpt>
      <trkpt lat="42.48459" lon="18.67144">
        <ele>42.645586</ele>
        <time>2022-05-31T10:14:21.545Z</time>
      </trkpt>
      <trkpt lat="42.48456" lon="18.67156">
        <ele>42.471979</ele>
        <time>2022-05-31T10:14:23.537Z</time>
      </trkpt>
      <trkpt lat="42.48455" lon="18.67169">
        <ele>42.291222</ele>
        <time>2022-05-31T10:14:25.556Z</time>
      </trkpt>
      <trkpt lat="42.48453" lon="18.67183">
        <ele>42.092888</ele>
        <time>2022-05-31T10:14:27.563Z</time>
      </trkpt>
      <trkpt lat="42.48452" lon="18.67197">
        <ele>41.896535</ele>
        <time>2022-05-31T10:14:29.532Z</time>
      </trkpt>
      <trkpt lat="42.48451" lon="18.67209">
        <ele>41.715711</ele>
        <time>2022-05-31T10:14:31.556Z</time>
      </trkpt>
      <trkpt lat="42.4845" lon="18.67223">
        <ele>41.524904</ele>
        <time>2022-05-31T10:14:33.558Z</time>
      </trkpt>
      <trkpt lat="42.48449" lon="18.67237">
        <ele>41.327087</ele>
        <time>2022-05-31T10:14:35.566Z</time>
      </trkpt>
      <trkpt lat="42.48448" lon="18.6725">
        <ele>41.137974</ele>
        <time>2022-05-31T10:14:37.585Z</time>
      </trkpt>
      <trkpt lat="42.48447" lon="18.67263">
        <ele>41.231554</ele>
        <time>2022-05-31T10:14:39.533Z</time>
      </trkpt>
      <trkpt lat="42.48446" lon="18.67276">
        <ele>41.507221</ele>
        <time>2022-05-31T10:14:41.551Z</time>
      </trkpt>
      <trkpt lat="42.48446" lon="18.67289">
        <ele>41.790592</ele>
        <time>2022-05-31T10:14:43.549Z</time>
      </trkpt>
      <trkpt lat="42.48445" lon="18.67303">
        <ele>42.078407</ele>
        <time>2022-05-31T10:14:45.541Z</time>
      </trkpt>
      <trkpt lat="42.48444" lon="18.67316">
        <ele>42.363206</ele>
        <time>2022-05-31T10:14:47.547Z</time>
      </trkpt>
      <trkpt lat="42.48443" lon="18.67329">
        <ele>42.638095</ele>
        <time>2022-05-31T10:14:49.545Z</time>
      </trkpt>
      <trkpt lat="42.48441" lon="18.67341">
        <ele>42.900683</ele>
        <time>2022-05-31T10:14:51.552Z</time>
      </trkpt>
      <trkpt lat="42.48438" lon="18.67357">
        <ele>43.263653</ele>
        <time>2022-05-31T10:14:54.555Z</time>
      </trkpt>
      <trkpt lat="42.48435" lon="18.67372">
        <ele>43.600955</ele>
        <time>2022-05-31T10:14:57.542Z</time>
      </trkpt>
      <trkpt lat="42.48431" lon="18.67386">
        <ele>43.90775</ele>
        <time>2022-05-31T10:15:00.534Z</time>
      </trkpt>
      <trkpt lat="42.48427" lon="18.67399">
        <ele>44.203575</ele>
        <time>2022-05-31T10:15:03.539Z</time>
      </trkpt>
      <trkpt lat="42.48422" lon="18.67412">
        <ele>44.519108</ele>
        <time>2022-05-31T10:15:06.549Z</time>
      </trkpt>
      <trkpt lat="42.48417" lon="18.67424">
        <ele>44.830101</ele>
        <time>2022-05-31T10:15:09.557Z</time>
      </trkpt>
      <trkpt lat="42.48411" lon="18.67435">
        <ele>45.118587</ele>
        <time>2022-05-31T10:15:12.551Z</time>
      </trkpt>
      <trkpt lat="42.48406" lon="18.67446">
        <ele>45.398713</ele>
        <time>2022-05-31T10:15:15.553Z</time>
      </trkpt>
      <trkpt lat="42.484" lon="18.67457">
        <ele>45.69555</ele>
        <time>2022-05-31T10:15:18.542Z</time>
      </trkpt>
      <trkpt lat="42.48394" lon="18.67469">
        <ele>45.985658</ele>
        <time>2022-05-31T10:15:21.549Z</time>
      </trkpt>
      <trkpt lat="42.48389" lon="18.67478">
        <ele>46.251727</ele>
        <time>2022-05-31T10:15:24.553Z</time>
      </trkpt>
      <trkpt lat="42.48383" lon="18.67488">
        <ele>46.03386</ele>
        <time>2022-05-31T10:15:27.545Z</time>
      </trkpt>
      <trkpt lat="42.48378" lon="18.67499">
        <ele>45.732342</ele>
        <time>2022-05-31T10:15:30.543Z</time>
      </trkpt>
      <trkpt lat="42.48372" lon="18.6751">
        <ele>45.40879</ele>
        <time>2022-05-31T10:15:33.530Z</time>
      </trkpt>
      <trkpt lat="42.48367" lon="18.67521">
        <ele>45.110998</ele>
        <time>2022-05-31T10:15:36.554Z</time>
      </trkpt>
      <trkpt lat="42.48361" lon="18.67531">
        <ele>44.796133</ele>
        <time>2022-05-31T10:15:39.557Z</time>
      </trkpt>
      <trkpt lat="42.48355" lon="18.67543">
        <ele>44.469562</ele>
        <time>2022-05-31T10:15:42.551Z</time>
      </trkpt>
      <trkpt lat="42.4835" lon="18.67554">
        <ele>44.155757</ele>
        <time>2022-05-31T10:15:45.574Z</time>
      </trkpt>
      <trkpt lat="42.48345" lon="18.67565">
        <ele>43.837178</ele>
        <time>2022-05-31T10:15:48.572Z</time>
      </trkpt>
      <trkpt lat="42.4834" lon="18.67579">
        <ele>43.469409</ele>
        <time>2022-05-31T10:15:51.557Z</time>
      </trkpt>
      <trkpt lat="42.48334" lon="18.67593">
        <ele>43.082956</ele>
        <time>2022-05-31T10:15:54.542Z</time>
      </trkpt>
      <trkpt lat="42.4833" lon="18.67606">
        <ele>42.760204</ele>
        <time>2022-05-31T10:15:57.546Z</time>
      </trkpt>
      <trkpt lat="42.48325" lon="18.67618">
        <ele>42.435317</ele>
        <time>2022-05-31T10:16:00.530Z</time>
      </trkpt>
      <trkpt lat="42.48321" lon="18.6763">
        <ele>42.118225</ele>
        <time>2022-05-31T10:16:03.532Z</time>
      </trkpt>
      <trkpt lat="42.48317" lon="18.67642">
        <ele>41.802945</ele>
        <time>2022-05-31T10:16:06.548Z</time>
      </trkpt>
      <trkpt lat="42.48313" lon="18.67656">
        <ele>41.454746</ele>
        <time>2022-05-31T10:16:09.542Z</time>
      </trkpt>
      <trkpt lat="42.48309" lon="18.67669">
        <ele>41.113172</ele>
        <time>2022-05-31T10:16:12.538Z</time>
      </trkpt>
      <trkpt lat="42.48305" lon="18.67683">
        <ele>40.746708</ele>
        <time>2022-05-31T10:16:15.556Z</time>
      </trkpt>
      <trkpt lat="42.48299" lon="18.677">
        <ele>40.31129</ele>
        <time>2022-05-31T10:16:18.545Z</time>
      </trkpt>
      <trkpt lat="42.48294" lon="18.67713">
        <ele>39.93364</ele>
        <time>2022-05-31T10:16:21.539Z</time>
      </trkpt>
      <trkpt lat="42.48289" lon="18.67728">
        <ele>39.510127</ele>
        <time>2022-05-31T10:16:24.534Z</time>
      </trkpt>
      <trkpt lat="42.48283" lon="18.67744">
        <ele>39.058444</ele>
        <time>2022-05-31T10:16:27.587Z</time>
      </trkpt>
      <trkpt lat="42.48278" lon="18.67755">
        <ele>38.733123</ele>
        <time>2022-05-31T10:16:29.560Z</time>
      </trkpt>
      <trkpt lat="42.48273" lon="18.67766">
        <ele>38.416793</ele>
        <time>2022-05-31T10:16:31.567Z</time>
      </trkpt>
      <trkpt lat="42.48267" lon="18.67779">
        <ele>38.03422</ele>
        <time>2022-05-31T10:16:33.534Z</time>
      </trkpt>
      <trkpt lat="42.48261" lon="18.6779">
        <ele>37.705898</ele>
        <time>2022-05-31T10:16:35.546Z</time>
      </trkpt>
      <trkpt lat="42.48257" lon="18.67801">
        <ele>37.378416</ele>
        <time>2022-05-31T10:16:37.571Z</time>
      </trkpt>
      <trkpt lat="42.48249" lon="18.67816">
        <ele>36.922268</ele>
        <time>2022-05-31T10:16:40.537Z</time>
      </trkpt>
      <trkpt lat="42.48242" lon="18.67831">
        <ele>36.482479</ele>
        <time>2022-05-31T10:16:43.588Z</time>
      </trkpt>
      <trkpt lat="42.48234" lon="18.67845">
        <ele>36.031145</ele>
        <time>2022-05-31T10:16:46.541Z</time>
      </trkpt>
      <trkpt lat="42.48229" lon="18.67855">
        <ele>35.723146</ele>
        <time>2022-05-31T10:16:48.554Z</time>
      </trkpt>
      <trkpt lat="42.48222" lon="18.6787">
        <ele>35.277038</ele>
        <time>2022-05-31T10:16:51.549Z</time>
      </trkpt>
      <trkpt lat="42.48215" lon="18.67883">
        <ele>34.872125</ele>
        <time>2022-05-31T10:16:54.575Z</time>
      </trkpt>
      <trkpt lat="42.48209" lon="18.67897">
        <ele>34.482192</ele>
        <time>2022-05-31T10:16:57.561Z</time>
      </trkpt>
      <trkpt lat="42.48204" lon="18.67908">
        <ele>34.467799</ele>
        <time>2022-05-31T10:17:00.561Z</time>
      </trkpt>
      <trkpt lat="42.48197" lon="18.67921">
        <ele>34.632673</ele>
        <time>2022-05-31T10:17:03.542Z</time>
      </trkpt>
      <trkpt lat="42.4819" lon="18.67935">
        <ele>34.809851</ele>
        <time>2022-05-31T10:17:06.541Z</time>
      </trkpt>
      <trkpt lat="42.48182" lon="18.6795">
        <ele>34.991891</ele>
        <time>2022-05-31T10:17:09.540Z</time>
      </trkpt>
      <trkpt lat="42.48176" lon="18.67964">
        <ele>35.154721</ele>
        <time>2022-05-31T10:17:12.538Z</time>
      </trkpt>
      <trkpt lat="42.4817" lon="18.67977">
        <ele>35.315518</ele>
        <time>2022-05-31T10:17:15.559Z</time>
      </trkpt>
      <trkpt lat="42.48164" lon="18.67989">
        <ele>35.469016</ele>
        <time>2022-05-31T10:17:18.556Z</time>
      </trkpt>
      <trkpt lat="42.48158" lon="18.68003">
        <ele>35.62322</ele>
        <time>2022-05-31T10:17:21.536Z</time>
      </trkpt>
      <trkpt lat="42.48152" lon="18.68016">
        <ele>35.785192</ele>
        <time>2022-05-31T10:17:24.549Z</time>
      </trkpt>
      <trkpt lat="42.48146" lon="18.6803">
        <ele>35.949385</ele>
        <time>2022-05-31T10:17:27.550Z</time>
      </trkpt>
      <trkpt lat="42.48141" lon="18.68043">
        <ele>36.104494</ele>
        <time>2022-05-31T10:17:30.535Z</time>
      </trkpt>
      <trkpt lat="42.48135" lon="18.68058">
        <ele>36.267783</ele>
        <time>2022-05-31T10:17:33.562Z</time>
      </trkpt>
      <trkpt lat="42.4813" lon="18.68072">
        <ele>36.428195</ele>
        <time>2022-05-31T10:17:36.548Z</time>
      </trkpt>
      <trkpt lat="42.48125" lon="18.68085">
        <ele>36.578582</ele>
        <time>2022-05-31T10:17:39.544Z</time>
      </trkpt>
      <trkpt lat="42.4812" lon="18.68098">
        <ele>36.733387</ele>
        <time>2022-05-31T10:17:42.551Z</time>
      </trkpt>
      <trkpt lat="42.48114" lon="18.68113">
        <ele>36.899645</ele>
        <time>2022-05-31T10:17:45.565Z</time>
      </trkpt>
      <trkpt lat="42.48109" lon="18.68128">
        <ele>37.080313</ele>
        <time>2022-05-31T10:17:48.578Z</time>
      </trkpt>
      <trkpt lat="42.48104" lon="18.68145">
        <ele>37.267871</ele>
        <time>2022-05-31T10:17:51.569Z</time>
      </trkpt>
      <trkpt lat="42.48099" lon="18.68156">
        <ele>37.402244</ele>
        <time>2022-05-31T10:17:53.569Z</time>
      </trkpt>
      <trkpt lat="42.48092" lon="18.68172">
        <ele>37.593855</ele>
        <time>2022-05-31T10:17:56.542Z</time>
      </trkpt>
      <trkpt lat="42.48086" lon="18.68188">
        <ele>37.785725</ele>
        <time>2022-05-31T10:17:59.568Z</time>
      </trkpt>
      <trkpt lat="42.4808" lon="18.68204">
        <ele>37.973664</ele>
        <time>2022-05-31T10:18:02.540Z</time>
      </trkpt>
      <trkpt lat="42.48074" lon="18.68219">
        <ele>38.151544</ele>
        <time>2022-05-31T10:18:05.556Z</time>
      </trkpt>
      <trkpt lat="42.48069" lon="18.68236">
        <ele>38.3403</ele>
        <time>2022-05-31T10:18:08.547Z</time>
      </trkpt>
      <trkpt lat="42.48063" lon="18.6825">
        <ele>38.513393</ele>
        <time>2022-05-31T10:18:11.551Z</time>
      </trkpt>
      <trkpt lat="42.48058" lon="18.68266">
        <ele>38.691943</ele>
        <time>2022-05-31T10:18:14.551Z</time>
      </trkpt>
      <trkpt lat="42.48052" lon="18.68282">
        <ele>38.87381</ele>
        <time>2022-05-31T10:18:17.544Z</time>
      </trkpt>
      <trkpt lat="42.48047" lon="18.68296">
        <ele>39.043894</ele>
        <time>2022-05-31T10:18:20.538Z</time>
      </trkpt>
      <trkpt lat="42.48041" lon="18.6831">
        <ele>39.214658</ele>
        <time>2022-05-31T10:18:23.563Z</time>
      </trkpt>
      <trkpt lat="42.48035" lon="18.68324">
        <ele>39.388054</ele>
        <time>2022-05-31T10:18:26.543Z</time>
      </trkpt>
      <trkpt lat="42.48029" lon="18.68338">
        <ele>39.415248</ele>
        <time>2022-05-31T10:18:29.558Z</time>
      </trkpt>
      <trkpt lat="42.48023" lon="18.68353">
        <ele>39.42155</ele>
        <time>2022-05-31T10:18:32.564Z</time>
      </trkpt>
      <trkpt lat="42.48017" lon="18.68368">
        <ele>39.428121</ele>
        <time>2022-05-31T10:18:35.528Z</time>
      </trkpt>
      <trkpt lat="42.4801" lon="18.68384">
        <ele>39.434732</ele>
        <time>2022-05-31T10:18:38.551Z</time>
      </trkpt>
      <trkpt lat="42.48004" lon="18.68399">
        <ele>39.441524</ele>
        <time>2022-05-31T10:18:41.530Z</time>
      </trkpt>
      <trkpt lat="42.47997" lon="18.68415">
        <ele>39.448418</ele>
        <time>2022-05-31T10:18:44.560Z</time>
      </trkpt>
      <trkpt lat="42.47993" lon="18.68426">
        <ele>39.453135</ele>
        <time>2022-05-31T10:18:46.557Z</time>
      </trkpt>
      <trkpt lat="42.47988" lon="18.68437">
        <ele>39.45779</ele>
        <time>2022-05-31T10:18:48.546Z</time>
      </trkpt>
      <trkpt lat="42.47983" lon="18.68448">
        <ele>39.462564</ele>
        <time>2022-05-31T10:18:50.546Z</time>
      </trkpt>
      <trkpt lat="42.47977" lon="18.68463">
        <ele>39.469225</ele>
        <time>2022-05-31T10:18:53.554Z</time>
      </trkpt>
      <trkpt lat="42.47972" lon="18.68474">
        <ele>39.47413</ele>
        <time>2022-05-31T10:18:55.591Z</time>
      </trkpt>
      <trkpt lat="42.47966" lon="18.68486">
        <ele>39.479239</ele>
        <time>2022-05-31T10:18:57.540Z</time>
      </trkpt>
      <trkpt lat="42.47959" lon="18.68501">
        <ele>39.4861</ele>
        <time>2022-05-31T10:19:00.543Z</time>
      </trkpt>
      <trkpt lat="42.47954" lon="18.68511">
        <ele>39.490662</ele>
        <time>2022-05-31T10:19:02.537Z</time>
      </trkpt>
      <trkpt lat="42.47948" lon="18.68521">
        <ele>39.495347</ele>
        <time>2022-05-31T10:19:04.549Z</time>
      </trkpt>
      <trkpt lat="42.47943" lon="18.68531">
        <ele>39.5</ele>
        <time>2022-05-31T10:19:06.590Z</time>
      </trkpt>
      <trkpt lat="42.47938" lon="18.68542">
        <ele>39.851856</ele>
        <time>2022-05-31T10:19:08.540Z</time>
      </trkpt>
      <trkpt lat="42.47932" lon="18.68553">
        <ele>40.391186</ele>
        <time>2022-05-31T10:19:10.534Z</time>
      </trkpt>
      <trkpt lat="42.47926" lon="18.68563">
        <ele>40.904372</ele>
        <time>2022-05-31T10:19:12.549Z</time>
      </trkpt>
      <trkpt lat="42.47921" lon="18.68573">
        <ele>41.40519</ele>
        <time>2022-05-31T10:19:14.540Z</time>
      </trkpt>
      <trkpt lat="42.47914" lon="18.68588">
        <ele>42.109469</ele>
        <time>2022-05-31T10:19:17.578Z</time>
      </trkpt>
      <trkpt lat="42.47907" lon="18.68602">
        <ele>42.819424</ele>
        <time>2022-05-31T10:19:20.533Z</time>
      </trkpt>
      <trkpt lat="42.47899" lon="18.68615">
        <ele>43.487157</ele>
        <time>2022-05-31T10:19:23.579Z</time>
      </trkpt>
      <trkpt lat="42.4789" lon="18.68624">
        <ele>44.127967</ele>
        <time>2022-05-31T10:19:26.537Z</time>
      </trkpt>
      <trkpt lat="42.4788" lon="18.68631">
        <ele>44.75525</ele>
        <time>2022-05-31T10:19:29.545Z</time>
      </trkpt>
      <trkpt lat="42.47869" lon="18.68633">
        <ele>45.344611</ele>
        <time>2022-05-31T10:19:32.533Z</time>
      </trkpt>
      <trkpt lat="42.47858" lon="18.6863">
        <ele>45.937822</ele>
        <time>2022-05-31T10:19:35.580Z</time>
      </trkpt>
      <trkpt lat="42.4785" lon="18.68623">
        <ele>46.494428</ele>
        <time>2022-05-31T10:19:38.552Z</time>
      </trkpt>
      <trkpt lat="42.47843" lon="18.68612">
        <ele>47.070732</ele>
        <time>2022-05-31T10:19:41.562Z</time>
      </trkpt>
      <trkpt lat="42.47837" lon="18.68599">
        <ele>47.676116</ele>
        <time>2022-05-31T10:19:44.551Z</time>
      </trkpt>
      <trkpt lat="42.47831" lon="18.68587">
        <ele>48.285271</ele>
        <time>2022-05-31T10:19:47.553Z</time>
      </trkpt>
      <trkpt lat="42.47825" lon="18.68575">
        <ele>48.867103</ele>
        <time>2022-05-31T10:19:50.548Z</time>
      </trkpt>
      <trkpt lat="42.47817" lon="18.68565">
        <ele>49.415735</ele>
        <time>2022-05-31T10:19:53.557Z</time>
      </trkpt>
      <trkpt lat="42.47808" lon="18.68557">
        <ele>49.49889</ele>
        <time>2022-05-31T10:19:56.545Z</time>
      </trkpt>
      <trkpt lat="42.47798" lon="18.68548">
        <ele>49.592911</ele>
        <time>2022-05-31T10:19:59.541Z</time>
      </trkpt>
      <trkpt lat="42.47788" lon="18.68537">
        <ele>49.689301</ele>
        <time>2022-05-31T10:20:02.549Z</time>
      </trkpt>
      <trkpt lat="42.47781" lon="18.68524">
        <ele>49.784354</ele>
        <time>2022-05-31T10:20:05.546Z</time>
      </trkpt>
      <trkpt lat="42.47775" lon="18.6851">
        <ele>49.875408</ele>
        <time>2022-05-31T10:20:08.551Z</time>
      </trkpt>
      <trkpt lat="42.4777" lon="18.68495">
        <ele>49.964293</ele>
        <time>2022-05-31T10:20:11.545Z</time>
      </trkpt>
      <trkpt lat="42.47765" lon="18.68483">
        <ele>50.046393</ele>
        <time>2022-05-31T10:20:14.534Z</time>
      </trkpt>
      <trkpt lat="42.47759" lon="18.6847">
        <ele>50.131882</ele>
        <time>2022-05-31T10:20:17.542Z</time>
      </trkpt>
      <trkpt lat="42.47752" lon="18.68458">
        <ele>50.218271</ele>
        <time>2022-05-31T10:20:20.539Z</time>
      </trkpt>
      <trkpt lat="42.47744" lon="18.68446">
        <ele>50.309006</ele>
        <time>2022-05-31T10:20:23.550Z</time>
      </trkpt>
      <trkpt lat="42.47736" lon="18.68435">
        <ele>50.396877</ele>
        <time>2022-05-31T10:20:26.543Z</time>
      </trkpt>
      <trkpt lat="42.47728" lon="18.68423">
        <ele>50.489716</ele>
        <time>2022-05-31T10:20:29.556Z</time>
      </trkpt>
      <trkpt lat="42.47719" lon="18.68413">
        <ele>50.580136</ele>
        <time>2022-05-31T10:20:32.545Z</time>
      </trkpt>
      <trkpt lat="42.4771" lon="18.68403">
        <ele>50.668287</ele>
        <time>2022-05-31T10:20:35.557Z</time>
      </trkpt>
      <trkpt lat="42.47701" lon="18.68395">
        <ele>50.75464</ele>
        <time>2022-05-31T10:20:38.555Z</time>
      </trkpt>
      <trkpt lat="42.4769" lon="18.68389">
        <ele>50.619728</ele>
        <time>2022-05-31T10:20:41.571Z</time>
      </trkpt>
      <trkpt lat="42.47678" lon="18.68385">
        <ele>50.278207</ele>
        <time>2022-05-31T10:20:44.555Z</time>
      </trkpt>
      <trkpt lat="42.47666" lon="18.68385">
        <ele>49.961591</ele>
        <time>2022-05-31T10:20:47.540Z</time>
      </trkpt>
      <trkpt lat="42.47653" lon="18.68389">
        <ele>49.606989</ele>
        <time>2022-05-31T10:20:50.542Z</time>
      </trkpt>
      <trkpt lat="42.47643" lon="18.68391">
        <ele>49.337162</ele>
        <time>2022-05-31T10:20:52.548Z</time>
      </trkpt>
      <trkpt lat="42.47632" lon="18.68392">
        <ele>49.044612</ele>
        <time>2022-05-31T10:20:54.552Z</time>
      </trkpt>
      <trkpt lat="42.47623" lon="18.68388">
        <ele>48.77479</ele>
        <time>2022-05-31T10:20:56.555Z</time>
      </trkpt>
      <trkpt lat="42.47613" lon="18.68382">
        <ele>48.487487</ele>
        <time>2022-05-31T10:20:58.549Z</time>
      </trkpt>
      <trkpt lat="42.47604" lon="18.68373">
        <ele>48.194333</ele>
        <time>2022-05-31T10:21:00.532Z</time>
      </trkpt>
      <trkpt lat="42.47597" lon="18.68364">
        <ele>47.933784</ele>
        <time>2022-05-31T10:21:02.579Z</time>
      </trkpt>
      <trkpt lat="42.47589" lon="18.68353">
        <ele>47.633671</ele>
        <time>2022-05-31T10:21:04.547Z</time>
      </trkpt>
      <trkpt lat="42.47581" lon="18.68344">
        <ele>47.348526</ele>
        <time>2022-05-31T10:21:06.544Z</time>
      </trkpt>
      <trkpt lat="42.47572" lon="18.68337">
        <ele>47.065095</ele>
        <time>2022-05-31T10:21:08.540Z</time>
      </trkpt>
      <trkpt lat="42.47562" lon="18.6833">
        <ele>46.767558</ele>
        <time>2022-05-31T10:21:10.547Z</time>
      </trkpt>
      <trkpt lat="42.47552" lon="18.68324">
        <ele>46.477872</ele>
        <time>2022-05-31T10:21:12.548Z</time>
      </trkpt>
      <trkpt lat="42.47543" lon="18.68316">
        <ele>46.177871</ele>
        <time>2022-05-31T10:21:14.554Z</time>
      </trkpt>
      <trkpt lat="42.47533" lon="18.68309">
        <ele>45.873558</ele>
        <time>2022-05-31T10:21:16.557Z</time>
      </trkpt>
      <trkpt lat="42.47525" lon="18.683">
        <ele>45.538864</ele>
        <time>2022-05-31T10:21:18.556Z</time>
      </trkpt>
      <trkpt lat="42.47516" lon="18.6829">
        <ele>45.191426</ele>
        <time>2022-05-31T10:21:20.534Z</time>
      </trkpt>
      <trkpt lat="42.47507" lon="18.68281">
        <ele>44.832326</ele>
        <time>2022-05-31T10:21:22.544Z</time>
      </trkpt>
      <trkpt lat="42.47499" lon="18.68271">
        <ele>44.484353</ele>
        <time>2022-05-31T10:21:24.548Z</time>
      </trkpt>
      <trkpt lat="42.4749" lon="18.68261">
        <ele>44.128147</ele>
        <time>2022-05-31T10:21:26.558Z</time>
      </trkpt>
      <trkpt lat="42.47481" lon="18.68251">
        <ele>43.755383</ele>
        <time>2022-05-31T10:21:28.558Z</time>
      </trkpt>
      <trkpt lat="42.47473" lon="18.68241">
        <ele>43.405983</ele>
        <time>2022-05-31T10:21:30.537Z</time>
      </trkpt>
      <trkpt lat="42.47465" lon="18.6823">
        <ele>43.068323</ele>
        <time>2022-05-31T10:21:32.543Z</time>
      </trkpt>
      <trkpt lat="42.47458" lon="18.6822">
        <ele>42.755812</ele>
        <time>2022-05-31T10:21:34.553Z</time>
      </trkpt>
      <trkpt lat="42.47452" lon="18.68211">
        <ele>42.454933</ele>
        <time>2022-05-31T10:21:36.582Z</time>
      </trkpt>
      <trkpt lat="42.47443" lon="18.68198">
        <ele>42.036266</ele>
        <time>2022-05-31T10:21:39.553Z</time>
      </trkpt>
      <trkpt lat="42.47434" lon="18.68185">
        <ele>41.636283</ele>
        <time>2022-05-31T10:21:42.553Z</time>
      </trkpt>
      <trkpt lat="42.47426" lon="18.68172">
        <ele>41.237335</ele>
        <time>2022-05-31T10:21:45.553Z</time>
      </trkpt>
      <trkpt lat="42.47417" lon="18.68159">
        <ele>40.839453</ele>
        <time>2022-05-31T10:21:48.576Z</time>
      </trkpt>
      <trkpt lat="42.47409" lon="18.68146">
        <ele>40.450913</ele>
        <time>2022-05-31T10:21:51.551Z</time>
      </trkpt>
      <trkpt lat="42.47401" lon="18.68134">
        <ele>40.392723</ele>
        <time>2022-05-31T10:21:54.544Z</time>
      </trkpt>
      <trkpt lat="42.47392" lon="18.68121">
        <ele>40.482535</ele>
        <time>2022-05-31T10:21:57.555Z</time>
      </trkpt>
      <trkpt lat="42.47383" lon="18.6811">
        <ele>40.568449</ele>
        <time>2022-05-31T10:22:00.545Z</time>
      </trkpt>
      <trkpt lat="42.47375" lon="18.68103">
        <ele>40.631094</ele>
        <time>2022-05-31T10:22:02.559Z</time>
      </trkpt>
      <trkpt lat="42.47364" lon="18.68095">
        <ele>40.720342</ele>
        <time>2022-05-31T10:22:05.556Z</time>
      </trkpt>
      <trkpt lat="42.47351" lon="18.68088">
        <ele>40.814345</ele>
        <time>2022-05-31T10:22:08.551Z</time>
      </trkpt>
      <trkpt lat="42.47343" lon="18.68083">
        <ele>40.88128</ele>
        <time>2022-05-31T10:22:10.540Z</time>
      </trkpt>
      <trkpt lat="42.4733" lon="18.68076">
        <ele>40.973519</ele>
        <time>2022-05-31T10:22:13.550Z</time>
      </trkpt>
      <trkpt lat="42.47318" lon="18.6807">
        <ele>41.063247</ele>
        <time>2022-05-31T10:22:16.548Z</time>
      </trkpt>
      <trkpt lat="42.47309" lon="18.68065">
        <ele>41.130035</ele>
        <time>2022-05-31T10:22:18.544Z</time>
      </trkpt>
      <trkpt lat="42.473" lon="18.68061">
        <ele>41.197402</ele>
        <time>2022-05-31T10:22:20.537Z</time>
      </trkpt>
      <trkpt lat="42.47291" lon="18.68057">
        <ele>41.264463</ele>
        <time>2022-05-31T10:22:22.551Z</time>
      </trkpt>
      <trkpt lat="42.47281" lon="18.68053">
        <ele>41.337828</ele>
        <time>2022-05-31T10:22:24.579Z</time>
      </trkpt>
      <trkpt lat="42.47271" lon="18.68052">
        <ele>41.40857</ele>
        <time>2022-05-31T10:22:26.552Z</time>
      </trkpt>
      <trkpt lat="42.47262" lon="18.68053">
        <ele>41.473621</ele>
        <time>2022-05-31T10:22:28.551Z</time>
      </trkpt>
      <trkpt lat="42.47253" lon="18.68055">
        <ele>41.536292</ele>
        <time>2022-05-31T10:22:30.537Z</time>
      </trkpt>
      <trkpt lat="42.47243" lon="18.68056">
        <ele>41.656274</ele>
        <time>2022-05-31T10:22:32.548Z</time>
      </trkpt>
      <trkpt lat="42.47233" lon="18.68058">
        <ele>41.90509</ele>
        <time>2022-05-31T10:22:34.592Z</time>
      </trkpt>
      <trkpt lat="42.4722" lon="18.6806">
        <ele>42.223082</ele>
        <time>2022-05-31T10:22:37.546Z</time>
      </trkpt>
      <trkpt lat="42.47207" lon="18.6806">
        <ele>42.553775</ele>
        <time>2022-05-31T10:22:40.543Z</time>
      </trkpt>
      <trkpt lat="42.47198" lon="18.68059">
        <ele>42.792949</ele>
        <time>2022-05-31T10:22:42.549Z</time>
      </trkpt>
      <trkpt lat="42.47188" lon="18.68056">
        <ele>43.030439</ele>
        <time>2022-05-31T10:22:44.557Z</time>
      </trkpt>
      <trkpt lat="42.47179" lon="18.68054">
        <ele>43.272845</ele>
        <time>2022-05-31T10:22:46.560Z</time>
      </trkpt>
      <trkpt lat="42.47169" lon="18.68051">
        <ele>43.51737</ele>
        <time>2022-05-31T10:22:48.548Z</time>
      </trkpt>
      <trkpt lat="42.4716" lon="18.68049">
        <ele>43.748263</ele>
        <time>2022-05-31T10:22:50.534Z</time>
      </trkpt>
      <trkpt lat="42.47152" lon="18.68044">
        <ele>43.976838</ele>
        <time>2022-05-31T10:22:52.533Z</time>
      </trkpt>
      <trkpt lat="42.4714" lon="18.68036">
        <ele>44.292237</ele>
        <time>2022-05-31T10:22:55.566Z</time>
      </trkpt>
      <trkpt lat="42.47131" lon="18.68027">
        <ele>44.591847</ele>
        <time>2022-05-31T10:22:58.541Z</time>
      </trkpt>
      <trkpt lat="42.47123" lon="18.68017">
        <ele>44.856398</ele>
        <time>2022-05-31T10:23:01.539Z</time>
      </trkpt>
      <trkpt lat="42.47116" lon="18.68006">
        <ele>45.12602</ele>
        <time>2022-05-31T10:23:04.549Z</time>
      </trkpt>
      <trkpt lat="42.47111" lon="18.67995">
        <ele>45.375247</ele>
        <time>2022-05-31T10:23:07.547Z</time>
      </trkpt>
      <trkpt lat="42.47105" lon="18.67981">
        <ele>45.669091</ele>
        <time>2022-05-31T10:23:11.566Z</time>
      </trkpt>
      <trkpt lat="42.47101" lon="18.67968">
        <ele>45.923332</ele>
        <time>2022-05-31T10:23:15.633Z</time>
      </trkpt>
      <trkpt lat="42.47097" lon="18.67956">
        <ele>46.150207</ele>
        <time>2022-05-31T10:23:19.552Z</time>
      </trkpt>
      <trkpt lat="42.47094" lon="18.67943">
        <ele>46.331541</ele>
        <time>2022-05-31T10:23:23.540Z</time>
      </trkpt>
      <trkpt lat="42.4709" lon="18.6793">
        <ele>46.517904</ele>
        <time>2022-05-31T10:23:27.548Z</time>
      </trkpt>
      <trkpt lat="42.47087" lon="18.67918">
        <ele>46.699803</ele>
        <time>2022-05-31T10:23:31.599Z</time>
      </trkpt>
      <trkpt lat="42.47083" lon="18.67906">
        <ele>46.876589</ele>
        <time>2022-05-31T10:23:35.549Z</time>
      </trkpt>
      <trkpt lat="42.4708" lon="18.67893">
        <ele>47.057226</ele>
        <time>2022-05-31T10:23:39.549Z</time>
      </trkpt>
      <trkpt lat="42.47076" lon="18.67881">
        <ele>47.23528</ele>
        <time>2022-05-31T10:23:43.552Z</time>
      </trkpt>
      <trkpt lat="42.47073" lon="18.67867">
        <ele>47.429232</ele>
        <time>2022-05-31T10:23:47.553Z</time>
      </trkpt>
      <trkpt lat="42.47069" lon="18.67853">
        <ele>47.644187</ele>
        <time>2022-05-31T10:23:51.543Z</time>
      </trkpt>
      <trkpt lat="42.47064" lon="18.67838">
        <ele>47.861675</ele>
        <time>2022-05-31T10:23:55.549Z</time>
      </trkpt>
      <trkpt lat="42.47061" lon="18.67826">
        <ele>48.03477</ele>
        <time>2022-05-31T10:23:58.556Z</time>
      </trkpt>
      <trkpt lat="42.47057" lon="18.67814">
        <ele>48.207505</ele>
        <time>2022-05-31T10:24:01.553Z</time>
      </trkpt>
      <trkpt lat="42.47051" lon="18.67803">
        <ele>48.397469</ele>
        <time>2022-05-31T10:24:04.559Z</time>
      </trkpt>
      <trkpt lat="42.47043" lon="18.67792">
        <ele>48.599834</ele>
        <time>2022-05-31T10:24:07.539Z</time>
      </trkpt>
      <trkpt lat="42.47034" lon="18.67782">
        <ele>48.815961</ele>
        <time>2022-05-31T10:24:10.539Z</time>
      </trkpt>
      <trkpt lat="42.47024" lon="18.67774">
        <ele>49.029873</ele>
        <time>2022-05-31T10:24:13.556Z</time>
      </trkpt>
      <trkpt lat="42.47014" lon="18.67768">
        <ele>49.224823</ele>
        <time>2022-05-31T10:24:16.574Z</time>
      </trkpt>
      <trkpt lat="42.47003" lon="18.6776">
        <ele>49.307644</ele>
        <time>2022-05-31T10:24:19.556Z</time>
      </trkpt>
      <trkpt lat="42.46992" lon="18.67752">
        <ele>48.946108</ele>
        <time>2022-05-31T10:24:22.550Z</time>
      </trkpt>
      <trkpt lat="42.46981" lon="18.67742">
        <ele>48.563108</ele>
        <time>2022-05-31T10:24:25.547Z</time>
      </trkpt>
      <trkpt lat="42.4697" lon="18.67733">
        <ele>48.200083</ele>
        <time>2022-05-31T10:24:28.553Z</time>
      </trkpt>
      <trkpt lat="42.46959" lon="18.67723">
        <ele>47.818452</ele>
        <time>2022-05-31T10:24:31.560Z</time>
      </trkpt>
      <trkpt lat="42.46951" lon="18.67716">
        <ele>47.541087</ele>
        <time>2022-05-31T10:24:33.545Z</time>
      </trkpt>
      <trkpt lat="42.46944" lon="18.67708">
        <ele>47.276223</ele>
        <time>2022-05-31T10:24:35.566Z</time>
      </trkpt>
      <trkpt lat="42.46936" lon="18.677">
        <ele>47.010976</ele>
        <time>2022-05-31T10:24:37.541Z</time>
      </trkpt>
      <trkpt lat="42.4693" lon="18.67691">
        <ele>46.739896</ele>
        <time>2022-05-31T10:24:39.538Z</time>
      </trkpt>
      <trkpt lat="42.46921" lon="18.67677">
        <ele>46.358849</ele>
        <time>2022-05-31T10:24:42.551Z</time>
      </trkpt>
      <trkpt lat="42.46915" lon="18.67663">
        <ele>46.013924</ele>
        <time>2022-05-31T10:24:45.548Z</time>
      </trkpt>
      <trkpt lat="42.46911" lon="18.67652">
        <ele>45.750869</ele>
        <time>2022-05-31T10:24:47.547Z</time>
      </trkpt>
      <trkpt lat="42.46906" lon="18.67641">
        <ele>45.471761</ele>
        <time>2022-05-31T10:24:49.568Z</time>
      </trkpt>
      <trkpt lat="42.469" lon="18.67626">
        <ele>45.108562</ele>
        <time>2022-05-31T10:24:52.557Z</time>
      </trkpt>
      <trkpt lat="42.46893" lon="18.67611">
        <ele>44.738154</ele>
        <time>2022-05-31T10:24:55.542Z</time>
      </trkpt>
      <trkpt lat="42.46885" lon="18.67597">
        <ele>44.376064</ele>
        <time>2022-05-31T10:24:58.542Z</time>
      </trkpt>
      <trkpt lat="42.46876" lon="18.67584">
        <ele>44.154078</ele>
        <time>2022-05-31T10:25:01.545Z</time>
      </trkpt>
      <trkpt lat="42.46868" lon="18.67577">
        <ele>44.05799</ele>
        <time>2022-05-31T10:25:03.541Z</time>
      </trkpt>
      <trkpt lat="42.4686" lon="18.6757">
        <ele>43.961821</ele>
        <time>2022-05-31T10:25:05.547Z</time>
      </trkpt>
      <trkpt lat="42.46848" lon="18.67563">
        <ele>43.823926</ele>
        <time>2022-05-31T10:25:08.551Z</time>
      </trkpt>
      <trkpt lat="42.46839" lon="18.67559">
        <ele>43.729946</ele>
        <time>2022-05-31T10:25:10.551Z</time>
      </trkpt>
      <trkpt lat="42.46827" lon="18.67556">
        <ele>43.597095</ele>
        <time>2022-05-31T10:25:13.562Z</time>
      </trkpt>
      <trkpt lat="42.46815" lon="18.67555">
        <ele>43.473685</ele>
        <time>2022-05-31T10:25:16.556Z</time>
      </trkpt>
      <trkpt lat="42.46803" lon="18.67555">
        <ele>43.350323</ele>
        <time>2022-05-31T10:25:19.528Z</time>
      </trkpt>
      <trkpt lat="42.46791" lon="18.67554">
        <ele>43.225811</ele>
        <time>2022-05-31T10:25:22.547Z</time>
      </trkpt>
      <trkpt lat="42.4678" lon="18.67551">
        <ele>43.104587</ele>
        <time>2022-05-31T10:25:25.565Z</time>
      </trkpt>
      <trkpt lat="42.46769" lon="18.67548">
        <ele>42.991152</ele>
        <time>2022-05-31T10:25:28.554Z</time>
      </trkpt>
      <trkpt lat="42.46758" lon="18.67541">
        <ele>42.871511</ele>
        <time>2022-05-31T10:25:31.571Z</time>
      </trkpt>
      <trkpt lat="42.46749" lon="18.67533">
        <ele>42.753556</ele>
        <time>2022-05-31T10:25:34.555Z</time>
      </trkpt>
      <trkpt lat="42.4674" lon="18.67521">
        <ele>42.628367</ele>
        <time>2022-05-31T10:25:37.551Z</time>
      </trkpt>
      <trkpt lat="42.46732" lon="18.67509">
        <ele>42.501368</ele>
        <time>2022-05-31T10:25:40.533Z</time>
      </trkpt>
      <trkpt lat="42.46724" lon="18.67495">
        <ele>42.432871</ele>
        <time>2022-05-31T10:25:43.580Z</time>
      </trkpt>
      <trkpt lat="42.46717" lon="18.67481">
        <ele>42.921777</ele>
        <time>2022-05-31T10:25:46.537Z</time>
      </trkpt>
      <trkpt lat="42.4671" lon="18.67466">
        <ele>43.423747</ele>
        <time>2022-05-31T10:25:49.592Z</time>
      </trkpt>
      <trkpt lat="42.46703" lon="18.67452">
        <ele>43.90103</ele>
        <time>2022-05-31T10:25:52.559Z</time>
      </trkpt>
      <trkpt lat="42.46693" lon="18.67441">
        <ele>44.414284</ele>
        <time>2022-05-31T10:25:55.550Z</time>
      </trkpt>
      <trkpt lat="42.46681" lon="18.67433">
        <ele>44.903838</ele>
        <time>2022-05-31T10:25:58.548Z</time>
      </trkpt>
      <trkpt lat="42.46674" lon="18.67421">
        <ele>45.344626</ele>
        <time>2022-05-31T10:26:01.557Z</time>
      </trkpt>
      <trkpt lat="42.46669" lon="18.67405">
        <ele>45.837664</ele>
        <time>2022-05-31T10:26:04.556Z</time>
      </trkpt>
      <trkpt lat="42.46663" lon="18.67391">
        <ele>46.325187</ele>
        <time>2022-05-31T10:26:07.554Z</time>
      </trkpt>
      <trkpt lat="42.46656" lon="18.67376">
        <ele>46.806214</ele>
        <time>2022-05-31T10:26:10.547Z</time>
      </trkpt>
      <trkpt lat="42.46647" lon="18.67363">
        <ele>47.309452</ele>
        <time>2022-05-31T10:26:13.555Z</time>
      </trkpt>
      <trkpt lat="42.46641" lon="18.67355">
        <ele>47.656836</ele>
        <time>2022-05-31T10:26:15.560Z</time>
      </trkpt>
      <trkpt lat="42.4663" lon="18.67346">
        <ele>48.144815</ele>
        <time>2022-05-31T10:26:18.563Z</time>
      </trkpt>
      <trkpt lat="42.46619" lon="18.6734">
        <ele>48.606589</ele>
        <time>2022-05-31T10:26:21.545Z</time>
      </trkpt>
      <trkpt lat="42.46607" lon="18.67337">
        <ele>49.047933</ele>
        <time>2022-05-31T10:26:24.546Z</time>
      </trkpt>
      <trkpt lat="42.46596" lon="18.67336">
        <ele>49.19269</ele>
        <time>2022-05-31T10:26:27.559Z</time>
      </trkpt>
      <trkpt lat="42.46584" lon="18.67338">
        <ele>48.944024</ele>
        <time>2022-05-31T10:26:30.541Z</time>
      </trkpt>
      <trkpt lat="42.46573" lon="18.6734">
        <ele>48.704076</ele>
        <time>2022-05-31T10:26:33.542Z</time>
      </trkpt>
      <trkpt lat="42.46561" lon="18.67341">
        <ele>48.445174</ele>
        <time>2022-05-31T10:26:36.578Z</time>
      </trkpt>
      <trkpt lat="42.46549" lon="18.67342">
        <ele>48.189297</ele>
        <time>2022-05-31T10:26:39.573Z</time>
      </trkpt>
      <trkpt lat="42.46536" lon="18.67341">
        <ele>47.914147</ele>
        <time>2022-05-31T10:26:42.547Z</time>
      </trkpt>
      <trkpt lat="42.46524" lon="18.67341">
        <ele>47.649579</ele>
        <time>2022-05-31T10:26:45.539Z</time>
      </trkpt>
      <trkpt lat="42.46512" lon="18.6734">
        <ele>47.399725</ele>
        <time>2022-05-31T10:26:48.541Z</time>
      </trkpt>
      <trkpt lat="42.465" lon="18.67339">
        <ele>47.13065</ele>
        <time>2022-05-31T10:26:51.565Z</time>
      </trkpt>
      <trkpt lat="42.46489" lon="18.67338">
        <ele>46.900449</ele>
        <time>2022-05-31T10:26:54.546Z</time>
      </trkpt>
      <trkpt lat="42.46479" lon="18.67338">
        <ele>46.681049</ele>
        <time>2022-05-31T10:26:57.536Z</time>
      </trkpt>
      <trkpt lat="42.46468" lon="18.67337">
        <ele>46.446612</ele>
        <time>2022-05-31T10:27:00.529Z</time>
      </trkpt>
      <trkpt lat="42.46459" lon="18.67337">
        <ele>46.244248</ele>
        <time>2022-05-31T10:27:03.555Z</time>
      </trkpt>
      <trkpt lat="42.4645" lon="18.67336">
        <ele>46.048611</ele>
        <time>2022-05-31T10:27:06.548Z</time>
      </trkpt>
      <trkpt lat="42.4644" lon="18.67336">
        <ele>45.850825</ele>
        <time>2022-05-31T10:27:09.547Z</time>
      </trkpt>
      <trkpt lat="42.46431" lon="18.67336">
        <ele>45.653058</ele>
        <time>2022-05-31T10:27:12.546Z</time>
      </trkpt>
      <trkpt lat="42.46419" lon="18.67336">
        <ele>45.436785</ele>
        <time>2022-05-31T10:27:16.547Z</time>
      </trkpt>
      <trkpt lat="42.4641" lon="18.67336">
        <ele>45.449732</ele>
        <time>2022-05-31T10:27:19.574Z</time>
      </trkpt>
      <trkpt lat="42.46401" lon="18.67336">
        <ele>45.461993</ele>
        <time>2022-05-31T10:27:22.554Z</time>
      </trkpt>
      <trkpt lat="42.46392" lon="18.67336">
        <ele>45.474674</ele>
        <time>2022-05-31T10:27:25.580Z</time>
      </trkpt>
      <trkpt lat="42.46382" lon="18.67334">
        <ele>45.487546</ele>
        <time>2022-05-31T10:27:28.559Z</time>
      </trkpt>
      <trkpt lat="42.46373" lon="18.67333">
        <ele>45.500701</ele>
        <time>2022-05-31T10:27:31.648Z</time>
      </trkpt>
      <trkpt lat="42.46364" lon="18.6733">
        <ele>45.513534</ele>
        <time>2022-05-31T10:27:34.547Z</time>
      </trkpt>
      <trkpt lat="42.46354" lon="18.67325">
        <ele>45.526766</ele>
        <time>2022-05-31T10:27:37.542Z</time>
      </trkpt>
      <trkpt lat="42.46345" lon="18.6732">
        <ele>45.540134</ele>
        <time>2022-05-31T10:27:40.535Z</time>
      </trkpt>
      <trkpt lat="42.46337" lon="18.67314">
        <ele>45.553676</ele>
        <time>2022-05-31T10:27:43.563Z</time>
      </trkpt>
      <trkpt lat="42.46328" lon="18.67308">
        <ele>45.567263</ele>
        <time>2022-05-31T10:27:46.542Z</time>
      </trkpt>
      <trkpt lat="42.46318" lon="18.67302">
        <ele>45.582038</ele>
        <time>2022-05-31T10:27:49.590Z</time>
      </trkpt>
      <trkpt lat="42.46307" lon="18.67296">
        <ele>45.598081</ele>
        <time>2022-05-31T10:27:52.554Z</time>
      </trkpt>
      <trkpt lat="42.46295" lon="18.67292">
        <ele>45.615123</ele>
        <time>2022-05-31T10:27:55.549Z</time>
      </trkpt>
      <trkpt lat="42.46285" lon="18.6729">
        <ele>45.628237</ele>
        <time>2022-05-31T10:27:57.558Z</time>
      </trkpt>
      <trkpt lat="42.46275" lon="18.67288">
        <ele>45.641538</ele>
        <time>2022-05-31T10:27:59.539Z</time>
      </trkpt>
      <trkpt lat="42.46265" lon="18.67288">
        <ele>45.655844</ele>
        <time>2022-05-31T10:28:01.554Z</time>
      </trkpt>
      <trkpt lat="42.46254" lon="18.67289">
        <ele>45.670983</ele>
        <time>2022-05-31T10:28:03.528Z</time>
      </trkpt>
      <trkpt lat="42.46242" lon="18.6729">
        <ele>45.614338</ele>
        <time>2022-05-31T10:28:05.664Z</time>
      </trkpt>
      <trkpt lat="42.46231" lon="18.67294">
        <ele>45.478824</ele>
        <time>2022-05-31T10:28:07.537Z</time>
      </trkpt>
      <trkpt lat="42.4622" lon="18.67298">
        <ele>45.342471</ele>
        <time>2022-05-31T10:28:09.545Z</time>
      </trkpt>
      <trkpt lat="42.46209" lon="18.67303">
        <ele>45.203969</ele>
        <time>2022-05-31T10:28:11.549Z</time>
      </trkpt>
      <trkpt lat="42.46199" lon="18.6731">
        <ele>45.062346</ele>
        <time>2022-05-31T10:28:13.541Z</time>
      </trkpt>
      <trkpt lat="42.46188" lon="18.67318">
        <ele>44.920199</ele>
        <time>2022-05-31T10:28:15.544Z</time>
      </trkpt>
      <trkpt lat="42.46179" lon="18.67327">
        <ele>44.783462</ele>
        <time>2022-05-31T10:28:17.540Z</time>
      </trkpt>
      <trkpt lat="42.4617" lon="18.67336">
        <ele>44.645615</ele>
        <time>2022-05-31T10:28:19.542Z</time>
      </trkpt>
      <trkpt lat="42.46161" lon="18.67345">
        <ele>44.511863</ele>
        <time>2022-05-31T10:28:21.557Z</time>
      </trkpt>
      <trkpt lat="42.46152" lon="18.67354">
        <ele>44.383932</ele>
        <time>2022-05-31T10:28:23.546Z</time>
      </trkpt>
      <trkpt lat="42.46144" lon="18.67363">
        <ele>44.256431</ele>
        <time>2022-05-31T10:28:25.545Z</time>
      </trkpt>
      <trkpt lat="42.46136" lon="18.67372">
        <ele>44.130481</ele>
        <time>2022-05-31T10:28:27.542Z</time>
      </trkpt>
      <trkpt lat="42.4613" lon="18.67381">
        <ele>44.020984</ele>
        <time>2022-05-31T10:28:29.552Z</time>
      </trkpt>
      <trkpt lat="42.46122" lon="18.67394">
        <ele>43.869181</ele>
        <time>2022-05-31T10:28:32.554Z</time>
      </trkpt>
      <trkpt lat="42.46115" lon="18.67408">
        <ele>43.722604</ele>
        <time>2022-05-31T10:28:35.557Z</time>
      </trkpt>
      <trkpt lat="42.46109" lon="18.67424">
        <ele>43.56172</ele>
        <time>2022-05-31T10:28:38.550Z</time>
      </trkpt>
      <trkpt lat="42.46106" lon="18.67436">
        <ele>43.585212</ele>
        <time>2022-05-31T10:28:40.540Z</time>
      </trkpt>
      <trkpt lat="42.46102" lon="18.67449">
        <ele>43.696287</ele>
        <time>2022-05-31T10:28:42.578Z</time>
      </trkpt>
      <trkpt lat="42.46098" lon="18.67461">
        <ele>43.807115</ele>
        <time>2022-05-31T10:28:44.547Z</time>
      </trkpt>
      <trkpt lat="42.46094" lon="18.67472">
        <ele>43.914358</ele>
        <time>2022-05-31T10:28:46.549Z</time>
      </trkpt>
      <trkpt lat="42.46089" lon="18.67483">
        <ele>44.024569</ele>
        <time>2022-05-31T10:28:48.559Z</time>
      </trkpt>
      <trkpt lat="42.46083" lon="18.67494">
        <ele>44.133961</ele>
        <time>2022-05-31T10:28:50.531Z</time>
      </trkpt>
      <trkpt lat="42.46076" lon="18.67504">
        <ele>44.24656</ele>
        <time>2022-05-31T10:28:52.537Z</time>
      </trkpt>
      <trkpt lat="42.46069" lon="18.67512">
        <ele>44.352745</ele>
        <time>2022-05-31T10:28:54.552Z</time>
      </trkpt>
      <trkpt lat="42.46062" lon="18.6752">
        <ele>44.46214</ele>
        <time>2022-05-31T10:28:56.577Z</time>
      </trkpt>
      <trkpt lat="42.46053" lon="18.67528">
        <ele>44.573479</ele>
        <time>2022-05-31T10:28:58.558Z</time>
      </trkpt>
      <trkpt lat="42.46045" lon="18.67534">
        <ele>44.681783</ele>
        <time>2022-05-31T10:29:00.557Z</time>
      </trkpt>
      <trkpt lat="42.46037" lon="18.67539">
        <ele>44.78647</ele>
        <time>2022-05-31T10:29:02.527Z</time>
      </trkpt>
      <trkpt lat="42.46028" lon="18.67543">
        <ele>44.891174</ele>
        <time>2022-05-31T10:29:04.559Z</time>
      </trkpt>
      <trkpt lat="42.46019" lon="18.67545">
        <ele>44.995146</ele>
        <time>2022-05-31T10:29:06.543Z</time>
      </trkpt>
      <trkpt lat="42.46007" lon="18.67547">
        <ele>45.132872</ele>
        <time>2022-05-31T10:29:09.558Z</time>
      </trkpt>
      <trkpt lat="42.45994" lon="18.67545">
        <ele>45.275085</ele>
        <time>2022-05-31T10:29:12.555Z</time>
      </trkpt>
      <trkpt lat="42.45982" lon="18.6754">
        <ele>45.41613</ele>
        <time>2022-05-31T10:29:15.555Z</time>
      </trkpt>
      <trkpt lat="42.45972" lon="18.67529">
        <ele>45.575071</ele>
        <time>2022-05-31T10:29:18.557Z</time>
      </trkpt>
      <trkpt lat="42.45963" lon="18.67516">
        <ele>45.817415</ele>
        <time>2022-05-31T10:29:21.556Z</time>
      </trkpt>
      <trkpt lat="42.45958" lon="18.67501">
        <ele>46.058569</ele>
        <time>2022-05-31T10:29:24.577Z</time>
      </trkpt>
      <trkpt lat="42.45955" lon="18.67484">
        <ele>46.30595</ele>
        <time>2022-05-31T10:29:27.540Z</time>
      </trkpt>
      <trkpt lat="42.45954" lon="18.67472">
        <ele>46.478581</ele>
        <time>2022-05-31T10:29:29.548Z</time>
      </trkpt>
      <trkpt lat="42.45954" lon="18.67459">
        <ele>46.653144</ele>
        <time>2022-05-31T10:29:31.549Z</time>
      </trkpt>
      <trkpt lat="42.45954" lon="18.67447">
        <ele>46.830468</ele>
        <time>2022-05-31T10:29:33.554Z</time>
      </trkpt>
      <trkpt lat="42.45953" lon="18.67434">
        <ele>47.017711</ele>
        <time>2022-05-31T10:29:35.546Z</time>
      </trkpt>
      <trkpt lat="42.45953" lon="18.67421">
        <ele>47.20207</ele>
        <time>2022-05-31T10:29:37.529Z</time>
      </trkpt>
      <trkpt lat="42.45953" lon="18.67407">
        <ele>47.393632</ele>
        <time>2022-05-31T10:29:39.551Z</time>
      </trkpt>
      <trkpt lat="42.45953" lon="18.67393">
        <ele>47.599255</ele>
        <time>2022-05-31T10:29:41.548Z</time>
      </trkpt>
      <trkpt lat="42.45953" lon="18.6738">
        <ele>47.776495</ele>
        <time>2022-05-31T10:29:43.554Z</time>
      </trkpt>
      <trkpt lat="42.45953" lon="18.67366">
        <ele>47.970748</ele>
        <time>2022-05-31T10:29:45.553Z</time>
      </trkpt>
      <trkpt lat="42.45953" lon="18.67353">
        <ele>48.160748</ele>
        <time>2022-05-31T10:29:47.569Z</time>
      </trkpt>
      <trkpt lat="42.45953" lon="18.6734">
        <ele>48.345067</ele>
        <time>2022-05-31T10:29:49.540Z</time>
      </trkpt>
      <trkpt lat="42.45952" lon="18.67327">
        <ele>48.525388</ele>
        <time>2022-05-31T10:29:51.551Z</time>
      </trkpt>
      <trkpt lat="42.45952" lon="18.67314">
        <ele>48.716806</ele>
        <time>2022-05-31T10:29:53.574Z</time>
      </trkpt>
      <trkpt lat="42.45952" lon="18.673">
        <ele>48.905388</ele>
        <time>2022-05-31T10:29:55.539Z</time>
      </trkpt>
      <trkpt lat="42.45952" lon="18.67288">
        <ele>49.036497</ele>
        <time>2022-05-31T10:29:57.553Z</time>
      </trkpt>
      <trkpt lat="42.45951" lon="18.67275">
        <ele>49.105078</ele>
        <time>2022-05-31T10:29:59.542Z</time>
      </trkpt>
      <trkpt lat="42.45951" lon="18.67263">
        <ele>49.172549</ele>
        <time>2022-05-31T10:30:01.557Z</time>
      </trkpt>
      <trkpt lat="42.45951" lon="18.6725">
        <ele>49.242775</ele>
        <time>2022-05-31T10:30:03.565Z</time>
      </trkpt>
      <trkpt lat="42.45949" lon="18.67232">
        <ele>49.337951</ele>
        <time>2022-05-31T10:30:06.543Z</time>
      </trkpt>
      <trkpt lat="42.45947" lon="18.67215">
        <ele>49.432997</ele>
        <time>2022-05-31T10:30:09.540Z</time>
      </trkpt>
      <trkpt lat="42.45945" lon="18.67202">
        <ele>49.50377</ele>
        <time>2022-05-31T10:30:11.551Z</time>
      </trkpt>
      <trkpt lat="42.45942" lon="18.67189">
        <ele>49.575745</ele>
        <time>2022-05-31T10:30:13.557Z</time>
      </trkpt>
      <trkpt lat="42.45939" lon="18.67176">
        <ele>49.649947</ele>
        <time>2022-05-31T10:30:15.533Z</time>
      </trkpt>
      <trkpt lat="42.45935" lon="18.67164">
        <ele>49.722917</ele>
        <time>2022-05-31T10:30:17.537Z</time>
      </trkpt>
      <trkpt lat="42.45931" lon="18.67153">
        <ele>49.789506</ele>
        <time>2022-05-31T10:30:19.570Z</time>
      </trkpt>
      <trkpt lat="42.45925" lon="18.67137">
        <ele>49.884274</ele>
        <time>2022-05-31T10:30:22.554Z</time>
      </trkpt>
      <trkpt lat="42.45918" lon="18.67122">
        <ele>49.979842</ele>
        <time>2022-05-31T10:30:25.533Z</time>
      </trkpt>
      <trkpt lat="42.45912" lon="18.67106">
        <ele>50.076234</ele>
        <time>2022-05-31T10:30:28.530Z</time>
      </trkpt>
      <trkpt lat="42.45908" lon="18.67095">
        <ele>50.14438</ele>
        <time>2022-05-31T10:30:30.546Z</time>
      </trkpt>
      <trkpt lat="42.45902" lon="18.67079">
        <ele>50.240019</ele>
        <time>2022-05-31T10:30:33.545Z</time>
      </trkpt>
      <trkpt lat="42.45896" lon="18.67064">
        <ele>50.27113</ele>
        <time>2022-05-31T10:30:36.553Z</time>
      </trkpt>
      <trkpt lat="42.45889" lon="18.67048">
        <ele>49.887327</ele>
        <time>2022-05-31T10:30:39.585Z</time>
      </trkpt>
      <trkpt lat="42.45881" lon="18.67034">
        <ele>49.508729</ele>
        <time>2022-05-31T10:30:42.551Z</time>
      </trkpt>
      <trkpt lat="42.45872" lon="18.67021">
        <ele>49.107196</ele>
        <time>2022-05-31T10:30:45.552Z</time>
      </trkpt>
      <trkpt lat="42.45865" lon="18.67013">
        <ele>48.830041</ele>
        <time>2022-05-31T10:30:47.544Z</time>
      </trkpt>
      <trkpt lat="42.45854" lon="18.67004">
        <ele>48.442716</ele>
        <time>2022-05-31T10:30:50.571Z</time>
      </trkpt>
      <trkpt lat="42.45845" lon="18.66998">
        <ele>48.152098</ele>
        <time>2022-05-31T10:30:52.548Z</time>
      </trkpt>
      <trkpt lat="42.45836" lon="18.66991">
        <ele>47.848856</ele>
        <time>2022-05-31T10:30:54.555Z</time>
      </trkpt>
      <trkpt lat="42.45828" lon="18.66981">
        <ele>47.53672</ele>
        <time>2022-05-31T10:30:56.553Z</time>
      </trkpt>
      <trkpt lat="42.45822" lon="18.66971">
        <ele>47.25053</ele>
        <time>2022-05-31T10:30:58.541Z</time>
      </trkpt>
      <trkpt lat="42.45817" lon="18.66961">
        <ele>46.9806</ele>
        <time>2022-05-31T10:31:00.547Z</time>
      </trkpt>
      <trkpt lat="42.45812" lon="18.6695">
        <ele>46.710543</ele>
        <time>2022-05-31T10:31:02.550Z</time>
      </trkpt>
      <trkpt lat="42.45804" lon="18.66935">
        <ele>46.309107</ele>
        <time>2022-05-31T10:31:05.566Z</time>
      </trkpt>
      <trkpt lat="42.45799" lon="18.66925">
        <ele>46.034108</ele>
        <time>2022-05-31T10:31:07.537Z</time>
      </trkpt>
      <trkpt lat="42.45791" lon="18.6691">
        <ele>45.636158</ele>
        <time>2022-05-31T10:31:10.543Z</time>
      </trkpt>
      <trkpt lat="42.45783" lon="18.66895">
        <ele>45.243463</ele>
        <time>2022-05-31T10:31:13.551Z</time>
      </trkpt>
      <trkpt lat="42.45775" lon="18.66881">
        <ele>44.984256</ele>
        <time>2022-05-31T10:31:16.552Z</time>
      </trkpt>
      <trkpt lat="42.45768" lon="18.66866">
        <ele>44.911058</ele>
        <time>2022-05-31T10:31:19.560Z</time>
      </trkpt>
      <trkpt lat="42.45759" lon="18.66852">
        <ele>44.838741</ele>
        <time>2022-05-31T10:31:22.554Z</time>
      </trkpt>
      <trkpt lat="42.45754" lon="18.66842">
        <ele>44.788212</ele>
        <time>2022-05-31T10:31:24.588Z</time>
      </trkpt>
      <trkpt lat="42.45748" lon="18.66832">
        <ele>44.73801</ele>
        <time>2022-05-31T10:31:26.552Z</time>
      </trkpt>
      <trkpt lat="42.45742" lon="18.66823">
        <ele>44.688437</ele>
        <time>2022-05-31T10:31:28.553Z</time>
      </trkpt>
      <trkpt lat="42.45734" lon="18.66809">
        <ele>44.618056</ele>
        <time>2022-05-31T10:31:31.555Z</time>
      </trkpt>
      <trkpt lat="42.4573" lon="18.66795">
        <ele>44.555734</ele>
        <time>2022-05-31T10:31:34.563Z</time>
      </trkpt>
      <trkpt lat="42.45727" lon="18.66778">
        <ele>44.487826</ele>
        <time>2022-05-31T10:31:37.546Z</time>
      </trkpt>
      <trkpt lat="42.45725" lon="18.66766">
        <ele>44.438173</ele>
        <time>2022-05-31T10:31:39.547Z</time>
      </trkpt>
      <trkpt lat="42.45722" lon="18.66753">
        <ele>44.381238</ele>
        <time>2022-05-31T10:31:41.554Z</time>
      </trkpt>
      <trkpt lat="42.45721" lon="18.66739">
        <ele>44.327239</ele>
        <time>2022-05-31T10:31:43.546Z</time>
      </trkpt>
      <trkpt lat="42.4572" lon="18.66726">
        <ele>44.273167</ele>
        <time>2022-05-31T10:31:45.542Z</time>
      </trkpt>
      <trkpt lat="42.45718" lon="18.66713">
        <ele>44.21893</ele>
        <time>2022-05-31T10:31:47.541Z</time>
      </trkpt>
      <trkpt lat="42.45716" lon="18.66701">
        <ele>44.168854</ele>
        <time>2022-05-31T10:31:49.551Z</time>
      </trkpt>
      <trkpt lat="42.45713" lon="18.66682">
        <ele>44.09453</ele>
        <time>2022-05-31T10:31:52.561Z</time>
      </trkpt>
      <trkpt lat="42.45711" lon="18.6667">
        <ele>44.043951</ele>
        <time>2022-05-31T10:31:54.548Z</time>
      </trkpt>
      <trkpt lat="42.45709" lon="18.66658">
        <ele>44.024208</ele>
        <time>2022-05-31T10:31:56.548Z</time>
      </trkpt>
      <trkpt lat="42.45706" lon="18.66641">
        <ele>44.008156</ele>
        <time>2022-05-31T10:31:59.573Z</time>
      </trkpt>
      <trkpt lat="42.45703" lon="18.66623">
        <ele>43.992051</ele>
        <time>2022-05-31T10:32:02.548Z</time>
      </trkpt>
      <trkpt lat="42.45698" lon="18.66608">
        <ele>43.977797</ele>
        <time>2022-05-31T10:32:05.575Z</time>
      </trkpt>
      <trkpt lat="42.45695" lon="18.66594">
        <ele>43.964337</ele>
        <time>2022-05-31T10:32:08.557Z</time>
      </trkpt>
      <trkpt lat="42.45692" lon="18.66582">
        <ele>43.953585</ele>
        <time>2022-05-31T10:32:10.550Z</time>
      </trkpt>
      <trkpt lat="42.45689" lon="18.66569">
        <ele>43.94184</ele>
        <time>2022-05-31T10:32:12.549Z</time>
      </trkpt>
      <trkpt lat="42.45686" lon="18.66557">
        <ele>43.930148</ele>
        <time>2022-05-31T10:32:14.553Z</time>
      </trkpt>
      <trkpt lat="42.45684" lon="18.66544">
        <ele>43.918488</ele>
        <time>2022-05-31T10:32:16.578Z</time>
      </trkpt>
      <trkpt lat="42.45681" lon="18.66531">
        <ele>43.906743</ele>
        <time>2022-05-31T10:32:18.552Z</time>
      </trkpt>
      <trkpt lat="42.45678" lon="18.66519">
        <ele>43.895186</ele>
        <time>2022-05-31T10:32:20.540Z</time>
      </trkpt>
      <trkpt lat="42.45676" lon="18.66506">
        <ele>43.883697</ele>
        <time>2022-05-31T10:32:22.548Z</time>
      </trkpt>
      <trkpt lat="42.45674" lon="18.66489">
        <ele>43.867873</ele>
        <time>2022-05-31T10:32:25.556Z</time>
      </trkpt>
      <trkpt lat="42.45671" lon="18.66475">
        <ele>43.855212</ele>
        <time>2022-05-31T10:32:27.569Z</time>
      </trkpt>
      <trkpt lat="42.45669" lon="18.66461">
        <ele>43.842944</ele>
        <time>2022-05-31T10:32:29.550Z</time>
      </trkpt>
      <trkpt lat="42.45666" lon="18.66448">
        <ele>43.830908</ele>
        <time>2022-05-31T10:32:31.559Z</time>
      </trkpt>
      <trkpt lat="42.45663" lon="18.66435">
        <ele>43.818532</ele>
        <time>2022-05-31T10:32:33.558Z</time>
      </trkpt>
      <trkpt lat="42.4566" lon="18.66422">
        <ele>43.62401</ele>
        <time>2022-05-31T10:32:35.554Z</time>
      </trkpt>
      <trkpt lat="42.45656" lon="18.66409">
        <ele>43.418122</ele>
        <time>2022-05-31T10:32:37.545Z</time>
      </trkpt>
      <trkpt lat="42.45653" lon="18.66398">
        <ele>43.215144</ele>
        <time>2022-05-31T10:32:39.551Z</time>
      </trkpt>
      <trkpt lat="42.45649" lon="18.66386">
        <ele>43.014037</ele>
        <time>2022-05-31T10:32:41.550Z</time>
      </trkpt>
      <trkpt lat="42.45646" lon="18.66375">
        <ele>42.816968</ele>
        <time>2022-05-31T10:32:43.542Z</time>
      </trkpt>
      <trkpt lat="42.45642" lon="18.66363">
        <ele>42.616273</ele>
        <time>2022-05-31T10:32:45.545Z</time>
      </trkpt>
      <trkpt lat="42.45636" lon="18.6635">
        <ele>42.365363</ele>
        <time>2022-05-31T10:32:49.545Z</time>
      </trkpt>
      <trkpt lat="42.45632" lon="18.66337">
        <ele>42.140707</ele>
        <time>2022-05-31T10:32:51.560Z</time>
      </trkpt>
      <trkpt lat="42.45628" lon="18.66325">
        <ele>41.940473</ele>
        <time>2022-05-31T10:32:53.553Z</time>
      </trkpt>
      <trkpt lat="42.45625" lon="18.66314">
        <ele>41.741262</ele>
        <time>2022-05-31T10:32:55.556Z</time>
      </trkpt>
      <trkpt lat="42.45623" lon="18.66302">
        <ele>41.541288</ele>
        <time>2022-05-31T10:32:57.557Z</time>
      </trkpt>
      <trkpt lat="42.45619" lon="18.6629">
        <ele>41.345839</ele>
        <time>2022-05-31T10:32:59.541Z</time>
      </trkpt>
      <trkpt lat="42.45614" lon="18.66274">
        <ele>41.057752</ele>
        <time>2022-05-31T10:33:02.599Z</time>
      </trkpt>
      <trkpt lat="42.45608" lon="18.66259">
        <ele>40.791697</ele>
        <time>2022-05-31T10:33:05.552Z</time>
      </trkpt>
      <trkpt lat="42.45603" lon="18.66249">
        <ele>40.596247</ele>
        <time>2022-05-31T10:33:08.577Z</time>
      </trkpt>
      <trkpt lat="42.45598" lon="18.66237">
        <ele>40.383629</ele>
        <time>2022-05-31T10:33:11.547Z</time>
      </trkpt>
      <trkpt lat="42.45593" lon="18.66225">
        <ele>40.154912</ele>
        <time>2022-05-31T10:33:15.547Z</time>
      </trkpt>
      <trkpt lat="42.45587" lon="18.66212">
        <ele>39.955159</ele>
        <time>2022-05-31T10:33:19.562Z</time>
      </trkpt>
      <trkpt lat="42.45581" lon="18.66198">
        <ele>40.538389</ele>
        <time>2022-05-31T10:33:22.551Z</time>
      </trkpt>
      <trkpt lat="42.45574" lon="18.66184">
        <ele>41.120065</ele>
        <time>2022-05-31T10:33:25.576Z</time>
      </trkpt>
      <trkpt lat="42.45567" lon="18.66171">
        <ele>41.686776</ele>
        <time>2022-05-31T10:33:28.548Z</time>
      </trkpt>
      <trkpt lat="42.45559" lon="18.66164">
        <ele>42.124754</ele>
        <time>2022-05-31T10:33:30.550Z</time>
      </trkpt>
      <trkpt lat="42.45552" lon="18.66153">
        <ele>42.659607</ele>
        <time>2022-05-31T10:33:33.688Z</time>
      </trkpt>
      <trkpt lat="42.45544" lon="18.66139">
        <ele>43.258564</ele>
        <time>2022-05-31T10:33:36.550Z</time>
      </trkpt>
      <trkpt lat="42.45536" lon="18.66128">
        <ele>43.802512</ele>
        <time>2022-05-31T10:33:39.562Z</time>
      </trkpt>
      <trkpt lat="42.45528" lon="18.66115">
        <ele>44.383912</ele>
        <time>2022-05-31T10:33:42.557Z</time>
      </trkpt>
      <trkpt lat="42.4552" lon="18.66102">
        <ele>45.010523</ele>
        <time>2022-05-31T10:33:45.547Z</time>
      </trkpt>
      <trkpt lat="42.45511" lon="18.66089">
        <ele>45.636342</ele>
        <time>2022-05-31T10:33:48.596Z</time>
      </trkpt>
      <trkpt lat="42.45501" lon="18.66076">
        <ele>46.255315</ele>
        <time>2022-05-31T10:33:51.546Z</time>
      </trkpt>
      <trkpt lat="42.45493" lon="18.66065">
        <ele>46.827679</ele>
        <time>2022-05-31T10:33:54.554Z</time>
      </trkpt>
      <trkpt lat="42.45485" lon="18.66055">
        <ele>47.323109</ele>
        <time>2022-05-31T10:33:57.549Z</time>
      </trkpt>
      <trkpt lat="42.45477" lon="18.66044">
        <ele>47.856998</ele>
        <time>2022-05-31T10:34:00.551Z</time>
      </trkpt>
      <trkpt lat="42.45469" lon="18.66035">
        <ele>48.389347</ele>
        <time>2022-05-31T10:34:03.591Z</time>
      </trkpt>
      <trkpt lat="42.45461" lon="18.66026">
        <ele>48.289549</ele>
        <time>2022-05-31T10:34:06.549Z</time>
      </trkpt>
      <trkpt lat="42.45452" lon="18.66017">
        <ele>48.032293</ele>
        <time>2022-05-31T10:34:09.541Z</time>
      </trkpt>
      <trkpt lat="42.45442" lon="18.66005">
        <ele>47.718093</ele>
        <time>2022-05-31T10:34:12.545Z</time>
      </trkpt>
      <trkpt lat="42.45433" lon="18.65996">
        <ele>47.462464</ele>
        <time>2022-05-31T10:34:14.558Z</time>
      </trkpt>
      <trkpt lat="42.45425" lon="18.65988">
        <ele>47.216854</ele>
        <time>2022-05-31T10:34:16.582Z</time>
      </trkpt>
      <trkpt lat="42.45417" lon="18.6598">
        <ele>46.986627</ele>
        <time>2022-05-31T10:34:18.555Z</time>
      </trkpt>
      <trkpt lat="42.45408" lon="18.65971">
        <ele>46.736224</ele>
        <time>2022-05-31T10:34:20.563Z</time>
      </trkpt>
      <trkpt lat="42.45399" lon="18.65963">
        <ele>46.468559</ele>
        <time>2022-05-31T10:34:22.581Z</time>
      </trkpt>
      <trkpt lat="42.4539" lon="18.65953">
        <ele>46.212615</ele>
        <time>2022-05-31T10:34:24.556Z</time>
      </trkpt>
      <trkpt lat="42.45381" lon="18.65946">
        <ele>45.965979</ele>
        <time>2022-05-31T10:34:26.550Z</time>
      </trkpt>
      <trkpt lat="42.45372" lon="18.65938">
        <ele>45.719623</ele>
        <time>2022-05-31T10:34:28.555Z</time>
      </trkpt>
      <trkpt lat="42.45365" lon="18.65931">
        <ele>45.506862</ele>
        <time>2022-05-31T10:34:30.533Z</time>
      </trkpt>
      <trkpt lat="42.45355" lon="18.65923">
        <ele>45.224265</ele>
        <time>2022-05-31T10:34:33.556Z</time>
      </trkpt>
      <trkpt lat="42.45346" lon="18.65914">
        <ele>44.972082</ele>
        <time>2022-05-31T10:34:36.553Z</time>
      </trkpt>
      <trkpt lat="42.45338" lon="18.65906">
        <ele>44.743691</ele>
        <time>2022-05-31T10:34:39.559Z</time>
      </trkpt>
      <trkpt lat="42.4533" lon="18.65898">
        <ele>44.494457</ele>
        <time>2022-05-31T10:34:42.522Z</time>
      </trkpt>
      <trkpt lat="42.45321" lon="18.65886">
        <ele>44.23472</ele>
        <time>2022-05-31T10:34:45.555Z</time>
      </trkpt>
      <trkpt lat="42.45312" lon="18.65876">
        <ele>44.055424</ele>
        <time>2022-05-31T10:34:48.564Z</time>
      </trkpt>
      <trkpt lat="42.45303" lon="18.65866">
        <ele>43.874249</ele>
        <time>2022-05-31T10:34:51.572Z</time>
      </trkpt>
      <trkpt lat="42.45293" lon="18.65856">
        <ele>43.688669</ele>
        <time>2022-05-31T10:34:54.537Z</time>
      </trkpt>
      <trkpt lat="42.45283" lon="18.65846">
        <ele>43.500344</ele>
        <time>2022-05-31T10:34:57.538Z</time>
      </trkpt>
      <trkpt lat="42.45274" lon="18.65835">
        <ele>43.316763</ele>
        <time>2022-05-31T10:35:00.538Z</time>
      </trkpt>
      <trkpt lat="42.45265" lon="18.65824">
        <ele>43.141473</ele>
        <time>2022-05-31T10:35:03.566Z</time>
      </trkpt>
      <trkpt lat="42.45257" lon="18.65815">
        <ele>42.979642</ele>
        <time>2022-05-31T10:35:06.548Z</time>
      </trkpt>
      <trkpt lat="42.45248" lon="18.65808">
        <ele>42.824045</ele>
        <time>2022-05-31T10:35:10.594Z</time>
      </trkpt>
      <trkpt lat="42.45239" lon="18.65804">
        <ele>42.680391</ele>
        <time>2022-05-31T10:35:13.539Z</time>
      </trkpt>
      <trkpt lat="42.45228" lon="18.658">
        <ele>42.503526</ele>
        <time>2022-05-31T10:35:16.538Z</time>
      </trkpt>
      <trkpt lat="42.45219" lon="18.65796">
        <ele>42.361099</ele>
        <time>2022-05-31T10:35:18.574Z</time>
      </trkpt>
      <trkpt lat="42.4521" lon="18.6579">
        <ele>42.209749</ele>
        <time>2022-05-31T10:35:20.541Z</time>
      </trkpt>
      <trkpt lat="42.45202" lon="18.65782">
        <ele>42.058648</ele>
        <time>2022-05-31T10:35:22.553Z</time>
      </trkpt>
      <trkpt lat="42.45196" lon="18.65772">
        <ele>41.916321</ele>
        <time>2022-05-31T10:35:24.577Z</time>
      </trkpt>
      <trkpt lat="42.45188" lon="18.6576">
        <ele>41.733765</ele>
        <time>2022-05-31T10:35:27.537Z</time>
      </trkpt>
      <trkpt lat="42.45179" lon="18.65748">
        <ele>41.54784</ele>
        <time>2022-05-31T10:35:30.530Z</time>
      </trkpt>
      <trkpt lat="42.45174" lon="18.65738">
        <ele>41.640242</ele>
        <time>2022-05-31T10:35:32.580Z</time>
      </trkpt>
      <trkpt lat="42.45168" lon="18.65729">
        <ele>41.735474</ele>
        <time>2022-05-31T10:35:34.549Z</time>
      </trkpt>
      <trkpt lat="42.45162" lon="18.65719">
        <ele>41.831841</ele>
        <time>2022-05-31T10:35:36.586Z</time>
      </trkpt>
      <trkpt lat="42.45154" lon="18.65705">
        <ele>41.966884</ele>
        <time>2022-05-31T10:35:39.559Z</time>
      </trkpt>
      <trkpt lat="42.45146" lon="18.65691">
        <ele>42.099015</ele>
        <time>2022-05-31T10:35:42.549Z</time>
      </trkpt>
      <trkpt lat="42.45146" lon="18.65676">
        <ele>42.215029</ele>
        <time>2022-05-31T10:35:45.547Z</time>
      </trkpt>
      <trkpt lat="42.45152" lon="18.65667">
        <ele>42.308737</ele>
        <time>2022-05-31T10:35:48.551Z</time>
      </trkpt>
      <trkpt lat="42.45162" lon="18.65659">
        <ele>42.42728</ele>
        <time>2022-05-31T10:35:51.544Z</time>
      </trkpt>
      <trkpt lat="42.45175" lon="18.65653">
        <ele>42.5678</ele>
        <time>2022-05-31T10:35:55.539Z</time>
      </trkpt>
      <trkpt lat="42.45184" lon="18.65642">
        <ele>42.690676</ele>
        <time>2022-05-31T10:35:58.542Z</time>
      </trkpt>
      <trkpt lat="42.4519" lon="18.65628">
        <ele>42.816531</ele>
        <time>2022-05-31T10:36:01.541Z</time>
      </trkpt>
      <trkpt lat="42.45196" lon="18.65615">
        <ele>42.932686</ele>
        <time>2022-05-31T10:36:04.541Z</time>
      </trkpt>
      <trkpt lat="42.45203" lon="18.65606">
        <ele>43.034458</ele>
        <time>2022-05-31T10:36:07.549Z</time>
      </trkpt>
      <trkpt lat="42.45212" lon="18.65596">
        <ele>43.155309</ele>
        <time>2022-05-31T10:36:11.560Z</time>
      </trkpt>
      <trkpt lat="42.4522" lon="18.65589">
        <ele>43.257596</ele>
        <time>2022-05-31T10:36:14.546Z</time>
      </trkpt>
      <trkpt lat="42.45231" lon="18.6558">
        <ele>43.383539</ele>
        <time>2022-05-31T10:36:18.547Z</time>
      </trkpt>
      <trkpt lat="42.45241" lon="18.65573">
        <ele>43.836099</ele>
        <time>2022-05-31T10:36:21.542Z</time>
      </trkpt>
      <trkpt lat="42.45249" lon="18.65566">
        <ele>44.297967</ele>
        <time>2022-05-31T10:36:24.603Z</time>
      </trkpt>
      <trkpt lat="42.45257" lon="18.65556">
        <ele>44.808048</ele>
        <time>2022-05-31T10:36:28.540Z</time>
      </trkpt>
      <trkpt lat="42.45262" lon="18.65546">
        <ele>45.236513</ele>
        <time>2022-05-31T10:36:31.549Z</time>
      </trkpt>
      <trkpt lat="42.45269" lon="18.65536">
        <ele>45.696616</ele>
        <time>2022-05-31T10:36:34.535Z</time>
      </trkpt>
      <trkpt lat="42.45277" lon="18.65528">
        <ele>46.158522</ele>
        <time>2022-05-31T10:36:37.550Z</time>
      </trkpt>
      <trkpt lat="42.45287" lon="18.65522">
        <ele>46.673344</ele>
        <time>2022-05-31T10:36:41.593Z</time>
      </trkpt>
      <trkpt lat="42.45297" lon="18.65516">
        <ele>47.181297</ele>
        <time>2022-05-31T10:36:45.578Z</time>
      </trkpt>
      <trkpt lat="42.45305" lon="18.6551">
        <ele>47.6219</ele>
        <time>2022-05-31T10:36:49.553Z</time>
      </trkpt>
      <trkpt lat="42.45315" lon="18.65504">
        <ele>48.119891</ele>
        <time>2022-05-31T10:36:54.550Z</time>
      </trkpt>
      <trkpt lat="42.45323" lon="18.65497">
        <ele>48.577484</ele>
        <time>2022-05-31T10:36:59.554Z</time>
      </trkpt>
      <trkpt lat="42.45331" lon="18.6549">
        <ele>49.023763</ele>
        <time>2022-05-31T10:37:04.559Z</time>
      </trkpt>
      <trkpt lat="42.4534" lon="18.65482">
        <ele>49.547626</ele>
        <time>2022-05-31T10:37:09.539Z</time>
      </trkpt>
      <trkpt lat="42.45349" lon="18.65474">
        <ele>50.055671</ele>
        <time>2022-05-31T10:37:14.580Z</time>
      </trkpt>
      <trkpt lat="42.45358" lon="18.65469">
        <ele>50.512581</ele>
        <time>2022-05-31T10:37:20.533Z</time>
      </trkpt>
      <trkpt lat="42.45367" lon="18.65463">
        <ele>50.960585</ele>
        <time>2022-05-31T10:37:25.550Z</time>
      </trkpt>
      <trkpt lat="42.45375" lon="18.65456">
        <ele>51.423491</ele>
        <time>2022-05-31T10:37:30.533Z</time>
      </trkpt>
      <trkpt lat="42.4538" lon="18.65444">
        <ele>51.824945</ele>
        <time>2022-05-31T10:37:35.564Z</time>
      </trkpt>
      <trkpt lat="42.45379" lon="18.65431">
        <ele>51.785014</ele>
        <time>2022-05-31T10:37:39.553Z</time>
      </trkpt>
      <trkpt lat="42.45375" lon="18.65418">
        <ele>51.744672</ele>
        <time>2022-05-31T10:37:42.554Z</time>
      </trkpt>
      <trkpt lat="42.45371" lon="18.65404">
        <ele>51.702242</ele>
        <time>2022-05-31T10:37:45.548Z</time>
      </trkpt>
      <trkpt lat="42.45366" lon="18.65389">
        <ele>51.653189</ele>
        <time>2022-05-31T10:37:48.555Z</time>
      </trkpt>
      <trkpt lat="42.45361" lon="18.65373">
        <ele>51.600598</ele>
        <time>2022-05-31T10:37:51.561Z</time>
      </trkpt>
      <trkpt lat="42.45356" lon="18.65362">
        <ele>51.563671</ele>
        <time>2022-05-31T10:37:53.559Z</time>
      </trkpt>
      <trkpt lat="42.4535" lon="18.6535">
        <ele>51.524076</ele>
        <time>2022-05-31T10:37:55.540Z</time>
      </trkpt>
      <trkpt lat="42.45344" lon="18.65339">
        <ele>51.483115</ele>
        <time>2022-05-31T10:37:57.550Z</time>
      </trkpt>
      <trkpt lat="42.45337" lon="18.65329">
        <ele>51.442156</ele>
        <time>2022-05-31T10:37:59.580Z</time>
      </trkpt>
      <trkpt lat="42.45329" lon="18.65319">
        <ele>51.398985</ele>
        <time>2022-05-31T10:38:01.551Z</time>
      </trkpt>
      <trkpt lat="42.4532" lon="18.6531">
        <ele>51.35482</ele>
        <time>2022-05-31T10:38:03.543Z</time>
      </trkpt>
      <trkpt lat="42.4531" lon="18.65301">
        <ele>51.307871</ele>
        <time>2022-05-31T10:38:05.551Z</time>
      </trkpt>
      <trkpt lat="42.45301" lon="18.65293">
        <ele>51.263839</ele>
        <time>2022-05-31T10:38:07.553Z</time>
      </trkpt>
      <trkpt lat="42.45291" lon="18.65286">
        <ele>51.218444</ele>
        <time>2022-05-31T10:38:09.561Z</time>
      </trkpt>
      <trkpt lat="42.45281" lon="18.65278">
        <ele>51.172901</ele>
        <time>2022-05-31T10:38:11.540Z</time>
      </trkpt>
      <trkpt lat="42.4527" lon="18.65269">
        <ele>51.122115</ele>
        <time>2022-05-31T10:38:13.603Z</time>
      </trkpt>
      <trkpt lat="42.45259" lon="18.6526">
        <ele>51.043994</ele>
        <time>2022-05-31T10:38:15.558Z</time>
      </trkpt>
      <trkpt lat="42.45247" lon="18.65251">
        <ele>50.954311</ele>
        <time>2022-05-31T10:38:17.546Z</time>
      </trkpt>
      <trkpt lat="42.45235" lon="18.65242">
        <ele>50.865748</ele>
        <time>2022-05-31T10:38:19.538Z</time>
      </trkpt>
      <trkpt lat="42.45224" lon="18.65231">
        <ele>50.781494</ele>
        <time>2022-05-31T10:38:21.551Z</time>
      </trkpt>
      <trkpt lat="42.45216" lon="18.65221">
        <ele>50.706916</ele>
        <time>2022-05-31T10:38:23.558Z</time>
      </trkpt>
      <trkpt lat="42.45208" lon="18.65211">
        <ele>50.636901</ele>
        <time>2022-05-31T10:38:25.556Z</time>
      </trkpt>
      <trkpt lat="42.45201" lon="18.65202">
        <ele>50.575472</ele>
        <time>2022-05-31T10:38:27.557Z</time>
      </trkpt>
      <trkpt lat="42.45195" lon="18.65192">
        <ele>50.51494</ele>
        <time>2022-05-31T10:38:29.550Z</time>
      </trkpt>
      <trkpt lat="42.45187" lon="18.65183">
        <ele>50.451381</ele>
        <time>2022-05-31T10:38:31.556Z</time>
      </trkpt>
      <trkpt lat="42.4518" lon="18.65175">
        <ele>50.391114</ele>
        <time>2022-05-31T10:38:33.587Z</time>
      </trkpt>
      <trkpt lat="42.4517" lon="18.65163">
        <ele>50.305253</ele>
        <time>2022-05-31T10:38:36.549Z</time>
      </trkpt>
      <trkpt lat="42.45162" lon="18.65153">
        <ele>50.232133</ele>
        <time>2022-05-31T10:38:39.555Z</time>
      </trkpt>
      <trkpt lat="42.45155" lon="18.65142">
        <ele>50.161652</ele>
        <time>2022-05-31T10:38:42.513Z</time>
      </trkpt>
      <trkpt lat="42.4516" lon="18.65127">
        <ele>50.087155</ele>
        <time>2022-05-31T10:38:46.558Z</time>
      </trkpt>
      <trkpt lat="42.4517" lon="18.65122">
        <ele>50.018171</ele>
        <time>2022-05-31T10:38:52.554Z</time>
      </trkpt>
      <trkpt lat="42.45159" lon="18.65123">
        <ele>49.908036</ele>
        <time>2022-05-31T10:39:16.538Z</time>
      </trkpt>
      <trkpt lat="42.45149" lon="18.65132">
        <ele>49.540589</ele>
        <time>2022-05-31T10:39:19.537Z</time>
      </trkpt>
      <trkpt lat="42.4514" lon="18.65138">
        <ele>49.244981</ele>
        <time>2022-05-31T10:39:21.539Z</time>
      </trkpt>
      <trkpt lat="42.4513" lon="18.65145">
        <ele>48.924819</ele>
        <time>2022-05-31T10:39:23.560Z</time>
      </trkpt>
      <trkpt lat="42.45121" lon="18.6515">
        <ele>48.604715</ele>
        <time>2022-05-31T10:39:25.578Z</time>
      </trkpt>
      <trkpt lat="42.45109" lon="18.65152">
        <ele>48.264078</ele>
        <time>2022-05-31T10:39:27.549Z</time>
      </trkpt>
      <trkpt lat="42.45099" lon="18.65152">
        <ele>47.962219</ele>
        <time>2022-05-31T10:39:29.605Z</time>
      </trkpt>
      <trkpt lat="42.45089" lon="18.65153">
        <ele>47.660032</ele>
        <time>2022-05-31T10:39:31.568Z</time>
      </trkpt>
      <trkpt lat="42.45079" lon="18.65153">
        <ele>47.35201</ele>
        <time>2022-05-31T10:39:33.556Z</time>
      </trkpt>
      <trkpt lat="42.45068" lon="18.65153">
        <ele>47.004893</ele>
        <time>2022-05-31T10:39:35.551Z</time>
      </trkpt>
      <trkpt lat="42.45057" lon="18.65153">
        <ele>46.688011</ele>
        <time>2022-05-31T10:39:37.550Z</time>
      </trkpt>
      <trkpt lat="42.45046" lon="18.6515">
        <ele>46.348486</ele>
        <time>2022-05-31T10:39:39.553Z</time>
      </trkpt>
      <trkpt lat="42.45038" lon="18.6514">
        <ele>46.023775</ele>
        <time>2022-05-31T10:39:41.556Z</time>
      </trkpt>
      <trkpt lat="42.45033" lon="18.65123">
        <ele>45.617368</ele>
        <time>2022-05-31T10:39:44.553Z</time>
      </trkpt>
      <trkpt lat="42.45031" lon="18.65111">
        <ele>45.339871</ele>
        <time>2022-05-31T10:39:46.562Z</time>
      </trkpt>
      <trkpt lat="42.45028" lon="18.65095">
        <ele>44.971248</ele>
        <time>2022-05-31T10:39:49.548Z</time>
      </trkpt>
      <trkpt lat="42.45023" lon="18.65083">
        <ele>44.678003</ele>
        <time>2022-05-31T10:39:52.537Z</time>
      </trkpt>
      <trkpt lat="42.45019" lon="18.65071">
        <ele>44.491181</ele>
        <time>2022-05-31T10:39:55.536Z</time>
      </trkpt>
      <trkpt lat="42.45015" lon="18.65058">
        <ele>44.405533</ele>
        <time>2022-05-31T10:39:58.556Z</time>
      </trkpt>
      <trkpt lat="42.45011" lon="18.65044">
        <ele>44.317273</ele>
        <time>2022-05-31T10:40:01.551Z</time>
      </trkpt>
      <trkpt lat="42.45007" lon="18.65029">
        <ele>44.225377</ele>
        <time>2022-05-31T10:40:04.551Z</time>
      </trkpt>
      <trkpt lat="42.45003" lon="18.65015">
        <ele>44.137381</ele>
        <time>2022-05-31T10:40:07.587Z</time>
      </trkpt>
      <trkpt lat="42.44999" lon="18.65003">
        <ele>44.061997</ele>
        <time>2022-05-31T10:40:25.557Z</time>
      </trkpt>
      <trkpt lat="42.44994" lon="18.64992">
        <ele>43.983086</ele>
        <time>2022-05-31T10:40:32.548Z</time>
      </trkpt>
      <trkpt lat="42.44989" lon="18.64978">
        <ele>43.893466</ele>
        <time>2022-05-31T10:40:36.549Z</time>
      </trkpt>
      <trkpt lat="42.44985" lon="18.64965">
        <ele>43.810821</ele>
        <time>2022-05-31T10:40:40.549Z</time>
      </trkpt>
      <trkpt lat="42.44981" lon="18.64951">
        <ele>43.721731</ele>
        <time>2022-05-31T10:40:44.555Z</time>
      </trkpt>
      <trkpt lat="42.44977" lon="18.64939">
        <ele>43.64422</ele>
        <time>2022-05-31T10:40:47.551Z</time>
      </trkpt>
      <trkpt lat="42.44972" lon="18.64926">
        <ele>43.563225</ele>
        <time>2022-05-31T10:40:50.537Z</time>
      </trkpt>
      <trkpt lat="42.44968" lon="18.64915">
        <ele>43.485889</ele>
        <time>2022-05-31T10:40:53.561Z</time>
      </trkpt>
      <trkpt lat="42.44962" lon="18.64901">
        <ele>43.390757</ele>
        <time>2022-05-31T10:40:57.549Z</time>
      </trkpt>
      <trkpt lat="42.44958" lon="18.64889">
        <ele>43.315367</ele>
        <time>2022-05-31T10:41:02.544Z</time>
      </trkpt>
      <trkpt lat="42.44953" lon="18.64877">
        <ele>43.233568</ele>
        <time>2022-05-31T10:41:07.559Z</time>
      </trkpt>
      <trkpt lat="42.44949" lon="18.64864">
        <ele>43.152091</ele>
        <time>2022-05-31T10:41:10.576Z</time>
      </trkpt>
      <trkpt lat="42.44944" lon="18.64851">
        <ele>43.086479</ele>
        <time>2022-05-31T10:41:13.574Z</time>
      </trkpt>
      <trkpt lat="42.44939" lon="18.64839">
        <ele>43.047499</ele>
        <time>2022-05-31T10:41:16.580Z</time>
      </trkpt>
      <trkpt lat="42.44934" lon="18.64826">
        <ele>43.007809</ele>
        <time>2022-05-31T10:41:19.562Z</time>
      </trkpt>
      <trkpt lat="42.44928" lon="18.64813">
        <ele>42.966513</ele>
        <time>2022-05-31T10:41:22.597Z</time>
      </trkpt>
      <trkpt lat="42.44921" lon="18.648">
        <ele>42.924092</ele>
        <time>2022-05-31T10:41:25.558Z</time>
      </trkpt>
      <trkpt lat="42.44916" lon="18.64786">
        <ele>42.88056</ele>
        <time>2022-05-31T10:41:28.587Z</time>
      </trkpt>
      <trkpt lat="42.4491" lon="18.64773">
        <ele>42.840522</ele>
        <time>2022-05-31T10:41:31.550Z</time>
      </trkpt>
      <trkpt lat="42.44903" lon="18.64761">
        <ele>42.799657</ele>
        <time>2022-05-31T10:41:34.509Z</time>
      </trkpt>
      <trkpt lat="42.44895" lon="18.6475">
        <ele>42.75781</ele>
        <time>2022-05-31T10:41:37.553Z</time>
      </trkpt>
      <trkpt lat="42.44887" lon="18.64738">
        <ele>42.715526</ele>
        <time>2022-05-31T10:41:40.546Z</time>
      </trkpt>
      <trkpt lat="42.44878" lon="18.64727">
        <ele>42.670726</ele>
        <time>2022-05-31T10:41:43.569Z</time>
      </trkpt>
      <trkpt lat="42.44869" lon="18.64716">
        <ele>42.62719</ele>
        <time>2022-05-31T10:41:46.550Z</time>
      </trkpt>
      <trkpt lat="42.44861" lon="18.64706">
        <ele>42.585725</ele>
        <time>2022-05-31T10:41:49.524Z</time>
      </trkpt>
      <trkpt lat="42.44853" lon="18.64695">
        <ele>42.545412</ele>
        <time>2022-05-31T10:41:52.567Z</time>
      </trkpt>
      <trkpt lat="42.44847" lon="18.64685">
        <ele>42.509631</ele>
        <time>2022-05-31T10:41:55.538Z</time>
      </trkpt>
      <trkpt lat="42.4484" lon="18.64676">
        <ele>42.473894</ele>
        <time>2022-05-31T10:41:58.563Z</time>
      </trkpt>
      <trkpt lat="42.44834" lon="18.64663">
        <ele>42.434761</ele>
        <time>2022-05-31T10:42:01.557Z</time>
      </trkpt>
      <trkpt lat="42.44829" lon="18.64648">
        <ele>42.397013</ele>
        <time>2022-05-31T10:42:04.541Z</time>
      </trkpt>
      <trkpt lat="42.44824" lon="18.64631">
        <ele>42.355614</ele>
        <time>2022-05-31T10:42:07.579Z</time>
      </trkpt>
      <trkpt lat="42.4482" lon="18.64614">
        <ele>42.315198</ele>
        <time>2022-05-31T10:42:10.542Z</time>
      </trkpt>
      <trkpt lat="42.44815" lon="18.64599">
        <ele>42.277447</ele>
        <time>2022-05-31T10:42:13.531Z</time>
      </trkpt>
      <trkpt lat="42.44811" lon="18.64584">
        <ele>42.242149</ele>
        <time>2022-05-31T10:42:16.550Z</time>
      </trkpt>
      <trkpt lat="42.44806" lon="18.64569">
        <ele>42.203651</ele>
        <time>2022-05-31T10:42:19.553Z</time>
      </trkpt>
      <trkpt lat="42.448" lon="18.64553">
        <ele>42.162772</ele>
        <time>2022-05-31T10:42:22.549Z</time>
      </trkpt>
      <trkpt lat="42.44793" lon="18.64539">
        <ele>42.124344</ele>
        <time>2022-05-31T10:42:25.613Z</time>
      </trkpt>
      <trkpt lat="42.44786" lon="18.64525">
        <ele>42.085164</ele>
        <time>2022-05-31T10:42:28.589Z</time>
      </trkpt>
      <trkpt lat="42.44778" lon="18.6451">
        <ele>42.045263</ele>
        <time>2022-05-31T10:42:31.572Z</time>
      </trkpt>
      <trkpt lat="42.44771" lon="18.64495">
        <ele>42.003913</ele>
        <time>2022-05-31T10:42:34.597Z</time>
      </trkpt>
      <trkpt lat="42.44763" lon="18.64481">
        <ele>41.963488</ele>
        <time>2022-05-31T10:42:37.548Z</time>
      </trkpt>
      <trkpt lat="42.44755" lon="18.64467">
        <ele>41.923607</ele>
        <time>2022-05-31T10:42:40.557Z</time>
      </trkpt>
      <trkpt lat="42.44749" lon="18.64453">
        <ele>41.89445</ele>
        <time>2022-05-31T10:42:43.550Z</time>
      </trkpt>
      <trkpt lat="42.44741" lon="18.64439">
        <ele>41.973907</ele>
        <time>2022-05-31T10:42:46.565Z</time>
      </trkpt>
      <trkpt lat="42.44736" lon="18.64429">
        <ele>42.029929</ele>
        <time>2022-05-31T10:42:48.550Z</time>
      </trkpt>
      <trkpt lat="42.44728" lon="18.64417">
        <ele>42.103532</ele>
        <time>2022-05-31T10:42:51.590Z</time>
      </trkpt>
      <trkpt lat="42.4472" lon="18.64404">
        <ele>42.181218</ele>
        <time>2022-05-31T10:42:54.543Z</time>
      </trkpt>
      <trkpt lat="42.44714" lon="18.64394">
        <ele>42.238931</ele>
        <time>2022-05-31T10:42:56.552Z</time>
      </trkpt>
      <trkpt lat="42.44705" lon="18.64381">
        <ele>42.322273</ele>
        <time>2022-05-31T10:42:59.536Z</time>
      </trkpt>
      <trkpt lat="42.447" lon="18.6437">
        <ele>42.377449</ele>
        <time>2022-05-31T10:43:01.566Z</time>
      </trkpt>
      <trkpt lat="42.44695" lon="18.6436">
        <ele>42.43327</ele>
        <time>2022-05-31T10:43:03.538Z</time>
      </trkpt>
      <trkpt lat="42.44687" lon="18.64347">
        <ele>42.50979</ele>
        <time>2022-05-31T10:43:06.555Z</time>
      </trkpt>
      <trkpt lat="42.44679" lon="18.64335">
        <ele>42.584632</ele>
        <time>2022-05-31T10:43:09.537Z</time>
      </trkpt>
      <trkpt lat="42.44671" lon="18.64321">
        <ele>42.665295</ele>
        <time>2022-05-31T10:43:12.545Z</time>
      </trkpt>
      <trkpt lat="42.44663" lon="18.64308">
        <ele>42.741745</ele>
        <time>2022-05-31T10:43:15.544Z</time>
      </trkpt>
      <trkpt lat="42.44657" lon="18.64299">
        <ele>42.798949</ele>
        <time>2022-05-31T10:43:17.575Z</time>
      </trkpt>
      <trkpt lat="42.44651" lon="18.64289">
        <ele>42.854708</ele>
        <time>2022-05-31T10:43:19.586Z</time>
      </trkpt>
      <trkpt lat="42.44642" lon="18.64276">
        <ele>42.937208</ele>
        <time>2022-05-31T10:43:22.560Z</time>
      </trkpt>
      <trkpt lat="42.44636" lon="18.64267">
        <ele>42.993766</ele>
        <time>2022-05-31T10:43:24.572Z</time>
      </trkpt>
      <trkpt lat="42.4463" lon="18.64258">
        <ele>43.010844</ele>
        <time>2022-05-31T10:43:26.536Z</time>
      </trkpt>
      <trkpt lat="42.44621" lon="18.64245">
        <ele>43.030842</ele>
        <time>2022-05-31T10:43:29.554Z</time>
      </trkpt>
      <trkpt lat="42.44615" lon="18.64235">
        <ele>43.0443</ele>
        <time>2022-05-31T10:43:31.540Z</time>
      </trkpt>
      <trkpt lat="42.44609" lon="18.64226">
        <ele>43.0576</ele>
        <time>2022-05-31T10:43:33.564Z</time>
      </trkpt>
      <trkpt lat="42.44601" lon="18.64212">
        <ele>43.077273</ele>
        <time>2022-05-31T10:43:36.573Z</time>
      </trkpt>
      <trkpt lat="42.44593" lon="18.64199">
        <ele>43.096211</ele>
        <time>2022-05-31T10:43:39.542Z</time>
      </trkpt>
      <trkpt lat="42.44585" lon="18.64185">
        <ele>43.114799</ele>
        <time>2022-05-31T10:43:42.582Z</time>
      </trkpt>
      <trkpt lat="42.44577" lon="18.64172">
        <ele>43.13368</ele>
        <time>2022-05-31T10:43:45.537Z</time>
      </trkpt>
      <trkpt lat="42.44568" lon="18.64158">
        <ele>43.153334</ele>
        <time>2022-05-31T10:43:48.551Z</time>
      </trkpt>
      <trkpt lat="42.4456" lon="18.64144">
        <ele>43.173588</ele>
        <time>2022-05-31T10:43:51.536Z</time>
      </trkpt>
      <trkpt lat="42.44551" lon="18.64131">
        <ele>43.193101</ele>
        <time>2022-05-31T10:43:54.549Z</time>
      </trkpt>
      <trkpt lat="42.44542" lon="18.64119">
        <ele>43.212153</ele>
        <time>2022-05-31T10:43:57.537Z</time>
      </trkpt>
      <trkpt lat="42.44533" lon="18.64109">
        <ele>43.229515</ele>
        <time>2022-05-31T10:44:00.536Z</time>
      </trkpt>
      <trkpt lat="42.44525" lon="18.64102">
        <ele>43.24382</ele>
        <time>2022-05-31T10:44:02.534Z</time>
      </trkpt>
      <trkpt lat="42.44517" lon="18.64094">
        <ele>43.25776</ele>
        <time>2022-05-31T10:44:04.551Z</time>
      </trkpt>
      <trkpt lat="42.4451" lon="18.64086">
        <ele>43.291366</ele>
        <time>2022-05-31T10:44:06.533Z</time>
      </trkpt>
      <trkpt lat="42.44504" lon="18.64076">
        <ele>43.356738</ele>
        <time>2022-05-31T10:44:08.538Z</time>
      </trkpt>
      <trkpt lat="42.44499" lon="18.64067">
        <ele>43.421612</ele>
        <time>2022-05-31T10:44:10.580Z</time>
      </trkpt>
      <trkpt lat="42.44493" lon="18.64057">
        <ele>43.486133</ele>
        <time>2022-05-31T10:44:12.528Z</time>
      </trkpt>
      <trkpt lat="42.44485" lon="18.64042">
        <ele>43.580284</ele>
        <time>2022-05-31T10:44:15.548Z</time>
      </trkpt>
      <trkpt lat="42.44478" lon="18.64029">
        <ele>43.66268</ele>
        <time>2022-05-31T10:44:18.559Z</time>
      </trkpt>
      <trkpt lat="42.44471" lon="18.64018">
        <ele>43.740982</ele>
        <time>2022-05-31T10:44:21.538Z</time>
      </trkpt>
      <trkpt lat="42.44463" lon="18.64006">
        <ele>43.827117</ele>
        <time>2022-05-31T10:44:24.581Z</time>
      </trkpt>
      <trkpt lat="42.44455" lon="18.63992">
        <ele>43.916175</ele>
        <time>2022-05-31T10:44:27.553Z</time>
      </trkpt>
      <trkpt lat="42.44447" lon="18.63978">
        <ele>44.007482</ele>
        <time>2022-05-31T10:44:30.536Z</time>
      </trkpt>
      <trkpt lat="42.44439" lon="18.63964">
        <ele>44.101569</ele>
        <time>2022-05-31T10:44:33.541Z</time>
      </trkpt>
      <trkpt lat="42.44433" lon="18.63954">
        <ele>44.165597</ele>
        <time>2022-05-31T10:44:35.546Z</time>
      </trkpt>
      <trkpt lat="42.44425" lon="18.6394">
        <ele>44.256328</ele>
        <time>2022-05-31T10:44:38.554Z</time>
      </trkpt>
      <trkpt lat="42.44417" lon="18.63926">
        <ele>44.348771</ele>
        <time>2022-05-31T10:44:41.547Z</time>
      </trkpt>
      <trkpt lat="42.4441" lon="18.63912">
        <ele>44.442465</ele>
        <time>2022-05-31T10:44:44.547Z</time>
      </trkpt>
      <trkpt lat="42.44406" lon="18.63901">
        <ele>44.506188</ele>
        <time>2022-05-31T10:44:46.564Z</time>
      </trkpt>
      <trkpt lat="42.44403" lon="18.63888">
        <ele>44.542437</ele>
        <time>2022-05-31T10:44:48.536Z</time>
      </trkpt>
      <trkpt lat="42.444" lon="18.63876">
        <ele>44.557554</ele>
        <time>2022-05-31T10:44:50.535Z</time>
      </trkpt>
      <trkpt lat="42.44397" lon="18.6386">
        <ele>44.578708</ele>
        <time>2022-05-31T10:44:53.557Z</time>
      </trkpt>
      <trkpt lat="42.44394" lon="18.63843">
        <ele>44.600155</ele>
        <time>2022-05-31T10:44:56.575Z</time>
      </trkpt>
      <trkpt lat="42.4439" lon="18.63828">
        <ele>44.619431</ele>
        <time>2022-05-31T10:44:59.560Z</time>
      </trkpt>
      <trkpt lat="42.44384" lon="18.63813">
        <ele>44.639969</ele>
        <time>2022-05-31T10:45:02.597Z</time>
      </trkpt>
      <trkpt lat="42.44378" lon="18.63797">
        <ele>44.661927</ele>
        <time>2022-05-31T10:45:05.543Z</time>
      </trkpt>
      <trkpt lat="42.44373" lon="18.63781">
        <ele>44.682787</ele>
        <time>2022-05-31T10:45:08.545Z</time>
      </trkpt>
      <trkpt lat="42.44367" lon="18.63764">
        <ele>44.705362</ele>
        <time>2022-05-31T10:45:11.550Z</time>
      </trkpt>
      <trkpt lat="42.44361" lon="18.63749">
        <ele>44.726911</ele>
        <time>2022-05-31T10:45:14.547Z</time>
      </trkpt>
      <trkpt lat="42.44356" lon="18.63736">
        <ele>44.74457</ele>
        <time>2022-05-31T10:45:17.551Z</time>
      </trkpt>
      <trkpt lat="42.4435" lon="18.63724">
        <ele>44.762559</ele>
        <time>2022-05-31T10:45:20.570Z</time>
      </trkpt>
      <trkpt lat="42.44345" lon="18.63709">
        <ele>44.782337</ele>
        <time>2022-05-31T10:45:23.544Z</time>
      </trkpt>
      <trkpt lat="42.44341" lon="18.63697">
        <ele>44.798123</ele>
        <time>2022-05-31T10:45:26.549Z</time>
      </trkpt>
      <trkpt lat="42.44338" lon="18.63683">
        <ele>44.815711</ele>
        <time>2022-05-31T10:45:30.581Z</time>
      </trkpt>
      <trkpt lat="42.44335" lon="18.63667">
        <ele>44.774984</ele>
        <time>2022-05-31T10:45:34.587Z</time>
      </trkpt>
      <trkpt lat="42.44332" lon="18.63653">
        <ele>44.581646</ele>
        <time>2022-05-31T10:45:37.569Z</time>
      </trkpt>
      <trkpt lat="42.44328" lon="18.63638">
        <ele>44.383907</ele>
        <time>2022-05-31T10:45:40.542Z</time>
      </trkpt>
      <trkpt lat="42.44325" lon="18.63623">
        <ele>44.198434</ele>
        <time>2022-05-31T10:45:43.556Z</time>
      </trkpt>
      <trkpt lat="42.44323" lon="18.6361">
        <ele>44.024248</ele>
        <time>2022-05-31T10:45:46.550Z</time>
      </trkpt>
      <trkpt lat="42.44323" lon="18.63596">
        <ele>43.847355</ele>
        <time>2022-05-31T10:45:49.549Z</time>
      </trkpt>
      <trkpt lat="42.44321" lon="18.63582">
        <ele>43.670723</ele>
        <time>2022-05-31T10:45:52.545Z</time>
      </trkpt>
      <trkpt lat="42.44316" lon="18.63567">
        <ele>43.475834</ele>
        <time>2022-05-31T10:45:56.547Z</time>
      </trkpt>
      <trkpt lat="42.44311" lon="18.63555">
        <ele>43.295676</ele>
        <time>2022-05-31T10:46:01.578Z</time>
      </trkpt>
      <trkpt lat="42.44309" lon="18.63543">
        <ele>43.142494</ele>
        <time>2022-05-31T10:46:05.531Z</time>
      </trkpt>
      <trkpt lat="42.44304" lon="18.63533">
        <ele>42.985689</ele>
        <time>2022-05-31T10:46:08.534Z</time>
      </trkpt>
      <trkpt lat="42.44299" lon="18.63519">
        <ele>42.795208</ele>
        <time>2022-05-31T10:46:11.558Z</time>
      </trkpt>
      <trkpt lat="42.44297" lon="18.63502">
        <ele>42.5847</ele>
        <time>2022-05-31T10:46:14.549Z</time>
      </trkpt>
      <trkpt lat="42.44298" lon="18.63485">
        <ele>42.363269</ele>
        <time>2022-05-31T10:46:17.555Z</time>
      </trkpt>
      <trkpt lat="42.44299" lon="18.63467">
        <ele>42.143088</ele>
        <time>2022-05-31T10:46:20.540Z</time>
      </trkpt>
      <trkpt lat="42.443" lon="18.63449">
        <ele>41.912019</ele>
        <time>2022-05-31T10:46:23.556Z</time>
      </trkpt>
      <trkpt lat="42.44297" lon="18.63431">
        <ele>41.787314</ele>
        <time>2022-05-31T10:46:26.561Z</time>
      </trkpt>
      <trkpt lat="42.44294" lon="18.63419">
        <ele>41.808629</ele>
        <time>2022-05-31T10:46:28.554Z</time>
      </trkpt>
      <trkpt lat="42.44289" lon="18.63404">
        <ele>41.837656</ele>
        <time>2022-05-31T10:46:31.543Z</time>
      </trkpt>
      <trkpt lat="42.4428" lon="18.6339">
        <ele>41.868631</ele>
        <time>2022-05-31T10:46:34.553Z</time>
      </trkpt>
      <trkpt lat="42.44272" lon="18.63378">
        <ele>41.898557</ele>
        <time>2022-05-31T10:46:37.552Z</time>
      </trkpt>
      <trkpt lat="42.44263" lon="18.63364">
        <ele>41.929147</ele>
        <time>2022-05-31T10:46:40.526Z</time>
      </trkpt>
      <trkpt lat="42.44255" lon="18.63351">
        <ele>41.95947</ele>
        <time>2022-05-31T10:46:43.560Z</time>
      </trkpt>
      <trkpt lat="42.44246" lon="18.63339">
        <ele>41.987097</ele>
        <time>2022-05-31T10:46:46.537Z</time>
      </trkpt>
      <trkpt lat="42.44238" lon="18.6333">
        <ele>42.012882</ele>
        <time>2022-05-31T10:46:49.584Z</time>
      </trkpt>
      <trkpt lat="42.44229" lon="18.63322">
        <ele>42.036804</ele>
        <time>2022-05-31T10:46:52.554Z</time>
      </trkpt>
      <trkpt lat="42.44222" lon="18.63314">
        <ele>42.057958</ele>
        <time>2022-05-31T10:46:55.546Z</time>
      </trkpt>
      <trkpt lat="42.44215" lon="18.63305">
        <ele>42.081175</ele>
        <time>2022-05-31T10:46:58.629Z</time>
      </trkpt>
      <trkpt lat="42.44206" lon="18.63294">
        <ele>42.109001</ele>
        <time>2022-05-31T10:47:01.591Z</time>
      </trkpt>
      <trkpt lat="42.44199" lon="18.6328">
        <ele>42.137229</ele>
        <time>2022-05-31T10:47:04.550Z</time>
      </trkpt>
      <trkpt lat="42.44194" lon="18.63265">
        <ele>42.166139</ele>
        <time>2022-05-31T10:47:07.546Z</time>
      </trkpt>
      <trkpt lat="42.4419" lon="18.63249">
        <ele>42.194403</ele>
        <time>2022-05-31T10:47:10.537Z</time>
      </trkpt>
      <trkpt lat="42.44185" lon="18.63235">
        <ele>42.20169</ele>
        <time>2022-05-31T10:47:13.549Z</time>
      </trkpt>
      <trkpt lat="42.44177" lon="18.63224">
        <ele>42.208517</ele>
        <time>2022-05-31T10:47:17.586Z</time>
      </trkpt>
      <trkpt lat="42.44162" lon="18.63208">
        <ele>42.221024</ele>
        <time>2022-05-31T11:21:56.557Z</time>
      </trkpt>
      <trkpt lat="42.44152" lon="18.63201">
        <ele>42.227817</ele>
        <time>2022-05-31T11:22:01.546Z</time>
      </trkpt>
      <trkpt lat="42.44142" lon="18.63196">
        <ele>42.234846</ele>
        <time>2022-05-31T11:22:05.547Z</time>
      </trkpt>
      <trkpt lat="42.44133" lon="18.63192">
        <ele>42.240561</ele>
        <time>2022-05-31T11:22:08.552Z</time>
      </trkpt>
      <trkpt lat="42.44123" lon="18.63184">
        <ele>42.24784</ele>
        <time>2022-05-31T11:22:12.548Z</time>
      </trkpt>
      <trkpt lat="42.44116" lon="18.63174">
        <ele>42.254402</ele>
        <time>2022-05-31T11:22:16.566Z</time>
      </trkpt>
      <trkpt lat="42.44111" lon="18.63163">
        <ele>42.260262</ele>
        <time>2022-05-31T11:22:20.536Z</time>
      </trkpt>
      <trkpt lat="42.44108" lon="18.63148">
        <ele>42.267574</ele>
        <time>2022-05-31T11:22:24.541Z</time>
      </trkpt>
      <trkpt lat="42.44107" lon="18.63133">
        <ele>42.274402</ele>
        <time>2022-05-31T11:22:28.536Z</time>
      </trkpt>
      <trkpt lat="42.44107" lon="18.63118">
        <ele>42.281375</ele>
        <time>2022-05-31T11:22:31.545Z</time>
      </trkpt>
      <trkpt lat="42.44109" lon="18.63103">
        <ele>42.288595</ele>
        <time>2022-05-31T11:22:34.544Z</time>
      </trkpt>
      <trkpt lat="42.44111" lon="18.63088">
        <ele>42.295531</ele>
        <time>2022-05-31T11:22:37.533Z</time>
      </trkpt>
      <trkpt lat="42.44113" lon="18.63074">
        <ele>42.302126</ele>
        <time>2022-05-31T11:22:40.541Z</time>
      </trkpt>
      <trkpt lat="42.44114" lon="18.63061">
        <ele>42.315923</ele>
        <time>2022-05-31T11:22:43.537Z</time>
      </trkpt>
      <trkpt lat="42.44114" lon="18.63047">
        <ele>42.359829</ele>
        <time>2022-05-31T11:22:46.548Z</time>
      </trkpt>
      <trkpt lat="42.44113" lon="18.63034">
        <ele>42.402325</ele>
        <time>2022-05-31T11:22:49.576Z</time>
      </trkpt>
      <trkpt lat="42.4411" lon="18.63022">
        <ele>42.44694</ele>
        <time>2022-05-31T11:22:52.530Z</time>
      </trkpt>
      <trkpt lat="42.44105" lon="18.63009">
        <ele>42.492985</ele>
        <time>2022-05-31T11:22:56.538Z</time>
      </trkpt>
      <trkpt lat="42.44101" lon="18.62997">
        <ele>42.536021</ele>
        <time>2022-05-31T11:22:59.543Z</time>
      </trkpt>
      <trkpt lat="42.44096" lon="18.62984">
        <ele>42.583206</ele>
        <time>2022-05-31T11:23:02.548Z</time>
      </trkpt>
      <trkpt lat="42.4409" lon="18.62971">
        <ele>42.634311</ele>
        <time>2022-05-31T11:23:05.541Z</time>
      </trkpt>
      <trkpt lat="42.44084" lon="18.62957">
        <ele>42.686786</ele>
        <time>2022-05-31T11:23:08.541Z</time>
      </trkpt>
      <trkpt lat="42.4408" lon="18.62944">
        <ele>42.733594</ele>
        <time>2022-05-31T11:23:11.534Z</time>
      </trkpt>
      <trkpt lat="42.44076" lon="18.62928">
        <ele>42.788027</ele>
        <time>2022-05-31T11:23:14.543Z</time>
      </trkpt>
      <trkpt lat="42.44071" lon="18.62912">
        <ele>42.844908</ele>
        <time>2022-05-31T11:23:17.554Z</time>
      </trkpt>
      <trkpt lat="42.44067" lon="18.62896">
        <ele>42.899844</ele>
        <time>2022-05-31T11:23:20.536Z</time>
      </trkpt>
      <trkpt lat="42.44063" lon="18.62879">
        <ele>42.957058</ele>
        <time>2022-05-31T11:23:23.540Z</time>
      </trkpt>
      <trkpt lat="42.44059" lon="18.62865">
        <ele>43.008114</ele>
        <time>2022-05-31T11:23:26.540Z</time>
      </trkpt>
      <trkpt lat="42.44055" lon="18.6285">
        <ele>43.059783</ele>
        <time>2022-05-31T11:23:29.552Z</time>
      </trkpt>
      <trkpt lat="42.44052" lon="18.62833">
        <ele>43.043601</ele>
        <time>2022-05-31T11:23:32.545Z</time>
      </trkpt>
      <trkpt lat="42.44049" lon="18.62816">
        <ele>42.756625</ele>
        <time>2022-05-31T11:23:35.550Z</time>
      </trkpt>
      <trkpt lat="42.44047" lon="18.62803">
        <ele>42.554295</ele>
        <time>2022-05-31T11:23:37.554Z</time>
      </trkpt>
      <trkpt lat="42.44044" lon="18.62787">
        <ele>42.274677</ele>
        <time>2022-05-31T11:23:40.535Z</time>
      </trkpt>
      <trkpt lat="42.4404" lon="18.62774">
        <ele>42.062454</ele>
        <time>2022-05-31T11:23:43.562Z</time>
      </trkpt>
      <trkpt lat="42.44035" lon="18.62765">
        <ele>41.867596</ele>
        <time>2022-05-31T11:23:46.545Z</time>
      </trkpt>
      <trkpt lat="42.4403" lon="18.62749">
        <ele>41.593896</ele>
        <time>2022-05-31T11:23:49.545Z</time>
      </trkpt>
      <trkpt lat="42.44029" lon="18.62736">
        <ele>41.383233</ele>
        <time>2022-05-31T11:23:51.553Z</time>
      </trkpt>
      <trkpt lat="42.44029" lon="18.62721">
        <ele>41.148886</ele>
        <time>2022-05-31T11:23:53.544Z</time>
      </trkpt>
      <trkpt lat="42.44028" lon="18.62709">
        <ele>40.946208</ele>
        <time>2022-05-31T11:23:55.536Z</time>
      </trkpt>
      <trkpt lat="42.44027" lon="18.62691">
        <ele>40.664538</ele>
        <time>2022-05-31T11:23:58.548Z</time>
      </trkpt>
      <trkpt lat="42.44024" lon="18.62674">
        <ele>40.391871</ele>
        <time>2022-05-31T11:24:01.546Z</time>
      </trkpt>
      <trkpt lat="42.44022" lon="18.62657">
        <ele>40.107776</ele>
        <time>2022-05-31T11:24:04.545Z</time>
      </trkpt>
      <trkpt lat="42.44019" lon="18.62641">
        <ele>39.833802</ele>
        <time>2022-05-31T11:24:07.548Z</time>
      </trkpt>
      <trkpt lat="42.44015" lon="18.62629">
        <ele>39.636082</ele>
        <time>2022-05-31T11:24:09.551Z</time>
      </trkpt>
      <trkpt lat="42.4401" lon="18.62613">
        <ele>39.348955</ele>
        <time>2022-05-31T11:24:12.554Z</time>
      </trkpt>
      <trkpt lat="42.44005" lon="18.62601">
        <ele>39.192672</ele>
        <time>2022-05-31T11:24:14.547Z</time>
      </trkpt>
      <trkpt lat="42.44001" lon="18.62585">
        <ele>39.166755</ele>
        <time>2022-05-31T11:24:17.578Z</time>
      </trkpt>
      <trkpt lat="42.43996" lon="18.6257">
        <ele>39.143205</ele>
        <time>2022-05-31T11:24:20.512Z</time>
      </trkpt>
      <trkpt lat="42.43992" lon="18.62557">
        <ele>39.122273</ele>
        <time>2022-05-31T11:24:23.553Z</time>
      </trkpt>
      <trkpt lat="42.43988" lon="18.6254">
        <ele>39.097314</ele>
        <time>2022-05-31T11:24:26.547Z</time>
      </trkpt>
      <trkpt lat="42.43984" lon="18.62529">
        <ele>39.079246</ele>
        <time>2022-05-31T11:24:28.550Z</time>
      </trkpt>
      <trkpt lat="42.43977" lon="18.62517">
        <ele>39.056164</ele>
        <time>2022-05-31T11:24:31.549Z</time>
      </trkpt>
      <trkpt lat="42.43968" lon="18.62504">
        <ele>39.029682</ele>
        <time>2022-05-31T11:24:34.541Z</time>
      </trkpt>
      <trkpt lat="42.43962" lon="18.62494">
        <ele>39.011329</ele>
        <time>2022-05-31T11:24:36.557Z</time>
      </trkpt>
      <trkpt lat="42.43955" lon="18.62479">
        <ele>38.985096</ele>
        <time>2022-05-31T11:24:39.550Z</time>
      </trkpt>
      <trkpt lat="42.4395" lon="18.62463">
        <ele>38.960157</ele>
        <time>2022-05-31T11:24:42.529Z</time>
      </trkpt>
      <trkpt lat="42.43947" lon="18.62452">
        <ele>38.94233</ele>
        <time>2022-05-31T11:24:45.585Z</time>
      </trkpt>
      <trkpt lat="42.43946" lon="18.62438">
        <ele>38.921514</ele>
        <time>2022-05-31T11:24:49.582Z</time>
      </trkpt>
      <trkpt lat="42.43946" lon="18.62421">
        <ele>38.89652</ele>
        <time>2022-05-31T11:24:52.531Z</time>
      </trkpt>
      <trkpt lat="42.43948" lon="18.62404">
        <ele>38.87159</ele>
        <time>2022-05-31T11:24:55.572Z</time>
      </trkpt>
      <trkpt lat="42.43949" lon="18.6239">
        <ele>38.851141</ele>
        <time>2022-05-31T11:24:58.541Z</time>
      </trkpt>
      <trkpt lat="42.43952" lon="18.62375">
        <ele>38.913954</ele>
        <time>2022-05-31T11:25:01.542Z</time>
      </trkpt>
      <trkpt lat="42.43955" lon="18.6236">
        <ele>39.049055</ele>
        <time>2022-05-31T11:25:04.540Z</time>
      </trkpt>
      <trkpt lat="42.43958" lon="18.62343">
        <ele>39.197373</ele>
        <time>2022-05-31T11:25:07.552Z</time>
      </trkpt>
      <trkpt lat="42.43959" lon="18.6233">
        <ele>39.305367</ele>
        <time>2022-05-31T11:25:09.544Z</time>
      </trkpt>
      <trkpt lat="42.4396" lon="18.62318">
        <ele>39.413715</ele>
        <time>2022-05-31T11:25:11.552Z</time>
      </trkpt>
      <trkpt lat="42.43958" lon="18.62301">
        <ele>39.556509</ele>
        <time>2022-05-31T11:25:14.551Z</time>
      </trkpt>
      <trkpt lat="42.43955" lon="18.62284">
        <ele>39.704087</ele>
        <time>2022-05-31T11:25:17.589Z</time>
      </trkpt>
      <trkpt lat="42.43951" lon="18.62269">
        <ele>39.840507</ele>
        <time>2022-05-31T11:25:20.544Z</time>
      </trkpt>
      <trkpt lat="42.43946" lon="18.62254">
        <ele>39.983215</ele>
        <time>2022-05-31T11:25:23.534Z</time>
      </trkpt>
      <trkpt lat="42.43942" lon="18.62238">
        <ele>40.121994</ele>
        <time>2022-05-31T11:25:26.527Z</time>
      </trkpt>
      <trkpt lat="42.43939" lon="18.62224">
        <ele>40.247056</ele>
        <time>2022-05-31T11:25:29.536Z</time>
      </trkpt>
      <trkpt lat="42.43937" lon="18.62208">
        <ele>40.389082</ele>
        <time>2022-05-31T11:25:32.537Z</time>
      </trkpt>
      <trkpt lat="42.43936" lon="18.62191">
        <ele>40.529858</ele>
        <time>2022-05-31T11:25:35.560Z</time>
      </trkpt>
      <trkpt lat="42.43934" lon="18.62176">
        <ele>40.662898</ele>
        <time>2022-05-31T11:25:38.546Z</time>
      </trkpt>
      <trkpt lat="42.43932" lon="18.62159">
        <ele>40.806713</ele>
        <time>2022-05-31T11:25:41.538Z</time>
      </trkpt>
      <trkpt lat="42.43929" lon="18.62142">
        <ele>40.86481</ele>
        <time>2022-05-31T11:25:44.551Z</time>
      </trkpt>
      <trkpt lat="42.43927" lon="18.6213">
        <ele>40.730375</ele>
        <time>2022-05-31T11:25:46.547Z</time>
      </trkpt>
      <trkpt lat="42.43925" lon="18.62118">
        <ele>40.594039</ele>
        <time>2022-05-31T11:25:48.534Z</time>
      </trkpt>
      <trkpt lat="42.43921" lon="18.62106">
        <ele>40.458829</ele>
        <time>2022-05-31T11:25:50.532Z</time>
      </trkpt>
      <trkpt lat="42.43918" lon="18.62094">
        <ele>40.325624</ele>
        <time>2022-05-31T11:25:52.552Z</time>
      </trkpt>
      <trkpt lat="42.43914" lon="18.62083">
        <ele>40.193618</ele>
        <time>2022-05-31T11:25:54.544Z</time>
      </trkpt>
      <trkpt lat="42.43909" lon="18.62072">
        <ele>40.060083</ele>
        <time>2022-05-31T11:25:56.544Z</time>
      </trkpt>
      <trkpt lat="42.43904" lon="18.62061">
        <ele>39.925397</ele>
        <time>2022-05-31T11:25:58.547Z</time>
      </trkpt>
      <trkpt lat="42.43899" lon="18.62051">
        <ele>39.793615</ele>
        <time>2022-05-31T11:26:00.534Z</time>
      </trkpt>
      <trkpt lat="42.43893" lon="18.62042">
        <ele>39.660637</ele>
        <time>2022-05-31T11:26:02.536Z</time>
      </trkpt>
      <trkpt lat="42.43883" lon="18.62029">
        <ele>39.464912</ele>
        <time>2022-05-31T11:26:05.543Z</time>
      </trkpt>
      <trkpt lat="42.43876" lon="18.62021">
        <ele>39.334094</ele>
        <time>2022-05-31T11:26:07.540Z</time>
      </trkpt>
      <trkpt lat="42.4387" lon="18.62012">
        <ele>39.198645</ele>
        <time>2022-05-31T11:26:09.544Z</time>
      </trkpt>
      <trkpt lat="42.43864" lon="18.62002">
        <ele>39.065667</ele>
        <time>2022-05-31T11:26:11.548Z</time>
      </trkpt>
      <trkpt lat="42.43859" lon="18.61987">
        <ele>38.887713</ele>
        <time>2022-05-31T11:26:14.566Z</time>
      </trkpt>
      <trkpt lat="42.43857" lon="18.61974">
        <ele>38.746488</ele>
        <time>2022-05-31T11:26:17.558Z</time>
      </trkpt>
      <trkpt lat="42.43856" lon="18.61961">
        <ele>38.603808</ele>
        <time>2022-05-31T11:26:21.543Z</time>
      </trkpt>
      <trkpt lat="42.43858" lon="18.61947">
        <ele>38.456084</ele>
        <time>2022-05-31T11:26:24.526Z</time>
      </trkpt>
      <trkpt lat="42.43861" lon="18.61933">
        <ele>38.310678</ele>
        <time>2022-05-31T11:26:27.545Z</time>
      </trkpt>
      <trkpt lat="42.43864" lon="18.61917">
        <ele>38.245047</ele>
        <time>2022-05-31T11:26:30.537Z</time>
      </trkpt>
      <trkpt lat="42.43866" lon="18.61901">
        <ele>38.176869</ele>
        <time>2022-05-31T11:26:33.554Z</time>
      </trkpt>
      <trkpt lat="42.43866" lon="18.61884">
        <ele>38.106437</ele>
        <time>2022-05-31T11:26:36.541Z</time>
      </trkpt>
      <trkpt lat="42.43866" lon="18.61866">
        <ele>38.034045</ele>
        <time>2022-05-31T11:26:39.541Z</time>
      </trkpt>
      <trkpt lat="42.43866" lon="18.61851">
        <ele>37.970279</ele>
        <time>2022-05-31T11:26:42.588Z</time>
      </trkpt>
      <trkpt lat="42.43863" lon="18.61838">
        <ele>37.912805</ele>
        <time>2022-05-31T11:26:45.545Z</time>
      </trkpt>
      <trkpt lat="42.43859" lon="18.61823">
        <ele>37.847264</ele>
        <time>2022-05-31T11:26:48.576Z</time>
      </trkpt>
      <trkpt lat="42.43855" lon="18.61805">
        <ele>37.772101</ele>
        <time>2022-05-31T11:26:51.543Z</time>
      </trkpt>
      <trkpt lat="42.43853" lon="18.61788">
        <ele>37.697554</ele>
        <time>2022-05-31T11:26:54.542Z</time>
      </trkpt>
      <trkpt lat="42.43851" lon="18.61775">
        <ele>37.646974</ele>
        <time>2022-05-31T11:26:56.541Z</time>
      </trkpt>
      <trkpt lat="42.43851" lon="18.61763">
        <ele>37.596016</ele>
        <time>2022-05-31T11:26:58.544Z</time>
      </trkpt>
      <trkpt lat="42.43851" lon="18.61747">
        <ele>37.528944</ele>
        <time>2022-05-31T11:27:01.547Z</time>
      </trkpt>
      <trkpt lat="42.43851" lon="18.61732">
        <ele>37.46523</ele>
        <time>2022-05-31T11:27:04.542Z</time>
      </trkpt>
      <trkpt lat="42.43849" lon="18.61714">
        <ele>37.389654</ele>
        <time>2022-05-31T11:27:07.544Z</time>
      </trkpt>
      <trkpt lat="42.43846" lon="18.617">
        <ele>37.33274</ele>
        <time>2022-05-31T11:27:09.550Z</time>
      </trkpt>
      <trkpt lat="42.43841" lon="18.61684">
        <ele>37.531272</ele>
        <time>2022-05-31T11:27:12.536Z</time>
      </trkpt>
      <trkpt lat="42.43837" lon="18.61672">
        <ele>37.752584</ele>
        <time>2022-05-31T11:27:14.535Z</time>
      </trkpt>
      <trkpt lat="42.43833" lon="18.61659">
        <ele>37.972232</ele>
        <time>2022-05-31T11:27:16.572Z</time>
      </trkpt>
      <trkpt lat="42.43831" lon="18.61647">
        <ele>38.182855</ele>
        <time>2022-05-31T11:27:18.551Z</time>
      </trkpt>
      <trkpt lat="42.43829" lon="18.61635">
        <ele>38.392998</ele>
        <time>2022-05-31T11:27:20.565Z</time>
      </trkpt>
      <trkpt lat="42.43828" lon="18.61622">
        <ele>38.602748</ele>
        <time>2022-05-31T11:27:22.550Z</time>
      </trkpt>
      <trkpt lat="42.43828" lon="18.6161">
        <ele>38.806073</ele>
        <time>2022-05-31T11:27:24.536Z</time>
      </trkpt>
      <trkpt lat="42.43829" lon="18.61592">
        <ele>39.103351</ele>
        <time>2022-05-31T11:27:27.573Z</time>
      </trkpt>
      <trkpt lat="42.43832" lon="18.61576">
        <ele>39.393606</ele>
        <time>2022-05-31T11:27:30.536Z</time>
      </trkpt>
      <trkpt lat="42.43835" lon="18.61558">
        <ele>39.694007</ele>
        <time>2022-05-31T11:27:33.588Z</time>
      </trkpt>
      <trkpt lat="42.43838" lon="18.61542">
        <ele>39.971822</ele>
        <time>2022-05-31T11:27:36.548Z</time>
      </trkpt>
      <trkpt lat="42.43841" lon="18.61526">
        <ele>40.245952</ele>
        <time>2022-05-31T11:27:39.544Z</time>
      </trkpt>
      <trkpt lat="42.43842" lon="18.61513">
        <ele>40.461234</ele>
        <time>2022-05-31T11:27:41.549Z</time>
      </trkpt>
      <trkpt lat="42.43842" lon="18.615">
        <ele>40.686272</ele>
        <time>2022-05-31T11:27:43.551Z</time>
      </trkpt>
      <trkpt lat="42.43839" lon="18.61487">
        <ele>40.900742</ele>
        <time>2022-05-31T11:27:45.539Z</time>
      </trkpt>
      <trkpt lat="42.43834" lon="18.61469">
        <ele>41.222815</ele>
        <time>2022-05-31T11:27:48.561Z</time>
      </trkpt>
      <trkpt lat="42.4383" lon="18.61458">
        <ele>41.435498</ele>
        <time>2022-05-31T11:27:50.540Z</time>
      </trkpt>
      <trkpt lat="42.4382" lon="18.61445">
        <ele>41.727932</ele>
        <time>2022-05-31T11:27:53.559Z</time>
      </trkpt>
      <trkpt lat="42.43812" lon="18.61437">
        <ele>41.952122</ele>
        <time>2022-05-31T11:27:55.570Z</time>
      </trkpt>
      <trkpt lat="42.43804" lon="18.61431">
        <ele>42.155978</ele>
        <time>2022-05-31T11:27:57.519Z</time>
      </trkpt>
      <trkpt lat="42.43792" lon="18.61423">
        <ele>42.448758</ele>
        <time>2022-05-31T11:28:00.530Z</time>
      </trkpt>
      <trkpt lat="42.43784" lon="18.61419">
        <ele>42.648923</ele>
        <time>2022-05-31T11:28:02.564Z</time>
      </trkpt>
      <trkpt lat="42.43771" lon="18.61412">
        <ele>42.941401</ele>
        <time>2022-05-31T11:28:05.571Z</time>
      </trkpt>
      <trkpt lat="42.43762" lon="18.61409">
        <ele>43.1427</ele>
        <time>2022-05-31T11:28:08.549Z</time>
      </trkpt>
      <trkpt lat="42.43752" lon="18.61407">
        <ele>43.364407</ele>
        <time>2022-05-31T11:28:12.547Z</time>
      </trkpt>
      <trkpt lat="42.43743" lon="18.61404">
        <ele>43.57843</ele>
        <time>2022-05-31T11:28:15.544Z</time>
      </trkpt>
      <trkpt lat="42.43734" lon="18.614">
        <ele>43.790977</ele>
        <time>2022-05-31T11:28:18.549Z</time>
      </trkpt>
      <trkpt lat="42.43724" lon="18.61393">
        <ele>44.032894</ele>
        <time>2022-05-31T11:28:21.548Z</time>
      </trkpt>
      <trkpt lat="42.43715" lon="18.61385">
        <ele>44.268759</ele>
        <time>2022-05-31T11:28:24.560Z</time>
      </trkpt>
      <trkpt lat="42.43709" lon="18.6137">
        <ele>44.54748</ele>
        <time>2022-05-31T11:28:28.569Z</time>
      </trkpt>
      <trkpt lat="42.43703" lon="18.61354">
        <ele>44.833342</ele>
        <time>2022-05-31T11:28:31.548Z</time>
      </trkpt>
      <trkpt lat="42.43697" lon="18.61339">
        <ele>45.110144</ele>
        <time>2022-05-31T11:28:34.529Z</time>
      </trkpt>
      <trkpt lat="42.43692" lon="18.61324">
        <ele>45.331904</ele>
        <time>2022-05-31T11:28:37.547Z</time>
      </trkpt>
      <trkpt lat="42.43688" lon="18.61309">
        <ele>45.337684</ele>
        <time>2022-05-31T11:28:40.569Z</time>
      </trkpt>
      <trkpt lat="42.43684" lon="18.61294">
        <ele>45.343131</ele>
        <time>2022-05-31T11:28:43.549Z</time>
      </trkpt>
      <trkpt lat="42.43681" lon="18.61282">
        <ele>45.347954</ele>
        <time>2022-05-31T11:28:46.540Z</time>
      </trkpt>
      <trkpt lat="42.43678" lon="18.61269">
        <ele>45.352711</ele>
        <time>2022-05-31T11:28:50.588Z</time>
      </trkpt>
      <trkpt lat="42.43674" lon="18.61257">
        <ele>45.357112</ele>
        <time>2022-05-31T11:28:53.551Z</time>
      </trkpt>
      <trkpt lat="42.4367" lon="18.61245">
        <ele>45.362</ele>
        <time>2022-05-31T11:28:56.545Z</time>
      </trkpt>
      <trkpt lat="42.43665" lon="18.61234">
        <ele>45.366669</ele>
        <time>2022-05-31T11:28:59.545Z</time>
      </trkpt>
      <trkpt lat="42.4366" lon="18.6122">
        <ele>45.371921</ele>
        <time>2022-05-31T11:29:02.548Z</time>
      </trkpt>
      <trkpt lat="42.43658" lon="18.61209">
        <ele>45.376309</ele>
        <time>2022-05-31T11:29:04.564Z</time>
      </trkpt>
      <trkpt lat="42.43656" lon="18.61195">
        <ele>45.381095</ele>
        <time>2022-05-31T11:29:06.550Z</time>
      </trkpt>
      <trkpt lat="42.43655" lon="18.61182">
        <ele>45.385778</ele>
        <time>2022-05-31T11:29:08.539Z</time>
      </trkpt>
      <trkpt lat="42.43653" lon="18.61169">
        <ele>45.390804</ele>
        <time>2022-05-31T11:29:10.534Z</time>
      </trkpt>
      <trkpt lat="42.43651" lon="18.61156">
        <ele>45.395273</ele>
        <time>2022-05-31T11:29:12.541Z</time>
      </trkpt>
      <trkpt lat="42.43647" lon="18.6114">
        <ele>45.401432</ele>
        <time>2022-05-31T11:29:15.550Z</time>
      </trkpt>
      <trkpt lat="42.43642" lon="18.61124">
        <ele>45.407573</ele>
        <time>2022-05-31T11:29:18.559Z</time>
      </trkpt>
      <trkpt lat="42.43638" lon="18.61111">
        <ele>45.412715</ele>
        <time>2022-05-31T11:29:21.545Z</time>
      </trkpt>
      <trkpt lat="42.43633" lon="18.611">
        <ele>45.417259</ele>
        <time>2022-05-31T11:29:24.549Z</time>
      </trkpt>
      <trkpt lat="42.43629" lon="18.61088">
        <ele>45.520102</ele>
        <time>2022-05-31T11:29:26.541Z</time>
      </trkpt>
      <trkpt lat="42.43621" lon="18.61073">
        <ele>45.668943</ele>
        <time>2022-05-31T11:29:29.549Z</time>
      </trkpt>
      <trkpt lat="42.43612" lon="18.6106">
        <ele>45.814501</ele>
        <time>2022-05-31T11:29:32.553Z</time>
      </trkpt>
      <trkpt lat="42.43603" lon="18.61049">
        <ele>45.956825</ele>
        <time>2022-05-31T11:29:35.546Z</time>
      </trkpt>
      <trkpt lat="42.43592" lon="18.61042">
        <ele>46.093595</ele>
        <time>2022-05-31T11:29:38.532Z</time>
      </trkpt>
      <trkpt lat="42.4358" lon="18.61033">
        <ele>46.242603</ele>
        <time>2022-05-31T11:29:41.534Z</time>
      </trkpt>
      <trkpt lat="42.4357" lon="18.61022">
        <ele>46.392658</ele>
        <time>2022-05-31T11:29:44.538Z</time>
      </trkpt>
      <trkpt lat="42.43562" lon="18.61015">
        <ele>46.494624</ele>
        <time>2022-05-31T11:29:46.567Z</time>
      </trkpt>
      <trkpt lat="42.43551" lon="18.61007">
        <ele>46.63671</ele>
        <time>2022-05-31T11:29:49.541Z</time>
      </trkpt>
      <trkpt lat="42.4354" lon="18.61">
        <ele>46.777373</ele>
        <time>2022-05-31T11:29:52.565Z</time>
      </trkpt>
      <trkpt lat="42.43531" lon="18.6099">
        <ele>46.905919</ele>
        <time>2022-05-31T11:29:55.548Z</time>
      </trkpt>
      <trkpt lat="42.43527" lon="18.60977">
        <ele>47.01956</ele>
        <time>2022-05-31T11:29:57.550Z</time>
      </trkpt>
      <trkpt lat="42.43525" lon="18.6096">
        <ele>47.162995</ele>
        <time>2022-05-31T11:30:00.546Z</time>
      </trkpt>
      <trkpt lat="42.43525" lon="18.60946">
        <ele>47.280912</ele>
        <time>2022-05-31T11:30:03.566Z</time>
      </trkpt>
      <trkpt lat="42.43524" lon="18.60929">
        <ele>47.41926</ele>
        <time>2022-05-31T11:30:06.549Z</time>
      </trkpt>
      <trkpt lat="42.43523" lon="18.60911">
        <ele>47.64337</ele>
        <time>2022-05-31T11:30:09.560Z</time>
      </trkpt>
      <trkpt lat="42.43522" lon="18.60899">
        <ele>47.806903</ele>
        <time>2022-05-31T11:30:11.541Z</time>
      </trkpt>
      <trkpt lat="42.43521" lon="18.60881">
        <ele>48.042102</ele>
        <time>2022-05-31T11:30:14.547Z</time>
      </trkpt>
      <trkpt lat="42.43521" lon="18.60866">
        <ele>48.227176</ele>
        <time>2022-05-31T11:30:17.546Z</time>
      </trkpt>
      <trkpt lat="42.43518" lon="18.6085">
        <ele>48.439212</ele>
        <time>2022-05-31T11:30:23.544Z</time>
      </trkpt>
      <trkpt lat="42.43516" lon="18.60836">
        <ele>48.628265</ele>
        <time>2022-05-31T11:30:26.570Z</time>
      </trkpt>
      <trkpt lat="42.43513" lon="18.6082">
        <ele>48.840666</ele>
        <time>2022-05-31T11:30:29.547Z</time>
      </trkpt>
      <trkpt lat="42.4351" lon="18.60805">
        <ele>49.041804</ele>
        <time>2022-05-31T11:30:32.549Z</time>
      </trkpt>
      <trkpt lat="42.43508" lon="18.60793">
        <ele>49.210127</ele>
        <time>2022-05-31T11:30:35.545Z</time>
      </trkpt>
      <trkpt lat="42.43506" lon="18.6078">
        <ele>49.374347</ele>
        <time>2022-05-31T11:30:39.543Z</time>
      </trkpt>
      <trkpt lat="42.43502" lon="18.60768">
        <ele>49.546164</ele>
        <time>2022-05-31T11:30:42.541Z</time>
      </trkpt>
      <trkpt lat="42.43499" lon="18.60753">
        <ele>49.74484</ele>
        <time>2022-05-31T11:30:45.548Z</time>
      </trkpt>
      <trkpt lat="42.43498" lon="18.60737">
        <ele>49.960397</ele>
        <time>2022-05-31T11:30:48.545Z</time>
      </trkpt>
      <trkpt lat="42.43497" lon="18.60721">
        <ele>50.16064</ele>
        <time>2022-05-31T11:30:51.551Z</time>
      </trkpt>
      <trkpt lat="42.43498" lon="18.60703">
        <ele>50.394714</ele>
        <time>2022-05-31T11:30:54.543Z</time>
      </trkpt>
      <trkpt lat="42.43501" lon="18.60691">
        <ele>50.565533</ele>
        <time>2022-05-31T11:30:56.549Z</time>
      </trkpt>
      <trkpt lat="42.43506" lon="18.60674">
        <ele>50.350814</ele>
        <time>2022-05-31T11:30:59.541Z</time>
      </trkpt>
      <trkpt lat="42.43512" lon="18.60659">
        <ele>50.10046</ele>
        <time>2022-05-31T11:31:02.540Z</time>
      </trkpt>
      <trkpt lat="42.43515" lon="18.60644">
        <ele>49.858774</ele>
        <time>2022-05-31T11:31:05.552Z</time>
      </trkpt>
      <trkpt lat="42.43517" lon="18.60628">
        <ele>49.614101</ele>
        <time>2022-05-31T11:31:08.543Z</time>
      </trkpt>
      <trkpt lat="42.43516" lon="18.60612">
        <ele>49.368248</ele>
        <time>2022-05-31T11:31:11.536Z</time>
      </trkpt>
      <trkpt lat="42.43512" lon="18.60599">
        <ele>49.146643</ele>
        <time>2022-05-31T11:31:14.546Z</time>
      </trkpt>
      <trkpt lat="42.43507" lon="18.60584">
        <ele>48.901626</ele>
        <time>2022-05-31T11:31:17.541Z</time>
      </trkpt>
      <trkpt lat="42.435" lon="18.60572">
        <ele>48.671005</ele>
        <time>2022-05-31T11:31:20.530Z</time>
      </trkpt>
      <trkpt lat="42.43491" lon="18.6056">
        <ele>48.409682</ele>
        <time>2022-05-31T11:31:23.584Z</time>
      </trkpt>
      <trkpt lat="42.43485" lon="18.60543">
        <ele>48.138433</ele>
        <time>2022-05-31T11:31:26.555Z</time>
      </trkpt>
      <trkpt lat="42.43487" lon="18.60528">
        <ele>47.903407</ele>
        <time>2022-05-31T11:31:29.619Z</time>
      </trkpt>
      <trkpt lat="42.43489" lon="18.60511">
        <ele>47.6348</ele>
        <time>2022-05-31T11:31:32.531Z</time>
      </trkpt>
      <trkpt lat="42.43492" lon="18.60494">
        <ele>47.372237</ele>
        <time>2022-05-31T11:31:35.538Z</time>
      </trkpt>
      <trkpt lat="42.43496" lon="18.6048">
        <ele>47.144079</ele>
        <time>2022-05-31T11:31:38.547Z</time>
      </trkpt>
      <trkpt lat="42.43504" lon="18.60469">
        <ele>46.920739</ele>
        <time>2022-05-31T11:31:41.537Z</time>
      </trkpt>
      <trkpt lat="42.4351" lon="18.60456">
        <ele>47.010619</ele>
        <time>2022-05-31T11:31:44.556Z</time>
      </trkpt>
      <trkpt lat="42.43513" lon="18.6044">
        <ele>47.142139</ele>
        <time>2022-05-31T11:31:47.575Z</time>
      </trkpt>
      <trkpt lat="42.43513" lon="18.60424">
        <ele>47.280626</ele>
        <time>2022-05-31T11:31:50.567Z</time>
      </trkpt>
      <trkpt lat="42.43513" lon="18.60406">
        <ele>47.42498</ele>
        <time>2022-05-31T11:31:53.543Z</time>
      </trkpt>
      <trkpt lat="42.43513" lon="18.60389">
        <ele>47.567613</ele>
        <time>2022-05-31T11:31:56.542Z</time>
      </trkpt>
      <trkpt lat="42.43513" lon="18.60377">
        <ele>47.672753</ele>
        <time>2022-05-31T11:31:58.566Z</time>
      </trkpt>
      <trkpt lat="42.43513" lon="18.60364">
        <ele>47.77701</ele>
        <time>2022-05-31T11:32:00.529Z</time>
      </trkpt>
      <trkpt lat="42.43512" lon="18.60352">
        <ele>47.878436</ele>
        <time>2022-05-31T11:32:02.594Z</time>
      </trkpt>
      <trkpt lat="42.43511" lon="18.6034">
        <ele>47.980691</ele>
        <time>2022-05-31T11:32:04.562Z</time>
      </trkpt>
      <trkpt lat="42.4351" lon="18.60328">
        <ele>48.082369</ele>
        <time>2022-05-31T11:32:06.553Z</time>
      </trkpt>
      <trkpt lat="42.43507" lon="18.60311">
        <ele>48.225083</ele>
        <time>2022-05-31T11:32:09.545Z</time>
      </trkpt>
      <trkpt lat="42.43507" lon="18.60295">
        <ele>48.361195</ele>
        <time>2022-05-31T11:32:12.535Z</time>
      </trkpt>
      <trkpt lat="42.43512" lon="18.60283">
        <ele>48.477035</ele>
        <time>2022-05-31T11:32:15.567Z</time>
      </trkpt>
      <trkpt lat="42.4352" lon="18.60275">
        <ele>48.593113</ele>
        <time>2022-05-31T11:32:20.523Z</time>
      </trkpt>
      <trkpt lat="42.4352" lon="18.60262">
        <ele>48.704921</ele>
        <time>2022-05-31T11:32:25.550Z</time>
      </trkpt>
      <trkpt lat="42.4351" lon="18.60254">
        <ele>48.832937</ele>
        <time>2022-05-31T11:32:29.536Z</time>
      </trkpt>
      <trkpt lat="42.43499" lon="18.60249">
        <ele>48.986214</ele>
        <time>2022-05-31T11:32:33.535Z</time>
      </trkpt>
      <trkpt lat="42.43495" lon="18.60236">
        <ele>49.16374</ele>
        <time>2022-05-31T11:32:37.541Z</time>
      </trkpt>
      <trkpt lat="42.43491" lon="18.60221">
        <ele>49.371207</ele>
        <time>2022-05-31T11:32:41.555Z</time>
      </trkpt>
      <trkpt lat="42.43488" lon="18.60209">
        <ele>49.53117</ele>
        <time>2022-05-31T11:32:44.532Z</time>
      </trkpt>
      <trkpt lat="42.43486" lon="18.60196">
        <ele>49.698514</ele>
        <time>2022-05-31T11:32:47.524Z</time>
      </trkpt>
      <trkpt lat="42.43483" lon="18.60184">
        <ele>49.866456</ele>
        <time>2022-05-31T11:32:50.521Z</time>
      </trkpt>
      <trkpt lat="42.4348" lon="18.6017">
        <ele>50.059556</ele>
        <time>2022-05-31T11:32:53.547Z</time>
      </trkpt>
      <trkpt lat="42.43476" lon="18.60155">
        <ele>50.258944</ele>
        <time>2022-05-31T11:32:56.531Z</time>
      </trkpt>
      <trkpt lat="42.43474" lon="18.60139">
        <ele>50.457474</ele>
        <time>2022-05-31T11:32:59.534Z</time>
      </trkpt>
      <trkpt lat="42.43473" lon="18.60127">
        <ele>50.615468</ele>
        <time>2022-05-31T11:33:02.546Z</time>
      </trkpt>
      <trkpt lat="42.43475" lon="18.60114">
        <ele>50.781582</ele>
        <time>2022-05-31T11:33:05.533Z</time>
      </trkpt>
      <trkpt lat="42.43479" lon="18.60101">
        <ele>50.969182</ele>
        <time>2022-05-31T11:33:08.529Z</time>
      </trkpt>
      <trkpt lat="42.43482" lon="18.60088">
        <ele>51.138905</ele>
        <time>2022-05-31T11:33:11.542Z</time>
      </trkpt>
      <trkpt lat="42.43485" lon="18.60076">
        <ele>51.297811</ele>
        <time>2022-05-31T11:33:14.541Z</time>
      </trkpt>
      <trkpt lat="42.43489" lon="18.60062">
        <ele>51.492354</ele>
        <time>2022-05-31T11:33:18.535Z</time>
      </trkpt>
      <trkpt lat="42.43494" lon="18.6005">
        <ele>51.667163</ele>
        <time>2022-05-31T11:33:22.519Z</time>
      </trkpt>
      <trkpt lat="42.43497" lon="18.60038">
        <ele>51.832174</ele>
        <time>2022-05-31T11:33:26.514Z</time>
      </trkpt>
      <trkpt lat="42.43501" lon="18.60026">
        <ele>51.9982</ele>
        <time>2022-05-31T11:33:30.513Z</time>
      </trkpt>
      <trkpt lat="42.43506" lon="18.60016">
        <ele>52.15099</ele>
        <time>2022-05-31T11:33:34.513Z</time>
      </trkpt>
      <trkpt lat="42.43512" lon="18.60006">
        <ele>52.301704</ele>
        <time>2022-05-31T11:33:38.514Z</time>
      </trkpt>
      <trkpt lat="42.43521" lon="18.6001">
        <ele>52.459356</ele>
        <time>2022-05-31T11:33:42.521Z</time>
      </trkpt>
      <trkpt lat="42.43531" lon="18.60017">
        <ele>52.634198</ele>
        <time>2022-05-31T11:33:48.511Z</time>
      </trkpt>
      <trkpt lat="42.43539" lon="18.60022">
        <ele>52.791561</ele>
        <time>2022-05-31T11:33:53.521Z</time>
      </trkpt>
      <trkpt lat="42.43548" lon="18.60027">
        <ele>52.952979</ele>
        <time>2022-05-31T11:33:58.524Z</time>
      </trkpt>
      <trkpt lat="42.43558" lon="18.60031">
        <ele>53.121313</ele>
        <time>2022-05-31T11:34:04.520Z</time>
      </trkpt>
      <trkpt lat="42.43566" lon="18.60021">
        <ele>53.296879</ele>
        <time>2022-05-31T11:34:10.511Z</time>
      </trkpt>
      <trkpt lat="42.4357" lon="18.60009">
        <ele>53.460149</ele>
        <time>2022-05-31T11:34:14.509Z</time>
      </trkpt>
      <trkpt lat="42.43574" lon="18.59997">
        <ele>53.616202</ele>
        <time>2022-05-31T11:34:18.524Z</time>
      </trkpt>
      <trkpt lat="42.43577" lon="18.59984">
        <ele>53.777936</ele>
        <time>2022-05-31T11:34:22.517Z</time>
      </trkpt>
      <trkpt lat="42.43582" lon="18.59971">
        <ele>53.957425</ele>
        <time>2022-05-31T11:34:27.524Z</time>
      </trkpt>
      <trkpt lat="42.43588" lon="18.5996">
        <ele>54.115108</ele>
        <time>2022-05-31T11:34:32.513Z</time>
      </trkpt>
      <trkpt lat="42.43595" lon="18.59951">
        <ele>54.280965</ele>
        <time>2022-05-31T11:34:38.516Z</time>
      </trkpt>
      <trkpt lat="42.43602" lon="18.59941">
        <ele>54.451662</ele>
        <time>2022-05-31T11:34:44.528Z</time>
      </trkpt>
      <trkpt lat="42.43608" lon="18.59932">
        <ele>54.602924</ele>
        <time>2022-05-31T11:34:49.518Z</time>
      </trkpt>
      <trkpt lat="42.43615" lon="18.59922">
        <ele>54.755433</ele>
        <time>2022-05-31T11:34:54.514Z</time>
      </trkpt>
      <trkpt lat="42.43621" lon="18.59912">
        <ele>54.911583</ele>
        <time>2022-05-31T11:34:59.518Z</time>
      </trkpt>
      <trkpt lat="42.43631" lon="18.59912">
        <ele>55.063094</ele>
        <time>2022-05-31T11:35:05.525Z</time>
      </trkpt>
      <trkpt lat="42.4365" lon="18.59919">
        <ele>55.317531</ele>
        <time>2022-05-31T11:35:57.523Z</time>
      </trkpt>
      <trkpt lat="42.43657" lon="18.5991">
        <ele>55.442129</ele>
        <time>2022-05-31T11:36:03.513Z</time>
      </trkpt>
      <trkpt lat="42.43661" lon="18.59899">
        <ele>55.56206</ele>
        <time>2022-05-31T11:36:06.519Z</time>
      </trkpt>
      <trkpt lat="42.43664" lon="18.59885">
        <ele>55.698483</ele>
        <time>2022-05-31T11:36:09.538Z</time>
      </trkpt>
      <trkpt lat="42.43669" lon="18.59869">
        <ele>55.866088</ele>
        <time>2022-05-31T11:36:12.511Z</time>
      </trkpt>
      <trkpt lat="42.43672" lon="18.59856">
        <ele>56.000725</ele>
        <time>2022-05-31T11:36:14.524Z</time>
      </trkpt>
      <trkpt lat="42.43676" lon="18.59842">
        <ele>56.146635</ele>
        <time>2022-05-31T11:36:16.516Z</time>
      </trkpt>
      <trkpt lat="42.4368" lon="18.59827">
        <ele>56.295707</ele>
        <time>2022-05-31T11:36:18.518Z</time>
      </trkpt>
      <trkpt lat="42.43684" lon="18.59811">
        <ele>56.4624</ele>
        <time>2022-05-31T11:36:20.523Z</time>
      </trkpt>
      <trkpt lat="42.4369" lon="18.59792">
        <ele>56.66071</ele>
        <time>2022-05-31T11:36:22.524Z</time>
      </trkpt>
      <trkpt lat="42.43695" lon="18.59773">
        <ele>56.854087</ele>
        <time>2022-05-31T11:36:24.527Z</time>
      </trkpt>
      <trkpt lat="42.437" lon="18.59755">
        <ele>57.035237</ele>
        <time>2022-05-31T11:36:26.515Z</time>
      </trkpt>
      <trkpt lat="42.43704" lon="18.59738">
        <ele>57.20916</ele>
        <time>2022-05-31T11:36:28.522Z</time>
      </trkpt>
      <trkpt lat="42.4371" lon="18.59722">
        <ele>57.323814</ele>
        <time>2022-05-31T11:36:30.523Z</time>
      </trkpt>
      <trkpt lat="42.43716" lon="18.59707">
        <ele>57.229138</ele>
        <time>2022-05-31T11:36:32.517Z</time>
      </trkpt>
      <trkpt lat="42.43721" lon="18.59691">
        <ele>57.134164</ele>
        <time>2022-05-31T11:36:34.522Z</time>
      </trkpt>
      <trkpt lat="42.43726" lon="18.59676">
        <ele>57.046863</ele>
        <time>2022-05-31T11:36:36.522Z</time>
      </trkpt>
      <trkpt lat="42.43731" lon="18.59664">
        <ele>56.972977</ele>
        <time>2022-05-31T11:36:38.521Z</time>
      </trkpt>
      <trkpt lat="42.43735" lon="18.59647">
        <ele>56.876769</ele>
        <time>2022-05-31T11:36:41.517Z</time>
      </trkpt>
      <trkpt lat="42.4374" lon="18.59634">
        <ele>56.797045</ele>
        <time>2022-05-31T11:36:44.514Z</time>
      </trkpt>
      <trkpt lat="42.43744" lon="18.59618">
        <ele>56.708065</ele>
        <time>2022-05-31T11:36:47.523Z</time>
      </trkpt>
      <trkpt lat="42.43749" lon="18.59602">
        <ele>56.614647</ele>
        <time>2022-05-31T11:36:50.542Z</time>
      </trkpt>
      <trkpt lat="42.43755" lon="18.59587">
        <ele>56.522822</ele>
        <time>2022-05-31T11:36:53.526Z</time>
      </trkpt>
      <trkpt lat="42.4376" lon="18.59572">
        <ele>56.431677</ele>
        <time>2022-05-31T11:36:56.544Z</time>
      </trkpt>
      <trkpt lat="42.43765" lon="18.59557">
        <ele>56.344429</ele>
        <time>2022-05-31T11:36:59.527Z</time>
      </trkpt>
      <trkpt lat="42.4377" lon="18.59543">
        <ele>56.261207</ele>
        <time>2022-05-31T11:37:02.540Z</time>
      </trkpt>
      <trkpt lat="42.43775" lon="18.59531">
        <ele>56.188765</ele>
        <time>2022-05-31T11:37:05.524Z</time>
      </trkpt>
      <trkpt lat="42.43779" lon="18.59519">
        <ele>56.115439</ele>
        <time>2022-05-31T11:37:09.524Z</time>
      </trkpt>
      <trkpt lat="42.43784" lon="18.59506">
        <ele>56.036066</ele>
        <time>2022-05-31T11:37:14.547Z</time>
      </trkpt>
      <trkpt lat="42.43789" lon="18.59492">
        <ele>56.510944</ele>
        <time>2022-05-31T11:37:19.946Z</time>
      </trkpt>
      <trkpt lat="42.43792" lon="18.5948">
        <ele>56.924002</ele>
        <time>2022-05-31T11:37:24.518Z</time>
      </trkpt>
      <trkpt lat="42.43795" lon="18.59468">
        <ele>57.364859</ele>
        <time>2022-05-31T11:37:30.525Z</time>
      </trkpt>
      <trkpt lat="42.43799" lon="18.59457">
        <ele>57.778951</ele>
        <time>2022-05-31T11:37:35.528Z</time>
      </trkpt>
      <trkpt lat="42.43802" lon="18.59443">
        <ele>58.2717</ele>
        <time>2022-05-31T11:37:40.516Z</time>
      </trkpt>
      <trkpt lat="42.43805" lon="18.59429">
        <ele>58.767399</ele>
        <time>2022-05-31T11:37:45.527Z</time>
      </trkpt>
      <trkpt lat="42.43808" lon="18.59414">
        <ele>59.258577</ele>
        <time>2022-05-31T11:37:50.542Z</time>
      </trkpt>
      <trkpt lat="42.4381" lon="18.59401">
        <ele>59.729111</ele>
        <time>2022-05-31T11:37:55.518Z</time>
      </trkpt>
      <trkpt lat="42.43812" lon="18.59387">
        <ele>60.182906</ele>
        <time>2022-05-31T11:37:59.521Z</time>
      </trkpt>
      <trkpt lat="42.43813" lon="18.59374">
        <ele>60.640002</ele>
        <time>2022-05-31T11:38:02.565Z</time>
      </trkpt>
      <trkpt lat="42.43815" lon="18.59359">
        <ele>61.154075</ele>
        <time>2022-05-31T11:38:05.534Z</time>
      </trkpt>
      <trkpt lat="42.43818" lon="18.59341">
        <ele>61.756453</ele>
        <time>2022-05-31T11:38:08.576Z</time>
      </trkpt>
      <trkpt lat="42.4382" lon="18.59327">
        <ele>62.222682</ele>
        <time>2022-05-31T11:38:10.531Z</time>
      </trkpt>
      <trkpt lat="42.43821" lon="18.59312">
        <ele>62.739323</ele>
        <time>2022-05-31T11:38:12.605Z</time>
      </trkpt>
      <trkpt lat="42.43824" lon="18.59297">
        <ele>63.269039</ele>
        <time>2022-05-31T11:38:14.535Z</time>
      </trkpt>
      <trkpt lat="42.43826" lon="18.59281">
        <ele>63.818542</ele>
        <time>2022-05-31T11:38:16.544Z</time>
      </trkpt>
      <trkpt lat="42.43827" lon="18.59264">
        <ele>63.968959</ele>
        <time>2022-05-31T11:38:18.543Z</time>
      </trkpt>
      <trkpt lat="42.43826" lon="18.59248">
        <ele>63.161265</ele>
        <time>2022-05-31T11:38:20.528Z</time>
      </trkpt>
      <trkpt lat="42.43823" lon="18.59236">
        <ele>62.518494</ele>
        <time>2022-05-31T11:38:22.521Z</time>
      </trkpt>
      <trkpt lat="42.43818" lon="18.59219">
        <ele>61.613467</ele>
        <time>2022-05-31T11:38:24.525Z</time>
      </trkpt>
      <trkpt lat="42.43812" lon="18.59203">
        <ele>60.757569</ele>
        <time>2022-05-31T11:38:26.534Z</time>
      </trkpt>
      <trkpt lat="42.43805" lon="18.59194">
        <ele>60.135736</ele>
        <time>2022-05-31T11:38:28.533Z</time>
      </trkpt>
      <trkpt lat="42.43796" lon="18.59182">
        <ele>59.25367</ele>
        <time>2022-05-31T11:38:30.562Z</time>
      </trkpt>
      <trkpt lat="42.43784" lon="18.59172">
        <ele>58.357451</ele>
        <time>2022-05-31T11:38:32.512Z</time>
      </trkpt>
      <trkpt lat="42.43773" lon="18.59162">
        <ele>57.427894</ele>
        <time>2022-05-31T11:38:34.528Z</time>
      </trkpt>
      <trkpt lat="42.43763" lon="18.59153">
        <ele>56.631327</ele>
        <time>2022-05-31T11:38:36.515Z</time>
      </trkpt>
      <trkpt lat="42.43756" lon="18.59144">
        <ele>55.999556</ele>
        <time>2022-05-31T11:38:38.517Z</time>
      </trkpt>
      <trkpt lat="42.43747" lon="18.59131">
        <ele>55.123262</ele>
        <time>2022-05-31T11:38:40.512Z</time>
      </trkpt>
      <trkpt lat="42.4374" lon="18.59116">
        <ele>54.225009</ele>
        <time>2022-05-31T11:38:42.510Z</time>
      </trkpt>
      <trkpt lat="42.43737" lon="18.59103">
        <ele>53.577584</ele>
        <time>2022-05-31T11:38:44.517Z</time>
      </trkpt>
      <trkpt lat="42.43739" lon="18.59091">
        <ele>52.966973</ele>
        <time>2022-05-31T11:38:46.559Z</time>
      </trkpt>
      <trkpt lat="42.43744" lon="18.59077">
        <ele>52.170756</ele>
        <time>2022-05-31T11:38:48.520Z</time>
      </trkpt>
      <trkpt lat="42.43747" lon="18.59065">
        <ele>51.992676</ele>
        <time>2022-05-31T11:38:50.518Z</time>
      </trkpt>
      <trkpt lat="42.43751" lon="18.59053">
        <ele>51.826598</ele>
        <time>2022-05-31T11:38:52.520Z</time>
      </trkpt>
      <trkpt lat="42.43756" lon="18.59038">
        <ele>51.601293</ele>
        <time>2022-05-31T11:38:55.548Z</time>
      </trkpt>
      <trkpt lat="42.4376" lon="18.59025">
        <ele>51.409977</ele>
        <time>2022-05-31T11:38:58.550Z</time>
      </trkpt>
      <trkpt lat="42.43764" lon="18.5901">
        <ele>51.202785</ele>
        <time>2022-05-31T11:39:01.544Z</time>
      </trkpt>
      <trkpt lat="42.43768" lon="18.58998">
        <ele>51.024209</ele>
        <time>2022-05-31T11:39:04.527Z</time>
      </trkpt>
      <trkpt lat="42.43771" lon="18.58985">
        <ele>50.84317</ele>
        <time>2022-05-31T11:39:07.540Z</time>
      </trkpt>
      <trkpt lat="42.43775" lon="18.58972">
        <ele>50.656537</ele>
        <time>2022-05-31T11:39:10.527Z</time>
      </trkpt>
      <trkpt lat="42.43778" lon="18.58959">
        <ele>50.474254</ele>
        <time>2022-05-31T11:39:13.567Z</time>
      </trkpt>
      <trkpt lat="42.43782" lon="18.58947">
        <ele>50.305697</ele>
        <time>2022-05-31T11:39:16.581Z</time>
      </trkpt>
      <trkpt lat="42.43786" lon="18.58931">
        <ele>50.08054</ele>
        <time>2022-05-31T11:39:19.534Z</time>
      </trkpt>
      <trkpt lat="42.4379" lon="18.58916">
        <ele>49.871947</ele>
        <time>2022-05-31T11:39:22.542Z</time>
      </trkpt>
      <trkpt lat="42.43793" lon="18.58902">
        <ele>49.68281</ele>
        <time>2022-05-31T11:39:25.544Z</time>
      </trkpt>
      <trkpt lat="42.43797" lon="18.5889">
        <ele>49.500421</ele>
        <time>2022-05-31T11:39:28.546Z</time>
      </trkpt>
      <trkpt lat="42.43803" lon="18.58877">
        <ele>49.300615</ele>
        <time>2022-05-31T11:39:31.583Z</time>
      </trkpt>
      <trkpt lat="42.43809" lon="18.58866">
        <ele>49.121135</ele>
        <time>2022-05-31T11:39:33.539Z</time>
      </trkpt>
      <trkpt lat="42.43815" lon="18.58854">
        <ele>48.932226</ele>
        <time>2022-05-31T11:39:35.543Z</time>
      </trkpt>
      <trkpt lat="42.43821" lon="18.58841">
        <ele>48.776046</ele>
        <time>2022-05-31T11:39:37.539Z</time>
      </trkpt>
      <trkpt lat="42.43829" lon="18.58826">
        <ele>48.597546</ele>
        <time>2022-05-31T11:39:39.553Z</time>
      </trkpt>
      <trkpt lat="42.43836" lon="18.58812">
        <ele>48.426907</ele>
        <time>2022-05-31T11:39:41.549Z</time>
      </trkpt>
      <trkpt lat="42.43842" lon="18.58799">
        <ele>48.278629</ele>
        <time>2022-05-31T11:39:43.551Z</time>
      </trkpt>
      <trkpt lat="42.43848" lon="18.58787">
        <ele>48.13843</ele>
        <time>2022-05-31T11:39:45.535Z</time>
      </trkpt>
      <trkpt lat="42.43853" lon="18.58772">
        <ele>47.974174</ele>
        <time>2022-05-31T11:39:48.543Z</time>
      </trkpt>
      <trkpt lat="42.43859" lon="18.58758">
        <ele>47.812391</ele>
        <time>2022-05-31T11:39:51.547Z</time>
      </trkpt>
      <trkpt lat="42.43863" lon="18.58746">
        <ele>47.687442</ele>
        <time>2022-05-31T11:39:53.580Z</time>
      </trkpt>
      <trkpt lat="42.43868" lon="18.58734">
        <ele>47.552533</ele>
        <time>2022-05-31T11:39:55.549Z</time>
      </trkpt>
      <trkpt lat="42.43877" lon="18.58721">
        <ele>47.37775</ele>
        <time>2022-05-31T11:39:58.546Z</time>
      </trkpt>
      <trkpt lat="42.43885" lon="18.58709">
        <ele>47.217066</ele>
        <time>2022-05-31T11:40:01.535Z</time>
      </trkpt>
      <trkpt lat="42.43893" lon="18.58695">
        <ele>47.045579</ele>
        <time>2022-05-31T11:40:04.542Z</time>
      </trkpt>
      <trkpt lat="42.43899" lon="18.58685">
        <ele>46.920208</ele>
        <time>2022-05-31T11:40:06.534Z</time>
      </trkpt>
      <trkpt lat="42.43907" lon="18.58672">
        <ele>46.748246</ele>
        <time>2022-05-31T11:40:09.549Z</time>
      </trkpt>
      <trkpt lat="42.43916" lon="18.5866">
        <ele>46.581571</ele>
        <time>2022-05-31T11:40:12.548Z</time>
      </trkpt>
      <trkpt lat="42.43923" lon="18.58649">
        <ele>46.648331</ele>
        <time>2022-05-31T11:40:15.548Z</time>
      </trkpt>
      <trkpt lat="42.43929" lon="18.58639">
        <ele>46.825111</ele>
        <time>2022-05-31T11:40:18.546Z</time>
      </trkpt>
      <trkpt lat="42.43936" lon="18.5863">
        <ele>47.010086</ele>
        <time>2022-05-31T11:40:23.543Z</time>
      </trkpt>
      <trkpt lat="42.43942" lon="18.58618">
        <ele>47.196962</ele>
        <time>2022-05-31T11:40:27.537Z</time>
      </trkpt>
      <trkpt lat="42.43949" lon="18.58607">
        <ele>47.391429</ele>
        <time>2022-05-31T11:40:31.555Z</time>
      </trkpt>
      <trkpt lat="42.43957" lon="18.58598">
        <ele>47.578603</ele>
        <time>2022-05-31T11:40:34.528Z</time>
      </trkpt>
      <trkpt lat="42.43964" lon="18.58587">
        <ele>47.780817</ele>
        <time>2022-05-31T11:40:37.538Z</time>
      </trkpt>
      <trkpt lat="42.43975" lon="18.58572">
        <ele>48.068008</ele>
        <time>2022-05-31T11:40:41.532Z</time>
      </trkpt>
      <trkpt lat="42.43983" lon="18.58561">
        <ele>48.279517</ele>
        <time>2022-05-31T11:40:44.557Z</time>
      </trkpt>
      <trkpt lat="42.43991" lon="18.58549">
        <ele>48.488074</ele>
        <time>2022-05-31T11:40:47.541Z</time>
      </trkpt>
      <trkpt lat="42.43998" lon="18.58537">
        <ele>48.697164</ele>
        <time>2022-05-31T11:40:50.569Z</time>
      </trkpt>
      <trkpt lat="42.44005" lon="18.58524">
        <ele>48.911767</ele>
        <time>2022-05-31T11:40:53.543Z</time>
      </trkpt>
      <trkpt lat="42.44011" lon="18.58508">
        <ele>49.148647</ele>
        <time>2022-05-31T11:40:56.545Z</time>
      </trkpt>
      <trkpt lat="42.44017" lon="18.58492">
        <ele>49.390778</ele>
        <time>2022-05-31T11:40:59.539Z</time>
      </trkpt>
      <trkpt lat="42.44026" lon="18.58477">
        <ele>49.643316</ele>
        <time>2022-05-31T11:41:02.551Z</time>
      </trkpt>
      <trkpt lat="42.44032" lon="18.58468">
        <ele>49.812854</ele>
        <time>2022-05-31T11:41:04.549Z</time>
      </trkpt>
      <trkpt lat="42.44039" lon="18.58459">
        <ele>49.879568</ele>
        <time>2022-05-31T11:41:06.541Z</time>
      </trkpt>
      <trkpt lat="42.44047" lon="18.5845">
        <ele>49.954332</ele>
        <time>2022-05-31T11:41:08.544Z</time>
      </trkpt>
      <trkpt lat="42.44055" lon="18.5844">
        <ele>50.032149</ele>
        <time>2022-05-31T11:41:10.536Z</time>
      </trkpt>
      <trkpt lat="42.44062" lon="18.58429">
        <ele>50.110225</ele>
        <time>2022-05-31T11:41:12.547Z</time>
      </trkpt>
      <trkpt lat="42.4407" lon="18.58419">
        <ele>50.184506</ele>
        <time>2022-05-31T11:41:14.553Z</time>
      </trkpt>
      <trkpt lat="42.44078" lon="18.58408">
        <ele>50.267354</ele>
        <time>2022-05-31T11:41:17.546Z</time>
      </trkpt>
      <trkpt lat="42.44084" lon="18.58396">
        <ele>50.344939</ele>
        <time>2022-05-31T11:41:21.548Z</time>
      </trkpt>
      <trkpt lat="42.4409" lon="18.58387">
        <ele>50.410944</ele>
        <time>2022-05-31T11:41:24.538Z</time>
      </trkpt>
      <trkpt lat="42.44098" lon="18.58378">
        <ele>50.481085</ele>
        <time>2022-05-31T11:41:27.546Z</time>
      </trkpt>
      <trkpt lat="42.44106" lon="18.58369">
        <ele>50.560404</ele>
        <time>2022-05-31T11:41:30.528Z</time>
      </trkpt>
      <trkpt lat="42.44116" lon="18.5836">
        <ele>50.644815</ele>
        <time>2022-05-31T11:41:33.565Z</time>
      </trkpt>
      <trkpt lat="42.44127" lon="18.58352">
        <ele>50.735106</ele>
        <time>2022-05-31T11:41:36.546Z</time>
      </trkpt>
      <trkpt lat="42.44138" lon="18.58347">
        <ele>50.81536</ele>
        <time>2022-05-31T11:41:39.570Z</time>
      </trkpt>
      <trkpt lat="42.44147" lon="18.58342">
        <ele>50.885462</ele>
        <time>2022-05-31T11:41:42.525Z</time>
      </trkpt>
      <trkpt lat="42.44156" lon="18.58337">
        <ele>50.95659</ele>
        <time>2022-05-31T11:41:44.544Z</time>
      </trkpt>
      <trkpt lat="42.44168" lon="18.58329">
        <ele>51.055173</ele>
        <time>2022-05-31T11:41:47.539Z</time>
      </trkpt>
      <trkpt lat="42.44177" lon="18.58324">
        <ele>51.102983</ele>
        <time>2022-05-31T11:41:49.543Z</time>
      </trkpt>
      <trkpt lat="42.44186" lon="18.58319">
        <ele>51.115229</ele>
        <time>2022-05-31T11:41:51.555Z</time>
      </trkpt>
      <trkpt lat="42.44195" lon="18.58314">
        <ele>51.127283</ele>
        <time>2022-05-31T11:41:53.541Z</time>
      </trkpt>
      <trkpt lat="42.44203" lon="18.58309">
        <ele>51.139133</ele>
        <time>2022-05-31T11:41:55.541Z</time>
      </trkpt>
      <trkpt lat="42.44214" lon="18.583">
        <ele>51.155715</ele>
        <time>2022-05-31T11:41:58.540Z</time>
      </trkpt>
      <trkpt lat="42.44223" lon="18.58287">
        <ele>51.17254</ele>
        <time>2022-05-31T11:42:01.582Z</time>
      </trkpt>
      <trkpt lat="42.44233" lon="18.58278">
        <ele>51.189112</ele>
        <time>2022-05-31T11:42:04.529Z</time>
      </trkpt>
      <trkpt lat="42.44241" lon="18.5827">
        <ele>51.201035</ele>
        <time>2022-05-31T11:42:06.552Z</time>
      </trkpt>
      <trkpt lat="42.44251" lon="18.58258">
        <ele>51.218282</ele>
        <time>2022-05-31T11:42:09.544Z</time>
      </trkpt>
      <trkpt lat="42.44261" lon="18.58246">
        <ele>51.235515</ele>
        <time>2022-05-31T11:42:12.546Z</time>
      </trkpt>
      <trkpt lat="42.44271" lon="18.58235">
        <ele>51.25264</ele>
        <time>2022-05-31T11:42:15.542Z</time>
      </trkpt>
      <trkpt lat="42.4428" lon="18.58224">
        <ele>51.268697</ele>
        <time>2022-05-31T11:42:18.573Z</time>
      </trkpt>
      <trkpt lat="42.44289" lon="18.58216">
        <ele>51.282856</ele>
        <time>2022-05-31T11:42:21.552Z</time>
      </trkpt>
      <trkpt lat="42.44298" lon="18.58206">
        <ele>51.298146</ele>
        <time>2022-05-31T11:42:25.548Z</time>
      </trkpt>
      <trkpt lat="42.44306" lon="18.58198">
        <ele>51.310699</ele>
        <time>2022-05-31T11:42:28.546Z</time>
      </trkpt>
      <trkpt lat="42.44313" lon="18.58188">
        <ele>51.323855</ele>
        <time>2022-05-31T11:42:31.537Z</time>
      </trkpt>
      <trkpt lat="42.4432" lon="18.58178">
        <ele>51.431543</ele>
        <time>2022-05-31T11:42:34.543Z</time>
      </trkpt>
      <trkpt lat="42.44327" lon="18.58166">
        <ele>51.700473</ele>
        <time>2022-05-31T11:42:37.542Z</time>
      </trkpt>
      <trkpt lat="42.44331" lon="18.58153">
        <ele>51.942279</ele>
        <time>2022-05-31T11:42:40.537Z</time>
      </trkpt>
      <trkpt lat="42.44335" lon="18.5814">
        <ele>52.190326</ele>
        <time>2022-05-31T11:42:43.543Z</time>
      </trkpt>
      <trkpt lat="42.44339" lon="18.58124">
        <ele>52.486623</ele>
        <time>2022-05-31T11:42:47.579Z</time>
      </trkpt>
      <trkpt lat="42.44343" lon="18.58111">
        <ele>52.747943</ele>
        <time>2022-05-31T11:42:51.547Z</time>
      </trkpt>
      <trkpt lat="42.44346" lon="18.58097">
        <ele>53.003545</ele>
        <time>2022-05-31T11:42:55.552Z</time>
      </trkpt>
      <trkpt lat="42.44349" lon="18.58084">
        <ele>53.237671</ele>
        <time>2022-05-31T11:42:59.546Z</time>
      </trkpt>
      <trkpt lat="42.44354" lon="18.58071">
        <ele>53.502229</ele>
        <time>2022-05-31T11:43:05.542Z</time>
      </trkpt>
      <trkpt lat="42.44357" lon="18.58059">
        <ele>53.717076</ele>
        <time>2022-05-31T11:43:10.600Z</time>
      </trkpt>
      <trkpt lat="42.44361" lon="18.58047">
        <ele>53.956884</ele>
        <time>2022-05-31T11:43:15.546Z</time>
      </trkpt>
      <trkpt lat="42.44364" lon="18.58035">
        <ele>54.184183</ele>
        <time>2022-05-31T11:43:21.547Z</time>
      </trkpt>
      <trkpt lat="42.44367" lon="18.58023">
        <ele>54.405799</ele>
        <time>2022-05-31T11:43:27.533Z</time>
      </trkpt>
      <trkpt lat="42.44372" lon="18.58011">
        <ele>54.64917</ele>
        <time>2022-05-31T11:43:34.574Z</time>
      </trkpt>
      <trkpt lat="42.44375" lon="18.57998">
        <ele>54.887269</ele>
        <time>2022-05-31T11:43:42.540Z</time>
      </trkpt>
      <trkpt lat="42.44381" lon="18.57987">
        <ele>55.139155</ele>
        <time>2022-05-31T11:43:50.549Z</time>
      </trkpt>
      <trkpt lat="42.44389" lon="18.57977">
        <ele>55.386957</ele>
        <time>2022-05-31T11:43:55.536Z</time>
      </trkpt>
      <trkpt lat="42.44394" lon="18.57966">
        <ele>55.621193</ele>
        <time>2022-05-31T11:43:58.528Z</time>
      </trkpt>
      <trkpt lat="42.444" lon="18.57953">
        <ele>55.335244</ele>
        <time>2022-05-31T11:44:01.538Z</time>
      </trkpt>
      <trkpt lat="42.44405" lon="18.57942">
        <ele>55.07219</ele>
        <time>2022-05-31T11:44:03.541Z</time>
      </trkpt>
      <trkpt lat="42.4441" lon="18.57931">
        <ele>54.791363</ele>
        <time>2022-05-31T11:44:05.549Z</time>
      </trkpt>
      <trkpt lat="42.44418" lon="18.57916">
        <ele>54.408101</ele>
        <time>2022-05-31T11:44:08.577Z</time>
      </trkpt>
      <trkpt lat="42.44423" lon="18.57906">
        <ele>54.141668</ele>
        <time>2022-05-31T11:44:10.555Z</time>
      </trkpt>
      <trkpt lat="42.4443" lon="18.57897">
        <ele>53.867267</ele>
        <time>2022-05-31T11:44:12.544Z</time>
      </trkpt>
      <trkpt lat="42.44435" lon="18.57887">
        <ele>53.588766</ele>
        <time>2022-05-31T11:44:14.582Z</time>
      </trkpt>
      <trkpt lat="42.44444" lon="18.57873">
        <ele>53.208318</ele>
        <time>2022-05-31T11:44:16.544Z</time>
      </trkpt>
      <trkpt lat="42.44451" lon="18.57862">
        <ele>52.909604</ele>
        <time>2022-05-31T11:44:18.523Z</time>
      </trkpt>
      <trkpt lat="42.44458" lon="18.57852">
        <ele>52.606369</ele>
        <time>2022-05-31T11:44:20.527Z</time>
      </trkpt>
      <trkpt lat="42.44465" lon="18.57842">
        <ele>52.315052</ele>
        <time>2022-05-31T11:44:22.549Z</time>
      </trkpt>
      <trkpt lat="42.44472" lon="18.57832">
        <ele>52.017057</ele>
        <time>2022-05-31T11:44:24.575Z</time>
      </trkpt>
      <trkpt lat="42.4448" lon="18.57822">
        <ele>51.703479</ele>
        <time>2022-05-31T11:44:26.544Z</time>
      </trkpt>
      <trkpt lat="42.44488" lon="18.57812">
        <ele>51.374151</ele>
        <time>2022-05-31T11:44:28.547Z</time>
      </trkpt>
      <trkpt lat="42.44497" lon="18.57803">
        <ele>51.056628</ele>
        <time>2022-05-31T11:44:30.532Z</time>
      </trkpt>
      <trkpt lat="42.44507" lon="18.57796">
        <ele>50.744471</ele>
        <time>2022-05-31T11:44:32.562Z</time>
      </trkpt>
      <trkpt lat="42.44517" lon="18.57788">
        <ele>50.44423</ele>
        <time>2022-05-31T11:44:34.552Z</time>
      </trkpt>
      <trkpt lat="42.44528" lon="18.5778">
        <ele>50.533208</ele>
        <time>2022-05-31T11:44:36.589Z</time>
      </trkpt>
      <trkpt lat="42.4454" lon="18.57771">
        <ele>50.627809</ele>
        <time>2022-05-31T11:44:38.554Z</time>
      </trkpt>
      <trkpt lat="42.44551" lon="18.57762">
        <ele>50.722991</ele>
        <time>2022-05-31T11:44:40.538Z</time>
      </trkpt>
      <trkpt lat="42.44563" lon="18.57754">
        <ele>50.81938</ele>
        <time>2022-05-31T11:44:42.584Z</time>
      </trkpt>
      <trkpt lat="42.44575" lon="18.57746">
        <ele>50.913331</ele>
        <time>2022-05-31T11:44:44.552Z</time>
      </trkpt>
      <trkpt lat="42.44586" lon="18.57737">
        <ele>51.001077</ele>
        <time>2022-05-31T11:44:46.553Z</time>
      </trkpt>
      <trkpt lat="42.44597" lon="18.57728">
        <ele>51.096604</ele>
        <time>2022-05-31T11:44:48.540Z</time>
      </trkpt>
      <trkpt lat="42.44608" lon="18.57718">
        <ele>51.186039</ele>
        <time>2022-05-31T11:44:50.545Z</time>
      </trkpt>
      <trkpt lat="42.44618" lon="18.57709">
        <ele>51.277838</ele>
        <time>2022-05-31T11:44:52.547Z</time>
      </trkpt>
      <trkpt lat="42.44628" lon="18.577">
        <ele>51.363743</ele>
        <time>2022-05-31T11:44:54.547Z</time>
      </trkpt>
      <trkpt lat="42.44638" lon="18.5769">
        <ele>51.447152</ele>
        <time>2022-05-31T11:44:56.535Z</time>
      </trkpt>
      <trkpt lat="42.44647" lon="18.57681">
        <ele>51.530719</ele>
        <time>2022-05-31T11:44:58.543Z</time>
      </trkpt>
      <trkpt lat="42.44657" lon="18.57672">
        <ele>51.6137</ele>
        <time>2022-05-31T11:45:00.556Z</time>
      </trkpt>
      <trkpt lat="42.44666" lon="18.57663">
        <ele>51.694962</ele>
        <time>2022-05-31T11:45:02.554Z</time>
      </trkpt>
      <trkpt lat="42.44675" lon="18.57654">
        <ele>51.802718</ele>
        <time>2022-05-31T11:45:04.581Z</time>
      </trkpt>
      <trkpt lat="42.44685" lon="18.57645">
        <ele>51.923873</ele>
        <time>2022-05-31T11:45:06.541Z</time>
      </trkpt>
      <trkpt lat="42.44693" lon="18.57636">
        <ele>52.035124</ele>
        <time>2022-05-31T11:45:08.544Z</time>
      </trkpt>
      <trkpt lat="42.44701" lon="18.57628">
        <ele>52.142848</ele>
        <time>2022-05-31T11:45:10.571Z</time>
      </trkpt>
      <trkpt lat="42.4471" lon="18.57619">
        <ele>52.251492</ele>
        <time>2022-05-31T11:45:12.545Z</time>
      </trkpt>
      <trkpt lat="42.44717" lon="18.57612">
        <ele>52.348789</ele>
        <time>2022-05-31T11:45:14.552Z</time>
      </trkpt>
      <trkpt lat="42.44725" lon="18.57605">
        <ele>52.444864</ele>
        <time>2022-05-31T11:45:16.581Z</time>
      </trkpt>
      <trkpt lat="42.44732" lon="18.57597">
        <ele>52.543923</ele>
        <time>2022-05-31T11:45:18.550Z</time>
      </trkpt>
      <trkpt lat="42.4474" lon="18.5759">
        <ele>52.641166</ele>
        <time>2022-05-31T11:45:20.531Z</time>
      </trkpt>
      <trkpt lat="42.44748" lon="18.57583">
        <ele>52.74069</ele>
        <time>2022-05-31T11:45:22.559Z</time>
      </trkpt>
      <trkpt lat="42.44756" lon="18.57577">
        <ele>52.836321</ele>
        <time>2022-05-31T11:45:24.548Z</time>
      </trkpt>
      <trkpt lat="42.44767" lon="18.57566">
        <ele>52.976128</ele>
        <time>2022-05-31T11:45:27.582Z</time>
      </trkpt>
      <trkpt lat="42.44777" lon="18.57556">
        <ele>53.112885</ele>
        <time>2022-05-31T11:45:30.609Z</time>
      </trkpt>
      <trkpt lat="42.44788" lon="18.57545">
        <ele>53.252905</ele>
        <time>2022-05-31T11:45:33.542Z</time>
      </trkpt>
      <trkpt lat="42.44799" lon="18.57535">
        <ele>53.390087</ele>
        <time>2022-05-31T11:45:36.543Z</time>
      </trkpt>
      <trkpt lat="42.44809" lon="18.57525">
        <ele>53.52688</ele>
        <time>2022-05-31T11:45:39.535Z</time>
      </trkpt>
      <trkpt lat="42.44817" lon="18.57518">
        <ele>53.543697</ele>
        <time>2022-05-31T11:45:41.549Z</time>
      </trkpt>
      <trkpt lat="42.44824" lon="18.5751">
        <ele>53.287084</ele>
        <time>2022-05-31T11:45:43.565Z</time>
      </trkpt>
      <trkpt lat="42.44831" lon="18.57503">
        <ele>53.031688</ele>
        <time>2022-05-31T11:45:45.548Z</time>
      </trkpt>
      <trkpt lat="42.44841" lon="18.57493">
        <ele>52.687155</ele>
        <time>2022-05-31T11:45:48.542Z</time>
      </trkpt>
      <trkpt lat="42.44851" lon="18.57483">
        <ele>52.346772</ele>
        <time>2022-05-31T11:45:51.542Z</time>
      </trkpt>
      <trkpt lat="42.44861" lon="18.57473">
        <ele>52.005447</ele>
        <time>2022-05-31T11:45:54.536Z</time>
      </trkpt>
      <trkpt lat="42.4487" lon="18.57463">
        <ele>51.678077</ele>
        <time>2022-05-31T11:45:57.538Z</time>
      </trkpt>
      <trkpt lat="42.44879" lon="18.57453">
        <ele>51.344937</ele>
        <time>2022-05-31T11:46:00.539Z</time>
      </trkpt>
      <trkpt lat="42.44889" lon="18.57442">
        <ele>50.986535</ele>
        <time>2022-05-31T11:46:03.545Z</time>
      </trkpt>
      <trkpt lat="42.449" lon="18.57431">
        <ele>50.610794</ele>
        <time>2022-05-31T11:46:06.544Z</time>
      </trkpt>
      <trkpt lat="42.44908" lon="18.57424">
        <ele>50.353138</ele>
        <time>2022-05-31T11:46:08.541Z</time>
      </trkpt>
      <trkpt lat="42.44915" lon="18.57417">
        <ele>50.09321</ele>
        <time>2022-05-31T11:46:10.544Z</time>
      </trkpt>
      <trkpt lat="42.44923" lon="18.5741">
        <ele>49.833283</ele>
        <time>2022-05-31T11:46:12.542Z</time>
      </trkpt>
      <trkpt lat="42.44931" lon="18.57402">
        <ele>49.567486</ele>
        <time>2022-05-31T11:46:14.528Z</time>
      </trkpt>
      <trkpt lat="42.44939" lon="18.57395">
        <ele>49.28793</ele>
        <time>2022-05-31T11:46:16.548Z</time>
      </trkpt>
      <trkpt lat="42.44948" lon="18.57388">
        <ele>48.999935</ele>
        <time>2022-05-31T11:46:18.547Z</time>
      </trkpt>
      <trkpt lat="42.44958" lon="18.57383">
        <ele>48.71585</ele>
        <time>2022-05-31T11:46:20.525Z</time>
      </trkpt>
      <trkpt lat="42.44967" lon="18.57378">
        <ele>48.569849</ele>
        <time>2022-05-31T11:46:22.547Z</time>
      </trkpt>
      <trkpt lat="42.44977" lon="18.57374">
        <ele>48.547274</ele>
        <time>2022-05-31T11:46:24.546Z</time>
      </trkpt>
      <trkpt lat="42.44986" lon="18.5737">
        <ele>48.525016</ele>
        <time>2022-05-31T11:46:26.591Z</time>
      </trkpt>
      <trkpt lat="42.44995" lon="18.57366">
        <ele>48.502873</ele>
        <time>2022-05-31T11:46:28.547Z</time>
      </trkpt>
      <trkpt lat="42.45005" lon="18.57362">
        <ele>48.48083</ele>
        <time>2022-05-31T11:46:30.552Z</time>
      </trkpt>
      <trkpt lat="42.45014" lon="18.57358">
        <ele>48.458796</ele>
        <time>2022-05-31T11:46:32.544Z</time>
      </trkpt>
      <trkpt lat="42.45023" lon="18.57353">
        <ele>48.43665</ele>
        <time>2022-05-31T11:46:34.551Z</time>
      </trkpt>
      <trkpt lat="42.45032" lon="18.57348">
        <ele>48.413724</ele>
        <time>2022-05-31T11:46:36.541Z</time>
      </trkpt>
      <trkpt lat="42.45042" lon="18.57343">
        <ele>48.391024</ele>
        <time>2022-05-31T11:46:38.547Z</time>
      </trkpt>
      <trkpt lat="42.45051" lon="18.57337">
        <ele>48.368326</ele>
        <time>2022-05-31T11:46:40.537Z</time>
      </trkpt>
      <trkpt lat="42.45059" lon="18.5733">
        <ele>48.345718</ele>
        <time>2022-05-31T11:46:42.550Z</time>
      </trkpt>
      <trkpt lat="42.45067" lon="18.57323">
        <ele>48.323495</ele>
        <time>2022-05-31T11:46:44.557Z</time>
      </trkpt>
      <trkpt lat="42.45076" lon="18.57316">
        <ele>48.301833</ele>
        <time>2022-05-31T11:46:46.546Z</time>
      </trkpt>
      <trkpt lat="42.45083" lon="18.57309">
        <ele>48.281023</ele>
        <time>2022-05-31T11:46:48.549Z</time>
      </trkpt>
      <trkpt lat="42.45091" lon="18.57301">
        <ele>48.258892</ele>
        <time>2022-05-31T11:46:50.533Z</time>
      </trkpt>
      <trkpt lat="42.45099" lon="18.57293">
        <ele>48.236563</ele>
        <time>2022-05-31T11:46:52.554Z</time>
      </trkpt>
      <trkpt lat="42.45106" lon="18.57285">
        <ele>48.215376</ele>
        <time>2022-05-31T11:46:54.574Z</time>
      </trkpt>
      <trkpt lat="42.45113" lon="18.57276">
        <ele>48.193756</ele>
        <time>2022-05-31T11:46:56.547Z</time>
      </trkpt>
      <trkpt lat="42.45121" lon="18.57268">
        <ele>48.199172</ele>
        <time>2022-05-31T11:46:58.535Z</time>
      </trkpt>
      <trkpt lat="42.45127" lon="18.57259">
        <ele>48.384258</ele>
        <time>2022-05-31T11:47:00.530Z</time>
      </trkpt>
      <trkpt lat="42.45136" lon="18.57246">
        <ele>48.647001</ele>
        <time>2022-05-31T11:47:03.545Z</time>
      </trkpt>
      <trkpt lat="42.45142" lon="18.57236">
        <ele>48.829596</ele>
        <time>2022-05-31T11:47:05.577Z</time>
      </trkpt>
      <trkpt lat="42.45148" lon="18.57226">
        <ele>49.010375</ele>
        <time>2022-05-31T11:47:07.544Z</time>
      </trkpt>
      <trkpt lat="42.45153" lon="18.57216">
        <ele>49.197146</ele>
        <time>2022-05-31T11:47:09.544Z</time>
      </trkpt>
      <trkpt lat="42.45158" lon="18.57204">
        <ele>49.387071</ele>
        <time>2022-05-31T11:47:11.535Z</time>
      </trkpt>
      <trkpt lat="42.45162" lon="18.57193">
        <ele>49.57053</ele>
        <time>2022-05-31T11:47:13.548Z</time>
      </trkpt>
      <trkpt lat="42.45169" lon="18.57177">
        <ele>49.834136</ele>
        <time>2022-05-31T11:47:16.543Z</time>
      </trkpt>
      <trkpt lat="42.45173" lon="18.57166">
        <ele>50.019996</ele>
        <time>2022-05-31T11:47:18.582Z</time>
      </trkpt>
      <trkpt lat="42.45177" lon="18.57155">
        <ele>50.197155</ele>
        <time>2022-05-31T11:47:20.553Z</time>
      </trkpt>
      <trkpt lat="42.45181" lon="18.57144">
        <ele>50.37934</ele>
        <time>2022-05-31T11:47:22.538Z</time>
      </trkpt>
      <trkpt lat="42.45186" lon="18.57133">
        <ele>50.563895</ele>
        <time>2022-05-31T11:47:24.531Z</time>
      </trkpt>
      <trkpt lat="42.4519" lon="18.57122">
        <ele>50.747053</ele>
        <time>2022-05-31T11:47:26.549Z</time>
      </trkpt>
      <trkpt lat="42.45197" lon="18.57107">
        <ele>51.006332</ele>
        <time>2022-05-31T11:47:29.571Z</time>
      </trkpt>
      <trkpt lat="42.45202" lon="18.57096">
        <ele>51.193101</ele>
        <time>2022-05-31T11:47:31.549Z</time>
      </trkpt>
      <trkpt lat="42.45208" lon="18.57086">
        <ele>51.382068</ele>
        <time>2022-05-31T11:47:33.549Z</time>
      </trkpt>
      <trkpt lat="42.45214" lon="18.57076">
        <ele>51.571657</ele>
        <time>2022-05-31T11:47:35.536Z</time>
      </trkpt>
      <trkpt lat="42.45221" lon="18.57067">
        <ele>51.772293</ele>
        <time>2022-05-31T11:47:37.537Z</time>
      </trkpt>
      <trkpt lat="42.45228" lon="18.57058">
        <ele>52.016671</ele>
        <time>2022-05-31T11:47:39.571Z</time>
      </trkpt>
      <trkpt lat="42.45235" lon="18.5705">
        <ele>52.252186</ele>
        <time>2022-05-31T11:47:41.564Z</time>
      </trkpt>
      <trkpt lat="42.45242" lon="18.57043">
        <ele>52.486136</ele>
        <time>2022-05-31T11:47:43.555Z</time>
      </trkpt>
      <trkpt lat="42.45253" lon="18.57032">
        <ele>52.815766</ele>
        <time>2022-05-31T11:47:46.549Z</time>
      </trkpt>
      <trkpt lat="42.4526" lon="18.57025">
        <ele>53.051777</ele>
        <time>2022-05-31T11:47:48.530Z</time>
      </trkpt>
      <trkpt lat="42.45271" lon="18.57014">
        <ele>53.398293</ele>
        <time>2022-05-31T11:47:51.565Z</time>
      </trkpt>
      <trkpt lat="42.45279" lon="18.57007">
        <ele>53.634164</ele>
        <time>2022-05-31T11:47:53.545Z</time>
      </trkpt>
      <trkpt lat="42.45286" lon="18.56999">
        <ele>53.868372</ele>
        <time>2022-05-31T11:47:55.599Z</time>
      </trkpt>
      <trkpt lat="42.45296" lon="18.56989">
        <ele>54.188261</ele>
        <time>2022-05-31T11:47:58.532Z</time>
      </trkpt>
      <trkpt lat="42.45305" lon="18.56978">
        <ele>54.505147</ele>
        <time>2022-05-31T11:48:01.535Z</time>
      </trkpt>
      <trkpt lat="42.4531" lon="18.56965">
        <ele>54.771062</ele>
        <time>2022-05-31T11:48:04.562Z</time>
      </trkpt>
      <trkpt lat="42.45311" lon="18.5695">
        <ele>55.060809</ele>
        <time>2022-05-31T11:48:07.545Z</time>
      </trkpt>
      <trkpt lat="42.4532" lon="18.56939">
        <ele>55.367701</ele>
        <time>2022-05-31T11:48:10.522Z</time>
      </trkpt>
      <trkpt lat="42.45326" lon="18.56931">
        <ele>55.600735</ele>
        <time>2022-05-31T11:48:13.535Z</time>
      </trkpt>
      <trkpt lat="42.45334" lon="18.56921">
        <ele>55.865762</ele>
        <time>2022-05-31T11:48:17.537Z</time>
      </trkpt>
      <trkpt lat="42.45341" lon="18.56908">
        <ele>56.175169</ele>
        <time>2022-05-31T11:48:21.547Z</time>
      </trkpt>
      <trkpt lat="42.45347" lon="18.56895">
        <ele>56.465865</ele>
        <time>2022-05-31T11:48:25.545Z</time>
      </trkpt>
      <trkpt lat="42.4535" lon="18.56881">
        <ele>56.786288</ele>
        <time>2022-05-31T11:48:29.588Z</time>
      </trkpt>
      <trkpt lat="42.45353" lon="18.56866">
        <ele>57.117412</ele>
        <time>2022-05-31T11:48:33.609Z</time>
      </trkpt>
      <trkpt lat="42.45353" lon="18.56853">
        <ele>57.401254</ele>
        <time>2022-05-31T11:48:37.565Z</time>
      </trkpt>
      <trkpt lat="42.45351" lon="18.56839">
        <ele>57.697257</ele>
        <time>2022-05-31T11:48:41.548Z</time>
      </trkpt>
      <trkpt lat="42.45345" lon="18.56829">
        <ele>57.960221</ele>
        <time>2022-05-31T11:48:45.558Z</time>
      </trkpt>
      <trkpt lat="42.45336" lon="18.56824">
        <ele>58.249599</ele>
        <time>2022-05-31T11:48:51.545Z</time>
      </trkpt>
      <trkpt lat="42.45326" lon="18.56824">
        <ele>58.54754</ele>
        <time>2022-05-31T11:48:57.529Z</time>
      </trkpt>
      <trkpt lat="42.45315" lon="18.56825">
        <ele>58.848713</ele>
        <time>2022-05-31T11:49:02.521Z</time>
      </trkpt>
      <trkpt lat="42.45306" lon="18.5682">
        <ele>59.153894</ele>
        <time>2022-05-31T11:49:07.545Z</time>
      </trkpt>
      <trkpt lat="42.453" lon="18.56809">
        <ele>59.430403</ele>
        <time>2022-05-31T11:49:12.535Z</time>
      </trkpt>
      <trkpt lat="42.45297" lon="18.56797">
        <ele>59.691614</ele>
        <time>2022-05-31T11:49:18.513Z</time>
      </trkpt>
      <trkpt lat="42.45294" lon="18.56785">
        <ele>59.963116</ele>
        <time>2022-05-31T11:49:23.511Z</time>
      </trkpt>
      <trkpt lat="42.4529" lon="18.56773">
        <ele>60.253881</ele>
        <time>2022-05-31T11:49:28.518Z</time>
      </trkpt>
      <trkpt lat="42.45287" lon="18.56761">
        <ele>60.523573</ele>
        <time>2022-05-31T11:49:34.517Z</time>
      </trkpt>
      <trkpt lat="42.45286" lon="18.56747">
        <ele>60.830397</ele>
        <time>2022-05-31T11:49:42.520Z</time>
      </trkpt>
      <trkpt lat="42.45289" lon="18.56734">
        <ele>61.115726</ele>
        <time>2022-05-31T11:49:49.528Z</time>
      </trkpt>
      <trkpt lat="42.45292" lon="18.56721">
        <ele>61.408185</ele>
        <time>2022-05-31T11:49:55.528Z</time>
      </trkpt>
      <trkpt lat="42.45298" lon="18.56707">
        <ele>61.51258</ele>
        <time>2022-05-31T11:50:00.526Z</time>
      </trkpt>
      <trkpt lat="42.45304" lon="18.56694">
        <ele>61.452331</ele>
        <time>2022-05-31T11:50:04.525Z</time>
      </trkpt>
      <trkpt lat="42.45313" lon="18.56685">
        <ele>61.3917</ele>
        <time>2022-05-31T11:50:07.519Z</time>
      </trkpt>
      <trkpt lat="42.45324" lon="18.56675">
        <ele>61.319819</ele>
        <time>2022-05-31T11:50:10.519Z</time>
      </trkpt>
      <trkpt lat="42.45333" lon="18.56667">
        <ele>61.264103</ele>
        <time>2022-05-31T11:50:12.519Z</time>
      </trkpt>
      <trkpt lat="42.45341" lon="18.56658">
        <ele>61.209629</ele>
        <time>2022-05-31T11:50:14.520Z</time>
      </trkpt>
      <trkpt lat="42.45346" lon="18.56645">
        <ele>61.154878</ele>
        <time>2022-05-31T11:50:16.514Z</time>
      </trkpt>
      <trkpt lat="42.45345" lon="18.5663">
        <ele>61.0972</ele>
        <time>2022-05-31T11:50:18.527Z</time>
      </trkpt>
      <trkpt lat="42.45344" lon="18.56615">
        <ele>61.035475</ele>
        <time>2022-05-31T11:50:20.529Z</time>
      </trkpt>
      <trkpt lat="42.45342" lon="18.56602">
        <ele>60.9849</ele>
        <time>2022-05-31T11:50:22.514Z</time>
      </trkpt>
      <trkpt lat="42.45341" lon="18.56589">
        <ele>60.936347</ele>
        <time>2022-05-31T11:50:25.519Z</time>
      </trkpt>
      <trkpt lat="42.45342" lon="18.56576">
        <ele>60.883168</ele>
        <time>2022-05-31T11:50:29.520Z</time>
      </trkpt>
      <trkpt lat="42.45343" lon="18.5656">
        <ele>60.820418</ele>
        <time>2022-05-31T11:50:32.520Z</time>
      </trkpt>
      <trkpt lat="42.45347" lon="18.56545">
        <ele>60.757376</ele>
        <time>2022-05-31T11:50:35.525Z</time>
      </trkpt>
      <trkpt lat="42.45354" lon="18.56534">
        <ele>60.701784</ele>
        <time>2022-05-31T11:50:37.527Z</time>
      </trkpt>
      <trkpt lat="42.45361" lon="18.56527">
        <ele>60.653937</ele>
        <time>2022-05-31T11:50:39.528Z</time>
      </trkpt>
      <trkpt lat="42.45373" lon="18.56528">
        <ele>60.56394</ele>
        <time>2022-05-31T11:50:41.516Z</time>
      </trkpt>
      <trkpt lat="42.45386" lon="18.56532">
        <ele>59.967253</ele>
        <time>2022-05-31T11:50:43.537Z</time>
      </trkpt>
      <trkpt lat="42.454" lon="18.56538">
        <ele>59.360215</ele>
        <time>2022-05-31T11:50:45.549Z</time>
      </trkpt>
      <trkpt lat="42.45412" lon="18.56544">
        <ele>58.813762</ele>
        <time>2022-05-31T11:50:47.523Z</time>
      </trkpt>
      <trkpt lat="42.45425" lon="18.56546">
        <ele>58.246285</ele>
        <time>2022-05-31T11:50:49.530Z</time>
      </trkpt>
      <trkpt lat="42.4544" lon="18.56543">
        <ele>57.616878</ele>
        <time>2022-05-31T11:50:51.523Z</time>
      </trkpt>
      <trkpt lat="42.45451" lon="18.56538">
        <ele>57.104845</ele>
        <time>2022-05-31T11:50:53.523Z</time>
      </trkpt>
      <trkpt lat="42.45461" lon="18.56536">
        <ele>56.698698</ele>
        <time>2022-05-31T11:50:55.524Z</time>
      </trkpt>
      <trkpt lat="42.45473" lon="18.5653">
        <ele>56.144526</ele>
        <time>2022-05-31T11:50:58.517Z</time>
      </trkpt>
      <trkpt lat="42.45479" lon="18.56515">
        <ele>55.604799</ele>
        <time>2022-05-31T11:51:03.525Z</time>
      </trkpt>
      <trkpt lat="42.45476" lon="18.565">
        <ele>55.102841</ele>
        <time>2022-05-31T11:51:07.526Z</time>
      </trkpt>
      <trkpt lat="42.45471" lon="18.56488">
        <ele>54.689142</ele>
        <time>2022-05-31T11:51:09.536Z</time>
      </trkpt>
      <trkpt lat="42.45466" lon="18.56474">
        <ele>54.199188</ele>
        <time>2022-05-31T11:51:11.519Z</time>
      </trkpt>
      <trkpt lat="42.4546" lon="18.5646">
        <ele>53.663893</ele>
        <time>2022-05-31T11:51:13.522Z</time>
      </trkpt>
      <trkpt lat="42.45454" lon="18.56445">
        <ele>53.13665</ele>
        <time>2022-05-31T11:51:15.521Z</time>
      </trkpt>
      <trkpt lat="42.45449" lon="18.5643">
        <ele>52.759516</ele>
        <time>2022-05-31T11:51:17.516Z</time>
      </trkpt>
      <trkpt lat="42.45444" lon="18.56417">
        <ele>52.476763</ele>
        <time>2022-05-31T11:51:19.519Z</time>
      </trkpt>
      <trkpt lat="42.45441" lon="18.56405">
        <ele>52.240899</ele>
        <time>2022-05-31T11:51:21.517Z</time>
      </trkpt>
      <trkpt lat="42.45437" lon="18.56393">
        <ele>51.999832</ele>
        <time>2022-05-31T11:51:24.524Z</time>
      </trkpt>
      <trkpt lat="42.45433" lon="18.56381">
        <ele>51.7517</ele>
        <time>2022-05-31T11:51:27.523Z</time>
      </trkpt>
      <trkpt lat="42.45432" lon="18.56364">
        <ele>51.431424</ele>
        <time>2022-05-31T11:51:30.539Z</time>
      </trkpt>
      <trkpt lat="42.45433" lon="18.56349">
        <ele>51.143074</ele>
        <time>2022-05-31T11:51:33.524Z</time>
      </trkpt>
      <trkpt lat="42.45434" lon="18.56336">
        <ele>50.901423</ele>
        <time>2022-05-31T11:51:36.527Z</time>
      </trkpt>
      <trkpt lat="42.45433" lon="18.56318">
        <ele>50.57587</ele>
        <time>2022-05-31T11:51:41.531Z</time>
      </trkpt>
      <trkpt lat="42.45434" lon="18.56302">
        <ele>50.276431</ele>
        <time>2022-05-31T11:51:44.515Z</time>
      </trkpt>
      <trkpt lat="42.45436" lon="18.56285">
        <ele>49.943353</ele>
        <time>2022-05-31T11:51:47.523Z</time>
      </trkpt>
      <trkpt lat="42.45438" lon="18.56269">
        <ele>49.654292</ele>
        <time>2022-05-31T11:51:50.523Z</time>
      </trkpt>
      <trkpt lat="42.4544" lon="18.56254">
        <ele>49.363385</ele>
        <time>2022-05-31T11:51:53.516Z</time>
      </trkpt>
      <trkpt lat="42.45441" lon="18.56239">
        <ele>49.081314</ele>
        <time>2022-05-31T11:51:56.521Z</time>
      </trkpt>
      <trkpt lat="42.45443" lon="18.56225">
        <ele>48.807024</ele>
        <time>2022-05-31T11:51:59.523Z</time>
      </trkpt>
      <trkpt lat="42.45444" lon="18.56211">
        <ele>48.55823</ele>
        <time>2022-05-31T11:52:02.510Z</time>
      </trkpt>
      <trkpt lat="42.45445" lon="18.56198">
        <ele>48.426817</ele>
        <time>2022-05-31T11:52:05.524Z</time>
      </trkpt>
      <trkpt lat="42.45446" lon="18.56184">
        <ele>48.545694</ele>
        <time>2022-05-31T11:52:08.518Z</time>
      </trkpt>
      <trkpt lat="42.45446" lon="18.56168">
        <ele>48.682128</ele>
        <time>2022-05-31T11:52:11.524Z</time>
      </trkpt>
      <trkpt lat="42.45447" lon="18.56154">
        <ele>48.798362</ele>
        <time>2022-05-31T11:52:14.521Z</time>
      </trkpt>
      <trkpt lat="42.45447" lon="18.5614">
        <ele>48.921092</ele>
        <time>2022-05-31T11:52:18.520Z</time>
      </trkpt>
      <trkpt lat="42.45448" lon="18.56125">
        <ele>49.045562</ele>
        <time>2022-05-31T11:52:22.519Z</time>
      </trkpt>
      <trkpt lat="42.45448" lon="18.56111">
        <ele>49.16929</ele>
        <time>2022-05-31T11:52:25.526Z</time>
      </trkpt>
      <trkpt lat="42.45449" lon="18.56097">
        <ele>49.286287</ele>
        <time>2022-05-31T11:52:28.524Z</time>
      </trkpt>
      <trkpt lat="42.4545" lon="18.56083">
        <ele>49.407929</ele>
        <time>2022-05-31T11:52:32.513Z</time>
      </trkpt>
      <trkpt lat="42.45452" lon="18.56069">
        <ele>49.526074</ele>
        <time>2022-05-31T11:52:38.520Z</time>
      </trkpt>
      <trkpt lat="42.45453" lon="18.56057">
        <ele>49.632668</ele>
        <time>2022-05-31T11:52:42.514Z</time>
      </trkpt>
      <trkpt lat="42.45452" lon="18.56042">
        <ele>49.754765</ele>
        <time>2022-05-31T11:52:46.516Z</time>
      </trkpt>
      <trkpt lat="42.45453" lon="18.56026">
        <ele>49.890819</ele>
        <time>2022-05-31T11:52:50.525Z</time>
      </trkpt>
      <trkpt lat="42.45454" lon="18.56011">
        <ele>50.023194</ele>
        <time>2022-05-31T11:52:54.513Z</time>
      </trkpt>
      <trkpt lat="42.45455" lon="18.55997">
        <ele>50.145809</ele>
        <time>2022-05-31T11:52:57.532Z</time>
      </trkpt>
      <trkpt lat="42.45456" lon="18.55982">
        <ele>50.268837</ele>
        <time>2022-05-31T11:53:00.523Z</time>
      </trkpt>
      <trkpt lat="42.45455" lon="18.55967">
        <ele>50.39676</ele>
        <time>2022-05-31T11:53:03.521Z</time>
      </trkpt>
      <trkpt lat="42.45454" lon="18.55954">
        <ele>50.629835</ele>
        <time>2022-05-31T11:53:06.523Z</time>
      </trkpt>
      <trkpt lat="42.45451" lon="18.55939">
        <ele>51.141904</ele>
        <time>2022-05-31T11:53:10.542Z</time>
      </trkpt>
      <trkpt lat="42.45446" lon="18.55927">
        <ele>51.584878</ele>
        <time>2022-05-31T11:53:13.523Z</time>
      </trkpt>
      <trkpt lat="42.45442" lon="18.55915">
        <ele>52.029937</ele>
        <time>2022-05-31T11:53:16.521Z</time>
      </trkpt>
      <trkpt lat="42.4544" lon="18.55901">
        <ele>52.494184</ele>
        <time>2022-05-31T11:53:21.522Z</time>
      </trkpt>
      <trkpt lat="42.45434" lon="18.55888">
        <ele>52.986653</ele>
        <time>2022-05-31T11:53:26.532Z</time>
      </trkpt>
      <trkpt lat="42.45431" lon="18.55876">
        <ele>53.405711</ele>
        <time>2022-05-31T11:53:31.519Z</time>
      </trkpt>
      <trkpt lat="42.45428" lon="18.55863">
        <ele>53.846605</ele>
        <time>2022-05-31T11:53:36.515Z</time>
      </trkpt>
      <trkpt lat="42.45425" lon="18.55851">
        <ele>54.252057</ele>
        <time>2022-05-31T11:53:39.515Z</time>
      </trkpt>
      <trkpt lat="42.45414" lon="18.55849">
        <ele>54.750513</ele>
        <time>2022-05-31T11:53:44.528Z</time>
      </trkpt>
      <trkpt lat="42.45404" lon="18.55849">
        <ele>55.205175</ele>
        <time>2022-05-31T11:53:48.519Z</time>
      </trkpt>
      <trkpt lat="42.45395" lon="18.55848">
        <ele>55.638429</ele>
        <time>2022-05-31T11:53:52.531Z</time>
      </trkpt>
      <trkpt lat="42.45386" lon="18.55845">
        <ele>56.044831</ele>
        <time>2022-05-31T11:53:56.512Z</time>
      </trkpt>
      <trkpt lat="42.45375" lon="18.55843">
        <ele>56.525834</ele>
        <time>2022-05-31T11:54:01.519Z</time>
      </trkpt>
      <trkpt lat="42.45365" lon="18.55838">
        <ele>56.992425</ele>
        <time>2022-05-31T11:54:07.527Z</time>
      </trkpt>
      <trkpt lat="42.45356" lon="18.55833">
        <ele>57.426331</ele>
        <time>2022-05-31T11:54:13.522Z</time>
      </trkpt>
      <trkpt lat="42.45346" lon="18.55828">
        <ele>57.895013</ele>
        <time>2022-05-31T11:54:19.522Z</time>
      </trkpt>
      <trkpt lat="42.45337" lon="18.55824">
        <ele>58.315737</ele>
        <time>2022-05-31T11:54:25.516Z</time>
      </trkpt>
      <trkpt lat="42.45329" lon="18.55818">
        <ele>58.637245</ele>
        <time>2022-05-31T11:54:31.554Z</time>
      </trkpt>
      <trkpt lat="42.4532" lon="18.55809">
        <ele>58.926834</ele>
        <time>2022-05-31T11:54:38.515Z</time>
      </trkpt>
      <trkpt lat="42.45313" lon="18.55801">
        <ele>59.174232</ele>
        <time>2022-05-31T11:54:43.518Z</time>
      </trkpt>
      <trkpt lat="42.45304" lon="18.55791">
        <ele>59.490665</ele>
        <time>2022-05-31T11:54:49.529Z</time>
      </trkpt>
      <trkpt lat="42.45297" lon="18.5578">
        <ele>59.78748</ele>
        <time>2022-05-31T11:54:56.519Z</time>
      </trkpt>
      <trkpt lat="42.45292" lon="18.5577">
        <ele>60.042213</ele>
        <time>2022-05-31T11:55:02.511Z</time>
      </trkpt>
      <trkpt lat="42.45286" lon="18.55759">
        <ele>60.311809</ele>
        <time>2022-05-31T11:55:08.522Z</time>
      </trkpt>
      <trkpt lat="42.45281" lon="18.55746">
        <ele>60.599817</ele>
        <time>2022-05-31T11:55:14.518Z</time>
      </trkpt>
      <trkpt lat="42.45276" lon="18.55735">
        <ele>60.855765</ele>
        <time>2022-05-31T11:55:18.529Z</time>
      </trkpt>
      <trkpt lat="42.45271" lon="18.55724">
        <ele>61.127452</ele>
        <time>2022-05-31T11:55:22.514Z</time>
      </trkpt>
      <trkpt lat="42.45266" lon="18.55714">
        <ele>61.374797</ele>
        <time>2022-05-31T11:55:26.522Z</time>
      </trkpt>
      <trkpt lat="42.4526" lon="18.55702">
        <ele>61.66256</ele>
        <time>2022-05-31T11:55:31.525Z</time>
      </trkpt>
      <trkpt lat="42.45254" lon="18.5569">
        <ele>61.946505</ele>
        <time>2022-05-31T11:55:36.513Z</time>
      </trkpt>
      <trkpt lat="42.45248" lon="18.55678">
        <ele>62.251535</ele>
        <time>2022-05-31T11:55:41.525Z</time>
      </trkpt>
      <trkpt lat="42.45242" lon="18.55666">
        <ele>62.538831</ele>
        <time>2022-05-31T11:55:45.523Z</time>
      </trkpt>
      <trkpt lat="42.45235" lon="18.55656">
        <ele>62.820264</ele>
        <time>2022-05-31T11:55:49.524Z</time>
      </trkpt>
      <trkpt lat="42.45229" lon="18.55645">
        <ele>63.106</ele>
        <time>2022-05-31T11:55:53.526Z</time>
      </trkpt>
      <trkpt lat="42.45222" lon="18.55634">
        <ele>63.398085</ele>
        <time>2022-05-31T11:55:57.522Z</time>
      </trkpt>
      <trkpt lat="42.45215" lon="18.55623">
        <ele>63.943064</ele>
        <time>2022-05-31T11:56:01.524Z</time>
      </trkpt>
      <trkpt lat="42.45207" lon="18.55613">
        <ele>64.509637</ele>
        <time>2022-05-31T11:56:05.524Z</time>
      </trkpt>
      <trkpt lat="42.45201" lon="18.55602">
        <ele>65.007264</ele>
        <time>2022-05-31T11:56:09.528Z</time>
      </trkpt>
      <trkpt lat="42.45195" lon="18.55592">
        <ele>65.499293</ele>
        <time>2022-05-31T11:56:13.513Z</time>
      </trkpt>
      <trkpt lat="42.4519" lon="18.55581">
        <ele>65.995405</ele>
        <time>2022-05-31T11:56:17.524Z</time>
      </trkpt>
      <trkpt lat="42.45186" lon="18.55568">
        <ele>66.550371</ele>
        <time>2022-05-31T11:56:22.527Z</time>
      </trkpt>
      <trkpt lat="42.45183" lon="18.55556">
        <ele>67.028448</ele>
        <time>2022-05-31T11:56:26.517Z</time>
      </trkpt>
      <trkpt lat="42.45181" lon="18.55541">
        <ele>67.596491</ele>
        <time>2022-05-31T11:56:31.519Z</time>
      </trkpt>
      <trkpt lat="42.45179" lon="18.55528">
        <ele>68.098439</ele>
        <time>2022-05-31T11:56:35.516Z</time>
      </trkpt>
      <trkpt lat="42.45177" lon="18.55515">
        <ele>68.621022</ele>
        <time>2022-05-31T11:56:39.513Z</time>
      </trkpt>
      <trkpt lat="42.45175" lon="18.555">
        <ele>69.203448</ele>
        <time>2022-05-31T11:56:44.520Z</time>
      </trkpt>
      <trkpt lat="42.45174" lon="18.55485">
        <ele>69.764446</ele>
        <time>2022-05-31T11:56:49.509Z</time>
      </trkpt>
      <trkpt lat="42.45171" lon="18.55473">
        <ele>70.255897</ele>
        <time>2022-05-31T11:56:53.526Z</time>
      </trkpt>
      <trkpt lat="42.4517" lon="18.55459">
        <ele>70.806895</ele>
        <time>2022-05-31T11:56:57.522Z</time>
      </trkpt>
      <trkpt lat="42.45168" lon="18.55446">
        <ele>71.315223</ele>
        <time>2022-05-31T11:57:02.517Z</time>
      </trkpt>
      <trkpt lat="42.45167" lon="18.55432">
        <ele>71.829288</ele>
        <time>2022-05-31T11:57:07.513Z</time>
      </trkpt>
      <trkpt lat="42.45164" lon="18.55419">
        <ele>72.336956</ele>
        <time>2022-05-31T11:57:13.518Z</time>
      </trkpt>
      <trkpt lat="42.45163" lon="18.55406">
        <ele>72.762999</ele>
        <time>2022-05-31T11:57:19.516Z</time>
      </trkpt>
      <trkpt lat="42.45162" lon="18.5539">
        <ele>73.078803</ele>
        <time>2022-05-31T11:57:25.515Z</time>
      </trkpt>
      <trkpt lat="42.4516" lon="18.55378">
        <ele>73.32224</ele>
        <time>2022-05-31T11:57:29.515Z</time>
      </trkpt>
      <trkpt lat="42.45157" lon="18.55365">
        <ele>73.593592</ele>
        <time>2022-05-31T11:57:33.529Z</time>
      </trkpt>
      <trkpt lat="42.45153" lon="18.55351">
        <ele>73.88699</ele>
        <time>2022-05-31T11:57:37.523Z</time>
      </trkpt>
      <trkpt lat="42.45148" lon="18.5534">
        <ele>74.147187</ele>
        <time>2022-05-31T11:57:41.521Z</time>
      </trkpt>
      <trkpt lat="42.45139" lon="18.55329">
        <ele>74.460005</ele>
        <time>2022-05-31T11:57:46.521Z</time>
      </trkpt>
      <trkpt lat="42.45131" lon="18.5532">
        <ele>74.749922</ele>
        <time>2022-05-31T11:57:49.522Z</time>
      </trkpt>
      <trkpt lat="42.45123" lon="18.55313">
        <ele>74.99443</ele>
        <time>2022-05-31T11:57:51.546Z</time>
      </trkpt>
      <trkpt lat="42.45115" lon="18.55306">
        <ele>75.26107</ele>
        <time>2022-05-31T11:57:53.524Z</time>
      </trkpt>
      <trkpt lat="42.45106" lon="18.55296">
        <ele>75.567201</ele>
        <time>2022-05-31T11:57:55.532Z</time>
      </trkpt>
      <trkpt lat="42.45099" lon="18.55285">
        <ele>75.864036</ele>
        <time>2022-05-31T11:57:57.517Z</time>
      </trkpt>
      <trkpt lat="42.45094" lon="18.55274">
        <ele>76.117449</ele>
        <time>2022-05-31T11:57:59.514Z</time>
      </trkpt>
      <trkpt lat="42.4509" lon="18.55261">
        <ele>76.393417</ele>
        <time>2022-05-31T11:58:02.521Z</time>
      </trkpt>
      <trkpt lat="42.45087" lon="18.55247">
        <ele>76.684002</ele>
        <time>2022-05-31T11:58:05.535Z</time>
      </trkpt>
      <trkpt lat="42.45084" lon="18.55234">
        <ele>76.950755</ele>
        <time>2022-05-31T11:58:08.524Z</time>
      </trkpt>
      <trkpt lat="42.45081" lon="18.5522">
        <ele>77.243241</ele>
        <time>2022-05-31T11:58:11.526Z</time>
      </trkpt>
      <trkpt lat="42.45077" lon="18.55205">
        <ele>77.455296</ele>
        <time>2022-05-31T11:58:14.517Z</time>
      </trkpt>
      <trkpt lat="42.45073" lon="18.55192">
        <ele>77.306786</ele>
        <time>2022-05-31T11:58:17.516Z</time>
      </trkpt>
      <trkpt lat="42.45069" lon="18.55179">
        <ele>77.163123</ele>
        <time>2022-05-31T11:58:20.523Z</time>
      </trkpt>
      <trkpt lat="42.45064" lon="18.55167">
        <ele>77.029944</ele>
        <time>2022-05-31T11:58:23.529Z</time>
      </trkpt>
      <trkpt lat="42.4506" lon="18.55155">
        <ele>76.892499</ele>
        <time>2022-05-31T11:58:26.517Z</time>
      </trkpt>
      <trkpt lat="42.45056" lon="18.55144">
        <ele>76.762366</ele>
        <time>2022-05-31T11:58:29.523Z</time>
      </trkpt>
      <trkpt lat="42.45053" lon="18.55132">
        <ele>76.638258</ele>
        <time>2022-05-31T11:58:32.523Z</time>
      </trkpt>
      <trkpt lat="42.45052" lon="18.5512">
        <ele>76.510445</ele>
        <time>2022-05-31T11:58:35.528Z</time>
      </trkpt>
      <trkpt lat="42.45052" lon="18.55105">
        <ele>76.365763</ele>
        <time>2022-05-31T11:58:38.514Z</time>
      </trkpt>
      <trkpt lat="42.45053" lon="18.55092">
        <ele>76.229402</ele>
        <time>2022-05-31T11:58:41.516Z</time>
      </trkpt>
      <trkpt lat="42.45054" lon="18.55079">
        <ele>76.09332</ele>
        <time>2022-05-31T11:58:44.526Z</time>
      </trkpt>
      <trkpt lat="42.45056" lon="18.55066">
        <ele>75.957019</ele>
        <time>2022-05-31T11:58:47.526Z</time>
      </trkpt>
      <trkpt lat="42.45057" lon="18.55051">
        <ele>75.806328</ele>
        <time>2022-05-31T11:58:51.526Z</time>
      </trkpt>
      <trkpt lat="42.45058" lon="18.55035">
        <ele>75.64607</ele>
        <time>2022-05-31T11:58:55.528Z</time>
      </trkpt>
      <trkpt lat="42.45057" lon="18.55022">
        <ele>75.510109</ele>
        <time>2022-05-31T11:58:59.517Z</time>
      </trkpt>
      <trkpt lat="42.45055" lon="18.55008">
        <ele>75.368783</ele>
        <time>2022-05-31T11:59:03.584Z</time>
      </trkpt>
      <trkpt lat="42.45054" lon="18.54994">
        <ele>75.222985</ele>
        <time>2022-05-31T11:59:07.551Z</time>
      </trkpt>
      <trkpt lat="42.45052" lon="18.54981">
        <ele>75.083207</ele>
        <time>2022-05-31T11:59:11.564Z</time>
      </trkpt>
      <trkpt lat="42.45052" lon="18.54967">
        <ele>75.165748</ele>
        <time>2022-05-31T11:59:15.548Z</time>
      </trkpt>
      <trkpt lat="42.45055" lon="18.54953">
        <ele>75.611183</ele>
        <time>2022-05-31T11:59:19.558Z</time>
      </trkpt>
      <trkpt lat="42.45058" lon="18.54939">
        <ele>76.048848</ele>
        <time>2022-05-31T11:59:23.557Z</time>
      </trkpt>
      <trkpt lat="42.45062" lon="18.54926">
        <ele>76.45732</ele>
        <time>2022-05-31T11:59:27.540Z</time>
      </trkpt>
      <trkpt lat="42.45066" lon="18.54915">
        <ele>76.826121</ele>
        <time>2022-05-31T11:59:31.559Z</time>
      </trkpt>
      <trkpt lat="42.45069" lon="18.54903">
        <ele>77.194975</ele>
        <time>2022-05-31T11:59:35.544Z</time>
      </trkpt>
      <trkpt lat="42.45072" lon="18.54889">
        <ele>77.644532</ele>
        <time>2022-05-31T11:59:39.584Z</time>
      </trkpt>
      <trkpt lat="42.45074" lon="18.54877">
        <ele>78.007105</ele>
        <time>2022-05-31T11:59:42.554Z</time>
      </trkpt>
      <trkpt lat="42.45075" lon="18.54864">
        <ele>78.403161</ele>
        <time>2022-05-31T11:59:46.566Z</time>
      </trkpt>
      <trkpt lat="42.45078" lon="18.54851">
        <ele>78.791022</ele>
        <time>2022-05-31T11:59:50.544Z</time>
      </trkpt>
      <trkpt lat="42.45081" lon="18.54839">
        <ele>79.167353</ele>
        <time>2022-05-31T11:59:54.556Z</time>
      </trkpt>
      <trkpt lat="42.45088" lon="18.54828">
        <ele>79.613217</ele>
        <time>2022-05-31T11:59:58.585Z</time>
      </trkpt>
      <trkpt lat="42.45095" lon="18.54815">
        <ele>80.090083</ele>
        <time>2022-05-31T12:00:02.579Z</time>
      </trkpt>
      <trkpt lat="42.451" lon="18.54802">
        <ele>80.53831</ele>
        <time>2022-05-31T12:00:06.549Z</time>
      </trkpt>
      <trkpt lat="42.45103" lon="18.54789">
        <ele>80.914269</ele>
        <time>2022-05-31T12:00:09.545Z</time>
      </trkpt>
      <trkpt lat="42.45102" lon="18.54774">
        <ele>81.383537</ele>
        <time>2022-05-31T12:00:13.547Z</time>
      </trkpt>
      <trkpt lat="42.45102" lon="18.54758">
        <ele>81.842133</ele>
        <time>2022-05-31T12:00:17.549Z</time>
      </trkpt>
      <trkpt lat="42.45099" lon="18.54744">
        <ele>82.260532</ele>
        <time>2022-05-31T12:00:21.565Z</time>
      </trkpt>
      <trkpt lat="42.45097" lon="18.5473">
        <ele>82.261554</ele>
        <time>2022-05-31T12:00:25.537Z</time>
      </trkpt>
      <trkpt lat="42.45095" lon="18.54718">
        <ele>82.261554</ele>
        <time>2022-05-31T12:00:28.535Z</time>
      </trkpt>
      <trkpt lat="42.45094" lon="18.54706">
        <ele>82.261554</ele>
        <time>2022-05-31T12:00:31.549Z</time>
      </trkpt>
      <trkpt lat="42.45095" lon="18.54691">
        <ele>82.261554</ele>
        <time>2022-05-31T12:00:35.547Z</time>
      </trkpt>
      <trkpt lat="42.45096" lon="18.54677">
        <ele>82.261554</ele>
        <time>2022-05-31T12:00:39.539Z</time>
      </trkpt>
      <trkpt lat="42.45097" lon="18.54663">
        <ele>82.261554</ele>
        <time>2022-05-31T12:00:43.550Z</time>
      </trkpt>
      <trkpt lat="42.45099" lon="18.54648">
        <ele>82.261554</ele>
        <time>2022-05-31T12:00:47.542Z</time>
      </trkpt>
      <trkpt lat="42.45101" lon="18.54634">
        <ele>82.261554</ele>
        <time>2022-05-31T12:00:51.530Z</time>
      </trkpt>
      <trkpt lat="42.45103" lon="18.5462">
        <ele>82.261554</ele>
        <time>2022-05-31T12:00:55.551Z</time>
      </trkpt>
      <trkpt lat="42.45104" lon="18.54608">
        <ele>82.261554</ele>
        <time>2022-05-31T12:00:59.542Z</time>
      </trkpt>
      <trkpt lat="42.45105" lon="18.54594">
        <ele>82.261554</ele>
        <time>2022-05-31T12:01:03.550Z</time>
      </trkpt>
      <trkpt lat="42.45108" lon="18.54577">
        <ele>82.261554</ele>
        <time>2022-05-31T12:01:07.537Z</time>
      </trkpt>
      <trkpt lat="42.45109" lon="18.54563">
        <ele>82.261554</ele>
        <time>2022-05-31T12:01:10.545Z</time>
      </trkpt>
      <trkpt lat="42.4511" lon="18.54551">
        <ele>82.261554</ele>
        <time>2022-05-31T12:01:13.549Z</time>
      </trkpt>
      <trkpt lat="42.45111" lon="18.54535">
        <ele>82.261554</ele>
        <time>2022-05-31T12:01:17.531Z</time>
      </trkpt>
      <trkpt lat="42.45113" lon="18.54522">
        <ele>82.261554</ele>
        <time>2022-05-31T12:01:21.560Z</time>
      </trkpt>
      <trkpt lat="42.45115" lon="18.54508">
        <ele>82.261554</ele>
        <time>2022-05-31T12:01:25.536Z</time>
      </trkpt>
      <trkpt lat="42.45118" lon="18.54494">
        <ele>82.261554</ele>
        <time>2022-05-31T12:01:31.543Z</time>
      </trkpt>
      <trkpt lat="42.45125" lon="18.54486">
        <ele>82.261554</ele>
        <time>2022-05-31T12:01:38.543Z</time>
      </trkpt>
      <trkpt lat="42.45128" lon="18.54487">
        <ele>82.261554</ele>
        <time>2022-05-31T12:03:09.382Z</time>
      </trkpt>
    </trkseg>
  </trk>
  <trk>
    <name><![CDATA[Tour d'Europe: étape 700]]></name>
    <extensions>
      <line xmlns="http://www.topografix.com/GPX/gpx_style/0/2">
        <color>FF00FF</color>
        <width>4</width>
      </line>
    </extensions>
    <trkseg>
      <trkpt lat="42.2837" lon="18.83812">
        <ele>94.793916</ele>
        <time>2022-05-29T08:04:44.764Z</time>
      </trkpt>
      <trkpt lat="42.28394" lon="18.83813">
        <ele>94.793916</ele>
        <time>2022-05-29T08:04:48.735Z</time>
      </trkpt>
      <trkpt lat="42.28379" lon="18.838">
        <ele>94.793916</ele>
        <time>2022-05-29T08:16:32.712Z</time>
      </trkpt>
      <trkpt lat="42.28342" lon="18.83802">
        <ele>94.793916</ele>
        <time>2022-05-29T08:25:37.750Z</time>
      </trkpt>
      <trkpt lat="42.28326" lon="18.8379">
        <ele>94.037596</ele>
        <time>2022-05-29T08:25:54.716Z</time>
      </trkpt>
      <trkpt lat="42.28308" lon="18.83788">
        <ele>92.048879</ele>
        <time>2022-05-29T08:26:23.725Z</time>
      </trkpt>
      <trkpt lat="42.28324" lon="18.8377">
        <ele>89.756582</ele>
        <time>2022-05-29T08:26:31.803Z</time>
      </trkpt>
      <trkpt lat="42.28333" lon="18.83761">
        <ele>88.5552</ele>
        <time>2022-05-29T08:26:35.720Z</time>
      </trkpt>
      <trkpt lat="42.28341" lon="18.83754">
        <ele>87.544229</ele>
        <time>2022-05-29T08:26:39.812Z</time>
      </trkpt>
      <trkpt lat="42.2835" lon="18.8375">
        <ele>86.507566</ele>
        <time>2022-05-29T08:26:44.717Z</time>
      </trkpt>
      <trkpt lat="42.28359" lon="18.83753">
        <ele>85.454613</ele>
        <time>2022-05-29T08:26:50.734Z</time>
      </trkpt>
      <trkpt lat="42.28366" lon="18.8376">
        <ele>84.437953</ele>
        <time>2022-05-29T08:26:58.732Z</time>
      </trkpt>
      <trkpt lat="42.28375" lon="18.83766">
        <ele>83.373181</ele>
        <time>2022-05-29T08:27:03.740Z</time>
      </trkpt>
      <trkpt lat="42.28382" lon="18.83776">
        <ele>82.282587</ele>
        <time>2022-05-29T08:27:08.737Z</time>
      </trkpt>
      <trkpt lat="42.28389" lon="18.83786">
        <ele>81.108864</ele>
        <time>2022-05-29T08:27:11.733Z</time>
      </trkpt>
      <trkpt lat="42.28397" lon="18.83797">
        <ele>79.904645</ele>
        <time>2022-05-29T08:27:15.741Z</time>
      </trkpt>
      <trkpt lat="42.28405" lon="18.83806">
        <ele>78.788026</ele>
        <time>2022-05-29T08:27:18.749Z</time>
      </trkpt>
      <trkpt lat="42.28413" lon="18.83815">
        <ele>77.62594</ele>
        <time>2022-05-29T08:27:21.743Z</time>
      </trkpt>
      <trkpt lat="42.28423" lon="18.83824">
        <ele>76.365754</ele>
        <time>2022-05-29T08:27:25.720Z</time>
      </trkpt>
      <trkpt lat="42.28433" lon="18.83826">
        <ele>75.208787</ele>
        <time>2022-05-29T08:27:28.748Z</time>
      </trkpt>
      <trkpt lat="42.28441" lon="18.8382">
        <ele>74.694262</ele>
        <time>2022-05-29T08:27:31.776Z</time>
      </trkpt>
      <trkpt lat="42.2845" lon="18.8381">
        <ele>74.141573</ele>
        <time>2022-05-29T08:27:35.746Z</time>
      </trkpt>
      <trkpt lat="42.28458" lon="18.83801">
        <ele>73.614691</ele>
        <time>2022-05-29T08:27:39.732Z</time>
      </trkpt>
      <trkpt lat="42.28469" lon="18.83792">
        <ele>72.989044</ele>
        <time>2022-05-29T08:27:42.753Z</time>
      </trkpt>
      <trkpt lat="42.28479" lon="18.83782">
        <ele>72.37179</ele>
        <time>2022-05-29T08:27:45.748Z</time>
      </trkpt>
      <trkpt lat="42.28486" lon="18.83772">
        <ele>71.891324</ele>
        <time>2022-05-29T08:27:48.731Z</time>
      </trkpt>
      <trkpt lat="42.28491" lon="18.83762">
        <ele>71.446856</ele>
        <time>2022-05-29T08:27:51.733Z</time>
      </trkpt>
      <trkpt lat="42.28498" lon="18.83754">
        <ele>70.98131</ele>
        <time>2022-05-29T08:27:55.763Z</time>
      </trkpt>
      <trkpt lat="42.28508" lon="18.83744">
        <ele>70.373771</ele>
        <time>2022-05-29T08:27:58.754Z</time>
      </trkpt>
      <trkpt lat="42.28517" lon="18.83734">
        <ele>69.8233</ele>
        <time>2022-05-29T08:28:01.722Z</time>
      </trkpt>
      <trkpt lat="42.28522" lon="18.83724">
        <ele>69.358499</ele>
        <time>2022-05-29T08:28:04.765Z</time>
      </trkpt>
      <trkpt lat="42.28525" lon="18.83711">
        <ele>68.877727</ele>
        <time>2022-05-29T08:28:08.725Z</time>
      </trkpt>
      <trkpt lat="42.28531" lon="18.83701">
        <ele>68.418877</ele>
        <time>2022-05-29T08:28:12.800Z</time>
      </trkpt>
      <trkpt lat="42.28537" lon="18.8369">
        <ele>67.921965</ele>
        <time>2022-05-29T08:28:17.751Z</time>
      </trkpt>
      <trkpt lat="42.28545" lon="18.83657">
        <ele>66.645026</ele>
        <time>2022-05-29T08:28:51.767Z</time>
      </trkpt>
      <trkpt lat="42.28542" lon="18.83642">
        <ele>66.027948</ele>
        <time>2022-05-29T08:28:54.743Z</time>
      </trkpt>
      <trkpt lat="42.28537" lon="18.83632">
        <ele>65.440376</ele>
        <time>2022-05-29T08:28:57.732Z</time>
      </trkpt>
      <trkpt lat="42.2853" lon="18.83624">
        <ele>64.854213</ele>
        <time>2022-05-29T08:29:00.759Z</time>
      </trkpt>
      <trkpt lat="42.28521" lon="18.83615">
        <ele>64.175467</ele>
        <time>2022-05-29T08:29:04.730Z</time>
      </trkpt>
      <trkpt lat="42.28511" lon="18.83609">
        <ele>63.444294</ele>
        <time>2022-05-29T08:29:08.742Z</time>
      </trkpt>
      <trkpt lat="42.28503" lon="18.83602">
        <ele>62.830461</ele>
        <time>2022-05-29T08:29:11.727Z</time>
      </trkpt>
      <trkpt lat="42.28493" lon="18.83593">
        <ele>62.083813</ele>
        <time>2022-05-29T08:29:15.743Z</time>
      </trkpt>
      <trkpt lat="42.28485" lon="18.83587">
        <ele>61.467662</ele>
        <time>2022-05-29T08:29:18.765Z</time>
      </trkpt>
      <trkpt lat="42.28477" lon="18.83581">
        <ele>60.889674</ele>
        <time>2022-05-29T08:29:21.726Z</time>
      </trkpt>
      <trkpt lat="42.28468" lon="18.83574">
        <ele>60.231725</ele>
        <time>2022-05-29T08:29:25.725Z</time>
      </trkpt>
      <trkpt lat="42.28459" lon="18.83564">
        <ele>59.497885</ele>
        <time>2022-05-29T08:29:29.766Z</time>
      </trkpt>
      <trkpt lat="42.28451" lon="18.83555">
        <ele>58.822334</ele>
        <time>2022-05-29T08:29:33.732Z</time>
      </trkpt>
      <trkpt lat="42.28442" lon="18.83547">
        <ele>58.123522</ele>
        <time>2022-05-29T08:29:38.752Z</time>
      </trkpt>
      <trkpt lat="42.28435" lon="18.83539">
        <ele>57.515754</ele>
        <time>2022-05-29T08:29:42.742Z</time>
      </trkpt>
      <trkpt lat="42.28426" lon="18.83531">
        <ele>56.843386</ele>
        <time>2022-05-29T08:29:46.724Z</time>
      </trkpt>
      <trkpt lat="42.28417" lon="18.83522">
        <ele>56.128627</ele>
        <time>2022-05-29T08:29:51.741Z</time>
      </trkpt>
      <trkpt lat="42.28408" lon="18.83514">
        <ele>55.427149</ele>
        <time>2022-05-29T08:29:56.730Z</time>
      </trkpt>
      <trkpt lat="42.28399" lon="18.83509">
        <ele>54.832574</ele>
        <time>2022-05-29T08:30:01.727Z</time>
      </trkpt>
      <trkpt lat="42.28392" lon="18.83501">
        <ele>55.502028</ele>
        <time>2022-05-29T08:30:05.751Z</time>
      </trkpt>
      <trkpt lat="42.28383" lon="18.83493">
        <ele>56.518424</ele>
        <time>2022-05-29T08:30:09.739Z</time>
      </trkpt>
      <trkpt lat="42.28375" lon="18.83484">
        <ele>57.477923</ele>
        <time>2022-05-29T08:30:14.729Z</time>
      </trkpt>
      <trkpt lat="42.28367" lon="18.83476">
        <ele>58.397499</ele>
        <time>2022-05-29T08:30:18.750Z</time>
      </trkpt>
      <trkpt lat="42.2836" lon="18.83467">
        <ele>59.302087</ele>
        <time>2022-05-29T08:30:23.747Z</time>
      </trkpt>
      <trkpt lat="42.28354" lon="18.83457">
        <ele>60.191976</ele>
        <time>2022-05-29T08:30:30.724Z</time>
      </trkpt>
      <trkpt lat="42.28346" lon="18.83451">
        <ele>61.099661</ele>
        <time>2022-05-29T08:30:35.754Z</time>
      </trkpt>
      <trkpt lat="42.28338" lon="18.83444">
        <ele>61.970676</ele>
        <time>2022-05-29T08:30:40.737Z</time>
      </trkpt>
      <trkpt lat="42.28328" lon="18.8344">
        <ele>62.904268</ele>
        <time>2022-05-29T08:30:46.744Z</time>
      </trkpt>
      <trkpt lat="42.2832" lon="18.83431">
        <ele>63.896161</ele>
        <time>2022-05-29T08:30:53.773Z</time>
      </trkpt>
      <trkpt lat="42.28311" lon="18.83424">
        <ele>64.797476</ele>
        <time>2022-05-29T08:30:58.736Z</time>
      </trkpt>
      <trkpt lat="42.28303" lon="18.83416">
        <ele>65.710181</ele>
        <time>2022-05-29T08:31:05.746Z</time>
      </trkpt>
      <trkpt lat="42.28295" lon="18.83412">
        <ele>66.562011</ele>
        <time>2022-05-29T08:31:12.751Z</time>
      </trkpt>
      <trkpt lat="42.28286" lon="18.83408">
        <ele>67.435841</ele>
        <time>2022-05-29T08:31:18.747Z</time>
      </trkpt>
      <trkpt lat="42.28276" lon="18.83406">
        <ele>68.38491</ele>
        <time>2022-05-29T08:31:26.745Z</time>
      </trkpt>
      <trkpt lat="42.28267" lon="18.83404">
        <ele>69.217604</ele>
        <time>2022-05-29T08:31:33.743Z</time>
      </trkpt>
      <trkpt lat="42.28256" lon="18.83405">
        <ele>70.212377</ele>
        <time>2022-05-29T08:31:40.735Z</time>
      </trkpt>
      <trkpt lat="42.28246" lon="18.83405">
        <ele>71.123777</ele>
        <time>2022-05-29T08:31:46.747Z</time>
      </trkpt>
      <trkpt lat="42.28236" lon="18.83403">
        <ele>71.849131</ele>
        <time>2022-05-29T08:31:51.726Z</time>
      </trkpt>
      <trkpt lat="42.28228" lon="18.834">
        <ele>72.389934</ele>
        <time>2022-05-29T08:31:57.723Z</time>
      </trkpt>
      <trkpt lat="42.28218" lon="18.834">
        <ele>72.946539</ele>
        <time>2022-05-29T08:32:04.729Z</time>
      </trkpt>
      <trkpt lat="42.28209" lon="18.834">
        <ele>73.490917</ele>
        <time>2022-05-29T08:32:12.753Z</time>
      </trkpt>
      <trkpt lat="42.28199" lon="18.83402">
        <ele>74.098472</ele>
        <time>2022-05-29T08:32:18.785Z</time>
      </trkpt>
      <trkpt lat="42.2819" lon="18.83408">
        <ele>74.725707</ele>
        <time>2022-05-29T08:32:24.746Z</time>
      </trkpt>
      <trkpt lat="42.2818" lon="18.83409">
        <ele>75.326665</ele>
        <time>2022-05-29T08:32:31.727Z</time>
      </trkpt>
      <trkpt lat="42.2817" lon="18.8341">
        <ele>75.926498</ele>
        <time>2022-05-29T08:32:38.744Z</time>
      </trkpt>
      <trkpt lat="42.28161" lon="18.83413">
        <ele>76.476128</ele>
        <time>2022-05-29T08:32:42.718Z</time>
      </trkpt>
      <trkpt lat="42.28152" lon="18.83417">
        <ele>77.025845</ele>
        <time>2022-05-29T08:32:47.830Z</time>
      </trkpt>
      <trkpt lat="42.28142" lon="18.83417">
        <ele>77.606704</ele>
        <time>2022-05-29T08:32:54.734Z</time>
      </trkpt>
      <trkpt lat="42.28132" lon="18.83417">
        <ele>78.199069</ele>
        <time>2022-05-29T08:33:00.734Z</time>
      </trkpt>
      <trkpt lat="42.28123" lon="18.83417">
        <ele>78.749696</ele>
        <time>2022-05-29T08:33:07.749Z</time>
      </trkpt>
      <trkpt lat="42.28114" lon="18.83417">
        <ele>79.306037</ele>
        <time>2022-05-29T08:33:14.741Z</time>
      </trkpt>
      <trkpt lat="42.28104" lon="18.83416">
        <ele>79.887368</ele>
        <time>2022-05-29T08:33:21.747Z</time>
      </trkpt>
      <trkpt lat="42.28095" lon="18.83412">
        <ele>80.475241</ele>
        <time>2022-05-29T08:33:28.739Z</time>
      </trkpt>
      <trkpt lat="42.28085" lon="18.8341">
        <ele>81.042461</ele>
        <time>2022-05-29T08:33:35.728Z</time>
      </trkpt>
      <trkpt lat="42.28076" lon="18.83406">
        <ele>81.645377</ele>
        <time>2022-05-29T08:33:41.750Z</time>
      </trkpt>
      <trkpt lat="42.28068" lon="18.83399">
        <ele>82.198026</ele>
        <time>2022-05-29T08:33:48.746Z</time>
      </trkpt>
      <trkpt lat="42.2806" lon="18.83393">
        <ele>82.883046</ele>
        <time>2022-05-29T08:33:54.737Z</time>
      </trkpt>
      <trkpt lat="42.28051" lon="18.83387">
        <ele>83.667183</ele>
        <time>2022-05-29T08:34:00.748Z</time>
      </trkpt>
      <trkpt lat="42.28044" lon="18.83378">
        <ele>84.381718</ele>
        <time>2022-05-29T08:34:07.738Z</time>
      </trkpt>
      <trkpt lat="42.28039" lon="18.83367">
        <ele>85.179253</ele>
        <time>2022-05-29T08:34:14.750Z</time>
      </trkpt>
      <trkpt lat="42.28033" lon="18.83356">
        <ele>85.961416</ele>
        <time>2022-05-29T08:34:21.733Z</time>
      </trkpt>
      <trkpt lat="42.28027" lon="18.83344">
        <ele>86.741714</ele>
        <time>2022-05-29T08:34:29.750Z</time>
      </trkpt>
      <trkpt lat="42.28022" lon="18.83332">
        <ele>87.529664</ele>
        <time>2022-05-29T08:34:35.778Z</time>
      </trkpt>
      <trkpt lat="42.28014" lon="18.83323">
        <ele>88.365127</ele>
        <time>2022-05-29T08:34:41.729Z</time>
      </trkpt>
      <trkpt lat="42.28005" lon="18.83318">
        <ele>89.091671</ele>
        <time>2022-05-29T08:34:47.730Z</time>
      </trkpt>
      <trkpt lat="42.28001" lon="18.83306">
        <ele>89.858189</ele>
        <time>2022-05-29T08:34:55.772Z</time>
      </trkpt>
      <trkpt lat="42.27995" lon="18.83296">
        <ele>90.55872</ele>
        <time>2022-05-29T08:35:01.740Z</time>
      </trkpt>
      <trkpt lat="42.27988" lon="18.83289">
        <ele>91.259334</ele>
        <time>2022-05-29T08:35:07.746Z</time>
      </trkpt>
      <trkpt lat="42.27979" lon="18.83279">
        <ele>92.11133</ele>
        <time>2022-05-29T08:35:14.728Z</time>
      </trkpt>
      <trkpt lat="42.27971" lon="18.83273">
        <ele>92.866808</ele>
        <time>2022-05-29T08:35:20.741Z</time>
      </trkpt>
      <trkpt lat="42.27962" lon="18.83269">
        <ele>93.585012</ele>
        <time>2022-05-29T08:35:26.742Z</time>
      </trkpt>
      <trkpt lat="42.27952" lon="18.8327">
        <ele>94.353917</ele>
        <time>2022-05-29T08:35:33.742Z</time>
      </trkpt>
      <trkpt lat="42.27943" lon="18.83273">
        <ele>95.115618</ele>
        <time>2022-05-29T08:35:39.750Z</time>
      </trkpt>
      <trkpt lat="42.27934" lon="18.83278">
        <ele>95.823351</ele>
        <time>2022-05-29T08:35:45.747Z</time>
      </trkpt>
      <trkpt lat="42.27927" lon="18.83288">
        <ele>96.463846</ele>
        <time>2022-05-29T08:35:51.771Z</time>
      </trkpt>
      <trkpt lat="42.27921" lon="18.83297">
        <ele>96.986495</ele>
        <time>2022-05-29T08:35:57.752Z</time>
      </trkpt>
      <trkpt lat="42.27913" lon="18.83306">
        <ele>97.56588</ele>
        <time>2022-05-29T08:36:04.756Z</time>
      </trkpt>
      <trkpt lat="42.27904" lon="18.83313">
        <ele>98.139658</ele>
        <time>2022-05-29T08:36:10.735Z</time>
      </trkpt>
      <trkpt lat="42.27897" lon="18.83322">
        <ele>98.659478</ele>
        <time>2022-05-29T08:36:16.720Z</time>
      </trkpt>
      <trkpt lat="42.27889" lon="18.83331">
        <ele>99.243924</ele>
        <time>2022-05-29T08:36:22.729Z</time>
      </trkpt>
      <trkpt lat="42.27881" lon="18.83338">
        <ele>99.77836</ele>
        <time>2022-05-29T08:36:27.734Z</time>
      </trkpt>
      <trkpt lat="42.27872" lon="18.83343">
        <ele>100.297464</ele>
        <time>2022-05-29T08:36:32.803Z</time>
      </trkpt>
      <trkpt lat="42.27864" lon="18.83347">
        <ele>100.819779</ele>
        <time>2022-05-29T08:36:37.757Z</time>
      </trkpt>
      <trkpt lat="42.27853" lon="18.83349">
        <ele>101.395084</ele>
        <time>2022-05-29T08:36:43.801Z</time>
      </trkpt>
      <trkpt lat="42.27844" lon="18.83348">
        <ele>101.942865</ele>
        <time>2022-05-29T08:36:49.752Z</time>
      </trkpt>
      <trkpt lat="42.27834" lon="18.83346">
        <ele>102.468504</ele>
        <time>2022-05-29T08:36:54.744Z</time>
      </trkpt>
      <trkpt lat="42.27825" lon="18.83343">
        <ele>102.996616</ele>
        <time>2022-05-29T08:36:59.762Z</time>
      </trkpt>
      <trkpt lat="42.27816" lon="18.83339">
        <ele>103.530099</ele>
        <time>2022-05-29T08:37:05.732Z</time>
      </trkpt>
      <trkpt lat="42.27809" lon="18.83332">
        <ele>104.029561</ele>
        <time>2022-05-29T08:37:11.736Z</time>
      </trkpt>
      <trkpt lat="42.27802" lon="18.83322">
        <ele>104.600495</ele>
        <time>2022-05-29T08:37:17.736Z</time>
      </trkpt>
      <trkpt lat="42.27795" lon="18.83311">
        <ele>105.201455</ele>
        <time>2022-05-29T08:37:23.724Z</time>
      </trkpt>
      <trkpt lat="42.27791" lon="18.83298">
        <ele>105.783081</ele>
        <time>2022-05-29T08:37:29.748Z</time>
      </trkpt>
      <trkpt lat="42.27787" lon="18.83285">
        <ele>106.396385</ele>
        <time>2022-05-29T08:37:35.741Z</time>
      </trkpt>
      <trkpt lat="42.27783" lon="18.83273">
        <ele>107.086046</ele>
        <time>2022-05-29T08:37:42.735Z</time>
      </trkpt>
      <trkpt lat="42.2778" lon="18.83259">
        <ele>107.802176</ele>
        <time>2022-05-29T08:37:49.766Z</time>
      </trkpt>
      <trkpt lat="42.27777" lon="18.83247">
        <ele>108.439078</ele>
        <time>2022-05-29T08:37:55.726Z</time>
      </trkpt>
      <trkpt lat="42.27775" lon="18.83236">
        <ele>109.062566</ele>
        <time>2022-05-29T08:38:01.753Z</time>
      </trkpt>
      <trkpt lat="42.27773" lon="18.83222">
        <ele>109.774136</ele>
        <time>2022-05-29T08:38:08.735Z</time>
      </trkpt>
      <trkpt lat="42.2777" lon="18.8321">
        <ele>110.404964</ele>
        <time>2022-05-29T08:38:14.741Z</time>
      </trkpt>
      <trkpt lat="42.27768" lon="18.83197">
        <ele>111.106382</ele>
        <time>2022-05-29T08:38:20.795Z</time>
      </trkpt>
      <trkpt lat="42.27765" lon="18.83185">
        <ele>111.736555</ele>
        <time>2022-05-29T08:38:26.741Z</time>
      </trkpt>
      <trkpt lat="42.27764" lon="18.83171">
        <ele>112.456001</ele>
        <time>2022-05-29T08:38:32.736Z</time>
      </trkpt>
      <trkpt lat="42.27767" lon="18.83159">
        <ele>113.109343</ele>
        <time>2022-05-29T08:38:37.735Z</time>
      </trkpt>
      <trkpt lat="42.27769" lon="18.83146">
        <ele>113.761105</ele>
        <time>2022-05-29T08:38:42.752Z</time>
      </trkpt>
      <trkpt lat="42.27774" lon="18.83135">
        <ele>114.467639</ele>
        <time>2022-05-29T08:38:48.716Z</time>
      </trkpt>
      <trkpt lat="42.27778" lon="18.83124">
        <ele>115.097229</ele>
        <time>2022-05-29T08:38:54.737Z</time>
      </trkpt>
      <trkpt lat="42.27783" lon="18.83113">
        <ele>115.777874</ele>
        <time>2022-05-29T08:39:00.751Z</time>
      </trkpt>
      <trkpt lat="42.27788" lon="18.831">
        <ele>116.505672</ele>
        <time>2022-05-29T08:39:07.765Z</time>
      </trkpt>
      <trkpt lat="42.27791" lon="18.83086">
        <ele>117.222979</ele>
        <time>2022-05-29T08:39:13.753Z</time>
      </trkpt>
      <trkpt lat="42.27794" lon="18.83074">
        <ele>117.898452</ele>
        <time>2022-05-29T08:39:19.728Z</time>
      </trkpt>
      <trkpt lat="42.27797" lon="18.83061">
        <ele>118.600138</ele>
        <time>2022-05-29T08:39:25.753Z</time>
      </trkpt>
      <trkpt lat="42.27797" lon="18.83046">
        <ele>119.289233</ele>
        <time>2022-05-29T08:39:31.730Z</time>
      </trkpt>
      <trkpt lat="42.27795" lon="18.83033">
        <ele>119.928551</ele>
        <time>2022-05-29T08:39:37.744Z</time>
      </trkpt>
      <trkpt lat="42.27792" lon="18.83021">
        <ele>120.54908</ele>
        <time>2022-05-29T08:39:43.730Z</time>
      </trkpt>
      <trkpt lat="42.27789" lon="18.83007">
        <ele>121.211498</ele>
        <time>2022-05-29T08:39:50.749Z</time>
      </trkpt>
      <trkpt lat="42.27786" lon="18.82995">
        <ele>121.813855</ele>
        <time>2022-05-29T08:39:56.748Z</time>
      </trkpt>
      <trkpt lat="42.27783" lon="18.82982">
        <ele>122.489608</ele>
        <time>2022-05-29T08:40:02.735Z</time>
      </trkpt>
      <trkpt lat="42.27783" lon="18.82969">
        <ele>123.101221</ele>
        <time>2022-05-29T08:40:08.742Z</time>
      </trkpt>
      <trkpt lat="42.27783" lon="18.82956">
        <ele>123.745416</ele>
        <time>2022-05-29T08:40:14.739Z</time>
      </trkpt>
      <trkpt lat="42.27784" lon="18.82943">
        <ele>124.348845</ele>
        <time>2022-05-29T08:40:20.781Z</time>
      </trkpt>
      <trkpt lat="42.27785" lon="18.82929">
        <ele>125.006389</ele>
        <time>2022-05-29T08:40:26.730Z</time>
      </trkpt>
      <trkpt lat="42.27789" lon="18.82917">
        <ele>125.624833</ele>
        <time>2022-05-29T08:40:33.744Z</time>
      </trkpt>
      <trkpt lat="42.27793" lon="18.82906">
        <ele>126.236772</ele>
        <time>2022-05-29T08:40:39.739Z</time>
      </trkpt>
      <trkpt lat="42.27796" lon="18.82894">
        <ele>126.841711</ele>
        <time>2022-05-29T08:40:46.764Z</time>
      </trkpt>
      <trkpt lat="42.27799" lon="18.82881">
        <ele>127.468751</ele>
        <time>2022-05-29T08:40:52.785Z</time>
      </trkpt>
      <trkpt lat="42.27802" lon="18.82869">
        <ele>128.103847</ele>
        <time>2022-05-29T08:40:58.784Z</time>
      </trkpt>
      <trkpt lat="42.27803" lon="18.82856">
        <ele>128.714757</ele>
        <time>2022-05-29T08:41:04.732Z</time>
      </trkpt>
      <trkpt lat="42.27802" lon="18.82841">
        <ele>129.403344</ele>
        <time>2022-05-29T08:41:10.740Z</time>
      </trkpt>
      <trkpt lat="42.27802" lon="18.82829">
        <ele>129.98551</ele>
        <time>2022-05-29T08:41:15.727Z</time>
      </trkpt>
      <trkpt lat="42.27801" lon="18.82815">
        <ele>130.395639</ele>
        <time>2022-05-29T08:41:21.747Z</time>
      </trkpt>
      <trkpt lat="42.27801" lon="18.82802">
        <ele>130.626802</ele>
        <time>2022-05-29T08:41:26.745Z</time>
      </trkpt>
      <trkpt lat="42.278" lon="18.82787">
        <ele>130.888083</ele>
        <time>2022-05-29T08:41:31.724Z</time>
      </trkpt>
      <trkpt lat="42.278" lon="18.82772">
        <ele>131.151016</ele>
        <time>2022-05-29T08:41:36.735Z</time>
      </trkpt>
      <trkpt lat="42.27798" lon="18.82758">
        <ele>131.401736</ele>
        <time>2022-05-29T08:41:41.753Z</time>
      </trkpt>
      <trkpt lat="42.27797" lon="18.82745">
        <ele>131.645629</ele>
        <time>2022-05-29T08:41:46.727Z</time>
      </trkpt>
      <trkpt lat="42.27796" lon="18.8273">
        <ele>131.900546</ele>
        <time>2022-05-29T08:41:51.753Z</time>
      </trkpt>
      <trkpt lat="42.27796" lon="18.82718">
        <ele>132.120729</ele>
        <time>2022-05-29T08:41:55.737Z</time>
      </trkpt>
      <trkpt lat="42.27795" lon="18.82706">
        <ele>132.33857</ele>
        <time>2022-05-29T08:41:59.749Z</time>
      </trkpt>
      <trkpt lat="42.27795" lon="18.82693">
        <ele>132.560877</ele>
        <time>2022-05-29T08:42:03.726Z</time>
      </trkpt>
      <trkpt lat="42.27793" lon="18.8268">
        <ele>132.793095</ele>
        <time>2022-05-29T08:42:08.747Z</time>
      </trkpt>
      <trkpt lat="42.27792" lon="18.82668">
        <ele>133.015709</ele>
        <time>2022-05-29T08:42:12.750Z</time>
      </trkpt>
      <trkpt lat="42.27791" lon="18.82655">
        <ele>133.245705</ele>
        <time>2022-05-29T08:42:16.740Z</time>
      </trkpt>
      <trkpt lat="42.2779" lon="18.82642">
        <ele>133.480411</ele>
        <time>2022-05-29T08:42:20.733Z</time>
      </trkpt>
      <trkpt lat="42.27791" lon="18.82628">
        <ele>133.725898</ele>
        <time>2022-05-29T08:42:24.734Z</time>
      </trkpt>
      <trkpt lat="42.2779" lon="18.82615">
        <ele>133.95564</ele>
        <time>2022-05-29T08:42:28.744Z</time>
      </trkpt>
      <trkpt lat="42.27791" lon="18.82602">
        <ele>134.188735</ele>
        <time>2022-05-29T08:42:32.763Z</time>
      </trkpt>
      <trkpt lat="42.2779" lon="18.82588">
        <ele>134.442702</ele>
        <time>2022-05-29T08:42:36.724Z</time>
      </trkpt>
      <trkpt lat="42.2779" lon="18.82575">
        <ele>134.44183</ele>
        <time>2022-05-29T08:42:39.763Z</time>
      </trkpt>
      <trkpt lat="42.2779" lon="18.82561">
        <ele>134.22628</ele>
        <time>2022-05-29T08:42:43.750Z</time>
      </trkpt>
      <trkpt lat="42.27791" lon="18.82547">
        <ele>134.00873</ele>
        <time>2022-05-29T08:42:47.743Z</time>
      </trkpt>
      <trkpt lat="42.27793" lon="18.82533">
        <ele>133.796379</ele>
        <time>2022-05-29T08:42:51.728Z</time>
      </trkpt>
      <trkpt lat="42.27795" lon="18.82518">
        <ele>133.564085</ele>
        <time>2022-05-29T08:42:55.771Z</time>
      </trkpt>
      <trkpt lat="42.27797" lon="18.82505">
        <ele>133.344917</ele>
        <time>2022-05-29T08:42:59.743Z</time>
      </trkpt>
      <trkpt lat="42.278" lon="18.82491">
        <ele>133.133151</ele>
        <time>2022-05-29T08:43:03.748Z</time>
      </trkpt>
      <trkpt lat="42.27803" lon="18.82479">
        <ele>132.93307</ele>
        <time>2022-05-29T08:43:08.744Z</time>
      </trkpt>
      <trkpt lat="42.27932" lon="18.82247">
        <ele>121.32149</ele>
        <time>2022-05-29T08:43:46.880Z</time>
      </trkpt>
      <trkpt lat="42.28107" lon="18.8204">
        <ele>111.525144</ele>
        <time>2022-05-29T08:45:03.713Z</time>
      </trkpt>
      <trkpt lat="42.28114" lon="18.82024">
        <ele>111.176056</ele>
        <time>2022-05-29T08:45:05.723Z</time>
      </trkpt>
      <trkpt lat="42.2812" lon="18.82014">
        <ele>112.272314</ele>
        <time>2022-05-29T08:45:07.750Z</time>
      </trkpt>
      <trkpt lat="42.28128" lon="18.82002">
        <ele>113.881633</ele>
        <time>2022-05-29T08:45:10.733Z</time>
      </trkpt>
      <trkpt lat="42.28136" lon="18.81991">
        <ele>115.411336</ele>
        <time>2022-05-29T08:45:13.734Z</time>
      </trkpt>
      <trkpt lat="42.28144" lon="18.81983">
        <ele>116.829865</ele>
        <time>2022-05-29T08:45:16.722Z</time>
      </trkpt>
      <trkpt lat="42.28153" lon="18.81977">
        <ele>118.098788</ele>
        <time>2022-05-29T08:45:19.718Z</time>
      </trkpt>
      <trkpt lat="42.28161" lon="18.81971">
        <ele>119.353426</ele>
        <time>2022-05-29T08:45:22.732Z</time>
      </trkpt>
      <trkpt lat="42.28171" lon="18.81962">
        <ele>120.936889</ele>
        <time>2022-05-29T08:45:26.713Z</time>
      </trkpt>
      <trkpt lat="42.28179" lon="18.81956">
        <ele>122.177973</ele>
        <time>2022-05-29T08:45:29.741Z</time>
      </trkpt>
      <trkpt lat="42.28188" lon="18.81949">
        <ele>123.545788</ele>
        <time>2022-05-29T08:45:32.716Z</time>
      </trkpt>
      <trkpt lat="42.28196" lon="18.81943">
        <ele>124.840479</ele>
        <time>2022-05-29T08:45:35.736Z</time>
      </trkpt>
      <trkpt lat="42.28207" lon="18.81936">
        <ele>126.392689</ele>
        <time>2022-05-29T08:45:39.720Z</time>
      </trkpt>
      <trkpt lat="42.28217" lon="18.81929">
        <ele>127.937391</ele>
        <time>2022-05-29T08:45:43.735Z</time>
      </trkpt>
      <trkpt lat="42.28227" lon="18.81921">
        <ele>129.515145</ele>
        <time>2022-05-29T08:45:47.716Z</time>
      </trkpt>
      <trkpt lat="42.28235" lon="18.81914">
        <ele>130.765704</ele>
        <time>2022-05-29T08:45:50.737Z</time>
      </trkpt>
      <trkpt lat="42.28242" lon="18.81905">
        <ele>132.03705</ele>
        <time>2022-05-29T08:45:53.753Z</time>
      </trkpt>
      <trkpt lat="42.28248" lon="18.81896">
        <ele>133.262202</ele>
        <time>2022-05-29T08:45:56.718Z</time>
      </trkpt>
      <trkpt lat="42.28254" lon="18.81886">
        <ele>134.604778</ele>
        <time>2022-05-29T08:45:59.744Z</time>
      </trkpt>
      <trkpt lat="42.2826" lon="18.81874">
        <ele>135.264521</ele>
        <time>2022-05-29T08:46:02.743Z</time>
      </trkpt>
      <trkpt lat="42.28266" lon="18.81863">
        <ele>135.267846</ele>
        <time>2022-05-29T08:46:05.717Z</time>
      </trkpt>
      <trkpt lat="42.28271" lon="18.81851">
        <ele>135.271072</ele>
        <time>2022-05-29T08:46:08.725Z</time>
      </trkpt>
      <trkpt lat="42.28277" lon="18.8184">
        <ele>135.274238</ele>
        <time>2022-05-29T08:46:11.735Z</time>
      </trkpt>
      <trkpt lat="42.28282" lon="18.81829">
        <ele>135.27738</ele>
        <time>2022-05-29T08:46:14.744Z</time>
      </trkpt>
      <trkpt lat="42.28287" lon="18.81818">
        <ele>135.28058</ele>
        <time>2022-05-29T08:46:17.734Z</time>
      </trkpt>
      <trkpt lat="42.28293" lon="18.81808">
        <ele>135.283762</ele>
        <time>2022-05-29T08:46:20.770Z</time>
      </trkpt>
      <trkpt lat="42.283" lon="18.81798">
        <ele>135.286984</ele>
        <time>2022-05-29T08:46:23.736Z</time>
      </trkpt>
      <trkpt lat="42.28307" lon="18.81789">
        <ele>135.29008</ele>
        <time>2022-05-29T08:46:26.775Z</time>
      </trkpt>
      <trkpt lat="42.28313" lon="18.8178">
        <ele>135.293086</ele>
        <time>2022-05-29T08:46:29.747Z</time>
      </trkpt>
      <trkpt lat="42.2832" lon="18.81772">
        <ele>135.296027</ele>
        <time>2022-05-29T08:46:32.752Z</time>
      </trkpt>
      <trkpt lat="42.28328" lon="18.8176">
        <ele>135.299833</ele>
        <time>2022-05-29T08:46:36.766Z</time>
      </trkpt>
      <trkpt lat="42.28333" lon="18.8175">
        <ele>135.302791</ele>
        <time>2022-05-29T08:46:39.740Z</time>
      </trkpt>
      <trkpt lat="42.28339" lon="18.81739">
        <ele>135.305992</ele>
        <time>2022-05-29T08:46:42.746Z</time>
      </trkpt>
      <trkpt lat="42.28343" lon="18.81727">
        <ele>135.309191</ele>
        <time>2022-05-29T08:46:45.725Z</time>
      </trkpt>
      <trkpt lat="42.28347" lon="18.81715">
        <ele>135.312239</ele>
        <time>2022-05-29T08:46:48.733Z</time>
      </trkpt>
      <trkpt lat="42.28351" lon="18.81703">
        <ele>135.315439</ele>
        <time>2022-05-29T08:46:51.742Z</time>
      </trkpt>
      <trkpt lat="42.28356" lon="18.81691">
        <ele>135.318737</ele>
        <time>2022-05-29T08:46:54.727Z</time>
      </trkpt>
      <trkpt lat="42.28361" lon="18.8168">
        <ele>135.333242</ele>
        <time>2022-05-29T08:46:57.740Z</time>
      </trkpt>
      <trkpt lat="42.28367" lon="18.8167">
        <ele>135.383138</ele>
        <time>2022-05-29T08:47:00.756Z</time>
      </trkpt>
      <trkpt lat="42.28373" lon="18.81661">
        <ele>135.430557</ele>
        <time>2022-05-29T08:47:03.751Z</time>
      </trkpt>
      <trkpt lat="42.28381" lon="18.8165">
        <ele>135.488825</ele>
        <time>2022-05-29T08:47:07.745Z</time>
      </trkpt>
      <trkpt lat="42.28389" lon="18.8164">
        <ele>135.545823</ele>
        <time>2022-05-29T08:47:11.741Z</time>
      </trkpt>
      <trkpt lat="42.28397" lon="18.81632">
        <ele>135.597791</ele>
        <time>2022-05-29T08:47:15.753Z</time>
      </trkpt>
      <trkpt lat="42.28404" lon="18.81624">
        <ele>135.647359</ele>
        <time>2022-05-29T08:47:19.742Z</time>
      </trkpt>
      <trkpt lat="42.28412" lon="18.81616">
        <ele>135.699077</ele>
        <time>2022-05-29T08:47:23.747Z</time>
      </trkpt>
      <trkpt lat="42.28421" lon="18.81609">
        <ele>135.751672</ele>
        <time>2022-05-29T08:47:27.745Z</time>
      </trkpt>
      <trkpt lat="42.2843" lon="18.81604">
        <ele>135.803031</ele>
        <time>2022-05-29T08:47:31.782Z</time>
      </trkpt>
      <trkpt lat="42.28438" lon="18.81598">
        <ele>135.852382</ele>
        <time>2022-05-29T08:47:35.732Z</time>
      </trkpt>
      <trkpt lat="42.28476" lon="18.81552">
        <ele>136.121533</ele>
        <time>2022-05-29T08:49:21.784Z</time>
      </trkpt>
      <trkpt lat="42.28483" lon="18.81543">
        <ele>136.17204</ele>
        <time>2022-05-29T08:49:26.727Z</time>
      </trkpt>
      <trkpt lat="42.28491" lon="18.81535">
        <ele>136.22439</ele>
        <time>2022-05-29T08:49:31.735Z</time>
      </trkpt>
      <trkpt lat="42.28501" lon="18.81528">
        <ele>136.640761</ele>
        <time>2022-05-29T08:49:36.741Z</time>
      </trkpt>
      <trkpt lat="42.28508" lon="18.81521">
        <ele>137.645669</ele>
        <time>2022-05-29T08:49:40.744Z</time>
      </trkpt>
      <trkpt lat="42.28518" lon="18.81514">
        <ele>138.844024</ele>
        <time>2022-05-29T08:49:45.749Z</time>
      </trkpt>
      <trkpt lat="42.28528" lon="18.81509">
        <ele>140.006011</ele>
        <time>2022-05-29T08:49:50.752Z</time>
      </trkpt>
      <trkpt lat="42.28538" lon="18.81504">
        <ele>141.170826</ele>
        <time>2022-05-29T08:49:56.759Z</time>
      </trkpt>
      <trkpt lat="42.28546" lon="18.81498">
        <ele>142.22806</ele>
        <time>2022-05-29T08:50:01.766Z</time>
      </trkpt>
      <trkpt lat="42.28554" lon="18.8149">
        <ele>143.269356</ele>
        <time>2022-05-29T08:50:05.747Z</time>
      </trkpt>
      <trkpt lat="42.28562" lon="18.81481">
        <ele>144.44069</ele>
        <time>2022-05-29T08:50:10.742Z</time>
      </trkpt>
      <trkpt lat="42.28569" lon="18.81471">
        <ele>145.586196</ele>
        <time>2022-05-29T08:50:15.749Z</time>
      </trkpt>
      <trkpt lat="42.28575" lon="18.8146">
        <ele>146.708114</ele>
        <time>2022-05-29T08:50:20.723Z</time>
      </trkpt>
      <trkpt lat="42.2858" lon="18.81448">
        <ele>147.758024</ele>
        <time>2022-05-29T08:50:25.751Z</time>
      </trkpt>
      <trkpt lat="42.28584" lon="18.81436">
        <ele>148.864176</ele>
        <time>2022-05-29T08:50:30.753Z</time>
      </trkpt>
      <trkpt lat="42.28588" lon="18.81422">
        <ele>150.050794</ele>
        <time>2022-05-29T08:50:35.731Z</time>
      </trkpt>
      <trkpt lat="42.28592" lon="18.81409">
        <ele>151.213881</ele>
        <time>2022-05-29T08:50:40.761Z</time>
      </trkpt>
      <trkpt lat="42.28595" lon="18.81395">
        <ele>152.393076</ele>
        <time>2022-05-29T08:50:45.750Z</time>
      </trkpt>
      <trkpt lat="42.28598" lon="18.81382">
        <ele>153.58679</ele>
        <time>2022-05-29T08:50:50.771Z</time>
      </trkpt>
      <trkpt lat="42.28601" lon="18.81369">
        <ele>154.670519</ele>
        <time>2022-05-29T08:50:55.747Z</time>
      </trkpt>
      <trkpt lat="42.28604" lon="18.81355">
        <ele>155.841935</ele>
        <time>2022-05-29T08:51:00.729Z</time>
      </trkpt>
      <trkpt lat="42.28606" lon="18.81341">
        <ele>155.943745</ele>
        <time>2022-05-29T08:51:05.747Z</time>
      </trkpt>
      <trkpt lat="42.28607" lon="18.81327">
        <ele>155.766529</ele>
        <time>2022-05-29T08:51:10.756Z</time>
      </trkpt>
      <trkpt lat="42.28609" lon="18.81313">
        <ele>155.582349</ele>
        <time>2022-05-29T08:51:15.749Z</time>
      </trkpt>
      <trkpt lat="42.28609" lon="18.813">
        <ele>155.418001</ele>
        <time>2022-05-29T08:51:19.745Z</time>
      </trkpt>
      <trkpt lat="42.28609" lon="18.81286">
        <ele>155.243565</ele>
        <time>2022-05-29T08:51:23.826Z</time>
      </trkpt>
      <trkpt lat="42.28608" lon="18.8127">
        <ele>155.039741</ele>
        <time>2022-05-29T08:51:27.727Z</time>
      </trkpt>
      <trkpt lat="42.28607" lon="18.81257">
        <ele>154.870085</ele>
        <time>2022-05-29T08:51:30.757Z</time>
      </trkpt>
      <trkpt lat="42.28605" lon="18.81243">
        <ele>154.687073</ele>
        <time>2022-05-29T08:51:33.736Z</time>
      </trkpt>
      <trkpt lat="42.28602" lon="18.81227">
        <ele>154.483996</ele>
        <time>2022-05-29T08:51:36.739Z</time>
      </trkpt>
      <trkpt lat="42.28601" lon="18.81211">
        <ele>154.27306</ele>
        <time>2022-05-29T08:51:39.725Z</time>
      </trkpt>
      <trkpt lat="42.28598" lon="18.81193">
        <ele>154.045266</ele>
        <time>2022-05-29T08:51:42.752Z</time>
      </trkpt>
      <trkpt lat="42.28595" lon="18.81181">
        <ele>153.883425</ele>
        <time>2022-05-29T08:51:44.738Z</time>
      </trkpt>
      <trkpt lat="42.28593" lon="18.81167">
        <ele>153.70637</ele>
        <time>2022-05-29T08:51:46.743Z</time>
      </trkpt>
      <trkpt lat="42.2859" lon="18.81153">
        <ele>153.517785</ele>
        <time>2022-05-29T08:51:48.757Z</time>
      </trkpt>
      <trkpt lat="42.28587" lon="18.81138">
        <ele>153.315024</ele>
        <time>2022-05-29T08:51:50.796Z</time>
      </trkpt>
      <trkpt lat="42.28583" lon="18.81121">
        <ele>153.086145</ele>
        <time>2022-05-29T08:51:52.738Z</time>
      </trkpt>
      <trkpt lat="42.28579" lon="18.81102">
        <ele>152.334077</ele>
        <time>2022-05-29T08:51:54.747Z</time>
      </trkpt>
      <trkpt lat="42.28576" lon="18.81083">
        <ele>151.252134</ele>
        <time>2022-05-29T08:51:56.738Z</time>
      </trkpt>
      <trkpt lat="42.28571" lon="18.81062">
        <ele>150.085243</ele>
        <time>2022-05-29T08:51:58.736Z</time>
      </trkpt>
      <trkpt lat="42.28566" lon="18.81039">
        <ele>148.76867</ele>
        <time>2022-05-29T08:52:00.757Z</time>
      </trkpt>
      <trkpt lat="42.28563" lon="18.81026">
        <ele>148.067842</ele>
        <time>2022-05-29T08:52:01.732Z</time>
      </trkpt>
      <trkpt lat="42.28561" lon="18.81013">
        <ele>147.333654</ele>
        <time>2022-05-29T08:52:02.745Z</time>
      </trkpt>
      <trkpt lat="42.28558" lon="18.81">
        <ele>146.594209</ele>
        <time>2022-05-29T08:52:03.733Z</time>
      </trkpt>
      <trkpt lat="42.28555" lon="18.80987">
        <ele>145.847809</ele>
        <time>2022-05-29T08:52:04.736Z</time>
      </trkpt>
      <trkpt lat="42.28551" lon="18.80974">
        <ele>145.085875</ele>
        <time>2022-05-29T08:52:05.742Z</time>
      </trkpt>
      <trkpt lat="42.28546" lon="18.80961">
        <ele>144.313374</ele>
        <time>2022-05-29T08:52:06.724Z</time>
      </trkpt>
      <trkpt lat="42.28541" lon="18.80949">
        <ele>143.524106</ele>
        <time>2022-05-29T08:52:07.769Z</time>
      </trkpt>
      <trkpt lat="42.28535" lon="18.80937">
        <ele>142.733968</ele>
        <time>2022-05-29T08:52:08.737Z</time>
      </trkpt>
      <trkpt lat="42.28528" lon="18.80926">
        <ele>141.960721</ele>
        <time>2022-05-29T08:52:09.741Z</time>
      </trkpt>
      <trkpt lat="42.28521" lon="18.80916">
        <ele>141.191698</ele>
        <time>2022-05-29T08:52:10.777Z</time>
      </trkpt>
      <trkpt lat="42.28514" lon="18.80906">
        <ele>140.438305</ele>
        <time>2022-05-29T08:52:11.733Z</time>
      </trkpt>
      <trkpt lat="42.28506" lon="18.80896">
        <ele>139.655938</ele>
        <time>2022-05-29T08:52:12.753Z</time>
      </trkpt>
      <trkpt lat="42.285" lon="18.80886">
        <ele>138.651524</ele>
        <time>2022-05-29T08:52:13.759Z</time>
      </trkpt>
      <trkpt lat="42.28494" lon="18.80876">
        <ele>137.663716</ele>
        <time>2022-05-29T08:52:14.727Z</time>
      </trkpt>
      <trkpt lat="42.28489" lon="18.80865">
        <ele>136.689135</ele>
        <time>2022-05-29T08:52:15.739Z</time>
      </trkpt>
      <trkpt lat="42.28486" lon="18.80853">
        <ele>135.747836</ele>
        <time>2022-05-29T08:52:16.740Z</time>
      </trkpt>
      <trkpt lat="42.28484" lon="18.80841">
        <ele>134.796976</ele>
        <time>2022-05-29T08:52:17.729Z</time>
      </trkpt>
      <trkpt lat="42.28483" lon="18.80818">
        <ele>133.002888</ele>
        <time>2022-05-29T08:52:19.744Z</time>
      </trkpt>
      <trkpt lat="42.28485" lon="18.80805">
        <ele>132.036529</ele>
        <time>2022-05-29T08:52:20.740Z</time>
      </trkpt>
      <trkpt lat="42.28489" lon="18.80793">
        <ele>130.991489</ele>
        <time>2022-05-29T08:52:21.754Z</time>
      </trkpt>
      <trkpt lat="42.28494" lon="18.8078">
        <ele>129.853746</ele>
        <time>2022-05-29T08:52:22.752Z</time>
      </trkpt>
      <trkpt lat="42.28501" lon="18.80766">
        <ele>128.63252</ele>
        <time>2022-05-29T08:52:23.745Z</time>
      </trkpt>
      <trkpt lat="42.28507" lon="18.80754">
        <ele>127.454031</ele>
        <time>2022-05-29T08:52:24.751Z</time>
      </trkpt>
      <trkpt lat="42.28514" lon="18.80742">
        <ele>126.324595</ele>
        <time>2022-05-29T08:52:25.735Z</time>
      </trkpt>
      <trkpt lat="42.2852" lon="18.8073">
        <ele>125.241881</ele>
        <time>2022-05-29T08:52:26.744Z</time>
      </trkpt>
      <trkpt lat="42.28524" lon="18.80718">
        <ele>124.192393</ele>
        <time>2022-05-29T08:52:27.740Z</time>
      </trkpt>
      <trkpt lat="42.28527" lon="18.80705">
        <ele>123.148908</ele>
        <time>2022-05-29T08:52:28.733Z</time>
      </trkpt>
      <trkpt lat="42.28529" lon="18.80692">
        <ele>122.137677</ele>
        <time>2022-05-29T08:52:29.736Z</time>
      </trkpt>
      <trkpt lat="42.2853" lon="18.80678">
        <ele>121.118075</ele>
        <time>2022-05-29T08:52:30.757Z</time>
      </trkpt>
      <trkpt lat="42.28531" lon="18.80664">
        <ele>120.243702</ele>
        <time>2022-05-29T08:52:31.726Z</time>
      </trkpt>
      <trkpt lat="42.28531" lon="18.80651">
        <ele>119.362969</ele>
        <time>2022-05-29T08:52:32.749Z</time>
      </trkpt>
      <trkpt lat="42.28532" lon="18.80637">
        <ele>118.473996</ele>
        <time>2022-05-29T08:52:33.779Z</time>
      </trkpt>
      <trkpt lat="42.28534" lon="18.80623">
        <ele>117.596635</ele>
        <time>2022-05-29T08:52:34.753Z</time>
      </trkpt>
      <trkpt lat="42.28537" lon="18.8061">
        <ele>116.719346</ele>
        <time>2022-05-29T08:52:35.740Z</time>
      </trkpt>
      <trkpt lat="42.28541" lon="18.80597">
        <ele>115.846842</ele>
        <time>2022-05-29T08:52:36.740Z</time>
      </trkpt>
      <trkpt lat="42.28547" lon="18.80586">
        <ele>115.000968</ele>
        <time>2022-05-29T08:52:37.733Z</time>
      </trkpt>
      <trkpt lat="42.28553" lon="18.80576">
        <ele>114.165338</ele>
        <time>2022-05-29T08:52:38.769Z</time>
      </trkpt>
      <trkpt lat="42.28559" lon="18.80567">
        <ele>113.338295</ele>
        <time>2022-05-29T08:52:39.732Z</time>
      </trkpt>
      <trkpt lat="42.28567" lon="18.80559">
        <ele>112.491219</ele>
        <time>2022-05-29T08:52:40.730Z</time>
      </trkpt>
      <trkpt lat="42.28576" lon="18.80552">
        <ele>111.604451</ele>
        <time>2022-05-29T08:52:41.748Z</time>
      </trkpt>
      <trkpt lat="42.28586" lon="18.80546">
        <ele>110.66188</ele>
        <time>2022-05-29T08:52:42.738Z</time>
      </trkpt>
      <trkpt lat="42.28597" lon="18.80542">
        <ele>109.712379</ele>
        <time>2022-05-29T08:52:43.739Z</time>
      </trkpt>
      <trkpt lat="42.28608" lon="18.8054">
        <ele>108.741781</ele>
        <time>2022-05-29T08:52:44.747Z</time>
      </trkpt>
      <trkpt lat="42.2862" lon="18.8054">
        <ele>107.725574</ele>
        <time>2022-05-29T08:52:45.753Z</time>
      </trkpt>
      <trkpt lat="42.28631" lon="18.80542">
        <ele>106.713457</ele>
        <time>2022-05-29T08:52:46.737Z</time>
      </trkpt>
      <trkpt lat="42.28643" lon="18.80545">
        <ele>105.743141</ele>
        <time>2022-05-29T08:52:47.769Z</time>
      </trkpt>
      <trkpt lat="42.28653" lon="18.80548">
        <ele>104.847214</ele>
        <time>2022-05-29T08:52:48.753Z</time>
      </trkpt>
      <trkpt lat="42.28664" lon="18.80552">
        <ele>103.96418</ele>
        <time>2022-05-29T08:52:49.747Z</time>
      </trkpt>
      <trkpt lat="42.28675" lon="18.80555">
        <ele>103.065465</ele>
        <time>2022-05-29T08:52:50.744Z</time>
      </trkpt>
      <trkpt lat="42.28686" lon="18.80558">
        <ele>102.142978</ele>
        <time>2022-05-29T08:52:51.730Z</time>
      </trkpt>
      <trkpt lat="42.28697" lon="18.8056">
        <ele>101.227702</ele>
        <time>2022-05-29T08:52:52.749Z</time>
      </trkpt>
      <trkpt lat="42.28708" lon="18.80562">
        <ele>100.331742</ele>
        <time>2022-05-29T08:52:53.740Z</time>
      </trkpt>
      <trkpt lat="42.28719" lon="18.80564">
        <ele>99.44454</ele>
        <time>2022-05-29T08:52:54.778Z</time>
      </trkpt>
      <trkpt lat="42.2873" lon="18.80566">
        <ele>98.558043</ele>
        <time>2022-05-29T08:52:55.758Z</time>
      </trkpt>
      <trkpt lat="42.28741" lon="18.80567">
        <ele>97.666419</ele>
        <time>2022-05-29T08:52:56.743Z</time>
      </trkpt>
      <trkpt lat="42.28752" lon="18.80568">
        <ele>96.776058</ele>
        <time>2022-05-29T08:52:57.743Z</time>
      </trkpt>
      <trkpt lat="42.28763" lon="18.80569">
        <ele>95.877633</ele>
        <time>2022-05-29T08:52:58.727Z</time>
      </trkpt>
      <trkpt lat="42.28775" lon="18.8057">
        <ele>94.92157</ele>
        <time>2022-05-29T08:52:59.753Z</time>
      </trkpt>
      <trkpt lat="42.28787" lon="18.80571">
        <ele>93.975807</ele>
        <time>2022-05-29T08:53:00.764Z</time>
      </trkpt>
      <trkpt lat="42.28798" lon="18.80571">
        <ele>93.029837</ele>
        <time>2022-05-29T08:53:01.743Z</time>
      </trkpt>
      <trkpt lat="42.2881" lon="18.80573">
        <ele>92.102524</ele>
        <time>2022-05-29T08:53:02.744Z</time>
      </trkpt>
      <trkpt lat="42.28822" lon="18.80576">
        <ele>91.075722</ele>
        <time>2022-05-29T08:53:03.738Z</time>
      </trkpt>
      <trkpt lat="42.28833" lon="18.8058">
        <ele>89.623632</ele>
        <time>2022-05-29T08:53:04.738Z</time>
      </trkpt>
      <trkpt lat="42.28845" lon="18.80584">
        <ele>88.227425</ele>
        <time>2022-05-29T08:53:05.744Z</time>
      </trkpt>
      <trkpt lat="42.28856" lon="18.8059">
        <ele>86.809136</ele>
        <time>2022-05-29T08:53:06.762Z</time>
      </trkpt>
      <trkpt lat="42.28867" lon="18.80597">
        <ele>85.368329</ele>
        <time>2022-05-29T08:53:07.733Z</time>
      </trkpt>
      <trkpt lat="42.28877" lon="18.80605">
        <ele>83.861958</ele>
        <time>2022-05-29T08:53:08.759Z</time>
      </trkpt>
      <trkpt lat="42.28888" lon="18.80615">
        <ele>82.358034</ele>
        <time>2022-05-29T08:53:09.752Z</time>
      </trkpt>
      <trkpt lat="42.28897" lon="18.80627">
        <ele>80.857143</ele>
        <time>2022-05-29T08:53:10.737Z</time>
      </trkpt>
      <trkpt lat="42.28905" lon="18.8064">
        <ele>79.336449</ele>
        <time>2022-05-29T08:53:11.747Z</time>
      </trkpt>
      <trkpt lat="42.28913" lon="18.80653">
        <ele>77.832154</ele>
        <time>2022-05-29T08:53:12.782Z</time>
      </trkpt>
      <trkpt lat="42.28921" lon="18.80666">
        <ele>76.313406</ele>
        <time>2022-05-29T08:53:13.735Z</time>
      </trkpt>
      <trkpt lat="42.28929" lon="18.80679">
        <ele>74.776965</ele>
        <time>2022-05-29T08:53:14.734Z</time>
      </trkpt>
      <trkpt lat="42.28938" lon="18.80692">
        <ele>73.232281</ele>
        <time>2022-05-29T08:53:15.726Z</time>
      </trkpt>
      <trkpt lat="42.28948" lon="18.80704">
        <ele>71.720201</ele>
        <time>2022-05-29T08:53:16.734Z</time>
      </trkpt>
      <trkpt lat="42.28957" lon="18.80715">
        <ele>70.235069</ele>
        <time>2022-05-29T08:53:17.767Z</time>
      </trkpt>
      <trkpt lat="42.28966" lon="18.80725">
        <ele>69.013961</ele>
        <time>2022-05-29T08:53:18.739Z</time>
      </trkpt>
      <trkpt lat="42.28976" lon="18.80735">
        <ele>67.945136</ele>
        <time>2022-05-29T08:53:19.741Z</time>
      </trkpt>
      <trkpt lat="42.28986" lon="18.80744">
        <ele>66.859904</ele>
        <time>2022-05-29T08:53:20.734Z</time>
      </trkpt>
      <trkpt lat="42.28997" lon="18.80751">
        <ele>65.770024</ele>
        <time>2022-05-29T08:53:21.747Z</time>
      </trkpt>
      <trkpt lat="42.29008" lon="18.80757">
        <ele>64.683948</ele>
        <time>2022-05-29T08:53:22.749Z</time>
      </trkpt>
      <trkpt lat="42.2902" lon="18.80761">
        <ele>63.579589</ele>
        <time>2022-05-29T08:53:23.750Z</time>
      </trkpt>
      <trkpt lat="42.29033" lon="18.80763">
        <ele>62.459349</ele>
        <time>2022-05-29T08:53:24.725Z</time>
      </trkpt>
      <trkpt lat="42.29045" lon="18.80765">
        <ele>61.382532</ele>
        <time>2022-05-29T08:53:25.730Z</time>
      </trkpt>
      <trkpt lat="42.29057" lon="18.80765">
        <ele>60.318711</ele>
        <time>2022-05-29T08:53:26.729Z</time>
      </trkpt>
      <trkpt lat="42.29068" lon="18.80765">
        <ele>59.299544</ele>
        <time>2022-05-29T08:53:27.753Z</time>
      </trkpt>
      <trkpt lat="42.2908" lon="18.80763">
        <ele>58.275438</ele>
        <time>2022-05-29T08:53:28.748Z</time>
      </trkpt>
      <trkpt lat="42.29091" lon="18.80761">
        <ele>57.254362</ele>
        <time>2022-05-29T08:53:29.760Z</time>
      </trkpt>
      <trkpt lat="42.29102" lon="18.80758">
        <ele>56.213594</ele>
        <time>2022-05-29T08:53:30.732Z</time>
      </trkpt>
      <trkpt lat="42.29114" lon="18.80756">
        <ele>55.162942</ele>
        <time>2022-05-29T08:53:31.744Z</time>
      </trkpt>
      <trkpt lat="42.29125" lon="18.80752">
        <ele>54.13133</ele>
        <time>2022-05-29T08:53:32.730Z</time>
      </trkpt>
      <trkpt lat="42.29136" lon="18.80749">
        <ele>53.475431</ele>
        <time>2022-05-29T08:53:33.754Z</time>
      </trkpt>
      <trkpt lat="42.29147" lon="18.80746">
        <ele>53.179588</ele>
        <time>2022-05-29T08:53:34.737Z</time>
      </trkpt>
      <trkpt lat="42.29158" lon="18.80743">
        <ele>52.889635</ele>
        <time>2022-05-29T08:53:35.747Z</time>
      </trkpt>
      <trkpt lat="42.29169" lon="18.8074">
        <ele>52.593792</ele>
        <time>2022-05-29T08:53:36.750Z</time>
      </trkpt>
      <trkpt lat="42.29181" lon="18.80737">
        <ele>52.297541</ele>
        <time>2022-05-29T08:53:37.728Z</time>
      </trkpt>
      <trkpt lat="42.29192" lon="18.80733">
        <ele>52.003412</ele>
        <time>2022-05-29T08:53:38.754Z</time>
      </trkpt>
      <trkpt lat="42.29202" lon="18.8073">
        <ele>51.715993</ele>
        <time>2022-05-29T08:53:39.730Z</time>
      </trkpt>
      <trkpt lat="42.29213" lon="18.80726">
        <ele>51.429916</ele>
        <time>2022-05-29T08:53:40.737Z</time>
      </trkpt>
      <trkpt lat="42.29224" lon="18.80723">
        <ele>51.144673</ele>
        <time>2022-05-29T08:53:41.731Z</time>
      </trkpt>
      <trkpt lat="42.29234" lon="18.8072">
        <ele>50.86493</ele>
        <time>2022-05-29T08:53:42.751Z</time>
      </trkpt>
      <trkpt lat="42.29244" lon="18.80717">
        <ele>50.590685</ele>
        <time>2022-05-29T08:53:43.736Z</time>
      </trkpt>
      <trkpt lat="42.29255" lon="18.80715">
        <ele>50.323378</ele>
        <time>2022-05-29T08:53:44.742Z</time>
      </trkpt>
      <trkpt lat="42.29265" lon="18.80713">
        <ele>50.056712</ele>
        <time>2022-05-29T08:53:45.751Z</time>
      </trkpt>
      <trkpt lat="42.29275" lon="18.80711">
        <ele>49.792922</ele>
        <time>2022-05-29T08:53:46.760Z</time>
      </trkpt>
      <trkpt lat="42.29285" lon="18.80708">
        <ele>49.531707</ele>
        <time>2022-05-29T08:53:47.749Z</time>
      </trkpt>
      <trkpt lat="42.29294" lon="18.80707">
        <ele>49.281381</ele>
        <time>2022-05-29T08:53:48.737Z</time>
      </trkpt>
      <trkpt lat="42.29303" lon="18.80705">
        <ele>49.037008</ele>
        <time>2022-05-29T08:53:49.725Z</time>
      </trkpt>
      <trkpt lat="42.29312" lon="18.80704">
        <ele>48.936438</ele>
        <time>2022-05-29T08:53:50.774Z</time>
      </trkpt>
      <trkpt lat="42.2933" lon="18.80702">
        <ele>48.942942</ele>
        <time>2022-05-29T08:53:52.756Z</time>
      </trkpt>
      <trkpt lat="42.29347" lon="18.807">
        <ele>48.949267</ele>
        <time>2022-05-29T08:53:54.730Z</time>
      </trkpt>
      <trkpt lat="42.29364" lon="18.80698">
        <ele>48.955297</ele>
        <time>2022-05-29T08:53:56.745Z</time>
      </trkpt>
      <trkpt lat="42.29379" lon="18.80696">
        <ele>48.960989</ele>
        <time>2022-05-29T08:53:58.744Z</time>
      </trkpt>
      <trkpt lat="42.29394" lon="18.80695">
        <ele>48.966491</ele>
        <time>2022-05-29T08:54:00.726Z</time>
      </trkpt>
      <trkpt lat="42.29408" lon="18.80693">
        <ele>48.971636</ele>
        <time>2022-05-29T08:54:02.732Z</time>
      </trkpt>
      <trkpt lat="42.29421" lon="18.80692">
        <ele>48.976366</ele>
        <time>2022-05-29T08:54:04.763Z</time>
      </trkpt>
      <trkpt lat="42.29433" lon="18.80693">
        <ele>48.980871</ele>
        <time>2022-05-29T08:54:06.769Z</time>
      </trkpt>
      <trkpt lat="42.29445" lon="18.80693">
        <ele>48.98501</ele>
        <time>2022-05-29T08:54:08.780Z</time>
      </trkpt>
      <trkpt lat="42.29455" lon="18.80694">
        <ele>48.988825</ele>
        <time>2022-05-29T08:54:10.749Z</time>
      </trkpt>
      <trkpt lat="42.29465" lon="18.80695">
        <ele>48.992353</ele>
        <time>2022-05-29T08:54:12.731Z</time>
      </trkpt>
      <trkpt lat="42.29474" lon="18.80696">
        <ele>48.995889</ele>
        <time>2022-05-29T08:54:14.734Z</time>
      </trkpt>
      <trkpt lat="42.29487" lon="18.80698">
        <ele>49.017382</ele>
        <time>2022-05-29T08:54:17.741Z</time>
      </trkpt>
      <trkpt lat="42.29501" lon="18.807">
        <ele>49.268656</ele>
        <time>2022-05-29T08:54:20.748Z</time>
      </trkpt>
      <trkpt lat="42.2951" lon="18.80702">
        <ele>49.445444</ele>
        <time>2022-05-29T08:54:22.738Z</time>
      </trkpt>
      <trkpt lat="42.2952" lon="18.80703">
        <ele>49.61977</ele>
        <time>2022-05-29T08:54:24.755Z</time>
      </trkpt>
      <trkpt lat="42.29533" lon="18.80705">
        <ele>49.872769</ele>
        <time>2022-05-29T08:54:27.734Z</time>
      </trkpt>
      <trkpt lat="42.29543" lon="18.80706">
        <ele>50.050473</ele>
        <time>2022-05-29T08:54:29.735Z</time>
      </trkpt>
      <trkpt lat="42.29552" lon="18.80707">
        <ele>50.220838</ele>
        <time>2022-05-29T08:54:31.749Z</time>
      </trkpt>
      <trkpt lat="42.29565" lon="18.80709">
        <ele>50.472718</ele>
        <time>2022-05-29T08:54:34.727Z</time>
      </trkpt>
      <trkpt lat="42.29574" lon="18.80711">
        <ele>50.64107</ele>
        <time>2022-05-29T08:54:36.718Z</time>
      </trkpt>
      <trkpt lat="42.29583" lon="18.80713">
        <ele>50.809896</ele>
        <time>2022-05-29T08:54:38.743Z</time>
      </trkpt>
      <trkpt lat="42.29596" lon="18.80715">
        <ele>51.048994</ele>
        <time>2022-05-29T08:54:41.753Z</time>
      </trkpt>
      <trkpt lat="42.29607" lon="18.80718">
        <ele>51.269814</ele>
        <time>2022-05-29T08:54:44.749Z</time>
      </trkpt>
      <trkpt lat="42.29619" lon="18.8072">
        <ele>51.4851</ele>
        <time>2022-05-29T08:54:47.749Z</time>
      </trkpt>
      <trkpt lat="42.29631" lon="18.80722">
        <ele>51.71382</ele>
        <time>2022-05-29T08:54:50.737Z</time>
      </trkpt>
      <trkpt lat="42.29642" lon="18.80723">
        <ele>51.927548</ele>
        <time>2022-05-29T08:54:53.775Z</time>
      </trkpt>
      <trkpt lat="42.29654" lon="18.80724">
        <ele>52.151811</ele>
        <time>2022-05-29T08:54:56.734Z</time>
      </trkpt>
      <trkpt lat="42.29666" lon="18.80725">
        <ele>52.370809</ele>
        <time>2022-05-29T08:54:59.735Z</time>
      </trkpt>
      <trkpt lat="42.29677" lon="18.80726">
        <ele>52.552494</ele>
        <time>2022-05-29T08:55:02.754Z</time>
      </trkpt>
      <trkpt lat="42.29687" lon="18.80727">
        <ele>52.727777</ele>
        <time>2022-05-29T08:55:05.738Z</time>
      </trkpt>
      <trkpt lat="42.29698" lon="18.80728">
        <ele>52.902888</ele>
        <time>2022-05-29T08:55:08.754Z</time>
      </trkpt>
      <trkpt lat="42.29708" lon="18.80729">
        <ele>53.07642</ele>
        <time>2022-05-29T08:55:11.729Z</time>
      </trkpt>
      <trkpt lat="42.29719" lon="18.8073">
        <ele>53.256278</ele>
        <time>2022-05-29T08:55:14.755Z</time>
      </trkpt>
      <trkpt lat="42.29729" lon="18.8073">
        <ele>53.426062</ele>
        <time>2022-05-29T08:55:17.729Z</time>
      </trkpt>
      <trkpt lat="42.2974" lon="18.8073">
        <ele>53.597564</ele>
        <time>2022-05-29T08:55:20.755Z</time>
      </trkpt>
      <trkpt lat="42.29751" lon="18.80731">
        <ele>53.782457</ele>
        <time>2022-05-29T08:55:23.754Z</time>
      </trkpt>
      <trkpt lat="42.29762" lon="18.80731">
        <ele>53.967404</ele>
        <time>2022-05-29T08:55:26.750Z</time>
      </trkpt>
      <trkpt lat="42.29773" lon="18.80732">
        <ele>54.145497</ele>
        <time>2022-05-29T08:55:29.748Z</time>
      </trkpt>
      <trkpt lat="42.29783" lon="18.80732">
        <ele>54.325254</ele>
        <time>2022-05-29T08:55:32.731Z</time>
      </trkpt>
      <trkpt lat="42.29793" lon="18.80732">
        <ele>54.491805</ele>
        <time>2022-05-29T08:55:35.730Z</time>
      </trkpt>
      <trkpt lat="42.29802" lon="18.80732">
        <ele>54.643388</ele>
        <time>2022-05-29T08:55:38.758Z</time>
      </trkpt>
      <trkpt lat="42.29812" lon="18.80731">
        <ele>54.799961</ele>
        <time>2022-05-29T08:55:41.736Z</time>
      </trkpt>
      <trkpt lat="42.29822" lon="18.80731">
        <ele>54.963186</ele>
        <time>2022-05-29T08:55:44.728Z</time>
      </trkpt>
      <trkpt lat="42.29832" lon="18.8073">
        <ele>55.13136</ele>
        <time>2022-05-29T08:55:47.729Z</time>
      </trkpt>
      <trkpt lat="42.29842" lon="18.8073">
        <ele>55.309448</ele>
        <time>2022-05-29T08:55:50.736Z</time>
      </trkpt>
      <trkpt lat="42.29853" lon="18.80729">
        <ele>55.536863</ele>
        <time>2022-05-29T08:55:53.729Z</time>
      </trkpt>
      <trkpt lat="42.29863" lon="18.80728">
        <ele>55.79286</ele>
        <time>2022-05-29T08:55:56.740Z</time>
      </trkpt>
      <trkpt lat="42.29874" lon="18.80727">
        <ele>56.057671</ele>
        <time>2022-05-29T08:55:59.736Z</time>
      </trkpt>
      <trkpt lat="42.29885" lon="18.80726">
        <ele>56.315421</ele>
        <time>2022-05-29T08:56:02.728Z</time>
      </trkpt>
      <trkpt lat="42.29895" lon="18.80725">
        <ele>56.568524</ele>
        <time>2022-05-29T08:56:05.791Z</time>
      </trkpt>
      <trkpt lat="42.29907" lon="18.80723">
        <ele>56.846394</ele>
        <time>2022-05-29T08:56:08.737Z</time>
      </trkpt>
      <trkpt lat="42.29918" lon="18.80722">
        <ele>57.108501</ele>
        <time>2022-05-29T08:56:11.782Z</time>
      </trkpt>
      <trkpt lat="42.29928" lon="18.80722">
        <ele>57.348931</ele>
        <time>2022-05-29T08:56:14.767Z</time>
      </trkpt>
      <trkpt lat="42.29939" lon="18.80721">
        <ele>57.608949</ele>
        <time>2022-05-29T08:56:17.735Z</time>
      </trkpt>
      <trkpt lat="42.29949" lon="18.80719">
        <ele>57.852642</ele>
        <time>2022-05-29T08:56:20.729Z</time>
      </trkpt>
      <trkpt lat="42.29959" lon="18.80718">
        <ele>58.089163</ele>
        <time>2022-05-29T08:56:23.742Z</time>
      </trkpt>
      <trkpt lat="42.29969" lon="18.80717">
        <ele>58.34003</ele>
        <time>2022-05-29T08:56:26.748Z</time>
      </trkpt>
      <trkpt lat="42.29979" lon="18.80715">
        <ele>58.588861</ele>
        <time>2022-05-29T08:56:29.762Z</time>
      </trkpt>
      <trkpt lat="42.29991" lon="18.80713">
        <ele>58.870215</ele>
        <time>2022-05-29T08:56:32.738Z</time>
      </trkpt>
      <trkpt lat="42.30003" lon="18.8071">
        <ele>59.164782</ele>
        <time>2022-05-29T08:56:35.763Z</time>
      </trkpt>
      <trkpt lat="42.30014" lon="18.80708">
        <ele>59.439811</ele>
        <time>2022-05-29T08:56:38.755Z</time>
      </trkpt>
      <trkpt lat="42.30026" lon="18.80706">
        <ele>59.698787</ele>
        <time>2022-05-29T08:56:41.746Z</time>
      </trkpt>
      <trkpt lat="42.30037" lon="18.80703">
        <ele>59.883931</ele>
        <time>2022-05-29T08:56:44.707Z</time>
      </trkpt>
      <trkpt lat="42.30048" lon="18.80701">
        <ele>60.062369</ele>
        <time>2022-05-29T08:56:47.789Z</time>
      </trkpt>
      <trkpt lat="42.30058" lon="18.80698">
        <ele>60.228594</ele>
        <time>2022-05-29T08:56:50.731Z</time>
      </trkpt>
      <trkpt lat="42.30068" lon="18.80696">
        <ele>60.391242</ele>
        <time>2022-05-29T08:56:53.746Z</time>
      </trkpt>
      <trkpt lat="42.30078" lon="18.80693">
        <ele>60.556119</ele>
        <time>2022-05-29T08:56:56.753Z</time>
      </trkpt>
      <trkpt lat="42.30088" lon="18.80691">
        <ele>60.717191</ele>
        <time>2022-05-29T08:56:59.728Z</time>
      </trkpt>
      <trkpt lat="42.30098" lon="18.80688">
        <ele>60.88499</ele>
        <time>2022-05-29T08:57:02.727Z</time>
      </trkpt>
      <trkpt lat="42.30109" lon="18.80686">
        <ele>61.057514</ele>
        <time>2022-05-29T08:57:05.796Z</time>
      </trkpt>
      <trkpt lat="42.3012" lon="18.80683">
        <ele>61.231408</ele>
        <time>2022-05-29T08:57:08.730Z</time>
      </trkpt>
      <trkpt lat="42.30131" lon="18.80681">
        <ele>61.406497</ele>
        <time>2022-05-29T08:57:11.778Z</time>
      </trkpt>
      <trkpt lat="42.30141" lon="18.80679">
        <ele>61.581405</ele>
        <time>2022-05-29T08:57:14.746Z</time>
      </trkpt>
      <trkpt lat="42.30152" lon="18.80676">
        <ele>61.747207</ele>
        <time>2022-05-29T08:57:17.780Z</time>
      </trkpt>
      <trkpt lat="42.30162" lon="18.80674">
        <ele>61.91262</ele>
        <time>2022-05-29T08:57:20.746Z</time>
      </trkpt>
      <trkpt lat="42.30172" lon="18.80672">
        <ele>62.079803</ele>
        <time>2022-05-29T08:57:23.767Z</time>
      </trkpt>
      <trkpt lat="42.30183" lon="18.80669">
        <ele>62.257057</ele>
        <time>2022-05-29T08:57:26.731Z</time>
      </trkpt>
      <trkpt lat="42.30194" lon="18.80667">
        <ele>62.437671</ele>
        <time>2022-05-29T08:57:29.733Z</time>
      </trkpt>
      <trkpt lat="42.30204" lon="18.80664">
        <ele>62.612471</ele>
        <time>2022-05-29T08:57:32.748Z</time>
      </trkpt>
      <trkpt lat="42.30214" lon="18.80662">
        <ele>62.7934</ele>
        <time>2022-05-29T08:57:35.762Z</time>
      </trkpt>
      <trkpt lat="42.30223" lon="18.80659">
        <ele>62.969201</ele>
        <time>2022-05-29T08:57:38.738Z</time>
      </trkpt>
      <trkpt lat="42.30233" lon="18.80656">
        <ele>63.172176</ele>
        <time>2022-05-29T08:57:41.759Z</time>
      </trkpt>
      <trkpt lat="42.30244" lon="18.80654">
        <ele>63.376248</ele>
        <time>2022-05-29T08:57:44.744Z</time>
      </trkpt>
      <trkpt lat="42.30254" lon="18.80651">
        <ele>63.572072</ele>
        <time>2022-05-29T08:57:47.738Z</time>
      </trkpt>
      <trkpt lat="42.30263" lon="18.80648">
        <ele>63.758942</ele>
        <time>2022-05-29T08:57:50.770Z</time>
      </trkpt>
      <trkpt lat="42.30274" lon="18.80645">
        <ele>63.961651</ele>
        <time>2022-05-29T08:57:53.745Z</time>
      </trkpt>
      <trkpt lat="42.30285" lon="18.80643">
        <ele>64.178377</ele>
        <time>2022-05-29T08:57:56.735Z</time>
      </trkpt>
      <trkpt lat="42.30297" lon="18.80641">
        <ele>64.40429</ele>
        <time>2022-05-29T08:57:59.744Z</time>
      </trkpt>
      <trkpt lat="42.30309" lon="18.80639">
        <ele>64.629351</ele>
        <time>2022-05-29T08:58:02.745Z</time>
      </trkpt>
      <trkpt lat="42.3032" lon="18.80637">
        <ele>64.836705</ele>
        <time>2022-05-29T08:58:05.729Z</time>
      </trkpt>
      <trkpt lat="42.3033" lon="18.80634">
        <ele>65.041153</ele>
        <time>2022-05-29T08:58:08.728Z</time>
      </trkpt>
      <trkpt lat="42.3034" lon="18.80631">
        <ele>65.238833</ele>
        <time>2022-05-29T08:58:11.743Z</time>
      </trkpt>
      <trkpt lat="42.3035" lon="18.80627">
        <ele>65.424858</ele>
        <time>2022-05-29T08:58:14.742Z</time>
      </trkpt>
      <trkpt lat="42.3036" lon="18.80624">
        <ele>65.620765</ele>
        <time>2022-05-29T08:58:17.742Z</time>
      </trkpt>
      <trkpt lat="42.3037" lon="18.80621">
        <ele>65.816026</ele>
        <time>2022-05-29T08:58:20.758Z</time>
      </trkpt>
      <trkpt lat="42.30382" lon="18.80619">
        <ele>65.995642</ele>
        <time>2022-05-29T08:58:23.750Z</time>
      </trkpt>
      <trkpt lat="42.30393" lon="18.80617">
        <ele>66.094713</ele>
        <time>2022-05-29T08:58:26.731Z</time>
      </trkpt>
      <trkpt lat="42.30403" lon="18.80614">
        <ele>66.179415</ele>
        <time>2022-05-29T08:58:29.725Z</time>
      </trkpt>
      <trkpt lat="42.30414" lon="18.80612">
        <ele>66.273176</ele>
        <time>2022-05-29T08:58:32.741Z</time>
      </trkpt>
      <trkpt lat="42.30425" lon="18.80609">
        <ele>66.366616</ele>
        <time>2022-05-29T08:58:35.731Z</time>
      </trkpt>
      <trkpt lat="42.30435" lon="18.80604">
        <ele>66.450836</ele>
        <time>2022-05-29T08:58:38.765Z</time>
      </trkpt>
      <trkpt lat="42.30443" lon="18.80601">
        <ele>66.528127</ele>
        <time>2022-05-29T08:58:41.724Z</time>
      </trkpt>
      <trkpt lat="42.30454" lon="18.80597">
        <ele>66.617027</ele>
        <time>2022-05-29T08:58:44.742Z</time>
      </trkpt>
      <trkpt lat="42.30464" lon="18.80593">
        <ele>66.705928</ele>
        <time>2022-05-29T08:58:47.742Z</time>
      </trkpt>
      <trkpt lat="42.30473" lon="18.80589">
        <ele>66.790362</ele>
        <time>2022-05-29T08:58:50.732Z</time>
      </trkpt>
      <trkpt lat="42.30483" lon="18.80585">
        <ele>66.872133</ele>
        <time>2022-05-29T08:58:53.747Z</time>
      </trkpt>
      <trkpt lat="42.30492" lon="18.80581">
        <ele>66.953796</ele>
        <time>2022-05-29T08:58:56.743Z</time>
      </trkpt>
      <trkpt lat="42.30502" lon="18.80577">
        <ele>67.042793</ele>
        <time>2022-05-29T08:58:59.761Z</time>
      </trkpt>
      <trkpt lat="42.30511" lon="18.80571">
        <ele>67.12614</ele>
        <time>2022-05-29T08:59:02.728Z</time>
      </trkpt>
      <trkpt lat="42.3052" lon="18.80566">
        <ele>67.205667</ele>
        <time>2022-05-29T08:59:05.763Z</time>
      </trkpt>
      <trkpt lat="42.30529" lon="18.80561">
        <ele>67.289938</ele>
        <time>2022-05-29T08:59:08.748Z</time>
      </trkpt>
      <trkpt lat="42.30538" lon="18.80557">
        <ele>67.372204</ele>
        <time>2022-05-29T08:59:11.744Z</time>
      </trkpt>
      <trkpt lat="42.30548" lon="18.80551">
        <ele>67.455551</ele>
        <time>2022-05-29T08:59:14.728Z</time>
      </trkpt>
      <trkpt lat="42.30557" lon="18.80545">
        <ele>67.518234</ele>
        <time>2022-05-29T08:59:17.725Z</time>
      </trkpt>
      <trkpt lat="42.30567" lon="18.80539">
        <ele>67.576472</ele>
        <time>2022-05-29T08:59:20.747Z</time>
      </trkpt>
      <trkpt lat="42.30577" lon="18.80534">
        <ele>67.633437</ele>
        <time>2022-05-29T08:59:23.738Z</time>
      </trkpt>
      <trkpt lat="42.30587" lon="18.80528">
        <ele>67.693967</ele>
        <time>2022-05-29T08:59:26.756Z</time>
      </trkpt>
      <trkpt lat="42.30598" lon="18.8052">
        <ele>67.757414</ele>
        <time>2022-05-29T08:59:29.730Z</time>
      </trkpt>
      <trkpt lat="42.30608" lon="18.80512">
        <ele>67.823323</ele>
        <time>2022-05-29T08:59:32.729Z</time>
      </trkpt>
      <trkpt lat="42.30619" lon="18.80505">
        <ele>67.887812</ele>
        <time>2022-05-29T08:59:35.740Z</time>
      </trkpt>
      <trkpt lat="42.30629" lon="18.80495">
        <ele>67.954947</ele>
        <time>2022-05-29T08:59:38.739Z</time>
      </trkpt>
      <trkpt lat="42.30639" lon="18.80487">
        <ele>68.018273</ele>
        <time>2022-05-29T08:59:41.743Z</time>
      </trkpt>
      <trkpt lat="42.30648" lon="18.80478">
        <ele>68.079604</ele>
        <time>2022-05-29T08:59:44.779Z</time>
      </trkpt>
      <trkpt lat="42.30657" lon="18.80469">
        <ele>68.13939</ele>
        <time>2022-05-29T08:59:47.746Z</time>
      </trkpt>
      <trkpt lat="42.30667" lon="18.8046">
        <ele>68.201853</ele>
        <time>2022-05-29T08:59:50.731Z</time>
      </trkpt>
      <trkpt lat="42.30676" lon="18.8045">
        <ele>68.263255</ele>
        <time>2022-05-29T08:59:53.743Z</time>
      </trkpt>
      <trkpt lat="42.30686" lon="18.80441">
        <ele>68.328867</ele>
        <time>2022-05-29T08:59:56.769Z</time>
      </trkpt>
      <trkpt lat="42.30695" lon="18.8043">
        <ele>68.392043</ele>
        <time>2022-05-29T08:59:59.741Z</time>
      </trkpt>
      <trkpt lat="42.30703" lon="18.80419">
        <ele>68.430385</ele>
        <time>2022-05-29T09:00:02.728Z</time>
      </trkpt>
      <trkpt lat="42.30713" lon="18.80408">
        <ele>68.396819</ele>
        <time>2022-05-29T09:00:05.748Z</time>
      </trkpt>
      <trkpt lat="42.30723" lon="18.80396">
        <ele>68.361633</ele>
        <time>2022-05-29T09:00:08.729Z</time>
      </trkpt>
      <trkpt lat="42.3073" lon="18.80387">
        <ele>68.33631</ele>
        <time>2022-05-29T09:00:10.757Z</time>
      </trkpt>
      <trkpt lat="42.30737" lon="18.80378">
        <ele>68.312146</ele>
        <time>2022-05-29T09:00:12.752Z</time>
      </trkpt>
      <trkpt lat="42.30743" lon="18.80369">
        <ele>68.287756</ele>
        <time>2022-05-29T09:00:14.747Z</time>
      </trkpt>
      <trkpt lat="42.3075" lon="18.80359">
        <ele>68.262201</ele>
        <time>2022-05-29T09:00:16.737Z</time>
      </trkpt>
      <trkpt lat="42.30757" lon="18.80349">
        <ele>68.235184</ele>
        <time>2022-05-29T09:00:18.763Z</time>
      </trkpt>
      <trkpt lat="42.30763" lon="18.80339">
        <ele>68.209451</ele>
        <time>2022-05-29T09:00:20.740Z</time>
      </trkpt>
      <trkpt lat="42.3077" lon="18.80329">
        <ele>68.183516</ele>
        <time>2022-05-29T09:00:22.748Z</time>
      </trkpt>
      <trkpt lat="42.30776" lon="18.80319">
        <ele>68.158084</ele>
        <time>2022-05-29T09:00:24.733Z</time>
      </trkpt>
      <trkpt lat="42.30782" lon="18.80309">
        <ele>68.133079</ele>
        <time>2022-05-29T09:00:26.769Z</time>
      </trkpt>
      <trkpt lat="42.30788" lon="18.80299">
        <ele>68.107962</ele>
        <time>2022-05-29T09:00:28.759Z</time>
      </trkpt>
      <trkpt lat="42.30794" lon="18.80289">
        <ele>68.082709</ele>
        <time>2022-05-29T09:00:30.738Z</time>
      </trkpt>
      <trkpt lat="42.30799" lon="18.80278">
        <ele>68.057136</ele>
        <time>2022-05-29T09:00:32.730Z</time>
      </trkpt>
      <trkpt lat="42.30805" lon="18.80267">
        <ele>68.031085</ele>
        <time>2022-05-29T09:00:34.726Z</time>
      </trkpt>
      <trkpt lat="42.30811" lon="18.80255">
        <ele>68.004097</ele>
        <time>2022-05-29T09:00:36.748Z</time>
      </trkpt>
      <trkpt lat="42.30816" lon="18.80243">
        <ele>67.976863</ele>
        <time>2022-05-29T09:00:38.716Z</time>
      </trkpt>
      <trkpt lat="42.30822" lon="18.80231">
        <ele>67.855296</ele>
        <time>2022-05-29T09:00:40.739Z</time>
      </trkpt>
      <trkpt lat="42.30827" lon="18.80219">
        <ele>67.683341</ele>
        <time>2022-05-29T09:00:42.733Z</time>
      </trkpt>
      <trkpt lat="42.30833" lon="18.80206">
        <ele>67.505945</ele>
        <time>2022-05-29T09:00:44.749Z</time>
      </trkpt>
      <trkpt lat="42.30838" lon="18.80194">
        <ele>67.331093</ele>
        <time>2022-05-29T09:00:46.757Z</time>
      </trkpt>
      <trkpt lat="42.30843" lon="18.80181">
        <ele>67.158135</ele>
        <time>2022-05-29T09:00:48.738Z</time>
      </trkpt>
      <trkpt lat="42.30849" lon="18.80169">
        <ele>66.987817</ele>
        <time>2022-05-29T09:00:50.785Z</time>
      </trkpt>
      <trkpt lat="42.30854" lon="18.80156">
        <ele>66.816978</ele>
        <time>2022-05-29T09:00:52.758Z</time>
      </trkpt>
      <trkpt lat="42.30858" lon="18.80143">
        <ele>66.646203</ele>
        <time>2022-05-29T09:00:54.746Z</time>
      </trkpt>
      <trkpt lat="42.30862" lon="18.8013">
        <ele>66.471709</ele>
        <time>2022-05-29T09:00:56.724Z</time>
      </trkpt>
      <trkpt lat="42.30867" lon="18.80116">
        <ele>66.292156</ele>
        <time>2022-05-29T09:00:58.755Z</time>
      </trkpt>
      <trkpt lat="42.30871" lon="18.80102">
        <ele>66.112855</ele>
        <time>2022-05-29T09:01:00.739Z</time>
      </trkpt>
      <trkpt lat="42.30874" lon="18.80089">
        <ele>65.940332</ele>
        <time>2022-05-29T09:01:02.724Z</time>
      </trkpt>
      <trkpt lat="42.30878" lon="18.80075">
        <ele>65.758238</ele>
        <time>2022-05-29T09:01:04.724Z</time>
      </trkpt>
      <trkpt lat="42.30883" lon="18.80061">
        <ele>65.574389</ele>
        <time>2022-05-29T09:01:06.744Z</time>
      </trkpt>
      <trkpt lat="42.30886" lon="18.80047">
        <ele>65.39793</ele>
        <time>2022-05-29T09:01:08.746Z</time>
      </trkpt>
      <trkpt lat="42.3089" lon="18.80034">
        <ele>65.233301</ele>
        <time>2022-05-29T09:01:10.726Z</time>
      </trkpt>
      <trkpt lat="42.30893" lon="18.80022">
        <ele>65.074321</ele>
        <time>2022-05-29T09:01:12.747Z</time>
      </trkpt>
      <trkpt lat="42.30896" lon="18.80008">
        <ele>64.852096</ele>
        <time>2022-05-29T09:01:14.725Z</time>
      </trkpt>
      <trkpt lat="42.30899" lon="18.79994">
        <ele>64.606606</ele>
        <time>2022-05-29T09:01:16.745Z</time>
      </trkpt>
      <trkpt lat="42.30902" lon="18.7998">
        <ele>64.352089</ele>
        <time>2022-05-29T09:01:18.737Z</time>
      </trkpt>
      <trkpt lat="42.30906" lon="18.79965">
        <ele>64.095047</ele>
        <time>2022-05-29T09:01:20.754Z</time>
      </trkpt>
      <trkpt lat="42.30909" lon="18.7995">
        <ele>63.837338</ele>
        <time>2022-05-29T09:01:22.728Z</time>
      </trkpt>
      <trkpt lat="42.30913" lon="18.79935">
        <ele>63.572766</ele>
        <time>2022-05-29T09:01:24.731Z</time>
      </trkpt>
      <trkpt lat="42.30917" lon="18.7992">
        <ele>63.300245</ele>
        <time>2022-05-29T09:01:26.743Z</time>
      </trkpt>
      <trkpt lat="42.3092" lon="18.79905">
        <ele>63.038846</ele>
        <time>2022-05-29T09:01:28.734Z</time>
      </trkpt>
      <trkpt lat="42.30924" lon="18.7989">
        <ele>62.77088</ele>
        <time>2022-05-29T09:01:30.730Z</time>
      </trkpt>
      <trkpt lat="42.30927" lon="18.79874">
        <ele>62.504841</ele>
        <time>2022-05-29T09:01:32.741Z</time>
      </trkpt>
      <trkpt lat="42.3093" lon="18.79859">
        <ele>62.237795</ele>
        <time>2022-05-29T09:01:34.719Z</time>
      </trkpt>
      <trkpt lat="42.30934" lon="18.79843">
        <ele>61.965434</ele>
        <time>2022-05-29T09:01:36.732Z</time>
      </trkpt>
      <trkpt lat="42.30938" lon="18.79828">
        <ele>61.687591</ele>
        <time>2022-05-29T09:01:38.724Z</time>
      </trkpt>
      <trkpt lat="42.30942" lon="18.79812">
        <ele>61.413479</ele>
        <time>2022-05-29T09:01:40.714Z</time>
      </trkpt>
      <trkpt lat="42.30945" lon="18.79797">
        <ele>61.144571</ele>
        <time>2022-05-29T09:01:42.754Z</time>
      </trkpt>
      <trkpt lat="42.30949" lon="18.79781">
        <ele>60.919238</ele>
        <time>2022-05-29T09:01:44.737Z</time>
      </trkpt>
      <trkpt lat="42.30953" lon="18.79766">
        <ele>60.770031</ele>
        <time>2022-05-29T09:01:46.745Z</time>
      </trkpt>
      <trkpt lat="42.30957" lon="18.79751">
        <ele>60.62039</ele>
        <time>2022-05-29T09:01:48.726Z</time>
      </trkpt>
      <trkpt lat="42.3096" lon="18.79735">
        <ele>60.465193</ele>
        <time>2022-05-29T09:01:50.717Z</time>
      </trkpt>
      <trkpt lat="42.30964" lon="18.79718">
        <ele>60.304074</ele>
        <time>2022-05-29T09:01:52.740Z</time>
      </trkpt>
      <trkpt lat="42.30967" lon="18.79701">
        <ele>60.143461</ele>
        <time>2022-05-29T09:01:54.743Z</time>
      </trkpt>
      <trkpt lat="42.30971" lon="18.79685">
        <ele>59.986596</ele>
        <time>2022-05-29T09:01:56.731Z</time>
      </trkpt>
      <trkpt lat="42.30975" lon="18.79668">
        <ele>59.827963</ele>
        <time>2022-05-29T09:01:58.754Z</time>
      </trkpt>
      <trkpt lat="42.30979" lon="18.79652">
        <ele>59.664434</ele>
        <time>2022-05-29T09:02:00.753Z</time>
      </trkpt>
      <trkpt lat="42.30983" lon="18.79635">
        <ele>59.504196</ele>
        <time>2022-05-29T09:02:02.743Z</time>
      </trkpt>
      <trkpt lat="42.30986" lon="18.79619">
        <ele>59.351743</ele>
        <time>2022-05-29T09:02:04.749Z</time>
      </trkpt>
      <trkpt lat="42.3099" lon="18.79603">
        <ele>59.197001</ele>
        <time>2022-05-29T09:02:06.721Z</time>
      </trkpt>
      <trkpt lat="42.30993" lon="18.79587">
        <ele>59.039774</ele>
        <time>2022-05-29T09:02:08.753Z</time>
      </trkpt>
      <trkpt lat="42.30997" lon="18.79571">
        <ele>58.885917</ele>
        <time>2022-05-29T09:02:10.751Z</time>
      </trkpt>
      <trkpt lat="42.31001" lon="18.79555">
        <ele>58.734942</ele>
        <time>2022-05-29T09:02:12.724Z</time>
      </trkpt>
      <trkpt lat="42.31005" lon="18.7954">
        <ele>58.81538</ele>
        <time>2022-05-29T09:02:14.752Z</time>
      </trkpt>
      <trkpt lat="42.31009" lon="18.79525">
        <ele>58.90097</ele>
        <time>2022-05-29T09:02:16.751Z</time>
      </trkpt>
      <trkpt lat="42.31013" lon="18.7951">
        <ele>58.987562</ele>
        <time>2022-05-29T09:02:18.756Z</time>
      </trkpt>
      <trkpt lat="42.31018" lon="18.79495">
        <ele>59.075248</ele>
        <time>2022-05-29T09:02:20.764Z</time>
      </trkpt>
      <trkpt lat="42.31023" lon="18.79481">
        <ele>59.162156</ele>
        <time>2022-05-29T09:02:22.737Z</time>
      </trkpt>
      <trkpt lat="42.31028" lon="18.79466">
        <ele>59.251019</ele>
        <time>2022-05-29T09:02:24.755Z</time>
      </trkpt>
      <trkpt lat="42.31033" lon="18.79451">
        <ele>59.337621</ele>
        <time>2022-05-29T09:02:26.729Z</time>
      </trkpt>
      <trkpt lat="42.31038" lon="18.79437">
        <ele>59.42356</ele>
        <time>2022-05-29T09:02:28.754Z</time>
      </trkpt>
      <trkpt lat="42.31043" lon="18.79423">
        <ele>59.508889</ele>
        <time>2022-05-29T09:02:30.725Z</time>
      </trkpt>
      <trkpt lat="42.31049" lon="18.79409">
        <ele>59.592562</ele>
        <time>2022-05-29T09:02:32.740Z</time>
      </trkpt>
      <trkpt lat="42.31055" lon="18.79395">
        <ele>59.678177</ele>
        <time>2022-05-29T09:02:34.733Z</time>
      </trkpt>
      <trkpt lat="42.31062" lon="18.79382">
        <ele>59.766095</ele>
        <time>2022-05-29T09:02:36.747Z</time>
      </trkpt>
      <trkpt lat="42.31069" lon="18.79369">
        <ele>59.850527</ele>
        <time>2022-05-29T09:02:38.748Z</time>
      </trkpt>
      <trkpt lat="42.31075" lon="18.79357">
        <ele>59.933198</ele>
        <time>2022-05-29T09:02:40.738Z</time>
      </trkpt>
      <trkpt lat="42.31082" lon="18.79345">
        <ele>60.012847</ele>
        <time>2022-05-29T09:02:42.760Z</time>
      </trkpt>
      <trkpt lat="42.31089" lon="18.79333">
        <ele>60.108895</ele>
        <time>2022-05-29T09:02:44.734Z</time>
      </trkpt>
      <trkpt lat="42.31096" lon="18.79322">
        <ele>60.214222</ele>
        <time>2022-05-29T09:02:46.756Z</time>
      </trkpt>
      <trkpt lat="42.31103" lon="18.79312">
        <ele>60.320022</ele>
        <time>2022-05-29T09:02:48.765Z</time>
      </trkpt>
      <trkpt lat="42.3111" lon="18.79301">
        <ele>60.424772</ele>
        <time>2022-05-29T09:02:50.728Z</time>
      </trkpt>
      <trkpt lat="42.31118" lon="18.79291">
        <ele>60.531773</ele>
        <time>2022-05-29T09:02:52.750Z</time>
      </trkpt>
      <trkpt lat="42.31126" lon="18.79281">
        <ele>60.638975</ele>
        <time>2022-05-29T09:02:54.756Z</time>
      </trkpt>
      <trkpt lat="42.31134" lon="18.79271">
        <ele>60.750572</ele>
        <time>2022-05-29T09:02:56.743Z</time>
      </trkpt>
      <trkpt lat="42.31144" lon="18.79261">
        <ele>60.864527</ele>
        <time>2022-05-29T09:02:58.746Z</time>
      </trkpt>
      <trkpt lat="42.31153" lon="18.79252">
        <ele>60.979983</ele>
        <time>2022-05-29T09:03:00.730Z</time>
      </trkpt>
      <trkpt lat="42.31163" lon="18.79243">
        <ele>61.092999</ele>
        <time>2022-05-29T09:03:02.724Z</time>
      </trkpt>
      <trkpt lat="42.31173" lon="18.79234">
        <ele>61.212534</ele>
        <time>2022-05-29T09:03:04.729Z</time>
      </trkpt>
      <trkpt lat="42.31183" lon="18.79226">
        <ele>61.326857</ele>
        <time>2022-05-29T09:03:06.726Z</time>
      </trkpt>
      <trkpt lat="42.31193" lon="18.79219">
        <ele>61.441671</ele>
        <time>2022-05-29T09:03:08.721Z</time>
      </trkpt>
      <trkpt lat="42.31203" lon="18.79211">
        <ele>61.552862</ele>
        <time>2022-05-29T09:03:10.746Z</time>
      </trkpt>
      <trkpt lat="42.31213" lon="18.79205">
        <ele>61.662956</ele>
        <time>2022-05-29T09:03:12.740Z</time>
      </trkpt>
      <trkpt lat="42.31224" lon="18.79198">
        <ele>61.774207</ele>
        <time>2022-05-29T09:03:14.745Z</time>
      </trkpt>
      <trkpt lat="42.31234" lon="18.79193">
        <ele>61.687642</ele>
        <time>2022-05-29T09:03:16.797Z</time>
      </trkpt>
      <trkpt lat="42.31244" lon="18.79187">
        <ele>61.520333</ele>
        <time>2022-05-29T09:03:18.738Z</time>
      </trkpt>
      <trkpt lat="42.31255" lon="18.79181">
        <ele>61.357023</ele>
        <time>2022-05-29T09:03:20.741Z</time>
      </trkpt>
      <trkpt lat="42.31265" lon="18.79176">
        <ele>61.194122</ele>
        <time>2022-05-29T09:03:22.739Z</time>
      </trkpt>
      <trkpt lat="42.31275" lon="18.7917">
        <ele>61.03973</ele>
        <time>2022-05-29T09:03:24.740Z</time>
      </trkpt>
      <trkpt lat="42.31284" lon="18.79165">
        <ele>60.886316</ele>
        <time>2022-05-29T09:03:26.733Z</time>
      </trkpt>
      <trkpt lat="42.31294" lon="18.7916">
        <ele>60.733703</ele>
        <time>2022-05-29T09:03:28.764Z</time>
      </trkpt>
      <trkpt lat="42.31303" lon="18.79155">
        <ele>60.585236</ele>
        <time>2022-05-29T09:03:30.749Z</time>
      </trkpt>
      <trkpt lat="42.31312" lon="18.7915">
        <ele>60.441841</ele>
        <time>2022-05-29T09:03:32.729Z</time>
      </trkpt>
      <trkpt lat="42.31321" lon="18.79146">
        <ele>60.303263</ele>
        <time>2022-05-29T09:03:34.758Z</time>
      </trkpt>
      <trkpt lat="42.3133" lon="18.79141">
        <ele>60.161523</ele>
        <time>2022-05-29T09:03:36.784Z</time>
      </trkpt>
      <trkpt lat="42.31338" lon="18.79136">
        <ele>60.021714</ele>
        <time>2022-05-29T09:03:38.738Z</time>
      </trkpt>
      <trkpt lat="42.31347" lon="18.79131">
        <ele>59.881904</ele>
        <time>2022-05-29T09:03:40.737Z</time>
      </trkpt>
      <trkpt lat="42.31355" lon="18.79126">
        <ele>59.745674</ele>
        <time>2022-05-29T09:03:42.752Z</time>
      </trkpt>
      <trkpt lat="42.31364" lon="18.79121">
        <ele>59.604494</ele>
        <time>2022-05-29T09:03:44.742Z</time>
      </trkpt>
      <trkpt lat="42.31373" lon="18.79116">
        <ele>59.46564</ele>
        <time>2022-05-29T09:03:46.741Z</time>
      </trkpt>
      <trkpt lat="42.31381" lon="18.79111">
        <ele>59.329928</ele>
        <time>2022-05-29T09:03:48.744Z</time>
      </trkpt>
      <trkpt lat="42.3139" lon="18.79106">
        <ele>59.189261</ele>
        <time>2022-05-29T09:03:50.747Z</time>
      </trkpt>
      <trkpt lat="42.31398" lon="18.79101">
        <ele>59.065303</ele>
        <time>2022-05-29T09:03:52.728Z</time>
      </trkpt>
      <trkpt lat="42.31407" lon="18.79097">
        <ele>58.951167</ele>
        <time>2022-05-29T09:03:54.725Z</time>
      </trkpt>
      <trkpt lat="42.31415" lon="18.79091">
        <ele>58.835924</ele>
        <time>2022-05-29T09:03:56.764Z</time>
      </trkpt>
      <trkpt lat="42.31423" lon="18.79086">
        <ele>58.717926</ele>
        <time>2022-05-29T09:03:58.777Z</time>
      </trkpt>
      <trkpt lat="42.31436" lon="18.79077">
        <ele>58.544075</ele>
        <time>2022-05-29T09:04:01.755Z</time>
      </trkpt>
      <trkpt lat="42.31444" lon="18.79071">
        <ele>58.422999</ele>
        <time>2022-05-29T09:04:03.770Z</time>
      </trkpt>
      <trkpt lat="42.31453" lon="18.79065">
        <ele>58.303463</ele>
        <time>2022-05-29T09:04:05.738Z</time>
      </trkpt>
      <trkpt lat="42.31461" lon="18.7906">
        <ele>58.187704</ele>
        <time>2022-05-29T09:04:07.768Z</time>
      </trkpt>
      <trkpt lat="42.31469" lon="18.79054">
        <ele>58.070827</ele>
        <time>2022-05-29T09:04:09.733Z</time>
      </trkpt>
      <trkpt lat="42.31478" lon="18.79048">
        <ele>57.954368</ele>
        <time>2022-05-29T09:04:11.727Z</time>
      </trkpt>
      <trkpt lat="42.31486" lon="18.79042">
        <ele>57.834217</ele>
        <time>2022-05-29T09:04:13.766Z</time>
      </trkpt>
      <trkpt lat="42.31495" lon="18.79036">
        <ele>57.71207</ele>
        <time>2022-05-29T09:04:15.735Z</time>
      </trkpt>
      <trkpt lat="42.31503" lon="18.79029">
        <ele>57.587599</ele>
        <time>2022-05-29T09:04:17.743Z</time>
      </trkpt>
      <trkpt lat="42.31512" lon="18.79023">
        <ele>57.466345</ele>
        <time>2022-05-29T09:04:19.739Z</time>
      </trkpt>
      <trkpt lat="42.3152" lon="18.79016">
        <ele>57.345293</ele>
        <time>2022-05-29T09:04:21.728Z</time>
      </trkpt>
      <trkpt lat="42.31528" lon="18.7901">
        <ele>57.22734</ele>
        <time>2022-05-29T09:04:23.730Z</time>
      </trkpt>
      <trkpt lat="42.31537" lon="18.79004">
        <ele>57.106742</ele>
        <time>2022-05-29T09:04:25.751Z</time>
      </trkpt>
      <trkpt lat="42.31545" lon="18.78997">
        <ele>56.988598</ele>
        <time>2022-05-29T09:04:27.762Z</time>
      </trkpt>
      <trkpt lat="42.31553" lon="18.7899">
        <ele>56.881158</ele>
        <time>2022-05-29T09:04:29.743Z</time>
      </trkpt>
      <trkpt lat="42.31561" lon="18.78984">
        <ele>56.907868</ele>
        <time>2022-05-29T09:04:31.736Z</time>
      </trkpt>
      <trkpt lat="42.31569" lon="18.78977">
        <ele>56.93399</ele>
        <time>2022-05-29T09:04:33.781Z</time>
      </trkpt>
      <trkpt lat="42.3158" lon="18.78968">
        <ele>56.970832</ele>
        <time>2022-05-29T09:04:36.741Z</time>
      </trkpt>
      <trkpt lat="42.31591" lon="18.78958">
        <ele>57.008134</ele>
        <time>2022-05-29T09:04:39.767Z</time>
      </trkpt>
      <trkpt lat="42.31602" lon="18.78949">
        <ele>57.044677</ele>
        <time>2022-05-29T09:04:42.730Z</time>
      </trkpt>
      <trkpt lat="42.31613" lon="18.7894">
        <ele>57.081916</ele>
        <time>2022-05-29T09:04:45.746Z</time>
      </trkpt>
      <trkpt lat="42.31625" lon="18.7893">
        <ele>57.119093</ele>
        <time>2022-05-29T09:04:48.744Z</time>
      </trkpt>
      <trkpt lat="42.31636" lon="18.78921">
        <ele>57.15627</ele>
        <time>2022-05-29T09:04:51.745Z</time>
      </trkpt>
      <trkpt lat="42.31647" lon="18.7891">
        <ele>57.193789</ele>
        <time>2022-05-29T09:04:54.731Z</time>
      </trkpt>
      <trkpt lat="42.31657" lon="18.78901">
        <ele>57.229444</ele>
        <time>2022-05-29T09:04:57.733Z</time>
      </trkpt>
      <trkpt lat="42.31665" lon="18.78894">
        <ele>57.255778</ele>
        <time>2022-05-29T09:04:59.745Z</time>
      </trkpt>
      <trkpt lat="42.31673" lon="18.78887">
        <ele>57.282946</ele>
        <time>2022-05-29T09:05:01.720Z</time>
      </trkpt>
      <trkpt lat="42.31681" lon="18.7888">
        <ele>57.308466</ele>
        <time>2022-05-29T09:05:03.745Z</time>
      </trkpt>
      <trkpt lat="42.31691" lon="18.7887">
        <ele>57.344823</ele>
        <time>2022-05-29T09:05:06.734Z</time>
      </trkpt>
      <trkpt lat="42.31701" lon="18.78861">
        <ele>57.379313</ele>
        <time>2022-05-29T09:05:09.735Z</time>
      </trkpt>
      <trkpt lat="42.31712" lon="18.78851">
        <ele>57.531093</ele>
        <time>2022-05-29T09:05:12.727Z</time>
      </trkpt>
      <trkpt lat="42.31722" lon="18.78842">
        <ele>57.703679</ele>
        <time>2022-05-29T09:05:15.747Z</time>
      </trkpt>
      <trkpt lat="42.31732" lon="18.78832">
        <ele>57.880921</ele>
        <time>2022-05-29T09:05:18.740Z</time>
      </trkpt>
      <trkpt lat="42.31743" lon="18.78822">
        <ele>58.061159</ele>
        <time>2022-05-29T09:05:21.750Z</time>
      </trkpt>
      <trkpt lat="42.31754" lon="18.78812">
        <ele>58.247121</ele>
        <time>2022-05-29T09:05:24.721Z</time>
      </trkpt>
      <trkpt lat="42.31764" lon="18.78802">
        <ele>58.430166</ele>
        <time>2022-05-29T09:05:27.739Z</time>
      </trkpt>
      <trkpt lat="42.31776" lon="18.78792">
        <ele>58.617861</ele>
        <time>2022-05-29T09:05:30.756Z</time>
      </trkpt>
      <trkpt lat="42.31787" lon="18.78782">
        <ele>58.804405</ele>
        <time>2022-05-29T09:05:33.751Z</time>
      </trkpt>
      <trkpt lat="42.31794" lon="18.78774">
        <ele>58.932544</ele>
        <time>2022-05-29T09:05:35.778Z</time>
      </trkpt>
      <trkpt lat="42.31801" lon="18.78767">
        <ele>59.059836</ele>
        <time>2022-05-29T09:05:37.727Z</time>
      </trkpt>
      <trkpt lat="42.31813" lon="18.7876">
        <ele>59.242734</ele>
        <time>2022-05-29T09:05:40.746Z</time>
      </trkpt>
      <trkpt lat="42.31825" lon="18.78752">
        <ele>59.426851</ele>
        <time>2022-05-29T09:05:43.734Z</time>
      </trkpt>
      <trkpt lat="42.31836" lon="18.78742">
        <ele>59.610519</ele>
        <time>2022-05-29T09:05:46.740Z</time>
      </trkpt>
      <trkpt lat="42.31847" lon="18.78733">
        <ele>59.794164</ele>
        <time>2022-05-29T09:05:49.725Z</time>
      </trkpt>
      <trkpt lat="42.31859" lon="18.78724">
        <ele>59.966143</ele>
        <time>2022-05-29T09:05:52.744Z</time>
      </trkpt>
      <trkpt lat="42.3187" lon="18.78715">
        <ele>60.110126</ele>
        <time>2022-05-29T09:05:55.764Z</time>
      </trkpt>
      <trkpt lat="42.31882" lon="18.78707">
        <ele>60.256288</ele>
        <time>2022-05-29T09:05:58.738Z</time>
      </trkpt>
      <trkpt lat="42.31893" lon="18.78699">
        <ele>60.401016</ele>
        <time>2022-05-29T09:06:01.751Z</time>
      </trkpt>
      <trkpt lat="42.31905" lon="18.78691">
        <ele>60.545575</ele>
        <time>2022-05-29T09:06:04.751Z</time>
      </trkpt>
      <trkpt lat="42.31916" lon="18.78682">
        <ele>60.691667</ele>
        <time>2022-05-29T09:06:07.746Z</time>
      </trkpt>
      <trkpt lat="42.31928" lon="18.78674">
        <ele>60.840176</ele>
        <time>2022-05-29T09:06:10.734Z</time>
      </trkpt>
      <trkpt lat="42.31936" lon="18.78669">
        <ele>60.93955</ele>
        <time>2022-05-29T09:06:12.728Z</time>
      </trkpt>
      <trkpt lat="42.31944" lon="18.78663">
        <ele>61.039677</ele>
        <time>2022-05-29T09:06:14.732Z</time>
      </trkpt>
      <trkpt lat="42.31956" lon="18.78655">
        <ele>61.187336</ele>
        <time>2022-05-29T09:06:17.782Z</time>
      </trkpt>
      <trkpt lat="42.31964" lon="18.78648">
        <ele>61.287937</ele>
        <time>2022-05-29T09:06:19.734Z</time>
      </trkpt>
      <trkpt lat="42.31972" lon="18.78642">
        <ele>61.39128</ele>
        <time>2022-05-29T09:06:21.719Z</time>
      </trkpt>
      <trkpt lat="42.3198" lon="18.78635">
        <ele>61.493561</ele>
        <time>2022-05-29T09:06:23.765Z</time>
      </trkpt>
      <trkpt lat="42.3199" lon="18.78626">
        <ele>61.634846</ele>
        <time>2022-05-29T09:06:26.731Z</time>
      </trkpt>
      <trkpt lat="42.31998" lon="18.78619">
        <ele>61.738052</ele>
        <time>2022-05-29T09:06:28.759Z</time>
      </trkpt>
      <trkpt lat="42.32008" lon="18.78609">
        <ele>61.876104</ele>
        <time>2022-05-29T09:06:31.752Z</time>
      </trkpt>
      <trkpt lat="42.32019" lon="18.786">
        <ele>62.07591</ele>
        <time>2022-05-29T09:06:34.794Z</time>
      </trkpt>
      <trkpt lat="42.32029" lon="18.7859">
        <ele>62.278124</ele>
        <time>2022-05-29T09:06:37.754Z</time>
      </trkpt>
      <trkpt lat="42.32039" lon="18.7858">
        <ele>62.47509</ele>
        <time>2022-05-29T09:06:40.752Z</time>
      </trkpt>
      <trkpt lat="42.32048" lon="18.7857">
        <ele>62.677332</ele>
        <time>2022-05-29T09:06:43.733Z</time>
      </trkpt>
      <trkpt lat="42.32058" lon="18.78559">
        <ele>62.884742</ele>
        <time>2022-05-29T09:06:46.744Z</time>
      </trkpt>
      <trkpt lat="42.32068" lon="18.78548">
        <ele>63.101155</ele>
        <time>2022-05-29T09:06:49.738Z</time>
      </trkpt>
      <trkpt lat="42.32078" lon="18.78536">
        <ele>63.318053</ele>
        <time>2022-05-29T09:06:52.756Z</time>
      </trkpt>
      <trkpt lat="42.32088" lon="18.78525">
        <ele>63.537007</ele>
        <time>2022-05-29T09:06:55.745Z</time>
      </trkpt>
      <trkpt lat="42.32098" lon="18.78513">
        <ele>63.750841</ele>
        <time>2022-05-29T09:06:58.727Z</time>
      </trkpt>
      <trkpt lat="42.32107" lon="18.78502">
        <ele>63.958531</ele>
        <time>2022-05-29T09:07:01.778Z</time>
      </trkpt>
      <trkpt lat="42.32116" lon="18.78491">
        <ele>64.161304</ele>
        <time>2022-05-29T09:07:04.740Z</time>
      </trkpt>
      <trkpt lat="42.32124" lon="18.7848">
        <ele>64.354451</ele>
        <time>2022-05-29T09:07:07.725Z</time>
      </trkpt>
      <trkpt lat="42.32133" lon="18.78468">
        <ele>64.549917</ele>
        <time>2022-05-29T09:07:10.750Z</time>
      </trkpt>
      <trkpt lat="42.32141" lon="18.78456">
        <ele>64.752351</ele>
        <time>2022-05-29T09:07:13.747Z</time>
      </trkpt>
      <trkpt lat="42.3215" lon="18.78445">
        <ele>64.973897</ele>
        <time>2022-05-29T09:07:16.747Z</time>
      </trkpt>
      <trkpt lat="42.32159" lon="18.78433">
        <ele>65.229246</ele>
        <time>2022-05-29T09:07:19.740Z</time>
      </trkpt>
      <trkpt lat="42.32169" lon="18.78421">
        <ele>65.490022</ele>
        <time>2022-05-29T09:07:22.782Z</time>
      </trkpt>
      <trkpt lat="42.32178" lon="18.78409">
        <ele>65.748882</ele>
        <time>2022-05-29T09:07:25.741Z</time>
      </trkpt>
      <trkpt lat="42.32187" lon="18.78397">
        <ele>65.999497</ele>
        <time>2022-05-29T09:07:28.754Z</time>
      </trkpt>
      <trkpt lat="42.32196" lon="18.78385">
        <ele>66.254421</ele>
        <time>2022-05-29T09:07:31.732Z</time>
      </trkpt>
      <trkpt lat="42.32204" lon="18.78374">
        <ele>66.497344</ele>
        <time>2022-05-29T09:07:34.749Z</time>
      </trkpt>
      <trkpt lat="42.32213" lon="18.78363">
        <ele>66.73867</ele>
        <time>2022-05-29T09:07:37.736Z</time>
      </trkpt>
      <trkpt lat="42.32222" lon="18.78352">
        <ele>66.97166</ele>
        <time>2022-05-29T09:07:40.765Z</time>
      </trkpt>
      <trkpt lat="42.3223" lon="18.78341">
        <ele>67.205518</ele>
        <time>2022-05-29T09:07:43.737Z</time>
      </trkpt>
      <trkpt lat="42.32239" lon="18.78331">
        <ele>67.441853</ele>
        <time>2022-05-29T09:07:46.728Z</time>
      </trkpt>
      <trkpt lat="42.32248" lon="18.7832">
        <ele>67.684165</ele>
        <time>2022-05-29T09:07:49.738Z</time>
      </trkpt>
      <trkpt lat="42.32257" lon="18.7831">
        <ele>67.9203</ele>
        <time>2022-05-29T09:07:52.746Z</time>
      </trkpt>
      <trkpt lat="42.32266" lon="18.783">
        <ele>68.155822</ele>
        <time>2022-05-29T09:07:55.753Z</time>
      </trkpt>
      <trkpt lat="42.32275" lon="18.7829">
        <ele>68.382893</ele>
        <time>2022-05-29T09:07:58.757Z</time>
      </trkpt>
      <trkpt lat="42.32284" lon="18.7828">
        <ele>68.480644</ele>
        <time>2022-05-29T09:08:01.737Z</time>
      </trkpt>
      <trkpt lat="42.32293" lon="18.7827">
        <ele>68.446038</ele>
        <time>2022-05-29T09:08:04.763Z</time>
      </trkpt>
      <trkpt lat="42.32302" lon="18.7826">
        <ele>68.412441</ele>
        <time>2022-05-29T09:08:07.726Z</time>
      </trkpt>
      <trkpt lat="42.32311" lon="18.78251">
        <ele>68.378524</ele>
        <time>2022-05-29T09:08:10.728Z</time>
      </trkpt>
      <trkpt lat="42.32319" lon="18.78241">
        <ele>68.347181</ele>
        <time>2022-05-29T09:08:13.736Z</time>
      </trkpt>
      <trkpt lat="42.32327" lon="18.78232">
        <ele>68.315658</ele>
        <time>2022-05-29T09:08:16.746Z</time>
      </trkpt>
      <trkpt lat="42.32336" lon="18.78224">
        <ele>68.282267</ele>
        <time>2022-05-29T09:08:19.756Z</time>
      </trkpt>
      <trkpt lat="42.32346" lon="18.78214">
        <ele>68.247626</ele>
        <time>2022-05-29T09:08:22.736Z</time>
      </trkpt>
      <trkpt lat="42.32355" lon="18.78205">
        <ele>68.213499</ele>
        <time>2022-05-29T09:08:25.738Z</time>
      </trkpt>
      <trkpt lat="42.32364" lon="18.78196">
        <ele>68.179614</ele>
        <time>2022-05-29T09:08:28.750Z</time>
      </trkpt>
      <trkpt lat="42.32373" lon="18.78188">
        <ele>68.148307</ele>
        <time>2022-05-29T09:08:31.735Z</time>
      </trkpt>
      <trkpt lat="42.32382" lon="18.78179">
        <ele>68.115639</ele>
        <time>2022-05-29T09:08:34.740Z</time>
      </trkpt>
      <trkpt lat="42.3239" lon="18.78171">
        <ele>68.08471</ele>
        <time>2022-05-29T09:08:37.765Z</time>
      </trkpt>
      <trkpt lat="42.32399" lon="18.78162">
        <ele>68.051802</ele>
        <time>2022-05-29T09:08:40.744Z</time>
      </trkpt>
      <trkpt lat="42.32409" lon="18.78154">
        <ele>68.017672</ele>
        <time>2022-05-29T09:08:43.753Z</time>
      </trkpt>
      <trkpt lat="42.32419" lon="18.78145">
        <ele>67.982815</ele>
        <time>2022-05-29T09:08:46.739Z</time>
      </trkpt>
      <trkpt lat="42.32428" lon="18.78137">
        <ele>68.092173</ele>
        <time>2022-05-29T09:08:49.749Z</time>
      </trkpt>
      <trkpt lat="42.32437" lon="18.78129">
        <ele>68.36076</ele>
        <time>2022-05-29T09:08:52.732Z</time>
      </trkpt>
      <trkpt lat="42.32447" lon="18.78121">
        <ele>68.635665</ele>
        <time>2022-05-29T09:08:55.734Z</time>
      </trkpt>
      <trkpt lat="42.32457" lon="18.78112">
        <ele>68.911505</ele>
        <time>2022-05-29T09:08:58.741Z</time>
      </trkpt>
      <trkpt lat="42.32466" lon="18.78104">
        <ele>69.180131</ele>
        <time>2022-05-29T09:09:01.739Z</time>
      </trkpt>
      <trkpt lat="42.32475" lon="18.78096">
        <ele>69.44478</ele>
        <time>2022-05-29T09:09:04.749Z</time>
      </trkpt>
      <trkpt lat="42.32484" lon="18.78088">
        <ele>69.707354</ele>
        <time>2022-05-29T09:09:07.761Z</time>
      </trkpt>
      <trkpt lat="42.32493" lon="18.7808">
        <ele>69.959917</ele>
        <time>2022-05-29T09:09:10.738Z</time>
      </trkpt>
      <trkpt lat="42.32502" lon="18.78073">
        <ele>70.209554</ele>
        <time>2022-05-29T09:09:13.742Z</time>
      </trkpt>
      <trkpt lat="42.3251" lon="18.78065">
        <ele>70.44607</ele>
        <time>2022-05-29T09:09:16.759Z</time>
      </trkpt>
      <trkpt lat="42.32518" lon="18.78058">
        <ele>70.680603</ele>
        <time>2022-05-29T09:09:19.744Z</time>
      </trkpt>
      <trkpt lat="42.32526" lon="18.78051">
        <ele>70.923169</ele>
        <time>2022-05-29T09:09:22.764Z</time>
      </trkpt>
      <trkpt lat="42.32535" lon="18.78043">
        <ele>71.175807</ele>
        <time>2022-05-29T09:09:25.748Z</time>
      </trkpt>
      <trkpt lat="42.32544" lon="18.78035">
        <ele>71.425364</ele>
        <time>2022-05-29T09:09:28.735Z</time>
      </trkpt>
      <trkpt lat="42.32552" lon="18.78028">
        <ele>71.668233</ele>
        <time>2022-05-29T09:09:31.729Z</time>
      </trkpt>
      <trkpt lat="42.3256" lon="18.78021">
        <ele>71.908774</ele>
        <time>2022-05-29T09:09:34.729Z</time>
      </trkpt>
      <trkpt lat="42.32569" lon="18.78013">
        <ele>72.165505</ele>
        <time>2022-05-29T09:09:37.724Z</time>
      </trkpt>
      <trkpt lat="42.32578" lon="18.78006">
        <ele>72.36319</ele>
        <time>2022-05-29T09:09:40.790Z</time>
      </trkpt>
      <trkpt lat="42.32587" lon="18.77996">
        <ele>72.493852</ele>
        <time>2022-05-29T09:09:43.737Z</time>
      </trkpt>
      <trkpt lat="42.32597" lon="18.77987">
        <ele>72.62892</ele>
        <time>2022-05-29T09:09:46.745Z</time>
      </trkpt>
      <trkpt lat="42.32607" lon="18.77978">
        <ele>72.760259</ele>
        <time>2022-05-29T09:09:49.744Z</time>
      </trkpt>
      <trkpt lat="42.32616" lon="18.7797">
        <ele>72.88974</ele>
        <time>2022-05-29T09:09:52.739Z</time>
      </trkpt>
      <trkpt lat="42.32626" lon="18.7796">
        <ele>73.025756</ele>
        <time>2022-05-29T09:09:55.729Z</time>
      </trkpt>
      <trkpt lat="42.32636" lon="18.77951">
        <ele>73.157102</ele>
        <time>2022-05-29T09:09:58.744Z</time>
      </trkpt>
      <trkpt lat="42.32646" lon="18.77942">
        <ele>73.288441</ele>
        <time>2022-05-29T09:10:01.757Z</time>
      </trkpt>
      <trkpt lat="42.32656" lon="18.77933">
        <ele>73.426829</ele>
        <time>2022-05-29T09:10:04.738Z</time>
      </trkpt>
      <trkpt lat="42.32666" lon="18.77924">
        <ele>73.561896</ele>
        <time>2022-05-29T09:10:07.770Z</time>
      </trkpt>
      <trkpt lat="42.32676" lon="18.77916">
        <ele>73.692303</ele>
        <time>2022-05-29T09:10:10.757Z</time>
      </trkpt>
      <trkpt lat="42.32685" lon="18.77907">
        <ele>73.820409</ele>
        <time>2022-05-29T09:10:13.763Z</time>
      </trkpt>
      <trkpt lat="42.32695" lon="18.77897">
        <ele>73.960129</ele>
        <time>2022-05-29T09:10:16.736Z</time>
      </trkpt>
      <trkpt lat="42.32705" lon="18.77888">
        <ele>74.092401</ele>
        <time>2022-05-29T09:10:19.730Z</time>
      </trkpt>
      <trkpt lat="42.32714" lon="18.77879">
        <ele>74.225253</ele>
        <time>2022-05-29T09:10:22.748Z</time>
      </trkpt>
      <trkpt lat="42.32724" lon="18.77869">
        <ele>74.331051</ele>
        <time>2022-05-29T09:10:25.735Z</time>
      </trkpt>
      <trkpt lat="42.32733" lon="18.77859">
        <ele>74.243206</ele>
        <time>2022-05-29T09:10:28.736Z</time>
      </trkpt>
      <trkpt lat="42.32742" lon="18.7785">
        <ele>74.153145</ele>
        <time>2022-05-29T09:10:31.735Z</time>
      </trkpt>
      <trkpt lat="42.32752" lon="18.77841">
        <ele>74.062139</ele>
        <time>2022-05-29T09:10:34.741Z</time>
      </trkpt>
      <trkpt lat="42.32762" lon="18.77832">
        <ele>73.972706</ele>
        <time>2022-05-29T09:10:37.738Z</time>
      </trkpt>
      <trkpt lat="42.32772" lon="18.77823">
        <ele>73.879432</ele>
        <time>2022-05-29T09:10:40.725Z</time>
      </trkpt>
      <trkpt lat="42.32782" lon="18.77813">
        <ele>73.786704</ele>
        <time>2022-05-29T09:10:43.772Z</time>
      </trkpt>
      <trkpt lat="42.32791" lon="18.77803">
        <ele>73.697212</ele>
        <time>2022-05-29T09:10:46.738Z</time>
      </trkpt>
      <trkpt lat="42.328" lon="18.77793">
        <ele>73.606978</ele>
        <time>2022-05-29T09:10:49.735Z</time>
      </trkpt>
      <trkpt lat="42.3281" lon="18.77783">
        <ele>73.515798</ele>
        <time>2022-05-29T09:10:52.755Z</time>
      </trkpt>
      <trkpt lat="42.3282" lon="18.77773">
        <ele>73.420494</ele>
        <time>2022-05-29T09:10:55.750Z</time>
      </trkpt>
      <trkpt lat="42.3283" lon="18.77763">
        <ele>73.32716</ele>
        <time>2022-05-29T09:10:58.750Z</time>
      </trkpt>
      <trkpt lat="42.32839" lon="18.77754">
        <ele>73.24105</ele>
        <time>2022-05-29T09:11:01.744Z</time>
      </trkpt>
      <trkpt lat="42.32848" lon="18.77744">
        <ele>73.151498</ele>
        <time>2022-05-29T09:11:04.755Z</time>
      </trkpt>
      <trkpt lat="42.32857" lon="18.77734">
        <ele>73.059166</ele>
        <time>2022-05-29T09:11:07.735Z</time>
      </trkpt>
      <trkpt lat="42.32866" lon="18.77724">
        <ele>72.978537</ele>
        <time>2022-05-29T09:11:10.753Z</time>
      </trkpt>
      <trkpt lat="42.32875" lon="18.77714">
        <ele>73.11584</ele>
        <time>2022-05-29T09:11:13.744Z</time>
      </trkpt>
      <trkpt lat="42.32884" lon="18.77704">
        <ele>73.251042</ele>
        <time>2022-05-29T09:11:16.732Z</time>
      </trkpt>
      <trkpt lat="42.32892" lon="18.77695">
        <ele>73.387575</ele>
        <time>2022-05-29T09:11:19.736Z</time>
      </trkpt>
      <trkpt lat="42.32901" lon="18.77685">
        <ele>73.530269</ele>
        <time>2022-05-29T09:11:22.725Z</time>
      </trkpt>
      <trkpt lat="42.3291" lon="18.77675">
        <ele>73.669094</ele>
        <time>2022-05-29T09:11:25.772Z</time>
      </trkpt>
      <trkpt lat="42.32918" lon="18.77665">
        <ele>73.808154</ele>
        <time>2022-05-29T09:11:28.730Z</time>
      </trkpt>
      <trkpt lat="42.32927" lon="18.77655">
        <ele>73.947806</ele>
        <time>2022-05-29T09:11:31.745Z</time>
      </trkpt>
      <trkpt lat="42.32936" lon="18.77644">
        <ele>74.09295</ele>
        <time>2022-05-29T09:11:34.751Z</time>
      </trkpt>
      <trkpt lat="42.32944" lon="18.77635">
        <ele>74.219838</ele>
        <time>2022-05-29T09:11:37.734Z</time>
      </trkpt>
      <trkpt lat="42.32952" lon="18.77625">
        <ele>74.355415</ele>
        <time>2022-05-29T09:11:40.747Z</time>
      </trkpt>
      <trkpt lat="42.32961" lon="18.77615">
        <ele>74.494144</ele>
        <time>2022-05-29T09:11:43.729Z</time>
      </trkpt>
      <trkpt lat="42.3297" lon="18.77604">
        <ele>74.64136</ele>
        <time>2022-05-29T09:11:46.725Z</time>
      </trkpt>
      <trkpt lat="42.32978" lon="18.77594">
        <ele>74.784395</ele>
        <time>2022-05-29T09:11:49.753Z</time>
      </trkpt>
      <trkpt lat="42.32987" lon="18.77584">
        <ele>74.923123</ele>
        <time>2022-05-29T09:11:52.733Z</time>
      </trkpt>
      <trkpt lat="42.32996" lon="18.77574">
        <ele>75.070139</ele>
        <time>2022-05-29T09:11:55.747Z</time>
      </trkpt>
      <trkpt lat="42.33005" lon="18.77563">
        <ele>75.155934</ele>
        <time>2022-05-29T09:11:58.793Z</time>
      </trkpt>
      <trkpt lat="42.33013" lon="18.77552">
        <ele>75.049905</ele>
        <time>2022-05-29T09:12:01.739Z</time>
      </trkpt>
      <trkpt lat="42.33023" lon="18.77541">
        <ele>74.940764</ele>
        <time>2022-05-29T09:12:04.743Z</time>
      </trkpt>
      <trkpt lat="42.33032" lon="18.77531">
        <ele>74.83775</ele>
        <time>2022-05-29T09:12:07.764Z</time>
      </trkpt>
      <trkpt lat="42.3304" lon="18.77521">
        <ele>74.741084</ele>
        <time>2022-05-29T09:12:10.734Z</time>
      </trkpt>
      <trkpt lat="42.33049" lon="18.77511">
        <ele>74.64042</ele>
        <time>2022-05-29T09:12:13.752Z</time>
      </trkpt>
      <trkpt lat="42.33058" lon="18.77501">
        <ele>74.536737</ele>
        <time>2022-05-29T09:12:16.736Z</time>
      </trkpt>
      <trkpt lat="42.33067" lon="18.77491">
        <ele>74.431962</ele>
        <time>2022-05-29T09:12:19.739Z</time>
      </trkpt>
      <trkpt lat="42.33076" lon="18.7748">
        <ele>74.328279</ele>
        <time>2022-05-29T09:12:22.751Z</time>
      </trkpt>
      <trkpt lat="42.33085" lon="18.7747">
        <ele>74.222155</ele>
        <time>2022-05-29T09:12:25.748Z</time>
      </trkpt>
      <trkpt lat="42.33095" lon="18.7746">
        <ele>74.116576</ele>
        <time>2022-05-29T09:12:28.756Z</time>
      </trkpt>
      <trkpt lat="42.33103" lon="18.7745">
        <ele>74.015076</ele>
        <time>2022-05-29T09:12:31.766Z</time>
      </trkpt>
      <trkpt lat="42.33112" lon="18.77441">
        <ele>73.921234</ele>
        <time>2022-05-29T09:12:34.737Z</time>
      </trkpt>
      <trkpt lat="42.3312" lon="18.77432">
        <ele>73.825897</ele>
        <time>2022-05-29T09:12:37.734Z</time>
      </trkpt>
      <trkpt lat="42.33129" lon="18.77422">
        <ele>73.726588</ele>
        <time>2022-05-29T09:12:40.734Z</time>
      </trkpt>
      <trkpt lat="42.33139" lon="18.77414">
        <ele>73.626053</ele>
        <time>2022-05-29T09:12:43.742Z</time>
      </trkpt>
      <trkpt lat="42.33148" lon="18.77405">
        <ele>73.549216</ele>
        <time>2022-05-29T09:12:46.749Z</time>
      </trkpt>
      <trkpt lat="42.33158" lon="18.77396">
        <ele>73.481079</ele>
        <time>2022-05-29T09:12:49.749Z</time>
      </trkpt>
      <trkpt lat="42.33167" lon="18.77387">
        <ele>73.416984</ele>
        <time>2022-05-29T09:12:52.760Z</time>
      </trkpt>
      <trkpt lat="42.33176" lon="18.77379">
        <ele>73.355046</ele>
        <time>2022-05-29T09:12:55.755Z</time>
      </trkpt>
      <trkpt lat="42.33185" lon="18.7737">
        <ele>73.290705</ele>
        <time>2022-05-29T09:12:58.745Z</time>
      </trkpt>
      <trkpt lat="42.33195" lon="18.77363">
        <ele>73.227569</ele>
        <time>2022-05-29T09:13:01.750Z</time>
      </trkpt>
      <trkpt lat="42.33205" lon="18.77356">
        <ele>73.161973</ele>
        <time>2022-05-29T09:13:04.750Z</time>
      </trkpt>
      <trkpt lat="42.33215" lon="18.77349">
        <ele>73.09772</ele>
        <time>2022-05-29T09:13:07.748Z</time>
      </trkpt>
      <trkpt lat="42.33225" lon="18.77342">
        <ele>73.033976</ele>
        <time>2022-05-29T09:13:10.750Z</time>
      </trkpt>
      <trkpt lat="42.33235" lon="18.77335">
        <ele>72.965877</ele>
        <time>2022-05-29T09:13:13.752Z</time>
      </trkpt>
      <trkpt lat="42.33245" lon="18.77328">
        <ele>72.903856</ele>
        <time>2022-05-29T09:13:16.738Z</time>
      </trkpt>
      <trkpt lat="42.33255" lon="18.77322">
        <ele>72.84076</ele>
        <time>2022-05-29T09:13:19.752Z</time>
      </trkpt>
      <trkpt lat="42.33265" lon="18.77316">
        <ele>72.778011</ele>
        <time>2022-05-29T09:13:22.735Z</time>
      </trkpt>
      <trkpt lat="42.33275" lon="18.7731">
        <ele>72.714035</ele>
        <time>2022-05-29T09:13:25.760Z</time>
      </trkpt>
      <trkpt lat="42.33284" lon="18.77303">
        <ele>72.653549</ele>
        <time>2022-05-29T09:13:28.746Z</time>
      </trkpt>
      <trkpt lat="42.33294" lon="18.77298">
        <ele>72.594761</ele>
        <time>2022-05-29T09:13:31.737Z</time>
      </trkpt>
      <trkpt lat="42.33305" lon="18.77294">
        <ele>72.804296</ele>
        <time>2022-05-29T09:13:34.745Z</time>
      </trkpt>
      <trkpt lat="42.33316" lon="18.7729">
        <ele>73.289506</ele>
        <time>2022-05-29T09:13:37.739Z</time>
      </trkpt>
      <trkpt lat="42.33327" lon="18.77286">
        <ele>73.77808</ele>
        <time>2022-05-29T09:13:40.757Z</time>
      </trkpt>
      <trkpt lat="42.33338" lon="18.77283">
        <ele>74.265877</ele>
        <time>2022-05-29T09:13:43.737Z</time>
      </trkpt>
      <trkpt lat="42.33348" lon="18.77278">
        <ele>74.73619</ele>
        <time>2022-05-29T09:13:46.783Z</time>
      </trkpt>
      <trkpt lat="42.33358" lon="18.77275">
        <ele>75.167413</ele>
        <time>2022-05-29T09:13:49.726Z</time>
      </trkpt>
      <trkpt lat="42.33368" lon="18.77272">
        <ele>75.606248</ele>
        <time>2022-05-29T09:13:52.742Z</time>
      </trkpt>
      <trkpt lat="42.33378" lon="18.77269">
        <ele>76.037962</ele>
        <time>2022-05-29T09:13:55.739Z</time>
      </trkpt>
      <trkpt lat="42.33388" lon="18.77267">
        <ele>76.479267</ele>
        <time>2022-05-29T09:13:58.739Z</time>
      </trkpt>
      <trkpt lat="42.33398" lon="18.77264">
        <ele>76.943452</ele>
        <time>2022-05-29T09:14:01.732Z</time>
      </trkpt>
      <trkpt lat="42.33409" lon="18.77262">
        <ele>77.422455</ele>
        <time>2022-05-29T09:14:04.735Z</time>
      </trkpt>
      <trkpt lat="42.3342" lon="18.77259">
        <ele>77.88664</ele>
        <time>2022-05-29T09:14:07.747Z</time>
      </trkpt>
      <trkpt lat="42.3343" lon="18.77257">
        <ele>78.340142</ele>
        <time>2022-05-29T09:14:10.735Z</time>
      </trkpt>
      <trkpt lat="42.3344" lon="18.77255">
        <ele>78.777763</ele>
        <time>2022-05-29T09:14:13.763Z</time>
      </trkpt>
      <trkpt lat="42.33449" lon="18.77254">
        <ele>79.169764</ele>
        <time>2022-05-29T09:14:16.730Z</time>
      </trkpt>
      <trkpt lat="42.33459" lon="18.77252">
        <ele>79.593527</ele>
        <time>2022-05-29T09:14:19.745Z</time>
      </trkpt>
      <trkpt lat="42.33469" lon="18.77251">
        <ele>80.033874</ele>
        <time>2022-05-29T09:14:22.732Z</time>
      </trkpt>
      <trkpt lat="42.33479" lon="18.7725">
        <ele>80.286672</ele>
        <time>2022-05-29T09:14:25.774Z</time>
      </trkpt>
      <trkpt lat="42.33489" lon="18.7725">
        <ele>80.245884</ele>
        <time>2022-05-29T09:14:28.724Z</time>
      </trkpt>
      <trkpt lat="42.33498" lon="18.77248">
        <ele>80.206688</ele>
        <time>2022-05-29T09:14:31.748Z</time>
      </trkpt>
      <trkpt lat="42.33507" lon="18.77248">
        <ele>80.167674</ele>
        <time>2022-05-29T09:14:34.748Z</time>
      </trkpt>
      <trkpt lat="42.33519" lon="18.77248">
        <ele>80.119304</ele>
        <time>2022-05-29T09:14:38.748Z</time>
      </trkpt>
      <trkpt lat="42.33531" lon="18.77247">
        <ele>80.067967</ele>
        <time>2022-05-29T09:14:42.730Z</time>
      </trkpt>
      <trkpt lat="42.3354" lon="18.77247">
        <ele>80.029365</ele>
        <time>2022-05-29T09:14:45.725Z</time>
      </trkpt>
      <trkpt lat="42.33549" lon="18.77247">
        <ele>79.990754</ele>
        <time>2022-05-29T09:14:48.736Z</time>
      </trkpt>
      <trkpt lat="42.3356" lon="18.77246">
        <ele>79.943249</ele>
        <time>2022-05-29T09:14:52.741Z</time>
      </trkpt>
      <trkpt lat="42.3357" lon="18.77246">
        <ele>79.903765</ele>
        <time>2022-05-29T09:14:55.742Z</time>
      </trkpt>
      <trkpt lat="42.3358" lon="18.77246">
        <ele>79.861347</ele>
        <time>2022-05-29T09:14:58.744Z</time>
      </trkpt>
      <trkpt lat="42.33589" lon="18.77245">
        <ele>79.82316</ele>
        <time>2022-05-29T09:15:01.734Z</time>
      </trkpt>
      <trkpt lat="42.33598" lon="18.77245">
        <ele>79.784125</ele>
        <time>2022-05-29T09:15:04.743Z</time>
      </trkpt>
      <trkpt lat="42.33608" lon="18.77245">
        <ele>79.742562</ele>
        <time>2022-05-29T09:15:07.741Z</time>
      </trkpt>
      <trkpt lat="42.33619" lon="18.77244">
        <ele>79.694982</ele>
        <time>2022-05-29T09:15:11.731Z</time>
      </trkpt>
      <trkpt lat="42.3363" lon="18.77242">
        <ele>79.64855</ele>
        <time>2022-05-29T09:15:15.739Z</time>
      </trkpt>
      <trkpt lat="42.33639" lon="18.77241">
        <ele>79.608932</ele>
        <time>2022-05-29T09:15:18.729Z</time>
      </trkpt>
      <trkpt lat="42.33648" lon="18.7724">
        <ele>79.570637</ele>
        <time>2022-05-29T09:15:21.727Z</time>
      </trkpt>
      <trkpt lat="42.33659" lon="18.77239">
        <ele>79.692456</ele>
        <time>2022-05-29T09:15:25.738Z</time>
      </trkpt>
      <trkpt lat="42.33669" lon="18.77239">
        <ele>80.116753</ele>
        <time>2022-05-29T09:15:29.747Z</time>
      </trkpt>
      <trkpt lat="42.3368" lon="18.77237">
        <ele>80.562955</ele>
        <time>2022-05-29T09:15:33.719Z</time>
      </trkpt>
      <trkpt lat="42.33689" lon="18.77236">
        <ele>80.942147</ele>
        <time>2022-05-29T09:15:36.731Z</time>
      </trkpt>
      <trkpt lat="42.33698" lon="18.77235">
        <ele>81.330699</ele>
        <time>2022-05-29T09:15:39.736Z</time>
      </trkpt>
      <trkpt lat="42.33707" lon="18.77234">
        <ele>81.706249</ele>
        <time>2022-05-29T09:15:42.724Z</time>
      </trkpt>
      <trkpt lat="42.33718" lon="18.77232">
        <ele>82.171622</ele>
        <time>2022-05-29T09:15:46.745Z</time>
      </trkpt>
      <trkpt lat="42.33729" lon="18.7723">
        <ele>82.631075</ele>
        <time>2022-05-29T09:15:50.733Z</time>
      </trkpt>
      <trkpt lat="42.33741" lon="18.77228">
        <ele>83.108809</ele>
        <time>2022-05-29T09:15:54.734Z</time>
      </trkpt>
      <trkpt lat="42.33752" lon="18.77225">
        <ele>83.575488</ele>
        <time>2022-05-29T09:15:58.752Z</time>
      </trkpt>
      <trkpt lat="42.33763" lon="18.77223">
        <ele>84.036343</ele>
        <time>2022-05-29T09:16:02.754Z</time>
      </trkpt>
      <trkpt lat="42.33772" lon="18.77222">
        <ele>84.416963</ele>
        <time>2022-05-29T09:16:06.748Z</time>
      </trkpt>
      <trkpt lat="42.33782" lon="18.7722">
        <ele>84.866295</ele>
        <time>2022-05-29T09:16:10.745Z</time>
      </trkpt>
      <trkpt lat="42.33794" lon="18.77217">
        <ele>85.350846</ele>
        <time>2022-05-29T09:16:14.752Z</time>
      </trkpt>
      <trkpt lat="42.33806" lon="18.77214">
        <ele>85.840538</ele>
        <time>2022-05-29T09:16:18.743Z</time>
      </trkpt>
      <trkpt lat="42.33815" lon="18.77212">
        <ele>86.22644</ele>
        <time>2022-05-29T09:16:21.741Z</time>
      </trkpt>
      <trkpt lat="42.33826" lon="18.77209">
        <ele>86.70851</ele>
        <time>2022-05-29T09:16:25.758Z</time>
      </trkpt>
      <trkpt lat="42.33837" lon="18.77206">
        <ele>87.13839</ele>
        <time>2022-05-29T09:16:29.734Z</time>
      </trkpt>
      <trkpt lat="42.33848" lon="18.77202">
        <ele>87.486283</ele>
        <time>2022-05-29T09:16:33.728Z</time>
      </trkpt>
      <trkpt lat="42.33858" lon="18.77198">
        <ele>87.823926</ele>
        <time>2022-05-29T09:16:37.765Z</time>
      </trkpt>
      <trkpt lat="42.33869" lon="18.77195">
        <ele>88.160483</ele>
        <time>2022-05-29T09:16:41.733Z</time>
      </trkpt>
      <trkpt lat="42.33879" lon="18.77192">
        <ele>88.4867</ele>
        <time>2022-05-29T09:16:45.736Z</time>
      </trkpt>
      <trkpt lat="42.33889" lon="18.77188">
        <ele>88.818314</ele>
        <time>2022-05-29T09:16:49.755Z</time>
      </trkpt>
      <trkpt lat="42.33899" lon="18.77184">
        <ele>89.149268</ele>
        <time>2022-05-29T09:16:53.770Z</time>
      </trkpt>
      <trkpt lat="42.33909" lon="18.77179">
        <ele>89.489652</ele>
        <time>2022-05-29T09:16:57.731Z</time>
      </trkpt>
      <trkpt lat="42.3392" lon="18.77174">
        <ele>89.853848</ele>
        <time>2022-05-29T09:17:01.730Z</time>
      </trkpt>
      <trkpt lat="42.33931" lon="18.77169">
        <ele>90.22262</ele>
        <time>2022-05-29T09:17:05.731Z</time>
      </trkpt>
      <trkpt lat="42.33943" lon="18.77165">
        <ele>90.596732</ele>
        <time>2022-05-29T09:17:09.754Z</time>
      </trkpt>
      <trkpt lat="42.33952" lon="18.77161">
        <ele>90.888203</ele>
        <time>2022-05-29T09:17:12.731Z</time>
      </trkpt>
      <trkpt lat="42.33962" lon="18.77156">
        <ele>91.234527</ele>
        <time>2022-05-29T09:17:16.747Z</time>
      </trkpt>
      <trkpt lat="42.33973" lon="18.77152">
        <ele>91.583071</ele>
        <time>2022-05-29T09:17:20.744Z</time>
      </trkpt>
      <trkpt lat="42.33983" lon="18.77147">
        <ele>91.923462</ele>
        <time>2022-05-29T09:17:24.749Z</time>
      </trkpt>
      <trkpt lat="42.33994" lon="18.77141">
        <ele>92.293636</ele>
        <time>2022-05-29T09:17:28.733Z</time>
      </trkpt>
      <trkpt lat="42.34005" lon="18.77136">
        <ele>92.671179</ele>
        <time>2022-05-29T09:17:32.747Z</time>
      </trkpt>
      <trkpt lat="42.34016" lon="18.7713">
        <ele>92.763072</ele>
        <time>2022-05-29T09:17:36.761Z</time>
      </trkpt>
      <trkpt lat="42.34026" lon="18.77125">
        <ele>92.848261</ele>
        <time>2022-05-29T09:17:40.734Z</time>
      </trkpt>
      <trkpt lat="42.34036" lon="18.7712">
        <ele>92.938663</ele>
        <time>2022-05-29T09:17:44.748Z</time>
      </trkpt>
      <trkpt lat="42.34047" lon="18.77114">
        <ele>93.032594</ele>
        <time>2022-05-29T09:17:48.740Z</time>
      </trkpt>
      <trkpt lat="42.34058" lon="18.77108">
        <ele>93.128336</ele>
        <time>2022-05-29T09:17:52.743Z</time>
      </trkpt>
      <trkpt lat="42.34069" lon="18.77103">
        <ele>93.216602</ele>
        <time>2022-05-29T09:17:56.740Z</time>
      </trkpt>
      <trkpt lat="42.34079" lon="18.77098">
        <ele>93.301452</ele>
        <time>2022-05-29T09:18:00.739Z</time>
      </trkpt>
      <trkpt lat="42.34089" lon="18.77092">
        <ele>93.390813</ele>
        <time>2022-05-29T09:18:04.760Z</time>
      </trkpt>
      <trkpt lat="42.34099" lon="18.77087">
        <ele>93.479291</ele>
        <time>2022-05-29T09:18:08.751Z</time>
      </trkpt>
      <trkpt lat="42.3411" lon="18.77081">
        <ele>93.569265</ele>
        <time>2022-05-29T09:18:12.751Z</time>
      </trkpt>
      <trkpt lat="42.3412" lon="18.77075">
        <ele>93.657618</ele>
        <time>2022-05-29T09:18:16.745Z</time>
      </trkpt>
      <trkpt lat="42.3413" lon="18.7707">
        <ele>93.741935</ele>
        <time>2022-05-29T09:18:20.738Z</time>
      </trkpt>
      <trkpt lat="42.34139" lon="18.77065">
        <ele>93.82447</ele>
        <time>2022-05-29T09:18:24.741Z</time>
      </trkpt>
      <trkpt lat="42.3415" lon="18.7706">
        <ele>93.914783</ele>
        <time>2022-05-29T09:18:28.751Z</time>
      </trkpt>
      <trkpt lat="42.3416" lon="18.77054">
        <ele>93.999845</ele>
        <time>2022-05-29T09:18:32.728Z</time>
      </trkpt>
      <trkpt lat="42.34169" lon="18.77049">
        <ele>94.085055</ele>
        <time>2022-05-29T09:18:36.749Z</time>
      </trkpt>
      <trkpt lat="42.3418" lon="18.77043">
        <ele>94.260636</ele>
        <time>2022-05-29T09:18:40.749Z</time>
      </trkpt>
      <trkpt lat="42.3419" lon="18.77038">
        <ele>94.449387</ele>
        <time>2022-05-29T09:18:44.733Z</time>
      </trkpt>
      <trkpt lat="42.34198" lon="18.77033">
        <ele>94.626801</ele>
        <time>2022-05-29T09:18:48.750Z</time>
      </trkpt>
      <trkpt lat="42.34208" lon="18.77028">
        <ele>94.821186</ele>
        <time>2022-05-29T09:18:52.731Z</time>
      </trkpt>
      <trkpt lat="42.34217" lon="18.77022">
        <ele>95.007556</ele>
        <time>2022-05-29T09:18:56.743Z</time>
      </trkpt>
      <trkpt lat="42.34226" lon="18.77017">
        <ele>95.182735</ele>
        <time>2022-05-29T09:19:00.751Z</time>
      </trkpt>
      <trkpt lat="42.34236" lon="18.77011">
        <ele>95.386452</ele>
        <time>2022-05-29T09:19:05.768Z</time>
      </trkpt>
      <trkpt lat="42.34245" lon="18.77005">
        <ele>95.561631</ele>
        <time>2022-05-29T09:19:09.776Z</time>
      </trkpt>
      <trkpt lat="42.34255" lon="18.77">
        <ele>95.754061</ele>
        <time>2022-05-29T09:19:13.735Z</time>
      </trkpt>
      <trkpt lat="42.34265" lon="18.76996">
        <ele>95.945155</ele>
        <time>2022-05-29T09:19:17.740Z</time>
      </trkpt>
      <trkpt lat="42.34275" lon="18.76992">
        <ele>96.144931</ele>
        <time>2022-05-29T09:19:22.723Z</time>
      </trkpt>
      <trkpt lat="42.34284" lon="18.76984">
        <ele>96.339093</ele>
        <time>2022-05-29T09:19:27.752Z</time>
      </trkpt>
      <trkpt lat="42.34294" lon="18.7698">
        <ele>96.52448</ele>
        <time>2022-05-29T09:19:32.772Z</time>
      </trkpt>
      <trkpt lat="42.34304" lon="18.76976">
        <ele>96.730456</ele>
        <time>2022-05-29T09:19:37.758Z</time>
      </trkpt>
      <trkpt lat="42.34313" lon="18.76971">
        <ele>96.905804</ele>
        <time>2022-05-29T09:19:41.803Z</time>
      </trkpt>
      <trkpt lat="42.34323" lon="18.76967">
        <ele>97.102523</ele>
        <time>2022-05-29T09:19:45.740Z</time>
      </trkpt>
      <trkpt lat="42.34333" lon="18.76963">
        <ele>97.286372</ele>
        <time>2022-05-29T09:19:49.756Z</time>
      </trkpt>
      <trkpt lat="42.34344" lon="18.7696">
        <ele>97.515764</ele>
        <time>2022-05-29T09:19:53.733Z</time>
      </trkpt>
      <trkpt lat="42.34354" lon="18.76956">
        <ele>97.801443</ele>
        <time>2022-05-29T09:19:57.743Z</time>
      </trkpt>
      <trkpt lat="42.34364" lon="18.76953">
        <ele>98.07969</ele>
        <time>2022-05-29T09:20:01.746Z</time>
      </trkpt>
      <trkpt lat="42.34373" lon="18.7695">
        <ele>98.329683</ele>
        <time>2022-05-29T09:20:05.730Z</time>
      </trkpt>
      <trkpt lat="42.34383" lon="18.76946">
        <ele>98.613657</ele>
        <time>2022-05-29T09:20:10.754Z</time>
      </trkpt>
      <trkpt lat="42.34393" lon="18.76944">
        <ele>98.886659</ele>
        <time>2022-05-29T09:20:15.745Z</time>
      </trkpt>
      <trkpt lat="42.34403" lon="18.7694">
        <ele>99.182583</ele>
        <time>2022-05-29T09:20:20.738Z</time>
      </trkpt>
      <trkpt lat="42.34414" lon="18.76936">
        <ele>99.48214</ele>
        <time>2022-05-29T09:20:25.738Z</time>
      </trkpt>
      <trkpt lat="42.34425" lon="18.76934">
        <ele>99.785117</ele>
        <time>2022-05-29T09:20:30.764Z</time>
      </trkpt>
      <trkpt lat="42.34434" lon="18.76932">
        <ele>100.035007</ele>
        <time>2022-05-29T09:20:34.717Z</time>
      </trkpt>
      <trkpt lat="42.34445" lon="18.76929">
        <ele>100.336098</ele>
        <time>2022-05-29T09:20:39.734Z</time>
      </trkpt>
      <trkpt lat="42.34455" lon="18.76927">
        <ele>100.609072</ele>
        <time>2022-05-29T09:20:44.744Z</time>
      </trkpt>
      <trkpt lat="42.34465" lon="18.76925">
        <ele>100.875258</ele>
        <time>2022-05-29T09:20:49.742Z</time>
      </trkpt>
      <trkpt lat="42.34475" lon="18.76924">
        <ele>101.157986</ele>
        <time>2022-05-29T09:20:55.747Z</time>
      </trkpt>
      <trkpt lat="42.34486" lon="18.76922">
        <ele>101.443182</ele>
        <time>2022-05-29T09:21:01.758Z</time>
      </trkpt>
      <trkpt lat="42.34496" lon="18.7692">
        <ele>101.707849</ele>
        <time>2022-05-29T09:21:07.728Z</time>
      </trkpt>
      <trkpt lat="42.34506" lon="18.76917">
        <ele>102.004039</ele>
        <time>2022-05-29T09:21:13.738Z</time>
      </trkpt>
      <trkpt lat="42.34516" lon="18.76915">
        <ele>102.26991</ele>
        <time>2022-05-29T09:21:18.750Z</time>
      </trkpt>
      <trkpt lat="42.34526" lon="18.76913">
        <ele>102.736659</ele>
        <time>2022-05-29T09:21:23.739Z</time>
      </trkpt>
      <trkpt lat="42.34535" lon="18.76911">
        <ele>103.212255</ele>
        <time>2022-05-29T09:21:28.738Z</time>
      </trkpt>
      <trkpt lat="42.34546" lon="18.76909">
        <ele>103.765485</ele>
        <time>2022-05-29T09:21:34.779Z</time>
      </trkpt>
      <trkpt lat="42.34556" lon="18.76906">
        <ele>104.27052</ele>
        <time>2022-05-29T09:21:39.743Z</time>
      </trkpt>
      <trkpt lat="42.34565" lon="18.76902">
        <ele>104.763761</ele>
        <time>2022-05-29T09:21:44.748Z</time>
      </trkpt>
      <trkpt lat="42.34576" lon="18.76901">
        <ele>105.288548</ele>
        <time>2022-05-29T09:21:49.748Z</time>
      </trkpt>
      <trkpt lat="42.34586" lon="18.76898">
        <ele>105.826351</ele>
        <time>2022-05-29T09:21:54.728Z</time>
      </trkpt>
      <trkpt lat="42.34597" lon="18.76899">
        <ele>106.348664</ele>
        <time>2022-05-29T09:21:59.762Z</time>
      </trkpt>
      <trkpt lat="42.34607" lon="18.76899">
        <ele>106.87488</ele>
        <time>2022-05-29T09:22:04.774Z</time>
      </trkpt>
      <trkpt lat="42.34616" lon="18.76897">
        <ele>107.349495</ele>
        <time>2022-05-29T09:22:09.739Z</time>
      </trkpt>
      <trkpt lat="42.34627" lon="18.76895">
        <ele>107.877407</ele>
        <time>2022-05-29T09:22:15.741Z</time>
      </trkpt>
      <trkpt lat="42.34636" lon="18.76892">
        <ele>108.33689</ele>
        <time>2022-05-29T09:22:20.759Z</time>
      </trkpt>
      <trkpt lat="42.34645" lon="18.7689">
        <ele>108.795726</ele>
        <time>2022-05-29T09:22:25.748Z</time>
      </trkpt>
      <trkpt lat="42.34654" lon="18.76887">
        <ele>109.285475</ele>
        <time>2022-05-29T09:22:30.731Z</time>
      </trkpt>
      <trkpt lat="42.34664" lon="18.76885">
        <ele>109.760474</ele>
        <time>2022-05-29T09:22:35.739Z</time>
      </trkpt>
      <trkpt lat="42.34675" lon="18.76882">
        <ele>110.323023</ele>
        <time>2022-05-29T09:22:41.771Z</time>
      </trkpt>
      <trkpt lat="42.34684" lon="18.76879">
        <ele>110.813461</ele>
        <time>2022-05-29T09:22:45.751Z</time>
      </trkpt>
      <trkpt lat="42.34694" lon="18.76877">
        <ele>111.312633</ele>
        <time>2022-05-29T09:22:50.740Z</time>
      </trkpt>
      <trkpt lat="42.34703" lon="18.76873">
        <ele>111.542905</ele>
        <time>2022-05-29T09:22:55.741Z</time>
      </trkpt>
      <trkpt lat="42.34713" lon="18.76871">
        <ele>111.776709</ele>
        <time>2022-05-29T09:23:00.735Z</time>
      </trkpt>
      <trkpt lat="42.34723" lon="18.76867">
        <ele>112.031858</ele>
        <time>2022-05-29T09:23:06.734Z</time>
      </trkpt>
      <trkpt lat="42.34732" lon="18.76863">
        <ele>112.283929</ele>
        <time>2022-05-29T09:23:12.734Z</time>
      </trkpt>
      <trkpt lat="42.34742" lon="18.76859">
        <ele>112.5266</ele>
        <time>2022-05-29T09:23:17.738Z</time>
      </trkpt>
      <trkpt lat="42.34751" lon="18.76857">
        <ele>112.756281</ele>
        <time>2022-05-29T09:23:22.760Z</time>
      </trkpt>
      <trkpt lat="42.34761" lon="18.76853">
        <ele>113.016856</ele>
        <time>2022-05-29T09:23:28.746Z</time>
      </trkpt>
      <trkpt lat="42.3477" lon="18.76849">
        <ele>113.242031</ele>
        <time>2022-05-29T09:23:33.748Z</time>
      </trkpt>
      <trkpt lat="42.34779" lon="18.76844">
        <ele>113.492817</ele>
        <time>2022-05-29T09:23:38.756Z</time>
      </trkpt>
      <trkpt lat="42.34789" lon="18.7684">
        <ele>113.752497</ele>
        <time>2022-05-29T09:23:43.742Z</time>
      </trkpt>
      <trkpt lat="42.34799" lon="18.76836">
        <ele>114.008173</ele>
        <time>2022-05-29T09:23:48.725Z</time>
      </trkpt>
      <trkpt lat="42.34808" lon="18.76832">
        <ele>114.248081</ele>
        <time>2022-05-29T09:23:53.744Z</time>
      </trkpt>
      <trkpt lat="42.34817" lon="18.76827">
        <ele>114.489278</ele>
        <time>2022-05-29T09:23:58.780Z</time>
      </trkpt>
      <trkpt lat="42.34827" lon="18.76822">
        <ele>114.729174</ele>
        <time>2022-05-29T09:24:03.739Z</time>
      </trkpt>
      <trkpt lat="42.34835" lon="18.76818">
        <ele>114.955249</ele>
        <time>2022-05-29T09:24:08.729Z</time>
      </trkpt>
      <trkpt lat="42.34844" lon="18.76813">
        <ele>115.206034</ele>
        <time>2022-05-29T09:24:13.740Z</time>
      </trkpt>
      <trkpt lat="42.34854" lon="18.76809">
        <ele>115.463549</ele>
        <time>2022-05-29T09:24:18.794Z</time>
      </trkpt>
      <trkpt lat="42.34863" lon="18.76803">
        <ele>115.707422</ele>
        <time>2022-05-29T09:24:23.758Z</time>
      </trkpt>
      <trkpt lat="42.34872" lon="18.76798">
        <ele>116.080204</ele>
        <time>2022-05-29T09:24:29.753Z</time>
      </trkpt>
      <trkpt lat="42.34881" lon="18.76789">
        <ele>116.527488</ele>
        <time>2022-05-29T09:24:35.744Z</time>
      </trkpt>
      <trkpt lat="42.3489" lon="18.76785">
        <ele>116.927013</ele>
        <time>2022-05-29T09:24:40.733Z</time>
      </trkpt>
      <trkpt lat="42.349" lon="18.7678">
        <ele>117.379296</ele>
        <time>2022-05-29T09:24:45.733Z</time>
      </trkpt>
      <trkpt lat="42.34909" lon="18.76775">
        <ele>117.763071</ele>
        <time>2022-05-29T09:24:50.761Z</time>
      </trkpt>
      <trkpt lat="42.34917" lon="18.76769">
        <ele>118.136463</ele>
        <time>2022-05-29T09:24:55.763Z</time>
      </trkpt>
      <trkpt lat="42.34926" lon="18.76763">
        <ele>118.539165</ele>
        <time>2022-05-29T09:25:00.742Z</time>
      </trkpt>
      <trkpt lat="42.34934" lon="18.76757">
        <ele>118.92775</ele>
        <time>2022-05-29T09:25:05.746Z</time>
      </trkpt>
      <trkpt lat="42.34942" lon="18.76751">
        <ele>119.317116</ele>
        <time>2022-05-29T09:25:10.744Z</time>
      </trkpt>
      <trkpt lat="42.34952" lon="18.76745">
        <ele>119.764648</ele>
        <time>2022-05-29T09:25:15.750Z</time>
      </trkpt>
      <trkpt lat="42.34961" lon="18.76739">
        <ele>120.14673</ele>
        <time>2022-05-29T09:25:20.750Z</time>
      </trkpt>
      <trkpt lat="42.34968" lon="18.76733">
        <ele>120.520936</ele>
        <time>2022-05-29T09:25:25.750Z</time>
      </trkpt>
      <trkpt lat="42.34978" lon="18.76727">
        <ele>120.981371</ele>
        <time>2022-05-29T09:25:30.760Z</time>
      </trkpt>
      <trkpt lat="42.34986" lon="18.7672">
        <ele>121.359156</ele>
        <time>2022-05-29T09:25:34.727Z</time>
      </trkpt>
      <trkpt lat="42.34996" lon="18.76714">
        <ele>121.791902</ele>
        <time>2022-05-29T09:25:39.751Z</time>
      </trkpt>
      <trkpt lat="42.35004" lon="18.76706">
        <ele>122.1974</ele>
        <time>2022-05-29T09:25:44.738Z</time>
      </trkpt>
      <trkpt lat="42.35012" lon="18.767">
        <ele>122.575184</ele>
        <time>2022-05-29T09:25:48.737Z</time>
      </trkpt>
      <trkpt lat="42.3502" lon="18.76694">
        <ele>122.949389</ele>
        <time>2022-05-29T09:25:52.748Z</time>
      </trkpt>
      <trkpt lat="42.35028" lon="18.76687">
        <ele>123.185354</ele>
        <time>2022-05-29T09:25:57.756Z</time>
      </trkpt>
      <trkpt lat="42.35037" lon="18.7668">
        <ele>123.280451</ele>
        <time>2022-05-29T09:26:02.752Z</time>
      </trkpt>
      <trkpt lat="42.35047" lon="18.76672">
        <ele>123.378713</ele>
        <time>2022-05-29T09:26:07.772Z</time>
      </trkpt>
      <trkpt lat="42.35056" lon="18.76665">
        <ele>123.474912</ele>
        <time>2022-05-29T09:26:12.744Z</time>
      </trkpt>
      <trkpt lat="42.35065" lon="18.76656">
        <ele>123.573589</ele>
        <time>2022-05-29T09:26:17.740Z</time>
      </trkpt>
      <trkpt lat="42.35073" lon="18.76648">
        <ele>123.663343</ele>
        <time>2022-05-29T09:26:22.740Z</time>
      </trkpt>
      <trkpt lat="42.35082" lon="18.7664">
        <ele>123.755315</ele>
        <time>2022-05-29T09:26:27.752Z</time>
      </trkpt>
      <trkpt lat="42.35091" lon="18.7663">
        <ele>123.856288</ele>
        <time>2022-05-29T09:26:32.733Z</time>
      </trkpt>
      <trkpt lat="42.35098" lon="18.76623">
        <ele>123.937175</ele>
        <time>2022-05-29T09:26:36.732Z</time>
      </trkpt>
      <trkpt lat="42.35106" lon="18.76615">
        <ele>124.026981</ele>
        <time>2022-05-29T09:26:40.746Z</time>
      </trkpt>
      <trkpt lat="42.35114" lon="18.76605">
        <ele>124.124749</ele>
        <time>2022-05-29T09:26:44.738Z</time>
      </trkpt>
      <trkpt lat="42.35122" lon="18.76597">
        <ele>124.216552</ele>
        <time>2022-05-29T09:26:48.731Z</time>
      </trkpt>
      <trkpt lat="42.3513" lon="18.76588">
        <ele>124.30353</ele>
        <time>2022-05-29T09:26:52.744Z</time>
      </trkpt>
      <trkpt lat="42.35138" lon="18.76579">
        <ele>124.397852</ele>
        <time>2022-05-29T09:26:56.735Z</time>
      </trkpt>
      <trkpt lat="42.35147" lon="18.76571">
        <ele>124.49829</ele>
        <time>2022-05-29T09:27:00.734Z</time>
      </trkpt>
      <trkpt lat="42.35157" lon="18.76563">
        <ele>124.595094</ele>
        <time>2022-05-29T09:27:04.775Z</time>
      </trkpt>
      <trkpt lat="42.35166" lon="18.76554">
        <ele>124.694795</ele>
        <time>2022-05-29T09:27:08.750Z</time>
      </trkpt>
      <trkpt lat="42.35175" lon="18.76545">
        <ele>124.709715</ele>
        <time>2022-05-29T09:27:12.747Z</time>
      </trkpt>
      <trkpt lat="42.35184" lon="18.76535">
        <ele>124.646274</ele>
        <time>2022-05-29T09:27:16.723Z</time>
      </trkpt>
      <trkpt lat="42.35193" lon="18.76524">
        <ele>124.584718</ele>
        <time>2022-05-29T09:27:20.728Z</time>
      </trkpt>
      <trkpt lat="42.352" lon="18.76517">
        <ele>124.536639</ele>
        <time>2022-05-29T09:27:23.749Z</time>
      </trkpt>
      <trkpt lat="42.35208" lon="18.76507">
        <ele>124.47826</ele>
        <time>2022-05-29T09:27:27.749Z</time>
      </trkpt>
      <trkpt lat="42.35216" lon="18.765">
        <ele>124.426861</ele>
        <time>2022-05-29T09:27:30.730Z</time>
      </trkpt>
      <trkpt lat="42.35223" lon="18.76492">
        <ele>124.377366</ele>
        <time>2022-05-29T09:27:33.734Z</time>
      </trkpt>
      <trkpt lat="42.35231" lon="18.76484">
        <ele>124.326784</ele>
        <time>2022-05-29T09:27:36.734Z</time>
      </trkpt>
      <trkpt lat="42.35239" lon="18.76477">
        <ele>124.275616</ele>
        <time>2022-05-29T09:27:39.754Z</time>
      </trkpt>
      <trkpt lat="42.35246" lon="18.76469">
        <ele>124.224302</ele>
        <time>2022-05-29T09:27:42.759Z</time>
      </trkpt>
      <trkpt lat="42.35254" lon="18.7646">
        <ele>124.171827</ele>
        <time>2022-05-29T09:27:45.764Z</time>
      </trkpt>
      <trkpt lat="42.35262" lon="18.76452">
        <ele>124.118398</ele>
        <time>2022-05-29T09:27:48.732Z</time>
      </trkpt>
      <trkpt lat="42.35269" lon="18.76444">
        <ele>124.06715</ele>
        <time>2022-05-29T09:27:51.740Z</time>
      </trkpt>
      <trkpt lat="42.35276" lon="18.76436">
        <ele>124.016827</ele>
        <time>2022-05-29T09:27:54.738Z</time>
      </trkpt>
      <trkpt lat="42.35284" lon="18.76428">
        <ele>123.962855</ele>
        <time>2022-05-29T09:27:57.748Z</time>
      </trkpt>
      <trkpt lat="42.35293" lon="18.76418">
        <ele>123.903812</ele>
        <time>2022-05-29T09:28:00.744Z</time>
      </trkpt>
      <trkpt lat="42.35302" lon="18.7641">
        <ele>123.845331</ele>
        <time>2022-05-29T09:28:03.738Z</time>
      </trkpt>
      <trkpt lat="42.35311" lon="18.76402">
        <ele>123.788391</ele>
        <time>2022-05-29T09:28:06.746Z</time>
      </trkpt>
      <trkpt lat="42.35319" lon="18.76394">
        <ele>123.8199</ele>
        <time>2022-05-29T09:28:09.727Z</time>
      </trkpt>
      <trkpt lat="42.35328" lon="18.76385">
        <ele>123.867628</ele>
        <time>2022-05-29T09:28:12.736Z</time>
      </trkpt>
      <trkpt lat="42.35337" lon="18.76376">
        <ele>123.917166</ele>
        <time>2022-05-29T09:28:15.737Z</time>
      </trkpt>
      <trkpt lat="42.35346" lon="18.76367">
        <ele>123.969751</ele>
        <time>2022-05-29T09:28:18.734Z</time>
      </trkpt>
      <trkpt lat="42.35356" lon="18.76358">
        <ele>124.022538</ele>
        <time>2022-05-29T09:28:21.751Z</time>
      </trkpt>
      <trkpt lat="42.35366" lon="18.76349">
        <ele>124.07457</ele>
        <time>2022-05-29T09:28:24.734Z</time>
      </trkpt>
      <trkpt lat="42.35376" lon="18.7634">
        <ele>124.129741</ele>
        <time>2022-05-29T09:28:27.752Z</time>
      </trkpt>
      <trkpt lat="42.35386" lon="18.76331">
        <ele>124.183628</ele>
        <time>2022-05-29T09:28:30.741Z</time>
      </trkpt>
      <trkpt lat="42.35397" lon="18.76323">
        <ele>124.237964</ele>
        <time>2022-05-29T09:28:33.732Z</time>
      </trkpt>
      <trkpt lat="42.35408" lon="18.76314">
        <ele>124.295778</ele>
        <time>2022-05-29T09:28:36.744Z</time>
      </trkpt>
      <trkpt lat="42.35419" lon="18.76305">
        <ele>124.354907</ele>
        <time>2022-05-29T09:28:39.736Z</time>
      </trkpt>
      <trkpt lat="42.35431" lon="18.76295">
        <ele>124.415738</ele>
        <time>2022-05-29T09:28:42.725Z</time>
      </trkpt>
      <trkpt lat="42.3544" lon="18.76289">
        <ele>124.45896</ele>
        <time>2022-05-29T09:28:44.744Z</time>
      </trkpt>
      <trkpt lat="42.35449" lon="18.76282">
        <ele>124.504718</ele>
        <time>2022-05-29T09:28:46.751Z</time>
      </trkpt>
      <trkpt lat="42.35458" lon="18.76276">
        <ele>124.549857</ele>
        <time>2022-05-29T09:28:48.749Z</time>
      </trkpt>
      <trkpt lat="42.35466" lon="18.76269">
        <ele>124.529526</ele>
        <time>2022-05-29T09:28:50.739Z</time>
      </trkpt>
      <trkpt lat="42.35475" lon="18.76263">
        <ele>124.338305</ele>
        <time>2022-05-29T09:28:52.727Z</time>
      </trkpt>
      <trkpt lat="42.35484" lon="18.76257">
        <ele>124.15403</ele>
        <time>2022-05-29T09:28:54.757Z</time>
      </trkpt>
      <trkpt lat="42.35492" lon="18.76252">
        <ele>123.979125</ele>
        <time>2022-05-29T09:28:56.727Z</time>
      </trkpt>
      <trkpt lat="42.35502" lon="18.76246">
        <ele>123.778981</ele>
        <time>2022-05-29T09:28:58.753Z</time>
      </trkpt>
      <trkpt lat="42.35512" lon="18.76239">
        <ele>123.570225</ele>
        <time>2022-05-29T09:29:00.732Z</time>
      </trkpt>
      <trkpt lat="42.35523" lon="18.76232">
        <ele>123.34773</ele>
        <time>2022-05-29T09:29:02.749Z</time>
      </trkpt>
      <trkpt lat="42.35533" lon="18.76226">
        <ele>123.127534</ele>
        <time>2022-05-29T09:29:04.728Z</time>
      </trkpt>
      <trkpt lat="42.35544" lon="18.7622">
        <ele>122.915358</ele>
        <time>2022-05-29T09:29:06.719Z</time>
      </trkpt>
      <trkpt lat="42.35554" lon="18.76213">
        <ele>122.695148</ele>
        <time>2022-05-29T09:29:08.810Z</time>
      </trkpt>
      <trkpt lat="42.35566" lon="18.76208">
        <ele>122.466578</ele>
        <time>2022-05-29T09:29:10.744Z</time>
      </trkpt>
      <trkpt lat="42.35578" lon="18.76202">
        <ele>122.225636</ele>
        <time>2022-05-29T09:29:12.766Z</time>
      </trkpt>
      <trkpt lat="42.3559" lon="18.76195">
        <ele>121.973282</ele>
        <time>2022-05-29T09:29:14.754Z</time>
      </trkpt>
      <trkpt lat="42.35602" lon="18.76188">
        <ele>121.721559</ele>
        <time>2022-05-29T09:29:16.738Z</time>
      </trkpt>
      <trkpt lat="42.35615" lon="18.76183">
        <ele>121.463674</ele>
        <time>2022-05-29T09:29:18.759Z</time>
      </trkpt>
      <trkpt lat="42.35629" lon="18.76177">
        <ele>121.197748</ele>
        <time>2022-05-29T09:29:20.745Z</time>
      </trkpt>
      <trkpt lat="42.35642" lon="18.76171">
        <ele>120.837744</ele>
        <time>2022-05-29T09:29:22.825Z</time>
      </trkpt>
      <trkpt lat="42.35656" lon="18.76165">
        <ele>120.464317</ele>
        <time>2022-05-29T09:29:24.731Z</time>
      </trkpt>
      <trkpt lat="42.35671" lon="18.7616">
        <ele>120.087353</ele>
        <time>2022-05-29T09:29:26.742Z</time>
      </trkpt>
      <trkpt lat="42.35685" lon="18.76154">
        <ele>119.694605</ele>
        <time>2022-05-29T09:29:28.736Z</time>
      </trkpt>
      <trkpt lat="42.35701" lon="18.76148">
        <ele>119.280781</ele>
        <time>2022-05-29T09:29:30.732Z</time>
      </trkpt>
      <trkpt lat="42.35717" lon="18.76141">
        <ele>118.854328</ele>
        <time>2022-05-29T09:29:32.738Z</time>
      </trkpt>
      <trkpt lat="42.35733" lon="18.76135">
        <ele>118.432976</ele>
        <time>2022-05-29T09:29:34.739Z</time>
      </trkpt>
      <trkpt lat="42.35749" lon="18.7613">
        <ele>118.005284</ele>
        <time>2022-05-29T09:29:36.743Z</time>
      </trkpt>
      <trkpt lat="42.35766" lon="18.76124">
        <ele>117.552765</ele>
        <time>2022-05-29T09:29:38.742Z</time>
      </trkpt>
      <trkpt lat="42.35783" lon="18.76119">
        <ele>117.106428</ele>
        <time>2022-05-29T09:29:40.723Z</time>
      </trkpt>
      <trkpt lat="42.358" lon="18.76115">
        <ele>116.680168</ele>
        <time>2022-05-29T09:29:42.741Z</time>
      </trkpt>
      <trkpt lat="42.35815" lon="18.76112">
        <ele>116.020726</ele>
        <time>2022-05-29T09:29:44.735Z</time>
      </trkpt>
      <trkpt lat="42.3583" lon="18.76108">
        <ele>115.275907</ele>
        <time>2022-05-29T09:29:46.738Z</time>
      </trkpt>
      <trkpt lat="42.35846" lon="18.76103">
        <ele>114.501776</ele>
        <time>2022-05-29T09:29:48.738Z</time>
      </trkpt>
      <trkpt lat="42.35863" lon="18.76098">
        <ele>113.691664</ele>
        <time>2022-05-29T09:29:50.736Z</time>
      </trkpt>
      <trkpt lat="42.3588" lon="18.76093">
        <ele>112.861446</ele>
        <time>2022-05-29T09:29:52.753Z</time>
      </trkpt>
      <trkpt lat="42.35896" lon="18.76088">
        <ele>112.058</ele>
        <time>2022-05-29T09:29:54.737Z</time>
      </trkpt>
      <trkpt lat="42.35914" lon="18.76083">
        <ele>111.210083</ele>
        <time>2022-05-29T09:29:56.745Z</time>
      </trkpt>
      <trkpt lat="42.35923" lon="18.7608">
        <ele>110.779043</ele>
        <time>2022-05-29T09:29:57.745Z</time>
      </trkpt>
      <trkpt lat="42.35939" lon="18.76073">
        <ele>109.952696</ele>
        <time>2022-05-29T09:29:59.768Z</time>
      </trkpt>
      <trkpt lat="42.35955" lon="18.76065">
        <ele>109.1445</ele>
        <time>2022-05-29T09:30:01.773Z</time>
      </trkpt>
      <trkpt lat="42.35971" lon="18.76057">
        <ele>108.357801</ele>
        <time>2022-05-29T09:30:03.734Z</time>
      </trkpt>
      <trkpt lat="42.35987" lon="18.76049">
        <ele>107.614595</ele>
        <time>2022-05-29T09:30:05.728Z</time>
      </trkpt>
      <trkpt lat="42.35995" lon="18.76044">
        <ele>107.244903</ele>
        <time>2022-05-29T09:30:06.759Z</time>
      </trkpt>
      <trkpt lat="42.36004" lon="18.76038">
        <ele>106.842066</ele>
        <time>2022-05-29T09:30:07.769Z</time>
      </trkpt>
      <trkpt lat="42.36014" lon="18.76033">
        <ele>106.435339</ele>
        <time>2022-05-29T09:30:08.749Z</time>
      </trkpt>
      <trkpt lat="42.36022" lon="18.76028">
        <ele>106.050915</ele>
        <time>2022-05-29T09:30:09.729Z</time>
      </trkpt>
      <trkpt lat="42.3603" lon="18.76022">
        <ele>105.680509</ele>
        <time>2022-05-29T09:30:10.731Z</time>
      </trkpt>
      <trkpt lat="42.36046" lon="18.7601">
        <ele>104.951805</ele>
        <time>2022-05-29T09:30:12.747Z</time>
      </trkpt>
      <trkpt lat="42.36054" lon="18.76004">
        <ele>104.583108</ele>
        <time>2022-05-29T09:30:13.768Z</time>
      </trkpt>
      <trkpt lat="42.36062" lon="18.75997">
        <ele>104.206453</ele>
        <time>2022-05-29T09:30:14.735Z</time>
      </trkpt>
      <trkpt lat="42.3607" lon="18.7599">
        <ele>103.818108</ele>
        <time>2022-05-29T09:30:15.743Z</time>
      </trkpt>
      <trkpt lat="42.36077" lon="18.75982">
        <ele>103.442943</ele>
        <time>2022-05-29T09:30:16.726Z</time>
      </trkpt>
      <trkpt lat="42.36085" lon="18.75975">
        <ele>103.06778</ele>
        <time>2022-05-29T09:30:17.735Z</time>
      </trkpt>
      <trkpt lat="42.36092" lon="18.75967">
        <ele>102.690849</ele>
        <time>2022-05-29T09:30:18.736Z</time>
      </trkpt>
      <trkpt lat="42.361" lon="18.7596">
        <ele>102.315363</ele>
        <time>2022-05-29T09:30:19.744Z</time>
      </trkpt>
      <trkpt lat="42.36107" lon="18.75952">
        <ele>101.941261</ele>
        <time>2022-05-29T09:30:20.757Z</time>
      </trkpt>
      <trkpt lat="42.36114" lon="18.75944">
        <ele>101.576646</ele>
        <time>2022-05-29T09:30:21.764Z</time>
      </trkpt>
      <trkpt lat="42.36121" lon="18.75936">
        <ele>101.211331</ele>
        <time>2022-05-29T09:30:22.749Z</time>
      </trkpt>
      <trkpt lat="42.36128" lon="18.75929">
        <ele>100.843571</ele>
        <time>2022-05-29T09:30:23.755Z</time>
      </trkpt>
      <trkpt lat="42.36135" lon="18.75921">
        <ele>100.567723</ele>
        <time>2022-05-29T09:30:24.747Z</time>
      </trkpt>
      <trkpt lat="42.36149" lon="18.75906">
        <ele>100.084078</ele>
        <time>2022-05-29T09:30:26.742Z</time>
      </trkpt>
      <trkpt lat="42.36156" lon="18.75898">
        <ele>99.828026</ele>
        <time>2022-05-29T09:30:27.744Z</time>
      </trkpt>
      <trkpt lat="42.36163" lon="18.75891">
        <ele>99.572576</ele>
        <time>2022-05-29T09:30:28.750Z</time>
      </trkpt>
      <trkpt lat="42.36171" lon="18.75883">
        <ele>99.309969</ele>
        <time>2022-05-29T09:30:29.756Z</time>
      </trkpt>
      <trkpt lat="42.36178" lon="18.75875">
        <ele>99.05263</ele>
        <time>2022-05-29T09:30:30.740Z</time>
      </trkpt>
      <trkpt lat="42.36185" lon="18.75867">
        <ele>98.793476</ele>
        <time>2022-05-29T09:30:31.740Z</time>
      </trkpt>
      <trkpt lat="42.36193" lon="18.7586">
        <ele>98.535788</ele>
        <time>2022-05-29T09:30:32.750Z</time>
      </trkpt>
      <trkpt lat="42.362" lon="18.75853">
        <ele>98.277107</ele>
        <time>2022-05-29T09:30:33.732Z</time>
      </trkpt>
      <trkpt lat="42.36208" lon="18.75846">
        <ele>98.016094</ele>
        <time>2022-05-29T09:30:34.769Z</time>
      </trkpt>
      <trkpt lat="42.36216" lon="18.75838">
        <ele>97.746996</ele>
        <time>2022-05-29T09:30:35.782Z</time>
      </trkpt>
      <trkpt lat="42.36224" lon="18.7583">
        <ele>97.469904</ele>
        <time>2022-05-29T09:30:36.745Z</time>
      </trkpt>
      <trkpt lat="42.36233" lon="18.75823">
        <ele>97.193958</ele>
        <time>2022-05-29T09:30:37.749Z</time>
      </trkpt>
      <trkpt lat="42.3624" lon="18.75816">
        <ele>96.930671</ele>
        <time>2022-05-29T09:30:38.732Z</time>
      </trkpt>
      <trkpt lat="42.36249" lon="18.75809">
        <ele>96.664948</ele>
        <time>2022-05-29T09:30:39.747Z</time>
      </trkpt>
      <trkpt lat="42.36257" lon="18.75802">
        <ele>96.39795</ele>
        <time>2022-05-29T09:30:40.735Z</time>
      </trkpt>
      <trkpt lat="42.36265" lon="18.75795">
        <ele>96.127248</ele>
        <time>2022-05-29T09:30:41.735Z</time>
      </trkpt>
      <trkpt lat="42.36274" lon="18.75789">
        <ele>95.849339</ele>
        <time>2022-05-29T09:30:42.732Z</time>
      </trkpt>
      <trkpt lat="42.36283" lon="18.75783">
        <ele>95.544792</ele>
        <time>2022-05-29T09:30:43.735Z</time>
      </trkpt>
      <trkpt lat="42.36292" lon="18.75776">
        <ele>95.220912</ele>
        <time>2022-05-29T09:30:44.725Z</time>
      </trkpt>
      <trkpt lat="42.36301" lon="18.7577">
        <ele>94.896274</ele>
        <time>2022-05-29T09:30:45.750Z</time>
      </trkpt>
      <trkpt lat="42.3631" lon="18.75764">
        <ele>94.569534</ele>
        <time>2022-05-29T09:30:46.777Z</time>
      </trkpt>
      <trkpt lat="42.36319" lon="18.75758">
        <ele>94.239118</ele>
        <time>2022-05-29T09:30:47.728Z</time>
      </trkpt>
      <trkpt lat="42.36328" lon="18.75752">
        <ele>93.909715</ele>
        <time>2022-05-29T09:30:48.744Z</time>
      </trkpt>
      <trkpt lat="42.36338" lon="18.75747">
        <ele>93.579372</ele>
        <time>2022-05-29T09:30:49.729Z</time>
      </trkpt>
      <trkpt lat="42.36347" lon="18.75741">
        <ele>93.250968</ele>
        <time>2022-05-29T09:30:50.727Z</time>
      </trkpt>
      <trkpt lat="42.36356" lon="18.75735">
        <ele>92.922564</ele>
        <time>2022-05-29T09:30:51.755Z</time>
      </trkpt>
      <trkpt lat="42.36366" lon="18.75729">
        <ele>92.595145</ele>
        <time>2022-05-29T09:30:52.818Z</time>
      </trkpt>
      <trkpt lat="42.36375" lon="18.75724">
        <ele>92.270645</ele>
        <time>2022-05-29T09:30:53.736Z</time>
      </trkpt>
      <trkpt lat="42.36384" lon="18.75718">
        <ele>91.950047</ele>
        <time>2022-05-29T09:30:54.730Z</time>
      </trkpt>
      <trkpt lat="42.36393" lon="18.75712">
        <ele>91.629448</ele>
        <time>2022-05-29T09:30:55.744Z</time>
      </trkpt>
      <trkpt lat="42.36402" lon="18.75707">
        <ele>91.327364</ele>
        <time>2022-05-29T09:30:56.731Z</time>
      </trkpt>
      <trkpt lat="42.3641" lon="18.75702">
        <ele>91.031124</ele>
        <time>2022-05-29T09:30:57.768Z</time>
      </trkpt>
      <trkpt lat="42.36418" lon="18.75697">
        <ele>90.735776</ele>
        <time>2022-05-29T09:30:58.726Z</time>
      </trkpt>
      <trkpt lat="42.36427" lon="18.75691">
        <ele>90.441211</ele>
        <time>2022-05-29T09:30:59.744Z</time>
      </trkpt>
      <trkpt lat="42.36435" lon="18.75685">
        <ele>90.138781</ele>
        <time>2022-05-29T09:31:00.748Z</time>
      </trkpt>
      <trkpt lat="42.36443" lon="18.75679">
        <ele>89.892297</ele>
        <time>2022-05-29T09:31:01.747Z</time>
      </trkpt>
      <trkpt lat="42.36451" lon="18.75674">
        <ele>89.685051</ele>
        <time>2022-05-29T09:31:02.752Z</time>
      </trkpt>
      <trkpt lat="42.3646" lon="18.75668">
        <ele>89.470981</ele>
        <time>2022-05-29T09:31:03.749Z</time>
      </trkpt>
      <trkpt lat="42.36468" lon="18.75662">
        <ele>89.260164</ele>
        <time>2022-05-29T09:31:04.739Z</time>
      </trkpt>
      <trkpt lat="42.36476" lon="18.75656">
        <ele>89.046555</ele>
        <time>2022-05-29T09:31:05.752Z</time>
      </trkpt>
      <trkpt lat="42.36484" lon="18.7565">
        <ele>88.834945</ele>
        <time>2022-05-29T09:31:06.733Z</time>
      </trkpt>
      <trkpt lat="42.36493" lon="18.75644">
        <ele>88.624128</ele>
        <time>2022-05-29T09:31:07.739Z</time>
      </trkpt>
      <trkpt lat="42.36501" lon="18.75638">
        <ele>88.414865</ele>
        <time>2022-05-29T09:31:08.764Z</time>
      </trkpt>
      <trkpt lat="42.36509" lon="18.75633">
        <ele>88.210841</ele>
        <time>2022-05-29T09:31:09.731Z</time>
      </trkpt>
      <trkpt lat="42.36524" lon="18.75621">
        <ele>87.815859</ele>
        <time>2022-05-29T09:31:11.763Z</time>
      </trkpt>
      <trkpt lat="42.36539" lon="18.75609">
        <ele>87.418591</ele>
        <time>2022-05-29T09:31:13.739Z</time>
      </trkpt>
      <trkpt lat="42.36554" lon="18.75596">
        <ele>87.010524</ele>
        <time>2022-05-29T09:31:15.812Z</time>
      </trkpt>
      <trkpt lat="42.36562" lon="18.75589">
        <ele>86.797087</ele>
        <time>2022-05-29T09:31:16.743Z</time>
      </trkpt>
      <trkpt lat="42.3657" lon="18.75582">
        <ele>86.577006</ele>
        <time>2022-05-29T09:31:17.760Z</time>
      </trkpt>
      <trkpt lat="42.36578" lon="18.75575">
        <ele>86.359836</ele>
        <time>2022-05-29T09:31:18.733Z</time>
      </trkpt>
      <trkpt lat="42.36586" lon="18.75568">
        <ele>86.149216</ele>
        <time>2022-05-29T09:31:19.771Z</time>
      </trkpt>
      <trkpt lat="42.36594" lon="18.75561">
        <ele>85.940393</ele>
        <time>2022-05-29T09:31:20.743Z</time>
      </trkpt>
      <trkpt lat="42.36601" lon="18.75555">
        <ele>85.765682</ele>
        <time>2022-05-29T09:31:21.746Z</time>
      </trkpt>
      <trkpt lat="42.3661" lon="18.75548">
        <ele>85.59054</ele>
        <time>2022-05-29T09:31:22.727Z</time>
      </trkpt>
      <trkpt lat="42.36618" lon="18.75542">
        <ele>85.407043</ele>
        <time>2022-05-29T09:31:23.739Z</time>
      </trkpt>
      <trkpt lat="42.36627" lon="18.75535">
        <ele>85.220319</ele>
        <time>2022-05-29T09:31:24.756Z</time>
      </trkpt>
      <trkpt lat="42.36635" lon="18.75528">
        <ele>85.03429</ele>
        <time>2022-05-29T09:31:25.731Z</time>
      </trkpt>
      <trkpt lat="42.36644" lon="18.75521">
        <ele>84.846634</ele>
        <time>2022-05-29T09:31:26.746Z</time>
      </trkpt>
      <trkpt lat="42.36653" lon="18.75515">
        <ele>84.659608</ele>
        <time>2022-05-29T09:31:27.748Z</time>
      </trkpt>
      <trkpt lat="42.36662" lon="18.75509">
        <ele>84.465255</ele>
        <time>2022-05-29T09:31:28.837Z</time>
      </trkpt>
      <trkpt lat="42.36671" lon="18.75504">
        <ele>84.274429</ele>
        <time>2022-05-29T09:31:29.744Z</time>
      </trkpt>
      <trkpt lat="42.36681" lon="18.75498">
        <ele>84.07953</ele>
        <time>2022-05-29T09:31:30.772Z</time>
      </trkpt>
      <trkpt lat="42.3669" lon="18.75493">
        <ele>83.890185</ele>
        <time>2022-05-29T09:31:31.740Z</time>
      </trkpt>
      <trkpt lat="42.367" lon="18.75489">
        <ele>83.702824</ele>
        <time>2022-05-29T09:31:32.745Z</time>
      </trkpt>
      <trkpt lat="42.36709" lon="18.75485">
        <ele>83.518095</ele>
        <time>2022-05-29T09:31:33.726Z</time>
      </trkpt>
      <trkpt lat="42.36719" lon="18.75481">
        <ele>83.333776</ele>
        <time>2022-05-29T09:31:34.745Z</time>
      </trkpt>
      <trkpt lat="42.36728" lon="18.75478">
        <ele>83.15388</ele>
        <time>2022-05-29T09:31:35.749Z</time>
      </trkpt>
      <trkpt lat="42.36737" lon="18.75475">
        <ele>82.975564</ele>
        <time>2022-05-29T09:31:36.773Z</time>
      </trkpt>
      <trkpt lat="42.36747" lon="18.75472">
        <ele>82.793581</ele>
        <time>2022-05-29T09:31:37.737Z</time>
      </trkpt>
      <trkpt lat="42.36756" lon="18.7547">
        <ele>82.607642</ele>
        <time>2022-05-29T09:31:38.734Z</time>
      </trkpt>
      <trkpt lat="42.36766" lon="18.75467">
        <ele>82.364289</ele>
        <time>2022-05-29T09:31:39.737Z</time>
      </trkpt>
      <trkpt lat="42.36776" lon="18.75464">
        <ele>82.100858</ele>
        <time>2022-05-29T09:31:40.734Z</time>
      </trkpt>
      <trkpt lat="42.36786" lon="18.75461">
        <ele>81.836639</ele>
        <time>2022-05-29T09:31:41.730Z</time>
      </trkpt>
      <trkpt lat="42.36796" lon="18.75459">
        <ele>81.570267</ele>
        <time>2022-05-29T09:31:42.728Z</time>
      </trkpt>
      <trkpt lat="42.36806" lon="18.75455">
        <ele>81.305205</ele>
        <time>2022-05-29T09:31:43.730Z</time>
      </trkpt>
      <trkpt lat="42.36816" lon="18.75452">
        <ele>81.039703</ele>
        <time>2022-05-29T09:31:44.726Z</time>
      </trkpt>
      <trkpt lat="42.36826" lon="18.75449">
        <ele>80.774642</ele>
        <time>2022-05-29T09:31:45.772Z</time>
      </trkpt>
      <trkpt lat="42.36836" lon="18.75446">
        <ele>80.512972</ele>
        <time>2022-05-29T09:31:46.781Z</time>
      </trkpt>
      <trkpt lat="42.36845" lon="18.75443">
        <ele>80.253849</ele>
        <time>2022-05-29T09:31:47.728Z</time>
      </trkpt>
      <trkpt lat="42.36855" lon="18.75441">
        <ele>80.000235</ele>
        <time>2022-05-29T09:31:48.732Z</time>
      </trkpt>
      <trkpt lat="42.36864" lon="18.75438">
        <ele>79.752128</ele>
        <time>2022-05-29T09:31:49.746Z</time>
      </trkpt>
      <trkpt lat="42.36873" lon="18.75435">
        <ele>79.504417</ele>
        <time>2022-05-29T09:31:50.727Z</time>
      </trkpt>
      <trkpt lat="42.36883" lon="18.75433">
        <ele>79.253759</ele>
        <time>2022-05-29T09:31:51.734Z</time>
      </trkpt>
      <trkpt lat="42.36892" lon="18.7543">
        <ele>79.008602</ele>
        <time>2022-05-29T09:31:52.739Z</time>
      </trkpt>
      <trkpt lat="42.36901" lon="18.75427">
        <ele>78.763446</ele>
        <time>2022-05-29T09:31:53.786Z</time>
      </trkpt>
      <trkpt lat="42.36911" lon="18.75425">
        <ele>78.51238</ele>
        <time>2022-05-29T09:31:54.744Z</time>
      </trkpt>
      <trkpt lat="42.3692" lon="18.75422">
        <ele>78.263862</ele>
        <time>2022-05-29T09:31:55.751Z</time>
      </trkpt>
      <trkpt lat="42.36929" lon="18.75419">
        <ele>78.009831</ele>
        <time>2022-05-29T09:31:56.724Z</time>
      </trkpt>
      <trkpt lat="42.36939" lon="18.75416">
        <ele>77.768447</ele>
        <time>2022-05-29T09:31:57.740Z</time>
      </trkpt>
      <trkpt lat="42.36949" lon="18.75414">
        <ele>77.55193</ele>
        <time>2022-05-29T09:31:58.750Z</time>
      </trkpt>
      <trkpt lat="42.36958" lon="18.75411">
        <ele>77.339464</ele>
        <time>2022-05-29T09:31:59.741Z</time>
      </trkpt>
      <trkpt lat="42.36968" lon="18.75408">
        <ele>77.125637</ele>
        <time>2022-05-29T09:32:00.761Z</time>
      </trkpt>
      <trkpt lat="42.36977" lon="18.75405">
        <ele>76.907121</ele>
        <time>2022-05-29T09:32:01.745Z</time>
      </trkpt>
      <trkpt lat="42.36987" lon="18.75402">
        <ele>76.688604</ele>
        <time>2022-05-29T09:32:02.739Z</time>
      </trkpt>
      <trkpt lat="42.36996" lon="18.754">
        <ele>76.475482</ele>
        <time>2022-05-29T09:32:03.748Z</time>
      </trkpt>
      <trkpt lat="42.37006" lon="18.75397">
        <ele>76.258018</ele>
        <time>2022-05-29T09:32:04.766Z</time>
      </trkpt>
      <trkpt lat="42.37015" lon="18.75394">
        <ele>76.042028</ele>
        <time>2022-05-29T09:32:05.738Z</time>
      </trkpt>
      <trkpt lat="42.37025" lon="18.75391">
        <ele>75.827832</ele>
        <time>2022-05-29T09:32:06.765Z</time>
      </trkpt>
      <trkpt lat="42.37034" lon="18.75388">
        <ele>75.614363</ele>
        <time>2022-05-29T09:32:07.770Z</time>
      </trkpt>
      <trkpt lat="42.37043" lon="18.75386">
        <ele>75.403747</ele>
        <time>2022-05-29T09:32:08.736Z</time>
      </trkpt>
      <trkpt lat="42.37053" lon="18.75383">
        <ele>75.190959</ele>
        <time>2022-05-29T09:32:09.749Z</time>
      </trkpt>
      <trkpt lat="42.37062" lon="18.7538">
        <ele>74.979656</ele>
        <time>2022-05-29T09:32:10.742Z</time>
      </trkpt>
      <trkpt lat="42.37071" lon="18.75377">
        <ele>74.766187</ele>
        <time>2022-05-29T09:32:11.741Z</time>
      </trkpt>
      <trkpt lat="42.37081" lon="18.75375">
        <ele>74.554523</ele>
        <time>2022-05-29T09:32:12.772Z</time>
      </trkpt>
      <trkpt lat="42.3709" lon="18.75372">
        <ele>74.347178</ele>
        <time>2022-05-29T09:32:13.732Z</time>
      </trkpt>
      <trkpt lat="42.37099" lon="18.75369">
        <ele>74.141992</ele>
        <time>2022-05-29T09:32:14.749Z</time>
      </trkpt>
      <trkpt lat="42.37108" lon="18.75366">
        <ele>73.935373</ele>
        <time>2022-05-29T09:32:15.765Z</time>
      </trkpt>
      <trkpt lat="42.37117" lon="18.75363">
        <ele>73.719773</ele>
        <time>2022-05-29T09:32:16.748Z</time>
      </trkpt>
      <trkpt lat="42.37126" lon="18.75361">
        <ele>73.502803</ele>
        <time>2022-05-29T09:32:17.757Z</time>
      </trkpt>
      <trkpt lat="42.37143" lon="18.75355">
        <ele>73.078506</ele>
        <time>2022-05-29T09:32:19.739Z</time>
      </trkpt>
      <trkpt lat="42.3716" lon="18.75349">
        <ele>72.663886</ele>
        <time>2022-05-29T09:32:21.724Z</time>
      </trkpt>
      <trkpt lat="42.37177" lon="18.75344">
        <ele>72.254314</ele>
        <time>2022-05-29T09:32:23.731Z</time>
      </trkpt>
      <trkpt lat="42.37193" lon="18.75338">
        <ele>71.846206</ele>
        <time>2022-05-29T09:32:25.736Z</time>
      </trkpt>
      <trkpt lat="42.3721" lon="18.75332">
        <ele>71.445026</ele>
        <time>2022-05-29T09:32:27.750Z</time>
      </trkpt>
      <trkpt lat="42.37225" lon="18.75326">
        <ele>71.05626</ele>
        <time>2022-05-29T09:32:29.749Z</time>
      </trkpt>
      <trkpt lat="42.37241" lon="18.75321">
        <ele>70.67947</ele>
        <time>2022-05-29T09:32:31.753Z</time>
      </trkpt>
      <trkpt lat="42.37256" lon="18.75316">
        <ele>70.311896</ele>
        <time>2022-05-29T09:32:33.736Z</time>
      </trkpt>
      <trkpt lat="42.3727" lon="18.7531">
        <ele>69.953522</ele>
        <time>2022-05-29T09:32:35.748Z</time>
      </trkpt>
      <trkpt lat="42.37284" lon="18.75305">
        <ele>69.611675</ele>
        <time>2022-05-29T09:32:37.758Z</time>
      </trkpt>
      <trkpt lat="42.37297" lon="18.75301">
        <ele>69.677523</ele>
        <time>2022-05-29T09:32:39.750Z</time>
      </trkpt>
      <trkpt lat="42.3731" lon="18.75296">
        <ele>69.770905</ele>
        <time>2022-05-29T09:32:41.747Z</time>
      </trkpt>
      <trkpt lat="42.37322" lon="18.75291">
        <ele>69.863455</ele>
        <time>2022-05-29T09:32:43.714Z</time>
      </trkpt>
      <trkpt lat="42.37334" lon="18.75286">
        <ele>69.949286</ele>
        <time>2022-05-29T09:32:45.749Z</time>
      </trkpt>
      <trkpt lat="42.37345" lon="18.75281">
        <ele>70.033437</ele>
        <time>2022-05-29T09:32:47.720Z</time>
      </trkpt>
      <trkpt lat="42.37355" lon="18.75275">
        <ele>70.113404</ele>
        <time>2022-05-29T09:32:49.769Z</time>
      </trkpt>
      <trkpt lat="42.37366" lon="18.75271">
        <ele>70.19168</ele>
        <time>2022-05-29T09:32:51.744Z</time>
      </trkpt>
      <trkpt lat="42.37376" lon="18.75266">
        <ele>70.269613</ele>
        <time>2022-05-29T09:32:53.722Z</time>
      </trkpt>
      <trkpt lat="42.37387" lon="18.75262">
        <ele>70.346218</ele>
        <time>2022-05-29T09:32:55.725Z</time>
      </trkpt>
      <trkpt lat="42.37397" lon="18.75257">
        <ele>70.424992</ele>
        <time>2022-05-29T09:32:57.745Z</time>
      </trkpt>
      <trkpt lat="42.37407" lon="18.75252">
        <ele>70.501919</ele>
        <time>2022-05-29T09:32:59.748Z</time>
      </trkpt>
      <trkpt lat="42.37418" lon="18.75247">
        <ele>70.580524</ele>
        <time>2022-05-29T09:33:01.744Z</time>
      </trkpt>
      <trkpt lat="42.37428" lon="18.75243">
        <ele>70.658963</ele>
        <time>2022-05-29T09:33:03.746Z</time>
      </trkpt>
      <trkpt lat="42.37439" lon="18.75238">
        <ele>70.736922</ele>
        <time>2022-05-29T09:33:05.766Z</time>
      </trkpt>
      <trkpt lat="42.37449" lon="18.75234">
        <ele>70.811184</ele>
        <time>2022-05-29T09:33:07.767Z</time>
      </trkpt>
      <trkpt lat="42.37459" lon="18.75229">
        <ele>70.869815</ele>
        <time>2022-05-29T09:33:09.749Z</time>
      </trkpt>
      <trkpt lat="42.37469" lon="18.75225">
        <ele>70.888171</ele>
        <time>2022-05-29T09:33:11.738Z</time>
      </trkpt>
      <trkpt lat="42.37478" lon="18.7522">
        <ele>70.906526</ele>
        <time>2022-05-29T09:33:13.747Z</time>
      </trkpt>
      <trkpt lat="42.37488" lon="18.75215">
        <ele>70.924732</ele>
        <time>2022-05-29T09:33:15.747Z</time>
      </trkpt>
      <trkpt lat="42.37498" lon="18.7521">
        <ele>70.943265</ele>
        <time>2022-05-29T09:33:17.735Z</time>
      </trkpt>
      <trkpt lat="42.37508" lon="18.75205">
        <ele>70.96241</ele>
        <time>2022-05-29T09:33:19.753Z</time>
      </trkpt>
      <trkpt lat="42.37518" lon="18.752">
        <ele>70.980663</ele>
        <time>2022-05-29T09:33:21.761Z</time>
      </trkpt>
      <trkpt lat="42.37527" lon="18.75194">
        <ele>70.998368</ele>
        <time>2022-05-29T09:33:23.771Z</time>
      </trkpt>
      <trkpt lat="42.37537" lon="18.75189">
        <ele>71.017157</ele>
        <time>2022-05-29T09:33:25.732Z</time>
      </trkpt>
      <trkpt lat="42.37548" lon="18.75183">
        <ele>71.037438</ele>
        <time>2022-05-29T09:33:27.755Z</time>
      </trkpt>
      <trkpt lat="42.37559" lon="18.75178">
        <ele>71.057791</ele>
        <time>2022-05-29T09:33:29.746Z</time>
      </trkpt>
      <trkpt lat="42.3757" lon="18.75172">
        <ele>71.078005</ele>
        <time>2022-05-29T09:33:31.738Z</time>
      </trkpt>
      <trkpt lat="42.37581" lon="18.75166">
        <ele>71.098239</ele>
        <time>2022-05-29T09:33:33.726Z</time>
      </trkpt>
      <trkpt lat="42.37591" lon="18.75161">
        <ele>71.11852</ele>
        <time>2022-05-29T09:33:35.748Z</time>
      </trkpt>
      <trkpt lat="42.37602" lon="18.75154">
        <ele>71.13904</ele>
        <time>2022-05-29T09:33:37.749Z</time>
      </trkpt>
      <trkpt lat="42.37614" lon="18.75147">
        <ele>71.162237</ele>
        <time>2022-05-29T09:33:39.756Z</time>
      </trkpt>
      <trkpt lat="42.37628" lon="18.7514">
        <ele>71.139866</ele>
        <time>2022-05-29T09:33:41.733Z</time>
      </trkpt>
      <trkpt lat="42.37641" lon="18.75134">
        <ele>71.011109</ele>
        <time>2022-05-29T09:33:43.773Z</time>
      </trkpt>
      <trkpt lat="42.37653" lon="18.75127">
        <ele>70.88245</ele>
        <time>2022-05-29T09:33:45.747Z</time>
      </trkpt>
      <trkpt lat="42.37666" lon="18.7512">
        <ele>70.756894</ele>
        <time>2022-05-29T09:33:47.727Z</time>
      </trkpt>
      <trkpt lat="42.37678" lon="18.75112">
        <ele>70.630001</ele>
        <time>2022-05-29T09:33:49.747Z</time>
      </trkpt>
      <trkpt lat="42.37691" lon="18.75105">
        <ele>70.504235</ele>
        <time>2022-05-29T09:33:51.737Z</time>
      </trkpt>
      <trkpt lat="42.37703" lon="18.75097">
        <ele>70.376786</ele>
        <time>2022-05-29T09:33:53.734Z</time>
      </trkpt>
      <trkpt lat="42.37716" lon="18.7509">
        <ele>70.248487</ele>
        <time>2022-05-29T09:33:55.724Z</time>
      </trkpt>
      <trkpt lat="42.37728" lon="18.75082">
        <ele>70.121868</ele>
        <time>2022-05-29T09:33:57.745Z</time>
      </trkpt>
      <trkpt lat="42.37741" lon="18.75075">
        <ele>69.996678</ele>
        <time>2022-05-29T09:33:59.745Z</time>
      </trkpt>
      <trkpt lat="42.37753" lon="18.75067">
        <ele>69.8664</ele>
        <time>2022-05-29T09:34:01.749Z</time>
      </trkpt>
      <trkpt lat="42.37767" lon="18.75059">
        <ele>69.731036</ele>
        <time>2022-05-29T09:34:03.744Z</time>
      </trkpt>
      <trkpt lat="42.3778" lon="18.75051">
        <ele>69.594822</ele>
        <time>2022-05-29T09:34:05.746Z</time>
      </trkpt>
      <trkpt lat="42.37794" lon="18.75043">
        <ele>69.346354</ele>
        <time>2022-05-29T09:34:07.750Z</time>
      </trkpt>
      <trkpt lat="42.37808" lon="18.75034">
        <ele>68.906833</ele>
        <time>2022-05-29T09:34:09.807Z</time>
      </trkpt>
      <trkpt lat="42.37822" lon="18.75025">
        <ele>68.471658</ele>
        <time>2022-05-29T09:34:11.742Z</time>
      </trkpt>
      <trkpt lat="42.37835" lon="18.75016">
        <ele>68.053353</ele>
        <time>2022-05-29T09:34:13.762Z</time>
      </trkpt>
      <trkpt lat="42.37848" lon="18.75007">
        <ele>67.635049</ele>
        <time>2022-05-29T09:34:15.746Z</time>
      </trkpt>
      <trkpt lat="42.37861" lon="18.74998">
        <ele>67.203732</ele>
        <time>2022-05-29T09:34:17.755Z</time>
      </trkpt>
      <trkpt lat="42.37875" lon="18.74989">
        <ele>66.773365</ele>
        <time>2022-05-29T09:34:19.769Z</time>
      </trkpt>
      <trkpt lat="42.37888" lon="18.74979">
        <ele>66.347686</ele>
        <time>2022-05-29T09:34:21.738Z</time>
      </trkpt>
      <trkpt lat="42.37902" lon="18.74969">
        <ele>65.90188</ele>
        <time>2022-05-29T09:34:23.764Z</time>
      </trkpt>
      <trkpt lat="42.37915" lon="18.74958">
        <ele>65.463785</ele>
        <time>2022-05-29T09:34:25.766Z</time>
      </trkpt>
      <trkpt lat="42.37928" lon="18.74948">
        <ele>65.026767</ele>
        <time>2022-05-29T09:34:27.749Z</time>
      </trkpt>
      <trkpt lat="42.37942" lon="18.74936">
        <ele>64.576118</ele>
        <time>2022-05-29T09:34:29.747Z</time>
      </trkpt>
      <trkpt lat="42.37955" lon="18.74925">
        <ele>64.310858</ele>
        <time>2022-05-29T09:34:31.726Z</time>
      </trkpt>
      <trkpt lat="42.37969" lon="18.74915">
        <ele>64.180913</ele>
        <time>2022-05-29T09:34:33.728Z</time>
      </trkpt>
      <trkpt lat="42.37982" lon="18.74904">
        <ele>64.05036</ele>
        <time>2022-05-29T09:34:35.748Z</time>
      </trkpt>
      <trkpt lat="42.37996" lon="18.74894">
        <ele>63.918237</ele>
        <time>2022-05-29T09:34:37.730Z</time>
      </trkpt>
      <trkpt lat="42.3801" lon="18.74884">
        <ele>63.785385</ele>
        <time>2022-05-29T09:34:39.766Z</time>
      </trkpt>
      <trkpt lat="42.38024" lon="18.74872">
        <ele>63.647637</ele>
        <time>2022-05-29T09:34:41.745Z</time>
      </trkpt>
      <trkpt lat="42.38038" lon="18.74861">
        <ele>63.514096</ele>
        <time>2022-05-29T09:34:43.750Z</time>
      </trkpt>
      <trkpt lat="42.38052" lon="18.7485">
        <ele>63.380744</ele>
        <time>2022-05-29T09:34:45.747Z</time>
      </trkpt>
      <trkpt lat="42.38065" lon="18.74838">
        <ele>63.247392</ele>
        <time>2022-05-29T09:34:47.755Z</time>
      </trkpt>
      <trkpt lat="42.38078" lon="18.74826">
        <ele>63.118899</ele>
        <time>2022-05-29T09:34:49.737Z</time>
      </trkpt>
      <trkpt lat="42.38091" lon="18.74814">
        <ele>62.987304</ele>
        <time>2022-05-29T09:34:51.762Z</time>
      </trkpt>
      <trkpt lat="42.38105" lon="18.74803">
        <ele>62.861344</ele>
        <time>2022-05-29T09:34:53.753Z</time>
      </trkpt>
      <trkpt lat="42.38118" lon="18.74791">
        <ele>62.757058</ele>
        <time>2022-05-29T09:34:55.755Z</time>
      </trkpt>
      <trkpt lat="42.38132" lon="18.7478">
        <ele>62.655258</ele>
        <time>2022-05-29T09:34:57.739Z</time>
      </trkpt>
      <trkpt lat="42.38144" lon="18.74769">
        <ele>62.556487</ele>
        <time>2022-05-29T09:34:59.758Z</time>
      </trkpt>
      <trkpt lat="42.38157" lon="18.74758">
        <ele>62.456378</ele>
        <time>2022-05-29T09:35:01.746Z</time>
      </trkpt>
      <trkpt lat="42.38169" lon="18.74747">
        <ele>62.358996</ele>
        <time>2022-05-29T09:35:03.746Z</time>
      </trkpt>
      <trkpt lat="42.38182" lon="18.74735">
        <ele>62.262156</ele>
        <time>2022-05-29T09:35:05.736Z</time>
      </trkpt>
      <trkpt lat="42.38194" lon="18.74724">
        <ele>62.164227</ele>
        <time>2022-05-29T09:35:07.743Z</time>
      </trkpt>
      <trkpt lat="42.38207" lon="18.74712">
        <ele>62.062777</ele>
        <time>2022-05-29T09:35:09.743Z</time>
      </trkpt>
      <trkpt lat="42.3822" lon="18.747">
        <ele>61.960512</ele>
        <time>2022-05-29T09:35:11.739Z</time>
      </trkpt>
      <trkpt lat="42.38232" lon="18.74688">
        <ele>61.857975</ele>
        <time>2022-05-29T09:35:13.739Z</time>
      </trkpt>
      <trkpt lat="42.38245" lon="18.74676">
        <ele>61.755168</ele>
        <time>2022-05-29T09:35:15.751Z</time>
      </trkpt>
      <trkpt lat="42.38258" lon="18.74664">
        <ele>61.560584</ele>
        <time>2022-05-29T09:35:17.752Z</time>
      </trkpt>
      <trkpt lat="42.3827" lon="18.74652">
        <ele>61.298751</ele>
        <time>2022-05-29T09:35:19.746Z</time>
      </trkpt>
      <trkpt lat="42.38283" lon="18.7464">
        <ele>61.032516</ele>
        <time>2022-05-29T09:35:21.729Z</time>
      </trkpt>
      <trkpt lat="42.38295" lon="18.74628">
        <ele>60.771331</ele>
        <time>2022-05-29T09:35:23.750Z</time>
      </trkpt>
      <trkpt lat="42.38308" lon="18.74615">
        <ele>60.495215</ele>
        <time>2022-05-29T09:35:25.768Z</time>
      </trkpt>
      <trkpt lat="42.38321" lon="18.74602">
        <ele>60.221779</ele>
        <time>2022-05-29T09:35:27.754Z</time>
      </trkpt>
      <trkpt lat="42.38333" lon="18.74589">
        <ele>59.952482</ele>
        <time>2022-05-29T09:35:29.750Z</time>
      </trkpt>
      <trkpt lat="42.38345" lon="18.74577">
        <ele>59.688395</ele>
        <time>2022-05-29T09:35:31.734Z</time>
      </trkpt>
      <trkpt lat="42.38359" lon="18.74566">
        <ele>59.419359</ele>
        <time>2022-05-29T09:35:33.727Z</time>
      </trkpt>
      <trkpt lat="42.38372" lon="18.74555">
        <ele>59.148858</ele>
        <time>2022-05-29T09:35:35.771Z</time>
      </trkpt>
      <trkpt lat="42.38385" lon="18.74542">
        <ele>58.876939</ele>
        <time>2022-05-29T09:35:37.758Z</time>
      </trkpt>
      <trkpt lat="42.38397" lon="18.74529">
        <ele>58.60472</ele>
        <time>2022-05-29T09:35:39.751Z</time>
      </trkpt>
      <trkpt lat="42.38409" lon="18.74516">
        <ele>58.342698</ele>
        <time>2022-05-29T09:35:41.739Z</time>
      </trkpt>
      <trkpt lat="42.38422" lon="18.74503">
        <ele>58.072926</ele>
        <time>2022-05-29T09:35:43.755Z</time>
      </trkpt>
      <trkpt lat="42.38435" lon="18.74489">
        <ele>57.800309</ele>
        <time>2022-05-29T09:35:45.745Z</time>
      </trkpt>
      <trkpt lat="42.38448" lon="18.74475">
        <ele>57.52383</ele>
        <time>2022-05-29T09:35:47.743Z</time>
      </trkpt>
      <trkpt lat="42.3846" lon="18.7446">
        <ele>57.244343</ele>
        <time>2022-05-29T09:35:49.733Z</time>
      </trkpt>
      <trkpt lat="42.38473" lon="18.74445">
        <ele>56.965303</ele>
        <time>2022-05-29T09:35:51.763Z</time>
      </trkpt>
      <trkpt lat="42.38485" lon="18.74432">
        <ele>56.696085</ele>
        <time>2022-05-29T09:35:53.729Z</time>
      </trkpt>
      <trkpt lat="42.38498" lon="18.74419">
        <ele>56.426035</ele>
        <time>2022-05-29T09:35:55.759Z</time>
      </trkpt>
      <trkpt lat="42.38511" lon="18.74406">
        <ele>56.167994</ele>
        <time>2022-05-29T09:35:57.734Z</time>
      </trkpt>
      <trkpt lat="42.38523" lon="18.74393">
        <ele>55.906861</ele>
        <time>2022-05-29T09:35:59.810Z</time>
      </trkpt>
      <trkpt lat="42.38535" lon="18.74379">
        <ele>55.63841</ele>
        <time>2022-05-29T09:36:01.752Z</time>
      </trkpt>
      <trkpt lat="42.38548" lon="18.74366">
        <ele>55.292716</ele>
        <time>2022-05-29T09:36:03.747Z</time>
      </trkpt>
      <trkpt lat="42.38561" lon="18.74353">
        <ele>54.928905</ele>
        <time>2022-05-29T09:36:05.757Z</time>
      </trkpt>
      <trkpt lat="42.38574" lon="18.7434">
        <ele>54.570787</ele>
        <time>2022-05-29T09:36:07.743Z</time>
      </trkpt>
      <trkpt lat="42.38587" lon="18.74327">
        <ele>54.221734</ele>
        <time>2022-05-29T09:36:09.734Z</time>
      </trkpt>
      <trkpt lat="42.386" lon="18.74315">
        <ele>53.871171</ele>
        <time>2022-05-29T09:36:11.751Z</time>
      </trkpt>
      <trkpt lat="42.38613" lon="18.74302">
        <ele>53.523364</ele>
        <time>2022-05-29T09:36:13.730Z</time>
      </trkpt>
      <trkpt lat="42.38625" lon="18.7429">
        <ele>53.178201</ele>
        <time>2022-05-29T09:36:15.735Z</time>
      </trkpt>
      <trkpt lat="42.38638" lon="18.74277">
        <ele>52.832073</ele>
        <time>2022-05-29T09:36:17.732Z</time>
      </trkpt>
      <trkpt lat="42.3865" lon="18.74265">
        <ele>52.485776</ele>
        <time>2022-05-29T09:36:19.757Z</time>
      </trkpt>
      <trkpt lat="42.38663" lon="18.74252">
        <ele>52.13397</ele>
        <time>2022-05-29T09:36:21.794Z</time>
      </trkpt>
      <trkpt lat="42.38676" lon="18.74239">
        <ele>51.781504</ele>
        <time>2022-05-29T09:36:23.734Z</time>
      </trkpt>
      <trkpt lat="42.38688" lon="18.74227">
        <ele>51.612258</ele>
        <time>2022-05-29T09:36:25.736Z</time>
      </trkpt>
      <trkpt lat="42.38701" lon="18.74215">
        <ele>51.626573</ele>
        <time>2022-05-29T09:36:27.734Z</time>
      </trkpt>
      <trkpt lat="42.38714" lon="18.74202">
        <ele>51.641621</ele>
        <time>2022-05-29T09:36:29.747Z</time>
      </trkpt>
      <trkpt lat="42.38727" lon="18.74189">
        <ele>51.657093</ele>
        <time>2022-05-29T09:36:31.745Z</time>
      </trkpt>
      <trkpt lat="42.3874" lon="18.74177">
        <ele>51.671986</ele>
        <time>2022-05-29T09:36:33.742Z</time>
      </trkpt>
      <trkpt lat="42.38753" lon="18.74165">
        <ele>51.686878</ele>
        <time>2022-05-29T09:36:35.748Z</time>
      </trkpt>
      <trkpt lat="42.38766" lon="18.74153">
        <ele>51.701305</ele>
        <time>2022-05-29T09:36:37.718Z</time>
      </trkpt>
      <trkpt lat="42.38778" lon="18.74141">
        <ele>51.715306</ele>
        <time>2022-05-29T09:36:39.728Z</time>
      </trkpt>
      <trkpt lat="42.3879" lon="18.7413">
        <ele>51.729071</ele>
        <time>2022-05-29T09:36:41.755Z</time>
      </trkpt>
      <trkpt lat="42.38802" lon="18.74119">
        <ele>51.742604</ele>
        <time>2022-05-29T09:36:43.765Z</time>
      </trkpt>
      <trkpt lat="42.38814" lon="18.74108">
        <ele>51.755788</ele>
        <time>2022-05-29T09:36:45.751Z</time>
      </trkpt>
      <trkpt lat="42.38825" lon="18.74097">
        <ele>51.768625</ele>
        <time>2022-05-29T09:36:47.741Z</time>
      </trkpt>
      <trkpt lat="42.38836" lon="18.74088">
        <ele>51.723173</ele>
        <time>2022-05-29T09:36:49.745Z</time>
      </trkpt>
      <trkpt lat="42.38846" lon="18.74079">
        <ele>51.640384</ele>
        <time>2022-05-29T09:36:51.754Z</time>
      </trkpt>
      <trkpt lat="42.38856" lon="18.7407">
        <ele>51.555878</ele>
        <time>2022-05-29T09:36:53.737Z</time>
      </trkpt>
      <trkpt lat="42.38865" lon="18.74061">
        <ele>51.474572</ele>
        <time>2022-05-29T09:36:55.734Z</time>
      </trkpt>
      <trkpt lat="42.38875" lon="18.74052">
        <ele>51.389099</ele>
        <time>2022-05-29T09:36:57.755Z</time>
      </trkpt>
      <trkpt lat="42.38884" lon="18.74043">
        <ele>51.306054</ele>
        <time>2022-05-29T09:36:59.760Z</time>
      </trkpt>
      <trkpt lat="42.38894" lon="18.74033">
        <ele>51.222131</ele>
        <time>2022-05-29T09:37:01.737Z</time>
      </trkpt>
      <trkpt lat="42.38905" lon="18.74025">
        <ele>51.134645</ele>
        <time>2022-05-29T09:37:03.746Z</time>
      </trkpt>
      <trkpt lat="42.38914" lon="18.74016">
        <ele>51.055982</ele>
        <time>2022-05-29T09:37:05.753Z</time>
      </trkpt>
      <trkpt lat="42.38923" lon="18.74008">
        <ele>50.975276</ele>
        <time>2022-05-29T09:37:07.733Z</time>
      </trkpt>
      <trkpt lat="42.38932" lon="18.74">
        <ele>50.901243</ele>
        <time>2022-05-29T09:37:09.739Z</time>
      </trkpt>
      <trkpt lat="42.38941" lon="18.73993">
        <ele>50.827329</ele>
        <time>2022-05-29T09:37:11.770Z</time>
      </trkpt>
      <trkpt lat="42.38951" lon="18.73985">
        <ele>50.750987</ele>
        <time>2022-05-29T09:37:13.750Z</time>
      </trkpt>
      <trkpt lat="42.38959" lon="18.73978">
        <ele>50.680179</ele>
        <time>2022-05-29T09:37:15.735Z</time>
      </trkpt>
      <trkpt lat="42.38968" lon="18.73971">
        <ele>50.608771</ele>
        <time>2022-05-29T09:37:17.722Z</time>
      </trkpt>
      <trkpt lat="42.38976" lon="18.73964">
        <ele>50.540588</ele>
        <time>2022-05-29T09:37:19.732Z</time>
      </trkpt>
      <trkpt lat="42.38984" lon="18.73957">
        <ele>50.501813</ele>
        <time>2022-05-29T09:37:21.729Z</time>
      </trkpt>
      <trkpt lat="42.38992" lon="18.73951">
        <ele>50.498241</ele>
        <time>2022-05-29T09:37:23.731Z</time>
      </trkpt>
      <trkpt lat="42.39" lon="18.73943">
        <ele>50.494464</ele>
        <time>2022-05-29T09:37:25.748Z</time>
      </trkpt>
      <trkpt lat="42.39009" lon="18.73936">
        <ele>50.490606</ele>
        <time>2022-05-29T09:37:27.750Z</time>
      </trkpt>
      <trkpt lat="42.39018" lon="18.73928">
        <ele>50.486573</ele>
        <time>2022-05-29T09:37:29.743Z</time>
      </trkpt>
      <trkpt lat="42.39027" lon="18.73921">
        <ele>50.4826</ele>
        <time>2022-05-29T09:37:31.761Z</time>
      </trkpt>
      <trkpt lat="42.39036" lon="18.73913">
        <ele>50.47844</ele>
        <time>2022-05-29T09:37:33.761Z</time>
      </trkpt>
      <trkpt lat="42.39045" lon="18.73906">
        <ele>50.474232</ele>
        <time>2022-05-29T09:37:35.835Z</time>
      </trkpt>
      <trkpt lat="42.39054" lon="18.73898">
        <ele>50.470057</ele>
        <time>2022-05-29T09:37:37.747Z</time>
      </trkpt>
      <trkpt lat="42.39063" lon="18.7389">
        <ele>50.466025</ele>
        <time>2022-05-29T09:37:39.753Z</time>
      </trkpt>
      <trkpt lat="42.39071" lon="18.73883">
        <ele>50.462423</ele>
        <time>2022-05-29T09:37:41.735Z</time>
      </trkpt>
      <trkpt lat="42.3908" lon="18.73876">
        <ele>50.45853</ele>
        <time>2022-05-29T09:37:43.772Z</time>
      </trkpt>
      <trkpt lat="42.39088" lon="18.73868">
        <ele>50.454467</ele>
        <time>2022-05-29T09:37:45.747Z</time>
      </trkpt>
      <trkpt lat="42.39097" lon="18.73859">
        <ele>50.450403</ele>
        <time>2022-05-29T09:37:47.741Z</time>
      </trkpt>
      <trkpt lat="42.39106" lon="18.73851">
        <ele>50.446403</ele>
        <time>2022-05-29T09:37:49.736Z</time>
      </trkpt>
      <trkpt lat="42.39114" lon="18.73843">
        <ele>50.44241</ele>
        <time>2022-05-29T09:37:51.748Z</time>
      </trkpt>
      <trkpt lat="42.39122" lon="18.73833">
        <ele>50.438281</ele>
        <time>2022-05-29T09:37:53.751Z</time>
      </trkpt>
      <trkpt lat="42.3913" lon="18.73825">
        <ele>50.437216</ele>
        <time>2022-05-29T09:37:55.801Z</time>
      </trkpt>
      <trkpt lat="42.39138" lon="18.73816">
        <ele>50.489372</ele>
        <time>2022-05-29T09:37:57.744Z</time>
      </trkpt>
      <trkpt lat="42.39146" lon="18.73808">
        <ele>50.540076</ele>
        <time>2022-05-29T09:37:59.774Z</time>
      </trkpt>
      <trkpt lat="42.39155" lon="18.738">
        <ele>50.59501</ele>
        <time>2022-05-29T09:38:01.743Z</time>
      </trkpt>
      <trkpt lat="42.39165" lon="18.73796">
        <ele>50.649612</ele>
        <time>2022-05-29T09:38:03.757Z</time>
      </trkpt>
      <trkpt lat="42.39176" lon="18.73796">
        <ele>50.706797</ele>
        <time>2022-05-29T09:38:05.753Z</time>
      </trkpt>
      <trkpt lat="42.39186" lon="18.73797">
        <ele>50.757889</ele>
        <time>2022-05-29T09:38:07.807Z</time>
      </trkpt>
      <trkpt lat="42.39196" lon="18.73794">
        <ele>50.808322</ele>
        <time>2022-05-29T09:38:09.739Z</time>
      </trkpt>
      <trkpt lat="42.39203" lon="18.73784">
        <ele>50.861651</ele>
        <time>2022-05-29T09:38:11.737Z</time>
      </trkpt>
      <trkpt lat="42.39208" lon="18.73773">
        <ele>50.912825</ele>
        <time>2022-05-29T09:38:13.761Z</time>
      </trkpt>
      <trkpt lat="42.39215" lon="18.73763">
        <ele>50.964971</ele>
        <time>2022-05-29T09:38:15.755Z</time>
      </trkpt>
      <trkpt lat="42.39224" lon="18.73755">
        <ele>51.021074</ele>
        <time>2022-05-29T09:38:17.731Z</time>
      </trkpt>
      <trkpt lat="42.39234" lon="18.73749">
        <ele>51.073386</ele>
        <time>2022-05-29T09:38:19.760Z</time>
      </trkpt>
      <trkpt lat="42.39243" lon="18.73745">
        <ele>51.125976</ele>
        <time>2022-05-29T09:38:21.789Z</time>
      </trkpt>
      <trkpt lat="42.39252" lon="18.73739">
        <ele>51.174812</ele>
        <time>2022-05-29T09:38:23.735Z</time>
      </trkpt>
      <trkpt lat="42.39261" lon="18.73734">
        <ele>51.226981</ele>
        <time>2022-05-29T09:38:25.748Z</time>
      </trkpt>
      <trkpt lat="42.3927" lon="18.73728">
        <ele>51.280441</ele>
        <time>2022-05-29T09:38:27.727Z</time>
      </trkpt>
      <trkpt lat="42.3928" lon="18.73721">
        <ele>51.334644</ele>
        <time>2022-05-29T09:38:29.739Z</time>
      </trkpt>
      <trkpt lat="42.39289" lon="18.73715">
        <ele>51.302452</ele>
        <time>2022-05-29T09:38:31.730Z</time>
      </trkpt>
      <trkpt lat="42.39299" lon="18.73708">
        <ele>51.179095</ele>
        <time>2022-05-29T09:38:33.742Z</time>
      </trkpt>
      <trkpt lat="42.39308" lon="18.737">
        <ele>51.056443</ele>
        <time>2022-05-29T09:38:35.749Z</time>
      </trkpt>
      <trkpt lat="42.39319" lon="18.73693">
        <ele>50.927031</ele>
        <time>2022-05-29T09:38:37.751Z</time>
      </trkpt>
      <trkpt lat="42.39329" lon="18.73685">
        <ele>50.795667</ele>
        <time>2022-05-29T09:38:39.748Z</time>
      </trkpt>
      <trkpt lat="42.39339" lon="18.73678">
        <ele>50.668598</ele>
        <time>2022-05-29T09:38:41.740Z</time>
      </trkpt>
      <trkpt lat="42.39349" lon="18.7367">
        <ele>50.537015</ele>
        <time>2022-05-29T09:38:43.751Z</time>
      </trkpt>
      <trkpt lat="42.39359" lon="18.73662">
        <ele>50.409143</ele>
        <time>2022-05-29T09:38:45.737Z</time>
      </trkpt>
      <trkpt lat="42.39369" lon="18.73655">
        <ele>50.283444</ele>
        <time>2022-05-29T09:38:47.753Z</time>
      </trkpt>
      <trkpt lat="42.39379" lon="18.73647">
        <ele>50.153791</ele>
        <time>2022-05-29T09:38:49.724Z</time>
      </trkpt>
      <trkpt lat="42.3939" lon="18.73639">
        <ele>50.02301</ele>
        <time>2022-05-29T09:38:51.733Z</time>
      </trkpt>
      <trkpt lat="42.394" lon="18.73631">
        <ele>49.89651</ele>
        <time>2022-05-29T09:38:53.724Z</time>
      </trkpt>
      <trkpt lat="42.3941" lon="18.73624">
        <ele>49.768649</ele>
        <time>2022-05-29T09:38:55.743Z</time>
      </trkpt>
      <trkpt lat="42.3942" lon="18.73616">
        <ele>49.635694</ele>
        <time>2022-05-29T09:38:57.741Z</time>
      </trkpt>
      <trkpt lat="42.39431" lon="18.73608">
        <ele>49.499174</ele>
        <time>2022-05-29T09:38:59.751Z</time>
      </trkpt>
      <trkpt lat="42.39441" lon="18.736">
        <ele>49.365252</ele>
        <time>2022-05-29T09:39:01.779Z</time>
      </trkpt>
      <trkpt lat="42.39452" lon="18.73592">
        <ele>49.297137</ele>
        <time>2022-05-29T09:39:03.728Z</time>
      </trkpt>
      <trkpt lat="42.39463" lon="18.73583">
        <ele>49.226767</ele>
        <time>2022-05-29T09:39:05.757Z</time>
      </trkpt>
      <trkpt lat="42.39474" lon="18.73575">
        <ele>49.157075</ele>
        <time>2022-05-29T09:39:07.743Z</time>
      </trkpt>
      <trkpt lat="42.39485" lon="18.73566">
        <ele>49.086296</ele>
        <time>2022-05-29T09:39:09.719Z</time>
      </trkpt>
      <trkpt lat="42.39496" lon="18.73557">
        <ele>49.017282</ele>
        <time>2022-05-29T09:39:11.735Z</time>
      </trkpt>
      <trkpt lat="42.39507" lon="18.73549">
        <ele>48.950895</ele>
        <time>2022-05-29T09:39:13.744Z</time>
      </trkpt>
      <trkpt lat="42.39517" lon="18.73542">
        <ele>48.886536</ele>
        <time>2022-05-29T09:39:15.751Z</time>
      </trkpt>
      <trkpt lat="42.39527" lon="18.73534">
        <ele>48.821305</ele>
        <time>2022-05-29T09:39:17.764Z</time>
      </trkpt>
      <trkpt lat="42.39538" lon="18.73526">
        <ele>48.75289</ele>
        <time>2022-05-29T09:39:19.743Z</time>
      </trkpt>
      <trkpt lat="42.39549" lon="18.73517">
        <ele>48.684077</ele>
        <time>2022-05-29T09:39:21.759Z</time>
      </trkpt>
      <trkpt lat="42.3956" lon="18.73509">
        <ele>48.615942</ele>
        <time>2022-05-29T09:39:23.751Z</time>
      </trkpt>
      <trkpt lat="42.3957" lon="18.73501">
        <ele>48.550321</ele>
        <time>2022-05-29T09:39:25.749Z</time>
      </trkpt>
      <trkpt lat="42.39581" lon="18.73494">
        <ele>48.483453</ele>
        <time>2022-05-29T09:39:27.746Z</time>
      </trkpt>
      <trkpt lat="42.39592" lon="18.73486">
        <ele>48.41687</ele>
        <time>2022-05-29T09:39:29.742Z</time>
      </trkpt>
      <trkpt lat="42.39602" lon="18.73478">
        <ele>48.343111</ele>
        <time>2022-05-29T09:39:31.747Z</time>
      </trkpt>
      <trkpt lat="42.39612" lon="18.73469">
        <ele>48.25103</ele>
        <time>2022-05-29T09:39:33.718Z</time>
      </trkpt>
      <trkpt lat="42.39622" lon="18.73461">
        <ele>48.161597</ele>
        <time>2022-05-29T09:39:35.738Z</time>
      </trkpt>
      <trkpt lat="42.39633" lon="18.73453">
        <ele>48.069314</ele>
        <time>2022-05-29T09:39:37.721Z</time>
      </trkpt>
      <trkpt lat="42.39643" lon="18.73444">
        <ele>47.976082</ele>
        <time>2022-05-29T09:39:39.744Z</time>
      </trkpt>
      <trkpt lat="42.39653" lon="18.73436">
        <ele>47.882849</ele>
        <time>2022-05-29T09:39:41.754Z</time>
      </trkpt>
      <trkpt lat="42.39664" lon="18.73427">
        <ele>47.784502</ele>
        <time>2022-05-29T09:39:43.735Z</time>
      </trkpt>
      <trkpt lat="42.39675" lon="18.73418">
        <ele>47.685863</ele>
        <time>2022-05-29T09:39:45.763Z</time>
      </trkpt>
      <trkpt lat="42.39686" lon="18.73409">
        <ele>47.590364</ele>
        <time>2022-05-29T09:39:47.750Z</time>
      </trkpt>
      <trkpt lat="42.39696" lon="18.73401">
        <ele>47.504502</ele>
        <time>2022-05-29T09:39:49.737Z</time>
      </trkpt>
      <trkpt lat="42.39705" lon="18.73393">
        <ele>47.416677</ele>
        <time>2022-05-29T09:39:51.756Z</time>
      </trkpt>
      <trkpt lat="42.39716" lon="18.73384">
        <ele>47.321643</ele>
        <time>2022-05-29T09:39:53.765Z</time>
      </trkpt>
      <trkpt lat="42.39726" lon="18.73376">
        <ele>47.229465</ele>
        <time>2022-05-29T09:39:55.757Z</time>
      </trkpt>
      <trkpt lat="42.39736" lon="18.73367">
        <ele>47.139192</ele>
        <time>2022-05-29T09:39:57.735Z</time>
      </trkpt>
      <trkpt lat="42.39746" lon="18.73358">
        <ele>47.045666</ele>
        <time>2022-05-29T09:39:59.735Z</time>
      </trkpt>
      <trkpt lat="42.39757" lon="18.7335">
        <ele>46.971506</ele>
        <time>2022-05-29T09:40:01.745Z</time>
      </trkpt>
      <trkpt lat="42.39767" lon="18.73341">
        <ele>46.919765</ele>
        <time>2022-05-29T09:40:03.735Z</time>
      </trkpt>
      <trkpt lat="42.39777" lon="18.73333">
        <ele>46.869069</ele>
        <time>2022-05-29T09:40:05.753Z</time>
      </trkpt>
      <trkpt lat="42.39786" lon="18.73324">
        <ele>46.820503</ele>
        <time>2022-05-29T09:40:07.726Z</time>
      </trkpt>
      <trkpt lat="42.39796" lon="18.73316">
        <ele>46.77036</ele>
        <time>2022-05-29T09:40:09.752Z</time>
      </trkpt>
      <trkpt lat="42.39806" lon="18.73307">
        <ele>46.721284</ele>
        <time>2022-05-29T09:40:11.716Z</time>
      </trkpt>
      <trkpt lat="42.39815" lon="18.73299">
        <ele>46.672218</ele>
        <time>2022-05-29T09:40:13.744Z</time>
      </trkpt>
      <trkpt lat="42.39825" lon="18.7329">
        <ele>46.623508</ele>
        <time>2022-05-29T09:40:15.749Z</time>
      </trkpt>
      <trkpt lat="42.39834" lon="18.73282">
        <ele>46.575151</ele>
        <time>2022-05-29T09:40:17.732Z</time>
      </trkpt>
      <trkpt lat="42.39843" lon="18.73274">
        <ele>46.527859</ele>
        <time>2022-05-29T09:40:19.725Z</time>
      </trkpt>
      <trkpt lat="42.39852" lon="18.73266">
        <ele>46.482705</ele>
        <time>2022-05-29T09:40:21.742Z</time>
      </trkpt>
      <trkpt lat="42.39861" lon="18.73257">
        <ele>46.433625</ele>
        <time>2022-05-29T09:40:23.748Z</time>
      </trkpt>
      <trkpt lat="42.39871" lon="18.73248">
        <ele>46.383315</ele>
        <time>2022-05-29T09:40:25.739Z</time>
      </trkpt>
      <trkpt lat="42.39881" lon="18.73239">
        <ele>46.332647</ele>
        <time>2022-05-29T09:40:27.780Z</time>
      </trkpt>
      <trkpt lat="42.3989" lon="18.7323">
        <ele>46.282338</ele>
        <time>2022-05-29T09:40:29.768Z</time>
      </trkpt>
      <trkpt lat="42.39899" lon="18.73221">
        <ele>46.23414</ele>
        <time>2022-05-29T09:40:31.732Z</time>
      </trkpt>
      <trkpt lat="42.39908" lon="18.73212">
        <ele>46.236642</ele>
        <time>2022-05-29T09:40:33.738Z</time>
      </trkpt>
      <trkpt lat="42.39918" lon="18.73204">
        <ele>46.25558</ele>
        <time>2022-05-29T09:40:35.737Z</time>
      </trkpt>
      <trkpt lat="42.39927" lon="18.73195">
        <ele>46.275454</ele>
        <time>2022-05-29T09:40:37.727Z</time>
      </trkpt>
      <trkpt lat="42.39936" lon="18.73186">
        <ele>46.295278</ele>
        <time>2022-05-29T09:40:39.743Z</time>
      </trkpt>
      <trkpt lat="42.39946" lon="18.73176">
        <ele>46.31612</ele>
        <time>2022-05-29T09:40:41.768Z</time>
      </trkpt>
      <trkpt lat="42.39955" lon="18.73166">
        <ele>46.336298</ele>
        <time>2022-05-29T09:40:43.723Z</time>
      </trkpt>
      <trkpt lat="42.39964" lon="18.73157">
        <ele>46.355339</ele>
        <time>2022-05-29T09:40:45.756Z</time>
      </trkpt>
      <trkpt lat="42.39973" lon="18.73148">
        <ele>46.375794</ele>
        <time>2022-05-29T09:40:47.735Z</time>
      </trkpt>
      <trkpt lat="42.39982" lon="18.73138">
        <ele>46.395481</ele>
        <time>2022-05-29T09:40:49.750Z</time>
      </trkpt>
      <trkpt lat="42.39991" lon="18.73129">
        <ele>46.41543</ele>
        <time>2022-05-29T09:40:51.773Z</time>
      </trkpt>
      <trkpt lat="42.40001" lon="18.73119">
        <ele>46.435763</ele>
        <time>2022-05-29T09:40:53.745Z</time>
      </trkpt>
      <trkpt lat="42.4001" lon="18.7311">
        <ele>46.455295</ele>
        <time>2022-05-29T09:40:55.736Z</time>
      </trkpt>
      <trkpt lat="42.40019" lon="18.73101">
        <ele>46.476096</ele>
        <time>2022-05-29T09:40:57.754Z</time>
      </trkpt>
      <trkpt lat="42.40029" lon="18.73091">
        <ele>46.49653</ele>
        <time>2022-05-29T09:40:59.732Z</time>
      </trkpt>
      <trkpt lat="42.40038" lon="18.73081">
        <ele>46.516319</ele>
        <time>2022-05-29T09:41:01.737Z</time>
      </trkpt>
      <trkpt lat="42.40046" lon="18.73072">
        <ele>46.539381</ele>
        <time>2022-05-29T09:41:03.732Z</time>
      </trkpt>
      <trkpt lat="42.40055" lon="18.73063">
        <ele>46.600745</ele>
        <time>2022-05-29T09:41:05.774Z</time>
      </trkpt>
      <trkpt lat="42.40064" lon="18.73054">
        <ele>46.661664</ele>
        <time>2022-05-29T09:41:07.743Z</time>
      </trkpt>
      <trkpt lat="42.40072" lon="18.73045">
        <ele>46.719884</ele>
        <time>2022-05-29T09:41:09.750Z</time>
      </trkpt>
      <trkpt lat="42.4008" lon="18.73036">
        <ele>46.777668</ele>
        <time>2022-05-29T09:41:11.728Z</time>
      </trkpt>
      <trkpt lat="42.40088" lon="18.73027">
        <ele>46.834328</ele>
        <time>2022-05-29T09:41:13.764Z</time>
      </trkpt>
      <trkpt lat="42.40096" lon="18.73018">
        <ele>46.893061</ele>
        <time>2022-05-29T09:41:15.749Z</time>
      </trkpt>
      <trkpt lat="42.40104" lon="18.73009">
        <ele>46.952745</ele>
        <time>2022-05-29T09:41:17.739Z</time>
      </trkpt>
      <trkpt lat="42.40113" lon="18.73">
        <ele>47.01122</ele>
        <time>2022-05-29T09:41:19.745Z</time>
      </trkpt>
      <trkpt lat="42.40121" lon="18.72991">
        <ele>47.069696</ele>
        <time>2022-05-29T09:41:21.746Z</time>
      </trkpt>
      <trkpt lat="42.40129" lon="18.72983">
        <ele>47.128352</ele>
        <time>2022-05-29T09:41:23.755Z</time>
      </trkpt>
      <trkpt lat="42.40137" lon="18.72973">
        <ele>47.185075</ele>
        <time>2022-05-29T09:41:25.741Z</time>
      </trkpt>
      <trkpt lat="42.40144" lon="18.72964">
        <ele>47.24042</ele>
        <time>2022-05-29T09:41:27.737Z</time>
      </trkpt>
      <trkpt lat="42.40152" lon="18.72955">
        <ele>47.296455</ele>
        <time>2022-05-29T09:41:29.755Z</time>
      </trkpt>
      <trkpt lat="42.40159" lon="18.72947">
        <ele>47.348888</ele>
        <time>2022-05-29T09:41:31.752Z</time>
      </trkpt>
      <trkpt lat="42.40166" lon="18.72939">
        <ele>47.402999</ele>
        <time>2022-05-29T09:41:33.733Z</time>
      </trkpt>
      <trkpt lat="42.40174" lon="18.7293">
        <ele>47.45642</ele>
        <time>2022-05-29T09:41:35.752Z</time>
      </trkpt>
      <trkpt lat="42.40181" lon="18.72922">
        <ele>47.509725</ele>
        <time>2022-05-29T09:41:37.729Z</time>
      </trkpt>
      <trkpt lat="42.40188" lon="18.72913">
        <ele>47.576188</ele>
        <time>2022-05-29T09:41:39.757Z</time>
      </trkpt>
      <trkpt lat="42.40196" lon="18.72904">
        <ele>47.660281</ele>
        <time>2022-05-29T09:41:41.772Z</time>
      </trkpt>
      <trkpt lat="42.40204" lon="18.72895">
        <ele>47.741749</ele>
        <time>2022-05-29T09:41:43.735Z</time>
      </trkpt>
      <trkpt lat="42.40211" lon="18.72886">
        <ele>47.819386</ele>
        <time>2022-05-29T09:41:45.738Z</time>
      </trkpt>
      <trkpt lat="42.40218" lon="18.72878">
        <ele>47.900242</ele>
        <time>2022-05-29T09:41:47.754Z</time>
      </trkpt>
      <trkpt lat="42.40225" lon="18.7287">
        <ele>47.975131</ele>
        <time>2022-05-29T09:41:49.743Z</time>
      </trkpt>
      <trkpt lat="42.40233" lon="18.72861">
        <ele>48.055379</ele>
        <time>2022-05-29T09:41:51.766Z</time>
      </trkpt>
      <trkpt lat="42.4024" lon="18.72851">
        <ele>48.139435</ele>
        <time>2022-05-29T09:41:53.790Z</time>
      </trkpt>
      <trkpt lat="42.40248" lon="18.72842">
        <ele>48.22113</ele>
        <time>2022-05-29T09:41:55.748Z</time>
      </trkpt>
      <trkpt lat="42.40255" lon="18.72834">
        <ele>48.299422</ele>
        <time>2022-05-29T09:41:57.733Z</time>
      </trkpt>
      <trkpt lat="42.40262" lon="18.72826">
        <ele>48.374252</ele>
        <time>2022-05-29T09:41:59.747Z</time>
      </trkpt>
      <trkpt lat="42.40269" lon="18.72817">
        <ele>48.450303</ele>
        <time>2022-05-29T09:42:01.732Z</time>
      </trkpt>
      <trkpt lat="42.40277" lon="18.72809">
        <ele>48.527142</ele>
        <time>2022-05-29T09:42:03.754Z</time>
      </trkpt>
      <trkpt lat="42.40284" lon="18.728">
        <ele>48.605988</ele>
        <time>2022-05-29T09:42:05.734Z</time>
      </trkpt>
      <trkpt lat="42.40291" lon="18.72792">
        <ele>48.682221</ele>
        <time>2022-05-29T09:42:07.756Z</time>
      </trkpt>
      <trkpt lat="42.40298" lon="18.72784">
        <ele>48.755483</ele>
        <time>2022-05-29T09:42:09.783Z</time>
      </trkpt>
      <trkpt lat="42.40305" lon="18.72775">
        <ele>48.833544</ele>
        <time>2022-05-29T09:42:11.737Z</time>
      </trkpt>
      <trkpt lat="42.40313" lon="18.72766">
        <ele>48.923442</ele>
        <time>2022-05-29T09:42:13.734Z</time>
      </trkpt>
      <trkpt lat="42.40321" lon="18.72756">
        <ele>49.003978</ele>
        <time>2022-05-29T09:42:15.726Z</time>
      </trkpt>
      <trkpt lat="42.40328" lon="18.72748">
        <ele>49.062317</ele>
        <time>2022-05-29T09:42:17.748Z</time>
      </trkpt>
      <trkpt lat="42.40335" lon="18.7274">
        <ele>49.11972</ele>
        <time>2022-05-29T09:42:19.747Z</time>
      </trkpt>
      <trkpt lat="42.40343" lon="18.72731">
        <ele>49.180203</ele>
        <time>2022-05-29T09:42:21.755Z</time>
      </trkpt>
      <trkpt lat="42.4035" lon="18.72722">
        <ele>49.241155</ele>
        <time>2022-05-29T09:42:23.738Z</time>
      </trkpt>
      <trkpt lat="42.40357" lon="18.72714">
        <ele>49.300265</ele>
        <time>2022-05-29T09:42:25.759Z</time>
      </trkpt>
      <trkpt lat="42.40364" lon="18.72705">
        <ele>49.360589</ele>
        <time>2022-05-29T09:42:27.746Z</time>
      </trkpt>
      <trkpt lat="42.40371" lon="18.72697">
        <ele>49.418459</ele>
        <time>2022-05-29T09:42:29.770Z</time>
      </trkpt>
      <trkpt lat="42.40378" lon="18.72689">
        <ele>49.47448</ele>
        <time>2022-05-29T09:42:31.753Z</time>
      </trkpt>
      <trkpt lat="42.40385" lon="18.7268">
        <ele>49.530958</ele>
        <time>2022-05-29T09:42:33.744Z</time>
      </trkpt>
      <trkpt lat="42.40392" lon="18.72672">
        <ele>49.590671</ele>
        <time>2022-05-29T09:42:35.728Z</time>
      </trkpt>
      <trkpt lat="42.404" lon="18.72662">
        <ele>49.65454</ele>
        <time>2022-05-29T09:42:37.791Z</time>
      </trkpt>
      <trkpt lat="42.40407" lon="18.72654">
        <ele>49.712712</ele>
        <time>2022-05-29T09:42:39.748Z</time>
      </trkpt>
      <trkpt lat="42.40414" lon="18.72645">
        <ele>49.774883</ele>
        <time>2022-05-29T09:42:41.738Z</time>
      </trkpt>
      <trkpt lat="42.40421" lon="18.72637">
        <ele>49.833523</ele>
        <time>2022-05-29T09:42:43.740Z</time>
      </trkpt>
      <trkpt lat="42.40429" lon="18.72628">
        <ele>49.89734</ele>
        <time>2022-05-29T09:42:45.736Z</time>
      </trkpt>
      <trkpt lat="42.40437" lon="18.72619">
        <ele>49.959236</ele>
        <time>2022-05-29T09:42:47.730Z</time>
      </trkpt>
      <trkpt lat="42.40444" lon="18.7261">
        <ele>50.020489</ele>
        <time>2022-05-29T09:42:49.766Z</time>
      </trkpt>
      <trkpt lat="42.40451" lon="18.72602">
        <ele>50.080252</ele>
        <time>2022-05-29T09:42:51.737Z</time>
      </trkpt>
      <trkpt lat="42.40459" lon="18.72594">
        <ele>50.072626</ele>
        <time>2022-05-29T09:42:53.754Z</time>
      </trkpt>
      <trkpt lat="42.40466" lon="18.72585">
        <ele>49.985217</ele>
        <time>2022-05-29T09:42:55.752Z</time>
      </trkpt>
      <trkpt lat="42.40474" lon="18.72576">
        <ele>49.901445</ele>
        <time>2022-05-29T09:42:57.746Z</time>
      </trkpt>
      <trkpt lat="42.40481" lon="18.72567">
        <ele>49.815974</ele>
        <time>2022-05-29T09:42:59.758Z</time>
      </trkpt>
      <trkpt lat="42.40488" lon="18.72558">
        <ele>49.73071</ele>
        <time>2022-05-29T09:43:01.744Z</time>
      </trkpt>
      <trkpt lat="42.40496" lon="18.72549">
        <ele>49.641806</ele>
        <time>2022-05-29T09:43:03.755Z</time>
      </trkpt>
      <trkpt lat="42.40504" lon="18.7254">
        <ele>49.555469</ele>
        <time>2022-05-29T09:43:05.749Z</time>
      </trkpt>
      <trkpt lat="42.40511" lon="18.72531">
        <ele>49.465675</ele>
        <time>2022-05-29T09:43:07.750Z</time>
      </trkpt>
      <trkpt lat="42.40519" lon="18.72523">
        <ele>49.382485</ele>
        <time>2022-05-29T09:43:09.734Z</time>
      </trkpt>
      <trkpt lat="42.40526" lon="18.72514">
        <ele>49.295495</ele>
        <time>2022-05-29T09:43:11.731Z</time>
      </trkpt>
      <trkpt lat="42.40534" lon="18.72505">
        <ele>49.207599</ele>
        <time>2022-05-29T09:43:13.743Z</time>
      </trkpt>
      <trkpt lat="42.40542" lon="18.72496">
        <ele>49.118628</ele>
        <time>2022-05-29T09:43:15.748Z</time>
      </trkpt>
      <trkpt lat="42.4055" lon="18.72487">
        <ele>49.029515</ele>
        <time>2022-05-29T09:43:17.735Z</time>
      </trkpt>
      <trkpt lat="42.40557" lon="18.72477">
        <ele>48.942741</ele>
        <time>2022-05-29T09:43:19.730Z</time>
      </trkpt>
      <trkpt lat="42.40565" lon="18.72468">
        <ele>48.852948</ele>
        <time>2022-05-29T09:43:21.750Z</time>
      </trkpt>
      <trkpt lat="42.40573" lon="18.72459">
        <ele>48.762122</ele>
        <time>2022-05-29T09:43:23.752Z</time>
      </trkpt>
      <trkpt lat="42.40581" lon="18.7245">
        <ele>48.672987</ele>
        <time>2022-05-29T09:43:25.750Z</time>
      </trkpt>
      <trkpt lat="42.40589" lon="18.7244">
        <ele>48.579557</ele>
        <time>2022-05-29T09:43:27.754Z</time>
      </trkpt>
      <trkpt lat="42.40597" lon="18.72431">
        <ele>48.56079</ele>
        <time>2022-05-29T09:43:29.746Z</time>
      </trkpt>
      <trkpt lat="42.40606" lon="18.72421">
        <ele>48.56949</ele>
        <time>2022-05-29T09:43:31.743Z</time>
      </trkpt>
      <trkpt lat="42.40614" lon="18.72411">
        <ele>48.57813</ele>
        <time>2022-05-29T09:43:33.730Z</time>
      </trkpt>
      <trkpt lat="42.40623" lon="18.72401">
        <ele>48.586868</ele>
        <time>2022-05-29T09:43:35.752Z</time>
      </trkpt>
      <trkpt lat="42.40631" lon="18.72391">
        <ele>48.595702</ele>
        <time>2022-05-29T09:43:37.751Z</time>
      </trkpt>
      <trkpt lat="42.4064" lon="18.72382">
        <ele>48.604061</ele>
        <time>2022-05-29T09:43:39.734Z</time>
      </trkpt>
      <trkpt lat="42.40648" lon="18.72373">
        <ele>48.612203</ele>
        <time>2022-05-29T09:43:41.754Z</time>
      </trkpt>
      <trkpt lat="42.40655" lon="18.72364">
        <ele>48.620212</ele>
        <time>2022-05-29T09:43:43.753Z</time>
      </trkpt>
      <trkpt lat="42.40663" lon="18.72355">
        <ele>48.628257</ele>
        <time>2022-05-29T09:43:45.739Z</time>
      </trkpt>
      <trkpt lat="42.40671" lon="18.72346">
        <ele>48.636423</ele>
        <time>2022-05-29T09:43:47.756Z</time>
      </trkpt>
      <trkpt lat="42.4068" lon="18.72337">
        <ele>48.644662</ele>
        <time>2022-05-29T09:43:49.735Z</time>
      </trkpt>
      <trkpt lat="42.40688" lon="18.72328">
        <ele>48.652827</ele>
        <time>2022-05-29T09:43:51.732Z</time>
      </trkpt>
      <trkpt lat="42.40696" lon="18.72319">
        <ele>48.661247</ele>
        <time>2022-05-29T09:43:53.747Z</time>
      </trkpt>
      <trkpt lat="42.40704" lon="18.72309">
        <ele>48.669679</ele>
        <time>2022-05-29T09:43:55.736Z</time>
      </trkpt>
      <trkpt lat="42.40713" lon="18.723">
        <ele>48.678353</ele>
        <time>2022-05-29T09:43:57.743Z</time>
      </trkpt>
      <trkpt lat="42.40722" lon="18.72291">
        <ele>48.68692</ele>
        <time>2022-05-29T09:43:59.718Z</time>
      </trkpt>
      <trkpt lat="42.4073" lon="18.72282">
        <ele>48.690527</ele>
        <time>2022-05-29T09:44:01.770Z</time>
      </trkpt>
      <trkpt lat="42.40739" lon="18.72274">
        <ele>48.626063</ele>
        <time>2022-05-29T09:44:03.776Z</time>
      </trkpt>
      <trkpt lat="42.40748" lon="18.72265">
        <ele>48.559051</ele>
        <time>2022-05-29T09:44:05.763Z</time>
      </trkpt>
      <trkpt lat="42.40757" lon="18.72256">
        <ele>48.490252</ele>
        <time>2022-05-29T09:44:07.743Z</time>
      </trkpt>
      <trkpt lat="42.40766" lon="18.72248">
        <ele>48.423241</ele>
        <time>2022-05-29T09:44:09.763Z</time>
      </trkpt>
      <trkpt lat="42.40775" lon="18.72239">
        <ele>48.35573</ele>
        <time>2022-05-29T09:44:11.739Z</time>
      </trkpt>
      <trkpt lat="42.40783" lon="18.72231">
        <ele>48.291276</ele>
        <time>2022-05-29T09:44:13.733Z</time>
      </trkpt>
      <trkpt lat="42.40792" lon="18.72223">
        <ele>48.226061</ele>
        <time>2022-05-29T09:44:15.737Z</time>
      </trkpt>
      <trkpt lat="42.40801" lon="18.72215">
        <ele>48.159317</ele>
        <time>2022-05-29T09:44:17.752Z</time>
      </trkpt>
      <trkpt lat="42.4081" lon="18.72207">
        <ele>48.095615</ele>
        <time>2022-05-29T09:44:19.731Z</time>
      </trkpt>
      <trkpt lat="42.40818" lon="18.72199">
        <ele>48.030906</ele>
        <time>2022-05-29T09:44:21.756Z</time>
      </trkpt>
      <trkpt lat="42.40827" lon="18.72191">
        <ele>47.966445</ele>
        <time>2022-05-29T09:44:23.746Z</time>
      </trkpt>
      <trkpt lat="42.40836" lon="18.72183">
        <ele>47.904275</ele>
        <time>2022-05-29T09:44:25.741Z</time>
      </trkpt>
      <trkpt lat="42.40844" lon="18.72175">
        <ele>47.842596</ele>
        <time>2022-05-29T09:44:27.750Z</time>
      </trkpt>
      <trkpt lat="42.40853" lon="18.72168">
        <ele>47.777589</ele>
        <time>2022-05-29T09:44:29.742Z</time>
      </trkpt>
      <trkpt lat="42.40862" lon="18.7216">
        <ele>47.712061</ele>
        <time>2022-05-29T09:44:31.740Z</time>
      </trkpt>
      <trkpt lat="42.40871" lon="18.72152">
        <ele>47.644557</ele>
        <time>2022-05-29T09:44:33.733Z</time>
      </trkpt>
      <trkpt lat="42.4088" lon="18.72144">
        <ele>47.582674</ele>
        <time>2022-05-29T09:44:35.764Z</time>
      </trkpt>
      <trkpt lat="42.40888" lon="18.72137">
        <ele>47.535729</ele>
        <time>2022-05-29T09:44:37.766Z</time>
      </trkpt>
      <trkpt lat="42.40897" lon="18.72129">
        <ele>47.487028</ele>
        <time>2022-05-29T09:44:39.738Z</time>
      </trkpt>
      <trkpt lat="42.40906" lon="18.72122">
        <ele>47.439089</ele>
        <time>2022-05-29T09:44:41.754Z</time>
      </trkpt>
      <trkpt lat="42.40915" lon="18.72114">
        <ele>47.388688</ele>
        <time>2022-05-29T09:44:43.784Z</time>
      </trkpt>
      <trkpt lat="42.40925" lon="18.72107">
        <ele>47.336303</ele>
        <time>2022-05-29T09:44:45.724Z</time>
      </trkpt>
      <trkpt lat="42.40934" lon="18.72101">
        <ele>47.284753</ele>
        <time>2022-05-29T09:44:47.769Z</time>
      </trkpt>
      <trkpt lat="42.40943" lon="18.72094">
        <ele>47.236264</ele>
        <time>2022-05-29T09:44:49.733Z</time>
      </trkpt>
      <trkpt lat="42.40953" lon="18.72086">
        <ele>47.183641</ele>
        <time>2022-05-29T09:44:51.739Z</time>
      </trkpt>
      <trkpt lat="42.40963" lon="18.7208">
        <ele>47.130837</ele>
        <time>2022-05-29T09:44:53.731Z</time>
      </trkpt>
      <trkpt lat="42.40972" lon="18.72073">
        <ele>47.081937</ele>
        <time>2022-05-29T09:44:55.735Z</time>
      </trkpt>
      <trkpt lat="42.40981" lon="18.72066">
        <ele>47.03502</ele>
        <time>2022-05-29T09:44:57.753Z</time>
      </trkpt>
      <trkpt lat="42.40989" lon="18.7206">
        <ele>46.990339</ele>
        <time>2022-05-29T09:44:59.751Z</time>
      </trkpt>
      <trkpt lat="42.40998" lon="18.72054">
        <ele>46.943717</ele>
        <time>2022-05-29T09:45:01.744Z</time>
      </trkpt>
      <trkpt lat="42.41008" lon="18.72048">
        <ele>46.894636</ele>
        <time>2022-05-29T09:45:03.744Z</time>
      </trkpt>
      <trkpt lat="42.41017" lon="18.72041">
        <ele>46.844401</ele>
        <time>2022-05-29T09:45:05.757Z</time>
      </trkpt>
      <trkpt lat="42.41027" lon="18.72034">
        <ele>46.792174</ele>
        <time>2022-05-29T09:45:07.758Z</time>
      </trkpt>
      <trkpt lat="42.41037" lon="18.72028">
        <ele>46.744606</ele>
        <time>2022-05-29T09:45:09.726Z</time>
      </trkpt>
      <trkpt lat="42.41046" lon="18.72022">
        <ele>46.725891</ele>
        <time>2022-05-29T09:45:11.755Z</time>
      </trkpt>
      <trkpt lat="42.41056" lon="18.72015">
        <ele>46.708053</ele>
        <time>2022-05-29T09:45:13.735Z</time>
      </trkpt>
      <trkpt lat="42.41065" lon="18.7201">
        <ele>46.69084</ele>
        <time>2022-05-29T09:45:15.731Z</time>
      </trkpt>
      <trkpt lat="42.41074" lon="18.72004">
        <ele>46.673474</ele>
        <time>2022-05-29T09:45:17.751Z</time>
      </trkpt>
      <trkpt lat="42.41083" lon="18.71998">
        <ele>46.656368</ele>
        <time>2022-05-29T09:45:19.739Z</time>
      </trkpt>
      <trkpt lat="42.41093" lon="18.71993">
        <ele>46.638791</ele>
        <time>2022-05-29T09:45:21.748Z</time>
      </trkpt>
      <trkpt lat="42.41102" lon="18.71987">
        <ele>46.621198</ele>
        <time>2022-05-29T09:45:23.761Z</time>
      </trkpt>
      <trkpt lat="42.41111" lon="18.71982">
        <ele>46.605016</ele>
        <time>2022-05-29T09:45:25.769Z</time>
      </trkpt>
      <trkpt lat="42.41119" lon="18.71976">
        <ele>46.588681</ele>
        <time>2022-05-29T09:45:27.745Z</time>
      </trkpt>
      <trkpt lat="42.41128" lon="18.71971">
        <ele>46.57229</ele>
        <time>2022-05-29T09:45:29.771Z</time>
      </trkpt>
      <trkpt lat="42.41138" lon="18.71966">
        <ele>46.555378</ele>
        <time>2022-05-29T09:45:31.739Z</time>
      </trkpt>
      <trkpt lat="42.41147" lon="18.71961">
        <ele>46.537715</ele>
        <time>2022-05-29T09:45:33.751Z</time>
      </trkpt>
      <trkpt lat="42.41158" lon="18.71956">
        <ele>46.518732</ele>
        <time>2022-05-29T09:45:35.747Z</time>
      </trkpt>
      <trkpt lat="42.41167" lon="18.7195">
        <ele>46.500524</ele>
        <time>2022-05-29T09:45:37.756Z</time>
      </trkpt>
      <trkpt lat="42.41177" lon="18.71945">
        <ele>46.482817</ele>
        <time>2022-05-29T09:45:39.810Z</time>
      </trkpt>
      <trkpt lat="42.41187" lon="18.7194">
        <ele>46.46495</ele>
        <time>2022-05-29T09:45:41.743Z</time>
      </trkpt>
      <trkpt lat="42.41197" lon="18.71935">
        <ele>46.447403</ele>
        <time>2022-05-29T09:45:43.737Z</time>
      </trkpt>
      <trkpt lat="42.41206" lon="18.7193">
        <ele>46.403609</ele>
        <time>2022-05-29T09:45:45.725Z</time>
      </trkpt>
      <trkpt lat="42.41216" lon="18.71926">
        <ele>46.331853</ele>
        <time>2022-05-29T09:45:47.740Z</time>
      </trkpt>
      <trkpt lat="42.41227" lon="18.71921">
        <ele>46.259464</ele>
        <time>2022-05-29T09:45:49.742Z</time>
      </trkpt>
      <trkpt lat="42.41236" lon="18.71916">
        <ele>46.189279</ele>
        <time>2022-05-29T09:45:51.741Z</time>
      </trkpt>
      <trkpt lat="42.41245" lon="18.71912">
        <ele>46.125901</ele>
        <time>2022-05-29T09:45:53.730Z</time>
      </trkpt>
      <trkpt lat="42.41255" lon="18.71908">
        <ele>46.061256</ele>
        <time>2022-05-29T09:45:55.719Z</time>
      </trkpt>
      <trkpt lat="42.41264" lon="18.71903">
        <ele>45.994828</ele>
        <time>2022-05-29T09:45:57.752Z</time>
      </trkpt>
      <trkpt lat="42.41273" lon="18.71899">
        <ele>45.932491</ele>
        <time>2022-05-29T09:45:59.766Z</time>
      </trkpt>
      <trkpt lat="42.41281" lon="18.71895">
        <ele>45.870841</ele>
        <time>2022-05-29T09:46:01.758Z</time>
      </trkpt>
      <trkpt lat="42.41291" lon="18.71891">
        <ele>45.801885</ele>
        <time>2022-05-29T09:46:03.768Z</time>
      </trkpt>
      <trkpt lat="42.41301" lon="18.71886">
        <ele>45.732974</ele>
        <time>2022-05-29T09:46:05.734Z</time>
      </trkpt>
      <trkpt lat="42.41311" lon="18.71882">
        <ele>45.663746</ele>
        <time>2022-05-29T09:46:07.756Z</time>
      </trkpt>
      <trkpt lat="42.41321" lon="18.71878">
        <ele>45.593227</ele>
        <time>2022-05-29T09:46:09.736Z</time>
      </trkpt>
      <trkpt lat="42.41331" lon="18.71874">
        <ele>45.523904</ele>
        <time>2022-05-29T09:46:11.740Z</time>
      </trkpt>
      <trkpt lat="42.41341" lon="18.7187">
        <ele>45.455443</ele>
        <time>2022-05-29T09:46:13.725Z</time>
      </trkpt>
      <trkpt lat="42.41351" lon="18.71866">
        <ele>45.386487</ele>
        <time>2022-05-29T09:46:15.769Z</time>
      </trkpt>
      <trkpt lat="42.41361" lon="18.71862">
        <ele>45.316902</ele>
        <time>2022-05-29T09:46:17.750Z</time>
      </trkpt>
      <trkpt lat="42.4137" lon="18.71859">
        <ele>45.252088</ele>
        <time>2022-05-29T09:46:19.733Z</time>
      </trkpt>
      <trkpt lat="42.4138" lon="18.71855">
        <ele>45.365024</ele>
        <time>2022-05-29T09:46:21.737Z</time>
      </trkpt>
      <trkpt lat="42.41389" lon="18.71851">
        <ele>45.522514</ele>
        <time>2022-05-29T09:46:23.769Z</time>
      </trkpt>
      <trkpt lat="42.41398" lon="18.71848">
        <ele>45.678983</ele>
        <time>2022-05-29T09:46:25.744Z</time>
      </trkpt>
      <trkpt lat="42.41407" lon="18.71845">
        <ele>45.827641</ele>
        <time>2022-05-29T09:46:27.729Z</time>
      </trkpt>
      <trkpt lat="42.41416" lon="18.71842">
        <ele>45.978871</ele>
        <time>2022-05-29T09:46:29.736Z</time>
      </trkpt>
      <trkpt lat="42.41429" lon="18.71838">
        <ele>46.185641</ele>
        <time>2022-05-29T09:46:32.747Z</time>
      </trkpt>
      <trkpt lat="42.41442" lon="18.71835">
        <ele>46.394519</ele>
        <time>2022-05-29T09:46:35.750Z</time>
      </trkpt>
      <trkpt lat="42.4145" lon="18.71833">
        <ele>46.541091</ele>
        <time>2022-05-29T09:46:37.713Z</time>
      </trkpt>
      <trkpt lat="42.41463" lon="18.71829">
        <ele>46.744148</ele>
        <time>2022-05-29T09:46:40.771Z</time>
      </trkpt>
      <trkpt lat="42.41475" lon="18.71824">
        <ele>46.956544</ele>
        <time>2022-05-29T09:46:43.743Z</time>
      </trkpt>
      <trkpt lat="42.41486" lon="18.7182">
        <ele>47.145529</ele>
        <time>2022-05-29T09:46:46.771Z</time>
      </trkpt>
      <trkpt lat="42.41497" lon="18.71816">
        <ele>47.327309</ele>
        <time>2022-05-29T09:46:49.753Z</time>
      </trkpt>
      <trkpt lat="42.41506" lon="18.71813">
        <ele>47.474851</ele>
        <time>2022-05-29T09:46:52.743Z</time>
      </trkpt>
      <trkpt lat="42.41515" lon="18.7181">
        <ele>47.629437</ele>
        <time>2022-05-29T09:46:55.744Z</time>
      </trkpt>
      <trkpt lat="42.41526" lon="18.71806">
        <ele>47.800386</ele>
        <time>2022-05-29T09:46:58.752Z</time>
      </trkpt>
      <trkpt lat="42.41536" lon="18.71802">
        <ele>47.974054</ele>
        <time>2022-05-29T09:47:01.751Z</time>
      </trkpt>
      <trkpt lat="42.41546" lon="18.71799">
        <ele>48.132707</ele>
        <time>2022-05-29T09:47:04.733Z</time>
      </trkpt>
      <trkpt lat="42.41555" lon="18.71795">
        <ele>48.423067</ele>
        <time>2022-05-29T09:47:07.741Z</time>
      </trkpt>
      <trkpt lat="42.41565" lon="18.71792">
        <ele>48.729054</ele>
        <time>2022-05-29T09:47:10.749Z</time>
      </trkpt>
      <trkpt lat="42.41576" lon="18.71791">
        <ele>49.080388</ele>
        <time>2022-05-29T09:47:13.751Z</time>
      </trkpt>
      <trkpt lat="42.41588" lon="18.7179">
        <ele>49.426915</ele>
        <time>2022-05-29T09:47:16.755Z</time>
      </trkpt>
      <trkpt lat="42.41598" lon="18.71789">
        <ele>49.745263</ele>
        <time>2022-05-29T09:47:19.719Z</time>
      </trkpt>
      <trkpt lat="42.41608" lon="18.7179">
        <ele>50.050935</ele>
        <time>2022-05-29T09:47:22.748Z</time>
      </trkpt>
      <trkpt lat="42.41618" lon="18.71789">
        <ele>50.340694</ele>
        <time>2022-05-29T09:47:25.787Z</time>
      </trkpt>
      <trkpt lat="42.41628" lon="18.71785">
        <ele>50.666415</ele>
        <time>2022-05-29T09:47:28.729Z</time>
      </trkpt>
      <trkpt lat="42.41637" lon="18.71777">
        <ele>50.996531</ele>
        <time>2022-05-29T09:47:31.744Z</time>
      </trkpt>
      <trkpt lat="42.41647" lon="18.71773">
        <ele>51.31877</ele>
        <time>2022-05-29T09:47:34.758Z</time>
      </trkpt>
      <trkpt lat="42.41657" lon="18.7177">
        <ele>51.624937</ele>
        <time>2022-05-29T09:47:37.755Z</time>
      </trkpt>
      <trkpt lat="42.41667" lon="18.71766">
        <ele>51.934633</ele>
        <time>2022-05-29T09:47:40.748Z</time>
      </trkpt>
      <trkpt lat="42.41676" lon="18.71762">
        <ele>52.229027</ele>
        <time>2022-05-29T09:47:43.735Z</time>
      </trkpt>
      <trkpt lat="42.41685" lon="18.71758">
        <ele>52.514356</ele>
        <time>2022-05-29T09:47:46.738Z</time>
      </trkpt>
      <trkpt lat="42.41693" lon="18.71754">
        <ele>52.798394</ele>
        <time>2022-05-29T09:47:49.752Z</time>
      </trkpt>
      <trkpt lat="42.41702" lon="18.7175">
        <ele>53.076297</ele>
        <time>2022-05-29T09:47:52.733Z</time>
      </trkpt>
      <trkpt lat="42.41711" lon="18.71748">
        <ele>53.358636</ele>
        <time>2022-05-29T09:47:55.748Z</time>
      </trkpt>
      <trkpt lat="42.4172" lon="18.71745">
        <ele>53.637473</ele>
        <time>2022-05-29T09:47:58.731Z</time>
      </trkpt>
      <trkpt lat="42.41732" lon="18.71741">
        <ele>54.021883</ele>
        <time>2022-05-29T09:48:02.737Z</time>
      </trkpt>
      <trkpt lat="42.41743" lon="18.71738">
        <ele>54.376331</ele>
        <time>2022-05-29T09:48:06.741Z</time>
      </trkpt>
      <trkpt lat="42.41753" lon="18.71734">
        <ele>54.732978</ele>
        <time>2022-05-29T09:48:10.733Z</time>
      </trkpt>
      <trkpt lat="42.41762" lon="18.71731">
        <ele>55.021153</ele>
        <time>2022-05-29T09:48:13.735Z</time>
      </trkpt>
      <trkpt lat="42.41773" lon="18.71725">
        <ele>55.402473</ele>
        <time>2022-05-29T09:48:17.749Z</time>
      </trkpt>
      <trkpt lat="42.41782" lon="18.71721">
        <ele>55.699783</ele>
        <time>2022-05-29T09:48:20.757Z</time>
      </trkpt>
      <trkpt lat="42.41791" lon="18.71716">
        <ele>55.997567</ele>
        <time>2022-05-29T09:48:23.727Z</time>
      </trkpt>
      <trkpt lat="42.41799" lon="18.71711">
        <ele>56.302172</ele>
        <time>2022-05-29T09:48:26.772Z</time>
      </trkpt>
      <trkpt lat="42.41811" lon="18.71706">
        <ele>56.684385</ele>
        <time>2022-05-29T09:48:30.746Z</time>
      </trkpt>
      <trkpt lat="42.41819" lon="18.71701">
        <ele>56.981062</ele>
        <time>2022-05-29T09:48:33.752Z</time>
      </trkpt>
      <trkpt lat="42.41829" lon="18.71695">
        <ele>57.324443</ele>
        <time>2022-05-29T09:48:37.759Z</time>
      </trkpt>
      <trkpt lat="42.41838" lon="18.71688">
        <ele>57.672371</ele>
        <time>2022-05-29T09:48:41.727Z</time>
      </trkpt>
      <trkpt lat="42.41847" lon="18.71683">
        <ele>57.964154</ele>
        <time>2022-05-29T09:48:44.745Z</time>
      </trkpt>
      <trkpt lat="42.41855" lon="18.71676">
        <ele>58.262813</ele>
        <time>2022-05-29T09:48:47.745Z</time>
      </trkpt>
      <trkpt lat="42.41866" lon="18.71669">
        <ele>58.654214</ele>
        <time>2022-05-29T09:48:51.737Z</time>
      </trkpt>
      <trkpt lat="42.41874" lon="18.71663">
        <ele>58.957684</ele>
        <time>2022-05-29T09:48:54.777Z</time>
      </trkpt>
      <trkpt lat="42.41882" lon="18.71657">
        <ele>59.253601</ele>
        <time>2022-05-29T09:48:57.745Z</time>
      </trkpt>
      <trkpt lat="42.41892" lon="18.71649">
        <ele>59.733528</ele>
        <time>2022-05-29T09:49:01.734Z</time>
      </trkpt>
      <trkpt lat="42.41901" lon="18.71641">
        <ele>60.290185</ele>
        <time>2022-05-29T09:49:05.756Z</time>
      </trkpt>
      <trkpt lat="42.41911" lon="18.71634">
        <ele>60.79216</ele>
        <time>2022-05-29T09:49:08.745Z</time>
      </trkpt>
      <trkpt lat="42.4192" lon="18.71628">
        <ele>61.299047</ele>
        <time>2022-05-29T09:49:11.770Z</time>
      </trkpt>
      <trkpt lat="42.41928" lon="18.71621">
        <ele>61.7855</ele>
        <time>2022-05-29T09:49:14.749Z</time>
      </trkpt>
      <trkpt lat="42.41937" lon="18.71614">
        <ele>62.253307</ele>
        <time>2022-05-29T09:49:17.735Z</time>
      </trkpt>
      <trkpt lat="42.41945" lon="18.71607">
        <ele>62.747189</ele>
        <time>2022-05-29T09:49:20.753Z</time>
      </trkpt>
      <trkpt lat="42.41954" lon="18.716">
        <ele>63.269877</ele>
        <time>2022-05-29T09:49:23.732Z</time>
      </trkpt>
      <trkpt lat="42.41963" lon="18.71593">
        <ele>63.755824</ele>
        <time>2022-05-29T09:49:26.732Z</time>
      </trkpt>
      <trkpt lat="42.41971" lon="18.71584">
        <ele>64.272946</ele>
        <time>2022-05-29T09:49:29.757Z</time>
      </trkpt>
      <trkpt lat="42.41979" lon="18.71575">
        <ele>64.777352</ele>
        <time>2022-05-29T09:49:32.747Z</time>
      </trkpt>
      <trkpt lat="42.41987" lon="18.71567">
        <ele>65.259191</ele>
        <time>2022-05-29T09:49:35.740Z</time>
      </trkpt>
      <trkpt lat="42.41996" lon="18.7156">
        <ele>65.766798</ele>
        <time>2022-05-29T09:49:38.740Z</time>
      </trkpt>
      <trkpt lat="42.42005" lon="18.7155">
        <ele>66.312691</ele>
        <time>2022-05-29T09:49:41.738Z</time>
      </trkpt>
      <trkpt lat="42.42013" lon="18.71539">
        <ele>66.890498</ele>
        <time>2022-05-29T09:49:44.729Z</time>
      </trkpt>
      <trkpt lat="42.42023" lon="18.71527">
        <ele>67.543143</ele>
        <time>2022-05-29T09:49:47.764Z</time>
      </trkpt>
      <trkpt lat="42.42033" lon="18.71515">
        <ele>68.178828</ele>
        <time>2022-05-29T09:49:50.743Z</time>
      </trkpt>
      <trkpt lat="42.42043" lon="18.71503">
        <ele>67.801687</ele>
        <time>2022-05-29T09:49:53.738Z</time>
      </trkpt>
      <trkpt lat="42.4205" lon="18.71494">
        <ele>67.538757</ele>
        <time>2022-05-29T09:49:55.758Z</time>
      </trkpt>
      <trkpt lat="42.42056" lon="18.71485">
        <ele>67.283109</ele>
        <time>2022-05-29T09:49:57.735Z</time>
      </trkpt>
      <trkpt lat="42.42063" lon="18.71476">
        <ele>67.021223</ele>
        <time>2022-05-29T09:49:59.745Z</time>
      </trkpt>
      <trkpt lat="42.42069" lon="18.71467">
        <ele>66.767889</ele>
        <time>2022-05-29T09:50:01.761Z</time>
      </trkpt>
      <trkpt lat="42.42076" lon="18.71459">
        <ele>66.516095</ele>
        <time>2022-05-29T09:50:03.743Z</time>
      </trkpt>
      <trkpt lat="42.42083" lon="18.7145">
        <ele>66.248021</ele>
        <time>2022-05-29T09:50:05.735Z</time>
      </trkpt>
      <trkpt lat="42.4209" lon="18.71441">
        <ele>65.984757</ele>
        <time>2022-05-29T09:50:07.764Z</time>
      </trkpt>
      <trkpt lat="42.42096" lon="18.71432">
        <ele>65.73204</ele>
        <time>2022-05-29T09:50:09.752Z</time>
      </trkpt>
      <trkpt lat="42.42103" lon="18.71422">
        <ele>65.462829</ele>
        <time>2022-05-29T09:50:11.741Z</time>
      </trkpt>
      <trkpt lat="42.42109" lon="18.71412">
        <ele>65.202665</ele>
        <time>2022-05-29T09:50:13.752Z</time>
      </trkpt>
      <trkpt lat="42.42114" lon="18.71402">
        <ele>64.939271</ele>
        <time>2022-05-29T09:50:15.752Z</time>
      </trkpt>
      <trkpt lat="42.4212" lon="18.71392">
        <ele>64.677495</ele>
        <time>2022-05-29T09:50:17.749Z</time>
      </trkpt>
      <trkpt lat="42.42126" lon="18.71382">
        <ele>64.415455</ele>
        <time>2022-05-29T09:50:19.731Z</time>
      </trkpt>
      <trkpt lat="42.42132" lon="18.71372">
        <ele>64.15861</ele>
        <time>2022-05-29T09:50:21.753Z</time>
      </trkpt>
      <trkpt lat="42.42138" lon="18.71361">
        <ele>63.876882</ele>
        <time>2022-05-29T09:50:23.746Z</time>
      </trkpt>
      <trkpt lat="42.42145" lon="18.71351">
        <ele>63.598321</ele>
        <time>2022-05-29T09:50:25.713Z</time>
      </trkpt>
      <trkpt lat="42.4215" lon="18.71341">
        <ele>63.33661</ele>
        <time>2022-05-29T09:50:27.724Z</time>
      </trkpt>
      <trkpt lat="42.42155" lon="18.7133">
        <ele>63.174817</ele>
        <time>2022-05-29T09:50:29.707Z</time>
      </trkpt>
      <trkpt lat="42.42161" lon="18.7132">
        <ele>63.13087</ele>
        <time>2022-05-29T09:50:31.728Z</time>
      </trkpt>
      <trkpt lat="42.42166" lon="18.71309">
        <ele>63.087418</ele>
        <time>2022-05-29T09:50:33.726Z</time>
      </trkpt>
      <trkpt lat="42.42171" lon="18.71298">
        <ele>63.043346</ele>
        <time>2022-05-29T09:50:35.732Z</time>
      </trkpt>
      <trkpt lat="42.42176" lon="18.71288">
        <ele>63.001553</ele>
        <time>2022-05-29T09:50:37.741Z</time>
      </trkpt>
      <trkpt lat="42.42181" lon="18.71277">
        <ele>62.95704</ele>
        <time>2022-05-29T09:50:39.736Z</time>
      </trkpt>
      <trkpt lat="42.42186" lon="18.71266">
        <ele>62.913046</ele>
        <time>2022-05-29T09:50:41.775Z</time>
      </trkpt>
      <trkpt lat="42.42191" lon="18.71256">
        <ele>62.869753</ele>
        <time>2022-05-29T09:50:43.737Z</time>
      </trkpt>
      <trkpt lat="42.42197" lon="18.71244">
        <ele>62.821489</ele>
        <time>2022-05-29T09:50:45.740Z</time>
      </trkpt>
      <trkpt lat="42.42202" lon="18.71232">
        <ele>62.774466</ele>
        <time>2022-05-29T09:50:47.757Z</time>
      </trkpt>
      <trkpt lat="42.42207" lon="18.7122">
        <ele>62.727803</ele>
        <time>2022-05-29T09:50:49.732Z</time>
      </trkpt>
      <trkpt lat="42.42211" lon="18.71209">
        <ele>62.685057</ele>
        <time>2022-05-29T09:50:51.742Z</time>
      </trkpt>
      <trkpt lat="42.42215" lon="18.71198">
        <ele>62.642695</ele>
        <time>2022-05-29T09:50:53.763Z</time>
      </trkpt>
      <trkpt lat="42.42221" lon="18.71182">
        <ele>62.580443</ele>
        <time>2022-05-29T09:50:56.740Z</time>
      </trkpt>
      <trkpt lat="42.42225" lon="18.71171">
        <ele>62.538618</ele>
        <time>2022-05-29T09:50:58.725Z</time>
      </trkpt>
      <trkpt lat="42.4223" lon="18.71154">
        <ele>62.476948</ele>
        <time>2022-05-29T09:51:01.736Z</time>
      </trkpt>
      <trkpt lat="42.42236" lon="18.71139">
        <ele>62.416758</ele>
        <time>2022-05-29T09:51:04.756Z</time>
      </trkpt>
      <trkpt lat="42.4224" lon="18.71127">
        <ele>62.373608</ele>
        <time>2022-05-29T09:51:06.751Z</time>
      </trkpt>
      <trkpt lat="42.42244" lon="18.71116">
        <ele>62.243872</ele>
        <time>2022-05-29T09:51:08.721Z</time>
      </trkpt>
      <trkpt lat="42.42248" lon="18.71104">
        <ele>62.066187</ele>
        <time>2022-05-29T09:51:10.764Z</time>
      </trkpt>
      <trkpt lat="42.42252" lon="18.71092">
        <ele>61.877419</ele>
        <time>2022-05-29T09:51:12.730Z</time>
      </trkpt>
      <trkpt lat="42.42256" lon="18.7108">
        <ele>61.685009</ele>
        <time>2022-05-29T09:51:14.740Z</time>
      </trkpt>
      <trkpt lat="42.42261" lon="18.71068">
        <ele>61.500191</ele>
        <time>2022-05-29T09:51:16.753Z</time>
      </trkpt>
      <trkpt lat="42.42265" lon="18.71056">
        <ele>61.312777</ele>
        <time>2022-05-29T09:51:18.760Z</time>
      </trkpt>
      <trkpt lat="42.4227" lon="18.71044">
        <ele>61.112486</ele>
        <time>2022-05-29T09:51:20.727Z</time>
      </trkpt>
      <trkpt lat="42.42276" lon="18.71031">
        <ele>60.91067</ele>
        <time>2022-05-29T09:51:22.736Z</time>
      </trkpt>
      <trkpt lat="42.4228" lon="18.71018">
        <ele>60.703163</ele>
        <time>2022-05-29T09:51:24.733Z</time>
      </trkpt>
      <trkpt lat="42.42286" lon="18.71005">
        <ele>60.491426</ele>
        <time>2022-05-29T09:51:26.763Z</time>
      </trkpt>
      <trkpt lat="42.42291" lon="18.70991">
        <ele>60.2793</ele>
        <time>2022-05-29T09:51:28.739Z</time>
      </trkpt>
      <trkpt lat="42.42295" lon="18.70978">
        <ele>60.085379</ele>
        <time>2022-05-29T09:51:30.738Z</time>
      </trkpt>
      <trkpt lat="42.423" lon="18.70965">
        <ele>59.871872</ele>
        <time>2022-05-29T09:51:32.744Z</time>
      </trkpt>
      <trkpt lat="42.42305" lon="18.70951">
        <ele>59.656767</ele>
        <time>2022-05-29T09:51:34.727Z</time>
      </trkpt>
      <trkpt lat="42.4231" lon="18.70937">
        <ele>59.427834</ele>
        <time>2022-05-29T09:51:36.736Z</time>
      </trkpt>
      <trkpt lat="42.42316" lon="18.70921">
        <ele>59.186733</ele>
        <time>2022-05-29T09:51:38.737Z</time>
      </trkpt>
      <trkpt lat="42.42321" lon="18.70906">
        <ele>58.950252</ele>
        <time>2022-05-29T09:51:40.710Z</time>
      </trkpt>
      <trkpt lat="42.42327" lon="18.70891">
        <ele>58.526259</ele>
        <time>2022-05-29T09:51:42.733Z</time>
      </trkpt>
      <trkpt lat="42.42334" lon="18.70876">
        <ele>58.078169</ele>
        <time>2022-05-29T09:51:44.732Z</time>
      </trkpt>
      <trkpt lat="42.4234" lon="18.70861">
        <ele>57.63786</ele>
        <time>2022-05-29T09:51:46.764Z</time>
      </trkpt>
      <trkpt lat="42.42346" lon="18.70845">
        <ele>57.203968</ele>
        <time>2022-05-29T09:51:48.744Z</time>
      </trkpt>
      <trkpt lat="42.42352" lon="18.7083">
        <ele>56.770352</ele>
        <time>2022-05-29T09:51:50.752Z</time>
      </trkpt>
      <trkpt lat="42.42358" lon="18.70815">
        <ele>56.326157</ele>
        <time>2022-05-29T09:51:52.747Z</time>
      </trkpt>
      <trkpt lat="42.42364" lon="18.708">
        <ele>55.889728</ele>
        <time>2022-05-29T09:51:54.751Z</time>
      </trkpt>
      <trkpt lat="42.4237" lon="18.70785">
        <ele>55.446562</ele>
        <time>2022-05-29T09:51:56.756Z</time>
      </trkpt>
      <trkpt lat="42.42376" lon="18.70768">
        <ele>54.973422</ele>
        <time>2022-05-29T09:51:58.736Z</time>
      </trkpt>
      <trkpt lat="42.42383" lon="18.70752">
        <ele>54.509673</ele>
        <time>2022-05-29T09:52:00.746Z</time>
      </trkpt>
      <trkpt lat="42.42389" lon="18.70737">
        <ele>54.056483</ele>
        <time>2022-05-29T09:52:02.732Z</time>
      </trkpt>
      <trkpt lat="42.42396" lon="18.70721">
        <ele>53.608396</ele>
        <time>2022-05-29T09:52:04.737Z</time>
      </trkpt>
      <trkpt lat="42.42402" lon="18.70707">
        <ele>53.176255</ele>
        <time>2022-05-29T09:52:06.732Z</time>
      </trkpt>
      <trkpt lat="42.42408" lon="18.70693">
        <ele>52.762523</ele>
        <time>2022-05-29T09:52:08.736Z</time>
      </trkpt>
      <trkpt lat="42.42415" lon="18.70679">
        <ele>52.581319</ele>
        <time>2022-05-29T09:52:10.731Z</time>
      </trkpt>
      <trkpt lat="42.42423" lon="18.70665">
        <ele>52.405881</ele>
        <time>2022-05-29T09:52:12.732Z</time>
      </trkpt>
      <trkpt lat="42.4243" lon="18.70651">
        <ele>52.226374</ele>
        <time>2022-05-29T09:52:14.791Z</time>
      </trkpt>
      <trkpt lat="42.42438" lon="18.70636">
        <ele>52.045225</ele>
        <time>2022-05-29T09:52:16.746Z</time>
      </trkpt>
      <trkpt lat="42.42446" lon="18.70622">
        <ele>51.864774</ele>
        <time>2022-05-29T09:52:18.743Z</time>
      </trkpt>
      <trkpt lat="42.42456" lon="18.70608">
        <ele>51.675647</ele>
        <time>2022-05-29T09:52:20.740Z</time>
      </trkpt>
      <trkpt lat="42.42465" lon="18.70594">
        <ele>51.488156</ele>
        <time>2022-05-29T09:52:22.734Z</time>
      </trkpt>
      <trkpt lat="42.42475" lon="18.7058">
        <ele>51.300679</ele>
        <time>2022-05-29T09:52:24.710Z</time>
      </trkpt>
      <trkpt lat="42.42484" lon="18.70566">
        <ele>51.115746</ele>
        <time>2022-05-29T09:52:26.726Z</time>
      </trkpt>
      <trkpt lat="42.42492" lon="18.70553">
        <ele>50.940977</ele>
        <time>2022-05-29T09:52:28.736Z</time>
      </trkpt>
      <trkpt lat="42.42501" lon="18.7054">
        <ele>50.762484</ele>
        <time>2022-05-29T09:52:30.730Z</time>
      </trkpt>
      <trkpt lat="42.4251" lon="18.70528">
        <ele>50.591378</ele>
        <time>2022-05-29T09:52:32.718Z</time>
      </trkpt>
      <trkpt lat="42.42519" lon="18.70516">
        <ele>50.419087</ele>
        <time>2022-05-29T09:52:34.771Z</time>
      </trkpt>
      <trkpt lat="42.42528" lon="18.70505">
        <ele>50.284406</ele>
        <time>2022-05-29T09:52:36.727Z</time>
      </trkpt>
      <trkpt lat="42.42536" lon="18.70493">
        <ele>50.236284</ele>
        <time>2022-05-29T09:52:38.719Z</time>
      </trkpt>
      <trkpt lat="42.42534" lon="18.70479">
        <ele>50.195303</ele>
        <time>2022-05-29T09:52:42.719Z</time>
      </trkpt>
      <trkpt lat="42.42528" lon="18.70469">
        <ele>50.159301</ele>
        <time>2022-05-29T09:52:45.745Z</time>
      </trkpt>
      <trkpt lat="42.42533" lon="18.70454">
        <ele>50.111244</ele>
        <time>2022-05-29T09:52:48.732Z</time>
      </trkpt>
      <trkpt lat="42.4254" lon="18.70444">
        <ele>50.070129</ele>
        <time>2022-05-29T09:52:50.755Z</time>
      </trkpt>
      <trkpt lat="42.42547" lon="18.70432">
        <ele>50.026414</ele>
        <time>2022-05-29T09:52:52.772Z</time>
      </trkpt>
      <trkpt lat="42.42553" lon="18.70421">
        <ele>49.983786</ele>
        <time>2022-05-29T09:52:54.754Z</time>
      </trkpt>
      <trkpt lat="42.42561" lon="18.7041">
        <ele>49.940141</ele>
        <time>2022-05-29T09:52:56.725Z</time>
      </trkpt>
      <trkpt lat="42.42568" lon="18.70398">
        <ele>49.89479</ele>
        <time>2022-05-29T09:52:58.757Z</time>
      </trkpt>
      <trkpt lat="42.42575" lon="18.70388">
        <ele>49.852607</ele>
        <time>2022-05-29T09:53:00.734Z</time>
      </trkpt>
      <trkpt lat="42.42582" lon="18.70378">
        <ele>49.812117</ele>
        <time>2022-05-29T09:53:02.753Z</time>
      </trkpt>
      <trkpt lat="42.42589" lon="18.70369">
        <ele>49.774003</ele>
        <time>2022-05-29T09:53:04.748Z</time>
      </trkpt>
      <trkpt lat="42.42599" lon="18.70358">
        <ele>49.723891</ele>
        <time>2022-05-29T09:53:07.735Z</time>
      </trkpt>
      <trkpt lat="42.42606" lon="18.70349">
        <ele>49.6869</ele>
        <time>2022-05-29T09:53:09.737Z</time>
      </trkpt>
      <trkpt lat="42.42612" lon="18.70341">
        <ele>49.650791</ele>
        <time>2022-05-29T09:53:11.727Z</time>
      </trkpt>
      <trkpt lat="42.4262" lon="18.70326">
        <ele>49.597981</ele>
        <time>2022-05-29T09:53:14.720Z</time>
      </trkpt>
      <trkpt lat="42.42624" lon="18.70311">
        <ele>49.522818</ele>
        <time>2022-05-29T09:53:17.732Z</time>
      </trkpt>
      <trkpt lat="42.42626" lon="18.70294">
        <ele>49.428402</ele>
        <time>2022-05-29T09:53:20.731Z</time>
      </trkpt>
      <trkpt lat="42.42623" lon="18.70279">
        <ele>49.3434</ele>
        <time>2022-05-29T09:53:23.748Z</time>
      </trkpt>
      <trkpt lat="42.42622" lon="18.70265">
        <ele>49.267302</ele>
        <time>2022-05-29T09:53:28.763Z</time>
      </trkpt>
      <trkpt lat="42.42621" lon="18.70249">
        <ele>49.178551</ele>
        <time>2022-05-29T09:53:32.728Z</time>
      </trkpt>
      <trkpt lat="42.4262" lon="18.70235">
        <ele>49.099084</ele>
        <time>2022-05-29T09:53:35.738Z</time>
      </trkpt>
      <trkpt lat="42.42618" lon="18.70219">
        <ele>49.013018</ele>
        <time>2022-05-29T09:53:38.742Z</time>
      </trkpt>
      <trkpt lat="42.42615" lon="18.70203">
        <ele>48.920815</ele>
        <time>2022-05-29T09:53:41.742Z</time>
      </trkpt>
      <trkpt lat="42.42613" lon="18.70185">
        <ele>48.823486</ele>
        <time>2022-05-29T09:53:44.736Z</time>
      </trkpt>
      <trkpt lat="42.42613" lon="18.70168">
        <ele>48.728695</ele>
        <time>2022-05-29T09:53:47.726Z</time>
      </trkpt>
      <trkpt lat="42.42617" lon="18.70152">
        <ele>48.632572</ele>
        <time>2022-05-29T09:53:50.738Z</time>
      </trkpt>
      <trkpt lat="42.42622" lon="18.70141">
        <ele>48.564838</ele>
        <time>2022-05-29T09:53:52.727Z</time>
      </trkpt>
      <trkpt lat="42.42629" lon="18.70127">
        <ele>48.470049</ele>
        <time>2022-05-29T09:53:55.726Z</time>
      </trkpt>
      <trkpt lat="42.42636" lon="18.70115">
        <ele>48.386726</ele>
        <time>2022-05-29T09:53:58.746Z</time>
      </trkpt>
      <trkpt lat="42.42642" lon="18.70103">
        <ele>48.307333</ele>
        <time>2022-05-29T09:54:01.765Z</time>
      </trkpt>
      <trkpt lat="42.42649" lon="18.70094">
        <ele>48.230286</ele>
        <time>2022-05-29T09:54:04.757Z</time>
      </trkpt>
      <trkpt lat="42.42661" lon="18.70094">
        <ele>48.011176</ele>
        <time>2022-05-29T09:54:08.732Z</time>
      </trkpt>
      <trkpt lat="42.42671" lon="18.70102">
        <ele>47.803101</ele>
        <time>2022-05-29T09:54:11.730Z</time>
      </trkpt>
      <trkpt lat="42.42678" lon="18.70111">
        <ele>47.637399</ele>
        <time>2022-05-29T09:54:13.726Z</time>
      </trkpt>
      <trkpt lat="42.42685" lon="18.7012">
        <ele>47.46467</ele>
        <time>2022-05-29T09:54:15.790Z</time>
      </trkpt>
      <trkpt lat="42.42692" lon="18.70128">
        <ele>47.297227</ele>
        <time>2022-05-29T09:54:17.731Z</time>
      </trkpt>
      <trkpt lat="42.42699" lon="18.70136">
        <ele>47.136308</ele>
        <time>2022-05-29T09:54:19.722Z</time>
      </trkpt>
      <trkpt lat="42.42709" lon="18.70146">
        <ele>46.912547</ele>
        <time>2022-05-29T09:54:22.722Z</time>
      </trkpt>
      <trkpt lat="42.42719" lon="18.70156">
        <ele>46.689044</ele>
        <time>2022-05-29T09:54:25.728Z</time>
      </trkpt>
      <trkpt lat="42.42727" lon="18.70163">
        <ele>46.526742</ele>
        <time>2022-05-29T09:54:27.735Z</time>
      </trkpt>
      <trkpt lat="42.42736" lon="18.70167">
        <ele>46.358431</ele>
        <time>2022-05-29T09:54:29.731Z</time>
      </trkpt>
      <trkpt lat="42.42748" lon="18.70171">
        <ele>46.125833</ele>
        <time>2022-05-29T09:54:32.729Z</time>
      </trkpt>
      <trkpt lat="42.42761" lon="18.70173">
        <ele>45.905639</ele>
        <time>2022-05-29T09:54:35.725Z</time>
      </trkpt>
      <trkpt lat="42.42773" lon="18.70174">
        <ele>45.686068</ele>
        <time>2022-05-29T09:54:38.733Z</time>
      </trkpt>
      <trkpt lat="42.42786" lon="18.70175">
        <ele>45.44729</ele>
        <time>2022-05-29T09:54:41.773Z</time>
      </trkpt>
      <trkpt lat="42.42799" lon="18.70173">
        <ele>45.217624</ele>
        <time>2022-05-29T09:54:44.727Z</time>
      </trkpt>
      <trkpt lat="42.42809" lon="18.70172">
        <ele>45.046215</ele>
        <time>2022-05-29T09:54:47.735Z</time>
      </trkpt>
      <trkpt lat="42.42818" lon="18.7017">
        <ele>45.212713</ele>
        <time>2022-05-29T09:54:53.729Z</time>
      </trkpt>
      <trkpt lat="42.4283" lon="18.70166">
        <ele>45.428882</ele>
        <time>2022-05-29T09:54:57.727Z</time>
      </trkpt>
      <trkpt lat="42.4284" lon="18.70165">
        <ele>45.622325</ele>
        <time>2022-05-29T09:55:00.724Z</time>
      </trkpt>
      <trkpt lat="42.42852" lon="18.70163">
        <ele>45.838991</ele>
        <time>2022-05-29T09:55:03.767Z</time>
      </trkpt>
      <trkpt lat="42.42864" lon="18.70161">
        <ele>46.051875</ele>
        <time>2022-05-29T09:55:06.718Z</time>
      </trkpt>
      <trkpt lat="42.42875" lon="18.70159">
        <ele>46.257203</ele>
        <time>2022-05-29T09:55:09.744Z</time>
      </trkpt>
      <trkpt lat="42.42887" lon="18.70157">
        <ele>46.47026</ele>
        <time>2022-05-29T09:55:12.741Z</time>
      </trkpt>
      <trkpt lat="42.42898" lon="18.70154">
        <ele>46.68274</ele>
        <time>2022-05-29T09:55:15.735Z</time>
      </trkpt>
      <trkpt lat="42.42908" lon="18.70152">
        <ele>46.872783</ele>
        <time>2022-05-29T09:55:18.743Z</time>
      </trkpt>
      <trkpt lat="42.42918" lon="18.70148">
        <ele>47.049241</ele>
        <time>2022-05-29T09:55:21.723Z</time>
      </trkpt>
      <trkpt lat="42.42923" lon="18.70138">
        <ele>47.22231</ele>
        <time>2022-05-29T09:55:24.732Z</time>
      </trkpt>
      <trkpt lat="42.42924" lon="18.70121">
        <ele>47.448158</ele>
        <time>2022-05-29T09:55:27.788Z</time>
      </trkpt>
      <trkpt lat="42.42925" lon="18.70104">
        <ele>47.679289</ele>
        <time>2022-05-29T09:55:30.739Z</time>
      </trkpt>
      <trkpt lat="42.42924" lon="18.70088">
        <ele>47.888213</ele>
        <time>2022-05-29T09:55:33.725Z</time>
      </trkpt>
      <trkpt lat="42.42924" lon="18.70074">
        <ele>48.08309</ele>
        <time>2022-05-29T09:55:36.727Z</time>
      </trkpt>
      <trkpt lat="42.42925" lon="18.7006">
        <ele>48.270438</ele>
        <time>2022-05-29T09:55:39.732Z</time>
      </trkpt>
      <trkpt lat="42.42926" lon="18.70044">
        <ele>48.906753</ele>
        <time>2022-05-29T09:55:42.740Z</time>
      </trkpt>
      <trkpt lat="42.42927" lon="18.70028">
        <ele>49.642956</ele>
        <time>2022-05-29T09:55:45.745Z</time>
      </trkpt>
      <trkpt lat="42.42928" lon="18.70015">
        <ele>50.292419</ele>
        <time>2022-05-29T09:55:48.744Z</time>
      </trkpt>
      <trkpt lat="42.42931" lon="18.70002">
        <ele>50.923562</ele>
        <time>2022-05-29T09:55:51.732Z</time>
      </trkpt>
      <trkpt lat="42.4293" lon="18.69988">
        <ele>51.553913</ele>
        <time>2022-05-29T09:55:54.731Z</time>
      </trkpt>
      <trkpt lat="42.42928" lon="18.69974">
        <ele>52.221795</ele>
        <time>2022-05-29T09:55:57.745Z</time>
      </trkpt>
      <trkpt lat="42.42926" lon="18.6996">
        <ele>52.911561</ele>
        <time>2022-05-29T09:56:01.735Z</time>
      </trkpt>
      <trkpt lat="42.42926" lon="18.69945">
        <ele>53.611696</ele>
        <time>2022-05-29T09:56:05.724Z</time>
      </trkpt>
      <trkpt lat="42.42924" lon="18.69932">
        <ele>54.25804</ele>
        <time>2022-05-29T09:56:08.737Z</time>
      </trkpt>
      <trkpt lat="42.4292" lon="18.69917">
        <ele>54.976506</ele>
        <time>2022-05-29T09:56:11.717Z</time>
      </trkpt>
      <trkpt lat="42.42919" lon="18.69902">
        <ele>55.683548</ele>
        <time>2022-05-29T09:56:15.730Z</time>
      </trkpt>
      <trkpt lat="42.4292" lon="18.69889">
        <ele>56.29124</ele>
        <time>2022-05-29T09:56:19.719Z</time>
      </trkpt>
      <trkpt lat="42.42923" lon="18.69875">
        <ele>57.006105</ele>
        <time>2022-05-29T09:56:23.728Z</time>
      </trkpt>
      <trkpt lat="42.42926" lon="18.69863">
        <ele>57.592308</ele>
        <time>2022-05-29T09:56:26.744Z</time>
      </trkpt>
      <trkpt lat="42.42928" lon="18.69851">
        <ele>58.184031</ele>
        <time>2022-05-29T09:56:29.736Z</time>
      </trkpt>
      <trkpt lat="42.42928" lon="18.69834">
        <ele>58.954521</ele>
        <time>2022-05-29T09:56:32.743Z</time>
      </trkpt>
      <trkpt lat="42.42926" lon="18.6982">
        <ele>59.660127</ele>
        <time>2022-05-29T09:56:34.728Z</time>
      </trkpt>
      <trkpt lat="42.42922" lon="18.69803">
        <ele>59.163366</ele>
        <time>2022-05-29T09:56:36.746Z</time>
      </trkpt>
      <trkpt lat="42.42921" lon="18.69786">
        <ele>58.425012</ele>
        <time>2022-05-29T09:56:38.728Z</time>
      </trkpt>
      <trkpt lat="42.42921" lon="18.69768">
        <ele>57.693482</ele>
        <time>2022-05-29T09:56:40.774Z</time>
      </trkpt>
      <trkpt lat="42.42922" lon="18.69754">
        <ele>57.117841</ele>
        <time>2022-05-29T09:56:42.734Z</time>
      </trkpt>
      <trkpt lat="42.42923" lon="18.69741">
        <ele>56.572337</ele>
        <time>2022-05-29T09:56:45.742Z</time>
      </trkpt>
      <trkpt lat="42.42925" lon="18.69726">
        <ele>55.939334</ele>
        <time>2022-05-29T09:56:49.759Z</time>
      </trkpt>
      <trkpt lat="42.42926" lon="18.6971">
        <ele>55.27342</ele>
        <time>2022-05-29T09:56:52.732Z</time>
      </trkpt>
      <trkpt lat="42.42925" lon="18.69695">
        <ele>54.663863</ele>
        <time>2022-05-29T09:56:55.746Z</time>
      </trkpt>
      <trkpt lat="42.42922" lon="18.69683">
        <ele>54.138137</ele>
        <time>2022-05-29T09:56:58.727Z</time>
      </trkpt>
      <trkpt lat="42.42921" lon="18.6967">
        <ele>53.613131</ele>
        <time>2022-05-29T09:57:02.752Z</time>
      </trkpt>
      <trkpt lat="42.4292" lon="18.69655">
        <ele>52.97928</ele>
        <time>2022-05-29T09:57:07.734Z</time>
      </trkpt>
      <trkpt lat="42.42915" lon="18.69643">
        <ele>52.401387</ele>
        <time>2022-05-29T09:57:11.719Z</time>
      </trkpt>
      <trkpt lat="42.42904" lon="18.69641">
        <ele>51.823129</ele>
        <time>2022-05-29T09:57:16.730Z</time>
      </trkpt>
      <trkpt lat="42.42898" lon="18.69658">
        <ele>51.044413</ele>
        <time>2022-05-29T09:58:25.716Z</time>
      </trkpt>
      <trkpt lat="42.42906" lon="18.69666">
        <ele>50.478299</ele>
        <time>2022-05-29T09:58:31.741Z</time>
      </trkpt>
      <trkpt lat="42.42914" lon="18.6966">
        <ele>49.965069</ele>
        <time>2022-05-29T09:58:35.740Z</time>
      </trkpt>
      <trkpt lat="42.42917" lon="18.69647">
        <ele>49.608892</ele>
        <time>2022-05-29T09:58:38.742Z</time>
      </trkpt>
      <trkpt lat="42.42918" lon="18.69632">
        <ele>49.408537</ele>
        <time>2022-05-29T09:58:42.740Z</time>
      </trkpt>
      <trkpt lat="42.42925" lon="18.6962">
        <ele>49.207026</ele>
        <time>2022-05-29T09:58:46.750Z</time>
      </trkpt>
      <trkpt lat="42.42933" lon="18.69609">
        <ele>49.007612</ele>
        <time>2022-05-29T09:58:50.744Z</time>
      </trkpt>
      <trkpt lat="42.42936" lon="18.69596">
        <ele>48.826728</ele>
        <time>2022-05-29T09:58:54.734Z</time>
      </trkpt>
      <trkpt lat="42.42942" lon="18.69583">
        <ele>48.616338</ele>
        <time>2022-05-29T09:58:59.730Z</time>
      </trkpt>
      <trkpt lat="42.42951" lon="18.69574">
        <ele>48.415357</ele>
        <time>2022-05-29T09:59:03.735Z</time>
      </trkpt>
      <trkpt lat="42.42961" lon="18.69569">
        <ele>48.235926</ele>
        <time>2022-05-29T09:59:07.733Z</time>
      </trkpt>
      <trkpt lat="42.42971" lon="18.69565">
        <ele>48.045287</ele>
        <time>2022-05-29T09:59:11.740Z</time>
      </trkpt>
      <trkpt lat="42.42981" lon="18.69564">
        <ele>47.863476</ele>
        <time>2022-05-29T09:59:15.737Z</time>
      </trkpt>
      <trkpt lat="42.42991" lon="18.69558">
        <ele>47.662557</ele>
        <time>2022-05-29T09:59:19.738Z</time>
      </trkpt>
      <trkpt lat="42.43001" lon="18.69552">
        <ele>47.469882</ele>
        <time>2022-05-29T09:59:23.737Z</time>
      </trkpt>
      <trkpt lat="42.4301" lon="18.69547">
        <ele>47.290401</ele>
        <time>2022-05-29T09:59:27.732Z</time>
      </trkpt>
      <trkpt lat="42.43019" lon="18.69541">
        <ele>47.116735</ele>
        <time>2022-05-29T09:59:31.740Z</time>
      </trkpt>
      <trkpt lat="42.43029" lon="18.69539">
        <ele>46.939184</ele>
        <time>2022-05-29T09:59:38.717Z</time>
      </trkpt>
      <trkpt lat="42.43039" lon="18.69536">
        <ele>46.7541</ele>
        <time>2022-05-29T09:59:45.735Z</time>
      </trkpt>
      <trkpt lat="42.43049" lon="18.69535">
        <ele>46.570169</ele>
        <time>2022-05-29T09:59:50.724Z</time>
      </trkpt>
      <trkpt lat="42.43057" lon="18.69526">
        <ele>46.640981</ele>
        <time>2022-05-29T09:59:57.728Z</time>
      </trkpt>
      <trkpt lat="42.43062" lon="18.69516">
        <ele>47.006682</ele>
        <time>2022-05-29T10:00:02.721Z</time>
      </trkpt>
      <trkpt lat="42.43069" lon="18.69506">
        <ele>47.399604</ele>
        <time>2022-05-29T10:00:07.730Z</time>
      </trkpt>
      <trkpt lat="42.43075" lon="18.69495">
        <ele>47.789431</ele>
        <time>2022-05-29T10:00:12.745Z</time>
      </trkpt>
      <trkpt lat="42.43085" lon="18.69491">
        <ele>48.211291</ele>
        <time>2022-05-29T10:00:18.711Z</time>
      </trkpt>
      <trkpt lat="42.43094" lon="18.69485">
        <ele>48.617861</ele>
        <time>2022-05-29T10:00:23.737Z</time>
      </trkpt>
      <trkpt lat="42.43102" lon="18.6948">
        <ele>48.978322</ele>
        <time>2022-05-29T10:00:28.741Z</time>
      </trkpt>
      <trkpt lat="42.43112" lon="18.69481">
        <ele>49.379673</ele>
        <time>2022-05-29T10:00:35.738Z</time>
      </trkpt>
      <trkpt lat="42.43123" lon="18.69476">
        <ele>49.813405</ele>
        <time>2022-05-29T10:00:41.722Z</time>
      </trkpt>
      <trkpt lat="42.43133" lon="18.69473">
        <ele>50.208038</ele>
        <time>2022-05-29T10:00:46.759Z</time>
      </trkpt>
      <trkpt lat="42.43142" lon="18.6947">
        <ele>50.580817</ele>
        <time>2022-05-29T10:00:50.729Z</time>
      </trkpt>
      <trkpt lat="42.43145" lon="18.69455">
        <ele>51.044012</ele>
        <time>2022-05-29T10:00:54.738Z</time>
      </trkpt>
      <trkpt lat="42.43145" lon="18.69442">
        <ele>51.419343</ele>
        <time>2022-05-29T10:00:57.734Z</time>
      </trkpt>
      <trkpt lat="42.43146" lon="18.69429">
        <ele>51.803589</ele>
        <time>2022-05-29T10:01:00.737Z</time>
      </trkpt>
      <trkpt lat="42.43148" lon="18.69413">
        <ele>52.268883</ele>
        <time>2022-05-29T10:01:04.728Z</time>
      </trkpt>
      <trkpt lat="42.43149" lon="18.69398">
        <ele>52.715226</ele>
        <time>2022-05-29T10:01:08.726Z</time>
      </trkpt>
      <trkpt lat="42.4315" lon="18.69385">
        <ele>53.109164</ele>
        <time>2022-05-29T10:01:12.731Z</time>
      </trkpt>
      <trkpt lat="42.43159" lon="18.6938">
        <ele>53.478682</ele>
        <time>2022-05-29T10:01:22.778Z</time>
      </trkpt>
      <trkpt lat="42.43169" lon="18.69373">
        <ele>53.584271</ele>
        <time>2022-05-29T10:06:25.705Z</time>
      </trkpt>
      <trkpt lat="42.43187" lon="18.69372">
        <ele>53.52167</ele>
        <time>2022-05-29T10:24:21.715Z</time>
      </trkpt>
      <trkpt lat="42.43204" lon="18.69366">
        <ele>53.462723</ele>
        <time>2022-05-29T10:24:31.723Z</time>
      </trkpt>
      <trkpt lat="42.43214" lon="18.69364">
        <ele>53.430429</ele>
        <time>2022-05-29T10:24:34.749Z</time>
      </trkpt>
      <trkpt lat="42.43223" lon="18.69361">
        <ele>53.39859</ele>
        <time>2022-05-29T10:24:37.718Z</time>
      </trkpt>
      <trkpt lat="42.43233" lon="18.69359">
        <ele>53.363192</ele>
        <time>2022-05-29T10:24:41.726Z</time>
      </trkpt>
      <trkpt lat="42.43243" lon="18.69356">
        <ele>53.328458</ele>
        <time>2022-05-29T10:24:46.755Z</time>
      </trkpt>
      <trkpt lat="42.43253" lon="18.69351">
        <ele>53.294135</ele>
        <time>2022-05-29T10:24:52.737Z</time>
      </trkpt>
      <trkpt lat="42.43264" lon="18.6935">
        <ele>53.255326</ele>
        <time>2022-05-29T10:24:56.724Z</time>
      </trkpt>
      <trkpt lat="42.43273" lon="18.69358">
        <ele>53.221022</ele>
        <time>2022-05-29T10:25:01.711Z</time>
      </trkpt>
      <trkpt lat="42.43276" lon="18.6937">
        <ele>53.18933</ele>
        <time>2022-05-29T10:25:06.736Z</time>
      </trkpt>
      <trkpt lat="42.4328" lon="18.69383">
        <ele>53.15533</ele>
        <time>2022-05-29T10:25:10.735Z</time>
      </trkpt>
      <trkpt lat="42.43281" lon="18.69396">
        <ele>53.122604</ele>
        <time>2022-05-29T10:25:14.735Z</time>
      </trkpt>
      <trkpt lat="42.4328" lon="18.69411">
        <ele>53.086239</ele>
        <time>2022-05-29T10:25:19.717Z</time>
      </trkpt>
      <trkpt lat="42.43286" lon="18.69422">
        <ele>53.05129</ele>
        <time>2022-05-29T10:25:23.728Z</time>
      </trkpt>
      <trkpt lat="42.43296" lon="18.69421">
        <ele>53.018791</ele>
        <time>2022-05-29T10:25:27.726Z</time>
      </trkpt>
      <trkpt lat="42.43305" lon="18.69421">
        <ele>53.196685</ele>
        <time>2022-05-29T10:25:31.736Z</time>
      </trkpt>
      <trkpt lat="42.43317" lon="18.6942">
        <ele>53.553618</ele>
        <time>2022-05-29T10:25:35.749Z</time>
      </trkpt>
      <trkpt lat="42.43327" lon="18.69419">
        <ele>53.870445</ele>
        <time>2022-05-29T10:25:39.725Z</time>
      </trkpt>
      <trkpt lat="42.43336" lon="18.6942">
        <ele>54.149677</ele>
        <time>2022-05-29T10:25:42.719Z</time>
      </trkpt>
      <trkpt lat="42.4334" lon="18.69407">
        <ele>54.467691</ele>
        <time>2022-05-29T10:25:47.737Z</time>
      </trkpt>
      <trkpt lat="42.43339" lon="18.69392">
        <ele>54.813489</ele>
        <time>2022-05-29T10:25:51.721Z</time>
      </trkpt>
      <trkpt lat="42.43338" lon="18.69378">
        <ele>55.132287</ele>
        <time>2022-05-29T10:25:55.776Z</time>
      </trkpt>
      <trkpt lat="42.43337" lon="18.69365">
        <ele>55.415287</ele>
        <time>2022-05-29T10:25:58.716Z</time>
      </trkpt>
      <trkpt lat="42.43336" lon="18.69352">
        <ele>55.7188</ele>
        <time>2022-05-29T10:26:01.736Z</time>
      </trkpt>
      <trkpt lat="42.43339" lon="18.6934">
        <ele>56.018352</ele>
        <time>2022-05-29T10:26:05.723Z</time>
      </trkpt>
      <trkpt lat="42.43347" lon="18.69334">
        <ele>56.303637</ele>
        <time>2022-05-29T10:26:10.736Z</time>
      </trkpt>
      <trkpt lat="42.43356" lon="18.69328">
        <ele>56.603321</ele>
        <time>2022-05-29T10:26:15.725Z</time>
      </trkpt>
      <trkpt lat="42.43364" lon="18.69319">
        <ele>56.927156</ele>
        <time>2022-05-29T10:26:19.715Z</time>
      </trkpt>
      <trkpt lat="42.43374" lon="18.69315">
        <ele>57.260144</ele>
        <time>2022-05-29T10:26:23.725Z</time>
      </trkpt>
      <trkpt lat="42.43385" lon="18.69313">
        <ele>57.592471</ele>
        <time>2022-05-29T10:26:27.735Z</time>
      </trkpt>
      <trkpt lat="42.43395" lon="18.69312">
        <ele>57.911277</ele>
        <time>2022-05-29T10:26:31.731Z</time>
      </trkpt>
      <trkpt lat="42.43405" lon="18.69309">
        <ele>58.227154</ele>
        <time>2022-05-29T10:26:35.719Z</time>
      </trkpt>
      <trkpt lat="42.43415" lon="18.69306">
        <ele>58.550944</ele>
        <time>2022-05-29T10:26:39.716Z</time>
      </trkpt>
      <trkpt lat="42.43424" lon="18.69302">
        <ele>58.43294</ele>
        <time>2022-05-29T10:26:43.712Z</time>
      </trkpt>
      <trkpt lat="42.43434" lon="18.693">
        <ele>58.250959</ele>
        <time>2022-05-29T10:26:47.753Z</time>
      </trkpt>
      <trkpt lat="42.43444" lon="18.69294">
        <ele>58.071404</ele>
        <time>2022-05-29T10:26:51.742Z</time>
      </trkpt>
      <trkpt lat="42.43453" lon="18.69291">
        <ele>57.894962</ele>
        <time>2022-05-29T10:26:54.720Z</time>
      </trkpt>
      <trkpt lat="42.43465" lon="18.69293">
        <ele>57.684809</ele>
        <time>2022-05-29T10:26:58.722Z</time>
      </trkpt>
      <trkpt lat="42.43476" lon="18.69292">
        <ele>57.479415</ele>
        <time>2022-05-29T10:27:02.727Z</time>
      </trkpt>
      <trkpt lat="42.43488" lon="18.69289">
        <ele>57.272541</ele>
        <time>2022-05-29T10:27:06.732Z</time>
      </trkpt>
      <trkpt lat="42.43498" lon="18.69285">
        <ele>57.087395</ele>
        <time>2022-05-29T10:27:09.724Z</time>
      </trkpt>
      <trkpt lat="42.43508" lon="18.69282">
        <ele>56.9013</ele>
        <time>2022-05-29T10:27:13.723Z</time>
      </trkpt>
      <trkpt lat="42.43519" lon="18.6928">
        <ele>56.702855</ele>
        <time>2022-05-29T10:27:17.736Z</time>
      </trkpt>
      <trkpt lat="42.43528" lon="18.69278">
        <ele>56.530139</ele>
        <time>2022-05-29T10:27:20.743Z</time>
      </trkpt>
      <trkpt lat="42.43538" lon="18.69277">
        <ele>56.352746</ele>
        <time>2022-05-29T10:27:23.732Z</time>
      </trkpt>
      <trkpt lat="42.43549" lon="18.69277">
        <ele>56.159777</ele>
        <time>2022-05-29T10:27:26.734Z</time>
      </trkpt>
      <trkpt lat="42.43559" lon="18.69274">
        <ele>55.980627</ele>
        <time>2022-05-29T10:27:29.720Z</time>
      </trkpt>
      <trkpt lat="42.43569" lon="18.69271">
        <ele>55.790361</ele>
        <time>2022-05-29T10:27:32.745Z</time>
      </trkpt>
      <trkpt lat="42.43581" lon="18.69269">
        <ele>55.573875</ele>
        <time>2022-05-29T10:27:35.763Z</time>
      </trkpt>
      <trkpt lat="42.43591" lon="18.69268">
        <ele>55.392927</ele>
        <time>2022-05-29T10:27:38.733Z</time>
      </trkpt>
      <trkpt lat="42.43601" lon="18.69266">
        <ele>55.00819</ele>
        <time>2022-05-29T10:27:41.734Z</time>
      </trkpt>
      <trkpt lat="42.43611" lon="18.69264">
        <ele>54.558737</ele>
        <time>2022-05-29T10:27:44.724Z</time>
      </trkpt>
      <trkpt lat="42.43621" lon="18.69269">
        <ele>54.086416</ele>
        <time>2022-05-29T10:27:48.721Z</time>
      </trkpt>
      <trkpt lat="42.43627" lon="18.69278">
        <ele>53.693008</ele>
        <time>2022-05-29T10:27:51.718Z</time>
      </trkpt>
      <trkpt lat="42.43633" lon="18.69288">
        <ele>53.274866</ele>
        <time>2022-05-29T10:27:54.723Z</time>
      </trkpt>
      <trkpt lat="42.43642" lon="18.693">
        <ele>52.749535</ele>
        <time>2022-05-29T10:27:58.723Z</time>
      </trkpt>
      <trkpt lat="42.43649" lon="18.69307">
        <ele>52.338004</ele>
        <time>2022-05-29T10:28:01.734Z</time>
      </trkpt>
      <trkpt lat="42.43659" lon="18.69308">
        <ele>51.912016</ele>
        <time>2022-05-29T10:28:04.743Z</time>
      </trkpt>
      <trkpt lat="42.43668" lon="18.69305">
        <ele>51.510125</ele>
        <time>2022-05-29T10:28:07.719Z</time>
      </trkpt>
      <trkpt lat="42.43677" lon="18.69301">
        <ele>51.08305</ele>
        <time>2022-05-29T10:28:13.739Z</time>
      </trkpt>
      <trkpt lat="42.43687" lon="18.69299">
        <ele>50.630325</ele>
        <time>2022-05-29T10:28:17.718Z</time>
      </trkpt>
      <trkpt lat="42.43698" lon="18.69298">
        <ele>50.155179</ele>
        <time>2022-05-29T10:28:20.718Z</time>
      </trkpt>
      <trkpt lat="42.43708" lon="18.69295">
        <ele>49.699374</ele>
        <time>2022-05-29T10:28:23.731Z</time>
      </trkpt>
      <trkpt lat="42.43718" lon="18.69292">
        <ele>49.269907</ele>
        <time>2022-05-29T10:28:26.741Z</time>
      </trkpt>
      <trkpt lat="42.43727" lon="18.69289">
        <ele>48.84604</ele>
        <time>2022-05-29T10:28:29.736Z</time>
      </trkpt>
      <trkpt lat="42.43738" lon="18.69285">
        <ele>48.355521</ele>
        <time>2022-05-29T10:28:33.736Z</time>
      </trkpt>
      <trkpt lat="42.43747" lon="18.69275">
        <ele>47.836813</ele>
        <time>2022-05-29T10:28:37.730Z</time>
      </trkpt>
      <trkpt lat="42.43755" lon="18.69264">
        <ele>47.556977</ele>
        <time>2022-05-29T10:28:41.722Z</time>
      </trkpt>
      <trkpt lat="42.43761" lon="18.69254">
        <ele>47.676464</ele>
        <time>2022-05-29T10:28:44.749Z</time>
      </trkpt>
      <trkpt lat="42.43768" lon="18.69241">
        <ele>47.813425</ele>
        <time>2022-05-29T10:28:47.725Z</time>
      </trkpt>
      <trkpt lat="42.43773" lon="18.69229">
        <ele>47.947372</ele>
        <time>2022-05-29T10:28:50.726Z</time>
      </trkpt>
      <trkpt lat="42.43778" lon="18.69217">
        <ele>48.072748</ele>
        <time>2022-05-29T10:28:53.721Z</time>
      </trkpt>
      <trkpt lat="42.43783" lon="18.69206">
        <ele>48.184709</ele>
        <time>2022-05-29T10:28:56.723Z</time>
      </trkpt>
      <trkpt lat="42.43789" lon="18.69193">
        <ele>48.326925</ele>
        <time>2022-05-29T10:29:00.717Z</time>
      </trkpt>
      <trkpt lat="42.43794" lon="18.69182">
        <ele>48.440825</ele>
        <time>2022-05-29T10:29:03.719Z</time>
      </trkpt>
      <trkpt lat="42.438" lon="18.69171">
        <ele>48.562491</ele>
        <time>2022-05-29T10:29:06.728Z</time>
      </trkpt>
      <trkpt lat="42.43809" lon="18.69166">
        <ele>48.686256</ele>
        <time>2022-05-29T10:29:10.768Z</time>
      </trkpt>
      <trkpt lat="42.43817" lon="18.69159">
        <ele>48.802595</ele>
        <time>2022-05-29T10:29:13.721Z</time>
      </trkpt>
      <trkpt lat="42.43825" lon="18.6915">
        <ele>48.931104</ele>
        <time>2022-05-29T10:29:16.718Z</time>
      </trkpt>
      <trkpt lat="42.43832" lon="18.69141">
        <ele>49.055543</ele>
        <time>2022-05-29T10:29:19.719Z</time>
      </trkpt>
      <trkpt lat="42.43839" lon="18.69133">
        <ele>49.166023</ele>
        <time>2022-05-29T10:29:22.724Z</time>
      </trkpt>
      <trkpt lat="42.43846" lon="18.69123">
        <ele>49.28781</ele>
        <time>2022-05-29T10:29:25.738Z</time>
      </trkpt>
      <trkpt lat="42.43853" lon="18.69114">
        <ele>49.410716</ele>
        <time>2022-05-29T10:29:28.734Z</time>
      </trkpt>
      <trkpt lat="42.43861" lon="18.69107">
        <ele>49.523966</ele>
        <time>2022-05-29T10:29:31.721Z</time>
      </trkpt>
      <trkpt lat="42.43868" lon="18.69098">
        <ele>49.636853</ele>
        <time>2022-05-29T10:29:34.729Z</time>
      </trkpt>
      <trkpt lat="42.43875" lon="18.6909">
        <ele>49.696671</ele>
        <time>2022-05-29T10:29:37.726Z</time>
      </trkpt>
      <trkpt lat="42.43884" lon="18.6908">
        <ele>49.609967</ele>
        <time>2022-05-29T10:29:41.717Z</time>
      </trkpt>
      <trkpt lat="42.43891" lon="18.69069">
        <ele>49.52947</ele>
        <time>2022-05-29T10:29:44.737Z</time>
      </trkpt>
      <trkpt lat="42.43897" lon="18.69059">
        <ele>49.450793</ele>
        <time>2022-05-29T10:29:47.716Z</time>
      </trkpt>
      <trkpt lat="42.43904" lon="18.69047">
        <ele>49.369157</ele>
        <time>2022-05-29T10:29:50.740Z</time>
      </trkpt>
      <trkpt lat="42.4391" lon="18.69036">
        <ele>49.293301</ele>
        <time>2022-05-29T10:29:53.720Z</time>
      </trkpt>
      <trkpt lat="42.43916" lon="18.69025">
        <ele>49.217401</ele>
        <time>2022-05-29T10:29:56.717Z</time>
      </trkpt>
      <trkpt lat="42.43922" lon="18.69014">
        <ele>49.141455</ele>
        <time>2022-05-29T10:29:59.751Z</time>
      </trkpt>
      <trkpt lat="42.43926" lon="18.69">
        <ele>49.060053</ele>
        <time>2022-05-29T10:30:02.712Z</time>
      </trkpt>
      <trkpt lat="42.43931" lon="18.68987">
        <ele>48.977958</ele>
        <time>2022-05-29T10:30:05.774Z</time>
      </trkpt>
      <trkpt lat="42.43935" lon="18.68974">
        <ele>48.899159</ele>
        <time>2022-05-29T10:30:08.719Z</time>
      </trkpt>
      <trkpt lat="42.43938" lon="18.68962">
        <ele>48.829225</ele>
        <time>2022-05-29T10:30:11.739Z</time>
      </trkpt>
      <trkpt lat="42.43941" lon="18.6895">
        <ele>48.758241</ele>
        <time>2022-05-29T10:30:14.726Z</time>
      </trkpt>
      <trkpt lat="42.43944" lon="18.68935">
        <ele>48.673567</ele>
        <time>2022-05-29T10:30:17.733Z</time>
      </trkpt>
      <trkpt lat="42.43948" lon="18.68921">
        <ele>48.592374</ele>
        <time>2022-05-29T10:30:20.733Z</time>
      </trkpt>
      <trkpt lat="42.43951" lon="18.68908">
        <ele>48.51757</ele>
        <time>2022-05-29T10:30:23.743Z</time>
      </trkpt>
      <trkpt lat="42.4395" lon="18.68894">
        <ele>48.439425</ele>
        <time>2022-05-29T10:30:26.747Z</time>
      </trkpt>
      <trkpt lat="42.4395" lon="18.68881">
        <ele>48.368471</ele>
        <time>2022-05-29T10:30:29.727Z</time>
      </trkpt>
      <trkpt lat="42.43951" lon="18.68867">
        <ele>48.428169</ele>
        <time>2022-05-29T10:30:34.770Z</time>
      </trkpt>
      <trkpt lat="42.43952" lon="18.68854">
        <ele>48.488079</ele>
        <time>2022-05-29T10:30:38.720Z</time>
      </trkpt>
      <trkpt lat="42.43954" lon="18.68838">
        <ele>48.563488</ele>
        <time>2022-05-29T10:30:42.730Z</time>
      </trkpt>
      <trkpt lat="42.43957" lon="18.68826">
        <ele>48.624532</ele>
        <time>2022-05-29T10:30:45.720Z</time>
      </trkpt>
      <trkpt lat="42.43959" lon="18.68813">
        <ele>48.684785</ele>
        <time>2022-05-29T10:30:48.758Z</time>
      </trkpt>
      <trkpt lat="42.43963" lon="18.68802">
        <ele>48.741059</ele>
        <time>2022-05-29T10:30:51.714Z</time>
      </trkpt>
      <trkpt lat="42.43965" lon="18.68787">
        <ele>48.810215</ele>
        <time>2022-05-29T10:30:55.753Z</time>
      </trkpt>
      <trkpt lat="42.43968" lon="18.68775">
        <ele>48.870614</ele>
        <time>2022-05-29T10:30:58.720Z</time>
      </trkpt>
      <trkpt lat="42.43971" lon="18.68762">
        <ele>48.935627</ele>
        <time>2022-05-29T10:31:01.716Z</time>
      </trkpt>
      <trkpt lat="42.43976" lon="18.68751">
        <ele>48.992348</ele>
        <time>2022-05-29T10:31:04.714Z</time>
      </trkpt>
      <trkpt lat="42.43983" lon="18.68739">
        <ele>49.060734</ele>
        <time>2022-05-29T10:31:08.732Z</time>
      </trkpt>
      <trkpt lat="42.4399" lon="18.68728">
        <ele>49.128523</ele>
        <time>2022-05-29T10:31:13.733Z</time>
      </trkpt>
      <trkpt lat="42.43995" lon="18.68718">
        <ele>49.186498</ele>
        <time>2022-05-29T10:31:17.726Z</time>
      </trkpt>
      <trkpt lat="42.44003" lon="18.68708">
        <ele>49.256654</ele>
        <time>2022-05-29T10:31:21.731Z</time>
      </trkpt>
      <trkpt lat="42.44012" lon="18.68699">
        <ele>49.323602</ele>
        <time>2022-05-29T10:31:25.777Z</time>
      </trkpt>
      <trkpt lat="42.44021" lon="18.68692">
        <ele>49.388884</ele>
        <time>2022-05-29T10:31:29.724Z</time>
      </trkpt>
      <trkpt lat="42.44031" lon="18.68688">
        <ele>49.451869</ele>
        <time>2022-05-29T10:31:33.740Z</time>
      </trkpt>
      <trkpt lat="42.44041" lon="18.68684">
        <ele>49.432412</ele>
        <time>2022-05-29T10:31:37.732Z</time>
      </trkpt>
      <trkpt lat="42.44051" lon="18.68683">
        <ele>49.323288</ele>
        <time>2022-05-29T10:31:40.720Z</time>
      </trkpt>
      <trkpt lat="42.4406" lon="18.68681">
        <ele>49.206961</ele>
        <time>2022-05-29T10:31:43.730Z</time>
      </trkpt>
      <trkpt lat="42.44072" lon="18.68681">
        <ele>49.0687</ele>
        <time>2022-05-29T10:31:46.725Z</time>
      </trkpt>
      <trkpt lat="42.44082" lon="18.68681">
        <ele>48.943579</ele>
        <time>2022-05-29T10:31:49.713Z</time>
      </trkpt>
      <trkpt lat="42.44094" lon="18.68682">
        <ele>48.808754</ele>
        <time>2022-05-29T10:31:52.732Z</time>
      </trkpt>
      <trkpt lat="42.44106" lon="18.68685">
        <ele>48.664092</ele>
        <time>2022-05-29T10:31:55.737Z</time>
      </trkpt>
      <trkpt lat="42.44117" lon="18.6869">
        <ele>48.518509</ele>
        <time>2022-05-29T10:31:58.722Z</time>
      </trkpt>
      <trkpt lat="42.44127" lon="18.68696">
        <ele>48.384578</ele>
        <time>2022-05-29T10:32:01.724Z</time>
      </trkpt>
      <trkpt lat="42.44137" lon="18.68702">
        <ele>48.256753</ele>
        <time>2022-05-29T10:32:05.723Z</time>
      </trkpt>
      <trkpt lat="42.44147" lon="18.68705">
        <ele>48.137233</ele>
        <time>2022-05-29T10:32:08.725Z</time>
      </trkpt>
      <trkpt lat="42.44159" lon="18.68707">
        <ele>47.996103</ele>
        <time>2022-05-29T10:32:11.731Z</time>
      </trkpt>
      <trkpt lat="42.44171" lon="18.68709">
        <ele>47.853527</ele>
        <time>2022-05-29T10:32:14.730Z</time>
      </trkpt>
      <trkpt lat="42.44182" lon="18.68708">
        <ele>47.724735</ele>
        <time>2022-05-29T10:32:17.773Z</time>
      </trkpt>
      <trkpt lat="42.44193" lon="18.68712">
        <ele>47.586622</ele>
        <time>2022-05-29T10:32:21.721Z</time>
      </trkpt>
      <trkpt lat="42.44202" lon="18.68712">
        <ele>47.475797</ele>
        <time>2022-05-29T10:32:24.724Z</time>
      </trkpt>
      <trkpt lat="42.44214" lon="18.68711">
        <ele>47.356831</ele>
        <time>2022-05-29T10:32:28.742Z</time>
      </trkpt>
      <trkpt lat="42.44223" lon="18.68709">
        <ele>47.460529</ele>
        <time>2022-05-29T10:32:31.728Z</time>
      </trkpt>
      <trkpt lat="42.44234" lon="18.68708">
        <ele>47.584007</ele>
        <time>2022-05-29T10:32:34.716Z</time>
      </trkpt>
      <trkpt lat="42.44243" lon="18.68707">
        <ele>47.693508</ele>
        <time>2022-05-29T10:32:37.743Z</time>
      </trkpt>
      <trkpt lat="42.44255" lon="18.68706">
        <ele>47.819658</ele>
        <time>2022-05-29T10:32:41.719Z</time>
      </trkpt>
      <trkpt lat="42.44265" lon="18.68707">
        <ele>47.936975</ele>
        <time>2022-05-29T10:32:45.735Z</time>
      </trkpt>
      <trkpt lat="42.44276" lon="18.68707">
        <ele>48.064243</ele>
        <time>2022-05-29T10:32:49.715Z</time>
      </trkpt>
      <trkpt lat="42.44287" lon="18.68706">
        <ele>48.185394</ele>
        <time>2022-05-29T10:32:52.713Z</time>
      </trkpt>
      <trkpt lat="42.44297" lon="18.68701">
        <ele>48.309422</ele>
        <time>2022-05-29T10:32:55.751Z</time>
      </trkpt>
      <trkpt lat="42.44308" lon="18.68697">
        <ele>48.429485</ele>
        <time>2022-05-29T10:32:58.734Z</time>
      </trkpt>
      <trkpt lat="42.44318" lon="18.68693">
        <ele>48.548969</ele>
        <time>2022-05-29T10:33:02.730Z</time>
      </trkpt>
      <trkpt lat="42.44328" lon="18.68691">
        <ele>48.665291</ele>
        <time>2022-05-29T10:33:07.741Z</time>
      </trkpt>
      <trkpt lat="42.44337" lon="18.68688">
        <ele>48.771671</ele>
        <time>2022-05-29T10:33:13.722Z</time>
      </trkpt>
      <trkpt lat="42.44347" lon="18.68687">
        <ele>48.877698</ele>
        <time>2022-05-29T10:33:18.743Z</time>
      </trkpt>
      <trkpt lat="42.44357" lon="18.68685">
        <ele>48.995778</ele>
        <time>2022-05-29T10:33:22.737Z</time>
      </trkpt>
      <trkpt lat="42.44366" lon="18.68684">
        <ele>49.097714</ele>
        <time>2022-05-29T10:33:26.734Z</time>
      </trkpt>
      <trkpt lat="42.44377" lon="18.68686">
        <ele>49.228634</ele>
        <time>2022-05-29T10:33:30.721Z</time>
      </trkpt>
      <trkpt lat="42.44387" lon="18.68692">
        <ele>49.350181</ele>
        <time>2022-05-29T10:33:33.719Z</time>
      </trkpt>
      <trkpt lat="42.44398" lon="18.68692">
        <ele>49.284771</ele>
        <time>2022-05-29T10:33:36.732Z</time>
      </trkpt>
      <trkpt lat="42.4441" lon="18.6869">
        <ele>49.159904</ele>
        <time>2022-05-29T10:33:40.760Z</time>
      </trkpt>
      <trkpt lat="42.44419" lon="18.6869">
        <ele>49.059567</ele>
        <time>2022-05-29T10:33:43.748Z</time>
      </trkpt>
      <trkpt lat="42.44428" lon="18.68689">
        <ele>48.96082</ele>
        <time>2022-05-29T10:33:46.730Z</time>
      </trkpt>
      <trkpt lat="42.44439" lon="18.68688">
        <ele>48.8508</ele>
        <time>2022-05-29T10:33:49.735Z</time>
      </trkpt>
      <trkpt lat="42.44449" lon="18.68689">
        <ele>48.738455</ele>
        <time>2022-05-29T10:33:52.727Z</time>
      </trkpt>
      <trkpt lat="42.4446" lon="18.68689">
        <ele>48.630712</ele>
        <time>2022-05-29T10:33:55.728Z</time>
      </trkpt>
      <trkpt lat="42.4447" lon="18.6869">
        <ele>48.52297</ele>
        <time>2022-05-29T10:33:58.717Z</time>
      </trkpt>
      <trkpt lat="42.44481" lon="18.6869">
        <ele>48.402563</ele>
        <time>2022-05-29T10:34:01.722Z</time>
      </trkpt>
      <trkpt lat="42.44491" lon="18.6869">
        <ele>48.299923</ele>
        <time>2022-05-29T10:34:04.712Z</time>
      </trkpt>
      <trkpt lat="42.445" lon="18.68691">
        <ele>48.199392</ele>
        <time>2022-05-29T10:34:07.740Z</time>
      </trkpt>
      <trkpt lat="42.44511" lon="18.68693">
        <ele>48.09111</ele>
        <time>2022-05-29T10:34:10.753Z</time>
      </trkpt>
      <trkpt lat="42.4452" lon="18.68694">
        <ele>47.98703</ele>
        <time>2022-05-29T10:34:13.719Z</time>
      </trkpt>
      <trkpt lat="42.44531" lon="18.68693">
        <ele>47.873847</ele>
        <time>2022-05-29T10:34:16.754Z</time>
      </trkpt>
      <trkpt lat="42.44541" lon="18.68693">
        <ele>47.765048</ele>
        <time>2022-05-29T10:34:19.725Z</time>
      </trkpt>
      <trkpt lat="42.44551" lon="18.68694">
        <ele>47.664662</ele>
        <time>2022-05-29T10:34:22.749Z</time>
      </trkpt>
      <trkpt lat="42.44561" lon="18.68696">
        <ele>47.556492</ele>
        <time>2022-05-29T10:34:25.726Z</time>
      </trkpt>
      <trkpt lat="42.44571" lon="18.68698">
        <ele>47.498248</ele>
        <time>2022-05-29T10:34:28.745Z</time>
      </trkpt>
      <trkpt lat="42.44582" lon="18.68698">
        <ele>47.623213</ele>
        <time>2022-05-29T10:34:32.740Z</time>
      </trkpt>
      <trkpt lat="42.44592" lon="18.68698">
        <ele>47.728137</ele>
        <time>2022-05-29T10:34:35.736Z</time>
      </trkpt>
      <trkpt lat="42.44601" lon="18.68699">
        <ele>47.834444</ele>
        <time>2022-05-29T10:34:38.723Z</time>
      </trkpt>
      <trkpt lat="42.44613" lon="18.68703">
        <ele>47.965941</ele>
        <time>2022-05-29T10:34:42.748Z</time>
      </trkpt>
      <trkpt lat="42.44624" lon="18.68706">
        <ele>48.095835</ele>
        <time>2022-05-29T10:34:46.739Z</time>
      </trkpt>
      <trkpt lat="42.44636" lon="18.6871">
        <ele>48.232235</ele>
        <time>2022-05-29T10:34:51.745Z</time>
      </trkpt>
      <trkpt lat="42.44648" lon="18.68705">
        <ele>48.370522</ele>
        <time>2022-05-29T10:34:54.732Z</time>
      </trkpt>
      <trkpt lat="42.4466" lon="18.68703">
        <ele>48.507727</ele>
        <time>2022-05-29T10:34:57.723Z</time>
      </trkpt>
      <trkpt lat="42.44674" lon="18.68704">
        <ele>48.661866</ele>
        <time>2022-05-29T10:35:00.772Z</time>
      </trkpt>
      <trkpt lat="42.44684" lon="18.68703">
        <ele>48.777204</ele>
        <time>2022-05-29T10:35:03.747Z</time>
      </trkpt>
      <trkpt lat="42.44695" lon="18.68699">
        <ele>48.901486</ele>
        <time>2022-05-29T10:35:06.725Z</time>
      </trkpt>
      <trkpt lat="42.44705" lon="18.68693">
        <ele>49.026943</ele>
        <time>2022-05-29T10:35:09.719Z</time>
      </trkpt>
      <trkpt lat="42.44715" lon="18.68685">
        <ele>49.155261</ele>
        <time>2022-05-29T10:35:12.729Z</time>
      </trkpt>
      <trkpt lat="42.44722" lon="18.68677">
        <ele>49.260636</ele>
        <time>2022-05-29T10:35:15.742Z</time>
      </trkpt>
      <trkpt lat="42.4473" lon="18.6867">
        <ele>49.364081</ele>
        <time>2022-05-29T10:35:18.742Z</time>
      </trkpt>
      <trkpt lat="42.44738" lon="18.68664">
        <ele>49.46617</ele>
        <time>2022-05-29T10:35:21.749Z</time>
      </trkpt>
      <trkpt lat="42.44747" lon="18.68655">
        <ele>49.400397</ele>
        <time>2022-05-29T10:35:25.719Z</time>
      </trkpt>
      <trkpt lat="42.44758" lon="18.6865">
        <ele>49.303395</ele>
        <time>2022-05-29T10:35:29.735Z</time>
      </trkpt>
      <trkpt lat="42.44767" lon="18.68648">
        <ele>49.222054</ele>
        <time>2022-05-29T10:35:32.729Z</time>
      </trkpt>
      <trkpt lat="42.44776" lon="18.6865">
        <ele>49.145749</ele>
        <time>2022-05-29T10:35:35.715Z</time>
      </trkpt>
      <trkpt lat="42.44787" lon="18.68658">
        <ele>49.04711</ele>
        <time>2022-05-29T10:35:39.713Z</time>
      </trkpt>
      <trkpt lat="42.44795" lon="18.68666">
        <ele>48.965594</ele>
        <time>2022-05-29T10:35:43.721Z</time>
      </trkpt>
      <trkpt lat="42.44801" lon="18.68677">
        <ele>48.88087</ele>
        <time>2022-05-29T10:35:48.738Z</time>
      </trkpt>
      <trkpt lat="42.44807" lon="18.68686">
        <ele>48.804814</ele>
        <time>2022-05-29T10:35:53.781Z</time>
      </trkpt>
      <trkpt lat="42.44817" lon="18.68692">
        <ele>48.711212</ele>
        <time>2022-05-29T10:35:57.720Z</time>
      </trkpt>
      <trkpt lat="42.44828" lon="18.6869">
        <ele>48.618347</ele>
        <time>2022-05-29T10:36:00.751Z</time>
      </trkpt>
      <trkpt lat="42.44839" lon="18.68688">
        <ele>48.527313</ele>
        <time>2022-05-29T10:36:04.753Z</time>
      </trkpt>
      <trkpt lat="42.4485" lon="18.68685">
        <ele>48.428073</ele>
        <time>2022-05-29T10:36:08.711Z</time>
      </trkpt>
      <trkpt lat="42.4486" lon="18.68681">
        <ele>48.343191</ele>
        <time>2022-05-29T10:36:11.724Z</time>
      </trkpt>
      <trkpt lat="42.44871" lon="18.68675">
        <ele>48.248816</ele>
        <time>2022-05-29T10:36:14.718Z</time>
      </trkpt>
      <trkpt lat="42.44881" lon="18.68668">
        <ele>48.152853</ele>
        <time>2022-05-29T10:36:17.730Z</time>
      </trkpt>
      <trkpt lat="42.44891" lon="18.68659">
        <ele>48.051201</ele>
        <time>2022-05-29T10:36:20.720Z</time>
      </trkpt>
      <trkpt lat="42.449" lon="18.6865">
        <ele>47.96964</ele>
        <time>2022-05-29T10:36:23.730Z</time>
      </trkpt>
      <trkpt lat="42.44908" lon="18.68643">
        <ele>47.935072</ele>
        <time>2022-05-29T10:36:26.717Z</time>
      </trkpt>
      <trkpt lat="42.44916" lon="18.68634">
        <ele>47.897004</ele>
        <time>2022-05-29T10:36:29.722Z</time>
      </trkpt>
      <trkpt lat="42.44923" lon="18.68626">
        <ele>47.859702</ele>
        <time>2022-05-29T10:36:32.713Z</time>
      </trkpt>
      <trkpt lat="42.44931" lon="18.68616">
        <ele>47.819512</ele>
        <time>2022-05-29T10:36:35.734Z</time>
      </trkpt>
      <trkpt lat="42.4494" lon="18.68605">
        <ele>47.773054</ele>
        <time>2022-05-29T10:36:38.746Z</time>
      </trkpt>
      <trkpt lat="42.4495" lon="18.68594">
        <ele>47.724683</ele>
        <time>2022-05-29T10:36:41.733Z</time>
      </trkpt>
      <trkpt lat="42.4496" lon="18.68583">
        <ele>47.675724</ele>
        <time>2022-05-29T10:36:44.724Z</time>
      </trkpt>
      <trkpt lat="42.44969" lon="18.68572">
        <ele>47.629367</ele>
        <time>2022-05-29T10:36:47.732Z</time>
      </trkpt>
      <trkpt lat="42.4498" lon="18.6856">
        <ele>47.577298</ele>
        <time>2022-05-29T10:36:50.727Z</time>
      </trkpt>
      <trkpt lat="42.44987" lon="18.68552">
        <ele>47.542906</ele>
        <time>2022-05-29T10:36:52.740Z</time>
      </trkpt>
      <trkpt lat="42.44995" lon="18.68544">
        <ele>47.506716</ele>
        <time>2022-05-29T10:36:54.740Z</time>
      </trkpt>
      <trkpt lat="42.45002" lon="18.68537">
        <ele>47.470887</ele>
        <time>2022-05-29T10:36:56.719Z</time>
      </trkpt>
      <trkpt lat="42.4501" lon="18.6853">
        <ele>47.435228</ele>
        <time>2022-05-29T10:36:58.761Z</time>
      </trkpt>
      <trkpt lat="42.45018" lon="18.68523">
        <ele>47.400162</ele>
        <time>2022-05-29T10:37:00.718Z</time>
      </trkpt>
      <trkpt lat="42.45027" lon="18.68517">
        <ele>47.363429</ele>
        <time>2022-05-29T10:37:02.724Z</time>
      </trkpt>
      <trkpt lat="42.45036" lon="18.68513">
        <ele>47.326022</ele>
        <time>2022-05-29T10:37:04.736Z</time>
      </trkpt>
      <trkpt lat="42.45045" lon="18.68508">
        <ele>47.341383</ele>
        <time>2022-05-29T10:37:06.728Z</time>
      </trkpt>
      <trkpt lat="42.45054" lon="18.68505">
        <ele>47.476195</ele>
        <time>2022-05-29T10:37:08.743Z</time>
      </trkpt>
      <trkpt lat="42.45064" lon="18.68504">
        <ele>47.614664</ele>
        <time>2022-05-29T10:37:10.744Z</time>
      </trkpt>
      <trkpt lat="42.45074" lon="18.68502">
        <ele>47.754128</ele>
        <time>2022-05-29T10:37:12.732Z</time>
      </trkpt>
      <trkpt lat="42.45084" lon="18.68501">
        <ele>47.900015</ele>
        <time>2022-05-29T10:37:14.723Z</time>
      </trkpt>
      <trkpt lat="42.45094" lon="18.685">
        <ele>48.047477</ele>
        <time>2022-05-29T10:37:16.740Z</time>
      </trkpt>
      <trkpt lat="42.45104" lon="18.68498">
        <ele>48.188236</ele>
        <time>2022-05-29T10:37:18.739Z</time>
      </trkpt>
      <trkpt lat="42.45114" lon="18.68497">
        <ele>48.333496</ele>
        <time>2022-05-29T10:37:20.709Z</time>
      </trkpt>
      <trkpt lat="42.45125" lon="18.68494">
        <ele>48.48483</ele>
        <time>2022-05-29T10:37:22.727Z</time>
      </trkpt>
      <trkpt lat="42.45133" lon="18.68491">
        <ele>48.614772</ele>
        <time>2022-05-29T10:37:24.776Z</time>
      </trkpt>
      <trkpt lat="42.45146" lon="18.68487">
        <ele>48.804628</ele>
        <time>2022-05-29T10:37:27.756Z</time>
      </trkpt>
      <trkpt lat="42.45155" lon="18.68483">
        <ele>48.935457</ele>
        <time>2022-05-29T10:37:29.765Z</time>
      </trkpt>
      <trkpt lat="42.45164" lon="18.68478">
        <ele>49.073004</ele>
        <time>2022-05-29T10:37:31.727Z</time>
      </trkpt>
      <trkpt lat="42.45173" lon="18.68474">
        <ele>49.210902</ele>
        <time>2022-05-29T10:37:33.787Z</time>
      </trkpt>
      <trkpt lat="42.45183" lon="18.6847">
        <ele>49.359271</ele>
        <time>2022-05-29T10:37:35.715Z</time>
      </trkpt>
      <trkpt lat="42.45193" lon="18.68466">
        <ele>49.504291</ele>
        <time>2022-05-29T10:37:37.737Z</time>
      </trkpt>
      <trkpt lat="42.45203" lon="18.68462">
        <ele>49.652519</ele>
        <time>2022-05-29T10:37:39.719Z</time>
      </trkpt>
      <trkpt lat="42.45214" lon="18.68459">
        <ele>49.81386</ele>
        <time>2022-05-29T10:37:41.735Z</time>
      </trkpt>
      <trkpt lat="42.45224" lon="18.68455">
        <ele>49.767975</ele>
        <time>2022-05-29T10:37:43.723Z</time>
      </trkpt>
      <trkpt lat="42.45234" lon="18.6845">
        <ele>49.62264</ele>
        <time>2022-05-29T10:37:45.722Z</time>
      </trkpt>
      <trkpt lat="42.45244" lon="18.68448">
        <ele>49.47685</ele>
        <time>2022-05-29T10:37:47.734Z</time>
      </trkpt>
      <trkpt lat="42.45254" lon="18.68445">
        <ele>49.329012</ele>
        <time>2022-05-29T10:37:49.731Z</time>
      </trkpt>
      <trkpt lat="42.45264" lon="18.68441">
        <ele>49.184108</ele>
        <time>2022-05-29T10:37:51.748Z</time>
      </trkpt>
      <trkpt lat="42.45274" lon="18.68438">
        <ele>49.030893</ele>
        <time>2022-05-29T10:37:53.751Z</time>
      </trkpt>
      <trkpt lat="42.45285" lon="18.68435">
        <ele>48.876034</ele>
        <time>2022-05-29T10:37:55.756Z</time>
      </trkpt>
      <trkpt lat="42.45295" lon="18.68431">
        <ele>48.721171</ele>
        <time>2022-05-29T10:37:57.761Z</time>
      </trkpt>
      <trkpt lat="42.45305" lon="18.68426">
        <ele>48.574212</ele>
        <time>2022-05-29T10:37:59.749Z</time>
      </trkpt>
      <trkpt lat="42.45315" lon="18.68423">
        <ele>48.421491</ele>
        <time>2022-05-29T10:38:01.730Z</time>
      </trkpt>
      <trkpt lat="42.45326" lon="18.6842">
        <ele>48.270162</ele>
        <time>2022-05-29T10:38:03.747Z</time>
      </trkpt>
      <trkpt lat="42.45336" lon="18.68417">
        <ele>48.116284</ele>
        <time>2022-05-29T10:38:05.724Z</time>
      </trkpt>
      <trkpt lat="42.45347" lon="18.68414">
        <ele>47.962262</ele>
        <time>2022-05-29T10:38:07.736Z</time>
      </trkpt>
      <trkpt lat="42.45357" lon="18.6841">
        <ele>47.815429</ele>
        <time>2022-05-29T10:38:09.736Z</time>
      </trkpt>
      <trkpt lat="42.45366" lon="18.68406">
        <ele>47.670465</ele>
        <time>2022-05-29T10:38:11.732Z</time>
      </trkpt>
      <trkpt lat="42.45376" lon="18.68401">
        <ele>47.52759</ele>
        <time>2022-05-29T10:38:13.747Z</time>
      </trkpt>
      <trkpt lat="42.45385" lon="18.68398">
        <ele>47.391749</ele>
        <time>2022-05-29T10:38:15.750Z</time>
      </trkpt>
      <trkpt lat="42.45394" lon="18.68393">
        <ele>47.243253</ele>
        <time>2022-05-29T10:38:17.724Z</time>
      </trkpt>
      <trkpt lat="42.45404" lon="18.68388">
        <ele>47.090497</ele>
        <time>2022-05-29T10:38:19.738Z</time>
      </trkpt>
      <trkpt lat="42.45412" lon="18.68383">
        <ele>46.941729</ele>
        <time>2022-05-29T10:38:21.736Z</time>
      </trkpt>
      <trkpt lat="42.45421" lon="18.68378">
        <ele>46.789241</ele>
        <time>2022-05-29T10:38:23.781Z</time>
      </trkpt>
      <trkpt lat="42.4543" lon="18.68371">
        <ele>46.637</ele>
        <time>2022-05-29T10:38:25.724Z</time>
      </trkpt>
      <trkpt lat="42.45439" lon="18.68364">
        <ele>46.485638</ele>
        <time>2022-05-29T10:38:27.758Z</time>
      </trkpt>
      <trkpt lat="42.45447" lon="18.68356">
        <ele>46.331793</ele>
        <time>2022-05-29T10:38:29.767Z</time>
      </trkpt>
      <trkpt lat="42.45454" lon="18.68348">
        <ele>46.181974</ele>
        <time>2022-05-29T10:38:31.745Z</time>
      </trkpt>
      <trkpt lat="42.45462" lon="18.68339">
        <ele>46.031605</ele>
        <time>2022-05-29T10:38:33.724Z</time>
      </trkpt>
      <trkpt lat="42.45469" lon="18.6833">
        <ele>45.8835</ele>
        <time>2022-05-29T10:38:35.739Z</time>
      </trkpt>
      <trkpt lat="42.45476" lon="18.68322">
        <ele>45.739961</ele>
        <time>2022-05-29T10:38:37.740Z</time>
      </trkpt>
      <trkpt lat="42.45482" lon="18.68312">
        <ele>45.590718</ele>
        <time>2022-05-29T10:38:39.729Z</time>
      </trkpt>
      <trkpt lat="42.45491" lon="18.68298">
        <ele>45.384505</ele>
        <time>2022-05-29T10:38:42.716Z</time>
      </trkpt>
      <trkpt lat="42.45496" lon="18.68287">
        <ele>45.236824</ele>
        <time>2022-05-29T10:38:44.737Z</time>
      </trkpt>
      <trkpt lat="42.45503" lon="18.68277">
        <ele>45.082322</ele>
        <time>2022-05-29T10:38:46.728Z</time>
      </trkpt>
      <trkpt lat="42.45509" lon="18.68267">
        <ele>44.930075</ele>
        <time>2022-05-29T10:38:48.735Z</time>
      </trkpt>
      <trkpt lat="42.45516" lon="18.68256">
        <ele>44.772309</ele>
        <time>2022-05-29T10:38:50.757Z</time>
      </trkpt>
      <trkpt lat="42.45523" lon="18.68245">
        <ele>44.612669</ele>
        <time>2022-05-29T10:38:52.732Z</time>
      </trkpt>
      <trkpt lat="42.4553" lon="18.68234">
        <ele>44.576416</ele>
        <time>2022-05-29T10:38:54.765Z</time>
      </trkpt>
      <trkpt lat="42.45537" lon="18.68224">
        <ele>44.652214</ele>
        <time>2022-05-29T10:38:56.742Z</time>
      </trkpt>
      <trkpt lat="42.45543" lon="18.68214">
        <ele>44.72349</ele>
        <time>2022-05-29T10:38:58.727Z</time>
      </trkpt>
      <trkpt lat="42.4555" lon="18.68205">
        <ele>44.791621</ele>
        <time>2022-05-29T10:39:00.767Z</time>
      </trkpt>
      <trkpt lat="42.45557" lon="18.68197">
        <ele>44.856786</ele>
        <time>2022-05-29T10:39:02.752Z</time>
      </trkpt>
      <trkpt lat="42.45565" lon="18.6819">
        <ele>44.92227</ele>
        <time>2022-05-29T10:39:04.758Z</time>
      </trkpt>
      <trkpt lat="42.45573" lon="18.68184">
        <ele>44.988783</ele>
        <time>2022-05-29T10:39:06.721Z</time>
      </trkpt>
      <trkpt lat="42.45582" lon="18.68179">
        <ele>45.057607</ele>
        <time>2022-05-29T10:39:08.766Z</time>
      </trkpt>
      <trkpt lat="42.45591" lon="18.68175">
        <ele>45.128798</ele>
        <time>2022-05-29T10:39:10.760Z</time>
      </trkpt>
      <trkpt lat="42.456" lon="18.68172">
        <ele>45.194051</ele>
        <time>2022-05-29T10:39:12.742Z</time>
      </trkpt>
      <trkpt lat="42.45609" lon="18.6817">
        <ele>45.261534</ele>
        <time>2022-05-29T10:39:14.742Z</time>
      </trkpt>
      <trkpt lat="42.45619" lon="18.68168">
        <ele>45.334542</ele>
        <time>2022-05-29T10:39:16.736Z</time>
      </trkpt>
      <trkpt lat="42.45629" lon="18.68168">
        <ele>45.40719</ele>
        <time>2022-05-29T10:39:18.744Z</time>
      </trkpt>
      <trkpt lat="42.45639" lon="18.68169">
        <ele>45.479226</ele>
        <time>2022-05-29T10:39:20.740Z</time>
      </trkpt>
      <trkpt lat="42.45649" lon="18.6817">
        <ele>45.549374</ele>
        <time>2022-05-29T10:39:22.750Z</time>
      </trkpt>
      <trkpt lat="42.45658" lon="18.68173">
        <ele>45.61604</ele>
        <time>2022-05-29T10:39:24.741Z</time>
      </trkpt>
      <trkpt lat="42.45668" lon="18.68175">
        <ele>45.684925</ele>
        <time>2022-05-29T10:39:26.737Z</time>
      </trkpt>
      <trkpt lat="42.45677" lon="18.68179">
        <ele>45.754887</ele>
        <time>2022-05-29T10:39:28.744Z</time>
      </trkpt>
      <trkpt lat="42.45686" lon="18.68183">
        <ele>45.823846</ele>
        <time>2022-05-29T10:39:30.744Z</time>
      </trkpt>
      <trkpt lat="42.45696" lon="18.68186">
        <ele>46.000789</ele>
        <time>2022-05-29T10:39:32.750Z</time>
      </trkpt>
      <trkpt lat="42.45706" lon="18.68189">
        <ele>46.191497</ele>
        <time>2022-05-29T10:39:34.752Z</time>
      </trkpt>
      <trkpt lat="42.45715" lon="18.68192">
        <ele>46.381899</ele>
        <time>2022-05-29T10:39:36.716Z</time>
      </trkpt>
      <trkpt lat="42.45725" lon="18.68195">
        <ele>46.563804</ele>
        <time>2022-05-29T10:39:38.767Z</time>
      </trkpt>
      <trkpt lat="42.45734" lon="18.68195">
        <ele>46.738625</ele>
        <time>2022-05-29T10:39:40.749Z</time>
      </trkpt>
      <trkpt lat="42.45747" lon="18.68193">
        <ele>46.979298</ele>
        <time>2022-05-29T10:39:43.743Z</time>
      </trkpt>
      <trkpt lat="42.45759" lon="18.68188">
        <ele>47.221966</ele>
        <time>2022-05-29T10:39:46.733Z</time>
      </trkpt>
      <trkpt lat="42.45771" lon="18.68179">
        <ele>47.476499</ele>
        <time>2022-05-29T10:39:49.752Z</time>
      </trkpt>
      <trkpt lat="42.4578" lon="18.68172">
        <ele>47.662947</ele>
        <time>2022-05-29T10:39:51.780Z</time>
      </trkpt>
      <trkpt lat="42.45788" lon="18.68164">
        <ele>47.854102</ele>
        <time>2022-05-29T10:39:53.735Z</time>
      </trkpt>
      <trkpt lat="42.45797" lon="18.68158">
        <ele>48.04129</ele>
        <time>2022-05-29T10:39:55.743Z</time>
      </trkpt>
      <trkpt lat="42.45806" lon="18.68154">
        <ele>48.219497</ele>
        <time>2022-05-29T10:39:57.732Z</time>
      </trkpt>
      <trkpt lat="42.45816" lon="18.68152">
        <ele>48.41716</ele>
        <time>2022-05-29T10:39:59.734Z</time>
      </trkpt>
      <trkpt lat="42.45828" lon="18.68153">
        <ele>48.62954</ele>
        <time>2022-05-29T10:40:01.727Z</time>
      </trkpt>
      <trkpt lat="42.45839" lon="18.68156">
        <ele>48.839869</ele>
        <time>2022-05-29T10:40:03.734Z</time>
      </trkpt>
      <trkpt lat="42.45849" lon="18.68159">
        <ele>49.045282</ele>
        <time>2022-05-29T10:40:05.742Z</time>
      </trkpt>
      <trkpt lat="42.45861" lon="18.6816">
        <ele>49.182177</ele>
        <time>2022-05-29T10:40:07.734Z</time>
      </trkpt>
      <trkpt lat="42.45872" lon="18.68162">
        <ele>49.092056</ele>
        <time>2022-05-29T10:40:09.736Z</time>
      </trkpt>
      <trkpt lat="42.45883" lon="18.68164">
        <ele>49.004851</ele>
        <time>2022-05-29T10:40:11.730Z</time>
      </trkpt>
      <trkpt lat="42.45892" lon="18.68167">
        <ele>48.929471</ele>
        <time>2022-05-29T10:40:13.721Z</time>
      </trkpt>
      <trkpt lat="42.45902" lon="18.68171">
        <ele>48.848892</ele>
        <time>2022-05-29T10:40:15.723Z</time>
      </trkpt>
      <trkpt lat="42.45912" lon="18.68175">
        <ele>48.764185</ele>
        <time>2022-05-29T10:40:17.740Z</time>
      </trkpt>
      <trkpt lat="42.45922" lon="18.6818">
        <ele>48.681345</ele>
        <time>2022-05-29T10:40:19.712Z</time>
      </trkpt>
      <trkpt lat="42.45932" lon="18.68188">
        <ele>48.58937</ele>
        <time>2022-05-29T10:40:21.756Z</time>
      </trkpt>
      <trkpt lat="42.45941" lon="18.68199">
        <ele>48.490679</ele>
        <time>2022-05-29T10:40:23.734Z</time>
      </trkpt>
      <trkpt lat="42.45951" lon="18.68209">
        <ele>48.394874</ele>
        <time>2022-05-29T10:40:25.789Z</time>
      </trkpt>
      <trkpt lat="42.45959" lon="18.68219">
        <ele>48.307687</ele>
        <time>2022-05-29T10:40:27.721Z</time>
      </trkpt>
      <trkpt lat="42.45967" lon="18.68229">
        <ele>48.221489</ele>
        <time>2022-05-29T10:40:29.744Z</time>
      </trkpt>
      <trkpt lat="42.45975" lon="18.68239">
        <ele>48.13451</ele>
        <time>2022-05-29T10:40:31.752Z</time>
      </trkpt>
      <trkpt lat="42.45985" lon="18.68249">
        <ele>48.039078</ele>
        <time>2022-05-29T10:40:33.736Z</time>
      </trkpt>
      <trkpt lat="42.45993" lon="18.68258">
        <ele>47.951442</ele>
        <time>2022-05-29T10:40:35.732Z</time>
      </trkpt>
      <trkpt lat="42.46002" lon="18.68268">
        <ele>47.859745</ele>
        <time>2022-05-29T10:40:37.773Z</time>
      </trkpt>
      <trkpt lat="42.46011" lon="18.68278">
        <ele>47.778259</ele>
        <time>2022-05-29T10:40:39.736Z</time>
      </trkpt>
      <trkpt lat="42.4602" lon="18.68289">
        <ele>47.768872</ele>
        <time>2022-05-29T10:40:41.763Z</time>
      </trkpt>
      <trkpt lat="42.46028" lon="18.68299">
        <ele>47.759437</ele>
        <time>2022-05-29T10:40:43.781Z</time>
      </trkpt>
      <trkpt lat="42.46035" lon="18.6831">
        <ele>47.750598</ele>
        <time>2022-05-29T10:40:45.739Z</time>
      </trkpt>
      <trkpt lat="42.46043" lon="18.6832">
        <ele>47.741924</ele>
        <time>2022-05-29T10:40:47.724Z</time>
      </trkpt>
      <trkpt lat="42.46051" lon="18.68329">
        <ele>47.733165</ele>
        <time>2022-05-29T10:40:49.745Z</time>
      </trkpt>
      <trkpt lat="42.46059" lon="18.68337">
        <ele>47.724728</ele>
        <time>2022-05-29T10:40:51.768Z</time>
      </trkpt>
      <trkpt lat="42.46069" lon="18.68343">
        <ele>47.716149</ele>
        <time>2022-05-29T10:40:53.747Z</time>
      </trkpt>
      <trkpt lat="42.46079" lon="18.68348">
        <ele>47.707533</ele>
        <time>2022-05-29T10:40:55.755Z</time>
      </trkpt>
      <trkpt lat="42.46088" lon="18.6835">
        <ele>47.699269</ele>
        <time>2022-05-29T10:40:57.762Z</time>
      </trkpt>
      <trkpt lat="42.46101" lon="18.68351">
        <ele>47.688534</ele>
        <time>2022-05-29T10:41:00.743Z</time>
      </trkpt>
      <trkpt lat="42.46113" lon="18.68348">
        <ele>47.678751</ele>
        <time>2022-05-29T10:41:03.734Z</time>
      </trkpt>
      <trkpt lat="42.46126" lon="18.68345">
        <ele>47.667988</ele>
        <time>2022-05-29T10:41:06.745Z</time>
      </trkpt>
      <trkpt lat="42.46138" lon="18.68339">
        <ele>47.657215</ele>
        <time>2022-05-29T10:41:09.777Z</time>
      </trkpt>
      <trkpt lat="42.4615" lon="18.68329">
        <ele>47.646103</ele>
        <time>2022-05-29T10:41:12.760Z</time>
      </trkpt>
      <trkpt lat="42.46157" lon="18.68321">
        <ele>47.638201</ele>
        <time>2022-05-29T10:41:14.731Z</time>
      </trkpt>
      <trkpt lat="42.46167" lon="18.68309">
        <ele>47.566483</ele>
        <time>2022-05-29T10:41:17.740Z</time>
      </trkpt>
      <trkpt lat="42.46175" lon="18.683">
        <ele>47.441097</ele>
        <time>2022-05-29T10:41:19.738Z</time>
      </trkpt>
      <trkpt lat="42.46183" lon="18.68292">
        <ele>47.315421</ele>
        <time>2022-05-29T10:41:21.735Z</time>
      </trkpt>
      <trkpt lat="42.46192" lon="18.68284">
        <ele>47.184213</ele>
        <time>2022-05-29T10:41:23.744Z</time>
      </trkpt>
      <trkpt lat="42.46202" lon="18.68278">
        <ele>47.055822</ele>
        <time>2022-05-29T10:41:25.745Z</time>
      </trkpt>
      <trkpt lat="42.46211" lon="18.68274">
        <ele>46.928324</ele>
        <time>2022-05-29T10:41:27.743Z</time>
      </trkpt>
      <trkpt lat="42.46222" lon="18.68272">
        <ele>46.793162</ele>
        <time>2022-05-29T10:41:29.732Z</time>
      </trkpt>
      <trkpt lat="42.46233" lon="18.68273">
        <ele>46.656368</ele>
        <time>2022-05-29T10:41:31.784Z</time>
      </trkpt>
      <trkpt lat="42.46244" lon="18.68276">
        <ele>46.52258</ele>
        <time>2022-05-29T10:41:33.722Z</time>
      </trkpt>
      <trkpt lat="42.46253" lon="18.68282">
        <ele>46.392292</ele>
        <time>2022-05-29T10:41:35.734Z</time>
      </trkpt>
      <trkpt lat="42.46261" lon="18.6829">
        <ele>46.267163</ele>
        <time>2022-05-29T10:41:37.733Z</time>
      </trkpt>
      <trkpt lat="42.46268" lon="18.68298">
        <ele>46.15001</ele>
        <time>2022-05-29T10:41:39.754Z</time>
      </trkpt>
      <trkpt lat="42.46276" lon="18.68306">
        <ele>46.0308</ele>
        <time>2022-05-29T10:41:41.738Z</time>
      </trkpt>
      <trkpt lat="42.46284" lon="18.68314">
        <ele>45.908296</ele>
        <time>2022-05-29T10:41:43.742Z</time>
      </trkpt>
      <trkpt lat="42.46292" lon="18.68321">
        <ele>45.787136</ele>
        <time>2022-05-29T10:41:45.751Z</time>
      </trkpt>
      <trkpt lat="42.46301" lon="18.68326">
        <ele>45.664783</ele>
        <time>2022-05-29T10:41:47.743Z</time>
      </trkpt>
      <trkpt lat="42.46311" lon="18.68329">
        <ele>45.540233</ele>
        <time>2022-05-29T10:41:49.753Z</time>
      </trkpt>
      <trkpt lat="42.46322" lon="18.68332">
        <ele>45.405408</ele>
        <time>2022-05-29T10:41:51.751Z</time>
      </trkpt>
      <trkpt lat="42.46333" lon="18.68334">
        <ele>45.341895</ele>
        <time>2022-05-29T10:41:53.741Z</time>
      </trkpt>
      <trkpt lat="42.46343" lon="18.68335">
        <ele>45.286538</ele>
        <time>2022-05-29T10:41:55.757Z</time>
      </trkpt>
      <trkpt lat="42.46353" lon="18.68337">
        <ele>45.233442</ele>
        <time>2022-05-29T10:41:57.762Z</time>
      </trkpt>
      <trkpt lat="42.46363" lon="18.68338">
        <ele>45.180089</ele>
        <time>2022-05-29T10:41:59.746Z</time>
      </trkpt>
      <trkpt lat="42.46373" lon="18.6834">
        <ele>45.125058</ele>
        <time>2022-05-29T10:42:01.739Z</time>
      </trkpt>
      <trkpt lat="42.46384" lon="18.68343">
        <ele>45.06782</ele>
        <time>2022-05-29T10:42:03.744Z</time>
      </trkpt>
      <trkpt lat="42.46394" lon="18.68345">
        <ele>45.011297</ele>
        <time>2022-05-29T10:42:05.731Z</time>
      </trkpt>
      <trkpt lat="42.46405" lon="18.6835">
        <ele>44.951937</ele>
        <time>2022-05-29T10:42:07.787Z</time>
      </trkpt>
      <trkpt lat="42.46415" lon="18.68357">
        <ele>44.894062</ele>
        <time>2022-05-29T10:42:09.750Z</time>
      </trkpt>
      <trkpt lat="42.46425" lon="18.68365">
        <ele>44.833559</ele>
        <time>2022-05-29T10:42:11.722Z</time>
      </trkpt>
      <trkpt lat="42.46434" lon="18.68374">
        <ele>44.774363</ele>
        <time>2022-05-29T10:42:13.732Z</time>
      </trkpt>
      <trkpt lat="42.4644" lon="18.68385">
        <ele>44.719208</ele>
        <time>2022-05-29T10:42:15.764Z</time>
      </trkpt>
      <trkpt lat="42.46446" lon="18.68395">
        <ele>44.666458</ele>
        <time>2022-05-29T10:42:17.745Z</time>
      </trkpt>
      <trkpt lat="42.46452" lon="18.68407">
        <ele>44.614774</ele>
        <time>2022-05-29T10:42:19.732Z</time>
      </trkpt>
      <trkpt lat="42.46457" lon="18.68418">
        <ele>44.563142</ele>
        <time>2022-05-29T10:42:21.742Z</time>
      </trkpt>
      <trkpt lat="42.46462" lon="18.68428">
        <ele>44.514465</ele>
        <time>2022-05-29T10:42:23.751Z</time>
      </trkpt>
      <trkpt lat="42.46468" lon="18.68439">
        <ele>44.461971</ele>
        <time>2022-05-29T10:42:25.748Z</time>
      </trkpt>
      <trkpt lat="42.46472" lon="18.6845">
        <ele>44.498683</ele>
        <time>2022-05-29T10:42:27.724Z</time>
      </trkpt>
      <trkpt lat="42.46477" lon="18.68461">
        <ele>44.584531</ele>
        <time>2022-05-29T10:42:29.724Z</time>
      </trkpt>
      <trkpt lat="42.46482" lon="18.68471">
        <ele>44.670214</ele>
        <time>2022-05-29T10:42:31.745Z</time>
      </trkpt>
      <trkpt lat="42.4649" lon="18.68486">
        <ele>44.795403</ele>
        <time>2022-05-29T10:42:34.738Z</time>
      </trkpt>
      <trkpt lat="42.46496" lon="18.68501">
        <ele>44.91144</ele>
        <time>2022-05-29T10:42:37.742Z</time>
      </trkpt>
      <trkpt lat="42.46502" lon="18.68514">
        <ele>45.022965</ele>
        <time>2022-05-29T10:42:40.733Z</time>
      </trkpt>
      <trkpt lat="42.46509" lon="18.68528">
        <ele>45.137964</ele>
        <time>2022-05-29T10:42:43.747Z</time>
      </trkpt>
      <trkpt lat="42.46517" lon="18.68542">
        <ele>45.25861</ele>
        <time>2022-05-29T10:42:46.832Z</time>
      </trkpt>
      <trkpt lat="42.46523" lon="18.68552">
        <ele>45.34804</ele>
        <time>2022-05-29T10:42:48.754Z</time>
      </trkpt>
      <trkpt lat="42.46529" lon="18.68563">
        <ele>45.438022</ele>
        <time>2022-05-29T10:42:50.754Z</time>
      </trkpt>
      <trkpt lat="42.46534" lon="18.68574">
        <ele>45.532473</ele>
        <time>2022-05-29T10:42:52.760Z</time>
      </trkpt>
      <trkpt lat="42.4654" lon="18.68586">
        <ele>45.629898</ele>
        <time>2022-05-29T10:42:54.743Z</time>
      </trkpt>
      <trkpt lat="42.46546" lon="18.68597">
        <ele>45.724879</ele>
        <time>2022-05-29T10:42:56.821Z</time>
      </trkpt>
      <trkpt lat="42.46554" lon="18.68612">
        <ele>45.849862</ele>
        <time>2022-05-29T10:42:59.783Z</time>
      </trkpt>
      <trkpt lat="42.4656" lon="18.68622">
        <ele>45.938184</ele>
        <time>2022-05-29T10:43:01.781Z</time>
      </trkpt>
      <trkpt lat="42.46566" lon="18.68632">
        <ele>46.030285</ele>
        <time>2022-05-29T10:43:03.781Z</time>
      </trkpt>
      <trkpt lat="42.46575" lon="18.68641">
        <ele>46.134057</ele>
        <time>2022-05-29T10:43:05.754Z</time>
      </trkpt>
      <trkpt lat="42.46584" lon="18.68646">
        <ele>46.218074</ele>
        <time>2022-05-29T10:43:07.744Z</time>
      </trkpt>
      <trkpt lat="42.46595" lon="18.68649">
        <ele>46.311055</ele>
        <time>2022-05-29T10:43:09.743Z</time>
      </trkpt>
      <trkpt lat="42.46605" lon="18.68649">
        <ele>46.393033</ele>
        <time>2022-05-29T10:43:11.810Z</time>
      </trkpt>
      <trkpt lat="42.46618" lon="18.68648">
        <ele>46.497383</ele>
        <time>2022-05-29T10:43:14.723Z</time>
      </trkpt>
      <trkpt lat="42.46628" lon="18.68648">
        <ele>46.582674</ele>
        <time>2022-05-29T10:43:17.739Z</time>
      </trkpt>
      <trkpt lat="42.46638" lon="18.68648">
        <ele>46.660519</ele>
        <time>2022-05-29T10:43:21.755Z</time>
      </trkpt>
      <trkpt lat="42.46647" lon="18.68646">
        <ele>46.735682</ele>
        <time>2022-05-29T10:43:25.748Z</time>
      </trkpt>
      <trkpt lat="42.46659" lon="18.68647">
        <ele>46.835966</ele>
        <time>2022-05-29T10:43:29.742Z</time>
      </trkpt>
      <trkpt lat="42.46669" lon="18.68648">
        <ele>46.922988</ele>
        <time>2022-05-29T10:43:32.740Z</time>
      </trkpt>
      <trkpt lat="42.46681" lon="18.68649">
        <ele>47.022505</ele>
        <time>2022-05-29T10:43:35.744Z</time>
      </trkpt>
      <trkpt lat="42.46694" lon="18.6865">
        <ele>47.128708</ele>
        <time>2022-05-29T10:43:38.760Z</time>
      </trkpt>
      <trkpt lat="42.46708" lon="18.68649">
        <ele>47.242156</ele>
        <time>2022-05-29T10:43:41.746Z</time>
      </trkpt>
      <trkpt lat="42.46719" lon="18.68645">
        <ele>47.33882</ele>
        <time>2022-05-29T10:43:44.737Z</time>
      </trkpt>
      <trkpt lat="42.46728" lon="18.68636">
        <ele>47.433751</ele>
        <time>2022-05-29T10:43:47.761Z</time>
      </trkpt>
      <trkpt lat="42.46737" lon="18.68629">
        <ele>47.513992</ele>
        <time>2022-05-29T10:43:49.770Z</time>
      </trkpt>
      <trkpt lat="42.46744" lon="18.6862">
        <ele>47.591402</ele>
        <time>2022-05-29T10:43:51.780Z</time>
      </trkpt>
      <trkpt lat="42.4675" lon="18.68612">
        <ele>47.517394</ele>
        <time>2022-05-29T10:43:53.724Z</time>
      </trkpt>
      <trkpt lat="42.46756" lon="18.68602">
        <ele>47.360193</ele>
        <time>2022-05-29T10:43:55.734Z</time>
      </trkpt>
      <trkpt lat="42.46763" lon="18.68591">
        <ele>47.193072</ele>
        <time>2022-05-29T10:43:57.730Z</time>
      </trkpt>
      <trkpt lat="42.46769" lon="18.68581">
        <ele>47.033891</ele>
        <time>2022-05-29T10:43:59.744Z</time>
      </trkpt>
      <trkpt lat="42.46775" lon="18.68571">
        <ele>46.879603</ele>
        <time>2022-05-29T10:44:01.730Z</time>
      </trkpt>
      <trkpt lat="42.46784" lon="18.6856">
        <ele>46.67572</ele>
        <time>2022-05-29T10:44:04.748Z</time>
      </trkpt>
      <trkpt lat="42.46795" lon="18.68554">
        <ele>46.482629</ele>
        <time>2022-05-29T10:44:07.735Z</time>
      </trkpt>
      <trkpt lat="42.46807" lon="18.68554">
        <ele>46.275644</ele>
        <time>2022-05-29T10:44:10.761Z</time>
      </trkpt>
      <trkpt lat="42.4682" lon="18.68558">
        <ele>46.067125</ele>
        <time>2022-05-29T10:44:13.762Z</time>
      </trkpt>
      <trkpt lat="42.46831" lon="18.68564">
        <ele>45.869499</ele>
        <time>2022-05-29T10:44:16.727Z</time>
      </trkpt>
      <trkpt lat="42.46843" lon="18.6857">
        <ele>45.664062</ele>
        <time>2022-05-29T10:44:19.762Z</time>
      </trkpt>
      <trkpt lat="42.46855" lon="18.68577">
        <ele>45.447255</ele>
        <time>2022-05-29T10:44:22.738Z</time>
      </trkpt>
      <trkpt lat="42.46867" lon="18.68584">
        <ele>45.231655</ele>
        <time>2022-05-29T10:44:25.759Z</time>
      </trkpt>
      <trkpt lat="42.46878" lon="18.68591">
        <ele>45.032597</ele>
        <time>2022-05-29T10:44:28.743Z</time>
      </trkpt>
      <trkpt lat="42.4689" lon="18.68598">
        <ele>44.816542</ele>
        <time>2022-05-29T10:44:31.764Z</time>
      </trkpt>
      <trkpt lat="42.46899" lon="18.686">
        <ele>44.665511</ele>
        <time>2022-05-29T10:44:33.752Z</time>
      </trkpt>
      <trkpt lat="42.46909" lon="18.68598">
        <ele>44.692955</ele>
        <time>2022-05-29T10:44:35.739Z</time>
      </trkpt>
      <trkpt lat="42.46918" lon="18.68598">
        <ele>44.720256</ele>
        <time>2022-05-29T10:44:37.744Z</time>
      </trkpt>
      <trkpt lat="42.4693" lon="18.68601">
        <ele>44.757708</ele>
        <time>2022-05-29T10:44:40.763Z</time>
      </trkpt>
      <trkpt lat="42.46941" lon="18.68607">
        <ele>44.793692</ele>
        <time>2022-05-29T10:44:43.738Z</time>
      </trkpt>
      <trkpt lat="42.46951" lon="18.68618">
        <ele>44.831488</ele>
        <time>2022-05-29T10:44:46.739Z</time>
      </trkpt>
      <trkpt lat="42.4696" lon="18.68631">
        <ele>44.870267</ele>
        <time>2022-05-29T10:44:49.736Z</time>
      </trkpt>
      <trkpt lat="42.4697" lon="18.68641">
        <ele>44.908488</ele>
        <time>2022-05-29T10:44:52.736Z</time>
      </trkpt>
      <trkpt lat="42.4698" lon="18.68649">
        <ele>44.944922</ele>
        <time>2022-05-29T10:44:55.733Z</time>
      </trkpt>
      <trkpt lat="42.46992" lon="18.68657">
        <ele>44.984326</ele>
        <time>2022-05-29T10:44:58.745Z</time>
      </trkpt>
      <trkpt lat="42.47003" lon="18.68664">
        <ele>45.02243</ele>
        <time>2022-05-29T10:45:01.751Z</time>
      </trkpt>
      <trkpt lat="42.47015" lon="18.68671">
        <ele>45.061835</ele>
        <time>2022-05-29T10:45:04.733Z</time>
      </trkpt>
      <trkpt lat="42.47028" lon="18.68677">
        <ele>45.102034</ele>
        <time>2022-05-29T10:45:07.746Z</time>
      </trkpt>
      <trkpt lat="42.47039" lon="18.68682">
        <ele>45.139626</ele>
        <time>2022-05-29T10:45:10.738Z</time>
      </trkpt>
      <trkpt lat="42.47052" lon="18.68688">
        <ele>45.178436</ele>
        <time>2022-05-29T10:45:13.727Z</time>
      </trkpt>
      <trkpt lat="42.47064" lon="18.68693">
        <ele>45.257802</ele>
        <time>2022-05-29T10:45:16.746Z</time>
      </trkpt>
      <trkpt lat="42.47077" lon="18.68694">
        <ele>45.441055</ele>
        <time>2022-05-29T10:45:19.747Z</time>
      </trkpt>
      <trkpt lat="42.4709" lon="18.68693">
        <ele>45.629595</ele>
        <time>2022-05-29T10:45:22.742Z</time>
      </trkpt>
      <trkpt lat="42.47099" lon="18.68692">
        <ele>45.760727</ele>
        <time>2022-05-29T10:45:24.756Z</time>
      </trkpt>
      <trkpt lat="42.47111" lon="18.6869">
        <ele>45.94809</ele>
        <time>2022-05-29T10:45:27.761Z</time>
      </trkpt>
      <trkpt lat="42.47125" lon="18.68688">
        <ele>46.138858</ele>
        <time>2022-05-29T10:45:30.748Z</time>
      </trkpt>
      <trkpt lat="42.47137" lon="18.68686">
        <ele>46.316245</ele>
        <time>2022-05-29T10:45:33.742Z</time>
      </trkpt>
      <trkpt lat="42.47146" lon="18.68686">
        <ele>46.446639</ele>
        <time>2022-05-29T10:45:35.747Z</time>
      </trkpt>
      <trkpt lat="42.47158" lon="18.68687">
        <ele>46.631014</ele>
        <time>2022-05-29T10:45:38.747Z</time>
      </trkpt>
      <trkpt lat="42.47171" lon="18.68686">
        <ele>46.815806</ele>
        <time>2022-05-29T10:45:41.746Z</time>
      </trkpt>
      <trkpt lat="42.4718" lon="18.68683">
        <ele>46.946134</ele>
        <time>2022-05-29T10:45:43.723Z</time>
      </trkpt>
      <trkpt lat="42.47192" lon="18.68679">
        <ele>47.127259</ele>
        <time>2022-05-29T10:45:46.732Z</time>
      </trkpt>
      <trkpt lat="42.47203" lon="18.68674">
        <ele>47.296809</ele>
        <time>2022-05-29T10:45:49.734Z</time>
      </trkpt>
      <trkpt lat="42.47216" lon="18.68669">
        <ele>47.490714</ele>
        <time>2022-05-29T10:45:52.736Z</time>
      </trkpt>
      <trkpt lat="42.47225" lon="18.68665">
        <ele>47.622792</ele>
        <time>2022-05-29T10:45:54.743Z</time>
      </trkpt>
      <trkpt lat="42.47234" lon="18.68663">
        <ele>47.762247</ele>
        <time>2022-05-29T10:45:56.746Z</time>
      </trkpt>
      <trkpt lat="42.47247" lon="18.68661">
        <ele>47.86751</ele>
        <time>2022-05-29T10:45:59.759Z</time>
      </trkpt>
      <trkpt lat="42.47257" lon="18.6866">
        <ele>47.919474</ele>
        <time>2022-05-29T10:46:01.766Z</time>
      </trkpt>
      <trkpt lat="42.47266" lon="18.68658">
        <ele>47.971663</ele>
        <time>2022-05-29T10:46:03.737Z</time>
      </trkpt>
      <trkpt lat="42.47279" lon="18.68655">
        <ele>48.04406</ele>
        <time>2022-05-29T10:46:06.728Z</time>
      </trkpt>
      <trkpt lat="42.47292" lon="18.6865">
        <ele>48.117211</ele>
        <time>2022-05-29T10:46:09.739Z</time>
      </trkpt>
      <trkpt lat="42.47301" lon="18.68647">
        <ele>48.167608</ele>
        <time>2022-05-29T10:46:11.748Z</time>
      </trkpt>
      <trkpt lat="42.47314" lon="18.68648">
        <ele>48.242889</ele>
        <time>2022-05-29T10:46:14.756Z</time>
      </trkpt>
      <trkpt lat="42.47323" lon="18.68651">
        <ele>48.294417</ele>
        <time>2022-05-29T10:46:16.751Z</time>
      </trkpt>
      <trkpt lat="42.47335" lon="18.68657">
        <ele>48.362156</ele>
        <time>2022-05-29T10:46:19.741Z</time>
      </trkpt>
      <trkpt lat="42.47344" lon="18.68665">
        <ele>48.421685</ele>
        <time>2022-05-29T10:46:22.750Z</time>
      </trkpt>
      <trkpt lat="42.47351" lon="18.68674">
        <ele>48.477777</ele>
        <time>2022-05-29T10:46:25.739Z</time>
      </trkpt>
      <trkpt lat="42.47359" lon="18.68681">
        <ele>48.530006</ele>
        <time>2022-05-29T10:46:28.738Z</time>
      </trkpt>
      <trkpt lat="42.47367" lon="18.68687">
        <ele>48.580977</ele>
        <time>2022-05-29T10:46:31.753Z</time>
      </trkpt>
      <trkpt lat="42.47375" lon="18.68694">
        <ele>48.63263</ele>
        <time>2022-05-29T10:46:34.725Z</time>
      </trkpt>
      <trkpt lat="42.47385" lon="18.68701">
        <ele>48.695648</ele>
        <time>2022-05-29T10:46:38.752Z</time>
      </trkpt>
      <trkpt lat="42.47393" lon="18.68708">
        <ele>48.749031</ele>
        <time>2022-05-29T10:46:41.755Z</time>
      </trkpt>
      <trkpt lat="42.47401" lon="18.68715">
        <ele>48.799629</ele>
        <time>2022-05-29T10:46:44.768Z</time>
      </trkpt>
      <trkpt lat="42.47409" lon="18.68724">
        <ele>49.047343</ele>
        <time>2022-05-29T10:46:48.740Z</time>
      </trkpt>
      <trkpt lat="42.47418" lon="18.68734">
        <ele>49.322646</ele>
        <time>2022-05-29T10:46:52.749Z</time>
      </trkpt>
      <trkpt lat="42.47425" lon="18.68744">
        <ele>49.582933</ele>
        <time>2022-05-29T10:46:56.735Z</time>
      </trkpt>
      <trkpt lat="42.47433" lon="18.68754">
        <ele>49.850115</ele>
        <time>2022-05-29T10:47:00.741Z</time>
      </trkpt>
      <trkpt lat="42.4744" lon="18.68764">
        <ele>50.102156</ele>
        <time>2022-05-29T10:47:04.732Z</time>
      </trkpt>
      <trkpt lat="42.47448" lon="18.68773">
        <ele>50.367629</ele>
        <time>2022-05-29T10:47:08.745Z</time>
      </trkpt>
      <trkpt lat="42.47456" lon="18.68778">
        <ele>50.598125</ele>
        <time>2022-05-29T10:47:11.737Z</time>
      </trkpt>
      <trkpt lat="42.47464" lon="18.68785">
        <ele>50.826008</ele>
        <time>2022-05-29T10:47:14.729Z</time>
      </trkpt>
      <trkpt lat="42.47473" lon="18.68794">
        <ele>51.113427</ele>
        <time>2022-05-29T10:47:18.727Z</time>
      </trkpt>
      <trkpt lat="42.47478" lon="18.68808">
        <ele>51.400838</ele>
        <time>2022-05-29T10:47:22.748Z</time>
      </trkpt>
      <trkpt lat="42.47481" lon="18.68822">
        <ele>51.679296</ele>
        <time>2022-05-29T10:47:26.729Z</time>
      </trkpt>
      <trkpt lat="42.47483" lon="18.68837">
        <ele>51.955845</ele>
        <time>2022-05-29T10:47:30.739Z</time>
      </trkpt>
      <trkpt lat="42.47487" lon="18.68852">
        <ele>52.250537</ele>
        <time>2022-05-29T10:47:34.736Z</time>
      </trkpt>
      <trkpt lat="42.47496" lon="18.6886">
        <ele>52.529198</ele>
        <time>2022-05-29T10:47:37.771Z</time>
      </trkpt>
      <trkpt lat="42.47505" lon="18.68868">
        <ele>52.790222</ele>
        <time>2022-05-29T10:47:40.734Z</time>
      </trkpt>
      <trkpt lat="42.47514" lon="18.68874">
        <ele>53.043847</ele>
        <time>2022-05-29T10:47:43.751Z</time>
      </trkpt>
      <trkpt lat="42.47522" lon="18.6888">
        <ele>53.28325</ele>
        <time>2022-05-29T10:47:46.737Z</time>
      </trkpt>
      <trkpt lat="42.47531" lon="18.68887">
        <ele>53.329111</ele>
        <time>2022-05-29T10:47:49.742Z</time>
      </trkpt>
      <trkpt lat="42.47541" lon="18.68894">
        <ele>53.332191</ele>
        <time>2022-05-29T10:47:52.735Z</time>
      </trkpt>
      <trkpt lat="42.4755" lon="18.689">
        <ele>53.334992</ele>
        <time>2022-05-29T10:47:55.744Z</time>
      </trkpt>
      <trkpt lat="42.47559" lon="18.68906">
        <ele>53.337735</ele>
        <time>2022-05-29T10:47:58.757Z</time>
      </trkpt>
      <trkpt lat="42.47569" lon="18.68913">
        <ele>53.340992</ele>
        <time>2022-05-29T10:48:02.750Z</time>
      </trkpt>
      <trkpt lat="42.47578" lon="18.68922">
        <ele>53.344141</ele>
        <time>2022-05-29T10:48:06.764Z</time>
      </trkpt>
      <trkpt lat="42.47586" lon="18.6893">
        <ele>53.346907</ele>
        <time>2022-05-29T10:48:10.757Z</time>
      </trkpt>
      <trkpt lat="42.47596" lon="18.68937">
        <ele>53.35003</ele>
        <time>2022-05-29T10:48:14.752Z</time>
      </trkpt>
      <trkpt lat="42.47606" lon="18.68944">
        <ele>53.353278</ele>
        <time>2022-05-29T10:48:18.730Z</time>
      </trkpt>
      <trkpt lat="42.47615" lon="18.68951">
        <ele>53.356122</ele>
        <time>2022-05-29T10:48:22.732Z</time>
      </trkpt>
      <trkpt lat="42.47623" lon="18.68958">
        <ele>53.358877</ele>
        <time>2022-05-29T10:48:26.732Z</time>
      </trkpt>
      <trkpt lat="42.47633" lon="18.68964">
        <ele>53.361958</ele>
        <time>2022-05-29T10:48:31.735Z</time>
      </trkpt>
      <trkpt lat="42.47642" lon="18.68971">
        <ele>53.364778</ele>
        <time>2022-05-29T10:48:36.724Z</time>
      </trkpt>
      <trkpt lat="42.47651" lon="18.68977">
        <ele>53.367574</ele>
        <time>2022-05-29T10:48:40.735Z</time>
      </trkpt>
      <trkpt lat="42.4766" lon="18.68983">
        <ele>53.370443</ele>
        <time>2022-05-29T10:48:44.740Z</time>
      </trkpt>
      <trkpt lat="42.47669" lon="18.68988">
        <ele>53.373116</ele>
        <time>2022-05-29T10:48:48.735Z</time>
      </trkpt>
      <trkpt lat="42.47678" lon="18.68992">
        <ele>53.375723</ele>
        <time>2022-05-29T10:48:52.740Z</time>
      </trkpt>
      <trkpt lat="42.47689" lon="18.68996">
        <ele>53.462212</ele>
        <time>2022-05-29T10:48:56.738Z</time>
      </trkpt>
      <trkpt lat="42.47699" lon="18.69003">
        <ele>53.615061</ele>
        <time>2022-05-29T10:49:00.723Z</time>
      </trkpt>
      <trkpt lat="42.47708" lon="18.69012">
        <ele>53.768988</ele>
        <time>2022-05-29T10:49:04.741Z</time>
      </trkpt>
      <trkpt lat="42.47716" lon="18.69019">
        <ele>53.890575</ele>
        <time>2022-05-29T10:49:07.738Z</time>
      </trkpt>
      <trkpt lat="42.47723" lon="18.69027">
        <ele>54.018553</ele>
        <time>2022-05-29T10:49:12.770Z</time>
      </trkpt>
      <trkpt lat="42.47725" lon="18.69041">
        <ele>54.160133</ele>
        <time>2022-05-29T10:49:20.750Z</time>
      </trkpt>
      <trkpt lat="42.47724" lon="18.69055">
        <ele>54.303025</ele>
        <time>2022-05-29T10:49:24.754Z</time>
      </trkpt>
      <trkpt lat="42.47724" lon="18.69069">
        <ele>54.439509</ele>
        <time>2022-05-29T10:49:27.740Z</time>
      </trkpt>
      <trkpt lat="42.47722" lon="18.69084">
        <ele>54.591587</ele>
        <time>2022-05-29T10:49:30.734Z</time>
      </trkpt>
      <trkpt lat="42.4772" lon="18.691">
        <ele>54.758731</ele>
        <time>2022-05-29T10:49:33.751Z</time>
      </trkpt>
      <trkpt lat="42.47717" lon="18.69119">
        <ele>54.946396</ele>
        <time>2022-05-29T10:49:36.754Z</time>
      </trkpt>
      <trkpt lat="42.47716" lon="18.69134">
        <ele>55.097025</ele>
        <time>2022-05-29T10:49:38.742Z</time>
      </trkpt>
      <trkpt lat="42.47714" lon="18.69149">
        <ele>55.251455</ele>
        <time>2022-05-29T10:49:40.759Z</time>
      </trkpt>
      <trkpt lat="42.47712" lon="18.69165">
        <ele>55.407103</ele>
        <time>2022-05-29T10:49:42.730Z</time>
      </trkpt>
      <trkpt lat="42.47709" lon="18.69181">
        <ele>55.569568</ele>
        <time>2022-05-29T10:49:44.744Z</time>
      </trkpt>
      <trkpt lat="42.47705" lon="18.69197">
        <ele>55.736385</ele>
        <time>2022-05-29T10:49:46.741Z</time>
      </trkpt>
      <trkpt lat="42.47702" lon="18.69212">
        <ele>55.928093</ele>
        <time>2022-05-29T10:49:48.735Z</time>
      </trkpt>
      <trkpt lat="42.47699" lon="18.69228">
        <ele>56.146232</ele>
        <time>2022-05-29T10:49:50.733Z</time>
      </trkpt>
      <trkpt lat="42.47696" lon="18.69243">
        <ele>56.359467</ele>
        <time>2022-05-29T10:49:52.737Z</time>
      </trkpt>
      <trkpt lat="42.47692" lon="18.69256">
        <ele>56.552924</ele>
        <time>2022-05-29T10:49:54.760Z</time>
      </trkpt>
      <trkpt lat="42.47689" lon="18.69269">
        <ele>56.73313</ele>
        <time>2022-05-29T10:49:56.743Z</time>
      </trkpt>
      <trkpt lat="42.47684" lon="18.69285">
        <ele>56.967769</ele>
        <time>2022-05-29T10:49:59.740Z</time>
      </trkpt>
      <trkpt lat="42.47681" lon="18.69296">
        <ele>57.130838</ele>
        <time>2022-05-29T10:50:01.721Z</time>
      </trkpt>
      <trkpt lat="42.47676" lon="18.69313">
        <ele>57.369744</ele>
        <time>2022-05-29T10:50:04.776Z</time>
      </trkpt>
      <trkpt lat="42.47672" lon="18.69328">
        <ele>57.592245</ele>
        <time>2022-05-29T10:50:07.751Z</time>
      </trkpt>
      <trkpt lat="42.47668" lon="18.69344">
        <ele>57.806605</ele>
        <time>2022-05-29T10:50:10.731Z</time>
      </trkpt>
      <trkpt lat="42.47664" lon="18.69359">
        <ele>58.021487</ele>
        <time>2022-05-29T10:50:13.734Z</time>
      </trkpt>
      <trkpt lat="42.47661" lon="18.69372">
        <ele>58.213055</ele>
        <time>2022-05-29T10:50:16.740Z</time>
      </trkpt>
      <trkpt lat="42.47656" lon="18.69386">
        <ele>58.422268</ele>
        <time>2022-05-29T10:50:20.734Z</time>
      </trkpt>
      <trkpt lat="42.47651" lon="18.694">
        <ele>58.636879</ele>
        <time>2022-05-29T10:50:24.752Z</time>
      </trkpt>
      <trkpt lat="42.47649" lon="18.69415">
        <ele>58.837082</ele>
        <time>2022-05-29T10:50:28.752Z</time>
      </trkpt>
      <trkpt lat="42.47646" lon="18.69429">
        <ele>59.033802</ele>
        <time>2022-05-29T10:50:32.747Z</time>
      </trkpt>
      <trkpt lat="42.47642" lon="18.69444">
        <ele>59.002089</ele>
        <time>2022-05-29T10:50:36.740Z</time>
      </trkpt>
      <trkpt lat="42.47638" lon="18.69456">
        <ele>58.909395</ele>
        <time>2022-05-29T10:50:39.736Z</time>
      </trkpt>
      <trkpt lat="42.47634" lon="18.69468">
        <ele>58.820602</ele>
        <time>2022-05-29T10:50:42.734Z</time>
      </trkpt>
      <trkpt lat="42.4763" lon="18.69481">
        <ele>58.728454</ele>
        <time>2022-05-29T10:50:45.725Z</time>
      </trkpt>
      <trkpt lat="42.47627" lon="18.69492">
        <ele>58.642121</ele>
        <time>2022-05-29T10:50:48.727Z</time>
      </trkpt>
      <trkpt lat="42.47621" lon="18.69506">
        <ele>58.53351</ele>
        <time>2022-05-29T10:50:52.776Z</time>
      </trkpt>
      <trkpt lat="42.47617" lon="18.69519">
        <ele>58.440942</ele>
        <time>2022-05-29T10:50:55.746Z</time>
      </trkpt>
      <trkpt lat="42.47612" lon="18.69534">
        <ele>58.323038</ele>
        <time>2022-05-29T10:50:58.783Z</time>
      </trkpt>
      <trkpt lat="42.47607" lon="18.6955">
        <ele>58.205115</ele>
        <time>2022-05-29T10:51:01.743Z</time>
      </trkpt>
      <trkpt lat="42.47603" lon="18.69566">
        <ele>58.085271</ele>
        <time>2022-05-29T10:51:04.766Z</time>
      </trkpt>
      <trkpt lat="42.47597" lon="18.69582">
        <ele>57.970213</ele>
        <time>2022-05-29T10:51:07.742Z</time>
      </trkpt>
      <trkpt lat="42.47593" lon="18.69595">
        <ele>57.869107</ele>
        <time>2022-05-29T10:51:10.742Z</time>
      </trkpt>
      <trkpt lat="42.4759" lon="18.6961">
        <ele>57.762934</ele>
        <time>2022-05-29T10:51:13.731Z</time>
      </trkpt>
      <trkpt lat="42.47585" lon="18.69626">
        <ele>57.641163</ele>
        <time>2022-05-29T10:51:16.742Z</time>
      </trkpt>
      <trkpt lat="42.47582" lon="18.69639">
        <ele>57.548354</ele>
        <time>2022-05-29T10:51:18.728Z</time>
      </trkpt>
      <trkpt lat="42.47579" lon="18.69653">
        <ele>57.453439</ele>
        <time>2022-05-29T10:51:20.752Z</time>
      </trkpt>
      <trkpt lat="42.47576" lon="18.69668">
        <ele>57.061977</ele>
        <time>2022-05-29T10:51:22.741Z</time>
      </trkpt>
      <trkpt lat="42.47575" lon="18.69683">
        <ele>56.505473</ele>
        <time>2022-05-29T10:51:24.760Z</time>
      </trkpt>
      <trkpt lat="42.47574" lon="18.69697">
        <ele>55.974305</ele>
        <time>2022-05-29T10:51:26.732Z</time>
      </trkpt>
      <trkpt lat="42.47572" lon="18.69712">
        <ele>55.413254</ele>
        <time>2022-05-29T10:51:28.745Z</time>
      </trkpt>
      <trkpt lat="42.47571" lon="18.69727">
        <ele>54.848696</ele>
        <time>2022-05-29T10:51:30.726Z</time>
      </trkpt>
      <trkpt lat="42.47573" lon="18.69743">
        <ele>54.279919</ele>
        <time>2022-05-29T10:51:32.762Z</time>
      </trkpt>
      <trkpt lat="42.47574" lon="18.69758">
        <ele>53.705737</ele>
        <time>2022-05-29T10:51:34.737Z</time>
      </trkpt>
      <trkpt lat="42.47574" lon="18.69775">
        <ele>53.083382</ele>
        <time>2022-05-29T10:51:36.724Z</time>
      </trkpt>
      <trkpt lat="42.47572" lon="18.69791">
        <ele>52.496378</ele>
        <time>2022-05-29T10:51:38.749Z</time>
      </trkpt>
      <trkpt lat="42.47569" lon="18.69806">
        <ele>51.901717</ele>
        <time>2022-05-29T10:51:40.740Z</time>
      </trkpt>
      <trkpt lat="42.47564" lon="18.69822">
        <ele>51.284397</ele>
        <time>2022-05-29T10:51:42.735Z</time>
      </trkpt>
      <trkpt lat="42.47558" lon="18.69836">
        <ele>50.669986</ele>
        <time>2022-05-29T10:51:44.741Z</time>
      </trkpt>
      <trkpt lat="42.47551" lon="18.69848">
        <ele>50.088238</ele>
        <time>2022-05-29T10:51:46.751Z</time>
      </trkpt>
      <trkpt lat="42.47543" lon="18.69859">
        <ele>49.551985</ele>
        <time>2022-05-29T10:51:48.731Z</time>
      </trkpt>
      <trkpt lat="42.47535" lon="18.69868">
        <ele>49.043239</ele>
        <time>2022-05-29T10:51:50.756Z</time>
      </trkpt>
      <trkpt lat="42.47527" lon="18.69877">
        <ele>48.514431</ele>
        <time>2022-05-29T10:51:52.751Z</time>
      </trkpt>
      <trkpt lat="42.47519" lon="18.69886">
        <ele>48.501782</ele>
        <time>2022-05-29T10:51:54.731Z</time>
      </trkpt>
      <trkpt lat="42.47511" lon="18.69896">
        <ele>48.577194</ele>
        <time>2022-05-29T10:51:56.729Z</time>
      </trkpt>
      <trkpt lat="42.47504" lon="18.69906">
        <ele>48.649831</ele>
        <time>2022-05-29T10:51:58.761Z</time>
      </trkpt>
      <trkpt lat="42.47501" lon="18.69918">
        <ele>48.715612</ele>
        <time>2022-05-29T10:52:00.716Z</time>
      </trkpt>
      <trkpt lat="42.47498" lon="18.69934">
        <ele>48.802179</ele>
        <time>2022-05-29T10:52:03.730Z</time>
      </trkpt>
      <trkpt lat="42.47494" lon="18.69951">
        <ele>48.895681</ele>
        <time>2022-05-29T10:52:06.717Z</time>
      </trkpt>
      <trkpt lat="42.47487" lon="18.69965">
        <ele>48.982563</ele>
        <time>2022-05-29T10:52:09.717Z</time>
      </trkpt>
      <trkpt lat="42.47481" lon="18.69978">
        <ele>49.066123</ele>
        <time>2022-05-29T10:52:12.733Z</time>
      </trkpt>
      <trkpt lat="42.47475" lon="18.69992">
        <ele>49.14913</ele>
        <time>2022-05-29T10:52:15.723Z</time>
      </trkpt>
      <trkpt lat="42.4747" lon="18.70005">
        <ele>49.2252</ele>
        <time>2022-05-29T10:52:18.719Z</time>
      </trkpt>
      <trkpt lat="42.47469" lon="18.70018">
        <ele>49.294848</ele>
        <time>2022-05-29T10:52:21.719Z</time>
      </trkpt>
      <trkpt lat="42.4747" lon="18.70031">
        <ele>49.36458</ele>
        <time>2022-05-29T10:52:24.729Z</time>
      </trkpt>
      <trkpt lat="42.47471" lon="18.70045">
        <ele>49.437739</ele>
        <time>2022-05-29T10:52:27.718Z</time>
      </trkpt>
      <trkpt lat="42.47473" lon="18.7006">
        <ele>49.515127</ele>
        <time>2022-05-29T10:52:30.719Z</time>
      </trkpt>
      <trkpt lat="42.47475" lon="18.70074">
        <ele>49.593554</ele>
        <time>2022-05-29T10:52:33.720Z</time>
      </trkpt>
      <trkpt lat="42.47471" lon="18.7009">
        <ele>49.679419</ele>
        <time>2022-05-29T10:52:36.744Z</time>
      </trkpt>
      <trkpt lat="42.47466" lon="18.70104">
        <ele>49.708494</ele>
        <time>2022-05-29T10:52:39.718Z</time>
      </trkpt>
      <trkpt lat="42.47459" lon="18.70117">
        <ele>49.698363</ele>
        <time>2022-05-29T10:52:42.723Z</time>
      </trkpt>
      <trkpt lat="42.47452" lon="18.70128">
        <ele>49.68944</ele>
        <time>2022-05-29T10:52:45.743Z</time>
      </trkpt>
      <trkpt lat="42.47445" lon="18.7014">
        <ele>49.680456</ele>
        <time>2022-05-29T10:52:48.731Z</time>
      </trkpt>
      <trkpt lat="42.47438" lon="18.70151">
        <ele>49.671012</ele>
        <time>2022-05-29T10:52:51.732Z</time>
      </trkpt>
      <trkpt lat="42.47429" lon="18.7016">
        <ele>49.661342</ele>
        <time>2022-05-29T10:52:54.740Z</time>
      </trkpt>
      <trkpt lat="42.47419" lon="18.70168">
        <ele>49.652061</ele>
        <time>2022-05-29T10:52:57.769Z</time>
      </trkpt>
      <trkpt lat="42.47409" lon="18.70176">
        <ele>49.642255</ele>
        <time>2022-05-29T10:53:00.716Z</time>
      </trkpt>
      <trkpt lat="42.47398" lon="18.70182">
        <ele>49.632162</ele>
        <time>2022-05-29T10:53:03.755Z</time>
      </trkpt>
      <trkpt lat="42.47388" lon="18.70189">
        <ele>49.622854</ele>
        <time>2022-05-29T10:53:06.727Z</time>
      </trkpt>
      <trkpt lat="42.47379" lon="18.70195">
        <ele>49.614235</ele>
        <time>2022-05-29T10:53:09.732Z</time>
      </trkpt>
      <trkpt lat="42.4737" lon="18.70205">
        <ele>49.605112</ele>
        <time>2022-05-29T10:53:12.731Z</time>
      </trkpt>
      <trkpt lat="42.47362" lon="18.70218">
        <ele>49.594202</ele>
        <time>2022-05-29T10:53:15.717Z</time>
      </trkpt>
      <trkpt lat="42.47355" lon="18.70232">
        <ele>49.583714</ele>
        <time>2022-05-29T10:53:18.716Z</time>
      </trkpt>
      <trkpt lat="42.47351" lon="18.70247">
        <ele>49.574076</ele>
        <time>2022-05-29T10:53:21.756Z</time>
      </trkpt>
      <trkpt lat="42.47348" lon="18.70263">
        <ele>49.564252</ele>
        <time>2022-05-29T10:53:24.732Z</time>
      </trkpt>
      <trkpt lat="42.47348" lon="18.70277">
        <ele>49.419814</ele>
        <time>2022-05-29T10:53:27.762Z</time>
      </trkpt>
      <trkpt lat="42.47346" lon="18.70291">
        <ele>49.280649</ele>
        <time>2022-05-29T10:53:30.736Z</time>
      </trkpt>
      <trkpt lat="42.47344" lon="18.70306">
        <ele>49.125385</ele>
        <time>2022-05-29T10:53:33.728Z</time>
      </trkpt>
      <trkpt lat="42.47341" lon="18.70322">
        <ele>48.955706</ele>
        <time>2022-05-29T10:53:36.753Z</time>
      </trkpt>
      <trkpt lat="42.47338" lon="18.70337">
        <ele>48.792051</ele>
        <time>2022-05-29T10:53:39.723Z</time>
      </trkpt>
      <trkpt lat="42.47334" lon="18.70352">
        <ele>48.625152</ele>
        <time>2022-05-29T10:53:42.730Z</time>
      </trkpt>
      <trkpt lat="42.47328" lon="18.70367">
        <ele>48.449766</ele>
        <time>2022-05-29T10:53:45.756Z</time>
      </trkpt>
      <trkpt lat="42.47321" lon="18.70382">
        <ele>48.266924</ele>
        <time>2022-05-29T10:53:48.724Z</time>
      </trkpt>
      <trkpt lat="42.47314" lon="18.70398">
        <ele>48.080554</ele>
        <time>2022-05-29T10:53:51.728Z</time>
      </trkpt>
      <trkpt lat="42.47307" lon="18.70414">
        <ele>47.897575</ele>
        <time>2022-05-29T10:53:54.739Z</time>
      </trkpt>
      <trkpt lat="42.473" lon="18.70428">
        <ele>47.716012</ele>
        <time>2022-05-29T10:53:57.736Z</time>
      </trkpt>
      <trkpt lat="42.47291" lon="18.7044">
        <ele>47.545414</ele>
        <time>2022-05-29T10:54:00.729Z</time>
      </trkpt>
      <trkpt lat="42.47281" lon="18.70449">
        <ele>47.371573</ele>
        <time>2022-05-29T10:54:03.742Z</time>
      </trkpt>
      <trkpt lat="42.47272" lon="18.70453">
        <ele>47.246152</ele>
        <time>2022-05-29T10:54:05.734Z</time>
      </trkpt>
      <trkpt lat="42.47263" lon="18.70457">
        <ele>47.106368</ele>
        <time>2022-05-29T10:54:07.743Z</time>
      </trkpt>
      <trkpt lat="42.47253" lon="18.70459">
        <ele>47.149422</ele>
        <time>2022-05-29T10:54:09.729Z</time>
      </trkpt>
      <trkpt lat="42.4724" lon="18.70463">
        <ele>47.313639</ele>
        <time>2022-05-29T10:54:12.758Z</time>
      </trkpt>
      <trkpt lat="42.47229" lon="18.70472">
        <ele>47.470288</ele>
        <time>2022-05-29T10:54:15.743Z</time>
      </trkpt>
      <trkpt lat="42.47219" lon="18.70483">
        <ele>47.635078</ele>
        <time>2022-05-29T10:54:18.754Z</time>
      </trkpt>
      <trkpt lat="42.47211" lon="18.70497">
        <ele>47.795715</ele>
        <time>2022-05-29T10:54:21.739Z</time>
      </trkpt>
      <trkpt lat="42.47205" lon="18.70512">
        <ele>47.956717</ele>
        <time>2022-05-29T10:54:24.731Z</time>
      </trkpt>
      <trkpt lat="42.47201" lon="18.70529">
        <ele>48.117624</ele>
        <time>2022-05-29T10:54:27.732Z</time>
      </trkpt>
      <trkpt lat="42.47199" lon="18.70546">
        <ele>48.279406</ele>
        <time>2022-05-29T10:54:30.723Z</time>
      </trkpt>
      <trkpt lat="42.47196" lon="18.70563">
        <ele>48.439784</ele>
        <time>2022-05-29T10:54:33.738Z</time>
      </trkpt>
      <trkpt lat="42.4719" lon="18.70579">
        <ele>48.602142</ele>
        <time>2022-05-29T10:54:36.762Z</time>
      </trkpt>
      <trkpt lat="42.47183" lon="18.70594">
        <ele>48.762984</ele>
        <time>2022-05-29T10:54:39.742Z</time>
      </trkpt>
      <trkpt lat="42.47177" lon="18.70608">
        <ele>48.917509</ele>
        <time>2022-05-29T10:54:42.731Z</time>
      </trkpt>
      <trkpt lat="42.47174" lon="18.70624">
        <ele>49.062558</ele>
        <time>2022-05-29T10:54:45.742Z</time>
      </trkpt>
      <trkpt lat="42.47173" lon="18.70638">
        <ele>49.197126</ele>
        <time>2022-05-29T10:54:48.744Z</time>
      </trkpt>
      <trkpt lat="42.47174" lon="18.70656">
        <ele>49.323355</ele>
        <time>2022-05-29T10:54:51.733Z</time>
      </trkpt>
      <trkpt lat="42.47175" lon="18.70668">
        <ele>49.357994</ele>
        <time>2022-05-29T10:54:53.748Z</time>
      </trkpt>
      <trkpt lat="42.47178" lon="18.7068">
        <ele>49.392616</ele>
        <time>2022-05-29T10:54:55.752Z</time>
      </trkpt>
      <trkpt lat="42.47183" lon="18.70696">
        <ele>49.443318</ele>
        <time>2022-05-29T10:54:58.739Z</time>
      </trkpt>
      <trkpt lat="42.47188" lon="18.70712">
        <ele>49.492423</ele>
        <time>2022-05-29T10:55:01.739Z</time>
      </trkpt>
      <trkpt lat="42.47194" lon="18.70728">
        <ele>49.541762</ele>
        <time>2022-05-29T10:55:04.728Z</time>
      </trkpt>
      <trkpt lat="42.472" lon="18.70743">
        <ele>49.589785</ele>
        <time>2022-05-29T10:55:07.742Z</time>
      </trkpt>
      <trkpt lat="42.47206" lon="18.70758">
        <ele>49.637102</ele>
        <time>2022-05-29T10:55:10.742Z</time>
      </trkpt>
      <trkpt lat="42.47209" lon="18.70774">
        <ele>49.682685</ele>
        <time>2022-05-29T10:55:13.737Z</time>
      </trkpt>
      <trkpt lat="42.47214" lon="18.70789">
        <ele>49.729163</ele>
        <time>2022-05-29T10:55:16.735Z</time>
      </trkpt>
      <trkpt lat="42.47218" lon="18.70806">
        <ele>49.77973</ele>
        <time>2022-05-29T10:55:19.742Z</time>
      </trkpt>
      <trkpt lat="42.47224" lon="18.70822">
        <ele>49.828994</ele>
        <time>2022-05-29T10:55:22.738Z</time>
      </trkpt>
      <trkpt lat="42.47229" lon="18.70837">
        <ele>49.877148</ele>
        <time>2022-05-29T10:55:25.758Z</time>
      </trkpt>
      <trkpt lat="42.47236" lon="18.70852">
        <ele>49.925063</ele>
        <time>2022-05-29T10:55:28.732Z</time>
      </trkpt>
      <trkpt lat="42.47242" lon="18.70866">
        <ele>49.972182</ele>
        <time>2022-05-29T10:55:31.756Z</time>
      </trkpt>
      <trkpt lat="42.47249" lon="18.7088">
        <ele>49.864635</ele>
        <time>2022-05-29T10:55:34.737Z</time>
      </trkpt>
      <trkpt lat="42.47257" lon="18.70895">
        <ele>49.619542</ele>
        <time>2022-05-29T10:55:37.745Z</time>
      </trkpt>
      <trkpt lat="42.47264" lon="18.70909">
        <ele>49.3904</ele>
        <time>2022-05-29T10:55:40.744Z</time>
      </trkpt>
      <trkpt lat="42.4727" lon="18.70925">
        <ele>49.156157</ele>
        <time>2022-05-29T10:55:43.735Z</time>
      </trkpt>
      <trkpt lat="42.47274" lon="18.70941">
        <ele>48.921546</ele>
        <time>2022-05-29T10:55:46.743Z</time>
      </trkpt>
      <trkpt lat="42.47274" lon="18.70959">
        <ele>48.689171</ele>
        <time>2022-05-29T10:55:49.736Z</time>
      </trkpt>
      <trkpt lat="42.47271" lon="18.70975">
        <ele>48.468757</ele>
        <time>2022-05-29T10:55:52.733Z</time>
      </trkpt>
      <trkpt lat="42.47267" lon="18.7099">
        <ele>48.247574</ele>
        <time>2022-05-29T10:55:55.742Z</time>
      </trkpt>
      <trkpt lat="42.47263" lon="18.71005">
        <ele>48.045221</ele>
        <time>2022-05-29T10:55:58.724Z</time>
      </trkpt>
      <trkpt lat="42.47259" lon="18.71018">
        <ele>47.848644</ele>
        <time>2022-05-29T10:56:01.737Z</time>
      </trkpt>
      <trkpt lat="42.47255" lon="18.71031">
        <ele>47.666335</ele>
        <time>2022-05-29T10:56:04.750Z</time>
      </trkpt>
      <trkpt lat="42.4725" lon="18.71043">
        <ele>47.472212</ele>
        <time>2022-05-29T10:56:07.748Z</time>
      </trkpt>
      <trkpt lat="42.47246" lon="18.71057">
        <ele>47.273005</ele>
        <time>2022-05-29T10:56:10.732Z</time>
      </trkpt>
      <trkpt lat="42.47243" lon="18.71072">
        <ele>47.07199</ele>
        <time>2022-05-29T10:56:13.741Z</time>
      </trkpt>
      <trkpt lat="42.47242" lon="18.71088">
        <ele>46.853883</ele>
        <time>2022-05-29T10:56:16.758Z</time>
      </trkpt>
      <trkpt lat="42.47241" lon="18.71105">
        <ele>46.789094</ele>
        <time>2022-05-29T10:56:19.739Z</time>
      </trkpt>
      <trkpt lat="42.47238" lon="18.71122">
        <ele>46.891993</ele>
        <time>2022-05-29T10:56:22.731Z</time>
      </trkpt>
      <trkpt lat="42.47235" lon="18.7114">
        <ele>46.998727</ele>
        <time>2022-05-29T10:56:25.765Z</time>
      </trkpt>
      <trkpt lat="42.47235" lon="18.71156">
        <ele>47.09795</ele>
        <time>2022-05-29T10:56:28.744Z</time>
      </trkpt>
      <trkpt lat="42.47235" lon="18.71172">
        <ele>47.190629</ele>
        <time>2022-05-29T10:56:31.736Z</time>
      </trkpt>
      <trkpt lat="42.47236" lon="18.71187">
        <ele>47.283216</ele>
        <time>2022-05-29T10:56:34.748Z</time>
      </trkpt>
      <trkpt lat="42.47237" lon="18.71204">
        <ele>47.384245</ele>
        <time>2022-05-29T10:56:37.737Z</time>
      </trkpt>
      <trkpt lat="42.4724" lon="18.71222">
        <ele>47.490296</ele>
        <time>2022-05-29T10:56:40.747Z</time>
      </trkpt>
      <trkpt lat="42.47243" lon="18.71238">
        <ele>47.588619</ele>
        <time>2022-05-29T10:56:43.753Z</time>
      </trkpt>
      <trkpt lat="42.47246" lon="18.71254">
        <ele>47.685384</ele>
        <time>2022-05-29T10:56:46.732Z</time>
      </trkpt>
      <trkpt lat="42.47249" lon="18.71269">
        <ele>47.781341</ele>
        <time>2022-05-29T10:56:49.750Z</time>
      </trkpt>
      <trkpt lat="42.4725" lon="18.71283">
        <ele>47.863399</ele>
        <time>2022-05-29T10:56:52.718Z</time>
      </trkpt>
      <trkpt lat="42.47247" lon="18.713">
        <ele>47.966224</ele>
        <time>2022-05-29T10:56:55.753Z</time>
      </trkpt>
      <trkpt lat="42.47245" lon="18.71312">
        <ele>48.039297</ele>
        <time>2022-05-29T10:56:57.742Z</time>
      </trkpt>
      <trkpt lat="42.47241" lon="18.71323">
        <ele>48.112338</ele>
        <time>2022-05-29T10:56:59.764Z</time>
      </trkpt>
      <trkpt lat="42.47236" lon="18.71335">
        <ele>48.189726</ele>
        <time>2022-05-29T10:57:01.742Z</time>
      </trkpt>
      <trkpt lat="42.47232" lon="18.71347">
        <ele>48.229812</ele>
        <time>2022-05-29T10:57:03.741Z</time>
      </trkpt>
      <trkpt lat="42.47229" lon="18.71359">
        <ele>48.268245</ele>
        <time>2022-05-29T10:57:05.738Z</time>
      </trkpt>
      <trkpt lat="42.4723" lon="18.71375">
        <ele>48.319185</ele>
        <time>2022-05-29T10:57:08.732Z</time>
      </trkpt>
      <trkpt lat="42.47231" lon="18.71392">
        <ele>48.369759</ele>
        <time>2022-05-29T10:57:11.735Z</time>
      </trkpt>
      <trkpt lat="42.47231" lon="18.71408">
        <ele>48.417474</ele>
        <time>2022-05-29T10:57:14.739Z</time>
      </trkpt>
      <trkpt lat="42.47226" lon="18.71423">
        <ele>48.469142</ele>
        <time>2022-05-29T10:57:17.749Z</time>
      </trkpt>
      <trkpt lat="42.47221" lon="18.71439">
        <ele>48.52312</ele>
        <time>2022-05-29T10:57:20.730Z</time>
      </trkpt>
      <trkpt lat="42.47212" lon="18.71452">
        <ele>48.575017</ele>
        <time>2022-05-29T10:57:23.776Z</time>
      </trkpt>
      <trkpt lat="42.47202" lon="18.71458">
        <ele>48.62087</ele>
        <time>2022-05-29T10:57:26.731Z</time>
      </trkpt>
      <trkpt lat="42.47191" lon="18.71468">
        <ele>48.675273</ele>
        <time>2022-05-29T10:57:29.732Z</time>
      </trkpt>
      <trkpt lat="42.47181" lon="18.71478">
        <ele>48.729529</ele>
        <time>2022-05-29T10:57:32.760Z</time>
      </trkpt>
      <trkpt lat="42.4717" lon="18.71489">
        <ele>48.783996</ele>
        <time>2022-05-29T10:57:35.737Z</time>
      </trkpt>
      <trkpt lat="42.4716" lon="18.71498">
        <ele>48.835836</ele>
        <time>2022-05-29T10:57:38.730Z</time>
      </trkpt>
      <trkpt lat="42.47148" lon="18.71506">
        <ele>48.891421</ele>
        <time>2022-05-29T10:57:41.744Z</time>
      </trkpt>
      <trkpt lat="42.47139" lon="18.71511">
        <ele>48.931711</ele>
        <time>2022-05-29T10:57:43.778Z</time>
      </trkpt>
      <trkpt lat="42.47127" lon="18.71517">
        <ele>48.95175</ele>
        <time>2022-05-29T10:57:46.741Z</time>
      </trkpt>
      <trkpt lat="42.47117" lon="18.71525">
        <ele>48.970053</ele>
        <time>2022-05-29T10:57:49.742Z</time>
      </trkpt>
      <trkpt lat="42.47107" lon="18.71532">
        <ele>48.987939</ele>
        <time>2022-05-29T10:57:52.733Z</time>
      </trkpt>
      <trkpt lat="42.47097" lon="18.71541">
        <ele>49.007016</ele>
        <time>2022-05-29T10:57:55.741Z</time>
      </trkpt>
      <trkpt lat="42.47087" lon="18.71552">
        <ele>49.026768</ele>
        <time>2022-05-29T10:57:58.749Z</time>
      </trkpt>
      <trkpt lat="42.47078" lon="18.71562">
        <ele>49.046101</ele>
        <time>2022-05-29T10:58:01.732Z</time>
      </trkpt>
      <trkpt lat="42.47068" lon="18.71572">
        <ele>49.065386</ele>
        <time>2022-05-29T10:58:04.752Z</time>
      </trkpt>
      <trkpt lat="42.4706" lon="18.71579">
        <ele>49.08032</ele>
        <time>2022-05-29T10:58:06.740Z</time>
      </trkpt>
      <trkpt lat="42.47052" lon="18.71588">
        <ele>49.096599</ele>
        <time>2022-05-29T10:58:08.741Z</time>
      </trkpt>
      <trkpt lat="42.47046" lon="18.71597">
        <ele>49.111951</ele>
        <time>2022-05-29T10:58:10.745Z</time>
      </trkpt>
      <trkpt lat="42.47039" lon="18.71607">
        <ele>49.126984</ele>
        <time>2022-05-29T10:58:12.743Z</time>
      </trkpt>
      <trkpt lat="42.47034" lon="18.71618">
        <ele>49.14228</ele>
        <time>2022-05-29T10:58:14.730Z</time>
      </trkpt>
      <trkpt lat="42.47029" lon="18.7163">
        <ele>49.158313</ele>
        <time>2022-05-29T10:58:16.719Z</time>
      </trkpt>
      <trkpt lat="42.47025" lon="18.71641">
        <ele>49.17371</ele>
        <time>2022-05-29T10:58:18.751Z</time>
      </trkpt>
      <trkpt lat="42.4702" lon="18.71653">
        <ele>49.189106</ele>
        <time>2022-05-29T10:58:20.740Z</time>
      </trkpt>
      <trkpt lat="42.47016" lon="18.71664">
        <ele>49.20394</ele>
        <time>2022-05-29T10:58:22.746Z</time>
      </trkpt>
      <trkpt lat="42.47012" lon="18.71676">
        <ele>49.207856</ele>
        <time>2022-05-29T10:58:24.746Z</time>
      </trkpt>
      <trkpt lat="42.47008" lon="18.71687">
        <ele>49.074853</ele>
        <time>2022-05-29T10:58:26.745Z</time>
      </trkpt>
      <trkpt lat="42.47004" lon="18.71704">
        <ele>48.889573</ele>
        <time>2022-05-29T10:58:29.743Z</time>
      </trkpt>
      <trkpt lat="42.46999" lon="18.71721">
        <ele>48.702471</ele>
        <time>2022-05-29T10:58:32.745Z</time>
      </trkpt>
      <trkpt lat="42.46998" lon="18.71734">
        <ele>48.568231</ele>
        <time>2022-05-29T10:58:34.740Z</time>
      </trkpt>
      <trkpt lat="42.46996" lon="18.71746">
        <ele>48.440106</ele>
        <time>2022-05-29T10:58:36.757Z</time>
      </trkpt>
      <trkpt lat="42.46995" lon="18.71759">
        <ele>48.305876</ele>
        <time>2022-05-29T10:58:38.750Z</time>
      </trkpt>
      <trkpt lat="42.46996" lon="18.71776">
        <ele>48.130446</ele>
        <time>2022-05-29T10:58:41.728Z</time>
      </trkpt>
      <trkpt lat="42.46997" lon="18.71794">
        <ele>47.944485</ele>
        <time>2022-05-29T10:58:44.733Z</time>
      </trkpt>
      <trkpt lat="42.46998" lon="18.71812">
        <ele>47.759047</ele>
        <time>2022-05-29T10:58:47.744Z</time>
      </trkpt>
      <trkpt lat="42.47002" lon="18.71828">
        <ele>47.57958</ele>
        <time>2022-05-29T10:58:50.740Z</time>
      </trkpt>
      <trkpt lat="42.47006" lon="18.71846">
        <ele>47.393315</ele>
        <time>2022-05-29T10:58:53.769Z</time>
      </trkpt>
      <trkpt lat="42.4701" lon="18.71863">
        <ele>47.206721</ele>
        <time>2022-05-29T10:58:56.760Z</time>
      </trkpt>
      <trkpt lat="42.47012" lon="18.71875">
        <ele>47.077548</ele>
        <time>2022-05-29T10:58:58.737Z</time>
      </trkpt>
      <trkpt lat="42.47014" lon="18.71893">
        <ele>46.891791</ele>
        <time>2022-05-29T10:59:01.728Z</time>
      </trkpt>
      <trkpt lat="42.47014" lon="18.71905">
        <ele>46.75996</ele>
        <time>2022-05-29T10:59:03.739Z</time>
      </trkpt>
      <trkpt lat="42.47014" lon="18.71918">
        <ele>46.760453</ele>
        <time>2022-05-29T10:59:05.760Z</time>
      </trkpt>
      <trkpt lat="42.47015" lon="18.7193">
        <ele>46.897231</ele>
        <time>2022-05-29T10:59:07.787Z</time>
      </trkpt>
      <trkpt lat="42.47015" lon="18.71943">
        <ele>47.036452</ele>
        <time>2022-05-29T10:59:09.729Z</time>
      </trkpt>
      <trkpt lat="42.47015" lon="18.7196">
        <ele>47.230955</ele>
        <time>2022-05-29T10:59:12.739Z</time>
      </trkpt>
      <trkpt lat="42.47012" lon="18.71977">
        <ele>47.42127</ele>
        <time>2022-05-29T10:59:15.734Z</time>
      </trkpt>
      <trkpt lat="42.47009" lon="18.71992">
        <ele>47.599504</ele>
        <time>2022-05-29T10:59:18.750Z</time>
      </trkpt>
      <trkpt lat="42.47006" lon="18.72008">
        <ele>47.774116</ele>
        <time>2022-05-29T10:59:21.733Z</time>
      </trkpt>
      <trkpt lat="42.47002" lon="18.72023">
        <ele>47.957184</ele>
        <time>2022-05-29T10:59:24.730Z</time>
      </trkpt>
      <trkpt lat="42.46997" lon="18.72038">
        <ele>48.142692</ele>
        <time>2022-05-29T10:59:27.751Z</time>
      </trkpt>
      <trkpt lat="42.46988" lon="18.72052">
        <ele>48.345863</ele>
        <time>2022-05-29T10:59:30.724Z</time>
      </trkpt>
      <trkpt lat="42.46982" lon="18.72062">
        <ele>48.484569</ele>
        <time>2022-05-29T10:59:32.749Z</time>
      </trkpt>
      <trkpt lat="42.46977" lon="18.72073">
        <ele>48.625892</ele>
        <time>2022-05-29T10:59:34.738Z</time>
      </trkpt>
      <trkpt lat="42.46972" lon="18.72083">
        <ele>48.769233</ele>
        <time>2022-05-29T10:59:36.739Z</time>
      </trkpt>
      <trkpt lat="42.46966" lon="18.72094">
        <ele>48.915048</ele>
        <time>2022-05-29T10:59:38.738Z</time>
      </trkpt>
      <trkpt lat="42.46959" lon="18.72109">
        <ele>49.113767</ele>
        <time>2022-05-29T10:59:41.786Z</time>
      </trkpt>
      <trkpt lat="42.46951" lon="18.72124">
        <ele>49.312485</ele>
        <time>2022-05-29T10:59:44.757Z</time>
      </trkpt>
      <trkpt lat="42.46944" lon="18.72138">
        <ele>49.503012</ele>
        <time>2022-05-29T10:59:47.738Z</time>
      </trkpt>
      <trkpt lat="42.46937" lon="18.72152">
        <ele>49.687015</ele>
        <time>2022-05-29T10:59:50.738Z</time>
      </trkpt>
      <trkpt lat="42.46931" lon="18.72167">
        <ele>49.875659</ele>
        <time>2022-05-29T10:59:53.746Z</time>
      </trkpt>
      <trkpt lat="42.46926" lon="18.72178">
        <ele>50.010366</ele>
        <time>2022-05-29T10:59:55.748Z</time>
      </trkpt>
      <trkpt lat="42.46921" lon="18.72188">
        <ele>50.149703</ele>
        <time>2022-05-29T10:59:57.733Z</time>
      </trkpt>
      <trkpt lat="42.46914" lon="18.72199">
        <ele>50.303206</ele>
        <time>2022-05-29T10:59:59.768Z</time>
      </trkpt>
      <trkpt lat="42.46908" lon="18.7221">
        <ele>50.452593</ele>
        <time>2022-05-29T11:00:01.744Z</time>
      </trkpt>
      <trkpt lat="42.46903" lon="18.72221">
        <ele>50.59613</ele>
        <time>2022-05-29T11:00:03.760Z</time>
      </trkpt>
      <trkpt lat="42.46898" lon="18.72236">
        <ele>50.78021</ele>
        <time>2022-05-29T11:00:06.732Z</time>
      </trkpt>
      <trkpt lat="42.46895" lon="18.72252">
        <ele>50.95406</ele>
        <time>2022-05-29T11:00:09.736Z</time>
      </trkpt>
      <trkpt lat="42.46893" lon="18.72267">
        <ele>51.126499</ele>
        <time>2022-05-29T11:00:12.725Z</time>
      </trkpt>
      <trkpt lat="42.4689" lon="18.72282">
        <ele>51.299313</ele>
        <time>2022-05-29T11:00:15.719Z</time>
      </trkpt>
      <trkpt lat="42.46887" lon="18.72297">
        <ele>51.456946</ele>
        <time>2022-05-29T11:00:18.738Z</time>
      </trkpt>
      <trkpt lat="42.46884" lon="18.72309">
        <ele>51.59629</ele>
        <time>2022-05-29T11:00:21.761Z</time>
      </trkpt>
      <trkpt lat="42.46882" lon="18.72323">
        <ele>51.751792</ele>
        <time>2022-05-29T11:00:25.762Z</time>
      </trkpt>
      <trkpt lat="42.46881" lon="18.72337">
        <ele>51.912692</ele>
        <time>2022-05-29T11:00:29.739Z</time>
      </trkpt>
      <trkpt lat="42.46883" lon="18.72352">
        <ele>52.073258</ele>
        <time>2022-05-29T11:00:34.730Z</time>
      </trkpt>
      <trkpt lat="42.46883" lon="18.72366">
        <ele>52.208424</ele>
        <time>2022-05-29T11:00:38.734Z</time>
      </trkpt>
      <trkpt lat="42.46881" lon="18.72378">
        <ele>52.324039</ele>
        <time>2022-05-29T11:00:41.745Z</time>
      </trkpt>
      <trkpt lat="42.46879" lon="18.72391">
        <ele>52.441316</ele>
        <time>2022-05-29T11:00:44.737Z</time>
      </trkpt>
      <trkpt lat="42.46877" lon="18.72406">
        <ele>52.588084</ele>
        <time>2022-05-29T11:00:48.775Z</time>
      </trkpt>
      <trkpt lat="42.46874" lon="18.72421">
        <ele>52.733519</ele>
        <time>2022-05-29T11:00:52.735Z</time>
      </trkpt>
      <trkpt lat="42.46871" lon="18.72435">
        <ele>52.872454</ele>
        <time>2022-05-29T11:00:56.736Z</time>
      </trkpt>
      <trkpt lat="42.46868" lon="18.7245">
        <ele>53.01144</ele>
        <time>2022-05-29T11:01:00.757Z</time>
      </trkpt>
      <trkpt lat="42.46864" lon="18.72463">
        <ele>53.151734</ele>
        <time>2022-05-29T11:01:04.738Z</time>
      </trkpt>
      <trkpt lat="42.4686" lon="18.72475">
        <ele>53.276482</ele>
        <time>2022-05-29T11:01:08.734Z</time>
      </trkpt>
      <trkpt lat="42.46857" lon="18.72488">
        <ele>53.398013</ele>
        <time>2022-05-29T11:01:12.746Z</time>
      </trkpt>
      <trkpt lat="42.46854" lon="18.72502">
        <ele>53.540952</ele>
        <time>2022-05-29T11:01:16.740Z</time>
      </trkpt>
      <trkpt lat="42.46852" lon="18.72515">
        <ele>53.663815</ele>
        <time>2022-05-29T11:01:19.737Z</time>
      </trkpt>
      <trkpt lat="42.46849" lon="18.72529">
        <ele>53.797216</ele>
        <time>2022-05-29T11:01:22.754Z</time>
      </trkpt>
      <trkpt lat="42.46843" lon="18.72543">
        <ele>53.951117</ele>
        <time>2022-05-29T11:01:25.749Z</time>
      </trkpt>
      <trkpt lat="42.46838" lon="18.72555">
        <ele>54.073004</ele>
        <time>2022-05-29T11:01:27.743Z</time>
      </trkpt>
      <trkpt lat="42.46832" lon="18.72566">
        <ele>54.202724</ele>
        <time>2022-05-29T11:01:29.750Z</time>
      </trkpt>
      <trkpt lat="42.46826" lon="18.72576">
        <ele>54.331824</ele>
        <time>2022-05-29T11:01:31.756Z</time>
      </trkpt>
      <trkpt lat="42.46819" lon="18.72588">
        <ele>54.09704</ele>
        <time>2022-05-29T11:01:33.757Z</time>
      </trkpt>
      <trkpt lat="42.46811" lon="18.72599">
        <ele>53.825666</ele>
        <time>2022-05-29T11:01:35.721Z</time>
      </trkpt>
      <trkpt lat="42.46802" lon="18.7261">
        <ele>53.521506</ele>
        <time>2022-05-29T11:01:37.733Z</time>
      </trkpt>
      <trkpt lat="42.46793" lon="18.72622">
        <ele>53.207562</ele>
        <time>2022-05-29T11:01:39.748Z</time>
      </trkpt>
      <trkpt lat="42.46784" lon="18.72635">
        <ele>52.870299</ele>
        <time>2022-05-29T11:01:41.740Z</time>
      </trkpt>
      <trkpt lat="42.46773" lon="18.72649">
        <ele>52.500502</ele>
        <time>2022-05-29T11:01:43.756Z</time>
      </trkpt>
      <trkpt lat="42.46762" lon="18.72662">
        <ele>52.129291</ele>
        <time>2022-05-29T11:01:45.743Z</time>
      </trkpt>
      <trkpt lat="42.46751" lon="18.72674">
        <ele>51.777906</ele>
        <time>2022-05-29T11:01:47.771Z</time>
      </trkpt>
      <trkpt lat="42.46741" lon="18.72687">
        <ele>51.430338</ele>
        <time>2022-05-29T11:01:49.748Z</time>
      </trkpt>
      <trkpt lat="42.46731" lon="18.72699">
        <ele>51.099236</ele>
        <time>2022-05-29T11:01:51.736Z</time>
      </trkpt>
      <trkpt lat="42.46723" lon="18.72713">
        <ele>50.767456</ele>
        <time>2022-05-29T11:01:53.754Z</time>
      </trkpt>
      <trkpt lat="42.46714" lon="18.72727">
        <ele>50.435801</ele>
        <time>2022-05-29T11:01:55.771Z</time>
      </trkpt>
      <trkpt lat="42.46707" lon="18.72741">
        <ele>50.119099</ele>
        <time>2022-05-29T11:01:57.741Z</time>
      </trkpt>
      <trkpt lat="42.46701" lon="18.72754">
        <ele>49.837288</ele>
        <time>2022-05-29T11:01:59.763Z</time>
      </trkpt>
      <trkpt lat="42.46695" lon="18.72766">
        <ele>49.737049</ele>
        <time>2022-05-29T11:02:01.753Z</time>
      </trkpt>
      <trkpt lat="42.46689" lon="18.72776">
        <ele>49.649275</ele>
        <time>2022-05-29T11:02:03.740Z</time>
      </trkpt>
      <trkpt lat="42.46681" lon="18.7279">
        <ele>49.523202</ele>
        <time>2022-05-29T11:02:06.742Z</time>
      </trkpt>
      <trkpt lat="42.46674" lon="18.72803">
        <ele>49.407291</ele>
        <time>2022-05-29T11:02:09.743Z</time>
      </trkpt>
      <trkpt lat="42.46667" lon="18.72818">
        <ele>49.287675</ele>
        <time>2022-05-29T11:02:12.759Z</time>
      </trkpt>
      <trkpt lat="42.4666" lon="18.72833">
        <ele>49.162682</ele>
        <time>2022-05-29T11:02:15.744Z</time>
      </trkpt>
      <trkpt lat="42.46654" lon="18.72848">
        <ele>49.042864</ele>
        <time>2022-05-29T11:02:18.780Z</time>
      </trkpt>
      <trkpt lat="42.46647" lon="18.72863">
        <ele>48.921128</ele>
        <time>2022-05-29T11:02:21.736Z</time>
      </trkpt>
      <trkpt lat="42.46641" lon="18.72878">
        <ele>48.799989</ele>
        <time>2022-05-29T11:02:24.746Z</time>
      </trkpt>
      <trkpt lat="42.46635" lon="18.72892">
        <ele>48.687398</ele>
        <time>2022-05-29T11:02:27.788Z</time>
      </trkpt>
      <trkpt lat="42.46629" lon="18.72907">
        <ele>48.565267</ele>
        <time>2022-05-29T11:02:30.740Z</time>
      </trkpt>
      <trkpt lat="42.46625" lon="18.72923">
        <ele>48.448123</ele>
        <time>2022-05-29T11:02:33.737Z</time>
      </trkpt>
      <trkpt lat="42.46622" lon="18.72939">
        <ele>48.331044</ele>
        <time>2022-05-29T11:02:36.742Z</time>
      </trkpt>
      <trkpt lat="42.46617" lon="18.72955">
        <ele>48.21352</ele>
        <time>2022-05-29T11:02:39.749Z</time>
      </trkpt>
      <trkpt lat="42.46613" lon="18.72969">
        <ele>48.126343</ele>
        <time>2022-05-29T11:02:42.732Z</time>
      </trkpt>
      <trkpt lat="42.46609" lon="18.72983">
        <ele>48.083841</ele>
        <time>2022-05-29T11:02:45.750Z</time>
      </trkpt>
      <trkpt lat="42.46604" lon="18.72998">
        <ele>48.040636</ele>
        <time>2022-05-29T11:02:48.743Z</time>
      </trkpt>
      <trkpt lat="42.46599" lon="18.73013">
        <ele>47.994027</ele>
        <time>2022-05-29T11:02:51.752Z</time>
      </trkpt>
      <trkpt lat="42.46595" lon="18.73024">
        <ele>47.958196</ele>
        <time>2022-05-29T11:02:53.743Z</time>
      </trkpt>
      <trkpt lat="42.4659" lon="18.73035">
        <ele>47.922917</ele>
        <time>2022-05-29T11:02:55.742Z</time>
      </trkpt>
      <trkpt lat="42.46585" lon="18.73046">
        <ele>47.88728</ele>
        <time>2022-05-29T11:02:57.755Z</time>
      </trkpt>
      <trkpt lat="42.4658" lon="18.73057">
        <ele>47.852548</ele>
        <time>2022-05-29T11:02:59.739Z</time>
      </trkpt>
      <trkpt lat="42.46573" lon="18.73071">
        <ele>47.80309</ele>
        <time>2022-05-29T11:03:02.739Z</time>
      </trkpt>
      <trkpt lat="42.46565" lon="18.73085">
        <ele>47.7559</ele>
        <time>2022-05-29T11:03:05.751Z</time>
      </trkpt>
      <trkpt lat="42.46558" lon="18.73098">
        <ele>47.710237</ele>
        <time>2022-05-29T11:03:08.767Z</time>
      </trkpt>
      <trkpt lat="42.46551" lon="18.7311">
        <ele>47.666843</ele>
        <time>2022-05-29T11:03:11.752Z</time>
      </trkpt>
      <trkpt lat="42.46544" lon="18.73125">
        <ele>47.618497</ele>
        <time>2022-05-29T11:03:14.736Z</time>
      </trkpt>
      <trkpt lat="42.46539" lon="18.73141">
        <ele>47.569838</ele>
        <time>2022-05-29T11:03:17.715Z</time>
      </trkpt>
      <trkpt lat="42.46536" lon="18.73158">
        <ele>47.522552</ele>
        <time>2022-05-29T11:03:20.728Z</time>
      </trkpt>
      <trkpt lat="42.46532" lon="18.73172">
        <ele>47.480962</ele>
        <time>2022-05-29T11:03:23.767Z</time>
      </trkpt>
      <trkpt lat="42.46529" lon="18.73187">
        <ele>47.701145</ele>
        <time>2022-05-29T11:03:26.761Z</time>
      </trkpt>
      <trkpt lat="42.46526" lon="18.73198">
        <ele>48.060645</ele>
        <time>2022-05-29T11:03:28.738Z</time>
      </trkpt>
      <trkpt lat="42.46524" lon="18.73211">
        <ele>48.428231</ele>
        <time>2022-05-29T11:03:30.753Z</time>
      </trkpt>
      <trkpt lat="42.46524" lon="18.73227">
        <ele>48.915799</ele>
        <time>2022-05-29T11:03:33.731Z</time>
      </trkpt>
      <trkpt lat="42.46525" lon="18.73244">
        <ele>49.394398</ele>
        <time>2022-05-29T11:03:36.735Z</time>
      </trkpt>
      <trkpt lat="42.46525" lon="18.73256">
        <ele>49.768136</ele>
        <time>2022-05-29T11:03:40.756Z</time>
      </trkpt>
      <trkpt lat="42.46522" lon="18.7327">
        <ele>50.181398</ele>
        <time>2022-05-29T11:03:45.734Z</time>
      </trkpt>
      <trkpt lat="42.46522" lon="18.73284">
        <ele>50.579372</ele>
        <time>2022-05-29T11:03:49.760Z</time>
      </trkpt>
      <trkpt lat="42.46519" lon="18.73296">
        <ele>50.966789</ele>
        <time>2022-05-29T11:03:53.727Z</time>
      </trkpt>
      <trkpt lat="42.46517" lon="18.7331">
        <ele>51.377337</ele>
        <time>2022-05-29T11:03:57.736Z</time>
      </trkpt>
      <trkpt lat="42.46516" lon="18.73327">
        <ele>51.857358</ele>
        <time>2022-05-29T11:04:01.756Z</time>
      </trkpt>
      <trkpt lat="42.46513" lon="18.73341">
        <ele>52.297538</ele>
        <time>2022-05-29T11:04:05.743Z</time>
      </trkpt>
      <trkpt lat="42.46508" lon="18.73355">
        <ele>52.742683</ele>
        <time>2022-05-29T11:04:09.763Z</time>
      </trkpt>
      <trkpt lat="42.46504" lon="18.7337">
        <ele>53.19327</ele>
        <time>2022-05-29T11:04:13.729Z</time>
      </trkpt>
      <trkpt lat="42.46499" lon="18.73384">
        <ele>53.669178</ele>
        <time>2022-05-29T11:04:17.750Z</time>
      </trkpt>
      <trkpt lat="42.46492" lon="18.73396">
        <ele>54.099251</ele>
        <time>2022-05-29T11:04:20.742Z</time>
      </trkpt>
      <trkpt lat="42.46484" lon="18.7341">
        <ele>54.517735</ele>
        <time>2022-05-29T11:04:23.738Z</time>
      </trkpt>
      <trkpt lat="42.46478" lon="18.73421">
        <ele>54.025231</ele>
        <time>2022-05-29T11:04:25.740Z</time>
      </trkpt>
      <trkpt lat="42.46471" lon="18.73432">
        <ele>53.503894</ele>
        <time>2022-05-29T11:04:27.752Z</time>
      </trkpt>
      <trkpt lat="42.46464" lon="18.73444">
        <ele>52.958206</ele>
        <time>2022-05-29T11:04:29.756Z</time>
      </trkpt>
      <trkpt lat="42.46456" lon="18.73457">
        <ele>52.372634</ele>
        <time>2022-05-29T11:04:31.750Z</time>
      </trkpt>
      <trkpt lat="42.46448" lon="18.7347">
        <ele>51.741798</ele>
        <time>2022-05-29T11:04:33.740Z</time>
      </trkpt>
      <trkpt lat="42.46439" lon="18.73483">
        <ele>51.103746</ele>
        <time>2022-05-29T11:04:35.734Z</time>
      </trkpt>
      <trkpt lat="42.46429" lon="18.73495">
        <ele>50.452976</ele>
        <time>2022-05-29T11:04:37.728Z</time>
      </trkpt>
      <trkpt lat="42.4642" lon="18.73508">
        <ele>49.819139</ele>
        <time>2022-05-29T11:04:39.743Z</time>
      </trkpt>
      <trkpt lat="42.4641" lon="18.73518">
        <ele>49.223644</ele>
        <time>2022-05-29T11:04:41.739Z</time>
      </trkpt>
      <trkpt lat="42.46401" lon="18.73527">
        <ele>48.693527</ele>
        <time>2022-05-29T11:04:43.769Z</time>
      </trkpt>
      <trkpt lat="42.46392" lon="18.73535">
        <ele>48.157384</ele>
        <time>2022-05-29T11:04:45.762Z</time>
      </trkpt>
      <trkpt lat="42.46383" lon="18.73545">
        <ele>47.614387</ele>
        <time>2022-05-29T11:04:47.742Z</time>
      </trkpt>
      <trkpt lat="42.46375" lon="18.73555">
        <ele>47.075656</ele>
        <time>2022-05-29T11:04:49.732Z</time>
      </trkpt>
      <trkpt lat="42.46367" lon="18.73564">
        <ele>46.560674</ele>
        <time>2022-05-29T11:04:51.741Z</time>
      </trkpt>
      <trkpt lat="42.46359" lon="18.73573">
        <ele>46.066048</ele>
        <time>2022-05-29T11:04:53.739Z</time>
      </trkpt>
      <trkpt lat="42.4635" lon="18.73586">
        <ele>45.877242</ele>
        <time>2022-05-29T11:04:56.746Z</time>
      </trkpt>
      <trkpt lat="42.46344" lon="18.73599">
        <ele>45.910331</ele>
        <time>2022-05-29T11:04:59.740Z</time>
      </trkpt>
      <trkpt lat="42.46338" lon="18.73613">
        <ele>45.942395</ele>
        <time>2022-05-29T11:05:02.757Z</time>
      </trkpt>
      <trkpt lat="42.46333" lon="18.73625">
        <ele>45.971653</ele>
        <time>2022-05-29T11:05:06.732Z</time>
      </trkpt>
      <trkpt lat="42.46324" lon="18.73637">
        <ele>46.007617</ele>
        <time>2022-05-29T11:05:09.731Z</time>
      </trkpt>
      <trkpt lat="42.46319" lon="18.73647">
        <ele>46.03283</ele>
        <time>2022-05-29T11:05:11.779Z</time>
      </trkpt>
      <trkpt lat="42.46309" lon="18.73658">
        <ele>46.068271</ele>
        <time>2022-05-29T11:05:14.740Z</time>
      </trkpt>
      <trkpt lat="42.46299" lon="18.73668">
        <ele>46.102353</ele>
        <time>2022-05-29T11:05:17.722Z</time>
      </trkpt>
      <trkpt lat="42.4629" lon="18.73675">
        <ele>46.133629</ele>
        <time>2022-05-29T11:05:20.764Z</time>
      </trkpt>
      <trkpt lat="42.46279" lon="18.73683">
        <ele>46.167382</ele>
        <time>2022-05-29T11:05:23.773Z</time>
      </trkpt>
      <trkpt lat="42.46268" lon="18.73689">
        <ele>46.20144</ele>
        <time>2022-05-29T11:05:26.741Z</time>
      </trkpt>
      <trkpt lat="42.46256" lon="18.73696">
        <ele>46.236612</ele>
        <time>2022-05-29T11:05:29.749Z</time>
      </trkpt>
      <trkpt lat="42.46245" lon="18.73706">
        <ele>46.27476</ele>
        <time>2022-05-29T11:05:32.748Z</time>
      </trkpt>
      <trkpt lat="42.46235" lon="18.73711">
        <ele>46.305167</ele>
        <time>2022-05-29T11:05:34.772Z</time>
      </trkpt>
      <trkpt lat="42.46225" lon="18.73714">
        <ele>46.333309</ele>
        <time>2022-05-29T11:05:36.740Z</time>
      </trkpt>
      <trkpt lat="42.46215" lon="18.73716">
        <ele>46.376817</ele>
        <time>2022-05-29T11:05:38.730Z</time>
      </trkpt>
      <trkpt lat="42.46207" lon="18.73717">
        <ele>46.593022</ele>
        <time>2022-05-29T11:05:40.741Z</time>
      </trkpt>
      <trkpt lat="42.46195" lon="18.7372">
        <ele>46.876176</ele>
        <time>2022-05-29T11:05:43.756Z</time>
      </trkpt>
      <trkpt lat="42.46185" lon="18.73722">
        <ele>47.106954</ele>
        <time>2022-05-29T11:05:45.773Z</time>
      </trkpt>
      <trkpt lat="42.46176" lon="18.73725">
        <ele>47.341634</ele>
        <time>2022-05-29T11:05:47.737Z</time>
      </trkpt>
      <trkpt lat="42.46164" lon="18.73731">
        <ele>47.656766</ele>
        <time>2022-05-29T11:05:50.756Z</time>
      </trkpt>
      <trkpt lat="42.46152" lon="18.73739">
        <ele>47.9702</ele>
        <time>2022-05-29T11:05:53.730Z</time>
      </trkpt>
      <trkpt lat="42.46142" lon="18.73747">
        <ele>48.243921</ele>
        <time>2022-05-29T11:05:56.745Z</time>
      </trkpt>
      <trkpt lat="42.46133" lon="18.73755">
        <ele>48.509331</ele>
        <time>2022-05-29T11:05:59.756Z</time>
      </trkpt>
      <trkpt lat="42.46125" lon="18.73764">
        <ele>48.7678</ele>
        <time>2022-05-29T11:06:02.768Z</time>
      </trkpt>
      <trkpt lat="42.46118" lon="18.73774">
        <ele>49.010397</ele>
        <time>2022-05-29T11:06:05.740Z</time>
      </trkpt>
      <trkpt lat="42.46111" lon="18.73784">
        <ele>49.260594</ele>
        <time>2022-05-29T11:06:08.751Z</time>
      </trkpt>
      <trkpt lat="42.46103" lon="18.73795">
        <ele>49.519789</ele>
        <time>2022-05-29T11:06:12.739Z</time>
      </trkpt>
      <trkpt lat="42.4609" lon="18.73819">
        <ele>50.055068</ele>
        <time>2022-05-29T11:08:55.773Z</time>
      </trkpt>
      <trkpt lat="42.46084" lon="18.73829">
        <ele>50.28175</ele>
        <time>2022-05-29T11:08:59.750Z</time>
      </trkpt>
      <trkpt lat="42.46078" lon="18.7384">
        <ele>50.532234</ele>
        <time>2022-05-29T11:09:03.745Z</time>
      </trkpt>
      <trkpt lat="42.46071" lon="18.73851">
        <ele>50.650217</ele>
        <time>2022-05-29T11:09:07.776Z</time>
      </trkpt>
      <trkpt lat="42.46064" lon="18.73865">
        <ele>50.506665</ele>
        <time>2022-05-29T11:09:11.764Z</time>
      </trkpt>
      <trkpt lat="42.46057" lon="18.73878">
        <ele>50.361769</ele>
        <time>2022-05-29T11:09:14.739Z</time>
      </trkpt>
      <trkpt lat="42.46052" lon="18.73891">
        <ele>50.234611</ele>
        <time>2022-05-29T11:09:17.737Z</time>
      </trkpt>
      <trkpt lat="42.46046" lon="18.73903">
        <ele>50.10988</ele>
        <time>2022-05-29T11:09:20.738Z</time>
      </trkpt>
      <trkpt lat="42.4604" lon="18.73913">
        <ele>50.001051</ele>
        <time>2022-05-29T11:09:23.744Z</time>
      </trkpt>
      <trkpt lat="42.46034" lon="18.73924">
        <ele>49.88193</ele>
        <time>2022-05-29T11:09:26.743Z</time>
      </trkpt>
      <trkpt lat="42.4603" lon="18.73937">
        <ele>49.758158</ele>
        <time>2022-05-29T11:09:29.739Z</time>
      </trkpt>
      <trkpt lat="42.46025" lon="18.73949">
        <ele>49.636706</ele>
        <time>2022-05-29T11:09:32.721Z</time>
      </trkpt>
      <trkpt lat="42.4602" lon="18.7396">
        <ele>49.523381</ele>
        <time>2022-05-29T11:09:35.736Z</time>
      </trkpt>
      <trkpt lat="42.46013" lon="18.73969">
        <ele>49.411227</ele>
        <time>2022-05-29T11:09:38.725Z</time>
      </trkpt>
      <trkpt lat="42.46003" lon="18.73974">
        <ele>49.292166</ele>
        <time>2022-05-29T11:09:41.750Z</time>
      </trkpt>
      <trkpt lat="42.45993" lon="18.73982">
        <ele>49.15925</ele>
        <time>2022-05-29T11:09:44.751Z</time>
      </trkpt>
      <trkpt lat="42.45984" lon="18.73991">
        <ele>49.027125</ele>
        <time>2022-05-29T11:09:47.734Z</time>
      </trkpt>
      <trkpt lat="42.45975" lon="18.73999">
        <ele>48.900831</ele>
        <time>2022-05-29T11:09:50.754Z</time>
      </trkpt>
      <trkpt lat="42.45968" lon="18.74008">
        <ele>48.781266</ele>
        <time>2022-05-29T11:09:53.781Z</time>
      </trkpt>
      <trkpt lat="42.4596" lon="18.74018">
        <ele>48.660249</ele>
        <time>2022-05-29T11:09:56.754Z</time>
      </trkpt>
      <trkpt lat="42.45953" lon="18.74027">
        <ele>48.515281</ele>
        <time>2022-05-29T11:09:59.734Z</time>
      </trkpt>
      <trkpt lat="42.45946" lon="18.74038">
        <ele>48.322704</ele>
        <time>2022-05-29T11:10:02.754Z</time>
      </trkpt>
      <trkpt lat="42.4594" lon="18.74049">
        <ele>48.140492</ele>
        <time>2022-05-29T11:10:05.774Z</time>
      </trkpt>
      <trkpt lat="42.45934" lon="18.74061">
        <ele>47.942101</ele>
        <time>2022-05-29T11:10:08.760Z</time>
      </trkpt>
      <trkpt lat="42.45928" lon="18.74074">
        <ele>47.744828</ele>
        <time>2022-05-29T11:10:11.739Z</time>
      </trkpt>
      <trkpt lat="42.45925" lon="18.74088">
        <ele>47.547484</ele>
        <time>2022-05-29T11:10:14.756Z</time>
      </trkpt>
      <trkpt lat="42.4592" lon="18.74102">
        <ele>47.337027</ele>
        <time>2022-05-29T11:10:17.774Z</time>
      </trkpt>
      <trkpt lat="42.45913" lon="18.74116">
        <ele>47.12077</ele>
        <time>2022-05-29T11:10:20.756Z</time>
      </trkpt>
      <trkpt lat="42.45906" lon="18.74129">
        <ele>46.892221</ele>
        <time>2022-05-29T11:10:23.734Z</time>
      </trkpt>
      <trkpt lat="42.45899" lon="18.74143">
        <ele>46.675147</ele>
        <time>2022-05-29T11:10:26.737Z</time>
      </trkpt>
      <trkpt lat="42.45892" lon="18.74156">
        <ele>46.458419</ele>
        <time>2022-05-29T11:10:29.727Z</time>
      </trkpt>
      <trkpt lat="42.45883" lon="18.74166">
        <ele>46.240616</ele>
        <time>2022-05-29T11:10:32.734Z</time>
      </trkpt>
      <trkpt lat="42.45873" lon="18.74172">
        <ele>46.047527</ele>
        <time>2022-05-29T11:10:35.739Z</time>
      </trkpt>
      <trkpt lat="42.45863" lon="18.74178">
        <ele>45.844824</ele>
        <time>2022-05-29T11:10:38.728Z</time>
      </trkpt>
      <trkpt lat="42.45853" lon="18.74183">
        <ele>45.65299</ele>
        <time>2022-05-29T11:10:41.743Z</time>
      </trkpt>
      <trkpt lat="42.45842" lon="18.74189">
        <ele>45.440084</ele>
        <time>2022-05-29T11:10:44.733Z</time>
      </trkpt>
      <trkpt lat="42.45832" lon="18.74196">
        <ele>45.358643</ele>
        <time>2022-05-29T11:10:47.733Z</time>
      </trkpt>
      <trkpt lat="42.45823" lon="18.74202">
        <ele>45.458316</ele>
        <time>2022-05-29T11:10:50.748Z</time>
      </trkpt>
      <trkpt lat="42.45813" lon="18.74207">
        <ele>45.560175</ele>
        <time>2022-05-29T11:10:53.754Z</time>
      </trkpt>
      <trkpt lat="42.45802" lon="18.74215">
        <ele>45.676747</ele>
        <time>2022-05-29T11:10:56.721Z</time>
      </trkpt>
      <trkpt lat="42.45795" lon="18.74223">
        <ele>45.765195</ele>
        <time>2022-05-29T11:10:58.756Z</time>
      </trkpt>
      <trkpt lat="42.45785" lon="18.74235">
        <ele>45.893642</ele>
        <time>2022-05-29T11:11:01.741Z</time>
      </trkpt>
      <trkpt lat="42.45777" lon="18.74242">
        <ele>45.980683</ele>
        <time>2022-05-29T11:11:03.722Z</time>
      </trkpt>
      <trkpt lat="42.45767" lon="18.74254">
        <ele>46.109252</ele>
        <time>2022-05-29T11:11:06.736Z</time>
      </trkpt>
      <trkpt lat="42.45757" lon="18.74266">
        <ele>46.237023</ele>
        <time>2022-05-29T11:11:09.740Z</time>
      </trkpt>
      <trkpt lat="42.45749" lon="18.74281">
        <ele>46.36858</ele>
        <time>2022-05-29T11:11:12.730Z</time>
      </trkpt>
      <trkpt lat="42.45743" lon="18.74291">
        <ele>46.457227</ele>
        <time>2022-05-29T11:11:14.741Z</time>
      </trkpt>
      <trkpt lat="42.45738" lon="18.74306">
        <ele>46.569377</ele>
        <time>2022-05-29T11:11:17.742Z</time>
      </trkpt>
      <trkpt lat="42.45735" lon="18.74317">
        <ele>46.655365</ele>
        <time>2022-05-29T11:11:19.758Z</time>
      </trkpt>
      <trkpt lat="42.45729" lon="18.74333">
        <ele>46.779064</ele>
        <time>2022-05-29T11:11:22.742Z</time>
      </trkpt>
      <trkpt lat="42.45724" lon="18.74348">
        <ele>46.893863</ele>
        <time>2022-05-29T11:11:25.748Z</time>
      </trkpt>
      <trkpt lat="42.45717" lon="18.74363">
        <ele>47.018726</ele>
        <time>2022-05-29T11:11:28.740Z</time>
      </trkpt>
      <trkpt lat="42.45711" lon="18.74373">
        <ele>46.993132</ele>
        <time>2022-05-29T11:11:30.740Z</time>
      </trkpt>
      <trkpt lat="42.45705" lon="18.74383">
        <ele>46.953358</ele>
        <time>2022-05-29T11:11:32.739Z</time>
      </trkpt>
      <trkpt lat="42.45699" lon="18.74398">
        <ele>46.902854</ele>
        <time>2022-05-29T11:11:35.743Z</time>
      </trkpt>
      <trkpt lat="42.45692" lon="18.74413">
        <ele>46.846659</ele>
        <time>2022-05-29T11:11:38.740Z</time>
      </trkpt>
      <trkpt lat="42.45686" lon="18.74423">
        <ele>46.807109</ele>
        <time>2022-05-29T11:11:40.726Z</time>
      </trkpt>
      <trkpt lat="42.45677" lon="18.74437">
        <ele>46.749942</ele>
        <time>2022-05-29T11:11:43.755Z</time>
      </trkpt>
      <trkpt lat="42.45668" lon="18.74451">
        <ele>46.695271</ele>
        <time>2022-05-29T11:11:46.724Z</time>
      </trkpt>
      <trkpt lat="42.45662" lon="18.74463">
        <ele>46.649455</ele>
        <time>2022-05-29T11:11:49.737Z</time>
      </trkpt>
      <trkpt lat="42.45655" lon="18.74474">
        <ele>46.604626</ele>
        <time>2022-05-29T11:11:52.748Z</time>
      </trkpt>
      <trkpt lat="42.45648" lon="18.74486">
        <ele>46.556538</ele>
        <time>2022-05-29T11:11:55.740Z</time>
      </trkpt>
      <trkpt lat="42.45641" lon="18.745">
        <ele>46.505235</ele>
        <time>2022-05-29T11:11:58.756Z</time>
      </trkpt>
      <trkpt lat="42.45635" lon="18.74515">
        <ele>46.453574</ele>
        <time>2022-05-29T11:12:01.760Z</time>
      </trkpt>
      <trkpt lat="42.45629" lon="18.74528">
        <ele>46.406088</ele>
        <time>2022-05-29T11:12:04.736Z</time>
      </trkpt>
      <trkpt lat="42.45625" lon="18.74543">
        <ele>46.357067</ele>
        <time>2022-05-29T11:12:07.737Z</time>
      </trkpt>
      <trkpt lat="42.4562" lon="18.74558">
        <ele>46.305794</ele>
        <time>2022-05-29T11:12:10.740Z</time>
      </trkpt>
      <trkpt lat="42.45615" lon="18.74574">
        <ele>46.180812</ele>
        <time>2022-05-29T11:12:13.733Z</time>
      </trkpt>
      <trkpt lat="42.45612" lon="18.74586">
        <ele>46.043457</ele>
        <time>2022-05-29T11:12:15.738Z</time>
      </trkpt>
      <trkpt lat="42.45607" lon="18.74602">
        <ele>45.84711</ele>
        <time>2022-05-29T11:12:18.740Z</time>
      </trkpt>
      <trkpt lat="42.45605" lon="18.74614">
        <ele>45.71193</ele>
        <time>2022-05-29T11:12:20.731Z</time>
      </trkpt>
      <trkpt lat="42.45603" lon="18.7463">
        <ele>45.531471</ele>
        <time>2022-05-29T11:12:23.739Z</time>
      </trkpt>
      <trkpt lat="42.45601" lon="18.74646">
        <ele>45.346594</ele>
        <time>2022-05-29T11:12:26.736Z</time>
      </trkpt>
      <trkpt lat="42.45598" lon="18.74661">
        <ele>45.179001</ele>
        <time>2022-05-29T11:12:29.733Z</time>
      </trkpt>
      <trkpt lat="42.45595" lon="18.74675">
        <ele>45.017646</ele>
        <time>2022-05-29T11:12:32.750Z</time>
      </trkpt>
      <trkpt lat="42.45589" lon="18.74686">
        <ele>44.870467</ele>
        <time>2022-05-29T11:12:37.732Z</time>
      </trkpt>
      <trkpt lat="42.45583" lon="18.74696">
        <ele>44.727064</ele>
        <time>2022-05-29T11:12:42.745Z</time>
      </trkpt>
      <trkpt lat="42.45579" lon="18.74707">
        <ele>44.579984</ele>
        <time>2022-05-29T11:12:46.744Z</time>
      </trkpt>
      <trkpt lat="42.45573" lon="18.74718">
        <ele>44.427697</ele>
        <time>2022-05-29T11:12:49.744Z</time>
      </trkpt>
      <trkpt lat="42.45566" lon="18.74729">
        <ele>44.267948</ele>
        <time>2022-05-29T11:12:52.740Z</time>
      </trkpt>
      <trkpt lat="42.45557" lon="18.74739">
        <ele>44.098394</ele>
        <time>2022-05-29T11:12:55.750Z</time>
      </trkpt>
      <trkpt lat="42.45546" lon="18.74745">
        <ele>43.912224</ele>
        <time>2022-05-29T11:12:58.751Z</time>
      </trkpt>
      <trkpt lat="42.45534" lon="18.7475">
        <ele>43.736434</ele>
        <time>2022-05-29T11:13:01.733Z</time>
      </trkpt>
      <trkpt lat="42.45524" lon="18.74753">
        <ele>43.568894</ele>
        <time>2022-05-29T11:13:04.745Z</time>
      </trkpt>
      <trkpt lat="42.45513" lon="18.74757">
        <ele>43.963441</ele>
        <time>2022-05-29T11:13:07.728Z</time>
      </trkpt>
      <trkpt lat="42.45502" lon="18.74758">
        <ele>44.377687</ele>
        <time>2022-05-29T11:13:10.724Z</time>
      </trkpt>
      <trkpt lat="42.4549" lon="18.7476">
        <ele>44.79845</ele>
        <time>2022-05-29T11:13:13.745Z</time>
      </trkpt>
      <trkpt lat="42.45477" lon="18.74764">
        <ele>45.271573</ele>
        <time>2022-05-29T11:13:16.725Z</time>
      </trkpt>
      <trkpt lat="42.45465" lon="18.74768">
        <ele>45.749938</ele>
        <time>2022-05-29T11:13:19.745Z</time>
      </trkpt>
      <trkpt lat="42.45453" lon="18.74771">
        <ele>46.185152</ele>
        <time>2022-05-29T11:13:22.740Z</time>
      </trkpt>
      <trkpt lat="42.45442" lon="18.74778">
        <ele>46.609984</ele>
        <time>2022-05-29T11:13:25.749Z</time>
      </trkpt>
      <trkpt lat="42.45433" lon="18.74787">
        <ele>47.033266</ele>
        <time>2022-05-29T11:13:28.728Z</time>
      </trkpt>
      <trkpt lat="42.45423" lon="18.74796">
        <ele>47.480655</ele>
        <time>2022-05-29T11:13:31.950Z</time>
      </trkpt>
      <trkpt lat="42.45412" lon="18.74807">
        <ele>47.979485</ele>
        <time>2022-05-29T11:13:34.752Z</time>
      </trkpt>
      <trkpt lat="42.45403" lon="18.74813">
        <ele>48.331841</ele>
        <time>2022-05-29T11:13:36.735Z</time>
      </trkpt>
      <trkpt lat="42.45396" lon="18.7482">
        <ele>48.668828</ele>
        <time>2022-05-29T11:13:38.733Z</time>
      </trkpt>
      <trkpt lat="42.45385" lon="18.74828">
        <ele>49.114325</ele>
        <time>2022-05-29T11:13:41.738Z</time>
      </trkpt>
      <trkpt lat="42.45373" lon="18.74834">
        <ele>49.581977</ele>
        <time>2022-05-29T11:13:44.738Z</time>
      </trkpt>
      <trkpt lat="42.45361" lon="18.74837">
        <ele>50.023536</ele>
        <time>2022-05-29T11:13:47.741Z</time>
      </trkpt>
      <trkpt lat="42.45351" lon="18.74842">
        <ele>50.187641</ele>
        <time>2022-05-29T11:13:50.739Z</time>
      </trkpt>
      <trkpt lat="42.45341" lon="18.74847">
        <ele>50.259164</ele>
        <time>2022-05-29T11:13:53.742Z</time>
      </trkpt>
      <trkpt lat="42.4533" lon="18.74853">
        <ele>50.337816</ele>
        <time>2022-05-29T11:13:56.742Z</time>
      </trkpt>
      <trkpt lat="42.4532" lon="18.7486">
        <ele>50.413592</ele>
        <time>2022-05-29T11:13:59.739Z</time>
      </trkpt>
      <trkpt lat="42.45311" lon="18.74867">
        <ele>50.483517</ele>
        <time>2022-05-29T11:14:02.745Z</time>
      </trkpt>
      <trkpt lat="42.45303" lon="18.74873">
        <ele>50.549075</ele>
        <time>2022-05-29T11:14:06.737Z</time>
      </trkpt>
      <trkpt lat="42.45294" lon="18.74881">
        <ele>50.61764</ele>
        <time>2022-05-29T11:14:10.757Z</time>
      </trkpt>
      <trkpt lat="42.45286" lon="18.74889">
        <ele>50.683368</ele>
        <time>2022-05-29T11:14:14.823Z</time>
      </trkpt>
      <trkpt lat="42.45294" lon="18.7488">
        <ele>50.752351</ele>
        <time>2022-05-29T11:14:29.722Z</time>
      </trkpt>
      <trkpt lat="42.45306" lon="18.74873">
        <ele>50.835433</ele>
        <time>2022-05-29T11:14:33.730Z</time>
      </trkpt>
      <trkpt lat="42.45316" lon="18.74868">
        <ele>50.909565</ele>
        <time>2022-05-29T11:14:36.755Z</time>
      </trkpt>
      <trkpt lat="42.45327" lon="18.74865">
        <ele>50.988887</ele>
        <time>2022-05-29T11:14:39.722Z</time>
      </trkpt>
      <trkpt lat="42.45336" lon="18.7486">
        <ele>51.053016</ele>
        <time>2022-05-29T11:14:42.723Z</time>
      </trkpt>
      <trkpt lat="42.45347" lon="18.74853">
        <ele>51.134055</ele>
        <time>2022-05-29T11:14:46.735Z</time>
      </trkpt>
      <trkpt lat="42.45356" lon="18.74855">
        <ele>51.197612</ele>
        <time>2022-05-29T11:14:51.758Z</time>
      </trkpt>
      <trkpt lat="42.45338" lon="18.74849">
        <ele>51.324488</ele>
        <time>2022-05-29T11:15:35.735Z</time>
      </trkpt>
      <trkpt lat="42.45327" lon="18.74854">
        <ele>51.19239</ele>
        <time>2022-05-29T11:15:39.721Z</time>
      </trkpt>
      <trkpt lat="42.45317" lon="18.74861">
        <ele>50.958978</ele>
        <time>2022-05-29T11:15:43.742Z</time>
      </trkpt>
      <trkpt lat="42.45308" lon="18.74868">
        <ele>50.72189</ele>
        <time>2022-05-29T11:15:47.721Z</time>
      </trkpt>
      <trkpt lat="42.453" lon="18.74877">
        <ele>50.512881</ele>
        <time>2022-05-29T11:15:51.739Z</time>
      </trkpt>
      <trkpt lat="42.45293" lon="18.74885">
        <ele>50.297116</ele>
        <time>2022-05-29T11:15:54.781Z</time>
      </trkpt>
      <trkpt lat="42.45285" lon="18.74892">
        <ele>50.093378</ele>
        <time>2022-05-29T11:15:57.740Z</time>
      </trkpt>
      <trkpt lat="42.45278" lon="18.74904">
        <ele>49.850988</ele>
        <time>2022-05-29T11:16:02.734Z</time>
      </trkpt>
      <trkpt lat="42.4527" lon="18.74912">
        <ele>49.645919</ele>
        <time>2022-05-29T11:16:05.776Z</time>
      </trkpt>
      <trkpt lat="42.45261" lon="18.74922">
        <ele>49.398939</ele>
        <time>2022-05-29T11:16:09.760Z</time>
      </trkpt>
      <trkpt lat="42.45253" lon="18.74927">
        <ele>49.203097</ele>
        <time>2022-05-29T11:16:12.732Z</time>
      </trkpt>
      <trkpt lat="42.45246" lon="18.74935">
        <ele>48.998485</ele>
        <time>2022-05-29T11:16:15.736Z</time>
      </trkpt>
      <trkpt lat="42.45236" lon="18.74945">
        <ele>48.744198</ele>
        <time>2022-05-29T11:16:19.723Z</time>
      </trkpt>
      <trkpt lat="42.45227" lon="18.7495">
        <ele>48.523876</ele>
        <time>2022-05-29T11:16:23.736Z</time>
      </trkpt>
      <trkpt lat="42.45218" lon="18.74953">
        <ele>48.317882</ele>
        <time>2022-05-29T11:16:26.731Z</time>
      </trkpt>
      <trkpt lat="42.45207" lon="18.74957">
        <ele>48.075711</ele>
        <time>2022-05-29T11:16:29.708Z</time>
      </trkpt>
      <trkpt lat="42.45196" lon="18.74962">
        <ele>47.83127</ele>
        <time>2022-05-29T11:16:32.738Z</time>
      </trkpt>
      <trkpt lat="42.45185" lon="18.74968">
        <ele>47.580758</ele>
        <time>2022-05-29T11:16:35.748Z</time>
      </trkpt>
      <trkpt lat="42.45176" lon="18.74973">
        <ele>47.386826</ele>
        <time>2022-05-29T11:16:38.732Z</time>
      </trkpt>
      <trkpt lat="42.45165" lon="18.74977">
        <ele>47.190821</ele>
        <time>2022-05-29T11:16:41.725Z</time>
      </trkpt>
      <trkpt lat="42.45154" lon="18.74983">
        <ele>46.979172</ele>
        <time>2022-05-29T11:16:44.721Z</time>
      </trkpt>
      <trkpt lat="42.45144" lon="18.7499">
        <ele>46.784483</ele>
        <time>2022-05-29T11:16:47.734Z</time>
      </trkpt>
      <trkpt lat="42.45134" lon="18.74992">
        <ele>46.600564</ele>
        <time>2022-05-29T11:16:50.723Z</time>
      </trkpt>
      <trkpt lat="42.45123" lon="18.7499">
        <ele>46.413214</ele>
        <time>2022-05-29T11:16:53.727Z</time>
      </trkpt>
      <trkpt lat="42.45111" lon="18.74992">
        <ele>46.196829</ele>
        <time>2022-05-29T11:16:56.752Z</time>
      </trkpt>
      <trkpt lat="42.451" lon="18.74998">
        <ele>46.004526</ele>
        <time>2022-05-29T11:16:58.711Z</time>
      </trkpt>
      <trkpt lat="42.45091" lon="18.75004">
        <ele>45.818637</ele>
        <time>2022-05-29T11:17:00.731Z</time>
      </trkpt>
      <trkpt lat="42.45083" lon="18.75011">
        <ele>45.658373</ele>
        <time>2022-05-29T11:17:02.758Z</time>
      </trkpt>
      <trkpt lat="42.45073" lon="18.75021">
        <ele>45.435338</ele>
        <time>2022-05-29T11:17:05.734Z</time>
      </trkpt>
      <trkpt lat="42.45064" lon="18.75031">
        <ele>45.23155</ele>
        <time>2022-05-29T11:17:08.753Z</time>
      </trkpt>
      <trkpt lat="42.45056" lon="18.75039">
        <ele>45.064157</ele>
        <time>2022-05-29T11:17:11.729Z</time>
      </trkpt>
      <trkpt lat="42.45049" lon="18.75048">
        <ele>44.888871</ele>
        <time>2022-05-29T11:17:14.739Z</time>
      </trkpt>
      <trkpt lat="42.4504" lon="18.7506">
        <ele>44.677256</ele>
        <time>2022-05-29T11:17:17.734Z</time>
      </trkpt>
      <trkpt lat="42.45032" lon="18.7507">
        <ele>44.493151</ele>
        <time>2022-05-29T11:17:20.740Z</time>
      </trkpt>
      <trkpt lat="42.45025" lon="18.75082">
        <ele>44.269596</ele>
        <time>2022-05-29T11:17:23.737Z</time>
      </trkpt>
      <trkpt lat="42.45018" lon="18.75095">
        <ele>43.986067</ele>
        <time>2022-05-29T11:17:26.736Z</time>
      </trkpt>
      <trkpt lat="42.45011" lon="18.75107">
        <ele>43.705412</ele>
        <time>2022-05-29T11:17:29.728Z</time>
      </trkpt>
      <trkpt lat="42.45005" lon="18.75119">
        <ele>43.443592</ele>
        <time>2022-05-29T11:17:32.742Z</time>
      </trkpt>
      <trkpt lat="42.44998" lon="18.75132">
        <ele>43.154254</ele>
        <time>2022-05-29T11:17:36.725Z</time>
      </trkpt>
      <trkpt lat="42.44991" lon="18.75142">
        <ele>42.908638</ele>
        <time>2022-05-29T11:17:39.735Z</time>
      </trkpt>
      <trkpt lat="42.44983" lon="18.75154">
        <ele>42.618554</ele>
        <time>2022-05-29T11:17:42.723Z</time>
      </trkpt>
      <trkpt lat="42.44976" lon="18.75165">
        <ele>42.353113</ele>
        <time>2022-05-29T11:17:45.737Z</time>
      </trkpt>
      <trkpt lat="42.44971" lon="18.75178">
        <ele>42.088782</ele>
        <time>2022-05-29T11:17:48.751Z</time>
      </trkpt>
      <trkpt lat="42.44968" lon="18.75193">
        <ele>41.810129</ele>
        <time>2022-05-29T11:17:51.752Z</time>
      </trkpt>
      <trkpt lat="42.44965" lon="18.75208">
        <ele>41.528747</ele>
        <time>2022-05-29T11:17:54.748Z</time>
      </trkpt>
      <trkpt lat="42.44961" lon="18.75223">
        <ele>41.24494</ele>
        <time>2022-05-29T11:17:57.753Z</time>
      </trkpt>
      <trkpt lat="42.44958" lon="18.75238">
        <ele>40.962325</ele>
        <time>2022-05-29T11:18:00.721Z</time>
      </trkpt>
      <trkpt lat="42.44954" lon="18.75253">
        <ele>40.67222</ele>
        <time>2022-05-29T11:18:03.721Z</time>
      </trkpt>
      <trkpt lat="42.4495" lon="18.7527">
        <ele>40.365528</ele>
        <time>2022-05-29T11:18:06.734Z</time>
      </trkpt>
      <trkpt lat="42.44947" lon="18.75285">
        <ele>40.082035</ele>
        <time>2022-05-29T11:18:09.770Z</time>
      </trkpt>
      <trkpt lat="42.44943" lon="18.75297">
        <ele>39.778653</ele>
        <time>2022-05-29T11:18:12.742Z</time>
      </trkpt>
      <trkpt lat="42.44938" lon="18.75311">
        <ele>39.37816</ele>
        <time>2022-05-29T11:18:15.753Z</time>
      </trkpt>
      <trkpt lat="42.44933" lon="18.75325">
        <ele>38.981554</ele>
        <time>2022-05-29T11:18:18.753Z</time>
      </trkpt>
      <trkpt lat="42.4493" lon="18.75338">
        <ele>38.614491</ele>
        <time>2022-05-29T11:18:21.734Z</time>
      </trkpt>
      <trkpt lat="42.44925" lon="18.7535">
        <ele>38.251742</ele>
        <time>2022-05-29T11:18:24.752Z</time>
      </trkpt>
      <trkpt lat="42.44921" lon="18.75363">
        <ele>37.888992</ele>
        <time>2022-05-29T11:18:27.757Z</time>
      </trkpt>
      <trkpt lat="42.44914" lon="18.75375">
        <ele>37.474982</ele>
        <time>2022-05-29T11:18:30.730Z</time>
      </trkpt>
      <trkpt lat="42.44906" lon="18.75386">
        <ele>37.088089</ele>
        <time>2022-05-29T11:18:33.732Z</time>
      </trkpt>
      <trkpt lat="42.44898" lon="18.75397">
        <ele>36.681993</ele>
        <time>2022-05-29T11:18:36.756Z</time>
      </trkpt>
      <trkpt lat="42.44889" lon="18.75405">
        <ele>36.302049</ele>
        <time>2022-05-29T11:18:39.744Z</time>
      </trkpt>
      <trkpt lat="42.44879" lon="18.75408">
        <ele>35.915313</ele>
        <time>2022-05-29T11:18:42.731Z</time>
      </trkpt>
      <trkpt lat="42.44868" lon="18.7541">
        <ele>35.538785</ele>
        <time>2022-05-29T11:18:45.744Z</time>
      </trkpt>
      <trkpt lat="42.44858" lon="18.75412">
        <ele>35.184015</ele>
        <time>2022-05-29T11:18:48.733Z</time>
      </trkpt>
      <trkpt lat="42.44848" lon="18.75416">
        <ele>34.819898</ele>
        <time>2022-05-29T11:18:51.755Z</time>
      </trkpt>
      <trkpt lat="42.44839" lon="18.75421">
        <ele>34.467691</ele>
        <time>2022-05-29T11:18:54.755Z</time>
      </trkpt>
      <trkpt lat="42.44829" lon="18.75424">
        <ele>34.082371</ele>
        <time>2022-05-29T11:18:57.749Z</time>
      </trkpt>
      <trkpt lat="42.44817" lon="18.75427">
        <ele>33.64727</ele>
        <time>2022-05-29T11:19:00.771Z</time>
      </trkpt>
      <trkpt lat="42.44805" lon="18.7543">
        <ele>34.069202</ele>
        <time>2022-05-29T11:19:03.749Z</time>
      </trkpt>
      <trkpt lat="42.44794" lon="18.75431">
        <ele>34.716884</ele>
        <time>2022-05-29T11:19:06.725Z</time>
      </trkpt>
      <trkpt lat="42.44783" lon="18.75432">
        <ele>35.337139</ele>
        <time>2022-05-29T11:19:09.739Z</time>
      </trkpt>
      <trkpt lat="42.44773" lon="18.75435">
        <ele>35.957839</ele>
        <time>2022-05-29T11:19:12.740Z</time>
      </trkpt>
      <trkpt lat="42.44762" lon="18.75438">
        <ele>36.558328</ele>
        <time>2022-05-29T11:19:15.745Z</time>
      </trkpt>
      <trkpt lat="42.44752" lon="18.75441">
        <ele>37.192969</ele>
        <time>2022-05-29T11:19:18.749Z</time>
      </trkpt>
      <trkpt lat="42.44741" lon="18.75442">
        <ele>37.806139</ele>
        <time>2022-05-29T11:19:21.757Z</time>
      </trkpt>
      <trkpt lat="42.4473" lon="18.75442">
        <ele>38.452953</ele>
        <time>2022-05-29T11:19:24.742Z</time>
      </trkpt>
      <trkpt lat="42.44719" lon="18.75442">
        <ele>39.065468</ele>
        <time>2022-05-29T11:19:27.756Z</time>
      </trkpt>
      <trkpt lat="42.44708" lon="18.75442">
        <ele>39.666611</ele>
        <time>2022-05-29T11:19:30.761Z</time>
      </trkpt>
      <trkpt lat="42.44698" lon="18.7544">
        <ele>40.275823</ele>
        <time>2022-05-29T11:19:33.744Z</time>
      </trkpt>
      <trkpt lat="42.44686" lon="18.75439">
        <ele>40.924607</ele>
        <time>2022-05-29T11:19:36.743Z</time>
      </trkpt>
      <trkpt lat="42.44676" lon="18.75434">
        <ele>41.543035</ele>
        <time>2022-05-29T11:19:39.740Z</time>
      </trkpt>
      <trkpt lat="42.44667" lon="18.75425">
        <ele>42.178657</ele>
        <time>2022-05-29T11:19:42.768Z</time>
      </trkpt>
      <trkpt lat="42.44658" lon="18.75415">
        <ele>42.859032</ele>
        <time>2022-05-29T11:19:45.745Z</time>
      </trkpt>
      <trkpt lat="42.4465" lon="18.75405">
        <ele>43.51475</ele>
        <time>2022-05-29T11:19:48.724Z</time>
      </trkpt>
      <trkpt lat="42.44641" lon="18.75394">
        <ele>43.838778</ele>
        <time>2022-05-29T11:19:51.747Z</time>
      </trkpt>
      <trkpt lat="42.44633" lon="18.75384">
        <ele>43.811416</ele>
        <time>2022-05-29T11:19:54.768Z</time>
      </trkpt>
      <trkpt lat="42.44626" lon="18.75373">
        <ele>43.783315</ele>
        <time>2022-05-29T11:19:57.791Z</time>
      </trkpt>
      <trkpt lat="42.44619" lon="18.75361">
        <ele>43.756568</ele>
        <time>2022-05-29T11:20:00.742Z</time>
      </trkpt>
      <trkpt lat="42.44612" lon="18.75351">
        <ele>43.730502</ele>
        <time>2022-05-29T11:20:03.727Z</time>
      </trkpt>
      <trkpt lat="42.44606" lon="18.7534">
        <ele>43.704246</ele>
        <time>2022-05-29T11:20:06.732Z</time>
      </trkpt>
      <trkpt lat="42.446" lon="18.7533">
        <ele>43.680638</ele>
        <time>2022-05-29T11:20:09.748Z</time>
      </trkpt>
      <trkpt lat="42.44593" lon="18.7532">
        <ele>43.654847</ele>
        <time>2022-05-29T11:20:12.734Z</time>
      </trkpt>
      <trkpt lat="42.44586" lon="18.75308">
        <ele>43.627281</ele>
        <time>2022-05-29T11:20:15.752Z</time>
      </trkpt>
      <trkpt lat="42.44579" lon="18.75298">
        <ele>43.601427</ele>
        <time>2022-05-29T11:20:18.758Z</time>
      </trkpt>
      <trkpt lat="42.44571" lon="18.75288">
        <ele>43.573388</ele>
        <time>2022-05-29T11:20:21.737Z</time>
      </trkpt>
      <trkpt lat="42.44561" lon="18.75277">
        <ele>43.542041</ele>
        <time>2022-05-29T11:20:24.779Z</time>
      </trkpt>
      <trkpt lat="42.44551" lon="18.75268">
        <ele>43.511457</ele>
        <time>2022-05-29T11:20:27.739Z</time>
      </trkpt>
      <trkpt lat="42.44541" lon="18.75259">
        <ele>43.481373</ele>
        <time>2022-05-29T11:20:30.745Z</time>
      </trkpt>
      <trkpt lat="42.44531" lon="18.75251">
        <ele>43.450859</ele>
        <time>2022-05-29T11:20:33.738Z</time>
      </trkpt>
      <trkpt lat="42.4452" lon="18.75243">
        <ele>43.419838</ele>
        <time>2022-05-29T11:20:36.743Z</time>
      </trkpt>
      <trkpt lat="42.44508" lon="18.75237">
        <ele>43.388047</ele>
        <time>2022-05-29T11:20:39.748Z</time>
      </trkpt>
      <trkpt lat="42.44498" lon="18.7523">
        <ele>43.355992</ele>
        <time>2022-05-29T11:20:42.750Z</time>
      </trkpt>
      <trkpt lat="42.44488" lon="18.75222">
        <ele>43.323291</ele>
        <time>2022-05-29T11:20:45.738Z</time>
      </trkpt>
      <trkpt lat="42.44477" lon="18.75217">
        <ele>43.290897</ele>
        <time>2022-05-29T11:20:48.741Z</time>
      </trkpt>
      <trkpt lat="42.44466" lon="18.75213">
        <ele>43.259031</ele>
        <time>2022-05-29T11:20:51.785Z</time>
      </trkpt>
      <trkpt lat="42.44454" lon="18.75211">
        <ele>43.227755</ele>
        <time>2022-05-29T11:20:54.745Z</time>
      </trkpt>
      <trkpt lat="42.44443" lon="18.75211">
        <ele>43.196073</ele>
        <time>2022-05-29T11:20:57.762Z</time>
      </trkpt>
      <trkpt lat="42.44432" lon="18.75213">
        <ele>43.165834</ele>
        <time>2022-05-29T11:21:00.757Z</time>
      </trkpt>
      <trkpt lat="42.44421" lon="18.75216">
        <ele>43.134966</ele>
        <time>2022-05-29T11:21:03.760Z</time>
      </trkpt>
      <trkpt lat="42.44411" lon="18.75219">
        <ele>43.106481</ele>
        <time>2022-05-29T11:21:06.735Z</time>
      </trkpt>
      <trkpt lat="42.44403" lon="18.75228">
        <ele>43.076919</ele>
        <time>2022-05-29T11:21:09.731Z</time>
      </trkpt>
      <trkpt lat="42.44395" lon="18.75235">
        <ele>43.050222</ele>
        <time>2022-05-29T11:21:12.776Z</time>
      </trkpt>
      <trkpt lat="42.44385" lon="18.75245">
        <ele>43.015662</ele>
        <time>2022-05-29T11:21:15.743Z</time>
      </trkpt>
      <trkpt lat="42.44377" lon="18.75256">
        <ele>42.984623</ele>
        <time>2022-05-29T11:21:18.730Z</time>
      </trkpt>
      <trkpt lat="42.4437" lon="18.75268">
        <ele>42.953894</ele>
        <time>2022-05-29T11:21:21.756Z</time>
      </trkpt>
      <trkpt lat="42.44365" lon="18.75281">
        <ele>42.923654</ele>
        <time>2022-05-29T11:21:24.751Z</time>
      </trkpt>
      <trkpt lat="42.44361" lon="18.75292">
        <ele>42.908283</ele>
        <time>2022-05-29T11:21:27.762Z</time>
      </trkpt>
      <trkpt lat="42.44354" lon="18.75304">
        <ele>42.980082</ele>
        <time>2022-05-29T11:21:30.784Z</time>
      </trkpt>
      <trkpt lat="42.44348" lon="18.75317">
        <ele>43.057797</ele>
        <time>2022-05-29T11:21:33.733Z</time>
      </trkpt>
      <trkpt lat="42.4434" lon="18.75331">
        <ele>43.144086</ele>
        <time>2022-05-29T11:21:36.759Z</time>
      </trkpt>
      <trkpt lat="42.44335" lon="18.75343">
        <ele>43.213846</ele>
        <time>2022-05-29T11:21:39.751Z</time>
      </trkpt>
      <trkpt lat="42.44331" lon="18.75355">
        <ele>43.278025</ele>
        <time>2022-05-29T11:21:42.808Z</time>
      </trkpt>
      <trkpt lat="42.44328" lon="18.75368">
        <ele>43.343509</ele>
        <time>2022-05-29T11:21:45.736Z</time>
      </trkpt>
      <trkpt lat="42.44321" lon="18.7538">
        <ele>43.417683</ele>
        <time>2022-05-29T11:21:49.753Z</time>
      </trkpt>
      <trkpt lat="42.44311" lon="18.75387">
        <ele>43.491958</ele>
        <time>2022-05-29T11:21:52.771Z</time>
      </trkpt>
      <trkpt lat="42.44302" lon="18.75394">
        <ele>43.560421</ele>
        <time>2022-05-29T11:21:55.732Z</time>
      </trkpt>
      <trkpt lat="42.44293" lon="18.75399">
        <ele>43.624245</ele>
        <time>2022-05-29T11:21:59.741Z</time>
      </trkpt>
      <trkpt lat="42.44285" lon="18.75408">
        <ele>43.694673</ele>
        <time>2022-05-29T11:22:04.728Z</time>
      </trkpt>
      <trkpt lat="42.44278" lon="18.75417">
        <ele>43.757745</ele>
        <time>2022-05-29T11:22:08.747Z</time>
      </trkpt>
      <trkpt lat="42.44271" lon="18.75424">
        <ele>43.817205</ele>
        <time>2022-05-29T11:22:11.743Z</time>
      </trkpt>
      <trkpt lat="42.44262" lon="18.75433">
        <ele>43.887334</ele>
        <time>2022-05-29T11:22:15.743Z</time>
      </trkpt>
      <trkpt lat="42.44254" lon="18.75439">
        <ele>43.948127</ele>
        <time>2022-05-29T11:22:19.738Z</time>
      </trkpt>
      <trkpt lat="42.44245" lon="18.75446">
        <ele>44.017579</ele>
        <time>2022-05-29T11:22:24.750Z</time>
      </trkpt>
      <trkpt lat="42.44238" lon="18.75453">
        <ele>44.077498</ele>
        <time>2022-05-29T11:22:27.754Z</time>
      </trkpt>
      <trkpt lat="42.44228" lon="18.75457">
        <ele>44.332611</ele>
        <time>2022-05-29T11:22:30.760Z</time>
      </trkpt>
      <trkpt lat="42.44219" lon="18.7546">
        <ele>44.600481</ele>
        <time>2022-05-29T11:22:33.759Z</time>
      </trkpt>
      <trkpt lat="42.44209" lon="18.75462">
        <ele>44.880569</ele>
        <time>2022-05-29T11:22:36.764Z</time>
      </trkpt>
      <trkpt lat="42.44199" lon="18.75462">
        <ele>45.177362</ele>
        <time>2022-05-29T11:22:39.745Z</time>
      </trkpt>
      <trkpt lat="42.44188" lon="18.75462">
        <ele>45.479794</ele>
        <time>2022-05-29T11:22:42.726Z</time>
      </trkpt>
      <trkpt lat="42.44177" lon="18.75461">
        <ele>45.794616</ele>
        <time>2022-05-29T11:22:45.759Z</time>
      </trkpt>
      <trkpt lat="42.44166" lon="18.7546">
        <ele>46.123658</ele>
        <time>2022-05-29T11:22:48.750Z</time>
      </trkpt>
      <trkpt lat="42.44154" lon="18.75458">
        <ele>46.467662</ele>
        <time>2022-05-29T11:22:51.747Z</time>
      </trkpt>
      <trkpt lat="42.44144" lon="18.75453">
        <ele>46.785758</ele>
        <time>2022-05-29T11:22:54.759Z</time>
      </trkpt>
      <trkpt lat="42.44134" lon="18.75448">
        <ele>47.08862</ele>
        <time>2022-05-29T11:22:57.764Z</time>
      </trkpt>
      <trkpt lat="42.44124" lon="18.75441">
        <ele>47.416789</ele>
        <time>2022-05-29T11:23:00.753Z</time>
      </trkpt>
      <trkpt lat="42.44116" lon="18.75432">
        <ele>47.708906</ele>
        <time>2022-05-29T11:23:03.757Z</time>
      </trkpt>
      <trkpt lat="42.44107" lon="18.75427">
        <ele>47.985421</ele>
        <time>2022-05-29T11:23:05.746Z</time>
      </trkpt>
      <trkpt lat="42.44099" lon="18.75422">
        <ele>48.249845</ele>
        <time>2022-05-29T11:23:07.749Z</time>
      </trkpt>
      <trkpt lat="42.4409" lon="18.75417">
        <ele>48.522038</ele>
        <time>2022-05-29T11:23:09.735Z</time>
      </trkpt>
      <trkpt lat="42.44081" lon="18.75411">
        <ele>48.799459</ele>
        <time>2022-05-29T11:23:11.765Z</time>
      </trkpt>
      <trkpt lat="42.44073" lon="18.75406">
        <ele>49.079468</ele>
        <time>2022-05-29T11:23:13.774Z</time>
      </trkpt>
      <trkpt lat="42.44064" lon="18.75402">
        <ele>49.18133</ele>
        <time>2022-05-29T11:23:15.764Z</time>
      </trkpt>
      <trkpt lat="42.44055" lon="18.75396">
        <ele>48.880904</ele>
        <time>2022-05-29T11:23:17.781Z</time>
      </trkpt>
      <trkpt lat="42.44043" lon="18.75388">
        <ele>48.443986</ele>
        <time>2022-05-29T11:23:20.770Z</time>
      </trkpt>
      <trkpt lat="42.44034" lon="18.75383">
        <ele>48.11906</ele>
        <time>2022-05-29T11:23:22.755Z</time>
      </trkpt>
      <trkpt lat="42.44024" lon="18.75377">
        <ele>47.783189</ele>
        <time>2022-05-29T11:23:24.739Z</time>
      </trkpt>
      <trkpt lat="42.44015" lon="18.75372">
        <ele>47.460238</ele>
        <time>2022-05-29T11:23:26.745Z</time>
      </trkpt>
      <trkpt lat="42.44006" lon="18.75365">
        <ele>47.117419</ele>
        <time>2022-05-29T11:23:28.764Z</time>
      </trkpt>
      <trkpt lat="42.43997" lon="18.75359">
        <ele>46.7839</ele>
        <time>2022-05-29T11:23:30.886Z</time>
      </trkpt>
      <trkpt lat="42.43987" lon="18.75353">
        <ele>46.434418</ele>
        <time>2022-05-29T11:23:32.734Z</time>
      </trkpt>
      <trkpt lat="42.43976" lon="18.75346">
        <ele>46.056484</ele>
        <time>2022-05-29T11:23:34.764Z</time>
      </trkpt>
      <trkpt lat="42.43966" lon="18.75342">
        <ele>45.697176</ele>
        <time>2022-05-29T11:23:36.780Z</time>
      </trkpt>
      <trkpt lat="42.43953" lon="18.75343">
        <ele>45.288854</ele>
        <time>2022-05-29T11:23:39.767Z</time>
      </trkpt>
      <trkpt lat="42.43943" lon="18.75355">
        <ele>44.847469</ele>
        <time>2022-05-29T11:23:42.751Z</time>
      </trkpt>
      <trkpt lat="42.43936" lon="18.75366">
        <ele>44.530285</ele>
        <time>2022-05-29T11:23:44.747Z</time>
      </trkpt>
      <trkpt lat="42.4393" lon="18.75376">
        <ele>44.201076</ele>
        <time>2022-05-29T11:23:46.748Z</time>
      </trkpt>
      <trkpt lat="42.43923" lon="18.75386">
        <ele>43.890796</ele>
        <time>2022-05-29T11:23:48.770Z</time>
      </trkpt>
      <trkpt lat="42.43914" lon="18.75398">
        <ele>43.485683</ele>
        <time>2022-05-29T11:23:51.731Z</time>
      </trkpt>
      <trkpt lat="42.43907" lon="18.75408">
        <ele>43.347808</ele>
        <time>2022-05-29T11:23:54.762Z</time>
      </trkpt>
      <trkpt lat="42.439" lon="18.75417">
        <ele>43.229739</ele>
        <time>2022-05-29T11:23:57.743Z</time>
      </trkpt>
      <trkpt lat="42.43892" lon="18.75425">
        <ele>43.114108</ele>
        <time>2022-05-29T11:24:00.771Z</time>
      </trkpt>
      <trkpt lat="42.43883" lon="18.75433">
        <ele>42.988409</ele>
        <time>2022-05-29T11:24:03.750Z</time>
      </trkpt>
      <trkpt lat="42.43875" lon="18.75439">
        <ele>42.878734</ele>
        <time>2022-05-29T11:24:05.744Z</time>
      </trkpt>
      <trkpt lat="42.43866" lon="18.75445">
        <ele>42.757969</ele>
        <time>2022-05-29T11:24:07.751Z</time>
      </trkpt>
      <trkpt lat="42.43856" lon="18.7545">
        <ele>42.639254</ele>
        <time>2022-05-29T11:24:09.746Z</time>
      </trkpt>
      <trkpt lat="42.43846" lon="18.75456">
        <ele>42.505649</ele>
        <time>2022-05-29T11:24:11.745Z</time>
      </trkpt>
      <trkpt lat="42.43834" lon="18.75463">
        <ele>42.359976</ele>
        <time>2022-05-29T11:24:13.778Z</time>
      </trkpt>
      <trkpt lat="42.43821" lon="18.75471">
        <ele>42.190193</ele>
        <time>2022-05-29T11:24:15.773Z</time>
      </trkpt>
      <trkpt lat="42.43809" lon="18.75476">
        <ele>42.038607</ele>
        <time>2022-05-29T11:24:17.758Z</time>
      </trkpt>
      <trkpt lat="42.43798" lon="18.75481">
        <ele>41.903379</ele>
        <time>2022-05-29T11:24:19.794Z</time>
      </trkpt>
      <trkpt lat="42.43788" lon="18.75485">
        <ele>41.780886</ele>
        <time>2022-05-29T11:24:21.739Z</time>
      </trkpt>
      <trkpt lat="42.43778" lon="18.7549">
        <ele>41.660957</ele>
        <time>2022-05-29T11:24:23.753Z</time>
      </trkpt>
      <trkpt lat="42.43769" lon="18.75494">
        <ele>41.546149</ele>
        <time>2022-05-29T11:24:25.752Z</time>
      </trkpt>
      <trkpt lat="42.4376" lon="18.755">
        <ele>41.431096</ele>
        <time>2022-05-29T11:24:27.745Z</time>
      </trkpt>
      <trkpt lat="42.43751" lon="18.75506">
        <ele>41.255045</ele>
        <time>2022-05-29T11:24:29.753Z</time>
      </trkpt>
      <trkpt lat="42.43744" lon="18.75514">
        <ele>41.006386</ele>
        <time>2022-05-29T11:24:31.766Z</time>
      </trkpt>
      <trkpt lat="42.43737" lon="18.75523">
        <ele>40.744124</ele>
        <time>2022-05-29T11:24:33.752Z</time>
      </trkpt>
      <trkpt lat="42.4373" lon="18.75538">
        <ele>40.403096</ele>
        <time>2022-05-29T11:24:36.760Z</time>
      </trkpt>
      <trkpt lat="42.43723" lon="18.75547">
        <ele>40.133246</ele>
        <time>2022-05-29T11:24:39.734Z</time>
      </trkpt>
      <trkpt lat="42.43714" lon="18.75558">
        <ele>39.812541</ele>
        <time>2022-05-29T11:24:42.743Z</time>
      </trkpt>
      <trkpt lat="42.43705" lon="18.75566">
        <ele>39.512579</ele>
        <time>2022-05-29T11:24:45.761Z</time>
      </trkpt>
      <trkpt lat="42.43696" lon="18.75575">
        <ele>39.20807</ele>
        <time>2022-05-29T11:24:48.786Z</time>
      </trkpt>
      <trkpt lat="42.43687" lon="18.75584">
        <ele>38.905906</ele>
        <time>2022-05-29T11:24:51.773Z</time>
      </trkpt>
      <trkpt lat="42.43676" lon="18.7559">
        <ele>38.581536</ele>
        <time>2022-05-29T11:24:54.758Z</time>
      </trkpt>
      <trkpt lat="42.43664" lon="18.75596">
        <ele>38.233145</ele>
        <time>2022-05-29T11:24:57.751Z</time>
      </trkpt>
      <trkpt lat="42.43652" lon="18.75603">
        <ele>37.879637</ele>
        <time>2022-05-29T11:25:00.747Z</time>
      </trkpt>
      <trkpt lat="42.43641" lon="18.7561">
        <ele>37.528784</ele>
        <time>2022-05-29T11:25:03.791Z</time>
      </trkpt>
      <trkpt lat="42.43632" lon="18.75615">
        <ele>37.283785</ele>
        <time>2022-05-29T11:25:05.798Z</time>
      </trkpt>
      <trkpt lat="42.43621" lon="18.75621">
        <ele>36.946475</ele>
        <time>2022-05-29T11:25:08.760Z</time>
      </trkpt>
      <trkpt lat="42.4361" lon="18.75626">
        <ele>36.638841</ele>
        <time>2022-05-29T11:25:11.754Z</time>
      </trkpt>
      <trkpt lat="42.43599" lon="18.7563">
        <ele>36.508594</ele>
        <time>2022-05-29T11:25:14.737Z</time>
      </trkpt>
      <trkpt lat="42.43587" lon="18.75636">
        <ele>36.669003</ele>
        <time>2022-05-29T11:25:17.749Z</time>
      </trkpt>
      <trkpt lat="42.43578" lon="18.7564">
        <ele>36.78781</ele>
        <time>2022-05-29T11:25:19.814Z</time>
      </trkpt>
      <trkpt lat="42.43569" lon="18.75646">
        <ele>36.924244</ele>
        <time>2022-05-29T11:25:21.743Z</time>
      </trkpt>
      <trkpt lat="42.43559" lon="18.75652">
        <ele>37.058771</ele>
        <time>2022-05-29T11:25:23.764Z</time>
      </trkpt>
      <trkpt lat="42.4355" lon="18.75658">
        <ele>37.186738</ele>
        <time>2022-05-29T11:25:25.744Z</time>
      </trkpt>
      <trkpt lat="42.43542" lon="18.75665">
        <ele>37.308774</ele>
        <time>2022-05-29T11:25:27.772Z</time>
      </trkpt>
      <trkpt lat="42.4353" lon="18.75672">
        <ele>37.475455</ele>
        <time>2022-05-29T11:25:30.759Z</time>
      </trkpt>
      <trkpt lat="42.43517" lon="18.75676">
        <ele>37.638521</ele>
        <time>2022-05-29T11:25:33.755Z</time>
      </trkpt>
      <trkpt lat="42.43505" lon="18.75679">
        <ele>37.795123</ele>
        <time>2022-05-29T11:25:36.730Z</time>
      </trkpt>
      <trkpt lat="42.43493" lon="18.75682">
        <ele>37.951139</ele>
        <time>2022-05-29T11:25:39.763Z</time>
      </trkpt>
      <trkpt lat="42.43482" lon="18.75681">
        <ele>38.092802</ele>
        <time>2022-05-29T11:25:42.742Z</time>
      </trkpt>
      <trkpt lat="42.4347" lon="18.75686">
        <ele>38.25094</ele>
        <time>2022-05-29T11:25:45.746Z</time>
      </trkpt>
      <trkpt lat="42.43462" lon="18.75691">
        <ele>38.373027</ele>
        <time>2022-05-29T11:25:47.759Z</time>
      </trkpt>
      <trkpt lat="42.43452" lon="18.75698">
        <ele>38.503832</ele>
        <time>2022-05-29T11:25:49.762Z</time>
      </trkpt>
      <trkpt lat="42.43443" lon="18.75705">
        <ele>38.638632</ele>
        <time>2022-05-29T11:25:51.734Z</time>
      </trkpt>
      <trkpt lat="42.43433" lon="18.75716">
        <ele>38.908882</ele>
        <time>2022-05-29T11:25:54.754Z</time>
      </trkpt>
      <trkpt lat="42.43426" lon="18.75725">
        <ele>39.313918</ele>
        <time>2022-05-29T11:25:57.761Z</time>
      </trkpt>
      <trkpt lat="42.43418" lon="18.75735">
        <ele>39.718286</ele>
        <time>2022-05-29T11:26:00.750Z</time>
      </trkpt>
      <trkpt lat="42.43411" lon="18.75744">
        <ele>40.102308</ele>
        <time>2022-05-29T11:26:03.760Z</time>
      </trkpt>
      <trkpt lat="42.43403" lon="18.75754">
        <ele>40.495178</ele>
        <time>2022-05-29T11:26:06.764Z</time>
      </trkpt>
      <trkpt lat="42.43395" lon="18.75763">
        <ele>40.925769</ele>
        <time>2022-05-29T11:26:09.745Z</time>
      </trkpt>
      <trkpt lat="42.43384" lon="18.75772">
        <ele>41.399083</ele>
        <time>2022-05-29T11:26:12.750Z</time>
      </trkpt>
      <trkpt lat="42.43375" lon="18.7578">
        <ele>41.831046</ele>
        <time>2022-05-29T11:26:15.752Z</time>
      </trkpt>
      <trkpt lat="42.43364" lon="18.75785">
        <ele>42.259154</ele>
        <time>2022-05-29T11:26:18.778Z</time>
      </trkpt>
      <trkpt lat="42.43353" lon="18.75789">
        <ele>42.697576</ele>
        <time>2022-05-29T11:26:21.731Z</time>
      </trkpt>
      <trkpt lat="42.43343" lon="18.75791">
        <ele>43.109465</ele>
        <time>2022-05-29T11:26:24.753Z</time>
      </trkpt>
      <trkpt lat="42.43332" lon="18.75789">
        <ele>43.517208</ele>
        <time>2022-05-29T11:26:27.744Z</time>
      </trkpt>
      <trkpt lat="42.43321" lon="18.75786">
        <ele>43.95377</ele>
        <time>2022-05-29T11:26:30.791Z</time>
      </trkpt>
      <trkpt lat="42.4331" lon="18.75782">
        <ele>44.394659</ele>
        <time>2022-05-29T11:26:33.739Z</time>
      </trkpt>
      <trkpt lat="42.433" lon="18.75776">
        <ele>44.838304</ele>
        <time>2022-05-29T11:26:36.745Z</time>
      </trkpt>
      <trkpt lat="42.43288" lon="18.75771">
        <ele>45.299324</ele>
        <time>2022-05-29T11:26:39.737Z</time>
      </trkpt>
      <trkpt lat="42.43278" lon="18.75768">
        <ele>45.689814</ele>
        <time>2022-05-29T11:26:42.737Z</time>
      </trkpt>
      <trkpt lat="42.43267" lon="18.75765">
        <ele>45.677653</ele>
        <time>2022-05-29T11:26:45.732Z</time>
      </trkpt>
      <trkpt lat="42.43257" lon="18.75764">
        <ele>45.66617</ele>
        <time>2022-05-29T11:26:48.736Z</time>
      </trkpt>
      <trkpt lat="42.43245" lon="18.75765">
        <ele>45.653177</ele>
        <time>2022-05-29T11:26:51.774Z</time>
      </trkpt>
      <trkpt lat="42.43234" lon="18.75768">
        <ele>45.640419</ele>
        <time>2022-05-29T11:26:54.746Z</time>
      </trkpt>
      <trkpt lat="42.43224" lon="18.75773">
        <ele>45.629046</ele>
        <time>2022-05-29T11:26:57.742Z</time>
      </trkpt>
      <trkpt lat="42.43214" lon="18.7578">
        <ele>45.616834</ele>
        <time>2022-05-29T11:27:00.730Z</time>
      </trkpt>
      <trkpt lat="42.43204" lon="18.75785">
        <ele>45.604812</ele>
        <time>2022-05-29T11:27:03.745Z</time>
      </trkpt>
      <trkpt lat="42.43192" lon="18.7579">
        <ele>45.590969</ele>
        <time>2022-05-29T11:27:06.735Z</time>
      </trkpt>
      <trkpt lat="42.43181" lon="18.7579">
        <ele>45.578635</ele>
        <time>2022-05-29T11:27:09.741Z</time>
      </trkpt>
      <trkpt lat="42.43169" lon="18.75791">
        <ele>45.5652</ele>
        <time>2022-05-29T11:27:12.743Z</time>
      </trkpt>
      <trkpt lat="42.43157" lon="18.75792">
        <ele>45.552052</ele>
        <time>2022-05-29T11:27:15.738Z</time>
      </trkpt>
      <trkpt lat="42.43146" lon="18.75793">
        <ele>45.539169</ele>
        <time>2022-05-29T11:27:18.732Z</time>
      </trkpt>
      <trkpt lat="42.43134" lon="18.75794">
        <ele>45.526383</ele>
        <time>2022-05-29T11:27:21.746Z</time>
      </trkpt>
      <trkpt lat="42.43121" lon="18.75795">
        <ele>45.511819</ele>
        <time>2022-05-29T11:27:24.740Z</time>
      </trkpt>
      <trkpt lat="42.43112" lon="18.75797">
        <ele>45.501529</ele>
        <time>2022-05-29T11:27:26.736Z</time>
      </trkpt>
      <trkpt lat="42.431" lon="18.75802">
        <ele>45.50384</ele>
        <time>2022-05-29T11:27:29.772Z</time>
      </trkpt>
      <trkpt lat="42.43089" lon="18.75807">
        <ele>45.555102</ele>
        <time>2022-05-29T11:27:32.755Z</time>
      </trkpt>
      <trkpt lat="42.4308" lon="18.75812">
        <ele>45.597257</ele>
        <time>2022-05-29T11:27:35.735Z</time>
      </trkpt>
      <trkpt lat="42.4307" lon="18.75818">
        <ele>45.643813</ele>
        <time>2022-05-29T11:27:38.737Z</time>
      </trkpt>
      <trkpt lat="42.4306" lon="18.75824">
        <ele>45.693727</ele>
        <time>2022-05-29T11:27:41.733Z</time>
      </trkpt>
      <trkpt lat="42.43048" lon="18.75828">
        <ele>45.749162</ele>
        <time>2022-05-29T11:27:44.755Z</time>
      </trkpt>
      <trkpt lat="42.43036" lon="18.7583">
        <ele>45.800594</ele>
        <time>2022-05-29T11:27:47.751Z</time>
      </trkpt>
      <trkpt lat="42.43025" lon="18.75829">
        <ele>45.847632</ele>
        <time>2022-05-29T11:27:50.747Z</time>
      </trkpt>
      <trkpt lat="42.43013" lon="18.75829">
        <ele>45.901704</ele>
        <time>2022-05-29T11:27:53.738Z</time>
      </trkpt>
      <trkpt lat="42.43" lon="18.75828">
        <ele>45.960118</ele>
        <time>2022-05-29T11:27:56.734Z</time>
      </trkpt>
      <trkpt lat="42.42988" lon="18.75829">
        <ele>46.012396</ele>
        <time>2022-05-29T11:27:59.757Z</time>
      </trkpt>
      <trkpt lat="42.42977" lon="18.75829">
        <ele>46.058945</ele>
        <time>2022-05-29T11:28:02.754Z</time>
      </trkpt>
      <trkpt lat="42.42968" lon="18.75828">
        <ele>46.100739</ele>
        <time>2022-05-29T11:28:05.750Z</time>
      </trkpt>
      <trkpt lat="42.42958" lon="18.75828">
        <ele>46.145968</ele>
        <time>2022-05-29T11:28:08.743Z</time>
      </trkpt>
      <trkpt lat="42.42947" lon="18.75826">
        <ele>46.191657</ele>
        <time>2022-05-29T11:28:11.723Z</time>
      </trkpt>
      <trkpt lat="42.42935" lon="18.75825">
        <ele>46.243918</ele>
        <time>2022-05-29T11:28:14.734Z</time>
      </trkpt>
      <trkpt lat="42.42925" lon="18.75825">
        <ele>46.278656</ele>
        <time>2022-05-29T11:28:17.745Z</time>
      </trkpt>
      <trkpt lat="42.42914" lon="18.75824">
        <ele>46.266025</ele>
        <time>2022-05-29T11:28:20.744Z</time>
      </trkpt>
      <trkpt lat="42.42902" lon="18.75825">
        <ele>46.253407</ele>
        <time>2022-05-29T11:28:23.740Z</time>
      </trkpt>
      <trkpt lat="42.42889" lon="18.75826">
        <ele>46.239294</ele>
        <time>2022-05-29T11:28:26.740Z</time>
      </trkpt>
      <trkpt lat="42.42877" lon="18.75829">
        <ele>46.224852</ele>
        <time>2022-05-29T11:28:29.737Z</time>
      </trkpt>
      <trkpt lat="42.42865" lon="18.75831">
        <ele>46.212132</ele>
        <time>2022-05-29T11:28:32.742Z</time>
      </trkpt>
      <trkpt lat="42.42856" lon="18.75835">
        <ele>46.201231</ele>
        <time>2022-05-29T11:28:35.734Z</time>
      </trkpt>
      <trkpt lat="42.42846" lon="18.75839">
        <ele>46.189564</ele>
        <time>2022-05-29T11:28:38.772Z</time>
      </trkpt>
      <trkpt lat="42.42834" lon="18.75843">
        <ele>46.176044</ele>
        <time>2022-05-29T11:28:41.748Z</time>
      </trkpt>
      <trkpt lat="42.42822" lon="18.75848">
        <ele>46.162735</ele>
        <time>2022-05-29T11:28:44.738Z</time>
      </trkpt>
      <trkpt lat="42.4281" lon="18.75852">
        <ele>46.14856</ele>
        <time>2022-05-29T11:28:47.751Z</time>
      </trkpt>
      <trkpt lat="42.42798" lon="18.75857">
        <ele>46.134692</ele>
        <time>2022-05-29T11:28:50.742Z</time>
      </trkpt>
      <trkpt lat="42.42787" lon="18.75862">
        <ele>46.121514</ele>
        <time>2022-05-29T11:28:53.736Z</time>
      </trkpt>
      <trkpt lat="42.42777" lon="18.75866">
        <ele>46.110271</ele>
        <time>2022-05-29T11:28:56.752Z</time>
      </trkpt>
      <trkpt lat="42.42766" lon="18.75869">
        <ele>46.09782</ele>
        <time>2022-05-29T11:28:59.742Z</time>
      </trkpt>
      <trkpt lat="42.42754" lon="18.75871">
        <ele>46.084191</ele>
        <time>2022-05-29T11:29:02.735Z</time>
      </trkpt>
      <trkpt lat="42.42741" lon="18.75873">
        <ele>45.974001</ele>
        <time>2022-05-29T11:29:05.748Z</time>
      </trkpt>
      <trkpt lat="42.42728" lon="18.75876">
        <ele>45.844904</ele>
        <time>2022-05-29T11:29:08.720Z</time>
      </trkpt>
      <trkpt lat="42.42716" lon="18.75878">
        <ele>45.720251</ele>
        <time>2022-05-29T11:29:11.735Z</time>
      </trkpt>
      <trkpt lat="42.42704" lon="18.7588">
        <ele>45.599809</ele>
        <time>2022-05-29T11:29:14.743Z</time>
      </trkpt>
      <trkpt lat="42.42693" lon="18.75882">
        <ele>45.481374</ele>
        <time>2022-05-29T11:29:17.740Z</time>
      </trkpt>
      <trkpt lat="42.42682" lon="18.75883">
        <ele>45.371823</ele>
        <time>2022-05-29T11:29:20.751Z</time>
      </trkpt>
      <trkpt lat="42.42671" lon="18.75885">
        <ele>45.256293</ele>
        <time>2022-05-29T11:29:23.770Z</time>
      </trkpt>
      <trkpt lat="42.4266" lon="18.75888">
        <ele>45.142871</ele>
        <time>2022-05-29T11:29:26.743Z</time>
      </trkpt>
      <trkpt lat="42.42649" lon="18.7589">
        <ele>45.031556</ele>
        <time>2022-05-29T11:29:29.763Z</time>
      </trkpt>
      <trkpt lat="42.42639" lon="18.75891">
        <ele>44.937688</ele>
        <time>2022-05-29T11:29:32.748Z</time>
      </trkpt>
      <trkpt lat="42.4263" lon="18.75892">
        <ele>44.840124</ele>
        <time>2022-05-29T11:29:35.760Z</time>
      </trkpt>
      <trkpt lat="42.4262" lon="18.75894">
        <ele>44.740231</ele>
        <time>2022-05-29T11:29:38.743Z</time>
      </trkpt>
      <trkpt lat="42.4261" lon="18.75898">
        <ele>44.637835</ele>
        <time>2022-05-29T11:29:41.727Z</time>
      </trkpt>
      <trkpt lat="42.426" lon="18.75903">
        <ele>44.529963</ele>
        <time>2022-05-29T11:29:44.738Z</time>
      </trkpt>
      <trkpt lat="42.42589" lon="18.75907">
        <ele>44.41568</ele>
        <time>2022-05-29T11:29:47.862Z</time>
      </trkpt>
      <trkpt lat="42.4258" lon="18.75912">
        <ele>44.308043</ele>
        <time>2022-05-29T11:29:50.729Z</time>
      </trkpt>
      <trkpt lat="42.42569" lon="18.75919">
        <ele>43.911544</ele>
        <time>2022-05-29T11:29:53.745Z</time>
      </trkpt>
      <trkpt lat="42.4256" lon="18.75927">
        <ele>43.373574</ele>
        <time>2022-05-29T11:29:56.738Z</time>
      </trkpt>
      <trkpt lat="42.42551" lon="18.75936">
        <ele>42.847593</ele>
        <time>2022-05-29T11:29:59.742Z</time>
      </trkpt>
      <trkpt lat="42.42543" lon="18.75945">
        <ele>42.350184</ele>
        <time>2022-05-29T11:30:02.721Z</time>
      </trkpt>
      <trkpt lat="42.42537" lon="18.75954">
        <ele>41.906772</ele>
        <time>2022-05-29T11:30:05.739Z</time>
      </trkpt>
      <trkpt lat="42.4253" lon="18.75965">
        <ele>41.378993</ele>
        <time>2022-05-29T11:30:09.736Z</time>
      </trkpt>
      <trkpt lat="42.42523" lon="18.75978">
        <ele>40.813762</ele>
        <time>2022-05-29T11:30:13.750Z</time>
      </trkpt>
      <trkpt lat="42.42516" lon="18.75987">
        <ele>40.348795</ele>
        <time>2022-05-29T11:30:16.734Z</time>
      </trkpt>
      <trkpt lat="42.42509" lon="18.75995">
        <ele>39.876661</ele>
        <time>2022-05-29T11:30:19.722Z</time>
      </trkpt>
      <trkpt lat="42.42501" lon="18.76004">
        <ele>39.365301</ele>
        <time>2022-05-29T11:30:22.749Z</time>
      </trkpt>
      <trkpt lat="42.4249" lon="18.76012">
        <ele>38.773121</ele>
        <time>2022-05-29T11:30:25.732Z</time>
      </trkpt>
      <trkpt lat="42.42479" lon="18.76017">
        <ele>38.2152</ele>
        <time>2022-05-29T11:30:28.727Z</time>
      </trkpt>
      <trkpt lat="42.42466" lon="18.76022">
        <ele>37.533114</ele>
        <time>2022-05-29T11:30:31.749Z</time>
      </trkpt>
      <trkpt lat="42.42456" lon="18.76024">
        <ele>37.029602</ele>
        <time>2022-05-29T11:30:33.741Z</time>
      </trkpt>
      <trkpt lat="42.42446" lon="18.76025">
        <ele>36.53996</ele>
        <time>2022-05-29T11:30:35.743Z</time>
      </trkpt>
      <trkpt lat="42.42436" lon="18.76027">
        <ele>36.06262</ele>
        <time>2022-05-29T11:30:37.731Z</time>
      </trkpt>
      <trkpt lat="42.42422" lon="18.7603">
        <ele>35.499079</ele>
        <time>2022-05-29T11:30:40.748Z</time>
      </trkpt>
      <trkpt lat="42.42411" lon="18.76037">
        <ele>35.600562</ele>
        <time>2022-05-29T11:30:43.755Z</time>
      </trkpt>
      <trkpt lat="42.424" lon="18.76047">
        <ele>35.704359</ele>
        <time>2022-05-29T11:30:46.745Z</time>
      </trkpt>
      <trkpt lat="42.42394" lon="18.76055">
        <ele>35.776778</ele>
        <time>2022-05-29T11:30:48.781Z</time>
      </trkpt>
      <trkpt lat="42.42388" lon="18.76064">
        <ele>35.850486</ele>
        <time>2022-05-29T11:30:50.756Z</time>
      </trkpt>
      <trkpt lat="42.42381" lon="18.76074">
        <ele>35.929017</ele>
        <time>2022-05-29T11:30:52.735Z</time>
      </trkpt>
      <trkpt lat="42.42374" lon="18.76085">
        <ele>36.016532</ele>
        <time>2022-05-29T11:30:54.739Z</time>
      </trkpt>
      <trkpt lat="42.42367" lon="18.76095">
        <ele>36.09878</ele>
        <time>2022-05-29T11:30:56.745Z</time>
      </trkpt>
      <trkpt lat="42.42358" lon="18.76105">
        <ele>36.194412</ele>
        <time>2022-05-29T11:30:59.741Z</time>
      </trkpt>
      <trkpt lat="42.4235" lon="18.76115">
        <ele>36.279207</ele>
        <time>2022-05-29T11:31:02.743Z</time>
      </trkpt>
      <trkpt lat="42.42342" lon="18.76124">
        <ele>36.366697</ele>
        <time>2022-05-29T11:31:05.741Z</time>
      </trkpt>
      <trkpt lat="42.42334" lon="18.76133">
        <ele>36.450764</ele>
        <time>2022-05-29T11:31:08.744Z</time>
      </trkpt>
      <trkpt lat="42.42325" lon="18.76143">
        <ele>36.545783</ele>
        <time>2022-05-29T11:31:11.752Z</time>
      </trkpt>
      <trkpt lat="42.42316" lon="18.76154">
        <ele>36.642179</ele>
        <time>2022-05-29T11:31:14.733Z</time>
      </trkpt>
      <trkpt lat="42.42306" lon="18.76162">
        <ele>36.736252</ele>
        <time>2022-05-29T11:31:17.764Z</time>
      </trkpt>
      <trkpt lat="42.42296" lon="18.76166">
        <ele>36.822469</ele>
        <time>2022-05-29T11:31:20.754Z</time>
      </trkpt>
      <trkpt lat="42.42284" lon="18.76167">
        <ele>36.917663</ele>
        <time>2022-05-29T11:31:23.739Z</time>
      </trkpt>
      <trkpt lat="42.42272" lon="18.76171">
        <ele>36.873619</ele>
        <time>2022-05-29T11:31:26.734Z</time>
      </trkpt>
      <trkpt lat="42.4226" lon="18.76173">
        <ele>36.790325</ele>
        <time>2022-05-29T11:31:29.721Z</time>
      </trkpt>
      <trkpt lat="42.42248" lon="18.76177">
        <ele>36.707093</ele>
        <time>2022-05-29T11:31:32.738Z</time>
      </trkpt>
      <trkpt lat="42.42239" lon="18.7618">
        <ele>36.642741</ele>
        <time>2022-05-29T11:31:34.730Z</time>
      </trkpt>
      <trkpt lat="42.4223" lon="18.76186">
        <ele>36.575844</ele>
        <time>2022-05-29T11:31:36.728Z</time>
      </trkpt>
      <trkpt lat="42.42222" lon="18.76194">
        <ele>36.505009</ele>
        <time>2022-05-29T11:31:38.742Z</time>
      </trkpt>
      <trkpt lat="42.42214" lon="18.76203">
        <ele>36.434171</ele>
        <time>2022-05-29T11:31:40.744Z</time>
      </trkpt>
      <trkpt lat="42.42207" lon="18.76218">
        <ele>36.347824</ele>
        <time>2022-05-29T11:31:43.718Z</time>
      </trkpt>
      <trkpt lat="42.42201" lon="18.76232">
        <ele>36.264612</ele>
        <time>2022-05-29T11:31:46.746Z</time>
      </trkpt>
      <trkpt lat="42.42195" lon="18.76247">
        <ele>36.179163</ele>
        <time>2022-05-29T11:31:49.731Z</time>
      </trkpt>
      <trkpt lat="42.42188" lon="18.7626">
        <ele>36.097149</ele>
        <time>2022-05-29T11:31:52.712Z</time>
      </trkpt>
      <trkpt lat="42.42182" lon="18.76274">
        <ele>36.01847</ele>
        <time>2022-05-29T11:31:55.736Z</time>
      </trkpt>
      <trkpt lat="42.42177" lon="18.76285">
        <ele>35.952085</ele>
        <time>2022-05-29T11:31:58.738Z</time>
      </trkpt>
      <trkpt lat="42.42172" lon="18.76298">
        <ele>35.879106</ele>
        <time>2022-05-29T11:32:01.730Z</time>
      </trkpt>
      <trkpt lat="42.42167" lon="18.76309">
        <ele>35.815146</ele>
        <time>2022-05-29T11:32:03.747Z</time>
      </trkpt>
      <trkpt lat="42.42161" lon="18.76324">
        <ele>35.728592</ele>
        <time>2022-05-29T11:32:06.739Z</time>
      </trkpt>
      <trkpt lat="42.42159" lon="18.76336">
        <ele>35.831301</ele>
        <time>2022-05-29T11:32:08.775Z</time>
      </trkpt>
      <trkpt lat="42.42156" lon="18.76347">
        <ele>35.999841</ele>
        <time>2022-05-29T11:32:10.744Z</time>
      </trkpt>
      <trkpt lat="42.42153" lon="18.76363">
        <ele>36.214763</ele>
        <time>2022-05-29T11:32:13.717Z</time>
      </trkpt>
      <trkpt lat="42.42151" lon="18.7638">
        <ele>36.442599</ele>
        <time>2022-05-29T11:32:16.747Z</time>
      </trkpt>
      <trkpt lat="42.4215" lon="18.76392">
        <ele>36.61222</ele>
        <time>2022-05-29T11:32:18.747Z</time>
      </trkpt>
      <trkpt lat="42.42148" lon="18.76405">
        <ele>36.788146</ele>
        <time>2022-05-29T11:32:20.735Z</time>
      </trkpt>
      <trkpt lat="42.42146" lon="18.76422">
        <ele>37.021594</ele>
        <time>2022-05-29T11:32:23.745Z</time>
      </trkpt>
      <trkpt lat="42.42145" lon="18.76439">
        <ele>37.248427</ele>
        <time>2022-05-29T11:32:26.740Z</time>
      </trkpt>
      <trkpt lat="42.42142" lon="18.76455">
        <ele>37.462203</ele>
        <time>2022-05-29T11:32:29.749Z</time>
      </trkpt>
      <trkpt lat="42.4214" lon="18.76472">
        <ele>37.697998</ele>
        <time>2022-05-29T11:32:32.725Z</time>
      </trkpt>
      <trkpt lat="42.42138" lon="18.76488">
        <ele>37.920729</ele>
        <time>2022-05-29T11:32:35.731Z</time>
      </trkpt>
      <trkpt lat="42.42138" lon="18.76505">
        <ele>38.148377</ele>
        <time>2022-05-29T11:32:38.761Z</time>
      </trkpt>
      <trkpt lat="42.42137" lon="18.76522">
        <ele>38.373008</ele>
        <time>2022-05-29T11:32:41.765Z</time>
      </trkpt>
      <trkpt lat="42.42137" lon="18.76536">
        <ele>38.558688</ele>
        <time>2022-05-29T11:32:44.745Z</time>
      </trkpt>
      <trkpt lat="42.42138" lon="18.7655">
        <ele>38.753837</ele>
        <time>2022-05-29T11:32:47.741Z</time>
      </trkpt>
      <trkpt lat="42.42138" lon="18.76566">
        <ele>38.96771</ele>
        <time>2022-05-29T11:32:50.734Z</time>
      </trkpt>
      <trkpt lat="42.42138" lon="18.76581">
        <ele>39.195478</ele>
        <time>2022-05-29T11:32:53.734Z</time>
      </trkpt>
      <trkpt lat="42.42139" lon="18.76598">
        <ele>39.450396</ele>
        <time>2022-05-29T11:32:56.745Z</time>
      </trkpt>
      <trkpt lat="42.4214" lon="18.76616">
        <ele>39.716378</ele>
        <time>2022-05-29T11:32:59.726Z</time>
      </trkpt>
      <trkpt lat="42.42141" lon="18.76628">
        <ele>39.905155</ele>
        <time>2022-05-29T11:33:01.727Z</time>
      </trkpt>
      <trkpt lat="42.42143" lon="18.76646">
        <ele>40.17548</ele>
        <time>2022-05-29T11:33:04.755Z</time>
      </trkpt>
      <trkpt lat="42.42144" lon="18.76662">
        <ele>40.430335</ele>
        <time>2022-05-29T11:33:07.739Z</time>
      </trkpt>
      <trkpt lat="42.42145" lon="18.7668">
        <ele>40.689416</ele>
        <time>2022-05-29T11:33:10.818Z</time>
      </trkpt>
      <trkpt lat="42.42145" lon="18.76696">
        <ele>40.94558</ele>
        <time>2022-05-29T11:33:13.748Z</time>
      </trkpt>
      <trkpt lat="42.42146" lon="18.76713">
        <ele>41.197103</ele>
        <time>2022-05-29T11:33:16.741Z</time>
      </trkpt>
      <trkpt lat="42.42147" lon="18.76728">
        <ele>41.425955</ele>
        <time>2022-05-29T11:33:19.737Z</time>
      </trkpt>
      <trkpt lat="42.42148" lon="18.76746">
        <ele>41.703821</ele>
        <time>2022-05-29T11:33:22.727Z</time>
      </trkpt>
      <trkpt lat="42.42149" lon="18.76763">
        <ele>41.949161</ele>
        <time>2022-05-29T11:33:25.741Z</time>
      </trkpt>
      <trkpt lat="42.4215" lon="18.7678">
        <ele>42.210824</ele>
        <time>2022-05-29T11:33:28.732Z</time>
      </trkpt>
      <trkpt lat="42.42151" lon="18.76797">
        <ele>42.47344</ele>
        <time>2022-05-29T11:33:31.741Z</time>
      </trkpt>
      <trkpt lat="42.42152" lon="18.76813">
        <ele>42.708556</ele>
        <time>2022-05-29T11:33:34.782Z</time>
      </trkpt>
      <trkpt lat="42.42153" lon="18.76827">
        <ele>42.879886</ele>
        <time>2022-05-29T11:33:37.754Z</time>
      </trkpt>
      <trkpt lat="42.42154" lon="18.76841">
        <ele>43.048766</ele>
        <time>2022-05-29T11:33:40.750Z</time>
      </trkpt>
      <trkpt lat="42.42155" lon="18.76858">
        <ele>43.259698</ele>
        <time>2022-05-29T11:33:43.859Z</time>
      </trkpt>
      <trkpt lat="42.42156" lon="18.76875">
        <ele>43.470629</ele>
        <time>2022-05-29T11:33:46.733Z</time>
      </trkpt>
      <trkpt lat="42.42156" lon="18.76892">
        <ele>43.685705</ele>
        <time>2022-05-29T11:33:49.743Z</time>
      </trkpt>
      <trkpt lat="42.42157" lon="18.7691">
        <ele>43.903621</ele>
        <time>2022-05-29T11:33:52.716Z</time>
      </trkpt>
      <trkpt lat="42.42158" lon="18.76923">
        <ele>44.068826</ele>
        <time>2022-05-29T11:33:54.756Z</time>
      </trkpt>
      <trkpt lat="42.42158" lon="18.76937">
        <ele>44.237311</ele>
        <time>2022-05-29T11:33:56.819Z</time>
      </trkpt>
      <trkpt lat="42.4216" lon="18.7695">
        <ele>44.395107</ele>
        <time>2022-05-29T11:33:58.750Z</time>
      </trkpt>
      <trkpt lat="42.4216" lon="18.76965">
        <ele>44.579804</ele>
        <time>2022-05-29T11:34:01.761Z</time>
      </trkpt>
      <trkpt lat="42.42159" lon="18.76979">
        <ele>44.752816</ele>
        <time>2022-05-29T11:34:04.734Z</time>
      </trkpt>
      <trkpt lat="42.42156" lon="18.76991">
        <ele>44.910836</ele>
        <time>2022-05-29T11:34:07.751Z</time>
      </trkpt>
      <trkpt lat="42.4216" lon="18.77005">
        <ele>45.091855</ele>
        <time>2022-05-29T11:34:12.736Z</time>
      </trkpt>
      <trkpt lat="42.42168" lon="18.77014">
        <ele>45.26005</ele>
        <time>2022-05-29T11:34:14.737Z</time>
      </trkpt>
      <trkpt lat="42.42176" lon="18.77029">
        <ele>45.493401</ele>
        <time>2022-05-29T11:34:17.735Z</time>
      </trkpt>
      <trkpt lat="42.4218" lon="18.7704">
        <ele>45.646294</ele>
        <time>2022-05-29T11:34:19.739Z</time>
      </trkpt>
      <trkpt lat="42.42186" lon="18.77055">
        <ele>45.224549</ele>
        <time>2022-05-29T11:34:22.737Z</time>
      </trkpt>
      <trkpt lat="42.42192" lon="18.77071">
        <ele>44.717699</ele>
        <time>2022-05-29T11:34:25.756Z</time>
      </trkpt>
      <trkpt lat="42.42196" lon="18.77082">
        <ele>44.359555</ele>
        <time>2022-05-29T11:34:27.748Z</time>
      </trkpt>
      <trkpt lat="42.422" lon="18.77094">
        <ele>43.998878</ele>
        <time>2022-05-29T11:34:29.741Z</time>
      </trkpt>
      <trkpt lat="42.42205" lon="18.77104">
        <ele>43.644941</ele>
        <time>2022-05-29T11:34:31.729Z</time>
      </trkpt>
      <trkpt lat="42.42215" lon="18.77115">
        <ele>43.157756</ele>
        <time>2022-05-29T11:34:34.716Z</time>
      </trkpt>
      <trkpt lat="42.42226" lon="18.77123">
        <ele>42.643443</ele>
        <time>2022-05-29T11:34:37.744Z</time>
      </trkpt>
      <trkpt lat="42.42235" lon="18.77127">
        <ele>42.292515</ele>
        <time>2022-05-29T11:34:39.745Z</time>
      </trkpt>
      <trkpt lat="42.42248" lon="18.7713">
        <ele>41.780088</ele>
        <time>2022-05-29T11:34:42.731Z</time>
      </trkpt>
      <trkpt lat="42.4226" lon="18.7713">
        <ele>41.328776</ele>
        <time>2022-05-29T11:34:45.732Z</time>
      </trkpt>
      <trkpt lat="42.42269" lon="18.77129">
        <ele>40.958741</ele>
        <time>2022-05-29T11:34:47.810Z</time>
      </trkpt>
      <trkpt lat="42.42279" lon="18.77128">
        <ele>40.58426</ele>
        <time>2022-05-29T11:34:49.753Z</time>
      </trkpt>
      <trkpt lat="42.42289" lon="18.77127">
        <ele>40.198529</ele>
        <time>2022-05-29T11:34:51.745Z</time>
      </trkpt>
      <trkpt lat="42.42298" lon="18.77126">
        <ele>39.835442</ele>
        <time>2022-05-29T11:34:53.728Z</time>
      </trkpt>
      <trkpt lat="42.42307" lon="18.77125">
        <ele>39.477757</ele>
        <time>2022-05-29T11:34:55.740Z</time>
      </trkpt>
      <trkpt lat="42.4232" lon="18.7712">
        <ele>38.966191</ele>
        <time>2022-05-29T11:34:58.731Z</time>
      </trkpt>
      <trkpt lat="42.4233" lon="18.77112">
        <ele>38.645034</ele>
        <time>2022-05-29T11:35:01.733Z</time>
      </trkpt>
      <trkpt lat="42.42339" lon="18.771">
        <ele>38.557161</ele>
        <time>2022-05-29T11:35:04.748Z</time>
      </trkpt>
      <trkpt lat="42.42346" lon="18.77091">
        <ele>38.490715</ele>
        <time>2022-05-29T11:35:06.799Z</time>
      </trkpt>
      <trkpt lat="42.42352" lon="18.77082">
        <ele>38.426093</ele>
        <time>2022-05-29T11:35:08.732Z</time>
      </trkpt>
      <trkpt lat="42.42358" lon="18.77073">
        <ele>38.36195</ele>
        <time>2022-05-29T11:35:10.732Z</time>
      </trkpt>
      <trkpt lat="42.42367" lon="18.7706">
        <ele>38.269738</ele>
        <time>2022-05-29T11:35:13.740Z</time>
      </trkpt>
      <trkpt lat="42.42374" lon="18.7705">
        <ele>38.199255</ele>
        <time>2022-05-29T11:35:15.725Z</time>
      </trkpt>
      <trkpt lat="42.42381" lon="18.7704">
        <ele>38.133129</ele>
        <time>2022-05-29T11:35:17.738Z</time>
      </trkpt>
      <trkpt lat="42.4239" lon="18.77029">
        <ele>38.045222</ele>
        <time>2022-05-29T11:35:20.737Z</time>
      </trkpt>
      <trkpt lat="42.42398" lon="18.77019">
        <ele>37.971988</ele>
        <time>2022-05-29T11:35:23.743Z</time>
      </trkpt>
      <trkpt lat="42.42404" lon="18.7701">
        <ele>37.906993</ele>
        <time>2022-05-29T11:35:26.735Z</time>
      </trkpt>
      <trkpt lat="42.42412" lon="18.77001">
        <ele>37.835661</ele>
        <time>2022-05-29T11:35:30.753Z</time>
      </trkpt>
      <trkpt lat="42.4242" lon="18.76991">
        <ele>37.756912</ele>
        <time>2022-05-29T11:35:34.734Z</time>
      </trkpt>
      <trkpt lat="42.42427" lon="18.76983">
        <ele>37.693321</ele>
        <time>2022-05-29T11:35:37.733Z</time>
      </trkpt>
      <trkpt lat="42.42434" lon="18.76974">
        <ele>37.627847</ele>
        <time>2022-05-29T11:35:40.740Z</time>
      </trkpt>
      <trkpt lat="42.42441" lon="18.76965">
        <ele>37.561683</ele>
        <time>2022-05-29T11:35:43.745Z</time>
      </trkpt>
      <trkpt lat="42.42451" lon="18.76954">
        <ele>37.475014</ele>
        <time>2022-05-29T11:35:46.750Z</time>
      </trkpt>
      <trkpt lat="42.42457" lon="18.76946">
        <ele>37.440294</ele>
        <time>2022-05-29T11:35:48.732Z</time>
      </trkpt>
      <trkpt lat="42.42467" lon="18.76933">
        <ele>37.623357</ele>
        <time>2022-05-29T11:35:51.736Z</time>
      </trkpt>
      <trkpt lat="42.42475" lon="18.7692">
        <ele>37.797558</ele>
        <time>2022-05-29T11:35:54.739Z</time>
      </trkpt>
      <trkpt lat="42.42482" lon="18.76908">
        <ele>37.947404</ele>
        <time>2022-05-29T11:35:57.752Z</time>
      </trkpt>
      <trkpt lat="42.42489" lon="18.76897">
        <ele>38.093093</ele>
        <time>2022-05-29T11:36:01.732Z</time>
      </trkpt>
      <trkpt lat="42.42495" lon="18.76888">
        <ele>38.21843</ele>
        <time>2022-05-29T11:36:04.764Z</time>
      </trkpt>
      <trkpt lat="42.42502" lon="18.76878">
        <ele>38.350225</ele>
        <time>2022-05-29T11:36:07.732Z</time>
      </trkpt>
      <trkpt lat="42.42508" lon="18.76868">
        <ele>38.488146</ele>
        <time>2022-05-29T11:36:10.771Z</time>
      </trkpt>
      <trkpt lat="42.42517" lon="18.76856">
        <ele>38.653313</ele>
        <time>2022-05-29T11:36:13.749Z</time>
      </trkpt>
      <trkpt lat="42.42527" lon="18.76848">
        <ele>38.817356</ele>
        <time>2022-05-29T11:36:16.759Z</time>
      </trkpt>
      <trkpt lat="42.42537" lon="18.76844">
        <ele>38.959845</ele>
        <time>2022-05-29T11:36:19.748Z</time>
      </trkpt>
      <trkpt lat="42.42546" lon="18.76843">
        <ele>39.082597</ele>
        <time>2022-05-29T11:36:22.785Z</time>
      </trkpt>
      <trkpt lat="42.42555" lon="18.76844">
        <ele>39.207133</ele>
        <time>2022-05-29T11:36:25.753Z</time>
      </trkpt>
      <trkpt lat="42.42565" lon="18.76845">
        <ele>39.341249</ele>
        <time>2022-05-29T11:36:28.730Z</time>
      </trkpt>
      <trkpt lat="42.42576" lon="18.76847">
        <ele>39.485935</ele>
        <time>2022-05-29T11:36:32.731Z</time>
      </trkpt>
      <trkpt lat="42.42586" lon="18.76849">
        <ele>39.631883</ele>
        <time>2022-05-29T11:36:40.727Z</time>
      </trkpt>
      <trkpt lat="42.42596" lon="18.7685">
        <ele>39.763403</ele>
        <time>2022-05-29T11:36:43.732Z</time>
      </trkpt>
      <trkpt lat="42.42606" lon="18.76852">
        <ele>39.851481</ele>
        <time>2022-05-29T11:36:46.720Z</time>
      </trkpt>
      <trkpt lat="42.42617" lon="18.76856">
        <ele>39.775516</ele>
        <time>2022-05-29T11:36:49.733Z</time>
      </trkpt>
      <trkpt lat="42.42627" lon="18.76858">
        <ele>39.702158</ele>
        <time>2022-05-29T11:36:52.755Z</time>
      </trkpt>
      <trkpt lat="42.42639" lon="18.76861">
        <ele>39.624371</ele>
        <time>2022-05-29T11:36:56.734Z</time>
      </trkpt>
      <trkpt lat="42.42651" lon="18.76864">
        <ele>39.539635</ele>
        <time>2022-05-29T11:37:00.720Z</time>
      </trkpt>
      <trkpt lat="42.42661" lon="18.76867">
        <ele>39.469265</ele>
        <time>2022-05-29T11:37:03.723Z</time>
      </trkpt>
      <trkpt lat="42.42671" lon="18.7687">
        <ele>39.395529</ele>
        <time>2022-05-29T11:37:06.715Z</time>
      </trkpt>
      <trkpt lat="42.4268" lon="18.76873">
        <ele>39.329626</ele>
        <time>2022-05-29T11:37:09.719Z</time>
      </trkpt>
      <trkpt lat="42.42691" lon="18.76876">
        <ele>39.252773</ele>
        <time>2022-05-29T11:37:12.733Z</time>
      </trkpt>
      <trkpt lat="42.42704" lon="18.76881">
        <ele>39.163893</ele>
        <time>2022-05-29T11:37:15.723Z</time>
      </trkpt>
      <trkpt lat="42.42713" lon="18.76884">
        <ele>39.098338</ele>
        <time>2022-05-29T11:37:17.733Z</time>
      </trkpt>
      <trkpt lat="42.42723" lon="18.76887">
        <ele>39.026964</ele>
        <time>2022-05-29T11:37:19.754Z</time>
      </trkpt>
      <trkpt lat="42.42733" lon="18.7689">
        <ele>38.957716</ele>
        <time>2022-05-29T11:37:21.750Z</time>
      </trkpt>
      <trkpt lat="42.42746" lon="18.76895">
        <ele>38.866423</ele>
        <time>2022-05-29T11:37:24.720Z</time>
      </trkpt>
      <trkpt lat="42.42758" lon="18.76899">
        <ele>38.779726</ele>
        <time>2022-05-29T11:37:27.744Z</time>
      </trkpt>
      <trkpt lat="42.42768" lon="18.76904">
        <ele>38.70379</ele>
        <time>2022-05-29T11:37:30.741Z</time>
      </trkpt>
      <trkpt lat="42.42767" lon="18.76919">
        <ele>38.645733</ele>
        <time>2022-05-29T11:37:34.729Z</time>
      </trkpt>
      <trkpt lat="42.42765" lon="18.76932">
        <ele>38.782747</ele>
        <time>2022-05-29T11:37:36.760Z</time>
      </trkpt>
      <trkpt lat="42.42763" lon="18.76947">
        <ele>38.955388</ele>
        <time>2022-05-29T11:37:39.738Z</time>
      </trkpt>
      <trkpt lat="42.42761" lon="18.76963">
        <ele>39.135377</ele>
        <time>2022-05-29T11:37:42.738Z</time>
      </trkpt>
      <trkpt lat="42.42759" lon="18.76979">
        <ele>39.31511</ele>
        <time>2022-05-29T11:37:45.730Z</time>
      </trkpt>
      <trkpt lat="42.42757" lon="18.76996">
        <ele>39.508408</ele>
        <time>2022-05-29T11:37:48.733Z</time>
      </trkpt>
      <trkpt lat="42.42756" lon="18.77013">
        <ele>39.699757</ele>
        <time>2022-05-29T11:37:51.762Z</time>
      </trkpt>
      <trkpt lat="42.42755" lon="18.7703">
        <ele>39.885979</ele>
        <time>2022-05-29T11:37:54.722Z</time>
      </trkpt>
      <trkpt lat="42.42752" lon="18.77044">
        <ele>40.048162</ele>
        <time>2022-05-29T11:37:57.718Z</time>
      </trkpt>
      <trkpt lat="42.42749" lon="18.77059">
        <ele>40.218337</ele>
        <time>2022-05-29T11:38:00.728Z</time>
      </trkpt>
      <trkpt lat="42.42747" lon="18.77074">
        <ele>40.390175</ele>
        <time>2022-05-29T11:38:03.715Z</time>
      </trkpt>
      <trkpt lat="42.42744" lon="18.77089">
        <ele>40.563369</ele>
        <time>2022-05-29T11:38:06.735Z</time>
      </trkpt>
      <trkpt lat="42.42742" lon="18.77104">
        <ele>40.734373</ele>
        <time>2022-05-29T11:38:09.718Z</time>
      </trkpt>
      <trkpt lat="42.4274" lon="18.77119">
        <ele>40.900502</ele>
        <time>2022-05-29T11:38:12.728Z</time>
      </trkpt>
      <trkpt lat="42.42739" lon="18.77133">
        <ele>41.051103</ele>
        <time>2022-05-29T11:38:15.743Z</time>
      </trkpt>
      <trkpt lat="42.42736" lon="18.77148">
        <ele>41.223582</ele>
        <time>2022-05-29T11:38:18.731Z</time>
      </trkpt>
      <trkpt lat="42.42735" lon="18.77162">
        <ele>41.330757</ele>
        <time>2022-05-29T11:38:21.734Z</time>
      </trkpt>
      <trkpt lat="42.42733" lon="18.77178">
        <ele>41.330757</ele>
        <time>2022-05-29T11:38:26.745Z</time>
      </trkpt>
      <trkpt lat="42.42729" lon="18.77192">
        <ele>41.330757</ele>
        <time>2022-05-29T11:38:30.734Z</time>
      </trkpt>
      <trkpt lat="42.42728" lon="18.77205">
        <ele>41.330757</ele>
        <time>2022-05-29T11:38:33.731Z</time>
      </trkpt>
      <trkpt lat="42.42724" lon="18.77217">
        <ele>41.330757</ele>
        <time>2022-05-29T11:38:36.760Z</time>
      </trkpt>
      <trkpt lat="42.42723" lon="18.77231">
        <ele>41.330757</ele>
        <time>2022-05-29T11:38:40.762Z</time>
      </trkpt>
      <trkpt lat="42.42721" lon="18.77244">
        <ele>41.330757</ele>
        <time>2022-05-29T11:38:44.719Z</time>
      </trkpt>
      <trkpt lat="42.42718" lon="18.77256">
        <ele>41.330757</ele>
        <time>2022-05-29T11:38:50.731Z</time>
      </trkpt>
      <trkpt lat="42.42728" lon="18.77255">
        <ele>41.330757</ele>
        <time>2022-05-29T11:39:01.787Z</time>
      </trkpt>
      <trkpt lat="42.42737" lon="18.77253">
        <ele>41.330757</ele>
        <time>2022-05-29T11:39:06.721Z</time>
      </trkpt>
      <trkpt lat="42.42747" lon="18.7725">
        <ele>41.330757</ele>
        <time>2022-05-29T11:39:11.738Z</time>
      </trkpt>
      <trkpt lat="42.42758" lon="18.77247">
        <ele>41.330757</ele>
        <time>2022-05-29T11:39:16.755Z</time>
      </trkpt>
      <trkpt lat="42.42767" lon="18.77243">
        <ele>41.330757</ele>
        <time>2022-05-29T11:39:21.717Z</time>
      </trkpt>
      <trkpt lat="42.42776" lon="18.7724">
        <ele>41.330757</ele>
        <time>2022-05-29T11:39:30.722Z</time>
      </trkpt>
      <trkpt lat="42.42783" lon="18.77231">
        <ele>41.330757</ele>
        <time>2022-05-29T11:39:40.733Z</time>
      </trkpt>
      <trkpt lat="42.42787" lon="18.77217">
        <ele>41.330757</ele>
        <time>2022-05-29T11:39:44.731Z</time>
      </trkpt>
      <trkpt lat="42.42794" lon="18.77207">
        <ele>41.330757</ele>
        <time>2022-05-29T11:39:48.732Z</time>
      </trkpt>
      <trkpt lat="42.42802" lon="18.772">
        <ele>41.330757</ele>
        <time>2022-05-29T11:39:53.718Z</time>
      </trkpt>
      <trkpt lat="42.42805" lon="18.77206">
        <ele>41.330757</ele>
        <time>2022-05-29T11:41:00.722Z</time>
      </trkpt>
    </trkseg>
  </trk>
  <trk>
    <name><![CDATA[Tour d'Europe: étape 698]]></name>
    <extensions>
      <line xmlns="http://www.topografix.com/GPX/gpx_style/0/2">
        <color>000088</color>
        <width>4</width>
      </line>
    </extensions>
    <trkseg>
      <trkpt lat="42.10763" lon="19.08928">
        <ele>52.587396</ele>
        <time>2022-05-27T08:20:16.714Z</time>
      </trkpt>
      <trkpt lat="42.10777" lon="19.08903">
        <ele>52.587396</ele>
        <time>2022-05-27T08:21:38.885Z</time>
      </trkpt>
      <trkpt lat="42.10785" lon="19.08892">
        <ele>52.587396</ele>
        <time>2022-05-27T08:21:41.855Z</time>
      </trkpt>
      <trkpt lat="42.10792" lon="19.0888">
        <ele>52.587396</ele>
        <time>2022-05-27T08:21:44.873Z</time>
      </trkpt>
      <trkpt lat="42.10799" lon="19.08868">
        <ele>52.587396</ele>
        <time>2022-05-27T08:21:47.865Z</time>
      </trkpt>
      <trkpt lat="42.10807" lon="19.08856">
        <ele>52.587396</ele>
        <time>2022-05-27T08:21:50.905Z</time>
      </trkpt>
      <trkpt lat="42.10816" lon="19.08844">
        <ele>52.587396</ele>
        <time>2022-05-27T08:21:53.868Z</time>
      </trkpt>
      <trkpt lat="42.10825" lon="19.08834">
        <ele>52.464359</ele>
        <time>2022-05-27T08:21:56.901Z</time>
      </trkpt>
      <trkpt lat="42.10833" lon="19.08825">
        <ele>52.031802</ele>
        <time>2022-05-27T08:21:59.875Z</time>
      </trkpt>
      <trkpt lat="42.10843" lon="19.08814">
        <ele>51.521927</ele>
        <time>2022-05-27T08:22:02.865Z</time>
      </trkpt>
      <trkpt lat="42.10853" lon="19.08802">
        <ele>51.010488</ele>
        <time>2022-05-27T08:22:05.863Z</time>
      </trkpt>
      <trkpt lat="42.10863" lon="19.08792">
        <ele>50.50717</ele>
        <time>2022-05-27T08:22:08.869Z</time>
      </trkpt>
      <trkpt lat="42.10872" lon="19.08782">
        <ele>50.023984</ele>
        <time>2022-05-27T08:22:11.862Z</time>
      </trkpt>
      <trkpt lat="42.10882" lon="19.08772">
        <ele>49.55364</ele>
        <time>2022-05-27T08:22:14.881Z</time>
      </trkpt>
      <trkpt lat="42.10891" lon="19.08761">
        <ele>49.070736</ele>
        <time>2022-05-27T08:22:17.866Z</time>
      </trkpt>
      <trkpt lat="42.10899" lon="19.08751">
        <ele>48.623399</ele>
        <time>2022-05-27T08:22:20.863Z</time>
      </trkpt>
      <trkpt lat="42.10908" lon="19.08741">
        <ele>48.160508</ele>
        <time>2022-05-27T08:22:23.865Z</time>
      </trkpt>
      <trkpt lat="42.10918" lon="19.08732">
        <ele>47.690042</ele>
        <time>2022-05-27T08:22:26.870Z</time>
      </trkpt>
      <trkpt lat="42.10927" lon="19.08722">
        <ele>47.212315</ele>
        <time>2022-05-27T08:22:29.862Z</time>
      </trkpt>
      <trkpt lat="42.10937" lon="19.08714">
        <ele>46.75753</ele>
        <time>2022-05-27T08:22:32.855Z</time>
      </trkpt>
      <trkpt lat="42.10947" lon="19.08706">
        <ele>46.30107</ele>
        <time>2022-05-27T08:22:35.859Z</time>
      </trkpt>
      <trkpt lat="42.10958" lon="19.08696">
        <ele>45.789978</ele>
        <time>2022-05-27T08:22:38.859Z</time>
      </trkpt>
      <trkpt lat="42.10969" lon="19.08688">
        <ele>45.422365</ele>
        <time>2022-05-27T08:22:41.868Z</time>
      </trkpt>
      <trkpt lat="42.1098" lon="19.08679">
        <ele>45.368522</ele>
        <time>2022-05-27T08:22:44.866Z</time>
      </trkpt>
      <trkpt lat="42.1099" lon="19.08671">
        <ele>45.322629</ele>
        <time>2022-05-27T08:22:47.866Z</time>
      </trkpt>
      <trkpt lat="42.11" lon="19.08662">
        <ele>45.271078</ele>
        <time>2022-05-27T08:22:50.841Z</time>
      </trkpt>
      <trkpt lat="42.11007" lon="19.08654">
        <ele>45.23149</ele>
        <time>2022-05-27T08:22:52.861Z</time>
      </trkpt>
      <trkpt lat="42.11018" lon="19.08644">
        <ele>45.177489</ele>
        <time>2022-05-27T08:22:55.848Z</time>
      </trkpt>
      <trkpt lat="42.11029" lon="19.08634">
        <ele>45.124218</ele>
        <time>2022-05-27T08:22:58.868Z</time>
      </trkpt>
      <trkpt lat="42.11039" lon="19.08625">
        <ele>45.074214</ele>
        <time>2022-05-27T08:23:01.845Z</time>
      </trkpt>
      <trkpt lat="42.11048" lon="19.08616">
        <ele>45.026739</ele>
        <time>2022-05-27T08:23:04.909Z</time>
      </trkpt>
      <trkpt lat="42.11058" lon="19.08608">
        <ele>44.979243</ele>
        <time>2022-05-27T08:23:07.863Z</time>
      </trkpt>
      <trkpt lat="42.11067" lon="19.086">
        <ele>44.932141</ele>
        <time>2022-05-27T08:23:10.928Z</time>
      </trkpt>
      <trkpt lat="42.11076" lon="19.08592">
        <ele>44.88832</ele>
        <time>2022-05-27T08:23:13.871Z</time>
      </trkpt>
      <trkpt lat="42.11085" lon="19.08583">
        <ele>44.842937</ele>
        <time>2022-05-27T08:23:16.868Z</time>
      </trkpt>
      <trkpt lat="42.11095" lon="19.08575">
        <ele>44.792561</ele>
        <time>2022-05-27T08:23:19.858Z</time>
      </trkpt>
      <trkpt lat="42.11106" lon="19.08566">
        <ele>44.739262</ele>
        <time>2022-05-27T08:23:22.883Z</time>
      </trkpt>
      <trkpt lat="42.11117" lon="19.08556">
        <ele>44.711815</ele>
        <time>2022-05-27T08:23:25.864Z</time>
      </trkpt>
      <trkpt lat="42.11126" lon="19.08548">
        <ele>44.841029</ele>
        <time>2022-05-27T08:23:28.867Z</time>
      </trkpt>
      <trkpt lat="42.11137" lon="19.0854">
        <ele>44.982608</ele>
        <time>2022-05-27T08:23:31.857Z</time>
      </trkpt>
      <trkpt lat="42.11144" lon="19.08533">
        <ele>45.089558</ele>
        <time>2022-05-27T08:23:33.846Z</time>
      </trkpt>
      <trkpt lat="42.11152" lon="19.08526">
        <ele>45.195568</ele>
        <time>2022-05-27T08:23:35.871Z</time>
      </trkpt>
      <trkpt lat="42.11163" lon="19.08517">
        <ele>45.348818</ele>
        <time>2022-05-27T08:23:38.899Z</time>
      </trkpt>
      <trkpt lat="42.11174" lon="19.08508">
        <ele>45.494703</ele>
        <time>2022-05-27T08:23:41.870Z</time>
      </trkpt>
      <trkpt lat="42.11185" lon="19.08499">
        <ele>45.641043</ele>
        <time>2022-05-27T08:23:44.866Z</time>
      </trkpt>
      <trkpt lat="42.11196" lon="19.0849">
        <ele>45.793299</ele>
        <time>2022-05-27T08:23:47.869Z</time>
      </trkpt>
      <trkpt lat="42.11207" lon="19.08481">
        <ele>45.942251</ele>
        <time>2022-05-27T08:23:50.868Z</time>
      </trkpt>
      <trkpt lat="42.11218" lon="19.08471">
        <ele>46.092841</ele>
        <time>2022-05-27T08:23:53.879Z</time>
      </trkpt>
      <trkpt lat="42.11226" lon="19.08464">
        <ele>46.200756</ele>
        <time>2022-05-27T08:23:55.882Z</time>
      </trkpt>
      <trkpt lat="42.11237" lon="19.08454">
        <ele>46.355284</ele>
        <time>2022-05-27T08:23:58.887Z</time>
      </trkpt>
      <trkpt lat="42.11248" lon="19.08443">
        <ele>46.509718</ele>
        <time>2022-05-27T08:24:01.866Z</time>
      </trkpt>
      <trkpt lat="42.11259" lon="19.08435">
        <ele>46.654291</ele>
        <time>2022-05-27T08:24:04.853Z</time>
      </trkpt>
      <trkpt lat="42.11268" lon="19.08428">
        <ele>46.813829</ele>
        <time>2022-05-27T08:24:07.874Z</time>
      </trkpt>
      <trkpt lat="42.11277" lon="19.0842">
        <ele>47.245915</ele>
        <time>2022-05-27T08:24:10.880Z</time>
      </trkpt>
      <trkpt lat="42.11287" lon="19.08411">
        <ele>47.737757</ele>
        <time>2022-05-27T08:24:13.882Z</time>
      </trkpt>
      <trkpt lat="42.11297" lon="19.08402">
        <ele>48.250217</ele>
        <time>2022-05-27T08:24:16.867Z</time>
      </trkpt>
      <trkpt lat="42.11306" lon="19.08393">
        <ele>48.704561</ele>
        <time>2022-05-27T08:24:19.874Z</time>
      </trkpt>
      <trkpt lat="42.11315" lon="19.08385">
        <ele>49.123598</ele>
        <time>2022-05-27T08:24:23.870Z</time>
      </trkpt>
      <trkpt lat="42.11322" lon="19.08378">
        <ele>49.501257</ele>
        <time>2022-05-27T08:24:26.872Z</time>
      </trkpt>
      <trkpt lat="42.11332" lon="19.08369">
        <ele>49.974292</ele>
        <time>2022-05-27T08:24:30.851Z</time>
      </trkpt>
      <trkpt lat="42.11341" lon="19.08361">
        <ele>50.420285</ele>
        <time>2022-05-27T08:24:35.861Z</time>
      </trkpt>
      <trkpt lat="42.11351" lon="19.08357">
        <ele>50.846671</ele>
        <time>2022-05-27T08:24:40.865Z</time>
      </trkpt>
      <trkpt lat="42.1136" lon="19.08353">
        <ele>51.264209</ele>
        <time>2022-05-27T08:24:44.868Z</time>
      </trkpt>
      <trkpt lat="42.11369" lon="19.08346">
        <ele>51.701411</ele>
        <time>2022-05-27T08:24:48.897Z</time>
      </trkpt>
      <trkpt lat="42.11376" lon="19.08336">
        <ele>52.126525</ele>
        <time>2022-05-27T08:24:52.873Z</time>
      </trkpt>
      <trkpt lat="42.11383" lon="19.08326">
        <ele>52.547226</ele>
        <time>2022-05-27T08:24:56.922Z</time>
      </trkpt>
      <trkpt lat="42.11389" lon="19.08315">
        <ele>52.949687</ele>
        <time>2022-05-27T08:25:00.878Z</time>
      </trkpt>
      <trkpt lat="42.11395" lon="19.08304">
        <ele>53.366995</ele>
        <time>2022-05-27T08:25:04.872Z</time>
      </trkpt>
      <trkpt lat="42.11401" lon="19.08293">
        <ele>53.791699</ele>
        <time>2022-05-27T08:25:08.877Z</time>
      </trkpt>
      <trkpt lat="42.11407" lon="19.08282">
        <ele>54.201945</ele>
        <time>2022-05-27T08:25:12.855Z</time>
      </trkpt>
      <trkpt lat="42.11413" lon="19.08272">
        <ele>54.550003</ele>
        <time>2022-05-27T08:25:16.877Z</time>
      </trkpt>
      <trkpt lat="42.11418" lon="19.08262">
        <ele>54.897968</ele>
        <time>2022-05-27T08:25:20.875Z</time>
      </trkpt>
      <trkpt lat="42.11422" lon="19.08251">
        <ele>55.234828</ele>
        <time>2022-05-27T08:25:24.861Z</time>
      </trkpt>
      <trkpt lat="42.11428" lon="19.08238">
        <ele>55.638254</ele>
        <time>2022-05-27T08:25:29.878Z</time>
      </trkpt>
      <trkpt lat="42.11433" lon="19.08226">
        <ele>56.027083</ele>
        <time>2022-05-27T08:25:34.924Z</time>
      </trkpt>
      <trkpt lat="42.11439" lon="19.08216">
        <ele>56.3929</ele>
        <time>2022-05-27T08:25:39.883Z</time>
      </trkpt>
      <trkpt lat="42.11445" lon="19.08204">
        <ele>56.783186</ele>
        <time>2022-05-27T08:25:44.882Z</time>
      </trkpt>
      <trkpt lat="42.11448" lon="19.08191">
        <ele>57.161965</ele>
        <time>2022-05-27T08:25:50.874Z</time>
      </trkpt>
      <trkpt lat="42.11452" lon="19.08179">
        <ele>57.526526</ele>
        <time>2022-05-27T08:25:55.882Z</time>
      </trkpt>
      <trkpt lat="42.11457" lon="19.08166">
        <ele>57.92995</ele>
        <time>2022-05-27T08:26:00.889Z</time>
      </trkpt>
      <trkpt lat="42.11463" lon="19.08155">
        <ele>58.315797</ele>
        <time>2022-05-27T08:26:05.875Z</time>
      </trkpt>
      <trkpt lat="42.11469" lon="19.08143">
        <ele>58.72612</ele>
        <time>2022-05-27T08:26:10.870Z</time>
      </trkpt>
      <trkpt lat="42.11475" lon="19.08131">
        <ele>59.134864</ele>
        <time>2022-05-27T08:26:15.872Z</time>
      </trkpt>
      <trkpt lat="42.1148" lon="19.0812">
        <ele>59.487897</ele>
        <time>2022-05-27T08:26:19.918Z</time>
      </trkpt>
      <trkpt lat="42.11484" lon="19.08107">
        <ele>59.861859</ele>
        <time>2022-05-27T08:26:23.875Z</time>
      </trkpt>
      <trkpt lat="42.11489" lon="19.08095">
        <ele>60.263496</ele>
        <time>2022-05-27T08:26:28.868Z</time>
      </trkpt>
      <trkpt lat="42.11495" lon="19.08083">
        <ele>60.651729</ele>
        <time>2022-05-27T08:26:32.871Z</time>
      </trkpt>
      <trkpt lat="42.11501" lon="19.08071">
        <ele>60.972426</ele>
        <time>2022-05-27T08:26:37.870Z</time>
      </trkpt>
      <trkpt lat="42.11507" lon="19.08059">
        <ele>61.14419</ele>
        <time>2022-05-27T08:26:41.876Z</time>
      </trkpt>
      <trkpt lat="42.11514" lon="19.08046">
        <ele>61.331108</ele>
        <time>2022-05-27T08:26:45.867Z</time>
      </trkpt>
      <trkpt lat="42.1152" lon="19.08035">
        <ele>61.491931</ele>
        <time>2022-05-27T08:26:48.866Z</time>
      </trkpt>
      <trkpt lat="42.11527" lon="19.08025">
        <ele>61.647263</ele>
        <time>2022-05-27T08:26:51.864Z</time>
      </trkpt>
      <trkpt lat="42.11533" lon="19.08014">
        <ele>61.807885</ele>
        <time>2022-05-27T08:26:54.884Z</time>
      </trkpt>
      <trkpt lat="42.11539" lon="19.08004">
        <ele>61.966803</ele>
        <time>2022-05-27T08:26:57.876Z</time>
      </trkpt>
      <trkpt lat="42.11546" lon="19.07993">
        <ele>62.130433</ele>
        <time>2022-05-27T08:27:00.878Z</time>
      </trkpt>
      <trkpt lat="42.11552" lon="19.07982">
        <ele>62.292942</ele>
        <time>2022-05-27T08:27:03.908Z</time>
      </trkpt>
      <trkpt lat="42.11559" lon="19.07972">
        <ele>62.455056</ele>
        <time>2022-05-27T08:27:06.881Z</time>
      </trkpt>
      <trkpt lat="42.11565" lon="19.07961">
        <ele>62.616641</ele>
        <time>2022-05-27T08:27:09.878Z</time>
      </trkpt>
      <trkpt lat="42.1157" lon="19.0795">
        <ele>62.767898</ele>
        <time>2022-05-27T08:27:12.872Z</time>
      </trkpt>
      <trkpt lat="42.11576" lon="19.07939">
        <ele>62.925713</ele>
        <time>2022-05-27T08:27:15.913Z</time>
      </trkpt>
      <trkpt lat="42.11581" lon="19.07928">
        <ele>63.078843</ele>
        <time>2022-05-27T08:27:18.858Z</time>
      </trkpt>
      <trkpt lat="42.11588" lon="19.07917">
        <ele>63.2432</ele>
        <time>2022-05-27T08:27:21.886Z</time>
      </trkpt>
      <trkpt lat="42.11594" lon="19.07907">
        <ele>63.397801</ele>
        <time>2022-05-27T08:27:24.856Z</time>
      </trkpt>
      <trkpt lat="42.116" lon="19.07896">
        <ele>63.559386</ele>
        <time>2022-05-27T08:27:27.870Z</time>
      </trkpt>
      <trkpt lat="42.11607" lon="19.07884">
        <ele>63.727501</ele>
        <time>2022-05-27T08:27:30.887Z</time>
      </trkpt>
      <trkpt lat="42.11613" lon="19.07872">
        <ele>63.658295</ele>
        <time>2022-05-27T08:27:33.923Z</time>
      </trkpt>
      <trkpt lat="42.11618" lon="19.07861">
        <ele>63.561104</ele>
        <time>2022-05-27T08:27:36.872Z</time>
      </trkpt>
      <trkpt lat="42.11625" lon="19.07848">
        <ele>63.455881</ele>
        <time>2022-05-27T08:27:39.899Z</time>
      </trkpt>
      <trkpt lat="42.1163" lon="19.07837">
        <ele>63.35637</ele>
        <time>2022-05-27T08:27:42.870Z</time>
      </trkpt>
      <trkpt lat="42.11635" lon="19.07825">
        <ele>63.260658</ele>
        <time>2022-05-27T08:27:45.880Z</time>
      </trkpt>
      <trkpt lat="42.11641" lon="19.07814">
        <ele>63.163467</ele>
        <time>2022-05-27T08:27:48.879Z</time>
      </trkpt>
      <trkpt lat="42.11647" lon="19.07802">
        <ele>63.058418</ele>
        <time>2022-05-27T08:27:51.878Z</time>
      </trkpt>
      <trkpt lat="42.11654" lon="19.07789">
        <ele>62.949266</ele>
        <time>2022-05-27T08:27:54.898Z</time>
      </trkpt>
      <trkpt lat="42.1166" lon="19.07777">
        <ele>62.837829</ele>
        <time>2022-05-27T08:27:57.877Z</time>
      </trkpt>
      <trkpt lat="42.11667" lon="19.07762">
        <ele>62.714072</ele>
        <time>2022-05-27T08:28:00.869Z</time>
      </trkpt>
      <trkpt lat="42.11672" lon="19.07751">
        <ele>62.620972</ele>
        <time>2022-05-27T08:28:02.868Z</time>
      </trkpt>
      <trkpt lat="42.11677" lon="19.07741">
        <ele>62.531274</ele>
        <time>2022-05-27T08:28:04.873Z</time>
      </trkpt>
      <trkpt lat="42.11683" lon="19.0773">
        <ele>62.441515</ele>
        <time>2022-05-27T08:28:06.868Z</time>
      </trkpt>
      <trkpt lat="42.11688" lon="19.07718">
        <ele>62.33708</ele>
        <time>2022-05-27T08:28:08.891Z</time>
      </trkpt>
      <trkpt lat="42.11693" lon="19.07706">
        <ele>62.239841</ele>
        <time>2022-05-27T08:28:10.863Z</time>
      </trkpt>
      <trkpt lat="42.11698" lon="19.07693">
        <ele>62.13844</ele>
        <time>2022-05-27T08:28:12.882Z</time>
      </trkpt>
      <trkpt lat="42.11703" lon="19.0768">
        <ele>62.031787</ele>
        <time>2022-05-27T08:28:14.872Z</time>
      </trkpt>
      <trkpt lat="42.11708" lon="19.07664">
        <ele>61.437609</ele>
        <time>2022-05-27T08:28:16.876Z</time>
      </trkpt>
      <trkpt lat="42.11713" lon="19.07648">
        <ele>60.805876</ele>
        <time>2022-05-27T08:28:18.885Z</time>
      </trkpt>
      <trkpt lat="42.11719" lon="19.07634">
        <ele>60.170173</ele>
        <time>2022-05-27T08:28:20.879Z</time>
      </trkpt>
      <trkpt lat="42.11725" lon="19.07618">
        <ele>59.513669</ele>
        <time>2022-05-27T08:28:22.920Z</time>
      </trkpt>
      <trkpt lat="42.11732" lon="19.07599">
        <ele>58.702759</ele>
        <time>2022-05-27T08:28:24.866Z</time>
      </trkpt>
      <trkpt lat="42.11742" lon="19.07582">
        <ele>57.899471</ele>
        <time>2022-05-27T08:28:26.866Z</time>
      </trkpt>
      <trkpt lat="42.11751" lon="19.07566">
        <ele>57.114364</ele>
        <time>2022-05-27T08:28:28.884Z</time>
      </trkpt>
      <trkpt lat="42.1176" lon="19.0755">
        <ele>56.371487</ele>
        <time>2022-05-27T08:28:30.856Z</time>
      </trkpt>
      <trkpt lat="42.11769" lon="19.07534">
        <ele>55.60433</ele>
        <time>2022-05-27T08:28:32.885Z</time>
      </trkpt>
      <trkpt lat="42.11779" lon="19.07519">
        <ele>54.863337</ele>
        <time>2022-05-27T08:28:34.862Z</time>
      </trkpt>
      <trkpt lat="42.11786" lon="19.07507">
        <ele>54.247209</ele>
        <time>2022-05-27T08:28:36.880Z</time>
      </trkpt>
      <trkpt lat="42.11794" lon="19.07495">
        <ele>53.657875</ele>
        <time>2022-05-27T08:28:38.867Z</time>
      </trkpt>
      <trkpt lat="42.11802" lon="19.07482">
        <ele>53.053324</ele>
        <time>2022-05-27T08:28:40.872Z</time>
      </trkpt>
      <trkpt lat="42.11808" lon="19.07471">
        <ele>53.078695</ele>
        <time>2022-05-27T08:28:42.879Z</time>
      </trkpt>
      <trkpt lat="42.11815" lon="19.0746">
        <ele>53.383961</ele>
        <time>2022-05-27T08:28:44.872Z</time>
      </trkpt>
      <trkpt lat="42.1182" lon="19.07449">
        <ele>53.690946</ele>
        <time>2022-05-27T08:28:46.878Z</time>
      </trkpt>
      <trkpt lat="42.11829" lon="19.07439">
        <ele>54.031282</ele>
        <time>2022-05-27T08:28:48.869Z</time>
      </trkpt>
      <trkpt lat="42.11837" lon="19.07426">
        <ele>54.401662</ele>
        <time>2022-05-27T08:28:51.896Z</time>
      </trkpt>
      <trkpt lat="42.11844" lon="19.07417">
        <ele>54.702604</ele>
        <time>2022-05-27T08:28:54.859Z</time>
      </trkpt>
      <trkpt lat="42.11852" lon="19.07406">
        <ele>55.064293</ele>
        <time>2022-05-27T08:28:58.869Z</time>
      </trkpt>
      <trkpt lat="42.1186" lon="19.07396">
        <ele>55.405317</ele>
        <time>2022-05-27T08:29:02.876Z</time>
      </trkpt>
      <trkpt lat="42.11867" lon="19.07387">
        <ele>55.683243</ele>
        <time>2022-05-27T08:29:06.901Z</time>
      </trkpt>
      <trkpt lat="42.11875" lon="19.07377">
        <ele>56.013787</ele>
        <time>2022-05-27T08:29:13.874Z</time>
      </trkpt>
      <trkpt lat="42.11883" lon="19.07367">
        <ele>56.343011</ele>
        <time>2022-05-27T08:29:17.906Z</time>
      </trkpt>
      <trkpt lat="42.1189" lon="19.07357">
        <ele>56.648311</ele>
        <time>2022-05-27T08:29:20.881Z</time>
      </trkpt>
      <trkpt lat="42.11896" lon="19.07348">
        <ele>56.932231</ele>
        <time>2022-05-27T08:29:23.874Z</time>
      </trkpt>
      <trkpt lat="42.11904" lon="19.07337">
        <ele>57.264721</ele>
        <time>2022-05-27T08:29:27.877Z</time>
      </trkpt>
      <trkpt lat="42.11912" lon="19.07325">
        <ele>57.617412</ele>
        <time>2022-05-27T08:29:31.866Z</time>
      </trkpt>
      <trkpt lat="42.11919" lon="19.07315">
        <ele>57.947838</ele>
        <time>2022-05-27T08:29:35.870Z</time>
      </trkpt>
      <trkpt lat="42.11925" lon="19.07304">
        <ele>58.256509</ele>
        <time>2022-05-27T08:29:39.909Z</time>
      </trkpt>
      <trkpt lat="42.11931" lon="19.07292">
        <ele>58.490318</ele>
        <time>2022-05-27T08:29:43.876Z</time>
      </trkpt>
      <trkpt lat="42.11937" lon="19.07282">
        <ele>58.678427</ele>
        <time>2022-05-27T08:29:47.876Z</time>
      </trkpt>
      <trkpt lat="42.11943" lon="19.07271">
        <ele>58.884356</ele>
        <time>2022-05-27T08:29:51.869Z</time>
      </trkpt>
      <trkpt lat="42.1195" lon="19.07258">
        <ele>59.108099</ele>
        <time>2022-05-27T08:29:55.865Z</time>
      </trkpt>
      <trkpt lat="42.11957" lon="19.07247">
        <ele>59.331912</ele>
        <time>2022-05-27T08:29:59.884Z</time>
      </trkpt>
      <trkpt lat="42.11963" lon="19.07236">
        <ele>59.525921</ele>
        <time>2022-05-27T08:30:02.859Z</time>
      </trkpt>
      <trkpt lat="42.11969" lon="19.07227">
        <ele>59.710655</ele>
        <time>2022-05-27T08:30:05.880Z</time>
      </trkpt>
      <trkpt lat="42.11975" lon="19.07217">
        <ele>59.900091</ele>
        <time>2022-05-27T08:30:08.852Z</time>
      </trkpt>
      <trkpt lat="42.11981" lon="19.07207">
        <ele>60.092457</ele>
        <time>2022-05-27T08:30:11.855Z</time>
      </trkpt>
      <trkpt lat="42.11987" lon="19.07197">
        <ele>60.284823</ele>
        <time>2022-05-27T08:30:14.877Z</time>
      </trkpt>
      <trkpt lat="42.11996" lon="19.07186">
        <ele>60.514865</ele>
        <time>2022-05-27T08:30:17.882Z</time>
      </trkpt>
      <trkpt lat="42.12003" lon="19.07177">
        <ele>60.713036</ele>
        <time>2022-05-27T08:30:19.956Z</time>
      </trkpt>
      <trkpt lat="42.1201" lon="19.07167">
        <ele>60.920255</ele>
        <time>2022-05-27T08:30:21.866Z</time>
      </trkpt>
      <trkpt lat="42.12019" lon="19.07157">
        <ele>61.152134</ele>
        <time>2022-05-27T08:30:23.874Z</time>
      </trkpt>
      <trkpt lat="42.12028" lon="19.07146">
        <ele>61.399427</ele>
        <time>2022-05-27T08:30:25.872Z</time>
      </trkpt>
      <trkpt lat="42.1204" lon="19.07132">
        <ele>61.721957</ele>
        <time>2022-05-27T08:30:27.873Z</time>
      </trkpt>
      <trkpt lat="42.12053" lon="19.07117">
        <ele>61.728404</ele>
        <time>2022-05-27T08:30:29.866Z</time>
      </trkpt>
      <trkpt lat="42.12066" lon="19.07101">
        <ele>61.329999</ele>
        <time>2022-05-27T08:30:31.874Z</time>
      </trkpt>
      <trkpt lat="42.12076" lon="19.07082">
        <ele>60.928911</ele>
        <time>2022-05-27T08:30:33.854Z</time>
      </trkpt>
      <trkpt lat="42.12082" lon="19.0706">
        <ele>60.526007</ele>
        <time>2022-05-27T08:30:35.881Z</time>
      </trkpt>
      <trkpt lat="42.12084" lon="19.07048">
        <ele>60.31448</ele>
        <time>2022-05-27T08:30:36.878Z</time>
      </trkpt>
      <trkpt lat="42.12087" lon="19.07035">
        <ele>60.08524</ele>
        <time>2022-05-27T08:30:37.878Z</time>
      </trkpt>
      <trkpt lat="42.12088" lon="19.07022">
        <ele>59.855823</ele>
        <time>2022-05-27T08:30:38.904Z</time>
      </trkpt>
      <trkpt lat="42.12089" lon="19.07008">
        <ele>59.624575</ele>
        <time>2022-05-27T08:30:39.917Z</time>
      </trkpt>
      <trkpt lat="42.1209" lon="19.06995">
        <ele>59.39379</ele>
        <time>2022-05-27T08:30:40.898Z</time>
      </trkpt>
      <trkpt lat="42.12091" lon="19.06982">
        <ele>59.166198</ele>
        <time>2022-05-27T08:30:41.925Z</time>
      </trkpt>
      <trkpt lat="42.12092" lon="19.06967">
        <ele>58.920783</ele>
        <time>2022-05-27T08:30:42.860Z</time>
      </trkpt>
      <trkpt lat="42.12095" lon="19.06954">
        <ele>58.692573</ele>
        <time>2022-05-27T08:30:43.861Z</time>
      </trkpt>
      <trkpt lat="42.12097" lon="19.06941">
        <ele>58.45808</ele>
        <time>2022-05-27T08:30:44.864Z</time>
      </trkpt>
      <trkpt lat="42.12101" lon="19.06928">
        <ele>58.214433</ele>
        <time>2022-05-27T08:30:45.845Z</time>
      </trkpt>
      <trkpt lat="42.12106" lon="19.06914">
        <ele>57.954546</ele>
        <time>2022-05-27T08:30:46.849Z</time>
      </trkpt>
      <trkpt lat="42.12112" lon="19.06903">
        <ele>57.700367</ele>
        <time>2022-05-27T08:30:47.854Z</time>
      </trkpt>
      <trkpt lat="42.12119" lon="19.06892">
        <ele>57.360843</ele>
        <time>2022-05-27T08:30:48.865Z</time>
      </trkpt>
      <trkpt lat="42.12127" lon="19.06882">
        <ele>56.998818</ele>
        <time>2022-05-27T08:30:49.877Z</time>
      </trkpt>
      <trkpt lat="42.12137" lon="19.06873">
        <ele>56.640525</ele>
        <time>2022-05-27T08:30:50.855Z</time>
      </trkpt>
      <trkpt lat="42.12146" lon="19.06865">
        <ele>56.287357</ele>
        <time>2022-05-27T08:30:51.871Z</time>
      </trkpt>
      <trkpt lat="42.12156" lon="19.06857">
        <ele>55.918359</ele>
        <time>2022-05-27T08:30:52.851Z</time>
      </trkpt>
      <trkpt lat="42.12166" lon="19.06849">
        <ele>55.55581</ele>
        <time>2022-05-27T08:30:53.880Z</time>
      </trkpt>
      <trkpt lat="42.12175" lon="19.06841">
        <ele>55.205121</ele>
        <time>2022-05-27T08:30:54.863Z</time>
      </trkpt>
      <trkpt lat="42.12184" lon="19.06834">
        <ele>54.867505</ele>
        <time>2022-05-27T08:30:55.866Z</time>
      </trkpt>
      <trkpt lat="42.12193" lon="19.06826">
        <ele>54.534384</ele>
        <time>2022-05-27T08:30:56.862Z</time>
      </trkpt>
      <trkpt lat="42.12201" lon="19.06818">
        <ele>54.214244</ele>
        <time>2022-05-27T08:30:57.863Z</time>
      </trkpt>
      <trkpt lat="42.12209" lon="19.0681">
        <ele>53.894104</ele>
        <time>2022-05-27T08:30:58.884Z</time>
      </trkpt>
      <trkpt lat="42.12216" lon="19.06802">
        <ele>53.597561</ele>
        <time>2022-05-27T08:30:59.867Z</time>
      </trkpt>
      <trkpt lat="42.12223" lon="19.06794">
        <ele>53.310487</ele>
        <time>2022-05-27T08:31:00.884Z</time>
      </trkpt>
      <trkpt lat="42.12234" lon="19.06776">
        <ele>52.753325</ele>
        <time>2022-05-27T08:31:02.903Z</time>
      </trkpt>
      <trkpt lat="42.12244" lon="19.06761">
        <ele>52.268585</ele>
        <time>2022-05-27T08:31:04.861Z</time>
      </trkpt>
      <trkpt lat="42.12253" lon="19.06749">
        <ele>52.130108</ele>
        <time>2022-05-27T08:31:06.873Z</time>
      </trkpt>
      <trkpt lat="42.12259" lon="19.06738">
        <ele>52.433572</ele>
        <time>2022-05-27T08:31:08.872Z</time>
      </trkpt>
      <trkpt lat="42.12267" lon="19.06723">
        <ele>52.833438</ele>
        <time>2022-05-27T08:31:11.880Z</time>
      </trkpt>
      <trkpt lat="42.12273" lon="19.0671">
        <ele>53.169626</ele>
        <time>2022-05-27T08:31:14.881Z</time>
      </trkpt>
      <trkpt lat="42.12278" lon="19.06699">
        <ele>53.459718</ele>
        <time>2022-05-27T08:31:17.854Z</time>
      </trkpt>
      <trkpt lat="42.12283" lon="19.06688">
        <ele>53.735454</ele>
        <time>2022-05-27T08:31:20.886Z</time>
      </trkpt>
      <trkpt lat="42.12287" lon="19.06676">
        <ele>54.024718</ele>
        <time>2022-05-27T08:31:24.897Z</time>
      </trkpt>
      <trkpt lat="42.12291" lon="19.06664">
        <ele>54.301614</ele>
        <time>2022-05-27T08:31:27.862Z</time>
      </trkpt>
      <trkpt lat="42.12293" lon="19.06653">
        <ele>54.565909</ele>
        <time>2022-05-27T08:31:32.865Z</time>
      </trkpt>
      <trkpt lat="42.12296" lon="19.0664">
        <ele>54.862331</ele>
        <time>2022-05-27T08:31:36.865Z</time>
      </trkpt>
      <trkpt lat="42.12298" lon="19.06628">
        <ele>55.131238</ele>
        <time>2022-05-27T08:31:40.846Z</time>
      </trkpt>
      <trkpt lat="42.12299" lon="19.06613">
        <ele>55.452324</ele>
        <time>2022-05-27T08:31:45.879Z</time>
      </trkpt>
      <trkpt lat="42.12299" lon="19.06601">
        <ele>55.721158</ele>
        <time>2022-05-27T08:31:49.882Z</time>
      </trkpt>
      <trkpt lat="42.12299" lon="19.06586">
        <ele>56.037826</ele>
        <time>2022-05-27T08:31:54.874Z</time>
      </trkpt>
      <trkpt lat="42.12299" lon="19.06574">
        <ele>56.308601</ele>
        <time>2022-05-27T08:31:58.865Z</time>
      </trkpt>
      <trkpt lat="42.12298" lon="19.06562">
        <ele>56.576005</ele>
        <time>2022-05-27T08:32:02.877Z</time>
      </trkpt>
      <trkpt lat="42.12296" lon="19.06549">
        <ele>56.856809</ele>
        <time>2022-05-27T08:32:07.864Z</time>
      </trkpt>
      <trkpt lat="42.12294" lon="19.06536">
        <ele>57.151501</ele>
        <time>2022-05-27T08:32:13.877Z</time>
      </trkpt>
      <trkpt lat="42.12292" lon="19.06522">
        <ele>57.766426</ele>
        <time>2022-05-27T08:32:18.882Z</time>
      </trkpt>
      <trkpt lat="42.1229" lon="19.06508">
        <ele>58.83757</ele>
        <time>2022-05-27T08:32:24.868Z</time>
      </trkpt>
      <trkpt lat="42.12287" lon="19.06494">
        <ele>59.884064</ele>
        <time>2022-05-27T08:32:29.878Z</time>
      </trkpt>
      <trkpt lat="42.12286" lon="19.06481">
        <ele>60.845387</ele>
        <time>2022-05-27T08:32:35.867Z</time>
      </trkpt>
      <trkpt lat="42.12286" lon="19.06467">
        <ele>61.869234</ele>
        <time>2022-05-27T08:32:41.870Z</time>
      </trkpt>
      <trkpt lat="42.12287" lon="19.06452">
        <ele>62.899658</ele>
        <time>2022-05-27T08:32:47.876Z</time>
      </trkpt>
      <trkpt lat="42.1229" lon="19.0644">
        <ele>63.82612</ele>
        <time>2022-05-27T08:32:53.880Z</time>
      </trkpt>
      <trkpt lat="42.12293" lon="19.06428">
        <ele>64.738824</ele>
        <time>2022-05-27T08:33:00.877Z</time>
      </trkpt>
      <trkpt lat="42.12297" lon="19.06416">
        <ele>65.67956</ele>
        <time>2022-05-27T08:33:07.858Z</time>
      </trkpt>
      <trkpt lat="42.12303" lon="19.06405">
        <ele>66.635236</ele>
        <time>2022-05-27T08:33:12.881Z</time>
      </trkpt>
      <trkpt lat="42.12309" lon="19.06396">
        <ele>67.552997</ele>
        <time>2022-05-27T08:33:16.866Z</time>
      </trkpt>
      <trkpt lat="42.12316" lon="19.06387">
        <ele>68.469223</ele>
        <time>2022-05-27T08:33:21.866Z</time>
      </trkpt>
      <trkpt lat="42.12324" lon="19.0638">
        <ele>69.400203</ele>
        <time>2022-05-27T08:33:27.855Z</time>
      </trkpt>
      <trkpt lat="42.12333" lon="19.06373">
        <ele>70.392672</ele>
        <time>2022-05-27T08:33:33.863Z</time>
      </trkpt>
      <trkpt lat="42.12342" lon="19.06368">
        <ele>71.368607</ele>
        <time>2022-05-27T08:33:38.863Z</time>
      </trkpt>
      <trkpt lat="42.12351" lon="19.06364">
        <ele>72.318494</ele>
        <time>2022-05-27T08:33:43.861Z</time>
      </trkpt>
      <trkpt lat="42.12361" lon="19.06362">
        <ele>73.263761</ele>
        <time>2022-05-27T08:33:48.870Z</time>
      </trkpt>
      <trkpt lat="42.1237" lon="19.0636">
        <ele>74.192719</ele>
        <time>2022-05-27T08:33:53.865Z</time>
      </trkpt>
      <trkpt lat="42.1238" lon="19.0636">
        <ele>74.977084</ele>
        <time>2022-05-27T08:33:58.856Z</time>
      </trkpt>
      <trkpt lat="42.1239" lon="19.0636">
        <ele>75.504729</ele>
        <time>2022-05-27T08:34:03.876Z</time>
      </trkpt>
      <trkpt lat="42.124" lon="19.06362">
        <ele>76.076333</ele>
        <time>2022-05-27T08:34:09.883Z</time>
      </trkpt>
      <trkpt lat="42.1241" lon="19.06364">
        <ele>76.626288</ele>
        <time>2022-05-27T08:34:15.849Z</time>
      </trkpt>
      <trkpt lat="42.1242" lon="19.06367">
        <ele>77.170156</ele>
        <time>2022-05-27T08:34:21.864Z</time>
      </trkpt>
      <trkpt lat="42.12429" lon="19.06371">
        <ele>77.684771</ele>
        <time>2022-05-27T08:34:26.904Z</time>
      </trkpt>
      <trkpt lat="42.12439" lon="19.06376">
        <ele>78.218467</ele>
        <time>2022-05-27T08:34:31.874Z</time>
      </trkpt>
      <trkpt lat="42.12448" lon="19.06382">
        <ele>78.796761</ele>
        <time>2022-05-27T08:34:36.874Z</time>
      </trkpt>
      <trkpt lat="42.12457" lon="19.0639">
        <ele>79.327404</ele>
        <time>2022-05-27T08:34:41.864Z</time>
      </trkpt>
      <trkpt lat="42.12465" lon="19.06396">
        <ele>79.831665</ele>
        <time>2022-05-27T08:34:46.888Z</time>
      </trkpt>
      <trkpt lat="42.12472" lon="19.06404">
        <ele>80.314162</ele>
        <time>2022-05-27T08:34:51.884Z</time>
      </trkpt>
      <trkpt lat="42.1248" lon="19.06413">
        <ele>80.891379</ele>
        <time>2022-05-27T08:34:57.871Z</time>
      </trkpt>
      <trkpt lat="42.12489" lon="19.06421">
        <ele>81.451121</ele>
        <time>2022-05-27T08:35:02.888Z</time>
      </trkpt>
      <trkpt lat="42.12497" lon="19.06429">
        <ele>82.017744</ele>
        <time>2022-05-27T08:35:07.884Z</time>
      </trkpt>
      <trkpt lat="42.12505" lon="19.06438">
        <ele>82.57539</ele>
        <time>2022-05-27T08:35:13.847Z</time>
      </trkpt>
      <trkpt lat="42.12513" lon="19.06446">
        <ele>83.092051</ele>
        <time>2022-05-27T08:35:20.883Z</time>
      </trkpt>
      <trkpt lat="42.1252" lon="19.06453">
        <ele>83.580225</ele>
        <time>2022-05-27T08:35:26.879Z</time>
      </trkpt>
      <trkpt lat="42.12529" lon="19.0646">
        <ele>84.138269</ele>
        <time>2022-05-27T08:35:31.879Z</time>
      </trkpt>
      <trkpt lat="42.12538" lon="19.06467">
        <ele>84.411207</ele>
        <time>2022-05-27T08:35:36.876Z</time>
      </trkpt>
      <trkpt lat="42.12548" lon="19.06472">
        <ele>84.294286</ele>
        <time>2022-05-27T08:35:41.870Z</time>
      </trkpt>
      <trkpt lat="42.12557" lon="19.06477">
        <ele>84.184195</ele>
        <time>2022-05-27T08:35:46.866Z</time>
      </trkpt>
      <trkpt lat="42.12567" lon="19.06481">
        <ele>84.068499</ele>
        <time>2022-05-27T08:35:50.846Z</time>
      </trkpt>
      <trkpt lat="42.12576" lon="19.06485">
        <ele>83.967309</ele>
        <time>2022-05-27T08:35:53.924Z</time>
      </trkpt>
      <trkpt lat="42.12587" lon="19.06489">
        <ele>83.84174</ele>
        <time>2022-05-27T08:35:57.876Z</time>
      </trkpt>
      <trkpt lat="42.12597" lon="19.06491">
        <ele>83.72855</ele>
        <time>2022-05-27T08:36:01.858Z</time>
      </trkpt>
      <trkpt lat="42.12607" lon="19.06493">
        <ele>83.606272</ele>
        <time>2022-05-27T08:36:05.879Z</time>
      </trkpt>
      <trkpt lat="42.12618" lon="19.06495">
        <ele>83.485813</ele>
        <time>2022-05-27T08:36:09.876Z</time>
      </trkpt>
      <trkpt lat="42.12628" lon="19.06497">
        <ele>83.373411</ele>
        <time>2022-05-27T08:36:13.872Z</time>
      </trkpt>
      <trkpt lat="42.1264" lon="19.06499">
        <ele>83.241762</ele>
        <time>2022-05-27T08:36:17.926Z</time>
      </trkpt>
      <trkpt lat="42.12652" lon="19.06499">
        <ele>83.107706</ele>
        <time>2022-05-27T08:36:21.865Z</time>
      </trkpt>
      <trkpt lat="42.12664" lon="19.06499">
        <ele>82.971376</ele>
        <time>2022-05-27T08:36:25.884Z</time>
      </trkpt>
      <trkpt lat="42.12675" lon="19.06498">
        <ele>82.848391</ele>
        <time>2022-05-27T08:36:28.902Z</time>
      </trkpt>
      <trkpt lat="42.12686" lon="19.06498">
        <ele>82.723262</ele>
        <time>2022-05-27T08:36:31.881Z</time>
      </trkpt>
      <trkpt lat="42.12697" lon="19.06497">
        <ele>82.596332</ele>
        <time>2022-05-27T08:36:34.898Z</time>
      </trkpt>
      <trkpt lat="42.12709" lon="19.06495">
        <ele>82.464071</ele>
        <time>2022-05-27T08:36:37.864Z</time>
      </trkpt>
      <trkpt lat="42.12718" lon="19.06493">
        <ele>81.992483</ele>
        <time>2022-05-27T08:36:39.868Z</time>
      </trkpt>
      <trkpt lat="42.12729" lon="19.0649">
        <ele>81.401992</ele>
        <time>2022-05-27T08:36:41.953Z</time>
      </trkpt>
      <trkpt lat="42.12739" lon="19.06485">
        <ele>80.795272</ele>
        <time>2022-05-27T08:36:43.866Z</time>
      </trkpt>
      <trkpt lat="42.12749" lon="19.06479">
        <ele>80.164841</ele>
        <time>2022-05-27T08:36:45.917Z</time>
      </trkpt>
      <trkpt lat="42.1276" lon="19.06472">
        <ele>79.474601</ele>
        <time>2022-05-27T08:36:47.875Z</time>
      </trkpt>
      <trkpt lat="42.12771" lon="19.06464">
        <ele>78.788055</ele>
        <time>2022-05-27T08:36:49.873Z</time>
      </trkpt>
      <trkpt lat="42.12783" lon="19.06454">
        <ele>78.013626</ele>
        <time>2022-05-27T08:36:51.878Z</time>
      </trkpt>
      <trkpt lat="42.12795" lon="19.06445">
        <ele>77.215141</ele>
        <time>2022-05-27T08:36:53.941Z</time>
      </trkpt>
      <trkpt lat="42.12807" lon="19.06434">
        <ele>76.394626</ele>
        <time>2022-05-27T08:36:55.871Z</time>
      </trkpt>
      <trkpt lat="42.1282" lon="19.06423">
        <ele>75.567156</ele>
        <time>2022-05-27T08:36:57.871Z</time>
      </trkpt>
      <trkpt lat="42.12832" lon="19.06413">
        <ele>74.751032</ele>
        <time>2022-05-27T08:36:59.857Z</time>
      </trkpt>
      <trkpt lat="42.12844" lon="19.06403">
        <ele>73.969656</ele>
        <time>2022-05-27T08:37:01.878Z</time>
      </trkpt>
      <trkpt lat="42.12856" lon="19.06394">
        <ele>73.212771</ele>
        <time>2022-05-27T08:37:03.865Z</time>
      </trkpt>
      <trkpt lat="42.12868" lon="19.06386">
        <ele>72.459422</ele>
        <time>2022-05-27T08:37:05.882Z</time>
      </trkpt>
      <trkpt lat="42.12882" lon="19.06378">
        <ele>72.111503</ele>
        <time>2022-05-27T08:37:07.855Z</time>
      </trkpt>
      <trkpt lat="42.12895" lon="19.06372">
        <ele>71.827145</ele>
        <time>2022-05-27T08:37:09.866Z</time>
      </trkpt>
      <trkpt lat="42.12909" lon="19.06365">
        <ele>71.539156</ele>
        <time>2022-05-27T08:37:11.885Z</time>
      </trkpt>
      <trkpt lat="42.12923" lon="19.0636">
        <ele>71.249649</ele>
        <time>2022-05-27T08:37:13.910Z</time>
      </trkpt>
      <trkpt lat="42.12937" lon="19.06355">
        <ele>70.973563</ele>
        <time>2022-05-27T08:37:15.873Z</time>
      </trkpt>
      <trkpt lat="42.12951" lon="19.06351">
        <ele>70.691576</ele>
        <time>2022-05-27T08:37:17.864Z</time>
      </trkpt>
      <trkpt lat="42.12964" lon="19.06347">
        <ele>70.42213</ele>
        <time>2022-05-27T08:37:19.869Z</time>
      </trkpt>
      <trkpt lat="42.12978" lon="19.06344">
        <ele>70.161417</ele>
        <time>2022-05-27T08:37:21.869Z</time>
      </trkpt>
      <trkpt lat="42.12991" lon="19.06341">
        <ele>69.902399</ele>
        <time>2022-05-27T08:37:23.875Z</time>
      </trkpt>
      <trkpt lat="42.13002" lon="19.06339">
        <ele>69.668039</ele>
        <time>2022-05-27T08:37:25.877Z</time>
      </trkpt>
      <trkpt lat="42.13014" lon="19.06336">
        <ele>69.442663</ele>
        <time>2022-05-27T08:37:27.890Z</time>
      </trkpt>
      <trkpt lat="42.13025" lon="19.06334">
        <ele>69.219947</ele>
        <time>2022-05-27T08:37:29.881Z</time>
      </trkpt>
      <trkpt lat="42.13036" lon="19.06332">
        <ele>69.00605</ele>
        <time>2022-05-27T08:37:31.881Z</time>
      </trkpt>
      <trkpt lat="42.13046" lon="19.06331">
        <ele>68.86965</ele>
        <time>2022-05-27T08:37:33.908Z</time>
      </trkpt>
      <trkpt lat="42.13056" lon="19.06329">
        <ele>68.984114</ele>
        <time>2022-05-27T08:37:35.917Z</time>
      </trkpt>
      <trkpt lat="42.13067" lon="19.06327">
        <ele>69.109146</ele>
        <time>2022-05-27T08:37:37.874Z</time>
      </trkpt>
      <trkpt lat="42.13076" lon="19.06326">
        <ele>69.214297</ele>
        <time>2022-05-27T08:37:39.880Z</time>
      </trkpt>
      <trkpt lat="42.13088" lon="19.06324">
        <ele>69.36151</ele>
        <time>2022-05-27T08:37:42.917Z</time>
      </trkpt>
      <trkpt lat="42.13101" lon="19.06321">
        <ele>69.513431</ele>
        <time>2022-05-27T08:37:45.899Z</time>
      </trkpt>
      <trkpt lat="42.13111" lon="19.0632">
        <ele>69.62176</ele>
        <time>2022-05-27T08:37:47.897Z</time>
      </trkpt>
      <trkpt lat="42.1312" lon="19.06319">
        <ele>69.727781</ele>
        <time>2022-05-27T08:37:49.892Z</time>
      </trkpt>
      <trkpt lat="42.13132" lon="19.06318">
        <ele>69.872065</ele>
        <time>2022-05-27T08:37:52.908Z</time>
      </trkpt>
      <trkpt lat="42.13144" lon="19.06316">
        <ele>70.009668</ele>
        <time>2022-05-27T08:37:55.884Z</time>
      </trkpt>
      <trkpt lat="42.13157" lon="19.06314">
        <ele>70.158806</ele>
        <time>2022-05-27T08:37:58.873Z</time>
      </trkpt>
      <trkpt lat="42.1317" lon="19.06313">
        <ele>70.314869</ele>
        <time>2022-05-27T08:38:01.862Z</time>
      </trkpt>
      <trkpt lat="42.1318" lon="19.06312">
        <ele>70.422983</ele>
        <time>2022-05-27T08:38:03.910Z</time>
      </trkpt>
      <trkpt lat="42.13189" lon="19.06311">
        <ele>70.538165</ele>
        <time>2022-05-27T08:38:05.876Z</time>
      </trkpt>
      <trkpt lat="42.13199" lon="19.0631">
        <ele>70.647283</ele>
        <time>2022-05-27T08:38:07.962Z</time>
      </trkpt>
      <trkpt lat="42.13209" lon="19.06309">
        <ele>70.761076</ele>
        <time>2022-05-27T08:38:09.902Z</time>
      </trkpt>
      <trkpt lat="42.13222" lon="19.06308">
        <ele>70.916691</ele>
        <time>2022-05-27T08:38:12.875Z</time>
      </trkpt>
      <trkpt lat="42.13231" lon="19.06308">
        <ele>71.014185</ele>
        <time>2022-05-27T08:38:14.883Z</time>
      </trkpt>
      <trkpt lat="42.13242" lon="19.06308">
        <ele>71.123978</ele>
        <time>2022-05-27T08:38:16.859Z</time>
      </trkpt>
      <trkpt lat="42.13253" lon="19.06308">
        <ele>71.243077</ele>
        <time>2022-05-27T08:38:18.875Z</time>
      </trkpt>
      <trkpt lat="42.13265" lon="19.06309">
        <ele>71.365427</ele>
        <time>2022-05-27T08:38:20.874Z</time>
      </trkpt>
      <trkpt lat="42.13277" lon="19.0631">
        <ele>71.490227</ele>
        <time>2022-05-27T08:38:22.874Z</time>
      </trkpt>
      <trkpt lat="42.13289" lon="19.06313">
        <ele>71.610087</ele>
        <time>2022-05-27T08:38:24.876Z</time>
      </trkpt>
      <trkpt lat="42.13299" lon="19.06316">
        <ele>71.722959</ele>
        <time>2022-05-27T08:38:26.904Z</time>
      </trkpt>
      <trkpt lat="42.13309" lon="19.06318">
        <ele>71.826104</ele>
        <time>2022-05-27T08:38:28.869Z</time>
      </trkpt>
      <trkpt lat="42.13319" lon="19.06321">
        <ele>71.928992</ele>
        <time>2022-05-27T08:38:30.876Z</time>
      </trkpt>
      <trkpt lat="42.13328" lon="19.06324">
        <ele>72.027009</ele>
        <time>2022-05-27T08:38:32.834Z</time>
      </trkpt>
      <trkpt lat="42.1334" lon="19.06328">
        <ele>72.155394</ele>
        <time>2022-05-27T08:38:35.876Z</time>
      </trkpt>
      <trkpt lat="42.13351" lon="19.06332">
        <ele>72.269595</ele>
        <time>2022-05-27T08:38:38.840Z</time>
      </trkpt>
      <trkpt lat="42.13361" lon="19.06336">
        <ele>72.383012</ele>
        <time>2022-05-27T08:38:41.861Z</time>
      </trkpt>
      <trkpt lat="42.13372" lon="19.0634">
        <ele>72.500618</ele>
        <time>2022-05-27T08:38:45.882Z</time>
      </trkpt>
      <trkpt lat="42.13381" lon="19.06344">
        <ele>72.600486</ele>
        <time>2022-05-27T08:38:49.871Z</time>
      </trkpt>
      <trkpt lat="42.13392" lon="19.06349">
        <ele>72.714814</ele>
        <time>2022-05-27T08:38:53.913Z</time>
      </trkpt>
      <trkpt lat="42.13402" lon="19.06353">
        <ele>72.703052</ele>
        <time>2022-05-27T08:38:56.862Z</time>
      </trkpt>
      <trkpt lat="42.13415" lon="19.06358">
        <ele>72.38081</ele>
        <time>2022-05-27T08:38:59.873Z</time>
      </trkpt>
      <trkpt lat="42.13424" lon="19.06363">
        <ele>72.146412</ele>
        <time>2022-05-27T08:39:01.916Z</time>
      </trkpt>
      <trkpt lat="42.13434" lon="19.06362">
        <ele>71.885676</ele>
        <time>2022-05-27T08:39:08.902Z</time>
      </trkpt>
      <trkpt lat="42.13454" lon="19.06371">
        <ele>71.37395</ele>
        <time>2022-05-27T08:40:29.882Z</time>
      </trkpt>
      <trkpt lat="42.13465" lon="19.06374">
        <ele>71.104217</ele>
        <time>2022-05-27T08:40:32.861Z</time>
      </trkpt>
      <trkpt lat="42.13476" lon="19.06377">
        <ele>70.83267</ele>
        <time>2022-05-27T08:40:35.874Z</time>
      </trkpt>
      <trkpt lat="42.13486" lon="19.06379">
        <ele>70.570363</ele>
        <time>2022-05-27T08:40:38.865Z</time>
      </trkpt>
      <trkpt lat="42.13498" lon="19.0638">
        <ele>70.287075</ele>
        <time>2022-05-27T08:40:41.874Z</time>
      </trkpt>
      <trkpt lat="42.1351" lon="19.06379">
        <ele>69.991691</ele>
        <time>2022-05-27T08:40:44.863Z</time>
      </trkpt>
      <trkpt lat="42.13522" lon="19.06378">
        <ele>69.682728</ele>
        <time>2022-05-27T08:40:47.901Z</time>
      </trkpt>
      <trkpt lat="42.13535" lon="19.06374">
        <ele>69.360489</ele>
        <time>2022-05-27T08:40:50.882Z</time>
      </trkpt>
      <trkpt lat="42.13547" lon="19.06368">
        <ele>69.047889</ele>
        <time>2022-05-27T08:40:53.864Z</time>
      </trkpt>
      <trkpt lat="42.13558" lon="19.06361">
        <ele>68.74577</ele>
        <time>2022-05-27T08:40:56.864Z</time>
      </trkpt>
      <trkpt lat="42.13569" lon="19.06354">
        <ele>68.444002</ele>
        <time>2022-05-27T08:40:59.863Z</time>
      </trkpt>
      <trkpt lat="42.1358" lon="19.06345">
        <ele>68.106255</ele>
        <time>2022-05-27T08:41:02.868Z</time>
      </trkpt>
      <trkpt lat="42.13587" lon="19.06338">
        <ele>67.85887</ele>
        <time>2022-05-27T08:41:04.869Z</time>
      </trkpt>
      <trkpt lat="42.13597" lon="19.06327">
        <ele>67.506862</ele>
        <time>2022-05-27T08:41:07.867Z</time>
      </trkpt>
      <trkpt lat="42.13608" lon="19.06315">
        <ele>67.141529</ele>
        <time>2022-05-27T08:41:10.869Z</time>
      </trkpt>
      <trkpt lat="42.13617" lon="19.06302">
        <ele>66.775205</ele>
        <time>2022-05-27T08:41:13.872Z</time>
      </trkpt>
      <trkpt lat="42.13624" lon="19.06292">
        <ele>66.494479</ele>
        <time>2022-05-27T08:41:15.865Z</time>
      </trkpt>
      <trkpt lat="42.1363" lon="19.06283">
        <ele>66.24337</ele>
        <time>2022-05-27T08:41:17.886Z</time>
      </trkpt>
      <trkpt lat="42.13639" lon="19.06268">
        <ele>65.869897</ele>
        <time>2022-05-27T08:41:20.875Z</time>
      </trkpt>
      <trkpt lat="42.13645" lon="19.06258">
        <ele>65.614919</ele>
        <time>2022-05-27T08:41:22.868Z</time>
      </trkpt>
      <trkpt lat="42.13651" lon="19.06248">
        <ele>65.342336</ele>
        <time>2022-05-27T08:41:24.876Z</time>
      </trkpt>
      <trkpt lat="42.13656" lon="19.06236">
        <ele>65.063077</ele>
        <time>2022-05-27T08:41:26.870Z</time>
      </trkpt>
      <trkpt lat="42.13662" lon="19.06226">
        <ele>64.804971</ele>
        <time>2022-05-27T08:41:28.873Z</time>
      </trkpt>
      <trkpt lat="42.13667" lon="19.06215">
        <ele>64.550638</ele>
        <time>2022-05-27T08:41:30.862Z</time>
      </trkpt>
      <trkpt lat="42.13672" lon="19.06203">
        <ele>64.255948</ele>
        <time>2022-05-27T08:41:32.877Z</time>
      </trkpt>
      <trkpt lat="42.13677" lon="19.0619">
        <ele>63.970843</ele>
        <time>2022-05-27T08:41:34.879Z</time>
      </trkpt>
      <trkpt lat="42.13683" lon="19.06175">
        <ele>63.620713</ele>
        <time>2022-05-27T08:41:37.879Z</time>
      </trkpt>
      <trkpt lat="42.13689" lon="19.0616">
        <ele>63.342826</ele>
        <time>2022-05-27T08:41:39.869Z</time>
      </trkpt>
      <trkpt lat="42.13693" lon="19.06145">
        <ele>63.133097</ele>
        <time>2022-05-27T08:41:41.886Z</time>
      </trkpt>
      <trkpt lat="42.13698" lon="19.06131">
        <ele>62.924616</ele>
        <time>2022-05-27T08:41:43.863Z</time>
      </trkpt>
      <trkpt lat="42.13701" lon="19.06117">
        <ele>62.716408</ele>
        <time>2022-05-27T08:41:45.861Z</time>
      </trkpt>
      <trkpt lat="42.13705" lon="19.06104">
        <ele>62.534239</ele>
        <time>2022-05-27T08:41:47.998Z</time>
      </trkpt>
      <trkpt lat="42.13707" lon="19.06092">
        <ele>62.363644</ele>
        <time>2022-05-27T08:41:49.875Z</time>
      </trkpt>
      <trkpt lat="42.13709" lon="19.0608">
        <ele>62.193996</ele>
        <time>2022-05-27T08:41:51.867Z</time>
      </trkpt>
      <trkpt lat="42.13712" lon="19.06067">
        <ele>62.008924</ele>
        <time>2022-05-27T08:41:53.879Z</time>
      </trkpt>
      <trkpt lat="42.13714" lon="19.06054">
        <ele>61.825177</ele>
        <time>2022-05-27T08:41:55.873Z</time>
      </trkpt>
      <trkpt lat="42.13716" lon="19.0604">
        <ele>61.634551</ele>
        <time>2022-05-27T08:41:57.880Z</time>
      </trkpt>
      <trkpt lat="42.13717" lon="19.06027">
        <ele>61.453703</ele>
        <time>2022-05-27T08:41:59.885Z</time>
      </trkpt>
      <trkpt lat="42.13719" lon="19.06011">
        <ele>61.240703</ele>
        <time>2022-05-27T08:42:01.905Z</time>
      </trkpt>
      <trkpt lat="42.13721" lon="19.05995">
        <ele>61.020088</ele>
        <time>2022-05-27T08:42:03.881Z</time>
      </trkpt>
      <trkpt lat="42.13721" lon="19.0598">
        <ele>60.817428</ele>
        <time>2022-05-27T08:42:05.875Z</time>
      </trkpt>
      <trkpt lat="42.13722" lon="19.05965">
        <ele>60.610983</ele>
        <time>2022-05-27T08:42:07.880Z</time>
      </trkpt>
      <trkpt lat="42.13721" lon="19.05951">
        <ele>60.418119</ele>
        <time>2022-05-27T08:42:09.950Z</time>
      </trkpt>
      <trkpt lat="42.13721" lon="19.05937">
        <ele>60.227759</ele>
        <time>2022-05-27T08:42:11.863Z</time>
      </trkpt>
      <trkpt lat="42.13719" lon="19.05923">
        <ele>60.006638</ele>
        <time>2022-05-27T08:42:13.865Z</time>
      </trkpt>
      <trkpt lat="42.13718" lon="19.05905">
        <ele>59.725042</ele>
        <time>2022-05-27T08:42:15.876Z</time>
      </trkpt>
      <trkpt lat="42.13716" lon="19.05892">
        <ele>59.511247</ele>
        <time>2022-05-27T08:42:17.869Z</time>
      </trkpt>
      <trkpt lat="42.13713" lon="19.05879">
        <ele>59.282303</ele>
        <time>2022-05-27T08:42:19.872Z</time>
      </trkpt>
      <trkpt lat="42.13709" lon="19.05865">
        <ele>59.040856</ele>
        <time>2022-05-27T08:42:21.877Z</time>
      </trkpt>
      <trkpt lat="42.13705" lon="19.05851">
        <ele>58.804843</ele>
        <time>2022-05-27T08:42:23.923Z</time>
      </trkpt>
      <trkpt lat="42.13702" lon="19.05838">
        <ele>58.583174</ele>
        <time>2022-05-27T08:42:25.926Z</time>
      </trkpt>
      <trkpt lat="42.13698" lon="19.05825">
        <ele>58.362285</ele>
        <time>2022-05-27T08:42:27.866Z</time>
      </trkpt>
      <trkpt lat="42.13695" lon="19.05812">
        <ele>58.139887</ele>
        <time>2022-05-27T08:42:29.892Z</time>
      </trkpt>
      <trkpt lat="42.13691" lon="19.05798">
        <ele>57.896695</ele>
        <time>2022-05-27T08:42:31.862Z</time>
      </trkpt>
      <trkpt lat="42.13688" lon="19.05782">
        <ele>57.626723</ele>
        <time>2022-05-27T08:42:33.864Z</time>
      </trkpt>
      <trkpt lat="42.13686" lon="19.05765">
        <ele>57.361732</ele>
        <time>2022-05-27T08:42:35.865Z</time>
      </trkpt>
      <trkpt lat="42.13685" lon="19.05749">
        <ele>57.08683</ele>
        <time>2022-05-27T08:42:37.867Z</time>
      </trkpt>
      <trkpt lat="42.13684" lon="19.05731">
        <ele>56.807272</ele>
        <time>2022-05-27T08:42:39.878Z</time>
      </trkpt>
      <trkpt lat="42.13684" lon="19.05714">
        <ele>56.524902</ele>
        <time>2022-05-27T08:42:41.853Z</time>
      </trkpt>
      <trkpt lat="42.13684" lon="19.05696">
        <ele>56.235628</ele>
        <time>2022-05-27T08:42:43.865Z</time>
      </trkpt>
      <trkpt lat="42.13685" lon="19.05679">
        <ele>55.741392</ele>
        <time>2022-05-27T08:42:45.872Z</time>
      </trkpt>
      <trkpt lat="42.13687" lon="19.05661">
        <ele>55.242172</ele>
        <time>2022-05-27T08:42:47.861Z</time>
      </trkpt>
      <trkpt lat="42.13689" lon="19.05643">
        <ele>54.740923</ele>
        <time>2022-05-27T08:42:49.908Z</time>
      </trkpt>
      <trkpt lat="42.13691" lon="19.05625">
        <ele>54.229633</ele>
        <time>2022-05-27T08:42:51.866Z</time>
      </trkpt>
      <trkpt lat="42.13694" lon="19.05607">
        <ele>53.721786</ele>
        <time>2022-05-27T08:42:53.895Z</time>
      </trkpt>
      <trkpt lat="42.13697" lon="19.05591">
        <ele>53.250514</ele>
        <time>2022-05-27T08:42:55.882Z</time>
      </trkpt>
      <trkpt lat="42.137" lon="19.05573">
        <ele>52.753163</ele>
        <time>2022-05-27T08:42:57.879Z</time>
      </trkpt>
      <trkpt lat="42.13704" lon="19.05556">
        <ele>52.240118</ele>
        <time>2022-05-27T08:42:59.848Z</time>
      </trkpt>
      <trkpt lat="42.13708" lon="19.05537">
        <ele>51.688578</ele>
        <time>2022-05-27T08:43:01.882Z</time>
      </trkpt>
      <trkpt lat="42.13713" lon="19.05517">
        <ele>51.112399</ele>
        <time>2022-05-27T08:43:03.907Z</time>
      </trkpt>
      <trkpt lat="42.13718" lon="19.05499">
        <ele>50.592831</ele>
        <time>2022-05-27T08:43:05.920Z</time>
      </trkpt>
      <trkpt lat="42.13722" lon="19.05482">
        <ele>50.066803</ele>
        <time>2022-05-27T08:43:07.906Z</time>
      </trkpt>
      <trkpt lat="42.13728" lon="19.05462">
        <ele>49.506034</ele>
        <time>2022-05-27T08:43:09.905Z</time>
      </trkpt>
      <trkpt lat="42.13734" lon="19.05444">
        <ele>49.496298</ele>
        <time>2022-05-27T08:43:11.850Z</time>
      </trkpt>
      <trkpt lat="42.13741" lon="19.05426">
        <ele>49.486433</ele>
        <time>2022-05-27T08:43:13.886Z</time>
      </trkpt>
      <trkpt lat="42.13749" lon="19.05408">
        <ele>49.476202</ele>
        <time>2022-05-27T08:43:15.906Z</time>
      </trkpt>
      <trkpt lat="42.13757" lon="19.05388">
        <ele>49.465283</ele>
        <time>2022-05-27T08:43:17.888Z</time>
      </trkpt>
      <trkpt lat="42.13761" lon="19.05377">
        <ele>49.459372</ele>
        <time>2022-05-27T08:43:18.881Z</time>
      </trkpt>
      <trkpt lat="42.1377" lon="19.05358">
        <ele>49.448348</ele>
        <time>2022-05-27T08:43:20.861Z</time>
      </trkpt>
      <trkpt lat="42.13779" lon="19.05339">
        <ele>49.437496</ele>
        <time>2022-05-27T08:43:22.871Z</time>
      </trkpt>
      <trkpt lat="42.13787" lon="19.05321">
        <ele>49.427146</ele>
        <time>2022-05-27T08:43:24.867Z</time>
      </trkpt>
      <trkpt lat="42.13795" lon="19.05303">
        <ele>49.417283</ele>
        <time>2022-05-27T08:43:26.912Z</time>
      </trkpt>
      <trkpt lat="42.13802" lon="19.05287">
        <ele>49.408037</ele>
        <time>2022-05-27T08:43:28.879Z</time>
      </trkpt>
      <trkpt lat="42.13807" lon="19.05272">
        <ele>49.39991</ele>
        <time>2022-05-27T08:43:30.875Z</time>
      </trkpt>
      <trkpt lat="42.13813" lon="19.05258">
        <ele>49.392291</ele>
        <time>2022-05-27T08:43:32.854Z</time>
      </trkpt>
      <trkpt lat="42.13817" lon="19.05244">
        <ele>49.49043</ele>
        <time>2022-05-27T08:43:34.880Z</time>
      </trkpt>
      <trkpt lat="42.13821" lon="19.05231">
        <ele>49.661138</ele>
        <time>2022-05-27T08:43:36.868Z</time>
      </trkpt>
      <trkpt lat="42.13825" lon="19.05219">
        <ele>49.828676</ele>
        <time>2022-05-27T08:43:38.873Z</time>
      </trkpt>
      <trkpt lat="42.13829" lon="19.05207">
        <ele>49.987305</ele>
        <time>2022-05-27T08:43:40.859Z</time>
      </trkpt>
      <trkpt lat="42.13832" lon="19.05195">
        <ele>50.145872</ele>
        <time>2022-05-27T08:43:42.869Z</time>
      </trkpt>
      <trkpt lat="42.13835" lon="19.05182">
        <ele>50.318009</ele>
        <time>2022-05-27T08:43:44.845Z</time>
      </trkpt>
      <trkpt lat="42.1384" lon="19.05165">
        <ele>50.547337</ele>
        <time>2022-05-27T08:43:47.856Z</time>
      </trkpt>
      <trkpt lat="42.13843" lon="19.05152">
        <ele>50.72772</ele>
        <time>2022-05-27T08:43:49.872Z</time>
      </trkpt>
      <trkpt lat="42.13847" lon="19.05138">
        <ele>50.908724</ele>
        <time>2022-05-27T08:43:51.861Z</time>
      </trkpt>
      <trkpt lat="42.13851" lon="19.05126">
        <ele>51.081056</ele>
        <time>2022-05-27T08:43:53.857Z</time>
      </trkpt>
      <trkpt lat="42.13855" lon="19.05113">
        <ele>51.247627</ele>
        <time>2022-05-27T08:43:55.882Z</time>
      </trkpt>
      <trkpt lat="42.1386" lon="19.05101">
        <ele>51.419713</ele>
        <time>2022-05-27T08:43:57.886Z</time>
      </trkpt>
      <trkpt lat="42.13866" lon="19.05087">
        <ele>51.62799</ele>
        <time>2022-05-27T08:44:00.869Z</time>
      </trkpt>
      <trkpt lat="42.13872" lon="19.05075">
        <ele>51.805818</ele>
        <time>2022-05-27T08:44:03.882Z</time>
      </trkpt>
      <trkpt lat="42.13878" lon="19.05064">
        <ele>51.986678</ele>
        <time>2022-05-27T08:44:06.879Z</time>
      </trkpt>
      <trkpt lat="42.13883" lon="19.05054">
        <ele>52.139268</ele>
        <time>2022-05-27T08:44:09.858Z</time>
      </trkpt>
      <trkpt lat="42.13891" lon="19.05042">
        <ele>52.332774</ele>
        <time>2022-05-27T08:44:13.882Z</time>
      </trkpt>
      <trkpt lat="42.13898" lon="19.05032">
        <ele>52.550922</ele>
        <time>2022-05-27T08:44:16.884Z</time>
      </trkpt>
      <trkpt lat="42.13906" lon="19.05021">
        <ele>52.859048</ele>
        <time>2022-05-27T08:44:19.877Z</time>
      </trkpt>
      <trkpt lat="42.13914" lon="19.05008">
        <ele>53.209924</ele>
        <time>2022-05-27T08:44:22.876Z</time>
      </trkpt>
      <trkpt lat="42.13923" lon="19.04998">
        <ele>53.527798</ele>
        <time>2022-05-27T08:44:25.901Z</time>
      </trkpt>
      <trkpt lat="42.13931" lon="19.04987">
        <ele>53.834143</ele>
        <time>2022-05-27T08:44:28.878Z</time>
      </trkpt>
      <trkpt lat="42.13938" lon="19.04978">
        <ele>54.103318</ele>
        <time>2022-05-27T08:44:31.876Z</time>
      </trkpt>
      <trkpt lat="42.13945" lon="19.0497">
        <ele>54.353402</ele>
        <time>2022-05-27T08:44:34.869Z</time>
      </trkpt>
      <trkpt lat="42.13952" lon="19.04962">
        <ele>54.612679</ele>
        <time>2022-05-27T08:44:37.879Z</time>
      </trkpt>
      <trkpt lat="42.13961" lon="19.04954">
        <ele>54.907416</ele>
        <time>2022-05-27T08:44:40.924Z</time>
      </trkpt>
      <trkpt lat="42.13971" lon="19.04945">
        <ele>55.224765</ele>
        <time>2022-05-27T08:44:44.884Z</time>
      </trkpt>
      <trkpt lat="42.13981" lon="19.04938">
        <ele>55.526989</ele>
        <time>2022-05-27T08:44:48.900Z</time>
      </trkpt>
      <trkpt lat="42.13991" lon="19.04931">
        <ele>55.833051</ele>
        <time>2022-05-27T08:44:52.870Z</time>
      </trkpt>
      <trkpt lat="42.14001" lon="19.04924">
        <ele>56.140132</ele>
        <time>2022-05-27T08:44:55.866Z</time>
      </trkpt>
      <trkpt lat="42.14009" lon="19.04919">
        <ele>56.396995</ele>
        <time>2022-05-27T08:44:58.875Z</time>
      </trkpt>
      <trkpt lat="42.1402" lon="19.04912">
        <ele>56.71369</ele>
        <time>2022-05-27T08:45:02.885Z</time>
      </trkpt>
      <trkpt lat="42.1403" lon="19.04904">
        <ele>57.039011</ele>
        <time>2022-05-27T08:45:06.863Z</time>
      </trkpt>
      <trkpt lat="42.1404" lon="19.04897">
        <ele>57.336399</ele>
        <time>2022-05-27T08:45:10.884Z</time>
      </trkpt>
      <trkpt lat="42.14049" lon="19.0489">
        <ele>57.89547</ele>
        <time>2022-05-27T08:45:14.884Z</time>
      </trkpt>
      <trkpt lat="42.14059" lon="19.04882">
        <ele>58.495903</ele>
        <time>2022-05-27T08:45:18.893Z</time>
      </trkpt>
      <trkpt lat="42.14068" lon="19.04873">
        <ele>59.087273</ele>
        <time>2022-05-27T08:45:22.877Z</time>
      </trkpt>
      <trkpt lat="42.14076" lon="19.04866">
        <ele>59.583754</ele>
        <time>2022-05-27T08:45:25.875Z</time>
      </trkpt>
      <trkpt lat="42.14084" lon="19.04857">
        <ele>60.128526</ele>
        <time>2022-05-27T08:45:29.886Z</time>
      </trkpt>
      <trkpt lat="42.14091" lon="19.04846">
        <ele>60.691515</ele>
        <time>2022-05-27T08:45:33.857Z</time>
      </trkpt>
      <trkpt lat="42.14098" lon="19.04837">
        <ele>61.161337</ele>
        <time>2022-05-27T08:45:36.867Z</time>
      </trkpt>
      <trkpt lat="42.14105" lon="19.04828">
        <ele>61.660076</ele>
        <time>2022-05-27T08:45:39.863Z</time>
      </trkpt>
      <trkpt lat="42.14111" lon="19.0482">
        <ele>62.133807</ele>
        <time>2022-05-27T08:45:42.876Z</time>
      </trkpt>
      <trkpt lat="42.14118" lon="19.04811">
        <ele>62.616998</ele>
        <time>2022-05-27T08:45:45.875Z</time>
      </trkpt>
      <trkpt lat="42.14121" lon="19.04797">
        <ele>63.17789</ele>
        <time>2022-05-27T08:45:50.870Z</time>
      </trkpt>
      <trkpt lat="42.14115" lon="19.04786">
        <ele>63.72388</ele>
        <time>2022-05-27T08:45:53.875Z</time>
      </trkpt>
      <trkpt lat="42.1411" lon="19.04769">
        <ele>64.397155</ele>
        <time>2022-05-27T08:45:56.885Z</time>
      </trkpt>
      <trkpt lat="42.14105" lon="19.04756">
        <ele>64.97989</ele>
        <time>2022-05-27T08:45:58.855Z</time>
      </trkpt>
      <trkpt lat="42.14112" lon="19.04738">
        <ele>65.739076</ele>
        <time>2022-05-27T08:46:03.885Z</time>
      </trkpt>
      <trkpt lat="42.14119" lon="19.04726">
        <ele>66.352216</ele>
        <time>2022-05-27T08:46:05.933Z</time>
      </trkpt>
      <trkpt lat="42.14127" lon="19.04717">
        <ele>66.801529</ele>
        <time>2022-05-27T08:46:08.877Z</time>
      </trkpt>
      <trkpt lat="42.14134" lon="19.04708">
        <ele>67.07668</ele>
        <time>2022-05-27T08:46:12.894Z</time>
      </trkpt>
      <trkpt lat="42.14142" lon="19.04698">
        <ele>67.391252</ele>
        <time>2022-05-27T08:46:17.861Z</time>
      </trkpt>
      <trkpt lat="42.14149" lon="19.04689">
        <ele>67.665199</ele>
        <time>2022-05-27T08:46:21.871Z</time>
      </trkpt>
      <trkpt lat="42.14156" lon="19.04679">
        <ele>67.964052</ele>
        <time>2022-05-27T08:46:25.884Z</time>
      </trkpt>
      <trkpt lat="42.14163" lon="19.04669">
        <ele>68.2415</ele>
        <time>2022-05-27T08:46:29.902Z</time>
      </trkpt>
      <trkpt lat="42.1417" lon="19.04661">
        <ele>68.511069</ele>
        <time>2022-05-27T08:46:33.874Z</time>
      </trkpt>
      <trkpt lat="42.14177" lon="19.04651">
        <ele>68.785502</ele>
        <time>2022-05-27T08:46:37.864Z</time>
      </trkpt>
      <trkpt lat="42.14184" lon="19.04642">
        <ele>69.055071</ele>
        <time>2022-05-27T08:46:41.880Z</time>
      </trkpt>
      <trkpt lat="42.14191" lon="19.04633">
        <ele>69.356241</ele>
        <time>2022-05-27T08:46:45.878Z</time>
      </trkpt>
      <trkpt lat="42.142" lon="19.04622">
        <ele>69.690465</ele>
        <time>2022-05-27T08:46:50.860Z</time>
      </trkpt>
      <trkpt lat="42.14208" lon="19.04612">
        <ele>69.996577</ele>
        <time>2022-05-27T08:46:55.942Z</time>
      </trkpt>
      <trkpt lat="42.14216" lon="19.04602">
        <ele>70.309714</ele>
        <time>2022-05-27T08:47:00.872Z</time>
      </trkpt>
      <trkpt lat="42.14223" lon="19.04592">
        <ele>70.600609</ele>
        <time>2022-05-27T08:47:07.851Z</time>
      </trkpt>
      <trkpt lat="42.14218" lon="19.0458">
        <ele>70.900446</ele>
        <time>2022-05-27T08:47:17.878Z</time>
      </trkpt>
      <trkpt lat="42.14211" lon="19.04568">
        <ele>71.218658</ele>
        <time>2022-05-27T08:47:23.865Z</time>
      </trkpt>
      <trkpt lat="42.14202" lon="19.04555">
        <ele>71.591464</ele>
        <time>2022-05-27T08:47:26.866Z</time>
      </trkpt>
      <trkpt lat="42.14196" lon="19.04544">
        <ele>71.776519</ele>
        <time>2022-05-27T08:47:28.874Z</time>
      </trkpt>
      <trkpt lat="42.1419" lon="19.04532">
        <ele>71.5226</ele>
        <time>2022-05-27T08:47:30.856Z</time>
      </trkpt>
      <trkpt lat="42.14183" lon="19.04517">
        <ele>71.202761</ele>
        <time>2022-05-27T08:47:32.867Z</time>
      </trkpt>
      <trkpt lat="42.14188" lon="19.04504">
        <ele>70.956724</ele>
        <time>2022-05-27T08:47:36.877Z</time>
      </trkpt>
      <trkpt lat="42.14195" lon="19.04497">
        <ele>70.739998</ele>
        <time>2022-05-27T08:47:38.865Z</time>
      </trkpt>
      <trkpt lat="42.14204" lon="19.04486">
        <ele>70.465645</ele>
        <time>2022-05-27T08:47:41.932Z</time>
      </trkpt>
      <trkpt lat="42.1421" lon="19.04476">
        <ele>70.231319</ele>
        <time>2022-05-27T08:47:44.886Z</time>
      </trkpt>
      <trkpt lat="42.14218" lon="19.04466">
        <ele>69.981296</ele>
        <time>2022-05-27T08:47:47.893Z</time>
      </trkpt>
      <trkpt lat="42.14225" lon="19.04454">
        <ele>69.71463</ele>
        <time>2022-05-27T08:47:50.873Z</time>
      </trkpt>
      <trkpt lat="42.14232" lon="19.04444">
        <ele>69.467821</ele>
        <time>2022-05-27T08:47:53.884Z</time>
      </trkpt>
      <trkpt lat="42.1424" lon="19.04432">
        <ele>69.195402</ele>
        <time>2022-05-27T08:47:56.875Z</time>
      </trkpt>
      <trkpt lat="42.14247" lon="19.04422">
        <ele>68.949875</ele>
        <time>2022-05-27T08:47:59.876Z</time>
      </trkpt>
      <trkpt lat="42.14254" lon="19.04413">
        <ele>68.723085</ele>
        <time>2022-05-27T08:48:02.881Z</time>
      </trkpt>
      <trkpt lat="42.14262" lon="19.04403">
        <ele>68.468031</ele>
        <time>2022-05-27T08:48:06.872Z</time>
      </trkpt>
      <trkpt lat="42.1427" lon="19.04393">
        <ele>68.214115</ele>
        <time>2022-05-27T08:48:10.880Z</time>
      </trkpt>
      <trkpt lat="42.14276" lon="19.04382">
        <ele>67.963082</ele>
        <time>2022-05-27T08:48:14.888Z</time>
      </trkpt>
      <trkpt lat="42.14281" lon="19.04371">
        <ele>67.738064</ele>
        <time>2022-05-27T08:48:18.868Z</time>
      </trkpt>
      <trkpt lat="42.14276" lon="19.0436">
        <ele>67.507701</ele>
        <time>2022-05-27T08:48:22.874Z</time>
      </trkpt>
      <trkpt lat="42.14267" lon="19.04346">
        <ele>67.19858</ele>
        <time>2022-05-27T08:48:25.868Z</time>
      </trkpt>
      <trkpt lat="42.14259" lon="19.04335">
        <ele>66.946017</ele>
        <time>2022-05-27T08:48:27.944Z</time>
      </trkpt>
      <trkpt lat="42.14251" lon="19.04324">
        <ele>66.682282</ele>
        <time>2022-05-27T08:48:29.881Z</time>
      </trkpt>
      <trkpt lat="42.14244" lon="19.04313">
        <ele>66.434766</ele>
        <time>2022-05-27T08:48:31.860Z</time>
      </trkpt>
      <trkpt lat="42.14238" lon="19.04303">
        <ele>66.223434</ele>
        <time>2022-05-27T08:48:33.905Z</time>
      </trkpt>
      <trkpt lat="42.14231" lon="19.04292">
        <ele>65.982745</ele>
        <time>2022-05-27T08:48:35.866Z</time>
      </trkpt>
      <trkpt lat="42.14226" lon="19.04281">
        <ele>65.763706</ele>
        <time>2022-05-27T08:48:37.871Z</time>
      </trkpt>
      <trkpt lat="42.14225" lon="19.04264">
        <ele>65.47921</ele>
        <time>2022-05-27T08:48:40.867Z</time>
      </trkpt>
      <trkpt lat="42.1423" lon="19.04246">
        <ele>65.149305</ele>
        <time>2022-05-27T08:48:42.857Z</time>
      </trkpt>
      <trkpt lat="42.14234" lon="19.04231">
        <ele>64.882718</ele>
        <time>2022-05-27T08:48:44.982Z</time>
      </trkpt>
      <trkpt lat="42.14238" lon="19.04216">
        <ele>64.621241</ele>
        <time>2022-05-27T08:48:46.871Z</time>
      </trkpt>
      <trkpt lat="42.14245" lon="19.04199">
        <ele>64.289514</ele>
        <time>2022-05-27T08:48:49.874Z</time>
      </trkpt>
      <trkpt lat="42.14248" lon="19.04186">
        <ele>64.060346</ele>
        <time>2022-05-27T08:48:51.883Z</time>
      </trkpt>
      <trkpt lat="42.14252" lon="19.04174">
        <ele>63.839479</ele>
        <time>2022-05-27T08:48:53.867Z</time>
      </trkpt>
      <trkpt lat="42.14256" lon="19.04163">
        <ele>63.623706</ele>
        <time>2022-05-27T08:48:55.899Z</time>
      </trkpt>
      <trkpt lat="42.1426" lon="19.04151">
        <ele>63.490245</ele>
        <time>2022-05-27T08:48:57.876Z</time>
      </trkpt>
      <trkpt lat="42.14264" lon="19.04139">
        <ele>63.452421</ele>
        <time>2022-05-27T08:48:59.940Z</time>
      </trkpt>
      <trkpt lat="42.14267" lon="19.04127">
        <ele>63.416182</ele>
        <time>2022-05-27T08:49:01.861Z</time>
      </trkpt>
      <trkpt lat="42.14272" lon="19.04111">
        <ele>63.364961</ele>
        <time>2022-05-27T08:49:04.881Z</time>
      </trkpt>
      <trkpt lat="42.14277" lon="19.04097">
        <ele>63.318931</ele>
        <time>2022-05-27T08:49:07.874Z</time>
      </trkpt>
      <trkpt lat="42.14281" lon="19.04083">
        <ele>63.277081</ele>
        <time>2022-05-27T08:49:10.860Z</time>
      </trkpt>
      <trkpt lat="42.14286" lon="19.0407">
        <ele>63.234225</ele>
        <time>2022-05-27T08:49:13.890Z</time>
      </trkpt>
      <trkpt lat="42.1429" lon="19.04056">
        <ele>63.190525</ele>
        <time>2022-05-27T08:49:16.883Z</time>
      </trkpt>
      <trkpt lat="42.14295" lon="19.04044">
        <ele>63.150307</ele>
        <time>2022-05-27T08:49:19.880Z</time>
      </trkpt>
      <trkpt lat="42.14299" lon="19.04029">
        <ele>63.104371</ele>
        <time>2022-05-27T08:49:22.857Z</time>
      </trkpt>
      <trkpt lat="42.14303" lon="19.04016">
        <ele>63.064526</ele>
        <time>2022-05-27T08:49:25.875Z</time>
      </trkpt>
      <trkpt lat="42.14308" lon="19.04002">
        <ele>63.020449</ele>
        <time>2022-05-27T08:49:28.867Z</time>
      </trkpt>
      <trkpt lat="42.14312" lon="19.03988">
        <ele>62.975182</ele>
        <time>2022-05-27T08:49:31.876Z</time>
      </trkpt>
      <trkpt lat="42.14316" lon="19.03973">
        <ele>62.930457</ele>
        <time>2022-05-27T08:49:34.876Z</time>
      </trkpt>
      <trkpt lat="42.14319" lon="19.03961">
        <ele>62.893358</ele>
        <time>2022-05-27T08:49:37.859Z</time>
      </trkpt>
      <trkpt lat="42.14317" lon="19.03947">
        <ele>62.85074</ele>
        <time>2022-05-27T08:49:40.874Z</time>
      </trkpt>
      <trkpt lat="42.14308" lon="19.03938">
        <ele>62.807452</ele>
        <time>2022-05-27T08:49:44.861Z</time>
      </trkpt>
      <trkpt lat="42.14298" lon="19.03934">
        <ele>62.772131</ele>
        <time>2022-05-27T08:49:47.872Z</time>
      </trkpt>
      <trkpt lat="42.14289" lon="19.0393">
        <ele>62.73602</ele>
        <time>2022-05-27T08:49:50.900Z</time>
      </trkpt>
      <trkpt lat="42.1428" lon="19.03922">
        <ele>62.697686</ele>
        <time>2022-05-27T08:49:54.886Z</time>
      </trkpt>
      <trkpt lat="42.14278" lon="19.0391">
        <ele>62.665539</ele>
        <time>2022-05-27T08:49:58.855Z</time>
      </trkpt>
      <trkpt lat="42.14282" lon="19.03898">
        <ele>62.630159</ele>
        <time>2022-05-27T08:50:00.958Z</time>
      </trkpt>
      <trkpt lat="42.14286" lon="19.03885">
        <ele>62.592793</ele>
        <time>2022-05-27T08:50:03.869Z</time>
      </trkpt>
      <trkpt lat="42.1429" lon="19.03874">
        <ele>62.560175</ele>
        <time>2022-05-27T08:50:06.884Z</time>
      </trkpt>
      <trkpt lat="42.14293" lon="19.03863">
        <ele>62.527651</ele>
        <time>2022-05-27T08:50:09.871Z</time>
      </trkpt>
      <trkpt lat="42.14297" lon="19.03851">
        <ele>62.493251</ele>
        <time>2022-05-27T08:50:12.979Z</time>
      </trkpt>
      <trkpt lat="42.143" lon="19.03836">
        <ele>62.453609</ele>
        <time>2022-05-27T08:50:15.865Z</time>
      </trkpt>
      <trkpt lat="42.14303" lon="19.03824">
        <ele>62.419655</ele>
        <time>2022-05-27T08:50:18.880Z</time>
      </trkpt>
      <trkpt lat="42.14306" lon="19.03811">
        <ele>62.382917</ele>
        <time>2022-05-27T08:50:22.901Z</time>
      </trkpt>
      <trkpt lat="42.1431" lon="19.03799">
        <ele>62.347891</ele>
        <time>2022-05-27T08:50:26.868Z</time>
      </trkpt>
      <trkpt lat="42.14315" lon="19.03785">
        <ele>62.308415</ele>
        <time>2022-05-27T08:50:30.888Z</time>
      </trkpt>
      <trkpt lat="42.14319" lon="19.03772">
        <ele>62.270736</ele>
        <time>2022-05-27T08:50:34.873Z</time>
      </trkpt>
      <trkpt lat="42.14323" lon="19.03758">
        <ele>62.230761</ele>
        <time>2022-05-27T08:50:38.857Z</time>
      </trkpt>
      <trkpt lat="42.14328" lon="19.03745">
        <ele>62.193469</ele>
        <time>2022-05-27T08:50:42.882Z</time>
      </trkpt>
      <trkpt lat="42.14331" lon="19.03732">
        <ele>62.172443</ele>
        <time>2022-05-27T08:50:46.866Z</time>
      </trkpt>
      <trkpt lat="42.14335" lon="19.0372">
        <ele>62.243638</ele>
        <time>2022-05-27T08:50:50.966Z</time>
      </trkpt>
      <trkpt lat="42.1434" lon="19.03707">
        <ele>62.318236</ele>
        <time>2022-05-27T08:50:54.868Z</time>
      </trkpt>
      <trkpt lat="42.14347" lon="19.03695">
        <ele>62.396595</ele>
        <time>2022-05-27T08:50:58.875Z</time>
      </trkpt>
      <trkpt lat="42.14355" lon="19.03684">
        <ele>62.476654</ele>
        <time>2022-05-27T08:51:02.878Z</time>
      </trkpt>
      <trkpt lat="42.14365" lon="19.03678">
        <ele>62.554105</ele>
        <time>2022-05-27T08:51:06.864Z</time>
      </trkpt>
      <trkpt lat="42.14375" lon="19.03672">
        <ele>62.628373</ele>
        <time>2022-05-27T08:51:10.867Z</time>
      </trkpt>
      <trkpt lat="42.14384" lon="19.03668">
        <ele>62.697391</ele>
        <time>2022-05-27T08:51:14.884Z</time>
      </trkpt>
      <trkpt lat="42.14393" lon="19.03663">
        <ele>62.767717</ele>
        <time>2022-05-27T08:51:18.904Z</time>
      </trkpt>
      <trkpt lat="42.14402" lon="19.03658">
        <ele>62.831993</ele>
        <time>2022-05-27T08:51:22.879Z</time>
      </trkpt>
      <trkpt lat="42.14411" lon="19.03654">
        <ele>62.89868</ele>
        <time>2022-05-27T08:51:26.883Z</time>
      </trkpt>
      <trkpt lat="42.14421" lon="19.03648">
        <ele>62.977306</ele>
        <time>2022-05-27T08:51:31.882Z</time>
      </trkpt>
      <trkpt lat="42.14432" lon="19.03643">
        <ele>63.055466</ele>
        <time>2022-05-27T08:51:36.883Z</time>
      </trkpt>
      <trkpt lat="42.1444" lon="19.03638">
        <ele>63.119168</ele>
        <time>2022-05-27T08:51:40.909Z</time>
      </trkpt>
      <trkpt lat="42.14449" lon="19.03634">
        <ele>63.182408</ele>
        <time>2022-05-27T08:51:44.864Z</time>
      </trkpt>
      <trkpt lat="42.14459" lon="19.03628">
        <ele>63.260759</ele>
        <time>2022-05-27T08:51:49.855Z</time>
      </trkpt>
      <trkpt lat="42.14467" lon="19.03623">
        <ele>63.324388</ele>
        <time>2022-05-27T08:51:53.877Z</time>
      </trkpt>
      <trkpt lat="42.14477" lon="19.03617">
        <ele>63.398861</ele>
        <time>2022-05-27T08:51:58.864Z</time>
      </trkpt>
      <trkpt lat="42.14486" lon="19.03612">
        <ele>63.661201</ele>
        <time>2022-05-27T08:52:03.880Z</time>
      </trkpt>
      <trkpt lat="42.14497" lon="19.03607">
        <ele>64.046359</ele>
        <time>2022-05-27T08:52:08.917Z</time>
      </trkpt>
      <trkpt lat="42.14506" lon="19.03602">
        <ele>64.368969</ele>
        <time>2022-05-27T08:52:12.865Z</time>
      </trkpt>
      <trkpt lat="42.14515" lon="19.03598">
        <ele>64.684793</ele>
        <time>2022-05-27T08:52:16.881Z</time>
      </trkpt>
      <trkpt lat="42.14523" lon="19.03593">
        <ele>65.005007</ele>
        <time>2022-05-27T08:52:20.858Z</time>
      </trkpt>
      <trkpt lat="42.14533" lon="19.03588">
        <ele>65.35226</ele>
        <time>2022-05-27T08:52:25.873Z</time>
      </trkpt>
      <trkpt lat="42.14542" lon="19.03583">
        <ele>65.696298</ele>
        <time>2022-05-27T08:52:30.913Z</time>
      </trkpt>
      <trkpt lat="42.14551" lon="19.03578">
        <ele>66.008923</ele>
        <time>2022-05-27T08:52:35.866Z</time>
      </trkpt>
      <trkpt lat="42.14559" lon="19.03573">
        <ele>66.343667</ele>
        <time>2022-05-27T08:52:40.876Z</time>
      </trkpt>
      <trkpt lat="42.1457" lon="19.03569">
        <ele>66.70246</ele>
        <time>2022-05-27T08:52:45.885Z</time>
      </trkpt>
      <trkpt lat="42.14579" lon="19.03564">
        <ele>67.040543</ele>
        <time>2022-05-27T08:52:50.865Z</time>
      </trkpt>
      <trkpt lat="42.14588" lon="19.03558">
        <ele>67.392921</ele>
        <time>2022-05-27T08:52:55.899Z</time>
      </trkpt>
      <trkpt lat="42.14598" lon="19.03554">
        <ele>67.729693</ele>
        <time>2022-05-27T08:53:00.875Z</time>
      </trkpt>
      <trkpt lat="42.14606" lon="19.03549">
        <ele>68.049136</ele>
        <time>2022-05-27T08:53:05.864Z</time>
      </trkpt>
      <trkpt lat="42.14616" lon="19.03545">
        <ele>68.386658</ele>
        <time>2022-05-27T08:53:10.882Z</time>
      </trkpt>
      <trkpt lat="42.14625" lon="19.03539">
        <ele>68.747491</ele>
        <time>2022-05-27T08:53:15.925Z</time>
      </trkpt>
      <trkpt lat="42.14635" lon="19.03534">
        <ele>69.096006</ele>
        <time>2022-05-27T08:53:20.867Z</time>
      </trkpt>
      <trkpt lat="42.14645" lon="19.03529">
        <ele>69.467679</ele>
        <time>2022-05-27T08:53:25.859Z</time>
      </trkpt>
      <trkpt lat="42.14655" lon="19.03525">
        <ele>69.850143</ele>
        <time>2022-05-27T08:53:30.868Z</time>
      </trkpt>
      <trkpt lat="42.14665" lon="19.03521">
        <ele>70.238194</ele>
        <time>2022-05-27T08:53:35.882Z</time>
      </trkpt>
      <trkpt lat="42.14675" lon="19.03517">
        <ele>70.62848</ele>
        <time>2022-05-27T08:53:40.875Z</time>
      </trkpt>
      <trkpt lat="42.14685" lon="19.03514">
        <ele>71.015071</ele>
        <time>2022-05-27T08:53:45.862Z</time>
      </trkpt>
      <trkpt lat="42.14695" lon="19.03512">
        <ele>71.382185</ele>
        <time>2022-05-27T08:53:50.886Z</time>
      </trkpt>
      <trkpt lat="42.14704" lon="19.0351">
        <ele>71.722184</ele>
        <time>2022-05-27T08:53:55.882Z</time>
      </trkpt>
      <trkpt lat="42.14713" lon="19.03509">
        <ele>72.065905</ele>
        <time>2022-05-27T08:54:00.888Z</time>
      </trkpt>
      <trkpt lat="42.14722" lon="19.03508">
        <ele>72.422475</ele>
        <time>2022-05-27T08:54:05.872Z</time>
      </trkpt>
      <trkpt lat="42.14732" lon="19.03508">
        <ele>72.767586</ele>
        <time>2022-05-27T08:54:10.869Z</time>
      </trkpt>
      <trkpt lat="42.14741" lon="19.03508">
        <ele>73.127515</ele>
        <time>2022-05-27T08:54:15.868Z</time>
      </trkpt>
      <trkpt lat="42.1475" lon="19.03509">
        <ele>73.470065</ele>
        <time>2022-05-27T08:54:20.907Z</time>
      </trkpt>
      <trkpt lat="42.1476" lon="19.0351">
        <ele>73.828364</ele>
        <time>2022-05-27T08:54:25.875Z</time>
      </trkpt>
      <trkpt lat="42.1477" lon="19.03511">
        <ele>74.200051</ele>
        <time>2022-05-27T08:54:30.902Z</time>
      </trkpt>
      <trkpt lat="42.1478" lon="19.03514">
        <ele>74.587211</ele>
        <time>2022-05-27T08:54:35.913Z</time>
      </trkpt>
      <trkpt lat="42.1479" lon="19.03516">
        <ele>74.98697</ele>
        <time>2022-05-27T08:54:40.878Z</time>
      </trkpt>
      <trkpt lat="42.148" lon="19.03519">
        <ele>75.355218</ele>
        <time>2022-05-27T08:54:45.866Z</time>
      </trkpt>
      <trkpt lat="42.14809" lon="19.03522">
        <ele>75.699165</ele>
        <time>2022-05-27T08:54:50.881Z</time>
      </trkpt>
      <trkpt lat="42.14817" lon="19.03526">
        <ele>76.041181</ele>
        <time>2022-05-27T08:54:55.919Z</time>
      </trkpt>
      <trkpt lat="42.14827" lon="19.0353">
        <ele>76.475416</ele>
        <time>2022-05-27T08:55:00.873Z</time>
      </trkpt>
      <trkpt lat="42.14835" lon="19.03534">
        <ele>77.007061</ele>
        <time>2022-05-27T08:55:05.873Z</time>
      </trkpt>
      <trkpt lat="42.14846" lon="19.03538">
        <ele>77.622026</ele>
        <time>2022-05-27T08:55:10.879Z</time>
      </trkpt>
      <trkpt lat="42.14855" lon="19.03543">
        <ele>78.22967</ele>
        <time>2022-05-27T08:55:15.868Z</time>
      </trkpt>
      <trkpt lat="42.14865" lon="19.03547">
        <ele>78.806891</ele>
        <time>2022-05-27T08:55:20.886Z</time>
      </trkpt>
      <trkpt lat="42.14873" lon="19.03551">
        <ele>79.342491</ele>
        <time>2022-05-27T08:55:25.896Z</time>
      </trkpt>
      <trkpt lat="42.14882" lon="19.03555">
        <ele>79.871187</ele>
        <time>2022-05-27T08:55:30.877Z</time>
      </trkpt>
      <trkpt lat="42.14891" lon="19.03559">
        <ele>80.410092</ele>
        <time>2022-05-27T08:55:35.925Z</time>
      </trkpt>
      <trkpt lat="42.149" lon="19.03564">
        <ele>81.006599</ele>
        <time>2022-05-27T08:55:41.876Z</time>
      </trkpt>
      <trkpt lat="42.1491" lon="19.03568">
        <ele>81.607334</ele>
        <time>2022-05-27T08:55:47.872Z</time>
      </trkpt>
      <trkpt lat="42.14919" lon="19.03573">
        <ele>82.19453</ele>
        <time>2022-05-27T08:55:54.894Z</time>
      </trkpt>
      <trkpt lat="42.14929" lon="19.03576">
        <ele>82.752976</ele>
        <time>2022-05-27T08:56:00.844Z</time>
      </trkpt>
      <trkpt lat="42.14938" lon="19.03581">
        <ele>83.309791</ele>
        <time>2022-05-27T08:56:05.844Z</time>
      </trkpt>
      <trkpt lat="42.14947" lon="19.03584">
        <ele>83.883085</ele>
        <time>2022-05-27T08:56:11.844Z</time>
      </trkpt>
      <trkpt lat="42.14956" lon="19.03589">
        <ele>84.418917</ele>
        <time>2022-05-27T08:56:18.843Z</time>
      </trkpt>
      <trkpt lat="42.14966" lon="19.03594">
        <ele>85.084843</ele>
        <time>2022-05-27T08:56:26.865Z</time>
      </trkpt>
      <trkpt lat="42.14975" lon="19.03599">
        <ele>85.658893</ele>
        <time>2022-05-27T08:56:33.835Z</time>
      </trkpt>
      <trkpt lat="42.14984" lon="19.03603">
        <ele>86.184955</ele>
        <time>2022-05-27T08:56:39.840Z</time>
      </trkpt>
      <trkpt lat="42.14993" lon="19.03607">
        <ele>86.722308</ele>
        <time>2022-05-27T08:56:45.841Z</time>
      </trkpt>
      <trkpt lat="42.15002" lon="19.03612">
        <ele>87.477079</ele>
        <time>2022-05-27T08:56:53.858Z</time>
      </trkpt>
      <trkpt lat="42.15012" lon="19.03616">
        <ele>88.319381</ele>
        <time>2022-05-27T08:57:01.850Z</time>
      </trkpt>
      <trkpt lat="42.15021" lon="19.0362">
        <ele>89.114295</ele>
        <time>2022-05-27T08:57:08.844Z</time>
      </trkpt>
      <trkpt lat="42.15031" lon="19.03625">
        <ele>89.903458</ele>
        <time>2022-05-27T08:57:16.868Z</time>
      </trkpt>
      <trkpt lat="42.15039" lon="19.03629">
        <ele>90.64817</ele>
        <time>2022-05-27T08:57:23.845Z</time>
      </trkpt>
      <trkpt lat="42.15048" lon="19.03634">
        <ele>91.381193</ele>
        <time>2022-05-27T08:57:29.841Z</time>
      </trkpt>
      <trkpt lat="42.15057" lon="19.03637">
        <ele>92.152272</ele>
        <time>2022-05-27T08:57:36.841Z</time>
      </trkpt>
      <trkpt lat="42.15066" lon="19.03642">
        <ele>92.904409</ele>
        <time>2022-05-27T08:57:44.848Z</time>
      </trkpt>
      <trkpt lat="42.15075" lon="19.03646">
        <ele>93.640823</ele>
        <time>2022-05-27T08:57:52.849Z</time>
      </trkpt>
      <trkpt lat="42.15084" lon="19.03651">
        <ele>94.409957</ele>
        <time>2022-05-27T08:57:59.843Z</time>
      </trkpt>
      <trkpt lat="42.15092" lon="19.03654">
        <ele>95.129352</ele>
        <time>2022-05-27T08:58:07.843Z</time>
      </trkpt>
      <trkpt lat="42.15101" lon="19.03659">
        <ele>95.877299</ele>
        <time>2022-05-27T08:58:16.846Z</time>
      </trkpt>
      <trkpt lat="42.1511" lon="19.03664">
        <ele>96.650777</ele>
        <time>2022-05-27T08:58:23.842Z</time>
      </trkpt>
      <trkpt lat="42.15119" lon="19.03666">
        <ele>97.40325</ele>
        <time>2022-05-27T08:58:29.874Z</time>
      </trkpt>
      <trkpt lat="42.15128" lon="19.0367">
        <ele>98.122666</ele>
        <time>2022-05-27T08:58:35.839Z</time>
      </trkpt>
      <trkpt lat="42.15137" lon="19.03673">
        <ele>98.890568</ele>
        <time>2022-05-27T08:58:42.854Z</time>
      </trkpt>
      <trkpt lat="42.15146" lon="19.03678">
        <ele>99.657071</ele>
        <time>2022-05-27T08:58:51.863Z</time>
      </trkpt>
      <trkpt lat="42.15155" lon="19.03681">
        <ele>100.380596</ele>
        <time>2022-05-27T08:59:01.847Z</time>
      </trkpt>
      <trkpt lat="42.15172" lon="19.03651">
        <ele>102.272531</ele>
        <time>2022-05-27T08:59:42.886Z</time>
      </trkpt>
      <trkpt lat="42.15175" lon="19.03639">
        <ele>102.847311</ele>
        <time>2022-05-27T08:59:47.845Z</time>
      </trkpt>
      <trkpt lat="42.15179" lon="19.03625">
        <ele>103.497154</ele>
        <time>2022-05-27T08:59:53.865Z</time>
      </trkpt>
      <trkpt lat="42.15182" lon="19.03613">
        <ele>104.100405</ele>
        <time>2022-05-27T08:59:58.844Z</time>
      </trkpt>
      <trkpt lat="42.15186" lon="19.03601">
        <ele>104.686305</ele>
        <time>2022-05-27T09:00:04.848Z</time>
      </trkpt>
      <trkpt lat="42.1519" lon="19.03589">
        <ele>105.256846</ele>
        <time>2022-05-27T09:00:10.862Z</time>
      </trkpt>
      <trkpt lat="42.15194" lon="19.03577">
        <ele>105.86468</ele>
        <time>2022-05-27T09:00:16.842Z</time>
      </trkpt>
      <trkpt lat="42.15197" lon="19.03564">
        <ele>106.483894</ele>
        <time>2022-05-27T09:00:22.868Z</time>
      </trkpt>
      <trkpt lat="42.15202" lon="19.03552">
        <ele>107.103571</ele>
        <time>2022-05-27T09:00:28.839Z</time>
      </trkpt>
      <trkpt lat="42.15207" lon="19.0354">
        <ele>107.692521</ele>
        <time>2022-05-27T09:00:34.839Z</time>
      </trkpt>
      <trkpt lat="42.15212" lon="19.03529">
        <ele>108.28564</ele>
        <time>2022-05-27T09:00:40.841Z</time>
      </trkpt>
      <trkpt lat="42.15216" lon="19.03518">
        <ele>108.854856</ele>
        <time>2022-05-27T09:00:46.848Z</time>
      </trkpt>
      <trkpt lat="42.15223" lon="19.03506">
        <ele>109.517468</ele>
        <time>2022-05-27T09:00:52.846Z</time>
      </trkpt>
      <trkpt lat="42.15229" lon="19.03495">
        <ele>110.136722</ele>
        <time>2022-05-27T09:00:58.853Z</time>
      </trkpt>
      <trkpt lat="42.15235" lon="19.03486">
        <ele>110.688984</ele>
        <time>2022-05-27T09:01:04.864Z</time>
      </trkpt>
      <trkpt lat="42.1524" lon="19.03476">
        <ele>111.254485</ele>
        <time>2022-05-27T09:01:10.853Z</time>
      </trkpt>
      <trkpt lat="42.15247" lon="19.03467">
        <ele>111.811524</ele>
        <time>2022-05-27T09:01:15.857Z</time>
      </trkpt>
      <trkpt lat="42.15253" lon="19.03457">
        <ele>112.249751</ele>
        <time>2022-05-27T09:01:21.849Z</time>
      </trkpt>
      <trkpt lat="42.15259" lon="19.03446">
        <ele>112.586564</ele>
        <time>2022-05-27T09:01:27.844Z</time>
      </trkpt>
      <trkpt lat="42.15266" lon="19.03435">
        <ele>112.939335</ele>
        <time>2022-05-27T09:01:33.836Z</time>
      </trkpt>
      <trkpt lat="42.15271" lon="19.03425">
        <ele>113.247615</ele>
        <time>2022-05-27T09:01:38.846Z</time>
      </trkpt>
      <trkpt lat="42.15277" lon="19.03416">
        <ele>113.574813</ele>
        <time>2022-05-27T09:01:44.853Z</time>
      </trkpt>
      <trkpt lat="42.15283" lon="19.03406">
        <ele>113.879078</ele>
        <time>2022-05-27T09:01:50.844Z</time>
      </trkpt>
      <trkpt lat="42.15289" lon="19.03396">
        <ele>114.20191</ele>
        <time>2022-05-27T09:01:56.843Z</time>
      </trkpt>
      <trkpt lat="42.15295" lon="19.03387">
        <ele>114.521563</ele>
        <time>2022-05-27T09:02:03.837Z</time>
      </trkpt>
      <trkpt lat="42.15302" lon="19.03376">
        <ele>114.876654</ele>
        <time>2022-05-27T09:02:09.841Z</time>
      </trkpt>
      <trkpt lat="42.15308" lon="19.03366">
        <ele>115.190314</ele>
        <time>2022-05-27T09:02:14.847Z</time>
      </trkpt>
      <trkpt lat="42.15315" lon="19.03358">
        <ele>115.496348</ele>
        <time>2022-05-27T09:02:20.857Z</time>
      </trkpt>
      <trkpt lat="42.15321" lon="19.0335">
        <ele>115.803229</ele>
        <time>2022-05-27T09:02:26.838Z</time>
      </trkpt>
      <trkpt lat="42.15329" lon="19.03342">
        <ele>116.123615</ele>
        <time>2022-05-27T09:02:32.853Z</time>
      </trkpt>
      <trkpt lat="42.15337" lon="19.03333">
        <ele>116.476135</ele>
        <time>2022-05-27T09:02:38.845Z</time>
      </trkpt>
      <trkpt lat="42.15345" lon="19.03324">
        <ele>116.842159</ele>
        <time>2022-05-27T09:02:44.841Z</time>
      </trkpt>
      <trkpt lat="42.15354" lon="19.03316">
        <ele>117.192916</ele>
        <time>2022-05-27T09:02:50.849Z</time>
      </trkpt>
      <trkpt lat="42.15362" lon="19.03309">
        <ele>117.524687</ele>
        <time>2022-05-27T09:02:55.845Z</time>
      </trkpt>
      <trkpt lat="42.1537" lon="19.03301">
        <ele>117.864287</ele>
        <time>2022-05-27T09:03:00.859Z</time>
      </trkpt>
      <trkpt lat="42.1538" lon="19.03295">
        <ele>118.219945</ele>
        <time>2022-05-27T09:03:06.879Z</time>
      </trkpt>
      <trkpt lat="42.15388" lon="19.03288">
        <ele>118.494045</ele>
        <time>2022-05-27T09:03:11.876Z</time>
      </trkpt>
      <trkpt lat="42.15396" lon="19.03282">
        <ele>118.77113</ele>
        <time>2022-05-27T09:03:16.877Z</time>
      </trkpt>
      <trkpt lat="42.15406" lon="19.03277">
        <ele>119.076917</ele>
        <time>2022-05-27T09:03:22.869Z</time>
      </trkpt>
      <trkpt lat="42.15415" lon="19.03273">
        <ele>119.355546</ele>
        <time>2022-05-27T09:03:27.887Z</time>
      </trkpt>
      <trkpt lat="42.15424" lon="19.03265">
        <ele>119.67826</ele>
        <time>2022-05-27T09:03:34.875Z</time>
      </trkpt>
      <trkpt lat="42.15434" lon="19.03259">
        <ele>119.998847</ele>
        <time>2022-05-27T09:03:40.881Z</time>
      </trkpt>
      <trkpt lat="42.15444" lon="19.03254">
        <ele>120.293267</ele>
        <time>2022-05-27T09:03:46.864Z</time>
      </trkpt>
      <trkpt lat="42.15452" lon="19.03249">
        <ele>120.558115</ele>
        <time>2022-05-27T09:03:52.900Z</time>
      </trkpt>
      <trkpt lat="42.15461" lon="19.03244">
        <ele>120.830295</ele>
        <time>2022-05-27T09:03:59.927Z</time>
      </trkpt>
      <trkpt lat="42.1547" lon="19.0324">
        <ele>121.122121</ele>
        <time>2022-05-27T09:04:05.864Z</time>
      </trkpt>
      <trkpt lat="42.15479" lon="19.03235">
        <ele>121.394733</ele>
        <time>2022-05-27T09:04:09.948Z</time>
      </trkpt>
      <trkpt lat="42.15487" lon="19.03229">
        <ele>121.680611</ele>
        <time>2022-05-27T09:04:15.883Z</time>
      </trkpt>
      <trkpt lat="42.15496" lon="19.03225">
        <ele>121.946213</ele>
        <time>2022-05-27T09:04:20.919Z</time>
      </trkpt>
      <trkpt lat="42.15506" lon="19.03219">
        <ele>122.260197</ele>
        <time>2022-05-27T09:04:26.861Z</time>
      </trkpt>
      <trkpt lat="42.15515" lon="19.03214">
        <ele>122.555038</ele>
        <time>2022-05-27T09:04:31.905Z</time>
      </trkpt>
      <trkpt lat="42.15524" lon="19.03208">
        <ele>122.839317</ele>
        <time>2022-05-27T09:04:36.854Z</time>
      </trkpt>
      <trkpt lat="42.15532" lon="19.03201">
        <ele>123.134592</ele>
        <time>2022-05-27T09:04:41.884Z</time>
      </trkpt>
      <trkpt lat="42.15542" lon="19.03196">
        <ele>123.436281</ele>
        <time>2022-05-27T09:04:46.864Z</time>
      </trkpt>
      <trkpt lat="42.15551" lon="19.0319">
        <ele>123.659747</ele>
        <time>2022-05-27T09:04:50.862Z</time>
      </trkpt>
      <trkpt lat="42.15558" lon="19.03183">
        <ele>123.868536</ele>
        <time>2022-05-27T09:04:55.883Z</time>
      </trkpt>
      <trkpt lat="42.15567" lon="19.03177">
        <ele>124.09361</ele>
        <time>2022-05-27T09:05:00.863Z</time>
      </trkpt>
      <trkpt lat="42.15575" lon="19.0317">
        <ele>124.324446</ele>
        <time>2022-05-27T09:05:05.877Z</time>
      </trkpt>
      <trkpt lat="42.15584" lon="19.03164">
        <ele>124.544665</ele>
        <time>2022-05-27T09:05:10.903Z</time>
      </trkpt>
      <trkpt lat="42.15592" lon="19.03156">
        <ele>124.771619</ele>
        <time>2022-05-27T09:05:16.876Z</time>
      </trkpt>
      <trkpt lat="42.15599" lon="19.03149">
        <ele>124.980612</ele>
        <time>2022-05-27T09:05:22.870Z</time>
      </trkpt>
      <trkpt lat="42.15608" lon="19.03142">
        <ele>125.21135</ele>
        <time>2022-05-27T09:05:29.870Z</time>
      </trkpt>
      <trkpt lat="42.15615" lon="19.03134">
        <ele>125.423206</ele>
        <time>2022-05-27T09:05:34.867Z</time>
      </trkpt>
      <trkpt lat="42.15623" lon="19.03126">
        <ele>125.647778</ele>
        <time>2022-05-27T09:05:40.874Z</time>
      </trkpt>
      <trkpt lat="42.1563" lon="19.03118">
        <ele>125.868742</ele>
        <time>2022-05-27T09:05:45.902Z</time>
      </trkpt>
      <trkpt lat="42.15638" lon="19.0311">
        <ele>126.087673</ele>
        <time>2022-05-27T09:05:50.867Z</time>
      </trkpt>
      <trkpt lat="42.15646" lon="19.031">
        <ele>126.335162</ele>
        <time>2022-05-27T09:05:56.911Z</time>
      </trkpt>
      <trkpt lat="42.15655" lon="19.03094">
        <ele>126.578625</ele>
        <time>2022-05-27T09:06:04.873Z</time>
      </trkpt>
      <trkpt lat="42.15675" lon="19.03063">
        <ele>127.275875</ele>
        <time>2022-05-27T09:10:36.880Z</time>
      </trkpt>
      <trkpt lat="42.15683" lon="19.03052">
        <ele>127.52691</ele>
        <time>2022-05-27T09:10:41.873Z</time>
      </trkpt>
      <trkpt lat="42.15689" lon="19.03042">
        <ele>127.887108</ele>
        <time>2022-05-27T09:10:46.887Z</time>
      </trkpt>
      <trkpt lat="42.15694" lon="19.03032">
        <ele>128.251384</ele>
        <time>2022-05-27T09:10:51.921Z</time>
      </trkpt>
      <trkpt lat="42.157" lon="19.03023">
        <ele>128.625439</ele>
        <time>2022-05-27T09:10:56.868Z</time>
      </trkpt>
      <trkpt lat="42.15706" lon="19.03013">
        <ele>128.99662</ele>
        <time>2022-05-27T09:11:01.897Z</time>
      </trkpt>
      <trkpt lat="42.15713" lon="19.03002">
        <ele>129.408818</ele>
        <time>2022-05-27T09:11:06.870Z</time>
      </trkpt>
      <trkpt lat="42.15718" lon="19.02991">
        <ele>129.796545</ele>
        <time>2022-05-27T09:11:11.873Z</time>
      </trkpt>
      <trkpt lat="42.15724" lon="19.02981">
        <ele>130.155901</ele>
        <time>2022-05-27T09:11:16.860Z</time>
      </trkpt>
      <trkpt lat="42.1573" lon="19.0297">
        <ele>130.565069</ele>
        <time>2022-05-27T09:11:22.865Z</time>
      </trkpt>
      <trkpt lat="42.15736" lon="19.02958">
        <ele>130.991291</ele>
        <time>2022-05-27T09:11:28.868Z</time>
      </trkpt>
      <trkpt lat="42.15741" lon="19.02947">
        <ele>131.377111</ele>
        <time>2022-05-27T09:11:33.871Z</time>
      </trkpt>
      <trkpt lat="42.15746" lon="19.02935">
        <ele>131.782225</ele>
        <time>2022-05-27T09:11:38.858Z</time>
      </trkpt>
      <trkpt lat="42.15751" lon="19.02924">
        <ele>132.175415</ele>
        <time>2022-05-27T09:11:43.896Z</time>
      </trkpt>
      <trkpt lat="42.15756" lon="19.02912">
        <ele>132.583096</ele>
        <time>2022-05-27T09:11:48.878Z</time>
      </trkpt>
      <trkpt lat="42.15762" lon="19.02899">
        <ele>133.005831</ele>
        <time>2022-05-27T09:11:54.871Z</time>
      </trkpt>
      <trkpt lat="42.15767" lon="19.02887">
        <ele>133.414892</ele>
        <time>2022-05-27T09:11:59.905Z</time>
      </trkpt>
      <trkpt lat="42.15771" lon="19.02877">
        <ele>133.77108</ele>
        <time>2022-05-27T09:12:04.898Z</time>
      </trkpt>
      <trkpt lat="42.15775" lon="19.02865">
        <ele>134.149277</ele>
        <time>2022-05-27T09:12:09.866Z</time>
      </trkpt>
      <trkpt lat="42.1578" lon="19.02852">
        <ele>134.57151</ele>
        <time>2022-05-27T09:12:15.879Z</time>
      </trkpt>
      <trkpt lat="42.15783" lon="19.0284">
        <ele>134.906333</ele>
        <time>2022-05-27T09:12:20.881Z</time>
      </trkpt>
      <trkpt lat="42.15787" lon="19.02828">
        <ele>135.199043</ele>
        <time>2022-05-27T09:12:25.878Z</time>
      </trkpt>
      <trkpt lat="42.1579" lon="19.02817">
        <ele>135.483943</ele>
        <time>2022-05-27T09:12:30.876Z</time>
      </trkpt>
      <trkpt lat="42.15794" lon="19.02805">
        <ele>135.782173</ele>
        <time>2022-05-27T09:12:35.857Z</time>
      </trkpt>
      <trkpt lat="42.15797" lon="19.02792">
        <ele>136.097886</ele>
        <time>2022-05-27T09:12:40.876Z</time>
      </trkpt>
      <trkpt lat="42.15799" lon="19.02778">
        <ele>136.44127</ele>
        <time>2022-05-27T09:12:46.875Z</time>
      </trkpt>
      <trkpt lat="42.15803" lon="19.02766">
        <ele>136.739326</ele>
        <time>2022-05-27T09:12:51.865Z</time>
      </trkpt>
      <trkpt lat="42.15805" lon="19.02753">
        <ele>137.039662</ele>
        <time>2022-05-27T09:12:56.842Z</time>
      </trkpt>
      <trkpt lat="42.15808" lon="19.02739">
        <ele>137.384549</ele>
        <time>2022-05-27T09:13:02.867Z</time>
      </trkpt>
      <trkpt lat="42.1581" lon="19.02727">
        <ele>137.682156</ele>
        <time>2022-05-27T09:13:07.871Z</time>
      </trkpt>
      <trkpt lat="42.15812" lon="19.02712">
        <ele>138.025159</ele>
        <time>2022-05-27T09:13:13.876Z</time>
      </trkpt>
      <trkpt lat="42.15812" lon="19.02699">
        <ele>138.346343</ele>
        <time>2022-05-27T09:13:20.866Z</time>
      </trkpt>
      <trkpt lat="42.15813" lon="19.02686">
        <ele>138.636991</ele>
        <time>2022-05-27T09:13:26.859Z</time>
      </trkpt>
      <trkpt lat="42.15814" lon="19.02672">
        <ele>138.964741</ele>
        <time>2022-05-27T09:13:32.873Z</time>
      </trkpt>
      <trkpt lat="42.15814" lon="19.02657">
        <ele>139.310771</ele>
        <time>2022-05-27T09:13:37.865Z</time>
      </trkpt>
      <trkpt lat="42.15814" lon="19.02644">
        <ele>139.614619</ele>
        <time>2022-05-27T09:13:42.871Z</time>
      </trkpt>
      <trkpt lat="42.15813" lon="19.02632">
        <ele>139.900189</ele>
        <time>2022-05-27T09:13:47.889Z</time>
      </trkpt>
      <trkpt lat="42.15813" lon="19.02619">
        <ele>140.202491</ele>
        <time>2022-05-27T09:13:53.869Z</time>
      </trkpt>
      <trkpt lat="42.15813" lon="19.02606">
        <ele>140.266209</ele>
        <time>2022-05-27T09:14:00.868Z</time>
      </trkpt>
      <trkpt lat="42.15808" lon="19.02569">
        <ele>139.656225</ele>
        <time>2022-05-27T09:20:00.860Z</time>
      </trkpt>
      <trkpt lat="42.15808" lon="19.02555">
        <ele>139.432724</ele>
        <time>2022-05-27T09:20:06.846Z</time>
      </trkpt>
      <trkpt lat="42.15806" lon="19.02542">
        <ele>139.223927</ele>
        <time>2022-05-27T09:20:12.862Z</time>
      </trkpt>
      <trkpt lat="42.15807" lon="19.0253">
        <ele>139.021058</ele>
        <time>2022-05-27T09:20:21.849Z</time>
      </trkpt>
      <trkpt lat="42.15843" lon="19.02451">
        <ele>137.520983</ele>
        <time>2022-05-27T09:21:22.857Z</time>
      </trkpt>
      <trkpt lat="42.1585" lon="19.02434">
        <ele>137.210831</ele>
        <time>2022-05-27T09:21:24.842Z</time>
      </trkpt>
      <trkpt lat="42.15878" lon="19.02359">
        <ele>138.914713</ele>
        <time>2022-05-27T09:21:28.846Z</time>
      </trkpt>
      <trkpt lat="42.15887" lon="19.02335">
        <ele>140.803214</ele>
        <time>2022-05-27T09:21:29.838Z</time>
      </trkpt>
      <trkpt lat="42.15894" lon="19.02315">
        <ele>142.326436</ele>
        <time>2022-05-27T09:21:30.834Z</time>
      </trkpt>
      <trkpt lat="42.15899" lon="19.02299">
        <ele>143.466535</ele>
        <time>2022-05-27T09:21:31.871Z</time>
      </trkpt>
      <trkpt lat="42.15904" lon="19.02284">
        <ele>144.628941</ele>
        <time>2022-05-27T09:21:32.838Z</time>
      </trkpt>
      <trkpt lat="42.1591" lon="19.0227">
        <ele>145.765696</ele>
        <time>2022-05-27T09:21:33.843Z</time>
      </trkpt>
      <trkpt lat="42.15915" lon="19.02259">
        <ele>146.624275</ele>
        <time>2022-05-27T09:21:34.846Z</time>
      </trkpt>
      <trkpt lat="42.15925" lon="19.02238">
        <ele>148.324293</ele>
        <time>2022-05-27T09:21:36.843Z</time>
      </trkpt>
      <trkpt lat="42.15936" lon="19.02222">
        <ele>149.870143</ele>
        <time>2022-05-27T09:21:38.845Z</time>
      </trkpt>
      <trkpt lat="42.15943" lon="19.02213">
        <ele>150.757706</ele>
        <time>2022-05-27T09:21:39.851Z</time>
      </trkpt>
      <trkpt lat="42.15952" lon="19.02197">
        <ele>152.137521</ele>
        <time>2022-05-27T09:21:40.842Z</time>
      </trkpt>
      <trkpt lat="42.15964" lon="19.02181">
        <ele>152.310649</ele>
        <time>2022-05-27T09:21:42.868Z</time>
      </trkpt>
      <trkpt lat="42.15976" lon="19.0217">
        <ele>150.518513</ele>
        <time>2022-05-27T09:21:44.842Z</time>
      </trkpt>
      <trkpt lat="42.15988" lon="19.02161">
        <ele>148.770506</ele>
        <time>2022-05-27T09:21:46.854Z</time>
      </trkpt>
      <trkpt lat="42.16002" lon="19.02152">
        <ele>146.852362</ele>
        <time>2022-05-27T09:21:48.861Z</time>
      </trkpt>
      <trkpt lat="42.16016" lon="19.02144">
        <ele>144.896997</ele>
        <time>2022-05-27T09:21:50.846Z</time>
      </trkpt>
      <trkpt lat="42.1603" lon="19.02137">
        <ele>143.015694</ele>
        <time>2022-05-27T09:21:52.836Z</time>
      </trkpt>
      <trkpt lat="42.16044" lon="19.0213">
        <ele>141.117845</ele>
        <time>2022-05-27T09:21:54.863Z</time>
      </trkpt>
      <trkpt lat="42.1606" lon="19.02124">
        <ele>139.04281</ele>
        <time>2022-05-27T09:21:56.837Z</time>
      </trkpt>
      <trkpt lat="42.16075" lon="19.02117">
        <ele>137.022346</ele>
        <time>2022-05-27T09:21:58.836Z</time>
      </trkpt>
      <trkpt lat="42.1609" lon="19.0211">
        <ele>135.049526</ele>
        <time>2022-05-27T09:22:00.859Z</time>
      </trkpt>
      <trkpt lat="42.16103" lon="19.02103">
        <ele>133.227063</ele>
        <time>2022-05-27T09:22:02.836Z</time>
      </trkpt>
      <trkpt lat="42.16116" lon="19.02095">
        <ele>131.471607</ele>
        <time>2022-05-27T09:22:04.848Z</time>
      </trkpt>
      <trkpt lat="42.16127" lon="19.02087">
        <ele>130.051719</ele>
        <time>2022-05-27T09:22:06.844Z</time>
      </trkpt>
      <trkpt lat="42.16138" lon="19.02074">
        <ele>128.823467</ele>
        <time>2022-05-27T09:22:08.846Z</time>
      </trkpt>
      <trkpt lat="42.1615" lon="19.0206">
        <ele>127.51858</ele>
        <time>2022-05-27T09:22:10.847Z</time>
      </trkpt>
      <trkpt lat="42.16161" lon="19.02042">
        <ele>126.12359</ele>
        <time>2022-05-27T09:22:12.846Z</time>
      </trkpt>
      <trkpt lat="42.16169" lon="19.02025">
        <ele>124.896443</ele>
        <time>2022-05-27T09:22:14.839Z</time>
      </trkpt>
      <trkpt lat="42.16174" lon="19.02015">
        <ele>124.140618</ele>
        <time>2022-05-27T09:22:15.853Z</time>
      </trkpt>
      <trkpt lat="42.16184" lon="19.01996">
        <ele>122.732633</ele>
        <time>2022-05-27T09:22:17.843Z</time>
      </trkpt>
      <trkpt lat="42.16195" lon="19.01979">
        <ele>121.343351</ele>
        <time>2022-05-27T09:22:19.847Z</time>
      </trkpt>
      <trkpt lat="42.16201" lon="19.01969">
        <ele>120.566708</ele>
        <time>2022-05-27T09:22:20.837Z</time>
      </trkpt>
      <trkpt lat="42.16213" lon="19.01953">
        <ele>119.172001</ele>
        <time>2022-05-27T09:22:22.867Z</time>
      </trkpt>
      <trkpt lat="42.16227" lon="19.01938">
        <ele>117.659788</ele>
        <time>2022-05-27T09:22:24.839Z</time>
      </trkpt>
      <trkpt lat="42.16242" lon="19.01925">
        <ele>116.224806</ele>
        <time>2022-05-27T09:22:26.847Z</time>
      </trkpt>
      <trkpt lat="42.16257" lon="19.01915">
        <ele>115.279454</ele>
        <time>2022-05-27T09:22:28.872Z</time>
      </trkpt>
      <trkpt lat="42.16265" lon="19.0191">
        <ele>114.982217</ele>
        <time>2022-05-27T09:22:29.843Z</time>
      </trkpt>
      <trkpt lat="42.16274" lon="19.01904">
        <ele>114.672032</ele>
        <time>2022-05-27T09:22:30.839Z</time>
      </trkpt>
      <trkpt lat="42.16289" lon="19.01895">
        <ele>114.130202</ele>
        <time>2022-05-27T09:22:32.837Z</time>
      </trkpt>
      <trkpt lat="42.16302" lon="19.01887">
        <ele>113.653811</ele>
        <time>2022-05-27T09:22:34.863Z</time>
      </trkpt>
      <trkpt lat="42.16315" lon="19.01876">
        <ele>113.162404</ele>
        <time>2022-05-27T09:22:36.853Z</time>
      </trkpt>
      <trkpt lat="42.16328" lon="19.01864">
        <ele>112.636317</ele>
        <time>2022-05-27T09:22:38.846Z</time>
      </trkpt>
      <trkpt lat="42.16342" lon="19.01848">
        <ele>112.048523</ele>
        <time>2022-05-27T09:22:40.838Z</time>
      </trkpt>
      <trkpt lat="42.16353" lon="19.01831">
        <ele>111.491445</ele>
        <time>2022-05-27T09:22:42.840Z</time>
      </trkpt>
      <trkpt lat="42.16363" lon="19.01815">
        <ele>110.988135</ele>
        <time>2022-05-27T09:22:44.880Z</time>
      </trkpt>
      <trkpt lat="42.16373" lon="19.01797">
        <ele>110.452555</ele>
        <time>2022-05-27T09:22:46.876Z</time>
      </trkpt>
      <trkpt lat="42.1638" lon="19.01781">
        <ele>110.002641</ele>
        <time>2022-05-27T09:22:48.868Z</time>
      </trkpt>
      <trkpt lat="42.16386" lon="19.01764">
        <ele>109.693578</ele>
        <time>2022-05-27T09:22:50.876Z</time>
      </trkpt>
      <trkpt lat="42.16391" lon="19.01748">
        <ele>109.725012</ele>
        <time>2022-05-27T09:22:52.870Z</time>
      </trkpt>
      <trkpt lat="42.16396" lon="19.01731">
        <ele>109.755621</ele>
        <time>2022-05-27T09:22:54.864Z</time>
      </trkpt>
      <trkpt lat="42.16401" lon="19.01715">
        <ele>109.784954</ele>
        <time>2022-05-27T09:22:56.862Z</time>
      </trkpt>
      <trkpt lat="42.16406" lon="19.01699">
        <ele>109.814309</ele>
        <time>2022-05-27T09:22:58.872Z</time>
      </trkpt>
      <trkpt lat="42.16411" lon="19.01685">
        <ele>109.841106</ele>
        <time>2022-05-27T09:23:00.869Z</time>
      </trkpt>
      <trkpt lat="42.16416" lon="19.01673">
        <ele>109.86596</ele>
        <time>2022-05-27T09:23:02.839Z</time>
      </trkpt>
      <trkpt lat="42.16422" lon="19.0166">
        <ele>109.891464</ele>
        <time>2022-05-27T09:23:04.879Z</time>
      </trkpt>
      <trkpt lat="42.16427" lon="19.01649">
        <ele>109.913974</ele>
        <time>2022-05-27T09:23:06.861Z</time>
      </trkpt>
      <trkpt lat="42.16433" lon="19.01639">
        <ele>109.936193</ele>
        <time>2022-05-27T09:23:08.863Z</time>
      </trkpt>
      <trkpt lat="42.16442" lon="19.01625">
        <ele>109.96796</ele>
        <time>2022-05-27T09:23:11.868Z</time>
      </trkpt>
      <trkpt lat="42.1645" lon="19.01612">
        <ele>109.996853</ele>
        <time>2022-05-27T09:23:14.902Z</time>
      </trkpt>
      <trkpt lat="42.16456" lon="19.01603">
        <ele>110.017752</ele>
        <time>2022-05-27T09:23:16.886Z</time>
      </trkpt>
      <trkpt lat="42.16464" lon="19.01589">
        <ele>110.048014</ele>
        <time>2022-05-27T09:23:19.881Z</time>
      </trkpt>
      <trkpt lat="42.16472" lon="19.01575">
        <ele>110.078241</ele>
        <time>2022-05-27T09:23:22.872Z</time>
      </trkpt>
      <trkpt lat="42.16478" lon="19.01561">
        <ele>110.155426</ele>
        <time>2022-05-27T09:23:25.918Z</time>
      </trkpt>
      <trkpt lat="42.16483" lon="19.01547">
        <ele>110.477029</ele>
        <time>2022-05-27T09:23:28.875Z</time>
      </trkpt>
      <trkpt lat="42.16489" lon="19.01533">
        <ele>110.809226</ele>
        <time>2022-05-27T09:23:31.861Z</time>
      </trkpt>
      <trkpt lat="42.16494" lon="19.01517">
        <ele>111.15335</ele>
        <time>2022-05-27T09:23:34.872Z</time>
      </trkpt>
      <trkpt lat="42.16498" lon="19.01502">
        <ele>111.464347</ele>
        <time>2022-05-27T09:23:37.884Z</time>
      </trkpt>
      <trkpt lat="42.16501" lon="19.01488">
        <ele>111.766926</ele>
        <time>2022-05-27T09:23:40.869Z</time>
      </trkpt>
      <trkpt lat="42.16505" lon="19.01473">
        <ele>112.080809</ele>
        <time>2022-05-27T09:23:43.893Z</time>
      </trkpt>
      <trkpt lat="42.16509" lon="19.01458">
        <ele>112.406927</ele>
        <time>2022-05-27T09:23:46.876Z</time>
      </trkpt>
      <trkpt lat="42.16513" lon="19.01446">
        <ele>112.664981</ele>
        <time>2022-05-27T09:23:48.903Z</time>
      </trkpt>
      <trkpt lat="42.16518" lon="19.01431">
        <ele>112.99819</ele>
        <time>2022-05-27T09:23:51.881Z</time>
      </trkpt>
      <trkpt lat="42.16524" lon="19.01416">
        <ele>113.344125</ele>
        <time>2022-05-27T09:23:54.875Z</time>
      </trkpt>
      <trkpt lat="42.1653" lon="19.01402">
        <ele>113.667467</ele>
        <time>2022-05-27T09:23:57.875Z</time>
      </trkpt>
      <trkpt lat="42.16537" lon="19.0139">
        <ele>113.98012</ele>
        <time>2022-05-27T09:24:00.870Z</time>
      </trkpt>
      <trkpt lat="42.16545" lon="19.01379">
        <ele>114.288499</ele>
        <time>2022-05-27T09:24:03.868Z</time>
      </trkpt>
      <trkpt lat="42.16553" lon="19.01369">
        <ele>114.589846</ele>
        <time>2022-05-27T09:24:06.852Z</time>
      </trkpt>
      <trkpt lat="42.16562" lon="19.01361">
        <ele>114.872912</ele>
        <time>2022-05-27T09:24:09.868Z</time>
      </trkpt>
      <trkpt lat="42.16571" lon="19.01352">
        <ele>115.213719</ele>
        <time>2022-05-27T09:24:12.866Z</time>
      </trkpt>
      <trkpt lat="42.16581" lon="19.01344">
        <ele>115.58588</ele>
        <time>2022-05-27T09:24:15.892Z</time>
      </trkpt>
      <trkpt lat="42.1659" lon="19.01336">
        <ele>115.954431</ele>
        <time>2022-05-27T09:24:18.864Z</time>
      </trkpt>
      <trkpt lat="42.166" lon="19.01328">
        <ele>116.312255</ele>
        <time>2022-05-27T09:24:21.907Z</time>
      </trkpt>
      <trkpt lat="42.16609" lon="19.0132">
        <ele>116.660433</ele>
        <time>2022-05-27T09:24:24.876Z</time>
      </trkpt>
      <trkpt lat="42.16618" lon="19.01312">
        <ele>116.996544</ele>
        <time>2022-05-27T09:24:27.876Z</time>
      </trkpt>
      <trkpt lat="42.16625" lon="19.01304">
        <ele>117.310707</ele>
        <time>2022-05-27T09:24:30.880Z</time>
      </trkpt>
      <trkpt lat="42.16632" lon="19.01296">
        <ele>117.612345</ele>
        <time>2022-05-27T09:24:33.873Z</time>
      </trkpt>
      <trkpt lat="42.16641" lon="19.01285">
        <ele>117.983371</ele>
        <time>2022-05-27T09:24:37.875Z</time>
      </trkpt>
      <trkpt lat="42.16648" lon="19.01274">
        <ele>118.330497</ele>
        <time>2022-05-27T09:24:41.859Z</time>
      </trkpt>
      <trkpt lat="42.16654" lon="19.01261">
        <ele>118.683271</ele>
        <time>2022-05-27T09:24:45.871Z</time>
      </trkpt>
      <trkpt lat="42.16659" lon="19.0125">
        <ele>119.017724</ele>
        <time>2022-05-27T09:24:49.880Z</time>
      </trkpt>
      <trkpt lat="42.16663" lon="19.01238">
        <ele>119.327172</ele>
        <time>2022-05-27T09:24:53.878Z</time>
      </trkpt>
      <trkpt lat="42.16667" lon="19.01225">
        <ele>119.657023</ele>
        <time>2022-05-27T09:24:57.868Z</time>
      </trkpt>
      <trkpt lat="42.1667" lon="19.01212">
        <ele>119.985789</ele>
        <time>2022-05-27T09:25:01.879Z</time>
      </trkpt>
      <trkpt lat="42.16673" lon="19.01199">
        <ele>120.305688</ele>
        <time>2022-05-27T09:25:05.873Z</time>
      </trkpt>
      <trkpt lat="42.16676" lon="19.01187">
        <ele>120.608428</ele>
        <time>2022-05-27T09:25:09.871Z</time>
      </trkpt>
      <trkpt lat="42.16679" lon="19.01173">
        <ele>121.234199</ele>
        <time>2022-05-27T09:25:14.864Z</time>
      </trkpt>
      <trkpt lat="42.16681" lon="19.01162">
        <ele>122.05793</ele>
        <time>2022-05-27T09:25:20.889Z</time>
      </trkpt>
      <trkpt lat="42.16685" lon="19.01148">
        <ele>123.005215</ele>
        <time>2022-05-27T09:25:26.869Z</time>
      </trkpt>
      <trkpt lat="42.16688" lon="19.01137">
        <ele>123.821037</ele>
        <time>2022-05-27T09:25:31.881Z</time>
      </trkpt>
      <trkpt lat="42.16692" lon="19.01125">
        <ele>124.675977</ele>
        <time>2022-05-27T09:25:37.880Z</time>
      </trkpt>
      <trkpt lat="42.16697" lon="19.01113">
        <ele>125.614927</ele>
        <time>2022-05-27T09:25:43.938Z</time>
      </trkpt>
      <trkpt lat="42.16701" lon="19.01102">
        <ele>126.465731</ele>
        <time>2022-05-27T09:25:49.879Z</time>
      </trkpt>
      <trkpt lat="42.16706" lon="19.01091">
        <ele>127.344443</ele>
        <time>2022-05-27T09:25:55.869Z</time>
      </trkpt>
      <trkpt lat="42.16712" lon="19.0108">
        <ele>128.196419</ele>
        <time>2022-05-27T09:26:01.866Z</time>
      </trkpt>
      <trkpt lat="42.16718" lon="19.0107">
        <ele>129.059966</ele>
        <time>2022-05-27T09:26:07.912Z</time>
      </trkpt>
      <trkpt lat="42.16724" lon="19.01061">
        <ele>129.891849</ele>
        <time>2022-05-27T09:26:14.856Z</time>
      </trkpt>
      <trkpt lat="42.16731" lon="19.01052">
        <ele>130.796343</ele>
        <time>2022-05-27T09:26:22.867Z</time>
      </trkpt>
      <trkpt lat="42.16738" lon="19.01044">
        <ele>131.645271</ele>
        <time>2022-05-27T09:26:29.869Z</time>
      </trkpt>
      <trkpt lat="42.16746" lon="19.01037">
        <ele>132.519983</ele>
        <time>2022-05-27T09:26:37.975Z</time>
      </trkpt>
      <trkpt lat="42.16755" lon="19.0103">
        <ele>133.390282</ele>
        <time>2022-05-27T09:26:44.877Z</time>
      </trkpt>
      <trkpt lat="42.16764" lon="19.01024">
        <ele>134.338746</ele>
        <time>2022-05-27T09:26:51.881Z</time>
      </trkpt>
      <trkpt lat="42.16774" lon="19.01019">
        <ele>135.268214</ele>
        <time>2022-05-27T09:26:59.909Z</time>
      </trkpt>
      <trkpt lat="42.16783" lon="19.01015">
        <ele>136.186344</ele>
        <time>2022-05-27T09:27:07.874Z</time>
      </trkpt>
      <trkpt lat="42.16793" lon="19.01011">
        <ele>137.085805</ele>
        <time>2022-05-27T09:27:14.861Z</time>
      </trkpt>
      <trkpt lat="42.16803" lon="19.01009">
        <ele>137.611515</ele>
        <time>2022-05-27T09:27:21.894Z</time>
      </trkpt>
      <trkpt lat="42.16813" lon="19.01007">
        <ele>138.086687</ele>
        <time>2022-05-27T09:27:28.867Z</time>
      </trkpt>
      <trkpt lat="42.16823" lon="19.01008">
        <ele>138.623264</ele>
        <time>2022-05-27T09:27:35.875Z</time>
      </trkpt>
      <trkpt lat="42.16833" lon="19.01009">
        <ele>139.097918</ele>
        <time>2022-05-27T09:27:43.902Z</time>
      </trkpt>
      <trkpt lat="42.16841" lon="19.01011">
        <ele>139.550675</ele>
        <time>2022-05-27T09:27:50.860Z</time>
      </trkpt>
      <trkpt lat="42.16851" lon="19.01013">
        <ele>140.02036</ele>
        <time>2022-05-27T09:27:57.870Z</time>
      </trkpt>
      <trkpt lat="42.1686" lon="19.01016">
        <ele>140.519818</ele>
        <time>2022-05-27T09:28:04.855Z</time>
      </trkpt>
      <trkpt lat="42.16869" lon="19.0102">
        <ele>141.00868</ele>
        <time>2022-05-27T09:28:12.904Z</time>
      </trkpt>
      <trkpt lat="42.16878" lon="19.01023">
        <ele>141.478599</ele>
        <time>2022-05-27T09:28:20.882Z</time>
      </trkpt>
      <trkpt lat="42.16888" lon="19.01028">
        <ele>141.974821</ele>
        <time>2022-05-27T09:28:27.870Z</time>
      </trkpt>
      <trkpt lat="42.16897" lon="19.01033">
        <ele>142.4793</ele>
        <time>2022-05-27T09:28:34.897Z</time>
      </trkpt>
      <trkpt lat="42.16906" lon="19.01038">
        <ele>142.98157</ele>
        <time>2022-05-27T09:28:41.872Z</time>
      </trkpt>
      <trkpt lat="42.16915" lon="19.01042">
        <ele>143.470431</ele>
        <time>2022-05-27T09:28:48.853Z</time>
      </trkpt>
      <trkpt lat="42.16925" lon="19.01045">
        <ele>143.967519</ele>
        <time>2022-05-27T09:28:55.877Z</time>
      </trkpt>
      <trkpt lat="42.16935" lon="19.01048">
        <ele>144.50884</ele>
        <time>2022-05-27T09:29:03.881Z</time>
      </trkpt>
      <trkpt lat="42.16945" lon="19.01049">
        <ele>145.000343</ele>
        <time>2022-05-27T09:29:10.877Z</time>
      </trkpt>
      <trkpt lat="42.16954" lon="19.01048">
        <ele>145.471237</ele>
        <time>2022-05-27T09:29:18.866Z</time>
      </trkpt>
      <trkpt lat="42.16965" lon="19.01047">
        <ele>145.995195</ele>
        <time>2022-05-27T09:29:26.863Z</time>
      </trkpt>
      <trkpt lat="42.16974" lon="19.01044">
        <ele>146.999764</ele>
        <time>2022-05-27T09:29:33.861Z</time>
      </trkpt>
      <trkpt lat="42.16982" lon="19.01039">
        <ele>148.297611</ele>
        <time>2022-05-27T09:29:40.890Z</time>
      </trkpt>
      <trkpt lat="42.16991" lon="19.01033">
        <ele>149.711049</ele>
        <time>2022-05-27T09:29:48.906Z</time>
      </trkpt>
      <trkpt lat="42.16999" lon="19.01027">
        <ele>151.039896</ele>
        <time>2022-05-27T09:29:56.876Z</time>
      </trkpt>
      <trkpt lat="42.17007" lon="19.01018">
        <ele>152.524704</ele>
        <time>2022-05-27T09:30:04.880Z</time>
      </trkpt>
      <trkpt lat="42.17014" lon="19.0101">
        <ele>153.866739</ele>
        <time>2022-05-27T09:30:10.865Z</time>
      </trkpt>
      <trkpt lat="42.17021" lon="19.01001">
        <ele>155.173267</ele>
        <time>2022-05-27T09:30:16.902Z</time>
      </trkpt>
      <trkpt lat="42.17028" lon="19.00992">
        <ele>156.560432</ele>
        <time>2022-05-27T09:30:24.873Z</time>
      </trkpt>
      <trkpt lat="42.17033" lon="19.00981">
        <ele>157.868808</ele>
        <time>2022-05-27T09:30:32.869Z</time>
      </trkpt>
      <trkpt lat="42.17039" lon="19.00971">
        <ele>159.218928</ele>
        <time>2022-05-27T09:30:39.867Z</time>
      </trkpt>
      <trkpt lat="42.17044" lon="19.0096">
        <ele>160.614607</ele>
        <time>2022-05-27T09:30:46.877Z</time>
      </trkpt>
      <trkpt lat="42.1705" lon="19.0095">
        <ele>161.924471</ele>
        <time>2022-05-27T09:30:53.868Z</time>
      </trkpt>
      <trkpt lat="42.17058" lon="19.00941">
        <ele>163.340068</ele>
        <time>2022-05-27T09:31:02.874Z</time>
      </trkpt>
      <trkpt lat="42.17064" lon="19.00933">
        <ele>164.630177</ele>
        <time>2022-05-27T09:31:09.868Z</time>
      </trkpt>
      <trkpt lat="42.17072" lon="19.00924">
        <ele>166.015794</ele>
        <time>2022-05-27T09:31:17.912Z</time>
      </trkpt>
      <trkpt lat="42.17079" lon="19.00916">
        <ele>167.340226</ele>
        <time>2022-05-27T09:31:26.870Z</time>
      </trkpt>
      <trkpt lat="42.17086" lon="19.00908">
        <ele>168.750092</ele>
        <time>2022-05-27T09:31:33.860Z</time>
      </trkpt>
      <trkpt lat="42.17094" lon="19.009">
        <ele>170.095251</ele>
        <time>2022-05-27T09:31:40.869Z</time>
      </trkpt>
      <trkpt lat="42.17102" lon="19.00893">
        <ele>171.464879</ele>
        <time>2022-05-27T09:31:47.885Z</time>
      </trkpt>
      <trkpt lat="42.1711" lon="19.00886">
        <ele>171.939171</ele>
        <time>2022-05-27T09:31:55.870Z</time>
      </trkpt>
      <trkpt lat="42.17118" lon="19.00881">
        <ele>172.289449</ele>
        <time>2022-05-27T09:32:02.870Z</time>
      </trkpt>
      <trkpt lat="42.17127" lon="19.00876">
        <ele>172.627792</ele>
        <time>2022-05-27T09:32:09.850Z</time>
      </trkpt>
      <trkpt lat="42.17136" lon="19.00872">
        <ele>172.976978</ele>
        <time>2022-05-27T09:32:16.865Z</time>
      </trkpt>
      <trkpt lat="42.17145" lon="19.00868">
        <ele>173.329668</ele>
        <time>2022-05-27T09:32:24.869Z</time>
      </trkpt>
      <trkpt lat="42.17154" lon="19.00864">
        <ele>173.676225</ele>
        <time>2022-05-27T09:32:32.845Z</time>
      </trkpt>
      <trkpt lat="42.17163" lon="19.00862">
        <ele>174.010743</ele>
        <time>2022-05-27T09:32:40.878Z</time>
      </trkpt>
      <trkpt lat="42.17174" lon="19.00858">
        <ele>174.40211</ele>
        <time>2022-05-27T09:32:49.876Z</time>
      </trkpt>
      <trkpt lat="42.17183" lon="19.00856">
        <ele>174.754188</ele>
        <time>2022-05-27T09:32:57.878Z</time>
      </trkpt>
      <trkpt lat="42.17193" lon="19.00854">
        <ele>175.112668</ele>
        <time>2022-05-27T09:33:06.894Z</time>
      </trkpt>
      <trkpt lat="42.17203" lon="19.00852">
        <ele>175.491345</ele>
        <time>2022-05-27T09:33:16.874Z</time>
      </trkpt>
      <trkpt lat="42.17212" lon="19.0085">
        <ele>175.832158</ele>
        <time>2022-05-27T09:33:25.877Z</time>
      </trkpt>
      <trkpt lat="42.17221" lon="19.00846">
        <ele>176.166602</ele>
        <time>2022-05-27T09:33:33.867Z</time>
      </trkpt>
      <trkpt lat="42.1723" lon="19.00844">
        <ele>176.503805</ele>
        <time>2022-05-27T09:33:42.914Z</time>
      </trkpt>
      <trkpt lat="42.17239" lon="19.00839">
        <ele>176.857745</ele>
        <time>2022-05-27T09:33:51.873Z</time>
      </trkpt>
      <trkpt lat="42.17248" lon="19.00835">
        <ele>177.206931</ele>
        <time>2022-05-27T09:33:57.859Z</time>
      </trkpt>
      <trkpt lat="42.17256" lon="19.0083">
        <ele>177.541616</ele>
        <time>2022-05-27T09:34:06.879Z</time>
      </trkpt>
      <trkpt lat="42.17264" lon="19.00824">
        <ele>177.87699</ele>
        <time>2022-05-27T09:34:17.877Z</time>
      </trkpt>
      <trkpt lat="42.17273" lon="19.00817">
        <ele>178.233411</ele>
        <time>2022-05-27T09:34:26.865Z</time>
      </trkpt>
      <trkpt lat="42.1728" lon="19.0081">
        <ele>178.25933</ele>
        <time>2022-05-27T09:34:35.882Z</time>
      </trkpt>
      <trkpt lat="42.17289" lon="19.00802">
        <ele>178.288676</ele>
        <time>2022-05-27T09:34:40.888Z</time>
      </trkpt>
      <trkpt lat="42.17296" lon="19.00795">
        <ele>178.314803</ele>
        <time>2022-05-27T09:34:48.872Z</time>
      </trkpt>
      <trkpt lat="42.173" lon="19.00783">
        <ele>178.342091</ele>
        <time>2022-05-27T09:34:54.923Z</time>
      </trkpt>
      <trkpt lat="42.17307" lon="19.00775">
        <ele>178.369547</ele>
        <time>2022-05-27T09:35:02.877Z</time>
      </trkpt>
      <trkpt lat="42.17314" lon="19.00766">
        <ele>178.396108</ele>
        <time>2022-05-27T09:35:14.881Z</time>
      </trkpt>
      <trkpt lat="42.17316" lon="19.00753">
        <ele>178.424341</ele>
        <time>2022-05-27T09:35:21.867Z</time>
      </trkpt>
      <trkpt lat="42.17321" lon="19.00743">
        <ele>178.451776</ele>
        <time>2022-05-27T09:35:28.869Z</time>
      </trkpt>
      <trkpt lat="42.17325" lon="19.00732">
        <ele>178.478293</ele>
        <time>2022-05-27T09:35:36.870Z</time>
      </trkpt>
      <trkpt lat="42.17328" lon="19.00718">
        <ele>178.507423</ele>
        <time>2022-05-27T09:35:44.883Z</time>
      </trkpt>
      <trkpt lat="42.1733" lon="19.00706">
        <ele>178.534053</ele>
        <time>2022-05-27T09:35:50.905Z</time>
      </trkpt>
      <trkpt lat="42.17334" lon="19.00694">
        <ele>178.561853</ele>
        <time>2022-05-27T09:35:57.859Z</time>
      </trkpt>
      <trkpt lat="42.17339" lon="19.00683">
        <ele>178.589863</ele>
        <time>2022-05-27T09:36:03.878Z</time>
      </trkpt>
      <trkpt lat="42.17342" lon="19.0067">
        <ele>178.617977</ele>
        <time>2022-05-27T09:36:11.856Z</time>
      </trkpt>
      <trkpt lat="42.17343" lon="19.00657">
        <ele>178.645617</ele>
        <time>2022-05-27T09:36:19.868Z</time>
      </trkpt>
      <trkpt lat="42.17344" lon="19.00644">
        <ele>178.673282</ele>
        <time>2022-05-27T09:36:27.869Z</time>
      </trkpt>
      <trkpt lat="42.17344" lon="19.00631">
        <ele>178.701886</ele>
        <time>2022-05-27T09:36:35.855Z</time>
      </trkpt>
      <trkpt lat="42.17343" lon="19.00618">
        <ele>178.730429</ele>
        <time>2022-05-27T09:36:42.868Z</time>
      </trkpt>
      <trkpt lat="42.17341" lon="19.00606">
        <ele>178.822294</ele>
        <time>2022-05-27T09:36:49.883Z</time>
      </trkpt>
      <trkpt lat="42.17338" lon="19.00594">
        <ele>179.131766</ele>
        <time>2022-05-27T09:36:56.885Z</time>
      </trkpt>
      <trkpt lat="42.17335" lon="19.00581">
        <ele>179.461791</ele>
        <time>2022-05-27T09:37:04.934Z</time>
      </trkpt>
      <trkpt lat="42.17331" lon="19.0057">
        <ele>179.759587</ele>
        <time>2022-05-27T09:37:10.882Z</time>
      </trkpt>
      <trkpt lat="42.17326" lon="19.0056">
        <ele>180.068868</ele>
        <time>2022-05-27T09:37:17.935Z</time>
      </trkpt>
      <trkpt lat="42.17319" lon="19.00549">
        <ele>180.410759</ele>
        <time>2022-05-27T09:37:24.885Z</time>
      </trkpt>
      <trkpt lat="42.17313" lon="19.00538">
        <ele>180.745989</ele>
        <time>2022-05-27T09:37:32.868Z</time>
      </trkpt>
      <trkpt lat="42.17306" lon="19.00528">
        <ele>181.079839</ele>
        <time>2022-05-27T09:37:39.910Z</time>
      </trkpt>
      <trkpt lat="42.173" lon="19.00518">
        <ele>181.393628</ele>
        <time>2022-05-27T09:37:46.863Z</time>
      </trkpt>
      <trkpt lat="42.17294" lon="19.00508">
        <ele>181.717077</ele>
        <time>2022-05-27T09:37:54.880Z</time>
      </trkpt>
      <trkpt lat="42.17288" lon="19.00498">
        <ele>182.022408</ele>
        <time>2022-05-27T09:38:01.907Z</time>
      </trkpt>
      <trkpt lat="42.17282" lon="19.00489">
        <ele>182.332778</ele>
        <time>2022-05-27T09:38:08.897Z</time>
      </trkpt>
      <trkpt lat="42.17276" lon="19.00479">
        <ele>182.640158</ele>
        <time>2022-05-27T09:38:15.866Z</time>
      </trkpt>
      <trkpt lat="42.17271" lon="19.00469">
        <ele>182.953556</ele>
        <time>2022-05-27T09:38:22.875Z</time>
      </trkpt>
      <trkpt lat="42.17265" lon="19.00458">
        <ele>183.276737</ele>
        <time>2022-05-27T09:38:29.846Z</time>
      </trkpt>
      <trkpt lat="42.17259" lon="19.00448">
        <ele>183.584645</ele>
        <time>2022-05-27T09:38:36.861Z</time>
      </trkpt>
      <trkpt lat="42.17253" lon="19.00438">
        <ele>183.911902</ele>
        <time>2022-05-27T09:38:44.872Z</time>
      </trkpt>
      <trkpt lat="42.17247" lon="19.00427">
        <ele>184.232994</ele>
        <time>2022-05-27T09:38:52.858Z</time>
      </trkpt>
      <trkpt lat="42.17241" lon="19.00417">
        <ele>184.554086</ele>
        <time>2022-05-27T09:39:00.877Z</time>
      </trkpt>
      <trkpt lat="42.17236" lon="19.00406">
        <ele>185.336921</ele>
        <time>2022-05-27T09:39:07.881Z</time>
      </trkpt>
      <trkpt lat="42.17232" lon="19.00394">
        <ele>186.548335</ele>
        <time>2022-05-27T09:39:15.875Z</time>
      </trkpt>
      <trkpt lat="42.17228" lon="19.00381">
        <ele>187.875524</ele>
        <time>2022-05-27T09:39:22.866Z</time>
      </trkpt>
      <trkpt lat="42.17223" lon="19.00369">
        <ele>189.170156</ele>
        <time>2022-05-27T09:39:30.919Z</time>
      </trkpt>
      <trkpt lat="42.1722" lon="19.00357">
        <ele>190.334723</ele>
        <time>2022-05-27T09:39:37.875Z</time>
      </trkpt>
      <trkpt lat="42.17218" lon="19.00344">
        <ele>191.570895</ele>
        <time>2022-05-27T09:39:44.880Z</time>
      </trkpt>
      <trkpt lat="42.17215" lon="19.00332">
        <ele>192.699785</ele>
        <time>2022-05-27T09:39:51.876Z</time>
      </trkpt>
      <trkpt lat="42.17214" lon="19.0032">
        <ele>193.853489</ele>
        <time>2022-05-27T09:39:59.861Z</time>
      </trkpt>
      <trkpt lat="42.17213" lon="19.00307">
        <ele>195.072107</ele>
        <time>2022-05-27T09:40:07.870Z</time>
      </trkpt>
      <trkpt lat="42.17213" lon="19.00293">
        <ele>196.314486</ele>
        <time>2022-05-27T09:40:15.868Z</time>
      </trkpt>
      <trkpt lat="42.17214" lon="19.0028">
        <ele>197.506505</ele>
        <time>2022-05-27T09:40:23.873Z</time>
      </trkpt>
      <trkpt lat="42.17215" lon="19.00268">
        <ele>198.677061</ele>
        <time>2022-05-27T09:40:31.864Z</time>
      </trkpt>
      <trkpt lat="42.17216" lon="19.00255">
        <ele>199.867432</ele>
        <time>2022-05-27T09:40:39.876Z</time>
      </trkpt>
      <trkpt lat="42.17218" lon="19.00243">
        <ele>200.988691</ele>
        <time>2022-05-27T09:40:46.877Z</time>
      </trkpt>
      <trkpt lat="42.1722" lon="19.0023">
        <ele>202.212767</ele>
        <time>2022-05-27T09:40:54.887Z</time>
      </trkpt>
      <trkpt lat="42.17222" lon="19.00216">
        <ele>203.560322</ele>
        <time>2022-05-27T09:41:02.878Z</time>
      </trkpt>
      <trkpt lat="42.17226" lon="19.00204">
        <ele>204.77511</ele>
        <time>2022-05-27T09:41:09.907Z</time>
      </trkpt>
      <trkpt lat="42.1723" lon="19.00192">
        <ele>206.059382</ele>
        <time>2022-05-27T09:41:16.861Z</time>
      </trkpt>
      <trkpt lat="42.17233" lon="19.0018">
        <ele>207.212069</ele>
        <time>2022-05-27T09:41:23.881Z</time>
      </trkpt>
      <trkpt lat="42.1724" lon="19.00168">
        <ele>208.218122</ele>
        <time>2022-05-27T09:41:31.912Z</time>
      </trkpt>
      <trkpt lat="42.17245" lon="19.00158">
        <ele>209.082183</ele>
        <time>2022-05-27T09:41:38.862Z</time>
      </trkpt>
      <trkpt lat="42.1725" lon="19.00147">
        <ele>210.031957</ele>
        <time>2022-05-27T09:41:46.869Z</time>
      </trkpt>
      <trkpt lat="42.17256" lon="19.00137">
        <ele>210.935651</ele>
        <time>2022-05-27T09:41:54.922Z</time>
      </trkpt>
      <trkpt lat="42.17262" lon="19.00128">
        <ele>211.80354</ele>
        <time>2022-05-27T09:42:01.859Z</time>
      </trkpt>
      <trkpt lat="42.17269" lon="19.00118">
        <ele>212.746606</ele>
        <time>2022-05-27T09:42:09.880Z</time>
      </trkpt>
      <trkpt lat="42.17276" lon="19.00109">
        <ele>213.679223</ele>
        <time>2022-05-27T09:42:17.865Z</time>
      </trkpt>
      <trkpt lat="42.17283" lon="19.001">
        <ele>214.577993</ele>
        <time>2022-05-27T09:42:25.880Z</time>
      </trkpt>
      <trkpt lat="42.1729" lon="19.00092">
        <ele>215.464937</ele>
        <time>2022-05-27T09:42:33.901Z</time>
      </trkpt>
      <trkpt lat="42.17297" lon="19.00085">
        <ele>216.340741</ele>
        <time>2022-05-27T09:42:41.885Z</time>
      </trkpt>
      <trkpt lat="42.17305" lon="19.00079">
        <ele>217.195745</ele>
        <time>2022-05-27T09:42:48.856Z</time>
      </trkpt>
      <trkpt lat="42.17313" lon="19.00073">
        <ele>218.083365</ele>
        <time>2022-05-27T09:42:55.884Z</time>
      </trkpt>
      <trkpt lat="42.17321" lon="19.00066">
        <ele>218.986438</ele>
        <time>2022-05-27T09:43:02.864Z</time>
      </trkpt>
      <trkpt lat="42.1733" lon="19.0006">
        <ele>219.939143</ele>
        <time>2022-05-27T09:43:10.870Z</time>
      </trkpt>
      <trkpt lat="42.17338" lon="19.00054">
        <ele>220.823176</ele>
        <time>2022-05-27T09:43:17.860Z</time>
      </trkpt>
      <trkpt lat="42.17346" lon="19.00048">
        <ele>221.705687</ele>
        <time>2022-05-27T09:43:25.862Z</time>
      </trkpt>
      <trkpt lat="42.17355" lon="19.00043">
        <ele>222.576516</ele>
        <time>2022-05-27T09:43:32.883Z</time>
      </trkpt>
      <trkpt lat="42.17363" lon="19.00037">
        <ele>223.507097</ele>
        <time>2022-05-27T09:43:39.904Z</time>
      </trkpt>
      <trkpt lat="42.17371" lon="19.0003">
        <ele>224.38397</ele>
        <time>2022-05-27T09:43:46.857Z</time>
      </trkpt>
      <trkpt lat="42.17379" lon="19.00024">
        <ele>224.919689</ele>
        <time>2022-05-27T09:43:53.867Z</time>
      </trkpt>
      <trkpt lat="42.17387" lon="19.00017">
        <ele>225.453239</ele>
        <time>2022-05-27T09:44:01.862Z</time>
      </trkpt>
      <trkpt lat="42.17395" lon="19.00008">
        <ele>226.062498</ele>
        <time>2022-05-27T09:44:09.880Z</time>
      </trkpt>
      <trkpt lat="42.17402" lon="19">
        <ele>226.638894</ele>
        <time>2022-05-27T09:44:17.876Z</time>
      </trkpt>
      <trkpt lat="42.1741" lon="18.99991">
        <ele>227.235342</ele>
        <time>2022-05-27T09:44:25.899Z</time>
      </trkpt>
      <trkpt lat="42.17417" lon="18.99982">
        <ele>227.828064</ele>
        <time>2022-05-27T09:44:32.878Z</time>
      </trkpt>
      <trkpt lat="42.17424" lon="18.99973">
        <ele>228.388959</ele>
        <time>2022-05-27T09:44:40.874Z</time>
      </trkpt>
      <trkpt lat="42.17431" lon="18.99964">
        <ele>228.960124</ele>
        <time>2022-05-27T09:44:47.896Z</time>
      </trkpt>
      <trkpt lat="42.17438" lon="18.99953">
        <ele>229.565994</ele>
        <time>2022-05-27T09:44:54.871Z</time>
      </trkpt>
      <trkpt lat="42.17444" lon="18.99942">
        <ele>230.139942</ele>
        <time>2022-05-27T09:45:01.874Z</time>
      </trkpt>
      <trkpt lat="42.1745" lon="18.99933">
        <ele>230.684686</ele>
        <time>2022-05-27T09:45:08.869Z</time>
      </trkpt>
      <trkpt lat="42.17455" lon="18.99922">
        <ele>231.283917</ele>
        <time>2022-05-27T09:45:16.879Z</time>
      </trkpt>
      <trkpt lat="42.17461" lon="18.99912">
        <ele>231.812529</ele>
        <time>2022-05-27T09:45:23.884Z</time>
      </trkpt>
      <trkpt lat="42.17467" lon="18.99902">
        <ele>232.379326</ele>
        <time>2022-05-27T09:45:30.858Z</time>
      </trkpt>
      <trkpt lat="42.17472" lon="18.99892">
        <ele>232.907642</ele>
        <time>2022-05-27T09:45:38.894Z</time>
      </trkpt>
      <trkpt lat="42.17478" lon="18.99882">
        <ele>233.443096</ele>
        <time>2022-05-27T09:45:45.871Z</time>
      </trkpt>
      <trkpt lat="42.17483" lon="18.99873">
        <ele>233.979101</ele>
        <time>2022-05-27T09:45:52.872Z</time>
      </trkpt>
      <trkpt lat="42.17489" lon="18.99863">
        <ele>234.529781</ele>
        <time>2022-05-27T09:46:00.866Z</time>
      </trkpt>
      <trkpt lat="42.17496" lon="18.99854">
        <ele>234.929242</ele>
        <time>2022-05-27T09:46:08.881Z</time>
      </trkpt>
      <trkpt lat="42.17502" lon="18.99844">
        <ele>234.906164</ele>
        <time>2022-05-27T09:46:15.871Z</time>
      </trkpt>
      <trkpt lat="42.17508" lon="18.99835">
        <ele>234.883039</ele>
        <time>2022-05-27T09:46:23.870Z</time>
      </trkpt>
      <trkpt lat="42.17515" lon="18.99824">
        <ele>234.857852</ele>
        <time>2022-05-27T09:46:31.873Z</time>
      </trkpt>
      <trkpt lat="42.17522" lon="18.99814">
        <ele>234.833199</ele>
        <time>2022-05-27T09:46:39.876Z</time>
      </trkpt>
      <trkpt lat="42.17529" lon="18.99805">
        <ele>234.808468</ele>
        <time>2022-05-27T09:46:47.862Z</time>
      </trkpt>
      <trkpt lat="42.17536" lon="18.99796">
        <ele>234.786359</ele>
        <time>2022-05-27T09:46:53.851Z</time>
      </trkpt>
      <trkpt lat="42.17542" lon="18.99787">
        <ele>234.763432</ele>
        <time>2022-05-27T09:46:58.889Z</time>
      </trkpt>
      <trkpt lat="42.1755" lon="18.99777">
        <ele>234.737771</ele>
        <time>2022-05-27T09:47:04.869Z</time>
      </trkpt>
      <trkpt lat="42.17557" lon="18.99769">
        <ele>234.71506</ele>
        <time>2022-05-27T09:47:10.888Z</time>
      </trkpt>
      <trkpt lat="42.17559" lon="18.99754">
        <ele>234.68777</ele>
        <time>2022-05-27T09:47:15.876Z</time>
      </trkpt>
      <trkpt lat="42.17564" lon="18.99743">
        <ele>234.664159</ele>
        <time>2022-05-27T09:47:20.902Z</time>
      </trkpt>
      <trkpt lat="42.17574" lon="18.99737">
        <ele>234.638137</ele>
        <time>2022-05-27T09:47:25.869Z</time>
      </trkpt>
      <trkpt lat="42.17603" lon="18.99726">
        <ele>234.56445</ele>
        <time>2022-05-27T09:49:39.870Z</time>
      </trkpt>
      <trkpt lat="42.17613" lon="18.99735">
        <ele>234.534403</ele>
        <time>2022-05-27T09:49:43.869Z</time>
      </trkpt>
      <trkpt lat="42.17627" lon="18.99737">
        <ele>234.499638</ele>
        <time>2022-05-27T09:49:46.850Z</time>
      </trkpt>
      <trkpt lat="42.17638" lon="18.99739">
        <ele>234.252051</ele>
        <time>2022-05-27T09:49:48.872Z</time>
      </trkpt>
      <trkpt lat="42.17649" lon="18.99742">
        <ele>233.948753</ele>
        <time>2022-05-27T09:49:50.904Z</time>
      </trkpt>
      <trkpt lat="42.1766" lon="18.99745">
        <ele>233.638207</ele>
        <time>2022-05-27T09:49:52.858Z</time>
      </trkpt>
      <trkpt lat="42.17671" lon="18.99746">
        <ele>233.331761</ele>
        <time>2022-05-27T09:49:54.874Z</time>
      </trkpt>
      <trkpt lat="42.17683" lon="18.99746">
        <ele>233.031324</ele>
        <time>2022-05-27T09:49:56.888Z</time>
      </trkpt>
      <trkpt lat="42.17695" lon="18.99745">
        <ele>232.692913</ele>
        <time>2022-05-27T09:49:58.870Z</time>
      </trkpt>
      <trkpt lat="42.17708" lon="18.99743">
        <ele>232.328952</ele>
        <time>2022-05-27T09:50:00.876Z</time>
      </trkpt>
      <trkpt lat="42.17722" lon="18.99738">
        <ele>231.961486</ele>
        <time>2022-05-27T09:50:02.871Z</time>
      </trkpt>
      <trkpt lat="42.17734" lon="18.99733">
        <ele>231.603122</ele>
        <time>2022-05-27T09:50:04.856Z</time>
      </trkpt>
      <trkpt lat="42.17748" lon="18.99726">
        <ele>231.21269</ele>
        <time>2022-05-27T09:50:06.864Z</time>
      </trkpt>
      <trkpt lat="42.17762" lon="18.99719">
        <ele>230.788811</ele>
        <time>2022-05-27T09:50:08.902Z</time>
      </trkpt>
      <trkpt lat="42.17778" lon="18.99711">
        <ele>230.342573</ele>
        <time>2022-05-27T09:50:10.881Z</time>
      </trkpt>
      <trkpt lat="42.17794" lon="18.99702">
        <ele>229.879253</ele>
        <time>2022-05-27T09:50:12.854Z</time>
      </trkpt>
      <trkpt lat="42.1781" lon="18.99693">
        <ele>229.1669</ele>
        <time>2022-05-27T09:50:14.880Z</time>
      </trkpt>
      <trkpt lat="42.17818" lon="18.99688">
        <ele>228.657751</ele>
        <time>2022-05-27T09:50:15.870Z</time>
      </trkpt>
      <trkpt lat="42.17826" lon="18.99682">
        <ele>228.147584</ele>
        <time>2022-05-27T09:50:16.855Z</time>
      </trkpt>
      <trkpt lat="42.17842" lon="18.99671">
        <ele>227.162188</ele>
        <time>2022-05-27T09:50:18.873Z</time>
      </trkpt>
      <trkpt lat="42.17857" lon="18.9966">
        <ele>226.196114</ele>
        <time>2022-05-27T09:50:20.873Z</time>
      </trkpt>
      <trkpt lat="42.17873" lon="18.9965">
        <ele>225.212476</ele>
        <time>2022-05-27T09:50:22.892Z</time>
      </trkpt>
      <trkpt lat="42.17882" lon="18.99645">
        <ele>224.702058</ele>
        <time>2022-05-27T09:50:23.873Z</time>
      </trkpt>
      <trkpt lat="42.17891" lon="18.9964">
        <ele>224.152181</ele>
        <time>2022-05-27T09:50:24.914Z</time>
      </trkpt>
      <trkpt lat="42.17901" lon="18.99636">
        <ele>223.577979</ele>
        <time>2022-05-27T09:50:25.878Z</time>
      </trkpt>
      <trkpt lat="42.17911" lon="18.99632">
        <ele>222.990407</ele>
        <time>2022-05-27T09:50:26.862Z</time>
      </trkpt>
      <trkpt lat="42.17921" lon="18.99628">
        <ele>222.420378</ele>
        <time>2022-05-27T09:50:27.868Z</time>
      </trkpt>
      <trkpt lat="42.17931" lon="18.99625">
        <ele>221.85085</ele>
        <time>2022-05-27T09:50:28.874Z</time>
      </trkpt>
      <trkpt lat="42.17941" lon="18.99622">
        <ele>221.266712</ele>
        <time>2022-05-27T09:50:29.887Z</time>
      </trkpt>
      <trkpt lat="42.17951" lon="18.9962">
        <ele>220.68883</ele>
        <time>2022-05-27T09:50:30.900Z</time>
      </trkpt>
      <trkpt lat="42.17961" lon="18.99618">
        <ele>220.14554</ele>
        <time>2022-05-27T09:50:31.883Z</time>
      </trkpt>
      <trkpt lat="42.17971" lon="18.99617">
        <ele>219.566571</ele>
        <time>2022-05-27T09:50:32.881Z</time>
      </trkpt>
      <trkpt lat="42.17982" lon="18.99615">
        <ele>218.952988</ele>
        <time>2022-05-27T09:50:33.874Z</time>
      </trkpt>
      <trkpt lat="42.17992" lon="18.99612">
        <ele>218.291971</ele>
        <time>2022-05-27T09:50:34.865Z</time>
      </trkpt>
      <trkpt lat="42.18004" lon="18.99609">
        <ele>217.59069</ele>
        <time>2022-05-27T09:50:35.873Z</time>
      </trkpt>
      <trkpt lat="42.18013" lon="18.99605">
        <ele>217.000912</ele>
        <time>2022-05-27T09:50:36.868Z</time>
      </trkpt>
      <trkpt lat="42.18028" lon="18.99595">
        <ele>216.042259</ele>
        <time>2022-05-27T09:50:38.873Z</time>
      </trkpt>
      <trkpt lat="42.18035" lon="18.99588">
        <ele>215.485996</ele>
        <time>2022-05-27T09:50:39.856Z</time>
      </trkpt>
      <trkpt lat="42.18043" lon="18.9958">
        <ele>214.902825</ele>
        <time>2022-05-27T09:50:40.872Z</time>
      </trkpt>
      <trkpt lat="42.18051" lon="18.99571">
        <ele>214.293556</ele>
        <time>2022-05-27T09:50:41.883Z</time>
      </trkpt>
      <trkpt lat="42.1806" lon="18.99562">
        <ele>213.631541</ele>
        <time>2022-05-27T09:50:42.883Z</time>
      </trkpt>
      <trkpt lat="42.18068" lon="18.99553">
        <ele>213.001085</ele>
        <time>2022-05-27T09:50:43.862Z</time>
      </trkpt>
      <trkpt lat="42.18076" lon="18.99544">
        <ele>212.380827</ele>
        <time>2022-05-27T09:50:44.849Z</time>
      </trkpt>
      <trkpt lat="42.18083" lon="18.99536">
        <ele>211.810598</ele>
        <time>2022-05-27T09:50:45.886Z</time>
      </trkpt>
      <trkpt lat="42.18096" lon="18.99524">
        <ele>210.86121</ele>
        <time>2022-05-27T09:50:47.871Z</time>
      </trkpt>
      <trkpt lat="42.18104" lon="18.99517">
        <ele>210.319469</ele>
        <time>2022-05-27T09:50:48.871Z</time>
      </trkpt>
      <trkpt lat="42.18112" lon="18.99511">
        <ele>209.77568</ele>
        <time>2022-05-27T09:50:49.873Z</time>
      </trkpt>
      <trkpt lat="42.18122" lon="18.99504">
        <ele>209.078554</ele>
        <time>2022-05-27T09:50:50.879Z</time>
      </trkpt>
      <trkpt lat="42.18137" lon="18.99494">
        <ele>208.120648</ele>
        <time>2022-05-27T09:50:52.917Z</time>
      </trkpt>
      <trkpt lat="42.18152" lon="18.99483">
        <ele>207.071785</ele>
        <time>2022-05-27T09:50:54.881Z</time>
      </trkpt>
      <trkpt lat="42.18161" lon="18.99477">
        <ele>206.513812</ele>
        <time>2022-05-27T09:50:55.914Z</time>
      </trkpt>
      <trkpt lat="42.1817" lon="18.99472">
        <ele>205.9105</ele>
        <time>2022-05-27T09:50:56.891Z</time>
      </trkpt>
      <trkpt lat="42.18179" lon="18.99467">
        <ele>205.354218</ele>
        <time>2022-05-27T09:50:57.881Z</time>
      </trkpt>
      <trkpt lat="42.18195" lon="18.9946">
        <ele>204.33505</ele>
        <time>2022-05-27T09:50:59.877Z</time>
      </trkpt>
      <trkpt lat="42.18212" lon="18.99453">
        <ele>203.269467</ele>
        <time>2022-05-27T09:51:01.883Z</time>
      </trkpt>
      <trkpt lat="42.18221" lon="18.9945">
        <ele>202.692834</ele>
        <time>2022-05-27T09:51:02.862Z</time>
      </trkpt>
      <trkpt lat="42.18231" lon="18.99447">
        <ele>202.13271</ele>
        <time>2022-05-27T09:51:03.906Z</time>
      </trkpt>
      <trkpt lat="42.1824" lon="18.99445">
        <ele>201.575151</ele>
        <time>2022-05-27T09:51:04.854Z</time>
      </trkpt>
      <trkpt lat="42.1825" lon="18.99443">
        <ele>200.975763</ele>
        <time>2022-05-27T09:51:05.863Z</time>
      </trkpt>
      <trkpt lat="42.18259" lon="18.9944">
        <ele>200.388882</ele>
        <time>2022-05-27T09:51:06.852Z</time>
      </trkpt>
      <trkpt lat="42.18269" lon="18.99439">
        <ele>199.799512</ele>
        <time>2022-05-27T09:51:07.848Z</time>
      </trkpt>
      <trkpt lat="42.18279" lon="18.99437">
        <ele>199.201257</ele>
        <time>2022-05-27T09:51:08.851Z</time>
      </trkpt>
      <trkpt lat="42.1829" lon="18.99436">
        <ele>198.579946</ele>
        <time>2022-05-27T09:51:09.882Z</time>
      </trkpt>
      <trkpt lat="42.183" lon="18.99436">
        <ele>197.913316</ele>
        <time>2022-05-27T09:51:10.846Z</time>
      </trkpt>
      <trkpt lat="42.1831" lon="18.99436">
        <ele>197.11409</ele>
        <time>2022-05-27T09:51:11.864Z</time>
      </trkpt>
      <trkpt lat="42.1832" lon="18.99436">
        <ele>196.274502</ele>
        <time>2022-05-27T09:51:12.878Z</time>
      </trkpt>
      <trkpt lat="42.1833" lon="18.99436">
        <ele>195.442987</ele>
        <time>2022-05-27T09:51:13.852Z</time>
      </trkpt>
      <trkpt lat="42.18341" lon="18.99436">
        <ele>194.595263</ele>
        <time>2022-05-27T09:51:14.858Z</time>
      </trkpt>
      <trkpt lat="42.18351" lon="18.99435">
        <ele>193.730463</ele>
        <time>2022-05-27T09:51:15.858Z</time>
      </trkpt>
      <trkpt lat="42.18361" lon="18.99434">
        <ele>192.951586</ele>
        <time>2022-05-27T09:51:16.842Z</time>
      </trkpt>
      <trkpt lat="42.18378" lon="18.99427">
        <ele>191.551133</ele>
        <time>2022-05-27T09:51:18.902Z</time>
      </trkpt>
      <trkpt lat="42.18391" lon="18.99412">
        <ele>190.136995</ele>
        <time>2022-05-27T09:51:20.852Z</time>
      </trkpt>
      <trkpt lat="42.184" lon="18.99402">
        <ele>189.22216</ele>
        <time>2022-05-27T09:51:21.870Z</time>
      </trkpt>
      <trkpt lat="42.18408" lon="18.99392">
        <ele>188.311903</ele>
        <time>2022-05-27T09:51:22.881Z</time>
      </trkpt>
      <trkpt lat="42.18415" lon="18.9938">
        <ele>187.411314</ele>
        <time>2022-05-27T09:51:23.893Z</time>
      </trkpt>
      <trkpt lat="42.18422" lon="18.99367">
        <ele>186.459618</ele>
        <time>2022-05-27T09:51:24.876Z</time>
      </trkpt>
      <trkpt lat="42.18429" lon="18.99352">
        <ele>185.421724</ele>
        <time>2022-05-27T09:51:25.935Z</time>
      </trkpt>
      <trkpt lat="42.18435" lon="18.99338">
        <ele>184.417277</ele>
        <time>2022-05-27T09:51:26.893Z</time>
      </trkpt>
      <trkpt lat="42.1844" lon="18.99325">
        <ele>183.584358</ele>
        <time>2022-05-27T09:51:27.865Z</time>
      </trkpt>
      <trkpt lat="42.18444" lon="18.99311">
        <ele>182.993814</ele>
        <time>2022-05-27T09:51:28.870Z</time>
      </trkpt>
      <trkpt lat="42.18448" lon="18.99298">
        <ele>182.420021</ele>
        <time>2022-05-27T09:51:29.854Z</time>
      </trkpt>
      <trkpt lat="42.18452" lon="18.99286">
        <ele>181.886929</ele>
        <time>2022-05-27T09:51:30.842Z</time>
      </trkpt>
      <trkpt lat="42.18457" lon="18.99274">
        <ele>181.327606</ele>
        <time>2022-05-27T09:51:31.871Z</time>
      </trkpt>
      <trkpt lat="42.18462" lon="18.9926">
        <ele>180.709352</ele>
        <time>2022-05-27T09:51:32.894Z</time>
      </trkpt>
      <trkpt lat="42.18468" lon="18.99247">
        <ele>180.093608</ele>
        <time>2022-05-27T09:51:33.876Z</time>
      </trkpt>
      <trkpt lat="42.18471" lon="18.99235">
        <ele>179.591701</ele>
        <time>2022-05-27T09:51:34.850Z</time>
      </trkpt>
      <trkpt lat="42.18477" lon="18.9921">
        <ele>178.516867</ele>
        <time>2022-05-27T09:51:36.889Z</time>
      </trkpt>
      <trkpt lat="42.1848" lon="18.99195">
        <ele>177.908704</ele>
        <time>2022-05-27T09:51:37.864Z</time>
      </trkpt>
      <trkpt lat="42.18482" lon="18.99181">
        <ele>177.318864</ele>
        <time>2022-05-27T09:51:38.869Z</time>
      </trkpt>
      <trkpt lat="42.18484" lon="18.99168">
        <ele>176.811489</ele>
        <time>2022-05-27T09:51:39.864Z</time>
      </trkpt>
      <trkpt lat="42.18487" lon="18.99154">
        <ele>176.210471</ele>
        <time>2022-05-27T09:51:40.880Z</time>
      </trkpt>
      <trkpt lat="42.18491" lon="18.9914">
        <ele>175.623612</ele>
        <time>2022-05-27T09:51:41.857Z</time>
      </trkpt>
      <trkpt lat="42.18495" lon="18.99127">
        <ele>175.035048</ele>
        <time>2022-05-27T09:51:42.865Z</time>
      </trkpt>
      <trkpt lat="42.18499" lon="18.99113">
        <ele>174.429368</ele>
        <time>2022-05-27T09:51:43.879Z</time>
      </trkpt>
      <trkpt lat="42.18503" lon="18.99099">
        <ele>173.813555</ele>
        <time>2022-05-27T09:51:44.878Z</time>
      </trkpt>
      <trkpt lat="42.18507" lon="18.99088">
        <ele>173.11458</ele>
        <time>2022-05-27T09:51:45.869Z</time>
      </trkpt>
      <trkpt lat="42.18512" lon="18.99074">
        <ele>172.251452</ele>
        <time>2022-05-27T09:51:46.868Z</time>
      </trkpt>
      <trkpt lat="42.18517" lon="18.9906">
        <ele>171.37857</ele>
        <time>2022-05-27T09:51:47.898Z</time>
      </trkpt>
      <trkpt lat="42.18522" lon="18.99048">
        <ele>170.616834</ele>
        <time>2022-05-27T09:51:48.872Z</time>
      </trkpt>
      <trkpt lat="42.18527" lon="18.99034">
        <ele>169.758442</ele>
        <time>2022-05-27T09:51:49.870Z</time>
      </trkpt>
      <trkpt lat="42.18533" lon="18.99021">
        <ele>168.889061</ele>
        <time>2022-05-27T09:51:50.875Z</time>
      </trkpt>
      <trkpt lat="42.18539" lon="18.99008">
        <ele>168.031307</ele>
        <time>2022-05-27T09:51:51.868Z</time>
      </trkpt>
      <trkpt lat="42.18545" lon="18.98995">
        <ele>167.16685</ele>
        <time>2022-05-27T09:51:52.871Z</time>
      </trkpt>
      <trkpt lat="42.18551" lon="18.98983">
        <ele>166.342891</ele>
        <time>2022-05-27T09:51:53.862Z</time>
      </trkpt>
      <trkpt lat="42.18557" lon="18.98971">
        <ele>165.564098</ele>
        <time>2022-05-27T09:51:54.861Z</time>
      </trkpt>
      <trkpt lat="42.18563" lon="18.98959">
        <ele>164.789962</ele>
        <time>2022-05-27T09:51:55.861Z</time>
      </trkpt>
      <trkpt lat="42.18568" lon="18.98948">
        <ele>164.041684</ele>
        <time>2022-05-27T09:51:56.865Z</time>
      </trkpt>
      <trkpt lat="42.18574" lon="18.98936">
        <ele>163.234701</ele>
        <time>2022-05-27T09:51:57.859Z</time>
      </trkpt>
      <trkpt lat="42.18579" lon="18.98924">
        <ele>162.447462</ele>
        <time>2022-05-27T09:51:58.890Z</time>
      </trkpt>
      <trkpt lat="42.18586" lon="18.98912">
        <ele>161.570602</ele>
        <time>2022-05-27T09:51:59.887Z</time>
      </trkpt>
      <trkpt lat="42.18593" lon="18.989">
        <ele>160.725144</ele>
        <time>2022-05-27T09:52:00.874Z</time>
      </trkpt>
      <trkpt lat="42.18607" lon="18.98883">
        <ele>159.161205</ele>
        <time>2022-05-27T09:52:02.861Z</time>
      </trkpt>
      <trkpt lat="42.18616" lon="18.98875">
        <ele>158.256872</ele>
        <time>2022-05-27T09:52:03.861Z</time>
      </trkpt>
      <trkpt lat="42.18624" lon="18.98867">
        <ele>157.375337</ele>
        <time>2022-05-27T09:52:04.856Z</time>
      </trkpt>
      <trkpt lat="42.18633" lon="18.98862">
        <ele>156.598401</ele>
        <time>2022-05-27T09:52:05.854Z</time>
      </trkpt>
      <trkpt lat="42.18649" lon="18.98859">
        <ele>155.168629</ele>
        <time>2022-05-27T09:52:07.865Z</time>
      </trkpt>
      <trkpt lat="42.18659" lon="18.98858">
        <ele>154.350927</ele>
        <time>2022-05-27T09:52:08.885Z</time>
      </trkpt>
      <trkpt lat="42.18668" lon="18.98859">
        <ele>153.505226</ele>
        <time>2022-05-27T09:52:09.897Z</time>
      </trkpt>
      <trkpt lat="42.18679" lon="18.98861">
        <ele>152.620041</ele>
        <time>2022-05-27T09:52:10.849Z</time>
      </trkpt>
      <trkpt lat="42.18689" lon="18.98864">
        <ele>151.721726</ele>
        <time>2022-05-27T09:52:11.869Z</time>
      </trkpt>
      <trkpt lat="42.18699" lon="18.98868">
        <ele>150.771245</ele>
        <time>2022-05-27T09:52:12.890Z</time>
      </trkpt>
      <trkpt lat="42.1871" lon="18.98872">
        <ele>149.800894</ele>
        <time>2022-05-27T09:52:13.935Z</time>
      </trkpt>
      <trkpt lat="42.18723" lon="18.98874">
        <ele>148.70406</ele>
        <time>2022-05-27T09:52:14.881Z</time>
      </trkpt>
      <trkpt lat="42.18735" lon="18.98877">
        <ele>147.681565</ele>
        <time>2022-05-27T09:52:15.903Z</time>
      </trkpt>
      <trkpt lat="42.18746" lon="18.98879">
        <ele>146.734987</ele>
        <time>2022-05-27T09:52:16.850Z</time>
      </trkpt>
      <trkpt lat="42.18756" lon="18.98881">
        <ele>145.847119</ele>
        <time>2022-05-27T09:52:17.883Z</time>
      </trkpt>
      <trkpt lat="42.1877" lon="18.98884">
        <ele>144.581931</ele>
        <time>2022-05-27T09:52:19.871Z</time>
      </trkpt>
      <trkpt lat="42.18781" lon="18.98885">
        <ele>143.730095</ele>
        <time>2022-05-27T09:52:20.916Z</time>
      </trkpt>
      <trkpt lat="42.1879" lon="18.98886">
        <ele>143.001367</ele>
        <time>2022-05-27T09:52:21.874Z</time>
      </trkpt>
      <trkpt lat="42.188" lon="18.98886">
        <ele>142.166774</ele>
        <time>2022-05-27T09:52:22.877Z</time>
      </trkpt>
      <trkpt lat="42.18812" lon="18.98887">
        <ele>141.210324</ele>
        <time>2022-05-27T09:52:23.861Z</time>
      </trkpt>
      <trkpt lat="42.18824" lon="18.98889">
        <ele>140.252691</ele>
        <time>2022-05-27T09:52:24.885Z</time>
      </trkpt>
      <trkpt lat="42.18835" lon="18.9889">
        <ele>139.325762</ele>
        <time>2022-05-27T09:52:25.859Z</time>
      </trkpt>
      <trkpt lat="42.18845" lon="18.98892">
        <ele>138.552658</ele>
        <time>2022-05-27T09:52:26.911Z</time>
      </trkpt>
      <trkpt lat="42.18855" lon="18.98895">
        <ele>137.706543</ele>
        <time>2022-05-27T09:52:27.970Z</time>
      </trkpt>
      <trkpt lat="42.18864" lon="18.989">
        <ele>136.889856</ele>
        <time>2022-05-27T09:52:28.857Z</time>
      </trkpt>
      <trkpt lat="42.18882" lon="18.9891">
        <ele>135.359667</ele>
        <time>2022-05-27T09:52:30.869Z</time>
      </trkpt>
      <trkpt lat="42.18892" lon="18.98915">
        <ele>134.49242</ele>
        <time>2022-05-27T09:52:31.869Z</time>
      </trkpt>
      <trkpt lat="42.18902" lon="18.9892">
        <ele>133.622999</ele>
        <time>2022-05-27T09:52:32.879Z</time>
      </trkpt>
      <trkpt lat="42.18912" lon="18.98925">
        <ele>132.708604</ele>
        <time>2022-05-27T09:52:33.878Z</time>
      </trkpt>
      <trkpt lat="42.18924" lon="18.98929">
        <ele>131.761673</ele>
        <time>2022-05-27T09:52:34.859Z</time>
      </trkpt>
      <trkpt lat="42.18933" lon="18.98932">
        <ele>130.998601</ele>
        <time>2022-05-27T09:52:35.860Z</time>
      </trkpt>
      <trkpt lat="42.18944" lon="18.98934">
        <ele>130.130277</ele>
        <time>2022-05-27T09:52:36.872Z</time>
      </trkpt>
      <trkpt lat="42.18953" lon="18.98928">
        <ele>129.368401</ele>
        <time>2022-05-27T09:52:37.918Z</time>
      </trkpt>
      <trkpt lat="42.18965" lon="18.98923">
        <ele>128.496789</ele>
        <time>2022-05-27T09:52:38.881Z</time>
      </trkpt>
      <trkpt lat="42.18975" lon="18.98918">
        <ele>127.67421</ele>
        <time>2022-05-27T09:52:39.874Z</time>
      </trkpt>
      <trkpt lat="42.18984" lon="18.98913">
        <ele>126.943135</ele>
        <time>2022-05-27T09:52:40.868Z</time>
      </trkpt>
      <trkpt lat="42.18993" lon="18.98908">
        <ele>126.210003</ele>
        <time>2022-05-27T09:52:41.949Z</time>
      </trkpt>
      <trkpt lat="42.19002" lon="18.98902">
        <ele>125.511986</ele>
        <time>2022-05-27T09:52:42.917Z</time>
      </trkpt>
      <trkpt lat="42.19017" lon="18.98888">
        <ele>124.176282</ele>
        <time>2022-05-27T09:52:44.865Z</time>
      </trkpt>
      <trkpt lat="42.19023" lon="18.98879">
        <ele>123.507586</ele>
        <time>2022-05-27T09:52:45.879Z</time>
      </trkpt>
      <trkpt lat="42.19029" lon="18.9887">
        <ele>122.838201</ele>
        <time>2022-05-27T09:52:46.896Z</time>
      </trkpt>
      <trkpt lat="42.19039" lon="18.9885">
        <ele>121.510357</ele>
        <time>2022-05-27T09:52:48.897Z</time>
      </trkpt>
      <trkpt lat="42.19045" lon="18.98832">
        <ele>120.451296</ele>
        <time>2022-05-27T09:52:50.853Z</time>
      </trkpt>
      <trkpt lat="42.19053" lon="18.98815">
        <ele>119.32899</ele>
        <time>2022-05-27T09:52:52.874Z</time>
      </trkpt>
      <trkpt lat="42.19061" lon="18.98796">
        <ele>118.175956</ele>
        <time>2022-05-27T09:52:54.880Z</time>
      </trkpt>
      <trkpt lat="42.1907" lon="18.98778">
        <ele>116.983439</ele>
        <time>2022-05-27T09:52:56.874Z</time>
      </trkpt>
      <trkpt lat="42.19081" lon="18.98759">
        <ele>116.229594</ele>
        <time>2022-05-27T09:52:58.861Z</time>
      </trkpt>
      <trkpt lat="42.19092" lon="18.9874">
        <ele>115.447845</ele>
        <time>2022-05-27T09:53:00.893Z</time>
      </trkpt>
      <trkpt lat="42.19098" lon="18.98731">
        <ele>115.053898</ele>
        <time>2022-05-27T09:53:01.875Z</time>
      </trkpt>
      <trkpt lat="42.19104" lon="18.98721">
        <ele>114.661998</ele>
        <time>2022-05-27T09:53:02.870Z</time>
      </trkpt>
      <trkpt lat="42.1911" lon="18.98712">
        <ele>114.262859</ele>
        <time>2022-05-27T09:53:03.854Z</time>
      </trkpt>
      <trkpt lat="42.19116" lon="18.98701">
        <ele>113.856789</ele>
        <time>2022-05-27T09:53:04.867Z</time>
      </trkpt>
      <trkpt lat="42.19126" lon="18.98682">
        <ele>113.102928</ele>
        <time>2022-05-27T09:53:06.873Z</time>
      </trkpt>
      <trkpt lat="42.19131" lon="18.98671">
        <ele>112.687848</ele>
        <time>2022-05-27T09:53:07.864Z</time>
      </trkpt>
      <trkpt lat="42.19136" lon="18.98659">
        <ele>112.259695</ele>
        <time>2022-05-27T09:53:08.868Z</time>
      </trkpt>
      <trkpt lat="42.19141" lon="18.98648">
        <ele>111.835344</ele>
        <time>2022-05-27T09:53:09.867Z</time>
      </trkpt>
      <trkpt lat="42.19146" lon="18.98636">
        <ele>111.417561</ele>
        <time>2022-05-27T09:53:10.893Z</time>
      </trkpt>
      <trkpt lat="42.19151" lon="18.98625">
        <ele>110.990232</ele>
        <time>2022-05-27T09:53:11.887Z</time>
      </trkpt>
      <trkpt lat="42.19157" lon="18.98613">
        <ele>110.532791</ele>
        <time>2022-05-27T09:53:12.869Z</time>
      </trkpt>
      <trkpt lat="42.19164" lon="18.98603">
        <ele>110.089995</ele>
        <time>2022-05-27T09:53:13.866Z</time>
      </trkpt>
      <trkpt lat="42.19171" lon="18.98593">
        <ele>109.67312</ele>
        <time>2022-05-27T09:53:14.879Z</time>
      </trkpt>
      <trkpt lat="42.19179" lon="18.98584">
        <ele>109.19542</ele>
        <time>2022-05-27T09:53:15.869Z</time>
      </trkpt>
      <trkpt lat="42.19187" lon="18.98575">
        <ele>108.620428</ele>
        <time>2022-05-27T09:53:16.875Z</time>
      </trkpt>
      <trkpt lat="42.19196" lon="18.98567">
        <ele>108.033388</ele>
        <time>2022-05-27T09:53:17.884Z</time>
      </trkpt>
      <trkpt lat="42.19205" lon="18.9856">
        <ele>107.474099</ele>
        <time>2022-05-27T09:53:18.884Z</time>
      </trkpt>
      <trkpt lat="42.19215" lon="18.98554">
        <ele>106.917517</ele>
        <time>2022-05-27T09:53:19.870Z</time>
      </trkpt>
      <trkpt lat="42.19225" lon="18.98547">
        <ele>106.295302</ele>
        <time>2022-05-27T09:53:20.860Z</time>
      </trkpt>
      <trkpt lat="42.19237" lon="18.98538">
        <ele>105.568226</ele>
        <time>2022-05-27T09:53:21.871Z</time>
      </trkpt>
      <trkpt lat="42.19248" lon="18.98529">
        <ele>104.876298</ele>
        <time>2022-05-27T09:53:22.852Z</time>
      </trkpt>
      <trkpt lat="42.19257" lon="18.9852">
        <ele>104.271459</ele>
        <time>2022-05-27T09:53:23.882Z</time>
      </trkpt>
      <trkpt lat="42.19264" lon="18.98512">
        <ele>103.748266</ele>
        <time>2022-05-27T09:53:24.861Z</time>
      </trkpt>
      <trkpt lat="42.19277" lon="18.98493">
        <ele>102.758262</ele>
        <time>2022-05-27T09:53:26.914Z</time>
      </trkpt>
      <trkpt lat="42.19286" lon="18.98484">
        <ele>102.141436</ele>
        <time>2022-05-27T09:53:27.874Z</time>
      </trkpt>
      <trkpt lat="42.19294" lon="18.98476">
        <ele>101.605842</ele>
        <time>2022-05-27T09:53:28.870Z</time>
      </trkpt>
      <trkpt lat="42.19311" lon="18.98463">
        <ele>100.562416</ele>
        <time>2022-05-27T09:53:30.892Z</time>
      </trkpt>
      <trkpt lat="42.1932" lon="18.98458">
        <ele>100.044879</ele>
        <time>2022-05-27T09:53:31.876Z</time>
      </trkpt>
      <trkpt lat="42.1933" lon="18.98452">
        <ele>99.445262</ele>
        <time>2022-05-27T09:53:32.868Z</time>
      </trkpt>
      <trkpt lat="42.19341" lon="18.98446">
        <ele>98.88998</ele>
        <time>2022-05-27T09:53:33.863Z</time>
      </trkpt>
      <trkpt lat="42.19351" lon="18.9844">
        <ele>98.35531</ele>
        <time>2022-05-27T09:53:34.889Z</time>
      </trkpt>
      <trkpt lat="42.19362" lon="18.98432">
        <ele>97.762471</ele>
        <time>2022-05-27T09:53:35.871Z</time>
      </trkpt>
      <trkpt lat="42.19372" lon="18.98424">
        <ele>97.199956</ele>
        <time>2022-05-27T09:53:36.852Z</time>
      </trkpt>
      <trkpt lat="42.19381" lon="18.98416">
        <ele>96.679911</ele>
        <time>2022-05-27T09:53:37.911Z</time>
      </trkpt>
      <trkpt lat="42.19392" lon="18.98398">
        <ele>95.829827</ele>
        <time>2022-05-27T09:53:39.879Z</time>
      </trkpt>
      <trkpt lat="42.19401" lon="18.98387">
        <ele>95.256686</ele>
        <time>2022-05-27T09:53:40.864Z</time>
      </trkpt>
      <trkpt lat="42.1941" lon="18.98376">
        <ele>94.676379</ele>
        <time>2022-05-27T09:53:41.847Z</time>
      </trkpt>
      <trkpt lat="42.19419" lon="18.98367">
        <ele>94.139368</ele>
        <time>2022-05-27T09:53:42.869Z</time>
      </trkpt>
      <trkpt lat="42.19427" lon="18.9836">
        <ele>93.679306</ele>
        <time>2022-05-27T09:53:43.889Z</time>
      </trkpt>
      <trkpt lat="42.19443" lon="18.98352">
        <ele>92.837259</ele>
        <time>2022-05-27T09:53:45.878Z</time>
      </trkpt>
      <trkpt lat="42.19461" lon="18.98345">
        <ele>91.968213</ele>
        <time>2022-05-27T09:53:47.859Z</time>
      </trkpt>
      <trkpt lat="42.1947" lon="18.98343">
        <ele>91.532835</ele>
        <time>2022-05-27T09:53:48.864Z</time>
      </trkpt>
      <trkpt lat="42.19479" lon="18.98342">
        <ele>91.089641</ele>
        <time>2022-05-27T09:53:49.858Z</time>
      </trkpt>
      <trkpt lat="42.19496" lon="18.98339">
        <ele>89.991038</ele>
        <time>2022-05-27T09:53:51.874Z</time>
      </trkpt>
      <trkpt lat="42.19505" lon="18.98337">
        <ele>89.374704</ele>
        <time>2022-05-27T09:53:52.866Z</time>
      </trkpt>
      <trkpt lat="42.19514" lon="18.98336">
        <ele>88.76669</ele>
        <time>2022-05-27T09:53:53.861Z</time>
      </trkpt>
      <trkpt lat="42.19533" lon="18.98334">
        <ele>87.501156</ele>
        <time>2022-05-27T09:53:55.863Z</time>
      </trkpt>
      <trkpt lat="42.19544" lon="18.98334">
        <ele>86.78912</ele>
        <time>2022-05-27T09:53:56.863Z</time>
      </trkpt>
      <trkpt lat="42.19553" lon="18.98333">
        <ele>86.164066</ele>
        <time>2022-05-27T09:53:57.863Z</time>
      </trkpt>
      <trkpt lat="42.19565" lon="18.98333">
        <ele>85.386286</ele>
        <time>2022-05-27T09:53:58.871Z</time>
      </trkpt>
      <trkpt lat="42.19577" lon="18.98332">
        <ele>84.627806</ele>
        <time>2022-05-27T09:53:59.870Z</time>
      </trkpt>
      <trkpt lat="42.19586" lon="18.9833">
        <ele>84.015207</ele>
        <time>2022-05-27T09:54:00.872Z</time>
      </trkpt>
      <trkpt lat="42.19596" lon="18.98325">
        <ele>83.32112</ele>
        <time>2022-05-27T09:54:01.847Z</time>
      </trkpt>
      <trkpt lat="42.19609" lon="18.98308">
        <ele>82.082816</ele>
        <time>2022-05-27T09:54:03.876Z</time>
      </trkpt>
      <trkpt lat="42.19619" lon="18.98298">
        <ele>81.238761</ele>
        <time>2022-05-27T09:54:04.877Z</time>
      </trkpt>
      <trkpt lat="42.19628" lon="18.98287">
        <ele>80.422149</ele>
        <time>2022-05-27T09:54:05.906Z</time>
      </trkpt>
      <trkpt lat="42.19637" lon="18.98274">
        <ele>79.589177</ele>
        <time>2022-05-27T09:54:06.902Z</time>
      </trkpt>
      <trkpt lat="42.19643" lon="18.98261">
        <ele>78.968263</ele>
        <time>2022-05-27T09:54:07.860Z</time>
      </trkpt>
      <trkpt lat="42.19647" lon="18.98248">
        <ele>78.782285</ele>
        <time>2022-05-27T09:54:08.866Z</time>
      </trkpt>
      <trkpt lat="42.19653" lon="18.98233">
        <ele>78.57407</ele>
        <time>2022-05-27T09:54:09.866Z</time>
      </trkpt>
      <trkpt lat="42.19658" lon="18.98219">
        <ele>78.385199</ele>
        <time>2022-05-27T09:54:10.857Z</time>
      </trkpt>
      <trkpt lat="42.19663" lon="18.98204">
        <ele>78.181856</ele>
        <time>2022-05-27T09:54:11.960Z</time>
      </trkpt>
      <trkpt lat="42.19667" lon="18.9819">
        <ele>77.992952</ele>
        <time>2022-05-27T09:54:12.863Z</time>
      </trkpt>
      <trkpt lat="42.1967" lon="18.98177">
        <ele>77.823919</ele>
        <time>2022-05-27T09:54:13.866Z</time>
      </trkpt>
      <trkpt lat="42.19675" lon="18.98155">
        <ele>77.538065</ele>
        <time>2022-05-27T09:54:15.873Z</time>
      </trkpt>
      <trkpt lat="42.19675" lon="18.98135">
        <ele>77.292675</ele>
        <time>2022-05-27T09:54:17.880Z</time>
      </trkpt>
      <trkpt lat="42.19683" lon="18.98114">
        <ele>77.0064</ele>
        <time>2022-05-27T09:54:19.860Z</time>
      </trkpt>
      <trkpt lat="42.19682" lon="18.98096">
        <ele>76.781857</ele>
        <time>2022-05-27T09:54:21.861Z</time>
      </trkpt>
      <trkpt lat="42.1968" lon="18.98075">
        <ele>76.516651</ele>
        <time>2022-05-27T09:54:23.874Z</time>
      </trkpt>
      <trkpt lat="42.19676" lon="18.98057">
        <ele>76.284179</ele>
        <time>2022-05-27T09:54:25.854Z</time>
      </trkpt>
      <trkpt lat="42.19671" lon="18.98041">
        <ele>76.071545</ele>
        <time>2022-05-27T09:54:27.882Z</time>
      </trkpt>
      <trkpt lat="42.19668" lon="18.98024">
        <ele>76.167853</ele>
        <time>2022-05-27T09:54:29.868Z</time>
      </trkpt>
      <trkpt lat="42.19665" lon="18.98011">
        <ele>76.360407</ele>
        <time>2022-05-27T09:54:31.857Z</time>
      </trkpt>
      <trkpt lat="42.19663" lon="18.97995">
        <ele>76.585777</ele>
        <time>2022-05-27T09:54:34.862Z</time>
      </trkpt>
      <trkpt lat="42.19662" lon="18.9798">
        <ele>76.792087</ele>
        <time>2022-05-27T09:54:37.880Z</time>
      </trkpt>
      <trkpt lat="42.19662" lon="18.97967">
        <ele>76.976268</ele>
        <time>2022-05-27T09:54:40.870Z</time>
      </trkpt>
      <trkpt lat="42.19665" lon="18.97955">
        <ele>77.162864</ele>
        <time>2022-05-27T09:54:43.866Z</time>
      </trkpt>
      <trkpt lat="42.19668" lon="18.97942">
        <ele>77.350583</ele>
        <time>2022-05-27T09:54:46.863Z</time>
      </trkpt>
      <trkpt lat="42.19671" lon="18.97931">
        <ele>77.524099</ele>
        <time>2022-05-27T09:54:49.867Z</time>
      </trkpt>
      <trkpt lat="42.19676" lon="18.97917">
        <ele>77.74145</ele>
        <time>2022-05-27T09:54:53.862Z</time>
      </trkpt>
      <trkpt lat="42.19684" lon="18.97905">
        <ele>77.962963</ele>
        <time>2022-05-27T09:54:57.871Z</time>
      </trkpt>
      <trkpt lat="42.1969" lon="18.97896">
        <ele>78.143829</ele>
        <time>2022-05-27T09:55:00.877Z</time>
      </trkpt>
      <trkpt lat="42.19697" lon="18.97887">
        <ele>78.324243</ele>
        <time>2022-05-27T09:55:03.871Z</time>
      </trkpt>
      <trkpt lat="42.19705" lon="18.97878">
        <ele>78.51995</ele>
        <time>2022-05-27T09:55:07.884Z</time>
      </trkpt>
      <trkpt lat="42.19713" lon="18.9787">
        <ele>78.703909</ele>
        <time>2022-05-27T09:55:10.865Z</time>
      </trkpt>
      <trkpt lat="42.19723" lon="18.97862">
        <ele>78.933518</ele>
        <time>2022-05-27T09:55:13.865Z</time>
      </trkpt>
      <trkpt lat="42.19735" lon="18.97855">
        <ele>79.191649</ele>
        <time>2022-05-27T09:55:16.851Z</time>
      </trkpt>
      <trkpt lat="42.19748" lon="18.97847">
        <ele>79.423982</ele>
        <time>2022-05-27T09:55:19.861Z</time>
      </trkpt>
      <trkpt lat="42.19757" lon="18.97841">
        <ele>79.306638</ele>
        <time>2022-05-27T09:55:21.871Z</time>
      </trkpt>
      <trkpt lat="42.19766" lon="18.97835">
        <ele>79.187566</ele>
        <time>2022-05-27T09:55:23.917Z</time>
      </trkpt>
      <trkpt lat="42.19775" lon="18.97827">
        <ele>79.058823</ele>
        <time>2022-05-27T09:55:25.870Z</time>
      </trkpt>
      <trkpt lat="42.19784" lon="18.97818">
        <ele>78.920514</ele>
        <time>2022-05-27T09:55:27.861Z</time>
      </trkpt>
      <trkpt lat="42.19793" lon="18.97807">
        <ele>78.773225</ele>
        <time>2022-05-27T09:55:29.882Z</time>
      </trkpt>
      <trkpt lat="42.19802" lon="18.97793">
        <ele>78.614171</ele>
        <time>2022-05-27T09:55:31.865Z</time>
      </trkpt>
      <trkpt lat="42.19809" lon="18.97776">
        <ele>78.442903</ele>
        <time>2022-05-27T09:55:33.878Z</time>
      </trkpt>
      <trkpt lat="42.19814" lon="18.97756">
        <ele>78.255049</ele>
        <time>2022-05-27T09:55:35.877Z</time>
      </trkpt>
      <trkpt lat="42.19817" lon="18.97735">
        <ele>78.063177</ele>
        <time>2022-05-27T09:55:37.869Z</time>
      </trkpt>
      <trkpt lat="42.19817" lon="18.9771">
        <ele>77.845048</ele>
        <time>2022-05-27T09:55:39.869Z</time>
      </trkpt>
      <trkpt lat="42.19815" lon="18.97688">
        <ele>77.649593</ele>
        <time>2022-05-27T09:55:41.865Z</time>
      </trkpt>
      <trkpt lat="42.19809" lon="18.9767">
        <ele>77.471377</ele>
        <time>2022-05-27T09:55:43.864Z</time>
      </trkpt>
      <trkpt lat="42.19799" lon="18.97649">
        <ele>77.172563</ele>
        <time>2022-05-27T09:55:45.879Z</time>
      </trkpt>
      <trkpt lat="42.19794" lon="18.97639">
        <ele>76.763328</ele>
        <time>2022-05-27T09:55:46.897Z</time>
      </trkpt>
      <trkpt lat="42.19783" lon="18.97619">
        <ele>75.960968</ele>
        <time>2022-05-27T09:55:48.875Z</time>
      </trkpt>
      <trkpt lat="42.19778" lon="18.97609">
        <ele>75.543915</ele>
        <time>2022-05-27T09:55:49.864Z</time>
      </trkpt>
      <trkpt lat="42.19767" lon="18.97591">
        <ele>74.773181</ele>
        <time>2022-05-27T09:55:51.877Z</time>
      </trkpt>
      <trkpt lat="42.19758" lon="18.97572">
        <ele>74.062049</ele>
        <time>2022-05-27T09:55:53.874Z</time>
      </trkpt>
      <trkpt lat="42.19754" lon="18.97562">
        <ele>73.665087</ele>
        <time>2022-05-27T09:55:54.901Z</time>
      </trkpt>
      <trkpt lat="42.1975" lon="18.9755">
        <ele>73.22915</ele>
        <time>2022-05-27T09:55:55.877Z</time>
      </trkpt>
      <trkpt lat="42.19742" lon="18.97527">
        <ele>72.389903</ele>
        <time>2022-05-27T09:55:57.871Z</time>
      </trkpt>
      <trkpt lat="42.19738" lon="18.97515">
        <ele>71.979819</ele>
        <time>2022-05-27T09:55:58.928Z</time>
      </trkpt>
      <trkpt lat="42.19735" lon="18.97502">
        <ele>71.52382</ele>
        <time>2022-05-27T09:55:59.880Z</time>
      </trkpt>
      <trkpt lat="42.19731" lon="18.97489">
        <ele>71.057164</ele>
        <time>2022-05-27T09:56:00.862Z</time>
      </trkpt>
      <trkpt lat="42.19727" lon="18.97473">
        <ele>70.507346</ele>
        <time>2022-05-27T09:56:01.868Z</time>
      </trkpt>
      <trkpt lat="42.19723" lon="18.97459">
        <ele>70.017157</ele>
        <time>2022-05-27T09:56:02.871Z</time>
      </trkpt>
      <trkpt lat="42.1972" lon="18.97445">
        <ele>69.54083</ele>
        <time>2022-05-27T09:56:03.862Z</time>
      </trkpt>
      <trkpt lat="42.19718" lon="18.97432">
        <ele>69.121021</ele>
        <time>2022-05-27T09:56:04.873Z</time>
      </trkpt>
      <trkpt lat="42.19715" lon="18.97419">
        <ele>68.751484</ele>
        <time>2022-05-27T09:56:05.874Z</time>
      </trkpt>
      <trkpt lat="42.19713" lon="18.97405">
        <ele>68.370415</ele>
        <time>2022-05-27T09:56:06.898Z</time>
      </trkpt>
      <trkpt lat="42.19711" lon="18.97393">
        <ele>68.011522</ele>
        <time>2022-05-27T09:56:07.876Z</time>
      </trkpt>
      <trkpt lat="42.19707" lon="18.9737">
        <ele>67.377946</ele>
        <time>2022-05-27T09:56:09.876Z</time>
      </trkpt>
      <trkpt lat="42.19704" lon="18.97347">
        <ele>66.736388</ele>
        <time>2022-05-27T09:56:11.884Z</time>
      </trkpt>
      <trkpt lat="42.19702" lon="18.97325">
        <ele>66.111796</ele>
        <time>2022-05-27T09:56:13.867Z</time>
      </trkpt>
      <trkpt lat="42.19701" lon="18.97302">
        <ele>65.475992</ele>
        <time>2022-05-27T09:56:15.866Z</time>
      </trkpt>
      <trkpt lat="42.19699" lon="18.97279">
        <ele>64.852165</ele>
        <time>2022-05-27T09:56:17.871Z</time>
      </trkpt>
      <trkpt lat="42.19699" lon="18.97259">
        <ele>64.277023</ele>
        <time>2022-05-27T09:56:19.857Z</time>
      </trkpt>
      <trkpt lat="42.19699" lon="18.97239">
        <ele>63.745975</ele>
        <time>2022-05-27T09:56:21.882Z</time>
      </trkpt>
      <trkpt lat="42.19701" lon="18.9722">
        <ele>63.213368</ele>
        <time>2022-05-27T09:56:23.874Z</time>
      </trkpt>
      <trkpt lat="42.19703" lon="18.97201">
        <ele>62.688891</ele>
        <time>2022-05-27T09:56:25.871Z</time>
      </trkpt>
      <trkpt lat="42.19705" lon="18.97183">
        <ele>62.665999</ele>
        <time>2022-05-27T09:56:27.868Z</time>
      </trkpt>
      <trkpt lat="42.19707" lon="18.97167">
        <ele>62.728169</ele>
        <time>2022-05-27T09:56:29.861Z</time>
      </trkpt>
      <trkpt lat="42.1971" lon="18.97151">
        <ele>62.789241</ele>
        <time>2022-05-27T09:56:31.875Z</time>
      </trkpt>
      <trkpt lat="42.19714" lon="18.97134">
        <ele>62.853483</ele>
        <time>2022-05-27T09:56:33.861Z</time>
      </trkpt>
      <trkpt lat="42.19718" lon="18.97119">
        <ele>62.914929</ele>
        <time>2022-05-27T09:56:35.872Z</time>
      </trkpt>
      <trkpt lat="42.19723" lon="18.97102">
        <ele>62.981257</ele>
        <time>2022-05-27T09:56:37.876Z</time>
      </trkpt>
      <trkpt lat="42.19727" lon="18.97085">
        <ele>63.047751</ele>
        <time>2022-05-27T09:56:39.877Z</time>
      </trkpt>
      <trkpt lat="42.19732" lon="18.9707">
        <ele>63.110435</ele>
        <time>2022-05-27T09:56:41.877Z</time>
      </trkpt>
      <trkpt lat="42.19737" lon="18.97056">
        <ele>63.169293</ele>
        <time>2022-05-27T09:56:43.911Z</time>
      </trkpt>
      <trkpt lat="42.19742" lon="18.97041">
        <ele>63.228953</ele>
        <time>2022-05-27T09:56:45.867Z</time>
      </trkpt>
      <trkpt lat="42.19747" lon="18.97026">
        <ele>63.288916</ele>
        <time>2022-05-27T09:56:47.881Z</time>
      </trkpt>
      <trkpt lat="42.19753" lon="18.97012">
        <ele>63.349323</ele>
        <time>2022-05-27T09:56:49.912Z</time>
      </trkpt>
      <trkpt lat="42.19758" lon="18.96998">
        <ele>63.410093</ele>
        <time>2022-05-27T09:56:51.850Z</time>
      </trkpt>
      <trkpt lat="42.19764" lon="18.96983">
        <ele>63.472085</ele>
        <time>2022-05-27T09:56:53.860Z</time>
      </trkpt>
      <trkpt lat="42.1977" lon="18.96969">
        <ele>63.553479</ele>
        <time>2022-05-27T09:56:55.872Z</time>
      </trkpt>
      <trkpt lat="42.19776" lon="18.96955">
        <ele>63.671099</ele>
        <time>2022-05-27T09:56:57.877Z</time>
      </trkpt>
      <trkpt lat="42.19782" lon="18.96943">
        <ele>63.78421</ele>
        <time>2022-05-27T09:56:59.871Z</time>
      </trkpt>
      <trkpt lat="42.19788" lon="18.96931">
        <ele>63.892446</ele>
        <time>2022-05-27T09:57:01.861Z</time>
      </trkpt>
      <trkpt lat="42.19794" lon="18.9692">
        <ele>63.993951</ele>
        <time>2022-05-27T09:57:03.874Z</time>
      </trkpt>
      <trkpt lat="42.198" lon="18.96911">
        <ele>64.085359</ele>
        <time>2022-05-27T09:57:05.878Z</time>
      </trkpt>
      <trkpt lat="42.19808" lon="18.96898">
        <ele>64.210707</ele>
        <time>2022-05-27T09:57:08.859Z</time>
      </trkpt>
      <trkpt lat="42.19816" lon="18.96886">
        <ele>64.335254</ele>
        <time>2022-05-27T09:57:11.898Z</time>
      </trkpt>
      <trkpt lat="42.19824" lon="18.96876">
        <ele>64.448507</ele>
        <time>2022-05-27T09:57:14.882Z</time>
      </trkpt>
      <trkpt lat="42.19832" lon="18.96865">
        <ele>64.558211</ele>
        <time>2022-05-27T09:57:17.882Z</time>
      </trkpt>
      <trkpt lat="42.1984" lon="18.96856">
        <ele>64.666365</ele>
        <time>2022-05-27T09:57:20.876Z</time>
      </trkpt>
      <trkpt lat="42.19847" lon="18.96847">
        <ele>64.764949</ele>
        <time>2022-05-27T09:57:23.873Z</time>
      </trkpt>
      <trkpt lat="42.19854" lon="18.96838">
        <ele>64.864789</ele>
        <time>2022-05-27T09:57:26.886Z</time>
      </trkpt>
      <trkpt lat="42.19861" lon="18.96829">
        <ele>64.959476</ele>
        <time>2022-05-27T09:57:29.859Z</time>
      </trkpt>
      <trkpt lat="42.19867" lon="18.9682">
        <ele>65.05437</ele>
        <time>2022-05-27T09:57:32.861Z</time>
      </trkpt>
      <trkpt lat="42.19874" lon="18.9681">
        <ele>65.15416</ele>
        <time>2022-05-27T09:57:35.885Z</time>
      </trkpt>
      <trkpt lat="42.1988" lon="18.968">
        <ele>65.249916</ele>
        <time>2022-05-27T09:57:38.861Z</time>
      </trkpt>
      <trkpt lat="42.19887" lon="18.96789">
        <ele>65.328795</ele>
        <time>2022-05-27T09:57:42.873Z</time>
      </trkpt>
      <trkpt lat="42.19894" lon="18.96778">
        <ele>65.290622</ele>
        <time>2022-05-27T09:57:46.870Z</time>
      </trkpt>
      <trkpt lat="42.19899" lon="18.96768">
        <ele>65.256821</ele>
        <time>2022-05-27T09:57:49.862Z</time>
      </trkpt>
      <trkpt lat="42.19905" lon="18.96758">
        <ele>65.221941</ele>
        <time>2022-05-27T09:57:52.868Z</time>
      </trkpt>
      <trkpt lat="42.1991" lon="18.96747">
        <ele>65.186736</ele>
        <time>2022-05-27T09:57:55.884Z</time>
      </trkpt>
      <trkpt lat="42.19915" lon="18.96735">
        <ele>65.151214</ele>
        <time>2022-05-27T09:57:58.866Z</time>
      </trkpt>
      <trkpt lat="42.1992" lon="18.96722">
        <ele>65.109293</ele>
        <time>2022-05-27T09:58:02.938Z</time>
      </trkpt>
      <trkpt lat="42.19925" lon="18.96711">
        <ele>65.075077</ele>
        <time>2022-05-27T09:58:05.866Z</time>
      </trkpt>
      <trkpt lat="42.1993" lon="18.96698">
        <ele>65.034583</ele>
        <time>2022-05-27T09:58:09.871Z</time>
      </trkpt>
      <trkpt lat="42.19935" lon="18.96685">
        <ele>64.995253</ele>
        <time>2022-05-27T09:58:13.925Z</time>
      </trkpt>
      <trkpt lat="42.19939" lon="18.96672">
        <ele>64.957454</ele>
        <time>2022-05-27T09:58:17.858Z</time>
      </trkpt>
      <trkpt lat="42.19942" lon="18.9666">
        <ele>64.923864</ele>
        <time>2022-05-27T09:58:21.874Z</time>
      </trkpt>
      <trkpt lat="42.19946" lon="18.96649">
        <ele>64.888906</ele>
        <time>2022-05-27T09:58:25.872Z</time>
      </trkpt>
      <trkpt lat="42.19949" lon="18.96637">
        <ele>64.855435</ele>
        <time>2022-05-27T09:58:29.890Z</time>
      </trkpt>
      <trkpt lat="42.19953" lon="18.96625">
        <ele>64.819807</ele>
        <time>2022-05-27T09:58:33.854Z</time>
      </trkpt>
      <trkpt lat="42.19956" lon="18.96611">
        <ele>64.781124</ele>
        <time>2022-05-27T09:58:37.875Z</time>
      </trkpt>
      <trkpt lat="42.1996" lon="18.96597">
        <ele>64.73851</ele>
        <time>2022-05-27T09:58:41.860Z</time>
      </trkpt>
      <trkpt lat="42.19963" lon="18.96582">
        <ele>64.697984</ele>
        <time>2022-05-27T09:58:45.872Z</time>
      </trkpt>
      <trkpt lat="42.19966" lon="18.96568">
        <ele>64.787083</ele>
        <time>2022-05-27T09:58:49.852Z</time>
      </trkpt>
      <trkpt lat="42.19968" lon="18.96554">
        <ele>64.992767</ele>
        <time>2022-05-27T09:58:54.853Z</time>
      </trkpt>
      <trkpt lat="42.1997" lon="18.96541">
        <ele>65.169439</ele>
        <time>2022-05-27T09:58:58.873Z</time>
      </trkpt>
      <trkpt lat="42.19969" lon="18.96529">
        <ele>65.349398</ele>
        <time>2022-05-27T09:59:04.876Z</time>
      </trkpt>
      <trkpt lat="42.19994" lon="18.96495">
        <ele>66.02248</ele>
        <time>2022-05-27T11:35:22.852Z</time>
      </trkpt>
      <trkpt lat="42.19998" lon="18.96481">
        <ele>66.232208</ele>
        <time>2022-05-27T11:35:26.845Z</time>
      </trkpt>
      <trkpt lat="42.20003" lon="18.96471">
        <ele>66.402506</ele>
        <time>2022-05-27T11:35:29.864Z</time>
      </trkpt>
      <trkpt lat="42.20011" lon="18.96458">
        <ele>66.63146</ele>
        <time>2022-05-27T11:35:33.850Z</time>
      </trkpt>
      <trkpt lat="42.20016" lon="18.96449">
        <ele>66.806197</ele>
        <time>2022-05-27T11:35:36.842Z</time>
      </trkpt>
      <trkpt lat="42.20023" lon="18.96436">
        <ele>67.029482</ele>
        <time>2022-05-27T11:35:40.866Z</time>
      </trkpt>
      <trkpt lat="42.2003" lon="18.96425">
        <ele>67.230354</ele>
        <time>2022-05-27T11:35:44.848Z</time>
      </trkpt>
      <trkpt lat="42.20036" lon="18.96414">
        <ele>67.415218</ele>
        <time>2022-05-27T11:35:48.852Z</time>
      </trkpt>
      <trkpt lat="42.20042" lon="18.96404">
        <ele>67.600557</ele>
        <time>2022-05-27T11:35:52.843Z</time>
      </trkpt>
      <trkpt lat="42.20048" lon="18.96395">
        <ele>67.773914</ele>
        <time>2022-05-27T11:35:56.889Z</time>
      </trkpt>
      <trkpt lat="42.20056" lon="18.96385">
        <ele>67.983321</ele>
        <time>2022-05-27T11:36:00.843Z</time>
      </trkpt>
      <trkpt lat="42.20063" lon="18.96374">
        <ele>68.335428</ele>
        <time>2022-05-27T11:36:04.852Z</time>
      </trkpt>
      <trkpt lat="42.20071" lon="18.96364">
        <ele>68.904586</ele>
        <time>2022-05-27T11:36:08.869Z</time>
      </trkpt>
      <trkpt lat="42.20077" lon="18.96354">
        <ele>69.440433</ele>
        <time>2022-05-27T11:36:12.844Z</time>
      </trkpt>
      <trkpt lat="42.20084" lon="18.96342">
        <ele>70.004118</ele>
        <time>2022-05-27T11:36:16.844Z</time>
      </trkpt>
      <trkpt lat="42.20091" lon="18.9633">
        <ele>70.621644</ele>
        <time>2022-05-27T11:36:20.841Z</time>
      </trkpt>
      <trkpt lat="42.20095" lon="18.96318">
        <ele>71.149297</ele>
        <time>2022-05-27T11:36:24.838Z</time>
      </trkpt>
      <trkpt lat="42.20101" lon="18.96306">
        <ele>71.684788</ele>
        <time>2022-05-27T11:36:28.846Z</time>
      </trkpt>
      <trkpt lat="42.20106" lon="18.96295">
        <ele>72.239574</ele>
        <time>2022-05-27T11:36:33.841Z</time>
      </trkpt>
      <trkpt lat="42.20112" lon="18.96282">
        <ele>72.830876</ele>
        <time>2022-05-27T11:36:38.845Z</time>
      </trkpt>
      <trkpt lat="42.20117" lon="18.9627">
        <ele>73.350389</ele>
        <time>2022-05-27T11:36:42.844Z</time>
      </trkpt>
      <trkpt lat="42.20122" lon="18.96259">
        <ele>73.871835</ele>
        <time>2022-05-27T11:36:46.842Z</time>
      </trkpt>
      <trkpt lat="42.20127" lon="18.96248">
        <ele>74.37092</ele>
        <time>2022-05-27T11:36:50.852Z</time>
      </trkpt>
      <trkpt lat="42.20132" lon="18.96235">
        <ele>74.958264</ele>
        <time>2022-05-27T11:36:55.842Z</time>
      </trkpt>
      <trkpt lat="42.20138" lon="18.96222">
        <ele>75.552358</ele>
        <time>2022-05-27T11:37:00.914Z</time>
      </trkpt>
      <trkpt lat="42.20143" lon="18.96209">
        <ele>76.120101</ele>
        <time>2022-05-27T11:37:05.882Z</time>
      </trkpt>
      <trkpt lat="42.20146" lon="18.96196">
        <ele>76.676276</ele>
        <time>2022-05-27T11:37:10.857Z</time>
      </trkpt>
      <trkpt lat="42.20151" lon="18.96182">
        <ele>77.266853</ele>
        <time>2022-05-27T11:37:15.850Z</time>
      </trkpt>
      <trkpt lat="42.20155" lon="18.96169">
        <ele>77.799705</ele>
        <time>2022-05-27T11:37:20.897Z</time>
      </trkpt>
      <trkpt lat="42.20158" lon="18.96157">
        <ele>78.166508</ele>
        <time>2022-05-27T11:37:24.866Z</time>
      </trkpt>
      <trkpt lat="42.20163" lon="18.96143">
        <ele>78.606265</ele>
        <time>2022-05-27T11:37:29.877Z</time>
      </trkpt>
      <trkpt lat="42.20166" lon="18.96132">
        <ele>78.960793</ele>
        <time>2022-05-27T11:37:33.868Z</time>
      </trkpt>
      <trkpt lat="42.2017" lon="18.96118">
        <ele>79.394406</ele>
        <time>2022-05-27T11:37:38.858Z</time>
      </trkpt>
      <trkpt lat="42.20174" lon="18.96105">
        <ele>79.820274</ele>
        <time>2022-05-27T11:37:43.871Z</time>
      </trkpt>
      <trkpt lat="42.20179" lon="18.96091">
        <ele>80.244908</ele>
        <time>2022-05-27T11:37:48.893Z</time>
      </trkpt>
      <trkpt lat="42.20185" lon="18.96079">
        <ele>80.665705</ele>
        <time>2022-05-27T11:37:52.861Z</time>
      </trkpt>
      <trkpt lat="42.20191" lon="18.96068">
        <ele>81.058315</ele>
        <time>2022-05-27T11:37:56.862Z</time>
      </trkpt>
      <trkpt lat="42.20196" lon="18.96058">
        <ele>81.427523</ele>
        <time>2022-05-27T11:38:00.874Z</time>
      </trkpt>
      <trkpt lat="42.20203" lon="18.96049">
        <ele>81.802019</ele>
        <time>2022-05-27T11:38:04.891Z</time>
      </trkpt>
      <trkpt lat="42.2021" lon="18.96038">
        <ele>82.234089</ele>
        <time>2022-05-27T11:38:09.860Z</time>
      </trkpt>
      <trkpt lat="42.20218" lon="18.96027">
        <ele>82.650136</ele>
        <time>2022-05-27T11:38:14.876Z</time>
      </trkpt>
      <trkpt lat="42.20224" lon="18.96017">
        <ele>83.050909</ele>
        <time>2022-05-27T11:38:19.861Z</time>
      </trkpt>
      <trkpt lat="42.20231" lon="18.96008">
        <ele>83.40886</ele>
        <time>2022-05-27T11:38:23.876Z</time>
      </trkpt>
      <trkpt lat="42.20239" lon="18.95999">
        <ele>83.838491</ele>
        <time>2022-05-27T11:38:28.932Z</time>
      </trkpt>
      <trkpt lat="42.20247" lon="18.95991">
        <ele>84.210141</ele>
        <time>2022-05-27T11:38:33.870Z</time>
      </trkpt>
      <trkpt lat="42.20254" lon="18.95982">
        <ele>84.596453</ele>
        <time>2022-05-27T11:38:38.863Z</time>
      </trkpt>
      <trkpt lat="42.20263" lon="18.95975">
        <ele>84.981148</ele>
        <time>2022-05-27T11:38:43.895Z</time>
      </trkpt>
      <trkpt lat="42.20272" lon="18.95966">
        <ele>85.359817</ele>
        <time>2022-05-27T11:38:48.865Z</time>
      </trkpt>
      <trkpt lat="42.2028" lon="18.95959">
        <ele>85.728834</ele>
        <time>2022-05-27T11:38:53.868Z</time>
      </trkpt>
      <trkpt lat="42.20289" lon="18.95951">
        <ele>86.084749</ele>
        <time>2022-05-27T11:38:58.874Z</time>
      </trkpt>
      <trkpt lat="42.20298" lon="18.95943">
        <ele>86.446589</ele>
        <time>2022-05-27T11:39:03.886Z</time>
      </trkpt>
      <trkpt lat="42.20306" lon="18.95935">
        <ele>86.822889</ele>
        <time>2022-05-27T11:39:08.862Z</time>
      </trkpt>
      <trkpt lat="42.20315" lon="18.95926">
        <ele>87.194012</ele>
        <time>2022-05-27T11:39:13.873Z</time>
      </trkpt>
      <trkpt lat="42.20322" lon="18.95919">
        <ele>87.519245</ele>
        <time>2022-05-27T11:39:17.894Z</time>
      </trkpt>
      <trkpt lat="42.20331" lon="18.9591">
        <ele>87.900316</ele>
        <time>2022-05-27T11:39:22.869Z</time>
      </trkpt>
      <trkpt lat="42.20337" lon="18.959">
        <ele>88.243822</ele>
        <time>2022-05-27T11:39:27.878Z</time>
      </trkpt>
      <trkpt lat="42.20343" lon="18.95891">
        <ele>88.561597</ele>
        <time>2022-05-27T11:39:31.874Z</time>
      </trkpt>
      <trkpt lat="42.2035" lon="18.95883">
        <ele>88.881342</ele>
        <time>2022-05-27T11:39:35.863Z</time>
      </trkpt>
      <trkpt lat="42.20356" lon="18.95872">
        <ele>89.223652</ele>
        <time>2022-05-27T11:39:39.859Z</time>
      </trkpt>
      <trkpt lat="42.20362" lon="18.9586">
        <ele>89.593317</ele>
        <time>2022-05-27T11:39:44.868Z</time>
      </trkpt>
      <trkpt lat="42.20366" lon="18.95849">
        <ele>89.920212</ele>
        <time>2022-05-27T11:39:48.858Z</time>
      </trkpt>
      <trkpt lat="42.20371" lon="18.95836">
        <ele>90.294305</ele>
        <time>2022-05-27T11:39:53.858Z</time>
      </trkpt>
      <trkpt lat="42.20375" lon="18.95824">
        <ele>90.643862</ele>
        <time>2022-05-27T11:39:58.866Z</time>
      </trkpt>
      <trkpt lat="42.20379" lon="18.95811">
        <ele>91.008353</ele>
        <time>2022-05-27T11:40:03.895Z</time>
      </trkpt>
      <trkpt lat="42.20383" lon="18.95799">
        <ele>91.193142</ele>
        <time>2022-05-27T11:40:07.858Z</time>
      </trkpt>
      <trkpt lat="42.20386" lon="18.95787">
        <ele>91.352892</ele>
        <time>2022-05-27T11:40:11.872Z</time>
      </trkpt>
      <trkpt lat="42.2039" lon="18.95775">
        <ele>91.538973</ele>
        <time>2022-05-27T11:40:16.877Z</time>
      </trkpt>
      <trkpt lat="42.20394" lon="18.95763">
        <ele>91.704302</ele>
        <time>2022-05-27T11:40:20.852Z</time>
      </trkpt>
      <trkpt lat="42.20397" lon="18.95751">
        <ele>91.864648</ele>
        <time>2022-05-27T11:40:24.868Z</time>
      </trkpt>
      <trkpt lat="42.20401" lon="18.95738">
        <ele>92.056375</ele>
        <time>2022-05-27T11:40:29.861Z</time>
      </trkpt>
      <trkpt lat="42.20403" lon="18.95726">
        <ele>92.219706</ele>
        <time>2022-05-27T11:40:33.874Z</time>
      </trkpt>
      <trkpt lat="42.20405" lon="18.95713">
        <ele>92.394278</ele>
        <time>2022-05-27T11:40:37.883Z</time>
      </trkpt>
      <trkpt lat="42.20406" lon="18.957">
        <ele>92.562028</ele>
        <time>2022-05-27T11:40:42.890Z</time>
      </trkpt>
      <trkpt lat="42.20408" lon="18.95688">
        <ele>92.72759</ele>
        <time>2022-05-27T11:40:47.867Z</time>
      </trkpt>
      <trkpt lat="42.20409" lon="18.95674">
        <ele>92.90275</ele>
        <time>2022-05-27T11:40:53.874Z</time>
      </trkpt>
      <trkpt lat="42.20407" lon="18.95661">
        <ele>93.082976</ele>
        <time>2022-05-27T11:40:59.892Z</time>
      </trkpt>
      <trkpt lat="42.20414" lon="18.95564">
        <ele>94.599776</ele>
        <time>2022-05-27T11:41:25.861Z</time>
      </trkpt>
      <trkpt lat="42.20406" lon="18.95576">
        <ele>95.193061</ele>
        <time>2022-05-27T11:41:26.877Z</time>
      </trkpt>
      <trkpt lat="42.20407" lon="18.95558">
        <ele>95.834934</ele>
        <time>2022-05-27T11:41:27.870Z</time>
      </trkpt>
      <trkpt lat="42.20405" lon="18.95544">
        <ele>96.364032</ele>
        <time>2022-05-27T11:41:34.909Z</time>
      </trkpt>
      <trkpt lat="42.20402" lon="18.95531">
        <ele>96.847758</ele>
        <time>2022-05-27T11:41:38.869Z</time>
      </trkpt>
      <trkpt lat="42.20398" lon="18.95516">
        <ele>97.394623</ele>
        <time>2022-05-27T11:41:43.867Z</time>
      </trkpt>
      <trkpt lat="42.20395" lon="18.95504">
        <ele>97.859352</ele>
        <time>2022-05-27T11:41:47.864Z</time>
      </trkpt>
      <trkpt lat="42.20391" lon="18.95493">
        <ele>98.298878</ele>
        <time>2022-05-27T11:41:51.858Z</time>
      </trkpt>
      <trkpt lat="42.20387" lon="18.95482">
        <ele>98.743716</ele>
        <time>2022-05-27T11:41:55.850Z</time>
      </trkpt>
      <trkpt lat="42.20382" lon="18.95469">
        <ele>99.268855</ele>
        <time>2022-05-27T11:42:00.874Z</time>
      </trkpt>
      <trkpt lat="42.2038" lon="18.95457">
        <ele>99.71215</ele>
        <time>2022-05-27T11:42:04.876Z</time>
      </trkpt>
      <trkpt lat="42.20376" lon="18.95445">
        <ele>100.15182</ele>
        <time>2022-05-27T11:42:08.866Z</time>
      </trkpt>
      <trkpt lat="42.20373" lon="18.95431">
        <ele>100.698634</ele>
        <time>2022-05-27T11:42:13.901Z</time>
      </trkpt>
      <trkpt lat="42.2037" lon="18.95419">
        <ele>101.138523</ele>
        <time>2022-05-27T11:42:17.862Z</time>
      </trkpt>
      <trkpt lat="42.20367" lon="18.95407">
        <ele>101.608618</ele>
        <time>2022-05-27T11:42:21.859Z</time>
      </trkpt>
      <trkpt lat="42.20364" lon="18.95394">
        <ele>102.081775</ele>
        <time>2022-05-27T11:42:25.864Z</time>
      </trkpt>
      <trkpt lat="42.20361" lon="18.95381">
        <ele>102.5627</ele>
        <time>2022-05-27T11:42:29.890Z</time>
      </trkpt>
      <trkpt lat="42.20359" lon="18.95368">
        <ele>102.961046</ele>
        <time>2022-05-27T11:42:33.866Z</time>
      </trkpt>
      <trkpt lat="42.20358" lon="18.95355">
        <ele>103.172691</ele>
        <time>2022-05-27T11:42:37.869Z</time>
      </trkpt>
      <trkpt lat="42.20357" lon="18.95342">
        <ele>103.374287</ele>
        <time>2022-05-27T11:42:41.857Z</time>
      </trkpt>
      <trkpt lat="42.20357" lon="18.95328">
        <ele>103.582941</ele>
        <time>2022-05-27T11:42:45.857Z</time>
      </trkpt>
      <trkpt lat="42.20358" lon="18.95315">
        <ele>103.777591</ele>
        <time>2022-05-27T11:42:49.861Z</time>
      </trkpt>
      <trkpt lat="42.20358" lon="18.95302">
        <ele>103.985998</ele>
        <time>2022-05-27T11:42:53.902Z</time>
      </trkpt>
      <trkpt lat="42.20358" lon="18.95287">
        <ele>104.211403</ele>
        <time>2022-05-27T11:42:58.858Z</time>
      </trkpt>
      <trkpt lat="42.20361" lon="18.95274">
        <ele>104.419764</ele>
        <time>2022-05-27T11:43:02.887Z</time>
      </trkpt>
      <trkpt lat="42.20364" lon="18.95259">
        <ele>104.649377</ele>
        <time>2022-05-27T11:43:06.875Z</time>
      </trkpt>
      <trkpt lat="42.20367" lon="18.95245">
        <ele>104.886817</ele>
        <time>2022-05-27T11:43:10.884Z</time>
      </trkpt>
      <trkpt lat="42.20371" lon="18.9523">
        <ele>105.120503</ele>
        <time>2022-05-27T11:43:14.867Z</time>
      </trkpt>
      <trkpt lat="42.20375" lon="18.95216">
        <ele>105.356992</ele>
        <time>2022-05-27T11:43:18.869Z</time>
      </trkpt>
      <trkpt lat="42.20381" lon="18.95202">
        <ele>105.60324</ele>
        <time>2022-05-27T11:43:22.874Z</time>
      </trkpt>
      <trkpt lat="42.20387" lon="18.9519">
        <ele>105.827634</ele>
        <time>2022-05-27T11:43:26.883Z</time>
      </trkpt>
      <trkpt lat="42.20393" lon="18.95178">
        <ele>106.043126</ele>
        <time>2022-05-27T11:43:30.878Z</time>
      </trkpt>
      <trkpt lat="42.20399" lon="18.95165">
        <ele>106.274358</ele>
        <time>2022-05-27T11:43:34.928Z</time>
      </trkpt>
      <trkpt lat="42.20404" lon="18.95154">
        <ele>106.476959</ele>
        <time>2022-05-27T11:43:38.866Z</time>
      </trkpt>
      <trkpt lat="42.20406" lon="18.95141">
        <ele>106.648201</ele>
        <time>2022-05-27T11:43:42.870Z</time>
      </trkpt>
      <trkpt lat="42.20413" lon="18.9513">
        <ele>106.724051</ele>
        <time>2022-05-27T11:43:46.866Z</time>
      </trkpt>
      <trkpt lat="42.2042" lon="18.9512">
        <ele>106.803578</ele>
        <time>2022-05-27T11:43:50.865Z</time>
      </trkpt>
      <trkpt lat="42.20426" lon="18.95109">
        <ele>106.881238</ele>
        <time>2022-05-27T11:43:54.868Z</time>
      </trkpt>
      <trkpt lat="42.2043" lon="18.95098">
        <ele>106.955957</ele>
        <time>2022-05-27T11:43:58.868Z</time>
      </trkpt>
      <trkpt lat="42.20433" lon="18.95084">
        <ele>107.034112</ele>
        <time>2022-05-27T11:44:03.869Z</time>
      </trkpt>
      <trkpt lat="42.20439" lon="18.95072">
        <ele>107.116</ele>
        <time>2022-05-27T11:44:06.861Z</time>
      </trkpt>
      <trkpt lat="42.20447" lon="18.95062">
        <ele>107.204013</ele>
        <time>2022-05-27T11:44:08.874Z</time>
      </trkpt>
      <trkpt lat="42.20458" lon="18.95052">
        <ele>107.306432</ele>
        <time>2022-05-27T11:44:10.930Z</time>
      </trkpt>
      <trkpt lat="42.2047" lon="18.95038">
        <ele>107.426475</ele>
        <time>2022-05-27T11:44:12.895Z</time>
      </trkpt>
      <trkpt lat="42.20481" lon="18.95025">
        <ele>107.539363</ele>
        <time>2022-05-27T11:44:14.858Z</time>
      </trkpt>
      <trkpt lat="42.20491" lon="18.95011">
        <ele>107.64824</ele>
        <time>2022-05-27T11:44:16.948Z</time>
      </trkpt>
      <trkpt lat="42.20501" lon="18.94997">
        <ele>107.758096</ele>
        <time>2022-05-27T11:44:18.854Z</time>
      </trkpt>
      <trkpt lat="42.20509" lon="18.94983">
        <ele>107.859949</ele>
        <time>2022-05-27T11:44:20.859Z</time>
      </trkpt>
      <trkpt lat="42.20516" lon="18.94969">
        <ele>107.954948</ele>
        <time>2022-05-27T11:44:22.863Z</time>
      </trkpt>
      <trkpt lat="42.20523" lon="18.94956">
        <ele>107.639165</ele>
        <time>2022-05-27T11:44:24.873Z</time>
      </trkpt>
      <trkpt lat="42.20531" lon="18.94942">
        <ele>106.763306</ele>
        <time>2022-05-27T11:44:26.871Z</time>
      </trkpt>
      <trkpt lat="42.20538" lon="18.94928">
        <ele>105.89111</ele>
        <time>2022-05-27T11:44:28.854Z</time>
      </trkpt>
      <trkpt lat="42.20544" lon="18.94914">
        <ele>105.049354</ele>
        <time>2022-05-27T11:44:30.863Z</time>
      </trkpt>
      <trkpt lat="42.20551" lon="18.949">
        <ele>104.222192</ele>
        <time>2022-05-27T11:44:32.871Z</time>
      </trkpt>
      <trkpt lat="42.20562" lon="18.94889">
        <ele>103.292619</ele>
        <time>2022-05-27T11:44:34.873Z</time>
      </trkpt>
      <trkpt lat="42.20574" lon="18.94878">
        <ele>102.299545</ele>
        <time>2022-05-27T11:44:36.874Z</time>
      </trkpt>
      <trkpt lat="42.20586" lon="18.94868">
        <ele>101.33823</ele>
        <time>2022-05-27T11:44:38.905Z</time>
      </trkpt>
      <trkpt lat="42.20596" lon="18.94853">
        <ele>100.311585</ele>
        <time>2022-05-27T11:44:40.847Z</time>
      </trkpt>
      <trkpt lat="42.20603" lon="18.94835">
        <ele>99.260409</ele>
        <time>2022-05-27T11:44:42.920Z</time>
      </trkpt>
      <trkpt lat="42.20609" lon="18.94815">
        <ele>98.212381</ele>
        <time>2022-05-27T11:44:44.857Z</time>
      </trkpt>
      <trkpt lat="42.20614" lon="18.94794">
        <ele>97.06871</ele>
        <time>2022-05-27T11:44:46.873Z</time>
      </trkpt>
      <trkpt lat="42.20622" lon="18.94772">
        <ele>95.847527</ele>
        <time>2022-05-27T11:44:48.861Z</time>
      </trkpt>
      <trkpt lat="42.20627" lon="18.94762">
        <ele>95.394287</ele>
        <time>2022-05-27T11:44:49.864Z</time>
      </trkpt>
      <trkpt lat="42.20632" lon="18.94752">
        <ele>94.987708</ele>
        <time>2022-05-27T11:44:50.926Z</time>
      </trkpt>
      <trkpt lat="42.20638" lon="18.94742">
        <ele>94.583738</ele>
        <time>2022-05-27T11:44:51.859Z</time>
      </trkpt>
      <trkpt lat="42.20643" lon="18.94732">
        <ele>94.182155</ele>
        <time>2022-05-27T11:44:52.873Z</time>
      </trkpt>
      <trkpt lat="42.20654" lon="18.94714">
        <ele>93.420884</ele>
        <time>2022-05-27T11:44:54.863Z</time>
      </trkpt>
      <trkpt lat="42.20664" lon="18.94696">
        <ele>92.701458</ele>
        <time>2022-05-27T11:44:56.929Z</time>
      </trkpt>
      <trkpt lat="42.20674" lon="18.9468">
        <ele>92.015511</ele>
        <time>2022-05-27T11:44:58.866Z</time>
      </trkpt>
      <trkpt lat="42.20683" lon="18.94664">
        <ele>91.370798</ele>
        <time>2022-05-27T11:45:00.851Z</time>
      </trkpt>
      <trkpt lat="42.20692" lon="18.94651">
        <ele>90.803914</ele>
        <time>2022-05-27T11:45:02.867Z</time>
      </trkpt>
      <trkpt lat="42.207" lon="18.94639">
        <ele>90.286867</ele>
        <time>2022-05-27T11:45:04.858Z</time>
      </trkpt>
      <trkpt lat="42.20707" lon="18.94628">
        <ele>89.787881</ele>
        <time>2022-05-27T11:45:06.881Z</time>
      </trkpt>
      <trkpt lat="42.20715" lon="18.94615">
        <ele>89.256126</ele>
        <time>2022-05-27T11:45:08.884Z</time>
      </trkpt>
      <trkpt lat="42.20723" lon="18.94603">
        <ele>88.713041</ele>
        <time>2022-05-27T11:45:10.953Z</time>
      </trkpt>
      <trkpt lat="42.20732" lon="18.94592">
        <ele>88.189056</ele>
        <time>2022-05-27T11:45:12.885Z</time>
      </trkpt>
      <trkpt lat="42.20739" lon="18.94583">
        <ele>87.883248</ele>
        <time>2022-05-27T11:45:14.863Z</time>
      </trkpt>
      <trkpt lat="42.20748" lon="18.94575">
        <ele>88.334604</ele>
        <time>2022-05-27T11:45:17.895Z</time>
      </trkpt>
      <trkpt lat="42.20757" lon="18.94569">
        <ele>88.773342</ele>
        <time>2022-05-27T11:45:20.867Z</time>
      </trkpt>
      <trkpt lat="42.20766" lon="18.94563">
        <ele>89.200245</ele>
        <time>2022-05-27T11:45:23.866Z</time>
      </trkpt>
      <trkpt lat="42.20775" lon="18.94561">
        <ele>89.614639</ele>
        <time>2022-05-27T11:45:27.872Z</time>
      </trkpt>
      <trkpt lat="42.20785" lon="18.94564">
        <ele>90.066426</ele>
        <time>2022-05-27T11:45:32.898Z</time>
      </trkpt>
      <trkpt lat="42.20795" lon="18.94567">
        <ele>90.503169</ele>
        <time>2022-05-27T11:45:37.871Z</time>
      </trkpt>
      <trkpt lat="42.20805" lon="18.94569">
        <ele>90.956591</ele>
        <time>2022-05-27T11:45:42.870Z</time>
      </trkpt>
      <trkpt lat="42.20816" lon="18.9457">
        <ele>91.417222</ele>
        <time>2022-05-27T11:45:47.882Z</time>
      </trkpt>
      <trkpt lat="42.20826" lon="18.9457">
        <ele>91.894859</ele>
        <time>2022-05-27T11:45:52.882Z</time>
      </trkpt>
      <trkpt lat="42.20836" lon="18.94567">
        <ele>92.329398</ele>
        <time>2022-05-27T11:45:56.872Z</time>
      </trkpt>
      <trkpt lat="42.20846" lon="18.94559">
        <ele>92.805907</ele>
        <time>2022-05-27T11:46:01.879Z</time>
      </trkpt>
      <trkpt lat="42.20854" lon="18.94551">
        <ele>93.275938</ele>
        <time>2022-05-27T11:46:06.857Z</time>
      </trkpt>
      <trkpt lat="42.20862" lon="18.94542">
        <ele>93.716409</ele>
        <time>2022-05-27T11:46:11.878Z</time>
      </trkpt>
      <trkpt lat="42.20868" lon="18.94533">
        <ele>94.126605</ele>
        <time>2022-05-27T11:46:16.870Z</time>
      </trkpt>
      <trkpt lat="42.20875" lon="18.94523">
        <ele>94.543216</ele>
        <time>2022-05-27T11:46:21.865Z</time>
      </trkpt>
      <trkpt lat="42.20882" lon="18.94514">
        <ele>94.971262</ele>
        <time>2022-05-27T11:46:26.902Z</time>
      </trkpt>
      <trkpt lat="42.20888" lon="18.94504">
        <ele>95.393091</ele>
        <time>2022-05-27T11:46:32.857Z</time>
      </trkpt>
      <trkpt lat="42.20896" lon="18.94496">
        <ele>96.023894</ele>
        <time>2022-05-27T11:46:39.863Z</time>
      </trkpt>
      <trkpt lat="42.20906" lon="18.94491">
        <ele>97.078661</ele>
        <time>2022-05-27T11:46:44.877Z</time>
      </trkpt>
      <trkpt lat="42.20915" lon="18.94484">
        <ele>98.122127</ele>
        <time>2022-05-27T11:46:49.880Z</time>
      </trkpt>
      <trkpt lat="42.20922" lon="18.94475">
        <ele>99.08757</ele>
        <time>2022-05-27T11:46:54.860Z</time>
      </trkpt>
      <trkpt lat="42.20929" lon="18.94465">
        <ele>100.09957</ele>
        <time>2022-05-27T11:47:00.877Z</time>
      </trkpt>
      <trkpt lat="42.20935" lon="18.94453">
        <ele>101.114239</ele>
        <time>2022-05-27T11:47:06.875Z</time>
      </trkpt>
      <trkpt lat="42.2094" lon="18.94442">
        <ele>102.103719</ele>
        <time>2022-05-27T11:47:12.860Z</time>
      </trkpt>
      <trkpt lat="42.20947" lon="18.94432">
        <ele>103.102026</ele>
        <time>2022-05-27T11:47:17.869Z</time>
      </trkpt>
      <trkpt lat="42.20952" lon="18.9442">
        <ele>104.142758</ele>
        <time>2022-05-27T11:47:23.866Z</time>
      </trkpt>
      <trkpt lat="42.20961" lon="18.94413">
        <ele>105.093073</ele>
        <time>2022-05-27T11:47:28.861Z</time>
      </trkpt>
      <trkpt lat="42.2097" lon="18.94408">
        <ele>106.048843</ele>
        <time>2022-05-27T11:47:34.869Z</time>
      </trkpt>
      <trkpt lat="42.20978" lon="18.94403">
        <ele>107.013414</ele>
        <time>2022-05-27T11:47:39.868Z</time>
      </trkpt>
      <trkpt lat="42.20987" lon="18.94397">
        <ele>108.008611</ele>
        <time>2022-05-27T11:47:45.865Z</time>
      </trkpt>
      <trkpt lat="42.20997" lon="18.94391">
        <ele>109.055323</ele>
        <time>2022-05-27T11:47:51.863Z</time>
      </trkpt>
      <trkpt lat="42.21006" lon="18.94385">
        <ele>110.006323</ele>
        <time>2022-05-27T11:47:56.880Z</time>
      </trkpt>
      <trkpt lat="42.21014" lon="18.94382">
        <ele>110.915901</ele>
        <time>2022-05-27T11:48:02.870Z</time>
      </trkpt>
      <trkpt lat="42.21023" lon="18.94375">
        <ele>111.902416</ele>
        <time>2022-05-27T11:48:08.875Z</time>
      </trkpt>
      <trkpt lat="42.21031" lon="18.94368">
        <ele>112.869043</ele>
        <time>2022-05-27T11:48:15.866Z</time>
      </trkpt>
      <trkpt lat="42.21039" lon="18.94361">
        <ele>113.625015</ele>
        <time>2022-05-27T11:48:22.866Z</time>
      </trkpt>
      <trkpt lat="42.21047" lon="18.94353">
        <ele>113.972381</ele>
        <time>2022-05-27T11:48:29.882Z</time>
      </trkpt>
      <trkpt lat="42.21055" lon="18.94344">
        <ele>114.288743</ele>
        <time>2022-05-27T11:48:35.871Z</time>
      </trkpt>
      <trkpt lat="42.21063" lon="18.94338">
        <ele>114.620677</ele>
        <time>2022-05-27T11:48:42.863Z</time>
      </trkpt>
      <trkpt lat="42.2107" lon="18.9433">
        <ele>114.931924</ele>
        <time>2022-05-27T11:48:49.900Z</time>
      </trkpt>
      <trkpt lat="42.21074" lon="18.94317">
        <ele>115.269411</ele>
        <time>2022-05-27T11:48:55.871Z</time>
      </trkpt>
      <trkpt lat="42.21076" lon="18.94304">
        <ele>115.624527</ele>
        <time>2022-05-27T11:49:01.872Z</time>
      </trkpt>
      <trkpt lat="42.21076" lon="18.9429">
        <ele>115.973536</ele>
        <time>2022-05-27T11:49:07.872Z</time>
      </trkpt>
      <trkpt lat="42.21074" lon="18.94277">
        <ele>116.311973</ele>
        <time>2022-05-27T11:49:13.867Z</time>
      </trkpt>
      <trkpt lat="42.21069" lon="18.94266">
        <ele>116.627142</ele>
        <time>2022-05-27T11:49:19.876Z</time>
      </trkpt>
      <trkpt lat="42.21055" lon="18.94237">
        <ele>117.495281</ele>
        <time>2022-05-27T11:51:46.869Z</time>
      </trkpt>
      <trkpt lat="42.2105" lon="18.94224">
        <ele>117.848355</ele>
        <time>2022-05-27T11:51:53.964Z</time>
      </trkpt>
      <trkpt lat="42.21048" lon="18.9421">
        <ele>118.205548</ele>
        <time>2022-05-27T11:52:00.854Z</time>
      </trkpt>
      <trkpt lat="42.21046" lon="18.94197">
        <ele>118.540997</ele>
        <time>2022-05-27T11:52:06.857Z</time>
      </trkpt>
      <trkpt lat="42.21046" lon="18.94184">
        <ele>118.878148</ele>
        <time>2022-05-27T11:52:12.864Z</time>
      </trkpt>
      <trkpt lat="42.21045" lon="18.94172">
        <ele>119.183132</ele>
        <time>2022-05-27T11:52:18.868Z</time>
      </trkpt>
      <trkpt lat="42.21044" lon="18.94159">
        <ele>119.512105</ele>
        <time>2022-05-27T11:52:25.863Z</time>
      </trkpt>
      <trkpt lat="42.21042" lon="18.94146">
        <ele>119.891162</ele>
        <time>2022-05-27T11:52:31.869Z</time>
      </trkpt>
      <trkpt lat="42.21041" lon="18.94132">
        <ele>120.328849</ele>
        <time>2022-05-27T11:52:38.860Z</time>
      </trkpt>
      <trkpt lat="42.21042" lon="18.94119">
        <ele>120.752115</ele>
        <time>2022-05-27T11:52:44.872Z</time>
      </trkpt>
      <trkpt lat="42.21043" lon="18.94105">
        <ele>121.169796</ele>
        <time>2022-05-27T11:52:50.855Z</time>
      </trkpt>
      <trkpt lat="42.21042" lon="18.94092">
        <ele>121.586544</ele>
        <time>2022-05-27T11:52:56.867Z</time>
      </trkpt>
      <trkpt lat="42.21042" lon="18.94078">
        <ele>122.01293</ele>
        <time>2022-05-27T11:53:02.867Z</time>
      </trkpt>
      <trkpt lat="42.21039" lon="18.94065">
        <ele>122.44816</ele>
        <time>2022-05-27T11:53:09.909Z</time>
      </trkpt>
      <trkpt lat="42.21037" lon="18.94053">
        <ele>122.834432</ele>
        <time>2022-05-27T11:53:15.849Z</time>
      </trkpt>
      <trkpt lat="42.21034" lon="18.9404">
        <ele>123.248457</ele>
        <time>2022-05-27T11:53:21.858Z</time>
      </trkpt>
      <trkpt lat="42.21031" lon="18.94027">
        <ele>123.679655</ele>
        <time>2022-05-27T11:53:27.878Z</time>
      </trkpt>
      <trkpt lat="42.21026" lon="18.94014">
        <ele>124.132258</ele>
        <time>2022-05-27T11:53:33.849Z</time>
      </trkpt>
      <trkpt lat="42.21021" lon="18.94003">
        <ele>124.563424</ele>
        <time>2022-05-27T11:53:40.862Z</time>
      </trkpt>
      <trkpt lat="42.21017" lon="18.93991">
        <ele>124.954994</ele>
        <time>2022-05-27T11:53:46.857Z</time>
      </trkpt>
      <trkpt lat="42.21015" lon="18.93978">
        <ele>125.373134</ele>
        <time>2022-05-27T11:53:52.872Z</time>
      </trkpt>
      <trkpt lat="42.21013" lon="18.93965">
        <ele>125.79218</ele>
        <time>2022-05-27T11:53:58.867Z</time>
      </trkpt>
      <trkpt lat="42.21013" lon="18.93952">
        <ele>126.186469</ele>
        <time>2022-05-27T11:54:03.859Z</time>
      </trkpt>
      <trkpt lat="42.21015" lon="18.93939">
        <ele>126.603532</ele>
        <time>2022-05-27T11:54:08.857Z</time>
      </trkpt>
      <trkpt lat="42.21015" lon="18.93926">
        <ele>127.005296</ele>
        <time>2022-05-27T11:54:14.862Z</time>
      </trkpt>
      <trkpt lat="42.21017" lon="18.93913">
        <ele>127.508839</ele>
        <time>2022-05-27T11:54:21.870Z</time>
      </trkpt>
      <trkpt lat="42.21019" lon="18.939">
        <ele>128.119738</ele>
        <time>2022-05-27T11:54:28.851Z</time>
      </trkpt>
      <trkpt lat="42.21021" lon="18.93888">
        <ele>128.660772</ele>
        <time>2022-05-27T11:54:34.864Z</time>
      </trkpt>
      <trkpt lat="42.21021" lon="18.93874">
        <ele>129.257025</ele>
        <time>2022-05-27T11:54:40.872Z</time>
      </trkpt>
      <trkpt lat="42.21023" lon="18.93861">
        <ele>129.867524</ele>
        <time>2022-05-27T11:54:46.872Z</time>
      </trkpt>
      <trkpt lat="42.21023" lon="18.93847">
        <ele>130.471884</ele>
        <time>2022-05-27T11:54:52.860Z</time>
      </trkpt>
      <trkpt lat="42.21022" lon="18.93833">
        <ele>131.101096</ele>
        <time>2022-05-27T11:54:58.895Z</time>
      </trkpt>
      <trkpt lat="42.21022" lon="18.9382">
        <ele>131.658052</ele>
        <time>2022-05-27T11:55:04.865Z</time>
      </trkpt>
      <trkpt lat="42.21019" lon="18.93808">
        <ele>132.221928</ele>
        <time>2022-05-27T11:55:11.912Z</time>
      </trkpt>
      <trkpt lat="42.21016" lon="18.93796">
        <ele>132.770369</ele>
        <time>2022-05-27T11:55:17.865Z</time>
      </trkpt>
      <trkpt lat="42.2101" lon="18.93785">
        <ele>133.383682</ele>
        <time>2022-05-27T11:55:24.886Z</time>
      </trkpt>
      <trkpt lat="42.21004" lon="18.93775">
        <ele>133.955568</ele>
        <time>2022-05-27T11:55:31.868Z</time>
      </trkpt>
      <trkpt lat="42.20997" lon="18.93764">
        <ele>134.566918</ele>
        <time>2022-05-27T11:55:39.887Z</time>
      </trkpt>
      <trkpt lat="42.20996" lon="18.93751">
        <ele>135.166703</ele>
        <time>2022-05-27T11:55:45.854Z</time>
      </trkpt>
      <trkpt lat="42.20996" lon="18.93738">
        <ele>135.749102</ele>
        <time>2022-05-27T11:55:52.871Z</time>
      </trkpt>
      <trkpt lat="42.20999" lon="18.93726">
        <ele>136.291096</ele>
        <time>2022-05-27T11:56:00.858Z</time>
      </trkpt>
      <trkpt lat="42.21007" lon="18.93718">
        <ele>136.882569</ele>
        <time>2022-05-27T11:56:08.872Z</time>
      </trkpt>
      <trkpt lat="42.21013" lon="18.93707">
        <ele>137.486211</ele>
        <time>2022-05-27T11:56:16.884Z</time>
      </trkpt>
      <trkpt lat="42.2102" lon="18.93699">
        <ele>137.965992</ele>
        <time>2022-05-27T11:56:22.857Z</time>
      </trkpt>
      <trkpt lat="42.21024" lon="18.93687">
        <ele>138.226033</ele>
        <time>2022-05-27T11:56:27.859Z</time>
      </trkpt>
      <trkpt lat="42.21026" lon="18.93674">
        <ele>138.46732</ele>
        <time>2022-05-27T11:56:31.846Z</time>
      </trkpt>
      <trkpt lat="42.21024" lon="18.9366">
        <ele>138.747934</ele>
        <time>2022-05-27T11:56:36.864Z</time>
      </trkpt>
      <trkpt lat="42.21024" lon="18.93645">
        <ele>139.023591</ele>
        <time>2022-05-27T11:56:41.864Z</time>
      </trkpt>
      <trkpt lat="42.21023" lon="18.9363">
        <ele>139.305458</ele>
        <time>2022-05-27T11:56:46.847Z</time>
      </trkpt>
      <trkpt lat="42.21022" lon="18.93615">
        <ele>139.586368</ele>
        <time>2022-05-27T11:56:51.870Z</time>
      </trkpt>
      <trkpt lat="42.21021" lon="18.93603">
        <ele>139.828266</ele>
        <time>2022-05-27T11:56:56.856Z</time>
      </trkpt>
      <trkpt lat="42.21018" lon="18.9359">
        <ele>140.070679</ele>
        <time>2022-05-27T11:57:01.865Z</time>
      </trkpt>
      <trkpt lat="42.21017" lon="18.93578">
        <ele>140.302588</ele>
        <time>2022-05-27T11:57:06.866Z</time>
      </trkpt>
      <trkpt lat="42.21016" lon="18.93565">
        <ele>140.557926</ele>
        <time>2022-05-27T11:57:11.871Z</time>
      </trkpt>
      <trkpt lat="42.21014" lon="18.93553">
        <ele>140.78659</ele>
        <time>2022-05-27T11:57:16.873Z</time>
      </trkpt>
      <trkpt lat="42.2101" lon="18.93539">
        <ele>141.059178</ele>
        <time>2022-05-27T11:57:22.849Z</time>
      </trkpt>
      <trkpt lat="42.21008" lon="18.93525">
        <ele>141.329747</ele>
        <time>2022-05-27T11:57:28.851Z</time>
      </trkpt>
      <trkpt lat="42.21006" lon="18.93513">
        <ele>141.565372</ele>
        <time>2022-05-27T11:57:33.855Z</time>
      </trkpt>
      <trkpt lat="42.21004" lon="18.935">
        <ele>141.813977</ele>
        <time>2022-05-27T11:57:38.860Z</time>
      </trkpt>
      <trkpt lat="42.21" lon="18.93488">
        <ele>142.05639</ele>
        <time>2022-05-27T11:57:43.869Z</time>
      </trkpt>
      <trkpt lat="42.20997" lon="18.93477">
        <ele>142.289897</ele>
        <time>2022-05-27T11:57:48.869Z</time>
      </trkpt>
      <trkpt lat="42.20994" lon="18.93464">
        <ele>142.591615</ele>
        <time>2022-05-27T11:57:54.876Z</time>
      </trkpt>
      <trkpt lat="42.20991" lon="18.9345">
        <ele>143.044242</ele>
        <time>2022-05-27T11:58:00.864Z</time>
      </trkpt>
      <trkpt lat="42.20989" lon="18.93437">
        <ele>143.474015</ele>
        <time>2022-05-27T11:58:06.921Z</time>
      </trkpt>
      <trkpt lat="42.20986" lon="18.93425">
        <ele>143.888444</ele>
        <time>2022-05-27T11:58:12.870Z</time>
      </trkpt>
      <trkpt lat="42.20983" lon="18.93413">
        <ele>144.319598</ele>
        <time>2022-05-27T11:58:18.865Z</time>
      </trkpt>
      <trkpt lat="42.20978" lon="18.93399">
        <ele>144.794723</ele>
        <time>2022-05-27T11:58:24.859Z</time>
      </trkpt>
      <trkpt lat="42.20974" lon="18.93388">
        <ele>145.195316</ele>
        <time>2022-05-27T11:58:29.869Z</time>
      </trkpt>
      <trkpt lat="42.2097" lon="18.93376">
        <ele>145.628034</ele>
        <time>2022-05-27T11:58:35.861Z</time>
      </trkpt>
      <trkpt lat="42.20967" lon="18.93363">
        <ele>146.065317</ele>
        <time>2022-05-27T11:58:41.872Z</time>
      </trkpt>
      <trkpt lat="42.20965" lon="18.9335">
        <ele>146.481193</ele>
        <time>2022-05-27T11:58:47.868Z</time>
      </trkpt>
      <trkpt lat="42.20961" lon="18.93339">
        <ele>146.892631</ele>
        <time>2022-05-27T11:58:53.907Z</time>
      </trkpt>
      <trkpt lat="42.20955" lon="18.93329">
        <ele>147.315536</ele>
        <time>2022-05-27T11:58:59.870Z</time>
      </trkpt>
      <trkpt lat="42.20948" lon="18.9332">
        <ele>147.71864</ele>
        <time>2022-05-27T11:59:04.851Z</time>
      </trkpt>
      <trkpt lat="42.20942" lon="18.93309">
        <ele>148.1613</ele>
        <time>2022-05-27T11:59:09.857Z</time>
      </trkpt>
      <trkpt lat="42.20935" lon="18.933">
        <ele>148.575872</ele>
        <time>2022-05-27T11:59:14.857Z</time>
      </trkpt>
      <trkpt lat="42.20928" lon="18.9329">
        <ele>149.028347</ele>
        <time>2022-05-27T11:59:20.862Z</time>
      </trkpt>
      <trkpt lat="42.20921" lon="18.93282">
        <ele>149.449493</ele>
        <time>2022-05-27T11:59:26.878Z</time>
      </trkpt>
      <trkpt lat="42.20915" lon="18.93272">
        <ele>149.865729</ele>
        <time>2022-05-27T11:59:32.894Z</time>
      </trkpt>
      <trkpt lat="42.20908" lon="18.93263">
        <ele>150.289526</ele>
        <time>2022-05-27T11:59:38.872Z</time>
      </trkpt>
      <trkpt lat="42.209" lon="18.93255">
        <ele>150.694547</ele>
        <time>2022-05-27T11:59:44.901Z</time>
      </trkpt>
      <trkpt lat="42.20893" lon="18.93245">
        <ele>151.054688</ele>
        <time>2022-05-27T11:59:49.872Z</time>
      </trkpt>
      <trkpt lat="42.20888" lon="18.93233">
        <ele>151.453011</ele>
        <time>2022-05-27T11:59:55.867Z</time>
      </trkpt>
      <trkpt lat="42.20883" lon="18.93222">
        <ele>151.810441</ele>
        <time>2022-05-27T12:00:00.851Z</time>
      </trkpt>
      <trkpt lat="42.2088" lon="18.93209">
        <ele>152.212102</ele>
        <time>2022-05-27T12:00:06.879Z</time>
      </trkpt>
      <trkpt lat="42.20876" lon="18.93198">
        <ele>152.566124</ele>
        <time>2022-05-27T12:00:11.850Z</time>
      </trkpt>
      <trkpt lat="42.20874" lon="18.93184">
        <ele>152.959299</ele>
        <time>2022-05-27T12:00:17.877Z</time>
      </trkpt>
      <trkpt lat="42.20873" lon="18.93171">
        <ele>153.346611</ele>
        <time>2022-05-27T12:00:23.871Z</time>
      </trkpt>
      <trkpt lat="42.20874" lon="18.93157">
        <ele>153.742054</ele>
        <time>2022-05-27T12:00:29.866Z</time>
      </trkpt>
      <trkpt lat="42.20874" lon="18.93143">
        <ele>154.143185</ele>
        <time>2022-05-27T12:00:36.902Z</time>
      </trkpt>
      <trkpt lat="42.20874" lon="18.9313">
        <ele>154.498919</ele>
        <time>2022-05-27T12:00:42.862Z</time>
      </trkpt>
      <trkpt lat="42.20873" lon="18.93116">
        <ele>154.889472</ele>
        <time>2022-05-27T12:00:48.876Z</time>
      </trkpt>
      <trkpt lat="42.20872" lon="18.93103">
        <ele>155.283871</ele>
        <time>2022-05-27T12:00:55.874Z</time>
      </trkpt>
      <trkpt lat="42.20871" lon="18.93089">
        <ele>155.686103</ele>
        <time>2022-05-27T12:01:01.870Z</time>
      </trkpt>
      <trkpt lat="42.20868" lon="18.93075">
        <ele>156.077271</ele>
        <time>2022-05-27T12:01:07.874Z</time>
      </trkpt>
      <trkpt lat="42.20865" lon="18.93063">
        <ele>156.4329</ele>
        <time>2022-05-27T12:01:12.872Z</time>
      </trkpt>
      <trkpt lat="42.20851" lon="18.93023">
        <ele>158.610648</ele>
        <time>2022-05-27T12:02:43.907Z</time>
      </trkpt>
      <trkpt lat="42.20846" lon="18.93013">
        <ele>159.673366</ele>
        <time>2022-05-27T12:02:48.873Z</time>
      </trkpt>
      <trkpt lat="42.20841" lon="18.93003">
        <ele>160.781812</ele>
        <time>2022-05-27T12:02:53.871Z</time>
      </trkpt>
      <trkpt lat="42.20836" lon="18.9299">
        <ele>162.058585</ele>
        <time>2022-05-27T12:03:00.872Z</time>
      </trkpt>
      <trkpt lat="42.2083" lon="18.9298">
        <ele>163.167032</ele>
        <time>2022-05-27T12:03:05.859Z</time>
      </trkpt>
      <trkpt lat="42.20826" lon="18.92967">
        <ele>164.374746</ele>
        <time>2022-05-27T12:03:10.863Z</time>
      </trkpt>
      <trkpt lat="42.20826" lon="18.92954">
        <ele>165.534547</ele>
        <time>2022-05-27T12:03:16.870Z</time>
      </trkpt>
      <trkpt lat="42.20824" lon="18.9294">
        <ele>166.793497</ele>
        <time>2022-05-27T12:03:22.868Z</time>
      </trkpt>
      <trkpt lat="42.20822" lon="18.92927">
        <ele>167.90992</ele>
        <time>2022-05-27T12:03:29.869Z</time>
      </trkpt>
      <trkpt lat="42.20821" lon="18.92913">
        <ele>169.15313</ele>
        <time>2022-05-27T12:03:35.872Z</time>
      </trkpt>
      <trkpt lat="42.20821" lon="18.92901">
        <ele>170.269775</ele>
        <time>2022-05-27T12:03:41.845Z</time>
      </trkpt>
      <trkpt lat="42.2082" lon="18.92888">
        <ele>171.352614</ele>
        <time>2022-05-27T12:03:46.858Z</time>
      </trkpt>
      <trkpt lat="42.20822" lon="18.92874">
        <ele>172.59649</ele>
        <time>2022-05-27T12:03:56.905Z</time>
      </trkpt>
      <trkpt lat="42.20822" lon="18.92861">
        <ele>173.747509</ele>
        <time>2022-05-27T12:04:01.870Z</time>
      </trkpt>
      <trkpt lat="42.20823" lon="18.92849">
        <ele>174.829633</ele>
        <time>2022-05-27T12:04:06.864Z</time>
      </trkpt>
      <trkpt lat="42.20825" lon="18.92836">
        <ele>176.041415</ele>
        <time>2022-05-27T12:04:12.865Z</time>
      </trkpt>
      <trkpt lat="42.20829" lon="18.92824">
        <ele>177.1765</ele>
        <time>2022-05-27T12:04:18.867Z</time>
      </trkpt>
      <trkpt lat="42.20834" lon="18.92812">
        <ele>178.346419</ele>
        <time>2022-05-27T12:04:24.909Z</time>
      </trkpt>
      <trkpt lat="42.20839" lon="18.92801">
        <ele>178.617331</ele>
        <time>2022-05-27T12:04:30.900Z</time>
      </trkpt>
      <trkpt lat="42.20845" lon="18.92792">
        <ele>178.637368</ele>
        <time>2022-05-27T12:04:36.865Z</time>
      </trkpt>
      <trkpt lat="42.20853" lon="18.92782">
        <ele>178.661213</ele>
        <time>2022-05-27T12:04:44.869Z</time>
      </trkpt>
      <trkpt lat="42.20862" lon="18.92776">
        <ele>178.682667</ele>
        <time>2022-05-27T12:04:50.839Z</time>
      </trkpt>
      <trkpt lat="42.20871" lon="18.92772">
        <ele>178.703916</ele>
        <time>2022-05-27T12:04:57.844Z</time>
      </trkpt>
      <trkpt lat="42.2088" lon="18.92771">
        <ele>178.724283</ele>
        <time>2022-05-27T12:05:03.845Z</time>
      </trkpt>
      <trkpt lat="42.20889" lon="18.9277">
        <ele>178.744182</ele>
        <time>2022-05-27T12:05:08.845Z</time>
      </trkpt>
      <trkpt lat="42.20899" lon="18.9277">
        <ele>178.766881</ele>
        <time>2022-05-27T12:05:14.847Z</time>
      </trkpt>
      <trkpt lat="42.20909" lon="18.92771">
        <ele>178.788098</ele>
        <time>2022-05-27T12:05:20.841Z</time>
      </trkpt>
      <trkpt lat="42.20919" lon="18.92775">
        <ele>178.810869</ele>
        <time>2022-05-27T12:05:26.849Z</time>
      </trkpt>
      <trkpt lat="42.20928" lon="18.92779">
        <ele>178.832479</ele>
        <time>2022-05-27T12:05:33.854Z</time>
      </trkpt>
      <trkpt lat="42.20937" lon="18.92784">
        <ele>178.85389</ele>
        <time>2022-05-27T12:05:38.843Z</time>
      </trkpt>
      <trkpt lat="42.20946" lon="18.92789">
        <ele>178.873852</ele>
        <time>2022-05-27T12:05:44.844Z</time>
      </trkpt>
      <trkpt lat="42.20955" lon="18.92794">
        <ele>178.895502</ele>
        <time>2022-05-27T12:05:51.844Z</time>
      </trkpt>
      <trkpt lat="42.20964" lon="18.92799">
        <ele>178.917339</ele>
        <time>2022-05-27T12:05:57.849Z</time>
      </trkpt>
      <trkpt lat="42.20971" lon="18.92806">
        <ele>178.937284</ele>
        <time>2022-05-27T12:06:03.844Z</time>
      </trkpt>
      <trkpt lat="42.2098" lon="18.92812">
        <ele>178.959082</ele>
        <time>2022-05-27T12:06:09.841Z</time>
      </trkpt>
      <trkpt lat="42.20988" lon="18.92819">
        <ele>178.979456</ele>
        <time>2022-05-27T12:06:15.861Z</time>
      </trkpt>
      <trkpt lat="42.20994" lon="18.92828">
        <ele>179.054794</ele>
        <time>2022-05-27T12:06:21.842Z</time>
      </trkpt>
      <trkpt lat="42.21002" lon="18.92837">
        <ele>179.327956</ele>
        <time>2022-05-27T12:06:27.849Z</time>
      </trkpt>
      <trkpt lat="42.21008" lon="18.92846">
        <ele>179.605086</ele>
        <time>2022-05-27T12:06:34.838Z</time>
      </trkpt>
      <trkpt lat="42.21017" lon="18.92853">
        <ele>179.91539</ele>
        <time>2022-05-27T12:06:41.848Z</time>
      </trkpt>
      <trkpt lat="42.21025" lon="18.92861">
        <ele>180.179487</ele>
        <time>2022-05-27T12:06:47.833Z</time>
      </trkpt>
      <trkpt lat="42.21033" lon="18.92868">
        <ele>180.45609</ele>
        <time>2022-05-27T12:06:53.837Z</time>
      </trkpt>
      <trkpt lat="42.21042" lon="18.92873">
        <ele>180.754951</ele>
        <time>2022-05-27T12:07:00.837Z</time>
      </trkpt>
      <trkpt lat="42.21051" lon="18.92877">
        <ele>181.015136</ele>
        <time>2022-05-27T12:07:05.873Z</time>
      </trkpt>
      <trkpt lat="42.21061" lon="18.92881">
        <ele>181.316721</ele>
        <time>2022-05-27T12:07:11.841Z</time>
      </trkpt>
      <trkpt lat="42.21069" lon="18.92886">
        <ele>181.588853</ele>
        <time>2022-05-27T12:07:17.845Z</time>
      </trkpt>
      <trkpt lat="42.21079" lon="18.92889">
        <ele>181.872792</ele>
        <time>2022-05-27T12:07:24.848Z</time>
      </trkpt>
      <trkpt lat="42.21087" lon="18.92895">
        <ele>182.134602</ele>
        <time>2022-05-27T12:07:29.847Z</time>
      </trkpt>
      <trkpt lat="42.21095" lon="18.92904">
        <ele>182.446023</ele>
        <time>2022-05-27T12:07:34.836Z</time>
      </trkpt>
      <trkpt lat="42.21104" lon="18.92912">
        <ele>182.754087</ele>
        <time>2022-05-27T12:07:39.839Z</time>
      </trkpt>
      <trkpt lat="42.21113" lon="18.92917">
        <ele>183.044221</ele>
        <time>2022-05-27T12:07:44.831Z</time>
      </trkpt>
      <trkpt lat="42.21122" lon="18.92922">
        <ele>183.322538</ele>
        <time>2022-05-27T12:07:49.835Z</time>
      </trkpt>
      <trkpt lat="42.21132" lon="18.92928">
        <ele>183.62847</ele>
        <time>2022-05-27T12:07:55.856Z</time>
      </trkpt>
      <trkpt lat="42.2114" lon="18.92932">
        <ele>183.899163</ele>
        <time>2022-05-27T12:08:00.846Z</time>
      </trkpt>
      <trkpt lat="42.2115" lon="18.92938">
        <ele>184.193751</ele>
        <time>2022-05-27T12:08:05.850Z</time>
      </trkpt>
      <trkpt lat="42.21158" lon="18.92942">
        <ele>184.195809</ele>
        <time>2022-05-27T12:08:09.830Z</time>
      </trkpt>
      <trkpt lat="42.21168" lon="18.92948">
        <ele>184.174977</ele>
        <time>2022-05-27T12:08:13.858Z</time>
      </trkpt>
      <trkpt lat="42.21177" lon="18.92952">
        <ele>184.156318</ele>
        <time>2022-05-27T12:08:17.844Z</time>
      </trkpt>
      <trkpt lat="42.21186" lon="18.92956">
        <ele>184.138341</ele>
        <time>2022-05-27T12:08:21.866Z</time>
      </trkpt>
      <trkpt lat="42.21196" lon="18.92964">
        <ele>184.116412</ele>
        <time>2022-05-27T12:08:25.850Z</time>
      </trkpt>
      <trkpt lat="42.21205" lon="18.92972">
        <ele>184.095001</ele>
        <time>2022-05-27T12:08:29.861Z</time>
      </trkpt>
      <trkpt lat="42.21215" lon="18.9298">
        <ele>184.073207</ele>
        <time>2022-05-27T12:08:33.844Z</time>
      </trkpt>
      <trkpt lat="42.21225" lon="18.92988">
        <ele>184.050559</ele>
        <time>2022-05-27T12:08:37.861Z</time>
      </trkpt>
      <trkpt lat="42.21235" lon="18.92997">
        <ele>184.028239</ele>
        <time>2022-05-27T12:08:41.846Z</time>
      </trkpt>
      <trkpt lat="42.21244" lon="18.93007">
        <ele>184.005769</ele>
        <time>2022-05-27T12:08:45.838Z</time>
      </trkpt>
      <trkpt lat="42.21252" lon="18.93015">
        <ele>183.985998</ele>
        <time>2022-05-27T12:08:49.841Z</time>
      </trkpt>
      <trkpt lat="42.21259" lon="18.93023">
        <ele>183.968116</ele>
        <time>2022-05-27T12:08:53.840Z</time>
      </trkpt>
      <trkpt lat="42.21268" lon="18.93032">
        <ele>183.947457</ele>
        <time>2022-05-27T12:08:58.848Z</time>
      </trkpt>
      <trkpt lat="42.21274" lon="18.93041">
        <ele>183.928937</ele>
        <time>2022-05-27T12:09:02.857Z</time>
      </trkpt>
      <trkpt lat="42.21281" lon="18.93049">
        <ele>183.911189</ele>
        <time>2022-05-27T12:09:06.872Z</time>
      </trkpt>
      <trkpt lat="42.21289" lon="18.93057">
        <ele>183.892346</ele>
        <time>2022-05-27T12:09:10.858Z</time>
      </trkpt>
      <trkpt lat="42.21297" lon="18.93067">
        <ele>183.871193</ele>
        <time>2022-05-27T12:09:14.877Z</time>
      </trkpt>
      <trkpt lat="42.21306" lon="18.93076">
        <ele>184.327846</ele>
        <time>2022-05-27T12:09:18.879Z</time>
      </trkpt>
      <trkpt lat="42.21314" lon="18.93084">
        <ele>184.925004</ele>
        <time>2022-05-27T12:09:22.894Z</time>
      </trkpt>
      <trkpt lat="42.21323" lon="18.9309">
        <ele>185.508099</ele>
        <time>2022-05-27T12:09:26.893Z</time>
      </trkpt>
      <trkpt lat="42.21331" lon="18.93096">
        <ele>186.061274</ele>
        <time>2022-05-27T12:09:30.873Z</time>
      </trkpt>
      <trkpt lat="42.21339" lon="18.93104">
        <ele>186.6611</ele>
        <time>2022-05-27T12:09:34.871Z</time>
      </trkpt>
      <trkpt lat="42.21347" lon="18.9311">
        <ele>187.199004</ele>
        <time>2022-05-27T12:09:38.867Z</time>
      </trkpt>
      <trkpt lat="42.21355" lon="18.93117">
        <ele>187.801098</ele>
        <time>2022-05-27T12:09:42.857Z</time>
      </trkpt>
      <trkpt lat="42.21364" lon="18.93125">
        <ele>188.39093</ele>
        <time>2022-05-27T12:09:46.877Z</time>
      </trkpt>
      <trkpt lat="42.21372" lon="18.9313">
        <ele>188.93418</ele>
        <time>2022-05-27T12:09:50.870Z</time>
      </trkpt>
      <trkpt lat="42.21382" lon="18.93137">
        <ele>189.580961</ele>
        <time>2022-05-27T12:09:55.902Z</time>
      </trkpt>
      <trkpt lat="42.2139" lon="18.93143">
        <ele>190.172006</ele>
        <time>2022-05-27T12:10:00.858Z</time>
      </trkpt>
      <trkpt lat="42.214" lon="18.93147">
        <ele>190.762979</ele>
        <time>2022-05-27T12:10:05.940Z</time>
      </trkpt>
      <trkpt lat="42.21409" lon="18.93152">
        <ele>191.386066</ele>
        <time>2022-05-27T12:10:11.862Z</time>
      </trkpt>
      <trkpt lat="42.21418" lon="18.93156">
        <ele>191.93488</ele>
        <time>2022-05-27T12:10:17.854Z</time>
      </trkpt>
      <trkpt lat="42.21428" lon="18.93157">
        <ele>192.495452</ele>
        <time>2022-05-27T12:10:23.875Z</time>
      </trkpt>
      <trkpt lat="42.21438" lon="18.9316">
        <ele>193.107112</ele>
        <time>2022-05-27T12:10:29.861Z</time>
      </trkpt>
      <trkpt lat="42.21448" lon="18.93166">
        <ele>193.749197</ele>
        <time>2022-05-27T12:10:35.864Z</time>
      </trkpt>
      <trkpt lat="42.21476" lon="18.93179">
        <ele>195.573159</ele>
        <time>2022-05-27T12:17:03.903Z</time>
      </trkpt>
      <trkpt lat="42.21485" lon="18.9318">
        <ele>196.160204</ele>
        <time>2022-05-27T12:17:08.882Z</time>
      </trkpt>
      <trkpt lat="42.21496" lon="18.9318">
        <ele>196.820549</ele>
        <time>2022-05-27T12:17:15.866Z</time>
      </trkpt>
      <trkpt lat="42.21506" lon="18.93176">
        <ele>197.489101</ele>
        <time>2022-05-27T12:17:21.866Z</time>
      </trkpt>
      <trkpt lat="42.21515" lon="18.93167">
        <ele>198.144902</ele>
        <time>2022-05-27T12:17:26.895Z</time>
      </trkpt>
      <trkpt lat="42.21523" lon="18.93162">
        <ele>198.708065</ele>
        <time>2022-05-27T12:17:31.859Z</time>
      </trkpt>
      <trkpt lat="42.21528" lon="18.93151">
        <ele>199.312054</ele>
        <time>2022-05-27T12:17:36.881Z</time>
      </trkpt>
      <trkpt lat="42.21538" lon="18.93147">
        <ele>199.965451</ele>
        <time>2022-05-27T12:17:42.867Z</time>
      </trkpt>
      <trkpt lat="42.21546" lon="18.93137">
        <ele>200.610255</ele>
        <time>2022-05-27T12:17:48.873Z</time>
      </trkpt>
      <trkpt lat="42.21551" lon="18.93126">
        <ele>201.236248</ele>
        <time>2022-05-27T12:17:53.927Z</time>
      </trkpt>
      <trkpt lat="42.21554" lon="18.93112">
        <ele>201.868957</ele>
        <time>2022-05-27T12:17:58.875Z</time>
      </trkpt>
      <trkpt lat="42.21558" lon="18.93101">
        <ele>202.465788</ele>
        <time>2022-05-27T12:18:03.867Z</time>
      </trkpt>
      <trkpt lat="42.2156" lon="18.93086">
        <ele>203.145039</ele>
        <time>2022-05-27T12:18:09.868Z</time>
      </trkpt>
      <trkpt lat="42.21561" lon="18.93072">
        <ele>203.815489</ele>
        <time>2022-05-27T12:18:14.867Z</time>
      </trkpt>
      <trkpt lat="42.2156" lon="18.93059">
        <ele>204.384826</ele>
        <time>2022-05-27T12:18:18.871Z</time>
      </trkpt>
      <trkpt lat="42.21559" lon="18.93047">
        <ele>204.943169</ele>
        <time>2022-05-27T12:18:22.874Z</time>
      </trkpt>
      <trkpt lat="42.21555" lon="18.93034">
        <ele>205.583228</ele>
        <time>2022-05-27T12:18:27.853Z</time>
      </trkpt>
      <trkpt lat="42.2155" lon="18.93022">
        <ele>205.963727</ele>
        <time>2022-05-27T12:18:32.868Z</time>
      </trkpt>
      <trkpt lat="42.21543" lon="18.93012">
        <ele>206.221547</ele>
        <time>2022-05-27T12:18:37.914Z</time>
      </trkpt>
      <trkpt lat="42.21536" lon="18.93002">
        <ele>206.480945</ele>
        <time>2022-05-27T12:18:41.872Z</time>
      </trkpt>
      <trkpt lat="42.21529" lon="18.92993">
        <ele>206.722151</ele>
        <time>2022-05-27T12:18:45.878Z</time>
      </trkpt>
      <trkpt lat="42.21521" lon="18.92985">
        <ele>206.963454</ele>
        <time>2022-05-27T12:18:49.910Z</time>
      </trkpt>
      <trkpt lat="42.21514" lon="18.92976">
        <ele>207.223978</ele>
        <time>2022-05-27T12:18:53.861Z</time>
      </trkpt>
      <trkpt lat="42.21507" lon="18.92966">
        <ele>207.477815</ele>
        <time>2022-05-27T12:18:57.865Z</time>
      </trkpt>
      <trkpt lat="42.215" lon="18.92954">
        <ele>207.762169</ele>
        <time>2022-05-27T12:19:01.875Z</time>
      </trkpt>
      <trkpt lat="42.21495" lon="18.9294">
        <ele>208.056756</ele>
        <time>2022-05-27T12:19:05.875Z</time>
      </trkpt>
      <trkpt lat="42.2149" lon="18.92925">
        <ele>208.349353</ele>
        <time>2022-05-27T12:19:09.860Z</time>
      </trkpt>
      <trkpt lat="42.21488" lon="18.9291">
        <ele>208.648967</ele>
        <time>2022-05-27T12:19:13.857Z</time>
      </trkpt>
      <trkpt lat="42.21487" lon="18.92895">
        <ele>208.929555</ele>
        <time>2022-05-27T12:19:17.883Z</time>
      </trkpt>
      <trkpt lat="42.21486" lon="18.9288">
        <ele>209.210926</ele>
        <time>2022-05-27T12:19:21.867Z</time>
      </trkpt>
      <trkpt lat="42.21487" lon="18.92866">
        <ele>209.473215</ele>
        <time>2022-05-27T12:19:25.867Z</time>
      </trkpt>
      <trkpt lat="42.21491" lon="18.92853">
        <ele>209.738389</ele>
        <time>2022-05-27T12:19:29.872Z</time>
      </trkpt>
      <trkpt lat="42.21494" lon="18.92839">
        <ele>210.011946</ele>
        <time>2022-05-27T12:19:33.897Z</time>
      </trkpt>
      <trkpt lat="42.21496" lon="18.92825">
        <ele>210.267632</ele>
        <time>2022-05-27T12:19:37.870Z</time>
      </trkpt>
      <trkpt lat="42.21502" lon="18.92814">
        <ele>210.34177</ele>
        <time>2022-05-27T12:19:41.865Z</time>
      </trkpt>
      <trkpt lat="42.21509" lon="18.92802">
        <ele>210.371826</ele>
        <time>2022-05-27T12:19:45.879Z</time>
      </trkpt>
      <trkpt lat="42.21517" lon="18.92791">
        <ele>210.404589</ele>
        <time>2022-05-27T12:19:49.866Z</time>
      </trkpt>
      <trkpt lat="42.21526" lon="18.92781">
        <ele>210.437443</ele>
        <time>2022-05-27T12:19:53.865Z</time>
      </trkpt>
      <trkpt lat="42.21534" lon="18.92773">
        <ele>210.462502</ele>
        <time>2022-05-27T12:19:56.874Z</time>
      </trkpt>
      <trkpt lat="42.21541" lon="18.92764">
        <ele>210.489345</ele>
        <time>2022-05-27T12:19:59.857Z</time>
      </trkpt>
      <trkpt lat="42.21549" lon="18.92754">
        <ele>210.519037</ele>
        <time>2022-05-27T12:20:02.858Z</time>
      </trkpt>
      <trkpt lat="42.21556" lon="18.92744">
        <ele>210.547426</ele>
        <time>2022-05-27T12:20:05.861Z</time>
      </trkpt>
      <trkpt lat="42.21562" lon="18.92732">
        <ele>210.576981</ele>
        <time>2022-05-27T12:20:08.870Z</time>
      </trkpt>
      <trkpt lat="42.21568" lon="18.9272">
        <ele>210.606159</ele>
        <time>2022-05-27T12:20:11.866Z</time>
      </trkpt>
      <trkpt lat="42.21573" lon="18.92705">
        <ele>210.639242</ele>
        <time>2022-05-27T12:20:14.859Z</time>
      </trkpt>
      <trkpt lat="42.21578" lon="18.9269">
        <ele>210.672692</ele>
        <time>2022-05-27T12:20:17.919Z</time>
      </trkpt>
      <trkpt lat="42.21581" lon="18.92674">
        <ele>210.708013</ele>
        <time>2022-05-27T12:20:20.888Z</time>
      </trkpt>
      <trkpt lat="42.21584" lon="18.92656">
        <ele>210.74352</ele>
        <time>2022-05-27T12:20:23.865Z</time>
      </trkpt>
      <trkpt lat="42.21586" lon="18.92639">
        <ele>210.779732</ele>
        <time>2022-05-27T12:20:26.867Z</time>
      </trkpt>
      <trkpt lat="42.21587" lon="18.92622">
        <ele>210.800928</ele>
        <time>2022-05-27T12:20:29.857Z</time>
      </trkpt>
      <trkpt lat="42.21588" lon="18.9261">
        <ele>210.549727</ele>
        <time>2022-05-27T12:20:31.870Z</time>
      </trkpt>
      <trkpt lat="42.21589" lon="18.92596">
        <ele>210.279758</ele>
        <time>2022-05-27T12:20:33.884Z</time>
      </trkpt>
      <trkpt lat="42.2159" lon="18.92583">
        <ele>209.996283</ele>
        <time>2022-05-27T12:20:35.884Z</time>
      </trkpt>
      <trkpt lat="42.21592" lon="18.9257">
        <ele>209.731987</ele>
        <time>2022-05-27T12:20:37.868Z</time>
      </trkpt>
      <trkpt lat="42.21595" lon="18.92556">
        <ele>209.432267</ele>
        <time>2022-05-27T12:20:39.901Z</time>
      </trkpt>
      <trkpt lat="42.21598" lon="18.92543">
        <ele>209.162514</ele>
        <time>2022-05-27T12:20:41.879Z</time>
      </trkpt>
      <trkpt lat="42.216" lon="18.92528">
        <ele>208.858646</ele>
        <time>2022-05-27T12:20:43.858Z</time>
      </trkpt>
      <trkpt lat="42.21603" lon="18.92515">
        <ele>208.568568</ele>
        <time>2022-05-27T12:20:45.870Z</time>
      </trkpt>
      <trkpt lat="42.21605" lon="18.925">
        <ele>208.271162</ele>
        <time>2022-05-27T12:20:47.858Z</time>
      </trkpt>
      <trkpt lat="42.21608" lon="18.92486">
        <ele>207.963947</ele>
        <time>2022-05-27T12:20:49.848Z</time>
      </trkpt>
      <trkpt lat="42.21611" lon="18.9247">
        <ele>207.647498</ele>
        <time>2022-05-27T12:20:51.862Z</time>
      </trkpt>
      <trkpt lat="42.21613" lon="18.92455">
        <ele>207.323108</ele>
        <time>2022-05-27T12:20:53.878Z</time>
      </trkpt>
      <trkpt lat="42.21615" lon="18.92439">
        <ele>207.006247</ele>
        <time>2022-05-27T12:20:55.845Z</time>
      </trkpt>
      <trkpt lat="42.21616" lon="18.92424">
        <ele>206.698978</ele>
        <time>2022-05-27T12:20:57.876Z</time>
      </trkpt>
      <trkpt lat="42.21616" lon="18.92411">
        <ele>206.428616</ele>
        <time>2022-05-27T12:20:59.850Z</time>
      </trkpt>
      <trkpt lat="42.21616" lon="18.92397">
        <ele>206.140017</ele>
        <time>2022-05-27T12:21:01.868Z</time>
      </trkpt>
      <trkpt lat="42.21615" lon="18.92382">
        <ele>205.835685</ele>
        <time>2022-05-27T12:21:03.870Z</time>
      </trkpt>
      <trkpt lat="42.21614" lon="18.92365">
        <ele>205.451368</ele>
        <time>2022-05-27T12:21:05.866Z</time>
      </trkpt>
      <trkpt lat="42.21612" lon="18.92347">
        <ele>205.03538</ele>
        <time>2022-05-27T12:21:07.867Z</time>
      </trkpt>
      <trkpt lat="42.2161" lon="18.92329">
        <ele>204.635809</ele>
        <time>2022-05-27T12:21:09.854Z</time>
      </trkpt>
      <trkpt lat="42.21609" lon="18.92313">
        <ele>204.25871</ele>
        <time>2022-05-27T12:21:11.871Z</time>
      </trkpt>
      <trkpt lat="42.2161" lon="18.92296">
        <ele>203.891359</ele>
        <time>2022-05-27T12:21:13.913Z</time>
      </trkpt>
      <trkpt lat="42.2161" lon="18.92279">
        <ele>203.507983</ele>
        <time>2022-05-27T12:21:15.866Z</time>
      </trkpt>
      <trkpt lat="42.21612" lon="18.92263">
        <ele>203.129267</ele>
        <time>2022-05-27T12:21:17.908Z</time>
      </trkpt>
      <trkpt lat="42.21614" lon="18.92246">
        <ele>202.74584</ele>
        <time>2022-05-27T12:21:19.852Z</time>
      </trkpt>
      <trkpt lat="42.21616" lon="18.9223">
        <ele>202.372321</ele>
        <time>2022-05-27T12:21:21.860Z</time>
      </trkpt>
      <trkpt lat="42.2162" lon="18.92213">
        <ele>201.973049</ele>
        <time>2022-05-27T12:21:23.856Z</time>
      </trkpt>
      <trkpt lat="42.21624" lon="18.92198">
        <ele>201.608527</ele>
        <time>2022-05-27T12:21:25.854Z</time>
      </trkpt>
      <trkpt lat="42.21629" lon="18.92182">
        <ele>201.234557</ele>
        <time>2022-05-27T12:21:27.853Z</time>
      </trkpt>
      <trkpt lat="42.21635" lon="18.92167">
        <ele>200.833053</ele>
        <time>2022-05-27T12:21:29.857Z</time>
      </trkpt>
      <trkpt lat="42.21643" lon="18.92151">
        <ele>200.409898</ele>
        <time>2022-05-27T12:21:31.871Z</time>
      </trkpt>
      <trkpt lat="42.21651" lon="18.92135">
        <ele>199.397219</ele>
        <time>2022-05-27T12:21:33.867Z</time>
      </trkpt>
      <trkpt lat="42.2166" lon="18.92119">
        <ele>198.316147</ele>
        <time>2022-05-27T12:21:35.867Z</time>
      </trkpt>
      <trkpt lat="42.21671" lon="18.92103">
        <ele>197.143227</ele>
        <time>2022-05-27T12:21:37.908Z</time>
      </trkpt>
      <trkpt lat="42.21684" lon="18.92088">
        <ele>195.935498</ele>
        <time>2022-05-27T12:21:39.849Z</time>
      </trkpt>
      <trkpt lat="42.21697" lon="18.92073">
        <ele>194.662202</ele>
        <time>2022-05-27T12:21:41.868Z</time>
      </trkpt>
      <trkpt lat="42.21705" lon="18.92066">
        <ele>194.005491</ele>
        <time>2022-05-27T12:21:42.857Z</time>
      </trkpt>
      <trkpt lat="42.21712" lon="18.92058">
        <ele>193.342925</ele>
        <time>2022-05-27T12:21:43.865Z</time>
      </trkpt>
      <trkpt lat="42.2172" lon="18.92051">
        <ele>192.659616</ele>
        <time>2022-05-27T12:21:44.868Z</time>
      </trkpt>
      <trkpt lat="42.21728" lon="18.92044">
        <ele>191.964299</ele>
        <time>2022-05-27T12:21:45.872Z</time>
      </trkpt>
      <trkpt lat="42.21736" lon="18.92036">
        <ele>191.271233</ele>
        <time>2022-05-27T12:21:46.865Z</time>
      </trkpt>
      <trkpt lat="42.21743" lon="18.92027">
        <ele>190.580671</ele>
        <time>2022-05-27T12:21:47.861Z</time>
      </trkpt>
      <trkpt lat="42.2175" lon="18.92018">
        <ele>189.877344</ele>
        <time>2022-05-27T12:21:48.901Z</time>
      </trkpt>
      <trkpt lat="42.21757" lon="18.92008">
        <ele>189.148553</ele>
        <time>2022-05-27T12:21:49.869Z</time>
      </trkpt>
      <trkpt lat="42.21762" lon="18.91998">
        <ele>188.467221</ele>
        <time>2022-05-27T12:21:50.879Z</time>
      </trkpt>
      <trkpt lat="42.21768" lon="18.91986">
        <ele>187.733332</ele>
        <time>2022-05-27T12:21:51.859Z</time>
      </trkpt>
      <trkpt lat="42.21773" lon="18.91974">
        <ele>187.039722</ele>
        <time>2022-05-27T12:21:52.850Z</time>
      </trkpt>
      <trkpt lat="42.21777" lon="18.91961">
        <ele>186.337348</ele>
        <time>2022-05-27T12:21:53.864Z</time>
      </trkpt>
      <trkpt lat="42.21781" lon="18.91949">
        <ele>185.674089</ele>
        <time>2022-05-27T12:21:54.910Z</time>
      </trkpt>
      <trkpt lat="42.21785" lon="18.91935">
        <ele>184.953454</ele>
        <time>2022-05-27T12:21:55.851Z</time>
      </trkpt>
      <trkpt lat="42.21789" lon="18.91921">
        <ele>184.22823</ele>
        <time>2022-05-27T12:21:56.866Z</time>
      </trkpt>
      <trkpt lat="42.21792" lon="18.91907">
        <ele>183.507596</ele>
        <time>2022-05-27T12:21:57.871Z</time>
      </trkpt>
      <trkpt lat="42.21796" lon="18.91894">
        <ele>182.789204</ele>
        <time>2022-05-27T12:21:58.871Z</time>
      </trkpt>
      <trkpt lat="42.218" lon="18.9188">
        <ele>182.089224</ele>
        <time>2022-05-27T12:21:59.876Z</time>
      </trkpt>
      <trkpt lat="42.21804" lon="18.91867">
        <ele>181.39383</ele>
        <time>2022-05-27T12:22:00.864Z</time>
      </trkpt>
      <trkpt lat="42.21808" lon="18.91853">
        <ele>180.689125</ele>
        <time>2022-05-27T12:22:01.909Z</time>
      </trkpt>
      <trkpt lat="42.21811" lon="18.9184">
        <ele>179.984559</ele>
        <time>2022-05-27T12:22:02.873Z</time>
      </trkpt>
      <trkpt lat="42.21815" lon="18.91827">
        <ele>179.291461</ele>
        <time>2022-05-27T12:22:03.875Z</time>
      </trkpt>
      <trkpt lat="42.21818" lon="18.91814">
        <ele>178.607551</ele>
        <time>2022-05-27T12:22:04.864Z</time>
      </trkpt>
      <trkpt lat="42.21822" lon="18.91801">
        <ele>177.94653</ele>
        <time>2022-05-27T12:22:05.867Z</time>
      </trkpt>
      <trkpt lat="42.21825" lon="18.91788">
        <ele>177.294748</ele>
        <time>2022-05-27T12:22:06.865Z</time>
      </trkpt>
      <trkpt lat="42.21829" lon="18.91776">
        <ele>176.647558</ele>
        <time>2022-05-27T12:22:07.858Z</time>
      </trkpt>
      <trkpt lat="42.21833" lon="18.91764">
        <ele>176.017758</ele>
        <time>2022-05-27T12:22:08.889Z</time>
      </trkpt>
      <trkpt lat="42.21837" lon="18.91753">
        <ele>175.477219</ele>
        <time>2022-05-27T12:22:09.878Z</time>
      </trkpt>
      <trkpt lat="42.2184" lon="18.91741">
        <ele>175.148297</ele>
        <time>2022-05-27T12:22:10.872Z</time>
      </trkpt>
      <trkpt lat="42.21844" lon="18.9173">
        <ele>174.817274</ele>
        <time>2022-05-27T12:22:11.868Z</time>
      </trkpt>
      <trkpt lat="42.21849" lon="18.91719">
        <ele>174.499878</ele>
        <time>2022-05-27T12:22:12.913Z</time>
      </trkpt>
      <trkpt lat="42.21858" lon="18.91698">
        <ele>173.856716</ele>
        <time>2022-05-27T12:22:14.869Z</time>
      </trkpt>
      <trkpt lat="42.21863" lon="18.91688">
        <ele>173.536956</ele>
        <time>2022-05-27T12:22:15.862Z</time>
      </trkpt>
      <trkpt lat="42.21868" lon="18.91678">
        <ele>173.215659</ele>
        <time>2022-05-27T12:22:16.868Z</time>
      </trkpt>
      <trkpt lat="42.21879" lon="18.91658">
        <ele>172.575391</ele>
        <time>2022-05-27T12:22:18.939Z</time>
      </trkpt>
      <trkpt lat="42.21884" lon="18.91648">
        <ele>172.254238</ele>
        <time>2022-05-27T12:22:19.858Z</time>
      </trkpt>
      <trkpt lat="42.2189" lon="18.91638">
        <ele>171.928888</ele>
        <time>2022-05-27T12:22:20.869Z</time>
      </trkpt>
      <trkpt lat="42.21901" lon="18.91619">
        <ele>171.303344</ele>
        <time>2022-05-27T12:22:22.860Z</time>
      </trkpt>
      <trkpt lat="42.21912" lon="18.91599">
        <ele>170.663082</ele>
        <time>2022-05-27T12:22:24.865Z</time>
      </trkpt>
      <trkpt lat="42.21922" lon="18.9158">
        <ele>170.037569</ele>
        <time>2022-05-27T12:22:26.866Z</time>
      </trkpt>
      <trkpt lat="42.21933" lon="18.91561">
        <ele>169.412055</ele>
        <time>2022-05-27T12:22:28.870Z</time>
      </trkpt>
      <trkpt lat="42.21938" lon="18.91551">
        <ele>169.170409</ele>
        <time>2022-05-27T12:22:29.856Z</time>
      </trkpt>
      <trkpt lat="42.21943" lon="18.91541">
        <ele>169.038556</ele>
        <time>2022-05-27T12:22:30.854Z</time>
      </trkpt>
      <trkpt lat="42.21949" lon="18.91531">
        <ele>168.906736</ele>
        <time>2022-05-27T12:22:31.863Z</time>
      </trkpt>
      <trkpt lat="42.21954" lon="18.91521">
        <ele>168.774041</ele>
        <time>2022-05-27T12:22:32.876Z</time>
      </trkpt>
      <trkpt lat="42.21963" lon="18.91501">
        <ele>168.518554</ele>
        <time>2022-05-27T12:22:34.864Z</time>
      </trkpt>
      <trkpt lat="42.21972" lon="18.91482">
        <ele>168.269542</ele>
        <time>2022-05-27T12:22:36.874Z</time>
      </trkpt>
      <trkpt lat="42.2198" lon="18.91462">
        <ele>168.028991</ele>
        <time>2022-05-27T12:22:38.866Z</time>
      </trkpt>
      <trkpt lat="42.21988" lon="18.91443">
        <ele>167.793513</ele>
        <time>2022-05-27T12:22:40.874Z</time>
      </trkpt>
      <trkpt lat="42.21995" lon="18.91423">
        <ele>167.552578</ele>
        <time>2022-05-27T12:22:42.865Z</time>
      </trkpt>
      <trkpt lat="42.22002" lon="18.91404">
        <ele>167.326471</ele>
        <time>2022-05-27T12:22:44.862Z</time>
      </trkpt>
      <trkpt lat="42.22008" lon="18.91386">
        <ele>167.114452</ele>
        <time>2022-05-27T12:22:46.898Z</time>
      </trkpt>
      <trkpt lat="42.22013" lon="18.91369">
        <ele>166.912288</ele>
        <time>2022-05-27T12:22:48.867Z</time>
      </trkpt>
      <trkpt lat="42.22018" lon="18.91353">
        <ele>166.7239</ele>
        <time>2022-05-27T12:22:50.876Z</time>
      </trkpt>
      <trkpt lat="42.22023" lon="18.91337">
        <ele>166.594812</ele>
        <time>2022-05-27T12:22:52.880Z</time>
      </trkpt>
      <trkpt lat="42.22027" lon="18.91322">
        <ele>166.572434</ele>
        <time>2022-05-27T12:22:54.858Z</time>
      </trkpt>
      <trkpt lat="42.22031" lon="18.91308">
        <ele>166.551433</ele>
        <time>2022-05-27T12:22:56.889Z</time>
      </trkpt>
      <trkpt lat="42.22035" lon="18.91295">
        <ele>166.531367</ele>
        <time>2022-05-27T12:22:58.870Z</time>
      </trkpt>
      <trkpt lat="42.22039" lon="18.91283">
        <ele>166.51255</ele>
        <time>2022-05-27T12:23:00.863Z</time>
      </trkpt>
      <trkpt lat="42.22043" lon="18.91271">
        <ele>166.494458</ele>
        <time>2022-05-27T12:23:02.859Z</time>
      </trkpt>
      <trkpt lat="42.22047" lon="18.9126">
        <ele>166.476655</ele>
        <time>2022-05-27T12:23:04.866Z</time>
      </trkpt>
      <trkpt lat="42.22051" lon="18.91248">
        <ele>166.459152</ele>
        <time>2022-05-27T12:23:06.859Z</time>
      </trkpt>
      <trkpt lat="42.22055" lon="18.91238">
        <ele>166.442195</ele>
        <time>2022-05-27T12:23:08.854Z</time>
      </trkpt>
      <trkpt lat="42.2206" lon="18.91227">
        <ele>166.424148</ele>
        <time>2022-05-27T12:23:10.864Z</time>
      </trkpt>
      <trkpt lat="42.22065" lon="18.91217">
        <ele>166.406727</ele>
        <time>2022-05-27T12:23:12.881Z</time>
      </trkpt>
      <trkpt lat="42.22071" lon="18.91207">
        <ele>166.388274</ele>
        <time>2022-05-27T12:23:14.861Z</time>
      </trkpt>
      <trkpt lat="42.22078" lon="18.91198">
        <ele>166.370913</ele>
        <time>2022-05-27T12:23:16.867Z</time>
      </trkpt>
      <trkpt lat="42.22085" lon="18.9119">
        <ele>166.353585</ele>
        <time>2022-05-27T12:23:18.858Z</time>
      </trkpt>
      <trkpt lat="42.22092" lon="18.91182">
        <ele>166.336249</ele>
        <time>2022-05-27T12:23:20.853Z</time>
      </trkpt>
      <trkpt lat="42.221" lon="18.91176">
        <ele>166.318121</ele>
        <time>2022-05-27T12:23:22.871Z</time>
      </trkpt>
      <trkpt lat="42.22109" lon="18.9117">
        <ele>166.300267</ele>
        <time>2022-05-27T12:23:24.889Z</time>
      </trkpt>
      <trkpt lat="42.22117" lon="18.91167">
        <ele>166.283128</ele>
        <time>2022-05-27T12:23:26.839Z</time>
      </trkpt>
      <trkpt lat="42.22127" lon="18.91164">
        <ele>166.264246</ele>
        <time>2022-05-27T12:23:28.868Z</time>
      </trkpt>
      <trkpt lat="42.22136" lon="18.91163">
        <ele>166.144925</ele>
        <time>2022-05-27T12:23:30.864Z</time>
      </trkpt>
      <trkpt lat="42.22148" lon="18.91163">
        <ele>165.946182</ele>
        <time>2022-05-27T12:23:33.863Z</time>
      </trkpt>
      <trkpt lat="42.22161" lon="18.91165">
        <ele>165.7505</ele>
        <time>2022-05-27T12:23:36.866Z</time>
      </trkpt>
      <trkpt lat="42.22174" lon="18.91168">
        <ele>165.540206</ele>
        <time>2022-05-27T12:23:39.866Z</time>
      </trkpt>
      <trkpt lat="42.22183" lon="18.9117">
        <ele>165.390662</ele>
        <time>2022-05-27T12:23:41.886Z</time>
      </trkpt>
      <trkpt lat="42.22192" lon="18.91172">
        <ele>165.245429</ele>
        <time>2022-05-27T12:23:43.865Z</time>
      </trkpt>
      <trkpt lat="42.22205" lon="18.91175">
        <ele>165.02773</ele>
        <time>2022-05-27T12:23:46.907Z</time>
      </trkpt>
      <trkpt lat="42.22215" lon="18.91177">
        <ele>164.862537</ele>
        <time>2022-05-27T12:23:48.859Z</time>
      </trkpt>
      <trkpt lat="42.22226" lon="18.91179">
        <ele>164.683492</ele>
        <time>2022-05-27T12:23:50.882Z</time>
      </trkpt>
      <trkpt lat="42.22238" lon="18.91179">
        <ele>164.497559</ele>
        <time>2022-05-27T12:23:52.874Z</time>
      </trkpt>
      <trkpt lat="42.2225" lon="18.91177">
        <ele>164.308229</ele>
        <time>2022-05-27T12:23:54.863Z</time>
      </trkpt>
      <trkpt lat="42.22262" lon="18.91172">
        <ele>164.104564</ele>
        <time>2022-05-27T12:23:56.854Z</time>
      </trkpt>
      <trkpt lat="42.22275" lon="18.91165">
        <ele>163.873856</ele>
        <time>2022-05-27T12:23:58.890Z</time>
      </trkpt>
      <trkpt lat="42.22289" lon="18.91156">
        <ele>163.625754</ele>
        <time>2022-05-27T12:24:00.859Z</time>
      </trkpt>
      <trkpt lat="42.22304" lon="18.91145">
        <ele>163.354911</ele>
        <time>2022-05-27T12:24:02.872Z</time>
      </trkpt>
      <trkpt lat="42.22319" lon="18.91134">
        <ele>162.981764</ele>
        <time>2022-05-27T12:24:04.867Z</time>
      </trkpt>
      <trkpt lat="42.22334" lon="18.91122">
        <ele>162.601</ele>
        <time>2022-05-27T12:24:06.898Z</time>
      </trkpt>
      <trkpt lat="42.2235" lon="18.91112">
        <ele>162.226321</ele>
        <time>2022-05-27T12:24:08.897Z</time>
      </trkpt>
      <trkpt lat="42.22365" lon="18.91102">
        <ele>161.862753</ele>
        <time>2022-05-27T12:24:10.867Z</time>
      </trkpt>
      <trkpt lat="42.2238" lon="18.91093">
        <ele>161.513647</ele>
        <time>2022-05-27T12:24:12.878Z</time>
      </trkpt>
      <trkpt lat="42.22394" lon="18.91086">
        <ele>161.173993</ele>
        <time>2022-05-27T12:24:14.860Z</time>
      </trkpt>
      <trkpt lat="42.22409" lon="18.91081">
        <ele>160.844028</ele>
        <time>2022-05-27T12:24:16.859Z</time>
      </trkpt>
      <trkpt lat="42.22424" lon="18.91077">
        <ele>160.50495</ele>
        <time>2022-05-27T12:24:18.873Z</time>
      </trkpt>
      <trkpt lat="42.22439" lon="18.91075">
        <ele>160.187256</ele>
        <time>2022-05-27T12:24:20.872Z</time>
      </trkpt>
      <trkpt lat="42.22454" lon="18.91074">
        <ele>159.86818</ele>
        <time>2022-05-27T12:24:22.873Z</time>
      </trkpt>
      <trkpt lat="42.22469" lon="18.91075">
        <ele>159.545055</ele>
        <time>2022-05-27T12:24:24.875Z</time>
      </trkpt>
      <trkpt lat="42.22486" lon="18.91077">
        <ele>158.426119</ele>
        <time>2022-05-27T12:24:26.872Z</time>
      </trkpt>
      <trkpt lat="42.22502" lon="18.91081">
        <ele>157.22454</ele>
        <time>2022-05-27T12:24:28.861Z</time>
      </trkpt>
      <trkpt lat="42.22517" lon="18.91085">
        <ele>156.163591</ele>
        <time>2022-05-27T12:24:30.875Z</time>
      </trkpt>
      <trkpt lat="42.22532" lon="18.91091">
        <ele>155.02219</ele>
        <time>2022-05-27T12:24:32.860Z</time>
      </trkpt>
      <trkpt lat="42.22545" lon="18.91098">
        <ele>153.985526</ele>
        <time>2022-05-27T12:24:34.874Z</time>
      </trkpt>
      <trkpt lat="42.22558" lon="18.91105">
        <ele>153.005547</ele>
        <time>2022-05-27T12:24:36.899Z</time>
      </trkpt>
      <trkpt lat="42.22571" lon="18.91113">
        <ele>151.946506</ele>
        <time>2022-05-27T12:24:38.867Z</time>
      </trkpt>
      <trkpt lat="42.22583" lon="18.91122">
        <ele>150.93945</ele>
        <time>2022-05-27T12:24:40.869Z</time>
      </trkpt>
      <trkpt lat="42.22594" lon="18.9113">
        <ele>150.042186</ele>
        <time>2022-05-27T12:24:42.867Z</time>
      </trkpt>
      <trkpt lat="42.22607" lon="18.91138">
        <ele>149.021332</ele>
        <time>2022-05-27T12:24:44.874Z</time>
      </trkpt>
      <trkpt lat="42.2262" lon="18.91147">
        <ele>147.972277</ele>
        <time>2022-05-27T12:24:46.864Z</time>
      </trkpt>
      <trkpt lat="42.22633" lon="18.91156">
        <ele>146.883657</ele>
        <time>2022-05-27T12:24:48.873Z</time>
      </trkpt>
      <trkpt lat="42.22647" lon="18.91166">
        <ele>146.102144</ele>
        <time>2022-05-27T12:24:50.878Z</time>
      </trkpt>
      <trkpt lat="42.22662" lon="18.91176">
        <ele>145.533055</ele>
        <time>2022-05-27T12:24:52.860Z</time>
      </trkpt>
      <trkpt lat="42.22679" lon="18.91182">
        <ele>144.934109</ele>
        <time>2022-05-27T12:24:54.861Z</time>
      </trkpt>
      <trkpt lat="42.22689" lon="18.91184">
        <ele>144.579148</ele>
        <time>2022-05-27T12:24:55.865Z</time>
      </trkpt>
      <trkpt lat="42.227" lon="18.91185">
        <ele>144.213692</ele>
        <time>2022-05-27T12:24:56.875Z</time>
      </trkpt>
      <trkpt lat="42.2271" lon="18.91185">
        <ele>143.855907</ele>
        <time>2022-05-27T12:24:57.868Z</time>
      </trkpt>
      <trkpt lat="42.2272" lon="18.91184">
        <ele>143.508087</ele>
        <time>2022-05-27T12:24:58.861Z</time>
      </trkpt>
      <trkpt lat="42.2273" lon="18.91183">
        <ele>143.166506</ele>
        <time>2022-05-27T12:24:59.878Z</time>
      </trkpt>
      <trkpt lat="42.2274" lon="18.91182">
        <ele>142.82201</ele>
        <time>2022-05-27T12:25:00.877Z</time>
      </trkpt>
      <trkpt lat="42.22749" lon="18.91182">
        <ele>142.488302</ele>
        <time>2022-05-27T12:25:01.858Z</time>
      </trkpt>
      <trkpt lat="42.22759" lon="18.91181">
        <ele>142.146924</ele>
        <time>2022-05-27T12:25:02.873Z</time>
      </trkpt>
      <trkpt lat="42.22769" lon="18.9118">
        <ele>141.805546</ele>
        <time>2022-05-27T12:25:03.870Z</time>
      </trkpt>
      <trkpt lat="42.22778" lon="18.91178">
        <ele>141.483003</ele>
        <time>2022-05-27T12:25:04.868Z</time>
      </trkpt>
      <trkpt lat="42.22787" lon="18.91176">
        <ele>141.16618</ele>
        <time>2022-05-27T12:25:05.864Z</time>
      </trkpt>
      <trkpt lat="42.22796" lon="18.91174">
        <ele>140.854337</ele>
        <time>2022-05-27T12:25:06.863Z</time>
      </trkpt>
      <trkpt lat="42.22812" lon="18.91168">
        <ele>140.263465</ele>
        <time>2022-05-27T12:25:08.889Z</time>
      </trkpt>
      <trkpt lat="42.22828" lon="18.9116">
        <ele>139.887809</ele>
        <time>2022-05-27T12:25:10.893Z</time>
      </trkpt>
      <trkpt lat="42.22844" lon="18.91151">
        <ele>139.540051</ele>
        <time>2022-05-27T12:25:12.857Z</time>
      </trkpt>
      <trkpt lat="42.22858" lon="18.91141">
        <ele>139.202854</ele>
        <time>2022-05-27T12:25:14.859Z</time>
      </trkpt>
      <trkpt lat="42.22872" lon="18.9113">
        <ele>138.865272</ele>
        <time>2022-05-27T12:25:16.867Z</time>
      </trkpt>
      <trkpt lat="42.22884" lon="18.91118">
        <ele>138.546179</ele>
        <time>2022-05-27T12:25:18.886Z</time>
      </trkpt>
      <trkpt lat="42.22895" lon="18.91107">
        <ele>138.256831</ele>
        <time>2022-05-27T12:25:20.857Z</time>
      </trkpt>
      <trkpt lat="42.22903" lon="18.91098">
        <ele>138.036556</ele>
        <time>2022-05-27T12:25:22.855Z</time>
      </trkpt>
      <trkpt lat="42.22913" lon="18.91086">
        <ele>137.775497</ele>
        <time>2022-05-27T12:25:25.868Z</time>
      </trkpt>
      <trkpt lat="42.2292" lon="18.91076">
        <ele>137.548244</ele>
        <time>2022-05-27T12:25:28.861Z</time>
      </trkpt>
      <trkpt lat="42.22928" lon="18.91065">
        <ele>137.313218</ele>
        <time>2022-05-27T12:25:31.862Z</time>
      </trkpt>
      <trkpt lat="42.22935" lon="18.91054">
        <ele>137.092115</ele>
        <time>2022-05-27T12:25:34.879Z</time>
      </trkpt>
      <trkpt lat="42.2294" lon="18.91043">
        <ele>136.892165</ele>
        <time>2022-05-27T12:25:37.862Z</time>
      </trkpt>
      <trkpt lat="42.22946" lon="18.91031">
        <ele>136.664796</ele>
        <time>2022-05-27T12:25:41.876Z</time>
      </trkpt>
      <trkpt lat="42.22952" lon="18.91018">
        <ele>136.551627</ele>
        <time>2022-05-27T12:25:45.869Z</time>
      </trkpt>
      <trkpt lat="42.22958" lon="18.91005">
        <ele>137.382034</ele>
        <time>2022-05-27T12:25:49.879Z</time>
      </trkpt>
      <trkpt lat="42.22963" lon="18.90991">
        <ele>138.227759</ele>
        <time>2022-05-27T12:25:54.871Z</time>
      </trkpt>
      <trkpt lat="42.22968" lon="18.90981">
        <ele>138.893397</ele>
        <time>2022-05-27T12:25:58.906Z</time>
      </trkpt>
      <trkpt lat="42.22972" lon="18.90969">
        <ele>139.59735</ele>
        <time>2022-05-27T12:26:02.861Z</time>
      </trkpt>
      <trkpt lat="42.22977" lon="18.90957">
        <ele>140.333353</ele>
        <time>2022-05-27T12:26:06.864Z</time>
      </trkpt>
      <trkpt lat="42.22983" lon="18.90946">
        <ele>141.119682</ele>
        <time>2022-05-27T12:26:10.879Z</time>
      </trkpt>
      <trkpt lat="42.22988" lon="18.90933">
        <ele>141.933094</ele>
        <time>2022-05-27T12:26:15.893Z</time>
      </trkpt>
      <trkpt lat="42.22993" lon="18.90923">
        <ele>142.605023</ele>
        <time>2022-05-27T12:26:20.866Z</time>
      </trkpt>
      <trkpt lat="42.22999" lon="18.90913">
        <ele>143.303516</ele>
        <time>2022-05-27T12:26:25.867Z</time>
      </trkpt>
      <trkpt lat="42.23007" lon="18.90902">
        <ele>144.099171</ele>
        <time>2022-05-27T12:26:31.856Z</time>
      </trkpt>
      <trkpt lat="42.23015" lon="18.90894">
        <ele>144.841363</ele>
        <time>2022-05-27T12:26:36.866Z</time>
      </trkpt>
      <trkpt lat="42.23023" lon="18.90887">
        <ele>145.564838</ele>
        <time>2022-05-27T12:26:41.872Z</time>
      </trkpt>
      <trkpt lat="42.23031" lon="18.90882">
        <ele>146.264273</ele>
        <time>2022-05-27T12:26:47.865Z</time>
      </trkpt>
      <trkpt lat="42.23041" lon="18.90877">
        <ele>147.052769</ele>
        <time>2022-05-27T12:26:53.874Z</time>
      </trkpt>
      <trkpt lat="42.23052" lon="18.90874">
        <ele>147.86999</ele>
        <time>2022-05-27T12:26:59.876Z</time>
      </trkpt>
      <trkpt lat="42.23063" lon="18.90872">
        <ele>148.664466</ele>
        <time>2022-05-27T12:27:04.867Z</time>
      </trkpt>
      <trkpt lat="42.23072" lon="18.90871">
        <ele>149.391999</ele>
        <time>2022-05-27T12:27:09.853Z</time>
      </trkpt>
      <trkpt lat="42.23083" lon="18.90871">
        <ele>149.798938</ele>
        <time>2022-05-27T12:27:13.857Z</time>
      </trkpt>
      <trkpt lat="42.23092" lon="18.90871">
        <ele>149.783519</ele>
        <time>2022-05-27T12:27:17.877Z</time>
      </trkpt>
      <trkpt lat="42.23102" lon="18.90871">
        <ele>149.765895</ele>
        <time>2022-05-27T12:27:22.852Z</time>
      </trkpt>
      <trkpt lat="42.23112" lon="18.90871">
        <ele>149.748782</ele>
        <time>2022-05-27T12:27:27.871Z</time>
      </trkpt>
      <trkpt lat="42.23122" lon="18.90871">
        <ele>149.731838</ele>
        <time>2022-05-27T12:27:31.855Z</time>
      </trkpt>
      <trkpt lat="42.23133" lon="18.90872">
        <ele>149.713687</ele>
        <time>2022-05-27T12:27:35.859Z</time>
      </trkpt>
      <trkpt lat="42.23142" lon="18.90873">
        <ele>149.698252</ele>
        <time>2022-05-27T12:27:38.871Z</time>
      </trkpt>
      <trkpt lat="42.23152" lon="18.90875">
        <ele>149.681477</ele>
        <time>2022-05-27T12:27:41.909Z</time>
      </trkpt>
      <trkpt lat="42.23163" lon="18.90878">
        <ele>149.6622</ele>
        <time>2022-05-27T12:27:44.866Z</time>
      </trkpt>
      <trkpt lat="42.23176" lon="18.90881">
        <ele>149.640564</ele>
        <time>2022-05-27T12:27:47.877Z</time>
      </trkpt>
      <trkpt lat="42.23185" lon="18.90883">
        <ele>149.623751</ele>
        <time>2022-05-27T12:27:49.874Z</time>
      </trkpt>
      <trkpt lat="42.23196" lon="18.90885">
        <ele>149.605342</ele>
        <time>2022-05-27T12:27:51.866Z</time>
      </trkpt>
      <trkpt lat="42.23208" lon="18.90886">
        <ele>149.585778</ele>
        <time>2022-05-27T12:27:53.869Z</time>
      </trkpt>
      <trkpt lat="42.2322" lon="18.90886">
        <ele>149.565442</ele>
        <time>2022-05-27T12:27:55.866Z</time>
      </trkpt>
      <trkpt lat="42.2323" lon="18.90884">
        <ele>149.547187</ele>
        <time>2022-05-27T12:27:58.870Z</time>
      </trkpt>
      <trkpt lat="42.2324" lon="18.90884">
        <ele>149.53057</ele>
        <time>2022-05-27T12:28:00.865Z</time>
      </trkpt>
      <trkpt lat="42.23249" lon="18.90884">
        <ele>149.515139</ele>
        <time>2022-05-27T12:28:02.869Z</time>
      </trkpt>
      <trkpt lat="42.2326" lon="18.90884">
        <ele>149.433648</ele>
        <time>2022-05-27T12:28:04.870Z</time>
      </trkpt>
      <trkpt lat="42.2327" lon="18.90881">
        <ele>149.155623</ele>
        <time>2022-05-27T12:28:06.876Z</time>
      </trkpt>
      <trkpt lat="42.23281" lon="18.90876">
        <ele>148.859646</ele>
        <time>2022-05-27T12:28:08.871Z</time>
      </trkpt>
      <trkpt lat="42.23292" lon="18.9087">
        <ele>148.547603</ele>
        <time>2022-05-27T12:28:10.870Z</time>
      </trkpt>
      <trkpt lat="42.23303" lon="18.90862">
        <ele>148.226909</ele>
        <time>2022-05-27T12:28:12.850Z</time>
      </trkpt>
      <trkpt lat="42.23312" lon="18.90853">
        <ele>147.933625</ele>
        <time>2022-05-27T12:28:14.874Z</time>
      </trkpt>
      <trkpt lat="42.23323" lon="18.90842">
        <ele>147.572346</ele>
        <time>2022-05-27T12:28:16.871Z</time>
      </trkpt>
      <trkpt lat="42.23336" lon="18.9083">
        <ele>147.176723</ele>
        <time>2022-05-27T12:28:18.868Z</time>
      </trkpt>
      <trkpt lat="42.23347" lon="18.90817">
        <ele>146.795234</ele>
        <time>2022-05-27T12:28:20.881Z</time>
      </trkpt>
      <trkpt lat="42.23359" lon="18.90805">
        <ele>146.411375</ele>
        <time>2022-05-27T12:28:22.870Z</time>
      </trkpt>
      <trkpt lat="42.23373" lon="18.90793">
        <ele>145.985959</ele>
        <time>2022-05-27T12:28:24.857Z</time>
      </trkpt>
      <trkpt lat="42.23386" lon="18.90783">
        <ele>145.582652</ele>
        <time>2022-05-27T12:28:26.860Z</time>
      </trkpt>
      <trkpt lat="42.23401" lon="18.90776">
        <ele>145.185896</ele>
        <time>2022-05-27T12:28:28.865Z</time>
      </trkpt>
      <trkpt lat="42.23414" lon="18.90772">
        <ele>144.833548</ele>
        <time>2022-05-27T12:28:30.892Z</time>
      </trkpt>
      <trkpt lat="42.23427" lon="18.90771">
        <ele>144.729306</ele>
        <time>2022-05-27T12:28:32.861Z</time>
      </trkpt>
      <trkpt lat="42.23439" lon="18.9077">
        <ele>144.631949</ele>
        <time>2022-05-27T12:28:34.864Z</time>
      </trkpt>
      <trkpt lat="42.2345" lon="18.9077">
        <ele>144.541206</ele>
        <time>2022-05-27T12:28:36.862Z</time>
      </trkpt>
      <trkpt lat="42.23461" lon="18.9077">
        <ele>144.448808</ele>
        <time>2022-05-27T12:28:38.861Z</time>
      </trkpt>
      <trkpt lat="42.23471" lon="18.9077">
        <ele>144.367957</ele>
        <time>2022-05-27T12:28:40.871Z</time>
      </trkpt>
      <trkpt lat="42.23484" lon="18.9077">
        <ele>144.261542</ele>
        <time>2022-05-27T12:28:43.877Z</time>
      </trkpt>
      <trkpt lat="42.23494" lon="18.90768">
        <ele>144.177149</ele>
        <time>2022-05-27T12:28:46.865Z</time>
      </trkpt>
      <trkpt lat="42.23503" lon="18.90765">
        <ele>144.099854</ele>
        <time>2022-05-27T12:28:49.866Z</time>
      </trkpt>
      <trkpt lat="42.23513" lon="18.90762">
        <ele>144.013473</ele>
        <time>2022-05-27T12:28:53.865Z</time>
      </trkpt>
      <trkpt lat="42.23523" lon="18.90758">
        <ele>143.927686</ele>
        <time>2022-05-27T12:28:57.857Z</time>
      </trkpt>
      <trkpt lat="42.23532" lon="18.90751">
        <ele>143.842872</ele>
        <time>2022-05-27T12:29:01.870Z</time>
      </trkpt>
      <trkpt lat="42.23541" lon="18.90743">
        <ele>143.755019</ele>
        <time>2022-05-27T12:29:05.859Z</time>
      </trkpt>
      <trkpt lat="42.23551" lon="18.90734">
        <ele>143.65862</ele>
        <time>2022-05-27T12:29:09.857Z</time>
      </trkpt>
      <trkpt lat="42.2356" lon="18.90725">
        <ele>143.561833</ele>
        <time>2022-05-27T12:29:13.854Z</time>
      </trkpt>
      <trkpt lat="42.23568" lon="18.90716">
        <ele>143.474286</ele>
        <time>2022-05-27T12:29:17.872Z</time>
      </trkpt>
      <trkpt lat="42.23576" lon="18.90708">
        <ele>143.393603</ele>
        <time>2022-05-27T12:29:21.855Z</time>
      </trkpt>
      <trkpt lat="42.23584" lon="18.90701">
        <ele>143.515848</ele>
        <time>2022-05-27T12:29:25.868Z</time>
      </trkpt>
      <trkpt lat="42.23593" lon="18.90694">
        <ele>143.813084</ele>
        <time>2022-05-27T12:29:29.868Z</time>
      </trkpt>
      <trkpt lat="42.23601" lon="18.90688">
        <ele>144.10146</ele>
        <time>2022-05-27T12:29:33.864Z</time>
      </trkpt>
      <trkpt lat="42.2361" lon="18.90681">
        <ele>144.432793</ele>
        <time>2022-05-27T12:29:38.867Z</time>
      </trkpt>
      <trkpt lat="42.23621" lon="18.90676">
        <ele>144.783206</ele>
        <time>2022-05-27T12:29:43.864Z</time>
      </trkpt>
      <trkpt lat="42.2363" lon="18.9067">
        <ele>145.089981</ele>
        <time>2022-05-27T12:29:47.860Z</time>
      </trkpt>
      <trkpt lat="42.23639" lon="18.90667">
        <ele>145.385208</ele>
        <time>2022-05-27T12:29:52.864Z</time>
      </trkpt>
      <trkpt lat="42.23648" lon="18.90662">
        <ele>145.674145</ele>
        <time>2022-05-27T12:29:56.875Z</time>
      </trkpt>
      <trkpt lat="42.23659" lon="18.90658">
        <ele>146.03105</ele>
        <time>2022-05-27T12:30:01.875Z</time>
      </trkpt>
      <trkpt lat="42.23667" lon="18.90654">
        <ele>146.319761</ele>
        <time>2022-05-27T12:30:05.855Z</time>
      </trkpt>
      <trkpt lat="42.23677" lon="18.90651">
        <ele>146.628159</ele>
        <time>2022-05-27T12:30:09.862Z</time>
      </trkpt>
      <trkpt lat="42.23687" lon="18.90647">
        <ele>146.961195</ele>
        <time>2022-05-27T12:30:14.887Z</time>
      </trkpt>
      <trkpt lat="42.23698" lon="18.90642">
        <ele>147.308093</ele>
        <time>2022-05-27T12:30:19.895Z</time>
      </trkpt>
      <trkpt lat="42.23708" lon="18.90637">
        <ele>147.636481</ele>
        <time>2022-05-27T12:30:24.870Z</time>
      </trkpt>
      <trkpt lat="42.23718" lon="18.90633">
        <ele>147.96271</ele>
        <time>2022-05-27T12:30:29.865Z</time>
      </trkpt>
      <trkpt lat="42.23727" lon="18.90629">
        <ele>148.248354</ele>
        <time>2022-05-27T12:30:34.865Z</time>
      </trkpt>
      <trkpt lat="42.23737" lon="18.90626">
        <ele>148.570106</ele>
        <time>2022-05-27T12:30:39.868Z</time>
      </trkpt>
      <trkpt lat="42.23746" lon="18.90624">
        <ele>148.868164</ele>
        <time>2022-05-27T12:30:44.863Z</time>
      </trkpt>
      <trkpt lat="42.23756" lon="18.90619">
        <ele>149.268493</ele>
        <time>2022-05-27T12:30:50.860Z</time>
      </trkpt>
      <trkpt lat="42.23766" lon="18.90617">
        <ele>149.68684</ele>
        <time>2022-05-27T12:30:56.855Z</time>
      </trkpt>
      <trkpt lat="42.23776" lon="18.90615">
        <ele>150.063372</ele>
        <time>2022-05-27T12:31:01.870Z</time>
      </trkpt>
      <trkpt lat="42.23786" lon="18.90613">
        <ele>150.508102</ele>
        <time>2022-05-27T12:31:06.852Z</time>
      </trkpt>
      <trkpt lat="42.23796" lon="18.90611">
        <ele>150.923791</ele>
        <time>2022-05-27T12:31:11.882Z</time>
      </trkpt>
      <trkpt lat="42.23806" lon="18.90608">
        <ele>151.315951</ele>
        <time>2022-05-27T12:31:16.863Z</time>
      </trkpt>
      <trkpt lat="42.23816" lon="18.90606">
        <ele>151.742857</ele>
        <time>2022-05-27T12:31:22.859Z</time>
      </trkpt>
      <trkpt lat="42.23826" lon="18.90603">
        <ele>152.141295</ele>
        <time>2022-05-27T12:31:27.857Z</time>
      </trkpt>
      <trkpt lat="42.23836" lon="18.906">
        <ele>152.553983</ele>
        <time>2022-05-27T12:31:32.858Z</time>
      </trkpt>
      <trkpt lat="42.23846" lon="18.90598">
        <ele>152.967767</ele>
        <time>2022-05-27T12:31:37.855Z</time>
      </trkpt>
      <trkpt lat="42.23856" lon="18.90595">
        <ele>153.380026</ele>
        <time>2022-05-27T12:31:43.856Z</time>
      </trkpt>
      <trkpt lat="42.23866" lon="18.90592">
        <ele>153.798374</ele>
        <time>2022-05-27T12:31:48.877Z</time>
      </trkpt>
      <trkpt lat="42.23876" lon="18.90589">
        <ele>154.22528</ele>
        <time>2022-05-27T12:31:53.871Z</time>
      </trkpt>
      <trkpt lat="42.23886" lon="18.90586">
        <ele>154.625655</ele>
        <time>2022-05-27T12:31:58.859Z</time>
      </trkpt>
      <trkpt lat="42.23895" lon="18.90585">
        <ele>154.998153</ele>
        <time>2022-05-27T12:32:03.856Z</time>
      </trkpt>
      <trkpt lat="42.23904" lon="18.90582">
        <ele>155.385308</ele>
        <time>2022-05-27T12:32:09.867Z</time>
      </trkpt>
      <trkpt lat="42.23913" lon="18.90579">
        <ele>155.76722</ele>
        <time>2022-05-27T12:32:14.866Z</time>
      </trkpt>
      <trkpt lat="42.23924" lon="18.90576">
        <ele>156.211255</ele>
        <time>2022-05-27T12:32:20.866Z</time>
      </trkpt>
      <trkpt lat="42.23934" lon="18.90573">
        <ele>156.579265</ele>
        <time>2022-05-27T12:32:25.869Z</time>
      </trkpt>
      <trkpt lat="42.23943" lon="18.9057">
        <ele>156.924407</ele>
        <time>2022-05-27T12:32:29.872Z</time>
      </trkpt>
      <trkpt lat="42.23951" lon="18.90566">
        <ele>157.263816</ele>
        <time>2022-05-27T12:32:33.862Z</time>
      </trkpt>
      <trkpt lat="42.23961" lon="18.9056">
        <ele>157.652338</ele>
        <time>2022-05-27T12:32:38.880Z</time>
      </trkpt>
      <trkpt lat="42.2397" lon="18.90554">
        <ele>158.00654</ele>
        <time>2022-05-27T12:32:43.858Z</time>
      </trkpt>
      <trkpt lat="42.23977" lon="18.90547">
        <ele>158.350857</ele>
        <time>2022-05-27T12:32:48.852Z</time>
      </trkpt>
      <trkpt lat="42.23985" lon="18.9054">
        <ele>158.681488</ele>
        <time>2022-05-27T12:32:53.872Z</time>
      </trkpt>
      <trkpt lat="42.23992" lon="18.90533">
        <ele>159.013708</ele>
        <time>2022-05-27T12:32:58.858Z</time>
      </trkpt>
      <trkpt lat="42.23999" lon="18.90525">
        <ele>159.366866</ele>
        <time>2022-05-27T12:33:03.888Z</time>
      </trkpt>
      <trkpt lat="42.24006" lon="18.90516">
        <ele>159.720023</ele>
        <time>2022-05-27T12:33:08.854Z</time>
      </trkpt>
      <trkpt lat="42.24014" lon="18.90507">
        <ele>160.102459</ele>
        <time>2022-05-27T12:33:13.872Z</time>
      </trkpt>
      <trkpt lat="42.24022" lon="18.90498">
        <ele>160.487685</ele>
        <time>2022-05-27T12:33:18.865Z</time>
      </trkpt>
      <trkpt lat="42.2403" lon="18.90488">
        <ele>160.888806</ele>
        <time>2022-05-27T12:33:23.872Z</time>
      </trkpt>
      <trkpt lat="42.24038" lon="18.9048">
        <ele>161.257503</ele>
        <time>2022-05-27T12:33:28.864Z</time>
      </trkpt>
      <trkpt lat="42.24046" lon="18.90471">
        <ele>161.642595</ele>
        <time>2022-05-27T12:33:33.872Z</time>
      </trkpt>
      <trkpt lat="42.24053" lon="18.90463">
        <ele>161.980212</ele>
        <time>2022-05-27T12:33:38.902Z</time>
      </trkpt>
      <trkpt lat="42.24062" lon="18.90454">
        <ele>162.378368</ele>
        <time>2022-05-27T12:33:43.866Z</time>
      </trkpt>
      <trkpt lat="42.2407" lon="18.90446">
        <ele>162.770319</ele>
        <time>2022-05-27T12:33:48.861Z</time>
      </trkpt>
      <trkpt lat="42.24079" lon="18.90437">
        <ele>163.045191</ele>
        <time>2022-05-27T12:33:53.910Z</time>
      </trkpt>
      <trkpt lat="42.24088" lon="18.90429">
        <ele>163.267058</ele>
        <time>2022-05-27T12:33:58.871Z</time>
      </trkpt>
      <trkpt lat="42.24096" lon="18.90422">
        <ele>163.468656</ele>
        <time>2022-05-27T12:34:02.850Z</time>
      </trkpt>
      <trkpt lat="42.24105" lon="18.90414">
        <ele>163.679522</ele>
        <time>2022-05-27T12:34:06.864Z</time>
      </trkpt>
      <trkpt lat="42.24113" lon="18.90408">
        <ele>163.866828</ele>
        <time>2022-05-27T12:34:10.865Z</time>
      </trkpt>
      <trkpt lat="42.24121" lon="18.90401">
        <ele>164.057851</ele>
        <time>2022-05-27T12:34:14.844Z</time>
      </trkpt>
      <trkpt lat="42.2413" lon="18.90394">
        <ele>164.26987</ele>
        <time>2022-05-27T12:34:18.874Z</time>
      </trkpt>
      <trkpt lat="42.24139" lon="18.90388">
        <ele>164.473837</ele>
        <time>2022-05-27T12:34:22.876Z</time>
      </trkpt>
      <trkpt lat="42.24148" lon="18.90383">
        <ele>164.675102</ele>
        <time>2022-05-27T12:34:26.895Z</time>
      </trkpt>
      <trkpt lat="42.24157" lon="18.90377">
        <ele>164.885928</ele>
        <time>2022-05-27T12:34:30.910Z</time>
      </trkpt>
      <trkpt lat="42.24166" lon="18.90373">
        <ele>165.082958</ele>
        <time>2022-05-27T12:34:34.861Z</time>
      </trkpt>
      <trkpt lat="42.24176" lon="18.90369">
        <ele>165.286777</ele>
        <time>2022-05-27T12:34:38.886Z</time>
      </trkpt>
      <trkpt lat="42.24186" lon="18.90365">
        <ele>165.499497</ele>
        <time>2022-05-27T12:34:42.872Z</time>
      </trkpt>
      <trkpt lat="42.24195" lon="18.90361">
        <ele>165.686979</ele>
        <time>2022-05-27T12:34:46.875Z</time>
      </trkpt>
      <trkpt lat="42.24204" lon="18.90359">
        <ele>165.883075</ele>
        <time>2022-05-27T12:34:50.847Z</time>
      </trkpt>
      <trkpt lat="42.24213" lon="18.90356">
        <ele>166.072566</ele>
        <time>2022-05-27T12:34:54.858Z</time>
      </trkpt>
      <trkpt lat="42.24223" lon="18.90354">
        <ele>166.286441</ele>
        <time>2022-05-27T12:34:59.859Z</time>
      </trkpt>
      <trkpt lat="42.24232" lon="18.90352">
        <ele>166.472166</ele>
        <time>2022-05-27T12:35:03.868Z</time>
      </trkpt>
      <trkpt lat="42.24244" lon="18.9035">
        <ele>166.614459</ele>
        <time>2022-05-27T12:35:08.841Z</time>
      </trkpt>
      <trkpt lat="42.24253" lon="18.90349">
        <ele>166.686787</ele>
        <time>2022-05-27T12:35:12.860Z</time>
      </trkpt>
      <trkpt lat="42.24262" lon="18.90348">
        <ele>166.75749</ele>
        <time>2022-05-27T12:35:16.865Z</time>
      </trkpt>
      <trkpt lat="42.24272" lon="18.90347">
        <ele>166.831207</ele>
        <time>2022-05-27T12:35:20.854Z</time>
      </trkpt>
      <trkpt lat="42.24281" lon="18.90345">
        <ele>166.90201</ele>
        <time>2022-05-27T12:35:24.867Z</time>
      </trkpt>
      <trkpt lat="42.24291" lon="18.90345">
        <ele>166.975727</ele>
        <time>2022-05-27T12:35:28.866Z</time>
      </trkpt>
      <trkpt lat="42.24301" lon="18.90343">
        <ele>167.057497</ele>
        <time>2022-05-27T12:35:32.833Z</time>
      </trkpt>
      <trkpt lat="42.2431" lon="18.90341">
        <ele>167.128419</ele>
        <time>2022-05-27T12:35:36.864Z</time>
      </trkpt>
      <trkpt lat="42.2432" lon="18.9034">
        <ele>167.199476</ele>
        <time>2022-05-27T12:35:40.859Z</time>
      </trkpt>
      <trkpt lat="42.24329" lon="18.90337">
        <ele>167.272344</ele>
        <time>2022-05-27T12:35:44.855Z</time>
      </trkpt>
      <trkpt lat="42.24339" lon="18.90333">
        <ele>167.350203</ele>
        <time>2022-05-27T12:35:48.863Z</time>
      </trkpt>
      <trkpt lat="42.24347" lon="18.90328">
        <ele>167.422692</ele>
        <time>2022-05-27T12:35:52.859Z</time>
      </trkpt>
      <trkpt lat="42.24357" lon="18.90323">
        <ele>167.500227</ele>
        <time>2022-05-27T12:35:57.878Z</time>
      </trkpt>
      <trkpt lat="42.24366" lon="18.90315">
        <ele>167.583673</ele>
        <time>2022-05-27T12:36:02.853Z</time>
      </trkpt>
      <trkpt lat="42.24374" lon="18.90308">
        <ele>167.654137</ele>
        <time>2022-05-27T12:36:06.870Z</time>
      </trkpt>
      <trkpt lat="42.2438" lon="18.903">
        <ele>167.724634</ele>
        <time>2022-05-27T12:36:10.863Z</time>
      </trkpt>
      <trkpt lat="42.24372" lon="18.90292">
        <ele>167.79986</ele>
        <time>2022-05-27T12:36:15.878Z</time>
      </trkpt>
      <trkpt lat="42.24369" lon="18.90277">
        <ele>167.888057</ele>
        <time>2022-05-27T12:36:19.856Z</time>
      </trkpt>
      <trkpt lat="42.24368" lon="18.90263">
        <ele>167.896793</ele>
        <time>2022-05-27T12:36:22.864Z</time>
      </trkpt>
      <trkpt lat="42.2437" lon="18.90251">
        <ele>167.78694</ele>
        <time>2022-05-27T12:36:25.862Z</time>
      </trkpt>
      <trkpt lat="42.24382" lon="18.90261">
        <ele>167.616856</ele>
        <time>2022-05-27T12:38:28.859Z</time>
      </trkpt>
      <trkpt lat="42.2439" lon="18.9027">
        <ele>167.502279</ele>
        <time>2022-05-27T12:38:33.876Z</time>
      </trkpt>
      <trkpt lat="42.244" lon="18.90274">
        <ele>167.377459</ele>
        <time>2022-05-27T12:38:39.866Z</time>
      </trkpt>
      <trkpt lat="42.24408" lon="18.90266">
        <ele>167.261605</ele>
        <time>2022-05-27T12:38:42.859Z</time>
      </trkpt>
      <trkpt lat="42.24415" lon="18.90257">
        <ele>167.148793</ele>
        <time>2022-05-27T12:38:45.868Z</time>
      </trkpt>
      <trkpt lat="42.24424" lon="18.90249">
        <ele>167.024762</ele>
        <time>2022-05-27T12:38:48.877Z</time>
      </trkpt>
      <trkpt lat="42.24435" lon="18.90243">
        <ele>166.890572</ele>
        <time>2022-05-27T12:38:51.872Z</time>
      </trkpt>
      <trkpt lat="42.24446" lon="18.90238">
        <ele>166.748774</ele>
        <time>2022-05-27T12:38:54.865Z</time>
      </trkpt>
      <trkpt lat="42.2446" lon="18.90237">
        <ele>166.59469</ele>
        <time>2022-05-27T12:38:57.866Z</time>
      </trkpt>
      <trkpt lat="42.24469" lon="18.90237">
        <ele>166.48054</ele>
        <time>2022-05-27T12:38:59.890Z</time>
      </trkpt>
      <trkpt lat="42.2448" lon="18.90238">
        <ele>166.353019</ele>
        <time>2022-05-27T12:39:01.867Z</time>
      </trkpt>
      <trkpt lat="42.24491" lon="18.9024">
        <ele>166.2317</ele>
        <time>2022-05-27T12:39:03.859Z</time>
      </trkpt>
      <trkpt lat="42.24501" lon="18.90244">
        <ele>166.110477</ele>
        <time>2022-05-27T12:39:05.857Z</time>
      </trkpt>
      <trkpt lat="42.24509" lon="18.90249">
        <ele>166.005547</ele>
        <time>2022-05-27T12:39:07.865Z</time>
      </trkpt>
      <trkpt lat="42.24518" lon="18.90254">
        <ele>165.892209</ele>
        <time>2022-05-27T12:39:09.872Z</time>
      </trkpt>
      <trkpt lat="42.24527" lon="18.90259">
        <ele>165.578508</ele>
        <time>2022-05-27T12:39:11.867Z</time>
      </trkpt>
      <trkpt lat="42.24537" lon="18.90264">
        <ele>165.052421</ele>
        <time>2022-05-27T12:39:13.865Z</time>
      </trkpt>
      <trkpt lat="42.24547" lon="18.9027">
        <ele>164.464311</ele>
        <time>2022-05-27T12:39:15.856Z</time>
      </trkpt>
      <trkpt lat="42.2456" lon="18.90275">
        <ele>163.815763</ele>
        <time>2022-05-27T12:39:17.858Z</time>
      </trkpt>
      <trkpt lat="42.24574" lon="18.9028">
        <ele>163.074672</ele>
        <time>2022-05-27T12:39:19.895Z</time>
      </trkpt>
      <trkpt lat="42.24588" lon="18.90282">
        <ele>162.39028</ele>
        <time>2022-05-27T12:39:21.898Z</time>
      </trkpt>
      <trkpt lat="42.24602" lon="18.90284">
        <ele>161.659429</ele>
        <time>2022-05-27T12:39:23.864Z</time>
      </trkpt>
      <trkpt lat="42.24618" lon="18.90284">
        <ele>160.87982</ele>
        <time>2022-05-27T12:39:25.899Z</time>
      </trkpt>
      <trkpt lat="42.24634" lon="18.90284">
        <ele>160.070371</ele>
        <time>2022-05-27T12:39:27.865Z</time>
      </trkpt>
      <trkpt lat="42.24651" lon="18.90285">
        <ele>159.215754</ele>
        <time>2022-05-27T12:39:29.901Z</time>
      </trkpt>
      <trkpt lat="42.24668" lon="18.90285">
        <ele>158.386187</ele>
        <time>2022-05-27T12:39:31.867Z</time>
      </trkpt>
      <trkpt lat="42.24684" lon="18.90287">
        <ele>157.56839</ele>
        <time>2022-05-27T12:39:33.870Z</time>
      </trkpt>
      <trkpt lat="42.24701" lon="18.90291">
        <ele>156.740261</ele>
        <time>2022-05-27T12:39:35.872Z</time>
      </trkpt>
      <trkpt lat="42.2471" lon="18.90293">
        <ele>156.346949</ele>
        <time>2022-05-27T12:39:36.845Z</time>
      </trkpt>
      <trkpt lat="42.24719" lon="18.90295">
        <ele>155.955481</ele>
        <time>2022-05-27T12:39:37.861Z</time>
      </trkpt>
      <trkpt lat="42.24728" lon="18.90298">
        <ele>155.55432</ele>
        <time>2022-05-27T12:39:38.871Z</time>
      </trkpt>
      <trkpt lat="42.24737" lon="18.903">
        <ele>155.146356</ele>
        <time>2022-05-27T12:39:39.842Z</time>
      </trkpt>
      <trkpt lat="42.24746" lon="18.90302">
        <ele>154.753597</ele>
        <time>2022-05-27T12:39:40.853Z</time>
      </trkpt>
      <trkpt lat="42.24755" lon="18.90302">
        <ele>154.358815</ele>
        <time>2022-05-27T12:39:41.876Z</time>
      </trkpt>
      <trkpt lat="42.24772" lon="18.90302">
        <ele>153.61889</ele>
        <time>2022-05-27T12:39:43.891Z</time>
      </trkpt>
      <trkpt lat="42.24789" lon="18.90298">
        <ele>152.874824</ele>
        <time>2022-05-27T12:39:45.876Z</time>
      </trkpt>
      <trkpt lat="42.24806" lon="18.90289">
        <ele>152.111911</ele>
        <time>2022-05-27T12:39:47.875Z</time>
      </trkpt>
      <trkpt lat="42.2482" lon="18.90278">
        <ele>151.384862</ele>
        <time>2022-05-27T12:39:49.869Z</time>
      </trkpt>
      <trkpt lat="42.24834" lon="18.90264">
        <ele>150.658141</ele>
        <time>2022-05-27T12:39:51.862Z</time>
      </trkpt>
      <trkpt lat="42.24846" lon="18.90251">
        <ele>149.978363</ele>
        <time>2022-05-27T12:39:53.873Z</time>
      </trkpt>
      <trkpt lat="42.24858" lon="18.90236">
        <ele>149.281608</ele>
        <time>2022-05-27T12:39:55.890Z</time>
      </trkpt>
      <trkpt lat="42.2487" lon="18.90222">
        <ele>148.892415</ele>
        <time>2022-05-27T12:39:57.876Z</time>
      </trkpt>
      <trkpt lat="42.24883" lon="18.90207">
        <ele>148.636681</ele>
        <time>2022-05-27T12:39:59.870Z</time>
      </trkpt>
      <trkpt lat="42.24896" lon="18.90193">
        <ele>148.391154</ele>
        <time>2022-05-27T12:40:01.856Z</time>
      </trkpt>
      <trkpt lat="42.24907" lon="18.90181">
        <ele>148.162244</ele>
        <time>2022-05-27T12:40:03.866Z</time>
      </trkpt>
      <trkpt lat="42.24919" lon="18.90169">
        <ele>147.941252</ele>
        <time>2022-05-27T12:40:05.898Z</time>
      </trkpt>
      <trkpt lat="42.2493" lon="18.90159">
        <ele>147.73632</ele>
        <time>2022-05-27T12:40:07.867Z</time>
      </trkpt>
      <trkpt lat="42.24942" lon="18.90149">
        <ele>147.530978</ele>
        <time>2022-05-27T12:40:09.847Z</time>
      </trkpt>
      <trkpt lat="42.24954" lon="18.90141">
        <ele>147.317155</ele>
        <time>2022-05-27T12:40:11.863Z</time>
      </trkpt>
      <trkpt lat="42.24966" lon="18.90133">
        <ele>147.106894</ele>
        <time>2022-05-27T12:40:13.869Z</time>
      </trkpt>
      <trkpt lat="42.2498" lon="18.90124">
        <ele>146.879046</ele>
        <time>2022-05-27T12:40:15.872Z</time>
      </trkpt>
      <trkpt lat="42.24995" lon="18.90115">
        <ele>146.622464</ele>
        <time>2022-05-27T12:40:17.858Z</time>
      </trkpt>
      <trkpt lat="42.2501" lon="18.90106">
        <ele>146.376555</ele>
        <time>2022-05-27T12:40:19.855Z</time>
      </trkpt>
      <trkpt lat="42.25024" lon="18.90097">
        <ele>145.880633</ele>
        <time>2022-05-27T12:40:21.873Z</time>
      </trkpt>
      <trkpt lat="42.25038" lon="18.90088">
        <ele>145.305266</ele>
        <time>2022-05-27T12:40:23.878Z</time>
      </trkpt>
      <trkpt lat="42.25051" lon="18.9008">
        <ele>144.773836</ele>
        <time>2022-05-27T12:40:25.862Z</time>
      </trkpt>
      <trkpt lat="42.25065" lon="18.90072">
        <ele>144.204571</ele>
        <time>2022-05-27T12:40:27.891Z</time>
      </trkpt>
      <trkpt lat="42.25082" lon="18.90064">
        <ele>143.551435</ele>
        <time>2022-05-27T12:40:29.877Z</time>
      </trkpt>
      <trkpt lat="42.25098" lon="18.90057">
        <ele>142.927312</ele>
        <time>2022-05-27T12:40:31.869Z</time>
      </trkpt>
      <trkpt lat="42.25113" lon="18.90051">
        <ele>142.317125</ele>
        <time>2022-05-27T12:40:33.898Z</time>
      </trkpt>
      <trkpt lat="42.25129" lon="18.90045">
        <ele>141.715201</ele>
        <time>2022-05-27T12:40:35.860Z</time>
      </trkpt>
      <trkpt lat="42.25145" lon="18.90038">
        <ele>141.093567</ele>
        <time>2022-05-27T12:40:37.869Z</time>
      </trkpt>
      <trkpt lat="42.25161" lon="18.90031">
        <ele>140.463211</ele>
        <time>2022-05-27T12:40:39.891Z</time>
      </trkpt>
      <trkpt lat="42.25177" lon="18.90024">
        <ele>139.84948</ele>
        <time>2022-05-27T12:40:41.865Z</time>
      </trkpt>
      <trkpt lat="42.25192" lon="18.90019">
        <ele>138.731977</ele>
        <time>2022-05-27T12:40:43.855Z</time>
      </trkpt>
      <trkpt lat="42.25206" lon="18.90015">
        <ele>137.46725</ele>
        <time>2022-05-27T12:40:45.869Z</time>
      </trkpt>
      <trkpt lat="42.25221" lon="18.90012">
        <ele>136.224421</ele>
        <time>2022-05-27T12:40:47.871Z</time>
      </trkpt>
      <trkpt lat="42.25235" lon="18.90011">
        <ele>134.976494</ele>
        <time>2022-05-27T12:40:49.892Z</time>
      </trkpt>
      <trkpt lat="42.25249" lon="18.90012">
        <ele>133.761967</ele>
        <time>2022-05-27T12:40:51.866Z</time>
      </trkpt>
      <trkpt lat="42.25263" lon="18.90014">
        <ele>132.566345</ele>
        <time>2022-05-27T12:40:53.856Z</time>
      </trkpt>
      <trkpt lat="42.25275" lon="18.90019">
        <ele>131.460742</ele>
        <time>2022-05-27T12:40:55.871Z</time>
      </trkpt>
      <trkpt lat="42.25288" lon="18.90021">
        <ele>130.368178</ele>
        <time>2022-05-27T12:40:57.862Z</time>
      </trkpt>
      <trkpt lat="42.25299" lon="18.90024">
        <ele>129.381021</ele>
        <time>2022-05-27T12:40:59.857Z</time>
      </trkpt>
      <trkpt lat="42.2531" lon="18.90028">
        <ele>128.365627</ele>
        <time>2022-05-27T12:41:01.892Z</time>
      </trkpt>
      <trkpt lat="42.25323" lon="18.90032">
        <ele>127.248516</ele>
        <time>2022-05-27T12:41:03.855Z</time>
      </trkpt>
      <trkpt lat="42.25335" lon="18.90038">
        <ele>126.089069</ele>
        <time>2022-05-27T12:41:05.852Z</time>
      </trkpt>
      <trkpt lat="42.25347" lon="18.90043">
        <ele>124.997653</ele>
        <time>2022-05-27T12:41:07.880Z</time>
      </trkpt>
      <trkpt lat="42.25359" lon="18.90048">
        <ele>123.999591</ele>
        <time>2022-05-27T12:41:09.867Z</time>
      </trkpt>
      <trkpt lat="42.2537" lon="18.90053">
        <ele>123.451633</ele>
        <time>2022-05-27T12:41:11.861Z</time>
      </trkpt>
      <trkpt lat="42.25381" lon="18.90057">
        <ele>122.906232</ele>
        <time>2022-05-27T12:41:13.870Z</time>
      </trkpt>
      <trkpt lat="42.25392" lon="18.90059">
        <ele>122.371451</ele>
        <time>2022-05-27T12:41:15.856Z</time>
      </trkpt>
      <trkpt lat="42.25405" lon="18.9006">
        <ele>121.771645</ele>
        <time>2022-05-27T12:41:17.878Z</time>
      </trkpt>
      <trkpt lat="42.25417" lon="18.9006">
        <ele>121.178928</ele>
        <time>2022-05-27T12:41:19.851Z</time>
      </trkpt>
      <trkpt lat="42.25428" lon="18.90058">
        <ele>120.651632</ele>
        <time>2022-05-27T12:41:21.874Z</time>
      </trkpt>
      <trkpt lat="42.25438" lon="18.90054">
        <ele>120.141969</ele>
        <time>2022-05-27T12:41:23.892Z</time>
      </trkpt>
      <trkpt lat="42.25449" lon="18.90048">
        <ele>119.604202</ele>
        <time>2022-05-27T12:41:25.851Z</time>
      </trkpt>
      <trkpt lat="42.25459" lon="18.9004">
        <ele>119.029769</ele>
        <time>2022-05-27T12:41:27.870Z</time>
      </trkpt>
      <trkpt lat="42.25469" lon="18.90032">
        <ele>118.47474</ele>
        <time>2022-05-27T12:41:29.866Z</time>
      </trkpt>
      <trkpt lat="42.25478" lon="18.90023">
        <ele>117.953158</ele>
        <time>2022-05-27T12:41:31.865Z</time>
      </trkpt>
      <trkpt lat="42.25486" lon="18.90013">
        <ele>117.427292</ele>
        <time>2022-05-27T12:41:33.857Z</time>
      </trkpt>
      <trkpt lat="42.25494" lon="18.90003">
        <ele>116.90852</ele>
        <time>2022-05-27T12:41:35.865Z</time>
      </trkpt>
      <trkpt lat="42.25501" lon="18.89992">
        <ele>116.373587</ele>
        <time>2022-05-27T12:41:37.868Z</time>
      </trkpt>
      <trkpt lat="42.25509" lon="18.89979">
        <ele>115.780507</ele>
        <time>2022-05-27T12:41:39.870Z</time>
      </trkpt>
      <trkpt lat="42.25517" lon="18.89967">
        <ele>115.326746</ele>
        <time>2022-05-27T12:41:41.866Z</time>
      </trkpt>
      <trkpt lat="42.25525" lon="18.89954">
        <ele>115.008705</ele>
        <time>2022-05-27T12:41:43.861Z</time>
      </trkpt>
      <trkpt lat="42.25533" lon="18.89941">
        <ele>114.687681</ele>
        <time>2022-05-27T12:41:45.885Z</time>
      </trkpt>
      <trkpt lat="42.25541" lon="18.89928">
        <ele>114.356143</ele>
        <time>2022-05-27T12:41:47.875Z</time>
      </trkpt>
      <trkpt lat="42.25547" lon="18.89914">
        <ele>114.032423</ele>
        <time>2022-05-27T12:41:49.875Z</time>
      </trkpt>
      <trkpt lat="42.25552" lon="18.899">
        <ele>113.73004</ele>
        <time>2022-05-27T12:41:51.893Z</time>
      </trkpt>
      <trkpt lat="42.25557" lon="18.89886">
        <ele>113.427031</ele>
        <time>2022-05-27T12:41:53.866Z</time>
      </trkpt>
      <trkpt lat="42.25561" lon="18.89872">
        <ele>113.131907</ele>
        <time>2022-05-27T12:41:55.856Z</time>
      </trkpt>
      <trkpt lat="42.25565" lon="18.89859">
        <ele>112.859839</ele>
        <time>2022-05-27T12:41:57.912Z</time>
      </trkpt>
      <trkpt lat="42.25569" lon="18.89846">
        <ele>112.586744</ele>
        <time>2022-05-27T12:41:59.867Z</time>
      </trkpt>
      <trkpt lat="42.25574" lon="18.89834">
        <ele>112.312493</ele>
        <time>2022-05-27T12:42:01.858Z</time>
      </trkpt>
      <trkpt lat="42.2558" lon="18.89822">
        <ele>112.040021</ele>
        <time>2022-05-27T12:42:03.855Z</time>
      </trkpt>
      <trkpt lat="42.25587" lon="18.89812">
        <ele>111.779668</ele>
        <time>2022-05-27T12:42:05.862Z</time>
      </trkpt>
      <trkpt lat="42.25593" lon="18.89803">
        <ele>111.534087</ele>
        <time>2022-05-27T12:42:07.867Z</time>
      </trkpt>
      <trkpt lat="42.25602" lon="18.89794">
        <ele>111.243361</ele>
        <time>2022-05-27T12:42:10.870Z</time>
      </trkpt>
      <trkpt lat="42.2561" lon="18.89788">
        <ele>111.000583</ele>
        <time>2022-05-27T12:42:13.870Z</time>
      </trkpt>
      <trkpt lat="42.25619" lon="18.89782">
        <ele>110.755629</ele>
        <time>2022-05-27T12:42:18.872Z</time>
      </trkpt>
      <trkpt lat="42.25627" lon="18.89777">
        <ele>110.895526</ele>
        <time>2022-05-27T12:42:23.862Z</time>
      </trkpt>
      <trkpt lat="42.25636" lon="18.89769">
        <ele>111.05553</ele>
        <time>2022-05-27T12:42:28.858Z</time>
      </trkpt>
      <trkpt lat="42.25641" lon="18.89758">
        <ele>111.195039</ele>
        <time>2022-05-27T12:42:35.856Z</time>
      </trkpt>
      <trkpt lat="42.25655" lon="18.89749">
        <ele>111.418541</ele>
        <time>2022-05-27T13:00:51.945Z</time>
      </trkpt>
      <trkpt lat="42.25666" lon="18.89744">
        <ele>111.591501</ele>
        <time>2022-05-27T13:00:55.860Z</time>
      </trkpt>
      <trkpt lat="42.25674" lon="18.89737">
        <ele>111.747366</ele>
        <time>2022-05-27T13:00:58.862Z</time>
      </trkpt>
      <trkpt lat="42.25683" lon="18.89728">
        <ele>111.912878</ele>
        <time>2022-05-27T13:01:01.903Z</time>
      </trkpt>
      <trkpt lat="42.25692" lon="18.89716">
        <ele>112.099439</ele>
        <time>2022-05-27T13:01:04.856Z</time>
      </trkpt>
      <trkpt lat="42.257" lon="18.89702">
        <ele>112.297394</ele>
        <time>2022-05-27T13:01:07.911Z</time>
      </trkpt>
      <trkpt lat="42.25706" lon="18.89691">
        <ele>112.451194</ele>
        <time>2022-05-27T13:01:09.854Z</time>
      </trkpt>
      <trkpt lat="42.25713" lon="18.89679">
        <ele>112.619311</ele>
        <time>2022-05-27T13:01:11.859Z</time>
      </trkpt>
      <trkpt lat="42.2572" lon="18.89667">
        <ele>112.794828</ele>
        <time>2022-05-27T13:01:13.853Z</time>
      </trkpt>
      <trkpt lat="42.25728" lon="18.89654">
        <ele>112.98199</ele>
        <time>2022-05-27T13:01:15.850Z</time>
      </trkpt>
      <trkpt lat="42.25738" lon="18.89643">
        <ele>113.168806</ele>
        <time>2022-05-27T13:01:17.882Z</time>
      </trkpt>
      <trkpt lat="42.25748" lon="18.89633">
        <ele>113.359381</ele>
        <time>2022-05-27T13:01:19.864Z</time>
      </trkpt>
      <trkpt lat="42.25759" lon="18.89624">
        <ele>113.222507</ele>
        <time>2022-05-27T13:01:21.874Z</time>
      </trkpt>
      <trkpt lat="42.25771" lon="18.89617">
        <ele>112.736623</ele>
        <time>2022-05-27T13:01:23.899Z</time>
      </trkpt>
      <trkpt lat="42.25785" lon="18.89612">
        <ele>112.211514</ele>
        <time>2022-05-27T13:01:25.863Z</time>
      </trkpt>
      <trkpt lat="42.25799" lon="18.89609">
        <ele>111.695149</ele>
        <time>2022-05-27T13:01:27.873Z</time>
      </trkpt>
      <trkpt lat="42.25814" lon="18.89609">
        <ele>111.170053</ele>
        <time>2022-05-27T13:01:29.853Z</time>
      </trkpt>
      <trkpt lat="42.25828" lon="18.89611">
        <ele>110.642019</ele>
        <time>2022-05-27T13:01:31.868Z</time>
      </trkpt>
      <trkpt lat="42.25842" lon="18.89616">
        <ele>110.11691</ele>
        <time>2022-05-27T13:01:33.865Z</time>
      </trkpt>
      <trkpt lat="42.25855" lon="18.89624">
        <ele>109.581382</ele>
        <time>2022-05-27T13:01:35.860Z</time>
      </trkpt>
      <trkpt lat="42.25869" lon="18.89631">
        <ele>109.044829</ele>
        <time>2022-05-27T13:01:37.868Z</time>
      </trkpt>
      <trkpt lat="42.25882" lon="18.89639">
        <ele>108.520445</ele>
        <time>2022-05-27T13:01:39.866Z</time>
      </trkpt>
      <trkpt lat="42.25896" lon="18.89646">
        <ele>107.992925</ele>
        <time>2022-05-27T13:01:41.858Z</time>
      </trkpt>
      <trkpt lat="42.25908" lon="18.89652">
        <ele>107.508396</ele>
        <time>2022-05-27T13:01:43.854Z</time>
      </trkpt>
      <trkpt lat="42.25921" lon="18.89659">
        <ele>107.011347</ele>
        <time>2022-05-27T13:01:45.877Z</time>
      </trkpt>
      <trkpt lat="42.25932" lon="18.89666">
        <ele>106.757415</ele>
        <time>2022-05-27T13:01:47.894Z</time>
      </trkpt>
      <trkpt lat="42.25944" lon="18.89675">
        <ele>106.560897</ele>
        <time>2022-05-27T13:01:49.866Z</time>
      </trkpt>
      <trkpt lat="42.25954" lon="18.89685">
        <ele>106.36987</ele>
        <time>2022-05-27T13:01:51.861Z</time>
      </trkpt>
      <trkpt lat="42.25962" lon="18.89694">
        <ele>106.209139</ele>
        <time>2022-05-27T13:01:53.898Z</time>
      </trkpt>
      <trkpt lat="42.25971" lon="18.89707">
        <ele>106.019098</ele>
        <time>2022-05-27T13:01:55.863Z</time>
      </trkpt>
      <trkpt lat="42.25978" lon="18.89722">
        <ele>105.818904</ele>
        <time>2022-05-27T13:01:57.865Z</time>
      </trkpt>
      <trkpt lat="42.25986" lon="18.89736">
        <ele>105.626763</ele>
        <time>2022-05-27T13:01:59.858Z</time>
      </trkpt>
      <trkpt lat="42.25995" lon="18.8975">
        <ele>105.425616</ele>
        <time>2022-05-27T13:02:01.866Z</time>
      </trkpt>
      <trkpt lat="42.26005" lon="18.89762">
        <ele>105.230213</ele>
        <time>2022-05-27T13:02:03.867Z</time>
      </trkpt>
      <trkpt lat="42.26015" lon="18.89773">
        <ele>105.031102</ele>
        <time>2022-05-27T13:02:05.867Z</time>
      </trkpt>
      <trkpt lat="42.26025" lon="18.89783">
        <ele>104.843011</ele>
        <time>2022-05-27T13:02:07.870Z</time>
      </trkpt>
      <trkpt lat="42.26036" lon="18.89791">
        <ele>104.663887</ele>
        <time>2022-05-27T13:02:09.852Z</time>
      </trkpt>
      <trkpt lat="42.26047" lon="18.89795">
        <ele>104.49573</ele>
        <time>2022-05-27T13:02:11.863Z</time>
      </trkpt>
      <trkpt lat="42.26057" lon="18.89798">
        <ele>104.334974</ele>
        <time>2022-05-27T13:02:13.889Z</time>
      </trkpt>
      <trkpt lat="42.26067" lon="18.898">
        <ele>104.197698</ele>
        <time>2022-05-27T13:02:15.934Z</time>
      </trkpt>
      <trkpt lat="42.26077" lon="18.89802">
        <ele>104.088102</ele>
        <time>2022-05-27T13:02:17.887Z</time>
      </trkpt>
      <trkpt lat="42.26086" lon="18.89803">
        <ele>103.984935</ele>
        <time>2022-05-27T13:02:19.859Z</time>
      </trkpt>
      <trkpt lat="42.26095" lon="18.89803">
        <ele>103.882969</ele>
        <time>2022-05-27T13:02:21.862Z</time>
      </trkpt>
      <trkpt lat="42.26105" lon="18.89802">
        <ele>103.775352</ele>
        <time>2022-05-27T13:02:23.859Z</time>
      </trkpt>
      <trkpt lat="42.26114" lon="18.89801">
        <ele>103.672982</ele>
        <time>2022-05-27T13:02:25.871Z</time>
      </trkpt>
      <trkpt lat="42.26123" lon="18.89798">
        <ele>103.563854</ele>
        <time>2022-05-27T13:02:27.856Z</time>
      </trkpt>
      <trkpt lat="42.26132" lon="18.89793">
        <ele>103.45556</ele>
        <time>2022-05-27T13:02:29.875Z</time>
      </trkpt>
      <trkpt lat="42.2614" lon="18.89785">
        <ele>103.343673</ele>
        <time>2022-05-27T13:02:31.868Z</time>
      </trkpt>
      <trkpt lat="42.26148" lon="18.89777">
        <ele>103.234333</ele>
        <time>2022-05-27T13:02:33.861Z</time>
      </trkpt>
      <trkpt lat="42.26154" lon="18.89767">
        <ele>103.12198</ele>
        <time>2022-05-27T13:02:35.864Z</time>
      </trkpt>
      <trkpt lat="42.2616" lon="18.89756">
        <ele>103.013331</ele>
        <time>2022-05-27T13:02:37.930Z</time>
      </trkpt>
      <trkpt lat="42.26168" lon="18.89743">
        <ele>102.873908</ele>
        <time>2022-05-27T13:02:40.849Z</time>
      </trkpt>
      <trkpt lat="42.26175" lon="18.89731">
        <ele>102.743863</ele>
        <time>2022-05-27T13:02:43.898Z</time>
      </trkpt>
      <trkpt lat="42.26184" lon="18.89717">
        <ele>102.59247</ele>
        <time>2022-05-27T13:02:46.855Z</time>
      </trkpt>
      <trkpt lat="42.26192" lon="18.89703">
        <ele>102.443501</ele>
        <time>2022-05-27T13:02:49.867Z</time>
      </trkpt>
      <trkpt lat="42.26201" lon="18.89689">
        <ele>102.296522</ele>
        <time>2022-05-27T13:02:52.869Z</time>
      </trkpt>
      <trkpt lat="42.26208" lon="18.89677">
        <ele>102.443344</ele>
        <time>2022-05-27T13:02:55.857Z</time>
      </trkpt>
      <trkpt lat="42.26215" lon="18.89665">
        <ele>103.149144</ele>
        <time>2022-05-27T13:02:58.853Z</time>
      </trkpt>
      <trkpt lat="42.26223" lon="18.89654">
        <ele>103.835238</ele>
        <time>2022-05-27T13:03:01.984Z</time>
      </trkpt>
      <trkpt lat="42.26231" lon="18.89644">
        <ele>104.534239</ele>
        <time>2022-05-27T13:03:04.856Z</time>
      </trkpt>
      <trkpt lat="42.26239" lon="18.89634">
        <ele>105.214866</ele>
        <time>2022-05-27T13:03:07.873Z</time>
      </trkpt>
      <trkpt lat="42.26247" lon="18.89626">
        <ele>105.86983</ele>
        <time>2022-05-27T13:03:10.864Z</time>
      </trkpt>
      <trkpt lat="42.26256" lon="18.89619">
        <ele>106.479693</ele>
        <time>2022-05-27T13:03:13.856Z</time>
      </trkpt>
      <trkpt lat="42.26265" lon="18.89614">
        <ele>107.095014</ele>
        <time>2022-05-27T13:03:16.863Z</time>
      </trkpt>
      <trkpt lat="42.26275" lon="18.8961">
        <ele>107.743626</ele>
        <time>2022-05-27T13:03:20.874Z</time>
      </trkpt>
      <trkpt lat="42.26284" lon="18.89608">
        <ele>108.315319</ele>
        <time>2022-05-27T13:03:24.894Z</time>
      </trkpt>
      <trkpt lat="42.26294" lon="18.89606">
        <ele>108.975381</ele>
        <time>2022-05-27T13:03:28.874Z</time>
      </trkpt>
      <trkpt lat="42.26306" lon="18.89605">
        <ele>109.692416</ele>
        <time>2022-05-27T13:03:32.859Z</time>
      </trkpt>
      <trkpt lat="42.26317" lon="18.89604">
        <ele>110.383103</ele>
        <time>2022-05-27T13:03:36.893Z</time>
      </trkpt>
      <trkpt lat="42.26327" lon="18.89602">
        <ele>111.023571</ele>
        <time>2022-05-27T13:03:40.849Z</time>
      </trkpt>
      <trkpt lat="42.26336" lon="18.896">
        <ele>111.606876</ele>
        <time>2022-05-27T13:03:44.859Z</time>
      </trkpt>
      <trkpt lat="42.26345" lon="18.89599">
        <ele>112.205334</ele>
        <time>2022-05-27T13:03:48.863Z</time>
      </trkpt>
      <trkpt lat="42.26357" lon="18.89599">
        <ele>112.926111</ele>
        <time>2022-05-27T13:03:53.909Z</time>
      </trkpt>
      <trkpt lat="42.26367" lon="18.89597">
        <ele>113.459411</ele>
        <time>2022-05-27T13:03:59.862Z</time>
      </trkpt>
      <trkpt lat="42.26377" lon="18.89595">
        <ele>113.342195</ele>
        <time>2022-05-27T13:04:04.894Z</time>
      </trkpt>
      <trkpt lat="42.26387" lon="18.89595">
        <ele>113.211762</ele>
        <time>2022-05-27T13:04:09.860Z</time>
      </trkpt>
      <trkpt lat="42.26396" lon="18.89593">
        <ele>113.095594</ele>
        <time>2022-05-27T13:04:13.865Z</time>
      </trkpt>
      <trkpt lat="42.26406" lon="18.89594">
        <ele>112.972687</ele>
        <time>2022-05-27T13:04:17.874Z</time>
      </trkpt>
      <trkpt lat="42.26417" lon="18.89593">
        <ele>112.839801</ele>
        <time>2022-05-27T13:04:22.866Z</time>
      </trkpt>
      <trkpt lat="42.26427" lon="18.89593">
        <ele>112.720534</ele>
        <time>2022-05-27T13:04:26.864Z</time>
      </trkpt>
      <trkpt lat="42.26436" lon="18.8959">
        <ele>112.601941</ele>
        <time>2022-05-27T13:04:30.865Z</time>
      </trkpt>
      <trkpt lat="42.26447" lon="18.89589">
        <ele>112.467333</ele>
        <time>2022-05-27T13:04:34.845Z</time>
      </trkpt>
      <trkpt lat="42.26456" lon="18.89587">
        <ele>112.353287</ele>
        <time>2022-05-27T13:04:37.879Z</time>
      </trkpt>
      <trkpt lat="42.26465" lon="18.89586">
        <ele>112.241101</ele>
        <time>2022-05-27T13:04:40.845Z</time>
      </trkpt>
      <trkpt lat="42.26474" lon="18.89585">
        <ele>112.126442</ele>
        <time>2022-05-27T13:04:43.866Z</time>
      </trkpt>
      <trkpt lat="42.26484" lon="18.89583">
        <ele>111.997623</ele>
        <time>2022-05-27T13:04:46.856Z</time>
      </trkpt>
      <trkpt lat="42.26495" lon="18.89582">
        <ele>111.864404</ele>
        <time>2022-05-27T13:04:49.884Z</time>
      </trkpt>
      <trkpt lat="42.26507" lon="18.89581">
        <ele>111.719648</ele>
        <time>2022-05-27T13:04:52.878Z</time>
      </trkpt>
      <trkpt lat="42.26519" lon="18.89579">
        <ele>111.570888</ele>
        <time>2022-05-27T13:04:55.857Z</time>
      </trkpt>
      <trkpt lat="42.26531" lon="18.89575">
        <ele>111.413831</ele>
        <time>2022-05-27T13:04:58.870Z</time>
      </trkpt>
      <trkpt lat="42.2654" lon="18.89571">
        <ele>111.297969</ele>
        <time>2022-05-27T13:05:00.898Z</time>
      </trkpt>
      <trkpt lat="42.26549" lon="18.89565">
        <ele>110.924992</ele>
        <time>2022-05-27T13:05:02.854Z</time>
      </trkpt>
      <trkpt lat="42.26558" lon="18.89557">
        <ele>110.34927</ele>
        <time>2022-05-27T13:05:04.865Z</time>
      </trkpt>
      <trkpt lat="42.26568" lon="18.89546">
        <ele>109.704826</ele>
        <time>2022-05-27T13:05:06.866Z</time>
      </trkpt>
      <trkpt lat="42.26576" lon="18.89532">
        <ele>109.019235</ele>
        <time>2022-05-27T13:05:08.862Z</time>
      </trkpt>
      <trkpt lat="42.26584" lon="18.89516">
        <ele>108.276214</ele>
        <time>2022-05-27T13:05:10.861Z</time>
      </trkpt>
      <trkpt lat="42.26594" lon="18.895">
        <ele>107.455556</ele>
        <time>2022-05-27T13:05:12.857Z</time>
      </trkpt>
      <trkpt lat="42.26605" lon="18.89483">
        <ele>106.602444</ele>
        <time>2022-05-27T13:05:14.854Z</time>
      </trkpt>
      <trkpt lat="42.26617" lon="18.89469">
        <ele>105.765868</ele>
        <time>2022-05-27T13:05:16.854Z</time>
      </trkpt>
      <trkpt lat="42.26631" lon="18.89458">
        <ele>104.926108</ele>
        <time>2022-05-27T13:05:18.858Z</time>
      </trkpt>
      <trkpt lat="42.26647" lon="18.89449">
        <ele>104.029968</ele>
        <time>2022-05-27T13:05:20.897Z</time>
      </trkpt>
      <trkpt lat="42.26656" lon="18.89446">
        <ele>103.544645</ele>
        <time>2022-05-27T13:05:21.877Z</time>
      </trkpt>
      <trkpt lat="42.26665" lon="18.89444">
        <ele>103.070578</ele>
        <time>2022-05-27T13:05:22.907Z</time>
      </trkpt>
      <trkpt lat="42.26674" lon="18.89447">
        <ele>102.572072</ele>
        <time>2022-05-27T13:05:23.869Z</time>
      </trkpt>
      <trkpt lat="42.26692" lon="18.8945">
        <ele>101.658589</ele>
        <time>2022-05-27T13:05:25.846Z</time>
      </trkpt>
      <trkpt lat="42.26701" lon="18.89453">
        <ele>101.163997</ele>
        <time>2022-05-27T13:05:26.863Z</time>
      </trkpt>
      <trkpt lat="42.26711" lon="18.89457">
        <ele>100.632202</ele>
        <time>2022-05-27T13:05:27.862Z</time>
      </trkpt>
      <trkpt lat="42.26719" lon="18.89462">
        <ele>100.140276</ele>
        <time>2022-05-27T13:05:28.897Z</time>
      </trkpt>
      <trkpt lat="42.26727" lon="18.8947">
        <ele>99.624987</ele>
        <time>2022-05-27T13:05:29.864Z</time>
      </trkpt>
      <trkpt lat="42.26735" lon="18.89478">
        <ele>99.104065</ele>
        <time>2022-05-27T13:05:30.861Z</time>
      </trkpt>
      <trkpt lat="42.26742" lon="18.89488">
        <ele>98.582944</ele>
        <time>2022-05-27T13:05:31.871Z</time>
      </trkpt>
      <trkpt lat="42.26748" lon="18.89498">
        <ele>98.076667</ele>
        <time>2022-05-27T13:05:32.870Z</time>
      </trkpt>
      <trkpt lat="42.26753" lon="18.89508">
        <ele>97.574959</ele>
        <time>2022-05-27T13:05:33.853Z</time>
      </trkpt>
      <trkpt lat="42.26758" lon="18.89519">
        <ele>97.066815</ele>
        <time>2022-05-27T13:05:34.850Z</time>
      </trkpt>
      <trkpt lat="42.26763" lon="18.8953">
        <ele>96.579153</ele>
        <time>2022-05-27T13:05:35.868Z</time>
      </trkpt>
      <trkpt lat="42.26767" lon="18.89541">
        <ele>96.105761</ele>
        <time>2022-05-27T13:05:36.862Z</time>
      </trkpt>
      <trkpt lat="42.26776" lon="18.89561">
        <ele>95.201404</ele>
        <time>2022-05-27T13:05:38.865Z</time>
      </trkpt>
      <trkpt lat="42.26783" lon="18.8957">
        <ele>94.679473</ele>
        <time>2022-05-27T13:05:39.897Z</time>
      </trkpt>
      <trkpt lat="42.26791" lon="18.8958">
        <ele>94.097158</ele>
        <time>2022-05-27T13:05:40.867Z</time>
      </trkpt>
      <trkpt lat="42.26801" lon="18.89589">
        <ele>93.492264</ele>
        <time>2022-05-27T13:05:41.849Z</time>
      </trkpt>
      <trkpt lat="42.26811" lon="18.89597">
        <ele>92.897393</ele>
        <time>2022-05-27T13:05:42.874Z</time>
      </trkpt>
      <trkpt lat="42.26822" lon="18.89604">
        <ele>92.165553</ele>
        <time>2022-05-27T13:05:43.856Z</time>
      </trkpt>
      <trkpt lat="42.26833" lon="18.89609">
        <ele>91.170769</ele>
        <time>2022-05-27T13:05:44.868Z</time>
      </trkpt>
      <trkpt lat="42.26843" lon="18.89611">
        <ele>90.283919</ele>
        <time>2022-05-27T13:05:45.868Z</time>
      </trkpt>
      <trkpt lat="42.26854" lon="18.89613">
        <ele>89.316927</ele>
        <time>2022-05-27T13:05:46.871Z</time>
      </trkpt>
      <trkpt lat="42.26865" lon="18.89613">
        <ele>88.400355</ele>
        <time>2022-05-27T13:05:47.854Z</time>
      </trkpt>
      <trkpt lat="42.26882" lon="18.89608">
        <ele>86.907552</ele>
        <time>2022-05-27T13:05:49.861Z</time>
      </trkpt>
      <trkpt lat="42.26898" lon="18.89601">
        <ele>85.520041</ele>
        <time>2022-05-27T13:05:51.860Z</time>
      </trkpt>
      <trkpt lat="42.26912" lon="18.89589">
        <ele>84.11282</ele>
        <time>2022-05-27T13:05:53.871Z</time>
      </trkpt>
      <trkpt lat="42.26924" lon="18.89574">
        <ele>82.74251</ele>
        <time>2022-05-27T13:05:55.863Z</time>
      </trkpt>
      <trkpt lat="42.26935" lon="18.89558">
        <ele>81.356263</ele>
        <time>2022-05-27T13:05:57.874Z</time>
      </trkpt>
      <trkpt lat="42.26944" lon="18.8954">
        <ele>79.96552</ele>
        <time>2022-05-27T13:05:59.857Z</time>
      </trkpt>
      <trkpt lat="42.26949" lon="18.8952">
        <ele>78.664108</ele>
        <time>2022-05-27T13:06:01.891Z</time>
      </trkpt>
      <trkpt lat="42.26953" lon="18.89498">
        <ele>77.240674</ele>
        <time>2022-05-27T13:06:03.855Z</time>
      </trkpt>
      <trkpt lat="42.26954" lon="18.89474">
        <ele>76.029332</ele>
        <time>2022-05-27T13:06:05.858Z</time>
      </trkpt>
      <trkpt lat="42.26953" lon="18.8945">
        <ele>74.837782</ele>
        <time>2022-05-27T13:06:07.905Z</time>
      </trkpt>
      <trkpt lat="42.26952" lon="18.89436">
        <ele>74.177702</ele>
        <time>2022-05-27T13:06:08.882Z</time>
      </trkpt>
      <trkpt lat="42.26951" lon="18.89422">
        <ele>73.477961</ele>
        <time>2022-05-27T13:06:09.861Z</time>
      </trkpt>
      <trkpt lat="42.2695" lon="18.89408">
        <ele>72.777438</ele>
        <time>2022-05-27T13:06:10.872Z</time>
      </trkpt>
      <trkpt lat="42.26949" lon="18.89395">
        <ele>72.159274</ele>
        <time>2022-05-27T13:06:11.869Z</time>
      </trkpt>
      <trkpt lat="42.2695" lon="18.89381">
        <ele>71.463264</ele>
        <time>2022-05-27T13:06:12.862Z</time>
      </trkpt>
      <trkpt lat="42.26952" lon="18.89366">
        <ele>70.707117</ele>
        <time>2022-05-27T13:06:13.866Z</time>
      </trkpt>
      <trkpt lat="42.26957" lon="18.89352">
        <ele>69.967798</ele>
        <time>2022-05-27T13:06:14.860Z</time>
      </trkpt>
      <trkpt lat="42.26962" lon="18.89338">
        <ele>69.201526</ele>
        <time>2022-05-27T13:06:15.861Z</time>
      </trkpt>
      <trkpt lat="42.26968" lon="18.89325">
        <ele>68.432035</ele>
        <time>2022-05-27T13:06:16.867Z</time>
      </trkpt>
      <trkpt lat="42.26974" lon="18.89314">
        <ele>67.762754</ele>
        <time>2022-05-27T13:06:17.867Z</time>
      </trkpt>
      <trkpt lat="42.26979" lon="18.89303">
        <ele>67.140933</ele>
        <time>2022-05-27T13:06:18.900Z</time>
      </trkpt>
      <trkpt lat="42.26989" lon="18.89284">
        <ele>65.990915</ele>
        <time>2022-05-27T13:06:20.880Z</time>
      </trkpt>
      <trkpt lat="42.26996" lon="18.89266">
        <ele>65.393896</ele>
        <time>2022-05-27T13:06:22.839Z</time>
      </trkpt>
      <trkpt lat="42.27002" lon="18.89247">
        <ele>66.110844</ele>
        <time>2022-05-27T13:06:24.844Z</time>
      </trkpt>
      <trkpt lat="42.27009" lon="18.8923">
        <ele>66.787945</ele>
        <time>2022-05-27T13:06:26.839Z</time>
      </trkpt>
      <trkpt lat="42.27015" lon="18.89214">
        <ele>67.407826</ele>
        <time>2022-05-27T13:06:28.835Z</time>
      </trkpt>
      <trkpt lat="42.2702" lon="18.892">
        <ele>67.917143</ele>
        <time>2022-05-27T13:06:30.840Z</time>
      </trkpt>
      <trkpt lat="42.27023" lon="18.89188">
        <ele>68.356013</ele>
        <time>2022-05-27T13:06:32.829Z</time>
      </trkpt>
      <trkpt lat="42.27029" lon="18.89173">
        <ele>68.927146</ele>
        <time>2022-05-27T13:06:35.848Z</time>
      </trkpt>
      <trkpt lat="42.27035" lon="18.89162">
        <ele>69.371653</ele>
        <time>2022-05-27T13:06:38.833Z</time>
      </trkpt>
      <trkpt lat="42.27042" lon="18.89151">
        <ele>69.87248</ele>
        <time>2022-05-27T13:06:43.830Z</time>
      </trkpt>
      <trkpt lat="42.27048" lon="18.89142">
        <ele>70.292833</ele>
        <time>2022-05-27T13:06:48.849Z</time>
      </trkpt>
      <trkpt lat="42.27054" lon="18.89133">
        <ele>70.735474</ele>
        <time>2022-05-27T13:06:55.829Z</time>
      </trkpt>
      <trkpt lat="42.27061" lon="18.89123">
        <ele>71.198054</ele>
        <time>2022-05-27T13:07:03.840Z</time>
      </trkpt>
      <trkpt lat="42.27068" lon="18.89113">
        <ele>71.669975</ele>
        <time>2022-05-27T13:07:10.834Z</time>
      </trkpt>
      <trkpt lat="42.27075" lon="18.89104">
        <ele>72.089987</ele>
        <time>2022-05-27T13:07:16.829Z</time>
      </trkpt>
      <trkpt lat="42.27083" lon="18.89095">
        <ele>72.562662</ele>
        <time>2022-05-27T13:07:22.836Z</time>
      </trkpt>
      <trkpt lat="42.2709" lon="18.89088">
        <ele>72.977976</ele>
        <time>2022-05-27T13:07:28.834Z</time>
      </trkpt>
      <trkpt lat="42.27098" lon="18.8908">
        <ele>73.44385</ele>
        <time>2022-05-27T13:07:34.829Z</time>
      </trkpt>
      <trkpt lat="42.27106" lon="18.89073">
        <ele>73.783345</ele>
        <time>2022-05-27T13:07:40.843Z</time>
      </trkpt>
      <trkpt lat="42.27115" lon="18.89067">
        <ele>74.087315</ele>
        <time>2022-05-27T13:07:46.827Z</time>
      </trkpt>
      <trkpt lat="42.27125" lon="18.89062">
        <ele>74.418105</ele>
        <time>2022-05-27T13:07:52.852Z</time>
      </trkpt>
      <trkpt lat="42.27134" lon="18.89058">
        <ele>74.724813</ele>
        <time>2022-05-27T13:07:58.850Z</time>
      </trkpt>
      <trkpt lat="42.27143" lon="18.89055">
        <ele>75.012823</ele>
        <time>2022-05-27T13:08:03.831Z</time>
      </trkpt>
      <trkpt lat="42.27152" lon="18.89053">
        <ele>75.307184</ele>
        <time>2022-05-27T13:08:08.845Z</time>
      </trkpt>
      <trkpt lat="42.27161" lon="18.89053">
        <ele>75.602769</ele>
        <time>2022-05-27T13:08:13.829Z</time>
      </trkpt>
      <trkpt lat="42.27172" lon="18.89053">
        <ele>75.942325</ele>
        <time>2022-05-27T13:08:18.841Z</time>
      </trkpt>
      <trkpt lat="42.27182" lon="18.89055">
        <ele>76.279882</ele>
        <time>2022-05-27T13:08:23.836Z</time>
      </trkpt>
      <trkpt lat="42.27192" lon="18.89058">
        <ele>76.609088</ele>
        <time>2022-05-27T13:08:27.844Z</time>
      </trkpt>
      <trkpt lat="42.27204" lon="18.89063">
        <ele>77.004555</ele>
        <time>2022-05-27T13:08:31.835Z</time>
      </trkpt>
      <trkpt lat="42.27215" lon="18.89069">
        <ele>77.380992</ele>
        <time>2022-05-27T13:08:34.851Z</time>
      </trkpt>
      <trkpt lat="42.27227" lon="18.89077">
        <ele>77.786207</ele>
        <time>2022-05-27T13:08:37.829Z</time>
      </trkpt>
      <trkpt lat="42.27239" lon="18.89084">
        <ele>78.199963</ele>
        <time>2022-05-27T13:08:40.836Z</time>
      </trkpt>
      <trkpt lat="42.2725" lon="18.89091">
        <ele>78.597674</ele>
        <time>2022-05-27T13:08:43.862Z</time>
      </trkpt>
      <trkpt lat="42.2726" lon="18.89099">
        <ele>78.968494</ele>
        <time>2022-05-27T13:08:46.843Z</time>
      </trkpt>
      <trkpt lat="42.2727" lon="18.89107">
        <ele>79.075434</ele>
        <time>2022-05-27T13:08:48.846Z</time>
      </trkpt>
      <trkpt lat="42.2728" lon="18.89114">
        <ele>78.271104</ele>
        <time>2022-05-27T13:08:50.830Z</time>
      </trkpt>
      <trkpt lat="42.27291" lon="18.89121">
        <ele>77.382479</ele>
        <time>2022-05-27T13:08:52.840Z</time>
      </trkpt>
      <trkpt lat="42.27304" lon="18.89129">
        <ele>76.388658</ele>
        <time>2022-05-27T13:08:54.860Z</time>
      </trkpt>
      <trkpt lat="42.27316" lon="18.89135">
        <ele>75.434911</ele>
        <time>2022-05-27T13:08:56.836Z</time>
      </trkpt>
      <trkpt lat="42.2733" lon="18.89139">
        <ele>74.441256</ele>
        <time>2022-05-27T13:08:58.842Z</time>
      </trkpt>
      <trkpt lat="42.27344" lon="18.89139">
        <ele>73.436288</ele>
        <time>2022-05-27T13:09:00.845Z</time>
      </trkpt>
      <trkpt lat="42.27358" lon="18.89135">
        <ele>72.416704</ele>
        <time>2022-05-27T13:09:02.834Z</time>
      </trkpt>
      <trkpt lat="42.27373" lon="18.89127">
        <ele>71.321434</ele>
        <time>2022-05-27T13:09:04.835Z</time>
      </trkpt>
      <trkpt lat="42.27385" lon="18.89115">
        <ele>70.256672</ele>
        <time>2022-05-27T13:09:06.842Z</time>
      </trkpt>
      <trkpt lat="42.27395" lon="18.89101">
        <ele>69.241485</ele>
        <time>2022-05-27T13:09:08.878Z</time>
      </trkpt>
      <trkpt lat="42.27402" lon="18.89085">
        <ele>68.264541</ele>
        <time>2022-05-27T13:09:10.866Z</time>
      </trkpt>
      <trkpt lat="42.27407" lon="18.89068">
        <ele>67.290976</ele>
        <time>2022-05-27T13:09:12.858Z</time>
      </trkpt>
      <trkpt lat="42.27413" lon="18.89048">
        <ele>66.48155</ele>
        <time>2022-05-27T13:09:14.835Z</time>
      </trkpt>
      <trkpt lat="42.27418" lon="18.89028">
        <ele>66.368723</ele>
        <time>2022-05-27T13:09:16.836Z</time>
      </trkpt>
      <trkpt lat="42.27424" lon="18.89005">
        <ele>66.246806</ele>
        <time>2022-05-27T13:09:18.896Z</time>
      </trkpt>
      <trkpt lat="42.27427" lon="18.88994">
        <ele>66.184179</ele>
        <time>2022-05-27T13:09:19.836Z</time>
      </trkpt>
      <trkpt lat="42.27433" lon="18.88971">
        <ele>66.063243</ele>
        <time>2022-05-27T13:09:21.840Z</time>
      </trkpt>
      <trkpt lat="42.27439" lon="18.8895">
        <ele>65.948303</ele>
        <time>2022-05-27T13:09:23.849Z</time>
      </trkpt>
      <trkpt lat="42.27446" lon="18.8893">
        <ele>65.834247</ele>
        <time>2022-05-27T13:09:25.841Z</time>
      </trkpt>
      <trkpt lat="42.27453" lon="18.88913">
        <ele>65.733914</ele>
        <time>2022-05-27T13:09:27.836Z</time>
      </trkpt>
      <trkpt lat="42.2746" lon="18.88898">
        <ele>65.642589</ele>
        <time>2022-05-27T13:09:29.839Z</time>
      </trkpt>
      <trkpt lat="42.27468" lon="18.88884">
        <ele>65.550449</ele>
        <time>2022-05-27T13:09:31.856Z</time>
      </trkpt>
      <trkpt lat="42.27477" lon="18.88871">
        <ele>65.464971</ele>
        <time>2022-05-27T13:09:33.846Z</time>
      </trkpt>
      <trkpt lat="42.27484" lon="18.88862">
        <ele>65.393536</ele>
        <time>2022-05-27T13:09:35.830Z</time>
      </trkpt>
      <trkpt lat="42.27493" lon="18.88851">
        <ele>65.310264</ele>
        <time>2022-05-27T13:09:38.843Z</time>
      </trkpt>
      <trkpt lat="42.27502" lon="18.88842">
        <ele>65.639454</ele>
        <time>2022-05-27T13:09:41.848Z</time>
      </trkpt>
      <trkpt lat="42.27509" lon="18.88835">
        <ele>66.361375</ele>
        <time>2022-05-27T13:09:44.839Z</time>
      </trkpt>
      <trkpt lat="42.27518" lon="18.88827">
        <ele>67.1773</ele>
        <time>2022-05-27T13:09:48.837Z</time>
      </trkpt>
      <trkpt lat="42.27528" lon="18.88821">
        <ele>68.032332</ele>
        <time>2022-05-27T13:09:52.850Z</time>
      </trkpt>
      <trkpt lat="42.27537" lon="18.88814">
        <ele>68.802887</ele>
        <time>2022-05-27T13:09:56.826Z</time>
      </trkpt>
      <trkpt lat="42.27546" lon="18.88808">
        <ele>69.591174</ele>
        <time>2022-05-27T13:10:01.843Z</time>
      </trkpt>
      <trkpt lat="42.27555" lon="18.88802">
        <ele>70.334335</ele>
        <time>2022-05-27T13:10:06.829Z</time>
      </trkpt>
      <trkpt lat="42.27563" lon="18.88796">
        <ele>71.047909</ele>
        <time>2022-05-27T13:10:11.843Z</time>
      </trkpt>
      <trkpt lat="42.27571" lon="18.8879">
        <ele>71.747683</ele>
        <time>2022-05-27T13:10:16.862Z</time>
      </trkpt>
      <trkpt lat="42.27579" lon="18.88784">
        <ele>72.476015</ele>
        <time>2022-05-27T13:10:21.830Z</time>
      </trkpt>
      <trkpt lat="42.27587" lon="18.88778">
        <ele>73.192453</ele>
        <time>2022-05-27T13:10:27.834Z</time>
      </trkpt>
      <trkpt lat="42.27596" lon="18.8877">
        <ele>74.032802</ele>
        <time>2022-05-27T13:10:35.840Z</time>
      </trkpt>
      <trkpt lat="42.27603" lon="18.88762">
        <ele>74.735184</ele>
        <time>2022-05-27T13:10:41.841Z</time>
      </trkpt>
      <trkpt lat="42.27609" lon="18.88752">
        <ele>75.485178</ele>
        <time>2022-05-27T13:10:48.858Z</time>
      </trkpt>
      <trkpt lat="42.27615" lon="18.88742">
        <ele>76.24458</ele>
        <time>2022-05-27T13:10:55.861Z</time>
      </trkpt>
      <trkpt lat="42.27621" lon="18.88731">
        <ele>76.999621</ele>
        <time>2022-05-27T13:11:02.842Z</time>
      </trkpt>
      <trkpt lat="42.27625" lon="18.88719">
        <ele>77.737319</ele>
        <time>2022-05-27T13:11:08.835Z</time>
      </trkpt>
      <trkpt lat="42.27629" lon="18.88708">
        <ele>78.462314</ele>
        <time>2022-05-27T13:11:15.840Z</time>
      </trkpt>
      <trkpt lat="42.27631" lon="18.88694">
        <ele>79.109057</ele>
        <time>2022-05-27T13:11:24.833Z</time>
      </trkpt>
      <trkpt lat="42.27634" lon="18.88682">
        <ele>78.031343</ele>
        <time>2022-05-27T13:11:33.838Z</time>
      </trkpt>
      <trkpt lat="42.27637" lon="18.8867">
        <ele>76.978562</ele>
        <time>2022-05-27T13:11:41.882Z</time>
      </trkpt>
      <trkpt lat="42.2764" lon="18.88658">
        <ele>75.99545</ele>
        <time>2022-05-27T13:11:49.838Z</time>
      </trkpt>
      <trkpt lat="42.27643" lon="18.88647">
        <ele>74.98981</ele>
        <time>2022-05-27T13:11:56.834Z</time>
      </trkpt>
      <trkpt lat="42.27641" lon="18.88634">
        <ele>73.967465</ele>
        <time>2022-05-27T13:12:05.830Z</time>
      </trkpt>
      <trkpt lat="42.27642" lon="18.88621">
        <ele>72.892818</ele>
        <time>2022-05-27T13:12:12.853Z</time>
      </trkpt>
      <trkpt lat="42.27643" lon="18.88609">
        <ele>71.898243</ele>
        <time>2022-05-27T13:12:18.869Z</time>
      </trkpt>
      <trkpt lat="42.27642" lon="18.88596">
        <ele>70.861125</ele>
        <time>2022-05-27T13:12:23.841Z</time>
      </trkpt>
      <trkpt lat="42.2764" lon="18.88582">
        <ele>69.711241</ele>
        <time>2022-05-27T13:12:27.836Z</time>
      </trkpt>
      <trkpt lat="42.27636" lon="18.88567">
        <ele>68.401503</ele>
        <time>2022-05-27T13:12:31.843Z</time>
      </trkpt>
      <trkpt lat="42.27633" lon="18.88553">
        <ele>67.245906</ele>
        <time>2022-05-27T13:12:35.840Z</time>
      </trkpt>
      <trkpt lat="42.2763" lon="18.88542">
        <ele>66.251618</ele>
        <time>2022-05-27T13:12:38.844Z</time>
      </trkpt>
      <trkpt lat="42.27627" lon="18.88528">
        <ele>65.099203</ele>
        <time>2022-05-27T13:12:42.843Z</time>
      </trkpt>
      <trkpt lat="42.27623" lon="18.88514">
        <ele>63.83822</ele>
        <time>2022-05-27T13:12:47.842Z</time>
      </trkpt>
      <trkpt lat="42.2762" lon="18.88502">
        <ele>62.817335</ele>
        <time>2022-05-27T13:12:50.863Z</time>
      </trkpt>
      <trkpt lat="42.27615" lon="18.88491">
        <ele>61.808159</ele>
        <time>2022-05-27T13:12:54.840Z</time>
      </trkpt>
      <trkpt lat="42.27613" lon="18.88479">
        <ele>60.743754</ele>
        <time>2022-05-27T13:13:00.837Z</time>
      </trkpt>
      <trkpt lat="42.27609" lon="18.88466">
        <ele>59.603659</ele>
        <time>2022-05-27T13:13:07.834Z</time>
      </trkpt>
      <trkpt lat="42.27607" lon="18.88454">
        <ele>59.362719</ele>
        <time>2022-05-27T13:13:12.833Z</time>
      </trkpt>
      <trkpt lat="42.27603" lon="18.88442">
        <ele>59.259116</ele>
        <time>2022-05-27T13:13:17.829Z</time>
      </trkpt>
      <trkpt lat="42.27602" lon="18.88429">
        <ele>59.153661</ele>
        <time>2022-05-27T13:13:24.841Z</time>
      </trkpt>
      <trkpt lat="42.27604" lon="18.88417">
        <ele>59.054482</ele>
        <time>2022-05-27T13:13:30.835Z</time>
      </trkpt>
      <trkpt lat="42.27605" lon="18.88404">
        <ele>58.953239</ele>
        <time>2022-05-27T13:13:36.841Z</time>
      </trkpt>
      <trkpt lat="42.27614" lon="18.88381">
        <ele>58.735449</ele>
        <time>2022-05-27T13:14:04.839Z</time>
      </trkpt>
      <trkpt lat="42.27644" lon="18.88314">
        <ele>58.105447</ele>
        <time>2022-05-27T13:14:05.836Z</time>
      </trkpt>
      <trkpt lat="42.27649" lon="18.88225">
        <ele>56.905861</ele>
        <time>2022-05-27T13:18:07.002Z</time>
      </trkpt>
      <trkpt lat="42.27664" lon="18.88192">
        <ele>54.947627</ele>
        <time>2022-05-27T13:18:15.853Z</time>
      </trkpt>
      <trkpt lat="42.27667" lon="18.88179">
        <ele>54.256802</ele>
        <time>2022-05-27T13:18:18.871Z</time>
      </trkpt>
      <trkpt lat="42.27671" lon="18.88166">
        <ele>53.513903</ele>
        <time>2022-05-27T13:18:22.857Z</time>
      </trkpt>
      <trkpt lat="42.27674" lon="18.88153">
        <ele>52.837459</ele>
        <time>2022-05-27T13:18:26.865Z</time>
      </trkpt>
      <trkpt lat="42.27679" lon="18.88143">
        <ele>52.224207</ele>
        <time>2022-05-27T13:18:31.876Z</time>
      </trkpt>
      <trkpt lat="42.27687" lon="18.88135">
        <ele>51.543877</ele>
        <time>2022-05-27T13:18:35.862Z</time>
      </trkpt>
      <trkpt lat="42.27696" lon="18.88126">
        <ele>50.775907</ele>
        <time>2022-05-27T13:18:39.891Z</time>
      </trkpt>
      <trkpt lat="42.27704" lon="18.88117">
        <ele>50.072883</ele>
        <time>2022-05-27T13:18:43.850Z</time>
      </trkpt>
      <trkpt lat="42.2771" lon="18.88108">
        <ele>49.441101</ele>
        <time>2022-05-27T13:18:47.863Z</time>
      </trkpt>
      <trkpt lat="42.27717" lon="18.88097">
        <ele>48.710605</ele>
        <time>2022-05-27T13:18:52.856Z</time>
      </trkpt>
      <trkpt lat="42.27724" lon="18.88088">
        <ele>48.061846</ele>
        <time>2022-05-27T13:18:57.866Z</time>
      </trkpt>
      <trkpt lat="42.2773" lon="18.88078">
        <ele>47.416909</ele>
        <time>2022-05-27T13:19:02.854Z</time>
      </trkpt>
      <trkpt lat="42.27738" lon="18.88084">
        <ele>46.782625</ele>
        <time>2022-05-27T13:19:08.857Z</time>
      </trkpt>
      <trkpt lat="42.27747" lon="18.88076">
        <ele>46.050889</ele>
        <time>2022-05-27T13:19:13.868Z</time>
      </trkpt>
      <trkpt lat="42.27758" lon="18.88074">
        <ele>45.321583</ele>
        <time>2022-05-27T13:19:17.889Z</time>
      </trkpt>
      <trkpt lat="42.27764" lon="18.88084">
        <ele>45.225463</ele>
        <time>2022-05-27T13:19:20.858Z</time>
      </trkpt>
      <trkpt lat="42.27772" lon="18.88094">
        <ele>45.289545</ele>
        <time>2022-05-27T13:19:23.820Z</time>
      </trkpt>
      <trkpt lat="42.27779" lon="18.88102">
        <ele>45.349203</ele>
        <time>2022-05-27T13:19:27.847Z</time>
      </trkpt>
      <trkpt lat="42.27786" lon="18.8811">
        <ele>45.407423</ele>
        <time>2022-05-27T13:19:31.878Z</time>
      </trkpt>
      <trkpt lat="42.27793" lon="18.88121">
        <ele>45.470694</ele>
        <time>2022-05-27T13:19:35.859Z</time>
      </trkpt>
      <trkpt lat="42.27801" lon="18.88128">
        <ele>45.529375</ele>
        <time>2022-05-27T13:19:39.882Z</time>
      </trkpt>
      <trkpt lat="42.27809" lon="18.88135">
        <ele>45.588028</ele>
        <time>2022-05-27T13:19:42.829Z</time>
      </trkpt>
      <trkpt lat="42.27818" lon="18.88145">
        <ele>45.657476</ele>
        <time>2022-05-27T13:19:46.839Z</time>
      </trkpt>
      <trkpt lat="42.27827" lon="18.88153">
        <ele>45.728866</ele>
        <time>2022-05-27T13:19:50.900Z</time>
      </trkpt>
      <trkpt lat="42.27834" lon="18.88162">
        <ele>45.785489</ele>
        <time>2022-05-27T13:19:54.847Z</time>
      </trkpt>
      <trkpt lat="42.27842" lon="18.88171">
        <ele>45.847351</ele>
        <time>2022-05-27T13:19:58.834Z</time>
      </trkpt>
      <trkpt lat="42.27849" lon="18.88179">
        <ele>45.906499</ele>
        <time>2022-05-27T13:20:02.845Z</time>
      </trkpt>
      <trkpt lat="42.27858" lon="18.88188">
        <ele>45.973559</ele>
        <time>2022-05-27T13:20:06.843Z</time>
      </trkpt>
      <trkpt lat="42.27867" lon="18.88195">
        <ele>46.039395</ele>
        <time>2022-05-27T13:20:10.842Z</time>
      </trkpt>
      <trkpt lat="42.27876" lon="18.88197">
        <ele>46.095997</ele>
        <time>2022-05-27T13:20:14.847Z</time>
      </trkpt>
      <trkpt lat="42.27887" lon="18.88197">
        <ele>46.162479</ele>
        <time>2022-05-27T13:20:18.903Z</time>
      </trkpt>
      <trkpt lat="42.27897" lon="18.88194">
        <ele>46.22714</ele>
        <time>2022-05-27T13:20:22.843Z</time>
      </trkpt>
      <trkpt lat="42.27906" lon="18.88189">
        <ele>46.294864</ele>
        <time>2022-05-27T13:20:26.846Z</time>
      </trkpt>
      <trkpt lat="42.27918" lon="18.88191">
        <ele>46.50063</ele>
        <time>2022-05-27T13:20:31.851Z</time>
      </trkpt>
      <trkpt lat="42.27927" lon="18.88191">
        <ele>46.666004</ele>
        <time>2022-05-27T13:20:36.871Z</time>
      </trkpt>
      <trkpt lat="42.27935" lon="18.88181">
        <ele>46.871297</ele>
        <time>2022-05-27T13:20:42.833Z</time>
      </trkpt>
      <trkpt lat="42.27943" lon="18.88172">
        <ele>47.061689</ele>
        <time>2022-05-27T13:20:47.854Z</time>
      </trkpt>
      <trkpt lat="42.27951" lon="18.88163">
        <ele>47.249636</ele>
        <time>2022-05-27T13:20:53.884Z</time>
      </trkpt>
      <trkpt lat="42.27958" lon="18.88152">
        <ele>47.454248</ele>
        <time>2022-05-27T13:20:58.891Z</time>
      </trkpt>
      <trkpt lat="42.27966" lon="18.88143">
        <ele>47.638998</ele>
        <time>2022-05-27T13:21:03.878Z</time>
      </trkpt>
      <trkpt lat="42.27973" lon="18.88134">
        <ele>47.819204</ele>
        <time>2022-05-27T13:21:08.837Z</time>
      </trkpt>
      <trkpt lat="42.2798" lon="18.88125">
        <ele>47.988053</ele>
        <time>2022-05-27T13:21:12.853Z</time>
      </trkpt>
      <trkpt lat="42.27986" lon="18.88117">
        <ele>48.152781</ele>
        <time>2022-05-27T13:21:17.858Z</time>
      </trkpt>
      <trkpt lat="42.27993" lon="18.88109">
        <ele>48.320713</ele>
        <time>2022-05-27T13:21:26.842Z</time>
      </trkpt>
      <trkpt lat="42.28001" lon="18.88101">
        <ele>48.502288</ele>
        <time>2022-05-27T13:21:33.839Z</time>
      </trkpt>
      <trkpt lat="42.28008" lon="18.88093">
        <ele>48.671605</ele>
        <time>2022-05-27T13:21:37.858Z</time>
      </trkpt>
      <trkpt lat="42.28016" lon="18.88086">
        <ele>48.836071</ele>
        <time>2022-05-27T13:21:40.854Z</time>
      </trkpt>
      <trkpt lat="42.28025" lon="18.88076">
        <ele>49.050152</ele>
        <time>2022-05-27T13:21:44.849Z</time>
      </trkpt>
      <trkpt lat="42.28032" lon="18.88066">
        <ele>49.242107</ele>
        <time>2022-05-27T13:21:48.842Z</time>
      </trkpt>
      <trkpt lat="42.28038" lon="18.88054">
        <ele>49.443214</ele>
        <time>2022-05-27T13:21:53.852Z</time>
      </trkpt>
      <trkpt lat="42.28044" lon="18.88041">
        <ele>49.684392</ele>
        <time>2022-05-27T13:21:57.852Z</time>
      </trkpt>
      <trkpt lat="42.28047" lon="18.88029">
        <ele>49.960521</ele>
        <time>2022-05-27T13:22:00.838Z</time>
      </trkpt>
      <trkpt lat="42.28048" lon="18.88017">
        <ele>50.249409</ele>
        <time>2022-05-27T13:22:03.848Z</time>
      </trkpt>
      <trkpt lat="42.28049" lon="18.88001">
        <ele>50.593715</ele>
        <time>2022-05-27T13:22:07.871Z</time>
      </trkpt>
      <trkpt lat="42.2805" lon="18.87986">
        <ele>50.925047</ele>
        <time>2022-05-27T13:22:11.926Z</time>
      </trkpt>
      <trkpt lat="42.28053" lon="18.87973">
        <ele>51.231864</ele>
        <time>2022-05-27T13:22:15.845Z</time>
      </trkpt>
      <trkpt lat="42.28056" lon="18.8796">
        <ele>51.545552</ele>
        <time>2022-05-27T13:22:19.852Z</time>
      </trkpt>
      <trkpt lat="42.28059" lon="18.87948">
        <ele>51.825489</ele>
        <time>2022-05-27T13:22:23.859Z</time>
      </trkpt>
      <trkpt lat="42.28064" lon="18.87935">
        <ele>52.129775</ele>
        <time>2022-05-27T13:22:28.876Z</time>
      </trkpt>
      <trkpt lat="42.28067" lon="18.87921">
        <ele>52.456761</ele>
        <time>2022-05-27T13:22:33.852Z</time>
      </trkpt>
      <trkpt lat="42.2807" lon="18.87907">
        <ele>52.788903</ele>
        <time>2022-05-27T13:22:38.848Z</time>
      </trkpt>
      <trkpt lat="42.28072" lon="18.87894">
        <ele>53.095295</ele>
        <time>2022-05-27T13:22:42.853Z</time>
      </trkpt>
      <trkpt lat="42.28074" lon="18.8788">
        <ele>53.407672</ele>
        <time>2022-05-27T13:22:45.845Z</time>
      </trkpt>
      <trkpt lat="42.28077" lon="18.87868">
        <ele>53.692632</ele>
        <time>2022-05-27T13:22:48.886Z</time>
      </trkpt>
      <trkpt lat="42.2808" lon="18.87856">
        <ele>53.96876</ele>
        <time>2022-05-27T13:22:52.844Z</time>
      </trkpt>
      <trkpt lat="42.28081" lon="18.87841">
        <ele>54.303665</ele>
        <time>2022-05-27T13:22:57.865Z</time>
      </trkpt>
      <trkpt lat="42.2808" lon="18.87827">
        <ele>54.608781</ele>
        <time>2022-05-27T13:23:02.856Z</time>
      </trkpt>
      <trkpt lat="42.28084" lon="18.87816">
        <ele>54.882983</ele>
        <time>2022-05-27T13:23:07.864Z</time>
      </trkpt>
      <trkpt lat="42.28088" lon="18.87804">
        <ele>54.891523</ele>
        <time>2022-05-27T13:23:11.854Z</time>
      </trkpt>
      <trkpt lat="42.28092" lon="18.87789">
        <ele>54.67705</ele>
        <time>2022-05-27T13:23:15.834Z</time>
      </trkpt>
      <trkpt lat="42.28095" lon="18.87776">
        <ele>54.492851</ele>
        <time>2022-05-27T13:23:18.848Z</time>
      </trkpt>
      <trkpt lat="42.28101" lon="18.87763">
        <ele>54.289998</ele>
        <time>2022-05-27T13:23:22.857Z</time>
      </trkpt>
      <trkpt lat="42.28105" lon="18.8775">
        <ele>54.09813</ele>
        <time>2022-05-27T13:23:26.858Z</time>
      </trkpt>
      <trkpt lat="42.2811" lon="18.87737">
        <ele>53.913467</ele>
        <time>2022-05-27T13:23:30.860Z</time>
      </trkpt>
      <trkpt lat="42.28113" lon="18.87724">
        <ele>53.721081</ele>
        <time>2022-05-27T13:23:34.849Z</time>
      </trkpt>
      <trkpt lat="42.28116" lon="18.87711">
        <ele>53.534324</ele>
        <time>2022-05-27T13:23:38.853Z</time>
      </trkpt>
      <trkpt lat="42.28118" lon="18.87698">
        <ele>53.359671</ele>
        <time>2022-05-27T13:23:41.862Z</time>
      </trkpt>
      <trkpt lat="42.28119" lon="18.87686">
        <ele>53.192545</ele>
        <time>2022-05-27T13:23:44.879Z</time>
      </trkpt>
      <trkpt lat="42.28123" lon="18.87671">
        <ele>52.990696</ele>
        <time>2022-05-27T13:23:47.877Z</time>
      </trkpt>
      <trkpt lat="42.28123" lon="18.87656">
        <ele>52.787457</ele>
        <time>2022-05-27T13:23:50.849Z</time>
      </trkpt>
      <trkpt lat="42.28125" lon="18.87643">
        <ele>52.602763</ele>
        <time>2022-05-27T13:23:53.848Z</time>
      </trkpt>
      <trkpt lat="42.28127" lon="18.87629">
        <ele>52.41035</ele>
        <time>2022-05-27T13:23:56.855Z</time>
      </trkpt>
      <trkpt lat="42.28129" lon="18.87616">
        <ele>52.23043</ele>
        <time>2022-05-27T13:23:59.878Z</time>
      </trkpt>
      <trkpt lat="42.28132" lon="18.87603">
        <ele>52.047793</ele>
        <time>2022-05-27T13:24:02.851Z</time>
      </trkpt>
      <trkpt lat="42.28135" lon="18.8759">
        <ele>51.872416</ele>
        <time>2022-05-27T13:24:05.850Z</time>
      </trkpt>
      <trkpt lat="42.28138" lon="18.87575">
        <ele>51.544661</ele>
        <time>2022-05-27T13:24:09.849Z</time>
      </trkpt>
      <trkpt lat="42.28139" lon="18.87562">
        <ele>51.094927</ele>
        <time>2022-05-27T13:24:12.826Z</time>
      </trkpt>
      <trkpt lat="42.28141" lon="18.87549">
        <ele>50.646641</ele>
        <time>2022-05-27T13:24:15.837Z</time>
      </trkpt>
      <trkpt lat="42.28142" lon="18.87534">
        <ele>50.106365</ele>
        <time>2022-05-27T13:24:19.866Z</time>
      </trkpt>
      <trkpt lat="42.28143" lon="18.87518">
        <ele>49.538375</ele>
        <time>2022-05-27T13:24:23.827Z</time>
      </trkpt>
      <trkpt lat="42.28144" lon="18.87505">
        <ele>49.081145</ele>
        <time>2022-05-27T13:24:26.855Z</time>
      </trkpt>
      <trkpt lat="42.28146" lon="18.87491">
        <ele>48.583223</ele>
        <time>2022-05-27T13:24:29.834Z</time>
      </trkpt>
      <trkpt lat="42.28147" lon="18.87478">
        <ele>48.130595</ele>
        <time>2022-05-27T13:24:32.841Z</time>
      </trkpt>
      <trkpt lat="42.28146" lon="18.87465">
        <ele>47.689787</ele>
        <time>2022-05-27T13:24:35.832Z</time>
      </trkpt>
      <trkpt lat="42.28147" lon="18.87453">
        <ele>47.245081</ele>
        <time>2022-05-27T13:24:38.837Z</time>
      </trkpt>
      <trkpt lat="42.28147" lon="18.87437">
        <ele>46.693842</ele>
        <time>2022-05-27T13:24:42.867Z</time>
      </trkpt>
      <trkpt lat="42.28147" lon="18.87425">
        <ele>46.268486</ele>
        <time>2022-05-27T13:24:45.825Z</time>
      </trkpt>
      <trkpt lat="42.28147" lon="18.87412">
        <ele>45.839646</ele>
        <time>2022-05-27T13:24:48.827Z</time>
      </trkpt>
      <trkpt lat="42.28147" lon="18.87397">
        <ele>45.292396</ele>
        <time>2022-05-27T13:24:52.831Z</time>
      </trkpt>
      <trkpt lat="42.28147" lon="18.87381">
        <ele>44.748612</ele>
        <time>2022-05-27T13:24:56.831Z</time>
      </trkpt>
      <trkpt lat="42.28146" lon="18.87366">
        <ele>44.219248</ele>
        <time>2022-05-27T13:25:00.832Z</time>
      </trkpt>
      <trkpt lat="42.28146" lon="18.87353">
        <ele>43.769499</ele>
        <time>2022-05-27T13:25:04.836Z</time>
      </trkpt>
      <trkpt lat="42.28148" lon="18.87339">
        <ele>43.274778</ele>
        <time>2022-05-27T13:25:10.861Z</time>
      </trkpt>
      <trkpt lat="42.28151" lon="18.87305">
        <ele>43.185292</ele>
        <time>2022-05-27T13:25:41.860Z</time>
      </trkpt>
      <trkpt lat="42.28152" lon="18.87292">
        <ele>43.157923</ele>
        <time>2022-05-27T13:25:44.894Z</time>
      </trkpt>
      <trkpt lat="42.28154" lon="18.8728">
        <ele>43.131138</ele>
        <time>2022-05-27T13:25:47.869Z</time>
      </trkpt>
      <trkpt lat="42.28154" lon="18.87264">
        <ele>43.098684</ele>
        <time>2022-05-27T13:25:51.864Z</time>
      </trkpt>
      <trkpt lat="42.28155" lon="18.87249">
        <ele>43.066068</ele>
        <time>2022-05-27T13:25:55.909Z</time>
      </trkpt>
      <trkpt lat="42.28155" lon="18.87234">
        <ele>43.035164</ele>
        <time>2022-05-27T13:25:59.869Z</time>
      </trkpt>
      <trkpt lat="42.28155" lon="18.87219">
        <ele>43.00319</ele>
        <time>2022-05-27T13:26:03.857Z</time>
      </trkpt>
      <trkpt lat="42.28155" lon="18.87205">
        <ele>42.973725</ele>
        <time>2022-05-27T13:26:07.862Z</time>
      </trkpt>
      <trkpt lat="42.28154" lon="18.87192">
        <ele>42.947189</ele>
        <time>2022-05-27T13:26:10.858Z</time>
      </trkpt>
      <trkpt lat="42.28153" lon="18.87178">
        <ele>42.917918</ele>
        <time>2022-05-27T13:26:13.842Z</time>
      </trkpt>
      <trkpt lat="42.28153" lon="18.87165">
        <ele>42.890576</ele>
        <time>2022-05-27T13:26:16.857Z</time>
      </trkpt>
      <trkpt lat="42.28152" lon="18.87153">
        <ele>42.86405</ele>
        <time>2022-05-27T13:26:19.872Z</time>
      </trkpt>
      <trkpt lat="42.28151" lon="18.8714">
        <ele>42.836849</ele>
        <time>2022-05-27T13:26:22.870Z</time>
      </trkpt>
      <trkpt lat="42.28149" lon="18.87128">
        <ele>42.810078</ele>
        <time>2022-05-27T13:26:25.858Z</time>
      </trkpt>
      <trkpt lat="42.28147" lon="18.87113">
        <ele>42.778398</ele>
        <time>2022-05-27T13:26:29.848Z</time>
      </trkpt>
      <trkpt lat="42.28145" lon="18.87098">
        <ele>42.746704</ele>
        <time>2022-05-27T13:26:33.854Z</time>
      </trkpt>
      <trkpt lat="42.28142" lon="18.87083">
        <ele>42.783803</ele>
        <time>2022-05-27T13:26:37.879Z</time>
      </trkpt>
      <trkpt lat="42.28138" lon="18.87069">
        <ele>42.826815</ele>
        <time>2022-05-27T13:26:41.870Z</time>
      </trkpt>
      <trkpt lat="42.28134" lon="18.87055">
        <ele>42.868985</ele>
        <time>2022-05-27T13:26:45.884Z</time>
      </trkpt>
      <trkpt lat="42.2813" lon="18.87044">
        <ele>42.903493</ele>
        <time>2022-05-27T13:26:48.868Z</time>
      </trkpt>
      <trkpt lat="42.28127" lon="18.87033">
        <ele>42.937671</ele>
        <time>2022-05-27T13:26:51.888Z</time>
      </trkpt>
      <trkpt lat="42.28124" lon="18.8702">
        <ele>42.974617</ele>
        <time>2022-05-27T13:26:54.849Z</time>
      </trkpt>
      <trkpt lat="42.28123" lon="18.87007">
        <ele>43.011287</ele>
        <time>2022-05-27T13:26:57.898Z</time>
      </trkpt>
      <trkpt lat="42.28125" lon="18.86992">
        <ele>43.055488</ele>
        <time>2022-05-27T13:27:01.876Z</time>
      </trkpt>
      <trkpt lat="42.28127" lon="18.86977">
        <ele>43.099136</ele>
        <time>2022-05-27T13:27:05.856Z</time>
      </trkpt>
      <trkpt lat="42.28131" lon="18.86963">
        <ele>43.140571</ele>
        <time>2022-05-27T13:27:09.863Z</time>
      </trkpt>
      <trkpt lat="42.28137" lon="18.86951">
        <ele>43.180454</ele>
        <time>2022-05-27T13:27:13.862Z</time>
      </trkpt>
      <trkpt lat="42.28141" lon="18.86938">
        <ele>43.220964</ele>
        <time>2022-05-27T13:27:17.869Z</time>
      </trkpt>
      <trkpt lat="42.28143" lon="18.86924">
        <ele>43.261667</ele>
        <time>2022-05-27T13:27:21.858Z</time>
      </trkpt>
      <trkpt lat="42.28145" lon="18.8691">
        <ele>43.301581</ele>
        <time>2022-05-27T13:27:25.885Z</time>
      </trkpt>
      <trkpt lat="42.28146" lon="18.86896">
        <ele>43.341618</ele>
        <time>2022-05-27T13:27:29.857Z</time>
      </trkpt>
      <trkpt lat="42.28144" lon="18.86883">
        <ele>43.378314</ele>
        <time>2022-05-27T13:27:32.868Z</time>
      </trkpt>
      <trkpt lat="42.28142" lon="18.8687">
        <ele>43.415522</ele>
        <time>2022-05-27T13:27:35.838Z</time>
      </trkpt>
      <trkpt lat="42.2814" lon="18.86856">
        <ele>43.406588</ele>
        <time>2022-05-27T13:27:38.870Z</time>
      </trkpt>
      <trkpt lat="42.28138" lon="18.86843">
        <ele>43.376582</ele>
        <time>2022-05-27T13:27:41.868Z</time>
      </trkpt>
      <trkpt lat="42.28136" lon="18.8683">
        <ele>43.348481</ele>
        <time>2022-05-27T13:27:44.867Z</time>
      </trkpt>
      <trkpt lat="42.28134" lon="18.86815">
        <ele>43.313118</ele>
        <time>2022-05-27T13:27:48.864Z</time>
      </trkpt>
      <trkpt lat="42.28133" lon="18.86801">
        <ele>43.283143</ele>
        <time>2022-05-27T13:27:51.865Z</time>
      </trkpt>
      <trkpt lat="42.28134" lon="18.86787">
        <ele>43.252121</ele>
        <time>2022-05-27T13:27:54.851Z</time>
      </trkpt>
      <trkpt lat="42.28133" lon="18.86773">
        <ele>43.221104</ele>
        <time>2022-05-27T13:27:57.870Z</time>
      </trkpt>
      <trkpt lat="42.28134" lon="18.86759">
        <ele>43.189859</ele>
        <time>2022-05-27T13:28:00.852Z</time>
      </trkpt>
      <trkpt lat="42.28134" lon="18.86744">
        <ele>43.155941</ele>
        <time>2022-05-27T13:28:03.864Z</time>
      </trkpt>
      <trkpt lat="42.28134" lon="18.8673">
        <ele>43.12374</ele>
        <time>2022-05-27T13:28:06.864Z</time>
      </trkpt>
      <trkpt lat="42.28135" lon="18.86716">
        <ele>43.092547</ele>
        <time>2022-05-27T13:28:09.869Z</time>
      </trkpt>
      <trkpt lat="42.28136" lon="18.86701">
        <ele>43.060052</ele>
        <time>2022-05-27T13:28:12.857Z</time>
      </trkpt>
      <trkpt lat="42.28135" lon="18.86687">
        <ele>43.028161</ele>
        <time>2022-05-27T13:28:15.858Z</time>
      </trkpt>
      <trkpt lat="42.28137" lon="18.86675">
        <ele>43.000021</ele>
        <time>2022-05-27T13:28:20.898Z</time>
      </trkpt>
      <trkpt lat="42.28135" lon="18.86662">
        <ele>42.971811</ele>
        <time>2022-05-27T13:28:24.862Z</time>
      </trkpt>
      <trkpt lat="42.28134" lon="18.86647">
        <ele>42.936754</ele>
        <time>2022-05-27T13:28:28.853Z</time>
      </trkpt>
      <trkpt lat="42.28132" lon="18.86632">
        <ele>42.903158</ele>
        <time>2022-05-27T13:28:32.853Z</time>
      </trkpt>
      <trkpt lat="42.28131" lon="18.86619">
        <ele>42.946688</ele>
        <time>2022-05-27T13:28:36.861Z</time>
      </trkpt>
      <trkpt lat="42.28128" lon="18.86606">
        <ele>43.118544</ele>
        <time>2022-05-27T13:28:41.858Z</time>
      </trkpt>
      <trkpt lat="42.28127" lon="18.86593">
        <ele>43.272347</ele>
        <time>2022-05-27T13:28:45.846Z</time>
      </trkpt>
      <trkpt lat="42.28125" lon="18.86579">
        <ele>43.448902</ele>
        <time>2022-05-27T13:28:51.859Z</time>
      </trkpt>
      <trkpt lat="42.28123" lon="18.86565">
        <ele>43.623997</ele>
        <time>2022-05-27T13:28:55.849Z</time>
      </trkpt>
      <trkpt lat="42.28121" lon="18.8655">
        <ele>43.810133</ele>
        <time>2022-05-27T13:28:59.885Z</time>
      </trkpt>
      <trkpt lat="42.28121" lon="18.86537">
        <ele>43.976071</ele>
        <time>2022-05-27T13:29:02.858Z</time>
      </trkpt>
      <trkpt lat="42.28122" lon="18.86525">
        <ele>44.126039</ele>
        <time>2022-05-27T13:29:05.865Z</time>
      </trkpt>
      <trkpt lat="42.2812" lon="18.8651">
        <ele>44.303132</ele>
        <time>2022-05-27T13:29:09.843Z</time>
      </trkpt>
      <trkpt lat="42.28119" lon="18.86494">
        <ele>44.500153</ele>
        <time>2022-05-27T13:29:13.829Z</time>
      </trkpt>
      <trkpt lat="42.28117" lon="18.86481">
        <ele>44.669689</ele>
        <time>2022-05-27T13:29:17.834Z</time>
      </trkpt>
      <trkpt lat="42.28115" lon="18.86468">
        <ele>44.827664</ele>
        <time>2022-05-27T13:29:21.848Z</time>
      </trkpt>
      <trkpt lat="42.28111" lon="18.86456">
        <ele>44.986212</ele>
        <time>2022-05-27T13:29:25.849Z</time>
      </trkpt>
      <trkpt lat="42.28116" lon="18.86446">
        <ele>45.137396</ele>
        <time>2022-05-27T13:29:31.854Z</time>
      </trkpt>
      <trkpt lat="42.28126" lon="18.86444">
        <ele>45.295691</ele>
        <time>2022-05-27T13:29:35.874Z</time>
      </trkpt>
      <trkpt lat="42.28137" lon="18.86443">
        <ele>45.477197</ele>
        <time>2022-05-27T13:29:39.851Z</time>
      </trkpt>
      <trkpt lat="42.28148" lon="18.86445">
        <ele>45.665791</ele>
        <time>2022-05-27T13:29:43.869Z</time>
      </trkpt>
      <trkpt lat="42.28158" lon="18.86449">
        <ele>45.844889</ele>
        <time>2022-05-27T13:29:47.846Z</time>
      </trkpt>
      <trkpt lat="42.28167" lon="18.86454">
        <ele>46.192722</ele>
        <time>2022-05-27T13:29:51.858Z</time>
      </trkpt>
      <trkpt lat="42.28178" lon="18.8646">
        <ele>46.659268</ele>
        <time>2022-05-27T13:29:55.891Z</time>
      </trkpt>
      <trkpt lat="42.28187" lon="18.86464">
        <ele>47.069363</ele>
        <time>2022-05-27T13:29:58.859Z</time>
      </trkpt>
      <trkpt lat="42.28197" lon="18.86467">
        <ele>47.472956</ele>
        <time>2022-05-27T13:30:01.857Z</time>
      </trkpt>
      <trkpt lat="42.28206" lon="18.86469">
        <ele>47.86841</ele>
        <time>2022-05-27T13:30:04.862Z</time>
      </trkpt>
      <trkpt lat="42.28215" lon="18.8647">
        <ele>48.238915</ele>
        <time>2022-05-27T13:30:07.857Z</time>
      </trkpt>
      <trkpt lat="42.28227" lon="18.86472">
        <ele>48.724916</ele>
        <time>2022-05-27T13:30:11.865Z</time>
      </trkpt>
      <trkpt lat="42.28237" lon="18.86472">
        <ele>49.14341</ele>
        <time>2022-05-27T13:30:15.871Z</time>
      </trkpt>
      <trkpt lat="42.28247" lon="18.86471">
        <ele>49.546225</ele>
        <time>2022-05-27T13:30:20.847Z</time>
      </trkpt>
      <trkpt lat="42.28256" lon="18.86467">
        <ele>49.94562</ele>
        <time>2022-05-27T13:30:24.849Z</time>
      </trkpt>
      <trkpt lat="42.28266" lon="18.86461">
        <ele>50.389055</ele>
        <time>2022-05-27T13:30:29.851Z</time>
      </trkpt>
      <trkpt lat="42.28277" lon="18.8646">
        <ele>50.835161</ele>
        <time>2022-05-27T13:30:33.870Z</time>
      </trkpt>
      <trkpt lat="42.28287" lon="18.86458">
        <ele>51.240166</ele>
        <time>2022-05-27T13:30:37.891Z</time>
      </trkpt>
      <trkpt lat="42.28296" lon="18.86454">
        <ele>51.657056</ele>
        <time>2022-05-27T13:30:41.851Z</time>
      </trkpt>
      <trkpt lat="42.28305" lon="18.86448">
        <ele>52.061129</ele>
        <time>2022-05-27T13:30:45.834Z</time>
      </trkpt>
      <trkpt lat="42.28314" lon="18.86443">
        <ele>52.441471</ele>
        <time>2022-05-27T13:30:49.830Z</time>
      </trkpt>
      <trkpt lat="42.28322" lon="18.86437">
        <ele>52.833512</ele>
        <time>2022-05-27T13:30:53.828Z</time>
      </trkpt>
      <trkpt lat="42.28324" lon="18.86422">
        <ele>53.264561</ele>
        <time>2022-05-27T13:30:58.827Z</time>
      </trkpt>
      <trkpt lat="42.28324" lon="18.8641">
        <ele>53.452351</ele>
        <time>2022-05-27T13:31:02.838Z</time>
      </trkpt>
      <trkpt lat="42.28323" lon="18.86394">
        <ele>53.680891</ele>
        <time>2022-05-27T13:31:06.828Z</time>
      </trkpt>
      <trkpt lat="42.28322" lon="18.86381">
        <ele>53.867628</ele>
        <time>2022-05-27T13:31:10.840Z</time>
      </trkpt>
      <trkpt lat="42.28321" lon="18.86369">
        <ele>54.045177</ele>
        <time>2022-05-27T13:31:15.830Z</time>
      </trkpt>
      <trkpt lat="42.28318" lon="18.86355">
        <ele>54.263312</ele>
        <time>2022-05-27T13:31:21.832Z</time>
      </trkpt>
      <trkpt lat="42.28316" lon="18.86342">
        <ele>54.453447</ele>
        <time>2022-05-27T13:31:25.833Z</time>
      </trkpt>
      <trkpt lat="42.28318" lon="18.86328">
        <ele>54.659859</ele>
        <time>2022-05-27T13:31:30.827Z</time>
      </trkpt>
      <trkpt lat="42.28325" lon="18.86319">
        <ele>54.851598</ele>
        <time>2022-05-27T13:31:36.827Z</time>
      </trkpt>
      <trkpt lat="42.28334" lon="18.86318">
        <ele>55.036137</ele>
        <time>2022-05-27T13:31:42.828Z</time>
      </trkpt>
      <trkpt lat="42.28343" lon="18.86315">
        <ele>55.222715</ele>
        <time>2022-05-27T13:31:48.830Z</time>
      </trkpt>
      <trkpt lat="42.28355" lon="18.86312">
        <ele>55.462432</ele>
        <time>2022-05-27T13:31:56.834Z</time>
      </trkpt>
      <trkpt lat="42.28363" lon="18.86306">
        <ele>55.647265</ele>
        <time>2022-05-27T13:32:01.829Z</time>
      </trkpt>
      <trkpt lat="42.28368" lon="18.86294">
        <ele>55.846109</ele>
        <time>2022-05-27T13:32:07.828Z</time>
      </trkpt>
      <trkpt lat="42.28367" lon="18.8628">
        <ele>56.04405</ele>
        <time>2022-05-27T13:32:12.828Z</time>
      </trkpt>
      <trkpt lat="42.28368" lon="18.86268">
        <ele>56.224785</ele>
        <time>2022-05-27T13:32:17.832Z</time>
      </trkpt>
      <trkpt lat="42.28368" lon="18.86256">
        <ele>56.40362</ele>
        <time>2022-05-27T13:32:22.836Z</time>
      </trkpt>
      <trkpt lat="42.28369" lon="18.86241">
        <ele>56.618993</ele>
        <time>2022-05-27T13:32:28.828Z</time>
      </trkpt>
      <trkpt lat="42.28369" lon="18.86229">
        <ele>56.799727</ele>
        <time>2022-05-27T13:32:33.825Z</time>
      </trkpt>
      <trkpt lat="42.2837" lon="18.86216">
        <ele>57.244519</ele>
        <time>2022-05-27T13:32:39.829Z</time>
      </trkpt>
      <trkpt lat="42.2837" lon="18.86203">
        <ele>57.701492</ele>
        <time>2022-05-27T13:32:44.830Z</time>
      </trkpt>
      <trkpt lat="42.2837" lon="18.8619">
        <ele>58.158642</ele>
        <time>2022-05-27T13:32:49.832Z</time>
      </trkpt>
      <trkpt lat="42.28371" lon="18.86178">
        <ele>58.601343</ele>
        <time>2022-05-27T13:32:55.829Z</time>
      </trkpt>
      <trkpt lat="42.28372" lon="18.86165">
        <ele>59.050976</ele>
        <time>2022-05-27T13:33:01.833Z</time>
      </trkpt>
      <trkpt lat="42.28371" lon="18.86152">
        <ele>59.529153</ele>
        <time>2022-05-27T13:33:07.832Z</time>
      </trkpt>
      <trkpt lat="42.28371" lon="18.86138">
        <ele>60.032862</ele>
        <time>2022-05-27T13:33:13.824Z</time>
      </trkpt>
      <trkpt lat="42.28369" lon="18.86126">
        <ele>60.475271</ele>
        <time>2022-05-27T13:33:18.828Z</time>
      </trkpt>
      <trkpt lat="42.28367" lon="18.86113">
        <ele>60.936086</ele>
        <time>2022-05-27T13:33:23.837Z</time>
      </trkpt>
      <trkpt lat="42.28363" lon="18.861">
        <ele>61.436441</ele>
        <time>2022-05-27T13:33:29.825Z</time>
      </trkpt>
      <trkpt lat="42.28358" lon="18.86088">
        <ele>61.926077</ele>
        <time>2022-05-27T13:33:35.831Z</time>
      </trkpt>
      <trkpt lat="42.28353" lon="18.86076">
        <ele>62.41815</ele>
        <time>2022-05-27T13:33:41.828Z</time>
      </trkpt>
      <trkpt lat="42.28347" lon="18.86066">
        <ele>62.871566</ele>
        <time>2022-05-27T13:33:47.852Z</time>
      </trkpt>
      <trkpt lat="42.2834" lon="18.86055">
        <ele>63.389309</ele>
        <time>2022-05-27T13:33:53.865Z</time>
      </trkpt>
      <trkpt lat="42.28333" lon="18.86046">
        <ele>63.862719</ele>
        <time>2022-05-27T13:33:58.828Z</time>
      </trkpt>
      <trkpt lat="42.28325" lon="18.86037">
        <ele>64.363951</ele>
        <time>2022-05-27T13:34:04.835Z</time>
      </trkpt>
      <trkpt lat="42.28318" lon="18.86029">
        <ele>64.796427</ele>
        <time>2022-05-27T13:34:09.831Z</time>
      </trkpt>
      <trkpt lat="42.28311" lon="18.86021">
        <ele>65.251242</ele>
        <time>2022-05-27T13:34:14.836Z</time>
      </trkpt>
      <trkpt lat="42.28303" lon="18.86013">
        <ele>65.630608</ele>
        <time>2022-05-27T13:34:20.842Z</time>
      </trkpt>
      <trkpt lat="42.28296" lon="18.86005">
        <ele>65.869335</ele>
        <time>2022-05-27T13:34:25.830Z</time>
      </trkpt>
      <trkpt lat="42.28288" lon="18.85996">
        <ele>66.131736</ele>
        <time>2022-05-27T13:34:31.827Z</time>
      </trkpt>
      <trkpt lat="42.2828" lon="18.85987">
        <ele>66.404254</ele>
        <time>2022-05-27T13:34:37.836Z</time>
      </trkpt>
      <trkpt lat="42.28274" lon="18.85977">
        <ele>66.650636</ele>
        <time>2022-05-27T13:34:42.832Z</time>
      </trkpt>
      <trkpt lat="42.28268" lon="18.85966">
        <ele>66.89641</ele>
        <time>2022-05-27T13:34:48.829Z</time>
      </trkpt>
      <trkpt lat="42.28262" lon="18.85955">
        <ele>67.16107</ele>
        <time>2022-05-27T13:34:54.825Z</time>
      </trkpt>
      <trkpt lat="42.28259" lon="18.85943">
        <ele>67.409274</ele>
        <time>2022-05-27T13:35:00.829Z</time>
      </trkpt>
      <trkpt lat="42.28256" lon="18.85928">
        <ele>67.696212</ele>
        <time>2022-05-27T13:35:06.826Z</time>
      </trkpt>
      <trkpt lat="42.28255" lon="18.85914">
        <ele>67.974472</ele>
        <time>2022-05-27T13:35:11.841Z</time>
      </trkpt>
      <trkpt lat="42.28256" lon="18.859">
        <ele>68.229441</ele>
        <time>2022-05-27T13:35:16.831Z</time>
      </trkpt>
      <trkpt lat="42.28258" lon="18.85888">
        <ele>68.475675</ele>
        <time>2022-05-27T13:35:21.831Z</time>
      </trkpt>
      <trkpt lat="42.28262" lon="18.85873">
        <ele>68.768713</ele>
        <time>2022-05-27T13:35:26.833Z</time>
      </trkpt>
      <trkpt lat="42.28266" lon="18.85862">
        <ele>69.006348</ele>
        <time>2022-05-27T13:35:30.841Z</time>
      </trkpt>
      <trkpt lat="42.28272" lon="18.85851">
        <ele>69.260384</ele>
        <time>2022-05-27T13:35:34.844Z</time>
      </trkpt>
      <trkpt lat="42.28277" lon="18.85838">
        <ele>69.539406</ele>
        <time>2022-05-27T13:35:38.843Z</time>
      </trkpt>
      <trkpt lat="42.28281" lon="18.85826">
        <ele>69.795896</ele>
        <time>2022-05-27T13:35:42.833Z</time>
      </trkpt>
      <trkpt lat="42.28287" lon="18.85813">
        <ele>70.088227</ele>
        <time>2022-05-27T13:35:46.827Z</time>
      </trkpt>
      <trkpt lat="42.28293" lon="18.85801">
        <ele>70.262121</ele>
        <time>2022-05-27T13:35:49.826Z</time>
      </trkpt>
      <trkpt lat="42.283" lon="18.85787">
        <ele>70.451236</ele>
        <time>2022-05-27T13:35:52.842Z</time>
      </trkpt>
      <trkpt lat="42.28304" lon="18.85776">
        <ele>70.584551</ele>
        <time>2022-05-27T13:35:54.842Z</time>
      </trkpt>
      <trkpt lat="42.28312" lon="18.85761">
        <ele>70.776969</ele>
        <time>2022-05-27T13:35:57.832Z</time>
      </trkpt>
      <trkpt lat="42.28321" lon="18.85749">
        <ele>70.966074</ele>
        <time>2022-05-27T13:36:00.841Z</time>
      </trkpt>
      <trkpt lat="42.28331" lon="18.85743">
        <ele>71.136184</ele>
        <time>2022-05-27T13:36:03.825Z</time>
      </trkpt>
      <trkpt lat="42.28339" lon="18.8573">
        <ele>71.312879</ele>
        <time>2022-05-27T13:36:06.838Z</time>
      </trkpt>
      <trkpt lat="42.28342" lon="18.85716">
        <ele>71.474131</ele>
        <time>2022-05-27T13:36:08.845Z</time>
      </trkpt>
      <trkpt lat="42.28346" lon="18.85702">
        <ele>71.634125</ele>
        <time>2022-05-27T13:36:10.829Z</time>
      </trkpt>
      <trkpt lat="42.28352" lon="18.85689">
        <ele>71.802254</ele>
        <time>2022-05-27T13:36:12.827Z</time>
      </trkpt>
      <trkpt lat="42.28359" lon="18.85676">
        <ele>71.974423</ele>
        <time>2022-05-27T13:36:14.839Z</time>
      </trkpt>
      <trkpt lat="42.28367" lon="18.85666">
        <ele>72.134822</ele>
        <time>2022-05-27T13:36:16.832Z</time>
      </trkpt>
      <trkpt lat="42.28376" lon="18.85655">
        <ele>72.313031</ele>
        <time>2022-05-27T13:36:18.835Z</time>
      </trkpt>
      <trkpt lat="42.28386" lon="18.85643">
        <ele>72.514106</ele>
        <time>2022-05-27T13:36:20.833Z</time>
      </trkpt>
      <trkpt lat="42.28397" lon="18.85629">
        <ele>72.734828</ele>
        <time>2022-05-27T13:36:22.840Z</time>
      </trkpt>
      <trkpt lat="42.28409" lon="18.85615">
        <ele>72.296705</ele>
        <time>2022-05-27T13:36:24.829Z</time>
      </trkpt>
      <trkpt lat="42.28422" lon="18.85602">
        <ele>71.678012</ele>
        <time>2022-05-27T13:36:26.837Z</time>
      </trkpt>
      <trkpt lat="42.28434" lon="18.85587">
        <ele>71.046913</ele>
        <time>2022-05-27T13:36:28.838Z</time>
      </trkpt>
      <trkpt lat="42.28446" lon="18.85571">
        <ele>70.410922</ele>
        <time>2022-05-27T13:36:30.848Z</time>
      </trkpt>
      <trkpt lat="42.28458" lon="18.85555">
        <ele>69.756486</ele>
        <time>2022-05-27T13:36:32.841Z</time>
      </trkpt>
      <trkpt lat="42.2847" lon="18.85538">
        <ele>69.089209</ele>
        <time>2022-05-27T13:36:34.828Z</time>
      </trkpt>
      <trkpt lat="42.28482" lon="18.85521">
        <ele>68.439524</ele>
        <time>2022-05-27T13:36:36.834Z</time>
      </trkpt>
      <trkpt lat="42.28493" lon="18.85505">
        <ele>67.815774</ele>
        <time>2022-05-27T13:36:38.826Z</time>
      </trkpt>
      <trkpt lat="42.28505" lon="18.85489">
        <ele>67.17543</ele>
        <time>2022-05-27T13:36:40.830Z</time>
      </trkpt>
      <trkpt lat="42.28519" lon="18.85473">
        <ele>66.478908</ele>
        <time>2022-05-27T13:36:42.829Z</time>
      </trkpt>
      <trkpt lat="42.28526" lon="18.85464">
        <ele>66.10792</ele>
        <time>2022-05-27T13:36:43.823Z</time>
      </trkpt>
      <trkpt lat="42.28534" lon="18.85457">
        <ele>65.58187</ele>
        <time>2022-05-27T13:36:44.827Z</time>
      </trkpt>
      <trkpt lat="42.28542" lon="18.85449">
        <ele>64.932411</ele>
        <time>2022-05-27T13:36:45.824Z</time>
      </trkpt>
      <trkpt lat="42.28551" lon="18.85442">
        <ele>64.209612</ele>
        <time>2022-05-27T13:36:46.843Z</time>
      </trkpt>
      <trkpt lat="42.2856" lon="18.85435">
        <ele>63.539644</ele>
        <time>2022-05-27T13:36:47.827Z</time>
      </trkpt>
      <trkpt lat="42.28575" lon="18.85423">
        <ele>62.382437</ele>
        <time>2022-05-27T13:36:49.828Z</time>
      </trkpt>
      <trkpt lat="42.28589" lon="18.8541">
        <ele>61.245788</ele>
        <time>2022-05-27T13:36:51.828Z</time>
      </trkpt>
      <trkpt lat="42.286" lon="18.85398">
        <ele>60.260172</ele>
        <time>2022-05-27T13:36:53.831Z</time>
      </trkpt>
      <trkpt lat="42.28612" lon="18.85385">
        <ele>59.228385</ele>
        <time>2022-05-27T13:36:55.831Z</time>
      </trkpt>
      <trkpt lat="42.28624" lon="18.85369">
        <ele>58.085267</ele>
        <time>2022-05-27T13:36:57.836Z</time>
      </trkpt>
      <trkpt lat="42.28635" lon="18.85353">
        <ele>57.01449</ele>
        <time>2022-05-27T13:36:59.845Z</time>
      </trkpt>
      <trkpt lat="42.28644" lon="18.85337">
        <ele>55.989675</ele>
        <time>2022-05-27T13:37:01.834Z</time>
      </trkpt>
      <trkpt lat="42.28652" lon="18.85319">
        <ele>54.92274</ele>
        <time>2022-05-27T13:37:03.844Z</time>
      </trkpt>
      <trkpt lat="42.28659" lon="18.85301">
        <ele>53.932651</ele>
        <time>2022-05-27T13:37:05.833Z</time>
      </trkpt>
      <trkpt lat="42.28665" lon="18.85286">
        <ele>53.289956</ele>
        <time>2022-05-27T13:37:07.837Z</time>
      </trkpt>
      <trkpt lat="42.28672" lon="18.85273">
        <ele>52.78792</ele>
        <time>2022-05-27T13:37:09.836Z</time>
      </trkpt>
      <trkpt lat="42.28677" lon="18.85263">
        <ele>52.37711</ele>
        <time>2022-05-27T13:37:11.830Z</time>
      </trkpt>
      <trkpt lat="42.28683" lon="18.85248">
        <ele>51.790975</ele>
        <time>2022-05-27T13:37:14.842Z</time>
      </trkpt>
      <trkpt lat="42.28689" lon="18.85233">
        <ele>51.232064</ele>
        <time>2022-05-27T13:37:17.829Z</time>
      </trkpt>
      <trkpt lat="42.28694" lon="18.85222">
        <ele>50.794781</ele>
        <time>2022-05-27T13:37:19.831Z</time>
      </trkpt>
      <trkpt lat="42.28697" lon="18.85207">
        <ele>50.27287</ele>
        <time>2022-05-27T13:37:21.828Z</time>
      </trkpt>
      <trkpt lat="42.28692" lon="18.85196">
        <ele>49.837169</ele>
        <time>2022-05-27T13:37:24.832Z</time>
      </trkpt>
      <trkpt lat="42.28682" lon="18.8519">
        <ele>49.339079</ele>
        <time>2022-05-27T13:37:27.895Z</time>
      </trkpt>
      <trkpt lat="42.28671" lon="18.85191">
        <ele>48.831784</ele>
        <time>2022-05-27T13:37:29.833Z</time>
      </trkpt>
      <trkpt lat="42.28661" lon="18.85193">
        <ele>48.363513</ele>
        <time>2022-05-27T13:37:31.830Z</time>
      </trkpt>
      <trkpt lat="42.28652" lon="18.85194">
        <ele>47.949806</ele>
        <time>2022-05-27T13:37:33.849Z</time>
      </trkpt>
      <trkpt lat="42.28639" lon="18.85196">
        <ele>47.37318</ele>
        <time>2022-05-27T13:37:36.827Z</time>
      </trkpt>
      <trkpt lat="42.28627" lon="18.85198">
        <ele>46.834405</ele>
        <time>2022-05-27T13:37:39.835Z</time>
      </trkpt>
      <trkpt lat="42.28619" lon="18.85187">
        <ele>46.312177</ele>
        <time>2022-05-27T13:37:42.826Z</time>
      </trkpt>
      <trkpt lat="42.28614" lon="18.85175">
        <ele>45.859674</ele>
        <time>2022-05-27T13:37:45.831Z</time>
      </trkpt>
      <trkpt lat="42.2861" lon="18.85163">
        <ele>45.672711</ele>
        <time>2022-05-27T13:37:48.845Z</time>
      </trkpt>
      <trkpt lat="42.28605" lon="18.8515">
        <ele>45.735384</ele>
        <time>2022-05-27T13:37:51.830Z</time>
      </trkpt>
      <trkpt lat="42.28601" lon="18.85135">
        <ele>45.801123</ele>
        <time>2022-05-27T13:37:54.827Z</time>
      </trkpt>
      <trkpt lat="42.28596" lon="18.85121">
        <ele>45.866074</ele>
        <time>2022-05-27T13:37:57.843Z</time>
      </trkpt>
      <trkpt lat="42.28592" lon="18.85109">
        <ele>45.923751</ele>
        <time>2022-05-27T13:38:00.833Z</time>
      </trkpt>
      <trkpt lat="42.28587" lon="18.85095">
        <ele>45.988839</ele>
        <time>2022-05-27T13:38:03.832Z</time>
      </trkpt>
      <trkpt lat="42.28582" lon="18.85079">
        <ele>46.064606</ele>
        <time>2022-05-27T13:38:06.839Z</time>
      </trkpt>
      <trkpt lat="42.28576" lon="18.85064">
        <ele>46.137562</ele>
        <time>2022-05-27T13:38:09.829Z</time>
      </trkpt>
      <trkpt lat="42.28569" lon="18.85051">
        <ele>46.206384</ele>
        <time>2022-05-27T13:38:12.827Z</time>
      </trkpt>
      <trkpt lat="42.2856" lon="18.85037">
        <ele>46.282207</ele>
        <time>2022-05-27T13:38:15.832Z</time>
      </trkpt>
      <trkpt lat="42.28558" lon="18.85021">
        <ele>46.353191</ele>
        <time>2022-05-27T13:38:18.842Z</time>
      </trkpt>
      <trkpt lat="42.28554" lon="18.85005">
        <ele>46.422957</ele>
        <time>2022-05-27T13:38:21.831Z</time>
      </trkpt>
      <trkpt lat="42.2855" lon="18.84993">
        <ele>46.480568</ele>
        <time>2022-05-27T13:38:24.845Z</time>
      </trkpt>
      <trkpt lat="42.28547" lon="18.84981">
        <ele>46.534597</ele>
        <time>2022-05-27T13:38:27.832Z</time>
      </trkpt>
      <trkpt lat="42.28543" lon="18.84967">
        <ele>46.601303</ele>
        <time>2022-05-27T13:38:30.836Z</time>
      </trkpt>
      <trkpt lat="42.28542" lon="18.84949">
        <ele>46.676367</ele>
        <time>2022-05-27T13:38:33.827Z</time>
      </trkpt>
      <trkpt lat="42.28543" lon="18.84936">
        <ele>46.698078</ele>
        <time>2022-05-27T13:38:35.826Z</time>
      </trkpt>
      <trkpt lat="42.28544" lon="18.84924">
        <ele>46.716728</ele>
        <time>2022-05-27T13:38:37.841Z</time>
      </trkpt>
      <trkpt lat="42.28544" lon="18.84906">
        <ele>46.743505</ele>
        <time>2022-05-27T13:38:40.834Z</time>
      </trkpt>
      <trkpt lat="42.28545" lon="18.8489">
        <ele>46.767967</ele>
        <time>2022-05-27T13:38:43.827Z</time>
      </trkpt>
      <trkpt lat="42.28546" lon="18.84873">
        <ele>46.793977</ele>
        <time>2022-05-27T13:38:46.825Z</time>
      </trkpt>
      <trkpt lat="42.28546" lon="18.84861">
        <ele>46.812475</ele>
        <time>2022-05-27T13:38:48.832Z</time>
      </trkpt>
      <trkpt lat="42.28547" lon="18.84844">
        <ele>46.838123</ele>
        <time>2022-05-27T13:38:51.833Z</time>
      </trkpt>
      <trkpt lat="42.28549" lon="18.84827">
        <ele>46.863638</ele>
        <time>2022-05-27T13:38:54.824Z</time>
      </trkpt>
      <trkpt lat="42.2855" lon="18.84811">
        <ele>46.887444</ele>
        <time>2022-05-27T13:38:57.839Z</time>
      </trkpt>
      <trkpt lat="42.28551" lon="18.84794">
        <ele>46.913074</ele>
        <time>2022-05-27T13:39:00.831Z</time>
      </trkpt>
      <trkpt lat="42.28551" lon="18.84777">
        <ele>46.939096</ele>
        <time>2022-05-27T13:39:03.830Z</time>
      </trkpt>
      <trkpt lat="42.28551" lon="18.84765">
        <ele>46.957695</ele>
        <time>2022-05-27T13:39:05.831Z</time>
      </trkpt>
      <trkpt lat="42.2855" lon="18.84747">
        <ele>46.984472</ele>
        <time>2022-05-27T13:39:08.842Z</time>
      </trkpt>
      <trkpt lat="42.28549" lon="18.84729">
        <ele>47.011609</ele>
        <time>2022-05-27T13:39:11.832Z</time>
      </trkpt>
      <trkpt lat="42.28547" lon="18.84711">
        <ele>47.038947</ele>
        <time>2022-05-27T13:39:14.838Z</time>
      </trkpt>
      <trkpt lat="42.28546" lon="18.84694">
        <ele>47.084699</ele>
        <time>2022-05-27T13:39:17.832Z</time>
      </trkpt>
      <trkpt lat="42.28545" lon="18.84677">
        <ele>47.140561</ele>
        <time>2022-05-27T13:39:20.829Z</time>
      </trkpt>
      <trkpt lat="42.28543" lon="18.84661">
        <ele>47.194662</ele>
        <time>2022-05-27T13:39:23.838Z</time>
      </trkpt>
      <trkpt lat="42.28542" lon="18.84645">
        <ele>47.246334</ele>
        <time>2022-05-27T13:39:26.829Z</time>
      </trkpt>
      <trkpt lat="42.28541" lon="18.84631">
        <ele>47.290652</ele>
        <time>2022-05-27T13:39:29.833Z</time>
      </trkpt>
      <trkpt lat="42.28539" lon="18.84615">
        <ele>47.342059</ele>
        <time>2022-05-27T13:39:32.834Z</time>
      </trkpt>
      <trkpt lat="42.28536" lon="18.84602">
        <ele>47.386563</ele>
        <time>2022-05-27T13:39:35.841Z</time>
      </trkpt>
      <trkpt lat="42.28533" lon="18.84587">
        <ele>47.437043</ele>
        <time>2022-05-27T13:39:39.831Z</time>
      </trkpt>
      <trkpt lat="42.2853" lon="18.84573">
        <ele>47.484594</ele>
        <time>2022-05-27T13:39:43.827Z</time>
      </trkpt>
      <trkpt lat="42.28528" lon="18.84559">
        <ele>47.529624</ele>
        <time>2022-05-27T13:39:46.826Z</time>
      </trkpt>
      <trkpt lat="42.28525" lon="18.84546">
        <ele>47.574762</ele>
        <time>2022-05-27T13:39:49.830Z</time>
      </trkpt>
      <trkpt lat="42.28523" lon="18.84532">
        <ele>47.621936</ele>
        <time>2022-05-27T13:39:52.833Z</time>
      </trkpt>
      <trkpt lat="42.28522" lon="18.84519">
        <ele>47.663302</ele>
        <time>2022-05-27T13:39:55.829Z</time>
      </trkpt>
      <trkpt lat="42.2852" lon="18.84507">
        <ele>47.704594</ele>
        <time>2022-05-27T13:39:58.827Z</time>
      </trkpt>
      <trkpt lat="42.28518" lon="18.84492">
        <ele>47.752991</ele>
        <time>2022-05-27T13:40:01.829Z</time>
      </trkpt>
      <trkpt lat="42.28515" lon="18.84476">
        <ele>47.807027</ele>
        <time>2022-05-27T13:40:04.834Z</time>
      </trkpt>
      <trkpt lat="42.28512" lon="18.84458">
        <ele>47.738595</ele>
        <time>2022-05-27T13:40:07.837Z</time>
      </trkpt>
      <trkpt lat="42.2851" lon="18.84446">
        <ele>47.611336</ele>
        <time>2022-05-27T13:40:09.828Z</time>
      </trkpt>
      <trkpt lat="42.28507" lon="18.84434">
        <ele>47.478383</ele>
        <time>2022-05-27T13:40:11.837Z</time>
      </trkpt>
      <trkpt lat="42.28505" lon="18.84422">
        <ele>47.350351</ele>
        <time>2022-05-27T13:40:13.831Z</time>
      </trkpt>
      <trkpt lat="42.28502" lon="18.84404">
        <ele>47.168022</ele>
        <time>2022-05-27T13:40:16.827Z</time>
      </trkpt>
      <trkpt lat="42.285" lon="18.84388">
        <ele>47.001499</ele>
        <time>2022-05-27T13:40:19.832Z</time>
      </trkpt>
      <trkpt lat="42.28497" lon="18.84371">
        <ele>46.817226</ele>
        <time>2022-05-27T13:40:22.841Z</time>
      </trkpt>
      <trkpt lat="42.28494" lon="18.84354">
        <ele>46.640895</ele>
        <time>2022-05-27T13:40:25.832Z</time>
      </trkpt>
      <trkpt lat="42.28492" lon="18.84338">
        <ele>46.477773</ele>
        <time>2022-05-27T13:40:28.826Z</time>
      </trkpt>
      <trkpt lat="42.2849" lon="18.84324">
        <ele>46.334525</ele>
        <time>2022-05-27T13:40:31.830Z</time>
      </trkpt>
      <trkpt lat="42.28487" lon="18.84311">
        <ele>46.188811</ele>
        <time>2022-05-27T13:40:34.828Z</time>
      </trkpt>
      <trkpt lat="42.28484" lon="18.84298">
        <ele>46.052719</ele>
        <time>2022-05-27T13:40:37.829Z</time>
      </trkpt>
      <trkpt lat="42.28481" lon="18.84286">
        <ele>45.917786</ele>
        <time>2022-05-27T13:40:40.840Z</time>
      </trkpt>
      <trkpt lat="42.28479" lon="18.84272">
        <ele>45.768328</ele>
        <time>2022-05-27T13:40:44.833Z</time>
      </trkpt>
      <trkpt lat="42.28476" lon="18.84257">
        <ele>45.615879</ele>
        <time>2022-05-27T13:40:48.829Z</time>
      </trkpt>
      <trkpt lat="42.28474" lon="18.84242">
        <ele>45.456442</ele>
        <time>2022-05-27T13:40:52.846Z</time>
      </trkpt>
      <trkpt lat="42.28471" lon="18.84228">
        <ele>45.405254</ele>
        <time>2022-05-27T13:40:55.837Z</time>
      </trkpt>
      <trkpt lat="42.28469" lon="18.84214">
        <ele>45.659756</ele>
        <time>2022-05-27T13:40:58.842Z</time>
      </trkpt>
      <trkpt lat="42.28465" lon="18.84198">
        <ele>45.957695</ele>
        <time>2022-05-27T13:41:01.830Z</time>
      </trkpt>
      <trkpt lat="42.28462" lon="18.84183">
        <ele>46.247825</ele>
        <time>2022-05-27T13:41:04.830Z</time>
      </trkpt>
      <trkpt lat="42.28456" lon="18.84166">
        <ele>46.575875</ele>
        <time>2022-05-27T13:41:07.859Z</time>
      </trkpt>
      <trkpt lat="42.28453" lon="18.84154">
        <ele>46.793785</ele>
        <time>2022-05-27T13:41:09.825Z</time>
      </trkpt>
      <trkpt lat="42.28448" lon="18.84137">
        <ele>47.119851</ele>
        <time>2022-05-27T13:41:12.837Z</time>
      </trkpt>
      <trkpt lat="42.28443" lon="18.84121">
        <ele>47.432853</ele>
        <time>2022-05-27T13:41:15.825Z</time>
      </trkpt>
      <trkpt lat="42.28438" lon="18.84107">
        <ele>47.713914</ele>
        <time>2022-05-27T13:41:18.826Z</time>
      </trkpt>
      <trkpt lat="42.28432" lon="18.84093">
        <ele>48.000316</ele>
        <time>2022-05-27T13:41:22.836Z</time>
      </trkpt>
      <trkpt lat="42.28428" lon="18.8408">
        <ele>48.261831</ele>
        <time>2022-05-27T13:41:26.830Z</time>
      </trkpt>
      <trkpt lat="42.28423" lon="18.84065">
        <ele>48.564316</ele>
        <time>2022-05-27T13:41:29.824Z</time>
      </trkpt>
      <trkpt lat="42.28417" lon="18.84051">
        <ele>48.841096</ele>
        <time>2022-05-27T13:41:32.837Z</time>
      </trkpt>
      <trkpt lat="42.28412" lon="18.8404">
        <ele>49.073851</ele>
        <time>2022-05-27T13:41:35.829Z</time>
      </trkpt>
      <trkpt lat="42.28407" lon="18.84027">
        <ele>49.334601</ele>
        <time>2022-05-27T13:41:39.826Z</time>
      </trkpt>
      <trkpt lat="42.28402" lon="18.84016">
        <ele>49.562549</ele>
        <time>2022-05-27T13:41:43.850Z</time>
      </trkpt>
      <trkpt lat="42.28396" lon="18.84003">
        <ele>49.689897</ele>
        <time>2022-05-27T13:41:47.829Z</time>
      </trkpt>
      <trkpt lat="42.28389" lon="18.83992">
        <ele>49.689897</ele>
        <time>2022-05-27T13:41:50.832Z</time>
      </trkpt>
      <trkpt lat="42.28381" lon="18.83978">
        <ele>49.689897</ele>
        <time>2022-05-27T13:41:53.828Z</time>
      </trkpt>
      <trkpt lat="42.28375" lon="18.83968">
        <ele>49.689897</ele>
        <time>2022-05-27T13:41:55.834Z</time>
      </trkpt>
      <trkpt lat="42.28368" lon="18.83957">
        <ele>49.689897</ele>
        <time>2022-05-27T13:41:57.838Z</time>
      </trkpt>
      <trkpt lat="42.28362" lon="18.83946">
        <ele>49.689897</ele>
        <time>2022-05-27T13:41:59.832Z</time>
      </trkpt>
      <trkpt lat="42.28356" lon="18.83932">
        <ele>49.689897</ele>
        <time>2022-05-27T13:42:02.836Z</time>
      </trkpt>
      <trkpt lat="42.2835" lon="18.83923">
        <ele>49.689897</ele>
        <time>2022-05-27T13:42:05.832Z</time>
      </trkpt>
      <trkpt lat="42.28341" lon="18.83912">
        <ele>49.689897</ele>
        <time>2022-05-27T13:42:08.826Z</time>
      </trkpt>
      <trkpt lat="42.28335" lon="18.83903">
        <ele>49.689897</ele>
        <time>2022-05-27T13:42:11.833Z</time>
      </trkpt>
      <trkpt lat="42.28326" lon="18.83894">
        <ele>49.689897</ele>
        <time>2022-05-27T13:42:15.832Z</time>
      </trkpt>
      <trkpt lat="42.28317" lon="18.83886">
        <ele>49.689897</ele>
        <time>2022-05-27T13:42:19.845Z</time>
      </trkpt>
      <trkpt lat="42.28308" lon="18.83876">
        <ele>49.689897</ele>
        <time>2022-05-27T13:42:23.830Z</time>
      </trkpt>
      <trkpt lat="42.283" lon="18.83868">
        <ele>49.689897</ele>
        <time>2022-05-27T13:42:26.848Z</time>
      </trkpt>
      <trkpt lat="42.28292" lon="18.83859">
        <ele>49.689897</ele>
        <time>2022-05-27T13:42:29.877Z</time>
      </trkpt>
      <trkpt lat="42.28285" lon="18.83851">
        <ele>49.689897</ele>
        <time>2022-05-27T13:42:32.831Z</time>
      </trkpt>
      <trkpt lat="42.28278" lon="18.83842">
        <ele>49.689897</ele>
        <time>2022-05-27T13:42:35.830Z</time>
      </trkpt>
      <trkpt lat="42.2827" lon="18.83833">
        <ele>49.689897</ele>
        <time>2022-05-27T13:42:38.832Z</time>
      </trkpt>
      <trkpt lat="42.28262" lon="18.83824">
        <ele>49.689897</ele>
        <time>2022-05-27T13:42:42.837Z</time>
      </trkpt>
      <trkpt lat="42.28269" lon="18.83815">
        <ele>49.689897</ele>
        <time>2022-05-27T13:43:00.835Z</time>
      </trkpt>
      <trkpt lat="42.28279" lon="18.83813">
        <ele>49.689897</ele>
        <time>2022-05-27T13:43:06.831Z</time>
      </trkpt>
      <trkpt lat="42.28281" lon="18.83788">
        <ele>49.689897</ele>
        <time>2022-05-27T13:44:22.050Z</time>
      </trkpt>
    </trkseg>
  </trk>
  <trk>
    <name><![CDATA[Tour d'Europe: étape 697]]></name>
    <extensions>
      <line xmlns="http://www.topografix.com/GPX/gpx_style/0/2">
        <color>008800</color>
        <width>4</width>
      </line>
    </extensions>
    <trkseg>
      <trkpt lat="42.06437" lon="19.50834">
        <ele>63.15614</ele>
        <time>2022-05-26T07:51:39.243Z</time>
      </trkpt>
      <trkpt lat="42.06452" lon="19.50853">
        <ele>63.15614</ele>
        <time>2022-05-26T07:52:08.233Z</time>
      </trkpt>
      <trkpt lat="42.06468" lon="19.50903">
        <ele>63.15614</ele>
        <time>2022-05-26T07:56:50.252Z</time>
      </trkpt>
      <trkpt lat="42.06479" lon="19.50908">
        <ele>63.15614</ele>
        <time>2022-05-26T07:56:53.243Z</time>
      </trkpt>
      <trkpt lat="42.06488" lon="19.50901">
        <ele>63.15614</ele>
        <time>2022-05-26T07:56:56.231Z</time>
      </trkpt>
      <trkpt lat="42.06495" lon="19.50893">
        <ele>63.170121</ele>
        <time>2022-05-26T07:56:59.215Z</time>
      </trkpt>
      <trkpt lat="42.06499" lon="19.5088">
        <ele>63.252676</ele>
        <time>2022-05-26T07:57:02.224Z</time>
      </trkpt>
      <trkpt lat="42.06497" lon="19.50865">
        <ele>63.337382</ele>
        <time>2022-05-26T07:57:05.233Z</time>
      </trkpt>
      <trkpt lat="42.06489" lon="19.50858">
        <ele>63.411127</ele>
        <time>2022-05-26T07:57:08.338Z</time>
      </trkpt>
      <trkpt lat="42.0648" lon="19.50852">
        <ele>63.49446</ele>
        <time>2022-05-26T07:57:11.238Z</time>
      </trkpt>
      <trkpt lat="42.06471" lon="19.50842">
        <ele>63.583097</ele>
        <time>2022-05-26T07:57:14.237Z</time>
      </trkpt>
      <trkpt lat="42.06463" lon="19.50832">
        <ele>63.668921</ele>
        <time>2022-05-26T07:57:17.229Z</time>
      </trkpt>
      <trkpt lat="42.06454" lon="19.50824">
        <ele>63.750431</ele>
        <time>2022-05-26T07:57:20.247Z</time>
      </trkpt>
      <trkpt lat="42.06446" lon="19.50817">
        <ele>63.82515</ele>
        <time>2022-05-26T07:57:23.253Z</time>
      </trkpt>
      <trkpt lat="42.06438" lon="19.50807">
        <ele>63.915227</ele>
        <time>2022-05-26T07:57:27.242Z</time>
      </trkpt>
      <trkpt lat="42.06428" lon="19.50799">
        <ele>64.001417</ele>
        <time>2022-05-26T07:57:30.274Z</time>
      </trkpt>
      <trkpt lat="42.06419" lon="19.5079">
        <ele>64.088255</ele>
        <time>2022-05-26T07:57:33.222Z</time>
      </trkpt>
      <trkpt lat="42.06411" lon="19.50781">
        <ele>64.175093</ele>
        <time>2022-05-26T07:57:36.274Z</time>
      </trkpt>
      <trkpt lat="42.064" lon="19.5077">
        <ele>64.280287</ele>
        <time>2022-05-26T07:57:39.234Z</time>
      </trkpt>
      <trkpt lat="42.06392" lon="19.50763">
        <ele>64.354958</ele>
        <time>2022-05-26T07:57:41.244Z</time>
      </trkpt>
      <trkpt lat="42.06382" lon="19.50753">
        <ele>64.455536</ele>
        <time>2022-05-26T07:57:44.248Z</time>
      </trkpt>
      <trkpt lat="42.06373" lon="19.50746">
        <ele>64.533011</ele>
        <time>2022-05-26T07:57:46.230Z</time>
      </trkpt>
      <trkpt lat="42.06364" lon="19.5074">
        <ele>64.709511</ele>
        <time>2022-05-26T07:57:48.264Z</time>
      </trkpt>
      <trkpt lat="42.06355" lon="19.50729">
        <ele>65.000274</ele>
        <time>2022-05-26T07:57:51.261Z</time>
      </trkpt>
      <trkpt lat="42.06344" lon="19.50723">
        <ele>65.312441</ele>
        <time>2022-05-26T07:57:54.241Z</time>
      </trkpt>
      <trkpt lat="42.06334" lon="19.50713">
        <ele>65.612018</ele>
        <time>2022-05-26T07:57:57.234Z</time>
      </trkpt>
      <trkpt lat="42.06323" lon="19.50703">
        <ele>65.933284</ele>
        <time>2022-05-26T07:58:00.251Z</time>
      </trkpt>
      <trkpt lat="42.06313" lon="19.50692">
        <ele>66.254174</ele>
        <time>2022-05-26T07:58:03.259Z</time>
      </trkpt>
      <trkpt lat="42.06306" lon="19.50685">
        <ele>66.480858</ele>
        <time>2022-05-26T07:58:05.232Z</time>
      </trkpt>
      <trkpt lat="42.06298" lon="19.50678">
        <ele>66.719904</ele>
        <time>2022-05-26T07:58:07.238Z</time>
      </trkpt>
      <trkpt lat="42.06291" lon="19.5067">
        <ele>66.947285</ele>
        <time>2022-05-26T07:58:09.235Z</time>
      </trkpt>
      <trkpt lat="42.0628" lon="19.50659">
        <ele>67.268999</ele>
        <time>2022-05-26T07:58:12.241Z</time>
      </trkpt>
      <trkpt lat="42.0627" lon="19.50648">
        <ele>67.601796</ele>
        <time>2022-05-26T07:58:15.228Z</time>
      </trkpt>
      <trkpt lat="42.06259" lon="19.50639">
        <ele>67.921076</ele>
        <time>2022-05-26T07:58:18.252Z</time>
      </trkpt>
      <trkpt lat="42.06251" lon="19.50632">
        <ele>68.152151</ele>
        <time>2022-05-26T07:58:20.250Z</time>
      </trkpt>
      <trkpt lat="42.06243" lon="19.50625">
        <ele>68.381959</ele>
        <time>2022-05-26T07:58:22.279Z</time>
      </trkpt>
      <trkpt lat="42.06235" lon="19.50618">
        <ele>68.620953</ele>
        <time>2022-05-26T07:58:24.241Z</time>
      </trkpt>
      <trkpt lat="42.06227" lon="19.5061">
        <ele>68.865075</ele>
        <time>2022-05-26T07:58:26.244Z</time>
      </trkpt>
      <trkpt lat="42.06218" lon="19.50603">
        <ele>68.929092</ele>
        <time>2022-05-26T07:58:28.230Z</time>
      </trkpt>
      <trkpt lat="42.06209" lon="19.50596">
        <ele>68.745723</ele>
        <time>2022-05-26T07:58:30.271Z</time>
      </trkpt>
      <trkpt lat="42.06201" lon="19.50588">
        <ele>68.563866</ele>
        <time>2022-05-26T07:58:32.242Z</time>
      </trkpt>
      <trkpt lat="42.06193" lon="19.5058">
        <ele>68.387185</ele>
        <time>2022-05-26T07:58:34.255Z</time>
      </trkpt>
      <trkpt lat="42.06184" lon="19.50573">
        <ele>68.202358</ele>
        <time>2022-05-26T07:58:36.232Z</time>
      </trkpt>
      <trkpt lat="42.06176" lon="19.50565">
        <ele>68.033864</ele>
        <time>2022-05-26T07:58:38.225Z</time>
      </trkpt>
      <trkpt lat="42.06168" lon="19.50558">
        <ele>67.857941</ele>
        <time>2022-05-26T07:58:40.239Z</time>
      </trkpt>
      <trkpt lat="42.0616" lon="19.50551">
        <ele>67.683507</ele>
        <time>2022-05-26T07:58:42.234Z</time>
      </trkpt>
      <trkpt lat="42.06152" lon="19.50544">
        <ele>67.506811</ele>
        <time>2022-05-26T07:58:44.263Z</time>
      </trkpt>
      <trkpt lat="42.06144" lon="19.50536">
        <ele>67.327139</ele>
        <time>2022-05-26T07:58:46.247Z</time>
      </trkpt>
      <trkpt lat="42.06136" lon="19.50527">
        <ele>67.144768</ele>
        <time>2022-05-26T07:58:48.239Z</time>
      </trkpt>
      <trkpt lat="42.06128" lon="19.50519">
        <ele>66.969336</ele>
        <time>2022-05-26T07:58:50.273Z</time>
      </trkpt>
      <trkpt lat="42.0612" lon="19.50511">
        <ele>66.791933</ele>
        <time>2022-05-26T07:58:52.238Z</time>
      </trkpt>
      <trkpt lat="42.06112" lon="19.50504">
        <ele>66.612303</ele>
        <time>2022-05-26T07:58:54.253Z</time>
      </trkpt>
      <trkpt lat="42.06103" lon="19.50496">
        <ele>66.433382</ele>
        <time>2022-05-26T07:58:56.264Z</time>
      </trkpt>
      <trkpt lat="42.06094" lon="19.5049">
        <ele>66.251135</ele>
        <time>2022-05-26T07:58:58.224Z</time>
      </trkpt>
      <trkpt lat="42.06086" lon="19.50482">
        <ele>66.070708</ele>
        <time>2022-05-26T07:59:00.248Z</time>
      </trkpt>
      <trkpt lat="42.06077" lon="19.50475">
        <ele>65.890991</ele>
        <time>2022-05-26T07:59:02.241Z</time>
      </trkpt>
      <trkpt lat="42.06069" lon="19.50468">
        <ele>65.953238</ele>
        <time>2022-05-26T07:59:04.242Z</time>
      </trkpt>
      <trkpt lat="42.0606" lon="19.5046">
        <ele>66.296016</ele>
        <time>2022-05-26T07:59:06.220Z</time>
      </trkpt>
      <trkpt lat="42.06051" lon="19.50453">
        <ele>66.628317</ele>
        <time>2022-05-26T07:59:08.240Z</time>
      </trkpt>
      <trkpt lat="42.06042" lon="19.50446">
        <ele>66.971279</ele>
        <time>2022-05-26T07:59:10.245Z</time>
      </trkpt>
      <trkpt lat="42.06034" lon="19.50438">
        <ele>67.310171</ele>
        <time>2022-05-26T07:59:12.273Z</time>
      </trkpt>
      <trkpt lat="42.06025" lon="19.5043">
        <ele>67.640974</ele>
        <time>2022-05-26T07:59:14.262Z</time>
      </trkpt>
      <trkpt lat="42.06017" lon="19.50422">
        <ele>67.971559</ele>
        <time>2022-05-26T07:59:16.218Z</time>
      </trkpt>
      <trkpt lat="42.06009" lon="19.50415">
        <ele>68.307452</ele>
        <time>2022-05-26T07:59:18.264Z</time>
      </trkpt>
      <trkpt lat="42.06" lon="19.50408">
        <ele>68.628564</ele>
        <time>2022-05-26T07:59:20.236Z</time>
      </trkpt>
      <trkpt lat="42.05992" lon="19.504">
        <ele>68.961822</ele>
        <time>2022-05-26T07:59:22.248Z</time>
      </trkpt>
      <trkpt lat="42.05984" lon="19.50391">
        <ele>69.29671</ele>
        <time>2022-05-26T07:59:24.266Z</time>
      </trkpt>
      <trkpt lat="42.05976" lon="19.50384">
        <ele>69.623194</ele>
        <time>2022-05-26T07:59:26.244Z</time>
      </trkpt>
      <trkpt lat="42.05967" lon="19.50377">
        <ele>69.950971</ele>
        <time>2022-05-26T07:59:28.236Z</time>
      </trkpt>
      <trkpt lat="42.05959" lon="19.50369">
        <ele>70.275988</ele>
        <time>2022-05-26T07:59:30.238Z</time>
      </trkpt>
      <trkpt lat="42.0595" lon="19.50362">
        <ele>70.624549</ele>
        <time>2022-05-26T07:59:32.247Z</time>
      </trkpt>
      <trkpt lat="42.05939" lon="19.50355">
        <ele>71.007466</ele>
        <time>2022-05-26T07:59:34.228Z</time>
      </trkpt>
      <trkpt lat="42.0593" lon="19.50348">
        <ele>71.357998</ele>
        <time>2022-05-26T07:59:36.224Z</time>
      </trkpt>
      <trkpt lat="42.05922" lon="19.50341">
        <ele>71.680306</ele>
        <time>2022-05-26T07:59:38.222Z</time>
      </trkpt>
      <trkpt lat="42.05913" lon="19.50334">
        <ele>71.89222</ele>
        <time>2022-05-26T07:59:40.243Z</time>
      </trkpt>
      <trkpt lat="42.05905" lon="19.50327">
        <ele>72.106742</ele>
        <time>2022-05-26T07:59:42.244Z</time>
      </trkpt>
      <trkpt lat="42.05897" lon="19.5032">
        <ele>72.31019</ele>
        <time>2022-05-26T07:59:44.226Z</time>
      </trkpt>
      <trkpt lat="42.05889" lon="19.50313">
        <ele>72.511927</ele>
        <time>2022-05-26T07:59:46.242Z</time>
      </trkpt>
      <trkpt lat="42.05881" lon="19.50305">
        <ele>72.724144</ele>
        <time>2022-05-26T07:59:48.242Z</time>
      </trkpt>
      <trkpt lat="42.05872" lon="19.50298">
        <ele>72.92776</ele>
        <time>2022-05-26T07:59:50.251Z</time>
      </trkpt>
      <trkpt lat="42.05864" lon="19.50291">
        <ele>73.130338</ele>
        <time>2022-05-26T07:59:52.234Z</time>
      </trkpt>
      <trkpt lat="42.05857" lon="19.50284">
        <ele>73.323278</ele>
        <time>2022-05-26T07:59:54.237Z</time>
      </trkpt>
      <trkpt lat="42.05849" lon="19.50277">
        <ele>73.517224</ele>
        <time>2022-05-26T07:59:56.277Z</time>
      </trkpt>
      <trkpt lat="42.05841" lon="19.50271">
        <ele>73.727074</ele>
        <time>2022-05-26T07:59:58.232Z</time>
      </trkpt>
      <trkpt lat="42.05832" lon="19.5026">
        <ele>73.981952</ele>
        <time>2022-05-26T08:00:01.251Z</time>
      </trkpt>
      <trkpt lat="42.05822" lon="19.50251">
        <ele>74.224876</ele>
        <time>2022-05-26T08:00:04.261Z</time>
      </trkpt>
      <trkpt lat="42.05813" lon="19.50246">
        <ele>74.435779</ele>
        <time>2022-05-26T08:00:08.235Z</time>
      </trkpt>
      <trkpt lat="42.05805" lon="19.50236">
        <ele>74.670737</ele>
        <time>2022-05-26T08:00:12.244Z</time>
      </trkpt>
      <trkpt lat="42.05796" lon="19.50226">
        <ele>74.913025</ele>
        <time>2022-05-26T08:00:15.237Z</time>
      </trkpt>
      <trkpt lat="42.05784" lon="19.50218">
        <ele>75.198229</ele>
        <time>2022-05-26T08:00:18.236Z</time>
      </trkpt>
      <trkpt lat="42.05775" lon="19.50212">
        <ele>75.400899</ele>
        <time>2022-05-26T08:00:20.305Z</time>
      </trkpt>
      <trkpt lat="42.05765" lon="19.50203">
        <ele>75.300844</ele>
        <time>2022-05-26T08:00:23.224Z</time>
      </trkpt>
      <trkpt lat="42.05757" lon="19.50192">
        <ele>75.011798</ele>
        <time>2022-05-26T08:00:26.235Z</time>
      </trkpt>
      <trkpt lat="42.05747" lon="19.50182">
        <ele>74.718894</ele>
        <time>2022-05-26T08:00:29.285Z</time>
      </trkpt>
      <trkpt lat="42.05737" lon="19.50173">
        <ele>74.407975</ele>
        <time>2022-05-26T08:00:32.228Z</time>
      </trkpt>
      <trkpt lat="42.05726" lon="19.50165">
        <ele>74.092468</ele>
        <time>2022-05-26T08:00:35.236Z</time>
      </trkpt>
      <trkpt lat="42.05715" lon="19.50156">
        <ele>73.770512</ele>
        <time>2022-05-26T08:00:38.282Z</time>
      </trkpt>
      <trkpt lat="42.05707" lon="19.5015">
        <ele>73.541894</ele>
        <time>2022-05-26T08:00:40.250Z</time>
      </trkpt>
      <trkpt lat="42.05695" lon="19.5014">
        <ele>73.203119</ele>
        <time>2022-05-26T08:00:43.217Z</time>
      </trkpt>
      <trkpt lat="42.05684" lon="19.5013">
        <ele>72.870985</ele>
        <time>2022-05-26T08:00:46.221Z</time>
      </trkpt>
      <trkpt lat="42.05675" lon="19.50125">
        <ele>72.621735</ele>
        <time>2022-05-26T08:00:48.249Z</time>
      </trkpt>
      <trkpt lat="42.05667" lon="19.50118">
        <ele>72.385994</ele>
        <time>2022-05-26T08:00:50.220Z</time>
      </trkpt>
      <trkpt lat="42.05659" lon="19.50111">
        <ele>72.155674</ele>
        <time>2022-05-26T08:00:52.239Z</time>
      </trkpt>
      <trkpt lat="42.05651" lon="19.50103">
        <ele>71.90573</ele>
        <time>2022-05-26T08:00:54.223Z</time>
      </trkpt>
      <trkpt lat="42.05642" lon="19.50096">
        <ele>71.653576</ele>
        <time>2022-05-26T08:00:56.241Z</time>
      </trkpt>
      <trkpt lat="42.05633" lon="19.50086">
        <ele>71.353749</ele>
        <time>2022-05-26T08:00:59.236Z</time>
      </trkpt>
      <trkpt lat="42.05626" lon="19.50079">
        <ele>71.126233</ele>
        <time>2022-05-26T08:01:04.237Z</time>
      </trkpt>
      <trkpt lat="42.05618" lon="19.50071">
        <ele>70.884861</ele>
        <time>2022-05-26T08:01:07.235Z</time>
      </trkpt>
      <trkpt lat="42.05609" lon="19.50064">
        <ele>70.608224</ele>
        <time>2022-05-26T08:01:11.269Z</time>
      </trkpt>
      <trkpt lat="42.05602" lon="19.50057">
        <ele>70.366246</ele>
        <time>2022-05-26T08:01:15.232Z</time>
      </trkpt>
      <trkpt lat="42.05593" lon="19.50052">
        <ele>70.12126</ele>
        <time>2022-05-26T08:01:18.241Z</time>
      </trkpt>
      <trkpt lat="42.05584" lon="19.50043">
        <ele>69.809394</ele>
        <time>2022-05-26T08:01:21.226Z</time>
      </trkpt>
      <trkpt lat="42.05573" lon="19.50034">
        <ele>69.46333</ele>
        <time>2022-05-26T08:01:24.227Z</time>
      </trkpt>
      <trkpt lat="42.05564" lon="19.50023">
        <ele>69.153529</ele>
        <time>2022-05-26T08:01:27.235Z</time>
      </trkpt>
      <trkpt lat="42.05554" lon="19.50013">
        <ele>68.818449</ele>
        <time>2022-05-26T08:01:30.225Z</time>
      </trkpt>
      <trkpt lat="42.05546" lon="19.50006">
        <ele>68.568804</ele>
        <time>2022-05-26T08:01:32.287Z</time>
      </trkpt>
      <trkpt lat="42.05538" lon="19.49998">
        <ele>68.302599</ele>
        <time>2022-05-26T08:01:34.246Z</time>
      </trkpt>
      <trkpt lat="42.0553" lon="19.49991">
        <ele>68.045134</ele>
        <time>2022-05-26T08:01:36.235Z</time>
      </trkpt>
      <trkpt lat="42.05522" lon="19.49983">
        <ele>67.785586</ele>
        <time>2022-05-26T08:01:38.243Z</time>
      </trkpt>
      <trkpt lat="42.05515" lon="19.49976">
        <ele>67.539097</ele>
        <time>2022-05-26T08:01:40.257Z</time>
      </trkpt>
      <trkpt lat="42.05507" lon="19.49967">
        <ele>67.265353</ele>
        <time>2022-05-26T08:01:42.253Z</time>
      </trkpt>
      <trkpt lat="42.05499" lon="19.4996">
        <ele>66.994724</ele>
        <time>2022-05-26T08:01:44.237Z</time>
      </trkpt>
      <trkpt lat="42.0549" lon="19.49952">
        <ele>66.718544</ele>
        <time>2022-05-26T08:01:46.233Z</time>
      </trkpt>
      <trkpt lat="42.05482" lon="19.49944">
        <ele>66.464204</ele>
        <time>2022-05-26T08:01:48.242Z</time>
      </trkpt>
      <trkpt lat="42.05473" lon="19.49932">
        <ele>66.227292</ele>
        <time>2022-05-26T08:01:51.290Z</time>
      </trkpt>
      <trkpt lat="42.05467" lon="19.49924">
        <ele>66.284851</ele>
        <time>2022-05-26T08:01:53.248Z</time>
      </trkpt>
      <trkpt lat="42.0546" lon="19.49914">
        <ele>66.344014</ele>
        <time>2022-05-26T08:01:55.243Z</time>
      </trkpt>
      <trkpt lat="42.05455" lon="19.49904">
        <ele>66.40298</ele>
        <time>2022-05-26T08:01:57.246Z</time>
      </trkpt>
      <trkpt lat="42.05453" lon="19.49892">
        <ele>66.46135</ele>
        <time>2022-05-26T08:01:59.229Z</time>
      </trkpt>
      <trkpt lat="42.0545" lon="19.49877">
        <ele>66.536157</ele>
        <time>2022-05-26T08:02:02.273Z</time>
      </trkpt>
      <trkpt lat="42.05441" lon="19.49863">
        <ele>66.61971</ele>
        <time>2022-05-26T08:02:05.233Z</time>
      </trkpt>
      <trkpt lat="42.05435" lon="19.49853">
        <ele>66.681992</ele>
        <time>2022-05-26T08:02:07.293Z</time>
      </trkpt>
      <trkpt lat="42.0543" lon="19.4984">
        <ele>66.747978</ele>
        <time>2022-05-26T08:02:10.238Z</time>
      </trkpt>
      <trkpt lat="42.05423" lon="19.49828">
        <ele>66.822448</ele>
        <time>2022-05-26T08:02:12.237Z</time>
      </trkpt>
      <trkpt lat="42.05416" lon="19.49815">
        <ele>66.899115</ele>
        <time>2022-05-26T08:02:15.236Z</time>
      </trkpt>
      <trkpt lat="42.0541" lon="19.49805">
        <ele>66.959125</ele>
        <time>2022-05-26T08:02:18.240Z</time>
      </trkpt>
      <trkpt lat="42.05403" lon="19.49795">
        <ele>67.027817</ele>
        <time>2022-05-26T08:02:22.217Z</time>
      </trkpt>
      <trkpt lat="42.05396" lon="19.49781">
        <ele>67.103662</ele>
        <time>2022-05-26T08:02:28.233Z</time>
      </trkpt>
      <trkpt lat="42.0539" lon="19.49769">
        <ele>67.173233</ele>
        <time>2022-05-26T08:02:33.244Z</time>
      </trkpt>
      <trkpt lat="42.05387" lon="19.49757">
        <ele>67.233978</ele>
        <time>2022-05-26T08:02:36.235Z</time>
      </trkpt>
      <trkpt lat="42.05381" lon="19.49744">
        <ele>67.302436</ele>
        <time>2022-05-26T08:02:39.226Z</time>
      </trkpt>
      <trkpt lat="42.05376" lon="19.49732">
        <ele>67.130294</ele>
        <time>2022-05-26T08:02:42.243Z</time>
      </trkpt>
      <trkpt lat="42.05372" lon="19.49717">
        <ele>66.335676</ele>
        <time>2022-05-26T08:02:44.250Z</time>
      </trkpt>
      <trkpt lat="42.05369" lon="19.49703">
        <ele>65.632077</ele>
        <time>2022-05-26T08:02:46.226Z</time>
      </trkpt>
      <trkpt lat="42.05365" lon="19.49691">
        <ele>64.987366</ele>
        <time>2022-05-26T08:02:48.231Z</time>
      </trkpt>
      <trkpt lat="42.05361" lon="19.4968">
        <ele>64.359156</ele>
        <time>2022-05-26T08:02:50.224Z</time>
      </trkpt>
      <trkpt lat="42.05356" lon="19.49667">
        <ele>63.645839</ele>
        <time>2022-05-26T08:02:52.266Z</time>
      </trkpt>
      <trkpt lat="42.05352" lon="19.49654">
        <ele>62.989991</ele>
        <time>2022-05-26T08:02:54.238Z</time>
      </trkpt>
      <trkpt lat="42.05347" lon="19.49638">
        <ele>62.096733</ele>
        <time>2022-05-26T08:02:57.224Z</time>
      </trkpt>
      <trkpt lat="42.05343" lon="19.49626">
        <ele>61.470846</ele>
        <time>2022-05-26T08:02:59.229Z</time>
      </trkpt>
      <trkpt lat="42.05339" lon="19.49615">
        <ele>60.85957</ele>
        <time>2022-05-26T08:03:01.243Z</time>
      </trkpt>
      <trkpt lat="42.05335" lon="19.49604">
        <ele>60.243894</ele>
        <time>2022-05-26T08:03:03.233Z</time>
      </trkpt>
      <trkpt lat="42.0533" lon="19.4959">
        <ele>59.489089</ele>
        <time>2022-05-26T08:03:05.233Z</time>
      </trkpt>
      <trkpt lat="42.05325" lon="19.49578">
        <ele>58.807011</ele>
        <time>2022-05-26T08:03:07.236Z</time>
      </trkpt>
      <trkpt lat="42.0532" lon="19.49565">
        <ele>58.100976</ele>
        <time>2022-05-26T08:03:09.262Z</time>
      </trkpt>
      <trkpt lat="42.05314" lon="19.49552">
        <ele>57.314097</ele>
        <time>2022-05-26T08:03:11.239Z</time>
      </trkpt>
      <trkpt lat="42.05308" lon="19.49541">
        <ele>56.638582</ele>
        <time>2022-05-26T08:03:13.263Z</time>
      </trkpt>
      <trkpt lat="42.05302" lon="19.49524">
        <ele>55.72618</ele>
        <time>2022-05-26T08:03:16.246Z</time>
      </trkpt>
      <trkpt lat="42.05297" lon="19.49512">
        <ele>55.331563</ele>
        <time>2022-05-26T08:03:18.230Z</time>
      </trkpt>
      <trkpt lat="42.05292" lon="19.49501">
        <ele>55.246141</ele>
        <time>2022-05-26T08:03:20.249Z</time>
      </trkpt>
      <trkpt lat="42.05286" lon="19.49486">
        <ele>55.125298</ele>
        <time>2022-05-26T08:03:23.220Z</time>
      </trkpt>
      <trkpt lat="42.05281" lon="19.49475">
        <ele>55.042998</ele>
        <time>2022-05-26T08:03:25.220Z</time>
      </trkpt>
      <trkpt lat="42.05274" lon="19.49459">
        <ele>54.919821</ele>
        <time>2022-05-26T08:03:28.233Z</time>
      </trkpt>
      <trkpt lat="42.05269" lon="19.49449">
        <ele>54.837639</ele>
        <time>2022-05-26T08:03:30.246Z</time>
      </trkpt>
      <trkpt lat="42.05264" lon="19.49435">
        <ele>54.729272</ele>
        <time>2022-05-26T08:03:33.228Z</time>
      </trkpt>
      <trkpt lat="42.05258" lon="19.49425">
        <ele>54.641078</ele>
        <time>2022-05-26T08:03:35.233Z</time>
      </trkpt>
      <trkpt lat="42.05253" lon="19.49412">
        <ele>54.543656</ele>
        <time>2022-05-26T08:03:37.245Z</time>
      </trkpt>
      <trkpt lat="42.05247" lon="19.494">
        <ele>54.444986</ele>
        <time>2022-05-26T08:03:39.239Z</time>
      </trkpt>
      <trkpt lat="42.05241" lon="19.49389">
        <ele>54.353024</ele>
        <time>2022-05-26T08:03:41.223Z</time>
      </trkpt>
      <trkpt lat="42.05235" lon="19.49379">
        <ele>54.269772</ele>
        <time>2022-05-26T08:03:43.237Z</time>
      </trkpt>
      <trkpt lat="42.05229" lon="19.49366">
        <ele>54.165192</ele>
        <time>2022-05-26T08:03:46.231Z</time>
      </trkpt>
      <trkpt lat="42.0522" lon="19.49354">
        <ele>54.050067</ele>
        <time>2022-05-26T08:03:49.265Z</time>
      </trkpt>
      <trkpt lat="42.05213" lon="19.49343">
        <ele>53.949669</ele>
        <time>2022-05-26T08:03:52.216Z</time>
      </trkpt>
      <trkpt lat="42.05204" lon="19.49333">
        <ele>53.841997</ele>
        <time>2022-05-26T08:03:55.231Z</time>
      </trkpt>
      <trkpt lat="42.05193" lon="19.49323">
        <ele>53.752733</ele>
        <time>2022-05-26T08:03:58.229Z</time>
      </trkpt>
      <trkpt lat="42.05183" lon="19.49312">
        <ele>53.909759</ele>
        <time>2022-05-26T08:04:01.222Z</time>
      </trkpt>
      <trkpt lat="42.05175" lon="19.49305">
        <ele>54.016857</ele>
        <time>2022-05-26T08:04:03.226Z</time>
      </trkpt>
      <trkpt lat="42.05166" lon="19.49298">
        <ele>54.135237</ele>
        <time>2022-05-26T08:04:05.273Z</time>
      </trkpt>
      <trkpt lat="42.05155" lon="19.49291">
        <ele>54.268209</ele>
        <time>2022-05-26T08:04:07.232Z</time>
      </trkpt>
      <trkpt lat="42.05145" lon="19.49287">
        <ele>54.387761</ele>
        <time>2022-05-26T08:04:09.254Z</time>
      </trkpt>
      <trkpt lat="42.05137" lon="19.49281">
        <ele>54.495047</ele>
        <time>2022-05-26T08:04:11.236Z</time>
      </trkpt>
      <trkpt lat="42.05124" lon="19.49275">
        <ele>54.650141</ele>
        <time>2022-05-26T08:04:14.240Z</time>
      </trkpt>
      <trkpt lat="42.05114" lon="19.49273">
        <ele>54.763421</ele>
        <time>2022-05-26T08:04:16.275Z</time>
      </trkpt>
      <trkpt lat="42.05103" lon="19.49269">
        <ele>54.891145</ele>
        <time>2022-05-26T08:04:18.235Z</time>
      </trkpt>
      <trkpt lat="42.05094" lon="19.49266">
        <ele>55.004903</ele>
        <time>2022-05-26T08:04:20.253Z</time>
      </trkpt>
      <trkpt lat="42.05081" lon="19.49262">
        <ele>55.158626</ele>
        <time>2022-05-26T08:04:23.261Z</time>
      </trkpt>
      <trkpt lat="42.05068" lon="19.49259">
        <ele>55.301322</ele>
        <time>2022-05-26T08:04:26.242Z</time>
      </trkpt>
      <trkpt lat="42.0506" lon="19.49253">
        <ele>55.41037</ele>
        <time>2022-05-26T08:04:29.258Z</time>
      </trkpt>
      <trkpt lat="42.0506" lon="19.4924">
        <ele>55.522285</ele>
        <time>2022-05-26T08:04:32.246Z</time>
      </trkpt>
      <trkpt lat="42.05064" lon="19.49225">
        <ele>55.65904</ele>
        <time>2022-05-26T08:04:35.244Z</time>
      </trkpt>
      <trkpt lat="42.05067" lon="19.49213">
        <ele>55.768398</ele>
        <time>2022-05-26T08:04:40.277Z</time>
      </trkpt>
      <trkpt lat="42.05069" lon="19.492">
        <ele>55.731123</ele>
        <time>2022-05-26T08:04:44.238Z</time>
      </trkpt>
      <trkpt lat="42.05072" lon="19.49186">
        <ele>55.643097</ele>
        <time>2022-05-26T08:04:48.244Z</time>
      </trkpt>
      <trkpt lat="42.05075" lon="19.49171">
        <ele>55.551026</ele>
        <time>2022-05-26T08:04:52.249Z</time>
      </trkpt>
      <trkpt lat="42.05078" lon="19.49159">
        <ele>55.477358</ele>
        <time>2022-05-26T08:04:55.221Z</time>
      </trkpt>
      <trkpt lat="42.05081" lon="19.49146">
        <ele>55.396418</ele>
        <time>2022-05-26T08:04:58.245Z</time>
      </trkpt>
      <trkpt lat="42.05084" lon="19.49133">
        <ele>55.3163</ele>
        <time>2022-05-26T08:05:01.251Z</time>
      </trkpt>
      <trkpt lat="42.05086" lon="19.4912">
        <ele>55.238917</ele>
        <time>2022-05-26T08:05:04.239Z</time>
      </trkpt>
      <trkpt lat="42.05089" lon="19.49108">
        <ele>55.160246</ele>
        <time>2022-05-26T08:05:07.256Z</time>
      </trkpt>
      <trkpt lat="42.05093" lon="19.49093">
        <ele>55.067433</ele>
        <time>2022-05-26T08:05:11.234Z</time>
      </trkpt>
      <trkpt lat="42.05097" lon="19.49078">
        <ele>54.971814</ele>
        <time>2022-05-26T08:05:15.231Z</time>
      </trkpt>
      <trkpt lat="42.051" lon="19.49064">
        <ele>54.884996</ele>
        <time>2022-05-26T08:05:19.242Z</time>
      </trkpt>
      <trkpt lat="42.05105" lon="19.49049">
        <ele>54.790759</ele>
        <time>2022-05-26T08:05:23.244Z</time>
      </trkpt>
      <trkpt lat="42.05108" lon="19.49038">
        <ele>54.717946</ele>
        <time>2022-05-26T08:05:26.267Z</time>
      </trkpt>
      <trkpt lat="42.05111" lon="19.49024">
        <ele>54.633292</ele>
        <time>2022-05-26T08:05:30.234Z</time>
      </trkpt>
      <trkpt lat="42.05115" lon="19.49011">
        <ele>54.550671</ele>
        <time>2022-05-26T08:05:34.243Z</time>
      </trkpt>
      <trkpt lat="42.05119" lon="19.49">
        <ele>54.478705</ele>
        <time>2022-05-26T08:05:37.240Z</time>
      </trkpt>
      <trkpt lat="42.05122" lon="19.48987">
        <ele>54.396703</ele>
        <time>2022-05-26T08:05:41.240Z</time>
      </trkpt>
      <trkpt lat="42.05116" lon="19.48977">
        <ele>54.457942</ele>
        <time>2022-05-26T08:05:46.226Z</time>
      </trkpt>
      <trkpt lat="42.05107" lon="19.48969">
        <ele>54.68344</ele>
        <time>2022-05-26T08:05:49.272Z</time>
      </trkpt>
      <trkpt lat="42.05097" lon="19.4896">
        <ele>54.934819</ele>
        <time>2022-05-26T08:05:52.342Z</time>
      </trkpt>
      <trkpt lat="42.05087" lon="19.48949">
        <ele>55.191945</ele>
        <time>2022-05-26T08:05:55.283Z</time>
      </trkpt>
      <trkpt lat="42.05077" lon="19.48938">
        <ele>55.467897</ele>
        <time>2022-05-26T08:05:58.248Z</time>
      </trkpt>
      <trkpt lat="42.0507" lon="19.4893">
        <ele>55.658698</ele>
        <time>2022-05-26T08:06:00.239Z</time>
      </trkpt>
      <trkpt lat="42.05064" lon="19.4892">
        <ele>55.848664</ele>
        <time>2022-05-26T08:06:02.237Z</time>
      </trkpt>
      <trkpt lat="42.05054" lon="19.48909">
        <ele>56.131197</ele>
        <time>2022-05-26T08:06:05.238Z</time>
      </trkpt>
      <trkpt lat="42.05047" lon="19.48901">
        <ele>56.320247</ele>
        <time>2022-05-26T08:06:07.226Z</time>
      </trkpt>
      <trkpt lat="42.05037" lon="19.4889">
        <ele>56.592618</ele>
        <time>2022-05-26T08:06:10.238Z</time>
      </trkpt>
      <trkpt lat="42.05026" lon="19.48879">
        <ele>56.869608</ele>
        <time>2022-05-26T08:06:13.239Z</time>
      </trkpt>
      <trkpt lat="42.05016" lon="19.48869">
        <ele>57.14531</ele>
        <time>2022-05-26T08:06:16.255Z</time>
      </trkpt>
      <trkpt lat="42.05005" lon="19.48859">
        <ele>57.406142</ele>
        <time>2022-05-26T08:06:19.237Z</time>
      </trkpt>
      <trkpt lat="42.04995" lon="19.4885">
        <ele>57.671378</ele>
        <time>2022-05-26T08:06:22.242Z</time>
      </trkpt>
      <trkpt lat="42.04984" lon="19.48839">
        <ele>57.946718</ele>
        <time>2022-05-26T08:06:25.233Z</time>
      </trkpt>
      <trkpt lat="42.04974" lon="19.48829">
        <ele>58.131267</ele>
        <time>2022-05-26T08:06:28.273Z</time>
      </trkpt>
      <trkpt lat="42.04963" lon="19.4882">
        <ele>58.179979</ele>
        <time>2022-05-26T08:06:31.236Z</time>
      </trkpt>
      <trkpt lat="42.04953" lon="19.48812">
        <ele>58.225531</ele>
        <time>2022-05-26T08:06:34.231Z</time>
      </trkpt>
      <trkpt lat="42.04943" lon="19.48804">
        <ele>58.270937</ele>
        <time>2022-05-26T08:06:37.238Z</time>
      </trkpt>
      <trkpt lat="42.04932" lon="19.48796">
        <ele>58.319224</ele>
        <time>2022-05-26T08:06:40.301Z</time>
      </trkpt>
      <trkpt lat="42.04922" lon="19.48787">
        <ele>58.367697</ele>
        <time>2022-05-26T08:06:43.237Z</time>
      </trkpt>
      <trkpt lat="42.04914" lon="19.48781">
        <ele>58.403801</ele>
        <time>2022-05-26T08:06:45.218Z</time>
      </trkpt>
      <trkpt lat="42.04906" lon="19.48774">
        <ele>58.440307</ele>
        <time>2022-05-26T08:06:47.236Z</time>
      </trkpt>
      <trkpt lat="42.04897" lon="19.48768">
        <ele>58.4792</ele>
        <time>2022-05-26T08:06:49.235Z</time>
      </trkpt>
      <trkpt lat="42.04888" lon="19.48761">
        <ele>58.518374</ele>
        <time>2022-05-26T08:06:51.269Z</time>
      </trkpt>
      <trkpt lat="42.0488" lon="19.48755">
        <ele>58.555085</ele>
        <time>2022-05-26T08:06:53.251Z</time>
      </trkpt>
      <trkpt lat="42.04871" lon="19.48748">
        <ele>58.594175</ele>
        <time>2022-05-26T08:06:55.250Z</time>
      </trkpt>
      <trkpt lat="42.04863" lon="19.48741">
        <ele>58.631315</ele>
        <time>2022-05-26T08:06:57.277Z</time>
      </trkpt>
      <trkpt lat="42.04855" lon="19.48734">
        <ele>58.668151</ele>
        <time>2022-05-26T08:06:59.238Z</time>
      </trkpt>
      <trkpt lat="42.04846" lon="19.48727">
        <ele>58.70643</ele>
        <time>2022-05-26T08:07:01.260Z</time>
      </trkpt>
      <trkpt lat="42.04838" lon="19.4872">
        <ele>58.746786</ele>
        <time>2022-05-26T08:07:03.229Z</time>
      </trkpt>
      <trkpt lat="42.04828" lon="19.48712">
        <ele>58.788432</ele>
        <time>2022-05-26T08:07:05.233Z</time>
      </trkpt>
      <trkpt lat="42.04819" lon="19.48705">
        <ele>58.741158</ele>
        <time>2022-05-26T08:07:07.233Z</time>
      </trkpt>
      <trkpt lat="42.0481" lon="19.48698">
        <ele>58.588123</ele>
        <time>2022-05-26T08:07:09.232Z</time>
      </trkpt>
      <trkpt lat="42.04801" lon="19.4869">
        <ele>58.43576</ele>
        <time>2022-05-26T08:07:11.227Z</time>
      </trkpt>
      <trkpt lat="42.04792" lon="19.48682">
        <ele>58.281069</ele>
        <time>2022-05-26T08:07:13.271Z</time>
      </trkpt>
      <trkpt lat="42.04783" lon="19.48675">
        <ele>58.125574</ele>
        <time>2022-05-26T08:07:15.238Z</time>
      </trkpt>
      <trkpt lat="42.04773" lon="19.48668">
        <ele>57.974848</ele>
        <time>2022-05-26T08:07:17.327Z</time>
      </trkpt>
      <trkpt lat="42.04765" lon="19.48661">
        <ele>57.830658</ele>
        <time>2022-05-26T08:07:19.260Z</time>
      </trkpt>
      <trkpt lat="42.04755" lon="19.48654">
        <ele>57.679532</ele>
        <time>2022-05-26T08:07:21.239Z</time>
      </trkpt>
      <trkpt lat="42.04746" lon="19.48647">
        <ele>57.528909</ele>
        <time>2022-05-26T08:07:23.217Z</time>
      </trkpt>
      <trkpt lat="42.04736" lon="19.48641">
        <ele>57.374651</ele>
        <time>2022-05-26T08:07:25.243Z</time>
      </trkpt>
      <trkpt lat="42.04727" lon="19.48634">
        <ele>57.222476</ele>
        <time>2022-05-26T08:07:27.222Z</time>
      </trkpt>
      <trkpt lat="42.04717" lon="19.48629">
        <ele>57.071759</ele>
        <time>2022-05-26T08:07:29.240Z</time>
      </trkpt>
      <trkpt lat="42.04709" lon="19.48623">
        <ele>56.933924</ele>
        <time>2022-05-26T08:07:31.236Z</time>
      </trkpt>
      <trkpt lat="42.04699" lon="19.48618">
        <ele>56.789293</ele>
        <time>2022-05-26T08:07:33.272Z</time>
      </trkpt>
      <trkpt lat="42.04691" lon="19.48612">
        <ele>56.653788</ele>
        <time>2022-05-26T08:07:35.237Z</time>
      </trkpt>
      <trkpt lat="42.04682" lon="19.48607">
        <ele>56.520248</ele>
        <time>2022-05-26T08:07:37.234Z</time>
      </trkpt>
      <trkpt lat="42.04674" lon="19.486">
        <ele>56.3879</ele>
        <time>2022-05-26T08:07:39.248Z</time>
      </trkpt>
      <trkpt lat="42.04664" lon="19.4859">
        <ele>56.210803</ele>
        <time>2022-05-26T08:07:42.238Z</time>
      </trkpt>
      <trkpt lat="42.04657" lon="19.48579">
        <ele>56.059703</ele>
        <time>2022-05-26T08:07:45.222Z</time>
      </trkpt>
      <trkpt lat="42.04649" lon="19.48568">
        <ele>55.903451</ele>
        <time>2022-05-26T08:07:48.214Z</time>
      </trkpt>
      <trkpt lat="42.04641" lon="19.48557">
        <ele>55.746128</ele>
        <time>2022-05-26T08:07:51.233Z</time>
      </trkpt>
      <trkpt lat="42.04632" lon="19.48548">
        <ele>55.592564</ele>
        <time>2022-05-26T08:07:54.238Z</time>
      </trkpt>
      <trkpt lat="42.04622" lon="19.48541">
        <ele>55.434845</ele>
        <time>2022-05-26T08:07:57.237Z</time>
      </trkpt>
      <trkpt lat="42.0461" lon="19.48535">
        <ele>55.261767</ele>
        <time>2022-05-26T08:08:00.241Z</time>
      </trkpt>
      <trkpt lat="42.04597" lon="19.48532">
        <ele>55.077803</ele>
        <time>2022-05-26T08:08:03.240Z</time>
      </trkpt>
      <trkpt lat="42.04587" lon="19.4853">
        <ele>54.944485</ele>
        <time>2022-05-26T08:08:05.328Z</time>
      </trkpt>
      <trkpt lat="42.04577" lon="19.48527">
        <ele>54.803479</ele>
        <time>2022-05-26T08:08:07.232Z</time>
      </trkpt>
      <trkpt lat="42.04566" lon="19.48523">
        <ele>54.64446</ele>
        <time>2022-05-26T08:08:09.237Z</time>
      </trkpt>
      <trkpt lat="42.04554" lon="19.48517">
        <ele>54.478608</ele>
        <time>2022-05-26T08:08:11.233Z</time>
      </trkpt>
      <trkpt lat="42.04543" lon="19.48509">
        <ele>54.309109</ele>
        <time>2022-05-26T08:08:13.221Z</time>
      </trkpt>
      <trkpt lat="42.04532" lon="19.48501">
        <ele>54.134795</ele>
        <time>2022-05-26T08:08:15.234Z</time>
      </trkpt>
      <trkpt lat="42.04521" lon="19.48492">
        <ele>53.953688</ele>
        <time>2022-05-26T08:08:17.239Z</time>
      </trkpt>
      <trkpt lat="42.0451" lon="19.48483">
        <ele>53.785027</ele>
        <time>2022-05-26T08:08:19.227Z</time>
      </trkpt>
      <trkpt lat="42.04499" lon="19.48473">
        <ele>53.743395</ele>
        <time>2022-05-26T08:08:21.236Z</time>
      </trkpt>
      <trkpt lat="42.04488" lon="19.48464">
        <ele>53.702303</ele>
        <time>2022-05-26T08:08:23.268Z</time>
      </trkpt>
      <trkpt lat="42.04478" lon="19.48456">
        <ele>53.663288</ele>
        <time>2022-05-26T08:08:25.225Z</time>
      </trkpt>
      <trkpt lat="42.04468" lon="19.48447">
        <ele>53.625771</ele>
        <time>2022-05-26T08:08:27.243Z</time>
      </trkpt>
      <trkpt lat="42.04457" lon="19.48438">
        <ele>53.587572</ele>
        <time>2022-05-26T08:08:29.240Z</time>
      </trkpt>
      <trkpt lat="42.04448" lon="19.4843">
        <ele>53.550577</ele>
        <time>2022-05-26T08:08:31.218Z</time>
      </trkpt>
      <trkpt lat="42.04438" lon="19.48422">
        <ele>53.513959</ele>
        <time>2022-05-26T08:08:33.224Z</time>
      </trkpt>
      <trkpt lat="42.04428" lon="19.48414">
        <ele>53.476946</ele>
        <time>2022-05-26T08:08:35.232Z</time>
      </trkpt>
      <trkpt lat="42.04418" lon="19.48405">
        <ele>53.439695</ele>
        <time>2022-05-26T08:08:37.240Z</time>
      </trkpt>
      <trkpt lat="42.04408" lon="19.48397">
        <ele>53.403048</ele>
        <time>2022-05-26T08:08:39.236Z</time>
      </trkpt>
      <trkpt lat="42.04398" lon="19.4839">
        <ele>53.36699</ele>
        <time>2022-05-26T08:08:41.232Z</time>
      </trkpt>
      <trkpt lat="42.04389" lon="19.48384">
        <ele>53.332981</ele>
        <time>2022-05-26T08:08:43.312Z</time>
      </trkpt>
      <trkpt lat="42.04379" lon="19.48377">
        <ele>53.298939</ele>
        <time>2022-05-26T08:08:45.246Z</time>
      </trkpt>
      <trkpt lat="42.0437" lon="19.48371">
        <ele>53.266462</ele>
        <time>2022-05-26T08:08:47.249Z</time>
      </trkpt>
      <trkpt lat="42.04361" lon="19.48365">
        <ele>53.235261</ele>
        <time>2022-05-26T08:08:49.224Z</time>
      </trkpt>
      <trkpt lat="42.04353" lon="19.48359">
        <ele>53.235727</ele>
        <time>2022-05-26T08:08:51.245Z</time>
      </trkpt>
      <trkpt lat="42.04344" lon="19.48353">
        <ele>53.321672</ele>
        <time>2022-05-26T08:08:53.242Z</time>
      </trkpt>
      <trkpt lat="42.04335" lon="19.48348">
        <ele>53.404999</ele>
        <time>2022-05-26T08:08:55.223Z</time>
      </trkpt>
      <trkpt lat="42.04326" lon="19.48342">
        <ele>53.489362</ele>
        <time>2022-05-26T08:08:57.234Z</time>
      </trkpt>
      <trkpt lat="42.04317" lon="19.48336">
        <ele>53.575113</ele>
        <time>2022-05-26T08:08:59.243Z</time>
      </trkpt>
      <trkpt lat="42.04308" lon="19.4833">
        <ele>53.65878</ele>
        <time>2022-05-26T08:09:01.331Z</time>
      </trkpt>
      <trkpt lat="42.04299" lon="19.48324">
        <ele>53.743965</ele>
        <time>2022-05-26T08:09:03.224Z</time>
      </trkpt>
      <trkpt lat="42.04289" lon="19.48317">
        <ele>53.834352</ele>
        <time>2022-05-26T08:09:05.245Z</time>
      </trkpt>
      <trkpt lat="42.0428" lon="19.48311">
        <ele>53.920787</ele>
        <time>2022-05-26T08:09:07.214Z</time>
      </trkpt>
      <trkpt lat="42.04271" lon="19.48305">
        <ele>54.00787</ele>
        <time>2022-05-26T08:09:09.266Z</time>
      </trkpt>
      <trkpt lat="42.04262" lon="19.48298">
        <ele>54.092572</ele>
        <time>2022-05-26T08:09:11.230Z</time>
      </trkpt>
      <trkpt lat="42.04254" lon="19.4829">
        <ele>54.183012</ele>
        <time>2022-05-26T08:09:13.220Z</time>
      </trkpt>
      <trkpt lat="42.04245" lon="19.48284">
        <ele>54.264712</ele>
        <time>2022-05-26T08:09:15.252Z</time>
      </trkpt>
      <trkpt lat="42.04236" lon="19.48278">
        <ele>54.348666</ele>
        <time>2022-05-26T08:09:17.239Z</time>
      </trkpt>
      <trkpt lat="42.04228" lon="19.48272">
        <ele>54.429321</ele>
        <time>2022-05-26T08:09:19.220Z</time>
      </trkpt>
      <trkpt lat="42.04219" lon="19.48266">
        <ele>54.511621</ele>
        <time>2022-05-26T08:09:21.228Z</time>
      </trkpt>
      <trkpt lat="42.04211" lon="19.4826">
        <ele>54.591693</ele>
        <time>2022-05-26T08:09:23.229Z</time>
      </trkpt>
      <trkpt lat="42.04199" lon="19.48252">
        <ele>54.707353</ele>
        <time>2022-05-26T08:09:26.242Z</time>
      </trkpt>
      <trkpt lat="42.0419" lon="19.48246">
        <ele>54.708699</ele>
        <time>2022-05-26T08:09:28.238Z</time>
      </trkpt>
      <trkpt lat="42.04182" lon="19.4824">
        <ele>54.659926</ele>
        <time>2022-05-26T08:09:30.222Z</time>
      </trkpt>
      <trkpt lat="42.04173" lon="19.48234">
        <ele>54.607717</ele>
        <time>2022-05-26T08:09:32.233Z</time>
      </trkpt>
      <trkpt lat="42.04164" lon="19.48229">
        <ele>54.554231</ele>
        <time>2022-05-26T08:09:34.243Z</time>
      </trkpt>
      <trkpt lat="42.04154" lon="19.48224">
        <ele>54.499919</ele>
        <time>2022-05-26T08:09:36.250Z</time>
      </trkpt>
      <trkpt lat="42.04144" lon="19.48218">
        <ele>54.44488</ele>
        <time>2022-05-26T08:09:38.299Z</time>
      </trkpt>
      <trkpt lat="42.04135" lon="19.48212">
        <ele>54.392152</ele>
        <time>2022-05-26T08:09:40.220Z</time>
      </trkpt>
      <trkpt lat="42.04126" lon="19.48206">
        <ele>54.339067</ele>
        <time>2022-05-26T08:09:42.245Z</time>
      </trkpt>
      <trkpt lat="42.04117" lon="19.48199">
        <ele>54.28558</ele>
        <time>2022-05-26T08:09:44.235Z</time>
      </trkpt>
      <trkpt lat="42.04108" lon="19.48194">
        <ele>54.232278</ele>
        <time>2022-05-26T08:09:46.237Z</time>
      </trkpt>
      <trkpt lat="42.04098" lon="19.48189">
        <ele>54.176641</ele>
        <time>2022-05-26T08:09:48.245Z</time>
      </trkpt>
      <trkpt lat="42.04088" lon="19.48185">
        <ele>54.122882</ele>
        <time>2022-05-26T08:09:50.220Z</time>
      </trkpt>
      <trkpt lat="42.04078" lon="19.48181">
        <ele>54.07085</ele>
        <time>2022-05-26T08:09:52.216Z</time>
      </trkpt>
      <trkpt lat="42.04069" lon="19.48177">
        <ele>54.02016</ele>
        <time>2022-05-26T08:09:54.238Z</time>
      </trkpt>
      <trkpt lat="42.0406" lon="19.48172">
        <ele>53.967635</ele>
        <time>2022-05-26T08:09:56.235Z</time>
      </trkpt>
      <trkpt lat="42.0405" lon="19.48168">
        <ele>53.914866</ele>
        <time>2022-05-26T08:09:58.211Z</time>
      </trkpt>
      <trkpt lat="42.0404" lon="19.48164">
        <ele>53.860491</ele>
        <time>2022-05-26T08:10:00.232Z</time>
      </trkpt>
      <trkpt lat="42.0403" lon="19.4816">
        <ele>53.805081</ele>
        <time>2022-05-26T08:10:02.226Z</time>
      </trkpt>
      <trkpt lat="42.04019" lon="19.48156">
        <ele>53.825908</ele>
        <time>2022-05-26T08:10:04.222Z</time>
      </trkpt>
      <trkpt lat="42.04009" lon="19.48154">
        <ele>53.853573</ele>
        <time>2022-05-26T08:10:06.267Z</time>
      </trkpt>
      <trkpt lat="42.03998" lon="19.48152">
        <ele>53.881525</ele>
        <time>2022-05-26T08:10:08.244Z</time>
      </trkpt>
      <trkpt lat="42.03986" lon="19.48151">
        <ele>53.910955</ele>
        <time>2022-05-26T08:10:10.239Z</time>
      </trkpt>
      <trkpt lat="42.03974" lon="19.48152">
        <ele>53.94061</ele>
        <time>2022-05-26T08:10:12.235Z</time>
      </trkpt>
      <trkpt lat="42.03962" lon="19.48153">
        <ele>53.97182</ele>
        <time>2022-05-26T08:10:14.244Z</time>
      </trkpt>
      <trkpt lat="42.0395" lon="19.48154">
        <ele>54.003308</ele>
        <time>2022-05-26T08:10:16.285Z</time>
      </trkpt>
      <trkpt lat="42.03937" lon="19.48155">
        <ele>54.034976</ele>
        <time>2022-05-26T08:10:18.243Z</time>
      </trkpt>
      <trkpt lat="42.03924" lon="19.48153">
        <ele>54.066998</ele>
        <time>2022-05-26T08:10:20.237Z</time>
      </trkpt>
      <trkpt lat="42.03912" lon="19.4815">
        <ele>54.099656</ele>
        <time>2022-05-26T08:10:22.238Z</time>
      </trkpt>
      <trkpt lat="42.039" lon="19.48146">
        <ele>54.131107</ele>
        <time>2022-05-26T08:10:24.235Z</time>
      </trkpt>
      <trkpt lat="42.03888" lon="19.48141">
        <ele>54.163036</ele>
        <time>2022-05-26T08:10:26.240Z</time>
      </trkpt>
      <trkpt lat="42.03877" lon="19.48133">
        <ele>54.194181</ele>
        <time>2022-05-26T08:10:28.219Z</time>
      </trkpt>
      <trkpt lat="42.03868" lon="19.48123">
        <ele>54.224128</ele>
        <time>2022-05-26T08:10:30.223Z</time>
      </trkpt>
      <trkpt lat="42.03859" lon="19.48113">
        <ele>54.252973</ele>
        <time>2022-05-26T08:10:32.223Z</time>
      </trkpt>
      <trkpt lat="42.03851" lon="19.48102">
        <ele>54.253252</ele>
        <time>2022-05-26T08:10:34.223Z</time>
      </trkpt>
      <trkpt lat="42.03842" lon="19.48092">
        <ele>54.250147</ele>
        <time>2022-05-26T08:10:36.223Z</time>
      </trkpt>
      <trkpt lat="42.03834" lon="19.48082">
        <ele>54.247098</ele>
        <time>2022-05-26T08:10:38.270Z</time>
      </trkpt>
      <trkpt lat="42.03826" lon="19.48073">
        <ele>54.244181</ele>
        <time>2022-05-26T08:10:40.234Z</time>
      </trkpt>
      <trkpt lat="42.03817" lon="19.48064">
        <ele>54.241336</ele>
        <time>2022-05-26T08:10:42.243Z</time>
      </trkpt>
      <trkpt lat="42.03809" lon="19.48056">
        <ele>54.238613</ele>
        <time>2022-05-26T08:10:44.257Z</time>
      </trkpt>
      <trkpt lat="42.03802" lon="19.48048">
        <ele>54.235917</ele>
        <time>2022-05-26T08:10:46.240Z</time>
      </trkpt>
      <trkpt lat="42.03794" lon="19.4804">
        <ele>54.233166</ele>
        <time>2022-05-26T08:10:48.244Z</time>
      </trkpt>
      <trkpt lat="42.03786" lon="19.48032">
        <ele>54.230559</ele>
        <time>2022-05-26T08:10:50.261Z</time>
      </trkpt>
      <trkpt lat="42.03779" lon="19.48023">
        <ele>54.227889</ele>
        <time>2022-05-26T08:10:52.228Z</time>
      </trkpt>
      <trkpt lat="42.03771" lon="19.48016">
        <ele>54.225201</ele>
        <time>2022-05-26T08:10:54.253Z</time>
      </trkpt>
      <trkpt lat="42.03763" lon="19.48008">
        <ele>54.222694</ele>
        <time>2022-05-26T08:10:56.273Z</time>
      </trkpt>
      <trkpt lat="42.03756" lon="19.48001">
        <ele>54.220075</ele>
        <time>2022-05-26T08:10:58.245Z</time>
      </trkpt>
      <trkpt lat="42.03748" lon="19.47992">
        <ele>54.217382</ele>
        <time>2022-05-26T08:11:00.238Z</time>
      </trkpt>
      <trkpt lat="42.03741" lon="19.47984">
        <ele>54.214724</ele>
        <time>2022-05-26T08:11:02.259Z</time>
      </trkpt>
      <trkpt lat="42.03733" lon="19.47976">
        <ele>54.212082</ele>
        <time>2022-05-26T08:11:04.244Z</time>
      </trkpt>
      <trkpt lat="42.03725" lon="19.47969">
        <ele>54.209474</ele>
        <time>2022-05-26T08:11:06.252Z</time>
      </trkpt>
      <trkpt lat="42.03716" lon="19.47962">
        <ele>54.203904</ele>
        <time>2022-05-26T08:11:08.279Z</time>
      </trkpt>
      <trkpt lat="42.03708" lon="19.47955">
        <ele>54.162512</ele>
        <time>2022-05-26T08:11:10.221Z</time>
      </trkpt>
      <trkpt lat="42.03699" lon="19.47948">
        <ele>54.120556</ele>
        <time>2022-05-26T08:11:12.229Z</time>
      </trkpt>
      <trkpt lat="42.03689" lon="19.47941">
        <ele>54.075905</ele>
        <time>2022-05-26T08:11:14.263Z</time>
      </trkpt>
      <trkpt lat="42.0368" lon="19.47934">
        <ele>54.032214</ele>
        <time>2022-05-26T08:11:16.237Z</time>
      </trkpt>
      <trkpt lat="42.0367" lon="19.47927">
        <ele>53.985915</ele>
        <time>2022-05-26T08:11:18.244Z</time>
      </trkpt>
      <trkpt lat="42.0366" lon="19.4792">
        <ele>53.939175</ele>
        <time>2022-05-26T08:11:20.238Z</time>
      </trkpt>
      <trkpt lat="42.0365" lon="19.47913">
        <ele>53.891469</ele>
        <time>2022-05-26T08:11:22.234Z</time>
      </trkpt>
      <trkpt lat="42.03639" lon="19.47906">
        <ele>53.842292</ele>
        <time>2022-05-26T08:11:24.252Z</time>
      </trkpt>
      <trkpt lat="42.03628" lon="19.479">
        <ele>53.791987</ele>
        <time>2022-05-26T08:11:26.248Z</time>
      </trkpt>
      <trkpt lat="42.03616" lon="19.47894">
        <ele>53.742501</ele>
        <time>2022-05-26T08:11:28.220Z</time>
      </trkpt>
      <trkpt lat="42.03605" lon="19.47888">
        <ele>53.692569</ele>
        <time>2022-05-26T08:11:30.230Z</time>
      </trkpt>
      <trkpt lat="42.03594" lon="19.47883">
        <ele>53.643232</ele>
        <time>2022-05-26T08:11:32.236Z</time>
      </trkpt>
      <trkpt lat="42.03583" lon="19.47878">
        <ele>53.596921</ele>
        <time>2022-05-26T08:11:34.233Z</time>
      </trkpt>
      <trkpt lat="42.03572" lon="19.47873">
        <ele>53.550905</ele>
        <time>2022-05-26T08:11:36.264Z</time>
      </trkpt>
      <trkpt lat="42.03563" lon="19.47869">
        <ele>53.508007</ele>
        <time>2022-05-26T08:11:38.233Z</time>
      </trkpt>
      <trkpt lat="42.03552" lon="19.47864">
        <ele>53.466088</ele>
        <time>2022-05-26T08:11:40.233Z</time>
      </trkpt>
      <trkpt lat="42.03542" lon="19.4786">
        <ele>53.454317</ele>
        <time>2022-05-26T08:11:42.246Z</time>
      </trkpt>
      <trkpt lat="42.03533" lon="19.47855">
        <ele>53.443126</ele>
        <time>2022-05-26T08:11:44.245Z</time>
      </trkpt>
      <trkpt lat="42.03524" lon="19.47851">
        <ele>53.432251</ele>
        <time>2022-05-26T08:11:46.249Z</time>
      </trkpt>
      <trkpt lat="42.03514" lon="19.47846">
        <ele>53.420518</ele>
        <time>2022-05-26T08:11:48.230Z</time>
      </trkpt>
      <trkpt lat="42.03504" lon="19.47842">
        <ele>53.409087</ele>
        <time>2022-05-26T08:11:50.237Z</time>
      </trkpt>
      <trkpt lat="42.03494" lon="19.47838">
        <ele>53.397706</ele>
        <time>2022-05-26T08:11:52.232Z</time>
      </trkpt>
      <trkpt lat="42.03484" lon="19.47834">
        <ele>53.386154</ele>
        <time>2022-05-26T08:11:54.239Z</time>
      </trkpt>
      <trkpt lat="42.03474" lon="19.47831">
        <ele>53.374409</ele>
        <time>2022-05-26T08:11:56.235Z</time>
      </trkpt>
      <trkpt lat="42.03464" lon="19.47827">
        <ele>53.363132</ele>
        <time>2022-05-26T08:11:58.269Z</time>
      </trkpt>
      <trkpt lat="42.03454" lon="19.47822">
        <ele>53.351295</ele>
        <time>2022-05-26T08:12:00.234Z</time>
      </trkpt>
      <trkpt lat="42.03445" lon="19.47815">
        <ele>53.33988</ele>
        <time>2022-05-26T08:12:02.235Z</time>
      </trkpt>
      <trkpt lat="42.03437" lon="19.47807">
        <ele>53.327914</ele>
        <time>2022-05-26T08:12:04.290Z</time>
      </trkpt>
      <trkpt lat="42.03427" lon="19.47798">
        <ele>53.315385</ele>
        <time>2022-05-26T08:12:06.252Z</time>
      </trkpt>
      <trkpt lat="42.03419" lon="19.47789">
        <ele>53.303164</ele>
        <time>2022-05-26T08:12:08.221Z</time>
      </trkpt>
      <trkpt lat="42.0341" lon="19.4778">
        <ele>53.291181</ele>
        <time>2022-05-26T08:12:10.235Z</time>
      </trkpt>
      <trkpt lat="42.03401" lon="19.47772">
        <ele>53.278472</ele>
        <time>2022-05-26T08:12:12.237Z</time>
      </trkpt>
      <trkpt lat="42.03391" lon="19.47763">
        <ele>53.283945</ele>
        <time>2022-05-26T08:12:14.230Z</time>
      </trkpt>
      <trkpt lat="42.03383" lon="19.47754">
        <ele>53.57321</ele>
        <time>2022-05-26T08:12:16.232Z</time>
      </trkpt>
      <trkpt lat="42.03373" lon="19.47745">
        <ele>53.877814</ele>
        <time>2022-05-26T08:12:18.245Z</time>
      </trkpt>
      <trkpt lat="42.03363" lon="19.47737">
        <ele>54.187751</ele>
        <time>2022-05-26T08:12:20.242Z</time>
      </trkpt>
      <trkpt lat="42.03354" lon="19.47728">
        <ele>54.4911</ele>
        <time>2022-05-26T08:12:22.241Z</time>
      </trkpt>
      <trkpt lat="42.03344" lon="19.4772">
        <ele>54.80326</ele>
        <time>2022-05-26T08:12:24.244Z</time>
      </trkpt>
      <trkpt lat="42.03333" lon="19.47711">
        <ele>55.140824</ele>
        <time>2022-05-26T08:12:26.269Z</time>
      </trkpt>
      <trkpt lat="42.03323" lon="19.47702">
        <ele>55.460741</ele>
        <time>2022-05-26T08:12:28.212Z</time>
      </trkpt>
      <trkpt lat="42.03313" lon="19.47693">
        <ele>55.788235</ele>
        <time>2022-05-26T08:12:30.220Z</time>
      </trkpt>
      <trkpt lat="42.03304" lon="19.47683">
        <ele>56.094918</ele>
        <time>2022-05-26T08:12:32.309Z</time>
      </trkpt>
      <trkpt lat="42.03296" lon="19.47672">
        <ele>56.38018</ele>
        <time>2022-05-26T08:12:34.224Z</time>
      </trkpt>
      <trkpt lat="42.03288" lon="19.47661">
        <ele>56.683415</ele>
        <time>2022-05-26T08:12:36.244Z</time>
      </trkpt>
      <trkpt lat="42.0328" lon="19.47649">
        <ele>56.998172</ele>
        <time>2022-05-26T08:12:38.237Z</time>
      </trkpt>
      <trkpt lat="42.03272" lon="19.47637">
        <ele>57.323752</ele>
        <time>2022-05-26T08:12:40.221Z</time>
      </trkpt>
      <trkpt lat="42.03264" lon="19.47625">
        <ele>57.649687</ele>
        <time>2022-05-26T08:12:42.247Z</time>
      </trkpt>
      <trkpt lat="42.03255" lon="19.47613">
        <ele>57.973819</ele>
        <time>2022-05-26T08:12:44.258Z</time>
      </trkpt>
      <trkpt lat="42.03248" lon="19.47601">
        <ele>57.863253</ele>
        <time>2022-05-26T08:12:46.231Z</time>
      </trkpt>
      <trkpt lat="42.0324" lon="19.4759">
        <ele>57.656618</ele>
        <time>2022-05-26T08:12:48.222Z</time>
      </trkpt>
      <trkpt lat="42.03233" lon="19.47579">
        <ele>57.469309</ele>
        <time>2022-05-26T08:12:50.232Z</time>
      </trkpt>
      <trkpt lat="42.03226" lon="19.47569">
        <ele>57.283557</ele>
        <time>2022-05-26T08:12:52.235Z</time>
      </trkpt>
      <trkpt lat="42.03219" lon="19.47558">
        <ele>57.099011</ele>
        <time>2022-05-26T08:12:54.279Z</time>
      </trkpt>
      <trkpt lat="42.03211" lon="19.47548">
        <ele>56.913351</ele>
        <time>2022-05-26T08:12:56.245Z</time>
      </trkpt>
      <trkpt lat="42.03204" lon="19.4754">
        <ele>56.739846</ele>
        <time>2022-05-26T08:12:58.277Z</time>
      </trkpt>
      <trkpt lat="42.03196" lon="19.4753">
        <ele>56.550875</ele>
        <time>2022-05-26T08:13:00.226Z</time>
      </trkpt>
      <trkpt lat="42.03188" lon="19.4752">
        <ele>56.354404</ele>
        <time>2022-05-26T08:13:02.239Z</time>
      </trkpt>
      <trkpt lat="42.0318" lon="19.4751">
        <ele>56.156179</ele>
        <time>2022-05-26T08:13:04.220Z</time>
      </trkpt>
      <trkpt lat="42.03171" lon="19.475">
        <ele>55.958387</ele>
        <time>2022-05-26T08:13:06.232Z</time>
      </trkpt>
      <trkpt lat="42.03163" lon="19.4749">
        <ele>55.766312</ele>
        <time>2022-05-26T08:13:08.242Z</time>
      </trkpt>
      <trkpt lat="42.03156" lon="19.47481">
        <ele>55.582629</ele>
        <time>2022-05-26T08:13:10.244Z</time>
      </trkpt>
      <trkpt lat="42.03148" lon="19.47473">
        <ele>55.402652</ele>
        <time>2022-05-26T08:13:12.240Z</time>
      </trkpt>
      <trkpt lat="42.0314" lon="19.47465">
        <ele>55.2253</ele>
        <time>2022-05-26T08:13:14.248Z</time>
      </trkpt>
      <trkpt lat="42.03132" lon="19.47458">
        <ele>55.052561</ele>
        <time>2022-05-26T08:13:16.281Z</time>
      </trkpt>
      <trkpt lat="42.0312" lon="19.47448">
        <ele>54.821743</ele>
        <time>2022-05-26T08:13:19.255Z</time>
      </trkpt>
      <trkpt lat="42.03112" lon="19.47441">
        <ele>54.742075</ele>
        <time>2022-05-26T08:13:21.253Z</time>
      </trkpt>
      <trkpt lat="42.03105" lon="19.47435">
        <ele>54.663906</ele>
        <time>2022-05-26T08:13:23.234Z</time>
      </trkpt>
      <trkpt lat="42.03097" lon="19.47426">
        <ele>54.581436</ele>
        <time>2022-05-26T08:13:25.264Z</time>
      </trkpt>
      <trkpt lat="42.03091" lon="19.47417">
        <ele>54.501089</ele>
        <time>2022-05-26T08:13:27.239Z</time>
      </trkpt>
      <trkpt lat="42.03085" lon="19.47407">
        <ele>54.419917</ele>
        <time>2022-05-26T08:13:29.244Z</time>
      </trkpt>
      <trkpt lat="42.03079" lon="19.47397">
        <ele>54.335255</ele>
        <time>2022-05-26T08:13:31.254Z</time>
      </trkpt>
      <trkpt lat="42.03074" lon="19.47385">
        <ele>54.243749</ele>
        <time>2022-05-26T08:13:33.261Z</time>
      </trkpt>
      <trkpt lat="42.03068" lon="19.47373">
        <ele>54.15462</ele>
        <time>2022-05-26T08:13:35.225Z</time>
      </trkpt>
      <trkpt lat="42.03062" lon="19.4736">
        <ele>54.061101</ele>
        <time>2022-05-26T08:13:37.228Z</time>
      </trkpt>
      <trkpt lat="42.03056" lon="19.47348">
        <ele>53.966042</ele>
        <time>2022-05-26T08:13:39.243Z</time>
      </trkpt>
      <trkpt lat="42.0305" lon="19.47336">
        <ele>53.872139</ele>
        <time>2022-05-26T08:13:41.240Z</time>
      </trkpt>
      <trkpt lat="42.03042" lon="19.47325">
        <ele>53.777468</ele>
        <time>2022-05-26T08:13:43.235Z</time>
      </trkpt>
      <trkpt lat="42.03033" lon="19.47318">
        <ele>53.683659</ele>
        <time>2022-05-26T08:13:45.237Z</time>
      </trkpt>
      <trkpt lat="42.03022" lon="19.47315">
        <ele>53.592122</ele>
        <time>2022-05-26T08:13:47.239Z</time>
      </trkpt>
      <trkpt lat="42.03012" lon="19.47314">
        <ele>53.50376</ele>
        <time>2022-05-26T08:13:49.248Z</time>
      </trkpt>
      <trkpt lat="42.03001" lon="19.47311">
        <ele>53.409121</ele>
        <time>2022-05-26T08:13:51.241Z</time>
      </trkpt>
      <trkpt lat="42.02992" lon="19.47308">
        <ele>53.322916</ele>
        <time>2022-05-26T08:13:53.224Z</time>
      </trkpt>
      <trkpt lat="42.02983" lon="19.47304">
        <ele>53.333416</ele>
        <time>2022-05-26T08:13:55.214Z</time>
      </trkpt>
      <trkpt lat="42.02972" lon="19.47297">
        <ele>53.464539</ele>
        <time>2022-05-26T08:13:58.277Z</time>
      </trkpt>
      <trkpt lat="42.02963" lon="19.47288">
        <ele>53.580376</ele>
        <time>2022-05-26T08:14:01.232Z</time>
      </trkpt>
      <trkpt lat="42.02954" lon="19.47278">
        <ele>53.704046</ele>
        <time>2022-05-26T08:14:04.233Z</time>
      </trkpt>
      <trkpt lat="42.02945" lon="19.47268">
        <ele>53.830619</ele>
        <time>2022-05-26T08:14:07.231Z</time>
      </trkpt>
      <trkpt lat="42.02935" lon="19.47257">
        <ele>53.965691</ele>
        <time>2022-05-26T08:14:10.242Z</time>
      </trkpt>
      <trkpt lat="42.02929" lon="19.47248">
        <ele>54.062608</ele>
        <time>2022-05-26T08:14:12.241Z</time>
      </trkpt>
      <trkpt lat="42.02922" lon="19.47239">
        <ele>54.162033</ele>
        <time>2022-05-26T08:14:14.235Z</time>
      </trkpt>
      <trkpt lat="42.02914" lon="19.47224">
        <ele>54.307258</ele>
        <time>2022-05-26T08:14:17.240Z</time>
      </trkpt>
      <trkpt lat="42.0291" lon="19.47213">
        <ele>54.41077</ele>
        <time>2022-05-26T08:14:19.272Z</time>
      </trkpt>
      <trkpt lat="42.02905" lon="19.47201">
        <ele>54.513945</ele>
        <time>2022-05-26T08:14:21.235Z</time>
      </trkpt>
      <trkpt lat="42.029" lon="19.4719">
        <ele>54.617457</ele>
        <time>2022-05-26T08:14:23.243Z</time>
      </trkpt>
      <trkpt lat="42.02894" lon="19.47179">
        <ele>54.72273</ele>
        <time>2022-05-26T08:14:25.243Z</time>
      </trkpt>
      <trkpt lat="42.02889" lon="19.47168">
        <ele>54.829287</ele>
        <time>2022-05-26T08:14:27.233Z</time>
      </trkpt>
      <trkpt lat="42.02883" lon="19.47157">
        <ele>54.935189</ele>
        <time>2022-05-26T08:14:29.243Z</time>
      </trkpt>
      <trkpt lat="42.02877" lon="19.47146">
        <ele>55.043629</ele>
        <time>2022-05-26T08:14:31.253Z</time>
      </trkpt>
      <trkpt lat="42.0287" lon="19.47136">
        <ele>55.148967</ele>
        <time>2022-05-26T08:14:33.216Z</time>
      </trkpt>
      <trkpt lat="42.02864" lon="19.47125">
        <ele>55.184661</ele>
        <time>2022-05-26T08:14:35.229Z</time>
      </trkpt>
      <trkpt lat="42.02859" lon="19.47115">
        <ele>55.165944</ele>
        <time>2022-05-26T08:14:37.235Z</time>
      </trkpt>
      <trkpt lat="42.02853" lon="19.47106">
        <ele>55.146666</ele>
        <time>2022-05-26T08:14:39.241Z</time>
      </trkpt>
      <trkpt lat="42.02845" lon="19.47096">
        <ele>55.1258</ele>
        <time>2022-05-26T08:14:41.227Z</time>
      </trkpt>
      <trkpt lat="42.02837" lon="19.47086">
        <ele>55.10406</ele>
        <time>2022-05-26T08:14:43.242Z</time>
      </trkpt>
      <trkpt lat="42.02829" lon="19.47078">
        <ele>55.082064</ele>
        <time>2022-05-26T08:14:45.231Z</time>
      </trkpt>
      <trkpt lat="42.02819" lon="19.47069">
        <ele>55.059237</ele>
        <time>2022-05-26T08:14:47.252Z</time>
      </trkpt>
      <trkpt lat="42.02809" lon="19.47062">
        <ele>55.03616</ele>
        <time>2022-05-26T08:14:49.253Z</time>
      </trkpt>
      <trkpt lat="42.02799" lon="19.47055">
        <ele>55.012848</ele>
        <time>2022-05-26T08:14:51.219Z</time>
      </trkpt>
      <trkpt lat="42.02788" lon="19.47048">
        <ele>54.988603</ele>
        <time>2022-05-26T08:14:53.244Z</time>
      </trkpt>
      <trkpt lat="42.02778" lon="19.47041">
        <ele>54.964907</ele>
        <time>2022-05-26T08:14:55.250Z</time>
      </trkpt>
      <trkpt lat="42.02769" lon="19.47033">
        <ele>54.942587</ele>
        <time>2022-05-26T08:14:57.251Z</time>
      </trkpt>
      <trkpt lat="42.0276" lon="19.47026">
        <ele>54.92059</ele>
        <time>2022-05-26T08:14:59.237Z</time>
      </trkpt>
      <trkpt lat="42.0275" lon="19.47019">
        <ele>54.898734</ele>
        <time>2022-05-26T08:15:01.242Z</time>
      </trkpt>
      <trkpt lat="42.02741" lon="19.47012">
        <ele>54.877803</ele>
        <time>2022-05-26T08:15:03.234Z</time>
      </trkpt>
      <trkpt lat="42.02732" lon="19.47005">
        <ele>54.857125</ele>
        <time>2022-05-26T08:15:05.273Z</time>
      </trkpt>
      <trkpt lat="42.02724" lon="19.46999">
        <ele>54.837854</ele>
        <time>2022-05-26T08:15:07.227Z</time>
      </trkpt>
      <trkpt lat="42.02716" lon="19.46993">
        <ele>54.934304</ele>
        <time>2022-05-26T08:15:09.219Z</time>
      </trkpt>
      <trkpt lat="42.02707" lon="19.46987">
        <ele>55.135603</ele>
        <time>2022-05-26T08:15:11.242Z</time>
      </trkpt>
      <trkpt lat="42.02698" lon="19.46981">
        <ele>55.327739</ele>
        <time>2022-05-26T08:15:13.240Z</time>
      </trkpt>
      <trkpt lat="42.0269" lon="19.46975">
        <ele>55.516728</ele>
        <time>2022-05-26T08:15:15.260Z</time>
      </trkpt>
      <trkpt lat="42.02679" lon="19.46967">
        <ele>55.776554</ele>
        <time>2022-05-26T08:15:18.256Z</time>
      </trkpt>
      <trkpt lat="42.02667" lon="19.46959">
        <ele>56.033542</ele>
        <time>2022-05-26T08:15:21.228Z</time>
      </trkpt>
      <trkpt lat="42.02656" lon="19.46951">
        <ele>56.296923</ele>
        <time>2022-05-26T08:15:24.247Z</time>
      </trkpt>
      <trkpt lat="42.02644" lon="19.46943">
        <ele>56.55675</ele>
        <time>2022-05-26T08:15:27.227Z</time>
      </trkpt>
      <trkpt lat="42.02633" lon="19.46934">
        <ele>56.806447</ele>
        <time>2022-05-26T08:15:30.234Z</time>
      </trkpt>
      <trkpt lat="42.02623" lon="19.46925">
        <ele>57.04812</ele>
        <time>2022-05-26T08:15:33.237Z</time>
      </trkpt>
      <trkpt lat="42.02614" lon="19.46914">
        <ele>57.302606</ele>
        <time>2022-05-26T08:15:36.251Z</time>
      </trkpt>
      <trkpt lat="42.02603" lon="19.46902">
        <ele>57.575851</ele>
        <time>2022-05-26T08:15:39.243Z</time>
      </trkpt>
      <trkpt lat="42.02593" lon="19.4689">
        <ele>57.848136</ele>
        <time>2022-05-26T08:15:42.239Z</time>
      </trkpt>
      <trkpt lat="42.02581" lon="19.46882">
        <ele>58.105833</ele>
        <time>2022-05-26T08:15:45.252Z</time>
      </trkpt>
      <trkpt lat="42.02568" lon="19.46877">
        <ele>58.378829</ele>
        <time>2022-05-26T08:15:48.259Z</time>
      </trkpt>
      <trkpt lat="42.02559" lon="19.46874">
        <ele>58.435232</ele>
        <time>2022-05-26T08:15:50.235Z</time>
      </trkpt>
      <trkpt lat="42.0255" lon="19.46869">
        <ele>58.442578</ele>
        <time>2022-05-26T08:15:52.240Z</time>
      </trkpt>
      <trkpt lat="42.02541" lon="19.46864">
        <ele>58.449769</ele>
        <time>2022-05-26T08:15:54.267Z</time>
      </trkpt>
      <trkpt lat="42.02534" lon="19.46857">
        <ele>58.457029</ele>
        <time>2022-05-26T08:15:56.281Z</time>
      </trkpt>
      <trkpt lat="42.02527" lon="19.46848">
        <ele>58.464094</ele>
        <time>2022-05-26T08:15:58.226Z</time>
      </trkpt>
      <trkpt lat="42.02521" lon="19.46838">
        <ele>58.471186</ele>
        <time>2022-05-26T08:16:00.265Z</time>
      </trkpt>
      <trkpt lat="42.02515" lon="19.46828">
        <ele>58.47817</ele>
        <time>2022-05-26T08:16:02.241Z</time>
      </trkpt>
      <trkpt lat="42.02511" lon="19.46817">
        <ele>58.485123</ele>
        <time>2022-05-26T08:16:04.217Z</time>
      </trkpt>
      <trkpt lat="42.02507" lon="19.46805">
        <ele>58.492076</ele>
        <time>2022-05-26T08:16:06.274Z</time>
      </trkpt>
      <trkpt lat="42.02506" lon="19.46793">
        <ele>58.498983</ele>
        <time>2022-05-26T08:16:08.235Z</time>
      </trkpt>
      <trkpt lat="42.02505" lon="19.46781">
        <ele>58.505973</ele>
        <time>2022-05-26T08:16:10.225Z</time>
      </trkpt>
      <trkpt lat="42.02504" lon="19.46763">
        <ele>58.515759</ele>
        <time>2022-05-26T08:16:13.322Z</time>
      </trkpt>
      <trkpt lat="42.02503" lon="19.46747">
        <ele>58.524742</ele>
        <time>2022-05-26T08:16:16.231Z</time>
      </trkpt>
      <trkpt lat="42.025" lon="19.46733">
        <ele>58.532914</ele>
        <time>2022-05-26T08:16:19.235Z</time>
      </trkpt>
      <trkpt lat="42.02495" lon="19.46721">
        <ele>58.540746</ele>
        <time>2022-05-26T08:16:22.219Z</time>
      </trkpt>
      <trkpt lat="42.02489" lon="19.46707">
        <ele>58.549442</ele>
        <time>2022-05-26T08:16:25.237Z</time>
      </trkpt>
      <trkpt lat="42.02485" lon="19.46694">
        <ele>58.557492</ele>
        <time>2022-05-26T08:16:28.227Z</time>
      </trkpt>
      <trkpt lat="42.02482" lon="19.46681">
        <ele>58.56521</ele>
        <time>2022-05-26T08:16:31.215Z</time>
      </trkpt>
      <trkpt lat="42.02479" lon="19.46668">
        <ele>58.686544</ele>
        <time>2022-05-26T08:16:34.219Z</time>
      </trkpt>
      <trkpt lat="42.02477" lon="19.46655">
        <ele>58.810569</ele>
        <time>2022-05-26T08:16:37.217Z</time>
      </trkpt>
      <trkpt lat="42.02475" lon="19.46642">
        <ele>58.931336</ele>
        <time>2022-05-26T08:16:40.229Z</time>
      </trkpt>
      <trkpt lat="42.02473" lon="19.46629">
        <ele>59.049279</ele>
        <time>2022-05-26T08:16:43.261Z</time>
      </trkpt>
      <trkpt lat="42.02472" lon="19.46616">
        <ele>59.177773</ele>
        <time>2022-05-26T08:16:46.225Z</time>
      </trkpt>
      <trkpt lat="42.02472" lon="19.46601">
        <ele>59.307476</ele>
        <time>2022-05-26T08:16:49.246Z</time>
      </trkpt>
      <trkpt lat="42.02471" lon="19.46588">
        <ele>59.432513</ele>
        <time>2022-05-26T08:16:52.265Z</time>
      </trkpt>
      <trkpt lat="42.02471" lon="19.46574">
        <ele>59.563416</ele>
        <time>2022-05-26T08:16:55.240Z</time>
      </trkpt>
      <trkpt lat="42.0247" lon="19.46558">
        <ele>59.706028</ele>
        <time>2022-05-26T08:16:58.239Z</time>
      </trkpt>
      <trkpt lat="42.02469" lon="19.46542">
        <ele>59.853523</ele>
        <time>2022-05-26T08:17:01.258Z</time>
      </trkpt>
      <trkpt lat="42.02468" lon="19.46526">
        <ele>60.005516</ele>
        <time>2022-05-26T08:17:04.236Z</time>
      </trkpt>
      <trkpt lat="42.02468" lon="19.46508">
        <ele>60.17127</ele>
        <time>2022-05-26T08:17:07.233Z</time>
      </trkpt>
      <trkpt lat="42.02467" lon="19.46494">
        <ele>60.293832</ele>
        <time>2022-05-26T08:17:09.269Z</time>
      </trkpt>
      <trkpt lat="42.02466" lon="19.46481">
        <ele>60.415477</ele>
        <time>2022-05-26T08:17:11.243Z</time>
      </trkpt>
      <trkpt lat="42.02466" lon="19.46468">
        <ele>60.538807</ele>
        <time>2022-05-26T08:17:13.278Z</time>
      </trkpt>
      <trkpt lat="42.02465" lon="19.46455">
        <ele>60.659452</ele>
        <time>2022-05-26T08:17:15.247Z</time>
      </trkpt>
      <trkpt lat="42.02465" lon="19.46442">
        <ele>60.77717</ele>
        <time>2022-05-26T08:17:17.241Z</time>
      </trkpt>
      <trkpt lat="42.02465" lon="19.46429">
        <ele>60.66129</ele>
        <time>2022-05-26T08:17:19.236Z</time>
      </trkpt>
      <trkpt lat="42.02467" lon="19.46416">
        <ele>60.514673</ele>
        <time>2022-05-26T08:17:21.242Z</time>
      </trkpt>
      <trkpt lat="42.0247" lon="19.46404">
        <ele>60.373392</ele>
        <time>2022-05-26T08:17:23.250Z</time>
      </trkpt>
      <trkpt lat="42.02473" lon="19.46393">
        <ele>60.23701</ele>
        <time>2022-05-26T08:17:25.269Z</time>
      </trkpt>
      <trkpt lat="42.02479" lon="19.46377">
        <ele>60.039053</ele>
        <time>2022-05-26T08:17:28.310Z</time>
      </trkpt>
      <trkpt lat="42.02485" lon="19.46362">
        <ele>59.851825</ele>
        <time>2022-05-26T08:17:31.237Z</time>
      </trkpt>
      <trkpt lat="42.02488" lon="19.46348">
        <ele>59.683349</ele>
        <time>2022-05-26T08:17:34.245Z</time>
      </trkpt>
      <trkpt lat="42.0249" lon="19.46333">
        <ele>59.514897</ele>
        <time>2022-05-26T08:17:37.231Z</time>
      </trkpt>
      <trkpt lat="42.0249" lon="19.46318">
        <ele>59.344158</ele>
        <time>2022-05-26T08:17:40.244Z</time>
      </trkpt>
      <trkpt lat="42.0249" lon="19.46302">
        <ele>59.167811</ele>
        <time>2022-05-26T08:17:43.248Z</time>
      </trkpt>
      <trkpt lat="42.02491" lon="19.46286">
        <ele>58.990282</ele>
        <time>2022-05-26T08:17:46.214Z</time>
      </trkpt>
      <trkpt lat="42.0249" lon="19.4627">
        <ele>58.80781</ele>
        <time>2022-05-26T08:17:49.251Z</time>
      </trkpt>
      <trkpt lat="42.02488" lon="19.46252">
        <ele>58.604709</ele>
        <time>2022-05-26T08:17:52.260Z</time>
      </trkpt>
      <trkpt lat="42.02485" lon="19.46239">
        <ele>58.454246</ele>
        <time>2022-05-26T08:17:54.236Z</time>
      </trkpt>
      <trkpt lat="42.02482" lon="19.46226">
        <ele>58.295235</ele>
        <time>2022-05-26T08:17:56.217Z</time>
      </trkpt>
      <trkpt lat="42.02476" lon="19.46213">
        <ele>58.123326</ele>
        <time>2022-05-26T08:17:58.232Z</time>
      </trkpt>
      <trkpt lat="42.02467" lon="19.46202">
        <ele>57.765749</ele>
        <time>2022-05-26T08:18:00.221Z</time>
      </trkpt>
      <trkpt lat="42.02457" lon="19.4619">
        <ele>57.311312</ele>
        <time>2022-05-26T08:18:02.247Z</time>
      </trkpt>
      <trkpt lat="42.02447" lon="19.46178">
        <ele>56.811826</ele>
        <time>2022-05-26T08:18:04.228Z</time>
      </trkpt>
      <trkpt lat="42.02436" lon="19.46165">
        <ele>56.300807</ele>
        <time>2022-05-26T08:18:06.226Z</time>
      </trkpt>
      <trkpt lat="42.02424" lon="19.46153">
        <ele>55.760075</ele>
        <time>2022-05-26T08:18:08.242Z</time>
      </trkpt>
      <trkpt lat="42.02412" lon="19.4614">
        <ele>55.21421</ele>
        <time>2022-05-26T08:18:10.236Z</time>
      </trkpt>
      <trkpt lat="42.024" lon="19.46127">
        <ele>54.66515</ele>
        <time>2022-05-26T08:18:12.268Z</time>
      </trkpt>
      <trkpt lat="42.02388" lon="19.46114">
        <ele>54.136474</ele>
        <time>2022-05-26T08:18:14.256Z</time>
      </trkpt>
      <trkpt lat="42.02376" lon="19.46102">
        <ele>53.607068</ele>
        <time>2022-05-26T08:18:16.229Z</time>
      </trkpt>
      <trkpt lat="42.02365" lon="19.46089">
        <ele>53.087293</ele>
        <time>2022-05-26T08:18:18.276Z</time>
      </trkpt>
      <trkpt lat="42.02354" lon="19.46078">
        <ele>52.598459</ele>
        <time>2022-05-26T08:18:20.229Z</time>
      </trkpt>
      <trkpt lat="42.02344" lon="19.46067">
        <ele>52.131726</ele>
        <time>2022-05-26T08:18:22.241Z</time>
      </trkpt>
      <trkpt lat="42.02334" lon="19.46056">
        <ele>51.68579</ele>
        <time>2022-05-26T08:18:24.267Z</time>
      </trkpt>
      <trkpt lat="42.02324" lon="19.46045">
        <ele>51.672943</ele>
        <time>2022-05-26T08:18:26.248Z</time>
      </trkpt>
      <trkpt lat="42.02314" lon="19.46033">
        <ele>51.660105</ele>
        <time>2022-05-26T08:18:28.239Z</time>
      </trkpt>
      <trkpt lat="42.02305" lon="19.4602">
        <ele>51.646762</ele>
        <time>2022-05-26T08:18:30.277Z</time>
      </trkpt>
      <trkpt lat="42.02296" lon="19.46007">
        <ele>51.633596</ele>
        <time>2022-05-26T08:18:32.235Z</time>
      </trkpt>
      <trkpt lat="42.02288" lon="19.45993">
        <ele>51.621523</ele>
        <time>2022-05-26T08:18:34.238Z</time>
      </trkpt>
      <trkpt lat="42.02281" lon="19.4598">
        <ele>51.60939</ele>
        <time>2022-05-26T08:18:36.227Z</time>
      </trkpt>
      <trkpt lat="42.02274" lon="19.45968">
        <ele>51.598141</ele>
        <time>2022-05-26T08:18:38.245Z</time>
      </trkpt>
      <trkpt lat="42.02268" lon="19.45957">
        <ele>51.587835</ele>
        <time>2022-05-26T08:18:40.243Z</time>
      </trkpt>
      <trkpt lat="42.02262" lon="19.45946">
        <ele>51.578176</ele>
        <time>2022-05-26T08:18:42.237Z</time>
      </trkpt>
      <trkpt lat="42.02257" lon="19.45935">
        <ele>51.568565</ele>
        <time>2022-05-26T08:18:44.263Z</time>
      </trkpt>
      <trkpt lat="42.02251" lon="19.45924">
        <ele>51.558494</ele>
        <time>2022-05-26T08:18:46.239Z</time>
      </trkpt>
      <trkpt lat="42.02245" lon="19.45914">
        <ele>51.548895</ele>
        <time>2022-05-26T08:18:48.236Z</time>
      </trkpt>
      <trkpt lat="42.02239" lon="19.45903">
        <ele>51.539227</ele>
        <time>2022-05-26T08:18:50.255Z</time>
      </trkpt>
      <trkpt lat="42.02229" lon="19.45892">
        <ele>51.526388</ele>
        <time>2022-05-26T08:18:53.232Z</time>
      </trkpt>
      <trkpt lat="42.02219" lon="19.45881">
        <ele>51.513786</ele>
        <time>2022-05-26T08:18:56.256Z</time>
      </trkpt>
      <trkpt lat="42.02209" lon="19.4587">
        <ele>51.599554</ele>
        <time>2022-05-26T08:18:59.258Z</time>
      </trkpt>
      <trkpt lat="42.02201" lon="19.45863">
        <ele>51.704906</ele>
        <time>2022-05-26T08:19:01.228Z</time>
      </trkpt>
      <trkpt lat="42.02193" lon="19.45856">
        <ele>51.818324</ele>
        <time>2022-05-26T08:19:03.235Z</time>
      </trkpt>
      <trkpt lat="42.02184" lon="19.45848">
        <ele>51.93696</ele>
        <time>2022-05-26T08:19:05.236Z</time>
      </trkpt>
      <trkpt lat="42.02175" lon="19.4584">
        <ele>52.058961</ele>
        <time>2022-05-26T08:19:07.251Z</time>
      </trkpt>
      <trkpt lat="42.02166" lon="19.45833">
        <ele>52.177753</ele>
        <time>2022-05-26T08:19:09.221Z</time>
      </trkpt>
      <trkpt lat="42.02157" lon="19.45826">
        <ele>52.296246</ele>
        <time>2022-05-26T08:19:11.233Z</time>
      </trkpt>
      <trkpt lat="42.02148" lon="19.45819">
        <ele>52.415038</ele>
        <time>2022-05-26T08:19:13.234Z</time>
      </trkpt>
      <trkpt lat="42.0214" lon="19.45811">
        <ele>52.529167</ele>
        <time>2022-05-26T08:19:15.215Z</time>
      </trkpt>
      <trkpt lat="42.02134" lon="19.458">
        <ele>52.643877</ele>
        <time>2022-05-26T08:19:17.237Z</time>
      </trkpt>
      <trkpt lat="42.02129" lon="19.45788">
        <ele>52.761001</ele>
        <time>2022-05-26T08:19:19.240Z</time>
      </trkpt>
      <trkpt lat="42.02125" lon="19.45775">
        <ele>52.880251</ele>
        <time>2022-05-26T08:19:21.238Z</time>
      </trkpt>
      <trkpt lat="42.02121" lon="19.45762">
        <ele>53.000282</ele>
        <time>2022-05-26T08:19:23.213Z</time>
      </trkpt>
      <trkpt lat="42.02117" lon="19.4575">
        <ele>53.119102</ele>
        <time>2022-05-26T08:19:25.237Z</time>
      </trkpt>
      <trkpt lat="42.02111" lon="19.45738">
        <ele>53.239663</ele>
        <time>2022-05-26T08:19:27.235Z</time>
      </trkpt>
      <trkpt lat="42.02105" lon="19.45726">
        <ele>53.36315</ele>
        <time>2022-05-26T08:19:29.231Z</time>
      </trkpt>
      <trkpt lat="42.02097" lon="19.45716">
        <ele>53.487213</ele>
        <time>2022-05-26T08:19:31.226Z</time>
      </trkpt>
      <trkpt lat="42.02088" lon="19.45709">
        <ele>53.572948</ele>
        <time>2022-05-26T08:19:33.232Z</time>
      </trkpt>
      <trkpt lat="42.02078" lon="19.45703">
        <ele>53.592765</ele>
        <time>2022-05-26T08:19:35.229Z</time>
      </trkpt>
      <trkpt lat="42.02068" lon="19.45696">
        <ele>53.612811</ele>
        <time>2022-05-26T08:19:37.235Z</time>
      </trkpt>
      <trkpt lat="42.02058" lon="19.45689">
        <ele>53.632472</ele>
        <time>2022-05-26T08:19:39.225Z</time>
      </trkpt>
      <trkpt lat="42.0205" lon="19.4568">
        <ele>53.651906</ele>
        <time>2022-05-26T08:19:41.313Z</time>
      </trkpt>
      <trkpt lat="42.02041" lon="19.45671">
        <ele>53.672186</ele>
        <time>2022-05-26T08:19:43.219Z</time>
      </trkpt>
      <trkpt lat="42.02032" lon="19.45661">
        <ele>53.694165</ele>
        <time>2022-05-26T08:19:45.262Z</time>
      </trkpt>
      <trkpt lat="42.02022" lon="19.45654">
        <ele>53.714965</ele>
        <time>2022-05-26T08:19:47.249Z</time>
      </trkpt>
      <trkpt lat="42.02011" lon="19.45647">
        <ele>53.737225</ele>
        <time>2022-05-26T08:19:49.241Z</time>
      </trkpt>
      <trkpt lat="42.01999" lon="19.4564">
        <ele>53.759699</ele>
        <time>2022-05-26T08:19:51.217Z</time>
      </trkpt>
      <trkpt lat="42.01988" lon="19.45633">
        <ele>53.782392</ele>
        <time>2022-05-26T08:19:53.245Z</time>
      </trkpt>
      <trkpt lat="42.01977" lon="19.45626">
        <ele>53.804535</ele>
        <time>2022-05-26T08:19:55.253Z</time>
      </trkpt>
      <trkpt lat="42.01966" lon="19.45619">
        <ele>53.825964</ele>
        <time>2022-05-26T08:19:57.231Z</time>
      </trkpt>
      <trkpt lat="42.01956" lon="19.45612">
        <ele>53.846353</ele>
        <time>2022-05-26T08:19:59.237Z</time>
      </trkpt>
      <trkpt lat="42.01947" lon="19.45605">
        <ele>53.866448</ele>
        <time>2022-05-26T08:20:01.240Z</time>
      </trkpt>
      <trkpt lat="42.01937" lon="19.45598">
        <ele>53.886513</ele>
        <time>2022-05-26T08:20:03.237Z</time>
      </trkpt>
      <trkpt lat="42.01927" lon="19.45591">
        <ele>53.958086</ele>
        <time>2022-05-26T08:20:05.239Z</time>
      </trkpt>
      <trkpt lat="42.01918" lon="19.45584">
        <ele>54.064527</ele>
        <time>2022-05-26T08:20:07.234Z</time>
      </trkpt>
      <trkpt lat="42.01909" lon="19.45577">
        <ele>54.16475</ele>
        <time>2022-05-26T08:20:09.236Z</time>
      </trkpt>
      <trkpt lat="42.019" lon="19.45568">
        <ele>54.267088</ele>
        <time>2022-05-26T08:20:11.231Z</time>
      </trkpt>
      <trkpt lat="42.01893" lon="19.45557">
        <ele>54.370947</ele>
        <time>2022-05-26T08:20:13.286Z</time>
      </trkpt>
      <trkpt lat="42.01886" lon="19.45545">
        <ele>54.480361</ele>
        <time>2022-05-26T08:20:15.256Z</time>
      </trkpt>
      <trkpt lat="42.01878" lon="19.45533">
        <ele>54.590409</ele>
        <time>2022-05-26T08:20:17.268Z</time>
      </trkpt>
      <trkpt lat="42.01871" lon="19.45521">
        <ele>54.694731</ele>
        <time>2022-05-26T08:20:19.235Z</time>
      </trkpt>
      <trkpt lat="42.01865" lon="19.4551">
        <ele>54.797911</ele>
        <time>2022-05-26T08:20:21.237Z</time>
      </trkpt>
      <trkpt lat="42.01858" lon="19.45499">
        <ele>54.89884</ele>
        <time>2022-05-26T08:20:23.237Z</time>
      </trkpt>
      <trkpt lat="42.01852" lon="19.45488">
        <ele>54.997483</ele>
        <time>2022-05-26T08:20:25.237Z</time>
      </trkpt>
      <trkpt lat="42.01845" lon="19.45477">
        <ele>55.09567</ele>
        <time>2022-05-26T08:20:27.239Z</time>
      </trkpt>
      <trkpt lat="42.01839" lon="19.45467">
        <ele>55.187495</ele>
        <time>2022-05-26T08:20:29.238Z</time>
      </trkpt>
      <trkpt lat="42.01833" lon="19.45456">
        <ele>55.278762</ele>
        <time>2022-05-26T08:20:31.228Z</time>
      </trkpt>
      <trkpt lat="42.01827" lon="19.45446">
        <ele>55.373426</ele>
        <time>2022-05-26T08:20:33.224Z</time>
      </trkpt>
      <trkpt lat="42.01821" lon="19.45436">
        <ele>55.465995</ele>
        <time>2022-05-26T08:20:35.249Z</time>
      </trkpt>
      <trkpt lat="42.01815" lon="19.45426">
        <ele>55.555544</ele>
        <time>2022-05-26T08:20:37.251Z</time>
      </trkpt>
      <trkpt lat="42.01809" lon="19.45415">
        <ele>55.623869</ele>
        <time>2022-05-26T08:20:39.243Z</time>
      </trkpt>
      <trkpt lat="42.01803" lon="19.45405">
        <ele>55.669021</ele>
        <time>2022-05-26T08:20:41.235Z</time>
      </trkpt>
      <trkpt lat="42.01797" lon="19.45394">
        <ele>55.715006</ele>
        <time>2022-05-26T08:20:43.241Z</time>
      </trkpt>
      <trkpt lat="42.01791" lon="19.45383">
        <ele>55.760433</ele>
        <time>2022-05-26T08:20:45.236Z</time>
      </trkpt>
      <trkpt lat="42.01785" lon="19.45373">
        <ele>55.80586</ele>
        <time>2022-05-26T08:20:47.258Z</time>
      </trkpt>
      <trkpt lat="42.01779" lon="19.45362">
        <ele>55.851284</ele>
        <time>2022-05-26T08:20:49.239Z</time>
      </trkpt>
      <trkpt lat="42.01773" lon="19.45351">
        <ele>55.896476</ele>
        <time>2022-05-26T08:20:51.235Z</time>
      </trkpt>
      <trkpt lat="42.01769" lon="19.45339">
        <ele>55.942597</ele>
        <time>2022-05-26T08:20:53.235Z</time>
      </trkpt>
      <trkpt lat="42.01764" lon="19.45327">
        <ele>55.986473</ele>
        <time>2022-05-26T08:20:55.240Z</time>
      </trkpt>
      <trkpt lat="42.0176" lon="19.45314">
        <ele>56.033367</ele>
        <time>2022-05-26T08:20:57.249Z</time>
      </trkpt>
      <trkpt lat="42.01756" lon="19.45301">
        <ele>56.082802</ele>
        <time>2022-05-26T08:20:59.256Z</time>
      </trkpt>
      <trkpt lat="42.01752" lon="19.45287">
        <ele>56.131613</ele>
        <time>2022-05-26T08:21:01.238Z</time>
      </trkpt>
      <trkpt lat="42.01748" lon="19.45274">
        <ele>56.179942</ele>
        <time>2022-05-26T08:21:03.234Z</time>
      </trkpt>
      <trkpt lat="42.01744" lon="19.4526">
        <ele>56.229106</ele>
        <time>2022-05-26T08:21:05.250Z</time>
      </trkpt>
      <trkpt lat="42.0174" lon="19.45247">
        <ele>56.276953</ele>
        <time>2022-05-26T08:21:07.240Z</time>
      </trkpt>
      <trkpt lat="42.01736" lon="19.45235">
        <ele>56.322587</ele>
        <time>2022-05-26T08:21:09.245Z</time>
      </trkpt>
      <trkpt lat="42.01733" lon="19.45222">
        <ele>56.369325</ele>
        <time>2022-05-26T08:21:11.231Z</time>
      </trkpt>
      <trkpt lat="42.01729" lon="19.45208">
        <ele>56.416093</ele>
        <time>2022-05-26T08:21:13.231Z</time>
      </trkpt>
      <trkpt lat="42.01726" lon="19.45195">
        <ele>56.569839</ele>
        <time>2022-05-26T08:21:15.247Z</time>
      </trkpt>
      <trkpt lat="42.01723" lon="19.45183">
        <ele>56.72158</ele>
        <time>2022-05-26T08:21:17.236Z</time>
      </trkpt>
      <trkpt lat="42.01721" lon="19.45171">
        <ele>56.872662</ele>
        <time>2022-05-26T08:21:19.241Z</time>
      </trkpt>
      <trkpt lat="42.01718" lon="19.45159">
        <ele>57.01879</ele>
        <time>2022-05-26T08:21:21.275Z</time>
      </trkpt>
      <trkpt lat="42.01716" lon="19.45147">
        <ele>57.162649</ele>
        <time>2022-05-26T08:21:23.242Z</time>
      </trkpt>
      <trkpt lat="42.01712" lon="19.4513">
        <ele>57.369615</ele>
        <time>2022-05-26T08:21:26.241Z</time>
      </trkpt>
      <trkpt lat="42.01709" lon="19.45113">
        <ele>57.575088</ele>
        <time>2022-05-26T08:21:29.238Z</time>
      </trkpt>
      <trkpt lat="42.01705" lon="19.45096">
        <ele>57.782521</ele>
        <time>2022-05-26T08:21:32.271Z</time>
      </trkpt>
      <trkpt lat="42.01702" lon="19.45079">
        <ele>57.989251</ele>
        <time>2022-05-26T08:21:35.235Z</time>
      </trkpt>
      <trkpt lat="42.01698" lon="19.45063">
        <ele>58.193997</ele>
        <time>2022-05-26T08:21:38.224Z</time>
      </trkpt>
      <trkpt lat="42.01696" lon="19.45047">
        <ele>58.383953</ele>
        <time>2022-05-26T08:21:41.248Z</time>
      </trkpt>
      <trkpt lat="42.01694" lon="19.45029">
        <ele>58.599878</ele>
        <time>2022-05-26T08:21:44.225Z</time>
      </trkpt>
      <trkpt lat="42.01693" lon="19.45017">
        <ele>58.74155</ele>
        <time>2022-05-26T08:21:46.272Z</time>
      </trkpt>
      <trkpt lat="42.01693" lon="19.44999">
        <ele>58.952039</ele>
        <time>2022-05-26T08:21:49.239Z</time>
      </trkpt>
      <trkpt lat="42.01694" lon="19.44981">
        <ele>59.159483</ele>
        <time>2022-05-26T08:21:52.229Z</time>
      </trkpt>
      <trkpt lat="42.01695" lon="19.44964">
        <ele>59.409526</ele>
        <time>2022-05-26T08:21:55.226Z</time>
      </trkpt>
      <trkpt lat="42.01695" lon="19.44947">
        <ele>59.709575</ele>
        <time>2022-05-26T08:21:58.235Z</time>
      </trkpt>
      <trkpt lat="42.01696" lon="19.44929">
        <ele>60.025693</ele>
        <time>2022-05-26T08:22:01.241Z</time>
      </trkpt>
      <trkpt lat="42.01698" lon="19.44912">
        <ele>60.336062</ele>
        <time>2022-05-26T08:22:04.228Z</time>
      </trkpt>
      <trkpt lat="42.01699" lon="19.44896">
        <ele>60.626532</ele>
        <time>2022-05-26T08:22:07.233Z</time>
      </trkpt>
      <trkpt lat="42.017" lon="19.4488">
        <ele>60.904673</ele>
        <time>2022-05-26T08:22:10.245Z</time>
      </trkpt>
      <trkpt lat="42.01702" lon="19.44865">
        <ele>61.169335</ele>
        <time>2022-05-26T08:22:13.223Z</time>
      </trkpt>
      <trkpt lat="42.01704" lon="19.44851">
        <ele>61.421497</ele>
        <time>2022-05-26T08:22:16.239Z</time>
      </trkpt>
      <trkpt lat="42.01706" lon="19.44836">
        <ele>61.698499</ele>
        <time>2022-05-26T08:22:20.238Z</time>
      </trkpt>
      <trkpt lat="42.01708" lon="19.44821">
        <ele>61.968141</ele>
        <time>2022-05-26T08:22:24.233Z</time>
      </trkpt>
      <trkpt lat="42.0171" lon="19.44807">
        <ele>62.220304</ele>
        <time>2022-05-26T08:22:28.233Z</time>
      </trkpt>
      <trkpt lat="42.01712" lon="19.44793">
        <ele>62.465068</ele>
        <time>2022-05-26T08:22:32.250Z</time>
      </trkpt>
      <trkpt lat="42.01714" lon="19.4478">
        <ele>62.700294</ele>
        <time>2022-05-26T08:22:36.243Z</time>
      </trkpt>
      <trkpt lat="42.01716" lon="19.44766">
        <ele>62.952896</ele>
        <time>2022-05-26T08:22:40.256Z</time>
      </trkpt>
      <trkpt lat="42.01718" lon="19.44754">
        <ele>63.1807</ele>
        <time>2022-05-26T08:22:44.230Z</time>
      </trkpt>
      <trkpt lat="42.01719" lon="19.44742">
        <ele>63.399427</ele>
        <time>2022-05-26T08:22:48.249Z</time>
      </trkpt>
      <trkpt lat="42.0172" lon="19.4473">
        <ele>63.55112</ele>
        <time>2022-05-26T08:22:52.241Z</time>
      </trkpt>
      <trkpt lat="42.0172" lon="19.44717">
        <ele>63.537399</ele>
        <time>2022-05-26T08:22:56.248Z</time>
      </trkpt>
      <trkpt lat="42.01719" lon="19.44702">
        <ele>63.521773</ele>
        <time>2022-05-26T08:23:01.246Z</time>
      </trkpt>
      <trkpt lat="42.01716" lon="19.44689">
        <ele>63.507327</ele>
        <time>2022-05-26T08:23:06.236Z</time>
      </trkpt>
      <trkpt lat="42.01709" lon="19.44677">
        <ele>63.49199</ele>
        <time>2022-05-26T08:23:10.220Z</time>
      </trkpt>
      <trkpt lat="42.01701" lon="19.44669">
        <ele>63.476592</ele>
        <time>2022-05-26T08:23:14.226Z</time>
      </trkpt>
      <trkpt lat="42.01693" lon="19.44663">
        <ele>63.463705</ele>
        <time>2022-05-26T08:23:17.246Z</time>
      </trkpt>
      <trkpt lat="42.01684" lon="19.44657">
        <ele>63.449529</ele>
        <time>2022-05-26T08:23:20.267Z</time>
      </trkpt>
      <trkpt lat="42.01674" lon="19.44651">
        <ele>63.434967</ele>
        <time>2022-05-26T08:23:23.244Z</time>
      </trkpt>
      <trkpt lat="42.01664" lon="19.44644">
        <ele>63.418981</ele>
        <time>2022-05-26T08:23:26.231Z</time>
      </trkpt>
      <trkpt lat="42.01657" lon="19.44633">
        <ele>63.403083</ele>
        <time>2022-05-26T08:23:29.242Z</time>
      </trkpt>
      <trkpt lat="42.01651" lon="19.4462">
        <ele>63.387097</ele>
        <time>2022-05-26T08:23:32.234Z</time>
      </trkpt>
      <trkpt lat="42.0165" lon="19.44604">
        <ele>63.370347</ele>
        <time>2022-05-26T08:23:35.297Z</time>
      </trkpt>
      <trkpt lat="42.01651" lon="19.44586">
        <ele>63.351238</ele>
        <time>2022-05-26T08:23:38.253Z</time>
      </trkpt>
      <trkpt lat="42.01651" lon="19.44573">
        <ele>63.33783</ele>
        <time>2022-05-26T08:23:40.244Z</time>
      </trkpt>
      <trkpt lat="42.01651" lon="19.44559">
        <ele>63.323369</ele>
        <time>2022-05-26T08:23:42.234Z</time>
      </trkpt>
      <trkpt lat="42.01651" lon="19.44545">
        <ele>63.307852</ele>
        <time>2022-05-26T08:23:44.236Z</time>
      </trkpt>
      <trkpt lat="42.01651" lon="19.44529">
        <ele>63.145964</ele>
        <time>2022-05-26T08:23:46.219Z</time>
      </trkpt>
      <trkpt lat="42.01651" lon="19.44513">
        <ele>62.834337</ele>
        <time>2022-05-26T08:23:48.240Z</time>
      </trkpt>
      <trkpt lat="42.01651" lon="19.44496">
        <ele>62.514932</ele>
        <time>2022-05-26T08:23:50.248Z</time>
      </trkpt>
      <trkpt lat="42.01651" lon="19.4448">
        <ele>62.197463</ele>
        <time>2022-05-26T08:23:52.245Z</time>
      </trkpt>
      <trkpt lat="42.0165" lon="19.44464">
        <ele>61.885671</ele>
        <time>2022-05-26T08:23:54.223Z</time>
      </trkpt>
      <trkpt lat="42.01649" lon="19.44448">
        <ele>61.576603</ele>
        <time>2022-05-26T08:23:56.238Z</time>
      </trkpt>
      <trkpt lat="42.01647" lon="19.44432">
        <ele>61.263031</ele>
        <time>2022-05-26T08:23:58.268Z</time>
      </trkpt>
      <trkpt lat="42.01644" lon="19.44417">
        <ele>60.954251</ele>
        <time>2022-05-26T08:24:00.221Z</time>
      </trkpt>
      <trkpt lat="42.01641" lon="19.44402">
        <ele>60.651142</ele>
        <time>2022-05-26T08:24:02.228Z</time>
      </trkpt>
      <trkpt lat="42.01638" lon="19.44387">
        <ele>60.358687</ele>
        <time>2022-05-26T08:24:04.236Z</time>
      </trkpt>
      <trkpt lat="42.01635" lon="19.44373">
        <ele>60.064825</ele>
        <time>2022-05-26T08:24:06.245Z</time>
      </trkpt>
      <trkpt lat="42.01633" lon="19.4436">
        <ele>59.796977</ele>
        <time>2022-05-26T08:24:08.238Z</time>
      </trkpt>
      <trkpt lat="42.0163" lon="19.44347">
        <ele>59.54229</ele>
        <time>2022-05-26T08:24:10.257Z</time>
      </trkpt>
      <trkpt lat="42.01628" lon="19.44335">
        <ele>59.305972</ele>
        <time>2022-05-26T08:24:12.232Z</time>
      </trkpt>
      <trkpt lat="42.01625" lon="19.44318">
        <ele>58.959994</ele>
        <time>2022-05-26T08:24:15.236Z</time>
      </trkpt>
      <trkpt lat="42.01621" lon="19.44301">
        <ele>58.621554</ele>
        <time>2022-05-26T08:24:18.244Z</time>
      </trkpt>
      <trkpt lat="42.01618" lon="19.44284">
        <ele>58.50162</ele>
        <time>2022-05-26T08:24:21.230Z</time>
      </trkpt>
      <trkpt lat="42.01615" lon="19.44266">
        <ele>58.403375</ele>
        <time>2022-05-26T08:24:24.231Z</time>
      </trkpt>
      <trkpt lat="42.01612" lon="19.44253">
        <ele>58.332109</ele>
        <time>2022-05-26T08:24:26.244Z</time>
      </trkpt>
      <trkpt lat="42.01609" lon="19.4424">
        <ele>58.25625</ele>
        <time>2022-05-26T08:24:28.237Z</time>
      </trkpt>
      <trkpt lat="42.01605" lon="19.44227">
        <ele>58.179803</ele>
        <time>2022-05-26T08:24:30.241Z</time>
      </trkpt>
      <trkpt lat="42.01599" lon="19.44214">
        <ele>58.099327</ele>
        <time>2022-05-26T08:24:32.246Z</time>
      </trkpt>
      <trkpt lat="42.01593" lon="19.442">
        <ele>58.01814</ele>
        <time>2022-05-26T08:24:34.242Z</time>
      </trkpt>
      <trkpt lat="42.01588" lon="19.44187">
        <ele>57.939052</ele>
        <time>2022-05-26T08:24:36.248Z</time>
      </trkpt>
      <trkpt lat="42.01582" lon="19.44174">
        <ele>57.856765</ele>
        <time>2022-05-26T08:24:38.237Z</time>
      </trkpt>
      <trkpt lat="42.01575" lon="19.4416">
        <ele>57.767622</ele>
        <time>2022-05-26T08:24:40.250Z</time>
      </trkpt>
      <trkpt lat="42.01569" lon="19.44146">
        <ele>57.681567</ele>
        <time>2022-05-26T08:24:42.266Z</time>
      </trkpt>
      <trkpt lat="42.01563" lon="19.44132">
        <ele>57.595355</ele>
        <time>2022-05-26T08:24:44.243Z</time>
      </trkpt>
      <trkpt lat="42.01557" lon="19.44119">
        <ele>57.511247</ele>
        <time>2022-05-26T08:24:46.239Z</time>
      </trkpt>
      <trkpt lat="42.01551" lon="19.44106">
        <ele>57.431217</ele>
        <time>2022-05-26T08:24:48.234Z</time>
      </trkpt>
      <trkpt lat="42.01545" lon="19.44094">
        <ele>57.354685</ele>
        <time>2022-05-26T08:24:50.232Z</time>
      </trkpt>
      <trkpt lat="42.0154" lon="19.44081">
        <ele>57.31619</ele>
        <time>2022-05-26T08:24:52.243Z</time>
      </trkpt>
      <trkpt lat="42.01536" lon="19.44068">
        <ele>57.394334</ele>
        <time>2022-05-26T08:24:54.245Z</time>
      </trkpt>
      <trkpt lat="42.01533" lon="19.44055">
        <ele>57.471643</ele>
        <time>2022-05-26T08:24:56.236Z</time>
      </trkpt>
      <trkpt lat="42.01533" lon="19.44041">
        <ele>57.547308</ele>
        <time>2022-05-26T08:24:58.247Z</time>
      </trkpt>
      <trkpt lat="42.01535" lon="19.44028">
        <ele>57.623501</ele>
        <time>2022-05-26T08:25:00.252Z</time>
      </trkpt>
      <trkpt lat="42.0154" lon="19.44016">
        <ele>57.698002</ele>
        <time>2022-05-26T08:25:02.247Z</time>
      </trkpt>
      <trkpt lat="42.01545" lon="19.44004">
        <ele>57.771629</ele>
        <time>2022-05-26T08:25:04.225Z</time>
      </trkpt>
      <trkpt lat="42.01549" lon="19.43994">
        <ele>57.840663</ele>
        <time>2022-05-26T08:25:06.240Z</time>
      </trkpt>
      <trkpt lat="42.01555" lon="19.43979">
        <ele>57.93551</ele>
        <time>2022-05-26T08:25:09.235Z</time>
      </trkpt>
      <trkpt lat="42.0156" lon="19.43963">
        <ele>58.029357</ele>
        <time>2022-05-26T08:25:12.254Z</time>
      </trkpt>
      <trkpt lat="42.01563" lon="19.43952">
        <ele>58.097049</ele>
        <time>2022-05-26T08:25:14.242Z</time>
      </trkpt>
      <trkpt lat="42.01566" lon="19.43939">
        <ele>58.168943</ele>
        <time>2022-05-26T08:25:16.269Z</time>
      </trkpt>
      <trkpt lat="42.01568" lon="19.43926">
        <ele>58.246787</ele>
        <time>2022-05-26T08:25:18.228Z</time>
      </trkpt>
      <trkpt lat="42.0157" lon="19.4391">
        <ele>58.332391</ele>
        <time>2022-05-26T08:25:20.240Z</time>
      </trkpt>
      <trkpt lat="42.0157" lon="19.43895">
        <ele>58.416861</ele>
        <time>2022-05-26T08:25:22.269Z</time>
      </trkpt>
      <trkpt lat="42.01568" lon="19.43879">
        <ele>58.506186</ele>
        <time>2022-05-26T08:25:24.242Z</time>
      </trkpt>
      <trkpt lat="42.01564" lon="19.43864">
        <ele>58.597363</ele>
        <time>2022-05-26T08:25:26.234Z</time>
      </trkpt>
      <trkpt lat="42.0156" lon="19.43849">
        <ele>58.570965</ele>
        <time>2022-05-26T08:25:28.269Z</time>
      </trkpt>
      <trkpt lat="42.01555" lon="19.43834">
        <ele>58.429859</ele>
        <time>2022-05-26T08:25:30.235Z</time>
      </trkpt>
      <trkpt lat="42.01552" lon="19.43818">
        <ele>58.289036</ele>
        <time>2022-05-26T08:25:32.250Z</time>
      </trkpt>
      <trkpt lat="42.01549" lon="19.43803">
        <ele>58.153226</ele>
        <time>2022-05-26T08:25:34.240Z</time>
      </trkpt>
      <trkpt lat="42.01546" lon="19.43788">
        <ele>58.012917</ele>
        <time>2022-05-26T08:25:36.243Z</time>
      </trkpt>
      <trkpt lat="42.01544" lon="19.43772">
        <ele>57.871932</ele>
        <time>2022-05-26T08:25:38.236Z</time>
      </trkpt>
      <trkpt lat="42.01543" lon="19.43755">
        <ele>57.72944</ele>
        <time>2022-05-26T08:25:40.233Z</time>
      </trkpt>
      <trkpt lat="42.01543" lon="19.4374">
        <ele>57.592472</ele>
        <time>2022-05-26T08:25:42.243Z</time>
      </trkpt>
      <trkpt lat="42.01544" lon="19.43724">
        <ele>57.456653</ele>
        <time>2022-05-26T08:25:44.242Z</time>
      </trkpt>
      <trkpt lat="42.01546" lon="19.43709">
        <ele>57.321342</ele>
        <time>2022-05-26T08:25:46.228Z</time>
      </trkpt>
      <trkpt lat="42.01548" lon="19.43694">
        <ele>57.189911</ele>
        <time>2022-05-26T08:25:48.239Z</time>
      </trkpt>
      <trkpt lat="42.0155" lon="19.43679">
        <ele>57.058041</ele>
        <time>2022-05-26T08:25:50.261Z</time>
      </trkpt>
      <trkpt lat="42.01553" lon="19.43665">
        <ele>56.928199</ele>
        <time>2022-05-26T08:25:52.245Z</time>
      </trkpt>
      <trkpt lat="42.01555" lon="19.4365">
        <ele>56.798015</ele>
        <time>2022-05-26T08:25:54.241Z</time>
      </trkpt>
      <trkpt lat="42.01557" lon="19.43636">
        <ele>56.672554</ele>
        <time>2022-05-26T08:25:56.243Z</time>
      </trkpt>
      <trkpt lat="42.01558" lon="19.43622">
        <ele>56.550034</ele>
        <time>2022-05-26T08:25:58.250Z</time>
      </trkpt>
      <trkpt lat="42.0156" lon="19.43609">
        <ele>56.445574</ele>
        <time>2022-05-26T08:26:00.235Z</time>
      </trkpt>
      <trkpt lat="42.0156" lon="19.43595">
        <ele>56.343159</ele>
        <time>2022-05-26T08:26:02.237Z</time>
      </trkpt>
      <trkpt lat="42.0156" lon="19.43582">
        <ele>56.244469</ele>
        <time>2022-05-26T08:26:04.236Z</time>
      </trkpt>
      <trkpt lat="42.01557" lon="19.4357">
        <ele>56.148846</ele>
        <time>2022-05-26T08:26:06.239Z</time>
      </trkpt>
      <trkpt lat="42.01554" lon="19.43557">
        <ele>56.047452</ele>
        <time>2022-05-26T08:26:08.224Z</time>
      </trkpt>
      <trkpt lat="42.01551" lon="19.43544">
        <ele>55.941702</ele>
        <time>2022-05-26T08:26:10.243Z</time>
      </trkpt>
      <trkpt lat="42.01548" lon="19.4353">
        <ele>55.833611</ele>
        <time>2022-05-26T08:26:12.261Z</time>
      </trkpt>
      <trkpt lat="42.01545" lon="19.43516">
        <ele>55.721025</ele>
        <time>2022-05-26T08:26:14.243Z</time>
      </trkpt>
      <trkpt lat="42.01543" lon="19.43502">
        <ele>55.608978</ele>
        <time>2022-05-26T08:26:16.219Z</time>
      </trkpt>
      <trkpt lat="42.0154" lon="19.43486">
        <ele>55.490156</ele>
        <time>2022-05-26T08:26:18.239Z</time>
      </trkpt>
      <trkpt lat="42.01539" lon="19.4347">
        <ele>55.368839</ele>
        <time>2022-05-26T08:26:20.237Z</time>
      </trkpt>
      <trkpt lat="42.01538" lon="19.43454">
        <ele>55.24431</ele>
        <time>2022-05-26T08:26:22.252Z</time>
      </trkpt>
      <trkpt lat="42.01537" lon="19.43437">
        <ele>55.117443</ele>
        <time>2022-05-26T08:26:24.221Z</time>
      </trkpt>
      <trkpt lat="42.01536" lon="19.43421">
        <ele>54.991253</ele>
        <time>2022-05-26T08:26:26.237Z</time>
      </trkpt>
      <trkpt lat="42.01535" lon="19.43404">
        <ele>54.865636</ele>
        <time>2022-05-26T08:26:28.259Z</time>
      </trkpt>
      <trkpt lat="42.01534" lon="19.43387">
        <ele>54.735586</ele>
        <time>2022-05-26T08:26:30.257Z</time>
      </trkpt>
      <trkpt lat="42.01533" lon="19.4337">
        <ele>54.565798</ele>
        <time>2022-05-26T08:26:32.241Z</time>
      </trkpt>
      <trkpt lat="42.01531" lon="19.43354">
        <ele>54.383217</ele>
        <time>2022-05-26T08:26:34.272Z</time>
      </trkpt>
      <trkpt lat="42.0153" lon="19.43338">
        <ele>54.203575</ele>
        <time>2022-05-26T08:26:36.212Z</time>
      </trkpt>
      <trkpt lat="42.01528" lon="19.43321">
        <ele>54.018418</ele>
        <time>2022-05-26T08:26:38.226Z</time>
      </trkpt>
      <trkpt lat="42.01527" lon="19.43304">
        <ele>53.833677</ele>
        <time>2022-05-26T08:26:40.250Z</time>
      </trkpt>
      <trkpt lat="42.01526" lon="19.43288">
        <ele>53.653358</ele>
        <time>2022-05-26T08:26:42.235Z</time>
      </trkpt>
      <trkpt lat="42.01525" lon="19.43273">
        <ele>53.479229</ele>
        <time>2022-05-26T08:26:44.236Z</time>
      </trkpt>
      <trkpt lat="42.01524" lon="19.43257">
        <ele>53.299885</ele>
        <time>2022-05-26T08:26:46.257Z</time>
      </trkpt>
      <trkpt lat="42.01523" lon="19.4324">
        <ele>53.120075</ele>
        <time>2022-05-26T08:26:48.225Z</time>
      </trkpt>
      <trkpt lat="42.01521" lon="19.43225">
        <ele>52.942764</ele>
        <time>2022-05-26T08:26:50.219Z</time>
      </trkpt>
      <trkpt lat="42.01519" lon="19.43209">
        <ele>52.76303</ele>
        <time>2022-05-26T08:26:52.240Z</time>
      </trkpt>
      <trkpt lat="42.01517" lon="19.43193">
        <ele>52.589351</ele>
        <time>2022-05-26T08:26:54.257Z</time>
      </trkpt>
      <trkpt lat="42.01515" lon="19.43178">
        <ele>52.41665</ele>
        <time>2022-05-26T08:26:56.286Z</time>
      </trkpt>
      <trkpt lat="42.01513" lon="19.43163">
        <ele>52.249199</ele>
        <time>2022-05-26T08:26:58.241Z</time>
      </trkpt>
      <trkpt lat="42.01511" lon="19.43148">
        <ele>52.078511</ele>
        <time>2022-05-26T08:27:00.247Z</time>
      </trkpt>
      <trkpt lat="42.0151" lon="19.43133">
        <ele>52.090112</ele>
        <time>2022-05-26T08:27:02.269Z</time>
      </trkpt>
      <trkpt lat="42.01508" lon="19.43118">
        <ele>52.224207</ele>
        <time>2022-05-26T08:27:04.224Z</time>
      </trkpt>
      <trkpt lat="42.01506" lon="19.43103">
        <ele>52.360013</ele>
        <time>2022-05-26T08:27:06.245Z</time>
      </trkpt>
      <trkpt lat="42.01505" lon="19.43088">
        <ele>52.497727</ele>
        <time>2022-05-26T08:27:08.272Z</time>
      </trkpt>
      <trkpt lat="42.01505" lon="19.43073">
        <ele>52.635017</ele>
        <time>2022-05-26T08:27:10.209Z</time>
      </trkpt>
      <trkpt lat="42.01507" lon="19.43057">
        <ele>52.774382</ele>
        <time>2022-05-26T08:27:12.240Z</time>
      </trkpt>
      <trkpt lat="42.0151" lon="19.43043">
        <ele>52.905317</ele>
        <time>2022-05-26T08:27:14.231Z</time>
      </trkpt>
      <trkpt lat="42.01512" lon="19.43029">
        <ele>53.035112</ele>
        <time>2022-05-26T08:27:16.236Z</time>
      </trkpt>
      <trkpt lat="42.01515" lon="19.43015">
        <ele>53.163267</ele>
        <time>2022-05-26T08:27:18.259Z</time>
      </trkpt>
      <trkpt lat="42.01517" lon="19.43001">
        <ele>53.291011</ele>
        <time>2022-05-26T08:27:20.263Z</time>
      </trkpt>
      <trkpt lat="42.0152" lon="19.42988">
        <ele>53.412948</ele>
        <time>2022-05-26T08:27:22.233Z</time>
      </trkpt>
      <trkpt lat="42.01522" lon="19.42975">
        <ele>53.531112</ele>
        <time>2022-05-26T08:27:24.243Z</time>
      </trkpt>
      <trkpt lat="42.01524" lon="19.42963">
        <ele>53.649866</ele>
        <time>2022-05-26T08:27:26.236Z</time>
      </trkpt>
      <trkpt lat="42.01526" lon="19.4295">
        <ele>53.762844</ele>
        <time>2022-05-26T08:27:28.234Z</time>
      </trkpt>
      <trkpt lat="42.01529" lon="19.42938">
        <ele>53.875782</ele>
        <time>2022-05-26T08:27:30.219Z</time>
      </trkpt>
      <trkpt lat="42.01531" lon="19.42926">
        <ele>53.984376</ele>
        <time>2022-05-26T08:27:32.248Z</time>
      </trkpt>
      <trkpt lat="42.01535" lon="19.42909">
        <ele>54.146093</ele>
        <time>2022-05-26T08:27:35.232Z</time>
      </trkpt>
      <trkpt lat="42.0154" lon="19.42894">
        <ele>54.142915</ele>
        <time>2022-05-26T08:27:38.247Z</time>
      </trkpt>
      <trkpt lat="42.01546" lon="19.4288">
        <ele>54.093523</ele>
        <time>2022-05-26T08:27:41.237Z</time>
      </trkpt>
      <trkpt lat="42.01553" lon="19.42865">
        <ele>54.042032</ele>
        <time>2022-05-26T08:27:44.254Z</time>
      </trkpt>
      <trkpt lat="42.0156" lon="19.42851">
        <ele>53.990141</ele>
        <time>2022-05-26T08:27:47.236Z</time>
      </trkpt>
      <trkpt lat="42.01564" lon="19.42841">
        <ele>53.952835</ele>
        <time>2022-05-26T08:27:49.235Z</time>
      </trkpt>
      <trkpt lat="42.01569" lon="19.42829">
        <ele>53.913223</ele>
        <time>2022-05-26T08:27:51.279Z</time>
      </trkpt>
      <trkpt lat="42.01573" lon="19.42817">
        <ele>53.872919</ele>
        <time>2022-05-26T08:27:53.235Z</time>
      </trkpt>
      <trkpt lat="42.01577" lon="19.42804">
        <ele>53.831411</ele>
        <time>2022-05-26T08:27:55.243Z</time>
      </trkpt>
      <trkpt lat="42.01578" lon="19.42789">
        <ele>53.785038</ele>
        <time>2022-05-26T08:27:57.281Z</time>
      </trkpt>
      <trkpt lat="42.01574" lon="19.42775">
        <ele>53.740214</ele>
        <time>2022-05-26T08:27:59.240Z</time>
      </trkpt>
      <trkpt lat="42.01568" lon="19.42762">
        <ele>53.692431</ele>
        <time>2022-05-26T08:28:01.234Z</time>
      </trkpt>
      <trkpt lat="42.0156" lon="19.42749">
        <ele>53.641725</ele>
        <time>2022-05-26T08:28:03.272Z</time>
      </trkpt>
      <trkpt lat="42.01551" lon="19.42738">
        <ele>53.591399</ele>
        <time>2022-05-26T08:28:05.246Z</time>
      </trkpt>
      <trkpt lat="42.01541" lon="19.42727">
        <ele>53.539757</ele>
        <time>2022-05-26T08:28:07.232Z</time>
      </trkpt>
      <trkpt lat="42.01532" lon="19.42717">
        <ele>53.49151</ele>
        <time>2022-05-26T08:28:09.241Z</time>
      </trkpt>
      <trkpt lat="42.01523" lon="19.42707">
        <ele>53.444919</ele>
        <time>2022-05-26T08:28:11.232Z</time>
      </trkpt>
      <trkpt lat="42.01515" lon="19.42698">
        <ele>53.322735</ele>
        <time>2022-05-26T08:28:13.235Z</time>
      </trkpt>
      <trkpt lat="42.01507" lon="19.42688">
        <ele>53.200009</ele>
        <time>2022-05-26T08:28:15.239Z</time>
      </trkpt>
      <trkpt lat="42.01498" lon="19.42679">
        <ele>53.075242</ele>
        <time>2022-05-26T08:28:17.219Z</time>
      </trkpt>
      <trkpt lat="42.0149" lon="19.4267">
        <ele>52.95396</ele>
        <time>2022-05-26T08:28:19.262Z</time>
      </trkpt>
      <trkpt lat="42.01481" lon="19.42661">
        <ele>52.834432</ele>
        <time>2022-05-26T08:28:21.238Z</time>
      </trkpt>
      <trkpt lat="42.01473" lon="19.42651">
        <ele>52.713851</ele>
        <time>2022-05-26T08:28:23.229Z</time>
      </trkpt>
      <trkpt lat="42.01465" lon="19.42642">
        <ele>52.588554</ele>
        <time>2022-05-26T08:28:25.278Z</time>
      </trkpt>
      <trkpt lat="42.01456" lon="19.42632">
        <ele>52.464434</ele>
        <time>2022-05-26T08:28:27.235Z</time>
      </trkpt>
      <trkpt lat="42.01447" lon="19.42623">
        <ele>52.33653</ele>
        <time>2022-05-26T08:28:29.237Z</time>
      </trkpt>
      <trkpt lat="42.01439" lon="19.42613">
        <ele>52.211937</ele>
        <time>2022-05-26T08:28:31.243Z</time>
      </trkpt>
      <trkpt lat="42.0143" lon="19.42604">
        <ele>52.087344</ele>
        <time>2022-05-26T08:28:33.236Z</time>
      </trkpt>
      <trkpt lat="42.01421" lon="19.42595">
        <ele>51.963973</ele>
        <time>2022-05-26T08:28:35.236Z</time>
      </trkpt>
      <trkpt lat="42.01412" lon="19.42585">
        <ele>51.836068</ele>
        <time>2022-05-26T08:28:37.231Z</time>
      </trkpt>
      <trkpt lat="42.01403" lon="19.42576">
        <ele>51.708314</ele>
        <time>2022-05-26T08:28:39.235Z</time>
      </trkpt>
      <trkpt lat="42.01395" lon="19.42566">
        <ele>51.583721</ele>
        <time>2022-05-26T08:28:41.235Z</time>
      </trkpt>
      <trkpt lat="42.01386" lon="19.42557">
        <ele>51.457212</ele>
        <time>2022-05-26T08:28:43.237Z</time>
      </trkpt>
      <trkpt lat="42.01378" lon="19.42548">
        <ele>51.470485</ele>
        <time>2022-05-26T08:28:45.234Z</time>
      </trkpt>
      <trkpt lat="42.0137" lon="19.4254">
        <ele>51.524115</ele>
        <time>2022-05-26T08:28:47.261Z</time>
      </trkpt>
      <trkpt lat="42.01361" lon="19.42531">
        <ele>51.583818</ele>
        <time>2022-05-26T08:28:49.242Z</time>
      </trkpt>
      <trkpt lat="42.01353" lon="19.42522">
        <ele>51.642788</ele>
        <time>2022-05-26T08:28:51.243Z</time>
      </trkpt>
      <trkpt lat="42.01344" lon="19.42514">
        <ele>51.702364</ele>
        <time>2022-05-26T08:28:53.273Z</time>
      </trkpt>
      <trkpt lat="42.01336" lon="19.42504">
        <ele>51.75897</ele>
        <time>2022-05-26T08:28:55.236Z</time>
      </trkpt>
      <trkpt lat="42.01328" lon="19.42496">
        <ele>51.8114</ele>
        <time>2022-05-26T08:28:57.246Z</time>
      </trkpt>
      <trkpt lat="42.01321" lon="19.42487">
        <ele>51.86505</ele>
        <time>2022-05-26T08:28:59.244Z</time>
      </trkpt>
      <trkpt lat="42.01313" lon="19.42478">
        <ele>51.922067</ele>
        <time>2022-05-26T08:29:01.226Z</time>
      </trkpt>
      <trkpt lat="42.01304" lon="19.42468">
        <ele>51.981935</ele>
        <time>2022-05-26T08:29:03.235Z</time>
      </trkpt>
      <trkpt lat="42.01296" lon="19.42459">
        <ele>52.041128</ele>
        <time>2022-05-26T08:29:05.233Z</time>
      </trkpt>
      <trkpt lat="42.01288" lon="19.4245">
        <ele>52.097211</ele>
        <time>2022-05-26T08:29:07.259Z</time>
      </trkpt>
      <trkpt lat="42.0128" lon="19.42443">
        <ele>52.150301</ele>
        <time>2022-05-26T08:29:09.233Z</time>
      </trkpt>
      <trkpt lat="42.01273" lon="19.42434">
        <ele>52.201929</ele>
        <time>2022-05-26T08:29:11.239Z</time>
      </trkpt>
      <trkpt lat="42.01265" lon="19.42425">
        <ele>52.255057</ele>
        <time>2022-05-26T08:29:13.244Z</time>
      </trkpt>
      <trkpt lat="42.01258" lon="19.42417">
        <ele>52.307253</ele>
        <time>2022-05-26T08:29:15.275Z</time>
      </trkpt>
      <trkpt lat="42.01251" lon="19.42409">
        <ele>52.35807</ele>
        <time>2022-05-26T08:29:17.243Z</time>
      </trkpt>
      <trkpt lat="42.01244" lon="19.424">
        <ele>52.408992</ele>
        <time>2022-05-26T08:29:19.239Z</time>
      </trkpt>
      <trkpt lat="42.01237" lon="19.42391">
        <ele>52.45249</ele>
        <time>2022-05-26T08:29:21.235Z</time>
      </trkpt>
      <trkpt lat="42.01229" lon="19.42383">
        <ele>52.496769</ele>
        <time>2022-05-26T08:29:23.218Z</time>
      </trkpt>
      <trkpt lat="42.01222" lon="19.42374">
        <ele>52.540603</ele>
        <time>2022-05-26T08:29:25.244Z</time>
      </trkpt>
      <trkpt lat="42.01215" lon="19.42365">
        <ele>52.584101</ele>
        <time>2022-05-26T08:29:27.232Z</time>
      </trkpt>
      <trkpt lat="42.01207" lon="19.42357">
        <ele>52.628053</ele>
        <time>2022-05-26T08:29:29.257Z</time>
      </trkpt>
      <trkpt lat="42.012" lon="19.42348">
        <ele>52.671107</ele>
        <time>2022-05-26T08:29:31.232Z</time>
      </trkpt>
      <trkpt lat="42.01193" lon="19.42339">
        <ele>52.713715</ele>
        <time>2022-05-26T08:29:33.230Z</time>
      </trkpt>
      <trkpt lat="42.01186" lon="19.42331">
        <ele>52.75655</ele>
        <time>2022-05-26T08:29:35.228Z</time>
      </trkpt>
      <trkpt lat="42.01179" lon="19.42323">
        <ele>52.799944</ele>
        <time>2022-05-26T08:29:37.238Z</time>
      </trkpt>
      <trkpt lat="42.01172" lon="19.42314">
        <ele>52.84244</ele>
        <time>2022-05-26T08:29:39.317Z</time>
      </trkpt>
      <trkpt lat="42.01165" lon="19.42306">
        <ele>52.884823</ele>
        <time>2022-05-26T08:29:41.256Z</time>
      </trkpt>
      <trkpt lat="42.01158" lon="19.42297">
        <ele>52.928214</ele>
        <time>2022-05-26T08:29:43.241Z</time>
      </trkpt>
      <trkpt lat="42.0115" lon="19.42287">
        <ele>52.974615</ele>
        <time>2022-05-26T08:29:45.237Z</time>
      </trkpt>
      <trkpt lat="42.01142" lon="19.42278">
        <ele>53.021243</ele>
        <time>2022-05-26T08:29:47.221Z</time>
      </trkpt>
      <trkpt lat="42.01134" lon="19.42268">
        <ele>53.069204</ele>
        <time>2022-05-26T08:29:49.242Z</time>
      </trkpt>
      <trkpt lat="42.01126" lon="19.42259">
        <ele>53.11862</ele>
        <time>2022-05-26T08:29:51.239Z</time>
      </trkpt>
      <trkpt lat="42.01119" lon="19.4225">
        <ele>53.162234</ele>
        <time>2022-05-26T08:29:53.234Z</time>
      </trkpt>
      <trkpt lat="42.01112" lon="19.42241">
        <ele>53.206636</ele>
        <time>2022-05-26T08:29:55.240Z</time>
      </trkpt>
      <trkpt lat="42.01104" lon="19.42232">
        <ele>53.276465</ele>
        <time>2022-05-26T08:29:57.323Z</time>
      </trkpt>
      <trkpt lat="42.01097" lon="19.42224">
        <ele>53.34656</ele>
        <time>2022-05-26T08:29:59.244Z</time>
      </trkpt>
      <trkpt lat="42.01089" lon="19.42216">
        <ele>53.418802</ele>
        <time>2022-05-26T08:30:01.237Z</time>
      </trkpt>
      <trkpt lat="42.01082" lon="19.42207">
        <ele>53.491442</ele>
        <time>2022-05-26T08:30:03.223Z</time>
      </trkpt>
      <trkpt lat="42.01075" lon="19.42198">
        <ele>53.56405</ele>
        <time>2022-05-26T08:30:05.280Z</time>
      </trkpt>
      <trkpt lat="42.01068" lon="19.42189">
        <ele>53.631729</ele>
        <time>2022-05-26T08:30:07.235Z</time>
      </trkpt>
      <trkpt lat="42.01059" lon="19.42177">
        <ele>53.729175</ele>
        <time>2022-05-26T08:30:10.239Z</time>
      </trkpt>
      <trkpt lat="42.01049" lon="19.42165">
        <ele>53.828831</ele>
        <time>2022-05-26T08:30:13.230Z</time>
      </trkpt>
      <trkpt lat="42.01043" lon="19.42155">
        <ele>53.89831</ele>
        <time>2022-05-26T08:30:15.236Z</time>
      </trkpt>
      <trkpt lat="42.01038" lon="19.42144">
        <ele>53.970208</ele>
        <time>2022-05-26T08:30:17.232Z</time>
      </trkpt>
      <trkpt lat="42.01035" lon="19.42131">
        <ele>54.043743</ele>
        <time>2022-05-26T08:30:19.242Z</time>
      </trkpt>
      <trkpt lat="42.01033" lon="19.42118">
        <ele>54.115367</ele>
        <time>2022-05-26T08:30:21.289Z</time>
      </trkpt>
      <trkpt lat="42.01032" lon="19.42106">
        <ele>54.184982</ele>
        <time>2022-05-26T08:30:23.229Z</time>
      </trkpt>
      <trkpt lat="42.01032" lon="19.42094">
        <ele>54.251108</ele>
        <time>2022-05-26T08:30:25.234Z</time>
      </trkpt>
      <trkpt lat="42.01031" lon="19.42077">
        <ele>54.343698</ele>
        <time>2022-05-26T08:30:28.239Z</time>
      </trkpt>
      <trkpt lat="42.01031" lon="19.4206">
        <ele>54.438936</ele>
        <time>2022-05-26T08:30:31.249Z</time>
      </trkpt>
      <trkpt lat="42.01031" lon="19.42043">
        <ele>54.532532</ele>
        <time>2022-05-26T08:30:34.241Z</time>
      </trkpt>
      <trkpt lat="42.01031" lon="19.42025">
        <ele>54.59941</ele>
        <time>2022-05-26T08:30:37.272Z</time>
      </trkpt>
      <trkpt lat="42.01031" lon="19.42008">
        <ele>54.661679</ele>
        <time>2022-05-26T08:30:40.228Z</time>
      </trkpt>
      <trkpt lat="42.01031" lon="19.41991">
        <ele>54.726527</ele>
        <time>2022-05-26T08:30:43.242Z</time>
      </trkpt>
      <trkpt lat="42.01032" lon="19.41978">
        <ele>54.773359</ele>
        <time>2022-05-26T08:30:45.231Z</time>
      </trkpt>
      <trkpt lat="42.01034" lon="19.41965">
        <ele>54.820451</ele>
        <time>2022-05-26T08:30:47.245Z</time>
      </trkpt>
      <trkpt lat="42.01036" lon="19.41953">
        <ele>54.867739</ele>
        <time>2022-05-26T08:30:49.241Z</time>
      </trkpt>
      <trkpt lat="42.01039" lon="19.4194">
        <ele>54.915507</ele>
        <time>2022-05-26T08:30:51.233Z</time>
      </trkpt>
      <trkpt lat="42.0104" lon="19.41928">
        <ele>54.961447</ele>
        <time>2022-05-26T08:30:53.226Z</time>
      </trkpt>
      <trkpt lat="42.01041" lon="19.41915">
        <ele>55.008643</ele>
        <time>2022-05-26T08:30:55.245Z</time>
      </trkpt>
      <trkpt lat="42.01042" lon="19.41902">
        <ele>55.056994</ele>
        <time>2022-05-26T08:30:57.227Z</time>
      </trkpt>
      <trkpt lat="42.01041" lon="19.41889">
        <ele>55.102993</ele>
        <time>2022-05-26T08:30:59.237Z</time>
      </trkpt>
      <trkpt lat="42.0104" lon="19.41877">
        <ele>55.150307</ele>
        <time>2022-05-26T08:31:01.236Z</time>
      </trkpt>
      <trkpt lat="42.0104" lon="19.41864">
        <ele>55.197945</ele>
        <time>2022-05-26T08:31:03.233Z</time>
      </trkpt>
      <trkpt lat="42.0104" lon="19.4185">
        <ele>55.246304</ele>
        <time>2022-05-26T08:31:05.266Z</time>
      </trkpt>
      <trkpt lat="42.01041" lon="19.41837">
        <ele>55.293761</ele>
        <time>2022-05-26T08:31:07.247Z</time>
      </trkpt>
      <trkpt lat="42.01043" lon="19.41825">
        <ele>55.339274</ele>
        <time>2022-05-26T08:31:09.230Z</time>
      </trkpt>
      <trkpt lat="42.01045" lon="19.41813">
        <ele>55.387286</ele>
        <time>2022-05-26T08:31:11.239Z</time>
      </trkpt>
      <trkpt lat="42.01047" lon="19.418">
        <ele>55.431883</ele>
        <time>2022-05-26T08:31:13.244Z</time>
      </trkpt>
      <trkpt lat="42.0105" lon="19.41787">
        <ele>55.441902</ele>
        <time>2022-05-26T08:31:15.243Z</time>
      </trkpt>
      <trkpt lat="42.01052" lon="19.41773">
        <ele>55.452169</ele>
        <time>2022-05-26T08:31:17.250Z</time>
      </trkpt>
      <trkpt lat="42.01054" lon="19.41759">
        <ele>55.462677</ele>
        <time>2022-05-26T08:31:19.232Z</time>
      </trkpt>
      <trkpt lat="42.01056" lon="19.41746">
        <ele>55.47309</ele>
        <time>2022-05-26T08:31:21.245Z</time>
      </trkpt>
      <trkpt lat="42.01058" lon="19.41733">
        <ele>55.483244</ele>
        <time>2022-05-26T08:31:23.226Z</time>
      </trkpt>
      <trkpt lat="42.0106" lon="19.41719">
        <ele>55.493435</ele>
        <time>2022-05-26T08:31:25.255Z</time>
      </trkpt>
      <trkpt lat="42.01061" lon="19.41706">
        <ele>55.50361</ele>
        <time>2022-05-26T08:31:27.223Z</time>
      </trkpt>
      <trkpt lat="42.01063" lon="19.41692">
        <ele>55.514171</ele>
        <time>2022-05-26T08:31:29.247Z</time>
      </trkpt>
      <trkpt lat="42.01065" lon="19.41679">
        <ele>55.524198</ele>
        <time>2022-05-26T08:31:31.241Z</time>
      </trkpt>
      <trkpt lat="42.01067" lon="19.41666">
        <ele>55.533857</ele>
        <time>2022-05-26T08:31:33.234Z</time>
      </trkpt>
      <trkpt lat="42.01069" lon="19.41654">
        <ele>55.543029</ele>
        <time>2022-05-26T08:31:35.252Z</time>
      </trkpt>
      <trkpt lat="42.01072" lon="19.41642">
        <ele>55.552716</ele>
        <time>2022-05-26T08:31:37.266Z</time>
      </trkpt>
      <trkpt lat="42.01074" lon="19.41629">
        <ele>55.562783</ele>
        <time>2022-05-26T08:31:39.256Z</time>
      </trkpt>
      <trkpt lat="42.01077" lon="19.41616">
        <ele>55.572744</ele>
        <time>2022-05-26T08:31:41.239Z</time>
      </trkpt>
      <trkpt lat="42.0108" lon="19.41603">
        <ele>55.582666</ele>
        <time>2022-05-26T08:31:43.222Z</time>
      </trkpt>
      <trkpt lat="42.01082" lon="19.41591">
        <ele>55.59242</ele>
        <time>2022-05-26T08:31:45.260Z</time>
      </trkpt>
      <trkpt lat="42.01085" lon="19.41578">
        <ele>55.602596</ele>
        <time>2022-05-26T08:31:47.231Z</time>
      </trkpt>
      <trkpt lat="42.01087" lon="19.41564">
        <ele>55.611442</ele>
        <time>2022-05-26T08:31:49.229Z</time>
      </trkpt>
      <trkpt lat="42.01088" lon="19.41551">
        <ele>55.595522</ele>
        <time>2022-05-26T08:31:51.284Z</time>
      </trkpt>
      <trkpt lat="42.0109" lon="19.41538">
        <ele>55.580249</ele>
        <time>2022-05-26T08:31:53.239Z</time>
      </trkpt>
      <trkpt lat="42.01092" lon="19.41525">
        <ele>55.565239</ele>
        <time>2022-05-26T08:31:55.231Z</time>
      </trkpt>
      <trkpt lat="42.01093" lon="19.41512">
        <ele>55.550585</ele>
        <time>2022-05-26T08:31:57.240Z</time>
      </trkpt>
      <trkpt lat="42.01095" lon="19.415">
        <ele>55.53621</ele>
        <time>2022-05-26T08:31:59.226Z</time>
      </trkpt>
      <trkpt lat="42.01097" lon="19.41487">
        <ele>55.521834</ele>
        <time>2022-05-26T08:32:01.248Z</time>
      </trkpt>
      <trkpt lat="42.01099" lon="19.41475">
        <ele>55.507281</ele>
        <time>2022-05-26T08:32:03.233Z</time>
      </trkpt>
      <trkpt lat="42.01101" lon="19.41463">
        <ele>55.492985</ele>
        <time>2022-05-26T08:32:05.228Z</time>
      </trkpt>
      <trkpt lat="42.01103" lon="19.41451">
        <ele>55.479006</ele>
        <time>2022-05-26T08:32:07.224Z</time>
      </trkpt>
      <trkpt lat="42.01105" lon="19.41439">
        <ele>55.464863</ele>
        <time>2022-05-26T08:32:09.239Z</time>
      </trkpt>
      <trkpt lat="42.01107" lon="19.41427">
        <ele>55.45079</ele>
        <time>2022-05-26T08:32:11.261Z</time>
      </trkpt>
      <trkpt lat="42.0111" lon="19.41409">
        <ele>55.43053</ele>
        <time>2022-05-26T08:32:14.236Z</time>
      </trkpt>
      <trkpt lat="42.01113" lon="19.41392">
        <ele>55.410536</ele>
        <time>2022-05-26T08:32:17.235Z</time>
      </trkpt>
      <trkpt lat="42.01116" lon="19.41376">
        <ele>55.390652</ele>
        <time>2022-05-26T08:32:20.233Z</time>
      </trkpt>
      <trkpt lat="42.01119" lon="19.41364">
        <ele>55.376432</ele>
        <time>2022-05-26T08:32:22.226Z</time>
      </trkpt>
      <trkpt lat="42.01121" lon="19.41352">
        <ele>55.362322</ele>
        <time>2022-05-26T08:32:24.272Z</time>
      </trkpt>
      <trkpt lat="42.01124" lon="19.4134">
        <ele>55.348281</ele>
        <time>2022-05-26T08:32:26.252Z</time>
      </trkpt>
      <trkpt lat="42.01126" lon="19.41328">
        <ele>55.327889</ele>
        <time>2022-05-26T08:32:28.240Z</time>
      </trkpt>
      <trkpt lat="42.01128" lon="19.41315">
        <ele>55.2362</ele>
        <time>2022-05-26T08:32:30.261Z</time>
      </trkpt>
      <trkpt lat="42.0113" lon="19.41303">
        <ele>55.143071</ele>
        <time>2022-05-26T08:32:32.245Z</time>
      </trkpt>
      <trkpt lat="42.01133" lon="19.4129">
        <ele>55.051148</ele>
        <time>2022-05-26T08:32:34.218Z</time>
      </trkpt>
      <trkpt lat="42.01135" lon="19.41277">
        <ele>54.957121</ele>
        <time>2022-05-26T08:32:36.221Z</time>
      </trkpt>
      <trkpt lat="42.01137" lon="19.41265">
        <ele>54.864272</ele>
        <time>2022-05-26T08:32:38.243Z</time>
      </trkpt>
      <trkpt lat="42.01139" lon="19.41252">
        <ele>54.770969</ele>
        <time>2022-05-26T08:32:40.251Z</time>
      </trkpt>
      <trkpt lat="42.01142" lon="19.41239">
        <ele>54.677331</ele>
        <time>2022-05-26T08:32:42.224Z</time>
      </trkpt>
      <trkpt lat="42.01146" lon="19.41226">
        <ele>54.576547</ele>
        <time>2022-05-26T08:32:44.241Z</time>
      </trkpt>
      <trkpt lat="42.0115" lon="19.41213">
        <ele>54.477745</ele>
        <time>2022-05-26T08:32:46.209Z</time>
      </trkpt>
      <trkpt lat="42.01153" lon="19.412">
        <ele>54.378627</ele>
        <time>2022-05-26T08:32:48.237Z</time>
      </trkpt>
      <trkpt lat="42.01157" lon="19.41187">
        <ele>54.281442</ele>
        <time>2022-05-26T08:32:50.250Z</time>
      </trkpt>
      <trkpt lat="42.01161" lon="19.41175">
        <ele>54.184316</ele>
        <time>2022-05-26T08:32:52.276Z</time>
      </trkpt>
      <trkpt lat="42.01165" lon="19.41162">
        <ele>54.089175</ele>
        <time>2022-05-26T08:32:54.233Z</time>
      </trkpt>
      <trkpt lat="42.01168" lon="19.4115">
        <ele>53.996012</ele>
        <time>2022-05-26T08:32:56.225Z</time>
      </trkpt>
      <trkpt lat="42.01172" lon="19.41137">
        <ele>53.891807</ele>
        <time>2022-05-26T08:32:58.273Z</time>
      </trkpt>
      <trkpt lat="42.01176" lon="19.41123">
        <ele>53.785352</ele>
        <time>2022-05-26T08:33:00.243Z</time>
      </trkpt>
      <trkpt lat="42.0118" lon="19.41109">
        <ele>53.678897</ele>
        <time>2022-05-26T08:33:02.225Z</time>
      </trkpt>
      <trkpt lat="42.01184" lon="19.41095">
        <ele>53.60428</ele>
        <time>2022-05-26T08:33:04.266Z</time>
      </trkpt>
      <trkpt lat="42.01187" lon="19.41082">
        <ele>53.583385</ele>
        <time>2022-05-26T08:33:06.237Z</time>
      </trkpt>
      <trkpt lat="42.0119" lon="19.41068">
        <ele>53.561533</ele>
        <time>2022-05-26T08:33:08.241Z</time>
      </trkpt>
      <trkpt lat="42.01193" lon="19.41054">
        <ele>53.538804</ele>
        <time>2022-05-26T08:33:10.273Z</time>
      </trkpt>
      <trkpt lat="42.01196" lon="19.4104">
        <ele>53.516165</ele>
        <time>2022-05-26T08:33:12.232Z</time>
      </trkpt>
      <trkpt lat="42.01199" lon="19.41026">
        <ele>53.494076</ele>
        <time>2022-05-26T08:33:14.241Z</time>
      </trkpt>
      <trkpt lat="42.01202" lon="19.41012">
        <ele>53.472719</ele>
        <time>2022-05-26T08:33:16.218Z</time>
      </trkpt>
      <trkpt lat="42.01204" lon="19.40999">
        <ele>53.451671</ele>
        <time>2022-05-26T08:33:18.222Z</time>
      </trkpt>
      <trkpt lat="42.01207" lon="19.40986">
        <ele>53.431128</ele>
        <time>2022-05-26T08:33:20.246Z</time>
      </trkpt>
      <trkpt lat="42.0121" lon="19.40973">
        <ele>53.411052</ele>
        <time>2022-05-26T08:33:22.233Z</time>
      </trkpt>
      <trkpt lat="42.01212" lon="19.40961">
        <ele>53.391481</ele>
        <time>2022-05-26T08:33:24.244Z</time>
      </trkpt>
      <trkpt lat="42.01215" lon="19.40948">
        <ele>53.372075</ele>
        <time>2022-05-26T08:33:26.232Z</time>
      </trkpt>
      <trkpt lat="42.01218" lon="19.40936">
        <ele>53.352173</ele>
        <time>2022-05-26T08:33:28.231Z</time>
      </trkpt>
      <trkpt lat="42.0122" lon="19.40923">
        <ele>53.332353</ele>
        <time>2022-05-26T08:33:30.260Z</time>
      </trkpt>
      <trkpt lat="42.01223" lon="19.4091">
        <ele>53.312016</ele>
        <time>2022-05-26T08:33:32.231Z</time>
      </trkpt>
      <trkpt lat="42.01226" lon="19.40897">
        <ele>53.29022</ele>
        <time>2022-05-26T08:33:34.235Z</time>
      </trkpt>
      <trkpt lat="42.01229" lon="19.40882">
        <ele>53.267377</ele>
        <time>2022-05-26T08:33:36.214Z</time>
      </trkpt>
      <trkpt lat="42.01232" lon="19.40868">
        <ele>53.245233</ele>
        <time>2022-05-26T08:33:38.234Z</time>
      </trkpt>
      <trkpt lat="42.01236" lon="19.40854">
        <ele>53.179596</ele>
        <time>2022-05-26T08:33:40.233Z</time>
      </trkpt>
      <trkpt lat="42.01239" lon="19.4084">
        <ele>53.109077</ele>
        <time>2022-05-26T08:33:42.245Z</time>
      </trkpt>
      <trkpt lat="42.01243" lon="19.40825">
        <ele>53.037285</ele>
        <time>2022-05-26T08:33:44.235Z</time>
      </trkpt>
      <trkpt lat="42.01246" lon="19.40811">
        <ele>52.967273</ele>
        <time>2022-05-26T08:33:46.252Z</time>
      </trkpt>
      <trkpt lat="42.0125" lon="19.40798">
        <ele>52.898783</ele>
        <time>2022-05-26T08:33:48.262Z</time>
      </trkpt>
      <trkpt lat="42.01255" lon="19.40785">
        <ele>52.831763</ele>
        <time>2022-05-26T08:33:50.238Z</time>
      </trkpt>
      <trkpt lat="42.01259" lon="19.40772">
        <ele>52.764948</ele>
        <time>2022-05-26T08:33:52.236Z</time>
      </trkpt>
      <trkpt lat="42.01264" lon="19.40759">
        <ele>52.699224</ele>
        <time>2022-05-26T08:33:54.264Z</time>
      </trkpt>
      <trkpt lat="42.01269" lon="19.40747">
        <ele>52.634216</ele>
        <time>2022-05-26T08:33:56.238Z</time>
      </trkpt>
      <trkpt lat="42.01275" lon="19.40736">
        <ele>52.570489</ele>
        <time>2022-05-26T08:33:58.232Z</time>
      </trkpt>
      <trkpt lat="42.0128" lon="19.40724">
        <ele>52.505964</ele>
        <time>2022-05-26T08:34:00.240Z</time>
      </trkpt>
      <trkpt lat="42.01285" lon="19.40712">
        <ele>52.440864</ele>
        <time>2022-05-26T08:34:02.242Z</time>
      </trkpt>
      <trkpt lat="42.0129" lon="19.407">
        <ele>52.37617</ele>
        <time>2022-05-26T08:34:04.239Z</time>
      </trkpt>
      <trkpt lat="42.01295" lon="19.40687">
        <ele>52.310749</ele>
        <time>2022-05-26T08:34:06.237Z</time>
      </trkpt>
      <trkpt lat="42.01299" lon="19.40675">
        <ele>52.247059</ele>
        <time>2022-05-26T08:34:08.243Z</time>
      </trkpt>
      <trkpt lat="42.01303" lon="19.40663">
        <ele>52.184574</ele>
        <time>2022-05-26T08:34:10.240Z</time>
      </trkpt>
      <trkpt lat="42.01308" lon="19.40652">
        <ele>52.123027</ele>
        <time>2022-05-26T08:34:12.250Z</time>
      </trkpt>
      <trkpt lat="42.01313" lon="19.4064">
        <ele>52.097543</ele>
        <time>2022-05-26T08:34:14.237Z</time>
      </trkpt>
      <trkpt lat="42.01317" lon="19.40629">
        <ele>52.081896</ele>
        <time>2022-05-26T08:34:16.270Z</time>
      </trkpt>
      <trkpt lat="42.01322" lon="19.40618">
        <ele>52.066549</ele>
        <time>2022-05-26T08:34:18.241Z</time>
      </trkpt>
      <trkpt lat="42.01326" lon="19.40607">
        <ele>52.050857</ele>
        <time>2022-05-26T08:34:20.223Z</time>
      </trkpt>
      <trkpt lat="42.0133" lon="19.40596">
        <ele>52.034863</ele>
        <time>2022-05-26T08:34:22.212Z</time>
      </trkpt>
      <trkpt lat="42.01335" lon="19.40585">
        <ele>52.019439</ele>
        <time>2022-05-26T08:34:24.237Z</time>
      </trkpt>
      <trkpt lat="42.01339" lon="19.40574">
        <ele>52.003303</ele>
        <time>2022-05-26T08:34:26.235Z</time>
      </trkpt>
      <trkpt lat="42.01343" lon="19.40562">
        <ele>51.987355</ele>
        <time>2022-05-26T08:34:28.265Z</time>
      </trkpt>
      <trkpt lat="42.01348" lon="19.40551">
        <ele>51.971408</ele>
        <time>2022-05-26T08:34:30.243Z</time>
      </trkpt>
      <trkpt lat="42.01352" lon="19.4054">
        <ele>51.955798</ele>
        <time>2022-05-26T08:34:32.257Z</time>
      </trkpt>
      <trkpt lat="42.01358" lon="19.40524">
        <ele>51.933242</ele>
        <time>2022-05-26T08:34:35.233Z</time>
      </trkpt>
      <trkpt lat="42.01364" lon="19.40509">
        <ele>51.9114</ele>
        <time>2022-05-26T08:34:38.232Z</time>
      </trkpt>
      <trkpt lat="42.0137" lon="19.40493">
        <ele>51.889824</ele>
        <time>2022-05-26T08:34:41.225Z</time>
      </trkpt>
      <trkpt lat="42.01375" lon="19.40478">
        <ele>51.868287</ele>
        <time>2022-05-26T08:34:44.252Z</time>
      </trkpt>
      <trkpt lat="42.01381" lon="19.40462">
        <ele>51.846338</ele>
        <time>2022-05-26T08:34:47.243Z</time>
      </trkpt>
      <trkpt lat="42.01386" lon="19.40446">
        <ele>51.82392</ele>
        <time>2022-05-26T08:34:50.222Z</time>
      </trkpt>
      <trkpt lat="42.01392" lon="19.4043">
        <ele>51.803043</ele>
        <time>2022-05-26T08:34:53.249Z</time>
      </trkpt>
      <trkpt lat="42.01396" lon="19.40414">
        <ele>51.786893</ele>
        <time>2022-05-26T08:34:56.239Z</time>
      </trkpt>
      <trkpt lat="42.01401" lon="19.40398">
        <ele>51.770966</ele>
        <time>2022-05-26T08:34:59.235Z</time>
      </trkpt>
      <trkpt lat="42.01407" lon="19.40383">
        <ele>51.75494</ele>
        <time>2022-05-26T08:35:02.277Z</time>
      </trkpt>
      <trkpt lat="42.01411" lon="19.40367">
        <ele>51.738965</ele>
        <time>2022-05-26T08:35:05.232Z</time>
      </trkpt>
      <trkpt lat="42.01416" lon="19.40353">
        <ele>51.724153</ele>
        <time>2022-05-26T08:35:08.273Z</time>
      </trkpt>
      <trkpt lat="42.0142" lon="19.40339">
        <ele>51.709583</ele>
        <time>2022-05-26T08:35:11.264Z</time>
      </trkpt>
      <trkpt lat="42.01425" lon="19.40324">
        <ele>51.694278</ele>
        <time>2022-05-26T08:35:14.217Z</time>
      </trkpt>
      <trkpt lat="42.0143" lon="19.40308">
        <ele>51.677905</ele>
        <time>2022-05-26T08:35:17.232Z</time>
      </trkpt>
      <trkpt lat="42.01435" lon="19.40291">
        <ele>51.660647</ele>
        <time>2022-05-26T08:35:20.241Z</time>
      </trkpt>
      <trkpt lat="42.01438" lon="19.40279">
        <ele>51.648713</ele>
        <time>2022-05-26T08:35:22.240Z</time>
      </trkpt>
      <trkpt lat="42.01444" lon="19.40263">
        <ele>51.631655</ele>
        <time>2022-05-26T08:35:25.238Z</time>
      </trkpt>
      <trkpt lat="42.01447" lon="19.40251">
        <ele>51.619798</ele>
        <time>2022-05-26T08:35:27.243Z</time>
      </trkpt>
      <trkpt lat="42.01451" lon="19.4024">
        <ele>51.608063</ele>
        <time>2022-05-26T08:35:29.244Z</time>
      </trkpt>
      <trkpt lat="42.01456" lon="19.40223">
        <ele>51.590882</ele>
        <time>2022-05-26T08:35:32.232Z</time>
      </trkpt>
      <trkpt lat="42.0146" lon="19.40212">
        <ele>51.579319</ele>
        <time>2022-05-26T08:35:34.233Z</time>
      </trkpt>
      <trkpt lat="42.01464" lon="19.40201">
        <ele>51.725636</ele>
        <time>2022-05-26T08:35:36.239Z</time>
      </trkpt>
      <trkpt lat="42.01467" lon="19.40189">
        <ele>51.896918</ele>
        <time>2022-05-26T08:35:38.243Z</time>
      </trkpt>
      <trkpt lat="42.01473" lon="19.40173">
        <ele>52.141965</ele>
        <time>2022-05-26T08:35:41.273Z</time>
      </trkpt>
      <trkpt lat="42.01478" lon="19.40157">
        <ele>52.385987</ele>
        <time>2022-05-26T08:35:44.254Z</time>
      </trkpt>
      <trkpt lat="42.01483" lon="19.40143">
        <ele>52.604571</ele>
        <time>2022-05-26T08:35:47.249Z</time>
      </trkpt>
      <trkpt lat="42.0149" lon="19.4013">
        <ele>52.825771</ele>
        <time>2022-05-26T08:35:50.225Z</time>
      </trkpt>
      <trkpt lat="42.01496" lon="19.40117">
        <ele>53.043122</ele>
        <time>2022-05-26T08:35:53.257Z</time>
      </trkpt>
      <trkpt lat="42.01503" lon="19.40105">
        <ele>53.250458</ele>
        <time>2022-05-26T08:35:56.241Z</time>
      </trkpt>
      <trkpt lat="42.0151" lon="19.40093">
        <ele>53.455551</ele>
        <time>2022-05-26T08:35:59.225Z</time>
      </trkpt>
      <trkpt lat="42.01516" lon="19.40082">
        <ele>53.656395</ele>
        <time>2022-05-26T08:36:02.238Z</time>
      </trkpt>
      <trkpt lat="42.01522" lon="19.40071">
        <ele>53.844764</ele>
        <time>2022-05-26T08:36:05.244Z</time>
      </trkpt>
      <trkpt lat="42.01529" lon="19.4006">
        <ele>54.03434</ele>
        <time>2022-05-26T08:36:08.268Z</time>
      </trkpt>
      <trkpt lat="42.01535" lon="19.4005">
        <ele>54.223208</ele>
        <time>2022-05-26T08:36:11.241Z</time>
      </trkpt>
      <trkpt lat="42.01541" lon="19.40039">
        <ele>54.412696</ele>
        <time>2022-05-26T08:36:14.220Z</time>
      </trkpt>
      <trkpt lat="42.01548" lon="19.40028">
        <ele>54.607795</ele>
        <time>2022-05-26T08:36:17.250Z</time>
      </trkpt>
      <trkpt lat="42.01554" lon="19.40018">
        <ele>54.795123</ele>
        <time>2022-05-26T08:36:20.240Z</time>
      </trkpt>
      <trkpt lat="42.0156" lon="19.40007">
        <ele>54.981081</ele>
        <time>2022-05-26T08:36:23.250Z</time>
      </trkpt>
      <trkpt lat="42.01566" lon="19.39996">
        <ele>55.204227</ele>
        <time>2022-05-26T08:36:26.238Z</time>
      </trkpt>
      <trkpt lat="42.01572" lon="19.39985">
        <ele>55.432691</ele>
        <time>2022-05-26T08:36:29.245Z</time>
      </trkpt>
      <trkpt lat="42.01578" lon="19.39975">
        <ele>55.657198</ele>
        <time>2022-05-26T08:36:32.240Z</time>
      </trkpt>
      <trkpt lat="42.01584" lon="19.39965">
        <ele>55.864816</ele>
        <time>2022-05-26T08:36:35.234Z</time>
      </trkpt>
      <trkpt lat="42.01592" lon="19.39953">
        <ele>56.123883</ele>
        <time>2022-05-26T08:36:39.243Z</time>
      </trkpt>
      <trkpt lat="42.01599" lon="19.39942">
        <ele>56.37129</ele>
        <time>2022-05-26T08:36:43.232Z</time>
      </trkpt>
      <trkpt lat="42.01607" lon="19.39931">
        <ele>56.615981</ele>
        <time>2022-05-26T08:36:47.222Z</time>
      </trkpt>
      <trkpt lat="42.01615" lon="19.3992">
        <ele>56.866107</ele>
        <time>2022-05-26T08:36:51.225Z</time>
      </trkpt>
      <trkpt lat="42.01623" lon="19.3991">
        <ele>57.108419</ele>
        <time>2022-05-26T08:36:55.236Z</time>
      </trkpt>
      <trkpt lat="42.0163" lon="19.399">
        <ele>57.339847</ele>
        <time>2022-05-26T08:36:59.216Z</time>
      </trkpt>
      <trkpt lat="42.01638" lon="19.3989">
        <ele>57.569692</ele>
        <time>2022-05-26T08:37:03.239Z</time>
      </trkpt>
      <trkpt lat="42.01645" lon="19.39881">
        <ele>57.788614</ele>
        <time>2022-05-26T08:37:07.261Z</time>
      </trkpt>
      <trkpt lat="42.01652" lon="19.39872">
        <ele>58.007286</ele>
        <time>2022-05-26T08:37:11.224Z</time>
      </trkpt>
      <trkpt lat="42.01658" lon="19.39863">
        <ele>58.211815</ele>
        <time>2022-05-26T08:37:15.263Z</time>
      </trkpt>
      <trkpt lat="42.01666" lon="19.39853">
        <ele>58.443243</ele>
        <time>2022-05-26T08:37:19.269Z</time>
      </trkpt>
      <trkpt lat="42.01674" lon="19.39842">
        <ele>58.696445</ele>
        <time>2022-05-26T08:37:23.252Z</time>
      </trkpt>
      <trkpt lat="42.01682" lon="19.39831">
        <ele>58.925552</ele>
        <time>2022-05-26T08:37:27.260Z</time>
      </trkpt>
      <trkpt lat="42.01689" lon="19.39821">
        <ele>58.96602</ele>
        <time>2022-05-26T08:37:31.248Z</time>
      </trkpt>
      <trkpt lat="42.01697" lon="19.3981">
        <ele>59.00669</ele>
        <time>2022-05-26T08:37:35.246Z</time>
      </trkpt>
      <trkpt lat="42.01704" lon="19.398">
        <ele>59.04578</ele>
        <time>2022-05-26T08:37:39.233Z</time>
      </trkpt>
      <trkpt lat="42.01712" lon="19.3979">
        <ele>59.08622</ele>
        <time>2022-05-26T08:37:43.215Z</time>
      </trkpt>
      <trkpt lat="42.0172" lon="19.39782">
        <ele>59.121496</ele>
        <time>2022-05-26T08:37:46.232Z</time>
      </trkpt>
      <trkpt lat="42.01727" lon="19.39773">
        <ele>59.15824</ele>
        <time>2022-05-26T08:37:49.240Z</time>
      </trkpt>
      <trkpt lat="42.01736" lon="19.39764">
        <ele>59.199583</ele>
        <time>2022-05-26T08:37:52.236Z</time>
      </trkpt>
      <trkpt lat="42.01744" lon="19.39754">
        <ele>59.240486</ele>
        <time>2022-05-26T08:37:55.232Z</time>
      </trkpt>
      <trkpt lat="42.01753" lon="19.39745">
        <ele>59.281828</ele>
        <time>2022-05-26T08:37:58.231Z</time>
      </trkpt>
      <trkpt lat="42.01761" lon="19.39735">
        <ele>59.324388</ele>
        <time>2022-05-26T08:38:01.241Z</time>
      </trkpt>
      <trkpt lat="42.01769" lon="19.39725">
        <ele>59.365292</ele>
        <time>2022-05-26T08:38:04.221Z</time>
      </trkpt>
      <trkpt lat="42.01778" lon="19.39715">
        <ele>59.407489</ele>
        <time>2022-05-26T08:38:07.244Z</time>
      </trkpt>
      <trkpt lat="42.01785" lon="19.39704">
        <ele>59.446417</ele>
        <time>2022-05-26T08:38:10.273Z</time>
      </trkpt>
      <trkpt lat="42.0179" lon="19.39692">
        <ele>59.486106</ele>
        <time>2022-05-26T08:38:13.238Z</time>
      </trkpt>
      <trkpt lat="42.01794" lon="19.39677">
        <ele>59.529269</ele>
        <time>2022-05-26T08:38:16.240Z</time>
      </trkpt>
      <trkpt lat="42.01796" lon="19.3966">
        <ele>59.576094</ele>
        <time>2022-05-26T08:38:19.229Z</time>
      </trkpt>
      <trkpt lat="42.01797" lon="19.39648">
        <ele>59.522406</ele>
        <time>2022-05-26T08:38:21.265Z</time>
      </trkpt>
      <trkpt lat="42.01797" lon="19.39635">
        <ele>59.398802</ele>
        <time>2022-05-26T08:38:23.273Z</time>
      </trkpt>
      <trkpt lat="42.01798" lon="19.39621">
        <ele>59.266618</ele>
        <time>2022-05-26T08:38:25.246Z</time>
      </trkpt>
      <trkpt lat="42.01799" lon="19.39607">
        <ele>59.128791</ele>
        <time>2022-05-26T08:38:27.232Z</time>
      </trkpt>
      <trkpt lat="42.01799" lon="19.39592">
        <ele>58.987212</ele>
        <time>2022-05-26T08:38:29.225Z</time>
      </trkpt>
      <trkpt lat="42.01799" lon="19.39577">
        <ele>58.847637</ele>
        <time>2022-05-26T08:38:31.224Z</time>
      </trkpt>
      <trkpt lat="42.018" lon="19.39562">
        <ele>58.703924</ele>
        <time>2022-05-26T08:38:33.233Z</time>
      </trkpt>
      <trkpt lat="42.01802" lon="19.39548">
        <ele>58.560811</ele>
        <time>2022-05-26T08:38:35.222Z</time>
      </trkpt>
      <trkpt lat="42.01804" lon="19.39533">
        <ele>58.415638</ele>
        <time>2022-05-26T08:38:37.235Z</time>
      </trkpt>
      <trkpt lat="42.01807" lon="19.39518">
        <ele>58.270292</ele>
        <time>2022-05-26T08:38:39.234Z</time>
      </trkpt>
      <trkpt lat="42.0181" lon="19.39503">
        <ele>58.121566</ele>
        <time>2022-05-26T08:38:41.224Z</time>
      </trkpt>
      <trkpt lat="42.01813" lon="19.39487">
        <ele>57.965989</ele>
        <time>2022-05-26T08:38:43.218Z</time>
      </trkpt>
      <trkpt lat="42.01816" lon="19.39471">
        <ele>57.806125</ele>
        <time>2022-05-26T08:38:45.274Z</time>
      </trkpt>
      <trkpt lat="42.01819" lon="19.39455">
        <ele>57.647179</ele>
        <time>2022-05-26T08:38:47.237Z</time>
      </trkpt>
      <trkpt lat="42.01822" lon="19.39439">
        <ele>57.492884</ele>
        <time>2022-05-26T08:38:49.228Z</time>
      </trkpt>
      <trkpt lat="42.01824" lon="19.39423">
        <ele>57.342019</ele>
        <time>2022-05-26T08:38:51.236Z</time>
      </trkpt>
      <trkpt lat="42.01824" lon="19.39409">
        <ele>57.182175</ele>
        <time>2022-05-26T08:38:53.223Z</time>
      </trkpt>
      <trkpt lat="42.01824" lon="19.39394">
        <ele>57.007813</ele>
        <time>2022-05-26T08:38:55.243Z</time>
      </trkpt>
      <trkpt lat="42.01823" lon="19.3938">
        <ele>56.831554</ele>
        <time>2022-05-26T08:38:57.242Z</time>
      </trkpt>
      <trkpt lat="42.01822" lon="19.39365">
        <ele>56.654232</ele>
        <time>2022-05-26T08:38:59.243Z</time>
      </trkpt>
      <trkpt lat="42.01821" lon="19.39351">
        <ele>56.485352</ele>
        <time>2022-05-26T08:39:01.251Z</time>
      </trkpt>
      <trkpt lat="42.0182" lon="19.39338">
        <ele>56.322345</ele>
        <time>2022-05-26T08:39:03.251Z</time>
      </trkpt>
      <trkpt lat="42.01819" lon="19.39324">
        <ele>56.157339</ele>
        <time>2022-05-26T08:39:05.237Z</time>
      </trkpt>
      <trkpt lat="42.01818" lon="19.39311">
        <ele>55.989349</ele>
        <time>2022-05-26T08:39:07.223Z</time>
      </trkpt>
      <trkpt lat="42.01817" lon="19.39297">
        <ele>55.818951</ele>
        <time>2022-05-26T08:39:09.222Z</time>
      </trkpt>
      <trkpt lat="42.01816" lon="19.39283">
        <ele>55.651126</ele>
        <time>2022-05-26T08:39:11.289Z</time>
      </trkpt>
      <trkpt lat="42.01816" lon="19.39269">
        <ele>55.4826</ele>
        <time>2022-05-26T08:39:13.233Z</time>
      </trkpt>
      <trkpt lat="42.01815" lon="19.39255">
        <ele>55.307546</ele>
        <time>2022-05-26T08:39:15.237Z</time>
      </trkpt>
      <trkpt lat="42.01814" lon="19.3924">
        <ele>55.13143</ele>
        <time>2022-05-26T08:39:17.233Z</time>
      </trkpt>
      <trkpt lat="42.01813" lon="19.39225">
        <ele>54.953966</ele>
        <time>2022-05-26T08:39:19.246Z</time>
      </trkpt>
      <trkpt lat="42.01812" lon="19.39211">
        <ele>54.779956</ele>
        <time>2022-05-26T08:39:21.252Z</time>
      </trkpt>
      <trkpt lat="42.0181" lon="19.39197">
        <ele>54.612788</ele>
        <time>2022-05-26T08:39:23.241Z</time>
      </trkpt>
      <trkpt lat="42.01809" lon="19.39183">
        <ele>54.441348</ele>
        <time>2022-05-26T08:39:25.221Z</time>
      </trkpt>
      <trkpt lat="42.01809" lon="19.39169">
        <ele>54.30252</ele>
        <time>2022-05-26T08:39:27.225Z</time>
      </trkpt>
      <trkpt lat="42.01808" lon="19.39154">
        <ele>54.207534</ele>
        <time>2022-05-26T08:39:29.233Z</time>
      </trkpt>
      <trkpt lat="42.01807" lon="19.39138">
        <ele>54.110113</ele>
        <time>2022-05-26T08:39:31.248Z</time>
      </trkpt>
      <trkpt lat="42.01805" lon="19.39123">
        <ele>54.015031</ele>
        <time>2022-05-26T08:39:33.233Z</time>
      </trkpt>
      <trkpt lat="42.01804" lon="19.39109">
        <ele>53.920044</ele>
        <time>2022-05-26T08:39:35.238Z</time>
      </trkpt>
      <trkpt lat="42.01803" lon="19.39093">
        <ele>53.822344</ele>
        <time>2022-05-26T08:39:37.224Z</time>
      </trkpt>
      <trkpt lat="42.01801" lon="19.39078">
        <ele>53.724206</ele>
        <time>2022-05-26T08:39:39.255Z</time>
      </trkpt>
      <trkpt lat="42.018" lon="19.39062">
        <ele>53.624178</ele>
        <time>2022-05-26T08:39:41.264Z</time>
      </trkpt>
      <trkpt lat="42.018" lon="19.39046">
        <ele>53.524616</ele>
        <time>2022-05-26T08:39:43.249Z</time>
      </trkpt>
      <trkpt lat="42.018" lon="19.39031">
        <ele>53.428266</ele>
        <time>2022-05-26T08:39:45.237Z</time>
      </trkpt>
      <trkpt lat="42.018" lon="19.39016">
        <ele>53.331204</ele>
        <time>2022-05-26T08:39:47.232Z</time>
      </trkpt>
      <trkpt lat="42.01801" lon="19.39">
        <ele>53.230977</ele>
        <time>2022-05-26T08:39:49.245Z</time>
      </trkpt>
      <trkpt lat="42.01802" lon="19.38985">
        <ele>53.131663</ele>
        <time>2022-05-26T08:39:51.240Z</time>
      </trkpt>
      <trkpt lat="42.01803" lon="19.38969">
        <ele>53.034455</ele>
        <time>2022-05-26T08:39:53.234Z</time>
      </trkpt>
      <trkpt lat="42.01804" lon="19.38954">
        <ele>52.937578</ele>
        <time>2022-05-26T08:39:55.247Z</time>
      </trkpt>
      <trkpt lat="42.01805" lon="19.38939">
        <ele>52.843125</ele>
        <time>2022-05-26T08:39:57.241Z</time>
      </trkpt>
      <trkpt lat="42.01806" lon="19.38925">
        <ele>52.831005</ele>
        <time>2022-05-26T08:39:59.238Z</time>
      </trkpt>
      <trkpt lat="42.01808" lon="19.38911">
        <ele>52.858396</ele>
        <time>2022-05-26T08:40:01.243Z</time>
      </trkpt>
      <trkpt lat="42.01809" lon="19.38898">
        <ele>52.885333</ele>
        <time>2022-05-26T08:40:03.237Z</time>
      </trkpt>
      <trkpt lat="42.0181" lon="19.38884">
        <ele>52.912496</ele>
        <time>2022-05-26T08:40:05.228Z</time>
      </trkpt>
      <trkpt lat="42.01812" lon="19.3887">
        <ele>52.940274</ele>
        <time>2022-05-26T08:40:07.232Z</time>
      </trkpt>
      <trkpt lat="42.01813" lon="19.38856">
        <ele>52.967794</ele>
        <time>2022-05-26T08:40:09.246Z</time>
      </trkpt>
      <trkpt lat="42.01814" lon="19.38842">
        <ele>52.99448</ele>
        <time>2022-05-26T08:40:11.236Z</time>
      </trkpt>
      <trkpt lat="42.01815" lon="19.38828">
        <ele>53.021485</ele>
        <time>2022-05-26T08:40:13.241Z</time>
      </trkpt>
      <trkpt lat="42.01816" lon="19.38815">
        <ele>53.047952</ele>
        <time>2022-05-26T08:40:15.237Z</time>
      </trkpt>
      <trkpt lat="42.01817" lon="19.38801">
        <ele>53.074946</ele>
        <time>2022-05-26T08:40:17.265Z</time>
      </trkpt>
      <trkpt lat="42.01817" lon="19.38787">
        <ele>53.102284</ele>
        <time>2022-05-26T08:40:19.220Z</time>
      </trkpt>
      <trkpt lat="42.01816" lon="19.38773">
        <ele>53.130414</ele>
        <time>2022-05-26T08:40:21.212Z</time>
      </trkpt>
      <trkpt lat="42.01815" lon="19.38758">
        <ele>53.15916</ele>
        <time>2022-05-26T08:40:23.259Z</time>
      </trkpt>
      <trkpt lat="42.01813" lon="19.38743">
        <ele>53.188059</ele>
        <time>2022-05-26T08:40:25.214Z</time>
      </trkpt>
      <trkpt lat="42.01811" lon="19.38728">
        <ele>53.217773</ele>
        <time>2022-05-26T08:40:27.272Z</time>
      </trkpt>
      <trkpt lat="42.01809" lon="19.38714">
        <ele>53.247246</ele>
        <time>2022-05-26T08:40:29.231Z</time>
      </trkpt>
      <trkpt lat="42.01807" lon="19.38699">
        <ele>53.276767</ele>
        <time>2022-05-26T08:40:31.235Z</time>
      </trkpt>
      <trkpt lat="42.01805" lon="19.38684">
        <ele>53.298063</ele>
        <time>2022-05-26T08:40:33.298Z</time>
      </trkpt>
      <trkpt lat="42.01803" lon="19.38669">
        <ele>53.315367</ele>
        <time>2022-05-26T08:40:35.235Z</time>
      </trkpt>
      <trkpt lat="42.01801" lon="19.38654">
        <ele>53.332642</ele>
        <time>2022-05-26T08:40:37.239Z</time>
      </trkpt>
      <trkpt lat="42.018" lon="19.38639">
        <ele>53.349989</ele>
        <time>2022-05-26T08:40:39.232Z</time>
      </trkpt>
      <trkpt lat="42.018" lon="19.38624">
        <ele>53.367389</ele>
        <time>2022-05-26T08:40:41.239Z</time>
      </trkpt>
      <trkpt lat="42.018" lon="19.38609">
        <ele>53.384586</ele>
        <time>2022-05-26T08:40:43.244Z</time>
      </trkpt>
      <trkpt lat="42.01801" lon="19.38595">
        <ele>53.401391</ele>
        <time>2022-05-26T08:40:45.241Z</time>
      </trkpt>
      <trkpt lat="42.01803" lon="19.3858">
        <ele>53.418528</ele>
        <time>2022-05-26T08:40:47.256Z</time>
      </trkpt>
      <trkpt lat="42.01806" lon="19.38566">
        <ele>53.435841</ele>
        <time>2022-05-26T08:40:49.231Z</time>
      </trkpt>
      <trkpt lat="42.0181" lon="19.38552">
        <ele>53.452854</ele>
        <time>2022-05-26T08:40:51.249Z</time>
      </trkpt>
      <trkpt lat="42.01816" lon="19.38539">
        <ele>53.469632</ele>
        <time>2022-05-26T08:40:53.244Z</time>
      </trkpt>
      <trkpt lat="42.01822" lon="19.38528">
        <ele>53.485444</ele>
        <time>2022-05-26T08:40:55.240Z</time>
      </trkpt>
      <trkpt lat="42.01828" lon="19.38518">
        <ele>53.50056</ele>
        <time>2022-05-26T08:40:57.234Z</time>
      </trkpt>
      <trkpt lat="42.01835" lon="19.38508">
        <ele>53.516196</ele>
        <time>2022-05-26T08:40:59.257Z</time>
      </trkpt>
      <trkpt lat="42.01841" lon="19.38499">
        <ele>53.530608</ele>
        <time>2022-05-26T08:41:01.242Z</time>
      </trkpt>
      <trkpt lat="42.01848" lon="19.3849">
        <ele>53.545557</ele>
        <time>2022-05-26T08:41:03.240Z</time>
      </trkpt>
      <trkpt lat="42.01855" lon="19.38481">
        <ele>53.560407</ele>
        <time>2022-05-26T08:41:05.250Z</time>
      </trkpt>
      <trkpt lat="42.01863" lon="19.38472">
        <ele>53.557603</ele>
        <time>2022-05-26T08:41:07.239Z</time>
      </trkpt>
      <trkpt lat="42.0187" lon="19.38463">
        <ele>53.548886</ele>
        <time>2022-05-26T08:41:09.249Z</time>
      </trkpt>
      <trkpt lat="42.01877" lon="19.38455">
        <ele>53.540236</ele>
        <time>2022-05-26T08:41:11.251Z</time>
      </trkpt>
      <trkpt lat="42.01884" lon="19.38446">
        <ele>53.531677</ele>
        <time>2022-05-26T08:41:13.248Z</time>
      </trkpt>
      <trkpt lat="42.01891" lon="19.38437">
        <ele>53.522804</ele>
        <time>2022-05-26T08:41:15.319Z</time>
      </trkpt>
      <trkpt lat="42.01898" lon="19.38428">
        <ele>53.514127</ele>
        <time>2022-05-26T08:41:17.245Z</time>
      </trkpt>
      <trkpt lat="42.01904" lon="19.38418">
        <ele>53.505473</ele>
        <time>2022-05-26T08:41:19.255Z</time>
      </trkpt>
      <trkpt lat="42.01911" lon="19.38409">
        <ele>53.496668</ele>
        <time>2022-05-26T08:41:21.226Z</time>
      </trkpt>
      <trkpt lat="42.01917" lon="19.38399">
        <ele>53.487744</ele>
        <time>2022-05-26T08:41:23.237Z</time>
      </trkpt>
      <trkpt lat="42.01924" lon="19.38389">
        <ele>53.478941</ele>
        <time>2022-05-26T08:41:25.233Z</time>
      </trkpt>
      <trkpt lat="42.01931" lon="19.38379">
        <ele>53.470067</ele>
        <time>2022-05-26T08:41:27.253Z</time>
      </trkpt>
      <trkpt lat="42.01937" lon="19.38369">
        <ele>53.461229</ele>
        <time>2022-05-26T08:41:29.234Z</time>
      </trkpt>
      <trkpt lat="42.01942" lon="19.38359">
        <ele>53.452502</ele>
        <time>2022-05-26T08:41:31.247Z</time>
      </trkpt>
      <trkpt lat="42.01948" lon="19.38348">
        <ele>53.443934</ele>
        <time>2022-05-26T08:41:33.232Z</time>
      </trkpt>
      <trkpt lat="42.01953" lon="19.38338">
        <ele>53.435473</ele>
        <time>2022-05-26T08:41:35.236Z</time>
      </trkpt>
      <trkpt lat="42.01958" lon="19.38327">
        <ele>53.42704</ele>
        <time>2022-05-26T08:41:37.261Z</time>
      </trkpt>
      <trkpt lat="42.01963" lon="19.38316">
        <ele>53.418815</ele>
        <time>2022-05-26T08:41:39.237Z</time>
      </trkpt>
      <trkpt lat="42.01967" lon="19.38306">
        <ele>53.410372</ele>
        <time>2022-05-26T08:41:41.243Z</time>
      </trkpt>
      <trkpt lat="42.01972" lon="19.38295">
        <ele>53.401939</ele>
        <time>2022-05-26T08:41:43.236Z</time>
      </trkpt>
      <trkpt lat="42.01977" lon="19.38285">
        <ele>53.416136</ele>
        <time>2022-05-26T08:41:45.239Z</time>
      </trkpt>
      <trkpt lat="42.01982" lon="19.38275">
        <ele>53.430791</ele>
        <time>2022-05-26T08:41:47.248Z</time>
      </trkpt>
      <trkpt lat="42.01987" lon="19.38265">
        <ele>53.445652</ele>
        <time>2022-05-26T08:41:49.236Z</time>
      </trkpt>
      <trkpt lat="42.01995" lon="19.3825">
        <ele>53.467182</ele>
        <time>2022-05-26T08:41:52.240Z</time>
      </trkpt>
      <trkpt lat="42.02" lon="19.38239">
        <ele>53.481943</ele>
        <time>2022-05-26T08:41:54.325Z</time>
      </trkpt>
      <trkpt lat="42.02005" lon="19.38229">
        <ele>53.497206</ele>
        <time>2022-05-26T08:41:56.234Z</time>
      </trkpt>
      <trkpt lat="42.0201" lon="19.38218">
        <ele>53.51218</ele>
        <time>2022-05-26T08:41:58.242Z</time>
      </trkpt>
      <trkpt lat="42.02015" lon="19.38208">
        <ele>53.527342</ele>
        <time>2022-05-26T08:42:00.234Z</time>
      </trkpt>
      <trkpt lat="42.0202" lon="19.38197">
        <ele>53.542215</ele>
        <time>2022-05-26T08:42:02.241Z</time>
      </trkpt>
      <trkpt lat="42.02025" lon="19.38186">
        <ele>53.557325</ele>
        <time>2022-05-26T08:42:04.229Z</time>
      </trkpt>
      <trkpt lat="42.0203" lon="19.38176">
        <ele>53.571808</ele>
        <time>2022-05-26T08:42:06.216Z</time>
      </trkpt>
      <trkpt lat="42.02037" lon="19.38161">
        <ele>53.593263</ele>
        <time>2022-05-26T08:42:09.221Z</time>
      </trkpt>
      <trkpt lat="42.02043" lon="19.38145">
        <ele>53.615069</ele>
        <time>2022-05-26T08:42:12.233Z</time>
      </trkpt>
      <trkpt lat="42.02047" lon="19.38134">
        <ele>53.629737</ele>
        <time>2022-05-26T08:42:14.241Z</time>
      </trkpt>
      <trkpt lat="42.02051" lon="19.38123">
        <ele>53.644436</ele>
        <time>2022-05-26T08:42:16.268Z</time>
      </trkpt>
      <trkpt lat="42.02054" lon="19.38111">
        <ele>53.659573</ele>
        <time>2022-05-26T08:42:18.231Z</time>
      </trkpt>
      <trkpt lat="42.02057" lon="19.38099">
        <ele>53.674769</ele>
        <time>2022-05-26T08:42:20.221Z</time>
      </trkpt>
      <trkpt lat="42.02061" lon="19.38087">
        <ele>53.690358</ele>
        <time>2022-05-26T08:42:22.293Z</time>
      </trkpt>
      <trkpt lat="42.02064" lon="19.38074">
        <ele>53.612187</ele>
        <time>2022-05-26T08:42:24.217Z</time>
      </trkpt>
      <trkpt lat="42.02068" lon="19.38062">
        <ele>53.516801</ele>
        <time>2022-05-26T08:42:26.227Z</time>
      </trkpt>
      <trkpt lat="42.02071" lon="19.38049">
        <ele>53.42272</ele>
        <time>2022-05-26T08:42:28.270Z</time>
      </trkpt>
      <trkpt lat="42.02075" lon="19.38036">
        <ele>53.328638</ele>
        <time>2022-05-26T08:42:30.240Z</time>
      </trkpt>
      <trkpt lat="42.02078" lon="19.38023">
        <ele>53.233577</ele>
        <time>2022-05-26T08:42:32.243Z</time>
      </trkpt>
      <trkpt lat="42.02082" lon="19.38011">
        <ele>53.139127</ele>
        <time>2022-05-26T08:42:34.217Z</time>
      </trkpt>
      <trkpt lat="42.02085" lon="19.37998">
        <ele>53.046347</ele>
        <time>2022-05-26T08:42:36.238Z</time>
      </trkpt>
      <trkpt lat="42.02089" lon="19.37985">
        <ele>52.952839</ele>
        <time>2022-05-26T08:42:38.271Z</time>
      </trkpt>
      <trkpt lat="42.02092" lon="19.37973">
        <ele>52.859392</ele>
        <time>2022-05-26T08:42:40.257Z</time>
      </trkpt>
      <trkpt lat="42.02095" lon="19.3796">
        <ele>52.763668</ele>
        <time>2022-05-26T08:42:42.233Z</time>
      </trkpt>
      <trkpt lat="42.02098" lon="19.37947">
        <ele>52.671252</ele>
        <time>2022-05-26T08:42:44.225Z</time>
      </trkpt>
      <trkpt lat="42.021" lon="19.37934">
        <ele>52.57754</ele>
        <time>2022-05-26T08:42:46.219Z</time>
      </trkpt>
      <trkpt lat="42.02102" lon="19.3792">
        <ele>52.48279</ele>
        <time>2022-05-26T08:42:48.224Z</time>
      </trkpt>
      <trkpt lat="42.02104" lon="19.37908">
        <ele>52.391449</ele>
        <time>2022-05-26T08:42:50.227Z</time>
      </trkpt>
      <trkpt lat="42.02106" lon="19.37894">
        <ele>52.295268</ele>
        <time>2022-05-26T08:42:52.257Z</time>
      </trkpt>
      <trkpt lat="42.02106" lon="19.37879">
        <ele>52.193063</ele>
        <time>2022-05-26T08:42:54.235Z</time>
      </trkpt>
      <trkpt lat="42.02104" lon="19.37864">
        <ele>52.087729</ele>
        <time>2022-05-26T08:42:56.238Z</time>
      </trkpt>
      <trkpt lat="42.02099" lon="19.3785">
        <ele>52.018109</ele>
        <time>2022-05-26T08:42:58.223Z</time>
      </trkpt>
      <trkpt lat="42.02092" lon="19.37838">
        <ele>52.044936</ele>
        <time>2022-05-26T08:43:00.277Z</time>
      </trkpt>
      <trkpt lat="42.02084" lon="19.37828">
        <ele>52.071793</ele>
        <time>2022-05-26T08:43:02.241Z</time>
      </trkpt>
      <trkpt lat="42.02075" lon="19.37818">
        <ele>52.099464</ele>
        <time>2022-05-26T08:43:04.250Z</time>
      </trkpt>
      <trkpt lat="42.02066" lon="19.37808">
        <ele>52.126737</ele>
        <time>2022-05-26T08:43:06.239Z</time>
      </trkpt>
      <trkpt lat="42.02057" lon="19.37799">
        <ele>52.152922</ele>
        <time>2022-05-26T08:43:08.252Z</time>
      </trkpt>
      <trkpt lat="42.02048" lon="19.3779">
        <ele>52.178045</ele>
        <time>2022-05-26T08:43:10.213Z</time>
      </trkpt>
      <trkpt lat="42.0204" lon="19.37781">
        <ele>52.203382</ele>
        <time>2022-05-26T08:43:12.236Z</time>
      </trkpt>
      <trkpt lat="42.02031" lon="19.37772">
        <ele>52.229119</ele>
        <time>2022-05-26T08:43:14.218Z</time>
      </trkpt>
      <trkpt lat="42.02023" lon="19.37763">
        <ele>52.254783</ele>
        <time>2022-05-26T08:43:16.234Z</time>
      </trkpt>
      <trkpt lat="42.02014" lon="19.37754">
        <ele>52.280811</ele>
        <time>2022-05-26T08:43:18.223Z</time>
      </trkpt>
      <trkpt lat="42.02005" lon="19.37744">
        <ele>52.307767</ele>
        <time>2022-05-26T08:43:20.250Z</time>
      </trkpt>
      <trkpt lat="42.01995" lon="19.37734">
        <ele>52.335254</ele>
        <time>2022-05-26T08:43:22.281Z</time>
      </trkpt>
      <trkpt lat="42.01986" lon="19.37725">
        <ele>52.362502</ele>
        <time>2022-05-26T08:43:24.236Z</time>
      </trkpt>
      <trkpt lat="42.01977" lon="19.37715">
        <ele>52.39039</ele>
        <time>2022-05-26T08:43:26.230Z</time>
      </trkpt>
      <trkpt lat="42.01968" lon="19.37705">
        <ele>52.418169</ele>
        <time>2022-05-26T08:43:28.264Z</time>
      </trkpt>
      <trkpt lat="42.01958" lon="19.37695">
        <ele>52.482081</ele>
        <time>2022-05-26T08:43:30.256Z</time>
      </trkpt>
      <trkpt lat="42.01949" lon="19.37685">
        <ele>52.579501</ele>
        <time>2022-05-26T08:43:32.242Z</time>
      </trkpt>
      <trkpt lat="42.0194" lon="19.37675">
        <ele>52.676825</ele>
        <time>2022-05-26T08:43:34.212Z</time>
      </trkpt>
      <trkpt lat="42.0193" lon="19.37666">
        <ele>52.774267</ele>
        <time>2022-05-26T08:43:36.224Z</time>
      </trkpt>
      <trkpt lat="42.01921" lon="19.37656">
        <ele>52.870821</ele>
        <time>2022-05-26T08:43:38.228Z</time>
      </trkpt>
      <trkpt lat="42.01912" lon="19.37647">
        <ele>52.965322</ele>
        <time>2022-05-26T08:43:40.276Z</time>
      </trkpt>
      <trkpt lat="42.01902" lon="19.37636">
        <ele>53.06723</ele>
        <time>2022-05-26T08:43:42.234Z</time>
      </trkpt>
      <trkpt lat="42.01892" lon="19.37626">
        <ele>53.169138</ele>
        <time>2022-05-26T08:43:44.253Z</time>
      </trkpt>
      <trkpt lat="42.01883" lon="19.37616">
        <ele>53.267846</ele>
        <time>2022-05-26T08:43:46.233Z</time>
      </trkpt>
      <trkpt lat="42.01874" lon="19.37606">
        <ele>53.366935</ele>
        <time>2022-05-26T08:43:48.236Z</time>
      </trkpt>
      <trkpt lat="42.01864" lon="19.37596">
        <ele>53.463972</ele>
        <time>2022-05-26T08:43:50.245Z</time>
      </trkpt>
      <trkpt lat="42.01855" lon="19.37586">
        <ele>53.559342</ele>
        <time>2022-05-26T08:43:52.222Z</time>
      </trkpt>
      <trkpt lat="42.01847" lon="19.37576">
        <ele>53.653976</ele>
        <time>2022-05-26T08:43:54.224Z</time>
      </trkpt>
      <trkpt lat="42.01839" lon="19.37565">
        <ele>53.747905</ele>
        <time>2022-05-26T08:43:56.243Z</time>
      </trkpt>
      <trkpt lat="42.01831" lon="19.37554">
        <ele>53.838787</ele>
        <time>2022-05-26T08:43:58.243Z</time>
      </trkpt>
      <trkpt lat="42.01823" lon="19.37544">
        <ele>53.931131</ele>
        <time>2022-05-26T08:44:00.250Z</time>
      </trkpt>
      <trkpt lat="42.01816" lon="19.37532">
        <ele>54.034617</ele>
        <time>2022-05-26T08:44:02.239Z</time>
      </trkpt>
      <trkpt lat="42.01809" lon="19.37522">
        <ele>54.13645</ele>
        <time>2022-05-26T08:44:04.217Z</time>
      </trkpt>
      <trkpt lat="42.01802" lon="19.37511">
        <ele>54.23782</ele>
        <time>2022-05-26T08:44:06.233Z</time>
      </trkpt>
      <trkpt lat="42.01794" lon="19.37499">
        <ele>54.343577</ele>
        <time>2022-05-26T08:44:08.274Z</time>
      </trkpt>
      <trkpt lat="42.01787" lon="19.37488">
        <ele>54.450247</ele>
        <time>2022-05-26T08:44:10.239Z</time>
      </trkpt>
      <trkpt lat="42.01779" lon="19.37476">
        <ele>54.557842</ele>
        <time>2022-05-26T08:44:12.225Z</time>
      </trkpt>
      <trkpt lat="42.01772" lon="19.37465">
        <ele>54.663599</ele>
        <time>2022-05-26T08:44:14.242Z</time>
      </trkpt>
      <trkpt lat="42.01765" lon="19.37454">
        <ele>54.76497</ele>
        <time>2022-05-26T08:44:16.207Z</time>
      </trkpt>
      <trkpt lat="42.01758" lon="19.37442">
        <ele>54.869397</ele>
        <time>2022-05-26T08:44:18.220Z</time>
      </trkpt>
      <trkpt lat="42.01753" lon="19.37429">
        <ele>54.972285</ele>
        <time>2022-05-26T08:44:20.230Z</time>
      </trkpt>
      <trkpt lat="42.0175" lon="19.37415">
        <ele>55.071386</ele>
        <time>2022-05-26T08:44:22.217Z</time>
      </trkpt>
      <trkpt lat="42.01748" lon="19.37402">
        <ele>55.165271</ele>
        <time>2022-05-26T08:44:24.236Z</time>
      </trkpt>
      <trkpt lat="42.01746" lon="19.37389">
        <ele>55.256209</ele>
        <time>2022-05-26T08:44:26.226Z</time>
      </trkpt>
      <trkpt lat="42.01743" lon="19.37377">
        <ele>55.343434</ele>
        <time>2022-05-26T08:44:28.230Z</time>
      </trkpt>
      <trkpt lat="42.0174" lon="19.37365">
        <ele>55.428541</ele>
        <time>2022-05-26T08:44:31.215Z</time>
      </trkpt>
      <trkpt lat="42.01736" lon="19.37354">
        <ele>55.52039</ele>
        <time>2022-05-26T08:44:36.219Z</time>
      </trkpt>
      <trkpt lat="42.0173" lon="19.37344">
        <ele>55.595104</ele>
        <time>2022-05-26T08:44:40.232Z</time>
      </trkpt>
      <trkpt lat="42.01723" lon="19.37336">
        <ele>55.548686</ele>
        <time>2022-05-26T08:44:54.211Z</time>
      </trkpt>
      <trkpt lat="42.01717" lon="19.37322">
        <ele>55.496104</ele>
        <time>2022-05-26T08:44:59.218Z</time>
      </trkpt>
      <trkpt lat="42.01713" lon="19.37312">
        <ele>55.452788</ele>
        <time>2022-05-26T08:45:02.258Z</time>
      </trkpt>
      <trkpt lat="42.0171" lon="19.37299">
        <ele>55.405896</ele>
        <time>2022-05-26T08:45:05.224Z</time>
      </trkpt>
      <trkpt lat="42.01707" lon="19.37286">
        <ele>55.359933</ele>
        <time>2022-05-26T08:45:08.222Z</time>
      </trkpt>
      <trkpt lat="42.01704" lon="19.37274">
        <ele>55.314711</ele>
        <time>2022-05-26T08:45:11.232Z</time>
      </trkpt>
      <trkpt lat="42.01701" lon="19.3726">
        <ele>55.264917</ele>
        <time>2022-05-26T08:45:14.214Z</time>
      </trkpt>
      <trkpt lat="42.01697" lon="19.37249">
        <ele>55.218676</ele>
        <time>2022-05-26T08:45:17.340Z</time>
      </trkpt>
      <trkpt lat="42.01691" lon="19.37236">
        <ele>55.168342</ele>
        <time>2022-05-26T08:45:21.224Z</time>
      </trkpt>
      <trkpt lat="42.0169" lon="19.37211">
        <ele>55.079529</ele>
        <time>2022-05-26T08:51:50.251Z</time>
      </trkpt>
      <trkpt lat="42.01678" lon="19.37184">
        <ele>54.969379</ele>
        <time>2022-05-26T08:52:59.230Z</time>
      </trkpt>
      <trkpt lat="42.0167" lon="19.37172">
        <ele>54.911691</ele>
        <time>2022-05-26T08:53:02.246Z</time>
      </trkpt>
      <trkpt lat="42.01663" lon="19.3716">
        <ele>54.859569</ele>
        <time>2022-05-26T08:53:05.243Z</time>
      </trkpt>
      <trkpt lat="42.01657" lon="19.37148">
        <ele>54.809647</ele>
        <time>2022-05-26T08:53:08.241Z</time>
      </trkpt>
      <trkpt lat="42.01653" lon="19.37135">
        <ele>54.760077</ele>
        <time>2022-05-26T08:53:11.225Z</time>
      </trkpt>
      <trkpt lat="42.01651" lon="19.3712">
        <ele>54.51099</ele>
        <time>2022-05-26T08:53:14.218Z</time>
      </trkpt>
      <trkpt lat="42.01647" lon="19.37103">
        <ele>54.177655</ele>
        <time>2022-05-26T08:53:17.223Z</time>
      </trkpt>
      <trkpt lat="42.01644" lon="19.37086">
        <ele>53.844321</ele>
        <time>2022-05-26T08:53:20.229Z</time>
      </trkpt>
      <trkpt lat="42.01642" lon="19.37069">
        <ele>53.526981</ele>
        <time>2022-05-26T08:53:23.233Z</time>
      </trkpt>
      <trkpt lat="42.01639" lon="19.37054">
        <ele>53.240079</ele>
        <time>2022-05-26T08:53:26.277Z</time>
      </trkpt>
      <trkpt lat="42.01637" lon="19.37038">
        <ele>52.934811</ele>
        <time>2022-05-26T08:53:29.230Z</time>
      </trkpt>
      <trkpt lat="42.01635" lon="19.37025">
        <ele>52.669034</ele>
        <time>2022-05-26T08:53:31.244Z</time>
      </trkpt>
      <trkpt lat="42.01633" lon="19.37011">
        <ele>52.408311</ele>
        <time>2022-05-26T08:53:33.238Z</time>
      </trkpt>
      <trkpt lat="42.01631" lon="19.36998">
        <ele>52.157541</ele>
        <time>2022-05-26T08:53:35.223Z</time>
      </trkpt>
      <trkpt lat="42.01629" lon="19.36986">
        <ele>51.92746</ele>
        <time>2022-05-26T08:53:37.237Z</time>
      </trkpt>
      <trkpt lat="42.01627" lon="19.36974">
        <ele>51.692824</ele>
        <time>2022-05-26T08:53:39.236Z</time>
      </trkpt>
      <trkpt lat="42.01625" lon="19.36961">
        <ele>51.444473</ele>
        <time>2022-05-26T08:53:41.237Z</time>
      </trkpt>
      <trkpt lat="42.01621" lon="19.36949">
        <ele>51.184847</ele>
        <time>2022-05-26T08:53:43.235Z</time>
      </trkpt>
      <trkpt lat="42.01617" lon="19.36936">
        <ele>50.924462</ele>
        <time>2022-05-26T08:53:45.234Z</time>
      </trkpt>
      <trkpt lat="42.01613" lon="19.36924">
        <ele>50.668924</ele>
        <time>2022-05-26T08:53:47.264Z</time>
      </trkpt>
      <trkpt lat="42.01609" lon="19.36911">
        <ele>50.409597</ele>
        <time>2022-05-26T08:53:49.241Z</time>
      </trkpt>
      <trkpt lat="42.01605" lon="19.36899">
        <ele>50.171539</ele>
        <time>2022-05-26T08:53:51.237Z</time>
      </trkpt>
      <trkpt lat="42.01601" lon="19.36886">
        <ele>50.161872</ele>
        <time>2022-05-26T08:53:53.226Z</time>
      </trkpt>
      <trkpt lat="42.01596" lon="19.36874">
        <ele>50.152204</ele>
        <time>2022-05-26T08:53:55.241Z</time>
      </trkpt>
      <trkpt lat="42.01592" lon="19.36862">
        <ele>50.142708</ele>
        <time>2022-05-26T08:53:57.266Z</time>
      </trkpt>
      <trkpt lat="42.01588" lon="19.36851">
        <ele>50.133846</ele>
        <time>2022-05-26T08:53:59.264Z</time>
      </trkpt>
      <trkpt lat="42.01584" lon="19.3684">
        <ele>50.124628</ele>
        <time>2022-05-26T08:54:01.229Z</time>
      </trkpt>
      <trkpt lat="42.0158" lon="19.36828">
        <ele>50.115411</ele>
        <time>2022-05-26T08:54:03.216Z</time>
      </trkpt>
      <trkpt lat="42.01576" lon="19.36815">
        <ele>50.105457</ele>
        <time>2022-05-26T08:54:05.268Z</time>
      </trkpt>
      <trkpt lat="42.01572" lon="19.36803">
        <ele>50.095608</ele>
        <time>2022-05-26T08:54:07.237Z</time>
      </trkpt>
      <trkpt lat="42.01568" lon="19.36791">
        <ele>50.08593</ele>
        <time>2022-05-26T08:54:09.235Z</time>
      </trkpt>
      <trkpt lat="42.01564" lon="19.36779">
        <ele>50.076555</ele>
        <time>2022-05-26T08:54:11.266Z</time>
      </trkpt>
      <trkpt lat="42.0156" lon="19.36767">
        <ele>50.067207</ele>
        <time>2022-05-26T08:54:13.236Z</time>
      </trkpt>
      <trkpt lat="42.01556" lon="19.36755">
        <ele>50.05797</ele>
        <time>2022-05-26T08:54:15.238Z</time>
      </trkpt>
      <trkpt lat="42.01552" lon="19.36744">
        <ele>50.048701</ele>
        <time>2022-05-26T08:54:17.257Z</time>
      </trkpt>
      <trkpt lat="42.01548" lon="19.36732">
        <ele>50.039497</ele>
        <time>2022-05-26T08:54:19.240Z</time>
      </trkpt>
      <trkpt lat="42.01544" lon="19.36721">
        <ele>50.030518</ele>
        <time>2022-05-26T08:54:21.232Z</time>
      </trkpt>
      <trkpt lat="42.01541" lon="19.36709">
        <ele>50.021552</ele>
        <time>2022-05-26T08:54:23.265Z</time>
      </trkpt>
      <trkpt lat="42.01537" lon="19.36697">
        <ele>50.012216</ele>
        <time>2022-05-26T08:54:25.235Z</time>
      </trkpt>
      <trkpt lat="42.01533" lon="19.36686">
        <ele>50.002801</ele>
        <time>2022-05-26T08:54:27.239Z</time>
      </trkpt>
      <trkpt lat="42.01529" lon="19.36673">
        <ele>50.047532</ele>
        <time>2022-05-26T08:54:29.220Z</time>
      </trkpt>
      <trkpt lat="42.01525" lon="19.36661">
        <ele>50.149045</ele>
        <time>2022-05-26T08:54:31.237Z</time>
      </trkpt>
      <trkpt lat="42.0152" lon="19.3665">
        <ele>50.248939</ele>
        <time>2022-05-26T08:54:33.234Z</time>
      </trkpt>
      <trkpt lat="42.01516" lon="19.36638">
        <ele>50.350895</ele>
        <time>2022-05-26T08:54:35.283Z</time>
      </trkpt>
      <trkpt lat="42.01512" lon="19.36626">
        <ele>50.453101</ele>
        <time>2022-05-26T08:54:37.243Z</time>
      </trkpt>
      <trkpt lat="42.01507" lon="19.36614">
        <ele>50.555057</ele>
        <time>2022-05-26T08:54:39.234Z</time>
      </trkpt>
      <trkpt lat="42.01503" lon="19.36602">
        <ele>50.65678</ele>
        <time>2022-05-26T08:54:41.222Z</time>
      </trkpt>
      <trkpt lat="42.01499" lon="19.3659">
        <ele>50.75647</ele>
        <time>2022-05-26T08:54:43.238Z</time>
      </trkpt>
      <trkpt lat="42.01495" lon="19.36578">
        <ele>50.860499</ele>
        <time>2022-05-26T08:54:45.247Z</time>
      </trkpt>
      <trkpt lat="42.0149" lon="19.36565">
        <ele>50.966109</ele>
        <time>2022-05-26T08:54:47.214Z</time>
      </trkpt>
      <trkpt lat="42.01486" lon="19.36553">
        <ele>51.069893</ele>
        <time>2022-05-26T08:54:49.241Z</time>
      </trkpt>
      <trkpt lat="42.01482" lon="19.36541">
        <ele>51.171244</ele>
        <time>2022-05-26T08:54:51.248Z</time>
      </trkpt>
      <trkpt lat="42.01478" lon="19.36529">
        <ele>51.26931</ele>
        <time>2022-05-26T08:54:53.243Z</time>
      </trkpt>
      <trkpt lat="42.01473" lon="19.36518">
        <ele>51.368588</ele>
        <time>2022-05-26T08:54:55.236Z</time>
      </trkpt>
      <trkpt lat="42.01468" lon="19.36507">
        <ele>51.465972</ele>
        <time>2022-05-26T08:54:57.250Z</time>
      </trkpt>
      <trkpt lat="42.01463" lon="19.36497">
        <ele>51.558734</ele>
        <time>2022-05-26T08:54:59.217Z</time>
      </trkpt>
      <trkpt lat="42.01457" lon="19.36487">
        <ele>51.65582</ele>
        <time>2022-05-26T08:55:01.231Z</time>
      </trkpt>
      <trkpt lat="42.0145" lon="19.36478">
        <ele>51.757044</ele>
        <time>2022-05-26T08:55:03.272Z</time>
      </trkpt>
      <trkpt lat="42.01443" lon="19.36469">
        <ele>51.865612</ele>
        <time>2022-05-26T08:55:05.234Z</time>
      </trkpt>
      <trkpt lat="42.01436" lon="19.36462">
        <ele>52.292423</ele>
        <time>2022-05-26T08:55:07.239Z</time>
      </trkpt>
      <trkpt lat="42.01428" lon="19.36455">
        <ele>52.7056</ele>
        <time>2022-05-26T08:55:09.256Z</time>
      </trkpt>
      <trkpt lat="42.0142" lon="19.36448">
        <ele>53.129294</ele>
        <time>2022-05-26T08:55:11.238Z</time>
      </trkpt>
      <trkpt lat="42.01412" lon="19.36442">
        <ele>53.56333</ele>
        <time>2022-05-26T08:55:13.239Z</time>
      </trkpt>
      <trkpt lat="42.01401" lon="19.36436">
        <ele>54.135635</ele>
        <time>2022-05-26T08:55:16.244Z</time>
      </trkpt>
      <trkpt lat="42.01389" lon="19.3643">
        <ele>54.687139</ele>
        <time>2022-05-26T08:55:19.228Z</time>
      </trkpt>
      <trkpt lat="42.01378" lon="19.36425">
        <ele>55.258082</ele>
        <time>2022-05-26T08:55:22.240Z</time>
      </trkpt>
      <trkpt lat="42.01365" lon="19.3642">
        <ele>55.842423</ele>
        <time>2022-05-26T08:55:25.232Z</time>
      </trkpt>
      <trkpt lat="42.01355" lon="19.36415">
        <ele>56.353592</ele>
        <time>2022-05-26T08:55:28.227Z</time>
      </trkpt>
      <trkpt lat="42.01343" lon="19.3641">
        <ele>56.910396</ele>
        <time>2022-05-26T08:55:31.259Z</time>
      </trkpt>
      <trkpt lat="42.0133" lon="19.36404">
        <ele>57.542596</ele>
        <time>2022-05-26T08:55:34.220Z</time>
      </trkpt>
      <trkpt lat="42.01321" lon="19.36399">
        <ele>58.016932</ele>
        <time>2022-05-26T08:55:36.235Z</time>
      </trkpt>
      <trkpt lat="42.01312" lon="19.36393">
        <ele>58.48764</ele>
        <time>2022-05-26T08:55:38.227Z</time>
      </trkpt>
      <trkpt lat="42.01302" lon="19.36385">
        <ele>59.001722</ele>
        <time>2022-05-26T08:55:40.242Z</time>
      </trkpt>
      <trkpt lat="42.01292" lon="19.36377">
        <ele>59.529554</ele>
        <time>2022-05-26T08:55:42.256Z</time>
      </trkpt>
      <trkpt lat="42.01283" lon="19.36368">
        <ele>60.059011</ele>
        <time>2022-05-26T08:55:44.251Z</time>
      </trkpt>
      <trkpt lat="42.01273" lon="19.36359">
        <ele>60.022784</ele>
        <time>2022-05-26T08:55:46.237Z</time>
      </trkpt>
      <trkpt lat="42.01265" lon="19.36349">
        <ele>59.930845</ele>
        <time>2022-05-26T08:55:48.226Z</time>
      </trkpt>
      <trkpt lat="42.01256" lon="19.36338">
        <ele>59.835548</ele>
        <time>2022-05-26T08:55:50.215Z</time>
      </trkpt>
      <trkpt lat="42.01247" lon="19.36328">
        <ele>59.742626</ele>
        <time>2022-05-26T08:55:52.225Z</time>
      </trkpt>
      <trkpt lat="42.01239" lon="19.36317">
        <ele>59.653423</ele>
        <time>2022-05-26T08:55:54.267Z</time>
      </trkpt>
      <trkpt lat="42.01232" lon="19.36308">
        <ele>59.572096</ele>
        <time>2022-05-26T08:55:56.232Z</time>
      </trkpt>
      <trkpt lat="42.01224" lon="19.36298">
        <ele>59.488272</ele>
        <time>2022-05-26T08:55:58.223Z</time>
      </trkpt>
      <trkpt lat="42.01216" lon="19.36288">
        <ele>59.402661</ele>
        <time>2022-05-26T08:56:00.237Z</time>
      </trkpt>
      <trkpt lat="42.01208" lon="19.36278">
        <ele>59.316986</ele>
        <time>2022-05-26T08:56:02.233Z</time>
      </trkpt>
      <trkpt lat="42.01201" lon="19.36269">
        <ele>59.23375</ele>
        <time>2022-05-26T08:56:04.261Z</time>
      </trkpt>
      <trkpt lat="42.01193" lon="19.3626">
        <ele>59.155451</ele>
        <time>2022-05-26T08:56:06.239Z</time>
      </trkpt>
      <trkpt lat="42.01185" lon="19.36248">
        <ele>59.05827</ele>
        <time>2022-05-26T08:56:09.245Z</time>
      </trkpt>
      <trkpt lat="42.01179" lon="19.36237">
        <ele>58.975101</ele>
        <time>2022-05-26T08:56:12.240Z</time>
      </trkpt>
      <trkpt lat="42.01173" lon="19.36225">
        <ele>58.89498</ele>
        <time>2022-05-26T08:56:15.273Z</time>
      </trkpt>
      <trkpt lat="42.01168" lon="19.36213">
        <ele>58.815179</ele>
        <time>2022-05-26T08:56:18.228Z</time>
      </trkpt>
      <trkpt lat="42.01164" lon="19.36202">
        <ele>58.741948</ele>
        <time>2022-05-26T08:56:21.228Z</time>
      </trkpt>
      <trkpt lat="42.01161" lon="19.3619">
        <ele>58.629889</ele>
        <time>2022-05-26T08:56:24.248Z</time>
      </trkpt>
      <trkpt lat="42.01156" lon="19.36175">
        <ele>58.184962</ele>
        <time>2022-05-26T08:56:27.244Z</time>
      </trkpt>
      <trkpt lat="42.01152" lon="19.36164">
        <ele>57.834826</ele>
        <time>2022-05-26T08:56:29.241Z</time>
      </trkpt>
      <trkpt lat="42.01148" lon="19.36151">
        <ele>57.442603</ele>
        <time>2022-05-26T08:56:31.250Z</time>
      </trkpt>
      <trkpt lat="42.01143" lon="19.36137">
        <ele>57.011303</ele>
        <time>2022-05-26T08:56:33.232Z</time>
      </trkpt>
      <trkpt lat="42.01139" lon="19.36122">
        <ele>56.575128</ele>
        <time>2022-05-26T08:56:35.224Z</time>
      </trkpt>
      <trkpt lat="42.01135" lon="19.36107">
        <ele>56.118125</ele>
        <time>2022-05-26T08:56:37.267Z</time>
      </trkpt>
      <trkpt lat="42.0113" lon="19.36092">
        <ele>55.670012</ele>
        <time>2022-05-26T08:56:39.236Z</time>
      </trkpt>
      <trkpt lat="42.01125" lon="19.36076">
        <ele>55.208764</ele>
        <time>2022-05-26T08:56:41.235Z</time>
      </trkpt>
      <trkpt lat="42.0112" lon="19.36062">
        <ele>54.762819</ele>
        <time>2022-05-26T08:56:43.274Z</time>
      </trkpt>
      <trkpt lat="42.01116" lon="19.36047">
        <ele>54.323833</ele>
        <time>2022-05-26T08:56:45.233Z</time>
      </trkpt>
      <trkpt lat="42.01112" lon="19.36032">
        <ele>53.885074</ele>
        <time>2022-05-26T08:56:47.236Z</time>
      </trkpt>
      <trkpt lat="42.01107" lon="19.36018">
        <ele>53.442354</ele>
        <time>2022-05-26T08:56:49.267Z</time>
      </trkpt>
      <trkpt lat="42.01103" lon="19.36004">
        <ele>53.02046</ele>
        <time>2022-05-26T08:56:51.237Z</time>
      </trkpt>
      <trkpt lat="42.01099" lon="19.3599">
        <ele>52.605211</ele>
        <time>2022-05-26T08:56:53.236Z</time>
      </trkpt>
      <trkpt lat="42.01095" lon="19.35977">
        <ele>52.221174</ele>
        <time>2022-05-26T08:56:55.224Z</time>
      </trkpt>
      <trkpt lat="42.01093" lon="19.35964">
        <ele>51.973439</ele>
        <time>2022-05-26T08:56:57.224Z</time>
      </trkpt>
      <trkpt lat="42.01092" lon="19.3595">
        <ele>52.065974</ele>
        <time>2022-05-26T08:56:59.228Z</time>
      </trkpt>
      <trkpt lat="42.01093" lon="19.35936">
        <ele>52.153318</ele>
        <time>2022-05-26T08:57:01.231Z</time>
      </trkpt>
      <trkpt lat="42.01096" lon="19.35924">
        <ele>52.236404</ele>
        <time>2022-05-26T08:57:03.247Z</time>
      </trkpt>
      <trkpt lat="42.011" lon="19.35913">
        <ele>52.318363</ele>
        <time>2022-05-26T08:57:05.269Z</time>
      </trkpt>
      <trkpt lat="42.01105" lon="19.35903">
        <ele>52.39964</ele>
        <time>2022-05-26T08:57:07.259Z</time>
      </trkpt>
      <trkpt lat="42.0111" lon="19.35893">
        <ele>52.480378</ele>
        <time>2022-05-26T08:57:09.245Z</time>
      </trkpt>
      <trkpt lat="42.01115" lon="19.35882">
        <ele>52.560499</ele>
        <time>2022-05-26T08:57:11.256Z</time>
      </trkpt>
      <trkpt lat="42.01119" lon="19.35871">
        <ele>52.64064</ele>
        <time>2022-05-26T08:57:13.219Z</time>
      </trkpt>
      <trkpt lat="42.01122" lon="19.35859">
        <ele>52.724515</ele>
        <time>2022-05-26T08:57:15.234Z</time>
      </trkpt>
      <trkpt lat="42.01124" lon="19.35846">
        <ele>52.808161</ele>
        <time>2022-05-26T08:57:17.216Z</time>
      </trkpt>
      <trkpt lat="42.01126" lon="19.35833">
        <ele>52.893671</ele>
        <time>2022-05-26T08:57:19.264Z</time>
      </trkpt>
      <trkpt lat="42.01127" lon="19.35821">
        <ele>52.974531</ele>
        <time>2022-05-26T08:57:21.233Z</time>
      </trkpt>
      <trkpt lat="42.01129" lon="19.35809">
        <ele>53.055547</ele>
        <time>2022-05-26T08:57:23.271Z</time>
      </trkpt>
      <trkpt lat="42.0113" lon="19.35797">
        <ele>53.134971</ele>
        <time>2022-05-26T08:57:25.257Z</time>
      </trkpt>
      <trkpt lat="42.01133" lon="19.3578">
        <ele>53.248168</ele>
        <time>2022-05-26T08:57:28.243Z</time>
      </trkpt>
      <trkpt lat="42.01139" lon="19.35768">
        <ele>53.340105</ele>
        <time>2022-05-26T08:57:31.245Z</time>
      </trkpt>
      <trkpt lat="42.01149" lon="19.35761">
        <ele>53.438183</ele>
        <time>2022-05-26T08:57:34.225Z</time>
      </trkpt>
      <trkpt lat="42.01158" lon="19.35759">
        <ele>53.522369</ele>
        <time>2022-05-26T08:57:37.230Z</time>
      </trkpt>
      <trkpt lat="42.01169" lon="19.35758">
        <ele>53.676349</ele>
        <time>2022-05-26T08:57:40.255Z</time>
      </trkpt>
      <trkpt lat="42.01179" lon="19.35755">
        <ele>53.842238</ele>
        <time>2022-05-26T08:57:43.233Z</time>
      </trkpt>
      <trkpt lat="42.0119" lon="19.35752">
        <ele>54.001985</ele>
        <time>2022-05-26T08:57:46.227Z</time>
      </trkpt>
      <trkpt lat="42.012" lon="19.35748">
        <ele>54.159647</ele>
        <time>2022-05-26T08:57:49.254Z</time>
      </trkpt>
      <trkpt lat="42.0121" lon="19.35744">
        <ele>54.321477</ele>
        <time>2022-05-26T08:57:52.238Z</time>
      </trkpt>
      <trkpt lat="42.01219" lon="19.35739">
        <ele>54.47825</ele>
        <time>2022-05-26T08:57:55.215Z</time>
      </trkpt>
      <trkpt lat="42.01228" lon="19.35733">
        <ele>54.62944</ele>
        <time>2022-05-26T08:57:58.253Z</time>
      </trkpt>
      <trkpt lat="42.01238" lon="19.35727">
        <ele>54.789801</ele>
        <time>2022-05-26T08:58:01.228Z</time>
      </trkpt>
      <trkpt lat="42.01247" lon="19.3572">
        <ele>54.946509</ele>
        <time>2022-05-26T08:58:04.212Z</time>
      </trkpt>
      <trkpt lat="42.01255" lon="19.35711">
        <ele>55.111761</ele>
        <time>2022-05-26T08:58:07.265Z</time>
      </trkpt>
      <trkpt lat="42.01264" lon="19.35703">
        <ele>55.274787</ele>
        <time>2022-05-26T08:58:10.220Z</time>
      </trkpt>
      <trkpt lat="42.01272" lon="19.35691">
        <ele>55.45052</ele>
        <time>2022-05-26T08:58:13.221Z</time>
      </trkpt>
      <trkpt lat="42.01278" lon="19.35679">
        <ele>55.620829</ele>
        <time>2022-05-26T08:58:16.234Z</time>
      </trkpt>
      <trkpt lat="42.01281" lon="19.35662">
        <ele>55.820494</ele>
        <time>2022-05-26T08:58:19.237Z</time>
      </trkpt>
      <trkpt lat="42.01281" lon="19.35646">
        <ele>56.000498</ele>
        <time>2022-05-26T08:58:22.239Z</time>
      </trkpt>
      <trkpt lat="42.01277" lon="19.3563">
        <ele>56.186725</ele>
        <time>2022-05-26T08:58:25.223Z</time>
      </trkpt>
      <trkpt lat="42.01274" lon="19.35618">
        <ele>56.288005</ele>
        <time>2022-05-26T08:58:27.234Z</time>
      </trkpt>
      <trkpt lat="42.01271" lon="19.35604">
        <ele>56.347354</ele>
        <time>2022-05-26T08:58:29.242Z</time>
      </trkpt>
      <trkpt lat="42.01267" lon="19.3559">
        <ele>56.409616</ele>
        <time>2022-05-26T08:58:31.262Z</time>
      </trkpt>
      <trkpt lat="42.01264" lon="19.35577">
        <ele>56.469881</ele>
        <time>2022-05-26T08:58:33.232Z</time>
      </trkpt>
      <trkpt lat="42.01261" lon="19.35563">
        <ele>56.530663</ele>
        <time>2022-05-26T08:58:35.234Z</time>
      </trkpt>
      <trkpt lat="42.01257" lon="19.35549">
        <ele>56.590928</ele>
        <time>2022-05-26T08:58:37.255Z</time>
      </trkpt>
      <trkpt lat="42.01253" lon="19.35536">
        <ele>56.650016</ele>
        <time>2022-05-26T08:58:39.253Z</time>
      </trkpt>
      <trkpt lat="42.01249" lon="19.35524">
        <ele>56.708567</ele>
        <time>2022-05-26T08:58:41.213Z</time>
      </trkpt>
      <trkpt lat="42.01244" lon="19.35512">
        <ele>56.765493</ele>
        <time>2022-05-26T08:58:43.234Z</time>
      </trkpt>
      <trkpt lat="42.01239" lon="19.355">
        <ele>56.82166</ele>
        <time>2022-05-26T08:58:45.219Z</time>
      </trkpt>
      <trkpt lat="42.01234" lon="19.35488">
        <ele>56.880712</ele>
        <time>2022-05-26T08:58:47.253Z</time>
      </trkpt>
      <trkpt lat="42.01228" lon="19.35476">
        <ele>56.939659</ele>
        <time>2022-05-26T08:58:49.223Z</time>
      </trkpt>
      <trkpt lat="42.01222" lon="19.35465">
        <ele>56.999168</ele>
        <time>2022-05-26T08:58:51.229Z</time>
      </trkpt>
      <trkpt lat="42.01216" lon="19.35453">
        <ele>57.058347</ele>
        <time>2022-05-26T08:58:53.225Z</time>
      </trkpt>
      <trkpt lat="42.01209" lon="19.35442">
        <ele>57.115855</ele>
        <time>2022-05-26T08:58:55.242Z</time>
      </trkpt>
      <trkpt lat="42.01203" lon="19.35431">
        <ele>57.172347</ele>
        <time>2022-05-26T08:58:57.235Z</time>
      </trkpt>
      <trkpt lat="42.01198" lon="19.35421">
        <ele>57.227484</ele>
        <time>2022-05-26T08:58:59.244Z</time>
      </trkpt>
      <trkpt lat="42.01192" lon="19.3541">
        <ele>57.306178</ele>
        <time>2022-05-26T08:59:01.247Z</time>
      </trkpt>
      <trkpt lat="42.01186" lon="19.35399">
        <ele>57.59437</ele>
        <time>2022-05-26T08:59:03.232Z</time>
      </trkpt>
      <trkpt lat="42.0118" lon="19.35388">
        <ele>57.87735</ele>
        <time>2022-05-26T08:59:05.267Z</time>
      </trkpt>
      <trkpt lat="42.01174" lon="19.35377">
        <ele>58.16887</ele>
        <time>2022-05-26T08:59:07.248Z</time>
      </trkpt>
      <trkpt lat="42.01168" lon="19.35366">
        <ele>58.456935</ele>
        <time>2022-05-26T08:59:09.216Z</time>
      </trkpt>
      <trkpt lat="42.01161" lon="19.35355">
        <ele>58.75705</ele>
        <time>2022-05-26T08:59:11.280Z</time>
      </trkpt>
      <trkpt lat="42.01155" lon="19.35344">
        <ele>59.055286</ele>
        <time>2022-05-26T08:59:13.237Z</time>
      </trkpt>
      <trkpt lat="42.01149" lon="19.35332">
        <ele>59.358606</ele>
        <time>2022-05-26T08:59:15.267Z</time>
      </trkpt>
      <trkpt lat="42.01142" lon="19.35322">
        <ele>59.641733</ele>
        <time>2022-05-26T08:59:17.235Z</time>
      </trkpt>
      <trkpt lat="42.01136" lon="19.35311">
        <ele>59.918299</ele>
        <time>2022-05-26T08:59:19.228Z</time>
      </trkpt>
      <trkpt lat="42.0113" lon="19.35302">
        <ele>60.184442</ele>
        <time>2022-05-26T08:59:21.236Z</time>
      </trkpt>
      <trkpt lat="42.01123" lon="19.35288">
        <ele>60.553874</ele>
        <time>2022-05-26T08:59:24.244Z</time>
      </trkpt>
      <trkpt lat="42.01115" lon="19.35276">
        <ele>60.87784</ele>
        <time>2022-05-26T08:59:27.271Z</time>
      </trkpt>
      <trkpt lat="42.0111" lon="19.35266">
        <ele>61.139039</ele>
        <time>2022-05-26T08:59:30.235Z</time>
      </trkpt>
      <trkpt lat="42.01103" lon="19.35253">
        <ele>61.467941</ele>
        <time>2022-05-26T08:59:34.213Z</time>
      </trkpt>
      <trkpt lat="42.01096" lon="19.35242">
        <ele>61.786839</ele>
        <time>2022-05-26T08:59:38.267Z</time>
      </trkpt>
      <trkpt lat="42.01089" lon="19.3523">
        <ele>62.095268</ele>
        <time>2022-05-26T08:59:42.236Z</time>
      </trkpt>
      <trkpt lat="42.01083" lon="19.35218">
        <ele>62.38806</ele>
        <time>2022-05-26T08:59:46.247Z</time>
      </trkpt>
      <trkpt lat="42.01077" lon="19.35207">
        <ele>62.392781</ele>
        <time>2022-05-26T08:59:50.233Z</time>
      </trkpt>
      <trkpt lat="42.01072" lon="19.35196">
        <ele>62.397163</ele>
        <time>2022-05-26T08:59:54.259Z</time>
      </trkpt>
      <trkpt lat="42.01068" lon="19.35184">
        <ele>62.401435</ele>
        <time>2022-05-26T08:59:58.221Z</time>
      </trkpt>
      <trkpt lat="42.01064" lon="19.35172">
        <ele>62.405949</ele>
        <time>2022-05-26T09:00:02.236Z</time>
      </trkpt>
      <trkpt lat="42.0106" lon="19.3516">
        <ele>62.410694</ele>
        <time>2022-05-26T09:00:06.249Z</time>
      </trkpt>
      <trkpt lat="42.01053" lon="19.35147">
        <ele>62.416065</ele>
        <time>2022-05-26T09:00:10.214Z</time>
      </trkpt>
      <trkpt lat="42.01047" lon="19.35137">
        <ele>62.420401</ele>
        <time>2022-05-26T09:00:13.279Z</time>
      </trkpt>
      <trkpt lat="42.01039" lon="19.35127">
        <ele>62.425457</ele>
        <time>2022-05-26T09:00:16.227Z</time>
      </trkpt>
      <trkpt lat="42.01031" lon="19.3512">
        <ele>62.429626</ele>
        <time>2022-05-26T09:00:18.239Z</time>
      </trkpt>
      <trkpt lat="42.01023" lon="19.35113">
        <ele>62.433892</ele>
        <time>2022-05-26T09:00:20.244Z</time>
      </trkpt>
      <trkpt lat="42.01015" lon="19.35106">
        <ele>62.438686</ele>
        <time>2022-05-26T09:00:22.245Z</time>
      </trkpt>
      <trkpt lat="42.01006" lon="19.35097">
        <ele>62.443524</ele>
        <time>2022-05-26T09:00:24.263Z</time>
      </trkpt>
      <trkpt lat="42.00998" lon="19.3509">
        <ele>62.448015</ele>
        <time>2022-05-26T09:00:26.236Z</time>
      </trkpt>
      <trkpt lat="42.00989" lon="19.35082">
        <ele>62.452717</ele>
        <time>2022-05-26T09:00:28.234Z</time>
      </trkpt>
      <trkpt lat="42.0098" lon="19.35073">
        <ele>62.458026</ele>
        <time>2022-05-26T09:00:30.233Z</time>
      </trkpt>
      <trkpt lat="42.0097" lon="19.35062">
        <ele>62.463841</ele>
        <time>2022-05-26T09:00:32.247Z</time>
      </trkpt>
      <trkpt lat="42.00962" lon="19.35048">
        <ele>62.469844</ele>
        <time>2022-05-26T09:00:34.227Z</time>
      </trkpt>
      <trkpt lat="42.00955" lon="19.35033">
        <ele>62.243316</ele>
        <time>2022-05-26T09:00:36.239Z</time>
      </trkpt>
      <trkpt lat="42.00951" lon="19.35017">
        <ele>62.021281</ele>
        <time>2022-05-26T09:00:38.239Z</time>
      </trkpt>
      <trkpt lat="42.00948" lon="19.35002">
        <ele>61.808099</ele>
        <time>2022-05-26T09:00:40.247Z</time>
      </trkpt>
      <trkpt lat="42.00946" lon="19.34987">
        <ele>61.607182</ele>
        <time>2022-05-26T09:00:42.245Z</time>
      </trkpt>
      <trkpt lat="42.00944" lon="19.34972">
        <ele>61.411486</ele>
        <time>2022-05-26T09:00:44.244Z</time>
      </trkpt>
      <trkpt lat="42.00942" lon="19.34959">
        <ele>61.226217</ele>
        <time>2022-05-26T09:00:46.248Z</time>
      </trkpt>
      <trkpt lat="42.0094" lon="19.34945">
        <ele>61.043551</ele>
        <time>2022-05-26T09:00:48.231Z</time>
      </trkpt>
      <trkpt lat="42.00938" lon="19.34932">
        <ele>60.863487</ele>
        <time>2022-05-26T09:00:50.245Z</time>
      </trkpt>
      <trkpt lat="42.00936" lon="19.34919">
        <ele>60.686291</ele>
        <time>2022-05-26T09:00:52.280Z</time>
      </trkpt>
      <trkpt lat="42.00935" lon="19.34905">
        <ele>60.508817</ele>
        <time>2022-05-26T09:00:54.239Z</time>
      </trkpt>
      <trkpt lat="42.00934" lon="19.34892">
        <ele>60.332186</ele>
        <time>2022-05-26T09:00:56.225Z</time>
      </trkpt>
      <trkpt lat="42.00935" lon="19.3488">
        <ele>60.167401</ele>
        <time>2022-05-26T09:00:58.227Z</time>
      </trkpt>
      <trkpt lat="42.00936" lon="19.34867">
        <ele>60.002281</ele>
        <time>2022-05-26T09:01:00.236Z</time>
      </trkpt>
      <trkpt lat="42.00938" lon="19.34855">
        <ele>59.83353</ele>
        <time>2022-05-26T09:01:02.220Z</time>
      </trkpt>
      <trkpt lat="42.00942" lon="19.34843">
        <ele>59.66435</ele>
        <time>2022-05-26T09:01:04.222Z</time>
      </trkpt>
      <trkpt lat="42.00946" lon="19.34832">
        <ele>59.502619</ele>
        <time>2022-05-26T09:01:06.249Z</time>
      </trkpt>
      <trkpt lat="42.0095" lon="19.34821">
        <ele>59.341686</ele>
        <time>2022-05-26T09:01:08.243Z</time>
      </trkpt>
      <trkpt lat="42.00954" lon="19.3481">
        <ele>59.217114</ele>
        <time>2022-05-26T09:01:10.236Z</time>
      </trkpt>
      <trkpt lat="42.0096" lon="19.34794">
        <ele>59.093448</ele>
        <time>2022-05-26T09:01:13.245Z</time>
      </trkpt>
      <trkpt lat="42.00965" lon="19.34784">
        <ele>59.00946</ele>
        <time>2022-05-26T09:01:15.236Z</time>
      </trkpt>
      <trkpt lat="42.00971" lon="19.34768">
        <ele>58.888624</ele>
        <time>2022-05-26T09:01:18.245Z</time>
      </trkpt>
      <trkpt lat="42.00977" lon="19.34753">
        <ele>58.771123</ele>
        <time>2022-05-26T09:01:21.238Z</time>
      </trkpt>
      <trkpt lat="42.00983" lon="19.34737">
        <ele>58.651576</ele>
        <time>2022-05-26T09:01:24.242Z</time>
      </trkpt>
      <trkpt lat="42.00989" lon="19.34722">
        <ele>58.533658</ele>
        <time>2022-05-26T09:01:27.236Z</time>
      </trkpt>
      <trkpt lat="42.00995" lon="19.34706">
        <ele>58.413506</ele>
        <time>2022-05-26T09:01:30.254Z</time>
      </trkpt>
      <trkpt lat="42.01001" lon="19.3469">
        <ele>58.293959</ele>
        <time>2022-05-26T09:01:33.236Z</time>
      </trkpt>
      <trkpt lat="42.01006" lon="19.34675">
        <ele>58.177675</ele>
        <time>2022-05-26T09:01:36.245Z</time>
      </trkpt>
      <trkpt lat="42.01012" lon="19.3466">
        <ele>58.061302</ele>
        <time>2022-05-26T09:01:39.250Z</time>
      </trkpt>
      <trkpt lat="42.01018" lon="19.34645">
        <ele>57.946243</ele>
        <time>2022-05-26T09:01:42.236Z</time>
      </trkpt>
      <trkpt lat="42.01023" lon="19.34629">
        <ele>57.828731</ele>
        <time>2022-05-26T09:01:45.228Z</time>
      </trkpt>
      <trkpt lat="42.01029" lon="19.34614">
        <ele>57.710623</ele>
        <time>2022-05-26T09:01:48.245Z</time>
      </trkpt>
      <trkpt lat="42.01035" lon="19.34598">
        <ele>57.611485</ele>
        <time>2022-05-26T09:01:51.258Z</time>
      </trkpt>
      <trkpt lat="42.0104" lon="19.34583">
        <ele>57.618984</ele>
        <time>2022-05-26T09:01:54.225Z</time>
      </trkpt>
      <trkpt lat="42.01046" lon="19.34567">
        <ele>57.626719</ele>
        <time>2022-05-26T09:01:57.241Z</time>
      </trkpt>
      <trkpt lat="42.01052" lon="19.34551">
        <ele>57.634573</ele>
        <time>2022-05-26T09:02:00.235Z</time>
      </trkpt>
      <trkpt lat="42.01057" lon="19.34536">
        <ele>57.641983</ele>
        <time>2022-05-26T09:02:03.230Z</time>
      </trkpt>
      <trkpt lat="42.01062" lon="19.3452">
        <ele>57.649621</ele>
        <time>2022-05-26T09:02:06.243Z</time>
      </trkpt>
      <trkpt lat="42.01065" lon="19.34503">
        <ele>57.657274</ele>
        <time>2022-05-26T09:02:09.245Z</time>
      </trkpt>
      <trkpt lat="42.01067" lon="19.34485">
        <ele>57.665186</ele>
        <time>2022-05-26T09:02:12.253Z</time>
      </trkpt>
      <trkpt lat="42.01068" lon="19.34468">
        <ele>57.672696</ele>
        <time>2022-05-26T09:02:15.235Z</time>
      </trkpt>
      <trkpt lat="42.01068" lon="19.34452">
        <ele>57.680008</ele>
        <time>2022-05-26T09:02:18.226Z</time>
      </trkpt>
      <trkpt lat="42.01068" lon="19.34435">
        <ele>57.687325</ele>
        <time>2022-05-26T09:02:21.234Z</time>
      </trkpt>
      <trkpt lat="42.01068" lon="19.34417">
        <ele>57.695032</ele>
        <time>2022-05-26T09:02:24.273Z</time>
      </trkpt>
      <trkpt lat="42.01069" lon="19.344">
        <ele>57.702655</ele>
        <time>2022-05-26T09:02:27.235Z</time>
      </trkpt>
      <trkpt lat="42.01069" lon="19.34382">
        <ele>57.710671</ele>
        <time>2022-05-26T09:02:30.286Z</time>
      </trkpt>
      <trkpt lat="42.01069" lon="19.34364">
        <ele>57.757833</ele>
        <time>2022-05-26T09:02:33.233Z</time>
      </trkpt>
      <trkpt lat="42.01069" lon="19.34346">
        <ele>57.961229</ele>
        <time>2022-05-26T09:02:36.232Z</time>
      </trkpt>
      <trkpt lat="42.01069" lon="19.34334">
        <ele>58.103628</ele>
        <time>2022-05-26T09:02:38.245Z</time>
      </trkpt>
      <trkpt lat="42.01069" lon="19.34321">
        <ele>58.245173</ele>
        <time>2022-05-26T09:02:40.246Z</time>
      </trkpt>
      <trkpt lat="42.0107" lon="19.34309">
        <ele>58.386626</ele>
        <time>2022-05-26T09:02:42.238Z</time>
      </trkpt>
      <trkpt lat="42.0107" lon="19.34297">
        <ele>58.526796</ele>
        <time>2022-05-26T09:02:44.233Z</time>
      </trkpt>
      <trkpt lat="42.0107" lon="19.34279">
        <ele>58.732394</ele>
        <time>2022-05-26T09:02:47.259Z</time>
      </trkpt>
      <trkpt lat="42.01069" lon="19.34267">
        <ele>58.871417</ele>
        <time>2022-05-26T09:02:49.247Z</time>
      </trkpt>
      <trkpt lat="42.01068" lon="19.3425">
        <ele>59.068384</ele>
        <time>2022-05-26T09:02:52.224Z</time>
      </trkpt>
      <trkpt lat="42.01067" lon="19.34232">
        <ele>59.273529</ele>
        <time>2022-05-26T09:02:55.256Z</time>
      </trkpt>
      <trkpt lat="42.01063" lon="19.34215">
        <ele>59.481238</ele>
        <time>2022-05-26T09:02:58.273Z</time>
      </trkpt>
      <trkpt lat="42.01059" lon="19.34197">
        <ele>59.688837</ele>
        <time>2022-05-26T09:03:01.237Z</time>
      </trkpt>
      <trkpt lat="42.01055" lon="19.34181">
        <ele>59.890141</ele>
        <time>2022-05-26T09:03:04.275Z</time>
      </trkpt>
      <trkpt lat="42.01051" lon="19.34165">
        <ele>60.085687</ele>
        <time>2022-05-26T09:03:07.245Z</time>
      </trkpt>
      <trkpt lat="42.0105" lon="19.34148">
        <ele>60.278672</ele>
        <time>2022-05-26T09:03:10.263Z</time>
      </trkpt>
      <trkpt lat="42.01051" lon="19.3413">
        <ele>60.480219</ele>
        <time>2022-05-26T09:03:13.228Z</time>
      </trkpt>
      <trkpt lat="42.01055" lon="19.34114">
        <ele>60.672594</ele>
        <time>2022-05-26T09:03:16.239Z</time>
      </trkpt>
      <trkpt lat="42.01061" lon="19.34101">
        <ele>60.850871</ele>
        <time>2022-05-26T09:03:19.222Z</time>
      </trkpt>
      <trkpt lat="42.01067" lon="19.3409">
        <ele>61.006733</ele>
        <time>2022-05-26T09:03:22.217Z</time>
      </trkpt>
      <trkpt lat="42.01074" lon="19.34079">
        <ele>61.167225</ele>
        <time>2022-05-26T09:03:25.238Z</time>
      </trkpt>
      <trkpt lat="42.01081" lon="19.34067">
        <ele>61.332235</ele>
        <time>2022-05-26T09:03:28.219Z</time>
      </trkpt>
      <trkpt lat="42.01087" lon="19.34056">
        <ele>61.495284</ele>
        <time>2022-05-26T09:03:31.233Z</time>
      </trkpt>
      <trkpt lat="42.01094" lon="19.34044">
        <ele>61.657427</ele>
        <time>2022-05-26T09:03:34.225Z</time>
      </trkpt>
      <trkpt lat="42.011" lon="19.34032">
        <ele>61.817788</ele>
        <time>2022-05-26T09:03:37.247Z</time>
      </trkpt>
      <trkpt lat="42.01105" lon="19.34018">
        <ele>61.992861</ele>
        <time>2022-05-26T09:03:40.279Z</time>
      </trkpt>
      <trkpt lat="42.01108" lon="19.34002">
        <ele>62.178808</ele>
        <time>2022-05-26T09:03:43.260Z</time>
      </trkpt>
      <trkpt lat="42.01108" lon="19.33986">
        <ele>62.358372</ele>
        <time>2022-05-26T09:03:46.239Z</time>
      </trkpt>
      <trkpt lat="42.01106" lon="19.33969">
        <ele>62.554234</ele>
        <time>2022-05-26T09:03:49.268Z</time>
      </trkpt>
      <trkpt lat="42.01104" lon="19.33957">
        <ele>62.691619</ele>
        <time>2022-05-26T09:03:51.238Z</time>
      </trkpt>
      <trkpt lat="42.01101" lon="19.3394">
        <ele>62.891414</ele>
        <time>2022-05-26T09:03:54.256Z</time>
      </trkpt>
      <trkpt lat="42.01098" lon="19.33922">
        <ele>63.091535</ele>
        <time>2022-05-26T09:03:57.247Z</time>
      </trkpt>
      <trkpt lat="42.01096" lon="19.3391">
        <ele>63.209124</ele>
        <time>2022-05-26T09:03:59.236Z</time>
      </trkpt>
      <trkpt lat="42.01094" lon="19.33897">
        <ele>63.172794</ele>
        <time>2022-05-26T09:04:01.248Z</time>
      </trkpt>
      <trkpt lat="42.01092" lon="19.33885">
        <ele>63.13595</ele>
        <time>2022-05-26T09:04:03.236Z</time>
      </trkpt>
      <trkpt lat="42.0109" lon="19.33872">
        <ele>63.09856</ele>
        <time>2022-05-26T09:04:05.238Z</time>
      </trkpt>
      <trkpt lat="42.01088" lon="19.33859">
        <ele>63.062535</ele>
        <time>2022-05-26T09:04:07.239Z</time>
      </trkpt>
      <trkpt lat="42.01086" lon="19.33846">
        <ele>63.025775</ele>
        <time>2022-05-26T09:04:09.260Z</time>
      </trkpt>
      <trkpt lat="42.01084" lon="19.33834">
        <ele>62.99048</ele>
        <time>2022-05-26T09:04:11.271Z</time>
      </trkpt>
      <trkpt lat="42.01082" lon="19.33821">
        <ele>62.954541</ele>
        <time>2022-05-26T09:04:13.265Z</time>
      </trkpt>
      <trkpt lat="42.0108" lon="19.33809">
        <ele>62.918957</ele>
        <time>2022-05-26T09:04:15.223Z</time>
      </trkpt>
      <trkpt lat="42.01078" lon="19.33796">
        <ele>62.882744</ele>
        <time>2022-05-26T09:04:17.258Z</time>
      </trkpt>
      <trkpt lat="42.01076" lon="19.33784">
        <ele>62.846446</ele>
        <time>2022-05-26T09:04:19.236Z</time>
      </trkpt>
      <trkpt lat="42.01074" lon="19.33771">
        <ele>62.810314</ele>
        <time>2022-05-26T09:04:21.230Z</time>
      </trkpt>
      <trkpt lat="42.01072" lon="19.33759">
        <ele>62.774533</ele>
        <time>2022-05-26T09:04:23.223Z</time>
      </trkpt>
      <trkpt lat="42.0107" lon="19.33746">
        <ele>62.738753</ele>
        <time>2022-05-26T09:04:25.238Z</time>
      </trkpt>
      <trkpt lat="42.01067" lon="19.33729">
        <ele>62.688846</ele>
        <time>2022-05-26T09:04:28.223Z</time>
      </trkpt>
      <trkpt lat="42.01064" lon="19.33712">
        <ele>62.639972</ele>
        <time>2022-05-26T09:04:31.282Z</time>
      </trkpt>
      <trkpt lat="42.01061" lon="19.33695">
        <ele>62.592607</ele>
        <time>2022-05-26T09:04:34.228Z</time>
      </trkpt>
      <trkpt lat="42.01059" lon="19.3368">
        <ele>62.547498</ele>
        <time>2022-05-26T09:04:37.225Z</time>
      </trkpt>
      <trkpt lat="42.01057" lon="19.33664">
        <ele>62.670362</ele>
        <time>2022-05-26T09:04:40.236Z</time>
      </trkpt>
      <trkpt lat="42.01056" lon="19.33649">
        <ele>62.865257</ele>
        <time>2022-05-26T09:04:43.249Z</time>
      </trkpt>
      <trkpt lat="42.01057" lon="19.33633">
        <ele>63.067905</ele>
        <time>2022-05-26T09:04:46.228Z</time>
      </trkpt>
      <trkpt lat="42.0106" lon="19.33618">
        <ele>63.258941</ele>
        <time>2022-05-26T09:04:49.239Z</time>
      </trkpt>
      <trkpt lat="42.01064" lon="19.33604">
        <ele>63.449092</ele>
        <time>2022-05-26T09:04:52.277Z</time>
      </trkpt>
      <trkpt lat="42.01069" lon="19.3359">
        <ele>63.639995</ele>
        <time>2022-05-26T09:04:55.238Z</time>
      </trkpt>
      <trkpt lat="42.01073" lon="19.33576">
        <ele>63.826505</ele>
        <time>2022-05-26T09:04:58.235Z</time>
      </trkpt>
      <trkpt lat="42.01079" lon="19.33562">
        <ele>64.022621</ele>
        <time>2022-05-26T09:05:01.241Z</time>
      </trkpt>
      <trkpt lat="42.01084" lon="19.33548">
        <ele>64.212399</ele>
        <time>2022-05-26T09:05:04.217Z</time>
      </trkpt>
      <trkpt lat="42.01089" lon="19.33535">
        <ele>64.402959</ele>
        <time>2022-05-26T09:05:07.243Z</time>
      </trkpt>
      <trkpt lat="42.01095" lon="19.33522">
        <ele>64.595769</ele>
        <time>2022-05-26T09:05:10.232Z</time>
      </trkpt>
      <trkpt lat="42.01102" lon="19.3351">
        <ele>64.784121</ele>
        <time>2022-05-26T09:05:13.226Z</time>
      </trkpt>
      <trkpt lat="42.01109" lon="19.33498">
        <ele>64.974499</ele>
        <time>2022-05-26T09:05:16.251Z</time>
      </trkpt>
      <trkpt lat="42.01117" lon="19.33487">
        <ele>65.159527</ele>
        <time>2022-05-26T09:05:19.275Z</time>
      </trkpt>
      <trkpt lat="42.01124" lon="19.33477">
        <ele>65.337194</ele>
        <time>2022-05-26T09:05:22.253Z</time>
      </trkpt>
      <trkpt lat="42.01133" lon="19.33467">
        <ele>65.528495</ele>
        <time>2022-05-26T09:05:25.246Z</time>
      </trkpt>
      <trkpt lat="42.01141" lon="19.33457">
        <ele>65.681309</ele>
        <time>2022-05-26T09:05:28.243Z</time>
      </trkpt>
      <trkpt lat="42.01149" lon="19.33447">
        <ele>65.831068</ele>
        <time>2022-05-26T09:05:31.265Z</time>
      </trkpt>
      <trkpt lat="42.01158" lon="19.33437">
        <ele>65.980891</ele>
        <time>2022-05-26T09:05:34.228Z</time>
      </trkpt>
      <trkpt lat="42.01166" lon="19.33426">
        <ele>66.13136</ele>
        <time>2022-05-26T09:05:37.240Z</time>
      </trkpt>
      <trkpt lat="42.01175" lon="19.33416">
        <ele>66.282452</ele>
        <time>2022-05-26T09:05:40.236Z</time>
      </trkpt>
      <trkpt lat="42.01183" lon="19.33405">
        <ele>66.439327</ele>
        <time>2022-05-26T09:05:43.273Z</time>
      </trkpt>
      <trkpt lat="42.01191" lon="19.33396">
        <ele>66.576445</ele>
        <time>2022-05-26T09:05:46.225Z</time>
      </trkpt>
      <trkpt lat="42.01199" lon="19.33386">
        <ele>66.710415</ele>
        <time>2022-05-26T09:05:49.253Z</time>
      </trkpt>
      <trkpt lat="42.01206" lon="19.33377">
        <ele>66.838008</ele>
        <time>2022-05-26T09:05:52.242Z</time>
      </trkpt>
      <trkpt lat="42.01212" lon="19.33368">
        <ele>66.958561</ele>
        <time>2022-05-26T09:05:55.226Z</time>
      </trkpt>
      <trkpt lat="42.01218" lon="19.33359">
        <ele>67.081047</ele>
        <time>2022-05-26T09:05:58.247Z</time>
      </trkpt>
      <trkpt lat="42.01222" lon="19.33347">
        <ele>67.208305</ele>
        <time>2022-05-26T09:06:01.234Z</time>
      </trkpt>
      <trkpt lat="42.01226" lon="19.33334">
        <ele>67.347089</ele>
        <time>2022-05-26T09:06:04.215Z</time>
      </trkpt>
      <trkpt lat="42.01228" lon="19.3332">
        <ele>67.481342</ele>
        <time>2022-05-26T09:06:07.233Z</time>
      </trkpt>
      <trkpt lat="42.01226" lon="19.33305">
        <ele>67.633366</ele>
        <time>2022-05-26T09:06:10.230Z</time>
      </trkpt>
      <trkpt lat="42.01221" lon="19.33291">
        <ele>67.788049</ele>
        <time>2022-05-26T09:06:13.216Z</time>
      </trkpt>
      <trkpt lat="42.01211" lon="19.33277">
        <ele>67.908264</ele>
        <time>2022-05-26T09:06:16.240Z</time>
      </trkpt>
      <trkpt lat="42.012" lon="19.33268">
        <ele>67.859349</ele>
        <time>2022-05-26T09:06:19.263Z</time>
      </trkpt>
      <trkpt lat="42.01191" lon="19.33264">
        <ele>67.825396</ele>
        <time>2022-05-26T09:06:21.234Z</time>
      </trkpt>
      <trkpt lat="42.01181" lon="19.3326">
        <ele>67.789098</ele>
        <time>2022-05-26T09:06:23.237Z</time>
      </trkpt>
      <trkpt lat="42.01172" lon="19.33254">
        <ele>67.749649</ele>
        <time>2022-05-26T09:06:25.261Z</time>
      </trkpt>
      <trkpt lat="42.01162" lon="19.33245">
        <ele>67.705283</ele>
        <time>2022-05-26T09:06:27.248Z</time>
      </trkpt>
      <trkpt lat="42.01154" lon="19.33232">
        <ele>67.659566</ele>
        <time>2022-05-26T09:06:29.244Z</time>
      </trkpt>
      <trkpt lat="42.01146" lon="19.33219">
        <ele>67.614434</ele>
        <time>2022-05-26T09:06:31.216Z</time>
      </trkpt>
      <trkpt lat="42.0114" lon="19.33206">
        <ele>67.571685</ele>
        <time>2022-05-26T09:06:33.227Z</time>
      </trkpt>
      <trkpt lat="42.01133" lon="19.33195">
        <ele>67.531084</ele>
        <time>2022-05-26T09:06:35.224Z</time>
      </trkpt>
      <trkpt lat="42.01125" lon="19.33184">
        <ele>67.491781</ele>
        <time>2022-05-26T09:06:37.244Z</time>
      </trkpt>
      <trkpt lat="42.01118" lon="19.33174">
        <ele>67.451966</ele>
        <time>2022-05-26T09:06:39.231Z</time>
      </trkpt>
      <trkpt lat="42.01109" lon="19.33164">
        <ele>67.410922</ele>
        <time>2022-05-26T09:06:41.229Z</time>
      </trkpt>
      <trkpt lat="42.011" lon="19.33155">
        <ele>67.369767</ele>
        <time>2022-05-26T09:06:43.235Z</time>
      </trkpt>
      <trkpt lat="42.01092" lon="19.33146">
        <ele>67.329749</ele>
        <time>2022-05-26T09:06:45.210Z</time>
      </trkpt>
      <trkpt lat="42.01083" lon="19.33137">
        <ele>67.290477</ele>
        <time>2022-05-26T09:06:47.237Z</time>
      </trkpt>
      <trkpt lat="42.01075" lon="19.33128">
        <ele>67.239069</ele>
        <time>2022-05-26T09:06:49.227Z</time>
      </trkpt>
      <trkpt lat="42.01066" lon="19.33119">
        <ele>67.155345</ele>
        <time>2022-05-26T09:06:51.220Z</time>
      </trkpt>
      <trkpt lat="42.01058" lon="19.3311">
        <ele>67.070468</ele>
        <time>2022-05-26T09:06:53.225Z</time>
      </trkpt>
      <trkpt lat="42.01049" lon="19.33101">
        <ele>66.985763</ele>
        <time>2022-05-26T09:06:55.245Z</time>
      </trkpt>
      <trkpt lat="42.01041" lon="19.33092">
        <ele>66.89927</ele>
        <time>2022-05-26T09:06:57.230Z</time>
      </trkpt>
      <trkpt lat="42.01032" lon="19.33083">
        <ele>66.81518</ele>
        <time>2022-05-26T09:06:59.234Z</time>
      </trkpt>
      <trkpt lat="42.01024" lon="19.33075">
        <ele>66.730839</ele>
        <time>2022-05-26T09:07:01.279Z</time>
      </trkpt>
      <trkpt lat="42.01015" lon="19.33066">
        <ele>66.647295</ele>
        <time>2022-05-26T09:07:03.250Z</time>
      </trkpt>
      <trkpt lat="42.01007" lon="19.33058">
        <ele>66.564099</ele>
        <time>2022-05-26T09:07:05.227Z</time>
      </trkpt>
      <trkpt lat="42.00998" lon="19.3305">
        <ele>66.481932</ele>
        <time>2022-05-26T09:07:07.262Z</time>
      </trkpt>
      <trkpt lat="42.0099" lon="19.33042">
        <ele>66.403386</ele>
        <time>2022-05-26T09:07:09.213Z</time>
      </trkpt>
      <trkpt lat="42.00982" lon="19.33035">
        <ele>66.324461</ele>
        <time>2022-05-26T09:07:11.216Z</time>
      </trkpt>
      <trkpt lat="42.00973" lon="19.33029">
        <ele>66.248307</ele>
        <time>2022-05-26T09:07:13.238Z</time>
      </trkpt>
      <trkpt lat="42.00964" lon="19.33024">
        <ele>66.172475</ele>
        <time>2022-05-26T09:07:15.233Z</time>
      </trkpt>
      <trkpt lat="42.00955" lon="19.33019">
        <ele>66.095434</ele>
        <time>2022-05-26T09:07:17.235Z</time>
      </trkpt>
      <trkpt lat="42.00946" lon="19.33014">
        <ele>66.020089</ele>
        <time>2022-05-26T09:07:19.209Z</time>
      </trkpt>
      <trkpt lat="42.00937" lon="19.3301">
        <ele>65.944344</ele>
        <time>2022-05-26T09:07:21.230Z</time>
      </trkpt>
      <trkpt lat="42.00928" lon="19.33005">
        <ele>65.868999</ele>
        <time>2022-05-26T09:07:23.268Z</time>
      </trkpt>
      <trkpt lat="42.00919" lon="19.33001">
        <ele>65.900092</ele>
        <time>2022-05-26T09:07:25.216Z</time>
      </trkpt>
      <trkpt lat="42.0091" lon="19.32997">
        <ele>65.991729</ele>
        <time>2022-05-26T09:07:27.228Z</time>
      </trkpt>
      <trkpt lat="42.00901" lon="19.32992">
        <ele>66.081339</ele>
        <time>2022-05-26T09:07:29.219Z</time>
      </trkpt>
      <trkpt lat="42.00892" lon="19.32988">
        <ele>66.171186</ele>
        <time>2022-05-26T09:07:31.235Z</time>
      </trkpt>
      <trkpt lat="42.00884" lon="19.32984">
        <ele>66.259215</ele>
        <time>2022-05-26T09:07:33.239Z</time>
      </trkpt>
      <trkpt lat="42.00875" lon="19.3298">
        <ele>66.344541</ele>
        <time>2022-05-26T09:07:35.214Z</time>
      </trkpt>
      <trkpt lat="42.00866" lon="19.32976">
        <ele>66.43257</ele>
        <time>2022-05-26T09:07:37.231Z</time>
      </trkpt>
      <trkpt lat="42.00858" lon="19.32972">
        <ele>66.51796</ele>
        <time>2022-05-26T09:07:39.234Z</time>
      </trkpt>
      <trkpt lat="42.00849" lon="19.32968">
        <ele>66.605313</ele>
        <time>2022-05-26T09:07:41.231Z</time>
      </trkpt>
      <trkpt lat="42.00841" lon="19.32964">
        <ele>66.69244</ele>
        <time>2022-05-26T09:07:43.237Z</time>
      </trkpt>
      <trkpt lat="42.00832" lon="19.3296">
        <ele>66.780921</ele>
        <time>2022-05-26T09:07:45.249Z</time>
      </trkpt>
      <trkpt lat="42.00823" lon="19.32956">
        <ele>66.869478</ele>
        <time>2022-05-26T09:07:47.226Z</time>
      </trkpt>
      <trkpt lat="42.00814" lon="19.32951">
        <ele>66.960458</ele>
        <time>2022-05-26T09:07:49.240Z</time>
      </trkpt>
      <trkpt lat="42.00805" lon="19.32947">
        <ele>67.049015</ele>
        <time>2022-05-26T09:07:51.245Z</time>
      </trkpt>
      <trkpt lat="42.00793" lon="19.3294">
        <ele>67.176596</ele>
        <time>2022-05-26T09:07:54.247Z</time>
      </trkpt>
      <trkpt lat="42.00781" lon="19.32933">
        <ele>67.303454</ele>
        <time>2022-05-26T09:07:57.235Z</time>
      </trkpt>
      <trkpt lat="42.00769" lon="19.32925">
        <ele>67.430325</ele>
        <time>2022-05-26T09:08:00.268Z</time>
      </trkpt>
      <trkpt lat="42.00757" lon="19.32918">
        <ele>67.550612</ele>
        <time>2022-05-26T09:08:03.237Z</time>
      </trkpt>
      <trkpt lat="42.00746" lon="19.32911">
        <ele>67.559402</ele>
        <time>2022-05-26T09:08:06.247Z</time>
      </trkpt>
      <trkpt lat="42.00735" lon="19.32904">
        <ele>67.568195</ele>
        <time>2022-05-26T09:08:09.227Z</time>
      </trkpt>
      <trkpt lat="42.00723" lon="19.32896">
        <ele>67.577721</ele>
        <time>2022-05-26T09:08:12.281Z</time>
      </trkpt>
      <trkpt lat="42.00711" lon="19.32887">
        <ele>67.587311</ele>
        <time>2022-05-26T09:08:15.241Z</time>
      </trkpt>
      <trkpt lat="42.00699" lon="19.3288">
        <ele>67.596758</ele>
        <time>2022-05-26T09:08:18.218Z</time>
      </trkpt>
      <trkpt lat="42.00687" lon="19.32872">
        <ele>67.606357</ele>
        <time>2022-05-26T09:08:21.272Z</time>
      </trkpt>
      <trkpt lat="42.00675" lon="19.32864">
        <ele>67.615716</ele>
        <time>2022-05-26T09:08:24.239Z</time>
      </trkpt>
      <trkpt lat="42.00663" lon="19.32857">
        <ele>67.625008</ele>
        <time>2022-05-26T09:08:27.233Z</time>
      </trkpt>
      <trkpt lat="42.00652" lon="19.32849">
        <ele>67.634344</ele>
        <time>2022-05-26T09:08:30.245Z</time>
      </trkpt>
      <trkpt lat="42.0064" lon="19.32842">
        <ele>67.643791</ele>
        <time>2022-05-26T09:08:33.230Z</time>
      </trkpt>
      <trkpt lat="42.00628" lon="19.32834">
        <ele>67.653413</ele>
        <time>2022-05-26T09:08:36.223Z</time>
      </trkpt>
      <trkpt lat="42.00616" lon="19.32826">
        <ele>67.662731</ele>
        <time>2022-05-26T09:08:39.216Z</time>
      </trkpt>
      <trkpt lat="42.00604" lon="19.32818">
        <ele>67.672282</ele>
        <time>2022-05-26T09:08:42.229Z</time>
      </trkpt>
      <trkpt lat="42.00592" lon="19.3281">
        <ele>67.815465</ele>
        <time>2022-05-26T09:08:45.227Z</time>
      </trkpt>
      <trkpt lat="42.00581" lon="19.32803">
        <ele>68.31222</ele>
        <time>2022-05-26T09:08:48.244Z</time>
      </trkpt>
      <trkpt lat="42.0057" lon="19.32796">
        <ele>68.786326</ele>
        <time>2022-05-26T09:08:51.236Z</time>
      </trkpt>
      <trkpt lat="42.00559" lon="19.32788">
        <ele>69.273426</ele>
        <time>2022-05-26T09:08:54.236Z</time>
      </trkpt>
      <trkpt lat="42.00552" lon="19.32781">
        <ele>69.630311</ele>
        <time>2022-05-26T09:08:56.223Z</time>
      </trkpt>
      <trkpt lat="42.00546" lon="19.32771">
        <ele>70.023563</ele>
        <time>2022-05-26T09:08:58.228Z</time>
      </trkpt>
      <trkpt lat="42.00541" lon="19.3276">
        <ele>70.387994</ele>
        <time>2022-05-26T09:09:00.237Z</time>
      </trkpt>
      <trkpt lat="42.00539" lon="19.32745">
        <ele>70.842843</ele>
        <time>2022-05-26T09:09:03.259Z</time>
      </trkpt>
      <trkpt lat="42.00539" lon="19.32729">
        <ele>71.315332</ele>
        <time>2022-05-26T09:09:07.244Z</time>
      </trkpt>
      <trkpt lat="42.00538" lon="19.32716">
        <ele>71.720388</ele>
        <time>2022-05-26T09:09:12.235Z</time>
      </trkpt>
      <trkpt lat="42.00538" lon="19.32703">
        <ele>72.078061</ele>
        <time>2022-05-26T09:09:17.248Z</time>
      </trkpt>
      <trkpt lat="42.00536" lon="19.3269">
        <ele>72.479496</ele>
        <time>2022-05-26T09:09:23.221Z</time>
      </trkpt>
      <trkpt lat="42.00532" lon="19.32678">
        <ele>72.861984</ele>
        <time>2022-05-26T09:09:29.241Z</time>
      </trkpt>
      <trkpt lat="42.0053" lon="19.32666">
        <ele>73.230015</ele>
        <time>2022-05-26T09:09:34.218Z</time>
      </trkpt>
      <trkpt lat="42.00527" lon="19.32652">
        <ele>73.664759</ele>
        <time>2022-05-26T09:09:41.245Z</time>
      </trkpt>
      <trkpt lat="42.00525" lon="19.3264">
        <ele>74.027931</ele>
        <time>2022-05-26T09:09:46.224Z</time>
      </trkpt>
      <trkpt lat="42.00526" lon="19.32626">
        <ele>74.430038</ele>
        <time>2022-05-26T09:09:52.239Z</time>
      </trkpt>
      <trkpt lat="42.00529" lon="19.32613">
        <ele>74.861585</ele>
        <time>2022-05-26T09:09:58.218Z</time>
      </trkpt>
      <trkpt lat="42.00534" lon="19.32601">
        <ele>75.451458</ele>
        <time>2022-05-26T09:10:04.238Z</time>
      </trkpt>
      <trkpt lat="42.00541" lon="19.3259">
        <ele>76.074254</ele>
        <time>2022-05-26T09:10:10.225Z</time>
      </trkpt>
      <trkpt lat="42.00548" lon="19.3258">
        <ele>76.654143</ele>
        <time>2022-05-26T09:10:16.232Z</time>
      </trkpt>
      <trkpt lat="42.00553" lon="19.3257">
        <ele>77.202723</ele>
        <time>2022-05-26T09:10:22.237Z</time>
      </trkpt>
      <trkpt lat="42.00556" lon="19.32557">
        <ele>77.767546</ele>
        <time>2022-05-26T09:10:28.236Z</time>
      </trkpt>
      <trkpt lat="42.00559" lon="19.32545">
        <ele>78.316791</ele>
        <time>2022-05-26T09:10:33.236Z</time>
      </trkpt>
      <trkpt lat="42.00561" lon="19.32532">
        <ele>78.880048</ele>
        <time>2022-05-26T09:10:38.236Z</time>
      </trkpt>
      <trkpt lat="42.00564" lon="19.32519">
        <ele>79.472928</ele>
        <time>2022-05-26T09:10:43.235Z</time>
      </trkpt>
      <trkpt lat="42.00569" lon="19.32506">
        <ele>80.093444</ele>
        <time>2022-05-26T09:10:48.273Z</time>
      </trkpt>
      <trkpt lat="42.00574" lon="19.32496">
        <ele>80.634256</ele>
        <time>2022-05-26T09:10:53.239Z</time>
      </trkpt>
      <trkpt lat="42.00582" lon="19.32487">
        <ele>81.241479</ele>
        <time>2022-05-26T09:10:59.264Z</time>
      </trkpt>
      <trkpt lat="42.00591" lon="19.3248">
        <ele>81.812932</ele>
        <time>2022-05-26T09:11:05.236Z</time>
      </trkpt>
      <trkpt lat="42.00599" lon="19.32473">
        <ele>82.365547</ele>
        <time>2022-05-26T09:11:11.247Z</time>
      </trkpt>
      <trkpt lat="42.00607" lon="19.32467">
        <ele>82.910123</ele>
        <time>2022-05-26T09:11:16.270Z</time>
      </trkpt>
      <trkpt lat="42.00615" lon="19.32461">
        <ele>83.456909</ele>
        <time>2022-05-26T09:11:21.246Z</time>
      </trkpt>
      <trkpt lat="42.00624" lon="19.32455">
        <ele>84.056818</ele>
        <time>2022-05-26T09:11:26.253Z</time>
      </trkpt>
      <trkpt lat="42.00633" lon="19.32448">
        <ele>84.63821</ele>
        <time>2022-05-26T09:11:31.235Z</time>
      </trkpt>
      <trkpt lat="42.00641" lon="19.3244">
        <ele>85.238837</ele>
        <time>2022-05-26T09:11:36.240Z</time>
      </trkpt>
      <trkpt lat="42.0065" lon="19.32431">
        <ele>85.193829</ele>
        <time>2022-05-26T09:11:41.263Z</time>
      </trkpt>
      <trkpt lat="42.00657" lon="19.32421">
        <ele>85.10789</ele>
        <time>2022-05-26T09:11:45.223Z</time>
      </trkpt>
      <trkpt lat="42.00664" lon="19.32412">
        <ele>85.021522</ele>
        <time>2022-05-26T09:11:49.242Z</time>
      </trkpt>
      <trkpt lat="42.00671" lon="19.32401">
        <ele>84.930884</ele>
        <time>2022-05-26T09:11:53.228Z</time>
      </trkpt>
      <trkpt lat="42.00678" lon="19.32389">
        <ele>84.827439</ele>
        <time>2022-05-26T09:11:57.239Z</time>
      </trkpt>
      <trkpt lat="42.00685" lon="19.32378">
        <ele>84.736316</ele>
        <time>2022-05-26T09:12:00.241Z</time>
      </trkpt>
      <trkpt lat="42.00693" lon="19.32367">
        <ele>84.636847</ele>
        <time>2022-05-26T09:12:03.221Z</time>
      </trkpt>
      <trkpt lat="42.00701" lon="19.32353">
        <ele>84.527235</ele>
        <time>2022-05-26T09:12:06.238Z</time>
      </trkpt>
      <trkpt lat="42.00709" lon="19.3234">
        <ele>84.416174</ele>
        <time>2022-05-26T09:12:09.253Z</time>
      </trkpt>
      <trkpt lat="42.00716" lon="19.32327">
        <ele>84.313953</ele>
        <time>2022-05-26T09:12:12.225Z</time>
      </trkpt>
      <trkpt lat="42.00723" lon="19.32315">
        <ele>84.215788</ele>
        <time>2022-05-26T09:12:15.238Z</time>
      </trkpt>
      <trkpt lat="42.00728" lon="19.32301">
        <ele>84.117466</ele>
        <time>2022-05-26T09:12:18.243Z</time>
      </trkpt>
      <trkpt lat="42.00733" lon="19.32286">
        <ele>84.007012</ele>
        <time>2022-05-26T09:12:21.216Z</time>
      </trkpt>
      <trkpt lat="42.00737" lon="19.32273">
        <ele>83.923499</ele>
        <time>2022-05-26T09:12:23.231Z</time>
      </trkpt>
      <trkpt lat="42.0074" lon="19.32261">
        <ele>83.834247</ele>
        <time>2022-05-26T09:12:25.236Z</time>
      </trkpt>
      <trkpt lat="42.00744" lon="19.32247">
        <ele>83.738975</ele>
        <time>2022-05-26T09:12:27.251Z</time>
      </trkpt>
      <trkpt lat="42.00749" lon="19.32233">
        <ele>83.525169</ele>
        <time>2022-05-26T09:12:29.233Z</time>
      </trkpt>
      <trkpt lat="42.00752" lon="19.32219">
        <ele>83.303542</ele>
        <time>2022-05-26T09:12:31.252Z</time>
      </trkpt>
      <trkpt lat="42.00756" lon="19.32207">
        <ele>83.105084</ele>
        <time>2022-05-26T09:12:33.238Z</time>
      </trkpt>
      <trkpt lat="42.00758" lon="19.32192">
        <ele>82.860435</ele>
        <time>2022-05-26T09:12:36.234Z</time>
      </trkpt>
      <trkpt lat="42.00758" lon="19.32176">
        <ele>82.619349</ele>
        <time>2022-05-26T09:12:40.235Z</time>
      </trkpt>
      <trkpt lat="42.00755" lon="19.32163">
        <ele>82.414846</ele>
        <time>2022-05-26T09:12:44.248Z</time>
      </trkpt>
      <trkpt lat="42.00752" lon="19.32149">
        <ele>82.183188</ele>
        <time>2022-05-26T09:12:48.244Z</time>
      </trkpt>
      <trkpt lat="42.00749" lon="19.32135">
        <ele>81.959693</ele>
        <time>2022-05-26T09:12:52.217Z</time>
      </trkpt>
      <trkpt lat="42.00749" lon="19.32121">
        <ele>81.746415</ele>
        <time>2022-05-26T09:12:55.271Z</time>
      </trkpt>
      <trkpt lat="42.00752" lon="19.32106">
        <ele>81.514291</ele>
        <time>2022-05-26T09:12:58.256Z</time>
      </trkpt>
      <trkpt lat="42.00759" lon="19.32091">
        <ele>81.229212</ele>
        <time>2022-05-26T09:13:01.244Z</time>
      </trkpt>
      <trkpt lat="42.00765" lon="19.32079">
        <ele>81.00962</ele>
        <time>2022-05-26T09:13:03.228Z</time>
      </trkpt>
      <trkpt lat="42.00772" lon="19.32068">
        <ele>80.786238</ele>
        <time>2022-05-26T09:13:05.243Z</time>
      </trkpt>
      <trkpt lat="42.00778" lon="19.32057">
        <ele>80.571483</ele>
        <time>2022-05-26T09:13:07.239Z</time>
      </trkpt>
      <trkpt lat="42.00785" lon="19.32047">
        <ele>80.364317</ele>
        <time>2022-05-26T09:13:09.274Z</time>
      </trkpt>
      <trkpt lat="42.0079" lon="19.32037">
        <ele>80.173304</ele>
        <time>2022-05-26T09:13:11.238Z</time>
      </trkpt>
      <trkpt lat="42.00795" lon="19.32026">
        <ele>79.984849</ele>
        <time>2022-05-26T09:13:13.239Z</time>
      </trkpt>
      <trkpt lat="42.00799" lon="19.32015">
        <ele>80.058425</ele>
        <time>2022-05-26T09:13:15.238Z</time>
      </trkpt>
      <trkpt lat="42.00803" lon="19.32004">
        <ele>80.128944</ele>
        <time>2022-05-26T09:13:17.273Z</time>
      </trkpt>
      <trkpt lat="42.00808" lon="19.31987">
        <ele>80.233157</ele>
        <time>2022-05-26T09:13:20.274Z</time>
      </trkpt>
      <trkpt lat="42.00812" lon="19.31971">
        <ele>80.335216</ele>
        <time>2022-05-26T09:13:23.235Z</time>
      </trkpt>
      <trkpt lat="42.00814" lon="19.31959">
        <ele>80.406239</ele>
        <time>2022-05-26T09:13:25.212Z</time>
      </trkpt>
      <trkpt lat="42.00817" lon="19.31947">
        <ele>80.481246</ele>
        <time>2022-05-26T09:13:27.223Z</time>
      </trkpt>
      <trkpt lat="42.0082" lon="19.31935">
        <ele>80.556814</ele>
        <time>2022-05-26T09:13:29.236Z</time>
      </trkpt>
      <trkpt lat="42.00822" lon="19.31922">
        <ele>80.633882</ele>
        <time>2022-05-26T09:13:31.221Z</time>
      </trkpt>
      <trkpt lat="42.00823" lon="19.31909">
        <ele>80.707989</ele>
        <time>2022-05-26T09:13:33.233Z</time>
      </trkpt>
      <trkpt lat="42.00823" lon="19.31897">
        <ele>80.781716</ele>
        <time>2022-05-26T09:13:35.240Z</time>
      </trkpt>
      <trkpt lat="42.00824" lon="19.31884">
        <ele>80.856093</ele>
        <time>2022-05-26T09:13:37.234Z</time>
      </trkpt>
      <trkpt lat="42.00825" lon="19.31872">
        <ele>80.928751</ele>
        <time>2022-05-26T09:13:39.243Z</time>
      </trkpt>
      <trkpt lat="42.00827" lon="19.3186">
        <ele>81.001227</ele>
        <time>2022-05-26T09:13:41.249Z</time>
      </trkpt>
      <trkpt lat="42.00831" lon="19.31847">
        <ele>81.080285</ele>
        <time>2022-05-26T09:13:43.231Z</time>
      </trkpt>
      <trkpt lat="42.00837" lon="19.31837">
        <ele>81.154937</ele>
        <time>2022-05-26T09:13:45.230Z</time>
      </trkpt>
      <trkpt lat="42.00844" lon="19.31828">
        <ele>81.230571</ele>
        <time>2022-05-26T09:13:47.224Z</time>
      </trkpt>
      <trkpt lat="42.00854" lon="19.31816">
        <ele>81.33312</ele>
        <time>2022-05-26T09:13:50.230Z</time>
      </trkpt>
      <trkpt lat="42.0086" lon="19.31806">
        <ele>81.433432</ele>
        <time>2022-05-26T09:13:52.243Z</time>
      </trkpt>
      <trkpt lat="42.00866" lon="19.31795">
        <ele>81.690416</ele>
        <time>2022-05-26T09:13:54.216Z</time>
      </trkpt>
      <trkpt lat="42.0087" lon="19.31783">
        <ele>81.94487</ele>
        <time>2022-05-26T09:13:56.231Z</time>
      </trkpt>
      <trkpt lat="42.00875" lon="19.3177">
        <ele>82.207809</ele>
        <time>2022-05-26T09:13:58.223Z</time>
      </trkpt>
      <trkpt lat="42.00879" lon="19.31758">
        <ele>82.470174</ele>
        <time>2022-05-26T09:14:00.243Z</time>
      </trkpt>
      <trkpt lat="42.00883" lon="19.31746">
        <ele>82.716767</ele>
        <time>2022-05-26T09:14:02.244Z</time>
      </trkpt>
      <trkpt lat="42.00888" lon="19.31735">
        <ele>82.967345</ele>
        <time>2022-05-26T09:14:04.236Z</time>
      </trkpt>
      <trkpt lat="42.00892" lon="19.31722">
        <ele>83.220162</ele>
        <time>2022-05-26T09:14:06.238Z</time>
      </trkpt>
      <trkpt lat="42.00896" lon="19.31711">
        <ele>83.46671</ele>
        <time>2022-05-26T09:14:08.239Z</time>
      </trkpt>
      <trkpt lat="42.00901" lon="19.31699">
        <ele>83.710984</ele>
        <time>2022-05-26T09:14:10.233Z</time>
      </trkpt>
      <trkpt lat="42.00906" lon="19.31683">
        <ele>84.04347</ele>
        <time>2022-05-26T09:14:13.239Z</time>
      </trkpt>
      <trkpt lat="42.00912" lon="19.31668">
        <ele>84.364089</ele>
        <time>2022-05-26T09:14:16.239Z</time>
      </trkpt>
      <trkpt lat="42.00918" lon="19.31653">
        <ele>84.693566</ele>
        <time>2022-05-26T09:14:19.236Z</time>
      </trkpt>
      <trkpt lat="42.00924" lon="19.31639">
        <ele>85.002917</ele>
        <time>2022-05-26T09:14:22.228Z</time>
      </trkpt>
      <trkpt lat="42.00929" lon="19.31625">
        <ele>85.292987</ele>
        <time>2022-05-26T09:14:25.224Z</time>
      </trkpt>
      <trkpt lat="42.00934" lon="19.31612">
        <ele>85.558186</ele>
        <time>2022-05-26T09:14:28.257Z</time>
      </trkpt>
      <trkpt lat="42.00939" lon="19.316">
        <ele>85.829799</ele>
        <time>2022-05-26T09:14:31.248Z</time>
      </trkpt>
      <trkpt lat="42.00944" lon="19.31586">
        <ele>86.006603</ele>
        <time>2022-05-26T09:14:34.215Z</time>
      </trkpt>
      <trkpt lat="42.00949" lon="19.31573">
        <ele>86.057531</ele>
        <time>2022-05-26T09:14:37.237Z</time>
      </trkpt>
      <trkpt lat="42.00955" lon="19.3156">
        <ele>86.109208</ele>
        <time>2022-05-26T09:14:40.233Z</time>
      </trkpt>
      <trkpt lat="42.0096" lon="19.31548">
        <ele>86.158727</ele>
        <time>2022-05-26T09:14:43.233Z</time>
      </trkpt>
      <trkpt lat="42.00966" lon="19.31536">
        <ele>86.208542</ele>
        <time>2022-05-26T09:14:46.241Z</time>
      </trkpt>
      <trkpt lat="42.00971" lon="19.31523">
        <ele>86.259188</ele>
        <time>2022-05-26T09:14:49.259Z</time>
      </trkpt>
      <trkpt lat="42.00977" lon="19.31511">
        <ele>86.309242</ele>
        <time>2022-05-26T09:14:52.220Z</time>
      </trkpt>
      <trkpt lat="42.00982" lon="19.31498">
        <ele>86.35896</ele>
        <time>2022-05-26T09:14:55.235Z</time>
      </trkpt>
      <trkpt lat="42.00988" lon="19.31485">
        <ele>86.410563</ele>
        <time>2022-05-26T09:14:58.240Z</time>
      </trkpt>
      <trkpt lat="42.00993" lon="19.31473">
        <ele>86.460567</ele>
        <time>2022-05-26T09:15:01.228Z</time>
      </trkpt>
      <trkpt lat="42.00998" lon="19.3146">
        <ele>86.510236</ele>
        <time>2022-05-26T09:15:04.251Z</time>
      </trkpt>
      <trkpt lat="42.01003" lon="19.31448">
        <ele>86.556202</ele>
        <time>2022-05-26T09:15:07.225Z</time>
      </trkpt>
      <trkpt lat="42.01007" lon="19.31434">
        <ele>86.606977</ele>
        <time>2022-05-26T09:15:10.230Z</time>
      </trkpt>
      <trkpt lat="42.01009" lon="19.31421">
        <ele>86.656099</ele>
        <time>2022-05-26T09:15:13.276Z</time>
      </trkpt>
      <trkpt lat="42.0101" lon="19.31406">
        <ele>86.70569</ele>
        <time>2022-05-26T09:15:16.246Z</time>
      </trkpt>
      <trkpt lat="42.01009" lon="19.31393">
        <ele>86.752489</ele>
        <time>2022-05-26T09:15:19.256Z</time>
      </trkpt>
      <trkpt lat="42.01005" lon="19.3138">
        <ele>86.799866</ele>
        <time>2022-05-26T09:15:22.235Z</time>
      </trkpt>
      <trkpt lat="42.01" lon="19.31367">
        <ele>86.720483</ele>
        <time>2022-05-26T09:15:25.218Z</time>
      </trkpt>
      <trkpt lat="42.00994" lon="19.31356">
        <ele>86.569529</ele>
        <time>2022-05-26T09:15:28.246Z</time>
      </trkpt>
      <trkpt lat="42.00987" lon="19.31347">
        <ele>86.426283</ele>
        <time>2022-05-26T09:15:31.258Z</time>
      </trkpt>
      <trkpt lat="42.00979" lon="19.31338">
        <ele>86.280034</ele>
        <time>2022-05-26T09:15:34.245Z</time>
      </trkpt>
      <trkpt lat="42.0097" lon="19.31331">
        <ele>86.137856</ele>
        <time>2022-05-26T09:15:37.244Z</time>
      </trkpt>
      <trkpt lat="42.00961" lon="19.31324">
        <ele>85.990576</ele>
        <time>2022-05-26T09:15:40.315Z</time>
      </trkpt>
      <trkpt lat="42.00951" lon="19.31314">
        <ele>85.812986</ele>
        <time>2022-05-26T09:15:43.232Z</time>
      </trkpt>
      <trkpt lat="42.00943" lon="19.31306">
        <ele>85.670939</ele>
        <time>2022-05-26T09:15:45.244Z</time>
      </trkpt>
      <trkpt lat="42.00936" lon="19.31295">
        <ele>85.511269</ele>
        <time>2022-05-26T09:15:47.204Z</time>
      </trkpt>
      <trkpt lat="42.0093" lon="19.31281">
        <ele>85.351549</ele>
        <time>2022-05-26T09:15:49.222Z</time>
      </trkpt>
      <trkpt lat="42.00927" lon="19.31266">
        <ele>85.182411</ele>
        <time>2022-05-26T09:15:51.234Z</time>
      </trkpt>
      <trkpt lat="42.00925" lon="19.31249">
        <ele>85.005557</ele>
        <time>2022-05-26T09:15:53.219Z</time>
      </trkpt>
      <trkpt lat="42.00926" lon="19.31233">
        <ele>84.827916</ele>
        <time>2022-05-26T09:15:55.241Z</time>
      </trkpt>
      <trkpt lat="42.00926" lon="19.31215">
        <ele>84.642935</ele>
        <time>2022-05-26T09:15:57.255Z</time>
      </trkpt>
      <trkpt lat="42.00926" lon="19.31196">
        <ele>84.445235</ele>
        <time>2022-05-26T09:15:59.224Z</time>
      </trkpt>
      <trkpt lat="42.00925" lon="19.31178">
        <ele>84.246577</ele>
        <time>2022-05-26T09:16:01.223Z</time>
      </trkpt>
      <trkpt lat="42.00926" lon="19.31159">
        <ele>84.052234</ele>
        <time>2022-05-26T09:16:03.277Z</time>
      </trkpt>
      <trkpt lat="42.00928" lon="19.31141">
        <ele>83.862274</ele>
        <time>2022-05-26T09:16:05.235Z</time>
      </trkpt>
      <trkpt lat="42.00932" lon="19.31127">
        <ele>83.697086</ele>
        <time>2022-05-26T09:16:07.227Z</time>
      </trkpt>
      <trkpt lat="42.00935" lon="19.3111">
        <ele>83.513355</ele>
        <time>2022-05-26T09:16:09.269Z</time>
      </trkpt>
      <trkpt lat="42.00938" lon="19.31093">
        <ele>83.324874</ele>
        <time>2022-05-26T09:16:11.247Z</time>
      </trkpt>
      <trkpt lat="42.00942" lon="19.31078">
        <ele>83.166276</ele>
        <time>2022-05-26T09:16:13.253Z</time>
      </trkpt>
      <trkpt lat="42.00944" lon="19.31062">
        <ele>82.989633</ele>
        <time>2022-05-26T09:16:16.249Z</time>
      </trkpt>
      <trkpt lat="42.00938" lon="19.31051">
        <ele>82.847286</ele>
        <time>2022-05-26T09:16:19.250Z</time>
      </trkpt>
      <trkpt lat="42.00929" lon="19.31046">
        <ele>82.709076</ele>
        <time>2022-05-26T09:16:22.233Z</time>
      </trkpt>
      <trkpt lat="42.00949" lon="19.31035">
        <ele>82.396825</ele>
        <time>2022-05-26T09:35:37.217Z</time>
      </trkpt>
      <trkpt lat="42.00954" lon="19.31024">
        <ele>82.268705</ele>
        <time>2022-05-26T09:35:40.207Z</time>
      </trkpt>
      <trkpt lat="42.00958" lon="19.31014">
        <ele>82.139652</ele>
        <time>2022-05-26T09:35:42.231Z</time>
      </trkpt>
      <trkpt lat="42.00963" lon="19.31001">
        <ele>81.98234</ele>
        <time>2022-05-26T09:35:44.213Z</time>
      </trkpt>
      <trkpt lat="42.00964" lon="19.30986">
        <ele>81.828047</ele>
        <time>2022-05-26T09:35:46.209Z</time>
      </trkpt>
      <trkpt lat="42.00961" lon="19.30971">
        <ele>81.702469</ele>
        <time>2022-05-26T09:35:48.233Z</time>
      </trkpt>
      <trkpt lat="42.00956" lon="19.30961">
        <ele>81.691751</ele>
        <time>2022-05-26T09:35:50.289Z</time>
      </trkpt>
      <trkpt lat="42.00948" lon="19.30955">
        <ele>81.681148</ele>
        <time>2022-05-26T09:35:52.210Z</time>
      </trkpt>
      <trkpt lat="42.00939" lon="19.30952">
        <ele>81.669829</ele>
        <time>2022-05-26T09:35:54.237Z</time>
      </trkpt>
      <trkpt lat="42.00928" lon="19.3095">
        <ele>81.657654</ele>
        <time>2022-05-26T09:35:56.219Z</time>
      </trkpt>
      <trkpt lat="42.00918" lon="19.30948">
        <ele>81.645603</ele>
        <time>2022-05-26T09:35:58.212Z</time>
      </trkpt>
      <trkpt lat="42.00908" lon="19.30945">
        <ele>81.633438</ele>
        <time>2022-05-26T09:36:00.208Z</time>
      </trkpt>
      <trkpt lat="42.00897" lon="19.30942">
        <ele>81.620975</ele>
        <time>2022-05-26T09:36:02.209Z</time>
      </trkpt>
      <trkpt lat="42.00887" lon="19.3094">
        <ele>81.608812</ele>
        <time>2022-05-26T09:36:04.203Z</time>
      </trkpt>
      <trkpt lat="42.00876" lon="19.30936">
        <ele>81.596594</ele>
        <time>2022-05-26T09:36:06.207Z</time>
      </trkpt>
      <trkpt lat="42.00867" lon="19.30933">
        <ele>81.58492</ele>
        <time>2022-05-26T09:36:08.207Z</time>
      </trkpt>
      <trkpt lat="42.00856" lon="19.3093">
        <ele>81.572624</ele>
        <time>2022-05-26T09:36:10.206Z</time>
      </trkpt>
      <trkpt lat="42.00846" lon="19.30927">
        <ele>81.56055</ele>
        <time>2022-05-26T09:36:12.203Z</time>
      </trkpt>
      <trkpt lat="42.00836" lon="19.30923">
        <ele>81.548251</ele>
        <time>2022-05-26T09:36:14.214Z</time>
      </trkpt>
      <trkpt lat="42.00826" lon="19.30918">
        <ele>81.535742</ele>
        <time>2022-05-26T09:36:16.203Z</time>
      </trkpt>
      <trkpt lat="42.00816" lon="19.30912">
        <ele>81.523101</ele>
        <time>2022-05-26T09:36:18.209Z</time>
      </trkpt>
      <trkpt lat="42.00806" lon="19.30905">
        <ele>81.510723</ele>
        <time>2022-05-26T09:36:20.217Z</time>
      </trkpt>
      <trkpt lat="42.00798" lon="19.30897">
        <ele>81.498948</ele>
        <time>2022-05-26T09:36:22.226Z</time>
      </trkpt>
      <trkpt lat="42.00791" lon="19.30888">
        <ele>81.477859</ele>
        <time>2022-05-26T09:36:24.214Z</time>
      </trkpt>
      <trkpt lat="42.00786" lon="19.30877">
        <ele>81.455454</ele>
        <time>2022-05-26T09:36:26.205Z</time>
      </trkpt>
      <trkpt lat="42.00781" lon="19.30866">
        <ele>81.432659</ele>
        <time>2022-05-26T09:36:28.225Z</time>
      </trkpt>
      <trkpt lat="42.00777" lon="19.30854">
        <ele>81.409604</ele>
        <time>2022-05-26T09:36:30.211Z</time>
      </trkpt>
      <trkpt lat="42.00774" lon="19.30837">
        <ele>81.37905</ele>
        <time>2022-05-26T09:36:33.211Z</time>
      </trkpt>
      <trkpt lat="42.00772" lon="19.30824">
        <ele>81.355956</ele>
        <time>2022-05-26T09:36:35.216Z</time>
      </trkpt>
      <trkpt lat="42.00771" lon="19.30811">
        <ele>81.333102</ele>
        <time>2022-05-26T09:36:37.215Z</time>
      </trkpt>
      <trkpt lat="42.00771" lon="19.30798">
        <ele>81.311493</ele>
        <time>2022-05-26T09:36:39.218Z</time>
      </trkpt>
      <trkpt lat="42.00772" lon="19.30781">
        <ele>81.281394</ele>
        <time>2022-05-26T09:36:42.207Z</time>
      </trkpt>
      <trkpt lat="42.00773" lon="19.30764">
        <ele>81.251418</ele>
        <time>2022-05-26T09:36:45.215Z</time>
      </trkpt>
      <trkpt lat="42.00774" lon="19.3075">
        <ele>81.227324</ele>
        <time>2022-05-26T09:36:47.207Z</time>
      </trkpt>
      <trkpt lat="42.00775" lon="19.30736">
        <ele>81.202819</ele>
        <time>2022-05-26T09:36:49.224Z</time>
      </trkpt>
      <trkpt lat="42.00775" lon="19.30723">
        <ele>81.179472</ele>
        <time>2022-05-26T09:36:51.223Z</time>
      </trkpt>
      <trkpt lat="42.00775" lon="19.30709">
        <ele>81.156299</ele>
        <time>2022-05-26T09:36:53.222Z</time>
      </trkpt>
      <trkpt lat="42.00774" lon="19.30697">
        <ele>81.134653</ele>
        <time>2022-05-26T09:36:55.204Z</time>
      </trkpt>
      <trkpt lat="42.00771" lon="19.30685">
        <ele>81.112772</ele>
        <time>2022-05-26T09:36:57.223Z</time>
      </trkpt>
      <trkpt lat="42.00768" lon="19.30673">
        <ele>81.091117</ele>
        <time>2022-05-26T09:36:59.211Z</time>
      </trkpt>
      <trkpt lat="42.00765" lon="19.30662">
        <ele>81.055695</ele>
        <time>2022-05-26T09:37:01.206Z</time>
      </trkpt>
      <trkpt lat="42.00757" lon="19.30648">
        <ele>80.943562</ele>
        <time>2022-05-26T09:37:04.202Z</time>
      </trkpt>
      <trkpt lat="42.00747" lon="19.30637">
        <ele>80.830745</ele>
        <time>2022-05-26T09:37:07.207Z</time>
      </trkpt>
      <trkpt lat="42.00737" lon="19.30627">
        <ele>80.717962</ele>
        <time>2022-05-26T09:37:10.213Z</time>
      </trkpt>
      <trkpt lat="42.00728" lon="19.30621">
        <ele>80.633655</ele>
        <time>2022-05-26T09:37:12.207Z</time>
      </trkpt>
      <trkpt lat="42.00719" lon="19.30617">
        <ele>80.55299</ele>
        <time>2022-05-26T09:37:14.228Z</time>
      </trkpt>
      <trkpt lat="42.00711" lon="19.30612">
        <ele>80.469876</ele>
        <time>2022-05-26T09:37:16.221Z</time>
      </trkpt>
      <trkpt lat="42.00701" lon="19.30607">
        <ele>80.382401</ele>
        <time>2022-05-26T09:37:18.212Z</time>
      </trkpt>
      <trkpt lat="42.00692" lon="19.30602">
        <ele>80.294277</ele>
        <time>2022-05-26T09:37:20.201Z</time>
      </trkpt>
      <trkpt lat="42.00683" lon="19.30597">
        <ele>80.206485</ele>
        <time>2022-05-26T09:37:22.204Z</time>
      </trkpt>
      <trkpt lat="42.00672" lon="19.30592">
        <ele>80.111196</ele>
        <time>2022-05-26T09:37:24.205Z</time>
      </trkpt>
      <trkpt lat="42.00662" lon="19.30588">
        <ele>80.013195</ele>
        <time>2022-05-26T09:37:26.229Z</time>
      </trkpt>
      <trkpt lat="42.00651" lon="19.30584">
        <ele>79.915608</ele>
        <time>2022-05-26T09:37:28.225Z</time>
      </trkpt>
      <trkpt lat="42.0064" lon="19.30581">
        <ele>79.820915</ele>
        <time>2022-05-26T09:37:30.262Z</time>
      </trkpt>
      <trkpt lat="42.0063" lon="19.30578">
        <ele>79.728787</ele>
        <time>2022-05-26T09:37:32.240Z</time>
      </trkpt>
      <trkpt lat="42.0062" lon="19.30575">
        <ele>79.639221</ele>
        <time>2022-05-26T09:37:34.216Z</time>
      </trkpt>
      <trkpt lat="42.0061" lon="19.30571">
        <ele>79.548206</ele>
        <time>2022-05-26T09:37:36.204Z</time>
      </trkpt>
      <trkpt lat="42.006" lon="19.30568">
        <ele>79.522605</ele>
        <time>2022-05-26T09:37:38.204Z</time>
      </trkpt>
      <trkpt lat="42.0059" lon="19.30565">
        <ele>79.560224</ele>
        <time>2022-05-26T09:37:40.209Z</time>
      </trkpt>
      <trkpt lat="42.00579" lon="19.30563">
        <ele>79.598203</ele>
        <time>2022-05-26T09:37:42.208Z</time>
      </trkpt>
      <trkpt lat="42.0057" lon="19.30561">
        <ele>79.633783</ele>
        <time>2022-05-26T09:37:44.203Z</time>
      </trkpt>
      <trkpt lat="42.0056" lon="19.30558">
        <ele>79.669864</ele>
        <time>2022-05-26T09:37:46.205Z</time>
      </trkpt>
      <trkpt lat="42.00551" lon="19.30556">
        <ele>79.704507</ele>
        <time>2022-05-26T09:37:48.208Z</time>
      </trkpt>
      <trkpt lat="42.00542" lon="19.30553">
        <ele>79.73943</ele>
        <time>2022-05-26T09:37:50.206Z</time>
      </trkpt>
      <trkpt lat="42.00532" lon="19.3055">
        <ele>79.775547</ele>
        <time>2022-05-26T09:37:52.209Z</time>
      </trkpt>
      <trkpt lat="42.00522" lon="19.30547">
        <ele>79.811898</ele>
        <time>2022-05-26T09:37:54.207Z</time>
      </trkpt>
      <trkpt lat="42.00512" lon="19.30543">
        <ele>79.850142</ele>
        <time>2022-05-26T09:37:56.210Z</time>
      </trkpt>
      <trkpt lat="42.00503" lon="19.30536">
        <ele>79.889184</ele>
        <time>2022-05-26T09:37:58.208Z</time>
      </trkpt>
      <trkpt lat="42.00495" lon="19.30526">
        <ele>79.92852</ele>
        <time>2022-05-26T09:38:00.239Z</time>
      </trkpt>
      <trkpt lat="42.0049" lon="19.30513">
        <ele>79.968354</ele>
        <time>2022-05-26T09:38:02.217Z</time>
      </trkpt>
      <trkpt lat="42.00487" lon="19.30499">
        <ele>80.008903</ele>
        <time>2022-05-26T09:38:04.209Z</time>
      </trkpt>
      <trkpt lat="42.00488" lon="19.30484">
        <ele>80.049423</ele>
        <time>2022-05-26T09:38:06.276Z</time>
      </trkpt>
      <trkpt lat="42.0049" lon="19.3047">
        <ele>80.087339</ele>
        <time>2022-05-26T09:38:08.204Z</time>
      </trkpt>
      <trkpt lat="42.00493" lon="19.30457">
        <ele>80.123511</ele>
        <time>2022-05-26T09:38:10.204Z</time>
      </trkpt>
      <trkpt lat="42.00495" lon="19.30446">
        <ele>80.156677</ele>
        <time>2022-05-26T09:38:12.221Z</time>
      </trkpt>
      <trkpt lat="42.00495" lon="19.30429">
        <ele>80.156446</ele>
        <time>2022-05-26T09:38:15.209Z</time>
      </trkpt>
      <trkpt lat="42.00492" lon="19.30414">
        <ele>80.151638</ele>
        <time>2022-05-26T09:38:18.207Z</time>
      </trkpt>
      <trkpt lat="42.00488" lon="19.30399">
        <ele>80.14667</ele>
        <time>2022-05-26T09:38:21.206Z</time>
      </trkpt>
      <trkpt lat="42.00482" lon="19.30388">
        <ele>80.142203</ele>
        <time>2022-05-26T09:38:24.222Z</time>
      </trkpt>
      <trkpt lat="42.00474" lon="19.30378">
        <ele>80.137833</ele>
        <time>2022-05-26T09:38:27.212Z</time>
      </trkpt>
      <trkpt lat="42.00463" lon="19.3037">
        <ele>80.13277</ele>
        <time>2022-05-26T09:38:30.206Z</time>
      </trkpt>
      <trkpt lat="42.00455" lon="19.30365">
        <ele>80.128875</ele>
        <time>2022-05-26T09:38:32.203Z</time>
      </trkpt>
      <trkpt lat="42.00445" lon="19.30359">
        <ele>80.12446</ele>
        <time>2022-05-26T09:38:34.228Z</time>
      </trkpt>
      <trkpt lat="42.00435" lon="19.30352">
        <ele>80.119599</ele>
        <time>2022-05-26T09:38:36.209Z</time>
      </trkpt>
      <trkpt lat="42.00424" lon="19.30344">
        <ele>80.114398</ele>
        <time>2022-05-26T09:38:38.209Z</time>
      </trkpt>
      <trkpt lat="42.00413" lon="19.30336">
        <ele>80.109204</ele>
        <time>2022-05-26T09:38:40.231Z</time>
      </trkpt>
      <trkpt lat="42.00403" lon="19.30329">
        <ele>80.104244</ele>
        <time>2022-05-26T09:38:42.206Z</time>
      </trkpt>
      <trkpt lat="42.00392" lon="19.30321">
        <ele>80.099352</ele>
        <time>2022-05-26T09:38:44.212Z</time>
      </trkpt>
      <trkpt lat="42.00382" lon="19.30313">
        <ele>80.094449</ele>
        <time>2022-05-26T09:38:46.251Z</time>
      </trkpt>
      <trkpt lat="42.00373" lon="19.30304">
        <ele>80.089659</ele>
        <time>2022-05-26T09:38:48.202Z</time>
      </trkpt>
      <trkpt lat="42.00364" lon="19.30295">
        <ele>80.116165</ele>
        <time>2022-05-26T09:38:50.206Z</time>
      </trkpt>
      <trkpt lat="42.00356" lon="19.30285">
        <ele>80.269842</ele>
        <time>2022-05-26T09:38:52.205Z</time>
      </trkpt>
      <trkpt lat="42.0035" lon="19.30273">
        <ele>80.416175</ele>
        <time>2022-05-26T09:38:54.217Z</time>
      </trkpt>
      <trkpt lat="42.00345" lon="19.30262">
        <ele>80.556313</ele>
        <time>2022-05-26T09:38:56.210Z</time>
      </trkpt>
      <trkpt lat="42.00342" lon="19.30249">
        <ele>80.694495</ele>
        <time>2022-05-26T09:38:58.200Z</time>
      </trkpt>
      <trkpt lat="42.00339" lon="19.30237">
        <ele>80.827932</ele>
        <time>2022-05-26T09:39:00.203Z</time>
      </trkpt>
      <trkpt lat="42.00336" lon="19.30219">
        <ele>81.014415</ele>
        <time>2022-05-26T09:39:03.220Z</time>
      </trkpt>
      <trkpt lat="42.00333" lon="19.30203">
        <ele>81.192164</ele>
        <time>2022-05-26T09:39:06.209Z</time>
      </trkpt>
      <trkpt lat="42.00331" lon="19.30187">
        <ele>81.358123</ele>
        <time>2022-05-26T09:39:09.205Z</time>
      </trkpt>
      <trkpt lat="42.00328" lon="19.30173">
        <ele>81.514525</ele>
        <time>2022-05-26T09:39:12.210Z</time>
      </trkpt>
      <trkpt lat="42.00326" lon="19.30159">
        <ele>81.661858</ele>
        <time>2022-05-26T09:39:15.214Z</time>
      </trkpt>
      <trkpt lat="42.00324" lon="19.30143">
        <ele>81.826797</ele>
        <time>2022-05-26T09:39:18.204Z</time>
      </trkpt>
      <trkpt lat="42.00322" lon="19.30126">
        <ele>82.009408</ele>
        <time>2022-05-26T09:39:21.224Z</time>
      </trkpt>
      <trkpt lat="42.0032" lon="19.30113">
        <ele>82.142815</ele>
        <time>2022-05-26T09:39:23.212Z</time>
      </trkpt>
      <trkpt lat="42.00318" lon="19.30101">
        <ele>82.276018</ele>
        <time>2022-05-26T09:39:25.205Z</time>
      </trkpt>
      <trkpt lat="42.00316" lon="19.30088">
        <ele>82.408659</ele>
        <time>2022-05-26T09:39:27.220Z</time>
      </trkpt>
      <trkpt lat="42.00314" lon="19.30076">
        <ele>82.540278</ele>
        <time>2022-05-26T09:39:29.215Z</time>
      </trkpt>
      <trkpt lat="42.00312" lon="19.30063">
        <ele>82.666931</ele>
        <time>2022-05-26T09:39:31.213Z</time>
      </trkpt>
      <trkpt lat="42.00311" lon="19.30051">
        <ele>82.77632</ele>
        <time>2022-05-26T09:39:33.219Z</time>
      </trkpt>
      <trkpt lat="42.00308" lon="19.30034">
        <ele>82.935307</ele>
        <time>2022-05-26T09:39:36.237Z</time>
      </trkpt>
      <trkpt lat="42.00305" lon="19.30017">
        <ele>83.087238</ele>
        <time>2022-05-26T09:39:39.216Z</time>
      </trkpt>
      <trkpt lat="42.00303" lon="19.3">
        <ele>83.244964</ele>
        <time>2022-05-26T09:39:42.232Z</time>
      </trkpt>
      <trkpt lat="42.003" lon="19.29984">
        <ele>83.398624</ele>
        <time>2022-05-26T09:39:45.213Z</time>
      </trkpt>
      <trkpt lat="42.00298" lon="19.29967">
        <ele>83.545864</ele>
        <time>2022-05-26T09:39:48.236Z</time>
      </trkpt>
      <trkpt lat="42.00296" lon="19.29951">
        <ele>83.696655</ele>
        <time>2022-05-26T09:39:51.215Z</time>
      </trkpt>
      <trkpt lat="42.00295" lon="19.29934">
        <ele>83.847673</ele>
        <time>2022-05-26T09:39:54.239Z</time>
      </trkpt>
      <trkpt lat="42.00295" lon="19.29918">
        <ele>83.994543</ele>
        <time>2022-05-26T09:39:57.209Z</time>
      </trkpt>
      <trkpt lat="42.00297" lon="19.299">
        <ele>84.157985</ele>
        <time>2022-05-26T09:40:00.211Z</time>
      </trkpt>
      <trkpt lat="42.00299" lon="19.29888">
        <ele>84.271067</ele>
        <time>2022-05-26T09:40:02.205Z</time>
      </trkpt>
      <trkpt lat="42.00304" lon="19.29873">
        <ele>84.418005</ele>
        <time>2022-05-26T09:40:05.242Z</time>
      </trkpt>
      <trkpt lat="42.00309" lon="19.29859">
        <ele>84.562386</ele>
        <time>2022-05-26T09:40:08.215Z</time>
      </trkpt>
      <trkpt lat="42.00316" lon="19.29845">
        <ele>84.707726</ele>
        <time>2022-05-26T09:40:11.209Z</time>
      </trkpt>
      <trkpt lat="42.00323" lon="19.29833">
        <ele>84.863166</ele>
        <time>2022-05-26T09:40:14.213Z</time>
      </trkpt>
      <trkpt lat="42.00329" lon="19.29822">
        <ele>85.042591</ele>
        <time>2022-05-26T09:40:17.211Z</time>
      </trkpt>
      <trkpt lat="42.00336" lon="19.2981">
        <ele>85.234184</ele>
        <time>2022-05-26T09:40:20.217Z</time>
      </trkpt>
      <trkpt lat="42.00342" lon="19.29797">
        <ele>85.432968</ele>
        <time>2022-05-26T09:40:23.224Z</time>
      </trkpt>
      <trkpt lat="42.00349" lon="19.29784">
        <ele>85.627543</ele>
        <time>2022-05-26T09:40:26.214Z</time>
      </trkpt>
      <trkpt lat="42.00356" lon="19.29772">
        <ele>85.818105</ele>
        <time>2022-05-26T09:40:29.214Z</time>
      </trkpt>
      <trkpt lat="42.00362" lon="19.2976">
        <ele>86.006606</ele>
        <time>2022-05-26T09:40:32.239Z</time>
      </trkpt>
      <trkpt lat="42.0037" lon="19.29748">
        <ele>86.200462</ele>
        <time>2022-05-26T09:40:35.213Z</time>
      </trkpt>
      <trkpt lat="42.00377" lon="19.29737">
        <ele>86.38905</ele>
        <time>2022-05-26T09:40:38.235Z</time>
      </trkpt>
      <trkpt lat="42.00384" lon="19.29725">
        <ele>86.583184</ele>
        <time>2022-05-26T09:40:41.215Z</time>
      </trkpt>
      <trkpt lat="42.00393" lon="19.29715">
        <ele>86.779634</ele>
        <time>2022-05-26T09:40:44.231Z</time>
      </trkpt>
      <trkpt lat="42.00402" lon="19.29706">
        <ele>86.972074</ele>
        <time>2022-05-26T09:40:47.213Z</time>
      </trkpt>
      <trkpt lat="42.00412" lon="19.29697">
        <ele>87.176583</ele>
        <time>2022-05-26T09:40:50.224Z</time>
      </trkpt>
      <trkpt lat="42.00422" lon="19.29691">
        <ele>87.363654</ele>
        <time>2022-05-26T09:40:53.208Z</time>
      </trkpt>
      <trkpt lat="42.00432" lon="19.29686">
        <ele>87.537434</ele>
        <time>2022-05-26T09:40:56.232Z</time>
      </trkpt>
      <trkpt lat="42.00442" lon="19.2968">
        <ele>87.726121</ele>
        <time>2022-05-26T09:40:59.220Z</time>
      </trkpt>
      <trkpt lat="42.00451" lon="19.29671">
        <ele>87.8456</ele>
        <time>2022-05-26T09:41:02.204Z</time>
      </trkpt>
      <trkpt lat="42.00459" lon="19.29662">
        <ele>87.850402</ele>
        <time>2022-05-26T09:41:05.216Z</time>
      </trkpt>
      <trkpt lat="42.00467" lon="19.29651">
        <ele>87.855812</ele>
        <time>2022-05-26T09:41:08.233Z</time>
      </trkpt>
      <trkpt lat="42.00475" lon="19.29639">
        <ele>87.86142</ele>
        <time>2022-05-26T09:41:11.222Z</time>
      </trkpt>
      <trkpt lat="42.00479" lon="19.29627">
        <ele>87.866116</ele>
        <time>2022-05-26T09:41:14.240Z</time>
      </trkpt>
      <trkpt lat="42.00487" lon="19.29613">
        <ele>87.87214</ele>
        <time>2022-05-26T09:41:17.218Z</time>
      </trkpt>
      <trkpt lat="42.00494" lon="19.29601">
        <ele>87.877408</ele>
        <time>2022-05-26T09:41:20.237Z</time>
      </trkpt>
      <trkpt lat="42.005" lon="19.29589">
        <ele>87.882565</ele>
        <time>2022-05-26T09:41:23.212Z</time>
      </trkpt>
      <trkpt lat="42.00506" lon="19.29576">
        <ele>87.888093</ele>
        <time>2022-05-26T09:41:26.231Z</time>
      </trkpt>
      <trkpt lat="42.00513" lon="19.29563">
        <ele>87.893365</ele>
        <time>2022-05-26T09:41:29.211Z</time>
      </trkpt>
      <trkpt lat="42.00518" lon="19.2955">
        <ele>87.898453</ele>
        <time>2022-05-26T09:41:32.237Z</time>
      </trkpt>
      <trkpt lat="42.00522" lon="19.29537">
        <ele>87.903351</ele>
        <time>2022-05-26T09:41:35.212Z</time>
      </trkpt>
      <trkpt lat="42.00525" lon="19.29526">
        <ele>87.907687</ele>
        <time>2022-05-26T09:41:38.226Z</time>
      </trkpt>
      <trkpt lat="42.00527" lon="19.29514">
        <ele>87.911916</ele>
        <time>2022-05-26T09:41:41.213Z</time>
      </trkpt>
      <trkpt lat="42.0053" lon="19.29502">
        <ele>87.916233</ele>
        <time>2022-05-26T09:41:44.209Z</time>
      </trkpt>
      <trkpt lat="42.00533" lon="19.29488">
        <ele>87.921298</ele>
        <time>2022-05-26T09:41:48.217Z</time>
      </trkpt>
      <trkpt lat="42.00536" lon="19.29473">
        <ele>87.926912</ele>
        <time>2022-05-26T09:41:52.220Z</time>
      </trkpt>
      <trkpt lat="42.00538" lon="19.2946">
        <ele>88.22813</ele>
        <time>2022-05-26T09:41:55.235Z</time>
      </trkpt>
      <trkpt lat="42.00541" lon="19.29446">
        <ele>88.655772</ele>
        <time>2022-05-26T09:41:58.220Z</time>
      </trkpt>
      <trkpt lat="42.00543" lon="19.29434">
        <ele>89.058681</ele>
        <time>2022-05-26T09:42:01.242Z</time>
      </trkpt>
      <trkpt lat="42.00545" lon="19.29422">
        <ele>89.432877</ele>
        <time>2022-05-26T09:42:04.205Z</time>
      </trkpt>
      <trkpt lat="42.00549" lon="19.29407">
        <ele>89.923733</ele>
        <time>2022-05-26T09:42:08.216Z</time>
      </trkpt>
      <trkpt lat="42.00551" lon="19.29393">
        <ele>90.367287</ele>
        <time>2022-05-26T09:42:12.207Z</time>
      </trkpt>
      <trkpt lat="42.00554" lon="19.29378">
        <ele>90.831744</ele>
        <time>2022-05-26T09:42:16.215Z</time>
      </trkpt>
      <trkpt lat="42.00556" lon="19.29362">
        <ele>91.315391</ele>
        <time>2022-05-26T09:42:20.206Z</time>
      </trkpt>
      <trkpt lat="42.00559" lon="19.29351">
        <ele>91.692312</ele>
        <time>2022-05-26T09:42:23.207Z</time>
      </trkpt>
      <trkpt lat="42.00561" lon="19.29339">
        <ele>92.070319</ele>
        <time>2022-05-26T09:42:26.212Z</time>
      </trkpt>
      <trkpt lat="42.00563" lon="19.29323">
        <ele>92.559163</ele>
        <time>2022-05-26T09:42:30.227Z</time>
      </trkpt>
      <trkpt lat="42.00566" lon="19.29308">
        <ele>93.035566</ele>
        <time>2022-05-26T09:42:34.205Z</time>
      </trkpt>
      <trkpt lat="42.00569" lon="19.29293">
        <ele>93.528204</ele>
        <time>2022-05-26T09:42:38.217Z</time>
      </trkpt>
      <trkpt lat="42.00573" lon="19.29278">
        <ele>94.012709</ele>
        <time>2022-05-26T09:42:42.208Z</time>
      </trkpt>
      <trkpt lat="42.00576" lon="19.29263">
        <ele>94.488447</ele>
        <time>2022-05-26T09:42:46.214Z</time>
      </trkpt>
      <trkpt lat="42.0058" lon="19.29248">
        <ele>94.965321</ele>
        <time>2022-05-26T09:42:50.206Z</time>
      </trkpt>
      <trkpt lat="42.00584" lon="19.29236">
        <ele>95.369687</ele>
        <time>2022-05-26T09:42:53.212Z</time>
      </trkpt>
      <trkpt lat="42.00587" lon="19.29224">
        <ele>95.452779</ele>
        <time>2022-05-26T09:42:56.206Z</time>
      </trkpt>
      <trkpt lat="42.00592" lon="19.29211">
        <ele>95.540332</ele>
        <time>2022-05-26T09:42:59.210Z</time>
      </trkpt>
      <trkpt lat="42.00596" lon="19.29197">
        <ele>95.637719</ele>
        <time>2022-05-26T09:43:02.212Z</time>
      </trkpt>
      <trkpt lat="42.006" lon="19.29183">
        <ele>95.730035</ele>
        <time>2022-05-26T09:43:05.216Z</time>
      </trkpt>
      <trkpt lat="42.00604" lon="19.2917">
        <ele>95.819052</ele>
        <time>2022-05-26T09:43:08.203Z</time>
      </trkpt>
      <trkpt lat="42.00608" lon="19.29158">
        <ele>95.904542</ele>
        <time>2022-05-26T09:43:11.199Z</time>
      </trkpt>
      <trkpt lat="42.00612" lon="19.29145">
        <ele>95.990032</ele>
        <time>2022-05-26T09:43:14.208Z</time>
      </trkpt>
      <trkpt lat="42.00616" lon="19.29134">
        <ele>96.068544</ele>
        <time>2022-05-26T09:43:17.209Z</time>
      </trkpt>
      <trkpt lat="42.0062" lon="19.29121">
        <ele>96.157609</ele>
        <time>2022-05-26T09:43:20.209Z</time>
      </trkpt>
      <trkpt lat="42.00624" lon="19.29109">
        <ele>96.244098</ele>
        <time>2022-05-26T09:43:23.210Z</time>
      </trkpt>
      <trkpt lat="42.00628" lon="19.29095">
        <ele>96.338821</ele>
        <time>2022-05-26T09:43:26.243Z</time>
      </trkpt>
      <trkpt lat="42.00633" lon="19.29081">
        <ele>96.433406</ele>
        <time>2022-05-26T09:43:29.214Z</time>
      </trkpt>
      <trkpt lat="42.00637" lon="19.29067">
        <ele>96.531579</ele>
        <time>2022-05-26T09:43:32.227Z</time>
      </trkpt>
      <trkpt lat="42.00642" lon="19.29053">
        <ele>96.628007</ele>
        <time>2022-05-26T09:43:35.203Z</time>
      </trkpt>
      <trkpt lat="42.00648" lon="19.29039">
        <ele>96.728979</ele>
        <time>2022-05-26T09:43:38.224Z</time>
      </trkpt>
      <trkpt lat="42.00652" lon="19.29025">
        <ele>96.825874</ele>
        <time>2022-05-26T09:43:41.208Z</time>
      </trkpt>
      <trkpt lat="42.00657" lon="19.29011">
        <ele>96.870569</ele>
        <time>2022-05-26T09:43:44.239Z</time>
      </trkpt>
      <trkpt lat="42.00663" lon="19.28996">
        <ele>96.725741</ele>
        <time>2022-05-26T09:43:47.202Z</time>
      </trkpt>
      <trkpt lat="42.00668" lon="19.28984">
        <ele>96.61644</ele>
        <time>2022-05-26T09:43:49.207Z</time>
      </trkpt>
      <trkpt lat="42.00675" lon="19.28973">
        <ele>96.498488</ele>
        <time>2022-05-26T09:43:51.206Z</time>
      </trkpt>
      <trkpt lat="42.00683" lon="19.28963">
        <ele>96.379059</ele>
        <time>2022-05-26T09:43:53.219Z</time>
      </trkpt>
      <trkpt lat="42.00691" lon="19.28954">
        <ele>96.258788</ele>
        <time>2022-05-26T09:43:55.211Z</time>
      </trkpt>
      <trkpt lat="42.007" lon="19.28947">
        <ele>96.146351</ele>
        <time>2022-05-26T09:43:57.210Z</time>
      </trkpt>
      <trkpt lat="42.00709" lon="19.2894">
        <ele>96.030762</ele>
        <time>2022-05-26T09:43:59.204Z</time>
      </trkpt>
      <trkpt lat="42.00718" lon="19.28933">
        <ele>95.922012</ele>
        <time>2022-05-26T09:44:01.208Z</time>
      </trkpt>
      <trkpt lat="42.00726" lon="19.28927">
        <ele>95.821583</ele>
        <time>2022-05-26T09:44:03.222Z</time>
      </trkpt>
      <trkpt lat="42.00734" lon="19.28914">
        <ele>95.683748</ele>
        <time>2022-05-26T09:44:06.211Z</time>
      </trkpt>
      <trkpt lat="42.00738" lon="19.28903">
        <ele>95.580332</ele>
        <time>2022-05-26T09:44:08.209Z</time>
      </trkpt>
      <trkpt lat="42.00741" lon="19.2889">
        <ele>95.471661</ele>
        <time>2022-05-26T09:44:10.205Z</time>
      </trkpt>
      <trkpt lat="42.00744" lon="19.28877">
        <ele>95.356691</ele>
        <time>2022-05-26T09:44:12.197Z</time>
      </trkpt>
      <trkpt lat="42.00749" lon="19.28865">
        <ele>95.246426</ele>
        <time>2022-05-26T09:44:14.214Z</time>
      </trkpt>
      <trkpt lat="42.00753" lon="19.28853">
        <ele>95.137508</ele>
        <time>2022-05-26T09:44:16.203Z</time>
      </trkpt>
      <trkpt lat="42.00758" lon="19.28843">
        <ele>95.036379</ele>
        <time>2022-05-26T09:44:18.214Z</time>
      </trkpt>
      <trkpt lat="42.00764" lon="19.2883">
        <ele>94.91585</ele>
        <time>2022-05-26T09:44:21.214Z</time>
      </trkpt>
      <trkpt lat="42.0077" lon="19.28821">
        <ele>95.083899</ele>
        <time>2022-05-26T09:44:24.229Z</time>
      </trkpt>
      <trkpt lat="42.00776" lon="19.28808">
        <ele>95.282215</ele>
        <time>2022-05-26T09:44:28.203Z</time>
      </trkpt>
      <trkpt lat="42.00779" lon="19.28795">
        <ele>95.479818</ele>
        <time>2022-05-26T09:44:32.202Z</time>
      </trkpt>
      <trkpt lat="42.00782" lon="19.2878">
        <ele>95.688751</ele>
        <time>2022-05-26T09:44:36.202Z</time>
      </trkpt>
      <trkpt lat="42.00783" lon="19.28768">
        <ele>95.859275</ele>
        <time>2022-05-26T09:44:39.219Z</time>
      </trkpt>
      <trkpt lat="42.00785" lon="19.28754">
        <ele>96.051431</ele>
        <time>2022-05-26T09:44:42.208Z</time>
      </trkpt>
      <trkpt lat="42.00788" lon="19.28738">
        <ele>96.273206</ele>
        <time>2022-05-26T09:44:45.205Z</time>
      </trkpt>
      <trkpt lat="42.00792" lon="19.28722">
        <ele>96.506749</ele>
        <time>2022-05-26T09:44:48.204Z</time>
      </trkpt>
      <trkpt lat="42.00797" lon="19.28707">
        <ele>96.736919</ele>
        <time>2022-05-26T09:44:51.202Z</time>
      </trkpt>
      <trkpt lat="42.00803" lon="19.28693">
        <ele>96.945152</ele>
        <time>2022-05-26T09:44:54.227Z</time>
      </trkpt>
      <trkpt lat="42.00808" lon="19.2868">
        <ele>97.156671</ele>
        <time>2022-05-26T09:44:57.217Z</time>
      </trkpt>
      <trkpt lat="42.00814" lon="19.28665">
        <ele>97.379391</ele>
        <time>2022-05-26T09:45:00.203Z</time>
      </trkpt>
      <trkpt lat="42.00818" lon="19.28649">
        <ele>97.61412</ele>
        <time>2022-05-26T09:45:03.202Z</time>
      </trkpt>
      <trkpt lat="42.00822" lon="19.28632">
        <ele>97.858634</ele>
        <time>2022-05-26T09:45:06.206Z</time>
      </trkpt>
      <trkpt lat="42.00825" lon="19.28615">
        <ele>98.098105</ele>
        <time>2022-05-26T09:45:09.229Z</time>
      </trkpt>
      <trkpt lat="42.00828" lon="19.28598">
        <ele>98.256236</ele>
        <time>2022-05-26T09:45:12.202Z</time>
      </trkpt>
      <trkpt lat="42.00831" lon="19.28582">
        <ele>98.318686</ele>
        <time>2022-05-26T09:45:15.231Z</time>
      </trkpt>
      <trkpt lat="42.00833" lon="19.2857">
        <ele>98.366786</ele>
        <time>2022-05-26T09:45:17.205Z</time>
      </trkpt>
      <trkpt lat="42.00835" lon="19.28557">
        <ele>98.414973</ele>
        <time>2022-05-26T09:45:19.218Z</time>
      </trkpt>
      <trkpt lat="42.00837" lon="19.28545">
        <ele>98.465752</ele>
        <time>2022-05-26T09:45:21.227Z</time>
      </trkpt>
      <trkpt lat="42.00841" lon="19.28532">
        <ele>98.51668</ele>
        <time>2022-05-26T09:45:23.209Z</time>
      </trkpt>
      <trkpt lat="42.00845" lon="19.28519">
        <ele>98.570357</ele>
        <time>2022-05-26T09:45:25.201Z</time>
      </trkpt>
      <trkpt lat="42.00851" lon="19.28509">
        <ele>98.620674</ele>
        <time>2022-05-26T09:45:27.223Z</time>
      </trkpt>
      <trkpt lat="42.00863" lon="19.28498">
        <ele>98.693848</ele>
        <time>2022-05-26T09:45:30.212Z</time>
      </trkpt>
      <trkpt lat="42.00873" lon="19.28493">
        <ele>98.747234</ele>
        <time>2022-05-26T09:45:32.216Z</time>
      </trkpt>
      <trkpt lat="42.00885" lon="19.28488">
        <ele>98.811124</ele>
        <time>2022-05-26T09:45:35.215Z</time>
      </trkpt>
      <trkpt lat="42.00894" lon="19.28484">
        <ele>98.860622</ele>
        <time>2022-05-26T09:45:38.199Z</time>
      </trkpt>
      <trkpt lat="42.00904" lon="19.28477">
        <ele>98.916652</ele>
        <time>2022-05-26T09:45:42.207Z</time>
      </trkpt>
      <trkpt lat="42.00913" lon="19.28467">
        <ele>98.977044</ele>
        <time>2022-05-26T09:45:46.203Z</time>
      </trkpt>
      <trkpt lat="42.00919" lon="19.28457">
        <ele>99.027143</ele>
        <time>2022-05-26T09:45:49.219Z</time>
      </trkpt>
      <trkpt lat="42.00925" lon="19.28446">
        <ele>99.077161</ele>
        <time>2022-05-26T09:45:52.203Z</time>
      </trkpt>
      <trkpt lat="42.0093" lon="19.28436">
        <ele>99.125776</ele>
        <time>2022-05-26T09:45:55.222Z</time>
      </trkpt>
      <trkpt lat="42.00935" lon="19.28424">
        <ele>99.363389</ele>
        <time>2022-05-26T09:45:58.212Z</time>
      </trkpt>
      <trkpt lat="42.00939" lon="19.28412">
        <ele>99.721613</ele>
        <time>2022-05-26T09:46:01.215Z</time>
      </trkpt>
      <trkpt lat="42.00944" lon="19.284">
        <ele>100.074394</ele>
        <time>2022-05-26T09:46:04.233Z</time>
      </trkpt>
      <trkpt lat="42.00948" lon="19.28388">
        <ele>100.411263</ele>
        <time>2022-05-26T09:46:07.208Z</time>
      </trkpt>
      <trkpt lat="42.00953" lon="19.28377">
        <ele>100.756416</ele>
        <time>2022-05-26T09:46:10.213Z</time>
      </trkpt>
      <trkpt lat="42.00958" lon="19.28365">
        <ele>101.118918</ele>
        <time>2022-05-26T09:46:13.223Z</time>
      </trkpt>
      <trkpt lat="42.00962" lon="19.28354">
        <ele>101.466388</ele>
        <time>2022-05-26T09:46:16.204Z</time>
      </trkpt>
      <trkpt lat="42.00967" lon="19.28342">
        <ele>101.801792</ele>
        <time>2022-05-26T09:46:19.252Z</time>
      </trkpt>
      <trkpt lat="42.00971" lon="19.28331">
        <ele>102.142622</ele>
        <time>2022-05-26T09:46:22.205Z</time>
      </trkpt>
      <trkpt lat="42.00977" lon="19.28317">
        <ele>102.55426</ele>
        <time>2022-05-26T09:46:26.201Z</time>
      </trkpt>
      <trkpt lat="42.00981" lon="19.28306">
        <ele>102.877698</ele>
        <time>2022-05-26T09:46:29.211Z</time>
      </trkpt>
      <trkpt lat="42.00985" lon="19.28296">
        <ele>103.198775</ele>
        <time>2022-05-26T09:46:32.206Z</time>
      </trkpt>
      <trkpt lat="42.0099" lon="19.28281">
        <ele>103.617107</ele>
        <time>2022-05-26T09:46:36.228Z</time>
      </trkpt>
      <trkpt lat="42.00996" lon="19.28268">
        <ele>104.025338</ele>
        <time>2022-05-26T09:46:40.198Z</time>
      </trkpt>
      <trkpt lat="42.00999" lon="19.28257">
        <ele>104.352255</ele>
        <time>2022-05-26T09:46:43.217Z</time>
      </trkpt>
      <trkpt lat="42.01003" lon="19.28242">
        <ele>104.758395</ele>
        <time>2022-05-26T09:46:47.245Z</time>
      </trkpt>
      <trkpt lat="42.01005" lon="19.28228">
        <ele>105.133948</ele>
        <time>2022-05-26T09:46:51.215Z</time>
      </trkpt>
      <trkpt lat="42.01005" lon="19.28213">
        <ele>105.523915</ele>
        <time>2022-05-26T09:46:56.214Z</time>
      </trkpt>
      <trkpt lat="42.01005" lon="19.28201">
        <ele>106.176503</ele>
        <time>2022-05-26T09:47:01.206Z</time>
      </trkpt>
      <trkpt lat="42.01004" lon="19.28188">
        <ele>106.870098</ele>
        <time>2022-05-26T09:47:06.202Z</time>
      </trkpt>
      <trkpt lat="42.01002" lon="19.28176">
        <ele>107.547758</ele>
        <time>2022-05-26T09:47:11.204Z</time>
      </trkpt>
      <trkpt lat="42.01001" lon="19.28164">
        <ele>108.240429</ele>
        <time>2022-05-26T09:47:16.200Z</time>
      </trkpt>
      <trkpt lat="42.00999" lon="19.28151">
        <ele>108.940852</ele>
        <time>2022-05-26T09:47:21.204Z</time>
      </trkpt>
      <trkpt lat="42.00999" lon="19.28138">
        <ele>109.653183</ele>
        <time>2022-05-26T09:47:26.199Z</time>
      </trkpt>
      <trkpt lat="42.01001" lon="19.28125">
        <ele>110.378415</ele>
        <time>2022-05-26T09:47:31.204Z</time>
      </trkpt>
      <trkpt lat="42.01005" lon="19.28112">
        <ele>111.138789</ele>
        <time>2022-05-26T09:47:37.247Z</time>
      </trkpt>
      <trkpt lat="42.0101" lon="19.28101">
        <ele>111.836044</ele>
        <time>2022-05-26T09:47:42.212Z</time>
      </trkpt>
      <trkpt lat="42.01017" lon="19.2809">
        <ele>112.610144</ele>
        <time>2022-05-26T09:47:48.232Z</time>
      </trkpt>
      <trkpt lat="42.01023" lon="19.28079">
        <ele>113.375506</ele>
        <time>2022-05-26T09:47:54.201Z</time>
      </trkpt>
      <trkpt lat="42.01029" lon="19.28068">
        <ele>114.132568</ele>
        <time>2022-05-26T09:48:00.207Z</time>
      </trkpt>
      <trkpt lat="42.01034" lon="19.28056">
        <ele>114.868487</ele>
        <time>2022-05-26T09:48:06.209Z</time>
      </trkpt>
      <trkpt lat="42.01036" lon="19.28043">
        <ele>115.602843</ele>
        <time>2022-05-26T09:48:12.203Z</time>
      </trkpt>
      <trkpt lat="42.01036" lon="19.28029">
        <ele>116.348193</ele>
        <time>2022-05-26T09:48:18.204Z</time>
      </trkpt>
      <trkpt lat="42.01035" lon="19.28017">
        <ele>117.040861</ele>
        <time>2022-05-26T09:48:24.209Z</time>
      </trkpt>
      <trkpt lat="42.01031" lon="19.28004">
        <ele>117.794574</ele>
        <time>2022-05-26T09:48:31.211Z</time>
      </trkpt>
      <trkpt lat="42.01026" lon="19.27993">
        <ele>118.481447</ele>
        <time>2022-05-26T09:48:38.213Z</time>
      </trkpt>
      <trkpt lat="42.01021" lon="19.27981">
        <ele>119.199285</ele>
        <time>2022-05-26T09:48:43.207Z</time>
      </trkpt>
      <trkpt lat="42.01016" lon="19.2797">
        <ele>119.787972</ele>
        <time>2022-05-26T09:48:49.206Z</time>
      </trkpt>
      <trkpt lat="42.01012" lon="19.27959">
        <ele>120.368219</ele>
        <time>2022-05-26T09:48:55.209Z</time>
      </trkpt>
      <trkpt lat="42.01008" lon="19.27947">
        <ele>120.950829</ele>
        <time>2022-05-26T09:49:02.209Z</time>
      </trkpt>
      <trkpt lat="42.01007" lon="19.27935">
        <ele>121.518714</ele>
        <time>2022-05-26T09:49:08.240Z</time>
      </trkpt>
      <trkpt lat="42.01008" lon="19.27923">
        <ele>122.078396</ele>
        <time>2022-05-26T09:49:13.203Z</time>
      </trkpt>
      <trkpt lat="42.01009" lon="19.27909">
        <ele>122.739526</ele>
        <time>2022-05-26T09:49:19.208Z</time>
      </trkpt>
      <trkpt lat="42.01011" lon="19.27895">
        <ele>123.357547</ele>
        <time>2022-05-26T09:49:25.214Z</time>
      </trkpt>
      <trkpt lat="42.01014" lon="19.27882">
        <ele>123.99037</ele>
        <time>2022-05-26T09:49:31.209Z</time>
      </trkpt>
      <trkpt lat="42.01018" lon="19.27871">
        <ele>124.571952</ele>
        <time>2022-05-26T09:49:37.210Z</time>
      </trkpt>
      <trkpt lat="42.01022" lon="19.27859">
        <ele>125.161362</ele>
        <time>2022-05-26T09:49:43.204Z</time>
      </trkpt>
      <trkpt lat="42.01027" lon="19.2785">
        <ele>125.732564</ele>
        <time>2022-05-26T09:49:49.208Z</time>
      </trkpt>
      <trkpt lat="42.01035" lon="19.2784">
        <ele>126.36827</ele>
        <time>2022-05-26T09:49:55.201Z</time>
      </trkpt>
      <trkpt lat="42.01042" lon="19.27833">
        <ele>126.948943</ele>
        <time>2022-05-26T09:50:00.205Z</time>
      </trkpt>
      <trkpt lat="42.01052" lon="19.27826">
        <ele>127.617053</ele>
        <time>2022-05-26T09:50:07.227Z</time>
      </trkpt>
      <trkpt lat="42.0106" lon="19.2782">
        <ele>128.225041</ele>
        <time>2022-05-26T09:50:13.229Z</time>
      </trkpt>
      <trkpt lat="42.01069" lon="19.27811">
        <ele>128.893208</ele>
        <time>2022-05-26T09:50:20.206Z</time>
      </trkpt>
      <trkpt lat="42.01078" lon="19.27802">
        <ele>129.56093</ele>
        <time>2022-05-26T09:50:27.212Z</time>
      </trkpt>
      <trkpt lat="42.01085" lon="19.27793">
        <ele>130.049481</ele>
        <time>2022-05-26T09:50:33.212Z</time>
      </trkpt>
      <trkpt lat="42.01092" lon="19.27784">
        <ele>130.193884</ele>
        <time>2022-05-26T09:50:39.203Z</time>
      </trkpt>
      <trkpt lat="42.01098" lon="19.27774">
        <ele>130.329699</ele>
        <time>2022-05-26T09:50:44.211Z</time>
      </trkpt>
      <trkpt lat="42.01106" lon="19.27765">
        <ele>130.484429</ele>
        <time>2022-05-26T09:50:49.203Z</time>
      </trkpt>
      <trkpt lat="42.01114" lon="19.27755">
        <ele>130.639076</ele>
        <time>2022-05-26T09:50:54.209Z</time>
      </trkpt>
      <trkpt lat="42.01121" lon="19.27747">
        <ele>130.783924</ele>
        <time>2022-05-26T09:50:58.213Z</time>
      </trkpt>
      <trkpt lat="42.01129" lon="19.27738">
        <ele>130.93121</ele>
        <time>2022-05-26T09:51:02.211Z</time>
      </trkpt>
      <trkpt lat="42.01138" lon="19.27729">
        <ele>131.094423</ele>
        <time>2022-05-26T09:51:06.202Z</time>
      </trkpt>
      <trkpt lat="42.01146" lon="19.2772">
        <ele>131.251035</ele>
        <time>2022-05-26T09:51:10.215Z</time>
      </trkpt>
      <trkpt lat="42.01153" lon="19.27711">
        <ele>131.390099</ele>
        <time>2022-05-26T09:51:14.208Z</time>
      </trkpt>
      <trkpt lat="42.0116" lon="19.27701">
        <ele>131.535213</ele>
        <time>2022-05-26T09:51:17.206Z</time>
      </trkpt>
      <trkpt lat="42.01166" lon="19.27688">
        <ele>131.696058</ele>
        <time>2022-05-26T09:51:21.237Z</time>
      </trkpt>
      <trkpt lat="42.01171" lon="19.27677">
        <ele>131.840997</ele>
        <time>2022-05-26T09:51:25.214Z</time>
      </trkpt>
      <trkpt lat="42.01176" lon="19.27666">
        <ele>131.979669</ele>
        <time>2022-05-26T09:51:29.203Z</time>
      </trkpt>
      <trkpt lat="42.0118" lon="19.27655">
        <ele>132.1167</ele>
        <time>2022-05-26T09:51:33.233Z</time>
      </trkpt>
      <trkpt lat="42.01184" lon="19.27644">
        <ele>132.249496</ele>
        <time>2022-05-26T09:51:37.206Z</time>
      </trkpt>
      <trkpt lat="42.01188" lon="19.27633">
        <ele>132.384235</ele>
        <time>2022-05-26T09:51:42.207Z</time>
      </trkpt>
      <trkpt lat="42.01192" lon="19.27621">
        <ele>132.52164</ele>
        <time>2022-05-26T09:51:47.209Z</time>
      </trkpt>
      <trkpt lat="42.01196" lon="19.2761">
        <ele>132.676259</ele>
        <time>2022-05-26T09:51:52.211Z</time>
      </trkpt>
      <trkpt lat="42.01199" lon="19.27599">
        <ele>132.936749</ele>
        <time>2022-05-26T09:51:57.210Z</time>
      </trkpt>
      <trkpt lat="42.01204" lon="19.27586">
        <ele>133.235417</ele>
        <time>2022-05-26T09:52:03.207Z</time>
      </trkpt>
      <trkpt lat="42.01208" lon="19.27574">
        <ele>133.525148</ele>
        <time>2022-05-26T09:52:08.220Z</time>
      </trkpt>
      <trkpt lat="42.01212" lon="19.27562">
        <ele>133.806548</ele>
        <time>2022-05-26T09:52:13.203Z</time>
      </trkpt>
      <trkpt lat="42.01217" lon="19.27549">
        <ele>134.111523</ele>
        <time>2022-05-26T09:52:19.204Z</time>
      </trkpt>
      <trkpt lat="42.01221" lon="19.27537">
        <ele>134.403183</ele>
        <time>2022-05-26T09:52:25.203Z</time>
      </trkpt>
      <trkpt lat="42.01225" lon="19.27525">
        <ele>134.664119</ele>
        <time>2022-05-26T09:52:31.203Z</time>
      </trkpt>
      <trkpt lat="42.01229" lon="19.27514">
        <ele>134.938624</ele>
        <time>2022-05-26T09:52:36.210Z</time>
      </trkpt>
      <trkpt lat="42.01233" lon="19.27501">
        <ele>135.230665</ele>
        <time>2022-05-26T09:52:41.213Z</time>
      </trkpt>
      <trkpt lat="42.01237" lon="19.27489">
        <ele>135.519186</ele>
        <time>2022-05-26T09:52:46.219Z</time>
      </trkpt>
      <trkpt lat="42.01241" lon="19.27477">
        <ele>135.803406</ele>
        <time>2022-05-26T09:52:51.204Z</time>
      </trkpt>
      <trkpt lat="42.01245" lon="19.27464">
        <ele>136.093864</ele>
        <time>2022-05-26T09:52:57.233Z</time>
      </trkpt>
      <trkpt lat="42.01249" lon="19.27452">
        <ele>136.370306</ele>
        <time>2022-05-26T09:53:02.206Z</time>
      </trkpt>
      <trkpt lat="42.01254" lon="19.2744">
        <ele>136.669527</ele>
        <time>2022-05-26T09:53:07.202Z</time>
      </trkpt>
      <trkpt lat="42.01259" lon="19.27427">
        <ele>136.982757</ele>
        <time>2022-05-26T09:53:12.221Z</time>
      </trkpt>
      <trkpt lat="42.01264" lon="19.27413">
        <ele>137.302059</ele>
        <time>2022-05-26T09:53:17.204Z</time>
      </trkpt>
      <trkpt lat="42.01269" lon="19.27401">
        <ele>137.610663</ele>
        <time>2022-05-26T09:53:22.205Z</time>
      </trkpt>
      <trkpt lat="42.01274" lon="19.27389">
        <ele>137.85963</ele>
        <time>2022-05-26T09:53:27.223Z</time>
      </trkpt>
      <trkpt lat="42.01279" lon="19.27377">
        <ele>138.045893</ele>
        <time>2022-05-26T09:53:32.223Z</time>
      </trkpt>
      <trkpt lat="42.01283" lon="19.27366">
        <ele>138.226025</ele>
        <time>2022-05-26T09:53:37.231Z</time>
      </trkpt>
      <trkpt lat="42.01289" lon="19.27353">
        <ele>138.435184</ele>
        <time>2022-05-26T09:53:43.229Z</time>
      </trkpt>
      <trkpt lat="42.01293" lon="19.27342">
        <ele>138.610237</ele>
        <time>2022-05-26T09:53:47.200Z</time>
      </trkpt>
      <trkpt lat="42.01299" lon="19.27329">
        <ele>138.814023</ele>
        <time>2022-05-26T09:53:52.201Z</time>
      </trkpt>
      <trkpt lat="42.01303" lon="19.27317">
        <ele>138.992391</ele>
        <time>2022-05-26T09:53:56.215Z</time>
      </trkpt>
      <trkpt lat="42.01307" lon="19.27306">
        <ele>139.172396</ele>
        <time>2022-05-26T09:54:00.204Z</time>
      </trkpt>
      <trkpt lat="42.01311" lon="19.27294">
        <ele>139.353756</ele>
        <time>2022-05-26T09:54:04.213Z</time>
      </trkpt>
      <trkpt lat="42.01314" lon="19.27282">
        <ele>139.522995</ele>
        <time>2022-05-26T09:54:08.201Z</time>
      </trkpt>
      <trkpt lat="42.01317" lon="19.27269">
        <ele>139.717988</ele>
        <time>2022-05-26T09:54:13.203Z</time>
      </trkpt>
      <trkpt lat="42.01318" lon="19.27255">
        <ele>139.907069</ele>
        <time>2022-05-26T09:54:18.217Z</time>
      </trkpt>
      <trkpt lat="42.0132" lon="19.27241">
        <ele>140.103218</ele>
        <time>2022-05-26T09:54:23.233Z</time>
      </trkpt>
      <trkpt lat="42.0132" lon="19.27229">
        <ele>140.271397</ele>
        <time>2022-05-26T09:54:28.214Z</time>
      </trkpt>
      <trkpt lat="42.0132" lon="19.27216">
        <ele>140.450529</ele>
        <time>2022-05-26T09:54:34.203Z</time>
      </trkpt>
      <trkpt lat="42.01321" lon="19.27203">
        <ele>140.629894</ele>
        <time>2022-05-26T09:54:40.212Z</time>
      </trkpt>
      <trkpt lat="42.01322" lon="19.27191">
        <ele>140.803296</ele>
        <time>2022-05-26T09:54:46.201Z</time>
      </trkpt>
      <trkpt lat="42.01324" lon="19.27179">
        <ele>140.97638</ele>
        <time>2022-05-26T09:54:51.206Z</time>
      </trkpt>
      <trkpt lat="42.01326" lon="19.27165">
        <ele>141.165003</ele>
        <time>2022-05-26T09:54:57.205Z</time>
      </trkpt>
      <trkpt lat="42.01329" lon="19.27153">
        <ele>141.261088</ele>
        <time>2022-05-26T09:55:02.205Z</time>
      </trkpt>
      <trkpt lat="42.01331" lon="19.2714">
        <ele>141.372807</ele>
        <time>2022-05-26T09:55:08.216Z</time>
      </trkpt>
      <trkpt lat="42.01334" lon="19.27128">
        <ele>141.470395</ele>
        <time>2022-05-26T09:55:13.209Z</time>
      </trkpt>
      <trkpt lat="42.01338" lon="19.27116">
        <ele>141.571711</ele>
        <time>2022-05-26T09:55:17.202Z</time>
      </trkpt>
      <trkpt lat="42.01341" lon="19.27105">
        <ele>141.667488</ele>
        <time>2022-05-26T09:55:20.224Z</time>
      </trkpt>
      <trkpt lat="42.01346" lon="19.27093">
        <ele>141.77393</ele>
        <time>2022-05-26T09:55:23.204Z</time>
      </trkpt>
      <trkpt lat="42.0135" lon="19.2708">
        <ele>141.883547</ele>
        <time>2022-05-26T09:55:26.210Z</time>
      </trkpt>
      <trkpt lat="42.01353" lon="19.27067">
        <ele>141.998569</ele>
        <time>2022-05-26T09:55:29.205Z</time>
      </trkpt>
      <trkpt lat="42.01358" lon="19.27053">
        <ele>142.11975</ele>
        <time>2022-05-26T09:55:32.199Z</time>
      </trkpt>
      <trkpt lat="42.01362" lon="19.27041">
        <ele>142.225028</ele>
        <time>2022-05-26T09:55:35.216Z</time>
      </trkpt>
      <trkpt lat="42.01367" lon="19.27026">
        <ele>142.350408</ele>
        <time>2022-05-26T09:55:38.203Z</time>
      </trkpt>
      <trkpt lat="42.01371" lon="19.27015">
        <ele>142.449041</ele>
        <time>2022-05-26T09:55:40.212Z</time>
      </trkpt>
      <trkpt lat="42.01374" lon="19.27003">
        <ele>142.546688</ele>
        <time>2022-05-26T09:55:42.209Z</time>
      </trkpt>
      <trkpt lat="42.01378" lon="19.26992">
        <ele>142.645767</ele>
        <time>2022-05-26T09:55:44.213Z</time>
      </trkpt>
      <trkpt lat="42.01382" lon="19.26975">
        <ele>142.786394</ele>
        <time>2022-05-26T09:55:47.204Z</time>
      </trkpt>
      <trkpt lat="42.01386" lon="19.2696">
        <ele>142.91594</ele>
        <time>2022-05-26T09:55:50.213Z</time>
      </trkpt>
      <trkpt lat="42.01389" lon="19.26947">
        <ele>143.020986</ele>
        <time>2022-05-26T09:55:53.203Z</time>
      </trkpt>
      <trkpt lat="42.01391" lon="19.26933">
        <ele>143.076408</ele>
        <time>2022-05-26T09:55:56.209Z</time>
      </trkpt>
      <trkpt lat="42.01395" lon="19.26921">
        <ele>143.083129</ele>
        <time>2022-05-26T09:55:59.203Z</time>
      </trkpt>
      <trkpt lat="42.014" lon="19.26908">
        <ele>143.090006</ele>
        <time>2022-05-26T09:56:02.208Z</time>
      </trkpt>
      <trkpt lat="42.01405" lon="19.26896">
        <ele>143.096912</ele>
        <time>2022-05-26T09:56:05.209Z</time>
      </trkpt>
      <trkpt lat="42.01412" lon="19.26885">
        <ele>143.104167</ele>
        <time>2022-05-26T09:56:08.207Z</time>
      </trkpt>
      <trkpt lat="42.01422" lon="19.26873">
        <ele>143.11272</ele>
        <time>2022-05-26T09:56:11.208Z</time>
      </trkpt>
      <trkpt lat="42.01433" lon="19.26861">
        <ele>143.121723</ele>
        <time>2022-05-26T09:56:14.229Z</time>
      </trkpt>
      <trkpt lat="42.0144" lon="19.26853">
        <ele>143.128078</ele>
        <time>2022-05-26T09:56:16.203Z</time>
      </trkpt>
      <trkpt lat="42.01447" lon="19.26845">
        <ele>143.134238</ele>
        <time>2022-05-26T09:56:18.222Z</time>
      </trkpt>
      <trkpt lat="42.01456" lon="19.26833">
        <ele>143.142476</ele>
        <time>2022-05-26T09:56:21.212Z</time>
      </trkpt>
      <trkpt lat="42.01462" lon="19.26821">
        <ele>143.149572</ele>
        <time>2022-05-26T09:56:24.224Z</time>
      </trkpt>
      <trkpt lat="42.01467" lon="19.26807">
        <ele>143.156976</ele>
        <time>2022-05-26T09:56:27.201Z</time>
      </trkpt>
      <trkpt lat="42.01471" lon="19.2679">
        <ele>143.165622</ele>
        <time>2022-05-26T09:56:30.199Z</time>
      </trkpt>
      <trkpt lat="42.01473" lon="19.26777">
        <ele>143.172108</ele>
        <time>2022-05-26T09:56:32.219Z</time>
      </trkpt>
      <trkpt lat="42.01474" lon="19.26763">
        <ele>143.179143</ele>
        <time>2022-05-26T09:56:34.207Z</time>
      </trkpt>
      <trkpt lat="42.01475" lon="19.26748">
        <ele>143.186121</ele>
        <time>2022-05-26T09:56:36.203Z</time>
      </trkpt>
      <trkpt lat="42.01476" lon="19.26736">
        <ele>143.195992</ele>
        <time>2022-05-26T09:56:38.211Z</time>
      </trkpt>
      <trkpt lat="42.01478" lon="19.26723">
        <ele>143.218346</ele>
        <time>2022-05-26T09:56:40.201Z</time>
      </trkpt>
      <trkpt lat="42.0148" lon="19.26706">
        <ele>143.247977</ele>
        <time>2022-05-26T09:56:43.203Z</time>
      </trkpt>
      <trkpt lat="42.01482" lon="19.26691">
        <ele>143.274409</ele>
        <time>2022-05-26T09:56:46.214Z</time>
      </trkpt>
      <trkpt lat="42.01485" lon="19.26677">
        <ele>143.298571</ele>
        <time>2022-05-26T09:56:49.208Z</time>
      </trkpt>
      <trkpt lat="42.01488" lon="19.26664">
        <ele>143.322772</ele>
        <time>2022-05-26T09:56:52.211Z</time>
      </trkpt>
      <trkpt lat="42.01492" lon="19.26652">
        <ele>143.345795</ele>
        <time>2022-05-26T09:56:55.201Z</time>
      </trkpt>
      <trkpt lat="42.01496" lon="19.26641">
        <ele>143.366653</ele>
        <time>2022-05-26T09:56:58.210Z</time>
      </trkpt>
      <trkpt lat="42.01501" lon="19.26628">
        <ele>143.390176</ele>
        <time>2022-05-26T09:57:02.217Z</time>
      </trkpt>
      <trkpt lat="42.01506" lon="19.26616">
        <ele>143.414299</ele>
        <time>2022-05-26T09:57:07.216Z</time>
      </trkpt>
      <trkpt lat="42.01511" lon="19.26603">
        <ele>143.439424</ele>
        <time>2022-05-26T09:57:12.203Z</time>
      </trkpt>
      <trkpt lat="42.01516" lon="19.26591">
        <ele>143.463512</ele>
        <time>2022-05-26T09:57:16.225Z</time>
      </trkpt>
      <trkpt lat="42.01519" lon="19.26579">
        <ele>143.484974</ele>
        <time>2022-05-26T09:57:20.220Z</time>
      </trkpt>
      <trkpt lat="42.0152" lon="19.26566">
        <ele>143.507424</ele>
        <time>2022-05-26T09:57:24.212Z</time>
      </trkpt>
      <trkpt lat="42.0152" lon="19.26552">
        <ele>143.531152</ele>
        <time>2022-05-26T09:57:28.212Z</time>
      </trkpt>
      <trkpt lat="42.01518" lon="19.26539">
        <ele>143.554777</ele>
        <time>2022-05-26T09:57:32.210Z</time>
      </trkpt>
      <trkpt lat="42.01513" lon="19.26526">
        <ele>143.580314</ele>
        <time>2022-05-26T09:57:36.209Z</time>
      </trkpt>
      <trkpt lat="42.01507" lon="19.26515">
        <ele>143.603363</ele>
        <time>2022-05-26T09:57:39.208Z</time>
      </trkpt>
      <trkpt lat="42.01499" lon="19.26505">
        <ele>144.194996</ele>
        <time>2022-05-26T09:57:42.217Z</time>
      </trkpt>
      <trkpt lat="42.01488" lon="19.26497">
        <ele>144.928682</ele>
        <time>2022-05-26T09:57:45.215Z</time>
      </trkpt>
      <trkpt lat="42.01477" lon="19.26492">
        <ele>145.659579</ele>
        <time>2022-05-26T09:57:48.221Z</time>
      </trkpt>
      <trkpt lat="42.01466" lon="19.26488">
        <ele>146.376299</ele>
        <time>2022-05-26T09:57:51.205Z</time>
      </trkpt>
      <trkpt lat="42.01455" lon="19.26484">
        <ele>147.094133</ele>
        <time>2022-05-26T09:57:54.208Z</time>
      </trkpt>
      <trkpt lat="42.01444" lon="19.2648">
        <ele>147.805462</ele>
        <time>2022-05-26T09:57:57.205Z</time>
      </trkpt>
      <trkpt lat="42.01435" lon="19.26472">
        <ele>148.465505</ele>
        <time>2022-05-26T09:58:00.201Z</time>
      </trkpt>
      <trkpt lat="42.01429" lon="19.26463">
        <ele>149.055074</ele>
        <time>2022-05-26T09:58:03.215Z</time>
      </trkpt>
      <trkpt lat="42.01423" lon="19.26451">
        <ele>149.689564</ele>
        <time>2022-05-26T09:58:07.201Z</time>
      </trkpt>
      <trkpt lat="42.0142" lon="19.26439">
        <ele>150.27827</ele>
        <time>2022-05-26T09:58:12.213Z</time>
      </trkpt>
      <trkpt lat="42.01418" lon="19.26427">
        <ele>150.868508</ele>
        <time>2022-05-26T09:58:17.229Z</time>
      </trkpt>
      <trkpt lat="42.01415" lon="19.26412">
        <ele>151.576872</ele>
        <time>2022-05-26T09:58:22.220Z</time>
      </trkpt>
      <trkpt lat="42.01413" lon="19.264">
        <ele>152.152447</ele>
        <time>2022-05-26T09:58:26.209Z</time>
      </trkpt>
      <trkpt lat="42.01411" lon="19.26387">
        <ele>152.738351</ele>
        <time>2022-05-26T09:58:30.209Z</time>
      </trkpt>
      <trkpt lat="42.0141" lon="19.26372">
        <ele>153.433229</ele>
        <time>2022-05-26T09:58:35.252Z</time>
      </trkpt>
      <trkpt lat="42.0141" lon="19.26357">
        <ele>154.125963</ele>
        <time>2022-05-26T09:58:40.222Z</time>
      </trkpt>
      <trkpt lat="42.01411" lon="19.26345">
        <ele>154.687471</ele>
        <time>2022-05-26T09:58:44.260Z</time>
      </trkpt>
      <trkpt lat="42.01412" lon="19.26331">
        <ele>155.106731</ele>
        <time>2022-05-26T09:58:49.212Z</time>
      </trkpt>
      <trkpt lat="42.01412" lon="19.26316">
        <ele>155.487369</ele>
        <time>2022-05-26T09:58:54.208Z</time>
      </trkpt>
      <trkpt lat="42.01413" lon="19.26304">
        <ele>155.806499</ele>
        <time>2022-05-26T09:58:58.224Z</time>
      </trkpt>
      <trkpt lat="42.01412" lon="19.2629">
        <ele>156.175806</ele>
        <time>2022-05-26T09:59:04.212Z</time>
      </trkpt>
      <trkpt lat="42.01409" lon="19.26278">
        <ele>156.527086</ele>
        <time>2022-05-26T09:59:09.224Z</time>
      </trkpt>
      <trkpt lat="42.01405" lon="19.26266">
        <ele>156.87198</ele>
        <time>2022-05-26T09:59:14.209Z</time>
      </trkpt>
      <trkpt lat="42.01401" lon="19.26254">
        <ele>157.220685</ele>
        <time>2022-05-26T09:59:19.211Z</time>
      </trkpt>
      <trkpt lat="42.01398" lon="19.26242">
        <ele>157.553153</ele>
        <time>2022-05-26T09:59:24.220Z</time>
      </trkpt>
      <trkpt lat="42.01395" lon="19.2623">
        <ele>157.880585</ele>
        <time>2022-05-26T09:59:29.197Z</time>
      </trkpt>
      <trkpt lat="42.01393" lon="19.26217">
        <ele>158.227369</ele>
        <time>2022-05-26T09:59:34.213Z</time>
      </trkpt>
      <trkpt lat="42.01392" lon="19.26203">
        <ele>158.603351</ele>
        <time>2022-05-26T09:59:39.217Z</time>
      </trkpt>
      <trkpt lat="42.01391" lon="19.26189">
        <ele>158.962475</ele>
        <time>2022-05-26T09:59:44.200Z</time>
      </trkpt>
      <trkpt lat="42.01391" lon="19.26176">
        <ele>159.305225</ele>
        <time>2022-05-26T09:59:49.220Z</time>
      </trkpt>
      <trkpt lat="42.0139" lon="19.26164">
        <ele>159.637528</ele>
        <time>2022-05-26T09:59:54.218Z</time>
      </trkpt>
      <trkpt lat="42.01391" lon="19.26149">
        <ele>160.030304</ele>
        <time>2022-05-26T10:00:00.212Z</time>
      </trkpt>
      <trkpt lat="42.01392" lon="19.26136">
        <ele>160.376561</ele>
        <time>2022-05-26T10:00:05.226Z</time>
      </trkpt>
      <trkpt lat="42.01393" lon="19.26123">
        <ele>160.726692</ele>
        <time>2022-05-26T10:00:10.211Z</time>
      </trkpt>
      <trkpt lat="42.01395" lon="19.2611">
        <ele>161.068267</ele>
        <time>2022-05-26T10:00:15.207Z</time>
      </trkpt>
      <trkpt lat="42.01396" lon="19.26096">
        <ele>161.399302</ele>
        <time>2022-05-26T10:00:20.213Z</time>
      </trkpt>
      <trkpt lat="42.01398" lon="19.26082">
        <ele>161.710699</ele>
        <time>2022-05-26T10:00:25.205Z</time>
      </trkpt>
      <trkpt lat="42.01401" lon="19.26069">
        <ele>162.014143</ele>
        <time>2022-05-26T10:00:30.200Z</time>
      </trkpt>
      <trkpt lat="42.01403" lon="19.26055">
        <ele>162.322605</ele>
        <time>2022-05-26T10:00:35.203Z</time>
      </trkpt>
      <trkpt lat="42.01405" lon="19.26042">
        <ele>162.627802</ele>
        <time>2022-05-26T10:00:40.231Z</time>
      </trkpt>
      <trkpt lat="42.01407" lon="19.26029">
        <ele>162.911204</ele>
        <time>2022-05-26T10:00:45.200Z</time>
      </trkpt>
      <trkpt lat="42.01409" lon="19.26017">
        <ele>163.198166</ele>
        <time>2022-05-26T10:00:50.207Z</time>
      </trkpt>
      <trkpt lat="42.01412" lon="19.26003">
        <ele>163.523338</ele>
        <time>2022-05-26T10:00:55.205Z</time>
      </trkpt>
      <trkpt lat="42.01415" lon="19.25991">
        <ele>163.797749</ele>
        <time>2022-05-26T10:00:59.223Z</time>
      </trkpt>
      <trkpt lat="42.01418" lon="19.25977">
        <ele>164.124614</ele>
        <time>2022-05-26T10:01:04.212Z</time>
      </trkpt>
      <trkpt lat="42.0142" lon="19.25964">
        <ele>164.409661</ele>
        <time>2022-05-26T10:01:09.201Z</time>
      </trkpt>
      <trkpt lat="42.01421" lon="19.25952">
        <ele>164.688396</ele>
        <time>2022-05-26T10:01:14.200Z</time>
      </trkpt>
      <trkpt lat="42.0142" lon="19.25939">
        <ele>164.966828</ele>
        <time>2022-05-26T10:01:19.203Z</time>
      </trkpt>
      <trkpt lat="42.01418" lon="19.25926">
        <ele>165.255651</ele>
        <time>2022-05-26T10:01:24.220Z</time>
      </trkpt>
      <trkpt lat="42.01416" lon="19.25914">
        <ele>165.546184</ele>
        <time>2022-05-26T10:01:29.203Z</time>
      </trkpt>
      <trkpt lat="42.01413" lon="19.25901">
        <ele>165.836247</ele>
        <time>2022-05-26T10:01:34.212Z</time>
      </trkpt>
      <trkpt lat="42.01408" lon="19.25888">
        <ele>166.163084</ele>
        <time>2022-05-26T10:01:39.198Z</time>
      </trkpt>
      <trkpt lat="42.01408" lon="19.25874">
        <ele>166.460172</ele>
        <time>2022-05-26T10:01:43.201Z</time>
      </trkpt>
      <trkpt lat="42.01411" lon="19.25862">
        <ele>166.759306</ele>
        <time>2022-05-26T10:01:47.213Z</time>
      </trkpt>
      <trkpt lat="42.01414" lon="19.25848">
        <ele>167.113176</ele>
        <time>2022-05-26T10:01:52.212Z</time>
      </trkpt>
      <trkpt lat="42.01417" lon="19.25834">
        <ele>167.473021</ele>
        <time>2022-05-26T10:01:57.206Z</time>
      </trkpt>
      <trkpt lat="42.0142" lon="19.25821">
        <ele>167.790141</ele>
        <time>2022-05-26T10:02:02.206Z</time>
      </trkpt>
      <trkpt lat="42.01423" lon="19.25807">
        <ele>168.148633</ele>
        <time>2022-05-26T10:02:07.217Z</time>
      </trkpt>
      <trkpt lat="42.01426" lon="19.25794">
        <ele>168.479726</ele>
        <time>2022-05-26T10:02:12.216Z</time>
      </trkpt>
      <trkpt lat="42.0143" lon="19.25781">
        <ele>168.828753</ele>
        <time>2022-05-26T10:02:17.213Z</time>
      </trkpt>
      <trkpt lat="42.01433" lon="19.25767">
        <ele>169.18396</ele>
        <time>2022-05-26T10:02:22.218Z</time>
      </trkpt>
      <trkpt lat="42.01436" lon="19.25753">
        <ele>169.53528</ele>
        <time>2022-05-26T10:02:27.199Z</time>
      </trkpt>
      <trkpt lat="42.01439" lon="19.25741">
        <ele>169.851315</ele>
        <time>2022-05-26T10:02:32.209Z</time>
      </trkpt>
      <trkpt lat="42.01442" lon="19.25727">
        <ele>170.202327</ele>
        <time>2022-05-26T10:02:37.207Z</time>
      </trkpt>
      <trkpt lat="42.01445" lon="19.25715">
        <ele>170.50406</ele>
        <time>2022-05-26T10:02:42.209Z</time>
      </trkpt>
      <trkpt lat="42.01448" lon="19.25703">
        <ele>170.818909</ele>
        <time>2022-05-26T10:02:47.212Z</time>
      </trkpt>
      <trkpt lat="42.01451" lon="19.2569">
        <ele>171.150388</ele>
        <time>2022-05-26T10:02:52.208Z</time>
      </trkpt>
      <trkpt lat="42.01454" lon="19.25678">
        <ele>171.455403</ele>
        <time>2022-05-26T10:02:57.201Z</time>
      </trkpt>
      <trkpt lat="42.01455" lon="19.25665">
        <ele>171.768655</ele>
        <time>2022-05-26T10:03:03.210Z</time>
      </trkpt>
      <trkpt lat="42.01457" lon="19.25651">
        <ele>172.103696</ele>
        <time>2022-05-26T10:03:08.231Z</time>
      </trkpt>
      <trkpt lat="42.01458" lon="19.25638">
        <ele>172.432945</ele>
        <time>2022-05-26T10:03:13.206Z</time>
      </trkpt>
      <trkpt lat="42.01461" lon="19.25624">
        <ele>173.010856</ele>
        <time>2022-05-26T10:03:18.205Z</time>
      </trkpt>
      <trkpt lat="42.01464" lon="19.25612">
        <ele>173.504176</ele>
        <time>2022-05-26T10:03:23.205Z</time>
      </trkpt>
      <trkpt lat="42.01467" lon="19.25601">
        <ele>173.981397</ele>
        <time>2022-05-26T10:03:28.207Z</time>
      </trkpt>
      <trkpt lat="42.01471" lon="19.25589">
        <ele>174.492832</ele>
        <time>2022-05-26T10:03:33.208Z</time>
      </trkpt>
      <trkpt lat="42.01475" lon="19.25577">
        <ele>174.978088</ele>
        <time>2022-05-26T10:03:38.201Z</time>
      </trkpt>
      <trkpt lat="42.01479" lon="19.25565">
        <ele>175.494632</ele>
        <time>2022-05-26T10:03:43.198Z</time>
      </trkpt>
      <trkpt lat="42.01482" lon="19.25552">
        <ele>176.051034</ele>
        <time>2022-05-26T10:03:49.206Z</time>
      </trkpt>
      <trkpt lat="42.01486" lon="19.2554">
        <ele>176.539906</ele>
        <time>2022-05-26T10:03:54.208Z</time>
      </trkpt>
      <trkpt lat="42.01489" lon="19.25527">
        <ele>177.083724</ele>
        <time>2022-05-26T10:03:59.201Z</time>
      </trkpt>
      <trkpt lat="42.01492" lon="19.25513">
        <ele>177.635844</ele>
        <time>2022-05-26T10:04:06.219Z</time>
      </trkpt>
      <trkpt lat="42.01495" lon="19.255">
        <ele>178.182313</ele>
        <time>2022-05-26T10:04:12.206Z</time>
      </trkpt>
      <trkpt lat="42.01498" lon="19.25486">
        <ele>178.753582</ele>
        <time>2022-05-26T10:04:18.213Z</time>
      </trkpt>
      <trkpt lat="42.015" lon="19.25473">
        <ele>179.261485</ele>
        <time>2022-05-26T10:04:23.201Z</time>
      </trkpt>
      <trkpt lat="42.01503" lon="19.25461">
        <ele>179.778123</ele>
        <time>2022-05-26T10:04:28.213Z</time>
      </trkpt>
      <trkpt lat="42.01505" lon="19.25448">
        <ele>180.268671</ele>
        <time>2022-05-26T10:04:32.209Z</time>
      </trkpt>
      <trkpt lat="42.01507" lon="19.25435">
        <ele>180.784084</ele>
        <time>2022-05-26T10:04:37.237Z</time>
      </trkpt>
      <trkpt lat="42.01507" lon="19.25421">
        <ele>181.342677</ele>
        <time>2022-05-26T10:04:42.205Z</time>
      </trkpt>
      <trkpt lat="42.01505" lon="19.25407">
        <ele>181.910355</ele>
        <time>2022-05-26T10:04:48.234Z</time>
      </trkpt>
      <trkpt lat="42.01501" lon="19.25393">
        <ele>182.434339</ele>
        <time>2022-05-26T10:04:54.208Z</time>
      </trkpt>
      <trkpt lat="42.015" lon="19.25379">
        <ele>182.942258</ele>
        <time>2022-05-26T10:04:59.234Z</time>
      </trkpt>
      <trkpt lat="42.01502" lon="19.25365">
        <ele>183.44507</ele>
        <time>2022-05-26T10:05:04.206Z</time>
      </trkpt>
      <trkpt lat="42.01504" lon="19.25353">
        <ele>183.882723</ele>
        <time>2022-05-26T10:05:08.223Z</time>
      </trkpt>
      <trkpt lat="42.01506" lon="19.25341">
        <ele>184.333647</ele>
        <time>2022-05-26T10:05:13.203Z</time>
      </trkpt>
      <trkpt lat="42.01508" lon="19.25327">
        <ele>184.840328</ele>
        <time>2022-05-26T10:05:18.202Z</time>
      </trkpt>
      <trkpt lat="42.0151" lon="19.25314">
        <ele>185.317602</ele>
        <time>2022-05-26T10:05:23.240Z</time>
      </trkpt>
      <trkpt lat="42.01512" lon="19.253">
        <ele>185.816891</ele>
        <time>2022-05-26T10:05:28.225Z</time>
      </trkpt>
      <trkpt lat="42.01514" lon="19.25287">
        <ele>186.284521</ele>
        <time>2022-05-26T10:05:33.217Z</time>
      </trkpt>
      <trkpt lat="42.01516" lon="19.25274">
        <ele>186.783809</ele>
        <time>2022-05-26T10:05:38.202Z</time>
      </trkpt>
      <trkpt lat="42.01517" lon="19.25261">
        <ele>187.245434</ele>
        <time>2022-05-26T10:05:43.214Z</time>
      </trkpt>
      <trkpt lat="42.01519" lon="19.25248">
        <ele>187.723047</ele>
        <time>2022-05-26T10:05:48.204Z</time>
      </trkpt>
      <trkpt lat="42.01521" lon="19.25234">
        <ele>188.237587</ele>
        <time>2022-05-26T10:05:53.211Z</time>
      </trkpt>
      <trkpt lat="42.01522" lon="19.2522">
        <ele>188.748585</ele>
        <time>2022-05-26T10:05:58.205Z</time>
      </trkpt>
      <trkpt lat="42.01524" lon="19.25207">
        <ele>189.206651</ele>
        <time>2022-05-26T10:06:03.202Z</time>
      </trkpt>
      <trkpt lat="42.01526" lon="19.25195">
        <ele>189.649453</ele>
        <time>2022-05-26T10:06:08.207Z</time>
      </trkpt>
      <trkpt lat="42.01527" lon="19.25182">
        <ele>190.131391</ele>
        <time>2022-05-26T10:06:13.203Z</time>
      </trkpt>
      <trkpt lat="42.01527" lon="19.25168">
        <ele>190.581652</ele>
        <time>2022-05-26T10:06:18.226Z</time>
      </trkpt>
      <trkpt lat="42.01524" lon="19.25155">
        <ele>190.901432</ele>
        <time>2022-05-26T10:06:23.209Z</time>
      </trkpt>
      <trkpt lat="42.01519" lon="19.25142">
        <ele>191.225291</ele>
        <time>2022-05-26T10:06:27.201Z</time>
      </trkpt>
      <trkpt lat="42.01513" lon="19.25131">
        <ele>191.534579</ele>
        <time>2022-05-26T10:06:31.203Z</time>
      </trkpt>
      <trkpt lat="42.01509" lon="19.2512">
        <ele>191.820965</ele>
        <time>2022-05-26T10:06:35.226Z</time>
      </trkpt>
      <trkpt lat="42.01502" lon="19.25108">
        <ele>192.164305</ele>
        <time>2022-05-26T10:06:40.212Z</time>
      </trkpt>
      <trkpt lat="42.01497" lon="19.25094">
        <ele>192.495859</ele>
        <time>2022-05-26T10:06:44.204Z</time>
      </trkpt>
      <trkpt lat="42.01495" lon="19.25081">
        <ele>192.812925</ele>
        <time>2022-05-26T10:06:48.203Z</time>
      </trkpt>
      <trkpt lat="42.01493" lon="19.25068">
        <ele>193.111156</ele>
        <time>2022-05-26T10:06:52.222Z</time>
      </trkpt>
      <trkpt lat="42.01491" lon="19.25054">
        <ele>193.432789</ele>
        <time>2022-05-26T10:06:57.199Z</time>
      </trkpt>
      <trkpt lat="42.01488" lon="19.2504">
        <ele>193.76907</ele>
        <time>2022-05-26T10:07:03.200Z</time>
      </trkpt>
      <trkpt lat="42.01484" lon="19.25027">
        <ele>194.079164</ele>
        <time>2022-05-26T10:07:07.209Z</time>
      </trkpt>
      <trkpt lat="42.0148" lon="19.25015">
        <ele>194.376024</ele>
        <time>2022-05-26T10:07:11.220Z</time>
      </trkpt>
      <trkpt lat="42.01476" lon="19.25003">
        <ele>194.671003</ele>
        <time>2022-05-26T10:07:15.229Z</time>
      </trkpt>
      <trkpt lat="42.01474" lon="19.24989">
        <ele>194.991076</ele>
        <time>2022-05-26T10:07:20.204Z</time>
      </trkpt>
      <trkpt lat="42.01473" lon="19.24976">
        <ele>195.280441</ele>
        <time>2022-05-26T10:07:24.215Z</time>
      </trkpt>
      <trkpt lat="42.01472" lon="19.24962">
        <ele>195.600254</ele>
        <time>2022-05-26T10:07:28.215Z</time>
      </trkpt>
      <trkpt lat="42.01471" lon="19.24949">
        <ele>195.900536</ele>
        <time>2022-05-26T10:07:32.198Z</time>
      </trkpt>
      <trkpt lat="42.0147" lon="19.24937">
        <ele>196.262202</ele>
        <time>2022-05-26T10:07:37.205Z</time>
      </trkpt>
      <trkpt lat="42.01469" lon="19.24924">
        <ele>196.681582</ele>
        <time>2022-05-26T10:07:41.212Z</time>
      </trkpt>
      <trkpt lat="42.0147" lon="19.24909">
        <ele>197.169643</ele>
        <time>2022-05-26T10:07:46.209Z</time>
      </trkpt>
      <trkpt lat="42.01469" lon="19.24896">
        <ele>197.605488</ele>
        <time>2022-05-26T10:07:51.206Z</time>
      </trkpt>
      <trkpt lat="42.01468" lon="19.24883">
        <ele>198.029069</ele>
        <time>2022-05-26T10:07:56.210Z</time>
      </trkpt>
      <trkpt lat="42.01468" lon="19.2487">
        <ele>198.464371</ele>
        <time>2022-05-26T10:08:01.228Z</time>
      </trkpt>
      <trkpt lat="42.01468" lon="19.24857">
        <ele>198.889967</ele>
        <time>2022-05-26T10:08:06.215Z</time>
      </trkpt>
      <trkpt lat="42.01469" lon="19.24843">
        <ele>199.358307</ele>
        <time>2022-05-26T10:08:12.220Z</time>
      </trkpt>
      <trkpt lat="42.01469" lon="19.2483">
        <ele>199.797692</ele>
        <time>2022-05-26T10:08:17.205Z</time>
      </trkpt>
      <trkpt lat="42.01471" lon="19.24817">
        <ele>200.229015</ele>
        <time>2022-05-26T10:08:23.227Z</time>
      </trkpt>
      <trkpt lat="42.01474" lon="19.24804">
        <ele>200.678214</ele>
        <time>2022-05-26T10:08:29.206Z</time>
      </trkpt>
      <trkpt lat="42.01478" lon="19.24791">
        <ele>201.149285</ele>
        <time>2022-05-26T10:08:35.193Z</time>
      </trkpt>
      <trkpt lat="42.01482" lon="19.24777">
        <ele>201.622262</ele>
        <time>2022-05-26T10:08:41.206Z</time>
      </trkpt>
      <trkpt lat="42.01486" lon="19.24764">
        <ele>202.07888</ele>
        <time>2022-05-26T10:08:47.211Z</time>
      </trkpt>
      <trkpt lat="42.01489" lon="19.24751">
        <ele>202.553491</ele>
        <time>2022-05-26T10:08:53.209Z</time>
      </trkpt>
      <trkpt lat="42.01493" lon="19.2474">
        <ele>202.962507</ele>
        <time>2022-05-26T10:08:58.200Z</time>
      </trkpt>
      <trkpt lat="42.01497" lon="19.24728">
        <ele>203.361474</ele>
        <time>2022-05-26T10:09:03.202Z</time>
      </trkpt>
      <trkpt lat="42.01502" lon="19.24716">
        <ele>203.831731</ele>
        <time>2022-05-26T10:09:09.208Z</time>
      </trkpt>
      <trkpt lat="42.01508" lon="19.24704">
        <ele>204.185178</ele>
        <time>2022-05-26T10:09:15.206Z</time>
      </trkpt>
      <trkpt lat="42.01515" lon="19.24695">
        <ele>204.467784</ele>
        <time>2022-05-26T10:09:21.198Z</time>
      </trkpt>
      <trkpt lat="42.01522" lon="19.24686">
        <ele>204.751519</ele>
        <time>2022-05-26T10:09:28.217Z</time>
      </trkpt>
      <trkpt lat="42.01529" lon="19.24678">
        <ele>205.009519</ele>
        <time>2022-05-26T10:09:34.212Z</time>
      </trkpt>
      <trkpt lat="42.01537" lon="19.24669">
        <ele>205.28492</ele>
        <time>2022-05-26T10:09:40.203Z</time>
      </trkpt>
      <trkpt lat="42.01545" lon="19.2466">
        <ele>205.57502</ele>
        <time>2022-05-26T10:09:45.206Z</time>
      </trkpt>
      <trkpt lat="42.01552" lon="19.24651">
        <ele>205.851795</ele>
        <time>2022-05-26T10:09:50.214Z</time>
      </trkpt>
      <trkpt lat="42.01559" lon="19.24642">
        <ele>206.11962</ele>
        <time>2022-05-26T10:09:55.202Z</time>
      </trkpt>
      <trkpt lat="42.01565" lon="19.24633">
        <ele>206.379735</ele>
        <time>2022-05-26T10:10:00.212Z</time>
      </trkpt>
      <trkpt lat="42.01571" lon="19.24623">
        <ele>206.64051</ele>
        <time>2022-05-26T10:10:05.255Z</time>
      </trkpt>
      <trkpt lat="42.01575" lon="19.24609">
        <ele>206.95022</ele>
        <time>2022-05-26T10:10:10.219Z</time>
      </trkpt>
      <trkpt lat="42.01578" lon="19.24598">
        <ele>207.206528</ele>
        <time>2022-05-26T10:10:15.209Z</time>
      </trkpt>
      <trkpt lat="42.01581" lon="19.24585">
        <ele>207.481777</ele>
        <time>2022-05-26T10:10:22.218Z</time>
      </trkpt>
      <trkpt lat="42.01584" lon="19.24572">
        <ele>207.76817</ele>
        <time>2022-05-26T10:10:29.227Z</time>
      </trkpt>
      <trkpt lat="42.01586" lon="19.24558">
        <ele>208.06061</ele>
        <time>2022-05-26T10:10:35.202Z</time>
      </trkpt>
      <trkpt lat="42.01588" lon="19.24545">
        <ele>208.347276</ele>
        <time>2022-05-26T10:10:40.235Z</time>
      </trkpt>
      <trkpt lat="42.0159" lon="19.24532">
        <ele>208.625953</ele>
        <time>2022-05-26T10:10:46.207Z</time>
      </trkpt>
      <trkpt lat="42.01591" lon="19.24516">
        <ele>208.946481</ele>
        <time>2022-05-26T10:10:52.200Z</time>
      </trkpt>
      <trkpt lat="42.01591" lon="19.24504">
        <ele>209.145954</ele>
        <time>2022-05-26T10:10:56.219Z</time>
      </trkpt>
      <trkpt lat="42.0159" lon="19.24491">
        <ele>209.316975</ele>
        <time>2022-05-26T10:11:01.199Z</time>
      </trkpt>
      <trkpt lat="42.01592" lon="19.24477">
        <ele>209.514529</ele>
        <time>2022-05-26T10:11:05.202Z</time>
      </trkpt>
      <trkpt lat="42.01592" lon="19.24462">
        <ele>209.71057</ele>
        <time>2022-05-26T10:11:10.205Z</time>
      </trkpt>
      <trkpt lat="42.01592" lon="19.24448">
        <ele>209.902432</ele>
        <time>2022-05-26T10:11:14.199Z</time>
      </trkpt>
      <trkpt lat="42.01592" lon="19.24435">
        <ele>210.085154</ele>
        <time>2022-05-26T10:11:19.205Z</time>
      </trkpt>
      <trkpt lat="42.01593" lon="19.2442">
        <ele>210.277867</ele>
        <time>2022-05-26T10:11:24.202Z</time>
      </trkpt>
      <trkpt lat="42.01592" lon="19.24407">
        <ele>210.460588</ele>
        <time>2022-05-26T10:11:29.203Z</time>
      </trkpt>
      <trkpt lat="42.01592" lon="19.24394">
        <ele>210.63893</ele>
        <time>2022-05-26T10:11:34.211Z</time>
      </trkpt>
      <trkpt lat="42.01592" lon="19.24379">
        <ele>210.836196</ele>
        <time>2022-05-26T10:11:39.203Z</time>
      </trkpt>
      <trkpt lat="42.01592" lon="19.24367">
        <ele>211.003888</ele>
        <time>2022-05-26T10:11:44.219Z</time>
      </trkpt>
      <trkpt lat="42.01591" lon="19.24354">
        <ele>211.16897</ele>
        <time>2022-05-26T10:11:49.207Z</time>
      </trkpt>
      <trkpt lat="42.01591" lon="19.24341">
        <ele>211.351592</ele>
        <time>2022-05-26T10:11:54.219Z</time>
      </trkpt>
      <trkpt lat="42.01591" lon="19.24328">
        <ele>211.531515</ele>
        <time>2022-05-26T10:11:59.232Z</time>
      </trkpt>
      <trkpt lat="42.01592" lon="19.24314">
        <ele>211.712642</ele>
        <time>2022-05-26T10:12:04.220Z</time>
      </trkpt>
      <trkpt lat="42.01592" lon="19.243">
        <ele>211.911284</ele>
        <time>2022-05-26T10:12:10.221Z</time>
      </trkpt>
      <trkpt lat="42.01592" lon="19.24286">
        <ele>212.096703</ele>
        <time>2022-05-26T10:12:15.202Z</time>
      </trkpt>
      <trkpt lat="42.01595" lon="19.24273">
        <ele>212.282512</ele>
        <time>2022-05-26T10:12:20.197Z</time>
      </trkpt>
      <trkpt lat="42.01596" lon="19.24258">
        <ele>212.417686</ele>
        <time>2022-05-26T10:12:25.204Z</time>
      </trkpt>
      <trkpt lat="42.01597" lon="19.24243">
        <ele>212.551928</ele>
        <time>2022-05-26T10:12:30.207Z</time>
      </trkpt>
      <trkpt lat="42.01599" lon="19.2423">
        <ele>212.669939</ele>
        <time>2022-05-26T10:12:35.209Z</time>
      </trkpt>
      <trkpt lat="42.01601" lon="19.24217">
        <ele>212.78795</ele>
        <time>2022-05-26T10:12:40.213Z</time>
      </trkpt>
      <trkpt lat="42.01604" lon="19.24203">
        <ele>212.918816</ele>
        <time>2022-05-26T10:12:45.243Z</time>
      </trkpt>
      <trkpt lat="42.01605" lon="19.24189">
        <ele>213.047365</ele>
        <time>2022-05-26T10:12:50.208Z</time>
      </trkpt>
      <trkpt lat="42.01607" lon="19.24174">
        <ele>213.177853</ele>
        <time>2022-05-26T10:12:55.198Z</time>
      </trkpt>
      <trkpt lat="42.01607" lon="19.2416">
        <ele>213.305996</ele>
        <time>2022-05-26T10:13:00.204Z</time>
      </trkpt>
      <trkpt lat="42.01608" lon="19.24146">
        <ele>213.428877</ele>
        <time>2022-05-26T10:13:05.227Z</time>
      </trkpt>
      <trkpt lat="42.01607" lon="19.24131">
        <ele>213.560784</ele>
        <time>2022-05-26T10:13:10.212Z</time>
      </trkpt>
      <trkpt lat="42.01606" lon="19.24117">
        <ele>213.689949</ele>
        <time>2022-05-26T10:13:15.213Z</time>
      </trkpt>
      <trkpt lat="42.01607" lon="19.24102">
        <ele>213.822419</ele>
        <time>2022-05-26T10:13:20.231Z</time>
      </trkpt>
      <trkpt lat="42.01606" lon="19.24089">
        <ele>213.932749</ele>
        <time>2022-05-26T10:13:24.284Z</time>
      </trkpt>
      <trkpt lat="42.01607" lon="19.24075">
        <ele>214.057341</ele>
        <time>2022-05-26T10:13:28.231Z</time>
      </trkpt>
      <trkpt lat="42.01608" lon="19.24061">
        <ele>214.185018</ele>
        <time>2022-05-26T10:13:32.240Z</time>
      </trkpt>
      <trkpt lat="42.0161" lon="19.24049">
        <ele>214.296338</ele>
        <time>2022-05-26T10:13:36.233Z</time>
      </trkpt>
      <trkpt lat="42.01612" lon="19.24037">
        <ele>214.407979</ele>
        <time>2022-05-26T10:13:40.248Z</time>
      </trkpt>
      <trkpt lat="42.01615" lon="19.24025">
        <ele>214.551135</ele>
        <time>2022-05-26T10:13:44.214Z</time>
      </trkpt>
      <trkpt lat="42.01618" lon="19.24012">
        <ele>214.724124</ele>
        <time>2022-05-26T10:13:48.226Z</time>
      </trkpt>
      <trkpt lat="42.01622" lon="19.24">
        <ele>214.903336</ele>
        <time>2022-05-26T10:13:52.222Z</time>
      </trkpt>
      <trkpt lat="42.01626" lon="19.23988">
        <ele>215.081502</ele>
        <time>2022-05-26T10:13:56.226Z</time>
      </trkpt>
      <trkpt lat="42.0163" lon="19.23976">
        <ele>215.251437</ele>
        <time>2022-05-26T10:14:00.241Z</time>
      </trkpt>
      <trkpt lat="42.01635" lon="19.23964">
        <ele>215.429809</ele>
        <time>2022-05-26T10:14:04.209Z</time>
      </trkpt>
      <trkpt lat="42.0164" lon="19.23952">
        <ele>215.620861</ele>
        <time>2022-05-26T10:14:09.260Z</time>
      </trkpt>
      <trkpt lat="42.01647" lon="19.23942">
        <ele>215.805852</ele>
        <time>2022-05-26T10:14:13.219Z</time>
      </trkpt>
      <trkpt lat="42.01654" lon="19.23932">
        <ele>215.990418</ele>
        <time>2022-05-26T10:14:17.234Z</time>
      </trkpt>
      <trkpt lat="42.01662" lon="19.23921">
        <ele>216.183229</ele>
        <time>2022-05-26T10:14:21.283Z</time>
      </trkpt>
      <trkpt lat="42.01668" lon="19.23911">
        <ele>216.360872</ele>
        <time>2022-05-26T10:14:25.231Z</time>
      </trkpt>
      <trkpt lat="42.01674" lon="19.23901">
        <ele>216.535243</ele>
        <time>2022-05-26T10:14:29.233Z</time>
      </trkpt>
      <trkpt lat="42.01679" lon="19.23887">
        <ele>216.73463</ele>
        <time>2022-05-26T10:14:33.224Z</time>
      </trkpt>
      <trkpt lat="42.01681" lon="19.23875">
        <ele>216.901158</ele>
        <time>2022-05-26T10:14:37.217Z</time>
      </trkpt>
      <trkpt lat="42.01683" lon="19.23862">
        <ele>217.080633</ele>
        <time>2022-05-26T10:14:41.222Z</time>
      </trkpt>
      <trkpt lat="42.01685" lon="19.23848">
        <ele>217.269621</ele>
        <time>2022-05-26T10:14:46.210Z</time>
      </trkpt>
      <trkpt lat="42.01688" lon="19.23835">
        <ele>217.448865</ele>
        <time>2022-05-26T10:14:50.234Z</time>
      </trkpt>
      <trkpt lat="42.01692" lon="19.23824">
        <ele>217.620922</ele>
        <time>2022-05-26T10:14:54.267Z</time>
      </trkpt>
      <trkpt lat="42.01697" lon="19.2381">
        <ele>218.054066</ele>
        <time>2022-05-26T10:14:59.256Z</time>
      </trkpt>
      <trkpt lat="42.01701" lon="19.23797">
        <ele>218.600814</ele>
        <time>2022-05-26T10:15:04.233Z</time>
      </trkpt>
      <trkpt lat="42.01704" lon="19.23784">
        <ele>219.115383</ele>
        <time>2022-05-26T10:15:09.238Z</time>
      </trkpt>
      <trkpt lat="42.01706" lon="19.23771">
        <ele>219.609288</ele>
        <time>2022-05-26T10:15:14.213Z</time>
      </trkpt>
      <trkpt lat="42.0171" lon="19.23759">
        <ele>220.102768</ele>
        <time>2022-05-26T10:15:19.237Z</time>
      </trkpt>
      <trkpt lat="42.01712" lon="19.23747">
        <ele>220.557717</ele>
        <time>2022-05-26T10:15:24.221Z</time>
      </trkpt>
      <trkpt lat="42.01715" lon="19.23736">
        <ele>221.023019</ele>
        <time>2022-05-26T10:15:29.236Z</time>
      </trkpt>
      <trkpt lat="42.01719" lon="19.23724">
        <ele>221.500528</ele>
        <time>2022-05-26T10:15:35.219Z</time>
      </trkpt>
      <trkpt lat="42.01722" lon="19.23711">
        <ele>222.008687</ele>
        <time>2022-05-26T10:15:41.229Z</time>
      </trkpt>
      <trkpt lat="42.01725" lon="19.23698">
        <ele>222.527096</ele>
        <time>2022-05-26T10:15:47.234Z</time>
      </trkpt>
      <trkpt lat="42.01729" lon="19.23685">
        <ele>223.039928</ele>
        <time>2022-05-26T10:15:53.232Z</time>
      </trkpt>
      <trkpt lat="42.01732" lon="19.23673">
        <ele>223.535091</ele>
        <time>2022-05-26T10:15:59.215Z</time>
      </trkpt>
      <trkpt lat="42.01735" lon="19.23661">
        <ele>224.017903</ele>
        <time>2022-05-26T10:16:05.229Z</time>
      </trkpt>
      <trkpt lat="42.01738" lon="19.23649">
        <ele>224.470893</ele>
        <time>2022-05-26T10:16:11.233Z</time>
      </trkpt>
      <trkpt lat="42.01741" lon="19.23637">
        <ele>224.962734</ele>
        <time>2022-05-26T10:16:17.241Z</time>
      </trkpt>
      <trkpt lat="42.01745" lon="19.23625">
        <ele>225.45116</ele>
        <time>2022-05-26T10:16:23.225Z</time>
      </trkpt>
      <trkpt lat="42.01748" lon="19.23612">
        <ele>225.944638</ele>
        <time>2022-05-26T10:16:29.244Z</time>
      </trkpt>
      <trkpt lat="42.01752" lon="19.236">
        <ele>226.443303</ele>
        <time>2022-05-26T10:16:35.248Z</time>
      </trkpt>
      <trkpt lat="42.01755" lon="19.23588">
        <ele>226.854602</ele>
        <time>2022-05-26T10:16:41.227Z</time>
      </trkpt>
      <trkpt lat="42.01757" lon="19.23576">
        <ele>227.096029</ele>
        <time>2022-05-26T10:16:47.261Z</time>
      </trkpt>
      <trkpt lat="42.01761" lon="19.23564">
        <ele>227.334289</ele>
        <time>2022-05-26T10:16:53.252Z</time>
      </trkpt>
      <trkpt lat="42.01764" lon="19.23552">
        <ele>227.587054</ele>
        <time>2022-05-26T10:16:59.261Z</time>
      </trkpt>
      <trkpt lat="42.01768" lon="19.23539">
        <ele>227.861782</ele>
        <time>2022-05-26T10:17:05.255Z</time>
      </trkpt>
      <trkpt lat="42.01772" lon="19.23526">
        <ele>228.126511</ele>
        <time>2022-05-26T10:17:11.266Z</time>
      </trkpt>
      <trkpt lat="42.01776" lon="19.23513">
        <ele>228.395703</ele>
        <time>2022-05-26T10:17:18.236Z</time>
      </trkpt>
      <trkpt lat="42.01779" lon="19.23502">
        <ele>228.632209</ele>
        <time>2022-05-26T10:17:24.273Z</time>
      </trkpt>
      <trkpt lat="42.01784" lon="19.23491">
        <ele>228.880824</ele>
        <time>2022-05-26T10:17:30.215Z</time>
      </trkpt>
      <trkpt lat="42.01788" lon="19.23478">
        <ele>229.139358</ele>
        <time>2022-05-26T10:17:36.208Z</time>
      </trkpt>
      <trkpt lat="42.01793" lon="19.23467">
        <ele>229.384092</ele>
        <time>2022-05-26T10:17:41.223Z</time>
      </trkpt>
      <trkpt lat="42.01797" lon="19.23456">
        <ele>229.621726</ele>
        <time>2022-05-26T10:17:46.269Z</time>
      </trkpt>
      <trkpt lat="42.018" lon="19.23444">
        <ele>229.875716</ele>
        <time>2022-05-26T10:17:51.222Z</time>
      </trkpt>
      <trkpt lat="42.01803" lon="19.23431">
        <ele>230.130269</ele>
        <time>2022-05-26T10:17:55.243Z</time>
      </trkpt>
      <trkpt lat="42.01806" lon="19.23419">
        <ele>230.39133</ele>
        <time>2022-05-26T10:17:59.226Z</time>
      </trkpt>
      <trkpt lat="42.01809" lon="19.23404">
        <ele>230.677297</ele>
        <time>2022-05-26T10:18:04.242Z</time>
      </trkpt>
      <trkpt lat="42.01813" lon="19.2339">
        <ele>230.968847</ele>
        <time>2022-05-26T10:18:09.216Z</time>
      </trkpt>
      <trkpt lat="42.01817" lon="19.23377">
        <ele>231.232381</ele>
        <time>2022-05-26T10:18:13.246Z</time>
      </trkpt>
      <trkpt lat="42.0182" lon="19.23365">
        <ele>231.452561</ele>
        <time>2022-05-26T10:18:17.226Z</time>
      </trkpt>
      <trkpt lat="42.01824" lon="19.23352">
        <ele>231.50521</ele>
        <time>2022-05-26T10:18:21.225Z</time>
      </trkpt>
      <trkpt lat="42.01827" lon="19.23337">
        <ele>231.565312</ele>
        <time>2022-05-26T10:18:25.233Z</time>
      </trkpt>
      <trkpt lat="42.01831" lon="19.23322">
        <ele>231.625964</ele>
        <time>2022-05-26T10:18:29.236Z</time>
      </trkpt>
      <trkpt lat="42.01835" lon="19.2331">
        <ele>231.673477</ele>
        <time>2022-05-26T10:18:32.259Z</time>
      </trkpt>
      <trkpt lat="42.01839" lon="19.23295">
        <ele>231.734105</ele>
        <time>2022-05-26T10:18:36.230Z</time>
      </trkpt>
      <trkpt lat="42.01842" lon="19.23283">
        <ele>231.782678</ele>
        <time>2022-05-26T10:18:39.221Z</time>
      </trkpt>
      <trkpt lat="42.01845" lon="19.23271">
        <ele>231.829873</ele>
        <time>2022-05-26T10:18:42.209Z</time>
      </trkpt>
      <trkpt lat="42.01849" lon="19.2326">
        <ele>231.877473</ele>
        <time>2022-05-26T10:18:45.231Z</time>
      </trkpt>
      <trkpt lat="42.01853" lon="19.23247">
        <ele>231.927118</ele>
        <time>2022-05-26T10:18:48.231Z</time>
      </trkpt>
      <trkpt lat="42.01856" lon="19.23235">
        <ele>231.976575</ele>
        <time>2022-05-26T10:18:51.226Z</time>
      </trkpt>
      <trkpt lat="42.0186" lon="19.23223">
        <ele>232.024817</ele>
        <time>2022-05-26T10:18:54.236Z</time>
      </trkpt>
      <trkpt lat="42.01864" lon="19.23208">
        <ele>232.085828</ele>
        <time>2022-05-26T10:18:58.246Z</time>
      </trkpt>
      <trkpt lat="42.01867" lon="19.23194">
        <ele>232.140351</ele>
        <time>2022-05-26T10:19:02.235Z</time>
      </trkpt>
      <trkpt lat="42.0187" lon="19.23182">
        <ele>232.187355</ele>
        <time>2022-05-26T10:19:05.233Z</time>
      </trkpt>
      <trkpt lat="42.01872" lon="19.2317">
        <ele>232.234973</ele>
        <time>2022-05-26T10:19:08.222Z</time>
      </trkpt>
      <trkpt lat="42.01874" lon="19.23154">
        <ele>232.296913</ele>
        <time>2022-05-26T10:19:12.236Z</time>
      </trkpt>
      <trkpt lat="42.01877" lon="19.23141">
        <ele>232.348908</ele>
        <time>2022-05-26T10:19:15.218Z</time>
      </trkpt>
      <trkpt lat="42.01879" lon="19.23128">
        <ele>232.457663</ele>
        <time>2022-05-26T10:19:18.223Z</time>
      </trkpt>
      <trkpt lat="42.01882" lon="19.23113">
        <ele>232.59045</ele>
        <time>2022-05-26T10:19:21.239Z</time>
      </trkpt>
      <trkpt lat="42.01884" lon="19.23099">
        <ele>232.720228</ele>
        <time>2022-05-26T10:19:24.217Z</time>
      </trkpt>
      <trkpt lat="42.01887" lon="19.23085">
        <ele>232.849819</ele>
        <time>2022-05-26T10:19:27.236Z</time>
      </trkpt>
      <trkpt lat="42.01889" lon="19.23072">
        <ele>232.969481</ele>
        <time>2022-05-26T10:19:30.229Z</time>
      </trkpt>
      <trkpt lat="42.01891" lon="19.2306">
        <ele>233.085025</ele>
        <time>2022-05-26T10:19:33.224Z</time>
      </trkpt>
      <trkpt lat="42.01894" lon="19.23046">
        <ele>233.214252</ele>
        <time>2022-05-26T10:19:36.232Z</time>
      </trkpt>
      <trkpt lat="42.01896" lon="19.23032">
        <ele>233.340955</ele>
        <time>2022-05-26T10:19:39.224Z</time>
      </trkpt>
      <trkpt lat="42.01898" lon="19.23019">
        <ele>233.461008</ele>
        <time>2022-05-26T10:19:42.253Z</time>
      </trkpt>
      <trkpt lat="42.019" lon="19.23006">
        <ele>233.576837</ele>
        <time>2022-05-26T10:19:45.226Z</time>
      </trkpt>
      <trkpt lat="42.01902" lon="19.22994">
        <ele>233.688714</ele>
        <time>2022-05-26T10:19:48.224Z</time>
      </trkpt>
      <trkpt lat="42.01903" lon="19.22981">
        <ele>233.806156</ele>
        <time>2022-05-26T10:19:51.264Z</time>
      </trkpt>
      <trkpt lat="42.01905" lon="19.22968">
        <ele>233.923806</ele>
        <time>2022-05-26T10:19:54.229Z</time>
      </trkpt>
      <trkpt lat="42.01907" lon="19.22955">
        <ele>234.042588</ele>
        <time>2022-05-26T10:19:57.262Z</time>
      </trkpt>
      <trkpt lat="42.01909" lon="19.22943">
        <ele>234.159763</ele>
        <time>2022-05-26T10:20:00.215Z</time>
      </trkpt>
      <trkpt lat="42.01911" lon="19.2293">
        <ele>234.27164</ele>
        <time>2022-05-26T10:20:03.274Z</time>
      </trkpt>
      <trkpt lat="42.01913" lon="19.22918">
        <ele>234.387788</ele>
        <time>2022-05-26T10:20:06.258Z</time>
      </trkpt>
      <trkpt lat="42.01915" lon="19.22905">
        <ele>234.509607</ele>
        <time>2022-05-26T10:20:09.265Z</time>
      </trkpt>
      <trkpt lat="42.01917" lon="19.22892">
        <ele>234.648562</ele>
        <time>2022-05-26T10:20:12.233Z</time>
      </trkpt>
      <trkpt lat="42.01919" lon="19.22879">
        <ele>234.798214</ele>
        <time>2022-05-26T10:20:15.252Z</time>
      </trkpt>
      <trkpt lat="42.01921" lon="19.22866">
        <ele>234.953459</ele>
        <time>2022-05-26T10:20:18.246Z</time>
      </trkpt>
      <trkpt lat="42.01924" lon="19.22853">
        <ele>235.114236</ele>
        <time>2022-05-26T10:20:21.254Z</time>
      </trkpt>
      <trkpt lat="42.01926" lon="19.2284">
        <ele>235.265462</ele>
        <time>2022-05-26T10:20:24.236Z</time>
      </trkpt>
      <trkpt lat="42.01928" lon="19.22827">
        <ele>235.411412</ele>
        <time>2022-05-26T10:20:27.291Z</time>
      </trkpt>
      <trkpt lat="42.0193" lon="19.22812">
        <ele>235.592645</ele>
        <time>2022-05-26T10:20:31.230Z</time>
      </trkpt>
      <trkpt lat="42.01933" lon="19.22796">
        <ele>235.777578</ele>
        <time>2022-05-26T10:20:35.234Z</time>
      </trkpt>
      <trkpt lat="42.01935" lon="19.22784">
        <ele>235.919487</ele>
        <time>2022-05-26T10:20:38.263Z</time>
      </trkpt>
      <trkpt lat="42.01937" lon="19.22772">
        <ele>236.0591</ele>
        <time>2022-05-26T10:20:41.233Z</time>
      </trkpt>
      <trkpt lat="42.01939" lon="19.2276">
        <ele>236.198712</ele>
        <time>2022-05-26T10:20:44.280Z</time>
      </trkpt>
      <trkpt lat="42.01942" lon="19.22746">
        <ele>236.371035</ele>
        <time>2022-05-26T10:20:49.216Z</time>
      </trkpt>
      <trkpt lat="42.01945" lon="19.22733">
        <ele>236.522409</ele>
        <time>2022-05-26T10:20:54.239Z</time>
      </trkpt>
      <trkpt lat="42.01948" lon="19.22722">
        <ele>236.663333</ele>
        <time>2022-05-26T10:20:59.240Z</time>
      </trkpt>
      <trkpt lat="42.01951" lon="19.2271">
        <ele>236.810173</ele>
        <time>2022-05-26T10:21:04.229Z</time>
      </trkpt>
      <trkpt lat="42.01955" lon="19.22698">
        <ele>236.957622</ele>
        <time>2022-05-26T10:21:09.233Z</time>
      </trkpt>
      <trkpt lat="42.01959" lon="19.22684">
        <ele>237.126515</ele>
        <time>2022-05-26T10:21:15.240Z</time>
      </trkpt>
      <trkpt lat="42.01962" lon="19.22672">
        <ele>237.271841</ele>
        <time>2022-05-26T10:21:20.219Z</time>
      </trkpt>
      <trkpt lat="42.01966" lon="19.2266">
        <ele>237.48571</ele>
        <time>2022-05-26T10:21:25.217Z</time>
      </trkpt>
      <trkpt lat="42.0197" lon="19.22647">
        <ele>237.747621</ele>
        <time>2022-05-26T10:21:30.237Z</time>
      </trkpt>
      <trkpt lat="42.01976" lon="19.22635">
        <ele>238.011469</ele>
        <time>2022-05-26T10:21:35.273Z</time>
      </trkpt>
      <trkpt lat="42.01982" lon="19.22622">
        <ele>238.284472</ele>
        <time>2022-05-26T10:21:40.223Z</time>
      </trkpt>
      <trkpt lat="42.01987" lon="19.22612">
        <ele>238.510785</ele>
        <time>2022-05-26T10:21:45.248Z</time>
      </trkpt>
      <trkpt lat="42.01993" lon="19.22602">
        <ele>238.7495</ele>
        <time>2022-05-26T10:21:50.244Z</time>
      </trkpt>
      <trkpt lat="42.01999" lon="19.22593">
        <ele>238.978599</ele>
        <time>2022-05-26T10:21:55.225Z</time>
      </trkpt>
      <trkpt lat="42.02006" lon="19.22584">
        <ele>239.21041</ele>
        <time>2022-05-26T10:22:00.219Z</time>
      </trkpt>
      <trkpt lat="42.02014" lon="19.22575">
        <ele>239.462388</ele>
        <time>2022-05-26T10:22:05.234Z</time>
      </trkpt>
      <trkpt lat="42.0202" lon="19.22567">
        <ele>239.685567</ele>
        <time>2022-05-26T10:22:09.233Z</time>
      </trkpt>
      <trkpt lat="42.02027" lon="19.22557">
        <ele>239.931398</ele>
        <time>2022-05-26T10:22:13.235Z</time>
      </trkpt>
      <trkpt lat="42.02034" lon="19.22547">
        <ele>240.1789</ele>
        <time>2022-05-26T10:22:17.243Z</time>
      </trkpt>
      <trkpt lat="42.02039" lon="19.22535">
        <ele>240.440158</ele>
        <time>2022-05-26T10:22:22.236Z</time>
      </trkpt>
      <trkpt lat="42.02046" lon="19.22523">
        <ele>240.713159</ele>
        <time>2022-05-26T10:22:27.209Z</time>
      </trkpt>
      <trkpt lat="42.02052" lon="19.22511">
        <ele>240.985846</ele>
        <time>2022-05-26T10:22:32.236Z</time>
      </trkpt>
      <trkpt lat="42.02058" lon="19.225">
        <ele>241.221682</ele>
        <time>2022-05-26T10:22:36.212Z</time>
      </trkpt>
      <trkpt lat="42.02063" lon="19.22489">
        <ele>241.477168</ele>
        <time>2022-05-26T10:22:40.225Z</time>
      </trkpt>
      <trkpt lat="42.02069" lon="19.22477">
        <ele>241.732877</ele>
        <time>2022-05-26T10:22:44.229Z</time>
      </trkpt>
      <trkpt lat="42.02075" lon="19.22467">
        <ele>241.873755</ele>
        <time>2022-05-26T10:22:48.217Z</time>
      </trkpt>
      <trkpt lat="42.0208" lon="19.22456">
        <ele>242.016323</ele>
        <time>2022-05-26T10:22:52.223Z</time>
      </trkpt>
      <trkpt lat="42.02086" lon="19.22445">
        <ele>242.151786</ele>
        <time>2022-05-26T10:22:56.246Z</time>
      </trkpt>
      <trkpt lat="42.02091" lon="19.22433">
        <ele>242.295076</ele>
        <time>2022-05-26T10:23:00.230Z</time>
      </trkpt>
      <trkpt lat="42.02097" lon="19.22421">
        <ele>242.444857</ele>
        <time>2022-05-26T10:23:04.222Z</time>
      </trkpt>
      <trkpt lat="42.02102" lon="19.2241">
        <ele>242.587191</ele>
        <time>2022-05-26T10:23:08.234Z</time>
      </trkpt>
      <trkpt lat="42.02108" lon="19.22399">
        <ele>242.725488</ele>
        <time>2022-05-26T10:23:12.224Z</time>
      </trkpt>
      <trkpt lat="42.02113" lon="19.22387">
        <ele>242.869095</ele>
        <time>2022-05-26T10:23:16.236Z</time>
      </trkpt>
      <trkpt lat="42.02118" lon="19.22374">
        <ele>243.017389</ele>
        <time>2022-05-26T10:23:20.232Z</time>
      </trkpt>
      <trkpt lat="42.02124" lon="19.22362">
        <ele>243.171387</ele>
        <time>2022-05-26T10:23:24.232Z</time>
      </trkpt>
      <trkpt lat="42.02129" lon="19.22349">
        <ele>243.325025</ele>
        <time>2022-05-26T10:23:28.274Z</time>
      </trkpt>
      <trkpt lat="42.02135" lon="19.22336">
        <ele>243.484034</ele>
        <time>2022-05-26T10:23:32.213Z</time>
      </trkpt>
      <trkpt lat="42.0214" lon="19.22323">
        <ele>243.636156</ele>
        <time>2022-05-26T10:23:36.240Z</time>
      </trkpt>
      <trkpt lat="42.02145" lon="19.2231">
        <ele>243.784271</ele>
        <time>2022-05-26T10:23:40.238Z</time>
      </trkpt>
      <trkpt lat="42.02151" lon="19.22297">
        <ele>243.940416</ele>
        <time>2022-05-26T10:23:44.244Z</time>
      </trkpt>
      <trkpt lat="42.02156" lon="19.22286">
        <ele>244.075783</ele>
        <time>2022-05-26T10:23:47.223Z</time>
      </trkpt>
      <trkpt lat="42.0216" lon="19.22275">
        <ele>244.206137</ele>
        <time>2022-05-26T10:23:50.228Z</time>
      </trkpt>
      <trkpt lat="42.02165" lon="19.22264">
        <ele>244.400954</ele>
        <time>2022-05-26T10:23:53.263Z</time>
      </trkpt>
      <trkpt lat="42.0217" lon="19.22253">
        <ele>244.660757</ele>
        <time>2022-05-26T10:23:56.238Z</time>
      </trkpt>
      <trkpt lat="42.02175" lon="19.22238">
        <ele>244.987877</ele>
        <time>2022-05-26T10:24:00.242Z</time>
      </trkpt>
      <trkpt lat="42.0218" lon="19.22225">
        <ele>245.293093</ele>
        <time>2022-05-26T10:24:04.235Z</time>
      </trkpt>
      <trkpt lat="42.02185" lon="19.22214">
        <ele>245.569372</ele>
        <time>2022-05-26T10:24:08.257Z</time>
      </trkpt>
      <trkpt lat="42.02189" lon="19.22201">
        <ele>245.847556</ele>
        <time>2022-05-26T10:24:12.235Z</time>
      </trkpt>
      <trkpt lat="42.02195" lon="19.22188">
        <ele>246.14697</ele>
        <time>2022-05-26T10:24:16.232Z</time>
      </trkpt>
      <trkpt lat="42.022" lon="19.22176">
        <ele>246.443602</ele>
        <time>2022-05-26T10:24:20.221Z</time>
      </trkpt>
      <trkpt lat="42.02205" lon="19.22163">
        <ele>246.736357</ele>
        <time>2022-05-26T10:24:24.216Z</time>
      </trkpt>
      <trkpt lat="42.02211" lon="19.22152">
        <ele>247.013549</ele>
        <time>2022-05-26T10:24:28.236Z</time>
      </trkpt>
      <trkpt lat="42.02215" lon="19.22141">
        <ele>247.269389</ele>
        <time>2022-05-26T10:24:32.252Z</time>
      </trkpt>
      <trkpt lat="42.0222" lon="19.22128">
        <ele>247.55633</ele>
        <time>2022-05-26T10:24:37.251Z</time>
      </trkpt>
      <trkpt lat="42.02225" lon="19.22118">
        <ele>247.809188</ele>
        <time>2022-05-26T10:24:41.237Z</time>
      </trkpt>
      <trkpt lat="42.0223" lon="19.22105">
        <ele>248.094879</ele>
        <time>2022-05-26T10:24:45.237Z</time>
      </trkpt>
      <trkpt lat="42.02234" lon="19.22093">
        <ele>248.381819</ele>
        <time>2022-05-26T10:24:49.226Z</time>
      </trkpt>
      <trkpt lat="42.02239" lon="19.22082">
        <ele>248.644789</ele>
        <time>2022-05-26T10:24:53.219Z</time>
      </trkpt>
      <trkpt lat="42.02245" lon="19.22071">
        <ele>248.91003</ele>
        <time>2022-05-26T10:24:57.237Z</time>
      </trkpt>
      <trkpt lat="42.02252" lon="19.22063">
        <ele>249.174257</ele>
        <time>2022-05-26T10:25:01.231Z</time>
      </trkpt>
      <trkpt lat="42.02262" lon="19.22055">
        <ele>249.276094</ele>
        <time>2022-05-26T10:25:06.323Z</time>
      </trkpt>
      <trkpt lat="42.02271" lon="19.22048">
        <ele>249.340305</ele>
        <time>2022-05-26T10:25:11.231Z</time>
      </trkpt>
      <trkpt lat="42.02279" lon="19.22041">
        <ele>249.403752</ele>
        <time>2022-05-26T10:25:16.237Z</time>
      </trkpt>
      <trkpt lat="42.02288" lon="19.22033">
        <ele>249.468856</ele>
        <time>2022-05-26T10:25:21.230Z</time>
      </trkpt>
      <trkpt lat="42.02295" lon="19.22022">
        <ele>249.536282</ele>
        <time>2022-05-26T10:25:26.265Z</time>
      </trkpt>
      <trkpt lat="42.02299" lon="19.2201">
        <ele>249.598459</ele>
        <time>2022-05-26T10:25:31.223Z</time>
      </trkpt>
      <trkpt lat="42.02298" lon="19.21998">
        <ele>249.654402</ele>
        <time>2022-05-26T10:25:36.244Z</time>
      </trkpt>
      <trkpt lat="42.02294" lon="19.21985">
        <ele>249.718718</ele>
        <time>2022-05-26T10:25:42.223Z</time>
      </trkpt>
      <trkpt lat="42.02289" lon="19.21974">
        <ele>249.778785</ele>
        <time>2022-05-26T10:25:47.295Z</time>
      </trkpt>
      <trkpt lat="42.02284" lon="19.21962">
        <ele>249.83972</ele>
        <time>2022-05-26T10:25:51.219Z</time>
      </trkpt>
      <trkpt lat="42.02281" lon="19.21947">
        <ele>249.913371</ele>
        <time>2022-05-26T10:25:55.233Z</time>
      </trkpt>
      <trkpt lat="42.02282" lon="19.21933">
        <ele>249.975475</ele>
        <time>2022-05-26T10:25:58.232Z</time>
      </trkpt>
      <trkpt lat="42.02285" lon="19.21921">
        <ele>250.034851</ele>
        <time>2022-05-26T10:26:01.229Z</time>
      </trkpt>
      <trkpt lat="42.0229" lon="19.21908">
        <ele>250.100932</ele>
        <time>2022-05-26T10:26:05.263Z</time>
      </trkpt>
      <trkpt lat="42.02295" lon="19.21898">
        <ele>250.158226</ele>
        <time>2022-05-26T10:26:09.225Z</time>
      </trkpt>
      <trkpt lat="42.02302" lon="19.21885">
        <ele>250.228592</ele>
        <time>2022-05-26T10:26:13.227Z</time>
      </trkpt>
      <trkpt lat="42.02308" lon="19.21873">
        <ele>250.298959</ele>
        <time>2022-05-26T10:26:17.232Z</time>
      </trkpt>
      <trkpt lat="42.02315" lon="19.2186">
        <ele>250.447981</ele>
        <time>2022-05-26T10:26:21.232Z</time>
      </trkpt>
      <trkpt lat="42.0232" lon="19.2185">
        <ele>250.607171</ele>
        <time>2022-05-26T10:26:24.234Z</time>
      </trkpt>
      <trkpt lat="42.02326" lon="19.21837">
        <ele>250.808862</ele>
        <time>2022-05-26T10:26:28.236Z</time>
      </trkpt>
      <trkpt lat="42.02332" lon="19.21824">
        <ele>251.000197</ele>
        <time>2022-05-26T10:26:32.241Z</time>
      </trkpt>
      <trkpt lat="42.02337" lon="19.21811">
        <ele>251.192351</ele>
        <time>2022-05-26T10:26:36.255Z</time>
      </trkpt>
      <trkpt lat="42.02341" lon="19.21799">
        <ele>251.372643</ele>
        <time>2022-05-26T10:26:40.233Z</time>
      </trkpt>
      <trkpt lat="42.02346" lon="19.21787">
        <ele>251.551079</ele>
        <time>2022-05-26T10:26:44.265Z</time>
      </trkpt>
      <trkpt lat="42.02351" lon="19.21775">
        <ele>251.731505</ele>
        <time>2022-05-26T10:26:48.240Z</time>
      </trkpt>
      <trkpt lat="42.02357" lon="19.21762">
        <ele>251.924296</ele>
        <time>2022-05-26T10:26:52.250Z</time>
      </trkpt>
      <trkpt lat="42.02361" lon="19.21752">
        <ele>252.084721</ele>
        <time>2022-05-26T10:26:55.237Z</time>
      </trkpt>
      <trkpt lat="42.02367" lon="19.21738">
        <ele>252.287534</ele>
        <time>2022-05-26T10:26:59.244Z</time>
      </trkpt>
      <trkpt lat="42.02372" lon="19.21728">
        <ele>252.450987</ele>
        <time>2022-05-26T10:27:02.227Z</time>
      </trkpt>
      <trkpt lat="42.02377" lon="19.21717">
        <ele>252.618261</ele>
        <time>2022-05-26T10:27:05.246Z</time>
      </trkpt>
      <trkpt lat="42.02382" lon="19.21706">
        <ele>252.779674</ele>
        <time>2022-05-26T10:27:08.235Z</time>
      </trkpt>
      <trkpt lat="42.02387" lon="19.21692">
        <ele>252.986697</ele>
        <time>2022-05-26T10:27:12.277Z</time>
      </trkpt>
      <trkpt lat="42.02392" lon="19.21678">
        <ele>253.190716</ele>
        <time>2022-05-26T10:27:16.221Z</time>
      </trkpt>
      <trkpt lat="42.02396" lon="19.21664">
        <ele>253.380356</ele>
        <time>2022-05-26T10:27:20.230Z</time>
      </trkpt>
      <trkpt lat="42.02399" lon="19.21652">
        <ele>253.52249</ele>
        <time>2022-05-26T10:27:24.244Z</time>
      </trkpt>
      <trkpt lat="42.02401" lon="19.21639">
        <ele>253.588097</ele>
        <time>2022-05-26T10:27:28.197Z</time>
      </trkpt>
      <trkpt lat="42.02404" lon="19.21627">
        <ele>253.649157</ele>
        <time>2022-05-26T10:27:32.218Z</time>
      </trkpt>
      <trkpt lat="42.02406" lon="19.21614">
        <ele>253.716554</ele>
        <time>2022-05-26T10:27:36.202Z</time>
      </trkpt>
      <trkpt lat="42.02409" lon="19.21599">
        <ele>253.795152</ele>
        <time>2022-05-26T10:27:40.228Z</time>
      </trkpt>
      <trkpt lat="42.02411" lon="19.21584">
        <ele>253.870412</ele>
        <time>2022-05-26T10:27:44.212Z</time>
      </trkpt>
      <trkpt lat="42.02414" lon="19.21572">
        <ele>253.934302</ele>
        <time>2022-05-26T10:27:48.204Z</time>
      </trkpt>
      <trkpt lat="42.02416" lon="19.2156">
        <ele>253.998002</ele>
        <time>2022-05-26T10:27:52.229Z</time>
      </trkpt>
      <trkpt lat="42.02419" lon="19.21546">
        <ele>254.069943</ele>
        <time>2022-05-26T10:27:56.203Z</time>
      </trkpt>
      <trkpt lat="42.02421" lon="19.21533">
        <ele>254.136223</ele>
        <time>2022-05-26T10:28:00.204Z</time>
      </trkpt>
      <trkpt lat="42.02424" lon="19.21519">
        <ele>254.209542</ele>
        <time>2022-05-26T10:28:04.204Z</time>
      </trkpt>
      <trkpt lat="42.02427" lon="19.21507">
        <ele>254.273544</ele>
        <time>2022-05-26T10:28:07.206Z</time>
      </trkpt>
      <trkpt lat="42.02429" lon="19.21493">
        <ele>254.3434</ele>
        <time>2022-05-26T10:28:10.208Z</time>
      </trkpt>
      <trkpt lat="42.02432" lon="19.21481">
        <ele>254.409329</ele>
        <time>2022-05-26T10:28:13.207Z</time>
      </trkpt>
      <trkpt lat="42.02436" lon="19.21466">
        <ele>254.488617</ele>
        <time>2022-05-26T10:28:17.199Z</time>
      </trkpt>
      <trkpt lat="42.0244" lon="19.21453">
        <ele>254.558039</ele>
        <time>2022-05-26T10:28:21.216Z</time>
      </trkpt>
      <trkpt lat="42.02445" lon="19.21439">
        <ele>254.636446</ele>
        <time>2022-05-26T10:28:25.209Z</time>
      </trkpt>
      <trkpt lat="42.02449" lon="19.21426">
        <ele>254.706037</ele>
        <time>2022-05-26T10:28:29.207Z</time>
      </trkpt>
      <trkpt lat="42.02454" lon="19.21413">
        <ele>254.989138</ele>
        <time>2022-05-26T10:28:33.207Z</time>
      </trkpt>
      <trkpt lat="42.02458" lon="19.214">
        <ele>255.28941</ele>
        <time>2022-05-26T10:28:37.217Z</time>
      </trkpt>
      <trkpt lat="42.02461" lon="19.21388">
        <ele>255.585223</ele>
        <time>2022-05-26T10:28:41.200Z</time>
      </trkpt>
      <trkpt lat="42.02465" lon="19.21376">
        <ele>255.856601</ele>
        <time>2022-05-26T10:28:45.219Z</time>
      </trkpt>
      <trkpt lat="42.02469" lon="19.21363">
        <ele>256.158863</ele>
        <time>2022-05-26T10:28:49.209Z</time>
      </trkpt>
      <trkpt lat="42.02472" lon="19.21352">
        <ele>256.425243</ele>
        <time>2022-05-26T10:28:52.205Z</time>
      </trkpt>
      <trkpt lat="42.02476" lon="19.21338">
        <ele>256.749666</ele>
        <time>2022-05-26T10:28:56.207Z</time>
      </trkpt>
      <trkpt lat="42.02479" lon="19.21323">
        <ele>257.084173</ele>
        <time>2022-05-26T10:29:00.208Z</time>
      </trkpt>
      <trkpt lat="42.02483" lon="19.2131">
        <ele>257.393304</ele>
        <time>2022-05-26T10:29:04.211Z</time>
      </trkpt>
      <trkpt lat="42.02487" lon="19.21297">
        <ele>257.692331</ele>
        <time>2022-05-26T10:29:08.200Z</time>
      </trkpt>
      <trkpt lat="42.02491" lon="19.21283">
        <ele>258.019134</ele>
        <time>2022-05-26T10:29:12.209Z</time>
      </trkpt>
      <trkpt lat="42.02494" lon="19.2127">
        <ele>258.301413</ele>
        <time>2022-05-26T10:29:16.202Z</time>
      </trkpt>
      <trkpt lat="42.02497" lon="19.21258">
        <ele>258.595206</ele>
        <time>2022-05-26T10:29:20.217Z</time>
      </trkpt>
      <trkpt lat="42.02501" lon="19.21244">
        <ele>258.905756</ele>
        <time>2022-05-26T10:29:24.200Z</time>
      </trkpt>
      <trkpt lat="42.02503" lon="19.21232">
        <ele>259.184714</ele>
        <time>2022-05-26T10:29:28.207Z</time>
      </trkpt>
      <trkpt lat="42.02505" lon="19.21217">
        <ele>259.511596</ele>
        <time>2022-05-26T10:29:33.210Z</time>
      </trkpt>
      <trkpt lat="42.02507" lon="19.21202">
        <ele>259.831198</ele>
        <time>2022-05-26T10:29:38.202Z</time>
      </trkpt>
      <trkpt lat="42.02508" lon="19.21188">
        <ele>260.131362</ele>
        <time>2022-05-26T10:29:43.200Z</time>
      </trkpt>
      <trkpt lat="42.0251" lon="19.21174">
        <ele>260.429359</ele>
        <time>2022-05-26T10:29:48.209Z</time>
      </trkpt>
      <trkpt lat="42.02514" lon="19.21161">
        <ele>260.690994</ele>
        <time>2022-05-26T10:29:52.212Z</time>
      </trkpt>
      <trkpt lat="42.02518" lon="19.21149">
        <ele>260.957658</ele>
        <time>2022-05-26T10:29:56.200Z</time>
      </trkpt>
      <trkpt lat="42.02522" lon="19.21136">
        <ele>261.248105</ele>
        <time>2022-05-26T10:30:00.205Z</time>
      </trkpt>
      <trkpt lat="42.02527" lon="19.21125">
        <ele>261.502725</ele>
        <time>2022-05-26T10:30:04.211Z</time>
      </trkpt>
      <trkpt lat="42.02531" lon="19.21112">
        <ele>261.786547</ele>
        <time>2022-05-26T10:30:09.212Z</time>
      </trkpt>
      <trkpt lat="42.02536" lon="19.21099">
        <ele>262.089771</ele>
        <time>2022-05-26T10:30:14.203Z</time>
      </trkpt>
      <trkpt lat="42.0254" lon="19.21087">
        <ele>262.356174</ele>
        <time>2022-05-26T10:30:18.208Z</time>
      </trkpt>
      <trkpt lat="42.02543" lon="19.21075">
        <ele>262.611218</ele>
        <time>2022-05-26T10:30:22.210Z</time>
      </trkpt>
      <trkpt lat="42.02547" lon="19.21061">
        <ele>262.907846</ele>
        <time>2022-05-26T10:30:27.227Z</time>
      </trkpt>
      <trkpt lat="42.02551" lon="19.21049">
        <ele>263.178147</ele>
        <time>2022-05-26T10:30:32.215Z</time>
      </trkpt>
      <trkpt lat="42.02555" lon="19.21037">
        <ele>263.441351</ele>
        <time>2022-05-26T10:30:37.204Z</time>
      </trkpt>
      <trkpt lat="42.02559" lon="19.21024">
        <ele>263.720138</ele>
        <time>2022-05-26T10:30:43.206Z</time>
      </trkpt>
      <trkpt lat="42.02562" lon="19.21011">
        <ele>263.997187</ele>
        <time>2022-05-26T10:30:48.200Z</time>
      </trkpt>
      <trkpt lat="42.02565" lon="19.20996">
        <ele>264.303175</ele>
        <time>2022-05-26T10:30:54.219Z</time>
      </trkpt>
      <trkpt lat="42.02568" lon="19.20984">
        <ele>264.561627</ele>
        <time>2022-05-26T10:30:58.211Z</time>
      </trkpt>
      <trkpt lat="42.0257" lon="19.2097">
        <ele>264.84843</ele>
        <time>2022-05-26T10:31:03.199Z</time>
      </trkpt>
      <trkpt lat="42.02572" lon="19.20957">
        <ele>264.985007</ele>
        <time>2022-05-26T10:31:08.209Z</time>
      </trkpt>
      <trkpt lat="42.02573" lon="19.20945">
        <ele>265.115881</ele>
        <time>2022-05-26T10:31:13.208Z</time>
      </trkpt>
      <trkpt lat="42.02574" lon="19.20932">
        <ele>265.251429</ele>
        <time>2022-05-26T10:31:18.202Z</time>
      </trkpt>
      <trkpt lat="42.02575" lon="19.20919">
        <ele>265.384538</ele>
        <time>2022-05-26T10:31:23.202Z</time>
      </trkpt>
      <trkpt lat="42.02576" lon="19.20905">
        <ele>265.533455</ele>
        <time>2022-05-26T10:31:28.234Z</time>
      </trkpt>
      <trkpt lat="42.02577" lon="19.2089">
        <ele>265.683495</ele>
        <time>2022-05-26T10:31:33.204Z</time>
      </trkpt>
      <trkpt lat="42.02577" lon="19.20878">
        <ele>265.81453</ele>
        <time>2022-05-26T10:31:37.242Z</time>
      </trkpt>
      <trkpt lat="42.02577" lon="19.20865">
        <ele>265.942446</ele>
        <time>2022-05-26T10:31:41.202Z</time>
      </trkpt>
      <trkpt lat="42.02577" lon="19.20852">
        <ele>266.082809</ele>
        <time>2022-05-26T10:31:46.205Z</time>
      </trkpt>
      <trkpt lat="42.02578" lon="19.20838">
        <ele>266.232435</ele>
        <time>2022-05-26T10:31:51.195Z</time>
      </trkpt>
      <trkpt lat="42.02578" lon="19.20825">
        <ele>266.362671</ele>
        <time>2022-05-26T10:31:56.201Z</time>
      </trkpt>
      <trkpt lat="42.02577" lon="19.20812">
        <ele>266.496116</ele>
        <time>2022-05-26T10:32:01.215Z</time>
      </trkpt>
      <trkpt lat="42.02574" lon="19.20798">
        <ele>266.647509</ele>
        <time>2022-05-26T10:32:06.204Z</time>
      </trkpt>
      <trkpt lat="42.02572" lon="19.20786">
        <ele>266.775479</ele>
        <time>2022-05-26T10:32:10.208Z</time>
      </trkpt>
      <trkpt lat="42.0257" lon="19.20772">
        <ele>266.926018</ele>
        <time>2022-05-26T10:32:15.200Z</time>
      </trkpt>
      <trkpt lat="42.02567" lon="19.20759">
        <ele>267.070747</ele>
        <time>2022-05-26T10:32:21.203Z</time>
      </trkpt>
      <trkpt lat="42.02564" lon="19.20745">
        <ele>267.220135</ele>
        <time>2022-05-26T10:32:26.211Z</time>
      </trkpt>
      <trkpt lat="42.02563" lon="19.20733">
        <ele>267.346431</ele>
        <time>2022-05-26T10:32:30.219Z</time>
      </trkpt>
      <trkpt lat="42.02562" lon="19.20719">
        <ele>267.476353</ele>
        <time>2022-05-26T10:32:35.215Z</time>
      </trkpt>
      <trkpt lat="42.02561" lon="19.20707">
        <ele>267.588765</ele>
        <time>2022-05-26T10:32:39.197Z</time>
      </trkpt>
      <trkpt lat="42.0256" lon="19.20692">
        <ele>267.72317</ele>
        <time>2022-05-26T10:32:45.199Z</time>
      </trkpt>
      <trkpt lat="42.02558" lon="19.2068">
        <ele>267.842168</ele>
        <time>2022-05-26T10:32:50.232Z</time>
      </trkpt>
      <trkpt lat="42.02556" lon="19.20667">
        <ele>267.958018</ele>
        <time>2022-05-26T10:32:54.199Z</time>
      </trkpt>
      <trkpt lat="42.02554" lon="19.20653">
        <ele>268.091692</ele>
        <time>2022-05-26T10:32:58.202Z</time>
      </trkpt>
      <trkpt lat="42.02551" lon="19.20639">
        <ele>268.228954</ele>
        <time>2022-05-26T10:33:02.225Z</time>
      </trkpt>
      <trkpt lat="42.02548" lon="19.20625">
        <ele>268.365324</ele>
        <time>2022-05-26T10:33:06.198Z</time>
      </trkpt>
      <trkpt lat="42.02545" lon="19.20611">
        <ele>268.493143</ele>
        <time>2022-05-26T10:33:10.210Z</time>
      </trkpt>
      <trkpt lat="42.02543" lon="19.20599">
        <ele>268.609846</ele>
        <time>2022-05-26T10:33:14.200Z</time>
      </trkpt>
      <trkpt lat="42.0254" lon="19.20586">
        <ele>268.736257</ele>
        <time>2022-05-26T10:33:18.202Z</time>
      </trkpt>
      <trkpt lat="42.02537" lon="19.20572">
        <ele>268.874169</ele>
        <time>2022-05-26T10:33:23.204Z</time>
      </trkpt>
      <trkpt lat="42.02534" lon="19.20558">
        <ele>269.005877</ele>
        <time>2022-05-26T10:33:27.205Z</time>
      </trkpt>
      <trkpt lat="42.02531" lon="19.20544">
        <ele>269.136016</ele>
        <time>2022-05-26T10:33:31.199Z</time>
      </trkpt>
      <trkpt lat="42.02528" lon="19.2053">
        <ele>269.268823</ele>
        <time>2022-05-26T10:33:35.208Z</time>
      </trkpt>
      <trkpt lat="42.02525" lon="19.20516">
        <ele>269.406543</ele>
        <time>2022-05-26T10:33:39.198Z</time>
      </trkpt>
      <trkpt lat="42.02522" lon="19.20504">
        <ele>269.519894</ele>
        <time>2022-05-26T10:33:42.302Z</time>
      </trkpt>
      <trkpt lat="42.02518" lon="19.2049">
        <ele>269.597842</ele>
        <time>2022-05-26T10:33:46.206Z</time>
      </trkpt>
      <trkpt lat="42.02515" lon="19.20477">
        <ele>269.602908</ele>
        <time>2022-05-26T10:33:50.206Z</time>
      </trkpt>
      <trkpt lat="42.02513" lon="19.20463">
        <ele>269.608337</ele>
        <time>2022-05-26T10:33:54.205Z</time>
      </trkpt>
      <trkpt lat="42.02511" lon="19.20449">
        <ele>269.613743</ele>
        <time>2022-05-26T10:33:58.200Z</time>
      </trkpt>
      <trkpt lat="42.02509" lon="19.20437">
        <ele>269.618345</ele>
        <time>2022-05-26T10:34:01.240Z</time>
      </trkpt>
      <trkpt lat="42.02507" lon="19.20421">
        <ele>269.624382</ele>
        <time>2022-05-26T10:34:05.215Z</time>
      </trkpt>
      <trkpt lat="42.02506" lon="19.20408">
        <ele>269.629052</ele>
        <time>2022-05-26T10:34:08.205Z</time>
      </trkpt>
      <trkpt lat="42.02503" lon="19.20394">
        <ele>269.634577</ele>
        <time>2022-05-26T10:34:12.214Z</time>
      </trkpt>
      <trkpt lat="42.02501" lon="19.2038">
        <ele>269.640139</ele>
        <time>2022-05-26T10:34:16.205Z</time>
      </trkpt>
      <trkpt lat="42.02499" lon="19.20366">
        <ele>269.645453</ele>
        <time>2022-05-26T10:34:19.201Z</time>
      </trkpt>
      <trkpt lat="42.02496" lon="19.20352">
        <ele>269.650677</ele>
        <time>2022-05-26T10:34:22.199Z</time>
      </trkpt>
      <trkpt lat="42.02494" lon="19.20339">
        <ele>269.655657</ele>
        <time>2022-05-26T10:34:25.198Z</time>
      </trkpt>
      <trkpt lat="42.02492" lon="19.20327">
        <ele>269.660519</ele>
        <time>2022-05-26T10:34:28.207Z</time>
      </trkpt>
      <trkpt lat="42.0249" lon="19.20313">
        <ele>269.665791</ele>
        <time>2022-05-26T10:34:31.210Z</time>
      </trkpt>
      <trkpt lat="42.02487" lon="19.20299">
        <ele>269.671367</ele>
        <time>2022-05-26T10:34:34.220Z</time>
      </trkpt>
      <trkpt lat="42.02483" lon="19.20284">
        <ele>269.677238</ele>
        <time>2022-05-26T10:34:37.224Z</time>
      </trkpt>
      <trkpt lat="42.0248" lon="19.20269">
        <ele>269.683009</ele>
        <time>2022-05-26T10:34:40.203Z</time>
      </trkpt>
      <trkpt lat="42.02477" lon="19.20254">
        <ele>269.659493</ele>
        <time>2022-05-26T10:34:43.217Z</time>
      </trkpt>
      <trkpt lat="42.02473" lon="19.2024">
        <ele>269.611428</ele>
        <time>2022-05-26T10:34:46.210Z</time>
      </trkpt>
      <trkpt lat="42.02469" lon="19.20228">
        <ele>269.565822</ele>
        <time>2022-05-26T10:34:49.199Z</time>
      </trkpt>
      <trkpt lat="42.02465" lon="19.20215">
        <ele>269.522729</ele>
        <time>2022-05-26T10:34:52.208Z</time>
      </trkpt>
      <trkpt lat="42.02462" lon="19.20203">
        <ele>269.477429</ele>
        <time>2022-05-26T10:34:56.199Z</time>
      </trkpt>
      <trkpt lat="42.02458" lon="19.20189">
        <ele>269.428578</ele>
        <time>2022-05-26T10:35:00.203Z</time>
      </trkpt>
      <trkpt lat="42.02455" lon="19.20178">
        <ele>269.387815</ele>
        <time>2022-05-26T10:35:03.204Z</time>
      </trkpt>
      <trkpt lat="42.02451" lon="19.20165">
        <ele>269.344878</ele>
        <time>2022-05-26T10:35:06.223Z</time>
      </trkpt>
      <trkpt lat="42.02448" lon="19.20151">
        <ele>269.29617</ele>
        <time>2022-05-26T10:35:09.198Z</time>
      </trkpt>
      <trkpt lat="42.02445" lon="19.20137">
        <ele>269.24711</ele>
        <time>2022-05-26T10:35:12.198Z</time>
      </trkpt>
      <trkpt lat="42.02442" lon="19.20124">
        <ele>269.19975</ele>
        <time>2022-05-26T10:35:15.211Z</time>
      </trkpt>
      <trkpt lat="42.0244" lon="19.2011">
        <ele>269.15374</ele>
        <time>2022-05-26T10:35:18.208Z</time>
      </trkpt>
      <trkpt lat="42.02437" lon="19.20095">
        <ele>269.103046</ele>
        <time>2022-05-26T10:35:21.199Z</time>
      </trkpt>
      <trkpt lat="42.02435" lon="19.20078">
        <ele>269.046554</ele>
        <time>2022-05-26T10:35:24.203Z</time>
      </trkpt>
      <trkpt lat="42.02432" lon="19.20061">
        <ele>268.988021</ele>
        <time>2022-05-26T10:35:27.205Z</time>
      </trkpt>
      <trkpt lat="42.02429" lon="19.20045">
        <ele>268.931969</ele>
        <time>2022-05-26T10:35:30.213Z</time>
      </trkpt>
      <trkpt lat="42.02426" lon="19.20029">
        <ele>268.885047</ele>
        <time>2022-05-26T10:35:33.232Z</time>
      </trkpt>
      <trkpt lat="42.02424" lon="19.20013">
        <ele>268.908555</ele>
        <time>2022-05-26T10:35:36.199Z</time>
      </trkpt>
      <trkpt lat="42.02422" lon="19.20001">
        <ele>268.928944</ele>
        <time>2022-05-26T10:35:39.207Z</time>
      </trkpt>
      <trkpt lat="42.02419" lon="19.19986">
        <ele>268.952028</ele>
        <time>2022-05-26T10:35:42.204Z</time>
      </trkpt>
      <trkpt lat="42.02417" lon="19.19971">
        <ele>268.975752</ele>
        <time>2022-05-26T10:35:45.198Z</time>
      </trkpt>
      <trkpt lat="42.02416" lon="19.19957">
        <ele>268.997109</ele>
        <time>2022-05-26T10:35:48.200Z</time>
      </trkpt>
      <trkpt lat="42.02418" lon="19.19942">
        <ele>269.019253</ele>
        <time>2022-05-26T10:35:51.217Z</time>
      </trkpt>
      <trkpt lat="42.0242" lon="19.19928">
        <ele>269.041396</ele>
        <time>2022-05-26T10:35:54.206Z</time>
      </trkpt>
      <trkpt lat="42.02424" lon="19.19913">
        <ele>269.065762</ele>
        <time>2022-05-26T10:35:57.203Z</time>
      </trkpt>
      <trkpt lat="42.02427" lon="19.19899">
        <ele>269.088517</ele>
        <time>2022-05-26T10:36:00.211Z</time>
      </trkpt>
      <trkpt lat="42.02429" lon="19.19886">
        <ele>269.109057</ele>
        <time>2022-05-26T10:36:03.198Z</time>
      </trkpt>
      <trkpt lat="42.02431" lon="19.19871">
        <ele>269.131501</ele>
        <time>2022-05-26T10:36:06.213Z</time>
      </trkpt>
      <trkpt lat="42.02433" lon="19.19856">
        <ele>269.154471</ele>
        <time>2022-05-26T10:36:09.202Z</time>
      </trkpt>
      <trkpt lat="42.02436" lon="19.19843">
        <ele>269.174957</ele>
        <time>2022-05-26T10:36:12.209Z</time>
      </trkpt>
      <trkpt lat="42.02438" lon="19.19829">
        <ele>269.197142</ele>
        <time>2022-05-26T10:36:15.203Z</time>
      </trkpt>
      <trkpt lat="42.0244" lon="19.19814">
        <ele>269.22055</ele>
        <time>2022-05-26T10:36:18.203Z</time>
      </trkpt>
      <trkpt lat="42.02442" lon="19.198">
        <ele>269.243033</ele>
        <time>2022-05-26T10:36:21.204Z</time>
      </trkpt>
      <trkpt lat="42.02444" lon="19.19785">
        <ele>269.299302</ele>
        <time>2022-05-26T10:36:24.212Z</time>
      </trkpt>
      <trkpt lat="42.02447" lon="19.1977">
        <ele>269.382679</ele>
        <time>2022-05-26T10:36:27.200Z</time>
      </trkpt>
      <trkpt lat="42.02447" lon="19.19755">
        <ele>269.467803</ele>
        <time>2022-05-26T10:36:30.208Z</time>
      </trkpt>
      <trkpt lat="42.02448" lon="19.19739">
        <ele>269.555557</ele>
        <time>2022-05-26T10:36:33.200Z</time>
      </trkpt>
      <trkpt lat="42.02449" lon="19.19722">
        <ele>269.644534</ele>
        <time>2022-05-26T10:36:36.202Z</time>
      </trkpt>
      <trkpt lat="42.0245" lon="19.19707">
        <ele>269.729229</ele>
        <time>2022-05-26T10:36:39.203Z</time>
      </trkpt>
      <trkpt lat="42.02451" lon="19.19692">
        <ele>269.811081</ele>
        <time>2022-05-26T10:36:42.201Z</time>
      </trkpt>
      <trkpt lat="42.02454" lon="19.19677">
        <ele>269.895674</ele>
        <time>2022-05-26T10:36:45.203Z</time>
      </trkpt>
      <trkpt lat="42.02456" lon="19.19662">
        <ele>269.977074</ele>
        <time>2022-05-26T10:36:48.204Z</time>
      </trkpt>
      <trkpt lat="42.02459" lon="19.19647">
        <ele>270.059007</ele>
        <time>2022-05-26T10:36:51.199Z</time>
      </trkpt>
      <trkpt lat="42.02461" lon="19.19633">
        <ele>270.139854</ele>
        <time>2022-05-26T10:36:54.204Z</time>
      </trkpt>
      <trkpt lat="42.02463" lon="19.19619">
        <ele>270.216928</ele>
        <time>2022-05-26T10:36:57.204Z</time>
      </trkpt>
      <trkpt lat="42.02465" lon="19.19606">
        <ele>270.289735</ele>
        <time>2022-05-26T10:37:00.225Z</time>
      </trkpt>
      <trkpt lat="42.02467" lon="19.19592">
        <ele>270.365471</ele>
        <time>2022-05-26T10:37:04.200Z</time>
      </trkpt>
      <trkpt lat="42.02468" lon="19.19579">
        <ele>270.439256</ele>
        <time>2022-05-26T10:37:10.212Z</time>
      </trkpt>
      <trkpt lat="42.02466" lon="19.19564">
        <ele>270.520301</ele>
        <time>2022-05-26T10:37:14.205Z</time>
      </trkpt>
      <trkpt lat="42.02463" lon="19.1955">
        <ele>270.45513</ele>
        <time>2022-05-26T10:37:17.196Z</time>
      </trkpt>
      <trkpt lat="42.02458" lon="19.19535">
        <ele>270.077595</ele>
        <time>2022-05-26T10:37:20.208Z</time>
      </trkpt>
      <trkpt lat="42.02454" lon="19.19525">
        <ele>269.790558</ele>
        <time>2022-05-26T10:37:22.218Z</time>
      </trkpt>
      <trkpt lat="42.02448" lon="19.19513">
        <ele>269.47304</ele>
        <time>2022-05-26T10:37:24.203Z</time>
      </trkpt>
      <trkpt lat="42.02442" lon="19.19501">
        <ele>269.13272</ele>
        <time>2022-05-26T10:37:26.221Z</time>
      </trkpt>
      <trkpt lat="42.02436" lon="19.19489">
        <ele>268.79696</ele>
        <time>2022-05-26T10:37:28.203Z</time>
      </trkpt>
      <trkpt lat="42.0243" lon="19.19476">
        <ele>268.455459</ele>
        <time>2022-05-26T10:37:30.211Z</time>
      </trkpt>
      <trkpt lat="42.02424" lon="19.19463">
        <ele>268.107615</ele>
        <time>2022-05-26T10:37:32.201Z</time>
      </trkpt>
      <trkpt lat="42.02418" lon="19.19451">
        <ele>267.762465</ele>
        <time>2022-05-26T10:37:34.204Z</time>
      </trkpt>
      <trkpt lat="42.02413" lon="19.1944">
        <ele>267.453559</ele>
        <time>2022-05-26T10:37:36.215Z</time>
      </trkpt>
      <trkpt lat="42.02407" lon="19.19428">
        <ele>267.133528</ele>
        <time>2022-05-26T10:37:38.214Z</time>
      </trkpt>
      <trkpt lat="42.02403" lon="19.19417">
        <ele>266.848059</ele>
        <time>2022-05-26T10:37:40.200Z</time>
      </trkpt>
      <trkpt lat="42.02398" lon="19.19406">
        <ele>266.564133</ele>
        <time>2022-05-26T10:37:42.199Z</time>
      </trkpt>
      <trkpt lat="42.02393" lon="19.19391">
        <ele>266.159243</ele>
        <time>2022-05-26T10:37:45.207Z</time>
      </trkpt>
      <trkpt lat="42.02387" lon="19.19375">
        <ele>265.749228</ele>
        <time>2022-05-26T10:37:48.218Z</time>
      </trkpt>
      <trkpt lat="42.02382" lon="19.1936">
        <ele>265.373793</ele>
        <time>2022-05-26T10:37:51.203Z</time>
      </trkpt>
      <trkpt lat="42.0238" lon="19.19343">
        <ele>264.978182</ele>
        <time>2022-05-26T10:37:54.214Z</time>
      </trkpt>
      <trkpt lat="42.02379" lon="19.19326">
        <ele>264.862839</ele>
        <time>2022-05-26T10:37:57.202Z</time>
      </trkpt>
      <trkpt lat="42.0238" lon="19.19308">
        <ele>264.741787</ele>
        <time>2022-05-26T10:38:00.209Z</time>
      </trkpt>
      <trkpt lat="42.02381" lon="19.19296">
        <ele>264.658497</ele>
        <time>2022-05-26T10:38:02.206Z</time>
      </trkpt>
      <trkpt lat="42.02382" lon="19.19284">
        <ele>264.575987</ele>
        <time>2022-05-26T10:38:04.212Z</time>
      </trkpt>
      <trkpt lat="42.02383" lon="19.19271">
        <ele>264.492546</ele>
        <time>2022-05-26T10:38:06.214Z</time>
      </trkpt>
      <trkpt lat="42.02384" lon="19.19259">
        <ele>264.410744</ele>
        <time>2022-05-26T10:38:08.229Z</time>
      </trkpt>
      <trkpt lat="42.02386" lon="19.19247">
        <ele>264.327951</ele>
        <time>2022-05-26T10:38:10.212Z</time>
      </trkpt>
      <trkpt lat="42.02387" lon="19.19235">
        <ele>264.243316</ele>
        <time>2022-05-26T10:38:12.201Z</time>
      </trkpt>
      <trkpt lat="42.02388" lon="19.19223">
        <ele>264.160806</ele>
        <time>2022-05-26T10:38:14.200Z</time>
      </trkpt>
      <trkpt lat="42.0239" lon="19.19205">
        <ele>264.040362</ele>
        <time>2022-05-26T10:38:17.206Z</time>
      </trkpt>
      <trkpt lat="42.02391" lon="19.19193">
        <ele>263.957273</ele>
        <time>2022-05-26T10:38:19.205Z</time>
      </trkpt>
      <trkpt lat="42.02392" lon="19.1918">
        <ele>263.863977</ele>
        <time>2022-05-26T10:38:21.205Z</time>
      </trkpt>
      <trkpt lat="42.02393" lon="19.19166">
        <ele>263.774728</ele>
        <time>2022-05-26T10:38:23.229Z</time>
      </trkpt>
      <trkpt lat="42.02393" lon="19.19153">
        <ele>263.684549</ele>
        <time>2022-05-26T10:38:25.205Z</time>
      </trkpt>
      <trkpt lat="42.02393" lon="19.19141">
        <ele>263.599111</ele>
        <time>2022-05-26T10:38:27.203Z</time>
      </trkpt>
      <trkpt lat="42.02393" lon="19.19128">
        <ele>263.513036</ele>
        <time>2022-05-26T10:38:29.228Z</time>
      </trkpt>
      <trkpt lat="42.02392" lon="19.19115">
        <ele>263.424179</ele>
        <time>2022-05-26T10:38:31.197Z</time>
      </trkpt>
      <trkpt lat="42.02392" lon="19.19097">
        <ele>263.340966</ele>
        <time>2022-05-26T10:38:34.198Z</time>
      </trkpt>
      <trkpt lat="42.02392" lon="19.1908">
        <ele>263.347585</ele>
        <time>2022-05-26T10:38:37.200Z</time>
      </trkpt>
      <trkpt lat="42.02391" lon="19.19068">
        <ele>263.352362</ele>
        <time>2022-05-26T10:38:39.201Z</time>
      </trkpt>
      <trkpt lat="42.02391" lon="19.19051">
        <ele>263.358904</ele>
        <time>2022-05-26T10:38:42.199Z</time>
      </trkpt>
      <trkpt lat="42.0239" lon="19.19035">
        <ele>263.365561</ele>
        <time>2022-05-26T10:38:45.201Z</time>
      </trkpt>
      <trkpt lat="42.02391" lon="19.19017">
        <ele>263.372298</ele>
        <time>2022-05-26T10:38:48.199Z</time>
      </trkpt>
      <trkpt lat="42.02392" lon="19.19002">
        <ele>263.378605</ele>
        <time>2022-05-26T10:38:51.208Z</time>
      </trkpt>
      <trkpt lat="42.02396" lon="19.18988">
        <ele>263.384283</ele>
        <time>2022-05-26T10:38:54.202Z</time>
      </trkpt>
      <trkpt lat="42.02405" lon="19.18976">
        <ele>263.390958</ele>
        <time>2022-05-26T10:38:57.209Z</time>
      </trkpt>
      <trkpt lat="42.02411" lon="19.18965">
        <ele>263.396178</ele>
        <time>2022-05-26T10:38:59.196Z</time>
      </trkpt>
      <trkpt lat="42.02418" lon="19.18955">
        <ele>263.401626</ele>
        <time>2022-05-26T10:39:01.197Z</time>
      </trkpt>
      <trkpt lat="42.02425" lon="19.18943">
        <ele>263.407659</ele>
        <time>2022-05-26T10:39:03.209Z</time>
      </trkpt>
      <trkpt lat="42.02433" lon="19.18932">
        <ele>263.413723</ele>
        <time>2022-05-26T10:39:05.208Z</time>
      </trkpt>
      <trkpt lat="42.02442" lon="19.18922">
        <ele>263.419977</ele>
        <time>2022-05-26T10:39:07.202Z</time>
      </trkpt>
      <trkpt lat="42.02451" lon="19.18911">
        <ele>263.426555</ele>
        <time>2022-05-26T10:39:09.209Z</time>
      </trkpt>
      <trkpt lat="42.02457" lon="19.18898">
        <ele>263.432433</ele>
        <time>2022-05-26T10:39:11.203Z</time>
      </trkpt>
      <trkpt lat="42.0246" lon="19.18882">
        <ele>263.279885</ele>
        <time>2022-05-26T10:39:13.205Z</time>
      </trkpt>
      <trkpt lat="42.02465" lon="19.18863">
        <ele>263.037494</ele>
        <time>2022-05-26T10:39:15.206Z</time>
      </trkpt>
      <trkpt lat="42.02469" lon="19.18846">
        <ele>262.803276</ele>
        <time>2022-05-26T10:39:17.201Z</time>
      </trkpt>
      <trkpt lat="42.02475" lon="19.18829">
        <ele>262.566514</ele>
        <time>2022-05-26T10:39:19.212Z</time>
      </trkpt>
      <trkpt lat="42.0248" lon="19.18807">
        <ele>262.276263</ele>
        <time>2022-05-26T10:39:21.195Z</time>
      </trkpt>
      <trkpt lat="42.02484" lon="19.18794">
        <ele>262.103777</ele>
        <time>2022-05-26T10:39:22.203Z</time>
      </trkpt>
      <trkpt lat="42.02487" lon="19.18781">
        <ele>261.93016</ele>
        <time>2022-05-26T10:39:23.211Z</time>
      </trkpt>
      <trkpt lat="42.02491" lon="19.18768">
        <ele>261.759422</ele>
        <time>2022-05-26T10:39:24.207Z</time>
      </trkpt>
      <trkpt lat="42.02495" lon="19.18757">
        <ele>261.606025</ele>
        <time>2022-05-26T10:39:25.201Z</time>
      </trkpt>
      <trkpt lat="42.02499" lon="19.18746">
        <ele>261.447002</ele>
        <time>2022-05-26T10:39:26.240Z</time>
      </trkpt>
      <trkpt lat="42.02503" lon="19.18735">
        <ele>261.29263</ele>
        <time>2022-05-26T10:39:27.205Z</time>
      </trkpt>
      <trkpt lat="42.02506" lon="19.18723">
        <ele>261.140006</ele>
        <time>2022-05-26T10:39:28.208Z</time>
      </trkpt>
      <trkpt lat="42.02508" lon="19.18711">
        <ele>260.98232</ele>
        <time>2022-05-26T10:39:29.235Z</time>
      </trkpt>
      <trkpt lat="42.02512" lon="19.18688">
        <ele>260.686571</ele>
        <time>2022-05-26T10:39:31.198Z</time>
      </trkpt>
      <trkpt lat="42.02516" lon="19.18666">
        <ele>260.404209</ele>
        <time>2022-05-26T10:39:33.206Z</time>
      </trkpt>
      <trkpt lat="42.0252" lon="19.18645">
        <ele>259.924994</ele>
        <time>2022-05-26T10:39:35.212Z</time>
      </trkpt>
      <trkpt lat="42.02523" lon="19.18624">
        <ele>259.428318</ele>
        <time>2022-05-26T10:39:37.196Z</time>
      </trkpt>
      <trkpt lat="42.02526" lon="19.18603">
        <ele>258.931684</ele>
        <time>2022-05-26T10:39:39.207Z</time>
      </trkpt>
      <trkpt lat="42.02528" lon="19.18582">
        <ele>258.460342</ele>
        <time>2022-05-26T10:39:41.207Z</time>
      </trkpt>
      <trkpt lat="42.02532" lon="19.18565">
        <ele>258.05355</ele>
        <time>2022-05-26T10:39:43.226Z</time>
      </trkpt>
      <trkpt lat="42.02537" lon="19.18551">
        <ele>257.68551</ele>
        <time>2022-05-26T10:39:45.204Z</time>
      </trkpt>
      <trkpt lat="42.02544" lon="19.1854">
        <ele>257.360395</ele>
        <time>2022-05-26T10:39:47.203Z</time>
      </trkpt>
      <trkpt lat="42.02552" lon="19.1853">
        <ele>257.032951</ele>
        <time>2022-05-26T10:39:50.201Z</time>
      </trkpt>
      <trkpt lat="42.0256" lon="19.18522">
        <ele>256.713852</ele>
        <time>2022-05-26T10:39:55.201Z</time>
      </trkpt>
      <trkpt lat="42.02567" lon="19.18513">
        <ele>256.41989</ele>
        <time>2022-05-26T10:39:57.200Z</time>
      </trkpt>
      <trkpt lat="42.02573" lon="19.18501">
        <ele>256.103439</ele>
        <time>2022-05-26T10:39:59.198Z</time>
      </trkpt>
      <trkpt lat="42.02576" lon="19.1849">
        <ele>255.811592</ele>
        <time>2022-05-26T10:40:01.223Z</time>
      </trkpt>
      <trkpt lat="42.02581" lon="19.18474">
        <ele>255.423279</ele>
        <time>2022-05-26T10:40:04.208Z</time>
      </trkpt>
      <trkpt lat="42.02587" lon="19.18461">
        <ele>255.082551</ele>
        <time>2022-05-26T10:40:07.219Z</time>
      </trkpt>
      <trkpt lat="42.02596" lon="19.18451">
        <ele>254.800489</ele>
        <time>2022-05-26T10:40:10.199Z</time>
      </trkpt>
      <trkpt lat="42.02606" lon="19.18442">
        <ele>254.629147</ele>
        <time>2022-05-26T10:40:13.224Z</time>
      </trkpt>
      <trkpt lat="42.02614" lon="19.1843">
        <ele>254.451592</ele>
        <time>2022-05-26T10:40:16.203Z</time>
      </trkpt>
      <trkpt lat="42.02619" lon="19.18419">
        <ele>254.316748</ele>
        <time>2022-05-26T10:40:18.205Z</time>
      </trkpt>
      <trkpt lat="42.02624" lon="19.18408">
        <ele>254.184127</ele>
        <time>2022-05-26T10:40:20.201Z</time>
      </trkpt>
      <trkpt lat="42.02628" lon="19.18392">
        <ele>253.997012</ele>
        <time>2022-05-26T10:40:23.208Z</time>
      </trkpt>
      <trkpt lat="42.02631" lon="19.18376">
        <ele>253.828711</ele>
        <time>2022-05-26T10:40:26.210Z</time>
      </trkpt>
      <trkpt lat="42.02632" lon="19.18361">
        <ele>253.670957</ele>
        <time>2022-05-26T10:40:30.206Z</time>
      </trkpt>
      <trkpt lat="42.02635" lon="19.18347">
        <ele>253.515333</ele>
        <time>2022-05-26T10:40:35.208Z</time>
      </trkpt>
      <trkpt lat="42.02639" lon="19.18333">
        <ele>253.350639</ele>
        <time>2022-05-26T10:40:39.202Z</time>
      </trkpt>
      <trkpt lat="42.02641" lon="19.1832">
        <ele>253.217702</ele>
        <time>2022-05-26T10:40:42.226Z</time>
      </trkpt>
      <trkpt lat="42.02643" lon="19.18305">
        <ele>253.052793</ele>
        <time>2022-05-26T10:40:45.207Z</time>
      </trkpt>
      <trkpt lat="42.02645" lon="19.1829">
        <ele>252.892848</ele>
        <time>2022-05-26T10:40:48.199Z</time>
      </trkpt>
      <trkpt lat="42.02646" lon="19.18276">
        <ele>252.737632</ele>
        <time>2022-05-26T10:40:51.209Z</time>
      </trkpt>
      <trkpt lat="42.02648" lon="19.18262">
        <ele>252.586809</ele>
        <time>2022-05-26T10:40:54.200Z</time>
      </trkpt>
      <trkpt lat="42.02648" lon="19.18249">
        <ele>252.447633</ele>
        <time>2022-05-26T10:40:57.202Z</time>
      </trkpt>
      <trkpt lat="42.02648" lon="19.18236">
        <ele>252.31263</ele>
        <time>2022-05-26T10:41:00.203Z</time>
      </trkpt>
      <trkpt lat="42.02647" lon="19.18223">
        <ele>252.117497</ele>
        <time>2022-05-26T10:41:03.204Z</time>
      </trkpt>
      <trkpt lat="42.02645" lon="19.18211">
        <ele>251.910147</ele>
        <time>2022-05-26T10:41:06.218Z</time>
      </trkpt>
      <trkpt lat="42.02645" lon="19.18198">
        <ele>251.695613</ele>
        <time>2022-05-26T10:41:09.197Z</time>
      </trkpt>
      <trkpt lat="42.02645" lon="19.18184">
        <ele>251.46545</ele>
        <time>2022-05-26T10:41:12.212Z</time>
      </trkpt>
      <trkpt lat="42.02646" lon="19.18168">
        <ele>251.199143</ele>
        <time>2022-05-26T10:41:15.224Z</time>
      </trkpt>
      <trkpt lat="42.02651" lon="19.18153">
        <ele>250.922618</ele>
        <time>2022-05-26T10:41:18.200Z</time>
      </trkpt>
      <trkpt lat="42.02658" lon="19.18138">
        <ele>250.637056</ele>
        <time>2022-05-26T10:41:21.235Z</time>
      </trkpt>
      <trkpt lat="42.02665" lon="19.18125">
        <ele>250.361891</ele>
        <time>2022-05-26T10:41:24.198Z</time>
      </trkpt>
      <trkpt lat="42.02671" lon="19.18115">
        <ele>250.159784</ele>
        <time>2022-05-26T10:41:26.205Z</time>
      </trkpt>
      <trkpt lat="42.02677" lon="19.18105">
        <ele>249.945652</ele>
        <time>2022-05-26T10:41:28.215Z</time>
      </trkpt>
      <trkpt lat="42.02683" lon="19.18095">
        <ele>249.727098</ele>
        <time>2022-05-26T10:41:30.200Z</time>
      </trkpt>
      <trkpt lat="42.0269" lon="19.18085">
        <ele>249.494724</ele>
        <time>2022-05-26T10:41:32.201Z</time>
      </trkpt>
      <trkpt lat="42.02697" lon="19.18074">
        <ele>249.25533</ele>
        <time>2022-05-26T10:41:34.205Z</time>
      </trkpt>
      <trkpt lat="42.02703" lon="19.18062">
        <ele>249.023269</ele>
        <time>2022-05-26T10:41:36.206Z</time>
      </trkpt>
      <trkpt lat="42.02708" lon="19.18051">
        <ele>248.806336</ele>
        <time>2022-05-26T10:41:38.207Z</time>
      </trkpt>
      <trkpt lat="42.02714" lon="19.1804">
        <ele>248.582908</ele>
        <time>2022-05-26T10:41:40.214Z</time>
      </trkpt>
      <trkpt lat="42.02719" lon="19.18028">
        <ele>248.362564</ele>
        <time>2022-05-26T10:41:42.211Z</time>
      </trkpt>
      <trkpt lat="42.02722" lon="19.1801">
        <ele>248.197128</ele>
        <time>2022-05-26T10:41:45.206Z</time>
      </trkpt>
      <trkpt lat="42.02723" lon="19.17997">
        <ele>248.116562</ele>
        <time>2022-05-26T10:41:47.207Z</time>
      </trkpt>
      <trkpt lat="42.02724" lon="19.17981">
        <ele>248.025135</ele>
        <time>2022-05-26T10:41:49.230Z</time>
      </trkpt>
      <trkpt lat="42.02726" lon="19.17966">
        <ele>247.929385</ele>
        <time>2022-05-26T10:41:51.205Z</time>
      </trkpt>
      <trkpt lat="42.0273" lon="19.17953">
        <ele>247.846093</ele>
        <time>2022-05-26T10:41:53.198Z</time>
      </trkpt>
      <trkpt lat="42.02735" lon="19.1794">
        <ele>247.757792</ele>
        <time>2022-05-26T10:41:55.234Z</time>
      </trkpt>
      <trkpt lat="42.02741" lon="19.17928">
        <ele>247.673649</ele>
        <time>2022-05-26T10:41:57.198Z</time>
      </trkpt>
      <trkpt lat="42.02748" lon="19.17919">
        <ele>247.592472</ele>
        <time>2022-05-26T10:41:59.205Z</time>
      </trkpt>
      <trkpt lat="42.02755" lon="19.17909">
        <ele>247.508491</ele>
        <time>2022-05-26T10:42:01.229Z</time>
      </trkpt>
      <trkpt lat="42.02761" lon="19.179">
        <ele>247.435344</ele>
        <time>2022-05-26T10:42:03.201Z</time>
      </trkpt>
      <trkpt lat="42.0277" lon="19.17889">
        <ele>247.336418</ele>
        <time>2022-05-26T10:42:06.211Z</time>
      </trkpt>
      <trkpt lat="42.02777" lon="19.17877">
        <ele>247.243133</ele>
        <time>2022-05-26T10:42:09.209Z</time>
      </trkpt>
      <trkpt lat="42.02785" lon="19.17864">
        <ele>247.144255</ele>
        <time>2022-05-26T10:42:12.206Z</time>
      </trkpt>
      <trkpt lat="42.02791" lon="19.1785">
        <ele>247.043009</ele>
        <time>2022-05-26T10:42:15.207Z</time>
      </trkpt>
      <trkpt lat="42.02797" lon="19.17834">
        <ele>246.939759</ele>
        <time>2022-05-26T10:42:18.231Z</time>
      </trkpt>
      <trkpt lat="42.02802" lon="19.1782">
        <ele>246.845707</ele>
        <time>2022-05-26T10:42:21.214Z</time>
      </trkpt>
      <trkpt lat="42.02807" lon="19.17803">
        <ele>246.593749</ele>
        <time>2022-05-26T10:42:24.245Z</time>
      </trkpt>
      <trkpt lat="42.02811" lon="19.17786">
        <ele>246.316466</ele>
        <time>2022-05-26T10:42:27.216Z</time>
      </trkpt>
      <trkpt lat="42.02815" lon="19.17775">
        <ele>246.126984</ele>
        <time>2022-05-26T10:42:29.221Z</time>
      </trkpt>
      <trkpt lat="42.0282" lon="19.17758">
        <ele>245.844185</ele>
        <time>2022-05-26T10:42:32.223Z</time>
      </trkpt>
      <trkpt lat="42.02826" lon="19.17742">
        <ele>245.56961</ele>
        <time>2022-05-26T10:42:35.234Z</time>
      </trkpt>
      <trkpt lat="42.02831" lon="19.17732">
        <ele>245.380595</ele>
        <time>2022-05-26T10:42:37.221Z</time>
      </trkpt>
      <trkpt lat="42.02838" lon="19.17717">
        <ele>245.098418</ele>
        <time>2022-05-26T10:42:40.241Z</time>
      </trkpt>
      <trkpt lat="42.02843" lon="19.17705">
        <ele>244.886447</ele>
        <time>2022-05-26T10:42:42.236Z</time>
      </trkpt>
      <trkpt lat="42.02848" lon="19.17694">
        <ele>244.688856</ele>
        <time>2022-05-26T10:42:44.238Z</time>
      </trkpt>
      <trkpt lat="42.02856" lon="19.1768">
        <ele>244.413395</ele>
        <time>2022-05-26T10:42:47.222Z</time>
      </trkpt>
      <trkpt lat="42.02864" lon="19.17665">
        <ele>244.130423</ele>
        <time>2022-05-26T10:42:50.232Z</time>
      </trkpt>
      <trkpt lat="42.0287" lon="19.17654">
        <ele>243.923518</ele>
        <time>2022-05-26T10:42:52.265Z</time>
      </trkpt>
      <trkpt lat="42.02877" lon="19.17644">
        <ele>243.711296</ele>
        <time>2022-05-26T10:42:54.230Z</time>
      </trkpt>
      <trkpt lat="42.02884" lon="19.17634">
        <ele>243.486153</ele>
        <time>2022-05-26T10:42:56.247Z</time>
      </trkpt>
      <trkpt lat="42.02893" lon="19.17625">
        <ele>243.263384</ele>
        <time>2022-05-26T10:42:58.226Z</time>
      </trkpt>
      <trkpt lat="42.02901" lon="19.17616">
        <ele>243.059431</ele>
        <time>2022-05-26T10:43:00.215Z</time>
      </trkpt>
      <trkpt lat="42.0291" lon="19.17607">
        <ele>243.019435</ele>
        <time>2022-05-26T10:43:02.242Z</time>
      </trkpt>
      <trkpt lat="42.02918" lon="19.176">
        <ele>242.987908</ele>
        <time>2022-05-26T10:43:04.237Z</time>
      </trkpt>
      <trkpt lat="42.02927" lon="19.17595">
        <ele>242.954014</ele>
        <time>2022-05-26T10:43:06.233Z</time>
      </trkpt>
      <trkpt lat="42.02936" lon="19.17588">
        <ele>242.91678</ele>
        <time>2022-05-26T10:43:08.234Z</time>
      </trkpt>
      <trkpt lat="42.02944" lon="19.17582">
        <ele>242.882711</ele>
        <time>2022-05-26T10:43:10.235Z</time>
      </trkpt>
      <trkpt lat="42.02956" lon="19.17576">
        <ele>242.838285</ele>
        <time>2022-05-26T10:43:13.226Z</time>
      </trkpt>
      <trkpt lat="42.02969" lon="19.17571">
        <ele>242.792445</ele>
        <time>2022-05-26T10:43:16.232Z</time>
      </trkpt>
      <trkpt lat="42.02979" lon="19.17565">
        <ele>242.754741</ele>
        <time>2022-05-26T10:43:18.227Z</time>
      </trkpt>
      <trkpt lat="42.02987" lon="19.17559">
        <ele>242.720364</ele>
        <time>2022-05-26T10:43:20.254Z</time>
      </trkpt>
      <trkpt lat="42.02996" lon="19.1755">
        <ele>242.682343</ele>
        <time>2022-05-26T10:43:22.239Z</time>
      </trkpt>
      <trkpt lat="42.03001" lon="19.17539">
        <ele>242.648365</ele>
        <time>2022-05-26T10:43:24.215Z</time>
      </trkpt>
      <trkpt lat="42.03003" lon="19.17522">
        <ele>242.604003</ele>
        <time>2022-05-26T10:43:27.224Z</time>
      </trkpt>
      <trkpt lat="42.03005" lon="19.17505">
        <ele>242.560087</ele>
        <time>2022-05-26T10:43:30.234Z</time>
      </trkpt>
      <trkpt lat="42.03011" lon="19.17492">
        <ele>242.518154</ele>
        <time>2022-05-26T10:43:33.224Z</time>
      </trkpt>
      <trkpt lat="42.03023" lon="19.17486">
        <ele>242.475271</ele>
        <time>2022-05-26T10:43:35.218Z</time>
      </trkpt>
      <trkpt lat="42.03037" lon="19.1748">
        <ele>242.449294</ele>
        <time>2022-05-26T10:43:37.237Z</time>
      </trkpt>
      <trkpt lat="42.03048" lon="19.17474">
        <ele>242.522549</ele>
        <time>2022-05-26T10:43:39.238Z</time>
      </trkpt>
      <trkpt lat="42.03057" lon="19.17467">
        <ele>242.582511</ele>
        <time>2022-05-26T10:43:41.232Z</time>
      </trkpt>
      <trkpt lat="42.03066" lon="19.17465">
        <ele>242.638486</ele>
        <time>2022-05-26T10:43:43.235Z</time>
      </trkpt>
      <trkpt lat="42.03075" lon="19.17462">
        <ele>242.694506</ele>
        <time>2022-05-26T10:43:45.220Z</time>
      </trkpt>
      <trkpt lat="42.03085" lon="19.17462">
        <ele>242.753997</ele>
        <time>2022-05-26T10:43:47.224Z</time>
      </trkpt>
      <trkpt lat="42.03094" lon="19.17464">
        <ele>242.810327</ele>
        <time>2022-05-26T10:43:49.236Z</time>
      </trkpt>
      <trkpt lat="42.03106" lon="19.17467">
        <ele>242.888854</ele>
        <time>2022-05-26T10:43:52.229Z</time>
      </trkpt>
      <trkpt lat="42.03119" lon="19.17468">
        <ele>242.967989</ele>
        <time>2022-05-26T10:43:55.216Z</time>
      </trkpt>
      <trkpt lat="42.03128" lon="19.17468">
        <ele>243.024362</ele>
        <time>2022-05-26T10:43:57.225Z</time>
      </trkpt>
      <trkpt lat="42.03139" lon="19.17464">
        <ele>243.09166</ele>
        <time>2022-05-26T10:44:00.260Z</time>
      </trkpt>
      <trkpt lat="42.03146" lon="19.17455">
        <ele>243.152103</ele>
        <time>2022-05-26T10:44:03.266Z</time>
      </trkpt>
      <trkpt lat="42.0315" lon="19.17444">
        <ele>243.208649</ele>
        <time>2022-05-26T10:44:06.218Z</time>
      </trkpt>
      <trkpt lat="42.03156" lon="19.17429">
        <ele>243.285065</ele>
        <time>2022-05-26T10:44:09.239Z</time>
      </trkpt>
      <trkpt lat="42.03162" lon="19.17415">
        <ele>243.358172</ele>
        <time>2022-05-26T10:44:12.236Z</time>
      </trkpt>
      <trkpt lat="42.03167" lon="19.17403">
        <ele>243.421956</ele>
        <time>2022-05-26T10:44:15.223Z</time>
      </trkpt>
      <trkpt lat="42.03172" lon="19.17391">
        <ele>243.482572</ele>
        <time>2022-05-26T10:44:18.236Z</time>
      </trkpt>
      <trkpt lat="42.03178" lon="19.17379">
        <ele>243.574761</ele>
        <time>2022-05-26T10:44:21.252Z</time>
      </trkpt>
      <trkpt lat="42.03185" lon="19.17366">
        <ele>243.816293</ele>
        <time>2022-05-26T10:44:24.221Z</time>
      </trkpt>
      <trkpt lat="42.03192" lon="19.17354">
        <ele>244.057321</ele>
        <time>2022-05-26T10:44:27.272Z</time>
      </trkpt>
      <trkpt lat="42.032" lon="19.1734">
        <ele>244.30603</ele>
        <time>2022-05-26T10:44:30.243Z</time>
      </trkpt>
      <trkpt lat="42.03201" lon="19.17328">
        <ele>244.487954</ele>
        <time>2022-05-26T10:44:34.210Z</time>
      </trkpt>
      <trkpt lat="42.03211" lon="19.17319">
        <ele>244.720218</ele>
        <time>2022-05-26T10:44:37.223Z</time>
      </trkpt>
      <trkpt lat="42.0322" lon="19.17312">
        <ele>244.938533</ele>
        <time>2022-05-26T10:44:41.225Z</time>
      </trkpt>
      <trkpt lat="42.03231" lon="19.17306">
        <ele>245.170567</ele>
        <time>2022-05-26T10:44:47.232Z</time>
      </trkpt>
      <trkpt lat="42.0324" lon="19.17302">
        <ele>245.361541</ele>
        <time>2022-05-26T10:44:52.220Z</time>
      </trkpt>
      <trkpt lat="42.03244" lon="19.17287">
        <ele>245.598963</ele>
        <time>2022-05-26T10:44:58.229Z</time>
      </trkpt>
      <trkpt lat="42.03254" lon="19.1729">
        <ele>245.805389</ele>
        <time>2022-05-26T10:48:05.252Z</time>
      </trkpt>
      <trkpt lat="42.03263" lon="19.17283">
        <ele>246.020252</ele>
        <time>2022-05-26T10:48:09.217Z</time>
      </trkpt>
      <trkpt lat="42.03269" lon="19.17271">
        <ele>246.235568</ele>
        <time>2022-05-26T10:48:12.222Z</time>
      </trkpt>
      <trkpt lat="42.03273" lon="19.17258">
        <ele>246.442365</ele>
        <time>2022-05-26T10:48:15.254Z</time>
      </trkpt>
      <trkpt lat="42.03276" lon="19.17247">
        <ele>246.626688</ele>
        <time>2022-05-26T10:48:18.227Z</time>
      </trkpt>
      <trkpt lat="42.03282" lon="19.17233">
        <ele>246.862516</ele>
        <time>2022-05-26T10:48:22.334Z</time>
      </trkpt>
      <trkpt lat="42.03286" lon="19.17219">
        <ele>247.08314</ele>
        <time>2022-05-26T10:48:26.222Z</time>
      </trkpt>
      <trkpt lat="42.03289" lon="19.17206">
        <ele>247.06418</ele>
        <time>2022-05-26T10:48:29.208Z</time>
      </trkpt>
      <trkpt lat="42.03291" lon="19.17193">
        <ele>246.956474</ele>
        <time>2022-05-26T10:48:32.201Z</time>
      </trkpt>
      <trkpt lat="42.03297" lon="19.1718">
        <ele>246.833522</ele>
        <time>2022-05-26T10:48:36.221Z</time>
      </trkpt>
      <trkpt lat="42.03304" lon="19.17171">
        <ele>246.724792</ele>
        <time>2022-05-26T10:48:39.219Z</time>
      </trkpt>
      <trkpt lat="42.03312" lon="19.17164">
        <ele>246.621489</ele>
        <time>2022-05-26T10:48:42.296Z</time>
      </trkpt>
      <trkpt lat="42.0332" lon="19.17157">
        <ele>246.518175</ele>
        <time>2022-05-26T10:48:45.254Z</time>
      </trkpt>
      <trkpt lat="42.03328" lon="19.17149">
        <ele>246.411629</ele>
        <time>2022-05-26T10:48:48.212Z</time>
      </trkpt>
      <trkpt lat="42.03337" lon="19.17143">
        <ele>246.301894</ele>
        <time>2022-05-26T10:48:51.277Z</time>
      </trkpt>
      <trkpt lat="42.03346" lon="19.17135">
        <ele>246.181296</ele>
        <time>2022-05-26T10:48:54.214Z</time>
      </trkpt>
      <trkpt lat="42.03357" lon="19.17127">
        <ele>246.052771</ele>
        <time>2022-05-26T10:48:57.214Z</time>
      </trkpt>
      <trkpt lat="42.03366" lon="19.17122">
        <ele>245.942288</ele>
        <time>2022-05-26T10:49:00.228Z</time>
      </trkpt>
      <trkpt lat="42.03374" lon="19.17116">
        <ele>245.841738</ele>
        <time>2022-05-26T10:49:03.212Z</time>
      </trkpt>
      <trkpt lat="42.03386" lon="19.17112">
        <ele>245.713196</ele>
        <time>2022-05-26T10:49:07.216Z</time>
      </trkpt>
      <trkpt lat="42.03395" lon="19.17109">
        <ele>245.610907</ele>
        <time>2022-05-26T10:49:10.216Z</time>
      </trkpt>
      <trkpt lat="42.03405" lon="19.17106">
        <ele>245.495758</ele>
        <time>2022-05-26T10:49:13.224Z</time>
      </trkpt>
      <trkpt lat="42.03415" lon="19.17098">
        <ele>245.369165</ele>
        <time>2022-05-26T10:49:16.220Z</time>
      </trkpt>
      <trkpt lat="42.03422" lon="19.17087">
        <ele>245.252767</ele>
        <time>2022-05-26T10:49:19.211Z</time>
      </trkpt>
      <trkpt lat="42.03427" lon="19.17074">
        <ele>245.153074</ele>
        <time>2022-05-26T10:49:23.209Z</time>
      </trkpt>
      <trkpt lat="42.03429" lon="19.17062">
        <ele>245.093177</ele>
        <time>2022-05-26T10:49:26.230Z</time>
      </trkpt>
      <trkpt lat="42.03431" lon="19.17046">
        <ele>245.017275</ele>
        <time>2022-05-26T10:49:30.218Z</time>
      </trkpt>
      <trkpt lat="42.03432" lon="19.17032">
        <ele>244.950757</ele>
        <time>2022-05-26T10:49:33.214Z</time>
      </trkpt>
      <trkpt lat="42.03435" lon="19.17018">
        <ele>244.881087</ele>
        <time>2022-05-26T10:49:36.220Z</time>
      </trkpt>
      <trkpt lat="42.03441" lon="19.17007">
        <ele>244.81535</ele>
        <time>2022-05-26T10:49:39.214Z</time>
      </trkpt>
      <trkpt lat="42.03447" lon="19.16996">
        <ele>244.750149</ele>
        <time>2022-05-26T10:49:42.227Z</time>
      </trkpt>
      <trkpt lat="42.03453" lon="19.16985">
        <ele>244.683094</ele>
        <time>2022-05-26T10:49:45.226Z</time>
      </trkpt>
      <trkpt lat="42.0346" lon="19.16974">
        <ele>244.613382</ele>
        <time>2022-05-26T10:49:48.237Z</time>
      </trkpt>
      <trkpt lat="42.03468" lon="19.16963">
        <ele>244.541263</ele>
        <time>2022-05-26T10:49:51.232Z</time>
      </trkpt>
      <trkpt lat="42.03477" lon="19.16954">
        <ele>244.471638</ele>
        <time>2022-05-26T10:49:54.213Z</time>
      </trkpt>
      <trkpt lat="42.03486" lon="19.16945">
        <ele>244.398218</ele>
        <time>2022-05-26T10:49:57.227Z</time>
      </trkpt>
      <trkpt lat="42.03495" lon="19.16936">
        <ele>244.324917</ele>
        <time>2022-05-26T10:50:00.256Z</time>
      </trkpt>
      <trkpt lat="42.03505" lon="19.16928">
        <ele>244.251344</ele>
        <time>2022-05-26T10:50:03.224Z</time>
      </trkpt>
      <trkpt lat="42.03514" lon="19.1692">
        <ele>244.178348</ele>
        <time>2022-05-26T10:50:06.205Z</time>
      </trkpt>
      <trkpt lat="42.03525" lon="19.16912">
        <ele>244.100238</ele>
        <time>2022-05-26T10:50:09.214Z</time>
      </trkpt>
      <trkpt lat="42.03536" lon="19.16904">
        <ele>244.010335</ele>
        <time>2022-05-26T10:50:12.215Z</time>
      </trkpt>
      <trkpt lat="42.03548" lon="19.16895">
        <ele>243.828503</ele>
        <time>2022-05-26T10:50:15.214Z</time>
      </trkpt>
      <trkpt lat="42.03556" lon="19.16888">
        <ele>243.701053</ele>
        <time>2022-05-26T10:50:17.216Z</time>
      </trkpt>
      <trkpt lat="42.03566" lon="19.16878">
        <ele>243.522504</ele>
        <time>2022-05-26T10:50:20.221Z</time>
      </trkpt>
      <trkpt lat="42.03577" lon="19.16869">
        <ele>243.353624</ele>
        <time>2022-05-26T10:50:23.199Z</time>
      </trkpt>
      <trkpt lat="42.03587" lon="19.16861">
        <ele>243.186944</ele>
        <time>2022-05-26T10:50:26.210Z</time>
      </trkpt>
      <trkpt lat="42.03597" lon="19.16851">
        <ele>243.019782</ele>
        <time>2022-05-26T10:50:29.263Z</time>
      </trkpt>
      <trkpt lat="42.03608" lon="19.16843">
        <ele>242.845558</ele>
        <time>2022-05-26T10:50:32.218Z</time>
      </trkpt>
      <trkpt lat="42.03621" lon="19.16837">
        <ele>242.658133</ele>
        <time>2022-05-26T10:50:35.201Z</time>
      </trkpt>
      <trkpt lat="42.03632" lon="19.16832">
        <ele>242.492782</ele>
        <time>2022-05-26T10:50:38.232Z</time>
      </trkpt>
      <trkpt lat="42.03643" lon="19.16823">
        <ele>242.320779</ele>
        <time>2022-05-26T10:50:41.206Z</time>
      </trkpt>
      <trkpt lat="42.03652" lon="19.16811">
        <ele>242.145456</ele>
        <time>2022-05-26T10:50:44.204Z</time>
      </trkpt>
      <trkpt lat="42.03661" lon="19.16797">
        <ele>241.964582</ele>
        <time>2022-05-26T10:50:47.202Z</time>
      </trkpt>
      <trkpt lat="42.03668" lon="19.16784">
        <ele>241.795367</ele>
        <time>2022-05-26T10:50:50.203Z</time>
      </trkpt>
      <trkpt lat="42.03675" lon="19.16769">
        <ele>241.623953</ele>
        <time>2022-05-26T10:50:53.216Z</time>
      </trkpt>
      <trkpt lat="42.0368" lon="19.16755">
        <ele>241.530122</ele>
        <time>2022-05-26T10:50:56.211Z</time>
      </trkpt>
      <trkpt lat="42.03687" lon="19.16741">
        <ele>241.483834</ele>
        <time>2022-05-26T10:50:59.213Z</time>
      </trkpt>
      <trkpt lat="42.03694" lon="19.16727">
        <ele>241.436326</ele>
        <time>2022-05-26T10:51:02.205Z</time>
      </trkpt>
      <trkpt lat="42.03703" lon="19.16713">
        <ele>241.386561</ele>
        <time>2022-05-26T10:51:05.203Z</time>
      </trkpt>
      <trkpt lat="42.0371" lon="19.16705">
        <ele>241.352484</ele>
        <time>2022-05-26T10:51:07.233Z</time>
      </trkpt>
      <trkpt lat="42.03717" lon="19.16696">
        <ele>241.317325</ele>
        <time>2022-05-26T10:51:09.205Z</time>
      </trkpt>
      <trkpt lat="42.03723" lon="19.16688">
        <ele>241.282438</ele>
        <time>2022-05-26T10:51:11.224Z</time>
      </trkpt>
      <trkpt lat="42.0373" lon="19.16679">
        <ele>241.248015</ele>
        <time>2022-05-26T10:51:13.228Z</time>
      </trkpt>
      <trkpt lat="42.03737" lon="19.16671">
        <ele>241.21397</ele>
        <time>2022-05-26T10:51:15.260Z</time>
      </trkpt>
      <trkpt lat="42.03747" lon="19.16659">
        <ele>241.164808</ele>
        <time>2022-05-26T10:51:18.220Z</time>
      </trkpt>
      <trkpt lat="42.03756" lon="19.16647">
        <ele>241.11611</ele>
        <time>2022-05-26T10:51:21.213Z</time>
      </trkpt>
      <trkpt lat="42.03765" lon="19.16637">
        <ele>241.070933</ele>
        <time>2022-05-26T10:51:24.228Z</time>
      </trkpt>
      <trkpt lat="42.03775" lon="19.16626">
        <ele>241.023752</ele>
        <time>2022-05-26T10:51:27.224Z</time>
      </trkpt>
      <trkpt lat="42.03785" lon="19.16614">
        <ele>240.974395</ele>
        <time>2022-05-26T10:51:30.219Z</time>
      </trkpt>
      <trkpt lat="42.03794" lon="19.16601">
        <ele>240.92463</ele>
        <time>2022-05-26T10:51:33.213Z</time>
      </trkpt>
      <trkpt lat="42.03802" lon="19.16588">
        <ele>240.917051</ele>
        <time>2022-05-26T10:51:36.231Z</time>
      </trkpt>
      <trkpt lat="42.03809" lon="19.16574">
        <ele>241.089125</ele>
        <time>2022-05-26T10:51:39.227Z</time>
      </trkpt>
      <trkpt lat="42.03816" lon="19.1656">
        <ele>241.262567</ele>
        <time>2022-05-26T10:51:42.228Z</time>
      </trkpt>
      <trkpt lat="42.03822" lon="19.16545">
        <ele>241.431625</ele>
        <time>2022-05-26T10:51:45.226Z</time>
      </trkpt>
      <trkpt lat="42.03826" lon="19.16529">
        <ele>241.606518</ele>
        <time>2022-05-26T10:51:48.279Z</time>
      </trkpt>
      <trkpt lat="42.03828" lon="19.16511">
        <ele>241.788968</ele>
        <time>2022-05-26T10:51:51.213Z</time>
      </trkpt>
      <trkpt lat="42.03828" lon="19.16493">
        <ele>241.967724</ele>
        <time>2022-05-26T10:51:54.229Z</time>
      </trkpt>
      <trkpt lat="42.03828" lon="19.16476">
        <ele>242.142433</ele>
        <time>2022-05-26T10:51:57.216Z</time>
      </trkpt>
      <trkpt lat="42.03828" lon="19.16459">
        <ele>242.310062</ele>
        <time>2022-05-26T10:52:00.227Z</time>
      </trkpt>
      <trkpt lat="42.03829" lon="19.16442">
        <ele>242.487845</ele>
        <time>2022-05-26T10:52:03.222Z</time>
      </trkpt>
      <trkpt lat="42.03828" lon="19.16425">
        <ele>242.656461</ele>
        <time>2022-05-26T10:52:06.216Z</time>
      </trkpt>
      <trkpt lat="42.03828" lon="19.16408">
        <ele>242.831155</ele>
        <time>2022-05-26T10:52:09.209Z</time>
      </trkpt>
      <trkpt lat="42.03826" lon="19.16393">
        <ele>242.990707</ele>
        <time>2022-05-26T10:52:12.215Z</time>
      </trkpt>
      <trkpt lat="42.03823" lon="19.16378">
        <ele>243.147831</ele>
        <time>2022-05-26T10:52:15.245Z</time>
      </trkpt>
      <trkpt lat="42.03819" lon="19.16361">
        <ele>243.328138</ele>
        <time>2022-05-26T10:52:18.219Z</time>
      </trkpt>
      <trkpt lat="42.03817" lon="19.16349">
        <ele>243.345783</ele>
        <time>2022-05-26T10:52:20.216Z</time>
      </trkpt>
      <trkpt lat="42.03814" lon="19.16331">
        <ele>243.346024</ele>
        <time>2022-05-26T10:52:23.243Z</time>
      </trkpt>
      <trkpt lat="42.03815" lon="19.16314">
        <ele>243.34626</ele>
        <time>2022-05-26T10:52:26.212Z</time>
      </trkpt>
      <trkpt lat="42.0382" lon="19.16298">
        <ele>243.346491</ele>
        <time>2022-05-26T10:52:29.225Z</time>
      </trkpt>
      <trkpt lat="42.03827" lon="19.16285">
        <ele>243.346713</ele>
        <time>2022-05-26T10:52:32.240Z</time>
      </trkpt>
      <trkpt lat="42.03836" lon="19.16274">
        <ele>243.346935</ele>
        <time>2022-05-26T10:52:35.220Z</time>
      </trkpt>
      <trkpt lat="42.03846" lon="19.16266">
        <ele>243.347156</ele>
        <time>2022-05-26T10:52:38.221Z</time>
      </trkpt>
      <trkpt lat="42.03856" lon="19.16259">
        <ele>243.347361</ele>
        <time>2022-05-26T10:52:41.230Z</time>
      </trkpt>
      <trkpt lat="42.03867" lon="19.16254">
        <ele>243.347566</ele>
        <time>2022-05-26T10:52:44.225Z</time>
      </trkpt>
      <trkpt lat="42.03878" lon="19.16249">
        <ele>243.347789</ele>
        <time>2022-05-26T10:52:47.211Z</time>
      </trkpt>
      <trkpt lat="42.0389" lon="19.16244">
        <ele>243.348008</ele>
        <time>2022-05-26T10:52:50.223Z</time>
      </trkpt>
      <trkpt lat="42.039" lon="19.16239">
        <ele>243.348213</ele>
        <time>2022-05-26T10:52:53.233Z</time>
      </trkpt>
      <trkpt lat="42.03911" lon="19.16234">
        <ele>243.348421</ele>
        <time>2022-05-26T10:52:56.257Z</time>
      </trkpt>
      <trkpt lat="42.03921" lon="19.16228">
        <ele>243.348628</ele>
        <time>2022-05-26T10:52:59.215Z</time>
      </trkpt>
      <trkpt lat="42.03931" lon="19.1622">
        <ele>243.348843</ele>
        <time>2022-05-26T10:53:02.220Z</time>
      </trkpt>
      <trkpt lat="42.03941" lon="19.16211">
        <ele>243.493511</ele>
        <time>2022-05-26T10:53:05.211Z</time>
      </trkpt>
      <trkpt lat="42.0395" lon="19.16201">
        <ele>243.758356</ele>
        <time>2022-05-26T10:53:08.208Z</time>
      </trkpt>
      <trkpt lat="42.03958" lon="19.16191">
        <ele>244.005775</ele>
        <time>2022-05-26T10:53:11.212Z</time>
      </trkpt>
      <trkpt lat="42.03966" lon="19.1618">
        <ele>244.268813</ele>
        <time>2022-05-26T10:53:14.211Z</time>
      </trkpt>
      <trkpt lat="42.03974" lon="19.16168">
        <ele>244.527936</ele>
        <time>2022-05-26T10:53:17.213Z</time>
      </trkpt>
      <trkpt lat="42.03981" lon="19.16159">
        <ele>244.758175</ele>
        <time>2022-05-26T10:53:20.222Z</time>
      </trkpt>
      <trkpt lat="42.03987" lon="19.16146">
        <ele>245.014451</ele>
        <time>2022-05-26T10:53:23.211Z</time>
      </trkpt>
      <trkpt lat="42.03991" lon="19.1613">
        <ele>245.302519</ele>
        <time>2022-05-26T10:53:26.207Z</time>
      </trkpt>
      <trkpt lat="42.03996" lon="19.16116">
        <ele>245.548246</ele>
        <time>2022-05-26T10:53:29.267Z</time>
      </trkpt>
      <trkpt lat="42.04002" lon="19.16105">
        <ele>245.778804</ele>
        <time>2022-05-26T10:53:32.224Z</time>
      </trkpt>
      <trkpt lat="42.0401" lon="19.16097">
        <ele>246.002254</ele>
        <time>2022-05-26T10:53:35.251Z</time>
      </trkpt>
      <trkpt lat="42.04019" lon="19.16093">
        <ele>246.231492</ele>
        <time>2022-05-26T10:53:38.222Z</time>
      </trkpt>
      <trkpt lat="42.04029" lon="19.16089">
        <ele>246.457004</ele>
        <time>2022-05-26T10:53:41.253Z</time>
      </trkpt>
      <trkpt lat="42.04039" lon="19.16083">
        <ele>246.696253</ele>
        <time>2022-05-26T10:53:44.232Z</time>
      </trkpt>
      <trkpt lat="42.04047" lon="19.16076">
        <ele>246.92513</ele>
        <time>2022-05-26T10:53:47.216Z</time>
      </trkpt>
      <trkpt lat="42.04055" lon="19.16068">
        <ele>247.144983</ele>
        <time>2022-05-26T10:53:50.208Z</time>
      </trkpt>
      <trkpt lat="42.04061" lon="19.16058">
        <ele>247.363446</ele>
        <time>2022-05-26T10:53:53.241Z</time>
      </trkpt>
      <trkpt lat="42.04065" lon="19.16046">
        <ele>247.519955</ele>
        <time>2022-05-26T10:53:56.213Z</time>
      </trkpt>
      <trkpt lat="42.04067" lon="19.16032">
        <ele>247.672185</ele>
        <time>2022-05-26T10:53:59.223Z</time>
      </trkpt>
      <trkpt lat="42.04069" lon="19.16018">
        <ele>247.823799</ele>
        <time>2022-05-26T10:54:02.226Z</time>
      </trkpt>
      <trkpt lat="42.0407" lon="19.16005">
        <ele>247.965183</ele>
        <time>2022-05-26T10:54:05.215Z</time>
      </trkpt>
      <trkpt lat="42.04071" lon="19.1599">
        <ele>248.119001</ele>
        <time>2022-05-26T10:54:08.237Z</time>
      </trkpt>
      <trkpt lat="42.04071" lon="19.15977">
        <ele>248.257641</ele>
        <time>2022-05-26T10:54:11.232Z</time>
      </trkpt>
      <trkpt lat="42.04072" lon="19.15965">
        <ele>248.387784</ele>
        <time>2022-05-26T10:54:14.221Z</time>
      </trkpt>
      <trkpt lat="42.04073" lon="19.15953">
        <ele>248.51941</ele>
        <time>2022-05-26T10:54:17.213Z</time>
      </trkpt>
      <trkpt lat="42.04077" lon="19.15941">
        <ele>248.654132</ele>
        <time>2022-05-26T10:54:20.217Z</time>
      </trkpt>
      <trkpt lat="42.04081" lon="19.15931">
        <ele>248.783892</ele>
        <time>2022-05-26T10:54:23.217Z</time>
      </trkpt>
      <trkpt lat="42.04088" lon="19.15918">
        <ele>248.953089</ele>
        <time>2022-05-26T10:54:27.230Z</time>
      </trkpt>
      <trkpt lat="42.04094" lon="19.15907">
        <ele>249.10099</ele>
        <time>2022-05-26T10:54:31.223Z</time>
      </trkpt>
      <trkpt lat="42.04101" lon="19.15894">
        <ele>249.262668</ele>
        <time>2022-05-26T10:54:35.220Z</time>
      </trkpt>
      <trkpt lat="42.04107" lon="19.15882">
        <ele>249.413928</ele>
        <time>2022-05-26T10:54:39.221Z</time>
      </trkpt>
      <trkpt lat="42.04114" lon="19.15872">
        <ele>249.567309</ele>
        <time>2022-05-26T10:54:43.205Z</time>
      </trkpt>
      <trkpt lat="42.0412" lon="19.1586">
        <ele>249.725397</ele>
        <time>2022-05-26T10:54:48.212Z</time>
      </trkpt>
      <trkpt lat="42.04126" lon="19.15849">
        <ele>249.862217</ele>
        <time>2022-05-26T10:54:52.225Z</time>
      </trkpt>
      <trkpt lat="42.04132" lon="19.15837">
        <ele>250.000338</ele>
        <time>2022-05-26T10:54:56.237Z</time>
      </trkpt>
      <trkpt lat="42.04138" lon="19.15827">
        <ele>250.037025</ele>
        <time>2022-05-26T10:54:59.227Z</time>
      </trkpt>
      <trkpt lat="42.04144" lon="19.15816">
        <ele>250.077745</ele>
        <time>2022-05-26T10:55:02.224Z</time>
      </trkpt>
      <trkpt lat="42.0415" lon="19.15804">
        <ele>250.120596</ele>
        <time>2022-05-26T10:55:05.233Z</time>
      </trkpt>
      <trkpt lat="42.04156" lon="19.15791">
        <ele>250.16704</ele>
        <time>2022-05-26T10:55:08.229Z</time>
      </trkpt>
      <trkpt lat="42.04163" lon="19.15779">
        <ele>250.209891</ele>
        <time>2022-05-26T10:55:11.256Z</time>
      </trkpt>
      <trkpt lat="42.04168" lon="19.15767">
        <ele>250.251141</ele>
        <time>2022-05-26T10:55:14.222Z</time>
      </trkpt>
      <trkpt lat="42.04175" lon="19.15755">
        <ele>250.294944</ele>
        <time>2022-05-26T10:55:18.216Z</time>
      </trkpt>
      <trkpt lat="42.04185" lon="19.15747">
        <ele>250.34244</ele>
        <time>2022-05-26T10:55:22.203Z</time>
      </trkpt>
      <trkpt lat="42.04193" lon="19.15739">
        <ele>250.379842</ele>
        <time>2022-05-26T10:55:25.213Z</time>
      </trkpt>
      <trkpt lat="42.04202" lon="19.15731">
        <ele>250.42518</ele>
        <time>2022-05-26T10:55:29.221Z</time>
      </trkpt>
      <trkpt lat="42.04211" lon="19.15723">
        <ele>250.467674</ele>
        <time>2022-05-26T10:55:32.225Z</time>
      </trkpt>
      <trkpt lat="42.04219" lon="19.15713">
        <ele>250.510059</ele>
        <time>2022-05-26T10:55:35.204Z</time>
      </trkpt>
      <trkpt lat="42.04225" lon="19.15703">
        <ele>250.548207</ele>
        <time>2022-05-26T10:55:38.234Z</time>
      </trkpt>
      <trkpt lat="42.04232" lon="19.15691">
        <ele>250.593436</ele>
        <time>2022-05-26T10:55:42.212Z</time>
      </trkpt>
      <trkpt lat="42.04238" lon="19.15679">
        <ele>250.636513</ele>
        <time>2022-05-26T10:55:46.208Z</time>
      </trkpt>
      <trkpt lat="42.04245" lon="19.15667">
        <ele>250.681725</ele>
        <time>2022-05-26T10:55:50.218Z</time>
      </trkpt>
      <trkpt lat="42.04251" lon="19.15658">
        <ele>250.647384</ele>
        <time>2022-05-26T10:55:53.211Z</time>
      </trkpt>
      <trkpt lat="42.04257" lon="19.15648">
        <ele>250.461134</ele>
        <time>2022-05-26T10:55:56.249Z</time>
      </trkpt>
      <trkpt lat="42.04262" lon="19.15637">
        <ele>250.271248</ele>
        <time>2022-05-26T10:55:59.218Z</time>
      </trkpt>
      <trkpt lat="42.04264" lon="19.15625">
        <ele>250.081487</ele>
        <time>2022-05-26T10:56:02.232Z</time>
      </trkpt>
      <trkpt lat="42.04263" lon="19.15611">
        <ele>249.874871</ele>
        <time>2022-05-26T10:56:05.217Z</time>
      </trkpt>
      <trkpt lat="42.04257" lon="19.15599">
        <ele>249.650457</ele>
        <time>2022-05-26T10:56:08.225Z</time>
      </trkpt>
      <trkpt lat="42.04249" lon="19.15587">
        <ele>249.423425</ele>
        <time>2022-05-26T10:56:11.207Z</time>
      </trkpt>
      <trkpt lat="42.04245" lon="19.15576">
        <ele>249.233981</ele>
        <time>2022-05-26T10:56:14.211Z</time>
      </trkpt>
      <trkpt lat="42.04246" lon="19.15561">
        <ele>249.010763</ele>
        <time>2022-05-26T10:56:17.237Z</time>
      </trkpt>
      <trkpt lat="42.04249" lon="19.15544">
        <ele>248.756972</ele>
        <time>2022-05-26T10:56:20.211Z</time>
      </trkpt>
      <trkpt lat="42.04251" lon="19.15527">
        <ele>248.49181</ele>
        <time>2022-05-26T10:56:23.221Z</time>
      </trkpt>
      <trkpt lat="42.04252" lon="19.15514">
        <ele>248.299776</ele>
        <time>2022-05-26T10:56:25.252Z</time>
      </trkpt>
      <trkpt lat="42.04254" lon="19.15498">
        <ele>248.059156</ele>
        <time>2022-05-26T10:56:28.216Z</time>
      </trkpt>
      <trkpt lat="42.04257" lon="19.15486">
        <ele>247.865992</ele>
        <time>2022-05-26T10:56:31.211Z</time>
      </trkpt>
      <trkpt lat="42.0426" lon="19.15472">
        <ele>247.652307</ele>
        <time>2022-05-26T10:56:35.229Z</time>
      </trkpt>
      <trkpt lat="42.04261" lon="19.15458">
        <ele>247.439489</ele>
        <time>2022-05-26T10:56:38.229Z</time>
      </trkpt>
      <trkpt lat="42.04263" lon="19.15443">
        <ele>247.218841</ele>
        <time>2022-05-26T10:56:41.217Z</time>
      </trkpt>
      <trkpt lat="42.04263" lon="19.15429">
        <ele>247.2378</ele>
        <time>2022-05-26T10:56:44.209Z</time>
      </trkpt>
      <trkpt lat="42.04264" lon="19.15414">
        <ele>247.635056</ele>
        <time>2022-05-26T10:56:48.213Z</time>
      </trkpt>
      <trkpt lat="42.04267" lon="19.15398">
        <ele>248.044245</ele>
        <time>2022-05-26T10:56:52.211Z</time>
      </trkpt>
      <trkpt lat="42.04271" lon="19.15388">
        <ele>248.356141</ele>
        <time>2022-05-26T10:56:55.223Z</time>
      </trkpt>
      <trkpt lat="42.04275" lon="19.15376">
        <ele>248.685235</ele>
        <time>2022-05-26T10:56:58.215Z</time>
      </trkpt>
      <trkpt lat="42.0428" lon="19.15363">
        <ele>249.069093</ele>
        <time>2022-05-26T10:57:01.226Z</time>
      </trkpt>
      <trkpt lat="42.04285" lon="19.15351">
        <ele>249.435724</ele>
        <time>2022-05-26T10:57:04.224Z</time>
      </trkpt>
      <trkpt lat="42.04292" lon="19.1534">
        <ele>249.784428</ele>
        <time>2022-05-26T10:57:07.230Z</time>
      </trkpt>
      <trkpt lat="42.04299" lon="19.1533">
        <ele>250.15294</ele>
        <time>2022-05-26T10:57:10.196Z</time>
      </trkpt>
      <trkpt lat="42.04308" lon="19.1532">
        <ele>250.564385</ele>
        <time>2022-05-26T10:57:13.214Z</time>
      </trkpt>
      <trkpt lat="42.04318" lon="19.15311">
        <ele>250.985934</ele>
        <time>2022-05-26T10:57:16.220Z</time>
      </trkpt>
      <trkpt lat="42.04328" lon="19.15304">
        <ele>251.38385</ele>
        <time>2022-05-26T10:57:19.249Z</time>
      </trkpt>
      <trkpt lat="42.04338" lon="19.15299">
        <ele>251.755059</ele>
        <time>2022-05-26T10:57:22.225Z</time>
      </trkpt>
      <trkpt lat="42.0435" lon="19.15294">
        <ele>252.166654</ele>
        <time>2022-05-26T10:57:25.253Z</time>
      </trkpt>
      <trkpt lat="42.04361" lon="19.15288">
        <ele>252.58708</ele>
        <time>2022-05-26T10:57:28.214Z</time>
      </trkpt>
      <trkpt lat="42.0437" lon="19.15281">
        <ele>252.962177</ele>
        <time>2022-05-26T10:57:31.207Z</time>
      </trkpt>
      <trkpt lat="42.04379" lon="19.15274">
        <ele>253.315951</ele>
        <time>2022-05-26T10:57:34.211Z</time>
      </trkpt>
      <trkpt lat="42.04388" lon="19.15268">
        <ele>253.571377</ele>
        <time>2022-05-26T10:57:37.209Z</time>
      </trkpt>
      <trkpt lat="42.04396" lon="19.1526">
        <ele>253.833241</ele>
        <time>2022-05-26T10:57:40.212Z</time>
      </trkpt>
      <trkpt lat="42.04402" lon="19.15248">
        <ele>254.101287</ele>
        <time>2022-05-26T10:57:43.207Z</time>
      </trkpt>
      <trkpt lat="42.04407" lon="19.15235">
        <ele>254.372648</ele>
        <time>2022-05-26T10:57:46.200Z</time>
      </trkpt>
      <trkpt lat="42.0441" lon="19.15223">
        <ele>254.618851</ele>
        <time>2022-05-26T10:57:49.227Z</time>
      </trkpt>
      <trkpt lat="42.04413" lon="19.1521">
        <ele>254.874515</ele>
        <time>2022-05-26T10:57:52.213Z</time>
      </trkpt>
      <trkpt lat="42.04416" lon="19.15196">
        <ele>255.130179</ele>
        <time>2022-05-26T10:57:55.207Z</time>
      </trkpt>
      <trkpt lat="42.04418" lon="19.15184">
        <ele>255.361402</ele>
        <time>2022-05-26T10:57:58.239Z</time>
      </trkpt>
      <trkpt lat="42.0442" lon="19.15171">
        <ele>255.628489</ele>
        <time>2022-05-26T10:58:02.212Z</time>
      </trkpt>
      <trkpt lat="42.04424" lon="19.15156">
        <ele>255.920389</ele>
        <time>2022-05-26T10:58:06.200Z</time>
      </trkpt>
      <trkpt lat="42.04429" lon="19.15144">
        <ele>256.178072</ele>
        <time>2022-05-26T10:58:10.250Z</time>
      </trkpt>
      <trkpt lat="42.04437" lon="19.15134">
        <ele>256.46514</ele>
        <time>2022-05-26T10:58:14.222Z</time>
      </trkpt>
      <trkpt lat="42.04445" lon="19.15126">
        <ele>256.701321</ele>
        <time>2022-05-26T10:58:17.217Z</time>
      </trkpt>
      <trkpt lat="42.04455" lon="19.15119">
        <ele>256.997046</ele>
        <time>2022-05-26T10:58:21.237Z</time>
      </trkpt>
      <trkpt lat="42.04464" lon="19.15115">
        <ele>257.235217</ele>
        <time>2022-05-26T10:58:24.222Z</time>
      </trkpt>
      <trkpt lat="42.04473" lon="19.15111">
        <ele>257.472774</ele>
        <time>2022-05-26T10:58:27.204Z</time>
      </trkpt>
      <trkpt lat="42.04483" lon="19.15104">
        <ele>257.752395</ele>
        <time>2022-05-26T10:58:30.232Z</time>
      </trkpt>
      <trkpt lat="42.04492" lon="19.15095">
        <ele>257.895915</ele>
        <time>2022-05-26T10:58:33.266Z</time>
      </trkpt>
      <trkpt lat="42.04499" lon="19.15084">
        <ele>257.898734</ele>
        <time>2022-05-26T10:58:37.220Z</time>
      </trkpt>
      <trkpt lat="42.04504" lon="19.15071">
        <ele>257.901289</ele>
        <time>2022-05-26T10:58:40.220Z</time>
      </trkpt>
      <trkpt lat="42.0451" lon="19.15056">
        <ele>257.904315</ele>
        <time>2022-05-26T10:58:43.203Z</time>
      </trkpt>
      <trkpt lat="42.04516" lon="19.15042">
        <ele>257.907312</ele>
        <time>2022-05-26T10:58:46.226Z</time>
      </trkpt>
      <trkpt lat="42.04522" lon="19.1503">
        <ele>257.909902</ele>
        <time>2022-05-26T10:58:49.270Z</time>
      </trkpt>
      <trkpt lat="42.04526" lon="19.15018">
        <ele>257.912378</ele>
        <time>2022-05-26T10:58:53.219Z</time>
      </trkpt>
      <trkpt lat="42.0453" lon="19.15004">
        <ele>257.915114</ele>
        <time>2022-05-26T10:58:58.225Z</time>
      </trkpt>
      <trkpt lat="42.04535" lon="19.14993">
        <ele>257.91741</ele>
        <time>2022-05-26T10:59:02.230Z</time>
      </trkpt>
      <trkpt lat="42.04541" lon="19.14982">
        <ele>257.919869</ele>
        <time>2022-05-26T10:59:06.213Z</time>
      </trkpt>
      <trkpt lat="42.04548" lon="19.14972">
        <ele>257.922269</ele>
        <time>2022-05-26T10:59:10.226Z</time>
      </trkpt>
      <trkpt lat="42.04558" lon="19.14964">
        <ele>257.925207</ele>
        <time>2022-05-26T10:59:14.208Z</time>
      </trkpt>
      <trkpt lat="42.04568" lon="19.14956">
        <ele>257.928021</ele>
        <time>2022-05-26T10:59:17.215Z</time>
      </trkpt>
      <trkpt lat="42.04578" lon="19.1495">
        <ele>257.930641</ele>
        <time>2022-05-26T10:59:20.212Z</time>
      </trkpt>
      <trkpt lat="42.04586" lon="19.14945">
        <ele>257.932936</ele>
        <time>2022-05-26T10:59:23.207Z</time>
      </trkpt>
      <trkpt lat="42.04596" lon="19.14937">
        <ele>257.935669</ele>
        <time>2022-05-26T10:59:27.216Z</time>
      </trkpt>
      <trkpt lat="42.04604" lon="19.1493">
        <ele>257.938037</ele>
        <time>2022-05-26T10:59:31.219Z</time>
      </trkpt>
      <trkpt lat="42.04613" lon="19.14922">
        <ele>257.872795</ele>
        <time>2022-05-26T10:59:35.260Z</time>
      </trkpt>
      <trkpt lat="42.04622" lon="19.14913">
        <ele>257.781067</ele>
        <time>2022-05-26T10:59:39.208Z</time>
      </trkpt>
      <trkpt lat="42.04628" lon="19.14903">
        <ele>257.701648</ele>
        <time>2022-05-26T10:59:42.210Z</time>
      </trkpt>
      <trkpt lat="42.04634" lon="19.1489">
        <ele>257.612163</ele>
        <time>2022-05-26T10:59:45.215Z</time>
      </trkpt>
      <trkpt lat="42.04641" lon="19.14879">
        <ele>257.524208</ele>
        <time>2022-05-26T10:59:49.219Z</time>
      </trkpt>
      <trkpt lat="42.04647" lon="19.14866">
        <ele>257.434102</ele>
        <time>2022-05-26T10:59:53.212Z</time>
      </trkpt>
      <trkpt lat="42.04654" lon="19.14853">
        <ele>257.337979</ele>
        <time>2022-05-26T10:59:57.205Z</time>
      </trkpt>
      <trkpt lat="42.04659" lon="19.14841">
        <ele>257.256024</ele>
        <time>2022-05-26T11:00:00.214Z</time>
      </trkpt>
      <trkpt lat="42.04666" lon="19.14832">
        <ele>257.175184</ele>
        <time>2022-05-26T11:00:03.259Z</time>
      </trkpt>
      <trkpt lat="42.04673" lon="19.14819">
        <ele>257.081926</ele>
        <time>2022-05-26T11:00:06.209Z</time>
      </trkpt>
      <trkpt lat="42.0468" lon="19.1481">
        <ele>257.003173</ele>
        <time>2022-05-26T11:00:08.219Z</time>
      </trkpt>
      <trkpt lat="42.04686" lon="19.148">
        <ele>256.924148</ele>
        <time>2022-05-26T11:00:10.206Z</time>
      </trkpt>
      <trkpt lat="42.04694" lon="19.1479">
        <ele>256.836951</ele>
        <time>2022-05-26T11:00:12.219Z</time>
      </trkpt>
      <trkpt lat="42.04705" lon="19.14781">
        <ele>256.739623</ele>
        <time>2022-05-26T11:00:14.209Z</time>
      </trkpt>
      <trkpt lat="42.04716" lon="19.14774">
        <ele>256.635635</ele>
        <time>2022-05-26T11:00:16.213Z</time>
      </trkpt>
      <trkpt lat="42.0473" lon="19.14766">
        <ele>256.519402</ele>
        <time>2022-05-26T11:00:18.241Z</time>
      </trkpt>
      <trkpt lat="42.04744" lon="19.14756">
        <ele>255.651336</ele>
        <time>2022-05-26T11:00:20.212Z</time>
      </trkpt>
      <trkpt lat="42.04756" lon="19.14743">
        <ele>254.546987</ele>
        <time>2022-05-26T11:00:22.220Z</time>
      </trkpt>
      <trkpt lat="42.04765" lon="19.14727">
        <ele>253.560132</ele>
        <time>2022-05-26T11:00:24.230Z</time>
      </trkpt>
      <trkpt lat="42.04772" lon="19.14709">
        <ele>252.5209</ele>
        <time>2022-05-26T11:00:26.288Z</time>
      </trkpt>
      <trkpt lat="42.04778" lon="19.1469">
        <ele>251.458505</ele>
        <time>2022-05-26T11:00:28.220Z</time>
      </trkpt>
      <trkpt lat="42.04783" lon="19.14673">
        <ele>250.572238</ele>
        <time>2022-05-26T11:00:30.210Z</time>
      </trkpt>
      <trkpt lat="42.04789" lon="19.14661">
        <ele>249.836563</ele>
        <time>2022-05-26T11:00:32.237Z</time>
      </trkpt>
      <trkpt lat="42.04795" lon="19.14648">
        <ele>249.050582</ele>
        <time>2022-05-26T11:00:34.215Z</time>
      </trkpt>
      <trkpt lat="42.04801" lon="19.14633">
        <ele>248.165405</ele>
        <time>2022-05-26T11:00:36.213Z</time>
      </trkpt>
      <trkpt lat="42.04808" lon="19.14616">
        <ele>247.205705</ele>
        <time>2022-05-26T11:00:38.225Z</time>
      </trkpt>
      <trkpt lat="42.04817" lon="19.146">
        <ele>246.16137</ele>
        <time>2022-05-26T11:00:40.271Z</time>
      </trkpt>
      <trkpt lat="42.04825" lon="19.14584">
        <ele>245.178745</ele>
        <time>2022-05-26T11:00:42.206Z</time>
      </trkpt>
      <trkpt lat="42.04833" lon="19.1457">
        <ele>244.302125</ele>
        <time>2022-05-26T11:00:44.237Z</time>
      </trkpt>
      <trkpt lat="42.04841" lon="19.14556">
        <ele>243.830277</ele>
        <time>2022-05-26T11:00:46.216Z</time>
      </trkpt>
      <trkpt lat="42.04848" lon="19.14543">
        <ele>243.450116</ele>
        <time>2022-05-26T11:00:48.208Z</time>
      </trkpt>
      <trkpt lat="42.04852" lon="19.14531">
        <ele>243.155252</ele>
        <time>2022-05-26T11:00:50.209Z</time>
      </trkpt>
      <trkpt lat="42.04856" lon="19.14518">
        <ele>242.823033</ele>
        <time>2022-05-26T11:00:52.224Z</time>
      </trkpt>
      <trkpt lat="42.04852" lon="19.14503">
        <ele>242.459626</ele>
        <time>2022-05-26T11:00:54.228Z</time>
      </trkpt>
      <trkpt lat="42.04847" lon="19.14486">
        <ele>242.040091</ele>
        <time>2022-05-26T11:00:56.215Z</time>
      </trkpt>
      <trkpt lat="42.04842" lon="19.14471">
        <ele>241.651885</ele>
        <time>2022-05-26T11:00:58.252Z</time>
      </trkpt>
      <trkpt lat="42.04837" lon="19.14455">
        <ele>241.265836</ele>
        <time>2022-05-26T11:01:00.299Z</time>
      </trkpt>
      <trkpt lat="42.04832" lon="19.1444">
        <ele>240.862825</ele>
        <time>2022-05-26T11:01:02.234Z</time>
      </trkpt>
      <trkpt lat="42.04828" lon="19.14426">
        <ele>240.518118</ele>
        <time>2022-05-26T11:01:04.211Z</time>
      </trkpt>
      <trkpt lat="42.04826" lon="19.14413">
        <ele>240.219238</ele>
        <time>2022-05-26T11:01:06.224Z</time>
      </trkpt>
      <trkpt lat="42.04827" lon="19.14397">
        <ele>239.844468</ele>
        <time>2022-05-26T11:01:09.263Z</time>
      </trkpt>
      <trkpt lat="42.0483" lon="19.14381">
        <ele>239.462427</ele>
        <time>2022-05-26T11:01:12.223Z</time>
      </trkpt>
      <trkpt lat="42.04835" lon="19.14368">
        <ele>239.119905</ele>
        <time>2022-05-26T11:01:15.210Z</time>
      </trkpt>
      <trkpt lat="42.04844" lon="19.14359">
        <ele>238.787398</ele>
        <time>2022-05-26T11:01:18.215Z</time>
      </trkpt>
      <trkpt lat="42.04852" lon="19.14352">
        <ele>238.63295</ele>
        <time>2022-05-26T11:01:21.207Z</time>
      </trkpt>
      <trkpt lat="42.04862" lon="19.14348">
        <ele>238.956865</ele>
        <time>2022-05-26T11:01:25.232Z</time>
      </trkpt>
      <trkpt lat="42.04872" lon="19.14345">
        <ele>239.254075</ele>
        <time>2022-05-26T11:01:28.211Z</time>
      </trkpt>
      <trkpt lat="42.04883" lon="19.14342">
        <ele>239.565491</ele>
        <time>2022-05-26T11:01:31.217Z</time>
      </trkpt>
      <trkpt lat="42.04894" lon="19.14338">
        <ele>239.90223</ele>
        <time>2022-05-26T11:01:34.219Z</time>
      </trkpt>
      <trkpt lat="42.04906" lon="19.14334">
        <ele>240.243005</ele>
        <time>2022-05-26T11:01:37.208Z</time>
      </trkpt>
      <trkpt lat="42.04918" lon="19.1433">
        <ele>240.606507</ele>
        <time>2022-05-26T11:01:40.227Z</time>
      </trkpt>
      <trkpt lat="42.04929" lon="19.14325">
        <ele>240.94452</ele>
        <time>2022-05-26T11:01:43.220Z</time>
      </trkpt>
      <trkpt lat="42.0494" lon="19.1432">
        <ele>241.272437</ele>
        <time>2022-05-26T11:01:46.217Z</time>
      </trkpt>
      <trkpt lat="42.04951" lon="19.14314">
        <ele>241.626924</ele>
        <time>2022-05-26T11:01:49.260Z</time>
      </trkpt>
      <trkpt lat="42.0496" lon="19.14308">
        <ele>241.924605</ele>
        <time>2022-05-26T11:01:52.222Z</time>
      </trkpt>
      <trkpt lat="42.04971" lon="19.14303">
        <ele>242.244801</ele>
        <time>2022-05-26T11:01:55.251Z</time>
      </trkpt>
      <trkpt lat="42.04981" lon="19.14298">
        <ele>242.570026</ele>
        <time>2022-05-26T11:01:58.213Z</time>
      </trkpt>
      <trkpt lat="42.04992" lon="19.14291">
        <ele>242.915902</ele>
        <time>2022-05-26T11:02:01.250Z</time>
      </trkpt>
      <trkpt lat="42.05004" lon="19.14284">
        <ele>243.300415</ele>
        <time>2022-05-26T11:02:04.208Z</time>
      </trkpt>
      <trkpt lat="42.05013" lon="19.14278">
        <ele>243.58309</ele>
        <time>2022-05-26T11:02:06.224Z</time>
      </trkpt>
      <trkpt lat="42.05022" lon="19.14273">
        <ele>243.790728</ele>
        <time>2022-05-26T11:02:08.214Z</time>
      </trkpt>
      <trkpt lat="42.05034" lon="19.14267">
        <ele>243.900337</ele>
        <time>2022-05-26T11:02:11.215Z</time>
      </trkpt>
      <trkpt lat="42.05044" lon="19.14262">
        <ele>243.985962</ele>
        <time>2022-05-26T11:02:13.208Z</time>
      </trkpt>
      <trkpt lat="42.05053" lon="19.14256">
        <ele>244.072808</ele>
        <time>2022-05-26T11:02:15.229Z</time>
      </trkpt>
      <trkpt lat="42.05063" lon="19.14252">
        <ele>244.15729</ele>
        <time>2022-05-26T11:02:17.217Z</time>
      </trkpt>
      <trkpt lat="42.05072" lon="19.14248">
        <ele>244.239196</ele>
        <time>2022-05-26T11:02:19.213Z</time>
      </trkpt>
      <trkpt lat="42.0508" lon="19.14242">
        <ele>244.317079</ele>
        <time>2022-05-26T11:02:21.217Z</time>
      </trkpt>
      <trkpt lat="42.05092" lon="19.14235">
        <ele>244.427825</ele>
        <time>2022-05-26T11:02:24.222Z</time>
      </trkpt>
      <trkpt lat="42.05103" lon="19.14226">
        <ele>244.536338</ele>
        <time>2022-05-26T11:02:27.222Z</time>
      </trkpt>
      <trkpt lat="42.05114" lon="19.14218">
        <ele>244.639848</ele>
        <time>2022-05-26T11:02:30.239Z</time>
      </trkpt>
      <trkpt lat="42.05125" lon="19.14209">
        <ele>244.749207</ele>
        <time>2022-05-26T11:02:33.198Z</time>
      </trkpt>
      <trkpt lat="42.05136" lon="19.14201">
        <ele>244.857364</ele>
        <time>2022-05-26T11:02:36.217Z</time>
      </trkpt>
      <trkpt lat="42.05147" lon="19.14193">
        <ele>244.965075</ele>
        <time>2022-05-26T11:02:39.219Z</time>
      </trkpt>
      <trkpt lat="42.05158" lon="19.14186">
        <ele>245.067377</ele>
        <time>2022-05-26T11:02:42.213Z</time>
      </trkpt>
      <trkpt lat="42.05169" lon="19.1418">
        <ele>245.164527</ele>
        <time>2022-05-26T11:02:45.249Z</time>
      </trkpt>
      <trkpt lat="42.0518" lon="19.14173">
        <ele>245.266792</ele>
        <time>2022-05-26T11:02:48.217Z</time>
      </trkpt>
      <trkpt lat="42.0519" lon="19.14165">
        <ele>245.13976</ele>
        <time>2022-05-26T11:02:51.200Z</time>
      </trkpt>
      <trkpt lat="42.052" lon="19.14157">
        <ele>244.977738</ele>
        <time>2022-05-26T11:02:54.211Z</time>
      </trkpt>
      <trkpt lat="42.0521" lon="19.14148">
        <ele>244.810486</ele>
        <time>2022-05-26T11:02:57.213Z</time>
      </trkpt>
      <trkpt lat="42.05218" lon="19.14138">
        <ele>244.655774</ele>
        <time>2022-05-26T11:03:00.204Z</time>
      </trkpt>
      <trkpt lat="42.05223" lon="19.14121">
        <ele>244.463167</ele>
        <time>2022-05-26T11:03:03.215Z</time>
      </trkpt>
      <trkpt lat="42.05225" lon="19.14109">
        <ele>244.335472</ele>
        <time>2022-05-26T11:03:05.221Z</time>
      </trkpt>
      <trkpt lat="42.05226" lon="19.14092">
        <ele>244.156605</ele>
        <time>2022-05-26T11:03:08.205Z</time>
      </trkpt>
      <trkpt lat="42.05228" lon="19.14074">
        <ele>243.969467</ele>
        <time>2022-05-26T11:03:11.208Z</time>
      </trkpt>
      <trkpt lat="42.05232" lon="19.14058">
        <ele>243.786655</ele>
        <time>2022-05-26T11:03:14.225Z</time>
      </trkpt>
      <trkpt lat="42.05238" lon="19.14048">
        <ele>243.65939</ele>
        <time>2022-05-26T11:03:16.230Z</time>
      </trkpt>
      <trkpt lat="42.05245" lon="19.14038">
        <ele>243.518344</ele>
        <time>2022-05-26T11:03:18.202Z</time>
      </trkpt>
      <trkpt lat="42.05252" lon="19.14028">
        <ele>243.370583</ele>
        <time>2022-05-26T11:03:20.208Z</time>
      </trkpt>
      <trkpt lat="42.0526" lon="19.14019">
        <ele>243.219415</ele>
        <time>2022-05-26T11:03:22.219Z</time>
      </trkpt>
      <trkpt lat="42.05269" lon="19.14009">
        <ele>243.066449</ele>
        <time>2022-05-26T11:03:24.257Z</time>
      </trkpt>
      <trkpt lat="42.05277" lon="19.14">
        <ele>242.92181</ele>
        <time>2022-05-26T11:03:26.214Z</time>
      </trkpt>
      <trkpt lat="42.05284" lon="19.13992">
        <ele>242.785241</ele>
        <time>2022-05-26T11:03:28.229Z</time>
      </trkpt>
      <trkpt lat="42.05293" lon="19.13986">
        <ele>242.590646</ele>
        <time>2022-05-26T11:03:30.212Z</time>
      </trkpt>
      <trkpt lat="42.05301" lon="19.1398">
        <ele>242.377054</ele>
        <time>2022-05-26T11:03:32.224Z</time>
      </trkpt>
      <trkpt lat="42.0531" lon="19.13973">
        <ele>242.148341</ele>
        <time>2022-05-26T11:03:34.224Z</time>
      </trkpt>
      <trkpt lat="42.05319" lon="19.13967">
        <ele>241.922697</ele>
        <time>2022-05-26T11:03:36.212Z</time>
      </trkpt>
      <trkpt lat="42.05328" lon="19.13961">
        <ele>241.704862</ele>
        <time>2022-05-26T11:03:38.212Z</time>
      </trkpt>
      <trkpt lat="42.05337" lon="19.13954">
        <ele>241.488558</ele>
        <time>2022-05-26T11:03:40.201Z</time>
      </trkpt>
      <trkpt lat="42.05346" lon="19.13948">
        <ele>241.266429</ele>
        <time>2022-05-26T11:03:42.224Z</time>
      </trkpt>
      <trkpt lat="42.05355" lon="19.13941">
        <ele>241.036114</ele>
        <time>2022-05-26T11:03:44.220Z</time>
      </trkpt>
      <trkpt lat="42.05364" lon="19.13935">
        <ele>240.813617</ele>
        <time>2022-05-26T11:03:46.209Z</time>
      </trkpt>
      <trkpt lat="42.05373" lon="19.13928">
        <ele>240.591489</ele>
        <time>2022-05-26T11:03:48.219Z</time>
      </trkpt>
      <trkpt lat="42.0538" lon="19.13922">
        <ele>240.393014</ele>
        <time>2022-05-26T11:03:50.213Z</time>
      </trkpt>
      <trkpt lat="42.05385" lon="19.13911">
        <ele>240.186347</ele>
        <time>2022-05-26T11:03:53.213Z</time>
      </trkpt>
      <trkpt lat="42.05405" lon="19.13898">
        <ele>239.701606</ele>
        <time>2022-05-26T11:07:00.211Z</time>
      </trkpt>
      <trkpt lat="42.05414" lon="19.13889">
        <ele>239.465536</ele>
        <time>2022-05-26T11:07:03.199Z</time>
      </trkpt>
      <trkpt lat="42.05423" lon="19.13877">
        <ele>239.180055</ele>
        <time>2022-05-26T11:07:06.205Z</time>
      </trkpt>
      <trkpt lat="42.05429" lon="19.13866">
        <ele>238.956344</ele>
        <time>2022-05-26T11:07:08.202Z</time>
      </trkpt>
      <trkpt lat="42.05435" lon="19.13854">
        <ele>238.703513</ele>
        <time>2022-05-26T11:07:10.225Z</time>
      </trkpt>
      <trkpt lat="42.0544" lon="19.13838">
        <ele>238.408367</ele>
        <time>2022-05-26T11:07:12.213Z</time>
      </trkpt>
      <trkpt lat="42.05444" lon="19.13824">
        <ele>238.145652</ele>
        <time>2022-05-26T11:07:14.203Z</time>
      </trkpt>
      <trkpt lat="42.05449" lon="19.13808">
        <ele>237.840533</ele>
        <time>2022-05-26T11:07:17.202Z</time>
      </trkpt>
      <trkpt lat="42.05452" lon="19.13796">
        <ele>237.630014</ele>
        <time>2022-05-26T11:07:19.205Z</time>
      </trkpt>
      <trkpt lat="42.05457" lon="19.13784">
        <ele>237.385505</ele>
        <time>2022-05-26T11:07:21.198Z</time>
      </trkpt>
      <trkpt lat="42.05463" lon="19.13771">
        <ele>237.13449</ele>
        <time>2022-05-26T11:07:23.205Z</time>
      </trkpt>
      <trkpt lat="42.05468" lon="19.1376">
        <ele>236.902927</ele>
        <time>2022-05-26T11:07:25.198Z</time>
      </trkpt>
      <trkpt lat="42.05474" lon="19.1375">
        <ele>236.685738</ele>
        <time>2022-05-26T11:07:27.218Z</time>
      </trkpt>
      <trkpt lat="42.0548" lon="19.13738">
        <ele>236.435124</ele>
        <time>2022-05-26T11:07:29.197Z</time>
      </trkpt>
      <trkpt lat="42.05485" lon="19.13728">
        <ele>236.212215</ele>
        <time>2022-05-26T11:07:31.198Z</time>
      </trkpt>
      <trkpt lat="42.05493" lon="19.13714">
        <ele>235.91405</ele>
        <time>2022-05-26T11:07:34.218Z</time>
      </trkpt>
      <trkpt lat="42.05499" lon="19.13703">
        <ele>235.681423</ele>
        <time>2022-05-26T11:07:37.202Z</time>
      </trkpt>
      <trkpt lat="42.05505" lon="19.13691">
        <ele>235.415499</ele>
        <time>2022-05-26T11:07:41.198Z</time>
      </trkpt>
      <trkpt lat="42.05512" lon="19.13678">
        <ele>235.145898</ele>
        <time>2022-05-26T11:07:44.224Z</time>
      </trkpt>
      <trkpt lat="42.05517" lon="19.13667">
        <ele>234.931058</ele>
        <time>2022-05-26T11:07:46.211Z</time>
      </trkpt>
      <trkpt lat="42.05523" lon="19.13655">
        <ele>234.683065</ele>
        <time>2022-05-26T11:07:48.204Z</time>
      </trkpt>
      <trkpt lat="42.05529" lon="19.13642">
        <ele>234.011257</ele>
        <time>2022-05-26T11:07:50.220Z</time>
      </trkpt>
      <trkpt lat="42.05537" lon="19.13628">
        <ele>233.057232</ele>
        <time>2022-05-26T11:07:52.198Z</time>
      </trkpt>
      <trkpt lat="42.05543" lon="19.13617">
        <ele>232.280732</ele>
        <time>2022-05-26T11:07:54.197Z</time>
      </trkpt>
      <trkpt lat="42.05551" lon="19.13602">
        <ele>231.269135</ele>
        <time>2022-05-26T11:07:57.209Z</time>
      </trkpt>
      <trkpt lat="42.05557" lon="19.1359">
        <ele>230.468722</ele>
        <time>2022-05-26T11:07:59.199Z</time>
      </trkpt>
      <trkpt lat="42.05563" lon="19.13577">
        <ele>229.57441</ele>
        <time>2022-05-26T11:08:01.241Z</time>
      </trkpt>
      <trkpt lat="42.0557" lon="19.13562">
        <ele>228.600199</ele>
        <time>2022-05-26T11:08:03.197Z</time>
      </trkpt>
      <trkpt lat="42.05577" lon="19.13548">
        <ele>227.729147</ele>
        <time>2022-05-26T11:08:05.209Z</time>
      </trkpt>
      <trkpt lat="42.05582" lon="19.13538">
        <ele>227.02367</ele>
        <time>2022-05-26T11:08:07.204Z</time>
      </trkpt>
      <trkpt lat="42.0559" lon="19.13526">
        <ele>226.163962</ele>
        <time>2022-05-26T11:08:10.204Z</time>
      </trkpt>
      <trkpt lat="42.05595" lon="19.13516">
        <ele>225.486548</ele>
        <time>2022-05-26T11:08:14.197Z</time>
      </trkpt>
      <trkpt lat="42.05598" lon="19.13504">
        <ele>224.810572</ele>
        <time>2022-05-26T11:08:21.200Z</time>
      </trkpt>
      <trkpt lat="42.05602" lon="19.1349">
        <ele>223.968857</ele>
        <time>2022-05-26T11:08:26.205Z</time>
      </trkpt>
      <trkpt lat="42.05605" lon="19.13476">
        <ele>223.179674</ele>
        <time>2022-05-26T11:08:29.232Z</time>
      </trkpt>
      <trkpt lat="42.05608" lon="19.13464">
        <ele>222.438054</ele>
        <time>2022-05-26T11:08:32.204Z</time>
      </trkpt>
      <trkpt lat="42.0561" lon="19.13452">
        <ele>221.765844</ele>
        <time>2022-05-26T11:08:37.200Z</time>
      </trkpt>
      <trkpt lat="42.05611" lon="19.13439">
        <ele>220.979435</ele>
        <time>2022-05-26T11:08:41.208Z</time>
      </trkpt>
      <trkpt lat="42.05611" lon="19.13422">
        <ele>219.843908</ele>
        <time>2022-05-26T11:08:44.201Z</time>
      </trkpt>
      <trkpt lat="42.05612" lon="19.13409">
        <ele>218.962264</ele>
        <time>2022-05-26T11:08:46.225Z</time>
      </trkpt>
      <trkpt lat="42.05612" lon="19.13395">
        <ele>218.012175</ele>
        <time>2022-05-26T11:08:48.220Z</time>
      </trkpt>
      <trkpt lat="42.05612" lon="19.13382">
        <ele>217.069329</ele>
        <time>2022-05-26T11:08:50.212Z</time>
      </trkpt>
      <trkpt lat="42.05612" lon="19.13368">
        <ele>216.091945</ele>
        <time>2022-05-26T11:08:52.204Z</time>
      </trkpt>
      <trkpt lat="42.05612" lon="19.13353">
        <ele>215.080284</ele>
        <time>2022-05-26T11:08:54.198Z</time>
      </trkpt>
      <trkpt lat="42.05611" lon="19.13338">
        <ele>214.078135</ele>
        <time>2022-05-26T11:08:56.195Z</time>
      </trkpt>
      <trkpt lat="42.05606" lon="19.13327">
        <ele>213.170645</ele>
        <time>2022-05-26T11:08:58.215Z</time>
      </trkpt>
      <trkpt lat="42.05603" lon="19.13313">
        <ele>212.139536</ele>
        <time>2022-05-26T11:09:00.208Z</time>
      </trkpt>
      <trkpt lat="42.056" lon="19.133">
        <ele>211.219534</ele>
        <time>2022-05-26T11:09:02.198Z</time>
      </trkpt>
      <trkpt lat="42.05596" lon="19.13287">
        <ele>210.19567</ele>
        <time>2022-05-26T11:09:04.222Z</time>
      </trkpt>
      <trkpt lat="42.05589" lon="19.13273">
        <ele>209.099915</ele>
        <time>2022-05-26T11:09:06.203Z</time>
      </trkpt>
      <trkpt lat="42.05582" lon="19.1326">
        <ele>207.988158</ele>
        <time>2022-05-26T11:09:08.197Z</time>
      </trkpt>
      <trkpt lat="42.05577" lon="19.13249">
        <ele>207.114407</ele>
        <time>2022-05-26T11:09:10.206Z</time>
      </trkpt>
      <trkpt lat="42.05576" lon="19.13234">
        <ele>206.074015</ele>
        <time>2022-05-26T11:09:13.201Z</time>
      </trkpt>
      <trkpt lat="42.05585" lon="19.13231">
        <ele>205.19495</ele>
        <time>2022-05-26T11:09:16.220Z</time>
      </trkpt>
      <trkpt lat="42.05593" lon="19.13239">
        <ele>204.293796</ele>
        <time>2022-05-26T11:09:18.210Z</time>
      </trkpt>
      <trkpt lat="42.05602" lon="19.13251">
        <ele>203.447937</ele>
        <time>2022-05-26T11:09:20.215Z</time>
      </trkpt>
      <trkpt lat="42.05611" lon="19.13264">
        <ele>202.533102</ele>
        <time>2022-05-26T11:09:22.206Z</time>
      </trkpt>
      <trkpt lat="42.05619" lon="19.13276">
        <ele>201.705463</ele>
        <time>2022-05-26T11:09:24.198Z</time>
      </trkpt>
      <trkpt lat="42.05626" lon="19.13286">
        <ele>201.007124</ele>
        <time>2022-05-26T11:09:26.201Z</time>
      </trkpt>
      <trkpt lat="42.05635" lon="19.13301">
        <ele>200.059119</ele>
        <time>2022-05-26T11:09:29.251Z</time>
      </trkpt>
      <trkpt lat="42.0564" lon="19.13311">
        <ele>199.423158</ele>
        <time>2022-05-26T11:09:31.223Z</time>
      </trkpt>
      <trkpt lat="42.05648" lon="19.13325">
        <ele>198.511606</ele>
        <time>2022-05-26T11:09:34.202Z</time>
      </trkpt>
      <trkpt lat="42.05654" lon="19.13336">
        <ele>197.793868</ele>
        <time>2022-05-26T11:09:36.217Z</time>
      </trkpt>
      <trkpt lat="42.05661" lon="19.13348">
        <ele>197.010474</ele>
        <time>2022-05-26T11:09:38.221Z</time>
      </trkpt>
      <trkpt lat="42.05668" lon="19.13359">
        <ele>196.296599</ele>
        <time>2022-05-26T11:09:40.207Z</time>
      </trkpt>
      <trkpt lat="42.05674" lon="19.13371">
        <ele>195.550132</ele>
        <time>2022-05-26T11:09:42.223Z</time>
      </trkpt>
      <trkpt lat="42.0568" lon="19.13381">
        <ele>194.877109</ele>
        <time>2022-05-26T11:09:44.203Z</time>
      </trkpt>
      <trkpt lat="42.05687" lon="19.13396">
        <ele>193.957156</ele>
        <time>2022-05-26T11:09:47.233Z</time>
      </trkpt>
      <trkpt lat="42.05693" lon="19.13409">
        <ele>193.241966</ele>
        <time>2022-05-26T11:09:49.210Z</time>
      </trkpt>
      <trkpt lat="42.05697" lon="19.13422">
        <ele>192.517753</ele>
        <time>2022-05-26T11:09:51.214Z</time>
      </trkpt>
      <trkpt lat="42.057" lon="19.13433">
        <ele>191.948321</ele>
        <time>2022-05-26T11:09:53.195Z</time>
      </trkpt>
      <trkpt lat="42.05704" lon="19.1345">
        <ele>191.257682</ele>
        <time>2022-05-26T11:09:56.216Z</time>
      </trkpt>
      <trkpt lat="42.05706" lon="19.13463">
        <ele>190.760073</ele>
        <time>2022-05-26T11:09:58.268Z</time>
      </trkpt>
      <trkpt lat="42.05707" lon="19.13477">
        <ele>190.206602</ele>
        <time>2022-05-26T11:10:01.202Z</time>
      </trkpt>
      <trkpt lat="42.05711" lon="19.13491">
        <ele>189.628444</ele>
        <time>2022-05-26T11:10:04.207Z</time>
      </trkpt>
      <trkpt lat="42.05715" lon="19.13506">
        <ele>188.986626</ele>
        <time>2022-05-26T11:10:07.205Z</time>
      </trkpt>
      <trkpt lat="42.05719" lon="19.13517">
        <ele>188.504896</ele>
        <time>2022-05-26T11:10:09.240Z</time>
      </trkpt>
      <trkpt lat="42.05724" lon="19.13528">
        <ele>188.020204</ele>
        <time>2022-05-26T11:10:11.214Z</time>
      </trkpt>
      <trkpt lat="42.05731" lon="19.13537">
        <ele>187.513892</ele>
        <time>2022-05-26T11:10:13.217Z</time>
      </trkpt>
      <trkpt lat="42.05738" lon="19.13545">
        <ele>187.032752</ele>
        <time>2022-05-26T11:10:15.202Z</time>
      </trkpt>
      <trkpt lat="42.05746" lon="19.13551">
        <ele>186.552667</ele>
        <time>2022-05-26T11:10:17.209Z</time>
      </trkpt>
      <trkpt lat="42.05755" lon="19.13555">
        <ele>186.062105</ele>
        <time>2022-05-26T11:10:19.207Z</time>
      </trkpt>
      <trkpt lat="42.05765" lon="19.13559">
        <ele>185.509776</ele>
        <time>2022-05-26T11:10:21.219Z</time>
      </trkpt>
      <trkpt lat="42.05777" lon="19.1356">
        <ele>184.895395</ele>
        <time>2022-05-26T11:10:23.200Z</time>
      </trkpt>
      <trkpt lat="42.05789" lon="19.1356">
        <ele>184.288016</ele>
        <time>2022-05-26T11:10:25.202Z</time>
      </trkpt>
      <trkpt lat="42.05799" lon="19.13561">
        <ele>183.76432</ele>
        <time>2022-05-26T11:10:27.206Z</time>
      </trkpt>
      <trkpt lat="42.05811" lon="19.1356">
        <ele>183.141116</ele>
        <time>2022-05-26T11:10:30.206Z</time>
      </trkpt>
      <trkpt lat="42.05823" lon="19.13561">
        <ele>182.510426</ele>
        <time>2022-05-26T11:10:33.204Z</time>
      </trkpt>
      <trkpt lat="42.05832" lon="19.13561">
        <ele>182.080195</ele>
        <time>2022-05-26T11:10:35.208Z</time>
      </trkpt>
      <trkpt lat="42.05844" lon="19.13562">
        <ele>181.503359</ele>
        <time>2022-05-26T11:10:38.209Z</time>
      </trkpt>
      <trkpt lat="42.05856" lon="19.13561">
        <ele>180.958743</ele>
        <time>2022-05-26T11:10:41.202Z</time>
      </trkpt>
      <trkpt lat="42.05868" lon="19.13557">
        <ele>180.355836</ele>
        <time>2022-05-26T11:10:44.213Z</time>
      </trkpt>
      <trkpt lat="42.05878" lon="19.13555">
        <ele>179.896066</ele>
        <time>2022-05-26T11:10:46.214Z</time>
      </trkpt>
      <trkpt lat="42.05888" lon="19.13551">
        <ele>179.420376</ele>
        <time>2022-05-26T11:10:48.233Z</time>
      </trkpt>
      <trkpt lat="42.05898" lon="19.13546">
        <ele>178.905982</ele>
        <time>2022-05-26T11:10:50.204Z</time>
      </trkpt>
      <trkpt lat="42.05908" lon="19.1354">
        <ele>178.393964</ele>
        <time>2022-05-26T11:10:52.209Z</time>
      </trkpt>
      <trkpt lat="42.05917" lon="19.13535">
        <ele>177.90074</ele>
        <time>2022-05-26T11:10:54.207Z</time>
      </trkpt>
      <trkpt lat="42.05926" lon="19.1353">
        <ele>177.450541</ele>
        <time>2022-05-26T11:10:56.200Z</time>
      </trkpt>
      <trkpt lat="42.05936" lon="19.13524">
        <ele>176.966007</ele>
        <time>2022-05-26T11:10:58.204Z</time>
      </trkpt>
      <trkpt lat="42.05946" lon="19.13517">
        <ele>176.436388</ele>
        <time>2022-05-26T11:11:00.211Z</time>
      </trkpt>
      <trkpt lat="42.05956" lon="19.13511">
        <ele>175.874219</ele>
        <time>2022-05-26T11:11:02.207Z</time>
      </trkpt>
      <trkpt lat="42.05968" lon="19.13503">
        <ele>175.283919</ele>
        <time>2022-05-26T11:11:04.212Z</time>
      </trkpt>
      <trkpt lat="42.05979" lon="19.13496">
        <ele>174.664241</ele>
        <time>2022-05-26T11:11:06.207Z</time>
      </trkpt>
      <trkpt lat="42.05989" lon="19.1349">
        <ele>174.141029</ele>
        <time>2022-05-26T11:11:08.203Z</time>
      </trkpt>
      <trkpt lat="42.06003" lon="19.1349">
        <ele>173.37003</ele>
        <time>2022-05-26T11:11:11.209Z</time>
      </trkpt>
      <trkpt lat="42.06015" lon="19.13492">
        <ele>172.741864</ele>
        <time>2022-05-26T11:11:13.205Z</time>
      </trkpt>
      <trkpt lat="42.06025" lon="19.13494">
        <ele>172.179086</ele>
        <time>2022-05-26T11:11:15.228Z</time>
      </trkpt>
      <trkpt lat="42.06037" lon="19.13497">
        <ele>171.489226</ele>
        <time>2022-05-26T11:11:18.210Z</time>
      </trkpt>
      <trkpt lat="42.06046" lon="19.13498">
        <ele>170.979375</ele>
        <time>2022-05-26T11:11:20.204Z</time>
      </trkpt>
      <trkpt lat="42.06057" lon="19.13501">
        <ele>170.382905</ele>
        <time>2022-05-26T11:11:22.223Z</time>
      </trkpt>
      <trkpt lat="42.06068" lon="19.13504">
        <ele>169.768568</ele>
        <time>2022-05-26T11:11:24.202Z</time>
      </trkpt>
      <trkpt lat="42.06079" lon="19.13507">
        <ele>169.132692</ele>
        <time>2022-05-26T11:11:26.211Z</time>
      </trkpt>
      <trkpt lat="42.0609" lon="19.1351">
        <ele>168.517685</ele>
        <time>2022-05-26T11:11:28.224Z</time>
      </trkpt>
      <trkpt lat="42.06101" lon="19.13513">
        <ele>167.908101</ele>
        <time>2022-05-26T11:11:30.204Z</time>
      </trkpt>
      <trkpt lat="42.06111" lon="19.13515">
        <ele>167.356207</ele>
        <time>2022-05-26T11:11:32.209Z</time>
      </trkpt>
      <trkpt lat="42.06121" lon="19.13516">
        <ele>166.775552</ele>
        <time>2022-05-26T11:11:34.204Z</time>
      </trkpt>
      <trkpt lat="42.06131" lon="19.13518">
        <ele>166.223007</ele>
        <time>2022-05-26T11:11:36.200Z</time>
      </trkpt>
      <trkpt lat="42.06141" lon="19.1352">
        <ele>165.705014</ele>
        <time>2022-05-26T11:11:38.207Z</time>
      </trkpt>
      <trkpt lat="42.0615" lon="19.13521">
        <ele>165.173694</ele>
        <time>2022-05-26T11:11:40.207Z</time>
      </trkpt>
      <trkpt lat="42.0616" lon="19.13524">
        <ele>164.629058</ele>
        <time>2022-05-26T11:11:42.208Z</time>
      </trkpt>
      <trkpt lat="42.0617" lon="19.13526">
        <ele>164.063315</ele>
        <time>2022-05-26T11:11:44.215Z</time>
      </trkpt>
      <trkpt lat="42.06181" lon="19.13526">
        <ele>163.434541</ele>
        <time>2022-05-26T11:11:46.212Z</time>
      </trkpt>
      <trkpt lat="42.06192" lon="19.13522">
        <ele>162.804482</ele>
        <time>2022-05-26T11:11:48.207Z</time>
      </trkpt>
      <trkpt lat="42.06203" lon="19.13511">
        <ele>162.056326</ele>
        <time>2022-05-26T11:11:51.200Z</time>
      </trkpt>
      <trkpt lat="42.06213" lon="19.135">
        <ele>161.318138</ele>
        <time>2022-05-26T11:11:54.202Z</time>
      </trkpt>
      <trkpt lat="42.06223" lon="19.13491">
        <ele>160.642942</ele>
        <time>2022-05-26T11:11:57.203Z</time>
      </trkpt>
      <trkpt lat="42.06233" lon="19.13479">
        <ele>159.877127</ele>
        <time>2022-05-26T11:12:00.205Z</time>
      </trkpt>
      <trkpt lat="42.06241" lon="19.1347">
        <ele>159.306249</ele>
        <time>2022-05-26T11:12:02.204Z</time>
      </trkpt>
      <trkpt lat="42.0625" lon="19.13457">
        <ele>158.560675</ele>
        <time>2022-05-26T11:12:05.221Z</time>
      </trkpt>
      <trkpt lat="42.06256" lon="19.13448">
        <ele>158.042805</ele>
        <time>2022-05-26T11:12:07.215Z</time>
      </trkpt>
      <trkpt lat="42.06264" lon="19.13438">
        <ele>157.444456</ele>
        <time>2022-05-26T11:12:09.205Z</time>
      </trkpt>
      <trkpt lat="42.06269" lon="19.13428">
        <ele>156.938593</ele>
        <time>2022-05-26T11:12:11.218Z</time>
      </trkpt>
      <trkpt lat="42.06275" lon="19.13418">
        <ele>156.399453</ele>
        <time>2022-05-26T11:12:13.200Z</time>
      </trkpt>
      <trkpt lat="42.06281" lon="19.13408">
        <ele>155.863561</ele>
        <time>2022-05-26T11:12:15.203Z</time>
      </trkpt>
      <trkpt lat="42.06287" lon="19.13397">
        <ele>155.304691</ele>
        <time>2022-05-26T11:12:17.205Z</time>
      </trkpt>
      <trkpt lat="42.06298" lon="19.13385">
        <ele>154.540152</ele>
        <time>2022-05-26T11:12:20.207Z</time>
      </trkpt>
      <trkpt lat="42.06306" lon="19.13379">
        <ele>154.0494</ele>
        <time>2022-05-26T11:12:22.208Z</time>
      </trkpt>
      <trkpt lat="42.06319" lon="19.13373">
        <ele>153.409762</ele>
        <time>2022-05-26T11:12:25.221Z</time>
      </trkpt>
      <trkpt lat="42.06329" lon="19.13373">
        <ele>152.92384</ele>
        <time>2022-05-26T11:12:27.214Z</time>
      </trkpt>
      <trkpt lat="42.06339" lon="19.13372">
        <ele>152.42809</ele>
        <time>2022-05-26T11:12:29.252Z</time>
      </trkpt>
      <trkpt lat="42.06349" lon="19.13371">
        <ele>151.968263</ele>
        <time>2022-05-26T11:12:31.218Z</time>
      </trkpt>
      <trkpt lat="42.06363" lon="19.13365">
        <ele>151.306435</ele>
        <time>2022-05-26T11:12:34.207Z</time>
      </trkpt>
      <trkpt lat="42.06371" lon="19.13356">
        <ele>150.786833</ele>
        <time>2022-05-26T11:12:36.229Z</time>
      </trkpt>
      <trkpt lat="42.06379" lon="19.13346">
        <ele>150.258964</ele>
        <time>2022-05-26T11:12:38.216Z</time>
      </trkpt>
      <trkpt lat="42.06387" lon="19.13337">
        <ele>149.789772</ele>
        <time>2022-05-26T11:12:40.247Z</time>
      </trkpt>
      <trkpt lat="42.06394" lon="19.13329">
        <ele>149.365658</ele>
        <time>2022-05-26T11:12:42.201Z</time>
      </trkpt>
      <trkpt lat="42.06405" lon="19.13322">
        <ele>148.791774</ele>
        <time>2022-05-26T11:12:45.207Z</time>
      </trkpt>
      <trkpt lat="42.06415" lon="19.13316">
        <ele>148.249553</ele>
        <time>2022-05-26T11:12:48.209Z</time>
      </trkpt>
      <trkpt lat="42.06426" lon="19.1331">
        <ele>147.694375</ele>
        <time>2022-05-26T11:12:51.205Z</time>
      </trkpt>
      <trkpt lat="42.06439" lon="19.13303">
        <ele>147.047847</ele>
        <time>2022-05-26T11:12:54.204Z</time>
      </trkpt>
      <trkpt lat="42.06449" lon="19.13301">
        <ele>146.57509</ele>
        <time>2022-05-26T11:12:56.230Z</time>
      </trkpt>
      <trkpt lat="42.06459" lon="19.13301">
        <ele>146.089106</ele>
        <time>2022-05-26T11:12:58.206Z</time>
      </trkpt>
      <trkpt lat="42.06469" lon="19.13302">
        <ele>145.500302</ele>
        <time>2022-05-26T11:13:00.209Z</time>
      </trkpt>
      <trkpt lat="42.06482" lon="19.13304">
        <ele>144.395865</ele>
        <time>2022-05-26T11:13:03.206Z</time>
      </trkpt>
      <trkpt lat="42.06494" lon="19.13302">
        <ele>143.352956</ele>
        <time>2022-05-26T11:13:06.233Z</time>
      </trkpt>
      <trkpt lat="42.06507" lon="19.13302">
        <ele>142.253632</ele>
        <time>2022-05-26T11:13:09.198Z</time>
      </trkpt>
      <trkpt lat="42.06516" lon="19.13302">
        <ele>141.413999</ele>
        <time>2022-05-26T11:13:11.208Z</time>
      </trkpt>
      <trkpt lat="42.06529" lon="19.13303">
        <ele>140.295821</ele>
        <time>2022-05-26T11:13:13.198Z</time>
      </trkpt>
      <trkpt lat="42.0654" lon="19.13306">
        <ele>139.311204</ele>
        <time>2022-05-26T11:13:15.198Z</time>
      </trkpt>
      <trkpt lat="42.06551" lon="19.13315">
        <ele>138.191197</ele>
        <time>2022-05-26T11:13:18.201Z</time>
      </trkpt>
      <trkpt lat="42.06561" lon="19.13321">
        <ele>137.30432</ele>
        <time>2022-05-26T11:13:20.211Z</time>
      </trkpt>
      <trkpt lat="42.0657" lon="19.13321">
        <ele>136.50608</ele>
        <time>2022-05-26T11:13:22.201Z</time>
      </trkpt>
      <trkpt lat="42.06582" lon="19.13317">
        <ele>135.432933</ele>
        <time>2022-05-26T11:13:24.206Z</time>
      </trkpt>
      <trkpt lat="42.06594" lon="19.13312">
        <ele>134.327507</ele>
        <time>2022-05-26T11:13:26.204Z</time>
      </trkpt>
      <trkpt lat="42.06606" lon="19.13309">
        <ele>133.307685</ele>
        <time>2022-05-26T11:13:28.199Z</time>
      </trkpt>
      <trkpt lat="42.06615" lon="19.13309">
        <ele>132.485581</ele>
        <time>2022-05-26T11:13:30.208Z</time>
      </trkpt>
      <trkpt lat="42.06626" lon="19.13312">
        <ele>131.524102</ele>
        <time>2022-05-26T11:13:33.199Z</time>
      </trkpt>
      <trkpt lat="42.06638" lon="19.13316">
        <ele>130.444381</ele>
        <time>2022-05-26T11:13:36.200Z</time>
      </trkpt>
      <trkpt lat="42.06647" lon="19.13318">
        <ele>129.966395</ele>
        <time>2022-05-26T11:13:38.203Z</time>
      </trkpt>
      <trkpt lat="42.06658" lon="19.13321">
        <ele>129.578867</ele>
        <time>2022-05-26T11:13:40.204Z</time>
      </trkpt>
      <trkpt lat="42.06668" lon="19.13322">
        <ele>129.208738</ele>
        <time>2022-05-26T11:13:42.206Z</time>
      </trkpt>
      <trkpt lat="42.06679" lon="19.13323">
        <ele>128.825462</ele>
        <time>2022-05-26T11:13:44.201Z</time>
      </trkpt>
      <trkpt lat="42.06688" lon="19.13324">
        <ele>128.487098</ele>
        <time>2022-05-26T11:13:46.212Z</time>
      </trkpt>
      <trkpt lat="42.06701" lon="19.13321">
        <ele>128.027499</ele>
        <time>2022-05-26T11:13:48.204Z</time>
      </trkpt>
      <trkpt lat="42.06714" lon="19.13317">
        <ele>127.552125</ele>
        <time>2022-05-26T11:13:50.207Z</time>
      </trkpt>
      <trkpt lat="42.06727" lon="19.13309">
        <ele>127.053548</ele>
        <time>2022-05-26T11:13:52.237Z</time>
      </trkpt>
      <trkpt lat="42.06739" lon="19.13301">
        <ele>126.558413</ele>
        <time>2022-05-26T11:13:54.203Z</time>
      </trkpt>
      <trkpt lat="42.06751" lon="19.13294">
        <ele>126.094829</ele>
        <time>2022-05-26T11:13:56.213Z</time>
      </trkpt>
      <trkpt lat="42.06761" lon="19.13288">
        <ele>125.701741</ele>
        <time>2022-05-26T11:13:58.219Z</time>
      </trkpt>
      <trkpt lat="42.06771" lon="19.13284">
        <ele>125.338934</ele>
        <time>2022-05-26T11:14:00.197Z</time>
      </trkpt>
      <trkpt lat="42.06782" lon="19.13281">
        <ele>124.930374</ele>
        <time>2022-05-26T11:14:02.205Z</time>
      </trkpt>
      <trkpt lat="42.06794" lon="19.1328">
        <ele>124.482014</ele>
        <time>2022-05-26T11:14:05.211Z</time>
      </trkpt>
      <trkpt lat="42.06805" lon="19.13283">
        <ele>124.098529</ele>
        <time>2022-05-26T11:14:08.201Z</time>
      </trkpt>
      <trkpt lat="42.06814" lon="19.13286">
        <ele>123.755757</ele>
        <time>2022-05-26T11:14:12.206Z</time>
      </trkpt>
      <trkpt lat="42.06824" lon="19.1329">
        <ele>124.144937</ele>
        <time>2022-05-26T11:14:16.207Z</time>
      </trkpt>
      <trkpt lat="42.06837" lon="19.13289">
        <ele>124.617328</ele>
        <time>2022-05-26T11:14:20.200Z</time>
      </trkpt>
      <trkpt lat="42.06846" lon="19.13284">
        <ele>124.986176</ele>
        <time>2022-05-26T11:14:23.199Z</time>
      </trkpt>
      <trkpt lat="42.06854" lon="19.13275">
        <ele>125.38087</ele>
        <time>2022-05-26T11:14:27.197Z</time>
      </trkpt>
      <trkpt lat="42.06861" lon="19.13265">
        <ele>125.764053</ele>
        <time>2022-05-26T11:14:33.204Z</time>
      </trkpt>
      <trkpt lat="42.06869" lon="19.13257">
        <ele>126.128996</ele>
        <time>2022-05-26T11:14:37.195Z</time>
      </trkpt>
      <trkpt lat="42.06877" lon="19.13248">
        <ele>126.495193</ele>
        <time>2022-05-26T11:14:41.215Z</time>
      </trkpt>
      <trkpt lat="42.06885" lon="19.13238">
        <ele>126.918929</ele>
        <time>2022-05-26T11:14:45.200Z</time>
      </trkpt>
      <trkpt lat="42.06892" lon="19.13229">
        <ele>127.272209</ele>
        <time>2022-05-26T11:14:48.229Z</time>
      </trkpt>
      <trkpt lat="42.069" lon="19.13219">
        <ele>127.679862</ele>
        <time>2022-05-26T11:14:52.203Z</time>
      </trkpt>
      <trkpt lat="42.06906" lon="19.13209">
        <ele>128.04053</ele>
        <time>2022-05-26T11:14:55.197Z</time>
      </trkpt>
      <trkpt lat="42.06913" lon="19.13199">
        <ele>128.41455</ele>
        <time>2022-05-26T11:14:58.199Z</time>
      </trkpt>
      <trkpt lat="42.0692" lon="19.13191">
        <ele>128.751115</ele>
        <time>2022-05-26T11:15:01.201Z</time>
      </trkpt>
      <trkpt lat="42.06927" lon="19.13181">
        <ele>129.147669</ele>
        <time>2022-05-26T11:15:05.201Z</time>
      </trkpt>
      <trkpt lat="42.06935" lon="19.1317">
        <ele>129.569466</ele>
        <time>2022-05-26T11:15:10.195Z</time>
      </trkpt>
      <trkpt lat="42.06941" lon="19.1316">
        <ele>129.929366</ele>
        <time>2022-05-26T11:15:14.204Z</time>
      </trkpt>
      <trkpt lat="42.06948" lon="19.13151">
        <ele>130.265464</ele>
        <time>2022-05-26T11:15:18.204Z</time>
      </trkpt>
      <trkpt lat="42.06955" lon="19.13144">
        <ele>130.353479</ele>
        <time>2022-05-26T11:15:22.198Z</time>
      </trkpt>
      <trkpt lat="42.06963" lon="19.13138">
        <ele>130.170078</ele>
        <time>2022-05-26T11:15:25.198Z</time>
      </trkpt>
      <trkpt lat="42.06976" lon="19.13131">
        <ele>129.894984</ele>
        <time>2022-05-26T11:15:28.233Z</time>
      </trkpt>
      <trkpt lat="42.06987" lon="19.13126">
        <ele>129.667562</ele>
        <time>2022-05-26T11:15:30.197Z</time>
      </trkpt>
      <trkpt lat="42.06997" lon="19.13121">
        <ele>129.441612</ele>
        <time>2022-05-26T11:15:32.212Z</time>
      </trkpt>
      <trkpt lat="42.07008" lon="19.13118">
        <ele>129.232732</ele>
        <time>2022-05-26T11:15:34.200Z</time>
      </trkpt>
      <trkpt lat="42.07017" lon="19.13115">
        <ele>129.038304</ele>
        <time>2022-05-26T11:15:36.210Z</time>
      </trkpt>
      <trkpt lat="42.07027" lon="19.13114">
        <ele>128.836324</ele>
        <time>2022-05-26T11:15:39.223Z</time>
      </trkpt>
      <trkpt lat="42.07039" lon="19.13117">
        <ele>128.595754</ele>
        <time>2022-05-26T11:15:43.199Z</time>
      </trkpt>
      <trkpt lat="42.0705" lon="19.13121">
        <ele>128.363254</ele>
        <time>2022-05-26T11:15:46.208Z</time>
      </trkpt>
      <trkpt lat="42.0706" lon="19.13122">
        <ele>128.164234</ele>
        <time>2022-05-26T11:15:48.222Z</time>
      </trkpt>
      <trkpt lat="42.0707" lon="19.1312">
        <ele>127.967571</ele>
        <time>2022-05-26T11:15:50.204Z</time>
      </trkpt>
      <trkpt lat="42.0708" lon="19.13117">
        <ele>127.768919</ele>
        <time>2022-05-26T11:15:52.203Z</time>
      </trkpt>
      <trkpt lat="42.0709" lon="19.13115">
        <ele>127.555665</ele>
        <time>2022-05-26T11:15:54.213Z</time>
      </trkpt>
      <trkpt lat="42.071" lon="19.13114">
        <ele>127.36873</ele>
        <time>2022-05-26T11:15:56.216Z</time>
      </trkpt>
      <trkpt lat="42.07109" lon="19.13113">
        <ele>127.187596</ele>
        <time>2022-05-26T11:15:58.207Z</time>
      </trkpt>
      <trkpt lat="42.07118" lon="19.13113">
        <ele>126.993663</ele>
        <time>2022-05-26T11:16:00.197Z</time>
      </trkpt>
      <trkpt lat="42.07128" lon="19.13113">
        <ele>126.677441</ele>
        <time>2022-05-26T11:16:02.208Z</time>
      </trkpt>
      <trkpt lat="42.07141" lon="19.13115">
        <ele>125.8891</ele>
        <time>2022-05-26T11:16:05.200Z</time>
      </trkpt>
      <trkpt lat="42.07154" lon="19.13118">
        <ele>125.087113</ele>
        <time>2022-05-26T11:16:08.208Z</time>
      </trkpt>
      <trkpt lat="42.07163" lon="19.1312">
        <ele>124.525479</ele>
        <time>2022-05-26T11:16:10.210Z</time>
      </trkpt>
      <trkpt lat="42.07172" lon="19.13121">
        <ele>123.957099</ele>
        <time>2022-05-26T11:16:12.197Z</time>
      </trkpt>
      <trkpt lat="42.07181" lon="19.1312">
        <ele>123.38607</ele>
        <time>2022-05-26T11:16:14.222Z</time>
      </trkpt>
      <trkpt lat="42.07191" lon="19.13118">
        <ele>122.785084</ele>
        <time>2022-05-26T11:16:16.214Z</time>
      </trkpt>
      <trkpt lat="42.07201" lon="19.13116">
        <ele>122.158215</ele>
        <time>2022-05-26T11:16:18.212Z</time>
      </trkpt>
      <trkpt lat="42.07211" lon="19.13114">
        <ele>121.52524</ele>
        <time>2022-05-26T11:16:20.201Z</time>
      </trkpt>
      <trkpt lat="42.07221" lon="19.13111">
        <ele>120.852578</ele>
        <time>2022-05-26T11:16:22.209Z</time>
      </trkpt>
      <trkpt lat="42.07232" lon="19.13109">
        <ele>120.181485</ele>
        <time>2022-05-26T11:16:24.205Z</time>
      </trkpt>
      <trkpt lat="42.07243" lon="19.13106">
        <ele>119.482822</ele>
        <time>2022-05-26T11:16:26.197Z</time>
      </trkpt>
      <trkpt lat="42.07254" lon="19.13103">
        <ele>118.810765</ele>
        <time>2022-05-26T11:16:28.202Z</time>
      </trkpt>
      <trkpt lat="42.07264" lon="19.131">
        <ele>118.181529</ele>
        <time>2022-05-26T11:16:30.213Z</time>
      </trkpt>
      <trkpt lat="42.07274" lon="19.13099">
        <ele>117.541917</ele>
        <time>2022-05-26T11:16:32.195Z</time>
      </trkpt>
      <trkpt lat="42.07285" lon="19.13101">
        <ele>116.858763</ele>
        <time>2022-05-26T11:16:34.212Z</time>
      </trkpt>
      <trkpt lat="42.07295" lon="19.13106">
        <ele>116.221995</ele>
        <time>2022-05-26T11:16:36.203Z</time>
      </trkpt>
      <trkpt lat="42.07303" lon="19.13113">
        <ele>115.608653</ele>
        <time>2022-05-26T11:16:38.202Z</time>
      </trkpt>
      <trkpt lat="42.07312" lon="19.13122">
        <ele>115.01994</ele>
        <time>2022-05-26T11:16:40.198Z</time>
      </trkpt>
      <trkpt lat="42.07324" lon="19.13128">
        <ele>114.358328</ele>
        <time>2022-05-26T11:16:42.199Z</time>
      </trkpt>
      <trkpt lat="42.07335" lon="19.13124">
        <ele>113.783972</ele>
        <time>2022-05-26T11:16:44.234Z</time>
      </trkpt>
      <trkpt lat="42.07343" lon="19.13112">
        <ele>113.160799</ele>
        <time>2022-05-26T11:16:46.206Z</time>
      </trkpt>
      <trkpt lat="42.07349" lon="19.13098">
        <ele>112.534731</ele>
        <time>2022-05-26T11:16:48.199Z</time>
      </trkpt>
      <trkpt lat="42.07353" lon="19.13085">
        <ele>111.997251</ele>
        <time>2022-05-26T11:16:50.202Z</time>
      </trkpt>
      <trkpt lat="42.07355" lon="19.13072">
        <ele>111.473392</ele>
        <time>2022-05-26T11:16:52.211Z</time>
      </trkpt>
      <trkpt lat="42.07357" lon="19.1306">
        <ele>111.002091</ele>
        <time>2022-05-26T11:16:54.215Z</time>
      </trkpt>
      <trkpt lat="42.07358" lon="19.13047">
        <ele>110.50229</ele>
        <time>2022-05-26T11:16:56.210Z</time>
      </trkpt>
      <trkpt lat="42.07361" lon="19.13034">
        <ele>109.969772</ele>
        <time>2022-05-26T11:16:58.215Z</time>
      </trkpt>
      <trkpt lat="42.07366" lon="19.13021">
        <ele>109.423455</ele>
        <time>2022-05-26T11:17:00.214Z</time>
      </trkpt>
      <trkpt lat="42.07371" lon="19.13009">
        <ele>108.857337</ele>
        <time>2022-05-26T11:17:02.203Z</time>
      </trkpt>
      <trkpt lat="42.07378" lon="19.12998">
        <ele>108.306242</ele>
        <time>2022-05-26T11:17:04.204Z</time>
      </trkpt>
      <trkpt lat="42.07386" lon="19.12989">
        <ele>107.748655</ele>
        <time>2022-05-26T11:17:06.228Z</time>
      </trkpt>
      <trkpt lat="42.07396" lon="19.12983">
        <ele>107.207252</ele>
        <time>2022-05-26T11:17:08.203Z</time>
      </trkpt>
      <trkpt lat="42.07406" lon="19.12982">
        <ele>106.659181</ele>
        <time>2022-05-26T11:17:10.251Z</time>
      </trkpt>
      <trkpt lat="42.07417" lon="19.12986">
        <ele>106.169773</ele>
        <time>2022-05-26T11:17:13.210Z</time>
      </trkpt>
      <trkpt lat="42.07426" lon="19.12988">
        <ele>105.869178</ele>
        <time>2022-05-26T11:17:15.203Z</time>
      </trkpt>
      <trkpt lat="42.07437" lon="19.12992">
        <ele>105.485493</ele>
        <time>2022-05-26T11:17:17.232Z</time>
      </trkpt>
      <trkpt lat="42.07449" lon="19.12995">
        <ele>105.099146</ele>
        <time>2022-05-26T11:17:19.197Z</time>
      </trkpt>
      <trkpt lat="42.0746" lon="19.12998">
        <ele>104.70233</ele>
        <time>2022-05-26T11:17:21.205Z</time>
      </trkpt>
      <trkpt lat="42.07474" lon="19.12999">
        <ele>104.255646</ele>
        <time>2022-05-26T11:17:23.224Z</time>
      </trkpt>
      <trkpt lat="42.07487" lon="19.12997">
        <ele>103.809873</ele>
        <time>2022-05-26T11:17:25.197Z</time>
      </trkpt>
      <trkpt lat="42.075" lon="19.12994">
        <ele>103.362295</ele>
        <time>2022-05-26T11:17:27.199Z</time>
      </trkpt>
      <trkpt lat="42.07513" lon="19.12992">
        <ele>102.944125</ele>
        <time>2022-05-26T11:17:29.249Z</time>
      </trkpt>
      <trkpt lat="42.07522" lon="19.12987">
        <ele>102.603481</ele>
        <time>2022-05-26T11:17:31.199Z</time>
      </trkpt>
      <trkpt lat="42.07531" lon="19.1298">
        <ele>102.26769</ele>
        <time>2022-05-26T11:17:33.200Z</time>
      </trkpt>
      <trkpt lat="42.07539" lon="19.12974">
        <ele>101.956516</ele>
        <time>2022-05-26T11:17:35.211Z</time>
      </trkpt>
      <trkpt lat="42.0755" lon="19.12965">
        <ele>101.534839</ele>
        <time>2022-05-26T11:17:38.213Z</time>
      </trkpt>
      <trkpt lat="42.0756" lon="19.12956">
        <ele>101.144654</ele>
        <time>2022-05-26T11:17:41.201Z</time>
      </trkpt>
      <trkpt lat="42.07572" lon="19.12952">
        <ele>100.743659</ele>
        <time>2022-05-26T11:17:44.220Z</time>
      </trkpt>
      <trkpt lat="42.07582" lon="19.12953">
        <ele>100.40424</ele>
        <time>2022-05-26T11:17:47.199Z</time>
      </trkpt>
      <trkpt lat="42.07593" lon="19.12955">
        <ele>100.162086</ele>
        <time>2022-05-26T11:17:51.217Z</time>
      </trkpt>
      <trkpt lat="42.07604" lon="19.12957">
        <ele>99.936094</ele>
        <time>2022-05-26T11:17:54.200Z</time>
      </trkpt>
      <trkpt lat="42.07616" lon="19.12957">
        <ele>99.709449</ele>
        <time>2022-05-26T11:17:57.195Z</time>
      </trkpt>
      <trkpt lat="42.07628" lon="19.12956">
        <ele>99.453884</ele>
        <time>2022-05-26T11:18:00.214Z</time>
      </trkpt>
      <trkpt lat="42.07641" lon="19.12949">
        <ele>99.176058</ele>
        <time>2022-05-26T11:18:03.204Z</time>
      </trkpt>
      <trkpt lat="42.07651" lon="19.12938">
        <ele>98.917686</ele>
        <time>2022-05-26T11:18:06.205Z</time>
      </trkpt>
      <trkpt lat="42.07659" lon="19.12927">
        <ele>98.694294</ele>
        <time>2022-05-26T11:18:09.198Z</time>
      </trkpt>
      <trkpt lat="42.07667" lon="19.12916">
        <ele>98.454222</ele>
        <time>2022-05-26T11:18:12.206Z</time>
      </trkpt>
      <trkpt lat="42.07675" lon="19.12909">
        <ele>98.273678</ele>
        <time>2022-05-26T11:18:14.223Z</time>
      </trkpt>
      <trkpt lat="42.07686" lon="19.12901">
        <ele>98.018172</ele>
        <time>2022-05-26T11:18:17.206Z</time>
      </trkpt>
      <trkpt lat="42.07697" lon="19.12895">
        <ele>97.776418</ele>
        <time>2022-05-26T11:18:20.227Z</time>
      </trkpt>
      <trkpt lat="42.07706" lon="19.12892">
        <ele>97.591469</ele>
        <time>2022-05-26T11:18:22.200Z</time>
      </trkpt>
      <trkpt lat="42.07716" lon="19.12887">
        <ele>97.375878</ele>
        <time>2022-05-26T11:18:24.249Z</time>
      </trkpt>
      <trkpt lat="42.07728" lon="19.12883">
        <ele>97.140206</ele>
        <time>2022-05-26T11:18:26.232Z</time>
      </trkpt>
      <trkpt lat="42.07738" lon="19.1288">
        <ele>96.924335</ele>
        <time>2022-05-26T11:18:28.199Z</time>
      </trkpt>
      <trkpt lat="42.07748" lon="19.1288">
        <ele>96.712335</ele>
        <time>2022-05-26T11:18:30.201Z</time>
      </trkpt>
      <trkpt lat="42.07758" lon="19.12882">
        <ele>96.426987</ele>
        <time>2022-05-26T11:18:32.212Z</time>
      </trkpt>
      <trkpt lat="42.07766" lon="19.12887">
        <ele>96.160498</ele>
        <time>2022-05-26T11:18:34.203Z</time>
      </trkpt>
      <trkpt lat="42.07774" lon="19.12899">
        <ele>95.817435</ele>
        <time>2022-05-26T11:18:37.222Z</time>
      </trkpt>
      <trkpt lat="42.07782" lon="19.12913">
        <ele>95.428558</ele>
        <time>2022-05-26T11:18:40.196Z</time>
      </trkpt>
      <trkpt lat="42.07787" lon="19.12928">
        <ele>95.051847</ele>
        <time>2022-05-26T11:18:43.199Z</time>
      </trkpt>
      <trkpt lat="42.07794" lon="19.12944">
        <ele>94.671589</ele>
        <time>2022-05-26T11:18:46.197Z</time>
      </trkpt>
      <trkpt lat="42.07802" lon="19.12957">
        <ele>94.297769</ele>
        <time>2022-05-26T11:18:49.199Z</time>
      </trkpt>
      <trkpt lat="42.0781" lon="19.12963">
        <ele>94.021963</ele>
        <time>2022-05-26T11:18:51.198Z</time>
      </trkpt>
      <trkpt lat="42.07819" lon="19.12967">
        <ele>93.729267</ele>
        <time>2022-05-26T11:18:53.223Z</time>
      </trkpt>
      <trkpt lat="42.07829" lon="19.12971">
        <ele>93.425058</ele>
        <time>2022-05-26T11:18:55.197Z</time>
      </trkpt>
      <trkpt lat="42.07839" lon="19.12973">
        <ele>93.130846</ele>
        <time>2022-05-26T11:18:57.200Z</time>
      </trkpt>
      <trkpt lat="42.07849" lon="19.12975">
        <ele>92.839859</ele>
        <time>2022-05-26T11:18:59.222Z</time>
      </trkpt>
      <trkpt lat="42.07862" lon="19.12976">
        <ele>92.465691</ele>
        <time>2022-05-26T11:19:02.199Z</time>
      </trkpt>
      <trkpt lat="42.07871" lon="19.12975">
        <ele>92.18607</ele>
        <time>2022-05-26T11:19:04.197Z</time>
      </trkpt>
      <trkpt lat="42.07881" lon="19.12973">
        <ele>91.88792</ele>
        <time>2022-05-26T11:19:06.199Z</time>
      </trkpt>
      <trkpt lat="42.07892" lon="19.1297">
        <ele>91.564687</ele>
        <time>2022-05-26T11:19:08.203Z</time>
      </trkpt>
      <trkpt lat="42.07904" lon="19.12967">
        <ele>91.240112</ele>
        <time>2022-05-26T11:19:10.204Z</time>
      </trkpt>
      <trkpt lat="42.07915" lon="19.12963">
        <ele>90.936352</ele>
        <time>2022-05-26T11:19:12.210Z</time>
      </trkpt>
      <trkpt lat="42.07926" lon="19.12958">
        <ele>90.641309</ele>
        <time>2022-05-26T11:19:14.208Z</time>
      </trkpt>
      <trkpt lat="42.07937" lon="19.12953">
        <ele>90.330579</ele>
        <time>2022-05-26T11:19:16.202Z</time>
      </trkpt>
      <trkpt lat="42.07948" lon="19.12946">
        <ele>90.005126</ele>
        <time>2022-05-26T11:19:18.204Z</time>
      </trkpt>
      <trkpt lat="42.0796" lon="19.1294">
        <ele>89.68619</ele>
        <time>2022-05-26T11:19:20.203Z</time>
      </trkpt>
      <trkpt lat="42.07971" lon="19.12934">
        <ele>89.377914</ele>
        <time>2022-05-26T11:19:22.215Z</time>
      </trkpt>
      <trkpt lat="42.07983" lon="19.12928">
        <ele>89.024898</ele>
        <time>2022-05-26T11:19:25.211Z</time>
      </trkpt>
      <trkpt lat="42.07994" lon="19.12922">
        <ele>88.722215</ele>
        <time>2022-05-26T11:19:28.201Z</time>
      </trkpt>
      <trkpt lat="42.08006" lon="19.12917">
        <ele>88.396001</ele>
        <time>2022-05-26T11:19:31.202Z</time>
      </trkpt>
      <trkpt lat="42.08015" lon="19.12912">
        <ele>88.12718</ele>
        <time>2022-05-26T11:19:33.232Z</time>
      </trkpt>
      <trkpt lat="42.08026" lon="19.12907">
        <ele>87.826512</ele>
        <time>2022-05-26T11:19:35.226Z</time>
      </trkpt>
      <trkpt lat="42.08037" lon="19.12902">
        <ele>87.51959</ele>
        <time>2022-05-26T11:19:37.200Z</time>
      </trkpt>
      <trkpt lat="42.08048" lon="19.12897">
        <ele>87.225162</ele>
        <time>2022-05-26T11:19:39.209Z</time>
      </trkpt>
      <trkpt lat="42.08057" lon="19.12893">
        <ele>86.963645</ele>
        <time>2022-05-26T11:19:41.222Z</time>
      </trkpt>
      <trkpt lat="42.08066" lon="19.12891">
        <ele>86.752411</ele>
        <time>2022-05-26T11:19:43.198Z</time>
      </trkpt>
      <trkpt lat="42.08076" lon="19.12893">
        <ele>86.745855</ele>
        <time>2022-05-26T11:19:45.202Z</time>
      </trkpt>
      <trkpt lat="42.08085" lon="19.12894">
        <ele>86.739257</ele>
        <time>2022-05-26T11:19:47.254Z</time>
      </trkpt>
      <trkpt lat="42.08095" lon="19.12896">
        <ele>86.732527</ele>
        <time>2022-05-26T11:19:49.197Z</time>
      </trkpt>
      <trkpt lat="42.08104" lon="19.12898">
        <ele>86.725721</ele>
        <time>2022-05-26T11:19:51.208Z</time>
      </trkpt>
      <trkpt lat="42.08113" lon="19.12901">
        <ele>86.719346</ele>
        <time>2022-05-26T11:19:53.205Z</time>
      </trkpt>
      <trkpt lat="42.08123" lon="19.12904">
        <ele>86.711899</ele>
        <time>2022-05-26T11:19:55.200Z</time>
      </trkpt>
      <trkpt lat="42.08134" lon="19.12907">
        <ele>86.70454</ele>
        <time>2022-05-26T11:19:57.196Z</time>
      </trkpt>
      <trkpt lat="42.08144" lon="19.1291">
        <ele>86.697186</ele>
        <time>2022-05-26T11:19:59.197Z</time>
      </trkpt>
      <trkpt lat="42.08154" lon="19.12914">
        <ele>86.689957</ele>
        <time>2022-05-26T11:20:01.213Z</time>
      </trkpt>
      <trkpt lat="42.08163" lon="19.12918">
        <ele>86.682818</ele>
        <time>2022-05-26T11:20:03.203Z</time>
      </trkpt>
      <trkpt lat="42.08173" lon="19.12922">
        <ele>86.675614</ele>
        <time>2022-05-26T11:20:05.198Z</time>
      </trkpt>
      <trkpt lat="42.08182" lon="19.12927">
        <ele>86.668855</ele>
        <time>2022-05-26T11:20:07.193Z</time>
      </trkpt>
      <trkpt lat="42.08191" lon="19.12931">
        <ele>86.661948</ele>
        <time>2022-05-26T11:20:09.231Z</time>
      </trkpt>
      <trkpt lat="42.08201" lon="19.12935">
        <ele>86.655226</ele>
        <time>2022-05-26T11:20:11.207Z</time>
      </trkpt>
      <trkpt lat="42.08209" lon="19.12939">
        <ele>86.648803</ele>
        <time>2022-05-26T11:20:13.204Z</time>
      </trkpt>
      <trkpt lat="42.08221" lon="19.12944">
        <ele>86.640034</ele>
        <time>2022-05-26T11:20:16.204Z</time>
      </trkpt>
      <trkpt lat="42.08232" lon="19.12948">
        <ele>86.632357</ele>
        <time>2022-05-26T11:20:19.199Z</time>
      </trkpt>
      <trkpt lat="42.08243" lon="19.12954">
        <ele>86.713774</ele>
        <time>2022-05-26T11:20:22.202Z</time>
      </trkpt>
      <trkpt lat="42.08251" lon="19.12963">
        <ele>86.899412</ele>
        <time>2022-05-26T11:20:25.206Z</time>
      </trkpt>
      <trkpt lat="42.08259" lon="19.12972">
        <ele>87.09324</ele>
        <time>2022-05-26T11:20:28.211Z</time>
      </trkpt>
      <trkpt lat="42.08266" lon="19.12982">
        <ele>87.291366</ele>
        <time>2022-05-26T11:20:31.200Z</time>
      </trkpt>
      <trkpt lat="42.08273" lon="19.12992">
        <ele>87.477055</ele>
        <time>2022-05-26T11:20:34.196Z</time>
      </trkpt>
      <trkpt lat="42.08279" lon="19.13001">
        <ele>87.649053</ele>
        <time>2022-05-26T11:20:37.198Z</time>
      </trkpt>
      <trkpt lat="42.08286" lon="19.13013">
        <ele>87.855187</ele>
        <time>2022-05-26T11:20:41.202Z</time>
      </trkpt>
      <trkpt lat="42.08293" lon="19.13022">
        <ele>88.034826</ele>
        <time>2022-05-26T11:20:45.203Z</time>
      </trkpt>
      <trkpt lat="42.08298" lon="19.13033">
        <ele>88.208511</ele>
        <time>2022-05-26T11:20:48.218Z</time>
      </trkpt>
      <trkpt lat="42.08305" lon="19.13046">
        <ele>88.435246</ele>
        <time>2022-05-26T11:20:52.208Z</time>
      </trkpt>
      <trkpt lat="42.08311" lon="19.13056">
        <ele>88.608634</ele>
        <time>2022-05-26T11:20:55.227Z</time>
      </trkpt>
      <trkpt lat="42.08316" lon="19.13067">
        <ele>88.795361</ele>
        <time>2022-05-26T11:20:58.210Z</time>
      </trkpt>
      <trkpt lat="42.08323" lon="19.13076">
        <ele>88.977753</ele>
        <time>2022-05-26T11:21:01.219Z</time>
      </trkpt>
      <trkpt lat="42.08332" lon="19.13088">
        <ele>89.206064</ele>
        <time>2022-05-26T11:21:05.203Z</time>
      </trkpt>
      <trkpt lat="42.0834" lon="19.13097">
        <ele>89.411263</ele>
        <time>2022-05-26T11:21:09.199Z</time>
      </trkpt>
      <trkpt lat="42.08348" lon="19.13104">
        <ele>89.586927</ele>
        <time>2022-05-26T11:21:12.197Z</time>
      </trkpt>
      <trkpt lat="42.08358" lon="19.13111">
        <ele>89.797487</ele>
        <time>2022-05-26T11:21:15.197Z</time>
      </trkpt>
      <trkpt lat="42.08368" lon="19.13117">
        <ele>89.972443</ele>
        <time>2022-05-26T11:21:18.209Z</time>
      </trkpt>
      <trkpt lat="42.08377" lon="19.13123">
        <ele>89.860116</ele>
        <time>2022-05-26T11:21:21.205Z</time>
      </trkpt>
      <trkpt lat="42.08385" lon="19.13129">
        <ele>89.75684</ele>
        <time>2022-05-26T11:21:24.216Z</time>
      </trkpt>
      <trkpt lat="42.08394" lon="19.13136">
        <ele>89.640775</ele>
        <time>2022-05-26T11:21:27.199Z</time>
      </trkpt>
      <trkpt lat="42.08404" lon="19.13142">
        <ele>89.522185</ele>
        <time>2022-05-26T11:21:30.225Z</time>
      </trkpt>
      <trkpt lat="42.08413" lon="19.13147">
        <ele>89.412084</ele>
        <time>2022-05-26T11:21:33.201Z</time>
      </trkpt>
      <trkpt lat="42.08422" lon="19.13154">
        <ele>89.293413</ele>
        <time>2022-05-26T11:21:36.223Z</time>
      </trkpt>
      <trkpt lat="42.08434" lon="19.13162">
        <ele>89.147564</ele>
        <time>2022-05-26T11:21:39.209Z</time>
      </trkpt>
      <trkpt lat="42.08443" lon="19.13167">
        <ele>89.040481</ele>
        <time>2022-05-26T11:21:41.197Z</time>
      </trkpt>
      <trkpt lat="42.08451" lon="19.13173">
        <ele>88.934819</ele>
        <time>2022-05-26T11:21:43.207Z</time>
      </trkpt>
      <trkpt lat="42.0846" lon="19.13177">
        <ele>88.828898</ele>
        <time>2022-05-26T11:21:45.205Z</time>
      </trkpt>
      <trkpt lat="42.08469" lon="19.13181">
        <ele>88.726693</ele>
        <time>2022-05-26T11:21:47.221Z</time>
      </trkpt>
      <trkpt lat="42.08478" lon="19.13183">
        <ele>88.620095</ele>
        <time>2022-05-26T11:21:49.208Z</time>
      </trkpt>
      <trkpt lat="42.08487" lon="19.13184">
        <ele>88.516067</ele>
        <time>2022-05-26T11:21:51.207Z</time>
      </trkpt>
      <trkpt lat="42.085" lon="19.1318">
        <ele>88.373984</ele>
        <time>2022-05-26T11:21:54.196Z</time>
      </trkpt>
      <trkpt lat="42.0851" lon="19.13176">
        <ele>88.252437</ele>
        <time>2022-05-26T11:21:57.206Z</time>
      </trkpt>
      <trkpt lat="42.08519" lon="19.13171">
        <ele>88.148316</ele>
        <time>2022-05-26T11:22:00.213Z</time>
      </trkpt>
      <trkpt lat="42.08528" lon="19.13164">
        <ele>88.027642</ele>
        <time>2022-05-26T11:22:04.205Z</time>
      </trkpt>
      <trkpt lat="42.08534" lon="19.13153">
        <ele>88.068576</ele>
        <time>2022-05-26T11:22:08.197Z</time>
      </trkpt>
      <trkpt lat="42.08538" lon="19.13139">
        <ele>88.28699</ele>
        <time>2022-05-26T11:22:12.206Z</time>
      </trkpt>
      <trkpt lat="42.0854" lon="19.13127">
        <ele>88.467302</ele>
        <time>2022-05-26T11:22:15.199Z</time>
      </trkpt>
      <trkpt lat="42.08544" lon="19.13114">
        <ele>88.68227</ele>
        <time>2022-05-26T11:22:18.214Z</time>
      </trkpt>
      <trkpt lat="42.08555" lon="19.13111">
        <ele>88.898037</ele>
        <time>2022-05-26T11:22:21.218Z</time>
      </trkpt>
      <trkpt lat="42.08567" lon="19.13111">
        <ele>89.136397</ele>
        <time>2022-05-26T11:22:24.208Z</time>
      </trkpt>
      <trkpt lat="42.08579" lon="19.13111">
        <ele>89.382716</ele>
        <time>2022-05-26T11:22:27.233Z</time>
      </trkpt>
      <trkpt lat="42.08592" lon="19.13111">
        <ele>89.629017</ele>
        <time>2022-05-26T11:22:30.201Z</time>
      </trkpt>
      <trkpt lat="42.08605" lon="19.13112">
        <ele>89.883689</ele>
        <time>2022-05-26T11:22:33.199Z</time>
      </trkpt>
      <trkpt lat="42.08616" lon="19.13114">
        <ele>90.118139</ele>
        <time>2022-05-26T11:22:36.196Z</time>
      </trkpt>
      <trkpt lat="42.08626" lon="19.13117">
        <ele>90.323807</ele>
        <time>2022-05-26T11:22:39.210Z</time>
      </trkpt>
      <trkpt lat="42.08638" lon="19.13118">
        <ele>90.549345</ele>
        <time>2022-05-26T11:22:43.205Z</time>
      </trkpt>
      <trkpt lat="42.08647" lon="19.1312">
        <ele>90.741669</ele>
        <time>2022-05-26T11:22:47.202Z</time>
      </trkpt>
      <trkpt lat="42.08657" lon="19.1312">
        <ele>90.928474</ele>
        <time>2022-05-26T11:22:51.197Z</time>
      </trkpt>
      <trkpt lat="42.08666" lon="19.13119">
        <ele>91.115558</ele>
        <time>2022-05-26T11:22:55.200Z</time>
      </trkpt>
      <trkpt lat="42.08676" lon="19.13119">
        <ele>91.310488</ele>
        <time>2022-05-26T11:23:00.213Z</time>
      </trkpt>
      <trkpt lat="42.08686" lon="19.13118">
        <ele>91.505284</ele>
        <time>2022-05-26T11:23:06.204Z</time>
      </trkpt>
      <trkpt lat="42.08696" lon="19.13118">
        <ele>91.93161</ele>
        <time>2022-05-26T11:23:11.227Z</time>
      </trkpt>
      <trkpt lat="42.08706" lon="19.13117">
        <ele>92.402204</ele>
        <time>2022-05-26T11:23:16.199Z</time>
      </trkpt>
      <trkpt lat="42.08715" lon="19.13118">
        <ele>92.844292</ele>
        <time>2022-05-26T11:23:22.208Z</time>
      </trkpt>
      <trkpt lat="42.08725" lon="19.13119">
        <ele>93.332298</ele>
        <time>2022-05-26T11:23:28.224Z</time>
      </trkpt>
      <trkpt lat="42.08734" lon="19.13115">
        <ele>93.780508</ele>
        <time>2022-05-26T11:23:33.208Z</time>
      </trkpt>
      <trkpt lat="42.08745" lon="19.13111">
        <ele>94.305576</ele>
        <time>2022-05-26T11:23:38.197Z</time>
      </trkpt>
      <trkpt lat="42.08754" lon="19.13107">
        <ele>94.763853</ele>
        <time>2022-05-26T11:23:43.197Z</time>
      </trkpt>
      <trkpt lat="42.08763" lon="19.13103">
        <ele>95.228867</ele>
        <time>2022-05-26T11:23:47.197Z</time>
      </trkpt>
      <trkpt lat="42.08773" lon="19.13098">
        <ele>95.704128</ele>
        <time>2022-05-26T11:23:52.196Z</time>
      </trkpt>
      <trkpt lat="42.08782" lon="19.13093">
        <ele>96.18881</ele>
        <time>2022-05-26T11:23:57.198Z</time>
      </trkpt>
      <trkpt lat="42.08791" lon="19.13088">
        <ele>96.66731</ele>
        <time>2022-05-26T11:24:03.201Z</time>
      </trkpt>
      <trkpt lat="42.08801" lon="19.13083">
        <ele>97.175436</ele>
        <time>2022-05-26T11:24:08.198Z</time>
      </trkpt>
      <trkpt lat="42.08812" lon="19.13078">
        <ele>97.69453</ele>
        <time>2022-05-26T11:24:13.194Z</time>
      </trkpt>
      <trkpt lat="42.08822" lon="19.13073">
        <ele>98.204672</ele>
        <time>2022-05-26T11:24:18.200Z</time>
      </trkpt>
      <trkpt lat="42.08831" lon="19.13068">
        <ele>98.678786</ele>
        <time>2022-05-26T11:24:23.206Z</time>
      </trkpt>
      <trkpt lat="42.0884" lon="19.13064">
        <ele>99.128103</ele>
        <time>2022-05-26T11:24:28.209Z</time>
      </trkpt>
      <trkpt lat="42.08849" lon="19.13059">
        <ele>99.592512</ele>
        <time>2022-05-26T11:24:33.198Z</time>
      </trkpt>
      <trkpt lat="42.08858" lon="19.13055">
        <ele>100.026064</ele>
        <time>2022-05-26T11:24:37.225Z</time>
      </trkpt>
      <trkpt lat="42.08867" lon="19.13049">
        <ele>100.465082</ele>
        <time>2022-05-26T11:24:42.204Z</time>
      </trkpt>
      <trkpt lat="42.08875" lon="19.13043">
        <ele>100.86713</ele>
        <time>2022-05-26T11:24:47.197Z</time>
      </trkpt>
      <trkpt lat="42.08884" lon="19.13035">
        <ele>101.334518</ele>
        <time>2022-05-26T11:24:53.198Z</time>
      </trkpt>
      <trkpt lat="42.08892" lon="19.13026">
        <ele>101.78035</ele>
        <time>2022-05-26T11:24:58.205Z</time>
      </trkpt>
      <trkpt lat="42.08899" lon="19.13015">
        <ele>102.245272</ele>
        <time>2022-05-26T11:25:03.202Z</time>
      </trkpt>
      <trkpt lat="42.08905" lon="19.13003">
        <ele>102.730059</ele>
        <time>2022-05-26T11:25:08.199Z</time>
      </trkpt>
      <trkpt lat="42.0891" lon="19.12992">
        <ele>103.138664</ele>
        <time>2022-05-26T11:25:12.237Z</time>
      </trkpt>
      <trkpt lat="42.08915" lon="19.12981">
        <ele>103.567437</ele>
        <time>2022-05-26T11:25:16.195Z</time>
      </trkpt>
      <trkpt lat="42.0892" lon="19.1297">
        <ele>103.975714</ele>
        <time>2022-05-26T11:25:20.197Z</time>
      </trkpt>
      <trkpt lat="42.08924" lon="19.12959">
        <ele>104.37487</ele>
        <time>2022-05-26T11:25:24.233Z</time>
      </trkpt>
      <trkpt lat="42.0893" lon="19.12948">
        <ele>104.808124</ele>
        <time>2022-05-26T11:25:29.205Z</time>
      </trkpt>
      <trkpt lat="42.08935" lon="19.12936">
        <ele>105.262429</ele>
        <time>2022-05-26T11:25:34.202Z</time>
      </trkpt>
      <trkpt lat="42.08938" lon="19.12924">
        <ele>105.660423</ele>
        <time>2022-05-26T11:25:38.212Z</time>
      </trkpt>
      <trkpt lat="42.08941" lon="19.12912">
        <ele>106.062095</ele>
        <time>2022-05-26T11:25:42.207Z</time>
      </trkpt>
      <trkpt lat="42.08943" lon="19.129">
        <ele>106.480933</ele>
        <time>2022-05-26T11:25:46.196Z</time>
      </trkpt>
      <trkpt lat="42.08945" lon="19.12887">
        <ele>106.903846</ele>
        <time>2022-05-26T11:25:51.197Z</time>
      </trkpt>
      <trkpt lat="42.08947" lon="19.12874">
        <ele>107.316418</ele>
        <time>2022-05-26T11:25:55.211Z</time>
      </trkpt>
      <trkpt lat="42.08949" lon="19.1286">
        <ele>107.779399</ele>
        <time>2022-05-26T11:25:59.224Z</time>
      </trkpt>
      <trkpt lat="42.08949" lon="19.12846">
        <ele>107.992811</ele>
        <time>2022-05-26T11:26:03.198Z</time>
      </trkpt>
      <trkpt lat="42.08948" lon="19.12831">
        <ele>108.098604</ele>
        <time>2022-05-26T11:26:07.197Z</time>
      </trkpt>
      <trkpt lat="42.08945" lon="19.12819">
        <ele>108.198679</ele>
        <time>2022-05-26T11:26:11.197Z</time>
      </trkpt>
      <trkpt lat="42.08942" lon="19.12805">
        <ele>108.302609</ele>
        <time>2022-05-26T11:26:15.199Z</time>
      </trkpt>
      <trkpt lat="42.08938" lon="19.1279">
        <ele>108.418575</ele>
        <time>2022-05-26T11:26:19.205Z</time>
      </trkpt>
      <trkpt lat="42.08937" lon="19.12776">
        <ele>108.526585</ele>
        <time>2022-05-26T11:26:23.193Z</time>
      </trkpt>
      <trkpt lat="42.08936" lon="19.12763">
        <ele>108.623518</ele>
        <time>2022-05-26T11:26:27.228Z</time>
      </trkpt>
      <trkpt lat="42.08933" lon="19.1275">
        <ele>108.726651</ele>
        <time>2022-05-26T11:26:32.209Z</time>
      </trkpt>
      <trkpt lat="42.08931" lon="19.12736">
        <ele>108.829785</ele>
        <time>2022-05-26T11:26:38.253Z</time>
      </trkpt>
      <trkpt lat="42.0893" lon="19.12724">
        <ele>108.919942</ele>
        <time>2022-05-26T11:26:43.204Z</time>
      </trkpt>
      <trkpt lat="42.08929" lon="19.12711">
        <ele>109.019296</ele>
        <time>2022-05-26T11:26:48.209Z</time>
      </trkpt>
      <trkpt lat="42.08929" lon="19.12698">
        <ele>109.110902</ele>
        <time>2022-05-26T11:26:52.199Z</time>
      </trkpt>
      <trkpt lat="42.08932" lon="19.12685">
        <ele>109.211615</ele>
        <time>2022-05-26T11:26:57.199Z</time>
      </trkpt>
      <trkpt lat="42.08935" lon="19.12673">
        <ele>109.310437</ele>
        <time>2022-05-26T11:27:02.240Z</time>
      </trkpt>
      <trkpt lat="42.0894" lon="19.12661">
        <ele>109.409024</ele>
        <time>2022-05-26T11:27:07.194Z</time>
      </trkpt>
      <trkpt lat="42.08946" lon="19.1265">
        <ele>109.51366</ele>
        <time>2022-05-26T11:27:12.199Z</time>
      </trkpt>
      <trkpt lat="42.08953" lon="19.12641">
        <ele>109.607344</ele>
        <time>2022-05-26T11:27:16.206Z</time>
      </trkpt>
      <trkpt lat="42.08961" lon="19.12632">
        <ele>109.709412</ele>
        <time>2022-05-26T11:27:20.198Z</time>
      </trkpt>
      <trkpt lat="42.08969" lon="19.12623">
        <ele>109.807509</ele>
        <time>2022-05-26T11:27:24.228Z</time>
      </trkpt>
      <trkpt lat="42.08976" lon="19.12615">
        <ele>109.89454</ele>
        <time>2022-05-26T11:27:28.200Z</time>
      </trkpt>
      <trkpt lat="42.08984" lon="19.12608">
        <ele>109.987233</ele>
        <time>2022-05-26T11:27:32.206Z</time>
      </trkpt>
      <trkpt lat="42.08993" lon="19.126">
        <ele>110.081498</ele>
        <time>2022-05-26T11:27:36.203Z</time>
      </trkpt>
      <trkpt lat="42.09002" lon="19.12597">
        <ele>110.168186</ele>
        <time>2022-05-26T11:27:39.197Z</time>
      </trkpt>
      <trkpt lat="42.09013" lon="19.12594">
        <ele>110.272273</ele>
        <time>2022-05-26T11:27:43.197Z</time>
      </trkpt>
      <trkpt lat="42.09022" lon="19.12596">
        <ele>110.356192</ele>
        <time>2022-05-26T11:27:47.234Z</time>
      </trkpt>
      <trkpt lat="42.0903" lon="19.126">
        <ele>110.440598</ele>
        <time>2022-05-26T11:27:50.204Z</time>
      </trkpt>
      <trkpt lat="42.09042" lon="19.12603">
        <ele>110.550806</ele>
        <time>2022-05-26T11:27:53.213Z</time>
      </trkpt>
      <trkpt lat="42.09051" lon="19.12601">
        <ele>110.636838</ele>
        <time>2022-05-26T11:27:55.199Z</time>
      </trkpt>
      <trkpt lat="42.09061" lon="19.12596">
        <ele>110.730695</ele>
        <time>2022-05-26T11:27:57.200Z</time>
      </trkpt>
      <trkpt lat="42.09071" lon="19.12586">
        <ele>110.853116</ele>
        <time>2022-05-26T11:27:59.199Z</time>
      </trkpt>
      <trkpt lat="42.09077" lon="19.12574">
        <ele>110.949018</ele>
        <time>2022-05-26T11:28:01.206Z</time>
      </trkpt>
      <trkpt lat="42.09082" lon="19.12559">
        <ele>111.058292</ele>
        <time>2022-05-26T11:28:03.199Z</time>
      </trkpt>
      <trkpt lat="42.09089" lon="19.12542">
        <ele>111.196078</ele>
        <time>2022-05-26T11:28:05.208Z</time>
      </trkpt>
      <trkpt lat="42.09098" lon="19.12523">
        <ele>111.347748</ele>
        <time>2022-05-26T11:28:07.204Z</time>
      </trkpt>
      <trkpt lat="42.09108" lon="19.12507">
        <ele>110.793542</ele>
        <time>2022-05-26T11:28:09.204Z</time>
      </trkpt>
      <trkpt lat="42.09118" lon="19.12493">
        <ele>110.015926</ele>
        <time>2022-05-26T11:28:11.200Z</time>
      </trkpt>
      <trkpt lat="42.09126" lon="19.12477">
        <ele>109.274616</ele>
        <time>2022-05-26T11:28:13.196Z</time>
      </trkpt>
      <trkpt lat="42.09132" lon="19.12458">
        <ele>108.519807</ele>
        <time>2022-05-26T11:28:15.199Z</time>
      </trkpt>
      <trkpt lat="42.09133" lon="19.12438">
        <ele>107.744563</ele>
        <time>2022-05-26T11:28:17.201Z</time>
      </trkpt>
      <trkpt lat="42.09132" lon="19.12418">
        <ele>106.957834</ele>
        <time>2022-05-26T11:28:19.204Z</time>
      </trkpt>
      <trkpt lat="42.09132" lon="19.12398">
        <ele>106.185084</ele>
        <time>2022-05-26T11:28:21.222Z</time>
      </trkpt>
      <trkpt lat="42.09133" lon="19.12376">
        <ele>105.36267</ele>
        <time>2022-05-26T11:28:23.199Z</time>
      </trkpt>
      <trkpt lat="42.09132" lon="19.12364">
        <ele>104.871949</ele>
        <time>2022-05-26T11:28:24.204Z</time>
      </trkpt>
      <trkpt lat="42.09127" lon="19.12343">
        <ele>104.040752</ele>
        <time>2022-05-26T11:28:26.220Z</time>
      </trkpt>
      <trkpt lat="42.0912" lon="19.12321">
        <ele>103.139945</ele>
        <time>2022-05-26T11:28:28.204Z</time>
      </trkpt>
      <trkpt lat="42.09113" lon="19.12299">
        <ele>102.224226</ele>
        <time>2022-05-26T11:28:30.208Z</time>
      </trkpt>
      <trkpt lat="42.09107" lon="19.12279">
        <ele>101.359145</ele>
        <time>2022-05-26T11:28:32.201Z</time>
      </trkpt>
      <trkpt lat="42.09101" lon="19.12255">
        <ele>100.393647</ele>
        <time>2022-05-26T11:28:34.211Z</time>
      </trkpt>
      <trkpt lat="42.09101" lon="19.12236">
        <ele>99.623824</ele>
        <time>2022-05-26T11:28:36.197Z</time>
      </trkpt>
      <trkpt lat="42.09103" lon="19.12224">
        <ele>99.142873</ele>
        <time>2022-05-26T11:28:37.205Z</time>
      </trkpt>
      <trkpt lat="42.0911" lon="19.12208">
        <ele>98.394997</ele>
        <time>2022-05-26T11:28:39.227Z</time>
      </trkpt>
      <trkpt lat="42.09118" lon="19.12198">
        <ele>97.828137</ele>
        <time>2022-05-26T11:28:41.198Z</time>
      </trkpt>
      <trkpt lat="42.09128" lon="19.12184">
        <ele>97.052207</ele>
        <time>2022-05-26T11:28:43.199Z</time>
      </trkpt>
      <trkpt lat="42.09134" lon="19.12173">
        <ele>96.532033</ele>
        <time>2022-05-26T11:28:44.200Z</time>
      </trkpt>
      <trkpt lat="42.09138" lon="19.12161">
        <ele>96.036171</ele>
        <time>2022-05-26T11:28:45.235Z</time>
      </trkpt>
      <trkpt lat="42.09142" lon="19.12142">
        <ele>95.240362</ele>
        <time>2022-05-26T11:28:47.197Z</time>
      </trkpt>
      <trkpt lat="42.09143" lon="19.12119">
        <ele>94.338798</ele>
        <time>2022-05-26T11:28:49.200Z</time>
      </trkpt>
      <trkpt lat="42.09144" lon="19.12106">
        <ele>93.854089</ele>
        <time>2022-05-26T11:28:50.202Z</time>
      </trkpt>
      <trkpt lat="42.0915" lon="19.12087">
        <ele>93.026768</ele>
        <time>2022-05-26T11:28:52.198Z</time>
      </trkpt>
      <trkpt lat="42.0916" lon="19.1207">
        <ele>92.399826</ele>
        <time>2022-05-26T11:28:54.200Z</time>
      </trkpt>
      <trkpt lat="42.09171" lon="19.1206">
        <ele>92.093371</ele>
        <time>2022-05-26T11:28:56.208Z</time>
      </trkpt>
      <trkpt lat="42.09182" lon="19.12053">
        <ele>91.830399</ele>
        <time>2022-05-26T11:28:58.211Z</time>
      </trkpt>
      <trkpt lat="42.09192" lon="19.12044">
        <ele>91.541898</ele>
        <time>2022-05-26T11:29:01.207Z</time>
      </trkpt>
      <trkpt lat="42.09202" lon="19.12034">
        <ele>91.259852</ele>
        <time>2022-05-26T11:29:06.203Z</time>
      </trkpt>
      <trkpt lat="42.0921" lon="19.12022">
        <ele>90.995029</ele>
        <time>2022-05-26T11:29:09.226Z</time>
      </trkpt>
      <trkpt lat="42.09215" lon="19.12012">
        <ele>90.782227</ele>
        <time>2022-05-26T11:29:11.202Z</time>
      </trkpt>
      <trkpt lat="42.0922" lon="19.12001">
        <ele>90.575496</ele>
        <time>2022-05-26T11:29:13.202Z</time>
      </trkpt>
      <trkpt lat="42.09224" lon="19.11986">
        <ele>90.303469</ele>
        <time>2022-05-26T11:29:16.217Z</time>
      </trkpt>
      <trkpt lat="42.09226" lon="19.1197">
        <ele>90.027676</ele>
        <time>2022-05-26T11:29:19.198Z</time>
      </trkpt>
      <trkpt lat="42.09228" lon="19.11953">
        <ele>89.742525</ele>
        <time>2022-05-26T11:29:22.197Z</time>
      </trkpt>
      <trkpt lat="42.09229" lon="19.11936">
        <ele>89.452345</ele>
        <time>2022-05-26T11:29:25.194Z</time>
      </trkpt>
      <trkpt lat="42.0923" lon="19.11921">
        <ele>89.19705</ele>
        <time>2022-05-26T11:29:28.206Z</time>
      </trkpt>
      <trkpt lat="42.09231" lon="19.11907">
        <ele>88.961704</ele>
        <time>2022-05-26T11:29:31.196Z</time>
      </trkpt>
      <trkpt lat="42.09233" lon="19.11891">
        <ele>88.690746</ele>
        <time>2022-05-26T11:29:34.200Z</time>
      </trkpt>
      <trkpt lat="42.09235" lon="19.11877">
        <ele>88.42354</ele>
        <time>2022-05-26T11:29:37.195Z</time>
      </trkpt>
      <trkpt lat="42.09237" lon="19.1186">
        <ele>87.842085</ele>
        <time>2022-05-26T11:29:40.203Z</time>
      </trkpt>
      <trkpt lat="42.09239" lon="19.11848">
        <ele>87.435052</ele>
        <time>2022-05-26T11:29:42.202Z</time>
      </trkpt>
      <trkpt lat="42.0924" lon="19.11834">
        <ele>86.962027</ele>
        <time>2022-05-26T11:29:44.208Z</time>
      </trkpt>
      <trkpt lat="42.09242" lon="19.11819">
        <ele>86.445105</ele>
        <time>2022-05-26T11:29:46.197Z</time>
      </trkpt>
      <trkpt lat="42.09242" lon="19.11802">
        <ele>85.866059</ele>
        <time>2022-05-26T11:29:48.199Z</time>
      </trkpt>
      <trkpt lat="42.09243" lon="19.11783">
        <ele>85.236165</ele>
        <time>2022-05-26T11:29:50.199Z</time>
      </trkpt>
      <trkpt lat="42.09245" lon="19.11763">
        <ele>84.55357</ele>
        <time>2022-05-26T11:29:52.199Z</time>
      </trkpt>
      <trkpt lat="42.09249" lon="19.11743">
        <ele>83.855811</ele>
        <time>2022-05-26T11:29:54.201Z</time>
      </trkpt>
      <trkpt lat="42.09255" lon="19.11723">
        <ele>83.121117</ele>
        <time>2022-05-26T11:29:56.197Z</time>
      </trkpt>
      <trkpt lat="42.0926" lon="19.11701">
        <ele>82.349992</ele>
        <time>2022-05-26T11:29:58.219Z</time>
      </trkpt>
      <trkpt lat="42.09263" lon="19.11689">
        <ele>81.942983</ele>
        <time>2022-05-26T11:29:59.199Z</time>
      </trkpt>
      <trkpt lat="42.09265" lon="19.11678">
        <ele>81.529047</ele>
        <time>2022-05-26T11:30:00.202Z</time>
      </trkpt>
      <trkpt lat="42.09267" lon="19.11666">
        <ele>81.122356</ele>
        <time>2022-05-26T11:30:01.231Z</time>
      </trkpt>
      <trkpt lat="42.09268" lon="19.11642">
        <ele>80.337235</ele>
        <time>2022-05-26T11:30:03.205Z</time>
      </trkpt>
      <trkpt lat="42.09268" lon="19.11619">
        <ele>79.271629</ele>
        <time>2022-05-26T11:30:05.205Z</time>
      </trkpt>
      <trkpt lat="42.09268" lon="19.11599">
        <ele>78.327859</ele>
        <time>2022-05-26T11:30:07.202Z</time>
      </trkpt>
      <trkpt lat="42.09266" lon="19.11579">
        <ele>77.382119</ele>
        <time>2022-05-26T11:30:09.197Z</time>
      </trkpt>
      <trkpt lat="42.09265" lon="19.11559">
        <ele>76.450323</ele>
        <time>2022-05-26T11:30:11.201Z</time>
      </trkpt>
      <trkpt lat="42.09259" lon="19.11542">
        <ele>75.582987</ele>
        <time>2022-05-26T11:30:13.199Z</time>
      </trkpt>
      <trkpt lat="42.09252" lon="19.11528">
        <ele>74.817877</ele>
        <time>2022-05-26T11:30:15.201Z</time>
      </trkpt>
      <trkpt lat="42.09247" lon="19.11517">
        <ele>74.22728</ele>
        <time>2022-05-26T11:30:17.197Z</time>
      </trkpt>
      <trkpt lat="42.09243" lon="19.11506">
        <ele>73.624641</ele>
        <time>2022-05-26T11:30:19.201Z</time>
      </trkpt>
      <trkpt lat="42.09238" lon="19.11492">
        <ele>72.929431</ele>
        <time>2022-05-26T11:30:21.204Z</time>
      </trkpt>
      <trkpt lat="42.09234" lon="19.11478">
        <ele>72.217474</ele>
        <time>2022-05-26T11:30:23.228Z</time>
      </trkpt>
      <trkpt lat="42.09229" lon="19.11459">
        <ele>71.256956</ele>
        <time>2022-05-26T11:30:25.196Z</time>
      </trkpt>
      <trkpt lat="42.09225" lon="19.11444">
        <ele>70.549246</ele>
        <time>2022-05-26T11:30:26.242Z</time>
      </trkpt>
      <trkpt lat="42.09225" lon="19.11431">
        <ele>69.935421</ele>
        <time>2022-05-26T11:30:27.195Z</time>
      </trkpt>
      <trkpt lat="42.09228" lon="19.11407">
        <ele>68.871387</ele>
        <time>2022-05-26T11:30:29.199Z</time>
      </trkpt>
      <trkpt lat="42.09234" lon="19.11388">
        <ele>68.096555</ele>
        <time>2022-05-26T11:30:31.195Z</time>
      </trkpt>
      <trkpt lat="42.09237" lon="19.11374">
        <ele>67.558162</ele>
        <time>2022-05-26T11:30:33.203Z</time>
      </trkpt>
      <trkpt lat="42.0924" lon="19.11361">
        <ele>67.075738</ele>
        <time>2022-05-26T11:30:37.198Z</time>
      </trkpt>
      <trkpt lat="42.09242" lon="19.11346">
        <ele>66.511955</ele>
        <time>2022-05-26T11:30:41.224Z</time>
      </trkpt>
      <trkpt lat="42.09245" lon="19.1133">
        <ele>65.898404</ele>
        <time>2022-05-26T11:30:44.196Z</time>
      </trkpt>
      <trkpt lat="42.09248" lon="19.11317">
        <ele>65.39926</ele>
        <time>2022-05-26T11:30:46.197Z</time>
      </trkpt>
      <trkpt lat="42.09251" lon="19.11304">
        <ele>64.882281</ele>
        <time>2022-05-26T11:30:48.205Z</time>
      </trkpt>
      <trkpt lat="42.09253" lon="19.11289">
        <ele>64.334302</ele>
        <time>2022-05-26T11:30:50.206Z</time>
      </trkpt>
      <trkpt lat="42.09256" lon="19.11275">
        <ele>63.802789</ele>
        <time>2022-05-26T11:30:52.201Z</time>
      </trkpt>
      <trkpt lat="42.09259" lon="19.11261">
        <ele>63.249981</ele>
        <time>2022-05-26T11:30:54.214Z</time>
      </trkpt>
      <trkpt lat="42.09262" lon="19.11246">
        <ele>62.674059</ele>
        <time>2022-05-26T11:30:56.196Z</time>
      </trkpt>
      <trkpt lat="42.09265" lon="19.11231">
        <ele>62.13325</ele>
        <time>2022-05-26T11:30:58.196Z</time>
      </trkpt>
      <trkpt lat="42.09264" lon="19.11219">
        <ele>61.686071</ele>
        <time>2022-05-26T11:31:00.244Z</time>
      </trkpt>
      <trkpt lat="42.09258" lon="19.11202">
        <ele>60.992651</ele>
        <time>2022-05-26T11:31:02.209Z</time>
      </trkpt>
      <trkpt lat="42.09252" lon="19.11188">
        <ele>60.399839</ele>
        <time>2022-05-26T11:31:04.223Z</time>
      </trkpt>
      <trkpt lat="42.09245" lon="19.11178">
        <ele>60.078474</ele>
        <time>2022-05-26T11:31:06.201Z</time>
      </trkpt>
      <trkpt lat="42.09238" lon="19.11169">
        <ele>59.952285</ele>
        <time>2022-05-26T11:31:08.266Z</time>
      </trkpt>
      <trkpt lat="42.09231" lon="19.11153">
        <ele>59.770605</ele>
        <time>2022-05-26T11:31:11.196Z</time>
      </trkpt>
      <trkpt lat="42.09225" lon="19.11143">
        <ele>59.650268</ele>
        <time>2022-05-26T11:31:13.241Z</time>
      </trkpt>
      <trkpt lat="42.09215" lon="19.11135">
        <ele>59.497441</ele>
        <time>2022-05-26T11:31:16.223Z</time>
      </trkpt>
      <trkpt lat="42.09206" lon="19.11132">
        <ele>59.374125</ele>
        <time>2022-05-26T11:31:18.202Z</time>
      </trkpt>
      <trkpt lat="42.09198" lon="19.11119">
        <ele>59.215475</ele>
        <time>2022-05-26T11:31:21.203Z</time>
      </trkpt>
      <trkpt lat="42.09197" lon="19.11103">
        <ele>59.058031</ele>
        <time>2022-05-26T11:31:24.204Z</time>
      </trkpt>
      <trkpt lat="42.092" lon="19.11089">
        <ele>58.917538</ele>
        <time>2022-05-26T11:31:27.189Z</time>
      </trkpt>
      <trkpt lat="42.09202" lon="19.11077">
        <ele>58.799623</ele>
        <time>2022-05-26T11:31:31.204Z</time>
      </trkpt>
      <trkpt lat="42.09201" lon="19.11065">
        <ele>58.680561</ele>
        <time>2022-05-26T11:31:35.224Z</time>
      </trkpt>
      <trkpt lat="42.09198" lon="19.11054">
        <ele>58.561951</ele>
        <time>2022-05-26T11:31:38.202Z</time>
      </trkpt>
      <trkpt lat="42.09199" lon="19.11067">
        <ele>58.432706</ele>
        <time>2022-05-26T11:31:45.200Z</time>
      </trkpt>
      <trkpt lat="42.09199" lon="19.11081">
        <ele>58.294233</ele>
        <time>2022-05-26T11:31:49.194Z</time>
      </trkpt>
      <trkpt lat="42.09196" lon="19.11094">
        <ele>58.16668</ele>
        <time>2022-05-26T11:31:52.199Z</time>
      </trkpt>
      <trkpt lat="42.09196" lon="19.11108">
        <ele>58.031202</ele>
        <time>2022-05-26T11:31:55.199Z</time>
      </trkpt>
      <trkpt lat="42.09196" lon="19.11122">
        <ele>57.889962</ele>
        <time>2022-05-26T11:31:58.196Z</time>
      </trkpt>
      <trkpt lat="42.09197" lon="19.11135">
        <ele>57.82754</ele>
        <time>2022-05-26T11:32:01.200Z</time>
      </trkpt>
      <trkpt lat="42.09196" lon="19.11148">
        <ele>58.000416</ele>
        <time>2022-05-26T11:32:04.197Z</time>
      </trkpt>
      <trkpt lat="42.09196" lon="19.11162">
        <ele>58.18994</ele>
        <time>2022-05-26T11:32:07.196Z</time>
      </trkpt>
      <trkpt lat="42.09203" lon="19.11175">
        <ele>58.394954</ele>
        <time>2022-05-26T11:32:10.242Z</time>
      </trkpt>
      <trkpt lat="42.09213" lon="19.11178">
        <ele>58.57653</ele>
        <time>2022-05-26T11:32:12.274Z</time>
      </trkpt>
      <trkpt lat="42.09223" lon="19.11175">
        <ele>58.752629</ele>
        <time>2022-05-26T11:32:14.203Z</time>
      </trkpt>
      <trkpt lat="42.0923" lon="19.11165">
        <ele>58.929961</ele>
        <time>2022-05-26T11:32:16.199Z</time>
      </trkpt>
      <trkpt lat="42.09232" lon="19.11151">
        <ele>59.111845</ele>
        <time>2022-05-26T11:32:18.204Z</time>
      </trkpt>
      <trkpt lat="42.0923" lon="19.11139">
        <ele>59.281897</ele>
        <time>2022-05-26T11:32:20.230Z</time>
      </trkpt>
      <trkpt lat="42.09227" lon="19.11126">
        <ele>59.451277</ele>
        <time>2022-05-26T11:32:22.203Z</time>
      </trkpt>
      <trkpt lat="42.09226" lon="19.11113">
        <ele>59.623912</ele>
        <time>2022-05-26T11:32:24.205Z</time>
      </trkpt>
      <trkpt lat="42.09224" lon="19.111">
        <ele>59.79623</ele>
        <time>2022-05-26T11:32:26.200Z</time>
      </trkpt>
      <trkpt lat="42.09223" lon="19.11087">
        <ele>59.973189</ele>
        <time>2022-05-26T11:32:28.210Z</time>
      </trkpt>
      <trkpt lat="42.09222" lon="19.11073">
        <ele>60.158543</ele>
        <time>2022-05-26T11:32:30.239Z</time>
      </trkpt>
      <trkpt lat="42.09221" lon="19.11058">
        <ele>60.356024</ele>
        <time>2022-05-26T11:32:32.201Z</time>
      </trkpt>
      <trkpt lat="42.09222" lon="19.11043">
        <ele>60.553377</ele>
        <time>2022-05-26T11:32:34.202Z</time>
      </trkpt>
      <trkpt lat="42.09223" lon="19.11027">
        <ele>60.760501</ele>
        <time>2022-05-26T11:32:36.207Z</time>
      </trkpt>
      <trkpt lat="42.09225" lon="19.11013">
        <ele>60.958044</ele>
        <time>2022-05-26T11:32:38.202Z</time>
      </trkpt>
      <trkpt lat="42.09228" lon="19.10999">
        <ele>60.728504</ele>
        <time>2022-05-26T11:32:40.258Z</time>
      </trkpt>
      <trkpt lat="42.0923" lon="19.10986">
        <ele>60.468938</ele>
        <time>2022-05-26T11:32:42.194Z</time>
      </trkpt>
      <trkpt lat="42.09232" lon="19.10974">
        <ele>60.223707</ele>
        <time>2022-05-26T11:32:44.200Z</time>
      </trkpt>
      <trkpt lat="42.09234" lon="19.10958">
        <ele>59.911815</ele>
        <time>2022-05-26T11:32:47.204Z</time>
      </trkpt>
      <trkpt lat="42.09235" lon="19.10945">
        <ele>59.643249</ele>
        <time>2022-05-26T11:32:50.196Z</time>
      </trkpt>
      <trkpt lat="42.09238" lon="19.1093">
        <ele>59.354737</ele>
        <time>2022-05-26T11:32:54.228Z</time>
      </trkpt>
      <trkpt lat="42.09238" lon="19.10917">
        <ele>59.081278</ele>
        <time>2022-05-26T11:32:59.199Z</time>
      </trkpt>
      <trkpt lat="42.09239" lon="19.10904">
        <ele>58.839072</ele>
        <time>2022-05-26T11:33:03.199Z</time>
      </trkpt>
      <trkpt lat="42.09241" lon="19.10892">
        <ele>58.595582</ele>
        <time>2022-05-26T11:33:07.197Z</time>
      </trkpt>
      <trkpt lat="42.09243" lon="19.10878">
        <ele>58.313925</ele>
        <time>2022-05-26T11:33:12.197Z</time>
      </trkpt>
      <trkpt lat="42.09244" lon="19.10866">
        <ele>58.067226</ele>
        <time>2022-05-26T11:33:16.220Z</time>
      </trkpt>
      <trkpt lat="42.09245" lon="19.10853">
        <ele>57.808424</ele>
        <time>2022-05-26T11:33:20.204Z</time>
      </trkpt>
      <trkpt lat="42.09247" lon="19.1084">
        <ele>57.55194</ele>
        <time>2022-05-26T11:33:24.204Z</time>
      </trkpt>
      <trkpt lat="42.0925" lon="19.10826">
        <ele>57.256461</ele>
        <time>2022-05-26T11:33:28.204Z</time>
      </trkpt>
      <trkpt lat="42.09253" lon="19.10811">
        <ele>56.951534</ele>
        <time>2022-05-26T11:33:32.197Z</time>
      </trkpt>
      <trkpt lat="42.09255" lon="19.10798">
        <ele>56.691716</ele>
        <time>2022-05-26T11:33:35.200Z</time>
      </trkpt>
      <trkpt lat="42.09257" lon="19.10781">
        <ele>56.363379</ele>
        <time>2022-05-26T11:33:38.220Z</time>
      </trkpt>
      <trkpt lat="42.09259" lon="19.10768">
        <ele>55.965788</ele>
        <time>2022-05-26T11:33:40.198Z</time>
      </trkpt>
      <trkpt lat="42.09261" lon="19.10752">
        <ele>55.247987</ele>
        <time>2022-05-26T11:33:42.201Z</time>
      </trkpt>
      <trkpt lat="42.09263" lon="19.10735">
        <ele>54.456488</ele>
        <time>2022-05-26T11:33:44.211Z</time>
      </trkpt>
      <trkpt lat="42.09265" lon="19.10717">
        <ele>53.635728</ele>
        <time>2022-05-26T11:33:46.215Z</time>
      </trkpt>
      <trkpt lat="42.09266" lon="19.10701">
        <ele>52.943927</ele>
        <time>2022-05-26T11:33:48.222Z</time>
      </trkpt>
      <trkpt lat="42.09267" lon="19.10688">
        <ele>52.340801</ele>
        <time>2022-05-26T11:33:50.211Z</time>
      </trkpt>
      <trkpt lat="42.09269" lon="19.10672">
        <ele>51.640653</ele>
        <time>2022-05-26T11:33:52.199Z</time>
      </trkpt>
      <trkpt lat="42.09271" lon="19.10655">
        <ele>50.832605</ele>
        <time>2022-05-26T11:33:54.194Z</time>
      </trkpt>
      <trkpt lat="42.09274" lon="19.10635">
        <ele>49.940757</ele>
        <time>2022-05-26T11:33:56.197Z</time>
      </trkpt>
      <trkpt lat="42.09277" lon="19.10614">
        <ele>48.997364</ele>
        <time>2022-05-26T11:33:58.206Z</time>
      </trkpt>
      <trkpt lat="42.0928" lon="19.10593">
        <ele>48.016414</ele>
        <time>2022-05-26T11:34:00.192Z</time>
      </trkpt>
      <trkpt lat="42.09283" lon="19.10571">
        <ele>47.01238</ele>
        <time>2022-05-26T11:34:02.195Z</time>
      </trkpt>
      <trkpt lat="42.09285" lon="19.10548">
        <ele>45.986266</ele>
        <time>2022-05-26T11:34:04.198Z</time>
      </trkpt>
      <trkpt lat="42.09288" lon="19.10526">
        <ele>45.260037</ele>
        <time>2022-05-26T11:34:06.195Z</time>
      </trkpt>
      <trkpt lat="42.09291" lon="19.10505">
        <ele>45.043284</ele>
        <time>2022-05-26T11:34:08.213Z</time>
      </trkpt>
      <trkpt lat="42.09294" lon="19.10484">
        <ele>44.833177</ele>
        <time>2022-05-26T11:34:10.196Z</time>
      </trkpt>
      <trkpt lat="42.09297" lon="19.10464">
        <ele>44.633966</ele>
        <time>2022-05-26T11:34:12.202Z</time>
      </trkpt>
      <trkpt lat="42.09299" lon="19.10444">
        <ele>44.435216</ele>
        <time>2022-05-26T11:34:14.198Z</time>
      </trkpt>
      <trkpt lat="42.09301" lon="19.10424">
        <ele>44.236307</ele>
        <time>2022-05-26T11:34:16.209Z</time>
      </trkpt>
      <trkpt lat="42.09303" lon="19.10404">
        <ele>44.044409</ele>
        <time>2022-05-26T11:34:18.216Z</time>
      </trkpt>
      <trkpt lat="42.09305" lon="19.10386">
        <ele>43.856411</ele>
        <time>2022-05-26T11:34:20.220Z</time>
      </trkpt>
      <trkpt lat="42.09308" lon="19.10368">
        <ele>43.67655</ele>
        <time>2022-05-26T11:34:22.197Z</time>
      </trkpt>
      <trkpt lat="42.0931" lon="19.1035">
        <ele>43.502272</ele>
        <time>2022-05-26T11:34:24.200Z</time>
      </trkpt>
      <trkpt lat="42.09312" lon="19.10333">
        <ele>43.328231</ele>
        <time>2022-05-26T11:34:26.230Z</time>
      </trkpt>
      <trkpt lat="42.09315" lon="19.10316">
        <ele>43.160004</ele>
        <time>2022-05-26T11:34:28.203Z</time>
      </trkpt>
      <trkpt lat="42.09317" lon="19.10299">
        <ele>42.993713</ele>
        <time>2022-05-26T11:34:30.205Z</time>
      </trkpt>
      <trkpt lat="42.09319" lon="19.10283">
        <ele>42.86777</ele>
        <time>2022-05-26T11:34:32.196Z</time>
      </trkpt>
      <trkpt lat="42.09321" lon="19.10267">
        <ele>42.756315</ele>
        <time>2022-05-26T11:34:34.219Z</time>
      </trkpt>
      <trkpt lat="42.09323" lon="19.10252">
        <ele>42.649159</ele>
        <time>2022-05-26T11:34:36.223Z</time>
      </trkpt>
      <trkpt lat="42.09325" lon="19.10237">
        <ele>42.542935</ele>
        <time>2022-05-26T11:34:38.219Z</time>
      </trkpt>
      <trkpt lat="42.09327" lon="19.10222">
        <ele>42.437009</ele>
        <time>2022-05-26T11:34:40.262Z</time>
      </trkpt>
      <trkpt lat="42.09329" lon="19.10207">
        <ele>42.335544</ele>
        <time>2022-05-26T11:34:42.213Z</time>
      </trkpt>
      <trkpt lat="42.0933" lon="19.10193">
        <ele>42.235065</ele>
        <time>2022-05-26T11:34:44.230Z</time>
      </trkpt>
      <trkpt lat="42.09332" lon="19.10179">
        <ele>42.136475</ele>
        <time>2022-05-26T11:34:46.241Z</time>
      </trkpt>
      <trkpt lat="42.09334" lon="19.10164">
        <ele>42.037723</ele>
        <time>2022-05-26T11:34:48.225Z</time>
      </trkpt>
      <trkpt lat="42.09336" lon="19.10151">
        <ele>41.942062</ele>
        <time>2022-05-26T11:34:50.282Z</time>
      </trkpt>
      <trkpt lat="42.09339" lon="19.10138">
        <ele>41.851978</ele>
        <time>2022-05-26T11:34:52.250Z</time>
      </trkpt>
      <trkpt lat="42.0934" lon="19.10125">
        <ele>41.757091</ele>
        <time>2022-05-26T11:34:54.231Z</time>
      </trkpt>
      <trkpt lat="42.09342" lon="19.10111">
        <ele>41.658934</ele>
        <time>2022-05-26T11:34:56.254Z</time>
      </trkpt>
      <trkpt lat="42.09343" lon="19.10097">
        <ele>41.565002</ele>
        <time>2022-05-26T11:34:58.216Z</time>
      </trkpt>
      <trkpt lat="42.09344" lon="19.10084">
        <ele>41.475413</ele>
        <time>2022-05-26T11:35:00.252Z</time>
      </trkpt>
      <trkpt lat="42.09346" lon="19.10072">
        <ele>41.39004</ele>
        <time>2022-05-26T11:35:02.222Z</time>
      </trkpt>
      <trkpt lat="42.09348" lon="19.1006">
        <ele>41.306161</ele>
        <time>2022-05-26T11:35:04.326Z</time>
      </trkpt>
      <trkpt lat="42.0935" lon="19.10048">
        <ele>41.341146</ele>
        <time>2022-05-26T11:35:06.250Z</time>
      </trkpt>
      <trkpt lat="42.09352" lon="19.10036">
        <ele>41.427247</ele>
        <time>2022-05-26T11:35:08.221Z</time>
      </trkpt>
      <trkpt lat="42.09355" lon="19.10019">
        <ele>41.549537</ele>
        <time>2022-05-26T11:35:11.230Z</time>
      </trkpt>
      <trkpt lat="42.09356" lon="19.10006">
        <ele>41.639562</ele>
        <time>2022-05-26T11:35:13.226Z</time>
      </trkpt>
      <trkpt lat="42.09358" lon="19.09993">
        <ele>41.730134</ele>
        <time>2022-05-26T11:35:15.232Z</time>
      </trkpt>
      <trkpt lat="42.09359" lon="19.0998">
        <ele>41.821531</ele>
        <time>2022-05-26T11:35:17.227Z</time>
      </trkpt>
      <trkpt lat="42.09361" lon="19.09967">
        <ele>41.912393</ele>
        <time>2022-05-26T11:35:19.235Z</time>
      </trkpt>
      <trkpt lat="42.09362" lon="19.09954">
        <ele>42.004339</ele>
        <time>2022-05-26T11:35:21.221Z</time>
      </trkpt>
      <trkpt lat="42.09363" lon="19.09941">
        <ele>42.093577</ele>
        <time>2022-05-26T11:35:23.229Z</time>
      </trkpt>
      <trkpt lat="42.09364" lon="19.09928">
        <ele>42.184281</ele>
        <time>2022-05-26T11:35:25.229Z</time>
      </trkpt>
      <trkpt lat="42.09365" lon="19.09915">
        <ele>42.278165</ele>
        <time>2022-05-26T11:35:27.205Z</time>
      </trkpt>
      <trkpt lat="42.09367" lon="19.09902">
        <ele>42.367988</ele>
        <time>2022-05-26T11:35:29.257Z</time>
      </trkpt>
      <trkpt lat="42.09371" lon="19.09891">
        <ele>42.453988</ele>
        <time>2022-05-26T11:35:31.217Z</time>
      </trkpt>
      <trkpt lat="42.09375" lon="19.0988">
        <ele>42.538827</ele>
        <time>2022-05-26T11:35:33.237Z</time>
      </trkpt>
      <trkpt lat="42.09382" lon="19.09866">
        <ele>42.657909</ele>
        <time>2022-05-26T11:35:36.208Z</time>
      </trkpt>
      <trkpt lat="42.09388" lon="19.09855">
        <ele>42.750527</ele>
        <time>2022-05-26T11:35:38.226Z</time>
      </trkpt>
      <trkpt lat="42.09393" lon="19.09843">
        <ele>42.846457</ele>
        <time>2022-05-26T11:35:40.229Z</time>
      </trkpt>
      <trkpt lat="42.09393" lon="19.0983">
        <ele>42.931912</ele>
        <time>2022-05-26T11:35:42.222Z</time>
      </trkpt>
      <trkpt lat="42.09389" lon="19.09818">
        <ele>43.108002</ele>
        <time>2022-05-26T11:35:44.230Z</time>
      </trkpt>
      <trkpt lat="42.09387" lon="19.09803">
        <ele>43.357698</ele>
        <time>2022-05-26T11:35:46.208Z</time>
      </trkpt>
      <trkpt lat="42.09387" lon="19.09788">
        <ele>43.609842</ele>
        <time>2022-05-26T11:35:48.236Z</time>
      </trkpt>
      <trkpt lat="42.0939" lon="19.09776">
        <ele>43.832039</ele>
        <time>2022-05-26T11:35:50.248Z</time>
      </trkpt>
      <trkpt lat="42.09392" lon="19.09762">
        <ele>44.067085</ele>
        <time>2022-05-26T11:35:52.228Z</time>
      </trkpt>
      <trkpt lat="42.09394" lon="19.09749">
        <ele>44.287135</ele>
        <time>2022-05-26T11:35:54.222Z</time>
      </trkpt>
      <trkpt lat="42.09396" lon="19.09737">
        <ele>44.490384</ele>
        <time>2022-05-26T11:35:56.219Z</time>
      </trkpt>
      <trkpt lat="42.09398" lon="19.09719">
        <ele>44.792314</ele>
        <time>2022-05-26T11:35:59.238Z</time>
      </trkpt>
      <trkpt lat="42.09399" lon="19.09702">
        <ele>45.083417</ele>
        <time>2022-05-26T11:36:02.219Z</time>
      </trkpt>
      <trkpt lat="42.09402" lon="19.09685">
        <ele>45.376308</ele>
        <time>2022-05-26T11:36:05.223Z</time>
      </trkpt>
      <trkpt lat="42.09405" lon="19.09668">
        <ele>45.655676</ele>
        <time>2022-05-26T11:36:08.213Z</time>
      </trkpt>
      <trkpt lat="42.09407" lon="19.09653">
        <ele>45.919612</ele>
        <time>2022-05-26T11:36:11.223Z</time>
      </trkpt>
      <trkpt lat="42.0941" lon="19.09636">
        <ele>46.209248</ele>
        <time>2022-05-26T11:36:14.214Z</time>
      </trkpt>
      <trkpt lat="42.09412" lon="19.09619">
        <ele>46.503665</ele>
        <time>2022-05-26T11:36:17.224Z</time>
      </trkpt>
      <trkpt lat="42.09419" lon="19.09606">
        <ele>46.767837</ele>
        <time>2022-05-26T11:36:20.212Z</time>
      </trkpt>
      <trkpt lat="42.09431" lon="19.09603">
        <ele>47.01553</ele>
        <time>2022-05-26T11:36:23.220Z</time>
      </trkpt>
      <trkpt lat="42.0944" lon="19.09606">
        <ele>47.040227</ele>
        <time>2022-05-26T11:36:25.243Z</time>
      </trkpt>
      <trkpt lat="42.09451" lon="19.0961">
        <ele>47.067005</ele>
        <time>2022-05-26T11:36:27.218Z</time>
      </trkpt>
      <trkpt lat="42.0946" lon="19.09612">
        <ele>47.090916</ele>
        <time>2022-05-26T11:36:29.275Z</time>
      </trkpt>
      <trkpt lat="42.09472" lon="19.09616">
        <ele>47.122894</ele>
        <time>2022-05-26T11:36:32.222Z</time>
      </trkpt>
      <trkpt lat="42.09484" lon="19.0962">
        <ele>47.154497</ele>
        <time>2022-05-26T11:36:35.237Z</time>
      </trkpt>
      <trkpt lat="42.09496" lon="19.09623">
        <ele>47.185078</ele>
        <time>2022-05-26T11:36:38.261Z</time>
      </trkpt>
      <trkpt lat="42.09505" lon="19.09626">
        <ele>47.20936</ele>
        <time>2022-05-26T11:36:42.237Z</time>
      </trkpt>
      <trkpt lat="42.09512" lon="19.09615">
        <ele>47.235758</ele>
        <time>2022-05-26T11:36:46.288Z</time>
      </trkpt>
      <trkpt lat="42.09516" lon="19.09598">
        <ele>47.269421</ele>
        <time>2022-05-26T11:36:49.219Z</time>
      </trkpt>
      <trkpt lat="42.09517" lon="19.09586">
        <ele>47.293527</ele>
        <time>2022-05-26T11:36:51.212Z</time>
      </trkpt>
      <trkpt lat="42.09518" lon="19.09569">
        <ele>47.32419</ele>
        <time>2022-05-26T11:36:54.229Z</time>
      </trkpt>
      <trkpt lat="42.09519" lon="19.09553">
        <ele>47.354795</ele>
        <time>2022-05-26T11:36:57.226Z</time>
      </trkpt>
      <trkpt lat="42.09521" lon="19.09536">
        <ele>47.387284</ele>
        <time>2022-05-26T11:37:00.228Z</time>
      </trkpt>
      <trkpt lat="42.09524" lon="19.09521">
        <ele>47.417762</ele>
        <time>2022-05-26T11:37:03.234Z</time>
      </trkpt>
      <trkpt lat="42.09526" lon="19.09504">
        <ele>47.449047</ele>
        <time>2022-05-26T11:37:06.230Z</time>
      </trkpt>
      <trkpt lat="42.09534" lon="19.0949">
        <ele>47.469132</ele>
        <time>2022-05-26T11:37:09.224Z</time>
      </trkpt>
      <trkpt lat="42.09546" lon="19.09487">
        <ele>47.469132</ele>
        <time>2022-05-26T11:37:12.264Z</time>
      </trkpt>
      <trkpt lat="42.09556" lon="19.09486">
        <ele>47.469132</ele>
        <time>2022-05-26T11:37:15.220Z</time>
      </trkpt>
      <trkpt lat="42.09566" lon="19.09483">
        <ele>47.469132</ele>
        <time>2022-05-26T11:37:18.260Z</time>
      </trkpt>
      <trkpt lat="42.09575" lon="19.09477">
        <ele>47.469132</ele>
        <time>2022-05-26T11:37:21.233Z</time>
      </trkpt>
      <trkpt lat="42.09585" lon="19.09471">
        <ele>47.469132</ele>
        <time>2022-05-26T11:37:24.257Z</time>
      </trkpt>
      <trkpt lat="42.09593" lon="19.09464">
        <ele>47.469132</ele>
        <time>2022-05-26T11:37:27.220Z</time>
      </trkpt>
      <trkpt lat="42.09601" lon="19.09456">
        <ele>47.469132</ele>
        <time>2022-05-26T11:37:30.221Z</time>
      </trkpt>
      <trkpt lat="42.0961" lon="19.0945">
        <ele>47.469132</ele>
        <time>2022-05-26T11:37:34.230Z</time>
      </trkpt>
      <trkpt lat="42.09618" lon="19.09443">
        <ele>47.469132</ele>
        <time>2022-05-26T11:37:38.241Z</time>
      </trkpt>
      <trkpt lat="42.09625" lon="19.09436">
        <ele>47.469132</ele>
        <time>2022-05-26T11:37:41.251Z</time>
      </trkpt>
      <trkpt lat="42.09633" lon="19.09429">
        <ele>47.469132</ele>
        <time>2022-05-26T11:37:45.216Z</time>
      </trkpt>
      <trkpt lat="42.09641" lon="19.09422">
        <ele>47.469132</ele>
        <time>2022-05-26T11:37:48.224Z</time>
      </trkpt>
      <trkpt lat="42.0965" lon="19.09416">
        <ele>47.469132</ele>
        <time>2022-05-26T11:37:51.218Z</time>
      </trkpt>
      <trkpt lat="42.09659" lon="19.0941">
        <ele>47.469132</ele>
        <time>2022-05-26T11:37:55.217Z</time>
      </trkpt>
      <trkpt lat="42.09667" lon="19.09403">
        <ele>47.469132</ele>
        <time>2022-05-26T11:38:00.220Z</time>
      </trkpt>
      <trkpt lat="42.09673" lon="19.09394">
        <ele>47.469132</ele>
        <time>2022-05-26T11:38:05.242Z</time>
      </trkpt>
      <trkpt lat="42.09672" lon="19.09381">
        <ele>47.469132</ele>
        <time>2022-05-26T11:38:09.223Z</time>
      </trkpt>
      <trkpt lat="42.09668" lon="19.09394">
        <ele>47.469132</ele>
        <time>2022-05-26T11:39:26.230Z</time>
      </trkpt>
      <trkpt lat="42.09664" lon="19.09381">
        <ele>47.469132</ele>
        <time>2022-05-26T11:39:35.226Z</time>
      </trkpt>
      <trkpt lat="42.09664" lon="19.09369">
        <ele>47.469132</ele>
        <time>2022-05-26T11:45:12.211Z</time>
      </trkpt>
    </trkseg>
  </trk>
  <trk>
    <name><![CDATA[Tour d'Europe: étape 686]]></name>
    <extensions>
      <line xmlns="http://www.topografix.com/GPX/gpx_style/0/2">
        <color>880000</color>
        <width>4</width>
      </line>
    </extensions>
    <trkseg>
      <trkpt lat="41.77565" lon="19.64264">
        <ele>45.968244</ele>
        <time>2022-05-15T08:00:20.882Z</time>
      </trkpt>
      <trkpt lat="41.77585" lon="19.6425">
        <ele>45.968244</ele>
        <time>2022-05-15T08:07:48.945Z</time>
      </trkpt>
      <trkpt lat="41.77595" lon="19.64252">
        <ele>45.968244</ele>
        <time>2022-05-15T08:07:51.936Z</time>
      </trkpt>
      <trkpt lat="41.77604" lon="19.64255">
        <ele>45.968244</ele>
        <time>2022-05-15T08:07:54.938Z</time>
      </trkpt>
      <trkpt lat="41.77615" lon="19.64258">
        <ele>45.968244</ele>
        <time>2022-05-15T08:07:58.938Z</time>
      </trkpt>
      <trkpt lat="41.77624" lon="19.64259">
        <ele>45.968244</ele>
        <time>2022-05-15T08:08:01.942Z</time>
      </trkpt>
      <trkpt lat="41.77633" lon="19.6426">
        <ele>45.968244</ele>
        <time>2022-05-15T08:08:04.946Z</time>
      </trkpt>
      <trkpt lat="41.77643" lon="19.6426">
        <ele>45.968244</ele>
        <time>2022-05-15T08:08:07.932Z</time>
      </trkpt>
      <trkpt lat="41.77652" lon="19.6426">
        <ele>45.962582</ele>
        <time>2022-05-15T08:08:10.933Z</time>
      </trkpt>
      <trkpt lat="41.77662" lon="19.64261">
        <ele>45.839252</ele>
        <time>2022-05-15T08:08:13.919Z</time>
      </trkpt>
      <trkpt lat="41.77673" lon="19.64263">
        <ele>45.711491</ele>
        <time>2022-05-15T08:08:16.946Z</time>
      </trkpt>
      <trkpt lat="41.77683" lon="19.64264">
        <ele>45.585753</ele>
        <time>2022-05-15T08:08:19.954Z</time>
      </trkpt>
      <trkpt lat="41.77693" lon="19.64265">
        <ele>45.464602</ele>
        <time>2022-05-15T08:08:22.938Z</time>
      </trkpt>
      <trkpt lat="41.77703" lon="19.64266">
        <ele>45.334698</ele>
        <time>2022-05-15T08:08:25.921Z</time>
      </trkpt>
      <trkpt lat="41.77714" lon="19.64268">
        <ele>45.201204</ele>
        <time>2022-05-15T08:08:28.950Z</time>
      </trkpt>
      <trkpt lat="41.77725" lon="19.64269">
        <ele>45.064178</ele>
        <time>2022-05-15T08:08:31.956Z</time>
      </trkpt>
      <trkpt lat="41.77737" lon="19.6427">
        <ele>44.919846</ele>
        <time>2022-05-15T08:08:34.938Z</time>
      </trkpt>
      <trkpt lat="41.77748" lon="19.64271">
        <ele>44.778027</ele>
        <time>2022-05-15T08:08:37.942Z</time>
      </trkpt>
      <trkpt lat="41.77759" lon="19.64271">
        <ele>44.638718</ele>
        <time>2022-05-15T08:08:40.937Z</time>
      </trkpt>
      <trkpt lat="41.77771" lon="19.64272">
        <ele>44.4907</ele>
        <time>2022-05-15T08:08:43.944Z</time>
      </trkpt>
      <trkpt lat="41.77783" lon="19.64272">
        <ele>44.349119</ele>
        <time>2022-05-15T08:08:46.950Z</time>
      </trkpt>
      <trkpt lat="41.77794" lon="19.64274">
        <ele>44.21799</ele>
        <time>2022-05-15T08:08:49.940Z</time>
      </trkpt>
      <trkpt lat="41.77805" lon="19.64275">
        <ele>44.081139</ele>
        <time>2022-05-15T08:08:52.984Z</time>
      </trkpt>
      <trkpt lat="41.77816" lon="19.64276">
        <ele>43.941431</ele>
        <time>2022-05-15T08:08:55.950Z</time>
      </trkpt>
      <trkpt lat="41.77827" lon="19.64276">
        <ele>43.801073</ele>
        <time>2022-05-15T08:08:58.948Z</time>
      </trkpt>
      <trkpt lat="41.77839" lon="19.64276">
        <ele>43.801926</ele>
        <time>2022-05-15T08:09:01.941Z</time>
      </trkpt>
      <trkpt lat="41.77852" lon="19.64276">
        <ele>43.878454</ele>
        <time>2022-05-15T08:09:04.940Z</time>
      </trkpt>
      <trkpt lat="41.77865" lon="19.64275">
        <ele>43.956177</ele>
        <time>2022-05-15T08:09:07.940Z</time>
      </trkpt>
      <trkpt lat="41.77878" lon="19.64275">
        <ele>44.033291</ele>
        <time>2022-05-15T08:09:10.946Z</time>
      </trkpt>
      <trkpt lat="41.77889" lon="19.64274">
        <ele>44.101543</ele>
        <time>2022-05-15T08:09:13.951Z</time>
      </trkpt>
      <trkpt lat="41.779" lon="19.64274">
        <ele>44.169051</ele>
        <time>2022-05-15T08:09:16.944Z</time>
      </trkpt>
      <trkpt lat="41.7791" lon="19.64274">
        <ele>44.229902</ele>
        <time>2022-05-15T08:09:19.925Z</time>
      </trkpt>
      <trkpt lat="41.77921" lon="19.64273">
        <ele>44.29629</ele>
        <time>2022-05-15T08:09:22.957Z</time>
      </trkpt>
      <trkpt lat="41.77932" lon="19.64272">
        <ele>44.360337</ele>
        <time>2022-05-15T08:09:25.954Z</time>
      </trkpt>
      <trkpt lat="41.77943" lon="19.64272">
        <ele>44.425423</ele>
        <time>2022-05-15T08:09:28.941Z</time>
      </trkpt>
      <trkpt lat="41.77954" lon="19.64271">
        <ele>44.491812</ele>
        <time>2022-05-15T08:09:31.937Z</time>
      </trkpt>
      <trkpt lat="41.77965" lon="19.6427">
        <ele>44.560698</ele>
        <time>2022-05-15T08:09:34.934Z</time>
      </trkpt>
      <trkpt lat="41.77975" lon="19.64268">
        <ele>44.621742</ele>
        <time>2022-05-15T08:09:37.947Z</time>
      </trkpt>
      <trkpt lat="41.77984" lon="19.64268">
        <ele>44.677832</ele>
        <time>2022-05-15T08:09:40.968Z</time>
      </trkpt>
      <trkpt lat="41.77994" lon="19.64266">
        <ele>44.736055</ele>
        <time>2022-05-15T08:09:43.936Z</time>
      </trkpt>
      <trkpt lat="41.78004" lon="19.64264">
        <ele>44.799033</ele>
        <time>2022-05-15T08:09:48.939Z</time>
      </trkpt>
      <trkpt lat="41.78014" lon="19.64262">
        <ele>44.732418</ele>
        <time>2022-05-15T08:09:52.973Z</time>
      </trkpt>
      <trkpt lat="41.78025" lon="19.64258">
        <ele>44.318077</ele>
        <time>2022-05-15T08:09:57.953Z</time>
      </trkpt>
      <trkpt lat="41.78039" lon="19.64256">
        <ele>43.863794</ele>
        <time>2022-05-15T08:09:59.961Z</time>
      </trkpt>
      <trkpt lat="41.78051" lon="19.64253">
        <ele>43.422267</ele>
        <time>2022-05-15T08:10:01.941Z</time>
      </trkpt>
      <trkpt lat="41.78063" lon="19.64251">
        <ele>43.001127</ele>
        <time>2022-05-15T08:10:03.958Z</time>
      </trkpt>
      <trkpt lat="41.78076" lon="19.64247">
        <ele>42.566519</ele>
        <time>2022-05-15T08:10:05.992Z</time>
      </trkpt>
      <trkpt lat="41.78087" lon="19.64242">
        <ele>42.147851</ele>
        <time>2022-05-15T08:10:07.944Z</time>
      </trkpt>
      <trkpt lat="41.781" lon="19.64239">
        <ele>41.696708</ele>
        <time>2022-05-15T08:10:10.944Z</time>
      </trkpt>
      <trkpt lat="41.78112" lon="19.64235">
        <ele>41.280647</ele>
        <time>2022-05-15T08:10:13.949Z</time>
      </trkpt>
      <trkpt lat="41.78122" lon="19.64232">
        <ele>40.931368</ele>
        <time>2022-05-15T08:10:16.954Z</time>
      </trkpt>
      <trkpt lat="41.78132" lon="19.64229">
        <ele>40.578766</ele>
        <time>2022-05-15T08:10:19.949Z</time>
      </trkpt>
      <trkpt lat="41.78141" lon="19.64226">
        <ele>40.251263</ele>
        <time>2022-05-15T08:10:22.965Z</time>
      </trkpt>
      <trkpt lat="41.78153" lon="19.64225">
        <ele>39.863826</ele>
        <time>2022-05-15T08:10:26.941Z</time>
      </trkpt>
      <trkpt lat="41.78165" lon="19.64223">
        <ele>39.456595</ele>
        <time>2022-05-15T08:10:30.934Z</time>
      </trkpt>
      <trkpt lat="41.78175" lon="19.64221">
        <ele>39.098651</ele>
        <time>2022-05-15T08:10:34.934Z</time>
      </trkpt>
      <trkpt lat="41.78186" lon="19.64217">
        <ele>38.722733</ele>
        <time>2022-05-15T08:10:38.959Z</time>
      </trkpt>
      <trkpt lat="41.78205" lon="19.64213">
        <ele>38.695645</ele>
        <time>2022-05-15T08:14:35.924Z</time>
      </trkpt>
      <trkpt lat="41.78217" lon="19.64209">
        <ele>38.706254</ele>
        <time>2022-05-15T08:14:39.915Z</time>
      </trkpt>
      <trkpt lat="41.78227" lon="19.64205">
        <ele>38.715102</ele>
        <time>2022-05-15T08:14:42.940Z</time>
      </trkpt>
      <trkpt lat="41.78236" lon="19.64202">
        <ele>38.724002</ele>
        <time>2022-05-15T08:14:45.948Z</time>
      </trkpt>
      <trkpt lat="41.78246" lon="19.64199">
        <ele>38.732314</ele>
        <time>2022-05-15T08:14:48.920Z</time>
      </trkpt>
      <trkpt lat="41.78257" lon="19.64195">
        <ele>38.742444</ele>
        <time>2022-05-15T08:14:52.928Z</time>
      </trkpt>
      <trkpt lat="41.78266" lon="19.64191">
        <ele>38.751043</ele>
        <time>2022-05-15T08:14:56.981Z</time>
      </trkpt>
      <trkpt lat="41.78296" lon="19.64177">
        <ele>38.778929</ele>
        <time>2022-05-15T08:16:08.923Z</time>
      </trkpt>
      <trkpt lat="41.78306" lon="19.64174">
        <ele>38.787811</ele>
        <time>2022-05-15T08:16:11.928Z</time>
      </trkpt>
      <trkpt lat="41.78314" lon="19.6417">
        <ele>38.796015</ele>
        <time>2022-05-15T08:16:14.927Z</time>
      </trkpt>
      <trkpt lat="41.78326" lon="19.64165">
        <ele>38.806564</ele>
        <time>2022-05-15T08:16:18.919Z</time>
      </trkpt>
      <trkpt lat="41.78334" lon="19.64159">
        <ele>38.814649</ele>
        <time>2022-05-15T08:16:21.924Z</time>
      </trkpt>
      <trkpt lat="41.78342" lon="19.64154">
        <ele>38.822691</ele>
        <time>2022-05-15T08:16:24.920Z</time>
      </trkpt>
      <trkpt lat="41.78352" lon="19.64148">
        <ele>38.832387</ele>
        <time>2022-05-15T08:16:27.922Z</time>
      </trkpt>
      <trkpt lat="41.78363" lon="19.64142">
        <ele>38.901138</ele>
        <time>2022-05-15T08:16:30.914Z</time>
      </trkpt>
      <trkpt lat="41.78373" lon="19.64137">
        <ele>39.028909</ele>
        <time>2022-05-15T08:16:33.919Z</time>
      </trkpt>
      <trkpt lat="41.78383" lon="19.64134">
        <ele>39.154979</ele>
        <time>2022-05-15T08:16:36.918Z</time>
      </trkpt>
      <trkpt lat="41.78394" lon="19.64133">
        <ele>39.28769</ele>
        <time>2022-05-15T08:16:39.916Z</time>
      </trkpt>
      <trkpt lat="41.78406" lon="19.64136">
        <ele>39.434333</ele>
        <time>2022-05-15T08:16:42.914Z</time>
      </trkpt>
      <trkpt lat="41.78418" lon="19.64142">
        <ele>39.579022</ele>
        <time>2022-05-15T08:16:45.914Z</time>
      </trkpt>
      <trkpt lat="41.78428" lon="19.6415">
        <ele>39.726065</ele>
        <time>2022-05-15T08:16:48.927Z</time>
      </trkpt>
      <trkpt lat="41.78438" lon="19.64159">
        <ele>39.86452</ele>
        <time>2022-05-15T08:16:51.933Z</time>
      </trkpt>
      <trkpt lat="41.78447" lon="19.64168">
        <ele>40.003393</ele>
        <time>2022-05-15T08:16:54.951Z</time>
      </trkpt>
      <trkpt lat="41.78457" lon="19.64178">
        <ele>40.150459</ele>
        <time>2022-05-15T08:16:57.918Z</time>
      </trkpt>
      <trkpt lat="41.78466" lon="19.64188">
        <ele>40.292263</ele>
        <time>2022-05-15T08:17:00.936Z</time>
      </trkpt>
      <trkpt lat="41.78475" lon="19.64198">
        <ele>40.435051</ele>
        <time>2022-05-15T08:17:03.912Z</time>
      </trkpt>
      <trkpt lat="41.78483" lon="19.64209">
        <ele>40.572343</ele>
        <time>2022-05-15T08:17:06.916Z</time>
      </trkpt>
      <trkpt lat="41.78489" lon="19.64222">
        <ele>40.700826</ele>
        <time>2022-05-15T08:17:09.936Z</time>
      </trkpt>
      <trkpt lat="41.78494" lon="19.64236">
        <ele>40.838518</ele>
        <time>2022-05-15T08:17:12.913Z</time>
      </trkpt>
      <trkpt lat="41.78499" lon="19.6425">
        <ele>40.979795</ele>
        <time>2022-05-15T08:17:15.912Z</time>
      </trkpt>
      <trkpt lat="41.78504" lon="19.64264">
        <ele>41.353302</ele>
        <time>2022-05-15T08:17:18.930Z</time>
      </trkpt>
      <trkpt lat="41.78509" lon="19.64276">
        <ele>41.70893</ele>
        <time>2022-05-15T08:17:21.933Z</time>
      </trkpt>
      <trkpt lat="41.78515" lon="19.64287">
        <ele>42.061783</ele>
        <time>2022-05-15T08:17:24.914Z</time>
      </trkpt>
      <trkpt lat="41.78521" lon="19.64299">
        <ele>42.451521</ele>
        <time>2022-05-15T08:17:27.978Z</time>
      </trkpt>
      <trkpt lat="41.78526" lon="19.6431">
        <ele>42.774608</ele>
        <time>2022-05-15T08:17:30.918Z</time>
      </trkpt>
      <trkpt lat="41.78532" lon="19.6432">
        <ele>43.098861</ele>
        <time>2022-05-15T08:17:34.941Z</time>
      </trkpt>
      <trkpt lat="41.78539" lon="19.6433">
        <ele>43.427895</ele>
        <time>2022-05-15T08:17:39.918Z</time>
      </trkpt>
      <trkpt lat="41.7854" lon="19.64343">
        <ele>43.768713</ele>
        <time>2022-05-15T08:17:46.108Z</time>
      </trkpt>
      <trkpt lat="41.78535" lon="19.64353">
        <ele>44.0928</ele>
        <time>2022-05-15T08:17:51.931Z</time>
      </trkpt>
      <trkpt lat="41.78529" lon="19.64363">
        <ele>44.414865</ele>
        <time>2022-05-15T08:17:56.971Z</time>
      </trkpt>
      <trkpt lat="41.78536" lon="19.64373">
        <ele>44.753651</ele>
        <time>2022-05-15T08:18:01.954Z</time>
      </trkpt>
      <trkpt lat="41.78545" lon="19.64376">
        <ele>45.0884</ele>
        <time>2022-05-15T08:18:05.962Z</time>
      </trkpt>
      <trkpt lat="41.78555" lon="19.64382">
        <ele>45.448651</ele>
        <time>2022-05-15T08:18:09.952Z</time>
      </trkpt>
      <trkpt lat="41.78564" lon="19.64388">
        <ele>45.783684</ele>
        <time>2022-05-15T08:18:12.943Z</time>
      </trkpt>
      <trkpt lat="41.78573" lon="19.64392">
        <ele>46.134238</ele>
        <time>2022-05-15T08:18:15.952Z</time>
      </trkpt>
      <trkpt lat="41.78583" lon="19.64396">
        <ele>46.485005</ele>
        <time>2022-05-15T08:18:18.983Z</time>
      </trkpt>
      <trkpt lat="41.78592" lon="19.64399">
        <ele>46.813224</ele>
        <time>2022-05-15T08:18:21.957Z</time>
      </trkpt>
      <trkpt lat="41.78602" lon="19.64406">
        <ele>47.167753</ele>
        <time>2022-05-15T08:18:24.934Z</time>
      </trkpt>
      <trkpt lat="41.7861" lon="19.64417">
        <ele>47.341781</ele>
        <time>2022-05-15T08:18:27.949Z</time>
      </trkpt>
      <trkpt lat="41.78618" lon="19.64424">
        <ele>47.483456</ele>
        <time>2022-05-15T08:18:30.945Z</time>
      </trkpt>
      <trkpt lat="41.78625" lon="19.64432">
        <ele>47.622552</ele>
        <time>2022-05-15T08:18:33.945Z</time>
      </trkpt>
      <trkpt lat="41.78632" lon="19.6444">
        <ele>47.7619</ele>
        <time>2022-05-15T08:18:36.943Z</time>
      </trkpt>
      <trkpt lat="41.7864" lon="19.64449">
        <ele>47.923139</ele>
        <time>2022-05-15T08:18:39.952Z</time>
      </trkpt>
      <trkpt lat="41.78648" lon="19.64457">
        <ele>48.080207</ele>
        <time>2022-05-15T08:18:42.994Z</time>
      </trkpt>
      <trkpt lat="41.78656" lon="19.64466">
        <ele>48.236301</ele>
        <time>2022-05-15T08:18:45.934Z</time>
      </trkpt>
      <trkpt lat="41.78666" lon="19.64476">
        <ele>48.418376</ele>
        <time>2022-05-15T08:18:49.961Z</time>
      </trkpt>
      <trkpt lat="41.78673" lon="19.64484">
        <ele>48.561531</ele>
        <time>2022-05-15T08:18:52.938Z</time>
      </trkpt>
      <trkpt lat="41.78679" lon="19.64495">
        <ele>48.7083</ele>
        <time>2022-05-15T08:18:55.936Z</time>
      </trkpt>
      <trkpt lat="41.78684" lon="19.64505">
        <ele>48.84802</ele>
        <time>2022-05-15T08:18:58.943Z</time>
      </trkpt>
      <trkpt lat="41.7869" lon="19.64518">
        <ele>49.016837</ele>
        <time>2022-05-15T08:19:03.010Z</time>
      </trkpt>
      <trkpt lat="41.78694" lon="19.64529">
        <ele>49.167305</ele>
        <time>2022-05-15T08:19:06.940Z</time>
      </trkpt>
      <trkpt lat="41.787" lon="19.64541">
        <ele>49.318507</ele>
        <time>2022-05-15T08:19:10.951Z</time>
      </trkpt>
      <trkpt lat="41.78705" lon="19.64551">
        <ele>49.46708</ele>
        <time>2022-05-15T08:19:14.950Z</time>
      </trkpt>
      <trkpt lat="41.78716" lon="19.6456">
        <ele>49.652248</ele>
        <time>2022-05-15T08:19:19.946Z</time>
      </trkpt>
      <trkpt lat="41.78726" lon="19.64564">
        <ele>49.816855</ele>
        <time>2022-05-15T08:19:22.951Z</time>
      </trkpt>
      <trkpt lat="41.78736" lon="19.64567">
        <ele>49.774053</ele>
        <time>2022-05-15T08:19:25.960Z</time>
      </trkpt>
      <trkpt lat="41.78747" lon="19.64571">
        <ele>49.566764</ele>
        <time>2022-05-15T08:19:28.955Z</time>
      </trkpt>
      <trkpt lat="41.78759" lon="19.64575">
        <ele>49.330775</ele>
        <time>2022-05-15T08:19:31.920Z</time>
      </trkpt>
      <trkpt lat="41.78771" lon="19.64579">
        <ele>49.091739</ele>
        <time>2022-05-15T08:19:34.942Z</time>
      </trkpt>
      <trkpt lat="41.78782" lon="19.64583">
        <ele>48.876728</ele>
        <time>2022-05-15T08:19:37.953Z</time>
      </trkpt>
      <trkpt lat="41.78793" lon="19.64588">
        <ele>48.653993</ele>
        <time>2022-05-15T08:19:40.977Z</time>
      </trkpt>
      <trkpt lat="41.78804" lon="19.64594">
        <ele>48.417577</ele>
        <time>2022-05-15T08:19:43.977Z</time>
      </trkpt>
      <trkpt lat="41.78816" lon="19.64601">
        <ele>48.164739</ele>
        <time>2022-05-15T08:19:46.927Z</time>
      </trkpt>
      <trkpt lat="41.78825" lon="19.64605">
        <ele>47.992818</ele>
        <time>2022-05-15T08:19:48.948Z</time>
      </trkpt>
      <trkpt lat="41.78838" lon="19.64607">
        <ele>47.746346</ele>
        <time>2022-05-15T08:19:51.927Z</time>
      </trkpt>
      <trkpt lat="41.78851" lon="19.64609">
        <ele>47.495421</ele>
        <time>2022-05-15T08:19:54.952Z</time>
      </trkpt>
      <trkpt lat="41.78863" lon="19.64609">
        <ele>47.260565</ele>
        <time>2022-05-15T08:19:57.948Z</time>
      </trkpt>
      <trkpt lat="41.78874" lon="19.64609">
        <ele>47.044899</ele>
        <time>2022-05-15T08:20:00.921Z</time>
      </trkpt>
      <trkpt lat="41.78884" lon="19.64609">
        <ele>46.857859</ele>
        <time>2022-05-15T08:20:03.955Z</time>
      </trkpt>
      <trkpt lat="41.78895" lon="19.64612">
        <ele>46.646769</ele>
        <time>2022-05-15T08:20:07.921Z</time>
      </trkpt>
      <trkpt lat="41.78906" lon="19.64619">
        <ele>46.433135</ele>
        <time>2022-05-15T08:20:11.941Z</time>
      </trkpt>
      <trkpt lat="41.78914" lon="19.6463">
        <ele>46.346664</ele>
        <time>2022-05-15T08:20:14.947Z</time>
      </trkpt>
      <trkpt lat="41.78918" lon="19.64641">
        <ele>46.275656</ele>
        <time>2022-05-15T08:20:17.029Z</time>
      </trkpt>
      <trkpt lat="41.78923" lon="19.64652">
        <ele>46.200652</ele>
        <time>2022-05-15T08:20:18.988Z</time>
      </trkpt>
      <trkpt lat="41.78927" lon="19.64663">
        <ele>46.125269</ele>
        <time>2022-05-15T08:20:20.944Z</time>
      </trkpt>
      <trkpt lat="41.78931" lon="19.64675">
        <ele>46.051196</ele>
        <time>2022-05-15T08:20:22.948Z</time>
      </trkpt>
      <trkpt lat="41.78934" lon="19.64686">
        <ele>45.979359</ele>
        <time>2022-05-15T08:20:24.957Z</time>
      </trkpt>
      <trkpt lat="41.78938" lon="19.64697">
        <ele>45.906601</ele>
        <time>2022-05-15T08:20:26.936Z</time>
      </trkpt>
      <trkpt lat="41.78943" lon="19.64713">
        <ele>45.804871</ele>
        <time>2022-05-15T08:20:29.994Z</time>
      </trkpt>
      <trkpt lat="41.78948" lon="19.64728">
        <ele>45.708406</ele>
        <time>2022-05-15T08:20:32.954Z</time>
      </trkpt>
      <trkpt lat="41.78953" lon="19.64745">
        <ele>45.603702</ele>
        <time>2022-05-15T08:20:35.998Z</time>
      </trkpt>
      <trkpt lat="41.78957" lon="19.6476">
        <ele>45.506478</ele>
        <time>2022-05-15T08:20:38.959Z</time>
      </trkpt>
      <trkpt lat="41.78961" lon="19.64772">
        <ele>45.43016</ele>
        <time>2022-05-15T08:20:42.936Z</time>
      </trkpt>
      <trkpt lat="41.7896" lon="19.64759">
        <ele>45.351559</ele>
        <time>2022-05-15T08:22:09.942Z</time>
      </trkpt>
      <trkpt lat="41.78958" lon="19.64746">
        <ele>45.27717</ele>
        <time>2022-05-15T08:22:13.927Z</time>
      </trkpt>
      <trkpt lat="41.78952" lon="19.64732">
        <ele>45.184607</ele>
        <time>2022-05-15T08:22:17.945Z</time>
      </trkpt>
      <trkpt lat="41.78946" lon="19.64706">
        <ele>45.044848</ele>
        <time>2022-05-15T08:23:05.938Z</time>
      </trkpt>
      <trkpt lat="41.78942" lon="19.64693">
        <ele>45.201751</ele>
        <time>2022-05-15T08:23:09.954Z</time>
      </trkpt>
      <trkpt lat="41.78937" lon="19.64679">
        <ele>45.370289</ele>
        <time>2022-05-15T08:23:13.934Z</time>
      </trkpt>
      <trkpt lat="41.78933" lon="19.64664">
        <ele>45.547859</ele>
        <time>2022-05-15T08:23:17.943Z</time>
      </trkpt>
      <trkpt lat="41.78929" lon="19.64652">
        <ele>45.692271</ele>
        <time>2022-05-15T08:23:20.984Z</time>
      </trkpt>
      <trkpt lat="41.78925" lon="19.64641">
        <ele>45.831048</ele>
        <time>2022-05-15T08:23:23.936Z</time>
      </trkpt>
      <trkpt lat="41.78919" lon="19.64628">
        <ele>45.990194</ele>
        <time>2022-05-15T08:23:27.948Z</time>
      </trkpt>
      <trkpt lat="41.78912" lon="19.64619">
        <ele>46.137886</ele>
        <time>2022-05-15T08:23:32.956Z</time>
      </trkpt>
      <trkpt lat="41.78904" lon="19.6461">
        <ele>46.282693</ele>
        <time>2022-05-15T08:23:38.961Z</time>
      </trkpt>
      <trkpt lat="41.78895" lon="19.64607">
        <ele>46.424018</ele>
        <time>2022-05-15T08:23:42.977Z</time>
      </trkpt>
      <trkpt lat="41.78886" lon="19.64605">
        <ele>46.561261</ele>
        <time>2022-05-15T08:23:45.950Z</time>
      </trkpt>
      <trkpt lat="41.78875" lon="19.64605">
        <ele>46.726798</ele>
        <time>2022-05-15T08:23:48.955Z</time>
      </trkpt>
      <trkpt lat="41.78862" lon="19.64604">
        <ele>46.911514</ele>
        <time>2022-05-15T08:23:51.936Z</time>
      </trkpt>
      <trkpt lat="41.78849" lon="19.64604">
        <ele>47.102266</ele>
        <time>2022-05-15T08:23:54.936Z</time>
      </trkpt>
      <trkpt lat="41.78837" lon="19.64602">
        <ele>47.279329</ele>
        <time>2022-05-15T08:23:57.956Z</time>
      </trkpt>
      <trkpt lat="41.78828" lon="19.64597">
        <ele>47.423275</ele>
        <time>2022-05-15T08:23:59.947Z</time>
      </trkpt>
      <trkpt lat="41.78819" lon="19.64594">
        <ele>47.560564</ele>
        <time>2022-05-15T08:24:01.952Z</time>
      </trkpt>
      <trkpt lat="41.78808" lon="19.64589">
        <ele>47.749758</ele>
        <time>2022-05-15T08:24:04.951Z</time>
      </trkpt>
      <trkpt lat="41.78798" lon="19.64584">
        <ele>47.928368</ele>
        <time>2022-05-15T08:24:07.948Z</time>
      </trkpt>
      <trkpt lat="41.78789" lon="19.6458">
        <ele>48.08884</ele>
        <time>2022-05-15T08:24:10.945Z</time>
      </trkpt>
      <trkpt lat="41.7878" lon="19.64576">
        <ele>48.252885</ele>
        <time>2022-05-15T08:24:13.943Z</time>
      </trkpt>
      <trkpt lat="41.78769" lon="19.64574">
        <ele>48.441675</ele>
        <time>2022-05-15T08:24:16.956Z</time>
      </trkpt>
      <trkpt lat="41.78757" lon="19.64568">
        <ele>48.656312</ele>
        <time>2022-05-15T08:24:19.950Z</time>
      </trkpt>
      <trkpt lat="41.78744" lon="19.64564">
        <ele>48.877712</ele>
        <time>2022-05-15T08:24:22.950Z</time>
      </trkpt>
      <trkpt lat="41.78733" lon="19.64561">
        <ele>49.067207</ele>
        <time>2022-05-15T08:24:25.950Z</time>
      </trkpt>
      <trkpt lat="41.78722" lon="19.64557">
        <ele>49.265182</ele>
        <time>2022-05-15T08:24:28.949Z</time>
      </trkpt>
      <trkpt lat="41.78713" lon="19.64553">
        <ele>49.434138</ele>
        <time>2022-05-15T08:24:31.954Z</time>
      </trkpt>
      <trkpt lat="41.78696" lon="19.64521">
        <ele>49.930772</ele>
        <time>2022-05-15T08:24:59.945Z</time>
      </trkpt>
      <trkpt lat="41.78689" lon="19.64504">
        <ele>50.170778</ele>
        <time>2022-05-15T08:25:02.952Z</time>
      </trkpt>
      <trkpt lat="41.78685" lon="19.64492">
        <ele>50.346512</ele>
        <time>2022-05-15T08:25:04.988Z</time>
      </trkpt>
      <trkpt lat="41.78679" lon="19.64481">
        <ele>50.520832</ele>
        <time>2022-05-15T08:25:06.954Z</time>
      </trkpt>
      <trkpt lat="41.7867" lon="19.64472">
        <ele>50.70577</ele>
        <time>2022-05-15T08:25:08.954Z</time>
      </trkpt>
      <trkpt lat="41.78662" lon="19.64463">
        <ele>50.623051</ele>
        <time>2022-05-15T08:25:10.952Z</time>
      </trkpt>
      <trkpt lat="41.78654" lon="19.64454">
        <ele>50.456343</ele>
        <time>2022-05-15T08:25:12.955Z</time>
      </trkpt>
      <trkpt lat="41.78647" lon="19.64444">
        <ele>50.292086</ele>
        <time>2022-05-15T08:25:15.939Z</time>
      </trkpt>
      <trkpt lat="41.7864" lon="19.64437">
        <ele>50.142682</ele>
        <time>2022-05-15T08:25:20.927Z</time>
      </trkpt>
      <trkpt lat="41.7863" lon="19.64434">
        <ele>49.988839</ele>
        <time>2022-05-15T08:25:25.968Z</time>
      </trkpt>
      <trkpt lat="41.78622" lon="19.64428">
        <ele>49.831034</ele>
        <time>2022-05-15T08:25:28.953Z</time>
      </trkpt>
      <trkpt lat="41.78614" lon="19.64422">
        <ele>49.683786</ele>
        <time>2022-05-15T08:25:30.944Z</time>
      </trkpt>
      <trkpt lat="41.78605" lon="19.64417">
        <ele>49.525743</ele>
        <time>2022-05-15T08:25:32.950Z</time>
      </trkpt>
      <trkpt lat="41.78596" lon="19.64412">
        <ele>49.368276</ele>
        <time>2022-05-15T08:25:34.932Z</time>
      </trkpt>
      <trkpt lat="41.78588" lon="19.64407">
        <ele>49.219658</ele>
        <time>2022-05-15T08:25:36.929Z</time>
      </trkpt>
      <trkpt lat="41.78576" lon="19.644">
        <ele>49.009597</ele>
        <time>2022-05-15T08:25:39.958Z</time>
      </trkpt>
      <trkpt lat="41.78568" lon="19.64395">
        <ele>48.862458</ele>
        <time>2022-05-15T08:25:41.940Z</time>
      </trkpt>
      <trkpt lat="41.78556" lon="19.64388">
        <ele>48.646476</ele>
        <time>2022-05-15T08:25:44.943Z</time>
      </trkpt>
      <trkpt lat="41.78544" lon="19.64381">
        <ele>48.449794</ele>
        <time>2022-05-15T08:25:47.936Z</time>
      </trkpt>
      <trkpt lat="41.78534" lon="19.64375">
        <ele>48.262971</ele>
        <time>2022-05-15T08:25:50.952Z</time>
      </trkpt>
      <trkpt lat="41.78524" lon="19.64372">
        <ele>48.097565</ele>
        <time>2022-05-15T08:25:53.941Z</time>
      </trkpt>
      <trkpt lat="41.78514" lon="19.64371">
        <ele>47.941122</ele>
        <time>2022-05-15T08:25:56.976Z</time>
      </trkpt>
      <trkpt lat="41.78505" lon="19.64371">
        <ele>47.836245</ele>
        <time>2022-05-15T08:25:59.942Z</time>
      </trkpt>
      <trkpt lat="41.78493" lon="19.64364">
        <ele>47.893262</ele>
        <time>2022-05-15T08:26:02.983Z</time>
      </trkpt>
      <trkpt lat="41.78484" lon="19.64359">
        <ele>47.937365</ele>
        <time>2022-05-15T08:26:07.938Z</time>
      </trkpt>
      <trkpt lat="41.78474" lon="19.64359">
        <ele>47.9815</ele>
        <time>2022-05-15T08:26:10.962Z</time>
      </trkpt>
      <trkpt lat="41.78464" lon="19.64358">
        <ele>48.026716</ele>
        <time>2022-05-15T08:26:14.040Z</time>
      </trkpt>
      <trkpt lat="41.78455" lon="19.64357">
        <ele>48.071006</ele>
        <time>2022-05-15T08:26:16.973Z</time>
      </trkpt>
      <trkpt lat="41.78445" lon="19.64356">
        <ele>48.115876</ele>
        <time>2022-05-15T08:26:19.922Z</time>
      </trkpt>
      <trkpt lat="41.78434" lon="19.64354">
        <ele>48.163397</ele>
        <time>2022-05-15T08:26:22.936Z</time>
      </trkpt>
      <trkpt lat="41.78425" lon="19.64353">
        <ele>48.205543</ele>
        <time>2022-05-15T08:26:25.944Z</time>
      </trkpt>
      <trkpt lat="41.78415" lon="19.64351">
        <ele>48.25172</ele>
        <time>2022-05-15T08:26:28.947Z</time>
      </trkpt>
      <trkpt lat="41.78402" lon="19.6435">
        <ele>48.308339</ele>
        <time>2022-05-15T08:26:31.932Z</time>
      </trkpt>
      <trkpt lat="41.7839" lon="19.64349">
        <ele>48.362509</ele>
        <time>2022-05-15T08:26:34.935Z</time>
      </trkpt>
      <trkpt lat="41.7838" lon="19.64347">
        <ele>48.410181</ele>
        <time>2022-05-15T08:26:37.954Z</time>
      </trkpt>
      <trkpt lat="41.78369" lon="19.64345">
        <ele>48.460577</ele>
        <time>2022-05-15T08:26:40.943Z</time>
      </trkpt>
      <trkpt lat="41.78358" lon="19.64343">
        <ele>48.50825</ele>
        <time>2022-05-15T08:26:43.950Z</time>
      </trkpt>
      <trkpt lat="41.78347" lon="19.64341">
        <ele>48.557223</ele>
        <time>2022-05-15T08:26:46.956Z</time>
      </trkpt>
      <trkpt lat="41.78336" lon="19.64341">
        <ele>48.606317</ele>
        <time>2022-05-15T08:26:49.936Z</time>
      </trkpt>
      <trkpt lat="41.78326" lon="19.64338">
        <ele>48.682554</ele>
        <time>2022-05-15T08:26:52.946Z</time>
      </trkpt>
      <trkpt lat="41.78316" lon="19.64338">
        <ele>48.794894</ele>
        <time>2022-05-15T08:26:55.950Z</time>
      </trkpt>
      <trkpt lat="41.78307" lon="19.64342">
        <ele>48.904857</ele>
        <time>2022-05-15T08:26:59.940Z</time>
      </trkpt>
      <trkpt lat="41.78299" lon="19.64348">
        <ele>49.005829</ele>
        <time>2022-05-15T08:27:03.953Z</time>
      </trkpt>
      <trkpt lat="41.78291" lon="19.64354">
        <ele>49.108937</ele>
        <time>2022-05-15T08:27:07.921Z</time>
      </trkpt>
      <trkpt lat="41.78282" lon="19.6436">
        <ele>49.228081</ele>
        <time>2022-05-15T08:27:12.937Z</time>
      </trkpt>
      <trkpt lat="41.78275" lon="19.64371">
        <ele>49.341272</ele>
        <time>2022-05-15T08:27:19.950Z</time>
      </trkpt>
      <trkpt lat="41.78284" lon="19.64375">
        <ele>49.447739</ele>
        <time>2022-05-15T08:27:25.939Z</time>
      </trkpt>
      <trkpt lat="41.78293" lon="19.64376">
        <ele>49.551708</ele>
        <time>2022-05-15T08:27:30.949Z</time>
      </trkpt>
      <trkpt lat="41.78302" lon="19.64378">
        <ele>49.658453</ele>
        <time>2022-05-15T08:27:34.954Z</time>
      </trkpt>
      <trkpt lat="41.78312" lon="19.64379">
        <ele>49.771443</ele>
        <time>2022-05-15T08:27:38.958Z</time>
      </trkpt>
      <trkpt lat="41.78322" lon="19.6438">
        <ele>49.884045</ele>
        <time>2022-05-15T08:27:42.957Z</time>
      </trkpt>
      <trkpt lat="41.78333" lon="19.64382">
        <ele>50.002806</ele>
        <time>2022-05-15T08:27:46.938Z</time>
      </trkpt>
      <trkpt lat="41.78344" lon="19.64385">
        <ele>50.129953</ele>
        <time>2022-05-15T08:27:50.935Z</time>
      </trkpt>
      <trkpt lat="41.78355" lon="19.64388">
        <ele>50.255248</ele>
        <time>2022-05-15T08:27:54.943Z</time>
      </trkpt>
      <trkpt lat="41.78365" lon="19.64389">
        <ele>50.372177</ele>
        <time>2022-05-15T08:27:58.964Z</time>
      </trkpt>
      <trkpt lat="41.78376" lon="19.6439">
        <ele>50.494098</ele>
        <time>2022-05-15T08:28:02.952Z</time>
      </trkpt>
      <trkpt lat="41.78386" lon="19.64392">
        <ele>50.604527</ele>
        <time>2022-05-15T08:28:05.958Z</time>
      </trkpt>
      <trkpt lat="41.78395" lon="19.64392">
        <ele>50.862023</ele>
        <time>2022-05-15T08:28:08.950Z</time>
      </trkpt>
      <trkpt lat="41.78405" lon="19.64393">
        <ele>51.289854</ele>
        <time>2022-05-15T08:28:11.949Z</time>
      </trkpt>
      <trkpt lat="41.78415" lon="19.64395">
        <ele>51.730832</ele>
        <time>2022-05-15T08:28:14.935Z</time>
      </trkpt>
      <trkpt lat="41.78426" lon="19.64396">
        <ele>52.19488</ele>
        <time>2022-05-15T08:28:17.940Z</time>
      </trkpt>
      <trkpt lat="41.78438" lon="19.64397">
        <ele>52.720934</ele>
        <time>2022-05-15T08:28:20.948Z</time>
      </trkpt>
      <trkpt lat="41.78449" lon="19.64398">
        <ele>53.205384</ele>
        <time>2022-05-15T08:28:23.935Z</time>
      </trkpt>
      <trkpt lat="41.78459" lon="19.64401">
        <ele>53.639853</ele>
        <time>2022-05-15T08:28:26.938Z</time>
      </trkpt>
      <trkpt lat="41.78468" lon="19.64407">
        <ele>54.063247</ele>
        <time>2022-05-15T08:28:29.951Z</time>
      </trkpt>
      <trkpt lat="41.78477" lon="19.64414">
        <ele>54.487236</ele>
        <time>2022-05-15T08:28:32.935Z</time>
      </trkpt>
      <trkpt lat="41.78485" lon="19.64421">
        <ele>54.918321</ele>
        <time>2022-05-15T08:28:35.938Z</time>
      </trkpt>
      <trkpt lat="41.78493" lon="19.64428">
        <ele>55.329881</ele>
        <time>2022-05-15T08:28:38.976Z</time>
      </trkpt>
      <trkpt lat="41.78503" lon="19.64437">
        <ele>55.854129</ele>
        <time>2022-05-15T08:28:42.933Z</time>
      </trkpt>
      <trkpt lat="41.78511" lon="19.64443">
        <ele>56.250466</ele>
        <time>2022-05-15T08:28:45.943Z</time>
      </trkpt>
      <trkpt lat="41.78519" lon="19.6445">
        <ele>56.651473</ele>
        <time>2022-05-15T08:28:48.940Z</time>
      </trkpt>
      <trkpt lat="41.78526" lon="19.64457">
        <ele>57.048708</ele>
        <time>2022-05-15T08:28:51.945Z</time>
      </trkpt>
      <trkpt lat="41.78534" lon="19.64465">
        <ele>57.455498</ele>
        <time>2022-05-15T08:28:54.940Z</time>
      </trkpt>
      <trkpt lat="41.78542" lon="19.64474">
        <ele>57.906104</ele>
        <time>2022-05-15T08:28:58.954Z</time>
      </trkpt>
      <trkpt lat="41.7855" lon="19.64481">
        <ele>58.308663</ele>
        <time>2022-05-15T08:29:01.975Z</time>
      </trkpt>
      <trkpt lat="41.78559" lon="19.64488">
        <ele>58.61226</ele>
        <time>2022-05-15T08:29:05.948Z</time>
      </trkpt>
      <trkpt lat="41.78568" lon="19.64494">
        <ele>58.840601</ele>
        <time>2022-05-15T08:29:10.944Z</time>
      </trkpt>
      <trkpt lat="41.78577" lon="19.64501">
        <ele>59.087092</ele>
        <time>2022-05-15T08:29:15.957Z</time>
      </trkpt>
      <trkpt lat="41.78587" lon="19.64509">
        <ele>59.352682</ele>
        <time>2022-05-15T08:29:20.939Z</time>
      </trkpt>
      <trkpt lat="41.78595" lon="19.64516">
        <ele>59.595928</ele>
        <time>2022-05-15T08:29:24.944Z</time>
      </trkpt>
      <trkpt lat="41.78603" lon="19.64523">
        <ele>59.812138</ele>
        <time>2022-05-15T08:29:28.933Z</time>
      </trkpt>
      <trkpt lat="41.78612" lon="19.64531">
        <ele>60.076514</ele>
        <time>2022-05-15T08:29:33.956Z</time>
      </trkpt>
      <trkpt lat="41.7862" lon="19.64538">
        <ele>60.30452</ele>
        <time>2022-05-15T08:29:38.942Z</time>
      </trkpt>
      <trkpt lat="41.78629" lon="19.64545">
        <ele>60.553143</ele>
        <time>2022-05-15T08:29:43.934Z</time>
      </trkpt>
      <trkpt lat="41.78637" lon="19.64553">
        <ele>60.780147</ele>
        <time>2022-05-15T08:29:48.938Z</time>
      </trkpt>
      <trkpt lat="41.78645" lon="19.6456">
        <ele>61.013146</ele>
        <time>2022-05-15T08:29:53.927Z</time>
      </trkpt>
      <trkpt lat="41.78654" lon="19.64569">
        <ele>61.270495</ele>
        <time>2022-05-15T08:29:58.940Z</time>
      </trkpt>
      <trkpt lat="41.78661" lon="19.64579">
        <ele>61.504099</ele>
        <time>2022-05-15T08:30:03.928Z</time>
      </trkpt>
      <trkpt lat="41.78668" lon="19.64587">
        <ele>61.722852</ele>
        <time>2022-05-15T08:30:07.960Z</time>
      </trkpt>
      <trkpt lat="41.78676" lon="19.64596">
        <ele>61.977251</ele>
        <time>2022-05-15T08:30:12.951Z</time>
      </trkpt>
      <trkpt lat="41.78684" lon="19.64605">
        <ele>62.227602</ele>
        <time>2022-05-15T08:30:17.950Z</time>
      </trkpt>
      <trkpt lat="41.78692" lon="19.64615">
        <ele>62.478689</ele>
        <time>2022-05-15T08:30:22.932Z</time>
      </trkpt>
      <trkpt lat="41.787" lon="19.64623">
        <ele>62.750682</ele>
        <time>2022-05-15T08:30:27.943Z</time>
      </trkpt>
      <trkpt lat="41.78709" lon="19.64631">
        <ele>63.097163</ele>
        <time>2022-05-15T08:30:32.933Z</time>
      </trkpt>
      <trkpt lat="41.78719" lon="19.64636">
        <ele>63.420424</ele>
        <time>2022-05-15T08:30:37.952Z</time>
      </trkpt>
      <trkpt lat="41.78729" lon="19.64642">
        <ele>63.758708</ele>
        <time>2022-05-15T08:30:42.952Z</time>
      </trkpt>
      <trkpt lat="41.78739" lon="19.64645">
        <ele>64.107498</ele>
        <time>2022-05-15T08:30:48.960Z</time>
      </trkpt>
      <trkpt lat="41.78749" lon="19.64648">
        <ele>64.441106</ele>
        <time>2022-05-15T08:30:55.970Z</time>
      </trkpt>
      <trkpt lat="41.78758" lon="19.64653">
        <ele>64.733479</ele>
        <time>2022-05-15T08:31:00.931Z</time>
      </trkpt>
      <trkpt lat="41.78766" lon="19.6466">
        <ele>65.043531</ele>
        <time>2022-05-15T08:31:05.945Z</time>
      </trkpt>
      <trkpt lat="41.78773" lon="19.64668">
        <ele>65.334778</ele>
        <time>2022-05-15T08:31:11.941Z</time>
      </trkpt>
      <trkpt lat="41.78778" lon="19.64679">
        <ele>65.634815</ele>
        <time>2022-05-15T08:31:16.950Z</time>
      </trkpt>
      <trkpt lat="41.78781" lon="19.64692">
        <ele>65.970449</ele>
        <time>2022-05-15T08:31:20.944Z</time>
      </trkpt>
      <trkpt lat="41.78783" lon="19.64704">
        <ele>66.263645</ele>
        <time>2022-05-15T08:31:23.948Z</time>
      </trkpt>
      <trkpt lat="41.78786" lon="19.64717">
        <ele>66.579545</ele>
        <time>2022-05-15T08:31:26.949Z</time>
      </trkpt>
      <trkpt lat="41.78789" lon="19.64732">
        <ele>66.952901</ele>
        <time>2022-05-15T08:31:29.931Z</time>
      </trkpt>
      <trkpt lat="41.78793" lon="19.64747">
        <ele>67.328986</ele>
        <time>2022-05-15T08:31:32.945Z</time>
      </trkpt>
      <trkpt lat="41.78796" lon="19.64762">
        <ele>67.700055</ele>
        <time>2022-05-15T08:31:35.934Z</time>
      </trkpt>
      <trkpt lat="41.78799" lon="19.64776">
        <ele>68.050221</ele>
        <time>2022-05-15T08:31:38.964Z</time>
      </trkpt>
      <trkpt lat="41.78801" lon="19.64789">
        <ele>68.361263</ele>
        <time>2022-05-15T08:31:41.936Z</time>
      </trkpt>
      <trkpt lat="41.78803" lon="19.64801">
        <ele>68.583983</ele>
        <time>2022-05-15T08:31:44.948Z</time>
      </trkpt>
      <trkpt lat="41.78807" lon="19.64814">
        <ele>68.810961</ele>
        <time>2022-05-15T08:31:47.946Z</time>
      </trkpt>
      <trkpt lat="41.7881" lon="19.64829">
        <ele>69.068621</ele>
        <time>2022-05-15T08:31:51.936Z</time>
      </trkpt>
      <trkpt lat="41.78812" lon="19.64841">
        <ele>69.284479</ele>
        <time>2022-05-15T08:31:55.959Z</time>
      </trkpt>
      <trkpt lat="41.78814" lon="19.64853">
        <ele>69.491531</ele>
        <time>2022-05-15T08:31:59.932Z</time>
      </trkpt>
      <trkpt lat="41.78818" lon="19.64869">
        <ele>69.766088</ele>
        <time>2022-05-15T08:32:03.984Z</time>
      </trkpt>
      <trkpt lat="41.78821" lon="19.64885">
        <ele>70.06083</ele>
        <time>2022-05-15T08:32:06.940Z</time>
      </trkpt>
      <trkpt lat="41.78823" lon="19.64897">
        <ele>70.264062</ele>
        <time>2022-05-15T08:32:08.936Z</time>
      </trkpt>
      <trkpt lat="41.78827" lon="19.6491">
        <ele>70.498082</ele>
        <time>2022-05-15T08:32:10.946Z</time>
      </trkpt>
      <trkpt lat="41.78831" lon="19.64923">
        <ele>70.733683</ele>
        <time>2022-05-15T08:32:12.984Z</time>
      </trkpt>
      <trkpt lat="41.78834" lon="19.64934">
        <ele>70.944197</ele>
        <time>2022-05-15T08:32:14.982Z</time>
      </trkpt>
      <trkpt lat="41.78838" lon="19.6495">
        <ele>71.229924</ele>
        <time>2022-05-15T08:32:17.924Z</time>
      </trkpt>
      <trkpt lat="41.78841" lon="19.64962">
        <ele>71.443773</ele>
        <time>2022-05-15T08:32:20.946Z</time>
      </trkpt>
      <trkpt lat="41.78844" lon="19.64976">
        <ele>71.690763</ele>
        <time>2022-05-15T08:32:24.952Z</time>
      </trkpt>
      <trkpt lat="41.78848" lon="19.64989">
        <ele>71.92797</ele>
        <time>2022-05-15T08:32:28.988Z</time>
      </trkpt>
      <trkpt lat="41.78851" lon="19.65003">
        <ele>72.169432</ele>
        <time>2022-05-15T08:32:32.952Z</time>
      </trkpt>
      <trkpt lat="41.78854" lon="19.65015">
        <ele>72.382641</ele>
        <time>2022-05-15T08:32:35.932Z</time>
      </trkpt>
      <trkpt lat="41.78857" lon="19.65029">
        <ele>72.277187</ele>
        <time>2022-05-15T08:32:38.945Z</time>
      </trkpt>
      <trkpt lat="41.78861" lon="19.65045">
        <ele>71.902453</ele>
        <time>2022-05-15T08:32:41.944Z</time>
      </trkpt>
      <trkpt lat="41.78865" lon="19.6506">
        <ele>71.532976</ele>
        <time>2022-05-15T08:32:44.935Z</time>
      </trkpt>
      <trkpt lat="41.78868" lon="19.65076">
        <ele>71.149121</ele>
        <time>2022-05-15T08:32:47.957Z</time>
      </trkpt>
      <trkpt lat="41.78871" lon="19.65088">
        <ele>70.871896</ele>
        <time>2022-05-15T08:32:49.969Z</time>
      </trkpt>
      <trkpt lat="41.78875" lon="19.65105">
        <ele>70.465318</ele>
        <time>2022-05-15T08:32:52.938Z</time>
      </trkpt>
      <trkpt lat="41.78879" lon="19.65123">
        <ele>70.035674</ele>
        <time>2022-05-15T08:32:55.937Z</time>
      </trkpt>
      <trkpt lat="41.78882" lon="19.65137">
        <ele>69.702419</ele>
        <time>2022-05-15T08:32:57.945Z</time>
      </trkpt>
      <trkpt lat="41.78885" lon="19.65151">
        <ele>69.36568</ele>
        <time>2022-05-15T08:32:59.951Z</time>
      </trkpt>
      <trkpt lat="41.78888" lon="19.65164">
        <ele>69.057933</ele>
        <time>2022-05-15T08:33:01.955Z</time>
      </trkpt>
      <trkpt lat="41.78891" lon="19.65177">
        <ele>68.760432</ele>
        <time>2022-05-15T08:33:03.935Z</time>
      </trkpt>
      <trkpt lat="41.78894" lon="19.6519">
        <ele>68.44764</ele>
        <time>2022-05-15T08:33:05.974Z</time>
      </trkpt>
      <trkpt lat="41.78897" lon="19.65204">
        <ele>68.106047</ele>
        <time>2022-05-15T08:33:07.951Z</time>
      </trkpt>
      <trkpt lat="41.78902" lon="19.65218">
        <ele>67.758378</ele>
        <time>2022-05-15T08:33:09.980Z</time>
      </trkpt>
      <trkpt lat="41.78905" lon="19.65232">
        <ele>67.419874</ele>
        <time>2022-05-15T08:33:11.952Z</time>
      </trkpt>
      <trkpt lat="41.78908" lon="19.65247">
        <ele>67.073812</ele>
        <time>2022-05-15T08:33:13.939Z</time>
      </trkpt>
      <trkpt lat="41.78911" lon="19.65261">
        <ele>66.728235</ele>
        <time>2022-05-15T08:33:15.942Z</time>
      </trkpt>
      <trkpt lat="41.78914" lon="19.65273">
        <ele>66.408121</ele>
        <time>2022-05-15T08:33:17.927Z</time>
      </trkpt>
      <trkpt lat="41.78922" lon="19.65287">
        <ele>65.996101</ele>
        <time>2022-05-15T08:33:20.975Z</time>
      </trkpt>
      <trkpt lat="41.78933" lon="19.65296">
        <ele>65.592743</ele>
        <time>2022-05-15T08:33:23.943Z</time>
      </trkpt>
      <trkpt lat="41.78944" lon="19.65303">
        <ele>65.173593</ele>
        <time>2022-05-15T08:33:26.940Z</time>
      </trkpt>
      <trkpt lat="41.78956" lon="19.6531">
        <ele>64.750492</ele>
        <time>2022-05-15T08:33:29.942Z</time>
      </trkpt>
      <trkpt lat="41.78967" lon="19.65319">
        <ele>64.32404</ele>
        <time>2022-05-15T08:33:33.032Z</time>
      </trkpt>
      <trkpt lat="41.78978" lon="19.6533">
        <ele>63.889491</ele>
        <time>2022-05-15T08:33:35.926Z</time>
      </trkpt>
      <trkpt lat="41.78988" lon="19.65342">
        <ele>63.458411</ele>
        <time>2022-05-15T08:33:38.961Z</time>
      </trkpt>
      <trkpt lat="41.78997" lon="19.65356">
        <ele>63.025041</ele>
        <time>2022-05-15T08:33:41.950Z</time>
      </trkpt>
      <trkpt lat="41.79005" lon="19.65369">
        <ele>62.609876</ele>
        <time>2022-05-15T08:33:44.936Z</time>
      </trkpt>
      <trkpt lat="41.79012" lon="19.65382">
        <ele>62.203989</ele>
        <time>2022-05-15T08:33:47.955Z</time>
      </trkpt>
      <trkpt lat="41.7902" lon="19.65397">
        <ele>61.765149</ele>
        <time>2022-05-15T08:33:51.039Z</time>
      </trkpt>
      <trkpt lat="41.79029" lon="19.6541">
        <ele>61.343203</ele>
        <time>2022-05-15T08:33:53.953Z</time>
      </trkpt>
      <trkpt lat="41.79036" lon="19.65423">
        <ele>61.084743</ele>
        <time>2022-05-15T08:33:56.952Z</time>
      </trkpt>
      <trkpt lat="41.79044" lon="19.65435">
        <ele>60.975951</ele>
        <time>2022-05-15T08:33:59.954Z</time>
      </trkpt>
      <trkpt lat="41.79051" lon="19.65444">
        <ele>60.876553</ele>
        <time>2022-05-15T08:34:02.969Z</time>
      </trkpt>
      <trkpt lat="41.79058" lon="19.65453">
        <ele>60.782277</ele>
        <time>2022-05-15T08:34:05.936Z</time>
      </trkpt>
      <trkpt lat="41.79065" lon="19.65462">
        <ele>60.687685</ele>
        <time>2022-05-15T08:34:08.951Z</time>
      </trkpt>
      <trkpt lat="41.79072" lon="19.65473">
        <ele>60.587958</ele>
        <time>2022-05-15T08:34:11.997Z</time>
      </trkpt>
      <trkpt lat="41.79079" lon="19.65482">
        <ele>60.489762</ele>
        <time>2022-05-15T08:34:14.975Z</time>
      </trkpt>
      <trkpt lat="41.79087" lon="19.65492">
        <ele>60.38298</ele>
        <time>2022-05-15T08:34:17.932Z</time>
      </trkpt>
      <trkpt lat="41.79097" lon="19.65501">
        <ele>60.269125</ele>
        <time>2022-05-15T08:34:20.980Z</time>
      </trkpt>
      <trkpt lat="41.79108" lon="19.65511">
        <ele>60.136222</ele>
        <time>2022-05-15T08:34:23.930Z</time>
      </trkpt>
      <trkpt lat="41.79117" lon="19.65518">
        <ele>60.039247</ele>
        <time>2022-05-15T08:34:25.952Z</time>
      </trkpt>
      <trkpt lat="41.79125" lon="19.65525">
        <ele>59.940724</ele>
        <time>2022-05-15T08:34:27.949Z</time>
      </trkpt>
      <trkpt lat="41.79133" lon="19.65532">
        <ele>59.849878</ele>
        <time>2022-05-15T08:34:29.931Z</time>
      </trkpt>
      <trkpt lat="41.79144" lon="19.65541">
        <ele>59.728293</ele>
        <time>2022-05-15T08:34:32.931Z</time>
      </trkpt>
      <trkpt lat="41.79152" lon="19.6555">
        <ele>59.621221</ele>
        <time>2022-05-15T08:34:35.942Z</time>
      </trkpt>
      <trkpt lat="41.79163" lon="19.65557">
        <ele>59.502819</ele>
        <time>2022-05-15T08:34:39.938Z</time>
      </trkpt>
      <trkpt lat="41.79172" lon="19.65564">
        <ele>59.407801</ele>
        <time>2022-05-15T08:34:42.998Z</time>
      </trkpt>
      <trkpt lat="41.7918" lon="19.65571">
        <ele>59.441094</ele>
        <time>2022-05-15T08:34:45.936Z</time>
      </trkpt>
      <trkpt lat="41.79188" lon="19.65578">
        <ele>59.490541</ele>
        <time>2022-05-15T08:34:48.956Z</time>
      </trkpt>
      <trkpt lat="41.79198" lon="19.65587">
        <ele>59.549241</ele>
        <time>2022-05-15T08:34:52.942Z</time>
      </trkpt>
      <trkpt lat="41.79207" lon="19.65595">
        <ele>59.604427</ele>
        <time>2022-05-15T08:34:56.940Z</time>
      </trkpt>
      <trkpt lat="41.79216" lon="19.65602">
        <ele>59.655039</ele>
        <time>2022-05-15T08:35:00.936Z</time>
      </trkpt>
      <trkpt lat="41.79225" lon="19.6561">
        <ele>59.709807</ele>
        <time>2022-05-15T08:35:05.962Z</time>
      </trkpt>
      <trkpt lat="41.79234" lon="19.65617">
        <ele>59.757364</ele>
        <time>2022-05-15T08:35:09.953Z</time>
      </trkpt>
      <trkpt lat="41.79241" lon="19.65624">
        <ele>59.804103</ele>
        <time>2022-05-15T08:35:13.933Z</time>
      </trkpt>
      <trkpt lat="41.79248" lon="19.65633">
        <ele>59.852171</ele>
        <time>2022-05-15T08:35:17.943Z</time>
      </trkpt>
      <trkpt lat="41.79254" lon="19.65645">
        <ele>59.906023</ele>
        <time>2022-05-15T08:35:21.947Z</time>
      </trkpt>
      <trkpt lat="41.79259" lon="19.65658">
        <ele>59.959221</ele>
        <time>2022-05-15T08:35:24.940Z</time>
      </trkpt>
      <trkpt lat="41.79265" lon="19.65675">
        <ele>60.028674</ele>
        <time>2022-05-15T08:35:27.945Z</time>
      </trkpt>
      <trkpt lat="41.7927" lon="19.65688">
        <ele>60.084294</ele>
        <time>2022-05-15T08:35:29.945Z</time>
      </trkpt>
      <trkpt lat="41.79274" lon="19.65701">
        <ele>60.135986</ele>
        <time>2022-05-15T08:35:31.971Z</time>
      </trkpt>
      <trkpt lat="41.79278" lon="19.65714">
        <ele>60.188897</ele>
        <time>2022-05-15T08:35:33.932Z</time>
      </trkpt>
      <trkpt lat="41.79283" lon="19.65729">
        <ele>60.24805</ele>
        <time>2022-05-15T08:35:35.941Z</time>
      </trkpt>
      <trkpt lat="41.79287" lon="19.65742">
        <ele>60.215001</ele>
        <time>2022-05-15T08:35:37.924Z</time>
      </trkpt>
      <trkpt lat="41.79291" lon="19.65756">
        <ele>59.77505</ele>
        <time>2022-05-15T08:35:39.944Z</time>
      </trkpt>
      <trkpt lat="41.79296" lon="19.65769">
        <ele>59.342187</ele>
        <time>2022-05-15T08:35:41.955Z</time>
      </trkpt>
      <trkpt lat="41.79299" lon="19.65782">
        <ele>58.930565</ele>
        <time>2022-05-15T08:35:43.962Z</time>
      </trkpt>
      <trkpt lat="41.79303" lon="19.65793">
        <ele>58.55678</ele>
        <time>2022-05-15T08:35:46.028Z</time>
      </trkpt>
      <trkpt lat="41.79306" lon="19.65805">
        <ele>58.194229</ele>
        <time>2022-05-15T08:35:47.929Z</time>
      </trkpt>
      <trkpt lat="41.7931" lon="19.65818">
        <ele>57.760277</ele>
        <time>2022-05-15T08:35:50.947Z</time>
      </trkpt>
      <trkpt lat="41.79318" lon="19.65831">
        <ele>57.277337</ele>
        <time>2022-05-15T08:35:53.966Z</time>
      </trkpt>
      <trkpt lat="41.79327" lon="19.65843">
        <ele>56.76512</ele>
        <time>2022-05-15T08:35:56.944Z</time>
      </trkpt>
      <trkpt lat="41.79337" lon="19.65851">
        <ele>56.299614</ele>
        <time>2022-05-15T08:35:59.932Z</time>
      </trkpt>
      <trkpt lat="41.79345" lon="19.65856">
        <ele>55.92837</ele>
        <time>2022-05-15T08:36:02.951Z</time>
      </trkpt>
      <trkpt lat="41.79356" lon="19.65859">
        <ele>55.477164</ele>
        <time>2022-05-15T08:36:06.021Z</time>
      </trkpt>
      <trkpt lat="41.79369" lon="19.65862">
        <ele>54.947435</ele>
        <time>2022-05-15T08:36:08.951Z</time>
      </trkpt>
      <trkpt lat="41.79379" lon="19.65865">
        <ele>54.524391</ele>
        <time>2022-05-15T08:36:10.975Z</time>
      </trkpt>
      <trkpt lat="41.79391" lon="19.65869">
        <ele>54.053625</ele>
        <time>2022-05-15T08:36:12.923Z</time>
      </trkpt>
      <trkpt lat="41.79403" lon="19.65872">
        <ele>53.53123</ele>
        <time>2022-05-15T08:36:14.936Z</time>
      </trkpt>
      <trkpt lat="41.79415" lon="19.65876">
        <ele>53.049106</ele>
        <time>2022-05-15T08:36:16.964Z</time>
      </trkpt>
      <trkpt lat="41.79427" lon="19.65879">
        <ele>52.846633</ele>
        <time>2022-05-15T08:36:18.965Z</time>
      </trkpt>
      <trkpt lat="41.79439" lon="19.65882">
        <ele>52.645347</ele>
        <time>2022-05-15T08:36:20.951Z</time>
      </trkpt>
      <trkpt lat="41.7945" lon="19.65885">
        <ele>52.449964</ele>
        <time>2022-05-15T08:36:22.941Z</time>
      </trkpt>
      <trkpt lat="41.79461" lon="19.65888">
        <ele>52.263816</ele>
        <time>2022-05-15T08:36:24.946Z</time>
      </trkpt>
      <trkpt lat="41.79472" lon="19.65891">
        <ele>52.079321</ele>
        <time>2022-05-15T08:36:26.942Z</time>
      </trkpt>
      <trkpt lat="41.79482" lon="19.65893">
        <ele>51.903848</ele>
        <time>2022-05-15T08:36:28.934Z</time>
      </trkpt>
      <trkpt lat="41.79491" lon="19.65896">
        <ele>51.740472</ele>
        <time>2022-05-15T08:36:30.951Z</time>
      </trkpt>
      <trkpt lat="41.795" lon="19.65899">
        <ele>51.586738</ele>
        <time>2022-05-15T08:36:32.975Z</time>
      </trkpt>
      <trkpt lat="41.7951" lon="19.65902">
        <ele>51.424749</ele>
        <time>2022-05-15T08:36:34.939Z</time>
      </trkpt>
      <trkpt lat="41.79519" lon="19.65904">
        <ele>51.269877</ele>
        <time>2022-05-15T08:36:36.962Z</time>
      </trkpt>
      <trkpt lat="41.79528" lon="19.65906">
        <ele>51.113586</ele>
        <time>2022-05-15T08:36:38.949Z</time>
      </trkpt>
      <trkpt lat="41.79541" lon="19.65909">
        <ele>50.892396</ele>
        <time>2022-05-15T08:36:41.952Z</time>
      </trkpt>
      <trkpt lat="41.79553" lon="19.65913">
        <ele>50.687304</ele>
        <time>2022-05-15T08:36:44.939Z</time>
      </trkpt>
      <trkpt lat="41.79565" lon="19.65916">
        <ele>50.482706</ele>
        <time>2022-05-15T08:36:47.937Z</time>
      </trkpt>
      <trkpt lat="41.79577" lon="19.65919">
        <ele>50.276685</ele>
        <time>2022-05-15T08:36:50.934Z</time>
      </trkpt>
      <trkpt lat="41.7959" lon="19.65922">
        <ele>50.049828</ele>
        <time>2022-05-15T08:36:53.962Z</time>
      </trkpt>
      <trkpt lat="41.79599" lon="19.65924">
        <ele>50.154392</ele>
        <time>2022-05-15T08:36:55.957Z</time>
      </trkpt>
      <trkpt lat="41.79608" lon="19.65926">
        <ele>50.303172</ele>
        <time>2022-05-15T08:36:57.942Z</time>
      </trkpt>
      <trkpt lat="41.7962" lon="19.65929">
        <ele>50.512196</ele>
        <time>2022-05-15T08:37:00.956Z</time>
      </trkpt>
      <trkpt lat="41.79633" lon="19.65932">
        <ele>50.716824</ele>
        <time>2022-05-15T08:37:03.951Z</time>
      </trkpt>
      <trkpt lat="41.79644" lon="19.65934">
        <ele>50.905136</ele>
        <time>2022-05-15T08:37:06.957Z</time>
      </trkpt>
      <trkpt lat="41.79657" lon="19.65937">
        <ele>51.112148</ele>
        <time>2022-05-15T08:37:09.944Z</time>
      </trkpt>
      <trkpt lat="41.7967" lon="19.6594">
        <ele>51.327234</ele>
        <time>2022-05-15T08:37:12.941Z</time>
      </trkpt>
      <trkpt lat="41.79681" lon="19.65944">
        <ele>51.530062</ele>
        <time>2022-05-15T08:37:15.935Z</time>
      </trkpt>
      <trkpt lat="41.79693" lon="19.65947">
        <ele>51.717518</ele>
        <time>2022-05-15T08:37:18.961Z</time>
      </trkpt>
      <trkpt lat="41.79702" lon="19.65949">
        <ele>51.878575</ele>
        <time>2022-05-15T08:37:21.958Z</time>
      </trkpt>
      <trkpt lat="41.79712" lon="19.65948">
        <ele>52.033212</ele>
        <time>2022-05-15T08:37:25.942Z</time>
      </trkpt>
      <trkpt lat="41.79722" lon="19.65952">
        <ele>52.200699</ele>
        <time>2022-05-15T08:37:30.938Z</time>
      </trkpt>
      <trkpt lat="41.79731" lon="19.65957">
        <ele>52.363396</ele>
        <time>2022-05-15T08:37:34.993Z</time>
      </trkpt>
      <trkpt lat="41.79741" lon="19.6596">
        <ele>52.53916</ele>
        <time>2022-05-15T08:37:39.921Z</time>
      </trkpt>
      <trkpt lat="41.79751" lon="19.65962">
        <ele>52.701425</ele>
        <time>2022-05-15T08:37:44.934Z</time>
      </trkpt>
      <trkpt lat="41.7976" lon="19.65964">
        <ele>52.85675</ele>
        <time>2022-05-15T08:37:49.996Z</time>
      </trkpt>
      <trkpt lat="41.79772" lon="19.65967">
        <ele>53.020279</ele>
        <time>2022-05-15T08:37:53.935Z</time>
      </trkpt>
      <trkpt lat="41.79782" lon="19.6597">
        <ele>53.142315</ele>
        <time>2022-05-15T08:37:57.942Z</time>
      </trkpt>
      <trkpt lat="41.79792" lon="19.65975">
        <ele>53.269347</ele>
        <time>2022-05-15T08:38:01.967Z</time>
      </trkpt>
      <trkpt lat="41.79803" lon="19.6598">
        <ele>53.397693</ele>
        <time>2022-05-15T08:38:05.936Z</time>
      </trkpt>
      <trkpt lat="41.79814" lon="19.65984">
        <ele>53.524986</ele>
        <time>2022-05-15T08:38:09.936Z</time>
      </trkpt>
      <trkpt lat="41.79822" lon="19.65987">
        <ele>53.628942</ele>
        <time>2022-05-15T08:38:12.949Z</time>
      </trkpt>
      <trkpt lat="41.79831" lon="19.65989">
        <ele>53.73374</ele>
        <time>2022-05-15T08:38:15.939Z</time>
      </trkpt>
      <trkpt lat="41.79843" lon="19.65992">
        <ele>53.868661</ele>
        <time>2022-05-15T08:38:19.938Z</time>
      </trkpt>
      <trkpt lat="41.79855" lon="19.65991">
        <ele>54.000866</ele>
        <time>2022-05-15T08:38:23.927Z</time>
      </trkpt>
      <trkpt lat="41.79866" lon="19.65988">
        <ele>54.13112</ele>
        <time>2022-05-15T08:38:27.952Z</time>
      </trkpt>
      <trkpt lat="41.79877" lon="19.65984">
        <ele>54.265178</ele>
        <time>2022-05-15T08:38:31.936Z</time>
      </trkpt>
      <trkpt lat="41.79885" lon="19.65978">
        <ele>54.368567</ele>
        <time>2022-05-15T08:38:34.983Z</time>
      </trkpt>
      <trkpt lat="41.79895" lon="19.65972">
        <ele>54.500875</ele>
        <time>2022-05-15T08:38:38.964Z</time>
      </trkpt>
      <trkpt lat="41.79905" lon="19.65966">
        <ele>54.627618</ele>
        <time>2022-05-15T08:38:42.954Z</time>
      </trkpt>
      <trkpt lat="41.79915" lon="19.6596">
        <ele>54.749106</ele>
        <time>2022-05-15T08:38:46.943Z</time>
      </trkpt>
      <trkpt lat="41.79924" lon="19.65954">
        <ele>54.860312</ele>
        <time>2022-05-15T08:38:50.952Z</time>
      </trkpt>
      <trkpt lat="41.79934" lon="19.65947">
        <ele>54.989495</ele>
        <time>2022-05-15T08:38:54.977Z</time>
      </trkpt>
      <trkpt lat="41.79944" lon="19.65941">
        <ele>55.290857</ele>
        <time>2022-05-15T08:38:58.943Z</time>
      </trkpt>
      <trkpt lat="41.79953" lon="19.65933">
        <ele>55.670226</ele>
        <time>2022-05-15T08:39:02.954Z</time>
      </trkpt>
      <trkpt lat="41.79963" lon="19.65926">
        <ele>56.066961</ele>
        <time>2022-05-15T08:39:06.955Z</time>
      </trkpt>
      <trkpt lat="41.79972" lon="19.6592">
        <ele>56.394465</ele>
        <time>2022-05-15T08:39:09.927Z</time>
      </trkpt>
      <trkpt lat="41.7998" lon="19.65913">
        <ele>56.715575</ele>
        <time>2022-05-15T08:39:12.948Z</time>
      </trkpt>
      <trkpt lat="41.79988" lon="19.65907">
        <ele>57.029067</ele>
        <time>2022-05-15T08:39:15.939Z</time>
      </trkpt>
      <trkpt lat="41.79998" lon="19.659">
        <ele>57.421544</ele>
        <time>2022-05-15T08:39:19.923Z</time>
      </trkpt>
      <trkpt lat="41.80007" lon="19.65894">
        <ele>57.777302</ele>
        <time>2022-05-15T08:39:23.937Z</time>
      </trkpt>
      <trkpt lat="41.80016" lon="19.65888">
        <ele>58.121169</ele>
        <time>2022-05-15T08:39:27.944Z</time>
      </trkpt>
      <trkpt lat="41.80025" lon="19.65881">
        <ele>58.472232</ele>
        <time>2022-05-15T08:39:31.952Z</time>
      </trkpt>
      <trkpt lat="41.80031" lon="19.65873">
        <ele>58.783299</ele>
        <time>2022-05-15T08:39:35.971Z</time>
      </trkpt>
      <trkpt lat="41.8004" lon="19.65869">
        <ele>59.113525</ele>
        <time>2022-05-15T08:39:39.932Z</time>
      </trkpt>
      <trkpt lat="41.8005" lon="19.65865">
        <ele>59.445376</ele>
        <time>2022-05-15T08:39:43.949Z</time>
      </trkpt>
      <trkpt lat="41.80058" lon="19.65861">
        <ele>59.756724</ele>
        <time>2022-05-15T08:39:47.953Z</time>
      </trkpt>
      <trkpt lat="41.80067" lon="19.65856">
        <ele>60.097966</ele>
        <time>2022-05-15T08:39:51.956Z</time>
      </trkpt>
      <trkpt lat="41.80077" lon="19.65851">
        <ele>60.443133</ele>
        <time>2022-05-15T08:39:56.957Z</time>
      </trkpt>
      <trkpt lat="41.80087" lon="19.65846">
        <ele>60.813387</ele>
        <time>2022-05-15T08:40:01.929Z</time>
      </trkpt>
      <trkpt lat="41.80097" lon="19.65841">
        <ele>61.170473</ele>
        <time>2022-05-15T08:40:06.949Z</time>
      </trkpt>
      <trkpt lat="41.80105" lon="19.65837">
        <ele>61.532517</ele>
        <time>2022-05-15T08:40:10.981Z</time>
      </trkpt>
      <trkpt lat="41.80115" lon="19.65832">
        <ele>61.917041</ele>
        <time>2022-05-15T08:40:15.935Z</time>
      </trkpt>
      <trkpt lat="41.80125" lon="19.65827">
        <ele>62.333141</ele>
        <time>2022-05-15T08:40:20.944Z</time>
      </trkpt>
      <trkpt lat="41.80135" lon="19.65821">
        <ele>62.743437</ele>
        <time>2022-05-15T08:40:25.932Z</time>
      </trkpt>
      <trkpt lat="41.80144" lon="19.65816">
        <ele>63.152007</ele>
        <time>2022-05-15T08:40:32.950Z</time>
      </trkpt>
      <trkpt lat="41.80153" lon="19.65812">
        <ele>63.50854</ele>
        <time>2022-05-15T08:40:38.955Z</time>
      </trkpt>
      <trkpt lat="41.80163" lon="19.65806">
        <ele>63.945791</ele>
        <time>2022-05-15T08:40:45.939Z</time>
      </trkpt>
      <trkpt lat="41.80173" lon="19.65801">
        <ele>64.331274</ele>
        <time>2022-05-15T08:40:51.952Z</time>
      </trkpt>
      <trkpt lat="41.80184" lon="19.65796">
        <ele>64.771614</ele>
        <time>2022-05-15T08:40:57.933Z</time>
      </trkpt>
      <trkpt lat="41.80192" lon="19.65792">
        <ele>65.125899</ele>
        <time>2022-05-15T08:41:03.948Z</time>
      </trkpt>
      <trkpt lat="41.80203" lon="19.65789">
        <ele>65.547516</ele>
        <time>2022-05-15T08:41:11.941Z</time>
      </trkpt>
      <trkpt lat="41.80213" lon="19.65789">
        <ele>65.926907</ele>
        <time>2022-05-15T08:41:17.949Z</time>
      </trkpt>
      <trkpt lat="41.80223" lon="19.65789">
        <ele>66.332459</ele>
        <time>2022-05-15T08:41:24.918Z</time>
      </trkpt>
      <trkpt lat="41.80233" lon="19.6579">
        <ele>66.706091</ele>
        <time>2022-05-15T08:41:30.916Z</time>
      </trkpt>
      <trkpt lat="41.80243" lon="19.65794">
        <ele>67.118678</ele>
        <time>2022-05-15T08:41:36.918Z</time>
      </trkpt>
      <trkpt lat="41.80254" lon="19.65798">
        <ele>67.539004</ele>
        <time>2022-05-15T08:41:41.931Z</time>
      </trkpt>
      <trkpt lat="41.80264" lon="19.65801">
        <ele>67.964981</ele>
        <time>2022-05-15T08:41:45.948Z</time>
      </trkpt>
      <trkpt lat="41.80273" lon="19.65803">
        <ele>68.268891</ele>
        <time>2022-05-15T08:41:48.923Z</time>
      </trkpt>
      <trkpt lat="41.80283" lon="19.65804">
        <ele>68.519576</ele>
        <time>2022-05-15T08:41:51.917Z</time>
      </trkpt>
      <trkpt lat="41.80294" lon="19.65804">
        <ele>68.782698</ele>
        <time>2022-05-15T08:41:54.914Z</time>
      </trkpt>
      <trkpt lat="41.80305" lon="19.65803">
        <ele>69.048481</ele>
        <time>2022-05-15T08:41:57.930Z</time>
      </trkpt>
      <trkpt lat="41.80315" lon="19.65802">
        <ele>69.309475</ele>
        <time>2022-05-15T08:42:00.920Z</time>
      </trkpt>
      <trkpt lat="41.80324" lon="19.65801">
        <ele>69.548819</ele>
        <time>2022-05-15T08:42:03.930Z</time>
      </trkpt>
      <trkpt lat="41.80336" lon="19.65797">
        <ele>69.838047</ele>
        <time>2022-05-15T08:42:07.944Z</time>
      </trkpt>
      <trkpt lat="41.80346" lon="19.65792">
        <ele>70.107849</ele>
        <time>2022-05-15T08:42:11.938Z</time>
      </trkpt>
      <trkpt lat="41.80355" lon="19.65784">
        <ele>70.380565</ele>
        <time>2022-05-15T08:42:15.921Z</time>
      </trkpt>
      <trkpt lat="41.80362" lon="19.65776">
        <ele>70.610005</ele>
        <time>2022-05-15T08:42:19.920Z</time>
      </trkpt>
      <trkpt lat="41.80369" lon="19.65766">
        <ele>70.870895</ele>
        <time>2022-05-15T08:42:23.930Z</time>
      </trkpt>
      <trkpt lat="41.80375" lon="19.65757">
        <ele>71.100134</ele>
        <time>2022-05-15T08:42:27.920Z</time>
      </trkpt>
      <trkpt lat="41.80381" lon="19.65747">
        <ele>71.338903</ele>
        <time>2022-05-15T08:42:31.921Z</time>
      </trkpt>
      <trkpt lat="41.80388" lon="19.65738">
        <ele>71.570159</ele>
        <time>2022-05-15T08:42:35.947Z</time>
      </trkpt>
      <trkpt lat="41.80394" lon="19.65727">
        <ele>71.832128</ele>
        <time>2022-05-15T08:42:39.933Z</time>
      </trkpt>
      <trkpt lat="41.80401" lon="19.65716">
        <ele>72.106316</ele>
        <time>2022-05-15T08:42:43.916Z</time>
      </trkpt>
      <trkpt lat="41.80407" lon="19.65706">
        <ele>72.338455</ele>
        <time>2022-05-15T08:42:47.935Z</time>
      </trkpt>
      <trkpt lat="41.80415" lon="19.65696">
        <ele>72.612095</ele>
        <time>2022-05-15T08:42:51.922Z</time>
      </trkpt>
      <trkpt lat="41.80422" lon="19.65685">
        <ele>72.985901</ele>
        <time>2022-05-15T08:42:55.911Z</time>
      </trkpt>
      <trkpt lat="41.80429" lon="19.65675">
        <ele>73.374493</ele>
        <time>2022-05-15T08:42:59.922Z</time>
      </trkpt>
      <trkpt lat="41.80437" lon="19.65665">
        <ele>73.780164</ele>
        <time>2022-05-15T08:43:03.923Z</time>
      </trkpt>
      <trkpt lat="41.80445" lon="19.65656">
        <ele>74.168566</ele>
        <time>2022-05-15T08:43:07.917Z</time>
      </trkpt>
      <trkpt lat="41.80453" lon="19.6565">
        <ele>74.528524</ele>
        <time>2022-05-15T08:43:11.917Z</time>
      </trkpt>
      <trkpt lat="41.80463" lon="19.65645">
        <ele>74.926268</ele>
        <time>2022-05-15T08:43:15.943Z</time>
      </trkpt>
      <trkpt lat="41.80473" lon="19.65642">
        <ele>75.326295</ele>
        <time>2022-05-15T08:43:19.916Z</time>
      </trkpt>
      <trkpt lat="41.80485" lon="19.6564">
        <ele>75.751128</ele>
        <time>2022-05-15T08:43:23.932Z</time>
      </trkpt>
      <trkpt lat="41.80495" lon="19.65638">
        <ele>76.131706</ele>
        <time>2022-05-15T08:43:27.912Z</time>
      </trkpt>
      <trkpt lat="41.80506" lon="19.65636">
        <ele>76.577169</ele>
        <time>2022-05-15T08:43:31.916Z</time>
      </trkpt>
      <trkpt lat="41.80517" lon="19.65634">
        <ele>76.966431</ele>
        <time>2022-05-15T08:43:35.912Z</time>
      </trkpt>
      <trkpt lat="41.80528" lon="19.65632">
        <ele>77.380474</ele>
        <time>2022-05-15T08:43:39.930Z</time>
      </trkpt>
      <trkpt lat="41.80537" lon="19.6563">
        <ele>77.741347</ele>
        <time>2022-05-15T08:43:42.921Z</time>
      </trkpt>
      <trkpt lat="41.80546" lon="19.65627">
        <ele>78.093745</ele>
        <time>2022-05-15T08:43:45.918Z</time>
      </trkpt>
      <trkpt lat="41.80556" lon="19.65624">
        <ele>78.474754</ele>
        <time>2022-05-15T08:43:49.916Z</time>
      </trkpt>
      <trkpt lat="41.80566" lon="19.65623">
        <ele>78.844095</ele>
        <time>2022-05-15T08:43:54.925Z</time>
      </trkpt>
      <trkpt lat="41.80575" lon="19.65622">
        <ele>79.185095</ele>
        <time>2022-05-15T08:43:58.926Z</time>
      </trkpt>
      <trkpt lat="41.80586" lon="19.6562">
        <ele>79.380413</ele>
        <time>2022-05-15T08:44:02.914Z</time>
      </trkpt>
      <trkpt lat="41.80596" lon="19.65618">
        <ele>79.202783</ele>
        <time>2022-05-15T08:44:06.926Z</time>
      </trkpt>
      <trkpt lat="41.80606" lon="19.65616">
        <ele>79.038197</ele>
        <time>2022-05-15T08:44:10.953Z</time>
      </trkpt>
      <trkpt lat="41.80616" lon="19.65613">
        <ele>78.867123</ele>
        <time>2022-05-15T08:44:15.916Z</time>
      </trkpt>
      <trkpt lat="41.80626" lon="19.65614">
        <ele>78.703323</ele>
        <time>2022-05-15T08:44:19.918Z</time>
      </trkpt>
      <trkpt lat="41.80637" lon="19.65611">
        <ele>78.525077</ele>
        <time>2022-05-15T08:44:24.916Z</time>
      </trkpt>
      <trkpt lat="41.80648" lon="19.6561">
        <ele>78.344732</ele>
        <time>2022-05-15T08:44:29.918Z</time>
      </trkpt>
      <trkpt lat="41.80659" lon="19.6561">
        <ele>78.159941</ele>
        <time>2022-05-15T08:44:34.914Z</time>
      </trkpt>
      <trkpt lat="41.8067" lon="19.6561">
        <ele>77.978416</ele>
        <time>2022-05-15T08:44:39.916Z</time>
      </trkpt>
      <trkpt lat="41.80679" lon="19.65613">
        <ele>77.825859</ele>
        <time>2022-05-15T08:44:43.915Z</time>
      </trkpt>
      <trkpt lat="41.80688" lon="19.65616">
        <ele>77.670189</ele>
        <time>2022-05-15T08:44:47.931Z</time>
      </trkpt>
      <trkpt lat="41.80697" lon="19.65617">
        <ele>77.520045</ele>
        <time>2022-05-15T08:44:51.916Z</time>
      </trkpt>
      <trkpt lat="41.80707" lon="19.65614">
        <ele>77.34827</ele>
        <time>2022-05-15T08:44:55.914Z</time>
      </trkpt>
      <trkpt lat="41.80718" lon="19.65611">
        <ele>77.165165</ele>
        <time>2022-05-15T08:44:59.941Z</time>
      </trkpt>
      <trkpt lat="41.80727" lon="19.65609">
        <ele>77.015378</ele>
        <time>2022-05-15T08:45:02.915Z</time>
      </trkpt>
      <trkpt lat="41.80737" lon="19.65607">
        <ele>76.859572</ele>
        <time>2022-05-15T08:45:05.919Z</time>
      </trkpt>
      <trkpt lat="41.80746" lon="19.65605">
        <ele>76.700515</ele>
        <time>2022-05-15T08:45:08.917Z</time>
      </trkpt>
      <trkpt lat="41.80756" lon="19.65602">
        <ele>76.533836</ele>
        <time>2022-05-15T08:45:11.921Z</time>
      </trkpt>
      <trkpt lat="41.80767" lon="19.65601">
        <ele>76.534171</ele>
        <time>2022-05-15T08:45:14.912Z</time>
      </trkpt>
      <trkpt lat="41.80778" lon="19.65602">
        <ele>76.616074</ele>
        <time>2022-05-15T08:45:17.915Z</time>
      </trkpt>
      <trkpt lat="41.8079" lon="19.65607">
        <ele>76.701508</ele>
        <time>2022-05-15T08:45:20.918Z</time>
      </trkpt>
      <trkpt lat="41.80799" lon="19.65617">
        <ele>76.787249</ele>
        <time>2022-05-15T08:45:23.984Z</time>
      </trkpt>
      <trkpt lat="41.80805" lon="19.65631">
        <ele>76.87097</ele>
        <time>2022-05-15T08:45:26.913Z</time>
      </trkpt>
      <trkpt lat="41.8081" lon="19.65645">
        <ele>76.956619</ele>
        <time>2022-05-15T08:45:29.915Z</time>
      </trkpt>
      <trkpt lat="41.80814" lon="19.65657">
        <ele>77.025489</ele>
        <time>2022-05-15T08:45:31.923Z</time>
      </trkpt>
      <trkpt lat="41.80818" lon="19.65669">
        <ele>77.09692</ele>
        <time>2022-05-15T08:45:33.913Z</time>
      </trkpt>
      <trkpt lat="41.80825" lon="19.65682">
        <ele>77.183035</ele>
        <time>2022-05-15T08:45:35.914Z</time>
      </trkpt>
      <trkpt lat="41.80833" lon="19.65691">
        <ele>77.25786</ele>
        <time>2022-05-15T08:45:37.933Z</time>
      </trkpt>
      <trkpt lat="41.80843" lon="19.65696">
        <ele>77.335771</ele>
        <time>2022-05-15T08:45:39.919Z</time>
      </trkpt>
      <trkpt lat="41.80856" lon="19.65701">
        <ele>77.428942</ele>
        <time>2022-05-15T08:45:41.922Z</time>
      </trkpt>
      <trkpt lat="41.80868" lon="19.65704">
        <ele>77.520033</ele>
        <time>2022-05-15T08:45:43.915Z</time>
      </trkpt>
      <trkpt lat="41.8088" lon="19.65707">
        <ele>77.601484</ele>
        <time>2022-05-15T08:45:45.935Z</time>
      </trkpt>
      <trkpt lat="41.8089" lon="19.65709">
        <ele>77.679762</ele>
        <time>2022-05-15T08:45:47.922Z</time>
      </trkpt>
      <trkpt lat="41.80901" lon="19.6571">
        <ele>77.753666</ele>
        <time>2022-05-15T08:45:49.922Z</time>
      </trkpt>
      <trkpt lat="41.8091" lon="19.65708">
        <ele>77.744208</ele>
        <time>2022-05-15T08:45:51.921Z</time>
      </trkpt>
      <trkpt lat="41.8092" lon="19.65703">
        <ele>77.706884</ele>
        <time>2022-05-15T08:45:54.916Z</time>
      </trkpt>
      <trkpt lat="41.80928" lon="19.65695">
        <ele>77.675269</ele>
        <time>2022-05-15T08:45:57.923Z</time>
      </trkpt>
      <trkpt lat="41.80935" lon="19.65686">
        <ele>77.64388</ele>
        <time>2022-05-15T08:46:00.912Z</time>
      </trkpt>
      <trkpt lat="41.80943" lon="19.65678">
        <ele>77.612248</ele>
        <time>2022-05-15T08:46:03.926Z</time>
      </trkpt>
      <trkpt lat="41.8095" lon="19.65669">
        <ele>77.582867</ele>
        <time>2022-05-15T08:46:06.916Z</time>
      </trkpt>
      <trkpt lat="41.80957" lon="19.65661">
        <ele>77.55196</ele>
        <time>2022-05-15T08:46:09.917Z</time>
      </trkpt>
      <trkpt lat="41.80964" lon="19.65651">
        <ele>77.517997</ele>
        <time>2022-05-15T08:46:12.914Z</time>
      </trkpt>
      <trkpt lat="41.80973" lon="19.65642">
        <ele>77.482992</ele>
        <time>2022-05-15T08:46:15.936Z</time>
      </trkpt>
      <trkpt lat="41.80981" lon="19.65632">
        <ele>77.44669</ele>
        <time>2022-05-15T08:46:18.916Z</time>
      </trkpt>
      <trkpt lat="41.80991" lon="19.65621">
        <ele>77.404104</ele>
        <time>2022-05-15T08:46:21.924Z</time>
      </trkpt>
      <trkpt lat="41.80998" lon="19.65613">
        <ele>77.374795</ele>
        <time>2022-05-15T08:46:23.918Z</time>
      </trkpt>
      <trkpt lat="41.81006" lon="19.65605">
        <ele>77.344436</ele>
        <time>2022-05-15T08:46:25.916Z</time>
      </trkpt>
      <trkpt lat="41.81014" lon="19.65597">
        <ele>77.312483</ele>
        <time>2022-05-15T08:46:27.922Z</time>
      </trkpt>
      <trkpt lat="41.81023" lon="19.65592">
        <ele>77.278458</ele>
        <time>2022-05-15T08:46:29.914Z</time>
      </trkpt>
      <trkpt lat="41.81034" lon="19.65588">
        <ele>77.242189</ele>
        <time>2022-05-15T08:46:31.920Z</time>
      </trkpt>
      <trkpt lat="41.81045" lon="19.65585">
        <ele>77.206648</ele>
        <time>2022-05-15T08:46:33.924Z</time>
      </trkpt>
      <trkpt lat="41.81055" lon="19.65581">
        <ele>77.099912</ele>
        <time>2022-05-15T08:46:35.913Z</time>
      </trkpt>
      <trkpt lat="41.81066" lon="19.65578">
        <ele>76.873727</ele>
        <time>2022-05-15T08:46:37.944Z</time>
      </trkpt>
      <trkpt lat="41.81079" lon="19.65576">
        <ele>76.632918</ele>
        <time>2022-05-15T08:46:39.911Z</time>
      </trkpt>
      <trkpt lat="41.81091" lon="19.65574">
        <ele>76.390322</ele>
        <time>2022-05-15T08:46:41.921Z</time>
      </trkpt>
      <trkpt lat="41.81102" lon="19.65572">
        <ele>76.167756</ele>
        <time>2022-05-15T08:46:43.933Z</time>
      </trkpt>
      <trkpt lat="41.81112" lon="19.65567">
        <ele>75.960782</ele>
        <time>2022-05-15T08:46:45.930Z</time>
      </trkpt>
      <trkpt lat="41.81121" lon="19.65562">
        <ele>75.762432</ele>
        <time>2022-05-15T08:46:47.918Z</time>
      </trkpt>
      <trkpt lat="41.8113" lon="19.65556">
        <ele>75.562979</ele>
        <time>2022-05-15T08:46:49.916Z</time>
      </trkpt>
      <trkpt lat="41.81139" lon="19.65548">
        <ele>75.357699</ele>
        <time>2022-05-15T08:46:51.919Z</time>
      </trkpt>
      <trkpt lat="41.81148" lon="19.6554">
        <ele>75.143607</ele>
        <time>2022-05-15T08:46:53.911Z</time>
      </trkpt>
      <trkpt lat="41.81157" lon="19.65533">
        <ele>74.939347</ele>
        <time>2022-05-15T08:46:55.923Z</time>
      </trkpt>
      <trkpt lat="41.81165" lon="19.65526">
        <ele>74.737544</ele>
        <time>2022-05-15T08:46:57.911Z</time>
      </trkpt>
      <trkpt lat="41.81177" lon="19.6552">
        <ele>74.483248</ele>
        <time>2022-05-15T08:47:00.918Z</time>
      </trkpt>
      <trkpt lat="41.81188" lon="19.65517">
        <ele>74.269855</ele>
        <time>2022-05-15T08:47:03.912Z</time>
      </trkpt>
      <trkpt lat="41.812" lon="19.65514">
        <ele>74.035106</ele>
        <time>2022-05-15T08:47:07.914Z</time>
      </trkpt>
      <trkpt lat="41.81211" lon="19.65512">
        <ele>73.801746</ele>
        <time>2022-05-15T08:47:11.936Z</time>
      </trkpt>
      <trkpt lat="41.81223" lon="19.65509">
        <ele>73.65996</ele>
        <time>2022-05-15T08:47:15.931Z</time>
      </trkpt>
      <trkpt lat="41.81234" lon="19.65506">
        <ele>73.742846</ele>
        <time>2022-05-15T08:47:19.916Z</time>
      </trkpt>
      <trkpt lat="41.81243" lon="19.65506">
        <ele>73.811025</ele>
        <time>2022-05-15T08:47:24.911Z</time>
      </trkpt>
      <trkpt lat="41.81233" lon="19.65503">
        <ele>73.886469</ele>
        <time>2022-05-15T08:47:40.937Z</time>
      </trkpt>
      <trkpt lat="41.81223" lon="19.65506">
        <ele>73.967964</ele>
        <time>2022-05-15T08:47:44.946Z</time>
      </trkpt>
      <trkpt lat="41.81213" lon="19.65508">
        <ele>74.037894</ele>
        <time>2022-05-15T08:47:47.970Z</time>
      </trkpt>
      <trkpt lat="41.81204" lon="19.6551">
        <ele>74.106712</ele>
        <time>2022-05-15T08:47:50.939Z</time>
      </trkpt>
      <trkpt lat="41.81195" lon="19.65512">
        <ele>74.178876</ele>
        <time>2022-05-15T08:47:53.973Z</time>
      </trkpt>
      <trkpt lat="41.81185" lon="19.65515">
        <ele>74.256758</ele>
        <time>2022-05-15T08:47:56.966Z</time>
      </trkpt>
      <trkpt lat="41.81175" lon="19.65519">
        <ele>74.338174</ele>
        <time>2022-05-15T08:47:59.928Z</time>
      </trkpt>
      <trkpt lat="41.81165" lon="19.65526">
        <ele>74.41857</ele>
        <time>2022-05-15T08:48:02.940Z</time>
      </trkpt>
      <trkpt lat="41.81156" lon="19.65533">
        <ele>74.500995</ele>
        <time>2022-05-15T08:48:05.944Z</time>
      </trkpt>
      <trkpt lat="41.81146" lon="19.65541">
        <ele>74.588642</ele>
        <time>2022-05-15T08:48:08.954Z</time>
      </trkpt>
      <trkpt lat="41.81137" lon="19.65549">
        <ele>74.667787</ele>
        <time>2022-05-15T08:48:11.938Z</time>
      </trkpt>
      <trkpt lat="41.81128" lon="19.65555">
        <ele>74.745344</ele>
        <time>2022-05-15T08:48:15.950Z</time>
      </trkpt>
      <trkpt lat="41.8112" lon="19.6556">
        <ele>74.814385</ele>
        <time>2022-05-15T08:48:20.952Z</time>
      </trkpt>
      <trkpt lat="41.81111" lon="19.65565">
        <ele>74.884805</ele>
        <time>2022-05-15T08:48:24.955Z</time>
      </trkpt>
      <trkpt lat="41.81101" lon="19.65569">
        <ele>74.967669</ele>
        <time>2022-05-15T08:48:30.006Z</time>
      </trkpt>
      <trkpt lat="41.8109" lon="19.65573">
        <ele>74.504738</ele>
        <time>2022-05-15T08:48:33.930Z</time>
      </trkpt>
      <trkpt lat="41.8108" lon="19.65575">
        <ele>73.94063</ele>
        <time>2022-05-15T08:48:36.928Z</time>
      </trkpt>
      <trkpt lat="41.81071" lon="19.65576">
        <ele>73.39645</ele>
        <time>2022-05-15T08:48:39.915Z</time>
      </trkpt>
      <trkpt lat="41.81061" lon="19.65578">
        <ele>72.742928</ele>
        <time>2022-05-15T08:48:43.926Z</time>
      </trkpt>
      <trkpt lat="41.8105" lon="19.65578">
        <ele>72.076288</ele>
        <time>2022-05-15T08:48:48.944Z</time>
      </trkpt>
      <trkpt lat="41.81047" lon="19.65565">
        <ele>71.46071</ele>
        <time>2022-05-15T08:48:52.912Z</time>
      </trkpt>
      <trkpt lat="41.81044" lon="19.65549">
        <ele>70.699358</ele>
        <time>2022-05-15T08:48:55.980Z</time>
      </trkpt>
      <trkpt lat="41.81041" lon="19.65537">
        <ele>70.125835</ele>
        <time>2022-05-15T08:48:57.918Z</time>
      </trkpt>
      <trkpt lat="41.81037" lon="19.65525">
        <ele>69.567005</ele>
        <time>2022-05-15T08:48:59.912Z</time>
      </trkpt>
      <trkpt lat="41.81034" lon="19.65514">
        <ele>69.018865</ele>
        <time>2022-05-15T08:49:01.915Z</time>
      </trkpt>
      <trkpt lat="41.81032" lon="19.65501">
        <ele>68.434312</ele>
        <time>2022-05-15T08:49:03.921Z</time>
      </trkpt>
      <trkpt lat="41.81031" lon="19.65487">
        <ele>67.788785</ele>
        <time>2022-05-15T08:49:05.916Z</time>
      </trkpt>
      <trkpt lat="41.8103" lon="19.65473">
        <ele>67.164964</ele>
        <time>2022-05-15T08:49:07.925Z</time>
      </trkpt>
      <trkpt lat="41.8103" lon="19.65456">
        <ele>66.401491</ele>
        <time>2022-05-15T08:49:10.919Z</time>
      </trkpt>
      <trkpt lat="41.81029" lon="19.65444">
        <ele>65.820144</ele>
        <time>2022-05-15T08:49:13.919Z</time>
      </trkpt>
      <trkpt lat="41.81027" lon="19.65431">
        <ele>65.249509</ele>
        <time>2022-05-15T08:49:16.925Z</time>
      </trkpt>
      <trkpt lat="41.81028" lon="19.65418">
        <ele>64.662264</ele>
        <time>2022-05-15T08:49:19.913Z</time>
      </trkpt>
      <trkpt lat="41.81032" lon="19.65402">
        <ele>63.804093</ele>
        <time>2022-05-15T08:49:22.925Z</time>
      </trkpt>
      <trkpt lat="41.81036" lon="19.6539">
        <ele>62.890882</ele>
        <time>2022-05-15T08:49:24.919Z</time>
      </trkpt>
      <trkpt lat="41.8104" lon="19.65377">
        <ele>61.965972</ele>
        <time>2022-05-15T08:49:26.956Z</time>
      </trkpt>
      <trkpt lat="41.81044" lon="19.6536">
        <ele>60.798568</ele>
        <time>2022-05-15T08:49:29.921Z</time>
      </trkpt>
      <trkpt lat="41.81045" lon="19.65348">
        <ele>59.999174</ele>
        <time>2022-05-15T08:49:31.919Z</time>
      </trkpt>
      <trkpt lat="41.81045" lon="19.65336">
        <ele>59.177806</ele>
        <time>2022-05-15T08:49:33.935Z</time>
      </trkpt>
      <trkpt lat="41.81045" lon="19.65321">
        <ele>58.228598</ele>
        <time>2022-05-15T08:49:35.930Z</time>
      </trkpt>
      <trkpt lat="41.81043" lon="19.65307">
        <ele>57.249114</ele>
        <time>2022-05-15T08:49:37.937Z</time>
      </trkpt>
      <trkpt lat="41.81042" lon="19.65293">
        <ele>56.324162</ele>
        <time>2022-05-15T08:49:39.915Z</time>
      </trkpt>
      <trkpt lat="41.81041" lon="19.65279">
        <ele>55.4049</ele>
        <time>2022-05-15T08:49:41.922Z</time>
      </trkpt>
      <trkpt lat="41.81041" lon="19.65264">
        <ele>54.428645</ele>
        <time>2022-05-15T08:49:43.926Z</time>
      </trkpt>
      <trkpt lat="41.81041" lon="19.65248">
        <ele>53.388406</ele>
        <time>2022-05-15T08:49:45.929Z</time>
      </trkpt>
      <trkpt lat="41.81042" lon="19.65233">
        <ele>52.338118</ele>
        <time>2022-05-15T08:49:47.919Z</time>
      </trkpt>
      <trkpt lat="41.81043" lon="19.65219">
        <ele>51.441778</ele>
        <time>2022-05-15T08:49:49.930Z</time>
      </trkpt>
      <trkpt lat="41.81043" lon="19.65202">
        <ele>50.294664</ele>
        <time>2022-05-15T08:49:52.919Z</time>
      </trkpt>
      <trkpt lat="41.81043" lon="19.65185">
        <ele>49.16852</ele>
        <time>2022-05-15T08:49:55.924Z</time>
      </trkpt>
      <trkpt lat="41.81042" lon="19.65169">
        <ele>48.114438</ele>
        <time>2022-05-15T08:49:58.924Z</time>
      </trkpt>
      <trkpt lat="41.81042" lon="19.65153">
        <ele>47.746926</ele>
        <time>2022-05-15T08:50:01.921Z</time>
      </trkpt>
      <trkpt lat="41.81042" lon="19.6514">
        <ele>47.43618</ele>
        <time>2022-05-15T08:50:03.924Z</time>
      </trkpt>
      <trkpt lat="41.81041" lon="19.65124">
        <ele>47.064381</ele>
        <time>2022-05-15T08:50:05.922Z</time>
      </trkpt>
      <trkpt lat="41.8104" lon="19.65107">
        <ele>46.669095</ele>
        <time>2022-05-15T08:50:07.928Z</time>
      </trkpt>
      <trkpt lat="41.8104" lon="19.65091">
        <ele>46.287966</ele>
        <time>2022-05-15T08:50:09.923Z</time>
      </trkpt>
      <trkpt lat="41.81039" lon="19.65078">
        <ele>45.991225</ele>
        <time>2022-05-15T08:50:11.920Z</time>
      </trkpt>
      <trkpt lat="41.81039" lon="19.65064">
        <ele>45.654407</ele>
        <time>2022-05-15T08:50:20.923Z</time>
      </trkpt>
      <trkpt lat="41.81038" lon="19.65051">
        <ele>45.358487</ele>
        <time>2022-05-15T08:50:23.924Z</time>
      </trkpt>
      <trkpt lat="41.81037" lon="19.65036">
        <ele>45.004457</ele>
        <time>2022-05-15T08:50:26.913Z</time>
      </trkpt>
      <trkpt lat="41.81036" lon="19.65021">
        <ele>44.639278</ele>
        <time>2022-05-15T08:50:29.916Z</time>
      </trkpt>
      <trkpt lat="41.81035" lon="19.65005">
        <ele>44.264033</ele>
        <time>2022-05-15T08:50:32.922Z</time>
      </trkpt>
      <trkpt lat="41.81034" lon="19.64988">
        <ele>43.884407</ele>
        <time>2022-05-15T08:50:35.912Z</time>
      </trkpt>
      <trkpt lat="41.81033" lon="19.64973">
        <ele>43.514091</ele>
        <time>2022-05-15T08:50:38.920Z</time>
      </trkpt>
      <trkpt lat="41.81032" lon="19.64957">
        <ele>43.140868</ele>
        <time>2022-05-15T08:50:41.935Z</time>
      </trkpt>
      <trkpt lat="41.81031" lon="19.64941">
        <ele>42.773359</ele>
        <time>2022-05-15T08:50:44.916Z</time>
      </trkpt>
      <trkpt lat="41.8103" lon="19.64926">
        <ele>42.483304</ele>
        <time>2022-05-15T08:50:47.915Z</time>
      </trkpt>
      <trkpt lat="41.81029" lon="19.6491">
        <ele>42.53364</ele>
        <time>2022-05-15T08:50:50.939Z</time>
      </trkpt>
      <trkpt lat="41.81028" lon="19.64895">
        <ele>42.583644</ele>
        <time>2022-05-15T08:50:53.936Z</time>
      </trkpt>
      <trkpt lat="41.81027" lon="19.6488">
        <ele>42.634468</ele>
        <time>2022-05-15T08:50:56.913Z</time>
      </trkpt>
      <trkpt lat="41.81026" lon="19.64865">
        <ele>42.685622</ele>
        <time>2022-05-15T08:50:59.926Z</time>
      </trkpt>
      <trkpt lat="41.81025" lon="19.64849">
        <ele>42.738943</ele>
        <time>2022-05-15T08:51:02.922Z</time>
      </trkpt>
      <trkpt lat="41.81024" lon="19.64832">
        <ele>42.793988</ele>
        <time>2022-05-15T08:51:05.916Z</time>
      </trkpt>
      <trkpt lat="41.81023" lon="19.64816">
        <ele>42.848999</ele>
        <time>2022-05-15T08:51:08.922Z</time>
      </trkpt>
      <trkpt lat="41.81022" lon="19.64799">
        <ele>42.905038</ele>
        <time>2022-05-15T08:51:11.913Z</time>
      </trkpt>
      <trkpt lat="41.81021" lon="19.64783">
        <ele>42.958224</ele>
        <time>2022-05-15T08:51:14.914Z</time>
      </trkpt>
      <trkpt lat="41.8102" lon="19.64768">
        <ele>43.010418</ele>
        <time>2022-05-15T08:51:17.913Z</time>
      </trkpt>
      <trkpt lat="41.81019" lon="19.64754">
        <ele>43.056691</ele>
        <time>2022-05-15T08:51:20.918Z</time>
      </trkpt>
      <trkpt lat="41.81019" lon="19.64741">
        <ele>43.099336</ele>
        <time>2022-05-15T08:51:23.919Z</time>
      </trkpt>
      <trkpt lat="41.81018" lon="19.64726">
        <ele>43.150405</ele>
        <time>2022-05-15T08:51:26.912Z</time>
      </trkpt>
      <trkpt lat="41.81017" lon="19.6471">
        <ele>43.204125</ele>
        <time>2022-05-15T08:51:29.931Z</time>
      </trkpt>
      <trkpt lat="41.81015" lon="19.64693">
        <ele>43.258877</ele>
        <time>2022-05-15T08:51:32.926Z</time>
      </trkpt>
      <trkpt lat="41.81015" lon="19.64677">
        <ele>43.367678</ele>
        <time>2022-05-15T08:51:35.921Z</time>
      </trkpt>
      <trkpt lat="41.81014" lon="19.64662">
        <ele>43.499838</ele>
        <time>2022-05-15T08:51:38.919Z</time>
      </trkpt>
      <trkpt lat="41.81013" lon="19.64647">
        <ele>43.631138</ele>
        <time>2022-05-15T08:51:41.921Z</time>
      </trkpt>
      <trkpt lat="41.81012" lon="19.64633">
        <ele>43.751112</ele>
        <time>2022-05-15T08:51:44.916Z</time>
      </trkpt>
      <trkpt lat="41.81011" lon="19.64617">
        <ele>43.884417</ele>
        <time>2022-05-15T08:51:47.917Z</time>
      </trkpt>
      <trkpt lat="41.81011" lon="19.64602">
        <ele>44.017997</ele>
        <time>2022-05-15T08:51:50.920Z</time>
      </trkpt>
      <trkpt lat="41.8101" lon="19.64587">
        <ele>44.151016</ele>
        <time>2022-05-15T08:51:53.914Z</time>
      </trkpt>
      <trkpt lat="41.81009" lon="19.64571">
        <ele>44.287558</ele>
        <time>2022-05-15T08:51:56.916Z</time>
      </trkpt>
      <trkpt lat="41.81009" lon="19.64555">
        <ele>44.421297</ele>
        <time>2022-05-15T08:51:59.919Z</time>
      </trkpt>
      <trkpt lat="41.81008" lon="19.64539">
        <ele>44.561275</ele>
        <time>2022-05-15T08:52:02.956Z</time>
      </trkpt>
      <trkpt lat="41.81006" lon="19.64525">
        <ele>44.684699</ele>
        <time>2022-05-15T08:52:05.930Z</time>
      </trkpt>
      <trkpt lat="41.81006" lon="19.6451">
        <ele>44.813955</ele>
        <time>2022-05-15T08:52:08.929Z</time>
      </trkpt>
      <trkpt lat="41.81006" lon="19.64494">
        <ele>44.948396</ele>
        <time>2022-05-15T08:52:11.924Z</time>
      </trkpt>
      <trkpt lat="41.81006" lon="19.64479">
        <ele>45.081099</ele>
        <time>2022-05-15T08:52:14.916Z</time>
      </trkpt>
      <trkpt lat="41.81005" lon="19.64464">
        <ele>45.210768</ele>
        <time>2022-05-15T08:52:17.982Z</time>
      </trkpt>
      <trkpt lat="41.81005" lon="19.6445">
        <ele>45.333213</ele>
        <time>2022-05-15T08:52:20.912Z</time>
      </trkpt>
      <trkpt lat="41.81004" lon="19.64436">
        <ele>45.063217</ele>
        <time>2022-05-15T08:52:23.922Z</time>
      </trkpt>
      <trkpt lat="41.81004" lon="19.64423">
        <ele>44.707856</ele>
        <time>2022-05-15T08:52:26.918Z</time>
      </trkpt>
      <trkpt lat="41.81006" lon="19.64409">
        <ele>44.336553</ele>
        <time>2022-05-15T08:52:29.942Z</time>
      </trkpt>
      <trkpt lat="41.81015" lon="19.64402">
        <ele>43.965574</ele>
        <time>2022-05-15T08:52:32.910Z</time>
      </trkpt>
      <trkpt lat="41.81026" lon="19.64398">
        <ele>43.565719</ele>
        <time>2022-05-15T08:52:35.915Z</time>
      </trkpt>
      <trkpt lat="41.81038" lon="19.64394">
        <ele>43.132465</ele>
        <time>2022-05-15T08:52:38.921Z</time>
      </trkpt>
      <trkpt lat="41.8105" lon="19.64391">
        <ele>42.702104</ele>
        <time>2022-05-15T08:52:41.919Z</time>
      </trkpt>
      <trkpt lat="41.81062" lon="19.64387">
        <ele>42.260752</ele>
        <time>2022-05-15T08:52:44.911Z</time>
      </trkpt>
      <trkpt lat="41.81075" lon="19.64384">
        <ele>41.807685</ele>
        <time>2022-05-15T08:52:47.913Z</time>
      </trkpt>
      <trkpt lat="41.81083" lon="19.64381">
        <ele>41.484309</ele>
        <time>2022-05-15T08:52:49.915Z</time>
      </trkpt>
      <trkpt lat="41.81096" lon="19.64378">
        <ele>41.030189</ele>
        <time>2022-05-15T08:52:52.907Z</time>
      </trkpt>
      <trkpt lat="41.81108" lon="19.64374">
        <ele>40.57955</ele>
        <time>2022-05-15T08:52:55.923Z</time>
      </trkpt>
      <trkpt lat="41.81121" lon="19.64372">
        <ele>40.126578</ele>
        <time>2022-05-15T08:52:58.918Z</time>
      </trkpt>
      <trkpt lat="41.81134" lon="19.64369">
        <ele>39.661415</ele>
        <time>2022-05-15T08:53:01.918Z</time>
      </trkpt>
      <trkpt lat="41.81146" lon="19.64366">
        <ele>39.219328</ele>
        <time>2022-05-15T08:53:04.921Z</time>
      </trkpt>
      <trkpt lat="41.81158" lon="19.64364">
        <ele>38.991013</ele>
        <time>2022-05-15T08:53:07.919Z</time>
      </trkpt>
      <trkpt lat="41.8117" lon="19.64361">
        <ele>39.079936</ele>
        <time>2022-05-15T08:53:10.913Z</time>
      </trkpt>
      <trkpt lat="41.81182" lon="19.64359">
        <ele>39.166898</ele>
        <time>2022-05-15T08:53:13.914Z</time>
      </trkpt>
      <trkpt lat="41.81194" lon="19.64357">
        <ele>39.253345</ele>
        <time>2022-05-15T08:53:16.920Z</time>
      </trkpt>
      <trkpt lat="41.81206" lon="19.64356">
        <ele>39.339255</ele>
        <time>2022-05-15T08:53:19.915Z</time>
      </trkpt>
      <trkpt lat="41.81218" lon="19.64356">
        <ele>39.425187</ele>
        <time>2022-05-15T08:53:22.918Z</time>
      </trkpt>
      <trkpt lat="41.8123" lon="19.64355">
        <ele>39.511118</ele>
        <time>2022-05-15T08:53:25.920Z</time>
      </trkpt>
      <trkpt lat="41.81242" lon="19.64354">
        <ele>39.599174</ele>
        <time>2022-05-15T08:53:28.920Z</time>
      </trkpt>
      <trkpt lat="41.81255" lon="19.64354">
        <ele>39.690057</ele>
        <time>2022-05-15T08:53:31.932Z</time>
      </trkpt>
      <trkpt lat="41.81268" lon="19.64354">
        <ele>39.78093</ele>
        <time>2022-05-15T08:53:34.912Z</time>
      </trkpt>
      <trkpt lat="41.8128" lon="19.64354">
        <ele>39.871788</ele>
        <time>2022-05-15T08:53:37.917Z</time>
      </trkpt>
      <trkpt lat="41.81293" lon="19.64354">
        <ele>39.959071</ele>
        <time>2022-05-15T08:53:40.942Z</time>
      </trkpt>
      <trkpt lat="41.81304" lon="19.64354">
        <ele>40.041345</ele>
        <time>2022-05-15T08:53:43.924Z</time>
      </trkpt>
      <trkpt lat="41.81317" lon="19.64354">
        <ele>40.130851</ele>
        <time>2022-05-15T08:53:46.914Z</time>
      </trkpt>
      <trkpt lat="41.81329" lon="19.64355">
        <ele>40.218951</ele>
        <time>2022-05-15T08:53:49.915Z</time>
      </trkpt>
      <trkpt lat="41.81341" lon="19.64356">
        <ele>40.2119</ele>
        <time>2022-05-15T08:53:52.912Z</time>
      </trkpt>
      <trkpt lat="41.81354" lon="19.64358">
        <ele>40.157189</ele>
        <time>2022-05-15T08:53:55.915Z</time>
      </trkpt>
      <trkpt lat="41.81367" lon="19.64359">
        <ele>40.104156</ele>
        <time>2022-05-15T08:53:58.919Z</time>
      </trkpt>
      <trkpt lat="41.8138" lon="19.6436">
        <ele>40.0519</ele>
        <time>2022-05-15T08:54:01.915Z</time>
      </trkpt>
      <trkpt lat="41.81392" lon="19.64361">
        <ele>40.003371</ele>
        <time>2022-05-15T08:54:04.910Z</time>
      </trkpt>
      <trkpt lat="41.81405" lon="19.64361">
        <ele>39.950855</ele>
        <time>2022-05-15T08:54:07.921Z</time>
      </trkpt>
      <trkpt lat="41.81417" lon="19.64362">
        <ele>39.900279</ele>
        <time>2022-05-15T08:54:10.924Z</time>
      </trkpt>
      <trkpt lat="41.8143" lon="19.64362">
        <ele>39.846529</ele>
        <time>2022-05-15T08:54:13.950Z</time>
      </trkpt>
      <trkpt lat="41.81443" lon="19.6436">
        <ele>39.794603</ele>
        <time>2022-05-15T08:54:16.928Z</time>
      </trkpt>
      <trkpt lat="41.81455" lon="19.64358">
        <ele>39.741984</ele>
        <time>2022-05-15T08:54:19.919Z</time>
      </trkpt>
      <trkpt lat="41.81468" lon="19.64355">
        <ele>39.687608</ele>
        <time>2022-05-15T08:54:22.914Z</time>
      </trkpt>
      <trkpt lat="41.81477" lon="19.64352">
        <ele>39.649633</ele>
        <time>2022-05-15T08:54:24.917Z</time>
      </trkpt>
      <trkpt lat="41.81487" lon="19.64349">
        <ele>39.61014</ele>
        <time>2022-05-15T08:54:26.921Z</time>
      </trkpt>
      <trkpt lat="41.81496" lon="19.64345">
        <ele>39.569861</ele>
        <time>2022-05-15T08:54:28.918Z</time>
      </trkpt>
      <trkpt lat="41.81505" lon="19.64341">
        <ele>39.53085</ele>
        <time>2022-05-15T08:54:30.927Z</time>
      </trkpt>
      <trkpt lat="41.81514" lon="19.64337">
        <ele>39.517117</ele>
        <time>2022-05-15T08:54:32.939Z</time>
      </trkpt>
      <trkpt lat="41.81523" lon="19.64334">
        <ele>39.53684</ele>
        <time>2022-05-15T08:54:34.922Z</time>
      </trkpt>
      <trkpt lat="41.81533" lon="19.64332">
        <ele>39.556748</ele>
        <time>2022-05-15T08:54:36.923Z</time>
      </trkpt>
      <trkpt lat="41.81542" lon="19.64332">
        <ele>39.576671</ele>
        <time>2022-05-15T08:54:38.922Z</time>
      </trkpt>
      <trkpt lat="41.81555" lon="19.64336">
        <ele>39.604176</ele>
        <time>2022-05-15T08:54:41.919Z</time>
      </trkpt>
      <trkpt lat="41.81566" lon="19.64341">
        <ele>39.629575</ele>
        <time>2022-05-15T08:54:44.911Z</time>
      </trkpt>
      <trkpt lat="41.81575" lon="19.64346">
        <ele>39.648972</ele>
        <time>2022-05-15T08:54:46.923Z</time>
      </trkpt>
      <trkpt lat="41.81586" lon="19.64354">
        <ele>39.675768</ele>
        <time>2022-05-15T08:54:49.913Z</time>
      </trkpt>
      <trkpt lat="41.81596" lon="19.64363">
        <ele>39.701381</ele>
        <time>2022-05-15T08:54:52.926Z</time>
      </trkpt>
      <trkpt lat="41.81605" lon="19.64369">
        <ele>39.721115</ele>
        <time>2022-05-15T08:54:54.944Z</time>
      </trkpt>
      <trkpt lat="41.81614" lon="19.64373">
        <ele>39.742437</ele>
        <time>2022-05-15T08:54:56.919Z</time>
      </trkpt>
      <trkpt lat="41.81625" lon="19.64374">
        <ele>39.763859</ele>
        <time>2022-05-15T08:54:58.924Z</time>
      </trkpt>
      <trkpt lat="41.81634" lon="19.64374">
        <ele>39.784618</ele>
        <time>2022-05-15T08:55:00.914Z</time>
      </trkpt>
      <trkpt lat="41.81644" lon="19.64374">
        <ele>39.803697</ele>
        <time>2022-05-15T08:55:02.923Z</time>
      </trkpt>
      <trkpt lat="41.81656" lon="19.64373">
        <ele>39.830131</ele>
        <time>2022-05-15T08:55:05.918Z</time>
      </trkpt>
      <trkpt lat="41.81668" lon="19.64372">
        <ele>39.854327</ele>
        <time>2022-05-15T08:55:08.917Z</time>
      </trkpt>
      <trkpt lat="41.8168" lon="19.64371">
        <ele>39.880355</ele>
        <time>2022-05-15T08:55:11.924Z</time>
      </trkpt>
      <trkpt lat="41.81693" lon="19.6437">
        <ele>39.851395</ele>
        <time>2022-05-15T08:55:14.911Z</time>
      </trkpt>
      <trkpt lat="41.81705" lon="19.64369">
        <ele>39.810697</ele>
        <time>2022-05-15T08:55:17.930Z</time>
      </trkpt>
      <trkpt lat="41.81717" lon="19.64368">
        <ele>39.769654</ele>
        <time>2022-05-15T08:55:20.916Z</time>
      </trkpt>
      <trkpt lat="41.81729" lon="19.64368">
        <ele>39.729671</ele>
        <time>2022-05-15T08:55:23.932Z</time>
      </trkpt>
      <trkpt lat="41.81741" lon="19.64369">
        <ele>39.690009</ele>
        <time>2022-05-15T08:55:26.947Z</time>
      </trkpt>
      <trkpt lat="41.81753" lon="19.64369">
        <ele>39.650693</ele>
        <time>2022-05-15T08:55:29.928Z</time>
      </trkpt>
      <trkpt lat="41.81764" lon="19.6437">
        <ele>39.615332</ele>
        <time>2022-05-15T08:55:32.942Z</time>
      </trkpt>
      <trkpt lat="41.81775" lon="19.64369">
        <ele>39.578014</ele>
        <time>2022-05-15T08:55:35.931Z</time>
      </trkpt>
      <trkpt lat="41.81786" lon="19.64368">
        <ele>39.541199</ele>
        <time>2022-05-15T08:55:38.919Z</time>
      </trkpt>
      <trkpt lat="41.81797" lon="19.64366">
        <ele>39.503519</ele>
        <time>2022-05-15T08:55:41.930Z</time>
      </trkpt>
      <trkpt lat="41.81807" lon="19.64362">
        <ele>39.468998</ele>
        <time>2022-05-15T08:55:44.921Z</time>
      </trkpt>
      <trkpt lat="41.81817" lon="19.64359">
        <ele>39.433095</ele>
        <time>2022-05-15T08:55:48.917Z</time>
      </trkpt>
      <trkpt lat="41.81827" lon="19.64358">
        <ele>39.402245</ele>
        <time>2022-05-15T08:55:51.922Z</time>
      </trkpt>
      <trkpt lat="41.81837" lon="19.64356">
        <ele>39.368958</ele>
        <time>2022-05-15T08:55:54.913Z</time>
      </trkpt>
      <trkpt lat="41.81847" lon="19.64355">
        <ele>39.334863</ele>
        <time>2022-05-15T08:55:57.914Z</time>
      </trkpt>
      <trkpt lat="41.81857" lon="19.64352">
        <ele>39.298607</ele>
        <time>2022-05-15T08:56:00.935Z</time>
      </trkpt>
      <trkpt lat="41.81869" lon="19.6435">
        <ele>39.411105</ele>
        <time>2022-05-15T08:56:03.916Z</time>
      </trkpt>
      <trkpt lat="41.81881" lon="19.64349">
        <ele>39.608163</ele>
        <time>2022-05-15T08:56:06.920Z</time>
      </trkpt>
      <trkpt lat="41.81892" lon="19.64347">
        <ele>39.791451</ele>
        <time>2022-05-15T08:56:09.933Z</time>
      </trkpt>
      <trkpt lat="41.81903" lon="19.64344">
        <ele>39.976122</ele>
        <time>2022-05-15T08:56:13.917Z</time>
      </trkpt>
      <trkpt lat="41.81912" lon="19.64339">
        <ele>40.141454</ele>
        <time>2022-05-15T08:56:17.942Z</time>
      </trkpt>
      <trkpt lat="41.81922" lon="19.64335">
        <ele>40.313151</ele>
        <time>2022-05-15T08:56:20.920Z</time>
      </trkpt>
      <trkpt lat="41.81933" lon="19.64332">
        <ele>40.496686</ele>
        <time>2022-05-15T08:56:23.931Z</time>
      </trkpt>
      <trkpt lat="41.81944" lon="19.6433">
        <ele>40.674784</ele>
        <time>2022-05-15T08:56:26.926Z</time>
      </trkpt>
      <trkpt lat="41.81955" lon="19.64328">
        <ele>40.860705</ele>
        <time>2022-05-15T08:56:29.914Z</time>
      </trkpt>
      <trkpt lat="41.81966" lon="19.64327">
        <ele>41.042887</ele>
        <time>2022-05-15T08:56:32.920Z</time>
      </trkpt>
      <trkpt lat="41.81978" lon="19.64324">
        <ele>41.226531</ele>
        <time>2022-05-15T08:56:35.925Z</time>
      </trkpt>
      <trkpt lat="41.81988" lon="19.64323">
        <ele>41.394058</ele>
        <time>2022-05-15T08:56:38.942Z</time>
      </trkpt>
      <trkpt lat="41.81998" lon="19.6432">
        <ele>41.559263</ele>
        <time>2022-05-15T08:56:42.919Z</time>
      </trkpt>
      <trkpt lat="41.81998" lon="19.64305">
        <ele>41.739634</ele>
        <time>2022-05-15T08:56:47.913Z</time>
      </trkpt>
      <trkpt lat="41.81997" lon="19.64292">
        <ele>41.900687</ele>
        <time>2022-05-15T08:56:50.918Z</time>
      </trkpt>
      <trkpt lat="41.81997" lon="19.64278">
        <ele>42.06897</ele>
        <time>2022-05-15T08:56:53.918Z</time>
      </trkpt>
      <trkpt lat="41.81996" lon="19.64265">
        <ele>42.23311</ele>
        <time>2022-05-15T08:56:56.912Z</time>
      </trkpt>
      <trkpt lat="41.81996" lon="19.64249">
        <ele>42.448484</ele>
        <time>2022-05-15T08:57:00.943Z</time>
      </trkpt>
      <trkpt lat="41.81997" lon="19.64237">
        <ele>42.611977</ele>
        <time>2022-05-15T08:57:03.919Z</time>
      </trkpt>
      <trkpt lat="41.81998" lon="19.64222">
        <ele>42.806199</ele>
        <time>2022-05-15T08:57:07.912Z</time>
      </trkpt>
      <trkpt lat="41.82003" lon="19.64212">
        <ele>42.974661</ele>
        <time>2022-05-15T08:57:12.906Z</time>
      </trkpt>
      <trkpt lat="41.82014" lon="19.64215">
        <ele>43.178889</ele>
        <time>2022-05-15T08:57:16.949Z</time>
      </trkpt>
      <trkpt lat="41.82024" lon="19.64217">
        <ele>43.369246</ele>
        <time>2022-05-15T08:57:20.917Z</time>
      </trkpt>
      <trkpt lat="41.82035" lon="19.6422">
        <ele>43.561359</ele>
        <time>2022-05-15T08:57:24.923Z</time>
      </trkpt>
      <trkpt lat="41.82044" lon="19.64222">
        <ele>43.724558</ele>
        <time>2022-05-15T08:57:27.925Z</time>
      </trkpt>
      <trkpt lat="41.82053" lon="19.64225">
        <ele>43.894929</ele>
        <time>2022-05-15T08:57:30.920Z</time>
      </trkpt>
      <trkpt lat="41.82063" lon="19.64228">
        <ele>44.082689</ele>
        <time>2022-05-15T08:57:33.919Z</time>
      </trkpt>
      <trkpt lat="41.82073" lon="19.6423">
        <ele>44.259831</ele>
        <time>2022-05-15T08:57:36.915Z</time>
      </trkpt>
      <trkpt lat="41.82082" lon="19.64233">
        <ele>44.439505</ele>
        <time>2022-05-15T08:57:39.914Z</time>
      </trkpt>
      <trkpt lat="41.82093" lon="19.64235">
        <ele>44.63443</ele>
        <time>2022-05-15T08:57:42.943Z</time>
      </trkpt>
      <trkpt lat="41.82103" lon="19.64236">
        <ele>44.814856</ele>
        <time>2022-05-15T08:57:45.917Z</time>
      </trkpt>
      <trkpt lat="41.82113" lon="19.64238">
        <ele>44.999896</ele>
        <time>2022-05-15T08:57:48.925Z</time>
      </trkpt>
      <trkpt lat="41.82124" lon="19.64239">
        <ele>45.199577</ele>
        <time>2022-05-15T08:57:51.922Z</time>
      </trkpt>
      <trkpt lat="41.82135" lon="19.6424">
        <ele>45.389511</ele>
        <time>2022-05-15T08:57:54.929Z</time>
      </trkpt>
      <trkpt lat="41.82145" lon="19.6424">
        <ele>45.43927</ele>
        <time>2022-05-15T08:57:57.920Z</time>
      </trkpt>
      <trkpt lat="41.82155" lon="19.6424">
        <ele>45.373086</ele>
        <time>2022-05-15T08:58:00.912Z</time>
      </trkpt>
      <trkpt lat="41.82166" lon="19.64239">
        <ele>45.307559</ele>
        <time>2022-05-15T08:58:03.920Z</time>
      </trkpt>
      <trkpt lat="41.82177" lon="19.64238">
        <ele>45.235282</ele>
        <time>2022-05-15T08:58:06.920Z</time>
      </trkpt>
      <trkpt lat="41.82188" lon="19.64236">
        <ele>45.164001</ele>
        <time>2022-05-15T08:58:09.915Z</time>
      </trkpt>
      <trkpt lat="41.82199" lon="19.64233">
        <ele>45.092014</ele>
        <time>2022-05-15T08:58:12.915Z</time>
      </trkpt>
      <trkpt lat="41.82211" lon="19.64229">
        <ele>45.011903</ele>
        <time>2022-05-15T08:58:15.915Z</time>
      </trkpt>
      <trkpt lat="41.82223" lon="19.64225">
        <ele>44.933631</ele>
        <time>2022-05-15T08:58:18.923Z</time>
      </trkpt>
      <trkpt lat="41.82235" lon="19.64221">
        <ele>44.854617</ele>
        <time>2022-05-15T08:58:21.913Z</time>
      </trkpt>
      <trkpt lat="41.82247" lon="19.64216">
        <ele>44.772703</ele>
        <time>2022-05-15T08:58:24.917Z</time>
      </trkpt>
      <trkpt lat="41.82259" lon="19.64211">
        <ele>44.689421</ele>
        <time>2022-05-15T08:58:27.918Z</time>
      </trkpt>
      <trkpt lat="41.82271" lon="19.64206">
        <ele>44.612406</ele>
        <time>2022-05-15T08:58:30.926Z</time>
      </trkpt>
      <trkpt lat="41.82282" lon="19.64201">
        <ele>44.53521</ele>
        <time>2022-05-15T08:58:33.942Z</time>
      </trkpt>
      <trkpt lat="41.82294" lon="19.64196">
        <ele>44.4585</ele>
        <time>2022-05-15T08:58:36.914Z</time>
      </trkpt>
      <trkpt lat="41.82305" lon="19.64191">
        <ele>44.382672</ele>
        <time>2022-05-15T08:58:39.919Z</time>
      </trkpt>
      <trkpt lat="41.82316" lon="19.64187">
        <ele>44.370367</ele>
        <time>2022-05-15T08:58:42.915Z</time>
      </trkpt>
      <trkpt lat="41.82325" lon="19.64183">
        <ele>44.65872</ele>
        <time>2022-05-15T08:58:45.920Z</time>
      </trkpt>
      <trkpt lat="41.82335" lon="19.64179">
        <ele>44.946334</ele>
        <time>2022-05-15T08:58:48.927Z</time>
      </trkpt>
      <trkpt lat="41.82344" lon="19.64174">
        <ele>45.247731</ele>
        <time>2022-05-15T08:58:51.915Z</time>
      </trkpt>
      <trkpt lat="41.82355" lon="19.64169">
        <ele>45.560768</ele>
        <time>2022-05-15T08:58:54.911Z</time>
      </trkpt>
      <trkpt lat="41.82364" lon="19.64164">
        <ele>45.859785</ele>
        <time>2022-05-15T08:58:57.914Z</time>
      </trkpt>
      <trkpt lat="41.82374" lon="19.64159">
        <ele>46.161182</ele>
        <time>2022-05-15T08:59:00.914Z</time>
      </trkpt>
      <trkpt lat="41.82385" lon="19.64153">
        <ele>46.497029</ele>
        <time>2022-05-15T08:59:03.918Z</time>
      </trkpt>
      <trkpt lat="41.82396" lon="19.64147">
        <ele>46.840908</ele>
        <time>2022-05-15T08:59:06.915Z</time>
      </trkpt>
      <trkpt lat="41.82408" lon="19.6414">
        <ele>47.234857</ele>
        <time>2022-05-15T08:59:09.916Z</time>
      </trkpt>
      <trkpt lat="41.8242" lon="19.64133">
        <ele>47.620838</ele>
        <time>2022-05-15T08:59:12.944Z</time>
      </trkpt>
      <trkpt lat="41.82429" lon="19.64128">
        <ele>47.888757</ele>
        <time>2022-05-15T08:59:14.916Z</time>
      </trkpt>
      <trkpt lat="41.82437" lon="19.64123">
        <ele>48.153132</ele>
        <time>2022-05-15T08:59:16.915Z</time>
      </trkpt>
      <trkpt lat="41.82446" lon="19.64118">
        <ele>48.418392</ele>
        <time>2022-05-15T08:59:18.919Z</time>
      </trkpt>
      <trkpt lat="41.82454" lon="19.64113">
        <ele>48.685403</ele>
        <time>2022-05-15T08:59:20.911Z</time>
      </trkpt>
      <trkpt lat="41.82467" lon="19.64105">
        <ele>49.089897</ele>
        <time>2022-05-15T08:59:23.955Z</time>
      </trkpt>
      <trkpt lat="41.82477" lon="19.641">
        <ele>49.394863</ele>
        <time>2022-05-15T08:59:25.923Z</time>
      </trkpt>
      <trkpt lat="41.82487" lon="19.64094">
        <ele>49.211782</ele>
        <time>2022-05-15T08:59:27.924Z</time>
      </trkpt>
      <trkpt lat="41.82497" lon="19.64087">
        <ele>48.655992</ele>
        <time>2022-05-15T08:59:29.923Z</time>
      </trkpt>
      <trkpt lat="41.82506" lon="19.64081">
        <ele>48.1546</ele>
        <time>2022-05-15T08:59:31.920Z</time>
      </trkpt>
      <trkpt lat="41.82518" lon="19.64074">
        <ele>47.497514</ele>
        <time>2022-05-15T08:59:34.921Z</time>
      </trkpt>
      <trkpt lat="41.8253" lon="19.64066">
        <ele>46.83702</ele>
        <time>2022-05-15T08:59:37.919Z</time>
      </trkpt>
      <trkpt lat="41.82539" lon="19.6406">
        <ele>46.384053</ele>
        <time>2022-05-15T08:59:39.943Z</time>
      </trkpt>
      <trkpt lat="41.82547" lon="19.64055">
        <ele>45.917571</ele>
        <time>2022-05-15T08:59:41.918Z</time>
      </trkpt>
      <trkpt lat="41.82556" lon="19.64049">
        <ele>45.4315</ele>
        <time>2022-05-15T08:59:43.922Z</time>
      </trkpt>
      <trkpt lat="41.82565" lon="19.64044">
        <ele>44.973839</ele>
        <time>2022-05-15T08:59:45.923Z</time>
      </trkpt>
      <trkpt lat="41.82573" lon="19.64038">
        <ele>44.511773</ele>
        <time>2022-05-15T08:59:47.930Z</time>
      </trkpt>
      <trkpt lat="41.82582" lon="19.64032">
        <ele>44.04371</ele>
        <time>2022-05-15T08:59:49.920Z</time>
      </trkpt>
      <trkpt lat="41.8259" lon="19.64027">
        <ele>43.581644</ele>
        <time>2022-05-15T08:59:51.929Z</time>
      </trkpt>
      <trkpt lat="41.82599" lon="19.64021">
        <ele>43.120737</ele>
        <time>2022-05-15T08:59:53.920Z</time>
      </trkpt>
      <trkpt lat="41.82611" lon="19.64014">
        <ele>42.469431</ele>
        <time>2022-05-15T08:59:56.915Z</time>
      </trkpt>
      <trkpt lat="41.82622" lon="19.64006">
        <ele>41.843614</ele>
        <time>2022-05-15T08:59:59.924Z</time>
      </trkpt>
      <trkpt lat="41.82634" lon="19.64">
        <ele>41.225234</ele>
        <time>2022-05-15T09:00:02.951Z</time>
      </trkpt>
      <trkpt lat="41.82645" lon="19.63992">
        <ele>40.710582</ele>
        <time>2022-05-15T09:00:05.935Z</time>
      </trkpt>
      <trkpt lat="41.82657" lon="19.63985">
        <ele>40.651893</ele>
        <time>2022-05-15T09:00:08.921Z</time>
      </trkpt>
      <trkpt lat="41.82669" lon="19.63977">
        <ele>40.591697</ele>
        <time>2022-05-15T09:00:11.923Z</time>
      </trkpt>
      <trkpt lat="41.82681" lon="19.6397">
        <ele>40.531914</ele>
        <time>2022-05-15T09:00:14.917Z</time>
      </trkpt>
      <trkpt lat="41.8269" lon="19.63965">
        <ele>40.491038</ele>
        <time>2022-05-15T09:00:16.916Z</time>
      </trkpt>
      <trkpt lat="41.82702" lon="19.63959">
        <ele>40.431772</ele>
        <time>2022-05-15T09:00:19.924Z</time>
      </trkpt>
      <trkpt lat="41.82713" lon="19.63952">
        <ele>40.373509</ele>
        <time>2022-05-15T09:00:22.919Z</time>
      </trkpt>
      <trkpt lat="41.82725" lon="19.63945">
        <ele>40.315921</ele>
        <time>2022-05-15T09:00:25.929Z</time>
      </trkpt>
      <trkpt lat="41.82737" lon="19.63939">
        <ele>40.255878</ele>
        <time>2022-05-15T09:00:28.919Z</time>
      </trkpt>
      <trkpt lat="41.8275" lon="19.63932">
        <ele>40.195595</ele>
        <time>2022-05-15T09:00:31.925Z</time>
      </trkpt>
      <trkpt lat="41.82762" lon="19.63927">
        <ele>40.135692</ele>
        <time>2022-05-15T09:00:34.941Z</time>
      </trkpt>
      <trkpt lat="41.82771" lon="19.63923">
        <ele>40.094281</ele>
        <time>2022-05-15T09:00:36.919Z</time>
      </trkpt>
      <trkpt lat="41.8278" lon="19.6392">
        <ele>40.053259</ele>
        <time>2022-05-15T09:00:38.923Z</time>
      </trkpt>
      <trkpt lat="41.82789" lon="19.63916">
        <ele>40.011515</ele>
        <time>2022-05-15T09:00:40.960Z</time>
      </trkpt>
      <trkpt lat="41.82797" lon="19.63913">
        <ele>39.970303</ele>
        <time>2022-05-15T09:00:42.916Z</time>
      </trkpt>
      <trkpt lat="41.82806" lon="19.63909">
        <ele>39.929092</ele>
        <time>2022-05-15T09:00:44.919Z</time>
      </trkpt>
      <trkpt lat="41.82815" lon="19.63906">
        <ele>39.980762</ele>
        <time>2022-05-15T09:00:46.917Z</time>
      </trkpt>
      <trkpt lat="41.82824" lon="19.63902">
        <ele>40.146839</ele>
        <time>2022-05-15T09:00:48.932Z</time>
      </trkpt>
      <trkpt lat="41.82836" lon="19.63898">
        <ele>40.387003</ele>
        <time>2022-05-15T09:00:51.951Z</time>
      </trkpt>
      <trkpt lat="41.82849" lon="19.63893">
        <ele>40.626455</ele>
        <time>2022-05-15T09:00:54.920Z</time>
      </trkpt>
      <trkpt lat="41.82861" lon="19.63888">
        <ele>40.861405</ele>
        <time>2022-05-15T09:00:57.939Z</time>
      </trkpt>
      <trkpt lat="41.82873" lon="19.63883">
        <ele>41.091026</ele>
        <time>2022-05-15T09:01:00.919Z</time>
      </trkpt>
      <trkpt lat="41.82886" lon="19.63879">
        <ele>41.326955</ele>
        <time>2022-05-15T09:01:03.924Z</time>
      </trkpt>
      <trkpt lat="41.82895" lon="19.63877">
        <ele>41.492767</ele>
        <time>2022-05-15T09:01:05.926Z</time>
      </trkpt>
      <trkpt lat="41.82904" lon="19.63876">
        <ele>41.659412</ele>
        <time>2022-05-15T09:01:07.937Z</time>
      </trkpt>
      <trkpt lat="41.82918" lon="19.63876">
        <ele>41.910274</ele>
        <time>2022-05-15T09:01:10.938Z</time>
      </trkpt>
      <trkpt lat="41.82927" lon="19.63874">
        <ele>42.07587</ele>
        <time>2022-05-15T09:01:12.919Z</time>
      </trkpt>
      <trkpt lat="41.82936" lon="19.63872">
        <ele>42.239082</ele>
        <time>2022-05-15T09:01:14.911Z</time>
      </trkpt>
      <trkpt lat="41.82949" lon="19.6387">
        <ele>42.476767</ele>
        <time>2022-05-15T09:01:17.912Z</time>
      </trkpt>
      <trkpt lat="41.8296" lon="19.63868">
        <ele>42.6881</ele>
        <time>2022-05-15T09:01:20.919Z</time>
      </trkpt>
      <trkpt lat="41.82971" lon="19.63867">
        <ele>42.87399</ele>
        <time>2022-05-15T09:01:23.935Z</time>
      </trkpt>
      <trkpt lat="41.82981" lon="19.63866">
        <ele>43.056073</ele>
        <time>2022-05-15T09:01:28.919Z</time>
      </trkpt>
      <trkpt lat="41.82991" lon="19.63865">
        <ele>43.161031</ele>
        <time>2022-05-15T09:01:34.925Z</time>
      </trkpt>
      <trkpt lat="41.83" lon="19.63862">
        <ele>43.126688</ele>
        <time>2022-05-15T09:01:38.920Z</time>
      </trkpt>
      <trkpt lat="41.82992" lon="19.63856">
        <ele>43.090509</ele>
        <time>2022-05-15T09:01:44.941Z</time>
      </trkpt>
      <trkpt lat="41.82982" lon="19.63857">
        <ele>43.054813</ele>
        <time>2022-05-15T09:01:47.941Z</time>
      </trkpt>
      <trkpt lat="41.82971" lon="19.63859">
        <ele>43.015946</ele>
        <time>2022-05-15T09:01:50.954Z</time>
      </trkpt>
      <trkpt lat="41.82961" lon="19.63861">
        <ele>42.977154</ele>
        <time>2022-05-15T09:01:53.946Z</time>
      </trkpt>
      <trkpt lat="41.82949" lon="19.63863">
        <ele>42.935696</ele>
        <time>2022-05-15T09:01:56.976Z</time>
      </trkpt>
      <trkpt lat="41.82938" lon="19.63866">
        <ele>42.894596</ele>
        <time>2022-05-15T09:01:59.942Z</time>
      </trkpt>
      <trkpt lat="41.82926" lon="19.63867">
        <ele>42.852297</ele>
        <time>2022-05-15T09:02:02.938Z</time>
      </trkpt>
      <trkpt lat="41.82915" lon="19.63863">
        <ele>42.809204</ele>
        <time>2022-05-15T09:02:05.942Z</time>
      </trkpt>
      <trkpt lat="41.82907" lon="19.63851">
        <ele>42.764739</ele>
        <time>2022-05-15T09:02:09.000Z</time>
      </trkpt>
      <trkpt lat="41.82905" lon="19.63833">
        <ele>42.716829</ele>
        <time>2022-05-15T09:02:11.934Z</time>
      </trkpt>
      <trkpt lat="41.82908" lon="19.63818">
        <ele>42.674681</ele>
        <time>2022-05-15T09:02:14.994Z</time>
      </trkpt>
      <trkpt lat="41.82916" lon="19.63809">
        <ele>42.637266</ele>
        <time>2022-05-15T09:02:17.941Z</time>
      </trkpt>
      <trkpt lat="41.82925" lon="19.63802">
        <ele>42.599571</ele>
        <time>2022-05-15T09:02:20.958Z</time>
      </trkpt>
      <trkpt lat="41.82934" lon="19.63795">
        <ele>42.56305</ele>
        <time>2022-05-15T09:02:23.962Z</time>
      </trkpt>
      <trkpt lat="41.82943" lon="19.63788">
        <ele>42.523419</ele>
        <time>2022-05-15T09:02:26.928Z</time>
      </trkpt>
      <trkpt lat="41.82953" lon="19.63781">
        <ele>42.472127</ele>
        <time>2022-05-15T09:02:29.918Z</time>
      </trkpt>
      <trkpt lat="41.82963" lon="19.63774">
        <ele>42.421185</ele>
        <time>2022-05-15T09:02:32.919Z</time>
      </trkpt>
      <trkpt lat="41.82973" lon="19.63767">
        <ele>42.369366</ele>
        <time>2022-05-15T09:02:35.914Z</time>
      </trkpt>
      <trkpt lat="41.82983" lon="19.63761">
        <ele>42.316766</ele>
        <time>2022-05-15T09:02:38.917Z</time>
      </trkpt>
      <trkpt lat="41.82993" lon="19.63755">
        <ele>42.266003</ele>
        <time>2022-05-15T09:02:41.914Z</time>
      </trkpt>
      <trkpt lat="41.83002" lon="19.63749">
        <ele>42.219728</ele>
        <time>2022-05-15T09:02:44.920Z</time>
      </trkpt>
      <trkpt lat="41.83011" lon="19.63743">
        <ele>42.173568</ele>
        <time>2022-05-15T09:02:47.918Z</time>
      </trkpt>
      <trkpt lat="41.83021" lon="19.63737">
        <ele>42.123649</ele>
        <time>2022-05-15T09:02:50.915Z</time>
      </trkpt>
      <trkpt lat="41.83031" lon="19.63731">
        <ele>42.073423</ele>
        <time>2022-05-15T09:02:53.934Z</time>
      </trkpt>
      <trkpt lat="41.83042" lon="19.63725">
        <ele>42.020134</ele>
        <time>2022-05-15T09:02:56.933Z</time>
      </trkpt>
      <trkpt lat="41.83052" lon="19.63718">
        <ele>41.967682</ele>
        <time>2022-05-15T09:02:59.919Z</time>
      </trkpt>
      <trkpt lat="41.83063" lon="19.63712">
        <ele>41.912853</ele>
        <time>2022-05-15T09:03:02.919Z</time>
      </trkpt>
      <trkpt lat="41.83073" lon="19.63704">
        <ele>41.857691</ele>
        <time>2022-05-15T09:03:05.916Z</time>
      </trkpt>
      <trkpt lat="41.83084" lon="19.63698">
        <ele>41.80679</ele>
        <time>2022-05-15T09:03:08.918Z</time>
      </trkpt>
      <trkpt lat="41.83093" lon="19.63693">
        <ele>41.758967</ele>
        <time>2022-05-15T09:03:11.915Z</time>
      </trkpt>
      <trkpt lat="41.83102" lon="19.63686">
        <ele>41.711936</ele>
        <time>2022-05-15T09:03:14.920Z</time>
      </trkpt>
      <trkpt lat="41.83111" lon="19.6368">
        <ele>41.810357</ele>
        <time>2022-05-15T09:03:17.921Z</time>
      </trkpt>
      <trkpt lat="41.8312" lon="19.63674">
        <ele>42.001218</ele>
        <time>2022-05-15T09:03:20.923Z</time>
      </trkpt>
      <trkpt lat="41.83129" lon="19.63666">
        <ele>42.187143</ele>
        <time>2022-05-15T09:03:23.947Z</time>
      </trkpt>
      <trkpt lat="41.83138" lon="19.6366">
        <ele>42.380862</ele>
        <time>2022-05-15T09:03:26.924Z</time>
      </trkpt>
      <trkpt lat="41.83148" lon="19.63652">
        <ele>42.583817</ele>
        <time>2022-05-15T09:03:29.915Z</time>
      </trkpt>
      <trkpt lat="41.83157" lon="19.63645">
        <ele>42.793622</ele>
        <time>2022-05-15T09:03:32.934Z</time>
      </trkpt>
      <trkpt lat="41.83167" lon="19.63637">
        <ele>42.992449</ele>
        <time>2022-05-15T09:03:35.916Z</time>
      </trkpt>
      <trkpt lat="41.83175" lon="19.63629">
        <ele>43.182058</ele>
        <time>2022-05-15T09:03:38.925Z</time>
      </trkpt>
      <trkpt lat="41.83183" lon="19.63621">
        <ele>43.369098</ele>
        <time>2022-05-15T09:03:41.921Z</time>
      </trkpt>
      <trkpt lat="41.83191" lon="19.63612">
        <ele>43.559281</ele>
        <time>2022-05-15T09:03:44.915Z</time>
      </trkpt>
      <trkpt lat="41.832" lon="19.63603">
        <ele>43.760674</ele>
        <time>2022-05-15T09:03:47.914Z</time>
      </trkpt>
      <trkpt lat="41.83209" lon="19.63591">
        <ele>43.991043</ele>
        <time>2022-05-15T09:03:50.960Z</time>
      </trkpt>
      <trkpt lat="41.83218" lon="19.63579">
        <ele>44.228864</ele>
        <time>2022-05-15T09:03:53.920Z</time>
      </trkpt>
      <trkpt lat="41.83227" lon="19.63568">
        <ele>44.449806</ele>
        <time>2022-05-15T09:03:56.919Z</time>
      </trkpt>
      <trkpt lat="41.83236" lon="19.63559">
        <ele>44.661893</ele>
        <time>2022-05-15T09:03:59.920Z</time>
      </trkpt>
      <trkpt lat="41.83246" lon="19.63558">
        <ele>44.859096</ele>
        <time>2022-05-15T09:04:02.918Z</time>
      </trkpt>
      <trkpt lat="41.83255" lon="19.63568">
        <ele>45.000272</ele>
        <time>2022-05-15T09:04:05.942Z</time>
      </trkpt>
      <trkpt lat="41.83263" lon="19.6358">
        <ele>44.98095</ele>
        <time>2022-05-15T09:04:08.972Z</time>
      </trkpt>
      <trkpt lat="41.83272" lon="19.63593">
        <ele>44.960382</ele>
        <time>2022-05-15T09:04:11.936Z</time>
      </trkpt>
      <trkpt lat="41.8328" lon="19.63607">
        <ele>44.93918</ele>
        <time>2022-05-15T09:04:14.918Z</time>
      </trkpt>
      <trkpt lat="41.83289" lon="19.63619">
        <ele>44.919251</ele>
        <time>2022-05-15T09:04:17.916Z</time>
      </trkpt>
      <trkpt lat="41.83297" lon="19.63631">
        <ele>44.898994</ele>
        <time>2022-05-15T09:04:20.918Z</time>
      </trkpt>
      <trkpt lat="41.83306" lon="19.63644">
        <ele>44.878907</ele>
        <time>2022-05-15T09:04:23.932Z</time>
      </trkpt>
      <trkpt lat="41.83314" lon="19.63657">
        <ele>44.858142</ele>
        <time>2022-05-15T09:04:26.926Z</time>
      </trkpt>
      <trkpt lat="41.83323" lon="19.63669">
        <ele>44.837972</ele>
        <time>2022-05-15T09:04:29.916Z</time>
      </trkpt>
      <trkpt lat="41.83331" lon="19.63681">
        <ele>44.818544</ele>
        <time>2022-05-15T09:04:32.912Z</time>
      </trkpt>
      <trkpt lat="41.8334" lon="19.63694">
        <ele>44.797457</ele>
        <time>2022-05-15T09:04:35.912Z</time>
      </trkpt>
      <trkpt lat="41.83349" lon="19.63707">
        <ele>44.775978</ele>
        <time>2022-05-15T09:04:38.921Z</time>
      </trkpt>
      <trkpt lat="41.83356" lon="19.63716">
        <ele>44.760521</ele>
        <time>2022-05-15T09:04:40.915Z</time>
      </trkpt>
      <trkpt lat="41.83364" lon="19.63723">
        <ele>44.745745</ele>
        <time>2022-05-15T09:04:42.933Z</time>
      </trkpt>
      <trkpt lat="41.83376" lon="19.63729">
        <ele>44.724725</ele>
        <time>2022-05-15T09:04:45.934Z</time>
      </trkpt>
      <trkpt lat="41.83389" lon="19.6373">
        <ele>44.489155</ele>
        <time>2022-05-15T09:04:48.925Z</time>
      </trkpt>
      <trkpt lat="41.834" lon="19.63725">
        <ele>44.162946</ele>
        <time>2022-05-15T09:04:51.916Z</time>
      </trkpt>
      <trkpt lat="41.8341" lon="19.63718">
        <ele>43.826771</ele>
        <time>2022-05-15T09:04:54.928Z</time>
      </trkpt>
      <trkpt lat="41.83421" lon="19.63709">
        <ele>43.476522</ele>
        <time>2022-05-15T09:04:57.920Z</time>
      </trkpt>
      <trkpt lat="41.83432" lon="19.637">
        <ele>43.123674</ele>
        <time>2022-05-15T09:05:00.918Z</time>
      </trkpt>
      <trkpt lat="41.83444" lon="19.63691">
        <ele>42.744636</ele>
        <time>2022-05-15T09:05:03.925Z</time>
      </trkpt>
      <trkpt lat="41.83455" lon="19.63683">
        <ele>42.37358</ele>
        <time>2022-05-15T09:05:06.927Z</time>
      </trkpt>
      <trkpt lat="41.83467" lon="19.63675">
        <ele>42.006466</ele>
        <time>2022-05-15T09:05:09.914Z</time>
      </trkpt>
      <trkpt lat="41.83475" lon="19.63668">
        <ele>41.751296</ele>
        <time>2022-05-15T09:05:11.915Z</time>
      </trkpt>
      <trkpt lat="41.83486" lon="19.6366">
        <ele>41.39167</ele>
        <time>2022-05-15T09:05:14.923Z</time>
      </trkpt>
      <trkpt lat="41.83497" lon="19.63651">
        <ele>41.027896</ele>
        <time>2022-05-15T09:05:17.912Z</time>
      </trkpt>
      <trkpt lat="41.83509" lon="19.63643">
        <ele>40.660907</ele>
        <time>2022-05-15T09:05:20.914Z</time>
      </trkpt>
      <trkpt lat="41.83519" lon="19.63634">
        <ele>40.321752</ele>
        <time>2022-05-15T09:05:23.914Z</time>
      </trkpt>
      <trkpt lat="41.83529" lon="19.63627">
        <ele>39.990258</ele>
        <time>2022-05-15T09:05:26.918Z</time>
      </trkpt>
      <trkpt lat="41.83539" lon="19.63619">
        <ele>39.679985</ele>
        <time>2022-05-15T09:05:29.914Z</time>
      </trkpt>
      <trkpt lat="41.8355" lon="19.63611">
        <ele>39.782639</ele>
        <time>2022-05-15T09:05:32.922Z</time>
      </trkpt>
      <trkpt lat="41.8356" lon="19.63603">
        <ele>39.886162</ele>
        <time>2022-05-15T09:05:35.920Z</time>
      </trkpt>
      <trkpt lat="41.83571" lon="19.63595">
        <ele>39.989877</ele>
        <time>2022-05-15T09:05:38.925Z</time>
      </trkpt>
      <trkpt lat="41.83582" lon="19.63587">
        <ele>40.094604</ele>
        <time>2022-05-15T09:05:41.912Z</time>
      </trkpt>
      <trkpt lat="41.83592" lon="19.63579">
        <ele>40.195037</ele>
        <time>2022-05-15T09:05:44.914Z</time>
      </trkpt>
      <trkpt lat="41.83602" lon="19.63571">
        <ele>40.300555</ele>
        <time>2022-05-15T09:05:47.917Z</time>
      </trkpt>
      <trkpt lat="41.83613" lon="19.63563">
        <ele>40.402787</ele>
        <time>2022-05-15T09:05:50.920Z</time>
      </trkpt>
      <trkpt lat="41.83623" lon="19.63555">
        <ele>40.50226</ele>
        <time>2022-05-15T09:05:53.915Z</time>
      </trkpt>
      <trkpt lat="41.83633" lon="19.63547">
        <ele>40.601309</ele>
        <time>2022-05-15T09:05:56.944Z</time>
      </trkpt>
      <trkpt lat="41.83643" lon="19.6354">
        <ele>40.700039</ele>
        <time>2022-05-15T09:05:59.913Z</time>
      </trkpt>
      <trkpt lat="41.83653" lon="19.63532">
        <ele>40.796966</ele>
        <time>2022-05-15T09:06:02.920Z</time>
      </trkpt>
      <trkpt lat="41.83663" lon="19.63524">
        <ele>40.896439</ele>
        <time>2022-05-15T09:06:05.914Z</time>
      </trkpt>
      <trkpt lat="41.83673" lon="19.63517">
        <ele>40.995169</ele>
        <time>2022-05-15T09:06:08.922Z</time>
      </trkpt>
      <trkpt lat="41.83683" lon="19.63509">
        <ele>41.092838</ele>
        <time>2022-05-15T09:06:11.913Z</time>
      </trkpt>
      <trkpt lat="41.83693" lon="19.63501">
        <ele>41.197518</ele>
        <time>2022-05-15T09:06:14.914Z</time>
      </trkpt>
      <trkpt lat="41.83704" lon="19.63492">
        <ele>41.314523</ele>
        <time>2022-05-15T09:06:17.921Z</time>
      </trkpt>
      <trkpt lat="41.83714" lon="19.63484">
        <ele>41.431977</ele>
        <time>2022-05-15T09:06:20.922Z</time>
      </trkpt>
      <trkpt lat="41.83725" lon="19.63477">
        <ele>41.547698</ele>
        <time>2022-05-15T09:06:23.943Z</time>
      </trkpt>
      <trkpt lat="41.83735" lon="19.63469">
        <ele>41.660036</ele>
        <time>2022-05-15T09:06:26.911Z</time>
      </trkpt>
      <trkpt lat="41.83746" lon="19.63461">
        <ele>41.778132</ele>
        <time>2022-05-15T09:06:29.916Z</time>
      </trkpt>
      <trkpt lat="41.83757" lon="19.63453">
        <ele>41.897615</ele>
        <time>2022-05-15T09:06:32.913Z</time>
      </trkpt>
      <trkpt lat="41.83768" lon="19.63445">
        <ele>42.015373</ele>
        <time>2022-05-15T09:06:35.922Z</time>
      </trkpt>
      <trkpt lat="41.83779" lon="19.63438">
        <ele>42.133982</ele>
        <time>2022-05-15T09:06:38.919Z</time>
      </trkpt>
      <trkpt lat="41.83789" lon="19.6343">
        <ele>42.253113</ele>
        <time>2022-05-15T09:06:41.914Z</time>
      </trkpt>
      <trkpt lat="41.838" lon="19.63422">
        <ele>42.370706</ele>
        <time>2022-05-15T09:06:44.920Z</time>
      </trkpt>
      <trkpt lat="41.83811" lon="19.63413">
        <ele>42.495792</ele>
        <time>2022-05-15T09:06:47.916Z</time>
      </trkpt>
      <trkpt lat="41.83822" lon="19.63405">
        <ele>42.615155</ele>
        <time>2022-05-15T09:06:50.919Z</time>
      </trkpt>
      <trkpt lat="41.83833" lon="19.63397">
        <ele>42.731905</ele>
        <time>2022-05-15T09:06:53.918Z</time>
      </trkpt>
      <trkpt lat="41.83843" lon="19.63388">
        <ele>42.849244</ele>
        <time>2022-05-15T09:06:56.914Z</time>
      </trkpt>
      <trkpt lat="41.83854" lon="19.63381">
        <ele>42.963036</ele>
        <time>2022-05-15T09:06:59.916Z</time>
      </trkpt>
      <trkpt lat="41.83865" lon="19.63372">
        <ele>43.059634</ele>
        <time>2022-05-15T09:07:02.911Z</time>
      </trkpt>
      <trkpt lat="41.83875" lon="19.63364">
        <ele>43.154306</ele>
        <time>2022-05-15T09:07:05.920Z</time>
      </trkpt>
      <trkpt lat="41.83886" lon="19.63357">
        <ele>43.246493</ele>
        <time>2022-05-15T09:07:08.920Z</time>
      </trkpt>
      <trkpt lat="41.83896" lon="19.63349">
        <ele>43.336634</ele>
        <time>2022-05-15T09:07:11.924Z</time>
      </trkpt>
      <trkpt lat="41.83907" lon="19.63342">
        <ele>43.431838</ele>
        <time>2022-05-15T09:07:14.912Z</time>
      </trkpt>
      <trkpt lat="41.83917" lon="19.63334">
        <ele>43.524869</ele>
        <time>2022-05-15T09:07:17.920Z</time>
      </trkpt>
      <trkpt lat="41.83927" lon="19.63326">
        <ele>43.613145</ele>
        <time>2022-05-15T09:07:20.916Z</time>
      </trkpt>
      <trkpt lat="41.83935" lon="19.63317">
        <ele>43.695663</ele>
        <time>2022-05-15T09:07:23.914Z</time>
      </trkpt>
      <trkpt lat="41.83944" lon="19.63308">
        <ele>43.781277</ele>
        <time>2022-05-15T09:07:26.929Z</time>
      </trkpt>
      <trkpt lat="41.83953" lon="19.63298">
        <ele>43.874295</ele>
        <time>2022-05-15T09:07:29.920Z</time>
      </trkpt>
      <trkpt lat="41.83963" lon="19.63288">
        <ele>43.970943</ele>
        <time>2022-05-15T09:07:32.929Z</time>
      </trkpt>
      <trkpt lat="41.83972" lon="19.63277">
        <ele>44.067592</ele>
        <time>2022-05-15T09:07:35.913Z</time>
      </trkpt>
      <trkpt lat="41.83982" lon="19.63267">
        <ele>44.163999</ele>
        <time>2022-05-15T09:07:38.917Z</time>
      </trkpt>
      <trkpt lat="41.83992" lon="19.63256">
        <ele>44.263197</ele>
        <time>2022-05-15T09:07:41.913Z</time>
      </trkpt>
      <trkpt lat="41.84002" lon="19.63245">
        <ele>44.346746</ele>
        <time>2022-05-15T09:07:44.920Z</time>
      </trkpt>
      <trkpt lat="41.84011" lon="19.63235">
        <ele>44.330185</ele>
        <time>2022-05-15T09:07:47.911Z</time>
      </trkpt>
      <trkpt lat="41.84021" lon="19.63226">
        <ele>44.313659</ele>
        <time>2022-05-15T09:07:50.917Z</time>
      </trkpt>
      <trkpt lat="41.8403" lon="19.63216">
        <ele>44.297351</ele>
        <time>2022-05-15T09:07:53.952Z</time>
      </trkpt>
      <trkpt lat="41.84039" lon="19.63206">
        <ele>44.281198</ele>
        <time>2022-05-15T09:07:56.935Z</time>
      </trkpt>
      <trkpt lat="41.84049" lon="19.63196">
        <ele>44.264466</ele>
        <time>2022-05-15T09:07:59.912Z</time>
      </trkpt>
      <trkpt lat="41.84058" lon="19.63185">
        <ele>44.247475</ele>
        <time>2022-05-15T09:08:02.909Z</time>
      </trkpt>
      <trkpt lat="41.84066" lon="19.63172">
        <ele>44.230277</ele>
        <time>2022-05-15T09:08:05.911Z</time>
      </trkpt>
      <trkpt lat="41.84071" lon="19.63156">
        <ele>44.212801</ele>
        <time>2022-05-15T09:08:08.931Z</time>
      </trkpt>
      <trkpt lat="41.84071" lon="19.6314">
        <ele>44.195567</ele>
        <time>2022-05-15T09:08:11.911Z</time>
      </trkpt>
      <trkpt lat="41.84068" lon="19.63125">
        <ele>44.179688</ele>
        <time>2022-05-15T09:08:14.922Z</time>
      </trkpt>
      <trkpt lat="41.84063" lon="19.6311">
        <ele>44.162435</ele>
        <time>2022-05-15T09:08:17.924Z</time>
      </trkpt>
      <trkpt lat="41.84058" lon="19.63099">
        <ele>44.149999</ele>
        <time>2022-05-15T09:08:19.915Z</time>
      </trkpt>
      <trkpt lat="41.84051" lon="19.63084">
        <ele>44.131832</ele>
        <time>2022-05-15T09:08:22.921Z</time>
      </trkpt>
      <trkpt lat="41.84043" lon="19.63069">
        <ele>44.113172</ele>
        <time>2022-05-15T09:08:25.915Z</time>
      </trkpt>
      <trkpt lat="41.84036" lon="19.63055">
        <ele>44.053573</ele>
        <time>2022-05-15T09:08:28.923Z</time>
      </trkpt>
      <trkpt lat="41.84029" lon="19.63041">
        <ele>43.909778</ele>
        <time>2022-05-15T09:08:31.919Z</time>
      </trkpt>
      <trkpt lat="41.84022" lon="19.63027">
        <ele>43.768693</ele>
        <time>2022-05-15T09:08:34.923Z</time>
      </trkpt>
      <trkpt lat="41.84016" lon="19.63014">
        <ele>43.634272</ele>
        <time>2022-05-15T09:08:37.914Z</time>
      </trkpt>
      <trkpt lat="41.84009" lon="19.63001">
        <ele>43.500644</ele>
        <time>2022-05-15T09:08:40.915Z</time>
      </trkpt>
      <trkpt lat="41.84003" lon="19.62988">
        <ele>43.365404</ele>
        <time>2022-05-15T09:08:43.936Z</time>
      </trkpt>
      <trkpt lat="41.83997" lon="19.62974">
        <ele>43.228927</ele>
        <time>2022-05-15T09:08:46.919Z</time>
      </trkpt>
      <trkpt lat="41.8399" lon="19.6296">
        <ele>43.091383</ele>
        <time>2022-05-15T09:08:49.935Z</time>
      </trkpt>
      <trkpt lat="41.83984" lon="19.62947">
        <ele>42.957351</ele>
        <time>2022-05-15T09:08:52.919Z</time>
      </trkpt>
      <trkpt lat="41.83978" lon="19.62933">
        <ele>42.816047</ele>
        <time>2022-05-15T09:08:55.911Z</time>
      </trkpt>
      <trkpt lat="41.83971" lon="19.6292">
        <ele>42.680807</ele>
        <time>2022-05-15T09:08:58.913Z</time>
      </trkpt>
      <trkpt lat="41.83965" lon="19.62906">
        <ele>42.545168</ele>
        <time>2022-05-15T09:09:01.918Z</time>
      </trkpt>
      <trkpt lat="41.83961" lon="19.62891">
        <ele>42.410202</ele>
        <time>2022-05-15T09:09:04.937Z</time>
      </trkpt>
      <trkpt lat="41.8396" lon="19.62876">
        <ele>42.281275</ele>
        <time>2022-05-15T09:09:07.917Z</time>
      </trkpt>
      <trkpt lat="41.83965" lon="19.62863">
        <ele>42.154263</ele>
        <time>2022-05-15T09:09:10.917Z</time>
      </trkpt>
      <trkpt lat="41.8397" lon="19.62853">
        <ele>42.049487</ele>
        <time>2022-05-15T09:09:12.927Z</time>
      </trkpt>
      <trkpt lat="41.83979" lon="19.6284">
        <ele>42.024664</ele>
        <time>2022-05-15T09:09:15.913Z</time>
      </trkpt>
      <trkpt lat="41.83988" lon="19.62829">
        <ele>42.007713</ele>
        <time>2022-05-15T09:09:18.928Z</time>
      </trkpt>
      <trkpt lat="41.83999" lon="19.62819">
        <ele>41.991263</ele>
        <time>2022-05-15T09:09:21.914Z</time>
      </trkpt>
      <trkpt lat="41.84008" lon="19.62811">
        <ele>41.976408</ele>
        <time>2022-05-15T09:09:24.918Z</time>
      </trkpt>
      <trkpt lat="41.84017" lon="19.62803">
        <ele>41.961817</ele>
        <time>2022-05-15T09:09:27.911Z</time>
      </trkpt>
      <trkpt lat="41.84026" lon="19.62794">
        <ele>41.946791</ele>
        <time>2022-05-15T09:09:30.913Z</time>
      </trkpt>
      <trkpt lat="41.84035" lon="19.62786">
        <ele>41.932543</ele>
        <time>2022-05-15T09:09:33.944Z</time>
      </trkpt>
      <trkpt lat="41.84045" lon="19.62778">
        <ele>41.918177</ele>
        <time>2022-05-15T09:09:36.915Z</time>
      </trkpt>
      <trkpt lat="41.84054" lon="19.6277">
        <ele>41.903928</ele>
        <time>2022-05-15T09:09:39.911Z</time>
      </trkpt>
      <trkpt lat="41.84063" lon="19.62762">
        <ele>41.889568</ele>
        <time>2022-05-15T09:09:42.919Z</time>
      </trkpt>
      <trkpt lat="41.84072" lon="19.62755">
        <ele>41.874765</ele>
        <time>2022-05-15T09:09:45.915Z</time>
      </trkpt>
      <trkpt lat="41.84082" lon="19.62749">
        <ele>41.860637</ele>
        <time>2022-05-15T09:09:48.927Z</time>
      </trkpt>
      <trkpt lat="41.84093" lon="19.62744">
        <ele>41.845217</ele>
        <time>2022-05-15T09:09:51.911Z</time>
      </trkpt>
      <trkpt lat="41.84104" lon="19.62737">
        <ele>41.829446</ele>
        <time>2022-05-15T09:09:54.915Z</time>
      </trkpt>
      <trkpt lat="41.84114" lon="19.62731">
        <ele>41.814933</ele>
        <time>2022-05-15T09:09:57.917Z</time>
      </trkpt>
      <trkpt lat="41.84124" lon="19.62723">
        <ele>41.786686</ele>
        <time>2022-05-15T09:10:00.911Z</time>
      </trkpt>
      <trkpt lat="41.84134" lon="19.62714">
        <ele>41.701254</ele>
        <time>2022-05-15T09:10:03.909Z</time>
      </trkpt>
      <trkpt lat="41.84145" lon="19.62705">
        <ele>41.609653</ele>
        <time>2022-05-15T09:10:06.950Z</time>
      </trkpt>
      <trkpt lat="41.84153" lon="19.62698">
        <ele>41.546375</ele>
        <time>2022-05-15T09:10:08.919Z</time>
      </trkpt>
      <trkpt lat="41.84161" lon="19.62692">
        <ele>41.482066</ele>
        <time>2022-05-15T09:10:10.927Z</time>
      </trkpt>
      <trkpt lat="41.84172" lon="19.62684">
        <ele>41.392786</ele>
        <time>2022-05-15T09:10:13.917Z</time>
      </trkpt>
      <trkpt lat="41.84183" lon="19.62675">
        <ele>41.30901</ele>
        <time>2022-05-15T09:10:16.927Z</time>
      </trkpt>
      <trkpt lat="41.84193" lon="19.62667">
        <ele>41.225688</ele>
        <time>2022-05-15T09:10:19.916Z</time>
      </trkpt>
      <trkpt lat="41.84204" lon="19.62659">
        <ele>41.139261</ele>
        <time>2022-05-15T09:10:22.921Z</time>
      </trkpt>
      <trkpt lat="41.84215" lon="19.6265">
        <ele>41.049111</ele>
        <time>2022-05-15T09:10:25.931Z</time>
      </trkpt>
      <trkpt lat="41.84226" lon="19.62641">
        <ele>40.96102</ele>
        <time>2022-05-15T09:10:28.913Z</time>
      </trkpt>
      <trkpt lat="41.84237" lon="19.62633">
        <ele>40.872335</ele>
        <time>2022-05-15T09:10:31.913Z</time>
      </trkpt>
      <trkpt lat="41.84248" lon="19.62623">
        <ele>40.780138</ele>
        <time>2022-05-15T09:10:34.918Z</time>
      </trkpt>
      <trkpt lat="41.84258" lon="19.62613">
        <ele>40.692032</ele>
        <time>2022-05-15T09:10:37.915Z</time>
      </trkpt>
      <trkpt lat="41.8427" lon="19.62605">
        <ele>40.601882</ele>
        <time>2022-05-15T09:10:40.923Z</time>
      </trkpt>
      <trkpt lat="41.8428" lon="19.62595">
        <ele>40.502027</ele>
        <time>2022-05-15T09:10:43.919Z</time>
      </trkpt>
      <trkpt lat="41.8429" lon="19.62584">
        <ele>40.386601</ele>
        <time>2022-05-15T09:10:46.922Z</time>
      </trkpt>
      <trkpt lat="41.843" lon="19.62572">
        <ele>40.272053</ele>
        <time>2022-05-15T09:10:49.931Z</time>
      </trkpt>
      <trkpt lat="41.84309" lon="19.62559">
        <ele>40.153195</ele>
        <time>2022-05-15T09:10:52.926Z</time>
      </trkpt>
      <trkpt lat="41.84316" lon="19.62551">
        <ele>40.074156</ele>
        <time>2022-05-15T09:10:54.918Z</time>
      </trkpt>
      <trkpt lat="41.84322" lon="19.62542">
        <ele>39.994191</ele>
        <time>2022-05-15T09:10:56.916Z</time>
      </trkpt>
      <trkpt lat="41.84331" lon="19.62529">
        <ele>39.874867</ele>
        <time>2022-05-15T09:10:59.922Z</time>
      </trkpt>
      <trkpt lat="41.84342" lon="19.62518">
        <ele>39.757491</ele>
        <time>2022-05-15T09:11:02.915Z</time>
      </trkpt>
      <trkpt lat="41.84353" lon="19.62508">
        <ele>39.638713</ele>
        <time>2022-05-15T09:11:05.917Z</time>
      </trkpt>
      <trkpt lat="41.84361" lon="19.62501">
        <ele>39.557906</ele>
        <time>2022-05-15T09:11:07.920Z</time>
      </trkpt>
      <trkpt lat="41.84372" lon="19.62492">
        <ele>39.44036</ele>
        <time>2022-05-15T09:11:10.920Z</time>
      </trkpt>
      <trkpt lat="41.84383" lon="19.62484">
        <ele>39.328043</ele>
        <time>2022-05-15T09:11:13.912Z</time>
      </trkpt>
      <trkpt lat="41.84394" lon="19.62475">
        <ele>39.218253</ele>
        <time>2022-05-15T09:11:16.928Z</time>
      </trkpt>
      <trkpt lat="41.84404" lon="19.62466">
        <ele>39.106402</ele>
        <time>2022-05-15T09:11:19.919Z</time>
      </trkpt>
      <trkpt lat="41.84415" lon="19.62456">
        <ele>38.994155</ele>
        <time>2022-05-15T09:11:22.932Z</time>
      </trkpt>
      <trkpt lat="41.84425" lon="19.62446">
        <ele>39.067384</ele>
        <time>2022-05-15T09:11:25.915Z</time>
      </trkpt>
      <trkpt lat="41.84435" lon="19.62437">
        <ele>39.210617</ele>
        <time>2022-05-15T09:11:28.921Z</time>
      </trkpt>
      <trkpt lat="41.84444" lon="19.62426">
        <ele>39.355518</ele>
        <time>2022-05-15T09:11:31.913Z</time>
      </trkpt>
      <trkpt lat="41.84454" lon="19.62414">
        <ele>39.501492</ele>
        <time>2022-05-15T09:11:34.914Z</time>
      </trkpt>
      <trkpt lat="41.84463" lon="19.62403">
        <ele>39.645599</ele>
        <time>2022-05-15T09:11:37.913Z</time>
      </trkpt>
      <trkpt lat="41.84472" lon="19.62391">
        <ele>39.789342</ele>
        <time>2022-05-15T09:11:40.924Z</time>
      </trkpt>
      <trkpt lat="41.84481" lon="19.62379">
        <ele>39.942866</ele>
        <time>2022-05-15T09:11:43.939Z</time>
      </trkpt>
      <trkpt lat="41.84488" lon="19.62371">
        <ele>40.051782</ele>
        <time>2022-05-15T09:11:45.911Z</time>
      </trkpt>
      <trkpt lat="41.84496" lon="19.62363">
        <ele>40.158018</ele>
        <time>2022-05-15T09:11:47.921Z</time>
      </trkpt>
      <trkpt lat="41.84506" lon="19.62353">
        <ele>40.309214</ele>
        <time>2022-05-15T09:11:50.915Z</time>
      </trkpt>
      <trkpt lat="41.84516" lon="19.62342">
        <ele>40.455948</ele>
        <time>2022-05-15T09:11:53.921Z</time>
      </trkpt>
      <trkpt lat="41.84528" lon="19.62333">
        <ele>40.610087</ele>
        <time>2022-05-15T09:11:56.923Z</time>
      </trkpt>
      <trkpt lat="41.84538" lon="19.62324">
        <ele>40.754198</ele>
        <time>2022-05-15T09:11:59.919Z</time>
      </trkpt>
      <trkpt lat="41.84548" lon="19.62314">
        <ele>40.897429</ele>
        <time>2022-05-15T09:12:02.914Z</time>
      </trkpt>
      <trkpt lat="41.84558" lon="19.62305">
        <ele>41.033958</ele>
        <time>2022-05-15T09:12:05.935Z</time>
      </trkpt>
      <trkpt lat="41.84567" lon="19.62295">
        <ele>41.079398</ele>
        <time>2022-05-15T09:12:08.932Z</time>
      </trkpt>
      <trkpt lat="41.84577" lon="19.62285">
        <ele>41.119227</ele>
        <time>2022-05-15T09:12:11.912Z</time>
      </trkpt>
      <trkpt lat="41.84588" lon="19.62275">
        <ele>41.159933</ele>
        <time>2022-05-15T09:12:14.920Z</time>
      </trkpt>
      <trkpt lat="41.84598" lon="19.62265">
        <ele>41.200267</ele>
        <time>2022-05-15T09:12:17.916Z</time>
      </trkpt>
      <trkpt lat="41.84608" lon="19.62255">
        <ele>41.239344</ele>
        <time>2022-05-15T09:12:20.916Z</time>
      </trkpt>
      <trkpt lat="41.84617" lon="19.62244">
        <ele>41.278182</ele>
        <time>2022-05-15T09:12:23.912Z</time>
      </trkpt>
      <trkpt lat="41.84626" lon="19.62232">
        <ele>41.318991</ele>
        <time>2022-05-15T09:12:26.910Z</time>
      </trkpt>
      <trkpt lat="41.84634" lon="19.62218">
        <ele>41.358756</ele>
        <time>2022-05-15T09:12:29.919Z</time>
      </trkpt>
      <trkpt lat="41.84642" lon="19.62204">
        <ele>41.399053</ele>
        <time>2022-05-15T09:12:32.918Z</time>
      </trkpt>
      <trkpt lat="41.84647" lon="19.62194">
        <ele>41.427874</ele>
        <time>2022-05-15T09:12:34.927Z</time>
      </trkpt>
      <trkpt lat="41.84653" lon="19.62184">
        <ele>41.457433</ele>
        <time>2022-05-15T09:12:36.925Z</time>
      </trkpt>
      <trkpt lat="41.84659" lon="19.62175">
        <ele>41.486313</ele>
        <time>2022-05-15T09:12:38.950Z</time>
      </trkpt>
      <trkpt lat="41.84668" lon="19.62163">
        <ele>41.527785</ele>
        <time>2022-05-15T09:12:41.919Z</time>
      </trkpt>
      <trkpt lat="41.84678" lon="19.62151">
        <ele>41.567951</ele>
        <time>2022-05-15T09:12:44.920Z</time>
      </trkpt>
      <trkpt lat="41.84687" lon="19.62141">
        <ele>41.606825</ele>
        <time>2022-05-15T09:12:47.920Z</time>
      </trkpt>
      <trkpt lat="41.84697" lon="19.62131">
        <ele>41.619198</ele>
        <time>2022-05-15T09:12:50.922Z</time>
      </trkpt>
      <trkpt lat="41.84706" lon="19.6212">
        <ele>41.628257</ele>
        <time>2022-05-15T09:12:53.914Z</time>
      </trkpt>
      <trkpt lat="41.84716" lon="19.6211">
        <ele>41.637275</ele>
        <time>2022-05-15T09:12:56.915Z</time>
      </trkpt>
      <trkpt lat="41.84725" lon="19.62099">
        <ele>41.646196</ele>
        <time>2022-05-15T09:12:59.921Z</time>
      </trkpt>
      <trkpt lat="41.84735" lon="19.62088">
        <ele>41.655711</ele>
        <time>2022-05-15T09:13:02.914Z</time>
      </trkpt>
      <trkpt lat="41.84745" lon="19.62077">
        <ele>41.665227</ele>
        <time>2022-05-15T09:13:05.918Z</time>
      </trkpt>
      <trkpt lat="41.84755" lon="19.62067">
        <ele>41.674503</ele>
        <time>2022-05-15T09:13:08.928Z</time>
      </trkpt>
      <trkpt lat="41.84764" lon="19.62057">
        <ele>41.682958</ele>
        <time>2022-05-15T09:13:11.914Z</time>
      </trkpt>
      <trkpt lat="41.84774" lon="19.62047">
        <ele>41.692002</ele>
        <time>2022-05-15T09:13:14.925Z</time>
      </trkpt>
      <trkpt lat="41.84784" lon="19.62037">
        <ele>41.701362</ele>
        <time>2022-05-15T09:13:17.936Z</time>
      </trkpt>
      <trkpt lat="41.84794" lon="19.62027">
        <ele>41.710523</ele>
        <time>2022-05-15T09:13:20.914Z</time>
      </trkpt>
      <trkpt lat="41.84804" lon="19.62017">
        <ele>41.719543</ele>
        <time>2022-05-15T09:13:23.914Z</time>
      </trkpt>
      <trkpt lat="41.84813" lon="19.62006">
        <ele>41.728617</ele>
        <time>2022-05-15T09:13:26.925Z</time>
      </trkpt>
      <trkpt lat="41.84822" lon="19.61996">
        <ele>41.736927</ele>
        <time>2022-05-15T09:13:29.919Z</time>
      </trkpt>
      <trkpt lat="41.84829" lon="19.61984">
        <ele>41.772916</ele>
        <time>2022-05-15T09:13:32.914Z</time>
      </trkpt>
      <trkpt lat="41.84836" lon="19.6197">
        <ele>41.892552</ele>
        <time>2022-05-15T09:13:35.911Z</time>
      </trkpt>
      <trkpt lat="41.84841" lon="19.61953">
        <ele>42.022868</ele>
        <time>2022-05-15T09:13:38.932Z</time>
      </trkpt>
      <trkpt lat="41.84844" lon="19.61942">
        <ele>42.113724</ele>
        <time>2022-05-15T09:13:40.918Z</time>
      </trkpt>
      <trkpt lat="41.84848" lon="19.6193">
        <ele>42.201975</ele>
        <time>2022-05-15T09:13:42.924Z</time>
      </trkpt>
      <trkpt lat="41.84853" lon="19.61919">
        <ele>42.294906</ele>
        <time>2022-05-15T09:13:44.920Z</time>
      </trkpt>
      <trkpt lat="41.84858" lon="19.61909">
        <ele>42.385749</ele>
        <time>2022-05-15T09:13:46.924Z</time>
      </trkpt>
      <trkpt lat="41.84863" lon="19.619">
        <ele>42.473608</ele>
        <time>2022-05-15T09:13:48.920Z</time>
      </trkpt>
      <trkpt lat="41.84873" lon="19.61888">
        <ele>42.597573</ele>
        <time>2022-05-15T09:13:51.915Z</time>
      </trkpt>
      <trkpt lat="41.84881" lon="19.61879">
        <ele>42.706099</ele>
        <time>2022-05-15T09:13:54.925Z</time>
      </trkpt>
      <trkpt lat="41.8489" lon="19.61869">
        <ele>42.815845</ele>
        <time>2022-05-15T09:13:57.916Z</time>
      </trkpt>
      <trkpt lat="41.849" lon="19.61859">
        <ele>42.937667</ele>
        <time>2022-05-15T09:14:00.915Z</time>
      </trkpt>
      <trkpt lat="41.84909" lon="19.61848">
        <ele>43.058743</ele>
        <time>2022-05-15T09:14:03.908Z</time>
      </trkpt>
      <trkpt lat="41.84918" lon="19.61837">
        <ele>43.17982</ele>
        <time>2022-05-15T09:14:06.915Z</time>
      </trkpt>
      <trkpt lat="41.84928" lon="19.61826">
        <ele>43.305116</ele>
        <time>2022-05-15T09:14:09.911Z</time>
      </trkpt>
      <trkpt lat="41.84938" lon="19.61816">
        <ele>43.428272</ele>
        <time>2022-05-15T09:14:12.941Z</time>
      </trkpt>
      <trkpt lat="41.84948" lon="19.61804">
        <ele>43.383532</ele>
        <time>2022-05-15T09:14:15.924Z</time>
      </trkpt>
      <trkpt lat="41.84957" lon="19.61793">
        <ele>43.092119</ele>
        <time>2022-05-15T09:14:18.919Z</time>
      </trkpt>
      <trkpt lat="41.84967" lon="19.61781">
        <ele>42.79284</ele>
        <time>2022-05-15T09:14:21.924Z</time>
      </trkpt>
      <trkpt lat="41.84977" lon="19.6177">
        <ele>42.494513</ele>
        <time>2022-05-15T09:14:24.924Z</time>
      </trkpt>
      <trkpt lat="41.84986" lon="19.61759">
        <ele>42.21891</ele>
        <time>2022-05-15T09:14:27.914Z</time>
      </trkpt>
      <trkpt lat="41.84996" lon="19.61748">
        <ele>41.929702</ele>
        <time>2022-05-15T09:14:30.916Z</time>
      </trkpt>
      <trkpt lat="41.85006" lon="19.61736">
        <ele>41.62705</ele>
        <time>2022-05-15T09:14:33.915Z</time>
      </trkpt>
      <trkpt lat="41.85015" lon="19.61724">
        <ele>41.340151</ele>
        <time>2022-05-15T09:14:36.925Z</time>
      </trkpt>
      <trkpt lat="41.85025" lon="19.61713">
        <ele>41.054382</ele>
        <time>2022-05-15T09:14:39.918Z</time>
      </trkpt>
      <trkpt lat="41.85034" lon="19.61701">
        <ele>40.768168</ele>
        <time>2022-05-15T09:14:42.929Z</time>
      </trkpt>
      <trkpt lat="41.85043" lon="19.6169">
        <ele>40.491444</ele>
        <time>2022-05-15T09:14:45.935Z</time>
      </trkpt>
      <trkpt lat="41.85052" lon="19.61679">
        <ele>40.198375</ele>
        <time>2022-05-15T09:14:48.915Z</time>
      </trkpt>
      <trkpt lat="41.85062" lon="19.61667">
        <ele>39.913757</ele>
        <time>2022-05-15T09:14:51.946Z</time>
      </trkpt>
      <trkpt lat="41.85072" lon="19.61656">
        <ele>39.613685</ele>
        <time>2022-05-15T09:14:54.917Z</time>
      </trkpt>
      <trkpt lat="41.85082" lon="19.61646">
        <ele>39.477642</ele>
        <time>2022-05-15T09:14:57.922Z</time>
      </trkpt>
      <trkpt lat="41.85093" lon="19.61636">
        <ele>39.631752</ele>
        <time>2022-05-15T09:15:00.915Z</time>
      </trkpt>
      <trkpt lat="41.85103" lon="19.61627">
        <ele>39.778312</ele>
        <time>2022-05-15T09:15:03.908Z</time>
      </trkpt>
      <trkpt lat="41.85113" lon="19.61618">
        <ele>39.925374</ele>
        <time>2022-05-15T09:15:06.928Z</time>
      </trkpt>
      <trkpt lat="41.85123" lon="19.61609">
        <ele>40.070424</ele>
        <time>2022-05-15T09:15:09.920Z</time>
      </trkpt>
      <trkpt lat="41.85133" lon="19.616">
        <ele>40.219509</ele>
        <time>2022-05-15T09:15:12.932Z</time>
      </trkpt>
      <trkpt lat="41.85144" lon="19.61591">
        <ele>40.375699</ele>
        <time>2022-05-15T09:15:15.913Z</time>
      </trkpt>
      <trkpt lat="41.85152" lon="19.61584">
        <ele>40.485054</ele>
        <time>2022-05-15T09:15:17.911Z</time>
      </trkpt>
      <trkpt lat="41.85163" lon="19.61574">
        <ele>40.645231</ele>
        <time>2022-05-15T09:15:20.914Z</time>
      </trkpt>
      <trkpt lat="41.85173" lon="19.61565">
        <ele>40.790778</ele>
        <time>2022-05-15T09:15:23.912Z</time>
      </trkpt>
      <trkpt lat="41.85183" lon="19.61556">
        <ele>40.945409</ele>
        <time>2022-05-15T09:15:26.923Z</time>
      </trkpt>
      <trkpt lat="41.85193" lon="19.61546">
        <ele>41.093558</ele>
        <time>2022-05-15T09:15:29.922Z</time>
      </trkpt>
      <trkpt lat="41.85201" lon="19.61536">
        <ele>41.227399</ele>
        <time>2022-05-15T09:15:32.914Z</time>
      </trkpt>
      <trkpt lat="41.85208" lon="19.61524">
        <ele>41.363776</ele>
        <time>2022-05-15T09:15:35.924Z</time>
      </trkpt>
      <trkpt lat="41.85215" lon="19.61509">
        <ele>41.52255</ele>
        <time>2022-05-15T09:15:38.918Z</time>
      </trkpt>
      <trkpt lat="41.85222" lon="19.61501">
        <ele>41.623678</ele>
        <time>2022-05-15T09:15:40.919Z</time>
      </trkpt>
      <trkpt lat="41.8523" lon="19.61494">
        <ele>41.703113</ele>
        <time>2022-05-15T09:15:42.909Z</time>
      </trkpt>
      <trkpt lat="41.85239" lon="19.61489">
        <ele>41.78886</ele>
        <time>2022-05-15T09:15:44.911Z</time>
      </trkpt>
      <trkpt lat="41.85249" lon="19.61487">
        <ele>41.869837</ele>
        <time>2022-05-15T09:15:46.917Z</time>
      </trkpt>
      <trkpt lat="41.85258" lon="19.61485">
        <ele>41.94477</ele>
        <time>2022-05-15T09:15:48.916Z</time>
      </trkpt>
      <trkpt lat="41.85267" lon="19.61483">
        <ele>42.021252</ele>
        <time>2022-05-15T09:15:50.927Z</time>
      </trkpt>
      <trkpt lat="41.85276" lon="19.61481">
        <ele>42.099772</ele>
        <time>2022-05-15T09:15:52.918Z</time>
      </trkpt>
      <trkpt lat="41.85288" lon="19.61476">
        <ele>42.202292</ele>
        <time>2022-05-15T09:15:55.912Z</time>
      </trkpt>
      <trkpt lat="41.85299" lon="19.6147">
        <ele>42.303562</ele>
        <time>2022-05-15T09:15:58.916Z</time>
      </trkpt>
      <trkpt lat="41.8531" lon="19.61463">
        <ele>42.401288</ele>
        <time>2022-05-15T09:16:01.913Z</time>
      </trkpt>
      <trkpt lat="41.8532" lon="19.61454">
        <ele>42.499044</ele>
        <time>2022-05-15T09:16:04.924Z</time>
      </trkpt>
      <trkpt lat="41.8533" lon="19.61445">
        <ele>42.607432</ele>
        <time>2022-05-15T09:16:07.952Z</time>
      </trkpt>
      <trkpt lat="41.85342" lon="19.61435">
        <ele>42.717589</ele>
        <time>2022-05-15T09:16:10.918Z</time>
      </trkpt>
      <trkpt lat="41.85353" lon="19.61426">
        <ele>42.825308</ele>
        <time>2022-05-15T09:16:13.914Z</time>
      </trkpt>
      <trkpt lat="41.85364" lon="19.61417">
        <ele>42.933211</ele>
        <time>2022-05-15T09:16:16.915Z</time>
      </trkpt>
      <trkpt lat="41.85374" lon="19.61407">
        <ele>43.038154</ele>
        <time>2022-05-15T09:16:19.919Z</time>
      </trkpt>
      <trkpt lat="41.85384" lon="19.61399">
        <ele>43.143488</ele>
        <time>2022-05-15T09:16:22.933Z</time>
      </trkpt>
      <trkpt lat="41.85395" lon="19.61391">
        <ele>43.256896</ele>
        <time>2022-05-15T09:16:25.915Z</time>
      </trkpt>
      <trkpt lat="41.85405" lon="19.61382">
        <ele>43.374202</ele>
        <time>2022-05-15T09:16:28.914Z</time>
      </trkpt>
      <trkpt lat="41.85415" lon="19.61373">
        <ele>43.487518</ele>
        <time>2022-05-15T09:16:31.918Z</time>
      </trkpt>
      <trkpt lat="41.85425" lon="19.61365">
        <ele>43.59892</ele>
        <time>2022-05-15T09:16:34.939Z</time>
      </trkpt>
      <trkpt lat="41.85434" lon="19.61357">
        <ele>43.709888</ele>
        <time>2022-05-15T09:16:37.916Z</time>
      </trkpt>
      <trkpt lat="41.85444" lon="19.61349">
        <ele>43.818096</ele>
        <time>2022-05-15T09:16:40.923Z</time>
      </trkpt>
      <trkpt lat="41.85453" lon="19.61341">
        <ele>43.919111</ele>
        <time>2022-05-15T09:16:43.919Z</time>
      </trkpt>
      <trkpt lat="41.85462" lon="19.61334">
        <ele>44.023109</ele>
        <time>2022-05-15T09:16:46.919Z</time>
      </trkpt>
      <trkpt lat="41.85472" lon="19.61326">
        <ele>44.131317</ele>
        <time>2022-05-15T09:16:49.916Z</time>
      </trkpt>
      <trkpt lat="41.8548" lon="19.61318">
        <ele>44.229518</ele>
        <time>2022-05-15T09:16:52.933Z</time>
      </trkpt>
      <trkpt lat="41.85489" lon="19.61311">
        <ele>44.330218</ele>
        <time>2022-05-15T09:16:55.912Z</time>
      </trkpt>
      <trkpt lat="41.85499" lon="19.61303">
        <ele>44.436492</ele>
        <time>2022-05-15T09:16:58.916Z</time>
      </trkpt>
      <trkpt lat="41.85508" lon="19.61296">
        <ele>44.539942</ele>
        <time>2022-05-15T09:17:01.919Z</time>
      </trkpt>
      <trkpt lat="41.85517" lon="19.61288">
        <ele>44.64014</ele>
        <time>2022-05-15T09:17:04.912Z</time>
      </trkpt>
      <trkpt lat="41.85525" lon="19.6128">
        <ele>44.737582</ele>
        <time>2022-05-15T09:17:07.933Z</time>
      </trkpt>
      <trkpt lat="41.85533" lon="19.61272">
        <ele>44.845799</ele>
        <time>2022-05-15T09:17:10.922Z</time>
      </trkpt>
      <trkpt lat="41.85541" lon="19.61264">
        <ele>45.059455</ele>
        <time>2022-05-15T09:17:13.921Z</time>
      </trkpt>
      <trkpt lat="41.85548" lon="19.61255">
        <ele>45.259629</ele>
        <time>2022-05-15T09:17:16.922Z</time>
      </trkpt>
      <trkpt lat="41.85556" lon="19.61245">
        <ele>45.489361</ele>
        <time>2022-05-15T09:17:20.933Z</time>
      </trkpt>
      <trkpt lat="41.85564" lon="19.61235">
        <ele>45.725298</ele>
        <time>2022-05-15T09:17:24.921Z</time>
      </trkpt>
      <trkpt lat="41.85572" lon="19.61226">
        <ele>45.9545</ele>
        <time>2022-05-15T09:17:28.927Z</time>
      </trkpt>
      <trkpt lat="41.85581" lon="19.61214">
        <ele>46.210342</ele>
        <time>2022-05-15T09:17:32.917Z</time>
      </trkpt>
      <trkpt lat="41.85589" lon="19.61208">
        <ele>46.404622</ele>
        <time>2022-05-15T09:17:35.915Z</time>
      </trkpt>
      <trkpt lat="41.85597" lon="19.61202">
        <ele>46.600757</ele>
        <time>2022-05-15T09:17:38.920Z</time>
      </trkpt>
      <trkpt lat="41.85606" lon="19.61198">
        <ele>46.795879</ele>
        <time>2022-05-15T09:17:41.910Z</time>
      </trkpt>
      <trkpt lat="41.85616" lon="19.61191">
        <ele>47.042812</ele>
        <time>2022-05-15T09:17:45.940Z</time>
      </trkpt>
      <trkpt lat="41.85625" lon="19.61185">
        <ele>47.26348</ele>
        <time>2022-05-15T09:17:49.912Z</time>
      </trkpt>
      <trkpt lat="41.85634" lon="19.61178">
        <ele>47.478747</ele>
        <time>2022-05-15T09:17:53.912Z</time>
      </trkpt>
      <trkpt lat="41.85643" lon="19.61168">
        <ele>47.719519</ele>
        <time>2022-05-15T09:17:57.914Z</time>
      </trkpt>
      <trkpt lat="41.85651" lon="19.6116">
        <ele>47.923848</ele>
        <time>2022-05-15T09:18:00.921Z</time>
      </trkpt>
      <trkpt lat="41.85659" lon="19.61152">
        <ele>48.138486</ele>
        <time>2022-05-15T09:18:03.918Z</time>
      </trkpt>
      <trkpt lat="41.85668" lon="19.61142">
        <ele>48.390808</ele>
        <time>2022-05-15T09:18:06.918Z</time>
      </trkpt>
      <trkpt lat="41.85678" lon="19.61132">
        <ele>48.634977</ele>
        <time>2022-05-15T09:18:09.914Z</time>
      </trkpt>
      <trkpt lat="41.85686" lon="19.61126">
        <ele>48.627477</ele>
        <time>2022-05-15T09:18:11.916Z</time>
      </trkpt>
      <trkpt lat="41.85695" lon="19.61122">
        <ele>48.619941</ele>
        <time>2022-05-15T09:18:13.952Z</time>
      </trkpt>
      <trkpt lat="41.85706" lon="19.61117">
        <ele>48.610632</ele>
        <time>2022-05-15T09:18:15.921Z</time>
      </trkpt>
      <trkpt lat="41.85718" lon="19.61113">
        <ele>48.601067</ele>
        <time>2022-05-15T09:18:17.919Z</time>
      </trkpt>
      <trkpt lat="41.85729" lon="19.61108">
        <ele>48.591664</ele>
        <time>2022-05-15T09:18:19.911Z</time>
      </trkpt>
      <trkpt lat="41.85739" lon="19.61105">
        <ele>48.583868</ele>
        <time>2022-05-15T09:18:21.920Z</time>
      </trkpt>
      <trkpt lat="41.85749" lon="19.61102">
        <ele>48.575743</ele>
        <time>2022-05-15T09:18:23.916Z</time>
      </trkpt>
      <trkpt lat="41.85758" lon="19.61097">
        <ele>48.567716</ele>
        <time>2022-05-15T09:18:25.911Z</time>
      </trkpt>
      <trkpt lat="41.85767" lon="19.61092">
        <ele>48.559782</ele>
        <time>2022-05-15T09:18:27.913Z</time>
      </trkpt>
      <trkpt lat="41.8578" lon="19.61084">
        <ele>48.548944</ele>
        <time>2022-05-15T09:18:30.919Z</time>
      </trkpt>
      <trkpt lat="41.85788" lon="19.61074">
        <ele>48.539942</ele>
        <time>2022-05-15T09:18:33.913Z</time>
      </trkpt>
      <trkpt lat="41.85796" lon="19.61063">
        <ele>48.530779</ele>
        <time>2022-05-15T09:18:36.912Z</time>
      </trkpt>
      <trkpt lat="41.85804" lon="19.61052">
        <ele>48.522081</ele>
        <time>2022-05-15T09:18:39.918Z</time>
      </trkpt>
      <trkpt lat="41.85813" lon="19.61041">
        <ele>48.51218</ele>
        <time>2022-05-15T09:18:42.924Z</time>
      </trkpt>
      <trkpt lat="41.85822" lon="19.61031">
        <ele>48.502672</ele>
        <time>2022-05-15T09:18:45.918Z</time>
      </trkpt>
      <trkpt lat="41.85833" lon="19.61024">
        <ele>48.493301</ele>
        <time>2022-05-15T09:18:48.921Z</time>
      </trkpt>
      <trkpt lat="41.85842" lon="19.61019">
        <ele>48.277181</ele>
        <time>2022-05-15T09:18:51.926Z</time>
      </trkpt>
      <trkpt lat="41.8585" lon="19.61013">
        <ele>48.058037</ele>
        <time>2022-05-15T09:18:54.919Z</time>
      </trkpt>
      <trkpt lat="41.85859" lon="19.61008">
        <ele>47.820341</ele>
        <time>2022-05-15T09:18:57.924Z</time>
      </trkpt>
      <trkpt lat="41.85869" lon="19.61001">
        <ele>47.544758</ele>
        <time>2022-05-15T09:19:00.918Z</time>
      </trkpt>
      <trkpt lat="41.85879" lon="19.60994">
        <ele>47.268158</ele>
        <time>2022-05-15T09:19:03.951Z</time>
      </trkpt>
      <trkpt lat="41.85889" lon="19.60988">
        <ele>46.997074</ele>
        <time>2022-05-15T09:19:06.924Z</time>
      </trkpt>
      <trkpt lat="41.85898" lon="19.60982">
        <ele>46.742244</ele>
        <time>2022-05-15T09:19:09.915Z</time>
      </trkpt>
      <trkpt lat="41.85908" lon="19.60976">
        <ele>46.495589</ele>
        <time>2022-05-15T09:19:12.935Z</time>
      </trkpt>
      <trkpt lat="41.85916" lon="19.60971">
        <ele>46.262864</ele>
        <time>2022-05-15T09:19:15.923Z</time>
      </trkpt>
      <trkpt lat="41.85924" lon="19.60965">
        <ele>46.03405</ele>
        <time>2022-05-15T09:19:18.919Z</time>
      </trkpt>
      <trkpt lat="41.85935" lon="19.60957">
        <ele>45.743274</ele>
        <time>2022-05-15T09:19:22.913Z</time>
      </trkpt>
      <trkpt lat="41.85943" lon="19.60951">
        <ele>45.521361</ele>
        <time>2022-05-15T09:19:25.936Z</time>
      </trkpt>
      <trkpt lat="41.85953" lon="19.60945">
        <ele>45.246553</ele>
        <time>2022-05-15T09:19:29.914Z</time>
      </trkpt>
      <trkpt lat="41.85963" lon="19.60939">
        <ele>44.978362</ele>
        <time>2022-05-15T09:19:33.919Z</time>
      </trkpt>
      <trkpt lat="41.85973" lon="19.60932">
        <ele>44.699586</ele>
        <time>2022-05-15T09:19:37.911Z</time>
      </trkpt>
      <trkpt lat="41.85982" lon="19.60926">
        <ele>44.46434</ele>
        <time>2022-05-15T09:19:40.915Z</time>
      </trkpt>
      <trkpt lat="41.8599" lon="19.60919">
        <ele>44.224344</ele>
        <time>2022-05-15T09:19:43.913Z</time>
      </trkpt>
      <trkpt lat="41.85999" lon="19.60913">
        <ele>44.149947</ele>
        <time>2022-05-15T09:19:46.913Z</time>
      </trkpt>
      <trkpt lat="41.86009" lon="19.60906">
        <ele>44.255726</ele>
        <time>2022-05-15T09:19:49.919Z</time>
      </trkpt>
      <trkpt lat="41.8602" lon="19.60897">
        <ele>44.37011</ele>
        <time>2022-05-15T09:19:52.911Z</time>
      </trkpt>
      <trkpt lat="41.8603" lon="19.60888">
        <ele>44.483918</ele>
        <time>2022-05-15T09:19:55.912Z</time>
      </trkpt>
      <trkpt lat="41.86041" lon="19.60878">
        <ele>44.605468</ele>
        <time>2022-05-15T09:19:58.916Z</time>
      </trkpt>
      <trkpt lat="41.86049" lon="19.60868">
        <ele>44.710037</ele>
        <time>2022-05-15T09:20:01.915Z</time>
      </trkpt>
      <trkpt lat="41.86057" lon="19.60858">
        <ele>44.815339</ele>
        <time>2022-05-15T09:20:03.907Z</time>
      </trkpt>
      <trkpt lat="41.86065" lon="19.60846">
        <ele>44.91907</ele>
        <time>2022-05-15T09:20:05.912Z</time>
      </trkpt>
      <trkpt lat="41.86072" lon="19.60836">
        <ele>45.015899</ele>
        <time>2022-05-15T09:20:07.914Z</time>
      </trkpt>
      <trkpt lat="41.86078" lon="19.60826">
        <ele>45.110551</ele>
        <time>2022-05-15T09:20:09.921Z</time>
      </trkpt>
      <trkpt lat="41.86085" lon="19.60816">
        <ele>45.204034</ele>
        <time>2022-05-15T09:20:11.915Z</time>
      </trkpt>
      <trkpt lat="41.86092" lon="19.60806">
        <ele>45.295876</ele>
        <time>2022-05-15T09:20:13.912Z</time>
      </trkpt>
      <trkpt lat="41.861" lon="19.60798">
        <ele>45.38522</ele>
        <time>2022-05-15T09:20:15.918Z</time>
      </trkpt>
      <trkpt lat="41.86108" lon="19.60791">
        <ele>45.472477</ele>
        <time>2022-05-15T09:20:17.940Z</time>
      </trkpt>
      <trkpt lat="41.86116" lon="19.60785">
        <ele>45.565026</ele>
        <time>2022-05-15T09:20:19.910Z</time>
      </trkpt>
      <trkpt lat="41.86126" lon="19.6078">
        <ele>45.66097</ele>
        <time>2022-05-15T09:20:21.913Z</time>
      </trkpt>
      <trkpt lat="41.86135" lon="19.60776">
        <ele>45.752199</ele>
        <time>2022-05-15T09:20:23.948Z</time>
      </trkpt>
      <trkpt lat="41.86144" lon="19.60773">
        <ele>45.723913</ele>
        <time>2022-05-15T09:20:25.921Z</time>
      </trkpt>
      <trkpt lat="41.86156" lon="19.60768">
        <ele>45.63971</ele>
        <time>2022-05-15T09:20:28.925Z</time>
      </trkpt>
      <trkpt lat="41.86165" lon="19.60763">
        <ele>45.565543</ele>
        <time>2022-05-15T09:20:31.912Z</time>
      </trkpt>
      <trkpt lat="41.86174" lon="19.60755">
        <ele>45.487474</ele>
        <time>2022-05-15T09:20:34.948Z</time>
      </trkpt>
      <trkpt lat="41.86183" lon="19.60748">
        <ele>45.411931</ele>
        <time>2022-05-15T09:20:37.916Z</time>
      </trkpt>
      <trkpt lat="41.86192" lon="19.60738">
        <ele>45.329394</ele>
        <time>2022-05-15T09:20:40.912Z</time>
      </trkpt>
      <trkpt lat="41.86199" lon="19.6073">
        <ele>45.262255</ele>
        <time>2022-05-15T09:20:42.921Z</time>
      </trkpt>
      <trkpt lat="41.86207" lon="19.60721">
        <ele>45.189755</ele>
        <time>2022-05-15T09:20:44.920Z</time>
      </trkpt>
      <trkpt lat="41.86213" lon="19.60712">
        <ele>45.122507</ele>
        <time>2022-05-15T09:20:46.926Z</time>
      </trkpt>
      <trkpt lat="41.8622" lon="19.60703">
        <ele>45.056239</ele>
        <time>2022-05-15T09:20:48.923Z</time>
      </trkpt>
      <trkpt lat="41.86229" lon="19.60691">
        <ele>44.964027</ele>
        <time>2022-05-15T09:20:51.917Z</time>
      </trkpt>
      <trkpt lat="41.86238" lon="19.60679">
        <ele>44.869666</ele>
        <time>2022-05-15T09:20:54.918Z</time>
      </trkpt>
      <trkpt lat="41.86247" lon="19.60666">
        <ele>44.775413</ele>
        <time>2022-05-15T09:20:57.919Z</time>
      </trkpt>
      <trkpt lat="41.86256" lon="19.60654">
        <ele>44.684476</ele>
        <time>2022-05-15T09:21:00.916Z</time>
      </trkpt>
      <trkpt lat="41.86265" lon="19.60642">
        <ele>44.596936</ele>
        <time>2022-05-15T09:21:03.928Z</time>
      </trkpt>
      <trkpt lat="41.86274" lon="19.60631">
        <ele>44.50694</ele>
        <time>2022-05-15T09:21:06.924Z</time>
      </trkpt>
      <trkpt lat="41.86282" lon="19.60622">
        <ele>44.392855</ele>
        <time>2022-05-15T09:21:08.922Z</time>
      </trkpt>
      <trkpt lat="41.86289" lon="19.60614">
        <ele>44.263277</ele>
        <time>2022-05-15T09:21:10.917Z</time>
      </trkpt>
      <trkpt lat="41.86295" lon="19.60605">
        <ele>44.141131</ele>
        <time>2022-05-15T09:21:12.915Z</time>
      </trkpt>
      <trkpt lat="41.86302" lon="19.60597">
        <ele>44.019599</ele>
        <time>2022-05-15T09:21:14.920Z</time>
      </trkpt>
      <trkpt lat="41.86311" lon="19.60586">
        <ele>43.8531</ele>
        <time>2022-05-15T09:21:17.912Z</time>
      </trkpt>
      <trkpt lat="41.86321" lon="19.60574">
        <ele>43.679548</ele>
        <time>2022-05-15T09:21:20.924Z</time>
      </trkpt>
      <trkpt lat="41.8633" lon="19.60562">
        <ele>43.50759</ele>
        <time>2022-05-15T09:21:23.914Z</time>
      </trkpt>
      <trkpt lat="41.86339" lon="19.60552">
        <ele>43.341032</ele>
        <time>2022-05-15T09:21:26.914Z</time>
      </trkpt>
      <trkpt lat="41.86349" lon="19.6054">
        <ele>43.16715</ele>
        <time>2022-05-15T09:21:29.915Z</time>
      </trkpt>
      <trkpt lat="41.86359" lon="19.60528">
        <ele>42.990578</ele>
        <time>2022-05-15T09:21:32.913Z</time>
      </trkpt>
      <trkpt lat="41.86369" lon="19.60517">
        <ele>42.810646</ele>
        <time>2022-05-15T09:21:35.912Z</time>
      </trkpt>
      <trkpt lat="41.86375" lon="19.60508">
        <ele>42.687438</ele>
        <time>2022-05-15T09:21:37.912Z</time>
      </trkpt>
      <trkpt lat="41.86382" lon="19.605">
        <ele>42.561556</ele>
        <time>2022-05-15T09:21:39.926Z</time>
      </trkpt>
      <trkpt lat="41.86392" lon="19.60488">
        <ele>42.385648</ele>
        <time>2022-05-15T09:21:42.920Z</time>
      </trkpt>
      <trkpt lat="41.86401" lon="19.60477">
        <ele>42.21848</ele>
        <time>2022-05-15T09:21:45.938Z</time>
      </trkpt>
      <trkpt lat="41.86411" lon="19.60467">
        <ele>42.052176</ele>
        <time>2022-05-15T09:21:48.925Z</time>
      </trkpt>
      <trkpt lat="41.86421" lon="19.60456">
        <ele>42.043097</ele>
        <time>2022-05-15T09:21:51.911Z</time>
      </trkpt>
      <trkpt lat="41.86427" lon="19.60448">
        <ele>42.038204</ele>
        <time>2022-05-15T09:21:53.912Z</time>
      </trkpt>
      <trkpt lat="41.86437" lon="19.60436">
        <ele>42.030956</ele>
        <time>2022-05-15T09:21:56.946Z</time>
      </trkpt>
      <trkpt lat="41.86446" lon="19.60423">
        <ele>42.023718</ele>
        <time>2022-05-15T09:21:59.921Z</time>
      </trkpt>
      <trkpt lat="41.86454" lon="19.6041">
        <ele>42.016947</ele>
        <time>2022-05-15T09:22:02.922Z</time>
      </trkpt>
      <trkpt lat="41.86463" lon="19.60396">
        <ele>42.009652</ele>
        <time>2022-05-15T09:22:05.930Z</time>
      </trkpt>
      <trkpt lat="41.86468" lon="19.60386">
        <ele>42.004613</ele>
        <time>2022-05-15T09:22:07.935Z</time>
      </trkpt>
      <trkpt lat="41.86474" lon="19.60377">
        <ele>41.999631</ele>
        <time>2022-05-15T09:22:09.921Z</time>
      </trkpt>
      <trkpt lat="41.86482" lon="19.60363">
        <ele>41.992709</ele>
        <time>2022-05-15T09:22:12.919Z</time>
      </trkpt>
      <trkpt lat="41.86489" lon="19.6035">
        <ele>41.986014</ele>
        <time>2022-05-15T09:22:15.923Z</time>
      </trkpt>
      <trkpt lat="41.86497" lon="19.60337">
        <ele>41.979021</ele>
        <time>2022-05-15T09:22:18.916Z</time>
      </trkpt>
      <trkpt lat="41.86506" lon="19.60324">
        <ele>41.972102</ele>
        <time>2022-05-15T09:22:21.928Z</time>
      </trkpt>
      <trkpt lat="41.86514" lon="19.60312">
        <ele>41.965402</ele>
        <time>2022-05-15T09:22:24.933Z</time>
      </trkpt>
      <trkpt lat="41.86524" lon="19.60302">
        <ele>41.958962</ele>
        <time>2022-05-15T09:22:27.917Z</time>
      </trkpt>
      <trkpt lat="41.86533" lon="19.60293">
        <ele>41.952547</ele>
        <time>2022-05-15T09:22:30.910Z</time>
      </trkpt>
      <trkpt lat="41.86543" lon="19.60285">
        <ele>42.410379</ele>
        <time>2022-05-15T09:22:33.911Z</time>
      </trkpt>
      <trkpt lat="41.86553" lon="19.60278">
        <ele>42.879742</ele>
        <time>2022-05-15T09:22:36.916Z</time>
      </trkpt>
      <trkpt lat="41.86563" lon="19.6027">
        <ele>43.386807</ele>
        <time>2022-05-15T09:22:39.910Z</time>
      </trkpt>
      <trkpt lat="41.86573" lon="19.60262">
        <ele>43.897126</ele>
        <time>2022-05-15T09:22:42.917Z</time>
      </trkpt>
      <trkpt lat="41.86584" lon="19.60253">
        <ele>44.439106</ele>
        <time>2022-05-15T09:22:45.938Z</time>
      </trkpt>
      <trkpt lat="41.86595" lon="19.60243">
        <ele>45.000426</ele>
        <time>2022-05-15T09:22:48.920Z</time>
      </trkpt>
      <trkpt lat="41.86605" lon="19.60232">
        <ele>45.56432</ele>
        <time>2022-05-15T09:22:51.915Z</time>
      </trkpt>
      <trkpt lat="41.86615" lon="19.60221">
        <ele>46.10522</ele>
        <time>2022-05-15T09:22:54.915Z</time>
      </trkpt>
      <trkpt lat="41.86625" lon="19.60211">
        <ele>46.642821</ele>
        <time>2022-05-15T09:22:57.912Z</time>
      </trkpt>
      <trkpt lat="41.86635" lon="19.60201">
        <ele>47.176135</ele>
        <time>2022-05-15T09:23:00.920Z</time>
      </trkpt>
      <trkpt lat="41.86646" lon="19.60192">
        <ele>47.723741</ele>
        <time>2022-05-15T09:23:03.914Z</time>
      </trkpt>
      <trkpt lat="41.86655" lon="19.60187">
        <ele>48.137747</ele>
        <time>2022-05-15T09:23:05.915Z</time>
      </trkpt>
      <trkpt lat="41.86664" lon="19.60183">
        <ele>48.554022</ele>
        <time>2022-05-15T09:23:07.911Z</time>
      </trkpt>
      <trkpt lat="41.86673" lon="19.60178">
        <ele>48.957922</ele>
        <time>2022-05-15T09:23:09.925Z</time>
      </trkpt>
      <trkpt lat="41.86682" lon="19.60175">
        <ele>49.363876</ele>
        <time>2022-05-15T09:23:11.913Z</time>
      </trkpt>
      <trkpt lat="41.8669" lon="19.6017">
        <ele>49.607195</ele>
        <time>2022-05-15T09:23:13.911Z</time>
      </trkpt>
      <trkpt lat="41.86702" lon="19.60163">
        <ele>49.242589</ele>
        <time>2022-05-15T09:23:16.912Z</time>
      </trkpt>
      <trkpt lat="41.86712" lon="19.60155">
        <ele>48.919374</ele>
        <time>2022-05-15T09:23:19.939Z</time>
      </trkpt>
      <trkpt lat="41.86722" lon="19.60147">
        <ele>48.594738</ele>
        <time>2022-05-15T09:23:22.928Z</time>
      </trkpt>
      <trkpt lat="41.8673" lon="19.60136">
        <ele>48.271982</ele>
        <time>2022-05-15T09:23:25.924Z</time>
      </trkpt>
      <trkpt lat="41.86739" lon="19.60125">
        <ele>47.93237</ele>
        <time>2022-05-15T09:23:28.919Z</time>
      </trkpt>
      <trkpt lat="41.86748" lon="19.60113">
        <ele>47.572438</ele>
        <time>2022-05-15T09:23:31.923Z</time>
      </trkpt>
      <trkpt lat="41.86757" lon="19.601">
        <ele>47.201788</ele>
        <time>2022-05-15T09:23:34.919Z</time>
      </trkpt>
      <trkpt lat="41.86767" lon="19.60088">
        <ele>46.838087</ele>
        <time>2022-05-15T09:23:37.909Z</time>
      </trkpt>
      <trkpt lat="41.86776" lon="19.60077">
        <ele>46.492933</ele>
        <time>2022-05-15T09:23:40.917Z</time>
      </trkpt>
      <trkpt lat="41.86785" lon="19.60065">
        <ele>46.125208</ele>
        <time>2022-05-15T09:23:43.952Z</time>
      </trkpt>
      <trkpt lat="41.86794" lon="19.60052">
        <ele>45.756453</ele>
        <time>2022-05-15T09:23:46.957Z</time>
      </trkpt>
      <trkpt lat="41.86802" lon="19.60041">
        <ele>45.433309</ele>
        <time>2022-05-15T09:23:49.909Z</time>
      </trkpt>
      <trkpt lat="41.86809" lon="19.6003">
        <ele>45.13181</ele>
        <time>2022-05-15T09:23:52.913Z</time>
      </trkpt>
      <trkpt lat="41.86817" lon="19.6002">
        <ele>44.813913</ele>
        <time>2022-05-15T09:23:55.918Z</time>
      </trkpt>
      <trkpt lat="41.86827" lon="19.60018">
        <ele>44.62626</ele>
        <time>2022-05-15T09:23:58.936Z</time>
      </trkpt>
      <trkpt lat="41.86839" lon="19.60026">
        <ele>44.682225</ele>
        <time>2022-05-15T09:24:01.911Z</time>
      </trkpt>
      <trkpt lat="41.86848" lon="19.60033">
        <ele>44.728845</ele>
        <time>2022-05-15T09:24:03.924Z</time>
      </trkpt>
      <trkpt lat="41.86857" lon="19.60039">
        <ele>44.77443</ele>
        <time>2022-05-15T09:24:05.915Z</time>
      </trkpt>
      <trkpt lat="41.86866" lon="19.60045">
        <ele>44.818159</ele>
        <time>2022-05-15T09:24:07.910Z</time>
      </trkpt>
      <trkpt lat="41.86875" lon="19.6005">
        <ele>44.859739</ele>
        <time>2022-05-15T09:24:09.921Z</time>
      </trkpt>
      <trkpt lat="41.86887" lon="19.60057">
        <ele>44.916336</ele>
        <time>2022-05-15T09:24:12.914Z</time>
      </trkpt>
      <trkpt lat="41.86899" lon="19.60064">
        <ele>44.972001</ele>
        <time>2022-05-15T09:24:15.917Z</time>
      </trkpt>
      <trkpt lat="41.8691" lon="19.60071">
        <ele>45.025409</ele>
        <time>2022-05-15T09:24:18.923Z</time>
      </trkpt>
      <trkpt lat="41.86919" lon="19.60076">
        <ele>45.067257</ele>
        <time>2022-05-15T09:24:20.921Z</time>
      </trkpt>
      <trkpt lat="41.86927" lon="19.60082">
        <ele>45.110311</ele>
        <time>2022-05-15T09:24:22.914Z</time>
      </trkpt>
      <trkpt lat="41.86936" lon="19.60086">
        <ele>45.150045</ele>
        <time>2022-05-15T09:24:24.925Z</time>
      </trkpt>
      <trkpt lat="41.86946" lon="19.60093">
        <ele>45.201198</ele>
        <time>2022-05-15T09:24:27.908Z</time>
      </trkpt>
      <trkpt lat="41.86958" lon="19.601">
        <ele>45.255277</ele>
        <time>2022-05-15T09:24:30.943Z</time>
      </trkpt>
      <trkpt lat="41.8697" lon="19.60107">
        <ele>45.312665</ele>
        <time>2022-05-15T09:24:33.910Z</time>
      </trkpt>
      <trkpt lat="41.86982" lon="19.60115">
        <ele>45.370458</ele>
        <time>2022-05-15T09:24:36.910Z</time>
      </trkpt>
      <trkpt lat="41.86993" lon="19.60122">
        <ele>45.395299</ele>
        <time>2022-05-15T09:24:39.923Z</time>
      </trkpt>
      <trkpt lat="41.87003" lon="19.60129">
        <ele>45.388001</ele>
        <time>2022-05-15T09:24:42.914Z</time>
      </trkpt>
      <trkpt lat="41.87015" lon="19.60137">
        <ele>45.380101</ele>
        <time>2022-05-15T09:24:45.920Z</time>
      </trkpt>
      <trkpt lat="41.87023" lon="19.60142">
        <ele>45.374438</ele>
        <time>2022-05-15T09:24:47.914Z</time>
      </trkpt>
      <trkpt lat="41.87031" lon="19.60148">
        <ele>45.368774</ele>
        <time>2022-05-15T09:24:49.917Z</time>
      </trkpt>
      <trkpt lat="41.87041" lon="19.60155">
        <ele>45.36141</ele>
        <time>2022-05-15T09:24:52.921Z</time>
      </trkpt>
      <trkpt lat="41.87053" lon="19.60163">
        <ele>45.353598</ele>
        <time>2022-05-15T09:24:55.920Z</time>
      </trkpt>
      <trkpt lat="41.87062" lon="19.60166">
        <ele>45.347953</ele>
        <time>2022-05-15T09:24:57.937Z</time>
      </trkpt>
      <trkpt lat="41.87072" lon="19.60169">
        <ele>45.341271</ele>
        <time>2022-05-15T09:24:59.921Z</time>
      </trkpt>
      <trkpt lat="41.87083" lon="19.60171">
        <ele>45.334626</ele>
        <time>2022-05-15T09:25:01.912Z</time>
      </trkpt>
      <trkpt lat="41.87093" lon="19.60172">
        <ele>45.328443</ele>
        <time>2022-05-15T09:25:03.907Z</time>
      </trkpt>
      <trkpt lat="41.87102" lon="19.60174">
        <ele>45.322711</ele>
        <time>2022-05-15T09:25:05.910Z</time>
      </trkpt>
      <trkpt lat="41.87115" lon="19.60176">
        <ele>45.31472</ele>
        <time>2022-05-15T09:25:08.939Z</time>
      </trkpt>
      <trkpt lat="41.87127" lon="19.60177">
        <ele>45.307011</ele>
        <time>2022-05-15T09:25:11.928Z</time>
      </trkpt>
      <trkpt lat="41.87138" lon="19.60179">
        <ele>45.300078</ele>
        <time>2022-05-15T09:25:14.918Z</time>
      </trkpt>
      <trkpt lat="41.87148" lon="19.6018">
        <ele>45.294227</ele>
        <time>2022-05-15T09:25:17.915Z</time>
      </trkpt>
      <trkpt lat="41.87159" lon="19.60181">
        <ele>45.287395</ele>
        <time>2022-05-15T09:25:20.914Z</time>
      </trkpt>
      <trkpt lat="41.8717" lon="19.60182">
        <ele>45.175049</ele>
        <time>2022-05-15T09:25:23.913Z</time>
      </trkpt>
      <trkpt lat="41.87179" lon="19.60184">
        <ele>45.087805</ele>
        <time>2022-05-15T09:25:25.944Z</time>
      </trkpt>
      <trkpt lat="41.87193" lon="19.60186">
        <ele>44.962012</ele>
        <time>2022-05-15T09:25:28.933Z</time>
      </trkpt>
      <trkpt lat="41.87206" lon="19.60184">
        <ele>44.836277</ele>
        <time>2022-05-15T09:25:31.911Z</time>
      </trkpt>
      <trkpt lat="41.87218" lon="19.60177">
        <ele>44.711722</ele>
        <time>2022-05-15T09:25:34.919Z</time>
      </trkpt>
      <trkpt lat="41.87226" lon="19.60171">
        <ele>44.624981</ele>
        <time>2022-05-15T09:25:36.934Z</time>
      </trkpt>
      <trkpt lat="41.87236" lon="19.60161">
        <ele>44.501995</ele>
        <time>2022-05-15T09:25:39.914Z</time>
      </trkpt>
      <trkpt lat="41.87246" lon="19.60153">
        <ele>44.393193</ele>
        <time>2022-05-15T09:25:42.922Z</time>
      </trkpt>
      <trkpt lat="41.87256" lon="19.60144">
        <ele>44.279942</ele>
        <time>2022-05-15T09:25:45.916Z</time>
      </trkpt>
      <trkpt lat="41.87267" lon="19.60135">
        <ele>44.15726</ele>
        <time>2022-05-15T09:25:48.926Z</time>
      </trkpt>
      <trkpt lat="41.87278" lon="19.60126">
        <ele>44.038551</ele>
        <time>2022-05-15T09:25:51.915Z</time>
      </trkpt>
      <trkpt lat="41.87288" lon="19.60117">
        <ele>43.921066</ele>
        <time>2022-05-15T09:25:54.930Z</time>
      </trkpt>
      <trkpt lat="41.87296" lon="19.60104">
        <ele>43.799131</ele>
        <time>2022-05-15T09:25:57.916Z</time>
      </trkpt>
      <trkpt lat="41.87299" lon="19.60092">
        <ele>43.713963</ele>
        <time>2022-05-15T09:25:59.913Z</time>
      </trkpt>
      <trkpt lat="41.87303" lon="19.60076">
        <ele>43.590884</ele>
        <time>2022-05-15T09:26:02.922Z</time>
      </trkpt>
      <trkpt lat="41.87308" lon="19.60061">
        <ele>43.681283</ele>
        <time>2022-05-15T09:26:05.908Z</time>
      </trkpt>
      <trkpt lat="41.87312" lon="19.60047">
        <ele>43.782831</ele>
        <time>2022-05-15T09:26:08.939Z</time>
      </trkpt>
      <trkpt lat="41.87316" lon="19.60033">
        <ele>43.88246</ele>
        <time>2022-05-15T09:26:11.912Z</time>
      </trkpt>
      <trkpt lat="41.87319" lon="19.6002">
        <ele>43.977936</ele>
        <time>2022-05-15T09:26:14.927Z</time>
      </trkpt>
      <trkpt lat="41.87323" lon="19.60007">
        <ele>44.074385</ele>
        <time>2022-05-15T09:26:17.913Z</time>
      </trkpt>
      <trkpt lat="41.87327" lon="19.59993">
        <ele>44.175622</ele>
        <time>2022-05-15T09:26:20.940Z</time>
      </trkpt>
      <trkpt lat="41.87331" lon="19.59979">
        <ele>44.278778</ele>
        <time>2022-05-15T09:26:23.923Z</time>
      </trkpt>
      <trkpt lat="41.87335" lon="19.59966">
        <ele>44.373283</ele>
        <time>2022-05-15T09:26:26.923Z</time>
      </trkpt>
      <trkpt lat="41.87339" lon="19.59953">
        <ele>44.469444</ele>
        <time>2022-05-15T09:26:29.933Z</time>
      </trkpt>
      <trkpt lat="41.87343" lon="19.5994">
        <ele>44.568484</ele>
        <time>2022-05-15T09:26:32.919Z</time>
      </trkpt>
      <trkpt lat="41.87347" lon="19.59927">
        <ele>44.661236</ele>
        <time>2022-05-15T09:26:35.919Z</time>
      </trkpt>
      <trkpt lat="41.87352" lon="19.59915">
        <ele>44.75709</ele>
        <time>2022-05-15T09:26:38.923Z</time>
      </trkpt>
      <trkpt lat="41.87359" lon="19.59903">
        <ele>44.85908</ele>
        <time>2022-05-15T09:26:41.924Z</time>
      </trkpt>
      <trkpt lat="41.87366" lon="19.59892">
        <ele>44.959812</ele>
        <time>2022-05-15T09:26:44.928Z</time>
      </trkpt>
      <trkpt lat="41.87374" lon="19.59881">
        <ele>45.063522</ele>
        <time>2022-05-15T09:26:47.910Z</time>
      </trkpt>
      <trkpt lat="41.87382" lon="19.5987">
        <ele>45.167113</ele>
        <time>2022-05-15T09:26:50.913Z</time>
      </trkpt>
      <trkpt lat="41.8739" lon="19.59859">
        <ele>45.216661</ele>
        <time>2022-05-15T09:26:53.917Z</time>
      </trkpt>
      <trkpt lat="41.87398" lon="19.59847">
        <ele>45.1805</ele>
        <time>2022-05-15T09:26:56.947Z</time>
      </trkpt>
      <trkpt lat="41.87407" lon="19.59836">
        <ele>45.142736</ele>
        <time>2022-05-15T09:26:59.915Z</time>
      </trkpt>
      <trkpt lat="41.87415" lon="19.59825">
        <ele>45.107693</ele>
        <time>2022-05-15T09:27:02.911Z</time>
      </trkpt>
      <trkpt lat="41.87423" lon="19.59814">
        <ele>45.073137</ele>
        <time>2022-05-15T09:27:05.911Z</time>
      </trkpt>
      <trkpt lat="41.87431" lon="19.59803">
        <ele>45.037932</ele>
        <time>2022-05-15T09:27:08.917Z</time>
      </trkpt>
      <trkpt lat="41.87439" lon="19.59791">
        <ele>45.002518</ele>
        <time>2022-05-15T09:27:11.921Z</time>
      </trkpt>
      <trkpt lat="41.87448" lon="19.59781">
        <ele>44.968382</ele>
        <time>2022-05-15T09:27:14.916Z</time>
      </trkpt>
      <trkpt lat="41.87455" lon="19.5977">
        <ele>44.935203</ele>
        <time>2022-05-15T09:27:17.921Z</time>
      </trkpt>
      <trkpt lat="41.87464" lon="19.59759">
        <ele>44.898244</ele>
        <time>2022-05-15T09:27:20.922Z</time>
      </trkpt>
      <trkpt lat="41.87472" lon="19.59747">
        <ele>44.861337</ele>
        <time>2022-05-15T09:27:23.929Z</time>
      </trkpt>
      <trkpt lat="41.87481" lon="19.59736">
        <ele>44.82519</ele>
        <time>2022-05-15T09:27:26.979Z</time>
      </trkpt>
      <trkpt lat="41.87489" lon="19.59726">
        <ele>44.791076</ele>
        <time>2022-05-15T09:27:29.944Z</time>
      </trkpt>
      <trkpt lat="41.87496" lon="19.59715">
        <ele>44.759656</ele>
        <time>2022-05-15T09:27:32.947Z</time>
      </trkpt>
      <trkpt lat="41.87504" lon="19.59706">
        <ele>44.727489</ele>
        <time>2022-05-15T09:27:35.944Z</time>
      </trkpt>
      <trkpt lat="41.87512" lon="19.59695">
        <ele>44.693946</ele>
        <time>2022-05-15T09:27:38.957Z</time>
      </trkpt>
      <trkpt lat="41.8752" lon="19.59685">
        <ele>44.620974</ele>
        <time>2022-05-15T09:27:41.971Z</time>
      </trkpt>
      <trkpt lat="41.87528" lon="19.59674">
        <ele>44.536311</ele>
        <time>2022-05-15T09:27:44.950Z</time>
      </trkpt>
      <trkpt lat="41.87536" lon="19.59663">
        <ele>44.449371</ele>
        <time>2022-05-15T09:27:47.943Z</time>
      </trkpt>
      <trkpt lat="41.87544" lon="19.59652">
        <ele>44.358277</ele>
        <time>2022-05-15T09:27:50.953Z</time>
      </trkpt>
      <trkpt lat="41.87553" lon="19.59641">
        <ele>44.263028</ele>
        <time>2022-05-15T09:27:53.941Z</time>
      </trkpt>
      <trkpt lat="41.87562" lon="19.59629">
        <ele>44.171386</ele>
        <time>2022-05-15T09:27:56.957Z</time>
      </trkpt>
      <trkpt lat="41.8757" lon="19.59619">
        <ele>44.087661</ele>
        <time>2022-05-15T09:27:59.977Z</time>
      </trkpt>
      <trkpt lat="41.87578" lon="19.59609">
        <ele>44.002669</ele>
        <time>2022-05-15T09:28:02.939Z</time>
      </trkpt>
      <trkpt lat="41.87586" lon="19.59599">
        <ele>43.917678</ele>
        <time>2022-05-15T09:28:05.970Z</time>
      </trkpt>
      <trkpt lat="41.87595" lon="19.59588">
        <ele>43.830972</ele>
        <time>2022-05-15T09:28:08.950Z</time>
      </trkpt>
      <trkpt lat="41.87603" lon="19.59577">
        <ele>43.738287</ele>
        <time>2022-05-15T09:28:11.976Z</time>
      </trkpt>
      <trkpt lat="41.87612" lon="19.59565">
        <ele>43.646095</ele>
        <time>2022-05-15T09:28:14.933Z</time>
      </trkpt>
      <trkpt lat="41.8762" lon="19.59554">
        <ele>43.556348</ele>
        <time>2022-05-15T09:28:17.950Z</time>
      </trkpt>
      <trkpt lat="41.87628" lon="19.59546">
        <ele>43.483981</ele>
        <time>2022-05-15T09:28:20.936Z</time>
      </trkpt>
      <trkpt lat="41.87634" lon="19.59537">
        <ele>43.411647</ele>
        <time>2022-05-15T09:28:23.955Z</time>
      </trkpt>
      <trkpt lat="41.87642" lon="19.59527">
        <ele>43.331136</ele>
        <time>2022-05-15T09:28:26.940Z</time>
      </trkpt>
      <trkpt lat="41.8765" lon="19.59516">
        <ele>43.424115</ele>
        <time>2022-05-15T09:28:29.933Z</time>
      </trkpt>
      <trkpt lat="41.87657" lon="19.59505">
        <ele>43.548417</ele>
        <time>2022-05-15T09:28:32.942Z</time>
      </trkpt>
      <trkpt lat="41.87665" lon="19.59495">
        <ele>43.673524</ele>
        <time>2022-05-15T09:28:35.939Z</time>
      </trkpt>
      <trkpt lat="41.87673" lon="19.59484">
        <ele>43.802638</ele>
        <time>2022-05-15T09:28:38.973Z</time>
      </trkpt>
      <trkpt lat="41.87681" lon="19.59474">
        <ele>43.924133</ele>
        <time>2022-05-15T09:28:41.933Z</time>
      </trkpt>
      <trkpt lat="41.87688" lon="19.59463">
        <ele>44.044972</ele>
        <time>2022-05-15T09:28:44.953Z</time>
      </trkpt>
      <trkpt lat="41.87695" lon="19.59452">
        <ele>44.171021</ele>
        <time>2022-05-15T09:28:47.919Z</time>
      </trkpt>
      <trkpt lat="41.87702" lon="19.59439">
        <ele>44.302936</ele>
        <time>2022-05-15T09:28:50.931Z</time>
      </trkpt>
      <trkpt lat="41.87707" lon="19.59426">
        <ele>44.430252</ele>
        <time>2022-05-15T09:28:53.935Z</time>
      </trkpt>
      <trkpt lat="41.87712" lon="19.59413">
        <ele>44.556279</ele>
        <time>2022-05-15T09:28:56.929Z</time>
      </trkpt>
      <trkpt lat="41.87716" lon="19.594">
        <ele>44.678265</ele>
        <time>2022-05-15T09:28:59.948Z</time>
      </trkpt>
      <trkpt lat="41.87721" lon="19.59389">
        <ele>44.786487</ele>
        <time>2022-05-15T09:29:02.952Z</time>
      </trkpt>
      <trkpt lat="41.87727" lon="19.59378">
        <ele>44.898658</ele>
        <time>2022-05-15T09:29:05.929Z</time>
      </trkpt>
      <trkpt lat="41.87732" lon="19.59367">
        <ele>45.008023</ele>
        <time>2022-05-15T09:29:08.941Z</time>
      </trkpt>
      <trkpt lat="41.87735" lon="19.59354">
        <ele>45.122107</ele>
        <time>2022-05-15T09:29:11.932Z</time>
      </trkpt>
      <trkpt lat="41.8774" lon="19.59341">
        <ele>45.246608</ele>
        <time>2022-05-15T09:29:14.917Z</time>
      </trkpt>
      <trkpt lat="41.87745" lon="19.59329">
        <ele>45.364709</ele>
        <time>2022-05-15T09:29:17.972Z</time>
      </trkpt>
      <trkpt lat="41.8775" lon="19.59316">
        <ele>45.340522</ele>
        <time>2022-05-15T09:29:20.950Z</time>
      </trkpt>
      <trkpt lat="41.87755" lon="19.59303">
        <ele>45.315132</ele>
        <time>2022-05-15T09:29:23.943Z</time>
      </trkpt>
      <trkpt lat="41.8776" lon="19.5929">
        <ele>45.288154</ele>
        <time>2022-05-15T09:29:26.940Z</time>
      </trkpt>
      <trkpt lat="41.87766" lon="19.59277">
        <ele>45.262085</ele>
        <time>2022-05-15T09:29:29.926Z</time>
      </trkpt>
      <trkpt lat="41.87771" lon="19.59263">
        <ele>45.235818</ele>
        <time>2022-05-15T09:29:32.940Z</time>
      </trkpt>
      <trkpt lat="41.87776" lon="19.5925">
        <ele>45.209705</ele>
        <time>2022-05-15T09:29:35.938Z</time>
      </trkpt>
      <trkpt lat="41.87782" lon="19.59236">
        <ele>45.182451</ele>
        <time>2022-05-15T09:29:38.961Z</time>
      </trkpt>
      <trkpt lat="41.87787" lon="19.59223">
        <ele>45.156381</ele>
        <time>2022-05-15T09:29:41.945Z</time>
      </trkpt>
      <trkpt lat="41.87792" lon="19.5921">
        <ele>45.131468</ele>
        <time>2022-05-15T09:29:44.943Z</time>
      </trkpt>
      <trkpt lat="41.87796" lon="19.59197">
        <ele>45.106815</ele>
        <time>2022-05-15T09:29:47.952Z</time>
      </trkpt>
      <trkpt lat="41.87801" lon="19.59184">
        <ele>45.080916</ele>
        <time>2022-05-15T09:29:50.936Z</time>
      </trkpt>
      <trkpt lat="41.87807" lon="19.5917">
        <ele>45.053137</ele>
        <time>2022-05-15T09:29:53.954Z</time>
      </trkpt>
      <trkpt lat="41.87812" lon="19.59156">
        <ele>45.025574</ele>
        <time>2022-05-15T09:29:56.943Z</time>
      </trkpt>
      <trkpt lat="41.87818" lon="19.59142">
        <ele>44.999307</ele>
        <time>2022-05-15T09:29:59.990Z</time>
      </trkpt>
      <trkpt lat="41.87823" lon="19.59129">
        <ele>44.973431</ele>
        <time>2022-05-15T09:30:02.939Z</time>
      </trkpt>
      <trkpt lat="41.87828" lon="19.59115">
        <ele>44.945761</ele>
        <time>2022-05-15T09:30:05.923Z</time>
      </trkpt>
      <trkpt lat="41.87834" lon="19.59102">
        <ele>44.888239</ele>
        <time>2022-05-15T09:30:08.961Z</time>
      </trkpt>
      <trkpt lat="41.87839" lon="19.59089">
        <ele>44.830005</ele>
        <time>2022-05-15T09:30:11.943Z</time>
      </trkpt>
      <trkpt lat="41.87845" lon="19.59075">
        <ele>44.77023</ele>
        <time>2022-05-15T09:30:14.932Z</time>
      </trkpt>
      <trkpt lat="41.8785" lon="19.5906">
        <ele>44.708385</ele>
        <time>2022-05-15T09:30:18.000Z</time>
      </trkpt>
      <trkpt lat="41.87856" lon="19.59046">
        <ele>44.647644</ele>
        <time>2022-05-15T09:30:20.938Z</time>
      </trkpt>
      <trkpt lat="41.87862" lon="19.59033">
        <ele>44.587321</ele>
        <time>2022-05-15T09:30:23.952Z</time>
      </trkpt>
      <trkpt lat="41.87868" lon="19.5902">
        <ele>44.529831</ele>
        <time>2022-05-15T09:30:26.955Z</time>
      </trkpt>
      <trkpt lat="41.87874" lon="19.59009">
        <ele>44.476394</ele>
        <time>2022-05-15T09:30:29.961Z</time>
      </trkpt>
      <trkpt lat="41.87879" lon="19.58997">
        <ele>44.424077</ele>
        <time>2022-05-15T09:30:32.945Z</time>
      </trkpt>
      <trkpt lat="41.87886" lon="19.58985">
        <ele>44.366664</ele>
        <time>2022-05-15T09:30:35.937Z</time>
      </trkpt>
      <trkpt lat="41.87892" lon="19.58973">
        <ele>44.308597</ele>
        <time>2022-05-15T09:30:38.935Z</time>
      </trkpt>
      <trkpt lat="41.87898" lon="19.5896">
        <ele>44.251349</ele>
        <time>2022-05-15T09:30:41.947Z</time>
      </trkpt>
      <trkpt lat="41.87904" lon="19.58948">
        <ele>44.195666</ele>
        <time>2022-05-15T09:30:44.940Z</time>
      </trkpt>
      <trkpt lat="41.87911" lon="19.58935">
        <ele>44.135184</ele>
        <time>2022-05-15T09:30:47.954Z</time>
      </trkpt>
      <trkpt lat="41.87918" lon="19.58923">
        <ele>44.07709</ele>
        <time>2022-05-15T09:30:50.981Z</time>
      </trkpt>
      <trkpt lat="41.87924" lon="19.5891">
        <ele>44.01711</ele>
        <time>2022-05-15T09:30:53.944Z</time>
      </trkpt>
      <trkpt lat="41.87929" lon="19.58897">
        <ele>43.931694</ele>
        <time>2022-05-15T09:30:56.953Z</time>
      </trkpt>
      <trkpt lat="41.87936" lon="19.58884">
        <ele>43.840753</ele>
        <time>2022-05-15T09:30:59.948Z</time>
      </trkpt>
      <trkpt lat="41.87943" lon="19.58872">
        <ele>43.753537</ele>
        <time>2022-05-15T09:31:02.944Z</time>
      </trkpt>
      <trkpt lat="41.87949" lon="19.58861">
        <ele>43.670521</ele>
        <time>2022-05-15T09:31:05.939Z</time>
      </trkpt>
      <trkpt lat="41.87954" lon="19.5885">
        <ele>43.59257</ele>
        <time>2022-05-15T09:31:08.964Z</time>
      </trkpt>
      <trkpt lat="41.8796" lon="19.58838">
        <ele>43.512354</ele>
        <time>2022-05-15T09:31:11.944Z</time>
      </trkpt>
      <trkpt lat="41.87966" lon="19.58826">
        <ele>43.429526</ele>
        <time>2022-05-15T09:31:14.930Z</time>
      </trkpt>
      <trkpt lat="41.87972" lon="19.58814">
        <ele>43.345792</ele>
        <time>2022-05-15T09:31:17.979Z</time>
      </trkpt>
      <trkpt lat="41.87977" lon="19.58802">
        <ele>43.26098</ele>
        <time>2022-05-15T09:31:20.944Z</time>
      </trkpt>
      <trkpt lat="41.87983" lon="19.58789">
        <ele>43.176666</ele>
        <time>2022-05-15T09:31:23.942Z</time>
      </trkpt>
      <trkpt lat="41.87988" lon="19.58778">
        <ele>43.097543</ele>
        <time>2022-05-15T09:31:26.937Z</time>
      </trkpt>
      <trkpt lat="41.87994" lon="19.58766">
        <ele>43.016681</ele>
        <time>2022-05-15T09:31:29.915Z</time>
      </trkpt>
      <trkpt lat="41.88" lon="19.58753">
        <ele>42.930705</ele>
        <time>2022-05-15T09:31:32.907Z</time>
      </trkpt>
      <trkpt lat="41.88006" lon="19.5874">
        <ele>42.839668</ele>
        <time>2022-05-15T09:31:35.917Z</time>
      </trkpt>
      <trkpt lat="41.88013" lon="19.58727">
        <ele>42.742545</ele>
        <time>2022-05-15T09:31:38.937Z</time>
      </trkpt>
      <trkpt lat="41.8802" lon="19.58713">
        <ele>42.646626</ele>
        <time>2022-05-15T09:31:41.959Z</time>
      </trkpt>
      <trkpt lat="41.88025" lon="19.58699">
        <ele>42.650192</ele>
        <time>2022-05-15T09:31:44.942Z</time>
      </trkpt>
      <trkpt lat="41.88031" lon="19.58685">
        <ele>42.704658</ele>
        <time>2022-05-15T09:31:47.940Z</time>
      </trkpt>
      <trkpt lat="41.8804" lon="19.58673">
        <ele>42.759061</ele>
        <time>2022-05-15T09:31:50.927Z</time>
      </trkpt>
      <trkpt lat="41.88049" lon="19.58665">
        <ele>42.806423</ele>
        <time>2022-05-15T09:31:53.925Z</time>
      </trkpt>
      <trkpt lat="41.88061" lon="19.5866">
        <ele>42.860618</ele>
        <time>2022-05-15T09:31:56.944Z</time>
      </trkpt>
      <trkpt lat="41.8807" lon="19.58658">
        <ele>42.904576</ele>
        <time>2022-05-15T09:31:58.939Z</time>
      </trkpt>
      <trkpt lat="41.88083" lon="19.58659">
        <ele>42.962548</ele>
        <time>2022-05-15T09:32:01.937Z</time>
      </trkpt>
      <trkpt lat="41.88094" lon="19.5866">
        <ele>43.010462</ele>
        <time>2022-05-15T09:32:04.925Z</time>
      </trkpt>
      <trkpt lat="41.88105" lon="19.58663">
        <ele>43.059547</ele>
        <time>2022-05-15T09:32:07.953Z</time>
      </trkpt>
      <trkpt lat="41.88116" lon="19.58666">
        <ele>43.108767</ele>
        <time>2022-05-15T09:32:10.932Z</time>
      </trkpt>
      <trkpt lat="41.88127" lon="19.58669">
        <ele>43.159164</ele>
        <time>2022-05-15T09:32:13.943Z</time>
      </trkpt>
      <trkpt lat="41.88138" lon="19.58672">
        <ele>43.209832</ele>
        <time>2022-05-15T09:32:16.917Z</time>
      </trkpt>
      <trkpt lat="41.88148" lon="19.58674">
        <ele>43.2556</ele>
        <time>2022-05-15T09:32:19.951Z</time>
      </trkpt>
      <trkpt lat="41.88158" lon="19.58676">
        <ele>43.300611</ele>
        <time>2022-05-15T09:32:22.933Z</time>
      </trkpt>
      <trkpt lat="41.88168" lon="19.58678">
        <ele>43.346505</ele>
        <time>2022-05-15T09:32:25.978Z</time>
      </trkpt>
      <trkpt lat="41.88179" lon="19.5868">
        <ele>43.39447</ele>
        <time>2022-05-15T09:32:28.944Z</time>
      </trkpt>
      <trkpt lat="41.8819" lon="19.58683">
        <ele>43.414263</ele>
        <time>2022-05-15T09:32:31.983Z</time>
      </trkpt>
      <trkpt lat="41.882" lon="19.58686">
        <ele>43.407847</ele>
        <time>2022-05-15T09:32:34.933Z</time>
      </trkpt>
      <trkpt lat="41.88211" lon="19.58688">
        <ele>43.401435</ele>
        <time>2022-05-15T09:32:37.922Z</time>
      </trkpt>
      <trkpt lat="41.88222" lon="19.5869">
        <ele>43.395222</ele>
        <time>2022-05-15T09:32:40.949Z</time>
      </trkpt>
      <trkpt lat="41.88233" lon="19.58693">
        <ele>43.388928</ele>
        <time>2022-05-15T09:32:43.938Z</time>
      </trkpt>
      <trkpt lat="41.88244" lon="19.5869">
        <ele>43.382269</ele>
        <time>2022-05-15T09:32:46.932Z</time>
      </trkpt>
      <trkpt lat="41.88248" lon="19.58677">
        <ele>43.376071</ele>
        <time>2022-05-15T09:32:49.942Z</time>
      </trkpt>
      <trkpt lat="41.88249" lon="19.58662">
        <ele>43.369814</ele>
        <time>2022-05-15T09:32:52.941Z</time>
      </trkpt>
      <trkpt lat="41.88249" lon="19.58648">
        <ele>43.36354</ele>
        <time>2022-05-15T09:32:55.946Z</time>
      </trkpt>
      <trkpt lat="41.88248" lon="19.58633">
        <ele>43.357266</ele>
        <time>2022-05-15T09:32:58.944Z</time>
      </trkpt>
      <trkpt lat="41.8825" lon="19.58619">
        <ele>43.351117</ele>
        <time>2022-05-15T09:33:01.939Z</time>
      </trkpt>
      <trkpt lat="41.88251" lon="19.58605">
        <ele>43.345121</ele>
        <time>2022-05-15T09:33:04.943Z</time>
      </trkpt>
      <trkpt lat="41.88253" lon="19.5859">
        <ele>43.338673</ele>
        <time>2022-05-15T09:33:07.936Z</time>
      </trkpt>
      <trkpt lat="41.88255" lon="19.58575">
        <ele>43.332046</ele>
        <time>2022-05-15T09:33:10.932Z</time>
      </trkpt>
      <trkpt lat="41.88258" lon="19.58561">
        <ele>43.325694</ele>
        <time>2022-05-15T09:33:13.962Z</time>
      </trkpt>
      <trkpt lat="41.88259" lon="19.58546">
        <ele>43.319316</ele>
        <time>2022-05-15T09:33:16.979Z</time>
      </trkpt>
      <trkpt lat="41.88261" lon="19.58531">
        <ele>43.286346</ele>
        <time>2022-05-15T09:33:19.939Z</time>
      </trkpt>
      <trkpt lat="41.88263" lon="19.58516">
        <ele>43.121849</ele>
        <time>2022-05-15T09:33:22.944Z</time>
      </trkpt>
      <trkpt lat="41.88265" lon="19.58501">
        <ele>42.954941</ele>
        <time>2022-05-15T09:33:25.944Z</time>
      </trkpt>
      <trkpt lat="41.88268" lon="19.58486">
        <ele>42.780914</ele>
        <time>2022-05-15T09:33:28.932Z</time>
      </trkpt>
      <trkpt lat="41.88274" lon="19.58471">
        <ele>42.601999</ele>
        <time>2022-05-15T09:33:31.932Z</time>
      </trkpt>
      <trkpt lat="41.88282" lon="19.58458">
        <ele>42.414542</ele>
        <time>2022-05-15T09:33:34.938Z</time>
      </trkpt>
      <trkpt lat="41.8829" lon="19.58446">
        <ele>42.238324</ele>
        <time>2022-05-15T09:33:37.937Z</time>
      </trkpt>
      <trkpt lat="41.88298" lon="19.58437">
        <ele>42.08484</ele>
        <time>2022-05-15T09:33:40.950Z</time>
      </trkpt>
      <trkpt lat="41.88306" lon="19.58426">
        <ele>41.910885</ele>
        <time>2022-05-15T09:33:44.931Z</time>
      </trkpt>
      <trkpt lat="41.88314" lon="19.58416">
        <ele>41.749363</ele>
        <time>2022-05-15T09:33:47.935Z</time>
      </trkpt>
      <trkpt lat="41.88324" lon="19.58404">
        <ele>41.557822</ele>
        <time>2022-05-15T09:33:50.934Z</time>
      </trkpt>
      <trkpt lat="41.8833" lon="19.58395">
        <ele>41.421009</ele>
        <time>2022-05-15T09:33:52.935Z</time>
      </trkpt>
      <trkpt lat="41.88337" lon="19.58387">
        <ele>41.287997</ele>
        <time>2022-05-15T09:33:54.931Z</time>
      </trkpt>
      <trkpt lat="41.88346" lon="19.58374">
        <ele>41.098322</ele>
        <time>2022-05-15T09:33:57.976Z</time>
      </trkpt>
      <trkpt lat="41.88354" lon="19.58363">
        <ele>40.920564</ele>
        <time>2022-05-15T09:34:00.945Z</time>
      </trkpt>
      <trkpt lat="41.88363" lon="19.58352">
        <ele>40.747975</ele>
        <time>2022-05-15T09:34:03.965Z</time>
      </trkpt>
      <trkpt lat="41.8837" lon="19.5834">
        <ele>40.821014</ele>
        <time>2022-05-15T09:34:06.933Z</time>
      </trkpt>
      <trkpt lat="41.88378" lon="19.5833">
        <ele>41.103912</ele>
        <time>2022-05-15T09:34:09.954Z</time>
      </trkpt>
      <trkpt lat="41.88386" lon="19.58319">
        <ele>41.396754</ele>
        <time>2022-05-15T09:34:12.940Z</time>
      </trkpt>
      <trkpt lat="41.88394" lon="19.58309">
        <ele>41.681425</ele>
        <time>2022-05-15T09:34:15.938Z</time>
      </trkpt>
      <trkpt lat="41.88402" lon="19.58299">
        <ele>41.958988</ele>
        <time>2022-05-15T09:34:18.954Z</time>
      </trkpt>
      <trkpt lat="41.8841" lon="19.58288">
        <ele>42.238746</ele>
        <time>2022-05-15T09:34:21.940Z</time>
      </trkpt>
      <trkpt lat="41.88418" lon="19.58278">
        <ele>42.520255</ele>
        <time>2022-05-15T09:34:24.932Z</time>
      </trkpt>
      <trkpt lat="41.88426" lon="19.58267">
        <ele>42.803094</ele>
        <time>2022-05-15T09:34:27.936Z</time>
      </trkpt>
      <trkpt lat="41.88433" lon="19.58257">
        <ele>43.080506</ele>
        <time>2022-05-15T09:34:30.939Z</time>
      </trkpt>
      <trkpt lat="41.88441" lon="19.58247">
        <ele>43.349729</ele>
        <time>2022-05-15T09:34:33.934Z</time>
      </trkpt>
      <trkpt lat="41.88448" lon="19.58239">
        <ele>43.587443</ele>
        <time>2022-05-15T09:34:36.949Z</time>
      </trkpt>
      <trkpt lat="41.88456" lon="19.58232">
        <ele>43.842181</ele>
        <time>2022-05-15T09:34:39.989Z</time>
      </trkpt>
      <trkpt lat="41.88466" lon="19.58225">
        <ele>44.121951</ele>
        <time>2022-05-15T09:34:42.922Z</time>
      </trkpt>
      <trkpt lat="41.88478" lon="19.58217">
        <ele>44.453644</ele>
        <time>2022-05-15T09:34:45.951Z</time>
      </trkpt>
      <trkpt lat="41.88488" lon="19.58209">
        <ele>44.768633</ele>
        <time>2022-05-15T09:34:48.957Z</time>
      </trkpt>
      <trkpt lat="41.885" lon="19.58201">
        <ele>45.092619</ele>
        <time>2022-05-15T09:34:51.935Z</time>
      </trkpt>
      <trkpt lat="41.88511" lon="19.58193">
        <ele>45.171079</ele>
        <time>2022-05-15T09:34:54.940Z</time>
      </trkpt>
      <trkpt lat="41.88522" lon="19.58185">
        <ele>44.967726</ele>
        <time>2022-05-15T09:34:57.929Z</time>
      </trkpt>
      <trkpt lat="41.88533" lon="19.58177">
        <ele>44.768316</ele>
        <time>2022-05-15T09:35:00.945Z</time>
      </trkpt>
      <trkpt lat="41.88543" lon="19.58171">
        <ele>44.586274</ele>
        <time>2022-05-15T09:35:03.939Z</time>
      </trkpt>
      <trkpt lat="41.88553" lon="19.58164">
        <ele>44.413324</ele>
        <time>2022-05-15T09:35:06.931Z</time>
      </trkpt>
      <trkpt lat="41.88562" lon="19.58157">
        <ele>44.246586</ele>
        <time>2022-05-15T09:35:09.989Z</time>
      </trkpt>
      <trkpt lat="41.88572" lon="19.58151">
        <ele>44.071456</ele>
        <time>2022-05-15T09:35:12.948Z</time>
      </trkpt>
      <trkpt lat="41.88584" lon="19.58143">
        <ele>43.857961</ele>
        <time>2022-05-15T09:35:15.950Z</time>
      </trkpt>
      <trkpt lat="41.88596" lon="19.58135">
        <ele>43.650711</ele>
        <time>2022-05-15T09:35:18.974Z</time>
      </trkpt>
      <trkpt lat="41.88606" lon="19.58128">
        <ele>43.467236</ele>
        <time>2022-05-15T09:35:21.936Z</time>
      </trkpt>
      <trkpt lat="41.88616" lon="19.58121">
        <ele>43.288311</ele>
        <time>2022-05-15T09:35:24.932Z</time>
      </trkpt>
      <trkpt lat="41.88625" lon="19.58112">
        <ele>43.096489</ele>
        <time>2022-05-15T09:35:27.929Z</time>
      </trkpt>
      <trkpt lat="41.88634" lon="19.58102">
        <ele>42.920174</ele>
        <time>2022-05-15T09:35:30.943Z</time>
      </trkpt>
      <trkpt lat="41.88642" lon="19.58092">
        <ele>42.746694</ele>
        <time>2022-05-15T09:35:33.936Z</time>
      </trkpt>
      <trkpt lat="41.88651" lon="19.58082">
        <ele>42.564071</ele>
        <time>2022-05-15T09:35:36.953Z</time>
      </trkpt>
      <trkpt lat="41.88659" lon="19.58072">
        <ele>42.389784</ele>
        <time>2022-05-15T09:35:39.943Z</time>
      </trkpt>
      <trkpt lat="41.88667" lon="19.58063">
        <ele>42.35559</ele>
        <time>2022-05-15T09:35:42.941Z</time>
      </trkpt>
      <trkpt lat="41.88674" lon="19.58053">
        <ele>42.322184</ele>
        <time>2022-05-15T09:35:45.933Z</time>
      </trkpt>
      <trkpt lat="41.88683" lon="19.58042">
        <ele>42.281243</ele>
        <time>2022-05-15T09:35:48.956Z</time>
      </trkpt>
      <trkpt lat="41.88693" lon="19.58031">
        <ele>42.238831</ele>
        <time>2022-05-15T09:35:51.952Z</time>
      </trkpt>
      <trkpt lat="41.88702" lon="19.5802">
        <ele>42.197489</ele>
        <time>2022-05-15T09:35:54.935Z</time>
      </trkpt>
      <trkpt lat="41.88711" lon="19.58009">
        <ele>42.158036</ele>
        <time>2022-05-15T09:35:57.979Z</time>
      </trkpt>
      <trkpt lat="41.88719" lon="19.58">
        <ele>42.122766</ele>
        <time>2022-05-15T09:36:00.943Z</time>
      </trkpt>
      <trkpt lat="41.88727" lon="19.57989">
        <ele>42.085041</ele>
        <time>2022-05-15T09:36:03.927Z</time>
      </trkpt>
      <trkpt lat="41.88736" lon="19.57979">
        <ele>42.045998</ele>
        <time>2022-05-15T09:36:06.951Z</time>
      </trkpt>
      <trkpt lat="41.88744" lon="19.57969">
        <ele>42.008763</ele>
        <time>2022-05-15T09:36:09.940Z</time>
      </trkpt>
      <trkpt lat="41.88753" lon="19.57958">
        <ele>41.969554</ele>
        <time>2022-05-15T09:36:12.942Z</time>
      </trkpt>
      <trkpt lat="41.88762" lon="19.57947">
        <ele>41.930347</ele>
        <time>2022-05-15T09:36:15.952Z</time>
      </trkpt>
      <trkpt lat="41.8877" lon="19.57937">
        <ele>41.893523</ele>
        <time>2022-05-15T09:36:18.930Z</time>
      </trkpt>
      <trkpt lat="41.88778" lon="19.57927">
        <ele>41.857425</ele>
        <time>2022-05-15T09:36:21.940Z</time>
      </trkpt>
      <trkpt lat="41.88787" lon="19.57917">
        <ele>41.81904</ele>
        <time>2022-05-15T09:36:24.943Z</time>
      </trkpt>
      <trkpt lat="41.88796" lon="19.57905">
        <ele>41.882668</ele>
        <time>2022-05-15T09:36:27.936Z</time>
      </trkpt>
      <trkpt lat="41.88805" lon="19.57894">
        <ele>42.066597</ele>
        <time>2022-05-15T09:36:30.952Z</time>
      </trkpt>
      <trkpt lat="41.88813" lon="19.57885">
        <ele>42.218892</ele>
        <time>2022-05-15T09:36:33.951Z</time>
      </trkpt>
      <trkpt lat="41.88821" lon="19.57876">
        <ele>42.391227</ele>
        <time>2022-05-15T09:36:37.940Z</time>
      </trkpt>
      <trkpt lat="41.8883" lon="19.57866">
        <ele>42.553842</ele>
        <time>2022-05-15T09:36:40.976Z</time>
      </trkpt>
      <trkpt lat="41.88839" lon="19.57856">
        <ele>42.737733</ele>
        <time>2022-05-15T09:36:43.952Z</time>
      </trkpt>
      <trkpt lat="41.88846" lon="19.57848">
        <ele>42.883972</ele>
        <time>2022-05-15T09:36:45.943Z</time>
      </trkpt>
      <trkpt lat="41.88853" lon="19.57839">
        <ele>43.02569</ele>
        <time>2022-05-15T09:36:47.940Z</time>
      </trkpt>
      <trkpt lat="41.8886" lon="19.57831">
        <ele>43.164469</ele>
        <time>2022-05-15T09:36:49.948Z</time>
      </trkpt>
      <trkpt lat="41.8887" lon="19.57819">
        <ele>43.366615</ele>
        <time>2022-05-15T09:36:52.981Z</time>
      </trkpt>
      <trkpt lat="41.88878" lon="19.57808">
        <ele>43.537013</ele>
        <time>2022-05-15T09:36:55.977Z</time>
      </trkpt>
      <trkpt lat="41.88886" lon="19.57799">
        <ele>43.698747</ele>
        <time>2022-05-15T09:36:58.947Z</time>
      </trkpt>
      <trkpt lat="41.88893" lon="19.5779">
        <ele>43.855552</ele>
        <time>2022-05-15T09:37:01.947Z</time>
      </trkpt>
      <trkpt lat="41.88901" lon="19.5778">
        <ele>44.014603</ele>
        <time>2022-05-15T09:37:04.944Z</time>
      </trkpt>
      <trkpt lat="41.8891" lon="19.5777">
        <ele>44.182331</ele>
        <time>2022-05-15T09:37:07.954Z</time>
      </trkpt>
      <trkpt lat="41.88918" lon="19.5776">
        <ele>44.36212</ele>
        <time>2022-05-15T09:37:10.953Z</time>
      </trkpt>
      <trkpt lat="41.88927" lon="19.57749">
        <ele>44.524796</ele>
        <time>2022-05-15T09:37:13.942Z</time>
      </trkpt>
      <trkpt lat="41.88935" lon="19.57739">
        <ele>44.510014</ele>
        <time>2022-05-15T09:37:16.953Z</time>
      </trkpt>
      <trkpt lat="41.88944" lon="19.57729">
        <ele>44.495127</ele>
        <time>2022-05-15T09:37:19.933Z</time>
      </trkpt>
      <trkpt lat="41.88952" lon="19.57719">
        <ele>44.479884</ele>
        <time>2022-05-15T09:37:22.934Z</time>
      </trkpt>
      <trkpt lat="41.8896" lon="19.57709">
        <ele>44.464938</ele>
        <time>2022-05-15T09:37:25.934Z</time>
      </trkpt>
      <trkpt lat="41.88969" lon="19.57698">
        <ele>44.449161</ele>
        <time>2022-05-15T09:37:28.978Z</time>
      </trkpt>
      <trkpt lat="41.88977" lon="19.57687">
        <ele>44.434177</ele>
        <time>2022-05-15T09:37:31.947Z</time>
      </trkpt>
      <trkpt lat="41.88985" lon="19.57679">
        <ele>44.42114</ele>
        <time>2022-05-15T09:37:34.974Z</time>
      </trkpt>
      <trkpt lat="41.88993" lon="19.57668">
        <ele>44.405997</ele>
        <time>2022-05-15T09:37:37.944Z</time>
      </trkpt>
      <trkpt lat="41.89003" lon="19.57657">
        <ele>44.388607</ele>
        <time>2022-05-15T09:37:40.966Z</time>
      </trkpt>
      <trkpt lat="41.89013" lon="19.57645">
        <ele>44.371349</ele>
        <time>2022-05-15T09:37:43.945Z</time>
      </trkpt>
      <trkpt lat="41.89022" lon="19.57635">
        <ele>44.355511</ele>
        <time>2022-05-15T09:37:46.943Z</time>
      </trkpt>
      <trkpt lat="41.89029" lon="19.57625">
        <ele>44.341718</ele>
        <time>2022-05-15T09:37:49.924Z</time>
      </trkpt>
      <trkpt lat="41.89036" lon="19.57617">
        <ele>44.329639</ele>
        <time>2022-05-15T09:37:52.943Z</time>
      </trkpt>
      <trkpt lat="41.89044" lon="19.57607">
        <ele>44.315352</ele>
        <time>2022-05-15T09:37:59.936Z</time>
      </trkpt>
      <trkpt lat="41.89052" lon="19.57598">
        <ele>44.301716</ele>
        <time>2022-05-15T09:38:03.934Z</time>
      </trkpt>
      <trkpt lat="41.89059" lon="19.5759">
        <ele>44.288881</ele>
        <time>2022-05-15T09:38:06.942Z</time>
      </trkpt>
      <trkpt lat="41.89067" lon="19.5758">
        <ele>44.126438</ele>
        <time>2022-05-15T09:38:09.933Z</time>
      </trkpt>
      <trkpt lat="41.89075" lon="19.57571">
        <ele>43.950463</ele>
        <time>2022-05-15T09:38:12.937Z</time>
      </trkpt>
      <trkpt lat="41.89082" lon="19.57562">
        <ele>43.783748</ele>
        <time>2022-05-15T09:38:15.940Z</time>
      </trkpt>
      <trkpt lat="41.89091" lon="19.57551">
        <ele>43.578267</ele>
        <time>2022-05-15T09:38:19.945Z</time>
      </trkpt>
      <trkpt lat="41.89099" lon="19.57543">
        <ele>43.406876</ele>
        <time>2022-05-15T09:38:22.935Z</time>
      </trkpt>
      <trkpt lat="41.89107" lon="19.57534">
        <ele>43.240293</ele>
        <time>2022-05-15T09:38:25.943Z</time>
      </trkpt>
      <trkpt lat="41.89115" lon="19.57526">
        <ele>43.060028</ele>
        <time>2022-05-15T09:38:28.938Z</time>
      </trkpt>
      <trkpt lat="41.89124" lon="19.57518">
        <ele>42.874237</ele>
        <time>2022-05-15T09:38:31.948Z</time>
      </trkpt>
      <trkpt lat="41.89133" lon="19.57509">
        <ele>42.701681</ele>
        <time>2022-05-15T09:38:34.943Z</time>
      </trkpt>
      <trkpt lat="41.89141" lon="19.57501">
        <ele>42.530087</ele>
        <time>2022-05-15T09:38:37.933Z</time>
      </trkpt>
      <trkpt lat="41.8915" lon="19.57492">
        <ele>42.336816</ele>
        <time>2022-05-15T09:38:40.930Z</time>
      </trkpt>
      <trkpt lat="41.89159" lon="19.57482">
        <ele>42.138149</ele>
        <time>2022-05-15T09:38:43.945Z</time>
      </trkpt>
      <trkpt lat="41.89167" lon="19.57474">
        <ele>41.962851</ele>
        <time>2022-05-15T09:38:46.929Z</time>
      </trkpt>
      <trkpt lat="41.89175" lon="19.57467">
        <ele>41.80509</ele>
        <time>2022-05-15T09:38:49.956Z</time>
      </trkpt>
      <trkpt lat="41.89183" lon="19.57459">
        <ele>41.641595</ele>
        <time>2022-05-15T09:38:52.969Z</time>
      </trkpt>
      <trkpt lat="41.89191" lon="19.5745">
        <ele>41.46542</ele>
        <time>2022-05-15T09:38:55.942Z</time>
      </trkpt>
      <trkpt lat="41.892" lon="19.57442">
        <ele>41.280791</ele>
        <time>2022-05-15T09:38:58.929Z</time>
      </trkpt>
      <trkpt lat="41.89209" lon="19.57432">
        <ele>41.284871</ele>
        <time>2022-05-15T09:39:01.952Z</time>
      </trkpt>
      <trkpt lat="41.8922" lon="19.57423">
        <ele>41.345973</ele>
        <time>2022-05-15T09:39:04.945Z</time>
      </trkpt>
      <trkpt lat="41.8923" lon="19.57413">
        <ele>41.408129</ele>
        <time>2022-05-15T09:39:07.934Z</time>
      </trkpt>
      <trkpt lat="41.8924" lon="19.57404">
        <ele>41.468407</ele>
        <time>2022-05-15T09:39:10.946Z</time>
      </trkpt>
      <trkpt lat="41.89249" lon="19.57395">
        <ele>41.524777</ele>
        <time>2022-05-15T09:39:13.944Z</time>
      </trkpt>
      <trkpt lat="41.89259" lon="19.57388">
        <ele>41.580622</ele>
        <time>2022-05-15T09:39:16.924Z</time>
      </trkpt>
      <trkpt lat="41.89269" lon="19.57381">
        <ele>41.638613</ele>
        <time>2022-05-15T09:39:19.926Z</time>
      </trkpt>
      <trkpt lat="41.8928" lon="19.57374">
        <ele>41.696269</ele>
        <time>2022-05-15T09:39:22.944Z</time>
      </trkpt>
      <trkpt lat="41.89291" lon="19.57368">
        <ele>41.75484</ele>
        <time>2022-05-15T09:39:25.945Z</time>
      </trkpt>
      <trkpt lat="41.89301" lon="19.57362">
        <ele>41.810031</ele>
        <time>2022-05-15T09:39:28.947Z</time>
      </trkpt>
      <trkpt lat="41.89311" lon="19.57356">
        <ele>41.865296</ele>
        <time>2022-05-15T09:39:31.953Z</time>
      </trkpt>
      <trkpt lat="41.89322" lon="19.5735">
        <ele>41.923223</ele>
        <time>2022-05-15T09:39:34.942Z</time>
      </trkpt>
      <trkpt lat="41.89332" lon="19.57345">
        <ele>41.978122</ele>
        <time>2022-05-15T09:39:37.943Z</time>
      </trkpt>
      <trkpt lat="41.89342" lon="19.57339">
        <ele>42.032711</ele>
        <time>2022-05-15T09:39:40.948Z</time>
      </trkpt>
      <trkpt lat="41.89353" lon="19.57333">
        <ele>42.088667</ele>
        <time>2022-05-15T09:39:43.932Z</time>
      </trkpt>
      <trkpt lat="41.89364" lon="19.57327">
        <ele>42.134309</ele>
        <time>2022-05-15T09:39:46.944Z</time>
      </trkpt>
      <trkpt lat="41.89374" lon="19.57321">
        <ele>42.151208</ele>
        <time>2022-05-15T09:39:49.972Z</time>
      </trkpt>
      <trkpt lat="41.89384" lon="19.57315">
        <ele>42.16722</ele>
        <time>2022-05-15T09:39:52.956Z</time>
      </trkpt>
      <trkpt lat="41.89394" lon="19.57309">
        <ele>42.182404</ele>
        <time>2022-05-15T09:39:55.957Z</time>
      </trkpt>
      <trkpt lat="41.89404" lon="19.57303">
        <ele>42.19899</ele>
        <time>2022-05-15T09:39:58.938Z</time>
      </trkpt>
      <trkpt lat="41.89415" lon="19.57298">
        <ele>42.215124</ele>
        <time>2022-05-15T09:40:01.942Z</time>
      </trkpt>
      <trkpt lat="41.89425" lon="19.57293">
        <ele>42.231431</ele>
        <time>2022-05-15T09:40:04.938Z</time>
      </trkpt>
      <trkpt lat="41.89436" lon="19.57287">
        <ele>42.247937</ele>
        <time>2022-05-15T09:40:07.946Z</time>
      </trkpt>
      <trkpt lat="41.89446" lon="19.57281">
        <ele>42.264037</ele>
        <time>2022-05-15T09:40:10.950Z</time>
      </trkpt>
      <trkpt lat="41.89456" lon="19.57275">
        <ele>42.279606</ele>
        <time>2022-05-15T09:40:13.956Z</time>
      </trkpt>
      <trkpt lat="41.89466" lon="19.5727">
        <ele>42.295157</ele>
        <time>2022-05-15T09:40:16.943Z</time>
      </trkpt>
      <trkpt lat="41.89475" lon="19.57264">
        <ele>42.310381</ele>
        <time>2022-05-15T09:40:19.939Z</time>
      </trkpt>
      <trkpt lat="41.89486" lon="19.57259">
        <ele>42.326068</ele>
        <time>2022-05-15T09:40:22.965Z</time>
      </trkpt>
      <trkpt lat="41.89495" lon="19.57254">
        <ele>42.340902</ele>
        <time>2022-05-15T09:40:25.951Z</time>
      </trkpt>
      <trkpt lat="41.89505" lon="19.57249">
        <ele>42.356706</ele>
        <time>2022-05-15T09:40:28.944Z</time>
      </trkpt>
      <trkpt lat="41.89515" lon="19.57243">
        <ele>42.37286</ele>
        <time>2022-05-15T09:40:31.949Z</time>
      </trkpt>
      <trkpt lat="41.89526" lon="19.57238">
        <ele>42.38884</ele>
        <time>2022-05-15T09:40:34.932Z</time>
      </trkpt>
      <trkpt lat="41.89536" lon="19.57232">
        <ele>42.43342</ele>
        <time>2022-05-15T09:40:37.950Z</time>
      </trkpt>
      <trkpt lat="41.89546" lon="19.57227">
        <ele>42.481648</ele>
        <time>2022-05-15T09:40:40.949Z</time>
      </trkpt>
      <trkpt lat="41.89557" lon="19.57221">
        <ele>42.530844</ele>
        <time>2022-05-15T09:40:43.959Z</time>
      </trkpt>
      <trkpt lat="41.89567" lon="19.57216">
        <ele>42.577788</ele>
        <time>2022-05-15T09:40:46.948Z</time>
      </trkpt>
      <trkpt lat="41.89577" lon="19.5721">
        <ele>42.622574</ele>
        <time>2022-05-15T09:40:49.989Z</time>
      </trkpt>
      <trkpt lat="41.89586" lon="19.57205">
        <ele>42.667845</ele>
        <time>2022-05-15T09:40:52.945Z</time>
      </trkpt>
      <trkpt lat="41.89596" lon="19.572">
        <ele>42.713582</ele>
        <time>2022-05-15T09:40:55.978Z</time>
      </trkpt>
      <trkpt lat="41.89607" lon="19.57195">
        <ele>42.762143</ele>
        <time>2022-05-15T09:40:58.931Z</time>
      </trkpt>
      <trkpt lat="41.89617" lon="19.5719">
        <ele>42.809895</ele>
        <time>2022-05-15T09:41:01.947Z</time>
      </trkpt>
      <trkpt lat="41.89627" lon="19.57184">
        <ele>42.857014</ele>
        <time>2022-05-15T09:41:04.941Z</time>
      </trkpt>
      <trkpt lat="41.89637" lon="19.57179">
        <ele>42.901797</ele>
        <time>2022-05-15T09:41:07.933Z</time>
      </trkpt>
      <trkpt lat="41.89647" lon="19.57174">
        <ele>42.949729</ele>
        <time>2022-05-15T09:41:10.949Z</time>
      </trkpt>
      <trkpt lat="41.89658" lon="19.57168">
        <ele>43.000368</ele>
        <time>2022-05-15T09:41:13.952Z</time>
      </trkpt>
      <trkpt lat="41.89669" lon="19.57162">
        <ele>43.051411</ele>
        <time>2022-05-15T09:41:16.937Z</time>
      </trkpt>
      <trkpt lat="41.8968" lon="19.57156">
        <ele>43.102409</ele>
        <time>2022-05-15T09:41:19.934Z</time>
      </trkpt>
      <trkpt lat="41.8969" lon="19.5715">
        <ele>43.152064</ele>
        <time>2022-05-15T09:41:22.948Z</time>
      </trkpt>
      <trkpt lat="41.89701" lon="19.57144">
        <ele>43.197438</ele>
        <time>2022-05-15T09:41:25.943Z</time>
      </trkpt>
      <trkpt lat="41.89711" lon="19.57138">
        <ele>43.240539</ele>
        <time>2022-05-15T09:41:28.944Z</time>
      </trkpt>
      <trkpt lat="41.89722" lon="19.57132">
        <ele>43.283901</ele>
        <time>2022-05-15T09:41:31.951Z</time>
      </trkpt>
      <trkpt lat="41.89732" lon="19.57127">
        <ele>43.326071</ele>
        <time>2022-05-15T09:41:34.984Z</time>
      </trkpt>
      <trkpt lat="41.89742" lon="19.57121">
        <ele>43.368481</ele>
        <time>2022-05-15T09:41:37.947Z</time>
      </trkpt>
      <trkpt lat="41.89752" lon="19.57115">
        <ele>43.41199</ele>
        <time>2022-05-15T09:41:40.931Z</time>
      </trkpt>
      <trkpt lat="41.89762" lon="19.5711">
        <ele>43.45288</ele>
        <time>2022-05-15T09:41:43.953Z</time>
      </trkpt>
      <trkpt lat="41.89773" lon="19.57104">
        <ele>43.496287</ele>
        <time>2022-05-15T09:41:46.932Z</time>
      </trkpt>
      <trkpt lat="41.89783" lon="19.57099">
        <ele>43.538371</ele>
        <time>2022-05-15T09:41:49.934Z</time>
      </trkpt>
      <trkpt lat="41.89793" lon="19.57093">
        <ele>43.580916</ele>
        <time>2022-05-15T09:41:52.936Z</time>
      </trkpt>
      <trkpt lat="41.89803" lon="19.57087">
        <ele>43.621694</ele>
        <time>2022-05-15T09:41:55.934Z</time>
      </trkpt>
      <trkpt lat="41.89813" lon="19.57082">
        <ele>43.660727</ele>
        <time>2022-05-15T09:41:58.982Z</time>
      </trkpt>
      <trkpt lat="41.89822" lon="19.57077">
        <ele>43.701428</ele>
        <time>2022-05-15T09:42:01.931Z</time>
      </trkpt>
      <trkpt lat="41.89833" lon="19.57071">
        <ele>43.74664</ele>
        <time>2022-05-15T09:42:04.929Z</time>
      </trkpt>
      <trkpt lat="41.89844" lon="19.57065">
        <ele>43.792141</ele>
        <time>2022-05-15T09:42:07.946Z</time>
      </trkpt>
      <trkpt lat="41.89855" lon="19.57059">
        <ele>43.836172</ele>
        <time>2022-05-15T09:42:10.933Z</time>
      </trkpt>
      <trkpt lat="41.89865" lon="19.57053">
        <ele>43.919065</ele>
        <time>2022-05-15T09:42:13.941Z</time>
      </trkpt>
      <trkpt lat="41.89875" lon="19.57048">
        <ele>44.033871</ele>
        <time>2022-05-15T09:42:16.953Z</time>
      </trkpt>
      <trkpt lat="41.89885" lon="19.57041">
        <ele>44.165178</ele>
        <time>2022-05-15T09:42:19.932Z</time>
      </trkpt>
      <trkpt lat="41.89897" lon="19.57033">
        <ele>44.312591</ele>
        <time>2022-05-15T09:42:22.933Z</time>
      </trkpt>
      <trkpt lat="41.89909" lon="19.57026">
        <ele>44.463775</ele>
        <time>2022-05-15T09:42:25.939Z</time>
      </trkpt>
      <trkpt lat="41.8992" lon="19.57017">
        <ele>44.608271</ele>
        <time>2022-05-15T09:42:28.948Z</time>
      </trkpt>
      <trkpt lat="41.89931" lon="19.57009">
        <ele>44.744004</ele>
        <time>2022-05-15T09:42:31.936Z</time>
      </trkpt>
      <trkpt lat="41.89941" lon="19.57">
        <ele>44.88571</ele>
        <time>2022-05-15T09:42:34.946Z</time>
      </trkpt>
      <trkpt lat="41.89952" lon="19.5699">
        <ele>45.029726</ele>
        <time>2022-05-15T09:42:37.951Z</time>
      </trkpt>
      <trkpt lat="41.89961" lon="19.5698">
        <ele>45.162366</ele>
        <time>2022-05-15T09:42:40.949Z</time>
      </trkpt>
      <trkpt lat="41.89971" lon="19.56969">
        <ele>45.305901</ele>
        <time>2022-05-15T09:42:43.942Z</time>
      </trkpt>
      <trkpt lat="41.89979" lon="19.56956">
        <ele>45.44973</ele>
        <time>2022-05-15T09:42:46.939Z</time>
      </trkpt>
      <trkpt lat="41.89988" lon="19.56944">
        <ele>45.594166</ele>
        <time>2022-05-15T09:42:49.951Z</time>
      </trkpt>
      <trkpt lat="41.89997" lon="19.56934">
        <ele>45.7266</ele>
        <time>2022-05-15T09:42:52.976Z</time>
      </trkpt>
      <trkpt lat="41.90005" lon="19.56925">
        <ele>45.845063</ele>
        <time>2022-05-15T09:42:55.932Z</time>
      </trkpt>
      <trkpt lat="41.90014" lon="19.56915">
        <ele>45.803492</ele>
        <time>2022-05-15T09:42:58.951Z</time>
      </trkpt>
      <trkpt lat="41.90023" lon="19.56905">
        <ele>45.685372</ele>
        <time>2022-05-15T09:43:01.941Z</time>
      </trkpt>
      <trkpt lat="41.9003" lon="19.56894">
        <ele>45.57383</ele>
        <time>2022-05-15T09:43:04.944Z</time>
      </trkpt>
      <trkpt lat="41.90036" lon="19.56882">
        <ele>45.463697</ele>
        <time>2022-05-15T09:43:07.955Z</time>
      </trkpt>
      <trkpt lat="41.90041" lon="19.56871">
        <ele>45.367363</ele>
        <time>2022-05-15T09:43:10.936Z</time>
      </trkpt>
      <trkpt lat="41.90047" lon="19.56859">
        <ele>45.256096</ele>
        <time>2022-05-15T09:43:14.953Z</time>
      </trkpt>
      <trkpt lat="41.90052" lon="19.56836">
        <ele>45.079641</ele>
        <time>2022-05-15T09:45:15.923Z</time>
      </trkpt>
      <trkpt lat="41.90056" lon="19.56824">
        <ele>44.973167</ele>
        <time>2022-05-15T09:45:19.907Z</time>
      </trkpt>
      <trkpt lat="41.90061" lon="19.56809">
        <ele>44.854065</ele>
        <time>2022-05-15T09:45:23.917Z</time>
      </trkpt>
      <trkpt lat="41.90065" lon="19.56798">
        <ele>44.760568</ele>
        <time>2022-05-15T09:45:26.950Z</time>
      </trkpt>
      <trkpt lat="41.90069" lon="19.56786">
        <ele>44.659342</ele>
        <time>2022-05-15T09:45:30.912Z</time>
      </trkpt>
      <trkpt lat="41.90075" lon="19.56773">
        <ele>44.542826</ele>
        <time>2022-05-15T09:45:34.911Z</time>
      </trkpt>
      <trkpt lat="41.9008" lon="19.56762">
        <ele>44.448221</ele>
        <time>2022-05-15T09:45:37.942Z</time>
      </trkpt>
      <trkpt lat="41.90086" lon="19.56752">
        <ele>44.350899</ele>
        <time>2022-05-15T09:45:40.910Z</time>
      </trkpt>
      <trkpt lat="41.90092" lon="19.56741">
        <ele>44.246614</ele>
        <time>2022-05-15T09:45:43.918Z</time>
      </trkpt>
      <trkpt lat="41.901" lon="19.56731">
        <ele>44.13862</ele>
        <time>2022-05-15T09:45:46.923Z</time>
      </trkpt>
      <trkpt lat="41.90107" lon="19.5672">
        <ele>44.076259</ele>
        <time>2022-05-15T09:45:49.931Z</time>
      </trkpt>
      <trkpt lat="41.90116" lon="19.5671">
        <ele>44.178438</ele>
        <time>2022-05-15T09:45:52.913Z</time>
      </trkpt>
      <trkpt lat="41.90124" lon="19.56701">
        <ele>44.274063</ele>
        <time>2022-05-15T09:45:55.916Z</time>
      </trkpt>
      <trkpt lat="41.90132" lon="19.56694">
        <ele>44.36353</ele>
        <time>2022-05-15T09:45:58.918Z</time>
      </trkpt>
      <trkpt lat="41.90141" lon="19.56687">
        <ele>44.454243</ele>
        <time>2022-05-15T09:46:01.915Z</time>
      </trkpt>
      <trkpt lat="41.90151" lon="19.56681">
        <ele>44.549745</ele>
        <time>2022-05-15T09:46:04.908Z</time>
      </trkpt>
      <trkpt lat="41.90162" lon="19.56675">
        <ele>44.653899</ele>
        <time>2022-05-15T09:46:07.979Z</time>
      </trkpt>
      <trkpt lat="41.90172" lon="19.56669">
        <ele>44.752393</ele>
        <time>2022-05-15T09:46:10.919Z</time>
      </trkpt>
      <trkpt lat="41.90182" lon="19.56663">
        <ele>44.848128</ele>
        <time>2022-05-15T09:46:13.914Z</time>
      </trkpt>
      <trkpt lat="41.90192" lon="19.56657">
        <ele>44.94497</ele>
        <time>2022-05-15T09:46:16.908Z</time>
      </trkpt>
      <trkpt lat="41.90198" lon="19.56647">
        <ele>45.033993</ele>
        <time>2022-05-15T09:46:19.907Z</time>
      </trkpt>
      <trkpt lat="41.90197" lon="19.56634">
        <ele>45.121807</ele>
        <time>2022-05-15T09:46:22.922Z</time>
      </trkpt>
      <trkpt lat="41.90192" lon="19.56619">
        <ele>45.22937</ele>
        <time>2022-05-15T09:46:25.915Z</time>
      </trkpt>
      <trkpt lat="41.90189" lon="19.56604">
        <ele>45.33459</ele>
        <time>2022-05-15T09:46:28.923Z</time>
      </trkpt>
      <trkpt lat="41.90185" lon="19.56589">
        <ele>45.437273</ele>
        <time>2022-05-15T09:46:31.907Z</time>
      </trkpt>
      <trkpt lat="41.90182" lon="19.56577">
        <ele>45.527066</ele>
        <time>2022-05-15T09:46:34.911Z</time>
      </trkpt>
      <trkpt lat="41.90179" lon="19.56562">
        <ele>45.629357</ele>
        <time>2022-05-15T09:46:37.914Z</time>
      </trkpt>
      <trkpt lat="41.90177" lon="19.5655">
        <ele>45.704517</ele>
        <time>2022-05-15T09:46:40.911Z</time>
      </trkpt>
      <trkpt lat="41.90182" lon="19.56539">
        <ele>45.781426</ele>
        <time>2022-05-15T09:46:44.911Z</time>
      </trkpt>
      <trkpt lat="41.9019" lon="19.56534">
        <ele>45.857322</ele>
        <time>2022-05-15T09:46:47.910Z</time>
      </trkpt>
      <trkpt lat="41.90199" lon="19.56528">
        <ele>45.937606</ele>
        <time>2022-05-15T09:46:50.911Z</time>
      </trkpt>
      <trkpt lat="41.90208" lon="19.56521">
        <ele>46.018255</ele>
        <time>2022-05-15T09:46:53.911Z</time>
      </trkpt>
      <trkpt lat="41.90217" lon="19.56515">
        <ele>46.100456</ele>
        <time>2022-05-15T09:46:56.912Z</time>
      </trkpt>
      <trkpt lat="41.90227" lon="19.56508">
        <ele>46.189299</ele>
        <time>2022-05-15T09:46:59.910Z</time>
      </trkpt>
      <trkpt lat="41.90235" lon="19.56502">
        <ele>46.261473</ele>
        <time>2022-05-15T09:47:01.916Z</time>
      </trkpt>
      <trkpt lat="41.90243" lon="19.56496">
        <ele>46.334521</ele>
        <time>2022-05-15T09:47:03.919Z</time>
      </trkpt>
      <trkpt lat="41.90254" lon="19.56487">
        <ele>46.438345</ele>
        <time>2022-05-15T09:47:06.916Z</time>
      </trkpt>
      <trkpt lat="41.90265" lon="19.56478">
        <ele>46.542062</ele>
        <time>2022-05-15T09:47:09.921Z</time>
      </trkpt>
      <trkpt lat="41.90277" lon="19.56469">
        <ele>46.649451</ele>
        <time>2022-05-15T09:47:12.909Z</time>
      </trkpt>
      <trkpt lat="41.90285" lon="19.56463">
        <ele>46.722903</ele>
        <time>2022-05-15T09:47:14.911Z</time>
      </trkpt>
      <trkpt lat="41.90296" lon="19.56454">
        <ele>46.825104</ele>
        <time>2022-05-15T09:47:17.934Z</time>
      </trkpt>
      <trkpt lat="41.90307" lon="19.56446">
        <ele>46.932322</ele>
        <time>2022-05-15T09:47:20.918Z</time>
      </trkpt>
      <trkpt lat="41.90316" lon="19.5644">
        <ele>47.012694</ele>
        <time>2022-05-15T09:47:22.917Z</time>
      </trkpt>
      <trkpt lat="41.90325" lon="19.56433">
        <ele>47.090707</ele>
        <time>2022-05-15T09:47:24.911Z</time>
      </trkpt>
      <trkpt lat="41.90333" lon="19.56427">
        <ele>47.07192</ele>
        <time>2022-05-15T09:47:26.919Z</time>
      </trkpt>
      <trkpt lat="41.90341" lon="19.56421">
        <ele>47.035726</ele>
        <time>2022-05-15T09:47:28.923Z</time>
      </trkpt>
      <trkpt lat="41.90349" lon="19.56414">
        <ele>47.001184</ele>
        <time>2022-05-15T09:47:30.921Z</time>
      </trkpt>
      <trkpt lat="41.90357" lon="19.56408">
        <ele>46.965322</ele>
        <time>2022-05-15T09:47:32.923Z</time>
      </trkpt>
      <trkpt lat="41.90365" lon="19.56402">
        <ele>46.930675</ele>
        <time>2022-05-15T09:47:34.922Z</time>
      </trkpt>
      <trkpt lat="41.90373" lon="19.56396">
        <ele>46.895755</ele>
        <time>2022-05-15T09:47:36.911Z</time>
      </trkpt>
      <trkpt lat="41.90381" lon="19.5639">
        <ele>46.861541</ele>
        <time>2022-05-15T09:47:38.920Z</time>
      </trkpt>
      <trkpt lat="41.90391" lon="19.56383">
        <ele>46.817611</ele>
        <time>2022-05-15T09:47:41.919Z</time>
      </trkpt>
      <trkpt lat="41.90402" lon="19.56374">
        <ele>46.768797</ele>
        <time>2022-05-15T09:47:44.919Z</time>
      </trkpt>
      <trkpt lat="41.90413" lon="19.56366">
        <ele>46.719299</ele>
        <time>2022-05-15T09:47:47.931Z</time>
      </trkpt>
      <trkpt lat="41.90423" lon="19.56355">
        <ele>46.669861</ele>
        <time>2022-05-15T09:47:50.921Z</time>
      </trkpt>
      <trkpt lat="41.9043" lon="19.56346">
        <ele>46.634073</ele>
        <time>2022-05-15T09:47:52.920Z</time>
      </trkpt>
      <trkpt lat="41.90437" lon="19.56337">
        <ele>46.597449</ele>
        <time>2022-05-15T09:47:54.914Z</time>
      </trkpt>
      <trkpt lat="41.90446" lon="19.56324">
        <ele>46.54615</ele>
        <time>2022-05-15T09:47:57.923Z</time>
      </trkpt>
      <trkpt lat="41.90453" lon="19.56315">
        <ele>46.508817</ele>
        <time>2022-05-15T09:47:59.934Z</time>
      </trkpt>
      <trkpt lat="41.9046" lon="19.56305">
        <ele>46.47242</ele>
        <time>2022-05-15T09:48:01.928Z</time>
      </trkpt>
      <trkpt lat="41.90466" lon="19.56296">
        <ele>46.436957</ele>
        <time>2022-05-15T09:48:03.912Z</time>
      </trkpt>
      <trkpt lat="41.90475" lon="19.56283">
        <ele>46.512067</ele>
        <time>2022-05-15T09:48:06.916Z</time>
      </trkpt>
      <trkpt lat="41.90482" lon="19.56272">
        <ele>46.654963</ele>
        <time>2022-05-15T09:48:09.915Z</time>
      </trkpt>
      <trkpt lat="41.9049" lon="19.56261">
        <ele>46.811843</ele>
        <time>2022-05-15T09:48:12.916Z</time>
      </trkpt>
      <trkpt lat="41.90497" lon="19.56252">
        <ele>46.929324</ele>
        <time>2022-05-15T09:48:14.915Z</time>
      </trkpt>
      <trkpt lat="41.90506" lon="19.56239">
        <ele>47.101497</ele>
        <time>2022-05-15T09:48:17.917Z</time>
      </trkpt>
      <trkpt lat="41.90515" lon="19.56227">
        <ele>47.265921</ele>
        <time>2022-05-15T09:48:20.913Z</time>
      </trkpt>
      <trkpt lat="41.90525" lon="19.56217">
        <ele>47.424397</ele>
        <time>2022-05-15T09:48:23.908Z</time>
      </trkpt>
      <trkpt lat="41.90535" lon="19.56207">
        <ele>47.58404</ele>
        <time>2022-05-15T09:48:26.942Z</time>
      </trkpt>
      <trkpt lat="41.90545" lon="19.56198">
        <ele>47.748492</ele>
        <time>2022-05-15T09:48:29.939Z</time>
      </trkpt>
      <trkpt lat="41.90556" lon="19.56188">
        <ele>47.917783</ele>
        <time>2022-05-15T09:48:32.955Z</time>
      </trkpt>
      <trkpt lat="41.90564" lon="19.56181">
        <ele>48.037628</ele>
        <time>2022-05-15T09:48:34.950Z</time>
      </trkpt>
      <trkpt lat="41.90571" lon="19.56174">
        <ele>48.154318</ele>
        <time>2022-05-15T09:48:36.939Z</time>
      </trkpt>
      <trkpt lat="41.90581" lon="19.56164">
        <ele>48.315023</ele>
        <time>2022-05-15T09:48:40.008Z</time>
      </trkpt>
      <trkpt lat="41.90592" lon="19.56154">
        <ele>48.48702</ele>
        <time>2022-05-15T09:48:42.935Z</time>
      </trkpt>
      <trkpt lat="41.90599" lon="19.56147">
        <ele>48.604762</ele>
        <time>2022-05-15T09:48:44.936Z</time>
      </trkpt>
      <trkpt lat="41.90607" lon="19.5614">
        <ele>48.721919</ele>
        <time>2022-05-15T09:48:46.956Z</time>
      </trkpt>
      <trkpt lat="41.90614" lon="19.56133">
        <ele>48.836472</ele>
        <time>2022-05-15T09:48:48.941Z</time>
      </trkpt>
      <trkpt lat="41.90622" lon="19.56126">
        <ele>48.949091</ele>
        <time>2022-05-15T09:48:50.937Z</time>
      </trkpt>
      <trkpt lat="41.90632" lon="19.56116">
        <ele>49.109636</ele>
        <time>2022-05-15T09:48:53.915Z</time>
      </trkpt>
      <trkpt lat="41.90643" lon="19.56105">
        <ele>49.282167</ele>
        <time>2022-05-15T09:48:56.934Z</time>
      </trkpt>
      <trkpt lat="41.90652" lon="19.56097">
        <ele>49.415335</ele>
        <time>2022-05-15T09:48:58.956Z</time>
      </trkpt>
      <trkpt lat="41.9066" lon="19.56089">
        <ele>49.537256</ele>
        <time>2022-05-15T09:49:00.953Z</time>
      </trkpt>
      <trkpt lat="41.90667" lon="19.56082">
        <ele>49.64943</ele>
        <time>2022-05-15T09:49:02.931Z</time>
      </trkpt>
      <trkpt lat="41.90678" lon="19.56072">
        <ele>49.813074</ele>
        <time>2022-05-15T09:49:05.936Z</time>
      </trkpt>
      <trkpt lat="41.90689" lon="19.56062">
        <ele>49.976231</ele>
        <time>2022-05-15T09:49:08.966Z</time>
      </trkpt>
      <trkpt lat="41.907" lon="19.56051">
        <ele>50.141671</ele>
        <time>2022-05-15T09:49:11.930Z</time>
      </trkpt>
      <trkpt lat="41.90711" lon="19.56041">
        <ele>50.306849</ele>
        <time>2022-05-15T09:49:14.943Z</time>
      </trkpt>
      <trkpt lat="41.90719" lon="19.56036">
        <ele>50.421135</ele>
        <time>2022-05-15T09:49:16.948Z</time>
      </trkpt>
      <trkpt lat="41.90728" lon="19.5603">
        <ele>50.539986</ele>
        <time>2022-05-15T09:49:18.977Z</time>
      </trkpt>
      <trkpt lat="41.90739" lon="19.56023">
        <ele>50.697795</ele>
        <time>2022-05-15T09:49:21.920Z</time>
      </trkpt>
      <trkpt lat="41.90751" lon="19.56016">
        <ele>50.86049</ele>
        <time>2022-05-15T09:49:24.937Z</time>
      </trkpt>
      <trkpt lat="41.9076" lon="19.56011">
        <ele>50.981154</ele>
        <time>2022-05-15T09:49:26.938Z</time>
      </trkpt>
      <trkpt lat="41.90771" lon="19.56005">
        <ele>50.64913</ele>
        <time>2022-05-15T09:49:29.933Z</time>
      </trkpt>
      <trkpt lat="41.9078" lon="19.56">
        <ele>50.396994</ele>
        <time>2022-05-15T09:49:31.941Z</time>
      </trkpt>
      <trkpt lat="41.90789" lon="19.55994">
        <ele>50.111454</ele>
        <time>2022-05-15T09:49:33.960Z</time>
      </trkpt>
      <trkpt lat="41.90798" lon="19.55989">
        <ele>49.839227</ele>
        <time>2022-05-15T09:49:35.939Z</time>
      </trkpt>
      <trkpt lat="41.90807" lon="19.55983">
        <ele>49.569541</ele>
        <time>2022-05-15T09:49:37.945Z</time>
      </trkpt>
      <trkpt lat="41.90816" lon="19.55979">
        <ele>49.30827</ele>
        <time>2022-05-15T09:49:39.999Z</time>
      </trkpt>
      <trkpt lat="41.90826" lon="19.55976">
        <ele>49.039121</ele>
        <time>2022-05-15T09:49:41.941Z</time>
      </trkpt>
      <trkpt lat="41.90836" lon="19.55974">
        <ele>48.775432</ele>
        <time>2022-05-15T09:49:43.942Z</time>
      </trkpt>
      <trkpt lat="41.90845" lon="19.55972">
        <ele>48.505142</ele>
        <time>2022-05-15T09:49:45.939Z</time>
      </trkpt>
      <trkpt lat="41.90855" lon="19.5597">
        <ele>48.244815</ele>
        <time>2022-05-15T09:49:47.952Z</time>
      </trkpt>
      <trkpt lat="41.90864" lon="19.55968">
        <ele>47.988084</ele>
        <time>2022-05-15T09:49:49.965Z</time>
      </trkpt>
      <trkpt lat="41.90878" lon="19.55966">
        <ele>47.616106</ele>
        <time>2022-05-15T09:49:52.934Z</time>
      </trkpt>
      <trkpt lat="41.90887" lon="19.55965">
        <ele>47.367503</ele>
        <time>2022-05-15T09:49:54.964Z</time>
      </trkpt>
      <trkpt lat="41.909" lon="19.55963">
        <ele>47.00143</ele>
        <time>2022-05-15T09:49:57.943Z</time>
      </trkpt>
      <trkpt lat="41.90913" lon="19.5596">
        <ele>46.639783</ele>
        <time>2022-05-15T09:50:00.937Z</time>
      </trkpt>
      <trkpt lat="41.90926" lon="19.55958">
        <ele>46.28383</ele>
        <time>2022-05-15T09:50:03.940Z</time>
      </trkpt>
      <trkpt lat="41.90939" lon="19.55956">
        <ele>46.129331</ele>
        <time>2022-05-15T09:50:06.944Z</time>
      </trkpt>
      <trkpt lat="41.90951" lon="19.55954">
        <ele>46.303319</ele>
        <time>2022-05-15T09:50:09.931Z</time>
      </trkpt>
      <trkpt lat="41.90964" lon="19.55952">
        <ele>46.4813</ele>
        <time>2022-05-15T09:50:12.943Z</time>
      </trkpt>
      <trkpt lat="41.90977" lon="19.55951">
        <ele>46.651937</ele>
        <time>2022-05-15T09:50:15.925Z</time>
      </trkpt>
      <trkpt lat="41.90989" lon="19.55949">
        <ele>46.829</ele>
        <time>2022-05-15T09:50:18.952Z</time>
      </trkpt>
      <trkpt lat="41.91002" lon="19.55948">
        <ele>47.001007</ele>
        <time>2022-05-15T09:50:21.933Z</time>
      </trkpt>
      <trkpt lat="41.91015" lon="19.55949">
        <ele>47.175467</ele>
        <time>2022-05-15T09:50:24.929Z</time>
      </trkpt>
      <trkpt lat="41.91028" lon="19.5595">
        <ele>47.354209</ele>
        <time>2022-05-15T09:50:27.938Z</time>
      </trkpt>
      <trkpt lat="41.91041" lon="19.55951">
        <ele>47.539123</ele>
        <time>2022-05-15T09:50:30.948Z</time>
      </trkpt>
      <trkpt lat="41.91054" lon="19.55952">
        <ele>47.712436</ele>
        <time>2022-05-15T09:50:33.918Z</time>
      </trkpt>
      <trkpt lat="41.91065" lon="19.55953">
        <ele>47.865266</ele>
        <time>2022-05-15T09:50:36.939Z</time>
      </trkpt>
      <trkpt lat="41.91075" lon="19.55955">
        <ele>48.003037</ele>
        <time>2022-05-15T09:50:39.939Z</time>
      </trkpt>
      <trkpt lat="41.91087" lon="19.55956">
        <ele>48.173991</ele>
        <time>2022-05-15T09:50:42.936Z</time>
      </trkpt>
      <trkpt lat="41.91097" lon="19.55957">
        <ele>48.305219</ele>
        <time>2022-05-15T09:50:44.930Z</time>
      </trkpt>
      <trkpt lat="41.91107" lon="19.55959">
        <ele>48.445812</ele>
        <time>2022-05-15T09:50:46.942Z</time>
      </trkpt>
      <trkpt lat="41.91117" lon="19.5596">
        <ele>48.450741</ele>
        <time>2022-05-15T09:50:48.991Z</time>
      </trkpt>
      <trkpt lat="41.91126" lon="19.55961">
        <ele>48.258692</ele>
        <time>2022-05-15T09:50:50.953Z</time>
      </trkpt>
      <trkpt lat="41.91136" lon="19.55962">
        <ele>48.066374</ele>
        <time>2022-05-15T09:50:52.925Z</time>
      </trkpt>
      <trkpt lat="41.91145" lon="19.55962">
        <ele>47.881055</ele>
        <time>2022-05-15T09:50:54.942Z</time>
      </trkpt>
      <trkpt lat="41.91158" lon="19.55964">
        <ele>47.604503</ele>
        <time>2022-05-15T09:50:57.956Z</time>
      </trkpt>
      <trkpt lat="41.91171" lon="19.55964">
        <ele>47.334688</ele>
        <time>2022-05-15T09:51:00.926Z</time>
      </trkpt>
      <trkpt lat="41.91184" lon="19.55965">
        <ele>47.066732</ele>
        <time>2022-05-15T09:51:03.945Z</time>
      </trkpt>
      <trkpt lat="41.91197" lon="19.55966">
        <ele>46.79686</ele>
        <time>2022-05-15T09:51:06.920Z</time>
      </trkpt>
      <trkpt lat="41.9121" lon="19.55967">
        <ele>46.532736</ele>
        <time>2022-05-15T09:51:09.931Z</time>
      </trkpt>
      <trkpt lat="41.91219" lon="19.55969">
        <ele>46.345202</ele>
        <time>2022-05-15T09:51:11.930Z</time>
      </trkpt>
      <trkpt lat="41.91232" lon="19.55974">
        <ele>46.061724</ele>
        <time>2022-05-15T09:51:14.972Z</time>
      </trkpt>
      <trkpt lat="41.91241" lon="19.55978">
        <ele>45.871944</ele>
        <time>2022-05-15T09:51:16.952Z</time>
      </trkpt>
      <trkpt lat="41.91249" lon="19.55982">
        <ele>45.686912</ele>
        <time>2022-05-15T09:51:18.950Z</time>
      </trkpt>
      <trkpt lat="41.91262" lon="19.55988">
        <ele>45.416494</ele>
        <time>2022-05-15T09:51:21.984Z</time>
      </trkpt>
      <trkpt lat="41.91274" lon="19.55995">
        <ele>45.153979</ele>
        <time>2022-05-15T09:51:24.936Z</time>
      </trkpt>
      <trkpt lat="41.91286" lon="19.56002">
        <ele>44.885899</ele>
        <time>2022-05-15T09:51:27.943Z</time>
      </trkpt>
      <trkpt lat="41.91297" lon="19.56008">
        <ele>44.860027</ele>
        <time>2022-05-15T09:51:30.948Z</time>
      </trkpt>
      <trkpt lat="41.91309" lon="19.56015">
        <ele>44.901085</ele>
        <time>2022-05-15T09:51:33.944Z</time>
      </trkpt>
      <trkpt lat="41.91317" lon="19.56019">
        <ele>44.929979</ele>
        <time>2022-05-15T09:51:35.934Z</time>
      </trkpt>
      <trkpt lat="41.91326" lon="19.56023">
        <ele>44.959014</ele>
        <time>2022-05-15T09:51:37.927Z</time>
      </trkpt>
      <trkpt lat="41.91338" lon="19.56027">
        <ele>44.998886</ele>
        <time>2022-05-15T09:51:40.936Z</time>
      </trkpt>
      <trkpt lat="41.91347" lon="19.5603">
        <ele>45.027488</ele>
        <time>2022-05-15T09:51:42.959Z</time>
      </trkpt>
      <trkpt lat="41.91356" lon="19.56031">
        <ele>45.056835</ele>
        <time>2022-05-15T09:51:44.963Z</time>
      </trkpt>
      <trkpt lat="41.91365" lon="19.56033">
        <ele>45.088144</ele>
        <time>2022-05-15T09:51:46.911Z</time>
      </trkpt>
      <trkpt lat="41.91374" lon="19.56035">
        <ele>45.117175</ele>
        <time>2022-05-15T09:51:48.918Z</time>
      </trkpt>
      <trkpt lat="41.91387" lon="19.56038">
        <ele>45.158725</ele>
        <time>2022-05-15T09:51:51.922Z</time>
      </trkpt>
      <trkpt lat="41.914" lon="19.5604">
        <ele>45.198946</ele>
        <time>2022-05-15T09:51:54.932Z</time>
      </trkpt>
      <trkpt lat="41.91412" lon="19.56041">
        <ele>45.238554</ele>
        <time>2022-05-15T09:51:57.908Z</time>
      </trkpt>
      <trkpt lat="41.91425" lon="19.5604">
        <ele>45.279461</ele>
        <time>2022-05-15T09:52:00.907Z</time>
      </trkpt>
      <trkpt lat="41.91438" lon="19.56038">
        <ele>45.320434</ele>
        <time>2022-05-15T09:52:03.915Z</time>
      </trkpt>
      <trkpt lat="41.91451" lon="19.56037">
        <ele>45.362934</ele>
        <time>2022-05-15T09:52:06.916Z</time>
      </trkpt>
      <trkpt lat="41.91461" lon="19.56038">
        <ele>45.394223</ele>
        <time>2022-05-15T09:52:08.918Z</time>
      </trkpt>
      <trkpt lat="41.91471" lon="19.5604">
        <ele>45.41669</ele>
        <time>2022-05-15T09:52:10.909Z</time>
      </trkpt>
      <trkpt lat="41.9148" lon="19.56044">
        <ele>45.434688</ele>
        <time>2022-05-15T09:52:12.909Z</time>
      </trkpt>
      <trkpt lat="41.91488" lon="19.56049">
        <ele>45.452728</ele>
        <time>2022-05-15T09:52:14.913Z</time>
      </trkpt>
      <trkpt lat="41.91497" lon="19.56054">
        <ele>45.470244</ele>
        <time>2022-05-15T09:52:16.938Z</time>
      </trkpt>
      <trkpt lat="41.91506" lon="19.56059">
        <ele>45.488285</ele>
        <time>2022-05-15T09:52:18.916Z</time>
      </trkpt>
      <trkpt lat="41.91514" lon="19.56063">
        <ele>45.505712</ele>
        <time>2022-05-15T09:52:20.911Z</time>
      </trkpt>
      <trkpt lat="41.91523" lon="19.56068">
        <ele>45.52405</ele>
        <time>2022-05-15T09:52:22.905Z</time>
      </trkpt>
      <trkpt lat="41.91532" lon="19.56074">
        <ele>45.541407</ele>
        <time>2022-05-15T09:52:24.910Z</time>
      </trkpt>
      <trkpt lat="41.91543" lon="19.56082">
        <ele>45.566306</ele>
        <time>2022-05-15T09:52:27.935Z</time>
      </trkpt>
      <trkpt lat="41.91553" lon="19.56094">
        <ele>45.591016</ele>
        <time>2022-05-15T09:52:30.912Z</time>
      </trkpt>
      <trkpt lat="41.91562" lon="19.56105">
        <ele>45.615281</ele>
        <time>2022-05-15T09:52:33.914Z</time>
      </trkpt>
      <trkpt lat="41.91572" lon="19.56117">
        <ele>45.639601</ele>
        <time>2022-05-15T09:52:36.910Z</time>
      </trkpt>
      <trkpt lat="41.91581" lon="19.56129">
        <ele>45.66359</ele>
        <time>2022-05-15T09:52:39.909Z</time>
      </trkpt>
      <trkpt lat="41.9159" lon="19.5614">
        <ele>45.68757</ele>
        <time>2022-05-15T09:52:42.913Z</time>
      </trkpt>
      <trkpt lat="41.916" lon="19.56152">
        <ele>45.712165</ele>
        <time>2022-05-15T09:52:45.924Z</time>
      </trkpt>
      <trkpt lat="41.91609" lon="19.56164">
        <ele>45.73657</ele>
        <time>2022-05-15T09:52:48.914Z</time>
      </trkpt>
      <trkpt lat="41.9162" lon="19.56175">
        <ele>45.754239</ele>
        <time>2022-05-15T09:52:51.915Z</time>
      </trkpt>
      <trkpt lat="41.9163" lon="19.56185">
        <ele>45.768546</ele>
        <time>2022-05-15T09:52:54.915Z</time>
      </trkpt>
      <trkpt lat="41.9164" lon="19.56195">
        <ele>45.782965</ele>
        <time>2022-05-15T09:52:57.914Z</time>
      </trkpt>
      <trkpt lat="41.91651" lon="19.56205">
        <ele>45.797572</ele>
        <time>2022-05-15T09:53:00.906Z</time>
      </trkpt>
      <trkpt lat="41.91662" lon="19.56215">
        <ele>45.812456</ele>
        <time>2022-05-15T09:53:03.911Z</time>
      </trkpt>
      <trkpt lat="41.91673" lon="19.56225">
        <ele>45.82715</ele>
        <time>2022-05-15T09:53:06.919Z</time>
      </trkpt>
      <trkpt lat="41.91684" lon="19.56234">
        <ele>45.841891</ele>
        <time>2022-05-15T09:53:09.934Z</time>
      </trkpt>
      <trkpt lat="41.91696" lon="19.56244">
        <ele>45.857067</ele>
        <time>2022-05-15T09:53:12.921Z</time>
      </trkpt>
      <trkpt lat="41.91703" lon="19.5625">
        <ele>45.867137</ele>
        <time>2022-05-15T09:53:14.913Z</time>
      </trkpt>
      <trkpt lat="41.91715" lon="19.56258">
        <ele>45.882021</ele>
        <time>2022-05-15T09:53:17.915Z</time>
      </trkpt>
      <trkpt lat="41.91726" lon="19.56267">
        <ele>45.896889</ele>
        <time>2022-05-15T09:53:20.911Z</time>
      </trkpt>
      <trkpt lat="41.91738" lon="19.56276">
        <ele>45.911751</ele>
        <time>2022-05-15T09:53:23.913Z</time>
      </trkpt>
      <trkpt lat="41.91746" lon="19.56282">
        <ele>45.92213</ele>
        <time>2022-05-15T09:53:25.911Z</time>
      </trkpt>
      <trkpt lat="41.91754" lon="19.56289">
        <ele>45.932686</ele>
        <time>2022-05-15T09:53:27.921Z</time>
      </trkpt>
      <trkpt lat="41.91762" lon="19.56296">
        <ele>45.942916</ele>
        <time>2022-05-15T09:53:29.921Z</time>
      </trkpt>
      <trkpt lat="41.91771" lon="19.56307">
        <ele>45.994463</ele>
        <time>2022-05-15T09:53:32.915Z</time>
      </trkpt>
      <trkpt lat="41.91781" lon="19.56317">
        <ele>46.054205</ele>
        <time>2022-05-15T09:53:35.921Z</time>
      </trkpt>
      <trkpt lat="41.91791" lon="19.56327">
        <ele>46.113731</ele>
        <time>2022-05-15T09:53:38.917Z</time>
      </trkpt>
      <trkpt lat="41.91802" lon="19.56335">
        <ele>46.174733</ele>
        <time>2022-05-15T09:53:41.916Z</time>
      </trkpt>
      <trkpt lat="41.91814" lon="19.5634">
        <ele>46.234552</ele>
        <time>2022-05-15T09:53:44.910Z</time>
      </trkpt>
      <trkpt lat="41.91826" lon="19.56342">
        <ele>46.291426</ele>
        <time>2022-05-15T09:53:47.911Z</time>
      </trkpt>
      <trkpt lat="41.91838" lon="19.56342">
        <ele>46.346506</ele>
        <time>2022-05-15T09:53:50.910Z</time>
      </trkpt>
      <trkpt lat="41.9185" lon="19.56341">
        <ele>46.407365</ele>
        <time>2022-05-15T09:53:53.930Z</time>
      </trkpt>
      <trkpt lat="41.91863" lon="19.56339">
        <ele>46.469376</ele>
        <time>2022-05-15T09:53:56.915Z</time>
      </trkpt>
      <trkpt lat="41.91876" lon="19.56338">
        <ele>46.529346</ele>
        <time>2022-05-15T09:53:59.907Z</time>
      </trkpt>
      <trkpt lat="41.91888" lon="19.56337">
        <ele>46.589481</ele>
        <time>2022-05-15T09:54:02.915Z</time>
      </trkpt>
      <trkpt lat="41.91901" lon="19.56336">
        <ele>46.650479</ele>
        <time>2022-05-15T09:54:05.914Z</time>
      </trkpt>
      <trkpt lat="41.91913" lon="19.56332">
        <ele>46.707121</ele>
        <time>2022-05-15T09:54:08.924Z</time>
      </trkpt>
      <trkpt lat="41.91924" lon="19.56328">
        <ele>46.765673</ele>
        <time>2022-05-15T09:54:11.938Z</time>
      </trkpt>
      <trkpt lat="41.91936" lon="19.56324">
        <ele>46.820077</ele>
        <time>2022-05-15T09:54:14.910Z</time>
      </trkpt>
      <trkpt lat="41.91948" lon="19.56319">
        <ele>46.863546</ele>
        <time>2022-05-15T09:54:17.921Z</time>
      </trkpt>
      <trkpt lat="41.9196" lon="19.56315">
        <ele>46.906657</ele>
        <time>2022-05-15T09:54:20.912Z</time>
      </trkpt>
      <trkpt lat="41.91972" lon="19.56312">
        <ele>46.94932</ele>
        <time>2022-05-15T09:54:23.913Z</time>
      </trkpt>
      <trkpt lat="41.91985" lon="19.5631">
        <ele>46.99417</ele>
        <time>2022-05-15T09:54:26.906Z</time>
      </trkpt>
      <trkpt lat="41.91997" lon="19.56311">
        <ele>47.039649</ele>
        <time>2022-05-15T09:54:29.913Z</time>
      </trkpt>
      <trkpt lat="41.9201" lon="19.56313">
        <ele>47.08518</ele>
        <time>2022-05-15T09:54:32.915Z</time>
      </trkpt>
      <trkpt lat="41.92023" lon="19.56314">
        <ele>47.128649</ele>
        <time>2022-05-15T09:54:35.923Z</time>
      </trkpt>
      <trkpt lat="41.92035" lon="19.56316">
        <ele>47.171394</ele>
        <time>2022-05-15T09:54:38.914Z</time>
      </trkpt>
      <trkpt lat="41.92047" lon="19.56317">
        <ele>47.215484</ele>
        <time>2022-05-15T09:54:41.913Z</time>
      </trkpt>
      <trkpt lat="41.9206" lon="19.56318">
        <ele>47.259206</ele>
        <time>2022-05-15T09:54:44.921Z</time>
      </trkpt>
      <trkpt lat="41.92072" lon="19.56319">
        <ele>47.301188</ele>
        <time>2022-05-15T09:54:47.925Z</time>
      </trkpt>
      <trkpt lat="41.92083" lon="19.5632">
        <ele>47.342436</ele>
        <time>2022-05-15T09:54:50.936Z</time>
      </trkpt>
      <trkpt lat="41.92095" lon="19.56321">
        <ele>47.384107</ele>
        <time>2022-05-15T09:54:53.913Z</time>
      </trkpt>
      <trkpt lat="41.92107" lon="19.56322">
        <ele>47.42615</ele>
        <time>2022-05-15T09:54:56.917Z</time>
      </trkpt>
      <trkpt lat="41.92119" lon="19.56324">
        <ele>47.432947</ele>
        <time>2022-05-15T09:54:59.908Z</time>
      </trkpt>
      <trkpt lat="41.92132" lon="19.56328">
        <ele>47.422438</ele>
        <time>2022-05-15T09:55:02.909Z</time>
      </trkpt>
      <trkpt lat="41.92143" lon="19.56333">
        <ele>47.411904</ele>
        <time>2022-05-15T09:55:05.909Z</time>
      </trkpt>
      <trkpt lat="41.92155" lon="19.56338">
        <ele>47.401908</ele>
        <time>2022-05-15T09:55:08.912Z</time>
      </trkpt>
      <trkpt lat="41.92166" lon="19.56343">
        <ele>47.391771</ele>
        <time>2022-05-15T09:55:11.912Z</time>
      </trkpt>
      <trkpt lat="41.92178" lon="19.56348">
        <ele>47.381429</ele>
        <time>2022-05-15T09:55:14.914Z</time>
      </trkpt>
      <trkpt lat="41.9219" lon="19.5635">
        <ele>47.371289</ele>
        <time>2022-05-15T09:55:17.936Z</time>
      </trkpt>
      <trkpt lat="41.92202" lon="19.5635">
        <ele>47.360954</ele>
        <time>2022-05-15T09:55:20.922Z</time>
      </trkpt>
      <trkpt lat="41.92214" lon="19.56348">
        <ele>47.351175</ele>
        <time>2022-05-15T09:55:23.921Z</time>
      </trkpt>
      <trkpt lat="41.92225" lon="19.56344">
        <ele>47.341387</ele>
        <time>2022-05-15T09:55:26.916Z</time>
      </trkpt>
      <trkpt lat="41.92236" lon="19.5634">
        <ele>47.331796</ele>
        <time>2022-05-15T09:55:29.913Z</time>
      </trkpt>
      <trkpt lat="41.92247" lon="19.56335">
        <ele>47.322138</ele>
        <time>2022-05-15T09:55:32.909Z</time>
      </trkpt>
      <trkpt lat="41.92258" lon="19.5633">
        <ele>47.311881</ele>
        <time>2022-05-15T09:55:35.918Z</time>
      </trkpt>
      <trkpt lat="41.9227" lon="19.56324">
        <ele>47.301762</ele>
        <time>2022-05-15T09:55:38.919Z</time>
      </trkpt>
      <trkpt lat="41.92281" lon="19.56318">
        <ele>47.291201</ele>
        <time>2022-05-15T09:55:41.914Z</time>
      </trkpt>
      <trkpt lat="41.92294" lon="19.56312">
        <ele>47.369159</ele>
        <time>2022-05-15T09:55:44.923Z</time>
      </trkpt>
      <trkpt lat="41.92306" lon="19.56305">
        <ele>47.472489</ele>
        <time>2022-05-15T09:55:47.917Z</time>
      </trkpt>
      <trkpt lat="41.92318" lon="19.56298">
        <ele>47.573516</ele>
        <time>2022-05-15T09:55:50.918Z</time>
      </trkpt>
      <trkpt lat="41.92331" lon="19.56292">
        <ele>47.68035</ele>
        <time>2022-05-15T09:55:53.925Z</time>
      </trkpt>
      <trkpt lat="41.9234" lon="19.56288">
        <ele>47.752711</ele>
        <time>2022-05-15T09:55:55.932Z</time>
      </trkpt>
      <trkpt lat="41.92348" lon="19.56284">
        <ele>47.823607</ele>
        <time>2022-05-15T09:55:57.932Z</time>
      </trkpt>
      <trkpt lat="41.92357" lon="19.56281">
        <ele>47.893023</ele>
        <time>2022-05-15T09:55:59.918Z</time>
      </trkpt>
      <trkpt lat="41.92369" lon="19.56275">
        <ele>47.991545</ele>
        <time>2022-05-15T09:56:02.941Z</time>
      </trkpt>
      <trkpt lat="41.9238" lon="19.56271">
        <ele>48.078635</ele>
        <time>2022-05-15T09:56:05.928Z</time>
      </trkpt>
      <trkpt lat="41.92391" lon="19.56266">
        <ele>48.169623</ele>
        <time>2022-05-15T09:56:08.938Z</time>
      </trkpt>
      <trkpt lat="41.92402" lon="19.56262">
        <ele>48.262523</ele>
        <time>2022-05-15T09:56:11.911Z</time>
      </trkpt>
      <trkpt lat="41.92412" lon="19.56259">
        <ele>48.342886</ele>
        <time>2022-05-15T09:56:13.918Z</time>
      </trkpt>
      <trkpt lat="41.92422" lon="19.56255">
        <ele>48.420412</ele>
        <time>2022-05-15T09:56:15.924Z</time>
      </trkpt>
      <trkpt lat="41.92431" lon="19.5625">
        <ele>48.498849</ele>
        <time>2022-05-15T09:56:17.909Z</time>
      </trkpt>
      <trkpt lat="41.9244" lon="19.56245">
        <ele>48.569992</ele>
        <time>2022-05-15T09:56:19.935Z</time>
      </trkpt>
      <trkpt lat="41.92452" lon="19.56239">
        <ele>48.673399</ele>
        <time>2022-05-15T09:56:22.918Z</time>
      </trkpt>
      <trkpt lat="41.92464" lon="19.56232">
        <ele>48.462615</ele>
        <time>2022-05-15T09:56:25.923Z</time>
      </trkpt>
      <trkpt lat="41.92475" lon="19.56226">
        <ele>48.217695</ele>
        <time>2022-05-15T09:56:28.915Z</time>
      </trkpt>
      <trkpt lat="41.92486" lon="19.56219">
        <ele>47.973468</ele>
        <time>2022-05-15T09:56:31.917Z</time>
      </trkpt>
      <trkpt lat="41.92497" lon="19.56212">
        <ele>47.722439</ele>
        <time>2022-05-15T09:56:34.927Z</time>
      </trkpt>
      <trkpt lat="41.92508" lon="19.56204">
        <ele>47.471205</ele>
        <time>2022-05-15T09:56:37.911Z</time>
      </trkpt>
      <trkpt lat="41.92517" lon="19.56195">
        <ele>47.233475</ele>
        <time>2022-05-15T09:56:40.917Z</time>
      </trkpt>
      <trkpt lat="41.92524" lon="19.56182">
        <ele>47.001872</ele>
        <time>2022-05-15T09:56:43.917Z</time>
      </trkpt>
      <trkpt lat="41.92529" lon="19.56168">
        <ele>46.757584</ele>
        <time>2022-05-15T09:56:46.911Z</time>
      </trkpt>
      <trkpt lat="41.92534" lon="19.56151">
        <ele>46.491924</ele>
        <time>2022-05-15T09:56:49.921Z</time>
      </trkpt>
      <trkpt lat="41.92537" lon="19.56135">
        <ele>46.244791</ele>
        <time>2022-05-15T09:56:52.913Z</time>
      </trkpt>
      <trkpt lat="41.9254" lon="19.56121">
        <ele>46.012725</ele>
        <time>2022-05-15T09:56:55.926Z</time>
      </trkpt>
      <trkpt lat="41.92543" lon="19.56106">
        <ele>45.781239</ele>
        <time>2022-05-15T09:56:58.942Z</time>
      </trkpt>
      <trkpt lat="41.92547" lon="19.56091">
        <ele>45.547726</ele>
        <time>2022-05-15T09:57:01.916Z</time>
      </trkpt>
      <trkpt lat="41.92551" lon="19.56076">
        <ele>45.306149</ele>
        <time>2022-05-15T09:57:04.919Z</time>
      </trkpt>
      <trkpt lat="41.92555" lon="19.56061">
        <ele>45.061789</ele>
        <time>2022-05-15T09:57:07.931Z</time>
      </trkpt>
      <trkpt lat="41.92559" lon="19.56047">
        <ele>45.097663</ele>
        <time>2022-05-15T09:57:10.915Z</time>
      </trkpt>
      <trkpt lat="41.92562" lon="19.56033">
        <ele>45.172578</ele>
        <time>2022-05-15T09:57:13.914Z</time>
      </trkpt>
      <trkpt lat="41.92566" lon="19.56018">
        <ele>45.249387</ele>
        <time>2022-05-15T09:57:16.909Z</time>
      </trkpt>
      <trkpt lat="41.9257" lon="19.56004">
        <ele>45.324998</ele>
        <time>2022-05-15T09:57:19.919Z</time>
      </trkpt>
      <trkpt lat="41.92574" lon="19.5599">
        <ele>45.402485</ele>
        <time>2022-05-15T09:57:22.925Z</time>
      </trkpt>
      <trkpt lat="41.92578" lon="19.55976">
        <ele>45.476705</ele>
        <time>2022-05-15T09:57:25.928Z</time>
      </trkpt>
      <trkpt lat="41.92582" lon="19.55962">
        <ele>45.552342</ele>
        <time>2022-05-15T09:57:28.914Z</time>
      </trkpt>
      <trkpt lat="41.92586" lon="19.55947">
        <ele>45.629598</ele>
        <time>2022-05-15T09:57:31.957Z</time>
      </trkpt>
      <trkpt lat="41.9259" lon="19.55932">
        <ele>45.710143</ele>
        <time>2022-05-15T09:57:34.919Z</time>
      </trkpt>
      <trkpt lat="41.92594" lon="19.55918">
        <ele>45.785284</ele>
        <time>2022-05-15T09:57:37.911Z</time>
      </trkpt>
      <trkpt lat="41.92597" lon="19.55905">
        <ele>45.855749</ele>
        <time>2022-05-15T09:57:40.908Z</time>
      </trkpt>
      <trkpt lat="41.92601" lon="19.55892">
        <ele>45.925775</ele>
        <time>2022-05-15T09:57:43.909Z</time>
      </trkpt>
      <trkpt lat="41.92605" lon="19.55881">
        <ele>45.98829</ele>
        <time>2022-05-15T09:57:46.910Z</time>
      </trkpt>
      <trkpt lat="41.92611" lon="19.55869">
        <ele>46.057489</ele>
        <time>2022-05-15T09:57:51.924Z</time>
      </trkpt>
      <trkpt lat="41.92613" lon="19.55845">
        <ele>46.181139</ele>
        <time>2022-05-15T10:21:34.946Z</time>
      </trkpt>
      <trkpt lat="41.92616" lon="19.5583">
        <ele>46.250941</ele>
        <time>2022-05-15T10:21:38.945Z</time>
      </trkpt>
      <trkpt lat="41.92619" lon="19.55815">
        <ele>46.286479</ele>
        <time>2022-05-15T10:21:42.929Z</time>
      </trkpt>
      <trkpt lat="41.9262" lon="19.55803">
        <ele>46.31541</ele>
        <time>2022-05-15T10:21:45.961Z</time>
      </trkpt>
      <trkpt lat="41.92621" lon="19.5579">
        <ele>46.345953</ele>
        <time>2022-05-15T10:21:48.956Z</time>
      </trkpt>
      <trkpt lat="41.92622" lon="19.55777">
        <ele>46.376758</ele>
        <time>2022-05-15T10:21:51.952Z</time>
      </trkpt>
      <trkpt lat="41.92624" lon="19.55765">
        <ele>46.405958</ele>
        <time>2022-05-15T10:21:54.963Z</time>
      </trkpt>
      <trkpt lat="41.92625" lon="19.55749">
        <ele>46.444509</ele>
        <time>2022-05-15T10:21:58.945Z</time>
      </trkpt>
      <trkpt lat="41.92624" lon="19.55735">
        <ele>46.475413</ele>
        <time>2022-05-15T10:22:01.943Z</time>
      </trkpt>
      <trkpt lat="41.92623" lon="19.55723">
        <ele>46.506141</ele>
        <time>2022-05-15T10:22:04.932Z</time>
      </trkpt>
      <trkpt lat="41.92621" lon="19.55709">
        <ele>46.538326</ele>
        <time>2022-05-15T10:22:07.963Z</time>
      </trkpt>
      <trkpt lat="41.92618" lon="19.55695">
        <ele>46.571804</ele>
        <time>2022-05-15T10:22:10.986Z</time>
      </trkpt>
      <trkpt lat="41.92615" lon="19.55681">
        <ele>46.60674</ele>
        <time>2022-05-15T10:22:13.934Z</time>
      </trkpt>
      <trkpt lat="41.92612" lon="19.55666">
        <ele>46.643879</ele>
        <time>2022-05-15T10:22:16.988Z</time>
      </trkpt>
      <trkpt lat="41.9261" lon="19.55651">
        <ele>46.680342</ele>
        <time>2022-05-15T10:22:19.937Z</time>
      </trkpt>
      <trkpt lat="41.92608" lon="19.55636">
        <ele>46.714992</ele>
        <time>2022-05-15T10:22:22.953Z</time>
      </trkpt>
      <trkpt lat="41.92605" lon="19.55622">
        <ele>46.750466</ele>
        <time>2022-05-15T10:22:25.934Z</time>
      </trkpt>
      <trkpt lat="41.92604" lon="19.55607">
        <ele>46.786026</ele>
        <time>2022-05-15T10:22:28.954Z</time>
      </trkpt>
      <trkpt lat="41.92604" lon="19.55591">
        <ele>46.820662</ele>
        <time>2022-05-15T10:22:31.945Z</time>
      </trkpt>
      <trkpt lat="41.92604" lon="19.55574">
        <ele>46.849023</ele>
        <time>2022-05-15T10:22:34.946Z</time>
      </trkpt>
      <trkpt lat="41.92606" lon="19.55558">
        <ele>46.876297</ele>
        <time>2022-05-15T10:22:37.935Z</time>
      </trkpt>
      <trkpt lat="41.92611" lon="19.55545">
        <ele>46.902726</ele>
        <time>2022-05-15T10:22:40.952Z</time>
      </trkpt>
      <trkpt lat="41.92617" lon="19.55531">
        <ele>46.928912</ele>
        <time>2022-05-15T10:22:43.942Z</time>
      </trkpt>
      <trkpt lat="41.92622" lon="19.55519">
        <ele>46.953403</ele>
        <time>2022-05-15T10:22:46.943Z</time>
      </trkpt>
      <trkpt lat="41.92628" lon="19.55507">
        <ele>46.977315</ele>
        <time>2022-05-15T10:22:49.932Z</time>
      </trkpt>
      <trkpt lat="41.92633" lon="19.55495">
        <ele>47.001261</ele>
        <time>2022-05-15T10:22:52.940Z</time>
      </trkpt>
      <trkpt lat="41.92639" lon="19.55483">
        <ele>47.025977</ele>
        <time>2022-05-15T10:22:55.952Z</time>
      </trkpt>
      <trkpt lat="41.92644" lon="19.55469">
        <ele>47.051905</ele>
        <time>2022-05-15T10:22:58.949Z</time>
      </trkpt>
      <trkpt lat="41.9265" lon="19.55455">
        <ele>47.080332</ele>
        <time>2022-05-15T10:23:01.979Z</time>
      </trkpt>
      <trkpt lat="41.92656" lon="19.5544">
        <ele>47.109687</ele>
        <time>2022-05-15T10:23:04.950Z</time>
      </trkpt>
      <trkpt lat="41.92662" lon="19.55425">
        <ele>47.137735</ele>
        <time>2022-05-15T10:23:07.931Z</time>
      </trkpt>
      <trkpt lat="41.92668" lon="19.55411">
        <ele>47.16519</ele>
        <time>2022-05-15T10:23:10.939Z</time>
      </trkpt>
      <trkpt lat="41.92674" lon="19.55398">
        <ele>47.192382</ele>
        <time>2022-05-15T10:23:13.931Z</time>
      </trkpt>
      <trkpt lat="41.9268" lon="19.55384">
        <ele>47.218426</ele>
        <time>2022-05-15T10:23:16.954Z</time>
      </trkpt>
      <trkpt lat="41.92686" lon="19.55373">
        <ele>47.173321</ele>
        <time>2022-05-15T10:23:19.940Z</time>
      </trkpt>
      <trkpt lat="41.92693" lon="19.55362">
        <ele>47.092686</ele>
        <time>2022-05-15T10:23:22.965Z</time>
      </trkpt>
      <trkpt lat="41.92699" lon="19.55351">
        <ele>47.012448</ele>
        <time>2022-05-15T10:23:25.937Z</time>
      </trkpt>
      <trkpt lat="41.92707" lon="19.5534">
        <ele>46.927485</ele>
        <time>2022-05-15T10:23:28.935Z</time>
      </trkpt>
      <trkpt lat="41.92714" lon="19.55329">
        <ele>46.839794</ele>
        <time>2022-05-15T10:23:31.969Z</time>
      </trkpt>
      <trkpt lat="41.92722" lon="19.55317">
        <ele>46.753969</ele>
        <time>2022-05-15T10:23:34.972Z</time>
      </trkpt>
      <trkpt lat="41.92729" lon="19.55306">
        <ele>46.668576</ele>
        <time>2022-05-15T10:23:37.945Z</time>
      </trkpt>
      <trkpt lat="41.92736" lon="19.55295">
        <ele>46.584377</ele>
        <time>2022-05-15T10:23:40.991Z</time>
      </trkpt>
      <trkpt lat="41.92743" lon="19.55285">
        <ele>46.502898</ele>
        <time>2022-05-15T10:23:43.940Z</time>
      </trkpt>
      <trkpt lat="41.92751" lon="19.55273">
        <ele>46.412831</ele>
        <time>2022-05-15T10:23:46.933Z</time>
      </trkpt>
      <trkpt lat="41.92759" lon="19.55261">
        <ele>46.322337</ele>
        <time>2022-05-15T10:23:49.932Z</time>
      </trkpt>
      <trkpt lat="41.92767" lon="19.55249">
        <ele>46.233632</ele>
        <time>2022-05-15T10:23:52.942Z</time>
      </trkpt>
      <trkpt lat="41.92775" lon="19.55239">
        <ele>46.147617</ele>
        <time>2022-05-15T10:23:55.931Z</time>
      </trkpt>
      <trkpt lat="41.92782" lon="19.55228">
        <ele>46.0629</ele>
        <time>2022-05-15T10:23:58.952Z</time>
      </trkpt>
      <trkpt lat="41.92789" lon="19.55217">
        <ele>45.980154</ele>
        <time>2022-05-15T10:24:01.942Z</time>
      </trkpt>
      <trkpt lat="41.92797" lon="19.55206">
        <ele>45.896156</ele>
        <time>2022-05-15T10:24:04.936Z</time>
      </trkpt>
      <trkpt lat="41.92804" lon="19.55195">
        <ele>45.926006</ele>
        <time>2022-05-15T10:24:07.936Z</time>
      </trkpt>
      <trkpt lat="41.92812" lon="19.55185">
        <ele>46.108828</ele>
        <time>2022-05-15T10:24:10.953Z</time>
      </trkpt>
      <trkpt lat="41.9282" lon="19.55175">
        <ele>46.291996</ele>
        <time>2022-05-15T10:24:13.973Z</time>
      </trkpt>
      <trkpt lat="41.92828" lon="19.55165">
        <ele>46.478032</ele>
        <time>2022-05-15T10:24:16.922Z</time>
      </trkpt>
      <trkpt lat="41.92837" lon="19.55157">
        <ele>46.664413</ele>
        <time>2022-05-15T10:24:19.923Z</time>
      </trkpt>
      <trkpt lat="41.92846" lon="19.55147">
        <ele>46.857002</ele>
        <time>2022-05-15T10:24:22.932Z</time>
      </trkpt>
      <trkpt lat="41.92854" lon="19.55138">
        <ele>47.041885</ele>
        <time>2022-05-15T10:24:25.949Z</time>
      </trkpt>
      <trkpt lat="41.92864" lon="19.5513">
        <ele>47.229509</ele>
        <time>2022-05-15T10:24:28.952Z</time>
      </trkpt>
      <trkpt lat="41.92874" lon="19.55122">
        <ele>47.430824</ele>
        <time>2022-05-15T10:24:31.959Z</time>
      </trkpt>
      <trkpt lat="41.92883" lon="19.55114">
        <ele>47.624052</ele>
        <time>2022-05-15T10:24:34.972Z</time>
      </trkpt>
      <trkpt lat="41.92893" lon="19.55107">
        <ele>47.79976</ele>
        <time>2022-05-15T10:24:37.933Z</time>
      </trkpt>
      <trkpt lat="41.92903" lon="19.55101">
        <ele>47.992675</ele>
        <time>2022-05-15T10:24:40.956Z</time>
      </trkpt>
      <trkpt lat="41.92913" lon="19.55094">
        <ele>48.181881</ele>
        <time>2022-05-15T10:24:43.960Z</time>
      </trkpt>
      <trkpt lat="41.92922" lon="19.55088">
        <ele>48.356631</ele>
        <time>2022-05-15T10:24:46.955Z</time>
      </trkpt>
      <trkpt lat="41.92932" lon="19.55082">
        <ele>48.537614</ele>
        <time>2022-05-15T10:24:49.962Z</time>
      </trkpt>
      <trkpt lat="41.92942" lon="19.55076">
        <ele>48.728874</ele>
        <time>2022-05-15T10:24:52.942Z</time>
      </trkpt>
      <trkpt lat="41.92952" lon="19.55069">
        <ele>48.911483</ele>
        <time>2022-05-15T10:24:55.926Z</time>
      </trkpt>
      <trkpt lat="41.92961" lon="19.55063">
        <ele>49.03008</ele>
        <time>2022-05-15T10:24:58.944Z</time>
      </trkpt>
      <trkpt lat="41.92971" lon="19.55056">
        <ele>49.150275</ele>
        <time>2022-05-15T10:25:01.941Z</time>
      </trkpt>
      <trkpt lat="41.92981" lon="19.5505">
        <ele>49.270835</ele>
        <time>2022-05-15T10:25:04.930Z</time>
      </trkpt>
      <trkpt lat="41.92991" lon="19.55043">
        <ele>49.391395</ele>
        <time>2022-05-15T10:25:07.941Z</time>
      </trkpt>
      <trkpt lat="41.93001" lon="19.55037">
        <ele>49.510176</ele>
        <time>2022-05-15T10:25:10.942Z</time>
      </trkpt>
      <trkpt lat="41.9301" lon="19.55031">
        <ele>49.629148</ele>
        <time>2022-05-15T10:25:13.925Z</time>
      </trkpt>
      <trkpt lat="41.93021" lon="19.55026">
        <ele>49.754782</ele>
        <time>2022-05-15T10:25:16.921Z</time>
      </trkpt>
      <trkpt lat="41.93031" lon="19.55017">
        <ele>49.881693</ele>
        <time>2022-05-15T10:25:19.948Z</time>
      </trkpt>
      <trkpt lat="41.93041" lon="19.55009">
        <ele>50.011722</ele>
        <time>2022-05-15T10:25:22.920Z</time>
      </trkpt>
      <trkpt lat="41.9305" lon="19.55001">
        <ele>50.126321</ele>
        <time>2022-05-15T10:25:25.945Z</time>
      </trkpt>
      <trkpt lat="41.9306" lon="19.54995">
        <ele>50.24984</ele>
        <time>2022-05-15T10:25:28.954Z</time>
      </trkpt>
      <trkpt lat="41.9307" lon="19.54989">
        <ele>50.372964</ele>
        <time>2022-05-15T10:25:31.927Z</time>
      </trkpt>
      <trkpt lat="41.93081" lon="19.54983">
        <ele>50.502252</ele>
        <time>2022-05-15T10:25:34.945Z</time>
      </trkpt>
      <trkpt lat="41.93093" lon="19.54978">
        <ele>50.644825</ele>
        <time>2022-05-15T10:25:37.933Z</time>
      </trkpt>
      <trkpt lat="41.93105" lon="19.54972">
        <ele>50.786676</ele>
        <time>2022-05-15T10:25:40.928Z</time>
      </trkpt>
      <trkpt lat="41.93118" lon="19.54967">
        <ele>50.773666</ele>
        <time>2022-05-15T10:25:43.935Z</time>
      </trkpt>
      <trkpt lat="41.9313" lon="19.54961">
        <ele>50.43587</ele>
        <time>2022-05-15T10:25:46.947Z</time>
      </trkpt>
      <trkpt lat="41.93141" lon="19.54956">
        <ele>50.113876</ele>
        <time>2022-05-15T10:25:49.948Z</time>
      </trkpt>
      <trkpt lat="41.93152" lon="19.54951">
        <ele>49.793159</ele>
        <time>2022-05-15T10:25:52.950Z</time>
      </trkpt>
      <trkpt lat="41.93164" lon="19.54946">
        <ele>49.473064</ele>
        <time>2022-05-15T10:25:55.976Z</time>
      </trkpt>
      <trkpt lat="41.93175" lon="19.5494">
        <ele>49.154084</ele>
        <time>2022-05-15T10:25:58.951Z</time>
      </trkpt>
      <trkpt lat="41.93187" lon="19.54935">
        <ele>48.829509</ele>
        <time>2022-05-15T10:26:01.940Z</time>
      </trkpt>
      <trkpt lat="41.93198" lon="19.5493">
        <ele>48.508793</ele>
        <time>2022-05-15T10:26:04.938Z</time>
      </trkpt>
      <trkpt lat="41.9321" lon="19.54924">
        <ele>48.176599</ele>
        <time>2022-05-15T10:26:07.953Z</time>
      </trkpt>
      <trkpt lat="41.93222" lon="19.54919">
        <ele>47.839381</ele>
        <time>2022-05-15T10:26:10.946Z</time>
      </trkpt>
      <trkpt lat="41.93233" lon="19.54913">
        <ele>47.501492</ele>
        <time>2022-05-15T10:26:13.930Z</time>
      </trkpt>
      <trkpt lat="41.93244" lon="19.54907">
        <ele>47.186082</ele>
        <time>2022-05-15T10:26:16.934Z</time>
      </trkpt>
      <trkpt lat="41.93256" lon="19.54901">
        <ele>46.853586</ele>
        <time>2022-05-15T10:26:19.942Z</time>
      </trkpt>
      <trkpt lat="41.93268" lon="19.54896">
        <ele>46.525243</ele>
        <time>2022-05-15T10:26:22.942Z</time>
      </trkpt>
      <trkpt lat="41.93279" lon="19.54889">
        <ele>46.195232</ele>
        <time>2022-05-15T10:26:25.960Z</time>
      </trkpt>
      <trkpt lat="41.9329" lon="19.54883">
        <ele>46.026345</ele>
        <time>2022-05-15T10:26:28.944Z</time>
      </trkpt>
      <trkpt lat="41.93301" lon="19.54876">
        <ele>45.944171</ele>
        <time>2022-05-15T10:26:31.943Z</time>
      </trkpt>
      <trkpt lat="41.93312" lon="19.54867">
        <ele>45.853632</ele>
        <time>2022-05-15T10:26:34.939Z</time>
      </trkpt>
      <trkpt lat="41.93321" lon="19.54857">
        <ele>45.76843</ele>
        <time>2022-05-15T10:26:37.938Z</time>
      </trkpt>
      <trkpt lat="41.9333" lon="19.54847">
        <ele>45.684226</ele>
        <time>2022-05-15T10:26:40.972Z</time>
      </trkpt>
      <trkpt lat="41.9334" lon="19.54836">
        <ele>45.596941</ele>
        <time>2022-05-15T10:26:43.939Z</time>
      </trkpt>
      <trkpt lat="41.93347" lon="19.54828">
        <ele>45.532614</ele>
        <time>2022-05-15T10:26:45.951Z</time>
      </trkpt>
      <trkpt lat="41.93354" lon="19.5482">
        <ele>45.466964</ele>
        <time>2022-05-15T10:26:47.946Z</time>
      </trkpt>
      <trkpt lat="41.93362" lon="19.54813">
        <ele>45.400256</ele>
        <time>2022-05-15T10:26:49.934Z</time>
      </trkpt>
      <trkpt lat="41.9337" lon="19.54806">
        <ele>45.333589</ele>
        <time>2022-05-15T10:26:51.968Z</time>
      </trkpt>
      <trkpt lat="41.93378" lon="19.54799">
        <ele>45.269413</ele>
        <time>2022-05-15T10:26:53.940Z</time>
      </trkpt>
      <trkpt lat="41.9339" lon="19.54792">
        <ele>45.179996</ele>
        <time>2022-05-15T10:26:56.948Z</time>
      </trkpt>
      <trkpt lat="41.93401" lon="19.54785">
        <ele>45.091587</ele>
        <time>2022-05-15T10:26:59.970Z</time>
      </trkpt>
      <trkpt lat="41.93412" lon="19.54776">
        <ele>45.002118</ele>
        <time>2022-05-15T10:27:02.978Z</time>
      </trkpt>
      <trkpt lat="41.93422" lon="19.54768">
        <ele>44.916399</ele>
        <time>2022-05-15T10:27:05.948Z</time>
      </trkpt>
      <trkpt lat="41.93432" lon="19.5476">
        <ele>44.835452</ele>
        <time>2022-05-15T10:27:08.996Z</time>
      </trkpt>
      <trkpt lat="41.93443" lon="19.54752">
        <ele>44.83098</ele>
        <time>2022-05-15T10:27:11.937Z</time>
      </trkpt>
      <trkpt lat="41.93453" lon="19.54743">
        <ele>44.846478</ele>
        <time>2022-05-15T10:27:14.967Z</time>
      </trkpt>
      <trkpt lat="41.93462" lon="19.54736">
        <ele>44.860123</ele>
        <time>2022-05-15T10:27:17.928Z</time>
      </trkpt>
      <trkpt lat="41.93471" lon="19.54728">
        <ele>44.873134</ele>
        <time>2022-05-15T10:27:20.958Z</time>
      </trkpt>
      <trkpt lat="41.93482" lon="19.5472">
        <ele>44.888175</ele>
        <time>2022-05-15T10:27:23.935Z</time>
      </trkpt>
      <trkpt lat="41.93493" lon="19.54711">
        <ele>44.904723</ele>
        <time>2022-05-15T10:27:26.933Z</time>
      </trkpt>
      <trkpt lat="41.93501" lon="19.54704">
        <ele>44.916423</ele>
        <time>2022-05-15T10:27:28.963Z</time>
      </trkpt>
      <trkpt lat="41.93509" lon="19.54697">
        <ele>44.928967</ele>
        <time>2022-05-15T10:27:30.978Z</time>
      </trkpt>
      <trkpt lat="41.93518" lon="19.54691">
        <ele>44.941094</ele>
        <time>2022-05-15T10:27:32.943Z</time>
      </trkpt>
      <trkpt lat="41.93526" lon="19.54685">
        <ele>44.952479</ele>
        <time>2022-05-15T10:27:34.952Z</time>
      </trkpt>
      <trkpt lat="41.93537" lon="19.54677">
        <ele>44.968234</ele>
        <time>2022-05-15T10:27:37.939Z</time>
      </trkpt>
      <trkpt lat="41.93548" lon="19.54668">
        <ele>44.984685</ele>
        <time>2022-05-15T10:27:40.925Z</time>
      </trkpt>
      <trkpt lat="41.93559" lon="19.54659">
        <ele>45.001198</ele>
        <time>2022-05-15T10:27:43.942Z</time>
      </trkpt>
      <trkpt lat="41.9357" lon="19.5465">
        <ele>45.017327</ele>
        <time>2022-05-15T10:27:46.934Z</time>
      </trkpt>
      <trkpt lat="41.93581" lon="19.54642">
        <ele>45.032399</ele>
        <time>2022-05-15T10:27:49.929Z</time>
      </trkpt>
      <trkpt lat="41.93592" lon="19.54633">
        <ele>45.036722</ele>
        <time>2022-05-15T10:27:52.934Z</time>
      </trkpt>
      <trkpt lat="41.93602" lon="19.54626">
        <ele>45.008939</ele>
        <time>2022-05-15T10:27:55.956Z</time>
      </trkpt>
      <trkpt lat="41.93612" lon="19.54618">
        <ele>44.981184</ele>
        <time>2022-05-15T10:27:58.941Z</time>
      </trkpt>
      <trkpt lat="41.93621" lon="19.5461">
        <ele>44.953954</ele>
        <time>2022-05-15T10:28:01.941Z</time>
      </trkpt>
      <trkpt lat="41.93631" lon="19.54602">
        <ele>44.927276</ele>
        <time>2022-05-15T10:28:04.950Z</time>
      </trkpt>
      <trkpt lat="41.9364" lon="19.54594">
        <ele>44.899661</ele>
        <time>2022-05-15T10:28:07.929Z</time>
      </trkpt>
      <trkpt lat="41.9365" lon="19.54585">
        <ele>44.871747</ele>
        <time>2022-05-15T10:28:10.944Z</time>
      </trkpt>
      <trkpt lat="41.9366" lon="19.54576">
        <ele>44.841834</ele>
        <time>2022-05-15T10:28:13.954Z</time>
      </trkpt>
      <trkpt lat="41.93671" lon="19.54567">
        <ele>44.810807</ele>
        <time>2022-05-15T10:28:16.947Z</time>
      </trkpt>
      <trkpt lat="41.93683" lon="19.54559">
        <ele>44.780442</ele>
        <time>2022-05-15T10:28:19.927Z</time>
      </trkpt>
      <trkpt lat="41.93695" lon="19.54552">
        <ele>44.748244</ele>
        <time>2022-05-15T10:28:22.936Z</time>
      </trkpt>
      <trkpt lat="41.93706" lon="19.54546">
        <ele>44.719335</ele>
        <time>2022-05-15T10:28:25.939Z</time>
      </trkpt>
      <trkpt lat="41.93716" lon="19.54539">
        <ele>44.692054</ele>
        <time>2022-05-15T10:28:28.933Z</time>
      </trkpt>
      <trkpt lat="41.93726" lon="19.54534">
        <ele>44.667194</ele>
        <time>2022-05-15T10:28:31.952Z</time>
      </trkpt>
      <trkpt lat="41.93736" lon="19.54528">
        <ele>44.641147</ele>
        <time>2022-05-15T10:28:34.947Z</time>
      </trkpt>
      <trkpt lat="41.93747" lon="19.54522">
        <ele>44.6121</ele>
        <time>2022-05-15T10:28:37.916Z</time>
      </trkpt>
      <trkpt lat="41.93758" lon="19.54515">
        <ele>44.778909</ele>
        <time>2022-05-15T10:28:40.933Z</time>
      </trkpt>
      <trkpt lat="41.93769" lon="19.54509">
        <ele>44.954412</ele>
        <time>2022-05-15T10:28:43.958Z</time>
      </trkpt>
      <trkpt lat="41.9378" lon="19.54501">
        <ele>45.134862</ele>
        <time>2022-05-15T10:28:46.937Z</time>
      </trkpt>
      <trkpt lat="41.93791" lon="19.54492">
        <ele>45.317794</ele>
        <time>2022-05-15T10:28:49.989Z</time>
      </trkpt>
      <trkpt lat="41.93802" lon="19.54483">
        <ele>45.506399</ele>
        <time>2022-05-15T10:28:52.940Z</time>
      </trkpt>
      <trkpt lat="41.93813" lon="19.54474">
        <ele>45.689331</ele>
        <time>2022-05-15T10:28:55.919Z</time>
      </trkpt>
      <trkpt lat="41.93823" lon="19.54466">
        <ele>45.860707</ele>
        <time>2022-05-15T10:28:58.966Z</time>
      </trkpt>
      <trkpt lat="41.93832" lon="19.54457">
        <ele>46.019792</ele>
        <time>2022-05-15T10:29:01.942Z</time>
      </trkpt>
      <trkpt lat="41.9384" lon="19.54448">
        <ele>46.167684</ele>
        <time>2022-05-15T10:29:04.944Z</time>
      </trkpt>
      <trkpt lat="41.93846" lon="19.54438">
        <ele>46.300878</ele>
        <time>2022-05-15T10:29:07.972Z</time>
      </trkpt>
      <trkpt lat="41.9385" lon="19.54426">
        <ele>46.443188</ele>
        <time>2022-05-15T10:29:10.944Z</time>
      </trkpt>
      <trkpt lat="41.93854" lon="19.54412">
        <ele>46.602182</ele>
        <time>2022-05-15T10:29:13.968Z</time>
      </trkpt>
      <trkpt lat="41.93857" lon="19.54399">
        <ele>46.747612</ele>
        <time>2022-05-15T10:29:16.931Z</time>
      </trkpt>
      <trkpt lat="41.93858" lon="19.54386">
        <ele>46.889475</ele>
        <time>2022-05-15T10:29:19.943Z</time>
      </trkpt>
      <trkpt lat="41.93859" lon="19.54372">
        <ele>47.036224</ele>
        <time>2022-05-15T10:29:22.933Z</time>
      </trkpt>
      <trkpt lat="41.9386" lon="19.54359">
        <ele>47.179988</ele>
        <time>2022-05-15T10:29:25.953Z</time>
      </trkpt>
      <trkpt lat="41.93861" lon="19.54345">
        <ele>47.256706</ele>
        <time>2022-05-15T10:29:28.963Z</time>
      </trkpt>
      <trkpt lat="41.93862" lon="19.54332">
        <ele>47.321535</ele>
        <time>2022-05-15T10:29:31.948Z</time>
      </trkpt>
      <trkpt lat="41.93865" lon="19.54319">
        <ele>47.385786</ele>
        <time>2022-05-15T10:29:34.941Z</time>
      </trkpt>
      <trkpt lat="41.93869" lon="19.54306">
        <ele>47.451807</ele>
        <time>2022-05-15T10:29:37.941Z</time>
      </trkpt>
      <trkpt lat="41.93874" lon="19.54294">
        <ele>47.520205</ele>
        <time>2022-05-15T10:29:40.957Z</time>
      </trkpt>
      <trkpt lat="41.9388" lon="19.54282">
        <ele>47.590286</ele>
        <time>2022-05-15T10:29:43.943Z</time>
      </trkpt>
      <trkpt lat="41.93886" lon="19.5427">
        <ele>47.662595</ele>
        <time>2022-05-15T10:29:46.925Z</time>
      </trkpt>
      <trkpt lat="41.93893" lon="19.54258">
        <ele>47.733463</ele>
        <time>2022-05-15T10:29:49.945Z</time>
      </trkpt>
      <trkpt lat="41.939" lon="19.54248">
        <ele>47.802564</ele>
        <time>2022-05-15T10:29:52.949Z</time>
      </trkpt>
      <trkpt lat="41.93907" lon="19.54236">
        <ele>47.872166</ele>
        <time>2022-05-15T10:29:55.932Z</time>
      </trkpt>
      <trkpt lat="41.93912" lon="19.54223">
        <ele>47.943501</ele>
        <time>2022-05-15T10:29:58.940Z</time>
      </trkpt>
      <trkpt lat="41.93917" lon="19.54208">
        <ele>48.022322</ele>
        <time>2022-05-15T10:30:01.939Z</time>
      </trkpt>
      <trkpt lat="41.9392" lon="19.54191">
        <ele>48.105937</ele>
        <time>2022-05-15T10:30:04.930Z</time>
      </trkpt>
      <trkpt lat="41.93923" lon="19.54174">
        <ele>48.19173</ele>
        <time>2022-05-15T10:30:07.968Z</time>
      </trkpt>
      <trkpt lat="41.93925" lon="19.54162">
        <ele>48.251609</ele>
        <time>2022-05-15T10:30:09.947Z</time>
      </trkpt>
      <trkpt lat="41.93928" lon="19.5415">
        <ele>48.312027</ele>
        <time>2022-05-15T10:30:11.942Z</time>
      </trkpt>
      <trkpt lat="41.93931" lon="19.54138">
        <ele>48.361063</ele>
        <time>2022-05-15T10:30:13.933Z</time>
      </trkpt>
      <trkpt lat="41.93934" lon="19.54126">
        <ele>48.343704</ele>
        <time>2022-05-15T10:30:15.942Z</time>
      </trkpt>
      <trkpt lat="41.93937" lon="19.54115">
        <ele>48.326129</ele>
        <time>2022-05-15T10:30:17.952Z</time>
      </trkpt>
      <trkpt lat="41.93943" lon="19.54099">
        <ele>48.300482</ele>
        <time>2022-05-15T10:30:20.931Z</time>
      </trkpt>
      <trkpt lat="41.93948" lon="19.54083">
        <ele>48.274941</ele>
        <time>2022-05-15T10:30:23.947Z</time>
      </trkpt>
      <trkpt lat="41.93952" lon="19.54071">
        <ele>48.256534</ele>
        <time>2022-05-15T10:30:25.946Z</time>
      </trkpt>
      <trkpt lat="41.93956" lon="19.54059">
        <ele>48.237601</ele>
        <time>2022-05-15T10:30:27.972Z</time>
      </trkpt>
      <trkpt lat="41.9396" lon="19.54048">
        <ele>48.219679</ele>
        <time>2022-05-15T10:30:30.013Z</time>
      </trkpt>
      <trkpt lat="41.93964" lon="19.54036">
        <ele>48.201558</ele>
        <time>2022-05-15T10:30:31.933Z</time>
      </trkpt>
      <trkpt lat="41.93968" lon="19.54025">
        <ele>48.183569</ele>
        <time>2022-05-15T10:30:33.932Z</time>
      </trkpt>
      <trkpt lat="41.93971" lon="19.54013">
        <ele>48.166105</ele>
        <time>2022-05-15T10:30:35.928Z</time>
      </trkpt>
      <trkpt lat="41.93975" lon="19.54002">
        <ele>48.148379</ele>
        <time>2022-05-15T10:30:37.942Z</time>
      </trkpt>
      <trkpt lat="41.93979" lon="19.53991">
        <ele>48.130522</ele>
        <time>2022-05-15T10:30:39.919Z</time>
      </trkpt>
      <trkpt lat="41.93982" lon="19.53979">
        <ele>48.111872</ele>
        <time>2022-05-15T10:30:41.970Z</time>
      </trkpt>
      <trkpt lat="41.93986" lon="19.53967">
        <ele>48.0935</ele>
        <time>2022-05-15T10:30:43.944Z</time>
      </trkpt>
      <trkpt lat="41.9399" lon="19.53955">
        <ele>48.074922</ele>
        <time>2022-05-15T10:30:45.932Z</time>
      </trkpt>
      <trkpt lat="41.93993" lon="19.53943">
        <ele>48.056405</ele>
        <time>2022-05-15T10:30:47.957Z</time>
      </trkpt>
      <trkpt lat="41.93997" lon="19.53931">
        <ele>48.038492</ele>
        <time>2022-05-15T10:30:49.937Z</time>
      </trkpt>
      <trkpt lat="41.94" lon="19.5392">
        <ele>48.020527</ele>
        <time>2022-05-15T10:30:51.940Z</time>
      </trkpt>
      <trkpt lat="41.94003" lon="19.53908">
        <ele>48.047046</ele>
        <time>2022-05-15T10:30:53.952Z</time>
      </trkpt>
      <trkpt lat="41.94005" lon="19.53897">
        <ele>48.087066</ele>
        <time>2022-05-15T10:30:55.928Z</time>
      </trkpt>
      <trkpt lat="41.94008" lon="19.53884">
        <ele>48.128133</ele>
        <time>2022-05-15T10:30:57.960Z</time>
      </trkpt>
      <trkpt lat="41.9401" lon="19.53872">
        <ele>48.169099</ele>
        <time>2022-05-15T10:30:59.927Z</time>
      </trkpt>
      <trkpt lat="41.94013" lon="19.53856">
        <ele>48.224984</ele>
        <time>2022-05-15T10:31:02.927Z</time>
      </trkpt>
      <trkpt lat="41.94016" lon="19.53839">
        <ele>48.280869</ele>
        <time>2022-05-15T10:31:06.011Z</time>
      </trkpt>
      <trkpt lat="41.94018" lon="19.53822">
        <ele>48.336365</ele>
        <time>2022-05-15T10:31:08.970Z</time>
      </trkpt>
      <trkpt lat="41.94021" lon="19.53806">
        <ele>48.39217</ele>
        <time>2022-05-15T10:31:11.945Z</time>
      </trkpt>
      <trkpt lat="41.94022" lon="19.53789">
        <ele>48.446405</ele>
        <time>2022-05-15T10:31:14.924Z</time>
      </trkpt>
      <trkpt lat="41.94022" lon="19.53772">
        <ele>48.502104</ele>
        <time>2022-05-15T10:31:17.930Z</time>
      </trkpt>
      <trkpt lat="41.94024" lon="19.53756">
        <ele>48.555647</ele>
        <time>2022-05-15T10:31:20.915Z</time>
      </trkpt>
      <trkpt lat="41.94024" lon="19.53739">
        <ele>48.610366</ele>
        <time>2022-05-15T10:31:23.930Z</time>
      </trkpt>
      <trkpt lat="41.94025" lon="19.53723">
        <ele>48.664132</ele>
        <time>2022-05-15T10:31:26.973Z</time>
      </trkpt>
      <trkpt lat="41.94026" lon="19.53708">
        <ele>48.712947</ele>
        <time>2022-05-15T10:31:29.920Z</time>
      </trkpt>
      <trkpt lat="41.94026" lon="19.53694">
        <ele>48.758823</ele>
        <time>2022-05-15T10:31:32.914Z</time>
      </trkpt>
      <trkpt lat="41.94027" lon="19.5368">
        <ele>48.805025</ele>
        <time>2022-05-15T10:31:35.939Z</time>
      </trkpt>
      <trkpt lat="41.94028" lon="19.53666">
        <ele>48.95842</ele>
        <time>2022-05-15T10:31:38.964Z</time>
      </trkpt>
      <trkpt lat="41.9403" lon="19.53652">
        <ele>49.117244</ele>
        <time>2022-05-15T10:31:41.930Z</time>
      </trkpt>
      <trkpt lat="41.94032" lon="19.53638">
        <ele>49.269697</ele>
        <time>2022-05-15T10:31:44.935Z</time>
      </trkpt>
      <trkpt lat="41.94035" lon="19.53626">
        <ele>49.41541</ele>
        <time>2022-05-15T10:31:47.923Z</time>
      </trkpt>
      <trkpt lat="41.94038" lon="19.53614">
        <ele>49.557318</ele>
        <time>2022-05-15T10:31:50.923Z</time>
      </trkpt>
      <trkpt lat="41.94043" lon="19.536">
        <ele>49.737167</ele>
        <time>2022-05-15T10:31:54.940Z</time>
      </trkpt>
      <trkpt lat="41.9405" lon="19.53587">
        <ele>49.914537</ele>
        <time>2022-05-15T10:31:58.957Z</time>
      </trkpt>
      <trkpt lat="41.94056" lon="19.53574">
        <ele>50.084381</ele>
        <time>2022-05-15T10:32:02.920Z</time>
      </trkpt>
      <trkpt lat="41.94064" lon="19.53563">
        <ele>50.264304</ele>
        <time>2022-05-15T10:32:06.964Z</time>
      </trkpt>
      <trkpt lat="41.94072" lon="19.53555">
        <ele>50.408865</ele>
        <time>2022-05-15T10:32:09.935Z</time>
      </trkpt>
      <trkpt lat="41.94081" lon="19.53548">
        <ele>50.564909</ele>
        <time>2022-05-15T10:32:12.945Z</time>
      </trkpt>
      <trkpt lat="41.94091" lon="19.53541">
        <ele>50.741427</ele>
        <time>2022-05-15T10:32:15.949Z</time>
      </trkpt>
      <trkpt lat="41.94103" lon="19.53533">
        <ele>50.935519</ele>
        <time>2022-05-15T10:32:18.933Z</time>
      </trkpt>
      <trkpt lat="41.94114" lon="19.53524">
        <ele>51.136537</ele>
        <time>2022-05-15T10:32:21.930Z</time>
      </trkpt>
      <trkpt lat="41.94123" lon="19.53519">
        <ele>51.282143</ele>
        <time>2022-05-15T10:32:23.916Z</time>
      </trkpt>
      <trkpt lat="41.94132" lon="19.53512">
        <ele>51.436753</ele>
        <time>2022-05-15T10:32:25.946Z</time>
      </trkpt>
      <trkpt lat="41.94141" lon="19.53506">
        <ele>51.472662</ele>
        <time>2022-05-15T10:32:27.927Z</time>
      </trkpt>
      <trkpt lat="41.94149" lon="19.535">
        <ele>51.333017</ele>
        <time>2022-05-15T10:32:29.913Z</time>
      </trkpt>
      <trkpt lat="41.94158" lon="19.53495">
        <ele>51.184867</ele>
        <time>2022-05-15T10:32:31.926Z</time>
      </trkpt>
      <trkpt lat="41.94168" lon="19.5349">
        <ele>51.02897</ele>
        <time>2022-05-15T10:32:33.941Z</time>
      </trkpt>
      <trkpt lat="41.94178" lon="19.53486">
        <ele>50.869459</ele>
        <time>2022-05-15T10:32:35.926Z</time>
      </trkpt>
      <trkpt lat="41.94188" lon="19.53483">
        <ele>50.716414</ele>
        <time>2022-05-15T10:32:37.939Z</time>
      </trkpt>
      <trkpt lat="41.94201" lon="19.53481">
        <ele>50.526043</ele>
        <time>2022-05-15T10:32:40.924Z</time>
      </trkpt>
      <trkpt lat="41.94213" lon="19.53479">
        <ele>50.347702</ele>
        <time>2022-05-15T10:32:43.933Z</time>
      </trkpt>
      <trkpt lat="41.94223" lon="19.53478">
        <ele>50.185422</ele>
        <time>2022-05-15T10:32:46.947Z</time>
      </trkpt>
      <trkpt lat="41.94235" lon="19.53476">
        <ele>50.00451</ele>
        <time>2022-05-15T10:32:49.937Z</time>
      </trkpt>
      <trkpt lat="41.94248" lon="19.53475">
        <ele>49.816478</ele>
        <time>2022-05-15T10:32:52.948Z</time>
      </trkpt>
      <trkpt lat="41.94261" lon="19.53473">
        <ele>49.622041</ele>
        <time>2022-05-15T10:32:55.964Z</time>
      </trkpt>
      <trkpt lat="41.94273" lon="19.53471">
        <ele>49.433432</ele>
        <time>2022-05-15T10:32:58.935Z</time>
      </trkpt>
      <trkpt lat="41.94285" lon="19.53469">
        <ele>49.251151</ele>
        <time>2022-05-15T10:33:01.939Z</time>
      </trkpt>
      <trkpt lat="41.94297" lon="19.53467">
        <ele>49.074706</ele>
        <time>2022-05-15T10:33:04.936Z</time>
      </trkpt>
      <trkpt lat="41.94309" lon="19.53466">
        <ele>48.889326</ele>
        <time>2022-05-15T10:33:07.929Z</time>
      </trkpt>
      <trkpt lat="41.94321" lon="19.53463">
        <ele>48.837654</ele>
        <time>2022-05-15T10:33:10.968Z</time>
      </trkpt>
      <trkpt lat="41.94333" lon="19.53462">
        <ele>48.841732</ele>
        <time>2022-05-15T10:33:13.926Z</time>
      </trkpt>
      <trkpt lat="41.94345" lon="19.5346">
        <ele>48.845813</ele>
        <time>2022-05-15T10:33:16.929Z</time>
      </trkpt>
      <trkpt lat="41.94356" lon="19.53457">
        <ele>48.849696</ele>
        <time>2022-05-15T10:33:19.930Z</time>
      </trkpt>
      <trkpt lat="41.94368" lon="19.53456">
        <ele>48.853761</ele>
        <time>2022-05-15T10:33:22.943Z</time>
      </trkpt>
      <trkpt lat="41.9438" lon="19.53455">
        <ele>48.85806</ele>
        <time>2022-05-15T10:33:25.928Z</time>
      </trkpt>
      <trkpt lat="41.94392" lon="19.53454">
        <ele>48.862289</ele>
        <time>2022-05-15T10:33:28.952Z</time>
      </trkpt>
      <trkpt lat="41.94405" lon="19.53452">
        <ele>48.866811</ele>
        <time>2022-05-15T10:33:31.928Z</time>
      </trkpt>
      <trkpt lat="41.94418" lon="19.53451">
        <ele>48.871085</ele>
        <time>2022-05-15T10:33:34.959Z</time>
      </trkpt>
      <trkpt lat="41.9443" lon="19.53449">
        <ele>48.875362</ele>
        <time>2022-05-15T10:33:37.924Z</time>
      </trkpt>
      <trkpt lat="41.94442" lon="19.53447">
        <ele>48.879641</ele>
        <time>2022-05-15T10:33:40.973Z</time>
      </trkpt>
      <trkpt lat="41.94454" lon="19.53446">
        <ele>48.883878</ele>
        <time>2022-05-15T10:33:43.943Z</time>
      </trkpt>
      <trkpt lat="41.94466" lon="19.53445">
        <ele>48.888012</ele>
        <time>2022-05-15T10:33:46.929Z</time>
      </trkpt>
      <trkpt lat="41.94478" lon="19.53443">
        <ele>48.892091</ele>
        <time>2022-05-15T10:33:49.936Z</time>
      </trkpt>
      <trkpt lat="41.94489" lon="19.5344">
        <ele>48.896046</ele>
        <time>2022-05-15T10:33:52.955Z</time>
      </trkpt>
      <trkpt lat="41.94501" lon="19.53437">
        <ele>48.898466</ele>
        <time>2022-05-15T10:33:55.935Z</time>
      </trkpt>
      <trkpt lat="41.94512" lon="19.53433">
        <ele>48.900501</ele>
        <time>2022-05-15T10:33:58.950Z</time>
      </trkpt>
      <trkpt lat="41.94523" lon="19.53426">
        <ele>48.902581</ele>
        <time>2022-05-15T10:34:01.937Z</time>
      </trkpt>
      <trkpt lat="41.94534" lon="19.53419">
        <ele>48.904605</ele>
        <time>2022-05-15T10:34:04.943Z</time>
      </trkpt>
      <trkpt lat="41.94544" lon="19.53411">
        <ele>48.906687</ele>
        <time>2022-05-15T10:34:07.944Z</time>
      </trkpt>
      <trkpt lat="41.94555" lon="19.53402">
        <ele>48.908805</ele>
        <time>2022-05-15T10:34:10.939Z</time>
      </trkpt>
      <trkpt lat="41.94566" lon="19.53393">
        <ele>48.910998</ele>
        <time>2022-05-15T10:34:13.974Z</time>
      </trkpt>
      <trkpt lat="41.94573" lon="19.53387">
        <ele>48.912561</ele>
        <time>2022-05-15T10:34:15.963Z</time>
      </trkpt>
      <trkpt lat="41.94585" lon="19.53377">
        <ele>48.91487</ele>
        <time>2022-05-15T10:34:18.958Z</time>
      </trkpt>
      <trkpt lat="41.94596" lon="19.53369">
        <ele>48.916999</ele>
        <time>2022-05-15T10:34:21.962Z</time>
      </trkpt>
      <trkpt lat="41.94607" lon="19.53361">
        <ele>48.919124</ele>
        <time>2022-05-15T10:34:24.967Z</time>
      </trkpt>
      <trkpt lat="41.94618" lon="19.53353">
        <ele>48.921268</ele>
        <time>2022-05-15T10:34:27.951Z</time>
      </trkpt>
      <trkpt lat="41.94628" lon="19.53344">
        <ele>48.923426</ele>
        <time>2022-05-15T10:34:30.949Z</time>
      </trkpt>
      <trkpt lat="41.94639" lon="19.53335">
        <ele>48.925554</ele>
        <time>2022-05-15T10:34:33.947Z</time>
      </trkpt>
      <trkpt lat="41.9465" lon="19.53326">
        <ele>48.927767</ele>
        <time>2022-05-15T10:34:36.951Z</time>
      </trkpt>
      <trkpt lat="41.94661" lon="19.53317">
        <ele>48.933014</ele>
        <time>2022-05-15T10:34:39.942Z</time>
      </trkpt>
      <trkpt lat="41.94673" lon="19.5331">
        <ele>48.938146</ele>
        <time>2022-05-15T10:34:42.930Z</time>
      </trkpt>
      <trkpt lat="41.94684" lon="19.53302">
        <ele>48.943304</ele>
        <time>2022-05-15T10:34:45.938Z</time>
      </trkpt>
      <trkpt lat="41.94696" lon="19.53294">
        <ele>48.94853</ele>
        <time>2022-05-15T10:34:48.944Z</time>
      </trkpt>
      <trkpt lat="41.94707" lon="19.53286">
        <ele>48.953578</ele>
        <time>2022-05-15T10:34:51.966Z</time>
      </trkpt>
      <trkpt lat="41.94718" lon="19.53278">
        <ele>48.958656</ele>
        <time>2022-05-15T10:34:54.933Z</time>
      </trkpt>
      <trkpt lat="41.94729" lon="19.53269">
        <ele>48.963908</ele>
        <time>2022-05-15T10:34:57.983Z</time>
      </trkpt>
      <trkpt lat="41.9474" lon="19.53261">
        <ele>48.969041</ele>
        <time>2022-05-15T10:35:00.931Z</time>
      </trkpt>
      <trkpt lat="41.94751" lon="19.53252">
        <ele>48.974239</ele>
        <time>2022-05-15T10:35:03.947Z</time>
      </trkpt>
      <trkpt lat="41.94762" lon="19.53243">
        <ele>48.979426</ele>
        <time>2022-05-15T10:35:06.951Z</time>
      </trkpt>
      <trkpt lat="41.94773" lon="19.53235">
        <ele>48.984468</ele>
        <time>2022-05-15T10:35:09.944Z</time>
      </trkpt>
      <trkpt lat="41.94784" lon="19.53226">
        <ele>48.98964</ele>
        <time>2022-05-15T10:35:12.947Z</time>
      </trkpt>
      <trkpt lat="41.94795" lon="19.53218">
        <ele>48.994554</ele>
        <time>2022-05-15T10:35:15.940Z</time>
      </trkpt>
      <trkpt lat="41.94806" lon="19.53209">
        <ele>48.999688</ele>
        <time>2022-05-15T10:35:18.942Z</time>
      </trkpt>
      <trkpt lat="41.94817" lon="19.532">
        <ele>49.075905</ele>
        <time>2022-05-15T10:35:21.933Z</time>
      </trkpt>
      <trkpt lat="41.94828" lon="19.53192">
        <ele>49.157377</ele>
        <time>2022-05-15T10:35:24.933Z</time>
      </trkpt>
      <trkpt lat="41.94838" lon="19.53183">
        <ele>49.234713</ele>
        <time>2022-05-15T10:35:27.938Z</time>
      </trkpt>
      <trkpt lat="41.94848" lon="19.53176">
        <ele>49.306461</ele>
        <time>2022-05-15T10:35:30.948Z</time>
      </trkpt>
      <trkpt lat="41.94857" lon="19.53168">
        <ele>49.378765</ele>
        <time>2022-05-15T10:35:33.963Z</time>
      </trkpt>
      <trkpt lat="41.94868" lon="19.5316">
        <ele>49.46183</ele>
        <time>2022-05-15T10:35:36.929Z</time>
      </trkpt>
      <trkpt lat="41.94877" lon="19.53153">
        <ele>49.525603</ele>
        <time>2022-05-15T10:35:38.951Z</time>
      </trkpt>
      <trkpt lat="41.94886" lon="19.53146">
        <ele>49.591397</ele>
        <time>2022-05-15T10:35:40.934Z</time>
      </trkpt>
      <trkpt lat="41.94894" lon="19.5314">
        <ele>49.650627</ele>
        <time>2022-05-15T10:35:42.999Z</time>
      </trkpt>
      <trkpt lat="41.94905" lon="19.5313">
        <ele>49.737853</ele>
        <time>2022-05-15T10:35:45.930Z</time>
      </trkpt>
      <trkpt lat="41.94917" lon="19.53121">
        <ele>49.82373</ele>
        <time>2022-05-15T10:35:48.950Z</time>
      </trkpt>
      <trkpt lat="41.94928" lon="19.53112">
        <ele>49.909185</ele>
        <time>2022-05-15T10:35:51.946Z</time>
      </trkpt>
      <trkpt lat="41.94939" lon="19.53103">
        <ele>49.993963</ele>
        <time>2022-05-15T10:35:54.946Z</time>
      </trkpt>
      <trkpt lat="41.9495" lon="19.53094">
        <ele>50.074317</ele>
        <time>2022-05-15T10:35:57.946Z</time>
      </trkpt>
      <trkpt lat="41.9496" lon="19.53087">
        <ele>50.149189</ele>
        <time>2022-05-15T10:36:00.946Z</time>
      </trkpt>
      <trkpt lat="41.94972" lon="19.53078">
        <ele>50.145976</ele>
        <time>2022-05-15T10:36:03.932Z</time>
      </trkpt>
      <trkpt lat="41.94982" lon="19.53069">
        <ele>50.132248</ele>
        <time>2022-05-15T10:36:06.930Z</time>
      </trkpt>
      <trkpt lat="41.94993" lon="19.53061">
        <ele>50.118848</ele>
        <time>2022-05-15T10:36:09.949Z</time>
      </trkpt>
      <trkpt lat="41.95004" lon="19.53053">
        <ele>50.104974</ele>
        <time>2022-05-15T10:36:12.935Z</time>
      </trkpt>
      <trkpt lat="41.95012" lon="19.53047">
        <ele>50.094891</ele>
        <time>2022-05-15T10:36:14.928Z</time>
      </trkpt>
      <trkpt lat="41.9502" lon="19.53041">
        <ele>50.084634</ele>
        <time>2022-05-15T10:36:16.939Z</time>
      </trkpt>
      <trkpt lat="41.95029" lon="19.53035">
        <ele>50.07405</ele>
        <time>2022-05-15T10:36:18.950Z</time>
      </trkpt>
      <trkpt lat="41.9504" lon="19.53025">
        <ele>50.05954</ele>
        <time>2022-05-15T10:36:21.944Z</time>
      </trkpt>
      <trkpt lat="41.95048" lon="19.53019">
        <ele>50.049717</ele>
        <time>2022-05-15T10:36:23.940Z</time>
      </trkpt>
      <trkpt lat="41.95059" lon="19.5301">
        <ele>50.035424</ele>
        <time>2022-05-15T10:36:26.969Z</time>
      </trkpt>
      <trkpt lat="41.9507" lon="19.53002">
        <ele>50.021443</ele>
        <time>2022-05-15T10:36:29.961Z</time>
      </trkpt>
      <trkpt lat="41.95078" lon="19.52996">
        <ele>50.011526</ele>
        <time>2022-05-15T10:36:31.942Z</time>
      </trkpt>
      <trkpt lat="41.9509" lon="19.52987">
        <ele>49.996948</ele>
        <time>2022-05-15T10:36:34.919Z</time>
      </trkpt>
      <trkpt lat="41.95101" lon="19.52978">
        <ele>49.982385</ele>
        <time>2022-05-15T10:36:37.998Z</time>
      </trkpt>
      <trkpt lat="41.95113" lon="19.52969">
        <ele>49.967726</ele>
        <time>2022-05-15T10:36:40.948Z</time>
      </trkpt>
      <trkpt lat="41.95124" lon="19.5296">
        <ele>50.009167</ele>
        <time>2022-05-15T10:36:43.931Z</time>
      </trkpt>
      <trkpt lat="41.95135" lon="19.52951">
        <ele>50.093384</ele>
        <time>2022-05-15T10:36:47.031Z</time>
      </trkpt>
      <trkpt lat="41.95146" lon="19.52942">
        <ele>50.176936</ele>
        <time>2022-05-15T10:36:49.929Z</time>
      </trkpt>
      <trkpt lat="41.95156" lon="19.52934">
        <ele>50.256256</ele>
        <time>2022-05-15T10:36:52.935Z</time>
      </trkpt>
      <trkpt lat="41.95167" lon="19.52925">
        <ele>50.339001</ele>
        <time>2022-05-15T10:36:55.944Z</time>
      </trkpt>
      <trkpt lat="41.95179" lon="19.52915">
        <ele>50.425319</ele>
        <time>2022-05-15T10:36:58.934Z</time>
      </trkpt>
      <trkpt lat="41.95189" lon="19.52907">
        <ele>50.507055</ele>
        <time>2022-05-15T10:37:01.933Z</time>
      </trkpt>
      <trkpt lat="41.95199" lon="19.52899">
        <ele>50.57932</ele>
        <time>2022-05-15T10:37:04.948Z</time>
      </trkpt>
      <trkpt lat="41.95209" lon="19.52891">
        <ele>50.65357</ele>
        <time>2022-05-15T10:37:07.936Z</time>
      </trkpt>
      <trkpt lat="41.95219" lon="19.52883">
        <ele>50.72726</ele>
        <time>2022-05-15T10:37:10.945Z</time>
      </trkpt>
      <trkpt lat="41.95228" lon="19.52877">
        <ele>50.795233</ele>
        <time>2022-05-15T10:37:13.946Z</time>
      </trkpt>
      <trkpt lat="41.95238" lon="19.52872">
        <ele>50.862246</ele>
        <time>2022-05-15T10:37:16.950Z</time>
      </trkpt>
      <trkpt lat="41.95248" lon="19.5287">
        <ele>50.929166</ele>
        <time>2022-05-15T10:37:19.946Z</time>
      </trkpt>
      <trkpt lat="41.95258" lon="19.52872">
        <ele>50.997182</ele>
        <time>2022-05-15T10:37:22.936Z</time>
      </trkpt>
      <trkpt lat="41.95269" lon="19.52876">
        <ele>51.067903</ele>
        <time>2022-05-15T10:37:25.926Z</time>
      </trkpt>
      <trkpt lat="41.95279" lon="19.52879">
        <ele>51.141654</ele>
        <time>2022-05-15T10:37:28.980Z</time>
      </trkpt>
      <trkpt lat="41.95289" lon="19.52883">
        <ele>51.246256</ele>
        <time>2022-05-15T10:37:31.943Z</time>
      </trkpt>
      <trkpt lat="41.95298" lon="19.52887">
        <ele>51.353079</ele>
        <time>2022-05-15T10:37:34.943Z</time>
      </trkpt>
      <trkpt lat="41.95308" lon="19.52891">
        <ele>51.459679</ele>
        <time>2022-05-15T10:37:37.931Z</time>
      </trkpt>
      <trkpt lat="41.95318" lon="19.52895">
        <ele>51.566061</ele>
        <time>2022-05-15T10:37:40.940Z</time>
      </trkpt>
      <trkpt lat="41.95327" lon="19.52899">
        <ele>51.66944</ele>
        <time>2022-05-15T10:37:43.932Z</time>
      </trkpt>
      <trkpt lat="41.95338" lon="19.52903">
        <ele>51.782055</ele>
        <time>2022-05-15T10:37:46.971Z</time>
      </trkpt>
      <trkpt lat="41.95348" lon="19.52907">
        <ele>51.889339</ele>
        <time>2022-05-15T10:37:49.943Z</time>
      </trkpt>
      <trkpt lat="41.95357" lon="19.52912">
        <ele>51.999806</ele>
        <time>2022-05-15T10:37:52.933Z</time>
      </trkpt>
      <trkpt lat="41.95367" lon="19.52918">
        <ele>52.113716</ele>
        <time>2022-05-15T10:37:55.964Z</time>
      </trkpt>
      <trkpt lat="41.95377" lon="19.52927">
        <ele>52.231045</ele>
        <time>2022-05-15T10:37:58.943Z</time>
      </trkpt>
      <trkpt lat="41.95387" lon="19.52936">
        <ele>52.356211</ele>
        <time>2022-05-15T10:38:01.932Z</time>
      </trkpt>
      <trkpt lat="41.95396" lon="19.52945">
        <ele>52.480875</ele>
        <time>2022-05-15T10:38:04.941Z</time>
      </trkpt>
      <trkpt lat="41.95405" lon="19.52955">
        <ele>52.601351</ele>
        <time>2022-05-15T10:38:07.940Z</time>
      </trkpt>
      <trkpt lat="41.95414" lon="19.52965">
        <ele>52.720529</ele>
        <time>2022-05-15T10:38:10.931Z</time>
      </trkpt>
      <trkpt lat="41.95423" lon="19.52975">
        <ele>52.842304</ele>
        <time>2022-05-15T10:38:13.944Z</time>
      </trkpt>
      <trkpt lat="41.95432" lon="19.52985">
        <ele>52.962287</ele>
        <time>2022-05-15T10:38:16.950Z</time>
      </trkpt>
      <trkpt lat="41.95441" lon="19.52994">
        <ele>53.024731</ele>
        <time>2022-05-15T10:38:19.932Z</time>
      </trkpt>
      <trkpt lat="41.9545" lon="19.53004">
        <ele>53.055674</ele>
        <time>2022-05-15T10:38:22.932Z</time>
      </trkpt>
      <trkpt lat="41.95459" lon="19.53014">
        <ele>53.086908</ele>
        <time>2022-05-15T10:38:25.927Z</time>
      </trkpt>
      <trkpt lat="41.95468" lon="19.53024">
        <ele>53.117645</ele>
        <time>2022-05-15T10:38:28.968Z</time>
      </trkpt>
      <trkpt lat="41.95477" lon="19.53034">
        <ele>53.148547</ele>
        <time>2022-05-15T10:38:31.927Z</time>
      </trkpt>
      <trkpt lat="41.95486" lon="19.53044">
        <ele>53.179821</ele>
        <time>2022-05-15T10:38:34.973Z</time>
      </trkpt>
      <trkpt lat="41.95495" lon="19.53054">
        <ele>53.211016</ele>
        <time>2022-05-15T10:38:37.930Z</time>
      </trkpt>
      <trkpt lat="41.95504" lon="19.53063">
        <ele>53.24171</ele>
        <time>2022-05-15T10:38:40.942Z</time>
      </trkpt>
      <trkpt lat="41.95513" lon="19.53074">
        <ele>53.272829</ele>
        <time>2022-05-15T10:38:43.943Z</time>
      </trkpt>
      <trkpt lat="41.95522" lon="19.53084">
        <ele>53.30456</ele>
        <time>2022-05-15T10:38:46.931Z</time>
      </trkpt>
      <trkpt lat="41.95531" lon="19.53094">
        <ele>53.335462</ele>
        <time>2022-05-15T10:38:49.949Z</time>
      </trkpt>
      <trkpt lat="41.9554" lon="19.53103">
        <ele>53.364596</ele>
        <time>2022-05-15T10:38:52.937Z</time>
      </trkpt>
      <trkpt lat="41.95548" lon="19.53113">
        <ele>53.394009</ele>
        <time>2022-05-15T10:38:55.936Z</time>
      </trkpt>
      <trkpt lat="41.95557" lon="19.53122">
        <ele>53.424495</ele>
        <time>2022-05-15T10:38:58.942Z</time>
      </trkpt>
      <trkpt lat="41.95566" lon="19.53132">
        <ele>53.454035</ele>
        <time>2022-05-15T10:39:01.952Z</time>
      </trkpt>
      <trkpt lat="41.95574" lon="19.53142">
        <ele>53.486663</ele>
        <time>2022-05-15T10:39:04.947Z</time>
      </trkpt>
      <trkpt lat="41.95583" lon="19.53152">
        <ele>53.619734</ele>
        <time>2022-05-15T10:39:07.941Z</time>
      </trkpt>
      <trkpt lat="41.95592" lon="19.53162">
        <ele>53.752276</ele>
        <time>2022-05-15T10:39:10.926Z</time>
      </trkpt>
      <trkpt lat="41.95601" lon="19.53171">
        <ele>53.882152</ele>
        <time>2022-05-15T10:39:13.952Z</time>
      </trkpt>
      <trkpt lat="41.95609" lon="19.53181">
        <ele>54.001137</ele>
        <time>2022-05-15T10:39:16.949Z</time>
      </trkpt>
      <trkpt lat="41.95617" lon="19.53189">
        <ele>54.112546</ele>
        <time>2022-05-15T10:39:19.966Z</time>
      </trkpt>
      <trkpt lat="41.95625" lon="19.53199">
        <ele>54.239792</ele>
        <time>2022-05-15T10:39:23.980Z</time>
      </trkpt>
      <trkpt lat="41.95634" lon="19.53206">
        <ele>54.361046</ele>
        <time>2022-05-15T10:39:27.932Z</time>
      </trkpt>
      <trkpt lat="41.95641" lon="19.53214">
        <ele>54.466723</ele>
        <time>2022-05-15T10:39:30.935Z</time>
      </trkpt>
      <trkpt lat="41.9565" lon="19.53221">
        <ele>54.579073</ele>
        <time>2022-05-15T10:39:33.947Z</time>
      </trkpt>
      <trkpt lat="41.95659" lon="19.53227">
        <ele>54.694082</ele>
        <time>2022-05-15T10:39:36.932Z</time>
      </trkpt>
      <trkpt lat="41.95668" lon="19.53233">
        <ele>54.810421</ele>
        <time>2022-05-15T10:39:39.987Z</time>
      </trkpt>
      <trkpt lat="41.95678" lon="19.53238">
        <ele>54.927266</ele>
        <time>2022-05-15T10:39:42.927Z</time>
      </trkpt>
      <trkpt lat="41.95687" lon="19.53241">
        <ele>55.041488</ele>
        <time>2022-05-15T10:39:45.962Z</time>
      </trkpt>
      <trkpt lat="41.95697" lon="19.53245">
        <ele>55.158815</ele>
        <time>2022-05-15T10:39:48.938Z</time>
      </trkpt>
      <trkpt lat="41.95707" lon="19.53248">
        <ele>55.278559</ele>
        <time>2022-05-15T10:39:51.957Z</time>
      </trkpt>
      <trkpt lat="41.95718" lon="19.53251">
        <ele>55.404433</ele>
        <time>2022-05-15T10:39:54.936Z</time>
      </trkpt>
      <trkpt lat="41.95728" lon="19.53254">
        <ele>55.518786</ele>
        <time>2022-05-15T10:39:57.933Z</time>
      </trkpt>
      <trkpt lat="41.95738" lon="19.53257">
        <ele>55.660341</ele>
        <time>2022-05-15T10:40:00.931Z</time>
      </trkpt>
      <trkpt lat="41.95748" lon="19.53261">
        <ele>55.805165</ele>
        <time>2022-05-15T10:40:03.959Z</time>
      </trkpt>
      <trkpt lat="41.95757" lon="19.53265">
        <ele>55.942785</ele>
        <time>2022-05-15T10:40:06.939Z</time>
      </trkpt>
      <trkpt lat="41.95767" lon="19.53268">
        <ele>56.087344</ele>
        <time>2022-05-15T10:40:09.947Z</time>
      </trkpt>
      <trkpt lat="41.95777" lon="19.53272">
        <ele>56.224077</ele>
        <time>2022-05-15T10:40:12.934Z</time>
      </trkpt>
      <trkpt lat="41.95785" lon="19.53275">
        <ele>56.350083</ele>
        <time>2022-05-15T10:40:15.918Z</time>
      </trkpt>
      <trkpt lat="41.95794" lon="19.53279">
        <ele>56.478083</ele>
        <time>2022-05-15T10:40:18.949Z</time>
      </trkpt>
      <trkpt lat="41.95805" lon="19.53285">
        <ele>56.638711</ele>
        <time>2022-05-15T10:40:22.947Z</time>
      </trkpt>
      <trkpt lat="41.95815" lon="19.53291">
        <ele>56.798715</ele>
        <time>2022-05-15T10:40:26.930Z</time>
      </trkpt>
      <trkpt lat="41.95826" lon="19.533">
        <ele>56.969793</ele>
        <time>2022-05-15T10:40:30.946Z</time>
      </trkpt>
      <trkpt lat="41.95835" lon="19.53307">
        <ele>57.116179</ele>
        <time>2022-05-15T10:40:33.948Z</time>
      </trkpt>
      <trkpt lat="41.95843" lon="19.53315">
        <ele>57.267151</ele>
        <time>2022-05-15T10:40:36.934Z</time>
      </trkpt>
      <trkpt lat="41.95853" lon="19.53326">
        <ele>57.438376</ele>
        <time>2022-05-15T10:40:39.959Z</time>
      </trkpt>
      <trkpt lat="41.95862" lon="19.53338">
        <ele>57.61654</ele>
        <time>2022-05-15T10:40:42.937Z</time>
      </trkpt>
      <trkpt lat="41.95871" lon="19.5335">
        <ele>57.797041</ele>
        <time>2022-05-15T10:40:45.948Z</time>
      </trkpt>
      <trkpt lat="41.95877" lon="19.53359">
        <ele>57.924119</ele>
        <time>2022-05-15T10:40:47.938Z</time>
      </trkpt>
      <trkpt lat="41.95884" lon="19.53368">
        <ele>58.055201</ele>
        <time>2022-05-15T10:40:49.962Z</time>
      </trkpt>
      <trkpt lat="41.9589" lon="19.53379">
        <ele>58.13948</ele>
        <time>2022-05-15T10:40:51.923Z</time>
      </trkpt>
      <trkpt lat="41.95897" lon="19.5339">
        <ele>58.226738</ele>
        <time>2022-05-15T10:40:53.935Z</time>
      </trkpt>
      <trkpt lat="41.95903" lon="19.53401">
        <ele>58.312917</ele>
        <time>2022-05-15T10:40:55.934Z</time>
      </trkpt>
      <trkpt lat="41.95909" lon="19.53413">
        <ele>58.400632</ele>
        <time>2022-05-15T10:40:57.943Z</time>
      </trkpt>
      <trkpt lat="41.95915" lon="19.53425">
        <ele>58.489935</ele>
        <time>2022-05-15T10:40:59.912Z</time>
      </trkpt>
      <trkpt lat="41.95921" lon="19.53436">
        <ele>58.576763</ele>
        <time>2022-05-15T10:41:01.946Z</time>
      </trkpt>
      <trkpt lat="41.95926" lon="19.53447">
        <ele>58.660544</ele>
        <time>2022-05-15T10:41:03.912Z</time>
      </trkpt>
      <trkpt lat="41.95932" lon="19.5346">
        <ele>58.74991</ele>
        <time>2022-05-15T10:41:05.924Z</time>
      </trkpt>
      <trkpt lat="41.95938" lon="19.53472">
        <ele>58.841226</ele>
        <time>2022-05-15T10:41:07.950Z</time>
      </trkpt>
      <trkpt lat="41.95944" lon="19.53484">
        <ele>58.930991</ele>
        <time>2022-05-15T10:41:09.913Z</time>
      </trkpt>
      <trkpt lat="41.9595" lon="19.53496">
        <ele>59.021789</ele>
        <time>2022-05-15T10:41:11.916Z</time>
      </trkpt>
      <trkpt lat="41.95955" lon="19.53507">
        <ele>59.102703</ele>
        <time>2022-05-15T10:41:13.920Z</time>
      </trkpt>
      <trkpt lat="41.95961" lon="19.53517">
        <ele>59.181408</ele>
        <time>2022-05-15T10:41:15.925Z</time>
      </trkpt>
      <trkpt lat="41.95967" lon="19.53528">
        <ele>59.264612</ele>
        <time>2022-05-15T10:41:17.958Z</time>
      </trkpt>
      <trkpt lat="41.95974" lon="19.53538">
        <ele>59.351465</ele>
        <time>2022-05-15T10:41:19.969Z</time>
      </trkpt>
      <trkpt lat="41.95981" lon="19.53547">
        <ele>59.4339</ele>
        <time>2022-05-15T10:41:21.918Z</time>
      </trkpt>
      <trkpt lat="41.95987" lon="19.53557">
        <ele>59.514038</ele>
        <time>2022-05-15T10:41:23.926Z</time>
      </trkpt>
      <trkpt lat="41.95994" lon="19.53566">
        <ele>59.476182</ele>
        <time>2022-05-15T10:41:25.923Z</time>
      </trkpt>
      <trkpt lat="41.96004" lon="19.53575">
        <ele>59.258615</ele>
        <time>2022-05-15T10:41:28.919Z</time>
      </trkpt>
      <trkpt lat="41.96012" lon="19.53585">
        <ele>59.058636</ele>
        <time>2022-05-15T10:41:31.932Z</time>
      </trkpt>
      <trkpt lat="41.96021" lon="19.53594">
        <ele>58.851833</ele>
        <time>2022-05-15T10:41:34.924Z</time>
      </trkpt>
      <trkpt lat="41.9603" lon="19.53602">
        <ele>58.655304</ele>
        <time>2022-05-15T10:41:37.919Z</time>
      </trkpt>
      <trkpt lat="41.96039" lon="19.53609">
        <ele>58.465033</ele>
        <time>2022-05-15T10:41:40.909Z</time>
      </trkpt>
      <trkpt lat="41.96049" lon="19.53615">
        <ele>58.271423</ele>
        <time>2022-05-15T10:41:43.925Z</time>
      </trkpt>
      <trkpt lat="41.96059" lon="19.53621">
        <ele>58.075598</ele>
        <time>2022-05-15T10:41:46.909Z</time>
      </trkpt>
      <trkpt lat="41.96068" lon="19.53626">
        <ele>57.88619</ele>
        <time>2022-05-15T10:41:49.939Z</time>
      </trkpt>
      <trkpt lat="41.96078" lon="19.5363">
        <ele>57.699134</ele>
        <time>2022-05-15T10:41:52.916Z</time>
      </trkpt>
      <trkpt lat="41.96085" lon="19.53639">
        <ele>57.521745</ele>
        <time>2022-05-15T10:41:55.935Z</time>
      </trkpt>
      <trkpt lat="41.96085" lon="19.53655">
        <ele>57.299934</ele>
        <time>2022-05-15T10:41:58.923Z</time>
      </trkpt>
      <trkpt lat="41.9608" lon="19.53672">
        <ele>57.060076</ele>
        <time>2022-05-15T10:42:01.938Z</time>
      </trkpt>
      <trkpt lat="41.96075" lon="19.53688">
        <ele>56.825179</ele>
        <time>2022-05-15T10:42:04.924Z</time>
      </trkpt>
      <trkpt lat="41.96069" lon="19.53703">
        <ele>56.593306</ele>
        <time>2022-05-15T10:42:07.919Z</time>
      </trkpt>
      <trkpt lat="41.96063" lon="19.53717">
        <ele>56.371975</ele>
        <time>2022-05-15T10:42:10.919Z</time>
      </trkpt>
      <trkpt lat="41.96059" lon="19.53732">
        <ele>56.106542</ele>
        <time>2022-05-15T10:42:13.917Z</time>
      </trkpt>
      <trkpt lat="41.96054" lon="19.53747">
        <ele>55.815529</ele>
        <time>2022-05-15T10:42:16.923Z</time>
      </trkpt>
      <trkpt lat="41.96049" lon="19.53762">
        <ele>55.501122</ele>
        <time>2022-05-15T10:42:19.911Z</time>
      </trkpt>
      <trkpt lat="41.96046" lon="19.53774">
        <ele>55.277813</ele>
        <time>2022-05-15T10:42:21.911Z</time>
      </trkpt>
      <trkpt lat="41.96042" lon="19.53785">
        <ele>55.045002</ele>
        <time>2022-05-15T10:42:23.927Z</time>
      </trkpt>
      <trkpt lat="41.96038" lon="19.538">
        <ele>54.74462</ele>
        <time>2022-05-15T10:42:26.941Z</time>
      </trkpt>
      <trkpt lat="41.96034" lon="19.53814">
        <ele>54.478987</ele>
        <time>2022-05-15T10:42:29.910Z</time>
      </trkpt>
      <trkpt lat="41.9603" lon="19.53827">
        <ele>54.215675</ele>
        <time>2022-05-15T10:42:32.919Z</time>
      </trkpt>
      <trkpt lat="41.96025" lon="19.53838">
        <ele>53.970547</ele>
        <time>2022-05-15T10:42:36.911Z</time>
      </trkpt>
      <trkpt lat="41.96034" lon="19.5382">
        <ele>53.56619</ele>
        <time>2022-05-15T10:43:50.921Z</time>
      </trkpt>
      <trkpt lat="41.96038" lon="19.53805">
        <ele>53.278005</ele>
        <time>2022-05-15T10:43:54.909Z</time>
      </trkpt>
      <trkpt lat="41.96041" lon="19.53792">
        <ele>53.018367</ele>
        <time>2022-05-15T10:43:58.942Z</time>
      </trkpt>
      <trkpt lat="41.96046" lon="19.53779">
        <ele>52.74999</ele>
        <time>2022-05-15T10:44:02.912Z</time>
      </trkpt>
      <trkpt lat="41.96049" lon="19.53766">
        <ele>52.496437</ele>
        <time>2022-05-15T10:44:06.927Z</time>
      </trkpt>
      <trkpt lat="41.96054" lon="19.53752">
        <ele>52.211255</ele>
        <time>2022-05-15T10:44:10.910Z</time>
      </trkpt>
      <trkpt lat="41.96058" lon="19.53741">
        <ele>51.985011</ele>
        <time>2022-05-15T10:44:13.913Z</time>
      </trkpt>
      <trkpt lat="41.96062" lon="19.5373">
        <ele>51.883706</ele>
        <time>2022-05-15T10:44:16.912Z</time>
      </trkpt>
      <trkpt lat="41.96066" lon="19.53718">
        <ele>52.247172</ele>
        <time>2022-05-15T10:44:19.907Z</time>
      </trkpt>
      <trkpt lat="41.9607" lon="19.53706">
        <ele>52.636959</ele>
        <time>2022-05-15T10:44:22.912Z</time>
      </trkpt>
      <trkpt lat="41.96074" lon="19.53694">
        <ele>53.027239</ele>
        <time>2022-05-15T10:44:25.919Z</time>
      </trkpt>
      <trkpt lat="41.96078" lon="19.53681">
        <ele>53.441111</ele>
        <time>2022-05-15T10:44:28.917Z</time>
      </trkpt>
      <trkpt lat="41.96083" lon="19.53669">
        <ele>53.839609</ele>
        <time>2022-05-15T10:44:31.925Z</time>
      </trkpt>
      <trkpt lat="41.96087" lon="19.53655">
        <ele>54.2991</ele>
        <time>2022-05-15T10:44:35.909Z</time>
      </trkpt>
      <trkpt lat="41.96093" lon="19.53646">
        <ele>54.653927</ele>
        <time>2022-05-15T10:44:39.923Z</time>
      </trkpt>
      <trkpt lat="41.96103" lon="19.53647">
        <ele>55.0426</ele>
        <time>2022-05-15T10:44:44.912Z</time>
      </trkpt>
      <trkpt lat="41.96114" lon="19.53651">
        <ele>55.482817</ele>
        <time>2022-05-15T10:44:48.941Z</time>
      </trkpt>
      <trkpt lat="41.96124" lon="19.53657">
        <ele>55.934012</ele>
        <time>2022-05-15T10:44:52.916Z</time>
      </trkpt>
      <trkpt lat="41.96133" lon="19.53662">
        <ele>56.32403</ele>
        <time>2022-05-15T10:44:55.924Z</time>
      </trkpt>
      <trkpt lat="41.96142" lon="19.53667">
        <ele>56.689827</ele>
        <time>2022-05-15T10:44:58.928Z</time>
      </trkpt>
      <trkpt lat="41.96151" lon="19.53672">
        <ele>57.08312</ele>
        <time>2022-05-15T10:45:01.916Z</time>
      </trkpt>
      <trkpt lat="41.96161" lon="19.53677">
        <ele>57.496928</ele>
        <time>2022-05-15T10:45:04.936Z</time>
      </trkpt>
      <trkpt lat="41.9617" lon="19.53682">
        <ele>57.881793</ele>
        <time>2022-05-15T10:45:07.913Z</time>
      </trkpt>
      <trkpt lat="41.96179" lon="19.53687">
        <ele>58.286073</ele>
        <time>2022-05-15T10:45:10.944Z</time>
      </trkpt>
      <trkpt lat="41.96189" lon="19.53692">
        <ele>58.690353</ele>
        <time>2022-05-15T10:45:13.910Z</time>
      </trkpt>
      <trkpt lat="41.96199" lon="19.53697">
        <ele>58.796442</ele>
        <time>2022-05-15T10:45:16.911Z</time>
      </trkpt>
      <trkpt lat="41.96209" lon="19.53701">
        <ele>58.548542</ele>
        <time>2022-05-15T10:45:19.910Z</time>
      </trkpt>
      <trkpt lat="41.96218" lon="19.53706">
        <ele>58.305712</ele>
        <time>2022-05-15T10:45:22.913Z</time>
      </trkpt>
      <trkpt lat="41.96228" lon="19.53709">
        <ele>58.060475</ele>
        <time>2022-05-15T10:45:25.915Z</time>
      </trkpt>
      <trkpt lat="41.96238" lon="19.53712">
        <ele>57.827194</ele>
        <time>2022-05-15T10:45:28.952Z</time>
      </trkpt>
      <trkpt lat="41.96248" lon="19.53715">
        <ele>57.591318</ele>
        <time>2022-05-15T10:45:31.919Z</time>
      </trkpt>
      <trkpt lat="41.96258" lon="19.53719">
        <ele>57.34519</ele>
        <time>2022-05-15T10:45:34.920Z</time>
      </trkpt>
      <trkpt lat="41.96268" lon="19.53721">
        <ele>57.088353</ele>
        <time>2022-05-15T10:45:37.922Z</time>
      </trkpt>
      <trkpt lat="41.96279" lon="19.53725">
        <ele>56.825418</ele>
        <time>2022-05-15T10:45:40.918Z</time>
      </trkpt>
      <trkpt lat="41.96289" lon="19.53728">
        <ele>56.57522</ele>
        <time>2022-05-15T10:45:43.912Z</time>
      </trkpt>
      <trkpt lat="41.963" lon="19.53731">
        <ele>56.306469</ele>
        <time>2022-05-15T10:45:46.939Z</time>
      </trkpt>
      <trkpt lat="41.96312" lon="19.53735">
        <ele>56.032265</ele>
        <time>2022-05-15T10:45:49.948Z</time>
      </trkpt>
      <trkpt lat="41.96323" lon="19.53739">
        <ele>55.759939</ele>
        <time>2022-05-15T10:45:52.916Z</time>
      </trkpt>
      <trkpt lat="41.96334" lon="19.53742">
        <ele>55.47875</ele>
        <time>2022-05-15T10:45:55.942Z</time>
      </trkpt>
      <trkpt lat="41.96345" lon="19.53745">
        <ele>55.206424</ele>
        <time>2022-05-15T10:45:58.922Z</time>
      </trkpt>
      <trkpt lat="41.96357" lon="19.5375">
        <ele>54.926725</ele>
        <time>2022-05-15T10:46:01.919Z</time>
      </trkpt>
      <trkpt lat="41.96368" lon="19.53755">
        <ele>54.641634</ele>
        <time>2022-05-15T10:46:04.930Z</time>
      </trkpt>
      <trkpt lat="41.96379" lon="19.5376">
        <ele>54.708304</ele>
        <time>2022-05-15T10:46:07.914Z</time>
      </trkpt>
      <trkpt lat="41.96391" lon="19.53765">
        <ele>54.782126</ele>
        <time>2022-05-15T10:46:10.907Z</time>
      </trkpt>
      <trkpt lat="41.96402" lon="19.53769">
        <ele>54.853906</ele>
        <time>2022-05-15T10:46:13.915Z</time>
      </trkpt>
      <trkpt lat="41.96413" lon="19.53774">
        <ele>54.923784</ele>
        <time>2022-05-15T10:46:16.922Z</time>
      </trkpt>
      <trkpt lat="41.96423" lon="19.53778">
        <ele>54.991099</ele>
        <time>2022-05-15T10:46:19.913Z</time>
      </trkpt>
      <trkpt lat="41.96434" lon="19.53782">
        <ele>55.060115</ele>
        <time>2022-05-15T10:46:22.948Z</time>
      </trkpt>
      <trkpt lat="41.96445" lon="19.53786">
        <ele>55.130402</ele>
        <time>2022-05-15T10:46:25.914Z</time>
      </trkpt>
      <trkpt lat="41.96457" lon="19.5379">
        <ele>55.205097</ele>
        <time>2022-05-15T10:46:28.922Z</time>
      </trkpt>
      <trkpt lat="41.96468" lon="19.53795">
        <ele>55.276476</ele>
        <time>2022-05-15T10:46:31.911Z</time>
      </trkpt>
      <trkpt lat="41.96479" lon="19.53799">
        <ele>55.350101</ele>
        <time>2022-05-15T10:46:34.917Z</time>
      </trkpt>
      <trkpt lat="41.96491" lon="19.53803">
        <ele>55.42551</ele>
        <time>2022-05-15T10:46:37.913Z</time>
      </trkpt>
      <trkpt lat="41.96503" lon="19.53808">
        <ele>55.501884</ele>
        <time>2022-05-15T10:46:40.914Z</time>
      </trkpt>
      <trkpt lat="41.96515" lon="19.53813">
        <ele>55.578726</ele>
        <time>2022-05-15T10:46:43.912Z</time>
      </trkpt>
      <trkpt lat="41.96527" lon="19.53817">
        <ele>55.654851</ele>
        <time>2022-05-15T10:46:46.912Z</time>
      </trkpt>
      <trkpt lat="41.96539" lon="19.53822">
        <ele>55.732797</ele>
        <time>2022-05-15T10:46:49.916Z</time>
      </trkpt>
      <trkpt lat="41.96551" lon="19.53827">
        <ele>55.736173</ele>
        <time>2022-05-15T10:46:52.921Z</time>
      </trkpt>
      <trkpt lat="41.96563" lon="19.53832">
        <ele>55.725228</ele>
        <time>2022-05-15T10:46:55.919Z</time>
      </trkpt>
      <trkpt lat="41.96575" lon="19.53837">
        <ele>55.714347</ele>
        <time>2022-05-15T10:46:58.919Z</time>
      </trkpt>
      <trkpt lat="41.96588" lon="19.53842">
        <ele>55.702864</ele>
        <time>2022-05-15T10:47:01.933Z</time>
      </trkpt>
      <trkpt lat="41.966" lon="19.53848">
        <ele>55.691528</ele>
        <time>2022-05-15T10:47:04.914Z</time>
      </trkpt>
      <trkpt lat="41.96612" lon="19.53853">
        <ele>55.68025</ele>
        <time>2022-05-15T10:47:07.912Z</time>
      </trkpt>
      <trkpt lat="41.96625" lon="19.53857">
        <ele>55.668907</ele>
        <time>2022-05-15T10:47:10.914Z</time>
      </trkpt>
      <trkpt lat="41.96638" lon="19.53862">
        <ele>55.65728</ele>
        <time>2022-05-15T10:47:13.914Z</time>
      </trkpt>
      <trkpt lat="41.9665" lon="19.53867">
        <ele>55.64602</ele>
        <time>2022-05-15T10:47:16.922Z</time>
      </trkpt>
      <trkpt lat="41.96663" lon="19.53872">
        <ele>55.634898</ele>
        <time>2022-05-15T10:47:19.918Z</time>
      </trkpt>
      <trkpt lat="41.96675" lon="19.53876">
        <ele>55.62374</ele>
        <time>2022-05-15T10:47:22.921Z</time>
      </trkpt>
      <trkpt lat="41.96687" lon="19.53881">
        <ele>55.612667</ele>
        <time>2022-05-15T10:47:25.916Z</time>
      </trkpt>
      <trkpt lat="41.96699" lon="19.53885">
        <ele>55.602083</ele>
        <time>2022-05-15T10:47:28.924Z</time>
      </trkpt>
      <trkpt lat="41.96711" lon="19.53889">
        <ele>55.591465</ele>
        <time>2022-05-15T10:47:31.919Z</time>
      </trkpt>
      <trkpt lat="41.96722" lon="19.53894">
        <ele>55.606821</ele>
        <time>2022-05-15T10:47:34.912Z</time>
      </trkpt>
      <trkpt lat="41.96734" lon="19.53899">
        <ele>55.630861</ele>
        <time>2022-05-15T10:47:37.918Z</time>
      </trkpt>
      <trkpt lat="41.96745" lon="19.53904">
        <ele>55.654404</ele>
        <time>2022-05-15T10:47:40.916Z</time>
      </trkpt>
      <trkpt lat="41.96757" lon="19.53909">
        <ele>55.678553</ele>
        <time>2022-05-15T10:47:43.916Z</time>
      </trkpt>
      <trkpt lat="41.96769" lon="19.53913">
        <ele>55.702278</ele>
        <time>2022-05-15T10:47:46.920Z</time>
      </trkpt>
      <trkpt lat="41.96781" lon="19.53917">
        <ele>55.725851</ele>
        <time>2022-05-15T10:47:49.927Z</time>
      </trkpt>
      <trkpt lat="41.96792" lon="19.5392">
        <ele>55.749471</ele>
        <time>2022-05-15T10:47:52.954Z</time>
      </trkpt>
      <trkpt lat="41.96805" lon="19.53924">
        <ele>55.774172</ele>
        <time>2022-05-15T10:47:55.915Z</time>
      </trkpt>
      <trkpt lat="41.96817" lon="19.53926">
        <ele>55.799425</ele>
        <time>2022-05-15T10:47:58.913Z</time>
      </trkpt>
      <trkpt lat="41.9683" lon="19.5393">
        <ele>55.824753</ele>
        <time>2022-05-15T10:48:01.920Z</time>
      </trkpt>
      <trkpt lat="41.96843" lon="19.53932">
        <ele>55.850482</ele>
        <time>2022-05-15T10:48:04.913Z</time>
      </trkpt>
      <trkpt lat="41.96856" lon="19.53934">
        <ele>55.875998</ele>
        <time>2022-05-15T10:48:07.910Z</time>
      </trkpt>
      <trkpt lat="41.96869" lon="19.53936">
        <ele>55.901224</ele>
        <time>2022-05-15T10:48:10.912Z</time>
      </trkpt>
      <trkpt lat="41.9688" lon="19.53938">
        <ele>55.923823</ele>
        <time>2022-05-15T10:48:13.937Z</time>
      </trkpt>
      <trkpt lat="41.96892" lon="19.5394">
        <ele>55.957326</ele>
        <time>2022-05-15T10:48:16.918Z</time>
      </trkpt>
      <trkpt lat="41.96904" lon="19.53942">
        <ele>56.01846</ele>
        <time>2022-05-15T10:48:19.938Z</time>
      </trkpt>
      <trkpt lat="41.96916" lon="19.53943">
        <ele>56.081453</ele>
        <time>2022-05-15T10:48:22.911Z</time>
      </trkpt>
      <trkpt lat="41.96929" lon="19.53945">
        <ele>56.144105</ele>
        <time>2022-05-15T10:48:25.911Z</time>
      </trkpt>
      <trkpt lat="41.9694" lon="19.53947">
        <ele>56.204686</ele>
        <time>2022-05-15T10:48:28.912Z</time>
      </trkpt>
      <trkpt lat="41.96952" lon="19.53949">
        <ele>56.264303</ele>
        <time>2022-05-15T10:48:31.916Z</time>
      </trkpt>
      <trkpt lat="41.96964" lon="19.53952">
        <ele>56.327051</ele>
        <time>2022-05-15T10:48:34.924Z</time>
      </trkpt>
      <trkpt lat="41.96977" lon="19.53954">
        <ele>56.392831</ele>
        <time>2022-05-15T10:48:37.917Z</time>
      </trkpt>
      <trkpt lat="41.9699" lon="19.53956">
        <ele>56.458984</ele>
        <time>2022-05-15T10:48:40.920Z</time>
      </trkpt>
      <trkpt lat="41.97003" lon="19.53958">
        <ele>56.525369</ele>
        <time>2022-05-15T10:48:43.908Z</time>
      </trkpt>
      <trkpt lat="41.97012" lon="19.5396">
        <ele>56.572069</ele>
        <time>2022-05-15T10:48:45.921Z</time>
      </trkpt>
      <trkpt lat="41.97025" lon="19.53964">
        <ele>56.639941</ele>
        <time>2022-05-15T10:48:48.918Z</time>
      </trkpt>
      <trkpt lat="41.97038" lon="19.53967">
        <ele>56.707525</ele>
        <time>2022-05-15T10:48:51.909Z</time>
      </trkpt>
      <trkpt lat="41.97051" lon="19.53971">
        <ele>56.773687</ele>
        <time>2022-05-15T10:48:54.915Z</time>
      </trkpt>
      <trkpt lat="41.97064" lon="19.53974">
        <ele>56.841005</ele>
        <time>2022-05-15T10:48:57.917Z</time>
      </trkpt>
      <trkpt lat="41.97076" lon="19.53979">
        <ele>56.832277</ele>
        <time>2022-05-15T10:49:00.922Z</time>
      </trkpt>
      <trkpt lat="41.97088" lon="19.53983">
        <ele>56.795738</ele>
        <time>2022-05-15T10:49:03.912Z</time>
      </trkpt>
      <trkpt lat="41.97101" lon="19.53989">
        <ele>56.759526</ele>
        <time>2022-05-15T10:49:06.927Z</time>
      </trkpt>
      <trkpt lat="41.97113" lon="19.53995">
        <ele>56.722528</ele>
        <time>2022-05-15T10:49:09.942Z</time>
      </trkpt>
      <trkpt lat="41.97125" lon="19.54004">
        <ele>56.684733</ele>
        <time>2022-05-15T10:49:12.916Z</time>
      </trkpt>
      <trkpt lat="41.97134" lon="19.54016">
        <ele>56.647715</ele>
        <time>2022-05-15T10:49:15.918Z</time>
      </trkpt>
      <trkpt lat="41.9714" lon="19.54025">
        <ele>56.62245</ele>
        <time>2022-05-15T10:49:17.913Z</time>
      </trkpt>
      <trkpt lat="41.97147" lon="19.5404">
        <ele>56.584847</ele>
        <time>2022-05-15T10:49:20.906Z</time>
      </trkpt>
      <trkpt lat="41.97153" lon="19.54056">
        <ele>56.547899</ele>
        <time>2022-05-15T10:49:23.915Z</time>
      </trkpt>
      <trkpt lat="41.97159" lon="19.54072">
        <ele>56.510708</ele>
        <time>2022-05-15T10:49:26.921Z</time>
      </trkpt>
      <trkpt lat="41.97163" lon="19.54083">
        <ele>56.484711</ele>
        <time>2022-05-15T10:49:28.923Z</time>
      </trkpt>
      <trkpt lat="41.97167" lon="19.54094">
        <ele>56.458286</ele>
        <time>2022-05-15T10:49:30.922Z</time>
      </trkpt>
      <trkpt lat="41.97171" lon="19.54105">
        <ele>56.43268</ele>
        <time>2022-05-15T10:49:32.913Z</time>
      </trkpt>
      <trkpt lat="41.97177" lon="19.54121">
        <ele>56.3958</ele>
        <time>2022-05-15T10:49:35.915Z</time>
      </trkpt>
      <trkpt lat="41.97182" lon="19.54137">
        <ele>56.35905</ele>
        <time>2022-05-15T10:49:38.923Z</time>
      </trkpt>
      <trkpt lat="41.97189" lon="19.54151">
        <ele>56.325036</ele>
        <time>2022-05-15T10:49:41.909Z</time>
      </trkpt>
      <trkpt lat="41.97196" lon="19.54164">
        <ele>56.292282</ele>
        <time>2022-05-15T10:49:44.912Z</time>
      </trkpt>
      <trkpt lat="41.97204" lon="19.54177">
        <ele>56.258504</ele>
        <time>2022-05-15T10:49:47.920Z</time>
      </trkpt>
      <trkpt lat="41.97213" lon="19.5419">
        <ele>56.2242</ele>
        <time>2022-05-15T10:49:50.932Z</time>
      </trkpt>
      <trkpt lat="41.97222" lon="19.54202">
        <ele>56.190479</ele>
        <time>2022-05-15T10:49:53.935Z</time>
      </trkpt>
      <trkpt lat="41.97233" lon="19.54212">
        <ele>56.1552</ele>
        <time>2022-05-15T10:49:56.934Z</time>
      </trkpt>
      <trkpt lat="41.97241" lon="19.54217">
        <ele>56.130695</ele>
        <time>2022-05-15T10:49:58.923Z</time>
      </trkpt>
      <trkpt lat="41.9725" lon="19.54223">
        <ele>56.103933</ele>
        <time>2022-05-15T10:50:00.919Z</time>
      </trkpt>
      <trkpt lat="41.9726" lon="19.54227">
        <ele>56.076305</ele>
        <time>2022-05-15T10:50:02.916Z</time>
      </trkpt>
      <trkpt lat="41.97269" lon="19.54233">
        <ele>56.048383</ele>
        <time>2022-05-15T10:50:04.945Z</time>
      </trkpt>
      <trkpt lat="41.97279" lon="19.54238">
        <ele>56.020136</ele>
        <time>2022-05-15T10:50:06.932Z</time>
      </trkpt>
      <trkpt lat="41.97288" lon="19.54244">
        <ele>55.992881</ele>
        <time>2022-05-15T10:50:08.919Z</time>
      </trkpt>
      <trkpt lat="41.97297" lon="19.54249">
        <ele>55.967099</ele>
        <time>2022-05-15T10:50:10.915Z</time>
      </trkpt>
      <trkpt lat="41.97306" lon="19.54254">
        <ele>55.941646</ele>
        <time>2022-05-15T10:50:12.913Z</time>
      </trkpt>
      <trkpt lat="41.97314" lon="19.54259">
        <ele>55.915292</ele>
        <time>2022-05-15T10:50:14.920Z</time>
      </trkpt>
      <trkpt lat="41.97323" lon="19.54265">
        <ele>55.888939</ele>
        <time>2022-05-15T10:50:16.919Z</time>
      </trkpt>
      <trkpt lat="41.97332" lon="19.5427">
        <ele>55.855493</ele>
        <time>2022-05-15T10:50:18.922Z</time>
      </trkpt>
      <trkpt lat="41.9734" lon="19.54275">
        <ele>55.753008</ele>
        <time>2022-05-15T10:50:20.912Z</time>
      </trkpt>
      <trkpt lat="41.97349" lon="19.5428">
        <ele>55.651192</ele>
        <time>2022-05-15T10:50:22.911Z</time>
      </trkpt>
      <trkpt lat="41.97358" lon="19.54286">
        <ele>55.54673</ele>
        <time>2022-05-15T10:50:24.911Z</time>
      </trkpt>
      <trkpt lat="41.97367" lon="19.54291">
        <ele>55.439966</ele>
        <time>2022-05-15T10:50:26.914Z</time>
      </trkpt>
      <trkpt lat="41.97376" lon="19.54296">
        <ele>55.331576</ele>
        <time>2022-05-15T10:50:28.926Z</time>
      </trkpt>
      <trkpt lat="41.97385" lon="19.54301">
        <ele>55.227114</ele>
        <time>2022-05-15T10:50:30.915Z</time>
      </trkpt>
      <trkpt lat="41.97394" lon="19.54306">
        <ele>55.12416</ele>
        <time>2022-05-15T10:50:32.936Z</time>
      </trkpt>
      <trkpt lat="41.97402" lon="19.54311">
        <ele>55.023982</ele>
        <time>2022-05-15T10:50:34.929Z</time>
      </trkpt>
      <trkpt lat="41.97411" lon="19.54316">
        <ele>54.923804</ele>
        <time>2022-05-15T10:50:36.925Z</time>
      </trkpt>
      <trkpt lat="41.97423" lon="19.54323">
        <ele>54.783851</ele>
        <time>2022-05-15T10:50:39.920Z</time>
      </trkpt>
      <trkpt lat="41.97434" lon="19.5433">
        <ele>54.654068</ele>
        <time>2022-05-15T10:50:42.910Z</time>
      </trkpt>
      <trkpt lat="41.97445" lon="19.54336">
        <ele>54.523974</ele>
        <time>2022-05-15T10:50:45.928Z</time>
      </trkpt>
      <trkpt lat="41.97456" lon="19.54342">
        <ele>54.394238</ele>
        <time>2022-05-15T10:50:48.923Z</time>
      </trkpt>
      <trkpt lat="41.97467" lon="19.54349">
        <ele>54.2599</ele>
        <time>2022-05-15T10:50:51.912Z</time>
      </trkpt>
      <trkpt lat="41.97478" lon="19.54355">
        <ele>54.12901</ele>
        <time>2022-05-15T10:50:54.939Z</time>
      </trkpt>
      <trkpt lat="41.97489" lon="19.54361">
        <ele>54.000224</ele>
        <time>2022-05-15T10:50:57.912Z</time>
      </trkpt>
      <trkpt lat="41.97501" lon="19.54367">
        <ele>53.946869</ele>
        <time>2022-05-15T10:51:00.923Z</time>
      </trkpt>
      <trkpt lat="41.97512" lon="19.54373">
        <ele>53.998236</ele>
        <time>2022-05-15T10:51:03.915Z</time>
      </trkpt>
      <trkpt lat="41.97523" lon="19.54379">
        <ele>54.049205</ele>
        <time>2022-05-15T10:51:06.922Z</time>
      </trkpt>
      <trkpt lat="41.97534" lon="19.54385">
        <ele>54.102333</ele>
        <time>2022-05-15T10:51:09.910Z</time>
      </trkpt>
      <trkpt lat="41.97546" lon="19.54391">
        <ele>54.154495</ele>
        <time>2022-05-15T10:51:12.907Z</time>
      </trkpt>
      <trkpt lat="41.97557" lon="19.54396">
        <ele>54.205101</ele>
        <time>2022-05-15T10:51:15.913Z</time>
      </trkpt>
      <trkpt lat="41.97569" lon="19.54401">
        <ele>54.256616</ele>
        <time>2022-05-15T10:51:18.917Z</time>
      </trkpt>
      <trkpt lat="41.97581" lon="19.54404">
        <ele>54.309888</ele>
        <time>2022-05-15T10:51:21.907Z</time>
      </trkpt>
      <trkpt lat="41.97592" lon="19.54407">
        <ele>54.359916</ele>
        <time>2022-05-15T10:51:24.915Z</time>
      </trkpt>
      <trkpt lat="41.97603" lon="19.54408">
        <ele>54.407404</ele>
        <time>2022-05-15T10:51:27.924Z</time>
      </trkpt>
      <trkpt lat="41.97615" lon="19.54408">
        <ele>54.455238</ele>
        <time>2022-05-15T10:51:30.918Z</time>
      </trkpt>
      <trkpt lat="41.97626" lon="19.54407">
        <ele>54.501856</ele>
        <time>2022-05-15T10:51:33.933Z</time>
      </trkpt>
      <trkpt lat="41.97638" lon="19.54405">
        <ele>54.55381</ele>
        <time>2022-05-15T10:51:36.916Z</time>
      </trkpt>
      <trkpt lat="41.97651" lon="19.54403">
        <ele>54.609562</ele>
        <time>2022-05-15T10:51:39.907Z</time>
      </trkpt>
      <trkpt lat="41.9766" lon="19.54401">
        <ele>54.648938</ele>
        <time>2022-05-15T10:51:41.910Z</time>
      </trkpt>
      <trkpt lat="41.9767" lon="19.54399">
        <ele>54.692871</ele>
        <time>2022-05-15T10:51:43.919Z</time>
      </trkpt>
      <trkpt lat="41.9768" lon="19.54396">
        <ele>54.519622</ele>
        <time>2022-05-15T10:51:45.927Z</time>
      </trkpt>
      <trkpt lat="41.97689" lon="19.54395">
        <ele>54.348245</ele>
        <time>2022-05-15T10:51:47.913Z</time>
      </trkpt>
      <trkpt lat="41.97699" lon="19.54393">
        <ele>54.170685</ele>
        <time>2022-05-15T10:51:49.938Z</time>
      </trkpt>
      <trkpt lat="41.97709" lon="19.54391">
        <ele>53.991942</ele>
        <time>2022-05-15T10:51:51.930Z</time>
      </trkpt>
      <trkpt lat="41.97719" lon="19.54389">
        <ele>53.817667</ele>
        <time>2022-05-15T10:51:53.914Z</time>
      </trkpt>
      <trkpt lat="41.97728" lon="19.54387">
        <ele>53.64629</ele>
        <time>2022-05-15T10:51:55.912Z</time>
      </trkpt>
      <trkpt lat="41.97738" lon="19.54385">
        <ele>53.476322</ele>
        <time>2022-05-15T10:51:57.911Z</time>
      </trkpt>
      <trkpt lat="41.97747" lon="19.54383">
        <ele>53.313173</ele>
        <time>2022-05-15T10:51:59.907Z</time>
      </trkpt>
      <trkpt lat="41.97756" lon="19.54381">
        <ele>53.150361</ele>
        <time>2022-05-15T10:52:01.926Z</time>
      </trkpt>
      <trkpt lat="41.97765" lon="19.54378">
        <ele>52.989284</ele>
        <time>2022-05-15T10:52:03.912Z</time>
      </trkpt>
      <trkpt lat="41.97774" lon="19.54376">
        <ele>52.829201</ele>
        <time>2022-05-15T10:52:05.918Z</time>
      </trkpt>
      <trkpt lat="41.97787" lon="19.54373">
        <ele>52.592322</ele>
        <time>2022-05-15T10:52:08.918Z</time>
      </trkpt>
      <trkpt lat="41.978" lon="19.54369">
        <ele>52.358644</ele>
        <time>2022-05-15T10:52:11.936Z</time>
      </trkpt>
      <trkpt lat="41.97812" lon="19.54365">
        <ele>52.131009</ele>
        <time>2022-05-15T10:52:14.919Z</time>
      </trkpt>
      <trkpt lat="41.97824" lon="19.54361">
        <ele>51.913189</ele>
        <time>2022-05-15T10:52:17.907Z</time>
      </trkpt>
      <trkpt lat="41.97837" lon="19.54358">
        <ele>51.693468</ele>
        <time>2022-05-15T10:52:20.925Z</time>
      </trkpt>
      <trkpt lat="41.97849" lon="19.54356">
        <ele>51.51272</ele>
        <time>2022-05-15T10:52:23.913Z</time>
      </trkpt>
      <trkpt lat="41.97862" lon="19.54355">
        <ele>51.550623</ele>
        <time>2022-05-15T10:52:26.916Z</time>
      </trkpt>
      <trkpt lat="41.97874" lon="19.54354">
        <ele>51.587937</ele>
        <time>2022-05-15T10:52:29.907Z</time>
      </trkpt>
      <trkpt lat="41.97887" lon="19.54353">
        <ele>51.624057</ele>
        <time>2022-05-15T10:52:32.908Z</time>
      </trkpt>
      <trkpt lat="41.97899" lon="19.54352">
        <ele>51.6605</ele>
        <time>2022-05-15T10:52:35.911Z</time>
      </trkpt>
      <trkpt lat="41.97911" lon="19.5435">
        <ele>51.697881</ele>
        <time>2022-05-15T10:52:38.922Z</time>
      </trkpt>
      <trkpt lat="41.97924" lon="19.54349">
        <ele>51.734065</ele>
        <time>2022-05-15T10:52:41.918Z</time>
      </trkpt>
      <trkpt lat="41.97936" lon="19.54348">
        <ele>51.76957</ele>
        <time>2022-05-15T10:52:44.917Z</time>
      </trkpt>
      <trkpt lat="41.97948" lon="19.54347">
        <ele>51.80569</ele>
        <time>2022-05-15T10:52:47.911Z</time>
      </trkpt>
      <trkpt lat="41.9796" lon="19.54347">
        <ele>51.841472</ele>
        <time>2022-05-15T10:52:50.917Z</time>
      </trkpt>
      <trkpt lat="41.97973" lon="19.54348">
        <ele>51.879423</ele>
        <time>2022-05-15T10:52:53.943Z</time>
      </trkpt>
      <trkpt lat="41.97985" lon="19.54352">
        <ele>51.917968</ele>
        <time>2022-05-15T10:52:56.915Z</time>
      </trkpt>
      <trkpt lat="41.97998" lon="19.54357">
        <ele>51.95655</ele>
        <time>2022-05-15T10:52:59.912Z</time>
      </trkpt>
      <trkpt lat="41.98011" lon="19.54362">
        <ele>51.995151</ele>
        <time>2022-05-15T10:53:02.915Z</time>
      </trkpt>
      <trkpt lat="41.98021" lon="19.54367">
        <ele>52.028833</ele>
        <time>2022-05-15T10:53:05.914Z</time>
      </trkpt>
      <trkpt lat="41.98031" lon="19.54371">
        <ele>52.002859</ele>
        <time>2022-05-15T10:53:08.941Z</time>
      </trkpt>
      <trkpt lat="41.9804" lon="19.54379">
        <ele>51.942927</ele>
        <time>2022-05-15T10:53:12.912Z</time>
      </trkpt>
      <trkpt lat="41.98057" lon="19.5439">
        <ele>51.840532</ele>
        <time>2022-05-15T10:53:33.934Z</time>
      </trkpt>
      <trkpt lat="41.98068" lon="19.54382">
        <ele>51.775403</ele>
        <time>2022-05-15T10:53:37.911Z</time>
      </trkpt>
      <trkpt lat="41.98077" lon="19.54375">
        <ele>51.720505</ele>
        <time>2022-05-15T10:53:40.964Z</time>
      </trkpt>
      <trkpt lat="41.98086" lon="19.54368">
        <ele>51.664481</ele>
        <time>2022-05-15T10:53:43.920Z</time>
      </trkpt>
      <trkpt lat="41.98094" lon="19.5436">
        <ele>51.608705</ele>
        <time>2022-05-15T10:53:46.920Z</time>
      </trkpt>
      <trkpt lat="41.98103" lon="19.54354">
        <ele>51.556475</ele>
        <time>2022-05-15T10:53:49.909Z</time>
      </trkpt>
      <trkpt lat="41.98112" lon="19.54346">
        <ele>51.500451</ele>
        <time>2022-05-15T10:53:52.908Z</time>
      </trkpt>
      <trkpt lat="41.9812" lon="19.54338">
        <ele>51.442922</ele>
        <time>2022-05-15T10:53:55.938Z</time>
      </trkpt>
      <trkpt lat="41.9813" lon="19.5433">
        <ele>51.383353</ele>
        <time>2022-05-15T10:53:58.919Z</time>
      </trkpt>
      <trkpt lat="41.9814" lon="19.54322">
        <ele>51.319563</ele>
        <time>2022-05-15T10:54:01.915Z</time>
      </trkpt>
      <trkpt lat="41.9815" lon="19.54313">
        <ele>51.256009</ele>
        <time>2022-05-15T10:54:04.916Z</time>
      </trkpt>
      <trkpt lat="41.9816" lon="19.54305">
        <ele>51.193524</ele>
        <time>2022-05-15T10:54:07.904Z</time>
      </trkpt>
      <trkpt lat="41.98169" lon="19.54297">
        <ele>51.133761</ele>
        <time>2022-05-15T10:54:10.913Z</time>
      </trkpt>
      <trkpt lat="41.98179" lon="19.54288">
        <ele>51.082344</ele>
        <time>2022-05-15T10:54:13.923Z</time>
      </trkpt>
      <trkpt lat="41.9819" lon="19.54279">
        <ele>51.349787</ele>
        <time>2022-05-15T10:54:16.909Z</time>
      </trkpt>
      <trkpt lat="41.98201" lon="19.5427">
        <ele>51.618007</ele>
        <time>2022-05-15T10:54:19.916Z</time>
      </trkpt>
      <trkpt lat="41.98208" lon="19.54263">
        <ele>51.808192</ele>
        <time>2022-05-15T10:54:21.919Z</time>
      </trkpt>
      <trkpt lat="41.98219" lon="19.54254">
        <ele>52.067011</ele>
        <time>2022-05-15T10:54:24.911Z</time>
      </trkpt>
      <trkpt lat="41.98228" lon="19.54247">
        <ele>52.284958</ele>
        <time>2022-05-15T10:54:27.906Z</time>
      </trkpt>
      <trkpt lat="41.98238" lon="19.54238">
        <ele>52.546274</ele>
        <time>2022-05-15T10:54:30.913Z</time>
      </trkpt>
      <trkpt lat="41.98246" lon="19.54231">
        <ele>52.744257</ele>
        <time>2022-05-15T10:54:32.902Z</time>
      </trkpt>
      <trkpt lat="41.98258" lon="19.54222">
        <ele>53.015879</ele>
        <time>2022-05-15T10:54:35.919Z</time>
      </trkpt>
      <trkpt lat="41.98267" lon="19.54215">
        <ele>53.240794</ele>
        <time>2022-05-15T10:54:38.930Z</time>
      </trkpt>
      <trkpt lat="41.98277" lon="19.54207">
        <ele>53.486007</ele>
        <time>2022-05-15T10:54:41.916Z</time>
      </trkpt>
      <trkpt lat="41.98287" lon="19.54199">
        <ele>53.722203</ele>
        <time>2022-05-15T10:54:44.955Z</time>
      </trkpt>
      <trkpt lat="41.98296" lon="19.54192">
        <ele>53.947742</ele>
        <time>2022-05-15T10:54:47.915Z</time>
      </trkpt>
      <trkpt lat="41.98306" lon="19.54184">
        <ele>54.198936</ele>
        <time>2022-05-15T10:54:50.913Z</time>
      </trkpt>
      <trkpt lat="41.98316" lon="19.54177">
        <ele>54.42524</ele>
        <time>2022-05-15T10:54:53.912Z</time>
      </trkpt>
      <trkpt lat="41.98325" lon="19.54169">
        <ele>54.651825</ele>
        <time>2022-05-15T10:54:56.912Z</time>
      </trkpt>
      <trkpt lat="41.98335" lon="19.54162">
        <ele>54.789247</ele>
        <time>2022-05-15T10:54:59.917Z</time>
      </trkpt>
      <trkpt lat="41.98345" lon="19.54153">
        <ele>54.553412</ele>
        <time>2022-05-15T10:55:02.942Z</time>
      </trkpt>
      <trkpt lat="41.98356" lon="19.54145">
        <ele>54.315659</ele>
        <time>2022-05-15T10:55:05.916Z</time>
      </trkpt>
      <trkpt lat="41.98366" lon="19.54137">
        <ele>54.074046</ele>
        <time>2022-05-15T10:55:08.916Z</time>
      </trkpt>
      <trkpt lat="41.98377" lon="19.54128">
        <ele>53.822031</ele>
        <time>2022-05-15T10:55:11.909Z</time>
      </trkpt>
      <trkpt lat="41.98388" lon="19.54119">
        <ele>53.581527</ele>
        <time>2022-05-15T10:55:14.919Z</time>
      </trkpt>
      <trkpt lat="41.98398" lon="19.54111">
        <ele>53.352203</ele>
        <time>2022-05-15T10:55:17.917Z</time>
      </trkpt>
      <trkpt lat="41.98408" lon="19.54104">
        <ele>53.13642</ele>
        <time>2022-05-15T10:55:20.914Z</time>
      </trkpt>
      <trkpt lat="41.98417" lon="19.54096">
        <ele>52.928287</ele>
        <time>2022-05-15T10:55:23.907Z</time>
      </trkpt>
      <trkpt lat="41.98426" lon="19.54089">
        <ele>52.725538</ele>
        <time>2022-05-15T10:55:26.918Z</time>
      </trkpt>
      <trkpt lat="41.98435" lon="19.54082">
        <ele>52.51796</ele>
        <time>2022-05-15T10:55:29.911Z</time>
      </trkpt>
      <trkpt lat="41.98446" lon="19.54073">
        <ele>52.266869</ele>
        <time>2022-05-15T10:55:32.903Z</time>
      </trkpt>
      <trkpt lat="41.98454" lon="19.54066">
        <ele>52.085598</ele>
        <time>2022-05-15T10:55:34.933Z</time>
      </trkpt>
      <trkpt lat="41.98465" lon="19.54057">
        <ele>51.826852</ele>
        <time>2022-05-15T10:55:37.905Z</time>
      </trkpt>
      <trkpt lat="41.98476" lon="19.54048">
        <ele>51.573559</ele>
        <time>2022-05-15T10:55:40.911Z</time>
      </trkpt>
      <trkpt lat="41.98487" lon="19.54039">
        <ele>51.325113</ele>
        <time>2022-05-15T10:55:43.910Z</time>
      </trkpt>
      <trkpt lat="41.98498" lon="19.5403">
        <ele>51.159227</ele>
        <time>2022-05-15T10:55:46.917Z</time>
      </trkpt>
      <trkpt lat="41.98508" lon="19.54021">
        <ele>50.997002</ele>
        <time>2022-05-15T10:55:49.914Z</time>
      </trkpt>
      <trkpt lat="41.98519" lon="19.54012">
        <ele>50.831715</ele>
        <time>2022-05-15T10:55:52.907Z</time>
      </trkpt>
      <trkpt lat="41.98529" lon="19.54004">
        <ele>50.676255</ele>
        <time>2022-05-15T10:55:55.933Z</time>
      </trkpt>
      <trkpt lat="41.98539" lon="19.53996">
        <ele>50.524471</ele>
        <time>2022-05-15T10:55:58.919Z</time>
      </trkpt>
      <trkpt lat="41.98547" lon="19.53989">
        <ele>50.389161</ele>
        <time>2022-05-15T10:56:01.907Z</time>
      </trkpt>
      <trkpt lat="41.98556" lon="19.53982">
        <ele>50.252076</ele>
        <time>2022-05-15T10:56:04.905Z</time>
      </trkpt>
      <trkpt lat="41.98566" lon="19.53974">
        <ele>50.10368</ele>
        <time>2022-05-15T10:56:07.917Z</time>
      </trkpt>
      <trkpt lat="41.98576" lon="19.53966">
        <ele>49.954252</ele>
        <time>2022-05-15T10:56:10.921Z</time>
      </trkpt>
      <trkpt lat="41.98586" lon="19.53958">
        <ele>49.801459</ele>
        <time>2022-05-15T10:56:13.912Z</time>
      </trkpt>
      <trkpt lat="41.98595" lon="19.5395">
        <ele>49.652031</ele>
        <time>2022-05-15T10:56:16.914Z</time>
      </trkpt>
      <trkpt lat="41.98605" lon="19.53941">
        <ele>49.497089</ele>
        <time>2022-05-15T10:56:19.913Z</time>
      </trkpt>
      <trkpt lat="41.98615" lon="19.53932">
        <ele>49.336796</ele>
        <time>2022-05-15T10:56:22.911Z</time>
      </trkpt>
      <trkpt lat="41.98623" lon="19.53919">
        <ele>49.173803</ele>
        <time>2022-05-15T10:56:25.908Z</time>
      </trkpt>
      <trkpt lat="41.9863" lon="19.53906">
        <ele>49.014112</ele>
        <time>2022-05-15T10:56:28.928Z</time>
      </trkpt>
      <trkpt lat="41.98636" lon="19.53894">
        <ele>48.99079</ele>
        <time>2022-05-15T10:56:31.908Z</time>
      </trkpt>
      <trkpt lat="41.98645" lon="19.53884">
        <ele>49.058199</ele>
        <time>2022-05-15T10:56:34.909Z</time>
      </trkpt>
      <trkpt lat="41.98653" lon="19.53873">
        <ele>49.129913</ele>
        <time>2022-05-15T10:56:37.919Z</time>
      </trkpt>
      <trkpt lat="41.98662" lon="19.53862">
        <ele>49.203038</ele>
        <time>2022-05-15T10:56:40.917Z</time>
      </trkpt>
      <trkpt lat="41.98671" lon="19.53852">
        <ele>49.268693</ele>
        <time>2022-05-15T10:56:43.907Z</time>
      </trkpt>
      <trkpt lat="41.98679" lon="19.53841">
        <ele>49.335305</ele>
        <time>2022-05-15T10:56:46.926Z</time>
      </trkpt>
      <trkpt lat="41.98687" lon="19.53831">
        <ele>49.400519</ele>
        <time>2022-05-15T10:56:49.906Z</time>
      </trkpt>
      <trkpt lat="41.98695" lon="19.5382">
        <ele>49.467244</ele>
        <time>2022-05-15T10:56:52.913Z</time>
      </trkpt>
      <trkpt lat="41.98703" lon="19.5381">
        <ele>49.531597</ele>
        <time>2022-05-15T10:56:55.918Z</time>
      </trkpt>
      <trkpt lat="41.98711" lon="19.53802">
        <ele>49.591707</ele>
        <time>2022-05-15T10:56:58.911Z</time>
      </trkpt>
      <trkpt lat="41.98718" lon="19.53792">
        <ele>49.650342</ele>
        <time>2022-05-15T10:57:01.916Z</time>
      </trkpt>
      <trkpt lat="41.98726" lon="19.53783">
        <ele>49.713203</ele>
        <time>2022-05-15T10:57:04.910Z</time>
      </trkpt>
      <trkpt lat="41.98733" lon="19.53773">
        <ele>49.774164</ele>
        <time>2022-05-15T10:57:07.914Z</time>
      </trkpt>
      <trkpt lat="41.98741" lon="19.53764">
        <ele>49.834534</ele>
        <time>2022-05-15T10:57:10.942Z</time>
      </trkpt>
      <trkpt lat="41.98749" lon="19.53754">
        <ele>49.900108</ele>
        <time>2022-05-15T10:57:13.924Z</time>
      </trkpt>
      <trkpt lat="41.98757" lon="19.53743">
        <ele>49.969327</ele>
        <time>2022-05-15T10:57:16.921Z</time>
      </trkpt>
      <trkpt lat="41.98766" lon="19.53732">
        <ele>50.053686</ele>
        <time>2022-05-15T10:57:19.913Z</time>
      </trkpt>
      <trkpt lat="41.98772" lon="19.5372">
        <ele>50.176485</ele>
        <time>2022-05-15T10:57:22.919Z</time>
      </trkpt>
      <trkpt lat="41.9878" lon="19.53709">
        <ele>50.298322</ele>
        <time>2022-05-15T10:57:25.906Z</time>
      </trkpt>
      <trkpt lat="41.98787" lon="19.53698">
        <ele>50.420158</ele>
        <time>2022-05-15T10:57:28.927Z</time>
      </trkpt>
      <trkpt lat="41.98795" lon="19.53686">
        <ele>50.547973</ele>
        <time>2022-05-15T10:57:31.932Z</time>
      </trkpt>
      <trkpt lat="41.98803" lon="19.53675">
        <ele>50.676372</ele>
        <time>2022-05-15T10:57:34.905Z</time>
      </trkpt>
      <trkpt lat="41.98811" lon="19.53663">
        <ele>50.809222</ele>
        <time>2022-05-15T10:57:37.905Z</time>
      </trkpt>
      <trkpt lat="41.9882" lon="19.53652">
        <ele>50.94093</ele>
        <time>2022-05-15T10:57:40.908Z</time>
      </trkpt>
      <trkpt lat="41.98829" lon="19.53641">
        <ele>51.076094</ele>
        <time>2022-05-15T10:57:43.914Z</time>
      </trkpt>
      <trkpt lat="41.98838" lon="19.53631">
        <ele>51.20969</ele>
        <time>2022-05-15T10:57:46.913Z</time>
      </trkpt>
      <trkpt lat="41.98848" lon="19.53622">
        <ele>51.337057</ele>
        <time>2022-05-15T10:57:49.911Z</time>
      </trkpt>
      <trkpt lat="41.98857" lon="19.53611">
        <ele>51.469812</ele>
        <time>2022-05-15T10:57:52.914Z</time>
      </trkpt>
      <trkpt lat="41.98866" lon="19.53606">
        <ele>51.580615</ele>
        <time>2022-05-15T10:57:55.911Z</time>
      </trkpt>
      <trkpt lat="41.98875" lon="19.53599">
        <ele>51.694374</ele>
        <time>2022-05-15T10:57:58.916Z</time>
      </trkpt>
      <trkpt lat="41.98885" lon="19.53593">
        <ele>51.804149</ele>
        <time>2022-05-15T10:58:01.923Z</time>
      </trkpt>
      <trkpt lat="41.98894" lon="19.53587">
        <ele>51.921627</ele>
        <time>2022-05-15T10:58:04.923Z</time>
      </trkpt>
      <trkpt lat="41.98905" lon="19.53583">
        <ele>51.985469</ele>
        <time>2022-05-15T10:58:07.915Z</time>
      </trkpt>
      <trkpt lat="41.98916" lon="19.53578">
        <ele>51.957799</ele>
        <time>2022-05-15T10:58:10.928Z</time>
      </trkpt>
      <trkpt lat="41.98927" lon="19.53574">
        <ele>51.929677</ele>
        <time>2022-05-15T10:58:13.907Z</time>
      </trkpt>
      <trkpt lat="41.98939" lon="19.53571">
        <ele>51.900057</ele>
        <time>2022-05-15T10:58:16.911Z</time>
      </trkpt>
      <trkpt lat="41.9895" lon="19.53569">
        <ele>51.872398</ele>
        <time>2022-05-15T10:58:19.955Z</time>
      </trkpt>
      <trkpt lat="41.98962" lon="19.53567">
        <ele>51.844367</ele>
        <time>2022-05-15T10:58:22.921Z</time>
      </trkpt>
      <trkpt lat="41.98973" lon="19.53564">
        <ele>51.816926</ele>
        <time>2022-05-15T10:58:25.911Z</time>
      </trkpt>
      <trkpt lat="41.98984" lon="19.53561">
        <ele>51.788386</ele>
        <time>2022-05-15T10:58:28.915Z</time>
      </trkpt>
      <trkpt lat="41.98996" lon="19.53558">
        <ele>51.759992</ele>
        <time>2022-05-15T10:58:31.916Z</time>
      </trkpt>
      <trkpt lat="41.99007" lon="19.53556">
        <ele>51.732763</ele>
        <time>2022-05-15T10:58:34.909Z</time>
      </trkpt>
      <trkpt lat="41.99017" lon="19.53555">
        <ele>51.709382</ele>
        <time>2022-05-15T10:58:37.909Z</time>
      </trkpt>
      <trkpt lat="41.99028" lon="19.53551">
        <ele>51.681478</ele>
        <time>2022-05-15T10:58:40.964Z</time>
      </trkpt>
      <trkpt lat="41.99038" lon="19.53548">
        <ele>51.656139</ele>
        <time>2022-05-15T10:58:43.907Z</time>
      </trkpt>
      <trkpt lat="41.99048" lon="19.53545">
        <ele>51.631578</ele>
        <time>2022-05-15T10:58:46.911Z</time>
      </trkpt>
      <trkpt lat="41.9906" lon="19.53542">
        <ele>51.601414</ele>
        <time>2022-05-15T10:58:50.913Z</time>
      </trkpt>
      <trkpt lat="41.99068" lon="19.53534">
        <ele>51.577543</ele>
        <time>2022-05-15T10:58:53.906Z</time>
      </trkpt>
      <trkpt lat="41.99076" lon="19.53527">
        <ele>51.575771</ele>
        <time>2022-05-15T10:58:56.913Z</time>
      </trkpt>
      <trkpt lat="41.99084" lon="19.5352">
        <ele>51.656002</ele>
        <time>2022-05-15T10:58:59.934Z</time>
      </trkpt>
      <trkpt lat="41.99092" lon="19.53512">
        <ele>51.739396</ele>
        <time>2022-05-15T10:59:02.919Z</time>
      </trkpt>
      <trkpt lat="41.991" lon="19.53505">
        <ele>51.819284</ele>
        <time>2022-05-15T10:59:05.924Z</time>
      </trkpt>
      <trkpt lat="41.99109" lon="19.53495">
        <ele>51.92011</ele>
        <time>2022-05-15T10:59:09.907Z</time>
      </trkpt>
      <trkpt lat="41.99117" lon="19.53487">
        <ele>52.003943</ele>
        <time>2022-05-15T10:59:12.932Z</time>
      </trkpt>
      <trkpt lat="41.99125" lon="19.5348">
        <ele>52.0808</ele>
        <time>2022-05-15T10:59:15.906Z</time>
      </trkpt>
      <trkpt lat="41.99135" lon="19.53471">
        <ele>52.17902</ele>
        <time>2022-05-15T10:59:19.909Z</time>
      </trkpt>
      <trkpt lat="41.99142" lon="19.53463">
        <ele>52.259663</ele>
        <time>2022-05-15T10:59:22.914Z</time>
      </trkpt>
      <trkpt lat="41.99149" lon="19.53454">
        <ele>52.337457</ele>
        <time>2022-05-15T10:59:25.906Z</time>
      </trkpt>
      <trkpt lat="41.99157" lon="19.53447">
        <ele>52.412862</ele>
        <time>2022-05-15T10:59:28.921Z</time>
      </trkpt>
      <trkpt lat="41.99165" lon="19.53438">
        <ele>52.500429</ele>
        <time>2022-05-15T10:59:32.912Z</time>
      </trkpt>
      <trkpt lat="41.99172" lon="19.53431">
        <ele>52.576713</ele>
        <time>2022-05-15T10:59:36.922Z</time>
      </trkpt>
      <trkpt lat="41.99181" lon="19.53422">
        <ele>52.674603</ele>
        <time>2022-05-15T10:59:41.912Z</time>
      </trkpt>
      <trkpt lat="41.99193" lon="19.5342">
        <ele>52.768488</ele>
        <time>2022-05-15T10:59:45.913Z</time>
      </trkpt>
      <trkpt lat="41.992" lon="19.53414">
        <ele>52.844644</ele>
        <time>2022-05-15T10:59:48.930Z</time>
      </trkpt>
      <trkpt lat="41.9921" lon="19.53405">
        <ele>52.936634</ele>
        <time>2022-05-15T10:59:51.915Z</time>
      </trkpt>
      <trkpt lat="41.99219" lon="19.53397">
        <ele>53.028702</ele>
        <time>2022-05-15T10:59:54.973Z</time>
      </trkpt>
      <trkpt lat="41.99228" lon="19.53387">
        <ele>52.965917</ele>
        <time>2022-05-15T10:59:57.912Z</time>
      </trkpt>
      <trkpt lat="41.99239" lon="19.53377">
        <ele>52.829646</ele>
        <time>2022-05-15T11:00:00.908Z</time>
      </trkpt>
      <trkpt lat="41.99249" lon="19.53367">
        <ele>52.68579</ele>
        <time>2022-05-15T11:00:03.909Z</time>
      </trkpt>
      <trkpt lat="41.99259" lon="19.53357">
        <ele>52.551747</ele>
        <time>2022-05-15T11:00:06.926Z</time>
      </trkpt>
      <trkpt lat="41.99269" lon="19.53347">
        <ele>52.419442</ele>
        <time>2022-05-15T11:00:09.909Z</time>
      </trkpt>
      <trkpt lat="41.99278" lon="19.53337">
        <ele>52.290815</ele>
        <time>2022-05-15T11:00:12.909Z</time>
      </trkpt>
      <trkpt lat="41.99287" lon="19.53329">
        <ele>52.174374</ele>
        <time>2022-05-15T11:00:15.914Z</time>
      </trkpt>
      <trkpt lat="41.99296" lon="19.5332">
        <ele>52.054351</ele>
        <time>2022-05-15T11:00:18.914Z</time>
      </trkpt>
      <trkpt lat="41.99305" lon="19.53311">
        <ele>51.927949</ele>
        <time>2022-05-15T11:00:21.922Z</time>
      </trkpt>
      <trkpt lat="41.99314" lon="19.53301">
        <ele>51.803768</ele>
        <time>2022-05-15T11:00:24.915Z</time>
      </trkpt>
      <trkpt lat="41.99324" lon="19.5329">
        <ele>51.666109</ele>
        <time>2022-05-15T11:00:27.917Z</time>
      </trkpt>
      <trkpt lat="41.99334" lon="19.5328">
        <ele>51.532174</ele>
        <time>2022-05-15T11:00:30.912Z</time>
      </trkpt>
      <trkpt lat="41.99343" lon="19.5327">
        <ele>51.402725</ele>
        <time>2022-05-15T11:00:33.908Z</time>
      </trkpt>
      <trkpt lat="41.9935" lon="19.53261">
        <ele>51.296476</ele>
        <time>2022-05-15T11:00:36.917Z</time>
      </trkpt>
      <trkpt lat="41.99357" lon="19.53251">
        <ele>51.183643</ele>
        <time>2022-05-15T11:00:39.916Z</time>
      </trkpt>
      <trkpt lat="41.99365" lon="19.53241">
        <ele>51.100361</ele>
        <time>2022-05-15T11:00:42.912Z</time>
      </trkpt>
      <trkpt lat="41.99373" lon="19.53229">
        <ele>51.086629</ele>
        <time>2022-05-15T11:00:45.923Z</time>
      </trkpt>
      <trkpt lat="41.99382" lon="19.53217">
        <ele>51.072249</ele>
        <time>2022-05-15T11:00:48.941Z</time>
      </trkpt>
      <trkpt lat="41.99389" lon="19.53206">
        <ele>51.059155</ele>
        <time>2022-05-15T11:00:51.911Z</time>
      </trkpt>
      <trkpt lat="41.99398" lon="19.53194">
        <ele>51.044759</ele>
        <time>2022-05-15T11:00:54.912Z</time>
      </trkpt>
      <trkpt lat="41.99404" lon="19.53185">
        <ele>51.034117</ele>
        <time>2022-05-15T11:00:56.915Z</time>
      </trkpt>
      <trkpt lat="41.9941" lon="19.53175">
        <ele>51.023353</ele>
        <time>2022-05-15T11:00:58.919Z</time>
      </trkpt>
      <trkpt lat="41.99416" lon="19.53166">
        <ele>51.012569</ele>
        <time>2022-05-15T11:01:00.921Z</time>
      </trkpt>
      <trkpt lat="41.99422" lon="19.53157">
        <ele>51.001576</ele>
        <time>2022-05-15T11:01:02.923Z</time>
      </trkpt>
      <trkpt lat="41.99428" lon="19.53147">
        <ele>50.990604</ele>
        <time>2022-05-15T11:01:04.925Z</time>
      </trkpt>
      <trkpt lat="41.99434" lon="19.53137">
        <ele>50.979338</ele>
        <time>2022-05-15T11:01:06.918Z</time>
      </trkpt>
      <trkpt lat="41.9944" lon="19.53127">
        <ele>50.9681</ele>
        <time>2022-05-15T11:01:08.928Z</time>
      </trkpt>
      <trkpt lat="41.99446" lon="19.53117">
        <ele>50.957208</ele>
        <time>2022-05-15T11:01:10.927Z</time>
      </trkpt>
      <trkpt lat="41.99452" lon="19.53108">
        <ele>50.946377</ele>
        <time>2022-05-15T11:01:12.912Z</time>
      </trkpt>
      <trkpt lat="41.99458" lon="19.53098">
        <ele>50.935688</ele>
        <time>2022-05-15T11:01:14.917Z</time>
      </trkpt>
      <trkpt lat="41.99463" lon="19.53088">
        <ele>50.924936</ele>
        <time>2022-05-15T11:01:16.939Z</time>
      </trkpt>
      <trkpt lat="41.99469" lon="19.53079">
        <ele>50.913971</ele>
        <time>2022-05-15T11:01:18.913Z</time>
      </trkpt>
      <trkpt lat="41.99475" lon="19.53069">
        <ele>50.90349</ele>
        <time>2022-05-15T11:01:20.928Z</time>
      </trkpt>
      <trkpt lat="41.99483" lon="19.53056">
        <ele>50.895517</ele>
        <time>2022-05-15T11:01:23.913Z</time>
      </trkpt>
      <trkpt lat="41.99492" lon="19.53042">
        <ele>50.898764</ele>
        <time>2022-05-15T11:01:26.922Z</time>
      </trkpt>
      <trkpt lat="41.995" lon="19.53029">
        <ele>50.902086</ele>
        <time>2022-05-15T11:01:29.922Z</time>
      </trkpt>
      <trkpt lat="41.99509" lon="19.53015">
        <ele>50.905437</ele>
        <time>2022-05-15T11:01:32.907Z</time>
      </trkpt>
      <trkpt lat="41.99515" lon="19.53005">
        <ele>50.907699</ele>
        <time>2022-05-15T11:01:34.919Z</time>
      </trkpt>
      <trkpt lat="41.99523" lon="19.52992">
        <ele>50.910948</ele>
        <time>2022-05-15T11:01:37.910Z</time>
      </trkpt>
      <trkpt lat="41.99531" lon="19.52979">
        <ele>50.914255</ele>
        <time>2022-05-15T11:01:40.911Z</time>
      </trkpt>
      <trkpt lat="41.9954" lon="19.52965">
        <ele>50.917598</ele>
        <time>2022-05-15T11:01:43.910Z</time>
      </trkpt>
      <trkpt lat="41.99546" lon="19.52956">
        <ele>50.919846</ele>
        <time>2022-05-15T11:01:45.915Z</time>
      </trkpt>
      <trkpt lat="41.99555" lon="19.52943">
        <ele>50.923074</ele>
        <time>2022-05-15T11:01:48.931Z</time>
      </trkpt>
      <trkpt lat="41.99564" lon="19.5293">
        <ele>50.926317</ele>
        <time>2022-05-15T11:01:51.909Z</time>
      </trkpt>
      <trkpt lat="41.99572" lon="19.52917">
        <ele>50.92958</ele>
        <time>2022-05-15T11:01:54.928Z</time>
      </trkpt>
      <trkpt lat="41.99581" lon="19.52906">
        <ele>50.932581</ele>
        <time>2022-05-15T11:01:57.917Z</time>
      </trkpt>
      <trkpt lat="41.99589" lon="19.52894">
        <ele>50.935527</ele>
        <time>2022-05-15T11:02:00.911Z</time>
      </trkpt>
      <trkpt lat="41.99598" lon="19.52882">
        <ele>50.938674</ele>
        <time>2022-05-15T11:02:03.911Z</time>
      </trkpt>
      <trkpt lat="41.99607" lon="19.5287">
        <ele>50.946918</ele>
        <time>2022-05-15T11:02:06.948Z</time>
      </trkpt>
      <trkpt lat="41.99613" lon="19.52861">
        <ele>50.953299</ele>
        <time>2022-05-15T11:02:08.917Z</time>
      </trkpt>
      <trkpt lat="41.9962" lon="19.52852">
        <ele>50.959695</ele>
        <time>2022-05-15T11:02:10.920Z</time>
      </trkpt>
      <trkpt lat="41.99627" lon="19.52844">
        <ele>50.966213</ele>
        <time>2022-05-15T11:02:12.913Z</time>
      </trkpt>
      <trkpt lat="41.99634" lon="19.52835">
        <ele>50.972749</ele>
        <time>2022-05-15T11:02:14.910Z</time>
      </trkpt>
      <trkpt lat="41.99641" lon="19.52827">
        <ele>50.97904</ele>
        <time>2022-05-15T11:02:16.911Z</time>
      </trkpt>
      <trkpt lat="41.9965" lon="19.52816">
        <ele>50.988226</ele>
        <time>2022-05-15T11:02:19.905Z</time>
      </trkpt>
      <trkpt lat="41.99661" lon="19.52804">
        <ele>50.997569</ele>
        <time>2022-05-15T11:02:22.916Z</time>
      </trkpt>
      <trkpt lat="41.99671" lon="19.52792">
        <ele>51.006791</ele>
        <time>2022-05-15T11:02:25.908Z</time>
      </trkpt>
      <trkpt lat="41.9968" lon="19.52781">
        <ele>51.015666</ele>
        <time>2022-05-15T11:02:28.912Z</time>
      </trkpt>
      <trkpt lat="41.9969" lon="19.5277">
        <ele>51.024199</ele>
        <time>2022-05-15T11:02:31.913Z</time>
      </trkpt>
      <trkpt lat="41.99699" lon="19.5276">
        <ele>51.033068</ele>
        <time>2022-05-15T11:02:34.939Z</time>
      </trkpt>
      <trkpt lat="41.9971" lon="19.52749">
        <ele>51.042231</ele>
        <time>2022-05-15T11:02:37.910Z</time>
      </trkpt>
      <trkpt lat="41.9972" lon="19.52738">
        <ele>51.051543</ele>
        <time>2022-05-15T11:02:40.906Z</time>
      </trkpt>
      <trkpt lat="41.99731" lon="19.52727">
        <ele>51.060687</ele>
        <time>2022-05-15T11:02:43.905Z</time>
      </trkpt>
      <trkpt lat="41.99741" lon="19.52717">
        <ele>51.059299</ele>
        <time>2022-05-15T11:02:46.914Z</time>
      </trkpt>
      <trkpt lat="41.99752" lon="19.52707">
        <ele>51.04827</ele>
        <time>2022-05-15T11:02:49.916Z</time>
      </trkpt>
      <trkpt lat="41.99762" lon="19.52697">
        <ele>51.037483</ele>
        <time>2022-05-15T11:02:52.912Z</time>
      </trkpt>
      <trkpt lat="41.99773" lon="19.52687">
        <ele>51.02663</ele>
        <time>2022-05-15T11:02:55.911Z</time>
      </trkpt>
      <trkpt lat="41.99781" lon="19.5268">
        <ele>51.019117</ele>
        <time>2022-05-15T11:02:57.912Z</time>
      </trkpt>
      <trkpt lat="41.99788" lon="19.52673">
        <ele>51.011606</ele>
        <time>2022-05-15T11:02:59.921Z</time>
      </trkpt>
      <trkpt lat="41.99799" lon="19.52663">
        <ele>51.000719</ele>
        <time>2022-05-15T11:03:02.921Z</time>
      </trkpt>
      <trkpt lat="41.9981" lon="19.52653">
        <ele>50.989659</ele>
        <time>2022-05-15T11:03:05.921Z</time>
      </trkpt>
      <trkpt lat="41.99821" lon="19.52643">
        <ele>50.978427</ele>
        <time>2022-05-15T11:03:08.930Z</time>
      </trkpt>
      <trkpt lat="41.99829" lon="19.52636">
        <ele>50.970607</ele>
        <time>2022-05-15T11:03:10.917Z</time>
      </trkpt>
      <trkpt lat="41.99837" lon="19.52629">
        <ele>50.962786</ele>
        <time>2022-05-15T11:03:12.913Z</time>
      </trkpt>
      <trkpt lat="41.99848" lon="19.52619">
        <ele>50.951829</ele>
        <time>2022-05-15T11:03:15.907Z</time>
      </trkpt>
      <trkpt lat="41.99858" lon="19.5261">
        <ele>50.941733</ele>
        <time>2022-05-15T11:03:18.918Z</time>
      </trkpt>
      <trkpt lat="41.99868" lon="19.52601">
        <ele>50.931603</ele>
        <time>2022-05-15T11:03:21.908Z</time>
      </trkpt>
      <trkpt lat="41.99879" lon="19.52592">
        <ele>50.921193</ele>
        <time>2022-05-15T11:03:24.908Z</time>
      </trkpt>
      <trkpt lat="41.9989" lon="19.52582">
        <ele>50.897421</ele>
        <time>2022-05-15T11:03:27.908Z</time>
      </trkpt>
      <trkpt lat="41.99901" lon="19.52573">
        <ele>50.862079</ele>
        <time>2022-05-15T11:03:30.914Z</time>
      </trkpt>
      <trkpt lat="41.99911" lon="19.52564">
        <ele>50.827419</ele>
        <time>2022-05-15T11:03:33.912Z</time>
      </trkpt>
      <trkpt lat="41.99922" lon="19.52555">
        <ele>50.791256</ele>
        <time>2022-05-15T11:03:36.907Z</time>
      </trkpt>
      <trkpt lat="41.99933" lon="19.52546">
        <ele>50.754945</ele>
        <time>2022-05-15T11:03:39.910Z</time>
      </trkpt>
      <trkpt lat="41.99943" lon="19.52538">
        <ele>50.722316</ele>
        <time>2022-05-15T11:03:42.910Z</time>
      </trkpt>
      <trkpt lat="41.99955" lon="19.5253">
        <ele>50.686287</ele>
        <time>2022-05-15T11:03:45.906Z</time>
      </trkpt>
      <trkpt lat="41.99963" lon="19.52524">
        <ele>50.660726</ele>
        <time>2022-05-15T11:03:47.903Z</time>
      </trkpt>
      <trkpt lat="41.99971" lon="19.52519">
        <ele>50.635398</ele>
        <time>2022-05-15T11:03:49.916Z</time>
      </trkpt>
      <trkpt lat="41.99979" lon="19.52513">
        <ele>50.609909</ele>
        <time>2022-05-15T11:03:51.911Z</time>
      </trkpt>
      <trkpt lat="41.99991" lon="19.52506">
        <ele>50.572748</ele>
        <time>2022-05-15T11:03:54.909Z</time>
      </trkpt>
      <trkpt lat="41.99999" lon="19.52501">
        <ele>50.547096</ele>
        <time>2022-05-15T11:03:56.917Z</time>
      </trkpt>
      <trkpt lat="42.00008" lon="19.52496">
        <ele>50.521945</ele>
        <time>2022-05-15T11:03:58.918Z</time>
      </trkpt>
      <trkpt lat="42.00016" lon="19.52491">
        <ele>50.496374</ele>
        <time>2022-05-15T11:04:00.915Z</time>
      </trkpt>
      <trkpt lat="42.00029" lon="19.52485">
        <ele>50.458376</ele>
        <time>2022-05-15T11:04:03.907Z</time>
      </trkpt>
      <trkpt lat="42.00041" lon="19.52479">
        <ele>50.421239</ele>
        <time>2022-05-15T11:04:06.924Z</time>
      </trkpt>
      <trkpt lat="42.00054" lon="19.52473">
        <ele>50.348286</ele>
        <time>2022-05-15T11:04:09.910Z</time>
      </trkpt>
      <trkpt lat="42.00066" lon="19.52467">
        <ele>50.26751</ele>
        <time>2022-05-15T11:04:12.921Z</time>
      </trkpt>
      <trkpt lat="42.00074" lon="19.52464">
        <ele>50.209542</ele>
        <time>2022-05-15T11:04:14.913Z</time>
      </trkpt>
      <trkpt lat="42.00083" lon="19.5246">
        <ele>50.150686</ele>
        <time>2022-05-15T11:04:16.934Z</time>
      </trkpt>
      <trkpt lat="42.00095" lon="19.52454">
        <ele>50.067793</ele>
        <time>2022-05-15T11:04:19.916Z</time>
      </trkpt>
      <trkpt lat="42.00108" lon="19.52449">
        <ele>49.982023</ele>
        <time>2022-05-15T11:04:22.927Z</time>
      </trkpt>
      <trkpt lat="42.00117" lon="19.52445">
        <ele>49.923024</ele>
        <time>2022-05-15T11:04:24.914Z</time>
      </trkpt>
      <trkpt lat="42.00126" lon="19.52441">
        <ele>49.861761</ele>
        <time>2022-05-15T11:04:26.912Z</time>
      </trkpt>
      <trkpt lat="42.00135" lon="19.52437">
        <ele>49.803673</ele>
        <time>2022-05-15T11:04:28.921Z</time>
      </trkpt>
      <trkpt lat="42.00143" lon="19.52433">
        <ele>49.745429</ele>
        <time>2022-05-15T11:04:30.912Z</time>
      </trkpt>
      <trkpt lat="42.00156" lon="19.52427">
        <ele>49.661779</ele>
        <time>2022-05-15T11:04:33.914Z</time>
      </trkpt>
      <trkpt lat="42.00167" lon="19.52421">
        <ele>49.583866</ele>
        <time>2022-05-15T11:04:36.912Z</time>
      </trkpt>
      <trkpt lat="42.00179" lon="19.52416">
        <ele>49.502778</ele>
        <time>2022-05-15T11:04:39.910Z</time>
      </trkpt>
      <trkpt lat="42.00192" lon="19.5241">
        <ele>49.415952</ele>
        <time>2022-05-15T11:04:42.911Z</time>
      </trkpt>
      <trkpt lat="42.00205" lon="19.52405">
        <ele>49.329848</ele>
        <time>2022-05-15T11:04:45.910Z</time>
      </trkpt>
      <trkpt lat="42.00218" lon="19.524">
        <ele>49.247948</ele>
        <time>2022-05-15T11:04:48.919Z</time>
      </trkpt>
      <trkpt lat="42.00231" lon="19.52395">
        <ele>49.180903</ele>
        <time>2022-05-15T11:04:51.913Z</time>
      </trkpt>
      <trkpt lat="42.0024" lon="19.52391">
        <ele>49.134994</ele>
        <time>2022-05-15T11:04:53.918Z</time>
      </trkpt>
      <trkpt lat="42.00252" lon="19.52386">
        <ele>49.068537</ele>
        <time>2022-05-15T11:04:56.934Z</time>
      </trkpt>
      <trkpt lat="42.00265" lon="19.52381">
        <ele>49.002559</ele>
        <time>2022-05-15T11:04:59.922Z</time>
      </trkpt>
      <trkpt lat="42.00277" lon="19.52376">
        <ele>48.938717</ele>
        <time>2022-05-15T11:05:02.945Z</time>
      </trkpt>
      <trkpt lat="42.0029" lon="19.52371">
        <ele>48.872571</ele>
        <time>2022-05-15T11:05:05.912Z</time>
      </trkpt>
      <trkpt lat="42.00298" lon="19.52368">
        <ele>48.827038</ele>
        <time>2022-05-15T11:05:07.919Z</time>
      </trkpt>
      <trkpt lat="42.00311" lon="19.52363">
        <ele>48.760953</ele>
        <time>2022-05-15T11:05:10.928Z</time>
      </trkpt>
      <trkpt lat="42.00324" lon="19.52358">
        <ele>48.694119</ele>
        <time>2022-05-15T11:05:13.934Z</time>
      </trkpt>
      <trkpt lat="42.00333" lon="19.52354">
        <ele>48.648692</ele>
        <time>2022-05-15T11:05:15.917Z</time>
      </trkpt>
      <trkpt lat="42.00341" lon="19.52351">
        <ele>48.602679</ele>
        <time>2022-05-15T11:05:17.910Z</time>
      </trkpt>
      <trkpt lat="42.0035" lon="19.52347">
        <ele>48.556927</ele>
        <time>2022-05-15T11:05:19.908Z</time>
      </trkpt>
      <trkpt lat="42.00363" lon="19.52342">
        <ele>48.489989</ele>
        <time>2022-05-15T11:05:22.922Z</time>
      </trkpt>
      <trkpt lat="42.00375" lon="19.52337">
        <ele>48.425391</ele>
        <time>2022-05-15T11:05:25.913Z</time>
      </trkpt>
      <trkpt lat="42.00387" lon="19.52333">
        <ele>48.362343</ele>
        <time>2022-05-15T11:05:28.918Z</time>
      </trkpt>
      <trkpt lat="42.004" lon="19.52328">
        <ele>48.39483</ele>
        <time>2022-05-15T11:05:31.911Z</time>
      </trkpt>
      <trkpt lat="42.00412" lon="19.52323">
        <ele>48.429687</ele>
        <time>2022-05-15T11:05:34.946Z</time>
      </trkpt>
      <trkpt lat="42.00425" lon="19.52319">
        <ele>48.464545</ele>
        <time>2022-05-15T11:05:37.932Z</time>
      </trkpt>
      <trkpt lat="42.00438" lon="19.52315">
        <ele>48.499822</ele>
        <time>2022-05-15T11:05:40.932Z</time>
      </trkpt>
      <trkpt lat="42.00451" lon="19.5231">
        <ele>48.535618</ele>
        <time>2022-05-15T11:05:43.948Z</time>
      </trkpt>
      <trkpt lat="42.00464" lon="19.52306">
        <ele>48.571721</ele>
        <time>2022-05-15T11:05:46.946Z</time>
      </trkpt>
      <trkpt lat="42.00477" lon="19.52302">
        <ele>48.60747</ele>
        <time>2022-05-15T11:05:49.945Z</time>
      </trkpt>
      <trkpt lat="42.0049" lon="19.52297">
        <ele>48.643006</ele>
        <time>2022-05-15T11:05:52.944Z</time>
      </trkpt>
      <trkpt lat="42.00503" lon="19.52293">
        <ele>48.678924</ele>
        <time>2022-05-15T11:05:55.935Z</time>
      </trkpt>
      <trkpt lat="42.00512" lon="19.5229">
        <ele>48.703717</ele>
        <time>2022-05-15T11:05:57.938Z</time>
      </trkpt>
      <trkpt lat="42.0052" lon="19.52288">
        <ele>48.727852</ele>
        <time>2022-05-15T11:05:59.933Z</time>
      </trkpt>
      <trkpt lat="42.00529" lon="19.52285">
        <ele>48.751943</ele>
        <time>2022-05-15T11:06:01.973Z</time>
      </trkpt>
      <trkpt lat="42.00542" lon="19.52281">
        <ele>48.787601</ele>
        <time>2022-05-15T11:06:04.941Z</time>
      </trkpt>
      <trkpt lat="42.00551" lon="19.52279">
        <ele>48.811692</ele>
        <time>2022-05-15T11:06:06.944Z</time>
      </trkpt>
      <trkpt lat="42.00564" lon="19.52275">
        <ele>48.825363</ele>
        <time>2022-05-15T11:06:09.933Z</time>
      </trkpt>
      <trkpt lat="42.00576" lon="19.52271">
        <ele>48.684977</ele>
        <time>2022-05-15T11:06:12.979Z</time>
      </trkpt>
      <trkpt lat="42.00589" lon="19.52267">
        <ele>48.545664</ele>
        <time>2022-05-15T11:06:15.942Z</time>
      </trkpt>
      <trkpt lat="42.00601" lon="19.52263">
        <ele>48.405627</ele>
        <time>2022-05-15T11:06:18.972Z</time>
      </trkpt>
      <trkpt lat="42.00614" lon="19.5226">
        <ele>48.261497</ele>
        <time>2022-05-15T11:06:21.954Z</time>
      </trkpt>
      <trkpt lat="42.00626" lon="19.52255">
        <ele>48.126389</ele>
        <time>2022-05-15T11:06:24.924Z</time>
      </trkpt>
      <trkpt lat="42.00638" lon="19.52251">
        <ele>47.989155</ele>
        <time>2022-05-15T11:06:27.932Z</time>
      </trkpt>
      <trkpt lat="42.00651" lon="19.52246">
        <ele>47.844504</ele>
        <time>2022-05-15T11:06:30.943Z</time>
      </trkpt>
      <trkpt lat="42.00663" lon="19.52242">
        <ele>47.704681</ele>
        <time>2022-05-15T11:06:33.923Z</time>
      </trkpt>
      <trkpt lat="42.00675" lon="19.52236">
        <ele>47.564383</ele>
        <time>2022-05-15T11:06:36.946Z</time>
      </trkpt>
      <trkpt lat="42.00687" lon="19.52231">
        <ele>47.42074</ele>
        <time>2022-05-15T11:06:39.931Z</time>
      </trkpt>
      <trkpt lat="42.00699" lon="19.52225">
        <ele>47.280217</ele>
        <time>2022-05-15T11:06:42.927Z</time>
      </trkpt>
      <trkpt lat="42.00712" lon="19.52219">
        <ele>47.136415</ele>
        <time>2022-05-15T11:06:45.932Z</time>
      </trkpt>
      <trkpt lat="42.00723" lon="19.52212">
        <ele>46.994793</ele>
        <time>2022-05-15T11:06:48.928Z</time>
      </trkpt>
      <trkpt lat="42.00732" lon="19.52207">
        <ele>46.895198</ele>
        <time>2022-05-15T11:06:50.935Z</time>
      </trkpt>
      <trkpt lat="42.0074" lon="19.52203">
        <ele>46.892147</ele>
        <time>2022-05-15T11:06:52.930Z</time>
      </trkpt>
      <trkpt lat="42.00752" lon="19.52196">
        <ele>46.942759</ele>
        <time>2022-05-15T11:06:55.944Z</time>
      </trkpt>
      <trkpt lat="42.00763" lon="19.52189">
        <ele>46.98845</ele>
        <time>2022-05-15T11:06:58.934Z</time>
      </trkpt>
      <trkpt lat="42.00774" lon="19.52181">
        <ele>47.036299</ele>
        <time>2022-05-15T11:07:01.941Z</time>
      </trkpt>
      <trkpt lat="42.00785" lon="19.52173">
        <ele>47.084548</ele>
        <time>2022-05-15T11:07:04.934Z</time>
      </trkpt>
      <trkpt lat="42.00796" lon="19.52165">
        <ele>47.134705</ele>
        <time>2022-05-15T11:07:07.925Z</time>
      </trkpt>
      <trkpt lat="42.00807" lon="19.52156">
        <ele>47.184558</ele>
        <time>2022-05-15T11:07:10.939Z</time>
      </trkpt>
      <trkpt lat="42.00819" lon="19.52147">
        <ele>47.237436</ele>
        <time>2022-05-15T11:07:13.951Z</time>
      </trkpt>
      <trkpt lat="42.00827" lon="19.5214">
        <ele>47.272592</ele>
        <time>2022-05-15T11:07:15.929Z</time>
      </trkpt>
      <trkpt lat="42.00834" lon="19.52133">
        <ele>47.308074</ele>
        <time>2022-05-15T11:07:17.939Z</time>
      </trkpt>
      <trkpt lat="42.00842" lon="19.52126">
        <ele>47.343558</ele>
        <time>2022-05-15T11:07:19.976Z</time>
      </trkpt>
      <trkpt lat="42.00853" lon="19.52116">
        <ele>47.395424</ele>
        <time>2022-05-15T11:07:22.940Z</time>
      </trkpt>
      <trkpt lat="42.00863" lon="19.52107">
        <ele>47.443426</ele>
        <time>2022-05-15T11:07:25.940Z</time>
      </trkpt>
      <trkpt lat="42.00873" lon="19.52097">
        <ele>47.490053</ele>
        <time>2022-05-15T11:07:28.948Z</time>
      </trkpt>
      <trkpt lat="42.00883" lon="19.52087">
        <ele>47.53699</ele>
        <time>2022-05-15T11:07:31.926Z</time>
      </trkpt>
      <trkpt lat="42.00892" lon="19.52077">
        <ele>47.61527</ele>
        <time>2022-05-15T11:07:34.944Z</time>
      </trkpt>
      <trkpt lat="42.00902" lon="19.52066">
        <ele>47.737659</ele>
        <time>2022-05-15T11:07:37.943Z</time>
      </trkpt>
      <trkpt lat="42.00912" lon="19.52054">
        <ele>47.863727</ele>
        <time>2022-05-15T11:07:40.927Z</time>
      </trkpt>
      <trkpt lat="42.00921" lon="19.52043">
        <ele>47.98623</ele>
        <time>2022-05-15T11:07:43.943Z</time>
      </trkpt>
      <trkpt lat="42.00931" lon="19.52031">
        <ele>48.111342</ele>
        <time>2022-05-15T11:07:46.923Z</time>
      </trkpt>
      <trkpt lat="42.00941" lon="19.52019">
        <ele>48.239353</ele>
        <time>2022-05-15T11:07:49.936Z</time>
      </trkpt>
      <trkpt lat="42.00948" lon="19.5201">
        <ele>48.326006</ele>
        <time>2022-05-15T11:07:51.935Z</time>
      </trkpt>
      <trkpt lat="42.00954" lon="19.52002">
        <ele>48.412925</ele>
        <time>2022-05-15T11:07:53.940Z</time>
      </trkpt>
      <trkpt lat="42.00961" lon="19.51993">
        <ele>48.50458</ele>
        <time>2022-05-15T11:07:55.943Z</time>
      </trkpt>
      <trkpt lat="42.00968" lon="19.51984">
        <ele>48.594846</ele>
        <time>2022-05-15T11:07:57.925Z</time>
      </trkpt>
      <trkpt lat="42.00974" lon="19.51976">
        <ele>48.681072</ele>
        <time>2022-05-15T11:07:59.942Z</time>
      </trkpt>
      <trkpt lat="42.00984" lon="19.51964">
        <ele>48.808107</ele>
        <time>2022-05-15T11:08:02.940Z</time>
      </trkpt>
      <trkpt lat="42.00994" lon="19.51952">
        <ele>48.930368</ele>
        <time>2022-05-15T11:08:05.942Z</time>
      </trkpt>
      <trkpt lat="42.01004" lon="19.5194">
        <ele>49.058329</ele>
        <time>2022-05-15T11:08:08.942Z</time>
      </trkpt>
      <trkpt lat="42.0101" lon="19.51932">
        <ele>49.147834</ele>
        <time>2022-05-15T11:08:10.940Z</time>
      </trkpt>
      <trkpt lat="42.01017" lon="19.51923">
        <ele>49.235936</ele>
        <time>2022-05-15T11:08:12.942Z</time>
      </trkpt>
      <trkpt lat="42.01027" lon="19.51911">
        <ele>49.296354</ele>
        <time>2022-05-15T11:08:15.937Z</time>
      </trkpt>
      <trkpt lat="42.01034" lon="19.51903">
        <ele>49.309632</ele>
        <time>2022-05-15T11:08:17.952Z</time>
      </trkpt>
      <trkpt lat="42.01043" lon="19.51891">
        <ele>49.328529</ele>
        <time>2022-05-15T11:08:20.924Z</time>
      </trkpt>
      <trkpt lat="42.01053" lon="19.51879">
        <ele>49.347824</ele>
        <time>2022-05-15T11:08:23.971Z</time>
      </trkpt>
      <trkpt lat="42.01063" lon="19.51867">
        <ele>49.366973</ele>
        <time>2022-05-15T11:08:26.947Z</time>
      </trkpt>
      <trkpt lat="42.01072" lon="19.51856">
        <ele>49.38497</ele>
        <time>2022-05-15T11:08:29.934Z</time>
      </trkpt>
      <trkpt lat="42.01081" lon="19.51846">
        <ele>49.402452</ele>
        <time>2022-05-15T11:08:32.942Z</time>
      </trkpt>
      <trkpt lat="42.0109" lon="19.51836">
        <ele>49.419057</ele>
        <time>2022-05-15T11:08:35.939Z</time>
      </trkpt>
      <trkpt lat="42.01098" lon="19.51827">
        <ele>49.435139</ele>
        <time>2022-05-15T11:08:38.954Z</time>
      </trkpt>
      <trkpt lat="42.01107" lon="19.51818">
        <ele>49.450834</ele>
        <time>2022-05-15T11:08:41.942Z</time>
      </trkpt>
      <trkpt lat="42.01115" lon="19.51809">
        <ele>49.466378</ele>
        <time>2022-05-15T11:08:44.942Z</time>
      </trkpt>
      <trkpt lat="42.01124" lon="19.51801">
        <ele>49.482758</ele>
        <time>2022-05-15T11:08:47.934Z</time>
      </trkpt>
      <trkpt lat="42.01133" lon="19.51793">
        <ele>49.498525</ele>
        <time>2022-05-15T11:08:50.967Z</time>
      </trkpt>
      <trkpt lat="42.01142" lon="19.51785">
        <ele>49.513082</ele>
        <time>2022-05-15T11:08:53.928Z</time>
      </trkpt>
      <trkpt lat="42.01151" lon="19.51777">
        <ele>49.529521</ele>
        <time>2022-05-15T11:08:56.938Z</time>
      </trkpt>
      <trkpt lat="42.01161" lon="19.5177">
        <ele>49.545551</ele>
        <time>2022-05-15T11:08:59.949Z</time>
      </trkpt>
      <trkpt lat="42.01171" lon="19.51762">
        <ele>49.578934</ele>
        <time>2022-05-15T11:09:02.960Z</time>
      </trkpt>
      <trkpt lat="42.01181" lon="19.51756">
        <ele>49.611812</ele>
        <time>2022-05-15T11:09:05.925Z</time>
      </trkpt>
      <trkpt lat="42.0119" lon="19.51749">
        <ele>49.645294</ele>
        <time>2022-05-15T11:09:08.952Z</time>
      </trkpt>
      <trkpt lat="42.01201" lon="19.51741">
        <ele>49.680534</ele>
        <time>2022-05-15T11:09:11.932Z</time>
      </trkpt>
      <trkpt lat="42.01211" lon="19.51734">
        <ele>49.715908</ele>
        <time>2022-05-15T11:09:14.933Z</time>
      </trkpt>
      <trkpt lat="42.01222" lon="19.51728">
        <ele>49.752097</ele>
        <time>2022-05-15T11:09:17.931Z</time>
      </trkpt>
      <trkpt lat="42.01233" lon="19.51722">
        <ele>49.787275</ele>
        <time>2022-05-15T11:09:21.004Z</time>
      </trkpt>
      <trkpt lat="42.01244" lon="19.51716">
        <ele>49.822477</ele>
        <time>2022-05-15T11:09:23.942Z</time>
      </trkpt>
      <trkpt lat="42.01254" lon="19.5171">
        <ele>49.857482</ele>
        <time>2022-05-15T11:09:26.983Z</time>
      </trkpt>
      <trkpt lat="42.01265" lon="19.51705">
        <ele>49.892131</ele>
        <time>2022-05-15T11:09:29.936Z</time>
      </trkpt>
      <trkpt lat="42.01276" lon="19.517">
        <ele>49.927279</ele>
        <time>2022-05-15T11:09:32.969Z</time>
      </trkpt>
      <trkpt lat="42.01287" lon="19.51695">
        <ele>49.962574</ele>
        <time>2022-05-15T11:09:35.952Z</time>
      </trkpt>
      <trkpt lat="42.01298" lon="19.51691">
        <ele>49.996253</ele>
        <time>2022-05-15T11:09:38.960Z</time>
      </trkpt>
      <trkpt lat="42.01308" lon="19.51687">
        <ele>50.028415</ele>
        <time>2022-05-15T11:09:41.931Z</time>
      </trkpt>
      <trkpt lat="42.01318" lon="19.51684">
        <ele>50.059933</ele>
        <time>2022-05-15T11:09:44.984Z</time>
      </trkpt>
      <trkpt lat="42.01329" lon="19.51681">
        <ele>50.094887</ele>
        <time>2022-05-15T11:09:47.948Z</time>
      </trkpt>
      <trkpt lat="42.01339" lon="19.51678">
        <ele>50.215098</ele>
        <time>2022-05-15T11:09:50.924Z</time>
      </trkpt>
      <trkpt lat="42.01349" lon="19.51676">
        <ele>50.333513</ele>
        <time>2022-05-15T11:09:53.940Z</time>
      </trkpt>
      <trkpt lat="42.01359" lon="19.51674">
        <ele>50.445528</ele>
        <time>2022-05-15T11:09:56.947Z</time>
      </trkpt>
      <trkpt lat="42.01368" lon="19.51672">
        <ele>50.552494</ele>
        <time>2022-05-15T11:09:59.926Z</time>
      </trkpt>
      <trkpt lat="42.01379" lon="19.5167">
        <ele>50.687139</ele>
        <time>2022-05-15T11:10:03.949Z</time>
      </trkpt>
      <trkpt lat="42.01391" lon="19.51669">
        <ele>50.816923</ele>
        <time>2022-05-15T11:10:07.973Z</time>
      </trkpt>
      <trkpt lat="42.01401" lon="19.51668">
        <ele>50.939343</ele>
        <time>2022-05-15T11:10:11.939Z</time>
      </trkpt>
      <trkpt lat="42.01412" lon="19.51667">
        <ele>51.067439</ele>
        <time>2022-05-15T11:10:15.948Z</time>
      </trkpt>
      <trkpt lat="42.01424" lon="19.51667">
        <ele>51.196597</ele>
        <time>2022-05-15T11:10:19.920Z</time>
      </trkpt>
      <trkpt lat="42.01435" lon="19.51667">
        <ele>51.328052</ele>
        <time>2022-05-15T11:10:23.930Z</time>
      </trkpt>
      <trkpt lat="42.01447" lon="19.51667">
        <ele>51.461822</ele>
        <time>2022-05-15T11:10:27.932Z</time>
      </trkpt>
      <trkpt lat="42.01458" lon="19.51667">
        <ele>51.594438</ele>
        <time>2022-05-15T11:10:31.937Z</time>
      </trkpt>
      <trkpt lat="42.01469" lon="19.51667">
        <ele>51.718975</ele>
        <time>2022-05-15T11:10:35.952Z</time>
      </trkpt>
      <trkpt lat="42.0148" lon="19.51667">
        <ele>51.843556</ele>
        <time>2022-05-15T11:10:39.915Z</time>
      </trkpt>
      <trkpt lat="42.0149" lon="19.51669">
        <ele>51.963018</ele>
        <time>2022-05-15T11:10:43.943Z</time>
      </trkpt>
      <trkpt lat="42.01501" lon="19.5167">
        <ele>52.086639</ele>
        <time>2022-05-15T11:10:47.930Z</time>
      </trkpt>
      <trkpt lat="42.01512" lon="19.5167">
        <ele>52.323836</ele>
        <time>2022-05-15T11:10:51.931Z</time>
      </trkpt>
      <trkpt lat="42.01524" lon="19.51671">
        <ele>52.695532</ele>
        <time>2022-05-15T11:10:55.936Z</time>
      </trkpt>
      <trkpt lat="42.01535" lon="19.51672">
        <ele>53.050995</ele>
        <time>2022-05-15T11:10:59.932Z</time>
      </trkpt>
      <trkpt lat="42.01546" lon="19.51674">
        <ele>53.416965</ele>
        <time>2022-05-15T11:11:03.986Z</time>
      </trkpt>
      <trkpt lat="42.01557" lon="19.51675">
        <ele>53.782935</ele>
        <time>2022-05-15T11:11:07.920Z</time>
      </trkpt>
      <trkpt lat="42.01568" lon="19.51676">
        <ele>54.151931</ele>
        <time>2022-05-15T11:11:11.960Z</time>
      </trkpt>
      <trkpt lat="42.01579" lon="19.51677">
        <ele>54.510812</ele>
        <time>2022-05-15T11:11:15.938Z</time>
      </trkpt>
      <trkpt lat="42.0159" lon="19.51678">
        <ele>54.843391</ele>
        <time>2022-05-15T11:11:18.942Z</time>
      </trkpt>
      <trkpt lat="42.01602" lon="19.51679">
        <ele>55.240799</ele>
        <time>2022-05-15T11:11:21.922Z</time>
      </trkpt>
      <trkpt lat="42.01615" lon="19.5168">
        <ele>55.657602</ele>
        <time>2022-05-15T11:11:24.940Z</time>
      </trkpt>
      <trkpt lat="42.01627" lon="19.51681">
        <ele>56.071154</ele>
        <time>2022-05-15T11:11:27.948Z</time>
      </trkpt>
      <trkpt lat="42.0164" lon="19.51681">
        <ele>56.471936</ele>
        <time>2022-05-15T11:11:30.936Z</time>
      </trkpt>
      <trkpt lat="42.01651" lon="19.51682">
        <ele>56.856049</ele>
        <time>2022-05-15T11:11:33.921Z</time>
      </trkpt>
      <trkpt lat="42.01664" lon="19.51683">
        <ele>57.266578</ele>
        <time>2022-05-15T11:11:36.930Z</time>
      </trkpt>
      <trkpt lat="42.01676" lon="19.51684">
        <ele>57.673736</ele>
        <time>2022-05-15T11:11:39.943Z</time>
      </trkpt>
      <trkpt lat="42.01689" lon="19.51684">
        <ele>58.003704</ele>
        <time>2022-05-15T11:11:42.942Z</time>
      </trkpt>
      <trkpt lat="42.01701" lon="19.51686">
        <ele>57.896293</ele>
        <time>2022-05-15T11:11:45.960Z</time>
      </trkpt>
      <trkpt lat="42.01714" lon="19.51686">
        <ele>57.789037</ele>
        <time>2022-05-15T11:11:48.945Z</time>
      </trkpt>
      <trkpt lat="42.01727" lon="19.51687">
        <ele>57.683385</ele>
        <time>2022-05-15T11:11:51.943Z</time>
      </trkpt>
      <trkpt lat="42.01739" lon="19.51688">
        <ele>57.576815</ele>
        <time>2022-05-15T11:11:54.932Z</time>
      </trkpt>
      <trkpt lat="42.01752" lon="19.51689">
        <ele>57.470352</ele>
        <time>2022-05-15T11:11:57.930Z</time>
      </trkpt>
      <trkpt lat="42.01765" lon="19.5169">
        <ele>57.362056</ele>
        <time>2022-05-15T11:12:00.987Z</time>
      </trkpt>
      <trkpt lat="42.01778" lon="19.51691">
        <ele>57.252118</ele>
        <time>2022-05-15T11:12:03.984Z</time>
      </trkpt>
      <trkpt lat="42.01791" lon="19.51692">
        <ele>57.139612</ele>
        <time>2022-05-15T11:12:06.945Z</time>
      </trkpt>
      <trkpt lat="42.01804" lon="19.51694">
        <ele>57.027989</ele>
        <time>2022-05-15T11:12:09.947Z</time>
      </trkpt>
      <trkpt lat="42.01817" lon="19.51695">
        <ele>56.914641</ele>
        <time>2022-05-15T11:12:12.956Z</time>
      </trkpt>
      <trkpt lat="42.01831" lon="19.51696">
        <ele>56.801293</ele>
        <time>2022-05-15T11:12:15.928Z</time>
      </trkpt>
      <trkpt lat="42.01844" lon="19.51697">
        <ele>56.69055</ele>
        <time>2022-05-15T11:12:18.943Z</time>
      </trkpt>
      <trkpt lat="42.01857" lon="19.51699">
        <ele>56.581928</ele>
        <time>2022-05-15T11:12:21.935Z</time>
      </trkpt>
      <trkpt lat="42.01866" lon="19.517">
        <ele>56.504623</ele>
        <time>2022-05-15T11:12:23.942Z</time>
      </trkpt>
      <trkpt lat="42.01876" lon="19.51702">
        <ele>56.299481</ele>
        <time>2022-05-15T11:12:25.971Z</time>
      </trkpt>
      <trkpt lat="42.01886" lon="19.51704">
        <ele>56.078832</ele>
        <time>2022-05-15T11:12:27.929Z</time>
      </trkpt>
      <trkpt lat="42.01896" lon="19.51707">
        <ele>55.855179</ele>
        <time>2022-05-15T11:12:29.947Z</time>
      </trkpt>
      <trkpt lat="42.01906" lon="19.5171">
        <ele>55.628437</ele>
        <time>2022-05-15T11:12:31.948Z</time>
      </trkpt>
      <trkpt lat="42.01917" lon="19.51713">
        <ele>55.382596</ele>
        <time>2022-05-15T11:12:33.967Z</time>
      </trkpt>
      <trkpt lat="42.01929" lon="19.51717">
        <ele>55.120045</ele>
        <time>2022-05-15T11:12:35.945Z</time>
      </trkpt>
      <trkpt lat="42.0194" lon="19.51722">
        <ele>54.857199</ele>
        <time>2022-05-15T11:12:37.943Z</time>
      </trkpt>
      <trkpt lat="42.01952" lon="19.51728">
        <ele>54.589215</ele>
        <time>2022-05-15T11:12:39.949Z</time>
      </trkpt>
      <trkpt lat="42.01963" lon="19.51733">
        <ele>54.320719</ele>
        <time>2022-05-15T11:12:41.939Z</time>
      </trkpt>
      <trkpt lat="42.01975" lon="19.51738">
        <ele>54.059918</ele>
        <time>2022-05-15T11:12:43.938Z</time>
      </trkpt>
      <trkpt lat="42.01986" lon="19.51744">
        <ele>53.799118</ele>
        <time>2022-05-15T11:12:45.942Z</time>
      </trkpt>
      <trkpt lat="42.01997" lon="19.51749">
        <ele>53.536656</ele>
        <time>2022-05-15T11:12:47.968Z</time>
      </trkpt>
      <trkpt lat="42.02009" lon="19.51755">
        <ele>53.275855</ele>
        <time>2022-05-15T11:12:49.942Z</time>
      </trkpt>
      <trkpt lat="42.02019" lon="19.5176">
        <ele>53.028974</ele>
        <time>2022-05-15T11:12:51.939Z</time>
      </trkpt>
      <trkpt lat="42.0203" lon="19.51765">
        <ele>52.785731</ele>
        <time>2022-05-15T11:12:53.919Z</time>
      </trkpt>
      <trkpt lat="42.02041" lon="19.51769">
        <ele>52.559106</ele>
        <time>2022-05-15T11:12:55.950Z</time>
      </trkpt>
      <trkpt lat="42.02051" lon="19.51773">
        <ele>52.414809</ele>
        <time>2022-05-15T11:12:57.951Z</time>
      </trkpt>
      <trkpt lat="42.02061" lon="19.51777">
        <ele>52.2742</ele>
        <time>2022-05-15T11:12:59.931Z</time>
      </trkpt>
      <trkpt lat="42.0207" lon="19.51781">
        <ele>52.149134</ele>
        <time>2022-05-15T11:13:01.953Z</time>
      </trkpt>
      <trkpt lat="42.0208" lon="19.51784">
        <ele>52.018302</ele>
        <time>2022-05-15T11:13:03.943Z</time>
      </trkpt>
      <trkpt lat="42.02089" lon="19.51786">
        <ele>51.890022</ele>
        <time>2022-05-15T11:13:05.948Z</time>
      </trkpt>
      <trkpt lat="42.02102" lon="19.51789">
        <ele>51.712333</ele>
        <time>2022-05-15T11:13:08.946Z</time>
      </trkpt>
      <trkpt lat="42.02115" lon="19.51791">
        <ele>51.53759</ele>
        <time>2022-05-15T11:13:11.928Z</time>
      </trkpt>
      <trkpt lat="42.02128" lon="19.51793">
        <ele>51.366263</ele>
        <time>2022-05-15T11:13:14.948Z</time>
      </trkpt>
      <trkpt lat="42.02141" lon="19.51795">
        <ele>51.191042</ele>
        <time>2022-05-15T11:13:17.950Z</time>
      </trkpt>
      <trkpt lat="42.02154" lon="19.51797">
        <ele>51.01182</ele>
        <time>2022-05-15T11:13:20.980Z</time>
      </trkpt>
      <trkpt lat="42.02167" lon="19.51798">
        <ele>50.832695</ele>
        <time>2022-05-15T11:13:23.941Z</time>
      </trkpt>
      <trkpt lat="42.02176" lon="19.518">
        <ele>50.711434</ele>
        <time>2022-05-15T11:13:25.943Z</time>
      </trkpt>
      <trkpt lat="42.02185" lon="19.51801">
        <ele>50.58884</ele>
        <time>2022-05-15T11:13:27.954Z</time>
      </trkpt>
      <trkpt lat="42.02195" lon="19.51802">
        <ele>50.462038</ele>
        <time>2022-05-15T11:13:29.950Z</time>
      </trkpt>
      <trkpt lat="42.02204" lon="19.51804">
        <ele>50.339116</ele>
        <time>2022-05-15T11:13:31.928Z</time>
      </trkpt>
      <trkpt lat="42.02213" lon="19.51806">
        <ele>50.212513</ele>
        <time>2022-05-15T11:13:33.944Z</time>
      </trkpt>
      <trkpt lat="42.02222" lon="19.51809">
        <ele>50.167372</ele>
        <time>2022-05-15T11:13:35.931Z</time>
      </trkpt>
      <trkpt lat="42.02232" lon="19.51812">
        <ele>50.155187</ele>
        <time>2022-05-15T11:13:37.964Z</time>
      </trkpt>
      <trkpt lat="42.02241" lon="19.51815">
        <ele>50.143394</ele>
        <time>2022-05-15T11:13:39.947Z</time>
      </trkpt>
      <trkpt lat="42.02249" lon="19.51819">
        <ele>50.131967</ele>
        <time>2022-05-15T11:13:41.930Z</time>
      </trkpt>
      <trkpt lat="42.02262" lon="19.51824">
        <ele>50.115084</ele>
        <time>2022-05-15T11:13:44.941Z</time>
      </trkpt>
      <trkpt lat="42.02274" lon="19.5183">
        <ele>50.098208</ele>
        <time>2022-05-15T11:13:47.945Z</time>
      </trkpt>
      <trkpt lat="42.02287" lon="19.51835">
        <ele>50.081844</ele>
        <time>2022-05-15T11:13:50.957Z</time>
      </trkpt>
      <trkpt lat="42.02299" lon="19.51841">
        <ele>50.065601</ele>
        <time>2022-05-15T11:13:53.938Z</time>
      </trkpt>
      <trkpt lat="42.02311" lon="19.51846">
        <ele>50.049207</ele>
        <time>2022-05-15T11:13:56.943Z</time>
      </trkpt>
      <trkpt lat="42.02323" lon="19.51852">
        <ele>50.033537</ele>
        <time>2022-05-15T11:13:59.937Z</time>
      </trkpt>
      <trkpt lat="42.02334" lon="19.51856">
        <ele>50.018724</ele>
        <time>2022-05-15T11:14:02.928Z</time>
      </trkpt>
      <trkpt lat="42.02345" lon="19.5186">
        <ele>50.003446</ele>
        <time>2022-05-15T11:14:05.942Z</time>
      </trkpt>
      <trkpt lat="42.02357" lon="19.51863">
        <ele>49.988347</ele>
        <time>2022-05-15T11:14:08.947Z</time>
      </trkpt>
      <trkpt lat="42.02368" lon="19.51867">
        <ele>49.973879</ele>
        <time>2022-05-15T11:14:11.945Z</time>
      </trkpt>
      <trkpt lat="42.02379" lon="19.5187">
        <ele>49.95948</ele>
        <time>2022-05-15T11:14:14.937Z</time>
      </trkpt>
      <trkpt lat="42.0239" lon="19.51873">
        <ele>49.971055</ele>
        <time>2022-05-15T11:14:17.929Z</time>
      </trkpt>
      <trkpt lat="42.02401" lon="19.51876">
        <ele>50.152252</ele>
        <time>2022-05-15T11:14:20.947Z</time>
      </trkpt>
      <trkpt lat="42.02412" lon="19.51878">
        <ele>50.328579</ele>
        <time>2022-05-15T11:14:23.938Z</time>
      </trkpt>
      <trkpt lat="42.02423" lon="19.51881">
        <ele>50.490506</ele>
        <time>2022-05-15T11:14:26.949Z</time>
      </trkpt>
      <trkpt lat="42.02433" lon="19.51883">
        <ele>50.650122</ele>
        <time>2022-05-15T11:14:29.926Z</time>
      </trkpt>
      <trkpt lat="42.02443" lon="19.51885">
        <ele>50.82052</ele>
        <time>2022-05-15T11:14:32.999Z</time>
      </trkpt>
      <trkpt lat="42.02454" lon="19.51887">
        <ele>50.995929</ele>
        <time>2022-05-15T11:14:35.945Z</time>
      </trkpt>
      <trkpt lat="42.02465" lon="19.51888">
        <ele>51.173146</ele>
        <time>2022-05-15T11:14:38.994Z</time>
      </trkpt>
      <trkpt lat="42.02477" lon="19.51888">
        <ele>51.362696</ele>
        <time>2022-05-15T11:14:41.953Z</time>
      </trkpt>
      <trkpt lat="42.02489" lon="19.51888">
        <ele>51.55217</ele>
        <time>2022-05-15T11:14:44.948Z</time>
      </trkpt>
      <trkpt lat="42.02501" lon="19.51887">
        <ele>51.740668</ele>
        <time>2022-05-15T11:14:47.942Z</time>
      </trkpt>
      <trkpt lat="42.02513" lon="19.51884">
        <ele>51.931198</ele>
        <time>2022-05-15T11:14:50.936Z</time>
      </trkpt>
      <trkpt lat="42.02525" lon="19.5188">
        <ele>52.120549</ele>
        <time>2022-05-15T11:14:53.942Z</time>
      </trkpt>
      <trkpt lat="42.02536" lon="19.51874">
        <ele>52.311485</ele>
        <time>2022-05-15T11:14:56.949Z</time>
      </trkpt>
      <trkpt lat="42.02547" lon="19.51867">
        <ele>52.497893</ele>
        <time>2022-05-15T11:14:59.940Z</time>
      </trkpt>
      <trkpt lat="42.02557" lon="19.51859">
        <ele>52.679455</ele>
        <time>2022-05-15T11:15:02.936Z</time>
      </trkpt>
      <trkpt lat="42.02566" lon="19.51849">
        <ele>52.698249</ele>
        <time>2022-05-15T11:15:05.942Z</time>
      </trkpt>
      <trkpt lat="42.02576" lon="19.51837">
        <ele>52.495161</ele>
        <time>2022-05-15T11:15:08.958Z</time>
      </trkpt>
      <trkpt lat="42.02582" lon="19.51828">
        <ele>52.349397</ele>
        <time>2022-05-15T11:15:10.977Z</time>
      </trkpt>
      <trkpt lat="42.02591" lon="19.51815">
        <ele>52.138085</ele>
        <time>2022-05-15T11:15:13.938Z</time>
      </trkpt>
      <trkpt lat="42.02597" lon="19.51805">
        <ele>51.990091</ele>
        <time>2022-05-15T11:15:15.952Z</time>
      </trkpt>
      <trkpt lat="42.02602" lon="19.51795">
        <ele>51.843098</ele>
        <time>2022-05-15T11:15:17.956Z</time>
      </trkpt>
      <trkpt lat="42.02608" lon="19.51785">
        <ele>51.697123</ele>
        <time>2022-05-15T11:15:19.931Z</time>
      </trkpt>
      <trkpt lat="42.02613" lon="19.51775">
        <ele>51.552132</ele>
        <time>2022-05-15T11:15:21.934Z</time>
      </trkpt>
      <trkpt lat="42.02619" lon="19.51765">
        <ele>51.402346</ele>
        <time>2022-05-15T11:15:23.941Z</time>
      </trkpt>
      <trkpt lat="42.02624" lon="19.51754">
        <ele>51.247872</ele>
        <time>2022-05-15T11:15:25.949Z</time>
      </trkpt>
      <trkpt lat="42.0263" lon="19.51744">
        <ele>51.094192</ele>
        <time>2022-05-15T11:15:27.932Z</time>
      </trkpt>
      <trkpt lat="42.02635" lon="19.51733">
        <ele>50.94156</ele>
        <time>2022-05-15T11:15:29.940Z</time>
      </trkpt>
      <trkpt lat="42.0264" lon="19.51723">
        <ele>50.798431</ele>
        <time>2022-05-15T11:15:31.944Z</time>
      </trkpt>
      <trkpt lat="42.02646" lon="19.51712">
        <ele>50.647361</ele>
        <time>2022-05-15T11:15:33.937Z</time>
      </trkpt>
      <trkpt lat="42.02651" lon="19.51702">
        <ele>50.495547</ele>
        <time>2022-05-15T11:15:35.948Z</time>
      </trkpt>
      <trkpt lat="42.02656" lon="19.51691">
        <ele>50.345149</ele>
        <time>2022-05-15T11:15:37.951Z</time>
      </trkpt>
      <trkpt lat="42.02661" lon="19.5168">
        <ele>50.196067</ele>
        <time>2022-05-15T11:15:39.944Z</time>
      </trkpt>
      <trkpt lat="42.02665" lon="19.51669">
        <ele>50.046025</ele>
        <time>2022-05-15T11:15:41.939Z</time>
      </trkpt>
      <trkpt lat="42.0267" lon="19.51658">
        <ele>49.920969</ele>
        <time>2022-05-15T11:15:43.970Z</time>
      </trkpt>
      <trkpt lat="42.02675" lon="19.51647">
        <ele>49.884943</ele>
        <time>2022-05-15T11:15:45.939Z</time>
      </trkpt>
      <trkpt lat="42.02679" lon="19.51636">
        <ele>49.848665</ele>
        <time>2022-05-15T11:15:47.929Z</time>
      </trkpt>
      <trkpt lat="42.02684" lon="19.51625">
        <ele>49.81144</ele>
        <time>2022-05-15T11:15:49.934Z</time>
      </trkpt>
      <trkpt lat="42.02688" lon="19.51614">
        <ele>49.77503</ele>
        <time>2022-05-15T11:15:51.935Z</time>
      </trkpt>
      <trkpt lat="42.02693" lon="19.51603">
        <ele>49.738172</ele>
        <time>2022-05-15T11:15:53.942Z</time>
      </trkpt>
      <trkpt lat="42.02698" lon="19.51592">
        <ele>49.701262</ele>
        <time>2022-05-15T11:15:55.967Z</time>
      </trkpt>
      <trkpt lat="42.02702" lon="19.51581">
        <ele>49.665424</ele>
        <time>2022-05-15T11:15:57.940Z</time>
      </trkpt>
      <trkpt lat="42.02706" lon="19.5157">
        <ele>49.630596</ele>
        <time>2022-05-15T11:15:59.941Z</time>
      </trkpt>
      <trkpt lat="42.02711" lon="19.51559">
        <ele>49.595265</ele>
        <time>2022-05-15T11:16:01.953Z</time>
      </trkpt>
      <trkpt lat="42.02715" lon="19.51548">
        <ele>49.558797</ele>
        <time>2022-05-15T11:16:03.934Z</time>
      </trkpt>
      <trkpt lat="42.0272" lon="19.51538">
        <ele>49.523213</ele>
        <time>2022-05-15T11:16:05.940Z</time>
      </trkpt>
      <trkpt lat="42.02724" lon="19.51527">
        <ele>49.486997</ele>
        <time>2022-05-15T11:16:07.929Z</time>
      </trkpt>
      <trkpt lat="42.02729" lon="19.51516">
        <ele>49.451224</ele>
        <time>2022-05-15T11:16:09.939Z</time>
      </trkpt>
      <trkpt lat="42.02733" lon="19.51505">
        <ele>49.415008</ele>
        <time>2022-05-15T11:16:11.971Z</time>
      </trkpt>
      <trkpt lat="42.02738" lon="19.51494">
        <ele>49.380117</ele>
        <time>2022-05-15T11:16:13.941Z</time>
      </trkpt>
      <trkpt lat="42.02744" lon="19.51479">
        <ele>49.328445</ele>
        <time>2022-05-15T11:16:16.962Z</time>
      </trkpt>
      <trkpt lat="42.02751" lon="19.51464">
        <ele>49.278413</ele>
        <time>2022-05-15T11:16:19.952Z</time>
      </trkpt>
      <trkpt lat="42.02757" lon="19.51448">
        <ele>49.234836</ele>
        <time>2022-05-15T11:16:22.932Z</time>
      </trkpt>
      <trkpt lat="42.02763" lon="19.51433">
        <ele>49.392984</ele>
        <time>2022-05-15T11:16:25.923Z</time>
      </trkpt>
      <trkpt lat="42.02768" lon="19.51422">
        <ele>49.500257</ele>
        <time>2022-05-15T11:16:27.943Z</time>
      </trkpt>
      <trkpt lat="42.02773" lon="19.51412">
        <ele>49.610281</ele>
        <time>2022-05-15T11:16:29.936Z</time>
      </trkpt>
      <trkpt lat="42.02778" lon="19.51401">
        <ele>49.717414</ele>
        <time>2022-05-15T11:16:31.938Z</time>
      </trkpt>
      <trkpt lat="42.02785" lon="19.51387">
        <ele>49.874863</ele>
        <time>2022-05-15T11:16:34.928Z</time>
      </trkpt>
      <trkpt lat="42.02792" lon="19.51372">
        <ele>50.035113</ele>
        <time>2022-05-15T11:16:37.945Z</time>
      </trkpt>
      <trkpt lat="42.028" lon="19.51358">
        <ele>50.181684</ele>
        <time>2022-05-15T11:16:40.932Z</time>
      </trkpt>
      <trkpt lat="42.02807" lon="19.51345">
        <ele>50.330378</ele>
        <time>2022-05-15T11:16:43.925Z</time>
      </trkpt>
      <trkpt lat="42.02815" lon="19.51331">
        <ele>50.484787</ele>
        <time>2022-05-15T11:16:46.940Z</time>
      </trkpt>
      <trkpt lat="42.02823" lon="19.51317">
        <ele>50.639969</ele>
        <time>2022-05-15T11:16:49.937Z</time>
      </trkpt>
      <trkpt lat="42.02829" lon="19.51308">
        <ele>50.748199</ele>
        <time>2022-05-15T11:16:51.940Z</time>
      </trkpt>
      <trkpt lat="42.02838" lon="19.51294">
        <ele>50.911509</ele>
        <time>2022-05-15T11:16:54.939Z</time>
      </trkpt>
      <trkpt lat="42.02844" lon="19.51285">
        <ele>51.022404</ele>
        <time>2022-05-15T11:16:56.947Z</time>
      </trkpt>
      <trkpt lat="42.0285" lon="19.51275">
        <ele>51.135412</ele>
        <time>2022-05-15T11:16:58.981Z</time>
      </trkpt>
      <trkpt lat="42.02856" lon="19.51266">
        <ele>51.242588</ele>
        <time>2022-05-15T11:17:00.940Z</time>
      </trkpt>
      <trkpt lat="42.02863" lon="19.51257">
        <ele>51.351103</ele>
        <time>2022-05-15T11:17:02.931Z</time>
      </trkpt>
      <trkpt lat="42.02869" lon="19.51249">
        <ele>51.35249</ele>
        <time>2022-05-15T11:17:04.954Z</time>
      </trkpt>
      <trkpt lat="42.02876" lon="19.5124">
        <ele>51.323556</ele>
        <time>2022-05-15T11:17:06.938Z</time>
      </trkpt>
      <trkpt lat="42.02882" lon="19.51232">
        <ele>51.295172</ele>
        <time>2022-05-15T11:17:08.960Z</time>
      </trkpt>
      <trkpt lat="42.02889" lon="19.51223">
        <ele>51.266722</ele>
        <time>2022-05-15T11:17:10.954Z</time>
      </trkpt>
      <trkpt lat="42.02899" lon="19.51211">
        <ele>51.224681</ele>
        <time>2022-05-15T11:17:13.938Z</time>
      </trkpt>
      <trkpt lat="42.02909" lon="19.51199">
        <ele>51.182953</ele>
        <time>2022-05-15T11:17:16.942Z</time>
      </trkpt>
      <trkpt lat="42.02919" lon="19.51187">
        <ele>51.14138</ele>
        <time>2022-05-15T11:17:19.951Z</time>
      </trkpt>
      <trkpt lat="42.02929" lon="19.51175">
        <ele>51.099794</ele>
        <time>2022-05-15T11:17:22.933Z</time>
      </trkpt>
      <trkpt lat="42.02939" lon="19.51164">
        <ele>51.057905</ele>
        <time>2022-05-15T11:17:25.941Z</time>
      </trkpt>
      <trkpt lat="42.02946" lon="19.51156">
        <ele>51.029293</ele>
        <time>2022-05-15T11:17:27.936Z</time>
      </trkpt>
      <trkpt lat="42.02956" lon="19.51144">
        <ele>50.98764</ele>
        <time>2022-05-15T11:17:30.938Z</time>
      </trkpt>
      <trkpt lat="42.02966" lon="19.51132">
        <ele>50.945751</ele>
        <time>2022-05-15T11:17:33.939Z</time>
      </trkpt>
      <trkpt lat="42.02973" lon="19.51124">
        <ele>50.917544</ele>
        <time>2022-05-15T11:17:35.935Z</time>
      </trkpt>
      <trkpt lat="42.0298" lon="19.51116">
        <ele>50.889171</ele>
        <time>2022-05-15T11:17:37.943Z</time>
      </trkpt>
      <trkpt lat="42.02986" lon="19.51108">
        <ele>50.860651</ele>
        <time>2022-05-15T11:17:39.943Z</time>
      </trkpt>
      <trkpt lat="42.02993" lon="19.511">
        <ele>50.832361</ele>
        <time>2022-05-15T11:17:41.923Z</time>
      </trkpt>
      <trkpt lat="42.03002" lon="19.51087">
        <ele>50.74792</ele>
        <time>2022-05-15T11:17:44.935Z</time>
      </trkpt>
      <trkpt lat="42.03011" lon="19.51074">
        <ele>50.613171</ele>
        <time>2022-05-15T11:17:47.948Z</time>
      </trkpt>
      <trkpt lat="42.03019" lon="19.51061">
        <ele>50.480774</ele>
        <time>2022-05-15T11:17:50.936Z</time>
      </trkpt>
      <trkpt lat="42.03027" lon="19.51047">
        <ele>50.348605</ele>
        <time>2022-05-15T11:17:53.950Z</time>
      </trkpt>
      <trkpt lat="42.03035" lon="19.51033">
        <ele>50.213997</ele>
        <time>2022-05-15T11:17:56.968Z</time>
      </trkpt>
      <trkpt lat="42.03042" lon="19.51018">
        <ele>50.077387</ele>
        <time>2022-05-15T11:17:59.937Z</time>
      </trkpt>
      <trkpt lat="42.03049" lon="19.51003">
        <ele>49.942913</ele>
        <time>2022-05-15T11:18:02.941Z</time>
      </trkpt>
      <trkpt lat="42.03055" lon="19.50988">
        <ele>49.811344</ele>
        <time>2022-05-15T11:18:05.939Z</time>
      </trkpt>
      <trkpt lat="42.03061" lon="19.50973">
        <ele>49.679477</ele>
        <time>2022-05-15T11:18:08.950Z</time>
      </trkpt>
      <trkpt lat="42.03067" lon="19.50957">
        <ele>49.544012</ele>
        <time>2022-05-15T11:18:11.947Z</time>
      </trkpt>
      <trkpt lat="42.03073" lon="19.50941">
        <ele>49.410902</ele>
        <time>2022-05-15T11:18:14.942Z</time>
      </trkpt>
      <trkpt lat="42.03078" lon="19.50925">
        <ele>49.281407</ele>
        <time>2022-05-15T11:18:17.947Z</time>
      </trkpt>
      <trkpt lat="42.03082" lon="19.50909">
        <ele>49.147057</ele>
        <time>2022-05-15T11:18:20.939Z</time>
      </trkpt>
      <trkpt lat="42.03085" lon="19.50898">
        <ele>49.054531</ele>
        <time>2022-05-15T11:18:22.946Z</time>
      </trkpt>
      <trkpt lat="42.0309" lon="19.5088">
        <ele>48.95811</ele>
        <time>2022-05-15T11:18:25.932Z</time>
      </trkpt>
      <trkpt lat="42.03093" lon="19.50869">
        <ele>48.942904</ele>
        <time>2022-05-15T11:18:27.934Z</time>
      </trkpt>
      <trkpt lat="42.03096" lon="19.50858">
        <ele>48.927696</ele>
        <time>2022-05-15T11:18:29.948Z</time>
      </trkpt>
      <trkpt lat="42.03099" lon="19.50846">
        <ele>48.912022</ele>
        <time>2022-05-15T11:18:31.942Z</time>
      </trkpt>
      <trkpt lat="42.03102" lon="19.50834">
        <ele>48.896519</ele>
        <time>2022-05-15T11:18:33.964Z</time>
      </trkpt>
      <trkpt lat="42.03105" lon="19.50822">
        <ele>48.880885</ele>
        <time>2022-05-15T11:18:35.955Z</time>
      </trkpt>
      <trkpt lat="42.03108" lon="19.5081">
        <ele>48.865445</ele>
        <time>2022-05-15T11:18:37.946Z</time>
      </trkpt>
      <trkpt lat="42.03113" lon="19.50793">
        <ele>48.84313</ele>
        <time>2022-05-15T11:18:40.939Z</time>
      </trkpt>
      <trkpt lat="42.03116" lon="19.50782">
        <ele>48.828153</ele>
        <time>2022-05-15T11:18:42.920Z</time>
      </trkpt>
      <trkpt lat="42.03119" lon="19.5077">
        <ele>48.812305</ele>
        <time>2022-05-15T11:18:44.970Z</time>
      </trkpt>
      <trkpt lat="42.03122" lon="19.50758">
        <ele>48.797038</ele>
        <time>2022-05-15T11:18:46.960Z</time>
      </trkpt>
      <trkpt lat="42.03125" lon="19.50746">
        <ele>48.781481</ele>
        <time>2022-05-15T11:18:48.943Z</time>
      </trkpt>
      <trkpt lat="42.03128" lon="19.50735">
        <ele>48.765692</ele>
        <time>2022-05-15T11:18:50.946Z</time>
      </trkpt>
      <trkpt lat="42.03131" lon="19.50723">
        <ele>48.750252</ele>
        <time>2022-05-15T11:18:52.930Z</time>
      </trkpt>
      <trkpt lat="42.03136" lon="19.50706">
        <ele>48.727993</ele>
        <time>2022-05-15T11:18:55.948Z</time>
      </trkpt>
      <trkpt lat="42.0314" lon="19.50689">
        <ele>48.706314</ele>
        <time>2022-05-15T11:18:58.967Z</time>
      </trkpt>
      <trkpt lat="42.03144" lon="19.50673">
        <ele>48.684281</ele>
        <time>2022-05-15T11:19:01.935Z</time>
      </trkpt>
      <trkpt lat="42.03148" lon="19.50656">
        <ele>48.645633</ele>
        <time>2022-05-15T11:19:04.925Z</time>
      </trkpt>
      <trkpt lat="42.03151" lon="19.50639">
        <ele>48.488939</ele>
        <time>2022-05-15T11:19:07.950Z</time>
      </trkpt>
      <trkpt lat="42.03154" lon="19.50623">
        <ele>48.332</ele>
        <time>2022-05-15T11:19:10.941Z</time>
      </trkpt>
      <trkpt lat="42.03157" lon="19.50605">
        <ele>48.17023</ele>
        <time>2022-05-15T11:19:13.973Z</time>
      </trkpt>
      <trkpt lat="42.03159" lon="19.50593">
        <ele>48.055263</ele>
        <time>2022-05-15T11:19:15.936Z</time>
      </trkpt>
      <trkpt lat="42.0316" lon="19.5058">
        <ele>47.937772</ele>
        <time>2022-05-15T11:19:17.941Z</time>
      </trkpt>
      <trkpt lat="42.03161" lon="19.50568">
        <ele>47.821676</ele>
        <time>2022-05-15T11:19:19.923Z</time>
      </trkpt>
      <trkpt lat="42.03162" lon="19.50555">
        <ele>47.702198</ele>
        <time>2022-05-15T11:19:21.947Z</time>
      </trkpt>
      <trkpt lat="42.03163" lon="19.50542">
        <ele>47.581003</ele>
        <time>2022-05-15T11:19:23.970Z</time>
      </trkpt>
      <trkpt lat="42.03163" lon="19.50528">
        <ele>47.455338</ele>
        <time>2022-05-15T11:19:25.937Z</time>
      </trkpt>
      <trkpt lat="42.03164" lon="19.50514">
        <ele>47.330732</ele>
        <time>2022-05-15T11:19:27.947Z</time>
      </trkpt>
      <trkpt lat="42.03164" lon="19.50501">
        <ele>47.21161</ele>
        <time>2022-05-15T11:19:29.943Z</time>
      </trkpt>
      <trkpt lat="42.03165" lon="19.50488">
        <ele>47.088931</ele>
        <time>2022-05-15T11:19:31.948Z</time>
      </trkpt>
      <trkpt lat="42.03165" lon="19.50475">
        <ele>46.967067</ele>
        <time>2022-05-15T11:19:33.958Z</time>
      </trkpt>
      <trkpt lat="42.03166" lon="19.50461">
        <ele>46.846677</ele>
        <time>2022-05-15T11:19:35.973Z</time>
      </trkpt>
      <trkpt lat="42.03167" lon="19.50448">
        <ele>46.725258</ele>
        <time>2022-05-15T11:19:37.940Z</time>
      </trkpt>
      <trkpt lat="42.03168" lon="19.50435">
        <ele>46.607601</ele>
        <time>2022-05-15T11:19:39.946Z</time>
      </trkpt>
      <trkpt lat="42.0317" lon="19.50423">
        <ele>46.488388</ele>
        <time>2022-05-15T11:19:41.954Z</time>
      </trkpt>
      <trkpt lat="42.03172" lon="19.5041">
        <ele>46.556466</ele>
        <time>2022-05-15T11:19:43.915Z</time>
      </trkpt>
      <trkpt lat="42.03175" lon="19.50397">
        <ele>46.724974</ele>
        <time>2022-05-15T11:19:45.933Z</time>
      </trkpt>
      <trkpt lat="42.03179" lon="19.50385">
        <ele>46.890929</ele>
        <time>2022-05-15T11:19:47.950Z</time>
      </trkpt>
      <trkpt lat="42.03183" lon="19.50372">
        <ele>47.058272</ele>
        <time>2022-05-15T11:19:49.947Z</time>
      </trkpt>
      <trkpt lat="42.03187" lon="19.5036">
        <ele>47.225894</ele>
        <time>2022-05-15T11:19:51.986Z</time>
      </trkpt>
      <trkpt lat="42.03193" lon="19.50348">
        <ele>47.40361</ele>
        <time>2022-05-15T11:19:53.932Z</time>
      </trkpt>
      <trkpt lat="42.03199" lon="19.50337">
        <ele>47.575601</ele>
        <time>2022-05-15T11:19:56.030Z</time>
      </trkpt>
      <trkpt lat="42.03205" lon="19.50326">
        <ele>47.74278</ele>
        <time>2022-05-15T11:19:57.940Z</time>
      </trkpt>
      <trkpt lat="42.03212" lon="19.50316">
        <ele>47.907653</ele>
        <time>2022-05-15T11:19:59.930Z</time>
      </trkpt>
      <trkpt lat="42.03219" lon="19.50308">
        <ele>48.059386</ele>
        <time>2022-05-15T11:20:01.937Z</time>
      </trkpt>
      <trkpt lat="42.03229" lon="19.50297">
        <ele>48.28548</ele>
        <time>2022-05-15T11:20:04.932Z</time>
      </trkpt>
      <trkpt lat="42.03237" lon="19.50289">
        <ele>48.446816</ele>
        <time>2022-05-15T11:20:06.931Z</time>
      </trkpt>
      <trkpt lat="42.03245" lon="19.50281">
        <ele>48.615502</ele>
        <time>2022-05-15T11:20:08.948Z</time>
      </trkpt>
      <trkpt lat="42.03253" lon="19.50274">
        <ele>48.771738</ele>
        <time>2022-05-15T11:20:10.944Z</time>
      </trkpt>
      <trkpt lat="42.03264" lon="19.50263">
        <ele>48.999893</ele>
        <time>2022-05-15T11:20:13.931Z</time>
      </trkpt>
      <trkpt lat="42.03272" lon="19.50256">
        <ele>49.1562</ele>
        <time>2022-05-15T11:20:15.966Z</time>
      </trkpt>
      <trkpt lat="42.03283" lon="19.50246">
        <ele>49.377396</ele>
        <time>2022-05-15T11:20:18.944Z</time>
      </trkpt>
      <trkpt lat="42.03294" lon="19.50236">
        <ele>49.676129</ele>
        <time>2022-05-15T11:20:21.935Z</time>
      </trkpt>
      <trkpt lat="42.03304" lon="19.50227">
        <ele>49.99819</ele>
        <time>2022-05-15T11:20:24.978Z</time>
      </trkpt>
      <trkpt lat="42.03314" lon="19.50218">
        <ele>50.300291</ele>
        <time>2022-05-15T11:20:27.948Z</time>
      </trkpt>
      <trkpt lat="42.03325" lon="19.50208">
        <ele>50.620195</ele>
        <time>2022-05-15T11:20:30.945Z</time>
      </trkpt>
      <trkpt lat="42.03336" lon="19.50199">
        <ele>50.961218</ele>
        <time>2022-05-15T11:20:33.932Z</time>
      </trkpt>
      <trkpt lat="42.03347" lon="19.50189">
        <ele>51.285331</ele>
        <time>2022-05-15T11:20:36.927Z</time>
      </trkpt>
      <trkpt lat="42.03358" lon="19.50179">
        <ele>51.613628</ele>
        <time>2022-05-15T11:20:39.949Z</time>
      </trkpt>
      <trkpt lat="42.03366" lon="19.50172">
        <ele>51.847528</ele>
        <time>2022-05-15T11:20:41.919Z</time>
      </trkpt>
      <trkpt lat="42.03373" lon="19.50165">
        <ele>52.082523</ele>
        <time>2022-05-15T11:20:43.939Z</time>
      </trkpt>
      <trkpt lat="42.03381" lon="19.50159">
        <ele>52.312243</ele>
        <time>2022-05-15T11:20:45.919Z</time>
      </trkpt>
      <trkpt lat="42.03392" lon="19.50149">
        <ele>52.644758</ele>
        <time>2022-05-15T11:20:48.965Z</time>
      </trkpt>
      <trkpt lat="42.03403" lon="19.50139">
        <ele>52.986688</ele>
        <time>2022-05-15T11:20:51.942Z</time>
      </trkpt>
      <trkpt lat="42.03414" lon="19.50129">
        <ele>53.31813</ele>
        <time>2022-05-15T11:20:54.928Z</time>
      </trkpt>
      <trkpt lat="42.03421" lon="19.50122">
        <ele>53.548883</ele>
        <time>2022-05-15T11:20:56.946Z</time>
      </trkpt>
      <trkpt lat="42.03429" lon="19.50115">
        <ele>53.782782</ele>
        <time>2022-05-15T11:20:58.939Z</time>
      </trkpt>
      <trkpt lat="42.03437" lon="19.50108">
        <ele>53.998666</ele>
        <time>2022-05-15T11:21:00.947Z</time>
      </trkpt>
      <trkpt lat="42.03445" lon="19.50101">
        <ele>54.038154</ele>
        <time>2022-05-15T11:21:02.940Z</time>
      </trkpt>
      <trkpt lat="42.03455" lon="19.50091">
        <ele>54.093497</ele>
        <time>2022-05-15T11:21:05.952Z</time>
      </trkpt>
      <trkpt lat="42.03465" lon="19.50083">
        <ele>54.142671</ele>
        <time>2022-05-15T11:21:08.972Z</time>
      </trkpt>
      <trkpt lat="42.03475" lon="19.50074">
        <ele>54.194172</ele>
        <time>2022-05-15T11:21:11.938Z</time>
      </trkpt>
      <trkpt lat="42.03487" lon="19.50064">
        <ele>54.251118</ele>
        <time>2022-05-15T11:21:14.949Z</time>
      </trkpt>
      <trkpt lat="42.03498" lon="19.50055">
        <ele>54.307178</ele>
        <time>2022-05-15T11:21:17.935Z</time>
      </trkpt>
      <trkpt lat="42.03509" lon="19.50046">
        <ele>54.362733</ele>
        <time>2022-05-15T11:21:20.938Z</time>
      </trkpt>
      <trkpt lat="42.0352" lon="19.50036">
        <ele>54.419839</ele>
        <time>2022-05-15T11:21:23.952Z</time>
      </trkpt>
      <trkpt lat="42.03528" lon="19.50029">
        <ele>54.458967</ele>
        <time>2022-05-15T11:21:25.945Z</time>
      </trkpt>
      <trkpt lat="42.03539" lon="19.50019">
        <ele>54.51572</ele>
        <time>2022-05-15T11:21:28.947Z</time>
      </trkpt>
      <trkpt lat="42.03547" lon="19.50011">
        <ele>54.55661</ele>
        <time>2022-05-15T11:21:30.946Z</time>
      </trkpt>
      <trkpt lat="42.03555" lon="19.50004">
        <ele>54.599968</ele>
        <time>2022-05-15T11:21:32.908Z</time>
      </trkpt>
      <trkpt lat="42.03563" lon="19.49997">
        <ele>54.638919</ele>
        <time>2022-05-15T11:21:34.943Z</time>
      </trkpt>
      <trkpt lat="42.03571" lon="19.4999">
        <ele>54.67928</ele>
        <time>2022-05-15T11:21:36.928Z</time>
      </trkpt>
      <trkpt lat="42.03578" lon="19.49982">
        <ele>54.719298</ele>
        <time>2022-05-15T11:21:38.961Z</time>
      </trkpt>
      <trkpt lat="42.03589" lon="19.49973">
        <ele>54.711419</ele>
        <time>2022-05-15T11:21:41.938Z</time>
      </trkpt>
      <trkpt lat="42.036" lon="19.49963">
        <ele>54.554666</ele>
        <time>2022-05-15T11:21:44.939Z</time>
      </trkpt>
      <trkpt lat="42.0361" lon="19.49953">
        <ele>54.394259</ele>
        <time>2022-05-15T11:21:47.964Z</time>
      </trkpt>
      <trkpt lat="42.03621" lon="19.49944">
        <ele>54.231777</ele>
        <time>2022-05-15T11:21:50.944Z</time>
      </trkpt>
      <trkpt lat="42.03632" lon="19.49934">
        <ele>54.064611</ele>
        <time>2022-05-15T11:21:53.923Z</time>
      </trkpt>
      <trkpt lat="42.03642" lon="19.49924">
        <ele>53.906296</ele>
        <time>2022-05-15T11:21:56.948Z</time>
      </trkpt>
      <trkpt lat="42.03653" lon="19.49914">
        <ele>53.745382</ele>
        <time>2022-05-15T11:21:59.942Z</time>
      </trkpt>
      <trkpt lat="42.03664" lon="19.49904">
        <ele>53.579752</ele>
        <time>2022-05-15T11:22:02.950Z</time>
      </trkpt>
      <trkpt lat="42.03674" lon="19.49894">
        <ele>53.422471</ele>
        <time>2022-05-15T11:22:05.946Z</time>
      </trkpt>
      <trkpt lat="42.03685" lon="19.49884">
        <ele>53.25889</ele>
        <time>2022-05-15T11:22:08.956Z</time>
      </trkpt>
      <trkpt lat="42.03695" lon="19.49874">
        <ele>53.098437</ele>
        <time>2022-05-15T11:22:11.928Z</time>
      </trkpt>
      <trkpt lat="42.03702" lon="19.49867">
        <ele>52.984351</ele>
        <time>2022-05-15T11:22:13.930Z</time>
      </trkpt>
      <trkpt lat="42.03713" lon="19.49857">
        <ele>52.817644</ele>
        <time>2022-05-15T11:22:16.975Z</time>
      </trkpt>
      <trkpt lat="42.03724" lon="19.49846">
        <ele>52.652972</ele>
        <time>2022-05-15T11:22:19.941Z</time>
      </trkpt>
      <trkpt lat="42.03734" lon="19.49837">
        <ele>52.499792</ele>
        <time>2022-05-15T11:22:22.923Z</time>
      </trkpt>
      <trkpt lat="42.03743" lon="19.49827">
        <ele>52.390643</ele>
        <time>2022-05-15T11:22:25.973Z</time>
      </trkpt>
      <trkpt lat="42.03753" lon="19.49818">
        <ele>52.278542</ele>
        <time>2022-05-15T11:22:28.948Z</time>
      </trkpt>
      <trkpt lat="42.03764" lon="19.49807">
        <ele>52.162484</ele>
        <time>2022-05-15T11:22:31.923Z</time>
      </trkpt>
      <trkpt lat="42.03773" lon="19.49797">
        <ele>52.053425</ele>
        <time>2022-05-15T11:22:34.934Z</time>
      </trkpt>
      <trkpt lat="42.03782" lon="19.49787">
        <ele>51.940958</ele>
        <time>2022-05-15T11:22:37.922Z</time>
      </trkpt>
      <trkpt lat="42.03792" lon="19.49776">
        <ele>51.829102</ele>
        <time>2022-05-15T11:22:40.932Z</time>
      </trkpt>
      <trkpt lat="42.03802" lon="19.49764">
        <ele>51.70793</ele>
        <time>2022-05-15T11:22:43.939Z</time>
      </trkpt>
      <trkpt lat="42.03809" lon="19.49756">
        <ele>51.624817</ele>
        <time>2022-05-15T11:22:45.961Z</time>
      </trkpt>
      <trkpt lat="42.03816" lon="19.49748">
        <ele>51.541011</ele>
        <time>2022-05-15T11:22:47.968Z</time>
      </trkpt>
      <trkpt lat="42.03823" lon="19.4974">
        <ele>51.455425</ele>
        <time>2022-05-15T11:22:49.932Z</time>
      </trkpt>
      <trkpt lat="42.03833" lon="19.49728">
        <ele>51.335387</ele>
        <time>2022-05-15T11:22:52.931Z</time>
      </trkpt>
      <trkpt lat="42.03842" lon="19.49717">
        <ele>51.215837</ele>
        <time>2022-05-15T11:22:55.951Z</time>
      </trkpt>
      <trkpt lat="42.03852" lon="19.49705">
        <ele>51.095836</ele>
        <time>2022-05-15T11:22:58.945Z</time>
      </trkpt>
      <trkpt lat="42.03863" lon="19.49693">
        <ele>50.972396</ele>
        <time>2022-05-15T11:23:01.928Z</time>
      </trkpt>
      <trkpt lat="42.03869" lon="19.49685">
        <ele>50.890206</ele>
        <time>2022-05-15T11:23:03.966Z</time>
      </trkpt>
      <trkpt lat="42.03879" lon="19.49673">
        <ele>50.891893</ele>
        <time>2022-05-15T11:23:06.941Z</time>
      </trkpt>
      <trkpt lat="42.03886" lon="19.49664">
        <ele>50.920691</ele>
        <time>2022-05-15T11:23:08.947Z</time>
      </trkpt>
      <trkpt lat="42.03895" lon="19.49654">
        <ele>50.95984</ele>
        <time>2022-05-15T11:23:11.945Z</time>
      </trkpt>
      <trkpt lat="42.03902" lon="19.49645">
        <ele>50.990462</ele>
        <time>2022-05-15T11:23:13.938Z</time>
      </trkpt>
      <trkpt lat="42.03909" lon="19.49637">
        <ele>51.019653</ele>
        <time>2022-05-15T11:23:15.931Z</time>
      </trkpt>
      <trkpt lat="42.03916" lon="19.49628">
        <ele>51.049004</ele>
        <time>2022-05-15T11:23:17.957Z</time>
      </trkpt>
      <trkpt lat="42.03923" lon="19.49619">
        <ele>51.079395</ele>
        <time>2022-05-15T11:23:19.916Z</time>
      </trkpt>
      <trkpt lat="42.0393" lon="19.49611">
        <ele>51.109388</ele>
        <time>2022-05-15T11:23:22.019Z</time>
      </trkpt>
      <trkpt lat="42.03937" lon="19.49603">
        <ele>51.138288</ele>
        <time>2022-05-15T11:23:23.958Z</time>
      </trkpt>
      <trkpt lat="42.03946" lon="19.49592">
        <ele>51.178448</ele>
        <time>2022-05-15T11:23:26.922Z</time>
      </trkpt>
      <trkpt lat="42.03955" lon="19.49581">
        <ele>51.217194</ele>
        <time>2022-05-15T11:23:29.940Z</time>
      </trkpt>
      <trkpt lat="42.03964" lon="19.49569">
        <ele>51.255545</ele>
        <time>2022-05-15T11:23:32.964Z</time>
      </trkpt>
      <trkpt lat="42.03974" lon="19.49558">
        <ele>51.297441</ele>
        <time>2022-05-15T11:23:35.986Z</time>
      </trkpt>
      <trkpt lat="42.03981" lon="19.49549">
        <ele>51.327107</ele>
        <time>2022-05-15T11:23:37.966Z</time>
      </trkpt>
      <trkpt lat="42.03988" lon="19.49541">
        <ele>51.357088</ele>
        <time>2022-05-15T11:23:39.923Z</time>
      </trkpt>
      <trkpt lat="42.03995" lon="19.49532">
        <ele>51.387463</ele>
        <time>2022-05-15T11:23:41.938Z</time>
      </trkpt>
      <trkpt lat="42.04002" lon="19.49524">
        <ele>51.418155</ele>
        <time>2022-05-15T11:23:43.930Z</time>
      </trkpt>
      <trkpt lat="42.04009" lon="19.49516">
        <ele>51.387201</ele>
        <time>2022-05-15T11:23:45.948Z</time>
      </trkpt>
      <trkpt lat="42.04019" lon="19.49503">
        <ele>51.261423</ele>
        <time>2022-05-15T11:23:48.988Z</time>
      </trkpt>
      <trkpt lat="42.04026" lon="19.49495">
        <ele>51.178918</ele>
        <time>2022-05-15T11:23:50.951Z</time>
      </trkpt>
      <trkpt lat="42.04033" lon="19.49486">
        <ele>51.096834</ele>
        <time>2022-05-15T11:23:52.928Z</time>
      </trkpt>
      <trkpt lat="42.04042" lon="19.49475">
        <ele>50.982254</ele>
        <time>2022-05-15T11:23:55.929Z</time>
      </trkpt>
      <trkpt lat="42.04052" lon="19.49463">
        <ele>50.864251</ele>
        <time>2022-05-15T11:23:58.931Z</time>
      </trkpt>
      <trkpt lat="42.04061" lon="19.49452">
        <ele>50.753432</ele>
        <time>2022-05-15T11:24:01.940Z</time>
      </trkpt>
      <trkpt lat="42.0407" lon="19.4944">
        <ele>50.638778</ele>
        <time>2022-05-15T11:24:04.974Z</time>
      </trkpt>
      <trkpt lat="42.04079" lon="19.49428">
        <ele>50.523656</ele>
        <time>2022-05-15T11:24:07.954Z</time>
      </trkpt>
      <trkpt lat="42.04088" lon="19.49417">
        <ele>50.414108</ele>
        <time>2022-05-15T11:24:10.975Z</time>
      </trkpt>
      <trkpt lat="42.04096" lon="19.49406">
        <ele>50.311241</ele>
        <time>2022-05-15T11:24:13.940Z</time>
      </trkpt>
      <trkpt lat="42.04104" lon="19.49396">
        <ele>50.212122</ele>
        <time>2022-05-15T11:24:16.924Z</time>
      </trkpt>
      <trkpt lat="42.04112" lon="19.49385">
        <ele>50.111481</ele>
        <time>2022-05-15T11:24:19.954Z</time>
      </trkpt>
      <trkpt lat="42.04119" lon="19.49374">
        <ele>50.009727</ele>
        <time>2022-05-15T11:24:22.923Z</time>
      </trkpt>
      <trkpt lat="42.04127" lon="19.49363">
        <ele>49.907812</ele>
        <time>2022-05-15T11:24:25.940Z</time>
      </trkpt>
      <trkpt lat="42.04135" lon="19.49353">
        <ele>49.806415</ele>
        <time>2022-05-15T11:24:28.986Z</time>
      </trkpt>
      <trkpt lat="42.04143" lon="19.49341">
        <ele>49.894321</ele>
        <time>2022-05-15T11:24:31.926Z</time>
      </trkpt>
      <trkpt lat="42.04151" lon="19.4933">
        <ele>49.982227</ele>
        <time>2022-05-15T11:24:34.947Z</time>
      </trkpt>
      <trkpt lat="42.04158" lon="19.4932">
        <ele>50.068434</ele>
        <time>2022-05-15T11:24:37.942Z</time>
      </trkpt>
      <trkpt lat="42.04166" lon="19.49309">
        <ele>50.157531</ele>
        <time>2022-05-15T11:24:40.930Z</time>
      </trkpt>
      <trkpt lat="42.04174" lon="19.49297">
        <ele>50.248744</ele>
        <time>2022-05-15T11:24:43.919Z</time>
      </trkpt>
      <trkpt lat="42.04182" lon="19.49287">
        <ele>50.334113</ele>
        <time>2022-05-15T11:24:46.945Z</time>
      </trkpt>
      <trkpt lat="42.04189" lon="19.49277">
        <ele>50.414018</ele>
        <time>2022-05-15T11:24:49.964Z</time>
      </trkpt>
      <trkpt lat="42.04196" lon="19.49267">
        <ele>50.494151</ele>
        <time>2022-05-15T11:24:52.945Z</time>
      </trkpt>
      <trkpt lat="42.04203" lon="19.49256">
        <ele>50.574485</ele>
        <time>2022-05-15T11:24:57.940Z</time>
      </trkpt>
      <trkpt lat="42.0421" lon="19.49246">
        <ele>50.659854</ele>
        <time>2022-05-15T11:25:01.930Z</time>
      </trkpt>
      <trkpt lat="42.04218" lon="19.49235">
        <ele>50.747661</ele>
        <time>2022-05-15T11:25:05.937Z</time>
      </trkpt>
      <trkpt lat="42.04226" lon="19.49223">
        <ele>50.841165</ele>
        <time>2022-05-15T11:25:09.945Z</time>
      </trkpt>
      <trkpt lat="42.04233" lon="19.49213">
        <ele>50.920216</ele>
        <time>2022-05-15T11:25:12.939Z</time>
      </trkpt>
      <trkpt lat="42.0424" lon="19.49203">
        <ele>51.003658</ele>
        <time>2022-05-15T11:25:15.921Z</time>
      </trkpt>
      <trkpt lat="42.04247" lon="19.49193">
        <ele>51.085056</ele>
        <time>2022-05-15T11:25:18.910Z</time>
      </trkpt>
      <trkpt lat="42.04254" lon="19.49183">
        <ele>51.16496</ele>
        <time>2022-05-15T11:25:22.081Z</time>
      </trkpt>
      <trkpt lat="42.04261" lon="19.49173">
        <ele>51.238859</ele>
        <time>2022-05-15T11:25:24.913Z</time>
      </trkpt>
      <trkpt lat="42.0427" lon="19.49163">
        <ele>51.317243</ele>
        <time>2022-05-15T11:25:27.911Z</time>
      </trkpt>
      <trkpt lat="42.04279" lon="19.49157">
        <ele>51.383852</ele>
        <time>2022-05-15T11:25:30.910Z</time>
      </trkpt>
      <trkpt lat="42.0429" lon="19.49149">
        <ele>51.466133</ele>
        <time>2022-05-15T11:25:33.911Z</time>
      </trkpt>
      <trkpt lat="42.04298" lon="19.49143">
        <ele>51.526202</ele>
        <time>2022-05-15T11:25:35.928Z</time>
      </trkpt>
      <trkpt lat="42.04306" lon="19.49138">
        <ele>51.587906</ele>
        <time>2022-05-15T11:25:37.942Z</time>
      </trkpt>
      <trkpt lat="42.04314" lon="19.49131">
        <ele>51.649414</ele>
        <time>2022-05-15T11:25:39.928Z</time>
      </trkpt>
      <trkpt lat="42.04325" lon="19.49123">
        <ele>51.733099</ele>
        <time>2022-05-15T11:25:42.978Z</time>
      </trkpt>
      <trkpt lat="42.04336" lon="19.49115">
        <ele>51.815726</ele>
        <time>2022-05-15T11:25:45.911Z</time>
      </trkpt>
      <trkpt lat="42.04346" lon="19.49108">
        <ele>51.890891</ele>
        <time>2022-05-15T11:25:48.913Z</time>
      </trkpt>
      <trkpt lat="42.04354" lon="19.49102">
        <ele>51.951427</ele>
        <time>2022-05-15T11:25:51.909Z</time>
      </trkpt>
      <trkpt lat="42.04363" lon="19.49097">
        <ele>52.016013</ele>
        <time>2022-05-15T11:25:54.911Z</time>
      </trkpt>
      <trkpt lat="42.04371" lon="19.49108">
        <ele>52.093883</ele>
        <time>2022-05-15T11:25:58.910Z</time>
      </trkpt>
      <trkpt lat="42.04372" lon="19.49121">
        <ele>52.158945</ele>
        <time>2022-05-15T11:26:02.950Z</time>
      </trkpt>
      <trkpt lat="42.04371" lon="19.49136">
        <ele>52.233935</ele>
        <time>2022-05-15T11:26:06.927Z</time>
      </trkpt>
      <trkpt lat="42.04371" lon="19.4915">
        <ele>52.301952</ele>
        <time>2022-05-15T11:26:09.918Z</time>
      </trkpt>
      <trkpt lat="42.04371" lon="19.49165">
        <ele>52.372511</ele>
        <time>2022-05-15T11:26:12.914Z</time>
      </trkpt>
      <trkpt lat="42.0437" lon="19.49179">
        <ele>52.454937</ele>
        <time>2022-05-15T11:26:15.912Z</time>
      </trkpt>
      <trkpt lat="42.0437" lon="19.49193">
        <ele>52.54273</ele>
        <time>2022-05-15T11:26:18.912Z</time>
      </trkpt>
      <trkpt lat="42.04371" lon="19.49208">
        <ele>52.633054</ele>
        <time>2022-05-15T11:26:21.917Z</time>
      </trkpt>
      <trkpt lat="42.0437" lon="19.49224">
        <ele>52.734156</ele>
        <time>2022-05-15T11:26:25.908Z</time>
      </trkpt>
      <trkpt lat="42.04368" lon="19.4924">
        <ele>52.837805</ele>
        <time>2022-05-15T11:26:28.925Z</time>
      </trkpt>
      <trkpt lat="42.04368" lon="19.49258">
        <ele>52.944782</ele>
        <time>2022-05-15T11:26:31.922Z</time>
      </trkpt>
      <trkpt lat="42.04369" lon="19.49274">
        <ele>53.049618</ele>
        <time>2022-05-15T11:26:34.909Z</time>
      </trkpt>
      <trkpt lat="42.04373" lon="19.4929">
        <ele>53.153274</ele>
        <time>2022-05-15T11:26:37.947Z</time>
      </trkpt>
      <trkpt lat="42.04378" lon="19.49304">
        <ele>53.247283</ele>
        <time>2022-05-15T11:26:40.922Z</time>
      </trkpt>
      <trkpt lat="42.04385" lon="19.49319">
        <ele>53.357751</ele>
        <time>2022-05-15T11:26:43.916Z</time>
      </trkpt>
      <trkpt lat="42.04392" lon="19.49332">
        <ele>53.458612</ele>
        <time>2022-05-15T11:26:46.912Z</time>
      </trkpt>
      <trkpt lat="42.04394" lon="19.49349">
        <ele>53.565014</ele>
        <time>2022-05-15T11:26:49.910Z</time>
      </trkpt>
      <trkpt lat="42.04397" lon="19.49361">
        <ele>53.642997</ele>
        <time>2022-05-15T11:26:51.925Z</time>
      </trkpt>
      <trkpt lat="42.04401" lon="19.49372">
        <ele>53.719014</ele>
        <time>2022-05-15T11:26:54.912Z</time>
      </trkpt>
      <trkpt lat="42.04405" lon="19.49383">
        <ele>53.795776</ele>
        <time>2022-05-15T11:26:59.908Z</time>
      </trkpt>
      <trkpt lat="42.04411" lon="19.49396">
        <ele>53.889103</ele>
        <time>2022-05-15T11:27:03.904Z</time>
      </trkpt>
      <trkpt lat="42.04416" lon="19.49407">
        <ele>53.838156</ele>
        <time>2022-05-15T11:27:06.912Z</time>
      </trkpt>
      <trkpt lat="42.04423" lon="19.49417">
        <ele>53.710773</ele>
        <time>2022-05-15T11:27:10.907Z</time>
      </trkpt>
      <trkpt lat="42.04425" lon="19.49433">
        <ele>53.567356</ele>
        <time>2022-05-15T11:27:14.922Z</time>
      </trkpt>
      <trkpt lat="42.0443" lon="19.49445">
        <ele>53.444142</ele>
        <time>2022-05-15T11:27:17.916Z</time>
      </trkpt>
      <trkpt lat="42.04435" lon="19.49458">
        <ele>53.309963</ele>
        <time>2022-05-15T11:27:20.915Z</time>
      </trkpt>
      <trkpt lat="42.0444" lon="19.49471">
        <ele>53.169603</ele>
        <time>2022-05-15T11:27:23.924Z</time>
      </trkpt>
      <trkpt lat="42.04446" lon="19.49484">
        <ele>53.032202</ele>
        <time>2022-05-15T11:27:26.921Z</time>
      </trkpt>
      <trkpt lat="42.04451" lon="19.49497">
        <ele>52.896633</ele>
        <time>2022-05-15T11:27:29.915Z</time>
      </trkpt>
      <trkpt lat="42.04458" lon="19.4951">
        <ele>52.759066</ele>
        <time>2022-05-15T11:27:32.909Z</time>
      </trkpt>
      <trkpt lat="42.04464" lon="19.4952">
        <ele>52.634988</ele>
        <time>2022-05-15T11:27:35.909Z</time>
      </trkpt>
      <trkpt lat="42.04472" lon="19.4953">
        <ele>52.508013</ele>
        <time>2022-05-15T11:27:38.935Z</time>
      </trkpt>
      <trkpt lat="42.04479" lon="19.49541">
        <ele>52.3726</ele>
        <time>2022-05-15T11:27:41.909Z</time>
      </trkpt>
      <trkpt lat="42.04486" lon="19.49552">
        <ele>52.236338</ele>
        <time>2022-05-15T11:27:44.907Z</time>
      </trkpt>
      <trkpt lat="42.04494" lon="19.49562">
        <ele>52.108005</ele>
        <time>2022-05-15T11:27:47.920Z</time>
      </trkpt>
      <trkpt lat="42.04502" lon="19.49573">
        <ele>51.966092</ele>
        <time>2022-05-15T11:27:50.910Z</time>
      </trkpt>
      <trkpt lat="42.04509" lon="19.49583">
        <ele>51.846191</ele>
        <time>2022-05-15T11:27:53.933Z</time>
      </trkpt>
      <trkpt lat="42.04516" lon="19.49592">
        <ele>51.71972</ele>
        <time>2022-05-15T11:27:56.911Z</time>
      </trkpt>
      <trkpt lat="42.04524" lon="19.49602">
        <ele>51.564341</ele>
        <time>2022-05-15T11:27:59.909Z</time>
      </trkpt>
      <trkpt lat="42.04531" lon="19.49612">
        <ele>51.417865</ele>
        <time>2022-05-15T11:28:02.909Z</time>
      </trkpt>
      <trkpt lat="42.04536" lon="19.49624">
        <ele>51.263779</ele>
        <time>2022-05-15T11:28:06.932Z</time>
      </trkpt>
      <trkpt lat="42.04544" lon="19.49633">
        <ele>51.10475</ele>
        <time>2022-05-15T11:28:11.920Z</time>
      </trkpt>
      <trkpt lat="42.04554" lon="19.49642">
        <ele>50.934809</ele>
        <time>2022-05-15T11:28:15.920Z</time>
      </trkpt>
      <trkpt lat="42.04562" lon="19.4965">
        <ele>50.780356</ele>
        <time>2022-05-15T11:28:18.910Z</time>
      </trkpt>
      <trkpt lat="42.04571" lon="19.49658">
        <ele>50.629304</ele>
        <time>2022-05-15T11:28:21.907Z</time>
      </trkpt>
      <trkpt lat="42.04579" lon="19.49666">
        <ele>50.478872</ele>
        <time>2022-05-15T11:28:24.914Z</time>
      </trkpt>
      <trkpt lat="42.04588" lon="19.49672">
        <ele>50.328117</ele>
        <time>2022-05-15T11:28:27.906Z</time>
      </trkpt>
      <trkpt lat="42.04599" lon="19.49675">
        <ele>50.177119</ele>
        <time>2022-05-15T11:28:31.917Z</time>
      </trkpt>
      <trkpt lat="42.0461" lon="19.4968">
        <ele>49.995791</ele>
        <time>2022-05-15T11:28:35.905Z</time>
      </trkpt>
      <trkpt lat="42.04621" lon="19.49685">
        <ele>49.824478</ele>
        <time>2022-05-15T11:28:38.910Z</time>
      </trkpt>
      <trkpt lat="42.0463" lon="19.4969">
        <ele>49.683286</ele>
        <time>2022-05-15T11:28:41.914Z</time>
      </trkpt>
      <trkpt lat="42.04639" lon="19.49694">
        <ele>49.551325</ele>
        <time>2022-05-15T11:28:44.914Z</time>
      </trkpt>
      <trkpt lat="42.04648" lon="19.49704">
        <ele>49.386058</ele>
        <time>2022-05-15T11:28:47.925Z</time>
      </trkpt>
      <trkpt lat="42.04654" lon="19.49713">
        <ele>49.249107</ele>
        <time>2022-05-15T11:28:50.936Z</time>
      </trkpt>
      <trkpt lat="42.0466" lon="19.49723">
        <ele>49.100611</ele>
        <time>2022-05-15T11:28:53.918Z</time>
      </trkpt>
      <trkpt lat="42.04668" lon="19.49733">
        <ele>49.048126</ele>
        <time>2022-05-15T11:28:56.911Z</time>
      </trkpt>
      <trkpt lat="42.04674" lon="19.49745">
        <ele>49.019931</ele>
        <time>2022-05-15T11:28:59.918Z</time>
      </trkpt>
      <trkpt lat="42.04682" lon="19.49759">
        <ele>48.984639</ele>
        <time>2022-05-15T11:29:02.906Z</time>
      </trkpt>
      <trkpt lat="42.04687" lon="19.49773">
        <ele>48.954279</ele>
        <time>2022-05-15T11:29:05.911Z</time>
      </trkpt>
      <trkpt lat="42.04692" lon="19.49787">
        <ele>48.924314</ele>
        <time>2022-05-15T11:29:08.916Z</time>
      </trkpt>
      <trkpt lat="42.04696" lon="19.49801">
        <ele>48.894691</ele>
        <time>2022-05-15T11:29:11.914Z</time>
      </trkpt>
      <trkpt lat="42.04698" lon="19.49815">
        <ele>48.865552</ele>
        <time>2022-05-15T11:29:14.909Z</time>
      </trkpt>
      <trkpt lat="42.04701" lon="19.4983">
        <ele>48.835798</ele>
        <time>2022-05-15T11:29:17.908Z</time>
      </trkpt>
      <trkpt lat="42.04703" lon="19.49845">
        <ele>48.806652</ele>
        <time>2022-05-15T11:29:20.922Z</time>
      </trkpt>
      <trkpt lat="42.04705" lon="19.4986">
        <ele>48.777464</ele>
        <time>2022-05-15T11:29:23.914Z</time>
      </trkpt>
      <trkpt lat="42.04707" lon="19.49874">
        <ele>48.749109</ele>
        <time>2022-05-15T11:29:26.909Z</time>
      </trkpt>
      <trkpt lat="42.04708" lon="19.49887">
        <ele>48.723643</ele>
        <time>2022-05-15T11:29:29.906Z</time>
      </trkpt>
      <trkpt lat="42.04709" lon="19.49899">
        <ele>48.699068</ele>
        <time>2022-05-15T11:29:35.908Z</time>
      </trkpt>
      <trkpt lat="42.04701" lon="19.49906">
        <ele>48.674304</ele>
        <time>2022-05-15T11:29:40.907Z</time>
      </trkpt>
      <trkpt lat="42.04692" lon="19.49912">
        <ele>48.648589</ele>
        <time>2022-05-15T11:29:44.911Z</time>
      </trkpt>
      <trkpt lat="42.04683" lon="19.49917">
        <ele>48.622304</ele>
        <time>2022-05-15T11:29:48.912Z</time>
      </trkpt>
      <trkpt lat="42.04674" lon="19.4992">
        <ele>48.596992</ele>
        <time>2022-05-15T11:29:52.909Z</time>
      </trkpt>
      <trkpt lat="42.04664" lon="19.49922">
        <ele>49.276814</ele>
        <time>2022-05-15T11:29:58.910Z</time>
      </trkpt>
      <trkpt lat="42.04689" lon="19.4992">
        <ele>51.101399</ele>
        <time>2022-05-15T11:49:04.955Z</time>
      </trkpt>
      <trkpt lat="42.04699" lon="19.49917">
        <ele>51.874218</ele>
        <time>2022-05-15T11:49:09.933Z</time>
      </trkpt>
      <trkpt lat="42.04707" lon="19.49911">
        <ele>52.578054</ele>
        <time>2022-05-15T11:49:14.976Z</time>
      </trkpt>
      <trkpt lat="42.04716" lon="19.49904">
        <ele>53.340542</ele>
        <time>2022-05-15T11:49:21.085Z</time>
      </trkpt>
      <trkpt lat="42.04724" lon="19.49912">
        <ele>54.056024</ele>
        <time>2022-05-15T11:49:26.930Z</time>
      </trkpt>
      <trkpt lat="42.04731" lon="19.49921">
        <ele>54.799509</ele>
        <time>2022-05-15T11:49:33.938Z</time>
      </trkpt>
      <trkpt lat="42.04735" lon="19.4991">
        <ele>55.484291</ele>
        <time>2022-05-15T11:49:43.916Z</time>
      </trkpt>
      <trkpt lat="42.04737" lon="19.49896">
        <ele>56.25037</ele>
        <time>2022-05-15T11:49:51.926Z</time>
      </trkpt>
      <trkpt lat="42.0474" lon="19.49884">
        <ele>56.979986</ele>
        <time>2022-05-15T11:49:59.934Z</time>
      </trkpt>
      <trkpt lat="42.04744" lon="19.49872">
        <ele>57.701598</ele>
        <time>2022-05-15T11:50:08.940Z</time>
      </trkpt>
      <trkpt lat="42.04746" lon="19.4986">
        <ele>58.370347</ele>
        <time>2022-05-15T11:50:17.938Z</time>
      </trkpt>
      <trkpt lat="42.04748" lon="19.49847">
        <ele>59.070649</ele>
        <time>2022-05-15T11:50:27.925Z</time>
      </trkpt>
      <trkpt lat="42.04747" lon="19.49833">
        <ele>59.829781</ele>
        <time>2022-05-15T11:50:37.921Z</time>
      </trkpt>
      <trkpt lat="42.04747" lon="19.49821">
        <ele>60.500754</ele>
        <time>2022-05-15T11:50:45.937Z</time>
      </trkpt>
      <trkpt lat="42.04746" lon="19.49809">
        <ele>61.197982</ele>
        <time>2022-05-15T11:50:53.928Z</time>
      </trkpt>
      <trkpt lat="42.04748" lon="19.49796">
        <ele>61.922498</ele>
        <time>2022-05-15T11:51:05.011Z</time>
      </trkpt>
      <trkpt lat="42.04752" lon="19.49783">
        <ele>62.24217</ele>
        <time>2022-05-15T11:51:13.978Z</time>
      </trkpt>
      <trkpt lat="42.04756" lon="19.49772">
        <ele>62.547917</ele>
        <time>2022-05-15T11:51:21.933Z</time>
      </trkpt>
      <trkpt lat="42.04764" lon="19.49767">
        <ele>62.842096</ele>
        <time>2022-05-15T11:51:30.920Z</time>
      </trkpt>
      <trkpt lat="42.04772" lon="19.4976">
        <ele>63.150421</ele>
        <time>2022-05-15T11:51:40.930Z</time>
      </trkpt>
      <trkpt lat="42.04781" lon="19.49759">
        <ele>63.444522</ele>
        <time>2022-05-15T11:51:48.923Z</time>
      </trkpt>
      <trkpt lat="42.04789" lon="19.49753">
        <ele>63.740734</ele>
        <time>2022-05-15T11:51:55.905Z</time>
      </trkpt>
      <trkpt lat="42.04797" lon="19.49747">
        <ele>64.056247</ele>
        <time>2022-05-15T11:52:07.923Z</time>
      </trkpt>
      <trkpt lat="42.04806" lon="19.49736">
        <ele>64.430332</ele>
        <time>2022-05-15T11:52:12.939Z</time>
      </trkpt>
      <trkpt lat="42.04812" lon="19.49723">
        <ele>64.814574</ele>
        <time>2022-05-15T11:52:16.929Z</time>
      </trkpt>
      <trkpt lat="42.04818" lon="19.49707">
        <ele>65.259884</ele>
        <time>2022-05-15T11:52:19.976Z</time>
      </trkpt>
      <trkpt lat="42.04825" lon="19.4969">
        <ele>65.709254</ele>
        <time>2022-05-15T11:52:21.912Z</time>
      </trkpt>
      <trkpt lat="42.04829" lon="19.49677">
        <ele>66.058317</ele>
        <time>2022-05-15T11:52:23.934Z</time>
      </trkpt>
      <trkpt lat="42.04834" lon="19.49665">
        <ele>66.388556</ele>
        <time>2022-05-15T11:52:25.924Z</time>
      </trkpt>
      <trkpt lat="42.04841" lon="19.49649">
        <ele>66.821854</ele>
        <time>2022-05-15T11:52:28.921Z</time>
      </trkpt>
      <trkpt lat="42.04846" lon="19.49638">
        <ele>67.15912</ele>
        <time>2022-05-15T11:52:30.927Z</time>
      </trkpt>
      <trkpt lat="42.04855" lon="19.49623">
        <ele>67.61751</ele>
        <time>2022-05-15T11:52:33.911Z</time>
      </trkpt>
      <trkpt lat="42.04864" lon="19.49613">
        <ele>67.169525</ele>
        <time>2022-05-15T11:52:35.920Z</time>
      </trkpt>
      <trkpt lat="42.04876" lon="19.49602">
        <ele>66.016266</ele>
        <time>2022-05-15T11:52:37.921Z</time>
      </trkpt>
      <trkpt lat="42.04888" lon="19.49591">
        <ele>64.879771</ele>
        <time>2022-05-15T11:52:39.921Z</time>
      </trkpt>
      <trkpt lat="42.04899" lon="19.49583">
        <ele>63.859144</ele>
        <time>2022-05-15T11:52:41.914Z</time>
      </trkpt>
      <trkpt lat="42.04907" lon="19.49578">
        <ele>63.06751</ele>
        <time>2022-05-15T11:52:43.933Z</time>
      </trkpt>
      <trkpt lat="42.04917" lon="19.4957">
        <ele>62.135336</ele>
        <time>2022-05-15T11:52:46.939Z</time>
      </trkpt>
      <trkpt lat="42.04924" lon="19.49562">
        <ele>61.374769</ele>
        <time>2022-05-15T11:52:49.930Z</time>
      </trkpt>
      <trkpt lat="42.04933" lon="19.49552">
        <ele>60.513373</ele>
        <time>2022-05-15T11:52:54.936Z</time>
      </trkpt>
      <trkpt lat="42.0494" lon="19.49544">
        <ele>59.747213</ele>
        <time>2022-05-15T11:52:57.911Z</time>
      </trkpt>
      <trkpt lat="42.04948" lon="19.49532">
        <ele>58.761866</ele>
        <time>2022-05-15T11:53:00.931Z</time>
      </trkpt>
      <trkpt lat="42.04958" lon="19.49522">
        <ele>57.751628</ele>
        <time>2022-05-15T11:53:03.908Z</time>
      </trkpt>
      <trkpt lat="42.04969" lon="19.4952">
        <ele>56.850959</ele>
        <time>2022-05-15T11:53:06.914Z</time>
      </trkpt>
      <trkpt lat="42.0498" lon="19.49521">
        <ele>55.929837</ele>
        <time>2022-05-15T11:53:09.930Z</time>
      </trkpt>
      <trkpt lat="42.04991" lon="19.49522">
        <ele>55.053967</ele>
        <time>2022-05-15T11:53:12.926Z</time>
      </trkpt>
      <trkpt lat="42.05002" lon="19.49521">
        <ele>54.186012</ele>
        <time>2022-05-15T11:53:15.933Z</time>
      </trkpt>
      <trkpt lat="42.05012" lon="19.4952">
        <ele>53.332668</ele>
        <time>2022-05-15T11:53:18.937Z</time>
      </trkpt>
      <trkpt lat="42.05024" lon="19.4952">
        <ele>52.746078</ele>
        <time>2022-05-15T11:53:21.931Z</time>
      </trkpt>
      <trkpt lat="42.05034" lon="19.49521">
        <ele>52.299861</ele>
        <time>2022-05-15T11:53:24.937Z</time>
      </trkpt>
      <trkpt lat="42.05045" lon="19.49523">
        <ele>51.805421</ele>
        <time>2022-05-15T11:53:27.923Z</time>
      </trkpt>
      <trkpt lat="42.05054" lon="19.49526">
        <ele>51.410073</ele>
        <time>2022-05-15T11:53:30.005Z</time>
      </trkpt>
      <trkpt lat="42.05065" lon="19.49535">
        <ele>50.846961</ele>
        <time>2022-05-15T11:53:32.919Z</time>
      </trkpt>
      <trkpt lat="42.05074" lon="19.49544">
        <ele>50.378041</ele>
        <time>2022-05-15T11:53:36.938Z</time>
      </trkpt>
      <trkpt lat="42.05083" lon="19.49551">
        <ele>49.932918</ele>
        <time>2022-05-15T11:53:40.931Z</time>
      </trkpt>
      <trkpt lat="42.05091" lon="19.49558">
        <ele>49.486485</ele>
        <time>2022-05-15T11:53:43.925Z</time>
      </trkpt>
      <trkpt lat="42.051" lon="19.49563">
        <ele>49.085063</ele>
        <time>2022-05-15T11:53:45.933Z</time>
      </trkpt>
      <trkpt lat="42.0511" lon="19.49567">
        <ele>48.627426</ele>
        <time>2022-05-15T11:53:47.965Z</time>
      </trkpt>
      <trkpt lat="42.05122" lon="19.4957">
        <ele>48.117265</ele>
        <time>2022-05-15T11:53:49.997Z</time>
      </trkpt>
      <trkpt lat="42.05133" lon="19.49571">
        <ele>47.600063</ele>
        <time>2022-05-15T11:53:51.922Z</time>
      </trkpt>
      <trkpt lat="42.05145" lon="19.49572">
        <ele>47.098702</ele>
        <time>2022-05-15T11:53:53.909Z</time>
      </trkpt>
      <trkpt lat="42.05155" lon="19.49573">
        <ele>46.640844</ele>
        <time>2022-05-15T11:53:55.940Z</time>
      </trkpt>
      <trkpt lat="42.05165" lon="19.49573">
        <ele>46.213592</ele>
        <time>2022-05-15T11:53:57.911Z</time>
      </trkpt>
      <trkpt lat="42.05175" lon="19.49574">
        <ele>45.795179</ele>
        <time>2022-05-15T11:53:59.928Z</time>
      </trkpt>
      <trkpt lat="42.05185" lon="19.49574">
        <ele>45.351523</ele>
        <time>2022-05-15T11:54:02.924Z</time>
      </trkpt>
      <trkpt lat="42.05194" lon="19.49577">
        <ele>45.335894</ele>
        <time>2022-05-15T11:54:05.932Z</time>
      </trkpt>
      <trkpt lat="42.05203" lon="19.49586">
        <ele>45.316188</ele>
        <time>2022-05-15T11:54:08.918Z</time>
      </trkpt>
      <trkpt lat="42.05213" lon="19.49597">
        <ele>45.295185</ele>
        <time>2022-05-15T11:54:11.917Z</time>
      </trkpt>
      <trkpt lat="42.05221" lon="19.49609">
        <ele>45.274177</ele>
        <time>2022-05-15T11:54:14.931Z</time>
      </trkpt>
      <trkpt lat="42.05229" lon="19.49619">
        <ele>45.254543</ele>
        <time>2022-05-15T11:54:17.930Z</time>
      </trkpt>
      <trkpt lat="42.05238" lon="19.49629">
        <ele>45.235965</ele>
        <time>2022-05-15T11:54:20.971Z</time>
      </trkpt>
      <trkpt lat="42.05246" lon="19.49641">
        <ele>45.214842</ele>
        <time>2022-05-15T11:54:23.936Z</time>
      </trkpt>
      <trkpt lat="42.05255" lon="19.49651">
        <ele>45.193971</ele>
        <time>2022-05-15T11:54:26.935Z</time>
      </trkpt>
      <trkpt lat="42.05264" lon="19.49662">
        <ele>45.173701</ele>
        <time>2022-05-15T11:54:29.915Z</time>
      </trkpt>
      <trkpt lat="42.05272" lon="19.49676">
        <ele>45.152252</ele>
        <time>2022-05-15T11:54:32.902Z</time>
      </trkpt>
      <trkpt lat="42.05279" lon="19.49688">
        <ele>45.132115</ele>
        <time>2022-05-15T11:54:35.926Z</time>
      </trkpt>
      <trkpt lat="42.05286" lon="19.49698">
        <ele>45.114835</ele>
        <time>2022-05-15T11:54:38.924Z</time>
      </trkpt>
      <trkpt lat="42.05292" lon="19.49709">
        <ele>45.097959</ele>
        <time>2022-05-15T11:54:42.936Z</time>
      </trkpt>
      <trkpt lat="42.05298" lon="19.49717">
        <ele>45.08217</ele>
        <time>2022-05-15T11:54:45.916Z</time>
      </trkpt>
      <trkpt lat="42.05306" lon="19.49728">
        <ele>45.063421</ele>
        <time>2022-05-15T11:54:48.948Z</time>
      </trkpt>
      <trkpt lat="42.05315" lon="19.49739">
        <ele>45.040668</ele>
        <time>2022-05-15T11:54:51.913Z</time>
      </trkpt>
      <trkpt lat="42.05323" lon="19.4975">
        <ele>44.932803</ele>
        <time>2022-05-15T11:54:54.935Z</time>
      </trkpt>
      <trkpt lat="42.05331" lon="19.4976">
        <ele>44.829243</ele>
        <time>2022-05-15T11:54:57.915Z</time>
      </trkpt>
      <trkpt lat="42.05339" lon="19.49771">
        <ele>44.722758</ele>
        <time>2022-05-15T11:55:00.917Z</time>
      </trkpt>
      <trkpt lat="42.05347" lon="19.49783">
        <ele>44.613646</ele>
        <time>2022-05-15T11:55:03.929Z</time>
      </trkpt>
      <trkpt lat="42.05355" lon="19.49794">
        <ele>44.510845</ele>
        <time>2022-05-15T11:55:06.922Z</time>
      </trkpt>
      <trkpt lat="42.05362" lon="19.49804">
        <ele>44.41366</ele>
        <time>2022-05-15T11:55:09.944Z</time>
      </trkpt>
      <trkpt lat="42.0537" lon="19.49814">
        <ele>44.307879</ele>
        <time>2022-05-15T11:55:12.915Z</time>
      </trkpt>
      <trkpt lat="42.05379" lon="19.49824">
        <ele>44.200035</ele>
        <time>2022-05-15T11:55:15.915Z</time>
      </trkpt>
      <trkpt lat="42.05387" lon="19.49837">
        <ele>44.089213</ele>
        <time>2022-05-15T11:55:18.939Z</time>
      </trkpt>
      <trkpt lat="42.05395" lon="19.49846">
        <ele>43.993785</ele>
        <time>2022-05-15T11:55:21.941Z</time>
      </trkpt>
      <trkpt lat="42.05403" lon="19.49856">
        <ele>43.887925</ele>
        <time>2022-05-15T11:55:24.917Z</time>
      </trkpt>
      <trkpt lat="42.0541" lon="19.4987">
        <ele>43.771404</ele>
        <time>2022-05-15T11:55:27.920Z</time>
      </trkpt>
      <trkpt lat="42.05413" lon="19.49886">
        <ele>43.659489</ele>
        <time>2022-05-15T11:55:31.052Z</time>
      </trkpt>
      <trkpt lat="42.05419" lon="19.49901">
        <ele>43.545068</ele>
        <time>2022-05-15T11:55:33.962Z</time>
      </trkpt>
      <trkpt lat="42.05427" lon="19.4991">
        <ele>43.445684</ele>
        <time>2022-05-15T11:55:36.917Z</time>
      </trkpt>
      <trkpt lat="42.05438" lon="19.49915">
        <ele>43.666708</ele>
        <time>2022-05-15T11:55:39.923Z</time>
      </trkpt>
      <trkpt lat="42.05447" lon="19.49923">
        <ele>44.526895</ele>
        <time>2022-05-15T11:55:42.912Z</time>
      </trkpt>
      <trkpt lat="42.05455" lon="19.49935">
        <ele>45.445201</ele>
        <time>2022-05-15T11:55:45.948Z</time>
      </trkpt>
      <trkpt lat="42.05463" lon="19.49948">
        <ele>46.396397</ele>
        <time>2022-05-15T11:55:48.928Z</time>
      </trkpt>
      <trkpt lat="42.05472" lon="19.4996">
        <ele>47.35143</ele>
        <time>2022-05-15T11:55:51.931Z</time>
      </trkpt>
      <trkpt lat="42.05481" lon="19.49971">
        <ele>48.269325</ele>
        <time>2022-05-15T11:55:54.928Z</time>
      </trkpt>
      <trkpt lat="42.05491" lon="19.49979">
        <ele>49.173972</ele>
        <time>2022-05-15T11:55:57.916Z</time>
      </trkpt>
      <trkpt lat="42.05501" lon="19.49987">
        <ele>50.077462</ele>
        <time>2022-05-15T11:56:00.922Z</time>
      </trkpt>
      <trkpt lat="42.0551" lon="19.49998">
        <ele>50.974468</ele>
        <time>2022-05-15T11:56:03.980Z</time>
      </trkpt>
      <trkpt lat="42.05521" lon="19.50002">
        <ele>51.87142</ele>
        <time>2022-05-15T11:56:06.930Z</time>
      </trkpt>
      <trkpt lat="42.05531" lon="19.50011">
        <ele>52.804047</ele>
        <time>2022-05-15T11:56:09.948Z</time>
      </trkpt>
      <trkpt lat="42.05539" lon="19.50018">
        <ele>53.498514</ele>
        <time>2022-05-15T11:56:11.920Z</time>
      </trkpt>
      <trkpt lat="42.05549" lon="19.50027">
        <ele>54.427767</ele>
        <time>2022-05-15T11:56:14.940Z</time>
      </trkpt>
      <trkpt lat="42.05558" lon="19.50034">
        <ele>55.23106</ele>
        <time>2022-05-15T11:56:17.919Z</time>
      </trkpt>
      <trkpt lat="42.05567" lon="19.50042">
        <ele>56.077721</ele>
        <time>2022-05-15T11:56:20.917Z</time>
      </trkpt>
      <trkpt lat="42.05576" lon="19.50049">
        <ele>56.862902</ele>
        <time>2022-05-15T11:56:23.922Z</time>
      </trkpt>
      <trkpt lat="42.05586" lon="19.50053">
        <ele>57.384445</ele>
        <time>2022-05-15T11:56:26.935Z</time>
      </trkpt>
      <trkpt lat="42.05597" lon="19.5006">
        <ele>57.859591</ele>
        <time>2022-05-15T11:56:30.934Z</time>
      </trkpt>
      <trkpt lat="42.05608" lon="19.50063">
        <ele>58.273869</ele>
        <time>2022-05-15T11:56:33.933Z</time>
      </trkpt>
      <trkpt lat="42.05618" lon="19.50067">
        <ele>58.690082</ele>
        <time>2022-05-15T11:56:37.916Z</time>
      </trkpt>
      <trkpt lat="42.05628" lon="19.50068">
        <ele>59.060614</ele>
        <time>2022-05-15T11:56:40.953Z</time>
      </trkpt>
      <trkpt lat="42.05639" lon="19.50076">
        <ele>59.539793</ele>
        <time>2022-05-15T11:56:43.927Z</time>
      </trkpt>
      <trkpt lat="42.05646" lon="19.50085">
        <ele>59.932104</ele>
        <time>2022-05-15T11:56:45.934Z</time>
      </trkpt>
      <trkpt lat="42.05653" lon="19.50095">
        <ele>60.307085</ele>
        <time>2022-05-15T11:56:47.958Z</time>
      </trkpt>
      <trkpt lat="42.05661" lon="19.50104">
        <ele>60.70898</ele>
        <time>2022-05-15T11:56:49.911Z</time>
      </trkpt>
      <trkpt lat="42.05669" lon="19.50115">
        <ele>61.146248</ele>
        <time>2022-05-15T11:56:51.930Z</time>
      </trkpt>
      <trkpt lat="42.05675" lon="19.50127">
        <ele>61.570659</ele>
        <time>2022-05-15T11:56:53.919Z</time>
      </trkpt>
      <trkpt lat="42.05682" lon="19.50139">
        <ele>62.004267</ele>
        <time>2022-05-15T11:56:55.917Z</time>
      </trkpt>
      <trkpt lat="42.0569" lon="19.50152">
        <ele>62.46368</ele>
        <time>2022-05-15T11:56:57.920Z</time>
      </trkpt>
      <trkpt lat="42.05696" lon="19.50163">
        <ele>62.881206</ele>
        <time>2022-05-15T11:56:59.920Z</time>
      </trkpt>
      <trkpt lat="42.05701" lon="19.50174">
        <ele>63.239706</ele>
        <time>2022-05-15T11:57:01.927Z</time>
      </trkpt>
      <trkpt lat="42.05706" lon="19.50185">
        <ele>63.606225</ele>
        <time>2022-05-15T11:57:03.933Z</time>
      </trkpt>
      <trkpt lat="42.05711" lon="19.50196">
        <ele>63.957027</ele>
        <time>2022-05-15T11:57:05.933Z</time>
      </trkpt>
      <trkpt lat="42.05717" lon="19.50209">
        <ele>63.796423</ele>
        <time>2022-05-15T11:57:08.938Z</time>
      </trkpt>
      <trkpt lat="42.05728" lon="19.50213">
        <ele>63.492707</ele>
        <time>2022-05-15T11:57:11.943Z</time>
      </trkpt>
      <trkpt lat="42.05741" lon="19.50213">
        <ele>63.171392</ele>
        <time>2022-05-15T11:57:14.945Z</time>
      </trkpt>
      <trkpt lat="42.05752" lon="19.50214">
        <ele>62.867756</ele>
        <time>2022-05-15T11:57:17.913Z</time>
      </trkpt>
      <trkpt lat="42.05763" lon="19.50221">
        <ele>62.549721</ele>
        <time>2022-05-15T11:57:20.947Z</time>
      </trkpt>
      <trkpt lat="42.05774" lon="19.50229">
        <ele>62.229709</ele>
        <time>2022-05-15T11:57:23.953Z</time>
      </trkpt>
      <trkpt lat="42.05784" lon="19.50238">
        <ele>61.904208</ele>
        <time>2022-05-15T11:57:26.928Z</time>
      </trkpt>
      <trkpt lat="42.05796" lon="19.50245">
        <ele>61.568602</ele>
        <time>2022-05-15T11:57:29.928Z</time>
      </trkpt>
      <trkpt lat="42.05805" lon="19.50251">
        <ele>61.280033</ele>
        <time>2022-05-15T11:57:32.934Z</time>
      </trkpt>
      <trkpt lat="42.05816" lon="19.50258">
        <ele>60.969968</ele>
        <time>2022-05-15T11:57:35.932Z</time>
      </trkpt>
      <trkpt lat="42.05827" lon="19.50266">
        <ele>60.649365</ele>
        <time>2022-05-15T11:57:38.928Z</time>
      </trkpt>
      <trkpt lat="42.05838" lon="19.50273">
        <ele>60.330305</ele>
        <time>2022-05-15T11:57:41.929Z</time>
      </trkpt>
      <trkpt lat="42.05848" lon="19.50281">
        <ele>60.027901</ele>
        <time>2022-05-15T11:57:44.915Z</time>
      </trkpt>
      <trkpt lat="42.05858" lon="19.50289">
        <ele>59.713777</ele>
        <time>2022-05-15T11:57:47.925Z</time>
      </trkpt>
      <trkpt lat="42.05868" lon="19.50298">
        <ele>59.407844</ele>
        <time>2022-05-15T11:57:50.931Z</time>
      </trkpt>
      <trkpt lat="42.05878" lon="19.50306">
        <ele>59.043465</ele>
        <time>2022-05-15T11:57:53.943Z</time>
      </trkpt>
      <trkpt lat="42.05888" lon="19.50315">
        <ele>58.65715</ele>
        <time>2022-05-15T11:57:56.943Z</time>
      </trkpt>
      <trkpt lat="42.05898" lon="19.50324">
        <ele>58.249511</ele>
        <time>2022-05-15T11:57:59.931Z</time>
      </trkpt>
      <trkpt lat="42.05908" lon="19.50332">
        <ele>57.866975</ele>
        <time>2022-05-15T11:58:02.958Z</time>
      </trkpt>
      <trkpt lat="42.05919" lon="19.50342">
        <ele>57.451077</ele>
        <time>2022-05-15T11:58:05.918Z</time>
      </trkpt>
      <trkpt lat="42.05929" lon="19.50353">
        <ele>57.032063</ele>
        <time>2022-05-15T11:58:08.917Z</time>
      </trkpt>
      <trkpt lat="42.05939" lon="19.50363">
        <ele>56.634361</ele>
        <time>2022-05-15T11:58:11.948Z</time>
      </trkpt>
      <trkpt lat="42.05949" lon="19.50371">
        <ele>56.250577</ele>
        <time>2022-05-15T11:58:14.937Z</time>
      </trkpt>
      <trkpt lat="42.05958" lon="19.50378">
        <ele>55.900199</ele>
        <time>2022-05-15T11:58:17.927Z</time>
      </trkpt>
      <trkpt lat="42.05968" lon="19.50384">
        <ele>55.565708</ele>
        <time>2022-05-15T11:58:20.942Z</time>
      </trkpt>
      <trkpt lat="42.05977" lon="19.50392">
        <ele>55.21895</ele>
        <time>2022-05-15T11:58:23.939Z</time>
      </trkpt>
      <trkpt lat="42.05986" lon="19.50401">
        <ele>54.85612</ele>
        <time>2022-05-15T11:58:26.920Z</time>
      </trkpt>
      <trkpt lat="42.05995" lon="19.50409">
        <ele>54.503663</ele>
        <time>2022-05-15T11:58:29.915Z</time>
      </trkpt>
      <trkpt lat="42.06003" lon="19.50418">
        <ele>54.152949</ele>
        <time>2022-05-15T11:58:32.919Z</time>
      </trkpt>
      <trkpt lat="42.06012" lon="19.50427">
        <ele>53.797725</ele>
        <time>2022-05-15T11:58:35.920Z</time>
      </trkpt>
      <trkpt lat="42.06021" lon="19.50436">
        <ele>53.468114</ele>
        <time>2022-05-15T11:58:38.932Z</time>
      </trkpt>
      <trkpt lat="42.06032" lon="19.50445">
        <ele>53.381875</ele>
        <time>2022-05-15T11:58:41.924Z</time>
      </trkpt>
      <trkpt lat="42.06041" lon="19.50453">
        <ele>53.301761</ele>
        <time>2022-05-15T11:58:44.924Z</time>
      </trkpt>
      <trkpt lat="42.0605" lon="19.50463">
        <ele>53.221703</ele>
        <time>2022-05-15T11:58:47.914Z</time>
      </trkpt>
      <trkpt lat="42.0606" lon="19.5047">
        <ele>53.145578</ele>
        <time>2022-05-15T11:58:50.919Z</time>
      </trkpt>
      <trkpt lat="42.06069" lon="19.50479">
        <ele>53.066233</ele>
        <time>2022-05-15T11:58:53.920Z</time>
      </trkpt>
      <trkpt lat="42.06077" lon="19.50487">
        <ele>52.995085</ele>
        <time>2022-05-15T11:58:56.930Z</time>
      </trkpt>
      <trkpt lat="42.06087" lon="19.50494">
        <ele>52.919323</ele>
        <time>2022-05-15T11:58:59.918Z</time>
      </trkpt>
      <trkpt lat="42.06096" lon="19.50502">
        <ele>52.841816</ele>
        <time>2022-05-15T11:59:02.927Z</time>
      </trkpt>
      <trkpt lat="42.06105" lon="19.5051">
        <ele>52.767149</ele>
        <time>2022-05-15T11:59:05.932Z</time>
      </trkpt>
      <trkpt lat="42.06115" lon="19.50517">
        <ele>52.689055</ele>
        <time>2022-05-15T11:59:08.928Z</time>
      </trkpt>
      <trkpt lat="42.06125" lon="19.50525">
        <ele>52.607892</ele>
        <time>2022-05-15T11:59:11.927Z</time>
      </trkpt>
      <trkpt lat="42.06135" lon="19.50533">
        <ele>52.527166</ele>
        <time>2022-05-15T11:59:14.935Z</time>
      </trkpt>
      <trkpt lat="42.06145" lon="19.50542">
        <ele>52.444164</ele>
        <time>2022-05-15T11:59:17.923Z</time>
      </trkpt>
      <trkpt lat="42.06154" lon="19.50551">
        <ele>52.364308</ele>
        <time>2022-05-15T11:59:20.914Z</time>
      </trkpt>
      <trkpt lat="42.06163" lon="19.50559">
        <ele>52.286511</ele>
        <time>2022-05-15T11:59:23.939Z</time>
      </trkpt>
      <trkpt lat="42.06173" lon="19.50569">
        <ele>52.395003</ele>
        <time>2022-05-15T11:59:26.926Z</time>
      </trkpt>
      <trkpt lat="42.06182" lon="19.50578">
        <ele>53.043561</ele>
        <time>2022-05-15T11:59:29.922Z</time>
      </trkpt>
      <trkpt lat="42.06192" lon="19.50587">
        <ele>53.674757</ele>
        <time>2022-05-15T11:59:32.951Z</time>
      </trkpt>
      <trkpt lat="42.06201" lon="19.50595">
        <ele>54.294529</ele>
        <time>2022-05-15T11:59:35.916Z</time>
      </trkpt>
      <trkpt lat="42.06211" lon="19.50604">
        <ele>54.907298</ele>
        <time>2022-05-15T11:59:38.942Z</time>
      </trkpt>
      <trkpt lat="42.06219" lon="19.50611">
        <ele>55.435767</ele>
        <time>2022-05-15T11:59:41.915Z</time>
      </trkpt>
      <trkpt lat="42.06228" lon="19.50619">
        <ele>56.030295</ele>
        <time>2022-05-15T11:59:44.938Z</time>
      </trkpt>
      <trkpt lat="42.06237" lon="19.50627">
        <ele>56.625219</ele>
        <time>2022-05-15T11:59:47.914Z</time>
      </trkpt>
      <trkpt lat="42.06246" lon="19.50634">
        <ele>57.214213</ele>
        <time>2022-05-15T11:59:50.934Z</time>
      </trkpt>
      <trkpt lat="42.06255" lon="19.50641">
        <ele>57.796595</ele>
        <time>2022-05-15T11:59:53.929Z</time>
      </trkpt>
      <trkpt lat="42.06264" lon="19.50649">
        <ele>58.386562</ele>
        <time>2022-05-15T11:59:56.918Z</time>
      </trkpt>
      <trkpt lat="42.06273" lon="19.50657">
        <ele>58.949948</ele>
        <time>2022-05-15T11:59:59.922Z</time>
      </trkpt>
      <trkpt lat="42.06281" lon="19.50664">
        <ele>59.503172</ele>
        <time>2022-05-15T12:00:02.967Z</time>
      </trkpt>
      <trkpt lat="42.0629" lon="19.50672">
        <ele>60.099973</ele>
        <time>2022-05-15T12:00:05.958Z</time>
      </trkpt>
      <trkpt lat="42.06299" lon="19.5068">
        <ele>60.683198</ele>
        <time>2022-05-15T12:00:08.919Z</time>
      </trkpt>
      <trkpt lat="42.06309" lon="19.50688">
        <ele>61.285962</ele>
        <time>2022-05-15T12:00:11.924Z</time>
      </trkpt>
      <trkpt lat="42.06318" lon="19.50697">
        <ele>61.911492</ele>
        <time>2022-05-15T12:00:14.932Z</time>
      </trkpt>
      <trkpt lat="42.06326" lon="19.50706">
        <ele>61.981192</ele>
        <time>2022-05-15T12:00:17.934Z</time>
      </trkpt>
      <trkpt lat="42.06336" lon="19.50715">
        <ele>61.765157</ele>
        <time>2022-05-15T12:00:20.931Z</time>
      </trkpt>
      <trkpt lat="42.06343" lon="19.50722">
        <ele>61.606235</ele>
        <time>2022-05-15T12:00:22.934Z</time>
      </trkpt>
      <trkpt lat="42.06354" lon="19.50733">
        <ele>61.376326</ele>
        <time>2022-05-15T12:00:25.999Z</time>
      </trkpt>
      <trkpt lat="42.06363" lon="19.50741">
        <ele>61.169082</ele>
        <time>2022-05-15T12:00:28.919Z</time>
      </trkpt>
      <trkpt lat="42.06372" lon="19.50751">
        <ele>60.968954</ele>
        <time>2022-05-15T12:00:31.913Z</time>
      </trkpt>
      <trkpt lat="42.06381" lon="19.5076">
        <ele>60.763223</ele>
        <time>2022-05-15T12:00:34.916Z</time>
      </trkpt>
      <trkpt lat="42.06391" lon="19.50769">
        <ele>60.560304</ele>
        <time>2022-05-15T12:00:37.916Z</time>
      </trkpt>
      <trkpt lat="42.06401" lon="19.50778">
        <ele>60.350594</ele>
        <time>2022-05-15T12:00:41.912Z</time>
      </trkpt>
      <trkpt lat="42.0641" lon="19.50788">
        <ele>60.139302</ele>
        <time>2022-05-15T12:00:44.933Z</time>
      </trkpt>
      <trkpt lat="42.0642" lon="19.50799">
        <ele>59.915508</ele>
        <time>2022-05-15T12:00:47.923Z</time>
      </trkpt>
      <trkpt lat="42.06429" lon="19.50811">
        <ele>59.692584</ele>
        <time>2022-05-15T12:00:50.924Z</time>
      </trkpt>
      <trkpt lat="42.06438" lon="19.50822">
        <ele>59.479174</ele>
        <time>2022-05-15T12:00:54.100Z</time>
      </trkpt>
      <trkpt lat="42.06446" lon="19.50834">
        <ele>59.266115</ele>
        <time>2022-05-15T12:00:56.907Z</time>
      </trkpt>
      <trkpt lat="42.06453" lon="19.50847">
        <ele>59.056622</ele>
        <time>2022-05-15T12:00:59.911Z</time>
      </trkpt>
      <trkpt lat="42.06459" lon="19.50861">
        <ele>58.808446</ele>
        <time>2022-05-15T12:01:02.912Z</time>
      </trkpt>
      <trkpt lat="42.06464" lon="19.50875">
        <ele>58.51894</ele>
        <time>2022-05-15T12:01:05.912Z</time>
      </trkpt>
      <trkpt lat="42.0647" lon="19.50889">
        <ele>58.220682</ele>
        <time>2022-05-15T12:01:08.925Z</time>
      </trkpt>
      <trkpt lat="42.0648" lon="19.50894">
        <ele>57.950042</ele>
        <time>2022-05-15T12:01:11.922Z</time>
      </trkpt>
      <trkpt lat="42.06491" lon="19.50895">
        <ele>57.693851</ele>
        <time>2022-05-15T12:01:14.912Z</time>
      </trkpt>
      <trkpt lat="42.06501" lon="19.50896">
        <ele>57.436885</ele>
        <time>2022-05-15T12:01:17.940Z</time>
      </trkpt>
      <trkpt lat="42.06512" lon="19.50904">
        <ele>57.132575</ele>
        <time>2022-05-15T12:01:20.927Z</time>
      </trkpt>
      <trkpt lat="42.06521" lon="19.50914">
        <ele>56.843015</ele>
        <time>2022-05-15T12:01:23.932Z</time>
      </trkpt>
      <trkpt lat="42.0653" lon="19.50922">
        <ele>56.571365</ele>
        <time>2022-05-15T12:01:26.933Z</time>
      </trkpt>
      <trkpt lat="42.06539" lon="19.50931">
        <ele>56.306328</ele>
        <time>2022-05-15T12:01:29.917Z</time>
      </trkpt>
      <trkpt lat="42.06548" lon="19.50941">
        <ele>56.025965</ele>
        <time>2022-05-15T12:01:32.909Z</time>
      </trkpt>
      <trkpt lat="42.06557" lon="19.50949">
        <ele>55.754386</ele>
        <time>2022-05-15T12:01:35.936Z</time>
      </trkpt>
      <trkpt lat="42.06566" lon="19.50957">
        <ele>55.493938</ele>
        <time>2022-05-15T12:01:38.926Z</time>
      </trkpt>
      <trkpt lat="42.06574" lon="19.50966">
        <ele>55.233906</ele>
        <time>2022-05-15T12:01:41.927Z</time>
      </trkpt>
      <trkpt lat="42.06583" lon="19.50974">
        <ele>54.968246</ele>
        <time>2022-05-15T12:01:44.939Z</time>
      </trkpt>
      <trkpt lat="42.06593" lon="19.50984">
        <ele>54.668049</ele>
        <time>2022-05-15T12:01:47.938Z</time>
      </trkpt>
      <trkpt lat="42.06602" lon="19.50993">
        <ele>54.568605</ele>
        <time>2022-05-15T12:01:50.951Z</time>
      </trkpt>
      <trkpt lat="42.06611" lon="19.51003">
        <ele>54.737371</ele>
        <time>2022-05-15T12:01:53.922Z</time>
      </trkpt>
      <trkpt lat="42.0662" lon="19.51014">
        <ele>54.910825</ele>
        <time>2022-05-15T12:01:56.915Z</time>
      </trkpt>
      <trkpt lat="42.06628" lon="19.51024">
        <ele>55.070935</ele>
        <time>2022-05-15T12:01:59.928Z</time>
      </trkpt>
      <trkpt lat="42.06636" lon="19.51033">
        <ele>55.226996</ele>
        <time>2022-05-15T12:02:02.935Z</time>
      </trkpt>
      <trkpt lat="42.06644" lon="19.51041">
        <ele>55.376957</ele>
        <time>2022-05-15T12:02:05.916Z</time>
      </trkpt>
      <trkpt lat="42.06653" lon="19.5105">
        <ele>55.531684</ele>
        <time>2022-05-15T12:02:08.974Z</time>
      </trkpt>
      <trkpt lat="42.06661" lon="19.51059">
        <ele>55.6846</ele>
        <time>2022-05-15T12:02:11.911Z</time>
      </trkpt>
      <trkpt lat="42.06669" lon="19.51067">
        <ele>55.830479</ele>
        <time>2022-05-15T12:02:14.931Z</time>
      </trkpt>
      <trkpt lat="42.06677" lon="19.51075">
        <ele>55.97006</ele>
        <time>2022-05-15T12:02:17.928Z</time>
      </trkpt>
      <trkpt lat="42.06685" lon="19.51084">
        <ele>56.121367</ele>
        <time>2022-05-15T12:02:20.935Z</time>
      </trkpt>
      <trkpt lat="42.06692" lon="19.51093">
        <ele>56.267086</ele>
        <time>2022-05-15T12:02:23.912Z</time>
      </trkpt>
      <trkpt lat="42.067" lon="19.51101">
        <ele>56.410297</ele>
        <time>2022-05-15T12:02:26.916Z</time>
      </trkpt>
      <trkpt lat="42.06711" lon="19.51113">
        <ele>56.615062</ele>
        <time>2022-05-15T12:02:29.918Z</time>
      </trkpt>
      <trkpt lat="42.0672" lon="19.5112">
        <ele>56.767969</ele>
        <time>2022-05-15T12:02:31.926Z</time>
      </trkpt>
      <trkpt lat="42.06727" lon="19.51128">
        <ele>56.902147</ele>
        <time>2022-05-15T12:02:33.931Z</time>
      </trkpt>
      <trkpt lat="42.06735" lon="19.51138">
        <ele>57.059669</ele>
        <time>2022-05-15T12:02:36.926Z</time>
      </trkpt>
      <trkpt lat="42.06744" lon="19.51147">
        <ele>57.174559</ele>
        <time>2022-05-15T12:02:39.909Z</time>
      </trkpt>
      <trkpt lat="42.06753" lon="19.51156">
        <ele>57.268928</ele>
        <time>2022-05-15T12:02:42.914Z</time>
      </trkpt>
      <trkpt lat="42.06762" lon="19.51165">
        <ele>57.364324</ele>
        <time>2022-05-15T12:02:45.921Z</time>
      </trkpt>
      <trkpt lat="42.06771" lon="19.51172">
        <ele>57.450141</ele>
        <time>2022-05-15T12:02:48.932Z</time>
      </trkpt>
      <trkpt lat="42.06779" lon="19.51183">
        <ele>57.536818</ele>
        <time>2022-05-15T12:02:51.915Z</time>
      </trkpt>
      <trkpt lat="42.06784" lon="19.51197">
        <ele>57.634109</ele>
        <time>2022-05-15T12:02:54.927Z</time>
      </trkpt>
      <trkpt lat="42.06789" lon="19.51211">
        <ele>57.733535</ele>
        <time>2022-05-15T12:02:57.926Z</time>
      </trkpt>
      <trkpt lat="42.06794" lon="19.51222">
        <ele>57.812653</ele>
        <time>2022-05-15T12:02:59.910Z</time>
      </trkpt>
      <trkpt lat="42.06801" lon="19.51232">
        <ele>57.88991</ele>
        <time>2022-05-15T12:03:01.917Z</time>
      </trkpt>
      <trkpt lat="42.0681" lon="19.51237">
        <ele>57.971135</ele>
        <time>2022-05-15T12:03:03.925Z</time>
      </trkpt>
      <trkpt lat="42.0682" lon="19.51238">
        <ele>58.052128</ele>
        <time>2022-05-15T12:03:05.938Z</time>
      </trkpt>
      <trkpt lat="42.0683" lon="19.51232">
        <ele>58.143345</ele>
        <time>2022-05-15T12:03:07.916Z</time>
      </trkpt>
      <trkpt lat="42.06835" lon="19.51219">
        <ele>58.231097</ele>
        <time>2022-05-15T12:03:09.923Z</time>
      </trkpt>
      <trkpt lat="42.06836" lon="19.51204">
        <ele>58.322384</ele>
        <time>2022-05-15T12:03:11.920Z</time>
      </trkpt>
      <trkpt lat="42.06831" lon="19.5119">
        <ele>58.418155</ele>
        <time>2022-05-15T12:03:13.938Z</time>
      </trkpt>
      <trkpt lat="42.06821" lon="19.51182">
        <ele>58.512161</ele>
        <time>2022-05-15T12:03:15.929Z</time>
      </trkpt>
      <trkpt lat="42.0681" lon="19.5118">
        <ele>58.574035</ele>
        <time>2022-05-15T12:03:17.946Z</time>
      </trkpt>
      <trkpt lat="42.06799" lon="19.51182">
        <ele>58.274893</ele>
        <time>2022-05-15T12:03:19.910Z</time>
      </trkpt>
      <trkpt lat="42.06789" lon="19.51179">
        <ele>57.978832</ele>
        <time>2022-05-15T12:03:21.921Z</time>
      </trkpt>
      <trkpt lat="42.06779" lon="19.51171">
        <ele>57.667445</ele>
        <time>2022-05-15T12:03:23.915Z</time>
      </trkpt>
      <trkpt lat="42.0677" lon="19.51161">
        <ele>57.34326</ele>
        <time>2022-05-15T12:03:25.917Z</time>
      </trkpt>
      <trkpt lat="42.06762" lon="19.51152">
        <ele>57.057287</ele>
        <time>2022-05-15T12:03:27.918Z</time>
      </trkpt>
      <trkpt lat="42.06753" lon="19.51143">
        <ele>56.736953</ele>
        <time>2022-05-15T12:03:30.912Z</time>
      </trkpt>
      <trkpt lat="42.06742" lon="19.51123">
        <ele>56.238361</ele>
        <time>2022-05-15T12:05:21.916Z</time>
      </trkpt>
      <trkpt lat="42.06734" lon="19.51116">
        <ele>55.955201</ele>
        <time>2022-05-15T12:05:25.931Z</time>
      </trkpt>
      <trkpt lat="42.06725" lon="19.5111">
        <ele>55.682936</ele>
        <time>2022-05-15T12:05:28.930Z</time>
      </trkpt>
      <trkpt lat="42.06716" lon="19.51101">
        <ele>55.39071</ele>
        <time>2022-05-15T12:05:31.988Z</time>
      </trkpt>
      <trkpt lat="42.06708" lon="19.51092">
        <ele>55.105101</ele>
        <time>2022-05-15T12:05:34.906Z</time>
      </trkpt>
      <trkpt lat="42.067" lon="19.51083">
        <ele>54.812255</ele>
        <time>2022-05-15T12:05:37.935Z</time>
      </trkpt>
      <trkpt lat="42.0669" lon="19.51076">
        <ele>54.492239</ele>
        <time>2022-05-15T12:05:40.947Z</time>
      </trkpt>
      <trkpt lat="42.06681" lon="19.51067">
        <ele>54.176245</ele>
        <time>2022-05-15T12:05:43.927Z</time>
      </trkpt>
      <trkpt lat="42.06671" lon="19.51055">
        <ele>53.804485</ele>
        <time>2022-05-15T12:05:46.916Z</time>
      </trkpt>
      <trkpt lat="42.0666" lon="19.51044">
        <ele>53.522092</ele>
        <time>2022-05-15T12:05:49.916Z</time>
      </trkpt>
      <trkpt lat="42.0665" lon="19.51032">
        <ele>53.316528</ele>
        <time>2022-05-15T12:05:52.905Z</time>
      </trkpt>
      <trkpt lat="42.0664" lon="19.51022">
        <ele>53.113264</ele>
        <time>2022-05-15T12:05:55.911Z</time>
      </trkpt>
      <trkpt lat="42.06633" lon="19.51015">
        <ele>52.969628</ele>
        <time>2022-05-15T12:05:57.929Z</time>
      </trkpt>
      <trkpt lat="42.06626" lon="19.51008">
        <ele>52.825395</ele>
        <time>2022-05-15T12:05:59.933Z</time>
      </trkpt>
      <trkpt lat="42.06615" lon="19.50997">
        <ele>52.62357</ele>
        <time>2022-05-15T12:06:02.911Z</time>
      </trkpt>
      <trkpt lat="42.06605" lon="19.50987">
        <ele>52.421028</ele>
        <time>2022-05-15T12:06:05.914Z</time>
      </trkpt>
      <trkpt lat="42.06596" lon="19.50975">
        <ele>52.215464</ele>
        <time>2022-05-15T12:06:08.958Z</time>
      </trkpt>
      <trkpt lat="42.06589" lon="19.50967">
        <ele>52.070934</ele>
        <time>2022-05-15T12:06:10.911Z</time>
      </trkpt>
      <trkpt lat="42.06581" lon="19.5096">
        <ele>51.918689</ele>
        <time>2022-05-15T12:06:12.913Z</time>
      </trkpt>
      <trkpt lat="42.06573" lon="19.50952">
        <ele>51.772479</ele>
        <time>2022-05-15T12:06:14.936Z</time>
      </trkpt>
      <trkpt lat="42.06566" lon="19.50945">
        <ele>51.628143</ele>
        <time>2022-05-15T12:06:16.916Z</time>
      </trkpt>
      <trkpt lat="42.06559" lon="19.50938">
        <ele>51.483956</ele>
        <time>2022-05-15T12:06:18.954Z</time>
      </trkpt>
      <trkpt lat="42.06549" lon="19.50926">
        <ele>51.270555</ele>
        <time>2022-05-15T12:06:21.917Z</time>
      </trkpt>
      <trkpt lat="42.06542" lon="19.50918">
        <ele>51.127551</ele>
        <time>2022-05-15T12:06:23.937Z</time>
      </trkpt>
      <trkpt lat="42.06535" lon="19.50911">
        <ele>50.982333</ele>
        <time>2022-05-15T12:06:25.912Z</time>
      </trkpt>
      <trkpt lat="42.06528" lon="19.50903">
        <ele>50.8396</ele>
        <time>2022-05-15T12:06:27.921Z</time>
      </trkpt>
      <trkpt lat="42.0652" lon="19.50893">
        <ele>50.776767</ele>
        <time>2022-05-15T12:06:30.919Z</time>
      </trkpt>
      <trkpt lat="42.06511" lon="19.50882">
        <ele>50.776767</ele>
        <time>2022-05-15T12:06:34.921Z</time>
      </trkpt>
      <trkpt lat="42.06502" lon="19.50873">
        <ele>50.776767</ele>
        <time>2022-05-15T12:06:37.934Z</time>
      </trkpt>
      <trkpt lat="42.06492" lon="19.50865">
        <ele>50.776767</ele>
        <time>2022-05-15T12:06:40.939Z</time>
      </trkpt>
      <trkpt lat="42.06483" lon="19.50857">
        <ele>50.776767</ele>
        <time>2022-05-15T12:06:43.920Z</time>
      </trkpt>
      <trkpt lat="42.06474" lon="19.50851">
        <ele>50.776767</ele>
        <time>2022-05-15T12:06:47.931Z</time>
      </trkpt>
      <trkpt lat="42.06463" lon="19.50844">
        <ele>50.776767</ele>
        <time>2022-05-15T12:06:51.909Z</time>
      </trkpt>
      <trkpt lat="42.06457" lon="19.50834">
        <ele>50.776767</ele>
        <time>2022-05-15T12:06:56.915Z</time>
      </trkpt>
      <trkpt lat="42.06453" lon="19.50848">
        <ele>50.776767</ele>
        <time>2022-05-15T12:07:23.929Z</time>
      </trkpt>
      <trkpt lat="42.06454" lon="19.5086">
        <ele>50.776767</ele>
        <time>2022-05-15T12:07:28.927Z</time>
      </trkpt>
      <trkpt lat="42.06439" lon="19.5085">
        <ele>50.776767</ele>
        <time>2022-05-15T12:11:32.873Z</time>
      </trkpt>
    </trkseg>
  </trk>
  <trk>
    <name><![CDATA[Tour d'Europe: étape 685]]></name>
    <extensions>
      <line xmlns="http://www.topografix.com/GPX/gpx_style/0/2">
        <color>008888</color>
        <width>4</width>
      </line>
    </extensions>
    <trkseg>
      <trkpt lat="41.32614" lon="19.80579">
        <ele>147.541142</ele>
        <time>2022-05-14T08:21:05.097Z</time>
      </trkpt>
      <trkpt lat="41.32617" lon="19.80565">
        <ele>147.541142</ele>
        <time>2022-05-14T08:21:11.070Z</time>
      </trkpt>
      <trkpt lat="41.32626" lon="19.80555">
        <ele>147.541142</ele>
        <time>2022-05-14T08:21:15.074Z</time>
      </trkpt>
      <trkpt lat="41.32633" lon="19.80546">
        <ele>147.541142</ele>
        <time>2022-05-14T08:21:19.053Z</time>
      </trkpt>
      <trkpt lat="41.32643" lon="19.80544">
        <ele>147.541142</ele>
        <time>2022-05-14T08:21:23.097Z</time>
      </trkpt>
      <trkpt lat="41.32647" lon="19.80555">
        <ele>147.541142</ele>
        <time>2022-05-14T08:21:27.066Z</time>
      </trkpt>
      <trkpt lat="41.32651" lon="19.80567">
        <ele>147.541142</ele>
        <time>2022-05-14T08:21:31.070Z</time>
      </trkpt>
      <trkpt lat="41.32656" lon="19.80581">
        <ele>147.541142</ele>
        <time>2022-05-14T08:21:35.100Z</time>
      </trkpt>
      <trkpt lat="41.3266" lon="19.80592">
        <ele>147.541142</ele>
        <time>2022-05-14T08:21:38.064Z</time>
      </trkpt>
      <trkpt lat="41.32662" lon="19.80604">
        <ele>147.593286</ele>
        <time>2022-05-14T08:21:41.067Z</time>
      </trkpt>
      <trkpt lat="41.32663" lon="19.80619">
        <ele>148.071248</ele>
        <time>2022-05-14T08:21:45.086Z</time>
      </trkpt>
      <trkpt lat="41.32665" lon="19.80634">
        <ele>148.554732</ele>
        <time>2022-05-14T08:21:49.074Z</time>
      </trkpt>
      <trkpt lat="41.32669" lon="19.80646">
        <ele>148.947377</ele>
        <time>2022-05-14T08:21:52.075Z</time>
      </trkpt>
      <trkpt lat="41.32674" lon="19.80657">
        <ele>149.352221</ele>
        <time>2022-05-14T08:21:55.056Z</time>
      </trkpt>
      <trkpt lat="41.32677" lon="19.80669">
        <ele>149.754736</ele>
        <time>2022-05-14T08:21:58.101Z</time>
      </trkpt>
      <trkpt lat="41.32678" lon="19.80685">
        <ele>150.237882</ele>
        <time>2022-05-14T08:22:01.076Z</time>
      </trkpt>
      <trkpt lat="41.32681" lon="19.80697">
        <ele>150.629233</ele>
        <time>2022-05-14T08:22:04.087Z</time>
      </trkpt>
      <trkpt lat="41.32686" lon="19.80708">
        <ele>151.040261</ele>
        <time>2022-05-14T08:22:07.099Z</time>
      </trkpt>
      <trkpt lat="41.32692" lon="19.80718">
        <ele>151.44325</ele>
        <time>2022-05-14T08:22:10.088Z</time>
      </trkpt>
      <trkpt lat="41.32698" lon="19.80732">
        <ele>151.941738</ele>
        <time>2022-05-14T08:22:14.091Z</time>
      </trkpt>
      <trkpt lat="41.32702" lon="19.80744">
        <ele>152.353307</ele>
        <time>2022-05-14T08:22:17.069Z</time>
      </trkpt>
      <trkpt lat="41.32706" lon="19.80755">
        <ele>152.746704</ele>
        <time>2022-05-14T08:22:20.105Z</time>
      </trkpt>
      <trkpt lat="41.32711" lon="19.80766">
        <ele>153.152399</ele>
        <time>2022-05-14T08:22:23.082Z</time>
      </trkpt>
      <trkpt lat="41.32717" lon="19.80778">
        <ele>153.599571</ele>
        <time>2022-05-14T08:22:26.106Z</time>
      </trkpt>
      <trkpt lat="41.32721" lon="19.80794">
        <ele>154.103304</ele>
        <time>2022-05-14T08:22:29.081Z</time>
      </trkpt>
      <trkpt lat="41.32724" lon="19.80809">
        <ele>154.602333</ele>
        <time>2022-05-14T08:22:32.096Z</time>
      </trkpt>
      <trkpt lat="41.32727" lon="19.80824">
        <ele>155.038068</ele>
        <time>2022-05-14T08:22:35.075Z</time>
      </trkpt>
      <trkpt lat="41.32729" lon="19.8084">
        <ele>155.249011</ele>
        <time>2022-05-14T08:22:38.086Z</time>
      </trkpt>
      <trkpt lat="41.32733" lon="19.80855">
        <ele>155.452806</ele>
        <time>2022-05-14T08:22:41.079Z</time>
      </trkpt>
      <trkpt lat="41.32736" lon="19.80866">
        <ele>155.611955</ele>
        <time>2022-05-14T08:22:44.053Z</time>
      </trkpt>
      <trkpt lat="41.3274" lon="19.80879">
        <ele>155.788562</ele>
        <time>2022-05-14T08:22:47.075Z</time>
      </trkpt>
      <trkpt lat="41.32745" lon="19.80892">
        <ele>155.985652</ele>
        <time>2022-05-14T08:22:50.101Z</time>
      </trkpt>
      <trkpt lat="41.32749" lon="19.80907">
        <ele>156.186656</ele>
        <time>2022-05-14T08:22:53.067Z</time>
      </trkpt>
      <trkpt lat="41.32753" lon="19.8092">
        <ele>156.37054</ele>
        <time>2022-05-14T08:22:56.078Z</time>
      </trkpt>
      <trkpt lat="41.32757" lon="19.80932">
        <ele>156.547747</ele>
        <time>2022-05-14T08:22:59.071Z</time>
      </trkpt>
      <trkpt lat="41.32762" lon="19.80946">
        <ele>156.746247</ele>
        <time>2022-05-14T08:23:02.080Z</time>
      </trkpt>
      <trkpt lat="41.32766" lon="19.80961">
        <ele>156.950318</ele>
        <time>2022-05-14T08:23:05.068Z</time>
      </trkpt>
      <trkpt lat="41.3277" lon="19.80974">
        <ele>157.130332</ele>
        <time>2022-05-14T08:23:08.073Z</time>
      </trkpt>
      <trkpt lat="41.32774" lon="19.80987">
        <ele>157.317251</ele>
        <time>2022-05-14T08:23:11.072Z</time>
      </trkpt>
      <trkpt lat="41.32778" lon="19.81">
        <ele>157.497744</ele>
        <time>2022-05-14T08:23:14.078Z</time>
      </trkpt>
      <trkpt lat="41.32783" lon="19.81013">
        <ele>157.68786</ele>
        <time>2022-05-14T08:23:17.068Z</time>
      </trkpt>
      <trkpt lat="41.32788" lon="19.81027">
        <ele>157.886458</ele>
        <time>2022-05-14T08:23:20.067Z</time>
      </trkpt>
      <trkpt lat="41.32793" lon="19.8104">
        <ele>158.085342</ele>
        <time>2022-05-14T08:23:23.083Z</time>
      </trkpt>
      <trkpt lat="41.32797" lon="19.81055">
        <ele>157.973151</ele>
        <time>2022-05-14T08:23:26.068Z</time>
      </trkpt>
      <trkpt lat="41.32802" lon="19.81069">
        <ele>157.783541</ele>
        <time>2022-05-14T08:23:29.075Z</time>
      </trkpt>
      <trkpt lat="41.32807" lon="19.81082">
        <ele>157.602398</ele>
        <time>2022-05-14T08:23:32.076Z</time>
      </trkpt>
      <trkpt lat="41.32811" lon="19.81094">
        <ele>157.434441</ele>
        <time>2022-05-14T08:23:35.077Z</time>
      </trkpt>
      <trkpt lat="41.32817" lon="19.81105">
        <ele>157.273115</ele>
        <time>2022-05-14T08:23:38.084Z</time>
      </trkpt>
      <trkpt lat="41.3282" lon="19.81117">
        <ele>157.113347</ele>
        <time>2022-05-14T08:23:41.132Z</time>
      </trkpt>
      <trkpt lat="41.32825" lon="19.81131">
        <ele>156.934939</ele>
        <time>2022-05-14T08:23:45.095Z</time>
      </trkpt>
      <trkpt lat="41.32828" lon="19.81143">
        <ele>156.771041</ele>
        <time>2022-05-14T08:23:50.082Z</time>
      </trkpt>
      <trkpt lat="41.32839" lon="19.81149">
        <ele>156.579294</ele>
        <time>2022-05-14T08:23:59.068Z</time>
      </trkpt>
      <trkpt lat="41.32849" lon="19.81153">
        <ele>156.408957</ele>
        <time>2022-05-14T08:24:02.091Z</time>
      </trkpt>
      <trkpt lat="41.32859" lon="19.81157">
        <ele>156.248009</ele>
        <time>2022-05-14T08:24:05.083Z</time>
      </trkpt>
      <trkpt lat="41.32869" lon="19.81164">
        <ele>156.052272</ele>
        <time>2022-05-14T08:24:09.081Z</time>
      </trkpt>
      <trkpt lat="41.3288" lon="19.81167">
        <ele>155.873266</ele>
        <time>2022-05-14T08:24:13.079Z</time>
      </trkpt>
      <trkpt lat="41.3289" lon="19.81172">
        <ele>155.708694</ele>
        <time>2022-05-14T08:24:16.088Z</time>
      </trkpt>
      <trkpt lat="41.32898" lon="19.81178">
        <ele>155.549411</ele>
        <time>2022-05-14T08:24:19.074Z</time>
      </trkpt>
      <trkpt lat="41.3291" lon="19.81184">
        <ele>155.340303</ele>
        <time>2022-05-14T08:24:23.161Z</time>
      </trkpt>
      <trkpt lat="41.32919" lon="19.81187">
        <ele>155.184017</ele>
        <time>2022-05-14T08:24:26.059Z</time>
      </trkpt>
      <trkpt lat="41.32928" lon="19.81191">
        <ele>155.255587</ele>
        <time>2022-05-14T08:24:29.075Z</time>
      </trkpt>
      <trkpt lat="41.32937" lon="19.81201">
        <ele>155.341943</ele>
        <time>2022-05-14T08:24:32.059Z</time>
      </trkpt>
      <trkpt lat="41.32946" lon="19.8121">
        <ele>155.426167</ele>
        <time>2022-05-14T08:24:35.066Z</time>
      </trkpt>
      <trkpt lat="41.32956" lon="19.81216">
        <ele>155.506782</ele>
        <time>2022-05-14T08:24:38.081Z</time>
      </trkpt>
      <trkpt lat="41.32966" lon="19.81216">
        <ele>155.580873</ele>
        <time>2022-05-14T08:24:41.055Z</time>
      </trkpt>
      <trkpt lat="41.32975" lon="19.81208">
        <ele>155.662989</ele>
        <time>2022-05-14T08:24:44.072Z</time>
      </trkpt>
      <trkpt lat="41.32981" lon="19.81197">
        <ele>155.742621</ele>
        <time>2022-05-14T08:24:47.101Z</time>
      </trkpt>
      <trkpt lat="41.32991" lon="19.81195">
        <ele>155.818689</ele>
        <time>2022-05-14T08:24:51.088Z</time>
      </trkpt>
      <trkpt lat="41.33002" lon="19.81196">
        <ele>155.897555</ele>
        <time>2022-05-14T08:24:54.141Z</time>
      </trkpt>
      <trkpt lat="41.33013" lon="19.81197">
        <ele>155.98184</ele>
        <time>2022-05-14T08:24:57.074Z</time>
      </trkpt>
      <trkpt lat="41.33022" lon="19.81203">
        <ele>156.05531</ele>
        <time>2022-05-14T08:25:01.061Z</time>
      </trkpt>
      <trkpt lat="41.33032" lon="19.81206">
        <ele>156.135955</ele>
        <time>2022-05-14T08:25:10.068Z</time>
      </trkpt>
      <trkpt lat="41.33037" lon="19.81196">
        <ele>156.208666</ele>
        <time>2022-05-14T08:25:14.083Z</time>
      </trkpt>
      <trkpt lat="41.33043" lon="19.81186">
        <ele>156.277756</ele>
        <time>2022-05-14T08:25:17.049Z</time>
      </trkpt>
      <trkpt lat="41.33049" lon="19.81176">
        <ele>156.347787</ele>
        <time>2022-05-14T08:25:20.077Z</time>
      </trkpt>
      <trkpt lat="41.33053" lon="19.81165">
        <ele>156.419136</ele>
        <time>2022-05-14T08:25:23.068Z</time>
      </trkpt>
      <trkpt lat="41.3306" lon="19.81151">
        <ele>156.511607</ele>
        <time>2022-05-14T08:25:27.063Z</time>
      </trkpt>
      <trkpt lat="41.33063" lon="19.81138">
        <ele>156.533272</ele>
        <time>2022-05-14T08:25:30.034Z</time>
      </trkpt>
      <trkpt lat="41.33067" lon="19.81126">
        <ele>156.517751</ele>
        <time>2022-05-14T08:25:33.063Z</time>
      </trkpt>
      <trkpt lat="41.33073" lon="19.81116">
        <ele>156.503151</ele>
        <time>2022-05-14T08:25:36.071Z</time>
      </trkpt>
      <trkpt lat="41.33077" lon="19.81103">
        <ele>156.486664</ele>
        <time>2022-05-14T08:25:39.076Z</time>
      </trkpt>
      <trkpt lat="41.33081" lon="19.81092">
        <ele>156.472512</ele>
        <time>2022-05-14T08:25:41.066Z</time>
      </trkpt>
      <trkpt lat="41.33083" lon="19.81078">
        <ele>156.455606</ele>
        <time>2022-05-14T08:25:43.055Z</time>
      </trkpt>
      <trkpt lat="41.33086" lon="19.8106">
        <ele>156.434777</ele>
        <time>2022-05-14T08:25:45.069Z</time>
      </trkpt>
      <trkpt lat="41.33091" lon="19.81045">
        <ele>156.415354</ele>
        <time>2022-05-14T08:25:47.074Z</time>
      </trkpt>
      <trkpt lat="41.33098" lon="19.81031">
        <ele>156.396191</ele>
        <time>2022-05-14T08:25:49.062Z</time>
      </trkpt>
      <trkpt lat="41.33103" lon="19.81019">
        <ele>156.380049</ele>
        <time>2022-05-14T08:25:51.064Z</time>
      </trkpt>
      <trkpt lat="41.33108" lon="19.81006">
        <ele>156.363136</ele>
        <time>2022-05-14T08:25:53.092Z</time>
      </trkpt>
      <trkpt lat="41.33111" lon="19.80993">
        <ele>156.346922</ele>
        <time>2022-05-14T08:25:55.100Z</time>
      </trkpt>
      <trkpt lat="41.33116" lon="19.80981">
        <ele>156.331387</ele>
        <time>2022-05-14T08:25:57.074Z</time>
      </trkpt>
      <trkpt lat="41.33119" lon="19.8097">
        <ele>156.317209</ele>
        <time>2022-05-14T08:25:59.061Z</time>
      </trkpt>
      <trkpt lat="41.33123" lon="19.80958">
        <ele>156.303049</ele>
        <time>2022-05-14T08:26:01.102Z</time>
      </trkpt>
      <trkpt lat="41.33127" lon="19.80947">
        <ele>156.288127</ele>
        <time>2022-05-14T08:26:03.054Z</time>
      </trkpt>
      <trkpt lat="41.33131" lon="19.80934">
        <ele>156.2717</ele>
        <time>2022-05-14T08:26:06.079Z</time>
      </trkpt>
      <trkpt lat="41.33134" lon="19.80919">
        <ele>156.151598</ele>
        <time>2022-05-14T08:26:10.103Z</time>
      </trkpt>
      <trkpt lat="41.33139" lon="19.80902">
        <ele>155.939158</ele>
        <time>2022-05-14T08:26:13.079Z</time>
      </trkpt>
      <trkpt lat="41.33144" lon="19.80891">
        <ele>155.77725</ele>
        <time>2022-05-14T08:26:15.082Z</time>
      </trkpt>
      <trkpt lat="41.33151" lon="19.80878">
        <ele>155.588546</ele>
        <time>2022-05-14T08:26:18.050Z</time>
      </trkpt>
      <trkpt lat="41.33156" lon="19.80862">
        <ele>155.382854</ele>
        <time>2022-05-14T08:26:21.151Z</time>
      </trkpt>
      <trkpt lat="41.3316" lon="19.80849">
        <ele>155.214715</ele>
        <time>2022-05-14T08:26:23.089Z</time>
      </trkpt>
      <trkpt lat="41.33165" lon="19.80836">
        <ele>155.038489</ele>
        <time>2022-05-14T08:26:25.068Z</time>
      </trkpt>
      <trkpt lat="41.3317" lon="19.80822">
        <ele>154.857959</ele>
        <time>2022-05-14T08:26:27.083Z</time>
      </trkpt>
      <trkpt lat="41.33173" lon="19.8081">
        <ele>154.708383</ele>
        <time>2022-05-14T08:26:29.117Z</time>
      </trkpt>
      <trkpt lat="41.33178" lon="19.80794">
        <ele>154.494516</ele>
        <time>2022-05-14T08:26:32.063Z</time>
      </trkpt>
      <trkpt lat="41.33182" lon="19.80783">
        <ele>154.351094</ele>
        <time>2022-05-14T08:26:34.061Z</time>
      </trkpt>
      <trkpt lat="41.33186" lon="19.80772">
        <ele>154.207623</ele>
        <time>2022-05-14T08:26:36.146Z</time>
      </trkpt>
      <trkpt lat="41.3319" lon="19.80761">
        <ele>154.057797</ele>
        <time>2022-05-14T08:26:38.074Z</time>
      </trkpt>
      <trkpt lat="41.33193" lon="19.80749">
        <ele>153.903282</ele>
        <time>2022-05-14T08:26:40.097Z</time>
      </trkpt>
      <trkpt lat="41.33196" lon="19.80734">
        <ele>153.721003</ele>
        <time>2022-05-14T08:26:42.082Z</time>
      </trkpt>
      <trkpt lat="41.332" lon="19.8072">
        <ele>153.542852</ele>
        <time>2022-05-14T08:26:44.084Z</time>
      </trkpt>
      <trkpt lat="41.33205" lon="19.80708">
        <ele>153.305987</ele>
        <time>2022-05-14T08:26:46.072Z</time>
      </trkpt>
      <trkpt lat="41.3321" lon="19.80696">
        <ele>152.614841</ele>
        <time>2022-05-14T08:26:48.124Z</time>
      </trkpt>
      <trkpt lat="41.33215" lon="19.80684">
        <ele>151.965991</ele>
        <time>2022-05-14T08:26:50.066Z</time>
      </trkpt>
      <trkpt lat="41.3322" lon="19.80673">
        <ele>151.336115</ele>
        <time>2022-05-14T08:26:52.059Z</time>
      </trkpt>
      <trkpt lat="41.33225" lon="19.80661">
        <ele>150.613505</ele>
        <time>2022-05-14T08:26:54.065Z</time>
      </trkpt>
      <trkpt lat="41.33231" lon="19.80649">
        <ele>149.926635</ele>
        <time>2022-05-14T08:26:56.118Z</time>
      </trkpt>
      <trkpt lat="41.33236" lon="19.80636">
        <ele>149.183572</ele>
        <time>2022-05-14T08:26:58.075Z</time>
      </trkpt>
      <trkpt lat="41.33241" lon="19.80624">
        <ele>148.484839</ele>
        <time>2022-05-14T08:27:00.065Z</time>
      </trkpt>
      <trkpt lat="41.33246" lon="19.80611">
        <ele>147.790477</ele>
        <time>2022-05-14T08:27:02.096Z</time>
      </trkpt>
      <trkpt lat="41.33251" lon="19.806">
        <ele>147.149727</ele>
        <time>2022-05-14T08:27:04.066Z</time>
      </trkpt>
      <trkpt lat="41.33256" lon="19.80584">
        <ele>146.273088</ele>
        <time>2022-05-14T08:27:07.044Z</time>
      </trkpt>
      <trkpt lat="41.3326" lon="19.80572">
        <ele>145.646654</ele>
        <time>2022-05-14T08:27:09.069Z</time>
      </trkpt>
      <trkpt lat="41.33264" lon="19.80561">
        <ele>145.051719</ele>
        <time>2022-05-14T08:27:11.083Z</time>
      </trkpt>
      <trkpt lat="41.33269" lon="19.8055">
        <ele>144.40222</ele>
        <time>2022-05-14T08:27:14.079Z</time>
      </trkpt>
      <trkpt lat="41.33274" lon="19.80535">
        <ele>143.582029</ele>
        <time>2022-05-14T08:27:19.072Z</time>
      </trkpt>
      <trkpt lat="41.33278" lon="19.8052">
        <ele>142.759395</ele>
        <time>2022-05-14T08:27:22.078Z</time>
      </trkpt>
      <trkpt lat="41.33282" lon="19.80505">
        <ele>141.980299</ele>
        <time>2022-05-14T08:27:25.081Z</time>
      </trkpt>
      <trkpt lat="41.3329" lon="19.80497">
        <ele>141.553551</ele>
        <time>2022-05-14T08:27:32.074Z</time>
      </trkpt>
      <trkpt lat="41.33302" lon="19.80498">
        <ele>141.760473</ele>
        <time>2022-05-14T08:27:35.142Z</time>
      </trkpt>
      <trkpt lat="41.33315" lon="19.80498">
        <ele>141.993721</ele>
        <time>2022-05-14T08:27:38.100Z</time>
      </trkpt>
      <trkpt lat="41.33324" lon="19.805">
        <ele>142.161904</ele>
        <time>2022-05-14T08:27:40.067Z</time>
      </trkpt>
      <trkpt lat="41.33333" lon="19.80504">
        <ele>142.321252</ele>
        <time>2022-05-14T08:27:42.064Z</time>
      </trkpt>
      <trkpt lat="41.3334" lon="19.80512">
        <ele>142.491226</ele>
        <time>2022-05-14T08:27:44.063Z</time>
      </trkpt>
      <trkpt lat="41.3335" lon="19.80524">
        <ele>142.732251</ele>
        <time>2022-05-14T08:27:47.076Z</time>
      </trkpt>
      <trkpt lat="41.33358" lon="19.80533">
        <ele>142.907595</ele>
        <time>2022-05-14T08:27:49.080Z</time>
      </trkpt>
      <trkpt lat="41.33365" lon="19.80541">
        <ele>143.073783</ele>
        <time>2022-05-14T08:27:51.050Z</time>
      </trkpt>
      <trkpt lat="41.33374" lon="19.80551">
        <ele>143.28165</ele>
        <time>2022-05-14T08:27:54.066Z</time>
      </trkpt>
      <trkpt lat="41.33381" lon="19.80559">
        <ele>143.448677</ele>
        <time>2022-05-14T08:27:57.095Z</time>
      </trkpt>
      <trkpt lat="41.33388" lon="19.80568">
        <ele>143.618203</ele>
        <time>2022-05-14T08:28:01.079Z</time>
      </trkpt>
      <trkpt lat="41.33396" lon="19.80583">
        <ele>143.862295</ele>
        <time>2022-05-14T08:28:06.069Z</time>
      </trkpt>
      <trkpt lat="41.33404" lon="19.80593">
        <ele>144.044873</ele>
        <time>2022-05-14T08:28:10.079Z</time>
      </trkpt>
      <trkpt lat="41.33421" lon="19.80614">
        <ele>144.462031</ele>
        <time>2022-05-14T08:28:39.103Z</time>
      </trkpt>
      <trkpt lat="41.33432" lon="19.80611">
        <ele>144.668147</ele>
        <time>2022-05-14T08:28:42.074Z</time>
      </trkpt>
      <trkpt lat="41.33443" lon="19.80603">
        <ele>144.810975</ele>
        <time>2022-05-14T08:28:45.082Z</time>
      </trkpt>
      <trkpt lat="41.33455" lon="19.80594">
        <ele>144.967706</ele>
        <time>2022-05-14T08:28:48.074Z</time>
      </trkpt>
      <trkpt lat="41.33464" lon="19.80587">
        <ele>145.082214</ele>
        <time>2022-05-14T08:28:50.065Z</time>
      </trkpt>
      <trkpt lat="41.33474" lon="19.80581">
        <ele>145.205085</ele>
        <time>2022-05-14T08:28:53.102Z</time>
      </trkpt>
      <trkpt lat="41.33482" lon="19.80576">
        <ele>145.311471</ele>
        <time>2022-05-14T08:28:59.115Z</time>
      </trkpt>
      <trkpt lat="41.3349" lon="19.80568">
        <ele>145.424327</ele>
        <time>2022-05-14T08:29:02.077Z</time>
      </trkpt>
      <trkpt lat="41.33501" lon="19.8056">
        <ele>145.561545</ele>
        <time>2022-05-14T08:29:05.104Z</time>
      </trkpt>
      <trkpt lat="41.33511" lon="19.80553">
        <ele>145.689227</ele>
        <time>2022-05-14T08:29:08.084Z</time>
      </trkpt>
      <trkpt lat="41.33521" lon="19.80543">
        <ele>145.838794</ele>
        <time>2022-05-14T08:29:11.070Z</time>
      </trkpt>
      <trkpt lat="41.33529" lon="19.80537">
        <ele>145.940548</ele>
        <time>2022-05-14T08:29:13.073Z</time>
      </trkpt>
      <trkpt lat="41.33539" lon="19.80528">
        <ele>146.0783</ele>
        <time>2022-05-14T08:29:16.053Z</time>
      </trkpt>
      <trkpt lat="41.33547" lon="19.80522">
        <ele>146.179617</ele>
        <time>2022-05-14T08:29:18.075Z</time>
      </trkpt>
      <trkpt lat="41.33558" lon="19.80515">
        <ele>146.311822</ele>
        <time>2022-05-14T08:29:21.073Z</time>
      </trkpt>
      <trkpt lat="41.33569" lon="19.80509">
        <ele>146.448126</ele>
        <time>2022-05-14T08:29:24.061Z</time>
      </trkpt>
      <trkpt lat="41.33577" lon="19.80503">
        <ele>146.554511</ele>
        <time>2022-05-14T08:29:27.068Z</time>
      </trkpt>
      <trkpt lat="41.33591" lon="19.80495">
        <ele>146.697515</ele>
        <time>2022-05-14T08:29:30.096Z</time>
      </trkpt>
      <trkpt lat="41.33604" lon="19.80488">
        <ele>146.432928</ele>
        <time>2022-05-14T08:29:32.085Z</time>
      </trkpt>
      <trkpt lat="41.33616" lon="19.80481">
        <ele>146.187924</ele>
        <time>2022-05-14T08:29:34.080Z</time>
      </trkpt>
      <trkpt lat="41.33627" lon="19.80476">
        <ele>145.961439</ele>
        <time>2022-05-14T08:29:36.079Z</time>
      </trkpt>
      <trkpt lat="41.33636" lon="19.8047">
        <ele>145.769815</ele>
        <time>2022-05-14T08:29:38.077Z</time>
      </trkpt>
      <trkpt lat="41.33645" lon="19.80467">
        <ele>145.59324</ele>
        <time>2022-05-14T08:29:40.100Z</time>
      </trkpt>
      <trkpt lat="41.33654" lon="19.80462">
        <ele>145.410133</ele>
        <time>2022-05-14T08:29:42.079Z</time>
      </trkpt>
      <trkpt lat="41.33663" lon="19.80458">
        <ele>145.226726</ele>
        <time>2022-05-14T08:29:44.059Z</time>
      </trkpt>
      <trkpt lat="41.33672" lon="19.80453">
        <ele>145.045554</ele>
        <time>2022-05-14T08:29:46.079Z</time>
      </trkpt>
      <trkpt lat="41.33681" lon="19.80448">
        <ele>144.868473</ele>
        <time>2022-05-14T08:29:48.079Z</time>
      </trkpt>
      <trkpt lat="41.33689" lon="19.80442">
        <ele>144.687709</ele>
        <time>2022-05-14T08:29:50.088Z</time>
      </trkpt>
      <trkpt lat="41.33698" lon="19.80436">
        <ele>144.499885</ele>
        <time>2022-05-14T08:29:52.060Z</time>
      </trkpt>
      <trkpt lat="41.33706" lon="19.80431">
        <ele>144.329668</ele>
        <time>2022-05-14T08:29:54.082Z</time>
      </trkpt>
      <trkpt lat="41.33716" lon="19.80427">
        <ele>144.143884</ele>
        <time>2022-05-14T08:29:56.102Z</time>
      </trkpt>
      <trkpt lat="41.33725" lon="19.80421">
        <ele>143.942457</ele>
        <time>2022-05-14T08:29:58.097Z</time>
      </trkpt>
      <trkpt lat="41.33735" lon="19.80416">
        <ele>143.738177</ele>
        <time>2022-05-14T08:30:00.079Z</time>
      </trkpt>
      <trkpt lat="41.33745" lon="19.8041">
        <ele>143.528949</ele>
        <time>2022-05-14T08:30:03.072Z</time>
      </trkpt>
      <trkpt lat="41.33755" lon="19.80402">
        <ele>143.309148</ele>
        <time>2022-05-14T08:30:07.102Z</time>
      </trkpt>
      <trkpt lat="41.33763" lon="19.80394">
        <ele>143.110924</ele>
        <time>2022-05-14T08:30:11.075Z</time>
      </trkpt>
      <trkpt lat="41.33771" lon="19.80385">
        <ele>142.922166</ele>
        <time>2022-05-14T08:30:14.082Z</time>
      </trkpt>
      <trkpt lat="41.33778" lon="19.80378">
        <ele>142.741624</ele>
        <time>2022-05-14T08:30:17.056Z</time>
      </trkpt>
      <trkpt lat="41.33787" lon="19.80373">
        <ele>142.55315</ele>
        <time>2022-05-14T08:30:20.093Z</time>
      </trkpt>
      <trkpt lat="41.33797" lon="19.80364">
        <ele>142.315422</ele>
        <time>2022-05-14T08:30:23.059Z</time>
      </trkpt>
      <trkpt lat="41.33808" lon="19.80355">
        <ele>142.070099</ele>
        <time>2022-05-14T08:30:26.118Z</time>
      </trkpt>
      <trkpt lat="41.33819" lon="19.80349">
        <ele>141.840742</ele>
        <time>2022-05-14T08:30:30.080Z</time>
      </trkpt>
      <trkpt lat="41.33831" lon="19.8034">
        <ele>141.569445</ele>
        <time>2022-05-14T08:30:33.063Z</time>
      </trkpt>
      <trkpt lat="41.3384" lon="19.80333">
        <ele>141.354405</ele>
        <time>2022-05-14T08:30:35.062Z</time>
      </trkpt>
      <trkpt lat="41.33851" lon="19.80326">
        <ele>141.129464</ele>
        <time>2022-05-14T08:30:37.098Z</time>
      </trkpt>
      <trkpt lat="41.33863" lon="19.80318">
        <ele>140.873206</ele>
        <time>2022-05-14T08:30:39.078Z</time>
      </trkpt>
      <trkpt lat="41.33874" lon="19.80313">
        <ele>140.635116</ele>
        <time>2022-05-14T08:30:41.077Z</time>
      </trkpt>
      <trkpt lat="41.33885" lon="19.80307">
        <ele>140.411067</ele>
        <time>2022-05-14T08:30:43.116Z</time>
      </trkpt>
      <trkpt lat="41.33895" lon="19.80301">
        <ele>140.200639</ele>
        <time>2022-05-14T08:30:46.071Z</time>
      </trkpt>
      <trkpt lat="41.33905" lon="19.80294">
        <ele>139.96772</ele>
        <time>2022-05-14T08:30:50.083Z</time>
      </trkpt>
      <trkpt lat="41.33915" lon="19.80289">
        <ele>139.845222</ele>
        <time>2022-05-14T08:30:54.101Z</time>
      </trkpt>
      <trkpt lat="41.33924" lon="19.80283">
        <ele>140.104608</ele>
        <time>2022-05-14T08:30:57.075Z</time>
      </trkpt>
      <trkpt lat="41.33934" lon="19.80277">
        <ele>140.419919</ele>
        <time>2022-05-14T08:31:00.059Z</time>
      </trkpt>
      <trkpt lat="41.33944" lon="19.80271">
        <ele>140.69236</ele>
        <time>2022-05-14T08:31:02.074Z</time>
      </trkpt>
      <trkpt lat="41.33955" lon="19.80263">
        <ele>141.043608</ele>
        <time>2022-05-14T08:31:05.076Z</time>
      </trkpt>
      <trkpt lat="41.33967" lon="19.80255">
        <ele>141.376463</ele>
        <time>2022-05-14T08:31:08.082Z</time>
      </trkpt>
      <trkpt lat="41.33979" lon="19.80247">
        <ele>141.742745</ele>
        <time>2022-05-14T08:31:11.103Z</time>
      </trkpt>
      <trkpt lat="41.33991" lon="19.8024">
        <ele>142.087449</ele>
        <time>2022-05-14T08:31:14.081Z</time>
      </trkpt>
      <trkpt lat="41.34001" lon="19.80233">
        <ele>142.390489</ele>
        <time>2022-05-14T08:31:17.113Z</time>
      </trkpt>
      <trkpt lat="41.34012" lon="19.80227">
        <ele>142.700019</ele>
        <time>2022-05-14T08:31:20.063Z</time>
      </trkpt>
      <trkpt lat="41.3402" lon="19.80222">
        <ele>142.944719</ele>
        <time>2022-05-14T08:31:22.067Z</time>
      </trkpt>
      <trkpt lat="41.34028" lon="19.80217">
        <ele>143.183748</ele>
        <time>2022-05-14T08:31:24.064Z</time>
      </trkpt>
      <trkpt lat="41.34038" lon="19.80211">
        <ele>143.479523</ele>
        <time>2022-05-14T08:31:27.093Z</time>
      </trkpt>
      <trkpt lat="41.34047" lon="19.80203">
        <ele>143.762872</ele>
        <time>2022-05-14T08:31:30.084Z</time>
      </trkpt>
      <trkpt lat="41.34059" lon="19.80198">
        <ele>144.087758</ele>
        <time>2022-05-14T08:31:33.088Z</time>
      </trkpt>
      <trkpt lat="41.34071" lon="19.8019">
        <ele>144.440497</ele>
        <time>2022-05-14T08:31:36.094Z</time>
      </trkpt>
      <trkpt lat="41.34082" lon="19.80184">
        <ele>145.048839</ele>
        <time>2022-05-14T08:31:39.077Z</time>
      </trkpt>
      <trkpt lat="41.34094" lon="19.80175">
        <ele>145.939041</ele>
        <time>2022-05-14T08:31:42.080Z</time>
      </trkpt>
      <trkpt lat="41.34103" lon="19.80169">
        <ele>146.649733</ele>
        <time>2022-05-14T08:31:44.065Z</time>
      </trkpt>
      <trkpt lat="41.34112" lon="19.80163">
        <ele>147.333662</ele>
        <time>2022-05-14T08:31:46.086Z</time>
      </trkpt>
      <trkpt lat="41.3412" lon="19.80158">
        <ele>147.950961</ele>
        <time>2022-05-14T08:31:48.072Z</time>
      </trkpt>
      <trkpt lat="41.34129" lon="19.80152">
        <ele>148.642771</ele>
        <time>2022-05-14T08:31:50.110Z</time>
      </trkpt>
      <trkpt lat="41.34139" lon="19.80146">
        <ele>149.350598</ele>
        <time>2022-05-14T08:31:52.099Z</time>
      </trkpt>
      <trkpt lat="41.3415" lon="19.80139">
        <ele>150.228565</ele>
        <time>2022-05-14T08:31:55.071Z</time>
      </trkpt>
      <trkpt lat="41.34161" lon="19.80132">
        <ele>151.04567</ele>
        <time>2022-05-14T08:31:58.084Z</time>
      </trkpt>
      <trkpt lat="41.3417" lon="19.80126">
        <ele>151.737479</ele>
        <time>2022-05-14T08:32:00.055Z</time>
      </trkpt>
      <trkpt lat="41.34181" lon="19.80119">
        <ele>152.545483</ele>
        <time>2022-05-14T08:32:03.112Z</time>
      </trkpt>
      <trkpt lat="41.34194" lon="19.8011">
        <ele>153.542687</ele>
        <time>2022-05-14T08:32:06.079Z</time>
      </trkpt>
      <trkpt lat="41.34204" lon="19.80102">
        <ele>154.320826</ele>
        <time>2022-05-14T08:32:08.067Z</time>
      </trkpt>
      <trkpt lat="41.34214" lon="19.80096">
        <ele>155.10565</ele>
        <time>2022-05-14T08:32:11.075Z</time>
      </trkpt>
      <trkpt lat="41.34225" lon="19.80087">
        <ele>155.981018</ele>
        <time>2022-05-14T08:32:14.077Z</time>
      </trkpt>
      <trkpt lat="41.34234" lon="19.80083">
        <ele>156.594507</ele>
        <time>2022-05-14T08:32:16.095Z</time>
      </trkpt>
      <trkpt lat="41.34245" lon="19.80075">
        <ele>156.521849</ele>
        <time>2022-05-14T08:32:19.093Z</time>
      </trkpt>
      <trkpt lat="41.3425" lon="19.80062">
        <ele>156.183221</ele>
        <time>2022-05-14T08:32:22.069Z</time>
      </trkpt>
      <trkpt lat="41.34252" lon="19.80045">
        <ele>155.797378</ele>
        <time>2022-05-14T08:32:25.081Z</time>
      </trkpt>
      <trkpt lat="41.34255" lon="19.80029">
        <ele>155.435797</ele>
        <time>2022-05-14T08:32:28.207Z</time>
      </trkpt>
      <trkpt lat="41.34254" lon="19.80015">
        <ele>155.120957</ele>
        <time>2022-05-14T08:32:31.072Z</time>
      </trkpt>
      <trkpt lat="41.34251" lon="19.8">
        <ele>154.765246</ele>
        <time>2022-05-14T08:32:34.092Z</time>
      </trkpt>
      <trkpt lat="41.34248" lon="19.79984">
        <ele>154.408818</ele>
        <time>2022-05-14T08:32:37.081Z</time>
      </trkpt>
      <trkpt lat="41.34245" lon="19.79967">
        <ele>154.008033</ele>
        <time>2022-05-14T08:32:40.080Z</time>
      </trkpt>
      <trkpt lat="41.34243" lon="19.79955">
        <ele>153.736637</ele>
        <time>2022-05-14T08:32:42.068Z</time>
      </trkpt>
      <trkpt lat="41.3424" lon="19.79939">
        <ele>153.356979</ele>
        <time>2022-05-14T08:32:45.135Z</time>
      </trkpt>
      <trkpt lat="41.34237" lon="19.79922">
        <ele>152.983788</ele>
        <time>2022-05-14T08:32:48.158Z</time>
      </trkpt>
      <trkpt lat="41.34235" lon="19.79906">
        <ele>152.60336</ele>
        <time>2022-05-14T08:32:51.077Z</time>
      </trkpt>
      <trkpt lat="41.34232" lon="19.79889">
        <ele>152.211322</ele>
        <time>2022-05-14T08:32:54.133Z</time>
      </trkpt>
      <trkpt lat="41.34229" lon="19.79875">
        <ele>151.901199</ele>
        <time>2022-05-14T08:32:57.071Z</time>
      </trkpt>
      <trkpt lat="41.34227" lon="19.79863">
        <ele>151.613643</ele>
        <time>2022-05-14T08:33:00.069Z</time>
      </trkpt>
      <trkpt lat="41.34225" lon="19.79849">
        <ele>151.050546</ele>
        <time>2022-05-14T08:33:03.076Z</time>
      </trkpt>
      <trkpt lat="41.34232" lon="19.79842">
        <ele>150.307573</ele>
        <time>2022-05-14T08:33:07.085Z</time>
      </trkpt>
      <trkpt lat="41.34242" lon="19.79841">
        <ele>149.570129</ele>
        <time>2022-05-14T08:33:11.072Z</time>
      </trkpt>
      <trkpt lat="41.34251" lon="19.7984">
        <ele>148.821909</ele>
        <time>2022-05-14T08:33:14.101Z</time>
      </trkpt>
      <trkpt lat="41.34261" lon="19.79839">
        <ele>148.041567</ele>
        <time>2022-05-14T08:33:17.052Z</time>
      </trkpt>
      <trkpt lat="41.34271" lon="19.79838">
        <ele>147.223468</ele>
        <time>2022-05-14T08:33:20.081Z</time>
      </trkpt>
      <trkpt lat="41.34281" lon="19.79837">
        <ele>146.446903</ele>
        <time>2022-05-14T08:33:23.096Z</time>
      </trkpt>
      <trkpt lat="41.34291" lon="19.79835">
        <ele>145.598012</ele>
        <time>2022-05-14T08:33:26.075Z</time>
      </trkpt>
      <trkpt lat="41.34299" lon="19.79827">
        <ele>144.864287</ele>
        <time>2022-05-14T08:33:29.081Z</time>
      </trkpt>
      <trkpt lat="41.34298" lon="19.79811">
        <ele>143.923408</ele>
        <time>2022-05-14T08:33:32.096Z</time>
      </trkpt>
      <trkpt lat="41.34298" lon="19.79795">
        <ele>142.96379</ele>
        <time>2022-05-14T08:33:35.071Z</time>
      </trkpt>
      <trkpt lat="41.34304" lon="19.79787">
        <ele>142.249705</ele>
        <time>2022-05-14T08:33:39.075Z</time>
      </trkpt>
      <trkpt lat="41.34313" lon="19.79786">
        <ele>141.527923</ele>
        <time>2022-05-14T08:33:41.074Z</time>
      </trkpt>
      <trkpt lat="41.34326" lon="19.79785">
        <ele>140.496022</ele>
        <time>2022-05-14T08:33:44.055Z</time>
      </trkpt>
      <trkpt lat="41.34338" lon="19.79786">
        <ele>139.535089</ele>
        <time>2022-05-14T08:33:47.062Z</time>
      </trkpt>
      <trkpt lat="41.34349" lon="19.79784">
        <ele>138.632586</ele>
        <time>2022-05-14T08:33:50.080Z</time>
      </trkpt>
      <trkpt lat="41.34359" lon="19.79784">
        <ele>137.887024</ele>
        <time>2022-05-14T08:33:53.094Z</time>
      </trkpt>
      <trkpt lat="41.34369" lon="19.79783">
        <ele>137.157658</ele>
        <time>2022-05-14T08:33:59.071Z</time>
      </trkpt>
      <trkpt lat="41.34378" lon="19.79783">
        <ele>136.98501</ele>
        <time>2022-05-14T08:34:04.057Z</time>
      </trkpt>
      <trkpt lat="41.34386" lon="19.79792">
        <ele>136.810606</ele>
        <time>2022-05-14T08:34:09.103Z</time>
      </trkpt>
      <trkpt lat="41.34394" lon="19.79799">
        <ele>136.64654</ele>
        <time>2022-05-14T08:34:13.087Z</time>
      </trkpt>
      <trkpt lat="41.34403" lon="19.79804">
        <ele>136.475366</ele>
        <time>2022-05-14T08:34:17.107Z</time>
      </trkpt>
      <trkpt lat="41.34414" lon="19.79805">
        <ele>136.274469</ele>
        <time>2022-05-14T08:34:20.087Z</time>
      </trkpt>
      <trkpt lat="41.34425" lon="19.79803">
        <ele>136.085576</ele>
        <time>2022-05-14T08:34:23.122Z</time>
      </trkpt>
      <trkpt lat="41.34436" lon="19.79803">
        <ele>135.8952</ele>
        <time>2022-05-14T08:34:26.100Z</time>
      </trkpt>
      <trkpt lat="41.34446" lon="19.79803">
        <ele>135.72604</ele>
        <time>2022-05-14T08:34:31.080Z</time>
      </trkpt>
      <trkpt lat="41.34456" lon="19.79801">
        <ele>135.550394</ele>
        <time>2022-05-14T08:34:38.072Z</time>
      </trkpt>
      <trkpt lat="41.34465" lon="19.798">
        <ele>135.387319</ele>
        <time>2022-05-14T08:34:42.068Z</time>
      </trkpt>
      <trkpt lat="41.34474" lon="19.79799">
        <ele>135.227846</ele>
        <time>2022-05-14T08:34:45.076Z</time>
      </trkpt>
      <trkpt lat="41.34485" lon="19.79798">
        <ele>135.047746</ele>
        <time>2022-05-14T08:34:49.076Z</time>
      </trkpt>
      <trkpt lat="41.34495" lon="19.79797">
        <ele>134.86963</ele>
        <time>2022-05-14T08:34:56.076Z</time>
      </trkpt>
      <trkpt lat="41.34497" lon="19.79782">
        <ele>134.673572</ele>
        <time>2022-05-14T08:35:01.065Z</time>
      </trkpt>
      <trkpt lat="41.34495" lon="19.79768">
        <ele>134.489883</ele>
        <time>2022-05-14T08:35:04.070Z</time>
      </trkpt>
      <trkpt lat="41.34495" lon="19.79753">
        <ele>134.281597</ele>
        <time>2022-05-14T08:35:07.061Z</time>
      </trkpt>
      <trkpt lat="41.34495" lon="19.79735">
        <ele>134.053682</ele>
        <time>2022-05-14T08:35:10.156Z</time>
      </trkpt>
      <trkpt lat="41.34495" lon="19.7972">
        <ele>133.733837</ele>
        <time>2022-05-14T08:35:13.058Z</time>
      </trkpt>
      <trkpt lat="41.34495" lon="19.79706">
        <ele>133.427698</ele>
        <time>2022-05-14T08:35:18.084Z</time>
      </trkpt>
      <trkpt lat="41.34494" lon="19.79693">
        <ele>133.144427</ele>
        <time>2022-05-14T08:35:22.087Z</time>
      </trkpt>
      <trkpt lat="41.34501" lon="19.79686">
        <ele>132.877029</ele>
        <time>2022-05-14T08:35:26.059Z</time>
      </trkpt>
      <trkpt lat="41.34511" lon="19.79689">
        <ele>132.600856</ele>
        <time>2022-05-14T08:35:30.145Z</time>
      </trkpt>
      <trkpt lat="41.3452" lon="19.79691">
        <ele>132.333156</ele>
        <time>2022-05-14T08:35:33.134Z</time>
      </trkpt>
      <trkpt lat="41.34531" lon="19.79693">
        <ele>132.013381</ele>
        <time>2022-05-14T08:35:36.056Z</time>
      </trkpt>
      <trkpt lat="41.34542" lon="19.79696">
        <ele>131.665418</ele>
        <time>2022-05-14T08:35:39.067Z</time>
      </trkpt>
      <trkpt lat="41.34552" lon="19.797">
        <ele>131.368912</ele>
        <time>2022-05-14T08:35:42.080Z</time>
      </trkpt>
      <trkpt lat="41.34559" lon="19.79709">
        <ele>131.089304</ele>
        <time>2022-05-14T08:35:45.068Z</time>
      </trkpt>
      <trkpt lat="41.34566" lon="19.79718">
        <ele>130.812761</ele>
        <time>2022-05-14T08:35:48.136Z</time>
      </trkpt>
      <trkpt lat="41.34574" lon="19.79728">
        <ele>130.492507</ele>
        <time>2022-05-14T08:35:51.067Z</time>
      </trkpt>
      <trkpt lat="41.34585" lon="19.79736">
        <ele>130.112873</ele>
        <time>2022-05-14T08:35:54.054Z</time>
      </trkpt>
      <trkpt lat="41.34595" lon="19.79741">
        <ele>129.802445</ele>
        <time>2022-05-14T08:35:56.080Z</time>
      </trkpt>
      <trkpt lat="41.34606" lon="19.79748">
        <ele>129.457125</ele>
        <time>2022-05-14T08:35:58.106Z</time>
      </trkpt>
      <trkpt lat="41.34616" lon="19.79755">
        <ele>129.124661</ele>
        <time>2022-05-14T08:36:00.057Z</time>
      </trkpt>
      <trkpt lat="41.34625" lon="19.79762">
        <ele>128.83039</ele>
        <time>2022-05-14T08:36:02.073Z</time>
      </trkpt>
      <trkpt lat="41.34633" lon="19.79769">
        <ele>128.668089</ele>
        <time>2022-05-14T08:36:04.064Z</time>
      </trkpt>
      <trkpt lat="41.34641" lon="19.79776">
        <ele>128.52211</ele>
        <time>2022-05-14T08:36:06.079Z</time>
      </trkpt>
      <trkpt lat="41.34649" lon="19.79783">
        <ele>128.379155</ele>
        <time>2022-05-14T08:36:10.118Z</time>
      </trkpt>
      <trkpt lat="41.34658" lon="19.7979">
        <ele>128.22836</ele>
        <time>2022-05-14T08:36:17.081Z</time>
      </trkpt>
      <trkpt lat="41.34666" lon="19.79796">
        <ele>128.088604</ele>
        <time>2022-05-14T08:36:22.106Z</time>
      </trkpt>
      <trkpt lat="41.34673" lon="19.79802">
        <ele>127.952387</ele>
        <time>2022-05-14T08:36:27.077Z</time>
      </trkpt>
      <trkpt lat="41.34685" lon="19.79804">
        <ele>127.775905</ele>
        <time>2022-05-14T08:36:31.060Z</time>
      </trkpt>
      <trkpt lat="41.34695" lon="19.79807">
        <ele>127.616293</ele>
        <time>2022-05-14T08:36:35.083Z</time>
      </trkpt>
      <trkpt lat="41.34704" lon="19.79803">
        <ele>127.473822</ele>
        <time>2022-05-14T08:36:38.067Z</time>
      </trkpt>
      <trkpt lat="41.34713" lon="19.79795">
        <ele>127.315369</ele>
        <time>2022-05-14T08:36:42.055Z</time>
      </trkpt>
      <trkpt lat="41.34724" lon="19.79792">
        <ele>127.142384</ele>
        <time>2022-05-14T08:36:45.072Z</time>
      </trkpt>
      <trkpt lat="41.34734" lon="19.79789">
        <ele>126.986491</ele>
        <time>2022-05-14T08:36:48.392Z</time>
      </trkpt>
      <trkpt lat="41.34745" lon="19.79785">
        <ele>126.818238</ele>
        <time>2022-05-14T08:36:51.045Z</time>
      </trkpt>
      <trkpt lat="41.34758" lon="19.79783">
        <ele>126.618053</ele>
        <time>2022-05-14T08:36:54.151Z</time>
      </trkpt>
      <trkpt lat="41.34767" lon="19.79781">
        <ele>126.468872</ele>
        <time>2022-05-14T08:36:56.050Z</time>
      </trkpt>
      <trkpt lat="41.3478" lon="19.79777">
        <ele>126.273959</ele>
        <time>2022-05-14T08:36:59.043Z</time>
      </trkpt>
      <trkpt lat="41.34792" lon="19.79776">
        <ele>126.096899</ele>
        <time>2022-05-14T08:37:02.089Z</time>
      </trkpt>
      <trkpt lat="41.34801" lon="19.79779">
        <ele>125.98944</ele>
        <time>2022-05-14T08:37:06.042Z</time>
      </trkpt>
      <trkpt lat="41.34811" lon="19.79782">
        <ele>125.880666</ele>
        <time>2022-05-14T08:37:11.078Z</time>
      </trkpt>
      <trkpt lat="41.3482" lon="19.79784">
        <ele>125.779577</ele>
        <time>2022-05-14T08:37:16.144Z</time>
      </trkpt>
      <trkpt lat="41.34832" lon="19.79803">
        <ele>125.575925</ele>
        <time>2022-05-14T08:37:59.091Z</time>
      </trkpt>
      <trkpt lat="41.34852" lon="19.7976">
        <ele>125.161414</ele>
        <time>2022-05-14T08:39:55.074Z</time>
      </trkpt>
      <trkpt lat="41.34851" lon="19.79746">
        <ele>125.048719</ele>
        <time>2022-05-14T08:40:00.047Z</time>
      </trkpt>
      <trkpt lat="41.34852" lon="19.79732">
        <ele>124.936163</ele>
        <time>2022-05-14T08:40:05.064Z</time>
      </trkpt>
      <trkpt lat="41.34853" lon="19.79719">
        <ele>124.827186</ele>
        <time>2022-05-14T08:40:10.054Z</time>
      </trkpt>
      <trkpt lat="41.34857" lon="19.79705">
        <ele>124.712617</ele>
        <time>2022-05-14T08:40:15.038Z</time>
      </trkpt>
      <trkpt lat="41.34863" lon="19.79693">
        <ele>124.598615</ele>
        <time>2022-05-14T08:40:21.043Z</time>
      </trkpt>
      <trkpt lat="41.34872" lon="19.7969">
        <ele>124.496281</ele>
        <time>2022-05-14T08:40:26.041Z</time>
      </trkpt>
      <trkpt lat="41.34882" lon="19.79696">
        <ele>124.376396</ele>
        <time>2022-05-14T08:40:35.054Z</time>
      </trkpt>
      <trkpt lat="41.3489" lon="19.79703">
        <ele>124.268584</ele>
        <time>2022-05-14T08:40:43.045Z</time>
      </trkpt>
      <trkpt lat="41.34899" lon="19.79707">
        <ele>124.165671</ele>
        <time>2022-05-14T08:40:50.042Z</time>
      </trkpt>
      <trkpt lat="41.34909" lon="19.79709">
        <ele>124.111378</ele>
        <time>2022-05-14T08:40:55.041Z</time>
      </trkpt>
      <trkpt lat="41.34918" lon="19.7971">
        <ele>124.071723</ele>
        <time>2022-05-14T08:41:00.058Z</time>
      </trkpt>
      <trkpt lat="41.34928" lon="19.79713">
        <ele>124.031309</ele>
        <time>2022-05-14T08:41:06.039Z</time>
      </trkpt>
      <trkpt lat="41.34937" lon="19.79715">
        <ele>123.993937</ele>
        <time>2022-05-14T08:41:12.064Z</time>
      </trkpt>
      <trkpt lat="41.34947" lon="19.79716">
        <ele>123.956663</ele>
        <time>2022-05-14T08:41:18.035Z</time>
      </trkpt>
      <trkpt lat="41.34956" lon="19.79714">
        <ele>123.920127</ele>
        <time>2022-05-14T08:41:25.048Z</time>
      </trkpt>
      <trkpt lat="41.3496" lon="19.79702">
        <ele>123.877717</ele>
        <time>2022-05-14T08:41:39.053Z</time>
      </trkpt>
      <trkpt lat="41.34963" lon="19.79687">
        <ele>123.831854</ele>
        <time>2022-05-14T08:41:42.095Z</time>
      </trkpt>
      <trkpt lat="41.34968" lon="19.7967">
        <ele>123.777292</ele>
        <time>2022-05-14T08:41:45.053Z</time>
      </trkpt>
      <trkpt lat="41.34971" lon="19.79657">
        <ele>123.734385</ele>
        <time>2022-05-14T08:41:47.053Z</time>
      </trkpt>
      <trkpt lat="41.34975" lon="19.79641">
        <ele>123.684903</ele>
        <time>2022-05-14T08:41:49.047Z</time>
      </trkpt>
      <trkpt lat="41.34979" lon="19.79625">
        <ele>123.633883</ele>
        <time>2022-05-14T08:41:51.042Z</time>
      </trkpt>
      <trkpt lat="41.34983" lon="19.7961">
        <ele>123.583853</ele>
        <time>2022-05-14T08:41:53.051Z</time>
      </trkpt>
      <trkpt lat="41.34987" lon="19.79595">
        <ele>123.535517</ele>
        <time>2022-05-14T08:41:55.039Z</time>
      </trkpt>
      <trkpt lat="41.34991" lon="19.7958">
        <ele>123.488617</ele>
        <time>2022-05-14T08:41:57.051Z</time>
      </trkpt>
      <trkpt lat="41.34995" lon="19.79565">
        <ele>123.441433</ele>
        <time>2022-05-14T08:41:59.046Z</time>
      </trkpt>
      <trkpt lat="41.35" lon="19.79551">
        <ele>123.324793</ele>
        <time>2022-05-14T08:42:01.043Z</time>
      </trkpt>
      <trkpt lat="41.35004" lon="19.79536">
        <ele>123.127461</ele>
        <time>2022-05-14T08:42:03.041Z</time>
      </trkpt>
      <trkpt lat="41.35007" lon="19.79522">
        <ele>122.937341</ele>
        <time>2022-05-14T08:42:05.071Z</time>
      </trkpt>
      <trkpt lat="41.35011" lon="19.79508">
        <ele>122.744207</ele>
        <time>2022-05-14T08:42:07.055Z</time>
      </trkpt>
      <trkpt lat="41.35016" lon="19.79494">
        <ele>122.548054</ele>
        <time>2022-05-14T08:42:09.043Z</time>
      </trkpt>
      <trkpt lat="41.3502" lon="19.7948">
        <ele>122.353649</ele>
        <time>2022-05-14T08:42:11.063Z</time>
      </trkpt>
      <trkpt lat="41.35024" lon="19.79466">
        <ele>122.157523</ele>
        <time>2022-05-14T08:42:13.044Z</time>
      </trkpt>
      <trkpt lat="41.35028" lon="19.79453">
        <ele>121.97521</ele>
        <time>2022-05-14T08:42:15.052Z</time>
      </trkpt>
      <trkpt lat="41.35032" lon="19.79439">
        <ele>121.792898</ele>
        <time>2022-05-14T08:42:17.069Z</time>
      </trkpt>
      <trkpt lat="41.35035" lon="19.79425">
        <ele>121.603924</ele>
        <time>2022-05-14T08:42:19.040Z</time>
      </trkpt>
      <trkpt lat="41.35039" lon="19.79412">
        <ele>121.424007</ele>
        <time>2022-05-14T08:42:21.053Z</time>
      </trkpt>
      <trkpt lat="41.35042" lon="19.79399">
        <ele>121.245927</ele>
        <time>2022-05-14T08:42:23.039Z</time>
      </trkpt>
      <trkpt lat="41.35046" lon="19.79386">
        <ele>121.069641</ele>
        <time>2022-05-14T08:42:25.045Z</time>
      </trkpt>
      <trkpt lat="41.3505" lon="19.79374">
        <ele>120.899343</ele>
        <time>2022-05-14T08:42:27.048Z</time>
      </trkpt>
      <trkpt lat="41.35053" lon="19.79362">
        <ele>120.727884</ele>
        <time>2022-05-14T08:42:29.075Z</time>
      </trkpt>
      <trkpt lat="41.35057" lon="19.79349">
        <ele>120.55561</ele>
        <time>2022-05-14T08:42:31.044Z</time>
      </trkpt>
      <trkpt lat="41.35061" lon="19.79337">
        <ele>120.386556</ele>
        <time>2022-05-14T08:42:33.045Z</time>
      </trkpt>
      <trkpt lat="41.35064" lon="19.79324">
        <ele>120.533776</ele>
        <time>2022-05-14T08:42:35.047Z</time>
      </trkpt>
      <trkpt lat="41.35068" lon="19.79311">
        <ele>120.811636</ele>
        <time>2022-05-14T08:42:37.048Z</time>
      </trkpt>
      <trkpt lat="41.35071" lon="19.79299">
        <ele>121.077158</ele>
        <time>2022-05-14T08:42:39.050Z</time>
      </trkpt>
      <trkpt lat="41.35074" lon="19.79286">
        <ele>121.34755</ele>
        <time>2022-05-14T08:42:41.068Z</time>
      </trkpt>
      <trkpt lat="41.35077" lon="19.79273">
        <ele>121.625657</ele>
        <time>2022-05-14T08:42:43.050Z</time>
      </trkpt>
      <trkpt lat="41.3508" lon="19.79261">
        <ele>121.878909</ele>
        <time>2022-05-14T08:42:45.048Z</time>
      </trkpt>
      <trkpt lat="41.35083" lon="19.79249">
        <ele>122.139875</ele>
        <time>2022-05-14T08:42:47.067Z</time>
      </trkpt>
      <trkpt lat="41.35087" lon="19.79237">
        <ele>122.402577</ele>
        <time>2022-05-14T08:42:49.046Z</time>
      </trkpt>
      <trkpt lat="41.3509" lon="19.79225">
        <ele>122.659683</ele>
        <time>2022-05-14T08:42:51.042Z</time>
      </trkpt>
      <trkpt lat="41.35093" lon="19.79213">
        <ele>122.915736</ele>
        <time>2022-05-14T08:42:53.069Z</time>
      </trkpt>
      <trkpt lat="41.35096" lon="19.79202">
        <ele>123.161494</ele>
        <time>2022-05-14T08:42:55.049Z</time>
      </trkpt>
      <trkpt lat="41.351" lon="19.79185">
        <ele>123.513736</ele>
        <time>2022-05-14T08:42:58.086Z</time>
      </trkpt>
      <trkpt lat="41.35103" lon="19.79171">
        <ele>123.821206</ele>
        <time>2022-05-14T08:43:01.055Z</time>
      </trkpt>
      <trkpt lat="41.35107" lon="19.79159">
        <ele>124.085828</ele>
        <time>2022-05-14T08:43:04.162Z</time>
      </trkpt>
      <trkpt lat="41.3511" lon="19.79146">
        <ele>124.354294</ele>
        <time>2022-05-14T08:43:07.105Z</time>
      </trkpt>
      <trkpt lat="41.35114" lon="19.79133">
        <ele>124.649281</ele>
        <time>2022-05-14T08:43:10.071Z</time>
      </trkpt>
      <trkpt lat="41.35117" lon="19.79118">
        <ele>124.951166</ele>
        <time>2022-05-14T08:43:13.087Z</time>
      </trkpt>
      <trkpt lat="41.35121" lon="19.79105">
        <ele>125.204105</ele>
        <time>2022-05-14T08:43:16.081Z</time>
      </trkpt>
      <trkpt lat="41.35123" lon="19.79094">
        <ele>125.192</ele>
        <time>2022-05-14T08:43:19.047Z</time>
      </trkpt>
      <trkpt lat="41.35127" lon="19.79081">
        <ele>125.178652</ele>
        <time>2022-05-14T08:43:22.073Z</time>
      </trkpt>
      <trkpt lat="41.3513" lon="19.79066">
        <ele>125.163327</ele>
        <time>2022-05-14T08:43:25.098Z</time>
      </trkpt>
      <trkpt lat="41.35134" lon="19.79051">
        <ele>125.1474</ele>
        <time>2022-05-14T08:43:28.064Z</time>
      </trkpt>
      <trkpt lat="41.35138" lon="19.79035">
        <ele>125.131297</ele>
        <time>2022-05-14T08:43:31.084Z</time>
      </trkpt>
      <trkpt lat="41.35142" lon="19.7902">
        <ele>125.115151</ele>
        <time>2022-05-14T08:43:34.068Z</time>
      </trkpt>
      <trkpt lat="41.35146" lon="19.79004">
        <ele>125.098684</ele>
        <time>2022-05-14T08:43:37.082Z</time>
      </trkpt>
      <trkpt lat="41.35151" lon="19.78988">
        <ele>125.082401</ele>
        <time>2022-05-14T08:43:40.074Z</time>
      </trkpt>
      <trkpt lat="41.35155" lon="19.78972">
        <ele>125.066061</ele>
        <time>2022-05-14T08:43:43.100Z</time>
      </trkpt>
      <trkpt lat="41.35158" lon="19.78955">
        <ele>125.04869</ele>
        <time>2022-05-14T08:43:46.076Z</time>
      </trkpt>
      <trkpt lat="41.35163" lon="19.78938">
        <ele>125.031023</ele>
        <time>2022-05-14T08:43:49.102Z</time>
      </trkpt>
      <trkpt lat="41.35167" lon="19.78922">
        <ele>125.013591</ele>
        <time>2022-05-14T08:43:52.089Z</time>
      </trkpt>
      <trkpt lat="41.3517" lon="19.7891">
        <ele>125.001766</ele>
        <time>2022-05-14T08:43:54.081Z</time>
      </trkpt>
      <trkpt lat="41.35173" lon="19.78899">
        <ele>124.989805</ele>
        <time>2022-05-14T08:43:56.079Z</time>
      </trkpt>
      <trkpt lat="41.35177" lon="19.78887">
        <ele>124.977478</ele>
        <time>2022-05-14T08:43:58.159Z</time>
      </trkpt>
      <trkpt lat="41.3518" lon="19.78875">
        <ele>124.966718</ele>
        <time>2022-05-14T08:44:00.123Z</time>
      </trkpt>
      <trkpt lat="41.35183" lon="19.78863">
        <ele>124.958382</ele>
        <time>2022-05-14T08:44:02.115Z</time>
      </trkpt>
      <trkpt lat="41.35186" lon="19.78851">
        <ele>124.949772</ele>
        <time>2022-05-14T08:44:04.079Z</time>
      </trkpt>
      <trkpt lat="41.35189" lon="19.78838">
        <ele>124.940583</ele>
        <time>2022-05-14T08:44:06.059Z</time>
      </trkpt>
      <trkpt lat="41.35191" lon="19.78825">
        <ele>124.931534</ele>
        <time>2022-05-14T08:44:08.077Z</time>
      </trkpt>
      <trkpt lat="41.35193" lon="19.78812">
        <ele>124.922656</ele>
        <time>2022-05-14T08:44:10.105Z</time>
      </trkpt>
      <trkpt lat="41.35195" lon="19.788">
        <ele>124.914503</ele>
        <time>2022-05-14T08:44:12.096Z</time>
      </trkpt>
      <trkpt lat="41.35198" lon="19.78783">
        <ele>124.903288</ele>
        <time>2022-05-14T08:44:15.074Z</time>
      </trkpt>
      <trkpt lat="41.35199" lon="19.78766">
        <ele>124.891496</ele>
        <time>2022-05-14T08:44:18.082Z</time>
      </trkpt>
      <trkpt lat="41.35199" lon="19.78753">
        <ele>124.883367</ele>
        <time>2022-05-14T08:44:20.086Z</time>
      </trkpt>
      <trkpt lat="41.35198" lon="19.78741">
        <ele>124.875288</ele>
        <time>2022-05-14T08:44:22.112Z</time>
      </trkpt>
      <trkpt lat="41.35198" lon="19.78729">
        <ele>124.866815</ele>
        <time>2022-05-14T08:44:24.087Z</time>
      </trkpt>
      <trkpt lat="41.35196" lon="19.78714">
        <ele>124.857183</ele>
        <time>2022-05-14T08:44:26.071Z</time>
      </trkpt>
      <trkpt lat="41.35193" lon="19.78702">
        <ele>124.84823</ele>
        <time>2022-05-14T08:44:28.063Z</time>
      </trkpt>
      <trkpt lat="41.35187" lon="19.7869">
        <ele>124.838609</ele>
        <time>2022-05-14T08:44:30.064Z</time>
      </trkpt>
      <trkpt lat="41.35181" lon="19.78676">
        <ele>124.828042</ele>
        <time>2022-05-14T08:44:32.077Z</time>
      </trkpt>
      <trkpt lat="41.35174" lon="19.78663">
        <ele>124.817516</ele>
        <time>2022-05-14T08:44:34.148Z</time>
      </trkpt>
      <trkpt lat="41.35168" lon="19.78649">
        <ele>124.679447</ele>
        <time>2022-05-14T08:44:36.072Z</time>
      </trkpt>
      <trkpt lat="41.35161" lon="19.78636">
        <ele>124.303463</ele>
        <time>2022-05-14T08:44:38.069Z</time>
      </trkpt>
      <trkpt lat="41.35154" lon="19.78622">
        <ele>123.934773</ele>
        <time>2022-05-14T08:44:40.070Z</time>
      </trkpt>
      <trkpt lat="41.35148" lon="19.78608">
        <ele>123.562187</ele>
        <time>2022-05-14T08:44:42.075Z</time>
      </trkpt>
      <trkpt lat="41.35148" lon="19.78593">
        <ele>123.21424</ele>
        <time>2022-05-14T08:44:44.082Z</time>
      </trkpt>
      <trkpt lat="41.35152" lon="19.78579">
        <ele>122.858971</ele>
        <time>2022-05-14T08:44:46.076Z</time>
      </trkpt>
      <trkpt lat="41.35156" lon="19.78564">
        <ele>122.494739</ele>
        <time>2022-05-14T08:44:48.091Z</time>
      </trkpt>
      <trkpt lat="41.3516" lon="19.7855">
        <ele>122.138388</ele>
        <time>2022-05-14T08:44:50.116Z</time>
      </trkpt>
      <trkpt lat="41.35165" lon="19.78536">
        <ele>121.788389</ele>
        <time>2022-05-14T08:44:52.081Z</time>
      </trkpt>
      <trkpt lat="41.35168" lon="19.78522">
        <ele>121.451532</ele>
        <time>2022-05-14T08:44:54.072Z</time>
      </trkpt>
      <trkpt lat="41.35173" lon="19.78509">
        <ele>121.109125</ele>
        <time>2022-05-14T08:44:56.076Z</time>
      </trkpt>
      <trkpt lat="41.35176" lon="19.78495">
        <ele>120.78521</ele>
        <time>2022-05-14T08:44:58.087Z</time>
      </trkpt>
      <trkpt lat="41.3518" lon="19.78483">
        <ele>120.477588</ele>
        <time>2022-05-14T08:45:00.052Z</time>
      </trkpt>
      <trkpt lat="41.35183" lon="19.78471">
        <ele>120.17318</ele>
        <time>2022-05-14T08:45:02.090Z</time>
      </trkpt>
      <trkpt lat="41.35187" lon="19.78459">
        <ele>119.875302</ele>
        <time>2022-05-14T08:45:04.061Z</time>
      </trkpt>
      <trkpt lat="41.3519" lon="19.78447">
        <ele>119.583941</ele>
        <time>2022-05-14T08:45:06.053Z</time>
      </trkpt>
      <trkpt lat="41.35193" lon="19.78435">
        <ele>119.29896</ele>
        <time>2022-05-14T08:45:08.084Z</time>
      </trkpt>
      <trkpt lat="41.35196" lon="19.78424">
        <ele>119.344675</ele>
        <time>2022-05-14T08:45:10.071Z</time>
      </trkpt>
      <trkpt lat="41.352" lon="19.78408">
        <ele>119.463968</ele>
        <time>2022-05-14T08:45:13.103Z</time>
      </trkpt>
      <trkpt lat="41.35204" lon="19.78392">
        <ele>119.588369</ele>
        <time>2022-05-14T08:45:16.060Z</time>
      </trkpt>
      <trkpt lat="41.35208" lon="19.78375">
        <ele>119.712572</ele>
        <time>2022-05-14T08:45:19.071Z</time>
      </trkpt>
      <trkpt lat="41.35211" lon="19.78358">
        <ele>119.83917</ele>
        <time>2022-05-14T08:45:22.062Z</time>
      </trkpt>
      <trkpt lat="41.35214" lon="19.78347">
        <ele>119.926775</ele>
        <time>2022-05-14T08:45:24.115Z</time>
      </trkpt>
      <trkpt lat="41.35217" lon="19.78335">
        <ele>120.015352</ele>
        <time>2022-05-14T08:45:26.107Z</time>
      </trkpt>
      <trkpt lat="41.35221" lon="19.78318">
        <ele>120.144566</ele>
        <time>2022-05-14T08:45:29.076Z</time>
      </trkpt>
      <trkpt lat="41.35224" lon="19.78307">
        <ele>120.231301</ele>
        <time>2022-05-14T08:45:31.081Z</time>
      </trkpt>
      <trkpt lat="41.35226" lon="19.78295">
        <ele>120.318101</ele>
        <time>2022-05-14T08:45:33.073Z</time>
      </trkpt>
      <trkpt lat="41.35231" lon="19.78279">
        <ele>120.44686</ele>
        <time>2022-05-14T08:45:36.071Z</time>
      </trkpt>
      <trkpt lat="41.35234" lon="19.78262">
        <ele>120.56912</ele>
        <time>2022-05-14T08:45:39.084Z</time>
      </trkpt>
      <trkpt lat="41.35239" lon="19.78247">
        <ele>120.690738</ele>
        <time>2022-05-14T08:45:42.082Z</time>
      </trkpt>
      <trkpt lat="41.35242" lon="19.78236">
        <ele>120.777575</ele>
        <time>2022-05-14T08:45:44.048Z</time>
      </trkpt>
      <trkpt lat="41.35245" lon="19.78224">
        <ele>120.866051</ele>
        <time>2022-05-14T08:45:46.077Z</time>
      </trkpt>
      <trkpt lat="41.35248" lon="19.78212">
        <ele>120.954836</ele>
        <time>2022-05-14T08:45:48.075Z</time>
      </trkpt>
      <trkpt lat="41.35251" lon="19.78201">
        <ele>120.900866</ele>
        <time>2022-05-14T08:45:50.093Z</time>
      </trkpt>
      <trkpt lat="41.35254" lon="19.78189">
        <ele>120.705843</ele>
        <time>2022-05-14T08:45:52.081Z</time>
      </trkpt>
      <trkpt lat="41.35258" lon="19.78173">
        <ele>120.423418</ele>
        <time>2022-05-14T08:45:55.063Z</time>
      </trkpt>
      <trkpt lat="41.35263" lon="19.78156">
        <ele>120.143218</ele>
        <time>2022-05-14T08:45:58.068Z</time>
      </trkpt>
      <trkpt lat="41.35266" lon="19.78141">
        <ele>119.874276</ele>
        <time>2022-05-14T08:46:01.072Z</time>
      </trkpt>
      <trkpt lat="41.35269" lon="19.78124">
        <ele>119.599577</ele>
        <time>2022-05-14T08:46:04.087Z</time>
      </trkpt>
      <trkpt lat="41.35272" lon="19.78106">
        <ele>119.305906</ele>
        <time>2022-05-14T08:46:07.072Z</time>
      </trkpt>
      <trkpt lat="41.35275" lon="19.78095">
        <ele>119.104388</ele>
        <time>2022-05-14T08:46:09.075Z</time>
      </trkpt>
      <trkpt lat="41.35278" lon="19.78082">
        <ele>118.892675</ele>
        <time>2022-05-14T08:46:11.087Z</time>
      </trkpt>
      <trkpt lat="41.35281" lon="19.78069">
        <ele>118.672213</ele>
        <time>2022-05-14T08:46:13.054Z</time>
      </trkpt>
      <trkpt lat="41.35284" lon="19.78057">
        <ele>118.462924</ele>
        <time>2022-05-14T08:46:15.088Z</time>
      </trkpt>
      <trkpt lat="41.35287" lon="19.78045">
        <ele>118.268237</ele>
        <time>2022-05-14T08:46:17.066Z</time>
      </trkpt>
      <trkpt lat="41.35289" lon="19.78033">
        <ele>118.057391</ele>
        <time>2022-05-14T08:46:19.067Z</time>
      </trkpt>
      <trkpt lat="41.35292" lon="19.7802">
        <ele>117.835619</ele>
        <time>2022-05-14T08:46:21.053Z</time>
      </trkpt>
      <trkpt lat="41.35295" lon="19.78006">
        <ele>117.604286</ele>
        <time>2022-05-14T08:46:23.063Z</time>
      </trkpt>
      <trkpt lat="41.35298" lon="19.77992">
        <ele>117.368848</ele>
        <time>2022-05-14T08:46:25.062Z</time>
      </trkpt>
      <trkpt lat="41.35301" lon="19.77978">
        <ele>117.135959</ele>
        <time>2022-05-14T08:46:27.069Z</time>
      </trkpt>
      <trkpt lat="41.35304" lon="19.77965">
        <ele>117.082538</ele>
        <time>2022-05-14T08:46:29.074Z</time>
      </trkpt>
      <trkpt lat="41.35307" lon="19.77953">
        <ele>117.046288</ele>
        <time>2022-05-14T08:46:31.075Z</time>
      </trkpt>
      <trkpt lat="41.35309" lon="19.7794">
        <ele>117.010652</ele>
        <time>2022-05-14T08:46:33.066Z</time>
      </trkpt>
      <trkpt lat="41.35311" lon="19.77928">
        <ele>116.97748</ele>
        <time>2022-05-14T08:46:35.074Z</time>
      </trkpt>
      <trkpt lat="41.35313" lon="19.77916">
        <ele>116.944484</ele>
        <time>2022-05-14T08:46:37.076Z</time>
      </trkpt>
      <trkpt lat="41.35317" lon="19.77899">
        <ele>116.8959</ele>
        <time>2022-05-14T08:46:40.062Z</time>
      </trkpt>
      <trkpt lat="41.35321" lon="19.77888">
        <ele>116.863133</ele>
        <time>2022-05-14T08:46:42.067Z</time>
      </trkpt>
      <trkpt lat="41.35327" lon="19.77875">
        <ele>116.821462</ele>
        <time>2022-05-14T08:46:45.070Z</time>
      </trkpt>
      <trkpt lat="41.35333" lon="19.77861">
        <ele>116.777594</ele>
        <time>2022-05-14T08:46:48.076Z</time>
      </trkpt>
      <trkpt lat="41.35339" lon="19.77848">
        <ele>116.735743</ele>
        <time>2022-05-14T08:46:50.108Z</time>
      </trkpt>
      <trkpt lat="41.35344" lon="19.77836">
        <ele>116.697033</ele>
        <time>2022-05-14T08:46:52.076Z</time>
      </trkpt>
      <trkpt lat="41.35349" lon="19.77824">
        <ele>116.660755</ele>
        <time>2022-05-14T08:46:54.079Z</time>
      </trkpt>
      <trkpt lat="41.35354" lon="19.77812">
        <ele>116.624775</ele>
        <time>2022-05-14T08:46:56.083Z</time>
      </trkpt>
      <trkpt lat="41.35359" lon="19.77801">
        <ele>116.589448</ele>
        <time>2022-05-14T08:46:58.083Z</time>
      </trkpt>
      <trkpt lat="41.35363" lon="19.77791">
        <ele>116.556185</ele>
        <time>2022-05-14T08:47:00.063Z</time>
      </trkpt>
      <trkpt lat="41.3537" lon="19.77776">
        <ele>116.508319</ele>
        <time>2022-05-14T08:47:03.070Z</time>
      </trkpt>
      <trkpt lat="41.35376" lon="19.77762">
        <ele>116.464265</ele>
        <time>2022-05-14T08:47:06.097Z</time>
      </trkpt>
      <trkpt lat="41.35383" lon="19.77749">
        <ele>116.333374</ele>
        <time>2022-05-14T08:47:09.075Z</time>
      </trkpt>
      <trkpt lat="41.35389" lon="19.77736">
        <ele>116.20381</ele>
        <time>2022-05-14T08:47:12.063Z</time>
      </trkpt>
      <trkpt lat="41.35395" lon="19.77721">
        <ele>116.056092</ele>
        <time>2022-05-14T08:47:15.064Z</time>
      </trkpt>
      <trkpt lat="41.35402" lon="19.77705">
        <ele>115.906883</ele>
        <time>2022-05-14T08:47:18.084Z</time>
      </trkpt>
      <trkpt lat="41.35407" lon="19.77695">
        <ele>115.801772</ele>
        <time>2022-05-14T08:47:20.060Z</time>
      </trkpt>
      <trkpt lat="41.35411" lon="19.77684">
        <ele>115.700159</ele>
        <time>2022-05-14T08:47:22.074Z</time>
      </trkpt>
      <trkpt lat="41.35418" lon="19.77669">
        <ele>115.555167</ele>
        <time>2022-05-14T08:47:25.069Z</time>
      </trkpt>
      <trkpt lat="41.35424" lon="19.77655">
        <ele>115.415754</ele>
        <time>2022-05-14T08:47:28.063Z</time>
      </trkpt>
      <trkpt lat="41.3543" lon="19.7764">
        <ele>115.271174</ele>
        <time>2022-05-14T08:47:31.064Z</time>
      </trkpt>
      <trkpt lat="41.35436" lon="19.77627">
        <ele>115.139098</ele>
        <time>2022-05-14T08:47:34.101Z</time>
      </trkpt>
      <trkpt lat="41.35442" lon="19.77615">
        <ele>115.01978</ele>
        <time>2022-05-14T08:47:37.078Z</time>
      </trkpt>
      <trkpt lat="41.35447" lon="19.77604">
        <ele>114.91595</ele>
        <time>2022-05-14T08:47:40.066Z</time>
      </trkpt>
      <trkpt lat="41.35452" lon="19.77594">
        <ele>114.805598</ele>
        <time>2022-05-14T08:47:44.080Z</time>
      </trkpt>
      <trkpt lat="41.35458" lon="19.77584">
        <ele>114.699259</ele>
        <time>2022-05-14T08:47:53.060Z</time>
      </trkpt>
      <trkpt lat="41.35465" lon="19.77573">
        <ele>114.574587</ele>
        <time>2022-05-14T08:47:58.095Z</time>
      </trkpt>
      <trkpt lat="41.35472" lon="19.77561">
        <ele>114.449967</ele>
        <time>2022-05-14T08:48:02.081Z</time>
      </trkpt>
      <trkpt lat="41.35479" lon="19.77551">
        <ele>114.74008</ele>
        <time>2022-05-14T08:48:06.084Z</time>
      </trkpt>
      <trkpt lat="41.35485" lon="19.77541">
        <ele>115.046321</ele>
        <time>2022-05-14T08:48:12.074Z</time>
      </trkpt>
      <trkpt lat="41.35491" lon="19.77529">
        <ele>115.380308</ele>
        <time>2022-05-14T08:48:20.077Z</time>
      </trkpt>
      <trkpt lat="41.35498" lon="19.77507">
        <ele>115.967685</ele>
        <time>2022-05-14T08:48:59.074Z</time>
      </trkpt>
      <trkpt lat="41.35503" lon="19.77493">
        <ele>116.347541</ele>
        <time>2022-05-14T08:49:03.073Z</time>
      </trkpt>
      <trkpt lat="41.35509" lon="19.77484">
        <ele>116.64517</ele>
        <time>2022-05-14T08:49:06.073Z</time>
      </trkpt>
      <trkpt lat="41.35518" lon="19.77476">
        <ele>117.000408</ele>
        <time>2022-05-14T08:49:10.059Z</time>
      </trkpt>
      <trkpt lat="41.35528" lon="19.77472">
        <ele>117.356085</ele>
        <time>2022-05-14T08:49:13.063Z</time>
      </trkpt>
      <trkpt lat="41.35539" lon="19.77468">
        <ele>117.716808</ele>
        <time>2022-05-14T08:49:16.056Z</time>
      </trkpt>
      <trkpt lat="41.35549" lon="19.77464">
        <ele>118.053682</ele>
        <time>2022-05-14T08:49:19.091Z</time>
      </trkpt>
      <trkpt lat="41.35559" lon="19.7746">
        <ele>118.378576</ele>
        <time>2022-05-14T08:49:22.074Z</time>
      </trkpt>
      <trkpt lat="41.35569" lon="19.77456">
        <ele>118.742779</ele>
        <time>2022-05-14T08:49:26.052Z</time>
      </trkpt>
      <trkpt lat="41.3558" lon="19.77452">
        <ele>119.111081</ele>
        <time>2022-05-14T08:49:30.093Z</time>
      </trkpt>
      <trkpt lat="41.35589" lon="19.77448">
        <ele>119.40678</ele>
        <time>2022-05-14T08:49:33.063Z</time>
      </trkpt>
      <trkpt lat="41.35598" lon="19.77445">
        <ele>119.723129</ele>
        <time>2022-05-14T08:49:37.079Z</time>
      </trkpt>
      <trkpt lat="41.35608" lon="19.77441">
        <ele>120.039597</ele>
        <time>2022-05-14T08:49:41.103Z</time>
      </trkpt>
      <trkpt lat="41.35618" lon="19.77438">
        <ele>120.515227</ele>
        <time>2022-05-14T08:49:46.066Z</time>
      </trkpt>
      <trkpt lat="41.35627" lon="19.77435">
        <ele>121.114421</ele>
        <time>2022-05-14T08:49:50.068Z</time>
      </trkpt>
      <trkpt lat="41.35637" lon="19.77433">
        <ele>121.748177</ele>
        <time>2022-05-14T08:49:54.075Z</time>
      </trkpt>
      <trkpt lat="41.35647" lon="19.77429">
        <ele>122.428625</ele>
        <time>2022-05-14T08:49:58.075Z</time>
      </trkpt>
      <trkpt lat="41.35658" lon="19.77426">
        <ele>123.159143</ele>
        <time>2022-05-14T08:50:03.098Z</time>
      </trkpt>
      <trkpt lat="41.35667" lon="19.77424">
        <ele>123.761717</ele>
        <time>2022-05-14T08:50:07.076Z</time>
      </trkpt>
      <trkpt lat="41.35676" lon="19.7742">
        <ele>124.380522</ele>
        <time>2022-05-14T08:50:11.053Z</time>
      </trkpt>
      <trkpt lat="41.35685" lon="19.77417">
        <ele>125.039195</ele>
        <time>2022-05-14T08:50:16.081Z</time>
      </trkpt>
      <trkpt lat="41.35694" lon="19.77412">
        <ele>125.645704</ele>
        <time>2022-05-14T08:50:20.109Z</time>
      </trkpt>
      <trkpt lat="41.35703" lon="19.77408">
        <ele>126.275331</ele>
        <time>2022-05-14T08:50:25.057Z</time>
      </trkpt>
      <trkpt lat="41.35713" lon="19.77403">
        <ele>126.989403</ele>
        <time>2022-05-14T08:50:30.093Z</time>
      </trkpt>
      <trkpt lat="41.35723" lon="19.77399">
        <ele>127.681214</ele>
        <time>2022-05-14T08:50:35.075Z</time>
      </trkpt>
      <trkpt lat="41.35733" lon="19.77394">
        <ele>128.363888</ele>
        <time>2022-05-14T08:50:40.070Z</time>
      </trkpt>
      <trkpt lat="41.35743" lon="19.77389">
        <ele>129.0377</ele>
        <time>2022-05-14T08:50:44.064Z</time>
      </trkpt>
      <trkpt lat="41.35751" lon="19.77385">
        <ele>129.633131</ele>
        <time>2022-05-14T08:50:48.072Z</time>
      </trkpt>
      <trkpt lat="41.35761" lon="19.7738">
        <ele>130.282529</ele>
        <time>2022-05-14T08:50:52.061Z</time>
      </trkpt>
      <trkpt lat="41.3577" lon="19.77373">
        <ele>130.973725</ele>
        <time>2022-05-14T08:50:56.087Z</time>
      </trkpt>
      <trkpt lat="41.35779" lon="19.77369">
        <ele>131.592528</ele>
        <time>2022-05-14T08:51:00.074Z</time>
      </trkpt>
      <trkpt lat="41.35787" lon="19.77365">
        <ele>132.1061</ele>
        <time>2022-05-14T08:51:04.068Z</time>
      </trkpt>
      <trkpt lat="41.35795" lon="19.77359">
        <ele>132.322462</ele>
        <time>2022-05-14T08:51:08.085Z</time>
      </trkpt>
      <trkpt lat="41.35806" lon="19.77352">
        <ele>132.584418</ele>
        <time>2022-05-14T08:51:13.076Z</time>
      </trkpt>
      <trkpt lat="41.35816" lon="19.77344">
        <ele>132.855964</ele>
        <time>2022-05-14T08:51:17.103Z</time>
      </trkpt>
      <trkpt lat="41.35824" lon="19.77338">
        <ele>133.064937</ele>
        <time>2022-05-14T08:51:21.108Z</time>
      </trkpt>
      <trkpt lat="41.35833" lon="19.77332">
        <ele>133.315823</ele>
        <time>2022-05-14T08:51:25.069Z</time>
      </trkpt>
      <trkpt lat="41.35842" lon="19.77324">
        <ele>133.547787</ele>
        <time>2022-05-14T08:51:29.066Z</time>
      </trkpt>
      <trkpt lat="41.3585" lon="19.77316">
        <ele>133.783168</ele>
        <time>2022-05-14T08:51:33.107Z</time>
      </trkpt>
      <trkpt lat="41.35857" lon="19.77309">
        <ele>133.994101</ele>
        <time>2022-05-14T08:51:37.092Z</time>
      </trkpt>
      <trkpt lat="41.35865" lon="19.77303">
        <ele>134.202436</ele>
        <time>2022-05-14T08:51:40.133Z</time>
      </trkpt>
      <trkpt lat="41.35874" lon="19.77297">
        <ele>134.440707</ele>
        <time>2022-05-14T08:51:44.078Z</time>
      </trkpt>
      <trkpt lat="41.35883" lon="19.77291">
        <ele>134.666363</ele>
        <time>2022-05-14T08:51:48.088Z</time>
      </trkpt>
      <trkpt lat="41.35892" lon="19.77285">
        <ele>134.882725</ele>
        <time>2022-05-14T08:51:52.069Z</time>
      </trkpt>
      <trkpt lat="41.35901" lon="19.77279">
        <ele>135.113013</ele>
        <time>2022-05-14T08:51:56.085Z</time>
      </trkpt>
      <trkpt lat="41.35909" lon="19.77273">
        <ele>135.345627</ele>
        <time>2022-05-14T08:51:59.069Z</time>
      </trkpt>
      <trkpt lat="41.35918" lon="19.77267">
        <ele>135.568444</ele>
        <time>2022-05-14T08:52:02.065Z</time>
      </trkpt>
      <trkpt lat="41.35928" lon="19.77259">
        <ele>135.829639</ele>
        <time>2022-05-14T08:52:06.066Z</time>
      </trkpt>
      <trkpt lat="41.35937" lon="19.77253">
        <ele>136.060576</ele>
        <time>2022-05-14T08:52:10.072Z</time>
      </trkpt>
      <trkpt lat="41.35947" lon="19.77247">
        <ele>136.144274</ele>
        <time>2022-05-14T08:52:15.092Z</time>
      </trkpt>
      <trkpt lat="41.35956" lon="19.77244">
        <ele>136.023311</ele>
        <time>2022-05-14T08:52:18.071Z</time>
      </trkpt>
      <trkpt lat="41.35966" lon="19.77238">
        <ele>135.882659</ele>
        <time>2022-05-14T08:52:21.076Z</time>
      </trkpt>
      <trkpt lat="41.35975" lon="19.77233">
        <ele>135.75713</ele>
        <time>2022-05-14T08:52:24.094Z</time>
      </trkpt>
      <trkpt lat="41.35985" lon="19.77231">
        <ele>135.616286</ele>
        <time>2022-05-14T08:52:28.085Z</time>
      </trkpt>
      <trkpt lat="41.35995" lon="19.77228">
        <ele>135.485787</ele>
        <time>2022-05-14T08:52:31.106Z</time>
      </trkpt>
      <trkpt lat="41.36004" lon="19.77222">
        <ele>135.353866</ele>
        <time>2022-05-14T08:52:34.065Z</time>
      </trkpt>
      <trkpt lat="41.36015" lon="19.77222">
        <ele>135.210448</ele>
        <time>2022-05-14T08:52:38.066Z</time>
      </trkpt>
      <trkpt lat="41.36027" lon="19.7722">
        <ele>135.058101</ele>
        <time>2022-05-14T08:52:42.071Z</time>
      </trkpt>
      <trkpt lat="41.36039" lon="19.77219">
        <ele>134.899781</ele>
        <time>2022-05-14T08:52:46.071Z</time>
      </trkpt>
      <trkpt lat="41.3605" lon="19.77217">
        <ele>134.750357</ele>
        <time>2022-05-14T08:52:50.072Z</time>
      </trkpt>
      <trkpt lat="41.3606" lon="19.77216">
        <ele>134.61861</ele>
        <time>2022-05-14T08:52:53.133Z</time>
      </trkpt>
      <trkpt lat="41.36073" lon="19.77215">
        <ele>134.453946</ele>
        <time>2022-05-14T08:52:56.119Z</time>
      </trkpt>
      <trkpt lat="41.36083" lon="19.77213">
        <ele>134.321666</ele>
        <time>2022-05-14T08:52:59.057Z</time>
      </trkpt>
      <trkpt lat="41.36094" lon="19.7721">
        <ele>134.173626</ele>
        <time>2022-05-14T08:53:02.121Z</time>
      </trkpt>
      <trkpt lat="41.36105" lon="19.77207">
        <ele>134.027458</ele>
        <time>2022-05-14T08:53:06.048Z</time>
      </trkpt>
      <trkpt lat="41.36116" lon="19.77205">
        <ele>133.886329</ele>
        <time>2022-05-14T08:53:10.039Z</time>
      </trkpt>
      <trkpt lat="41.36125" lon="19.77204">
        <ele>133.568675</ele>
        <time>2022-05-14T08:53:13.090Z</time>
      </trkpt>
      <trkpt lat="41.36135" lon="19.77203">
        <ele>133.207352</ele>
        <time>2022-05-14T08:53:16.074Z</time>
      </trkpt>
      <trkpt lat="41.36147" lon="19.77203">
        <ele>132.755402</ele>
        <time>2022-05-14T08:53:19.050Z</time>
      </trkpt>
      <trkpt lat="41.3616" lon="19.77202">
        <ele>132.26053</ele>
        <time>2022-05-14T08:53:22.094Z</time>
      </trkpt>
      <trkpt lat="41.36169" lon="19.772">
        <ele>131.901005</ele>
        <time>2022-05-14T08:53:24.090Z</time>
      </trkpt>
      <trkpt lat="41.36179" lon="19.77199">
        <ele>131.511297</ele>
        <time>2022-05-14T08:53:26.071Z</time>
      </trkpt>
      <trkpt lat="41.3619" lon="19.77198">
        <ele>131.11532</ele>
        <time>2022-05-14T08:53:28.067Z</time>
      </trkpt>
      <trkpt lat="41.36201" lon="19.77196">
        <ele>130.69101</ele>
        <time>2022-05-14T08:53:31.075Z</time>
      </trkpt>
      <trkpt lat="41.36214" lon="19.77194">
        <ele>130.20089</ele>
        <time>2022-05-14T08:53:34.098Z</time>
      </trkpt>
      <trkpt lat="41.36223" lon="19.77193">
        <ele>129.830663</ele>
        <time>2022-05-14T08:53:36.076Z</time>
      </trkpt>
      <trkpt lat="41.36234" lon="19.77192">
        <ele>129.438474</ele>
        <time>2022-05-14T08:53:38.080Z</time>
      </trkpt>
      <trkpt lat="41.36245" lon="19.7719">
        <ele>129.019097</ele>
        <time>2022-05-14T08:53:40.075Z</time>
      </trkpt>
      <trkpt lat="41.36254" lon="19.7719">
        <ele>128.642962</ele>
        <time>2022-05-14T08:53:42.083Z</time>
      </trkpt>
      <trkpt lat="41.36268" lon="19.7719">
        <ele>128.134052</ele>
        <time>2022-05-14T08:53:45.073Z</time>
      </trkpt>
      <trkpt lat="41.36278" lon="19.77188">
        <ele>127.72788</ele>
        <time>2022-05-14T08:53:47.089Z</time>
      </trkpt>
      <trkpt lat="41.3629" lon="19.77186">
        <ele>127.285004</ele>
        <time>2022-05-14T08:53:49.075Z</time>
      </trkpt>
      <trkpt lat="41.36303" lon="19.77183">
        <ele>126.689996</ele>
        <time>2022-05-14T08:53:51.098Z</time>
      </trkpt>
      <trkpt lat="41.36316" lon="19.77181">
        <ele>125.949357</ele>
        <time>2022-05-14T08:53:53.082Z</time>
      </trkpt>
      <trkpt lat="41.3633" lon="19.77177">
        <ele>125.154317</ele>
        <time>2022-05-14T08:53:55.122Z</time>
      </trkpt>
      <trkpt lat="41.36343" lon="19.77173">
        <ele>124.374577</ele>
        <time>2022-05-14T08:53:57.069Z</time>
      </trkpt>
      <trkpt lat="41.36356" lon="19.77169">
        <ele>123.617008</ele>
        <time>2022-05-14T08:53:59.074Z</time>
      </trkpt>
      <trkpt lat="41.3637" lon="19.77164">
        <ele>122.858359</ele>
        <time>2022-05-14T08:54:01.059Z</time>
      </trkpt>
      <trkpt lat="41.36383" lon="19.77159">
        <ele>122.099342</ele>
        <time>2022-05-14T08:54:03.093Z</time>
      </trkpt>
      <trkpt lat="41.36395" lon="19.77153">
        <ele>121.360535</ele>
        <time>2022-05-14T08:54:05.089Z</time>
      </trkpt>
      <trkpt lat="41.36407" lon="19.77147">
        <ele>120.645263</ele>
        <time>2022-05-14T08:54:07.068Z</time>
      </trkpt>
      <trkpt lat="41.36418" lon="19.77141">
        <ele>119.973313</ele>
        <time>2022-05-14T08:54:09.062Z</time>
      </trkpt>
      <trkpt lat="41.36428" lon="19.77136">
        <ele>119.374546</ele>
        <time>2022-05-14T08:54:11.083Z</time>
      </trkpt>
      <trkpt lat="41.36438" lon="19.77131">
        <ele>118.762321</ele>
        <time>2022-05-14T08:54:13.056Z</time>
      </trkpt>
      <trkpt lat="41.36448" lon="19.77126">
        <ele>118.200877</ele>
        <time>2022-05-14T08:54:15.062Z</time>
      </trkpt>
      <trkpt lat="41.3646" lon="19.77119">
        <ele>117.452943</ele>
        <time>2022-05-14T08:54:18.063Z</time>
      </trkpt>
      <trkpt lat="41.3647" lon="19.77114">
        <ele>116.905071</ele>
        <time>2022-05-14T08:54:20.102Z</time>
      </trkpt>
      <trkpt lat="41.36481" lon="19.77108">
        <ele>116.470793</ele>
        <time>2022-05-14T08:54:22.066Z</time>
      </trkpt>
      <trkpt lat="41.36493" lon="19.77101">
        <ele>115.978153</ele>
        <time>2022-05-14T08:54:24.062Z</time>
      </trkpt>
      <trkpt lat="41.36507" lon="19.77094">
        <ele>115.460011</ele>
        <time>2022-05-14T08:54:26.081Z</time>
      </trkpt>
      <trkpt lat="41.3652" lon="19.77086">
        <ele>114.921998</ele>
        <time>2022-05-14T08:54:28.103Z</time>
      </trkpt>
      <trkpt lat="41.36535" lon="19.77078">
        <ele>114.353024</ele>
        <time>2022-05-14T08:54:30.072Z</time>
      </trkpt>
      <trkpt lat="41.36547" lon="19.77071">
        <ele>113.85932</ele>
        <time>2022-05-14T08:54:32.075Z</time>
      </trkpt>
      <trkpt lat="41.36559" lon="19.77064">
        <ele>113.406495</ele>
        <time>2022-05-14T08:54:34.119Z</time>
      </trkpt>
      <trkpt lat="41.36569" lon="19.77059">
        <ele>113.012952</ele>
        <time>2022-05-14T08:54:36.093Z</time>
      </trkpt>
      <trkpt lat="41.3658" lon="19.77052">
        <ele>112.577792</ele>
        <time>2022-05-14T08:54:38.077Z</time>
      </trkpt>
      <trkpt lat="41.36594" lon="19.77044">
        <ele>112.032039</ele>
        <time>2022-05-14T08:54:40.091Z</time>
      </trkpt>
      <trkpt lat="41.36607" lon="19.77037">
        <ele>111.509629</ele>
        <time>2022-05-14T08:54:42.078Z</time>
      </trkpt>
      <trkpt lat="41.36618" lon="19.77031">
        <ele>111.080281</ele>
        <time>2022-05-14T08:54:44.062Z</time>
      </trkpt>
      <trkpt lat="41.36628" lon="19.77026">
        <ele>110.702226</ele>
        <time>2022-05-14T08:54:46.071Z</time>
      </trkpt>
      <trkpt lat="41.36637" lon="19.77022">
        <ele>110.352809</ele>
        <time>2022-05-14T08:54:48.077Z</time>
      </trkpt>
      <trkpt lat="41.36645" lon="19.77017">
        <ele>110.023957</ele>
        <time>2022-05-14T08:54:52.087Z</time>
      </trkpt>
      <trkpt lat="41.36657" lon="19.77011">
        <ele>109.587387</ele>
        <time>2022-05-14T08:54:56.074Z</time>
      </trkpt>
      <trkpt lat="41.36665" lon="19.77007">
        <ele>109.26519</ele>
        <time>2022-05-14T08:54:58.102Z</time>
      </trkpt>
      <trkpt lat="41.36675" lon="19.77002">
        <ele>108.895261</ele>
        <time>2022-05-14T08:55:00.092Z</time>
      </trkpt>
      <trkpt lat="41.36684" lon="19.76996">
        <ele>108.518948</ele>
        <time>2022-05-14T08:55:02.067Z</time>
      </trkpt>
      <trkpt lat="41.36693" lon="19.76991">
        <ele>108.187267</ele>
        <time>2022-05-14T08:55:04.072Z</time>
      </trkpt>
      <trkpt lat="41.36702" lon="19.76987">
        <ele>107.838336</ele>
        <time>2022-05-14T08:55:06.071Z</time>
      </trkpt>
      <trkpt lat="41.36712" lon="19.76982">
        <ele>107.477031</ele>
        <time>2022-05-14T08:55:08.075Z</time>
      </trkpt>
      <trkpt lat="41.36721" lon="19.76977">
        <ele>107.111416</ele>
        <time>2022-05-14T08:55:10.076Z</time>
      </trkpt>
      <trkpt lat="41.3673" lon="19.76972">
        <ele>106.748091</ele>
        <time>2022-05-14T08:55:12.103Z</time>
      </trkpt>
      <trkpt lat="41.36739" lon="19.76967">
        <ele>106.420756</ele>
        <time>2022-05-14T08:55:14.077Z</time>
      </trkpt>
      <trkpt lat="41.3675" lon="19.76961">
        <ele>105.987814</ele>
        <time>2022-05-14T08:55:17.075Z</time>
      </trkpt>
      <trkpt lat="41.36759" lon="19.76956">
        <ele>105.647403</ele>
        <time>2022-05-14T08:55:19.084Z</time>
      </trkpt>
      <trkpt lat="41.36768" lon="19.76952">
        <ele>105.293282</ele>
        <time>2022-05-14T08:55:21.086Z</time>
      </trkpt>
      <trkpt lat="41.36778" lon="19.76947">
        <ele>104.940587</ele>
        <time>2022-05-14T08:55:23.121Z</time>
      </trkpt>
      <trkpt lat="41.36787" lon="19.76943">
        <ele>104.585808</ele>
        <time>2022-05-14T08:55:25.081Z</time>
      </trkpt>
      <trkpt lat="41.36796" lon="19.76938">
        <ele>104.243244</ele>
        <time>2022-05-14T08:55:27.089Z</time>
      </trkpt>
      <trkpt lat="41.36804" lon="19.76933">
        <ele>104.018822</ele>
        <time>2022-05-14T08:55:29.071Z</time>
      </trkpt>
      <trkpt lat="41.36813" lon="19.76928">
        <ele>103.98041</ele>
        <time>2022-05-14T08:55:31.115Z</time>
      </trkpt>
      <trkpt lat="41.36822" lon="19.76923">
        <ele>103.941375</ele>
        <time>2022-05-14T08:55:33.059Z</time>
      </trkpt>
      <trkpt lat="41.36832" lon="19.76918">
        <ele>103.899362</ele>
        <time>2022-05-14T08:55:35.069Z</time>
      </trkpt>
      <trkpt lat="41.36842" lon="19.76912">
        <ele>103.858556</ele>
        <time>2022-05-14T08:55:37.068Z</time>
      </trkpt>
      <trkpt lat="41.36851" lon="19.76907">
        <ele>103.817979</ele>
        <time>2022-05-14T08:55:39.080Z</time>
      </trkpt>
      <trkpt lat="41.36861" lon="19.76902">
        <ele>103.777536</ele>
        <time>2022-05-14T08:55:41.095Z</time>
      </trkpt>
      <trkpt lat="41.3687" lon="19.76896">
        <ele>103.737937</ele>
        <time>2022-05-14T08:55:43.060Z</time>
      </trkpt>
      <trkpt lat="41.36879" lon="19.76891">
        <ele>103.698817</ele>
        <time>2022-05-14T08:55:45.106Z</time>
      </trkpt>
      <trkpt lat="41.36888" lon="19.76886">
        <ele>103.658718</ele>
        <time>2022-05-14T08:55:47.092Z</time>
      </trkpt>
      <trkpt lat="41.36897" lon="19.76881">
        <ele>103.621157</ele>
        <time>2022-05-14T08:55:49.073Z</time>
      </trkpt>
      <trkpt lat="41.36906" lon="19.76876">
        <ele>103.581753</ele>
        <time>2022-05-14T08:55:51.057Z</time>
      </trkpt>
      <trkpt lat="41.36915" lon="19.76871">
        <ele>103.544185</ele>
        <time>2022-05-14T08:55:53.071Z</time>
      </trkpt>
      <trkpt lat="41.36924" lon="19.76866">
        <ele>103.506504</ele>
        <time>2022-05-14T08:55:55.088Z</time>
      </trkpt>
      <trkpt lat="41.36933" lon="19.76861">
        <ele>103.4675</ele>
        <time>2022-05-14T08:55:57.060Z</time>
      </trkpt>
      <trkpt lat="41.36941" lon="19.76856">
        <ele>103.430309</ele>
        <time>2022-05-14T08:55:59.080Z</time>
      </trkpt>
      <trkpt lat="41.36953" lon="19.76849">
        <ele>103.379392</ele>
        <time>2022-05-14T08:56:02.093Z</time>
      </trkpt>
      <trkpt lat="41.36963" lon="19.76843">
        <ele>103.3369</ele>
        <time>2022-05-14T08:56:05.062Z</time>
      </trkpt>
      <trkpt lat="41.36973" lon="19.76837">
        <ele>103.254233</ele>
        <time>2022-05-14T08:56:08.062Z</time>
      </trkpt>
      <trkpt lat="41.36983" lon="19.76832">
        <ele>103.14732</ele>
        <time>2022-05-14T08:56:11.074Z</time>
      </trkpt>
      <trkpt lat="41.36991" lon="19.76827">
        <ele>103.053242</ele>
        <time>2022-05-14T08:56:14.056Z</time>
      </trkpt>
      <trkpt lat="41.37001" lon="19.76822">
        <ele>102.948293</ele>
        <time>2022-05-14T08:56:17.076Z</time>
      </trkpt>
      <trkpt lat="41.37011" lon="19.76816">
        <ele>102.83924</ele>
        <time>2022-05-14T08:56:20.065Z</time>
      </trkpt>
      <trkpt lat="41.37021" lon="19.76814">
        <ele>102.740181</ele>
        <time>2022-05-14T08:56:23.084Z</time>
      </trkpt>
      <trkpt lat="41.3703" lon="19.76813">
        <ele>102.646568</ele>
        <time>2022-05-14T08:56:26.087Z</time>
      </trkpt>
      <trkpt lat="41.37041" lon="19.76805">
        <ele>102.527616</ele>
        <time>2022-05-14T08:56:29.132Z</time>
      </trkpt>
      <trkpt lat="41.3705" lon="19.76796">
        <ele>102.411377</ele>
        <time>2022-05-14T08:56:33.079Z</time>
      </trkpt>
      <trkpt lat="41.37058" lon="19.76789">
        <ele>102.314166</ele>
        <time>2022-05-14T08:56:36.075Z</time>
      </trkpt>
      <trkpt lat="41.37068" lon="19.76783">
        <ele>102.205734</ele>
        <time>2022-05-14T08:56:39.096Z</time>
      </trkpt>
      <trkpt lat="41.37078" lon="19.76777">
        <ele>102.097302</ele>
        <time>2022-05-14T08:56:42.099Z</time>
      </trkpt>
      <trkpt lat="41.37088" lon="19.7677">
        <ele>101.983501</ele>
        <time>2022-05-14T08:56:45.073Z</time>
      </trkpt>
      <trkpt lat="41.37099" lon="19.76764">
        <ele>101.859674</ele>
        <time>2022-05-14T08:56:48.072Z</time>
      </trkpt>
      <trkpt lat="41.37111" lon="19.76757">
        <ele>101.73473</ele>
        <time>2022-05-14T08:56:51.111Z</time>
      </trkpt>
      <trkpt lat="41.37121" lon="19.76751">
        <ele>101.621942</ele>
        <time>2022-05-14T08:56:54.074Z</time>
      </trkpt>
      <trkpt lat="41.37132" lon="19.76743">
        <ele>101.516321</ele>
        <time>2022-05-14T08:56:57.072Z</time>
      </trkpt>
      <trkpt lat="41.37144" lon="19.76737">
        <ele>101.509531</ele>
        <time>2022-05-14T08:57:00.061Z</time>
      </trkpt>
      <trkpt lat="41.37153" lon="19.76734">
        <ele>101.504392</ele>
        <time>2022-05-14T08:57:02.108Z</time>
      </trkpt>
      <trkpt lat="41.37165" lon="19.76727">
        <ele>101.497617</ele>
        <time>2022-05-14T08:57:05.080Z</time>
      </trkpt>
      <trkpt lat="41.37174" lon="19.76722">
        <ele>101.49259</ele>
        <time>2022-05-14T08:57:07.060Z</time>
      </trkpt>
      <trkpt lat="41.37183" lon="19.76717">
        <ele>101.487532</ele>
        <time>2022-05-14T08:57:09.092Z</time>
      </trkpt>
      <trkpt lat="41.37191" lon="19.76712">
        <ele>101.48279</ele>
        <time>2022-05-14T08:57:11.071Z</time>
      </trkpt>
      <trkpt lat="41.37203" lon="19.76705">
        <ele>101.475838</ele>
        <time>2022-05-14T08:57:14.085Z</time>
      </trkpt>
      <trkpt lat="41.37215" lon="19.76699">
        <ele>101.469054</ele>
        <time>2022-05-14T08:57:17.064Z</time>
      </trkpt>
      <trkpt lat="41.37227" lon="19.76693">
        <ele>101.462531</ele>
        <time>2022-05-14T08:57:20.090Z</time>
      </trkpt>
      <trkpt lat="41.37237" lon="19.76687">
        <ele>101.456285</ele>
        <time>2022-05-14T08:57:23.079Z</time>
      </trkpt>
      <trkpt lat="41.37248" lon="19.76683">
        <ele>101.45054</ele>
        <time>2022-05-14T08:57:26.067Z</time>
      </trkpt>
      <trkpt lat="41.37257" lon="19.76679">
        <ele>101.445289</ele>
        <time>2022-05-14T08:57:29.087Z</time>
      </trkpt>
      <trkpt lat="41.37273" lon="19.76665">
        <ele>101.435574</ele>
        <time>2022-05-14T09:00:28.076Z</time>
      </trkpt>
      <trkpt lat="41.37282" lon="19.7666">
        <ele>101.430191</ele>
        <time>2022-05-14T09:00:31.070Z</time>
      </trkpt>
      <trkpt lat="41.37292" lon="19.76655">
        <ele>101.424764</ele>
        <time>2022-05-14T09:00:34.076Z</time>
      </trkpt>
      <trkpt lat="41.37301" lon="19.76649">
        <ele>101.619708</ele>
        <time>2022-05-14T09:00:37.078Z</time>
      </trkpt>
      <trkpt lat="41.37311" lon="19.76644">
        <ele>101.949089</ele>
        <time>2022-05-14T09:00:40.085Z</time>
      </trkpt>
      <trkpt lat="41.37321" lon="19.76638">
        <ele>102.300335</ele>
        <time>2022-05-14T09:00:43.066Z</time>
      </trkpt>
      <trkpt lat="41.37332" lon="19.76632">
        <ele>102.673693</ele>
        <time>2022-05-14T09:00:46.065Z</time>
      </trkpt>
      <trkpt lat="41.37343" lon="19.76625">
        <ele>103.053773</ele>
        <time>2022-05-14T09:00:49.091Z</time>
      </trkpt>
      <trkpt lat="41.37351" lon="19.7662">
        <ele>103.340881</ele>
        <time>2022-05-14T09:00:51.070Z</time>
      </trkpt>
      <trkpt lat="41.37363" lon="19.76612">
        <ele>103.754083</ele>
        <time>2022-05-14T09:00:54.079Z</time>
      </trkpt>
      <trkpt lat="41.37374" lon="19.76606">
        <ele>104.12383</ele>
        <time>2022-05-14T09:00:57.078Z</time>
      </trkpt>
      <trkpt lat="41.37385" lon="19.766">
        <ele>104.518274</ele>
        <time>2022-05-14T09:01:00.053Z</time>
      </trkpt>
      <trkpt lat="41.37397" lon="19.76593">
        <ele>104.928061</ele>
        <time>2022-05-14T09:01:03.072Z</time>
      </trkpt>
      <trkpt lat="41.3741" lon="19.76587">
        <ele>105.358493</ele>
        <time>2022-05-14T09:01:06.072Z</time>
      </trkpt>
      <trkpt lat="41.37419" lon="19.76582">
        <ele>105.655431</ele>
        <time>2022-05-14T09:01:08.146Z</time>
      </trkpt>
      <trkpt lat="41.37431" lon="19.76575">
        <ele>106.075853</ele>
        <time>2022-05-14T09:01:11.093Z</time>
      </trkpt>
      <trkpt lat="41.3744" lon="19.7657">
        <ele>106.381996</ele>
        <time>2022-05-14T09:01:13.059Z</time>
      </trkpt>
      <trkpt lat="41.37449" lon="19.76566">
        <ele>106.668418</ele>
        <time>2022-05-14T09:01:15.067Z</time>
      </trkpt>
      <trkpt lat="41.3746" lon="19.76558">
        <ele>107.063002</ele>
        <time>2022-05-14T09:01:18.096Z</time>
      </trkpt>
      <trkpt lat="41.37471" lon="19.76552">
        <ele>107.17035</ele>
        <time>2022-05-14T09:01:21.068Z</time>
      </trkpt>
      <trkpt lat="41.37483" lon="19.76545">
        <ele>107.259413</ele>
        <time>2022-05-14T09:01:24.074Z</time>
      </trkpt>
      <trkpt lat="41.37494" lon="19.76539">
        <ele>107.343993</ele>
        <time>2022-05-14T09:01:27.069Z</time>
      </trkpt>
      <trkpt lat="41.37506" lon="19.76532">
        <ele>107.439309</ele>
        <time>2022-05-14T09:01:30.086Z</time>
      </trkpt>
      <trkpt lat="41.37518" lon="19.76525">
        <ele>107.529655</ele>
        <time>2022-05-14T09:01:33.073Z</time>
      </trkpt>
      <trkpt lat="41.3753" lon="19.76519">
        <ele>107.621031</ele>
        <time>2022-05-14T09:01:36.083Z</time>
      </trkpt>
      <trkpt lat="41.37539" lon="19.76514">
        <ele>107.692277</ele>
        <time>2022-05-14T09:01:39.066Z</time>
      </trkpt>
      <trkpt lat="41.3755" lon="19.76509">
        <ele>107.769683</ele>
        <time>2022-05-14T09:01:42.077Z</time>
      </trkpt>
      <trkpt lat="41.3756" lon="19.765">
        <ele>107.857793</ele>
        <time>2022-05-14T09:01:45.088Z</time>
      </trkpt>
      <trkpt lat="41.37568" lon="19.76495">
        <ele>107.921616</ele>
        <time>2022-05-14T09:01:47.109Z</time>
      </trkpt>
      <trkpt lat="41.37581" lon="19.76488">
        <ele>108.017561</ele>
        <time>2022-05-14T09:01:50.071Z</time>
      </trkpt>
      <trkpt lat="41.37592" lon="19.76482">
        <ele>108.104883</ele>
        <time>2022-05-14T09:01:53.113Z</time>
      </trkpt>
      <trkpt lat="41.37604" lon="19.76477">
        <ele>108.195893</ele>
        <time>2022-05-14T09:01:56.094Z</time>
      </trkpt>
      <trkpt lat="41.37613" lon="19.76472">
        <ele>108.260825</ele>
        <time>2022-05-14T09:01:58.062Z</time>
      </trkpt>
      <trkpt lat="41.37624" lon="19.76465">
        <ele>108.349441</ele>
        <time>2022-05-14T09:02:01.086Z</time>
      </trkpt>
      <trkpt lat="41.37636" lon="19.76459">
        <ele>108.596053</ele>
        <time>2022-05-14T09:02:04.102Z</time>
      </trkpt>
      <trkpt lat="41.37648" lon="19.76452">
        <ele>108.897089</ele>
        <time>2022-05-14T09:02:07.060Z</time>
      </trkpt>
      <trkpt lat="41.37659" lon="19.76446">
        <ele>109.166447</ele>
        <time>2022-05-14T09:02:10.070Z</time>
      </trkpt>
      <trkpt lat="41.37671" lon="19.76438">
        <ele>109.445417</ele>
        <time>2022-05-14T09:02:13.065Z</time>
      </trkpt>
      <trkpt lat="41.37681" lon="19.76431">
        <ele>109.707362</ele>
        <time>2022-05-14T09:02:16.113Z</time>
      </trkpt>
      <trkpt lat="41.37693" lon="19.76424">
        <ele>109.997028</ele>
        <time>2022-05-14T09:02:19.080Z</time>
      </trkpt>
      <trkpt lat="41.37705" lon="19.76415">
        <ele>110.297765</ele>
        <time>2022-05-14T09:02:22.063Z</time>
      </trkpt>
      <trkpt lat="41.37714" lon="19.76409">
        <ele>110.514813</ele>
        <time>2022-05-14T09:02:24.081Z</time>
      </trkpt>
      <trkpt lat="41.37723" lon="19.76404">
        <ele>110.736208</ele>
        <time>2022-05-14T09:02:26.117Z</time>
      </trkpt>
      <trkpt lat="41.37733" lon="19.76398">
        <ele>110.971145</ele>
        <time>2022-05-14T09:02:28.064Z</time>
      </trkpt>
      <trkpt lat="41.37742" lon="19.76392">
        <ele>111.202023</ele>
        <time>2022-05-14T09:02:30.093Z</time>
      </trkpt>
      <trkpt lat="41.37751" lon="19.76387">
        <ele>111.409952</ele>
        <time>2022-05-14T09:02:32.084Z</time>
      </trkpt>
      <trkpt lat="41.37762" lon="19.76381">
        <ele>111.672541</ele>
        <time>2022-05-14T09:02:35.069Z</time>
      </trkpt>
      <trkpt lat="41.37771" lon="19.76375">
        <ele>111.898759</ele>
        <time>2022-05-14T09:02:37.118Z</time>
      </trkpt>
      <trkpt lat="41.37781" lon="19.76368">
        <ele>112.147271</ele>
        <time>2022-05-14T09:02:39.063Z</time>
      </trkpt>
      <trkpt lat="41.37791" lon="19.76363">
        <ele>112.350154</ele>
        <time>2022-05-14T09:02:41.071Z</time>
      </trkpt>
      <trkpt lat="41.37801" lon="19.76357">
        <ele>112.370235</ele>
        <time>2022-05-14T09:02:43.066Z</time>
      </trkpt>
      <trkpt lat="41.37811" lon="19.76351">
        <ele>112.390595</ele>
        <time>2022-05-14T09:02:45.080Z</time>
      </trkpt>
      <trkpt lat="41.37822" lon="19.76345">
        <ele>112.411619</ele>
        <time>2022-05-14T09:02:47.062Z</time>
      </trkpt>
      <trkpt lat="41.37833" lon="19.76339">
        <ele>112.433372</ele>
        <time>2022-05-14T09:02:49.070Z</time>
      </trkpt>
      <trkpt lat="41.37843" lon="19.76334">
        <ele>112.453084</ele>
        <time>2022-05-14T09:02:51.064Z</time>
      </trkpt>
      <trkpt lat="41.37852" lon="19.76328">
        <ele>112.471561</ele>
        <time>2022-05-14T09:02:53.051Z</time>
      </trkpt>
      <trkpt lat="41.37861" lon="19.76323">
        <ele>112.488212</ele>
        <time>2022-05-14T09:02:55.052Z</time>
      </trkpt>
      <trkpt lat="41.37873" lon="19.76315">
        <ele>112.512518</ele>
        <time>2022-05-14T09:02:58.086Z</time>
      </trkpt>
      <trkpt lat="41.37882" lon="19.76308">
        <ele>112.531425</ele>
        <time>2022-05-14T09:03:00.065Z</time>
      </trkpt>
      <trkpt lat="41.3789" lon="19.76303">
        <ele>112.548577</ele>
        <time>2022-05-14T09:03:02.073Z</time>
      </trkpt>
      <trkpt lat="41.379" lon="19.76299">
        <ele>112.567099</ele>
        <time>2022-05-14T09:03:04.067Z</time>
      </trkpt>
      <trkpt lat="41.37913" lon="19.76292">
        <ele>112.592436</ele>
        <time>2022-05-14T09:03:06.074Z</time>
      </trkpt>
      <trkpt lat="41.37923" lon="19.76287">
        <ele>112.612173</ele>
        <time>2022-05-14T09:03:08.122Z</time>
      </trkpt>
      <trkpt lat="41.37932" lon="19.76281">
        <ele>112.630762</ele>
        <time>2022-05-14T09:03:11.111Z</time>
      </trkpt>
      <trkpt lat="41.37942" lon="19.76275">
        <ele>112.650677</ele>
        <time>2022-05-14T09:03:14.069Z</time>
      </trkpt>
      <trkpt lat="41.37953" lon="19.76269">
        <ele>112.672042</ele>
        <time>2022-05-14T09:03:17.104Z</time>
      </trkpt>
      <trkpt lat="41.37962" lon="19.76265">
        <ele>112.410125</ele>
        <time>2022-05-14T09:03:19.052Z</time>
      </trkpt>
      <trkpt lat="41.37971" lon="19.76261">
        <ele>112.127483</ele>
        <time>2022-05-14T09:03:21.077Z</time>
      </trkpt>
      <trkpt lat="41.37983" lon="19.76255">
        <ele>111.720544</ele>
        <time>2022-05-14T09:03:24.073Z</time>
      </trkpt>
      <trkpt lat="41.37993" lon="19.7625">
        <ele>111.381325</ele>
        <time>2022-05-14T09:03:26.072Z</time>
      </trkpt>
      <trkpt lat="41.38003" lon="19.76246">
        <ele>111.065489</ele>
        <time>2022-05-14T09:03:28.088Z</time>
      </trkpt>
      <trkpt lat="41.38012" lon="19.76243">
        <ele>110.766381</ele>
        <time>2022-05-14T09:03:30.088Z</time>
      </trkpt>
      <trkpt lat="41.38022" lon="19.76238">
        <ele>110.453602</ele>
        <time>2022-05-14T09:03:32.074Z</time>
      </trkpt>
      <trkpt lat="41.38032" lon="19.76233">
        <ele>110.109366</ele>
        <time>2022-05-14T09:03:34.063Z</time>
      </trkpt>
      <trkpt lat="41.38042" lon="19.76227">
        <ele>109.780076</ele>
        <time>2022-05-14T09:03:36.082Z</time>
      </trkpt>
      <trkpt lat="41.38051" lon="19.76222">
        <ele>109.465136</ele>
        <time>2022-05-14T09:03:38.067Z</time>
      </trkpt>
      <trkpt lat="41.3806" lon="19.76216">
        <ele>109.176677</ele>
        <time>2022-05-14T09:03:40.137Z</time>
      </trkpt>
      <trkpt lat="41.38072" lon="19.76209">
        <ele>108.757954</ele>
        <time>2022-05-14T09:03:43.074Z</time>
      </trkpt>
      <trkpt lat="41.38081" lon="19.76205">
        <ele>108.470976</ele>
        <time>2022-05-14T09:03:45.052Z</time>
      </trkpt>
      <trkpt lat="41.3809" lon="19.762">
        <ele>108.164584</ele>
        <time>2022-05-14T09:03:47.057Z</time>
      </trkpt>
      <trkpt lat="41.38101" lon="19.76194">
        <ele>107.810528</ele>
        <time>2022-05-14T09:03:49.054Z</time>
      </trkpt>
      <trkpt lat="41.3811" lon="19.7619">
        <ele>107.515132</ele>
        <time>2022-05-14T09:03:51.060Z</time>
      </trkpt>
      <trkpt lat="41.3812" lon="19.76185">
        <ele>107.184621</ele>
        <time>2022-05-14T09:03:54.056Z</time>
      </trkpt>
      <trkpt lat="41.38129" lon="19.76181">
        <ele>106.942407</ele>
        <time>2022-05-14T09:04:00.073Z</time>
      </trkpt>
      <trkpt lat="41.38137" lon="19.76176">
        <ele>106.719735</ele>
        <time>2022-05-14T09:04:09.113Z</time>
      </trkpt>
      <trkpt lat="41.38146" lon="19.76172">
        <ele>106.505909</ele>
        <time>2022-05-14T09:04:17.066Z</time>
      </trkpt>
      <trkpt lat="41.38162" lon="19.76163">
        <ele>106.091454</ele>
        <time>2022-05-14T09:04:35.084Z</time>
      </trkpt>
      <trkpt lat="41.3817" lon="19.76158">
        <ele>105.877072</ele>
        <time>2022-05-14T09:04:39.081Z</time>
      </trkpt>
      <trkpt lat="41.38179" lon="19.76153">
        <ele>105.648066</ele>
        <time>2022-05-14T09:04:43.104Z</time>
      </trkpt>
      <trkpt lat="41.38189" lon="19.76147">
        <ele>105.394552</ele>
        <time>2022-05-14T09:04:47.066Z</time>
      </trkpt>
      <trkpt lat="41.38198" lon="19.76142">
        <ele>105.157801</ele>
        <time>2022-05-14T09:04:52.083Z</time>
      </trkpt>
      <trkpt lat="41.38207" lon="19.76135">
        <ele>104.910271</ele>
        <time>2022-05-14T09:04:56.092Z</time>
      </trkpt>
      <trkpt lat="41.38217" lon="19.76127">
        <ele>104.628221</ele>
        <time>2022-05-14T09:05:00.064Z</time>
      </trkpt>
      <trkpt lat="41.38226" lon="19.76123">
        <ele>104.402505</ele>
        <time>2022-05-14T09:05:03.069Z</time>
      </trkpt>
      <trkpt lat="41.38239" lon="19.76117">
        <ele>104.096642</ele>
        <time>2022-05-14T09:05:06.150Z</time>
      </trkpt>
      <trkpt lat="41.38251" lon="19.76111">
        <ele>103.788407</ele>
        <time>2022-05-14T09:05:09.069Z</time>
      </trkpt>
      <trkpt lat="41.38262" lon="19.76104">
        <ele>103.488179</ele>
        <time>2022-05-14T09:05:12.083Z</time>
      </trkpt>
      <trkpt lat="41.38273" lon="19.76098">
        <ele>103.200858</ele>
        <time>2022-05-14T09:05:15.076Z</time>
      </trkpt>
      <trkpt lat="41.38284" lon="19.76092">
        <ele>102.916406</ele>
        <time>2022-05-14T09:05:18.071Z</time>
      </trkpt>
      <trkpt lat="41.38295" lon="19.76088">
        <ele>102.980024</ele>
        <time>2022-05-14T09:05:21.068Z</time>
      </trkpt>
      <trkpt lat="41.38303" lon="19.76082">
        <ele>103.148841</ele>
        <time>2022-05-14T09:05:24.083Z</time>
      </trkpt>
      <trkpt lat="41.38312" lon="19.76076">
        <ele>103.327683</ele>
        <time>2022-05-14T09:05:27.074Z</time>
      </trkpt>
      <trkpt lat="41.38323" lon="19.76069">
        <ele>103.538231</ele>
        <time>2022-05-14T09:05:31.132Z</time>
      </trkpt>
      <trkpt lat="41.38332" lon="19.76064">
        <ele>103.70021</ele>
        <time>2022-05-14T09:05:35.092Z</time>
      </trkpt>
      <trkpt lat="41.38341" lon="19.76063">
        <ele>103.860967</ele>
        <time>2022-05-14T09:05:41.073Z</time>
      </trkpt>
      <trkpt lat="41.3835" lon="19.76058">
        <ele>104.02669</ele>
        <time>2022-05-14T09:05:44.095Z</time>
      </trkpt>
      <trkpt lat="41.38357" lon="19.7605">
        <ele>104.193221</ele>
        <time>2022-05-14T09:05:47.059Z</time>
      </trkpt>
      <trkpt lat="41.38365" lon="19.76041">
        <ele>104.378015</ele>
        <time>2022-05-14T09:05:51.072Z</time>
      </trkpt>
      <trkpt lat="41.38374" lon="19.76031">
        <ele>104.583443</ele>
        <time>2022-05-14T09:05:54.127Z</time>
      </trkpt>
      <trkpt lat="41.38386" lon="19.76025">
        <ele>104.810533</ele>
        <time>2022-05-14T09:05:57.070Z</time>
      </trkpt>
      <trkpt lat="41.38399" lon="19.76018">
        <ele>105.049356</ele>
        <time>2022-05-14T09:06:00.126Z</time>
      </trkpt>
      <trkpt lat="41.38407" lon="19.76014">
        <ele>105.212314</ele>
        <time>2022-05-14T09:06:02.067Z</time>
      </trkpt>
      <trkpt lat="41.38416" lon="19.76009">
        <ele>105.373152</ele>
        <time>2022-05-14T09:06:04.055Z</time>
      </trkpt>
      <trkpt lat="41.38425" lon="19.76004">
        <ele>105.540868</ele>
        <time>2022-05-14T09:06:06.104Z</time>
      </trkpt>
      <trkpt lat="41.38434" lon="19.75999">
        <ele>105.711814</ele>
        <time>2022-05-14T09:06:08.066Z</time>
      </trkpt>
      <trkpt lat="41.38442" lon="19.75994">
        <ele>105.875785</ele>
        <time>2022-05-14T09:06:10.062Z</time>
      </trkpt>
      <trkpt lat="41.38451" lon="19.75989">
        <ele>106.056027</ele>
        <time>2022-05-14T09:06:12.103Z</time>
      </trkpt>
      <trkpt lat="41.38462" lon="19.75982">
        <ele>106.420164</ele>
        <time>2022-05-14T09:06:15.073Z</time>
      </trkpt>
      <trkpt lat="41.38473" lon="19.75974">
        <ele>106.780152</ele>
        <time>2022-05-14T09:06:18.076Z</time>
      </trkpt>
      <trkpt lat="41.38484" lon="19.75967">
        <ele>107.154444</ele>
        <time>2022-05-14T09:06:21.065Z</time>
      </trkpt>
      <trkpt lat="41.38495" lon="19.7596">
        <ele>107.483705</ele>
        <time>2022-05-14T09:06:24.108Z</time>
      </trkpt>
      <trkpt lat="41.38507" lon="19.75953">
        <ele>107.877343</ele>
        <time>2022-05-14T09:06:27.071Z</time>
      </trkpt>
      <trkpt lat="41.38518" lon="19.75945">
        <ele>108.242126</ele>
        <time>2022-05-14T09:06:30.076Z</time>
      </trkpt>
      <trkpt lat="41.38529" lon="19.75939">
        <ele>108.581974</ele>
        <time>2022-05-14T09:06:33.075Z</time>
      </trkpt>
      <trkpt lat="41.38542" lon="19.75932">
        <ele>108.986217</ele>
        <time>2022-05-14T09:06:36.068Z</time>
      </trkpt>
      <trkpt lat="41.38552" lon="19.75926">
        <ele>109.288965</ele>
        <time>2022-05-14T09:06:38.088Z</time>
      </trkpt>
      <trkpt lat="41.38562" lon="19.7592">
        <ele>109.627027</ele>
        <time>2022-05-14T09:06:40.068Z</time>
      </trkpt>
      <trkpt lat="41.38572" lon="19.75915">
        <ele>109.930286</ele>
        <time>2022-05-14T09:06:42.081Z</time>
      </trkpt>
      <trkpt lat="41.38581" lon="19.75912">
        <ele>110.211378</ele>
        <time>2022-05-14T09:06:44.083Z</time>
      </trkpt>
      <trkpt lat="41.38594" lon="19.75905">
        <ele>110.601543</ele>
        <time>2022-05-14T09:06:47.072Z</time>
      </trkpt>
      <trkpt lat="41.38603" lon="19.75899">
        <ele>110.884891</ele>
        <time>2022-05-14T09:06:49.063Z</time>
      </trkpt>
      <trkpt lat="41.38612" lon="19.75894">
        <ele>111.169968</ele>
        <time>2022-05-14T09:06:51.091Z</time>
      </trkpt>
      <trkpt lat="41.38621" lon="19.75889">
        <ele>110.68718</ele>
        <time>2022-05-14T09:06:53.072Z</time>
      </trkpt>
      <trkpt lat="41.38629" lon="19.75883">
        <ele>110.114777</ele>
        <time>2022-05-14T09:06:55.080Z</time>
      </trkpt>
      <trkpt lat="41.38638" lon="19.75878">
        <ele>109.533141</ele>
        <time>2022-05-14T09:06:57.097Z</time>
      </trkpt>
      <trkpt lat="41.3865" lon="19.75871">
        <ele>108.70374</ele>
        <time>2022-05-14T09:07:00.077Z</time>
      </trkpt>
      <trkpt lat="41.38662" lon="19.75864">
        <ele>107.891321</ele>
        <time>2022-05-14T09:07:03.095Z</time>
      </trkpt>
      <trkpt lat="41.38671" lon="19.75859">
        <ele>107.315275</ele>
        <time>2022-05-14T09:07:05.060Z</time>
      </trkpt>
      <trkpt lat="41.38679" lon="19.75854">
        <ele>106.754284</ele>
        <time>2022-05-14T09:07:07.066Z</time>
      </trkpt>
      <trkpt lat="41.38688" lon="19.75849">
        <ele>106.187501</ele>
        <time>2022-05-14T09:07:09.121Z</time>
      </trkpt>
      <trkpt lat="41.387" lon="19.75843">
        <ele>105.367353</ele>
        <time>2022-05-14T09:07:12.084Z</time>
      </trkpt>
      <trkpt lat="41.38708" lon="19.75838">
        <ele>104.798784</ele>
        <time>2022-05-14T09:07:14.078Z</time>
      </trkpt>
      <trkpt lat="41.38717" lon="19.75833">
        <ele>104.228045</ele>
        <time>2022-05-14T09:07:16.061Z</time>
      </trkpt>
      <trkpt lat="41.38726" lon="19.75829">
        <ele>103.646544</ele>
        <time>2022-05-14T09:07:18.070Z</time>
      </trkpt>
      <trkpt lat="41.38735" lon="19.75825">
        <ele>103.05033</ele>
        <time>2022-05-14T09:07:20.063Z</time>
      </trkpt>
      <trkpt lat="41.38744" lon="19.75821">
        <ele>102.466009</ele>
        <time>2022-05-14T09:07:22.087Z</time>
      </trkpt>
      <trkpt lat="41.38757" lon="19.75815">
        <ele>101.641927</ele>
        <time>2022-05-14T09:07:25.068Z</time>
      </trkpt>
      <trkpt lat="41.38768" lon="19.75809">
        <ele>100.862409</ele>
        <time>2022-05-14T09:07:28.065Z</time>
      </trkpt>
      <trkpt lat="41.38781" lon="19.75803">
        <ele>100.103065</ele>
        <time>2022-05-14T09:07:31.076Z</time>
      </trkpt>
      <trkpt lat="41.38789" lon="19.75798">
        <ele>99.868219</ele>
        <time>2022-05-14T09:07:33.093Z</time>
      </trkpt>
      <trkpt lat="41.38798" lon="19.75794">
        <ele>99.626682</ele>
        <time>2022-05-14T09:07:35.069Z</time>
      </trkpt>
      <trkpt lat="41.38807" lon="19.75789">
        <ele>99.380768</ele>
        <time>2022-05-14T09:07:37.092Z</time>
      </trkpt>
      <trkpt lat="41.38819" lon="19.75783">
        <ele>99.046315</ele>
        <time>2022-05-14T09:07:40.112Z</time>
      </trkpt>
      <trkpt lat="41.38831" lon="19.75777">
        <ele>98.702784</ele>
        <time>2022-05-14T09:07:43.066Z</time>
      </trkpt>
      <trkpt lat="41.3884" lon="19.75773">
        <ele>98.453075</ele>
        <time>2022-05-14T09:07:45.080Z</time>
      </trkpt>
      <trkpt lat="41.38849" lon="19.75768">
        <ele>98.202953</ele>
        <time>2022-05-14T09:07:47.069Z</time>
      </trkpt>
      <trkpt lat="41.38858" lon="19.75763">
        <ele>97.951097</ele>
        <time>2022-05-14T09:07:49.078Z</time>
      </trkpt>
      <trkpt lat="41.38867" lon="19.75759">
        <ele>97.699242</ele>
        <time>2022-05-14T09:07:51.110Z</time>
      </trkpt>
      <trkpt lat="41.38876" lon="19.75754">
        <ele>97.463235</ele>
        <time>2022-05-14T09:07:53.074Z</time>
      </trkpt>
      <trkpt lat="41.38888" lon="19.75748">
        <ele>97.131413</ele>
        <time>2022-05-14T09:07:56.079Z</time>
      </trkpt>
      <trkpt lat="41.389" lon="19.75742">
        <ele>96.801118</ele>
        <time>2022-05-14T09:07:59.068Z</time>
      </trkpt>
      <trkpt lat="41.38911" lon="19.75736">
        <ele>96.476619</ele>
        <time>2022-05-14T09:08:02.086Z</time>
      </trkpt>
      <trkpt lat="41.38923" lon="19.75729">
        <ele>96.154634</ele>
        <time>2022-05-14T09:08:05.074Z</time>
      </trkpt>
      <trkpt lat="41.38936" lon="19.75722">
        <ele>95.797668</ele>
        <time>2022-05-14T09:08:08.069Z</time>
      </trkpt>
      <trkpt lat="41.38947" lon="19.75716">
        <ele>95.476452</ele>
        <time>2022-05-14T09:08:11.064Z</time>
      </trkpt>
      <trkpt lat="41.3896" lon="19.75709">
        <ele>95.516515</ele>
        <time>2022-05-14T09:08:14.086Z</time>
      </trkpt>
      <trkpt lat="41.38971" lon="19.75702">
        <ele>95.556843</ele>
        <time>2022-05-14T09:08:17.070Z</time>
      </trkpt>
      <trkpt lat="41.38982" lon="19.75694">
        <ele>95.59474</ele>
        <time>2022-05-14T09:08:20.076Z</time>
      </trkpt>
      <trkpt lat="41.3899" lon="19.7569">
        <ele>95.623792</ele>
        <time>2022-05-14T09:08:22.081Z</time>
      </trkpt>
      <trkpt lat="41.39002" lon="19.75682">
        <ele>95.665604</ele>
        <time>2022-05-14T09:08:25.072Z</time>
      </trkpt>
      <trkpt lat="41.39011" lon="19.75677">
        <ele>95.693897</ele>
        <time>2022-05-14T09:08:27.062Z</time>
      </trkpt>
      <trkpt lat="41.39019" lon="19.75672">
        <ele>95.723331</ele>
        <time>2022-05-14T09:08:29.083Z</time>
      </trkpt>
      <trkpt lat="41.39027" lon="19.75666">
        <ele>95.752578</ele>
        <time>2022-05-14T09:08:31.059Z</time>
      </trkpt>
      <trkpt lat="41.3904" lon="19.75659">
        <ele>95.794877</ele>
        <time>2022-05-14T09:08:34.071Z</time>
      </trkpt>
      <trkpt lat="41.39052" lon="19.75652">
        <ele>95.836967</ele>
        <time>2022-05-14T09:08:37.078Z</time>
      </trkpt>
      <trkpt lat="41.39061" lon="19.75647">
        <ele>95.868104</ele>
        <time>2022-05-14T09:08:39.082Z</time>
      </trkpt>
      <trkpt lat="41.39071" lon="19.75642">
        <ele>95.900043</ele>
        <time>2022-05-14T09:08:41.111Z</time>
      </trkpt>
      <trkpt lat="41.3908" lon="19.75637">
        <ele>95.931401</ele>
        <time>2022-05-14T09:08:43.065Z</time>
      </trkpt>
      <trkpt lat="41.39089" lon="19.75632">
        <ele>95.962288</ele>
        <time>2022-05-14T09:08:45.080Z</time>
      </trkpt>
      <trkpt lat="41.39098" lon="19.75627">
        <ele>95.992329</ele>
        <time>2022-05-14T09:08:47.064Z</time>
      </trkpt>
      <trkpt lat="41.39107" lon="19.75623">
        <ele>96.022749</ele>
        <time>2022-05-14T09:08:49.054Z</time>
      </trkpt>
      <trkpt lat="41.39116" lon="19.75618">
        <ele>95.906259</ele>
        <time>2022-05-14T09:08:51.070Z</time>
      </trkpt>
      <trkpt lat="41.39128" lon="19.75611">
        <ele>95.482495</ele>
        <time>2022-05-14T09:08:54.069Z</time>
      </trkpt>
      <trkpt lat="41.3914" lon="19.75604">
        <ele>95.053895</ele>
        <time>2022-05-14T09:08:57.073Z</time>
      </trkpt>
      <trkpt lat="41.39149" lon="19.75599">
        <ele>94.759999</ele>
        <time>2022-05-14T09:08:59.088Z</time>
      </trkpt>
      <trkpt lat="41.39157" lon="19.75594">
        <ele>94.467461</ele>
        <time>2022-05-14T09:09:01.046Z</time>
      </trkpt>
      <trkpt lat="41.39169" lon="19.75588">
        <ele>94.044432</ele>
        <time>2022-05-14T09:09:04.086Z</time>
      </trkpt>
      <trkpt lat="41.39178" lon="19.75583">
        <ele>93.748011</ele>
        <time>2022-05-14T09:09:06.102Z</time>
      </trkpt>
      <trkpt lat="41.39187" lon="19.75579">
        <ele>93.454964</ele>
        <time>2022-05-14T09:09:08.067Z</time>
      </trkpt>
      <trkpt lat="41.39196" lon="19.75573">
        <ele>93.140014</ele>
        <time>2022-05-14T09:09:10.078Z</time>
      </trkpt>
      <trkpt lat="41.39204" lon="19.75568">
        <ele>92.837744</ele>
        <time>2022-05-14T09:09:12.089Z</time>
      </trkpt>
      <trkpt lat="41.39213" lon="19.75564">
        <ele>92.533473</ele>
        <time>2022-05-14T09:09:14.132Z</time>
      </trkpt>
      <trkpt lat="41.39222" lon="19.75558">
        <ele>92.227324</ele>
        <time>2022-05-14T09:09:16.072Z</time>
      </trkpt>
      <trkpt lat="41.39231" lon="19.75554">
        <ele>91.92893</ele>
        <time>2022-05-14T09:09:18.082Z</time>
      </trkpt>
      <trkpt lat="41.39239" lon="19.75549">
        <ele>91.634409</ele>
        <time>2022-05-14T09:09:20.108Z</time>
      </trkpt>
      <trkpt lat="41.39247" lon="19.75543">
        <ele>91.337904</ele>
        <time>2022-05-14T09:09:22.065Z</time>
      </trkpt>
      <trkpt lat="41.39256" lon="19.75538">
        <ele>91.047154</ele>
        <time>2022-05-14T09:09:24.085Z</time>
      </trkpt>
      <trkpt lat="41.39264" lon="19.75534">
        <ele>90.76037</ele>
        <time>2022-05-14T09:09:26.091Z</time>
      </trkpt>
      <trkpt lat="41.39273" lon="19.75529">
        <ele>90.462909</ele>
        <time>2022-05-14T09:09:28.085Z</time>
      </trkpt>
      <trkpt lat="41.39281" lon="19.75524">
        <ele>90.342314</ele>
        <time>2022-05-14T09:09:30.068Z</time>
      </trkpt>
      <trkpt lat="41.39289" lon="19.75519">
        <ele>90.425856</ele>
        <time>2022-05-14T09:09:32.083Z</time>
      </trkpt>
      <trkpt lat="41.39298" lon="19.75514">
        <ele>90.512781</ele>
        <time>2022-05-14T09:09:34.070Z</time>
      </trkpt>
      <trkpt lat="41.39311" lon="19.75507">
        <ele>90.63709</ele>
        <time>2022-05-14T09:09:37.081Z</time>
      </trkpt>
      <trkpt lat="41.39319" lon="19.75502">
        <ele>90.722606</ele>
        <time>2022-05-14T09:09:39.071Z</time>
      </trkpt>
      <trkpt lat="41.39327" lon="19.75497">
        <ele>90.8059</ele>
        <time>2022-05-14T09:09:41.050Z</time>
      </trkpt>
      <trkpt lat="41.39339" lon="19.75489">
        <ele>90.927223</ele>
        <time>2022-05-14T09:09:44.072Z</time>
      </trkpt>
      <trkpt lat="41.39351" lon="19.75482">
        <ele>91.050167</ele>
        <time>2022-05-14T09:09:47.087Z</time>
      </trkpt>
      <trkpt lat="41.3936" lon="19.75478">
        <ele>91.141202</ele>
        <time>2022-05-14T09:09:49.075Z</time>
      </trkpt>
      <trkpt lat="41.39369" lon="19.75473">
        <ele>91.231536</ele>
        <time>2022-05-14T09:09:51.100Z</time>
      </trkpt>
      <trkpt lat="41.39378" lon="19.75468">
        <ele>91.319627</ele>
        <time>2022-05-14T09:09:53.093Z</time>
      </trkpt>
      <trkpt lat="41.39386" lon="19.75463">
        <ele>91.405434</ele>
        <time>2022-05-14T09:09:55.068Z</time>
      </trkpt>
      <trkpt lat="41.39395" lon="19.75459">
        <ele>91.489664</ele>
        <time>2022-05-14T09:09:57.064Z</time>
      </trkpt>
      <trkpt lat="41.39404" lon="19.75454">
        <ele>91.576589</ele>
        <time>2022-05-14T09:09:59.099Z</time>
      </trkpt>
      <trkpt lat="41.39416" lon="19.75446">
        <ele>91.70133</ele>
        <time>2022-05-14T09:10:02.068Z</time>
      </trkpt>
      <trkpt lat="41.39425" lon="19.75441">
        <ele>91.790279</ele>
        <time>2022-05-14T09:10:04.079Z</time>
      </trkpt>
      <trkpt lat="41.39434" lon="19.75437">
        <ele>91.882927</ele>
        <time>2022-05-14T09:10:06.064Z</time>
      </trkpt>
      <trkpt lat="41.39443" lon="19.75432">
        <ele>91.960574</ele>
        <time>2022-05-14T09:10:08.103Z</time>
      </trkpt>
      <trkpt lat="41.39452" lon="19.75426">
        <ele>91.845689</ele>
        <time>2022-05-14T09:10:10.080Z</time>
      </trkpt>
      <trkpt lat="41.39461" lon="19.75421">
        <ele>91.7347</ele>
        <time>2022-05-14T09:10:12.084Z</time>
      </trkpt>
      <trkpt lat="41.39469" lon="19.75416">
        <ele>91.628629</ele>
        <time>2022-05-14T09:10:14.096Z</time>
      </trkpt>
      <trkpt lat="41.39478" lon="19.75412">
        <ele>91.525711</ele>
        <time>2022-05-14T09:10:16.073Z</time>
      </trkpt>
      <trkpt lat="41.3949" lon="19.75405">
        <ele>91.374393</ele>
        <time>2022-05-14T09:10:19.097Z</time>
      </trkpt>
      <trkpt lat="41.39498" lon="19.754">
        <ele>91.269014</ele>
        <time>2022-05-14T09:10:21.067Z</time>
      </trkpt>
      <trkpt lat="41.3951" lon="19.75393">
        <ele>91.11658</ele>
        <time>2022-05-14T09:10:24.085Z</time>
      </trkpt>
      <trkpt lat="41.39519" lon="19.75388">
        <ele>91.005592</ele>
        <time>2022-05-14T09:10:26.087Z</time>
      </trkpt>
      <trkpt lat="41.39528" lon="19.75383">
        <ele>90.900552</ele>
        <time>2022-05-14T09:10:28.077Z</time>
      </trkpt>
      <trkpt lat="41.39536" lon="19.75378">
        <ele>90.792714</ele>
        <time>2022-05-14T09:10:30.063Z</time>
      </trkpt>
      <trkpt lat="41.39545" lon="19.75373">
        <ele>90.676457</ele>
        <time>2022-05-14T09:10:32.065Z</time>
      </trkpt>
      <trkpt lat="41.39555" lon="19.75368">
        <ele>90.560507</ele>
        <time>2022-05-14T09:10:34.083Z</time>
      </trkpt>
      <trkpt lat="41.39564" lon="19.75362">
        <ele>90.442487</ele>
        <time>2022-05-14T09:10:36.091Z</time>
      </trkpt>
      <trkpt lat="41.39573" lon="19.75357">
        <ele>90.324122</ele>
        <time>2022-05-14T09:10:38.076Z</time>
      </trkpt>
      <trkpt lat="41.39583" lon="19.75351">
        <ele>90.200456</ele>
        <time>2022-05-14T09:10:40.065Z</time>
      </trkpt>
      <trkpt lat="41.39593" lon="19.75346">
        <ele>90.077854</ele>
        <time>2022-05-14T09:10:42.051Z</time>
      </trkpt>
      <trkpt lat="41.39603" lon="19.7534">
        <ele>89.958783</ele>
        <time>2022-05-14T09:10:44.063Z</time>
      </trkpt>
      <trkpt lat="41.39612" lon="19.75335">
        <ele>89.820731</ele>
        <time>2022-05-14T09:10:46.074Z</time>
      </trkpt>
      <trkpt lat="41.39622" lon="19.7533">
        <ele>89.66693</ele>
        <time>2022-05-14T09:10:48.070Z</time>
      </trkpt>
      <trkpt lat="41.39631" lon="19.75325">
        <ele>89.520001</ele>
        <time>2022-05-14T09:10:50.071Z</time>
      </trkpt>
      <trkpt lat="41.39641" lon="19.75319">
        <ele>89.372091</ele>
        <time>2022-05-14T09:10:52.084Z</time>
      </trkpt>
      <trkpt lat="41.3965" lon="19.75314">
        <ele>89.217453</ele>
        <time>2022-05-14T09:10:54.077Z</time>
      </trkpt>
      <trkpt lat="41.3966" lon="19.75309">
        <ele>89.067202</ele>
        <time>2022-05-14T09:10:56.057Z</time>
      </trkpt>
      <trkpt lat="41.39669" lon="19.75304">
        <ele>88.916371</ele>
        <time>2022-05-14T09:10:58.127Z</time>
      </trkpt>
      <trkpt lat="41.39679" lon="19.75299">
        <ele>88.760792</ele>
        <time>2022-05-14T09:11:00.083Z</time>
      </trkpt>
      <trkpt lat="41.39689" lon="19.75293">
        <ele>88.604371</ele>
        <time>2022-05-14T09:11:02.078Z</time>
      </trkpt>
      <trkpt lat="41.39698" lon="19.75288">
        <ele>88.455145</ele>
        <time>2022-05-14T09:11:04.072Z</time>
      </trkpt>
      <trkpt lat="41.39708" lon="19.75282">
        <ele>88.302303</ele>
        <time>2022-05-14T09:11:06.074Z</time>
      </trkpt>
      <trkpt lat="41.39717" lon="19.75276">
        <ele>88.15392</ele>
        <time>2022-05-14T09:11:08.081Z</time>
      </trkpt>
      <trkpt lat="41.39726" lon="19.75271">
        <ele>88.01007</ele>
        <time>2022-05-14T09:11:10.087Z</time>
      </trkpt>
      <trkpt lat="41.39735" lon="19.75266">
        <ele>87.858995</ele>
        <time>2022-05-14T09:11:12.096Z</time>
      </trkpt>
      <trkpt lat="41.39745" lon="19.75261">
        <ele>87.704233</ele>
        <time>2022-05-14T09:11:14.076Z</time>
      </trkpt>
      <trkpt lat="41.39755" lon="19.75255">
        <ele>87.546876</ele>
        <time>2022-05-14T09:11:16.073Z</time>
      </trkpt>
      <trkpt lat="41.39765" lon="19.7525">
        <ele>87.39088</ele>
        <time>2022-05-14T09:11:18.063Z</time>
      </trkpt>
      <trkpt lat="41.39774" lon="19.75244">
        <ele>87.242223</ele>
        <time>2022-05-14T09:11:20.086Z</time>
      </trkpt>
      <trkpt lat="41.39784" lon="19.75238">
        <ele>87.179384</ele>
        <time>2022-05-14T09:11:22.066Z</time>
      </trkpt>
      <trkpt lat="41.39794" lon="19.75232">
        <ele>87.116042</ele>
        <time>2022-05-14T09:11:24.106Z</time>
      </trkpt>
      <trkpt lat="41.39803" lon="19.75226">
        <ele>87.054854</ele>
        <time>2022-05-14T09:11:26.059Z</time>
      </trkpt>
      <trkpt lat="41.39812" lon="19.75221">
        <ele>86.993867</ele>
        <time>2022-05-14T09:11:28.066Z</time>
      </trkpt>
      <trkpt lat="41.39822" lon="19.75215">
        <ele>86.931065</ele>
        <time>2022-05-14T09:11:30.089Z</time>
      </trkpt>
      <trkpt lat="41.39831" lon="19.7521">
        <ele>86.871699</ele>
        <time>2022-05-14T09:11:32.098Z</time>
      </trkpt>
      <trkpt lat="41.3984" lon="19.75204">
        <ele>86.812157</ele>
        <time>2022-05-14T09:11:34.062Z</time>
      </trkpt>
      <trkpt lat="41.3985" lon="19.75199">
        <ele>86.75099</ele>
        <time>2022-05-14T09:11:36.057Z</time>
      </trkpt>
      <trkpt lat="41.39859" lon="19.75193">
        <ele>86.688913</ele>
        <time>2022-05-14T09:11:38.110Z</time>
      </trkpt>
      <trkpt lat="41.39869" lon="19.75188">
        <ele>86.627745</ele>
        <time>2022-05-14T09:11:40.088Z</time>
      </trkpt>
      <trkpt lat="41.39878" lon="19.75182">
        <ele>86.567481</ele>
        <time>2022-05-14T09:11:42.072Z</time>
      </trkpt>
      <trkpt lat="41.39887" lon="19.75177">
        <ele>86.510475</ele>
        <time>2022-05-14T09:11:44.120Z</time>
      </trkpt>
      <trkpt lat="41.39896" lon="19.75172">
        <ele>86.453644</ele>
        <time>2022-05-14T09:11:46.070Z</time>
      </trkpt>
      <trkpt lat="41.39905" lon="19.75167">
        <ele>86.39537</ele>
        <time>2022-05-14T09:11:48.074Z</time>
      </trkpt>
      <trkpt lat="41.39914" lon="19.75162">
        <ele>86.336736</ele>
        <time>2022-05-14T09:11:50.080Z</time>
      </trkpt>
      <trkpt lat="41.39923" lon="19.75156">
        <ele>86.276822</ele>
        <time>2022-05-14T09:11:52.073Z</time>
      </trkpt>
      <trkpt lat="41.39932" lon="19.75151">
        <ele>86.216379</ele>
        <time>2022-05-14T09:11:54.058Z</time>
      </trkpt>
      <trkpt lat="41.39942" lon="19.75146">
        <ele>86.186913</ele>
        <time>2022-05-14T09:11:56.052Z</time>
      </trkpt>
      <trkpt lat="41.39951" lon="19.7514">
        <ele>86.206755</ele>
        <time>2022-05-14T09:11:58.083Z</time>
      </trkpt>
      <trkpt lat="41.3996" lon="19.75135">
        <ele>86.225668</ele>
        <time>2022-05-14T09:12:00.065Z</time>
      </trkpt>
      <trkpt lat="41.3997" lon="19.75129">
        <ele>86.244871</ele>
        <time>2022-05-14T09:12:02.086Z</time>
      </trkpt>
      <trkpt lat="41.39979" lon="19.75124">
        <ele>86.264597</ele>
        <time>2022-05-14T09:12:04.084Z</time>
      </trkpt>
      <trkpt lat="41.39988" lon="19.75118">
        <ele>86.284265</ele>
        <time>2022-05-14T09:12:06.094Z</time>
      </trkpt>
      <trkpt lat="41.39998" lon="19.75112">
        <ele>86.304109</ele>
        <time>2022-05-14T09:12:08.114Z</time>
      </trkpt>
      <trkpt lat="41.40008" lon="19.75108">
        <ele>86.32385</ele>
        <time>2022-05-14T09:12:10.074Z</time>
      </trkpt>
      <trkpt lat="41.40018" lon="19.75103">
        <ele>86.345055</ele>
        <time>2022-05-14T09:12:12.107Z</time>
      </trkpt>
      <trkpt lat="41.40029" lon="19.75096">
        <ele>86.366985</ele>
        <time>2022-05-14T09:12:14.055Z</time>
      </trkpt>
      <trkpt lat="41.40039" lon="19.7509">
        <ele>86.388857</ele>
        <time>2022-05-14T09:12:16.057Z</time>
      </trkpt>
      <trkpt lat="41.4005" lon="19.75084">
        <ele>86.410555</ele>
        <time>2022-05-14T09:12:18.069Z</time>
      </trkpt>
      <trkpt lat="41.4006" lon="19.75078">
        <ele>86.431268</ele>
        <time>2022-05-14T09:12:20.062Z</time>
      </trkpt>
      <trkpt lat="41.40069" lon="19.75073">
        <ele>86.450597</ele>
        <time>2022-05-14T09:12:22.074Z</time>
      </trkpt>
      <trkpt lat="41.40079" lon="19.75068">
        <ele>86.470266</ele>
        <time>2022-05-14T09:12:24.088Z</time>
      </trkpt>
      <trkpt lat="41.40088" lon="19.75062">
        <ele>86.489875</ele>
        <time>2022-05-14T09:12:26.087Z</time>
      </trkpt>
      <trkpt lat="41.40097" lon="19.75057">
        <ele>86.509434</ele>
        <time>2022-05-14T09:12:28.064Z</time>
      </trkpt>
      <trkpt lat="41.40107" lon="19.75052">
        <ele>86.50488</ele>
        <time>2022-05-14T09:12:30.082Z</time>
      </trkpt>
      <trkpt lat="41.40116" lon="19.75046">
        <ele>86.455495</ele>
        <time>2022-05-14T09:12:32.073Z</time>
      </trkpt>
      <trkpt lat="41.40125" lon="19.75041">
        <ele>86.407165</ele>
        <time>2022-05-14T09:12:34.066Z</time>
      </trkpt>
      <trkpt lat="41.40134" lon="19.75036">
        <ele>86.356895</ele>
        <time>2022-05-14T09:12:36.064Z</time>
      </trkpt>
      <trkpt lat="41.40144" lon="19.7503">
        <ele>86.307367</ele>
        <time>2022-05-14T09:12:38.085Z</time>
      </trkpt>
      <trkpt lat="41.40152" lon="19.75025">
        <ele>86.259783</ele>
        <time>2022-05-14T09:12:40.101Z</time>
      </trkpt>
      <trkpt lat="41.40162" lon="19.7502">
        <ele>86.2113</ele>
        <time>2022-05-14T09:12:42.072Z</time>
      </trkpt>
      <trkpt lat="41.40171" lon="19.75015">
        <ele>86.162671</ele>
        <time>2022-05-14T09:12:44.074Z</time>
      </trkpt>
      <trkpt lat="41.4018" lon="19.75009">
        <ele>86.113593</ele>
        <time>2022-05-14T09:12:46.072Z</time>
      </trkpt>
      <trkpt lat="41.40189" lon="19.75004">
        <ele>86.063304</ele>
        <time>2022-05-14T09:12:48.093Z</time>
      </trkpt>
      <trkpt lat="41.40198" lon="19.74999">
        <ele>86.014974</ele>
        <time>2022-05-14T09:12:50.067Z</time>
      </trkpt>
      <trkpt lat="41.40208" lon="19.74993">
        <ele>85.965446</ele>
        <time>2022-05-14T09:12:52.056Z</time>
      </trkpt>
      <trkpt lat="41.40217" lon="19.74988">
        <ele>85.914975</ele>
        <time>2022-05-14T09:12:54.062Z</time>
      </trkpt>
      <trkpt lat="41.40227" lon="19.74983">
        <ele>85.865447</ele>
        <time>2022-05-14T09:12:56.088Z</time>
      </trkpt>
      <trkpt lat="41.40236" lon="19.74978">
        <ele>85.815774</ele>
        <time>2022-05-14T09:12:58.068Z</time>
      </trkpt>
      <trkpt lat="41.40245" lon="19.74972">
        <ele>85.766696</ele>
        <time>2022-05-14T09:13:00.075Z</time>
      </trkpt>
      <trkpt lat="41.40254" lon="19.74967">
        <ele>85.718356</ele>
        <time>2022-05-14T09:13:02.108Z</time>
      </trkpt>
      <trkpt lat="41.40263" lon="19.74962">
        <ele>85.669132</ele>
        <time>2022-05-14T09:13:04.106Z</time>
      </trkpt>
      <trkpt lat="41.40272" lon="19.74957">
        <ele>85.598071</ele>
        <time>2022-05-14T09:13:06.071Z</time>
      </trkpt>
      <trkpt lat="41.40282" lon="19.74952">
        <ele>85.492261</ele>
        <time>2022-05-14T09:13:08.153Z</time>
      </trkpt>
      <trkpt lat="41.40291" lon="19.74946">
        <ele>85.386202</ele>
        <time>2022-05-14T09:13:10.060Z</time>
      </trkpt>
      <trkpt lat="41.40301" lon="19.74941">
        <ele>85.282346</ele>
        <time>2022-05-14T09:13:12.071Z</time>
      </trkpt>
      <trkpt lat="41.4031" lon="19.74936">
        <ele>85.181236</ele>
        <time>2022-05-14T09:13:14.075Z</time>
      </trkpt>
      <trkpt lat="41.40319" lon="19.74932">
        <ele>85.08051</ele>
        <time>2022-05-14T09:13:16.073Z</time>
      </trkpt>
      <trkpt lat="41.40328" lon="19.7493">
        <ele>84.982925</ele>
        <time>2022-05-14T09:13:18.083Z</time>
      </trkpt>
      <trkpt lat="41.40338" lon="19.74927">
        <ele>84.882727</ele>
        <time>2022-05-14T09:13:20.073Z</time>
      </trkpt>
      <trkpt lat="41.40346" lon="19.74921">
        <ele>84.786456</ele>
        <time>2022-05-14T09:13:22.074Z</time>
      </trkpt>
      <trkpt lat="41.40354" lon="19.74914">
        <ele>84.686641</ele>
        <time>2022-05-14T09:13:24.076Z</time>
      </trkpt>
      <trkpt lat="41.40362" lon="19.74907">
        <ele>84.584352</ele>
        <time>2022-05-14T09:13:26.084Z</time>
      </trkpt>
      <trkpt lat="41.40372" lon="19.74902">
        <ele>84.478922</ele>
        <time>2022-05-14T09:13:28.091Z</time>
      </trkpt>
      <trkpt lat="41.40381" lon="19.74896">
        <ele>84.372222</ele>
        <time>2022-05-14T09:13:30.082Z</time>
      </trkpt>
      <trkpt lat="41.40391" lon="19.74891">
        <ele>84.266982</ele>
        <time>2022-05-14T09:13:32.066Z</time>
      </trkpt>
      <trkpt lat="41.404" lon="19.74887">
        <ele>84.161586</ele>
        <time>2022-05-14T09:13:34.066Z</time>
      </trkpt>
      <trkpt lat="41.4041" lon="19.74881">
        <ele>84.054244</ele>
        <time>2022-05-14T09:13:36.108Z</time>
      </trkpt>
      <trkpt lat="41.4042" lon="19.74875">
        <ele>83.944388</ele>
        <time>2022-05-14T09:13:38.072Z</time>
      </trkpt>
      <trkpt lat="41.40429" lon="19.7487">
        <ele>83.837979</ele>
        <time>2022-05-14T09:13:40.075Z</time>
      </trkpt>
      <trkpt lat="41.40438" lon="19.74864">
        <ele>83.79457</ele>
        <time>2022-05-14T09:13:42.055Z</time>
      </trkpt>
      <trkpt lat="41.40447" lon="19.74858">
        <ele>83.819327</ele>
        <time>2022-05-14T09:13:44.086Z</time>
      </trkpt>
      <trkpt lat="41.40456" lon="19.74852">
        <ele>83.843726</ele>
        <time>2022-05-14T09:13:46.072Z</time>
      </trkpt>
      <trkpt lat="41.40465" lon="19.74846">
        <ele>83.867854</ele>
        <time>2022-05-14T09:13:48.059Z</time>
      </trkpt>
      <trkpt lat="41.40474" lon="19.7484">
        <ele>83.892416</ele>
        <time>2022-05-14T09:13:50.077Z</time>
      </trkpt>
      <trkpt lat="41.40483" lon="19.74833">
        <ele>83.91728</ele>
        <time>2022-05-14T09:13:52.066Z</time>
      </trkpt>
      <trkpt lat="41.40492" lon="19.74827">
        <ele>83.94261</ele>
        <time>2022-05-14T09:13:54.075Z</time>
      </trkpt>
      <trkpt lat="41.40501" lon="19.7482">
        <ele>83.968289</ele>
        <time>2022-05-14T09:13:56.084Z</time>
      </trkpt>
      <trkpt lat="41.40511" lon="19.74813">
        <ele>83.993939</ele>
        <time>2022-05-14T09:13:58.113Z</time>
      </trkpt>
      <trkpt lat="41.4052" lon="19.74806">
        <ele>84.020222</ele>
        <time>2022-05-14T09:14:00.116Z</time>
      </trkpt>
      <trkpt lat="41.40529" lon="19.74798">
        <ele>84.046361</ele>
        <time>2022-05-14T09:14:02.054Z</time>
      </trkpt>
      <trkpt lat="41.40538" lon="19.74791">
        <ele>84.07213</ele>
        <time>2022-05-14T09:14:04.069Z</time>
      </trkpt>
      <trkpt lat="41.40547" lon="19.74784">
        <ele>84.097085</ele>
        <time>2022-05-14T09:14:06.086Z</time>
      </trkpt>
      <trkpt lat="41.40556" lon="19.74778">
        <ele>84.121257</ele>
        <time>2022-05-14T09:14:08.059Z</time>
      </trkpt>
      <trkpt lat="41.40565" lon="19.74772">
        <ele>84.146418</ele>
        <time>2022-05-14T09:14:10.075Z</time>
      </trkpt>
      <trkpt lat="41.40574" lon="19.74765">
        <ele>84.170892</ele>
        <time>2022-05-14T09:14:12.081Z</time>
      </trkpt>
      <trkpt lat="41.40583" lon="19.74759">
        <ele>84.195579</ele>
        <time>2022-05-14T09:14:14.104Z</time>
      </trkpt>
      <trkpt lat="41.40591" lon="19.74753">
        <ele>84.219063</ele>
        <time>2022-05-14T09:14:16.078Z</time>
      </trkpt>
      <trkpt lat="41.406" lon="19.74746">
        <ele>84.131985</ele>
        <time>2022-05-14T09:14:18.088Z</time>
      </trkpt>
      <trkpt lat="41.40609" lon="19.7474">
        <ele>84.040091</ele>
        <time>2022-05-14T09:14:20.078Z</time>
      </trkpt>
      <trkpt lat="41.40617" lon="19.74733">
        <ele>83.947381</ele>
        <time>2022-05-14T09:14:22.076Z</time>
      </trkpt>
      <trkpt lat="41.40626" lon="19.74727">
        <ele>83.851221</ele>
        <time>2022-05-14T09:14:24.064Z</time>
      </trkpt>
      <trkpt lat="41.40635" lon="19.74721">
        <ele>83.757374</ele>
        <time>2022-05-14T09:14:26.071Z</time>
      </trkpt>
      <trkpt lat="41.40644" lon="19.74715">
        <ele>83.661716</ele>
        <time>2022-05-14T09:14:28.051Z</time>
      </trkpt>
      <trkpt lat="41.40653" lon="19.74708">
        <ele>83.564228</ele>
        <time>2022-05-14T09:14:30.062Z</time>
      </trkpt>
      <trkpt lat="41.40662" lon="19.74701">
        <ele>83.468721</ele>
        <time>2022-05-14T09:14:32.059Z</time>
      </trkpt>
      <trkpt lat="41.40671" lon="19.74695">
        <ele>83.374033</ele>
        <time>2022-05-14T09:14:34.082Z</time>
      </trkpt>
      <trkpt lat="41.4068" lon="19.74687">
        <ele>83.275238</ele>
        <time>2022-05-14T09:14:36.116Z</time>
      </trkpt>
      <trkpt lat="41.40688" lon="19.7468">
        <ele>83.181966</ele>
        <time>2022-05-14T09:14:38.081Z</time>
      </trkpt>
      <trkpt lat="41.40697" lon="19.74673">
        <ele>83.089888</ele>
        <time>2022-05-14T09:14:40.066Z</time>
      </trkpt>
      <trkpt lat="41.40705" lon="19.74666">
        <ele>82.998591</ele>
        <time>2022-05-14T09:14:42.061Z</time>
      </trkpt>
      <trkpt lat="41.40713" lon="19.74659">
        <ele>82.907295</ele>
        <time>2022-05-14T09:14:44.071Z</time>
      </trkpt>
      <trkpt lat="41.40721" lon="19.74652">
        <ele>82.816564</ele>
        <time>2022-05-14T09:14:46.072Z</time>
      </trkpt>
      <trkpt lat="41.4073" lon="19.74646">
        <ele>82.725209</ele>
        <time>2022-05-14T09:14:48.071Z</time>
      </trkpt>
      <trkpt lat="41.40738" lon="19.7464">
        <ele>82.635168</ele>
        <time>2022-05-14T09:14:50.072Z</time>
      </trkpt>
      <trkpt lat="41.40747" lon="19.74634">
        <ele>82.546455</ele>
        <time>2022-05-14T09:14:52.075Z</time>
      </trkpt>
      <trkpt lat="41.40755" lon="19.74628">
        <ele>82.480116</ele>
        <time>2022-05-14T09:14:54.064Z</time>
      </trkpt>
      <trkpt lat="41.40764" lon="19.74622">
        <ele>82.417202</ele>
        <time>2022-05-14T09:14:56.110Z</time>
      </trkpt>
      <trkpt lat="41.40773" lon="19.74615">
        <ele>82.357048</ele>
        <time>2022-05-14T09:14:58.088Z</time>
      </trkpt>
      <trkpt lat="41.40782" lon="19.74609">
        <ele>82.292919</ele>
        <time>2022-05-14T09:15:00.072Z</time>
      </trkpt>
      <trkpt lat="41.40791" lon="19.74602">
        <ele>82.226553</ele>
        <time>2022-05-14T09:15:02.087Z</time>
      </trkpt>
      <trkpt lat="41.408" lon="19.74595">
        <ele>82.16205</ele>
        <time>2022-05-14T09:15:04.092Z</time>
      </trkpt>
      <trkpt lat="41.40808" lon="19.74589">
        <ele>82.101434</ele>
        <time>2022-05-14T09:15:06.054Z</time>
      </trkpt>
      <trkpt lat="41.40816" lon="19.74582">
        <ele>82.042373</ele>
        <time>2022-05-14T09:15:08.049Z</time>
      </trkpt>
      <trkpt lat="41.40824" lon="19.74577">
        <ele>81.983994</ele>
        <time>2022-05-14T09:15:10.090Z</time>
      </trkpt>
      <trkpt lat="41.40833" lon="19.7457">
        <ele>81.925003</ele>
        <time>2022-05-14T09:15:12.084Z</time>
      </trkpt>
      <trkpt lat="41.40841" lon="19.74564">
        <ele>81.867495</ele>
        <time>2022-05-14T09:15:14.055Z</time>
      </trkpt>
      <trkpt lat="41.40849" lon="19.74558">
        <ele>81.809667</ele>
        <time>2022-05-14T09:15:16.069Z</time>
      </trkpt>
      <trkpt lat="41.40857" lon="19.74552">
        <ele>81.751063</ele>
        <time>2022-05-14T09:15:18.078Z</time>
      </trkpt>
      <trkpt lat="41.40865" lon="19.74546">
        <ele>81.692684</ele>
        <time>2022-05-14T09:15:20.093Z</time>
      </trkpt>
      <trkpt lat="41.40873" lon="19.74541">
        <ele>81.635631</ele>
        <time>2022-05-14T09:15:22.060Z</time>
      </trkpt>
      <trkpt lat="41.40882" lon="19.74535">
        <ele>81.575373</ele>
        <time>2022-05-14T09:15:24.063Z</time>
      </trkpt>
      <trkpt lat="41.4089" lon="19.74528">
        <ele>81.51257</ele>
        <time>2022-05-14T09:15:26.058Z</time>
      </trkpt>
      <trkpt lat="41.40899" lon="19.74522">
        <ele>81.450633</ele>
        <time>2022-05-14T09:15:28.099Z</time>
      </trkpt>
      <trkpt lat="41.40907" lon="19.74515">
        <ele>81.377759</ele>
        <time>2022-05-14T09:15:30.105Z</time>
      </trkpt>
      <trkpt lat="41.40916" lon="19.74509">
        <ele>81.270852</ele>
        <time>2022-05-14T09:15:32.061Z</time>
      </trkpt>
      <trkpt lat="41.40925" lon="19.74503">
        <ele>81.164887</ele>
        <time>2022-05-14T09:15:34.084Z</time>
      </trkpt>
      <trkpt lat="41.40934" lon="19.74496">
        <ele>81.058922</ele>
        <time>2022-05-14T09:15:36.099Z</time>
      </trkpt>
      <trkpt lat="41.40943" lon="19.7449">
        <ele>80.949369</ele>
        <time>2022-05-14T09:15:38.069Z</time>
      </trkpt>
      <trkpt lat="41.40952" lon="19.74483">
        <ele>80.839431</ele>
        <time>2022-05-14T09:15:40.100Z</time>
      </trkpt>
      <trkpt lat="41.40961" lon="19.74477">
        <ele>80.728365</ele>
        <time>2022-05-14T09:15:42.081Z</time>
      </trkpt>
      <trkpt lat="41.4097" lon="19.74471">
        <ele>80.617784</ele>
        <time>2022-05-14T09:15:44.078Z</time>
      </trkpt>
      <trkpt lat="41.40979" lon="19.74466">
        <ele>80.510195</ele>
        <time>2022-05-14T09:15:46.070Z</time>
      </trkpt>
      <trkpt lat="41.40989" lon="19.7446">
        <ele>80.403554</ele>
        <time>2022-05-14T09:15:48.087Z</time>
      </trkpt>
      <trkpt lat="41.40998" lon="19.74456">
        <ele>80.291604</ele>
        <time>2022-05-14T09:15:50.057Z</time>
      </trkpt>
      <trkpt lat="41.41008" lon="19.74452">
        <ele>80.18371</ele>
        <time>2022-05-14T09:15:52.064Z</time>
      </trkpt>
      <trkpt lat="41.41018" lon="19.74448">
        <ele>80.072755</ele>
        <time>2022-05-14T09:15:54.078Z</time>
      </trkpt>
      <trkpt lat="41.41027" lon="19.74444">
        <ele>79.968407</ele>
        <time>2022-05-14T09:15:56.079Z</time>
      </trkpt>
      <trkpt lat="41.41036" lon="19.7444">
        <ele>79.867119</ele>
        <time>2022-05-14T09:15:58.063Z</time>
      </trkpt>
      <trkpt lat="41.41045" lon="19.74436">
        <ele>79.766075</ele>
        <time>2022-05-14T09:16:00.073Z</time>
      </trkpt>
      <trkpt lat="41.41055" lon="19.74432">
        <ele>79.657636</ele>
        <time>2022-05-14T09:16:02.076Z</time>
      </trkpt>
      <trkpt lat="41.41065" lon="19.74428">
        <ele>79.541094</ele>
        <time>2022-05-14T09:16:04.077Z</time>
      </trkpt>
      <trkpt lat="41.41076" lon="19.74424">
        <ele>79.532286</ele>
        <time>2022-05-14T09:16:06.071Z</time>
      </trkpt>
      <trkpt lat="41.41086" lon="19.7442">
        <ele>79.639797</ele>
        <time>2022-05-14T09:16:08.076Z</time>
      </trkpt>
      <trkpt lat="41.41096" lon="19.74416">
        <ele>79.741663</ele>
        <time>2022-05-14T09:16:10.067Z</time>
      </trkpt>
      <trkpt lat="41.41106" lon="19.74412">
        <ele>79.840803</ele>
        <time>2022-05-14T09:16:12.085Z</time>
      </trkpt>
      <trkpt lat="41.41115" lon="19.74408">
        <ele>79.937112</ele>
        <time>2022-05-14T09:16:14.061Z</time>
      </trkpt>
      <trkpt lat="41.41125" lon="19.74404">
        <ele>80.033633</ele>
        <time>2022-05-14T09:16:16.058Z</time>
      </trkpt>
      <trkpt lat="41.41134" lon="19.74401">
        <ele>80.132036</ele>
        <time>2022-05-14T09:16:18.073Z</time>
      </trkpt>
      <trkpt lat="41.41144" lon="19.74397">
        <ele>80.229832</ele>
        <time>2022-05-14T09:16:20.067Z</time>
      </trkpt>
      <trkpt lat="41.41153" lon="19.74394">
        <ele>80.328772</ele>
        <time>2022-05-14T09:16:22.076Z</time>
      </trkpt>
      <trkpt lat="41.41163" lon="19.7439">
        <ele>80.42582</ele>
        <time>2022-05-14T09:16:24.052Z</time>
      </trkpt>
      <trkpt lat="41.41173" lon="19.74387">
        <ele>80.525422</ele>
        <time>2022-05-14T09:16:26.071Z</time>
      </trkpt>
      <trkpt lat="41.41182" lon="19.74384">
        <ele>80.620573</ele>
        <time>2022-05-14T09:16:28.068Z</time>
      </trkpt>
      <trkpt lat="41.41192" lon="19.7438">
        <ele>80.719318</ele>
        <time>2022-05-14T09:16:30.065Z</time>
      </trkpt>
      <trkpt lat="41.41202" lon="19.74377">
        <ele>80.818063</ele>
        <time>2022-05-14T09:16:32.109Z</time>
      </trkpt>
      <trkpt lat="41.41211" lon="19.74373">
        <ele>80.917756</ele>
        <time>2022-05-14T09:16:34.068Z</time>
      </trkpt>
      <trkpt lat="41.41221" lon="19.7437">
        <ele>81.015553</ele>
        <time>2022-05-14T09:16:36.072Z</time>
      </trkpt>
      <trkpt lat="41.41231" lon="19.74367">
        <ele>81.112208</ele>
        <time>2022-05-14T09:16:38.089Z</time>
      </trkpt>
      <trkpt lat="41.4124" lon="19.74363">
        <ele>81.206019</ele>
        <time>2022-05-14T09:16:40.093Z</time>
      </trkpt>
      <trkpt lat="41.41249" lon="19.7436">
        <ele>81.217502</ele>
        <time>2022-05-14T09:16:42.068Z</time>
      </trkpt>
      <trkpt lat="41.41258" lon="19.74356">
        <ele>81.162509</ele>
        <time>2022-05-14T09:16:44.085Z</time>
      </trkpt>
      <trkpt lat="41.41268" lon="19.74353">
        <ele>81.10416</ele>
        <time>2022-05-14T09:16:46.079Z</time>
      </trkpt>
      <trkpt lat="41.41278" lon="19.74349">
        <ele>81.046256</ele>
        <time>2022-05-14T09:16:48.066Z</time>
      </trkpt>
      <trkpt lat="41.41287" lon="19.74345">
        <ele>80.990584</ele>
        <time>2022-05-14T09:16:50.146Z</time>
      </trkpt>
      <trkpt lat="41.41296" lon="19.74342">
        <ele>80.934252</ele>
        <time>2022-05-14T09:16:52.084Z</time>
      </trkpt>
      <trkpt lat="41.41306" lon="19.74339">
        <ele>80.877024</ele>
        <time>2022-05-14T09:16:54.156Z</time>
      </trkpt>
      <trkpt lat="41.41315" lon="19.74335">
        <ele>80.820471</ele>
        <time>2022-05-14T09:16:56.087Z</time>
      </trkpt>
      <trkpt lat="41.41328" lon="19.74331">
        <ele>80.742803</ele>
        <time>2022-05-14T09:16:59.064Z</time>
      </trkpt>
      <trkpt lat="41.41337" lon="19.74328">
        <ele>80.6888</ele>
        <time>2022-05-14T09:17:01.084Z</time>
      </trkpt>
      <trkpt lat="41.41346" lon="19.74324">
        <ele>80.636034</ele>
        <time>2022-05-14T09:17:03.084Z</time>
      </trkpt>
      <trkpt lat="41.41355" lon="19.7432">
        <ele>80.580238</ele>
        <time>2022-05-14T09:17:05.112Z</time>
      </trkpt>
      <trkpt lat="41.41364" lon="19.74317">
        <ele>80.523329</ele>
        <time>2022-05-14T09:17:07.068Z</time>
      </trkpt>
      <trkpt lat="41.41374" lon="19.74313">
        <ele>80.466167</ele>
        <time>2022-05-14T09:17:09.089Z</time>
      </trkpt>
      <trkpt lat="41.41383" lon="19.74309">
        <ele>80.406784</ele>
        <time>2022-05-14T09:17:11.113Z</time>
      </trkpt>
      <trkpt lat="41.41392" lon="19.74306">
        <ele>80.3527</ele>
        <time>2022-05-14T09:17:13.082Z</time>
      </trkpt>
      <trkpt lat="41.41401" lon="19.74302">
        <ele>80.298821</ele>
        <time>2022-05-14T09:17:15.070Z</time>
      </trkpt>
      <trkpt lat="41.4141" lon="19.74298">
        <ele>80.246077</ele>
        <time>2022-05-14T09:17:17.077Z</time>
      </trkpt>
      <trkpt lat="41.41419" lon="19.74295">
        <ele>80.180013</ele>
        <time>2022-05-14T09:17:19.054Z</time>
      </trkpt>
      <trkpt lat="41.41427" lon="19.74291">
        <ele>80.064148</ele>
        <time>2022-05-14T09:17:21.069Z</time>
      </trkpt>
      <trkpt lat="41.41439" lon="19.74286">
        <ele>79.908725</ele>
        <time>2022-05-14T09:17:24.071Z</time>
      </trkpt>
      <trkpt lat="41.41452" lon="19.74282">
        <ele>79.734445</ele>
        <time>2022-05-14T09:17:27.076Z</time>
      </trkpt>
      <trkpt lat="41.41461" lon="19.74278">
        <ele>79.616791</ele>
        <time>2022-05-14T09:17:29.084Z</time>
      </trkpt>
      <trkpt lat="41.4147" lon="19.74274">
        <ele>79.497</ele>
        <time>2022-05-14T09:17:31.121Z</time>
      </trkpt>
      <trkpt lat="41.41479" lon="19.74271">
        <ele>79.376535</ele>
        <time>2022-05-14T09:17:33.106Z</time>
      </trkpt>
      <trkpt lat="41.41488" lon="19.74267">
        <ele>79.257377</ele>
        <time>2022-05-14T09:17:35.064Z</time>
      </trkpt>
      <trkpt lat="41.41497" lon="19.74263">
        <ele>79.139879</ele>
        <time>2022-05-14T09:17:37.072Z</time>
      </trkpt>
      <trkpt lat="41.41506" lon="19.74259">
        <ele>79.018006</ele>
        <time>2022-05-14T09:17:39.078Z</time>
      </trkpt>
      <trkpt lat="41.41515" lon="19.74256">
        <ele>78.902421</ele>
        <time>2022-05-14T09:17:41.150Z</time>
      </trkpt>
      <trkpt lat="41.41523" lon="19.74253">
        <ele>78.787373</ele>
        <time>2022-05-14T09:17:43.056Z</time>
      </trkpt>
      <trkpt lat="41.41532" lon="19.74249">
        <ele>78.671508</ele>
        <time>2022-05-14T09:17:45.093Z</time>
      </trkpt>
      <trkpt lat="41.41545" lon="19.74244">
        <ele>78.50754</ele>
        <time>2022-05-14T09:17:48.091Z</time>
      </trkpt>
      <trkpt lat="41.41557" lon="19.7424">
        <ele>78.343809</ele>
        <time>2022-05-14T09:17:51.061Z</time>
      </trkpt>
      <trkpt lat="41.41566" lon="19.74237">
        <ele>78.228038</ele>
        <time>2022-05-14T09:17:53.077Z</time>
      </trkpt>
      <trkpt lat="41.41575" lon="19.74234">
        <ele>78.110282</ele>
        <time>2022-05-14T09:17:55.092Z</time>
      </trkpt>
      <trkpt lat="41.41584" lon="19.7423">
        <ele>77.98562</ele>
        <time>2022-05-14T09:17:57.109Z</time>
      </trkpt>
      <trkpt lat="41.41594" lon="19.74226">
        <ele>77.911408</ele>
        <time>2022-05-14T09:17:59.070Z</time>
      </trkpt>
      <trkpt lat="41.41603" lon="19.74223">
        <ele>77.900227</ele>
        <time>2022-05-14T09:18:01.069Z</time>
      </trkpt>
      <trkpt lat="41.41613" lon="19.74219">
        <ele>77.88872</ele>
        <time>2022-05-14T09:18:03.096Z</time>
      </trkpt>
      <trkpt lat="41.41623" lon="19.74215">
        <ele>77.877142</ele>
        <time>2022-05-14T09:18:05.083Z</time>
      </trkpt>
      <trkpt lat="41.41633" lon="19.74211">
        <ele>77.865696</ele>
        <time>2022-05-14T09:18:07.101Z</time>
      </trkpt>
      <trkpt lat="41.41642" lon="19.74208">
        <ele>77.854842</ele>
        <time>2022-05-14T09:18:09.076Z</time>
      </trkpt>
      <trkpt lat="41.41651" lon="19.74204">
        <ele>77.844102</ele>
        <time>2022-05-14T09:18:11.088Z</time>
      </trkpt>
      <trkpt lat="41.4166" lon="19.742">
        <ele>77.832982</ele>
        <time>2022-05-14T09:18:13.118Z</time>
      </trkpt>
      <trkpt lat="41.4167" lon="19.74196">
        <ele>77.821646</ele>
        <time>2022-05-14T09:18:15.086Z</time>
      </trkpt>
      <trkpt lat="41.4168" lon="19.74192">
        <ele>77.809959</ele>
        <time>2022-05-14T09:18:17.110Z</time>
      </trkpt>
      <trkpt lat="41.41689" lon="19.74188">
        <ele>77.798387</ele>
        <time>2022-05-14T09:18:19.078Z</time>
      </trkpt>
      <trkpt lat="41.41699" lon="19.74184">
        <ele>77.786734</ele>
        <time>2022-05-14T09:18:21.067Z</time>
      </trkpt>
      <trkpt lat="41.41709" lon="19.74179">
        <ele>77.774757</ele>
        <time>2022-05-14T09:18:23.076Z</time>
      </trkpt>
      <trkpt lat="41.41719" lon="19.74175">
        <ele>77.762805</ele>
        <time>2022-05-14T09:18:25.068Z</time>
      </trkpt>
      <trkpt lat="41.41729" lon="19.74171">
        <ele>77.751443</ele>
        <time>2022-05-14T09:18:27.066Z</time>
      </trkpt>
      <trkpt lat="41.41739" lon="19.74168">
        <ele>77.740045</ele>
        <time>2022-05-14T09:18:29.050Z</time>
      </trkpt>
      <trkpt lat="41.41748" lon="19.74164">
        <ele>77.7286</ele>
        <time>2022-05-14T09:18:31.066Z</time>
      </trkpt>
      <trkpt lat="41.41758" lon="19.7416">
        <ele>77.716913</ele>
        <time>2022-05-14T09:18:33.074Z</time>
      </trkpt>
      <trkpt lat="41.41768" lon="19.74156">
        <ele>77.659203</ele>
        <time>2022-05-14T09:18:35.105Z</time>
      </trkpt>
      <trkpt lat="41.41778" lon="19.74152">
        <ele>77.576498</ele>
        <time>2022-05-14T09:18:37.071Z</time>
      </trkpt>
      <trkpt lat="41.41788" lon="19.74149">
        <ele>77.495669</ele>
        <time>2022-05-14T09:18:39.068Z</time>
      </trkpt>
      <trkpt lat="41.41797" lon="19.74145">
        <ele>77.417137</ele>
        <time>2022-05-14T09:18:41.082Z</time>
      </trkpt>
      <trkpt lat="41.41806" lon="19.74141">
        <ele>77.34004</ele>
        <time>2022-05-14T09:18:43.070Z</time>
      </trkpt>
      <trkpt lat="41.41815" lon="19.74138">
        <ele>77.265682</ele>
        <time>2022-05-14T09:18:45.078Z</time>
      </trkpt>
      <trkpt lat="41.41825" lon="19.74134">
        <ele>77.187916</ele>
        <time>2022-05-14T09:18:47.082Z</time>
      </trkpt>
      <trkpt lat="41.41834" lon="19.7413">
        <ele>77.108789</ele>
        <time>2022-05-14T09:18:49.072Z</time>
      </trkpt>
      <trkpt lat="41.41844" lon="19.74126">
        <ele>77.026085</ele>
        <time>2022-05-14T09:18:51.090Z</time>
      </trkpt>
      <trkpt lat="41.41854" lon="19.74122">
        <ele>76.942262</ele>
        <time>2022-05-14T09:18:53.062Z</time>
      </trkpt>
      <trkpt lat="41.41864" lon="19.74118">
        <ele>76.85973</ele>
        <time>2022-05-14T09:18:55.070Z</time>
      </trkpt>
      <trkpt lat="41.41874" lon="19.74114">
        <ele>76.777365</ele>
        <time>2022-05-14T09:18:57.103Z</time>
      </trkpt>
      <trkpt lat="41.41883" lon="19.7411">
        <ele>76.696189</ele>
        <time>2022-05-14T09:18:59.067Z</time>
      </trkpt>
      <trkpt lat="41.41893" lon="19.74107">
        <ele>76.613825</ele>
        <time>2022-05-14T09:19:01.095Z</time>
      </trkpt>
      <trkpt lat="41.41903" lon="19.74103">
        <ele>76.531012</ele>
        <time>2022-05-14T09:19:03.122Z</time>
      </trkpt>
      <trkpt lat="41.41913" lon="19.74099">
        <ele>76.449415</ele>
        <time>2022-05-14T09:19:05.056Z</time>
      </trkpt>
      <trkpt lat="41.41923" lon="19.74096">
        <ele>76.368302</ele>
        <time>2022-05-14T09:19:07.052Z</time>
      </trkpt>
      <trkpt lat="41.41932" lon="19.74092">
        <ele>76.289771</ele>
        <time>2022-05-14T09:19:09.065Z</time>
      </trkpt>
      <trkpt lat="41.41941" lon="19.74088">
        <ele>76.241955</ele>
        <time>2022-05-14T09:19:11.070Z</time>
      </trkpt>
      <trkpt lat="41.41951" lon="19.74085">
        <ele>76.199913</ele>
        <time>2022-05-14T09:19:13.072Z</time>
      </trkpt>
      <trkpt lat="41.4196" lon="19.74081">
        <ele>76.158202</ele>
        <time>2022-05-14T09:19:15.082Z</time>
      </trkpt>
      <trkpt lat="41.41969" lon="19.74077">
        <ele>76.116931</ele>
        <time>2022-05-14T09:19:17.068Z</time>
      </trkpt>
      <trkpt lat="41.41978" lon="19.74074">
        <ele>76.075544</ele>
        <time>2022-05-14T09:19:19.076Z</time>
      </trkpt>
      <trkpt lat="41.41986" lon="19.7407">
        <ele>76.034479</ele>
        <time>2022-05-14T09:19:21.085Z</time>
      </trkpt>
      <trkpt lat="41.41996" lon="19.74066">
        <ele>75.99295</ele>
        <time>2022-05-14T09:19:23.076Z</time>
      </trkpt>
      <trkpt lat="41.42005" lon="19.74063">
        <ele>75.950207</ele>
        <time>2022-05-14T09:19:25.084Z</time>
      </trkpt>
      <trkpt lat="41.42015" lon="19.74059">
        <ele>75.90578</ele>
        <time>2022-05-14T09:19:27.086Z</time>
      </trkpt>
      <trkpt lat="41.42024" lon="19.74055">
        <ele>75.864069</ele>
        <time>2022-05-14T09:19:29.085Z</time>
      </trkpt>
      <trkpt lat="41.42033" lon="19.74052">
        <ele>75.822028</ele>
        <time>2022-05-14T09:19:31.112Z</time>
      </trkpt>
      <trkpt lat="41.42046" lon="19.74047">
        <ele>75.763687</ele>
        <time>2022-05-14T09:19:34.052Z</time>
      </trkpt>
      <trkpt lat="41.42055" lon="19.74043">
        <ele>75.722817</ele>
        <time>2022-05-14T09:19:36.071Z</time>
      </trkpt>
      <trkpt lat="41.42064" lon="19.7404">
        <ele>75.680684</ele>
        <time>2022-05-14T09:19:38.096Z</time>
      </trkpt>
      <trkpt lat="41.42073" lon="19.74036">
        <ele>75.638037</ele>
        <time>2022-05-14T09:19:40.076Z</time>
      </trkpt>
      <trkpt lat="41.42083" lon="19.74032">
        <ele>75.593936</ele>
        <time>2022-05-14T09:19:42.098Z</time>
      </trkpt>
      <trkpt lat="41.42093" lon="19.74028">
        <ele>75.548152</ele>
        <time>2022-05-14T09:19:44.110Z</time>
      </trkpt>
      <trkpt lat="41.42103" lon="19.74024">
        <ele>75.502882</ele>
        <time>2022-05-14T09:19:46.065Z</time>
      </trkpt>
      <trkpt lat="41.42112" lon="19.74021">
        <ele>75.404666</ele>
        <time>2022-05-14T09:19:48.094Z</time>
      </trkpt>
      <trkpt lat="41.42122" lon="19.74017">
        <ele>75.268541</ele>
        <time>2022-05-14T09:19:50.075Z</time>
      </trkpt>
      <trkpt lat="41.42131" lon="19.74013">
        <ele>75.136555</ele>
        <time>2022-05-14T09:19:52.079Z</time>
      </trkpt>
      <trkpt lat="41.42141" lon="19.74009">
        <ele>75.001291</ele>
        <time>2022-05-14T09:19:54.070Z</time>
      </trkpt>
      <trkpt lat="41.4215" lon="19.74005">
        <ele>74.869305</ele>
        <time>2022-05-14T09:19:56.059Z</time>
      </trkpt>
      <trkpt lat="41.4216" lon="19.74001">
        <ele>74.736069</ele>
        <time>2022-05-14T09:19:58.073Z</time>
      </trkpt>
      <trkpt lat="41.42169" lon="19.73997">
        <ele>74.606943</ele>
        <time>2022-05-14T09:20:00.092Z</time>
      </trkpt>
      <trkpt lat="41.42179" lon="19.73993">
        <ele>74.468254</ele>
        <time>2022-05-14T09:20:02.073Z</time>
      </trkpt>
      <trkpt lat="41.42189" lon="19.73989">
        <ele>74.326411</ele>
        <time>2022-05-14T09:20:04.066Z</time>
      </trkpt>
      <trkpt lat="41.42199" lon="19.73985">
        <ele>74.180428</ele>
        <time>2022-05-14T09:20:06.076Z</time>
      </trkpt>
      <trkpt lat="41.42209" lon="19.7398">
        <ele>74.040835</ele>
        <time>2022-05-14T09:20:08.068Z</time>
      </trkpt>
      <trkpt lat="41.42219" lon="19.73976">
        <ele>73.90057</ele>
        <time>2022-05-14T09:20:10.084Z</time>
      </trkpt>
      <trkpt lat="41.42229" lon="19.73972">
        <ele>73.761285</ele>
        <time>2022-05-14T09:20:12.067Z</time>
      </trkpt>
      <trkpt lat="41.42239" lon="19.73968">
        <ele>73.627026</ele>
        <time>2022-05-14T09:20:14.074Z</time>
      </trkpt>
      <trkpt lat="41.42249" lon="19.73964">
        <ele>73.490601</ele>
        <time>2022-05-14T09:20:16.071Z</time>
      </trkpt>
      <trkpt lat="41.42258" lon="19.7396">
        <ele>73.357035</ele>
        <time>2022-05-14T09:20:18.071Z</time>
      </trkpt>
      <trkpt lat="41.42267" lon="19.73956">
        <ele>73.225633</ele>
        <time>2022-05-14T09:20:20.077Z</time>
      </trkpt>
      <trkpt lat="41.42277" lon="19.73953">
        <ele>73.094231</ele>
        <time>2022-05-14T09:20:22.074Z</time>
      </trkpt>
      <trkpt lat="41.42286" lon="19.73949">
        <ele>73.052829</ele>
        <time>2022-05-14T09:20:24.079Z</time>
      </trkpt>
      <trkpt lat="41.42296" lon="19.73945">
        <ele>73.028165</ele>
        <time>2022-05-14T09:20:26.094Z</time>
      </trkpt>
      <trkpt lat="41.42306" lon="19.73941">
        <ele>73.003967</ele>
        <time>2022-05-14T09:20:28.074Z</time>
      </trkpt>
      <trkpt lat="41.42314" lon="19.73937">
        <ele>72.981612</ele>
        <time>2022-05-14T09:20:30.068Z</time>
      </trkpt>
      <trkpt lat="41.42323" lon="19.73934">
        <ele>72.959436</ele>
        <time>2022-05-14T09:20:32.070Z</time>
      </trkpt>
      <trkpt lat="41.42333" lon="19.7393">
        <ele>72.935343</ele>
        <time>2022-05-14T09:20:34.072Z</time>
      </trkpt>
      <trkpt lat="41.42342" lon="19.73926">
        <ele>72.911322</ele>
        <time>2022-05-14T09:20:36.088Z</time>
      </trkpt>
      <trkpt lat="41.42351" lon="19.73922">
        <ele>72.887643</ele>
        <time>2022-05-14T09:20:38.082Z</time>
      </trkpt>
      <trkpt lat="41.42361" lon="19.73919">
        <ele>72.863498</ele>
        <time>2022-05-14T09:20:40.111Z</time>
      </trkpt>
      <trkpt lat="41.42371" lon="19.73914">
        <ele>72.838029</ele>
        <time>2022-05-14T09:20:42.088Z</time>
      </trkpt>
      <trkpt lat="41.4238" lon="19.73911">
        <ele>72.813936</ele>
        <time>2022-05-14T09:20:44.095Z</time>
      </trkpt>
      <trkpt lat="41.4239" lon="19.73907">
        <ele>72.790361</ele>
        <time>2022-05-14T09:20:46.058Z</time>
      </trkpt>
      <trkpt lat="41.42399" lon="19.73904">
        <ele>72.766787</ele>
        <time>2022-05-14T09:20:48.066Z</time>
      </trkpt>
      <trkpt lat="41.42408" lon="19.739">
        <ele>72.743107</ele>
        <time>2022-05-14T09:20:50.090Z</time>
      </trkpt>
      <trkpt lat="41.42417" lon="19.73896">
        <ele>72.719374</ele>
        <time>2022-05-14T09:20:52.061Z</time>
      </trkpt>
      <trkpt lat="41.42427" lon="19.73892">
        <ele>72.695281</ele>
        <time>2022-05-14T09:20:54.064Z</time>
      </trkpt>
      <trkpt lat="41.42436" lon="19.73888">
        <ele>72.671602</ele>
        <time>2022-05-14T09:20:56.079Z</time>
      </trkpt>
      <trkpt lat="41.42445" lon="19.73885">
        <ele>72.648728</ele>
        <time>2022-05-14T09:20:58.071Z</time>
      </trkpt>
      <trkpt lat="41.42455" lon="19.73881">
        <ele>72.606348</ele>
        <time>2022-05-14T09:21:00.104Z</time>
      </trkpt>
      <trkpt lat="41.42464" lon="19.73877">
        <ele>72.540067</ele>
        <time>2022-05-14T09:21:02.073Z</time>
      </trkpt>
      <trkpt lat="41.42474" lon="19.73873">
        <ele>72.473113</ele>
        <time>2022-05-14T09:21:04.054Z</time>
      </trkpt>
      <trkpt lat="41.42484" lon="19.73869">
        <ele>72.407131</ele>
        <time>2022-05-14T09:21:06.078Z</time>
      </trkpt>
      <trkpt lat="41.42493" lon="19.73865">
        <ele>72.341776</ele>
        <time>2022-05-14T09:21:08.077Z</time>
      </trkpt>
      <trkpt lat="41.42503" lon="19.73861">
        <ele>72.277045</ele>
        <time>2022-05-14T09:21:10.055Z</time>
      </trkpt>
      <trkpt lat="41.42512" lon="19.73857">
        <ele>72.212607</ele>
        <time>2022-05-14T09:21:12.116Z</time>
      </trkpt>
      <trkpt lat="41.42522" lon="19.73853">
        <ele>72.146771</ele>
        <time>2022-05-14T09:21:14.072Z</time>
      </trkpt>
      <trkpt lat="41.42531" lon="19.73849">
        <ele>72.083587</ele>
        <time>2022-05-14T09:21:16.084Z</time>
      </trkpt>
      <trkpt lat="41.4254" lon="19.73846">
        <ele>72.018378</ele>
        <time>2022-05-14T09:21:18.104Z</time>
      </trkpt>
      <trkpt lat="41.4255" lon="19.73842">
        <ele>71.953796</ele>
        <time>2022-05-14T09:21:20.064Z</time>
      </trkpt>
      <trkpt lat="41.42559" lon="19.73838">
        <ele>71.887188</ele>
        <time>2022-05-14T09:21:22.049Z</time>
      </trkpt>
      <trkpt lat="41.42569" lon="19.73834">
        <ele>71.820095</ele>
        <time>2022-05-14T09:21:24.067Z</time>
      </trkpt>
      <trkpt lat="41.42579" lon="19.7383">
        <ele>71.750976</ele>
        <time>2022-05-14T09:21:26.081Z</time>
      </trkpt>
      <trkpt lat="41.42589" lon="19.73826">
        <ele>71.684995</ele>
        <time>2022-05-14T09:21:28.077Z</time>
      </trkpt>
      <trkpt lat="41.42599" lon="19.73822">
        <ele>71.617902</ele>
        <time>2022-05-14T09:21:30.070Z</time>
      </trkpt>
      <trkpt lat="41.42609" lon="19.73818">
        <ele>71.550584</ele>
        <time>2022-05-14T09:21:32.095Z</time>
      </trkpt>
      <trkpt lat="41.42618" lon="19.73815">
        <ele>71.486055</ele>
        <time>2022-05-14T09:21:34.089Z</time>
      </trkpt>
      <trkpt lat="41.42627" lon="19.73811">
        <ele>71.495065</ele>
        <time>2022-05-14T09:21:36.072Z</time>
      </trkpt>
      <trkpt lat="41.42636" lon="19.73808">
        <ele>71.57219</ele>
        <time>2022-05-14T09:21:38.092Z</time>
      </trkpt>
      <trkpt lat="41.42645" lon="19.73804">
        <ele>71.650215</ele>
        <time>2022-05-14T09:21:40.069Z</time>
      </trkpt>
      <trkpt lat="41.42654" lon="19.738">
        <ele>71.729625</ele>
        <time>2022-05-14T09:21:42.069Z</time>
      </trkpt>
      <trkpt lat="41.42664" lon="19.73796">
        <ele>71.814497</ele>
        <time>2022-05-14T09:21:44.107Z</time>
      </trkpt>
      <trkpt lat="41.42674" lon="19.73792">
        <ele>71.901913</ele>
        <time>2022-05-14T09:21:46.086Z</time>
      </trkpt>
      <trkpt lat="41.42685" lon="19.73787">
        <ele>71.990115</ele>
        <time>2022-05-14T09:21:48.056Z</time>
      </trkpt>
      <trkpt lat="41.42695" lon="19.73783">
        <ele>72.079103</ele>
        <time>2022-05-14T09:21:50.065Z</time>
      </trkpt>
      <trkpt lat="41.42705" lon="19.73779">
        <ele>72.16476</ele>
        <time>2022-05-14T09:21:52.064Z</time>
      </trkpt>
      <trkpt lat="41.42715" lon="19.73775">
        <ele>72.249531</ele>
        <time>2022-05-14T09:21:54.127Z</time>
      </trkpt>
      <trkpt lat="41.42724" lon="19.73771">
        <ele>72.332458</ele>
        <time>2022-05-14T09:21:56.056Z</time>
      </trkpt>
      <trkpt lat="41.42734" lon="19.73767">
        <ele>72.418984</ele>
        <time>2022-05-14T09:21:58.068Z</time>
      </trkpt>
      <trkpt lat="41.42744" lon="19.73764">
        <ele>72.503132</ele>
        <time>2022-05-14T09:22:00.063Z</time>
      </trkpt>
      <trkpt lat="41.42754" lon="19.7376">
        <ele>72.587903</ele>
        <time>2022-05-14T09:22:02.096Z</time>
      </trkpt>
      <trkpt lat="41.42764" lon="19.73756">
        <ele>72.670647</ele>
        <time>2022-05-14T09:22:04.071Z</time>
      </trkpt>
      <trkpt lat="41.42773" lon="19.73752">
        <ele>72.752705</ele>
        <time>2022-05-14T09:22:06.063Z</time>
      </trkpt>
      <trkpt lat="41.42783" lon="19.73749">
        <ele>72.833514</ele>
        <time>2022-05-14T09:22:08.065Z</time>
      </trkpt>
      <trkpt lat="41.42792" lon="19.73745">
        <ele>72.912923</ele>
        <time>2022-05-14T09:22:10.059Z</time>
      </trkpt>
      <trkpt lat="41.42801" lon="19.73741">
        <ele>73.013005</ele>
        <time>2022-05-14T09:22:12.084Z</time>
      </trkpt>
      <trkpt lat="41.4281" lon="19.73738">
        <ele>73.12066</ele>
        <time>2022-05-14T09:22:14.070Z</time>
      </trkpt>
      <trkpt lat="41.4282" lon="19.73734">
        <ele>73.232452</ele>
        <time>2022-05-14T09:22:16.099Z</time>
      </trkpt>
      <trkpt lat="41.42829" lon="19.7373">
        <ele>73.338654</ele>
        <time>2022-05-14T09:22:18.055Z</time>
      </trkpt>
      <trkpt lat="41.42838" lon="19.73726">
        <ele>73.448709</ele>
        <time>2022-05-14T09:22:20.075Z</time>
      </trkpt>
      <trkpt lat="41.42847" lon="19.73723">
        <ele>73.558149</ele>
        <time>2022-05-14T09:22:22.062Z</time>
      </trkpt>
      <trkpt lat="41.42857" lon="19.73719">
        <ele>73.664949</ele>
        <time>2022-05-14T09:22:24.080Z</time>
      </trkpt>
      <trkpt lat="41.42865" lon="19.73716">
        <ele>73.768032</ele>
        <time>2022-05-14T09:22:26.089Z</time>
      </trkpt>
      <trkpt lat="41.42874" lon="19.73713">
        <ele>73.869801</ele>
        <time>2022-05-14T09:22:28.070Z</time>
      </trkpt>
      <trkpt lat="41.42883" lon="19.7371">
        <ele>73.971135</ele>
        <time>2022-05-14T09:22:30.085Z</time>
      </trkpt>
      <trkpt lat="41.42891" lon="19.73707">
        <ele>74.072905</ele>
        <time>2022-05-14T09:22:32.078Z</time>
      </trkpt>
      <trkpt lat="41.42904" lon="19.73702">
        <ele>74.218273</ele>
        <time>2022-05-14T09:22:35.075Z</time>
      </trkpt>
      <trkpt lat="41.42913" lon="19.73698">
        <ele>74.322908</ele>
        <time>2022-05-14T09:22:37.070Z</time>
      </trkpt>
      <trkpt lat="41.42922" lon="19.73695">
        <ele>74.42911</ele>
        <time>2022-05-14T09:22:39.064Z</time>
      </trkpt>
      <trkpt lat="41.42931" lon="19.73691">
        <ele>74.538311</ele>
        <time>2022-05-14T09:22:41.078Z</time>
      </trkpt>
      <trkpt lat="41.4294" lon="19.73687">
        <ele>74.643691</ele>
        <time>2022-05-14T09:22:43.108Z</time>
      </trkpt>
      <trkpt lat="41.42953" lon="19.73682">
        <ele>74.795417</ele>
        <time>2022-05-14T09:22:46.070Z</time>
      </trkpt>
      <trkpt lat="41.42962" lon="19.73679">
        <ele>74.899816</ele>
        <time>2022-05-14T09:22:48.074Z</time>
      </trkpt>
      <trkpt lat="41.42971" lon="19.73675">
        <ele>74.946119</ele>
        <time>2022-05-14T09:22:50.072Z</time>
      </trkpt>
      <trkpt lat="41.42983" lon="19.7367">
        <ele>74.864021</ele>
        <time>2022-05-14T09:22:53.073Z</time>
      </trkpt>
      <trkpt lat="41.42993" lon="19.73666">
        <ele>74.804951</ele>
        <time>2022-05-14T09:22:55.073Z</time>
      </trkpt>
      <trkpt lat="41.43001" lon="19.73663">
        <ele>74.747926</ele>
        <time>2022-05-14T09:22:57.051Z</time>
      </trkpt>
      <trkpt lat="41.4301" lon="19.73659">
        <ele>74.691342</ele>
        <time>2022-05-14T09:22:59.082Z</time>
      </trkpt>
      <trkpt lat="41.43019" lon="19.73655">
        <ele>74.635319</ele>
        <time>2022-05-14T09:23:01.071Z</time>
      </trkpt>
      <trkpt lat="41.43028" lon="19.73651">
        <ele>74.577419</ele>
        <time>2022-05-14T09:23:03.078Z</time>
      </trkpt>
      <trkpt lat="41.43037" lon="19.73647">
        <ele>74.518934</ele>
        <time>2022-05-14T09:23:05.111Z</time>
      </trkpt>
      <trkpt lat="41.43046" lon="19.73643">
        <ele>74.460594</ele>
        <time>2022-05-14T09:23:07.074Z</time>
      </trkpt>
      <trkpt lat="41.43054" lon="19.7364">
        <ele>74.403569</ele>
        <time>2022-05-14T09:23:09.087Z</time>
      </trkpt>
      <trkpt lat="41.43067" lon="19.73634">
        <ele>74.323433</ele>
        <time>2022-05-14T09:23:12.065Z</time>
      </trkpt>
      <trkpt lat="41.4308" lon="19.73629">
        <ele>74.241531</ele>
        <time>2022-05-14T09:23:15.061Z</time>
      </trkpt>
      <trkpt lat="41.43088" lon="19.73626">
        <ele>74.18564</ele>
        <time>2022-05-14T09:23:17.072Z</time>
      </trkpt>
      <trkpt lat="41.431" lon="19.73621">
        <ele>74.106956</ele>
        <time>2022-05-14T09:23:20.068Z</time>
      </trkpt>
      <trkpt lat="41.43113" lon="19.73616">
        <ele>74.024857</ele>
        <time>2022-05-14T09:23:23.066Z</time>
      </trkpt>
      <trkpt lat="41.43126" lon="19.73611">
        <ele>73.94427</ele>
        <time>2022-05-14T09:23:26.059Z</time>
      </trkpt>
      <trkpt lat="41.43138" lon="19.73606">
        <ele>73.86572</ele>
        <time>2022-05-14T09:23:29.099Z</time>
      </trkpt>
      <trkpt lat="41.4315" lon="19.73601">
        <ele>73.812059</ele>
        <time>2022-05-14T09:23:32.075Z</time>
      </trkpt>
      <trkpt lat="41.43163" lon="19.73596">
        <ele>73.75996</ele>
        <time>2022-05-14T09:23:35.060Z</time>
      </trkpt>
      <trkpt lat="41.43176" lon="19.7359">
        <ele>73.708425</ele>
        <time>2022-05-14T09:23:38.117Z</time>
      </trkpt>
      <trkpt lat="41.43189" lon="19.73585">
        <ele>73.657033</ele>
        <time>2022-05-14T09:23:41.078Z</time>
      </trkpt>
      <trkpt lat="41.43202" lon="19.7358">
        <ele>73.604191</ele>
        <time>2022-05-14T09:23:44.064Z</time>
      </trkpt>
      <trkpt lat="41.4321" lon="19.73576">
        <ele>73.569239</ele>
        <time>2022-05-14T09:23:46.076Z</time>
      </trkpt>
      <trkpt lat="41.43223" lon="19.73571">
        <ele>73.517225</ele>
        <time>2022-05-14T09:23:49.085Z</time>
      </trkpt>
      <trkpt lat="41.43236" lon="19.73566">
        <ele>73.463804</ele>
        <time>2022-05-14T09:23:52.067Z</time>
      </trkpt>
      <trkpt lat="41.43245" lon="19.73562">
        <ele>73.426161</ele>
        <time>2022-05-14T09:23:54.112Z</time>
      </trkpt>
      <trkpt lat="41.43254" lon="19.73559">
        <ele>73.390465</ele>
        <time>2022-05-14T09:23:56.076Z</time>
      </trkpt>
      <trkpt lat="41.43267" lon="19.73554">
        <ele>73.337952</ele>
        <time>2022-05-14T09:23:59.064Z</time>
      </trkpt>
      <trkpt lat="41.43276" lon="19.7355">
        <ele>73.301055</ele>
        <time>2022-05-14T09:24:01.108Z</time>
      </trkpt>
      <trkpt lat="41.43286" lon="19.73547">
        <ele>73.262501</ele>
        <time>2022-05-14T09:24:03.073Z</time>
      </trkpt>
      <trkpt lat="41.43296" lon="19.73543">
        <ele>73.223362</ele>
        <time>2022-05-14T09:24:05.089Z</time>
      </trkpt>
      <trkpt lat="41.43305" lon="19.7354">
        <ele>73.184752</ele>
        <time>2022-05-14T09:24:07.122Z</time>
      </trkpt>
      <trkpt lat="41.43315" lon="19.73536">
        <ele>73.171291</ele>
        <time>2022-05-14T09:24:09.078Z</time>
      </trkpt>
      <trkpt lat="41.43325" lon="19.73532">
        <ele>73.208511</ele>
        <time>2022-05-14T09:24:11.076Z</time>
      </trkpt>
      <trkpt lat="41.43335" lon="19.73529">
        <ele>73.246015</ele>
        <time>2022-05-14T09:24:13.153Z</time>
      </trkpt>
      <trkpt lat="41.43345" lon="19.73525">
        <ele>73.281857</ele>
        <time>2022-05-14T09:24:15.077Z</time>
      </trkpt>
      <trkpt lat="41.43355" lon="19.73521">
        <ele>73.31773</ele>
        <time>2022-05-14T09:24:17.074Z</time>
      </trkpt>
      <trkpt lat="41.43364" lon="19.73517">
        <ele>73.352345</ele>
        <time>2022-05-14T09:24:19.062Z</time>
      </trkpt>
      <trkpt lat="41.43373" lon="19.73513">
        <ele>73.386777</ele>
        <time>2022-05-14T09:24:21.070Z</time>
      </trkpt>
      <trkpt lat="41.43382" lon="19.7351">
        <ele>73.420975</ele>
        <time>2022-05-14T09:24:23.080Z</time>
      </trkpt>
      <trkpt lat="41.43391" lon="19.73506">
        <ele>73.454306</ele>
        <time>2022-05-14T09:24:25.073Z</time>
      </trkpt>
      <trkpt lat="41.434" lon="19.73502">
        <ele>73.486537</ele>
        <time>2022-05-14T09:24:27.088Z</time>
      </trkpt>
      <trkpt lat="41.43413" lon="19.73497">
        <ele>73.534761</ele>
        <time>2022-05-14T09:24:30.070Z</time>
      </trkpt>
      <trkpt lat="41.43422" lon="19.73493">
        <ele>73.568012</ele>
        <time>2022-05-14T09:24:32.068Z</time>
      </trkpt>
      <trkpt lat="41.43431" lon="19.73489">
        <ele>73.602023</ele>
        <time>2022-05-14T09:24:34.060Z</time>
      </trkpt>
      <trkpt lat="41.4344" lon="19.73486">
        <ele>73.635956</ele>
        <time>2022-05-14T09:24:36.068Z</time>
      </trkpt>
      <trkpt lat="41.43449" lon="19.73482">
        <ele>73.670153</ele>
        <time>2022-05-14T09:24:38.074Z</time>
      </trkpt>
      <trkpt lat="41.43458" lon="19.73478">
        <ele>73.704585</ele>
        <time>2022-05-14T09:24:40.114Z</time>
      </trkpt>
      <trkpt lat="41.43467" lon="19.73475">
        <ele>73.7392</ele>
        <time>2022-05-14T09:24:42.063Z</time>
      </trkpt>
      <trkpt lat="41.43477" lon="19.73471">
        <ele>73.774083</ele>
        <time>2022-05-14T09:24:44.056Z</time>
      </trkpt>
      <trkpt lat="41.43486" lon="19.73467">
        <ele>73.814968</ele>
        <time>2022-05-14T09:24:46.086Z</time>
      </trkpt>
      <trkpt lat="41.43495" lon="19.73464">
        <ele>73.877224</ele>
        <time>2022-05-14T09:24:48.085Z</time>
      </trkpt>
      <trkpt lat="41.43504" lon="19.7346">
        <ele>73.941246</ele>
        <time>2022-05-14T09:24:50.130Z</time>
      </trkpt>
      <trkpt lat="41.43512" lon="19.73457">
        <ele>74.004963</ele>
        <time>2022-05-14T09:24:52.110Z</time>
      </trkpt>
      <trkpt lat="41.43522" lon="19.73453">
        <ele>74.070946</ele>
        <time>2022-05-14T09:24:54.075Z</time>
      </trkpt>
      <trkpt lat="41.43531" lon="19.73449">
        <ele>74.135621</ele>
        <time>2022-05-14T09:24:56.083Z</time>
      </trkpt>
      <trkpt lat="41.4354" lon="19.73445">
        <ele>74.200296</ele>
        <time>2022-05-14T09:24:58.077Z</time>
      </trkpt>
      <trkpt lat="41.43549" lon="19.73442">
        <ele>74.265181</ele>
        <time>2022-05-14T09:25:00.064Z</time>
      </trkpt>
      <trkpt lat="41.43558" lon="19.73438">
        <ele>74.333279</ele>
        <time>2022-05-14T09:25:02.064Z</time>
      </trkpt>
      <trkpt lat="41.43568" lon="19.73434">
        <ele>74.402688</ele>
        <time>2022-05-14T09:25:04.067Z</time>
      </trkpt>
      <trkpt lat="41.43578" lon="19.7343">
        <ele>74.473209</ele>
        <time>2022-05-14T09:25:06.068Z</time>
      </trkpt>
      <trkpt lat="41.43587" lon="19.73426">
        <ele>74.539411</ele>
        <time>2022-05-14T09:25:08.073Z</time>
      </trkpt>
      <trkpt lat="41.43596" lon="19.73423">
        <ele>74.605614</ele>
        <time>2022-05-14T09:25:10.085Z</time>
      </trkpt>
      <trkpt lat="41.43605" lon="19.73419">
        <ele>74.670221</ele>
        <time>2022-05-14T09:25:12.088Z</time>
      </trkpt>
      <trkpt lat="41.43615" lon="19.73416">
        <ele>74.735626</ele>
        <time>2022-05-14T09:25:14.123Z</time>
      </trkpt>
      <trkpt lat="41.43624" lon="19.73412">
        <ele>74.805266</ele>
        <time>2022-05-14T09:25:16.106Z</time>
      </trkpt>
      <trkpt lat="41.43634" lon="19.73409">
        <ele>74.870809</ele>
        <time>2022-05-14T09:25:18.094Z</time>
      </trkpt>
      <trkpt lat="41.43643" lon="19.73405">
        <ele>74.935694</ele>
        <time>2022-05-14T09:25:20.081Z</time>
      </trkpt>
      <trkpt lat="41.43652" lon="19.73402">
        <ele>75.001527</ele>
        <time>2022-05-14T09:25:22.068Z</time>
      </trkpt>
      <trkpt lat="41.43661" lon="19.73398">
        <ele>75.101795</ele>
        <time>2022-05-14T09:25:24.074Z</time>
      </trkpt>
      <trkpt lat="41.4367" lon="19.73394">
        <ele>75.231177</ele>
        <time>2022-05-14T09:25:26.085Z</time>
      </trkpt>
      <trkpt lat="41.43679" lon="19.73391">
        <ele>75.364538</ele>
        <time>2022-05-14T09:25:28.081Z</time>
      </trkpt>
      <trkpt lat="41.43688" lon="19.73387">
        <ele>75.492307</ele>
        <time>2022-05-14T09:25:30.072Z</time>
      </trkpt>
      <trkpt lat="41.43701" lon="19.73383">
        <ele>75.67581</ele>
        <time>2022-05-14T09:25:33.085Z</time>
      </trkpt>
      <trkpt lat="41.4371" lon="19.73379">
        <ele>75.800927</ele>
        <time>2022-05-14T09:25:35.067Z</time>
      </trkpt>
      <trkpt lat="41.43722" lon="19.73375">
        <ele>75.970593</ele>
        <time>2022-05-14T09:25:38.077Z</time>
      </trkpt>
      <trkpt lat="41.43733" lon="19.7337">
        <ele>76.136589</ele>
        <time>2022-05-14T09:25:41.073Z</time>
      </trkpt>
      <trkpt lat="41.43745" lon="19.73365">
        <ele>76.301991</ele>
        <time>2022-05-14T09:25:44.071Z</time>
      </trkpt>
      <trkpt lat="41.43756" lon="19.73361">
        <ele>76.468431</ele>
        <time>2022-05-14T09:25:47.133Z</time>
      </trkpt>
      <trkpt lat="41.43767" lon="19.73357">
        <ele>76.627954</ele>
        <time>2022-05-14T09:25:50.089Z</time>
      </trkpt>
      <trkpt lat="41.43778" lon="19.73352">
        <ele>76.784827</ele>
        <time>2022-05-14T09:25:53.071Z</time>
      </trkpt>
      <trkpt lat="41.43789" lon="19.73348">
        <ele>76.93835</ele>
        <time>2022-05-14T09:25:56.097Z</time>
      </trkpt>
      <trkpt lat="41.438" lon="19.73344">
        <ele>77.102905</ele>
        <time>2022-05-14T09:25:59.087Z</time>
      </trkpt>
      <trkpt lat="41.43811" lon="19.73339">
        <ele>77.26332</ele>
        <time>2022-05-14T09:26:02.079Z</time>
      </trkpt>
      <trkpt lat="41.43823" lon="19.73334">
        <ele>77.433279</ele>
        <time>2022-05-14T09:26:05.092Z</time>
      </trkpt>
      <trkpt lat="41.43835" lon="19.7333">
        <ele>77.556741</ele>
        <time>2022-05-14T09:26:08.098Z</time>
      </trkpt>
      <trkpt lat="41.43846" lon="19.73325">
        <ele>77.636771</ele>
        <time>2022-05-14T09:26:11.075Z</time>
      </trkpt>
      <trkpt lat="41.43857" lon="19.7332">
        <ele>77.719937</ele>
        <time>2022-05-14T09:26:14.088Z</time>
      </trkpt>
      <trkpt lat="41.43869" lon="19.73315">
        <ele>77.807921</ele>
        <time>2022-05-14T09:26:17.085Z</time>
      </trkpt>
      <trkpt lat="41.43882" lon="19.7331">
        <ele>77.901808</ele>
        <time>2022-05-14T09:26:20.072Z</time>
      </trkpt>
      <trkpt lat="41.43894" lon="19.73305">
        <ele>77.989423</ele>
        <time>2022-05-14T09:26:23.066Z</time>
      </trkpt>
      <trkpt lat="41.43906" lon="19.73301">
        <ele>78.073936</ele>
        <time>2022-05-14T09:26:26.068Z</time>
      </trkpt>
      <trkpt lat="41.43917" lon="19.73296">
        <ele>78.153809</ele>
        <time>2022-05-14T09:26:29.055Z</time>
      </trkpt>
      <trkpt lat="41.43928" lon="19.73291">
        <ele>78.235667</ele>
        <time>2022-05-14T09:26:32.084Z</time>
      </trkpt>
      <trkpt lat="41.43941" lon="19.73286">
        <ele>78.325067</ele>
        <time>2022-05-14T09:26:35.079Z</time>
      </trkpt>
      <trkpt lat="41.43953" lon="19.73281">
        <ele>78.414129</ele>
        <time>2022-05-14T09:26:38.056Z</time>
      </trkpt>
      <trkpt lat="41.43965" lon="19.73276">
        <ele>78.500418</ele>
        <time>2022-05-14T09:26:41.082Z</time>
      </trkpt>
      <trkpt lat="41.43977" lon="19.73271">
        <ele>78.58768</ele>
        <time>2022-05-14T09:26:44.111Z</time>
      </trkpt>
      <trkpt lat="41.43989" lon="19.73266">
        <ele>78.674047</ele>
        <time>2022-05-14T09:26:47.054Z</time>
      </trkpt>
      <trkpt lat="41.44001" lon="19.73262">
        <ele>78.761181</ele>
        <time>2022-05-14T09:26:50.081Z</time>
      </trkpt>
      <trkpt lat="41.44013" lon="19.73256">
        <ele>78.767148</ele>
        <time>2022-05-14T09:26:53.057Z</time>
      </trkpt>
      <trkpt lat="41.44026" lon="19.73252">
        <ele>78.773155</ele>
        <time>2022-05-14T09:26:56.068Z</time>
      </trkpt>
      <trkpt lat="41.44039" lon="19.73247">
        <ele>78.779304</ele>
        <time>2022-05-14T09:26:59.086Z</time>
      </trkpt>
      <trkpt lat="41.4405" lon="19.73243">
        <ele>78.784649</ele>
        <time>2022-05-14T09:27:02.072Z</time>
      </trkpt>
      <trkpt lat="41.44061" lon="19.73238">
        <ele>78.790005</ele>
        <time>2022-05-14T09:27:05.069Z</time>
      </trkpt>
      <trkpt lat="41.44074" lon="19.73234">
        <ele>78.796028</ele>
        <time>2022-05-14T09:27:08.074Z</time>
      </trkpt>
      <trkpt lat="41.44086" lon="19.73229">
        <ele>78.802152</ele>
        <time>2022-05-14T09:27:11.074Z</time>
      </trkpt>
      <trkpt lat="41.44095" lon="19.73225">
        <ele>78.806434</ele>
        <time>2022-05-14T09:27:13.072Z</time>
      </trkpt>
      <trkpt lat="41.44104" lon="19.73222">
        <ele>78.810751</ele>
        <time>2022-05-14T09:27:15.072Z</time>
      </trkpt>
      <trkpt lat="41.44113" lon="19.73218">
        <ele>78.815127</ele>
        <time>2022-05-14T09:27:17.100Z</time>
      </trkpt>
      <trkpt lat="41.44122" lon="19.73214">
        <ele>78.819427</ele>
        <time>2022-05-14T09:27:19.064Z</time>
      </trkpt>
      <trkpt lat="41.44131" lon="19.7321">
        <ele>78.823803</ele>
        <time>2022-05-14T09:27:21.082Z</time>
      </trkpt>
      <trkpt lat="41.4414" lon="19.73207">
        <ele>78.827972</ele>
        <time>2022-05-14T09:27:23.082Z</time>
      </trkpt>
      <trkpt lat="41.44151" lon="19.73202">
        <ele>78.833674</ele>
        <time>2022-05-14T09:27:26.084Z</time>
      </trkpt>
      <trkpt lat="41.44164" lon="19.73197">
        <ele>78.839773</ele>
        <time>2022-05-14T09:27:29.066Z</time>
      </trkpt>
      <trkpt lat="41.44176" lon="19.73192">
        <ele>78.846725</ele>
        <time>2022-05-14T09:27:32.057Z</time>
      </trkpt>
      <trkpt lat="41.44189" lon="19.73187">
        <ele>78.856593</ele>
        <time>2022-05-14T09:27:35.073Z</time>
      </trkpt>
      <trkpt lat="41.44202" lon="19.73182">
        <ele>78.866593</ele>
        <time>2022-05-14T09:27:38.054Z</time>
      </trkpt>
      <trkpt lat="41.44213" lon="19.73177">
        <ele>78.87586</ele>
        <time>2022-05-14T09:27:41.085Z</time>
      </trkpt>
      <trkpt lat="41.44225" lon="19.73173">
        <ele>78.884838</ele>
        <time>2022-05-14T09:27:44.068Z</time>
      </trkpt>
      <trkpt lat="41.44236" lon="19.73168">
        <ele>78.894069</ele>
        <time>2022-05-14T09:27:47.083Z</time>
      </trkpt>
      <trkpt lat="41.44248" lon="19.73163">
        <ele>78.903342</ele>
        <time>2022-05-14T09:27:50.081Z</time>
      </trkpt>
      <trkpt lat="41.44259" lon="19.73159">
        <ele>78.912072</ele>
        <time>2022-05-14T09:27:53.068Z</time>
      </trkpt>
      <trkpt lat="41.4427" lon="19.73154">
        <ele>78.920589</ele>
        <time>2022-05-14T09:27:56.109Z</time>
      </trkpt>
      <trkpt lat="41.44281" lon="19.7315">
        <ele>78.928926</ele>
        <time>2022-05-14T09:27:59.073Z</time>
      </trkpt>
      <trkpt lat="41.44291" lon="19.73145">
        <ele>78.936976</ele>
        <time>2022-05-14T09:28:02.088Z</time>
      </trkpt>
      <trkpt lat="41.443" lon="19.73141">
        <ele>78.944418</ele>
        <time>2022-05-14T09:28:05.093Z</time>
      </trkpt>
      <trkpt lat="41.44311" lon="19.73136">
        <ele>78.952898</ele>
        <time>2022-05-14T09:28:08.089Z</time>
      </trkpt>
      <trkpt lat="41.44321" lon="19.73133">
        <ele>78.960725</ele>
        <time>2022-05-14T09:28:11.056Z</time>
      </trkpt>
      <trkpt lat="41.44331" lon="19.73129">
        <ele>78.968859</ele>
        <time>2022-05-14T09:28:14.065Z</time>
      </trkpt>
      <trkpt lat="41.44342" lon="19.73125">
        <ele>78.977386</ele>
        <time>2022-05-14T09:28:17.077Z</time>
      </trkpt>
      <trkpt lat="41.44353" lon="19.7312">
        <ele>79.010229</ele>
        <time>2022-05-14T09:28:20.072Z</time>
      </trkpt>
      <trkpt lat="41.44365" lon="19.73116">
        <ele>79.051665</ele>
        <time>2022-05-14T09:28:23.062Z</time>
      </trkpt>
      <trkpt lat="41.44375" lon="19.73112">
        <ele>79.091632</ele>
        <time>2022-05-14T09:28:26.074Z</time>
      </trkpt>
      <trkpt lat="41.44386" lon="19.73107">
        <ele>79.130691</ele>
        <time>2022-05-14T09:28:29.101Z</time>
      </trkpt>
      <trkpt lat="41.44397" lon="19.73103">
        <ele>79.171333</ele>
        <time>2022-05-14T09:28:32.065Z</time>
      </trkpt>
      <trkpt lat="41.44408" lon="19.73098">
        <ele>79.210884</ele>
        <time>2022-05-14T09:28:35.108Z</time>
      </trkpt>
      <trkpt lat="41.44419" lon="19.73094">
        <ele>79.251188</ele>
        <time>2022-05-14T09:28:38.058Z</time>
      </trkpt>
      <trkpt lat="41.4443" lon="19.7309">
        <ele>79.292769</ele>
        <time>2022-05-14T09:28:41.086Z</time>
      </trkpt>
      <trkpt lat="41.44441" lon="19.73085">
        <ele>79.334839</ele>
        <time>2022-05-14T09:28:44.067Z</time>
      </trkpt>
      <trkpt lat="41.44452" lon="19.7308">
        <ele>79.376056</ele>
        <time>2022-05-14T09:28:47.067Z</time>
      </trkpt>
      <trkpt lat="41.44464" lon="19.73076">
        <ele>79.41696</ele>
        <time>2022-05-14T09:28:50.090Z</time>
      </trkpt>
      <trkpt lat="41.44476" lon="19.73071">
        <ele>79.463733</ele>
        <time>2022-05-14T09:28:53.087Z</time>
      </trkpt>
      <trkpt lat="41.44485" lon="19.73067">
        <ele>79.495909</ele>
        <time>2022-05-14T09:28:55.093Z</time>
      </trkpt>
      <trkpt lat="41.44497" lon="19.73062">
        <ele>79.540576</ele>
        <time>2022-05-14T09:28:58.059Z</time>
      </trkpt>
      <trkpt lat="41.44509" lon="19.73058">
        <ele>79.584414</ele>
        <time>2022-05-14T09:29:01.079Z</time>
      </trkpt>
      <trkpt lat="41.44521" lon="19.73053">
        <ele>79.528793</ele>
        <time>2022-05-14T09:29:04.076Z</time>
      </trkpt>
      <trkpt lat="41.44534" lon="19.73048">
        <ele>79.224745</ele>
        <time>2022-05-14T09:29:07.096Z</time>
      </trkpt>
      <trkpt lat="41.44543" lon="19.73044">
        <ele>79.002356</ele>
        <time>2022-05-14T09:29:09.108Z</time>
      </trkpt>
      <trkpt lat="41.44551" lon="19.73041">
        <ele>78.792019</ele>
        <time>2022-05-14T09:29:11.056Z</time>
      </trkpt>
      <trkpt lat="41.44564" lon="19.73035">
        <ele>78.485258</ele>
        <time>2022-05-14T09:29:14.072Z</time>
      </trkpt>
      <trkpt lat="41.44573" lon="19.73032">
        <ele>78.27387</ele>
        <time>2022-05-14T09:29:16.071Z</time>
      </trkpt>
      <trkpt lat="41.44582" lon="19.73028">
        <ele>78.058088</ele>
        <time>2022-05-14T09:29:18.054Z</time>
      </trkpt>
      <trkpt lat="41.44591" lon="19.73024">
        <ele>77.836845</ele>
        <time>2022-05-14T09:29:20.069Z</time>
      </trkpt>
      <trkpt lat="41.446" lon="19.7302">
        <ele>77.618863</ele>
        <time>2022-05-14T09:29:22.108Z</time>
      </trkpt>
      <trkpt lat="41.44609" lon="19.73016">
        <ele>77.398155</ele>
        <time>2022-05-14T09:29:24.076Z</time>
      </trkpt>
      <trkpt lat="41.44618" lon="19.73012">
        <ele>77.187299</ele>
        <time>2022-05-14T09:29:26.061Z</time>
      </trkpt>
      <trkpt lat="41.44627" lon="19.73008">
        <ele>76.963861</ele>
        <time>2022-05-14T09:29:28.071Z</time>
      </trkpt>
      <trkpt lat="41.44636" lon="19.73004">
        <ele>76.74481</ele>
        <time>2022-05-14T09:29:30.094Z</time>
      </trkpt>
      <trkpt lat="41.44645" lon="19.73001">
        <ele>76.531753</ele>
        <time>2022-05-14T09:29:32.072Z</time>
      </trkpt>
      <trkpt lat="41.44653" lon="19.72997">
        <ele>76.31817</ele>
        <time>2022-05-14T09:29:34.057Z</time>
      </trkpt>
      <trkpt lat="41.44662" lon="19.72993">
        <ele>76.101308</ele>
        <time>2022-05-14T09:29:36.108Z</time>
      </trkpt>
      <trkpt lat="41.44675" lon="19.72987">
        <ele>75.800065</ele>
        <time>2022-05-14T09:29:39.079Z</time>
      </trkpt>
      <trkpt lat="41.44688" lon="19.72982">
        <ele>75.486675</ele>
        <time>2022-05-14T09:29:42.074Z</time>
      </trkpt>
      <trkpt lat="41.447" lon="19.72976">
        <ele>75.48944</ele>
        <time>2022-05-14T09:29:45.078Z</time>
      </trkpt>
      <trkpt lat="41.44713" lon="19.72971">
        <ele>75.519106</ele>
        <time>2022-05-14T09:29:48.067Z</time>
      </trkpt>
      <trkpt lat="41.44725" lon="19.72966">
        <ele>75.548713</ele>
        <time>2022-05-14T09:29:51.083Z</time>
      </trkpt>
      <trkpt lat="41.44737" lon="19.72961">
        <ele>75.577187</ele>
        <time>2022-05-14T09:29:54.076Z</time>
      </trkpt>
      <trkpt lat="41.44748" lon="19.72956">
        <ele>75.605226</ele>
        <time>2022-05-14T09:29:57.072Z</time>
      </trkpt>
      <trkpt lat="41.44761" lon="19.72951">
        <ele>75.634136</ele>
        <time>2022-05-14T09:30:00.067Z</time>
      </trkpt>
      <trkpt lat="41.44773" lon="19.72946">
        <ele>75.664576</ele>
        <time>2022-05-14T09:30:03.089Z</time>
      </trkpt>
      <trkpt lat="41.44786" lon="19.72941">
        <ele>75.694627</ele>
        <time>2022-05-14T09:30:06.067Z</time>
      </trkpt>
      <trkpt lat="41.44799" lon="19.72936">
        <ele>75.724581</ele>
        <time>2022-05-14T09:30:09.084Z</time>
      </trkpt>
      <trkpt lat="41.44811" lon="19.72931">
        <ele>75.753296</ele>
        <time>2022-05-14T09:30:12.103Z</time>
      </trkpt>
      <trkpt lat="41.44823" lon="19.72926">
        <ele>75.781888</ele>
        <time>2022-05-14T09:30:15.061Z</time>
      </trkpt>
      <trkpt lat="41.44835" lon="19.72922">
        <ele>75.810776</ele>
        <time>2022-05-14T09:30:18.070Z</time>
      </trkpt>
      <trkpt lat="41.44848" lon="19.72917">
        <ele>75.841342</ele>
        <time>2022-05-14T09:30:21.066Z</time>
      </trkpt>
      <trkpt lat="41.4486" lon="19.72913">
        <ele>75.87023</ele>
        <time>2022-05-14T09:30:24.059Z</time>
      </trkpt>
      <trkpt lat="41.44872" lon="19.72908">
        <ele>75.788147</ele>
        <time>2022-05-14T09:30:27.071Z</time>
      </trkpt>
      <trkpt lat="41.44884" lon="19.72904">
        <ele>75.69902</ele>
        <time>2022-05-14T09:30:30.068Z</time>
      </trkpt>
      <trkpt lat="41.44896" lon="19.72899">
        <ele>75.605596</ele>
        <time>2022-05-14T09:30:33.045Z</time>
      </trkpt>
      <trkpt lat="41.44905" lon="19.72895">
        <ele>75.540494</ele>
        <time>2022-05-14T09:30:35.061Z</time>
      </trkpt>
      <trkpt lat="41.44917" lon="19.7289">
        <ele>75.446391</ele>
        <time>2022-05-14T09:30:38.076Z</time>
      </trkpt>
      <trkpt lat="41.4493" lon="19.72884">
        <ele>75.347967</ele>
        <time>2022-05-14T09:30:41.070Z</time>
      </trkpt>
      <trkpt lat="41.44939" lon="19.72881">
        <ele>75.279778</ele>
        <time>2022-05-14T09:30:43.071Z</time>
      </trkpt>
      <trkpt lat="41.44948" lon="19.72877">
        <ele>75.212746</ele>
        <time>2022-05-14T09:30:45.130Z</time>
      </trkpt>
      <trkpt lat="41.44957" lon="19.72874">
        <ele>75.144869</ele>
        <time>2022-05-14T09:30:47.067Z</time>
      </trkpt>
      <trkpt lat="41.44967" lon="19.7287">
        <ele>75.072364</ele>
        <time>2022-05-14T09:30:49.063Z</time>
      </trkpt>
      <trkpt lat="41.44977" lon="19.72866">
        <ele>74.996455</ele>
        <time>2022-05-14T09:30:51.058Z</time>
      </trkpt>
      <trkpt lat="41.44987" lon="19.72862">
        <ele>74.921558</ele>
        <time>2022-05-14T09:30:53.056Z</time>
      </trkpt>
      <trkpt lat="41.44996" lon="19.72857">
        <ele>74.847029</ele>
        <time>2022-05-14T09:30:55.072Z</time>
      </trkpt>
      <trkpt lat="41.45006" lon="19.72853">
        <ele>74.77302</ele>
        <time>2022-05-14T09:30:57.079Z</time>
      </trkpt>
      <trkpt lat="41.45016" lon="19.72849">
        <ele>74.69901</ele>
        <time>2022-05-14T09:30:59.121Z</time>
      </trkpt>
      <trkpt lat="41.45026" lon="19.72844">
        <ele>74.620013</ele>
        <time>2022-05-14T09:31:01.085Z</time>
      </trkpt>
      <trkpt lat="41.45036" lon="19.7284">
        <ele>74.531542</ele>
        <time>2022-05-14T09:31:03.072Z</time>
      </trkpt>
      <trkpt lat="41.45046" lon="19.72836">
        <ele>74.418369</ele>
        <time>2022-05-14T09:31:05.074Z</time>
      </trkpt>
      <trkpt lat="41.45056" lon="19.72833">
        <ele>74.305898</ele>
        <time>2022-05-14T09:31:07.094Z</time>
      </trkpt>
      <trkpt lat="41.45065" lon="19.72828">
        <ele>74.196687</ele>
        <time>2022-05-14T09:31:09.077Z</time>
      </trkpt>
      <trkpt lat="41.45075" lon="19.72825">
        <ele>74.087165</ele>
        <time>2022-05-14T09:31:11.046Z</time>
      </trkpt>
      <trkpt lat="41.45084" lon="19.72821">
        <ele>73.975756</ele>
        <time>2022-05-14T09:31:13.057Z</time>
      </trkpt>
      <trkpt lat="41.45094" lon="19.72817">
        <ele>73.862222</ele>
        <time>2022-05-14T09:31:15.066Z</time>
      </trkpt>
      <trkpt lat="41.45104" lon="19.72813">
        <ele>73.745639</ele>
        <time>2022-05-14T09:31:17.068Z</time>
      </trkpt>
      <trkpt lat="41.45114" lon="19.72809">
        <ele>73.631167</ele>
        <time>2022-05-14T09:31:19.055Z</time>
      </trkpt>
      <trkpt lat="41.45124" lon="19.72805">
        <ele>73.51247</ele>
        <time>2022-05-14T09:31:21.071Z</time>
      </trkpt>
      <trkpt lat="41.45135" lon="19.72801">
        <ele>73.396125</ele>
        <time>2022-05-14T09:31:23.088Z</time>
      </trkpt>
      <trkpt lat="41.45145" lon="19.72797">
        <ele>73.278244</ele>
        <time>2022-05-14T09:31:25.080Z</time>
      </trkpt>
      <trkpt lat="41.45155" lon="19.72793">
        <ele>73.164827</ele>
        <time>2022-05-14T09:31:27.087Z</time>
      </trkpt>
      <trkpt lat="41.45165" lon="19.72789">
        <ele>73.050229</ele>
        <time>2022-05-14T09:31:29.054Z</time>
      </trkpt>
      <trkpt lat="41.45175" lon="19.72785">
        <ele>72.931766</ele>
        <time>2022-05-14T09:31:31.059Z</time>
      </trkpt>
      <trkpt lat="41.45185" lon="19.7278">
        <ele>72.809979</ele>
        <time>2022-05-14T09:31:33.104Z</time>
      </trkpt>
      <trkpt lat="41.45196" lon="19.72776">
        <ele>72.691599</ele>
        <time>2022-05-14T09:31:35.061Z</time>
      </trkpt>
      <trkpt lat="41.45206" lon="19.72771">
        <ele>72.564917</ele>
        <time>2022-05-14T09:31:37.068Z</time>
      </trkpt>
      <trkpt lat="41.45216" lon="19.72767">
        <ele>72.415114</ele>
        <time>2022-05-14T09:31:39.062Z</time>
      </trkpt>
      <trkpt lat="41.45227" lon="19.72763">
        <ele>72.261177</ele>
        <time>2022-05-14T09:31:41.120Z</time>
      </trkpt>
      <trkpt lat="41.45237" lon="19.72759">
        <ele>72.113456</ele>
        <time>2022-05-14T09:31:43.067Z</time>
      </trkpt>
      <trkpt lat="41.45247" lon="19.72755">
        <ele>71.965736</ele>
        <time>2022-05-14T09:31:45.068Z</time>
      </trkpt>
      <trkpt lat="41.45257" lon="19.7275">
        <ele>71.82036</ele>
        <time>2022-05-14T09:31:47.096Z</time>
      </trkpt>
      <trkpt lat="41.45268" lon="19.72746">
        <ele>71.673348</ele>
        <time>2022-05-14T09:31:49.061Z</time>
      </trkpt>
      <trkpt lat="41.45278" lon="19.72742">
        <ele>71.523545</ele>
        <time>2022-05-14T09:31:51.071Z</time>
      </trkpt>
      <trkpt lat="41.45288" lon="19.72738">
        <ele>71.376214</ele>
        <time>2022-05-14T09:31:53.096Z</time>
      </trkpt>
      <trkpt lat="41.45298" lon="19.72734">
        <ele>71.229515</ele>
        <time>2022-05-14T09:31:55.087Z</time>
      </trkpt>
      <trkpt lat="41.45308" lon="19.72729">
        <ele>71.081858</ele>
        <time>2022-05-14T09:31:57.084Z</time>
      </trkpt>
      <trkpt lat="41.45318" lon="19.72725">
        <ele>70.934527</ele>
        <time>2022-05-14T09:31:59.116Z</time>
      </trkpt>
      <trkpt lat="41.45328" lon="19.72721">
        <ele>70.789151</ele>
        <time>2022-05-14T09:32:01.073Z</time>
      </trkpt>
      <trkpt lat="41.45338" lon="19.72717">
        <ele>70.647634</ele>
        <time>2022-05-14T09:32:03.071Z</time>
      </trkpt>
      <trkpt lat="41.45348" lon="19.72713">
        <ele>70.503891</ele>
        <time>2022-05-14T09:32:05.083Z</time>
      </trkpt>
      <trkpt lat="41.45358" lon="19.72709">
        <ele>70.361473</ele>
        <time>2022-05-14T09:32:07.065Z</time>
      </trkpt>
      <trkpt lat="41.45368" lon="19.72705">
        <ele>70.218035</ele>
        <time>2022-05-14T09:32:09.072Z</time>
      </trkpt>
      <trkpt lat="41.45378" lon="19.72701">
        <ele>70.075552</ele>
        <time>2022-05-14T09:32:11.073Z</time>
      </trkpt>
      <trkpt lat="41.45388" lon="19.72697">
        <ele>69.933525</ele>
        <time>2022-05-14T09:32:13.076Z</time>
      </trkpt>
      <trkpt lat="41.45397" lon="19.72693">
        <ele>69.794714</ele>
        <time>2022-05-14T09:32:15.079Z</time>
      </trkpt>
      <trkpt lat="41.45407" lon="19.72689">
        <ele>69.654739</ele>
        <time>2022-05-14T09:32:17.077Z</time>
      </trkpt>
      <trkpt lat="41.45417" lon="19.72686">
        <ele>69.516385</ele>
        <time>2022-05-14T09:32:19.077Z</time>
      </trkpt>
      <trkpt lat="41.45426" lon="19.72682">
        <ele>69.382289</ele>
        <time>2022-05-14T09:32:21.124Z</time>
      </trkpt>
      <trkpt lat="41.45435" lon="19.72678">
        <ele>69.248491</ele>
        <time>2022-05-14T09:32:23.075Z</time>
      </trkpt>
      <trkpt lat="41.45444" lon="19.72674">
        <ele>69.118652</ele>
        <time>2022-05-14T09:32:25.085Z</time>
      </trkpt>
      <trkpt lat="41.45453" lon="19.72671">
        <ele>68.989819</ele>
        <time>2022-05-14T09:32:27.112Z</time>
      </trkpt>
      <trkpt lat="41.45462" lon="19.72667">
        <ele>68.858357</ele>
        <time>2022-05-14T09:32:29.074Z</time>
      </trkpt>
      <trkpt lat="41.45471" lon="19.72663">
        <ele>68.731457</ele>
        <time>2022-05-14T09:32:31.078Z</time>
      </trkpt>
      <trkpt lat="41.45484" lon="19.72658">
        <ele>68.546253</ele>
        <time>2022-05-14T09:32:34.072Z</time>
      </trkpt>
      <trkpt lat="41.45493" lon="19.72654">
        <ele>68.419046</ele>
        <time>2022-05-14T09:32:36.062Z</time>
      </trkpt>
      <trkpt lat="41.45502" lon="19.72651">
        <ele>68.289801</ele>
        <time>2022-05-14T09:32:38.100Z</time>
      </trkpt>
      <trkpt lat="41.45511" lon="19.72647">
        <ele>68.161582</ele>
        <time>2022-05-14T09:32:40.084Z</time>
      </trkpt>
      <trkpt lat="41.4552" lon="19.72644">
        <ele>68.031435</ele>
        <time>2022-05-14T09:32:42.081Z</time>
      </trkpt>
      <trkpt lat="41.45528" lon="19.7264">
        <ele>67.907169</ele>
        <time>2022-05-14T09:32:44.107Z</time>
      </trkpt>
      <trkpt lat="41.45537" lon="19.72636">
        <ele>67.781587</ele>
        <time>2022-05-14T09:32:46.067Z</time>
      </trkpt>
      <trkpt lat="41.45545" lon="19.72633">
        <ele>67.657007</ele>
        <time>2022-05-14T09:32:48.081Z</time>
      </trkpt>
      <trkpt lat="41.45554" lon="19.72629">
        <ele>67.643512</ele>
        <time>2022-05-14T09:32:50.081Z</time>
      </trkpt>
      <trkpt lat="41.45563" lon="19.72625">
        <ele>67.698228</ele>
        <time>2022-05-14T09:32:52.072Z</time>
      </trkpt>
      <trkpt lat="41.45572" lon="19.72621">
        <ele>67.752565</ele>
        <time>2022-05-14T09:32:54.055Z</time>
      </trkpt>
      <trkpt lat="41.45581" lon="19.72618">
        <ele>67.806353</ele>
        <time>2022-05-14T09:32:56.063Z</time>
      </trkpt>
      <trkpt lat="41.45591" lon="19.72614">
        <ele>67.861486</ele>
        <time>2022-05-14T09:32:58.057Z</time>
      </trkpt>
      <trkpt lat="41.456" lon="19.7261">
        <ele>67.915399</ele>
        <time>2022-05-14T09:33:00.073Z</time>
      </trkpt>
      <trkpt lat="41.45609" lon="19.72607">
        <ele>67.968516</ele>
        <time>2022-05-14T09:33:02.073Z</time>
      </trkpt>
      <trkpt lat="41.45617" lon="19.72603">
        <ele>68.020536</ele>
        <time>2022-05-14T09:33:04.084Z</time>
      </trkpt>
      <trkpt lat="41.4563" lon="19.72598">
        <ele>68.096219</ele>
        <time>2022-05-14T09:33:07.062Z</time>
      </trkpt>
      <trkpt lat="41.45643" lon="19.72593">
        <ele>68.172886</ele>
        <time>2022-05-14T09:33:10.069Z</time>
      </trkpt>
      <trkpt lat="41.45652" lon="19.7259">
        <ele>68.225031</ele>
        <time>2022-05-14T09:33:12.095Z</time>
      </trkpt>
      <trkpt lat="41.45664" lon="19.72585">
        <ele>68.301505</ele>
        <time>2022-05-14T09:33:15.083Z</time>
      </trkpt>
      <trkpt lat="41.45673" lon="19.72581">
        <ele>68.354325</ele>
        <time>2022-05-14T09:33:17.063Z</time>
      </trkpt>
      <trkpt lat="41.45683" lon="19.72577">
        <ele>68.41031</ele>
        <time>2022-05-14T09:33:19.068Z</time>
      </trkpt>
      <trkpt lat="41.45692" lon="19.72574">
        <ele>68.463743</ele>
        <time>2022-05-14T09:33:21.072Z</time>
      </trkpt>
      <trkpt lat="41.45701" lon="19.72571">
        <ele>68.517176</ele>
        <time>2022-05-14T09:33:23.057Z</time>
      </trkpt>
      <trkpt lat="41.4571" lon="19.72567">
        <ele>68.571636</ele>
        <time>2022-05-14T09:33:25.071Z</time>
      </trkpt>
      <trkpt lat="41.45719" lon="19.72563">
        <ele>68.625549</ele>
        <time>2022-05-14T09:33:27.065Z</time>
      </trkpt>
      <trkpt lat="41.45728" lon="19.7256">
        <ele>68.657882</ele>
        <time>2022-05-14T09:33:29.077Z</time>
      </trkpt>
      <trkpt lat="41.45737" lon="19.72556">
        <ele>68.681785</ele>
        <time>2022-05-14T09:33:31.086Z</time>
      </trkpt>
      <trkpt lat="41.45747" lon="19.72552">
        <ele>68.705927</ele>
        <time>2022-05-14T09:33:33.070Z</time>
      </trkpt>
      <trkpt lat="41.45755" lon="19.72549">
        <ele>68.728875</ele>
        <time>2022-05-14T09:33:35.107Z</time>
      </trkpt>
      <trkpt lat="41.45764" lon="19.72545">
        <ele>68.752593</ele>
        <time>2022-05-14T09:33:37.095Z</time>
      </trkpt>
      <trkpt lat="41.45774" lon="19.72542">
        <ele>68.776974</ele>
        <time>2022-05-14T09:33:39.069Z</time>
      </trkpt>
      <trkpt lat="41.45783" lon="19.72538">
        <ele>68.801207</ele>
        <time>2022-05-14T09:33:41.070Z</time>
      </trkpt>
      <trkpt lat="41.45793" lon="19.72535">
        <ele>68.825729</ele>
        <time>2022-05-14T09:33:43.056Z</time>
      </trkpt>
      <trkpt lat="41.45803" lon="19.72531">
        <ele>68.851022</ele>
        <time>2022-05-14T09:33:45.083Z</time>
      </trkpt>
      <trkpt lat="41.45812" lon="19.72528">
        <ele>68.875353</ele>
        <time>2022-05-14T09:33:47.068Z</time>
      </trkpt>
      <trkpt lat="41.45821" lon="19.72524">
        <ele>68.899256</ele>
        <time>2022-05-14T09:33:49.107Z</time>
      </trkpt>
      <trkpt lat="41.4583" lon="19.72521">
        <ele>68.922973</ele>
        <time>2022-05-14T09:33:51.097Z</time>
      </trkpt>
      <trkpt lat="41.45839" lon="19.72517">
        <ele>68.946984</ele>
        <time>2022-05-14T09:33:53.062Z</time>
      </trkpt>
      <trkpt lat="41.45848" lon="19.72513">
        <ele>68.970519</ele>
        <time>2022-05-14T09:33:55.066Z</time>
      </trkpt>
      <trkpt lat="41.45857" lon="19.72509">
        <ele>68.993891</ele>
        <time>2022-05-14T09:33:57.075Z</time>
      </trkpt>
      <trkpt lat="41.45866" lon="19.72506">
        <ele>69.016951</ele>
        <time>2022-05-14T09:33:59.070Z</time>
      </trkpt>
      <trkpt lat="41.45875" lon="19.72502">
        <ele>69.040723</ele>
        <time>2022-05-14T09:34:01.044Z</time>
      </trkpt>
      <trkpt lat="41.45884" lon="19.72498">
        <ele>69.064078</ele>
        <time>2022-05-14T09:34:03.077Z</time>
      </trkpt>
      <trkpt lat="41.45893" lon="19.72494">
        <ele>69.087613</ele>
        <time>2022-05-14T09:34:05.074Z</time>
      </trkpt>
      <trkpt lat="41.45902" lon="19.7249">
        <ele>69.090441</ele>
        <time>2022-05-14T09:34:07.068Z</time>
      </trkpt>
      <trkpt lat="41.45911" lon="19.72487">
        <ele>69.092949</ele>
        <time>2022-05-14T09:34:09.072Z</time>
      </trkpt>
      <trkpt lat="41.4592" lon="19.72483">
        <ele>69.09539</ele>
        <time>2022-05-14T09:34:11.078Z</time>
      </trkpt>
      <trkpt lat="41.45929" lon="19.72479">
        <ele>69.097835</ele>
        <time>2022-05-14T09:34:13.105Z</time>
      </trkpt>
      <trkpt lat="41.45938" lon="19.72476">
        <ele>69.100276</ele>
        <time>2022-05-14T09:34:15.101Z</time>
      </trkpt>
      <trkpt lat="41.45947" lon="19.72472">
        <ele>69.102661</ele>
        <time>2022-05-14T09:34:17.067Z</time>
      </trkpt>
      <trkpt lat="41.45956" lon="19.72468">
        <ele>69.105163</ele>
        <time>2022-05-14T09:34:19.068Z</time>
      </trkpt>
      <trkpt lat="41.45965" lon="19.72465">
        <ele>69.107669</ele>
        <time>2022-05-14T09:34:21.074Z</time>
      </trkpt>
      <trkpt lat="41.45974" lon="19.72462">
        <ele>69.110211</ele>
        <time>2022-05-14T09:34:23.062Z</time>
      </trkpt>
      <trkpt lat="41.45983" lon="19.72458">
        <ele>69.112714</ele>
        <time>2022-05-14T09:34:25.051Z</time>
      </trkpt>
      <trkpt lat="41.45993" lon="19.72454">
        <ele>69.11523</ele>
        <time>2022-05-14T09:34:27.057Z</time>
      </trkpt>
      <trkpt lat="41.46002" lon="19.72451">
        <ele>69.117762</ele>
        <time>2022-05-14T09:34:29.080Z</time>
      </trkpt>
      <trkpt lat="41.46011" lon="19.72448">
        <ele>69.120304</ele>
        <time>2022-05-14T09:34:31.072Z</time>
      </trkpt>
      <trkpt lat="41.4602" lon="19.72444">
        <ele>69.122781</ele>
        <time>2022-05-14T09:34:33.081Z</time>
      </trkpt>
      <trkpt lat="41.4603" lon="19.72441">
        <ele>69.125318</ele>
        <time>2022-05-14T09:34:35.055Z</time>
      </trkpt>
      <trkpt lat="41.46039" lon="19.72437">
        <ele>69.127931</ele>
        <time>2022-05-14T09:34:37.092Z</time>
      </trkpt>
      <trkpt lat="41.46049" lon="19.72433">
        <ele>69.13052</ele>
        <time>2022-05-14T09:34:39.083Z</time>
      </trkpt>
      <trkpt lat="41.46058" lon="19.72429">
        <ele>69.133028</ele>
        <time>2022-05-14T09:34:41.095Z</time>
      </trkpt>
      <trkpt lat="41.46067" lon="19.72425">
        <ele>69.129573</ele>
        <time>2022-05-14T09:34:43.060Z</time>
      </trkpt>
      <trkpt lat="41.46075" lon="19.72422">
        <ele>69.074463</ele>
        <time>2022-05-14T09:34:45.066Z</time>
      </trkpt>
      <trkpt lat="41.46085" lon="19.72418">
        <ele>69.016172</ele>
        <time>2022-05-14T09:34:47.114Z</time>
      </trkpt>
      <trkpt lat="41.46094" lon="19.72414">
        <ele>68.958077</ele>
        <time>2022-05-14T09:34:49.076Z</time>
      </trkpt>
      <trkpt lat="41.46104" lon="19.72411">
        <ele>68.89794</ele>
        <time>2022-05-14T09:34:51.055Z</time>
      </trkpt>
      <trkpt lat="41.46114" lon="19.72406">
        <ele>68.83418</ele>
        <time>2022-05-14T09:34:53.087Z</time>
      </trkpt>
      <trkpt lat="41.46124" lon="19.72403">
        <ele>68.771501</ele>
        <time>2022-05-14T09:34:55.070Z</time>
      </trkpt>
      <trkpt lat="41.46134" lon="19.72399">
        <ele>68.709717</ele>
        <time>2022-05-14T09:34:57.065Z</time>
      </trkpt>
      <trkpt lat="41.46144" lon="19.72395">
        <ele>68.648544</ele>
        <time>2022-05-14T09:34:59.070Z</time>
      </trkpt>
      <trkpt lat="41.46154" lon="19.72392">
        <ele>68.588407</ele>
        <time>2022-05-14T09:35:01.076Z</time>
      </trkpt>
      <trkpt lat="41.46163" lon="19.72389">
        <ele>68.529515</ele>
        <time>2022-05-14T09:35:03.058Z</time>
      </trkpt>
      <trkpt lat="41.46172" lon="19.72385">
        <ele>68.472373</ele>
        <time>2022-05-14T09:35:05.076Z</time>
      </trkpt>
      <trkpt lat="41.46182" lon="19.72382">
        <ele>68.415471</ele>
        <time>2022-05-14T09:35:07.082Z</time>
      </trkpt>
      <trkpt lat="41.46191" lon="19.72379">
        <ele>68.360169</ele>
        <time>2022-05-14T09:35:09.093Z</time>
      </trkpt>
      <trkpt lat="41.462" lon="19.72376">
        <ele>68.302803</ele>
        <time>2022-05-14T09:35:11.062Z</time>
      </trkpt>
      <trkpt lat="41.46209" lon="19.72373">
        <ele>68.246126</ele>
        <time>2022-05-14T09:35:13.068Z</time>
      </trkpt>
      <trkpt lat="41.46218" lon="19.72369">
        <ele>68.189224</ele>
        <time>2022-05-14T09:35:15.072Z</time>
      </trkpt>
      <trkpt lat="41.46228" lon="19.72366">
        <ele>68.131389</ele>
        <time>2022-05-14T09:35:17.073Z</time>
      </trkpt>
      <trkpt lat="41.46237" lon="19.72363">
        <ele>68.074023</ele>
        <time>2022-05-14T09:35:19.116Z</time>
      </trkpt>
      <trkpt lat="41.46246" lon="19.7236">
        <ele>68.049177</ele>
        <time>2022-05-14T09:35:21.068Z</time>
      </trkpt>
      <trkpt lat="41.46256" lon="19.72356">
        <ele>68.033546</ele>
        <time>2022-05-14T09:35:23.050Z</time>
      </trkpt>
      <trkpt lat="41.46265" lon="19.72353">
        <ele>68.01776</ele>
        <time>2022-05-14T09:35:25.086Z</time>
      </trkpt>
      <trkpt lat="41.46275" lon="19.7235">
        <ele>68.002248</ele>
        <time>2022-05-14T09:35:27.077Z</time>
      </trkpt>
      <trkpt lat="41.46284" lon="19.72346">
        <ele>67.986772</ele>
        <time>2022-05-14T09:35:29.071Z</time>
      </trkpt>
      <trkpt lat="41.46293" lon="19.72343">
        <ele>67.971637</ele>
        <time>2022-05-14T09:35:31.096Z</time>
      </trkpt>
      <trkpt lat="41.46302" lon="19.7234">
        <ele>67.956284</ele>
        <time>2022-05-14T09:35:33.059Z</time>
      </trkpt>
      <trkpt lat="41.46312" lon="19.72336">
        <ele>67.940621</ele>
        <time>2022-05-14T09:35:35.086Z</time>
      </trkpt>
      <trkpt lat="41.46321" lon="19.72333">
        <ele>67.924925</ele>
        <time>2022-05-14T09:35:37.152Z</time>
      </trkpt>
      <trkpt lat="41.4633" lon="19.72329">
        <ele>67.909538</ele>
        <time>2022-05-14T09:35:39.068Z</time>
      </trkpt>
      <trkpt lat="41.4634" lon="19.72326">
        <ele>67.893907</ele>
        <time>2022-05-14T09:35:41.069Z</time>
      </trkpt>
      <trkpt lat="41.46349" lon="19.72322">
        <ele>67.878708</ele>
        <time>2022-05-14T09:35:43.068Z</time>
      </trkpt>
      <trkpt lat="41.46358" lon="19.72319">
        <ele>67.863635</ele>
        <time>2022-05-14T09:35:45.075Z</time>
      </trkpt>
      <trkpt lat="41.46367" lon="19.72315">
        <ele>67.848401</ele>
        <time>2022-05-14T09:35:47.103Z</time>
      </trkpt>
      <trkpt lat="41.46376" lon="19.72312">
        <ele>67.833483</ele>
        <time>2022-05-14T09:35:49.061Z</time>
      </trkpt>
      <trkpt lat="41.46385" lon="19.72309">
        <ele>67.818194</ele>
        <time>2022-05-14T09:35:51.071Z</time>
      </trkpt>
      <trkpt lat="41.46394" lon="19.72306">
        <ele>67.80349</ele>
        <time>2022-05-14T09:35:53.070Z</time>
      </trkpt>
      <trkpt lat="41.46403" lon="19.72302">
        <ele>67.788387</ele>
        <time>2022-05-14T09:35:55.078Z</time>
      </trkpt>
      <trkpt lat="41.46412" lon="19.72299">
        <ele>67.773407</ele>
        <time>2022-05-14T09:35:57.058Z</time>
      </trkpt>
      <trkpt lat="41.46425" lon="19.72295">
        <ele>67.65307</ele>
        <time>2022-05-14T09:36:00.072Z</time>
      </trkpt>
      <trkpt lat="41.46437" lon="19.7229">
        <ele>67.528382</ele>
        <time>2022-05-14T09:36:03.074Z</time>
      </trkpt>
      <trkpt lat="41.46449" lon="19.72286">
        <ele>67.404267</ele>
        <time>2022-05-14T09:36:06.066Z</time>
      </trkpt>
      <trkpt lat="41.46462" lon="19.72281">
        <ele>67.273596</ele>
        <time>2022-05-14T09:36:09.087Z</time>
      </trkpt>
      <trkpt lat="41.46472" lon="19.72278">
        <ele>67.179756</ele>
        <time>2022-05-14T09:36:11.059Z</time>
      </trkpt>
      <trkpt lat="41.46482" lon="19.72274">
        <ele>67.08176</ele>
        <time>2022-05-14T09:36:13.066Z</time>
      </trkpt>
      <trkpt lat="41.46491" lon="19.72271">
        <ele>66.986803</ele>
        <time>2022-05-14T09:36:15.064Z</time>
      </trkpt>
      <trkpt lat="41.46501" lon="19.72267">
        <ele>66.889013</ele>
        <time>2022-05-14T09:36:17.100Z</time>
      </trkpt>
      <trkpt lat="41.4651" lon="19.72263">
        <ele>66.792748</ele>
        <time>2022-05-14T09:36:19.068Z</time>
      </trkpt>
      <trkpt lat="41.4652" lon="19.7226">
        <ele>66.700023</ele>
        <time>2022-05-14T09:36:21.082Z</time>
      </trkpt>
      <trkpt lat="41.46529" lon="19.72257">
        <ele>66.607077</ele>
        <time>2022-05-14T09:36:23.103Z</time>
      </trkpt>
      <trkpt lat="41.46538" lon="19.72253">
        <ele>66.514925</ele>
        <time>2022-05-14T09:36:25.071Z</time>
      </trkpt>
      <trkpt lat="41.46547" lon="19.7225">
        <ele>66.427435</ele>
        <time>2022-05-14T09:36:27.081Z</time>
      </trkpt>
      <trkpt lat="41.46556" lon="19.72247">
        <ele>66.339207</ele>
        <time>2022-05-14T09:36:29.069Z</time>
      </trkpt>
      <trkpt lat="41.46564" lon="19.72243">
        <ele>66.249658</ele>
        <time>2022-05-14T09:36:31.062Z</time>
      </trkpt>
      <trkpt lat="41.46573" lon="19.7224">
        <ele>66.159373</ele>
        <time>2022-05-14T09:36:33.107Z</time>
      </trkpt>
      <trkpt lat="41.46582" lon="19.72237">
        <ele>66.071883</ele>
        <time>2022-05-14T09:36:35.077Z</time>
      </trkpt>
      <trkpt lat="41.46591" lon="19.72234">
        <ele>66.089863</ele>
        <time>2022-05-14T09:36:37.077Z</time>
      </trkpt>
      <trkpt lat="41.466" lon="19.7223">
        <ele>66.194056</ele>
        <time>2022-05-14T09:36:39.123Z</time>
      </trkpt>
      <trkpt lat="41.46613" lon="19.72225">
        <ele>66.347108</ele>
        <time>2022-05-14T09:36:42.070Z</time>
      </trkpt>
      <trkpt lat="41.46622" lon="19.72222">
        <ele>66.452153</ele>
        <time>2022-05-14T09:36:44.087Z</time>
      </trkpt>
      <trkpt lat="41.46631" lon="19.72219">
        <ele>66.559616</ele>
        <time>2022-05-14T09:36:46.091Z</time>
      </trkpt>
      <trkpt lat="41.4664" lon="19.72216">
        <ele>66.66357</ele>
        <time>2022-05-14T09:36:48.071Z</time>
      </trkpt>
      <trkpt lat="41.46649" lon="19.72213">
        <ele>66.766949</ele>
        <time>2022-05-14T09:36:50.072Z</time>
      </trkpt>
      <trkpt lat="41.46657" lon="19.72211">
        <ele>66.869601</ele>
        <time>2022-05-14T09:36:52.085Z</time>
      </trkpt>
      <trkpt lat="41.4667" lon="19.72205">
        <ele>67.014645</ele>
        <time>2022-05-14T09:36:55.086Z</time>
      </trkpt>
      <trkpt lat="41.46682" lon="19.722">
        <ele>67.160763</ele>
        <time>2022-05-14T09:36:58.060Z</time>
      </trkpt>
      <trkpt lat="41.46694" lon="19.72194">
        <ele>67.305108</ele>
        <time>2022-05-14T09:37:01.069Z</time>
      </trkpt>
      <trkpt lat="41.46707" lon="19.72189">
        <ele>67.456188</ele>
        <time>2022-05-14T09:37:04.088Z</time>
      </trkpt>
      <trkpt lat="41.46715" lon="19.72186">
        <ele>67.559752</ele>
        <time>2022-05-14T09:37:06.065Z</time>
      </trkpt>
      <trkpt lat="41.46728" lon="19.72181">
        <ele>67.704566</ele>
        <time>2022-05-14T09:37:09.073Z</time>
      </trkpt>
      <trkpt lat="41.46737" lon="19.72177">
        <ele>67.81328</ele>
        <time>2022-05-14T09:37:11.072Z</time>
      </trkpt>
      <trkpt lat="41.46746" lon="19.72174">
        <ele>67.91854</ele>
        <time>2022-05-14T09:37:13.099Z</time>
      </trkpt>
      <trkpt lat="41.46755" lon="19.72171">
        <ele>68.024064</ele>
        <time>2022-05-14T09:37:15.055Z</time>
      </trkpt>
      <trkpt lat="41.46764" lon="19.72167">
        <ele>67.999161</ele>
        <time>2022-05-14T09:37:17.058Z</time>
      </trkpt>
      <trkpt lat="41.46773" lon="19.72163">
        <ele>67.8537</ele>
        <time>2022-05-14T09:37:19.126Z</time>
      </trkpt>
      <trkpt lat="41.46782" lon="19.7216">
        <ele>67.708733</ele>
        <time>2022-05-14T09:37:21.061Z</time>
      </trkpt>
      <trkpt lat="41.46792" lon="19.72156">
        <ele>67.562354</ele>
        <time>2022-05-14T09:37:23.061Z</time>
      </trkpt>
      <trkpt lat="41.46801" lon="19.72152">
        <ele>67.416594</ele>
        <time>2022-05-14T09:37:25.065Z</time>
      </trkpt>
      <trkpt lat="41.46811" lon="19.72149">
        <ele>67.267993</ele>
        <time>2022-05-14T09:37:27.072Z</time>
      </trkpt>
      <trkpt lat="41.46821" lon="19.72145">
        <ele>67.114223</ele>
        <time>2022-05-14T09:37:29.073Z</time>
      </trkpt>
      <trkpt lat="41.46831" lon="19.72141">
        <ele>66.962481</ele>
        <time>2022-05-14T09:37:31.094Z</time>
      </trkpt>
      <trkpt lat="41.46841" lon="19.72138">
        <ele>66.813029</ele>
        <time>2022-05-14T09:37:33.067Z</time>
      </trkpt>
      <trkpt lat="41.46851" lon="19.72134">
        <ele>66.652456</ele>
        <time>2022-05-14T09:37:35.065Z</time>
      </trkpt>
      <trkpt lat="41.46862" lon="19.7213">
        <ele>66.491882</ele>
        <time>2022-05-14T09:37:37.066Z</time>
      </trkpt>
      <trkpt lat="41.46872" lon="19.72126">
        <ele>66.336158</ele>
        <time>2022-05-14T09:37:39.070Z</time>
      </trkpt>
      <trkpt lat="41.46882" lon="19.72122">
        <ele>66.18109</ele>
        <time>2022-05-14T09:37:41.107Z</time>
      </trkpt>
      <trkpt lat="41.46893" lon="19.72118">
        <ele>66.019302</ele>
        <time>2022-05-14T09:37:43.074Z</time>
      </trkpt>
      <trkpt lat="41.46903" lon="19.72114">
        <ele>65.86066</ele>
        <time>2022-05-14T09:37:45.070Z</time>
      </trkpt>
      <trkpt lat="41.46913" lon="19.7211">
        <ele>65.703431</ele>
        <time>2022-05-14T09:37:47.064Z</time>
      </trkpt>
      <trkpt lat="41.46923" lon="19.72106">
        <ele>65.550761</ele>
        <time>2022-05-14T09:37:49.064Z</time>
      </trkpt>
      <trkpt lat="41.46933" lon="19.72101">
        <ele>65.405305</ele>
        <time>2022-05-14T09:37:51.069Z</time>
      </trkpt>
      <trkpt lat="41.46943" lon="19.72097">
        <ele>65.333353</ele>
        <time>2022-05-14T09:37:53.079Z</time>
      </trkpt>
      <trkpt lat="41.46953" lon="19.72093">
        <ele>65.260892</ele>
        <time>2022-05-14T09:37:55.055Z</time>
      </trkpt>
      <trkpt lat="41.46964" lon="19.72089">
        <ele>65.18535</ele>
        <time>2022-05-14T09:37:57.053Z</time>
      </trkpt>
      <trkpt lat="41.46975" lon="19.72084">
        <ele>65.107377</ele>
        <time>2022-05-14T09:37:59.063Z</time>
      </trkpt>
      <trkpt lat="41.46985" lon="19.7208">
        <ele>65.03279</ele>
        <time>2022-05-14T09:38:01.071Z</time>
      </trkpt>
      <trkpt lat="41.46995" lon="19.72076">
        <ele>64.959813</ele>
        <time>2022-05-14T09:38:03.104Z</time>
      </trkpt>
      <trkpt lat="41.47005" lon="19.72072">
        <ele>64.887861</ele>
        <time>2022-05-14T09:38:05.053Z</time>
      </trkpt>
      <trkpt lat="41.47016" lon="19.72068">
        <ele>64.814443</ele>
        <time>2022-05-14T09:38:07.067Z</time>
      </trkpt>
      <trkpt lat="41.47026" lon="19.72064">
        <ele>64.741322</ele>
        <time>2022-05-14T09:38:09.108Z</time>
      </trkpt>
      <trkpt lat="41.47036" lon="19.7206">
        <ele>64.667246</ele>
        <time>2022-05-14T09:38:11.118Z</time>
      </trkpt>
      <trkpt lat="41.47046" lon="19.72056">
        <ele>64.593978</ele>
        <time>2022-05-14T09:38:13.069Z</time>
      </trkpt>
      <trkpt lat="41.47056" lon="19.72051">
        <ele>64.52355</ele>
        <time>2022-05-14T09:38:15.055Z</time>
      </trkpt>
      <trkpt lat="41.47064" lon="19.72045">
        <ele>64.456429</ele>
        <time>2022-05-14T09:38:17.055Z</time>
      </trkpt>
      <trkpt lat="41.47074" lon="19.72039">
        <ele>64.386845</ele>
        <time>2022-05-14T09:38:19.079Z</time>
      </trkpt>
      <trkpt lat="41.47082" lon="19.72033">
        <ele>64.318723</ele>
        <time>2022-05-14T09:38:21.066Z</time>
      </trkpt>
      <trkpt lat="41.47091" lon="19.72027">
        <ele>64.252216</ele>
        <time>2022-05-14T09:38:23.073Z</time>
      </trkpt>
      <trkpt lat="41.471" lon="19.72021">
        <ele>64.184622</ele>
        <time>2022-05-14T09:38:25.084Z</time>
      </trkpt>
      <trkpt lat="41.47108" lon="19.72015">
        <ele>64.228207</ele>
        <time>2022-05-14T09:38:27.074Z</time>
      </trkpt>
      <trkpt lat="41.4712" lon="19.72007">
        <ele>64.29948</ele>
        <time>2022-05-14T09:38:30.064Z</time>
      </trkpt>
      <trkpt lat="41.47128" lon="19.72001">
        <ele>64.350281</ele>
        <time>2022-05-14T09:38:32.073Z</time>
      </trkpt>
      <trkpt lat="41.47137" lon="19.71995">
        <ele>64.402393</ele>
        <time>2022-05-14T09:38:34.076Z</time>
      </trkpt>
      <trkpt lat="41.47146" lon="19.71988">
        <ele>64.457039</ele>
        <time>2022-05-14T09:38:36.073Z</time>
      </trkpt>
      <trkpt lat="41.47155" lon="19.71981">
        <ele>64.512673</ele>
        <time>2022-05-14T09:38:38.077Z</time>
      </trkpt>
      <trkpt lat="41.47164" lon="19.71975">
        <ele>64.567129</ele>
        <time>2022-05-14T09:38:40.103Z</time>
      </trkpt>
      <trkpt lat="41.47173" lon="19.71968">
        <ele>64.620082</ele>
        <time>2022-05-14T09:38:42.056Z</time>
      </trkpt>
      <trkpt lat="41.47181" lon="19.71962">
        <ele>64.673142</ele>
        <time>2022-05-14T09:38:44.098Z</time>
      </trkpt>
      <trkpt lat="41.4719" lon="19.71956">
        <ele>64.726752</ele>
        <time>2022-05-14T09:38:46.079Z</time>
      </trkpt>
      <trkpt lat="41.47199" lon="19.7195">
        <ele>64.779993</ele>
        <time>2022-05-14T09:38:48.060Z</time>
      </trkpt>
      <trkpt lat="41.47208" lon="19.71944">
        <ele>64.834363</ele>
        <time>2022-05-14T09:38:50.061Z</time>
      </trkpt>
      <trkpt lat="41.47217" lon="19.71937">
        <ele>64.887884</ele>
        <time>2022-05-14T09:38:52.071Z</time>
      </trkpt>
      <trkpt lat="41.47226" lon="19.71931">
        <ele>64.939355</ele>
        <time>2022-05-14T09:38:54.092Z</time>
      </trkpt>
      <trkpt lat="41.47235" lon="19.71925">
        <ele>64.993436</ele>
        <time>2022-05-14T09:38:56.056Z</time>
      </trkpt>
      <trkpt lat="41.47244" lon="19.71919">
        <ele>65.04662</ele>
        <time>2022-05-14T09:38:58.083Z</time>
      </trkpt>
      <trkpt lat="41.47252" lon="19.71913">
        <ele>65.096112</ele>
        <time>2022-05-14T09:39:00.076Z</time>
      </trkpt>
      <trkpt lat="41.4726" lon="19.71908">
        <ele>65.159506</ele>
        <time>2022-05-14T09:39:02.067Z</time>
      </trkpt>
      <trkpt lat="41.4727" lon="19.71904">
        <ele>65.297666</ele>
        <time>2022-05-14T09:39:04.070Z</time>
      </trkpt>
      <trkpt lat="41.47279" lon="19.71902">
        <ele>65.43433</ele>
        <time>2022-05-14T09:39:06.052Z</time>
      </trkpt>
      <trkpt lat="41.47289" lon="19.71899">
        <ele>65.5747</ele>
        <time>2022-05-14T09:39:08.073Z</time>
      </trkpt>
      <trkpt lat="41.47299" lon="19.71896">
        <ele>65.717817</ele>
        <time>2022-05-14T09:39:10.075Z</time>
      </trkpt>
      <trkpt lat="41.47309" lon="19.71893">
        <ele>65.864159</ele>
        <time>2022-05-14T09:39:12.072Z</time>
      </trkpt>
      <trkpt lat="41.47319" lon="19.7189">
        <ele>66.005669</ele>
        <time>2022-05-14T09:39:14.092Z</time>
      </trkpt>
      <trkpt lat="41.47328" lon="19.71887">
        <ele>66.145689</ele>
        <time>2022-05-14T09:39:16.100Z</time>
      </trkpt>
      <trkpt lat="41.47338" lon="19.71883">
        <ele>66.28655</ele>
        <time>2022-05-14T09:39:18.061Z</time>
      </trkpt>
      <trkpt lat="41.47348" lon="19.7188">
        <ele>66.429035</ele>
        <time>2022-05-14T09:39:20.078Z</time>
      </trkpt>
      <trkpt lat="41.47358" lon="19.71878">
        <ele>66.571076</ele>
        <time>2022-05-14T09:39:22.066Z</time>
      </trkpt>
      <trkpt lat="41.47368" lon="19.71874">
        <ele>66.712195</ele>
        <time>2022-05-14T09:39:24.058Z</time>
      </trkpt>
      <trkpt lat="41.47378" lon="19.71871">
        <ele>66.857837</ele>
        <time>2022-05-14T09:39:26.071Z</time>
      </trkpt>
      <trkpt lat="41.47388" lon="19.71868">
        <ele>67.00385</ele>
        <time>2022-05-14T09:39:28.054Z</time>
      </trkpt>
      <trkpt lat="41.47398" lon="19.71865">
        <ele>67.153849</ele>
        <time>2022-05-14T09:39:30.065Z</time>
      </trkpt>
      <trkpt lat="41.47409" lon="19.71862">
        <ele>67.30421</ele>
        <time>2022-05-14T09:39:32.062Z</time>
      </trkpt>
      <trkpt lat="41.47419" lon="19.71859">
        <ele>67.459944</ele>
        <time>2022-05-14T09:39:34.070Z</time>
      </trkpt>
      <trkpt lat="41.4743" lon="19.71856">
        <ele>67.609511</ele>
        <time>2022-05-14T09:39:36.056Z</time>
      </trkpt>
      <trkpt lat="41.4744" lon="19.71853">
        <ele>67.527734</ele>
        <time>2022-05-14T09:39:38.064Z</time>
      </trkpt>
      <trkpt lat="41.4745" lon="19.71851">
        <ele>67.25303</ele>
        <time>2022-05-14T09:39:40.089Z</time>
      </trkpt>
      <trkpt lat="41.4746" lon="19.71848">
        <ele>66.99376</ele>
        <time>2022-05-14T09:39:42.068Z</time>
      </trkpt>
      <trkpt lat="41.47469" lon="19.71846">
        <ele>66.735585</ele>
        <time>2022-05-14T09:39:44.071Z</time>
      </trkpt>
      <trkpt lat="41.47479" lon="19.71844">
        <ele>66.476074</ele>
        <time>2022-05-14T09:39:46.091Z</time>
      </trkpt>
      <trkpt lat="41.47489" lon="19.71842">
        <ele>66.221453</ele>
        <time>2022-05-14T09:39:48.049Z</time>
      </trkpt>
      <trkpt lat="41.47498" lon="19.71839">
        <ele>65.967706</ele>
        <time>2022-05-14T09:39:50.084Z</time>
      </trkpt>
      <trkpt lat="41.47508" lon="19.71837">
        <ele>65.70918</ele>
        <time>2022-05-14T09:39:52.077Z</time>
      </trkpt>
      <trkpt lat="41.47517" lon="19.71835">
        <ele>65.455806</ele>
        <time>2022-05-14T09:39:54.066Z</time>
      </trkpt>
      <trkpt lat="41.47527" lon="19.71832">
        <ele>65.198706</ele>
        <time>2022-05-14T09:39:56.094Z</time>
      </trkpt>
      <trkpt lat="41.47537" lon="19.71829">
        <ele>64.939815</ele>
        <time>2022-05-14T09:39:58.069Z</time>
      </trkpt>
      <trkpt lat="41.47547" lon="19.71827">
        <ele>64.679392</ele>
        <time>2022-05-14T09:40:00.059Z</time>
      </trkpt>
      <trkpt lat="41.47556" lon="19.71825">
        <ele>64.422691</ele>
        <time>2022-05-14T09:40:02.063Z</time>
      </trkpt>
      <trkpt lat="41.47566" lon="19.71822">
        <ele>64.160461</ele>
        <time>2022-05-14T09:40:04.085Z</time>
      </trkpt>
      <trkpt lat="41.47575" lon="19.71818">
        <ele>63.902196</ele>
        <time>2022-05-14T09:40:06.063Z</time>
      </trkpt>
      <trkpt lat="41.47586" lon="19.71816">
        <ele>63.630777</ele>
        <time>2022-05-14T09:40:08.082Z</time>
      </trkpt>
      <trkpt lat="41.47596" lon="19.71814">
        <ele>63.367096</ele>
        <time>2022-05-14T09:40:10.087Z</time>
      </trkpt>
      <trkpt lat="41.47605" lon="19.71811">
        <ele>63.126191</ele>
        <time>2022-05-14T09:40:12.064Z</time>
      </trkpt>
      <trkpt lat="41.47618" lon="19.71807">
        <ele>63.026306</ele>
        <time>2022-05-14T09:40:15.053Z</time>
      </trkpt>
      <trkpt lat="41.47627" lon="19.71805">
        <ele>63.109029</ele>
        <time>2022-05-14T09:40:17.071Z</time>
      </trkpt>
      <trkpt lat="41.47636" lon="19.71803">
        <ele>63.192878</ele>
        <time>2022-05-14T09:40:19.104Z</time>
      </trkpt>
      <trkpt lat="41.47645" lon="19.71801">
        <ele>63.278389</ele>
        <time>2022-05-14T09:40:21.056Z</time>
      </trkpt>
      <trkpt lat="41.47655" lon="19.71798">
        <ele>63.362437</ele>
        <time>2022-05-14T09:40:23.076Z</time>
      </trkpt>
      <trkpt lat="41.47664" lon="19.71794">
        <ele>63.446108</ele>
        <time>2022-05-14T09:40:25.105Z</time>
      </trkpt>
      <trkpt lat="41.47673" lon="19.71792">
        <ele>63.529853</ele>
        <time>2022-05-14T09:40:27.060Z</time>
      </trkpt>
      <trkpt lat="41.47682" lon="19.71789">
        <ele>63.615077</ele>
        <time>2022-05-14T09:40:29.112Z</time>
      </trkpt>
      <trkpt lat="41.47691" lon="19.71786">
        <ele>63.699125</ele>
        <time>2022-05-14T09:40:31.059Z</time>
      </trkpt>
      <trkpt lat="41.477" lon="19.71784">
        <ele>63.783469</ele>
        <time>2022-05-14T09:40:33.049Z</time>
      </trkpt>
      <trkpt lat="41.4771" lon="19.71781">
        <ele>63.871016</ele>
        <time>2022-05-14T09:40:35.073Z</time>
      </trkpt>
      <trkpt lat="41.47719" lon="19.71778">
        <ele>63.95536</ele>
        <time>2022-05-14T09:40:37.082Z</time>
      </trkpt>
      <trkpt lat="41.47728" lon="19.71777">
        <ele>64.039686</ele>
        <time>2022-05-14T09:40:39.062Z</time>
      </trkpt>
      <trkpt lat="41.47738" lon="19.71774">
        <ele>64.126835</ele>
        <time>2022-05-14T09:40:41.048Z</time>
      </trkpt>
      <trkpt lat="41.47747" lon="19.71771">
        <ele>64.214234</ele>
        <time>2022-05-14T09:40:43.077Z</time>
      </trkpt>
      <trkpt lat="41.47757" lon="19.71767">
        <ele>64.301551</ele>
        <time>2022-05-14T09:40:45.116Z</time>
      </trkpt>
      <trkpt lat="41.47766" lon="19.71765">
        <ele>64.387197</ele>
        <time>2022-05-14T09:40:47.062Z</time>
      </trkpt>
      <trkpt lat="41.47775" lon="19.71763">
        <ele>64.473135</ele>
        <time>2022-05-14T09:40:49.063Z</time>
      </trkpt>
      <trkpt lat="41.47785" lon="19.7176">
        <ele>64.559657</ele>
        <time>2022-05-14T09:40:51.070Z</time>
      </trkpt>
      <trkpt lat="41.47793" lon="19.71756">
        <ele>64.553224</ele>
        <time>2022-05-14T09:40:53.094Z</time>
      </trkpt>
      <trkpt lat="41.47806" lon="19.71752">
        <ele>64.510915</ele>
        <time>2022-05-14T09:40:56.068Z</time>
      </trkpt>
      <trkpt lat="41.47815" lon="19.71751">
        <ele>64.481283</ele>
        <time>2022-05-14T09:40:58.086Z</time>
      </trkpt>
      <trkpt lat="41.47825" lon="19.71749">
        <ele>64.451397</ele>
        <time>2022-05-14T09:41:00.071Z</time>
      </trkpt>
      <trkpt lat="41.47833" lon="19.71746">
        <ele>64.422199</ele>
        <time>2022-05-14T09:41:02.076Z</time>
      </trkpt>
      <trkpt lat="41.47842" lon="19.71743">
        <ele>64.392671</ele>
        <time>2022-05-14T09:41:04.085Z</time>
      </trkpt>
      <trkpt lat="41.47852" lon="19.71741">
        <ele>64.361175</ele>
        <time>2022-05-14T09:41:06.070Z</time>
      </trkpt>
      <trkpt lat="41.47862" lon="19.71738">
        <ele>64.327793</ele>
        <time>2022-05-14T09:41:08.077Z</time>
      </trkpt>
      <trkpt lat="41.47873" lon="19.71736">
        <ele>64.293634</ele>
        <time>2022-05-14T09:41:10.068Z</time>
      </trkpt>
      <trkpt lat="41.47882" lon="19.7174">
        <ele>64.261834</ele>
        <time>2022-05-14T09:41:13.068Z</time>
      </trkpt>
      <trkpt lat="41.47887" lon="19.71755">
        <ele>64.22396</ele>
        <time>2022-05-14T09:41:16.057Z</time>
      </trkpt>
      <trkpt lat="41.47891" lon="19.71766">
        <ele>64.194426</ele>
        <time>2022-05-14T09:41:18.132Z</time>
      </trkpt>
      <trkpt lat="41.47896" lon="19.71782">
        <ele>64.151719</ele>
        <time>2022-05-14T09:41:21.079Z</time>
      </trkpt>
      <trkpt lat="41.47901" lon="19.71799">
        <ele>64.108464</ele>
        <time>2022-05-14T09:41:24.088Z</time>
      </trkpt>
      <trkpt lat="41.47904" lon="19.7181">
        <ele>64.079244</ele>
        <time>2022-05-14T09:41:26.101Z</time>
      </trkpt>
      <trkpt lat="41.47908" lon="19.71821">
        <ele>64.049584</ele>
        <time>2022-05-14T09:41:28.119Z</time>
      </trkpt>
      <trkpt lat="41.47912" lon="19.71833">
        <ele>64.020619</ele>
        <time>2022-05-14T09:41:30.082Z</time>
      </trkpt>
      <trkpt lat="41.47916" lon="19.71844">
        <ele>64.017473</ele>
        <time>2022-05-14T09:41:32.063Z</time>
      </trkpt>
      <trkpt lat="41.4792" lon="19.71855">
        <ele>64.075779</ele>
        <time>2022-05-14T09:41:34.071Z</time>
      </trkpt>
      <trkpt lat="41.47922" lon="19.71867">
        <ele>64.131935</ele>
        <time>2022-05-14T09:41:36.134Z</time>
      </trkpt>
      <trkpt lat="41.47923" lon="19.71884">
        <ele>64.212124</ele>
        <time>2022-05-14T09:41:39.105Z</time>
      </trkpt>
      <trkpt lat="41.47922" lon="19.71902">
        <ele>64.292682</ele>
        <time>2022-05-14T09:41:42.086Z</time>
      </trkpt>
      <trkpt lat="41.47922" lon="19.71914">
        <ele>64.34867</ele>
        <time>2022-05-14T09:41:44.092Z</time>
      </trkpt>
      <trkpt lat="41.47919" lon="19.71931">
        <ele>64.430354</ele>
        <time>2022-05-14T09:41:47.073Z</time>
      </trkpt>
      <trkpt lat="41.47917" lon="19.71948">
        <ele>64.511941</ele>
        <time>2022-05-14T09:41:50.086Z</time>
      </trkpt>
      <trkpt lat="41.47915" lon="19.71965">
        <ele>64.594088</ele>
        <time>2022-05-14T09:41:53.062Z</time>
      </trkpt>
      <trkpt lat="41.47913" lon="19.71982">
        <ele>64.671191</ele>
        <time>2022-05-14T09:41:56.124Z</time>
      </trkpt>
      <trkpt lat="41.47911" lon="19.71998">
        <ele>64.747165</ele>
        <time>2022-05-14T09:41:59.085Z</time>
      </trkpt>
      <trkpt lat="41.4791" lon="19.7201">
        <ele>64.805294</ele>
        <time>2022-05-14T09:42:01.085Z</time>
      </trkpt>
      <trkpt lat="41.47909" lon="19.72022">
        <ele>64.861678</ele>
        <time>2022-05-14T09:42:03.079Z</time>
      </trkpt>
      <trkpt lat="41.47908" lon="19.7204">
        <ele>64.944359</ele>
        <time>2022-05-14T09:42:06.135Z</time>
      </trkpt>
      <trkpt lat="41.4791" lon="19.72052">
        <ele>65.001332</ele>
        <time>2022-05-14T09:42:08.046Z</time>
      </trkpt>
      <trkpt lat="41.4792" lon="19.72061">
        <ele>65.077566</ele>
        <time>2022-05-14T09:42:12.115Z</time>
      </trkpt>
      <trkpt lat="41.47932" lon="19.7207">
        <ele>65.346316</ele>
        <time>2022-05-14T09:42:15.075Z</time>
      </trkpt>
      <trkpt lat="41.4794" lon="19.72078">
        <ele>65.688001</ele>
        <time>2022-05-14T09:42:17.079Z</time>
      </trkpt>
      <trkpt lat="41.47948" lon="19.72084">
        <ele>65.998891</ele>
        <time>2022-05-14T09:42:19.106Z</time>
      </trkpt>
      <trkpt lat="41.47956" lon="19.72091">
        <ele>66.298831</ele>
        <time>2022-05-14T09:42:21.060Z</time>
      </trkpt>
      <trkpt lat="41.47964" lon="19.72097">
        <ele>66.609428</ele>
        <time>2022-05-14T09:42:23.071Z</time>
      </trkpt>
      <trkpt lat="41.47976" lon="19.72106">
        <ele>67.044168</ele>
        <time>2022-05-14T09:42:26.055Z</time>
      </trkpt>
      <trkpt lat="41.47984" lon="19.72112">
        <ele>67.343858</ele>
        <time>2022-05-14T09:42:28.070Z</time>
      </trkpt>
      <trkpt lat="41.47995" lon="19.72121">
        <ele>67.781135</ele>
        <time>2022-05-14T09:42:31.069Z</time>
      </trkpt>
      <trkpt lat="41.48006" lon="19.72128">
        <ele>68.17222</ele>
        <time>2022-05-14T09:42:34.061Z</time>
      </trkpt>
      <trkpt lat="41.48016" lon="19.72136">
        <ele>68.556226</ele>
        <time>2022-05-14T09:42:37.085Z</time>
      </trkpt>
      <trkpt lat="41.48026" lon="19.72144">
        <ele>68.917015</ele>
        <time>2022-05-14T09:42:40.074Z</time>
      </trkpt>
      <trkpt lat="41.48035" lon="19.72152">
        <ele>69.280774</ele>
        <time>2022-05-14T09:42:43.082Z</time>
      </trkpt>
      <trkpt lat="41.48046" lon="19.7216">
        <ele>69.674862</ele>
        <time>2022-05-14T09:42:46.052Z</time>
      </trkpt>
      <trkpt lat="41.48054" lon="19.72166">
        <ele>70.004033</ele>
        <time>2022-05-14T09:42:49.058Z</time>
      </trkpt>
      <trkpt lat="41.48062" lon="19.72174">
        <ele>70.326677</ele>
        <time>2022-05-14T09:42:52.065Z</time>
      </trkpt>
      <trkpt lat="41.48071" lon="19.7218">
        <ele>70.636336</ele>
        <time>2022-05-14T09:42:55.066Z</time>
      </trkpt>
      <trkpt lat="41.48078" lon="19.72186">
        <ele>70.933457</ele>
        <time>2022-05-14T09:42:58.076Z</time>
      </trkpt>
      <trkpt lat="41.48087" lon="19.72193">
        <ele>70.851095</ele>
        <time>2022-05-14T09:43:01.059Z</time>
      </trkpt>
      <trkpt lat="41.48095" lon="19.72199">
        <ele>70.651356</ele>
        <time>2022-05-14T09:43:04.068Z</time>
      </trkpt>
      <trkpt lat="41.48104" lon="19.72206">
        <ele>70.444144</ele>
        <time>2022-05-14T09:43:07.078Z</time>
      </trkpt>
      <trkpt lat="41.48112" lon="19.72212">
        <ele>70.242595</ele>
        <time>2022-05-14T09:43:10.073Z</time>
      </trkpt>
      <trkpt lat="41.48121" lon="19.72218">
        <ele>70.033026</ele>
        <time>2022-05-14T09:43:13.109Z</time>
      </trkpt>
      <trkpt lat="41.48129" lon="19.72225">
        <ele>69.836458</ele>
        <time>2022-05-14T09:43:16.085Z</time>
      </trkpt>
      <trkpt lat="41.48138" lon="19.72231">
        <ele>69.634571</ele>
        <time>2022-05-14T09:43:19.112Z</time>
      </trkpt>
      <trkpt lat="41.48147" lon="19.72238">
        <ele>69.41695</ele>
        <time>2022-05-14T09:43:22.078Z</time>
      </trkpt>
      <trkpt lat="41.48156" lon="19.72244">
        <ele>69.212805</ele>
        <time>2022-05-14T09:43:25.113Z</time>
      </trkpt>
      <trkpt lat="41.48164" lon="19.72252">
        <ele>68.993823</ele>
        <time>2022-05-14T09:43:28.056Z</time>
      </trkpt>
      <trkpt lat="41.48173" lon="19.72259">
        <ele>68.778666</ele>
        <time>2022-05-14T09:43:31.075Z</time>
      </trkpt>
      <trkpt lat="41.48182" lon="19.72265">
        <ele>68.570659</ele>
        <time>2022-05-14T09:43:34.082Z</time>
      </trkpt>
      <trkpt lat="41.48192" lon="19.72272">
        <ele>68.343805</ele>
        <time>2022-05-14T09:43:37.074Z</time>
      </trkpt>
      <trkpt lat="41.48201" lon="19.72279">
        <ele>68.120934</ele>
        <time>2022-05-14T09:43:40.077Z</time>
      </trkpt>
      <trkpt lat="41.4821" lon="19.72285">
        <ele>67.913534</ele>
        <time>2022-05-14T09:43:43.110Z</time>
      </trkpt>
      <trkpt lat="41.48219" lon="19.72291">
        <ele>67.714206</ele>
        <time>2022-05-14T09:43:46.077Z</time>
      </trkpt>
      <trkpt lat="41.48229" lon="19.723">
        <ele>67.462216</ele>
        <time>2022-05-14T09:43:50.069Z</time>
      </trkpt>
      <trkpt lat="41.48239" lon="19.72306">
        <ele>67.262327</ele>
        <time>2022-05-14T09:43:53.094Z</time>
      </trkpt>
      <trkpt lat="41.48248" lon="19.72313">
        <ele>67.191039</ele>
        <time>2022-05-14T09:43:56.067Z</time>
      </trkpt>
      <trkpt lat="41.48258" lon="19.7232">
        <ele>67.117084</ele>
        <time>2022-05-14T09:43:59.097Z</time>
      </trkpt>
      <trkpt lat="41.48267" lon="19.72327">
        <ele>67.048468</ele>
        <time>2022-05-14T09:44:02.107Z</time>
      </trkpt>
      <trkpt lat="41.48276" lon="19.72334">
        <ele>66.980768</ele>
        <time>2022-05-14T09:44:05.078Z</time>
      </trkpt>
      <trkpt lat="41.48285" lon="19.7234">
        <ele>66.912826</ele>
        <time>2022-05-14T09:44:08.069Z</time>
      </trkpt>
      <trkpt lat="41.48294" lon="19.72347">
        <ele>66.846177</ele>
        <time>2022-05-14T09:44:11.082Z</time>
      </trkpt>
      <trkpt lat="41.48303" lon="19.72354">
        <ele>66.782454</ele>
        <time>2022-05-14T09:44:14.064Z</time>
      </trkpt>
      <trkpt lat="41.4831" lon="19.7236">
        <ele>66.722983</ele>
        <time>2022-05-14T09:44:17.071Z</time>
      </trkpt>
      <trkpt lat="41.48321" lon="19.72368">
        <ele>66.642985</ele>
        <time>2022-05-14T09:44:21.063Z</time>
      </trkpt>
      <trkpt lat="41.48331" lon="19.72375">
        <ele>66.569153</ele>
        <time>2022-05-14T09:44:24.076Z</time>
      </trkpt>
      <trkpt lat="41.4834" lon="19.72382">
        <ele>66.499208</ele>
        <time>2022-05-14T09:44:27.112Z</time>
      </trkpt>
      <trkpt lat="41.48349" lon="19.72391">
        <ele>66.426804</ele>
        <time>2022-05-14T09:44:30.083Z</time>
      </trkpt>
      <trkpt lat="41.48359" lon="19.72397">
        <ele>66.356526</ele>
        <time>2022-05-14T09:44:33.095Z</time>
      </trkpt>
      <trkpt lat="41.48368" lon="19.72403">
        <ele>66.2893</ele>
        <time>2022-05-14T09:44:36.071Z</time>
      </trkpt>
      <trkpt lat="41.48377" lon="19.7241">
        <ele>66.219486</ele>
        <time>2022-05-14T09:44:39.055Z</time>
      </trkpt>
      <trkpt lat="41.48387" lon="19.72417">
        <ele>66.144722</ele>
        <time>2022-05-14T09:44:42.093Z</time>
      </trkpt>
      <trkpt lat="41.48397" lon="19.72424">
        <ele>66.142026</ele>
        <time>2022-05-14T09:44:45.136Z</time>
      </trkpt>
      <trkpt lat="41.48406" lon="19.72431">
        <ele>66.2984</ele>
        <time>2022-05-14T09:44:48.058Z</time>
      </trkpt>
      <trkpt lat="41.48417" lon="19.72439">
        <ele>66.476441</ele>
        <time>2022-05-14T09:44:51.074Z</time>
      </trkpt>
      <trkpt lat="41.48427" lon="19.72446">
        <ele>66.653179</ele>
        <time>2022-05-14T09:44:54.075Z</time>
      </trkpt>
      <trkpt lat="41.48437" lon="19.72454">
        <ele>66.82786</ele>
        <time>2022-05-14T09:44:57.058Z</time>
      </trkpt>
      <trkpt lat="41.48448" lon="19.72461">
        <ele>66.996766</ele>
        <time>2022-05-14T09:45:00.077Z</time>
      </trkpt>
      <trkpt lat="41.48457" lon="19.72467">
        <ele>67.151422</ele>
        <time>2022-05-14T09:45:03.086Z</time>
      </trkpt>
      <trkpt lat="41.48467" lon="19.72475">
        <ele>67.314903</ele>
        <time>2022-05-14T09:45:06.094Z</time>
      </trkpt>
      <trkpt lat="41.48477" lon="19.72482">
        <ele>67.486156</ele>
        <time>2022-05-14T09:45:09.053Z</time>
      </trkpt>
      <trkpt lat="41.48487" lon="19.72489">
        <ele>67.659822</ele>
        <time>2022-05-14T09:45:12.073Z</time>
      </trkpt>
      <trkpt lat="41.48497" lon="19.72496">
        <ele>67.82639</ele>
        <time>2022-05-14T09:45:15.084Z</time>
      </trkpt>
      <trkpt lat="41.48508" lon="19.72503">
        <ele>67.997919</ele>
        <time>2022-05-14T09:45:18.114Z</time>
      </trkpt>
      <trkpt lat="41.48518" lon="19.7251">
        <ele>68.174657</ele>
        <time>2022-05-14T09:45:21.069Z</time>
      </trkpt>
      <trkpt lat="41.48528" lon="19.72518">
        <ele>68.348522</ele>
        <time>2022-05-14T09:45:24.120Z</time>
      </trkpt>
      <trkpt lat="41.48539" lon="19.72526">
        <ele>68.529453</ele>
        <time>2022-05-14T09:45:27.086Z</time>
      </trkpt>
      <trkpt lat="41.4855" lon="19.72533">
        <ele>68.714552</ele>
        <time>2022-05-14T09:45:30.064Z</time>
      </trkpt>
      <trkpt lat="41.48561" lon="19.7254">
        <ele>68.613972</ele>
        <time>2022-05-14T09:45:33.069Z</time>
      </trkpt>
      <trkpt lat="41.48571" lon="19.72547">
        <ele>68.439184</ele>
        <time>2022-05-14T09:45:36.076Z</time>
      </trkpt>
      <trkpt lat="41.48582" lon="19.72554">
        <ele>68.256565</ele>
        <time>2022-05-14T09:45:39.072Z</time>
      </trkpt>
      <trkpt lat="41.48594" lon="19.72561">
        <ele>68.058737</ele>
        <time>2022-05-14T09:45:42.085Z</time>
      </trkpt>
      <trkpt lat="41.48602" lon="19.72567">
        <ele>67.919456</ele>
        <time>2022-05-14T09:45:44.063Z</time>
      </trkpt>
      <trkpt lat="41.4861" lon="19.72573">
        <ele>67.774542</ele>
        <time>2022-05-14T09:45:46.079Z</time>
      </trkpt>
      <trkpt lat="41.48622" lon="19.72582">
        <ele>67.576995</ele>
        <time>2022-05-14T09:45:49.079Z</time>
      </trkpt>
      <trkpt lat="41.48629" lon="19.72589">
        <ele>67.440354</ele>
        <time>2022-05-14T09:45:51.072Z</time>
      </trkpt>
      <trkpt lat="41.48641" lon="19.72598">
        <ele>67.234952</ele>
        <time>2022-05-14T09:45:54.061Z</time>
      </trkpt>
      <trkpt lat="41.48652" lon="19.72606">
        <ele>67.041733</ele>
        <time>2022-05-14T09:45:57.068Z</time>
      </trkpt>
      <trkpt lat="41.48663" lon="19.72613">
        <ele>66.847047</ele>
        <time>2022-05-14T09:46:00.077Z</time>
      </trkpt>
      <trkpt lat="41.48675" lon="19.72619">
        <ele>66.654422</ele>
        <time>2022-05-14T09:46:03.084Z</time>
      </trkpt>
      <trkpt lat="41.48687" lon="19.72622">
        <ele>66.468504</ele>
        <time>2022-05-14T09:46:06.075Z</time>
      </trkpt>
      <trkpt lat="41.487" lon="19.72621">
        <ele>66.275294</ele>
        <time>2022-05-14T09:46:09.061Z</time>
      </trkpt>
      <trkpt lat="41.48712" lon="19.72619">
        <ele>66.090373</ele>
        <time>2022-05-14T09:46:12.125Z</time>
      </trkpt>
      <trkpt lat="41.48723" lon="19.72613">
        <ele>65.988839</ele>
        <time>2022-05-14T09:46:15.078Z</time>
      </trkpt>
      <trkpt lat="41.48735" lon="19.72607">
        <ele>65.935761</ele>
        <time>2022-05-14T09:46:18.076Z</time>
      </trkpt>
      <trkpt lat="41.48746" lon="19.72599">
        <ele>65.881857</ele>
        <time>2022-05-14T09:46:21.078Z</time>
      </trkpt>
      <trkpt lat="41.48758" lon="19.72591">
        <ele>65.827665</ele>
        <time>2022-05-14T09:46:24.063Z</time>
      </trkpt>
      <trkpt lat="41.48769" lon="19.72584">
        <ele>65.775033</ele>
        <time>2022-05-14T09:46:27.082Z</time>
      </trkpt>
      <trkpt lat="41.48781" lon="19.72575">
        <ele>65.718386</ele>
        <time>2022-05-14T09:46:30.044Z</time>
      </trkpt>
      <trkpt lat="41.48789" lon="19.7257">
        <ele>65.680274</ele>
        <time>2022-05-14T09:46:32.077Z</time>
      </trkpt>
      <trkpt lat="41.488" lon="19.72561">
        <ele>65.624967</ele>
        <time>2022-05-14T09:46:35.099Z</time>
      </trkpt>
      <trkpt lat="41.48812" lon="19.72553">
        <ele>65.567571</ele>
        <time>2022-05-14T09:46:38.031Z</time>
      </trkpt>
      <trkpt lat="41.4882" lon="19.72546">
        <ele>65.527966</ele>
        <time>2022-05-14T09:46:40.071Z</time>
      </trkpt>
      <trkpt lat="41.48828" lon="19.72541">
        <ele>65.489405</ele>
        <time>2022-05-14T09:46:42.073Z</time>
      </trkpt>
      <trkpt lat="41.48836" lon="19.72535">
        <ele>65.451293</ele>
        <time>2022-05-14T09:46:44.078Z</time>
      </trkpt>
      <trkpt lat="41.48848" lon="19.72527">
        <ele>65.396061</ele>
        <time>2022-05-14T09:46:47.125Z</time>
      </trkpt>
      <trkpt lat="41.48859" lon="19.72518">
        <ele>65.340232</ele>
        <time>2022-05-14T09:46:50.070Z</time>
      </trkpt>
      <trkpt lat="41.48871" lon="19.7251">
        <ele>65.284182</ele>
        <time>2022-05-14T09:46:53.075Z</time>
      </trkpt>
      <trkpt lat="41.48882" lon="19.72502">
        <ele>65.192453</ele>
        <time>2022-05-14T09:46:56.065Z</time>
      </trkpt>
      <trkpt lat="41.48893" lon="19.72494">
        <ele>65.071298</ele>
        <time>2022-05-14T09:46:59.079Z</time>
      </trkpt>
      <trkpt lat="41.48905" lon="19.72485">
        <ele>64.943177</ele>
        <time>2022-05-14T09:47:02.058Z</time>
      </trkpt>
      <trkpt lat="41.48913" lon="19.72479">
        <ele>64.854325</ele>
        <time>2022-05-14T09:47:04.102Z</time>
      </trkpt>
      <trkpt lat="41.48921" lon="19.72473">
        <ele>64.764277</ele>
        <time>2022-05-14T09:47:06.079Z</time>
      </trkpt>
      <trkpt lat="41.48929" lon="19.72467">
        <ele>64.676479</ele>
        <time>2022-05-14T09:47:08.071Z</time>
      </trkpt>
      <trkpt lat="41.48937" lon="19.72462">
        <ele>64.588615</ele>
        <time>2022-05-14T09:47:10.080Z</time>
      </trkpt>
      <trkpt lat="41.48946" lon="19.72456">
        <ele>64.495364</ele>
        <time>2022-05-14T09:47:12.071Z</time>
      </trkpt>
      <trkpt lat="41.48954" lon="19.7245">
        <ele>64.403485</ele>
        <time>2022-05-14T09:47:14.048Z</time>
      </trkpt>
      <trkpt lat="41.48963" lon="19.72444">
        <ele>64.313134</ele>
        <time>2022-05-14T09:47:16.085Z</time>
      </trkpt>
      <trkpt lat="41.48971" lon="19.72439">
        <ele>64.225679</ele>
        <time>2022-05-14T09:47:18.088Z</time>
      </trkpt>
      <trkpt lat="41.48979" lon="19.72433">
        <ele>64.137707</ele>
        <time>2022-05-14T09:47:20.078Z</time>
      </trkpt>
      <trkpt lat="41.48991" lon="19.72425">
        <ele>64.008884</ele>
        <time>2022-05-14T09:47:23.074Z</time>
      </trkpt>
      <trkpt lat="41.49002" lon="19.72417">
        <ele>63.882631</ele>
        <time>2022-05-14T09:47:26.080Z</time>
      </trkpt>
      <trkpt lat="41.49014" lon="19.72408">
        <ele>63.753319</ele>
        <time>2022-05-14T09:47:29.061Z</time>
      </trkpt>
      <trkpt lat="41.49026" lon="19.724">
        <ele>63.625683</ele>
        <time>2022-05-14T09:47:32.065Z</time>
      </trkpt>
      <trkpt lat="41.49036" lon="19.72391">
        <ele>63.511077</ele>
        <time>2022-05-14T09:47:35.078Z</time>
      </trkpt>
      <trkpt lat="41.49046" lon="19.72379">
        <ele>63.427461</ele>
        <time>2022-05-14T09:47:38.085Z</time>
      </trkpt>
      <trkpt lat="41.49054" lon="19.72365">
        <ele>63.344944</ele>
        <time>2022-05-14T09:47:41.115Z</time>
      </trkpt>
      <trkpt lat="41.4906" lon="19.7235">
        <ele>63.262759</ele>
        <time>2022-05-14T09:47:44.083Z</time>
      </trkpt>
      <trkpt lat="41.49065" lon="19.72334">
        <ele>63.177126</ele>
        <time>2022-05-14T09:47:47.104Z</time>
      </trkpt>
      <trkpt lat="41.49068" lon="19.72322">
        <ele>63.117894</ele>
        <time>2022-05-14T09:47:49.084Z</time>
      </trkpt>
      <trkpt lat="41.49071" lon="19.7231">
        <ele>63.058363</ele>
        <time>2022-05-14T09:47:51.107Z</time>
      </trkpt>
      <trkpt lat="41.49074" lon="19.72298">
        <ele>62.996819</ele>
        <time>2022-05-14T09:47:53.065Z</time>
      </trkpt>
      <trkpt lat="41.49078" lon="19.72286">
        <ele>62.935955</ele>
        <time>2022-05-14T09:47:55.082Z</time>
      </trkpt>
      <trkpt lat="41.49083" lon="19.72275">
        <ele>62.873805</ele>
        <time>2022-05-14T09:47:57.126Z</time>
      </trkpt>
      <trkpt lat="41.49088" lon="19.72264">
        <ele>62.80943</ele>
        <time>2022-05-14T09:47:59.076Z</time>
      </trkpt>
      <trkpt lat="41.49095" lon="19.72253">
        <ele>62.742271</ele>
        <time>2022-05-14T09:48:01.056Z</time>
      </trkpt>
      <trkpt lat="41.49104" lon="19.72245">
        <ele>62.676007</ele>
        <time>2022-05-14T09:48:03.082Z</time>
      </trkpt>
      <trkpt lat="41.49114" lon="19.72239">
        <ele>62.607704</ele>
        <time>2022-05-14T09:48:05.083Z</time>
      </trkpt>
      <trkpt lat="41.49124" lon="19.72234">
        <ele>62.537021</ele>
        <time>2022-05-14T09:48:07.100Z</time>
      </trkpt>
      <trkpt lat="41.49134" lon="19.72228">
        <ele>62.46829</ele>
        <time>2022-05-14T09:48:09.079Z</time>
      </trkpt>
      <trkpt lat="41.49144" lon="19.72223">
        <ele>62.401444</ele>
        <time>2022-05-14T09:48:11.082Z</time>
      </trkpt>
      <trkpt lat="41.49154" lon="19.72218">
        <ele>62.309515</ele>
        <time>2022-05-14T09:48:13.062Z</time>
      </trkpt>
      <trkpt lat="41.49163" lon="19.72213">
        <ele>62.209881</ele>
        <time>2022-05-14T09:48:15.076Z</time>
      </trkpt>
      <trkpt lat="41.49172" lon="19.72207">
        <ele>62.111472</ele>
        <time>2022-05-14T09:48:17.059Z</time>
      </trkpt>
      <trkpt lat="41.49182" lon="19.72202">
        <ele>62.01239</ele>
        <time>2022-05-14T09:48:19.071Z</time>
      </trkpt>
      <trkpt lat="41.49191" lon="19.72198">
        <ele>61.913693</ele>
        <time>2022-05-14T09:48:21.085Z</time>
      </trkpt>
      <trkpt lat="41.492" lon="19.72194">
        <ele>61.817236</ele>
        <time>2022-05-14T09:48:23.066Z</time>
      </trkpt>
      <trkpt lat="41.4921" lon="19.72189">
        <ele>61.721101</ele>
        <time>2022-05-14T09:48:25.071Z</time>
      </trkpt>
      <trkpt lat="41.49219" lon="19.72185">
        <ele>61.622637</ele>
        <time>2022-05-14T09:48:27.066Z</time>
      </trkpt>
      <trkpt lat="41.49229" lon="19.72181">
        <ele>61.52271</ele>
        <time>2022-05-14T09:48:29.102Z</time>
      </trkpt>
      <trkpt lat="41.49239" lon="19.72178">
        <ele>61.422348</ele>
        <time>2022-05-14T09:48:31.110Z</time>
      </trkpt>
      <trkpt lat="41.4925" lon="19.72177">
        <ele>61.31927</ele>
        <time>2022-05-14T09:48:33.085Z</time>
      </trkpt>
      <trkpt lat="41.4926" lon="19.72178">
        <ele>61.216242</ele>
        <time>2022-05-14T09:48:35.066Z</time>
      </trkpt>
      <trkpt lat="41.4927" lon="19.72181">
        <ele>61.1165</ele>
        <time>2022-05-14T09:48:37.104Z</time>
      </trkpt>
      <trkpt lat="41.49279" lon="19.72186">
        <ele>61.020043</ele>
        <time>2022-05-14T09:48:39.067Z</time>
      </trkpt>
      <trkpt lat="41.49288" lon="19.72193">
        <ele>60.921471</ele>
        <time>2022-05-14T09:48:41.060Z</time>
      </trkpt>
      <trkpt lat="41.49295" lon="19.72201">
        <ele>60.82638</ele>
        <time>2022-05-14T09:48:43.084Z</time>
      </trkpt>
      <trkpt lat="41.49303" lon="19.72209">
        <ele>60.734057</ele>
        <time>2022-05-14T09:48:45.078Z</time>
      </trkpt>
      <trkpt lat="41.4931" lon="19.72217">
        <ele>60.641412</ele>
        <time>2022-05-14T09:48:47.047Z</time>
      </trkpt>
      <trkpt lat="41.49318" lon="19.72223">
        <ele>60.592277</ele>
        <time>2022-05-14T09:48:49.069Z</time>
      </trkpt>
      <trkpt lat="41.49326" lon="19.72229">
        <ele>60.557219</ele>
        <time>2022-05-14T09:48:51.062Z</time>
      </trkpt>
      <trkpt lat="41.49335" lon="19.72234">
        <ele>60.521745</ele>
        <time>2022-05-14T09:48:53.058Z</time>
      </trkpt>
      <trkpt lat="41.49348" lon="19.72238">
        <ele>60.472046</ele>
        <time>2022-05-14T09:48:56.065Z</time>
      </trkpt>
      <trkpt lat="41.49358" lon="19.7224">
        <ele>60.437193</ele>
        <time>2022-05-14T09:48:58.050Z</time>
      </trkpt>
      <trkpt lat="41.49367" lon="19.7224">
        <ele>60.40073</ele>
        <time>2022-05-14T09:49:00.089Z</time>
      </trkpt>
      <trkpt lat="41.49378" lon="19.72238">
        <ele>60.36178</ele>
        <time>2022-05-14T09:49:02.104Z</time>
      </trkpt>
      <trkpt lat="41.49389" lon="19.72235">
        <ele>60.320679</ele>
        <time>2022-05-14T09:49:04.088Z</time>
      </trkpt>
      <trkpt lat="41.49399" lon="19.72231">
        <ele>60.27898</ele>
        <time>2022-05-14T09:49:06.076Z</time>
      </trkpt>
      <trkpt lat="41.4941" lon="19.72226">
        <ele>60.238039</ele>
        <time>2022-05-14T09:49:08.073Z</time>
      </trkpt>
      <trkpt lat="41.4942" lon="19.72221">
        <ele>60.197316</ele>
        <time>2022-05-14T09:49:10.068Z</time>
      </trkpt>
      <trkpt lat="41.4943" lon="19.72215">
        <ele>60.158448</ele>
        <time>2022-05-14T09:49:12.063Z</time>
      </trkpt>
      <trkpt lat="41.49439" lon="19.7221">
        <ele>60.121042</ele>
        <time>2022-05-14T09:49:14.084Z</time>
      </trkpt>
      <trkpt lat="41.49448" lon="19.72205">
        <ele>60.084213</ele>
        <time>2022-05-14T09:49:16.076Z</time>
      </trkpt>
      <trkpt lat="41.49458" lon="19.722">
        <ele>60.044529</ele>
        <time>2022-05-14T09:49:18.068Z</time>
      </trkpt>
      <trkpt lat="41.49468" lon="19.72195">
        <ele>60.004547</ele>
        <time>2022-05-14T09:49:20.088Z</time>
      </trkpt>
      <trkpt lat="41.49478" lon="19.72191">
        <ele>59.965429</ele>
        <time>2022-05-14T09:49:22.072Z</time>
      </trkpt>
      <trkpt lat="41.49488" lon="19.72187">
        <ele>59.879444</ele>
        <time>2022-05-14T09:49:24.083Z</time>
      </trkpt>
      <trkpt lat="41.49498" lon="19.72185">
        <ele>59.758126</ele>
        <time>2022-05-14T09:49:26.070Z</time>
      </trkpt>
      <trkpt lat="41.49508" lon="19.72183">
        <ele>59.638692</ele>
        <time>2022-05-14T09:49:28.098Z</time>
      </trkpt>
      <trkpt lat="41.49518" lon="19.72181">
        <ele>59.520415</ele>
        <time>2022-05-14T09:49:30.067Z</time>
      </trkpt>
      <trkpt lat="41.49528" lon="19.72179">
        <ele>59.399353</ele>
        <time>2022-05-14T09:49:32.064Z</time>
      </trkpt>
      <trkpt lat="41.49538" lon="19.72177">
        <ele>59.282946</ele>
        <time>2022-05-14T09:49:34.100Z</time>
      </trkpt>
      <trkpt lat="41.49548" lon="19.72175">
        <ele>59.167433</ele>
        <time>2022-05-14T09:49:36.082Z</time>
      </trkpt>
      <trkpt lat="41.49557" lon="19.72172">
        <ele>59.051332</ele>
        <time>2022-05-14T09:49:38.064Z</time>
      </trkpt>
      <trkpt lat="41.49567" lon="19.72167">
        <ele>58.930344</ele>
        <time>2022-05-14T09:49:40.070Z</time>
      </trkpt>
      <trkpt lat="41.49576" lon="19.72162">
        <ele>58.814331</ele>
        <time>2022-05-14T09:49:42.087Z</time>
      </trkpt>
      <trkpt lat="41.49585" lon="19.72157">
        <ele>58.700413</ele>
        <time>2022-05-14T09:49:44.068Z</time>
      </trkpt>
      <trkpt lat="41.49593" lon="19.7215">
        <ele>58.585941</ele>
        <time>2022-05-14T09:49:46.079Z</time>
      </trkpt>
      <trkpt lat="41.49601" lon="19.72142">
        <ele>58.469565</ele>
        <time>2022-05-14T09:49:48.075Z</time>
      </trkpt>
      <trkpt lat="41.49609" lon="19.72135">
        <ele>58.362021</ele>
        <time>2022-05-14T09:49:50.069Z</time>
      </trkpt>
      <trkpt lat="41.49617" lon="19.72128">
        <ele>58.251966</ele>
        <time>2022-05-14T09:49:52.084Z</time>
      </trkpt>
      <trkpt lat="41.49625" lon="19.7212">
        <ele>58.133408</ele>
        <time>2022-05-14T09:49:54.123Z</time>
      </trkpt>
      <trkpt lat="41.49632" lon="19.72113">
        <ele>58.022438</ele>
        <time>2022-05-14T09:49:56.059Z</time>
      </trkpt>
      <trkpt lat="41.49641" lon="19.72106">
        <ele>57.908967</ele>
        <time>2022-05-14T09:49:58.087Z</time>
      </trkpt>
      <trkpt lat="41.49648" lon="19.72099">
        <ele>57.825249</ele>
        <time>2022-05-14T09:50:00.080Z</time>
      </trkpt>
      <trkpt lat="41.4966" lon="19.7209">
        <ele>57.782196</ele>
        <time>2022-05-14T09:50:03.064Z</time>
      </trkpt>
      <trkpt lat="41.49671" lon="19.72082">
        <ele>57.739655</ele>
        <time>2022-05-14T09:50:06.081Z</time>
      </trkpt>
      <trkpt lat="41.49682" lon="19.72075">
        <ele>57.697047</ele>
        <time>2022-05-14T09:50:09.072Z</time>
      </trkpt>
      <trkpt lat="41.49694" lon="19.72067">
        <ele>57.653788</ele>
        <time>2022-05-14T09:50:12.064Z</time>
      </trkpt>
      <trkpt lat="41.49703" lon="19.72062">
        <ele>57.62325</ele>
        <time>2022-05-14T09:50:14.120Z</time>
      </trkpt>
      <trkpt lat="41.49714" lon="19.72053">
        <ele>57.578843</ele>
        <time>2022-05-14T09:50:17.078Z</time>
      </trkpt>
      <trkpt lat="41.49725" lon="19.72043">
        <ele>57.535297</ele>
        <time>2022-05-14T09:50:20.053Z</time>
      </trkpt>
      <trkpt lat="41.49732" lon="19.72036">
        <ele>57.505545</ele>
        <time>2022-05-14T09:50:22.077Z</time>
      </trkpt>
      <trkpt lat="41.49739" lon="19.72028">
        <ele>57.475688</ele>
        <time>2022-05-14T09:50:24.058Z</time>
      </trkpt>
      <trkpt lat="41.49745" lon="19.72019">
        <ele>57.445211</ele>
        <time>2022-05-14T09:50:26.105Z</time>
      </trkpt>
      <trkpt lat="41.49754" lon="19.72007">
        <ele>57.404829</ele>
        <time>2022-05-14T09:50:29.068Z</time>
      </trkpt>
      <trkpt lat="41.49763" lon="19.71995">
        <ele>57.36351</ele>
        <time>2022-05-14T09:50:32.065Z</time>
      </trkpt>
      <trkpt lat="41.49769" lon="19.71987">
        <ele>57.332873</ele>
        <time>2022-05-14T09:50:34.073Z</time>
      </trkpt>
      <trkpt lat="41.49779" lon="19.71974">
        <ele>57.287649</ele>
        <time>2022-05-14T09:50:37.099Z</time>
      </trkpt>
      <trkpt lat="41.49787" lon="19.71965">
        <ele>57.253928</ele>
        <time>2022-05-14T09:50:39.084Z</time>
      </trkpt>
      <trkpt lat="41.49794" lon="19.71956">
        <ele>57.235057</ele>
        <time>2022-05-14T09:50:41.066Z</time>
      </trkpt>
      <trkpt lat="41.49801" lon="19.71948">
        <ele>57.225915</ele>
        <time>2022-05-14T09:50:43.057Z</time>
      </trkpt>
      <trkpt lat="41.49809" lon="19.71941">
        <ele>57.216917</ele>
        <time>2022-05-14T09:50:45.063Z</time>
      </trkpt>
      <trkpt lat="41.49816" lon="19.71933">
        <ele>57.208006</ele>
        <time>2022-05-14T09:50:47.074Z</time>
      </trkpt>
      <trkpt lat="41.49824" lon="19.71926">
        <ele>57.199368</ele>
        <time>2022-05-14T09:50:49.070Z</time>
      </trkpt>
      <trkpt lat="41.49831" lon="19.71919">
        <ele>57.190619</ele>
        <time>2022-05-14T09:50:51.067Z</time>
      </trkpt>
      <trkpt lat="41.49838" lon="19.71912">
        <ele>57.181862</ele>
        <time>2022-05-14T09:50:53.081Z</time>
      </trkpt>
      <trkpt lat="41.49849" lon="19.71901">
        <ele>57.16904</ele>
        <time>2022-05-14T09:50:56.085Z</time>
      </trkpt>
      <trkpt lat="41.4986" lon="19.71892">
        <ele>57.156182</ele>
        <time>2022-05-14T09:50:59.115Z</time>
      </trkpt>
      <trkpt lat="41.49872" lon="19.71882">
        <ele>57.143361</ele>
        <time>2022-05-14T09:51:02.078Z</time>
      </trkpt>
      <trkpt lat="41.49883" lon="19.71874">
        <ele>57.130857</ele>
        <time>2022-05-14T09:51:05.071Z</time>
      </trkpt>
      <trkpt lat="41.49892" lon="19.7187">
        <ele>57.122229</ele>
        <time>2022-05-14T09:51:07.105Z</time>
      </trkpt>
      <trkpt lat="41.49904" lon="19.71864">
        <ele>57.109544</ele>
        <time>2022-05-14T09:51:10.080Z</time>
      </trkpt>
      <trkpt lat="41.49917" lon="19.71861">
        <ele>57.097345</ele>
        <time>2022-05-14T09:51:13.070Z</time>
      </trkpt>
      <trkpt lat="41.49929" lon="19.71858">
        <ele>57.084796</ele>
        <time>2022-05-14T09:51:16.064Z</time>
      </trkpt>
      <trkpt lat="41.49942" lon="19.71855">
        <ele>57.072223</ele>
        <time>2022-05-14T09:51:19.060Z</time>
      </trkpt>
      <trkpt lat="41.49956" lon="19.71852">
        <ele>56.99777</ele>
        <time>2022-05-14T09:51:22.072Z</time>
      </trkpt>
      <trkpt lat="41.49965" lon="19.71851">
        <ele>56.924145</ele>
        <time>2022-05-14T09:51:24.094Z</time>
      </trkpt>
      <trkpt lat="41.49974" lon="19.7185">
        <ele>56.850882</ele>
        <time>2022-05-14T09:51:26.076Z</time>
      </trkpt>
      <trkpt lat="41.49983" lon="19.71849">
        <ele>56.777731</ele>
        <time>2022-05-14T09:51:28.069Z</time>
      </trkpt>
      <trkpt lat="41.49996" lon="19.71847">
        <ele>56.670192</ele>
        <time>2022-05-14T09:51:31.082Z</time>
      </trkpt>
      <trkpt lat="41.50009" lon="19.71846">
        <ele>56.563229</ele>
        <time>2022-05-14T09:51:34.056Z</time>
      </trkpt>
      <trkpt lat="41.50022" lon="19.71848">
        <ele>56.45678</ele>
        <time>2022-05-14T09:51:37.077Z</time>
      </trkpt>
      <trkpt lat="41.50035" lon="19.71853">
        <ele>56.349956</ele>
        <time>2022-05-14T09:51:40.066Z</time>
      </trkpt>
      <trkpt lat="41.50046" lon="19.71861">
        <ele>56.246198</ele>
        <time>2022-05-14T09:51:43.072Z</time>
      </trkpt>
      <trkpt lat="41.50056" lon="19.71872">
        <ele>56.141711</ele>
        <time>2022-05-14T09:51:46.071Z</time>
      </trkpt>
      <trkpt lat="41.50064" lon="19.71885">
        <ele>56.036774</ele>
        <time>2022-05-14T09:51:49.087Z</time>
      </trkpt>
      <trkpt lat="41.5007" lon="19.719">
        <ele>55.935604</ele>
        <time>2022-05-14T09:51:52.086Z</time>
      </trkpt>
      <trkpt lat="41.50076" lon="19.71915">
        <ele>55.832297</ele>
        <time>2022-05-14T09:51:55.092Z</time>
      </trkpt>
      <trkpt lat="41.50081" lon="19.7193">
        <ele>55.732247</ele>
        <time>2022-05-14T09:51:58.089Z</time>
      </trkpt>
      <trkpt lat="41.50087" lon="19.71944">
        <ele>55.630687</ele>
        <time>2022-05-14T09:52:01.057Z</time>
      </trkpt>
      <trkpt lat="41.50096" lon="19.71958">
        <ele>55.668745</ele>
        <time>2022-05-14T09:52:04.055Z</time>
      </trkpt>
      <trkpt lat="41.50106" lon="19.71968">
        <ele>55.739306</ele>
        <time>2022-05-14T09:52:07.074Z</time>
      </trkpt>
      <trkpt lat="41.50117" lon="19.71976">
        <ele>55.809323</ele>
        <time>2022-05-14T09:52:10.118Z</time>
      </trkpt>
      <trkpt lat="41.50129" lon="19.71983">
        <ele>55.883635</ele>
        <time>2022-05-14T09:52:13.082Z</time>
      </trkpt>
      <trkpt lat="41.50142" lon="19.71988">
        <ele>55.958408</ele>
        <time>2022-05-14T09:52:16.073Z</time>
      </trkpt>
      <trkpt lat="41.50151" lon="19.71992">
        <ele>56.007968</ele>
        <time>2022-05-14T09:52:18.064Z</time>
      </trkpt>
      <trkpt lat="41.50163" lon="19.71996">
        <ele>56.078801</ele>
        <time>2022-05-14T09:52:21.111Z</time>
      </trkpt>
      <trkpt lat="41.50176" lon="19.72001">
        <ele>56.149102</ele>
        <time>2022-05-14T09:52:24.078Z</time>
      </trkpt>
      <trkpt lat="41.50187" lon="19.72005">
        <ele>56.214402</ele>
        <time>2022-05-14T09:52:27.060Z</time>
      </trkpt>
      <trkpt lat="41.50198" lon="19.72009">
        <ele>56.275998</ele>
        <time>2022-05-14T09:52:30.067Z</time>
      </trkpt>
      <trkpt lat="41.50209" lon="19.72015">
        <ele>56.339942</ele>
        <time>2022-05-14T09:52:33.069Z</time>
      </trkpt>
      <trkpt lat="41.5022" lon="19.7202">
        <ele>56.405443</ele>
        <time>2022-05-14T09:52:36.069Z</time>
      </trkpt>
      <trkpt lat="41.50231" lon="19.72026">
        <ele>56.47212</ele>
        <time>2022-05-14T09:52:39.065Z</time>
      </trkpt>
      <trkpt lat="41.50242" lon="19.72032">
        <ele>56.53849</ele>
        <time>2022-05-14T09:52:42.064Z</time>
      </trkpt>
      <trkpt lat="41.50254" lon="19.72038">
        <ele>56.613241</ele>
        <time>2022-05-14T09:52:45.061Z</time>
      </trkpt>
      <trkpt lat="41.50264" lon="19.72044">
        <ele>56.755069</ele>
        <time>2022-05-14T09:52:48.100Z</time>
      </trkpt>
      <trkpt lat="41.50275" lon="19.7205">
        <ele>56.893098</ele>
        <time>2022-05-14T09:52:51.105Z</time>
      </trkpt>
      <trkpt lat="41.50284" lon="19.72055">
        <ele>57.024327</ele>
        <time>2022-05-14T09:52:54.059Z</time>
      </trkpt>
      <trkpt lat="41.50294" lon="19.72061">
        <ele>57.157771</ele>
        <time>2022-05-14T09:52:57.062Z</time>
      </trkpt>
      <trkpt lat="41.50304" lon="19.72066">
        <ele>57.288566</ele>
        <time>2022-05-14T09:53:00.082Z</time>
      </trkpt>
      <trkpt lat="41.50314" lon="19.72073">
        <ele>57.4262</ele>
        <time>2022-05-14T09:53:03.086Z</time>
      </trkpt>
      <trkpt lat="41.50324" lon="19.7208">
        <ele>57.564582</ele>
        <time>2022-05-14T09:53:06.113Z</time>
      </trkpt>
      <trkpt lat="41.50334" lon="19.72087">
        <ele>57.70678</ele>
        <time>2022-05-14T09:53:09.079Z</time>
      </trkpt>
      <trkpt lat="41.50344" lon="19.72096">
        <ele>57.85284</ele>
        <time>2022-05-14T09:53:12.108Z</time>
      </trkpt>
      <trkpt lat="41.50354" lon="19.72106">
        <ele>58.007797</ele>
        <time>2022-05-14T09:53:15.069Z</time>
      </trkpt>
      <trkpt lat="41.50363" lon="19.72115">
        <ele>58.147911</ele>
        <time>2022-05-14T09:53:18.106Z</time>
      </trkpt>
      <trkpt lat="41.50371" lon="19.72124">
        <ele>58.28381</ele>
        <time>2022-05-14T09:53:21.083Z</time>
      </trkpt>
      <trkpt lat="41.5038" lon="19.72132">
        <ele>58.422259</ele>
        <time>2022-05-14T09:53:24.130Z</time>
      </trkpt>
      <trkpt lat="41.50389" lon="19.72142">
        <ele>58.564845</ele>
        <time>2022-05-14T09:53:27.068Z</time>
      </trkpt>
      <trkpt lat="41.50398" lon="19.72152">
        <ele>58.709362</ele>
        <time>2022-05-14T09:53:30.102Z</time>
      </trkpt>
      <trkpt lat="41.50407" lon="19.72162">
        <ele>58.850091</ele>
        <time>2022-05-14T09:53:33.083Z</time>
      </trkpt>
      <trkpt lat="41.50417" lon="19.72173">
        <ele>58.974499</ele>
        <time>2022-05-14T09:53:36.103Z</time>
      </trkpt>
      <trkpt lat="41.50426" lon="19.72184">
        <ele>59.097896</ele>
        <time>2022-05-14T09:53:39.080Z</time>
      </trkpt>
      <trkpt lat="41.50434" lon="19.72195">
        <ele>59.212654</ele>
        <time>2022-05-14T09:53:42.116Z</time>
      </trkpt>
      <trkpt lat="41.50442" lon="19.72205">
        <ele>59.326883</ele>
        <time>2022-05-14T09:53:45.071Z</time>
      </trkpt>
      <trkpt lat="41.5045" lon="19.72216">
        <ele>59.443783</ele>
        <time>2022-05-14T09:53:48.034Z</time>
      </trkpt>
      <trkpt lat="41.50458" lon="19.72227">
        <ele>59.559898</ele>
        <time>2022-05-14T09:53:51.066Z</time>
      </trkpt>
      <trkpt lat="41.50466" lon="19.72237">
        <ele>59.667182</ele>
        <time>2022-05-14T09:53:54.077Z</time>
      </trkpt>
      <trkpt lat="41.50474" lon="19.72247">
        <ele>59.775367</ele>
        <time>2022-05-14T09:53:57.066Z</time>
      </trkpt>
      <trkpt lat="41.50481" lon="19.72256">
        <ele>59.877678</ele>
        <time>2022-05-14T09:54:00.096Z</time>
      </trkpt>
      <trkpt lat="41.50488" lon="19.72265">
        <ele>59.977134</ele>
        <time>2022-05-14T09:54:03.049Z</time>
      </trkpt>
      <trkpt lat="41.50496" lon="19.72274">
        <ele>60.079484</ele>
        <time>2022-05-14T09:54:06.050Z</time>
      </trkpt>
      <trkpt lat="41.50503" lon="19.72284">
        <ele>60.186421</ele>
        <time>2022-05-14T09:54:09.050Z</time>
      </trkpt>
      <trkpt lat="41.50511" lon="19.72294">
        <ele>60.293357</ele>
        <time>2022-05-14T09:54:12.051Z</time>
      </trkpt>
      <trkpt lat="41.50519" lon="19.72305">
        <ele>60.406013</ele>
        <time>2022-05-14T09:54:15.084Z</time>
      </trkpt>
      <trkpt lat="41.50526" lon="19.72314">
        <ele>60.510132</ele>
        <time>2022-05-14T09:54:18.088Z</time>
      </trkpt>
      <trkpt lat="41.50535" lon="19.72325">
        <ele>60.631325</ele>
        <time>2022-05-14T09:54:21.064Z</time>
      </trkpt>
      <trkpt lat="41.50544" lon="19.72337">
        <ele>60.611518</ele>
        <time>2022-05-14T09:54:24.068Z</time>
      </trkpt>
      <trkpt lat="41.50553" lon="19.72348">
        <ele>60.573121</ele>
        <time>2022-05-14T09:54:27.071Z</time>
      </trkpt>
      <trkpt lat="41.50561" lon="19.72358">
        <ele>60.538528</ele>
        <time>2022-05-14T09:54:30.106Z</time>
      </trkpt>
      <trkpt lat="41.50569" lon="19.72369">
        <ele>60.502276</ele>
        <time>2022-05-14T09:54:33.072Z</time>
      </trkpt>
      <trkpt lat="41.50577" lon="19.72379">
        <ele>60.468009</ele>
        <time>2022-05-14T09:54:36.076Z</time>
      </trkpt>
      <trkpt lat="41.50585" lon="19.72389">
        <ele>60.434136</ele>
        <time>2022-05-14T09:54:39.083Z</time>
      </trkpt>
      <trkpt lat="41.50593" lon="19.72399">
        <ele>60.399986</ele>
        <time>2022-05-14T09:54:42.085Z</time>
      </trkpt>
      <trkpt lat="41.506" lon="19.72409">
        <ele>60.367325</ele>
        <time>2022-05-14T09:54:45.069Z</time>
      </trkpt>
      <trkpt lat="41.50608" lon="19.72419">
        <ele>60.333912</ele>
        <time>2022-05-14T09:54:48.071Z</time>
      </trkpt>
      <trkpt lat="41.50616" lon="19.72429">
        <ele>60.299762</ele>
        <time>2022-05-14T09:54:51.076Z</time>
      </trkpt>
      <trkpt lat="41.50624" lon="19.72439">
        <ele>60.267102</ele>
        <time>2022-05-14T09:54:54.060Z</time>
      </trkpt>
      <trkpt lat="41.50632" lon="19.72448">
        <ele>60.232911</ele>
        <time>2022-05-14T09:54:57.069Z</time>
      </trkpt>
      <trkpt lat="41.50639" lon="19.72459">
        <ele>60.198818</ele>
        <time>2022-05-14T09:55:00.079Z</time>
      </trkpt>
      <trkpt lat="41.50647" lon="19.72469">
        <ele>60.164929</ele>
        <time>2022-05-14T09:55:03.075Z</time>
      </trkpt>
      <trkpt lat="41.50655" lon="19.72479">
        <ele>60.129344</ele>
        <time>2022-05-14T09:55:06.083Z</time>
      </trkpt>
      <trkpt lat="41.50662" lon="19.72491">
        <ele>60.093506</ele>
        <time>2022-05-14T09:55:09.062Z</time>
      </trkpt>
      <trkpt lat="41.50669" lon="19.72503">
        <ele>60.130907</ele>
        <time>2022-05-14T09:55:12.071Z</time>
      </trkpt>
      <trkpt lat="41.50676" lon="19.72514">
        <ele>60.198055</ele>
        <time>2022-05-14T09:55:15.060Z</time>
      </trkpt>
      <trkpt lat="41.50683" lon="19.72527">
        <ele>60.269238</ele>
        <time>2022-05-14T09:55:18.064Z</time>
      </trkpt>
      <trkpt lat="41.50689" lon="19.72539">
        <ele>60.338206</ele>
        <time>2022-05-14T09:55:21.064Z</time>
      </trkpt>
      <trkpt lat="41.50696" lon="19.72551">
        <ele>60.408655</ele>
        <time>2022-05-14T09:55:24.088Z</time>
      </trkpt>
      <trkpt lat="41.50702" lon="19.72564">
        <ele>60.477692</ele>
        <time>2022-05-14T09:55:27.075Z</time>
      </trkpt>
      <trkpt lat="41.50709" lon="19.72576">
        <ele>60.546655</ele>
        <time>2022-05-14T09:55:30.109Z</time>
      </trkpt>
      <trkpt lat="41.50715" lon="19.72589">
        <ele>60.61669</ele>
        <time>2022-05-14T09:55:33.079Z</time>
      </trkpt>
      <trkpt lat="41.5072" lon="19.72601">
        <ele>60.684592</ele>
        <time>2022-05-14T09:55:36.141Z</time>
      </trkpt>
      <trkpt lat="41.50725" lon="19.72614">
        <ele>60.751106</ele>
        <time>2022-05-14T09:55:39.068Z</time>
      </trkpt>
      <trkpt lat="41.50731" lon="19.72627">
        <ele>60.817592</ele>
        <time>2022-05-14T09:55:42.073Z</time>
      </trkpt>
      <trkpt lat="41.50736" lon="19.7264">
        <ele>60.886025</ele>
        <time>2022-05-14T09:55:45.092Z</time>
      </trkpt>
      <trkpt lat="41.50742" lon="19.72652">
        <ele>60.95456</ele>
        <time>2022-05-14T09:55:48.075Z</time>
      </trkpt>
      <trkpt lat="41.50748" lon="19.72664">
        <ele>61.021</ele>
        <time>2022-05-14T09:55:51.044Z</time>
      </trkpt>
      <trkpt lat="41.50754" lon="19.72675">
        <ele>61.085196</ele>
        <time>2022-05-14T09:55:54.071Z</time>
      </trkpt>
      <trkpt lat="41.50762" lon="19.72686">
        <ele>61.15216</ele>
        <time>2022-05-14T09:55:57.102Z</time>
      </trkpt>
      <trkpt lat="41.50769" lon="19.72696">
        <ele>61.221504</ele>
        <time>2022-05-14T09:56:00.074Z</time>
      </trkpt>
      <trkpt lat="41.50775" lon="19.72706">
        <ele>61.292977</ele>
        <time>2022-05-14T09:56:03.065Z</time>
      </trkpt>
      <trkpt lat="41.50781" lon="19.72715">
        <ele>61.36262</ele>
        <time>2022-05-14T09:56:06.078Z</time>
      </trkpt>
      <trkpt lat="41.50788" lon="19.72724">
        <ele>61.434183</ele>
        <time>2022-05-14T09:56:09.122Z</time>
      </trkpt>
      <trkpt lat="41.50794" lon="19.72734">
        <ele>61.504666</ele>
        <time>2022-05-14T09:56:12.070Z</time>
      </trkpt>
      <trkpt lat="41.508" lon="19.72744">
        <ele>61.575086</ele>
        <time>2022-05-14T09:56:15.080Z</time>
      </trkpt>
      <trkpt lat="41.50806" lon="19.72753">
        <ele>61.64227</ele>
        <time>2022-05-14T09:56:18.104Z</time>
      </trkpt>
      <trkpt lat="41.50814" lon="19.72765">
        <ele>61.730474</ele>
        <time>2022-05-14T09:56:22.088Z</time>
      </trkpt>
      <trkpt lat="41.50819" lon="19.72774">
        <ele>61.798167</ele>
        <time>2022-05-14T09:56:25.093Z</time>
      </trkpt>
      <trkpt lat="41.50825" lon="19.72784">
        <ele>61.866722</ele>
        <time>2022-05-14T09:56:28.082Z</time>
      </trkpt>
      <trkpt lat="41.5083" lon="19.72794">
        <ele>61.938356</ele>
        <time>2022-05-14T09:56:31.091Z</time>
      </trkpt>
      <trkpt lat="41.50836" lon="19.72804">
        <ele>62.007795</ele>
        <time>2022-05-14T09:56:34.061Z</time>
      </trkpt>
      <trkpt lat="41.50842" lon="19.72815">
        <ele>62.079429</ele>
        <time>2022-05-14T09:56:37.107Z</time>
      </trkpt>
      <trkpt lat="41.50847" lon="19.72825">
        <ele>62.150618</ele>
        <time>2022-05-14T09:56:40.077Z</time>
      </trkpt>
      <trkpt lat="41.50854" lon="19.72836">
        <ele>62.233122</ele>
        <time>2022-05-14T09:56:44.064Z</time>
      </trkpt>
      <trkpt lat="41.50861" lon="19.72847">
        <ele>62.313861</ele>
        <time>2022-05-14T09:56:48.064Z</time>
      </trkpt>
      <trkpt lat="41.50868" lon="19.72857">
        <ele>62.391158</ele>
        <time>2022-05-14T09:56:51.135Z</time>
      </trkpt>
      <trkpt lat="41.50876" lon="19.72866">
        <ele>62.46647</ele>
        <time>2022-05-14T09:56:54.072Z</time>
      </trkpt>
      <trkpt lat="41.50885" lon="19.72872">
        <ele>62.509966</ele>
        <time>2022-05-14T09:56:57.079Z</time>
      </trkpt>
      <trkpt lat="41.50895" lon="19.72876">
        <ele>62.197404</ele>
        <time>2022-05-14T09:57:00.067Z</time>
      </trkpt>
      <trkpt lat="41.50907" lon="19.72878">
        <ele>61.864427</ele>
        <time>2022-05-14T09:57:03.082Z</time>
      </trkpt>
      <trkpt lat="41.50919" lon="19.72876">
        <ele>61.504979</ele>
        <time>2022-05-14T09:57:06.082Z</time>
      </trkpt>
      <trkpt lat="41.50928" lon="19.72872">
        <ele>61.244106</ele>
        <time>2022-05-14T09:57:08.080Z</time>
      </trkpt>
      <trkpt lat="41.5094" lon="19.72863">
        <ele>60.849077</ele>
        <time>2022-05-14T09:57:11.050Z</time>
      </trkpt>
      <trkpt lat="41.50948" lon="19.72855">
        <ele>60.560332</ele>
        <time>2022-05-14T09:57:13.075Z</time>
      </trkpt>
      <trkpt lat="41.50958" lon="19.72847">
        <ele>60.224056</ele>
        <time>2022-05-14T09:57:15.088Z</time>
      </trkpt>
      <trkpt lat="41.50969" lon="19.72839">
        <ele>59.865556</ele>
        <time>2022-05-14T09:57:17.098Z</time>
      </trkpt>
      <trkpt lat="41.50981" lon="19.7283">
        <ele>59.477938</ele>
        <time>2022-05-14T09:57:19.080Z</time>
      </trkpt>
      <trkpt lat="41.50994" lon="19.72824">
        <ele>59.086329</ele>
        <time>2022-05-14T09:57:21.068Z</time>
      </trkpt>
      <trkpt lat="41.51008" lon="19.72821">
        <ele>58.679769</ele>
        <time>2022-05-14T09:57:23.089Z</time>
      </trkpt>
      <trkpt lat="41.51023" lon="19.7282">
        <ele>58.244847</ele>
        <time>2022-05-14T09:57:25.076Z</time>
      </trkpt>
      <trkpt lat="41.51038" lon="19.72822">
        <ele>57.810375</ele>
        <time>2022-05-14T09:57:27.076Z</time>
      </trkpt>
      <trkpt lat="41.51053" lon="19.72828">
        <ele>57.371694</ele>
        <time>2022-05-14T09:57:29.071Z</time>
      </trkpt>
      <trkpt lat="41.51066" lon="19.72838">
        <ele>56.667587</ele>
        <time>2022-05-14T09:57:31.074Z</time>
      </trkpt>
      <trkpt lat="41.51079" lon="19.72852">
        <ele>55.914729</ele>
        <time>2022-05-14T09:57:33.057Z</time>
      </trkpt>
      <trkpt lat="41.51093" lon="19.72866">
        <ele>55.143522</ele>
        <time>2022-05-14T09:57:35.083Z</time>
      </trkpt>
      <trkpt lat="41.51105" lon="19.72881">
        <ele>54.377444</ele>
        <time>2022-05-14T09:57:37.072Z</time>
      </trkpt>
      <trkpt lat="41.51119" lon="19.72896">
        <ele>53.590029</ele>
        <time>2022-05-14T09:57:39.079Z</time>
      </trkpt>
      <trkpt lat="41.51126" lon="19.72903">
        <ele>53.181663</ele>
        <time>2022-05-14T09:57:40.064Z</time>
      </trkpt>
      <trkpt lat="41.51142" lon="19.72912">
        <ele>52.417957</ele>
        <time>2022-05-14T09:57:42.076Z</time>
      </trkpt>
      <trkpt lat="41.51158" lon="19.72918">
        <ele>51.668695</ele>
        <time>2022-05-14T09:57:44.075Z</time>
      </trkpt>
      <trkpt lat="41.51173" lon="19.7292">
        <ele>50.946973</ele>
        <time>2022-05-14T09:57:46.066Z</time>
      </trkpt>
      <trkpt lat="41.51189" lon="19.7292">
        <ele>50.232077</ele>
        <time>2022-05-14T09:57:48.058Z</time>
      </trkpt>
      <trkpt lat="41.51205" lon="19.7292">
        <ele>49.512625</ele>
        <time>2022-05-14T09:57:50.077Z</time>
      </trkpt>
      <trkpt lat="41.51221" lon="19.72921">
        <ele>49.08719</ele>
        <time>2022-05-14T09:57:52.072Z</time>
      </trkpt>
      <trkpt lat="41.51235" lon="19.72926">
        <ele>48.828544</ele>
        <time>2022-05-14T09:57:54.103Z</time>
      </trkpt>
      <trkpt lat="41.51248" lon="19.72933">
        <ele>48.580072</ele>
        <time>2022-05-14T09:57:56.057Z</time>
      </trkpt>
      <trkpt lat="41.51262" lon="19.72941">
        <ele>48.327415</ele>
        <time>2022-05-14T09:57:58.078Z</time>
      </trkpt>
      <trkpt lat="41.51276" lon="19.72948">
        <ele>48.070213</ele>
        <time>2022-05-14T09:58:00.073Z</time>
      </trkpt>
      <trkpt lat="41.51289" lon="19.72953">
        <ele>47.823622</ele>
        <time>2022-05-14T09:58:02.065Z</time>
      </trkpt>
      <trkpt lat="41.51303" lon="19.72955">
        <ele>47.588969</ele>
        <time>2022-05-14T09:58:04.070Z</time>
      </trkpt>
      <trkpt lat="41.51316" lon="19.72953">
        <ele>47.36599</ele>
        <time>2022-05-14T09:58:06.075Z</time>
      </trkpt>
      <trkpt lat="41.51328" lon="19.72949">
        <ele>47.144033</ele>
        <time>2022-05-14T09:58:08.096Z</time>
      </trkpt>
      <trkpt lat="41.5134" lon="19.72945">
        <ele>46.931092</ele>
        <time>2022-05-14T09:58:10.077Z</time>
      </trkpt>
      <trkpt lat="41.51351" lon="19.72942">
        <ele>46.734484</ele>
        <time>2022-05-14T09:58:12.067Z</time>
      </trkpt>
      <trkpt lat="41.51362" lon="19.72939">
        <ele>46.552467</ele>
        <time>2022-05-14T09:58:14.078Z</time>
      </trkpt>
      <trkpt lat="41.51371" lon="19.72935">
        <ele>46.388509</ele>
        <time>2022-05-14T09:58:16.067Z</time>
      </trkpt>
      <trkpt lat="41.51383" lon="19.72931">
        <ele>46.1612</ele>
        <time>2022-05-14T09:58:19.103Z</time>
      </trkpt>
      <trkpt lat="41.51394" lon="19.72929">
        <ele>46.198093</ele>
        <time>2022-05-14T09:58:22.072Z</time>
      </trkpt>
      <trkpt lat="41.51404" lon="19.72928">
        <ele>46.252382</ele>
        <time>2022-05-14T09:58:25.090Z</time>
      </trkpt>
      <trkpt lat="41.51414" lon="19.72927">
        <ele>46.309791</ele>
        <time>2022-05-14T09:58:28.064Z</time>
      </trkpt>
      <trkpt lat="41.51425" lon="19.72928">
        <ele>46.370512</ele>
        <time>2022-05-14T09:58:31.068Z</time>
      </trkpt>
      <trkpt lat="41.51436" lon="19.72929">
        <ele>46.431336</ele>
        <time>2022-05-14T09:58:34.081Z</time>
      </trkpt>
      <trkpt lat="41.51447" lon="19.7293">
        <ele>46.49327</ele>
        <time>2022-05-14T09:58:37.108Z</time>
      </trkpt>
      <trkpt lat="41.51459" lon="19.72931">
        <ele>46.556379</ele>
        <time>2022-05-14T09:58:40.075Z</time>
      </trkpt>
      <trkpt lat="41.51471" lon="19.72932">
        <ele>46.622701</ele>
        <time>2022-05-14T09:58:43.080Z</time>
      </trkpt>
      <trkpt lat="41.51483" lon="19.72933">
        <ele>46.692499</ele>
        <time>2022-05-14T09:58:46.101Z</time>
      </trkpt>
      <trkpt lat="41.51496" lon="19.72935">
        <ele>46.762887</ele>
        <time>2022-05-14T09:58:49.065Z</time>
      </trkpt>
      <trkpt lat="41.51508" lon="19.72936">
        <ele>46.831577</ele>
        <time>2022-05-14T09:58:52.091Z</time>
      </trkpt>
      <trkpt lat="41.5152" lon="19.72937">
        <ele>46.897951</ele>
        <time>2022-05-14T09:58:55.064Z</time>
      </trkpt>
      <trkpt lat="41.51532" lon="19.72939">
        <ele>46.963278</ele>
        <time>2022-05-14T09:58:58.098Z</time>
      </trkpt>
      <trkpt lat="41.51543" lon="19.72939">
        <ele>47.02676</ele>
        <time>2022-05-14T09:59:01.074Z</time>
      </trkpt>
      <trkpt lat="41.51554" lon="19.72941">
        <ele>47.088799</ele>
        <time>2022-05-14T09:59:04.076Z</time>
      </trkpt>
      <trkpt lat="41.51565" lon="19.72942">
        <ele>47.187665</ele>
        <time>2022-05-14T09:59:07.061Z</time>
      </trkpt>
      <trkpt lat="41.51576" lon="19.72943">
        <ele>47.53437</ele>
        <time>2022-05-14T09:59:10.067Z</time>
      </trkpt>
      <trkpt lat="41.51587" lon="19.72944">
        <ele>47.881341</ele>
        <time>2022-05-14T09:59:13.063Z</time>
      </trkpt>
      <trkpt lat="41.51597" lon="19.72945">
        <ele>48.225271</ele>
        <time>2022-05-14T09:59:16.059Z</time>
      </trkpt>
      <trkpt lat="41.51608" lon="19.72946">
        <ele>48.5602</ele>
        <time>2022-05-14T09:59:19.061Z</time>
      </trkpt>
      <trkpt lat="41.51619" lon="19.72947">
        <ele>48.910108</ele>
        <time>2022-05-14T09:59:22.069Z</time>
      </trkpt>
      <trkpt lat="41.5163" lon="19.72947">
        <ele>49.256614</ele>
        <time>2022-05-14T09:59:25.073Z</time>
      </trkpt>
      <trkpt lat="41.5164" lon="19.72948">
        <ele>49.596914</ele>
        <time>2022-05-14T09:59:28.088Z</time>
      </trkpt>
      <trkpt lat="41.5165" lon="19.72949">
        <ele>49.918</ele>
        <time>2022-05-14T09:59:31.102Z</time>
      </trkpt>
      <trkpt lat="41.5166" lon="19.72949">
        <ele>50.222954</ele>
        <time>2022-05-14T09:59:34.082Z</time>
      </trkpt>
      <trkpt lat="41.51669" lon="19.7295">
        <ele>50.511895</ele>
        <time>2022-05-14T09:59:37.080Z</time>
      </trkpt>
      <trkpt lat="41.51678" lon="19.72951">
        <ele>50.811263</ele>
        <time>2022-05-14T09:59:40.109Z</time>
      </trkpt>
      <trkpt lat="41.51687" lon="19.72951">
        <ele>51.10955</ele>
        <time>2022-05-14T09:59:43.063Z</time>
      </trkpt>
      <trkpt lat="41.51696" lon="19.72952">
        <ele>51.404789</ele>
        <time>2022-05-14T09:59:46.079Z</time>
      </trkpt>
      <trkpt lat="41.51706" lon="19.72954">
        <ele>51.709628</ele>
        <time>2022-05-14T09:59:49.110Z</time>
      </trkpt>
      <trkpt lat="41.51718" lon="19.72956">
        <ele>52.088826</ele>
        <time>2022-05-14T09:59:53.079Z</time>
      </trkpt>
      <trkpt lat="41.51728" lon="19.72959">
        <ele>52.436764</ele>
        <time>2022-05-14T09:59:57.084Z</time>
      </trkpt>
      <trkpt lat="41.51738" lon="19.72964">
        <ele>52.77893</ele>
        <time>2022-05-14T10:00:01.055Z</time>
      </trkpt>
      <trkpt lat="41.51748" lon="19.72969">
        <ele>53.24389</ele>
        <time>2022-05-14T10:00:05.071Z</time>
      </trkpt>
      <trkpt lat="41.51757" lon="19.72975">
        <ele>53.740861</ele>
        <time>2022-05-14T10:00:09.083Z</time>
      </trkpt>
      <trkpt lat="41.51767" lon="19.72982">
        <ele>54.289013</ele>
        <time>2022-05-14T10:00:14.068Z</time>
      </trkpt>
      <trkpt lat="41.51776" lon="19.72988">
        <ele>54.772319</ele>
        <time>2022-05-14T10:00:18.086Z</time>
      </trkpt>
      <trkpt lat="41.51784" lon="19.72992">
        <ele>55.233229</ele>
        <time>2022-05-14T10:00:22.074Z</time>
      </trkpt>
      <trkpt lat="41.51794" lon="19.72997">
        <ele>55.750721</ele>
        <time>2022-05-14T10:00:27.074Z</time>
      </trkpt>
      <trkpt lat="41.51805" lon="19.73">
        <ele>56.277531</ele>
        <time>2022-05-14T10:00:32.076Z</time>
      </trkpt>
      <trkpt lat="41.51817" lon="19.73003">
        <ele>56.885475</ele>
        <time>2022-05-14T10:00:37.063Z</time>
      </trkpt>
      <trkpt lat="41.5181" lon="19.72992">
        <ele>57.375411</ele>
        <time>2022-05-14T10:25:46.057Z</time>
      </trkpt>
      <trkpt lat="41.51834" lon="19.72998">
        <ele>58.535794</ele>
        <time>2022-05-14T10:32:53.085Z</time>
      </trkpt>
      <trkpt lat="41.51844" lon="19.72997">
        <ele>59.050762</ele>
        <time>2022-05-14T10:32:57.068Z</time>
      </trkpt>
      <trkpt lat="41.51853" lon="19.72994">
        <ele>59.509495</ele>
        <time>2022-05-14T10:33:00.056Z</time>
      </trkpt>
      <trkpt lat="41.51862" lon="19.72991">
        <ele>59.969139</ele>
        <time>2022-05-14T10:33:03.093Z</time>
      </trkpt>
      <trkpt lat="41.5187" lon="19.72986">
        <ele>60.423936</ele>
        <time>2022-05-14T10:33:06.068Z</time>
      </trkpt>
      <trkpt lat="41.51878" lon="19.7298">
        <ele>60.875873</ele>
        <time>2022-05-14T10:33:09.050Z</time>
      </trkpt>
      <trkpt lat="41.51886" lon="19.72974">
        <ele>61.32019</ele>
        <time>2022-05-14T10:33:12.074Z</time>
      </trkpt>
      <trkpt lat="41.51894" lon="19.72967">
        <ele>61.787164</ele>
        <time>2022-05-14T10:33:15.085Z</time>
      </trkpt>
      <trkpt lat="41.51902" lon="19.72959">
        <ele>61.913684</ele>
        <time>2022-05-14T10:33:18.069Z</time>
      </trkpt>
      <trkpt lat="41.51909" lon="19.72951">
        <ele>62.020944</ele>
        <time>2022-05-14T10:33:21.079Z</time>
      </trkpt>
      <trkpt lat="41.51917" lon="19.72942">
        <ele>62.13397</ele>
        <time>2022-05-14T10:33:24.088Z</time>
      </trkpt>
      <trkpt lat="41.51925" lon="19.72933">
        <ele>62.254433</ele>
        <time>2022-05-14T10:33:27.071Z</time>
      </trkpt>
      <trkpt lat="41.51933" lon="19.72922">
        <ele>62.379983</ele>
        <time>2022-05-14T10:33:30.109Z</time>
      </trkpt>
      <trkpt lat="41.5194" lon="19.72911">
        <ele>62.503409</ele>
        <time>2022-05-14T10:33:33.060Z</time>
      </trkpt>
      <trkpt lat="41.51947" lon="19.72899">
        <ele>62.627333</ele>
        <time>2022-05-14T10:33:36.096Z</time>
      </trkpt>
      <trkpt lat="41.51953" lon="19.72887">
        <ele>62.744738</ele>
        <time>2022-05-14T10:33:39.064Z</time>
      </trkpt>
      <trkpt lat="41.51959" lon="19.72876">
        <ele>62.860689</ele>
        <time>2022-05-14T10:33:42.085Z</time>
      </trkpt>
      <trkpt lat="41.51965" lon="19.72865">
        <ele>62.978593</ele>
        <time>2022-05-14T10:33:45.086Z</time>
      </trkpt>
      <trkpt lat="41.51971" lon="19.72853">
        <ele>63.097195</ele>
        <time>2022-05-14T10:33:48.068Z</time>
      </trkpt>
      <trkpt lat="41.51977" lon="19.72842">
        <ele>63.211064</ele>
        <time>2022-05-14T10:33:51.076Z</time>
      </trkpt>
      <trkpt lat="41.51984" lon="19.72831">
        <ele>63.330357</ele>
        <time>2022-05-14T10:33:54.076Z</time>
      </trkpt>
      <trkpt lat="41.5199" lon="19.7282">
        <ele>63.446914</ele>
        <time>2022-05-14T10:33:57.092Z</time>
      </trkpt>
      <trkpt lat="41.51997" lon="19.7281">
        <ele>63.554897</ele>
        <time>2022-05-14T10:34:00.067Z</time>
      </trkpt>
      <trkpt lat="41.52004" lon="19.72801">
        <ele>63.666827</ele>
        <time>2022-05-14T10:34:03.099Z</time>
      </trkpt>
      <trkpt lat="41.52011" lon="19.72792">
        <ele>63.778668</ele>
        <time>2022-05-14T10:34:06.091Z</time>
      </trkpt>
      <trkpt lat="41.52018" lon="19.72783">
        <ele>63.650426</ele>
        <time>2022-05-14T10:34:09.067Z</time>
      </trkpt>
      <trkpt lat="41.52026" lon="19.72775">
        <ele>63.394583</ele>
        <time>2022-05-14T10:34:12.080Z</time>
      </trkpt>
      <trkpt lat="41.52034" lon="19.72767">
        <ele>63.139065</ele>
        <time>2022-05-14T10:34:15.067Z</time>
      </trkpt>
      <trkpt lat="41.52042" lon="19.72759">
        <ele>62.870504</ele>
        <time>2022-05-14T10:34:18.095Z</time>
      </trkpt>
      <trkpt lat="41.5205" lon="19.7275">
        <ele>62.607956</ele>
        <time>2022-05-14T10:34:21.101Z</time>
      </trkpt>
      <trkpt lat="41.52058" lon="19.72742">
        <ele>62.346418</ele>
        <time>2022-05-14T10:34:24.088Z</time>
      </trkpt>
      <trkpt lat="41.52066" lon="19.72734">
        <ele>62.071576</ele>
        <time>2022-05-14T10:34:27.107Z</time>
      </trkpt>
      <trkpt lat="41.52075" lon="19.72725">
        <ele>61.782835</ele>
        <time>2022-05-14T10:34:30.079Z</time>
      </trkpt>
      <trkpt lat="41.52084" lon="19.72717">
        <ele>61.5039</ele>
        <time>2022-05-14T10:34:33.118Z</time>
      </trkpt>
      <trkpt lat="41.52093" lon="19.72709">
        <ele>61.231451</ele>
        <time>2022-05-14T10:34:36.092Z</time>
      </trkpt>
      <trkpt lat="41.52102" lon="19.72701">
        <ele>60.943731</ele>
        <time>2022-05-14T10:34:39.084Z</time>
      </trkpt>
      <trkpt lat="41.52111" lon="19.72691">
        <ele>60.629209</ele>
        <time>2022-05-14T10:34:42.063Z</time>
      </trkpt>
      <trkpt lat="41.5212" lon="19.72681">
        <ele>60.31659</ele>
        <time>2022-05-14T10:34:45.068Z</time>
      </trkpt>
      <trkpt lat="41.5213" lon="19.72672">
        <ele>60.005092</ele>
        <time>2022-05-14T10:34:48.066Z</time>
      </trkpt>
      <trkpt lat="41.52141" lon="19.72663">
        <ele>59.680485</ele>
        <time>2022-05-14T10:34:51.069Z</time>
      </trkpt>
      <trkpt lat="41.52152" lon="19.72653">
        <ele>59.331</ele>
        <time>2022-05-14T10:34:54.082Z</time>
      </trkpt>
      <trkpt lat="41.5216" lon="19.72646">
        <ele>59.062728</ele>
        <time>2022-05-14T10:34:56.093Z</time>
      </trkpt>
      <trkpt lat="41.52168" lon="19.72638">
        <ele>58.791989</ele>
        <time>2022-05-14T10:34:58.075Z</time>
      </trkpt>
      <trkpt lat="41.52177" lon="19.72631">
        <ele>58.50966</ele>
        <time>2022-05-14T10:35:00.075Z</time>
      </trkpt>
      <trkpt lat="41.52186" lon="19.72623">
        <ele>58.218176</ele>
        <time>2022-05-14T10:35:02.076Z</time>
      </trkpt>
      <trkpt lat="41.52195" lon="19.72615">
        <ele>57.917484</ele>
        <time>2022-05-14T10:35:04.064Z</time>
      </trkpt>
      <trkpt lat="41.52204" lon="19.72607">
        <ele>57.609878</ele>
        <time>2022-05-14T10:35:06.083Z</time>
      </trkpt>
      <trkpt lat="41.52213" lon="19.72598">
        <ele>57.297649</ele>
        <time>2022-05-14T10:35:08.075Z</time>
      </trkpt>
      <trkpt lat="41.52222" lon="19.7259">
        <ele>56.995793</ele>
        <time>2022-05-14T10:35:10.063Z</time>
      </trkpt>
      <trkpt lat="41.52231" lon="19.72582">
        <ele>56.6928</ele>
        <time>2022-05-14T10:35:12.108Z</time>
      </trkpt>
      <trkpt lat="41.5224" lon="19.72574">
        <ele>56.413875</ele>
        <time>2022-05-14T10:35:14.070Z</time>
      </trkpt>
      <trkpt lat="41.52248" lon="19.72567">
        <ele>56.143115</ele>
        <time>2022-05-14T10:35:16.093Z</time>
      </trkpt>
      <trkpt lat="41.52257" lon="19.7256">
        <ele>55.857336</ele>
        <time>2022-05-14T10:35:18.101Z</time>
      </trkpt>
      <trkpt lat="41.52265" lon="19.72553">
        <ele>55.591209</ele>
        <time>2022-05-14T10:35:20.077Z</time>
      </trkpt>
      <trkpt lat="41.52273" lon="19.72546">
        <ele>55.330454</ele>
        <time>2022-05-14T10:35:22.079Z</time>
      </trkpt>
      <trkpt lat="41.52284" lon="19.72536">
        <ele>54.958335</ele>
        <time>2022-05-14T10:35:25.110Z</time>
      </trkpt>
      <trkpt lat="41.52291" lon="19.7253">
        <ele>54.706008</ele>
        <time>2022-05-14T10:35:27.067Z</time>
      </trkpt>
      <trkpt lat="41.52302" lon="19.7252">
        <ele>54.335041</ele>
        <time>2022-05-14T10:35:30.066Z</time>
      </trkpt>
      <trkpt lat="41.5231" lon="19.72512">
        <ele>54.141132</ele>
        <time>2022-05-14T10:35:32.065Z</time>
      </trkpt>
      <trkpt lat="41.52317" lon="19.72505">
        <ele>54.161109</ele>
        <time>2022-05-14T10:35:34.091Z</time>
      </trkpt>
      <trkpt lat="41.52328" lon="19.72496">
        <ele>54.189902</ele>
        <time>2022-05-14T10:35:37.072Z</time>
      </trkpt>
      <trkpt lat="41.5234" lon="19.72487">
        <ele>54.218782</ele>
        <time>2022-05-14T10:35:40.080Z</time>
      </trkpt>
      <trkpt lat="41.52351" lon="19.72478">
        <ele>54.246718</ele>
        <time>2022-05-14T10:35:43.072Z</time>
      </trkpt>
      <trkpt lat="41.52359" lon="19.72472">
        <ele>54.267875</ele>
        <time>2022-05-14T10:35:45.063Z</time>
      </trkpt>
      <trkpt lat="41.52367" lon="19.72466">
        <ele>54.28788</ele>
        <time>2022-05-14T10:35:47.106Z</time>
      </trkpt>
      <trkpt lat="41.52375" lon="19.7246">
        <ele>54.308512</ele>
        <time>2022-05-14T10:35:49.080Z</time>
      </trkpt>
      <trkpt lat="41.52384" lon="19.72454">
        <ele>54.329426</ele>
        <time>2022-05-14T10:35:51.067Z</time>
      </trkpt>
      <trkpt lat="41.52392" lon="19.72447">
        <ele>54.35054</ele>
        <time>2022-05-14T10:35:53.076Z</time>
      </trkpt>
      <trkpt lat="41.52401" lon="19.72441">
        <ele>54.372234</ele>
        <time>2022-05-14T10:35:55.084Z</time>
      </trkpt>
      <trkpt lat="41.5241" lon="19.72436">
        <ele>54.393731</ele>
        <time>2022-05-14T10:35:57.098Z</time>
      </trkpt>
      <trkpt lat="41.52419" lon="19.7243">
        <ele>54.415889</ele>
        <time>2022-05-14T10:35:59.065Z</time>
      </trkpt>
      <trkpt lat="41.52428" lon="19.72424">
        <ele>54.436879</ele>
        <time>2022-05-14T10:36:01.072Z</time>
      </trkpt>
      <trkpt lat="41.52438" lon="19.72415">
        <ele>54.463574</ele>
        <time>2022-05-14T10:36:04.081Z</time>
      </trkpt>
      <trkpt lat="41.52449" lon="19.72403">
        <ele>54.493629</ele>
        <time>2022-05-14T10:36:07.088Z</time>
      </trkpt>
      <trkpt lat="41.52456" lon="19.72395">
        <ele>54.513804</ele>
        <time>2022-05-14T10:36:09.075Z</time>
      </trkpt>
      <trkpt lat="41.52463" lon="19.72386">
        <ele>54.521494</ele>
        <time>2022-05-14T10:36:11.068Z</time>
      </trkpt>
      <trkpt lat="41.52471" lon="19.72377">
        <ele>54.493735</ele>
        <time>2022-05-14T10:36:13.073Z</time>
      </trkpt>
      <trkpt lat="41.52479" lon="19.72367">
        <ele>54.466585</ele>
        <time>2022-05-14T10:36:15.078Z</time>
      </trkpt>
      <trkpt lat="41.52487" lon="19.72358">
        <ele>54.439036</ele>
        <time>2022-05-14T10:36:17.054Z</time>
      </trkpt>
      <trkpt lat="41.52495" lon="19.72349">
        <ele>54.411488</ele>
        <time>2022-05-14T10:36:19.064Z</time>
      </trkpt>
      <trkpt lat="41.52502" lon="19.72341">
        <ele>54.384699</ele>
        <time>2022-05-14T10:36:21.064Z</time>
      </trkpt>
      <trkpt lat="41.52511" lon="19.72333">
        <ele>54.357437</ele>
        <time>2022-05-14T10:36:23.081Z</time>
      </trkpt>
      <trkpt lat="41.5252" lon="19.72325">
        <ele>54.329541</ele>
        <time>2022-05-14T10:36:25.111Z</time>
      </trkpt>
      <trkpt lat="41.52529" lon="19.72319">
        <ele>54.302829</ele>
        <time>2022-05-14T10:36:27.091Z</time>
      </trkpt>
      <trkpt lat="41.52538" lon="19.72314">
        <ele>54.277628</ele>
        <time>2022-05-14T10:36:29.104Z</time>
      </trkpt>
      <trkpt lat="41.52547" lon="19.7231">
        <ele>54.252207</ele>
        <time>2022-05-14T10:36:31.060Z</time>
      </trkpt>
      <trkpt lat="41.52555" lon="19.72304">
        <ele>54.227435</ele>
        <time>2022-05-14T10:36:33.077Z</time>
      </trkpt>
      <trkpt lat="41.52564" lon="19.72299">
        <ele>54.201461</ele>
        <time>2022-05-14T10:36:35.079Z</time>
      </trkpt>
      <trkpt lat="41.52573" lon="19.72294">
        <ele>54.175487</ele>
        <time>2022-05-14T10:36:37.085Z</time>
      </trkpt>
      <trkpt lat="41.52582" lon="19.72288">
        <ele>54.14959</ele>
        <time>2022-05-14T10:36:39.072Z</time>
      </trkpt>
      <trkpt lat="41.52591" lon="19.72284">
        <ele>54.124143</ele>
        <time>2022-05-14T10:36:41.084Z</time>
      </trkpt>
      <trkpt lat="41.526" lon="19.72279">
        <ele>54.099714</ele>
        <time>2022-05-14T10:36:43.106Z</time>
      </trkpt>
      <trkpt lat="41.52609" lon="19.72276">
        <ele>54.074536</ele>
        <time>2022-05-14T10:36:45.083Z</time>
      </trkpt>
      <trkpt lat="41.52618" lon="19.72272">
        <ele>54.070612</ele>
        <time>2022-05-14T10:36:47.099Z</time>
      </trkpt>
      <trkpt lat="41.52628" lon="19.72269">
        <ele>54.133835</ele>
        <time>2022-05-14T10:36:49.111Z</time>
      </trkpt>
      <trkpt lat="41.52637" lon="19.72266">
        <ele>54.19513</ele>
        <time>2022-05-14T10:36:51.061Z</time>
      </trkpt>
      <trkpt lat="41.52646" lon="19.72263">
        <ele>54.260282</ele>
        <time>2022-05-14T10:36:53.073Z</time>
      </trkpt>
      <trkpt lat="41.52655" lon="19.7226">
        <ele>54.322341</ele>
        <time>2022-05-14T10:36:55.082Z</time>
      </trkpt>
      <trkpt lat="41.52665" lon="19.72257">
        <ele>54.386325</ele>
        <time>2022-05-14T10:36:57.079Z</time>
      </trkpt>
      <trkpt lat="41.52674" lon="19.72254">
        <ele>54.447745</ele>
        <time>2022-05-14T10:36:59.079Z</time>
      </trkpt>
      <trkpt lat="41.52687" lon="19.72249">
        <ele>54.535975</ele>
        <time>2022-05-14T10:37:02.066Z</time>
      </trkpt>
      <trkpt lat="41.52699" lon="19.72245">
        <ele>54.619291</ele>
        <time>2022-05-14T10:37:05.064Z</time>
      </trkpt>
      <trkpt lat="41.52711" lon="19.72241">
        <ele>54.702563</ele>
        <time>2022-05-14T10:37:08.100Z</time>
      </trkpt>
      <trkpt lat="41.52722" lon="19.72236">
        <ele>54.779507</ele>
        <time>2022-05-14T10:37:11.079Z</time>
      </trkpt>
      <trkpt lat="41.52733" lon="19.72232">
        <ele>54.853705</ele>
        <time>2022-05-14T10:37:14.085Z</time>
      </trkpt>
      <trkpt lat="41.52744" lon="19.72229">
        <ele>54.928959</ele>
        <time>2022-05-14T10:37:17.094Z</time>
      </trkpt>
      <trkpt lat="41.52755" lon="19.72225">
        <ele>55.005291</ele>
        <time>2022-05-14T10:37:20.060Z</time>
      </trkpt>
      <trkpt lat="41.52766" lon="19.72221">
        <ele>55.081946</ele>
        <time>2022-05-14T10:37:23.100Z</time>
      </trkpt>
      <trkpt lat="41.52778" lon="19.72217">
        <ele>55.158948</ele>
        <time>2022-05-14T10:37:26.108Z</time>
      </trkpt>
      <trkpt lat="41.5279" lon="19.72212">
        <ele>55.242854</ele>
        <time>2022-05-14T10:37:29.062Z</time>
      </trkpt>
      <trkpt lat="41.52802" lon="19.72208">
        <ele>55.385977</ele>
        <time>2022-05-14T10:37:32.069Z</time>
      </trkpt>
      <trkpt lat="41.52814" lon="19.72204">
        <ele>55.519448</ele>
        <time>2022-05-14T10:37:35.092Z</time>
      </trkpt>
      <trkpt lat="41.52825" lon="19.72201">
        <ele>55.649532</ele>
        <time>2022-05-14T10:37:38.081Z</time>
      </trkpt>
      <trkpt lat="41.52836" lon="19.72197">
        <ele>55.776294</ele>
        <time>2022-05-14T10:37:41.118Z</time>
      </trkpt>
      <trkpt lat="41.52846" lon="19.72194">
        <ele>55.895738</ele>
        <time>2022-05-14T10:37:44.069Z</time>
      </trkpt>
      <trkpt lat="41.52856" lon="19.7219">
        <ele>56.013204</ele>
        <time>2022-05-14T10:37:47.096Z</time>
      </trkpt>
      <trkpt lat="41.52867" lon="19.72187">
        <ele>56.138149</ele>
        <time>2022-05-14T10:37:50.070Z</time>
      </trkpt>
      <trkpt lat="41.52877" lon="19.72184">
        <ele>56.257716</ele>
        <time>2022-05-14T10:37:53.071Z</time>
      </trkpt>
      <trkpt lat="41.52887" lon="19.7218">
        <ele>56.376277</ele>
        <time>2022-05-14T10:37:56.066Z</time>
      </trkpt>
      <trkpt lat="41.52898" lon="19.72177">
        <ele>56.500539</ele>
        <time>2022-05-14T10:37:59.079Z</time>
      </trkpt>
      <trkpt lat="41.52909" lon="19.72172">
        <ele>56.63319</ele>
        <time>2022-05-14T10:38:02.082Z</time>
      </trkpt>
      <trkpt lat="41.52921" lon="19.72167">
        <ele>56.780598</ele>
        <time>2022-05-14T10:38:05.073Z</time>
      </trkpt>
      <trkpt lat="41.52933" lon="19.72159">
        <ele>56.933951</ele>
        <time>2022-05-14T10:38:08.099Z</time>
      </trkpt>
      <trkpt lat="41.52941" lon="19.72153">
        <ele>57.036038</ele>
        <time>2022-05-14T10:38:10.083Z</time>
      </trkpt>
      <trkpt lat="41.52953" lon="19.72144">
        <ele>57.188615</ele>
        <time>2022-05-14T10:38:13.080Z</time>
      </trkpt>
      <trkpt lat="41.52961" lon="19.72138">
        <ele>57.305363</ele>
        <time>2022-05-14T10:38:15.083Z</time>
      </trkpt>
      <trkpt lat="41.52969" lon="19.7213">
        <ele>57.495222</ele>
        <time>2022-05-14T10:38:17.083Z</time>
      </trkpt>
      <trkpt lat="41.52977" lon="19.72122">
        <ele>57.685173</ele>
        <time>2022-05-14T10:38:19.078Z</time>
      </trkpt>
      <trkpt lat="41.52985" lon="19.72115">
        <ele>57.867199</ele>
        <time>2022-05-14T10:38:21.071Z</time>
      </trkpt>
      <trkpt lat="41.52995" lon="19.72105">
        <ele>58.114051</ele>
        <time>2022-05-14T10:38:24.086Z</time>
      </trkpt>
      <trkpt lat="41.53005" lon="19.72095">
        <ele>58.352496</ele>
        <time>2022-05-14T10:38:27.069Z</time>
      </trkpt>
      <trkpt lat="41.53014" lon="19.72084">
        <ele>58.583202</ele>
        <time>2022-05-14T10:38:30.072Z</time>
      </trkpt>
      <trkpt lat="41.53022" lon="19.72073">
        <ele>58.814911</ele>
        <time>2022-05-14T10:38:33.092Z</time>
      </trkpt>
      <trkpt lat="41.5303" lon="19.72061">
        <ele>59.039394</ele>
        <time>2022-05-14T10:38:36.082Z</time>
      </trkpt>
      <trkpt lat="41.53037" lon="19.72049">
        <ele>59.25875</ele>
        <time>2022-05-14T10:38:39.086Z</time>
      </trkpt>
      <trkpt lat="41.53044" lon="19.72038">
        <ele>59.472608</ele>
        <time>2022-05-14T10:38:42.071Z</time>
      </trkpt>
      <trkpt lat="41.5305" lon="19.72025">
        <ele>59.691001</ele>
        <time>2022-05-14T10:38:45.061Z</time>
      </trkpt>
      <trkpt lat="41.53056" lon="19.72012">
        <ele>59.912973</ele>
        <time>2022-05-14T10:38:48.086Z</time>
      </trkpt>
      <trkpt lat="41.53063" lon="19.71998">
        <ele>60.149722</ele>
        <time>2022-05-14T10:38:51.091Z</time>
      </trkpt>
      <trkpt lat="41.53071" lon="19.71984">
        <ele>60.400339</ele>
        <time>2022-05-14T10:38:54.073Z</time>
      </trkpt>
      <trkpt lat="41.53078" lon="19.7197">
        <ele>60.645687</ele>
        <time>2022-05-14T10:38:57.071Z</time>
      </trkpt>
      <trkpt lat="41.53083" lon="19.7196">
        <ele>60.773209</ele>
        <time>2022-05-14T10:38:59.101Z</time>
      </trkpt>
      <trkpt lat="41.53089" lon="19.7195">
        <ele>60.833323</ele>
        <time>2022-05-14T10:39:01.065Z</time>
      </trkpt>
      <trkpt lat="41.53094" lon="19.7194">
        <ele>60.892284</ele>
        <time>2022-05-14T10:39:03.066Z</time>
      </trkpt>
      <trkpt lat="41.53099" lon="19.71929">
        <ele>60.951918</ele>
        <time>2022-05-14T10:39:05.056Z</time>
      </trkpt>
      <trkpt lat="41.53104" lon="19.71918">
        <ele>61.014933</ele>
        <time>2022-05-14T10:39:07.053Z</time>
      </trkpt>
      <trkpt lat="41.53109" lon="19.71908">
        <ele>61.074617</ele>
        <time>2022-05-14T10:39:09.087Z</time>
      </trkpt>
      <trkpt lat="41.53115" lon="19.71897">
        <ele>61.137353</ele>
        <time>2022-05-14T10:39:11.068Z</time>
      </trkpt>
      <trkpt lat="41.53121" lon="19.71887">
        <ele>61.200089</ele>
        <time>2022-05-14T10:39:13.078Z</time>
      </trkpt>
      <trkpt lat="41.53126" lon="19.71876">
        <ele>61.261007</ele>
        <time>2022-05-14T10:39:15.066Z</time>
      </trkpt>
      <trkpt lat="41.53134" lon="19.71863">
        <ele>61.344924</ele>
        <time>2022-05-14T10:39:18.087Z</time>
      </trkpt>
      <trkpt lat="41.5314" lon="19.7185">
        <ele>61.415771</ele>
        <time>2022-05-14T10:39:20.083Z</time>
      </trkpt>
      <trkpt lat="41.53146" lon="19.71839">
        <ele>61.48352</ele>
        <time>2022-05-14T10:39:22.089Z</time>
      </trkpt>
      <trkpt lat="41.53152" lon="19.71829">
        <ele>61.546255</ele>
        <time>2022-05-14T10:39:24.072Z</time>
      </trkpt>
      <trkpt lat="41.53158" lon="19.71819">
        <ele>61.607063</ele>
        <time>2022-05-14T10:39:26.078Z</time>
      </trkpt>
      <trkpt lat="41.53165" lon="19.71809">
        <ele>61.670345</ele>
        <time>2022-05-14T10:39:28.077Z</time>
      </trkpt>
      <trkpt lat="41.53173" lon="19.71801">
        <ele>61.736784</ele>
        <time>2022-05-14T10:39:30.100Z</time>
      </trkpt>
      <trkpt lat="41.53182" lon="19.71792">
        <ele>61.805153</ele>
        <time>2022-05-14T10:39:32.086Z</time>
      </trkpt>
      <trkpt lat="41.53191" lon="19.71786">
        <ele>61.870989</ele>
        <time>2022-05-14T10:39:34.110Z</time>
      </trkpt>
      <trkpt lat="41.532" lon="19.7178">
        <ele>61.616211</ele>
        <time>2022-05-14T10:39:36.059Z</time>
      </trkpt>
      <trkpt lat="41.5321" lon="19.71773">
        <ele>60.985993</ele>
        <time>2022-05-14T10:39:38.082Z</time>
      </trkpt>
      <trkpt lat="41.5322" lon="19.71766">
        <ele>60.354505</ele>
        <time>2022-05-14T10:39:40.100Z</time>
      </trkpt>
      <trkpt lat="41.5323" lon="19.7176">
        <ele>59.723364</ele>
        <time>2022-05-14T10:39:42.081Z</time>
      </trkpt>
      <trkpt lat="41.5324" lon="19.71753">
        <ele>59.081228</ele>
        <time>2022-05-14T10:39:44.069Z</time>
      </trkpt>
      <trkpt lat="41.53251" lon="19.71745">
        <ele>58.387608</ele>
        <time>2022-05-14T10:39:46.079Z</time>
      </trkpt>
      <trkpt lat="41.53262" lon="19.71738">
        <ele>57.680156</ele>
        <time>2022-05-14T10:39:48.079Z</time>
      </trkpt>
      <trkpt lat="41.53274" lon="19.7173">
        <ele>56.949471</ele>
        <time>2022-05-14T10:39:50.069Z</time>
      </trkpt>
      <trkpt lat="41.53286" lon="19.71723">
        <ele>56.225982</ele>
        <time>2022-05-14T10:39:52.069Z</time>
      </trkpt>
      <trkpt lat="41.53297" lon="19.71716">
        <ele>55.551787</ele>
        <time>2022-05-14T10:39:54.066Z</time>
      </trkpt>
      <trkpt lat="41.53307" lon="19.7171">
        <ele>54.93408</ele>
        <time>2022-05-14T10:39:56.083Z</time>
      </trkpt>
      <trkpt lat="41.53316" lon="19.71703">
        <ele>54.313854</ele>
        <time>2022-05-14T10:39:58.081Z</time>
      </trkpt>
      <trkpt lat="41.53325" lon="19.71696">
        <ele>53.736261</ele>
        <time>2022-05-14T10:40:00.072Z</time>
      </trkpt>
      <trkpt lat="41.53334" lon="19.71691">
        <ele>53.176856</ele>
        <time>2022-05-14T10:40:02.074Z</time>
      </trkpt>
      <trkpt lat="41.53343" lon="19.71685">
        <ele>52.637666</ele>
        <time>2022-05-14T10:40:04.069Z</time>
      </trkpt>
      <trkpt lat="41.53351" lon="19.7168">
        <ele>52.126049</ele>
        <time>2022-05-14T10:40:06.100Z</time>
      </trkpt>
      <trkpt lat="41.53362" lon="19.71672">
        <ele>51.688495</ele>
        <time>2022-05-14T10:40:09.065Z</time>
      </trkpt>
      <trkpt lat="41.53373" lon="19.71666">
        <ele>51.504617</ele>
        <time>2022-05-14T10:40:12.068Z</time>
      </trkpt>
      <trkpt lat="41.53383" lon="19.71659">
        <ele>51.315576</ele>
        <time>2022-05-14T10:40:15.071Z</time>
      </trkpt>
      <trkpt lat="41.53394" lon="19.71652">
        <ele>51.12047</ele>
        <time>2022-05-14T10:40:18.074Z</time>
      </trkpt>
      <trkpt lat="41.53405" lon="19.71644">
        <ele>50.91062</ele>
        <time>2022-05-14T10:40:21.069Z</time>
      </trkpt>
      <trkpt lat="41.53416" lon="19.71636">
        <ele>50.697283</ele>
        <time>2022-05-14T10:40:24.084Z</time>
      </trkpt>
      <trkpt lat="41.53428" lon="19.71628">
        <ele>50.484513</ele>
        <time>2022-05-14T10:40:27.074Z</time>
      </trkpt>
      <trkpt lat="41.53439" lon="19.7162">
        <ele>50.280471</ele>
        <time>2022-05-14T10:40:30.056Z</time>
      </trkpt>
      <trkpt lat="41.53449" lon="19.7161">
        <ele>50.072407</ele>
        <time>2022-05-14T10:40:33.081Z</time>
      </trkpt>
      <trkpt lat="41.53459" lon="19.71599">
        <ele>49.861798</ele>
        <time>2022-05-14T10:40:36.106Z</time>
      </trkpt>
      <trkpt lat="41.53468" lon="19.71587">
        <ele>49.647335</ele>
        <time>2022-05-14T10:40:39.075Z</time>
      </trkpt>
      <trkpt lat="41.53475" lon="19.71579">
        <ele>49.497346</ele>
        <time>2022-05-14T10:40:41.074Z</time>
      </trkpt>
      <trkpt lat="41.53481" lon="19.7157">
        <ele>49.346505</ele>
        <time>2022-05-14T10:40:43.080Z</time>
      </trkpt>
      <trkpt lat="41.53488" lon="19.71561">
        <ele>49.186102</ele>
        <time>2022-05-14T10:40:45.081Z</time>
      </trkpt>
      <trkpt lat="41.53495" lon="19.71552">
        <ele>49.027734</ele>
        <time>2022-05-14T10:40:47.064Z</time>
      </trkpt>
      <trkpt lat="41.53502" lon="19.71543">
        <ele>48.87227</ele>
        <time>2022-05-14T10:40:49.097Z</time>
      </trkpt>
      <trkpt lat="41.53508" lon="19.71534">
        <ele>48.911633</ele>
        <time>2022-05-14T10:40:51.083Z</time>
      </trkpt>
      <trkpt lat="41.53515" lon="19.71526">
        <ele>48.999589</ele>
        <time>2022-05-14T10:40:53.110Z</time>
      </trkpt>
      <trkpt lat="41.53522" lon="19.71517">
        <ele>49.08939</ele>
        <time>2022-05-14T10:40:55.089Z</time>
      </trkpt>
      <trkpt lat="41.53529" lon="19.71508">
        <ele>49.17637</ele>
        <time>2022-05-14T10:40:57.065Z</time>
      </trkpt>
      <trkpt lat="41.53536" lon="19.715">
        <ele>49.268711</ele>
        <time>2022-05-14T10:40:59.060Z</time>
      </trkpt>
      <trkpt lat="41.53543" lon="19.71491">
        <ele>49.355994</ele>
        <time>2022-05-14T10:41:01.053Z</time>
      </trkpt>
      <trkpt lat="41.5355" lon="19.71482">
        <ele>49.450467</ele>
        <time>2022-05-14T10:41:03.081Z</time>
      </trkpt>
      <trkpt lat="41.53556" lon="19.71473">
        <ele>49.535111</ele>
        <time>2022-05-14T10:41:05.080Z</time>
      </trkpt>
      <trkpt lat="41.53563" lon="19.71465">
        <ele>49.619957</ele>
        <time>2022-05-14T10:41:07.081Z</time>
      </trkpt>
      <trkpt lat="41.53571" lon="19.71452">
        <ele>49.74097</ele>
        <time>2022-05-14T10:41:10.064Z</time>
      </trkpt>
      <trkpt lat="41.53581" lon="19.71439">
        <ele>49.866866</ele>
        <time>2022-05-14T10:41:13.075Z</time>
      </trkpt>
      <trkpt lat="41.5359" lon="19.71428">
        <ele>49.981696</ele>
        <time>2022-05-14T10:41:16.066Z</time>
      </trkpt>
      <trkpt lat="41.53599" lon="19.71416">
        <ele>50.103771</ele>
        <time>2022-05-14T10:41:19.081Z</time>
      </trkpt>
      <trkpt lat="41.53608" lon="19.71404">
        <ele>50.227142</ele>
        <time>2022-05-14T10:41:22.070Z</time>
      </trkpt>
      <trkpt lat="41.53618" lon="19.71392">
        <ele>50.349467</ele>
        <time>2022-05-14T10:41:25.077Z</time>
      </trkpt>
      <trkpt lat="41.53628" lon="19.71382">
        <ele>50.473271</ele>
        <time>2022-05-14T10:41:28.069Z</time>
      </trkpt>
      <trkpt lat="41.53638" lon="19.71373">
        <ele>50.552629</ele>
        <time>2022-05-14T10:41:31.098Z</time>
      </trkpt>
      <trkpt lat="41.53648" lon="19.71363">
        <ele>50.592875</ele>
        <time>2022-05-14T10:41:34.084Z</time>
      </trkpt>
      <trkpt lat="41.53659" lon="19.71355">
        <ele>50.635217</ele>
        <time>2022-05-14T10:41:37.080Z</time>
      </trkpt>
      <trkpt lat="41.53671" lon="19.71346">
        <ele>50.678592</ele>
        <time>2022-05-14T10:41:40.090Z</time>
      </trkpt>
      <trkpt lat="41.53681" lon="19.71337">
        <ele>50.720822</ele>
        <time>2022-05-14T10:41:43.075Z</time>
      </trkpt>
      <trkpt lat="41.53692" lon="19.71327">
        <ele>50.763464</ele>
        <time>2022-05-14T10:41:46.070Z</time>
      </trkpt>
      <trkpt lat="41.53703" lon="19.71318">
        <ele>50.804595</ele>
        <time>2022-05-14T10:41:49.129Z</time>
      </trkpt>
      <trkpt lat="41.53714" lon="19.7131">
        <ele>50.845513</ele>
        <time>2022-05-14T10:41:52.065Z</time>
      </trkpt>
      <trkpt lat="41.53724" lon="19.71301">
        <ele>50.887611</ele>
        <time>2022-05-14T10:41:55.060Z</time>
      </trkpt>
      <trkpt lat="41.53735" lon="19.71292">
        <ele>50.928466</ele>
        <time>2022-05-14T10:41:58.078Z</time>
      </trkpt>
      <trkpt lat="41.53745" lon="19.71283">
        <ele>50.968909</ele>
        <time>2022-05-14T10:42:01.086Z</time>
      </trkpt>
      <trkpt lat="41.53754" lon="19.71275">
        <ele>51.00469</ele>
        <time>2022-05-14T10:42:04.081Z</time>
      </trkpt>
      <trkpt lat="41.53763" lon="19.71268">
        <ele>51.037201</ele>
        <time>2022-05-14T10:42:07.058Z</time>
      </trkpt>
      <trkpt lat="41.53771" lon="19.71262">
        <ele>51.069013</ele>
        <time>2022-05-14T10:42:10.092Z</time>
      </trkpt>
      <trkpt lat="41.53779" lon="19.71256">
        <ele>51.098812</ele>
        <time>2022-05-14T10:42:13.070Z</time>
      </trkpt>
      <trkpt lat="41.53787" lon="19.7125">
        <ele>51.143432</ele>
        <time>2022-05-14T10:42:16.101Z</time>
      </trkpt>
      <trkpt lat="41.53795" lon="19.71243">
        <ele>51.316648</ele>
        <time>2022-05-14T10:42:19.071Z</time>
      </trkpt>
      <trkpt lat="41.53804" lon="19.71234">
        <ele>51.533284</ele>
        <time>2022-05-14T10:42:23.088Z</time>
      </trkpt>
      <trkpt lat="41.53813" lon="19.71228">
        <ele>51.730366</ele>
        <time>2022-05-14T10:42:27.101Z</time>
      </trkpt>
      <trkpt lat="41.53823" lon="19.71219">
        <ele>51.947739</ele>
        <time>2022-05-14T10:42:31.088Z</time>
      </trkpt>
      <trkpt lat="41.53831" lon="19.71212">
        <ele>52.128836</ele>
        <time>2022-05-14T10:42:34.067Z</time>
      </trkpt>
      <trkpt lat="41.53839" lon="19.71206">
        <ele>52.30132</ele>
        <time>2022-05-14T10:42:37.065Z</time>
      </trkpt>
      <trkpt lat="41.53847" lon="19.712">
        <ele>52.480449</ele>
        <time>2022-05-14T10:42:40.081Z</time>
      </trkpt>
      <trkpt lat="41.53855" lon="19.71193">
        <ele>52.659382</ele>
        <time>2022-05-14T10:42:43.065Z</time>
      </trkpt>
      <trkpt lat="41.53864" lon="19.71186">
        <ele>52.849351</ele>
        <time>2022-05-14T10:42:46.079Z</time>
      </trkpt>
      <trkpt lat="41.53872" lon="19.71178">
        <ele>53.047762</ele>
        <time>2022-05-14T10:42:49.068Z</time>
      </trkpt>
      <trkpt lat="41.53881" lon="19.71171">
        <ele>53.250241</ele>
        <time>2022-05-14T10:42:52.092Z</time>
      </trkpt>
      <trkpt lat="41.53891" lon="19.71164">
        <ele>53.455429</ele>
        <time>2022-05-14T10:42:55.071Z</time>
      </trkpt>
      <trkpt lat="41.539" lon="19.71156">
        <ele>53.662532</ele>
        <time>2022-05-14T10:42:58.085Z</time>
      </trkpt>
      <trkpt lat="41.53908" lon="19.71147">
        <ele>53.86171</ele>
        <time>2022-05-14T10:43:01.103Z</time>
      </trkpt>
      <trkpt lat="41.53916" lon="19.71137">
        <ele>54.065858</ele>
        <time>2022-05-14T10:43:04.072Z</time>
      </trkpt>
      <trkpt lat="41.53923" lon="19.71125">
        <ele>54.291705</ele>
        <time>2022-05-14T10:43:07.072Z</time>
      </trkpt>
      <trkpt lat="41.5393" lon="19.7111">
        <ele>54.532252</ele>
        <time>2022-05-14T10:43:10.087Z</time>
      </trkpt>
      <trkpt lat="41.53938" lon="19.71095">
        <ele>54.506126</ele>
        <time>2022-05-14T10:43:13.100Z</time>
      </trkpt>
      <trkpt lat="41.53942" lon="19.71085">
        <ele>54.48728</ele>
        <time>2022-05-14T10:43:15.074Z</time>
      </trkpt>
      <trkpt lat="41.53947" lon="19.71074">
        <ele>54.468045</ele>
        <time>2022-05-14T10:43:17.083Z</time>
      </trkpt>
      <trkpt lat="41.53951" lon="19.71063">
        <ele>54.448982</ele>
        <time>2022-05-14T10:43:19.072Z</time>
      </trkpt>
      <trkpt lat="41.53956" lon="19.71052">
        <ele>54.429783</ele>
        <time>2022-05-14T10:43:21.083Z</time>
      </trkpt>
      <trkpt lat="41.53961" lon="19.71041">
        <ele>54.409602</ele>
        <time>2022-05-14T10:43:23.111Z</time>
      </trkpt>
      <trkpt lat="41.53965" lon="19.7103">
        <ele>54.38915</ele>
        <time>2022-05-14T10:43:25.069Z</time>
      </trkpt>
      <trkpt lat="41.5397" lon="19.71018">
        <ele>54.368359</ele>
        <time>2022-05-14T10:43:27.087Z</time>
      </trkpt>
      <trkpt lat="41.53976" lon="19.71006">
        <ele>54.347357</ele>
        <time>2022-05-14T10:43:29.071Z</time>
      </trkpt>
      <trkpt lat="41.53981" lon="19.70995">
        <ele>54.326193</ele>
        <time>2022-05-14T10:43:31.070Z</time>
      </trkpt>
      <trkpt lat="41.53986" lon="19.70983">
        <ele>54.30559</ele>
        <time>2022-05-14T10:43:33.074Z</time>
      </trkpt>
      <trkpt lat="41.53991" lon="19.70972">
        <ele>54.284107</ele>
        <time>2022-05-14T10:43:35.087Z</time>
      </trkpt>
      <trkpt lat="41.53997" lon="19.70959">
        <ele>54.261318</ele>
        <time>2022-05-14T10:43:37.084Z</time>
      </trkpt>
      <trkpt lat="41.54003" lon="19.70946">
        <ele>54.238077</ele>
        <time>2022-05-14T10:43:39.072Z</time>
      </trkpt>
      <trkpt lat="41.54008" lon="19.70933">
        <ele>54.214915</ele>
        <time>2022-05-14T10:43:41.071Z</time>
      </trkpt>
      <trkpt lat="41.54014" lon="19.70921">
        <ele>54.192527</ele>
        <time>2022-05-14T10:43:43.112Z</time>
      </trkpt>
      <trkpt lat="41.54019" lon="19.70909">
        <ele>54.171258</ele>
        <time>2022-05-14T10:43:45.116Z</time>
      </trkpt>
      <trkpt lat="41.54024" lon="19.70897">
        <ele>54.107142</ele>
        <time>2022-05-14T10:43:47.075Z</time>
      </trkpt>
      <trkpt lat="41.54029" lon="19.70885">
        <ele>54.007845</ele>
        <time>2022-05-14T10:43:49.068Z</time>
      </trkpt>
      <trkpt lat="41.54034" lon="19.70873">
        <ele>53.905817</ele>
        <time>2022-05-14T10:43:51.095Z</time>
      </trkpt>
      <trkpt lat="41.54039" lon="19.70861">
        <ele>53.803788</ele>
        <time>2022-05-14T10:43:53.072Z</time>
      </trkpt>
      <trkpt lat="41.54044" lon="19.70849">
        <ele>53.70077</ele>
        <time>2022-05-14T10:43:55.075Z</time>
      </trkpt>
      <trkpt lat="41.54049" lon="19.70837">
        <ele>53.600998</ele>
        <time>2022-05-14T10:43:57.097Z</time>
      </trkpt>
      <trkpt lat="41.54054" lon="19.70825">
        <ele>53.500579</ele>
        <time>2022-05-14T10:43:59.082Z</time>
      </trkpt>
      <trkpt lat="41.54059" lon="19.70813">
        <ele>53.398551</ele>
        <time>2022-05-14T10:44:01.079Z</time>
      </trkpt>
      <trkpt lat="41.54064" lon="19.70801">
        <ele>53.294413</ele>
        <time>2022-05-14T10:44:03.063Z</time>
      </trkpt>
      <trkpt lat="41.5407" lon="19.70789">
        <ele>53.190611</ele>
        <time>2022-05-14T10:44:05.078Z</time>
      </trkpt>
      <trkpt lat="41.54075" lon="19.70776">
        <ele>53.082768</ele>
        <time>2022-05-14T10:44:07.073Z</time>
      </trkpt>
      <trkpt lat="41.5408" lon="19.70763">
        <ele>52.977785</ele>
        <time>2022-05-14T10:44:09.074Z</time>
      </trkpt>
      <trkpt lat="41.54085" lon="19.70751">
        <ele>52.873175</ele>
        <time>2022-05-14T10:44:11.081Z</time>
      </trkpt>
      <trkpt lat="41.5409" lon="19.70739">
        <ele>52.768241</ele>
        <time>2022-05-14T10:44:13.090Z</time>
      </trkpt>
      <trkpt lat="41.54096" lon="19.70726">
        <ele>52.65926</ele>
        <time>2022-05-14T10:44:15.079Z</time>
      </trkpt>
      <trkpt lat="41.54101" lon="19.70712">
        <ele>52.546435</ele>
        <time>2022-05-14T10:44:17.098Z</time>
      </trkpt>
      <trkpt lat="41.54107" lon="19.707">
        <ele>52.442277</ele>
        <time>2022-05-14T10:44:19.103Z</time>
      </trkpt>
      <trkpt lat="41.54112" lon="19.70689">
        <ele>52.470006</ele>
        <time>2022-05-14T10:44:21.072Z</time>
      </trkpt>
      <trkpt lat="41.54116" lon="19.70678">
        <ele>52.669998</ele>
        <time>2022-05-14T10:44:23.063Z</time>
      </trkpt>
      <trkpt lat="41.54123" lon="19.70663">
        <ele>52.950852</ele>
        <time>2022-05-14T10:44:26.072Z</time>
      </trkpt>
      <trkpt lat="41.5413" lon="19.70648">
        <ele>53.233089</ele>
        <time>2022-05-14T10:44:29.063Z</time>
      </trkpt>
      <trkpt lat="41.54136" lon="19.70633">
        <ele>53.507332</ele>
        <time>2022-05-14T10:44:32.091Z</time>
      </trkpt>
      <trkpt lat="41.54142" lon="19.70618">
        <ele>53.779933</ele>
        <time>2022-05-14T10:44:35.109Z</time>
      </trkpt>
      <trkpt lat="41.54149" lon="19.70603">
        <ele>54.05035</ele>
        <time>2022-05-14T10:44:38.082Z</time>
      </trkpt>
      <trkpt lat="41.54155" lon="19.70589">
        <ele>54.311175</ele>
        <time>2022-05-14T10:44:41.177Z</time>
      </trkpt>
      <trkpt lat="41.54161" lon="19.70577">
        <ele>54.545679</ele>
        <time>2022-05-14T10:44:44.073Z</time>
      </trkpt>
      <trkpt lat="41.54166" lon="19.70565">
        <ele>54.765183</ele>
        <time>2022-05-14T10:44:47.078Z</time>
      </trkpt>
      <trkpt lat="41.5417" lon="19.70554">
        <ele>54.967029</ele>
        <time>2022-05-14T10:44:50.082Z</time>
      </trkpt>
      <trkpt lat="41.54177" lon="19.7054">
        <ele>55.223782</ele>
        <time>2022-05-14T10:44:54.085Z</time>
      </trkpt>
      <trkpt lat="41.54182" lon="19.70528">
        <ele>55.445097</ele>
        <time>2022-05-14T10:44:58.061Z</time>
      </trkpt>
      <trkpt lat="41.54187" lon="19.70516">
        <ele>55.670545</ele>
        <time>2022-05-14T10:45:03.108Z</time>
      </trkpt>
      <trkpt lat="41.54192" lon="19.70505">
        <ele>55.879595</ele>
        <time>2022-05-14T10:45:08.091Z</time>
      </trkpt>
      <trkpt lat="41.54197" lon="19.70494">
        <ele>56.076503</ele>
        <time>2022-05-14T10:45:13.076Z</time>
      </trkpt>
      <trkpt lat="41.54202" lon="19.70482">
        <ele>56.387366</ele>
        <time>2022-05-14T10:45:18.059Z</time>
      </trkpt>
      <trkpt lat="41.54207" lon="19.70471">
        <ele>56.853275</ele>
        <time>2022-05-14T10:45:23.094Z</time>
      </trkpt>
      <trkpt lat="41.54212" lon="19.70459">
        <ele>57.301442</ele>
        <time>2022-05-14T10:45:28.071Z</time>
      </trkpt>
      <trkpt lat="41.54217" lon="19.70447">
        <ele>57.814602</ele>
        <time>2022-05-14T10:45:34.090Z</time>
      </trkpt>
      <trkpt lat="41.54221" lon="19.70436">
        <ele>58.242104</ele>
        <time>2022-05-14T10:45:40.073Z</time>
      </trkpt>
      <trkpt lat="41.54226" lon="19.70425">
        <ele>58.705625</ele>
        <time>2022-05-14T10:45:46.082Z</time>
      </trkpt>
      <trkpt lat="41.54231" lon="19.70413">
        <ele>59.167538</ele>
        <time>2022-05-14T10:45:52.074Z</time>
      </trkpt>
      <trkpt lat="41.54237" lon="19.70401">
        <ele>59.67384</ele>
        <time>2022-05-14T10:45:58.070Z</time>
      </trkpt>
      <trkpt lat="41.54242" lon="19.70389">
        <ele>60.147228</ele>
        <time>2022-05-14T10:46:04.068Z</time>
      </trkpt>
      <trkpt lat="41.54247" lon="19.70378">
        <ele>60.615036</ele>
        <time>2022-05-14T10:46:10.089Z</time>
      </trkpt>
      <trkpt lat="41.54251" lon="19.70367">
        <ele>61.046393</ele>
        <time>2022-05-14T10:46:15.093Z</time>
      </trkpt>
      <trkpt lat="41.54256" lon="19.70356">
        <ele>61.468536</ele>
        <time>2022-05-14T10:46:20.088Z</time>
      </trkpt>
      <trkpt lat="41.54261" lon="19.70346">
        <ele>61.905107</ele>
        <time>2022-05-14T10:46:25.065Z</time>
      </trkpt>
      <trkpt lat="41.54266" lon="19.70335">
        <ele>62.347613</ele>
        <time>2022-05-14T10:46:30.063Z</time>
      </trkpt>
      <trkpt lat="41.5427" lon="19.70324">
        <ele>62.794286</ele>
        <time>2022-05-14T10:46:36.076Z</time>
      </trkpt>
      <trkpt lat="41.54275" lon="19.70313">
        <ele>63.229627</ele>
        <time>2022-05-14T10:46:41.076Z</time>
      </trkpt>
      <trkpt lat="41.5428" lon="19.70302">
        <ele>63.669668</ele>
        <time>2022-05-14T10:46:46.074Z</time>
      </trkpt>
      <trkpt lat="41.54285" lon="19.70291">
        <ele>64.144637</ele>
        <time>2022-05-14T10:46:51.128Z</time>
      </trkpt>
      <trkpt lat="41.54289" lon="19.7028">
        <ele>64.566778</ele>
        <time>2022-05-14T10:46:55.080Z</time>
      </trkpt>
      <trkpt lat="41.54294" lon="19.7027">
        <ele>64.527593</ele>
        <time>2022-05-14T10:46:59.121Z</time>
      </trkpt>
      <trkpt lat="41.543" lon="19.70258">
        <ele>64.349115</ele>
        <time>2022-05-14T10:47:03.066Z</time>
      </trkpt>
      <trkpt lat="41.54307" lon="19.70248">
        <ele>64.172188</ele>
        <time>2022-05-14T10:47:07.076Z</time>
      </trkpt>
      <trkpt lat="41.54315" lon="19.70239">
        <ele>63.992766</ele>
        <time>2022-05-14T10:47:11.081Z</time>
      </trkpt>
      <trkpt lat="41.54323" lon="19.70232">
        <ele>63.826731</ele>
        <time>2022-05-14T10:47:15.086Z</time>
      </trkpt>
      <trkpt lat="41.54333" lon="19.70227">
        <ele>63.644346</ele>
        <time>2022-05-14T10:47:19.121Z</time>
      </trkpt>
      <trkpt lat="41.54341" lon="19.70223">
        <ele>63.487589</ele>
        <time>2022-05-14T10:47:22.098Z</time>
      </trkpt>
      <trkpt lat="41.54351" lon="19.70221">
        <ele>63.316106</ele>
        <time>2022-05-14T10:47:25.068Z</time>
      </trkpt>
      <trkpt lat="41.54362" lon="19.70219">
        <ele>63.128937</ele>
        <time>2022-05-14T10:47:28.097Z</time>
      </trkpt>
      <trkpt lat="41.54373" lon="19.70219">
        <ele>62.934409</ele>
        <time>2022-05-14T10:47:31.087Z</time>
      </trkpt>
      <trkpt lat="41.54387" lon="19.7022">
        <ele>62.70334</ele>
        <time>2022-05-14T10:47:34.090Z</time>
      </trkpt>
      <trkpt lat="41.54397" lon="19.70221">
        <ele>62.524266</ele>
        <time>2022-05-14T10:47:36.126Z</time>
      </trkpt>
      <trkpt lat="41.54408" lon="19.70222">
        <ele>62.330977</ele>
        <time>2022-05-14T10:47:38.081Z</time>
      </trkpt>
      <trkpt lat="41.54421" lon="19.70223">
        <ele>62.117166</ele>
        <time>2022-05-14T10:47:40.084Z</time>
      </trkpt>
      <trkpt lat="41.54434" lon="19.70224">
        <ele>61.894508</ele>
        <time>2022-05-14T10:47:42.082Z</time>
      </trkpt>
      <trkpt lat="41.54447" lon="19.70226">
        <ele>61.659738</ele>
        <time>2022-05-14T10:47:44.071Z</time>
      </trkpt>
      <trkpt lat="41.54461" lon="19.70227">
        <ele>61.308754</ele>
        <time>2022-05-14T10:47:46.071Z</time>
      </trkpt>
      <trkpt lat="41.54476" lon="19.70229">
        <ele>60.866974</ele>
        <time>2022-05-14T10:47:48.109Z</time>
      </trkpt>
      <trkpt lat="41.54491" lon="19.7023">
        <ele>60.419178</ele>
        <time>2022-05-14T10:47:50.064Z</time>
      </trkpt>
      <trkpt lat="41.54506" lon="19.70231">
        <ele>59.947614</ele>
        <time>2022-05-14T10:47:52.067Z</time>
      </trkpt>
      <trkpt lat="41.54523" lon="19.70233">
        <ele>59.451512</ele>
        <time>2022-05-14T10:47:54.076Z</time>
      </trkpt>
      <trkpt lat="41.54539" lon="19.70232">
        <ele>58.961739</ele>
        <time>2022-05-14T10:47:56.081Z</time>
      </trkpt>
      <trkpt lat="41.54555" lon="19.70226">
        <ele>58.466177</ele>
        <time>2022-05-14T10:47:58.077Z</time>
      </trkpt>
      <trkpt lat="41.54569" lon="19.70216">
        <ele>57.979644</ele>
        <time>2022-05-14T10:48:00.089Z</time>
      </trkpt>
      <trkpt lat="41.54582" lon="19.70202">
        <ele>57.489053</ele>
        <time>2022-05-14T10:48:02.076Z</time>
      </trkpt>
      <trkpt lat="41.54594" lon="19.70187">
        <ele>56.975848</ele>
        <time>2022-05-14T10:48:04.112Z</time>
      </trkpt>
      <trkpt lat="41.54606" lon="19.70171">
        <ele>56.465413</ele>
        <time>2022-05-14T10:48:06.060Z</time>
      </trkpt>
      <trkpt lat="41.54618" lon="19.70156">
        <ele>55.974016</ele>
        <time>2022-05-14T10:48:08.087Z</time>
      </trkpt>
      <trkpt lat="41.54629" lon="19.70141">
        <ele>55.504299</ele>
        <time>2022-05-14T10:48:10.071Z</time>
      </trkpt>
      <trkpt lat="41.54641" lon="19.70126">
        <ele>55.02432</ele>
        <time>2022-05-14T10:48:12.080Z</time>
      </trkpt>
      <trkpt lat="41.54651" lon="19.70111">
        <ele>54.560911</ele>
        <time>2022-05-14T10:48:14.070Z</time>
      </trkpt>
      <trkpt lat="41.5466" lon="19.70094">
        <ele>54.115618</ele>
        <time>2022-05-14T10:48:16.108Z</time>
      </trkpt>
      <trkpt lat="41.54665" lon="19.70076">
        <ele>53.686082</ele>
        <time>2022-05-14T10:48:18.093Z</time>
      </trkpt>
      <trkpt lat="41.54668" lon="19.70057">
        <ele>53.253589</ele>
        <time>2022-05-14T10:48:20.083Z</time>
      </trkpt>
      <trkpt lat="41.54668" lon="19.70038">
        <ele>52.82529</ele>
        <time>2022-05-14T10:48:22.117Z</time>
      </trkpt>
      <trkpt lat="41.54666" lon="19.70019">
        <ele>52.40639</ele>
        <time>2022-05-14T10:48:24.084Z</time>
      </trkpt>
      <trkpt lat="41.54665" lon="19.70001">
        <ele>51.986219</ele>
        <time>2022-05-14T10:48:26.081Z</time>
      </trkpt>
      <trkpt lat="41.54663" lon="19.69983">
        <ele>51.584463</ele>
        <time>2022-05-14T10:48:28.094Z</time>
      </trkpt>
      <trkpt lat="41.54661" lon="19.69965">
        <ele>51.192544</ele>
        <time>2022-05-14T10:48:30.082Z</time>
      </trkpt>
      <trkpt lat="41.54658" lon="19.69949">
        <ele>50.807706</ele>
        <time>2022-05-14T10:48:32.056Z</time>
      </trkpt>
      <trkpt lat="41.54655" lon="19.69932">
        <ele>50.746042</ele>
        <time>2022-05-14T10:48:34.079Z</time>
      </trkpt>
      <trkpt lat="41.54652" lon="19.69915">
        <ele>50.717092</ele>
        <time>2022-05-14T10:48:36.092Z</time>
      </trkpt>
      <trkpt lat="41.54649" lon="19.699">
        <ele>50.690099</ele>
        <time>2022-05-14T10:48:38.127Z</time>
      </trkpt>
      <trkpt lat="41.54646" lon="19.69885">
        <ele>50.663204</ele>
        <time>2022-05-14T10:48:40.085Z</time>
      </trkpt>
      <trkpt lat="41.54642" lon="19.6987">
        <ele>50.637053</ele>
        <time>2022-05-14T10:48:42.071Z</time>
      </trkpt>
      <trkpt lat="41.54639" lon="19.69856">
        <ele>50.612584</ele>
        <time>2022-05-14T10:48:44.110Z</time>
      </trkpt>
      <trkpt lat="41.54636" lon="19.69844">
        <ele>50.590007</ele>
        <time>2022-05-14T10:48:46.064Z</time>
      </trkpt>
      <trkpt lat="41.54633" lon="19.69832">
        <ele>50.569345</ele>
        <time>2022-05-14T10:48:48.068Z</time>
      </trkpt>
      <trkpt lat="41.54628" lon="19.69818">
        <ele>50.543604</ele>
        <time>2022-05-14T10:48:51.098Z</time>
      </trkpt>
      <trkpt lat="41.54622" lon="19.69805">
        <ele>50.517393</ele>
        <time>2022-05-14T10:48:54.082Z</time>
      </trkpt>
      <trkpt lat="41.54615" lon="19.69792">
        <ele>50.490113</ele>
        <time>2022-05-14T10:48:57.068Z</time>
      </trkpt>
      <trkpt lat="41.54607" lon="19.6978">
        <ele>50.46191</ele>
        <time>2022-05-14T10:49:00.088Z</time>
      </trkpt>
      <trkpt lat="41.54596" lon="19.69769">
        <ele>50.432461</ele>
        <time>2022-05-14T10:49:03.080Z</time>
      </trkpt>
      <trkpt lat="41.54586" lon="19.69759">
        <ele>50.402773</ele>
        <time>2022-05-14T10:49:06.079Z</time>
      </trkpt>
      <trkpt lat="41.54575" lon="19.69749">
        <ele>50.373946</ele>
        <time>2022-05-14T10:49:09.073Z</time>
      </trkpt>
      <trkpt lat="41.54565" lon="19.6974">
        <ele>50.461553</ele>
        <time>2022-05-14T10:49:12.112Z</time>
      </trkpt>
      <trkpt lat="41.54555" lon="19.69728">
        <ele>50.604919</ele>
        <time>2022-05-14T10:49:15.073Z</time>
      </trkpt>
      <trkpt lat="41.5455" lon="19.69718">
        <ele>50.707934</ele>
        <time>2022-05-14T10:49:17.075Z</time>
      </trkpt>
      <trkpt lat="41.54545" lon="19.69707">
        <ele>50.813236</ele>
        <time>2022-05-14T10:49:19.071Z</time>
      </trkpt>
      <trkpt lat="41.54542" lon="19.69694">
        <ele>50.921716</ele>
        <time>2022-05-14T10:49:21.086Z</time>
      </trkpt>
      <trkpt lat="41.5454" lon="19.69682">
        <ele>51.028849</ele>
        <time>2022-05-14T10:49:23.064Z</time>
      </trkpt>
      <trkpt lat="41.54539" lon="19.69669">
        <ele>51.134536</ele>
        <time>2022-05-14T10:49:25.076Z</time>
      </trkpt>
      <trkpt lat="41.54539" lon="19.69656">
        <ele>51.240773</ele>
        <time>2022-05-14T10:49:27.086Z</time>
      </trkpt>
      <trkpt lat="41.54541" lon="19.69644">
        <ele>51.343382</ele>
        <time>2022-05-14T10:49:29.082Z</time>
      </trkpt>
      <trkpt lat="41.54544" lon="19.69632">
        <ele>51.449525</ele>
        <time>2022-05-14T10:49:31.076Z</time>
      </trkpt>
      <trkpt lat="41.54548" lon="19.6962">
        <ele>51.555524</ele>
        <time>2022-05-14T10:49:33.074Z</time>
      </trkpt>
      <trkpt lat="41.54552" lon="19.69609">
        <ele>51.661064</ele>
        <time>2022-05-14T10:49:35.082Z</time>
      </trkpt>
      <trkpt lat="41.54556" lon="19.69597">
        <ele>51.769035</ele>
        <time>2022-05-14T10:49:37.073Z</time>
      </trkpt>
      <trkpt lat="41.5456" lon="19.69585">
        <ele>51.877958</ele>
        <time>2022-05-14T10:49:39.085Z</time>
      </trkpt>
      <trkpt lat="41.54564" lon="19.69573">
        <ele>51.985467</ele>
        <time>2022-05-14T10:49:41.080Z</time>
      </trkpt>
      <trkpt lat="41.54568" lon="19.69562">
        <ele>52.092975</ele>
        <time>2022-05-14T10:49:43.088Z</time>
      </trkpt>
      <trkpt lat="41.54572" lon="19.6955">
        <ele>52.197944</ele>
        <time>2022-05-14T10:49:45.061Z</time>
      </trkpt>
      <trkpt lat="41.54576" lon="19.69539">
        <ele>52.302438</ele>
        <time>2022-05-14T10:49:47.089Z</time>
      </trkpt>
      <trkpt lat="41.5458" lon="19.69528">
        <ele>52.375852</ele>
        <time>2022-05-14T10:49:49.089Z</time>
      </trkpt>
      <trkpt lat="41.54584" lon="19.69517">
        <ele>52.412226</ele>
        <time>2022-05-14T10:49:51.071Z</time>
      </trkpt>
      <trkpt lat="41.5459" lon="19.69501">
        <ele>52.463238</ele>
        <time>2022-05-14T10:49:54.080Z</time>
      </trkpt>
      <trkpt lat="41.54596" lon="19.69486">
        <ele>52.512591</ele>
        <time>2022-05-14T10:49:57.107Z</time>
      </trkpt>
      <trkpt lat="41.54602" lon="19.6947">
        <ele>52.565442</ele>
        <time>2022-05-14T10:50:00.091Z</time>
      </trkpt>
      <trkpt lat="41.54608" lon="19.69455">
        <ele>52.616365</ele>
        <time>2022-05-14T10:50:03.079Z</time>
      </trkpt>
      <trkpt lat="41.54612" lon="19.69444">
        <ele>52.651689</ele>
        <time>2022-05-14T10:50:05.077Z</time>
      </trkpt>
      <trkpt lat="41.54616" lon="19.69433">
        <ele>52.687536</ele>
        <time>2022-05-14T10:50:07.076Z</time>
      </trkpt>
      <trkpt lat="41.54622" lon="19.69417">
        <ele>52.740003</ele>
        <time>2022-05-14T10:50:10.080Z</time>
      </trkpt>
      <trkpt lat="41.5463" lon="19.69403">
        <ele>52.792247</ele>
        <time>2022-05-14T10:50:13.085Z</time>
      </trkpt>
      <trkpt lat="41.54639" lon="19.69389">
        <ele>52.844342</ele>
        <time>2022-05-14T10:50:16.075Z</time>
      </trkpt>
      <trkpt lat="41.54645" lon="19.69381">
        <ele>52.880127</ele>
        <time>2022-05-14T10:50:18.103Z</time>
      </trkpt>
      <trkpt lat="41.54652" lon="19.69372">
        <ele>52.9162</ele>
        <time>2022-05-14T10:50:20.063Z</time>
      </trkpt>
      <trkpt lat="41.54659" lon="19.69365">
        <ele>52.952001</ele>
        <time>2022-05-14T10:50:22.088Z</time>
      </trkpt>
      <trkpt lat="41.5467" lon="19.69355">
        <ele>53.001955</ele>
        <time>2022-05-14T10:50:25.079Z</time>
      </trkpt>
      <trkpt lat="41.5468" lon="19.69348">
        <ele>53.048152</ele>
        <time>2022-05-14T10:50:28.079Z</time>
      </trkpt>
      <trkpt lat="41.54689" lon="19.69341">
        <ele>53.120931</ele>
        <time>2022-05-14T10:50:31.074Z</time>
      </trkpt>
      <trkpt lat="41.54698" lon="19.69334">
        <ele>53.206885</ele>
        <time>2022-05-14T10:50:34.072Z</time>
      </trkpt>
      <trkpt lat="41.54706" lon="19.69327">
        <ele>53.296016</ele>
        <time>2022-05-14T10:50:37.082Z</time>
      </trkpt>
      <trkpt lat="41.54715" lon="19.69321">
        <ele>53.38197</ele>
        <time>2022-05-14T10:50:40.075Z</time>
      </trkpt>
      <trkpt lat="41.54726" lon="19.69313">
        <ele>53.488176</ele>
        <time>2022-05-14T10:50:44.075Z</time>
      </trkpt>
      <trkpt lat="41.54734" lon="19.69305">
        <ele>53.58124</ele>
        <time>2022-05-14T10:50:48.085Z</time>
      </trkpt>
      <trkpt lat="41.54742" lon="19.69295">
        <ele>53.676064</ele>
        <time>2022-05-14T10:50:52.068Z</time>
      </trkpt>
      <trkpt lat="41.5475" lon="19.69284">
        <ele>53.775185</ele>
        <time>2022-05-14T10:50:56.085Z</time>
      </trkpt>
      <trkpt lat="41.54755" lon="19.69274">
        <ele>53.855548</ele>
        <time>2022-05-14T10:50:59.072Z</time>
      </trkpt>
      <trkpt lat="41.54758" lon="19.69262">
        <ele>53.940189</ele>
        <time>2022-05-14T10:51:02.065Z</time>
      </trkpt>
      <trkpt lat="41.54761" lon="19.69249">
        <ele>54.023753</ele>
        <time>2022-05-14T10:51:05.067Z</time>
      </trkpt>
      <trkpt lat="41.54762" lon="19.69237">
        <ele>54.107422</ele>
        <time>2022-05-14T10:51:08.097Z</time>
      </trkpt>
      <trkpt lat="41.54762" lon="19.69225">
        <ele>54.1869</ele>
        <time>2022-05-14T10:51:11.071Z</time>
      </trkpt>
      <trkpt lat="41.54761" lon="19.69212">
        <ele>54.269473</ele>
        <time>2022-05-14T10:51:14.079Z</time>
      </trkpt>
      <trkpt lat="41.54759" lon="19.692">
        <ele>54.350224</ele>
        <time>2022-05-14T10:51:17.069Z</time>
      </trkpt>
      <trkpt lat="41.54757" lon="19.69188">
        <ele>54.431534</ele>
        <time>2022-05-14T10:51:20.090Z</time>
      </trkpt>
      <trkpt lat="41.54753" lon="19.69177">
        <ele>54.51459</ele>
        <time>2022-05-14T10:51:23.086Z</time>
      </trkpt>
      <trkpt lat="41.5475" lon="19.69164">
        <ele>54.59984</ele>
        <time>2022-05-14T10:51:26.116Z</time>
      </trkpt>
      <trkpt lat="41.54747" lon="19.69152">
        <ele>54.744291</ele>
        <time>2022-05-14T10:51:29.062Z</time>
      </trkpt>
      <trkpt lat="41.54743" lon="19.69139">
        <ele>54.942253</ele>
        <time>2022-05-14T10:51:32.080Z</time>
      </trkpt>
      <trkpt lat="41.5474" lon="19.69126">
        <ele>55.142429</ele>
        <time>2022-05-14T10:51:35.080Z</time>
      </trkpt>
      <trkpt lat="41.54736" lon="19.69113">
        <ele>55.349464</ele>
        <time>2022-05-14T10:51:38.067Z</time>
      </trkpt>
      <trkpt lat="41.54732" lon="19.691">
        <ele>55.555704</ele>
        <time>2022-05-14T10:51:41.079Z</time>
      </trkpt>
      <trkpt lat="41.54729" lon="19.69087">
        <ele>55.760694</ele>
        <time>2022-05-14T10:51:44.073Z</time>
      </trkpt>
      <trkpt lat="41.54725" lon="19.69073">
        <ele>55.972456</ele>
        <time>2022-05-14T10:51:47.071Z</time>
      </trkpt>
      <trkpt lat="41.54721" lon="19.69059">
        <ele>56.190436</ele>
        <time>2022-05-14T10:51:50.083Z</time>
      </trkpt>
      <trkpt lat="41.54717" lon="19.69045">
        <ele>56.417388</ele>
        <time>2022-05-14T10:51:53.117Z</time>
      </trkpt>
      <trkpt lat="41.54714" lon="19.6903">
        <ele>56.645727</ele>
        <time>2022-05-14T10:51:56.074Z</time>
      </trkpt>
      <trkpt lat="41.54709" lon="19.69016">
        <ele>56.876798</ele>
        <time>2022-05-14T10:51:59.067Z</time>
      </trkpt>
      <trkpt lat="41.54705" lon="19.69002">
        <ele>57.09961</ele>
        <time>2022-05-14T10:52:02.088Z</time>
      </trkpt>
      <trkpt lat="41.54702" lon="19.68987">
        <ele>57.324514</ele>
        <time>2022-05-14T10:52:05.072Z</time>
      </trkpt>
      <trkpt lat="41.54698" lon="19.68974">
        <ele>57.536349</ele>
        <time>2022-05-14T10:52:08.074Z</time>
      </trkpt>
      <trkpt lat="41.54696" lon="19.68962">
        <ele>57.719824</ele>
        <time>2022-05-14T10:52:11.089Z</time>
      </trkpt>
      <trkpt lat="41.54693" lon="19.6895">
        <ele>57.897953</ele>
        <time>2022-05-14T10:52:14.071Z</time>
      </trkpt>
      <trkpt lat="41.54689" lon="19.68936">
        <ele>58.126267</ele>
        <time>2022-05-14T10:52:18.072Z</time>
      </trkpt>
      <trkpt lat="41.54685" lon="19.68921">
        <ele>58.351621</ele>
        <time>2022-05-14T10:52:22.083Z</time>
      </trkpt>
      <trkpt lat="41.54681" lon="19.68908">
        <ele>58.554813</ele>
        <time>2022-05-14T10:52:26.072Z</time>
      </trkpt>
      <trkpt lat="41.54678" lon="19.68896">
        <ele>58.740045</ele>
        <time>2022-05-14T10:52:30.076Z</time>
      </trkpt>
      <trkpt lat="41.54674" lon="19.68884">
        <ele>58.939328</ele>
        <time>2022-05-14T10:52:34.072Z</time>
      </trkpt>
      <trkpt lat="41.5467" lon="19.68872">
        <ele>59.143152</ele>
        <time>2022-05-14T10:52:38.065Z</time>
      </trkpt>
      <trkpt lat="41.54663" lon="19.6886">
        <ele>59.365294</ele>
        <time>2022-05-14T10:52:42.084Z</time>
      </trkpt>
      <trkpt lat="41.54655" lon="19.68848">
        <ele>59.600278</ele>
        <time>2022-05-14T10:52:46.129Z</time>
      </trkpt>
      <trkpt lat="41.54648" lon="19.68839">
        <ele>59.785654</ele>
        <time>2022-05-14T10:52:49.069Z</time>
      </trkpt>
      <trkpt lat="41.54642" lon="19.6883">
        <ele>59.969282</ele>
        <time>2022-05-14T10:52:52.070Z</time>
      </trkpt>
      <trkpt lat="41.54635" lon="19.68821">
        <ele>60.1542</ele>
        <time>2022-05-14T10:52:55.081Z</time>
      </trkpt>
      <trkpt lat="41.54629" lon="19.6881">
        <ele>60.351669</ele>
        <time>2022-05-14T10:52:58.064Z</time>
      </trkpt>
      <trkpt lat="41.54624" lon="19.68798">
        <ele>60.555043</ele>
        <time>2022-05-14T10:53:01.086Z</time>
      </trkpt>
      <trkpt lat="41.54621" lon="19.68786">
        <ele>60.747942</ele>
        <time>2022-05-14T10:53:04.062Z</time>
      </trkpt>
      <trkpt lat="41.5462" lon="19.68773">
        <ele>60.935402</ele>
        <time>2022-05-14T10:53:07.082Z</time>
      </trkpt>
      <trkpt lat="41.54621" lon="19.68761">
        <ele>61.113602</ele>
        <time>2022-05-14T10:53:10.080Z</time>
      </trkpt>
      <trkpt lat="41.54624" lon="19.68747">
        <ele>61.331772</ele>
        <time>2022-05-14T10:53:14.121Z</time>
      </trkpt>
      <trkpt lat="41.54627" lon="19.68733">
        <ele>61.554442</ele>
        <time>2022-05-14T10:53:18.054Z</time>
      </trkpt>
      <trkpt lat="41.54631" lon="19.68718">
        <ele>61.769457</ele>
        <time>2022-05-14T10:53:22.093Z</time>
      </trkpt>
      <trkpt lat="41.54635" lon="19.68706">
        <ele>61.897895</ele>
        <time>2022-05-14T10:53:25.076Z</time>
      </trkpt>
      <trkpt lat="41.5464" lon="19.68695">
        <ele>62.036001</ele>
        <time>2022-05-14T10:53:28.075Z</time>
      </trkpt>
      <trkpt lat="41.54646" lon="19.68686">
        <ele>62.171104</ele>
        <time>2022-05-14T10:53:31.083Z</time>
      </trkpt>
      <trkpt lat="41.54655" lon="19.68679">
        <ele>62.307254</ele>
        <time>2022-05-14T10:53:34.085Z</time>
      </trkpt>
      <trkpt lat="41.54663" lon="19.68675">
        <ele>62.436263</ele>
        <time>2022-05-14T10:53:37.118Z</time>
      </trkpt>
      <trkpt lat="41.54674" lon="19.68673">
        <ele>62.582544</ele>
        <time>2022-05-14T10:53:40.082Z</time>
      </trkpt>
      <trkpt lat="41.54686" lon="19.68671">
        <ele>62.754841</ele>
        <time>2022-05-14T10:53:43.082Z</time>
      </trkpt>
      <trkpt lat="41.54698" lon="19.68667">
        <ele>62.931385</ele>
        <time>2022-05-14T10:53:46.078Z</time>
      </trkpt>
      <trkpt lat="41.54709" lon="19.68662">
        <ele>63.096374</ele>
        <time>2022-05-14T10:53:49.077Z</time>
      </trkpt>
      <trkpt lat="41.5472" lon="19.68653">
        <ele>63.268716</ele>
        <time>2022-05-14T10:53:52.083Z</time>
      </trkpt>
      <trkpt lat="41.5473" lon="19.68643">
        <ele>63.450524</ele>
        <time>2022-05-14T10:53:55.111Z</time>
      </trkpt>
      <trkpt lat="41.54739" lon="19.68631">
        <ele>63.622513</ele>
        <time>2022-05-14T10:53:58.088Z</time>
      </trkpt>
      <trkpt lat="41.54748" lon="19.68618">
        <ele>63.811356</ele>
        <time>2022-05-14T10:54:01.089Z</time>
      </trkpt>
      <trkpt lat="41.54753" lon="19.68607">
        <ele>63.940127</ele>
        <time>2022-05-14T10:54:03.083Z</time>
      </trkpt>
      <trkpt lat="41.54756" lon="19.68596">
        <ele>64.071135</ele>
        <time>2022-05-14T10:54:05.067Z</time>
      </trkpt>
      <trkpt lat="41.54759" lon="19.68583">
        <ele>64.213931</ele>
        <time>2022-05-14T10:54:07.092Z</time>
      </trkpt>
      <trkpt lat="41.54762" lon="19.68569">
        <ele>64.116179</ele>
        <time>2022-05-14T10:54:09.057Z</time>
      </trkpt>
      <trkpt lat="41.54764" lon="19.68556">
        <ele>63.946674</ele>
        <time>2022-05-14T10:54:11.081Z</time>
      </trkpt>
      <trkpt lat="41.54766" lon="19.68542">
        <ele>63.76495</ele>
        <time>2022-05-14T10:54:13.087Z</time>
      </trkpt>
      <trkpt lat="41.54768" lon="19.68527">
        <ele>63.574652</ele>
        <time>2022-05-14T10:54:15.082Z</time>
      </trkpt>
      <trkpt lat="41.5477" lon="19.68511">
        <ele>63.377918</ele>
        <time>2022-05-14T10:54:17.082Z</time>
      </trkpt>
      <trkpt lat="41.54772" lon="19.68496">
        <ele>63.186395</ele>
        <time>2022-05-14T10:54:19.069Z</time>
      </trkpt>
      <trkpt lat="41.54774" lon="19.68481">
        <ele>62.992111</ele>
        <time>2022-05-14T10:54:21.106Z</time>
      </trkpt>
      <trkpt lat="41.54777" lon="19.68466">
        <ele>62.802051</ele>
        <time>2022-05-14T10:54:23.073Z</time>
      </trkpt>
      <trkpt lat="41.5478" lon="19.68451">
        <ele>62.612339</ele>
        <time>2022-05-14T10:54:25.071Z</time>
      </trkpt>
      <trkpt lat="41.54783" lon="19.68436">
        <ele>62.418346</ele>
        <time>2022-05-14T10:54:27.088Z</time>
      </trkpt>
      <trkpt lat="41.54785" lon="19.68421">
        <ele>62.222482</ele>
        <time>2022-05-14T10:54:29.090Z</time>
      </trkpt>
      <trkpt lat="41.54788" lon="19.68406">
        <ele>62.034883</ele>
        <time>2022-05-14T10:54:31.082Z</time>
      </trkpt>
      <trkpt lat="41.54789" lon="19.68392">
        <ele>61.855284</ele>
        <time>2022-05-14T10:54:33.078Z</time>
      </trkpt>
      <trkpt lat="41.54792" lon="19.68378">
        <ele>61.668137</ele>
        <time>2022-05-14T10:54:35.092Z</time>
      </trkpt>
      <trkpt lat="41.54793" lon="19.68364">
        <ele>61.492413</ele>
        <time>2022-05-14T10:54:37.090Z</time>
      </trkpt>
      <trkpt lat="41.54792" lon="19.68349">
        <ele>61.311541</ele>
        <time>2022-05-14T10:54:39.079Z</time>
      </trkpt>
      <trkpt lat="41.54789" lon="19.68334">
        <ele>61.093854</ele>
        <time>2022-05-14T10:54:41.169Z</time>
      </trkpt>
      <trkpt lat="41.54783" lon="19.68318">
        <ele>60.845592</ele>
        <time>2022-05-14T10:54:43.099Z</time>
      </trkpt>
      <trkpt lat="41.54777" lon="19.68304">
        <ele>60.611997</ele>
        <time>2022-05-14T10:54:45.083Z</time>
      </trkpt>
      <trkpt lat="41.54771" lon="19.68289">
        <ele>60.376537</ele>
        <time>2022-05-14T10:54:47.081Z</time>
      </trkpt>
      <trkpt lat="41.54764" lon="19.68275">
        <ele>60.147639</ele>
        <time>2022-05-14T10:54:49.070Z</time>
      </trkpt>
      <trkpt lat="41.54758" lon="19.68262">
        <ele>59.927958</ele>
        <time>2022-05-14T10:54:51.072Z</time>
      </trkpt>
      <trkpt lat="41.54753" lon="19.68249">
        <ele>59.714133</ele>
        <time>2022-05-14T10:54:53.100Z</time>
      </trkpt>
      <trkpt lat="41.54747" lon="19.68237">
        <ele>59.507393</ele>
        <time>2022-05-14T10:54:55.080Z</time>
      </trkpt>
      <trkpt lat="41.54742" lon="19.68224">
        <ele>59.303096</ele>
        <time>2022-05-14T10:54:57.076Z</time>
      </trkpt>
      <trkpt lat="41.54736" lon="19.68212">
        <ele>59.108043</ele>
        <time>2022-05-14T10:54:59.065Z</time>
      </trkpt>
      <trkpt lat="41.54731" lon="19.682">
        <ele>58.91338</ele>
        <time>2022-05-14T10:55:01.078Z</time>
      </trkpt>
      <trkpt lat="41.54727" lon="19.68189">
        <ele>58.724805</ele>
        <time>2022-05-14T10:55:03.096Z</time>
      </trkpt>
      <trkpt lat="41.54722" lon="19.68177">
        <ele>58.530705</ele>
        <time>2022-05-14T10:55:05.087Z</time>
      </trkpt>
      <trkpt lat="41.54719" lon="19.68164">
        <ele>58.346189</ele>
        <time>2022-05-14T10:55:07.136Z</time>
      </trkpt>
      <trkpt lat="41.54716" lon="19.68152">
        <ele>58.159614</ele>
        <time>2022-05-14T10:55:09.084Z</time>
      </trkpt>
      <trkpt lat="41.54716" lon="19.68136">
        <ele>57.942727</ele>
        <time>2022-05-14T10:55:12.117Z</time>
      </trkpt>
      <trkpt lat="41.54718" lon="19.68121">
        <ele>57.777171</ele>
        <time>2022-05-14T10:55:16.096Z</time>
      </trkpt>
      <trkpt lat="41.54721" lon="19.68109">
        <ele>57.674922</ele>
        <time>2022-05-14T10:55:19.073Z</time>
      </trkpt>
      <trkpt lat="41.54726" lon="19.68098">
        <ele>57.569305</ele>
        <time>2022-05-14T10:55:22.144Z</time>
      </trkpt>
      <trkpt lat="41.54731" lon="19.68088">
        <ele>57.474747</ele>
        <time>2022-05-14T10:55:25.071Z</time>
      </trkpt>
      <trkpt lat="41.54736" lon="19.68077">
        <ele>57.371915</ele>
        <time>2022-05-14T10:55:29.073Z</time>
      </trkpt>
      <trkpt lat="41.54743" lon="19.68067">
        <ele>57.268573</ele>
        <time>2022-05-14T10:55:32.085Z</time>
      </trkpt>
      <trkpt lat="41.5475" lon="19.68054">
        <ele>57.143796</ele>
        <time>2022-05-14T10:55:35.056Z</time>
      </trkpt>
      <trkpt lat="41.54756" lon="19.68041">
        <ele>57.026884</ele>
        <time>2022-05-14T10:55:38.078Z</time>
      </trkpt>
      <trkpt lat="41.54761" lon="19.68029">
        <ele>56.907958</ele>
        <time>2022-05-14T10:55:41.072Z</time>
      </trkpt>
      <trkpt lat="41.54767" lon="19.68015">
        <ele>56.789453</ele>
        <time>2022-05-14T10:55:44.094Z</time>
      </trkpt>
      <trkpt lat="41.54772" lon="19.68001">
        <ele>56.662707</ele>
        <time>2022-05-14T10:55:47.074Z</time>
      </trkpt>
      <trkpt lat="41.54776" lon="19.67987">
        <ele>56.546516</ele>
        <time>2022-05-14T10:55:50.077Z</time>
      </trkpt>
      <trkpt lat="41.5478" lon="19.67974">
        <ele>56.432723</ele>
        <time>2022-05-14T10:55:53.084Z</time>
      </trkpt>
      <trkpt lat="41.54784" lon="19.67961">
        <ele>56.323708</ele>
        <time>2022-05-14T10:55:56.080Z</time>
      </trkpt>
      <trkpt lat="41.54786" lon="19.67949">
        <ele>56.222115</ele>
        <time>2022-05-14T10:55:59.098Z</time>
      </trkpt>
      <trkpt lat="41.54789" lon="19.67937">
        <ele>56.12281</ele>
        <time>2022-05-14T10:56:02.069Z</time>
      </trkpt>
      <trkpt lat="41.54792" lon="19.67921">
        <ele>55.998452</ele>
        <time>2022-05-14T10:56:05.088Z</time>
      </trkpt>
      <trkpt lat="41.54794" lon="19.67906">
        <ele>56.060063</ele>
        <time>2022-05-14T10:56:08.074Z</time>
      </trkpt>
      <trkpt lat="41.54798" lon="19.67891">
        <ele>56.269528</ele>
        <time>2022-05-14T10:56:11.081Z</time>
      </trkpt>
      <trkpt lat="41.54803" lon="19.67878">
        <ele>56.467969</ele>
        <time>2022-05-14T10:56:14.088Z</time>
      </trkpt>
      <trkpt lat="41.54809" lon="19.67865">
        <ele>56.675427</ele>
        <time>2022-05-14T10:56:17.105Z</time>
      </trkpt>
      <trkpt lat="41.54817" lon="19.67858">
        <ele>56.861473</ele>
        <time>2022-05-14T10:56:20.081Z</time>
      </trkpt>
      <trkpt lat="41.54828" lon="19.67853">
        <ele>57.07023</ele>
        <time>2022-05-14T10:56:23.088Z</time>
      </trkpt>
      <trkpt lat="41.54838" lon="19.67849">
        <ele>57.247498</ele>
        <time>2022-05-14T10:56:26.075Z</time>
      </trkpt>
      <trkpt lat="41.54847" lon="19.67845">
        <ele>57.434459</ele>
        <time>2022-05-14T10:56:31.079Z</time>
      </trkpt>
      <trkpt lat="41.54858" lon="19.67842">
        <ele>57.628641</ele>
        <time>2022-05-14T10:56:35.126Z</time>
      </trkpt>
      <trkpt lat="41.54867" lon="19.67838">
        <ele>57.806279</ele>
        <time>2022-05-14T10:56:38.105Z</time>
      </trkpt>
      <trkpt lat="41.54877" lon="19.67834">
        <ele>57.996892</ele>
        <time>2022-05-14T10:56:41.064Z</time>
      </trkpt>
      <trkpt lat="41.54887" lon="19.67831">
        <ele>58.184342</ele>
        <time>2022-05-14T10:56:44.077Z</time>
      </trkpt>
      <trkpt lat="41.54897" lon="19.67827">
        <ele>58.370376</ele>
        <time>2022-05-14T10:56:47.077Z</time>
      </trkpt>
      <trkpt lat="41.54907" lon="19.67823">
        <ele>58.55132</ele>
        <time>2022-05-14T10:56:50.101Z</time>
      </trkpt>
      <trkpt lat="41.54916" lon="19.6782">
        <ele>58.729298</ele>
        <time>2022-05-14T10:56:53.069Z</time>
      </trkpt>
      <trkpt lat="41.54925" lon="19.67817">
        <ele>58.896728</ele>
        <time>2022-05-14T10:56:56.075Z</time>
      </trkpt>
      <trkpt lat="41.54934" lon="19.67814">
        <ele>59.069615</ele>
        <time>2022-05-14T10:56:59.079Z</time>
      </trkpt>
      <trkpt lat="41.54944" lon="19.67811">
        <ele>59.286688</ele>
        <time>2022-05-14T10:57:02.069Z</time>
      </trkpt>
      <trkpt lat="41.54953" lon="19.67807">
        <ele>59.632529</ele>
        <time>2022-05-14T10:57:05.072Z</time>
      </trkpt>
      <trkpt lat="41.54963" lon="19.67803">
        <ele>60.020859</ele>
        <time>2022-05-14T10:57:08.063Z</time>
      </trkpt>
      <trkpt lat="41.54973" lon="19.678">
        <ele>60.404071</ele>
        <time>2022-05-14T10:57:11.078Z</time>
      </trkpt>
      <trkpt lat="41.54982" lon="19.67797">
        <ele>60.778242</ele>
        <time>2022-05-14T10:57:14.121Z</time>
      </trkpt>
      <trkpt lat="41.54991" lon="19.67793">
        <ele>61.127661</ele>
        <time>2022-05-14T10:57:17.087Z</time>
      </trkpt>
      <trkpt lat="41.55001" lon="19.6779">
        <ele>61.488597</ele>
        <time>2022-05-14T10:57:20.102Z</time>
      </trkpt>
      <trkpt lat="41.5501" lon="19.67786">
        <ele>61.832904</ele>
        <time>2022-05-14T10:57:23.084Z</time>
      </trkpt>
      <trkpt lat="41.55018" lon="19.67782">
        <ele>62.184757</ele>
        <time>2022-05-14T10:57:26.120Z</time>
      </trkpt>
      <trkpt lat="41.55028" lon="19.6778">
        <ele>62.560196</ele>
        <time>2022-05-14T10:57:29.109Z</time>
      </trkpt>
      <trkpt lat="41.55039" lon="19.67778">
        <ele>62.967188</ele>
        <time>2022-05-14T10:57:33.087Z</time>
      </trkpt>
      <trkpt lat="41.55049" lon="19.67774">
        <ele>63.346062</ele>
        <time>2022-05-14T10:57:37.094Z</time>
      </trkpt>
      <trkpt lat="41.55058" lon="19.67771">
        <ele>63.681437</ele>
        <time>2022-05-14T10:57:40.087Z</time>
      </trkpt>
      <trkpt lat="41.55067" lon="19.67768">
        <ele>64.035218</ele>
        <time>2022-05-14T10:57:43.102Z</time>
      </trkpt>
      <trkpt lat="41.55076" lon="19.67764">
        <ele>64.40332</ele>
        <time>2022-05-14T10:57:46.077Z</time>
      </trkpt>
      <trkpt lat="41.55088" lon="19.6776">
        <ele>64.835485</ele>
        <time>2022-05-14T10:57:50.074Z</time>
      </trkpt>
      <trkpt lat="41.55096" lon="19.67757">
        <ele>65.173356</ele>
        <time>2022-05-14T10:57:53.083Z</time>
      </trkpt>
      <trkpt lat="41.55106" lon="19.67754">
        <ele>65.542873</ele>
        <time>2022-05-14T10:57:56.085Z</time>
      </trkpt>
      <trkpt lat="41.55115" lon="19.67751">
        <ele>65.905174</ele>
        <time>2022-05-14T10:57:59.080Z</time>
      </trkpt>
      <trkpt lat="41.55125" lon="19.67746">
        <ele>65.655637</ele>
        <time>2022-05-14T10:58:02.083Z</time>
      </trkpt>
      <trkpt lat="41.55136" lon="19.67742">
        <ele>65.384029</ele>
        <time>2022-05-14T10:58:05.059Z</time>
      </trkpt>
      <trkpt lat="41.55146" lon="19.67738">
        <ele>65.117805</ele>
        <time>2022-05-14T10:58:08.077Z</time>
      </trkpt>
      <trkpt lat="41.55156" lon="19.67735">
        <ele>64.854112</ele>
        <time>2022-05-14T10:58:11.089Z</time>
      </trkpt>
      <trkpt lat="41.55165" lon="19.67731">
        <ele>64.62363</ele>
        <time>2022-05-14T10:58:14.088Z</time>
      </trkpt>
      <trkpt lat="41.55175" lon="19.67728">
        <ele>64.340321</ele>
        <time>2022-05-14T10:58:18.065Z</time>
      </trkpt>
      <trkpt lat="41.55187" lon="19.67726">
        <ele>64.051452</ele>
        <time>2022-05-14T10:58:22.063Z</time>
      </trkpt>
      <trkpt lat="41.55198" lon="19.67724">
        <ele>63.77757</ele>
        <time>2022-05-14T10:58:26.090Z</time>
      </trkpt>
      <trkpt lat="41.55209" lon="19.67724">
        <ele>63.488965</ele>
        <time>2022-05-14T10:58:30.078Z</time>
      </trkpt>
      <trkpt lat="41.55218" lon="19.67723">
        <ele>63.258708</ele>
        <time>2022-05-14T10:58:33.083Z</time>
      </trkpt>
      <trkpt lat="41.55228" lon="19.67721">
        <ele>63.011707</ele>
        <time>2022-05-14T10:58:36.072Z</time>
      </trkpt>
      <trkpt lat="41.55238" lon="19.67721">
        <ele>62.758872</ele>
        <time>2022-05-14T10:58:39.083Z</time>
      </trkpt>
      <trkpt lat="41.55248" lon="19.6772">
        <ele>62.49056</ele>
        <time>2022-05-14T10:58:42.080Z</time>
      </trkpt>
      <trkpt lat="41.55259" lon="19.67719">
        <ele>62.214775</ele>
        <time>2022-05-14T10:58:45.078Z</time>
      </trkpt>
      <trkpt lat="41.5527" lon="19.6772">
        <ele>61.944039</ele>
        <time>2022-05-14T10:58:48.089Z</time>
      </trkpt>
      <trkpt lat="41.5528" lon="19.67721">
        <ele>61.69591</ele>
        <time>2022-05-14T10:58:51.070Z</time>
      </trkpt>
      <trkpt lat="41.55289" lon="19.67721">
        <ele>61.450704</ele>
        <time>2022-05-14T10:58:54.065Z</time>
      </trkpt>
      <trkpt lat="41.55299" lon="19.67721">
        <ele>61.365515</ele>
        <time>2022-05-14T10:58:57.118Z</time>
      </trkpt>
      <trkpt lat="41.5531" lon="19.67721">
        <ele>61.360941</ele>
        <time>2022-05-14T10:59:00.080Z</time>
      </trkpt>
      <trkpt lat="41.5532" lon="19.67721">
        <ele>61.356412</ele>
        <time>2022-05-14T10:59:03.073Z</time>
      </trkpt>
      <trkpt lat="41.5533" lon="19.67722">
        <ele>61.352099</ele>
        <time>2022-05-14T10:59:06.071Z</time>
      </trkpt>
      <trkpt lat="41.5534" lon="19.67721">
        <ele>61.34743</ele>
        <time>2022-05-14T10:59:09.061Z</time>
      </trkpt>
      <trkpt lat="41.55351" lon="19.67721">
        <ele>61.342549</ele>
        <time>2022-05-14T10:59:12.085Z</time>
      </trkpt>
      <trkpt lat="41.55362" lon="19.67721">
        <ele>61.337975</ele>
        <time>2022-05-14T10:59:15.080Z</time>
      </trkpt>
      <trkpt lat="41.55372" lon="19.67721">
        <ele>61.33371</ele>
        <time>2022-05-14T10:59:18.094Z</time>
      </trkpt>
      <trkpt lat="41.55381" lon="19.6772">
        <ele>61.329573</ele>
        <time>2022-05-14T10:59:21.080Z</time>
      </trkpt>
      <trkpt lat="41.55392" lon="19.6772">
        <ele>61.324779</ele>
        <time>2022-05-14T10:59:25.063Z</time>
      </trkpt>
      <trkpt lat="41.55402" lon="19.6772">
        <ele>61.32038</ele>
        <time>2022-05-14T10:59:28.058Z</time>
      </trkpt>
      <trkpt lat="41.55413" lon="19.67718">
        <ele>61.315605</ele>
        <time>2022-05-14T10:59:31.071Z</time>
      </trkpt>
      <trkpt lat="41.55423" lon="19.67717">
        <ele>61.311059</ele>
        <time>2022-05-14T10:59:34.063Z</time>
      </trkpt>
      <trkpt lat="41.55433" lon="19.67718">
        <ele>61.306785</ele>
        <time>2022-05-14T10:59:37.085Z</time>
      </trkpt>
      <trkpt lat="41.55442" lon="19.67718">
        <ele>61.302608</ele>
        <time>2022-05-14T10:59:40.087Z</time>
      </trkpt>
      <trkpt lat="41.55452" lon="19.67719">
        <ele>61.298246</ele>
        <time>2022-05-14T10:59:43.080Z</time>
      </trkpt>
      <trkpt lat="41.55462" lon="19.67719">
        <ele>61.293761</ele>
        <time>2022-05-14T10:59:46.089Z</time>
      </trkpt>
      <trkpt lat="41.55473" lon="19.67718">
        <ele>61.299666</ele>
        <time>2022-05-14T10:59:49.088Z</time>
      </trkpt>
      <trkpt lat="41.55483" lon="19.67718">
        <ele>61.528562</ele>
        <time>2022-05-14T10:59:52.053Z</time>
      </trkpt>
      <trkpt lat="41.55493" lon="19.67717">
        <ele>61.748436</ele>
        <time>2022-05-14T10:59:55.086Z</time>
      </trkpt>
      <trkpt lat="41.55502" lon="19.67717">
        <ele>61.961646</ele>
        <time>2022-05-14T10:59:58.080Z</time>
      </trkpt>
      <trkpt lat="41.55512" lon="19.67717">
        <ele>62.183718</ele>
        <time>2022-05-14T11:00:01.083Z</time>
      </trkpt>
      <trkpt lat="41.55522" lon="19.67716">
        <ele>62.403803</ele>
        <time>2022-05-14T11:00:04.082Z</time>
      </trkpt>
      <trkpt lat="41.55531" lon="19.67716">
        <ele>62.614605</ele>
        <time>2022-05-14T11:00:07.087Z</time>
      </trkpt>
      <trkpt lat="41.55541" lon="19.67716">
        <ele>62.825414</ele>
        <time>2022-05-14T11:00:10.079Z</time>
      </trkpt>
      <trkpt lat="41.5555" lon="19.67715">
        <ele>63.031839</ele>
        <time>2022-05-14T11:00:13.092Z</time>
      </trkpt>
      <trkpt lat="41.55559" lon="19.67715">
        <ele>63.240405</ele>
        <time>2022-05-14T11:00:16.103Z</time>
      </trkpt>
      <trkpt lat="41.55569" lon="19.67715">
        <ele>63.464763</ele>
        <time>2022-05-14T11:00:19.084Z</time>
      </trkpt>
      <trkpt lat="41.5558" lon="19.67715">
        <ele>63.695772</ele>
        <time>2022-05-14T11:00:22.075Z</time>
      </trkpt>
      <trkpt lat="41.5559" lon="19.67715">
        <ele>63.92457</ele>
        <time>2022-05-14T11:00:25.091Z</time>
      </trkpt>
      <trkpt lat="41.556" lon="19.67715">
        <ele>64.146585</ele>
        <time>2022-05-14T11:00:28.084Z</time>
      </trkpt>
      <trkpt lat="41.55609" lon="19.67714">
        <ele>64.355252</ele>
        <time>2022-05-14T11:00:31.084Z</time>
      </trkpt>
      <trkpt lat="41.55618" lon="19.67714">
        <ele>64.566161</ele>
        <time>2022-05-14T11:00:34.084Z</time>
      </trkpt>
      <trkpt lat="41.55628" lon="19.67713">
        <ele>64.781611</ele>
        <time>2022-05-14T11:00:37.099Z</time>
      </trkpt>
      <trkpt lat="41.55638" lon="19.67713">
        <ele>65.001697</ele>
        <time>2022-05-14T11:00:40.108Z</time>
      </trkpt>
      <trkpt lat="41.55648" lon="19.67713">
        <ele>65.221475</ele>
        <time>2022-05-14T11:00:43.082Z</time>
      </trkpt>
      <trkpt lat="41.55657" lon="19.67713">
        <ele>65.33023</ele>
        <time>2022-05-14T11:00:46.088Z</time>
      </trkpt>
      <trkpt lat="41.55667" lon="19.67713">
        <ele>65.344833</ele>
        <time>2022-05-14T11:00:49.078Z</time>
      </trkpt>
      <trkpt lat="41.55677" lon="19.67713">
        <ele>65.360189</ele>
        <time>2022-05-14T11:00:52.107Z</time>
      </trkpt>
      <trkpt lat="41.55688" lon="19.67714">
        <ele>65.377254</ele>
        <time>2022-05-14T11:00:55.071Z</time>
      </trkpt>
      <trkpt lat="41.55701" lon="19.67715">
        <ele>65.396298</ele>
        <time>2022-05-14T11:00:58.089Z</time>
      </trkpt>
      <trkpt lat="41.55712" lon="19.67719">
        <ele>65.413075</ele>
        <time>2022-05-14T11:01:01.066Z</time>
      </trkpt>
      <trkpt lat="41.55723" lon="19.67724">
        <ele>65.430357</ele>
        <time>2022-05-14T11:01:04.072Z</time>
      </trkpt>
      <trkpt lat="41.55733" lon="19.67729">
        <ele>65.44714</ele>
        <time>2022-05-14T11:01:07.084Z</time>
      </trkpt>
      <trkpt lat="41.55742" lon="19.67736">
        <ele>65.463022</ele>
        <time>2022-05-14T11:01:10.070Z</time>
      </trkpt>
      <trkpt lat="41.55751" lon="19.67745">
        <ele>65.479485</ele>
        <time>2022-05-14T11:01:13.091Z</time>
      </trkpt>
      <trkpt lat="41.55759" lon="19.67753">
        <ele>65.495365</ele>
        <time>2022-05-14T11:01:16.074Z</time>
      </trkpt>
      <trkpt lat="41.55767" lon="19.67762">
        <ele>65.509606</ele>
        <time>2022-05-14T11:01:19.066Z</time>
      </trkpt>
      <trkpt lat="41.55775" lon="19.67771">
        <ele>65.525725</ele>
        <time>2022-05-14T11:01:22.084Z</time>
      </trkpt>
      <trkpt lat="41.55783" lon="19.6778">
        <ele>65.542191</ele>
        <time>2022-05-14T11:01:25.087Z</time>
      </trkpt>
      <trkpt lat="41.55791" lon="19.6779">
        <ele>65.558793</ele>
        <time>2022-05-14T11:01:28.079Z</time>
      </trkpt>
      <trkpt lat="41.558" lon="19.678">
        <ele>65.575547</ele>
        <time>2022-05-14T11:01:31.082Z</time>
      </trkpt>
      <trkpt lat="41.55808" lon="19.67809">
        <ele>65.592273</ele>
        <time>2022-05-14T11:01:34.078Z</time>
      </trkpt>
      <trkpt lat="41.55817" lon="19.67819">
        <ele>65.679635</ele>
        <time>2022-05-14T11:01:37.085Z</time>
      </trkpt>
      <trkpt lat="41.55825" lon="19.67828">
        <ele>65.769181</ele>
        <time>2022-05-14T11:01:40.072Z</time>
      </trkpt>
      <trkpt lat="41.55833" lon="19.67838">
        <ele>65.856194</ele>
        <time>2022-05-14T11:01:43.116Z</time>
      </trkpt>
      <trkpt lat="41.55841" lon="19.67847">
        <ele>65.938084</ele>
        <time>2022-05-14T11:01:46.072Z</time>
      </trkpt>
      <trkpt lat="41.55847" lon="19.67855">
        <ele>66.013066</ele>
        <time>2022-05-14T11:01:49.084Z</time>
      </trkpt>
      <trkpt lat="41.55854" lon="19.67864">
        <ele>66.0952</ele>
        <time>2022-05-14T11:01:52.080Z</time>
      </trkpt>
      <trkpt lat="41.55861" lon="19.67874">
        <ele>66.176583</ele>
        <time>2022-05-14T11:01:55.090Z</time>
      </trkpt>
      <trkpt lat="41.55868" lon="19.67884">
        <ele>66.260583</ele>
        <time>2022-05-14T11:01:58.080Z</time>
      </trkpt>
      <trkpt lat="41.55874" lon="19.67896">
        <ele>66.347531</ele>
        <time>2022-05-14T11:02:01.096Z</time>
      </trkpt>
      <trkpt lat="41.55879" lon="19.67907">
        <ele>66.433666</ele>
        <time>2022-05-14T11:02:04.094Z</time>
      </trkpt>
      <trkpt lat="41.55884" lon="19.67919">
        <ele>66.518405</ele>
        <time>2022-05-14T11:02:07.061Z</time>
      </trkpt>
      <trkpt lat="41.55889" lon="19.67931">
        <ele>66.602354</ele>
        <time>2022-05-14T11:02:10.085Z</time>
      </trkpt>
      <trkpt lat="41.55894" lon="19.67944">
        <ele>66.688296</ele>
        <time>2022-05-14T11:02:13.079Z</time>
      </trkpt>
      <trkpt lat="41.55898" lon="19.67957">
        <ele>66.77363</ele>
        <time>2022-05-14T11:02:16.090Z</time>
      </trkpt>
      <trkpt lat="41.55901" lon="19.67969">
        <ele>66.855107</ele>
        <time>2022-05-14T11:02:19.077Z</time>
      </trkpt>
      <trkpt lat="41.55905" lon="19.67982">
        <ele>66.93954</ele>
        <time>2022-05-14T11:02:22.084Z</time>
      </trkpt>
      <trkpt lat="41.55906" lon="19.67996">
        <ele>67.025963</ele>
        <time>2022-05-14T11:02:25.082Z</time>
      </trkpt>
      <trkpt lat="41.55908" lon="19.68009">
        <ele>67.13422</ele>
        <time>2022-05-14T11:02:28.119Z</time>
      </trkpt>
      <trkpt lat="41.55909" lon="19.68023">
        <ele>67.274559</ele>
        <time>2022-05-14T11:02:31.089Z</time>
      </trkpt>
      <trkpt lat="41.55909" lon="19.68036">
        <ele>67.412273</ele>
        <time>2022-05-14T11:02:34.081Z</time>
      </trkpt>
      <trkpt lat="41.55909" lon="19.68049">
        <ele>67.55477</ele>
        <time>2022-05-14T11:02:37.084Z</time>
      </trkpt>
      <trkpt lat="41.55908" lon="19.68062">
        <ele>67.693189</ele>
        <time>2022-05-14T11:02:40.063Z</time>
      </trkpt>
      <trkpt lat="41.55908" lon="19.68075">
        <ele>67.828612</ele>
        <time>2022-05-14T11:02:43.087Z</time>
      </trkpt>
      <trkpt lat="41.55908" lon="19.68088">
        <ele>67.957495</ele>
        <time>2022-05-14T11:02:46.071Z</time>
      </trkpt>
      <trkpt lat="41.55907" lon="19.68104">
        <ele>68.125284</ele>
        <time>2022-05-14T11:02:50.101Z</time>
      </trkpt>
      <trkpt lat="41.55907" lon="19.68116">
        <ele>68.259427</ele>
        <time>2022-05-14T11:02:53.091Z</time>
      </trkpt>
      <trkpt lat="41.55907" lon="19.68129">
        <ele>68.395702</ele>
        <time>2022-05-14T11:02:56.101Z</time>
      </trkpt>
      <trkpt lat="41.55906" lon="19.68142">
        <ele>68.529846</ele>
        <time>2022-05-14T11:02:59.106Z</time>
      </trkpt>
      <trkpt lat="41.55906" lon="19.68156">
        <ele>68.669262</ele>
        <time>2022-05-14T11:03:02.083Z</time>
      </trkpt>
      <trkpt lat="41.55906" lon="19.68168">
        <ele>68.803493</ele>
        <time>2022-05-14T11:03:05.096Z</time>
      </trkpt>
      <trkpt lat="41.55906" lon="19.68181">
        <ele>68.931329</ele>
        <time>2022-05-14T11:03:08.102Z</time>
      </trkpt>
      <trkpt lat="41.55905" lon="19.68193">
        <ele>69.060235</ele>
        <time>2022-05-14T11:03:11.075Z</time>
      </trkpt>
      <trkpt lat="41.55905" lon="19.68205">
        <ele>69.190226</ele>
        <time>2022-05-14T11:03:14.091Z</time>
      </trkpt>
      <trkpt lat="41.55905" lon="19.68218">
        <ele>69.323322</ele>
        <time>2022-05-14T11:03:17.089Z</time>
      </trkpt>
      <trkpt lat="41.55906" lon="19.68231">
        <ele>69.459561</ele>
        <time>2022-05-14T11:03:20.074Z</time>
      </trkpt>
      <trkpt lat="41.55906" lon="19.68244">
        <ele>69.599854</ele>
        <time>2022-05-14T11:03:23.084Z</time>
      </trkpt>
      <trkpt lat="41.55906" lon="19.68258">
        <ele>69.741496</ele>
        <time>2022-05-14T11:03:26.091Z</time>
      </trkpt>
      <trkpt lat="41.55907" lon="19.68272">
        <ele>69.877081</ele>
        <time>2022-05-14T11:03:29.114Z</time>
      </trkpt>
      <trkpt lat="41.55907" lon="19.68285">
        <ele>70.006548</ele>
        <time>2022-05-14T11:03:32.082Z</time>
      </trkpt>
      <trkpt lat="41.55908" lon="19.68297">
        <ele>70.136247</ele>
        <time>2022-05-14T11:03:35.110Z</time>
      </trkpt>
      <trkpt lat="41.55909" lon="19.6831">
        <ele>70.261915</ele>
        <time>2022-05-14T11:03:38.079Z</time>
      </trkpt>
      <trkpt lat="41.55909" lon="19.68323">
        <ele>70.394638</ele>
        <time>2022-05-14T11:03:41.069Z</time>
      </trkpt>
      <trkpt lat="41.5591" lon="19.68336">
        <ele>70.531393</ele>
        <time>2022-05-14T11:03:44.075Z</time>
      </trkpt>
      <trkpt lat="41.55911" lon="19.68349">
        <ele>70.65993</ele>
        <time>2022-05-14T11:03:47.082Z</time>
      </trkpt>
      <trkpt lat="41.55912" lon="19.68362">
        <ele>70.787842</ele>
        <time>2022-05-14T11:03:50.079Z</time>
      </trkpt>
      <trkpt lat="41.55914" lon="19.68374">
        <ele>70.912574</ele>
        <time>2022-05-14T11:03:53.092Z</time>
      </trkpt>
      <trkpt lat="41.55915" lon="19.68387">
        <ele>71.046794</ele>
        <time>2022-05-14T11:03:56.086Z</time>
      </trkpt>
      <trkpt lat="41.55916" lon="19.684">
        <ele>71.177523</ele>
        <time>2022-05-14T11:03:59.087Z</time>
      </trkpt>
      <trkpt lat="41.55918" lon="19.68412">
        <ele>71.307904</ele>
        <time>2022-05-14T11:04:02.065Z</time>
      </trkpt>
      <trkpt lat="41.5592" lon="19.68425">
        <ele>71.436805</ele>
        <time>2022-05-14T11:04:05.126Z</time>
      </trkpt>
      <trkpt lat="41.55922" lon="19.68438">
        <ele>71.568245</ele>
        <time>2022-05-14T11:04:08.111Z</time>
      </trkpt>
      <trkpt lat="41.55924" lon="19.6845">
        <ele>71.694755</ele>
        <time>2022-05-14T11:04:11.089Z</time>
      </trkpt>
      <trkpt lat="41.55926" lon="19.68462">
        <ele>71.823236</ele>
        <time>2022-05-14T11:04:14.072Z</time>
      </trkpt>
      <trkpt lat="41.55928" lon="19.68475">
        <ele>71.95511</ele>
        <time>2022-05-14T11:04:17.074Z</time>
      </trkpt>
      <trkpt lat="41.55931" lon="19.68488">
        <ele>72.059082</ele>
        <time>2022-05-14T11:04:20.085Z</time>
      </trkpt>
      <trkpt lat="41.55933" lon="19.68501">
        <ele>72.128495</ele>
        <time>2022-05-14T11:04:23.095Z</time>
      </trkpt>
      <trkpt lat="41.55935" lon="19.68514">
        <ele>72.198219</ele>
        <time>2022-05-14T11:04:26.088Z</time>
      </trkpt>
      <trkpt lat="41.55937" lon="19.68527">
        <ele>72.267784</ele>
        <time>2022-05-14T11:04:29.092Z</time>
      </trkpt>
      <trkpt lat="41.55939" lon="19.6854">
        <ele>72.336836</ele>
        <time>2022-05-14T11:04:32.085Z</time>
      </trkpt>
      <trkpt lat="41.55942" lon="19.68552">
        <ele>72.404179</ele>
        <time>2022-05-14T11:04:35.072Z</time>
      </trkpt>
      <trkpt lat="41.55944" lon="19.68565">
        <ele>72.471759</ele>
        <time>2022-05-14T11:04:38.079Z</time>
      </trkpt>
      <trkpt lat="41.55946" lon="19.68577">
        <ele>72.538453</ele>
        <time>2022-05-14T11:04:41.078Z</time>
      </trkpt>
      <trkpt lat="41.55947" lon="19.68589">
        <ele>72.602801</ele>
        <time>2022-05-14T11:04:44.103Z</time>
      </trkpt>
      <trkpt lat="41.55949" lon="19.68601">
        <ele>72.669256</ele>
        <time>2022-05-14T11:04:47.094Z</time>
      </trkpt>
      <trkpt lat="41.5595" lon="19.68614">
        <ele>72.735414</ele>
        <time>2022-05-14T11:04:50.072Z</time>
      </trkpt>
      <trkpt lat="41.55952" lon="19.68626">
        <ele>72.802994</ele>
        <time>2022-05-14T11:04:53.076Z</time>
      </trkpt>
      <trkpt lat="41.55954" lon="19.68639">
        <ele>72.87109</ele>
        <time>2022-05-14T11:04:56.068Z</time>
      </trkpt>
      <trkpt lat="41.55957" lon="19.68652">
        <ele>72.939281</ele>
        <time>2022-05-14T11:04:59.080Z</time>
      </trkpt>
      <trkpt lat="41.55958" lon="19.68664">
        <ele>73.006725</ele>
        <time>2022-05-14T11:05:02.083Z</time>
      </trkpt>
      <trkpt lat="41.5596" lon="19.68677">
        <ele>73.073274</ele>
        <time>2022-05-14T11:05:05.091Z</time>
      </trkpt>
      <trkpt lat="41.55961" lon="19.68689">
        <ele>73.136758</ele>
        <time>2022-05-14T11:05:08.104Z</time>
      </trkpt>
      <trkpt lat="41.55962" lon="19.68704">
        <ele>73.218096</ele>
        <time>2022-05-14T11:05:12.122Z</time>
      </trkpt>
      <trkpt lat="41.55963" lon="19.6872">
        <ele>73.321394</ele>
        <time>2022-05-14T11:05:16.079Z</time>
      </trkpt>
      <trkpt lat="41.55964" lon="19.68733">
        <ele>73.475794</ele>
        <time>2022-05-14T11:05:19.079Z</time>
      </trkpt>
      <trkpt lat="41.55965" lon="19.68745">
        <ele>73.624629</ele>
        <time>2022-05-14T11:05:22.082Z</time>
      </trkpt>
      <trkpt lat="41.55966" lon="19.68757">
        <ele>73.771969</ele>
        <time>2022-05-14T11:05:25.116Z</time>
      </trkpt>
      <trkpt lat="41.55966" lon="19.68769">
        <ele>73.919444</ele>
        <time>2022-05-14T11:05:28.070Z</time>
      </trkpt>
      <trkpt lat="41.55967" lon="19.68782">
        <ele>74.072632</ele>
        <time>2022-05-14T11:05:31.101Z</time>
      </trkpt>
      <trkpt lat="41.55967" lon="19.68794">
        <ele>74.223395</ele>
        <time>2022-05-14T11:05:34.091Z</time>
      </trkpt>
      <trkpt lat="41.55968" lon="19.68807">
        <ele>74.376789</ele>
        <time>2022-05-14T11:05:37.092Z</time>
      </trkpt>
      <trkpt lat="41.55969" lon="19.68819">
        <ele>74.526551</ele>
        <time>2022-05-14T11:05:40.070Z</time>
      </trkpt>
      <trkpt lat="41.55969" lon="19.68834">
        <ele>74.70538</ele>
        <time>2022-05-14T11:05:44.080Z</time>
      </trkpt>
      <trkpt lat="41.5597" lon="19.68849">
        <ele>74.890495</ele>
        <time>2022-05-14T11:05:48.079Z</time>
      </trkpt>
      <trkpt lat="41.55971" lon="19.68865">
        <ele>75.084807</ele>
        <time>2022-05-14T11:05:52.103Z</time>
      </trkpt>
      <trkpt lat="41.55971" lon="19.6888">
        <ele>75.272224</ele>
        <time>2022-05-14T11:05:56.078Z</time>
      </trkpt>
      <trkpt lat="41.55972" lon="19.68893">
        <ele>75.423196</ele>
        <time>2022-05-14T11:05:59.092Z</time>
      </trkpt>
      <trkpt lat="41.55973" lon="19.68906">
        <ele>75.580114</ele>
        <time>2022-05-14T11:06:02.090Z</time>
      </trkpt>
      <trkpt lat="41.55973" lon="19.68919">
        <ele>75.735929</ele>
        <time>2022-05-14T11:06:05.079Z</time>
      </trkpt>
      <trkpt lat="41.55974" lon="19.68931">
        <ele>75.885576</ele>
        <time>2022-05-14T11:06:08.081Z</time>
      </trkpt>
      <trkpt lat="41.55975" lon="19.68943">
        <ele>76.031842</ele>
        <time>2022-05-14T11:06:11.117Z</time>
      </trkpt>
      <trkpt lat="41.55976" lon="19.68958">
        <ele>76.217605</ele>
        <time>2022-05-14T11:06:15.071Z</time>
      </trkpt>
      <trkpt lat="41.55977" lon="19.68972">
        <ele>76.454857</ele>
        <time>2022-05-14T11:06:19.085Z</time>
      </trkpt>
      <trkpt lat="41.55978" lon="19.68985">
        <ele>76.660206</ele>
        <time>2022-05-14T11:06:22.119Z</time>
      </trkpt>
      <trkpt lat="41.55979" lon="19.68997">
        <ele>76.858318</ele>
        <time>2022-05-14T11:06:25.064Z</time>
      </trkpt>
      <trkpt lat="41.55979" lon="19.69013">
        <ele>77.111291</ele>
        <time>2022-05-14T11:06:29.081Z</time>
      </trkpt>
      <trkpt lat="41.5598" lon="19.69028">
        <ele>77.364124</ele>
        <time>2022-05-14T11:06:33.117Z</time>
      </trkpt>
      <trkpt lat="41.5598" lon="19.69044">
        <ele>77.61902</ele>
        <time>2022-05-14T11:06:37.085Z</time>
      </trkpt>
      <trkpt lat="41.55981" lon="19.6906">
        <ele>77.872076</ele>
        <time>2022-05-14T11:06:41.093Z</time>
      </trkpt>
      <trkpt lat="41.55981" lon="19.69075">
        <ele>78.121997</ele>
        <time>2022-05-14T11:06:45.079Z</time>
      </trkpt>
      <trkpt lat="41.55982" lon="19.69087">
        <ele>78.317451</ele>
        <time>2022-05-14T11:06:48.072Z</time>
      </trkpt>
      <trkpt lat="41.55984" lon="19.69102">
        <ele>78.560457</ele>
        <time>2022-05-14T11:06:52.077Z</time>
      </trkpt>
      <trkpt lat="41.55987" lon="19.69116">
        <ele>78.789519</ele>
        <time>2022-05-14T11:06:56.067Z</time>
      </trkpt>
      <trkpt lat="41.55992" lon="19.69129">
        <ele>79.029778</ele>
        <time>2022-05-14T11:07:00.083Z</time>
      </trkpt>
      <trkpt lat="41.55998" lon="19.69139">
        <ele>79.234994</ele>
        <time>2022-05-14T11:07:03.078Z</time>
      </trkpt>
      <trkpt lat="41.56005" lon="19.69147">
        <ele>79.445766</ele>
        <time>2022-05-14T11:07:06.098Z</time>
      </trkpt>
      <trkpt lat="41.56013" lon="19.69153">
        <ele>79.647656</ele>
        <time>2022-05-14T11:07:09.078Z</time>
      </trkpt>
      <trkpt lat="41.56022" lon="19.69157">
        <ele>79.848979</ele>
        <time>2022-05-14T11:07:12.119Z</time>
      </trkpt>
      <trkpt lat="41.56032" lon="19.69161">
        <ele>80.083375</ele>
        <time>2022-05-14T11:07:16.081Z</time>
      </trkpt>
      <trkpt lat="41.56043" lon="19.69163">
        <ele>80.089427</ele>
        <time>2022-05-14T11:07:20.072Z</time>
      </trkpt>
      <trkpt lat="41.56054" lon="19.69166">
        <ele>80.074685</ele>
        <time>2022-05-14T11:07:24.075Z</time>
      </trkpt>
      <trkpt lat="41.56064" lon="19.69168">
        <ele>80.061208</ele>
        <time>2022-05-14T11:07:28.099Z</time>
      </trkpt>
      <trkpt lat="41.56074" lon="19.69171">
        <ele>80.047114</ele>
        <time>2022-05-14T11:07:32.082Z</time>
      </trkpt>
      <trkpt lat="41.56085" lon="19.69174">
        <ele>80.032151</ele>
        <time>2022-05-14T11:07:36.094Z</time>
      </trkpt>
      <trkpt lat="41.56097" lon="19.69177">
        <ele>80.016586</ele>
        <time>2022-05-14T11:07:40.123Z</time>
      </trkpt>
      <trkpt lat="41.56106" lon="19.69179">
        <ele>80.004484</ele>
        <time>2022-05-14T11:07:43.072Z</time>
      </trkpt>
      <trkpt lat="41.56115" lon="19.69181">
        <ele>79.992327</ele>
        <time>2022-05-14T11:07:46.118Z</time>
      </trkpt>
      <trkpt lat="41.56127" lon="19.69184">
        <ele>79.976599</ele>
        <time>2022-05-14T11:07:50.083Z</time>
      </trkpt>
      <trkpt lat="41.56138" lon="19.69187">
        <ele>79.961038</ele>
        <time>2022-05-14T11:07:54.079Z</time>
      </trkpt>
      <trkpt lat="41.56147" lon="19.69189">
        <ele>79.948918</ele>
        <time>2022-05-14T11:07:57.113Z</time>
      </trkpt>
      <trkpt lat="41.56157" lon="19.69191">
        <ele>79.935446</ele>
        <time>2022-05-14T11:08:00.085Z</time>
      </trkpt>
      <trkpt lat="41.56169" lon="19.69192">
        <ele>79.919777</ele>
        <time>2022-05-14T11:08:03.079Z</time>
      </trkpt>
      <trkpt lat="41.56178" lon="19.69193">
        <ele>79.907532</ele>
        <time>2022-05-14T11:08:05.081Z</time>
      </trkpt>
      <trkpt lat="41.56187" lon="19.69196">
        <ele>79.895464</ele>
        <time>2022-05-14T11:08:07.089Z</time>
      </trkpt>
      <trkpt lat="41.56196" lon="19.69198">
        <ele>79.882805</ele>
        <time>2022-05-14T11:08:09.090Z</time>
      </trkpt>
      <trkpt lat="41.56206" lon="19.692">
        <ele>79.870294</ele>
        <time>2022-05-14T11:08:11.066Z</time>
      </trkpt>
      <trkpt lat="41.56215" lon="19.69202">
        <ele>79.850442</ele>
        <time>2022-05-14T11:08:13.073Z</time>
      </trkpt>
      <trkpt lat="41.56224" lon="19.69202">
        <ele>79.823462</ele>
        <time>2022-05-14T11:08:15.083Z</time>
      </trkpt>
      <trkpt lat="41.56237" lon="19.69204">
        <ele>79.785788</ele>
        <time>2022-05-14T11:08:18.091Z</time>
      </trkpt>
      <trkpt lat="41.56249" lon="19.69208">
        <ele>79.751056</ele>
        <time>2022-05-14T11:08:21.068Z</time>
      </trkpt>
      <trkpt lat="41.56261" lon="19.6921">
        <ele>79.714433</ele>
        <time>2022-05-14T11:08:24.093Z</time>
      </trkpt>
      <trkpt lat="41.56274" lon="19.69214">
        <ele>79.676165</ele>
        <time>2022-05-14T11:08:27.069Z</time>
      </trkpt>
      <trkpt lat="41.56287" lon="19.69217">
        <ele>79.637693</ele>
        <time>2022-05-14T11:08:30.067Z</time>
      </trkpt>
      <trkpt lat="41.56295" lon="19.69219">
        <ele>79.61107</ele>
        <time>2022-05-14T11:08:32.071Z</time>
      </trkpt>
      <trkpt lat="41.56305" lon="19.69221">
        <ele>79.584028</ele>
        <time>2022-05-14T11:08:34.072Z</time>
      </trkpt>
      <trkpt lat="41.56313" lon="19.69224">
        <ele>79.557361</ele>
        <time>2022-05-14T11:08:36.087Z</time>
      </trkpt>
      <trkpt lat="41.56322" lon="19.69226">
        <ele>79.530738</ele>
        <time>2022-05-14T11:08:38.096Z</time>
      </trkpt>
      <trkpt lat="41.56332" lon="19.69229">
        <ele>79.503293</ele>
        <time>2022-05-14T11:08:40.069Z</time>
      </trkpt>
      <trkpt lat="41.5634" lon="19.69231">
        <ele>79.476753</ele>
        <time>2022-05-14T11:08:42.084Z</time>
      </trkpt>
      <trkpt lat="41.56349" lon="19.69233">
        <ele>79.45004</ele>
        <time>2022-05-14T11:08:44.078Z</time>
      </trkpt>
      <trkpt lat="41.56358" lon="19.69236">
        <ele>79.423171</ele>
        <time>2022-05-14T11:08:46.082Z</time>
      </trkpt>
      <trkpt lat="41.56368" lon="19.69238">
        <ele>79.395397</ele>
        <time>2022-05-14T11:08:48.090Z</time>
      </trkpt>
      <trkpt lat="41.56377" lon="19.6924">
        <ele>79.367162</ele>
        <time>2022-05-14T11:08:50.088Z</time>
      </trkpt>
      <trkpt lat="41.56387" lon="19.69243">
        <ele>79.338923</ele>
        <time>2022-05-14T11:08:52.063Z</time>
      </trkpt>
      <trkpt lat="41.56395" lon="19.69248">
        <ele>79.245647</ele>
        <time>2022-05-14T11:08:54.082Z</time>
      </trkpt>
      <trkpt lat="41.56404" lon="19.69251">
        <ele>79.146077</ele>
        <time>2022-05-14T11:08:56.079Z</time>
      </trkpt>
      <trkpt lat="41.56414" lon="19.69254">
        <ele>79.041616</ele>
        <time>2022-05-14T11:08:58.142Z</time>
      </trkpt>
      <trkpt lat="41.56424" lon="19.69257">
        <ele>78.939</ele>
        <time>2022-05-14T11:09:00.075Z</time>
      </trkpt>
      <trkpt lat="41.56433" lon="19.69259">
        <ele>78.835774</ele>
        <time>2022-05-14T11:09:02.080Z</time>
      </trkpt>
      <trkpt lat="41.56443" lon="19.69262">
        <ele>78.731657</ele>
        <time>2022-05-14T11:09:04.060Z</time>
      </trkpt>
      <trkpt lat="41.56453" lon="19.69264">
        <ele>78.629837</ele>
        <time>2022-05-14T11:09:06.083Z</time>
      </trkpt>
      <trkpt lat="41.56462" lon="19.69266">
        <ele>78.528935</ele>
        <time>2022-05-14T11:09:08.083Z</time>
      </trkpt>
      <trkpt lat="41.56471" lon="19.69268">
        <ele>78.430877</ele>
        <time>2022-05-14T11:09:10.101Z</time>
      </trkpt>
      <trkpt lat="41.56481" lon="19.6927">
        <ele>78.327902</ele>
        <time>2022-05-14T11:09:12.095Z</time>
      </trkpt>
      <trkpt lat="41.5649" lon="19.69272">
        <ele>78.22931</ele>
        <time>2022-05-14T11:09:14.070Z</time>
      </trkpt>
      <trkpt lat="41.565" lon="19.69273">
        <ele>78.130827</ele>
        <time>2022-05-14T11:09:16.083Z</time>
      </trkpt>
      <trkpt lat="41.56509" lon="19.69275">
        <ele>78.034193</ele>
        <time>2022-05-14T11:09:18.070Z</time>
      </trkpt>
      <trkpt lat="41.56522" lon="19.69278">
        <ele>77.896281</ele>
        <time>2022-05-14T11:09:21.110Z</time>
      </trkpt>
      <trkpt lat="41.56534" lon="19.6928">
        <ele>77.763672</ele>
        <time>2022-05-14T11:09:24.086Z</time>
      </trkpt>
      <trkpt lat="41.56546" lon="19.69283">
        <ele>77.634964</ele>
        <time>2022-05-14T11:09:27.110Z</time>
      </trkpt>
      <trkpt lat="41.56558" lon="19.69285">
        <ele>77.511398</ele>
        <time>2022-05-14T11:09:30.090Z</time>
      </trkpt>
      <trkpt lat="41.5657" lon="19.69286">
        <ele>77.560355</ele>
        <time>2022-05-14T11:09:33.071Z</time>
      </trkpt>
      <trkpt lat="41.5658" lon="19.69286">
        <ele>77.779293</ele>
        <time>2022-05-14T11:09:36.061Z</time>
      </trkpt>
      <trkpt lat="41.56591" lon="19.69284">
        <ele>77.995721</ele>
        <time>2022-05-14T11:09:39.070Z</time>
      </trkpt>
      <trkpt lat="41.56602" lon="19.69282">
        <ele>78.208967</ele>
        <time>2022-05-14T11:09:42.067Z</time>
      </trkpt>
      <trkpt lat="41.56612" lon="19.6928">
        <ele>78.426888</ele>
        <time>2022-05-14T11:09:45.083Z</time>
      </trkpt>
      <trkpt lat="41.56622" lon="19.69278">
        <ele>78.631354</ele>
        <time>2022-05-14T11:09:48.073Z</time>
      </trkpt>
      <trkpt lat="41.56632" lon="19.69277">
        <ele>78.833308</ele>
        <time>2022-05-14T11:09:51.072Z</time>
      </trkpt>
      <trkpt lat="41.56642" lon="19.69277">
        <ele>79.028138</ele>
        <time>2022-05-14T11:09:54.077Z</time>
      </trkpt>
      <trkpt lat="41.56652" lon="19.69279">
        <ele>79.231945</ele>
        <time>2022-05-14T11:09:57.087Z</time>
      </trkpt>
      <trkpt lat="41.56663" lon="19.69283">
        <ele>79.457249</ele>
        <time>2022-05-14T11:10:00.058Z</time>
      </trkpt>
      <trkpt lat="41.56673" lon="19.69288">
        <ele>79.671087</ele>
        <time>2022-05-14T11:10:03.080Z</time>
      </trkpt>
      <trkpt lat="41.56684" lon="19.69293">
        <ele>79.897368</ele>
        <time>2022-05-14T11:10:06.111Z</time>
      </trkpt>
      <trkpt lat="41.56694" lon="19.69298">
        <ele>80.120261</ele>
        <time>2022-05-14T11:10:09.091Z</time>
      </trkpt>
      <trkpt lat="41.56705" lon="19.69303">
        <ele>80.354588</ele>
        <time>2022-05-14T11:10:12.068Z</time>
      </trkpt>
      <trkpt lat="41.56716" lon="19.69308">
        <ele>80.594145</ele>
        <time>2022-05-14T11:10:15.096Z</time>
      </trkpt>
      <trkpt lat="41.56728" lon="19.69313">
        <ele>80.836582</ele>
        <time>2022-05-14T11:10:18.084Z</time>
      </trkpt>
      <trkpt lat="41.56737" lon="19.69317">
        <ele>81.034407</ele>
        <time>2022-05-14T11:10:21.084Z</time>
      </trkpt>
      <trkpt lat="41.56746" lon="19.69322">
        <ele>81.04314</ele>
        <time>2022-05-14T11:10:25.087Z</time>
      </trkpt>
      <trkpt lat="41.56756" lon="19.69325">
        <ele>81.019555</ele>
        <time>2022-05-14T11:10:28.078Z</time>
      </trkpt>
      <trkpt lat="41.56766" lon="19.6933">
        <ele>80.994473</ele>
        <time>2022-05-14T11:10:31.084Z</time>
      </trkpt>
      <trkpt lat="41.56777" lon="19.69334">
        <ele>80.968431</ele>
        <time>2022-05-14T11:10:34.092Z</time>
      </trkpt>
      <trkpt lat="41.56786" lon="19.69339">
        <ele>80.94571</ele>
        <time>2022-05-14T11:10:37.076Z</time>
      </trkpt>
      <trkpt lat="41.56795" lon="19.69344">
        <ele>80.923179</ele>
        <time>2022-05-14T11:10:40.070Z</time>
      </trkpt>
      <trkpt lat="41.56806" lon="19.69349">
        <ele>80.897449</ele>
        <time>2022-05-14T11:10:43.079Z</time>
      </trkpt>
      <trkpt lat="41.56819" lon="19.69355">
        <ele>80.866483</ele>
        <time>2022-05-14T11:10:46.091Z</time>
      </trkpt>
      <trkpt lat="41.56828" lon="19.69359">
        <ele>80.844093</ele>
        <time>2022-05-14T11:10:48.089Z</time>
      </trkpt>
      <trkpt lat="41.56837" lon="19.69364">
        <ele>80.821702</ele>
        <time>2022-05-14T11:10:50.132Z</time>
      </trkpt>
      <trkpt lat="41.56846" lon="19.69368">
        <ele>80.798711</ele>
        <time>2022-05-14T11:10:52.086Z</time>
      </trkpt>
      <trkpt lat="41.56856" lon="19.69372">
        <ele>80.774789</ele>
        <time>2022-05-14T11:10:54.085Z</time>
      </trkpt>
      <trkpt lat="41.56866" lon="19.69376">
        <ele>80.751962</ele>
        <time>2022-05-14T11:10:56.070Z</time>
      </trkpt>
      <trkpt lat="41.56875" lon="19.69381">
        <ele>80.728751</ele>
        <time>2022-05-14T11:10:58.075Z</time>
      </trkpt>
      <trkpt lat="41.56885" lon="19.69385">
        <ele>80.704557</ele>
        <time>2022-05-14T11:11:00.111Z</time>
      </trkpt>
      <trkpt lat="41.56895" lon="19.69389">
        <ele>80.681344</ele>
        <time>2022-05-14T11:11:02.084Z</time>
      </trkpt>
      <trkpt lat="41.56904" lon="19.69393">
        <ele>80.659282</ele>
        <time>2022-05-14T11:11:04.085Z</time>
      </trkpt>
      <trkpt lat="41.56913" lon="19.69397">
        <ele>80.583885</ele>
        <time>2022-05-14T11:11:06.104Z</time>
      </trkpt>
      <trkpt lat="41.56923" lon="19.694">
        <ele>80.443861</ele>
        <time>2022-05-14T11:11:08.087Z</time>
      </trkpt>
      <trkpt lat="41.56935" lon="19.69403">
        <ele>80.26634</ele>
        <time>2022-05-14T11:11:11.071Z</time>
      </trkpt>
      <trkpt lat="41.56946" lon="19.69404">
        <ele>80.110996</ele>
        <time>2022-05-14T11:11:14.077Z</time>
      </trkpt>
      <trkpt lat="41.56956" lon="19.69403">
        <ele>79.96941</ele>
        <time>2022-05-14T11:11:17.084Z</time>
      </trkpt>
      <trkpt lat="41.56966" lon="19.69404">
        <ele>79.840795</ele>
        <time>2022-05-14T11:11:20.081Z</time>
      </trkpt>
      <trkpt lat="41.56975" lon="19.694">
        <ele>79.708573</ele>
        <time>2022-05-14T11:11:23.072Z</time>
      </trkpt>
      <trkpt lat="41.56984" lon="19.69397">
        <ele>79.572956</ele>
        <time>2022-05-14T11:11:28.113Z</time>
      </trkpt>
      <trkpt lat="41.56995" lon="19.69393">
        <ele>79.410529</ele>
        <time>2022-05-14T11:11:32.071Z</time>
      </trkpt>
      <trkpt lat="41.57007" lon="19.69389">
        <ele>79.248864</ele>
        <time>2022-05-14T11:11:35.109Z</time>
      </trkpt>
      <trkpt lat="41.57019" lon="19.69383">
        <ele>79.060475</ele>
        <time>2022-05-14T11:11:38.087Z</time>
      </trkpt>
      <trkpt lat="41.57028" lon="19.6938">
        <ele>78.932854</ele>
        <time>2022-05-14T11:11:40.091Z</time>
      </trkpt>
      <trkpt lat="41.57037" lon="19.69376">
        <ele>78.805685</ele>
        <time>2022-05-14T11:11:42.074Z</time>
      </trkpt>
      <trkpt lat="41.57046" lon="19.69372">
        <ele>78.668252</ele>
        <time>2022-05-14T11:11:44.075Z</time>
      </trkpt>
      <trkpt lat="41.57056" lon="19.69368">
        <ele>78.525476</ele>
        <time>2022-05-14T11:11:46.108Z</time>
      </trkpt>
      <trkpt lat="41.57066" lon="19.69364">
        <ele>78.383102</ele>
        <time>2022-05-14T11:11:48.085Z</time>
      </trkpt>
      <trkpt lat="41.57076" lon="19.6936">
        <ele>78.233771</ele>
        <time>2022-05-14T11:11:50.086Z</time>
      </trkpt>
      <trkpt lat="41.57086" lon="19.69355">
        <ele>78.040441</ele>
        <time>2022-05-14T11:11:52.075Z</time>
      </trkpt>
      <trkpt lat="41.57098" lon="19.6935">
        <ele>77.763347</ele>
        <time>2022-05-14T11:11:54.090Z</time>
      </trkpt>
      <trkpt lat="41.5711" lon="19.69345">
        <ele>77.473102</ele>
        <time>2022-05-14T11:11:56.125Z</time>
      </trkpt>
      <trkpt lat="41.57122" lon="19.69339">
        <ele>77.176805</ele>
        <time>2022-05-14T11:11:58.068Z</time>
      </trkpt>
      <trkpt lat="41.57135" lon="19.69334">
        <ele>76.869454</ele>
        <time>2022-05-14T11:12:00.085Z</time>
      </trkpt>
      <trkpt lat="41.57147" lon="19.69328">
        <ele>76.562201</ele>
        <time>2022-05-14T11:12:02.104Z</time>
      </trkpt>
      <trkpt lat="41.57159" lon="19.69323">
        <ele>76.267514</ele>
        <time>2022-05-14T11:12:04.054Z</time>
      </trkpt>
      <trkpt lat="41.57171" lon="19.69317">
        <ele>75.97727</ele>
        <time>2022-05-14T11:12:06.099Z</time>
      </trkpt>
      <trkpt lat="41.57183" lon="19.69312">
        <ele>75.693038</ele>
        <time>2022-05-14T11:12:08.085Z</time>
      </trkpt>
      <trkpt lat="41.57194" lon="19.69306">
        <ele>75.412946</ele>
        <time>2022-05-14T11:12:10.080Z</time>
      </trkpt>
      <trkpt lat="41.57205" lon="19.69301">
        <ele>75.138594</ele>
        <time>2022-05-14T11:12:12.072Z</time>
      </trkpt>
      <trkpt lat="41.57216" lon="19.69295">
        <ele>74.857242</ele>
        <time>2022-05-14T11:12:14.083Z</time>
      </trkpt>
      <trkpt lat="41.57228" lon="19.69289">
        <ele>74.579533</ele>
        <time>2022-05-14T11:12:16.087Z</time>
      </trkpt>
      <trkpt lat="41.57238" lon="19.69282">
        <ele>74.308948</ele>
        <time>2022-05-14T11:12:18.082Z</time>
      </trkpt>
      <trkpt lat="41.57249" lon="19.69276">
        <ele>74.037697</ele>
        <time>2022-05-14T11:12:20.080Z</time>
      </trkpt>
      <trkpt lat="41.5726" lon="19.6927">
        <ele>73.708914</ele>
        <time>2022-05-14T11:12:22.071Z</time>
      </trkpt>
      <trkpt lat="41.5727" lon="19.69264">
        <ele>73.36336</ele>
        <time>2022-05-14T11:12:24.119Z</time>
      </trkpt>
      <trkpt lat="41.57281" lon="19.69258">
        <ele>73.022276</ele>
        <time>2022-05-14T11:12:26.099Z</time>
      </trkpt>
      <trkpt lat="41.57291" lon="19.69252">
        <ele>72.700154</ele>
        <time>2022-05-14T11:12:28.082Z</time>
      </trkpt>
      <trkpt lat="41.57301" lon="19.69246">
        <ele>72.366346</ele>
        <time>2022-05-14T11:12:30.122Z</time>
      </trkpt>
      <trkpt lat="41.57311" lon="19.6924">
        <ele>72.034333</ele>
        <time>2022-05-14T11:12:32.084Z</time>
      </trkpt>
      <trkpt lat="41.57322" lon="19.69234">
        <ele>71.69957</ele>
        <time>2022-05-14T11:12:34.077Z</time>
      </trkpt>
      <trkpt lat="41.57331" lon="19.69228">
        <ele>71.386491</ele>
        <time>2022-05-14T11:12:36.095Z</time>
      </trkpt>
      <trkpt lat="41.57342" lon="19.69221">
        <ele>71.035435</ele>
        <time>2022-05-14T11:12:39.087Z</time>
      </trkpt>
      <trkpt lat="41.57353" lon="19.6922">
        <ele>70.713924</ele>
        <time>2022-05-14T11:12:43.088Z</time>
      </trkpt>
      <trkpt lat="41.57357" lon="19.69234">
        <ele>70.380225</ele>
        <time>2022-05-14T11:12:50.115Z</time>
      </trkpt>
      <trkpt lat="41.57353" lon="19.69244">
        <ele>70.104019</ele>
        <time>2022-05-14T11:12:56.076Z</time>
      </trkpt>
      <trkpt lat="41.57354" lon="19.69224">
        <ele>69.645502</ele>
        <time>2022-05-14T11:17:43.087Z</time>
      </trkpt>
      <trkpt lat="41.57359" lon="19.69213">
        <ele>69.369854</ele>
        <time>2022-05-14T11:17:46.100Z</time>
      </trkpt>
      <trkpt lat="41.5737" lon="19.69207">
        <ele>69.02415</ele>
        <time>2022-05-14T11:17:50.080Z</time>
      </trkpt>
      <trkpt lat="41.57381" lon="19.69203">
        <ele>68.688953</ele>
        <time>2022-05-14T11:17:53.086Z</time>
      </trkpt>
      <trkpt lat="41.57392" lon="19.69199">
        <ele>68.387071</ele>
        <time>2022-05-14T11:17:56.071Z</time>
      </trkpt>
      <trkpt lat="41.57402" lon="19.69197">
        <ele>68.105615</ele>
        <time>2022-05-14T11:17:59.062Z</time>
      </trkpt>
      <trkpt lat="41.57414" lon="19.69196">
        <ele>67.786306</ele>
        <time>2022-05-14T11:18:02.085Z</time>
      </trkpt>
      <trkpt lat="41.57427" lon="19.69196">
        <ele>67.457133</ele>
        <time>2022-05-14T11:18:05.086Z</time>
      </trkpt>
      <trkpt lat="41.57439" lon="19.69198">
        <ele>67.127178</ele>
        <time>2022-05-14T11:18:08.077Z</time>
      </trkpt>
      <trkpt lat="41.5745" lon="19.692">
        <ele>66.852358</ele>
        <time>2022-05-14T11:18:12.078Z</time>
      </trkpt>
      <trkpt lat="41.57461" lon="19.69203">
        <ele>66.547323</ele>
        <time>2022-05-14T11:18:16.084Z</time>
      </trkpt>
      <trkpt lat="41.57471" lon="19.69205">
        <ele>66.273679</ele>
        <time>2022-05-14T11:18:20.076Z</time>
      </trkpt>
      <trkpt lat="41.57481" lon="19.69209">
        <ele>66.000614</ele>
        <time>2022-05-14T11:18:24.075Z</time>
      </trkpt>
      <trkpt lat="41.57491" lon="19.69212">
        <ele>65.726581</ele>
        <time>2022-05-14T11:18:27.115Z</time>
      </trkpt>
      <trkpt lat="41.57502" lon="19.69215">
        <ele>65.442964</ele>
        <time>2022-05-14T11:18:30.075Z</time>
      </trkpt>
      <trkpt lat="41.57513" lon="19.69217">
        <ele>65.14673</ele>
        <time>2022-05-14T11:18:33.073Z</time>
      </trkpt>
      <trkpt lat="41.57523" lon="19.6922">
        <ele>64.872696</ele>
        <time>2022-05-14T11:18:36.072Z</time>
      </trkpt>
      <trkpt lat="41.57535" lon="19.69223">
        <ele>64.55028</ele>
        <time>2022-05-14T11:18:39.068Z</time>
      </trkpt>
      <trkpt lat="41.57547" lon="19.69227">
        <ele>64.227047</ele>
        <time>2022-05-14T11:18:42.081Z</time>
      </trkpt>
      <trkpt lat="41.57559" lon="19.69231">
        <ele>63.913017</ele>
        <time>2022-05-14T11:18:45.090Z</time>
      </trkpt>
      <trkpt lat="41.57571" lon="19.69234">
        <ele>64.155094</ele>
        <time>2022-05-14T11:18:48.078Z</time>
      </trkpt>
      <trkpt lat="41.57583" lon="19.69238">
        <ele>64.383578</ele>
        <time>2022-05-14T11:18:51.067Z</time>
      </trkpt>
      <trkpt lat="41.57595" lon="19.69241">
        <ele>64.623258</ele>
        <time>2022-05-14T11:18:54.102Z</time>
      </trkpt>
      <trkpt lat="41.57606" lon="19.69244">
        <ele>64.854329</ele>
        <time>2022-05-14T11:18:57.090Z</time>
      </trkpt>
      <trkpt lat="41.57618" lon="19.69248">
        <ele>65.083155</ele>
        <time>2022-05-14T11:19:00.090Z</time>
      </trkpt>
      <trkpt lat="41.57629" lon="19.69251">
        <ele>65.31874</ele>
        <time>2022-05-14T11:19:03.087Z</time>
      </trkpt>
      <trkpt lat="41.57643" lon="19.69254">
        <ele>65.576674</ele>
        <time>2022-05-14T11:19:06.081Z</time>
      </trkpt>
      <trkpt lat="41.57655" lon="19.69255">
        <ele>65.820752</ele>
        <time>2022-05-14T11:19:09.082Z</time>
      </trkpt>
      <trkpt lat="41.57667" lon="19.69256">
        <ele>66.059363</ele>
        <time>2022-05-14T11:19:12.108Z</time>
      </trkpt>
      <trkpt lat="41.57679" lon="19.69257">
        <ele>66.297012</ele>
        <time>2022-05-14T11:19:15.096Z</time>
      </trkpt>
      <trkpt lat="41.57691" lon="19.69257">
        <ele>66.515188</ele>
        <time>2022-05-14T11:19:18.136Z</time>
      </trkpt>
      <trkpt lat="41.57702" lon="19.69256">
        <ele>66.74128</ele>
        <time>2022-05-14T11:19:21.079Z</time>
      </trkpt>
      <trkpt lat="41.57713" lon="19.69255">
        <ele>66.960111</ele>
        <time>2022-05-14T11:19:24.110Z</time>
      </trkpt>
      <trkpt lat="41.57724" lon="19.69254">
        <ele>67.17546</ele>
        <time>2022-05-14T11:19:27.081Z</time>
      </trkpt>
      <trkpt lat="41.57736" lon="19.69252">
        <ele>67.406315</ele>
        <time>2022-05-14T11:19:30.112Z</time>
      </trkpt>
      <trkpt lat="41.57747" lon="19.69252">
        <ele>67.681051</ele>
        <time>2022-05-14T11:19:33.091Z</time>
      </trkpt>
      <trkpt lat="41.57758" lon="19.69251">
        <ele>67.946024</ele>
        <time>2022-05-14T11:19:36.115Z</time>
      </trkpt>
      <trkpt lat="41.57768" lon="19.6925">
        <ele>68.216155</ele>
        <time>2022-05-14T11:19:39.078Z</time>
      </trkpt>
      <trkpt lat="41.57779" lon="19.69248">
        <ele>68.48467</ele>
        <time>2022-05-14T11:19:42.098Z</time>
      </trkpt>
      <trkpt lat="41.57789" lon="19.69246">
        <ele>68.750014</ele>
        <time>2022-05-14T11:19:45.081Z</time>
      </trkpt>
      <trkpt lat="41.578" lon="19.69245">
        <ele>69.024701</ele>
        <time>2022-05-14T11:19:48.114Z</time>
      </trkpt>
      <trkpt lat="41.57812" lon="19.69243">
        <ele>69.308435</ele>
        <time>2022-05-14T11:19:51.084Z</time>
      </trkpt>
      <trkpt lat="41.57823" lon="19.69241">
        <ele>69.590367</ele>
        <time>2022-05-14T11:19:54.077Z</time>
      </trkpt>
      <trkpt lat="41.57834" lon="19.69239">
        <ele>69.881793</ele>
        <time>2022-05-14T11:19:57.075Z</time>
      </trkpt>
      <trkpt lat="41.57843" lon="19.69237">
        <ele>70.112367</ele>
        <time>2022-05-14T11:19:59.112Z</time>
      </trkpt>
      <trkpt lat="41.57853" lon="19.69235">
        <ele>70.353257</ele>
        <time>2022-05-14T11:20:01.056Z</time>
      </trkpt>
      <trkpt lat="41.57862" lon="19.69232">
        <ele>70.601918</ele>
        <time>2022-05-14T11:20:03.075Z</time>
      </trkpt>
      <trkpt lat="41.57872" lon="19.69231">
        <ele>70.849633</ele>
        <time>2022-05-14T11:20:05.115Z</time>
      </trkpt>
      <trkpt lat="41.57883" lon="19.6923">
        <ele>71.13246</ele>
        <time>2022-05-14T11:20:07.092Z</time>
      </trkpt>
      <trkpt lat="41.57894" lon="19.69228">
        <ele>71.39694</ele>
        <time>2022-05-14T11:20:09.095Z</time>
      </trkpt>
      <trkpt lat="41.57904" lon="19.69226">
        <ele>71.670672</ele>
        <time>2022-05-14T11:20:11.080Z</time>
      </trkpt>
      <trkpt lat="41.57914" lon="19.69224">
        <ele>71.922165</ele>
        <time>2022-05-14T11:20:13.097Z</time>
      </trkpt>
      <trkpt lat="41.57924" lon="19.69224">
        <ele>71.646226</ele>
        <time>2022-05-14T11:20:15.071Z</time>
      </trkpt>
      <trkpt lat="41.57933" lon="19.69224">
        <ele>71.341136</ele>
        <time>2022-05-14T11:20:17.094Z</time>
      </trkpt>
      <trkpt lat="41.57945" lon="19.69221">
        <ele>70.963714</ele>
        <time>2022-05-14T11:20:20.069Z</time>
      </trkpt>
      <trkpt lat="41.57957" lon="19.69215">
        <ele>70.536882</ele>
        <time>2022-05-14T11:20:23.078Z</time>
      </trkpt>
      <trkpt lat="41.57966" lon="19.69212">
        <ele>70.218096</ele>
        <time>2022-05-14T11:20:25.094Z</time>
      </trkpt>
      <trkpt lat="41.57977" lon="19.6921">
        <ele>69.864041</ele>
        <time>2022-05-14T11:20:27.120Z</time>
      </trkpt>
      <trkpt lat="41.57989" lon="19.69211">
        <ele>69.45868</ele>
        <time>2022-05-14T11:20:30.096Z</time>
      </trkpt>
      <trkpt lat="41.57999" lon="19.69211">
        <ele>69.146828</ele>
        <time>2022-05-14T11:20:33.087Z</time>
      </trkpt>
      <trkpt lat="41.58008" lon="19.69209">
        <ele>68.83305</ele>
        <time>2022-05-14T11:20:36.090Z</time>
      </trkpt>
      <trkpt lat="41.58019" lon="19.69207">
        <ele>68.466641</ele>
        <time>2022-05-14T11:20:39.076Z</time>
      </trkpt>
      <trkpt lat="41.58031" lon="19.69206">
        <ele>68.085009</ele>
        <time>2022-05-14T11:20:42.069Z</time>
      </trkpt>
      <trkpt lat="41.58041" lon="19.69204">
        <ele>67.742151</ele>
        <time>2022-05-14T11:20:46.077Z</time>
      </trkpt>
      <trkpt lat="41.58052" lon="19.69203">
        <ele>67.386237</ele>
        <time>2022-05-14T11:20:50.093Z</time>
      </trkpt>
      <trkpt lat="41.58062" lon="19.69201">
        <ele>67.049074</ele>
        <time>2022-05-14T11:20:53.092Z</time>
      </trkpt>
      <trkpt lat="41.58074" lon="19.692">
        <ele>66.676598</ele>
        <time>2022-05-14T11:20:56.087Z</time>
      </trkpt>
      <trkpt lat="41.58086" lon="19.69196">
        <ele>66.262354</ele>
        <time>2022-05-14T11:20:59.075Z</time>
      </trkpt>
      <trkpt lat="41.58099" lon="19.69194">
        <ele>65.809331</ele>
        <time>2022-05-14T11:21:02.083Z</time>
      </trkpt>
      <trkpt lat="41.58108" lon="19.69193">
        <ele>65.464298</ele>
        <time>2022-05-14T11:21:04.075Z</time>
      </trkpt>
      <trkpt lat="41.58118" lon="19.69192">
        <ele>65.114749</ele>
        <time>2022-05-14T11:21:06.067Z</time>
      </trkpt>
      <trkpt lat="41.5813" lon="19.6919">
        <ele>64.647718</ele>
        <time>2022-05-14T11:21:09.086Z</time>
      </trkpt>
      <trkpt lat="41.58141" lon="19.69187">
        <ele>64.261563</ele>
        <time>2022-05-14T11:21:13.078Z</time>
      </trkpt>
      <trkpt lat="41.5815" lon="19.69185">
        <ele>63.916511</ele>
        <time>2022-05-14T11:21:17.107Z</time>
      </trkpt>
      <trkpt lat="41.5816" lon="19.69183">
        <ele>63.542888</ele>
        <time>2022-05-14T11:21:20.082Z</time>
      </trkpt>
      <trkpt lat="41.58172" lon="19.69182">
        <ele>63.102457</ele>
        <time>2022-05-14T11:21:23.117Z</time>
      </trkpt>
      <trkpt lat="41.58181" lon="19.69183">
        <ele>62.76527</ele>
        <time>2022-05-14T11:21:25.082Z</time>
      </trkpt>
      <trkpt lat="41.58191" lon="19.69184">
        <ele>62.41742</ele>
        <time>2022-05-14T11:21:27.096Z</time>
      </trkpt>
      <trkpt lat="41.582" lon="19.69187">
        <ele>62.078296</ele>
        <time>2022-05-14T11:21:29.079Z</time>
      </trkpt>
      <trkpt lat="41.58209" lon="19.69192">
        <ele>61.729104</ele>
        <time>2022-05-14T11:21:31.080Z</time>
      </trkpt>
      <trkpt lat="41.58217" lon="19.69196">
        <ele>61.386656</ele>
        <time>2022-05-14T11:21:33.085Z</time>
      </trkpt>
      <trkpt lat="41.58226" lon="19.69203">
        <ele>61.013753</ele>
        <time>2022-05-14T11:21:35.070Z</time>
      </trkpt>
      <trkpt lat="41.58236" lon="19.69208">
        <ele>60.643275</ele>
        <time>2022-05-14T11:21:37.080Z</time>
      </trkpt>
      <trkpt lat="41.58245" lon="19.69215">
        <ele>60.250314</ele>
        <time>2022-05-14T11:21:39.080Z</time>
      </trkpt>
      <trkpt lat="41.58255" lon="19.69221">
        <ele>59.849844</ele>
        <time>2022-05-14T11:21:41.073Z</time>
      </trkpt>
      <trkpt lat="41.58265" lon="19.69227">
        <ele>59.450392</ele>
        <time>2022-05-14T11:21:43.067Z</time>
      </trkpt>
      <trkpt lat="41.58276" lon="19.69233">
        <ele>59.242139</ele>
        <time>2022-05-14T11:21:45.056Z</time>
      </trkpt>
      <trkpt lat="41.58285" lon="19.69239">
        <ele>59.051049</ele>
        <time>2022-05-14T11:21:47.085Z</time>
      </trkpt>
      <trkpt lat="41.58295" lon="19.69245">
        <ele>58.857745</ele>
        <time>2022-05-14T11:21:49.071Z</time>
      </trkpt>
      <trkpt lat="41.58304" lon="19.69251">
        <ele>58.685372</ele>
        <time>2022-05-14T11:21:51.083Z</time>
      </trkpt>
      <trkpt lat="41.58315" lon="19.69259">
        <ele>58.444476</ele>
        <time>2022-05-14T11:21:54.074Z</time>
      </trkpt>
      <trkpt lat="41.58323" lon="19.69265">
        <ele>58.280156</ele>
        <time>2022-05-14T11:21:56.091Z</time>
      </trkpt>
      <trkpt lat="41.58332" lon="19.69271">
        <ele>58.10695</ele>
        <time>2022-05-14T11:21:58.097Z</time>
      </trkpt>
      <trkpt lat="41.5834" lon="19.69276">
        <ele>57.936787</ele>
        <time>2022-05-14T11:22:00.068Z</time>
      </trkpt>
      <trkpt lat="41.58349" lon="19.69283">
        <ele>57.767691</ele>
        <time>2022-05-14T11:22:02.089Z</time>
      </trkpt>
      <trkpt lat="41.58357" lon="19.69288">
        <ele>57.602977</ele>
        <time>2022-05-14T11:22:04.067Z</time>
      </trkpt>
      <trkpt lat="41.58369" lon="19.69296">
        <ele>57.354703</ele>
        <time>2022-05-14T11:22:07.083Z</time>
      </trkpt>
      <trkpt lat="41.58377" lon="19.69302">
        <ele>57.19058</ele>
        <time>2022-05-14T11:22:09.118Z</time>
      </trkpt>
      <trkpt lat="41.5839" lon="19.69309">
        <ele>56.945319</ele>
        <time>2022-05-14T11:22:12.066Z</time>
      </trkpt>
      <trkpt lat="41.58399" lon="19.69312">
        <ele>56.781988</ele>
        <time>2022-05-14T11:22:14.063Z</time>
      </trkpt>
      <trkpt lat="41.58412" lon="19.69315">
        <ele>56.539579</ele>
        <time>2022-05-14T11:22:17.091Z</time>
      </trkpt>
      <trkpt lat="41.58421" lon="19.69316">
        <ele>56.376727</ele>
        <time>2022-05-14T11:22:19.091Z</time>
      </trkpt>
      <trkpt lat="41.58433" lon="19.69316">
        <ele>56.28695</ele>
        <time>2022-05-14T11:22:22.080Z</time>
      </trkpt>
      <trkpt lat="41.58442" lon="19.69316">
        <ele>56.504944</ele>
        <time>2022-05-14T11:22:25.078Z</time>
      </trkpt>
      <trkpt lat="41.58454" lon="19.69314">
        <ele>56.787455</ele>
        <time>2022-05-14T11:22:29.098Z</time>
      </trkpt>
      <trkpt lat="41.58464" lon="19.69314">
        <ele>57.008358</ele>
        <time>2022-05-14T11:22:32.072Z</time>
      </trkpt>
      <trkpt lat="41.58474" lon="19.69312">
        <ele>57.258034</ele>
        <time>2022-05-14T11:22:35.072Z</time>
      </trkpt>
      <trkpt lat="41.58485" lon="19.69312">
        <ele>57.497126</ele>
        <time>2022-05-14T11:22:38.063Z</time>
      </trkpt>
      <trkpt lat="41.58495" lon="19.69312">
        <ele>57.736223</ele>
        <time>2022-05-14T11:22:41.070Z</time>
      </trkpt>
      <trkpt lat="41.58505" lon="19.69312">
        <ele>57.977817</ele>
        <time>2022-05-14T11:22:44.063Z</time>
      </trkpt>
      <trkpt lat="41.58515" lon="19.6931">
        <ele>58.21602</ele>
        <time>2022-05-14T11:22:47.129Z</time>
      </trkpt>
      <trkpt lat="41.58526" lon="19.69309">
        <ele>58.465235</ele>
        <time>2022-05-14T11:22:50.066Z</time>
      </trkpt>
      <trkpt lat="41.58537" lon="19.69308">
        <ele>58.718687</ele>
        <time>2022-05-14T11:22:53.086Z</time>
      </trkpt>
      <trkpt lat="41.58547" lon="19.69307">
        <ele>58.967655</ele>
        <time>2022-05-14T11:22:56.099Z</time>
      </trkpt>
      <trkpt lat="41.58558" lon="19.69306">
        <ele>59.212849</ele>
        <time>2022-05-14T11:22:59.064Z</time>
      </trkpt>
      <trkpt lat="41.58567" lon="19.69305">
        <ele>59.440894</ele>
        <time>2022-05-14T11:23:02.074Z</time>
      </trkpt>
      <trkpt lat="41.58577" lon="19.69304">
        <ele>59.664741</ele>
        <time>2022-05-14T11:23:05.094Z</time>
      </trkpt>
      <trkpt lat="41.58588" lon="19.69302">
        <ele>59.933617</ele>
        <time>2022-05-14T11:23:09.099Z</time>
      </trkpt>
      <trkpt lat="41.58599" lon="19.69301">
        <ele>60.175688</ele>
        <time>2022-05-14T11:23:13.069Z</time>
      </trkpt>
      <trkpt lat="41.58609" lon="19.693">
        <ele>60.421911</ele>
        <time>2022-05-14T11:23:17.099Z</time>
      </trkpt>
      <trkpt lat="41.5862" lon="19.69299">
        <ele>60.586232</ele>
        <time>2022-05-14T11:23:21.109Z</time>
      </trkpt>
      <trkpt lat="41.58631" lon="19.69298">
        <ele>60.746566</ele>
        <time>2022-05-14T11:23:25.079Z</time>
      </trkpt>
      <trkpt lat="41.58641" lon="19.69297">
        <ele>60.892266</ele>
        <time>2022-05-14T11:23:29.081Z</time>
      </trkpt>
      <trkpt lat="41.5865" lon="19.69296">
        <ele>61.035927</ele>
        <time>2022-05-14T11:23:33.117Z</time>
      </trkpt>
      <trkpt lat="41.5866" lon="19.69295">
        <ele>61.187323</ele>
        <time>2022-05-14T11:23:37.073Z</time>
      </trkpt>
      <trkpt lat="41.58671" lon="19.69293">
        <ele>61.338546</ele>
        <time>2022-05-14T11:23:41.075Z</time>
      </trkpt>
      <trkpt lat="41.5868" lon="19.69292">
        <ele>61.482208</ele>
        <time>2022-05-14T11:23:45.120Z</time>
      </trkpt>
      <trkpt lat="41.58691" lon="19.69292">
        <ele>61.634657</ele>
        <time>2022-05-14T11:23:49.090Z</time>
      </trkpt>
      <trkpt lat="41.58701" lon="19.6929">
        <ele>61.791273</ele>
        <time>2022-05-14T11:23:53.086Z</time>
      </trkpt>
      <trkpt lat="41.58711" lon="19.6929">
        <ele>61.942244</ele>
        <time>2022-05-14T11:23:57.096Z</time>
      </trkpt>
      <trkpt lat="41.58723" lon="19.6929">
        <ele>62.109438</ele>
        <time>2022-05-14T11:24:01.064Z</time>
      </trkpt>
      <trkpt lat="41.58732" lon="19.69291">
        <ele>62.245837</ele>
        <time>2022-05-14T11:24:04.088Z</time>
      </trkpt>
      <trkpt lat="41.58741" lon="19.69295">
        <ele>62.384401</ele>
        <time>2022-05-14T11:24:07.079Z</time>
      </trkpt>
      <trkpt lat="41.58749" lon="19.693">
        <ele>62.525846</ele>
        <time>2022-05-14T11:24:10.079Z</time>
      </trkpt>
      <trkpt lat="41.58757" lon="19.69307">
        <ele>62.669142</ele>
        <time>2022-05-14T11:24:13.119Z</time>
      </trkpt>
      <trkpt lat="41.58765" lon="19.69315">
        <ele>62.815761</ele>
        <time>2022-05-14T11:24:16.100Z</time>
      </trkpt>
      <trkpt lat="41.58774" lon="19.69325">
        <ele>62.977407</ele>
        <time>2022-05-14T11:24:19.094Z</time>
      </trkpt>
      <trkpt lat="41.5878" lon="19.69334">
        <ele>63.014688</ele>
        <time>2022-05-14T11:24:22.133Z</time>
      </trkpt>
      <trkpt lat="41.58788" lon="19.69342">
        <ele>62.637366</ele>
        <time>2022-05-14T11:24:25.111Z</time>
      </trkpt>
      <trkpt lat="41.58797" lon="19.69353">
        <ele>62.205656</ele>
        <time>2022-05-14T11:24:28.082Z</time>
      </trkpt>
      <trkpt lat="41.58803" lon="19.69361">
        <ele>61.866593</ele>
        <time>2022-05-14T11:24:30.091Z</time>
      </trkpt>
      <trkpt lat="41.5881" lon="19.69371">
        <ele>61.490856</ele>
        <time>2022-05-14T11:24:32.064Z</time>
      </trkpt>
      <trkpt lat="41.58818" lon="19.6938">
        <ele>61.113086</ele>
        <time>2022-05-14T11:24:34.083Z</time>
      </trkpt>
      <trkpt lat="41.58825" lon="19.69388">
        <ele>60.777837</ele>
        <time>2022-05-14T11:24:36.114Z</time>
      </trkpt>
      <trkpt lat="41.58833" lon="19.69399">
        <ele>60.33609</ele>
        <time>2022-05-14T11:24:39.077Z</time>
      </trkpt>
      <trkpt lat="41.58841" lon="19.69409">
        <ele>59.932761</ele>
        <time>2022-05-14T11:24:42.110Z</time>
      </trkpt>
      <trkpt lat="41.58848" lon="19.69421">
        <ele>59.520392</ele>
        <time>2022-05-14T11:24:45.087Z</time>
      </trkpt>
      <trkpt lat="41.58855" lon="19.69435">
        <ele>59.046785</ele>
        <time>2022-05-14T11:24:48.092Z</time>
      </trkpt>
      <trkpt lat="41.58862" lon="19.6945">
        <ele>58.55979</ele>
        <time>2022-05-14T11:24:51.112Z</time>
      </trkpt>
      <trkpt lat="41.58869" lon="19.69464">
        <ele>58.077952</ele>
        <time>2022-05-14T11:24:54.091Z</time>
      </trkpt>
      <trkpt lat="41.58875" lon="19.69478">
        <ele>57.634229</ele>
        <time>2022-05-14T11:24:57.089Z</time>
      </trkpt>
      <trkpt lat="41.58879" lon="19.69489">
        <ele>57.275196</ele>
        <time>2022-05-14T11:25:01.095Z</time>
      </trkpt>
      <trkpt lat="41.58883" lon="19.69504">
        <ele>56.839856</ele>
        <time>2022-05-14T11:25:05.107Z</time>
      </trkpt>
      <trkpt lat="41.58887" lon="19.69516">
        <ele>56.481198</ele>
        <time>2022-05-14T11:25:08.094Z</time>
      </trkpt>
      <trkpt lat="41.58891" lon="19.69529">
        <ele>56.338378</ele>
        <time>2022-05-14T11:25:11.083Z</time>
      </trkpt>
      <trkpt lat="41.58895" lon="19.69543">
        <ele>56.263222</ele>
        <time>2022-05-14T11:25:14.080Z</time>
      </trkpt>
      <trkpt lat="41.58898" lon="19.69557">
        <ele>56.187804</ele>
        <time>2022-05-14T11:25:17.088Z</time>
      </trkpt>
      <trkpt lat="41.58901" lon="19.69571">
        <ele>56.111658</ele>
        <time>2022-05-14T11:25:20.082Z</time>
      </trkpt>
      <trkpt lat="41.58904" lon="19.69588">
        <ele>56.025911</ele>
        <time>2022-05-14T11:25:23.084Z</time>
      </trkpt>
      <trkpt lat="41.58905" lon="19.69601">
        <ele>55.956796</ele>
        <time>2022-05-14T11:25:26.082Z</time>
      </trkpt>
      <trkpt lat="41.58906" lon="19.69617">
        <ele>55.876275</ele>
        <time>2022-05-14T11:25:30.087Z</time>
      </trkpt>
      <trkpt lat="41.58905" lon="19.69632">
        <ele>55.795708</ele>
        <time>2022-05-14T11:25:34.076Z</time>
      </trkpt>
      <trkpt lat="41.58905" lon="19.69645">
        <ele>55.731561</ele>
        <time>2022-05-14T11:25:37.092Z</time>
      </trkpt>
      <trkpt lat="41.58904" lon="19.69659">
        <ele>55.658641</ele>
        <time>2022-05-14T11:25:42.077Z</time>
      </trkpt>
      <trkpt lat="41.58904" lon="19.69674">
        <ele>55.584287</ele>
        <time>2022-05-14T11:25:46.088Z</time>
      </trkpt>
      <trkpt lat="41.58903" lon="19.69689">
        <ele>55.505696</ele>
        <time>2022-05-14T11:25:50.076Z</time>
      </trkpt>
      <trkpt lat="41.58903" lon="19.69702">
        <ele>55.436871</ele>
        <time>2022-05-14T11:25:53.081Z</time>
      </trkpt>
      <trkpt lat="41.58902" lon="19.69716">
        <ele>55.365079</ele>
        <time>2022-05-14T11:25:56.089Z</time>
      </trkpt>
      <trkpt lat="41.58902" lon="19.69731">
        <ele>55.288125</ele>
        <time>2022-05-14T11:25:59.082Z</time>
      </trkpt>
      <trkpt lat="41.58901" lon="19.69746">
        <ele>55.210461</ele>
        <time>2022-05-14T11:26:02.088Z</time>
      </trkpt>
      <trkpt lat="41.589" lon="19.69762">
        <ele>55.080118</ele>
        <time>2022-05-14T11:26:05.099Z</time>
      </trkpt>
      <trkpt lat="41.589" lon="19.69779">
        <ele>54.863571</ele>
        <time>2022-05-14T11:26:08.076Z</time>
      </trkpt>
      <trkpt lat="41.58899" lon="19.69795">
        <ele>54.647298</ele>
        <time>2022-05-14T11:26:11.082Z</time>
      </trkpt>
      <trkpt lat="41.58898" lon="19.69813">
        <ele>54.420244</ele>
        <time>2022-05-14T11:26:14.075Z</time>
      </trkpt>
      <trkpt lat="41.58897" lon="19.6983">
        <ele>54.193304</ele>
        <time>2022-05-14T11:26:17.111Z</time>
      </trkpt>
      <trkpt lat="41.58897" lon="19.69847">
        <ele>53.971663</ele>
        <time>2022-05-14T11:26:20.076Z</time>
      </trkpt>
      <trkpt lat="41.58896" lon="19.69864">
        <ele>53.746345</ele>
        <time>2022-05-14T11:26:23.116Z</time>
      </trkpt>
      <trkpt lat="41.58896" lon="19.69882">
        <ele>53.51569</ele>
        <time>2022-05-14T11:26:26.087Z</time>
      </trkpt>
      <trkpt lat="41.58896" lon="19.69898">
        <ele>53.30083</ele>
        <time>2022-05-14T11:26:29.074Z</time>
      </trkpt>
      <trkpt lat="41.58899" lon="19.69916">
        <ele>53.064179</ele>
        <time>2022-05-14T11:26:32.111Z</time>
      </trkpt>
      <trkpt lat="41.58903" lon="19.69929">
        <ele>52.887863</ele>
        <time>2022-05-14T11:26:34.091Z</time>
      </trkpt>
      <trkpt lat="41.58907" lon="19.69943">
        <ele>52.688974</ele>
        <time>2022-05-14T11:26:36.086Z</time>
      </trkpt>
      <trkpt lat="41.58913" lon="19.69955">
        <ele>52.499015</ele>
        <time>2022-05-14T11:26:38.088Z</time>
      </trkpt>
      <trkpt lat="41.5892" lon="19.69966">
        <ele>52.311366</ele>
        <time>2022-05-14T11:26:40.124Z</time>
      </trkpt>
      <trkpt lat="41.58927" lon="19.69976">
        <ele>52.131902</ele>
        <time>2022-05-14T11:26:42.097Z</time>
      </trkpt>
      <trkpt lat="41.58935" lon="19.69984">
        <ele>51.983675</ele>
        <time>2022-05-14T11:26:44.081Z</time>
      </trkpt>
      <trkpt lat="41.58946" lon="19.69992">
        <ele>51.812472</ele>
        <time>2022-05-14T11:26:47.077Z</time>
      </trkpt>
      <trkpt lat="41.58958" lon="19.69999">
        <ele>51.642325</ele>
        <time>2022-05-14T11:26:50.087Z</time>
      </trkpt>
      <trkpt lat="41.58969" lon="19.70005">
        <ele>51.489437</ele>
        <time>2022-05-14T11:26:53.098Z</time>
      </trkpt>
      <trkpt lat="41.58979" lon="19.70011">
        <ele>51.331398</ele>
        <time>2022-05-14T11:26:56.074Z</time>
      </trkpt>
      <trkpt lat="41.5899" lon="19.70017">
        <ele>51.184234</ele>
        <time>2022-05-14T11:26:59.080Z</time>
      </trkpt>
      <trkpt lat="41.59" lon="19.70023">
        <ele>51.039067</ele>
        <time>2022-05-14T11:27:02.125Z</time>
      </trkpt>
      <trkpt lat="41.5901" lon="19.70028">
        <ele>50.896794</ele>
        <time>2022-05-14T11:27:05.090Z</time>
      </trkpt>
      <trkpt lat="41.5902" lon="19.70029">
        <ele>50.76223</ele>
        <time>2022-05-14T11:27:08.079Z</time>
      </trkpt>
      <trkpt lat="41.5903" lon="19.7003">
        <ele>50.623178</ele>
        <time>2022-05-14T11:27:11.084Z</time>
      </trkpt>
      <trkpt lat="41.59041" lon="19.70027">
        <ele>50.483751</ele>
        <time>2022-05-14T11:27:14.083Z</time>
      </trkpt>
      <trkpt lat="41.5905" lon="19.70022">
        <ele>50.345733</ele>
        <time>2022-05-14T11:27:17.073Z</time>
      </trkpt>
      <trkpt lat="41.5906" lon="19.70015">
        <ele>50.203564</ele>
        <time>2022-05-14T11:27:20.094Z</time>
      </trkpt>
      <trkpt lat="41.59069" lon="19.70007">
        <ele>50.054296</ele>
        <time>2022-05-14T11:27:23.079Z</time>
      </trkpt>
      <trkpt lat="41.59079" lon="19.69997">
        <ele>49.889532</ele>
        <time>2022-05-14T11:27:26.076Z</time>
      </trkpt>
      <trkpt lat="41.59089" lon="19.69988">
        <ele>49.731478</ele>
        <time>2022-05-14T11:27:29.066Z</time>
      </trkpt>
      <trkpt lat="41.59099" lon="19.69977">
        <ele>49.719267</ele>
        <time>2022-05-14T11:27:32.073Z</time>
      </trkpt>
      <trkpt lat="41.59109" lon="19.69966">
        <ele>49.851985</ele>
        <time>2022-05-14T11:27:35.113Z</time>
      </trkpt>
      <trkpt lat="41.59119" lon="19.69957">
        <ele>49.977864</ele>
        <time>2022-05-14T11:27:38.077Z</time>
      </trkpt>
      <trkpt lat="41.5913" lon="19.69948">
        <ele>50.110924</ele>
        <time>2022-05-14T11:27:41.083Z</time>
      </trkpt>
      <trkpt lat="41.59141" lon="19.69938">
        <ele>50.240998</ele>
        <time>2022-05-14T11:27:44.095Z</time>
      </trkpt>
      <trkpt lat="41.59151" lon="19.69929">
        <ele>50.365985</ele>
        <time>2022-05-14T11:27:47.118Z</time>
      </trkpt>
      <trkpt lat="41.59162" lon="19.6992">
        <ele>50.490972</ele>
        <time>2022-05-14T11:27:50.086Z</time>
      </trkpt>
      <trkpt lat="41.59172" lon="19.69912">
        <ele>50.615263</ele>
        <time>2022-05-14T11:27:53.075Z</time>
      </trkpt>
      <trkpt lat="41.59183" lon="19.69909">
        <ele>50.725483</ele>
        <time>2022-05-14T11:27:56.083Z</time>
      </trkpt>
      <trkpt lat="41.59195" lon="19.69906">
        <ele>50.849353</ele>
        <time>2022-05-14T11:27:59.082Z</time>
      </trkpt>
      <trkpt lat="41.59206" lon="19.69904">
        <ele>50.963487</ele>
        <time>2022-05-14T11:28:02.059Z</time>
      </trkpt>
      <trkpt lat="41.59218" lon="19.69905">
        <ele>51.083372</ele>
        <time>2022-05-14T11:28:05.091Z</time>
      </trkpt>
      <trkpt lat="41.5923" lon="19.69905">
        <ele>51.207308</ele>
        <time>2022-05-14T11:28:08.072Z</time>
      </trkpt>
      <trkpt lat="41.59242" lon="19.69905">
        <ele>51.327194</ele>
        <time>2022-05-14T11:28:11.077Z</time>
      </trkpt>
      <trkpt lat="41.59253" lon="19.69904">
        <ele>51.446284</ele>
        <time>2022-05-14T11:28:14.099Z</time>
      </trkpt>
      <trkpt lat="41.59265" lon="19.69903">
        <ele>51.35809</ele>
        <time>2022-05-14T11:28:17.081Z</time>
      </trkpt>
      <trkpt lat="41.59278" lon="19.699">
        <ele>51.18959</ele>
        <time>2022-05-14T11:28:20.081Z</time>
      </trkpt>
      <trkpt lat="41.59289" lon="19.69898">
        <ele>51.02957</ele>
        <time>2022-05-14T11:28:23.094Z</time>
      </trkpt>
      <trkpt lat="41.59301" lon="19.69896">
        <ele>50.868601</ele>
        <time>2022-05-14T11:28:26.106Z</time>
      </trkpt>
      <trkpt lat="41.59313" lon="19.69893">
        <ele>50.706793</ele>
        <time>2022-05-14T11:28:29.095Z</time>
      </trkpt>
      <trkpt lat="41.59324" lon="19.69892">
        <ele>50.552545</ele>
        <time>2022-05-14T11:28:32.083Z</time>
      </trkpt>
      <trkpt lat="41.59336" lon="19.6989">
        <ele>50.397075</ele>
        <time>2022-05-14T11:28:35.097Z</time>
      </trkpt>
      <trkpt lat="41.59347" lon="19.69887">
        <ele>50.239437</ele>
        <time>2022-05-14T11:28:38.097Z</time>
      </trkpt>
      <trkpt lat="41.59359" lon="19.69886">
        <ele>50.084083</ele>
        <time>2022-05-14T11:28:41.081Z</time>
      </trkpt>
      <trkpt lat="41.5937" lon="19.69884">
        <ele>49.925543</ele>
        <time>2022-05-14T11:28:44.091Z</time>
      </trkpt>
      <trkpt lat="41.59382" lon="19.69882">
        <ele>49.770668</ele>
        <time>2022-05-14T11:28:47.080Z</time>
      </trkpt>
      <trkpt lat="41.59393" lon="19.69881">
        <ele>49.621015</ele>
        <time>2022-05-14T11:28:50.076Z</time>
      </trkpt>
      <trkpt lat="41.59403" lon="19.69879">
        <ele>49.473849</ele>
        <time>2022-05-14T11:28:53.094Z</time>
      </trkpt>
      <trkpt lat="41.59414" lon="19.69877">
        <ele>49.32484</ele>
        <time>2022-05-14T11:28:56.088Z</time>
      </trkpt>
      <trkpt lat="41.59425" lon="19.69876">
        <ele>49.172393</ele>
        <time>2022-05-14T11:28:59.073Z</time>
      </trkpt>
      <trkpt lat="41.59437" lon="19.69874">
        <ele>49.036683</ele>
        <time>2022-05-14T11:29:02.057Z</time>
      </trkpt>
      <trkpt lat="41.59448" lon="19.69872">
        <ele>48.998878</ele>
        <time>2022-05-14T11:29:05.068Z</time>
      </trkpt>
      <trkpt lat="41.59459" lon="19.69869">
        <ele>48.960529</ele>
        <time>2022-05-14T11:29:08.078Z</time>
      </trkpt>
      <trkpt lat="41.5947" lon="19.69866">
        <ele>48.922467</ele>
        <time>2022-05-14T11:29:11.076Z</time>
      </trkpt>
      <trkpt lat="41.59481" lon="19.69865">
        <ele>48.884324</ele>
        <time>2022-05-14T11:29:14.081Z</time>
      </trkpt>
      <trkpt lat="41.59492" lon="19.69862">
        <ele>48.845032</ele>
        <time>2022-05-14T11:29:17.058Z</time>
      </trkpt>
      <trkpt lat="41.59504" lon="19.69859">
        <ele>48.805012</ele>
        <time>2022-05-14T11:29:20.075Z</time>
      </trkpt>
      <trkpt lat="41.59516" lon="19.69858">
        <ele>48.762879</ele>
        <time>2022-05-14T11:29:23.113Z</time>
      </trkpt>
      <trkpt lat="41.59528" lon="19.69858">
        <ele>48.721923</ele>
        <time>2022-05-14T11:29:26.079Z</time>
      </trkpt>
      <trkpt lat="41.5954" lon="19.69862">
        <ele>48.680577</ele>
        <time>2022-05-14T11:29:29.095Z</time>
      </trkpt>
      <trkpt lat="41.59551" lon="19.69867">
        <ele>48.639727</ele>
        <time>2022-05-14T11:29:32.094Z</time>
      </trkpt>
      <trkpt lat="41.59563" lon="19.69872">
        <ele>48.597978</ele>
        <time>2022-05-14T11:29:35.083Z</time>
      </trkpt>
      <trkpt lat="41.59575" lon="19.69878">
        <ele>48.554</ele>
        <time>2022-05-14T11:29:38.102Z</time>
      </trkpt>
      <trkpt lat="41.59587" lon="19.69883">
        <ele>48.51185</ele>
        <time>2022-05-14T11:29:41.080Z</time>
      </trkpt>
      <trkpt lat="41.59598" lon="19.69887">
        <ele>48.471644</ele>
        <time>2022-05-14T11:29:44.076Z</time>
      </trkpt>
      <trkpt lat="41.5961" lon="19.6989">
        <ele>48.429838</ele>
        <time>2022-05-14T11:29:47.082Z</time>
      </trkpt>
      <trkpt lat="41.59622" lon="19.69892">
        <ele>48.416997</ele>
        <time>2022-05-14T11:29:50.102Z</time>
      </trkpt>
      <trkpt lat="41.59633" lon="19.69894">
        <ele>48.405137</ele>
        <time>2022-05-14T11:29:53.060Z</time>
      </trkpt>
      <trkpt lat="41.59645" lon="19.69896">
        <ele>48.393044</ele>
        <time>2022-05-14T11:29:56.083Z</time>
      </trkpt>
      <trkpt lat="41.59657" lon="19.69898">
        <ele>48.380994</ele>
        <time>2022-05-14T11:29:59.086Z</time>
      </trkpt>
      <trkpt lat="41.59668" lon="19.699">
        <ele>48.369288</ele>
        <time>2022-05-14T11:30:02.058Z</time>
      </trkpt>
      <trkpt lat="41.5968" lon="19.69902">
        <ele>48.357462</ele>
        <time>2022-05-14T11:30:05.098Z</time>
      </trkpt>
      <trkpt lat="41.59691" lon="19.69904">
        <ele>48.345544</ele>
        <time>2022-05-14T11:30:08.114Z</time>
      </trkpt>
      <trkpt lat="41.59703" lon="19.69907">
        <ele>48.333847</ele>
        <time>2022-05-14T11:30:11.107Z</time>
      </trkpt>
      <trkpt lat="41.59714" lon="19.69909">
        <ele>48.322503</ele>
        <time>2022-05-14T11:30:14.103Z</time>
      </trkpt>
      <trkpt lat="41.59725" lon="19.69912">
        <ele>48.311158</ele>
        <time>2022-05-14T11:30:17.103Z</time>
      </trkpt>
      <trkpt lat="41.59735" lon="19.69914">
        <ele>48.300115</ele>
        <time>2022-05-14T11:30:20.090Z</time>
      </trkpt>
      <trkpt lat="41.59746" lon="19.69916">
        <ele>48.289016</ele>
        <time>2022-05-14T11:30:23.086Z</time>
      </trkpt>
      <trkpt lat="41.59757" lon="19.69918">
        <ele>48.278086</ele>
        <time>2022-05-14T11:30:26.080Z</time>
      </trkpt>
      <trkpt lat="41.59767" lon="19.6992">
        <ele>48.267156</ele>
        <time>2022-05-14T11:30:29.092Z</time>
      </trkpt>
      <trkpt lat="41.59778" lon="19.69922">
        <ele>48.25655</ele>
        <time>2022-05-14T11:30:32.072Z</time>
      </trkpt>
      <trkpt lat="41.59788" lon="19.69924">
        <ele>48.245844</ele>
        <time>2022-05-14T11:30:35.094Z</time>
      </trkpt>
      <trkpt lat="41.59798" lon="19.69926">
        <ele>48.385352</ele>
        <time>2022-05-14T11:30:38.070Z</time>
      </trkpt>
      <trkpt lat="41.59808" lon="19.69927">
        <ele>48.528794</ele>
        <time>2022-05-14T11:30:41.094Z</time>
      </trkpt>
      <trkpt lat="41.59818" lon="19.69929">
        <ele>48.668867</ele>
        <time>2022-05-14T11:30:44.071Z</time>
      </trkpt>
      <trkpt lat="41.59828" lon="19.69932">
        <ele>48.812686</ele>
        <time>2022-05-14T11:30:47.087Z</time>
      </trkpt>
      <trkpt lat="41.59838" lon="19.69935">
        <ele>48.957904</ele>
        <time>2022-05-14T11:30:50.093Z</time>
      </trkpt>
      <trkpt lat="41.59848" lon="19.69937">
        <ele>49.105726</ele>
        <time>2022-05-14T11:30:53.111Z</time>
      </trkpt>
      <trkpt lat="41.59858" lon="19.69939">
        <ele>49.248963</ele>
        <time>2022-05-14T11:30:56.065Z</time>
      </trkpt>
      <trkpt lat="41.59867" lon="19.69942">
        <ele>49.384996</ele>
        <time>2022-05-14T11:30:59.092Z</time>
      </trkpt>
      <trkpt lat="41.59876" lon="19.69944">
        <ele>49.518221</ele>
        <time>2022-05-14T11:31:02.117Z</time>
      </trkpt>
      <trkpt lat="41.59885" lon="19.69946">
        <ele>49.65065</ele>
        <time>2022-05-14T11:31:05.106Z</time>
      </trkpt>
      <trkpt lat="41.59898" lon="19.69949">
        <ele>49.830093</ele>
        <time>2022-05-14T11:31:09.101Z</time>
      </trkpt>
      <trkpt lat="41.59907" lon="19.69951">
        <ele>49.965039</ele>
        <time>2022-05-14T11:31:12.070Z</time>
      </trkpt>
      <trkpt lat="41.59917" lon="19.69953">
        <ele>50.105659</ele>
        <time>2022-05-14T11:31:15.044Z</time>
      </trkpt>
      <trkpt lat="41.59926" lon="19.69955">
        <ele>50.243281</ele>
        <time>2022-05-14T11:31:18.056Z</time>
      </trkpt>
      <trkpt lat="41.59936" lon="19.69958">
        <ele>50.388108</ele>
        <time>2022-05-14T11:31:21.077Z</time>
      </trkpt>
      <trkpt lat="41.59947" lon="19.6996">
        <ele>50.533979</ele>
        <time>2022-05-14T11:31:24.075Z</time>
      </trkpt>
      <trkpt lat="41.59957" lon="19.69962">
        <ele>50.678444</ele>
        <time>2022-05-14T11:31:27.080Z</time>
      </trkpt>
      <trkpt lat="41.59966" lon="19.69964">
        <ele>50.826016</ele>
        <time>2022-05-14T11:31:30.099Z</time>
      </trkpt>
      <trkpt lat="41.59975" lon="19.69966">
        <ele>51.163605</ele>
        <time>2022-05-14T11:31:33.059Z</time>
      </trkpt>
      <trkpt lat="41.59985" lon="19.69969">
        <ele>51.513279</ele>
        <time>2022-05-14T11:31:36.073Z</time>
      </trkpt>
      <trkpt lat="41.59995" lon="19.69971">
        <ele>51.874625</ele>
        <time>2022-05-14T11:31:39.100Z</time>
      </trkpt>
      <trkpt lat="41.60004" lon="19.69974">
        <ele>52.238753</ele>
        <time>2022-05-14T11:31:42.091Z</time>
      </trkpt>
      <trkpt lat="41.60014" lon="19.69977">
        <ele>52.579327</ele>
        <time>2022-05-14T11:31:45.122Z</time>
      </trkpt>
      <trkpt lat="41.60023" lon="19.6998">
        <ele>52.92782</ele>
        <time>2022-05-14T11:31:48.102Z</time>
      </trkpt>
      <trkpt lat="41.60032" lon="19.69985">
        <ele>53.286491</ele>
        <time>2022-05-14T11:31:51.082Z</time>
      </trkpt>
      <trkpt lat="41.6004" lon="19.69992">
        <ele>53.629768</ele>
        <time>2022-05-14T11:31:54.094Z</time>
      </trkpt>
      <trkpt lat="41.60047" lon="19.70001">
        <ele>53.976986</ele>
        <time>2022-05-14T11:31:57.085Z</time>
      </trkpt>
      <trkpt lat="41.60053" lon="19.70012">
        <ele>54.341387</ele>
        <time>2022-05-14T11:32:00.098Z</time>
      </trkpt>
      <trkpt lat="41.60058" lon="19.70023">
        <ele>54.70688</ele>
        <time>2022-05-14T11:32:03.076Z</time>
      </trkpt>
      <trkpt lat="41.60062" lon="19.70036">
        <ele>55.07557</ele>
        <time>2022-05-14T11:32:06.077Z</time>
      </trkpt>
      <trkpt lat="41.60067" lon="19.7005">
        <ele>55.507162</ele>
        <time>2022-05-14T11:32:09.076Z</time>
      </trkpt>
      <trkpt lat="41.60071" lon="19.70062">
        <ele>55.842324</ele>
        <time>2022-05-14T11:32:11.077Z</time>
      </trkpt>
      <trkpt lat="41.60075" lon="19.70074">
        <ele>56.200338</ele>
        <time>2022-05-14T11:32:13.084Z</time>
      </trkpt>
      <trkpt lat="41.60081" lon="19.70089">
        <ele>56.681081</ele>
        <time>2022-05-14T11:32:16.089Z</time>
      </trkpt>
      <trkpt lat="41.60085" lon="19.70102">
        <ele>57.03752</ele>
        <time>2022-05-14T11:32:18.086Z</time>
      </trkpt>
      <trkpt lat="41.60088" lon="19.70113">
        <ele>57.330978</ele>
        <time>2022-05-14T11:32:20.096Z</time>
      </trkpt>
      <trkpt lat="41.60094" lon="19.70129">
        <ele>57.401398</ele>
        <time>2022-05-14T11:32:23.091Z</time>
      </trkpt>
      <trkpt lat="41.60099" lon="19.70144">
        <ele>57.468771</ele>
        <time>2022-05-14T11:32:26.095Z</time>
      </trkpt>
      <trkpt lat="41.60104" lon="19.70159">
        <ele>57.534619</ele>
        <time>2022-05-14T11:32:29.100Z</time>
      </trkpt>
      <trkpt lat="41.6011" lon="19.70174">
        <ele>57.60348</ele>
        <time>2022-05-14T11:32:32.076Z</time>
      </trkpt>
      <trkpt lat="41.60115" lon="19.7019">
        <ele>57.673435</ele>
        <time>2022-05-14T11:32:35.075Z</time>
      </trkpt>
      <trkpt lat="41.60121" lon="19.70205">
        <ele>57.740482</ele>
        <time>2022-05-14T11:32:38.093Z</time>
      </trkpt>
      <trkpt lat="41.60126" lon="19.7022">
        <ele>57.806234</ele>
        <time>2022-05-14T11:32:41.079Z</time>
      </trkpt>
      <trkpt lat="41.60131" lon="19.70235">
        <ele>57.873643</ele>
        <time>2022-05-14T11:32:44.089Z</time>
      </trkpt>
      <trkpt lat="41.60137" lon="19.7025">
        <ele>57.943233</ele>
        <time>2022-05-14T11:32:47.105Z</time>
      </trkpt>
      <trkpt lat="41.60142" lon="19.70264">
        <ele>58.006335</ele>
        <time>2022-05-14T11:32:50.075Z</time>
      </trkpt>
      <trkpt lat="41.60146" lon="19.70278">
        <ele>58.066055</ele>
        <time>2022-05-14T11:32:53.076Z</time>
      </trkpt>
      <trkpt lat="41.60151" lon="19.70291">
        <ele>58.126431</ele>
        <time>2022-05-14T11:32:56.079Z</time>
      </trkpt>
      <trkpt lat="41.60156" lon="19.70305">
        <ele>58.186019</ele>
        <time>2022-05-14T11:32:59.107Z</time>
      </trkpt>
      <trkpt lat="41.6016" lon="19.70319">
        <ele>58.247814</ele>
        <time>2022-05-14T11:33:02.075Z</time>
      </trkpt>
      <trkpt lat="41.60165" lon="19.70332">
        <ele>58.327803</ele>
        <time>2022-05-14T11:33:05.111Z</time>
      </trkpt>
      <trkpt lat="41.60169" lon="19.70345">
        <ele>58.472321</ele>
        <time>2022-05-14T11:33:08.091Z</time>
      </trkpt>
      <trkpt lat="41.60173" lon="19.7036">
        <ele>58.632266</ele>
        <time>2022-05-14T11:33:11.077Z</time>
      </trkpt>
      <trkpt lat="41.60176" lon="19.70376">
        <ele>58.79945</ele>
        <time>2022-05-14T11:33:14.104Z</time>
      </trkpt>
      <trkpt lat="41.60177" lon="19.70391">
        <ele>58.950493</ele>
        <time>2022-05-14T11:33:17.082Z</time>
      </trkpt>
      <trkpt lat="41.60178" lon="19.70405">
        <ele>59.098176</ele>
        <time>2022-05-14T11:33:20.086Z</time>
      </trkpt>
      <trkpt lat="41.60179" lon="19.70419">
        <ele>59.24129</ele>
        <time>2022-05-14T11:33:23.114Z</time>
      </trkpt>
      <trkpt lat="41.6018" lon="19.70432">
        <ele>59.370072</ele>
        <time>2022-05-14T11:33:26.078Z</time>
      </trkpt>
      <trkpt lat="41.6018" lon="19.70445">
        <ele>59.499634</ele>
        <time>2022-05-14T11:33:29.084Z</time>
      </trkpt>
      <trkpt lat="41.6018" lon="19.70457">
        <ele>59.628178</ele>
        <time>2022-05-14T11:33:32.122Z</time>
      </trkpt>
      <trkpt lat="41.60181" lon="19.7047">
        <ele>59.761382</ele>
        <time>2022-05-14T11:33:35.091Z</time>
      </trkpt>
      <trkpt lat="41.60182" lon="19.70486">
        <ele>59.918403</ele>
        <time>2022-05-14T11:33:38.072Z</time>
      </trkpt>
      <trkpt lat="41.60182" lon="19.70502">
        <ele>60.085702</ele>
        <time>2022-05-14T11:33:41.078Z</time>
      </trkpt>
      <trkpt lat="41.60183" lon="19.70517">
        <ele>60.241941</ele>
        <time>2022-05-14T11:33:44.099Z</time>
      </trkpt>
      <trkpt lat="41.60185" lon="19.70533">
        <ele>60.401569</ele>
        <time>2022-05-14T11:33:47.078Z</time>
      </trkpt>
      <trkpt lat="41.6019" lon="19.70547">
        <ele>60.55672</ele>
        <time>2022-05-14T11:33:50.110Z</time>
      </trkpt>
      <trkpt lat="41.60194" lon="19.70559">
        <ele>60.702382</ele>
        <time>2022-05-14T11:33:53.094Z</time>
      </trkpt>
      <trkpt lat="41.60201" lon="19.70571">
        <ele>60.613443</ele>
        <time>2022-05-14T11:33:56.113Z</time>
      </trkpt>
      <trkpt lat="41.60209" lon="19.70583">
        <ele>60.394408</ele>
        <time>2022-05-14T11:33:59.087Z</time>
      </trkpt>
      <trkpt lat="41.60218" lon="19.70594">
        <ele>60.160305</ele>
        <time>2022-05-14T11:34:02.081Z</time>
      </trkpt>
      <trkpt lat="41.60229" lon="19.70605">
        <ele>59.919488</ele>
        <time>2022-05-14T11:34:05.074Z</time>
      </trkpt>
      <trkpt lat="41.6024" lon="19.70615">
        <ele>59.672787</ele>
        <time>2022-05-14T11:34:08.070Z</time>
      </trkpt>
      <trkpt lat="41.60247" lon="19.70623">
        <ele>59.504236</ele>
        <time>2022-05-14T11:34:10.123Z</time>
      </trkpt>
      <trkpt lat="41.60257" lon="19.70634">
        <ele>59.260923</ele>
        <time>2022-05-14T11:34:13.121Z</time>
      </trkpt>
      <trkpt lat="41.60268" lon="19.70645">
        <ele>59.013538</ele>
        <time>2022-05-14T11:34:16.069Z</time>
      </trkpt>
      <trkpt lat="41.60279" lon="19.70655">
        <ele>58.767782</ele>
        <time>2022-05-14T11:34:19.088Z</time>
      </trkpt>
      <trkpt lat="41.6029" lon="19.70665">
        <ele>58.525044</ele>
        <time>2022-05-14T11:34:22.094Z</time>
      </trkpt>
      <trkpt lat="41.60301" lon="19.70676">
        <ele>58.281114</ele>
        <time>2022-05-14T11:34:25.072Z</time>
      </trkpt>
      <trkpt lat="41.60312" lon="19.70685">
        <ele>58.038409</ele>
        <time>2022-05-14T11:34:28.096Z</time>
      </trkpt>
      <trkpt lat="41.60319" lon="19.70692">
        <ele>57.870252</ele>
        <time>2022-05-14T11:34:30.085Z</time>
      </trkpt>
      <trkpt lat="41.60327" lon="19.70699">
        <ele>57.704377</ele>
        <time>2022-05-14T11:34:32.108Z</time>
      </trkpt>
      <trkpt lat="41.60335" lon="19.70705">
        <ele>57.536963</ele>
        <time>2022-05-14T11:34:34.067Z</time>
      </trkpt>
      <trkpt lat="41.60343" lon="19.70712">
        <ele>57.391428</ele>
        <time>2022-05-14T11:34:36.070Z</time>
      </trkpt>
      <trkpt lat="41.60351" lon="19.70719">
        <ele>57.271032</ele>
        <time>2022-05-14T11:34:38.084Z</time>
      </trkpt>
      <trkpt lat="41.60358" lon="19.70725">
        <ele>57.15235</ele>
        <time>2022-05-14T11:34:40.095Z</time>
      </trkpt>
      <trkpt lat="41.60366" lon="19.70732">
        <ele>57.03632</ele>
        <time>2022-05-14T11:34:42.093Z</time>
      </trkpt>
      <trkpt lat="41.60374" lon="19.70738">
        <ele>56.920289</ele>
        <time>2022-05-14T11:34:44.081Z</time>
      </trkpt>
      <trkpt lat="41.60381" lon="19.70745">
        <ele>56.803204</ele>
        <time>2022-05-14T11:34:46.073Z</time>
      </trkpt>
      <trkpt lat="41.60389" lon="19.70752">
        <ele>56.684522</ele>
        <time>2022-05-14T11:34:48.097Z</time>
      </trkpt>
      <trkpt lat="41.60396" lon="19.70759">
        <ele>56.567437</ele>
        <time>2022-05-14T11:34:50.096Z</time>
      </trkpt>
      <trkpt lat="41.60404" lon="19.70766">
        <ele>56.450894</ele>
        <time>2022-05-14T11:34:52.086Z</time>
      </trkpt>
      <trkpt lat="41.60411" lon="19.70773">
        <ele>56.332204</ele>
        <time>2022-05-14T11:34:54.082Z</time>
      </trkpt>
      <trkpt lat="41.60419" lon="19.7078">
        <ele>56.209115</ele>
        <time>2022-05-14T11:34:56.081Z</time>
      </trkpt>
      <trkpt lat="41.60427" lon="19.70788">
        <ele>56.081778</ele>
        <time>2022-05-14T11:34:58.125Z</time>
      </trkpt>
      <trkpt lat="41.60435" lon="19.70797">
        <ele>55.950532</ele>
        <time>2022-05-14T11:35:00.081Z</time>
      </trkpt>
      <trkpt lat="41.60443" lon="19.70805">
        <ele>55.822115</ele>
        <time>2022-05-14T11:35:02.084Z</time>
      </trkpt>
      <trkpt lat="41.60451" lon="19.70814">
        <ele>55.690862</ele>
        <time>2022-05-14T11:35:04.117Z</time>
      </trkpt>
      <trkpt lat="41.60458" lon="19.70822">
        <ele>55.563794</ele>
        <time>2022-05-14T11:35:06.079Z</time>
      </trkpt>
      <trkpt lat="41.60465" lon="19.70831">
        <ele>55.445732</ele>
        <time>2022-05-14T11:35:08.089Z</time>
      </trkpt>
      <trkpt lat="41.60473" lon="19.70844">
        <ele>55.280493</ele>
        <time>2022-05-14T11:35:11.087Z</time>
      </trkpt>
      <trkpt lat="41.60479" lon="19.70854">
        <ele>55.162599</ele>
        <time>2022-05-14T11:35:13.078Z</time>
      </trkpt>
      <trkpt lat="41.60484" lon="19.70864">
        <ele>55.200107</ele>
        <time>2022-05-14T11:35:15.111Z</time>
      </trkpt>
      <trkpt lat="41.6049" lon="19.70875">
        <ele>55.275516</ele>
        <time>2022-05-14T11:35:17.076Z</time>
      </trkpt>
      <trkpt lat="41.60496" lon="19.70887">
        <ele>55.350256</ele>
        <time>2022-05-14T11:35:19.094Z</time>
      </trkpt>
      <trkpt lat="41.60501" lon="19.70898">
        <ele>55.422024</ele>
        <time>2022-05-14T11:35:21.122Z</time>
      </trkpt>
      <trkpt lat="41.60506" lon="19.70909">
        <ele>55.493936</ele>
        <time>2022-05-14T11:35:23.068Z</time>
      </trkpt>
      <trkpt lat="41.60512" lon="19.7092">
        <ele>55.566764</ele>
        <time>2022-05-14T11:35:25.065Z</time>
      </trkpt>
      <trkpt lat="41.60517" lon="19.7093">
        <ele>55.636573</ele>
        <time>2022-05-14T11:35:27.093Z</time>
      </trkpt>
      <trkpt lat="41.60522" lon="19.7094">
        <ele>55.704121</ele>
        <time>2022-05-14T11:35:29.103Z</time>
      </trkpt>
      <trkpt lat="41.60529" lon="19.70954">
        <ele>55.799104</ele>
        <time>2022-05-14T11:35:32.064Z</time>
      </trkpt>
      <trkpt lat="41.60536" lon="19.70968">
        <ele>55.889511</ele>
        <time>2022-05-14T11:35:35.085Z</time>
      </trkpt>
      <trkpt lat="41.60542" lon="19.70982">
        <ele>55.980534</ele>
        <time>2022-05-14T11:35:38.082Z</time>
      </trkpt>
      <trkpt lat="41.60548" lon="19.70995">
        <ele>56.065615</ele>
        <time>2022-05-14T11:35:41.080Z</time>
      </trkpt>
      <trkpt lat="41.60554" lon="19.71008">
        <ele>56.149283</ele>
        <time>2022-05-14T11:35:44.092Z</time>
      </trkpt>
      <trkpt lat="41.6056" lon="19.71021">
        <ele>56.232483</ele>
        <time>2022-05-14T11:35:47.084Z</time>
      </trkpt>
      <trkpt lat="41.60567" lon="19.71033">
        <ele>56.313265</ele>
        <time>2022-05-14T11:35:50.092Z</time>
      </trkpt>
      <trkpt lat="41.60573" lon="19.71044">
        <ele>56.392296</ele>
        <time>2022-05-14T11:35:53.075Z</time>
      </trkpt>
      <trkpt lat="41.60579" lon="19.71056">
        <ele>56.474677</ele>
        <time>2022-05-14T11:35:56.106Z</time>
      </trkpt>
      <trkpt lat="41.60586" lon="19.71068">
        <ele>56.694163</ele>
        <time>2022-05-14T11:35:59.081Z</time>
      </trkpt>
      <trkpt lat="41.60593" lon="19.7108">
        <ele>56.910224</ele>
        <time>2022-05-14T11:36:02.110Z</time>
      </trkpt>
      <trkpt lat="41.606" lon="19.7109">
        <ele>57.10755</ele>
        <time>2022-05-14T11:36:05.120Z</time>
      </trkpt>
      <trkpt lat="41.60606" lon="19.71101">
        <ele>57.309849</ele>
        <time>2022-05-14T11:36:08.082Z</time>
      </trkpt>
      <trkpt lat="41.60613" lon="19.71112">
        <ele>57.51794</ele>
        <time>2022-05-14T11:36:11.098Z</time>
      </trkpt>
      <trkpt lat="41.6062" lon="19.71124">
        <ele>57.735194</ele>
        <time>2022-05-14T11:36:14.073Z</time>
      </trkpt>
      <trkpt lat="41.60627" lon="19.71136">
        <ele>57.94661</ele>
        <time>2022-05-14T11:36:17.071Z</time>
      </trkpt>
      <trkpt lat="41.60634" lon="19.71147">
        <ele>58.15921</ele>
        <time>2022-05-14T11:36:20.081Z</time>
      </trkpt>
      <trkpt lat="41.60641" lon="19.71159">
        <ele>58.373091</ele>
        <time>2022-05-14T11:36:23.085Z</time>
      </trkpt>
      <trkpt lat="41.60648" lon="19.7117">
        <ele>58.584876</ele>
        <time>2022-05-14T11:36:26.106Z</time>
      </trkpt>
      <trkpt lat="41.60655" lon="19.71181">
        <ele>58.800895</ele>
        <time>2022-05-14T11:36:29.084Z</time>
      </trkpt>
      <trkpt lat="41.60663" lon="19.71191">
        <ele>59.007335</ele>
        <time>2022-05-14T11:36:32.064Z</time>
      </trkpt>
      <trkpt lat="41.60672" lon="19.71199">
        <ele>59.207002</ele>
        <time>2022-05-14T11:36:35.092Z</time>
      </trkpt>
      <trkpt lat="41.60681" lon="19.71206">
        <ele>59.418142</ele>
        <time>2022-05-14T11:36:38.135Z</time>
      </trkpt>
      <trkpt lat="41.60691" lon="19.71213">
        <ele>59.637223</ele>
        <time>2022-05-14T11:36:41.070Z</time>
      </trkpt>
      <trkpt lat="41.60702" lon="19.71218">
        <ele>59.855859</ele>
        <time>2022-05-14T11:36:44.078Z</time>
      </trkpt>
      <trkpt lat="41.60714" lon="19.71222">
        <ele>59.81811</ele>
        <time>2022-05-14T11:36:47.107Z</time>
      </trkpt>
      <trkpt lat="41.60723" lon="19.71226">
        <ele>59.655433</ele>
        <time>2022-05-14T11:36:49.124Z</time>
      </trkpt>
      <trkpt lat="41.60733" lon="19.7123">
        <ele>59.482675</ele>
        <time>2022-05-14T11:36:51.068Z</time>
      </trkpt>
      <trkpt lat="41.60743" lon="19.71234">
        <ele>59.311784</ele>
        <time>2022-05-14T11:36:53.102Z</time>
      </trkpt>
      <trkpt lat="41.60754" lon="19.71238">
        <ele>59.134393</ele>
        <time>2022-05-14T11:36:55.102Z</time>
      </trkpt>
      <trkpt lat="41.60764" lon="19.71243">
        <ele>58.952348</ele>
        <time>2022-05-14T11:36:57.074Z</time>
      </trkpt>
      <trkpt lat="41.60775" lon="19.71248">
        <ele>58.760192</ele>
        <time>2022-05-14T11:36:59.068Z</time>
      </trkpt>
      <trkpt lat="41.60786" lon="19.71253">
        <ele>58.570743</ele>
        <time>2022-05-14T11:37:01.104Z</time>
      </trkpt>
      <trkpt lat="41.60796" lon="19.71258">
        <ele>58.390125</ele>
        <time>2022-05-14T11:37:03.091Z</time>
      </trkpt>
      <trkpt lat="41.60807" lon="19.71264">
        <ele>58.209798</ele>
        <time>2022-05-14T11:37:05.092Z</time>
      </trkpt>
      <trkpt lat="41.60816" lon="19.7127">
        <ele>58.033883</ele>
        <time>2022-05-14T11:37:07.096Z</time>
      </trkpt>
      <trkpt lat="41.60825" lon="19.71278">
        <ele>57.862028</ele>
        <time>2022-05-14T11:37:09.082Z</time>
      </trkpt>
      <trkpt lat="41.60833" lon="19.71286">
        <ele>57.696102</ele>
        <time>2022-05-14T11:37:12.099Z</time>
      </trkpt>
      <trkpt lat="41.60841" lon="19.71295">
        <ele>57.522338</ele>
        <time>2022-05-14T11:37:16.076Z</time>
      </trkpt>
      <trkpt lat="41.60848" lon="19.71305">
        <ele>57.356321</ele>
        <time>2022-05-14T11:37:19.096Z</time>
      </trkpt>
      <trkpt lat="41.60856" lon="19.71316">
        <ele>57.161392</ele>
        <time>2022-05-14T11:37:22.099Z</time>
      </trkpt>
      <trkpt lat="41.60865" lon="19.71328">
        <ele>56.946336</ele>
        <time>2022-05-14T11:37:25.083Z</time>
      </trkpt>
      <trkpt lat="41.60874" lon="19.71339">
        <ele>56.589034</ele>
        <time>2022-05-14T11:37:28.125Z</time>
      </trkpt>
      <trkpt lat="41.60886" lon="19.71348">
        <ele>56.214271</ele>
        <time>2022-05-14T11:37:31.096Z</time>
      </trkpt>
      <trkpt lat="41.60894" lon="19.71353">
        <ele>55.952215</ele>
        <time>2022-05-14T11:37:33.092Z</time>
      </trkpt>
      <trkpt lat="41.60907" lon="19.71355">
        <ele>55.582417</ele>
        <time>2022-05-14T11:37:36.069Z</time>
      </trkpt>
      <trkpt lat="41.60921" lon="19.71353">
        <ele>55.210062</ele>
        <time>2022-05-14T11:37:39.112Z</time>
      </trkpt>
      <trkpt lat="41.6093" lon="19.7135">
        <ele>54.955828</ele>
        <time>2022-05-14T11:37:41.097Z</time>
      </trkpt>
      <trkpt lat="41.60939" lon="19.71348">
        <ele>54.690572</ele>
        <time>2022-05-14T11:37:43.075Z</time>
      </trkpt>
      <trkpt lat="41.60952" lon="19.71345">
        <ele>54.316305</ele>
        <time>2022-05-14T11:37:46.087Z</time>
      </trkpt>
      <trkpt lat="41.60961" lon="19.71342">
        <ele>54.058915</ele>
        <time>2022-05-14T11:37:48.085Z</time>
      </trkpt>
      <trkpt lat="41.6097" lon="19.7134">
        <ele>53.78695</ele>
        <time>2022-05-14T11:37:50.081Z</time>
      </trkpt>
      <trkpt lat="41.6098" lon="19.71337">
        <ele>53.508182</ele>
        <time>2022-05-14T11:37:52.102Z</time>
      </trkpt>
      <trkpt lat="41.6099" lon="19.71333">
        <ele>53.226786</ele>
        <time>2022-05-14T11:37:54.096Z</time>
      </trkpt>
      <trkpt lat="41.61" lon="19.71329">
        <ele>52.938487</ele>
        <time>2022-05-14T11:37:56.081Z</time>
      </trkpt>
      <trkpt lat="41.6101" lon="19.71326">
        <ele>52.65233</ele>
        <time>2022-05-14T11:37:58.083Z</time>
      </trkpt>
      <trkpt lat="41.6102" lon="19.71324">
        <ele>52.365655</ele>
        <time>2022-05-14T11:38:00.078Z</time>
      </trkpt>
      <trkpt lat="41.6103" lon="19.71324">
        <ele>52.08796</ele>
        <time>2022-05-14T11:38:02.086Z</time>
      </trkpt>
      <trkpt lat="41.61039" lon="19.71321">
        <ele>51.86371</ele>
        <time>2022-05-14T11:38:04.086Z</time>
      </trkpt>
      <trkpt lat="41.61049" lon="19.71318">
        <ele>51.69703</ele>
        <time>2022-05-14T11:38:06.077Z</time>
      </trkpt>
      <trkpt lat="41.61058" lon="19.71316">
        <ele>51.537943</ele>
        <time>2022-05-14T11:38:08.078Z</time>
      </trkpt>
      <trkpt lat="41.6107" lon="19.71311">
        <ele>51.314334</ele>
        <time>2022-05-14T11:38:11.085Z</time>
      </trkpt>
      <trkpt lat="41.61082" lon="19.71306">
        <ele>51.102088</ele>
        <time>2022-05-14T11:38:14.065Z</time>
      </trkpt>
      <trkpt lat="41.61093" lon="19.713">
        <ele>50.901153</ele>
        <time>2022-05-14T11:38:17.096Z</time>
      </trkpt>
      <trkpt lat="41.61102" lon="19.71293">
        <ele>50.720731</ele>
        <time>2022-05-14T11:38:20.078Z</time>
      </trkpt>
      <trkpt lat="41.61112" lon="19.71286">
        <ele>50.517435</ele>
        <time>2022-05-14T11:38:23.088Z</time>
      </trkpt>
      <trkpt lat="41.61123" lon="19.71276">
        <ele>50.290144</ele>
        <time>2022-05-14T11:38:26.117Z</time>
      </trkpt>
      <trkpt lat="41.61131" lon="19.71269">
        <ele>50.133815</ele>
        <time>2022-05-14T11:38:28.087Z</time>
      </trkpt>
      <trkpt lat="41.61138" lon="19.71262">
        <ele>49.975375</ele>
        <time>2022-05-14T11:38:30.095Z</time>
      </trkpt>
      <trkpt lat="41.61146" lon="19.71255">
        <ele>49.81408</ele>
        <time>2022-05-14T11:38:32.080Z</time>
      </trkpt>
      <trkpt lat="41.61154" lon="19.71248">
        <ele>49.648466</ele>
        <time>2022-05-14T11:38:34.065Z</time>
      </trkpt>
      <trkpt lat="41.61162" lon="19.7124">
        <ele>49.481867</ele>
        <time>2022-05-14T11:38:36.083Z</time>
      </trkpt>
      <trkpt lat="41.61169" lon="19.71233">
        <ele>49.320157</ele>
        <time>2022-05-14T11:38:38.091Z</time>
      </trkpt>
      <trkpt lat="41.61177" lon="19.71225">
        <ele>49.157083</ele>
        <time>2022-05-14T11:38:40.114Z</time>
      </trkpt>
      <trkpt lat="41.61186" lon="19.71213">
        <ele>48.929929</ele>
        <time>2022-05-14T11:38:43.069Z</time>
      </trkpt>
      <trkpt lat="41.61196" lon="19.712">
        <ele>48.900518</ele>
        <time>2022-05-14T11:38:46.094Z</time>
      </trkpt>
      <trkpt lat="41.61202" lon="19.71191">
        <ele>48.959681</ele>
        <time>2022-05-14T11:38:48.096Z</time>
      </trkpt>
      <trkpt lat="41.61211" lon="19.7118">
        <ele>49.043873</ele>
        <time>2022-05-14T11:38:51.081Z</time>
      </trkpt>
      <trkpt lat="41.6122" lon="19.71167">
        <ele>49.130719</ele>
        <time>2022-05-14T11:38:54.075Z</time>
      </trkpt>
      <trkpt lat="41.6123" lon="19.71156">
        <ele>49.212756</ele>
        <time>2022-05-14T11:38:57.103Z</time>
      </trkpt>
      <trkpt lat="41.61238" lon="19.71149">
        <ele>49.27828</ele>
        <time>2022-05-14T11:39:00.060Z</time>
      </trkpt>
      <trkpt lat="41.61246" lon="19.71143">
        <ele>49.339185</ele>
        <time>2022-05-14T11:39:04.091Z</time>
      </trkpt>
      <trkpt lat="41.61257" lon="19.71139">
        <ele>49.412372</ele>
        <time>2022-05-14T11:39:08.083Z</time>
      </trkpt>
      <trkpt lat="41.61268" lon="19.71135">
        <ele>49.488437</ele>
        <time>2022-05-14T11:39:11.091Z</time>
      </trkpt>
      <trkpt lat="41.61281" lon="19.71134">
        <ele>49.572706</ele>
        <time>2022-05-14T11:39:14.081Z</time>
      </trkpt>
      <trkpt lat="41.6129" lon="19.71133">
        <ele>49.634887</ele>
        <time>2022-05-14T11:39:16.081Z</time>
      </trkpt>
      <trkpt lat="41.613" lon="19.71132">
        <ele>49.696997</ele>
        <time>2022-05-14T11:39:18.074Z</time>
      </trkpt>
      <trkpt lat="41.61309" lon="19.71131">
        <ele>49.76231</ele>
        <time>2022-05-14T11:39:20.084Z</time>
      </trkpt>
      <trkpt lat="41.6132" lon="19.71131">
        <ele>49.83155</ele>
        <time>2022-05-14T11:39:22.111Z</time>
      </trkpt>
      <trkpt lat="41.6133" lon="19.71132">
        <ele>49.899472</ele>
        <time>2022-05-14T11:39:24.083Z</time>
      </trkpt>
      <trkpt lat="41.61341" lon="19.71132">
        <ele>49.968755</ele>
        <time>2022-05-14T11:39:26.084Z</time>
      </trkpt>
      <trkpt lat="41.61351" lon="19.71132">
        <ele>50.033469</ele>
        <time>2022-05-14T11:39:28.097Z</time>
      </trkpt>
      <trkpt lat="41.6136" lon="19.71133">
        <ele>50.066364</ele>
        <time>2022-05-14T11:39:30.070Z</time>
      </trkpt>
      <trkpt lat="41.6137" lon="19.71135">
        <ele>50.099718</ele>
        <time>2022-05-14T11:39:32.070Z</time>
      </trkpt>
      <trkpt lat="41.61379" lon="19.71136">
        <ele>50.130771</ele>
        <time>2022-05-14T11:39:34.076Z</time>
      </trkpt>
      <trkpt lat="41.61392" lon="19.71139">
        <ele>50.176251</ele>
        <time>2022-05-14T11:39:37.104Z</time>
      </trkpt>
      <trkpt lat="41.61404" lon="19.71142">
        <ele>50.219223</ele>
        <time>2022-05-14T11:39:40.077Z</time>
      </trkpt>
      <trkpt lat="41.61416" lon="19.71145">
        <ele>50.26042</ele>
        <time>2022-05-14T11:39:43.084Z</time>
      </trkpt>
      <trkpt lat="41.61429" lon="19.71148">
        <ele>50.304877</ele>
        <time>2022-05-14T11:39:46.091Z</time>
      </trkpt>
      <trkpt lat="41.61441" lon="19.71151">
        <ele>50.349514</ele>
        <time>2022-05-14T11:39:49.078Z</time>
      </trkpt>
      <trkpt lat="41.61454" lon="19.71154">
        <ele>50.395368</ele>
        <time>2022-05-14T11:39:52.076Z</time>
      </trkpt>
      <trkpt lat="41.61467" lon="19.71158">
        <ele>50.438309</ele>
        <time>2022-05-14T11:39:55.091Z</time>
      </trkpt>
      <trkpt lat="41.61477" lon="19.71161">
        <ele>50.475843</ele>
        <time>2022-05-14T11:39:58.085Z</time>
      </trkpt>
      <trkpt lat="41.6149" lon="19.71165">
        <ele>50.520236</ele>
        <time>2022-05-14T11:40:01.074Z</time>
      </trkpt>
      <trkpt lat="41.61499" lon="19.71168">
        <ele>50.551937</ele>
        <time>2022-05-14T11:40:03.119Z</time>
      </trkpt>
      <trkpt lat="41.61508" lon="19.71172">
        <ele>50.584458</ele>
        <time>2022-05-14T11:40:05.079Z</time>
      </trkpt>
      <trkpt lat="41.61516" lon="19.71175">
        <ele>50.615741</ele>
        <time>2022-05-14T11:40:07.095Z</time>
      </trkpt>
      <trkpt lat="41.61528" lon="19.7118">
        <ele>50.636431</ele>
        <time>2022-05-14T11:40:10.081Z</time>
      </trkpt>
      <trkpt lat="41.6154" lon="19.71187">
        <ele>50.551533</ele>
        <time>2022-05-14T11:40:13.094Z</time>
      </trkpt>
      <trkpt lat="41.61552" lon="19.71193">
        <ele>50.467099</ele>
        <time>2022-05-14T11:40:16.093Z</time>
      </trkpt>
      <trkpt lat="41.61564" lon="19.71197">
        <ele>50.381469</ele>
        <time>2022-05-14T11:40:19.061Z</time>
      </trkpt>
      <trkpt lat="41.61577" lon="19.71198">
        <ele>50.292502</ele>
        <time>2022-05-14T11:40:22.167Z</time>
      </trkpt>
      <trkpt lat="41.6159" lon="19.71196">
        <ele>50.208597</ele>
        <time>2022-05-14T11:40:25.090Z</time>
      </trkpt>
      <trkpt lat="41.61603" lon="19.71194">
        <ele>50.120042</ele>
        <time>2022-05-14T11:40:28.094Z</time>
      </trkpt>
      <trkpt lat="41.61611" lon="19.71192">
        <ele>50.059376</ele>
        <time>2022-05-14T11:40:30.074Z</time>
      </trkpt>
      <trkpt lat="41.61621" lon="19.7119">
        <ele>49.996636</ele>
        <time>2022-05-14T11:40:32.119Z</time>
      </trkpt>
      <trkpt lat="41.6163" lon="19.71188">
        <ele>49.935803</ele>
        <time>2022-05-14T11:40:34.107Z</time>
      </trkpt>
      <trkpt lat="41.61638" lon="19.71185">
        <ele>49.87488</ele>
        <time>2022-05-14T11:40:36.076Z</time>
      </trkpt>
      <trkpt lat="41.61651" lon="19.71183">
        <ele>49.786676</ele>
        <time>2022-05-14T11:40:39.075Z</time>
      </trkpt>
      <trkpt lat="41.61664" lon="19.7118">
        <ele>49.698453</ele>
        <time>2022-05-14T11:40:42.059Z</time>
      </trkpt>
      <trkpt lat="41.61677" lon="19.71175">
        <ele>49.612853</ele>
        <time>2022-05-14T11:40:45.076Z</time>
      </trkpt>
      <trkpt lat="41.61687" lon="19.71168">
        <ele>49.531067</ele>
        <time>2022-05-14T11:40:48.062Z</time>
      </trkpt>
      <trkpt lat="41.61698" lon="19.71159">
        <ele>49.443433</ele>
        <time>2022-05-14T11:40:51.075Z</time>
      </trkpt>
      <trkpt lat="41.6171" lon="19.7115">
        <ele>49.541478</ele>
        <time>2022-05-14T11:40:54.077Z</time>
      </trkpt>
      <trkpt lat="41.61723" lon="19.71146">
        <ele>49.641959</ele>
        <time>2022-05-14T11:40:57.077Z</time>
      </trkpt>
      <trkpt lat="41.61736" lon="19.71145">
        <ele>49.744962</ele>
        <time>2022-05-14T11:41:00.080Z</time>
      </trkpt>
      <trkpt lat="41.61746" lon="19.71147">
        <ele>49.819901</ele>
        <time>2022-05-14T11:41:02.101Z</time>
      </trkpt>
      <trkpt lat="41.61755" lon="19.71149">
        <ele>49.892987</ele>
        <time>2022-05-14T11:41:04.106Z</time>
      </trkpt>
      <trkpt lat="41.61764" lon="19.71151">
        <ele>49.965636</ele>
        <time>2022-05-14T11:41:06.125Z</time>
      </trkpt>
      <trkpt lat="41.61773" lon="19.71154">
        <ele>50.039055</ele>
        <time>2022-05-14T11:41:08.096Z</time>
      </trkpt>
      <trkpt lat="41.61786" lon="19.7116">
        <ele>50.143657</ele>
        <time>2022-05-14T11:41:11.083Z</time>
      </trkpt>
      <trkpt lat="41.61795" lon="19.71163">
        <ele>50.217426</ele>
        <time>2022-05-14T11:41:13.083Z</time>
      </trkpt>
      <trkpt lat="41.61805" lon="19.71165">
        <ele>50.293003</ele>
        <time>2022-05-14T11:41:15.085Z</time>
      </trkpt>
      <trkpt lat="41.61815" lon="19.71165">
        <ele>50.368843</ele>
        <time>2022-05-14T11:41:17.112Z</time>
      </trkpt>
      <trkpt lat="41.61825" lon="19.71163">
        <ele>50.444794</ele>
        <time>2022-05-14T11:41:19.072Z</time>
      </trkpt>
      <trkpt lat="41.61833" lon="19.71159">
        <ele>50.516569</ele>
        <time>2022-05-14T11:41:21.069Z</time>
      </trkpt>
      <trkpt lat="41.61842" lon="19.71153">
        <ele>50.59026</ele>
        <time>2022-05-14T11:41:23.124Z</time>
      </trkpt>
      <trkpt lat="41.6185" lon="19.71145">
        <ele>50.666194</ele>
        <time>2022-05-14T11:41:25.083Z</time>
      </trkpt>
      <trkpt lat="41.61858" lon="19.71137">
        <ele>50.747976</ele>
        <time>2022-05-14T11:41:27.068Z</time>
      </trkpt>
      <trkpt lat="41.61866" lon="19.71129">
        <ele>50.824585</ele>
        <time>2022-05-14T11:41:29.085Z</time>
      </trkpt>
      <trkpt lat="41.61874" lon="19.71121">
        <ele>50.842031</ele>
        <time>2022-05-14T11:41:31.090Z</time>
      </trkpt>
      <trkpt lat="41.61881" lon="19.71114">
        <ele>50.851683</ele>
        <time>2022-05-14T11:41:33.072Z</time>
      </trkpt>
      <trkpt lat="41.61891" lon="19.71103">
        <ele>50.865333</ele>
        <time>2022-05-14T11:41:36.078Z</time>
      </trkpt>
      <trkpt lat="41.61902" lon="19.71093">
        <ele>50.879271</ele>
        <time>2022-05-14T11:41:39.072Z</time>
      </trkpt>
      <trkpt lat="41.61912" lon="19.71084">
        <ele>50.891986</ele>
        <time>2022-05-14T11:41:42.064Z</time>
      </trkpt>
      <trkpt lat="41.61921" lon="19.71076">
        <ele>50.903202</ele>
        <time>2022-05-14T11:41:46.086Z</time>
      </trkpt>
      <trkpt lat="41.6193" lon="19.71067">
        <ele>50.915647</ele>
        <time>2022-05-14T11:41:50.120Z</time>
      </trkpt>
      <trkpt lat="41.61939" lon="19.71059">
        <ele>50.926523</ele>
        <time>2022-05-14T11:41:53.086Z</time>
      </trkpt>
      <trkpt lat="41.61947" lon="19.71051">
        <ele>50.937522</ele>
        <time>2022-05-14T11:41:56.076Z</time>
      </trkpt>
      <trkpt lat="41.61956" lon="19.71042">
        <ele>50.948911</ele>
        <time>2022-05-14T11:41:59.080Z</time>
      </trkpt>
      <trkpt lat="41.61965" lon="19.71033">
        <ele>50.961108</ele>
        <time>2022-05-14T11:42:02.082Z</time>
      </trkpt>
      <trkpt lat="41.61974" lon="19.71024">
        <ele>50.972729</ele>
        <time>2022-05-14T11:42:05.099Z</time>
      </trkpt>
      <trkpt lat="41.61983" lon="19.71015">
        <ele>50.984494</ele>
        <time>2022-05-14T11:42:08.094Z</time>
      </trkpt>
      <trkpt lat="41.61991" lon="19.71006">
        <ele>50.996068</ele>
        <time>2022-05-14T11:42:11.096Z</time>
      </trkpt>
      <trkpt lat="41.62" lon="19.70998">
        <ele>51.007557</ele>
        <time>2022-05-14T11:42:14.085Z</time>
      </trkpt>
      <trkpt lat="41.62009" lon="19.70989">
        <ele>51.019339</ele>
        <time>2022-05-14T11:42:17.086Z</time>
      </trkpt>
      <trkpt lat="41.62019" lon="19.70981">
        <ele>51.150127</ele>
        <time>2022-05-14T11:42:20.099Z</time>
      </trkpt>
      <trkpt lat="41.62029" lon="19.70973">
        <ele>51.353352</ele>
        <time>2022-05-14T11:42:23.098Z</time>
      </trkpt>
      <trkpt lat="41.6204" lon="19.70966">
        <ele>51.557976</ele>
        <time>2022-05-14T11:42:26.090Z</time>
      </trkpt>
      <trkpt lat="41.62052" lon="19.7096">
        <ele>51.763309</ele>
        <time>2022-05-14T11:42:29.112Z</time>
      </trkpt>
      <trkpt lat="41.62063" lon="19.70955">
        <ele>51.960057</ele>
        <time>2022-05-14T11:42:32.079Z</time>
      </trkpt>
      <trkpt lat="41.62073" lon="19.70951">
        <ele>52.145278</ele>
        <time>2022-05-14T11:42:35.111Z</time>
      </trkpt>
      <trkpt lat="41.62084" lon="19.70946">
        <ele>52.324188</ele>
        <time>2022-05-14T11:42:38.079Z</time>
      </trkpt>
      <trkpt lat="41.62094" lon="19.70943">
        <ele>52.501394</ele>
        <time>2022-05-14T11:42:41.106Z</time>
      </trkpt>
      <trkpt lat="41.62103" lon="19.7094">
        <ele>52.658154</ele>
        <time>2022-05-14T11:42:44.081Z</time>
      </trkpt>
      <trkpt lat="41.62114" lon="19.70936">
        <ele>52.846456</ele>
        <time>2022-05-14T11:42:48.079Z</time>
      </trkpt>
      <trkpt lat="41.62124" lon="19.70934">
        <ele>53.020651</ele>
        <time>2022-05-14T11:42:52.117Z</time>
      </trkpt>
      <trkpt lat="41.62133" lon="19.7093">
        <ele>53.186514</ele>
        <time>2022-05-14T11:42:55.085Z</time>
      </trkpt>
      <trkpt lat="41.62142" lon="19.70924">
        <ele>53.348697</ele>
        <time>2022-05-14T11:42:58.107Z</time>
      </trkpt>
      <trkpt lat="41.62153" lon="19.7092">
        <ele>53.5439</ele>
        <time>2022-05-14T11:43:02.127Z</time>
      </trkpt>
      <trkpt lat="41.62164" lon="19.70915">
        <ele>53.741052</ele>
        <time>2022-05-14T11:43:06.067Z</time>
      </trkpt>
      <trkpt lat="41.62173" lon="19.7091">
        <ele>53.905371</ele>
        <time>2022-05-14T11:43:09.082Z</time>
      </trkpt>
      <trkpt lat="41.62182" lon="19.70905">
        <ele>54.052307</ele>
        <time>2022-05-14T11:43:12.067Z</time>
      </trkpt>
      <trkpt lat="41.62193" lon="19.70899">
        <ele>54.136742</ele>
        <time>2022-05-14T11:43:16.102Z</time>
      </trkpt>
      <trkpt lat="41.62202" lon="19.70893">
        <ele>54.207303</ele>
        <time>2022-05-14T11:43:20.096Z</time>
      </trkpt>
      <trkpt lat="41.6221" lon="19.70888">
        <ele>54.276764</ele>
        <time>2022-05-14T11:43:23.082Z</time>
      </trkpt>
      <trkpt lat="41.6222" lon="19.70883">
        <ele>54.349132</ele>
        <time>2022-05-14T11:43:26.099Z</time>
      </trkpt>
      <trkpt lat="41.6223" lon="19.70877">
        <ele>54.433111</ele>
        <time>2022-05-14T11:43:30.081Z</time>
      </trkpt>
      <trkpt lat="41.6224" lon="19.70873">
        <ele>54.506399</ele>
        <time>2022-05-14T11:43:33.075Z</time>
      </trkpt>
      <trkpt lat="41.6225" lon="19.70869">
        <ele>54.580222</ele>
        <time>2022-05-14T11:43:36.080Z</time>
      </trkpt>
      <trkpt lat="41.6226" lon="19.70866">
        <ele>54.651985</ele>
        <time>2022-05-14T11:43:39.071Z</time>
      </trkpt>
      <trkpt lat="41.6227" lon="19.70864">
        <ele>54.72534</ele>
        <time>2022-05-14T11:43:42.084Z</time>
      </trkpt>
      <trkpt lat="41.62279" lon="19.70861">
        <ele>54.796664</ele>
        <time>2022-05-14T11:43:45.085Z</time>
      </trkpt>
      <trkpt lat="41.62288" lon="19.70859">
        <ele>54.863032</ele>
        <time>2022-05-14T11:43:48.084Z</time>
      </trkpt>
      <trkpt lat="41.62297" lon="19.70858">
        <ele>54.929723</ele>
        <time>2022-05-14T11:43:51.077Z</time>
      </trkpt>
      <trkpt lat="41.62307" lon="19.70856">
        <ele>55.000165</ele>
        <time>2022-05-14T11:43:55.092Z</time>
      </trkpt>
      <trkpt lat="41.62318" lon="19.70854">
        <ele>55.081184</ele>
        <time>2022-05-14T11:44:00.113Z</time>
      </trkpt>
      <trkpt lat="41.62328" lon="19.70853">
        <ele>55.150969</ele>
        <time>2022-05-14T11:44:03.086Z</time>
      </trkpt>
      <trkpt lat="41.62339" lon="19.70851">
        <ele>55.232859</ele>
        <time>2022-05-14T11:44:06.113Z</time>
      </trkpt>
      <trkpt lat="41.62352" lon="19.70852">
        <ele>55.325291</ele>
        <time>2022-05-14T11:44:09.095Z</time>
      </trkpt>
      <trkpt lat="41.62361" lon="19.70852">
        <ele>55.45196</ele>
        <time>2022-05-14T11:44:11.103Z</time>
      </trkpt>
      <trkpt lat="41.62371" lon="19.70852">
        <ele>55.600142</ele>
        <time>2022-05-14T11:44:13.090Z</time>
      </trkpt>
      <trkpt lat="41.62384" lon="19.70854">
        <ele>55.816405</ele>
        <time>2022-05-14T11:44:16.097Z</time>
      </trkpt>
      <trkpt lat="41.62394" lon="19.70855">
        <ele>55.971594</ele>
        <time>2022-05-14T11:44:18.096Z</time>
      </trkpt>
      <trkpt lat="41.62406" lon="19.70857">
        <ele>56.16438</ele>
        <time>2022-05-14T11:44:21.105Z</time>
      </trkpt>
      <trkpt lat="41.62418" lon="19.70861">
        <ele>56.355492</ele>
        <time>2022-05-14T11:44:24.075Z</time>
      </trkpt>
      <trkpt lat="41.62428" lon="19.70864">
        <ele>56.506402</ele>
        <time>2022-05-14T11:44:26.082Z</time>
      </trkpt>
      <trkpt lat="41.6244" lon="19.70868">
        <ele>56.709927</ele>
        <time>2022-05-14T11:44:29.102Z</time>
      </trkpt>
      <trkpt lat="41.62452" lon="19.70872">
        <ele>56.910775</ele>
        <time>2022-05-14T11:44:32.075Z</time>
      </trkpt>
      <trkpt lat="41.62464" lon="19.70876">
        <ele>57.09008</ele>
        <time>2022-05-14T11:44:35.088Z</time>
      </trkpt>
      <trkpt lat="41.62473" lon="19.70878">
        <ele>57.239927</ele>
        <time>2022-05-14T11:44:40.123Z</time>
      </trkpt>
      <trkpt lat="41.62485" lon="19.70882">
        <ele>57.428453</ele>
        <time>2022-05-14T11:44:45.079Z</time>
      </trkpt>
      <trkpt lat="41.62494" lon="19.70885">
        <ele>57.585487</ele>
        <time>2022-05-14T11:44:48.103Z</time>
      </trkpt>
      <trkpt lat="41.62505" lon="19.70888">
        <ele>57.752258</ele>
        <time>2022-05-14T11:44:51.141Z</time>
      </trkpt>
      <trkpt lat="41.62515" lon="19.70892">
        <ele>57.926577</ele>
        <time>2022-05-14T11:44:54.061Z</time>
      </trkpt>
      <trkpt lat="41.62527" lon="19.70896">
        <ele>58.112765</ele>
        <time>2022-05-14T11:44:57.085Z</time>
      </trkpt>
      <trkpt lat="41.62538" lon="19.70902">
        <ele>58.300718</ele>
        <time>2022-05-14T11:45:00.087Z</time>
      </trkpt>
      <trkpt lat="41.62549" lon="19.70909">
        <ele>58.488724</ele>
        <time>2022-05-14T11:45:03.074Z</time>
      </trkpt>
      <trkpt lat="41.6256" lon="19.70916">
        <ele>58.677313</ele>
        <time>2022-05-14T11:45:06.095Z</time>
      </trkpt>
      <trkpt lat="41.6257" lon="19.70925">
        <ele>58.860513</ele>
        <time>2022-05-14T11:45:09.094Z</time>
      </trkpt>
      <trkpt lat="41.62579" lon="19.70935">
        <ele>59.029601</ele>
        <time>2022-05-14T11:45:12.086Z</time>
      </trkpt>
      <trkpt lat="41.62587" lon="19.70944">
        <ele>59.19615</ele>
        <time>2022-05-14T11:45:15.078Z</time>
      </trkpt>
      <trkpt lat="41.62595" lon="19.70954">
        <ele>59.360394</ele>
        <time>2022-05-14T11:45:18.095Z</time>
      </trkpt>
      <trkpt lat="41.62603" lon="19.70963">
        <ele>59.522115</ele>
        <time>2022-05-14T11:45:21.072Z</time>
      </trkpt>
      <trkpt lat="41.62611" lon="19.70972">
        <ele>59.683717</ele>
        <time>2022-05-14T11:45:24.102Z</time>
      </trkpt>
      <trkpt lat="41.62619" lon="19.70981">
        <ele>59.840459</ele>
        <time>2022-05-14T11:45:27.096Z</time>
      </trkpt>
      <trkpt lat="41.62627" lon="19.7099">
        <ele>59.995973</ele>
        <time>2022-05-14T11:45:30.083Z</time>
      </trkpt>
      <trkpt lat="41.62635" lon="19.70999">
        <ele>60.155791</ele>
        <time>2022-05-14T11:45:33.097Z</time>
      </trkpt>
      <trkpt lat="41.62643" lon="19.71008">
        <ele>60.310632</ele>
        <time>2022-05-14T11:45:36.084Z</time>
      </trkpt>
      <trkpt lat="41.62652" lon="19.71014">
        <ele>60.473848</ele>
        <time>2022-05-14T11:45:39.092Z</time>
      </trkpt>
      <trkpt lat="41.62662" lon="19.71016">
        <ele>60.630073</ele>
        <time>2022-05-14T11:45:42.083Z</time>
      </trkpt>
      <trkpt lat="41.62671" lon="19.71014">
        <ele>60.769179</ele>
        <time>2022-05-14T11:45:45.073Z</time>
      </trkpt>
      <trkpt lat="41.62683" lon="19.7101">
        <ele>61.020331</ele>
        <time>2022-05-14T11:45:49.104Z</time>
      </trkpt>
      <trkpt lat="41.62692" lon="19.71007">
        <ele>61.445026</ele>
        <time>2022-05-14T11:45:52.084Z</time>
      </trkpt>
      <trkpt lat="41.62704" lon="19.71003">
        <ele>61.991418</ele>
        <time>2022-05-14T11:45:56.084Z</time>
      </trkpt>
      <trkpt lat="41.62715" lon="19.71001">
        <ele>62.526498</ele>
        <time>2022-05-14T11:46:00.072Z</time>
      </trkpt>
      <trkpt lat="41.62726" lon="19.71001">
        <ele>63.026826</ele>
        <time>2022-05-14T11:46:04.073Z</time>
      </trkpt>
      <trkpt lat="41.62737" lon="19.71001">
        <ele>63.527071</ele>
        <time>2022-05-14T11:46:08.057Z</time>
      </trkpt>
      <trkpt lat="41.62748" lon="19.71003">
        <ele>64.054632</ele>
        <time>2022-05-14T11:46:12.092Z</time>
      </trkpt>
      <trkpt lat="41.6276" lon="19.71005">
        <ele>64.582649</ele>
        <time>2022-05-14T11:46:16.076Z</time>
      </trkpt>
      <trkpt lat="41.6277" lon="19.71009">
        <ele>65.081752</ele>
        <time>2022-05-14T11:46:20.077Z</time>
      </trkpt>
      <trkpt lat="41.62781" lon="19.71014">
        <ele>65.600781</ele>
        <time>2022-05-14T11:46:24.087Z</time>
      </trkpt>
      <trkpt lat="41.62791" lon="19.7102">
        <ele>66.113569</ele>
        <time>2022-05-14T11:46:28.064Z</time>
      </trkpt>
      <trkpt lat="41.62801" lon="19.71027">
        <ele>66.622639</ele>
        <time>2022-05-14T11:46:32.079Z</time>
      </trkpt>
      <trkpt lat="41.62811" lon="19.71034">
        <ele>67.135807</ele>
        <time>2022-05-14T11:46:36.086Z</time>
      </trkpt>
      <trkpt lat="41.62819" lon="19.71041">
        <ele>67.57063</ele>
        <time>2022-05-14T11:46:39.070Z</time>
      </trkpt>
      <trkpt lat="41.62827" lon="19.71047">
        <ele>68.007594</ele>
        <time>2022-05-14T11:46:42.082Z</time>
      </trkpt>
      <trkpt lat="41.62835" lon="19.71055">
        <ele>68.474817</ele>
        <time>2022-05-14T11:46:45.131Z</time>
      </trkpt>
      <trkpt lat="41.62844" lon="19.71063">
        <ele>68.947741</ele>
        <time>2022-05-14T11:46:48.063Z</time>
      </trkpt>
      <trkpt lat="41.62852" lon="19.7107">
        <ele>69.183701</ele>
        <time>2022-05-14T11:46:51.076Z</time>
      </trkpt>
      <trkpt lat="41.62861" lon="19.71078">
        <ele>69.210553</ele>
        <time>2022-05-14T11:46:54.067Z</time>
      </trkpt>
      <trkpt lat="41.62871" lon="19.71085">
        <ele>69.240263</ele>
        <time>2022-05-14T11:46:57.066Z</time>
      </trkpt>
      <trkpt lat="41.62879" lon="19.71091">
        <ele>69.264074</ele>
        <time>2022-05-14T11:46:59.086Z</time>
      </trkpt>
      <trkpt lat="41.62892" lon="19.71096">
        <ele>69.29769</ele>
        <time>2022-05-14T11:47:02.107Z</time>
      </trkpt>
      <trkpt lat="41.62903" lon="19.71099">
        <ele>69.326975</ele>
        <time>2022-05-14T11:47:05.060Z</time>
      </trkpt>
      <trkpt lat="41.62914" lon="19.71101">
        <ele>69.355324</ele>
        <time>2022-05-14T11:47:08.088Z</time>
      </trkpt>
      <trkpt lat="41.62925" lon="19.71102">
        <ele>69.384071</ele>
        <time>2022-05-14T11:47:11.138Z</time>
      </trkpt>
      <trkpt lat="41.62936" lon="19.71106">
        <ele>69.413864</ele>
        <time>2022-05-14T11:47:14.094Z</time>
      </trkpt>
      <trkpt lat="41.62947" lon="19.71112">
        <ele>69.442515</ele>
        <time>2022-05-14T11:47:17.088Z</time>
      </trkpt>
      <trkpt lat="41.62957" lon="19.71118">
        <ele>69.471553</ele>
        <time>2022-05-14T11:47:20.104Z</time>
      </trkpt>
      <trkpt lat="41.62967" lon="19.71123">
        <ele>69.499439</ele>
        <time>2022-05-14T11:47:23.079Z</time>
      </trkpt>
      <trkpt lat="41.62979" lon="19.71128">
        <ele>69.530159</ele>
        <time>2022-05-14T11:47:26.076Z</time>
      </trkpt>
      <trkpt lat="41.6299" lon="19.7113">
        <ele>69.559613</ele>
        <time>2022-05-14T11:47:29.079Z</time>
      </trkpt>
      <trkpt lat="41.63001" lon="19.7113">
        <ele>69.588587</ele>
        <time>2022-05-14T11:47:32.136Z</time>
      </trkpt>
      <trkpt lat="41.63012" lon="19.71128">
        <ele>69.61578</ele>
        <time>2022-05-14T11:47:35.075Z</time>
      </trkpt>
      <trkpt lat="41.63023" lon="19.71126">
        <ele>69.538152</ele>
        <time>2022-05-14T11:47:38.108Z</time>
      </trkpt>
      <trkpt lat="41.63035" lon="19.71126">
        <ele>69.302321</ele>
        <time>2022-05-14T11:47:41.083Z</time>
      </trkpt>
      <trkpt lat="41.63047" lon="19.71127">
        <ele>69.064384</ele>
        <time>2022-05-14T11:47:44.081Z</time>
      </trkpt>
      <trkpt lat="41.63056" lon="19.71129">
        <ele>68.887431</ele>
        <time>2022-05-14T11:47:46.112Z</time>
      </trkpt>
      <trkpt lat="41.63069" lon="19.71132">
        <ele>68.629837</ele>
        <time>2022-05-14T11:47:49.094Z</time>
      </trkpt>
      <trkpt lat="41.63081" lon="19.71133">
        <ele>68.381195</ele>
        <time>2022-05-14T11:47:52.096Z</time>
      </trkpt>
      <trkpt lat="41.63093" lon="19.71134">
        <ele>68.145546</ele>
        <time>2022-05-14T11:47:55.083Z</time>
      </trkpt>
      <trkpt lat="41.63106" lon="19.71133">
        <ele>67.897533</ele>
        <time>2022-05-14T11:47:58.086Z</time>
      </trkpt>
      <trkpt lat="41.63118" lon="19.71131">
        <ele>67.658156</ele>
        <time>2022-05-14T11:48:01.096Z</time>
      </trkpt>
      <trkpt lat="41.6313" lon="19.71127">
        <ele>67.411559</ele>
        <time>2022-05-14T11:48:04.090Z</time>
      </trkpt>
      <trkpt lat="41.63142" lon="19.71124">
        <ele>67.177091</ele>
        <time>2022-05-14T11:48:07.070Z</time>
      </trkpt>
      <trkpt lat="41.63153" lon="19.71121">
        <ele>66.948688</ele>
        <time>2022-05-14T11:48:10.093Z</time>
      </trkpt>
      <trkpt lat="41.63165" lon="19.71118">
        <ele>66.723812</ele>
        <time>2022-05-14T11:48:13.133Z</time>
      </trkpt>
      <trkpt lat="41.63175" lon="19.71116">
        <ele>66.510025</ele>
        <time>2022-05-14T11:48:16.073Z</time>
      </trkpt>
      <trkpt lat="41.63186" lon="19.71113">
        <ele>66.290707</ele>
        <time>2022-05-14T11:48:19.120Z</time>
      </trkpt>
      <trkpt lat="41.63198" lon="19.7111">
        <ele>66.14583</ele>
        <time>2022-05-14T11:48:22.104Z</time>
      </trkpt>
      <trkpt lat="41.63208" lon="19.71108">
        <ele>66.402583</ele>
        <time>2022-05-14T11:48:25.063Z</time>
      </trkpt>
      <trkpt lat="41.63218" lon="19.71105">
        <ele>66.653135</ele>
        <time>2022-05-14T11:48:28.083Z</time>
      </trkpt>
      <trkpt lat="41.63227" lon="19.71102">
        <ele>66.900462</ele>
        <time>2022-05-14T11:48:31.064Z</time>
      </trkpt>
      <trkpt lat="41.63238" lon="19.71099">
        <ele>67.164922</ele>
        <time>2022-05-14T11:48:34.093Z</time>
      </trkpt>
      <trkpt lat="41.63249" lon="19.71097">
        <ele>67.446895</ele>
        <time>2022-05-14T11:48:37.112Z</time>
      </trkpt>
      <trkpt lat="41.6326" lon="19.71094">
        <ele>67.724271</ele>
        <time>2022-05-14T11:48:40.091Z</time>
      </trkpt>
      <trkpt lat="41.63271" lon="19.71092">
        <ele>68.008813</ele>
        <time>2022-05-14T11:48:43.092Z</time>
      </trkpt>
      <trkpt lat="41.63282" lon="19.71092">
        <ele>68.273955</ele>
        <time>2022-05-14T11:48:46.070Z</time>
      </trkpt>
      <trkpt lat="41.63292" lon="19.7109">
        <ele>68.52019</ele>
        <time>2022-05-14T11:48:49.094Z</time>
      </trkpt>
      <trkpt lat="41.63301" lon="19.7109">
        <ele>68.764836</ele>
        <time>2022-05-14T11:48:52.093Z</time>
      </trkpt>
      <trkpt lat="41.63312" lon="19.7109">
        <ele>69.039589</ele>
        <time>2022-05-14T11:48:55.084Z</time>
      </trkpt>
      <trkpt lat="41.63322" lon="19.71091">
        <ele>69.289918</ele>
        <time>2022-05-14T11:48:58.062Z</time>
      </trkpt>
      <trkpt lat="41.63332" lon="19.71092">
        <ele>69.530289</ele>
        <time>2022-05-14T11:49:01.074Z</time>
      </trkpt>
      <trkpt lat="41.63341" lon="19.71093">
        <ele>69.760223</ele>
        <time>2022-05-14T11:49:04.094Z</time>
      </trkpt>
      <trkpt lat="41.63353" lon="19.71094">
        <ele>70.05066</ele>
        <time>2022-05-14T11:49:08.085Z</time>
      </trkpt>
      <trkpt lat="41.63364" lon="19.71095">
        <ele>70.343587</ele>
        <time>2022-05-14T11:49:12.085Z</time>
      </trkpt>
      <trkpt lat="41.63374" lon="19.71096">
        <ele>70.574004</ele>
        <time>2022-05-14T11:49:15.097Z</time>
      </trkpt>
      <trkpt lat="41.63383" lon="19.71099">
        <ele>71.032199</ele>
        <time>2022-05-14T11:49:18.063Z</time>
      </trkpt>
      <trkpt lat="41.63395" lon="19.71102">
        <ele>71.617425</ele>
        <time>2022-05-14T11:49:22.084Z</time>
      </trkpt>
      <trkpt lat="41.63404" lon="19.71105">
        <ele>72.076434</ele>
        <time>2022-05-14T11:49:25.086Z</time>
      </trkpt>
      <trkpt lat="41.63413" lon="19.71109">
        <ele>72.580912</ele>
        <time>2022-05-14T11:49:28.128Z</time>
      </trkpt>
      <trkpt lat="41.63423" lon="19.71114">
        <ele>73.099743</ele>
        <time>2022-05-14T11:49:31.079Z</time>
      </trkpt>
      <trkpt lat="41.63432" lon="19.71118">
        <ele>73.576157</ele>
        <time>2022-05-14T11:49:34.077Z</time>
      </trkpt>
      <trkpt lat="41.63442" lon="19.71122">
        <ele>74.098521</ele>
        <time>2022-05-14T11:49:38.119Z</time>
      </trkpt>
      <trkpt lat="41.63453" lon="19.71126">
        <ele>74.633166</ele>
        <time>2022-05-14T11:49:42.085Z</time>
      </trkpt>
      <trkpt lat="41.63464" lon="19.7113">
        <ele>75.22585</ele>
        <time>2022-05-14T11:49:46.081Z</time>
      </trkpt>
      <trkpt lat="41.63474" lon="19.71134">
        <ele>75.721294</ele>
        <time>2022-05-14T11:49:49.074Z</time>
      </trkpt>
      <trkpt lat="41.63484" lon="19.71137">
        <ele>76.222353</ele>
        <time>2022-05-14T11:49:52.088Z</time>
      </trkpt>
      <trkpt lat="41.63493" lon="19.71141">
        <ele>76.73499</ele>
        <time>2022-05-14T11:49:55.087Z</time>
      </trkpt>
      <trkpt lat="41.63504" lon="19.71143">
        <ele>77.238184</ele>
        <time>2022-05-14T11:49:58.071Z</time>
      </trkpt>
      <trkpt lat="41.63513" lon="19.71144">
        <ele>77.732715</ele>
        <time>2022-05-14T11:50:01.078Z</time>
      </trkpt>
      <trkpt lat="41.63524" lon="19.71145">
        <ele>78.235568</ele>
        <time>2022-05-14T11:50:04.097Z</time>
      </trkpt>
      <trkpt lat="41.63534" lon="19.71146">
        <ele>78.761885</ele>
        <time>2022-05-14T11:50:07.095Z</time>
      </trkpt>
      <trkpt lat="41.63545" lon="19.71145">
        <ele>79.288203</ele>
        <time>2022-05-14T11:50:10.082Z</time>
      </trkpt>
      <trkpt lat="41.63554" lon="19.71145">
        <ele>79.357933</ele>
        <time>2022-05-14T11:50:13.103Z</time>
      </trkpt>
      <trkpt lat="41.63564" lon="19.71143">
        <ele>79.067046</ele>
        <time>2022-05-14T11:50:16.077Z</time>
      </trkpt>
      <trkpt lat="41.63577" lon="19.71144">
        <ele>78.704958</ele>
        <time>2022-05-14T11:50:19.081Z</time>
      </trkpt>
      <trkpt lat="41.6359" lon="19.71144">
        <ele>78.316646</ele>
        <time>2022-05-14T11:50:22.078Z</time>
      </trkpt>
      <trkpt lat="41.63602" lon="19.71144">
        <ele>77.95461</ele>
        <time>2022-05-14T11:50:25.093Z</time>
      </trkpt>
      <trkpt lat="41.63613" lon="19.71143">
        <ele>77.636256</ele>
        <time>2022-05-14T11:50:27.082Z</time>
      </trkpt>
      <trkpt lat="41.63625" lon="19.71142">
        <ele>77.288386</ele>
        <time>2022-05-14T11:50:29.078Z</time>
      </trkpt>
      <trkpt lat="41.63637" lon="19.71142">
        <ele>76.958011</ele>
        <time>2022-05-14T11:50:31.068Z</time>
      </trkpt>
      <trkpt lat="41.63647" lon="19.71141">
        <ele>76.657222</ele>
        <time>2022-05-14T11:50:33.089Z</time>
      </trkpt>
      <trkpt lat="41.63656" lon="19.7114">
        <ele>76.383987</ele>
        <time>2022-05-14T11:50:35.084Z</time>
      </trkpt>
      <trkpt lat="41.63666" lon="19.7114">
        <ele>76.089101</ele>
        <time>2022-05-14T11:50:37.080Z</time>
      </trkpt>
      <trkpt lat="41.63676" lon="19.71141">
        <ele>75.793062</ele>
        <time>2022-05-14T11:50:39.079Z</time>
      </trkpt>
      <trkpt lat="41.63687" lon="19.71141">
        <ele>75.494976</ele>
        <time>2022-05-14T11:50:41.079Z</time>
      </trkpt>
      <trkpt lat="41.63696" lon="19.7114">
        <ele>75.208449</ele>
        <time>2022-05-14T11:50:43.072Z</time>
      </trkpt>
      <trkpt lat="41.6371" lon="19.7114">
        <ele>74.820144</ele>
        <time>2022-05-14T11:50:46.098Z</time>
      </trkpt>
      <trkpt lat="41.63719" lon="19.71139">
        <ele>74.554139</ele>
        <time>2022-05-14T11:50:48.113Z</time>
      </trkpt>
      <trkpt lat="41.63728" lon="19.71139">
        <ele>74.291375</ele>
        <time>2022-05-14T11:50:50.085Z</time>
      </trkpt>
      <trkpt lat="41.63737" lon="19.71141">
        <ele>74.26992</ele>
        <time>2022-05-14T11:50:52.092Z</time>
      </trkpt>
      <trkpt lat="41.63746" lon="19.71142">
        <ele>74.282878</ele>
        <time>2022-05-14T11:50:54.091Z</time>
      </trkpt>
      <trkpt lat="41.63756" lon="19.71145">
        <ele>74.296183</ele>
        <time>2022-05-14T11:50:56.081Z</time>
      </trkpt>
      <trkpt lat="41.63765" lon="19.7115">
        <ele>74.309282</ele>
        <time>2022-05-14T11:50:58.078Z</time>
      </trkpt>
      <trkpt lat="41.63773" lon="19.71156">
        <ele>74.322468</ele>
        <time>2022-05-14T11:51:00.096Z</time>
      </trkpt>
      <trkpt lat="41.63783" lon="19.71163">
        <ele>74.33644</ele>
        <time>2022-05-14T11:51:02.071Z</time>
      </trkpt>
      <trkpt lat="41.63793" lon="19.71174">
        <ele>74.35411</ele>
        <time>2022-05-14T11:51:05.091Z</time>
      </trkpt>
      <trkpt lat="41.63799" lon="19.71182">
        <ele>74.366386</ele>
        <time>2022-05-14T11:51:07.077Z</time>
      </trkpt>
      <trkpt lat="41.63808" lon="19.7119">
        <ele>74.380825</ele>
        <time>2022-05-14T11:51:09.097Z</time>
      </trkpt>
      <trkpt lat="41.63817" lon="19.71198">
        <ele>74.394927</ele>
        <time>2022-05-14T11:51:11.061Z</time>
      </trkpt>
      <trkpt lat="41.63826" lon="19.71207">
        <ele>74.410444</ele>
        <time>2022-05-14T11:51:13.119Z</time>
      </trkpt>
      <trkpt lat="41.63836" lon="19.71216">
        <ele>74.427077</ele>
        <time>2022-05-14T11:51:15.144Z</time>
      </trkpt>
      <trkpt lat="41.63845" lon="19.71226">
        <ele>74.442415</ele>
        <time>2022-05-14T11:51:17.063Z</time>
      </trkpt>
      <trkpt lat="41.63854" lon="19.71236">
        <ele>74.458726</ele>
        <time>2022-05-14T11:51:19.066Z</time>
      </trkpt>
      <trkpt lat="41.63863" lon="19.71246">
        <ele>74.474837</ele>
        <time>2022-05-14T11:51:21.074Z</time>
      </trkpt>
      <trkpt lat="41.63872" lon="19.71256">
        <ele>74.490043</ele>
        <time>2022-05-14T11:51:23.095Z</time>
      </trkpt>
      <trkpt lat="41.63881" lon="19.71265">
        <ele>74.49707</ele>
        <time>2022-05-14T11:51:25.085Z</time>
      </trkpt>
      <trkpt lat="41.63888" lon="19.71273">
        <ele>74.476829</ele>
        <time>2022-05-14T11:51:27.083Z</time>
      </trkpt>
      <trkpt lat="41.63897" lon="19.71281">
        <ele>74.453804</ele>
        <time>2022-05-14T11:51:30.087Z</time>
      </trkpt>
      <trkpt lat="41.63906" lon="19.7129">
        <ele>74.428676</ele>
        <time>2022-05-14T11:51:33.086Z</time>
      </trkpt>
      <trkpt lat="41.63913" lon="19.71297">
        <ele>74.408673</ele>
        <time>2022-05-14T11:51:35.117Z</time>
      </trkpt>
      <trkpt lat="41.6392" lon="19.71306">
        <ele>74.388728</ele>
        <time>2022-05-14T11:51:37.195Z</time>
      </trkpt>
      <trkpt lat="41.63926" lon="19.71315">
        <ele>74.367964</ele>
        <time>2022-05-14T11:51:39.121Z</time>
      </trkpt>
      <trkpt lat="41.63935" lon="19.71327">
        <ele>74.339804</ele>
        <time>2022-05-14T11:51:42.070Z</time>
      </trkpt>
      <trkpt lat="41.63942" lon="19.71335">
        <ele>74.31971</ele>
        <time>2022-05-14T11:51:44.076Z</time>
      </trkpt>
      <trkpt lat="41.63952" lon="19.71345">
        <ele>74.292307</ele>
        <time>2022-05-14T11:51:47.090Z</time>
      </trkpt>
      <trkpt lat="41.63962" lon="19.71355">
        <ele>74.264653</ele>
        <time>2022-05-14T11:51:50.080Z</time>
      </trkpt>
      <trkpt lat="41.63972" lon="19.71363">
        <ele>74.238557</ele>
        <time>2022-05-14T11:51:53.075Z</time>
      </trkpt>
      <trkpt lat="41.63983" lon="19.71367">
        <ele>74.213354</ele>
        <time>2022-05-14T11:51:56.090Z</time>
      </trkpt>
      <trkpt lat="41.63995" lon="19.71369">
        <ele>74.187817</ele>
        <time>2022-05-14T11:51:59.059Z</time>
      </trkpt>
      <trkpt lat="41.64005" lon="19.71369">
        <ele>74.164421</ele>
        <time>2022-05-14T11:52:03.110Z</time>
      </trkpt>
      <trkpt lat="41.64014" lon="19.71366">
        <ele>74.143559</ele>
        <time>2022-05-14T11:52:07.079Z</time>
      </trkpt>
      <trkpt lat="41.64025" lon="19.71361">
        <ele>74.118072</ele>
        <time>2022-05-14T11:52:11.087Z</time>
      </trkpt>
      <trkpt lat="41.64035" lon="19.71357">
        <ele>74.009776</ele>
        <time>2022-05-14T11:52:14.063Z</time>
      </trkpt>
      <trkpt lat="41.64044" lon="19.71353">
        <ele>73.80082</ele>
        <time>2022-05-14T11:52:17.074Z</time>
      </trkpt>
      <trkpt lat="41.64054" lon="19.71349">
        <ele>73.570223</ele>
        <time>2022-05-14T11:52:20.085Z</time>
      </trkpt>
      <trkpt lat="41.64064" lon="19.71344">
        <ele>73.334875</ele>
        <time>2022-05-14T11:52:23.089Z</time>
      </trkpt>
      <trkpt lat="41.64073" lon="19.7134">
        <ele>73.122208</ele>
        <time>2022-05-14T11:52:26.091Z</time>
      </trkpt>
      <trkpt lat="41.64084" lon="19.71336">
        <ele>72.866814</ele>
        <time>2022-05-14T11:52:30.089Z</time>
      </trkpt>
      <trkpt lat="41.64093" lon="19.71332">
        <ele>72.652027</ele>
        <time>2022-05-14T11:52:33.096Z</time>
      </trkpt>
      <trkpt lat="41.64102" lon="19.71328">
        <ele>72.445568</ele>
        <time>2022-05-14T11:52:36.073Z</time>
      </trkpt>
      <trkpt lat="41.64113" lon="19.71323">
        <ele>72.182259</ele>
        <time>2022-05-14T11:52:40.095Z</time>
      </trkpt>
      <trkpt lat="41.64122" lon="19.7132">
        <ele>71.973193</ele>
        <time>2022-05-14T11:52:43.080Z</time>
      </trkpt>
      <trkpt lat="41.64131" lon="19.71316">
        <ele>71.771934</ele>
        <time>2022-05-14T11:52:46.100Z</time>
      </trkpt>
      <trkpt lat="41.64141" lon="19.71312">
        <ele>71.528025</ele>
        <time>2022-05-14T11:52:50.076Z</time>
      </trkpt>
      <trkpt lat="41.64151" lon="19.71308">
        <ele>71.305864</ele>
        <time>2022-05-14T11:52:55.076Z</time>
      </trkpt>
      <trkpt lat="41.64161" lon="19.71303">
        <ele>71.057816</ele>
        <time>2022-05-14T11:53:00.107Z</time>
      </trkpt>
      <trkpt lat="41.6417" lon="19.71298">
        <ele>70.838044</ele>
        <time>2022-05-14T11:53:04.075Z</time>
      </trkpt>
      <trkpt lat="41.64182" lon="19.71293">
        <ele>70.570427</ele>
        <time>2022-05-14T11:53:08.097Z</time>
      </trkpt>
      <trkpt lat="41.64191" lon="19.71289">
        <ele>70.356136</ele>
        <time>2022-05-14T11:53:11.067Z</time>
      </trkpt>
      <trkpt lat="41.64201" lon="19.71283">
        <ele>70.120255</ele>
        <time>2022-05-14T11:53:14.063Z</time>
      </trkpt>
      <trkpt lat="41.64211" lon="19.71277">
        <ele>69.774045</ele>
        <time>2022-05-14T11:53:17.144Z</time>
      </trkpt>
      <trkpt lat="41.64222" lon="19.71269">
        <ele>69.408831</ele>
        <time>2022-05-14T11:53:20.088Z</time>
      </trkpt>
      <trkpt lat="41.64231" lon="19.7126">
        <ele>69.052834</ele>
        <time>2022-05-14T11:53:23.110Z</time>
      </trkpt>
      <trkpt lat="41.64241" lon="19.71251">
        <ele>68.713069</ele>
        <time>2022-05-14T11:53:26.092Z</time>
      </trkpt>
      <trkpt lat="41.6425" lon="19.71242">
        <ele>68.36954</ele>
        <time>2022-05-14T11:53:29.125Z</time>
      </trkpt>
      <trkpt lat="41.6426" lon="19.71234">
        <ele>68.020946</ele>
        <time>2022-05-14T11:53:32.080Z</time>
      </trkpt>
      <trkpt lat="41.6427" lon="19.71225">
        <ele>67.658705</ele>
        <time>2022-05-14T11:53:35.110Z</time>
      </trkpt>
      <trkpt lat="41.6428" lon="19.71215">
        <ele>67.277344</ele>
        <time>2022-05-14T11:53:38.094Z</time>
      </trkpt>
      <trkpt lat="41.6429" lon="19.71205">
        <ele>66.890044</ele>
        <time>2022-05-14T11:53:41.106Z</time>
      </trkpt>
      <trkpt lat="41.643" lon="19.71195">
        <ele>66.519361</ele>
        <time>2022-05-14T11:53:44.058Z</time>
      </trkpt>
      <trkpt lat="41.64308" lon="19.71184">
        <ele>66.168029</ele>
        <time>2022-05-14T11:53:47.054Z</time>
      </trkpt>
      <trkpt lat="41.64315" lon="19.71171">
        <ele>65.816313</ele>
        <time>2022-05-14T11:53:50.084Z</time>
      </trkpt>
      <trkpt lat="41.64318" lon="19.71155">
        <ele>65.444362</ele>
        <time>2022-05-14T11:53:53.098Z</time>
      </trkpt>
      <trkpt lat="41.64321" lon="19.71144">
        <ele>65.173081</ele>
        <time>2022-05-14T11:53:55.075Z</time>
      </trkpt>
      <trkpt lat="41.64323" lon="19.71131">
        <ele>64.879258</ele>
        <time>2022-05-14T11:53:57.126Z</time>
      </trkpt>
      <trkpt lat="41.64325" lon="19.71119">
        <ele>64.634348</ele>
        <time>2022-05-14T11:53:59.104Z</time>
      </trkpt>
      <trkpt lat="41.64328" lon="19.71105">
        <ele>64.46361</ele>
        <time>2022-05-14T11:54:01.096Z</time>
      </trkpt>
      <trkpt lat="41.64331" lon="19.71091">
        <ele>64.290038</ele>
        <time>2022-05-14T11:54:03.077Z</time>
      </trkpt>
      <trkpt lat="41.64335" lon="19.71076">
        <ele>64.105086</ele>
        <time>2022-05-14T11:54:05.086Z</time>
      </trkpt>
      <trkpt lat="41.64339" lon="19.71061">
        <ele>63.912801</ele>
        <time>2022-05-14T11:54:07.091Z</time>
      </trkpt>
      <trkpt lat="41.64343" lon="19.71047">
        <ele>63.729327</ele>
        <time>2022-05-14T11:54:09.066Z</time>
      </trkpt>
      <trkpt lat="41.64348" lon="19.71033">
        <ele>63.542093</ele>
        <time>2022-05-14T11:54:11.098Z</time>
      </trkpt>
      <trkpt lat="41.64355" lon="19.71019">
        <ele>63.342125</ele>
        <time>2022-05-14T11:54:13.065Z</time>
      </trkpt>
      <trkpt lat="41.64362" lon="19.71003">
        <ele>63.115539</ele>
        <time>2022-05-14T11:54:15.064Z</time>
      </trkpt>
      <trkpt lat="41.64369" lon="19.70987">
        <ele>62.892687</ele>
        <time>2022-05-14T11:54:17.079Z</time>
      </trkpt>
      <trkpt lat="41.64377" lon="19.70971">
        <ele>62.659738</ele>
        <time>2022-05-14T11:54:19.109Z</time>
      </trkpt>
      <trkpt lat="41.64385" lon="19.70955">
        <ele>62.427789</ele>
        <time>2022-05-14T11:54:21.086Z</time>
      </trkpt>
      <trkpt lat="41.64393" lon="19.70939">
        <ele>62.202612</ele>
        <time>2022-05-14T11:54:23.086Z</time>
      </trkpt>
      <trkpt lat="41.64401" lon="19.70925">
        <ele>61.986365</ele>
        <time>2022-05-14T11:54:25.086Z</time>
      </trkpt>
      <trkpt lat="41.6441" lon="19.70912">
        <ele>61.781741</ele>
        <time>2022-05-14T11:54:27.096Z</time>
      </trkpt>
      <trkpt lat="41.6442" lon="19.70901">
        <ele>61.649691</ele>
        <time>2022-05-14T11:54:29.080Z</time>
      </trkpt>
      <trkpt lat="41.6443" lon="19.70891">
        <ele>61.520029</ele>
        <time>2022-05-14T11:54:31.076Z</time>
      </trkpt>
      <trkpt lat="41.6444" lon="19.70882">
        <ele>61.390812</ele>
        <time>2022-05-14T11:54:33.071Z</time>
      </trkpt>
      <trkpt lat="41.6445" lon="19.70876">
        <ele>61.274861</ele>
        <time>2022-05-14T11:54:35.068Z</time>
      </trkpt>
      <trkpt lat="41.64459" lon="19.7087">
        <ele>61.176389</ele>
        <time>2022-05-14T11:54:37.068Z</time>
      </trkpt>
      <trkpt lat="41.64469" lon="19.70864">
        <ele>61.062717</ele>
        <time>2022-05-14T11:54:40.083Z</time>
      </trkpt>
      <trkpt lat="41.64477" lon="19.70858">
        <ele>60.958794</ele>
        <time>2022-05-14T11:54:43.115Z</time>
      </trkpt>
      <trkpt lat="41.64486" lon="19.70851">
        <ele>60.855507</ele>
        <time>2022-05-14T11:54:46.078Z</time>
      </trkpt>
      <trkpt lat="41.64496" lon="19.70845">
        <ele>60.738618</ele>
        <time>2022-05-14T11:54:49.071Z</time>
      </trkpt>
      <trkpt lat="41.64505" lon="19.70838">
        <ele>60.627903</ele>
        <time>2022-05-14T11:54:52.081Z</time>
      </trkpt>
      <trkpt lat="41.64515" lon="19.70832">
        <ele>60.518996</ele>
        <time>2022-05-14T11:54:55.082Z</time>
      </trkpt>
      <trkpt lat="41.64524" lon="19.70826">
        <ele>60.408156</ele>
        <time>2022-05-14T11:54:58.118Z</time>
      </trkpt>
      <trkpt lat="41.64534" lon="19.7082">
        <ele>60.297649</ele>
        <time>2022-05-14T11:55:01.077Z</time>
      </trkpt>
      <trkpt lat="41.64544" lon="19.70814">
        <ele>60.179819</ele>
        <time>2022-05-14T11:55:04.121Z</time>
      </trkpt>
      <trkpt lat="41.64555" lon="19.70807">
        <ele>60.053136</ele>
        <time>2022-05-14T11:55:07.085Z</time>
      </trkpt>
      <trkpt lat="41.64566" lon="19.708">
        <ele>59.925485</ele>
        <time>2022-05-14T11:55:10.115Z</time>
      </trkpt>
      <trkpt lat="41.64578" lon="19.70793">
        <ele>60.161964</ele>
        <time>2022-05-14T11:55:13.105Z</time>
      </trkpt>
      <trkpt lat="41.64589" lon="19.70786">
        <ele>60.43718</ele>
        <time>2022-05-14T11:55:16.071Z</time>
      </trkpt>
      <trkpt lat="41.646" lon="19.70779">
        <ele>60.687471</ele>
        <time>2022-05-14T11:55:19.083Z</time>
      </trkpt>
      <trkpt lat="41.6461" lon="19.70773">
        <ele>60.920241</ele>
        <time>2022-05-14T11:55:22.087Z</time>
      </trkpt>
      <trkpt lat="41.64619" lon="19.70767">
        <ele>61.141075</ele>
        <time>2022-05-14T11:55:25.094Z</time>
      </trkpt>
      <trkpt lat="41.64629" lon="19.7076">
        <ele>61.381774</ele>
        <time>2022-05-14T11:55:30.086Z</time>
      </trkpt>
      <trkpt lat="41.64639" lon="19.70754">
        <ele>61.617905</ele>
        <time>2022-05-14T11:55:34.084Z</time>
      </trkpt>
      <trkpt lat="41.64649" lon="19.70748">
        <ele>61.858364</ele>
        <time>2022-05-14T11:55:38.083Z</time>
      </trkpt>
      <trkpt lat="41.64659" lon="19.70742">
        <ele>62.087031</ele>
        <time>2022-05-14T11:55:42.084Z</time>
      </trkpt>
      <trkpt lat="41.64668" lon="19.70738">
        <ele>62.291654</ele>
        <time>2022-05-14T11:55:46.074Z</time>
      </trkpt>
      <trkpt lat="41.64677" lon="19.70734">
        <ele>62.507471</ele>
        <time>2022-05-14T11:55:50.076Z</time>
      </trkpt>
      <trkpt lat="41.64688" lon="19.70733">
        <ele>62.735111</ele>
        <time>2022-05-14T11:55:55.065Z</time>
      </trkpt>
      <trkpt lat="41.64698" lon="19.70732">
        <ele>62.957084</ele>
        <time>2022-05-14T11:55:59.085Z</time>
      </trkpt>
      <trkpt lat="41.64708" lon="19.70734">
        <ele>63.165302</ele>
        <time>2022-05-14T11:56:03.084Z</time>
      </trkpt>
      <trkpt lat="41.64717" lon="19.70736">
        <ele>63.363471</ele>
        <time>2022-05-14T11:56:07.080Z</time>
      </trkpt>
      <trkpt lat="41.64727" lon="19.70741">
        <ele>63.59159</ele>
        <time>2022-05-14T11:56:12.107Z</time>
      </trkpt>
      <trkpt lat="41.64735" lon="19.70747">
        <ele>63.814689</ele>
        <time>2022-05-14T11:56:16.098Z</time>
      </trkpt>
      <trkpt lat="41.64743" lon="19.70754">
        <ele>64.278028</ele>
        <time>2022-05-14T11:56:20.141Z</time>
      </trkpt>
      <trkpt lat="41.64752" lon="19.70762">
        <ele>64.809044</ele>
        <time>2022-05-14T11:56:25.093Z</time>
      </trkpt>
      <trkpt lat="41.64761" lon="19.7077">
        <ele>65.31803</ele>
        <time>2022-05-14T11:56:30.070Z</time>
      </trkpt>
      <trkpt lat="41.6477" lon="19.70779">
        <ele>65.881277</ele>
        <time>2022-05-14T11:56:35.083Z</time>
      </trkpt>
      <trkpt lat="41.64778" lon="19.70786">
        <ele>66.356979</ele>
        <time>2022-05-14T11:56:39.123Z</time>
      </trkpt>
      <trkpt lat="41.64785" lon="19.70795">
        <ele>66.850395</ele>
        <time>2022-05-14T11:56:43.082Z</time>
      </trkpt>
      <trkpt lat="41.64793" lon="19.70804">
        <ele>67.353718</ele>
        <time>2022-05-14T11:56:47.093Z</time>
      </trkpt>
      <trkpt lat="41.64802" lon="19.70813">
        <ele>67.908013</ele>
        <time>2022-05-14T11:56:51.076Z</time>
      </trkpt>
      <trkpt lat="41.64811" lon="19.70822">
        <ele>68.472426</ele>
        <time>2022-05-14T11:56:55.070Z</time>
      </trkpt>
      <trkpt lat="41.64819" lon="19.70831">
        <ele>68.987153</ele>
        <time>2022-05-14T11:56:59.087Z</time>
      </trkpt>
      <trkpt lat="41.64829" lon="19.7084">
        <ele>69.551566</ele>
        <time>2022-05-14T11:57:03.087Z</time>
      </trkpt>
      <trkpt lat="41.64836" lon="19.70847">
        <ele>70.009535</ele>
        <time>2022-05-14T11:57:06.111Z</time>
      </trkpt>
      <trkpt lat="41.64843" lon="19.70855">
        <ele>70.465287</ele>
        <time>2022-05-14T11:57:09.095Z</time>
      </trkpt>
      <trkpt lat="41.64851" lon="19.70862">
        <ele>70.927198</ele>
        <time>2022-05-14T11:57:12.136Z</time>
      </trkpt>
      <trkpt lat="41.6486" lon="19.70871">
        <ele>71.487258</ele>
        <time>2022-05-14T11:57:16.083Z</time>
      </trkpt>
      <trkpt lat="41.64869" lon="19.7088">
        <ele>72.046621</ele>
        <time>2022-05-14T11:57:21.096Z</time>
      </trkpt>
      <trkpt lat="41.64877" lon="19.70888">
        <ele>72.51914</ele>
        <time>2022-05-14T11:57:25.089Z</time>
      </trkpt>
      <trkpt lat="41.64884" lon="19.70896">
        <ele>72.65174</ele>
        <time>2022-05-14T11:57:29.105Z</time>
      </trkpt>
      <trkpt lat="41.64892" lon="19.70903">
        <ele>72.641786</ele>
        <time>2022-05-14T11:57:33.081Z</time>
      </trkpt>
      <trkpt lat="41.64901" lon="19.70911">
        <ele>72.630134</ele>
        <time>2022-05-14T11:57:38.096Z</time>
      </trkpt>
      <trkpt lat="41.64908" lon="19.70918">
        <ele>72.620397</ele>
        <time>2022-05-14T11:57:42.074Z</time>
      </trkpt>
      <trkpt lat="41.64917" lon="19.70926">
        <ele>72.6096</ele>
        <time>2022-05-14T11:57:46.080Z</time>
      </trkpt>
      <trkpt lat="41.64926" lon="19.70932">
        <ele>72.598664</ele>
        <time>2022-05-14T11:57:50.091Z</time>
      </trkpt>
      <trkpt lat="41.64935" lon="19.70936">
        <ele>72.588523</ele>
        <time>2022-05-14T11:57:54.082Z</time>
      </trkpt>
      <trkpt lat="41.64945" lon="19.70938">
        <ele>72.57746</ele>
        <time>2022-05-14T11:57:58.094Z</time>
      </trkpt>
      <trkpt lat="41.64955" lon="19.70936">
        <ele>72.567142</ele>
        <time>2022-05-14T11:58:02.129Z</time>
      </trkpt>
      <trkpt lat="41.64965" lon="19.70933">
        <ele>72.555945</ele>
        <time>2022-05-14T11:58:06.082Z</time>
      </trkpt>
      <trkpt lat="41.64975" lon="19.70926">
        <ele>72.543543</ele>
        <time>2022-05-14T11:58:10.078Z</time>
      </trkpt>
      <trkpt lat="41.64983" lon="19.70919">
        <ele>72.533232</ele>
        <time>2022-05-14T11:58:13.065Z</time>
      </trkpt>
      <trkpt lat="41.64993" lon="19.70912">
        <ele>72.521762</ele>
        <time>2022-05-14T11:58:16.087Z</time>
      </trkpt>
      <trkpt lat="41.65002" lon="19.70904">
        <ele>72.509987</ele>
        <time>2022-05-14T11:58:19.094Z</time>
      </trkpt>
      <trkpt lat="41.65011" lon="19.70895">
        <ele>72.497718</ele>
        <time>2022-05-14T11:58:22.080Z</time>
      </trkpt>
      <trkpt lat="41.65021" lon="19.70887">
        <ele>72.485301</ele>
        <time>2022-05-14T11:58:25.105Z</time>
      </trkpt>
      <trkpt lat="41.65031" lon="19.7088">
        <ele>72.472911</ele>
        <time>2022-05-14T11:58:28.084Z</time>
      </trkpt>
      <trkpt lat="41.65041" lon="19.70873">
        <ele>72.329344</ele>
        <time>2022-05-14T11:58:31.100Z</time>
      </trkpt>
      <trkpt lat="41.65054" lon="19.70867">
        <ele>71.992986</ele>
        <time>2022-05-14T11:58:34.065Z</time>
      </trkpt>
      <trkpt lat="41.65063" lon="19.70863">
        <ele>71.756475</ele>
        <time>2022-05-14T11:58:36.099Z</time>
      </trkpt>
      <trkpt lat="41.65076" lon="19.70858">
        <ele>71.40827</ele>
        <time>2022-05-14T11:58:39.117Z</time>
      </trkpt>
      <trkpt lat="41.65085" lon="19.70855">
        <ele>71.157892</ele>
        <time>2022-05-14T11:58:41.083Z</time>
      </trkpt>
      <trkpt lat="41.65097" lon="19.70853">
        <ele>70.872189</ele>
        <time>2022-05-14T11:58:43.086Z</time>
      </trkpt>
      <trkpt lat="41.65108" lon="19.70851">
        <ele>70.590159</ele>
        <time>2022-05-14T11:58:45.112Z</time>
      </trkpt>
      <trkpt lat="41.65118" lon="19.70849">
        <ele>70.317085</ele>
        <time>2022-05-14T11:58:47.074Z</time>
      </trkpt>
      <trkpt lat="41.6513" lon="19.70847">
        <ele>70.026143</ele>
        <time>2022-05-14T11:58:49.082Z</time>
      </trkpt>
      <trkpt lat="41.65141" lon="19.70846">
        <ele>69.72995</ele>
        <time>2022-05-14T11:58:51.103Z</time>
      </trkpt>
      <trkpt lat="41.65152" lon="19.70844">
        <ele>69.450949</ele>
        <time>2022-05-14T11:58:53.122Z</time>
      </trkpt>
      <trkpt lat="41.65163" lon="19.70843">
        <ele>69.175716</ele>
        <time>2022-05-14T11:58:55.091Z</time>
      </trkpt>
      <trkpt lat="41.65173" lon="19.70842">
        <ele>68.90853</ele>
        <time>2022-05-14T11:58:57.084Z</time>
      </trkpt>
      <trkpt lat="41.65184" lon="19.70841">
        <ele>68.646408</ele>
        <time>2022-05-14T11:58:59.116Z</time>
      </trkpt>
      <trkpt lat="41.65194" lon="19.70839">
        <ele>68.384141</ele>
        <time>2022-05-14T11:59:01.076Z</time>
      </trkpt>
      <trkpt lat="41.65205" lon="19.70839">
        <ele>68.11455</ele>
        <time>2022-05-14T11:59:03.074Z</time>
      </trkpt>
      <trkpt lat="41.65216" lon="19.70838">
        <ele>67.832779</ele>
        <time>2022-05-14T11:59:05.115Z</time>
      </trkpt>
      <trkpt lat="41.65226" lon="19.70837">
        <ele>67.544939</ele>
        <time>2022-05-14T11:59:07.088Z</time>
      </trkpt>
      <trkpt lat="41.65237" lon="19.70836">
        <ele>67.250602</ele>
        <time>2022-05-14T11:59:09.085Z</time>
      </trkpt>
      <trkpt lat="41.65247" lon="19.70834">
        <ele>66.966446</ele>
        <time>2022-05-14T11:59:11.095Z</time>
      </trkpt>
      <trkpt lat="41.65258" lon="19.70832">
        <ele>66.66781</ele>
        <time>2022-05-14T11:59:13.088Z</time>
      </trkpt>
      <trkpt lat="41.65269" lon="19.70829">
        <ele>66.366152</ele>
        <time>2022-05-14T11:59:15.088Z</time>
      </trkpt>
      <trkpt lat="41.6528" lon="19.70826">
        <ele>66.051318</ele>
        <time>2022-05-14T11:59:17.092Z</time>
      </trkpt>
      <trkpt lat="41.65291" lon="19.70821">
        <ele>65.746876</ele>
        <time>2022-05-14T11:59:19.087Z</time>
      </trkpt>
      <trkpt lat="41.65302" lon="19.70816">
        <ele>65.444807</ele>
        <time>2022-05-14T11:59:21.077Z</time>
      </trkpt>
      <trkpt lat="41.65312" lon="19.7081">
        <ele>65.130804</ele>
        <time>2022-05-14T11:59:23.095Z</time>
      </trkpt>
      <trkpt lat="41.65324" lon="19.70804">
        <ele>64.796021</ele>
        <time>2022-05-14T11:59:25.089Z</time>
      </trkpt>
      <trkpt lat="41.65336" lon="19.70797">
        <ele>64.43821</ele>
        <time>2022-05-14T11:59:27.097Z</time>
      </trkpt>
      <trkpt lat="41.65348" lon="19.70789">
        <ele>64.064716</ele>
        <time>2022-05-14T11:59:29.072Z</time>
      </trkpt>
      <trkpt lat="41.65361" lon="19.70781">
        <ele>63.670551</ele>
        <time>2022-05-14T11:59:31.086Z</time>
      </trkpt>
      <trkpt lat="41.65376" lon="19.70773">
        <ele>63.249952</ele>
        <time>2022-05-14T11:59:33.084Z</time>
      </trkpt>
      <trkpt lat="41.6539" lon="19.70763">
        <ele>62.737367</ele>
        <time>2022-05-14T11:59:35.087Z</time>
      </trkpt>
      <trkpt lat="41.65405" lon="19.70754">
        <ele>62.136875</ele>
        <time>2022-05-14T11:59:37.084Z</time>
      </trkpt>
      <trkpt lat="41.65421" lon="19.70744">
        <ele>61.525191</ele>
        <time>2022-05-14T11:59:39.090Z</time>
      </trkpt>
      <trkpt lat="41.65436" lon="19.70734">
        <ele>60.891257</ele>
        <time>2022-05-14T11:59:41.086Z</time>
      </trkpt>
      <trkpt lat="41.65452" lon="19.70724">
        <ele>60.248042</ele>
        <time>2022-05-14T11:59:43.077Z</time>
      </trkpt>
      <trkpt lat="41.65468" lon="19.70713">
        <ele>59.59183</ele>
        <time>2022-05-14T11:59:45.100Z</time>
      </trkpt>
      <trkpt lat="41.65476" lon="19.70707">
        <ele>59.260665</ele>
        <time>2022-05-14T11:59:46.080Z</time>
      </trkpt>
      <trkpt lat="41.65485" lon="19.70702">
        <ele>58.924482</ele>
        <time>2022-05-14T11:59:47.075Z</time>
      </trkpt>
      <trkpt lat="41.65493" lon="19.70697">
        <ele>58.595774</ele>
        <time>2022-05-14T11:59:48.087Z</time>
      </trkpt>
      <trkpt lat="41.65509" lon="19.70687">
        <ele>57.966506</ele>
        <time>2022-05-14T11:59:50.086Z</time>
      </trkpt>
      <trkpt lat="41.65524" lon="19.70677">
        <ele>57.351543</ele>
        <time>2022-05-14T11:59:52.081Z</time>
      </trkpt>
      <trkpt lat="41.65539" lon="19.70667">
        <ele>56.733051</ele>
        <time>2022-05-14T11:59:54.086Z</time>
      </trkpt>
      <trkpt lat="41.65555" lon="19.70657">
        <ele>56.222491</ele>
        <time>2022-05-14T11:59:56.098Z</time>
      </trkpt>
      <trkpt lat="41.65564" lon="19.70652">
        <ele>55.99324</ele>
        <time>2022-05-14T11:59:57.083Z</time>
      </trkpt>
      <trkpt lat="41.65572" lon="19.70647">
        <ele>55.76248</ele>
        <time>2022-05-14T11:59:58.085Z</time>
      </trkpt>
      <trkpt lat="41.65581" lon="19.70642">
        <ele>55.536968</ele>
        <time>2022-05-14T11:59:59.099Z</time>
      </trkpt>
      <trkpt lat="41.65597" lon="19.70633">
        <ele>55.101681</ele>
        <time>2022-05-14T12:00:01.082Z</time>
      </trkpt>
      <trkpt lat="41.65612" lon="19.70623">
        <ele>54.683581</ele>
        <time>2022-05-14T12:00:03.088Z</time>
      </trkpt>
      <trkpt lat="41.65627" lon="19.70614">
        <ele>54.284851</ele>
        <time>2022-05-14T12:00:05.085Z</time>
      </trkpt>
      <trkpt lat="41.6564" lon="19.70604">
        <ele>53.906883</ele>
        <time>2022-05-14T12:00:07.078Z</time>
      </trkpt>
      <trkpt lat="41.65652" lon="19.70593">
        <ele>53.563266</ele>
        <time>2022-05-14T12:00:09.061Z</time>
      </trkpt>
      <trkpt lat="41.65662" lon="19.70583">
        <ele>53.238717</ele>
        <time>2022-05-14T12:00:11.087Z</time>
      </trkpt>
      <trkpt lat="41.65672" lon="19.70571">
        <ele>52.926387</ele>
        <time>2022-05-14T12:00:13.081Z</time>
      </trkpt>
      <trkpt lat="41.6568" lon="19.7056">
        <ele>52.624476</ele>
        <time>2022-05-14T12:00:15.084Z</time>
      </trkpt>
      <trkpt lat="41.65688" lon="19.70548">
        <ele>52.342401</ele>
        <time>2022-05-14T12:00:17.115Z</time>
      </trkpt>
      <trkpt lat="41.65695" lon="19.70537">
        <ele>52.071072</ele>
        <time>2022-05-14T12:00:19.099Z</time>
      </trkpt>
      <trkpt lat="41.65702" lon="19.70525">
        <ele>52.072953</ele>
        <time>2022-05-14T12:00:21.074Z</time>
      </trkpt>
      <trkpt lat="41.65709" lon="19.70515">
        <ele>52.086981</ele>
        <time>2022-05-14T12:00:23.100Z</time>
      </trkpt>
      <trkpt lat="41.65717" lon="19.70506">
        <ele>52.100989</ele>
        <time>2022-05-14T12:00:25.093Z</time>
      </trkpt>
      <trkpt lat="41.65727" lon="19.705">
        <ele>52.115284</ele>
        <time>2022-05-14T12:00:27.066Z</time>
      </trkpt>
      <trkpt lat="41.65738" lon="19.70497">
        <ele>52.129316</ele>
        <time>2022-05-14T12:00:29.116Z</time>
      </trkpt>
      <trkpt lat="41.65747" lon="19.70497">
        <ele>52.141846</ele>
        <time>2022-05-14T12:00:31.089Z</time>
      </trkpt>
      <trkpt lat="41.65756" lon="19.705">
        <ele>52.154098</ele>
        <time>2022-05-14T12:00:33.130Z</time>
      </trkpt>
      <trkpt lat="41.65768" lon="19.70506">
        <ele>52.1708</ele>
        <time>2022-05-14T12:00:36.077Z</time>
      </trkpt>
      <trkpt lat="41.65778" lon="19.70516">
        <ele>52.186865</ele>
        <time>2022-05-14T12:00:39.091Z</time>
      </trkpt>
      <trkpt lat="41.65786" lon="19.70527">
        <ele>52.202132</ele>
        <time>2022-05-14T12:00:42.091Z</time>
      </trkpt>
      <trkpt lat="41.65794" lon="19.70539">
        <ele>52.218214</ele>
        <time>2022-05-14T12:00:45.094Z</time>
      </trkpt>
      <trkpt lat="41.65802" lon="19.70551">
        <ele>52.233555</ele>
        <time>2022-05-14T12:00:48.093Z</time>
      </trkpt>
      <trkpt lat="41.6581" lon="19.70562">
        <ele>52.249355</ele>
        <time>2022-05-14T12:00:51.077Z</time>
      </trkpt>
      <trkpt lat="41.6582" lon="19.70572">
        <ele>52.265042</ele>
        <time>2022-05-14T12:00:54.090Z</time>
      </trkpt>
      <trkpt lat="41.6583" lon="19.70579">
        <ele>52.280764</ele>
        <time>2022-05-14T12:00:57.089Z</time>
      </trkpt>
      <trkpt lat="41.65841" lon="19.70583">
        <ele>52.295682</ele>
        <time>2022-05-14T12:01:00.064Z</time>
      </trkpt>
      <trkpt lat="41.65854" lon="19.70587">
        <ele>52.267993</ele>
        <time>2022-05-14T12:01:03.086Z</time>
      </trkpt>
      <trkpt lat="41.65863" lon="19.70589">
        <ele>52.246382</ele>
        <time>2022-05-14T12:01:05.088Z</time>
      </trkpt>
      <trkpt lat="41.65873" lon="19.7059">
        <ele>52.22422</ele>
        <time>2022-05-14T12:01:07.070Z</time>
      </trkpt>
      <trkpt lat="41.65882" lon="19.70592">
        <ele>52.202248</ele>
        <time>2022-05-14T12:01:09.094Z</time>
      </trkpt>
      <trkpt lat="41.65892" lon="19.70593">
        <ele>52.180661</ele>
        <time>2022-05-14T12:01:11.083Z</time>
      </trkpt>
      <trkpt lat="41.65901" lon="19.70595">
        <ele>52.158849</ele>
        <time>2022-05-14T12:01:13.079Z</time>
      </trkpt>
      <trkpt lat="41.65911" lon="19.70597">
        <ele>52.137687</ele>
        <time>2022-05-14T12:01:15.082Z</time>
      </trkpt>
      <trkpt lat="41.65923" lon="19.70601">
        <ele>52.107805</ele>
        <time>2022-05-14T12:01:18.064Z</time>
      </trkpt>
      <trkpt lat="41.65936" lon="19.70606">
        <ele>52.078422</ele>
        <time>2022-05-14T12:01:21.104Z</time>
      </trkpt>
      <trkpt lat="41.65948" lon="19.70611">
        <ele>52.049149</ele>
        <time>2022-05-14T12:01:24.086Z</time>
      </trkpt>
      <trkpt lat="41.6596" lon="19.70616">
        <ele>52.020259</ele>
        <time>2022-05-14T12:01:27.077Z</time>
      </trkpt>
      <trkpt lat="41.65972" lon="19.70622">
        <ele>51.991255</ele>
        <time>2022-05-14T12:01:30.081Z</time>
      </trkpt>
      <trkpt lat="41.65984" lon="19.70629">
        <ele>51.962671</ele>
        <time>2022-05-14T12:01:33.083Z</time>
      </trkpt>
      <trkpt lat="41.65995" lon="19.70636">
        <ele>51.934158</ele>
        <time>2022-05-14T12:01:36.071Z</time>
      </trkpt>
      <trkpt lat="41.66006" lon="19.70642">
        <ele>51.907787</ele>
        <time>2022-05-14T12:01:39.088Z</time>
      </trkpt>
      <trkpt lat="41.66016" lon="19.7065">
        <ele>51.966381</ele>
        <time>2022-05-14T12:01:42.093Z</time>
      </trkpt>
      <trkpt lat="41.66027" lon="19.70658">
        <ele>52.256454</ele>
        <time>2022-05-14T12:01:45.111Z</time>
      </trkpt>
      <trkpt lat="41.66037" lon="19.70666">
        <ele>52.528713</ele>
        <time>2022-05-14T12:01:48.085Z</time>
      </trkpt>
      <trkpt lat="41.66046" lon="19.70677">
        <ele>52.806655</ele>
        <time>2022-05-14T12:01:51.130Z</time>
      </trkpt>
      <trkpt lat="41.66053" lon="19.70689">
        <ele>53.080794</ele>
        <time>2022-05-14T12:01:54.077Z</time>
      </trkpt>
      <trkpt lat="41.6606" lon="19.70702">
        <ele>53.357877</ele>
        <time>2022-05-14T12:01:57.080Z</time>
      </trkpt>
      <trkpt lat="41.66066" lon="19.70715">
        <ele>53.631176</ele>
        <time>2022-05-14T12:02:00.079Z</time>
      </trkpt>
      <trkpt lat="41.66071" lon="19.70727">
        <ele>53.875844</ele>
        <time>2022-05-14T12:02:03.079Z</time>
      </trkpt>
      <trkpt lat="41.66078" lon="19.70738">
        <ele>54.135675</ele>
        <time>2022-05-14T12:02:06.100Z</time>
      </trkpt>
      <trkpt lat="41.66086" lon="19.70749">
        <ele>54.400511</ele>
        <time>2022-05-14T12:02:09.091Z</time>
      </trkpt>
      <trkpt lat="41.66095" lon="19.70757">
        <ele>54.651229</ele>
        <time>2022-05-14T12:02:12.065Z</time>
      </trkpt>
      <trkpt lat="41.66104" lon="19.70764">
        <ele>54.898925</ele>
        <time>2022-05-14T12:02:15.086Z</time>
      </trkpt>
      <trkpt lat="41.66113" lon="19.70769">
        <ele>55.137154</ele>
        <time>2022-05-14T12:02:18.072Z</time>
      </trkpt>
      <trkpt lat="41.66122" lon="19.70774">
        <ele>55.349751</ele>
        <time>2022-05-14T12:02:21.074Z</time>
      </trkpt>
      <trkpt lat="41.6613" lon="19.70778">
        <ele>55.568789</ele>
        <time>2022-05-14T12:02:25.086Z</time>
      </trkpt>
      <trkpt lat="41.6614" lon="19.70782">
        <ele>55.805288</ele>
        <time>2022-05-14T12:02:29.084Z</time>
      </trkpt>
      <trkpt lat="41.66149" lon="19.70787">
        <ele>56.0383</ele>
        <time>2022-05-14T12:02:33.072Z</time>
      </trkpt>
      <trkpt lat="41.6616" lon="19.70792">
        <ele>56.273183</ele>
        <time>2022-05-14T12:02:37.085Z</time>
      </trkpt>
      <trkpt lat="41.66171" lon="19.70798">
        <ele>56.484358</ele>
        <time>2022-05-14T12:02:41.085Z</time>
      </trkpt>
      <trkpt lat="41.66179" lon="19.70802">
        <ele>56.65359</ele>
        <time>2022-05-14T12:02:44.069Z</time>
      </trkpt>
      <trkpt lat="41.66189" lon="19.70807">
        <ele>56.839575</ele>
        <time>2022-05-14T12:02:47.103Z</time>
      </trkpt>
      <trkpt lat="41.66198" lon="19.70811">
        <ele>57.021018</ele>
        <time>2022-05-14T12:02:50.080Z</time>
      </trkpt>
      <trkpt lat="41.66209" lon="19.70816">
        <ele>57.231884</ele>
        <time>2022-05-14T12:02:54.081Z</time>
      </trkpt>
      <trkpt lat="41.66219" lon="19.70819">
        <ele>57.430361</ele>
        <time>2022-05-14T12:02:58.119Z</time>
      </trkpt>
      <trkpt lat="41.66229" lon="19.70821">
        <ele>57.619224</ele>
        <time>2022-05-14T12:03:02.089Z</time>
      </trkpt>
      <trkpt lat="41.6624" lon="19.70823">
        <ele>57.813263</ele>
        <time>2022-05-14T12:03:06.076Z</time>
      </trkpt>
      <trkpt lat="41.66251" lon="19.70826">
        <ele>58.02477</ele>
        <time>2022-05-14T12:03:10.074Z</time>
      </trkpt>
      <trkpt lat="41.66262" lon="19.70827">
        <ele>58.234979</ele>
        <time>2022-05-14T12:03:14.081Z</time>
      </trkpt>
      <trkpt lat="41.66274" lon="19.70831">
        <ele>58.450889</ele>
        <time>2022-05-14T12:03:18.116Z</time>
      </trkpt>
      <trkpt lat="41.66283" lon="19.70834">
        <ele>58.633447</ele>
        <time>2022-05-14T12:03:21.083Z</time>
      </trkpt>
      <trkpt lat="41.66294" lon="19.70838">
        <ele>58.832494</ele>
        <time>2022-05-14T12:03:24.081Z</time>
      </trkpt>
      <trkpt lat="41.66305" lon="19.70844">
        <ele>59.053789</ele>
        <time>2022-05-14T12:03:27.078Z</time>
      </trkpt>
      <trkpt lat="41.66316" lon="19.70852">
        <ele>59.284006</ele>
        <time>2022-05-14T12:03:30.091Z</time>
      </trkpt>
      <trkpt lat="41.66326" lon="19.7086">
        <ele>59.399489</ele>
        <time>2022-05-14T12:03:33.093Z</time>
      </trkpt>
      <trkpt lat="41.66338" lon="19.70867">
        <ele>59.161845</ele>
        <time>2022-05-14T12:03:36.082Z</time>
      </trkpt>
      <trkpt lat="41.66351" lon="19.70871">
        <ele>58.925094</ele>
        <time>2022-05-14T12:03:39.091Z</time>
      </trkpt>
      <trkpt lat="41.6636" lon="19.70872">
        <ele>58.758582</ele>
        <time>2022-05-14T12:03:41.089Z</time>
      </trkpt>
      <trkpt lat="41.66373" lon="19.70871">
        <ele>58.518765</ele>
        <time>2022-05-14T12:03:44.095Z</time>
      </trkpt>
      <trkpt lat="41.66384" lon="19.70867">
        <ele>58.304931</ele>
        <time>2022-05-14T12:03:47.095Z</time>
      </trkpt>
      <trkpt lat="41.66394" lon="19.70861">
        <ele>58.104579</ele>
        <time>2022-05-14T12:03:50.092Z</time>
      </trkpt>
      <trkpt lat="41.66404" lon="19.70853">
        <ele>57.893362</ele>
        <time>2022-05-14T12:03:53.099Z</time>
      </trkpt>
      <trkpt lat="41.66413" lon="19.70843">
        <ele>57.678649</ele>
        <time>2022-05-14T12:03:56.074Z</time>
      </trkpt>
      <trkpt lat="41.66422" lon="19.70833">
        <ele>57.465118</ele>
        <time>2022-05-14T12:03:59.101Z</time>
      </trkpt>
      <trkpt lat="41.66432" lon="19.70826">
        <ele>57.254399</ele>
        <time>2022-05-14T12:04:02.092Z</time>
      </trkpt>
      <trkpt lat="41.66442" lon="19.7082">
        <ele>57.051148</ele>
        <time>2022-05-14T12:04:05.114Z</time>
      </trkpt>
      <trkpt lat="41.66453" lon="19.70816">
        <ele>56.845909</ele>
        <time>2022-05-14T12:04:08.078Z</time>
      </trkpt>
      <trkpt lat="41.66465" lon="19.70814">
        <ele>56.62247</ele>
        <time>2022-05-14T12:04:11.124Z</time>
      </trkpt>
      <trkpt lat="41.66478" lon="19.70813">
        <ele>56.391963</ele>
        <time>2022-05-14T12:04:14.083Z</time>
      </trkpt>
      <trkpt lat="41.6649" lon="19.70814">
        <ele>56.173561</ele>
        <time>2022-05-14T12:04:17.100Z</time>
      </trkpt>
      <trkpt lat="41.66501" lon="19.70816">
        <ele>56.410151</ele>
        <time>2022-05-14T12:04:20.076Z</time>
      </trkpt>
      <trkpt lat="41.66513" lon="19.70819">
        <ele>56.666674</ele>
        <time>2022-05-14T12:04:23.099Z</time>
      </trkpt>
      <trkpt lat="41.66523" lon="19.70822">
        <ele>56.909438</ele>
        <time>2022-05-14T12:04:26.078Z</time>
      </trkpt>
      <trkpt lat="41.66534" lon="19.70827">
        <ele>57.156377</ele>
        <time>2022-05-14T12:04:29.086Z</time>
      </trkpt>
      <trkpt lat="41.66544" lon="19.70832">
        <ele>57.409229</ele>
        <time>2022-05-14T12:04:32.092Z</time>
      </trkpt>
      <trkpt lat="41.66555" lon="19.70839">
        <ele>57.673804</ele>
        <time>2022-05-14T12:04:35.071Z</time>
      </trkpt>
      <trkpt lat="41.66565" lon="19.70847">
        <ele>57.934453</ele>
        <time>2022-05-14T12:04:38.143Z</time>
      </trkpt>
      <trkpt lat="41.66573" lon="19.70854">
        <ele>58.159676</ele>
        <time>2022-05-14T12:04:41.087Z</time>
      </trkpt>
      <trkpt lat="41.66581" lon="19.70861">
        <ele>58.362623</ele>
        <time>2022-05-14T12:04:44.070Z</time>
      </trkpt>
      <trkpt lat="41.66588" lon="19.70868">
        <ele>58.573109</ele>
        <time>2022-05-14T12:04:47.072Z</time>
      </trkpt>
      <trkpt lat="41.66598" lon="19.70877">
        <ele>58.830136</ele>
        <time>2022-05-14T12:04:51.080Z</time>
      </trkpt>
      <trkpt lat="41.66606" lon="19.70886">
        <ele>59.06662</ele>
        <time>2022-05-14T12:04:55.060Z</time>
      </trkpt>
      <trkpt lat="41.66615" lon="19.70892">
        <ele>59.285055</ele>
        <time>2022-05-14T12:04:58.080Z</time>
      </trkpt>
      <trkpt lat="41.66626" lon="19.70896">
        <ele>59.550582</ele>
        <time>2022-05-14T12:05:01.079Z</time>
      </trkpt>
      <trkpt lat="41.66637" lon="19.70897">
        <ele>59.795177</ele>
        <time>2022-05-14T12:05:04.072Z</time>
      </trkpt>
      <trkpt lat="41.66649" lon="19.70895">
        <ele>60.070079</ele>
        <time>2022-05-14T12:05:07.092Z</time>
      </trkpt>
      <trkpt lat="41.66663" lon="19.70893">
        <ele>60.253247</ele>
        <time>2022-05-14T12:05:10.085Z</time>
      </trkpt>
      <trkpt lat="41.66672" lon="19.7089">
        <ele>60.33083</ele>
        <time>2022-05-14T12:05:12.077Z</time>
      </trkpt>
      <trkpt lat="41.66683" lon="19.70887">
        <ele>60.412204</ele>
        <time>2022-05-14T12:05:14.076Z</time>
      </trkpt>
      <trkpt lat="41.66693" lon="19.70884">
        <ele>60.495328</ele>
        <time>2022-05-14T12:05:16.105Z</time>
      </trkpt>
      <trkpt lat="41.66704" lon="19.70881">
        <ele>60.581603</ele>
        <time>2022-05-14T12:05:18.073Z</time>
      </trkpt>
      <trkpt lat="41.66715" lon="19.70878">
        <ele>60.666126</ele>
        <time>2022-05-14T12:05:20.082Z</time>
      </trkpt>
      <trkpt lat="41.66725" lon="19.70875">
        <ele>60.748258</ele>
        <time>2022-05-14T12:05:22.069Z</time>
      </trkpt>
      <trkpt lat="41.66736" lon="19.70872">
        <ele>60.830392</ele>
        <time>2022-05-14T12:05:24.080Z</time>
      </trkpt>
      <trkpt lat="41.66746" lon="19.70869">
        <ele>60.912759</ele>
        <time>2022-05-14T12:05:26.100Z</time>
      </trkpt>
      <trkpt lat="41.66756" lon="19.70866">
        <ele>60.993149</ele>
        <time>2022-05-14T12:05:28.115Z</time>
      </trkpt>
      <trkpt lat="41.66766" lon="19.70863">
        <ele>61.070496</ele>
        <time>2022-05-14T12:05:30.078Z</time>
      </trkpt>
      <trkpt lat="41.66776" lon="19.70859">
        <ele>61.149024</ele>
        <time>2022-05-14T12:05:32.090Z</time>
      </trkpt>
      <trkpt lat="41.66785" lon="19.70855">
        <ele>61.228692</ele>
        <time>2022-05-14T12:05:34.132Z</time>
      </trkpt>
      <trkpt lat="41.66795" lon="19.7085">
        <ele>61.308033</ele>
        <time>2022-05-14T12:05:36.073Z</time>
      </trkpt>
      <trkpt lat="41.66805" lon="19.70846">
        <ele>61.387327</ele>
        <time>2022-05-14T12:05:38.094Z</time>
      </trkpt>
      <trkpt lat="41.66814" lon="19.70841">
        <ele>61.467394</ele>
        <time>2022-05-14T12:05:40.078Z</time>
      </trkpt>
      <trkpt lat="41.66823" lon="19.70837">
        <ele>61.540849</ele>
        <time>2022-05-14T12:05:42.073Z</time>
      </trkpt>
      <trkpt lat="41.66832" lon="19.70833">
        <ele>61.5717</ele>
        <time>2022-05-14T12:05:44.085Z</time>
      </trkpt>
      <trkpt lat="41.66842" lon="19.7083">
        <ele>61.539307</ele>
        <time>2022-05-14T12:05:46.083Z</time>
      </trkpt>
      <trkpt lat="41.66852" lon="19.70829">
        <ele>61.506333</ele>
        <time>2022-05-14T12:05:48.086Z</time>
      </trkpt>
      <trkpt lat="41.66862" lon="19.70828">
        <ele>61.472002</ele>
        <time>2022-05-14T12:05:50.095Z</time>
      </trkpt>
      <trkpt lat="41.66871" lon="19.70828">
        <ele>61.441017</ele>
        <time>2022-05-14T12:05:52.088Z</time>
      </trkpt>
      <trkpt lat="41.66884" lon="19.7083">
        <ele>61.396808</ele>
        <time>2022-05-14T12:05:55.065Z</time>
      </trkpt>
      <trkpt lat="41.66896" lon="19.70834">
        <ele>61.355889</ele>
        <time>2022-05-14T12:05:58.081Z</time>
      </trkpt>
      <trkpt lat="41.66907" lon="19.70837">
        <ele>61.319209</ele>
        <time>2022-05-14T12:06:01.093Z</time>
      </trkpt>
      <trkpt lat="41.66919" lon="19.70839">
        <ele>61.278057</ele>
        <time>2022-05-14T12:06:04.073Z</time>
      </trkpt>
      <trkpt lat="41.66929" lon="19.70839">
        <ele>61.245753</ele>
        <time>2022-05-14T12:06:06.114Z</time>
      </trkpt>
      <trkpt lat="41.66941" lon="19.70838">
        <ele>61.207778</ele>
        <time>2022-05-14T12:06:08.077Z</time>
      </trkpt>
      <trkpt lat="41.66953" lon="19.70838">
        <ele>61.166126</ele>
        <time>2022-05-14T12:06:10.084Z</time>
      </trkpt>
      <trkpt lat="41.66966" lon="19.70837">
        <ele>61.122433</ele>
        <time>2022-05-14T12:06:12.112Z</time>
      </trkpt>
      <trkpt lat="41.66979" lon="19.70836">
        <ele>61.078099</ele>
        <time>2022-05-14T12:06:14.099Z</time>
      </trkpt>
      <trkpt lat="41.66993" lon="19.70834">
        <ele>61.033673</ele>
        <time>2022-05-14T12:06:16.091Z</time>
      </trkpt>
      <trkpt lat="41.67007" lon="19.70833">
        <ele>60.986973</ele>
        <time>2022-05-14T12:06:18.092Z</time>
      </trkpt>
      <trkpt lat="41.6702" lon="19.70832">
        <ele>60.820453</ele>
        <time>2022-05-14T12:06:20.119Z</time>
      </trkpt>
      <trkpt lat="41.67034" lon="19.7083">
        <ele>60.650742</ele>
        <time>2022-05-14T12:06:22.103Z</time>
      </trkpt>
      <trkpt lat="41.67047" lon="19.70829">
        <ele>60.486139</ele>
        <time>2022-05-14T12:06:24.106Z</time>
      </trkpt>
      <trkpt lat="41.6706" lon="19.70829">
        <ele>60.320786</ele>
        <time>2022-05-14T12:06:26.084Z</time>
      </trkpt>
      <trkpt lat="41.67073" lon="19.7083">
        <ele>60.147753</ele>
        <time>2022-05-14T12:06:28.082Z</time>
      </trkpt>
      <trkpt lat="41.67087" lon="19.70832">
        <ele>59.970501</ele>
        <time>2022-05-14T12:06:30.079Z</time>
      </trkpt>
      <trkpt lat="41.67101" lon="19.70834">
        <ele>59.795185</ele>
        <time>2022-05-14T12:06:32.085Z</time>
      </trkpt>
      <trkpt lat="41.67115" lon="19.70835">
        <ele>59.62079</ele>
        <time>2022-05-14T12:06:34.086Z</time>
      </trkpt>
      <trkpt lat="41.67128" lon="19.70835">
        <ele>59.458032</ele>
        <time>2022-05-14T12:06:36.126Z</time>
      </trkpt>
      <trkpt lat="41.67141" lon="19.70833">
        <ele>59.296717</ele>
        <time>2022-05-14T12:06:38.078Z</time>
      </trkpt>
      <trkpt lat="41.67153" lon="19.7083">
        <ele>59.136516</ele>
        <time>2022-05-14T12:06:40.097Z</time>
      </trkpt>
      <trkpt lat="41.67164" lon="19.70826">
        <ele>58.995648</ele>
        <time>2022-05-14T12:06:42.088Z</time>
      </trkpt>
      <trkpt lat="41.67175" lon="19.70821">
        <ele>58.850863</ele>
        <time>2022-05-14T12:06:44.089Z</time>
      </trkpt>
      <trkpt lat="41.67186" lon="19.70815">
        <ele>58.669795</ele>
        <time>2022-05-14T12:06:46.089Z</time>
      </trkpt>
      <trkpt lat="41.67197" lon="19.70809">
        <ele>58.271892</ele>
        <time>2022-05-14T12:06:48.100Z</time>
      </trkpt>
      <trkpt lat="41.67207" lon="19.70803">
        <ele>57.887527</ele>
        <time>2022-05-14T12:06:50.075Z</time>
      </trkpt>
      <trkpt lat="41.67217" lon="19.70797">
        <ele>57.512856</ele>
        <time>2022-05-14T12:06:52.099Z</time>
      </trkpt>
      <trkpt lat="41.67226" lon="19.70792">
        <ele>57.153967</ele>
        <time>2022-05-14T12:06:54.081Z</time>
      </trkpt>
      <trkpt lat="41.67236" lon="19.70786">
        <ele>56.779296</ele>
        <time>2022-05-14T12:06:56.086Z</time>
      </trkpt>
      <trkpt lat="41.67245" lon="19.7078">
        <ele>56.444602</ele>
        <time>2022-05-14T12:06:58.108Z</time>
      </trkpt>
      <trkpt lat="41.67254" lon="19.70775">
        <ele>56.097239</ele>
        <time>2022-05-14T12:07:00.086Z</time>
      </trkpt>
      <trkpt lat="41.67263" lon="19.70769">
        <ele>55.756246</ele>
        <time>2022-05-14T12:07:02.081Z</time>
      </trkpt>
      <trkpt lat="41.67272" lon="19.70764">
        <ele>55.436275</ele>
        <time>2022-05-14T12:07:04.085Z</time>
      </trkpt>
      <trkpt lat="41.6728" lon="19.70759">
        <ele>55.098435</ele>
        <time>2022-05-14T12:07:06.081Z</time>
      </trkpt>
      <trkpt lat="41.67289" lon="19.70754">
        <ele>54.777434</ele>
        <time>2022-05-14T12:07:08.090Z</time>
      </trkpt>
      <trkpt lat="41.67298" lon="19.70749">
        <ele>54.444357</ele>
        <time>2022-05-14T12:07:10.091Z</time>
      </trkpt>
      <trkpt lat="41.67308" lon="19.70744">
        <ele>54.084048</ele>
        <time>2022-05-14T12:07:12.068Z</time>
      </trkpt>
      <trkpt lat="41.67317" lon="19.7074">
        <ele>53.732356</ele>
        <time>2022-05-14T12:07:14.084Z</time>
      </trkpt>
      <trkpt lat="41.67327" lon="19.70736">
        <ele>53.372953</ele>
        <time>2022-05-14T12:07:16.082Z</time>
      </trkpt>
      <trkpt lat="41.67337" lon="19.70733">
        <ele>53.044307</ele>
        <time>2022-05-14T12:07:18.117Z</time>
      </trkpt>
      <trkpt lat="41.67345" lon="19.70731">
        <ele>52.728792</ele>
        <time>2022-05-14T12:07:20.101Z</time>
      </trkpt>
      <trkpt lat="41.67358" lon="19.70727">
        <ele>52.52305</ele>
        <time>2022-05-14T12:07:23.103Z</time>
      </trkpt>
      <trkpt lat="41.67368" lon="19.70724">
        <ele>52.559994</ele>
        <time>2022-05-14T12:07:25.081Z</time>
      </trkpt>
      <trkpt lat="41.67377" lon="19.70722">
        <ele>52.59595</ele>
        <time>2022-05-14T12:07:27.134Z</time>
      </trkpt>
      <trkpt lat="41.67386" lon="19.7072">
        <ele>52.631747</ele>
        <time>2022-05-14T12:07:29.085Z</time>
      </trkpt>
      <trkpt lat="41.67395" lon="19.70717">
        <ele>52.667819</ele>
        <time>2022-05-14T12:07:31.083Z</time>
      </trkpt>
      <trkpt lat="41.67404" lon="19.70715">
        <ele>52.705029</ele>
        <time>2022-05-14T12:07:33.089Z</time>
      </trkpt>
      <trkpt lat="41.67414" lon="19.70713">
        <ele>52.740778</ele>
        <time>2022-05-14T12:07:35.118Z</time>
      </trkpt>
      <trkpt lat="41.67423" lon="19.70711">
        <ele>52.776358</ele>
        <time>2022-05-14T12:07:37.060Z</time>
      </trkpt>
      <trkpt lat="41.67432" lon="19.7071">
        <ele>52.813794</ele>
        <time>2022-05-14T12:07:39.093Z</time>
      </trkpt>
      <trkpt lat="41.67442" lon="19.7071">
        <ele>52.849847</ele>
        <time>2022-05-14T12:07:41.098Z</time>
      </trkpt>
      <trkpt lat="41.67451" lon="19.7071">
        <ele>52.886292</ele>
        <time>2022-05-14T12:07:43.081Z</time>
      </trkpt>
      <trkpt lat="41.67461" lon="19.70711">
        <ele>52.923697</ele>
        <time>2022-05-14T12:07:45.068Z</time>
      </trkpt>
      <trkpt lat="41.67471" lon="19.70713">
        <ele>52.963277</ele>
        <time>2022-05-14T12:07:47.122Z</time>
      </trkpt>
      <trkpt lat="41.6748" lon="19.70716">
        <ele>53.000054</ele>
        <time>2022-05-14T12:07:49.151Z</time>
      </trkpt>
      <trkpt lat="41.67492" lon="19.70722">
        <ele>53.051153</ele>
        <time>2022-05-14T12:07:52.096Z</time>
      </trkpt>
      <trkpt lat="41.67504" lon="19.70728">
        <ele>53.099933</ele>
        <time>2022-05-14T12:07:55.068Z</time>
      </trkpt>
      <trkpt lat="41.67515" lon="19.70735">
        <ele>53.148201</ele>
        <time>2022-05-14T12:07:58.082Z</time>
      </trkpt>
      <trkpt lat="41.67527" lon="19.70743">
        <ele>53.222218</ele>
        <time>2022-05-14T12:08:01.090Z</time>
      </trkpt>
      <trkpt lat="41.67539" lon="19.70752">
        <ele>53.507663</ele>
        <time>2022-05-14T12:08:04.094Z</time>
      </trkpt>
      <trkpt lat="41.67547" lon="19.70758">
        <ele>53.707232</ele>
        <time>2022-05-14T12:08:06.107Z</time>
      </trkpt>
      <trkpt lat="41.67555" lon="19.70765">
        <ele>53.9127</ele>
        <time>2022-05-14T12:08:08.077Z</time>
      </trkpt>
      <trkpt lat="41.67563" lon="19.70774">
        <ele>54.126584</ele>
        <time>2022-05-14T12:08:10.072Z</time>
      </trkpt>
      <trkpt lat="41.67571" lon="19.70782">
        <ele>54.336164</ele>
        <time>2022-05-14T12:08:12.107Z</time>
      </trkpt>
      <trkpt lat="41.6758" lon="19.70794">
        <ele>54.612043</ele>
        <time>2022-05-14T12:08:15.067Z</time>
      </trkpt>
      <trkpt lat="41.67587" lon="19.70803">
        <ele>54.805576</ele>
        <time>2022-05-14T12:08:17.108Z</time>
      </trkpt>
      <trkpt lat="41.67596" lon="19.70816">
        <ele>55.08971</ele>
        <time>2022-05-14T12:08:20.085Z</time>
      </trkpt>
      <trkpt lat="41.67603" lon="19.70825">
        <ele>55.283944</ele>
        <time>2022-05-14T12:08:22.083Z</time>
      </trkpt>
      <trkpt lat="41.67611" lon="19.70837">
        <ele>55.551332</ele>
        <time>2022-05-14T12:08:25.092Z</time>
      </trkpt>
      <trkpt lat="41.67619" lon="19.70848">
        <ele>55.791422</ele>
        <time>2022-05-14T12:08:28.072Z</time>
      </trkpt>
      <trkpt lat="41.67628" lon="19.70858">
        <ele>56.038453</ele>
        <time>2022-05-14T12:08:31.081Z</time>
      </trkpt>
      <trkpt lat="41.67637" lon="19.70869">
        <ele>56.290185</ele>
        <time>2022-05-14T12:08:34.095Z</time>
      </trkpt>
      <trkpt lat="41.67647" lon="19.7088">
        <ele>56.567964</ele>
        <time>2022-05-14T12:08:37.100Z</time>
      </trkpt>
      <trkpt lat="41.67658" lon="19.70889">
        <ele>56.847312</ele>
        <time>2022-05-14T12:08:40.105Z</time>
      </trkpt>
      <trkpt lat="41.67669" lon="19.70898">
        <ele>56.775335</ele>
        <time>2022-05-14T12:08:43.070Z</time>
      </trkpt>
      <trkpt lat="41.67679" lon="19.70906">
        <ele>56.235766</ele>
        <time>2022-05-14T12:08:46.065Z</time>
      </trkpt>
      <trkpt lat="41.6769" lon="19.70914">
        <ele>55.699075</ele>
        <time>2022-05-14T12:08:49.070Z</time>
      </trkpt>
      <trkpt lat="41.67698" lon="19.7092">
        <ele>55.292261</ele>
        <time>2022-05-14T12:08:51.083Z</time>
      </trkpt>
      <trkpt lat="41.67706" lon="19.70926">
        <ele>54.877391</ele>
        <time>2022-05-14T12:08:53.083Z</time>
      </trkpt>
      <trkpt lat="41.67714" lon="19.70932">
        <ele>54.470155</ele>
        <time>2022-05-14T12:08:55.078Z</time>
      </trkpt>
      <trkpt lat="41.67722" lon="19.70939">
        <ele>54.053989</ele>
        <time>2022-05-14T12:08:57.081Z</time>
      </trkpt>
      <trkpt lat="41.67733" lon="19.70949">
        <ele>53.455686</ele>
        <time>2022-05-14T12:09:00.091Z</time>
      </trkpt>
      <trkpt lat="41.67743" lon="19.70961">
        <ele>52.860833</ele>
        <time>2022-05-14T12:09:03.115Z</time>
      </trkpt>
      <trkpt lat="41.6775" lon="19.70969">
        <ele>52.443396</ele>
        <time>2022-05-14T12:09:05.105Z</time>
      </trkpt>
      <trkpt lat="41.6776" lon="19.70982">
        <ele>51.858112</ele>
        <time>2022-05-14T12:09:08.093Z</time>
      </trkpt>
      <trkpt lat="41.67766" lon="19.7099">
        <ele>51.443251</ele>
        <time>2022-05-14T12:09:10.085Z</time>
      </trkpt>
      <trkpt lat="41.67773" lon="19.71">
        <ele>50.999461</ele>
        <time>2022-05-14T12:09:12.075Z</time>
      </trkpt>
      <trkpt lat="41.6778" lon="19.71009">
        <ele>50.591445</ele>
        <time>2022-05-14T12:09:14.104Z</time>
      </trkpt>
      <trkpt lat="41.67786" lon="19.71018">
        <ele>50.194308</ele>
        <time>2022-05-14T12:09:16.071Z</time>
      </trkpt>
      <trkpt lat="41.67792" lon="19.71027">
        <ele>49.789842</ele>
        <time>2022-05-14T12:09:18.084Z</time>
      </trkpt>
      <trkpt lat="41.67801" lon="19.71041">
        <ele>49.1871</ele>
        <time>2022-05-14T12:09:21.105Z</time>
      </trkpt>
      <trkpt lat="41.67807" lon="19.7105">
        <ele>49.101251</ele>
        <time>2022-05-14T12:09:23.100Z</time>
      </trkpt>
      <trkpt lat="41.67813" lon="19.7106">
        <ele>49.223873</ele>
        <time>2022-05-14T12:09:25.093Z</time>
      </trkpt>
      <trkpt lat="41.67819" lon="19.71069">
        <ele>49.34224</ele>
        <time>2022-05-14T12:09:27.101Z</time>
      </trkpt>
      <trkpt lat="41.67828" lon="19.71082">
        <ele>49.508482</ele>
        <time>2022-05-14T12:09:30.075Z</time>
      </trkpt>
      <trkpt lat="41.67836" lon="19.71095">
        <ele>49.670069</ele>
        <time>2022-05-14T12:09:33.082Z</time>
      </trkpt>
      <trkpt lat="41.67845" lon="19.71107">
        <ele>49.830106</ele>
        <time>2022-05-14T12:09:36.078Z</time>
      </trkpt>
      <trkpt lat="41.67852" lon="19.71119">
        <ele>49.97502</ele>
        <time>2022-05-14T12:09:39.073Z</time>
      </trkpt>
      <trkpt lat="41.6786" lon="19.7113">
        <ele>50.122337</ele>
        <time>2022-05-14T12:09:42.076Z</time>
      </trkpt>
      <trkpt lat="41.67867" lon="19.71141">
        <ele>50.258213</ele>
        <time>2022-05-14T12:09:45.077Z</time>
      </trkpt>
      <trkpt lat="41.67875" lon="19.71153">
        <ele>50.406601</ele>
        <time>2022-05-14T12:09:48.081Z</time>
      </trkpt>
      <trkpt lat="41.67882" lon="19.71163">
        <ele>50.540221</ele>
        <time>2022-05-14T12:09:51.074Z</time>
      </trkpt>
      <trkpt lat="41.67889" lon="19.71174">
        <ele>50.677267</ele>
        <time>2022-05-14T12:09:54.080Z</time>
      </trkpt>
      <trkpt lat="41.67897" lon="19.71185">
        <ele>50.817297</ele>
        <time>2022-05-14T12:09:57.077Z</time>
      </trkpt>
      <trkpt lat="41.67904" lon="19.71195">
        <ele>50.951267</ele>
        <time>2022-05-14T12:10:00.083Z</time>
      </trkpt>
      <trkpt lat="41.67912" lon="19.71206">
        <ele>51.092847</ele>
        <time>2022-05-14T12:10:03.082Z</time>
      </trkpt>
      <trkpt lat="41.6792" lon="19.71215">
        <ele>51.2302</ele>
        <time>2022-05-14T12:10:06.086Z</time>
      </trkpt>
      <trkpt lat="41.67928" lon="19.71224">
        <ele>51.386908</ele>
        <time>2022-05-14T12:10:09.093Z</time>
      </trkpt>
      <trkpt lat="41.67937" lon="19.71233">
        <ele>51.57312</ele>
        <time>2022-05-14T12:10:12.132Z</time>
      </trkpt>
      <trkpt lat="41.67946" lon="19.71241">
        <ele>51.74379</ele>
        <time>2022-05-14T12:10:15.084Z</time>
      </trkpt>
      <trkpt lat="41.67954" lon="19.7125">
        <ele>51.922348</ele>
        <time>2022-05-14T12:10:18.083Z</time>
      </trkpt>
      <trkpt lat="41.67964" lon="19.71255">
        <ele>52.108374</ele>
        <time>2022-05-14T12:10:21.072Z</time>
      </trkpt>
      <trkpt lat="41.67976" lon="19.71257">
        <ele>52.301573</ele>
        <time>2022-05-14T12:10:24.090Z</time>
      </trkpt>
      <trkpt lat="41.67985" lon="19.71254">
        <ele>52.456535</ele>
        <time>2022-05-14T12:10:26.065Z</time>
      </trkpt>
      <trkpt lat="41.67993" lon="19.7125">
        <ele>52.611315</ele>
        <time>2022-05-14T12:10:28.105Z</time>
      </trkpt>
      <trkpt lat="41.68001" lon="19.71244">
        <ele>52.766264</ele>
        <time>2022-05-14T12:10:30.075Z</time>
      </trkpt>
      <trkpt lat="41.6801" lon="19.71237">
        <ele>52.933099</ele>
        <time>2022-05-14T12:10:32.148Z</time>
      </trkpt>
      <trkpt lat="41.68019" lon="19.71231">
        <ele>53.102538</ele>
        <time>2022-05-14T12:10:34.081Z</time>
      </trkpt>
      <trkpt lat="41.68028" lon="19.71224">
        <ele>53.271086</ele>
        <time>2022-05-14T12:10:36.085Z</time>
      </trkpt>
      <trkpt lat="41.68036" lon="19.71218">
        <ele>53.435836</ele>
        <time>2022-05-14T12:10:38.081Z</time>
      </trkpt>
      <trkpt lat="41.68045" lon="19.71212">
        <ele>53.594184</ele>
        <time>2022-05-14T12:10:40.079Z</time>
      </trkpt>
      <trkpt lat="41.68052" lon="19.71206">
        <ele>53.747048</ele>
        <time>2022-05-14T12:10:42.081Z</time>
      </trkpt>
      <trkpt lat="41.68064" lon="19.71198">
        <ele>53.960417</ele>
        <time>2022-05-14T12:10:45.096Z</time>
      </trkpt>
      <trkpt lat="41.68074" lon="19.71191">
        <ele>54.160714</ele>
        <time>2022-05-14T12:10:48.065Z</time>
      </trkpt>
      <trkpt lat="41.68084" lon="19.71184">
        <ele>54.35104</ele>
        <time>2022-05-14T12:10:51.098Z</time>
      </trkpt>
      <trkpt lat="41.68093" lon="19.71177">
        <ele>54.667412</ele>
        <time>2022-05-14T12:10:54.087Z</time>
      </trkpt>
      <trkpt lat="41.68102" lon="19.71171">
        <ele>54.943937</ele>
        <time>2022-05-14T12:10:57.091Z</time>
      </trkpt>
      <trkpt lat="41.68112" lon="19.71164">
        <ele>55.283582</ele>
        <time>2022-05-14T12:11:01.089Z</time>
      </trkpt>
      <trkpt lat="41.68122" lon="19.71156">
        <ele>55.632917</ele>
        <time>2022-05-14T12:11:05.107Z</time>
      </trkpt>
      <trkpt lat="41.68132" lon="19.71148">
        <ele>55.977782</ele>
        <time>2022-05-14T12:11:09.079Z</time>
      </trkpt>
      <trkpt lat="41.68141" lon="19.7114">
        <ele>56.311066</ele>
        <time>2022-05-14T12:11:13.110Z</time>
      </trkpt>
      <trkpt lat="41.68149" lon="19.71133">
        <ele>56.595086</ele>
        <time>2022-05-14T12:11:17.052Z</time>
      </trkpt>
      <trkpt lat="41.68159" lon="19.71124">
        <ele>56.928387</ele>
        <time>2022-05-14T12:11:21.068Z</time>
      </trkpt>
      <trkpt lat="41.68166" lon="19.71117">
        <ele>57.215157</ele>
        <time>2022-05-14T12:11:24.066Z</time>
      </trkpt>
      <trkpt lat="41.68174" lon="19.71108">
        <ele>57.50907</ele>
        <time>2022-05-14T12:11:27.070Z</time>
      </trkpt>
      <trkpt lat="41.68182" lon="19.71099">
        <ele>57.816016</ele>
        <time>2022-05-14T12:11:30.097Z</time>
      </trkpt>
      <trkpt lat="41.6819" lon="19.7109">
        <ele>58.122162</ele>
        <time>2022-05-14T12:11:33.091Z</time>
      </trkpt>
      <trkpt lat="41.68198" lon="19.71081">
        <ele>58.444706</ele>
        <time>2022-05-14T12:11:36.089Z</time>
      </trkpt>
      <trkpt lat="41.68206" lon="19.71071">
        <ele>58.769962</ele>
        <time>2022-05-14T12:11:39.086Z</time>
      </trkpt>
      <trkpt lat="41.68215" lon="19.71061">
        <ele>59.109385</ele>
        <time>2022-05-14T12:11:42.092Z</time>
      </trkpt>
      <trkpt lat="41.68224" lon="19.71049">
        <ele>59.473266</ele>
        <time>2022-05-14T12:11:45.077Z</time>
      </trkpt>
      <trkpt lat="41.6823" lon="19.7104">
        <ele>59.655882</ele>
        <time>2022-05-14T12:11:47.126Z</time>
      </trkpt>
      <trkpt lat="41.68237" lon="19.71031">
        <ele>59.628198</ele>
        <time>2022-05-14T12:11:49.072Z</time>
      </trkpt>
      <trkpt lat="41.68244" lon="19.71022">
        <ele>59.600053</ele>
        <time>2022-05-14T12:11:51.099Z</time>
      </trkpt>
      <trkpt lat="41.68252" lon="19.71011">
        <ele>59.564655</ele>
        <time>2022-05-14T12:11:54.095Z</time>
      </trkpt>
      <trkpt lat="41.6826" lon="19.71001">
        <ele>59.533595</ele>
        <time>2022-05-14T12:11:56.102Z</time>
      </trkpt>
      <trkpt lat="41.68269" lon="19.70989">
        <ele>59.498499</ele>
        <time>2022-05-14T12:11:58.105Z</time>
      </trkpt>
      <trkpt lat="41.68278" lon="19.70979">
        <ele>59.464218</ele>
        <time>2022-05-14T12:12:00.096Z</time>
      </trkpt>
      <trkpt lat="41.68286" lon="19.70968">
        <ele>59.430289</ele>
        <time>2022-05-14T12:12:02.075Z</time>
      </trkpt>
      <trkpt lat="41.68294" lon="19.70958">
        <ele>59.398824</ele>
        <time>2022-05-14T12:12:04.103Z</time>
      </trkpt>
      <trkpt lat="41.68301" lon="19.70947">
        <ele>59.368607</ele>
        <time>2022-05-14T12:12:06.088Z</time>
      </trkpt>
      <trkpt lat="41.68308" lon="19.70938">
        <ele>59.339301</ele>
        <time>2022-05-14T12:12:08.086Z</time>
      </trkpt>
      <trkpt lat="41.68315" lon="19.70929">
        <ele>59.31122</ele>
        <time>2022-05-14T12:12:10.097Z</time>
      </trkpt>
      <trkpt lat="41.68322" lon="19.70919">
        <ele>59.282577</ele>
        <time>2022-05-14T12:12:12.078Z</time>
      </trkpt>
      <trkpt lat="41.68328" lon="19.70909">
        <ele>59.253686</ele>
        <time>2022-05-14T12:12:14.085Z</time>
      </trkpt>
      <trkpt lat="41.68336" lon="19.70901">
        <ele>59.224567</ele>
        <time>2022-05-14T12:12:16.095Z</time>
      </trkpt>
      <trkpt lat="41.68344" lon="19.70893">
        <ele>59.195813</ele>
        <time>2022-05-14T12:12:18.099Z</time>
      </trkpt>
      <trkpt lat="41.68352" lon="19.70884">
        <ele>59.167355</ele>
        <time>2022-05-14T12:12:20.081Z</time>
      </trkpt>
      <trkpt lat="41.68358" lon="19.70876">
        <ele>59.129819</ele>
        <time>2022-05-14T12:12:22.062Z</time>
      </trkpt>
      <trkpt lat="41.68364" lon="19.70866">
        <ele>58.993703</ele>
        <time>2022-05-14T12:12:24.087Z</time>
      </trkpt>
      <trkpt lat="41.68373" lon="19.70854">
        <ele>58.802467</ele>
        <time>2022-05-14T12:12:27.111Z</time>
      </trkpt>
      <trkpt lat="41.68382" lon="19.70844">
        <ele>58.628296</ele>
        <time>2022-05-14T12:12:30.083Z</time>
      </trkpt>
      <trkpt lat="41.6839" lon="19.70834">
        <ele>58.460377</ele>
        <time>2022-05-14T12:12:33.061Z</time>
      </trkpt>
      <trkpt lat="41.68398" lon="19.70824">
        <ele>58.289003</ele>
        <time>2022-05-14T12:12:36.093Z</time>
      </trkpt>
      <trkpt lat="41.68407" lon="19.70813">
        <ele>58.113502</ele>
        <time>2022-05-14T12:12:39.068Z</time>
      </trkpt>
      <trkpt lat="41.68416" lon="19.70802">
        <ele>57.932298</ele>
        <time>2022-05-14T12:12:42.084Z</time>
      </trkpt>
      <trkpt lat="41.68423" lon="19.70793">
        <ele>57.787365</ele>
        <time>2022-05-14T12:12:46.094Z</time>
      </trkpt>
      <trkpt lat="41.6843" lon="19.70784">
        <ele>57.646925</ele>
        <time>2022-05-14T12:12:51.088Z</time>
      </trkpt>
      <trkpt lat="41.68437" lon="19.70773">
        <ele>57.480083</ele>
        <time>2022-05-14T12:12:55.106Z</time>
      </trkpt>
      <trkpt lat="41.68444" lon="19.70764">
        <ele>57.333598</ele>
        <time>2022-05-14T12:12:58.081Z</time>
      </trkpt>
      <trkpt lat="41.6845" lon="19.70753">
        <ele>57.177997</ele>
        <time>2022-05-14T12:13:01.094Z</time>
      </trkpt>
      <trkpt lat="41.68459" lon="19.70744">
        <ele>57.007661</ele>
        <time>2022-05-14T12:13:04.090Z</time>
      </trkpt>
      <trkpt lat="41.68466" lon="19.70732">
        <ele>56.834884</ele>
        <time>2022-05-14T12:13:07.096Z</time>
      </trkpt>
      <trkpt lat="41.68476" lon="19.70722">
        <ele>56.659547</ele>
        <time>2022-05-14T12:13:10.074Z</time>
      </trkpt>
      <trkpt lat="41.68484" lon="19.70713">
        <ele>56.501941</ele>
        <time>2022-05-14T12:13:14.096Z</time>
      </trkpt>
      <trkpt lat="41.68491" lon="19.70704">
        <ele>56.504628</ele>
        <time>2022-05-14T12:13:19.072Z</time>
      </trkpt>
      <trkpt lat="41.68499" lon="19.70692">
        <ele>56.629395</ele>
        <time>2022-05-14T12:13:23.082Z</time>
      </trkpt>
      <trkpt lat="41.68506" lon="19.70683">
        <ele>56.735543</ele>
        <time>2022-05-14T12:13:26.080Z</time>
      </trkpt>
      <trkpt lat="41.68514" lon="19.70674">
        <ele>56.846501</ele>
        <time>2022-05-14T12:13:29.095Z</time>
      </trkpt>
      <trkpt lat="41.68522" lon="19.70664">
        <ele>56.961078</ele>
        <time>2022-05-14T12:13:32.095Z</time>
      </trkpt>
      <trkpt lat="41.68531" lon="19.70654">
        <ele>57.078907</ele>
        <time>2022-05-14T12:13:35.076Z</time>
      </trkpt>
      <trkpt lat="41.68538" lon="19.70643">
        <ele>57.192743</ele>
        <time>2022-05-14T12:13:38.095Z</time>
      </trkpt>
      <trkpt lat="41.68547" lon="19.70633">
        <ele>57.311601</ele>
        <time>2022-05-14T12:13:41.083Z</time>
      </trkpt>
      <trkpt lat="41.68554" lon="19.70623">
        <ele>57.425436</ele>
        <time>2022-05-14T12:13:44.070Z</time>
      </trkpt>
      <trkpt lat="41.68562" lon="19.70613">
        <ele>57.534922</ele>
        <time>2022-05-14T12:13:48.083Z</time>
      </trkpt>
      <trkpt lat="41.6857" lon="19.70603">
        <ele>57.649878</ele>
        <time>2022-05-14T12:13:52.073Z</time>
      </trkpt>
      <trkpt lat="41.68577" lon="19.70595">
        <ele>57.748047</ele>
        <time>2022-05-14T12:13:56.112Z</time>
      </trkpt>
      <trkpt lat="41.68585" lon="19.70584">
        <ele>57.868689</ele>
        <time>2022-05-14T12:14:01.082Z</time>
      </trkpt>
      <trkpt lat="41.68593" lon="19.70572">
        <ele>57.99362</ele>
        <time>2022-05-14T12:14:05.097Z</time>
      </trkpt>
      <trkpt lat="41.68601" lon="19.70564">
        <ele>58.099499</ele>
        <time>2022-05-14T12:14:08.084Z</time>
      </trkpt>
      <trkpt lat="41.68609" lon="19.70554">
        <ele>58.208775</ele>
        <time>2022-05-14T12:14:11.104Z</time>
      </trkpt>
      <trkpt lat="41.68615" lon="19.70544">
        <ele>58.314879</ele>
        <time>2022-05-14T12:14:14.093Z</time>
      </trkpt>
      <trkpt lat="41.68623" lon="19.70533">
        <ele>58.492828</ele>
        <time>2022-05-14T12:14:17.098Z</time>
      </trkpt>
      <trkpt lat="41.68631" lon="19.70524">
        <ele>58.678273</ele>
        <time>2022-05-14T12:14:20.089Z</time>
      </trkpt>
      <trkpt lat="41.68639" lon="19.70514">
        <ele>58.869606</ele>
        <time>2022-05-14T12:14:23.095Z</time>
      </trkpt>
      <trkpt lat="41.68646" lon="19.70503">
        <ele>59.053874</ele>
        <time>2022-05-14T12:14:26.081Z</time>
      </trkpt>
      <trkpt lat="41.68654" lon="19.70494">
        <ele>59.220795</ele>
        <time>2022-05-14T12:14:31.087Z</time>
      </trkpt>
      <trkpt lat="41.68662" lon="19.70483">
        <ele>59.409638</ele>
        <time>2022-05-14T12:14:36.104Z</time>
      </trkpt>
      <trkpt lat="41.6867" lon="19.70473">
        <ele>59.598125</ele>
        <time>2022-05-14T12:14:40.114Z</time>
      </trkpt>
      <trkpt lat="41.68677" lon="19.70463">
        <ele>59.778056</ele>
        <time>2022-05-14T12:14:44.078Z</time>
      </trkpt>
      <trkpt lat="41.68684" lon="19.70455">
        <ele>59.933938</ele>
        <time>2022-05-14T12:14:47.079Z</time>
      </trkpt>
      <trkpt lat="41.68691" lon="19.70446">
        <ele>60.088828</ele>
        <time>2022-05-14T12:14:50.074Z</time>
      </trkpt>
      <trkpt lat="41.68697" lon="19.70438">
        <ele>60.242531</ele>
        <time>2022-05-14T12:14:53.062Z</time>
      </trkpt>
      <trkpt lat="41.68705" lon="19.70426">
        <ele>60.445956</ele>
        <time>2022-05-14T12:14:57.101Z</time>
      </trkpt>
      <trkpt lat="41.68712" lon="19.70418">
        <ele>60.601838</ele>
        <time>2022-05-14T12:15:00.095Z</time>
      </trkpt>
      <trkpt lat="41.6872" lon="19.70407">
        <ele>60.794531</ele>
        <time>2022-05-14T12:15:05.084Z</time>
      </trkpt>
      <trkpt lat="41.68728" lon="19.70397">
        <ele>60.98367</ele>
        <time>2022-05-14T12:15:09.104Z</time>
      </trkpt>
      <trkpt lat="41.68735" lon="19.70388">
        <ele>61.144848</ele>
        <time>2022-05-14T12:15:12.093Z</time>
      </trkpt>
      <trkpt lat="41.68742" lon="19.70378">
        <ele>61.317734</ele>
        <time>2022-05-14T12:15:15.072Z</time>
      </trkpt>
      <trkpt lat="41.68749" lon="19.70368">
        <ele>61.302183</ele>
        <time>2022-05-14T12:15:18.111Z</time>
      </trkpt>
      <trkpt lat="41.68756" lon="19.70359">
        <ele>61.185326</ele>
        <time>2022-05-14T12:15:21.076Z</time>
      </trkpt>
      <trkpt lat="41.68763" lon="19.70349">
        <ele>61.065581</ele>
        <time>2022-05-14T12:15:24.086Z</time>
      </trkpt>
      <trkpt lat="41.6877" lon="19.7034">
        <ele>60.954277</ele>
        <time>2022-05-14T12:15:27.099Z</time>
      </trkpt>
      <trkpt lat="41.68777" lon="19.70331">
        <ele>60.83863</ele>
        <time>2022-05-14T12:15:30.103Z</time>
      </trkpt>
      <trkpt lat="41.68785" lon="19.70322">
        <ele>60.719116</ele>
        <time>2022-05-14T12:15:33.094Z</time>
      </trkpt>
      <trkpt lat="41.68792" lon="19.70312">
        <ele>60.595873</ele>
        <time>2022-05-14T12:15:36.064Z</time>
      </trkpt>
      <trkpt lat="41.68799" lon="19.70302">
        <ele>60.475953</ele>
        <time>2022-05-14T12:15:39.084Z</time>
      </trkpt>
      <trkpt lat="41.68806" lon="19.70292">
        <ele>60.360696</ele>
        <time>2022-05-14T12:15:42.082Z</time>
      </trkpt>
      <trkpt lat="41.68814" lon="19.70283">
        <ele>60.23725</ele>
        <time>2022-05-14T12:15:45.080Z</time>
      </trkpt>
      <trkpt lat="41.68821" lon="19.70273">
        <ele>60.114641</ele>
        <time>2022-05-14T12:15:48.087Z</time>
      </trkpt>
      <trkpt lat="41.6883" lon="19.70264">
        <ele>59.99152</ele>
        <time>2022-05-14T12:15:51.078Z</time>
      </trkpt>
      <trkpt lat="41.68836" lon="19.70255">
        <ele>59.877986</ele>
        <time>2022-05-14T12:15:54.083Z</time>
      </trkpt>
      <trkpt lat="41.68843" lon="19.70245">
        <ele>59.755857</ele>
        <time>2022-05-14T12:15:57.094Z</time>
      </trkpt>
      <trkpt lat="41.68851" lon="19.70234">
        <ele>59.628789</ele>
        <time>2022-05-14T12:16:00.082Z</time>
      </trkpt>
      <trkpt lat="41.68859" lon="19.70224">
        <ele>59.501207</ele>
        <time>2022-05-14T12:16:03.098Z</time>
      </trkpt>
      <trkpt lat="41.68866" lon="19.70215">
        <ele>59.384708</ele>
        <time>2022-05-14T12:16:07.072Z</time>
      </trkpt>
      <trkpt lat="41.68873" lon="19.70205">
        <ele>59.268145</ele>
        <time>2022-05-14T12:16:11.094Z</time>
      </trkpt>
      <trkpt lat="41.68881" lon="19.70196">
        <ele>59.183534</ele>
        <time>2022-05-14T12:16:14.092Z</time>
      </trkpt>
      <trkpt lat="41.68888" lon="19.70187">
        <ele>59.096255</ele>
        <time>2022-05-14T12:16:17.101Z</time>
      </trkpt>
      <trkpt lat="41.68896" lon="19.70177">
        <ele>59.006432</ele>
        <time>2022-05-14T12:16:20.087Z</time>
      </trkpt>
      <trkpt lat="41.68904" lon="19.70167">
        <ele>58.915934</ele>
        <time>2022-05-14T12:16:23.094Z</time>
      </trkpt>
      <trkpt lat="41.68911" lon="19.70157">
        <ele>58.824717</ele>
        <time>2022-05-14T12:16:26.091Z</time>
      </trkpt>
      <trkpt lat="41.68919" lon="19.70147">
        <ele>58.733947</ele>
        <time>2022-05-14T12:16:29.069Z</time>
      </trkpt>
      <trkpt lat="41.68927" lon="19.70137">
        <ele>58.640624</ele>
        <time>2022-05-14T12:16:32.084Z</time>
      </trkpt>
      <trkpt lat="41.68934" lon="19.70126">
        <ele>58.547845</ele>
        <time>2022-05-14T12:16:35.093Z</time>
      </trkpt>
      <trkpt lat="41.68942" lon="19.70116">
        <ele>58.45075</ele>
        <time>2022-05-14T12:16:38.067Z</time>
      </trkpt>
      <trkpt lat="41.68951" lon="19.70105">
        <ele>58.348182</ele>
        <time>2022-05-14T12:16:41.093Z</time>
      </trkpt>
      <trkpt lat="41.6896" lon="19.70094">
        <ele>58.243514</ele>
        <time>2022-05-14T12:16:44.090Z</time>
      </trkpt>
      <trkpt lat="41.68969" lon="19.70083">
        <ele>58.139469</ele>
        <time>2022-05-14T12:16:47.085Z</time>
      </trkpt>
      <trkpt lat="41.68979" lon="19.70071">
        <ele>58.030139</ele>
        <time>2022-05-14T12:16:50.091Z</time>
      </trkpt>
      <trkpt lat="41.68988" lon="19.70059">
        <ele>57.916771</ele>
        <time>2022-05-14T12:16:53.094Z</time>
      </trkpt>
      <trkpt lat="41.68998" lon="19.70047">
        <ele>57.804968</ele>
        <time>2022-05-14T12:16:56.102Z</time>
      </trkpt>
      <trkpt lat="41.69007" lon="19.70034">
        <ele>57.728232</ele>
        <time>2022-05-14T12:16:59.104Z</time>
      </trkpt>
      <trkpt lat="41.69016" lon="19.70023">
        <ele>57.693336</ele>
        <time>2022-05-14T12:17:02.078Z</time>
      </trkpt>
      <trkpt lat="41.69025" lon="19.70012">
        <ele>57.658386</ele>
        <time>2022-05-14T12:17:05.100Z</time>
      </trkpt>
      <trkpt lat="41.69034" lon="19.70001">
        <ele>57.623549</ele>
        <time>2022-05-14T12:17:08.078Z</time>
      </trkpt>
      <trkpt lat="41.69042" lon="19.6999">
        <ele>57.589273</ele>
        <time>2022-05-14T12:17:11.092Z</time>
      </trkpt>
      <trkpt lat="41.69051" lon="19.69978">
        <ele>57.553681</ele>
        <time>2022-05-14T12:17:14.101Z</time>
      </trkpt>
      <trkpt lat="41.6906" lon="19.69966">
        <ele>57.518038</ele>
        <time>2022-05-14T12:17:17.092Z</time>
      </trkpt>
      <trkpt lat="41.69069" lon="19.69955">
        <ele>57.480515</ele>
        <time>2022-05-14T12:17:20.079Z</time>
      </trkpt>
      <trkpt lat="41.69079" lon="19.69942">
        <ele>57.442028</ele>
        <time>2022-05-14T12:17:23.079Z</time>
      </trkpt>
      <trkpt lat="41.69085" lon="19.69933">
        <ele>57.416064</ele>
        <time>2022-05-14T12:17:25.068Z</time>
      </trkpt>
      <trkpt lat="41.69092" lon="19.69924">
        <ele>57.388681</ele>
        <time>2022-05-14T12:17:27.071Z</time>
      </trkpt>
      <trkpt lat="41.69099" lon="19.69916">
        <ele>57.361093</ele>
        <time>2022-05-14T12:17:29.093Z</time>
      </trkpt>
      <trkpt lat="41.69106" lon="19.69908">
        <ele>57.334791</ele>
        <time>2022-05-14T12:17:31.085Z</time>
      </trkpt>
      <trkpt lat="41.69112" lon="19.69899">
        <ele>57.308223</ele>
        <time>2022-05-14T12:17:33.075Z</time>
      </trkpt>
      <trkpt lat="41.69119" lon="19.6989">
        <ele>57.280946</ele>
        <time>2022-05-14T12:17:35.122Z</time>
      </trkpt>
      <trkpt lat="41.69125" lon="19.69881">
        <ele>57.254477</ele>
        <time>2022-05-14T12:17:37.066Z</time>
      </trkpt>
      <trkpt lat="41.69132" lon="19.69872">
        <ele>57.226843</ele>
        <time>2022-05-14T12:17:39.071Z</time>
      </trkpt>
      <trkpt lat="41.69139" lon="19.69863">
        <ele>57.088946</ele>
        <time>2022-05-14T12:17:41.110Z</time>
      </trkpt>
      <trkpt lat="41.69146" lon="19.69854">
        <ele>56.959862</ele>
        <time>2022-05-14T12:17:43.080Z</time>
      </trkpt>
      <trkpt lat="41.69153" lon="19.69845">
        <ele>56.826217</ele>
        <time>2022-05-14T12:17:45.074Z</time>
      </trkpt>
      <trkpt lat="41.6916" lon="19.69837">
        <ele>56.697534</ele>
        <time>2022-05-14T12:17:47.059Z</time>
      </trkpt>
      <trkpt lat="41.69167" lon="19.69828">
        <ele>56.566451</ele>
        <time>2022-05-14T12:17:49.067Z</time>
      </trkpt>
      <trkpt lat="41.69174" lon="19.69819">
        <ele>56.431558</ele>
        <time>2022-05-14T12:17:51.105Z</time>
      </trkpt>
      <trkpt lat="41.69181" lon="19.6981">
        <ele>56.299073</ele>
        <time>2022-05-14T12:17:53.095Z</time>
      </trkpt>
      <trkpt lat="41.69188" lon="19.69801">
        <ele>56.16288</ele>
        <time>2022-05-14T12:17:55.066Z</time>
      </trkpt>
      <trkpt lat="41.69195" lon="19.69792">
        <ele>56.028751</ele>
        <time>2022-05-14T12:17:57.076Z</time>
      </trkpt>
      <trkpt lat="41.69203" lon="19.69783">
        <ele>55.895267</ele>
        <time>2022-05-14T12:17:59.071Z</time>
      </trkpt>
      <trkpt lat="41.6921" lon="19.69775">
        <ele>55.761138</ele>
        <time>2022-05-14T12:18:01.064Z</time>
      </trkpt>
      <trkpt lat="41.69217" lon="19.69766">
        <ele>55.628932</ele>
        <time>2022-05-14T12:18:03.096Z</time>
      </trkpt>
      <trkpt lat="41.69224" lon="19.69756">
        <ele>55.493328</ele>
        <time>2022-05-14T12:18:05.078Z</time>
      </trkpt>
      <trkpt lat="41.69231" lon="19.69747">
        <ele>55.357441</ele>
        <time>2022-05-14T12:18:07.059Z</time>
      </trkpt>
      <trkpt lat="41.69238" lon="19.69738">
        <ele>55.223645</ele>
        <time>2022-05-14T12:18:09.092Z</time>
      </trkpt>
      <trkpt lat="41.69245" lon="19.6973">
        <ele>55.09597</ele>
        <time>2022-05-14T12:18:11.085Z</time>
      </trkpt>
      <trkpt lat="41.69252" lon="19.69721">
        <ele>54.964744</ele>
        <time>2022-05-14T12:18:13.063Z</time>
      </trkpt>
      <trkpt lat="41.69259" lon="19.69712">
        <ele>54.835215</ele>
        <time>2022-05-14T12:18:15.090Z</time>
      </trkpt>
      <trkpt lat="41.69268" lon="19.697">
        <ele>54.73757</ele>
        <time>2022-05-14T12:18:18.079Z</time>
      </trkpt>
      <trkpt lat="41.69278" lon="19.69688">
        <ele>54.700877</ele>
        <time>2022-05-14T12:18:21.099Z</time>
      </trkpt>
      <trkpt lat="41.69285" lon="19.69681">
        <ele>54.675514</ele>
        <time>2022-05-14T12:18:23.076Z</time>
      </trkpt>
      <trkpt lat="41.69296" lon="19.6967">
        <ele>54.637901</ele>
        <time>2022-05-14T12:18:26.089Z</time>
      </trkpt>
      <trkpt lat="41.69304" lon="19.69663">
        <ele>54.612075</ele>
        <time>2022-05-14T12:18:28.066Z</time>
      </trkpt>
      <trkpt lat="41.69315" lon="19.69654">
        <ele>54.574749</ele>
        <time>2022-05-14T12:18:31.095Z</time>
      </trkpt>
      <trkpt lat="41.69327" lon="19.69645">
        <ele>54.537109</ele>
        <time>2022-05-14T12:18:34.079Z</time>
      </trkpt>
      <trkpt lat="41.69335" lon="19.69639">
        <ele>54.511819</ele>
        <time>2022-05-14T12:18:36.092Z</time>
      </trkpt>
      <trkpt lat="41.69342" lon="19.69633">
        <ele>54.486391</ele>
        <time>2022-05-14T12:18:38.086Z</time>
      </trkpt>
      <trkpt lat="41.6935" lon="19.69626">
        <ele>54.460559</ele>
        <time>2022-05-14T12:18:40.078Z</time>
      </trkpt>
      <trkpt lat="41.69361" lon="19.69618">
        <ele>54.425244</ele>
        <time>2022-05-14T12:18:43.074Z</time>
      </trkpt>
      <trkpt lat="41.69371" lon="19.69608">
        <ele>54.390346</ele>
        <time>2022-05-14T12:18:46.131Z</time>
      </trkpt>
      <trkpt lat="41.69382" lon="19.69599">
        <ele>54.353699</ele>
        <time>2022-05-14T12:18:49.072Z</time>
      </trkpt>
      <trkpt lat="41.6939" lon="19.69593">
        <ele>54.328326</ele>
        <time>2022-05-14T12:18:51.091Z</time>
      </trkpt>
      <trkpt lat="41.69399" lon="19.69585">
        <ele>54.299819</ele>
        <time>2022-05-14T12:18:53.084Z</time>
      </trkpt>
      <trkpt lat="41.69408" lon="19.69578">
        <ele>54.269949</ele>
        <time>2022-05-14T12:18:55.082Z</time>
      </trkpt>
      <trkpt lat="41.69417" lon="19.69571">
        <ele>54.113484</ele>
        <time>2022-05-14T12:18:57.122Z</time>
      </trkpt>
      <trkpt lat="41.69427" lon="19.69565">
        <ele>53.82912</ele>
        <time>2022-05-14T12:18:59.091Z</time>
      </trkpt>
      <trkpt lat="41.69437" lon="19.69559">
        <ele>53.541202</ele>
        <time>2022-05-14T12:19:01.092Z</time>
      </trkpt>
      <trkpt lat="41.69446" lon="19.69554">
        <ele>53.266051</ele>
        <time>2022-05-14T12:19:03.107Z</time>
      </trkpt>
      <trkpt lat="41.69456" lon="19.69548">
        <ele>52.987827</ele>
        <time>2022-05-14T12:19:05.091Z</time>
      </trkpt>
      <trkpt lat="41.69466" lon="19.69542">
        <ele>52.680367</ele>
        <time>2022-05-14T12:19:07.087Z</time>
      </trkpt>
      <trkpt lat="41.69477" lon="19.69536">
        <ele>52.379499</ele>
        <time>2022-05-14T12:19:09.086Z</time>
      </trkpt>
      <trkpt lat="41.69487" lon="19.69529">
        <ele>52.064589</ele>
        <time>2022-05-14T12:19:11.092Z</time>
      </trkpt>
      <trkpt lat="41.69497" lon="19.69522">
        <ele>51.766198</ele>
        <time>2022-05-14T12:19:13.081Z</time>
      </trkpt>
      <trkpt lat="41.69507" lon="19.69516">
        <ele>51.479056</ele>
        <time>2022-05-14T12:19:15.134Z</time>
      </trkpt>
      <trkpt lat="41.69517" lon="19.6951">
        <ele>51.200034</ele>
        <time>2022-05-14T12:19:17.092Z</time>
      </trkpt>
      <trkpt lat="41.69526" lon="19.69505">
        <ele>50.92315</ele>
        <time>2022-05-14T12:19:19.110Z</time>
      </trkpt>
      <trkpt lat="41.69535" lon="19.69498">
        <ele>50.651459</ele>
        <time>2022-05-14T12:19:21.095Z</time>
      </trkpt>
      <trkpt lat="41.69544" lon="19.69493">
        <ele>50.407783</ele>
        <time>2022-05-14T12:19:23.077Z</time>
      </trkpt>
      <trkpt lat="41.69552" lon="19.69488">
        <ele>50.167556</ele>
        <time>2022-05-14T12:19:25.073Z</time>
      </trkpt>
      <trkpt lat="41.69563" lon="19.69481">
        <ele>49.833447</ele>
        <time>2022-05-14T12:19:28.096Z</time>
      </trkpt>
      <trkpt lat="41.69575" lon="19.69475">
        <ele>49.501011</ele>
        <time>2022-05-14T12:19:31.090Z</time>
      </trkpt>
      <trkpt lat="41.69586" lon="19.69469">
        <ele>49.760671</ele>
        <time>2022-05-14T12:19:34.082Z</time>
      </trkpt>
      <trkpt lat="41.69597" lon="19.69463">
        <ele>50.051972</ele>
        <time>2022-05-14T12:19:37.104Z</time>
      </trkpt>
      <trkpt lat="41.69607" lon="19.69458">
        <ele>50.328387</ele>
        <time>2022-05-14T12:19:40.099Z</time>
      </trkpt>
      <trkpt lat="41.69617" lon="19.69453">
        <ele>50.620384</ele>
        <time>2022-05-14T12:19:43.080Z</time>
      </trkpt>
      <trkpt lat="41.69629" lon="19.69448">
        <ele>50.933951</ele>
        <time>2022-05-14T12:19:46.097Z</time>
      </trkpt>
      <trkpt lat="41.6964" lon="19.69443">
        <ele>51.23771</ele>
        <time>2022-05-14T12:19:49.092Z</time>
      </trkpt>
      <trkpt lat="41.69651" lon="19.69437">
        <ele>51.529011</ele>
        <time>2022-05-14T12:19:52.074Z</time>
      </trkpt>
      <trkpt lat="41.69661" lon="19.69433">
        <ele>51.807365</ele>
        <time>2022-05-14T12:19:55.083Z</time>
      </trkpt>
      <trkpt lat="41.69671" lon="19.69429">
        <ele>52.059482</ele>
        <time>2022-05-14T12:19:58.096Z</time>
      </trkpt>
      <trkpt lat="41.6968" lon="19.69424">
        <ele>52.317274</ele>
        <time>2022-05-14T12:20:01.071Z</time>
      </trkpt>
      <trkpt lat="41.69691" lon="19.69418">
        <ele>52.609979</ele>
        <time>2022-05-14T12:20:04.131Z</time>
      </trkpt>
      <trkpt lat="41.69701" lon="19.69413">
        <ele>52.90914</ele>
        <time>2022-05-14T12:20:07.109Z</time>
      </trkpt>
      <trkpt lat="41.69713" lon="19.69407">
        <ele>53.214174</ele>
        <time>2022-05-14T12:20:10.079Z</time>
      </trkpt>
      <trkpt lat="41.69724" lon="19.69401">
        <ele>53.52667</ele>
        <time>2022-05-14T12:20:13.077Z</time>
      </trkpt>
      <trkpt lat="41.69736" lon="19.69397">
        <ele>53.838357</ele>
        <time>2022-05-14T12:20:16.078Z</time>
      </trkpt>
      <trkpt lat="41.69747" lon="19.6939">
        <ele>54.063065</ele>
        <time>2022-05-14T12:20:19.063Z</time>
      </trkpt>
      <trkpt lat="41.6976" lon="19.69384">
        <ele>53.966969</ele>
        <time>2022-05-14T12:20:22.083Z</time>
      </trkpt>
      <trkpt lat="41.69772" lon="19.69379">
        <ele>53.872804</ele>
        <time>2022-05-14T12:20:25.103Z</time>
      </trkpt>
      <trkpt lat="41.69783" lon="19.69373">
        <ele>53.781936</ele>
        <time>2022-05-14T12:20:28.084Z</time>
      </trkpt>
      <trkpt lat="41.69796" lon="19.69368">
        <ele>53.687412</ele>
        <time>2022-05-14T12:20:31.084Z</time>
      </trkpt>
      <trkpt lat="41.69804" lon="19.69364">
        <ele>53.620777</ele>
        <time>2022-05-14T12:20:33.077Z</time>
      </trkpt>
      <trkpt lat="41.69817" lon="19.69359">
        <ele>53.522944</ele>
        <time>2022-05-14T12:20:36.085Z</time>
      </trkpt>
      <trkpt lat="41.69829" lon="19.69354">
        <ele>53.427353</ele>
        <time>2022-05-14T12:20:39.095Z</time>
      </trkpt>
      <trkpt lat="41.69842" lon="19.69348">
        <ele>53.331072</ele>
        <time>2022-05-14T12:20:42.095Z</time>
      </trkpt>
      <trkpt lat="41.69854" lon="19.69342">
        <ele>53.236364</ele>
        <time>2022-05-14T12:20:45.083Z</time>
      </trkpt>
      <trkpt lat="41.69865" lon="19.69336">
        <ele>53.143639</ele>
        <time>2022-05-14T12:20:48.076Z</time>
      </trkpt>
      <trkpt lat="41.69877" lon="19.69329">
        <ele>53.049189</ele>
        <time>2022-05-14T12:20:51.075Z</time>
      </trkpt>
      <trkpt lat="41.69889" lon="19.69321">
        <ele>52.952217</ele>
        <time>2022-05-14T12:20:54.094Z</time>
      </trkpt>
      <trkpt lat="41.699" lon="19.69314">
        <ele>52.860474</ele>
        <time>2022-05-14T12:20:57.085Z</time>
      </trkpt>
      <trkpt lat="41.69911" lon="19.69307">
        <ele>52.769511</ele>
        <time>2022-05-14T12:21:00.107Z</time>
      </trkpt>
      <trkpt lat="41.69924" lon="19.69299">
        <ele>53.121081</ele>
        <time>2022-05-14T12:21:03.080Z</time>
      </trkpt>
      <trkpt lat="41.69933" lon="19.69294">
        <ele>53.419614</ele>
        <time>2022-05-14T12:21:05.126Z</time>
      </trkpt>
      <trkpt lat="41.69942" lon="19.69289">
        <ele>53.713872</ele>
        <time>2022-05-14T12:21:07.076Z</time>
      </trkpt>
      <trkpt lat="41.69952" lon="19.69283">
        <ele>54.024214</ele>
        <time>2022-05-14T12:21:09.074Z</time>
      </trkpt>
      <trkpt lat="41.69962" lon="19.69278">
        <ele>54.325635</ele>
        <time>2022-05-14T12:21:11.095Z</time>
      </trkpt>
      <trkpt lat="41.69971" lon="19.69273">
        <ele>54.628909</ele>
        <time>2022-05-14T12:21:13.101Z</time>
      </trkpt>
      <trkpt lat="41.69981" lon="19.69267">
        <ele>54.931189</ele>
        <time>2022-05-14T12:21:15.096Z</time>
      </trkpt>
      <trkpt lat="41.6999" lon="19.69261">
        <ele>55.238784</ele>
        <time>2022-05-14T12:21:17.142Z</time>
      </trkpt>
      <trkpt lat="41.7" lon="19.69256">
        <ele>55.556204</ele>
        <time>2022-05-14T12:21:19.061Z</time>
      </trkpt>
      <trkpt lat="41.7001" lon="19.6925">
        <ele>55.873579</ele>
        <time>2022-05-14T12:21:21.063Z</time>
      </trkpt>
      <trkpt lat="41.7002" lon="19.69244">
        <ele>56.17769</ele>
        <time>2022-05-14T12:21:23.121Z</time>
      </trkpt>
      <trkpt lat="41.70029" lon="19.69238">
        <ele>56.483722</ele>
        <time>2022-05-14T12:21:25.074Z</time>
      </trkpt>
      <trkpt lat="41.70039" lon="19.69232">
        <ele>56.793098</ele>
        <time>2022-05-14T12:21:27.077Z</time>
      </trkpt>
      <trkpt lat="41.70049" lon="19.69227">
        <ele>57.094519</ele>
        <time>2022-05-14T12:21:29.065Z</time>
      </trkpt>
      <trkpt lat="41.70058" lon="19.6922">
        <ele>57.394205</ele>
        <time>2022-05-14T12:21:31.086Z</time>
      </trkpt>
      <trkpt lat="41.70066" lon="19.69214">
        <ele>57.689244</ele>
        <time>2022-05-14T12:21:33.080Z</time>
      </trkpt>
      <trkpt lat="41.70075" lon="19.69207">
        <ele>57.992924</ele>
        <time>2022-05-14T12:21:35.123Z</time>
      </trkpt>
      <trkpt lat="41.70084" lon="19.69199">
        <ele>58.196141</ele>
        <time>2022-05-14T12:21:37.097Z</time>
      </trkpt>
      <trkpt lat="41.70094" lon="19.69192">
        <ele>58.396791</ele>
        <time>2022-05-14T12:21:39.075Z</time>
      </trkpt>
      <trkpt lat="41.70103" lon="19.69184">
        <ele>58.597023</ele>
        <time>2022-05-14T12:21:41.107Z</time>
      </trkpt>
      <trkpt lat="41.70112" lon="19.69175">
        <ele>58.805693</ele>
        <time>2022-05-14T12:21:43.086Z</time>
      </trkpt>
      <trkpt lat="41.70121" lon="19.69167">
        <ele>59.015902</ele>
        <time>2022-05-14T12:21:45.077Z</time>
      </trkpt>
      <trkpt lat="41.70131" lon="19.69159">
        <ele>59.21921</ele>
        <time>2022-05-14T12:21:47.074Z</time>
      </trkpt>
      <trkpt lat="41.70139" lon="19.6915">
        <ele>59.415923</ele>
        <time>2022-05-14T12:21:49.098Z</time>
      </trkpt>
      <trkpt lat="41.70147" lon="19.69142">
        <ele>59.605723</ele>
        <time>2022-05-14T12:21:51.088Z</time>
      </trkpt>
      <trkpt lat="41.70155" lon="19.69134">
        <ele>59.776927</ele>
        <time>2022-05-14T12:21:53.100Z</time>
      </trkpt>
      <trkpt lat="41.70163" lon="19.69127">
        <ele>59.954946</ele>
        <time>2022-05-14T12:21:55.091Z</time>
      </trkpt>
      <trkpt lat="41.70172" lon="19.69119">
        <ele>60.155298</ele>
        <time>2022-05-14T12:21:57.077Z</time>
      </trkpt>
      <trkpt lat="41.70181" lon="19.69109">
        <ele>60.373278</ele>
        <time>2022-05-14T12:21:59.087Z</time>
      </trkpt>
      <trkpt lat="41.70191" lon="19.691">
        <ele>60.589759</ele>
        <time>2022-05-14T12:22:01.074Z</time>
      </trkpt>
      <trkpt lat="41.702" lon="19.69091">
        <ele>60.808544</ele>
        <time>2022-05-14T12:22:03.093Z</time>
      </trkpt>
      <trkpt lat="41.7021" lon="19.69081">
        <ele>61.029633</ele>
        <time>2022-05-14T12:22:05.084Z</time>
      </trkpt>
      <trkpt lat="41.70219" lon="19.69072">
        <ele>61.246924</ele>
        <time>2022-05-14T12:22:07.086Z</time>
      </trkpt>
      <trkpt lat="41.70228" lon="19.69063">
        <ele>60.998187</ele>
        <time>2022-05-14T12:22:09.141Z</time>
      </trkpt>
      <trkpt lat="41.70238" lon="19.69054">
        <ele>60.435499</ele>
        <time>2022-05-14T12:22:11.093Z</time>
      </trkpt>
      <trkpt lat="41.70247" lon="19.69045">
        <ele>59.865701</ele>
        <time>2022-05-14T12:22:13.100Z</time>
      </trkpt>
      <trkpt lat="41.70256" lon="19.69036">
        <ele>59.298614</ele>
        <time>2022-05-14T12:22:15.072Z</time>
      </trkpt>
      <trkpt lat="41.70265" lon="19.69027">
        <ele>58.733735</ele>
        <time>2022-05-14T12:22:17.073Z</time>
      </trkpt>
      <trkpt lat="41.70274" lon="19.69018">
        <ele>58.17249</ele>
        <time>2022-05-14T12:22:19.088Z</time>
      </trkpt>
      <trkpt lat="41.70283" lon="19.69009">
        <ele>57.605699</ele>
        <time>2022-05-14T12:22:21.082Z</time>
      </trkpt>
      <trkpt lat="41.70292" lon="19.69001">
        <ele>57.063735</ele>
        <time>2022-05-14T12:22:23.088Z</time>
      </trkpt>
      <trkpt lat="41.70299" lon="19.68993">
        <ele>56.580495</ele>
        <time>2022-05-14T12:22:25.092Z</time>
      </trkpt>
      <trkpt lat="41.70308" lon="19.68985">
        <ele>56.059192</ele>
        <time>2022-05-14T12:22:27.092Z</time>
      </trkpt>
      <trkpt lat="41.70316" lon="19.68976">
        <ele>55.506485</ele>
        <time>2022-05-14T12:22:29.075Z</time>
      </trkpt>
      <trkpt lat="41.70325" lon="19.68967">
        <ele>54.957216</ele>
        <time>2022-05-14T12:22:31.077Z</time>
      </trkpt>
      <trkpt lat="41.70333" lon="19.68958">
        <ele>54.424094</ele>
        <time>2022-05-14T12:22:33.056Z</time>
      </trkpt>
      <trkpt lat="41.70342" lon="19.68949">
        <ele>53.878057</ele>
        <time>2022-05-14T12:22:35.070Z</time>
      </trkpt>
      <trkpt lat="41.70351" lon="19.68942">
        <ele>53.352824</ele>
        <time>2022-05-14T12:22:37.115Z</time>
      </trkpt>
      <trkpt lat="41.7036" lon="19.68936">
        <ele>52.846199</ele>
        <time>2022-05-14T12:22:39.118Z</time>
      </trkpt>
      <trkpt lat="41.70368" lon="19.68931">
        <ele>52.365112</ele>
        <time>2022-05-14T12:22:41.083Z</time>
      </trkpt>
      <trkpt lat="41.70378" lon="19.68926">
        <ele>52.262563</ele>
        <time>2022-05-14T12:22:43.110Z</time>
      </trkpt>
      <trkpt lat="41.70389" lon="19.68923">
        <ele>52.238315</ele>
        <time>2022-05-14T12:22:45.073Z</time>
      </trkpt>
      <trkpt lat="41.70399" lon="19.6892">
        <ele>52.212746</ele>
        <time>2022-05-14T12:22:47.083Z</time>
      </trkpt>
      <trkpt lat="41.7041" lon="19.68916">
        <ele>52.188626</ele>
        <time>2022-05-14T12:22:49.113Z</time>
      </trkpt>
      <trkpt lat="41.7042" lon="19.68912">
        <ele>52.164409</ele>
        <time>2022-05-14T12:22:51.087Z</time>
      </trkpt>
      <trkpt lat="41.7043" lon="19.68908">
        <ele>52.140383</ele>
        <time>2022-05-14T12:22:53.085Z</time>
      </trkpt>
      <trkpt lat="41.70441" lon="19.68903">
        <ele>52.11421</ele>
        <time>2022-05-14T12:22:55.071Z</time>
      </trkpt>
      <trkpt lat="41.70451" lon="19.68899">
        <ele>52.089993</ele>
        <time>2022-05-14T12:22:57.084Z</time>
      </trkpt>
      <trkpt lat="41.7046" lon="19.68896">
        <ele>52.067118</ele>
        <time>2022-05-14T12:22:59.087Z</time>
      </trkpt>
      <trkpt lat="41.7047" lon="19.68892">
        <ele>52.043578</ele>
        <time>2022-05-14T12:23:01.136Z</time>
      </trkpt>
      <trkpt lat="41.7048" lon="19.68888">
        <ele>52.019285</ele>
        <time>2022-05-14T12:23:03.081Z</time>
      </trkpt>
      <trkpt lat="41.70491" lon="19.68883">
        <ele>51.993322</ele>
        <time>2022-05-14T12:23:05.118Z</time>
      </trkpt>
      <trkpt lat="41.70501" lon="19.68879">
        <ele>51.969074</ele>
        <time>2022-05-14T12:23:07.090Z</time>
      </trkpt>
      <trkpt lat="41.70512" lon="19.68876">
        <ele>51.944326</ele>
        <time>2022-05-14T12:23:09.102Z</time>
      </trkpt>
      <trkpt lat="41.70522" lon="19.68872">
        <ele>51.918835</ele>
        <time>2022-05-14T12:23:11.083Z</time>
      </trkpt>
      <trkpt lat="41.70533" lon="19.68868">
        <ele>51.894187</ele>
        <time>2022-05-14T12:23:13.073Z</time>
      </trkpt>
      <trkpt lat="41.70543" lon="19.68865">
        <ele>51.870335</ele>
        <time>2022-05-14T12:23:15.089Z</time>
      </trkpt>
      <trkpt lat="41.70552" lon="19.68862">
        <ele>51.809407</ele>
        <time>2022-05-14T12:23:17.126Z</time>
      </trkpt>
      <trkpt lat="41.70562" lon="19.68859">
        <ele>51.749771</ele>
        <time>2022-05-14T12:23:19.081Z</time>
      </trkpt>
      <trkpt lat="41.70571" lon="19.68856">
        <ele>51.688192</ele>
        <time>2022-05-14T12:23:21.089Z</time>
      </trkpt>
      <trkpt lat="41.70581" lon="19.68854">
        <ele>51.627135</ele>
        <time>2022-05-14T12:23:23.120Z</time>
      </trkpt>
      <trkpt lat="41.7059" lon="19.68851">
        <ele>51.567921</ele>
        <time>2022-05-14T12:23:25.094Z</time>
      </trkpt>
      <trkpt lat="41.70599" lon="19.68848">
        <ele>51.509321</ele>
        <time>2022-05-14T12:23:27.097Z</time>
      </trkpt>
      <trkpt lat="41.70608" lon="19.68846">
        <ele>51.450617</ele>
        <time>2022-05-14T12:23:29.098Z</time>
      </trkpt>
      <trkpt lat="41.70621" lon="19.68841">
        <ele>51.366924</ele>
        <time>2022-05-14T12:23:32.078Z</time>
      </trkpt>
      <trkpt lat="41.7063" lon="19.68838">
        <ele>51.309337</ele>
        <time>2022-05-14T12:23:34.123Z</time>
      </trkpt>
      <trkpt lat="41.70639" lon="19.68835">
        <ele>51.249334</ele>
        <time>2022-05-14T12:23:36.095Z</time>
      </trkpt>
      <trkpt lat="41.70648" lon="19.68832">
        <ele>51.193217</ele>
        <time>2022-05-14T12:23:38.095Z</time>
      </trkpt>
      <trkpt lat="41.7066" lon="19.68827">
        <ele>51.111934</ele>
        <time>2022-05-14T12:23:41.078Z</time>
      </trkpt>
      <trkpt lat="41.70673" lon="19.68823">
        <ele>51.029689</ele>
        <time>2022-05-14T12:23:44.082Z</time>
      </trkpt>
      <trkpt lat="41.70685" lon="19.68819">
        <ele>50.949204</ele>
        <time>2022-05-14T12:23:47.078Z</time>
      </trkpt>
      <trkpt lat="41.70697" lon="19.68815">
        <ele>50.872925</ele>
        <time>2022-05-14T12:23:50.106Z</time>
      </trkpt>
      <trkpt lat="41.70707" lon="19.68811">
        <ele>50.807443</ele>
        <time>2022-05-14T12:23:53.102Z</time>
      </trkpt>
      <trkpt lat="41.70717" lon="19.68807">
        <ele>50.745012</ele>
        <time>2022-05-14T12:23:56.086Z</time>
      </trkpt>
      <trkpt lat="41.70727" lon="19.68804">
        <ele>50.676681</ele>
        <time>2022-05-14T12:23:59.084Z</time>
      </trkpt>
      <trkpt lat="41.70739" lon="19.68799">
        <ele>50.603327</ele>
        <time>2022-05-14T12:24:02.073Z</time>
      </trkpt>
      <trkpt lat="41.70747" lon="19.68796">
        <ele>50.546607</ele>
        <time>2022-05-14T12:24:04.099Z</time>
      </trkpt>
      <trkpt lat="41.70756" lon="19.68792">
        <ele>50.488655</ele>
        <time>2022-05-14T12:24:06.088Z</time>
      </trkpt>
      <trkpt lat="41.70765" lon="19.6879">
        <ele>50.430044</ele>
        <time>2022-05-14T12:24:08.093Z</time>
      </trkpt>
      <trkpt lat="41.70775" lon="19.68786">
        <ele>50.369351</ele>
        <time>2022-05-14T12:24:10.082Z</time>
      </trkpt>
      <trkpt lat="41.70784" lon="19.68783">
        <ele>50.307903</ele>
        <time>2022-05-14T12:24:12.091Z</time>
      </trkpt>
      <trkpt lat="41.70793" lon="19.6878">
        <ele>50.251299</ele>
        <time>2022-05-14T12:24:14.083Z</time>
      </trkpt>
      <trkpt lat="41.70802" lon="19.68777">
        <ele>50.193373</ele>
        <time>2022-05-14T12:24:16.093Z</time>
      </trkpt>
      <trkpt lat="41.70815" lon="19.68771">
        <ele>50.111934</ele>
        <time>2022-05-14T12:24:19.099Z</time>
      </trkpt>
      <trkpt lat="41.70826" lon="19.68767">
        <ele>50.036307</ele>
        <time>2022-05-14T12:24:22.084Z</time>
      </trkpt>
      <trkpt lat="41.70837" lon="19.68765">
        <ele>49.965676</ele>
        <time>2022-05-14T12:24:25.076Z</time>
      </trkpt>
      <trkpt lat="41.70848" lon="19.68762">
        <ele>49.899054</ele>
        <time>2022-05-14T12:24:28.080Z</time>
      </trkpt>
      <trkpt lat="41.70858" lon="19.68758">
        <ele>49.831256</ele>
        <time>2022-05-14T12:24:31.092Z</time>
      </trkpt>
      <trkpt lat="41.7087" lon="19.68754">
        <ele>49.755382</ele>
        <time>2022-05-14T12:24:34.105Z</time>
      </trkpt>
      <trkpt lat="41.70882" lon="19.6875">
        <ele>49.682153</ele>
        <time>2022-05-14T12:24:37.063Z</time>
      </trkpt>
      <trkpt lat="41.7089" lon="19.68747">
        <ele>49.62519</ele>
        <time>2022-05-14T12:24:39.081Z</time>
      </trkpt>
      <trkpt lat="41.70899" lon="19.68744">
        <ele>49.608349</ele>
        <time>2022-05-14T12:24:41.069Z</time>
      </trkpt>
      <trkpt lat="41.70908" lon="19.68741">
        <ele>49.597264</ele>
        <time>2022-05-14T12:24:43.134Z</time>
      </trkpt>
      <trkpt lat="41.70917" lon="19.68737">
        <ele>49.586157</ele>
        <time>2022-05-14T12:24:45.088Z</time>
      </trkpt>
      <trkpt lat="41.70929" lon="19.68733">
        <ele>49.569851</ele>
        <time>2022-05-14T12:24:48.081Z</time>
      </trkpt>
      <trkpt lat="41.70939" lon="19.6873">
        <ele>49.558385</ele>
        <time>2022-05-14T12:24:50.110Z</time>
      </trkpt>
      <trkpt lat="41.70951" lon="19.68726">
        <ele>49.542174</ele>
        <time>2022-05-14T12:24:53.080Z</time>
      </trkpt>
      <trkpt lat="41.70964" lon="19.68721">
        <ele>49.526292</ele>
        <time>2022-05-14T12:24:56.094Z</time>
      </trkpt>
      <trkpt lat="41.70977" lon="19.68717">
        <ele>49.510452</ele>
        <time>2022-05-14T12:24:59.095Z</time>
      </trkpt>
      <trkpt lat="41.7099" lon="19.68712">
        <ele>49.493603</ele>
        <time>2022-05-14T12:25:02.088Z</time>
      </trkpt>
      <trkpt lat="41.70999" lon="19.68709">
        <ele>49.481604</ele>
        <time>2022-05-14T12:25:04.091Z</time>
      </trkpt>
      <trkpt lat="41.7101" lon="19.68706">
        <ele>49.468809</ele>
        <time>2022-05-14T12:25:06.119Z</time>
      </trkpt>
      <trkpt lat="41.71019" lon="19.68704">
        <ele>49.456606</ele>
        <time>2022-05-14T12:25:08.093Z</time>
      </trkpt>
      <trkpt lat="41.71029" lon="19.68702">
        <ele>49.444915</ele>
        <time>2022-05-14T12:25:10.091Z</time>
      </trkpt>
      <trkpt lat="41.71039" lon="19.68702">
        <ele>49.433032</ele>
        <time>2022-05-14T12:25:12.112Z</time>
      </trkpt>
      <trkpt lat="41.71049" lon="19.68701">
        <ele>49.420798</ele>
        <time>2022-05-14T12:25:14.087Z</time>
      </trkpt>
      <trkpt lat="41.71058" lon="19.68703">
        <ele>49.409856</ele>
        <time>2022-05-14T12:25:16.103Z</time>
      </trkpt>
      <trkpt lat="41.7107" lon="19.68705">
        <ele>49.402045</ele>
        <time>2022-05-14T12:25:19.115Z</time>
      </trkpt>
      <trkpt lat="41.71082" lon="19.68707">
        <ele>49.416017</ele>
        <time>2022-05-14T12:25:22.077Z</time>
      </trkpt>
      <trkpt lat="41.71095" lon="19.68712">
        <ele>49.432893</ele>
        <time>2022-05-14T12:25:25.086Z</time>
      </trkpt>
      <trkpt lat="41.71105" lon="19.68716">
        <ele>49.445395</ele>
        <time>2022-05-14T12:25:27.075Z</time>
      </trkpt>
      <trkpt lat="41.71114" lon="19.68719">
        <ele>49.457889</ele>
        <time>2022-05-14T12:25:29.076Z</time>
      </trkpt>
      <trkpt lat="41.71124" lon="19.68722">
        <ele>49.470075</ele>
        <time>2022-05-14T12:25:31.082Z</time>
      </trkpt>
      <trkpt lat="41.71134" lon="19.68725">
        <ele>49.482744</ele>
        <time>2022-05-14T12:25:33.083Z</time>
      </trkpt>
      <trkpt lat="41.71145" lon="19.68726">
        <ele>49.495971</ele>
        <time>2022-05-14T12:25:35.120Z</time>
      </trkpt>
      <trkpt lat="41.71155" lon="19.68726">
        <ele>49.508906</ele>
        <time>2022-05-14T12:25:37.099Z</time>
      </trkpt>
      <trkpt lat="41.71166" lon="19.68726">
        <ele>49.521841</ele>
        <time>2022-05-14T12:25:39.075Z</time>
      </trkpt>
      <trkpt lat="41.71176" lon="19.68727">
        <ele>49.534904</ele>
        <time>2022-05-14T12:25:41.090Z</time>
      </trkpt>
      <trkpt lat="41.71187" lon="19.68727">
        <ele>49.547715</ele>
        <time>2022-05-14T12:25:43.082Z</time>
      </trkpt>
      <trkpt lat="41.71197" lon="19.68726">
        <ele>49.560173</ele>
        <time>2022-05-14T12:25:45.090Z</time>
      </trkpt>
      <trkpt lat="41.71207" lon="19.68725">
        <ele>49.572882</ele>
        <time>2022-05-14T12:25:47.069Z</time>
      </trkpt>
      <trkpt lat="41.71217" lon="19.68725">
        <ele>49.58545</ele>
        <time>2022-05-14T12:25:49.098Z</time>
      </trkpt>
      <trkpt lat="41.71227" lon="19.68724">
        <ele>49.597434</ele>
        <time>2022-05-14T12:25:51.085Z</time>
      </trkpt>
      <trkpt lat="41.71237" lon="19.68724">
        <ele>49.609638</ele>
        <time>2022-05-14T12:25:53.105Z</time>
      </trkpt>
      <trkpt lat="41.71247" lon="19.68723">
        <ele>49.611392</ele>
        <time>2022-05-14T12:25:55.097Z</time>
      </trkpt>
      <trkpt lat="41.71257" lon="19.68723">
        <ele>49.563185</ele>
        <time>2022-05-14T12:25:57.116Z</time>
      </trkpt>
      <trkpt lat="41.71266" lon="19.68723">
        <ele>49.518919</ele>
        <time>2022-05-14T12:25:59.112Z</time>
      </trkpt>
      <trkpt lat="41.71279" lon="19.68722">
        <ele>49.453476</ele>
        <time>2022-05-14T12:26:02.081Z</time>
      </trkpt>
      <trkpt lat="41.71292" lon="19.68722">
        <ele>49.389545</ele>
        <time>2022-05-14T12:26:05.084Z</time>
      </trkpt>
      <trkpt lat="41.71305" lon="19.68721">
        <ele>49.323386</ele>
        <time>2022-05-14T12:26:08.090Z</time>
      </trkpt>
      <trkpt lat="41.71315" lon="19.6872">
        <ele>49.277439</ele>
        <time>2022-05-14T12:26:10.104Z</time>
      </trkpt>
      <trkpt lat="41.71324" lon="19.68719">
        <ele>49.2321</ele>
        <time>2022-05-14T12:26:12.074Z</time>
      </trkpt>
      <trkpt lat="41.71333" lon="19.68718">
        <ele>49.187766</ele>
        <time>2022-05-14T12:26:14.086Z</time>
      </trkpt>
      <trkpt lat="41.71342" lon="19.68717">
        <ele>49.142918</ele>
        <time>2022-05-14T12:26:16.069Z</time>
      </trkpt>
      <trkpt lat="41.71351" lon="19.68717">
        <ele>49.098583</ele>
        <time>2022-05-14T12:26:18.070Z</time>
      </trkpt>
      <trkpt lat="41.7136" lon="19.68716">
        <ele>49.05371</ele>
        <time>2022-05-14T12:26:20.095Z</time>
      </trkpt>
      <trkpt lat="41.71373" lon="19.68714">
        <ele>48.988381</ele>
        <time>2022-05-14T12:26:23.084Z</time>
      </trkpt>
      <trkpt lat="41.71386" lon="19.68712">
        <ele>48.924734</ele>
        <time>2022-05-14T12:26:26.097Z</time>
      </trkpt>
      <trkpt lat="41.71399" lon="19.68711">
        <ele>48.860989</ele>
        <time>2022-05-14T12:26:29.094Z</time>
      </trkpt>
      <trkpt lat="41.71412" lon="19.68709">
        <ele>48.797861</ele>
        <time>2022-05-14T12:26:32.077Z</time>
      </trkpt>
      <trkpt lat="41.71424" lon="19.68709">
        <ele>48.735378</ele>
        <time>2022-05-14T12:26:35.109Z</time>
      </trkpt>
      <trkpt lat="41.71436" lon="19.68707">
        <ele>48.770329</ele>
        <time>2022-05-14T12:26:38.074Z</time>
      </trkpt>
      <trkpt lat="41.71448" lon="19.68707">
        <ele>48.803632</ele>
        <time>2022-05-14T12:26:41.084Z</time>
      </trkpt>
      <trkpt lat="41.71459" lon="19.68706">
        <ele>48.837596</ele>
        <time>2022-05-14T12:26:44.101Z</time>
      </trkpt>
      <trkpt lat="41.7147" lon="19.68705">
        <ele>48.869796</ele>
        <time>2022-05-14T12:26:47.110Z</time>
      </trkpt>
      <trkpt lat="41.71481" lon="19.68703">
        <ele>48.902963</ele>
        <time>2022-05-14T12:26:50.111Z</time>
      </trkpt>
      <trkpt lat="41.71491" lon="19.68701">
        <ele>48.932695</ele>
        <time>2022-05-14T12:26:53.120Z</time>
      </trkpt>
      <trkpt lat="41.71501" lon="19.687">
        <ele>48.962367</ele>
        <time>2022-05-14T12:26:56.080Z</time>
      </trkpt>
      <trkpt lat="41.71512" lon="19.68699">
        <ele>48.997252</ele>
        <time>2022-05-14T12:27:00.086Z</time>
      </trkpt>
      <trkpt lat="41.71522" lon="19.68698">
        <ele>49.02644</ele>
        <time>2022-05-14T12:27:04.111Z</time>
      </trkpt>
      <trkpt lat="41.71534" lon="19.68695">
        <ele>49.060747</ele>
        <time>2022-05-14T12:27:08.095Z</time>
      </trkpt>
      <trkpt lat="41.71543" lon="19.68694">
        <ele>49.089271</ele>
        <time>2022-05-14T12:27:11.110Z</time>
      </trkpt>
      <trkpt lat="41.71553" lon="19.68691">
        <ele>49.119985</ele>
        <time>2022-05-14T12:27:14.077Z</time>
      </trkpt>
      <trkpt lat="41.71564" lon="19.6869">
        <ele>49.152288</ele>
        <time>2022-05-14T12:27:17.070Z</time>
      </trkpt>
      <trkpt lat="41.71575" lon="19.68688">
        <ele>49.185774</ele>
        <time>2022-05-14T12:27:20.090Z</time>
      </trkpt>
      <trkpt lat="41.71586" lon="19.68686">
        <ele>49.217597</ele>
        <time>2022-05-14T12:27:23.076Z</time>
      </trkpt>
      <trkpt lat="41.71597" lon="19.68685">
        <ele>49.250787</ele>
        <time>2022-05-14T12:27:26.143Z</time>
      </trkpt>
      <trkpt lat="41.71608" lon="19.68682">
        <ele>49.280723</ele>
        <time>2022-05-14T12:27:29.089Z</time>
      </trkpt>
      <trkpt lat="41.7162" lon="19.6868">
        <ele>49.308646</ele>
        <time>2022-05-14T12:27:32.058Z</time>
      </trkpt>
      <trkpt lat="41.71632" lon="19.68678">
        <ele>49.337183</ele>
        <time>2022-05-14T12:27:35.094Z</time>
      </trkpt>
      <trkpt lat="41.71644" lon="19.68677">
        <ele>49.366608</ele>
        <time>2022-05-14T12:27:38.092Z</time>
      </trkpt>
      <trkpt lat="41.71657" lon="19.68675">
        <ele>49.396616</ele>
        <time>2022-05-14T12:27:41.078Z</time>
      </trkpt>
      <trkpt lat="41.7167" lon="19.68673">
        <ele>49.427777</ele>
        <time>2022-05-14T12:27:44.074Z</time>
      </trkpt>
      <trkpt lat="41.71679" lon="19.68671">
        <ele>49.449105</ele>
        <time>2022-05-14T12:27:46.091Z</time>
      </trkpt>
      <trkpt lat="41.71688" lon="19.68669">
        <ele>49.472015</ele>
        <time>2022-05-14T12:27:48.090Z</time>
      </trkpt>
      <trkpt lat="41.71698" lon="19.68668">
        <ele>49.495454</ele>
        <time>2022-05-14T12:27:50.071Z</time>
      </trkpt>
      <trkpt lat="41.71708" lon="19.68666">
        <ele>49.518832</ele>
        <time>2022-05-14T12:27:52.072Z</time>
      </trkpt>
      <trkpt lat="41.71718" lon="19.68665">
        <ele>49.542165</ele>
        <time>2022-05-14T12:27:54.084Z</time>
      </trkpt>
      <trkpt lat="41.71727" lon="19.68663">
        <ele>49.564632</ele>
        <time>2022-05-14T12:27:56.076Z</time>
      </trkpt>
      <trkpt lat="41.71736" lon="19.68661">
        <ele>49.586347</ele>
        <time>2022-05-14T12:27:58.115Z</time>
      </trkpt>
      <trkpt lat="41.71748" lon="19.6866">
        <ele>49.615493</ele>
        <time>2022-05-14T12:28:01.061Z</time>
      </trkpt>
      <trkpt lat="41.7176" lon="19.68661">
        <ele>49.643932</ele>
        <time>2022-05-14T12:28:04.091Z</time>
      </trkpt>
      <trkpt lat="41.71773" lon="19.68664">
        <ele>49.673652</ele>
        <time>2022-05-14T12:28:07.059Z</time>
      </trkpt>
      <trkpt lat="41.71786" lon="19.68668">
        <ele>49.852864</ele>
        <time>2022-05-14T12:28:10.065Z</time>
      </trkpt>
      <trkpt lat="41.71798" lon="19.68672">
        <ele>50.333287</ele>
        <time>2022-05-14T12:28:13.098Z</time>
      </trkpt>
      <trkpt lat="41.7181" lon="19.68676">
        <ele>50.776094</ele>
        <time>2022-05-14T12:28:16.158Z</time>
      </trkpt>
      <trkpt lat="41.71821" lon="19.6868">
        <ele>51.224013</ele>
        <time>2022-05-14T12:28:19.120Z</time>
      </trkpt>
      <trkpt lat="41.71833" lon="19.68685">
        <ele>51.701833</ele>
        <time>2022-05-14T12:28:22.079Z</time>
      </trkpt>
      <trkpt lat="41.71846" lon="19.6869">
        <ele>52.182432</ele>
        <time>2022-05-14T12:28:25.135Z</time>
      </trkpt>
      <trkpt lat="41.71857" lon="19.68694">
        <ele>52.633203</ele>
        <time>2022-05-14T12:28:28.076Z</time>
      </trkpt>
      <trkpt lat="41.71868" lon="19.68699">
        <ele>53.058765</ele>
        <time>2022-05-14T12:28:31.077Z</time>
      </trkpt>
      <trkpt lat="41.71879" lon="19.68702">
        <ele>53.491473</ele>
        <time>2022-05-14T12:28:34.080Z</time>
      </trkpt>
      <trkpt lat="41.71891" lon="19.68707">
        <ele>53.93428</ele>
        <time>2022-05-14T12:28:37.085Z</time>
      </trkpt>
      <trkpt lat="41.71902" lon="19.6871">
        <ele>54.382078</ele>
        <time>2022-05-14T12:28:40.094Z</time>
      </trkpt>
      <trkpt lat="41.71915" lon="19.68713">
        <ele>54.852446</ele>
        <time>2022-05-14T12:28:43.081Z</time>
      </trkpt>
      <trkpt lat="41.71927" lon="19.68717">
        <ele>55.336776</ele>
        <time>2022-05-14T12:28:46.099Z</time>
      </trkpt>
      <trkpt lat="41.7194" lon="19.68721">
        <ele>55.826698</ele>
        <time>2022-05-14T12:28:49.083Z</time>
      </trkpt>
      <trkpt lat="41.71953" lon="19.68725">
        <ele>56.30738</ele>
        <time>2022-05-14T12:28:52.097Z</time>
      </trkpt>
      <trkpt lat="41.71965" lon="19.68729">
        <ele>56.47707</ele>
        <time>2022-05-14T12:28:55.091Z</time>
      </trkpt>
      <trkpt lat="41.71976" lon="19.68733">
        <ele>56.536163</ele>
        <time>2022-05-14T12:28:58.114Z</time>
      </trkpt>
      <trkpt lat="41.71987" lon="19.68737">
        <ele>56.593216</ele>
        <time>2022-05-14T12:29:01.095Z</time>
      </trkpt>
      <trkpt lat="41.71997" lon="19.68741">
        <ele>56.646489</ele>
        <time>2022-05-14T12:29:04.092Z</time>
      </trkpt>
      <trkpt lat="41.72008" lon="19.68745">
        <ele>56.701114</ele>
        <time>2022-05-14T12:29:07.083Z</time>
      </trkpt>
      <trkpt lat="41.72018" lon="19.68748">
        <ele>56.753728</ele>
        <time>2022-05-14T12:29:10.066Z</time>
      </trkpt>
      <trkpt lat="41.72028" lon="19.68751">
        <ele>56.807676</ele>
        <time>2022-05-14T12:29:13.072Z</time>
      </trkpt>
      <trkpt lat="41.72038" lon="19.68755">
        <ele>56.859681</ele>
        <time>2022-05-14T12:29:16.093Z</time>
      </trkpt>
      <trkpt lat="41.72048" lon="19.68758">
        <ele>56.911149</ele>
        <time>2022-05-14T12:29:19.084Z</time>
      </trkpt>
      <trkpt lat="41.72057" lon="19.68761">
        <ele>56.956945</ele>
        <time>2022-05-14T12:29:22.090Z</time>
      </trkpt>
      <trkpt lat="41.72066" lon="19.68764">
        <ele>57.003524</ele>
        <time>2022-05-14T12:29:25.087Z</time>
      </trkpt>
      <trkpt lat="41.72076" lon="19.68767">
        <ele>57.052298</ele>
        <time>2022-05-14T12:29:28.063Z</time>
      </trkpt>
      <trkpt lat="41.72086" lon="19.6877">
        <ele>57.107529</ele>
        <time>2022-05-14T12:29:31.142Z</time>
      </trkpt>
      <trkpt lat="41.72097" lon="19.68775">
        <ele>57.161347</ele>
        <time>2022-05-14T12:29:34.083Z</time>
      </trkpt>
      <trkpt lat="41.72107" lon="19.68778">
        <ele>57.215024</ele>
        <time>2022-05-14T12:29:37.080Z</time>
      </trkpt>
      <trkpt lat="41.72118" lon="19.68782">
        <ele>57.271505</ele>
        <time>2022-05-14T12:29:40.100Z</time>
      </trkpt>
      <trkpt lat="41.72129" lon="19.68786">
        <ele>57.327682</ele>
        <time>2022-05-14T12:29:43.079Z</time>
      </trkpt>
      <trkpt lat="41.72139" lon="19.68789">
        <ele>56.953391</ele>
        <time>2022-05-14T12:29:46.072Z</time>
      </trkpt>
      <trkpt lat="41.7215" lon="19.68793">
        <ele>56.47909</ele>
        <time>2022-05-14T12:29:49.099Z</time>
      </trkpt>
      <trkpt lat="41.72162" lon="19.68797">
        <ele>55.982248</ele>
        <time>2022-05-14T12:29:52.095Z</time>
      </trkpt>
      <trkpt lat="41.72172" lon="19.688">
        <ele>55.5987</ele>
        <time>2022-05-14T12:29:54.093Z</time>
      </trkpt>
      <trkpt lat="41.72181" lon="19.68803">
        <ele>55.223639</ele>
        <time>2022-05-14T12:29:56.097Z</time>
      </trkpt>
      <trkpt lat="41.72193" lon="19.68809">
        <ele>54.699309</ele>
        <time>2022-05-14T12:29:59.101Z</time>
      </trkpt>
      <trkpt lat="41.72206" lon="19.68813">
        <ele>54.152466</ele>
        <time>2022-05-14T12:30:02.112Z</time>
      </trkpt>
      <trkpt lat="41.72215" lon="19.68816">
        <ele>53.782956</ele>
        <time>2022-05-14T12:30:04.102Z</time>
      </trkpt>
      <trkpt lat="41.72227" lon="19.68821">
        <ele>53.250191</ele>
        <time>2022-05-14T12:30:07.087Z</time>
      </trkpt>
      <trkpt lat="41.72239" lon="19.68826">
        <ele>52.751017</ele>
        <time>2022-05-14T12:30:10.095Z</time>
      </trkpt>
      <trkpt lat="41.72251" lon="19.6883">
        <ele>52.26434</ele>
        <time>2022-05-14T12:30:13.058Z</time>
      </trkpt>
      <trkpt lat="41.72263" lon="19.68833">
        <ele>51.748581</ele>
        <time>2022-05-14T12:30:16.103Z</time>
      </trkpt>
      <trkpt lat="41.72274" lon="19.68838">
        <ele>51.28826</ele>
        <time>2022-05-14T12:30:19.093Z</time>
      </trkpt>
      <trkpt lat="41.72286" lon="19.68842">
        <ele>50.797685</ele>
        <time>2022-05-14T12:30:22.086Z</time>
      </trkpt>
      <trkpt lat="41.72299" lon="19.68845">
        <ele>50.279121</ele>
        <time>2022-05-14T12:30:25.100Z</time>
      </trkpt>
      <trkpt lat="41.7231" lon="19.68848">
        <ele>49.883948</ele>
        <time>2022-05-14T12:30:28.080Z</time>
      </trkpt>
      <trkpt lat="41.72321" lon="19.68851">
        <ele>49.550496</ele>
        <time>2022-05-14T12:30:31.086Z</time>
      </trkpt>
      <trkpt lat="41.72332" lon="19.68855">
        <ele>49.216084</ele>
        <time>2022-05-14T12:30:34.112Z</time>
      </trkpt>
      <trkpt lat="41.72342" lon="19.68859">
        <ele>48.899319</ele>
        <time>2022-05-14T12:30:37.081Z</time>
      </trkpt>
      <trkpt lat="41.72353" lon="19.68863">
        <ele>48.553858</ele>
        <time>2022-05-14T12:30:40.099Z</time>
      </trkpt>
      <trkpt lat="41.72366" lon="19.68866">
        <ele>48.180854</ele>
        <time>2022-05-14T12:30:43.101Z</time>
      </trkpt>
      <trkpt lat="41.72379" lon="19.6887">
        <ele>47.797418</ele>
        <time>2022-05-14T12:30:46.079Z</time>
      </trkpt>
      <trkpt lat="41.72391" lon="19.68874">
        <ele>47.42068</ele>
        <time>2022-05-14T12:30:49.124Z</time>
      </trkpt>
      <trkpt lat="41.72403" lon="19.68878">
        <ele>47.056618</ele>
        <time>2022-05-14T12:30:52.090Z</time>
      </trkpt>
      <trkpt lat="41.72414" lon="19.68882">
        <ele>46.706219</ele>
        <time>2022-05-14T12:30:55.064Z</time>
      </trkpt>
      <trkpt lat="41.72425" lon="19.68885">
        <ele>46.372171</ele>
        <time>2022-05-14T12:30:58.095Z</time>
      </trkpt>
      <trkpt lat="41.72437" lon="19.68887">
        <ele>46.036786</ele>
        <time>2022-05-14T12:31:01.112Z</time>
      </trkpt>
      <trkpt lat="41.72448" lon="19.6889">
        <ele>45.694832</ele>
        <time>2022-05-14T12:31:04.085Z</time>
      </trkpt>
      <trkpt lat="41.7246" lon="19.68892">
        <ele>45.329806</ele>
        <time>2022-05-14T12:31:07.078Z</time>
      </trkpt>
      <trkpt lat="41.72471" lon="19.68892">
        <ele>45.022223</ele>
        <time>2022-05-14T12:31:10.094Z</time>
      </trkpt>
      <trkpt lat="41.72483" lon="19.68892">
        <ele>44.790878</ele>
        <time>2022-05-14T12:31:13.073Z</time>
      </trkpt>
      <trkpt lat="41.72495" lon="19.68892">
        <ele>44.973934</ele>
        <time>2022-05-14T12:31:16.134Z</time>
      </trkpt>
      <trkpt lat="41.72507" lon="19.68891">
        <ele>45.161876</ele>
        <time>2022-05-14T12:31:19.071Z</time>
      </trkpt>
      <trkpt lat="41.72518" lon="19.6889">
        <ele>45.340672</ele>
        <time>2022-05-14T12:31:22.108Z</time>
      </trkpt>
      <trkpt lat="41.72528" lon="19.68889">
        <ele>45.495007</ele>
        <time>2022-05-14T12:31:25.100Z</time>
      </trkpt>
      <trkpt lat="41.7254" lon="19.68888">
        <ele>45.669788</ele>
        <time>2022-05-14T12:31:28.085Z</time>
      </trkpt>
      <trkpt lat="41.7255" lon="19.68887">
        <ele>45.825656</ele>
        <time>2022-05-14T12:31:31.080Z</time>
      </trkpt>
      <trkpt lat="41.72561" lon="19.68885">
        <ele>45.999454</ele>
        <time>2022-05-14T12:31:35.111Z</time>
      </trkpt>
      <trkpt lat="41.72571" lon="19.68882">
        <ele>46.154414</ele>
        <time>2022-05-14T12:31:39.126Z</time>
      </trkpt>
      <trkpt lat="41.72581" lon="19.6888">
        <ele>46.308089</ele>
        <time>2022-05-14T12:31:43.080Z</time>
      </trkpt>
      <trkpt lat="41.72607" lon="19.68878">
        <ele>46.714814</ele>
        <time>2022-05-14T12:40:16.078Z</time>
      </trkpt>
      <trkpt lat="41.72619" lon="19.68878">
        <ele>46.898033</ele>
        <time>2022-05-14T12:40:20.073Z</time>
      </trkpt>
      <trkpt lat="41.7263" lon="19.68874">
        <ele>47.072677</ele>
        <time>2022-05-14T12:40:24.078Z</time>
      </trkpt>
      <trkpt lat="41.72639" lon="19.68875">
        <ele>47.212693</ele>
        <time>2022-05-14T12:40:27.076Z</time>
      </trkpt>
      <trkpt lat="41.72649" lon="19.68874">
        <ele>47.366938</ele>
        <time>2022-05-14T12:40:30.120Z</time>
      </trkpt>
      <trkpt lat="41.72659" lon="19.68873">
        <ele>47.511981</ele>
        <time>2022-05-14T12:40:33.088Z</time>
      </trkpt>
      <trkpt lat="41.72668" lon="19.68871">
        <ele>47.557638</ele>
        <time>2022-05-14T12:40:36.081Z</time>
      </trkpt>
      <trkpt lat="41.72679" lon="19.68869">
        <ele>47.604597</ele>
        <time>2022-05-14T12:40:39.097Z</time>
      </trkpt>
      <trkpt lat="41.72689" lon="19.68868">
        <ele>47.652488</ele>
        <time>2022-05-14T12:40:42.082Z</time>
      </trkpt>
      <trkpt lat="41.727" lon="19.68867">
        <ele>47.698734</ele>
        <time>2022-05-14T12:40:45.098Z</time>
      </trkpt>
      <trkpt lat="41.7271" lon="19.68864">
        <ele>47.74682</ele>
        <time>2022-05-14T12:40:48.083Z</time>
      </trkpt>
      <trkpt lat="41.72721" lon="19.68863">
        <ele>47.793627</ele>
        <time>2022-05-14T12:40:51.084Z</time>
      </trkpt>
      <trkpt lat="41.72731" lon="19.68861">
        <ele>47.838687</ele>
        <time>2022-05-14T12:40:54.093Z</time>
      </trkpt>
      <trkpt lat="41.7274" lon="19.6886">
        <ele>47.882495</ele>
        <time>2022-05-14T12:40:57.101Z</time>
      </trkpt>
      <trkpt lat="41.7275" lon="19.68858">
        <ele>47.926747</ele>
        <time>2022-05-14T12:41:00.096Z</time>
      </trkpt>
      <trkpt lat="41.7276" lon="19.68857">
        <ele>47.970847</ele>
        <time>2022-05-14T12:41:03.081Z</time>
      </trkpt>
      <trkpt lat="41.7277" lon="19.68855">
        <ele>48.015871</ele>
        <time>2022-05-14T12:41:06.101Z</time>
      </trkpt>
      <trkpt lat="41.7278" lon="19.68853">
        <ele>48.062431</ele>
        <time>2022-05-14T12:41:09.095Z</time>
      </trkpt>
      <trkpt lat="41.72791" lon="19.68852">
        <ele>48.110608</ele>
        <time>2022-05-14T12:41:12.087Z</time>
      </trkpt>
      <trkpt lat="41.72802" lon="19.6885">
        <ele>48.160856</ele>
        <time>2022-05-14T12:41:15.076Z</time>
      </trkpt>
      <trkpt lat="41.72813" lon="19.68847">
        <ele>48.210935</ele>
        <time>2022-05-14T12:41:18.087Z</time>
      </trkpt>
      <trkpt lat="41.72824" lon="19.68844">
        <ele>48.261515</ele>
        <time>2022-05-14T12:41:21.098Z</time>
      </trkpt>
      <trkpt lat="41.72835" lon="19.68842">
        <ele>48.310595</ele>
        <time>2022-05-14T12:41:24.086Z</time>
      </trkpt>
      <trkpt lat="41.72845" lon="19.68839">
        <ele>48.277587</ele>
        <time>2022-05-14T12:41:27.059Z</time>
      </trkpt>
      <trkpt lat="41.72857" lon="19.68837">
        <ele>48.215808</ele>
        <time>2022-05-14T12:41:30.070Z</time>
      </trkpt>
      <trkpt lat="41.72868" lon="19.68834">
        <ele>48.154617</ele>
        <time>2022-05-14T12:41:33.088Z</time>
      </trkpt>
      <trkpt lat="41.7288" lon="19.68831">
        <ele>48.089504</ele>
        <time>2022-05-14T12:41:36.066Z</time>
      </trkpt>
      <trkpt lat="41.72892" lon="19.68828">
        <ele>48.023799</ele>
        <time>2022-05-14T12:41:39.109Z</time>
      </trkpt>
      <trkpt lat="41.72905" lon="19.68825">
        <ele>47.955792</ele>
        <time>2022-05-14T12:41:42.083Z</time>
      </trkpt>
      <trkpt lat="41.72918" lon="19.68821">
        <ele>47.88798</ele>
        <time>2022-05-14T12:41:45.076Z</time>
      </trkpt>
      <trkpt lat="41.72929" lon="19.68819">
        <ele>47.826514</ele>
        <time>2022-05-14T12:41:48.098Z</time>
      </trkpt>
      <trkpt lat="41.7294" lon="19.68815">
        <ele>47.765593</ele>
        <time>2022-05-14T12:41:51.080Z</time>
      </trkpt>
      <trkpt lat="41.72951" lon="19.68812">
        <ele>47.709069</ele>
        <time>2022-05-14T12:41:54.079Z</time>
      </trkpt>
      <trkpt lat="41.7296" lon="19.68809">
        <ele>47.655123</ele>
        <time>2022-05-14T12:41:57.083Z</time>
      </trkpt>
      <trkpt lat="41.72972" lon="19.68806">
        <ele>47.592021</ele>
        <time>2022-05-14T12:42:01.119Z</time>
      </trkpt>
      <trkpt lat="41.72983" lon="19.68802">
        <ele>47.532971</ele>
        <time>2022-05-14T12:42:05.106Z</time>
      </trkpt>
      <trkpt lat="41.72993" lon="19.68798">
        <ele>47.477182</ele>
        <time>2022-05-14T12:42:09.118Z</time>
      </trkpt>
      <trkpt lat="41.73004" lon="19.68795">
        <ele>47.419431</ele>
        <time>2022-05-14T12:42:13.080Z</time>
      </trkpt>
      <trkpt lat="41.73014" lon="19.68794">
        <ele>47.372064</ele>
        <time>2022-05-14T12:42:17.092Z</time>
      </trkpt>
      <trkpt lat="41.73023" lon="19.68793">
        <ele>47.610131</ele>
        <time>2022-05-14T12:42:21.101Z</time>
      </trkpt>
      <trkpt lat="41.73034" lon="19.68794">
        <ele>47.88013</ele>
        <time>2022-05-14T12:42:25.082Z</time>
      </trkpt>
      <trkpt lat="41.73043" lon="19.68794">
        <ele>48.105932</ele>
        <time>2022-05-14T12:42:28.090Z</time>
      </trkpt>
      <trkpt lat="41.73053" lon="19.68794">
        <ele>48.343998</ele>
        <time>2022-05-14T12:42:31.069Z</time>
      </trkpt>
      <trkpt lat="41.73063" lon="19.68795">
        <ele>48.591924</ele>
        <time>2022-05-14T12:42:34.063Z</time>
      </trkpt>
      <trkpt lat="41.73075" lon="19.68795">
        <ele>48.881506</ele>
        <time>2022-05-14T12:42:37.087Z</time>
      </trkpt>
      <trkpt lat="41.73089" lon="19.68796">
        <ele>49.217834</ele>
        <time>2022-05-14T12:42:40.087Z</time>
      </trkpt>
      <trkpt lat="41.73099" lon="19.68796">
        <ele>49.468112</ele>
        <time>2022-05-14T12:42:42.081Z</time>
      </trkpt>
      <trkpt lat="41.7311" lon="19.68795">
        <ele>49.738037</ele>
        <time>2022-05-14T12:42:44.068Z</time>
      </trkpt>
      <trkpt lat="41.73122" lon="19.68795">
        <ele>50.025118</ele>
        <time>2022-05-14T12:42:46.134Z</time>
      </trkpt>
      <trkpt lat="41.73134" lon="19.68795">
        <ele>50.331911</ele>
        <time>2022-05-14T12:42:48.097Z</time>
      </trkpt>
      <trkpt lat="41.73147" lon="19.68796">
        <ele>50.646169</ele>
        <time>2022-05-14T12:42:50.095Z</time>
      </trkpt>
      <trkpt lat="41.73158" lon="19.68795">
        <ele>50.918529</ele>
        <time>2022-05-14T12:42:52.066Z</time>
      </trkpt>
      <trkpt lat="41.73167" lon="19.68796">
        <ele>51.149432</ele>
        <time>2022-05-14T12:42:54.073Z</time>
      </trkpt>
      <trkpt lat="41.73181" lon="19.68797">
        <ele>51.485706</ele>
        <time>2022-05-14T12:42:57.120Z</time>
      </trkpt>
      <trkpt lat="41.73191" lon="19.68796">
        <ele>51.723772</ele>
        <time>2022-05-14T12:42:59.086Z</time>
      </trkpt>
      <trkpt lat="41.73201" lon="19.68796">
        <ele>52.078151</ele>
        <time>2022-05-14T12:43:01.082Z</time>
      </trkpt>
      <trkpt lat="41.7321" lon="19.68798">
        <ele>52.411512</ele>
        <time>2022-05-14T12:43:03.106Z</time>
      </trkpt>
      <trkpt lat="41.73222" lon="19.68796">
        <ele>52.83153</ele>
        <time>2022-05-14T12:43:06.083Z</time>
      </trkpt>
      <trkpt lat="41.73233" lon="19.68796">
        <ele>53.217546</ele>
        <time>2022-05-14T12:43:09.115Z</time>
      </trkpt>
      <trkpt lat="41.73244" lon="19.68798">
        <ele>53.635308</ele>
        <time>2022-05-14T12:43:12.068Z</time>
      </trkpt>
      <trkpt lat="41.73255" lon="19.688">
        <ele>54.040077</ele>
        <time>2022-05-14T12:43:15.079Z</time>
      </trkpt>
      <trkpt lat="41.73265" lon="19.68802">
        <ele>54.421719</ele>
        <time>2022-05-14T12:43:18.087Z</time>
      </trkpt>
      <trkpt lat="41.73274" lon="19.68805">
        <ele>54.759913</ele>
        <time>2022-05-14T12:43:20.069Z</time>
      </trkpt>
      <trkpt lat="41.73284" lon="19.68811">
        <ele>55.160312</ele>
        <time>2022-05-14T12:43:23.060Z</time>
      </trkpt>
      <trkpt lat="41.73293" lon="19.68818">
        <ele>55.546695</ele>
        <time>2022-05-14T12:43:26.074Z</time>
      </trkpt>
      <trkpt lat="41.73302" lon="19.68825">
        <ele>55.922274</ele>
        <time>2022-05-14T12:43:29.064Z</time>
      </trkpt>
      <trkpt lat="41.73311" lon="19.68833">
        <ele>56.286802</ele>
        <time>2022-05-14T12:43:32.062Z</time>
      </trkpt>
      <trkpt lat="41.73319" lon="19.68839">
        <ele>56.628709</ele>
        <time>2022-05-14T12:43:35.060Z</time>
      </trkpt>
      <trkpt lat="41.73328" lon="19.68846">
        <ele>57.017479</ele>
        <time>2022-05-14T12:43:38.068Z</time>
      </trkpt>
      <trkpt lat="41.73338" lon="19.68852">
        <ele>57.413059</ele>
        <time>2022-05-14T12:43:41.071Z</time>
      </trkpt>
      <trkpt lat="41.73347" lon="19.68859">
        <ele>57.784124</ele>
        <time>2022-05-14T12:43:44.064Z</time>
      </trkpt>
      <trkpt lat="41.73355" lon="19.68863">
        <ele>58.120673</ele>
        <time>2022-05-14T12:43:47.069Z</time>
      </trkpt>
      <trkpt lat="41.73366" lon="19.6887">
        <ele>58.553218</ele>
        <time>2022-05-14T12:43:51.105Z</time>
      </trkpt>
      <trkpt lat="41.73374" lon="19.68875">
        <ele>58.897464</ele>
        <time>2022-05-14T12:43:54.124Z</time>
      </trkpt>
      <trkpt lat="41.73384" lon="19.68881">
        <ele>59.307595</ele>
        <time>2022-05-14T12:43:58.089Z</time>
      </trkpt>
      <trkpt lat="41.73393" lon="19.68888">
        <ele>59.699283</ele>
        <time>2022-05-14T12:44:02.065Z</time>
      </trkpt>
      <trkpt lat="41.73402" lon="19.68894">
        <ele>60.071275</ele>
        <time>2022-05-14T12:44:06.092Z</time>
      </trkpt>
      <trkpt lat="41.73411" lon="19.68899">
        <ele>60.46751</ele>
        <time>2022-05-14T12:44:10.066Z</time>
      </trkpt>
      <trkpt lat="41.7342" lon="19.68906">
        <ele>60.832872</ele>
        <time>2022-05-14T12:44:14.059Z</time>
      </trkpt>
      <trkpt lat="41.73429" lon="19.68911">
        <ele>61.214269</ele>
        <time>2022-05-14T12:44:19.072Z</time>
      </trkpt>
      <trkpt lat="41.73439" lon="19.68917">
        <ele>61.625901</ele>
        <time>2022-05-14T12:44:24.095Z</time>
      </trkpt>
      <trkpt lat="41.73448" lon="19.68923">
        <ele>62.018901</ele>
        <time>2022-05-14T12:44:29.077Z</time>
      </trkpt>
      <trkpt lat="41.73457" lon="19.6893">
        <ele>62.428452</ele>
        <time>2022-05-14T12:44:34.098Z</time>
      </trkpt>
      <trkpt lat="41.73467" lon="19.68935">
        <ele>62.814471</ele>
        <time>2022-05-14T12:44:39.074Z</time>
      </trkpt>
      <trkpt lat="41.73477" lon="19.68939">
        <ele>63.214853</ele>
        <time>2022-05-14T12:44:44.064Z</time>
      </trkpt>
      <trkpt lat="41.73487" lon="19.68942">
        <ele>63.588255</ele>
        <time>2022-05-14T12:44:49.093Z</time>
      </trkpt>
      <trkpt lat="41.73496" lon="19.68944">
        <ele>63.941565</ele>
        <time>2022-05-14T12:44:54.084Z</time>
      </trkpt>
      <trkpt lat="41.73506" lon="19.68943">
        <ele>64.317845</ele>
        <time>2022-05-14T12:44:59.072Z</time>
      </trkpt>
      <trkpt lat="41.73517" lon="19.68943">
        <ele>64.731568</ele>
        <time>2022-05-14T12:45:04.090Z</time>
      </trkpt>
      <trkpt lat="41.73528" lon="19.6894">
        <ele>65.152228</ele>
        <time>2022-05-14T12:45:09.076Z</time>
      </trkpt>
      <trkpt lat="41.73539" lon="19.68938">
        <ele>64.978474</ele>
        <time>2022-05-14T12:45:13.098Z</time>
      </trkpt>
      <trkpt lat="41.7355" lon="19.68935">
        <ele>64.797144</ele>
        <time>2022-05-14T12:45:17.059Z</time>
      </trkpt>
      <trkpt lat="41.73559" lon="19.68932">
        <ele>64.653239</ele>
        <time>2022-05-14T12:45:20.114Z</time>
      </trkpt>
      <trkpt lat="41.7357" lon="19.68929">
        <ele>64.469722</ele>
        <time>2022-05-14T12:45:24.079Z</time>
      </trkpt>
      <trkpt lat="41.73582" lon="19.68925">
        <ele>64.275687</ele>
        <time>2022-05-14T12:45:28.073Z</time>
      </trkpt>
      <trkpt lat="41.73592" lon="19.68923">
        <ele>64.116572</ele>
        <time>2022-05-14T12:45:31.100Z</time>
      </trkpt>
      <trkpt lat="41.73603" lon="19.6892">
        <ele>63.945183</ele>
        <time>2022-05-14T12:45:34.080Z</time>
      </trkpt>
      <trkpt lat="41.73616" lon="19.68918">
        <ele>63.737949</ele>
        <time>2022-05-14T12:45:37.102Z</time>
      </trkpt>
      <trkpt lat="41.73625" lon="19.68916">
        <ele>63.583916</ele>
        <time>2022-05-14T12:45:39.080Z</time>
      </trkpt>
      <trkpt lat="41.73636" lon="19.68913">
        <ele>63.411716</ele>
        <time>2022-05-14T12:45:41.063Z</time>
      </trkpt>
      <trkpt lat="41.73648" lon="19.68911">
        <ele>63.216153</ele>
        <time>2022-05-14T12:45:43.121Z</time>
      </trkpt>
      <trkpt lat="41.7366" lon="19.68907">
        <ele>63.019076</ele>
        <time>2022-05-14T12:45:45.070Z</time>
      </trkpt>
      <trkpt lat="41.73673" lon="19.68904">
        <ele>62.810916</ele>
        <time>2022-05-14T12:45:47.062Z</time>
      </trkpt>
      <trkpt lat="41.73686" lon="19.68901">
        <ele>62.609865</ele>
        <time>2022-05-14T12:45:49.080Z</time>
      </trkpt>
      <trkpt lat="41.73699" lon="19.68896">
        <ele>62.398373</ele>
        <time>2022-05-14T12:45:51.095Z</time>
      </trkpt>
      <trkpt lat="41.73713" lon="19.68891">
        <ele>62.17016</ele>
        <time>2022-05-14T12:45:53.074Z</time>
      </trkpt>
      <trkpt lat="41.73725" lon="19.68884">
        <ele>61.950225</ele>
        <time>2022-05-14T12:45:55.063Z</time>
      </trkpt>
      <trkpt lat="41.73737" lon="19.68876">
        <ele>61.738539</ele>
        <time>2022-05-14T12:45:57.070Z</time>
      </trkpt>
      <trkpt lat="41.7375" lon="19.68868">
        <ele>61.507418</ele>
        <time>2022-05-14T12:45:59.077Z</time>
      </trkpt>
      <trkpt lat="41.73764" lon="19.68862">
        <ele>61.268246</ele>
        <time>2022-05-14T12:46:01.064Z</time>
      </trkpt>
      <trkpt lat="41.73778" lon="19.68857">
        <ele>61.044006</ele>
        <time>2022-05-14T12:46:03.073Z</time>
      </trkpt>
      <trkpt lat="41.73791" lon="19.68853">
        <ele>60.834911</ele>
        <time>2022-05-14T12:46:05.073Z</time>
      </trkpt>
      <trkpt lat="41.73803" lon="19.68851">
        <ele>60.644276</ele>
        <time>2022-05-14T12:46:07.075Z</time>
      </trkpt>
      <trkpt lat="41.73813" lon="19.68847">
        <ele>60.47524</ele>
        <time>2022-05-14T12:46:09.086Z</time>
      </trkpt>
      <trkpt lat="41.73823" lon="19.68845">
        <ele>60.31418</ele>
        <time>2022-05-14T12:46:11.075Z</time>
      </trkpt>
      <trkpt lat="41.73832" lon="19.68842">
        <ele>60.161792</ele>
        <time>2022-05-14T12:46:13.084Z</time>
      </trkpt>
      <trkpt lat="41.73841" lon="19.68839">
        <ele>60.015637</ele>
        <time>2022-05-14T12:46:15.068Z</time>
      </trkpt>
      <trkpt lat="41.73852" lon="19.68836">
        <ele>59.840214</ele>
        <time>2022-05-14T12:46:18.063Z</time>
      </trkpt>
      <trkpt lat="41.73863" lon="19.68833">
        <ele>59.656495</ele>
        <time>2022-05-14T12:46:21.079Z</time>
      </trkpt>
      <trkpt lat="41.73873" lon="19.68832">
        <ele>59.491304</ele>
        <time>2022-05-14T12:46:24.072Z</time>
      </trkpt>
      <trkpt lat="41.73885" lon="19.68831">
        <ele>59.571027</ele>
        <time>2022-05-14T12:46:28.082Z</time>
      </trkpt>
      <trkpt lat="41.73895" lon="19.68831">
        <ele>59.727679</ele>
        <time>2022-05-14T12:46:32.080Z</time>
      </trkpt>
      <trkpt lat="41.73904" lon="19.6883">
        <ele>59.881527</ele>
        <time>2022-05-14T12:46:36.084Z</time>
      </trkpt>
      <trkpt lat="41.73914" lon="19.68829">
        <ele>60.048527</ele>
        <time>2022-05-14T12:46:40.115Z</time>
      </trkpt>
      <trkpt lat="41.73924" lon="19.68828">
        <ele>60.218732</ele>
        <time>2022-05-14T12:46:44.077Z</time>
      </trkpt>
      <trkpt lat="41.73934" lon="19.68824">
        <ele>60.387883</ele>
        <time>2022-05-14T12:46:48.077Z</time>
      </trkpt>
      <trkpt lat="41.73944" lon="19.68823">
        <ele>60.543982</ele>
        <time>2022-05-14T12:46:52.076Z</time>
      </trkpt>
      <trkpt lat="41.73954" lon="19.6882">
        <ele>60.717999</ele>
        <time>2022-05-14T12:46:56.077Z</time>
      </trkpt>
      <trkpt lat="41.73964" lon="19.68818">
        <ele>60.8825</ele>
        <time>2022-05-14T12:47:00.092Z</time>
      </trkpt>
      <trkpt lat="41.73973" lon="19.68816">
        <ele>61.039849</ele>
        <time>2022-05-14T12:47:04.073Z</time>
      </trkpt>
      <trkpt lat="41.73983" lon="19.68813">
        <ele>61.199038</ele>
        <time>2022-05-14T12:47:08.081Z</time>
      </trkpt>
      <trkpt lat="41.73992" lon="19.68812">
        <ele>61.349275</ele>
        <time>2022-05-14T12:47:12.078Z</time>
      </trkpt>
      <trkpt lat="41.74001" lon="19.68808">
        <ele>61.511105</ele>
        <time>2022-05-14T12:47:16.087Z</time>
      </trkpt>
      <trkpt lat="41.7401" lon="19.68807">
        <ele>61.665879</ele>
        <time>2022-05-14T12:47:20.076Z</time>
      </trkpt>
      <trkpt lat="41.7402" lon="19.68805">
        <ele>61.822636</ele>
        <time>2022-05-14T12:47:24.088Z</time>
      </trkpt>
      <trkpt lat="41.7403" lon="19.68802">
        <ele>61.999669</ele>
        <time>2022-05-14T12:47:28.082Z</time>
      </trkpt>
      <trkpt lat="41.7404" lon="19.68798">
        <ele>62.164394</ele>
        <time>2022-05-14T12:47:31.078Z</time>
      </trkpt>
      <trkpt lat="41.7405" lon="19.68795">
        <ele>62.341515</ele>
        <time>2022-05-14T12:47:34.085Z</time>
      </trkpt>
      <trkpt lat="41.74061" lon="19.6879">
        <ele>62.216356</ele>
        <time>2022-05-14T12:47:37.092Z</time>
      </trkpt>
      <trkpt lat="41.74072" lon="19.68786">
        <ele>61.953665</ele>
        <time>2022-05-14T12:47:40.067Z</time>
      </trkpt>
      <trkpt lat="41.74083" lon="19.6878">
        <ele>61.692026</ele>
        <time>2022-05-14T12:47:43.092Z</time>
      </trkpt>
      <trkpt lat="41.74093" lon="19.68776">
        <ele>61.459786</ele>
        <time>2022-05-14T12:47:46.089Z</time>
      </trkpt>
      <trkpt lat="41.74103" lon="19.68772">
        <ele>61.214562</ele>
        <time>2022-05-14T12:47:49.072Z</time>
      </trkpt>
      <trkpt lat="41.74112" lon="19.68766">
        <ele>60.977069</ele>
        <time>2022-05-14T12:47:52.090Z</time>
      </trkpt>
      <trkpt lat="41.7412" lon="19.68759">
        <ele>60.761196</ele>
        <time>2022-05-14T12:47:55.097Z</time>
      </trkpt>
      <trkpt lat="41.74128" lon="19.68751">
        <ele>60.551113</ele>
        <time>2022-05-14T12:47:58.114Z</time>
      </trkpt>
      <trkpt lat="41.74135" lon="19.68741">
        <ele>60.310634</ele>
        <time>2022-05-14T12:48:01.087Z</time>
      </trkpt>
      <trkpt lat="41.74142" lon="19.68731">
        <ele>60.073239</ele>
        <time>2022-05-14T12:48:04.106Z</time>
      </trkpt>
      <trkpt lat="41.74148" lon="19.6872">
        <ele>59.839167</ele>
        <time>2022-05-14T12:48:07.084Z</time>
      </trkpt>
      <trkpt lat="41.74156" lon="19.68707">
        <ele>59.56262</ele>
        <time>2022-05-14T12:48:10.081Z</time>
      </trkpt>
      <trkpt lat="41.74163" lon="19.68694">
        <ele>59.271122</ele>
        <time>2022-05-14T12:48:13.085Z</time>
      </trkpt>
      <trkpt lat="41.74171" lon="19.6868">
        <ele>58.968671</ele>
        <time>2022-05-14T12:48:16.084Z</time>
      </trkpt>
      <trkpt lat="41.74176" lon="19.6867">
        <ele>58.763344</ele>
        <time>2022-05-14T12:48:18.059Z</time>
      </trkpt>
      <trkpt lat="41.74182" lon="19.68659">
        <ele>58.54574</ele>
        <time>2022-05-14T12:48:20.101Z</time>
      </trkpt>
      <trkpt lat="41.74187" lon="19.6865">
        <ele>58.33633</ele>
        <time>2022-05-14T12:48:22.102Z</time>
      </trkpt>
      <trkpt lat="41.74195" lon="19.68638">
        <ele>57.922538</ele>
        <time>2022-05-14T12:48:25.095Z</time>
      </trkpt>
      <trkpt lat="41.74204" lon="19.68628">
        <ele>57.467803</ele>
        <time>2022-05-14T12:48:28.078Z</time>
      </trkpt>
      <trkpt lat="41.74216" lon="19.68619">
        <ele>56.966867</ele>
        <time>2022-05-14T12:48:31.119Z</time>
      </trkpt>
      <trkpt lat="41.74224" lon="19.68612">
        <ele>56.618618</ele>
        <time>2022-05-14T12:48:33.115Z</time>
      </trkpt>
      <trkpt lat="41.74233" lon="19.686">
        <ele>56.118874</ele>
        <time>2022-05-14T12:48:36.079Z</time>
      </trkpt>
      <trkpt lat="41.74239" lon="19.6859">
        <ele>55.764886</ele>
        <time>2022-05-14T12:48:38.072Z</time>
      </trkpt>
      <trkpt lat="41.74243" lon="19.68573">
        <ele>55.266384</ele>
        <time>2022-05-14T12:48:41.095Z</time>
      </trkpt>
      <trkpt lat="41.74245" lon="19.68558">
        <ele>54.815583</ele>
        <time>2022-05-14T12:48:44.087Z</time>
      </trkpt>
      <trkpt lat="41.74247" lon="19.68542">
        <ele>54.374565</ele>
        <time>2022-05-14T12:48:47.074Z</time>
      </trkpt>
      <trkpt lat="41.74248" lon="19.68526">
        <ele>53.904955</ele>
        <time>2022-05-14T12:48:50.081Z</time>
      </trkpt>
      <trkpt lat="41.7425" lon="19.68509">
        <ele>53.431678</ele>
        <time>2022-05-14T12:48:53.084Z</time>
      </trkpt>
      <trkpt lat="41.74251" lon="19.68493">
        <ele>52.972447</ele>
        <time>2022-05-14T12:48:56.084Z</time>
      </trkpt>
      <trkpt lat="41.74253" lon="19.68475">
        <ele>52.463509</ele>
        <time>2022-05-14T12:48:59.077Z</time>
      </trkpt>
      <trkpt lat="41.74254" lon="19.68463">
        <ele>52.111539</ele>
        <time>2022-05-14T12:49:01.120Z</time>
      </trkpt>
      <trkpt lat="41.74255" lon="19.68449">
        <ele>51.728567</ele>
        <time>2022-05-14T12:49:03.092Z</time>
      </trkpt>
      <trkpt lat="41.74256" lon="19.68435">
        <ele>51.377037</ele>
        <time>2022-05-14T12:49:05.080Z</time>
      </trkpt>
      <trkpt lat="41.74257" lon="19.6842">
        <ele>51.160478</ele>
        <time>2022-05-14T12:49:07.075Z</time>
      </trkpt>
      <trkpt lat="41.74258" lon="19.68406">
        <ele>50.941789</ele>
        <time>2022-05-14T12:49:09.091Z</time>
      </trkpt>
      <trkpt lat="41.7426" lon="19.68392">
        <ele>50.723262</ele>
        <time>2022-05-14T12:49:11.091Z</time>
      </trkpt>
      <trkpt lat="41.74262" lon="19.68378">
        <ele>50.506236</ele>
        <time>2022-05-14T12:49:13.112Z</time>
      </trkpt>
      <trkpt lat="41.74265" lon="19.68365">
        <ele>50.287389</ele>
        <time>2022-05-14T12:49:15.098Z</time>
      </trkpt>
      <trkpt lat="41.7427" lon="19.68352">
        <ele>50.066979</ele>
        <time>2022-05-14T12:49:17.082Z</time>
      </trkpt>
      <trkpt lat="41.74275" lon="19.68338">
        <ele>49.841807</ele>
        <time>2022-05-14T12:49:19.096Z</time>
      </trkpt>
      <trkpt lat="41.74281" lon="19.68325">
        <ele>49.596352</ele>
        <time>2022-05-14T12:49:21.064Z</time>
      </trkpt>
      <trkpt lat="41.74287" lon="19.68311">
        <ele>49.351386</ele>
        <time>2022-05-14T12:49:23.104Z</time>
      </trkpt>
      <trkpt lat="41.74293" lon="19.68299">
        <ele>49.127208</ele>
        <time>2022-05-14T12:49:25.078Z</time>
      </trkpt>
      <trkpt lat="41.74298" lon="19.68287">
        <ele>48.914298</ele>
        <time>2022-05-14T12:49:27.076Z</time>
      </trkpt>
      <trkpt lat="41.74304" lon="19.68275">
        <ele>48.708523</ele>
        <time>2022-05-14T12:49:29.156Z</time>
      </trkpt>
      <trkpt lat="41.74309" lon="19.68263">
        <ele>48.496445</ele>
        <time>2022-05-14T12:49:31.094Z</time>
      </trkpt>
      <trkpt lat="41.74315" lon="19.68251">
        <ele>48.277467</ele>
        <time>2022-05-14T12:49:33.118Z</time>
      </trkpt>
      <trkpt lat="41.7432" lon="19.68239">
        <ele>48.064558</ele>
        <time>2022-05-14T12:49:35.096Z</time>
      </trkpt>
      <trkpt lat="41.74326" lon="19.68228">
        <ele>47.859616</ele>
        <time>2022-05-14T12:49:37.090Z</time>
      </trkpt>
      <trkpt lat="41.74331" lon="19.68218">
        <ele>47.788602</ele>
        <time>2022-05-14T12:49:39.085Z</time>
      </trkpt>
      <trkpt lat="41.74337" lon="19.68208">
        <ele>47.815877</ele>
        <time>2022-05-14T12:49:41.074Z</time>
      </trkpt>
      <trkpt lat="41.74345" lon="19.68195">
        <ele>47.852533</ele>
        <time>2022-05-14T12:49:44.090Z</time>
      </trkpt>
      <trkpt lat="41.74353" lon="19.68182">
        <ele>47.890757</ele>
        <time>2022-05-14T12:49:47.068Z</time>
      </trkpt>
      <trkpt lat="41.74362" lon="19.6817">
        <ele>47.927883</ele>
        <time>2022-05-14T12:49:50.095Z</time>
      </trkpt>
      <trkpt lat="41.74369" lon="19.68158">
        <ele>47.963373</ele>
        <time>2022-05-14T12:49:53.091Z</time>
      </trkpt>
      <trkpt lat="41.74377" lon="19.68146">
        <ele>47.998382</ele>
        <time>2022-05-14T12:49:56.066Z</time>
      </trkpt>
      <trkpt lat="41.74384" lon="19.68134">
        <ele>48.031291</ele>
        <time>2022-05-14T12:49:59.086Z</time>
      </trkpt>
      <trkpt lat="41.74391" lon="19.68124">
        <ele>48.062892</ele>
        <time>2022-05-14T12:50:02.086Z</time>
      </trkpt>
      <trkpt lat="41.74398" lon="19.68112">
        <ele>48.095411</ele>
        <time>2022-05-14T12:50:05.083Z</time>
      </trkpt>
      <trkpt lat="41.74405" lon="19.68102">
        <ele>48.126334</ele>
        <time>2022-05-14T12:50:08.091Z</time>
      </trkpt>
      <trkpt lat="41.74411" lon="19.68091">
        <ele>48.157711</ele>
        <time>2022-05-14T12:50:11.084Z</time>
      </trkpt>
      <trkpt lat="41.74417" lon="19.68079">
        <ele>48.189279</ele>
        <time>2022-05-14T12:50:14.070Z</time>
      </trkpt>
      <trkpt lat="41.74424" lon="19.68068">
        <ele>48.221242</ele>
        <time>2022-05-14T12:50:17.116Z</time>
      </trkpt>
      <trkpt lat="41.74431" lon="19.68058">
        <ele>48.251971</ele>
        <time>2022-05-14T12:50:20.094Z</time>
      </trkpt>
      <trkpt lat="41.74438" lon="19.68048">
        <ele>48.283324</ele>
        <time>2022-05-14T12:50:23.074Z</time>
      </trkpt>
      <trkpt lat="41.74444" lon="19.68037">
        <ele>48.347366</ele>
        <time>2022-05-14T12:50:26.087Z</time>
      </trkpt>
      <trkpt lat="41.74451" lon="19.68026">
        <ele>48.552252</ele>
        <time>2022-05-14T12:50:29.089Z</time>
      </trkpt>
      <trkpt lat="41.74457" lon="19.68015">
        <ele>48.765558</ele>
        <time>2022-05-14T12:50:32.074Z</time>
      </trkpt>
      <trkpt lat="41.74464" lon="19.68004">
        <ele>48.987385</ele>
        <time>2022-05-14T12:50:35.084Z</time>
      </trkpt>
      <trkpt lat="41.74472" lon="19.67991">
        <ele>49.227332</ele>
        <time>2022-05-14T12:50:38.083Z</time>
      </trkpt>
      <trkpt lat="41.74478" lon="19.67982">
        <ele>49.413121</ele>
        <time>2022-05-14T12:50:40.087Z</time>
      </trkpt>
      <trkpt lat="41.74483" lon="19.67972">
        <ele>49.600964</ele>
        <time>2022-05-14T12:50:42.079Z</time>
      </trkpt>
      <trkpt lat="41.7449" lon="19.67962">
        <ele>49.801061</ele>
        <time>2022-05-14T12:50:44.095Z</time>
      </trkpt>
      <trkpt lat="41.74496" lon="19.67951">
        <ele>50.009691</ele>
        <time>2022-05-14T12:50:46.082Z</time>
      </trkpt>
      <trkpt lat="41.74503" lon="19.6794">
        <ele>50.229068</ele>
        <time>2022-05-14T12:50:48.101Z</time>
      </trkpt>
      <trkpt lat="41.7451" lon="19.67928">
        <ele>50.459417</ele>
        <time>2022-05-14T12:50:50.093Z</time>
      </trkpt>
      <trkpt lat="41.74518" lon="19.67917">
        <ele>50.697644</ele>
        <time>2022-05-14T12:50:52.073Z</time>
      </trkpt>
      <trkpt lat="41.74525" lon="19.67904">
        <ele>50.93152</ele>
        <time>2022-05-14T12:50:54.081Z</time>
      </trkpt>
      <trkpt lat="41.74532" lon="19.67893">
        <ele>51.150896</ele>
        <time>2022-05-14T12:50:56.080Z</time>
      </trkpt>
      <trkpt lat="41.74539" lon="19.67882">
        <ele>51.373897</ele>
        <time>2022-05-14T12:50:58.115Z</time>
      </trkpt>
      <trkpt lat="41.74546" lon="19.6787">
        <ele>51.596771</ele>
        <time>2022-05-14T12:51:00.082Z</time>
      </trkpt>
      <trkpt lat="41.74553" lon="19.67857">
        <ele>51.840341</ele>
        <time>2022-05-14T12:51:02.085Z</time>
      </trkpt>
      <trkpt lat="41.7456" lon="19.67844">
        <ele>51.755307</ele>
        <time>2022-05-14T12:51:04.084Z</time>
      </trkpt>
      <trkpt lat="41.74566" lon="19.67831">
        <ele>51.456275</ele>
        <time>2022-05-14T12:51:06.088Z</time>
      </trkpt>
      <trkpt lat="41.74571" lon="19.67818">
        <ele>51.145348</ele>
        <time>2022-05-14T12:51:08.096Z</time>
      </trkpt>
      <trkpt lat="41.74574" lon="19.67804">
        <ele>50.85056</ele>
        <time>2022-05-14T12:51:10.089Z</time>
      </trkpt>
      <trkpt lat="41.74576" lon="19.67791">
        <ele>50.572493</ele>
        <time>2022-05-14T12:51:12.083Z</time>
      </trkpt>
      <trkpt lat="41.74577" lon="19.67779">
        <ele>50.313382</ele>
        <time>2022-05-14T12:51:14.120Z</time>
      </trkpt>
      <trkpt lat="41.7458" lon="19.67761">
        <ele>49.947146</ele>
        <time>2022-05-14T12:51:17.089Z</time>
      </trkpt>
      <trkpt lat="41.74582" lon="19.67746">
        <ele>49.626835</ele>
        <time>2022-05-14T12:51:20.133Z</time>
      </trkpt>
      <trkpt lat="41.74584" lon="19.67731">
        <ele>49.314187</ele>
        <time>2022-05-14T12:51:23.084Z</time>
      </trkpt>
      <trkpt lat="41.74586" lon="19.67719">
        <ele>49.05699</ele>
        <time>2022-05-14T12:51:25.096Z</time>
      </trkpt>
      <trkpt lat="41.74588" lon="19.67707">
        <ele>48.798348</ele>
        <time>2022-05-14T12:51:27.085Z</time>
      </trkpt>
      <trkpt lat="41.7459" lon="19.67694">
        <ele>48.523434</ele>
        <time>2022-05-14T12:51:29.091Z</time>
      </trkpt>
      <trkpt lat="41.74592" lon="19.67681">
        <ele>48.235765</ele>
        <time>2022-05-14T12:51:31.112Z</time>
      </trkpt>
      <trkpt lat="41.74594" lon="19.67667">
        <ele>47.958814</ele>
        <time>2022-05-14T12:51:33.067Z</time>
      </trkpt>
      <trkpt lat="41.74596" lon="19.67654">
        <ele>47.675749</ele>
        <time>2022-05-14T12:51:35.093Z</time>
      </trkpt>
      <trkpt lat="41.74598" lon="19.6764">
        <ele>47.388081</ele>
        <time>2022-05-14T12:51:37.110Z</time>
      </trkpt>
      <trkpt lat="41.74599" lon="19.67627">
        <ele>47.112137</ele>
        <time>2022-05-14T12:51:39.063Z</time>
      </trkpt>
      <trkpt lat="41.74601" lon="19.67615">
        <ele>46.921509</ele>
        <time>2022-05-14T12:51:41.060Z</time>
      </trkpt>
      <trkpt lat="41.74604" lon="19.67598">
        <ele>46.816032</ele>
        <time>2022-05-14T12:51:44.081Z</time>
      </trkpt>
      <trkpt lat="41.74606" lon="19.67586">
        <ele>46.741753</ele>
        <time>2022-05-14T12:51:46.124Z</time>
      </trkpt>
      <trkpt lat="41.74608" lon="19.67574">
        <ele>46.668068</ele>
        <time>2022-05-14T12:51:48.097Z</time>
      </trkpt>
      <trkpt lat="41.7461" lon="19.67557">
        <ele>46.56188</ele>
        <time>2022-05-14T12:51:51.123Z</time>
      </trkpt>
      <trkpt lat="41.74613" lon="19.67542">
        <ele>46.46706</ele>
        <time>2022-05-14T12:51:54.070Z</time>
      </trkpt>
      <trkpt lat="41.74616" lon="19.67528">
        <ele>46.379757</ele>
        <time>2022-05-14T12:51:57.096Z</time>
      </trkpt>
      <trkpt lat="41.74619" lon="19.67517">
        <ele>46.304276</ele>
        <time>2022-05-14T12:52:00.067Z</time>
      </trkpt>
      <trkpt lat="41.74622" lon="19.67505">
        <ele>46.229224</ele>
        <time>2022-05-14T12:52:03.089Z</time>
      </trkpt>
      <trkpt lat="41.74627" lon="19.67491">
        <ele>46.135506</ele>
        <time>2022-05-14T12:52:07.107Z</time>
      </trkpt>
      <trkpt lat="41.74631" lon="19.67479">
        <ele>46.059506</ele>
        <time>2022-05-14T12:52:10.073Z</time>
      </trkpt>
      <trkpt lat="41.74636" lon="19.67465">
        <ele>45.965144</ele>
        <time>2022-05-14T12:52:14.096Z</time>
      </trkpt>
      <trkpt lat="41.74642" lon="19.67453">
        <ele>45.87676</ele>
        <time>2022-05-14T12:52:18.076Z</time>
      </trkpt>
      <trkpt lat="41.74648" lon="19.67441">
        <ele>45.783371</ele>
        <time>2022-05-14T12:52:22.089Z</time>
      </trkpt>
      <trkpt lat="41.74655" lon="19.6743">
        <ele>45.701604</ele>
        <time>2022-05-14T12:52:25.086Z</time>
      </trkpt>
      <trkpt lat="41.74661" lon="19.6742">
        <ele>45.621292</ele>
        <time>2022-05-14T12:52:28.065Z</time>
      </trkpt>
      <trkpt lat="41.74667" lon="19.6741">
        <ele>45.544428</ele>
        <time>2022-05-14T12:52:31.096Z</time>
      </trkpt>
      <trkpt lat="41.74673" lon="19.674">
        <ele>45.424591</ele>
        <time>2022-05-14T12:52:34.079Z</time>
      </trkpt>
      <trkpt lat="41.7468" lon="19.67388">
        <ele>45.052157</ele>
        <time>2022-05-14T12:52:38.073Z</time>
      </trkpt>
      <trkpt lat="41.74688" lon="19.67377">
        <ele>44.705365</ele>
        <time>2022-05-14T12:52:42.088Z</time>
      </trkpt>
      <trkpt lat="41.74696" lon="19.67367">
        <ele>44.365166</ele>
        <time>2022-05-14T12:52:46.072Z</time>
      </trkpt>
      <trkpt lat="41.74705" lon="19.67356">
        <ele>43.978723</ele>
        <time>2022-05-14T12:52:50.111Z</time>
      </trkpt>
      <trkpt lat="41.74714" lon="19.67348">
        <ele>43.648105</ele>
        <time>2022-05-14T12:52:53.092Z</time>
      </trkpt>
      <trkpt lat="41.74724" lon="19.67339">
        <ele>43.271262</ele>
        <time>2022-05-14T12:52:56.087Z</time>
      </trkpt>
      <trkpt lat="41.74734" lon="19.6733">
        <ele>42.889139</ele>
        <time>2022-05-14T12:52:59.071Z</time>
      </trkpt>
      <trkpt lat="41.74745" lon="19.67321">
        <ele>42.500017</ele>
        <time>2022-05-14T12:53:02.091Z</time>
      </trkpt>
      <trkpt lat="41.74753" lon="19.67315">
        <ele>42.20208</ele>
        <time>2022-05-14T12:53:04.100Z</time>
      </trkpt>
      <trkpt lat="41.74763" lon="19.67308">
        <ele>41.859218</ele>
        <time>2022-05-14T12:53:06.090Z</time>
      </trkpt>
      <trkpt lat="41.74775" lon="19.67301">
        <ele>41.459073</ele>
        <time>2022-05-14T12:53:08.067Z</time>
      </trkpt>
      <trkpt lat="41.74787" lon="19.67293">
        <ele>41.048674</ele>
        <time>2022-05-14T12:53:10.119Z</time>
      </trkpt>
      <trkpt lat="41.748" lon="19.67284">
        <ele>40.579342</ele>
        <time>2022-05-14T12:53:12.083Z</time>
      </trkpt>
      <trkpt lat="41.74815" lon="19.67273">
        <ele>40.052936</ele>
        <time>2022-05-14T12:53:14.118Z</time>
      </trkpt>
      <trkpt lat="41.7483" lon="19.67263">
        <ele>39.412414</ele>
        <time>2022-05-14T12:53:16.079Z</time>
      </trkpt>
      <trkpt lat="41.74846" lon="19.67251">
        <ele>38.722571</ele>
        <time>2022-05-14T12:53:18.088Z</time>
      </trkpt>
      <trkpt lat="41.74859" lon="19.67241">
        <ele>38.104211</ele>
        <time>2022-05-14T12:53:20.091Z</time>
      </trkpt>
      <trkpt lat="41.74872" lon="19.67232">
        <ele>37.506935</ele>
        <time>2022-05-14T12:53:22.072Z</time>
      </trkpt>
      <trkpt lat="41.74885" lon="19.67223">
        <ele>36.941873</ele>
        <time>2022-05-14T12:53:24.072Z</time>
      </trkpt>
      <trkpt lat="41.74898" lon="19.67214">
        <ele>36.375435</ele>
        <time>2022-05-14T12:53:26.075Z</time>
      </trkpt>
      <trkpt lat="41.7491" lon="19.67206">
        <ele>35.838387</ele>
        <time>2022-05-14T12:53:28.069Z</time>
      </trkpt>
      <trkpt lat="41.74921" lon="19.67199">
        <ele>35.349239</ele>
        <time>2022-05-14T12:53:30.092Z</time>
      </trkpt>
      <trkpt lat="41.74931" lon="19.67192">
        <ele>34.911712</ele>
        <time>2022-05-14T12:53:32.101Z</time>
      </trkpt>
      <trkpt lat="41.7494" lon="19.67186">
        <ele>34.495054</ele>
        <time>2022-05-14T12:53:34.089Z</time>
      </trkpt>
      <trkpt lat="41.74949" lon="19.6718">
        <ele>34.099257</ele>
        <time>2022-05-14T12:53:36.130Z</time>
      </trkpt>
      <trkpt lat="41.74958" lon="19.67174">
        <ele>33.692352</ele>
        <time>2022-05-14T12:53:38.074Z</time>
      </trkpt>
      <trkpt lat="41.74967" lon="19.67169">
        <ele>33.292869</ele>
        <time>2022-05-14T12:53:40.096Z</time>
      </trkpt>
      <trkpt lat="41.74976" lon="19.67164">
        <ele>32.91828</ele>
        <time>2022-05-14T12:53:42.087Z</time>
      </trkpt>
      <trkpt lat="41.74986" lon="19.6716">
        <ele>32.902723</ele>
        <time>2022-05-14T12:53:44.070Z</time>
      </trkpt>
      <trkpt lat="41.74996" lon="19.67158">
        <ele>33.177255</ele>
        <time>2022-05-14T12:53:46.065Z</time>
      </trkpt>
      <trkpt lat="41.75005" lon="19.67157">
        <ele>33.440621</ele>
        <time>2022-05-14T12:53:48.080Z</time>
      </trkpt>
      <trkpt lat="41.75015" lon="19.67157">
        <ele>33.695642</ele>
        <time>2022-05-14T12:53:50.084Z</time>
      </trkpt>
      <trkpt lat="41.75024" lon="19.67157">
        <ele>33.950663</ele>
        <time>2022-05-14T12:53:52.089Z</time>
      </trkpt>
      <trkpt lat="41.75033" lon="19.67157">
        <ele>34.205676</ele>
        <time>2022-05-14T12:53:54.086Z</time>
      </trkpt>
      <trkpt lat="41.75042" lon="19.67157">
        <ele>34.45528</ele>
        <time>2022-05-14T12:53:56.086Z</time>
      </trkpt>
      <trkpt lat="41.75051" lon="19.67157">
        <ele>34.707559</ele>
        <time>2022-05-14T12:53:58.080Z</time>
      </trkpt>
      <trkpt lat="41.75064" lon="19.67157">
        <ele>35.039508</ele>
        <time>2022-05-14T12:54:01.074Z</time>
      </trkpt>
      <trkpt lat="41.75077" lon="19.67158">
        <ele>35.396189</ele>
        <time>2022-05-14T12:54:04.067Z</time>
      </trkpt>
      <trkpt lat="41.75086" lon="19.67158">
        <ele>35.645751</ele>
        <time>2022-05-14T12:54:06.078Z</time>
      </trkpt>
      <trkpt lat="41.75099" lon="19.67158">
        <ele>36.016072</ele>
        <time>2022-05-14T12:54:09.092Z</time>
      </trkpt>
      <trkpt lat="41.75112" lon="19.67158">
        <ele>36.380768</ele>
        <time>2022-05-14T12:54:12.085Z</time>
      </trkpt>
      <trkpt lat="41.75122" lon="19.67158">
        <ele>36.633047</ele>
        <time>2022-05-14T12:54:14.081Z</time>
      </trkpt>
      <trkpt lat="41.75135" lon="19.67158">
        <ele>36.992265</ele>
        <time>2022-05-14T12:54:17.088Z</time>
      </trkpt>
      <trkpt lat="41.75147" lon="19.67158">
        <ele>37.337772</ele>
        <time>2022-05-14T12:54:20.095Z</time>
      </trkpt>
      <trkpt lat="41.7516" lon="19.67159">
        <ele>37.693582</ele>
        <time>2022-05-14T12:54:23.089Z</time>
      </trkpt>
      <trkpt lat="41.75172" lon="19.6716">
        <ele>38.123212</ele>
        <time>2022-05-14T12:54:26.100Z</time>
      </trkpt>
      <trkpt lat="41.75184" lon="19.6716">
        <ele>38.559927</ele>
        <time>2022-05-14T12:54:29.087Z</time>
      </trkpt>
      <trkpt lat="41.75195" lon="19.6716">
        <ele>38.970745</ele>
        <time>2022-05-14T12:54:32.078Z</time>
      </trkpt>
      <trkpt lat="41.75206" lon="19.6716">
        <ele>39.388851</ele>
        <time>2022-05-14T12:54:35.066Z</time>
      </trkpt>
      <trkpt lat="41.75218" lon="19.6716">
        <ele>39.821624</ele>
        <time>2022-05-14T12:54:38.105Z</time>
      </trkpt>
      <trkpt lat="41.7523" lon="19.6716">
        <ele>40.272833</ele>
        <time>2022-05-14T12:54:41.083Z</time>
      </trkpt>
      <trkpt lat="41.75242" lon="19.6716">
        <ele>40.709933</ele>
        <time>2022-05-14T12:54:44.063Z</time>
      </trkpt>
      <trkpt lat="41.75255" lon="19.67158">
        <ele>41.160351</ele>
        <time>2022-05-14T12:54:47.091Z</time>
      </trkpt>
      <trkpt lat="41.75267" lon="19.67154">
        <ele>41.619068</ele>
        <time>2022-05-14T12:54:50.096Z</time>
      </trkpt>
      <trkpt lat="41.75279" lon="19.6715">
        <ele>42.075309</ele>
        <time>2022-05-14T12:54:53.070Z</time>
      </trkpt>
      <trkpt lat="41.7529" lon="19.67145">
        <ele>42.504625</ele>
        <time>2022-05-14T12:54:56.087Z</time>
      </trkpt>
      <trkpt lat="41.75301" lon="19.67142">
        <ele>42.927004</ele>
        <time>2022-05-14T12:54:59.115Z</time>
      </trkpt>
      <trkpt lat="41.75313" lon="19.67137">
        <ele>43.381681</ele>
        <time>2022-05-14T12:55:02.070Z</time>
      </trkpt>
      <trkpt lat="41.75325" lon="19.67131">
        <ele>43.846769</ele>
        <time>2022-05-14T12:55:05.095Z</time>
      </trkpt>
      <trkpt lat="41.75337" lon="19.67125">
        <ele>44.275633</ele>
        <time>2022-05-14T12:55:08.076Z</time>
      </trkpt>
      <trkpt lat="41.75349" lon="19.67119">
        <ele>44.341693</ele>
        <time>2022-05-14T12:55:11.082Z</time>
      </trkpt>
      <trkpt lat="41.7536" lon="19.67115">
        <ele>44.404994</ele>
        <time>2022-05-14T12:55:14.091Z</time>
      </trkpt>
      <trkpt lat="41.75373" lon="19.67112">
        <ele>44.471393</ele>
        <time>2022-05-14T12:55:17.123Z</time>
      </trkpt>
      <trkpt lat="41.75386" lon="19.67112">
        <ele>44.536053</ele>
        <time>2022-05-14T12:55:20.076Z</time>
      </trkpt>
      <trkpt lat="41.75398" lon="19.67113">
        <ele>44.600771</ele>
        <time>2022-05-14T12:55:23.072Z</time>
      </trkpt>
      <trkpt lat="41.75411" lon="19.67115">
        <ele>44.667373</ele>
        <time>2022-05-14T12:55:26.084Z</time>
      </trkpt>
      <trkpt lat="41.75423" lon="19.67117">
        <ele>44.732583</ele>
        <time>2022-05-14T12:55:29.084Z</time>
      </trkpt>
      <trkpt lat="41.75436" lon="19.67119">
        <ele>44.797004</ele>
        <time>2022-05-14T12:55:32.087Z</time>
      </trkpt>
      <trkpt lat="41.75448" lon="19.6712">
        <ele>44.861351</ele>
        <time>2022-05-14T12:55:35.077Z</time>
      </trkpt>
      <trkpt lat="41.75461" lon="19.67121">
        <ele>44.926028</ele>
        <time>2022-05-14T12:55:38.085Z</time>
      </trkpt>
      <trkpt lat="41.75472" lon="19.67122">
        <ele>44.987189</ele>
        <time>2022-05-14T12:55:41.082Z</time>
      </trkpt>
      <trkpt lat="41.75484" lon="19.67122">
        <ele>45.049209</ele>
        <time>2022-05-14T12:55:44.086Z</time>
      </trkpt>
      <trkpt lat="41.75496" lon="19.67122">
        <ele>45.109172</ele>
        <time>2022-05-14T12:55:47.105Z</time>
      </trkpt>
      <trkpt lat="41.75507" lon="19.67122">
        <ele>45.167078</ele>
        <time>2022-05-14T12:55:50.086Z</time>
      </trkpt>
      <trkpt lat="41.75519" lon="19.67122">
        <ele>45.105526</ele>
        <time>2022-05-14T12:55:53.087Z</time>
      </trkpt>
      <trkpt lat="41.75531" lon="19.67123">
        <ele>44.901746</ele>
        <time>2022-05-14T12:55:56.105Z</time>
      </trkpt>
      <trkpt lat="41.75542" lon="19.67126">
        <ele>44.690415</ele>
        <time>2022-05-14T12:55:59.096Z</time>
      </trkpt>
      <trkpt lat="41.75554" lon="19.67129">
        <ele>44.470162</ele>
        <time>2022-05-14T12:56:02.085Z</time>
      </trkpt>
      <trkpt lat="41.75566" lon="19.67132">
        <ele>44.257429</ele>
        <time>2022-05-14T12:56:05.071Z</time>
      </trkpt>
      <trkpt lat="41.75577" lon="19.67135">
        <ele>44.058947</ele>
        <time>2022-05-14T12:56:08.088Z</time>
      </trkpt>
      <trkpt lat="41.75587" lon="19.67137">
        <ele>43.873492</ele>
        <time>2022-05-14T12:56:11.088Z</time>
      </trkpt>
      <trkpt lat="41.75598" lon="19.67139">
        <ele>43.684839</ele>
        <time>2022-05-14T12:56:14.076Z</time>
      </trkpt>
      <trkpt lat="41.75608" lon="19.6714">
        <ele>43.494713</ele>
        <time>2022-05-14T12:56:17.080Z</time>
      </trkpt>
      <trkpt lat="41.75619" lon="19.67142">
        <ele>43.304723</ele>
        <time>2022-05-14T12:56:20.078Z</time>
      </trkpt>
      <trkpt lat="41.7563" lon="19.67144">
        <ele>43.112018</ele>
        <time>2022-05-14T12:56:23.120Z</time>
      </trkpt>
      <trkpt lat="41.7564" lon="19.67145">
        <ele>42.919492</ele>
        <time>2022-05-14T12:56:26.087Z</time>
      </trkpt>
      <trkpt lat="41.75651" lon="19.67148">
        <ele>42.726781</ele>
        <time>2022-05-14T12:56:29.080Z</time>
      </trkpt>
      <trkpt lat="41.75662" lon="19.67151">
        <ele>42.535556</ele>
        <time>2022-05-14T12:56:32.101Z</time>
      </trkpt>
      <trkpt lat="41.75671" lon="19.67154">
        <ele>42.361365</ele>
        <time>2022-05-14T12:56:35.109Z</time>
      </trkpt>
      <trkpt lat="41.75681" lon="19.67156">
        <ele>42.191596</ele>
        <time>2022-05-14T12:56:38.068Z</time>
      </trkpt>
      <trkpt lat="41.7569" lon="19.67157">
        <ele>42.022031</ele>
        <time>2022-05-14T12:56:41.079Z</time>
      </trkpt>
      <trkpt lat="41.75699" lon="19.6716">
        <ele>42.280039</ele>
        <time>2022-05-14T12:56:44.085Z</time>
      </trkpt>
      <trkpt lat="41.75709" lon="19.67162">
        <ele>42.654484</ele>
        <time>2022-05-14T12:56:47.080Z</time>
      </trkpt>
      <trkpt lat="41.75719" lon="19.67165">
        <ele>43.023311</ele>
        <time>2022-05-14T12:56:50.082Z</time>
      </trkpt>
      <trkpt lat="41.7573" lon="19.67167">
        <ele>43.4136</ele>
        <time>2022-05-14T12:56:53.086Z</time>
      </trkpt>
      <trkpt lat="41.7574" lon="19.67169">
        <ele>43.788678</ele>
        <time>2022-05-14T12:56:56.119Z</time>
      </trkpt>
      <trkpt lat="41.7575" lon="19.67172">
        <ele>44.148353</ele>
        <time>2022-05-14T12:56:59.081Z</time>
      </trkpt>
      <trkpt lat="41.75759" lon="19.67174">
        <ele>44.478719</ele>
        <time>2022-05-14T12:57:02.091Z</time>
      </trkpt>
      <trkpt lat="41.75769" lon="19.67176">
        <ele>44.832775</ele>
        <time>2022-05-14T12:57:05.120Z</time>
      </trkpt>
      <trkpt lat="41.75778" lon="19.67179">
        <ele>45.180181</ele>
        <time>2022-05-14T12:57:08.080Z</time>
      </trkpt>
      <trkpt lat="41.75788" lon="19.67181">
        <ele>45.549008</ele>
        <time>2022-05-14T12:57:11.129Z</time>
      </trkpt>
      <trkpt lat="41.75798" lon="19.67183">
        <ele>45.906176</ele>
        <time>2022-05-14T12:57:14.080Z</time>
      </trkpt>
      <trkpt lat="41.75809" lon="19.67186">
        <ele>46.336747</ele>
        <time>2022-05-14T12:57:18.063Z</time>
      </trkpt>
      <trkpt lat="41.75819" lon="19.67188">
        <ele>46.68772</ele>
        <time>2022-05-14T12:57:21.084Z</time>
      </trkpt>
      <trkpt lat="41.75829" lon="19.6719">
        <ele>47.059215</ele>
        <time>2022-05-14T12:57:24.086Z</time>
      </trkpt>
      <trkpt lat="41.75839" lon="19.67192">
        <ele>47.428144</ele>
        <time>2022-05-14T12:57:27.070Z</time>
      </trkpt>
      <trkpt lat="41.75849" lon="19.67193">
        <ele>47.808199</ele>
        <time>2022-05-14T12:57:30.090Z</time>
      </trkpt>
      <trkpt lat="41.7586" lon="19.67195">
        <ele>48.195469</ele>
        <time>2022-05-14T12:57:33.080Z</time>
      </trkpt>
      <trkpt lat="41.7587" lon="19.67197">
        <ele>48.581533</ele>
        <time>2022-05-14T12:57:36.067Z</time>
      </trkpt>
      <trkpt lat="41.7588" lon="19.67199">
        <ele>49.06903</ele>
        <time>2022-05-14T12:57:39.124Z</time>
      </trkpt>
      <trkpt lat="41.7589" lon="19.67201">
        <ele>49.577528</ele>
        <time>2022-05-14T12:57:42.093Z</time>
      </trkpt>
      <trkpt lat="41.759" lon="19.67204">
        <ele>50.097833</ele>
        <time>2022-05-14T12:57:45.083Z</time>
      </trkpt>
      <trkpt lat="41.7591" lon="19.67207">
        <ele>50.593326</ele>
        <time>2022-05-14T12:57:48.085Z</time>
      </trkpt>
      <trkpt lat="41.75921" lon="19.6721">
        <ele>51.18613</ele>
        <time>2022-05-14T12:57:52.115Z</time>
      </trkpt>
      <trkpt lat="41.75932" lon="19.67212">
        <ele>51.734854</ele>
        <time>2022-05-14T12:57:55.098Z</time>
      </trkpt>
      <trkpt lat="41.75943" lon="19.67215">
        <ele>52.297391</ele>
        <time>2022-05-14T12:57:58.091Z</time>
      </trkpt>
      <trkpt lat="41.75953" lon="19.67218">
        <ele>52.827928</ele>
        <time>2022-05-14T12:58:01.072Z</time>
      </trkpt>
      <trkpt lat="41.75963" lon="19.67221">
        <ele>53.345601</ele>
        <time>2022-05-14T12:58:04.115Z</time>
      </trkpt>
      <trkpt lat="41.75973" lon="19.67224">
        <ele>53.829608</ele>
        <time>2022-05-14T12:58:07.102Z</time>
      </trkpt>
      <trkpt lat="41.75983" lon="19.67227">
        <ele>54.344312</ele>
        <time>2022-05-14T12:58:10.115Z</time>
      </trkpt>
      <trkpt lat="41.75995" lon="19.67229">
        <ele>54.958082</ele>
        <time>2022-05-14T12:58:14.059Z</time>
      </trkpt>
      <trkpt lat="41.76007" lon="19.67231">
        <ele>55.589766</ele>
        <time>2022-05-14T12:58:18.094Z</time>
      </trkpt>
      <trkpt lat="41.76017" lon="19.67233">
        <ele>56.096567</ele>
        <time>2022-05-14T12:58:21.096Z</time>
      </trkpt>
      <trkpt lat="41.76028" lon="19.67235">
        <ele>56.653584</ele>
        <time>2022-05-14T12:58:24.083Z</time>
      </trkpt>
      <trkpt lat="41.7604" lon="19.67237">
        <ele>57.256361</ele>
        <time>2022-05-14T12:58:27.076Z</time>
      </trkpt>
      <trkpt lat="41.76052" lon="19.6724">
        <ele>57.508146</ele>
        <time>2022-05-14T12:58:30.087Z</time>
      </trkpt>
      <trkpt lat="41.76066" lon="19.67243">
        <ele>57.42133</ele>
        <time>2022-05-14T12:58:33.087Z</time>
      </trkpt>
      <trkpt lat="41.76075" lon="19.67245">
        <ele>57.362697</ele>
        <time>2022-05-14T12:58:35.083Z</time>
      </trkpt>
      <trkpt lat="41.76085" lon="19.67248">
        <ele>57.297393</ele>
        <time>2022-05-14T12:58:38.099Z</time>
      </trkpt>
      <trkpt lat="41.76096" lon="19.6725">
        <ele>57.226906</ele>
        <time>2022-05-14T12:58:41.087Z</time>
      </trkpt>
      <trkpt lat="41.76108" lon="19.67252">
        <ele>57.150814</ele>
        <time>2022-05-14T12:58:44.093Z</time>
      </trkpt>
      <trkpt lat="41.76119" lon="19.67255">
        <ele>57.075583</ele>
        <time>2022-05-14T12:58:47.083Z</time>
      </trkpt>
      <trkpt lat="41.76133" lon="19.67258">
        <ele>56.990407</ele>
        <time>2022-05-14T12:58:50.079Z</time>
      </trkpt>
      <trkpt lat="41.76142" lon="19.67261">
        <ele>56.927301</ele>
        <time>2022-05-14T12:58:52.082Z</time>
      </trkpt>
      <trkpt lat="41.76152" lon="19.67264">
        <ele>56.864709</ele>
        <time>2022-05-14T12:58:54.125Z</time>
      </trkpt>
      <trkpt lat="41.76161" lon="19.67267">
        <ele>56.803666</ele>
        <time>2022-05-14T12:58:56.084Z</time>
      </trkpt>
      <trkpt lat="41.7617" lon="19.67269">
        <ele>56.746736</ele>
        <time>2022-05-14T12:58:58.079Z</time>
      </trkpt>
      <trkpt lat="41.76179" lon="19.67271">
        <ele>56.688374</ele>
        <time>2022-05-14T12:59:00.083Z</time>
      </trkpt>
      <trkpt lat="41.76188" lon="19.67274">
        <ele>56.628146</ele>
        <time>2022-05-14T12:59:02.069Z</time>
      </trkpt>
      <trkpt lat="41.76198" lon="19.67277">
        <ele>56.563465</ele>
        <time>2022-05-14T12:59:04.166Z</time>
      </trkpt>
      <trkpt lat="41.76209" lon="19.6728">
        <ele>56.491453</ele>
        <time>2022-05-14T12:59:06.083Z</time>
      </trkpt>
      <trkpt lat="41.7622" lon="19.67283">
        <ele>56.42122</ele>
        <time>2022-05-14T12:59:08.076Z</time>
      </trkpt>
      <trkpt lat="41.76231" lon="19.67287">
        <ele>56.417185</ele>
        <time>2022-05-14T12:59:10.070Z</time>
      </trkpt>
      <trkpt lat="41.76241" lon="19.6729">
        <ele>56.430396</ele>
        <time>2022-05-14T12:59:12.080Z</time>
      </trkpt>
      <trkpt lat="41.76251" lon="19.67293">
        <ele>56.443353</ele>
        <time>2022-05-14T12:59:14.091Z</time>
      </trkpt>
      <trkpt lat="41.76261" lon="19.67296">
        <ele>56.456094</ele>
        <time>2022-05-14T12:59:16.096Z</time>
      </trkpt>
      <trkpt lat="41.7627" lon="19.67297">
        <ele>56.468208</ele>
        <time>2022-05-14T12:59:18.082Z</time>
      </trkpt>
      <trkpt lat="41.76283" lon="19.67298">
        <ele>56.484428</ele>
        <time>2022-05-14T12:59:21.063Z</time>
      </trkpt>
      <trkpt lat="41.76294" lon="19.67294">
        <ele>56.499009</ele>
        <time>2022-05-14T12:59:24.091Z</time>
      </trkpt>
      <trkpt lat="41.76306" lon="19.67285">
        <ele>56.515639</ele>
        <time>2022-05-14T12:59:27.086Z</time>
      </trkpt>
      <trkpt lat="41.76317" lon="19.67276">
        <ele>56.531998</ele>
        <time>2022-05-14T12:59:30.115Z</time>
      </trkpt>
      <trkpt lat="41.76327" lon="19.67266">
        <ele>56.547574</ele>
        <time>2022-05-14T12:59:33.094Z</time>
      </trkpt>
      <trkpt lat="41.76337" lon="19.67256">
        <ele>56.563702</ele>
        <time>2022-05-14T12:59:36.076Z</time>
      </trkpt>
      <trkpt lat="41.76345" lon="19.67248">
        <ele>56.576297</ele>
        <time>2022-05-14T12:59:38.089Z</time>
      </trkpt>
      <trkpt lat="41.76354" lon="19.67236">
        <ele>56.592885</ele>
        <time>2022-05-14T12:59:41.119Z</time>
      </trkpt>
      <trkpt lat="41.76364" lon="19.67223">
        <ele>56.610031</ele>
        <time>2022-05-14T12:59:44.111Z</time>
      </trkpt>
      <trkpt lat="41.76372" lon="19.67209">
        <ele>56.62672</ele>
        <time>2022-05-14T12:59:47.120Z</time>
      </trkpt>
      <trkpt lat="41.76378" lon="19.672">
        <ele>56.61132</ele>
        <time>2022-05-14T12:59:49.081Z</time>
      </trkpt>
      <trkpt lat="41.76383" lon="19.6719">
        <ele>56.545211</ele>
        <time>2022-05-14T12:59:51.089Z</time>
      </trkpt>
      <trkpt lat="41.76389" lon="19.67181">
        <ele>56.479127</ele>
        <time>2022-05-14T12:59:53.134Z</time>
      </trkpt>
      <trkpt lat="41.76394" lon="19.67171">
        <ele>56.412123</ele>
        <time>2022-05-14T12:59:55.097Z</time>
      </trkpt>
      <trkpt lat="41.76399" lon="19.67161">
        <ele>56.344288</ele>
        <time>2022-05-14T12:59:57.085Z</time>
      </trkpt>
      <trkpt lat="41.76405" lon="19.6715">
        <ele>56.273792</ele>
        <time>2022-05-14T12:59:59.076Z</time>
      </trkpt>
      <trkpt lat="41.76412" lon="19.67141">
        <ele>56.203157</ele>
        <time>2022-05-14T13:00:01.086Z</time>
      </trkpt>
      <trkpt lat="41.76418" lon="19.67131">
        <ele>56.134566</ele>
        <time>2022-05-14T13:00:03.087Z</time>
      </trkpt>
      <trkpt lat="41.76424" lon="19.67122">
        <ele>56.066379</ele>
        <time>2022-05-14T13:00:05.084Z</time>
      </trkpt>
      <trkpt lat="41.76432" lon="19.67109">
        <ele>55.974733</ele>
        <time>2022-05-14T13:00:08.069Z</time>
      </trkpt>
      <trkpt lat="41.76439" lon="19.67095">
        <ele>55.880367</ele>
        <time>2022-05-14T13:00:11.086Z</time>
      </trkpt>
      <trkpt lat="41.76446" lon="19.6708">
        <ele>55.784708</ele>
        <time>2022-05-14T13:00:14.085Z</time>
      </trkpt>
      <trkpt lat="41.76451" lon="19.67064">
        <ele>55.692296</ele>
        <time>2022-05-14T13:00:17.078Z</time>
      </trkpt>
      <trkpt lat="41.76457" lon="19.67049">
        <ele>55.599567</ele>
        <time>2022-05-14T13:00:20.083Z</time>
      </trkpt>
      <trkpt lat="41.76463" lon="19.67033">
        <ele>55.502918</ele>
        <time>2022-05-14T13:00:23.096Z</time>
      </trkpt>
      <trkpt lat="41.76468" lon="19.67023">
        <ele>55.435496</ele>
        <time>2022-05-14T13:00:25.082Z</time>
      </trkpt>
      <trkpt lat="41.76477" lon="19.6701">
        <ele>55.339155</ele>
        <time>2022-05-14T13:00:28.070Z</time>
      </trkpt>
      <trkpt lat="41.76484" lon="19.67002">
        <ele>55.176772</ele>
        <time>2022-05-14T13:00:30.067Z</time>
      </trkpt>
      <trkpt lat="41.76491" lon="19.66994">
        <ele>54.968821</ele>
        <time>2022-05-14T13:00:32.098Z</time>
      </trkpt>
      <trkpt lat="41.76501" lon="19.66983">
        <ele>54.693584</ele>
        <time>2022-05-14T13:00:35.094Z</time>
      </trkpt>
      <trkpt lat="41.7651" lon="19.66973">
        <ele>54.434586</ele>
        <time>2022-05-14T13:00:38.079Z</time>
      </trkpt>
      <trkpt lat="41.76519" lon="19.66963">
        <ele>54.166679</ele>
        <time>2022-05-14T13:00:41.082Z</time>
      </trkpt>
      <trkpt lat="41.76529" lon="19.66952">
        <ele>53.891443</ele>
        <time>2022-05-14T13:00:44.090Z</time>
      </trkpt>
      <trkpt lat="41.76538" lon="19.66941">
        <ele>53.625251</ele>
        <time>2022-05-14T13:00:47.082Z</time>
      </trkpt>
      <trkpt lat="41.76548" lon="19.66931">
        <ele>53.353163</ele>
        <time>2022-05-14T13:00:50.074Z</time>
      </trkpt>
      <trkpt lat="41.76558" lon="19.66921">
        <ele>53.083821</ele>
        <time>2022-05-14T13:00:53.081Z</time>
      </trkpt>
      <trkpt lat="41.76567" lon="19.66911">
        <ele>52.827567</ele>
        <time>2022-05-14T13:00:56.100Z</time>
      </trkpt>
      <trkpt lat="41.76575" lon="19.66903">
        <ele>52.601404</ele>
        <time>2022-05-14T13:00:59.090Z</time>
      </trkpt>
      <trkpt lat="41.76583" lon="19.66896">
        <ele>52.391135</ele>
        <time>2022-05-14T13:01:02.078Z</time>
      </trkpt>
      <trkpt lat="41.76592" lon="19.66889">
        <ele>52.167792</ele>
        <time>2022-05-14T13:01:05.083Z</time>
      </trkpt>
      <trkpt lat="41.76601" lon="19.66882">
        <ele>51.93617</ele>
        <time>2022-05-14T13:01:08.074Z</time>
      </trkpt>
      <trkpt lat="41.76611" lon="19.66877">
        <ele>51.698248</ele>
        <time>2022-05-14T13:01:11.092Z</time>
      </trkpt>
      <trkpt lat="41.7662" lon="19.66871">
        <ele>51.473141</ele>
        <time>2022-05-14T13:01:14.085Z</time>
      </trkpt>
      <trkpt lat="41.76631" lon="19.66866">
        <ele>51.276678</ele>
        <time>2022-05-14T13:01:17.074Z</time>
      </trkpt>
      <trkpt lat="41.7664" lon="19.6686">
        <ele>51.141185</ele>
        <time>2022-05-14T13:01:20.084Z</time>
      </trkpt>
      <trkpt lat="41.7665" lon="19.66855">
        <ele>51.006547</ele>
        <time>2022-05-14T13:01:23.115Z</time>
      </trkpt>
      <trkpt lat="41.76659" lon="19.66849">
        <ele>50.865517</ele>
        <time>2022-05-14T13:01:26.071Z</time>
      </trkpt>
      <trkpt lat="41.7667" lon="19.66844">
        <ele>50.718311</ele>
        <time>2022-05-14T13:01:29.113Z</time>
      </trkpt>
      <trkpt lat="41.7668" lon="19.66839">
        <ele>50.579124</ele>
        <time>2022-05-14T13:01:32.084Z</time>
      </trkpt>
      <trkpt lat="41.76689" lon="19.66834">
        <ele>50.448533</ele>
        <time>2022-05-14T13:01:35.120Z</time>
      </trkpt>
      <trkpt lat="41.76699" lon="19.66829">
        <ele>50.30598</ele>
        <time>2022-05-14T13:01:38.085Z</time>
      </trkpt>
      <trkpt lat="41.7671" lon="19.66824">
        <ele>50.147711</ele>
        <time>2022-05-14T13:01:41.084Z</time>
      </trkpt>
      <trkpt lat="41.76722" lon="19.66818">
        <ele>49.979722</ele>
        <time>2022-05-14T13:01:44.094Z</time>
      </trkpt>
      <trkpt lat="41.76734" lon="19.66811">
        <ele>49.802205</ele>
        <time>2022-05-14T13:01:47.083Z</time>
      </trkpt>
      <trkpt lat="41.76743" lon="19.66807">
        <ele>49.677147</ele>
        <time>2022-05-14T13:01:49.086Z</time>
      </trkpt>
      <trkpt lat="41.76752" lon="19.66802">
        <ele>49.547671</ele>
        <time>2022-05-14T13:01:51.081Z</time>
      </trkpt>
      <trkpt lat="41.76762" lon="19.66797">
        <ele>49.412178</ele>
        <time>2022-05-14T13:01:53.086Z</time>
      </trkpt>
      <trkpt lat="41.76771" lon="19.66792">
        <ele>49.28639</ele>
        <time>2022-05-14T13:01:55.085Z</time>
      </trkpt>
      <trkpt lat="41.7678" lon="19.66787">
        <ele>49.157271</ele>
        <time>2022-05-14T13:01:57.082Z</time>
      </trkpt>
      <trkpt lat="41.76789" lon="19.66782">
        <ele>49.026562</ele>
        <time>2022-05-14T13:01:59.091Z</time>
      </trkpt>
      <trkpt lat="41.76799" lon="19.66777">
        <ele>48.907377</ele>
        <time>2022-05-14T13:02:01.083Z</time>
      </trkpt>
      <trkpt lat="41.76809" lon="19.66772">
        <ele>48.80095</ele>
        <time>2022-05-14T13:02:03.084Z</time>
      </trkpt>
      <trkpt lat="41.76818" lon="19.66767">
        <ele>48.697304</ele>
        <time>2022-05-14T13:02:05.088Z</time>
      </trkpt>
      <trkpt lat="41.76828" lon="19.66762">
        <ele>48.59479</ele>
        <time>2022-05-14T13:02:07.074Z</time>
      </trkpt>
      <trkpt lat="41.76837" lon="19.66756">
        <ele>48.492361</ele>
        <time>2022-05-14T13:02:09.096Z</time>
      </trkpt>
      <trkpt lat="41.76847" lon="19.66751">
        <ele>48.389291</ele>
        <time>2022-05-14T13:02:11.085Z</time>
      </trkpt>
      <trkpt lat="41.76856" lon="19.66745">
        <ele>48.284717</ele>
        <time>2022-05-14T13:02:13.069Z</time>
      </trkpt>
      <trkpt lat="41.76866" lon="19.6674">
        <ele>48.180145</ele>
        <time>2022-05-14T13:02:15.072Z</time>
      </trkpt>
      <trkpt lat="41.76875" lon="19.66734">
        <ele>48.076789</ele>
        <time>2022-05-14T13:02:17.084Z</time>
      </trkpt>
      <trkpt lat="41.76885" lon="19.66729">
        <ele>47.974276</ele>
        <time>2022-05-14T13:02:19.092Z</time>
      </trkpt>
      <trkpt lat="41.76895" lon="19.66724">
        <ele>47.865453</ele>
        <time>2022-05-14T13:02:21.119Z</time>
      </trkpt>
      <trkpt lat="41.76905" lon="19.66717">
        <ele>47.753242</ele>
        <time>2022-05-14T13:02:23.093Z</time>
      </trkpt>
      <trkpt lat="41.76915" lon="19.66711">
        <ele>47.642259</ele>
        <time>2022-05-14T13:02:25.077Z</time>
      </trkpt>
      <trkpt lat="41.76924" lon="19.66705">
        <ele>47.535226</ele>
        <time>2022-05-14T13:02:27.118Z</time>
      </trkpt>
      <trkpt lat="41.76933" lon="19.66698">
        <ele>47.432922</ele>
        <time>2022-05-14T13:02:29.077Z</time>
      </trkpt>
      <trkpt lat="41.76941" lon="19.66689">
        <ele>47.329756</ele>
        <time>2022-05-14T13:02:31.077Z</time>
      </trkpt>
      <trkpt lat="41.76948" lon="19.6668">
        <ele>47.233252</ele>
        <time>2022-05-14T13:02:33.066Z</time>
      </trkpt>
      <trkpt lat="41.76954" lon="19.6667">
        <ele>47.153711</ele>
        <time>2022-05-14T13:02:35.071Z</time>
      </trkpt>
      <trkpt lat="41.76961" lon="19.66661">
        <ele>47.104721</ele>
        <time>2022-05-14T13:02:37.092Z</time>
      </trkpt>
      <trkpt lat="41.76968" lon="19.66651">
        <ele>47.057902</ele>
        <time>2022-05-14T13:02:39.096Z</time>
      </trkpt>
      <trkpt lat="41.76973" lon="19.66641">
        <ele>47.012622</ele>
        <time>2022-05-14T13:02:41.086Z</time>
      </trkpt>
      <trkpt lat="41.7698" lon="19.66632">
        <ele>46.968293</ele>
        <time>2022-05-14T13:02:43.076Z</time>
      </trkpt>
      <trkpt lat="41.76987" lon="19.66623">
        <ele>46.920453</ele>
        <time>2022-05-14T13:02:45.085Z</time>
      </trkpt>
      <trkpt lat="41.76993" lon="19.66614">
        <ele>46.872928</ele>
        <time>2022-05-14T13:02:47.098Z</time>
      </trkpt>
      <trkpt lat="41.77" lon="19.66604">
        <ele>46.826868</ele>
        <time>2022-05-14T13:02:49.125Z</time>
      </trkpt>
      <trkpt lat="41.77006" lon="19.66595">
        <ele>46.780807</ele>
        <time>2022-05-14T13:02:51.099Z</time>
      </trkpt>
      <trkpt lat="41.77012" lon="19.66585">
        <ele>46.734936</ele>
        <time>2022-05-14T13:02:53.068Z</time>
      </trkpt>
      <trkpt lat="41.77021" lon="19.66573">
        <ele>46.670492</ele>
        <time>2022-05-14T13:02:56.095Z</time>
      </trkpt>
      <trkpt lat="41.77028" lon="19.66564">
        <ele>46.625828</ele>
        <time>2022-05-14T13:02:58.077Z</time>
      </trkpt>
      <trkpt lat="41.77037" lon="19.66552">
        <ele>46.560772</ele>
        <time>2022-05-14T13:03:01.125Z</time>
      </trkpt>
      <trkpt lat="41.77046" lon="19.66539">
        <ele>46.498731</ele>
        <time>2022-05-14T13:03:04.067Z</time>
      </trkpt>
      <trkpt lat="41.77055" lon="19.66527">
        <ele>46.438892</ele>
        <time>2022-05-14T13:03:07.086Z</time>
      </trkpt>
      <trkpt lat="41.77063" lon="19.66515">
        <ele>46.378784</ele>
        <time>2022-05-14T13:03:10.100Z</time>
      </trkpt>
      <trkpt lat="41.77072" lon="19.66502">
        <ele>46.313887</ele>
        <time>2022-05-14T13:03:13.122Z</time>
      </trkpt>
      <trkpt lat="41.77078" lon="19.66493">
        <ele>46.240161</ele>
        <time>2022-05-14T13:03:15.118Z</time>
      </trkpt>
      <trkpt lat="41.77085" lon="19.66479">
        <ele>46.098684</ele>
        <time>2022-05-14T13:03:18.104Z</time>
      </trkpt>
      <trkpt lat="41.77092" lon="19.66466">
        <ele>45.968919</ele>
        <time>2022-05-14T13:03:21.120Z</time>
      </trkpt>
      <trkpt lat="41.77097" lon="19.66453">
        <ele>45.841839</ele>
        <time>2022-05-14T13:03:24.076Z</time>
      </trkpt>
      <trkpt lat="41.77102" lon="19.66438">
        <ele>45.706407</ele>
        <time>2022-05-14T13:03:27.097Z</time>
      </trkpt>
      <trkpt lat="41.77103" lon="19.66422">
        <ele>45.573194</ele>
        <time>2022-05-14T13:03:30.081Z</time>
      </trkpt>
      <trkpt lat="41.77102" lon="19.66405">
        <ele>45.429893</ele>
        <time>2022-05-14T13:03:33.067Z</time>
      </trkpt>
      <trkpt lat="41.771" lon="19.66388">
        <ele>45.285125</ele>
        <time>2022-05-14T13:03:36.092Z</time>
      </trkpt>
      <trkpt lat="41.77098" lon="19.66371">
        <ele>45.141024</ele>
        <time>2022-05-14T13:03:39.096Z</time>
      </trkpt>
      <trkpt lat="41.77096" lon="19.66355">
        <ele>45.004036</ele>
        <time>2022-05-14T13:03:42.069Z</time>
      </trkpt>
      <trkpt lat="41.77094" lon="19.66338">
        <ele>44.861177</ele>
        <time>2022-05-14T13:03:45.087Z</time>
      </trkpt>
      <trkpt lat="41.77092" lon="19.66326">
        <ele>44.759839</ele>
        <time>2022-05-14T13:03:47.111Z</time>
      </trkpt>
      <trkpt lat="41.7709" lon="19.66308">
        <ele>44.610111</ele>
        <time>2022-05-14T13:03:50.099Z</time>
      </trkpt>
      <trkpt lat="41.77088" lon="19.66292">
        <ele>44.467994</ele>
        <time>2022-05-14T13:03:53.096Z</time>
      </trkpt>
      <trkpt lat="41.77088" lon="19.66279">
        <ele>44.360791</ele>
        <time>2022-05-14T13:03:55.079Z</time>
      </trkpt>
      <trkpt lat="41.77087" lon="19.66266">
        <ele>44.215451</ele>
        <time>2022-05-14T13:03:57.089Z</time>
      </trkpt>
      <trkpt lat="41.77088" lon="19.66254">
        <ele>43.895912</ele>
        <time>2022-05-14T13:03:59.082Z</time>
      </trkpt>
      <trkpt lat="41.77089" lon="19.66241">
        <ele>43.5621</ele>
        <time>2022-05-14T13:04:01.076Z</time>
      </trkpt>
      <trkpt lat="41.77091" lon="19.66229">
        <ele>43.235248</ele>
        <time>2022-05-14T13:04:03.088Z</time>
      </trkpt>
      <trkpt lat="41.77093" lon="19.66217">
        <ele>42.921927</ele>
        <time>2022-05-14T13:04:05.091Z</time>
      </trkpt>
      <trkpt lat="41.77095" lon="19.66204">
        <ele>42.571317</ele>
        <time>2022-05-14T13:04:07.084Z</time>
      </trkpt>
      <trkpt lat="41.77098" lon="19.6619">
        <ele>42.179137</ele>
        <time>2022-05-14T13:04:09.074Z</time>
      </trkpt>
      <trkpt lat="41.77102" lon="19.66177">
        <ele>41.810056</ele>
        <time>2022-05-14T13:04:11.085Z</time>
      </trkpt>
      <trkpt lat="41.77106" lon="19.66166">
        <ele>41.474864</ele>
        <time>2022-05-14T13:04:13.084Z</time>
      </trkpt>
      <trkpt lat="41.77112" lon="19.66154">
        <ele>41.113295</ele>
        <time>2022-05-14T13:04:15.116Z</time>
      </trkpt>
      <trkpt lat="41.77118" lon="19.66143">
        <ele>40.75246</ele>
        <time>2022-05-14T13:04:17.084Z</time>
      </trkpt>
      <trkpt lat="41.77125" lon="19.66134">
        <ele>40.417233</ele>
        <time>2022-05-14T13:04:19.091Z</time>
      </trkpt>
      <trkpt lat="41.77132" lon="19.66125">
        <ele>40.076229</ele>
        <time>2022-05-14T13:04:21.116Z</time>
      </trkpt>
      <trkpt lat="41.77139" lon="19.66116">
        <ele>39.731821</ele>
        <time>2022-05-14T13:04:23.098Z</time>
      </trkpt>
      <trkpt lat="41.77147" lon="19.66108">
        <ele>39.390889</ele>
        <time>2022-05-14T13:04:25.094Z</time>
      </trkpt>
      <trkpt lat="41.77156" lon="19.66096">
        <ele>38.955736</ele>
        <time>2022-05-14T13:04:28.090Z</time>
      </trkpt>
      <trkpt lat="41.77163" lon="19.66087">
        <ele>38.598823</ele>
        <time>2022-05-14T13:04:30.093Z</time>
      </trkpt>
      <trkpt lat="41.7717" lon="19.66078">
        <ele>38.254925</ele>
        <time>2022-05-14T13:04:32.101Z</time>
      </trkpt>
      <trkpt lat="41.77178" lon="19.66067">
        <ele>38.135739</ele>
        <time>2022-05-14T13:04:34.089Z</time>
      </trkpt>
      <trkpt lat="41.77186" lon="19.66056">
        <ele>38.782152</ele>
        <time>2022-05-14T13:04:36.084Z</time>
      </trkpt>
      <trkpt lat="41.77194" lon="19.66046">
        <ele>39.37</ele>
        <time>2022-05-14T13:04:38.077Z</time>
      </trkpt>
      <trkpt lat="41.77201" lon="19.66035">
        <ele>39.985401</ele>
        <time>2022-05-14T13:04:40.086Z</time>
      </trkpt>
      <trkpt lat="41.77208" lon="19.66026">
        <ele>40.519948</ele>
        <time>2022-05-14T13:04:42.082Z</time>
      </trkpt>
      <trkpt lat="41.77214" lon="19.66017">
        <ele>41.028354</ele>
        <time>2022-05-14T13:04:44.093Z</time>
      </trkpt>
      <trkpt lat="41.77223" lon="19.66005">
        <ele>41.703717</ele>
        <time>2022-05-14T13:04:47.080Z</time>
      </trkpt>
      <trkpt lat="41.77231" lon="19.65994">
        <ele>42.384537</ele>
        <time>2022-05-14T13:04:51.084Z</time>
      </trkpt>
      <trkpt lat="41.77241" lon="19.65983">
        <ele>43.081457</ele>
        <time>2022-05-14T13:04:54.086Z</time>
      </trkpt>
      <trkpt lat="41.77248" lon="19.65974">
        <ele>43.641466</ele>
        <time>2022-05-14T13:04:56.114Z</time>
      </trkpt>
      <trkpt lat="41.77255" lon="19.65965">
        <ele>44.168301</ele>
        <time>2022-05-14T13:04:58.071Z</time>
      </trkpt>
      <trkpt lat="41.77263" lon="19.65956">
        <ele>44.767114</ele>
        <time>2022-05-14T13:05:00.090Z</time>
      </trkpt>
      <trkpt lat="41.77271" lon="19.65946">
        <ele>45.37693</ele>
        <time>2022-05-14T13:05:02.085Z</time>
      </trkpt>
      <trkpt lat="41.7728" lon="19.65936">
        <ele>45.981186</ele>
        <time>2022-05-14T13:05:04.083Z</time>
      </trkpt>
      <trkpt lat="41.77287" lon="19.65926">
        <ele>46.591392</ele>
        <time>2022-05-14T13:05:06.077Z</time>
      </trkpt>
      <trkpt lat="41.77297" lon="19.65914">
        <ele>47.28431</ele>
        <time>2022-05-14T13:05:08.086Z</time>
      </trkpt>
      <trkpt lat="41.77305" lon="19.65904">
        <ele>47.931519</ele>
        <time>2022-05-14T13:05:10.078Z</time>
      </trkpt>
      <trkpt lat="41.77314" lon="19.65893">
        <ele>48.231459</ele>
        <time>2022-05-14T13:05:12.095Z</time>
      </trkpt>
      <trkpt lat="41.77322" lon="19.65883">
        <ele>48.494842</ele>
        <time>2022-05-14T13:05:14.091Z</time>
      </trkpt>
      <trkpt lat="41.77329" lon="19.65874">
        <ele>48.721498</ele>
        <time>2022-05-14T13:05:16.073Z</time>
      </trkpt>
      <trkpt lat="41.77338" lon="19.65861">
        <ele>49.023867</ele>
        <time>2022-05-14T13:05:19.101Z</time>
      </trkpt>
      <trkpt lat="41.77347" lon="19.65848">
        <ele>49.326832</ele>
        <time>2022-05-14T13:05:22.106Z</time>
      </trkpt>
      <trkpt lat="41.77353" lon="19.65839">
        <ele>49.540376</ele>
        <time>2022-05-14T13:05:24.109Z</time>
      </trkpt>
      <trkpt lat="41.77359" lon="19.6583">
        <ele>49.757221</ele>
        <time>2022-05-14T13:05:26.090Z</time>
      </trkpt>
      <trkpt lat="41.77366" lon="19.6582">
        <ele>49.99187</ele>
        <time>2022-05-14T13:05:28.083Z</time>
      </trkpt>
      <trkpt lat="41.77372" lon="19.65809">
        <ele>50.220868</ele>
        <time>2022-05-14T13:05:30.131Z</time>
      </trkpt>
      <trkpt lat="41.77378" lon="19.658">
        <ele>50.430711</ele>
        <time>2022-05-14T13:05:32.096Z</time>
      </trkpt>
      <trkpt lat="41.77386" lon="19.65787">
        <ele>50.735738</ele>
        <time>2022-05-14T13:05:35.108Z</time>
      </trkpt>
      <trkpt lat="41.77395" lon="19.65774">
        <ele>51.051129</ele>
        <time>2022-05-14T13:05:38.060Z</time>
      </trkpt>
      <trkpt lat="41.77404" lon="19.65761">
        <ele>51.358234</ele>
        <time>2022-05-14T13:05:41.115Z</time>
      </trkpt>
      <trkpt lat="41.77413" lon="19.65747">
        <ele>51.665701</ele>
        <time>2022-05-14T13:05:44.095Z</time>
      </trkpt>
      <trkpt lat="41.77421" lon="19.65734">
        <ele>51.967677</ele>
        <time>2022-05-14T13:05:47.119Z</time>
      </trkpt>
      <trkpt lat="41.77429" lon="19.6572">
        <ele>52.147545</ele>
        <time>2022-05-14T13:05:50.094Z</time>
      </trkpt>
      <trkpt lat="41.77436" lon="19.65706">
        <ele>52.078265</ele>
        <time>2022-05-14T13:05:53.126Z</time>
      </trkpt>
      <trkpt lat="41.7744" lon="19.65695">
        <ele>52.029251</ele>
        <time>2022-05-14T13:05:55.077Z</time>
      </trkpt>
      <trkpt lat="41.77444" lon="19.65683">
        <ele>51.978599</ele>
        <time>2022-05-14T13:05:57.096Z</time>
      </trkpt>
      <trkpt lat="41.77448" lon="19.65671">
        <ele>51.926779</ele>
        <time>2022-05-14T13:05:59.117Z</time>
      </trkpt>
      <trkpt lat="41.77451" lon="19.65658">
        <ele>51.873708</ele>
        <time>2022-05-14T13:06:01.076Z</time>
      </trkpt>
      <trkpt lat="41.77455" lon="19.65646">
        <ele>51.820264</ele>
        <time>2022-05-14T13:06:03.062Z</time>
      </trkpt>
      <trkpt lat="41.77458" lon="19.65633">
        <ele>51.765699</ele>
        <time>2022-05-14T13:06:05.072Z</time>
      </trkpt>
      <trkpt lat="41.77462" lon="19.6562">
        <ele>51.710902</ele>
        <time>2022-05-14T13:06:07.089Z</time>
      </trkpt>
      <trkpt lat="41.77466" lon="19.65607">
        <ele>51.655036</ele>
        <time>2022-05-14T13:06:09.084Z</time>
      </trkpt>
      <trkpt lat="41.77469" lon="19.65594">
        <ele>51.599528</ele>
        <time>2022-05-14T13:06:11.114Z</time>
      </trkpt>
      <trkpt lat="41.77472" lon="19.65582">
        <ele>51.548468</ele>
        <time>2022-05-14T13:06:13.082Z</time>
      </trkpt>
      <trkpt lat="41.77475" lon="19.65569">
        <ele>51.496313</ele>
        <time>2022-05-14T13:06:15.081Z</time>
      </trkpt>
      <trkpt lat="41.77479" lon="19.65556">
        <ele>51.440805</ele>
        <time>2022-05-14T13:06:17.133Z</time>
      </trkpt>
      <trkpt lat="41.77482" lon="19.65543">
        <ele>51.384336</ele>
        <time>2022-05-14T13:06:19.083Z</time>
      </trkpt>
      <trkpt lat="41.77485" lon="19.65529">
        <ele>51.325597</ele>
        <time>2022-05-14T13:06:21.082Z</time>
      </trkpt>
      <trkpt lat="41.77488" lon="19.65516">
        <ele>51.273564</ele>
        <time>2022-05-14T13:06:23.065Z</time>
      </trkpt>
      <trkpt lat="41.77491" lon="19.65504">
        <ele>51.224948</ele>
        <time>2022-05-14T13:06:25.078Z</time>
      </trkpt>
      <trkpt lat="41.77494" lon="19.65493">
        <ele>51.517899</ele>
        <time>2022-05-14T13:06:27.079Z</time>
      </trkpt>
      <trkpt lat="41.77497" lon="19.65481">
        <ele>51.958796</ele>
        <time>2022-05-14T13:06:29.074Z</time>
      </trkpt>
      <trkpt lat="41.775" lon="19.65468">
        <ele>52.431704</ele>
        <time>2022-05-14T13:06:31.073Z</time>
      </trkpt>
      <trkpt lat="41.77502" lon="19.65455">
        <ele>52.939684</ele>
        <time>2022-05-14T13:06:33.122Z</time>
      </trkpt>
      <trkpt lat="41.77505" lon="19.65441">
        <ele>53.431497</ele>
        <time>2022-05-14T13:06:35.097Z</time>
      </trkpt>
      <trkpt lat="41.77508" lon="19.65428">
        <ele>53.924238</ele>
        <time>2022-05-14T13:06:37.092Z</time>
      </trkpt>
      <trkpt lat="41.7751" lon="19.65414">
        <ele>54.424126</ele>
        <time>2022-05-14T13:06:39.087Z</time>
      </trkpt>
      <trkpt lat="41.77513" lon="19.65401">
        <ele>54.909033</ele>
        <time>2022-05-14T13:06:41.081Z</time>
      </trkpt>
      <trkpt lat="41.77515" lon="19.65388">
        <ele>55.390316</ele>
        <time>2022-05-14T13:06:43.098Z</time>
      </trkpt>
      <trkpt lat="41.77517" lon="19.65375">
        <ele>55.867397</ele>
        <time>2022-05-14T13:06:45.088Z</time>
      </trkpt>
      <trkpt lat="41.77519" lon="19.65362">
        <ele>56.339745</ele>
        <time>2022-05-14T13:06:47.111Z</time>
      </trkpt>
      <trkpt lat="41.77522" lon="19.65349">
        <ele>56.803976</ele>
        <time>2022-05-14T13:06:49.079Z</time>
      </trkpt>
      <trkpt lat="41.77525" lon="19.65336">
        <ele>57.293523</ele>
        <time>2022-05-14T13:06:51.091Z</time>
      </trkpt>
      <trkpt lat="41.77527" lon="19.65323">
        <ele>57.782055</ele>
        <time>2022-05-14T13:06:53.085Z</time>
      </trkpt>
      <trkpt lat="41.77528" lon="19.6531">
        <ele>58.225207</ele>
        <time>2022-05-14T13:06:55.119Z</time>
      </trkpt>
      <trkpt lat="41.77528" lon="19.65296">
        <ele>58.73617</ele>
        <time>2022-05-14T13:06:57.088Z</time>
      </trkpt>
      <trkpt lat="41.77529" lon="19.6528">
        <ele>59.288378</ele>
        <time>2022-05-14T13:06:59.088Z</time>
      </trkpt>
      <trkpt lat="41.77529" lon="19.65264">
        <ele>59.850242</ele>
        <time>2022-05-14T13:07:01.101Z</time>
      </trkpt>
      <trkpt lat="41.7753" lon="19.65249">
        <ele>60.296534</ele>
        <time>2022-05-14T13:07:03.069Z</time>
      </trkpt>
      <trkpt lat="41.7753" lon="19.65235">
        <ele>60.718925</ele>
        <time>2022-05-14T13:07:05.086Z</time>
      </trkpt>
      <trkpt lat="41.7753" lon="19.6522">
        <ele>61.129721</ele>
        <time>2022-05-14T13:07:07.074Z</time>
      </trkpt>
      <trkpt lat="41.77529" lon="19.65205">
        <ele>61.567095</ele>
        <time>2022-05-14T13:07:09.096Z</time>
      </trkpt>
      <trkpt lat="41.77529" lon="19.65189">
        <ele>62.04483</ele>
        <time>2022-05-14T13:07:11.083Z</time>
      </trkpt>
      <trkpt lat="41.77528" lon="19.65174">
        <ele>62.485789</ele>
        <time>2022-05-14T13:07:13.086Z</time>
      </trkpt>
      <trkpt lat="41.77528" lon="19.6516">
        <ele>62.899884</ele>
        <time>2022-05-14T13:07:15.083Z</time>
      </trkpt>
      <trkpt lat="41.77527" lon="19.65146">
        <ele>63.313979</ele>
        <time>2022-05-14T13:07:17.092Z</time>
      </trkpt>
      <trkpt lat="41.77526" lon="19.65132">
        <ele>63.70626</ele>
        <time>2022-05-14T13:07:19.075Z</time>
      </trkpt>
      <trkpt lat="41.77526" lon="19.65119">
        <ele>64.079625</ele>
        <time>2022-05-14T13:07:21.059Z</time>
      </trkpt>
      <trkpt lat="41.77525" lon="19.65105">
        <ele>64.510382</ele>
        <time>2022-05-14T13:07:23.074Z</time>
      </trkpt>
      <trkpt lat="41.77523" lon="19.65089">
        <ele>64.958097</ele>
        <time>2022-05-14T13:07:25.067Z</time>
      </trkpt>
      <trkpt lat="41.77521" lon="19.65075">
        <ele>65.393172</ele>
        <time>2022-05-14T13:07:27.087Z</time>
      </trkpt>
      <trkpt lat="41.7752" lon="19.6506">
        <ele>65.831674</ele>
        <time>2022-05-14T13:07:29.109Z</time>
      </trkpt>
      <trkpt lat="41.77519" lon="19.65045">
        <ele>66.276518</ele>
        <time>2022-05-14T13:07:31.063Z</time>
      </trkpt>
      <trkpt lat="41.77518" lon="19.65029">
        <ele>66.717218</ele>
        <time>2022-05-14T13:07:33.082Z</time>
      </trkpt>
      <trkpt lat="41.77517" lon="19.65015">
        <ele>66.725979</ele>
        <time>2022-05-14T13:07:35.096Z</time>
      </trkpt>
      <trkpt lat="41.77516" lon="19.65001">
        <ele>66.601166</ele>
        <time>2022-05-14T13:07:37.115Z</time>
      </trkpt>
      <trkpt lat="41.77515" lon="19.64987">
        <ele>66.476012</ele>
        <time>2022-05-14T13:07:39.067Z</time>
      </trkpt>
      <trkpt lat="41.77514" lon="19.64971">
        <ele>66.335605</ele>
        <time>2022-05-14T13:07:41.069Z</time>
      </trkpt>
      <trkpt lat="41.77513" lon="19.64955">
        <ele>66.195678</ele>
        <time>2022-05-14T13:07:43.079Z</time>
      </trkpt>
      <trkpt lat="41.77512" lon="19.6494">
        <ele>66.061162</ele>
        <time>2022-05-14T13:07:45.084Z</time>
      </trkpt>
      <trkpt lat="41.77511" lon="19.64925">
        <ele>65.930051</ele>
        <time>2022-05-14T13:07:47.076Z</time>
      </trkpt>
      <trkpt lat="41.7751" lon="19.64911">
        <ele>65.798639</ele>
        <time>2022-05-14T13:07:49.087Z</time>
      </trkpt>
      <trkpt lat="41.77509" lon="19.64896">
        <ele>65.669532</ele>
        <time>2022-05-14T13:07:51.114Z</time>
      </trkpt>
      <trkpt lat="41.77508" lon="19.64882">
        <ele>65.5399</ele>
        <time>2022-05-14T13:07:53.081Z</time>
      </trkpt>
      <trkpt lat="41.77507" lon="19.64866">
        <ele>65.400291</ele>
        <time>2022-05-14T13:07:55.089Z</time>
      </trkpt>
      <trkpt lat="41.77507" lon="19.64851">
        <ele>65.264639</ele>
        <time>2022-05-14T13:07:57.084Z</time>
      </trkpt>
      <trkpt lat="41.77507" lon="19.64836">
        <ele>65.131514</ele>
        <time>2022-05-14T13:07:59.066Z</time>
      </trkpt>
      <trkpt lat="41.77506" lon="19.64822">
        <ele>65.007337</ele>
        <time>2022-05-14T13:08:01.069Z</time>
      </trkpt>
      <trkpt lat="41.77505" lon="19.64808">
        <ele>64.885446</ele>
        <time>2022-05-14T13:08:03.072Z</time>
      </trkpt>
      <trkpt lat="41.77503" lon="19.64792">
        <ele>64.740229</ele>
        <time>2022-05-14T13:08:06.097Z</time>
      </trkpt>
      <trkpt lat="41.77502" lon="19.64778">
        <ele>64.67645</ele>
        <time>2022-05-14T13:08:10.081Z</time>
      </trkpt>
      <trkpt lat="41.77502" lon="19.64766">
        <ele>64.661302</ele>
        <time>2022-05-14T13:08:16.079Z</time>
      </trkpt>
      <trkpt lat="41.77501" lon="19.64753">
        <ele>64.645174</ele>
        <time>2022-05-14T13:08:20.087Z</time>
      </trkpt>
      <trkpt lat="41.775" lon="19.64738">
        <ele>64.62686</ele>
        <time>2022-05-14T13:08:24.098Z</time>
      </trkpt>
      <trkpt lat="41.77498" lon="19.64725">
        <ele>64.610962</ele>
        <time>2022-05-14T13:08:28.065Z</time>
      </trkpt>
      <trkpt lat="41.77498" lon="19.6471">
        <ele>64.592469</ele>
        <time>2022-05-14T13:08:32.098Z</time>
      </trkpt>
      <trkpt lat="41.77497" lon="19.64696">
        <ele>64.574367</ele>
        <time>2022-05-14T13:08:35.090Z</time>
      </trkpt>
      <trkpt lat="41.77496" lon="19.64682">
        <ele>64.557357</ele>
        <time>2022-05-14T13:08:38.084Z</time>
      </trkpt>
      <trkpt lat="41.77495" lon="19.64665">
        <ele>64.536792</ele>
        <time>2022-05-14T13:08:41.140Z</time>
      </trkpt>
      <trkpt lat="41.77494" lon="19.64649">
        <ele>64.516524</ele>
        <time>2022-05-14T13:08:44.099Z</time>
      </trkpt>
      <trkpt lat="41.77492" lon="19.64632">
        <ele>64.495365</ele>
        <time>2022-05-14T13:08:47.112Z</time>
      </trkpt>
      <trkpt lat="41.77491" lon="19.64615">
        <ele>64.475202</ele>
        <time>2022-05-14T13:08:50.094Z</time>
      </trkpt>
      <trkpt lat="41.7749" lon="19.64602">
        <ele>64.458939</ele>
        <time>2022-05-14T13:08:53.102Z</time>
      </trkpt>
      <trkpt lat="41.7749" lon="19.64586">
        <ele>64.439393</ele>
        <time>2022-05-14T13:08:56.098Z</time>
      </trkpt>
      <trkpt lat="41.7749" lon="19.6457">
        <ele>64.418742</ele>
        <time>2022-05-14T13:08:59.064Z</time>
      </trkpt>
      <trkpt lat="41.77489" lon="19.64552">
        <ele>64.397073</ele>
        <time>2022-05-14T13:09:02.079Z</time>
      </trkpt>
      <trkpt lat="41.77488" lon="19.64538">
        <ele>64.259719</ele>
        <time>2022-05-14T13:09:05.071Z</time>
      </trkpt>
      <trkpt lat="41.77486" lon="19.64522">
        <ele>63.977863</ele>
        <time>2022-05-14T13:09:08.061Z</time>
      </trkpt>
      <trkpt lat="41.77485" lon="19.64507">
        <ele>63.719269</ele>
        <time>2022-05-14T13:09:11.071Z</time>
      </trkpt>
      <trkpt lat="41.77482" lon="19.64492">
        <ele>63.444511</ele>
        <time>2022-05-14T13:09:14.101Z</time>
      </trkpt>
      <trkpt lat="41.7748" lon="19.64479">
        <ele>63.225261</ele>
        <time>2022-05-14T13:09:16.086Z</time>
      </trkpt>
      <trkpt lat="41.77478" lon="19.64467">
        <ele>63.008425</ele>
        <time>2022-05-14T13:09:18.074Z</time>
      </trkpt>
      <trkpt lat="41.77477" lon="19.64454">
        <ele>62.772764</ele>
        <time>2022-05-14T13:09:20.131Z</time>
      </trkpt>
      <trkpt lat="41.77477" lon="19.64441">
        <ele>62.550892</ele>
        <time>2022-05-14T13:09:22.077Z</time>
      </trkpt>
      <trkpt lat="41.77477" lon="19.64428">
        <ele>62.328911</ele>
        <time>2022-05-14T13:09:24.087Z</time>
      </trkpt>
      <trkpt lat="41.77477" lon="19.64416">
        <ele>62.117439</ele>
        <time>2022-05-14T13:09:26.117Z</time>
      </trkpt>
      <trkpt lat="41.77479" lon="19.64401">
        <ele>61.854402</ele>
        <time>2022-05-14T13:09:29.101Z</time>
      </trkpt>
      <trkpt lat="41.77491" lon="19.64397">
        <ele>61.576913</ele>
        <time>2022-05-14T13:09:33.092Z</time>
      </trkpt>
      <trkpt lat="41.775" lon="19.64396">
        <ele>61.353756</ele>
        <time>2022-05-14T13:09:36.077Z</time>
      </trkpt>
      <trkpt lat="41.7751" lon="19.64396">
        <ele>61.120915</ele>
        <time>2022-05-14T13:09:39.091Z</time>
      </trkpt>
      <trkpt lat="41.77521" lon="19.64393">
        <ele>60.876201</ele>
        <time>2022-05-14T13:09:41.081Z</time>
      </trkpt>
      <trkpt lat="41.77529" lon="19.64386">
        <ele>60.643441</ele>
        <time>2022-05-14T13:09:46.123Z</time>
      </trkpt>
      <trkpt lat="41.77529" lon="19.64374">
        <ele>60.431856</ele>
        <time>2022-05-14T13:09:52.076Z</time>
      </trkpt>
      <trkpt lat="41.77529" lon="19.64361">
        <ele>60.208412</ele>
        <time>2022-05-14T13:09:55.142Z</time>
      </trkpt>
      <trkpt lat="41.77529" lon="19.64348">
        <ele>60.208412</ele>
        <time>2022-05-14T13:09:58.095Z</time>
      </trkpt>
      <trkpt lat="41.77529" lon="19.64334">
        <ele>60.208412</ele>
        <time>2022-05-14T13:10:02.081Z</time>
      </trkpt>
      <trkpt lat="41.77529" lon="19.64321">
        <ele>60.208412</ele>
        <time>2022-05-14T13:10:06.080Z</time>
      </trkpt>
      <trkpt lat="41.77529" lon="19.64308">
        <ele>60.208412</ele>
        <time>2022-05-14T13:10:10.084Z</time>
      </trkpt>
      <trkpt lat="41.77529" lon="19.64295">
        <ele>60.208412</ele>
        <time>2022-05-14T13:10:14.340Z</time>
      </trkpt>
      <trkpt lat="41.7753" lon="19.64282">
        <ele>60.208412</ele>
        <time>2022-05-14T13:10:19.080Z</time>
      </trkpt>
      <trkpt lat="41.7753" lon="19.6427">
        <ele>60.208412</ele>
        <time>2022-05-14T13:10:24.086Z</time>
      </trkpt>
      <trkpt lat="41.7753" lon="19.64256">
        <ele>60.208412</ele>
        <time>2022-05-14T13:10:28.079Z</time>
      </trkpt>
      <trkpt lat="41.77535" lon="19.64241">
        <ele>60.208412</ele>
        <time>2022-05-14T13:10:33.061Z</time>
      </trkpt>
      <trkpt lat="41.77526" lon="19.64246">
        <ele>60.208412</ele>
        <time>2022-05-14T13:10:39.061Z</time>
      </trkpt>
      <trkpt lat="41.77528" lon="19.64259">
        <ele>60.208412</ele>
        <time>2022-05-14T13:10:43.073Z</time>
      </trkpt>
      <trkpt lat="41.77533" lon="19.6427">
        <ele>60.208412</ele>
        <time>2022-05-14T13:10:48.078Z</time>
      </trkpt>
      <trkpt lat="41.77544" lon="19.64274">
        <ele>60.208412</ele>
        <time>2022-05-14T13:10:53.067Z</time>
      </trkpt>
      <trkpt lat="41.77555" lon="19.64273">
        <ele>60.208412</ele>
        <time>2022-05-14T13:10:58.087Z</time>
      </trkpt>
      <trkpt lat="41.77563" lon="19.64265">
        <ele>60.208412</ele>
        <time>2022-05-14T13:11:03.115Z</time>
      </trkpt>
      <trkpt lat="41.77557" lon="19.64255">
        <ele>60.208412</ele>
        <time>2022-05-14T13:11:19.089Z</time>
      </trkpt>
      <trkpt lat="41.77562" lon="19.64259">
        <ele>60.208412</ele>
        <time>2022-05-14T13:12:48.432Z</time>
      </trkpt>
    </trkseg>
  </trk>
  <trk>
    <name><![CDATA[Tour d'Europe: étape 677]]></name>
    <extensions>
      <line xmlns="http://www.topografix.com/GPX/gpx_style/0/2">
        <color>888800</color>
        <width>4</width>
      </line>
    </extensions>
    <trkseg>
      <trkpt lat="41.31417" lon="19.47179">
        <ele>122.422934</ele>
        <time>2022-05-06T07:58:55.233Z</time>
      </trkpt>
      <trkpt lat="41.31402" lon="19.47172">
        <ele>122.422934</ele>
        <time>2022-05-06T07:58:56.042Z</time>
      </trkpt>
      <trkpt lat="41.31423" lon="19.47181">
        <ele>122.422934</ele>
        <time>2022-05-06T07:59:02.581Z</time>
      </trkpt>
      <trkpt lat="41.31442" lon="19.47185">
        <ele>122.422934</ele>
        <time>2022-05-06T08:00:03.536Z</time>
      </trkpt>
      <trkpt lat="41.31462" lon="19.47171">
        <ele>122.422934</ele>
        <time>2022-05-06T08:25:56.541Z</time>
      </trkpt>
      <trkpt lat="41.31473" lon="19.4717">
        <ele>122.381689</ele>
        <time>2022-05-06T08:26:01.562Z</time>
      </trkpt>
      <trkpt lat="41.31484" lon="19.47151">
        <ele>115.195053</ele>
        <time>2022-05-06T08:26:11.554Z</time>
      </trkpt>
      <trkpt lat="41.31481" lon="19.47138">
        <ele>110.937025</ele>
        <time>2022-05-06T08:26:25.518Z</time>
      </trkpt>
      <trkpt lat="41.3148" lon="19.47125">
        <ele>107.148693</ele>
        <time>2022-05-06T08:26:29.546Z</time>
      </trkpt>
      <trkpt lat="41.31483" lon="19.47111">
        <ele>102.615284</ele>
        <time>2022-05-06T08:26:32.544Z</time>
      </trkpt>
      <trkpt lat="41.31487" lon="19.47098">
        <ele>98.449809</ele>
        <time>2022-05-06T08:26:34.541Z</time>
      </trkpt>
      <trkpt lat="41.31492" lon="19.47086">
        <ele>94.373858</ele>
        <time>2022-05-06T08:26:38.567Z</time>
      </trkpt>
      <trkpt lat="41.3149" lon="19.47074">
        <ele>90.626656</ele>
        <time>2022-05-06T08:26:40.681Z</time>
      </trkpt>
      <trkpt lat="41.31493" lon="19.4706">
        <ele>86.061263</ele>
        <time>2022-05-06T08:26:43.524Z</time>
      </trkpt>
      <trkpt lat="41.31494" lon="19.47045">
        <ele>81.747651</ele>
        <time>2022-05-06T08:26:46.534Z</time>
      </trkpt>
      <trkpt lat="41.31497" lon="19.47029">
        <ele>76.7239</ele>
        <time>2022-05-06T08:26:49.523Z</time>
      </trkpt>
      <trkpt lat="41.31499" lon="19.47015">
        <ele>72.443416</ele>
        <time>2022-05-06T08:26:52.573Z</time>
      </trkpt>
      <trkpt lat="41.31503" lon="19.47004">
        <ele>68.647944</ele>
        <time>2022-05-06T08:26:55.574Z</time>
      </trkpt>
      <trkpt lat="41.31512" lon="19.46999">
        <ele>64.636076</ele>
        <time>2022-05-06T08:27:00.567Z</time>
      </trkpt>
      <trkpt lat="41.31521" lon="19.46994">
        <ele>60.992161</ele>
        <time>2022-05-06T08:27:03.529Z</time>
      </trkpt>
      <trkpt lat="41.31525" lon="19.46982">
        <ele>57.037588</ele>
        <time>2022-05-06T08:27:06.530Z</time>
      </trkpt>
      <trkpt lat="41.31525" lon="19.46969">
        <ele>52.984591</ele>
        <time>2022-05-06T08:27:09.534Z</time>
      </trkpt>
      <trkpt lat="41.31522" lon="19.46955">
        <ele>49.730985</ele>
        <time>2022-05-06T08:27:13.551Z</time>
      </trkpt>
      <trkpt lat="41.31522" lon="19.4694">
        <ele>48.952506</ele>
        <time>2022-05-06T08:27:17.540Z</time>
      </trkpt>
      <trkpt lat="41.31523" lon="19.46925">
        <ele>48.13219</ele>
        <time>2022-05-06T08:27:21.530Z</time>
      </trkpt>
      <trkpt lat="41.31524" lon="19.46911">
        <ele>47.336234</ele>
        <time>2022-05-06T08:27:25.531Z</time>
      </trkpt>
      <trkpt lat="41.31524" lon="19.46896">
        <ele>46.553127</ele>
        <time>2022-05-06T08:27:29.543Z</time>
      </trkpt>
      <trkpt lat="41.31525" lon="19.46881">
        <ele>45.715392</ele>
        <time>2022-05-06T08:27:33.530Z</time>
      </trkpt>
      <trkpt lat="41.31531" lon="19.46868">
        <ele>44.884152</ele>
        <time>2022-05-06T08:27:37.540Z</time>
      </trkpt>
      <trkpt lat="41.31539" lon="19.46859">
        <ele>44.100717</ele>
        <time>2022-05-06T08:27:41.535Z</time>
      </trkpt>
      <trkpt lat="41.31547" lon="19.4685">
        <ele>43.370936</ele>
        <time>2022-05-06T08:27:45.575Z</time>
      </trkpt>
      <trkpt lat="41.31556" lon="19.46844">
        <ele>42.639666</ele>
        <time>2022-05-06T08:27:49.545Z</time>
      </trkpt>
      <trkpt lat="41.31566" lon="19.46837">
        <ele>41.788453</ele>
        <time>2022-05-06T08:27:53.534Z</time>
      </trkpt>
      <trkpt lat="41.31574" lon="19.46831">
        <ele>41.129961</ele>
        <time>2022-05-06T08:27:56.532Z</time>
      </trkpt>
      <trkpt lat="41.31582" lon="19.46824">
        <ele>40.466928</ele>
        <time>2022-05-06T08:27:59.586Z</time>
      </trkpt>
      <trkpt lat="41.31591" lon="19.46815">
        <ele>39.662527</ele>
        <time>2022-05-06T08:28:03.527Z</time>
      </trkpt>
      <trkpt lat="41.31598" lon="19.46804">
        <ele>38.894984</ele>
        <time>2022-05-06T08:28:07.540Z</time>
      </trkpt>
      <trkpt lat="41.31604" lon="19.46795">
        <ele>38.228826</ele>
        <time>2022-05-06T08:28:11.536Z</time>
      </trkpt>
      <trkpt lat="41.31608" lon="19.46784">
        <ele>37.573451</ele>
        <time>2022-05-06T08:28:15.532Z</time>
      </trkpt>
      <trkpt lat="41.31612" lon="19.46773">
        <ele>37.034288</ele>
        <time>2022-05-06T08:28:20.583Z</time>
      </trkpt>
      <trkpt lat="41.31616" lon="19.4676">
        <ele>37.461386</ele>
        <time>2022-05-06T08:28:24.532Z</time>
      </trkpt>
      <trkpt lat="41.31618" lon="19.46747">
        <ele>37.889605</ele>
        <time>2022-05-06T08:28:28.553Z</time>
      </trkpt>
      <trkpt lat="41.31618" lon="19.46733">
        <ele>38.323726</ele>
        <time>2022-05-06T08:28:32.550Z</time>
      </trkpt>
      <trkpt lat="41.31616" lon="19.4672">
        <ele>38.763609</ele>
        <time>2022-05-06T08:28:38.541Z</time>
      </trkpt>
      <trkpt lat="41.31617" lon="19.46706">
        <ele>39.183528</ele>
        <time>2022-05-06T08:28:46.529Z</time>
      </trkpt>
      <trkpt lat="41.31622" lon="19.46696">
        <ele>39.567128</ele>
        <time>2022-05-06T08:28:51.560Z</time>
      </trkpt>
      <trkpt lat="41.31629" lon="19.46687">
        <ele>39.981549</ele>
        <time>2022-05-06T08:28:56.539Z</time>
      </trkpt>
      <trkpt lat="41.31638" lon="19.46682">
        <ele>40.390555</ele>
        <time>2022-05-06T08:29:01.527Z</time>
      </trkpt>
      <trkpt lat="41.31649" lon="19.4668">
        <ele>40.861177</ele>
        <time>2022-05-06T08:29:05.537Z</time>
      </trkpt>
      <trkpt lat="41.31658" lon="19.46679">
        <ele>41.252148</ele>
        <time>2022-05-06T08:29:08.543Z</time>
      </trkpt>
      <trkpt lat="41.31667" lon="19.46671">
        <ele>41.697053</ele>
        <time>2022-05-06T08:29:12.548Z</time>
      </trkpt>
      <trkpt lat="41.3167" lon="19.46659">
        <ele>42.117145</ele>
        <time>2022-05-06T08:29:15.550Z</time>
      </trkpt>
      <trkpt lat="41.31673" lon="19.46645">
        <ele>42.57712</ele>
        <time>2022-05-06T08:29:18.547Z</time>
      </trkpt>
      <trkpt lat="41.31675" lon="19.46633">
        <ele>42.966716</ele>
        <time>2022-05-06T08:29:21.579Z</time>
      </trkpt>
      <trkpt lat="41.31678" lon="19.4662">
        <ele>43.381197</ele>
        <time>2022-05-06T08:29:24.551Z</time>
      </trkpt>
      <trkpt lat="41.31681" lon="19.46608">
        <ele>43.800528</ele>
        <time>2022-05-06T08:29:27.536Z</time>
      </trkpt>
      <trkpt lat="41.31684" lon="19.46594">
        <ele>44.261123</ele>
        <time>2022-05-06T08:29:30.581Z</time>
      </trkpt>
      <trkpt lat="41.31687" lon="19.4658">
        <ele>44.59369</ele>
        <time>2022-05-06T08:29:33.545Z</time>
      </trkpt>
      <trkpt lat="41.3169" lon="19.46566">
        <ele>44.689914</ele>
        <time>2022-05-06T08:29:36.536Z</time>
      </trkpt>
      <trkpt lat="41.31693" lon="19.46553">
        <ele>44.782927</ele>
        <time>2022-05-06T08:29:39.533Z</time>
      </trkpt>
      <trkpt lat="41.31696" lon="19.46539">
        <ele>44.877378</ele>
        <time>2022-05-06T08:29:42.538Z</time>
      </trkpt>
      <trkpt lat="41.31699" lon="19.46526">
        <ele>44.969248</ele>
        <time>2022-05-06T08:29:45.552Z</time>
      </trkpt>
      <trkpt lat="41.31703" lon="19.46513">
        <ele>45.060527</ele>
        <time>2022-05-06T08:29:48.543Z</time>
      </trkpt>
      <trkpt lat="41.31706" lon="19.46497">
        <ele>45.171201</ele>
        <time>2022-05-06T08:29:51.544Z</time>
      </trkpt>
      <trkpt lat="41.31708" lon="19.46481">
        <ele>45.284864</ele>
        <time>2022-05-06T08:29:54.563Z</time>
      </trkpt>
      <trkpt lat="41.31709" lon="19.46464">
        <ele>45.396082</ele>
        <time>2022-05-06T08:29:57.553Z</time>
      </trkpt>
      <trkpt lat="41.31711" lon="19.46448">
        <ele>45.503972</ele>
        <time>2022-05-06T08:30:00.540Z</time>
      </trkpt>
      <trkpt lat="41.31711" lon="19.46433">
        <ele>45.607789</ele>
        <time>2022-05-06T08:30:03.535Z</time>
      </trkpt>
      <trkpt lat="41.31713" lon="19.46418">
        <ele>45.707526</ele>
        <time>2022-05-06T08:30:06.550Z</time>
      </trkpt>
      <trkpt lat="41.31716" lon="19.46405">
        <ele>45.800451</ele>
        <time>2022-05-06T08:30:09.551Z</time>
      </trkpt>
      <trkpt lat="41.31717" lon="19.46393">
        <ele>45.880443</ele>
        <time>2022-05-06T08:30:12.567Z</time>
      </trkpt>
      <trkpt lat="41.31719" lon="19.4638">
        <ele>45.967543</ele>
        <time>2022-05-06T08:30:15.582Z</time>
      </trkpt>
      <trkpt lat="41.31722" lon="19.46366">
        <ele>46.066088</ele>
        <time>2022-05-06T08:30:18.556Z</time>
      </trkpt>
      <trkpt lat="41.31724" lon="19.46351">
        <ele>46.149955</ele>
        <time>2022-05-06T08:30:21.536Z</time>
      </trkpt>
      <trkpt lat="41.31726" lon="19.46335">
        <ele>45.892906</ele>
        <time>2022-05-06T08:30:24.568Z</time>
      </trkpt>
      <trkpt lat="41.31728" lon="19.4632">
        <ele>45.634641</ele>
        <time>2022-05-06T08:30:27.551Z</time>
      </trkpt>
      <trkpt lat="41.31731" lon="19.46305">
        <ele>45.375935</ele>
        <time>2022-05-06T08:30:30.549Z</time>
      </trkpt>
      <trkpt lat="41.31733" lon="19.46289">
        <ele>45.105463</ele>
        <time>2022-05-06T08:30:33.539Z</time>
      </trkpt>
      <trkpt lat="41.31734" lon="19.46271">
        <ele>44.812282</ele>
        <time>2022-05-06T08:30:36.534Z</time>
      </trkpt>
      <trkpt lat="41.31735" lon="19.46258">
        <ele>44.600316</ele>
        <time>2022-05-06T08:30:38.552Z</time>
      </trkpt>
      <trkpt lat="41.31736" lon="19.46244">
        <ele>44.370619</ele>
        <time>2022-05-06T08:30:40.557Z</time>
      </trkpt>
      <trkpt lat="41.31737" lon="19.4623">
        <ele>44.135488</ele>
        <time>2022-05-06T08:30:42.547Z</time>
      </trkpt>
      <trkpt lat="41.31739" lon="19.46216">
        <ele>43.899779</ele>
        <time>2022-05-06T08:30:44.542Z</time>
      </trkpt>
      <trkpt lat="41.3174" lon="19.46203">
        <ele>43.67093</ele>
        <time>2022-05-06T08:30:46.572Z</time>
      </trkpt>
      <trkpt lat="41.31741" lon="19.4619">
        <ele>43.454632</ele>
        <time>2022-05-06T08:30:48.540Z</time>
      </trkpt>
      <trkpt lat="41.31742" lon="19.46176">
        <ele>43.229624</ele>
        <time>2022-05-06T08:30:50.561Z</time>
      </trkpt>
      <trkpt lat="41.31743" lon="19.46163">
        <ele>43.019002</ele>
        <time>2022-05-06T08:30:52.531Z</time>
      </trkpt>
      <trkpt lat="41.31744" lon="19.4615">
        <ele>42.791559</ele>
        <time>2022-05-06T08:30:54.544Z</time>
      </trkpt>
      <trkpt lat="41.31745" lon="19.46136">
        <ele>42.571967</ele>
        <time>2022-05-06T08:30:56.552Z</time>
      </trkpt>
      <trkpt lat="41.31745" lon="19.46123">
        <ele>42.355039</ele>
        <time>2022-05-06T08:30:58.559Z</time>
      </trkpt>
      <trkpt lat="41.31745" lon="19.46111">
        <ele>42.136316</ele>
        <time>2022-05-06T08:31:00.528Z</time>
      </trkpt>
      <trkpt lat="41.31746" lon="19.46098">
        <ele>41.87837</ele>
        <time>2022-05-06T08:31:02.550Z</time>
      </trkpt>
      <trkpt lat="41.31746" lon="19.46085">
        <ele>41.620778</ele>
        <time>2022-05-06T08:31:04.540Z</time>
      </trkpt>
      <trkpt lat="41.31746" lon="19.46073">
        <ele>41.365157</ele>
        <time>2022-05-06T08:31:06.525Z</time>
      </trkpt>
      <trkpt lat="41.31746" lon="19.4606">
        <ele>41.095274</ele>
        <time>2022-05-06T08:31:08.538Z</time>
      </trkpt>
      <trkpt lat="41.31745" lon="19.46047">
        <ele>40.834966</ele>
        <time>2022-05-06T08:31:10.549Z</time>
      </trkpt>
      <trkpt lat="41.31744" lon="19.46035">
        <ele>40.587279</ele>
        <time>2022-05-06T08:31:12.546Z</time>
      </trkpt>
      <trkpt lat="41.31744" lon="19.46018">
        <ele>40.241953</ele>
        <time>2022-05-06T08:31:15.547Z</time>
      </trkpt>
      <trkpt lat="41.31743" lon="19.46001">
        <ele>39.897644</ele>
        <time>2022-05-06T08:31:18.542Z</time>
      </trkpt>
      <trkpt lat="41.31742" lon="19.45983">
        <ele>39.536448</ele>
        <time>2022-05-06T08:31:21.548Z</time>
      </trkpt>
      <trkpt lat="41.31742" lon="19.4597">
        <ele>39.270523</ele>
        <time>2022-05-06T08:31:23.547Z</time>
      </trkpt>
      <trkpt lat="41.31741" lon="19.45956">
        <ele>38.990502</ele>
        <time>2022-05-06T08:31:25.559Z</time>
      </trkpt>
      <trkpt lat="41.31741" lon="19.45942">
        <ele>38.714642</ele>
        <time>2022-05-06T08:31:27.541Z</time>
      </trkpt>
      <trkpt lat="41.31741" lon="19.45929">
        <ele>38.448594</ele>
        <time>2022-05-06T08:31:29.540Z</time>
      </trkpt>
      <trkpt lat="41.3174" lon="19.45916">
        <ele>38.182011</ele>
        <time>2022-05-06T08:31:31.535Z</time>
      </trkpt>
      <trkpt lat="41.3174" lon="19.45902">
        <ele>37.903808</ele>
        <time>2022-05-06T08:31:33.546Z</time>
      </trkpt>
      <trkpt lat="41.31739" lon="19.45889">
        <ele>37.625723</ele>
        <time>2022-05-06T08:31:35.558Z</time>
      </trkpt>
      <trkpt lat="41.31739" lon="19.45875">
        <ele>37.351784</ele>
        <time>2022-05-06T08:31:37.543Z</time>
      </trkpt>
      <trkpt lat="41.31739" lon="19.45862">
        <ele>37.290619</ele>
        <time>2022-05-06T08:31:39.528Z</time>
      </trkpt>
      <trkpt lat="41.31738" lon="19.45844">
        <ele>37.216267</ele>
        <time>2022-05-06T08:31:42.538Z</time>
      </trkpt>
      <trkpt lat="41.31737" lon="19.45832">
        <ele>37.163927</ele>
        <time>2022-05-06T08:31:44.543Z</time>
      </trkpt>
      <trkpt lat="41.31737" lon="19.45819">
        <ele>37.110234</ele>
        <time>2022-05-06T08:31:46.541Z</time>
      </trkpt>
      <trkpt lat="41.31736" lon="19.45806">
        <ele>37.057781</ele>
        <time>2022-05-06T08:31:48.532Z</time>
      </trkpt>
      <trkpt lat="41.31735" lon="19.45794">
        <ele>37.005434</ele>
        <time>2022-05-06T08:31:50.552Z</time>
      </trkpt>
      <trkpt lat="41.31733" lon="19.45781">
        <ele>36.951991</ele>
        <time>2022-05-06T08:31:52.539Z</time>
      </trkpt>
      <trkpt lat="41.31733" lon="19.45768">
        <ele>36.899619</ele>
        <time>2022-05-06T08:31:54.552Z</time>
      </trkpt>
      <trkpt lat="41.31732" lon="19.45756">
        <ele>36.84728</ele>
        <time>2022-05-06T08:31:56.593Z</time>
      </trkpt>
      <trkpt lat="41.31732" lon="19.45743">
        <ele>36.795354</ele>
        <time>2022-05-06T08:31:58.536Z</time>
      </trkpt>
      <trkpt lat="41.31731" lon="19.45731">
        <ele>36.742945</ele>
        <time>2022-05-06T08:32:00.544Z</time>
      </trkpt>
      <trkpt lat="41.31731" lon="19.45718">
        <ele>36.691401</ele>
        <time>2022-05-06T08:32:02.540Z</time>
      </trkpt>
      <trkpt lat="41.3173" lon="19.45706">
        <ele>36.641132</ele>
        <time>2022-05-06T08:32:04.529Z</time>
      </trkpt>
      <trkpt lat="41.31729" lon="19.45694">
        <ele>36.590694</ele>
        <time>2022-05-06T08:32:06.534Z</time>
      </trkpt>
      <trkpt lat="41.31729" lon="19.45682">
        <ele>36.540425</ele>
        <time>2022-05-06T08:32:08.531Z</time>
      </trkpt>
      <trkpt lat="41.31727" lon="19.4567">
        <ele>36.488974</ele>
        <time>2022-05-06T08:32:10.536Z</time>
      </trkpt>
      <trkpt lat="41.31726" lon="19.45657">
        <ele>36.434005</ele>
        <time>2022-05-06T08:32:12.539Z</time>
      </trkpt>
      <trkpt lat="41.31724" lon="19.45643">
        <ele>36.377806</ele>
        <time>2022-05-06T08:32:14.563Z</time>
      </trkpt>
      <trkpt lat="41.31723" lon="19.4563">
        <ele>36.423155</ele>
        <time>2022-05-06T08:32:16.526Z</time>
      </trkpt>
      <trkpt lat="41.31721" lon="19.45617">
        <ele>36.572619</ele>
        <time>2022-05-06T08:32:18.545Z</time>
      </trkpt>
      <trkpt lat="41.31719" lon="19.45605">
        <ele>36.715751</ele>
        <time>2022-05-06T08:32:20.537Z</time>
      </trkpt>
      <trkpt lat="41.31718" lon="19.45592">
        <ele>36.857619</ele>
        <time>2022-05-06T08:32:22.548Z</time>
      </trkpt>
      <trkpt lat="41.31717" lon="19.4558">
        <ele>36.998213</ele>
        <time>2022-05-06T08:32:24.566Z</time>
      </trkpt>
      <trkpt lat="41.31716" lon="19.45567">
        <ele>37.142865</ele>
        <time>2022-05-06T08:32:26.545Z</time>
      </trkpt>
      <trkpt lat="41.31714" lon="19.45554">
        <ele>37.285969</ele>
        <time>2022-05-06T08:32:28.532Z</time>
      </trkpt>
      <trkpt lat="41.3171" lon="19.45538">
        <ele>37.47621</ele>
        <time>2022-05-06T08:32:31.531Z</time>
      </trkpt>
      <trkpt lat="41.31708" lon="19.45524">
        <ele>37.644463</ele>
        <time>2022-05-06T08:32:34.539Z</time>
      </trkpt>
      <trkpt lat="41.31703" lon="19.45507">
        <ele>37.846432</ele>
        <time>2022-05-06T08:32:37.529Z</time>
      </trkpt>
      <trkpt lat="41.317" lon="19.45494">
        <ele>37.995408</ele>
        <time>2022-05-06T08:32:39.544Z</time>
      </trkpt>
      <trkpt lat="41.31697" lon="19.45482">
        <ele>38.138623</ele>
        <time>2022-05-06T08:32:41.543Z</time>
      </trkpt>
      <trkpt lat="41.31693" lon="19.45465">
        <ele>38.34075</ele>
        <time>2022-05-06T08:32:44.583Z</time>
      </trkpt>
      <trkpt lat="41.31688" lon="19.45451">
        <ele>38.512025</ele>
        <time>2022-05-06T08:32:47.555Z</time>
      </trkpt>
      <trkpt lat="41.31682" lon="19.45439">
        <ele>38.684625</ele>
        <time>2022-05-06T08:32:50.528Z</time>
      </trkpt>
      <trkpt lat="41.31676" lon="19.45422">
        <ele>38.891834</ele>
        <time>2022-05-06T08:32:53.559Z</time>
      </trkpt>
      <trkpt lat="41.31673" lon="19.4541">
        <ele>39.036711</ele>
        <time>2022-05-06T08:32:55.543Z</time>
      </trkpt>
      <trkpt lat="41.31671" lon="19.45395">
        <ele>39.190999</ele>
        <time>2022-05-06T08:32:57.534Z</time>
      </trkpt>
      <trkpt lat="41.31667" lon="19.45382">
        <ele>39.33261</ele>
        <time>2022-05-06T08:32:59.538Z</time>
      </trkpt>
      <trkpt lat="41.31662" lon="19.4537">
        <ele>39.46509</ele>
        <time>2022-05-06T08:33:01.533Z</time>
      </trkpt>
      <trkpt lat="41.31656" lon="19.45358">
        <ele>39.605731</ele>
        <time>2022-05-06T08:33:03.564Z</time>
      </trkpt>
      <trkpt lat="41.3165" lon="19.45346">
        <ele>39.752463</ele>
        <time>2022-05-06T08:33:05.553Z</time>
      </trkpt>
      <trkpt lat="41.31642" lon="19.45335">
        <ele>39.89727</ele>
        <time>2022-05-06T08:33:07.552Z</time>
      </trkpt>
      <trkpt lat="41.31633" lon="19.45325">
        <ele>40.063167</ele>
        <time>2022-05-06T08:33:09.559Z</time>
      </trkpt>
      <trkpt lat="41.31623" lon="19.45315">
        <ele>40.218211</ele>
        <time>2022-05-06T08:33:11.546Z</time>
      </trkpt>
      <trkpt lat="41.31615" lon="19.45306">
        <ele>40.364328</ele>
        <time>2022-05-06T08:33:13.550Z</time>
      </trkpt>
      <trkpt lat="41.31607" lon="19.45297">
        <ele>40.497813</ele>
        <time>2022-05-06T08:33:15.553Z</time>
      </trkpt>
      <trkpt lat="41.316" lon="19.45289">
        <ele>40.625803</ele>
        <time>2022-05-06T08:33:17.539Z</time>
      </trkpt>
      <trkpt lat="41.31589" lon="19.45279">
        <ele>40.79499</ele>
        <time>2022-05-06T08:33:20.528Z</time>
      </trkpt>
      <trkpt lat="41.31581" lon="19.45274">
        <ele>40.915967</ele>
        <time>2022-05-06T08:33:24.593Z</time>
      </trkpt>
      <trkpt lat="41.31573" lon="19.45264">
        <ele>41.056685</ele>
        <time>2022-05-06T08:33:28.548Z</time>
      </trkpt>
      <trkpt lat="41.31565" lon="19.45256">
        <ele>41.189106</ele>
        <time>2022-05-06T08:33:31.542Z</time>
      </trkpt>
      <trkpt lat="41.31557" lon="19.45249">
        <ele>41.32031</ele>
        <time>2022-05-06T08:33:34.543Z</time>
      </trkpt>
      <trkpt lat="41.31548" lon="19.45242">
        <ele>41.408075</ele>
        <time>2022-05-06T08:33:37.541Z</time>
      </trkpt>
      <trkpt lat="41.31539" lon="19.45235">
        <ele>41.333618</ele>
        <time>2022-05-06T08:33:40.593Z</time>
      </trkpt>
      <trkpt lat="41.31529" lon="19.45228">
        <ele>41.253076</ele>
        <time>2022-05-06T08:33:43.546Z</time>
      </trkpt>
      <trkpt lat="41.31519" lon="19.45221">
        <ele>41.171778</ele>
        <time>2022-05-06T08:33:46.568Z</time>
      </trkpt>
      <trkpt lat="41.31507" lon="19.45214">
        <ele>41.086081</ele>
        <time>2022-05-06T08:33:49.545Z</time>
      </trkpt>
      <trkpt lat="41.31497" lon="19.45208">
        <ele>41.006137</ele>
        <time>2022-05-06T08:33:52.559Z</time>
      </trkpt>
      <trkpt lat="41.31487" lon="19.45202">
        <ele>40.927135</ele>
        <time>2022-05-06T08:33:55.547Z</time>
      </trkpt>
      <trkpt lat="41.31477" lon="19.45196">
        <ele>40.847252</ele>
        <time>2022-05-06T08:33:58.555Z</time>
      </trkpt>
      <trkpt lat="41.31467" lon="19.4519">
        <ele>40.769323</ele>
        <time>2022-05-06T08:34:01.547Z</time>
      </trkpt>
      <trkpt lat="41.31458" lon="19.45185">
        <ele>40.703005</ele>
        <time>2022-05-06T08:34:04.553Z</time>
      </trkpt>
      <trkpt lat="41.31449" lon="19.4518">
        <ele>40.631335</ele>
        <time>2022-05-06T08:34:08.549Z</time>
      </trkpt>
      <trkpt lat="41.31437" lon="19.45173">
        <ele>40.538518</ele>
        <time>2022-05-06T08:34:12.534Z</time>
      </trkpt>
      <trkpt lat="41.31426" lon="19.45166">
        <ele>40.452549</ele>
        <time>2022-05-06T08:34:15.539Z</time>
      </trkpt>
      <trkpt lat="41.31415" lon="19.45159">
        <ele>40.366812</ele>
        <time>2022-05-06T08:34:18.556Z</time>
      </trkpt>
      <trkpt lat="41.31404" lon="19.45152">
        <ele>40.278742</ele>
        <time>2022-05-06T08:34:21.551Z</time>
      </trkpt>
      <trkpt lat="41.31391" lon="19.45146">
        <ele>40.184051</ele>
        <time>2022-05-06T08:34:24.551Z</time>
      </trkpt>
      <trkpt lat="41.31379" lon="19.45139">
        <ele>40.244384</ele>
        <time>2022-05-06T08:34:27.564Z</time>
      </trkpt>
      <trkpt lat="41.31368" lon="19.45132">
        <ele>40.396627</ele>
        <time>2022-05-06T08:34:30.572Z</time>
      </trkpt>
      <trkpt lat="41.31357" lon="19.45125">
        <ele>40.54011</ele>
        <time>2022-05-06T08:34:33.561Z</time>
      </trkpt>
      <trkpt lat="41.31347" lon="19.45118">
        <ele>40.679732</ele>
        <time>2022-05-06T08:34:36.538Z</time>
      </trkpt>
      <trkpt lat="41.31337" lon="19.45113">
        <ele>40.807616</ele>
        <time>2022-05-06T08:34:39.553Z</time>
      </trkpt>
      <trkpt lat="41.31327" lon="19.45107">
        <ele>40.943177</ele>
        <time>2022-05-06T08:34:42.544Z</time>
      </trkpt>
      <trkpt lat="41.31316" lon="19.451">
        <ele>41.083892</ele>
        <time>2022-05-06T08:34:45.554Z</time>
      </trkpt>
      <trkpt lat="41.31305" lon="19.45095">
        <ele>41.226913</ele>
        <time>2022-05-06T08:34:48.545Z</time>
      </trkpt>
      <trkpt lat="41.31293" lon="19.45089">
        <ele>41.378418</ele>
        <time>2022-05-06T08:34:51.552Z</time>
      </trkpt>
      <trkpt lat="41.31282" lon="19.45082">
        <ele>41.52427</ele>
        <time>2022-05-06T08:34:54.562Z</time>
      </trkpt>
      <trkpt lat="41.31272" lon="19.45076">
        <ele>41.666843</ele>
        <time>2022-05-06T08:34:57.538Z</time>
      </trkpt>
      <trkpt lat="41.31261" lon="19.4507">
        <ele>41.808655</ele>
        <time>2022-05-06T08:35:00.547Z</time>
      </trkpt>
      <trkpt lat="41.3125" lon="19.45063">
        <ele>41.946802</ele>
        <time>2022-05-06T08:35:03.564Z</time>
      </trkpt>
      <trkpt lat="41.3124" lon="19.45054">
        <ele>42.094859</ele>
        <time>2022-05-06T08:35:06.562Z</time>
      </trkpt>
      <trkpt lat="41.31228" lon="19.45045">
        <ele>42.257202</ele>
        <time>2022-05-06T08:35:09.543Z</time>
      </trkpt>
      <trkpt lat="41.3122" lon="19.45038">
        <ele>42.333372</ele>
        <time>2022-05-06T08:35:11.552Z</time>
      </trkpt>
      <trkpt lat="41.31212" lon="19.45033">
        <ele>42.365232</ele>
        <time>2022-05-06T08:35:13.557Z</time>
      </trkpt>
      <trkpt lat="41.31199" lon="19.45027">
        <ele>42.407366</ele>
        <time>2022-05-06T08:35:16.542Z</time>
      </trkpt>
      <trkpt lat="41.31189" lon="19.45022">
        <ele>42.443467</ele>
        <time>2022-05-06T08:35:19.545Z</time>
      </trkpt>
      <trkpt lat="41.31179" lon="19.45016">
        <ele>42.479929</ele>
        <time>2022-05-06T08:35:22.548Z</time>
      </trkpt>
      <trkpt lat="41.31167" lon="19.4501">
        <ele>42.521068</ele>
        <time>2022-05-06T08:35:25.549Z</time>
      </trkpt>
      <trkpt lat="41.31159" lon="19.45004">
        <ele>42.552041</ele>
        <time>2022-05-06T08:35:27.560Z</time>
      </trkpt>
      <trkpt lat="41.3115" lon="19.45">
        <ele>42.582147</ele>
        <time>2022-05-06T08:35:29.553Z</time>
      </trkpt>
      <trkpt lat="41.31139" lon="19.44993">
        <ele>42.622489</ele>
        <time>2022-05-06T08:35:32.565Z</time>
      </trkpt>
      <trkpt lat="41.31128" lon="19.44986">
        <ele>42.66105</ele>
        <time>2022-05-06T08:35:35.545Z</time>
      </trkpt>
      <trkpt lat="41.31117" lon="19.44979">
        <ele>42.703206</ele>
        <time>2022-05-06T08:35:38.576Z</time>
      </trkpt>
      <trkpt lat="41.31107" lon="19.44971">
        <ele>42.741596</ele>
        <time>2022-05-06T08:35:41.559Z</time>
      </trkpt>
      <trkpt lat="41.31097" lon="19.44962">
        <ele>42.780485</ele>
        <time>2022-05-06T08:35:44.541Z</time>
      </trkpt>
      <trkpt lat="41.31087" lon="19.44955">
        <ele>42.816762</ele>
        <time>2022-05-06T08:35:47.548Z</time>
      </trkpt>
      <trkpt lat="41.31076" lon="19.44948">
        <ele>42.857803</ele>
        <time>2022-05-06T08:35:50.591Z</time>
      </trkpt>
      <trkpt lat="41.31064" lon="19.44942">
        <ele>42.899112</ele>
        <time>2022-05-06T08:35:53.536Z</time>
      </trkpt>
      <trkpt lat="41.31053" lon="19.44937">
        <ele>42.874477</ele>
        <time>2022-05-06T08:35:56.550Z</time>
      </trkpt>
      <trkpt lat="41.31041" lon="19.44932">
        <ele>42.828586</ele>
        <time>2022-05-06T08:35:59.565Z</time>
      </trkpt>
      <trkpt lat="41.31031" lon="19.44927">
        <ele>42.788355</ele>
        <time>2022-05-06T08:36:02.543Z</time>
      </trkpt>
      <trkpt lat="41.31021" lon="19.44922">
        <ele>42.749222</ele>
        <time>2022-05-06T08:36:05.549Z</time>
      </trkpt>
      <trkpt lat="41.31011" lon="19.44917">
        <ele>42.707153</ele>
        <time>2022-05-06T08:36:13.537Z</time>
      </trkpt>
      <trkpt lat="41.31001" lon="19.44907">
        <ele>42.662067</ele>
        <time>2022-05-06T08:36:17.532Z</time>
      </trkpt>
      <trkpt lat="41.30995" lon="19.44897">
        <ele>42.626546</ele>
        <time>2022-05-06T08:36:20.530Z</time>
      </trkpt>
      <trkpt lat="41.3099" lon="19.44886">
        <ele>42.590473</ele>
        <time>2022-05-06T08:36:23.568Z</time>
      </trkpt>
      <trkpt lat="41.30986" lon="19.44874">
        <ele>42.554751</ele>
        <time>2022-05-06T08:36:26.528Z</time>
      </trkpt>
      <trkpt lat="41.30982" lon="19.4486">
        <ele>42.512361</ele>
        <time>2022-05-06T08:36:30.572Z</time>
      </trkpt>
      <trkpt lat="41.30976" lon="19.44848">
        <ele>42.472504</ele>
        <time>2022-05-06T08:36:33.555Z</time>
      </trkpt>
      <trkpt lat="41.30973" lon="19.44835">
        <ele>42.434712</ele>
        <time>2022-05-06T08:36:36.606Z</time>
      </trkpt>
      <trkpt lat="41.3097" lon="19.44822">
        <ele>42.396494</ele>
        <time>2022-05-06T08:36:39.550Z</time>
      </trkpt>
      <trkpt lat="41.30966" lon="19.44811">
        <ele>42.362161</ele>
        <time>2022-05-06T08:36:42.540Z</time>
      </trkpt>
      <trkpt lat="41.3096" lon="19.44802">
        <ele>42.328455</ele>
        <time>2022-05-06T08:36:54.545Z</time>
      </trkpt>
      <trkpt lat="41.30949" lon="19.44803">
        <ele>42.290396</ele>
        <time>2022-05-06T08:37:00.575Z</time>
      </trkpt>
      <trkpt lat="41.30939" lon="19.44801">
        <ele>42.252333</ele>
        <time>2022-05-06T08:37:04.608Z</time>
      </trkpt>
      <trkpt lat="41.3093" lon="19.44796">
        <ele>42.326535</ele>
        <time>2022-05-06T08:37:09.548Z</time>
      </trkpt>
      <trkpt lat="41.30921" lon="19.44788">
        <ele>42.477859</ele>
        <time>2022-05-06T08:37:16.552Z</time>
      </trkpt>
      <trkpt lat="41.30926" lon="19.44741">
        <ele>42.975158</ele>
        <time>2022-05-06T08:46:44.567Z</time>
      </trkpt>
      <trkpt lat="41.3093" lon="19.4473">
        <ele>43.110852</ele>
        <time>2022-05-06T08:46:50.518Z</time>
      </trkpt>
      <trkpt lat="41.30929" lon="19.44713">
        <ele>43.288873</ele>
        <time>2022-05-06T08:46:54.526Z</time>
      </trkpt>
      <trkpt lat="41.30927" lon="19.44699">
        <ele>43.444603</ele>
        <time>2022-05-06T08:46:57.531Z</time>
      </trkpt>
      <trkpt lat="41.30925" lon="19.44686">
        <ele>43.584782</ele>
        <time>2022-05-06T08:47:00.544Z</time>
      </trkpt>
      <trkpt lat="41.30924" lon="19.44674">
        <ele>43.711868</ele>
        <time>2022-05-06T08:47:03.539Z</time>
      </trkpt>
      <trkpt lat="41.30923" lon="19.44661">
        <ele>43.853494</ele>
        <time>2022-05-06T08:47:06.540Z</time>
      </trkpt>
      <trkpt lat="41.30921" lon="19.44646">
        <ele>44.008495</ele>
        <time>2022-05-06T08:47:10.537Z</time>
      </trkpt>
      <trkpt lat="41.30921" lon="19.44631">
        <ele>44.165247</ele>
        <time>2022-05-06T08:47:15.528Z</time>
      </trkpt>
      <trkpt lat="41.30927" lon="19.44621">
        <ele>44.304055</ele>
        <time>2022-05-06T08:47:20.533Z</time>
      </trkpt>
      <trkpt lat="41.30933" lon="19.44612">
        <ele>44.434932</ele>
        <time>2022-05-06T08:47:24.547Z</time>
      </trkpt>
      <trkpt lat="41.30943" lon="19.44606">
        <ele>44.582752</ele>
        <time>2022-05-06T08:47:28.544Z</time>
      </trkpt>
      <trkpt lat="41.30951" lon="19.44612">
        <ele>44.714175</ele>
        <time>2022-05-06T08:47:35.533Z</time>
      </trkpt>
      <trkpt lat="41.30953" lon="19.44625">
        <ele>45.290549</ele>
        <time>2022-05-06T08:47:40.530Z</time>
      </trkpt>
      <trkpt lat="41.30957" lon="19.44639">
        <ele>46.290258</ele>
        <time>2022-05-06T08:47:45.529Z</time>
      </trkpt>
      <trkpt lat="41.30966" lon="19.44648">
        <ele>47.312382</ele>
        <time>2022-05-06T08:47:50.529Z</time>
      </trkpt>
      <trkpt lat="41.30965" lon="19.44661">
        <ele>48.243562</ele>
        <time>2022-05-06T08:47:55.534Z</time>
      </trkpt>
      <trkpt lat="41.30957" lon="19.44672">
        <ele>49.255502</ele>
        <time>2022-05-06T08:47:59.543Z</time>
      </trkpt>
      <trkpt lat="41.30953" lon="19.44684">
        <ele>50.179894</ele>
        <time>2022-05-06T08:48:04.523Z</time>
      </trkpt>
      <trkpt lat="41.30954" lon="19.44697">
        <ele>51.113567</ele>
        <time>2022-05-06T08:48:11.532Z</time>
      </trkpt>
      <trkpt lat="41.30962" lon="19.44704">
        <ele>51.974149</ele>
        <time>2022-05-06T08:48:15.546Z</time>
      </trkpt>
      <trkpt lat="41.30972" lon="19.44707">
        <ele>52.838306</ele>
        <time>2022-05-06T08:48:19.543Z</time>
      </trkpt>
      <trkpt lat="41.30982" lon="19.44711">
        <ele>53.804898</ele>
        <time>2022-05-06T08:48:24.538Z</time>
      </trkpt>
      <trkpt lat="41.30988" lon="19.4472">
        <ele>54.682211</ele>
        <time>2022-05-06T08:48:29.544Z</time>
      </trkpt>
      <trkpt lat="41.30996" lon="19.44728">
        <ele>55.513018</ele>
        <time>2022-05-06T08:48:34.531Z</time>
      </trkpt>
      <trkpt lat="41.31004" lon="19.4473">
        <ele>56.337502</ele>
        <time>2022-05-06T08:48:38.521Z</time>
      </trkpt>
      <trkpt lat="41.31015" lon="19.44727">
        <ele>57.30131</ele>
        <time>2022-05-06T08:48:42.542Z</time>
      </trkpt>
      <trkpt lat="41.31022" lon="19.44719">
        <ele>58.175351</ele>
        <time>2022-05-06T08:48:47.531Z</time>
      </trkpt>
      <trkpt lat="41.3103" lon="19.44713">
        <ele>59.032573</ele>
        <time>2022-05-06T08:48:52.543Z</time>
      </trkpt>
      <trkpt lat="41.31039" lon="19.44708">
        <ele>59.862486</ele>
        <time>2022-05-06T08:48:56.531Z</time>
      </trkpt>
      <trkpt lat="41.31049" lon="19.44705">
        <ele>60.790393</ele>
        <time>2022-05-06T08:49:00.528Z</time>
      </trkpt>
      <trkpt lat="41.31059" lon="19.447">
        <ele>61.445727</ele>
        <time>2022-05-06T08:49:05.529Z</time>
      </trkpt>
      <trkpt lat="41.31068" lon="19.44695">
        <ele>61.85851</ele>
        <time>2022-05-06T08:49:10.541Z</time>
      </trkpt>
      <trkpt lat="41.31076" lon="19.44691">
        <ele>62.253435</ele>
        <time>2022-05-06T08:49:15.533Z</time>
      </trkpt>
      <trkpt lat="41.31085" lon="19.44686">
        <ele>62.646194</ele>
        <time>2022-05-06T08:49:19.540Z</time>
      </trkpt>
      <trkpt lat="41.31095" lon="19.44682">
        <ele>63.098261</ele>
        <time>2022-05-06T08:49:23.527Z</time>
      </trkpt>
      <trkpt lat="41.31104" lon="19.44677">
        <ele>63.521456</ele>
        <time>2022-05-06T08:49:26.560Z</time>
      </trkpt>
      <trkpt lat="41.31114" lon="19.44671">
        <ele>64.018316</ele>
        <time>2022-05-06T08:49:30.536Z</time>
      </trkpt>
      <trkpt lat="41.31124" lon="19.44664">
        <ele>64.49399</ele>
        <time>2022-05-06T08:49:34.533Z</time>
      </trkpt>
      <trkpt lat="41.31134" lon="19.44655">
        <ele>65.010966</ele>
        <time>2022-05-06T08:49:38.539Z</time>
      </trkpt>
      <trkpt lat="41.31143" lon="19.44649">
        <ele>65.466815</ele>
        <time>2022-05-06T08:49:41.529Z</time>
      </trkpt>
      <trkpt lat="41.31153" lon="19.44641">
        <ele>65.942422</ele>
        <time>2022-05-06T08:49:44.524Z</time>
      </trkpt>
      <trkpt lat="41.31163" lon="19.44637">
        <ele>66.403686</ele>
        <time>2022-05-06T08:49:47.529Z</time>
      </trkpt>
      <trkpt lat="41.31173" lon="19.44631">
        <ele>66.883343</ele>
        <time>2022-05-06T08:49:50.533Z</time>
      </trkpt>
      <trkpt lat="41.31183" lon="19.44626">
        <ele>67.329959</ele>
        <time>2022-05-06T08:49:53.537Z</time>
      </trkpt>
      <trkpt lat="41.31192" lon="19.4462">
        <ele>67.768806</ele>
        <time>2022-05-06T08:49:56.537Z</time>
      </trkpt>
      <trkpt lat="41.31201" lon="19.44614">
        <ele>68.213356</ele>
        <time>2022-05-06T08:49:59.536Z</time>
      </trkpt>
      <trkpt lat="41.3121" lon="19.44608">
        <ele>68.658896</ele>
        <time>2022-05-06T08:50:02.531Z</time>
      </trkpt>
      <trkpt lat="41.31221" lon="19.44601">
        <ele>68.501552</ele>
        <time>2022-05-06T08:50:06.532Z</time>
      </trkpt>
      <trkpt lat="41.31231" lon="19.44598">
        <ele>67.861372</ele>
        <time>2022-05-06T08:50:09.535Z</time>
      </trkpt>
      <trkpt lat="41.3124" lon="19.44594">
        <ele>67.228851</ele>
        <time>2022-05-06T08:50:12.530Z</time>
      </trkpt>
      <trkpt lat="41.31249" lon="19.4459">
        <ele>66.605679</ele>
        <time>2022-05-06T08:50:19.540Z</time>
      </trkpt>
      <trkpt lat="41.31259" lon="19.44585">
        <ele>65.890592</ele>
        <time>2022-05-06T08:50:23.543Z</time>
      </trkpt>
      <trkpt lat="41.31271" lon="19.44585">
        <ele>65.090705</ele>
        <time>2022-05-06T08:50:27.535Z</time>
      </trkpt>
      <trkpt lat="41.3128" lon="19.44586">
        <ele>64.479615</ele>
        <time>2022-05-06T08:50:30.535Z</time>
      </trkpt>
      <trkpt lat="41.3129" lon="19.44588">
        <ele>63.836485</ele>
        <time>2022-05-06T08:50:33.515Z</time>
      </trkpt>
      <trkpt lat="41.31301" lon="19.44592">
        <ele>63.106911</ele>
        <time>2022-05-06T08:50:36.518Z</time>
      </trkpt>
      <trkpt lat="41.31311" lon="19.44596">
        <ele>62.372116</ele>
        <time>2022-05-06T08:50:39.525Z</time>
      </trkpt>
      <trkpt lat="41.31323" lon="19.44599">
        <ele>61.597594</ele>
        <time>2022-05-06T08:50:42.530Z</time>
      </trkpt>
      <trkpt lat="41.31334" lon="19.44602">
        <ele>60.872935</ele>
        <time>2022-05-06T08:50:45.531Z</time>
      </trkpt>
      <trkpt lat="41.31344" lon="19.44604">
        <ele>60.170276</ele>
        <time>2022-05-06T08:50:48.548Z</time>
      </trkpt>
      <trkpt lat="41.31355" lon="19.44606">
        <ele>59.444195</ele>
        <time>2022-05-06T08:50:51.526Z</time>
      </trkpt>
      <trkpt lat="41.31366" lon="19.44608">
        <ele>58.689249</ele>
        <time>2022-05-06T08:50:54.540Z</time>
      </trkpt>
      <trkpt lat="41.31376" lon="19.44611">
        <ele>58.005724</ele>
        <time>2022-05-06T08:50:57.523Z</time>
      </trkpt>
      <trkpt lat="41.31386" lon="19.44614">
        <ele>57.348525</ele>
        <time>2022-05-06T08:51:00.523Z</time>
      </trkpt>
      <trkpt lat="41.31395" lon="19.44617">
        <ele>57.46689</ele>
        <time>2022-05-06T08:51:03.528Z</time>
      </trkpt>
      <trkpt lat="41.31406" lon="19.44616">
        <ele>58.634393</ele>
        <time>2022-05-06T08:51:07.526Z</time>
      </trkpt>
      <trkpt lat="41.31415" lon="19.44608">
        <ele>59.676056</ele>
        <time>2022-05-06T08:51:10.564Z</time>
      </trkpt>
      <trkpt lat="41.31423" lon="19.44603">
        <ele>60.63342</ele>
        <time>2022-05-06T08:51:13.541Z</time>
      </trkpt>
      <trkpt lat="41.31432" lon="19.44597">
        <ele>61.66086</ele>
        <time>2022-05-06T08:51:17.541Z</time>
      </trkpt>
      <trkpt lat="41.31441" lon="19.44591">
        <ele>62.702717</ele>
        <time>2022-05-06T08:51:21.541Z</time>
      </trkpt>
      <trkpt lat="41.31449" lon="19.44584">
        <ele>63.688947</ele>
        <time>2022-05-06T08:51:24.547Z</time>
      </trkpt>
      <trkpt lat="41.31458" lon="19.44579">
        <ele>64.693482</ele>
        <time>2022-05-06T08:51:27.555Z</time>
      </trkpt>
      <trkpt lat="41.31467" lon="19.44569">
        <ele>65.877216</ele>
        <time>2022-05-06T08:51:31.608Z</time>
      </trkpt>
      <trkpt lat="41.31478" lon="19.44563">
        <ele>67.07942</ele>
        <time>2022-05-06T08:51:34.550Z</time>
      </trkpt>
      <trkpt lat="41.3149" lon="19.44558">
        <ele>68.403927</ele>
        <time>2022-05-06T08:51:37.527Z</time>
      </trkpt>
      <trkpt lat="41.315" lon="19.44551">
        <ele>69.527443</ele>
        <time>2022-05-06T08:51:40.543Z</time>
      </trkpt>
      <trkpt lat="41.31509" lon="19.44542">
        <ele>70.733601</ele>
        <time>2022-05-06T08:51:44.530Z</time>
      </trkpt>
      <trkpt lat="41.3152" lon="19.44536">
        <ele>71.938797</ele>
        <time>2022-05-06T08:51:48.547Z</time>
      </trkpt>
      <trkpt lat="41.31528" lon="19.4453">
        <ele>72.904218</ele>
        <time>2022-05-06T08:51:51.533Z</time>
      </trkpt>
      <trkpt lat="41.31537" lon="19.44524">
        <ele>73.946664</ele>
        <time>2022-05-06T08:51:54.548Z</time>
      </trkpt>
      <trkpt lat="41.31547" lon="19.4452">
        <ele>75.000106</ele>
        <time>2022-05-06T08:51:57.536Z</time>
      </trkpt>
      <trkpt lat="41.31557" lon="19.44517">
        <ele>75.856507</ele>
        <time>2022-05-06T08:52:00.554Z</time>
      </trkpt>
      <trkpt lat="41.31567" lon="19.44513">
        <ele>76.502297</ele>
        <time>2022-05-06T08:52:03.547Z</time>
      </trkpt>
      <trkpt lat="41.31576" lon="19.44511">
        <ele>77.069739</ele>
        <time>2022-05-06T08:52:06.551Z</time>
      </trkpt>
      <trkpt lat="41.31587" lon="19.44509">
        <ele>77.699723</ele>
        <time>2022-05-06T08:52:09.529Z</time>
      </trkpt>
      <trkpt lat="41.31598" lon="19.44506">
        <ele>78.371259</ele>
        <time>2022-05-06T08:52:12.552Z</time>
      </trkpt>
      <trkpt lat="41.31609" lon="19.44502">
        <ele>79.066296</ele>
        <time>2022-05-06T08:52:15.553Z</time>
      </trkpt>
      <trkpt lat="41.31618" lon="19.44499">
        <ele>79.654682</ele>
        <time>2022-05-06T08:52:18.533Z</time>
      </trkpt>
      <trkpt lat="41.3163" lon="19.44501">
        <ele>80.406136</ele>
        <time>2022-05-06T08:52:22.542Z</time>
      </trkpt>
      <trkpt lat="41.31645" lon="19.44503">
        <ele>81.2676</ele>
        <time>2022-05-06T08:52:25.544Z</time>
      </trkpt>
      <trkpt lat="41.31656" lon="19.44503">
        <ele>81.954095</ele>
        <time>2022-05-06T08:52:27.580Z</time>
      </trkpt>
      <trkpt lat="41.31669" lon="19.44503">
        <ele>82.730449</ele>
        <time>2022-05-06T08:52:29.542Z</time>
      </trkpt>
      <trkpt lat="41.31681" lon="19.44505">
        <ele>83.486882</ele>
        <time>2022-05-06T08:52:32.547Z</time>
      </trkpt>
      <trkpt lat="41.31692" lon="19.44505">
        <ele>84.160778</ele>
        <time>2022-05-06T08:52:35.572Z</time>
      </trkpt>
      <trkpt lat="41.31703" lon="19.44505">
        <ele>84.834473</ele>
        <time>2022-05-06T08:52:38.579Z</time>
      </trkpt>
      <trkpt lat="41.31713" lon="19.44504">
        <ele>85.41809</ele>
        <time>2022-05-06T08:52:41.548Z</time>
      </trkpt>
      <trkpt lat="41.31725" lon="19.44505">
        <ele>86.135433</ele>
        <time>2022-05-06T08:52:45.560Z</time>
      </trkpt>
      <trkpt lat="41.31738" lon="19.44505">
        <ele>85.516961</ele>
        <time>2022-05-06T08:52:48.556Z</time>
      </trkpt>
      <trkpt lat="41.31747" lon="19.44506">
        <ele>84.399187</ele>
        <time>2022-05-06T08:52:50.535Z</time>
      </trkpt>
      <trkpt lat="41.31758" lon="19.44507">
        <ele>83.138665</ele>
        <time>2022-05-06T08:52:52.549Z</time>
      </trkpt>
      <trkpt lat="41.3177" lon="19.44506">
        <ele>81.735877</ele>
        <time>2022-05-06T08:52:54.557Z</time>
      </trkpt>
      <trkpt lat="41.3178" lon="19.44508">
        <ele>80.453045</ele>
        <time>2022-05-06T08:52:56.539Z</time>
      </trkpt>
      <trkpt lat="41.31791" lon="19.44509">
        <ele>79.180138</ele>
        <time>2022-05-06T08:52:58.549Z</time>
      </trkpt>
      <trkpt lat="41.31801" lon="19.44507">
        <ele>77.938159</ele>
        <time>2022-05-06T08:53:00.596Z</time>
      </trkpt>
      <trkpt lat="41.31813" lon="19.44503">
        <ele>76.483282</ele>
        <time>2022-05-06T08:53:03.547Z</time>
      </trkpt>
      <trkpt lat="41.31822" lon="19.44503">
        <ele>75.402834</ele>
        <time>2022-05-06T08:53:05.545Z</time>
      </trkpt>
      <trkpt lat="41.31833" lon="19.445">
        <ele>74.076422</ele>
        <time>2022-05-06T08:53:07.547Z</time>
      </trkpt>
      <trkpt lat="41.31844" lon="19.44499">
        <ele>72.754912</ele>
        <time>2022-05-06T08:53:09.563Z</time>
      </trkpt>
      <trkpt lat="41.31856" lon="19.44502">
        <ele>71.396747</ele>
        <time>2022-05-06T08:53:11.572Z</time>
      </trkpt>
      <trkpt lat="41.31867" lon="19.44507">
        <ele>69.999822</ele>
        <time>2022-05-06T08:53:13.539Z</time>
      </trkpt>
      <trkpt lat="41.31878" lon="19.44511">
        <ele>68.642254</ele>
        <time>2022-05-06T08:53:15.569Z</time>
      </trkpt>
      <trkpt lat="41.31887" lon="19.44515">
        <ele>67.515534</ele>
        <time>2022-05-06T08:53:17.547Z</time>
      </trkpt>
      <trkpt lat="41.31897" lon="19.44516">
        <ele>66.3433</ele>
        <time>2022-05-06T08:53:19.543Z</time>
      </trkpt>
      <trkpt lat="41.31909" lon="19.44517">
        <ele>65.071111</ele>
        <time>2022-05-06T08:53:22.548Z</time>
      </trkpt>
      <trkpt lat="41.31921" lon="19.44516">
        <ele>64.909903</ele>
        <time>2022-05-06T08:53:25.547Z</time>
      </trkpt>
      <trkpt lat="41.31933" lon="19.44515">
        <ele>64.74171</ele>
        <time>2022-05-06T08:53:28.538Z</time>
      </trkpt>
      <trkpt lat="41.31942" lon="19.44516">
        <ele>64.613322</ele>
        <time>2022-05-06T08:53:30.565Z</time>
      </trkpt>
      <trkpt lat="41.31952" lon="19.44517">
        <ele>64.483872</ele>
        <time>2022-05-06T08:53:32.532Z</time>
      </trkpt>
      <trkpt lat="41.31961" lon="19.44517">
        <ele>64.355901</ele>
        <time>2022-05-06T08:53:34.555Z</time>
      </trkpt>
      <trkpt lat="41.3197" lon="19.44517">
        <ele>64.225113</ele>
        <time>2022-05-06T08:53:36.535Z</time>
      </trkpt>
      <trkpt lat="41.31981" lon="19.44517">
        <ele>64.077819</ele>
        <time>2022-05-06T08:53:38.562Z</time>
      </trkpt>
      <trkpt lat="41.31992" lon="19.44518">
        <ele>63.924731</ele>
        <time>2022-05-06T08:53:40.588Z</time>
      </trkpt>
      <trkpt lat="41.32002" lon="19.44518">
        <ele>63.79528</ele>
        <time>2022-05-06T08:53:42.547Z</time>
      </trkpt>
      <trkpt lat="41.32015" lon="19.44515">
        <ele>63.606504</ele>
        <time>2022-05-06T08:53:45.544Z</time>
      </trkpt>
      <trkpt lat="41.32027" lon="19.44518">
        <ele>63.443911</ele>
        <time>2022-05-06T08:53:47.526Z</time>
      </trkpt>
      <trkpt lat="41.32037" lon="19.44519">
        <ele>63.308581</ele>
        <time>2022-05-06T08:53:49.546Z</time>
      </trkpt>
      <trkpt lat="41.32046" lon="19.44517">
        <ele>63.176817</ele>
        <time>2022-05-06T08:53:51.574Z</time>
      </trkpt>
      <trkpt lat="41.32056" lon="19.44515">
        <ele>63.047645</ele>
        <time>2022-05-06T08:53:53.535Z</time>
      </trkpt>
      <trkpt lat="41.32067" lon="19.44515">
        <ele>62.896225</ele>
        <time>2022-05-06T08:53:55.541Z</time>
      </trkpt>
      <trkpt lat="41.32078" lon="19.44516">
        <ele>62.73321</ele>
        <time>2022-05-06T08:53:57.537Z</time>
      </trkpt>
      <trkpt lat="41.32092" lon="19.44519">
        <ele>62.643251</ele>
        <time>2022-05-06T08:53:59.535Z</time>
      </trkpt>
      <trkpt lat="41.32104" lon="19.44521">
        <ele>62.685967</ele>
        <time>2022-05-06T08:54:01.560Z</time>
      </trkpt>
      <trkpt lat="41.32113" lon="19.44524">
        <ele>62.7218</ele>
        <time>2022-05-06T08:54:03.547Z</time>
      </trkpt>
      <trkpt lat="41.32123" lon="19.44526">
        <ele>62.757442</ele>
        <time>2022-05-06T08:54:05.541Z</time>
      </trkpt>
      <trkpt lat="41.32134" lon="19.44529">
        <ele>62.79936</ele>
        <time>2022-05-06T08:54:07.546Z</time>
      </trkpt>
      <trkpt lat="41.32147" lon="19.44532">
        <ele>62.844975</ele>
        <time>2022-05-06T08:54:09.543Z</time>
      </trkpt>
      <trkpt lat="41.32159" lon="19.44534">
        <ele>62.891171</ele>
        <time>2022-05-06T08:54:11.522Z</time>
      </trkpt>
      <trkpt lat="41.32169" lon="19.44533">
        <ele>62.927449</ele>
        <time>2022-05-06T08:54:13.593Z</time>
      </trkpt>
      <trkpt lat="41.32179" lon="19.44534">
        <ele>62.960843</ele>
        <time>2022-05-06T08:54:15.551Z</time>
      </trkpt>
      <trkpt lat="41.32188" lon="19.44535">
        <ele>62.995091</ele>
        <time>2022-05-06T08:54:17.532Z</time>
      </trkpt>
      <trkpt lat="41.32197" lon="19.44535">
        <ele>63.028825</ele>
        <time>2022-05-06T08:54:19.567Z</time>
      </trkpt>
      <trkpt lat="41.32207" lon="19.44536">
        <ele>63.062625</ele>
        <time>2022-05-06T08:54:21.550Z</time>
      </trkpt>
      <trkpt lat="41.32216" lon="19.44537">
        <ele>63.097622</ele>
        <time>2022-05-06T08:54:23.537Z</time>
      </trkpt>
      <trkpt lat="41.32226" lon="19.44539">
        <ele>63.132424</ele>
        <time>2022-05-06T08:54:25.541Z</time>
      </trkpt>
      <trkpt lat="41.32235" lon="19.44539">
        <ele>63.167983</ele>
        <time>2022-05-06T08:54:27.550Z</time>
      </trkpt>
      <trkpt lat="41.32246" lon="19.44538">
        <ele>63.20799</ele>
        <time>2022-05-06T08:54:29.583Z</time>
      </trkpt>
      <trkpt lat="41.32256" lon="19.44534">
        <ele>63.244234</ele>
        <time>2022-05-06T08:54:31.543Z</time>
      </trkpt>
      <trkpt lat="41.32265" lon="19.44529">
        <ele>63.287234</ele>
        <time>2022-05-06T08:54:33.528Z</time>
      </trkpt>
      <trkpt lat="41.32275" lon="19.44528">
        <ele>63.403003</ele>
        <time>2022-05-06T08:54:35.543Z</time>
      </trkpt>
      <trkpt lat="41.32287" lon="19.44529">
        <ele>63.536495</ele>
        <time>2022-05-06T08:54:37.552Z</time>
      </trkpt>
      <trkpt lat="41.32297" lon="19.44531">
        <ele>63.646744</ele>
        <time>2022-05-06T08:54:39.546Z</time>
      </trkpt>
      <trkpt lat="41.32309" lon="19.44532">
        <ele>63.786119</ele>
        <time>2022-05-06T08:54:41.563Z</time>
      </trkpt>
      <trkpt lat="41.32322" lon="19.44532">
        <ele>63.936276</ele>
        <time>2022-05-06T08:54:43.531Z</time>
      </trkpt>
      <trkpt lat="41.32334" lon="19.44533">
        <ele>64.065385</ele>
        <time>2022-05-06T08:54:45.551Z</time>
      </trkpt>
      <trkpt lat="41.32343" lon="19.44535">
        <ele>64.168908</ele>
        <time>2022-05-06T08:54:47.526Z</time>
      </trkpt>
      <trkpt lat="41.32353" lon="19.44539">
        <ele>64.294851</ele>
        <time>2022-05-06T08:54:50.558Z</time>
      </trkpt>
      <trkpt lat="41.32365" lon="19.44542">
        <ele>64.431285</ele>
        <time>2022-05-06T08:54:54.539Z</time>
      </trkpt>
      <trkpt lat="41.32378" lon="19.44546">
        <ele>64.576629</ele>
        <time>2022-05-06T08:54:57.557Z</time>
      </trkpt>
      <trkpt lat="41.32388" lon="19.44547">
        <ele>64.686878</ele>
        <time>2022-05-06T08:54:59.543Z</time>
      </trkpt>
      <trkpt lat="41.32398" lon="19.44545">
        <ele>64.807748</ele>
        <time>2022-05-06T08:55:02.539Z</time>
      </trkpt>
      <trkpt lat="41.32408" lon="19.44546">
        <ele>64.919726</ele>
        <time>2022-05-06T08:55:07.553Z</time>
      </trkpt>
      <trkpt lat="41.32419" lon="19.44546">
        <ele>65.047374</ele>
        <time>2022-05-06T08:55:11.535Z</time>
      </trkpt>
      <trkpt lat="41.32428" lon="19.44543">
        <ele>65.151948</ele>
        <time>2022-05-06T08:55:14.584Z</time>
      </trkpt>
      <trkpt lat="41.32439" lon="19.44541">
        <ele>65.27543</ele>
        <time>2022-05-06T08:55:17.549Z</time>
      </trkpt>
      <trkpt lat="41.32451" lon="19.44543">
        <ele>65.208915</ele>
        <time>2022-05-06T08:55:21.533Z</time>
      </trkpt>
      <trkpt lat="41.32464" lon="19.44539">
        <ele>65.058725</ele>
        <time>2022-05-06T08:55:25.547Z</time>
      </trkpt>
      <trkpt lat="41.32475" lon="19.44537">
        <ele>64.937564</ele>
        <time>2022-05-06T08:55:27.550Z</time>
      </trkpt>
      <trkpt lat="41.32485" lon="19.44535">
        <ele>64.829897</ele>
        <time>2022-05-06T08:55:29.532Z</time>
      </trkpt>
      <trkpt lat="41.32495" lon="19.44534">
        <ele>64.727492</ele>
        <time>2022-05-06T08:55:31.544Z</time>
      </trkpt>
      <trkpt lat="41.32507" lon="19.44531">
        <ele>64.59368</ele>
        <time>2022-05-06T08:55:34.548Z</time>
      </trkpt>
      <trkpt lat="41.32516" lon="19.44533">
        <ele>64.4884</ele>
        <time>2022-05-06T08:55:36.541Z</time>
      </trkpt>
      <trkpt lat="41.32525" lon="19.44536">
        <ele>64.388072</ele>
        <time>2022-05-06T08:55:38.531Z</time>
      </trkpt>
      <trkpt lat="41.32535" lon="19.44538">
        <ele>64.276631</ele>
        <time>2022-05-06T08:55:40.551Z</time>
      </trkpt>
      <trkpt lat="41.32546" lon="19.44536">
        <ele>64.157251</ele>
        <time>2022-05-06T08:55:42.553Z</time>
      </trkpt>
      <trkpt lat="41.32556" lon="19.44536">
        <ele>64.049691</ele>
        <time>2022-05-06T08:55:44.533Z</time>
      </trkpt>
      <trkpt lat="41.32566" lon="19.44538">
        <ele>63.938417</ele>
        <time>2022-05-06T08:55:46.564Z</time>
      </trkpt>
      <trkpt lat="41.32578" lon="19.44542">
        <ele>63.810127</ele>
        <time>2022-05-06T08:55:48.560Z</time>
      </trkpt>
      <trkpt lat="41.3259" lon="19.44542">
        <ele>63.679789</ele>
        <time>2022-05-06T08:55:50.538Z</time>
      </trkpt>
      <trkpt lat="41.32603" lon="19.44542">
        <ele>63.538611</ele>
        <time>2022-05-06T08:55:52.548Z</time>
      </trkpt>
      <trkpt lat="41.32615" lon="19.44541">
        <ele>63.408255</ele>
        <time>2022-05-06T08:55:54.575Z</time>
      </trkpt>
      <trkpt lat="41.32625" lon="19.44541">
        <ele>63.274776</ele>
        <time>2022-05-06T08:55:56.537Z</time>
      </trkpt>
      <trkpt lat="41.32636" lon="19.44541">
        <ele>63.12546</ele>
        <time>2022-05-06T08:55:58.548Z</time>
      </trkpt>
      <trkpt lat="41.32645" lon="19.44541">
        <ele>62.987706</ele>
        <time>2022-05-06T08:56:00.546Z</time>
      </trkpt>
      <trkpt lat="41.32657" lon="19.44541">
        <ele>62.810838</ele>
        <time>2022-05-06T08:56:03.531Z</time>
      </trkpt>
      <trkpt lat="41.32669" lon="19.44541">
        <ele>62.645547</ele>
        <time>2022-05-06T08:56:07.550Z</time>
      </trkpt>
      <trkpt lat="41.32682" lon="19.44542">
        <ele>62.453886</ele>
        <time>2022-05-06T08:56:10.548Z</time>
      </trkpt>
      <trkpt lat="41.32692" lon="19.44544">
        <ele>62.308006</ele>
        <time>2022-05-06T08:56:12.528Z</time>
      </trkpt>
      <trkpt lat="41.32702" lon="19.44544">
        <ele>62.1585</ele>
        <time>2022-05-06T08:56:14.533Z</time>
      </trkpt>
      <trkpt lat="41.32712" lon="19.44544">
        <ele>62.014949</ele>
        <time>2022-05-06T08:56:16.577Z</time>
      </trkpt>
      <trkpt lat="41.32722" lon="19.44543">
        <ele>61.86689</ele>
        <time>2022-05-06T08:56:18.563Z</time>
      </trkpt>
      <trkpt lat="41.32732" lon="19.44545">
        <ele>61.730658</ele>
        <time>2022-05-06T08:56:20.547Z</time>
      </trkpt>
      <trkpt lat="41.32742" lon="19.44547">
        <ele>61.577191</ele>
        <time>2022-05-06T08:56:23.551Z</time>
      </trkpt>
      <trkpt lat="41.32752" lon="19.44546">
        <ele>61.430374</ele>
        <time>2022-05-06T08:56:25.528Z</time>
      </trkpt>
      <trkpt lat="41.32764" lon="19.44544">
        <ele>61.263063</ele>
        <time>2022-05-06T08:56:27.538Z</time>
      </trkpt>
      <trkpt lat="41.32774" lon="19.44541">
        <ele>61.109032</ele>
        <time>2022-05-06T08:56:29.555Z</time>
      </trkpt>
      <trkpt lat="41.32785" lon="19.44537">
        <ele>60.942047</ele>
        <time>2022-05-06T08:56:31.549Z</time>
      </trkpt>
      <trkpt lat="41.32797" lon="19.44534">
        <ele>60.768484</ele>
        <time>2022-05-06T08:56:33.573Z</time>
      </trkpt>
      <trkpt lat="41.32809" lon="19.44535">
        <ele>60.209511</ele>
        <time>2022-05-06T08:56:35.538Z</time>
      </trkpt>
      <trkpt lat="41.32823" lon="19.44538">
        <ele>59.510089</ele>
        <time>2022-05-06T08:56:37.548Z</time>
      </trkpt>
      <trkpt lat="41.32835" lon="19.4454">
        <ele>58.861208</ele>
        <time>2022-05-06T08:56:39.553Z</time>
      </trkpt>
      <trkpt lat="41.32848" lon="19.44542">
        <ele>58.226309</ele>
        <time>2022-05-06T08:56:41.562Z</time>
      </trkpt>
      <trkpt lat="41.3286" lon="19.44543">
        <ele>57.614473</ele>
        <time>2022-05-06T08:56:43.542Z</time>
      </trkpt>
      <trkpt lat="41.32869" lon="19.44544">
        <ele>57.119597</ele>
        <time>2022-05-06T08:56:45.568Z</time>
      </trkpt>
      <trkpt lat="41.3288" lon="19.44544">
        <ele>56.60054</ele>
        <time>2022-05-06T08:56:47.582Z</time>
      </trkpt>
      <trkpt lat="41.3289" lon="19.44545">
        <ele>56.079687</ele>
        <time>2022-05-06T08:56:49.559Z</time>
      </trkpt>
      <trkpt lat="41.32901" lon="19.44546">
        <ele>55.523934</ele>
        <time>2022-05-06T08:56:51.566Z</time>
      </trkpt>
      <trkpt lat="41.32912" lon="19.44547">
        <ele>54.96394</ele>
        <time>2022-05-06T08:56:53.578Z</time>
      </trkpt>
      <trkpt lat="41.32923" lon="19.44547">
        <ele>54.409173</ele>
        <time>2022-05-06T08:56:55.567Z</time>
      </trkpt>
      <trkpt lat="41.32933" lon="19.44548">
        <ele>53.900456</ele>
        <time>2022-05-06T08:56:57.555Z</time>
      </trkpt>
      <trkpt lat="41.32943" lon="19.44548">
        <ele>53.376523</ele>
        <time>2022-05-06T08:56:59.564Z</time>
      </trkpt>
      <trkpt lat="41.32953" lon="19.44548">
        <ele>52.86785</ele>
        <time>2022-05-06T08:57:01.554Z</time>
      </trkpt>
      <trkpt lat="41.32962" lon="19.44548">
        <ele>52.40497</ele>
        <time>2022-05-06T08:57:03.551Z</time>
      </trkpt>
      <trkpt lat="41.32972" lon="19.44548">
        <ele>51.916642</ele>
        <time>2022-05-06T08:57:05.559Z</time>
      </trkpt>
      <trkpt lat="41.32981" lon="19.44548">
        <ele>51.596483</ele>
        <time>2022-05-06T08:57:07.555Z</time>
      </trkpt>
      <trkpt lat="41.3299" lon="19.44549">
        <ele>51.598266</ele>
        <time>2022-05-06T08:57:09.582Z</time>
      </trkpt>
      <trkpt lat="41.32999" lon="19.44549">
        <ele>51.600044</ele>
        <time>2022-05-06T08:57:11.546Z</time>
      </trkpt>
      <trkpt lat="41.33012" lon="19.44549">
        <ele>51.602621</ele>
        <time>2022-05-06T08:57:14.563Z</time>
      </trkpt>
      <trkpt lat="41.33024" lon="19.44551">
        <ele>51.605051</ele>
        <time>2022-05-06T08:57:17.569Z</time>
      </trkpt>
      <trkpt lat="41.33034" lon="19.4455">
        <ele>51.606949</ele>
        <time>2022-05-06T08:57:19.543Z</time>
      </trkpt>
      <trkpt lat="41.33044" lon="19.4455">
        <ele>51.608844</ele>
        <time>2022-05-06T08:57:21.559Z</time>
      </trkpt>
      <trkpt lat="41.33054" lon="19.4455">
        <ele>51.610797</ele>
        <time>2022-05-06T08:57:23.554Z</time>
      </trkpt>
      <trkpt lat="41.33064" lon="19.44551">
        <ele>51.612829</ele>
        <time>2022-05-06T08:57:25.562Z</time>
      </trkpt>
      <trkpt lat="41.33074" lon="19.44551">
        <ele>51.614783</ele>
        <time>2022-05-06T08:57:27.572Z</time>
      </trkpt>
      <trkpt lat="41.33084" lon="19.44551">
        <ele>51.616638</ele>
        <time>2022-05-06T08:57:29.576Z</time>
      </trkpt>
      <trkpt lat="41.33097" lon="19.44554">
        <ele>51.619277</ele>
        <time>2022-05-06T08:57:32.605Z</time>
      </trkpt>
      <trkpt lat="41.33111" lon="19.44554">
        <ele>51.621972</ele>
        <time>2022-05-06T08:57:35.571Z</time>
      </trkpt>
      <trkpt lat="41.3312" lon="19.44554">
        <ele>51.62381</ele>
        <time>2022-05-06T08:57:37.554Z</time>
      </trkpt>
      <trkpt lat="41.3313" lon="19.44552">
        <ele>51.625625</ele>
        <time>2022-05-06T08:57:39.554Z</time>
      </trkpt>
      <trkpt lat="41.33139" lon="19.44549">
        <ele>51.627569</ele>
        <time>2022-05-06T08:57:41.560Z</time>
      </trkpt>
      <trkpt lat="41.3315" lon="19.44547">
        <ele>51.629629</ele>
        <time>2022-05-06T08:57:43.556Z</time>
      </trkpt>
      <trkpt lat="41.3316" lon="19.44548">
        <ele>51.64756</ele>
        <time>2022-05-06T08:57:45.569Z</time>
      </trkpt>
      <trkpt lat="41.33171" lon="19.44547">
        <ele>51.700198</ele>
        <time>2022-05-06T08:57:47.579Z</time>
      </trkpt>
      <trkpt lat="41.3318" lon="19.44546">
        <ele>51.750946</ele>
        <time>2022-05-06T08:57:49.579Z</time>
      </trkpt>
      <trkpt lat="41.3319" lon="19.44545">
        <ele>51.801589</ele>
        <time>2022-05-06T08:57:51.579Z</time>
      </trkpt>
      <trkpt lat="41.33201" lon="19.44545">
        <ele>51.856249</ele>
        <time>2022-05-06T08:57:53.553Z</time>
      </trkpt>
      <trkpt lat="41.33212" lon="19.44546">
        <ele>51.911467</ele>
        <time>2022-05-06T08:57:55.587Z</time>
      </trkpt>
      <trkpt lat="41.33222" lon="19.44547">
        <ele>51.962091</ele>
        <time>2022-05-06T08:57:57.544Z</time>
      </trkpt>
      <trkpt lat="41.33231" lon="19.44547">
        <ele>52.011665</ele>
        <time>2022-05-06T08:57:59.557Z</time>
      </trkpt>
      <trkpt lat="41.33241" lon="19.44548">
        <ele>52.062819</ele>
        <time>2022-05-06T08:58:01.610Z</time>
      </trkpt>
      <trkpt lat="41.33252" lon="19.4455">
        <ele>52.11599</ele>
        <time>2022-05-06T08:58:03.582Z</time>
      </trkpt>
      <trkpt lat="41.33262" lon="19.44551">
        <ele>52.167441</ele>
        <time>2022-05-06T08:58:05.567Z</time>
      </trkpt>
      <trkpt lat="41.33272" lon="19.44552">
        <ele>52.217515</ele>
        <time>2022-05-06T08:58:07.551Z</time>
      </trkpt>
      <trkpt lat="41.33282" lon="19.44552">
        <ele>52.269621</ele>
        <time>2022-05-06T08:58:09.547Z</time>
      </trkpt>
      <trkpt lat="41.33292" lon="19.44552">
        <ele>52.32074</ele>
        <time>2022-05-06T08:58:11.570Z</time>
      </trkpt>
      <trkpt lat="41.33301" lon="19.44552">
        <ele>52.37029</ele>
        <time>2022-05-06T08:58:13.559Z</time>
      </trkpt>
      <trkpt lat="41.33311" lon="19.44552">
        <ele>52.417797</ele>
        <time>2022-05-06T08:58:15.551Z</time>
      </trkpt>
      <trkpt lat="41.3332" lon="19.44552">
        <ele>52.467349</ele>
        <time>2022-05-06T08:58:17.555Z</time>
      </trkpt>
      <trkpt lat="41.33331" lon="19.44551">
        <ele>52.522652</ele>
        <time>2022-05-06T08:58:19.599Z</time>
      </trkpt>
      <trkpt lat="41.33341" lon="19.4455">
        <ele>52.596134</ele>
        <time>2022-05-06T08:58:21.577Z</time>
      </trkpt>
      <trkpt lat="41.33351" lon="19.44549">
        <ele>52.69581</ele>
        <time>2022-05-06T08:58:23.570Z</time>
      </trkpt>
      <trkpt lat="41.33361" lon="19.44548">
        <ele>52.799857</ele>
        <time>2022-05-06T08:58:25.551Z</time>
      </trkpt>
      <trkpt lat="41.33372" lon="19.44548">
        <ele>52.911743</ele>
        <time>2022-05-06T08:58:27.593Z</time>
      </trkpt>
      <trkpt lat="41.33383" lon="19.44547">
        <ele>53.023652</ele>
        <time>2022-05-06T08:58:29.560Z</time>
      </trkpt>
      <trkpt lat="41.33393" lon="19.44547">
        <ele>53.128358</ele>
        <time>2022-05-06T08:58:31.594Z</time>
      </trkpt>
      <trkpt lat="41.33403" lon="19.44547">
        <ele>53.234048</ele>
        <time>2022-05-06T08:58:33.566Z</time>
      </trkpt>
      <trkpt lat="41.33413" lon="19.44548">
        <ele>53.333876</ele>
        <time>2022-05-06T08:58:35.560Z</time>
      </trkpt>
      <trkpt lat="41.33426" lon="19.44548">
        <ele>53.472417</ele>
        <time>2022-05-06T08:58:38.570Z</time>
      </trkpt>
      <trkpt lat="41.33436" lon="19.4455">
        <ele>53.575513</ele>
        <time>2022-05-06T08:58:40.562Z</time>
      </trkpt>
      <trkpt lat="41.33449" lon="19.44548">
        <ele>53.702568</ele>
        <time>2022-05-06T08:58:43.558Z</time>
      </trkpt>
      <trkpt lat="41.33459" lon="19.44548">
        <ele>53.804197</ele>
        <time>2022-05-06T08:58:45.571Z</time>
      </trkpt>
      <trkpt lat="41.33469" lon="19.4455">
        <ele>53.911534</ele>
        <time>2022-05-06T08:58:47.553Z</time>
      </trkpt>
      <trkpt lat="41.33478" lon="19.44551">
        <ele>54.009994</ele>
        <time>2022-05-06T08:58:49.538Z</time>
      </trkpt>
      <trkpt lat="41.33488" lon="19.4455">
        <ele>54.110974</ele>
        <time>2022-05-06T08:58:51.558Z</time>
      </trkpt>
      <trkpt lat="41.33499" lon="19.4455">
        <ele>54.224912</ele>
        <time>2022-05-06T08:58:53.555Z</time>
      </trkpt>
      <trkpt lat="41.33513" lon="19.4455">
        <ele>54.360375</ele>
        <time>2022-05-06T08:58:55.583Z</time>
      </trkpt>
      <trkpt lat="41.33524" lon="19.44548">
        <ele>53.992805</ele>
        <time>2022-05-06T08:58:57.567Z</time>
      </trkpt>
      <trkpt lat="41.33534" lon="19.44545">
        <ele>53.49386</ele>
        <time>2022-05-06T08:58:59.547Z</time>
      </trkpt>
      <trkpt lat="41.33546" lon="19.4454">
        <ele>52.93174</ele>
        <time>2022-05-06T08:59:01.559Z</time>
      </trkpt>
      <trkpt lat="41.33556" lon="19.44536">
        <ele>52.382396</ele>
        <time>2022-05-06T08:59:03.565Z</time>
      </trkpt>
      <trkpt lat="41.33566" lon="19.44532">
        <ele>51.890026</ele>
        <time>2022-05-06T08:59:05.556Z</time>
      </trkpt>
      <trkpt lat="41.33576" lon="19.44528">
        <ele>51.402459</ele>
        <time>2022-05-06T08:59:07.568Z</time>
      </trkpt>
      <trkpt lat="41.33585" lon="19.44523">
        <ele>50.923621</ele>
        <time>2022-05-06T08:59:09.610Z</time>
      </trkpt>
      <trkpt lat="41.33595" lon="19.44518">
        <ele>50.406843</ele>
        <time>2022-05-06T08:59:11.539Z</time>
      </trkpt>
      <trkpt lat="41.33605" lon="19.44513">
        <ele>49.899865</ele>
        <time>2022-05-06T08:59:13.558Z</time>
      </trkpt>
      <trkpt lat="41.33615" lon="19.4451">
        <ele>49.418772</ele>
        <time>2022-05-06T08:59:15.552Z</time>
      </trkpt>
      <trkpt lat="41.33624" lon="19.44506">
        <ele>48.947928</ele>
        <time>2022-05-06T08:59:17.538Z</time>
      </trkpt>
      <trkpt lat="41.33635" lon="19.44503">
        <ele>48.434381</ele>
        <time>2022-05-06T08:59:19.544Z</time>
      </trkpt>
      <trkpt lat="41.33644" lon="19.445">
        <ele>47.964384</ele>
        <time>2022-05-06T08:59:21.566Z</time>
      </trkpt>
      <trkpt lat="41.33653" lon="19.44496">
        <ele>47.504774</ele>
        <time>2022-05-06T08:59:23.555Z</time>
      </trkpt>
      <trkpt lat="41.33662" lon="19.44493">
        <ele>47.050764</ele>
        <time>2022-05-06T08:59:25.569Z</time>
      </trkpt>
      <trkpt lat="41.33671" lon="19.4449">
        <ele>46.610672</ele>
        <time>2022-05-06T08:59:27.561Z</time>
      </trkpt>
      <trkpt lat="41.3368" lon="19.44486">
        <ele>46.154709</ele>
        <time>2022-05-06T08:59:29.552Z</time>
      </trkpt>
      <trkpt lat="41.3369" lon="19.44483">
        <ele>45.76138</ele>
        <time>2022-05-06T08:59:31.582Z</time>
      </trkpt>
      <trkpt lat="41.33698" lon="19.44479">
        <ele>45.987169</ele>
        <time>2022-05-06T08:59:33.548Z</time>
      </trkpt>
      <trkpt lat="41.33707" lon="19.44475">
        <ele>46.234631</ele>
        <time>2022-05-06T08:59:35.553Z</time>
      </trkpt>
      <trkpt lat="41.33716" lon="19.44471">
        <ele>46.47241</ele>
        <time>2022-05-06T08:59:37.547Z</time>
      </trkpt>
      <trkpt lat="41.33725" lon="19.44467">
        <ele>46.704798</ele>
        <time>2022-05-06T08:59:39.551Z</time>
      </trkpt>
      <trkpt lat="41.33734" lon="19.44463">
        <ele>46.935392</ele>
        <time>2022-05-06T08:59:41.558Z</time>
      </trkpt>
      <trkpt lat="41.33745" lon="19.44458">
        <ele>47.249888</ele>
        <time>2022-05-06T08:59:44.551Z</time>
      </trkpt>
      <trkpt lat="41.33757" lon="19.44454">
        <ele>47.555973</ele>
        <time>2022-05-06T08:59:47.591Z</time>
      </trkpt>
      <trkpt lat="41.3377" lon="19.44451">
        <ele>47.879287</ele>
        <time>2022-05-06T08:59:50.562Z</time>
      </trkpt>
      <trkpt lat="41.33783" lon="19.44445">
        <ele>48.218301</ele>
        <time>2022-05-06T08:59:53.569Z</time>
      </trkpt>
      <trkpt lat="41.33795" lon="19.4444">
        <ele>48.55309</ele>
        <time>2022-05-06T08:59:56.535Z</time>
      </trkpt>
      <trkpt lat="41.33808" lon="19.44435">
        <ele>48.881041</ele>
        <time>2022-05-06T08:59:59.559Z</time>
      </trkpt>
      <trkpt lat="41.33817" lon="19.44432">
        <ele>49.111872</ele>
        <time>2022-05-06T09:00:01.552Z</time>
      </trkpt>
      <trkpt lat="41.33826" lon="19.44429">
        <ele>49.358314</ele>
        <time>2022-05-06T09:00:03.563Z</time>
      </trkpt>
      <trkpt lat="41.33835" lon="19.44425">
        <ele>49.588316</ele>
        <time>2022-05-06T09:00:05.603Z</time>
      </trkpt>
      <trkpt lat="41.33844" lon="19.44421">
        <ele>49.829685</ele>
        <time>2022-05-06T09:00:07.554Z</time>
      </trkpt>
      <trkpt lat="41.33853" lon="19.44417">
        <ele>50.077174</ele>
        <time>2022-05-06T09:00:09.590Z</time>
      </trkpt>
      <trkpt lat="41.33862" lon="19.44413">
        <ele>50.282291</ele>
        <time>2022-05-06T09:00:11.555Z</time>
      </trkpt>
      <trkpt lat="41.33872" lon="19.4441">
        <ele>50.304279</ele>
        <time>2022-05-06T09:00:13.588Z</time>
      </trkpt>
      <trkpt lat="41.33881" lon="19.44407">
        <ele>50.324785</ele>
        <time>2022-05-06T09:00:15.559Z</time>
      </trkpt>
      <trkpt lat="41.33892" lon="19.44402">
        <ele>50.352193</ele>
        <time>2022-05-06T09:00:18.554Z</time>
      </trkpt>
      <trkpt lat="41.33903" lon="19.44398">
        <ele>50.376266</ele>
        <time>2022-05-06T09:00:21.563Z</time>
      </trkpt>
      <trkpt lat="41.33914" lon="19.44392">
        <ele>50.40445</ele>
        <time>2022-05-06T09:00:24.570Z</time>
      </trkpt>
      <trkpt lat="41.33926" lon="19.44387">
        <ele>50.431593</ele>
        <time>2022-05-06T09:00:27.567Z</time>
      </trkpt>
      <trkpt lat="41.33937" lon="19.44381">
        <ele>50.458006</ele>
        <time>2022-05-06T09:00:30.545Z</time>
      </trkpt>
      <trkpt lat="41.33949" lon="19.44378">
        <ele>50.485515</ele>
        <time>2022-05-06T09:00:33.548Z</time>
      </trkpt>
      <trkpt lat="41.33961" lon="19.44374">
        <ele>50.514852</ele>
        <time>2022-05-06T09:00:36.619Z</time>
      </trkpt>
      <trkpt lat="41.33974" lon="19.44368">
        <ele>50.544505</ele>
        <time>2022-05-06T09:00:39.543Z</time>
      </trkpt>
      <trkpt lat="41.33986" lon="19.44364">
        <ele>50.573569</ele>
        <time>2022-05-06T09:00:42.559Z</time>
      </trkpt>
      <trkpt lat="41.33996" lon="19.44361">
        <ele>50.595422</ele>
        <time>2022-05-06T09:00:44.561Z</time>
      </trkpt>
      <trkpt lat="41.34005" lon="19.44357">
        <ele>50.616406</ele>
        <time>2022-05-06T09:00:46.570Z</time>
      </trkpt>
      <trkpt lat="41.34014" lon="19.44353">
        <ele>50.637537</ele>
        <time>2022-05-06T09:00:48.552Z</time>
      </trkpt>
      <trkpt lat="41.34022" lon="19.44349">
        <ele>50.65807</ele>
        <time>2022-05-06T09:00:50.608Z</time>
      </trkpt>
      <trkpt lat="41.34031" lon="19.44345">
        <ele>50.678439</ele>
        <time>2022-05-06T09:00:52.571Z</time>
      </trkpt>
      <trkpt lat="41.34043" lon="19.44341">
        <ele>50.265053</ele>
        <time>2022-05-06T09:00:55.571Z</time>
      </trkpt>
      <trkpt lat="41.34056" lon="19.44337">
        <ele>49.787244</ele>
        <time>2022-05-06T09:00:58.541Z</time>
      </trkpt>
      <trkpt lat="41.34067" lon="19.44338">
        <ele>49.350331</ele>
        <time>2022-05-06T09:01:02.563Z</time>
      </trkpt>
      <trkpt lat="41.34071" lon="19.4435">
        <ele>48.981978</ele>
        <time>2022-05-06T09:01:05.550Z</time>
      </trkpt>
      <trkpt lat="41.34073" lon="19.44366">
        <ele>48.526384</ele>
        <time>2022-05-06T09:01:08.681Z</time>
      </trkpt>
      <trkpt lat="41.34077" lon="19.44382">
        <ele>48.060144</ele>
        <time>2022-05-06T09:01:11.573Z</time>
      </trkpt>
      <trkpt lat="41.3408" lon="19.44398">
        <ele>47.577868</ele>
        <time>2022-05-06T09:01:14.566Z</time>
      </trkpt>
      <trkpt lat="41.34083" lon="19.4441">
        <ele>47.223582</ele>
        <time>2022-05-06T09:01:16.562Z</time>
      </trkpt>
      <trkpt lat="41.34085" lon="19.44423">
        <ele>46.871675</ele>
        <time>2022-05-06T09:01:18.563Z</time>
      </trkpt>
      <trkpt lat="41.34087" lon="19.44435">
        <ele>46.518788</ele>
        <time>2022-05-06T09:01:20.566Z</time>
      </trkpt>
      <trkpt lat="41.34088" lon="19.44447">
        <ele>46.15911</ele>
        <time>2022-05-06T09:01:22.559Z</time>
      </trkpt>
      <trkpt lat="41.34092" lon="19.4446">
        <ele>45.789433</ele>
        <time>2022-05-06T09:01:24.608Z</time>
      </trkpt>
      <trkpt lat="41.34095" lon="19.44472">
        <ele>45.406605</ele>
        <time>2022-05-06T09:01:26.567Z</time>
      </trkpt>
      <trkpt lat="41.341" lon="19.44484">
        <ele>45.032622</ele>
        <time>2022-05-06T09:01:28.547Z</time>
      </trkpt>
      <trkpt lat="41.34103" lon="19.44497">
        <ele>44.660422</ele>
        <time>2022-05-06T09:01:30.543Z</time>
      </trkpt>
      <trkpt lat="41.34106" lon="19.4451">
        <ele>44.271139</ele>
        <time>2022-05-06T09:01:32.562Z</time>
      </trkpt>
      <trkpt lat="41.34108" lon="19.44522">
        <ele>43.926491</ele>
        <time>2022-05-06T09:01:34.563Z</time>
      </trkpt>
      <trkpt lat="41.34111" lon="19.44538">
        <ele>43.693218</ele>
        <time>2022-05-06T09:01:37.541Z</time>
      </trkpt>
      <trkpt lat="41.34115" lon="19.44554">
        <ele>43.443144</ele>
        <time>2022-05-06T09:01:40.558Z</time>
      </trkpt>
      <trkpt lat="41.34118" lon="19.44572">
        <ele>43.181577</ele>
        <time>2022-05-06T09:01:43.557Z</time>
      </trkpt>
      <trkpt lat="41.34121" lon="19.44584">
        <ele>42.995391</ele>
        <time>2022-05-06T09:01:45.541Z</time>
      </trkpt>
      <trkpt lat="41.34123" lon="19.44597">
        <ele>42.803589</ele>
        <time>2022-05-06T09:01:47.560Z</time>
      </trkpt>
      <trkpt lat="41.34125" lon="19.44612">
        <ele>42.594507</ele>
        <time>2022-05-06T09:01:49.555Z</time>
      </trkpt>
      <trkpt lat="41.34127" lon="19.44626">
        <ele>42.382317</ele>
        <time>2022-05-06T09:01:51.554Z</time>
      </trkpt>
      <trkpt lat="41.34129" lon="19.44641">
        <ele>42.165879</ele>
        <time>2022-05-06T09:01:53.551Z</time>
      </trkpt>
      <trkpt lat="41.34131" lon="19.44655">
        <ele>41.961172</ele>
        <time>2022-05-06T09:01:55.528Z</time>
      </trkpt>
      <trkpt lat="41.34133" lon="19.44669">
        <ele>41.751677</ele>
        <time>2022-05-06T09:01:57.580Z</time>
      </trkpt>
      <trkpt lat="41.34136" lon="19.44683">
        <ele>41.550152</ele>
        <time>2022-05-06T09:01:59.545Z</time>
      </trkpt>
      <trkpt lat="41.34138" lon="19.44697">
        <ele>41.34163</ele>
        <time>2022-05-06T09:02:01.545Z</time>
      </trkpt>
      <trkpt lat="41.34142" lon="19.44711">
        <ele>41.132719</ele>
        <time>2022-05-06T09:02:03.591Z</time>
      </trkpt>
      <trkpt lat="41.34145" lon="19.44723">
        <ele>40.933271</ele>
        <time>2022-05-06T09:02:05.537Z</time>
      </trkpt>
      <trkpt lat="41.3415" lon="19.44735">
        <ele>40.743191</ele>
        <time>2022-05-06T09:02:07.550Z</time>
      </trkpt>
      <trkpt lat="41.34154" lon="19.44747">
        <ele>40.553934</ele>
        <time>2022-05-06T09:02:09.573Z</time>
      </trkpt>
      <trkpt lat="41.34158" lon="19.44759">
        <ele>40.565888</ele>
        <time>2022-05-06T09:02:11.567Z</time>
      </trkpt>
      <trkpt lat="41.34162" lon="19.4477">
        <ele>40.697188</ele>
        <time>2022-05-06T09:02:13.539Z</time>
      </trkpt>
      <trkpt lat="41.34169" lon="19.44785">
        <ele>40.887092</ele>
        <time>2022-05-06T09:02:16.549Z</time>
      </trkpt>
      <trkpt lat="41.34174" lon="19.44797">
        <ele>41.03093</ele>
        <time>2022-05-06T09:02:18.549Z</time>
      </trkpt>
      <trkpt lat="41.34178" lon="19.44809">
        <ele>41.17638</ele>
        <time>2022-05-06T09:02:20.614Z</time>
      </trkpt>
      <trkpt lat="41.34184" lon="19.4482">
        <ele>41.322048</ele>
        <time>2022-05-06T09:02:22.556Z</time>
      </trkpt>
      <trkpt lat="41.34189" lon="19.44831">
        <ele>41.462918</ele>
        <time>2022-05-06T09:02:24.535Z</time>
      </trkpt>
      <trkpt lat="41.34193" lon="19.44843">
        <ele>41.606114</ele>
        <time>2022-05-06T09:02:26.579Z</time>
      </trkpt>
      <trkpt lat="41.34198" lon="19.44855">
        <ele>41.751445</ele>
        <time>2022-05-06T09:02:28.544Z</time>
      </trkpt>
      <trkpt lat="41.34203" lon="19.44867">
        <ele>41.900134</ele>
        <time>2022-05-06T09:02:30.548Z</time>
      </trkpt>
      <trkpt lat="41.34208" lon="19.44879">
        <ele>42.048991</ele>
        <time>2022-05-06T09:02:32.545Z</time>
      </trkpt>
      <trkpt lat="41.34213" lon="19.44892">
        <ele>42.1983</ele>
        <time>2022-05-06T09:02:34.545Z</time>
      </trkpt>
      <trkpt lat="41.34218" lon="19.44903">
        <ele>42.341555</ele>
        <time>2022-05-06T09:02:36.554Z</time>
      </trkpt>
      <trkpt lat="41.34223" lon="19.44914">
        <ele>42.480734</ele>
        <time>2022-05-06T09:02:38.551Z</time>
      </trkpt>
      <trkpt lat="41.34228" lon="19.44924">
        <ele>42.619115</ele>
        <time>2022-05-06T09:02:40.571Z</time>
      </trkpt>
      <trkpt lat="41.34233" lon="19.44936">
        <ele>42.757395</ele>
        <time>2022-05-06T09:02:42.571Z</time>
      </trkpt>
      <trkpt lat="41.34237" lon="19.44947">
        <ele>42.896994</ele>
        <time>2022-05-06T09:02:44.536Z</time>
      </trkpt>
      <trkpt lat="41.34241" lon="19.44959">
        <ele>43.035775</ele>
        <time>2022-05-06T09:02:46.540Z</time>
      </trkpt>
      <trkpt lat="41.34246" lon="19.4497">
        <ele>43.054305</ele>
        <time>2022-05-06T09:02:48.584Z</time>
      </trkpt>
      <trkpt lat="41.34253" lon="19.44985">
        <ele>43.030813</ele>
        <time>2022-05-06T09:02:51.558Z</time>
      </trkpt>
      <trkpt lat="41.34258" lon="19.44997">
        <ele>43.01323</ele>
        <time>2022-05-06T09:02:53.543Z</time>
      </trkpt>
      <trkpt lat="41.34263" lon="19.45008">
        <ele>42.996161</ele>
        <time>2022-05-06T09:02:55.539Z</time>
      </trkpt>
      <trkpt lat="41.34267" lon="19.45021">
        <ele>42.978883</ele>
        <time>2022-05-06T09:02:57.552Z</time>
      </trkpt>
      <trkpt lat="41.34271" lon="19.45033">
        <ele>42.961504</ele>
        <time>2022-05-06T09:02:59.544Z</time>
      </trkpt>
      <trkpt lat="41.34276" lon="19.45045">
        <ele>42.943959</ele>
        <time>2022-05-06T09:03:01.557Z</time>
      </trkpt>
      <trkpt lat="41.34282" lon="19.45056">
        <ele>42.926553</ele>
        <time>2022-05-06T09:03:03.554Z</time>
      </trkpt>
      <trkpt lat="41.34288" lon="19.45067">
        <ele>42.90914</ele>
        <time>2022-05-06T09:03:05.541Z</time>
      </trkpt>
      <trkpt lat="41.34292" lon="19.45078">
        <ele>42.892155</ele>
        <time>2022-05-06T09:03:07.552Z</time>
      </trkpt>
      <trkpt lat="41.34296" lon="19.4509">
        <ele>42.874938</ele>
        <time>2022-05-06T09:03:09.566Z</time>
      </trkpt>
      <trkpt lat="41.34301" lon="19.45103">
        <ele>42.857104</ele>
        <time>2022-05-06T09:03:11.545Z</time>
      </trkpt>
      <trkpt lat="41.34306" lon="19.45115">
        <ele>42.838959</ele>
        <time>2022-05-06T09:03:13.548Z</time>
      </trkpt>
      <trkpt lat="41.3431" lon="19.45127">
        <ele>42.821724</ele>
        <time>2022-05-06T09:03:15.544Z</time>
      </trkpt>
      <trkpt lat="41.34315" lon="19.45138">
        <ele>42.804884</ele>
        <time>2022-05-06T09:03:17.559Z</time>
      </trkpt>
      <trkpt lat="41.3432" lon="19.45149">
        <ele>42.788122</ele>
        <time>2022-05-06T09:03:19.558Z</time>
      </trkpt>
      <trkpt lat="41.34325" lon="19.4516">
        <ele>42.772131</ele>
        <time>2022-05-06T09:03:21.567Z</time>
      </trkpt>
      <trkpt lat="41.3433" lon="19.45172">
        <ele>42.741183</ele>
        <time>2022-05-06T09:03:24.547Z</time>
      </trkpt>
      <trkpt lat="41.34337" lon="19.45184">
        <ele>42.636085</ele>
        <time>2022-05-06T09:03:27.564Z</time>
      </trkpt>
      <trkpt lat="41.34342" lon="19.45195">
        <ele>42.545855</ele>
        <time>2022-05-06T09:03:29.545Z</time>
      </trkpt>
      <trkpt lat="41.34347" lon="19.45207">
        <ele>42.451631</ele>
        <time>2022-05-06T09:03:31.532Z</time>
      </trkpt>
      <trkpt lat="41.34351" lon="19.45218">
        <ele>42.358771</ele>
        <time>2022-05-06T09:03:33.554Z</time>
      </trkpt>
      <trkpt lat="41.34357" lon="19.45229">
        <ele>42.263277</ele>
        <time>2022-05-06T09:03:35.526Z</time>
      </trkpt>
      <trkpt lat="41.34363" lon="19.4524">
        <ele>42.171093</ele>
        <time>2022-05-06T09:03:37.569Z</time>
      </trkpt>
      <trkpt lat="41.34367" lon="19.45251">
        <ele>42.083675</ele>
        <time>2022-05-06T09:03:39.547Z</time>
      </trkpt>
      <trkpt lat="41.34372" lon="19.45262">
        <ele>41.992423</ele>
        <time>2022-05-06T09:03:41.533Z</time>
      </trkpt>
      <trkpt lat="41.34376" lon="19.45274">
        <ele>41.901612</ele>
        <time>2022-05-06T09:03:43.537Z</time>
      </trkpt>
      <trkpt lat="41.3438" lon="19.45286">
        <ele>41.810157</ele>
        <time>2022-05-06T09:03:45.545Z</time>
      </trkpt>
      <trkpt lat="41.34384" lon="19.45298">
        <ele>41.718311</ele>
        <time>2022-05-06T09:03:47.574Z</time>
      </trkpt>
      <trkpt lat="41.34388" lon="19.45309">
        <ele>41.6275</ele>
        <time>2022-05-06T09:03:49.555Z</time>
      </trkpt>
      <trkpt lat="41.34392" lon="19.45321">
        <ele>41.538434</ele>
        <time>2022-05-06T09:03:51.551Z</time>
      </trkpt>
      <trkpt lat="41.34397" lon="19.45332">
        <ele>41.446564</ele>
        <time>2022-05-06T09:03:53.554Z</time>
      </trkpt>
      <trkpt lat="41.34403" lon="19.45344">
        <ele>41.346259</ele>
        <time>2022-05-06T09:03:55.560Z</time>
      </trkpt>
      <trkpt lat="41.34408" lon="19.45354">
        <ele>41.257006</ele>
        <time>2022-05-06T09:03:57.555Z</time>
      </trkpt>
      <trkpt lat="41.34416" lon="19.45367">
        <ele>41.142894</ele>
        <time>2022-05-06T09:04:00.544Z</time>
      </trkpt>
      <trkpt lat="41.3442" lon="19.45381">
        <ele>41.078278</ele>
        <time>2022-05-06T09:04:04.591Z</time>
      </trkpt>
      <trkpt lat="41.34424" lon="19.45394">
        <ele>41.123702</ele>
        <time>2022-05-06T09:04:07.554Z</time>
      </trkpt>
      <trkpt lat="41.34427" lon="19.45407">
        <ele>41.170422</ele>
        <time>2022-05-06T09:04:10.566Z</time>
      </trkpt>
      <trkpt lat="41.34432" lon="19.45419">
        <ele>41.219797</ele>
        <time>2022-05-06T09:04:13.547Z</time>
      </trkpt>
      <trkpt lat="41.34437" lon="19.45433">
        <ele>41.272327</ele>
        <time>2022-05-06T09:04:16.556Z</time>
      </trkpt>
      <trkpt lat="41.34444" lon="19.45447">
        <ele>41.329167</ele>
        <time>2022-05-06T09:04:19.568Z</time>
      </trkpt>
      <trkpt lat="41.3445" lon="19.4546">
        <ele>41.383571</ele>
        <time>2022-05-06T09:04:22.546Z</time>
      </trkpt>
      <trkpt lat="41.34457" lon="19.45473">
        <ele>41.437592</ele>
        <time>2022-05-06T09:04:25.553Z</time>
      </trkpt>
      <trkpt lat="41.34463" lon="19.45488">
        <ele>41.495038</ele>
        <time>2022-05-06T09:04:28.542Z</time>
      </trkpt>
      <trkpt lat="41.34468" lon="19.45503">
        <ele>41.550633</ele>
        <time>2022-05-06T09:04:31.569Z</time>
      </trkpt>
      <trkpt lat="41.34475" lon="19.45516">
        <ele>41.603965</ele>
        <time>2022-05-06T09:04:34.562Z</time>
      </trkpt>
      <trkpt lat="41.34479" lon="19.45527">
        <ele>41.64576</ele>
        <time>2022-05-06T09:04:37.543Z</time>
      </trkpt>
      <trkpt lat="41.34483" lon="19.4554">
        <ele>41.694958</ele>
        <time>2022-05-06T09:04:41.539Z</time>
      </trkpt>
      <trkpt lat="41.34488" lon="19.45554">
        <ele>41.74772</ele>
        <time>2022-05-06T09:04:45.556Z</time>
      </trkpt>
      <trkpt lat="41.34494" lon="19.45567">
        <ele>41.800857</ele>
        <time>2022-05-06T09:04:49.537Z</time>
      </trkpt>
      <trkpt lat="41.34499" lon="19.45579">
        <ele>41.849847</ele>
        <time>2022-05-06T09:04:53.560Z</time>
      </trkpt>
      <trkpt lat="41.34505" lon="19.45591">
        <ele>41.890893</ele>
        <time>2022-05-06T09:04:57.567Z</time>
      </trkpt>
      <trkpt lat="41.3451" lon="19.45605">
        <ele>41.918798</ele>
        <time>2022-05-06T09:05:01.566Z</time>
      </trkpt>
      <trkpt lat="41.34514" lon="19.45617">
        <ele>41.942665</ele>
        <time>2022-05-06T09:05:04.536Z</time>
      </trkpt>
      <trkpt lat="41.34519" lon="19.45629">
        <ele>41.966269</ele>
        <time>2022-05-06T09:05:07.540Z</time>
      </trkpt>
      <trkpt lat="41.34524" lon="19.4564">
        <ele>41.989583</ele>
        <time>2022-05-06T09:05:10.534Z</time>
      </trkpt>
      <trkpt lat="41.3453" lon="19.45651">
        <ele>42.013591</ele>
        <time>2022-05-06T09:05:13.544Z</time>
      </trkpt>
      <trkpt lat="41.34535" lon="19.45662">
        <ele>42.037647</ele>
        <time>2022-05-06T09:05:16.529Z</time>
      </trkpt>
      <trkpt lat="41.34541" lon="19.45674">
        <ele>42.062389</ele>
        <time>2022-05-06T09:05:19.575Z</time>
      </trkpt>
      <trkpt lat="41.34547" lon="19.45687">
        <ele>42.088145</ele>
        <time>2022-05-06T09:05:22.591Z</time>
      </trkpt>
      <trkpt lat="41.34551" lon="19.45699">
        <ele>42.113704</ele>
        <time>2022-05-06T09:05:25.547Z</time>
      </trkpt>
      <trkpt lat="41.34556" lon="19.45711">
        <ele>42.13715</ele>
        <time>2022-05-06T09:05:28.548Z</time>
      </trkpt>
      <trkpt lat="41.34561" lon="19.45724">
        <ele>42.162233</ele>
        <time>2022-05-06T09:05:31.533Z</time>
      </trkpt>
      <trkpt lat="41.34566" lon="19.45739">
        <ele>42.191141</ele>
        <time>2022-05-06T09:05:34.573Z</time>
      </trkpt>
      <trkpt lat="41.3457" lon="19.45752">
        <ele>42.217411</ele>
        <time>2022-05-06T09:05:37.538Z</time>
      </trkpt>
      <trkpt lat="41.34574" lon="19.45766">
        <ele>42.243846</ele>
        <time>2022-05-06T09:05:40.541Z</time>
      </trkpt>
      <trkpt lat="41.34579" lon="19.45779">
        <ele>42.268354</ele>
        <time>2022-05-06T09:05:43.553Z</time>
      </trkpt>
      <trkpt lat="41.34582" lon="19.4579">
        <ele>42.291148</ele>
        <time>2022-05-06T09:05:47.556Z</time>
      </trkpt>
      <trkpt lat="41.34587" lon="19.45803">
        <ele>42.241948</ele>
        <time>2022-05-06T09:05:51.538Z</time>
      </trkpt>
      <trkpt lat="41.34592" lon="19.45816">
        <ele>41.920838</ele>
        <time>2022-05-06T09:05:54.546Z</time>
      </trkpt>
      <trkpt lat="41.34598" lon="19.45828">
        <ele>41.58536</ele>
        <time>2022-05-06T09:05:57.551Z</time>
      </trkpt>
      <trkpt lat="41.34603" lon="19.45841">
        <ele>41.252502</ele>
        <time>2022-05-06T09:06:00.548Z</time>
      </trkpt>
      <trkpt lat="41.34609" lon="19.45854">
        <ele>40.897999</ele>
        <time>2022-05-06T09:06:03.555Z</time>
      </trkpt>
      <trkpt lat="41.34614" lon="19.45867">
        <ele>40.547249</ele>
        <time>2022-05-06T09:06:06.552Z</time>
      </trkpt>
      <trkpt lat="41.3462" lon="19.45881">
        <ele>40.193951</ele>
        <time>2022-05-06T09:06:09.552Z</time>
      </trkpt>
      <trkpt lat="41.34625" lon="19.45895">
        <ele>39.840064</ele>
        <time>2022-05-06T09:06:12.583Z</time>
      </trkpt>
      <trkpt lat="41.34631" lon="19.45908">
        <ele>39.481837</ele>
        <time>2022-05-06T09:06:15.557Z</time>
      </trkpt>
      <trkpt lat="41.34637" lon="19.45921">
        <ele>39.144986</ele>
        <time>2022-05-06T09:06:18.587Z</time>
      </trkpt>
      <trkpt lat="41.34642" lon="19.45934">
        <ele>38.814667</ele>
        <time>2022-05-06T09:06:21.559Z</time>
      </trkpt>
      <trkpt lat="41.34647" lon="19.45947">
        <ele>38.46137</ele>
        <time>2022-05-06T09:06:24.550Z</time>
      </trkpt>
      <trkpt lat="41.34653" lon="19.45962">
        <ele>38.080145</ele>
        <time>2022-05-06T09:06:27.547Z</time>
      </trkpt>
      <trkpt lat="41.34659" lon="19.45977">
        <ele>37.703487</ele>
        <time>2022-05-06T09:06:30.550Z</time>
      </trkpt>
      <trkpt lat="41.34665" lon="19.45992">
        <ele>37.316197</ele>
        <time>2022-05-06T09:06:33.551Z</time>
      </trkpt>
      <trkpt lat="41.34671" lon="19.46007">
        <ele>36.919996</ele>
        <time>2022-05-06T09:06:36.540Z</time>
      </trkpt>
      <trkpt lat="41.34677" lon="19.46022">
        <ele>36.904191</ele>
        <time>2022-05-06T09:06:39.552Z</time>
      </trkpt>
      <trkpt lat="41.34683" lon="19.46036">
        <ele>36.992801</ele>
        <time>2022-05-06T09:06:42.550Z</time>
      </trkpt>
      <trkpt lat="41.34689" lon="19.46047">
        <ele>37.063513</ele>
        <time>2022-05-06T09:06:44.544Z</time>
      </trkpt>
      <trkpt lat="41.34694" lon="19.46063">
        <ele>37.160225</ele>
        <time>2022-05-06T09:06:47.549Z</time>
      </trkpt>
      <trkpt lat="41.347" lon="19.46079">
        <ele>37.260265</ele>
        <time>2022-05-06T09:06:50.544Z</time>
      </trkpt>
      <trkpt lat="41.34706" lon="19.46093">
        <ele>37.347202</ele>
        <time>2022-05-06T09:06:53.541Z</time>
      </trkpt>
      <trkpt lat="41.34711" lon="19.46107">
        <ele>37.435594</ele>
        <time>2022-05-06T09:06:56.541Z</time>
      </trkpt>
      <trkpt lat="41.34717" lon="19.46121">
        <ele>37.524306</ele>
        <time>2022-05-06T09:06:59.560Z</time>
      </trkpt>
      <trkpt lat="41.34724" lon="19.46136">
        <ele>37.613493</ele>
        <time>2022-05-06T09:07:02.573Z</time>
      </trkpt>
      <trkpt lat="41.34729" lon="19.4615">
        <ele>37.701607</ele>
        <time>2022-05-06T09:07:05.538Z</time>
      </trkpt>
      <trkpt lat="41.34736" lon="19.46164">
        <ele>37.793422</ele>
        <time>2022-05-06T09:07:08.569Z</time>
      </trkpt>
      <trkpt lat="41.34742" lon="19.46178">
        <ele>37.88156</ele>
        <time>2022-05-06T09:07:11.563Z</time>
      </trkpt>
      <trkpt lat="41.34748" lon="19.46192">
        <ele>37.971587</ele>
        <time>2022-05-06T09:07:14.585Z</time>
      </trkpt>
      <trkpt lat="41.34755" lon="19.46207">
        <ele>38.067714</ele>
        <time>2022-05-06T09:07:17.554Z</time>
      </trkpt>
      <trkpt lat="41.34761" lon="19.46222">
        <ele>38.142572</ele>
        <time>2022-05-06T09:07:20.578Z</time>
      </trkpt>
      <trkpt lat="41.34767" lon="19.46237">
        <ele>38.132605</ele>
        <time>2022-05-06T09:07:23.556Z</time>
      </trkpt>
      <trkpt lat="41.34773" lon="19.46252">
        <ele>38.122683</ele>
        <time>2022-05-06T09:07:26.591Z</time>
      </trkpt>
      <trkpt lat="41.34779" lon="19.46267">
        <ele>38.112398</ele>
        <time>2022-05-06T09:07:29.558Z</time>
      </trkpt>
      <trkpt lat="41.34786" lon="19.46282">
        <ele>38.101985</ele>
        <time>2022-05-06T09:07:32.547Z</time>
      </trkpt>
      <trkpt lat="41.34792" lon="19.46298">
        <ele>38.091459</ele>
        <time>2022-05-06T09:07:35.552Z</time>
      </trkpt>
      <trkpt lat="41.34797" lon="19.46308">
        <ele>38.084342</ele>
        <time>2022-05-06T09:07:37.543Z</time>
      </trkpt>
      <trkpt lat="41.34803" lon="19.46324">
        <ele>38.073918</ele>
        <time>2022-05-06T09:07:40.543Z</time>
      </trkpt>
      <trkpt lat="41.34808" lon="19.4634">
        <ele>38.063456</ele>
        <time>2022-05-06T09:07:43.543Z</time>
      </trkpt>
      <trkpt lat="41.34813" lon="19.46355">
        <ele>38.053576</ele>
        <time>2022-05-06T09:07:46.552Z</time>
      </trkpt>
      <trkpt lat="41.34819" lon="19.4637">
        <ele>38.04368</ele>
        <time>2022-05-06T09:07:49.550Z</time>
      </trkpt>
      <trkpt lat="41.34825" lon="19.46386">
        <ele>38.033643</ele>
        <time>2022-05-06T09:07:52.547Z</time>
      </trkpt>
      <trkpt lat="41.3483" lon="19.464">
        <ele>38.024217</ele>
        <time>2022-05-06T09:07:55.547Z</time>
      </trkpt>
      <trkpt lat="41.34834" lon="19.46414">
        <ele>38.015158</ele>
        <time>2022-05-06T09:07:58.538Z</time>
      </trkpt>
      <trkpt lat="41.34837" lon="19.46426">
        <ele>38.007606</ele>
        <time>2022-05-06T09:08:01.552Z</time>
      </trkpt>
      <trkpt lat="41.34839" lon="19.46439">
        <ele>38.026198</ele>
        <time>2022-05-06T09:08:04.551Z</time>
      </trkpt>
      <trkpt lat="41.34842" lon="19.46454">
        <ele>38.094314</ele>
        <time>2022-05-06T09:08:07.546Z</time>
      </trkpt>
      <trkpt lat="41.34848" lon="19.46464">
        <ele>38.150578</ele>
        <time>2022-05-06T09:08:10.572Z</time>
      </trkpt>
      <trkpt lat="41.34858" lon="19.46471">
        <ele>38.220707</ele>
        <time>2022-05-06T09:08:13.529Z</time>
      </trkpt>
      <trkpt lat="41.34868" lon="19.46481">
        <ele>38.292525</ele>
        <time>2022-05-06T09:08:16.590Z</time>
      </trkpt>
      <trkpt lat="41.34874" lon="19.46495">
        <ele>38.367206</ele>
        <time>2022-05-06T09:08:19.554Z</time>
      </trkpt>
      <trkpt lat="41.34879" lon="19.46506">
        <ele>38.42153</ele>
        <time>2022-05-06T09:08:21.561Z</time>
      </trkpt>
      <trkpt lat="41.34884" lon="19.46518">
        <ele>38.483533</ele>
        <time>2022-05-06T09:08:23.538Z</time>
      </trkpt>
      <trkpt lat="41.34889" lon="19.46531">
        <ele>38.547897</ele>
        <time>2022-05-06T09:08:25.552Z</time>
      </trkpt>
      <trkpt lat="41.34895" lon="19.46543">
        <ele>38.611128</ele>
        <time>2022-05-06T09:08:27.550Z</time>
      </trkpt>
      <trkpt lat="41.34901" lon="19.46554">
        <ele>38.674258</ele>
        <time>2022-05-06T09:08:29.552Z</time>
      </trkpt>
      <trkpt lat="41.34906" lon="19.46566">
        <ele>38.733627</ele>
        <time>2022-05-06T09:08:31.556Z</time>
      </trkpt>
      <trkpt lat="41.34911" lon="19.46577">
        <ele>38.791509</ele>
        <time>2022-05-06T09:08:33.626Z</time>
      </trkpt>
      <trkpt lat="41.34915" lon="19.46588">
        <ele>38.846594</ele>
        <time>2022-05-06T09:08:35.574Z</time>
      </trkpt>
      <trkpt lat="41.34919" lon="19.46599">
        <ele>38.901165</ele>
        <time>2022-05-06T09:08:37.567Z</time>
      </trkpt>
      <trkpt lat="41.34924" lon="19.4661">
        <ele>38.957522</ele>
        <time>2022-05-06T09:08:39.570Z</time>
      </trkpt>
      <trkpt lat="41.34928" lon="19.46621">
        <ele>39.011456</ele>
        <time>2022-05-06T09:08:41.534Z</time>
      </trkpt>
      <trkpt lat="41.34934" lon="19.46637">
        <ele>39.055022</ele>
        <time>2022-05-06T09:08:44.547Z</time>
      </trkpt>
      <trkpt lat="41.34939" lon="19.46648">
        <ele>39.016572</ele>
        <time>2022-05-06T09:08:46.554Z</time>
      </trkpt>
      <trkpt lat="41.34943" lon="19.46659">
        <ele>38.979136</ele>
        <time>2022-05-06T09:08:48.594Z</time>
      </trkpt>
      <trkpt lat="41.34947" lon="19.4667">
        <ele>38.942687</ele>
        <time>2022-05-06T09:08:50.595Z</time>
      </trkpt>
      <trkpt lat="41.34951" lon="19.46681">
        <ele>38.905787</ele>
        <time>2022-05-06T09:08:52.553Z</time>
      </trkpt>
      <trkpt lat="41.34955" lon="19.46692">
        <ele>38.869155</ele>
        <time>2022-05-06T09:08:54.551Z</time>
      </trkpt>
      <trkpt lat="41.3496" lon="19.46702">
        <ele>38.832939</ele>
        <time>2022-05-06T09:08:56.594Z</time>
      </trkpt>
      <trkpt lat="41.34964" lon="19.46713">
        <ele>38.796196</ele>
        <time>2022-05-06T09:08:58.552Z</time>
      </trkpt>
      <trkpt lat="41.34971" lon="19.46729">
        <ele>38.742266</ele>
        <time>2022-05-06T09:09:01.578Z</time>
      </trkpt>
      <trkpt lat="41.34978" lon="19.46744">
        <ele>38.688975</ele>
        <time>2022-05-06T09:09:04.557Z</time>
      </trkpt>
      <trkpt lat="41.34984" lon="19.46759">
        <ele>38.634907</ele>
        <time>2022-05-06T09:09:07.563Z</time>
      </trkpt>
      <trkpt lat="41.3499" lon="19.46775">
        <ele>38.58113</ele>
        <time>2022-05-06T09:09:10.536Z</time>
      </trkpt>
      <trkpt lat="41.34994" lon="19.46786">
        <ele>38.54513</ele>
        <time>2022-05-06T09:09:12.587Z</time>
      </trkpt>
      <trkpt lat="41.35001" lon="19.46801">
        <ele>38.492184</ele>
        <time>2022-05-06T09:09:15.561Z</time>
      </trkpt>
      <trkpt lat="41.35007" lon="19.46817">
        <ele>38.440294</ele>
        <time>2022-05-06T09:09:18.547Z</time>
      </trkpt>
      <trkpt lat="41.35013" lon="19.46831">
        <ele>38.389637</ele>
        <time>2022-05-06T09:09:21.551Z</time>
      </trkpt>
      <trkpt lat="41.35018" lon="19.46846">
        <ele>38.345307</ele>
        <time>2022-05-06T09:09:24.567Z</time>
      </trkpt>
      <trkpt lat="41.35022" lon="19.46858">
        <ele>38.328604</ele>
        <time>2022-05-06T09:09:27.558Z</time>
      </trkpt>
      <trkpt lat="41.35027" lon="19.46872">
        <ele>38.308857</ele>
        <time>2022-05-06T09:09:31.553Z</time>
      </trkpt>
      <trkpt lat="41.3503" lon="19.46884">
        <ele>38.292647</ele>
        <time>2022-05-06T09:09:34.585Z</time>
      </trkpt>
      <trkpt lat="41.35034" lon="19.46896">
        <ele>38.276132</ele>
        <time>2022-05-06T09:09:37.552Z</time>
      </trkpt>
      <trkpt lat="41.35039" lon="19.46908">
        <ele>38.259279</ele>
        <time>2022-05-06T09:09:40.549Z</time>
      </trkpt>
      <trkpt lat="41.35044" lon="19.4692">
        <ele>38.24259</ele>
        <time>2022-05-06T09:09:43.540Z</time>
      </trkpt>
      <trkpt lat="41.35049" lon="19.46931">
        <ele>38.225802</ele>
        <time>2022-05-06T09:09:46.570Z</time>
      </trkpt>
      <trkpt lat="41.35053" lon="19.46943">
        <ele>38.209886</ele>
        <time>2022-05-06T09:09:49.547Z</time>
      </trkpt>
      <trkpt lat="41.35058" lon="19.46954">
        <ele>38.19362</ele>
        <time>2022-05-06T09:09:52.555Z</time>
      </trkpt>
      <trkpt lat="41.35062" lon="19.46965">
        <ele>38.177875</ele>
        <time>2022-05-06T09:09:55.543Z</time>
      </trkpt>
      <trkpt lat="41.35066" lon="19.46975">
        <ele>38.162784</ele>
        <time>2022-05-06T09:09:58.557Z</time>
      </trkpt>
      <trkpt lat="41.35071" lon="19.46987">
        <ele>38.146598</ele>
        <time>2022-05-06T09:10:01.559Z</time>
      </trkpt>
      <trkpt lat="41.35076" lon="19.46998">
        <ele>38.129779</ele>
        <time>2022-05-06T09:10:04.555Z</time>
      </trkpt>
      <trkpt lat="41.3508" lon="19.4701">
        <ele>38.113149</ele>
        <time>2022-05-06T09:10:07.578Z</time>
      </trkpt>
      <trkpt lat="41.35085" lon="19.47022">
        <ele>38.096251</ele>
        <time>2022-05-06T09:10:10.542Z</time>
      </trkpt>
      <trkpt lat="41.3509" lon="19.47033">
        <ele>38.079601</ele>
        <time>2022-05-06T09:10:13.545Z</time>
      </trkpt>
      <trkpt lat="41.35094" lon="19.47045">
        <ele>38.062899</ele>
        <time>2022-05-06T09:10:16.540Z</time>
      </trkpt>
      <trkpt lat="41.35099" lon="19.47057">
        <ele>38.046252</ele>
        <time>2022-05-06T09:10:19.568Z</time>
      </trkpt>
      <trkpt lat="41.35105" lon="19.47069">
        <ele>38.041786</ele>
        <time>2022-05-06T09:10:22.559Z</time>
      </trkpt>
      <trkpt lat="41.3511" lon="19.4708">
        <ele>38.037843</ele>
        <time>2022-05-06T09:10:25.534Z</time>
      </trkpt>
      <trkpt lat="41.35114" lon="19.47091">
        <ele>38.033855</ele>
        <time>2022-05-06T09:10:28.564Z</time>
      </trkpt>
      <trkpt lat="41.35119" lon="19.47102">
        <ele>38.029815</ele>
        <time>2022-05-06T09:10:31.555Z</time>
      </trkpt>
      <trkpt lat="41.35123" lon="19.47113">
        <ele>38.025815</ele>
        <time>2022-05-06T09:10:34.548Z</time>
      </trkpt>
      <trkpt lat="41.35128" lon="19.47124">
        <ele>38.021967</ele>
        <time>2022-05-06T09:10:37.548Z</time>
      </trkpt>
      <trkpt lat="41.35132" lon="19.47134">
        <ele>38.018127</ele>
        <time>2022-05-06T09:10:40.562Z</time>
      </trkpt>
      <trkpt lat="41.35136" lon="19.47145">
        <ele>38.014271</ele>
        <time>2022-05-06T09:10:43.551Z</time>
      </trkpt>
      <trkpt lat="41.35141" lon="19.47156">
        <ele>38.010406</ele>
        <time>2022-05-06T09:10:46.592Z</time>
      </trkpt>
      <trkpt lat="41.35145" lon="19.47167">
        <ele>38.006511</ele>
        <time>2022-05-06T09:10:49.549Z</time>
      </trkpt>
      <trkpt lat="41.3515" lon="19.47178">
        <ele>38.002547</ele>
        <time>2022-05-06T09:10:52.552Z</time>
      </trkpt>
      <trkpt lat="41.35155" lon="19.47188">
        <ele>37.998528</ele>
        <time>2022-05-06T09:10:55.553Z</time>
      </trkpt>
      <trkpt lat="41.3516" lon="19.472">
        <ele>37.994282</ele>
        <time>2022-05-06T09:10:58.541Z</time>
      </trkpt>
      <trkpt lat="41.35165" lon="19.47211">
        <ele>37.989971</ele>
        <time>2022-05-06T09:11:01.550Z</time>
      </trkpt>
      <trkpt lat="41.3517" lon="19.47223">
        <ele>37.985848</ele>
        <time>2022-05-06T09:11:04.544Z</time>
      </trkpt>
      <trkpt lat="41.35175" lon="19.47234">
        <ele>37.981723</ele>
        <time>2022-05-06T09:11:07.570Z</time>
      </trkpt>
      <trkpt lat="41.3518" lon="19.47245">
        <ele>37.977599</ele>
        <time>2022-05-06T09:11:10.560Z</time>
      </trkpt>
      <trkpt lat="41.35184" lon="19.47257">
        <ele>37.973476</ele>
        <time>2022-05-06T09:11:13.551Z</time>
      </trkpt>
      <trkpt lat="41.35189" lon="19.47267">
        <ele>37.978029</ele>
        <time>2022-05-06T09:11:16.545Z</time>
      </trkpt>
      <trkpt lat="41.35193" lon="19.47279">
        <ele>38.015363</ele>
        <time>2022-05-06T09:11:19.579Z</time>
      </trkpt>
      <trkpt lat="41.35198" lon="19.4729">
        <ele>38.053763</ele>
        <time>2022-05-06T09:11:22.551Z</time>
      </trkpt>
      <trkpt lat="41.35202" lon="19.47302">
        <ele>38.092504</ele>
        <time>2022-05-06T09:11:25.559Z</time>
      </trkpt>
      <trkpt lat="41.35208" lon="19.47314">
        <ele>38.132629</ele>
        <time>2022-05-06T09:11:28.544Z</time>
      </trkpt>
      <trkpt lat="41.35213" lon="19.47325">
        <ele>38.172646</ele>
        <time>2022-05-06T09:11:31.565Z</time>
      </trkpt>
      <trkpt lat="41.35218" lon="19.47337">
        <ele>38.212162</ele>
        <time>2022-05-06T09:11:34.550Z</time>
      </trkpt>
      <trkpt lat="41.35224" lon="19.47348">
        <ele>38.252385</ele>
        <time>2022-05-06T09:11:37.566Z</time>
      </trkpt>
      <trkpt lat="41.35231" lon="19.47359">
        <ele>38.295106</ele>
        <time>2022-05-06T09:11:40.535Z</time>
      </trkpt>
      <trkpt lat="41.35238" lon="19.47369">
        <ele>38.336908</ele>
        <time>2022-05-06T09:11:43.536Z</time>
      </trkpt>
      <trkpt lat="41.35245" lon="19.4738">
        <ele>38.378599</ele>
        <time>2022-05-06T09:11:46.625Z</time>
      </trkpt>
      <trkpt lat="41.35251" lon="19.47393">
        <ele>38.423219</ele>
        <time>2022-05-06T09:11:49.543Z</time>
      </trkpt>
      <trkpt lat="41.35255" lon="19.47408">
        <ele>38.469314</ele>
        <time>2022-05-06T09:11:52.541Z</time>
      </trkpt>
      <trkpt lat="41.35257" lon="19.47423">
        <ele>38.514858</ele>
        <time>2022-05-06T09:11:55.555Z</time>
      </trkpt>
      <trkpt lat="41.35257" lon="19.47439">
        <ele>38.56172</ele>
        <time>2022-05-06T09:11:58.547Z</time>
      </trkpt>
      <trkpt lat="41.35257" lon="19.47455">
        <ele>38.610054</ele>
        <time>2022-05-06T09:12:01.568Z</time>
      </trkpt>
      <trkpt lat="41.35256" lon="19.47472">
        <ele>38.658166</ele>
        <time>2022-05-06T09:12:04.555Z</time>
      </trkpt>
      <trkpt lat="41.35256" lon="19.47488">
        <ele>38.568915</ele>
        <time>2022-05-06T09:12:07.546Z</time>
      </trkpt>
      <trkpt lat="41.35256" lon="19.47504">
        <ele>38.392399</ele>
        <time>2022-05-06T09:12:10.543Z</time>
      </trkpt>
      <trkpt lat="41.35258" lon="19.47519">
        <ele>38.226262</ele>
        <time>2022-05-06T09:12:13.578Z</time>
      </trkpt>
      <trkpt lat="41.35263" lon="19.47532">
        <ele>38.068328</ele>
        <time>2022-05-06T09:12:16.531Z</time>
      </trkpt>
      <trkpt lat="41.35272" lon="19.47542">
        <ele>37.888969</ele>
        <time>2022-05-06T09:12:19.553Z</time>
      </trkpt>
      <trkpt lat="41.35282" lon="19.47551">
        <ele>37.723898</ele>
        <time>2022-05-06T09:12:22.559Z</time>
      </trkpt>
      <trkpt lat="41.35292" lon="19.4756">
        <ele>37.549723</ele>
        <time>2022-05-06T09:12:25.549Z</time>
      </trkpt>
      <trkpt lat="41.35302" lon="19.4757">
        <ele>37.363419</ele>
        <time>2022-05-06T09:12:28.572Z</time>
      </trkpt>
      <trkpt lat="41.35314" lon="19.4758">
        <ele>37.169238</ele>
        <time>2022-05-06T09:12:31.544Z</time>
      </trkpt>
      <trkpt lat="41.35321" lon="19.47586">
        <ele>37.039122</ele>
        <time>2022-05-06T09:12:33.554Z</time>
      </trkpt>
      <trkpt lat="41.35329" lon="19.47593">
        <ele>36.901173</ele>
        <time>2022-05-06T09:12:35.595Z</time>
      </trkpt>
      <trkpt lat="41.35337" lon="19.476">
        <ele>36.762614</ele>
        <time>2022-05-06T09:12:37.559Z</time>
      </trkpt>
      <trkpt lat="41.35345" lon="19.47607">
        <ele>36.626401</ele>
        <time>2022-05-06T09:12:39.525Z</time>
      </trkpt>
      <trkpt lat="41.35356" lon="19.47616">
        <ele>36.43942</ele>
        <time>2022-05-06T09:12:42.545Z</time>
      </trkpt>
      <trkpt lat="41.35365" lon="19.47623">
        <ele>36.292156</ele>
        <time>2022-05-06T09:12:44.548Z</time>
      </trkpt>
      <trkpt lat="41.35373" lon="19.4763">
        <ele>36.152392</ele>
        <time>2022-05-06T09:12:46.595Z</time>
      </trkpt>
      <trkpt lat="41.35381" lon="19.47637">
        <ele>36.129115</ele>
        <time>2022-05-06T09:12:48.561Z</time>
      </trkpt>
      <trkpt lat="41.35388" lon="19.47644">
        <ele>36.261714</ele>
        <time>2022-05-06T09:12:50.557Z</time>
      </trkpt>
      <trkpt lat="41.35396" lon="19.47651">
        <ele>36.396661</ele>
        <time>2022-05-06T09:12:52.551Z</time>
      </trkpt>
      <trkpt lat="41.35404" lon="19.47658">
        <ele>36.529848</ele>
        <time>2022-05-06T09:12:54.546Z</time>
      </trkpt>
      <trkpt lat="41.35412" lon="19.47664">
        <ele>36.660129</ele>
        <time>2022-05-06T09:12:56.546Z</time>
      </trkpt>
      <trkpt lat="41.3542" lon="19.47671">
        <ele>36.788089</ele>
        <time>2022-05-06T09:12:58.551Z</time>
      </trkpt>
      <trkpt lat="41.35431" lon="19.4768">
        <ele>36.979995</ele>
        <time>2022-05-06T09:13:01.566Z</time>
      </trkpt>
      <trkpt lat="41.35442" lon="19.4769">
        <ele>37.166582</ele>
        <time>2022-05-06T09:13:04.555Z</time>
      </trkpt>
      <trkpt lat="41.35453" lon="19.477">
        <ele>37.347297</ele>
        <time>2022-05-06T09:13:07.556Z</time>
      </trkpt>
      <trkpt lat="41.35464" lon="19.47708">
        <ele>37.523486</ele>
        <time>2022-05-06T09:13:10.565Z</time>
      </trkpt>
      <trkpt lat="41.35474" lon="19.47718">
        <ele>37.703037</ele>
        <time>2022-05-06T09:13:13.540Z</time>
      </trkpt>
      <trkpt lat="41.35482" lon="19.47725">
        <ele>37.832149</ele>
        <time>2022-05-06T09:13:15.551Z</time>
      </trkpt>
      <trkpt lat="41.3549" lon="19.47732">
        <ele>37.963</ele>
        <time>2022-05-06T09:13:17.541Z</time>
      </trkpt>
      <trkpt lat="41.35497" lon="19.47738">
        <ele>38.092077</ele>
        <time>2022-05-06T09:13:19.578Z</time>
      </trkpt>
      <trkpt lat="41.35505" lon="19.47746">
        <ele>38.222415</ele>
        <time>2022-05-06T09:13:21.554Z</time>
      </trkpt>
      <trkpt lat="41.35512" lon="19.47753">
        <ele>38.352683</ele>
        <time>2022-05-06T09:13:23.548Z</time>
      </trkpt>
      <trkpt lat="41.3552" lon="19.47759">
        <ele>38.481173</ele>
        <time>2022-05-06T09:13:25.565Z</time>
      </trkpt>
      <trkpt lat="41.35531" lon="19.47769">
        <ele>38.681219</ele>
        <time>2022-05-06T09:13:28.554Z</time>
      </trkpt>
      <trkpt lat="41.35542" lon="19.47778">
        <ele>38.903128</ele>
        <time>2022-05-06T09:13:31.548Z</time>
      </trkpt>
      <trkpt lat="41.35552" lon="19.47788">
        <ele>39.117267</ele>
        <time>2022-05-06T09:13:34.549Z</time>
      </trkpt>
      <trkpt lat="41.35562" lon="19.47797">
        <ele>39.33276</ele>
        <time>2022-05-06T09:13:37.560Z</time>
      </trkpt>
      <trkpt lat="41.35573" lon="19.47807">
        <ele>39.551185</ele>
        <time>2022-05-06T09:13:40.553Z</time>
      </trkpt>
      <trkpt lat="41.35584" lon="19.47816">
        <ele>39.772436</ele>
        <time>2022-05-06T09:13:43.535Z</time>
      </trkpt>
      <trkpt lat="41.35594" lon="19.47826">
        <ele>39.994353</ele>
        <time>2022-05-06T09:13:46.559Z</time>
      </trkpt>
      <trkpt lat="41.35605" lon="19.47835">
        <ele>40.214158</ele>
        <time>2022-05-06T09:13:49.558Z</time>
      </trkpt>
      <trkpt lat="41.35615" lon="19.47844">
        <ele>40.421808</ele>
        <time>2022-05-06T09:13:52.583Z</time>
      </trkpt>
      <trkpt lat="41.35625" lon="19.47853">
        <ele>40.622319</ele>
        <time>2022-05-06T09:13:55.554Z</time>
      </trkpt>
      <trkpt lat="41.35635" lon="19.47861">
        <ele>40.818061</ele>
        <time>2022-05-06T09:13:58.556Z</time>
      </trkpt>
      <trkpt lat="41.35644" lon="19.47869">
        <ele>41.007859</ele>
        <time>2022-05-06T09:14:01.546Z</time>
      </trkpt>
      <trkpt lat="41.35653" lon="19.47876">
        <ele>41.183403</ele>
        <time>2022-05-06T09:14:04.536Z</time>
      </trkpt>
      <trkpt lat="41.35661" lon="19.47884">
        <ele>41.354023</ele>
        <time>2022-05-06T09:14:07.553Z</time>
      </trkpt>
      <trkpt lat="41.35669" lon="19.47892">
        <ele>41.531732</ele>
        <time>2022-05-06T09:14:10.545Z</time>
      </trkpt>
      <trkpt lat="41.35679" lon="19.479">
        <ele>41.713481</ele>
        <time>2022-05-06T09:14:13.552Z</time>
      </trkpt>
      <trkpt lat="41.35688" lon="19.47909">
        <ele>41.840823</ele>
        <time>2022-05-06T09:14:16.548Z</time>
      </trkpt>
      <trkpt lat="41.35698" lon="19.47917">
        <ele>41.966309</ele>
        <time>2022-05-06T09:14:19.544Z</time>
      </trkpt>
      <trkpt lat="41.35708" lon="19.47927">
        <ele>42.098237</ele>
        <time>2022-05-06T09:14:22.561Z</time>
      </trkpt>
      <trkpt lat="41.35717" lon="19.47936">
        <ele>42.226533</ele>
        <time>2022-05-06T09:14:25.633Z</time>
      </trkpt>
      <trkpt lat="41.35727" lon="19.47946">
        <ele>42.360316</ele>
        <time>2022-05-06T09:14:28.554Z</time>
      </trkpt>
      <trkpt lat="41.35736" lon="19.47957">
        <ele>42.501357</ele>
        <time>2022-05-06T09:14:31.546Z</time>
      </trkpt>
      <trkpt lat="41.35743" lon="19.47965">
        <ele>42.602261</ele>
        <time>2022-05-06T09:14:33.551Z</time>
      </trkpt>
      <trkpt lat="41.3575" lon="19.47973">
        <ele>42.70314</ele>
        <time>2022-05-06T09:14:35.544Z</time>
      </trkpt>
      <trkpt lat="41.35757" lon="19.47981">
        <ele>42.804044</ele>
        <time>2022-05-06T09:14:37.559Z</time>
      </trkpt>
      <trkpt lat="41.35765" lon="19.47988">
        <ele>42.905498</ele>
        <time>2022-05-06T09:14:39.542Z</time>
      </trkpt>
      <trkpt lat="41.35772" lon="19.47996">
        <ele>43.005207</ele>
        <time>2022-05-06T09:14:41.583Z</time>
      </trkpt>
      <trkpt lat="41.35783" lon="19.48006">
        <ele>43.150762</ele>
        <time>2022-05-06T09:14:44.547Z</time>
      </trkpt>
      <trkpt lat="41.35793" lon="19.48016">
        <ele>43.29247</ele>
        <time>2022-05-06T09:14:47.569Z</time>
      </trkpt>
      <trkpt lat="41.358" lon="19.48024">
        <ele>43.391692</ele>
        <time>2022-05-06T09:14:49.553Z</time>
      </trkpt>
      <trkpt lat="41.3581" lon="19.48035">
        <ele>43.536539</ele>
        <time>2022-05-06T09:14:52.542Z</time>
      </trkpt>
      <trkpt lat="41.3582" lon="19.48044">
        <ele>43.668342</ele>
        <time>2022-05-06T09:14:55.573Z</time>
      </trkpt>
      <trkpt lat="41.35827" lon="19.48056">
        <ele>43.815015</ele>
        <time>2022-05-06T09:14:58.585Z</time>
      </trkpt>
      <trkpt lat="41.35833" lon="19.48071">
        <ele>43.967954</ele>
        <time>2022-05-06T09:15:01.526Z</time>
      </trkpt>
      <trkpt lat="41.35838" lon="19.48087">
        <ele>44.131263</ele>
        <time>2022-05-06T09:15:04.589Z</time>
      </trkpt>
      <trkpt lat="41.35841" lon="19.48099">
        <ele>44.247517</ele>
        <time>2022-05-06T09:15:06.559Z</time>
      </trkpt>
      <trkpt lat="41.35845" lon="19.48111">
        <ele>44.362843</ele>
        <time>2022-05-06T09:15:08.531Z</time>
      </trkpt>
      <trkpt lat="41.35848" lon="19.48123">
        <ele>44.47822</ele>
        <time>2022-05-06T09:15:10.557Z</time>
      </trkpt>
      <trkpt lat="41.35851" lon="19.48135">
        <ele>44.598138</ele>
        <time>2022-05-06T09:15:12.537Z</time>
      </trkpt>
      <trkpt lat="41.35855" lon="19.48148">
        <ele>44.724469</ele>
        <time>2022-05-06T09:15:14.542Z</time>
      </trkpt>
      <trkpt lat="41.35859" lon="19.4816">
        <ele>44.845569</ele>
        <time>2022-05-06T09:15:16.559Z</time>
      </trkpt>
      <trkpt lat="41.35864" lon="19.48176">
        <ele>45.011678</ele>
        <time>2022-05-06T09:15:19.542Z</time>
      </trkpt>
      <trkpt lat="41.35868" lon="19.48192">
        <ele>45.169912</ele>
        <time>2022-05-06T09:15:22.541Z</time>
      </trkpt>
      <trkpt lat="41.35873" lon="19.48208">
        <ele>45.325547</ele>
        <time>2022-05-06T09:15:25.554Z</time>
      </trkpt>
      <trkpt lat="41.35878" lon="19.48223">
        <ele>45.481247</ele>
        <time>2022-05-06T09:15:28.537Z</time>
      </trkpt>
      <trkpt lat="41.35882" lon="19.48237">
        <ele>45.618397</ele>
        <time>2022-05-06T09:15:31.616Z</time>
      </trkpt>
      <trkpt lat="41.35886" lon="19.48251">
        <ele>45.758881</ele>
        <time>2022-05-06T09:15:34.555Z</time>
      </trkpt>
      <trkpt lat="41.35891" lon="19.48267">
        <ele>46.068907</ele>
        <time>2022-05-06T09:15:37.537Z</time>
      </trkpt>
      <trkpt lat="41.35894" lon="19.48284">
        <ele>46.913378</ele>
        <time>2022-05-06T09:15:40.556Z</time>
      </trkpt>
      <trkpt lat="41.35896" lon="19.48298">
        <ele>47.648014</ele>
        <time>2022-05-06T09:15:43.583Z</time>
      </trkpt>
      <trkpt lat="41.35901" lon="19.48312">
        <ele>48.426303</ele>
        <time>2022-05-06T09:15:46.551Z</time>
      </trkpt>
      <trkpt lat="41.35905" lon="19.48326">
        <ele>49.195759</ele>
        <time>2022-05-06T09:15:49.563Z</time>
      </trkpt>
      <trkpt lat="41.3591" lon="19.48338">
        <ele>49.84187</ele>
        <time>2022-05-06T09:15:52.555Z</time>
      </trkpt>
      <trkpt lat="41.35914" lon="19.48349">
        <ele>50.461762</ele>
        <time>2022-05-06T09:15:56.528Z</time>
      </trkpt>
      <trkpt lat="41.35918" lon="19.48362">
        <ele>51.158517</ele>
        <time>2022-05-06T09:16:00.552Z</time>
      </trkpt>
      <trkpt lat="41.35924" lon="19.48375">
        <ele>51.913364</ele>
        <time>2022-05-06T09:16:04.576Z</time>
      </trkpt>
      <trkpt lat="41.35929" lon="19.48385">
        <ele>52.556642</ele>
        <time>2022-05-06T09:16:08.562Z</time>
      </trkpt>
      <trkpt lat="41.35934" lon="19.48397">
        <ele>53.18909</ele>
        <time>2022-05-06T09:16:12.554Z</time>
      </trkpt>
      <trkpt lat="41.35939" lon="19.4841">
        <ele>53.923217</ele>
        <time>2022-05-06T09:16:18.561Z</time>
      </trkpt>
      <trkpt lat="41.35943" lon="19.48422">
        <ele>54.568789</ele>
        <time>2022-05-06T09:16:24.566Z</time>
      </trkpt>
      <trkpt lat="41.35946" lon="19.48433">
        <ele>55.197595</ele>
        <time>2022-05-06T09:16:30.542Z</time>
      </trkpt>
      <trkpt lat="41.35949" lon="19.48447">
        <ele>55.885304</ele>
        <time>2022-05-06T09:16:36.561Z</time>
      </trkpt>
      <trkpt lat="41.35953" lon="19.48458">
        <ele>56.5099</ele>
        <time>2022-05-06T09:16:41.554Z</time>
      </trkpt>
      <trkpt lat="41.35957" lon="19.48469">
        <ele>57.121712</ele>
        <time>2022-05-06T09:16:47.538Z</time>
      </trkpt>
      <trkpt lat="41.3596" lon="19.48482">
        <ele>57.825268</ele>
        <time>2022-05-06T09:16:53.555Z</time>
      </trkpt>
      <trkpt lat="41.35964" lon="19.48495">
        <ele>58.040183</ele>
        <time>2022-05-06T09:16:59.553Z</time>
      </trkpt>
      <trkpt lat="41.35967" lon="19.48508">
        <ele>58.236866</ele>
        <time>2022-05-06T09:17:06.564Z</time>
      </trkpt>
      <trkpt lat="41.35969" lon="19.4852">
        <ele>58.415002</ele>
        <time>2022-05-06T09:17:12.559Z</time>
      </trkpt>
      <trkpt lat="41.35972" lon="19.48532">
        <ele>58.608083</ele>
        <time>2022-05-06T09:17:18.552Z</time>
      </trkpt>
      <trkpt lat="41.35975" lon="19.48545">
        <ele>58.794643</ele>
        <time>2022-05-06T09:17:24.553Z</time>
      </trkpt>
      <trkpt lat="41.35977" lon="19.48558">
        <ele>58.99769</ele>
        <time>2022-05-06T09:17:31.562Z</time>
      </trkpt>
      <trkpt lat="41.35979" lon="19.48571">
        <ele>59.191685</ele>
        <time>2022-05-06T09:17:38.558Z</time>
      </trkpt>
      <trkpt lat="41.35981" lon="19.48584">
        <ele>59.391016</ele>
        <time>2022-05-06T09:17:45.551Z</time>
      </trkpt>
      <trkpt lat="41.35984" lon="19.48597">
        <ele>59.581684</ele>
        <time>2022-05-06T09:17:51.552Z</time>
      </trkpt>
      <trkpt lat="41.35989" lon="19.4861">
        <ele>59.792945</ele>
        <time>2022-05-06T09:17:57.543Z</time>
      </trkpt>
      <trkpt lat="41.35996" lon="19.48618">
        <ele>59.979534</ele>
        <time>2022-05-06T09:18:01.563Z</time>
      </trkpt>
      <trkpt lat="41.36004" lon="19.48628">
        <ele>60.197232</ele>
        <time>2022-05-06T09:18:05.546Z</time>
      </trkpt>
      <trkpt lat="41.36012" lon="19.48636">
        <ele>60.399963</ele>
        <time>2022-05-06T09:18:08.547Z</time>
      </trkpt>
      <trkpt lat="41.36021" lon="19.48647">
        <ele>60.625461</ele>
        <time>2022-05-06T09:18:11.558Z</time>
      </trkpt>
      <trkpt lat="41.36031" lon="19.48657">
        <ele>60.873993</ele>
        <time>2022-05-06T09:18:14.550Z</time>
      </trkpt>
      <trkpt lat="41.36038" lon="19.48666">
        <ele>61.055203</ele>
        <time>2022-05-06T09:18:16.545Z</time>
      </trkpt>
      <trkpt lat="41.36045" lon="19.48675">
        <ele>61.259751</ele>
        <time>2022-05-06T09:18:18.551Z</time>
      </trkpt>
      <trkpt lat="41.36054" lon="19.48686">
        <ele>60.944204</ele>
        <time>2022-05-06T09:18:20.556Z</time>
      </trkpt>
      <trkpt lat="41.36064" lon="19.48697">
        <ele>60.100557</ele>
        <time>2022-05-06T09:18:22.550Z</time>
      </trkpt>
      <trkpt lat="41.36075" lon="19.48709">
        <ele>59.216291</ele>
        <time>2022-05-06T09:18:24.622Z</time>
      </trkpt>
      <trkpt lat="41.36085" lon="19.4872">
        <ele>58.359764</ele>
        <time>2022-05-06T09:18:26.551Z</time>
      </trkpt>
      <trkpt lat="41.36096" lon="19.48732">
        <ele>57.46749</ele>
        <time>2022-05-06T09:18:28.542Z</time>
      </trkpt>
      <trkpt lat="41.36107" lon="19.48744">
        <ele>56.55119</ele>
        <time>2022-05-06T09:18:30.559Z</time>
      </trkpt>
      <trkpt lat="41.36117" lon="19.48755">
        <ele>55.708012</ele>
        <time>2022-05-06T09:18:32.553Z</time>
      </trkpt>
      <trkpt lat="41.36126" lon="19.48764">
        <ele>54.969903</ele>
        <time>2022-05-06T09:18:34.543Z</time>
      </trkpt>
      <trkpt lat="41.36134" lon="19.48774">
        <ele>54.29988</ele>
        <time>2022-05-06T09:18:37.565Z</time>
      </trkpt>
      <trkpt lat="41.36141" lon="19.48784">
        <ele>53.629857</ele>
        <time>2022-05-06T09:18:42.564Z</time>
      </trkpt>
      <trkpt lat="41.36149" lon="19.48792">
        <ele>52.989241</ele>
        <time>2022-05-06T09:18:44.557Z</time>
      </trkpt>
      <trkpt lat="41.36157" lon="19.48803">
        <ele>52.273946</ele>
        <time>2022-05-06T09:18:46.585Z</time>
      </trkpt>
      <trkpt lat="41.36165" lon="19.48814">
        <ele>51.513077</ele>
        <time>2022-05-06T09:18:48.547Z</time>
      </trkpt>
      <trkpt lat="41.36175" lon="19.48826">
        <ele>50.6568</ele>
        <time>2022-05-06T09:18:50.555Z</time>
      </trkpt>
      <trkpt lat="41.36185" lon="19.48838">
        <ele>49.819148</ele>
        <time>2022-05-06T09:18:52.550Z</time>
      </trkpt>
      <trkpt lat="41.36194" lon="19.48849">
        <ele>49.276188</ele>
        <time>2022-05-06T09:18:54.564Z</time>
      </trkpt>
      <trkpt lat="41.36202" lon="19.48861">
        <ele>48.753797</ele>
        <time>2022-05-06T09:18:56.531Z</time>
      </trkpt>
      <trkpt lat="41.3621" lon="19.48872">
        <ele>48.236736</ele>
        <time>2022-05-06T09:18:58.547Z</time>
      </trkpt>
      <trkpt lat="41.36219" lon="19.48884">
        <ele>47.713185</ele>
        <time>2022-05-06T09:19:00.551Z</time>
      </trkpt>
      <trkpt lat="41.36227" lon="19.48896">
        <ele>47.202073</ele>
        <time>2022-05-06T09:19:02.548Z</time>
      </trkpt>
      <trkpt lat="41.36235" lon="19.48907">
        <ele>46.711</ele>
        <time>2022-05-06T09:19:04.550Z</time>
      </trkpt>
      <trkpt lat="41.36242" lon="19.48917">
        <ele>46.244428</ele>
        <time>2022-05-06T09:19:06.545Z</time>
      </trkpt>
      <trkpt lat="41.3625" lon="19.48926">
        <ele>45.81054</ele>
        <time>2022-05-06T09:19:08.577Z</time>
      </trkpt>
      <trkpt lat="41.36257" lon="19.48935">
        <ele>45.389606</ele>
        <time>2022-05-06T09:19:10.553Z</time>
      </trkpt>
      <trkpt lat="41.36264" lon="19.48943">
        <ele>44.977448</ele>
        <time>2022-05-06T09:19:12.546Z</time>
      </trkpt>
      <trkpt lat="41.36271" lon="19.48951">
        <ele>44.577108</ele>
        <time>2022-05-06T09:19:14.541Z</time>
      </trkpt>
      <trkpt lat="41.36278" lon="19.48959">
        <ele>44.178886</ele>
        <time>2022-05-06T09:19:16.550Z</time>
      </trkpt>
      <trkpt lat="41.36285" lon="19.48967">
        <ele>43.780665</ele>
        <time>2022-05-06T09:19:18.547Z</time>
      </trkpt>
      <trkpt lat="41.36292" lon="19.48975">
        <ele>43.390759</ele>
        <time>2022-05-06T09:19:20.563Z</time>
      </trkpt>
      <trkpt lat="41.36299" lon="19.48983">
        <ele>42.999052</ele>
        <time>2022-05-06T09:19:22.559Z</time>
      </trkpt>
      <trkpt lat="41.36308" lon="19.48995">
        <ele>42.419921</ele>
        <time>2022-05-06T09:19:25.552Z</time>
      </trkpt>
      <trkpt lat="41.36315" lon="19.49004">
        <ele>42.052588</ele>
        <time>2022-05-06T09:19:27.551Z</time>
      </trkpt>
      <trkpt lat="41.36325" lon="19.49015">
        <ele>41.889929</ele>
        <time>2022-05-06T09:19:30.538Z</time>
      </trkpt>
      <trkpt lat="41.36335" lon="19.49027">
        <ele>41.721981</ele>
        <time>2022-05-06T09:19:33.548Z</time>
      </trkpt>
      <trkpt lat="41.36344" lon="19.4904">
        <ele>41.555123</ele>
        <time>2022-05-06T09:19:36.554Z</time>
      </trkpt>
      <trkpt lat="41.36351" lon="19.49049">
        <ele>41.438601</ele>
        <time>2022-05-06T09:19:38.541Z</time>
      </trkpt>
      <trkpt lat="41.36358" lon="19.49057">
        <ele>41.324049</ele>
        <time>2022-05-06T09:19:40.562Z</time>
      </trkpt>
      <trkpt lat="41.36365" lon="19.49065">
        <ele>41.208347</ele>
        <time>2022-05-06T09:19:42.560Z</time>
      </trkpt>
      <trkpt lat="41.36371" lon="19.49074">
        <ele>41.094444</ele>
        <time>2022-05-06T09:19:44.555Z</time>
      </trkpt>
      <trkpt lat="41.36378" lon="19.49082">
        <ele>40.979892</ele>
        <time>2022-05-06T09:19:46.595Z</time>
      </trkpt>
      <trkpt lat="41.36384" lon="19.4909">
        <ele>40.866634</ele>
        <time>2022-05-06T09:19:48.564Z</time>
      </trkpt>
      <trkpt lat="41.36391" lon="19.49099">
        <ele>40.750275</ele>
        <time>2022-05-06T09:19:50.556Z</time>
      </trkpt>
      <trkpt lat="41.36398" lon="19.49107">
        <ele>40.637017</ele>
        <time>2022-05-06T09:19:52.531Z</time>
      </trkpt>
      <trkpt lat="41.36408" lon="19.49119">
        <ele>40.469363</ele>
        <time>2022-05-06T09:19:55.553Z</time>
      </trkpt>
      <trkpt lat="41.36415" lon="19.49127">
        <ele>40.354274</ele>
        <time>2022-05-06T09:19:57.589Z</time>
      </trkpt>
      <trkpt lat="41.36421" lon="19.49136">
        <ele>40.240741</ele>
        <time>2022-05-06T09:19:59.558Z</time>
      </trkpt>
      <trkpt lat="41.36428" lon="19.49144">
        <ele>40.125652</ele>
        <time>2022-05-06T09:20:01.555Z</time>
      </trkpt>
      <trkpt lat="41.36435" lon="19.49152">
        <ele>40.01212</ele>
        <time>2022-05-06T09:20:03.547Z</time>
      </trkpt>
      <trkpt lat="41.36445" lon="19.49164">
        <ele>39.845098</ele>
        <time>2022-05-06T09:20:06.548Z</time>
      </trkpt>
      <trkpt lat="41.36455" lon="19.49176">
        <ele>39.931807</ele>
        <time>2022-05-06T09:20:09.546Z</time>
      </trkpt>
      <trkpt lat="41.36462" lon="19.49185">
        <ele>40.023671</ele>
        <time>2022-05-06T09:20:11.559Z</time>
      </trkpt>
      <trkpt lat="41.36468" lon="19.49193">
        <ele>40.110149</ele>
        <time>2022-05-06T09:20:13.551Z</time>
      </trkpt>
      <trkpt lat="41.36478" lon="19.49204">
        <ele>40.236728</ele>
        <time>2022-05-06T09:20:16.560Z</time>
      </trkpt>
      <trkpt lat="41.36488" lon="19.49216">
        <ele>40.362342</ele>
        <time>2022-05-06T09:20:19.551Z</time>
      </trkpt>
      <trkpt lat="41.36497" lon="19.49227">
        <ele>40.478832</ele>
        <time>2022-05-06T09:20:22.550Z</time>
      </trkpt>
      <trkpt lat="41.36506" lon="19.49236">
        <ele>40.586781</ele>
        <time>2022-05-06T09:20:25.561Z</time>
      </trkpt>
      <trkpt lat="41.36514" lon="19.49245">
        <ele>40.689316</ele>
        <time>2022-05-06T09:20:28.564Z</time>
      </trkpt>
      <trkpt lat="41.36522" lon="19.49254">
        <ele>40.792164</ele>
        <time>2022-05-06T09:20:31.567Z</time>
      </trkpt>
      <trkpt lat="41.36531" lon="19.49264">
        <ele>40.905049</ele>
        <time>2022-05-06T09:20:34.535Z</time>
      </trkpt>
      <trkpt lat="41.3654" lon="19.49275">
        <ele>41.025638</ele>
        <time>2022-05-06T09:20:37.561Z</time>
      </trkpt>
      <trkpt lat="41.3655" lon="19.49288">
        <ele>41.1556</ele>
        <time>2022-05-06T09:20:40.567Z</time>
      </trkpt>
      <trkpt lat="41.36558" lon="19.49297">
        <ele>41.253359</ele>
        <time>2022-05-06T09:20:42.568Z</time>
      </trkpt>
      <trkpt lat="41.36566" lon="19.49306">
        <ele>41.358318</ele>
        <time>2022-05-06T09:20:44.559Z</time>
      </trkpt>
      <trkpt lat="41.36574" lon="19.49316">
        <ele>41.463041</ele>
        <time>2022-05-06T09:20:46.559Z</time>
      </trkpt>
      <trkpt lat="41.36582" lon="19.49326">
        <ele>41.575548</ele>
        <time>2022-05-06T09:20:48.550Z</time>
      </trkpt>
      <trkpt lat="41.3659" lon="19.49335">
        <ele>41.754132</ele>
        <time>2022-05-06T09:20:50.546Z</time>
      </trkpt>
      <trkpt lat="41.36597" lon="19.49345">
        <ele>41.925782</ele>
        <time>2022-05-06T09:20:52.584Z</time>
      </trkpt>
      <trkpt lat="41.36605" lon="19.49355">
        <ele>42.102411</ele>
        <time>2022-05-06T09:20:54.566Z</time>
      </trkpt>
      <trkpt lat="41.36613" lon="19.49363">
        <ele>42.272751</ele>
        <time>2022-05-06T09:20:56.560Z</time>
      </trkpt>
      <trkpt lat="41.36621" lon="19.49372">
        <ele>42.442284</ele>
        <time>2022-05-06T09:20:58.559Z</time>
      </trkpt>
      <trkpt lat="41.36627" lon="19.49381">
        <ele>42.598659</ele>
        <time>2022-05-06T09:21:00.552Z</time>
      </trkpt>
      <trkpt lat="41.36634" lon="19.4939">
        <ele>42.757443</ele>
        <time>2022-05-06T09:21:02.548Z</time>
      </trkpt>
      <trkpt lat="41.36642" lon="19.49399">
        <ele>42.921572</ele>
        <time>2022-05-06T09:21:04.547Z</time>
      </trkpt>
      <trkpt lat="41.36649" lon="19.49407">
        <ele>43.085271</ele>
        <time>2022-05-06T09:21:06.566Z</time>
      </trkpt>
      <trkpt lat="41.36657" lon="19.49416">
        <ele>43.250627</ele>
        <time>2022-05-06T09:21:08.560Z</time>
      </trkpt>
      <trkpt lat="41.36664" lon="19.49425">
        <ele>43.416099</ele>
        <time>2022-05-06T09:21:10.549Z</time>
      </trkpt>
      <trkpt lat="41.36671" lon="19.49434">
        <ele>43.583521</ele>
        <time>2022-05-06T09:21:12.551Z</time>
      </trkpt>
      <trkpt lat="41.36679" lon="19.49443">
        <ele>43.750555</ele>
        <time>2022-05-06T09:21:14.586Z</time>
      </trkpt>
      <trkpt lat="41.36686" lon="19.49452">
        <ele>43.913464</ele>
        <time>2022-05-06T09:21:16.546Z</time>
      </trkpt>
      <trkpt lat="41.36693" lon="19.49461">
        <ele>44.07276</ele>
        <time>2022-05-06T09:21:18.553Z</time>
      </trkpt>
      <trkpt lat="41.367" lon="19.4947">
        <ele>44.232924</ele>
        <time>2022-05-06T09:21:20.554Z</time>
      </trkpt>
      <trkpt lat="41.36707" lon="19.49479">
        <ele>44.395145</ele>
        <time>2022-05-06T09:21:22.549Z</time>
      </trkpt>
      <trkpt lat="41.36714" lon="19.49488">
        <ele>44.543945</ele>
        <time>2022-05-06T09:21:24.563Z</time>
      </trkpt>
      <trkpt lat="41.36724" lon="19.495">
        <ele>44.664675</ele>
        <time>2022-05-06T09:21:27.550Z</time>
      </trkpt>
      <trkpt lat="41.36733" lon="19.49512">
        <ele>44.778807</ele>
        <time>2022-05-06T09:21:30.581Z</time>
      </trkpt>
      <trkpt lat="41.3674" lon="19.49524">
        <ele>44.88128</ele>
        <time>2022-05-06T09:21:33.556Z</time>
      </trkpt>
      <trkpt lat="41.36747" lon="19.49537">
        <ele>44.991267</ele>
        <time>2022-05-06T09:21:36.540Z</time>
      </trkpt>
      <trkpt lat="41.36753" lon="19.4955">
        <ele>45.091953</ele>
        <time>2022-05-06T09:21:39.547Z</time>
      </trkpt>
      <trkpt lat="41.36756" lon="19.49563">
        <ele>45.184006</ele>
        <time>2022-05-06T09:21:42.595Z</time>
      </trkpt>
      <trkpt lat="41.36759" lon="19.4958">
        <ele>45.300072</ele>
        <time>2022-05-06T09:21:45.556Z</time>
      </trkpt>
      <trkpt lat="41.36763" lon="19.49596">
        <ele>45.417767</ele>
        <time>2022-05-06T09:21:48.535Z</time>
      </trkpt>
      <trkpt lat="41.36766" lon="19.49608">
        <ele>45.498076</ele>
        <time>2022-05-06T09:21:50.547Z</time>
      </trkpt>
      <trkpt lat="41.36768" lon="19.4962">
        <ele>45.580965</ele>
        <time>2022-05-06T09:21:52.562Z</time>
      </trkpt>
      <trkpt lat="41.36771" lon="19.49632">
        <ele>45.668465</ele>
        <time>2022-05-06T09:21:54.559Z</time>
      </trkpt>
      <trkpt lat="41.36774" lon="19.49644">
        <ele>45.753561</ele>
        <time>2022-05-06T09:21:56.546Z</time>
      </trkpt>
      <trkpt lat="41.36779" lon="19.49661">
        <ele>45.87258</ele>
        <time>2022-05-06T09:21:59.532Z</time>
      </trkpt>
      <trkpt lat="41.36782" lon="19.49678">
        <ele>45.990792</ele>
        <time>2022-05-06T09:22:02.556Z</time>
      </trkpt>
      <trkpt lat="41.36785" lon="19.49695">
        <ele>46.10866</ele>
        <time>2022-05-06T09:22:05.566Z</time>
      </trkpt>
      <trkpt lat="41.36788" lon="19.49713">
        <ele>46.087629</ele>
        <time>2022-05-06T09:22:08.540Z</time>
      </trkpt>
      <trkpt lat="41.36791" lon="19.49725">
        <ele>46.03052</ele>
        <time>2022-05-06T09:22:10.542Z</time>
      </trkpt>
      <trkpt lat="41.36793" lon="19.49737">
        <ele>45.974635</ele>
        <time>2022-05-06T09:22:12.545Z</time>
      </trkpt>
      <trkpt lat="41.36797" lon="19.49754">
        <ele>45.893852</ele>
        <time>2022-05-06T09:22:15.595Z</time>
      </trkpt>
      <trkpt lat="41.36801" lon="19.49771">
        <ele>45.811834</ele>
        <time>2022-05-06T09:22:18.528Z</time>
      </trkpt>
      <trkpt lat="41.36804" lon="19.49783">
        <ele>45.756327</ele>
        <time>2022-05-06T09:22:20.545Z</time>
      </trkpt>
      <trkpt lat="41.36807" lon="19.49795">
        <ele>45.700391</ele>
        <time>2022-05-06T09:22:22.558Z</time>
      </trkpt>
      <trkpt lat="41.3681" lon="19.49806">
        <ele>45.644904</ele>
        <time>2022-05-06T09:22:24.556Z</time>
      </trkpt>
      <trkpt lat="41.36815" lon="19.49823">
        <ele>45.564601</ele>
        <time>2022-05-06T09:22:27.552Z</time>
      </trkpt>
      <trkpt lat="41.36818" lon="19.4984">
        <ele>45.484851</ele>
        <time>2022-05-06T09:22:30.553Z</time>
      </trkpt>
      <trkpt lat="41.36821" lon="19.49852">
        <ele>45.42589</ele>
        <time>2022-05-06T09:22:32.563Z</time>
      </trkpt>
      <trkpt lat="41.36823" lon="19.49865">
        <ele>45.368239</ele>
        <time>2022-05-06T09:22:34.556Z</time>
      </trkpt>
      <trkpt lat="41.36826" lon="19.49876">
        <ele>45.313295</ele>
        <time>2022-05-06T09:22:36.548Z</time>
      </trkpt>
      <trkpt lat="41.36829" lon="19.49893">
        <ele>45.233265</ele>
        <time>2022-05-06T09:22:39.553Z</time>
      </trkpt>
      <trkpt lat="41.36832" lon="19.49905">
        <ele>45.179184</ele>
        <time>2022-05-06T09:22:41.563Z</time>
      </trkpt>
      <trkpt lat="41.36835" lon="19.49916">
        <ele>45.123676</ele>
        <time>2022-05-06T09:22:43.558Z</time>
      </trkpt>
      <trkpt lat="41.36838" lon="19.49928">
        <ele>45.067313</ele>
        <time>2022-05-06T09:22:45.567Z</time>
      </trkpt>
      <trkpt lat="41.36841" lon="19.4994">
        <ele>45.061896</ele>
        <time>2022-05-06T09:22:47.574Z</time>
      </trkpt>
      <trkpt lat="41.36845" lon="19.49957">
        <ele>45.063416</ele>
        <time>2022-05-06T09:22:50.541Z</time>
      </trkpt>
      <trkpt lat="41.36848" lon="19.49968">
        <ele>45.064452</ele>
        <time>2022-05-06T09:22:52.550Z</time>
      </trkpt>
      <trkpt lat="41.36852" lon="19.49985">
        <ele>45.065971</ele>
        <time>2022-05-06T09:22:55.532Z</time>
      </trkpt>
      <trkpt lat="41.36856" lon="19.49996">
        <ele>45.067022</ele>
        <time>2022-05-06T09:22:57.550Z</time>
      </trkpt>
      <trkpt lat="41.36859" lon="19.50008">
        <ele>45.06809</ele>
        <time>2022-05-06T09:22:59.554Z</time>
      </trkpt>
      <trkpt lat="41.36862" lon="19.5002">
        <ele>45.069162</ele>
        <time>2022-05-06T09:23:01.549Z</time>
      </trkpt>
      <trkpt lat="41.36865" lon="19.50031">
        <ele>45.070227</ele>
        <time>2022-05-06T09:23:03.546Z</time>
      </trkpt>
      <trkpt lat="41.36868" lon="19.50043">
        <ele>45.071298</ele>
        <time>2022-05-06T09:23:05.589Z</time>
      </trkpt>
      <trkpt lat="41.3687" lon="19.50056">
        <ele>45.072406</ele>
        <time>2022-05-06T09:23:07.545Z</time>
      </trkpt>
      <trkpt lat="41.36873" lon="19.50067">
        <ele>45.073451</ele>
        <time>2022-05-06T09:23:09.552Z</time>
      </trkpt>
      <trkpt lat="41.36876" lon="19.50079">
        <ele>45.074499</ele>
        <time>2022-05-06T09:23:11.529Z</time>
      </trkpt>
      <trkpt lat="41.3688" lon="19.50095">
        <ele>45.075952</ele>
        <time>2022-05-06T09:23:14.554Z</time>
      </trkpt>
      <trkpt lat="41.36883" lon="19.50111">
        <ele>45.077389</ele>
        <time>2022-05-06T09:23:17.559Z</time>
      </trkpt>
      <trkpt lat="41.36885" lon="19.50126">
        <ele>45.078671</ele>
        <time>2022-05-06T09:23:20.552Z</time>
      </trkpt>
      <trkpt lat="41.36888" lon="19.50141">
        <ele>45.080016</ele>
        <time>2022-05-06T09:23:23.559Z</time>
      </trkpt>
      <trkpt lat="41.36893" lon="19.50157">
        <ele>45.081447</ele>
        <time>2022-05-06T09:23:26.558Z</time>
      </trkpt>
      <trkpt lat="41.36898" lon="19.50171">
        <ele>45.325607</ele>
        <time>2022-05-06T09:23:29.545Z</time>
      </trkpt>
      <trkpt lat="41.36902" lon="19.50188">
        <ele>45.609862</ele>
        <time>2022-05-06T09:23:32.539Z</time>
      </trkpt>
      <trkpt lat="41.36904" lon="19.50203">
        <ele>45.869868</ele>
        <time>2022-05-06T09:23:35.543Z</time>
      </trkpt>
      <trkpt lat="41.36906" lon="19.50221">
        <ele>46.163642</ele>
        <time>2022-05-06T09:23:38.546Z</time>
      </trkpt>
      <trkpt lat="41.36908" lon="19.50233">
        <ele>46.36399</ele>
        <time>2022-05-06T09:23:40.545Z</time>
      </trkpt>
      <trkpt lat="41.36911" lon="19.50245">
        <ele>46.561106</ele>
        <time>2022-05-06T09:23:42.555Z</time>
      </trkpt>
      <trkpt lat="41.36914" lon="19.50257">
        <ele>46.767548</ele>
        <time>2022-05-06T09:23:44.568Z</time>
      </trkpt>
      <trkpt lat="41.36917" lon="19.50268">
        <ele>46.963847</ele>
        <time>2022-05-06T09:23:46.546Z</time>
      </trkpt>
      <trkpt lat="41.36922" lon="19.50279">
        <ele>47.168959</ele>
        <time>2022-05-06T09:23:48.553Z</time>
      </trkpt>
      <trkpt lat="41.36925" lon="19.5029">
        <ele>47.364365</ele>
        <time>2022-05-06T09:23:50.552Z</time>
      </trkpt>
      <trkpt lat="41.36929" lon="19.50305">
        <ele>47.633994</ele>
        <time>2022-05-06T09:23:53.547Z</time>
      </trkpt>
      <trkpt lat="41.36933" lon="19.50321">
        <ele>47.899847</ele>
        <time>2022-05-06T09:23:56.545Z</time>
      </trkpt>
      <trkpt lat="41.36937" lon="19.50338">
        <ele>48.190316</ele>
        <time>2022-05-06T09:23:59.551Z</time>
      </trkpt>
      <trkpt lat="41.36939" lon="19.5035">
        <ele>48.38855</ele>
        <time>2022-05-06T09:24:01.526Z</time>
      </trkpt>
      <trkpt lat="41.36941" lon="19.50367">
        <ele>48.679765</ele>
        <time>2022-05-06T09:24:04.577Z</time>
      </trkpt>
      <trkpt lat="41.36943" lon="19.5038">
        <ele>48.882749</ele>
        <time>2022-05-06T09:24:06.557Z</time>
      </trkpt>
      <trkpt lat="41.36946" lon="19.50391">
        <ele>48.921649</ele>
        <time>2022-05-06T09:24:08.553Z</time>
      </trkpt>
      <trkpt lat="41.3695" lon="19.50408">
        <ele>48.713353</ele>
        <time>2022-05-06T09:24:11.559Z</time>
      </trkpt>
      <trkpt lat="41.36953" lon="19.50424">
        <ele>48.519255</ele>
        <time>2022-05-06T09:24:14.558Z</time>
      </trkpt>
      <trkpt lat="41.36957" lon="19.50439">
        <ele>48.31861</ele>
        <time>2022-05-06T09:24:17.556Z</time>
      </trkpt>
      <trkpt lat="41.36961" lon="19.50456">
        <ele>48.112192</ele>
        <time>2022-05-06T09:24:20.543Z</time>
      </trkpt>
      <trkpt lat="41.36963" lon="19.50468">
        <ele>47.969659</ele>
        <time>2022-05-06T09:24:22.559Z</time>
      </trkpt>
      <trkpt lat="41.36966" lon="19.5048">
        <ele>47.820056</ele>
        <time>2022-05-06T09:24:24.562Z</time>
      </trkpt>
      <trkpt lat="41.36969" lon="19.50492">
        <ele>47.667202</ele>
        <time>2022-05-06T09:24:26.567Z</time>
      </trkpt>
      <trkpt lat="41.36971" lon="19.50504">
        <ele>47.523525</ele>
        <time>2022-05-06T09:24:28.558Z</time>
      </trkpt>
      <trkpt lat="41.36973" lon="19.50515">
        <ele>47.380311</ele>
        <time>2022-05-06T09:24:30.543Z</time>
      </trkpt>
      <trkpt lat="41.36977" lon="19.50532">
        <ele>47.172421</ele>
        <time>2022-05-06T09:24:33.599Z</time>
      </trkpt>
      <trkpt lat="41.36979" lon="19.50544">
        <ele>47.029174</ele>
        <time>2022-05-06T09:24:35.549Z</time>
      </trkpt>
      <trkpt lat="41.36983" lon="19.50561">
        <ele>46.817079</ele>
        <time>2022-05-06T09:24:38.563Z</time>
      </trkpt>
      <trkpt lat="41.36986" lon="19.50572">
        <ele>46.674281</ele>
        <time>2022-05-06T09:24:40.555Z</time>
      </trkpt>
      <trkpt lat="41.36989" lon="19.50589">
        <ele>46.464086</ele>
        <time>2022-05-06T09:24:43.547Z</time>
      </trkpt>
      <trkpt lat="41.36992" lon="19.50605">
        <ele>46.268134</ele>
        <time>2022-05-06T09:24:46.569Z</time>
      </trkpt>
      <trkpt lat="41.36994" lon="19.50621">
        <ele>46.124403</ele>
        <time>2022-05-06T09:24:49.560Z</time>
      </trkpt>
      <trkpt lat="41.36997" lon="19.50638">
        <ele>46.084252</ele>
        <time>2022-05-06T09:24:52.558Z</time>
      </trkpt>
      <trkpt lat="41.36999" lon="19.50654">
        <ele>46.044739</ele>
        <time>2022-05-06T09:24:55.561Z</time>
      </trkpt>
      <trkpt lat="41.37002" lon="19.50672">
        <ele>46.004075</ele>
        <time>2022-05-06T09:24:58.557Z</time>
      </trkpt>
      <trkpt lat="41.37004" lon="19.50688">
        <ele>45.964044</ele>
        <time>2022-05-06T09:25:01.547Z</time>
      </trkpt>
      <trkpt lat="41.37007" lon="19.50705">
        <ele>45.924351</ele>
        <time>2022-05-06T09:25:04.559Z</time>
      </trkpt>
      <trkpt lat="41.37009" lon="19.5072">
        <ele>45.888056</ele>
        <time>2022-05-06T09:25:07.555Z</time>
      </trkpt>
      <trkpt lat="41.37011" lon="19.50735">
        <ele>45.852021</ele>
        <time>2022-05-06T09:25:10.568Z</time>
      </trkpt>
      <trkpt lat="41.37014" lon="19.50752">
        <ele>45.811012</ele>
        <time>2022-05-06T09:25:13.568Z</time>
      </trkpt>
      <trkpt lat="41.37016" lon="19.50769">
        <ele>45.772679</ele>
        <time>2022-05-06T09:25:16.599Z</time>
      </trkpt>
      <trkpt lat="41.37018" lon="19.50785">
        <ele>45.732992</ele>
        <time>2022-05-06T09:25:19.524Z</time>
      </trkpt>
      <trkpt lat="41.3702" lon="19.50802">
        <ele>45.693304</ele>
        <time>2022-05-06T09:25:22.551Z</time>
      </trkpt>
      <trkpt lat="41.37022" lon="19.50818">
        <ele>45.65608</ele>
        <time>2022-05-06T09:25:25.541Z</time>
      </trkpt>
      <trkpt lat="41.37025" lon="19.50834">
        <ele>45.617596</ele>
        <time>2022-05-06T09:25:28.535Z</time>
      </trkpt>
      <trkpt lat="41.37027" lon="19.50851">
        <ele>45.577445</ele>
        <time>2022-05-06T09:25:31.569Z</time>
      </trkpt>
      <trkpt lat="41.37029" lon="19.50867">
        <ele>45.697644</ele>
        <time>2022-05-06T09:25:34.532Z</time>
      </trkpt>
      <trkpt lat="41.3703" lon="19.50879">
        <ele>45.790765</ele>
        <time>2022-05-06T09:25:36.553Z</time>
      </trkpt>
      <trkpt lat="41.37033" lon="19.50897">
        <ele>45.931412</ele>
        <time>2022-05-06T09:25:39.539Z</time>
      </trkpt>
      <trkpt lat="41.37036" lon="19.50914">
        <ele>46.067803</ele>
        <time>2022-05-06T09:25:42.556Z</time>
      </trkpt>
      <trkpt lat="41.37038" lon="19.50926">
        <ele>46.160987</ele>
        <time>2022-05-06T09:25:44.581Z</time>
      </trkpt>
      <trkpt lat="41.3704" lon="19.50937">
        <ele>46.253772</ele>
        <time>2022-05-06T09:25:46.547Z</time>
      </trkpt>
      <trkpt lat="41.37041" lon="19.50949">
        <ele>46.347938</ele>
        <time>2022-05-06T09:25:48.542Z</time>
      </trkpt>
      <trkpt lat="41.37042" lon="19.50962">
        <ele>46.446254</ele>
        <time>2022-05-06T09:25:50.580Z</time>
      </trkpt>
      <trkpt lat="41.37044" lon="19.50974">
        <ele>46.542109</ele>
        <time>2022-05-06T09:25:52.586Z</time>
      </trkpt>
      <trkpt lat="41.37046" lon="19.50986">
        <ele>46.63812</ele>
        <time>2022-05-06T09:25:54.563Z</time>
      </trkpt>
      <trkpt lat="41.37048" lon="19.51003">
        <ele>46.768277</ele>
        <time>2022-05-06T09:25:57.542Z</time>
      </trkpt>
      <trkpt lat="41.3705" lon="19.5102">
        <ele>46.90568</ele>
        <time>2022-05-06T09:26:00.552Z</time>
      </trkpt>
      <trkpt lat="41.37053" lon="19.51037">
        <ele>47.040324</ele>
        <time>2022-05-06T09:26:03.558Z</time>
      </trkpt>
      <trkpt lat="41.37056" lon="19.51053">
        <ele>47.169748</ele>
        <time>2022-05-06T09:26:06.537Z</time>
      </trkpt>
      <trkpt lat="41.37058" lon="19.5107">
        <ele>47.302212</ele>
        <time>2022-05-06T09:26:09.556Z</time>
      </trkpt>
      <trkpt lat="41.37061" lon="19.51088">
        <ele>47.434345</ele>
        <time>2022-05-06T09:26:12.552Z</time>
      </trkpt>
      <trkpt lat="41.37062" lon="19.51099">
        <ele>47.392024</ele>
        <time>2022-05-06T09:26:14.560Z</time>
      </trkpt>
      <trkpt lat="41.37065" lon="19.51116">
        <ele>47.330941</ele>
        <time>2022-05-06T09:26:17.553Z</time>
      </trkpt>
      <trkpt lat="41.37066" lon="19.51134">
        <ele>47.268708</ele>
        <time>2022-05-06T09:26:20.530Z</time>
      </trkpt>
      <trkpt lat="41.37067" lon="19.51146">
        <ele>47.226463</ele>
        <time>2022-05-06T09:26:22.567Z</time>
      </trkpt>
      <trkpt lat="41.3707" lon="19.51162">
        <ele>47.167633</ele>
        <time>2022-05-06T09:26:25.543Z</time>
      </trkpt>
      <trkpt lat="41.37072" lon="19.51178">
        <ele>47.11046</ele>
        <time>2022-05-06T09:26:28.562Z</time>
      </trkpt>
      <trkpt lat="41.37074" lon="19.51195">
        <ele>47.047901</ele>
        <time>2022-05-06T09:26:31.572Z</time>
      </trkpt>
      <trkpt lat="41.37075" lon="19.51208">
        <ele>47.004392</ele>
        <time>2022-05-06T09:26:33.537Z</time>
      </trkpt>
      <trkpt lat="41.37078" lon="19.51225">
        <ele>46.942501</ele>
        <time>2022-05-06T09:26:36.561Z</time>
      </trkpt>
      <trkpt lat="41.37081" lon="19.51241">
        <ele>46.881325</ele>
        <time>2022-05-06T09:26:39.554Z</time>
      </trkpt>
      <trkpt lat="41.37083" lon="19.51253">
        <ele>46.838923</ele>
        <time>2022-05-06T09:26:41.539Z</time>
      </trkpt>
      <trkpt lat="41.37085" lon="19.51266">
        <ele>46.794697</ele>
        <time>2022-05-06T09:26:43.548Z</time>
      </trkpt>
      <trkpt lat="41.37086" lon="19.51278">
        <ele>46.749934</ele>
        <time>2022-05-06T09:26:45.567Z</time>
      </trkpt>
      <trkpt lat="41.37088" lon="19.51291">
        <ele>46.704665</ele>
        <time>2022-05-06T09:26:47.567Z</time>
      </trkpt>
      <trkpt lat="41.3709" lon="19.51303">
        <ele>46.661392</ele>
        <time>2022-05-06T09:26:49.551Z</time>
      </trkpt>
      <trkpt lat="41.37091" lon="19.51315">
        <ele>46.6181</ele>
        <time>2022-05-06T09:26:51.552Z</time>
      </trkpt>
      <trkpt lat="41.37093" lon="19.51327">
        <ele>46.601035</ele>
        <time>2022-05-06T09:26:53.555Z</time>
      </trkpt>
      <trkpt lat="41.37095" lon="19.51344">
        <ele>46.65646</ele>
        <time>2022-05-06T09:26:56.544Z</time>
      </trkpt>
      <trkpt lat="41.37097" lon="19.51359">
        <ele>46.704102</ele>
        <time>2022-05-06T09:26:59.546Z</time>
      </trkpt>
      <trkpt lat="41.37098" lon="19.51371">
        <ele>46.742141</ele>
        <time>2022-05-06T09:27:02.541Z</time>
      </trkpt>
      <trkpt lat="41.37098" lon="19.51383">
        <ele>46.780801</ele>
        <time>2022-05-06T09:27:05.587Z</time>
      </trkpt>
      <trkpt lat="41.371" lon="19.514">
        <ele>46.836198</ele>
        <time>2022-05-06T09:27:09.565Z</time>
      </trkpt>
      <trkpt lat="41.37101" lon="19.51413">
        <ele>46.877747</ele>
        <time>2022-05-06T09:27:11.551Z</time>
      </trkpt>
      <trkpt lat="41.37102" lon="19.51425">
        <ele>46.91716</ele>
        <time>2022-05-06T09:27:13.551Z</time>
      </trkpt>
      <trkpt lat="41.37104" lon="19.51439">
        <ele>46.959902</ele>
        <time>2022-05-06T09:27:15.547Z</time>
      </trkpt>
      <trkpt lat="41.37107" lon="19.51452">
        <ele>47.00375</ele>
        <time>2022-05-06T09:27:17.547Z</time>
      </trkpt>
      <trkpt lat="41.37109" lon="19.51466">
        <ele>47.050267</ele>
        <time>2022-05-06T09:27:19.543Z</time>
      </trkpt>
      <trkpt lat="41.37111" lon="19.51482">
        <ele>47.098772</ele>
        <time>2022-05-06T09:27:21.584Z</time>
      </trkpt>
      <trkpt lat="41.37114" lon="19.51496">
        <ele>47.145395</ele>
        <time>2022-05-06T09:27:23.547Z</time>
      </trkpt>
      <trkpt lat="41.37116" lon="19.51508">
        <ele>47.186506</ele>
        <time>2022-05-06T09:27:25.561Z</time>
      </trkpt>
      <trkpt lat="41.37118" lon="19.51522">
        <ele>47.229009</ele>
        <time>2022-05-06T09:27:27.555Z</time>
      </trkpt>
      <trkpt lat="41.3712" lon="19.51534">
        <ele>47.268972</ele>
        <time>2022-05-06T09:27:29.567Z</time>
      </trkpt>
      <trkpt lat="41.37121" lon="19.51546">
        <ele>47.307132</ele>
        <time>2022-05-06T09:27:31.531Z</time>
      </trkpt>
      <trkpt lat="41.37123" lon="19.51558">
        <ele>47.345361</ele>
        <time>2022-05-06T09:27:33.550Z</time>
      </trkpt>
      <trkpt lat="41.37125" lon="19.51575">
        <ele>47.328546</ele>
        <time>2022-05-06T09:27:36.551Z</time>
      </trkpt>
      <trkpt lat="41.37128" lon="19.51587">
        <ele>47.314689</ele>
        <time>2022-05-06T09:27:38.590Z</time>
      </trkpt>
      <trkpt lat="41.37131" lon="19.51604">
        <ele>47.294291</ele>
        <time>2022-05-06T09:27:41.559Z</time>
      </trkpt>
      <trkpt lat="41.37133" lon="19.51621">
        <ele>47.274164</ele>
        <time>2022-05-06T09:27:44.549Z</time>
      </trkpt>
      <trkpt lat="41.37135" lon="19.51638">
        <ele>47.25432</ele>
        <time>2022-05-06T09:27:47.559Z</time>
      </trkpt>
      <trkpt lat="41.37137" lon="19.51653">
        <ele>47.237202</ele>
        <time>2022-05-06T09:27:50.554Z</time>
      </trkpt>
      <trkpt lat="41.37139" lon="19.51669">
        <ele>47.218515</ele>
        <time>2022-05-06T09:27:53.549Z</time>
      </trkpt>
      <trkpt lat="41.37141" lon="19.51685">
        <ele>47.199815</ele>
        <time>2022-05-06T09:27:56.553Z</time>
      </trkpt>
      <trkpt lat="41.37143" lon="19.51701">
        <ele>47.181659</ele>
        <time>2022-05-06T09:27:59.564Z</time>
      </trkpt>
      <trkpt lat="41.37145" lon="19.51718">
        <ele>47.161891</ele>
        <time>2022-05-06T09:28:02.551Z</time>
      </trkpt>
      <trkpt lat="41.37146" lon="19.5173">
        <ele>47.147607</ele>
        <time>2022-05-06T09:28:04.552Z</time>
      </trkpt>
      <trkpt lat="41.37149" lon="19.51747">
        <ele>47.127622</ele>
        <time>2022-05-06T09:28:07.538Z</time>
      </trkpt>
      <trkpt lat="41.37151" lon="19.51765">
        <ele>47.107036</ele>
        <time>2022-05-06T09:28:10.552Z</time>
      </trkpt>
      <trkpt lat="41.37152" lon="19.51777">
        <ele>47.092468</ele>
        <time>2022-05-06T09:28:12.531Z</time>
      </trkpt>
      <trkpt lat="41.37154" lon="19.5179">
        <ele>47.07824</ele>
        <time>2022-05-06T09:28:14.548Z</time>
      </trkpt>
      <trkpt lat="41.37156" lon="19.51802">
        <ele>46.996817</ele>
        <time>2022-05-06T09:28:16.551Z</time>
      </trkpt>
      <trkpt lat="41.37158" lon="19.51814">
        <ele>46.868779</ele>
        <time>2022-05-06T09:28:18.554Z</time>
      </trkpt>
      <trkpt lat="41.3716" lon="19.51827">
        <ele>46.738942</ele>
        <time>2022-05-06T09:28:20.542Z</time>
      </trkpt>
      <trkpt lat="41.37162" lon="19.51839">
        <ele>46.610645</ele>
        <time>2022-05-06T09:28:22.560Z</time>
      </trkpt>
      <trkpt lat="41.37164" lon="19.51852">
        <ele>46.484042</ele>
        <time>2022-05-06T09:28:24.537Z</time>
      </trkpt>
      <trkpt lat="41.37166" lon="19.51864">
        <ele>46.359778</ele>
        <time>2022-05-06T09:28:26.546Z</time>
      </trkpt>
      <trkpt lat="41.37168" lon="19.51876">
        <ele>46.23353</ele>
        <time>2022-05-06T09:28:28.604Z</time>
      </trkpt>
      <trkpt lat="41.3717" lon="19.51888">
        <ele>46.10791</ele>
        <time>2022-05-06T09:28:30.531Z</time>
      </trkpt>
      <trkpt lat="41.37172" lon="19.519">
        <ele>45.988029</ele>
        <time>2022-05-06T09:28:32.545Z</time>
      </trkpt>
      <trkpt lat="41.37174" lon="19.51917">
        <ele>45.812281</ele>
        <time>2022-05-06T09:28:35.543Z</time>
      </trkpt>
      <trkpt lat="41.37177" lon="19.51934">
        <ele>45.635783</ele>
        <time>2022-05-06T09:28:38.567Z</time>
      </trkpt>
      <trkpt lat="41.37179" lon="19.51951">
        <ele>45.460784</ele>
        <time>2022-05-06T09:28:41.567Z</time>
      </trkpt>
      <trkpt lat="41.37181" lon="19.51963">
        <ele>45.34016</ele>
        <time>2022-05-06T09:28:43.557Z</time>
      </trkpt>
      <trkpt lat="41.37182" lon="19.51975">
        <ele>45.218776</ele>
        <time>2022-05-06T09:28:45.595Z</time>
      </trkpt>
      <trkpt lat="41.37185" lon="19.51991">
        <ele>45.049433</ele>
        <time>2022-05-06T09:28:48.552Z</time>
      </trkpt>
      <trkpt lat="41.37186" lon="19.52003">
        <ele>44.92881</ele>
        <time>2022-05-06T09:28:50.586Z</time>
      </trkpt>
      <trkpt lat="41.37189" lon="19.52021">
        <ele>44.751326</ele>
        <time>2022-05-06T09:28:53.554Z</time>
      </trkpt>
      <trkpt lat="41.37191" lon="19.52038">
        <ele>44.718097</ele>
        <time>2022-05-06T09:28:56.547Z</time>
      </trkpt>
      <trkpt lat="41.37194" lon="19.52055">
        <ele>44.832572</ele>
        <time>2022-05-06T09:28:59.554Z</time>
      </trkpt>
      <trkpt lat="41.37197" lon="19.52073">
        <ele>44.94561</ele>
        <time>2022-05-06T09:29:02.555Z</time>
      </trkpt>
      <trkpt lat="41.372" lon="19.52089">
        <ele>45.054451</ele>
        <time>2022-05-06T09:29:05.571Z</time>
      </trkpt>
      <trkpt lat="41.37202" lon="19.52105">
        <ele>45.161765</ele>
        <time>2022-05-06T09:29:08.563Z</time>
      </trkpt>
      <trkpt lat="41.37204" lon="19.52122">
        <ele>45.270248</ele>
        <time>2022-05-06T09:29:11.558Z</time>
      </trkpt>
      <trkpt lat="41.37206" lon="19.52139">
        <ele>45.379633</ele>
        <time>2022-05-06T09:29:14.553Z</time>
      </trkpt>
      <trkpt lat="41.37209" lon="19.52156">
        <ele>45.493482</ele>
        <time>2022-05-06T09:29:17.549Z</time>
      </trkpt>
      <trkpt lat="41.37211" lon="19.52173">
        <ele>45.600482</ele>
        <time>2022-05-06T09:29:20.535Z</time>
      </trkpt>
      <trkpt lat="41.37214" lon="19.52188">
        <ele>45.698358</ele>
        <time>2022-05-06T09:29:23.565Z</time>
      </trkpt>
      <trkpt lat="41.37216" lon="19.52204">
        <ele>45.808358</ele>
        <time>2022-05-06T09:29:26.550Z</time>
      </trkpt>
      <trkpt lat="41.37219" lon="19.52221">
        <ele>45.917448</ele>
        <time>2022-05-06T09:29:29.600Z</time>
      </trkpt>
      <trkpt lat="41.37222" lon="19.52238">
        <ele>46.029417</ele>
        <time>2022-05-06T09:29:32.539Z</time>
      </trkpt>
      <trkpt lat="41.37224" lon="19.5225">
        <ele>46.106753</ele>
        <time>2022-05-06T09:29:34.553Z</time>
      </trkpt>
      <trkpt lat="41.37225" lon="19.52262">
        <ele>46.184264</ele>
        <time>2022-05-06T09:29:36.540Z</time>
      </trkpt>
      <trkpt lat="41.37228" lon="19.52279">
        <ele>46.204611</ele>
        <time>2022-05-06T09:29:39.553Z</time>
      </trkpt>
      <trkpt lat="41.3723" lon="19.52297">
        <ele>46.208704</ele>
        <time>2022-05-06T09:29:42.565Z</time>
      </trkpt>
      <trkpt lat="41.37231" lon="19.52314">
        <ele>46.212628</ele>
        <time>2022-05-06T09:29:45.551Z</time>
      </trkpt>
      <trkpt lat="41.37233" lon="19.52331">
        <ele>46.216602</ele>
        <time>2022-05-06T09:29:48.565Z</time>
      </trkpt>
      <trkpt lat="41.37234" lon="19.52348">
        <ele>46.220636</ele>
        <time>2022-05-06T09:29:51.575Z</time>
      </trkpt>
      <trkpt lat="41.37237" lon="19.52364">
        <ele>46.22447</ele>
        <time>2022-05-06T09:29:54.565Z</time>
      </trkpt>
      <trkpt lat="41.37239" lon="19.52382">
        <ele>46.22855</ele>
        <time>2022-05-06T09:29:57.555Z</time>
      </trkpt>
      <trkpt lat="41.37241" lon="19.52399">
        <ele>46.232533</ele>
        <time>2022-05-06T09:30:00.556Z</time>
      </trkpt>
      <trkpt lat="41.37243" lon="19.52415">
        <ele>46.236425</ele>
        <time>2022-05-06T09:30:03.550Z</time>
      </trkpt>
      <trkpt lat="41.37246" lon="19.52432">
        <ele>46.240384</ele>
        <time>2022-05-06T09:30:06.531Z</time>
      </trkpt>
      <trkpt lat="41.37247" lon="19.52444">
        <ele>46.243197</ele>
        <time>2022-05-06T09:30:08.555Z</time>
      </trkpt>
      <trkpt lat="41.37249" lon="19.52457">
        <ele>46.24623</ele>
        <time>2022-05-06T09:30:10.552Z</time>
      </trkpt>
      <trkpt lat="41.37251" lon="19.52469">
        <ele>46.24915</ele>
        <time>2022-05-06T09:30:12.566Z</time>
      </trkpt>
      <trkpt lat="41.37252" lon="19.52481">
        <ele>46.251945</ele>
        <time>2022-05-06T09:30:14.551Z</time>
      </trkpt>
      <trkpt lat="41.37255" lon="19.52498">
        <ele>46.255911</ele>
        <time>2022-05-06T09:30:17.552Z</time>
      </trkpt>
      <trkpt lat="41.37258" lon="19.52515">
        <ele>46.244796</ele>
        <time>2022-05-06T09:30:20.610Z</time>
      </trkpt>
      <trkpt lat="41.37261" lon="19.52533">
        <ele>46.231414</ele>
        <time>2022-05-06T09:30:23.572Z</time>
      </trkpt>
      <trkpt lat="41.37263" lon="19.5255">
        <ele>46.218119</ele>
        <time>2022-05-06T09:30:26.554Z</time>
      </trkpt>
      <trkpt lat="41.37266" lon="19.52567">
        <ele>46.204729</ele>
        <time>2022-05-06T09:30:29.556Z</time>
      </trkpt>
      <trkpt lat="41.37269" lon="19.52584">
        <ele>46.19119</ele>
        <time>2022-05-06T09:30:32.547Z</time>
      </trkpt>
      <trkpt lat="41.37271" lon="19.52601">
        <ele>46.178027</ele>
        <time>2022-05-06T09:30:35.532Z</time>
      </trkpt>
      <trkpt lat="41.37273" lon="19.52618">
        <ele>46.164915</ele>
        <time>2022-05-06T09:30:38.563Z</time>
      </trkpt>
      <trkpt lat="41.37275" lon="19.52635">
        <ele>46.151659</ele>
        <time>2022-05-06T09:30:41.553Z</time>
      </trkpt>
      <trkpt lat="41.37277" lon="19.52653">
        <ele>46.138095</ele>
        <time>2022-05-06T09:30:44.574Z</time>
      </trkpt>
      <trkpt lat="41.37279" lon="19.5267">
        <ele>46.124696</ele>
        <time>2022-05-06T09:30:47.548Z</time>
      </trkpt>
      <trkpt lat="41.37282" lon="19.52687">
        <ele>46.111625</ele>
        <time>2022-05-06T09:30:50.567Z</time>
      </trkpt>
      <trkpt lat="41.37284" lon="19.52704">
        <ele>46.098608</ele>
        <time>2022-05-06T09:30:53.581Z</time>
      </trkpt>
      <trkpt lat="41.37287" lon="19.52721">
        <ele>46.085122</ele>
        <time>2022-05-06T09:30:56.582Z</time>
      </trkpt>
      <trkpt lat="41.37289" lon="19.52738">
        <ele>46.106303</ele>
        <time>2022-05-06T09:30:59.564Z</time>
      </trkpt>
      <trkpt lat="41.37292" lon="19.52755">
        <ele>46.328888</ele>
        <time>2022-05-06T09:31:02.542Z</time>
      </trkpt>
      <trkpt lat="41.37294" lon="19.52772">
        <ele>46.562878</ele>
        <time>2022-05-06T09:31:05.552Z</time>
      </trkpt>
      <trkpt lat="41.37296" lon="19.52789">
        <ele>46.794585</ele>
        <time>2022-05-06T09:31:08.536Z</time>
      </trkpt>
      <trkpt lat="41.37299" lon="19.52806">
        <ele>47.024652</ele>
        <time>2022-05-06T09:31:11.548Z</time>
      </trkpt>
      <trkpt lat="41.37301" lon="19.52824">
        <ele>47.260647</ele>
        <time>2022-05-06T09:31:14.559Z</time>
      </trkpt>
      <trkpt lat="41.37302" lon="19.52835">
        <ele>47.42085</ele>
        <time>2022-05-06T09:31:16.555Z</time>
      </trkpt>
      <trkpt lat="41.37304" lon="19.52848">
        <ele>47.587523</ele>
        <time>2022-05-06T09:31:18.583Z</time>
      </trkpt>
      <trkpt lat="41.37307" lon="19.52865">
        <ele>47.818632</ele>
        <time>2022-05-06T09:31:21.558Z</time>
      </trkpt>
      <trkpt lat="41.37309" lon="19.52881">
        <ele>48.038901</ele>
        <time>2022-05-06T09:31:24.545Z</time>
      </trkpt>
      <trkpt lat="41.37312" lon="19.52897">
        <ele>48.26113</ele>
        <time>2022-05-06T09:31:27.542Z</time>
      </trkpt>
      <trkpt lat="41.37314" lon="19.52909">
        <ele>48.420261</ele>
        <time>2022-05-06T09:31:29.548Z</time>
      </trkpt>
      <trkpt lat="41.37317" lon="19.52926">
        <ele>48.652516</ele>
        <time>2022-05-06T09:31:32.549Z</time>
      </trkpt>
      <trkpt lat="41.3732" lon="19.52943">
        <ele>48.887897</ele>
        <time>2022-05-06T09:31:35.543Z</time>
      </trkpt>
      <trkpt lat="41.37322" lon="19.52956">
        <ele>49.054917</ele>
        <time>2022-05-06T09:31:37.605Z</time>
      </trkpt>
      <trkpt lat="41.37324" lon="19.52968">
        <ele>49.220635</ele>
        <time>2022-05-06T09:31:39.556Z</time>
      </trkpt>
      <trkpt lat="41.37325" lon="19.5298">
        <ele>49.365736</ele>
        <time>2022-05-06T09:31:41.533Z</time>
      </trkpt>
      <trkpt lat="41.37326" lon="19.52992">
        <ele>49.503157</ele>
        <time>2022-05-06T09:31:43.545Z</time>
      </trkpt>
      <trkpt lat="41.3733" lon="19.53009">
        <ele>49.703695</ele>
        <time>2022-05-06T09:31:46.571Z</time>
      </trkpt>
      <trkpt lat="41.3733" lon="19.53025">
        <ele>49.896633</ele>
        <time>2022-05-06T09:31:49.542Z</time>
      </trkpt>
      <trkpt lat="41.3733" lon="19.53043">
        <ele>50.093917</ele>
        <time>2022-05-06T09:31:52.543Z</time>
      </trkpt>
      <trkpt lat="41.37332" lon="19.5306">
        <ele>50.291383</ele>
        <time>2022-05-06T09:31:55.550Z</time>
      </trkpt>
      <trkpt lat="41.37334" lon="19.53072">
        <ele>50.432764</ele>
        <time>2022-05-06T09:31:57.569Z</time>
      </trkpt>
      <trkpt lat="41.37335" lon="19.53085">
        <ele>50.585558</ele>
        <time>2022-05-06T09:31:59.568Z</time>
      </trkpt>
      <trkpt lat="41.37336" lon="19.53098">
        <ele>50.738612</ele>
        <time>2022-05-06T09:32:01.559Z</time>
      </trkpt>
      <trkpt lat="41.37337" lon="19.53111">
        <ele>50.886111</ele>
        <time>2022-05-06T09:32:03.539Z</time>
      </trkpt>
      <trkpt lat="41.37338" lon="19.53124">
        <ele>51.031329</ele>
        <time>2022-05-06T09:32:05.596Z</time>
      </trkpt>
      <trkpt lat="41.37339" lon="19.53136">
        <ele>51.169407</ele>
        <time>2022-05-06T09:32:07.548Z</time>
      </trkpt>
      <trkpt lat="41.3734" lon="19.53148">
        <ele>51.307966</ele>
        <time>2022-05-06T09:32:09.545Z</time>
      </trkpt>
      <trkpt lat="41.37341" lon="19.53166">
        <ele>51.514412</ele>
        <time>2022-05-06T09:32:12.554Z</time>
      </trkpt>
      <trkpt lat="41.37341" lon="19.53178">
        <ele>51.654773</ele>
        <time>2022-05-06T09:32:14.547Z</time>
      </trkpt>
      <trkpt lat="41.37343" lon="19.53195">
        <ele>51.858358</ele>
        <time>2022-05-06T09:32:17.552Z</time>
      </trkpt>
      <trkpt lat="41.37344" lon="19.53207">
        <ele>51.996436</ele>
        <time>2022-05-06T09:32:19.530Z</time>
      </trkpt>
      <trkpt lat="41.37345" lon="19.5322">
        <ele>52.068136</ele>
        <time>2022-05-06T09:32:21.539Z</time>
      </trkpt>
      <trkpt lat="41.37345" lon="19.53232">
        <ele>52.132227</ele>
        <time>2022-05-06T09:32:23.547Z</time>
      </trkpt>
      <trkpt lat="41.37347" lon="19.53249">
        <ele>52.224591</ele>
        <time>2022-05-06T09:32:26.541Z</time>
      </trkpt>
      <trkpt lat="41.37348" lon="19.53265">
        <ele>52.313012</ele>
        <time>2022-05-06T09:32:29.550Z</time>
      </trkpt>
      <trkpt lat="41.3735" lon="19.53282">
        <ele>52.403017</ele>
        <time>2022-05-06T09:32:32.553Z</time>
      </trkpt>
      <trkpt lat="41.3735" lon="19.53299">
        <ele>52.494056</ele>
        <time>2022-05-06T09:32:35.556Z</time>
      </trkpt>
      <trkpt lat="41.3735" lon="19.53311">
        <ele>52.558994</ele>
        <time>2022-05-06T09:32:37.555Z</time>
      </trkpt>
      <trkpt lat="41.37351" lon="19.53324">
        <ele>52.623427</ele>
        <time>2022-05-06T09:32:39.537Z</time>
      </trkpt>
      <trkpt lat="41.37351" lon="19.53341">
        <ele>52.718656</ele>
        <time>2022-05-06T09:32:42.552Z</time>
      </trkpt>
      <trkpt lat="41.37351" lon="19.53359">
        <ele>52.813949</ele>
        <time>2022-05-06T09:32:45.544Z</time>
      </trkpt>
      <trkpt lat="41.37352" lon="19.53377">
        <ele>52.908242</ele>
        <time>2022-05-06T09:32:48.524Z</time>
      </trkpt>
      <trkpt lat="41.37352" lon="19.53395">
        <ele>53.001896</ele>
        <time>2022-05-06T09:32:51.617Z</time>
      </trkpt>
      <trkpt lat="41.37353" lon="19.53412">
        <ele>53.096721</ele>
        <time>2022-05-06T09:32:54.547Z</time>
      </trkpt>
      <trkpt lat="41.37354" lon="19.53429">
        <ele>53.186196</ele>
        <time>2022-05-06T09:32:57.551Z</time>
      </trkpt>
      <trkpt lat="41.37354" lon="19.53443">
        <ele>53.260147</ele>
        <time>2022-05-06T09:33:00.591Z</time>
      </trkpt>
      <trkpt lat="41.37347" lon="19.53456">
        <ele>53.204471</ele>
        <time>2022-05-06T09:33:04.566Z</time>
      </trkpt>
      <trkpt lat="41.37337" lon="19.53459">
        <ele>53.10327</ele>
        <time>2022-05-06T09:33:07.588Z</time>
      </trkpt>
      <trkpt lat="41.37325" lon="19.53462">
        <ele>52.985109</ele>
        <time>2022-05-06T09:33:10.548Z</time>
      </trkpt>
      <trkpt lat="41.37313" lon="19.53466">
        <ele>52.862132</ele>
        <time>2022-05-06T09:33:13.585Z</time>
      </trkpt>
      <trkpt lat="41.37302" lon="19.5347">
        <ele>52.746473</ele>
        <time>2022-05-06T09:33:16.565Z</time>
      </trkpt>
      <trkpt lat="41.37289" lon="19.53474">
        <ele>52.624058</ele>
        <time>2022-05-06T09:33:19.548Z</time>
      </trkpt>
      <trkpt lat="41.37276" lon="19.53477">
        <ele>52.488877</ele>
        <time>2022-05-06T09:33:22.576Z</time>
      </trkpt>
      <trkpt lat="41.37266" lon="19.5348">
        <ele>52.395964</ele>
        <time>2022-05-06T09:33:24.566Z</time>
      </trkpt>
      <trkpt lat="41.37257" lon="19.53482">
        <ele>52.299398</ele>
        <time>2022-05-06T09:33:26.549Z</time>
      </trkpt>
      <trkpt lat="41.37247" lon="19.53485">
        <ele>52.207085</ele>
        <time>2022-05-06T09:33:28.553Z</time>
      </trkpt>
      <trkpt lat="41.37234" lon="19.53488">
        <ele>52.079475</ele>
        <time>2022-05-06T09:33:31.536Z</time>
      </trkpt>
      <trkpt lat="41.37221" lon="19.5349">
        <ele>51.951146</ele>
        <time>2022-05-06T09:33:34.545Z</time>
      </trkpt>
      <trkpt lat="41.37209" lon="19.53493">
        <ele>51.82558</ele>
        <time>2022-05-06T09:33:37.552Z</time>
      </trkpt>
      <trkpt lat="41.37196" lon="19.53497">
        <ele>51.697574</ele>
        <time>2022-05-06T09:33:40.547Z</time>
      </trkpt>
      <trkpt lat="41.37183" lon="19.53499">
        <ele>51.572361</ele>
        <time>2022-05-06T09:33:43.544Z</time>
      </trkpt>
      <trkpt lat="41.37171" lon="19.53502">
        <ele>51.446009</ele>
        <time>2022-05-06T09:33:46.549Z</time>
      </trkpt>
      <trkpt lat="41.37157" lon="19.53505">
        <ele>51.314041</ele>
        <time>2022-05-06T09:33:49.583Z</time>
      </trkpt>
      <trkpt lat="41.37148" lon="19.53508">
        <ele>51.220097</ele>
        <time>2022-05-06T09:33:51.592Z</time>
      </trkpt>
      <trkpt lat="41.37139" lon="19.53511">
        <ele>51.128755</ele>
        <time>2022-05-06T09:33:53.551Z</time>
      </trkpt>
      <trkpt lat="41.37126" lon="19.53514">
        <ele>50.993857</ele>
        <time>2022-05-06T09:33:56.547Z</time>
      </trkpt>
      <trkpt lat="41.37113" lon="19.53518">
        <ele>50.86088</ele>
        <time>2022-05-06T09:33:59.555Z</time>
      </trkpt>
      <trkpt lat="41.371" lon="19.53522">
        <ele>50.730808</ele>
        <time>2022-05-06T09:34:02.532Z</time>
      </trkpt>
      <trkpt lat="41.37087" lon="19.53524">
        <ele>50.603363</ele>
        <time>2022-05-06T09:34:05.578Z</time>
      </trkpt>
      <trkpt lat="41.37078" lon="19.53526">
        <ele>50.513203</ele>
        <time>2022-05-06T09:34:07.544Z</time>
      </trkpt>
      <trkpt lat="41.37065" lon="19.53529">
        <ele>50.378175</ele>
        <time>2022-05-06T09:34:10.547Z</time>
      </trkpt>
      <trkpt lat="41.37052" lon="19.53532">
        <ele>50.247184</ele>
        <time>2022-05-06T09:34:13.551Z</time>
      </trkpt>
      <trkpt lat="41.37039" lon="19.53535">
        <ele>50.114367</ele>
        <time>2022-05-06T09:34:16.536Z</time>
      </trkpt>
      <trkpt lat="41.37029" lon="19.53537">
        <ele>50.021786</ele>
        <time>2022-05-06T09:34:18.557Z</time>
      </trkpt>
      <trkpt lat="41.3702" lon="19.5354">
        <ele>49.929475</ele>
        <time>2022-05-06T09:34:20.536Z</time>
      </trkpt>
      <trkpt lat="41.37011" lon="19.53543">
        <ele>49.838288</ele>
        <time>2022-05-06T09:34:22.587Z</time>
      </trkpt>
      <trkpt lat="41.37002" lon="19.53545">
        <ele>49.748212</ele>
        <time>2022-05-06T09:34:24.548Z</time>
      </trkpt>
      <trkpt lat="41.36989" lon="19.53548">
        <ele>49.808645</ele>
        <time>2022-05-06T09:34:27.569Z</time>
      </trkpt>
      <trkpt lat="41.3698" lon="19.5355">
        <ele>49.851085</ele>
        <time>2022-05-06T09:34:29.548Z</time>
      </trkpt>
      <trkpt lat="41.36971" lon="19.53552">
        <ele>49.893429</ele>
        <time>2022-05-06T09:34:31.545Z</time>
      </trkpt>
      <trkpt lat="41.36963" lon="19.53554">
        <ele>49.935641</ele>
        <time>2022-05-06T09:34:33.541Z</time>
      </trkpt>
      <trkpt lat="41.36949" lon="19.53557">
        <ele>49.997917</ele>
        <time>2022-05-06T09:34:36.549Z</time>
      </trkpt>
      <trkpt lat="41.36936" lon="19.5356">
        <ele>50.058757</ele>
        <time>2022-05-06T09:34:39.551Z</time>
      </trkpt>
      <trkpt lat="41.36927" lon="19.53562">
        <ele>50.104182</ele>
        <time>2022-05-06T09:34:41.547Z</time>
      </trkpt>
      <trkpt lat="41.36917" lon="19.53565">
        <ele>50.150779</ele>
        <time>2022-05-06T09:34:43.550Z</time>
      </trkpt>
      <trkpt lat="41.36908" lon="19.53567">
        <ele>50.194108</ele>
        <time>2022-05-06T09:34:45.603Z</time>
      </trkpt>
      <trkpt lat="41.36899" lon="19.53569">
        <ele>50.238554</ele>
        <time>2022-05-06T09:34:47.555Z</time>
      </trkpt>
      <trkpt lat="41.3689" lon="19.53572">
        <ele>50.28112</ele>
        <time>2022-05-06T09:34:49.556Z</time>
      </trkpt>
      <trkpt lat="41.36881" lon="19.53574">
        <ele>50.323991</ele>
        <time>2022-05-06T09:34:51.588Z</time>
      </trkpt>
      <trkpt lat="41.36871" lon="19.53577">
        <ele>50.369082</ele>
        <time>2022-05-06T09:34:53.544Z</time>
      </trkpt>
      <trkpt lat="41.36862" lon="19.53579">
        <ele>50.412496</ele>
        <time>2022-05-06T09:34:55.553Z</time>
      </trkpt>
      <trkpt lat="41.36852" lon="19.53581">
        <ele>50.4589</ele>
        <time>2022-05-06T09:34:57.548Z</time>
      </trkpt>
      <trkpt lat="41.36843" lon="19.53583">
        <ele>50.503926</ele>
        <time>2022-05-06T09:34:59.559Z</time>
      </trkpt>
      <trkpt lat="41.36833" lon="19.53586">
        <ele>50.547711</ele>
        <time>2022-05-06T09:35:01.559Z</time>
      </trkpt>
      <trkpt lat="41.36824" lon="19.53589">
        <ele>50.582564</ele>
        <time>2022-05-06T09:35:03.559Z</time>
      </trkpt>
      <trkpt lat="41.36815" lon="19.53592">
        <ele>50.560905</ele>
        <time>2022-05-06T09:35:05.599Z</time>
      </trkpt>
      <trkpt lat="41.36805" lon="19.53596">
        <ele>50.54005</ele>
        <time>2022-05-06T09:35:07.561Z</time>
      </trkpt>
      <trkpt lat="41.36797" lon="19.53599">
        <ele>50.519781</ele>
        <time>2022-05-06T09:35:09.549Z</time>
      </trkpt>
      <trkpt lat="41.36788" lon="19.53603">
        <ele>50.499673</ele>
        <time>2022-05-06T09:35:11.552Z</time>
      </trkpt>
      <trkpt lat="41.36779" lon="19.53607">
        <ele>50.479615</ele>
        <time>2022-05-06T09:35:13.551Z</time>
      </trkpt>
      <trkpt lat="41.3677" lon="19.53611">
        <ele>50.459088</ele>
        <time>2022-05-06T09:35:15.544Z</time>
      </trkpt>
      <trkpt lat="41.36758" lon="19.53617">
        <ele>50.429364</ele>
        <time>2022-05-06T09:35:18.566Z</time>
      </trkpt>
      <trkpt lat="41.36749" lon="19.53621">
        <ele>50.408367</ele>
        <time>2022-05-06T09:35:20.582Z</time>
      </trkpt>
      <trkpt lat="41.3674" lon="19.53626">
        <ele>50.387963</ele>
        <time>2022-05-06T09:35:22.618Z</time>
      </trkpt>
      <trkpt lat="41.36731" lon="19.53631">
        <ele>50.36683</ele>
        <time>2022-05-06T09:35:24.552Z</time>
      </trkpt>
      <trkpt lat="41.36719" lon="19.53639">
        <ele>50.337015</ele>
        <time>2022-05-06T09:35:27.542Z</time>
      </trkpt>
      <trkpt lat="41.36711" lon="19.53645">
        <ele>50.316107</ele>
        <time>2022-05-06T09:35:29.552Z</time>
      </trkpt>
      <trkpt lat="41.367" lon="19.53654">
        <ele>50.287372</ele>
        <time>2022-05-06T09:35:32.550Z</time>
      </trkpt>
      <trkpt lat="41.36692" lon="19.5366">
        <ele>50.266911</ele>
        <time>2022-05-06T09:35:34.553Z</time>
      </trkpt>
      <trkpt lat="41.36684" lon="19.53666">
        <ele>50.246723</ele>
        <time>2022-05-06T09:35:36.543Z</time>
      </trkpt>
      <trkpt lat="41.36672" lon="19.53675">
        <ele>50.217631</ele>
        <time>2022-05-06T09:35:39.559Z</time>
      </trkpt>
      <trkpt lat="41.36663" lon="19.53682">
        <ele>50.194158</ele>
        <time>2022-05-06T09:35:43.566Z</time>
      </trkpt>
      <trkpt lat="41.36654" lon="19.53691">
        <ele>50.342811</ele>
        <time>2022-05-06T09:35:47.556Z</time>
      </trkpt>
      <trkpt lat="41.36644" lon="19.53698">
        <ele>50.532766</ele>
        <time>2022-05-06T09:35:50.555Z</time>
      </trkpt>
      <trkpt lat="41.36634" lon="19.53706">
        <ele>50.732709</ele>
        <time>2022-05-06T09:35:53.530Z</time>
      </trkpt>
      <trkpt lat="41.36624" lon="19.53714">
        <ele>50.929593</ele>
        <time>2022-05-06T09:35:56.541Z</time>
      </trkpt>
      <trkpt lat="41.36614" lon="19.53722">
        <ele>51.131623</ele>
        <time>2022-05-06T09:35:59.552Z</time>
      </trkpt>
      <trkpt lat="41.36603" lon="19.53731">
        <ele>51.339641</ele>
        <time>2022-05-06T09:36:02.573Z</time>
      </trkpt>
      <trkpt lat="41.36594" lon="19.53739">
        <ele>51.522365</ele>
        <time>2022-05-06T09:36:05.559Z</time>
      </trkpt>
      <trkpt lat="41.36583" lon="19.53748">
        <ele>51.742761</ele>
        <time>2022-05-06T09:36:08.552Z</time>
      </trkpt>
      <trkpt lat="41.36573" lon="19.53756">
        <ele>51.93598</ele>
        <time>2022-05-06T09:36:11.538Z</time>
      </trkpt>
      <trkpt lat="41.36564" lon="19.53763">
        <ele>52.114568</ele>
        <time>2022-05-06T09:36:14.556Z</time>
      </trkpt>
      <trkpt lat="41.36554" lon="19.5377">
        <ele>52.299558</ele>
        <time>2022-05-06T09:36:17.545Z</time>
      </trkpt>
      <trkpt lat="41.36543" lon="19.5378">
        <ele>52.51873</ele>
        <time>2022-05-06T09:36:20.559Z</time>
      </trkpt>
      <trkpt lat="41.36536" lon="19.53786">
        <ele>52.673448</ele>
        <time>2022-05-06T09:36:22.560Z</time>
      </trkpt>
      <trkpt lat="41.36528" lon="19.53793">
        <ele>52.830606</ele>
        <time>2022-05-06T09:36:24.556Z</time>
      </trkpt>
      <trkpt lat="41.36519" lon="19.53798">
        <ele>52.989773</ele>
        <time>2022-05-06T09:36:26.542Z</time>
      </trkpt>
      <trkpt lat="41.36511" lon="19.53805">
        <ele>53.151743</ele>
        <time>2022-05-06T09:36:28.547Z</time>
      </trkpt>
      <trkpt lat="41.36503" lon="19.53811">
        <ele>53.213623</ele>
        <time>2022-05-06T09:36:30.553Z</time>
      </trkpt>
      <trkpt lat="41.36495" lon="19.53818">
        <ele>53.209952</ele>
        <time>2022-05-06T09:36:32.559Z</time>
      </trkpt>
      <trkpt lat="41.36484" lon="19.53827">
        <ele>53.204665</ele>
        <time>2022-05-06T09:36:35.556Z</time>
      </trkpt>
      <trkpt lat="41.36474" lon="19.53835">
        <ele>53.199861</ele>
        <time>2022-05-06T09:36:38.555Z</time>
      </trkpt>
      <trkpt lat="41.36464" lon="19.53843">
        <ele>53.195526</ele>
        <time>2022-05-06T09:36:41.554Z</time>
      </trkpt>
      <trkpt lat="41.36457" lon="19.53849">
        <ele>53.191894</ele>
        <time>2022-05-06T09:36:44.555Z</time>
      </trkpt>
      <trkpt lat="41.36447" lon="19.53856">
        <ele>53.187272</ele>
        <time>2022-05-06T09:36:48.553Z</time>
      </trkpt>
      <trkpt lat="41.36437" lon="19.53863">
        <ele>53.18283</ele>
        <time>2022-05-06T09:36:51.546Z</time>
      </trkpt>
      <trkpt lat="41.36428" lon="19.53869">
        <ele>53.17896</ele>
        <time>2022-05-06T09:36:53.555Z</time>
      </trkpt>
      <trkpt lat="41.36419" lon="19.53877">
        <ele>53.174626</ele>
        <time>2022-05-06T09:36:55.549Z</time>
      </trkpt>
      <trkpt lat="41.3641" lon="19.53885">
        <ele>53.170242</ele>
        <time>2022-05-06T09:36:57.566Z</time>
      </trkpt>
      <trkpt lat="41.36402" lon="19.53891">
        <ele>53.166492</ele>
        <time>2022-05-06T09:36:59.557Z</time>
      </trkpt>
      <trkpt lat="41.36392" lon="19.53897">
        <ele>53.162076</ele>
        <time>2022-05-06T09:37:02.547Z</time>
      </trkpt>
      <trkpt lat="41.36382" lon="19.53906">
        <ele>53.157309</ele>
        <time>2022-05-06T09:37:06.565Z</time>
      </trkpt>
      <trkpt lat="41.36374" lon="19.53914">
        <ele>53.153193</ele>
        <time>2022-05-06T09:37:09.556Z</time>
      </trkpt>
      <trkpt lat="41.36363" lon="19.53923">
        <ele>53.148093</ele>
        <time>2022-05-06T09:37:12.552Z</time>
      </trkpt>
      <trkpt lat="41.36355" lon="19.5393">
        <ele>53.144427</ele>
        <time>2022-05-06T09:37:14.556Z</time>
      </trkpt>
      <trkpt lat="41.36347" lon="19.53936">
        <ele>53.159715</ele>
        <time>2022-05-06T09:37:16.555Z</time>
      </trkpt>
      <trkpt lat="41.36336" lon="19.53944">
        <ele>53.186664</ele>
        <time>2022-05-06T09:37:19.544Z</time>
      </trkpt>
      <trkpt lat="41.36324" lon="19.53951">
        <ele>53.213706</ele>
        <time>2022-05-06T09:37:22.548Z</time>
      </trkpt>
      <trkpt lat="41.36316" lon="19.53957">
        <ele>53.233079</ele>
        <time>2022-05-06T09:37:24.576Z</time>
      </trkpt>
      <trkpt lat="41.36305" lon="19.53966">
        <ele>53.261063</ele>
        <time>2022-05-06T09:37:27.533Z</time>
      </trkpt>
      <trkpt lat="41.36294" lon="19.53975">
        <ele>53.287758</ele>
        <time>2022-05-06T09:37:30.555Z</time>
      </trkpt>
      <trkpt lat="41.36283" lon="19.53984">
        <ele>53.315219</ele>
        <time>2022-05-06T09:37:33.559Z</time>
      </trkpt>
      <trkpt lat="41.36271" lon="19.53992">
        <ele>53.343004</ele>
        <time>2022-05-06T09:37:36.544Z</time>
      </trkpt>
      <trkpt lat="41.3626" lon="19.54001">
        <ele>53.370755</ele>
        <time>2022-05-06T09:37:39.540Z</time>
      </trkpt>
      <trkpt lat="41.36249" lon="19.5401">
        <ele>53.398455</ele>
        <time>2022-05-06T09:37:42.554Z</time>
      </trkpt>
      <trkpt lat="41.3624" lon="19.54015">
        <ele>53.417899</ele>
        <time>2022-05-06T09:37:44.546Z</time>
      </trkpt>
      <trkpt lat="41.36229" lon="19.54023">
        <ele>53.445766</ele>
        <time>2022-05-06T09:37:47.549Z</time>
      </trkpt>
      <trkpt lat="41.36217" lon="19.54031">
        <ele>53.473736</ele>
        <time>2022-05-06T09:37:50.566Z</time>
      </trkpt>
      <trkpt lat="41.36208" lon="19.54035">
        <ele>53.49388</ele>
        <time>2022-05-06T09:37:52.551Z</time>
      </trkpt>
      <trkpt lat="41.36199" lon="19.5404">
        <ele>53.514846</ele>
        <time>2022-05-06T09:37:54.583Z</time>
      </trkpt>
      <trkpt lat="41.3619" lon="19.54045">
        <ele>53.470733</ele>
        <time>2022-05-06T09:37:56.536Z</time>
      </trkpt>
      <trkpt lat="41.36178" lon="19.54054">
        <ele>53.343083</ele>
        <time>2022-05-06T09:37:59.558Z</time>
      </trkpt>
      <trkpt lat="41.36166" lon="19.54062">
        <ele>53.216338</ele>
        <time>2022-05-06T09:38:02.566Z</time>
      </trkpt>
      <trkpt lat="41.36154" lon="19.5407">
        <ele>53.091599</ele>
        <time>2022-05-06T09:38:05.548Z</time>
      </trkpt>
      <trkpt lat="41.36142" lon="19.54077">
        <ele>52.967167</ele>
        <time>2022-05-06T09:38:08.587Z</time>
      </trkpt>
      <trkpt lat="41.3613" lon="19.54084">
        <ele>52.845083</ele>
        <time>2022-05-06T09:38:11.553Z</time>
      </trkpt>
      <trkpt lat="41.36118" lon="19.54092">
        <ele>52.718559</ele>
        <time>2022-05-06T09:38:14.531Z</time>
      </trkpt>
      <trkpt lat="41.3611" lon="19.54097">
        <ele>52.632377</ele>
        <time>2022-05-06T09:38:16.548Z</time>
      </trkpt>
      <trkpt lat="41.36098" lon="19.54103">
        <ele>52.516274</ele>
        <time>2022-05-06T09:38:19.617Z</time>
      </trkpt>
      <trkpt lat="41.3609" lon="19.54111">
        <ele>52.421958</ele>
        <time>2022-05-06T09:38:25.535Z</time>
      </trkpt>
      <trkpt lat="41.36079" lon="19.54117">
        <ele>52.308909</ele>
        <time>2022-05-06T09:38:27.536Z</time>
      </trkpt>
      <trkpt lat="41.36067" lon="19.54125">
        <ele>52.184388</ele>
        <time>2022-05-06T09:38:29.554Z</time>
      </trkpt>
      <trkpt lat="41.36055" lon="19.54132">
        <ele>52.058572</ele>
        <time>2022-05-06T09:38:31.652Z</time>
      </trkpt>
      <trkpt lat="41.36044" lon="19.54139">
        <ele>51.941659</ele>
        <time>2022-05-06T09:38:33.561Z</time>
      </trkpt>
      <trkpt lat="41.36034" lon="19.54145">
        <ele>51.837955</ele>
        <time>2022-05-06T09:38:35.537Z</time>
      </trkpt>
      <trkpt lat="41.36024" lon="19.5415">
        <ele>51.874899</ele>
        <time>2022-05-06T09:38:37.556Z</time>
      </trkpt>
      <trkpt lat="41.36016" lon="19.54155">
        <ele>51.922735</ele>
        <time>2022-05-06T09:38:39.539Z</time>
      </trkpt>
      <trkpt lat="41.36004" lon="19.54162">
        <ele>51.990979</ele>
        <time>2022-05-06T09:38:42.550Z</time>
      </trkpt>
      <trkpt lat="41.35993" lon="19.54169">
        <ele>52.057287</ele>
        <time>2022-05-06T09:38:45.554Z</time>
      </trkpt>
      <trkpt lat="41.35981" lon="19.54176">
        <ele>52.12375</ele>
        <time>2022-05-06T09:38:48.547Z</time>
      </trkpt>
      <trkpt lat="41.35969" lon="19.54183">
        <ele>52.192776</ele>
        <time>2022-05-06T09:38:51.537Z</time>
      </trkpt>
      <trkpt lat="41.35957" lon="19.5419">
        <ele>52.262123</ele>
        <time>2022-05-06T09:38:54.539Z</time>
      </trkpt>
      <trkpt lat="41.35946" lon="19.54198">
        <ele>52.329246</ele>
        <time>2022-05-06T09:38:57.560Z</time>
      </trkpt>
      <trkpt lat="41.35935" lon="19.54204">
        <ele>52.39331</ele>
        <time>2022-05-06T09:39:00.531Z</time>
      </trkpt>
      <trkpt lat="41.35924" lon="19.54211">
        <ele>52.458645</ele>
        <time>2022-05-06T09:39:03.536Z</time>
      </trkpt>
      <trkpt lat="41.35913" lon="19.54218">
        <ele>52.521733</ele>
        <time>2022-05-06T09:39:06.538Z</time>
      </trkpt>
      <trkpt lat="41.35903" lon="19.54224">
        <ele>52.580003</ele>
        <time>2022-05-06T09:39:09.535Z</time>
      </trkpt>
      <trkpt lat="41.35893" lon="19.54229">
        <ele>52.633825</ele>
        <time>2022-05-06T09:39:12.547Z</time>
      </trkpt>
      <trkpt lat="41.35884" lon="19.54234">
        <ele>52.68552</ele>
        <time>2022-05-06T09:39:15.544Z</time>
      </trkpt>
      <trkpt lat="41.35876" lon="19.5424">
        <ele>52.732956</ele>
        <time>2022-05-06T09:39:18.537Z</time>
      </trkpt>
      <trkpt lat="41.35866" lon="19.54245">
        <ele>52.74307</ele>
        <time>2022-05-06T09:39:22.532Z</time>
      </trkpt>
      <trkpt lat="41.35856" lon="19.54253">
        <ele>52.62792</ele>
        <time>2022-05-06T09:39:26.566Z</time>
      </trkpt>
      <trkpt lat="41.35848" lon="19.54258">
        <ele>52.527014</ele>
        <time>2022-05-06T09:39:29.564Z</time>
      </trkpt>
      <trkpt lat="41.35838" lon="19.54263">
        <ele>52.423664</ele>
        <time>2022-05-06T09:39:32.560Z</time>
      </trkpt>
      <trkpt lat="41.35831" lon="19.54273">
        <ele>52.316793</ele>
        <time>2022-05-06T09:39:36.526Z</time>
      </trkpt>
      <trkpt lat="41.35842" lon="19.54269">
        <ele>52.196406</ele>
        <time>2022-05-06T09:39:42.527Z</time>
      </trkpt>
      <trkpt lat="41.35851" lon="19.54264">
        <ele>52.096465</ele>
        <time>2022-05-06T09:39:45.527Z</time>
      </trkpt>
      <trkpt lat="41.35861" lon="19.54258">
        <ele>51.978871</ele>
        <time>2022-05-06T09:39:48.543Z</time>
      </trkpt>
      <trkpt lat="41.35872" lon="19.54251">
        <ele>51.855871</ele>
        <time>2022-05-06T09:39:51.535Z</time>
      </trkpt>
      <trkpt lat="41.35883" lon="19.54243">
        <ele>51.728216</ele>
        <time>2022-05-06T09:39:54.515Z</time>
      </trkpt>
      <trkpt lat="41.35895" lon="19.54236">
        <ele>51.589517</ele>
        <time>2022-05-06T09:39:57.527Z</time>
      </trkpt>
      <trkpt lat="41.35907" lon="19.5423">
        <ele>51.457023</ele>
        <time>2022-05-06T09:40:00.523Z</time>
      </trkpt>
      <trkpt lat="41.35919" lon="19.54223">
        <ele>51.322079</ele>
        <time>2022-05-06T09:40:03.538Z</time>
      </trkpt>
      <trkpt lat="41.35931" lon="19.54216">
        <ele>51.183687</ele>
        <time>2022-05-06T09:40:06.522Z</time>
      </trkpt>
      <trkpt lat="41.35939" lon="19.5421">
        <ele>51.089043</ele>
        <time>2022-05-06T09:40:08.543Z</time>
      </trkpt>
      <trkpt lat="41.35948" lon="19.54205">
        <ele>50.995077</ele>
        <time>2022-05-06T09:40:10.546Z</time>
      </trkpt>
      <trkpt lat="41.35956" lon="19.542">
        <ele>50.929602</ele>
        <time>2022-05-06T09:40:12.525Z</time>
      </trkpt>
      <trkpt lat="41.35964" lon="19.54195">
        <ele>51.045755</ele>
        <time>2022-05-06T09:40:14.533Z</time>
      </trkpt>
      <trkpt lat="41.35976" lon="19.54187">
        <ele>51.217362</ele>
        <time>2022-05-06T09:40:17.542Z</time>
      </trkpt>
      <trkpt lat="41.35985" lon="19.54183">
        <ele>51.334649</ele>
        <time>2022-05-06T09:40:19.614Z</time>
      </trkpt>
      <trkpt lat="41.35997" lon="19.54175">
        <ele>51.502771</ele>
        <time>2022-05-06T09:40:22.544Z</time>
      </trkpt>
      <trkpt lat="41.36008" lon="19.54168">
        <ele>51.657721</ele>
        <time>2022-05-06T09:40:25.550Z</time>
      </trkpt>
      <trkpt lat="41.36017" lon="19.54165">
        <ele>51.780376</ele>
        <time>2022-05-06T09:40:28.548Z</time>
      </trkpt>
      <trkpt lat="41.36023" lon="19.54177">
        <ele>51.914501</ele>
        <time>2022-05-06T09:40:31.525Z</time>
      </trkpt>
      <trkpt lat="41.36024" lon="19.54193">
        <ele>52.073339</ele>
        <time>2022-05-06T09:40:34.546Z</time>
      </trkpt>
      <trkpt lat="41.36028" lon="19.54209">
        <ele>52.226191</ele>
        <time>2022-05-06T09:40:37.543Z</time>
      </trkpt>
      <trkpt lat="41.36032" lon="19.54225">
        <ele>52.385693</ele>
        <time>2022-05-06T09:40:40.549Z</time>
      </trkpt>
      <trkpt lat="41.36035" lon="19.54239">
        <ele>52.533595</ele>
        <time>2022-05-06T09:40:43.546Z</time>
      </trkpt>
      <trkpt lat="41.36037" lon="19.54256">
        <ele>52.694201</ele>
        <time>2022-05-06T09:40:46.529Z</time>
      </trkpt>
      <trkpt lat="41.36041" lon="19.54273">
        <ele>52.863093</ele>
        <time>2022-05-06T09:40:49.556Z</time>
      </trkpt>
      <trkpt lat="41.36044" lon="19.5429">
        <ele>53.030793</ele>
        <time>2022-05-06T09:40:52.539Z</time>
      </trkpt>
      <trkpt lat="41.36048" lon="19.54306">
        <ele>53.193322</ele>
        <time>2022-05-06T09:40:55.552Z</time>
      </trkpt>
      <trkpt lat="41.36051" lon="19.54321">
        <ele>53.235776</ele>
        <time>2022-05-06T09:40:58.544Z</time>
      </trkpt>
      <trkpt lat="41.36053" lon="19.54335">
        <ele>53.266459</ele>
        <time>2022-05-06T09:41:01.543Z</time>
      </trkpt>
      <trkpt lat="41.36056" lon="19.5435">
        <ele>53.298814</ele>
        <time>2022-05-06T09:41:04.575Z</time>
      </trkpt>
      <trkpt lat="41.36059" lon="19.54365">
        <ele>53.331303</ele>
        <time>2022-05-06T09:41:07.546Z</time>
      </trkpt>
      <trkpt lat="41.36061" lon="19.54379">
        <ele>53.362298</ele>
        <time>2022-05-06T09:41:10.535Z</time>
      </trkpt>
      <trkpt lat="41.36065" lon="19.54394">
        <ele>53.395164</ele>
        <time>2022-05-06T09:41:13.567Z</time>
      </trkpt>
      <trkpt lat="41.36069" lon="19.54409">
        <ele>53.428031</ele>
        <time>2022-05-06T09:41:16.532Z</time>
      </trkpt>
      <trkpt lat="41.36072" lon="19.54424">
        <ele>53.4612</ele>
        <time>2022-05-06T09:41:19.535Z</time>
      </trkpt>
      <trkpt lat="41.36075" lon="19.54439">
        <ele>53.493027</ele>
        <time>2022-05-06T09:41:22.555Z</time>
      </trkpt>
      <trkpt lat="41.36078" lon="19.54455">
        <ele>53.527624</ele>
        <time>2022-05-06T09:41:25.546Z</time>
      </trkpt>
      <trkpt lat="41.36079" lon="19.5447">
        <ele>53.560407</ele>
        <time>2022-05-06T09:41:28.536Z</time>
      </trkpt>
      <trkpt lat="41.36079" lon="19.54486">
        <ele>53.592148</ele>
        <time>2022-05-06T09:41:31.551Z</time>
      </trkpt>
      <trkpt lat="41.3608" lon="19.54502">
        <ele>53.625836</ele>
        <time>2022-05-06T09:41:34.558Z</time>
      </trkpt>
      <trkpt lat="41.36082" lon="19.54518">
        <ele>53.661268</ele>
        <time>2022-05-06T09:41:37.528Z</time>
      </trkpt>
      <trkpt lat="41.36083" lon="19.5453">
        <ele>53.686714</ele>
        <time>2022-05-06T09:41:39.544Z</time>
      </trkpt>
      <trkpt lat="41.36085" lon="19.54548">
        <ele>53.704722</ele>
        <time>2022-05-06T09:41:42.524Z</time>
      </trkpt>
      <trkpt lat="41.36087" lon="19.54565">
        <ele>53.691246</ele>
        <time>2022-05-06T09:41:45.526Z</time>
      </trkpt>
      <trkpt lat="41.36089" lon="19.54581">
        <ele>53.677849</ele>
        <time>2022-05-06T09:41:48.547Z</time>
      </trkpt>
      <trkpt lat="41.3609" lon="19.54598">
        <ele>53.664269</ele>
        <time>2022-05-06T09:41:51.528Z</time>
      </trkpt>
      <trkpt lat="41.36091" lon="19.54615">
        <ele>53.651261</ele>
        <time>2022-05-06T09:41:54.597Z</time>
      </trkpt>
      <trkpt lat="41.36091" lon="19.54631">
        <ele>53.638347</ele>
        <time>2022-05-06T09:41:57.525Z</time>
      </trkpt>
      <trkpt lat="41.3609" lon="19.54648">
        <ele>53.624715</ele>
        <time>2022-05-06T09:42:00.592Z</time>
      </trkpt>
      <trkpt lat="41.36091" lon="19.54665">
        <ele>53.611157</ele>
        <time>2022-05-06T09:42:03.536Z</time>
      </trkpt>
      <trkpt lat="41.36091" lon="19.54681">
        <ele>53.598399</ele>
        <time>2022-05-06T09:42:06.533Z</time>
      </trkpt>
      <trkpt lat="41.36088" lon="19.54697">
        <ele>53.586037</ele>
        <time>2022-05-06T09:42:09.547Z</time>
      </trkpt>
      <trkpt lat="41.36086" lon="19.54713">
        <ele>53.57279</ele>
        <time>2022-05-06T09:42:12.546Z</time>
      </trkpt>
      <trkpt lat="41.36084" lon="19.54725">
        <ele>53.562882</ele>
        <time>2022-05-06T09:42:14.543Z</time>
      </trkpt>
      <trkpt lat="41.36082" lon="19.54738">
        <ele>53.552711</ele>
        <time>2022-05-06T09:42:16.552Z</time>
      </trkpt>
      <trkpt lat="41.36079" lon="19.54749">
        <ele>53.542991</ele>
        <time>2022-05-06T09:42:18.545Z</time>
      </trkpt>
      <trkpt lat="41.36075" lon="19.54767">
        <ele>53.528664</ele>
        <time>2022-05-06T09:42:21.538Z</time>
      </trkpt>
      <trkpt lat="41.36071" lon="19.54783">
        <ele>53.567277</ele>
        <time>2022-05-06T09:42:24.553Z</time>
      </trkpt>
      <trkpt lat="41.36068" lon="19.54799">
        <ele>53.677275</ele>
        <time>2022-05-06T09:42:27.547Z</time>
      </trkpt>
      <trkpt lat="41.36064" lon="19.54813">
        <ele>53.783512</ele>
        <time>2022-05-06T09:42:30.535Z</time>
      </trkpt>
      <trkpt lat="41.36059" lon="19.54829">
        <ele>53.901531</ele>
        <time>2022-05-06T09:42:33.533Z</time>
      </trkpt>
      <trkpt lat="41.36057" lon="19.54841">
        <ele>53.9853</ele>
        <time>2022-05-06T09:42:35.547Z</time>
      </trkpt>
      <trkpt lat="41.36055" lon="19.54857">
        <ele>54.09815</ele>
        <time>2022-05-06T09:42:38.615Z</time>
      </trkpt>
      <trkpt lat="41.36052" lon="19.54873">
        <ele>54.216883</ele>
        <time>2022-05-06T09:42:41.523Z</time>
      </trkpt>
      <trkpt lat="41.36049" lon="19.5489">
        <ele>54.336332</ele>
        <time>2022-05-06T09:42:44.536Z</time>
      </trkpt>
      <trkpt lat="41.36048" lon="19.54903">
        <ele>54.428455</ele>
        <time>2022-05-06T09:42:47.534Z</time>
      </trkpt>
      <trkpt lat="41.36045" lon="19.54916">
        <ele>54.521161</ele>
        <time>2022-05-06T09:42:58.535Z</time>
      </trkpt>
      <trkpt lat="41.36054" lon="19.54922">
        <ele>54.605749</ele>
        <time>2022-05-06T09:43:02.545Z</time>
      </trkpt>
      <trkpt lat="41.36064" lon="19.54921">
        <ele>54.705684</ele>
        <time>2022-05-06T09:43:06.583Z</time>
      </trkpt>
      <trkpt lat="41.36075" lon="19.54921">
        <ele>54.802824</ele>
        <time>2022-05-06T09:43:10.607Z</time>
      </trkpt>
      <trkpt lat="41.36086" lon="19.5492">
        <ele>54.909398</ele>
        <time>2022-05-06T09:43:14.543Z</time>
      </trkpt>
      <trkpt lat="41.36096" lon="19.54919">
        <ele>54.995502</ele>
        <time>2022-05-06T09:43:17.536Z</time>
      </trkpt>
      <trkpt lat="41.36106" lon="19.54919">
        <ele>55.089869</ele>
        <time>2022-05-06T09:43:20.556Z</time>
      </trkpt>
      <trkpt lat="41.36117" lon="19.54919">
        <ele>55.190643</ele>
        <time>2022-05-06T09:43:23.584Z</time>
      </trkpt>
      <trkpt lat="41.36129" lon="19.54919">
        <ele>55.276972</ele>
        <time>2022-05-06T09:43:26.541Z</time>
      </trkpt>
      <trkpt lat="41.36141" lon="19.54921">
        <ele>55.364198</ele>
        <time>2022-05-06T09:43:29.546Z</time>
      </trkpt>
      <trkpt lat="41.3615" lon="19.54921">
        <ele>55.431652</ele>
        <time>2022-05-06T09:43:31.544Z</time>
      </trkpt>
      <trkpt lat="41.36159" lon="19.54922">
        <ele>55.501197</ele>
        <time>2022-05-06T09:43:33.544Z</time>
      </trkpt>
      <trkpt lat="41.36169" lon="19.54923">
        <ele>55.573641</ele>
        <time>2022-05-06T09:43:35.546Z</time>
      </trkpt>
      <trkpt lat="41.36179" lon="19.54923">
        <ele>55.642456</ele>
        <time>2022-05-06T09:43:37.539Z</time>
      </trkpt>
      <trkpt lat="41.36189" lon="19.54924">
        <ele>55.714881</ele>
        <time>2022-05-06T09:43:39.588Z</time>
      </trkpt>
      <trkpt lat="41.36198" lon="19.54925">
        <ele>55.783881</ele>
        <time>2022-05-06T09:43:41.540Z</time>
      </trkpt>
      <trkpt lat="41.36207" lon="19.54925">
        <ele>55.852637</ele>
        <time>2022-05-06T09:43:43.564Z</time>
      </trkpt>
      <trkpt lat="41.36217" lon="19.54925">
        <ele>55.922106</ele>
        <time>2022-05-06T09:43:45.552Z</time>
      </trkpt>
      <trkpt lat="41.36227" lon="19.54926">
        <ele>55.998251</ele>
        <time>2022-05-06T09:43:47.548Z</time>
      </trkpt>
      <trkpt lat="41.36238" lon="19.54928">
        <ele>56.075811</ele>
        <time>2022-05-06T09:43:49.527Z</time>
      </trkpt>
      <trkpt lat="41.36249" lon="19.5493">
        <ele>56.156509</ele>
        <time>2022-05-06T09:43:51.537Z</time>
      </trkpt>
      <trkpt lat="41.3626" lon="19.54934">
        <ele>56.237784</ele>
        <time>2022-05-06T09:43:53.533Z</time>
      </trkpt>
      <trkpt lat="41.3627" lon="19.54938">
        <ele>56.320909</ele>
        <time>2022-05-06T09:43:55.536Z</time>
      </trkpt>
      <trkpt lat="41.36281" lon="19.54942">
        <ele>56.398658</ele>
        <time>2022-05-06T09:43:57.531Z</time>
      </trkpt>
      <trkpt lat="41.3629" lon="19.54947">
        <ele>56.474436</ele>
        <time>2022-05-06T09:43:59.543Z</time>
      </trkpt>
      <trkpt lat="41.363" lon="19.54953">
        <ele>56.365239</ele>
        <time>2022-05-06T09:44:01.532Z</time>
      </trkpt>
      <trkpt lat="41.3631" lon="19.54959">
        <ele>56.181571</ele>
        <time>2022-05-06T09:44:03.546Z</time>
      </trkpt>
      <trkpt lat="41.36319" lon="19.54966">
        <ele>56.001553</ele>
        <time>2022-05-06T09:44:05.533Z</time>
      </trkpt>
      <trkpt lat="41.36327" lon="19.54974">
        <ele>55.831356</ele>
        <time>2022-05-06T09:44:07.582Z</time>
      </trkpt>
      <trkpt lat="41.36335" lon="19.54981">
        <ele>55.658276</ele>
        <time>2022-05-06T09:44:09.548Z</time>
      </trkpt>
      <trkpt lat="41.36343" lon="19.54989">
        <ele>55.482213</ele>
        <time>2022-05-06T09:44:11.526Z</time>
      </trkpt>
      <trkpt lat="41.36351" lon="19.54997">
        <ele>55.309565</ele>
        <time>2022-05-06T09:44:13.523Z</time>
      </trkpt>
      <trkpt lat="41.36359" lon="19.55005">
        <ele>55.137757</ele>
        <time>2022-05-06T09:44:15.579Z</time>
      </trkpt>
      <trkpt lat="41.36366" lon="19.55013">
        <ele>54.969457</ele>
        <time>2022-05-06T09:44:17.540Z</time>
      </trkpt>
      <trkpt lat="41.36375" lon="19.55024">
        <ele>54.75696</ele>
        <time>2022-05-06T09:44:20.546Z</time>
      </trkpt>
      <trkpt lat="41.36385" lon="19.55035">
        <ele>54.541849</ele>
        <time>2022-05-06T09:44:23.535Z</time>
      </trkpt>
      <trkpt lat="41.36392" lon="19.55043">
        <ele>54.378732</ele>
        <time>2022-05-06T09:44:25.535Z</time>
      </trkpt>
      <trkpt lat="41.364" lon="19.55051">
        <ele>54.206406</ele>
        <time>2022-05-06T09:44:27.544Z</time>
      </trkpt>
      <trkpt lat="41.36408" lon="19.5506">
        <ele>54.023733</ele>
        <time>2022-05-06T09:44:29.529Z</time>
      </trkpt>
      <trkpt lat="41.36415" lon="19.55068">
        <ele>53.851407</ele>
        <time>2022-05-06T09:44:31.533Z</time>
      </trkpt>
      <trkpt lat="41.36423" lon="19.55077">
        <ele>53.680712</ele>
        <time>2022-05-06T09:44:33.542Z</time>
      </trkpt>
      <trkpt lat="41.3643" lon="19.55085">
        <ele>53.518093</ele>
        <time>2022-05-06T09:44:35.525Z</time>
      </trkpt>
      <trkpt lat="41.36437" lon="19.55093">
        <ele>53.37645</ele>
        <time>2022-05-06T09:44:37.534Z</time>
      </trkpt>
      <trkpt lat="41.36443" lon="19.55102">
        <ele>53.478751</ele>
        <time>2022-05-06T09:44:39.548Z</time>
      </trkpt>
      <trkpt lat="41.3645" lon="19.5511">
        <ele>53.579915</ele>
        <time>2022-05-06T09:44:41.550Z</time>
      </trkpt>
      <trkpt lat="41.36457" lon="19.55117">
        <ele>53.678936</ele>
        <time>2022-05-06T09:44:43.535Z</time>
      </trkpt>
      <trkpt lat="41.36467" lon="19.55129">
        <ele>53.827834</ele>
        <time>2022-05-06T09:44:46.550Z</time>
      </trkpt>
      <trkpt lat="41.36475" lon="19.55137">
        <ele>53.932318</ele>
        <time>2022-05-06T09:44:48.540Z</time>
      </trkpt>
      <trkpt lat="41.36482" lon="19.55145">
        <ele>54.036801</ele>
        <time>2022-05-06T09:44:50.532Z</time>
      </trkpt>
      <trkpt lat="41.36489" lon="19.55153">
        <ele>54.139898</ele>
        <time>2022-05-06T09:44:52.543Z</time>
      </trkpt>
      <trkpt lat="41.36498" lon="19.55165">
        <ele>54.288802</ele>
        <time>2022-05-06T09:44:55.549Z</time>
      </trkpt>
      <trkpt lat="41.36507" lon="19.55178">
        <ele>54.432167</ele>
        <time>2022-05-06T09:44:58.534Z</time>
      </trkpt>
      <trkpt lat="41.36516" lon="19.55191">
        <ele>54.577238</ele>
        <time>2022-05-06T09:45:01.543Z</time>
      </trkpt>
      <trkpt lat="41.36524" lon="19.55204">
        <ele>54.719602</ele>
        <time>2022-05-06T09:45:04.552Z</time>
      </trkpt>
      <trkpt lat="41.36531" lon="19.55215">
        <ele>54.838443</ele>
        <time>2022-05-06T09:45:07.537Z</time>
      </trkpt>
      <trkpt lat="41.36537" lon="19.55227">
        <ele>54.965269</ele>
        <time>2022-05-06T09:45:10.539Z</time>
      </trkpt>
      <trkpt lat="41.36542" lon="19.55238">
        <ele>55.067044</ele>
        <time>2022-05-06T09:45:12.534Z</time>
      </trkpt>
      <trkpt lat="41.36547" lon="19.55248">
        <ele>55.169332</ele>
        <time>2022-05-06T09:45:14.568Z</time>
      </trkpt>
      <trkpt lat="41.36552" lon="19.55259">
        <ele>55.274244</ele>
        <time>2022-05-06T09:45:16.549Z</time>
      </trkpt>
      <trkpt lat="41.36557" lon="19.55269">
        <ele>55.388712</ele>
        <time>2022-05-06T09:45:18.545Z</time>
      </trkpt>
      <trkpt lat="41.36563" lon="19.55279">
        <ele>55.593333</ele>
        <time>2022-05-06T09:45:20.533Z</time>
      </trkpt>
      <trkpt lat="41.3657" lon="19.55294">
        <ele>55.885447</ele>
        <time>2022-05-06T09:45:23.549Z</time>
      </trkpt>
      <trkpt lat="41.36576" lon="19.55308">
        <ele>56.154523</ele>
        <time>2022-05-06T09:45:26.535Z</time>
      </trkpt>
      <trkpt lat="41.36582" lon="19.55321">
        <ele>56.393696</ele>
        <time>2022-05-06T09:45:29.524Z</time>
      </trkpt>
      <trkpt lat="41.36586" lon="19.55333">
        <ele>56.614818</ele>
        <time>2022-05-06T09:45:32.552Z</time>
      </trkpt>
      <trkpt lat="41.3659" lon="19.55344">
        <ele>56.82219</ele>
        <time>2022-05-06T09:45:35.555Z</time>
      </trkpt>
      <trkpt lat="41.36595" lon="19.55355">
        <ele>57.030571</ele>
        <time>2022-05-06T09:45:38.520Z</time>
      </trkpt>
      <trkpt lat="41.36599" lon="19.55366">
        <ele>57.232095</ele>
        <time>2022-05-06T09:45:41.546Z</time>
      </trkpt>
      <trkpt lat="41.36604" lon="19.55379">
        <ele>57.468069</ele>
        <time>2022-05-06T09:45:45.534Z</time>
      </trkpt>
      <trkpt lat="41.3661" lon="19.55391">
        <ele>57.70575</ele>
        <time>2022-05-06T09:45:49.535Z</time>
      </trkpt>
      <trkpt lat="41.36616" lon="19.55404">
        <ele>57.953357</ele>
        <time>2022-05-06T09:45:53.539Z</time>
      </trkpt>
      <trkpt lat="41.36621" lon="19.55416">
        <ele>58.18211</ele>
        <time>2022-05-06T09:45:57.526Z</time>
      </trkpt>
      <trkpt lat="41.36627" lon="19.55428">
        <ele>58.42066</ele>
        <time>2022-05-06T09:46:01.542Z</time>
      </trkpt>
      <trkpt lat="41.36633" lon="19.5544">
        <ele>58.663675</ele>
        <time>2022-05-06T09:46:05.533Z</time>
      </trkpt>
      <trkpt lat="41.36637" lon="19.55451">
        <ele>58.860129</ele>
        <time>2022-05-06T09:46:08.535Z</time>
      </trkpt>
      <trkpt lat="41.36644" lon="19.55464">
        <ele>59.116593</ele>
        <time>2022-05-06T09:46:12.548Z</time>
      </trkpt>
      <trkpt lat="41.36648" lon="19.55475">
        <ele>59.320469</ele>
        <time>2022-05-06T09:46:15.539Z</time>
      </trkpt>
      <trkpt lat="41.36654" lon="19.55487">
        <ele>59.339074</ele>
        <time>2022-05-06T09:46:18.550Z</time>
      </trkpt>
      <trkpt lat="41.3666" lon="19.555">
        <ele>59.358787</ele>
        <time>2022-05-06T09:46:21.543Z</time>
      </trkpt>
      <trkpt lat="41.36665" lon="19.55514">
        <ele>59.379293</ele>
        <time>2022-05-06T09:46:24.539Z</time>
      </trkpt>
      <trkpt lat="41.36671" lon="19.55528">
        <ele>59.400897</ele>
        <time>2022-05-06T09:46:27.583Z</time>
      </trkpt>
      <trkpt lat="41.36676" lon="19.55542">
        <ele>59.42187</ele>
        <time>2022-05-06T09:46:30.551Z</time>
      </trkpt>
      <trkpt lat="41.36681" lon="19.55555">
        <ele>59.44115</ele>
        <time>2022-05-06T09:46:33.578Z</time>
      </trkpt>
      <trkpt lat="41.36687" lon="19.55568">
        <ele>59.460992</ele>
        <time>2022-05-06T09:46:36.537Z</time>
      </trkpt>
      <trkpt lat="41.36693" lon="19.55581">
        <ele>59.480944</ele>
        <time>2022-05-06T09:46:39.536Z</time>
      </trkpt>
      <trkpt lat="41.36699" lon="19.55592">
        <ele>59.498736</ele>
        <time>2022-05-06T09:46:42.540Z</time>
      </trkpt>
      <trkpt lat="41.36703" lon="19.55605">
        <ele>59.517871</ele>
        <time>2022-05-06T09:46:45.550Z</time>
      </trkpt>
      <trkpt lat="41.36709" lon="19.5562">
        <ele>59.540072</ele>
        <time>2022-05-06T09:46:48.538Z</time>
      </trkpt>
      <trkpt lat="41.36716" lon="19.55635">
        <ele>59.563105</ele>
        <time>2022-05-06T09:46:51.549Z</time>
      </trkpt>
      <trkpt lat="41.3672" lon="19.55646">
        <ele>59.579079</ele>
        <time>2022-05-06T09:46:53.522Z</time>
      </trkpt>
      <trkpt lat="41.36724" lon="19.55657">
        <ele>59.595881</ele>
        <time>2022-05-06T09:46:55.605Z</time>
      </trkpt>
      <trkpt lat="41.36728" lon="19.55669">
        <ele>59.612405</ele>
        <time>2022-05-06T09:46:57.540Z</time>
      </trkpt>
      <trkpt lat="41.36732" lon="19.5568">
        <ele>59.629352</ele>
        <time>2022-05-06T09:46:59.555Z</time>
      </trkpt>
      <trkpt lat="41.36736" lon="19.55692">
        <ele>59.658997</ele>
        <time>2022-05-06T09:47:01.549Z</time>
      </trkpt>
      <trkpt lat="41.36739" lon="19.55705">
        <ele>59.695505</ele>
        <time>2022-05-06T09:47:03.537Z</time>
      </trkpt>
      <trkpt lat="41.36743" lon="19.55717">
        <ele>59.732148</ele>
        <time>2022-05-06T09:47:05.549Z</time>
      </trkpt>
      <trkpt lat="41.36746" lon="19.55729">
        <ele>59.768424</ele>
        <time>2022-05-06T09:47:07.543Z</time>
      </trkpt>
      <trkpt lat="41.36751" lon="19.55745">
        <ele>59.817919</ele>
        <time>2022-05-06T09:47:10.535Z</time>
      </trkpt>
      <trkpt lat="41.36755" lon="19.55761">
        <ele>59.866081</ele>
        <time>2022-05-06T09:47:13.535Z</time>
      </trkpt>
      <trkpt lat="41.36759" lon="19.55777">
        <ele>59.912542</ele>
        <time>2022-05-06T09:47:16.532Z</time>
      </trkpt>
      <trkpt lat="41.36762" lon="19.55792">
        <ele>59.956584</ele>
        <time>2022-05-06T09:47:19.538Z</time>
      </trkpt>
      <trkpt lat="41.36764" lon="19.55806">
        <ele>59.996925</ele>
        <time>2022-05-06T09:47:22.533Z</time>
      </trkpt>
      <trkpt lat="41.36765" lon="19.55819">
        <ele>60.034148</ele>
        <time>2022-05-06T09:47:25.536Z</time>
      </trkpt>
      <trkpt lat="41.36768" lon="19.55833">
        <ele>60.073459</ele>
        <time>2022-05-06T09:47:28.539Z</time>
      </trkpt>
      <trkpt lat="41.3677" lon="19.55845">
        <ele>60.108666</ele>
        <time>2022-05-06T09:47:30.544Z</time>
      </trkpt>
      <trkpt lat="41.36771" lon="19.55858">
        <ele>60.147131</ele>
        <time>2022-05-06T09:47:32.527Z</time>
      </trkpt>
      <trkpt lat="41.36774" lon="19.55872">
        <ele>60.186442</ele>
        <time>2022-05-06T09:47:34.540Z</time>
      </trkpt>
      <trkpt lat="41.36775" lon="19.55885">
        <ele>60.223587</ele>
        <time>2022-05-06T09:47:36.548Z</time>
      </trkpt>
      <trkpt lat="41.36777" lon="19.55898">
        <ele>60.263024</ele>
        <time>2022-05-06T09:47:38.541Z</time>
      </trkpt>
      <trkpt lat="41.3678" lon="19.55913">
        <ele>60.304196</ele>
        <time>2022-05-06T09:47:40.539Z</time>
      </trkpt>
      <trkpt lat="41.36782" lon="19.55928">
        <ele>59.970699</ele>
        <time>2022-05-06T09:47:42.551Z</time>
      </trkpt>
      <trkpt lat="41.36784" lon="19.55945">
        <ele>59.502611</ele>
        <time>2022-05-06T09:47:44.552Z</time>
      </trkpt>
      <trkpt lat="41.36786" lon="19.55961">
        <ele>59.048684</ele>
        <time>2022-05-06T09:47:46.547Z</time>
      </trkpt>
      <trkpt lat="41.36788" lon="19.55979">
        <ele>58.55629</ele>
        <time>2022-05-06T09:47:48.552Z</time>
      </trkpt>
      <trkpt lat="41.36791" lon="19.55997">
        <ele>58.040365</ele>
        <time>2022-05-06T09:47:50.571Z</time>
      </trkpt>
      <trkpt lat="41.36794" lon="19.56016">
        <ele>57.512877</ele>
        <time>2022-05-06T09:47:52.527Z</time>
      </trkpt>
      <trkpt lat="41.36795" lon="19.56035">
        <ele>56.993665</ele>
        <time>2022-05-06T09:47:54.547Z</time>
      </trkpt>
      <trkpt lat="41.36794" lon="19.56052">
        <ele>56.527682</ele>
        <time>2022-05-06T09:47:56.535Z</time>
      </trkpt>
      <trkpt lat="41.36791" lon="19.56068">
        <ele>56.072953</ele>
        <time>2022-05-06T09:47:58.546Z</time>
      </trkpt>
      <trkpt lat="41.36788" lon="19.56084">
        <ele>55.617293</ele>
        <time>2022-05-06T09:48:00.537Z</time>
      </trkpt>
      <trkpt lat="41.36785" lon="19.561">
        <ele>55.149387</ele>
        <time>2022-05-06T09:48:02.538Z</time>
      </trkpt>
      <trkpt lat="41.36783" lon="19.56116">
        <ele>54.700386</ele>
        <time>2022-05-06T09:48:04.546Z</time>
      </trkpt>
      <trkpt lat="41.3678" lon="19.56132">
        <ele>54.266012</ele>
        <time>2022-05-06T09:48:06.554Z</time>
      </trkpt>
      <trkpt lat="41.36777" lon="19.56147">
        <ele>53.832186</ele>
        <time>2022-05-06T09:48:08.535Z</time>
      </trkpt>
      <trkpt lat="41.36773" lon="19.56162">
        <ele>53.657824</ele>
        <time>2022-05-06T09:48:10.529Z</time>
      </trkpt>
      <trkpt lat="41.36769" lon="19.56176">
        <ele>53.577306</ele>
        <time>2022-05-06T09:48:12.534Z</time>
      </trkpt>
      <trkpt lat="41.36765" lon="19.56189">
        <ele>53.500764</ele>
        <time>2022-05-06T09:48:14.540Z</time>
      </trkpt>
      <trkpt lat="41.36762" lon="19.56201">
        <ele>53.431923</ele>
        <time>2022-05-06T09:48:16.531Z</time>
      </trkpt>
      <trkpt lat="41.36758" lon="19.56213">
        <ele>53.366265</ele>
        <time>2022-05-06T09:48:18.538Z</time>
      </trkpt>
      <trkpt lat="41.36754" lon="19.56229">
        <ele>53.276055</ele>
        <time>2022-05-06T09:48:21.538Z</time>
      </trkpt>
      <trkpt lat="41.36749" lon="19.56244">
        <ele>53.189118</ele>
        <time>2022-05-06T09:48:24.543Z</time>
      </trkpt>
      <trkpt lat="41.36743" lon="19.56258">
        <ele>53.101584</ele>
        <time>2022-05-06T09:48:27.537Z</time>
      </trkpt>
      <trkpt lat="41.36739" lon="19.56274">
        <ele>53.01355</ele>
        <time>2022-05-06T09:48:30.525Z</time>
      </trkpt>
      <trkpt lat="41.36734" lon="19.5629">
        <ele>52.923061</ele>
        <time>2022-05-06T09:48:33.538Z</time>
      </trkpt>
      <trkpt lat="41.36729" lon="19.56305">
        <ele>52.834537</ele>
        <time>2022-05-06T09:48:36.560Z</time>
      </trkpt>
      <trkpt lat="41.36725" lon="19.5632">
        <ele>52.749545</ele>
        <time>2022-05-06T09:48:39.526Z</time>
      </trkpt>
      <trkpt lat="41.36721" lon="19.56333">
        <ele>52.673722</ele>
        <time>2022-05-06T09:48:42.542Z</time>
      </trkpt>
      <trkpt lat="41.36716" lon="19.5635">
        <ele>52.577955</ele>
        <time>2022-05-06T09:48:45.539Z</time>
      </trkpt>
      <trkpt lat="41.36712" lon="19.56361">
        <ele>52.513761</ele>
        <time>2022-05-06T09:48:47.546Z</time>
      </trkpt>
      <trkpt lat="41.36709" lon="19.56373">
        <ele>52.447825</ele>
        <time>2022-05-06T09:48:49.536Z</time>
      </trkpt>
      <trkpt lat="41.36705" lon="19.56384">
        <ele>52.566438</ele>
        <time>2022-05-06T09:48:51.531Z</time>
      </trkpt>
      <trkpt lat="41.36701" lon="19.56396">
        <ele>52.691744</ele>
        <time>2022-05-06T09:48:53.538Z</time>
      </trkpt>
      <trkpt lat="41.36698" lon="19.56407">
        <ele>52.811793</ele>
        <time>2022-05-06T09:48:55.535Z</time>
      </trkpt>
      <trkpt lat="41.36695" lon="19.56419">
        <ele>52.931842</ele>
        <time>2022-05-06T09:48:57.538Z</time>
      </trkpt>
      <trkpt lat="41.36691" lon="19.5643">
        <ele>53.051098</ele>
        <time>2022-05-06T09:48:59.522Z</time>
      </trkpt>
      <trkpt lat="41.36688" lon="19.56441">
        <ele>53.168944</ele>
        <time>2022-05-06T09:49:01.590Z</time>
      </trkpt>
      <trkpt lat="41.36684" lon="19.56453">
        <ele>53.288539</ele>
        <time>2022-05-06T09:49:03.545Z</time>
      </trkpt>
      <trkpt lat="41.3668" lon="19.56464">
        <ele>53.410278</ele>
        <time>2022-05-06T09:49:05.535Z</time>
      </trkpt>
      <trkpt lat="41.36676" lon="19.56475">
        <ele>53.53458</ele>
        <time>2022-05-06T09:49:07.548Z</time>
      </trkpt>
      <trkpt lat="41.36673" lon="19.56487">
        <ele>53.657445</ele>
        <time>2022-05-06T09:49:09.545Z</time>
      </trkpt>
      <trkpt lat="41.36669" lon="19.56498">
        <ele>53.77891</ele>
        <time>2022-05-06T09:49:11.547Z</time>
      </trkpt>
      <trkpt lat="41.36666" lon="19.5651">
        <ele>53.904012</ele>
        <time>2022-05-06T09:49:13.532Z</time>
      </trkpt>
      <trkpt lat="41.36662" lon="19.56522">
        <ele>54.03009</ele>
        <time>2022-05-06T09:49:15.566Z</time>
      </trkpt>
      <trkpt lat="41.36658" lon="19.56534">
        <ele>54.153459</ele>
        <time>2022-05-06T09:49:17.537Z</time>
      </trkpt>
      <trkpt lat="41.36654" lon="19.56545">
        <ele>54.276829</ele>
        <time>2022-05-06T09:49:19.531Z</time>
      </trkpt>
      <trkpt lat="41.36651" lon="19.56557">
        <ele>54.399458</ele>
        <time>2022-05-06T09:49:21.540Z</time>
      </trkpt>
      <trkpt lat="41.36647" lon="19.56568">
        <ele>54.519765</ele>
        <time>2022-05-06T09:49:23.531Z</time>
      </trkpt>
      <trkpt lat="41.36643" lon="19.5658">
        <ele>54.647249</ele>
        <time>2022-05-06T09:49:25.546Z</time>
      </trkpt>
      <trkpt lat="41.3664" lon="19.56591">
        <ele>54.765021</ele>
        <time>2022-05-06T09:49:27.549Z</time>
      </trkpt>
      <trkpt lat="41.36636" lon="19.56603">
        <ele>54.823226</ele>
        <time>2022-05-06T09:49:29.546Z</time>
      </trkpt>
      <trkpt lat="41.36633" lon="19.56614">
        <ele>54.86394</ele>
        <time>2022-05-06T09:49:31.522Z</time>
      </trkpt>
      <trkpt lat="41.36629" lon="19.56625">
        <ele>54.904041</ele>
        <time>2022-05-06T09:49:33.555Z</time>
      </trkpt>
      <trkpt lat="41.36626" lon="19.56636">
        <ele>54.9444</ele>
        <time>2022-05-06T09:49:35.549Z</time>
      </trkpt>
      <trkpt lat="41.36622" lon="19.56648">
        <ele>54.986179</ele>
        <time>2022-05-06T09:49:37.536Z</time>
      </trkpt>
      <trkpt lat="41.36618" lon="19.56659">
        <ele>55.028349</ele>
        <time>2022-05-06T09:49:39.531Z</time>
      </trkpt>
      <trkpt lat="41.36615" lon="19.56671">
        <ele>55.070899</ele>
        <time>2022-05-06T09:49:41.528Z</time>
      </trkpt>
      <trkpt lat="41.36612" lon="19.56683">
        <ele>55.112046</ele>
        <time>2022-05-06T09:49:43.539Z</time>
      </trkpt>
      <trkpt lat="41.36608" lon="19.567">
        <ele>55.17217</ele>
        <time>2022-05-06T09:49:46.534Z</time>
      </trkpt>
      <trkpt lat="41.36604" lon="19.56711">
        <ele>55.212378</ele>
        <time>2022-05-06T09:49:48.532Z</time>
      </trkpt>
      <trkpt lat="41.36601" lon="19.56722">
        <ele>55.253228</ele>
        <time>2022-05-06T09:49:50.537Z</time>
      </trkpt>
      <trkpt lat="41.36597" lon="19.56734">
        <ele>55.297034</ele>
        <time>2022-05-06T09:49:52.541Z</time>
      </trkpt>
      <trkpt lat="41.36593" lon="19.56746">
        <ele>55.340426</ele>
        <time>2022-05-06T09:49:54.538Z</time>
      </trkpt>
      <trkpt lat="41.36589" lon="19.56758">
        <ele>55.383163</ele>
        <time>2022-05-06T09:49:56.534Z</time>
      </trkpt>
      <trkpt lat="41.36585" lon="19.56769">
        <ele>55.425638</ele>
        <time>2022-05-06T09:49:58.538Z</time>
      </trkpt>
      <trkpt lat="41.36582" lon="19.56782">
        <ele>55.469134</ele>
        <time>2022-05-06T09:50:00.541Z</time>
      </trkpt>
      <trkpt lat="41.36578" lon="19.56794">
        <ele>55.512486</ele>
        <time>2022-05-06T09:50:02.606Z</time>
      </trkpt>
      <trkpt lat="41.36575" lon="19.56805">
        <ele>55.553316</ele>
        <time>2022-05-06T09:50:04.545Z</time>
      </trkpt>
      <trkpt lat="41.3657" lon="19.56822">
        <ele>55.593554</ele>
        <time>2022-05-06T09:50:07.533Z</time>
      </trkpt>
      <trkpt lat="41.36566" lon="19.56833">
        <ele>55.595624</ele>
        <time>2022-05-06T09:50:09.537Z</time>
      </trkpt>
      <trkpt lat="41.36563" lon="19.56845">
        <ele>55.597718</ele>
        <time>2022-05-06T09:50:11.551Z</time>
      </trkpt>
      <trkpt lat="41.36559" lon="19.56861">
        <ele>55.600645</ele>
        <time>2022-05-06T09:50:14.547Z</time>
      </trkpt>
      <trkpt lat="41.36554" lon="19.56878">
        <ele>55.603601</ele>
        <time>2022-05-06T09:50:17.538Z</time>
      </trkpt>
      <trkpt lat="41.36549" lon="19.56894">
        <ele>55.606408</ele>
        <time>2022-05-06T09:50:20.545Z</time>
      </trkpt>
      <trkpt lat="41.36545" lon="19.56905">
        <ele>55.608461</ele>
        <time>2022-05-06T09:50:22.564Z</time>
      </trkpt>
      <trkpt lat="41.36542" lon="19.56916">
        <ele>55.610587</ele>
        <time>2022-05-06T09:50:24.587Z</time>
      </trkpt>
      <trkpt lat="41.36539" lon="19.56928">
        <ele>55.612618</ele>
        <time>2022-05-06T09:50:26.529Z</time>
      </trkpt>
      <trkpt lat="41.36534" lon="19.56945">
        <ele>55.615613</ele>
        <time>2022-05-06T09:50:29.539Z</time>
      </trkpt>
      <trkpt lat="41.3653" lon="19.56956">
        <ele>55.617733</ele>
        <time>2022-05-06T09:50:31.537Z</time>
      </trkpt>
      <trkpt lat="41.36527" lon="19.56968">
        <ele>55.619851</ele>
        <time>2022-05-06T09:50:33.551Z</time>
      </trkpt>
      <trkpt lat="41.36523" lon="19.5698">
        <ele>55.622007</ele>
        <time>2022-05-06T09:50:35.518Z</time>
      </trkpt>
      <trkpt lat="41.36521" lon="19.56992">
        <ele>55.624073</ele>
        <time>2022-05-06T09:50:37.534Z</time>
      </trkpt>
      <trkpt lat="41.36517" lon="19.57003">
        <ele>55.62608</ele>
        <time>2022-05-06T09:50:39.542Z</time>
      </trkpt>
      <trkpt lat="41.36515" lon="19.57014">
        <ele>55.628105</ele>
        <time>2022-05-06T09:50:41.543Z</time>
      </trkpt>
      <trkpt lat="41.36512" lon="19.57026">
        <ele>55.630183</ele>
        <time>2022-05-06T09:50:43.547Z</time>
      </trkpt>
      <trkpt lat="41.36509" lon="19.57038">
        <ele>55.63235</ele>
        <time>2022-05-06T09:50:45.536Z</time>
      </trkpt>
      <trkpt lat="41.36506" lon="19.5705">
        <ele>55.557197</ele>
        <time>2022-05-06T09:50:47.552Z</time>
      </trkpt>
      <trkpt lat="41.36503" lon="19.57067">
        <ele>55.439045</ele>
        <time>2022-05-06T09:50:50.533Z</time>
      </trkpt>
      <trkpt lat="41.365" lon="19.57084">
        <ele>55.315192</ele>
        <time>2022-05-06T09:50:53.533Z</time>
      </trkpt>
      <trkpt lat="41.36498" lon="19.57096">
        <ele>55.230081</ele>
        <time>2022-05-06T09:50:55.539Z</time>
      </trkpt>
      <trkpt lat="41.36495" lon="19.57112">
        <ele>55.111437</ele>
        <time>2022-05-06T09:50:58.566Z</time>
      </trkpt>
      <trkpt lat="41.36492" lon="19.57129">
        <ele>54.987188</ele>
        <time>2022-05-06T09:51:01.545Z</time>
      </trkpt>
      <trkpt lat="41.3649" lon="19.57141">
        <ele>54.902259</ele>
        <time>2022-05-06T09:51:03.537Z</time>
      </trkpt>
      <trkpt lat="41.36487" lon="19.57153">
        <ele>54.816014</ele>
        <time>2022-05-06T09:51:05.548Z</time>
      </trkpt>
      <trkpt lat="41.36484" lon="19.5717">
        <ele>54.688354</ele>
        <time>2022-05-06T09:51:08.570Z</time>
      </trkpt>
      <trkpt lat="41.36482" lon="19.57182">
        <ele>54.600962</ele>
        <time>2022-05-06T09:51:10.536Z</time>
      </trkpt>
      <trkpt lat="41.3648" lon="19.57194">
        <ele>54.516722</ele>
        <time>2022-05-06T09:51:12.526Z</time>
      </trkpt>
      <trkpt lat="41.36478" lon="19.57206">
        <ele>54.431106</ele>
        <time>2022-05-06T09:51:14.539Z</time>
      </trkpt>
      <trkpt lat="41.36476" lon="19.57218">
        <ele>54.344802</ele>
        <time>2022-05-06T09:51:16.553Z</time>
      </trkpt>
      <trkpt lat="41.36474" lon="19.5723">
        <ele>54.256098</ele>
        <time>2022-05-06T09:51:18.543Z</time>
      </trkpt>
      <trkpt lat="41.36473" lon="19.57242">
        <ele>54.170777</ele>
        <time>2022-05-06T09:51:20.560Z</time>
      </trkpt>
      <trkpt lat="41.36472" lon="19.57254">
        <ele>54.086013</ele>
        <time>2022-05-06T09:51:22.532Z</time>
      </trkpt>
      <trkpt lat="41.3647" lon="19.57266">
        <ele>54.000553</ele>
        <time>2022-05-06T09:51:24.520Z</time>
      </trkpt>
      <trkpt lat="41.36469" lon="19.57284">
        <ele>54.043474</ele>
        <time>2022-05-06T09:51:27.538Z</time>
      </trkpt>
      <trkpt lat="41.36467" lon="19.57296">
        <ele>54.160752</ele>
        <time>2022-05-06T09:51:29.536Z</time>
      </trkpt>
      <trkpt lat="41.36466" lon="19.57308">
        <ele>54.275729</ele>
        <time>2022-05-06T09:51:31.531Z</time>
      </trkpt>
      <trkpt lat="41.36464" lon="19.5732">
        <ele>54.392068</ele>
        <time>2022-05-06T09:51:33.534Z</time>
      </trkpt>
      <trkpt lat="41.36463" lon="19.57332">
        <ele>54.509359</ele>
        <time>2022-05-06T09:51:35.577Z</time>
      </trkpt>
      <trkpt lat="41.36462" lon="19.57344">
        <ele>54.626374</ele>
        <time>2022-05-06T09:51:37.551Z</time>
      </trkpt>
      <trkpt lat="41.36461" lon="19.57357">
        <ele>54.745174</ele>
        <time>2022-05-06T09:51:39.539Z</time>
      </trkpt>
      <trkpt lat="41.3646" lon="19.57369">
        <ele>54.864517</ele>
        <time>2022-05-06T09:51:41.536Z</time>
      </trkpt>
      <trkpt lat="41.36459" lon="19.57381">
        <ele>54.98102</ele>
        <time>2022-05-06T09:51:43.536Z</time>
      </trkpt>
      <trkpt lat="41.36458" lon="19.57394">
        <ele>55.099116</ele>
        <time>2022-05-06T09:51:45.546Z</time>
      </trkpt>
      <trkpt lat="41.36458" lon="19.57406">
        <ele>55.213689</ele>
        <time>2022-05-06T09:51:47.535Z</time>
      </trkpt>
      <trkpt lat="41.36457" lon="19.57423">
        <ele>55.38383</ele>
        <time>2022-05-06T09:51:50.554Z</time>
      </trkpt>
      <trkpt lat="41.36456" lon="19.57441">
        <ele>55.551821</ele>
        <time>2022-05-06T09:51:53.532Z</time>
      </trkpt>
      <trkpt lat="41.36455" lon="19.57458">
        <ele>55.71935</ele>
        <time>2022-05-06T09:51:56.534Z</time>
      </trkpt>
      <trkpt lat="41.36454" lon="19.5747">
        <ele>55.833054</ele>
        <time>2022-05-06T09:51:58.554Z</time>
      </trkpt>
      <trkpt lat="41.36454" lon="19.57485">
        <ele>55.971673</ele>
        <time>2022-05-06T09:52:01.550Z</time>
      </trkpt>
      <trkpt lat="41.36454" lon="19.575">
        <ele>56.118678</ele>
        <time>2022-05-06T09:52:04.555Z</time>
      </trkpt>
      <trkpt lat="41.36453" lon="19.57512">
        <ele>56.233286</ele>
        <time>2022-05-06T09:52:06.577Z</time>
      </trkpt>
      <trkpt lat="41.36453" lon="19.57525">
        <ele>56.330605</ele>
        <time>2022-05-06T09:52:08.535Z</time>
      </trkpt>
      <trkpt lat="41.36453" lon="19.57538">
        <ele>56.430924</ele>
        <time>2022-05-06T09:52:10.548Z</time>
      </trkpt>
      <trkpt lat="41.36453" lon="19.57551">
        <ele>56.536644</ele>
        <time>2022-05-06T09:52:12.532Z</time>
      </trkpt>
      <trkpt lat="41.36453" lon="19.57565">
        <ele>56.637751</ele>
        <time>2022-05-06T09:52:14.540Z</time>
      </trkpt>
      <trkpt lat="41.36453" lon="19.57578">
        <ele>56.743546</ele>
        <time>2022-05-06T09:52:16.538Z</time>
      </trkpt>
      <trkpt lat="41.36454" lon="19.57591">
        <ele>56.84545</ele>
        <time>2022-05-06T09:52:18.544Z</time>
      </trkpt>
      <trkpt lat="41.36454" lon="19.57604">
        <ele>56.942726</ele>
        <time>2022-05-06T09:52:20.531Z</time>
      </trkpt>
      <trkpt lat="41.36454" lon="19.57616">
        <ele>57.03841</ele>
        <time>2022-05-06T09:52:22.537Z</time>
      </trkpt>
      <trkpt lat="41.36454" lon="19.57628">
        <ele>57.131013</ele>
        <time>2022-05-06T09:52:24.535Z</time>
      </trkpt>
      <trkpt lat="41.36454" lon="19.57645">
        <ele>57.258351</ele>
        <time>2022-05-06T09:52:27.551Z</time>
      </trkpt>
      <trkpt lat="41.36454" lon="19.57657">
        <ele>57.351228</ele>
        <time>2022-05-06T09:52:29.546Z</time>
      </trkpt>
      <trkpt lat="41.36455" lon="19.5767">
        <ele>57.452647</ele>
        <time>2022-05-06T09:52:31.532Z</time>
      </trkpt>
      <trkpt lat="41.36456" lon="19.57683">
        <ele>57.555322</ele>
        <time>2022-05-06T09:52:33.537Z</time>
      </trkpt>
      <trkpt lat="41.36456" lon="19.57697">
        <ele>57.65828</ele>
        <time>2022-05-06T09:52:35.522Z</time>
      </trkpt>
      <trkpt lat="41.36457" lon="19.57709">
        <ele>57.752695</ele>
        <time>2022-05-06T09:52:37.543Z</time>
      </trkpt>
      <trkpt lat="41.36458" lon="19.57721">
        <ele>57.849348</ele>
        <time>2022-05-06T09:52:39.548Z</time>
      </trkpt>
      <trkpt lat="41.36458" lon="19.57734">
        <ele>57.946922</ele>
        <time>2022-05-06T09:52:41.538Z</time>
      </trkpt>
      <trkpt lat="41.3646" lon="19.57747">
        <ele>58.044805</ele>
        <time>2022-05-06T09:52:43.541Z</time>
      </trkpt>
      <trkpt lat="41.3646" lon="19.57764">
        <ele>58.128851</ele>
        <time>2022-05-06T09:52:46.539Z</time>
      </trkpt>
      <trkpt lat="41.36461" lon="19.57776">
        <ele>58.172338</ele>
        <time>2022-05-06T09:52:48.553Z</time>
      </trkpt>
      <trkpt lat="41.36463" lon="19.57789">
        <ele>58.216114</ele>
        <time>2022-05-06T09:52:50.532Z</time>
      </trkpt>
      <trkpt lat="41.36465" lon="19.57801">
        <ele>58.261814</ele>
        <time>2022-05-06T09:52:52.547Z</time>
      </trkpt>
      <trkpt lat="41.36467" lon="19.57814">
        <ele>58.307256</ele>
        <time>2022-05-06T09:52:54.549Z</time>
      </trkpt>
      <trkpt lat="41.36468" lon="19.57827">
        <ele>58.354402</ele>
        <time>2022-05-06T09:52:56.586Z</time>
      </trkpt>
      <trkpt lat="41.36469" lon="19.57839">
        <ele>58.400071</ele>
        <time>2022-05-06T09:52:58.557Z</time>
      </trkpt>
      <trkpt lat="41.36471" lon="19.57852">
        <ele>58.444328</ele>
        <time>2022-05-06T09:53:00.544Z</time>
      </trkpt>
      <trkpt lat="41.36472" lon="19.57864">
        <ele>58.488463</ele>
        <time>2022-05-06T09:53:02.572Z</time>
      </trkpt>
      <trkpt lat="41.36473" lon="19.57876">
        <ele>58.533293</ele>
        <time>2022-05-06T09:53:04.545Z</time>
      </trkpt>
      <trkpt lat="41.36476" lon="19.57893">
        <ele>58.595015</ele>
        <time>2022-05-06T09:53:07.536Z</time>
      </trkpt>
      <trkpt lat="41.36478" lon="19.5791">
        <ele>58.656298</ele>
        <time>2022-05-06T09:53:10.519Z</time>
      </trkpt>
      <trkpt lat="41.3648" lon="19.57923">
        <ele>58.70051</ele>
        <time>2022-05-06T09:53:12.536Z</time>
      </trkpt>
      <trkpt lat="41.36482" lon="19.57935">
        <ele>58.744307</ele>
        <time>2022-05-06T09:53:14.539Z</time>
      </trkpt>
      <trkpt lat="41.36484" lon="19.57947">
        <ele>58.789599</ele>
        <time>2022-05-06T09:53:16.535Z</time>
      </trkpt>
      <trkpt lat="41.36486" lon="19.5796">
        <ele>58.836148</ele>
        <time>2022-05-06T09:53:18.533Z</time>
      </trkpt>
      <trkpt lat="41.36488" lon="19.57972">
        <ele>58.879945</ele>
        <time>2022-05-06T09:53:20.532Z</time>
      </trkpt>
      <trkpt lat="41.3649" lon="19.57983">
        <ele>58.922597</ele>
        <time>2022-05-06T09:53:22.533Z</time>
      </trkpt>
      <trkpt lat="41.36493" lon="19.58001">
        <ele>58.949424</ele>
        <time>2022-05-06T09:53:25.533Z</time>
      </trkpt>
      <trkpt lat="41.36495" lon="19.58013">
        <ele>58.960889</ele>
        <time>2022-05-06T09:53:27.539Z</time>
      </trkpt>
      <trkpt lat="41.36497" lon="19.58025">
        <ele>58.972463</ele>
        <time>2022-05-06T09:53:29.545Z</time>
      </trkpt>
      <trkpt lat="41.365" lon="19.58037">
        <ele>58.983833</ele>
        <time>2022-05-06T09:53:31.544Z</time>
      </trkpt>
      <trkpt lat="41.36501" lon="19.58049">
        <ele>58.994871</ele>
        <time>2022-05-06T09:53:33.542Z</time>
      </trkpt>
      <trkpt lat="41.36504" lon="19.58062">
        <ele>59.006626</ele>
        <time>2022-05-06T09:53:35.532Z</time>
      </trkpt>
      <trkpt lat="41.36507" lon="19.58074">
        <ele>59.018521</ele>
        <time>2022-05-06T09:53:37.552Z</time>
      </trkpt>
      <trkpt lat="41.36509" lon="19.58087">
        <ele>59.030397</ele>
        <time>2022-05-06T09:53:39.535Z</time>
      </trkpt>
      <trkpt lat="41.36512" lon="19.58099">
        <ele>59.042119</ele>
        <time>2022-05-06T09:53:41.538Z</time>
      </trkpt>
      <trkpt lat="41.36515" lon="19.58111">
        <ele>59.053611</ele>
        <time>2022-05-06T09:53:43.548Z</time>
      </trkpt>
      <trkpt lat="41.36517" lon="19.58123">
        <ele>59.064918</ele>
        <time>2022-05-06T09:53:45.530Z</time>
      </trkpt>
      <trkpt lat="41.36519" lon="19.58135">
        <ele>59.07632</ele>
        <time>2022-05-06T09:53:47.541Z</time>
      </trkpt>
      <trkpt lat="41.36521" lon="19.58147">
        <ele>59.087659</ele>
        <time>2022-05-06T09:53:49.539Z</time>
      </trkpt>
      <trkpt lat="41.36523" lon="19.58159">
        <ele>59.098645</ele>
        <time>2022-05-06T09:53:51.553Z</time>
      </trkpt>
      <trkpt lat="41.36525" lon="19.58171">
        <ele>59.109895</ele>
        <time>2022-05-06T09:53:53.575Z</time>
      </trkpt>
      <trkpt lat="41.36527" lon="19.58183">
        <ele>59.121296</ele>
        <time>2022-05-06T09:53:55.543Z</time>
      </trkpt>
      <trkpt lat="41.3653" lon="19.58196">
        <ele>59.132958</ele>
        <time>2022-05-06T09:53:57.532Z</time>
      </trkpt>
      <trkpt lat="41.36532" lon="19.58208">
        <ele>59.144296</ele>
        <time>2022-05-06T09:53:59.532Z</time>
      </trkpt>
      <trkpt lat="41.36534" lon="19.58219">
        <ele>59.155309</ele>
        <time>2022-05-06T09:54:01.539Z</time>
      </trkpt>
      <trkpt lat="41.36538" lon="19.58237">
        <ele>59.130389</ele>
        <time>2022-05-06T09:54:04.568Z</time>
      </trkpt>
      <trkpt lat="41.3654" lon="19.58249">
        <ele>59.112745</ele>
        <time>2022-05-06T09:54:06.530Z</time>
      </trkpt>
      <trkpt lat="41.36541" lon="19.58261">
        <ele>59.094719</ele>
        <time>2022-05-06T09:54:08.531Z</time>
      </trkpt>
      <trkpt lat="41.36543" lon="19.58273">
        <ele>59.076624</ele>
        <time>2022-05-06T09:54:10.556Z</time>
      </trkpt>
      <trkpt lat="41.36545" lon="19.58285">
        <ele>59.059163</ele>
        <time>2022-05-06T09:54:12.538Z</time>
      </trkpt>
      <trkpt lat="41.36548" lon="19.58301">
        <ele>59.034689</ele>
        <time>2022-05-06T09:54:15.545Z</time>
      </trkpt>
      <trkpt lat="41.36551" lon="19.58318">
        <ele>59.009331</ele>
        <time>2022-05-06T09:54:18.551Z</time>
      </trkpt>
      <trkpt lat="41.36553" lon="19.58331">
        <ele>58.991123</ele>
        <time>2022-05-06T09:54:20.544Z</time>
      </trkpt>
      <trkpt lat="41.36556" lon="19.58343">
        <ele>58.972687</ele>
        <time>2022-05-06T09:54:22.550Z</time>
      </trkpt>
      <trkpt lat="41.36558" lon="19.58355">
        <ele>58.954066</ele>
        <time>2022-05-06T09:54:24.560Z</time>
      </trkpt>
      <trkpt lat="41.3656" lon="19.58367">
        <ele>58.936239</ele>
        <time>2022-05-06T09:54:26.531Z</time>
      </trkpt>
      <trkpt lat="41.36563" lon="19.58379">
        <ele>58.918639</ele>
        <time>2022-05-06T09:54:28.540Z</time>
      </trkpt>
      <trkpt lat="41.36565" lon="19.58391">
        <ele>58.900907</ele>
        <time>2022-05-06T09:54:30.532Z</time>
      </trkpt>
      <trkpt lat="41.36568" lon="19.58408">
        <ele>58.874936</ele>
        <time>2022-05-06T09:54:33.536Z</time>
      </trkpt>
      <trkpt lat="41.3657" lon="19.58421">
        <ele>58.856984</ele>
        <time>2022-05-06T09:54:35.557Z</time>
      </trkpt>
      <trkpt lat="41.36571" lon="19.58433">
        <ele>58.839137</ele>
        <time>2022-05-06T09:54:37.533Z</time>
      </trkpt>
      <trkpt lat="41.36574" lon="19.58445">
        <ele>58.82131</ele>
        <time>2022-05-06T09:54:39.545Z</time>
      </trkpt>
      <trkpt lat="41.36575" lon="19.58457">
        <ele>58.767284</ele>
        <time>2022-05-06T09:54:41.547Z</time>
      </trkpt>
      <trkpt lat="41.36578" lon="19.58469">
        <ele>58.627518</ele>
        <time>2022-05-06T09:54:43.580Z</time>
      </trkpt>
      <trkpt lat="41.3658" lon="19.58481">
        <ele>58.481578</ele>
        <time>2022-05-06T09:54:45.543Z</time>
      </trkpt>
      <trkpt lat="41.36582" lon="19.58494">
        <ele>58.340008</ele>
        <time>2022-05-06T09:54:47.533Z</time>
      </trkpt>
      <trkpt lat="41.36585" lon="19.58506">
        <ele>58.197678</ele>
        <time>2022-05-06T09:54:49.536Z</time>
      </trkpt>
      <trkpt lat="41.36588" lon="19.58517">
        <ele>58.059642</ele>
        <time>2022-05-06T09:54:51.539Z</time>
      </trkpt>
      <trkpt lat="41.36591" lon="19.58529">
        <ele>57.922733</ele>
        <time>2022-05-06T09:54:53.547Z</time>
      </trkpt>
      <trkpt lat="41.36593" lon="19.58541">
        <ele>57.781521</ele>
        <time>2022-05-06T09:54:55.526Z</time>
      </trkpt>
      <trkpt lat="41.36595" lon="19.58554">
        <ele>57.637767</ele>
        <time>2022-05-06T09:54:57.537Z</time>
      </trkpt>
      <trkpt lat="41.36597" lon="19.58566">
        <ele>57.493606</ele>
        <time>2022-05-06T09:54:59.532Z</time>
      </trkpt>
      <trkpt lat="41.36599" lon="19.58579">
        <ele>57.347042</ele>
        <time>2022-05-06T09:55:01.553Z</time>
      </trkpt>
      <trkpt lat="41.36601" lon="19.58591">
        <ele>57.200365</ele>
        <time>2022-05-06T09:55:03.537Z</time>
      </trkpt>
      <trkpt lat="41.36604" lon="19.58604">
        <ele>57.051394</ele>
        <time>2022-05-06T09:55:05.572Z</time>
      </trkpt>
      <trkpt lat="41.36606" lon="19.58617">
        <ele>56.902618</ele>
        <time>2022-05-06T09:55:07.531Z</time>
      </trkpt>
      <trkpt lat="41.36608" lon="19.5863">
        <ele>56.757687</ele>
        <time>2022-05-06T09:55:09.537Z</time>
      </trkpt>
      <trkpt lat="41.3661" lon="19.58643">
        <ele>56.606422</ele>
        <time>2022-05-06T09:55:11.536Z</time>
      </trkpt>
      <trkpt lat="41.36611" lon="19.58657">
        <ele>56.452108</ele>
        <time>2022-05-06T09:55:13.538Z</time>
      </trkpt>
      <trkpt lat="41.36614" lon="19.5867">
        <ele>56.297065</ele>
        <time>2022-05-06T09:55:15.527Z</time>
      </trkpt>
      <trkpt lat="41.36616" lon="19.58684">
        <ele>56.138735</ele>
        <time>2022-05-06T09:55:17.527Z</time>
      </trkpt>
      <trkpt lat="41.36619" lon="19.58697">
        <ele>56.127205</ele>
        <time>2022-05-06T09:55:19.545Z</time>
      </trkpt>
      <trkpt lat="41.36622" lon="19.58711">
        <ele>56.145858</ele>
        <time>2022-05-06T09:55:21.544Z</time>
      </trkpt>
      <trkpt lat="41.36624" lon="19.58724">
        <ele>56.164511</ele>
        <time>2022-05-06T09:55:23.546Z</time>
      </trkpt>
      <trkpt lat="41.36627" lon="19.58738">
        <ele>56.183119</ele>
        <time>2022-05-06T09:55:25.538Z</time>
      </trkpt>
      <trkpt lat="41.3663" lon="19.58751">
        <ele>56.20169</ele>
        <time>2022-05-06T09:55:27.526Z</time>
      </trkpt>
      <trkpt lat="41.36632" lon="19.58764">
        <ele>56.219736</ele>
        <time>2022-05-06T09:55:29.540Z</time>
      </trkpt>
      <trkpt lat="41.36634" lon="19.58777">
        <ele>56.237681</ele>
        <time>2022-05-06T09:55:31.549Z</time>
      </trkpt>
      <trkpt lat="41.36636" lon="19.5879">
        <ele>56.255435</ele>
        <time>2022-05-06T09:55:33.533Z</time>
      </trkpt>
      <trkpt lat="41.36638" lon="19.58804">
        <ele>56.273879</ele>
        <time>2022-05-06T09:55:35.550Z</time>
      </trkpt>
      <trkpt lat="41.36641" lon="19.58817">
        <ele>56.291971</ele>
        <time>2022-05-06T09:55:37.543Z</time>
      </trkpt>
      <trkpt lat="41.36643" lon="19.58831">
        <ele>56.310966</ele>
        <time>2022-05-06T09:55:39.539Z</time>
      </trkpt>
      <trkpt lat="41.36645" lon="19.58845">
        <ele>56.329833</ele>
        <time>2022-05-06T09:55:41.542Z</time>
      </trkpt>
      <trkpt lat="41.36648" lon="19.58858">
        <ele>56.347577</ele>
        <time>2022-05-06T09:55:43.544Z</time>
      </trkpt>
      <trkpt lat="41.3665" lon="19.58871">
        <ele>56.365592</ele>
        <time>2022-05-06T09:55:45.547Z</time>
      </trkpt>
      <trkpt lat="41.36653" lon="19.58884">
        <ele>56.383478</ele>
        <time>2022-05-06T09:55:47.537Z</time>
      </trkpt>
      <trkpt lat="41.36656" lon="19.58897">
        <ele>56.401663</ele>
        <time>2022-05-06T09:55:49.575Z</time>
      </trkpt>
      <trkpt lat="41.36657" lon="19.5891">
        <ele>56.419939</ele>
        <time>2022-05-06T09:55:51.554Z</time>
      </trkpt>
      <trkpt lat="41.3666" lon="19.58923">
        <ele>56.456918</ele>
        <time>2022-05-06T09:55:53.520Z</time>
      </trkpt>
      <trkpt lat="41.36662" lon="19.58936">
        <ele>56.530657</ele>
        <time>2022-05-06T09:55:55.544Z</time>
      </trkpt>
      <trkpt lat="41.36664" lon="19.58949">
        <ele>56.601198</ele>
        <time>2022-05-06T09:55:57.531Z</time>
      </trkpt>
      <trkpt lat="41.36667" lon="19.58961">
        <ele>56.672631</ele>
        <time>2022-05-06T09:55:59.533Z</time>
      </trkpt>
      <trkpt lat="41.36669" lon="19.58974">
        <ele>56.745137</ele>
        <time>2022-05-06T09:56:01.537Z</time>
      </trkpt>
      <trkpt lat="41.36671" lon="19.58987">
        <ele>56.81711</ele>
        <time>2022-05-06T09:56:03.537Z</time>
      </trkpt>
      <trkpt lat="41.36674" lon="19.59">
        <ele>56.888012</ele>
        <time>2022-05-06T09:56:05.553Z</time>
      </trkpt>
      <trkpt lat="41.36676" lon="19.59012">
        <ele>56.959975</ele>
        <time>2022-05-06T09:56:07.537Z</time>
      </trkpt>
      <trkpt lat="41.36678" lon="19.59025">
        <ele>57.033714</ele>
        <time>2022-05-06T09:56:09.539Z</time>
      </trkpt>
      <trkpt lat="41.36681" lon="19.59038">
        <ele>57.105686</ele>
        <time>2022-05-06T09:56:11.527Z</time>
      </trkpt>
      <trkpt lat="41.36683" lon="19.59051">
        <ele>57.177648</ele>
        <time>2022-05-06T09:56:13.527Z</time>
      </trkpt>
      <trkpt lat="41.36686" lon="19.59063">
        <ele>57.247362</ele>
        <time>2022-05-06T09:56:15.544Z</time>
      </trkpt>
      <trkpt lat="41.36688" lon="19.59075">
        <ele>57.316677</ele>
        <time>2022-05-06T09:56:17.564Z</time>
      </trkpt>
      <trkpt lat="41.36691" lon="19.59087">
        <ele>57.384608</ele>
        <time>2022-05-06T09:56:19.552Z</time>
      </trkpt>
      <trkpt lat="41.36693" lon="19.591">
        <ele>57.454084</ele>
        <time>2022-05-06T09:56:21.521Z</time>
      </trkpt>
      <trkpt lat="41.36696" lon="19.59112">
        <ele>57.524987</ele>
        <time>2022-05-06T09:56:23.553Z</time>
      </trkpt>
      <trkpt lat="41.36698" lon="19.59124">
        <ele>57.5934</ele>
        <time>2022-05-06T09:56:25.527Z</time>
      </trkpt>
      <trkpt lat="41.367" lon="19.59136">
        <ele>57.661844</ele>
        <time>2022-05-06T09:56:27.578Z</time>
      </trkpt>
      <trkpt lat="41.36703" lon="19.59149">
        <ele>57.734078</ele>
        <time>2022-05-06T09:56:29.545Z</time>
      </trkpt>
      <trkpt lat="41.36705" lon="19.59162">
        <ele>57.801326</ele>
        <time>2022-05-06T09:56:31.540Z</time>
      </trkpt>
      <trkpt lat="41.36707" lon="19.59174">
        <ele>57.866656</ele>
        <time>2022-05-06T09:56:33.539Z</time>
      </trkpt>
      <trkpt lat="41.3671" lon="19.59186">
        <ele>57.931648</ele>
        <time>2022-05-06T09:56:35.532Z</time>
      </trkpt>
      <trkpt lat="41.36713" lon="19.59199">
        <ele>57.998179</ele>
        <time>2022-05-06T09:56:37.545Z</time>
      </trkpt>
      <trkpt lat="41.36716" lon="19.59212">
        <ele>58.067348</ele>
        <time>2022-05-06T09:56:39.546Z</time>
      </trkpt>
      <trkpt lat="41.36718" lon="19.59225">
        <ele>58.135346</ele>
        <time>2022-05-06T09:56:41.535Z</time>
      </trkpt>
      <trkpt lat="41.36721" lon="19.59238">
        <ele>58.205688</ele>
        <time>2022-05-06T09:56:43.552Z</time>
      </trkpt>
      <trkpt lat="41.36724" lon="19.5925">
        <ele>58.270369</ele>
        <time>2022-05-06T09:56:45.538Z</time>
      </trkpt>
      <trkpt lat="41.36726" lon="19.59263">
        <ele>58.335851</ele>
        <time>2022-05-06T09:56:47.554Z</time>
      </trkpt>
      <trkpt lat="41.36729" lon="19.59275">
        <ele>58.400842</ele>
        <time>2022-05-06T09:56:49.575Z</time>
      </trkpt>
      <trkpt lat="41.36732" lon="19.59287">
        <ele>58.468201</ele>
        <time>2022-05-06T09:56:51.531Z</time>
      </trkpt>
      <trkpt lat="41.36735" lon="19.593">
        <ele>58.53556</ele>
        <time>2022-05-06T09:56:53.527Z</time>
      </trkpt>
      <trkpt lat="41.36738" lon="19.59313">
        <ele>58.603751</ele>
        <time>2022-05-06T09:56:55.548Z</time>
      </trkpt>
      <trkpt lat="41.3674" lon="19.59325">
        <ele>58.670878</ele>
        <time>2022-05-06T09:56:57.536Z</time>
      </trkpt>
      <trkpt lat="41.36743" lon="19.59338">
        <ele>58.738198</ele>
        <time>2022-05-06T09:56:59.554Z</time>
      </trkpt>
      <trkpt lat="41.36746" lon="19.59351">
        <ele>58.807564</ele>
        <time>2022-05-06T09:57:01.550Z</time>
      </trkpt>
      <trkpt lat="41.36749" lon="19.59364">
        <ele>58.877825</ele>
        <time>2022-05-06T09:57:03.551Z</time>
      </trkpt>
      <trkpt lat="41.36753" lon="19.59377">
        <ele>58.948264</ele>
        <time>2022-05-06T09:57:05.535Z</time>
      </trkpt>
      <trkpt lat="41.36756" lon="19.5939">
        <ele>58.979038</ele>
        <time>2022-05-06T09:57:07.547Z</time>
      </trkpt>
      <trkpt lat="41.3676" lon="19.59402">
        <ele>58.995279</ele>
        <time>2022-05-06T09:57:09.532Z</time>
      </trkpt>
      <trkpt lat="41.36763" lon="19.59415">
        <ele>59.011123</ele>
        <time>2022-05-06T09:57:11.533Z</time>
      </trkpt>
      <trkpt lat="41.36767" lon="19.59427">
        <ele>59.026694</ele>
        <time>2022-05-06T09:57:13.542Z</time>
      </trkpt>
      <trkpt lat="41.3677" lon="19.59439">
        <ele>59.042652</ele>
        <time>2022-05-06T09:57:15.534Z</time>
      </trkpt>
      <trkpt lat="41.36773" lon="19.59451">
        <ele>59.058389</ele>
        <time>2022-05-06T09:57:17.583Z</time>
      </trkpt>
      <trkpt lat="41.36776" lon="19.59464">
        <ele>59.074068</ele>
        <time>2022-05-06T09:57:19.535Z</time>
      </trkpt>
      <trkpt lat="41.36779" lon="19.59476">
        <ele>59.090326</ele>
        <time>2022-05-06T09:57:21.539Z</time>
      </trkpt>
      <trkpt lat="41.36783" lon="19.59489">
        <ele>59.106623</ele>
        <time>2022-05-06T09:57:23.544Z</time>
      </trkpt>
      <trkpt lat="41.36786" lon="19.59501">
        <ele>59.122411</ele>
        <time>2022-05-06T09:57:25.563Z</time>
      </trkpt>
      <trkpt lat="41.3679" lon="19.59513">
        <ele>59.138199</ele>
        <time>2022-05-06T09:57:27.554Z</time>
      </trkpt>
      <trkpt lat="41.36793" lon="19.59526">
        <ele>59.154609</ele>
        <time>2022-05-06T09:57:29.531Z</time>
      </trkpt>
      <trkpt lat="41.36798" lon="19.59538">
        <ele>59.170248</ele>
        <time>2022-05-06T09:57:31.540Z</time>
      </trkpt>
      <trkpt lat="41.36801" lon="19.5955">
        <ele>59.186094</ele>
        <time>2022-05-06T09:57:33.538Z</time>
      </trkpt>
      <trkpt lat="41.36805" lon="19.59562">
        <ele>59.202053</ele>
        <time>2022-05-06T09:57:35.533Z</time>
      </trkpt>
      <trkpt lat="41.36808" lon="19.59574">
        <ele>59.217219</ele>
        <time>2022-05-06T09:57:37.551Z</time>
      </trkpt>
      <trkpt lat="41.36811" lon="19.59586">
        <ele>59.23199</ele>
        <time>2022-05-06T09:57:39.535Z</time>
      </trkpt>
      <trkpt lat="41.36814" lon="19.59597">
        <ele>59.247098</ele>
        <time>2022-05-06T09:57:41.562Z</time>
      </trkpt>
      <trkpt lat="41.36818" lon="19.59609">
        <ele>59.314224</ele>
        <time>2022-05-06T09:57:43.536Z</time>
      </trkpt>
      <trkpt lat="41.36821" lon="19.5962">
        <ele>59.473332</ele>
        <time>2022-05-06T09:57:45.545Z</time>
      </trkpt>
      <trkpt lat="41.36824" lon="19.59632">
        <ele>59.632377</ele>
        <time>2022-05-06T09:57:47.536Z</time>
      </trkpt>
      <trkpt lat="41.36827" lon="19.59643">
        <ele>59.797043</ele>
        <time>2022-05-06T09:57:49.531Z</time>
      </trkpt>
      <trkpt lat="41.36831" lon="19.59655">
        <ele>59.963632</ele>
        <time>2022-05-06T09:57:51.531Z</time>
      </trkpt>
      <trkpt lat="41.36835" lon="19.59666">
        <ele>60.126033</ele>
        <time>2022-05-06T09:57:53.535Z</time>
      </trkpt>
      <trkpt lat="41.36839" lon="19.59677">
        <ele>60.28825</ele>
        <time>2022-05-06T09:57:55.553Z</time>
      </trkpt>
      <trkpt lat="41.36844" lon="19.59693">
        <ele>60.522511</ele>
        <time>2022-05-06T09:57:58.538Z</time>
      </trkpt>
      <trkpt lat="41.36848" lon="19.5971">
        <ele>60.750514</ele>
        <time>2022-05-06T09:58:01.535Z</time>
      </trkpt>
      <trkpt lat="41.36853" lon="19.59725">
        <ele>60.971717</ele>
        <time>2022-05-06T09:58:04.554Z</time>
      </trkpt>
      <trkpt lat="41.36857" lon="19.59741">
        <ele>61.201604</ele>
        <time>2022-05-06T09:58:07.536Z</time>
      </trkpt>
      <trkpt lat="41.36862" lon="19.59758">
        <ele>61.434068</ele>
        <time>2022-05-06T09:58:10.568Z</time>
      </trkpt>
      <trkpt lat="41.36867" lon="19.59774">
        <ele>61.667899</ele>
        <time>2022-05-06T09:58:13.535Z</time>
      </trkpt>
      <trkpt lat="41.36872" lon="19.5979">
        <ele>61.901731</ele>
        <time>2022-05-06T09:58:16.556Z</time>
      </trkpt>
      <trkpt lat="41.36877" lon="19.59805">
        <ele>62.122288</ele>
        <time>2022-05-06T09:58:19.528Z</time>
      </trkpt>
      <trkpt lat="41.36881" lon="19.59819">
        <ele>62.321814</ele>
        <time>2022-05-06T09:58:22.542Z</time>
      </trkpt>
      <trkpt lat="41.36886" lon="19.59834">
        <ele>62.436386</ele>
        <time>2022-05-06T09:58:25.527Z</time>
      </trkpt>
      <trkpt lat="41.3689" lon="19.59848">
        <ele>62.432653</ele>
        <time>2022-05-06T09:58:28.523Z</time>
      </trkpt>
      <trkpt lat="41.36894" lon="19.59863">
        <ele>62.42878</ele>
        <time>2022-05-06T09:58:31.526Z</time>
      </trkpt>
      <trkpt lat="41.369" lon="19.59878">
        <ele>62.42475</ele>
        <time>2022-05-06T09:58:34.535Z</time>
      </trkpt>
      <trkpt lat="41.36905" lon="19.59893">
        <ele>62.420798</ele>
        <time>2022-05-06T09:58:37.535Z</time>
      </trkpt>
      <trkpt lat="41.3691" lon="19.59908">
        <ele>62.41679</ele>
        <time>2022-05-06T09:58:40.543Z</time>
      </trkpt>
      <trkpt lat="41.36914" lon="19.59923">
        <ele>62.412943</ele>
        <time>2022-05-06T09:58:43.550Z</time>
      </trkpt>
      <trkpt lat="41.36919" lon="19.59938">
        <ele>62.409118</ele>
        <time>2022-05-06T09:58:46.566Z</time>
      </trkpt>
      <trkpt lat="41.36923" lon="19.59951">
        <ele>62.405541</ele>
        <time>2022-05-06T09:58:49.538Z</time>
      </trkpt>
      <trkpt lat="41.36927" lon="19.59966">
        <ele>62.401784</ele>
        <time>2022-05-06T09:58:52.536Z</time>
      </trkpt>
      <trkpt lat="41.36931" lon="19.59981">
        <ele>62.398006</ele>
        <time>2022-05-06T09:58:55.547Z</time>
      </trkpt>
      <trkpt lat="41.36936" lon="19.59995">
        <ele>62.394305</ele>
        <time>2022-05-06T09:58:58.539Z</time>
      </trkpt>
      <trkpt lat="41.36941" lon="19.60008">
        <ele>62.390768</ele>
        <time>2022-05-06T09:59:01.568Z</time>
      </trkpt>
      <trkpt lat="41.36945" lon="19.60022">
        <ele>62.387145</ele>
        <time>2022-05-06T09:59:04.553Z</time>
      </trkpt>
      <trkpt lat="41.36949" lon="19.60036">
        <ele>62.383603</ele>
        <time>2022-05-06T09:59:07.543Z</time>
      </trkpt>
      <trkpt lat="41.36953" lon="19.60049">
        <ele>62.38799</ele>
        <time>2022-05-06T09:59:10.535Z</time>
      </trkpt>
      <trkpt lat="41.36957" lon="19.60063">
        <ele>62.668465</ele>
        <time>2022-05-06T09:59:13.536Z</time>
      </trkpt>
      <trkpt lat="41.36961" lon="19.60076">
        <ele>62.943469</ele>
        <time>2022-05-06T09:59:16.526Z</time>
      </trkpt>
      <trkpt lat="41.36965" lon="19.6009">
        <ele>63.22816</ele>
        <time>2022-05-06T09:59:19.534Z</time>
      </trkpt>
      <trkpt lat="41.36969" lon="19.60105">
        <ele>63.526815</ele>
        <time>2022-05-06T09:59:22.558Z</time>
      </trkpt>
      <trkpt lat="41.36974" lon="19.60119">
        <ele>63.813255</ele>
        <time>2022-05-06T09:59:25.545Z</time>
      </trkpt>
      <trkpt lat="41.36978" lon="19.60134">
        <ele>64.129683</ele>
        <time>2022-05-06T09:59:29.535Z</time>
      </trkpt>
      <trkpt lat="41.36982" lon="19.60149">
        <ele>64.41427</ele>
        <time>2022-05-06T09:59:32.538Z</time>
      </trkpt>
      <trkpt lat="41.36986" lon="19.60163">
        <ele>64.705192</ele>
        <time>2022-05-06T09:59:35.525Z</time>
      </trkpt>
      <trkpt lat="41.3699" lon="19.60177">
        <ele>64.9914</ele>
        <time>2022-05-06T09:59:38.552Z</time>
      </trkpt>
      <trkpt lat="41.36994" lon="19.60191">
        <ele>65.278601</ele>
        <time>2022-05-06T09:59:41.579Z</time>
      </trkpt>
      <trkpt lat="41.36999" lon="19.60206">
        <ele>65.581987</ele>
        <time>2022-05-06T09:59:44.540Z</time>
      </trkpt>
      <trkpt lat="41.37002" lon="19.6022">
        <ele>65.867309</ele>
        <time>2022-05-06T09:59:47.536Z</time>
      </trkpt>
      <trkpt lat="41.37007" lon="19.60234">
        <ele>66.165235</ele>
        <time>2022-05-06T09:59:50.535Z</time>
      </trkpt>
      <trkpt lat="41.37012" lon="19.60249">
        <ele>66.471363</ele>
        <time>2022-05-06T09:59:53.541Z</time>
      </trkpt>
      <trkpt lat="41.37016" lon="19.60264">
        <ele>66.772696</ele>
        <time>2022-05-06T09:59:56.542Z</time>
      </trkpt>
      <trkpt lat="41.3702" lon="19.60277">
        <ele>67.039552</ele>
        <time>2022-05-06T09:59:59.547Z</time>
      </trkpt>
      <trkpt lat="41.37025" lon="19.60292">
        <ele>67.330934</ele>
        <time>2022-05-06T10:00:02.527Z</time>
      </trkpt>
      <trkpt lat="41.3703" lon="19.60307">
        <ele>67.626547</ele>
        <time>2022-05-06T10:00:05.537Z</time>
      </trkpt>
      <trkpt lat="41.37034" lon="19.60322">
        <ele>67.913278</ele>
        <time>2022-05-06T10:00:08.544Z</time>
      </trkpt>
      <trkpt lat="41.37039" lon="19.60337">
        <ele>68.190342</ele>
        <time>2022-05-06T10:00:11.577Z</time>
      </trkpt>
      <trkpt lat="41.37044" lon="19.6035">
        <ele>68.462513</ele>
        <time>2022-05-06T10:00:14.586Z</time>
      </trkpt>
      <trkpt lat="41.37048" lon="19.60363">
        <ele>68.701627</ele>
        <time>2022-05-06T10:00:19.543Z</time>
      </trkpt>
      <trkpt lat="41.37052" lon="19.60377">
        <ele>68.976608</ele>
        <time>2022-05-06T10:00:23.536Z</time>
      </trkpt>
      <trkpt lat="41.37056" lon="19.60391">
        <ele>69.23514</ele>
        <time>2022-05-06T10:00:26.532Z</time>
      </trkpt>
      <trkpt lat="41.3706" lon="19.60404">
        <ele>69.496788</ele>
        <time>2022-05-06T10:00:29.540Z</time>
      </trkpt>
      <trkpt lat="41.37064" lon="19.60417">
        <ele>69.737555</ele>
        <time>2022-05-06T10:00:32.546Z</time>
      </trkpt>
      <trkpt lat="41.37068" lon="19.6043">
        <ele>69.996627</ele>
        <time>2022-05-06T10:00:35.531Z</time>
      </trkpt>
      <trkpt lat="41.37072" lon="19.60443">
        <ele>70.245804</ele>
        <time>2022-05-06T10:00:38.533Z</time>
      </trkpt>
      <trkpt lat="41.37075" lon="19.60457">
        <ele>70.504056</ele>
        <time>2022-05-06T10:00:41.591Z</time>
      </trkpt>
      <trkpt lat="41.3708" lon="19.60472">
        <ele>70.790786</ele>
        <time>2022-05-06T10:00:44.551Z</time>
      </trkpt>
      <trkpt lat="41.37084" lon="19.60486">
        <ele>71.070178</ele>
        <time>2022-05-06T10:00:47.551Z</time>
      </trkpt>
      <trkpt lat="41.37089" lon="19.60499">
        <ele>71.220218</ele>
        <time>2022-05-06T10:00:50.542Z</time>
      </trkpt>
      <trkpt lat="41.37092" lon="19.60515">
        <ele>71.246029</ele>
        <time>2022-05-06T10:00:53.550Z</time>
      </trkpt>
      <trkpt lat="41.37094" lon="19.60527">
        <ele>71.266227</ele>
        <time>2022-05-06T10:00:55.533Z</time>
      </trkpt>
      <trkpt lat="41.37096" lon="19.60544">
        <ele>71.292187</ele>
        <time>2022-05-06T10:00:58.577Z</time>
      </trkpt>
      <trkpt lat="41.37097" lon="19.60557">
        <ele>71.313745</ele>
        <time>2022-05-06T10:01:01.535Z</time>
      </trkpt>
      <trkpt lat="41.37098" lon="19.60573">
        <ele>71.339749</ele>
        <time>2022-05-06T10:01:05.535Z</time>
      </trkpt>
      <trkpt lat="41.37097" lon="19.60588">
        <ele>71.363222</ele>
        <time>2022-05-06T10:01:08.548Z</time>
      </trkpt>
      <trkpt lat="41.37096" lon="19.60603">
        <ele>71.386755</ele>
        <time>2022-05-06T10:01:11.532Z</time>
      </trkpt>
      <trkpt lat="41.37097" lon="19.60618">
        <ele>71.411177</ele>
        <time>2022-05-06T10:01:14.534Z</time>
      </trkpt>
      <trkpt lat="41.37097" lon="19.60634">
        <ele>71.435739</ele>
        <time>2022-05-06T10:01:17.544Z</time>
      </trkpt>
      <trkpt lat="41.371" lon="19.60647">
        <ele>71.457108</ele>
        <time>2022-05-06T10:01:20.517Z</time>
      </trkpt>
      <trkpt lat="41.371" lon="19.60659">
        <ele>71.476142</ele>
        <time>2022-05-06T10:01:23.536Z</time>
      </trkpt>
      <trkpt lat="41.371" lon="19.60677">
        <ele>71.504016</ele>
        <time>2022-05-06T10:01:26.533Z</time>
      </trkpt>
      <trkpt lat="41.37102" lon="19.60689">
        <ele>71.524188</ele>
        <time>2022-05-06T10:01:28.549Z</time>
      </trkpt>
      <trkpt lat="41.37104" lon="19.60701">
        <ele>71.543209</ele>
        <time>2022-05-06T10:01:30.549Z</time>
      </trkpt>
      <trkpt lat="41.37107" lon="19.60713">
        <ele>71.562873</ele>
        <time>2022-05-06T10:01:32.534Z</time>
      </trkpt>
      <trkpt lat="41.37111" lon="19.6073">
        <ele>71.554392</ele>
        <time>2022-05-06T10:01:35.540Z</time>
      </trkpt>
      <trkpt lat="41.37113" lon="19.60742">
        <ele>71.182968</ele>
        <time>2022-05-06T10:01:37.547Z</time>
      </trkpt>
      <trkpt lat="41.37116" lon="19.60759">
        <ele>70.677218</ele>
        <time>2022-05-06T10:01:40.546Z</time>
      </trkpt>
      <trkpt lat="41.37119" lon="19.60776">
        <ele>70.171468</ele>
        <time>2022-05-06T10:01:43.564Z</time>
      </trkpt>
      <trkpt lat="41.37122" lon="19.60787">
        <ele>69.8113</ele>
        <time>2022-05-06T10:01:45.574Z</time>
      </trkpt>
      <trkpt lat="41.37124" lon="19.608">
        <ele>69.44558</ele>
        <time>2022-05-06T10:01:47.535Z</time>
      </trkpt>
      <trkpt lat="41.37126" lon="19.60811">
        <ele>69.087565</ele>
        <time>2022-05-06T10:01:49.543Z</time>
      </trkpt>
      <trkpt lat="41.37128" lon="19.60824">
        <ele>68.719169</ele>
        <time>2022-05-06T10:01:51.536Z</time>
      </trkpt>
      <trkpt lat="41.3713" lon="19.60835">
        <ele>68.362123</ele>
        <time>2022-05-06T10:01:53.571Z</time>
      </trkpt>
      <trkpt lat="41.37134" lon="19.60853">
        <ele>67.84692</ele>
        <time>2022-05-06T10:01:56.558Z</time>
      </trkpt>
      <trkpt lat="41.37137" lon="19.6087">
        <ele>67.327945</ele>
        <time>2022-05-06T10:01:59.550Z</time>
      </trkpt>
      <trkpt lat="41.3714" lon="19.60887">
        <ele>66.816496</ele>
        <time>2022-05-06T10:02:02.543Z</time>
      </trkpt>
      <trkpt lat="41.37143" lon="19.60903">
        <ele>66.321198</ele>
        <time>2022-05-06T10:02:05.549Z</time>
      </trkpt>
      <trkpt lat="41.37146" lon="19.60919">
        <ele>65.851416</ele>
        <time>2022-05-06T10:02:08.544Z</time>
      </trkpt>
      <trkpt lat="41.37148" lon="19.60935">
        <ele>65.361311</ele>
        <time>2022-05-06T10:02:11.529Z</time>
      </trkpt>
      <trkpt lat="41.37152" lon="19.60953">
        <ele>64.834715</ele>
        <time>2022-05-06T10:02:14.565Z</time>
      </trkpt>
      <trkpt lat="41.37155" lon="19.6097">
        <ele>64.668045</ele>
        <time>2022-05-06T10:02:17.534Z</time>
      </trkpt>
      <trkpt lat="41.37158" lon="19.60987">
        <ele>64.865527</ele>
        <time>2022-05-06T10:02:20.529Z</time>
      </trkpt>
      <trkpt lat="41.37161" lon="19.61004">
        <ele>65.060483</ele>
        <time>2022-05-06T10:02:23.559Z</time>
      </trkpt>
      <trkpt lat="41.37163" lon="19.6102">
        <ele>65.249185</ele>
        <time>2022-05-06T10:02:26.570Z</time>
      </trkpt>
      <trkpt lat="41.37167" lon="19.61036">
        <ele>65.436419</ele>
        <time>2022-05-06T10:02:29.533Z</time>
      </trkpt>
      <trkpt lat="41.3717" lon="19.61052">
        <ele>65.615643</ele>
        <time>2022-05-06T10:02:32.542Z</time>
      </trkpt>
      <trkpt lat="41.37173" lon="19.61068">
        <ele>65.811789</ele>
        <time>2022-05-06T10:02:35.547Z</time>
      </trkpt>
      <trkpt lat="41.37176" lon="19.61084">
        <ele>65.998656</ele>
        <time>2022-05-06T10:02:38.534Z</time>
      </trkpt>
      <trkpt lat="41.37178" lon="19.61098">
        <ele>66.154271</ele>
        <time>2022-05-06T10:02:41.548Z</time>
      </trkpt>
      <trkpt lat="41.37181" lon="19.61113">
        <ele>66.328648</ele>
        <time>2022-05-06T10:02:44.543Z</time>
      </trkpt>
      <trkpt lat="41.37183" lon="19.61129">
        <ele>66.50803</ele>
        <time>2022-05-06T10:02:47.535Z</time>
      </trkpt>
      <trkpt lat="41.37185" lon="19.61143">
        <ele>66.667748</ele>
        <time>2022-05-06T10:02:50.552Z</time>
      </trkpt>
      <trkpt lat="41.37187" lon="19.61157">
        <ele>66.83084</ele>
        <time>2022-05-06T10:02:53.534Z</time>
      </trkpt>
      <trkpt lat="41.3719" lon="19.61173">
        <ele>67.017006</ele>
        <time>2022-05-06T10:02:56.528Z</time>
      </trkpt>
      <trkpt lat="41.37192" lon="19.61189">
        <ele>67.205821</ele>
        <time>2022-05-06T10:02:59.533Z</time>
      </trkpt>
      <trkpt lat="41.37195" lon="19.61205">
        <ele>67.399106</ele>
        <time>2022-05-06T10:03:02.579Z</time>
      </trkpt>
      <trkpt lat="41.37197" lon="19.6122">
        <ele>67.595043</ele>
        <time>2022-05-06T10:03:05.528Z</time>
      </trkpt>
      <trkpt lat="41.372" lon="19.61235">
        <ele>67.786867</ele>
        <time>2022-05-06T10:03:08.534Z</time>
      </trkpt>
      <trkpt lat="41.37202" lon="19.6125">
        <ele>67.967517</ele>
        <time>2022-05-06T10:03:11.548Z</time>
      </trkpt>
      <trkpt lat="41.37205" lon="19.61264">
        <ele>68.150107</ele>
        <time>2022-05-06T10:03:14.566Z</time>
      </trkpt>
      <trkpt lat="41.37208" lon="19.61279">
        <ele>68.338305</ele>
        <time>2022-05-06T10:03:17.551Z</time>
      </trkpt>
      <trkpt lat="41.37211" lon="19.61294">
        <ele>68.539121</ele>
        <time>2022-05-06T10:03:20.532Z</time>
      </trkpt>
      <trkpt lat="41.37213" lon="19.61309">
        <ele>68.724984</ele>
        <time>2022-05-06T10:03:23.548Z</time>
      </trkpt>
      <trkpt lat="41.37216" lon="19.61323">
        <ele>68.907956</ele>
        <time>2022-05-06T10:03:26.551Z</time>
      </trkpt>
      <trkpt lat="41.37219" lon="19.61337">
        <ele>69.09012</ele>
        <time>2022-05-06T10:03:29.529Z</time>
      </trkpt>
      <trkpt lat="41.37221" lon="19.61352">
        <ele>69.273921</ele>
        <time>2022-05-06T10:03:32.563Z</time>
      </trkpt>
      <trkpt lat="41.37223" lon="19.61366">
        <ele>69.451794</ele>
        <time>2022-05-06T10:03:35.592Z</time>
      </trkpt>
      <trkpt lat="41.37229" lon="19.6138">
        <ele>69.655721</ele>
        <time>2022-05-06T10:03:38.541Z</time>
      </trkpt>
      <trkpt lat="41.37236" lon="19.61393">
        <ele>69.850697</ele>
        <time>2022-05-06T10:03:41.547Z</time>
      </trkpt>
      <trkpt lat="41.37242" lon="19.61406">
        <ele>70.042415</ele>
        <time>2022-05-06T10:03:44.543Z</time>
      </trkpt>
      <trkpt lat="41.37248" lon="19.61422">
        <ele>70.243253</ele>
        <time>2022-05-06T10:03:47.526Z</time>
      </trkpt>
      <trkpt lat="41.37255" lon="19.61437">
        <ele>70.092004</ele>
        <time>2022-05-06T10:03:50.528Z</time>
      </trkpt>
      <trkpt lat="41.37261" lon="19.6145">
        <ele>69.956057</ele>
        <time>2022-05-06T10:03:53.517Z</time>
      </trkpt>
      <trkpt lat="41.37268" lon="19.61465">
        <ele>69.806041</ele>
        <time>2022-05-06T10:03:56.526Z</time>
      </trkpt>
      <trkpt lat="41.37274" lon="19.61478">
        <ele>69.664981</ele>
        <time>2022-05-06T10:03:59.532Z</time>
      </trkpt>
      <trkpt lat="41.37281" lon="19.61492">
        <ele>69.523295</ele>
        <time>2022-05-06T10:04:02.530Z</time>
      </trkpt>
      <trkpt lat="41.37287" lon="19.61505">
        <ele>69.392399</ele>
        <time>2022-05-06T10:04:05.546Z</time>
      </trkpt>
      <trkpt lat="41.37293" lon="19.61519">
        <ele>69.2511</ele>
        <time>2022-05-06T10:04:08.543Z</time>
      </trkpt>
      <trkpt lat="41.373" lon="19.61533">
        <ele>69.102533</ele>
        <time>2022-05-06T10:04:11.551Z</time>
      </trkpt>
      <trkpt lat="41.37307" lon="19.61547">
        <ele>68.955955</ele>
        <time>2022-05-06T10:04:14.531Z</time>
      </trkpt>
      <trkpt lat="41.37315" lon="19.61562">
        <ele>68.802752</ele>
        <time>2022-05-06T10:04:17.542Z</time>
      </trkpt>
      <trkpt lat="41.3732" lon="19.61572">
        <ele>68.696962</ele>
        <time>2022-05-06T10:04:19.527Z</time>
      </trkpt>
      <trkpt lat="41.37327" lon="19.61587">
        <ele>68.545995</ele>
        <time>2022-05-06T10:04:22.534Z</time>
      </trkpt>
      <trkpt lat="41.37334" lon="19.61602">
        <ele>68.391331</ele>
        <time>2022-05-06T10:04:25.539Z</time>
      </trkpt>
      <trkpt lat="41.37338" lon="19.61613">
        <ele>68.286978</ele>
        <time>2022-05-06T10:04:27.539Z</time>
      </trkpt>
      <trkpt lat="41.37342" lon="19.61624">
        <ele>68.183653</ele>
        <time>2022-05-06T10:04:29.547Z</time>
      </trkpt>
      <trkpt lat="41.37346" lon="19.61634">
        <ele>68.256333</ele>
        <time>2022-05-06T10:04:31.555Z</time>
      </trkpt>
      <trkpt lat="41.37353" lon="19.6165">
        <ele>68.384884</ele>
        <time>2022-05-06T10:04:34.553Z</time>
      </trkpt>
      <trkpt lat="41.3736" lon="19.61663">
        <ele>68.506192</ele>
        <time>2022-05-06T10:04:37.538Z</time>
      </trkpt>
      <trkpt lat="41.37366" lon="19.61676">
        <ele>68.620366</ele>
        <time>2022-05-06T10:04:40.531Z</time>
      </trkpt>
      <trkpt lat="41.37373" lon="19.61691">
        <ele>68.743099</ele>
        <time>2022-05-06T10:04:43.528Z</time>
      </trkpt>
      <trkpt lat="41.37379" lon="19.61706">
        <ele>68.872451</ele>
        <time>2022-05-06T10:04:46.540Z</time>
      </trkpt>
      <trkpt lat="41.37386" lon="19.61721">
        <ele>69.002868</ele>
        <time>2022-05-06T10:04:49.534Z</time>
      </trkpt>
      <trkpt lat="41.37391" lon="19.61731">
        <ele>69.094636</ele>
        <time>2022-05-06T10:04:51.529Z</time>
      </trkpt>
      <trkpt lat="41.37396" lon="19.61742">
        <ele>69.183626</ele>
        <time>2022-05-06T10:04:53.534Z</time>
      </trkpt>
      <trkpt lat="41.37402" lon="19.61752">
        <ele>69.277074</ele>
        <time>2022-05-06T10:04:55.527Z</time>
      </trkpt>
      <trkpt lat="41.37408" lon="19.61762">
        <ele>69.369939</ele>
        <time>2022-05-06T10:04:57.546Z</time>
      </trkpt>
      <trkpt lat="41.37415" lon="19.61777">
        <ele>69.498925</ele>
        <time>2022-05-06T10:05:00.544Z</time>
      </trkpt>
      <trkpt lat="41.37422" lon="19.61792">
        <ele>69.627577</ele>
        <time>2022-05-06T10:05:03.551Z</time>
      </trkpt>
      <trkpt lat="41.37429" lon="19.61805">
        <ele>69.745831</ele>
        <time>2022-05-06T10:05:06.537Z</time>
      </trkpt>
      <trkpt lat="41.37435" lon="19.6182">
        <ele>69.875229</ele>
        <time>2022-05-06T10:05:09.538Z</time>
      </trkpt>
      <trkpt lat="41.3744" lon="19.6183">
        <ele>69.915687</ele>
        <time>2022-05-06T10:05:11.530Z</time>
      </trkpt>
      <trkpt lat="41.37447" lon="19.61844">
        <ele>69.831862</ele>
        <time>2022-05-06T10:05:14.549Z</time>
      </trkpt>
      <trkpt lat="41.37452" lon="19.61858">
        <ele>69.756333</ele>
        <time>2022-05-06T10:05:17.536Z</time>
      </trkpt>
      <trkpt lat="41.37459" lon="19.61872">
        <ele>69.67362</ele>
        <time>2022-05-06T10:05:20.528Z</time>
      </trkpt>
      <trkpt lat="41.37466" lon="19.61886">
        <ele>69.59124</ele>
        <time>2022-05-06T10:05:23.532Z</time>
      </trkpt>
      <trkpt lat="41.37473" lon="19.619">
        <ele>69.504161</ele>
        <time>2022-05-06T10:05:26.552Z</time>
      </trkpt>
      <trkpt lat="41.37479" lon="19.61911">
        <ele>69.43754</ele>
        <time>2022-05-06T10:05:28.539Z</time>
      </trkpt>
      <trkpt lat="41.37484" lon="19.61922">
        <ele>69.373563</ele>
        <time>2022-05-06T10:05:30.570Z</time>
      </trkpt>
      <trkpt lat="41.3749" lon="19.61937">
        <ele>69.289565</ele>
        <time>2022-05-06T10:05:33.531Z</time>
      </trkpt>
      <trkpt lat="41.37495" lon="19.6195">
        <ele>69.213689</ele>
        <time>2022-05-06T10:05:36.534Z</time>
      </trkpt>
      <trkpt lat="41.37501" lon="19.61963">
        <ele>69.138215</ele>
        <time>2022-05-06T10:05:39.532Z</time>
      </trkpt>
      <trkpt lat="41.37507" lon="19.61976">
        <ele>69.066658</ele>
        <time>2022-05-06T10:05:42.535Z</time>
      </trkpt>
      <trkpt lat="41.37512" lon="19.61988">
        <ele>68.998421</ele>
        <time>2022-05-06T10:05:45.549Z</time>
      </trkpt>
      <trkpt lat="41.37518" lon="19.62001">
        <ele>68.920166</ele>
        <time>2022-05-06T10:05:48.545Z</time>
      </trkpt>
      <trkpt lat="41.37524" lon="19.62015">
        <ele>68.839743</ele>
        <time>2022-05-06T10:05:51.556Z</time>
      </trkpt>
      <trkpt lat="41.37531" lon="19.62029">
        <ele>68.757729</ele>
        <time>2022-05-06T10:05:54.599Z</time>
      </trkpt>
      <trkpt lat="41.37538" lon="19.62043">
        <ele>68.925306</ele>
        <time>2022-05-06T10:05:57.538Z</time>
      </trkpt>
      <trkpt lat="41.37544" lon="19.62056">
        <ele>69.124918</ele>
        <time>2022-05-06T10:06:00.549Z</time>
      </trkpt>
      <trkpt lat="41.37551" lon="19.62069">
        <ele>69.321134</ele>
        <time>2022-05-06T10:06:03.524Z</time>
      </trkpt>
      <trkpt lat="41.37556" lon="19.62081">
        <ele>69.49994</ele>
        <time>2022-05-06T10:06:06.554Z</time>
      </trkpt>
      <trkpt lat="41.37561" lon="19.62092">
        <ele>69.66876</ele>
        <time>2022-05-06T10:06:09.541Z</time>
      </trkpt>
      <trkpt lat="41.37566" lon="19.62103">
        <ele>69.838016</ele>
        <time>2022-05-06T10:06:12.524Z</time>
      </trkpt>
      <trkpt lat="41.37572" lon="19.62114">
        <ele>70.001287</ele>
        <time>2022-05-06T10:06:15.539Z</time>
      </trkpt>
      <trkpt lat="41.37577" lon="19.62124">
        <ele>70.160317</ele>
        <time>2022-05-06T10:06:18.547Z</time>
      </trkpt>
      <trkpt lat="41.37583" lon="19.62134">
        <ele>70.327504</ele>
        <time>2022-05-06T10:06:21.533Z</time>
      </trkpt>
      <trkpt lat="41.37589" lon="19.62147">
        <ele>70.516318</ele>
        <time>2022-05-06T10:06:25.553Z</time>
      </trkpt>
      <trkpt lat="41.37592" lon="19.62158">
        <ele>70.671744</ele>
        <time>2022-05-06T10:06:28.583Z</time>
      </trkpt>
      <trkpt lat="41.37597" lon="19.6217">
        <ele>70.851332</ele>
        <time>2022-05-06T10:06:31.549Z</time>
      </trkpt>
      <trkpt lat="41.37603" lon="19.62182">
        <ele>71.028954</ele>
        <time>2022-05-06T10:06:34.534Z</time>
      </trkpt>
      <trkpt lat="41.37608" lon="19.62192">
        <ele>71.186876</ele>
        <time>2022-05-06T10:06:37.532Z</time>
      </trkpt>
      <trkpt lat="41.37613" lon="19.62206">
        <ele>71.390561</ele>
        <time>2022-05-06T10:06:41.543Z</time>
      </trkpt>
      <trkpt lat="41.37618" lon="19.62217">
        <ele>71.543078</ele>
        <time>2022-05-06T10:06:44.535Z</time>
      </trkpt>
      <trkpt lat="41.37624" lon="19.62229">
        <ele>71.728044</ele>
        <time>2022-05-06T10:06:48.530Z</time>
      </trkpt>
      <trkpt lat="41.3763" lon="19.62241">
        <ele>71.902636</ele>
        <time>2022-05-06T10:06:52.542Z</time>
      </trkpt>
      <trkpt lat="41.37635" lon="19.62252">
        <ele>72.069235</ele>
        <time>2022-05-06T10:06:56.531Z</time>
      </trkpt>
      <trkpt lat="41.3764" lon="19.62263">
        <ele>72.212789</ele>
        <time>2022-05-06T10:06:59.546Z</time>
      </trkpt>
      <trkpt lat="41.37645" lon="19.62273">
        <ele>72.360548</ele>
        <time>2022-05-06T10:07:02.560Z</time>
      </trkpt>
      <trkpt lat="41.37654" lon="19.62279">
        <ele>72.521749</ele>
        <time>2022-05-06T10:07:06.526Z</time>
      </trkpt>
      <trkpt lat="41.37664" lon="19.62281">
        <ele>72.69053</ele>
        <time>2022-05-06T10:07:10.535Z</time>
      </trkpt>
      <trkpt lat="41.37674" lon="19.62275">
        <ele>72.861958</ele>
        <time>2022-05-06T10:07:15.542Z</time>
      </trkpt>
      <trkpt lat="41.37679" lon="19.62264">
        <ele>73.010843</ele>
        <time>2022-05-06T10:10:22.538Z</time>
      </trkpt>
      <trkpt lat="41.37664" lon="19.62271">
        <ele>73.263734</ele>
        <time>2022-05-06T10:32:04.556Z</time>
      </trkpt>
      <trkpt lat="41.37658" lon="19.62279">
        <ele>73.408997</ele>
        <time>2022-05-06T10:32:10.543Z</time>
      </trkpt>
      <trkpt lat="41.37659" lon="19.62293">
        <ele>73.574821</ele>
        <time>2022-05-06T10:32:17.536Z</time>
      </trkpt>
      <trkpt lat="41.37665" lon="19.62314">
        <ele>73.840385</ele>
        <time>2022-05-06T10:32:21.543Z</time>
      </trkpt>
      <trkpt lat="41.37671" lon="19.62328">
        <ele>74.03087</ele>
        <time>2022-05-06T10:32:25.544Z</time>
      </trkpt>
      <trkpt lat="41.37676" lon="19.6234">
        <ele>74.20698</ele>
        <time>2022-05-06T10:32:29.548Z</time>
      </trkpt>
      <trkpt lat="41.37684" lon="19.62352">
        <ele>74.390255</ele>
        <time>2022-05-06T10:32:33.594Z</time>
      </trkpt>
      <trkpt lat="41.37689" lon="19.62365">
        <ele>74.562259</ele>
        <time>2022-05-06T10:32:37.559Z</time>
      </trkpt>
      <trkpt lat="41.37694" lon="19.62378">
        <ele>74.651783</ele>
        <time>2022-05-06T10:32:41.557Z</time>
      </trkpt>
      <trkpt lat="41.377" lon="19.62388">
        <ele>74.549448</ele>
        <time>2022-05-06T10:32:44.556Z</time>
      </trkpt>
      <trkpt lat="41.37707" lon="19.62398">
        <ele>74.437753</ele>
        <time>2022-05-06T10:32:47.547Z</time>
      </trkpt>
      <trkpt lat="41.37715" lon="19.62407">
        <ele>74.321432</ele>
        <time>2022-05-06T10:32:50.556Z</time>
      </trkpt>
      <trkpt lat="41.37723" lon="19.62416">
        <ele>74.205346</ele>
        <time>2022-05-06T10:32:53.557Z</time>
      </trkpt>
      <trkpt lat="41.37732" lon="19.62425">
        <ele>74.077316</ele>
        <time>2022-05-06T10:32:56.538Z</time>
      </trkpt>
      <trkpt lat="41.37742" lon="19.62435">
        <ele>73.941421</ele>
        <time>2022-05-06T10:32:59.529Z</time>
      </trkpt>
      <trkpt lat="41.37753" lon="19.62445">
        <ele>73.791512</ele>
        <time>2022-05-06T10:33:02.550Z</time>
      </trkpt>
      <trkpt lat="41.3776" lon="19.62453">
        <ele>73.685271</ele>
        <time>2022-05-06T10:33:04.562Z</time>
      </trkpt>
      <trkpt lat="41.37768" lon="19.6246">
        <ele>73.577637</ele>
        <time>2022-05-06T10:33:06.549Z</time>
      </trkpt>
      <trkpt lat="41.37776" lon="19.62468">
        <ele>73.468611</ele>
        <time>2022-05-06T10:33:08.556Z</time>
      </trkpt>
      <trkpt lat="41.37784" lon="19.62476">
        <ele>73.357349</ele>
        <time>2022-05-06T10:33:10.539Z</time>
      </trkpt>
      <trkpt lat="41.37792" lon="19.62484">
        <ele>73.245432</ele>
        <time>2022-05-06T10:33:12.563Z</time>
      </trkpt>
      <trkpt lat="41.37801" lon="19.62492">
        <ele>73.120252</ele>
        <time>2022-05-06T10:33:14.549Z</time>
      </trkpt>
      <trkpt lat="41.3781" lon="19.62501">
        <ele>72.996803</ele>
        <time>2022-05-06T10:33:16.586Z</time>
      </trkpt>
      <trkpt lat="41.37818" lon="19.62509">
        <ele>72.886279</ele>
        <time>2022-05-06T10:33:18.542Z</time>
      </trkpt>
      <trkpt lat="41.37826" lon="19.62516">
        <ele>72.782907</ele>
        <time>2022-05-06T10:33:20.558Z</time>
      </trkpt>
      <trkpt lat="41.37834" lon="19.62523">
        <ele>72.684378</ele>
        <time>2022-05-06T10:33:22.549Z</time>
      </trkpt>
      <trkpt lat="41.37842" lon="19.62532">
        <ele>72.656273</ele>
        <time>2022-05-06T10:33:24.563Z</time>
      </trkpt>
      <trkpt lat="41.3785" lon="19.6254">
        <ele>72.628942</ele>
        <time>2022-05-06T10:33:26.559Z</time>
      </trkpt>
      <trkpt lat="41.37861" lon="19.62551">
        <ele>72.592273</ele>
        <time>2022-05-06T10:33:29.568Z</time>
      </trkpt>
      <trkpt lat="41.37871" lon="19.62562">
        <ele>72.555565</ele>
        <time>2022-05-06T10:33:32.553Z</time>
      </trkpt>
      <trkpt lat="41.37879" lon="19.6257">
        <ele>72.527853</ele>
        <time>2022-05-06T10:33:34.554Z</time>
      </trkpt>
      <trkpt lat="41.37888" lon="19.62577">
        <ele>72.501049</ele>
        <time>2022-05-06T10:33:36.561Z</time>
      </trkpt>
      <trkpt lat="41.37895" lon="19.62585">
        <ele>72.476106</ele>
        <time>2022-05-06T10:33:38.559Z</time>
      </trkpt>
      <trkpt lat="41.37905" lon="19.62595">
        <ele>72.441785</ele>
        <time>2022-05-06T10:33:41.539Z</time>
      </trkpt>
      <trkpt lat="41.37914" lon="19.62606">
        <ele>72.408591</ele>
        <time>2022-05-06T10:33:44.542Z</time>
      </trkpt>
      <trkpt lat="41.37923" lon="19.62616">
        <ele>72.375334</ele>
        <time>2022-05-06T10:33:47.565Z</time>
      </trkpt>
      <trkpt lat="41.37933" lon="19.62625">
        <ele>72.34394</ele>
        <time>2022-05-06T10:33:50.585Z</time>
      </trkpt>
      <trkpt lat="41.37942" lon="19.62634">
        <ele>72.312174</ele>
        <time>2022-05-06T10:33:53.547Z</time>
      </trkpt>
      <trkpt lat="41.37951" lon="19.62644">
        <ele>72.280342</ele>
        <time>2022-05-06T10:33:56.539Z</time>
      </trkpt>
      <trkpt lat="41.3796" lon="19.62652">
        <ele>72.251479</ele>
        <time>2022-05-06T10:33:59.545Z</time>
      </trkpt>
      <trkpt lat="41.37968" lon="19.6266">
        <ele>72.223427</ele>
        <time>2022-05-06T10:34:02.529Z</time>
      </trkpt>
      <trkpt lat="41.37977" lon="19.62668">
        <ele>72.21915</ele>
        <time>2022-05-06T10:34:05.543Z</time>
      </trkpt>
      <trkpt lat="41.37985" lon="19.62676">
        <ele>72.539789</ele>
        <time>2022-05-06T10:34:08.534Z</time>
      </trkpt>
      <trkpt lat="41.37994" lon="19.62684">
        <ele>72.851507</ele>
        <time>2022-05-06T10:34:11.537Z</time>
      </trkpt>
      <trkpt lat="41.38002" lon="19.62691">
        <ele>73.149316</ele>
        <time>2022-05-06T10:34:14.543Z</time>
      </trkpt>
      <trkpt lat="41.3801" lon="19.62699">
        <ele>73.454652</ele>
        <time>2022-05-06T10:34:17.545Z</time>
      </trkpt>
      <trkpt lat="41.38019" lon="19.62708">
        <ele>73.809538</ele>
        <time>2022-05-06T10:34:20.551Z</time>
      </trkpt>
      <trkpt lat="41.38029" lon="19.62718">
        <ele>74.163283</ele>
        <time>2022-05-06T10:34:23.582Z</time>
      </trkpt>
      <trkpt lat="41.38037" lon="19.62726">
        <ele>74.494806</ele>
        <time>2022-05-06T10:34:26.543Z</time>
      </trkpt>
      <trkpt lat="41.38046" lon="19.62735">
        <ele>74.830552</ele>
        <time>2022-05-06T10:34:29.528Z</time>
      </trkpt>
      <trkpt lat="41.38055" lon="19.62742">
        <ele>75.140969</ele>
        <time>2022-05-06T10:34:32.569Z</time>
      </trkpt>
      <trkpt lat="41.38063" lon="19.62751">
        <ele>75.465902</ele>
        <time>2022-05-06T10:34:35.576Z</time>
      </trkpt>
      <trkpt lat="41.38072" lon="19.62759">
        <ele>75.792882</ele>
        <time>2022-05-06T10:34:38.581Z</time>
      </trkpt>
      <trkpt lat="41.38081" lon="19.62768">
        <ele>76.140362</ele>
        <time>2022-05-06T10:34:41.552Z</time>
      </trkpt>
      <trkpt lat="41.38092" lon="19.62778">
        <ele>76.53978</ele>
        <time>2022-05-06T10:34:44.544Z</time>
      </trkpt>
      <trkpt lat="41.38102" lon="19.62788">
        <ele>76.926439</ele>
        <time>2022-05-06T10:34:47.551Z</time>
      </trkpt>
      <trkpt lat="41.38112" lon="19.62797">
        <ele>77.291418</ele>
        <time>2022-05-06T10:34:50.552Z</time>
      </trkpt>
      <trkpt lat="41.38121" lon="19.62807">
        <ele>77.658135</ele>
        <time>2022-05-06T10:34:53.533Z</time>
      </trkpt>
      <trkpt lat="41.38131" lon="19.62816">
        <ele>77.794979</ele>
        <time>2022-05-06T10:34:56.553Z</time>
      </trkpt>
      <trkpt lat="41.3814" lon="19.62825">
        <ele>77.914259</ele>
        <time>2022-05-06T10:34:59.553Z</time>
      </trkpt>
      <trkpt lat="41.38148" lon="19.62834">
        <ele>78.025835</ele>
        <time>2022-05-06T10:35:02.575Z</time>
      </trkpt>
      <trkpt lat="41.38156" lon="19.62842">
        <ele>78.126428</ele>
        <time>2022-05-06T10:35:05.544Z</time>
      </trkpt>
      <trkpt lat="41.38163" lon="19.62849">
        <ele>78.227394</ele>
        <time>2022-05-06T10:35:08.551Z</time>
      </trkpt>
      <trkpt lat="41.38171" lon="19.62858">
        <ele>78.329843</ele>
        <time>2022-05-06T10:35:11.577Z</time>
      </trkpt>
      <trkpt lat="41.38178" lon="19.62866">
        <ele>78.427777</ele>
        <time>2022-05-06T10:35:14.571Z</time>
      </trkpt>
      <trkpt lat="41.38187" lon="19.62874">
        <ele>78.549057</ele>
        <time>2022-05-06T10:35:18.562Z</time>
      </trkpt>
      <trkpt lat="41.38194" lon="19.62881">
        <ele>78.645482</ele>
        <time>2022-05-06T10:35:21.550Z</time>
      </trkpt>
      <trkpt lat="41.38202" lon="19.62887">
        <ele>78.743228</ele>
        <time>2022-05-06T10:35:24.554Z</time>
      </trkpt>
      <trkpt lat="41.3821" lon="19.62895">
        <ele>78.845918</ele>
        <time>2022-05-06T10:35:27.553Z</time>
      </trkpt>
      <trkpt lat="41.38217" lon="19.62902">
        <ele>78.94374</ele>
        <time>2022-05-06T10:35:30.556Z</time>
      </trkpt>
      <trkpt lat="41.38226" lon="19.6291">
        <ele>79.05169</ele>
        <time>2022-05-06T10:35:33.529Z</time>
      </trkpt>
      <trkpt lat="41.38234" lon="19.62917">
        <ele>79.15566</ele>
        <time>2022-05-06T10:35:36.601Z</time>
      </trkpt>
      <trkpt lat="41.38241" lon="19.62925">
        <ele>79.25906</ele>
        <time>2022-05-06T10:35:39.551Z</time>
      </trkpt>
      <trkpt lat="41.38248" lon="19.62934">
        <ele>79.361252</ele>
        <time>2022-05-06T10:35:42.541Z</time>
      </trkpt>
      <trkpt lat="41.38255" lon="19.62942">
        <ele>79.461559</ele>
        <time>2022-05-06T10:35:45.562Z</time>
      </trkpt>
      <trkpt lat="41.38263" lon="19.62949">
        <ele>79.562151</ele>
        <time>2022-05-06T10:35:48.547Z</time>
      </trkpt>
      <trkpt lat="41.38271" lon="19.62957">
        <ele>79.605858</ele>
        <time>2022-05-06T10:35:51.541Z</time>
      </trkpt>
      <trkpt lat="41.38278" lon="19.62964">
        <ele>79.623516</ele>
        <time>2022-05-06T10:35:54.559Z</time>
      </trkpt>
      <trkpt lat="41.38286" lon="19.62972">
        <ele>79.642447</ele>
        <time>2022-05-06T10:35:57.578Z</time>
      </trkpt>
      <trkpt lat="41.38295" lon="19.6298">
        <ele>79.662206</ele>
        <time>2022-05-06T10:36:00.554Z</time>
      </trkpt>
      <trkpt lat="41.38303" lon="19.62988">
        <ele>79.681202</ele>
        <time>2022-05-06T10:36:03.579Z</time>
      </trkpt>
      <trkpt lat="41.38312" lon="19.62997">
        <ele>79.70302</ele>
        <time>2022-05-06T10:36:06.551Z</time>
      </trkpt>
      <trkpt lat="41.38321" lon="19.63005">
        <ele>79.722859</ele>
        <time>2022-05-06T10:36:09.601Z</time>
      </trkpt>
      <trkpt lat="41.3833" lon="19.63013">
        <ele>79.744364</ele>
        <time>2022-05-06T10:36:12.541Z</time>
      </trkpt>
      <trkpt lat="41.3834" lon="19.63021">
        <ele>79.765782</ele>
        <time>2022-05-06T10:36:15.549Z</time>
      </trkpt>
      <trkpt lat="41.38349" lon="19.6303">
        <ele>79.787528</ele>
        <time>2022-05-06T10:36:18.550Z</time>
      </trkpt>
      <trkpt lat="41.3836" lon="19.63039">
        <ele>79.811987</ele>
        <time>2022-05-06T10:36:21.552Z</time>
      </trkpt>
      <trkpt lat="41.38368" lon="19.63045">
        <ele>79.830059</ele>
        <time>2022-05-06T10:36:23.559Z</time>
      </trkpt>
      <trkpt lat="41.38377" lon="19.63051">
        <ele>79.847993</ele>
        <time>2022-05-06T10:36:25.551Z</time>
      </trkpt>
      <trkpt lat="41.38384" lon="19.63058">
        <ele>79.865802</ele>
        <time>2022-05-06T10:36:27.574Z</time>
      </trkpt>
      <trkpt lat="41.38392" lon="19.63066">
        <ele>79.884308</ele>
        <time>2022-05-06T10:36:29.579Z</time>
      </trkpt>
      <trkpt lat="41.384" lon="19.63073">
        <ele>79.902665</ele>
        <time>2022-05-06T10:36:31.533Z</time>
      </trkpt>
      <trkpt lat="41.38408" lon="19.6308">
        <ele>79.920687</ele>
        <time>2022-05-06T10:36:33.562Z</time>
      </trkpt>
      <trkpt lat="41.38419" lon="19.6309">
        <ele>79.987107</ele>
        <time>2022-05-06T10:36:36.538Z</time>
      </trkpt>
      <trkpt lat="41.3843" lon="19.631">
        <ele>80.108591</ele>
        <time>2022-05-06T10:36:39.541Z</time>
      </trkpt>
      <trkpt lat="41.38438" lon="19.63106">
        <ele>80.191465</ele>
        <time>2022-05-06T10:36:41.565Z</time>
      </trkpt>
      <trkpt lat="41.38449" lon="19.63116">
        <ele>80.306233</ele>
        <time>2022-05-06T10:36:44.548Z</time>
      </trkpt>
      <trkpt lat="41.38459" lon="19.63124">
        <ele>80.411545</ele>
        <time>2022-05-06T10:36:47.560Z</time>
      </trkpt>
      <trkpt lat="41.38469" lon="19.63133">
        <ele>80.521092</ele>
        <time>2022-05-06T10:36:50.537Z</time>
      </trkpt>
      <trkpt lat="41.3848" lon="19.63141">
        <ele>80.630656</ele>
        <time>2022-05-06T10:36:53.558Z</time>
      </trkpt>
      <trkpt lat="41.38489" lon="19.63151">
        <ele>80.736826</ele>
        <time>2022-05-06T10:36:56.553Z</time>
      </trkpt>
      <trkpt lat="41.385" lon="19.63161">
        <ele>80.852355</ele>
        <time>2022-05-06T10:36:59.577Z</time>
      </trkpt>
      <trkpt lat="41.38508" lon="19.63168">
        <ele>80.936612</ele>
        <time>2022-05-06T10:37:01.562Z</time>
      </trkpt>
      <trkpt lat="41.38516" lon="19.63176">
        <ele>81.032372</ele>
        <time>2022-05-06T10:37:03.569Z</time>
      </trkpt>
      <trkpt lat="41.38526" lon="19.63184">
        <ele>81.13782</ele>
        <time>2022-05-06T10:37:05.555Z</time>
      </trkpt>
      <trkpt lat="41.38536" lon="19.63193">
        <ele>81.246997</ele>
        <time>2022-05-06T10:37:07.558Z</time>
      </trkpt>
      <trkpt lat="41.38547" lon="19.63202">
        <ele>81.358034</ele>
        <time>2022-05-06T10:37:09.536Z</time>
      </trkpt>
      <trkpt lat="41.38557" lon="19.63211">
        <ele>81.468329</ele>
        <time>2022-05-06T10:37:11.543Z</time>
      </trkpt>
      <trkpt lat="41.38567" lon="19.6322">
        <ele>81.516168</ele>
        <time>2022-05-06T10:37:13.555Z</time>
      </trkpt>
      <trkpt lat="41.38576" lon="19.63228">
        <ele>81.404353</ele>
        <time>2022-05-06T10:37:15.565Z</time>
      </trkpt>
      <trkpt lat="41.38586" lon="19.63236">
        <ele>81.288688</ele>
        <time>2022-05-06T10:37:17.547Z</time>
      </trkpt>
      <trkpt lat="41.38594" lon="19.63243">
        <ele>81.191107</ele>
        <time>2022-05-06T10:37:19.541Z</time>
      </trkpt>
      <trkpt lat="41.38601" lon="19.6325">
        <ele>81.099397</ele>
        <time>2022-05-06T10:37:21.576Z</time>
      </trkpt>
      <trkpt lat="41.38609" lon="19.63258">
        <ele>81.007088</ele>
        <time>2022-05-06T10:37:23.543Z</time>
      </trkpt>
      <trkpt lat="41.38619" lon="19.63266">
        <ele>80.885206</ele>
        <time>2022-05-06T10:37:26.560Z</time>
      </trkpt>
      <trkpt lat="41.38629" lon="19.63274">
        <ele>80.768745</ele>
        <time>2022-05-06T10:37:29.563Z</time>
      </trkpt>
      <trkpt lat="41.38637" lon="19.63281">
        <ele>80.667716</ele>
        <time>2022-05-06T10:37:32.562Z</time>
      </trkpt>
      <trkpt lat="41.38645" lon="19.63288">
        <ele>80.573416</ele>
        <time>2022-05-06T10:37:35.560Z</time>
      </trkpt>
      <trkpt lat="41.38653" lon="19.63295">
        <ele>80.476664</ele>
        <time>2022-05-06T10:37:38.534Z</time>
      </trkpt>
      <trkpt lat="41.38663" lon="19.63302">
        <ele>80.36765</ele>
        <time>2022-05-06T10:37:41.550Z</time>
      </trkpt>
      <trkpt lat="41.38673" lon="19.6331">
        <ele>80.252663</ele>
        <time>2022-05-06T10:37:44.557Z</time>
      </trkpt>
      <trkpt lat="41.38681" lon="19.63318">
        <ele>80.147133</ele>
        <time>2022-05-06T10:37:47.544Z</time>
      </trkpt>
      <trkpt lat="41.3869" lon="19.63326">
        <ele>80.040753</ele>
        <time>2022-05-06T10:37:50.543Z</time>
      </trkpt>
      <trkpt lat="41.38698" lon="19.63332">
        <ele>79.944729</ele>
        <time>2022-05-06T10:37:53.572Z</time>
      </trkpt>
      <trkpt lat="41.38707" lon="19.6334">
        <ele>79.836267</ele>
        <time>2022-05-06T10:37:56.543Z</time>
      </trkpt>
      <trkpt lat="41.38716" lon="19.63348">
        <ele>79.723419</ele>
        <time>2022-05-06T10:37:59.535Z</time>
      </trkpt>
      <trkpt lat="41.38725" lon="19.63357">
        <ele>79.494058</ele>
        <time>2022-05-06T10:38:02.530Z</time>
      </trkpt>
      <trkpt lat="41.38735" lon="19.63365">
        <ele>79.257278</ele>
        <time>2022-05-06T10:38:05.573Z</time>
      </trkpt>
      <trkpt lat="41.38745" lon="19.63374">
        <ele>79.022147</ele>
        <time>2022-05-06T10:38:08.536Z</time>
      </trkpt>
      <trkpt lat="41.38756" lon="19.63382">
        <ele>78.784262</ele>
        <time>2022-05-06T10:38:11.572Z</time>
      </trkpt>
      <trkpt lat="41.38766" lon="19.63391">
        <ele>78.543714</ele>
        <time>2022-05-06T10:38:14.543Z</time>
      </trkpt>
      <trkpt lat="41.38775" lon="19.63398">
        <ele>78.325049</ele>
        <time>2022-05-06T10:38:17.545Z</time>
      </trkpt>
      <trkpt lat="41.38784" lon="19.63407">
        <ele>78.114351</ele>
        <time>2022-05-06T10:38:20.549Z</time>
      </trkpt>
      <trkpt lat="41.38794" lon="19.63415">
        <ele>77.884128</ele>
        <time>2022-05-06T10:38:23.554Z</time>
      </trkpt>
      <trkpt lat="41.38803" lon="19.63424">
        <ele>77.651411</ele>
        <time>2022-05-06T10:38:26.549Z</time>
      </trkpt>
      <trkpt lat="41.38813" lon="19.63433">
        <ele>77.412962</ele>
        <time>2022-05-06T10:38:29.542Z</time>
      </trkpt>
      <trkpt lat="41.38823" lon="19.63442">
        <ele>77.174514</ele>
        <time>2022-05-06T10:38:32.557Z</time>
      </trkpt>
      <trkpt lat="41.38834" lon="19.63452">
        <ele>76.921173</ele>
        <time>2022-05-06T10:38:35.544Z</time>
      </trkpt>
      <trkpt lat="41.38845" lon="19.63461">
        <ele>76.653865</ele>
        <time>2022-05-06T10:38:38.535Z</time>
      </trkpt>
      <trkpt lat="41.38854" lon="19.63468">
        <ele>76.456531</ele>
        <time>2022-05-06T10:38:40.575Z</time>
      </trkpt>
      <trkpt lat="41.38863" lon="19.63476">
        <ele>76.245333</ele>
        <time>2022-05-06T10:38:42.551Z</time>
      </trkpt>
      <trkpt lat="41.38873" lon="19.63483">
        <ele>76.236252</ele>
        <time>2022-05-06T10:38:44.548Z</time>
      </trkpt>
      <trkpt lat="41.38883" lon="19.63491">
        <ele>76.336796</ele>
        <time>2022-05-06T10:38:46.583Z</time>
      </trkpt>
      <trkpt lat="41.38893" lon="19.635">
        <ele>76.436204</ele>
        <time>2022-05-06T10:38:48.552Z</time>
      </trkpt>
      <trkpt lat="41.38902" lon="19.63508">
        <ele>76.535569</ele>
        <time>2022-05-06T10:38:50.592Z</time>
      </trkpt>
      <trkpt lat="41.38912" lon="19.63516">
        <ele>76.634978</ele>
        <time>2022-05-06T10:38:52.548Z</time>
      </trkpt>
      <trkpt lat="41.38921" lon="19.63524">
        <ele>76.732239</ele>
        <time>2022-05-06T10:38:54.554Z</time>
      </trkpt>
      <trkpt lat="41.38931" lon="19.63532">
        <ele>76.82731</ele>
        <time>2022-05-06T10:38:56.542Z</time>
      </trkpt>
      <trkpt lat="41.3894" lon="19.6354">
        <ele>76.921654</ele>
        <time>2022-05-06T10:38:58.547Z</time>
      </trkpt>
      <trkpt lat="41.38948" lon="19.63547">
        <ele>77.007789</ele>
        <time>2022-05-06T10:39:00.550Z</time>
      </trkpt>
      <trkpt lat="41.38957" lon="19.63554">
        <ele>77.092439</ele>
        <time>2022-05-06T10:39:02.551Z</time>
      </trkpt>
      <trkpt lat="41.38967" lon="19.63564">
        <ele>77.199688</ele>
        <time>2022-05-06T10:39:05.553Z</time>
      </trkpt>
      <trkpt lat="41.38977" lon="19.63572">
        <ele>77.301713</ele>
        <time>2022-05-06T10:39:08.544Z</time>
      </trkpt>
      <trkpt lat="41.38988" lon="19.63582">
        <ele>77.415078</ele>
        <time>2022-05-06T10:39:11.539Z</time>
      </trkpt>
      <trkpt lat="41.38999" lon="19.63591">
        <ele>77.525553</ele>
        <time>2022-05-06T10:39:14.563Z</time>
      </trkpt>
      <trkpt lat="41.39008" lon="19.636">
        <ele>77.626343</ele>
        <time>2022-05-06T10:39:17.541Z</time>
      </trkpt>
      <trkpt lat="41.39018" lon="19.63608">
        <ele>77.716883</ele>
        <time>2022-05-06T10:39:20.554Z</time>
      </trkpt>
      <trkpt lat="41.39027" lon="19.63617">
        <ele>77.663635</ele>
        <time>2022-05-06T10:39:23.558Z</time>
      </trkpt>
      <trkpt lat="41.39038" lon="19.63625">
        <ele>77.602219</ele>
        <time>2022-05-06T10:39:26.557Z</time>
      </trkpt>
      <trkpt lat="41.39046" lon="19.63631">
        <ele>77.556123</ele>
        <time>2022-05-06T10:39:28.554Z</time>
      </trkpt>
      <trkpt lat="41.39055" lon="19.63639">
        <ele>77.502794</ele>
        <time>2022-05-06T10:39:30.559Z</time>
      </trkpt>
      <trkpt lat="41.39065" lon="19.63646">
        <ele>77.450567</ele>
        <time>2022-05-06T10:39:32.544Z</time>
      </trkpt>
      <trkpt lat="41.39073" lon="19.63654">
        <ele>77.399575</ele>
        <time>2022-05-06T10:39:34.548Z</time>
      </trkpt>
      <trkpt lat="41.39083" lon="19.63662">
        <ele>77.345917</ele>
        <time>2022-05-06T10:39:36.551Z</time>
      </trkpt>
      <trkpt lat="41.39091" lon="19.6367">
        <ele>77.293277</ele>
        <time>2022-05-06T10:39:38.544Z</time>
      </trkpt>
      <trkpt lat="41.391" lon="19.63678">
        <ele>77.242855</ele>
        <time>2022-05-06T10:39:40.565Z</time>
      </trkpt>
      <trkpt lat="41.39109" lon="19.63686">
        <ele>77.191256</ele>
        <time>2022-05-06T10:39:42.532Z</time>
      </trkpt>
      <trkpt lat="41.39117" lon="19.63694">
        <ele>77.140461</ele>
        <time>2022-05-06T10:39:44.537Z</time>
      </trkpt>
      <trkpt lat="41.39126" lon="19.63702">
        <ele>77.089264</ele>
        <time>2022-05-06T10:39:46.562Z</time>
      </trkpt>
      <trkpt lat="41.39135" lon="19.63709">
        <ele>77.036401</ele>
        <time>2022-05-06T10:39:48.529Z</time>
      </trkpt>
      <trkpt lat="41.39144" lon="19.63717">
        <ele>76.985579</ele>
        <time>2022-05-06T10:39:50.555Z</time>
      </trkpt>
      <trkpt lat="41.39153" lon="19.63724">
        <ele>76.934342</ele>
        <time>2022-05-06T10:39:52.543Z</time>
      </trkpt>
      <trkpt lat="41.39162" lon="19.63731">
        <ele>76.883952</ele>
        <time>2022-05-06T10:39:54.559Z</time>
      </trkpt>
      <trkpt lat="41.39171" lon="19.63739">
        <ele>76.823016</ele>
        <time>2022-05-06T10:39:56.538Z</time>
      </trkpt>
      <trkpt lat="41.39179" lon="19.63746">
        <ele>76.730645</ele>
        <time>2022-05-06T10:39:58.561Z</time>
      </trkpt>
      <trkpt lat="41.39187" lon="19.63754">
        <ele>76.639046</ele>
        <time>2022-05-06T10:40:00.556Z</time>
      </trkpt>
      <trkpt lat="41.39195" lon="19.63761">
        <ele>76.54859</ele>
        <time>2022-05-06T10:40:02.544Z</time>
      </trkpt>
      <trkpt lat="41.39203" lon="19.63767">
        <ele>76.457713</ele>
        <time>2022-05-06T10:40:04.535Z</time>
      </trkpt>
      <trkpt lat="41.39212" lon="19.63774">
        <ele>76.366468</ele>
        <time>2022-05-06T10:40:06.555Z</time>
      </trkpt>
      <trkpt lat="41.3922" lon="19.63781">
        <ele>76.275637</ele>
        <time>2022-05-06T10:40:08.565Z</time>
      </trkpt>
      <trkpt lat="41.39228" lon="19.63788">
        <ele>76.186754</ele>
        <time>2022-05-06T10:40:10.545Z</time>
      </trkpt>
      <trkpt lat="41.39236" lon="19.63795">
        <ele>76.10098</ele>
        <time>2022-05-06T10:40:12.532Z</time>
      </trkpt>
      <trkpt lat="41.39243" lon="19.63802">
        <ele>76.0148</ele>
        <time>2022-05-06T10:40:14.554Z</time>
      </trkpt>
      <trkpt lat="41.39251" lon="19.63808">
        <ele>75.929783</ele>
        <time>2022-05-06T10:40:16.546Z</time>
      </trkpt>
      <trkpt lat="41.39259" lon="19.63815">
        <ele>75.842461</ele>
        <time>2022-05-06T10:40:18.555Z</time>
      </trkpt>
      <trkpt lat="41.3927" lon="19.63825">
        <ele>75.71749</ele>
        <time>2022-05-06T10:40:21.555Z</time>
      </trkpt>
      <trkpt lat="41.39277" lon="19.63832">
        <ele>75.63366</ele>
        <time>2022-05-06T10:40:23.536Z</time>
      </trkpt>
      <trkpt lat="41.39285" lon="19.63838">
        <ele>75.549429</ele>
        <time>2022-05-06T10:40:25.590Z</time>
      </trkpt>
      <trkpt lat="41.39296" lon="19.63848">
        <ele>75.421745</ele>
        <time>2022-05-06T10:40:28.555Z</time>
      </trkpt>
      <trkpt lat="41.39304" lon="19.63854">
        <ele>75.335873</ele>
        <time>2022-05-06T10:40:30.547Z</time>
      </trkpt>
      <trkpt lat="41.39316" lon="19.63862">
        <ele>75.214364</ele>
        <time>2022-05-06T10:40:33.538Z</time>
      </trkpt>
      <trkpt lat="41.39329" lon="19.63868">
        <ele>75.274955</ele>
        <time>2022-05-06T10:40:36.577Z</time>
      </trkpt>
      <trkpt lat="41.39338" lon="19.63871">
        <ele>75.391975</ele>
        <time>2022-05-06T10:40:38.563Z</time>
      </trkpt>
      <trkpt lat="41.39347" lon="19.63875">
        <ele>75.508604</ele>
        <time>2022-05-06T10:40:40.538Z</time>
      </trkpt>
      <trkpt lat="41.39356" lon="19.63879">
        <ele>75.631831</ele>
        <time>2022-05-06T10:40:42.553Z</time>
      </trkpt>
      <trkpt lat="41.39365" lon="19.63883">
        <ele>75.753292</ele>
        <time>2022-05-06T10:40:44.565Z</time>
      </trkpt>
      <trkpt lat="41.39375" lon="19.63886">
        <ele>75.878657</ele>
        <time>2022-05-06T10:40:46.551Z</time>
      </trkpt>
      <trkpt lat="41.39384" lon="19.6389">
        <ele>76.003753</ele>
        <time>2022-05-06T10:40:48.529Z</time>
      </trkpt>
      <trkpt lat="41.39393" lon="19.63893">
        <ele>76.122707</ele>
        <time>2022-05-06T10:40:50.566Z</time>
      </trkpt>
      <trkpt lat="41.39402" lon="19.63896">
        <ele>76.238976</ele>
        <time>2022-05-06T10:40:52.550Z</time>
      </trkpt>
      <trkpt lat="41.39411" lon="19.639">
        <ele>76.359395</ele>
        <time>2022-05-06T10:40:54.550Z</time>
      </trkpt>
      <trkpt lat="41.3942" lon="19.63903">
        <ele>76.475469</ele>
        <time>2022-05-06T10:40:56.549Z</time>
      </trkpt>
      <trkpt lat="41.39433" lon="19.63908">
        <ele>76.640343</ele>
        <time>2022-05-06T10:40:59.559Z</time>
      </trkpt>
      <trkpt lat="41.39446" lon="19.63913">
        <ele>76.81153</ele>
        <time>2022-05-06T10:41:02.539Z</time>
      </trkpt>
      <trkpt lat="41.39454" lon="19.63917">
        <ele>76.927246</ele>
        <time>2022-05-06T10:41:04.542Z</time>
      </trkpt>
      <trkpt lat="41.39463" lon="19.6392">
        <ele>77.044266</ele>
        <time>2022-05-06T10:41:06.554Z</time>
      </trkpt>
      <trkpt lat="41.39476" lon="19.63925">
        <ele>77.20817</ele>
        <time>2022-05-06T10:41:09.588Z</time>
      </trkpt>
      <trkpt lat="41.39489" lon="19.63931">
        <ele>77.381766</ele>
        <time>2022-05-06T10:41:12.547Z</time>
      </trkpt>
      <trkpt lat="41.395" lon="19.63939">
        <ele>77.769399</ele>
        <time>2022-05-06T10:41:15.540Z</time>
      </trkpt>
      <trkpt lat="41.39508" lon="19.63946">
        <ele>78.126429</ele>
        <time>2022-05-06T10:41:17.564Z</time>
      </trkpt>
      <trkpt lat="41.39515" lon="19.63953">
        <ele>78.480394</ele>
        <time>2022-05-06T10:41:19.553Z</time>
      </trkpt>
      <trkpt lat="41.39523" lon="19.6396">
        <ele>78.852319</ele>
        <time>2022-05-06T10:41:21.539Z</time>
      </trkpt>
      <trkpt lat="41.3953" lon="19.63967">
        <ele>79.207697</ele>
        <time>2022-05-06T10:41:23.578Z</time>
      </trkpt>
      <trkpt lat="41.39541" lon="19.63977">
        <ele>79.72852</ele>
        <time>2022-05-06T10:41:26.546Z</time>
      </trkpt>
      <trkpt lat="41.39552" lon="19.63986">
        <ele>80.229838</ele>
        <time>2022-05-06T10:41:29.557Z</time>
      </trkpt>
      <trkpt lat="41.39561" lon="19.63996">
        <ele>80.692831</ele>
        <time>2022-05-06T10:41:32.549Z</time>
      </trkpt>
      <trkpt lat="41.39571" lon="19.64005">
        <ele>81.167861</ele>
        <time>2022-05-06T10:41:35.545Z</time>
      </trkpt>
      <trkpt lat="41.3958" lon="19.64015">
        <ele>81.641908</ele>
        <time>2022-05-06T10:41:38.559Z</time>
      </trkpt>
      <trkpt lat="41.39589" lon="19.64026">
        <ele>82.122495</ele>
        <time>2022-05-06T10:41:41.552Z</time>
      </trkpt>
      <trkpt lat="41.39599" lon="19.64035">
        <ele>82.597441</ele>
        <time>2022-05-06T10:41:44.540Z</time>
      </trkpt>
      <trkpt lat="41.39611" lon="19.64044">
        <ele>83.119386</ele>
        <time>2022-05-06T10:41:47.546Z</time>
      </trkpt>
      <trkpt lat="41.39622" lon="19.64053">
        <ele>83.640905</ele>
        <time>2022-05-06T10:41:50.550Z</time>
      </trkpt>
      <trkpt lat="41.39633" lon="19.64062">
        <ele>84.155666</ele>
        <time>2022-05-06T10:41:53.563Z</time>
      </trkpt>
      <trkpt lat="41.39641" lon="19.64068">
        <ele>84.51465</ele>
        <time>2022-05-06T10:41:55.541Z</time>
      </trkpt>
      <trkpt lat="41.39649" lon="19.64075">
        <ele>84.663289</ele>
        <time>2022-05-06T10:41:57.538Z</time>
      </trkpt>
      <trkpt lat="41.3966" lon="19.64085">
        <ele>84.861916</ele>
        <time>2022-05-06T10:42:00.574Z</time>
      </trkpt>
      <trkpt lat="41.39669" lon="19.64094">
        <ele>85.045414</ele>
        <time>2022-05-06T10:42:03.545Z</time>
      </trkpt>
      <trkpt lat="41.39678" lon="19.64104">
        <ele>85.227507</ele>
        <time>2022-05-06T10:42:06.545Z</time>
      </trkpt>
      <trkpt lat="41.39687" lon="19.64113">
        <ele>85.404489</ele>
        <time>2022-05-06T10:42:09.537Z</time>
      </trkpt>
      <trkpt lat="41.39698" lon="19.64123">
        <ele>85.609691</ele>
        <time>2022-05-06T10:42:12.551Z</time>
      </trkpt>
      <trkpt lat="41.39707" lon="19.64134">
        <ele>85.798494</ele>
        <time>2022-05-06T10:42:15.552Z</time>
      </trkpt>
      <trkpt lat="41.39715" lon="19.64144">
        <ele>85.97229</ele>
        <time>2022-05-06T10:42:18.556Z</time>
      </trkpt>
      <trkpt lat="41.39723" lon="19.64153">
        <ele>86.128301</ele>
        <time>2022-05-06T10:42:21.589Z</time>
      </trkpt>
      <trkpt lat="41.3973" lon="19.64162">
        <ele>86.276959</ele>
        <time>2022-05-06T10:42:24.550Z</time>
      </trkpt>
      <trkpt lat="41.39737" lon="19.64172">
        <ele>86.438082</ele>
        <time>2022-05-06T10:42:27.570Z</time>
      </trkpt>
      <trkpt lat="41.39745" lon="19.6418">
        <ele>86.585262</ele>
        <time>2022-05-06T10:42:30.557Z</time>
      </trkpt>
      <trkpt lat="41.39752" lon="19.6419">
        <ele>86.754038</ele>
        <time>2022-05-06T10:42:33.588Z</time>
      </trkpt>
      <trkpt lat="41.3976" lon="19.64202">
        <ele>86.932054</ele>
        <time>2022-05-06T10:42:36.548Z</time>
      </trkpt>
      <trkpt lat="41.39767" lon="19.64214">
        <ele>87.10689</ele>
        <time>2022-05-06T10:42:39.547Z</time>
      </trkpt>
      <trkpt lat="41.39775" lon="19.64225">
        <ele>87.292641</ele>
        <time>2022-05-06T10:42:42.561Z</time>
      </trkpt>
      <trkpt lat="41.39783" lon="19.64236">
        <ele>87.66239</ele>
        <time>2022-05-06T10:42:45.561Z</time>
      </trkpt>
      <trkpt lat="41.39789" lon="19.64246">
        <ele>88.000915</ele>
        <time>2022-05-06T10:42:48.544Z</time>
      </trkpt>
      <trkpt lat="41.39796" lon="19.64255">
        <ele>88.336744</ele>
        <time>2022-05-06T10:42:51.544Z</time>
      </trkpt>
      <trkpt lat="41.39804" lon="19.64267">
        <ele>88.752555</ele>
        <time>2022-05-06T10:42:55.558Z</time>
      </trkpt>
      <trkpt lat="41.3981" lon="19.64276">
        <ele>89.063192</ele>
        <time>2022-05-06T10:42:58.555Z</time>
      </trkpt>
      <trkpt lat="41.39819" lon="19.64285">
        <ele>89.465917</ele>
        <time>2022-05-06T10:43:02.547Z</time>
      </trkpt>
      <trkpt lat="41.39827" lon="19.64295">
        <ele>89.827749</ele>
        <time>2022-05-06T10:43:05.597Z</time>
      </trkpt>
      <trkpt lat="41.39835" lon="19.64304">
        <ele>90.196529</ele>
        <time>2022-05-06T10:43:08.561Z</time>
      </trkpt>
      <trkpt lat="41.39844" lon="19.64315">
        <ele>90.620682</ele>
        <time>2022-05-06T10:43:11.554Z</time>
      </trkpt>
      <trkpt lat="41.39853" lon="19.64325">
        <ele>91.028797</ele>
        <time>2022-05-06T10:43:14.566Z</time>
      </trkpt>
      <trkpt lat="41.39861" lon="19.64333">
        <ele>91.376395</ele>
        <time>2022-05-06T10:43:17.562Z</time>
      </trkpt>
      <trkpt lat="41.39869" lon="19.64341">
        <ele>91.719562</ele>
        <time>2022-05-06T10:43:20.553Z</time>
      </trkpt>
      <trkpt lat="41.39877" lon="19.64349">
        <ele>92.064953</ele>
        <time>2022-05-06T10:43:23.558Z</time>
      </trkpt>
      <trkpt lat="41.39885" lon="19.64358">
        <ele>92.443361</ele>
        <time>2022-05-06T10:43:26.572Z</time>
      </trkpt>
      <trkpt lat="41.39893" lon="19.64369">
        <ele>92.819792</ele>
        <time>2022-05-06T10:43:29.555Z</time>
      </trkpt>
      <trkpt lat="41.399" lon="19.6438">
        <ele>93.213289</ele>
        <time>2022-05-06T10:43:32.559Z</time>
      </trkpt>
      <trkpt lat="41.39908" lon="19.64391">
        <ele>93.48988</ele>
        <time>2022-05-06T10:43:35.541Z</time>
      </trkpt>
      <trkpt lat="41.39915" lon="19.64403">
        <ele>93.116727</ele>
        <time>2022-05-06T10:43:38.556Z</time>
      </trkpt>
      <trkpt lat="41.39923" lon="19.64415">
        <ele>92.74341</ele>
        <time>2022-05-06T10:43:41.563Z</time>
      </trkpt>
      <trkpt lat="41.3993" lon="19.64427">
        <ele>92.375779</ele>
        <time>2022-05-06T10:43:44.529Z</time>
      </trkpt>
      <trkpt lat="41.39936" lon="19.64439">
        <ele>92.02567</ele>
        <time>2022-05-06T10:43:47.545Z</time>
      </trkpt>
      <trkpt lat="41.39943" lon="19.6445">
        <ele>91.696513</ele>
        <time>2022-05-06T10:43:50.555Z</time>
      </trkpt>
      <trkpt lat="41.39948" lon="19.64463">
        <ele>91.348189</ele>
        <time>2022-05-06T10:43:53.543Z</time>
      </trkpt>
      <trkpt lat="41.39953" lon="19.64476">
        <ele>91.008526</ele>
        <time>2022-05-06T10:43:56.543Z</time>
      </trkpt>
      <trkpt lat="41.39958" lon="19.64489">
        <ele>90.66189</ele>
        <time>2022-05-06T10:43:59.552Z</time>
      </trkpt>
      <trkpt lat="41.39962" lon="19.64503">
        <ele>90.304419</ele>
        <time>2022-05-06T10:44:02.553Z</time>
      </trkpt>
      <trkpt lat="41.39966" lon="19.64517">
        <ele>89.944037</ele>
        <time>2022-05-06T10:44:05.546Z</time>
      </trkpt>
      <trkpt lat="41.39968" lon="19.64533">
        <ele>89.561112</ele>
        <time>2022-05-06T10:44:08.533Z</time>
      </trkpt>
      <trkpt lat="41.39968" lon="19.64549">
        <ele>89.182743</ele>
        <time>2022-05-06T10:44:11.592Z</time>
      </trkpt>
      <trkpt lat="41.39966" lon="19.64565">
        <ele>88.788542</ele>
        <time>2022-05-06T10:44:14.553Z</time>
      </trkpt>
      <trkpt lat="41.39964" lon="19.64577">
        <ele>88.497793</ele>
        <time>2022-05-06T10:44:16.563Z</time>
      </trkpt>
      <trkpt lat="41.39962" lon="19.64589">
        <ele>88.210744</ele>
        <time>2022-05-06T10:44:18.542Z</time>
      </trkpt>
      <trkpt lat="41.39959" lon="19.64601">
        <ele>87.913675</ele>
        <time>2022-05-06T10:44:20.547Z</time>
      </trkpt>
      <trkpt lat="41.39956" lon="19.64613">
        <ele>87.444562</ele>
        <time>2022-05-06T10:44:22.580Z</time>
      </trkpt>
      <trkpt lat="41.39953" lon="19.64626">
        <ele>86.915904</ele>
        <time>2022-05-06T10:44:24.544Z</time>
      </trkpt>
      <trkpt lat="41.39951" lon="19.64639">
        <ele>86.394156</ele>
        <time>2022-05-06T10:44:26.535Z</time>
      </trkpt>
      <trkpt lat="41.39949" lon="19.64653">
        <ele>85.849516</ele>
        <time>2022-05-06T10:44:28.695Z</time>
      </trkpt>
      <trkpt lat="41.39947" lon="19.64667">
        <ele>85.263034</ele>
        <time>2022-05-06T10:44:30.559Z</time>
      </trkpt>
      <trkpt lat="41.39945" lon="19.64682">
        <ele>84.697562</ele>
        <time>2022-05-06T10:44:32.556Z</time>
      </trkpt>
      <trkpt lat="41.39942" lon="19.64695">
        <ele>84.143933</ele>
        <time>2022-05-06T10:44:34.556Z</time>
      </trkpt>
      <trkpt lat="41.39938" lon="19.64707">
        <ele>83.622718</ele>
        <time>2022-05-06T10:44:36.543Z</time>
      </trkpt>
      <trkpt lat="41.39936" lon="19.64721">
        <ele>83.069088</ele>
        <time>2022-05-06T10:44:38.574Z</time>
      </trkpt>
      <trkpt lat="41.39932" lon="19.64736">
        <ele>82.46297</ele>
        <time>2022-05-06T10:44:40.537Z</time>
      </trkpt>
      <trkpt lat="41.3993" lon="19.64749">
        <ele>81.913287</ele>
        <time>2022-05-06T10:44:42.555Z</time>
      </trkpt>
      <trkpt lat="41.39928" lon="19.64763">
        <ele>81.372038</ele>
        <time>2022-05-06T10:44:44.595Z</time>
      </trkpt>
      <trkpt lat="41.39926" lon="19.64775">
        <ele>80.889712</ele>
        <time>2022-05-06T10:44:46.582Z</time>
      </trkpt>
      <trkpt lat="41.39924" lon="19.64792">
        <ele>80.220617</ele>
        <time>2022-05-06T10:44:49.558Z</time>
      </trkpt>
      <trkpt lat="41.3992" lon="19.64807">
        <ele>79.583643</ele>
        <time>2022-05-06T10:44:52.593Z</time>
      </trkpt>
      <trkpt lat="41.39917" lon="19.64819">
        <ele>79.113082</ele>
        <time>2022-05-06T10:44:54.542Z</time>
      </trkpt>
      <trkpt lat="41.39914" lon="19.6483">
        <ele>78.633392</ele>
        <time>2022-05-06T10:44:56.544Z</time>
      </trkpt>
      <trkpt lat="41.39908" lon="19.64846">
        <ele>78.489468</ele>
        <time>2022-05-06T10:44:59.533Z</time>
      </trkpt>
      <trkpt lat="41.39902" lon="19.64855">
        <ele>78.555823</ele>
        <time>2022-05-06T10:45:01.634Z</time>
      </trkpt>
      <trkpt lat="41.39894" lon="19.64868">
        <ele>78.646681</ele>
        <time>2022-05-06T10:45:04.553Z</time>
      </trkpt>
      <trkpt lat="41.39892" lon="19.64885">
        <ele>78.7358</ele>
        <time>2022-05-06T10:45:07.558Z</time>
      </trkpt>
      <trkpt lat="41.39893" lon="19.64901">
        <ele>78.82577</ele>
        <time>2022-05-06T10:45:10.537Z</time>
      </trkpt>
      <trkpt lat="41.39892" lon="19.64914">
        <ele>78.893486</ele>
        <time>2022-05-06T10:45:12.607Z</time>
      </trkpt>
      <trkpt lat="41.39888" lon="19.64926">
        <ele>78.963535</ele>
        <time>2022-05-06T10:45:14.553Z</time>
      </trkpt>
      <trkpt lat="41.39883" lon="19.64938">
        <ele>79.034192</ele>
        <time>2022-05-06T10:45:16.553Z</time>
      </trkpt>
      <trkpt lat="41.3988" lon="19.64949">
        <ele>79.101703</ele>
        <time>2022-05-06T10:45:18.548Z</time>
      </trkpt>
      <trkpt lat="41.39875" lon="19.64961">
        <ele>79.172672</ele>
        <time>2022-05-06T10:45:20.554Z</time>
      </trkpt>
      <trkpt lat="41.39871" lon="19.64973">
        <ele>79.24067</ele>
        <time>2022-05-06T10:45:22.543Z</time>
      </trkpt>
      <trkpt lat="41.39867" lon="19.64984">
        <ele>79.30622</ele>
        <time>2022-05-06T10:45:24.554Z</time>
      </trkpt>
      <trkpt lat="41.39862" lon="19.64994">
        <ele>79.371264</ele>
        <time>2022-05-06T10:45:26.556Z</time>
      </trkpt>
      <trkpt lat="41.39857" lon="19.65009">
        <ele>79.462646</ele>
        <time>2022-05-06T10:45:29.552Z</time>
      </trkpt>
      <trkpt lat="41.39852" lon="19.65023">
        <ele>79.54398</ele>
        <time>2022-05-06T10:45:32.565Z</time>
      </trkpt>
      <trkpt lat="41.39845" lon="19.65037">
        <ele>79.631599</ele>
        <time>2022-05-06T10:45:35.544Z</time>
      </trkpt>
      <trkpt lat="41.39838" lon="19.65051">
        <ele>79.753038</ele>
        <time>2022-05-06T10:45:38.550Z</time>
      </trkpt>
      <trkpt lat="41.39831" lon="19.65066">
        <ele>79.992556</ele>
        <time>2022-05-06T10:45:41.551Z</time>
      </trkpt>
      <trkpt lat="41.39824" lon="19.65079">
        <ele>80.212211</ele>
        <time>2022-05-06T10:45:44.647Z</time>
      </trkpt>
      <trkpt lat="41.39817" lon="19.65093">
        <ele>80.440441</ele>
        <time>2022-05-06T10:45:47.534Z</time>
      </trkpt>
      <trkpt lat="41.39809" lon="19.65106">
        <ele>80.678745</ele>
        <time>2022-05-06T10:45:50.541Z</time>
      </trkpt>
      <trkpt lat="41.39801" lon="19.65119">
        <ele>80.907061</ele>
        <time>2022-05-06T10:45:53.567Z</time>
      </trkpt>
      <trkpt lat="41.39793" lon="19.65132">
        <ele>81.142957</ele>
        <time>2022-05-06T10:45:56.592Z</time>
      </trkpt>
      <trkpt lat="41.39784" lon="19.65146">
        <ele>81.39114</ele>
        <time>2022-05-06T10:45:59.532Z</time>
      </trkpt>
      <trkpt lat="41.39778" lon="19.65156">
        <ele>81.570116</ele>
        <time>2022-05-06T10:46:01.550Z</time>
      </trkpt>
      <trkpt lat="41.39772" lon="19.65165">
        <ele>81.73894</ele>
        <time>2022-05-06T10:46:03.556Z</time>
      </trkpt>
      <trkpt lat="41.39763" lon="19.65179">
        <ele>81.98277</ele>
        <time>2022-05-06T10:46:06.559Z</time>
      </trkpt>
      <trkpt lat="41.39755" lon="19.65192">
        <ele>82.226878</ele>
        <time>2022-05-06T10:46:09.555Z</time>
      </trkpt>
      <trkpt lat="41.39747" lon="19.65202">
        <ele>82.417669</ele>
        <time>2022-05-06T10:46:12.571Z</time>
      </trkpt>
      <trkpt lat="41.39739" lon="19.65213">
        <ele>82.636973</ele>
        <time>2022-05-06T10:46:16.548Z</time>
      </trkpt>
      <trkpt lat="41.39733" lon="19.65224">
        <ele>82.815483</ele>
        <time>2022-05-06T10:46:19.554Z</time>
      </trkpt>
      <trkpt lat="41.39727" lon="19.65234">
        <ele>83.001718</ele>
        <time>2022-05-06T10:46:22.612Z</time>
      </trkpt>
      <trkpt lat="41.3972" lon="19.65243">
        <ele>83.26189</ele>
        <time>2022-05-06T10:46:25.538Z</time>
      </trkpt>
      <trkpt lat="41.39713" lon="19.65256">
        <ele>83.618192</ele>
        <time>2022-05-06T10:46:29.583Z</time>
      </trkpt>
      <trkpt lat="41.39705" lon="19.65267">
        <ele>83.948124</ele>
        <time>2022-05-06T10:46:32.560Z</time>
      </trkpt>
      <trkpt lat="41.39699" lon="19.65277">
        <ele>84.233898</ele>
        <time>2022-05-06T10:46:35.575Z</time>
      </trkpt>
      <trkpt lat="41.39693" lon="19.65289">
        <ele>84.54773</ele>
        <time>2022-05-06T10:46:38.631Z</time>
      </trkpt>
      <trkpt lat="41.39686" lon="19.65299">
        <ele>84.835579</ele>
        <time>2022-05-06T10:46:41.585Z</time>
      </trkpt>
      <trkpt lat="41.39679" lon="19.6531">
        <ele>85.16132</ele>
        <time>2022-05-06T10:46:45.556Z</time>
      </trkpt>
      <trkpt lat="41.39671" lon="19.65322">
        <ele>85.511191</ele>
        <time>2022-05-06T10:46:49.537Z</time>
      </trkpt>
      <trkpt lat="41.39664" lon="19.65331">
        <ele>85.801444</ele>
        <time>2022-05-06T10:46:52.575Z</time>
      </trkpt>
      <trkpt lat="41.39657" lon="19.65342">
        <ele>86.10734</ele>
        <time>2022-05-06T10:46:55.559Z</time>
      </trkpt>
      <trkpt lat="41.39651" lon="19.65351">
        <ele>86.387888</ele>
        <time>2022-05-06T10:46:58.678Z</time>
      </trkpt>
      <trkpt lat="41.39644" lon="19.6536">
        <ele>86.667306</ele>
        <time>2022-05-06T10:47:01.554Z</time>
      </trkpt>
      <trkpt lat="41.39637" lon="19.65368">
        <ele>86.932423</ele>
        <time>2022-05-06T10:47:04.548Z</time>
      </trkpt>
      <trkpt lat="41.3963" lon="19.65376">
        <ele>87.211928</ele>
        <time>2022-05-06T10:47:07.551Z</time>
      </trkpt>
      <trkpt lat="41.39622" lon="19.65387">
        <ele>87.532142</ele>
        <time>2022-05-06T10:47:11.599Z</time>
      </trkpt>
      <trkpt lat="41.39614" lon="19.65396">
        <ele>87.840125</ele>
        <time>2022-05-06T10:47:15.549Z</time>
      </trkpt>
      <trkpt lat="41.39594" lon="19.65396">
        <ele>88.597601</ele>
        <time>2022-05-06T10:47:33.556Z</time>
      </trkpt>
      <trkpt lat="41.39588" lon="19.65388">
        <ele>89.16846</ele>
        <time>2022-05-06T10:47:37.554Z</time>
      </trkpt>
      <trkpt lat="41.39581" lon="19.65379">
        <ele>89.751276</ele>
        <time>2022-05-06T10:47:41.533Z</time>
      </trkpt>
      <trkpt lat="41.39574" lon="19.65371">
        <ele>90.35412</ele>
        <time>2022-05-06T10:47:45.551Z</time>
      </trkpt>
      <trkpt lat="41.39566" lon="19.65364">
        <ele>90.949616</ele>
        <time>2022-05-06T10:47:49.547Z</time>
      </trkpt>
      <trkpt lat="41.39574" lon="19.6537">
        <ele>91.530419</ele>
        <time>2022-05-06T10:48:02.545Z</time>
      </trkpt>
      <trkpt lat="41.39581" lon="19.65378">
        <ele>92.107793</ele>
        <time>2022-05-06T10:48:05.557Z</time>
      </trkpt>
      <trkpt lat="41.39582" lon="19.65392">
        <ele>92.749965</ele>
        <time>2022-05-06T10:48:10.540Z</time>
      </trkpt>
      <trkpt lat="41.39576" lon="19.65401">
        <ele>93.319545</ele>
        <time>2022-05-06T10:48:15.558Z</time>
      </trkpt>
      <trkpt lat="41.39571" lon="19.65412">
        <ele>93.952109</ele>
        <time>2022-05-06T10:48:20.546Z</time>
      </trkpt>
      <trkpt lat="41.39565" lon="19.65423">
        <ele>94.609856</ele>
        <time>2022-05-06T10:48:26.553Z</time>
      </trkpt>
      <trkpt lat="41.39559" lon="19.65434">
        <ele>95.26297</ele>
        <time>2022-05-06T10:48:31.551Z</time>
      </trkpt>
      <trkpt lat="41.39551" lon="19.65445">
        <ele>95.957658</ele>
        <time>2022-05-06T10:48:36.551Z</time>
      </trkpt>
      <trkpt lat="41.39544" lon="19.65453">
        <ele>96.544164</ele>
        <time>2022-05-06T10:48:40.545Z</time>
      </trkpt>
      <trkpt lat="41.39538" lon="19.65462">
        <ele>97.131464</ele>
        <time>2022-05-06T10:48:44.538Z</time>
      </trkpt>
      <trkpt lat="41.39529" lon="19.65466">
        <ele>97.724499</ele>
        <time>2022-05-06T10:48:49.551Z</time>
      </trkpt>
      <trkpt lat="41.39519" lon="19.65459">
        <ele>98.391136</ele>
        <time>2022-05-06T10:48:54.556Z</time>
      </trkpt>
      <trkpt lat="41.3951" lon="19.65454">
        <ele>99.039147</ele>
        <time>2022-05-06T10:48:58.592Z</time>
      </trkpt>
      <trkpt lat="41.39503" lon="19.65445">
        <ele>99.646839</ele>
        <time>2022-05-06T10:49:02.565Z</time>
      </trkpt>
      <trkpt lat="41.39492" lon="19.65444">
        <ele>100.436387</ele>
        <time>2022-05-06T10:49:06.548Z</time>
      </trkpt>
      <trkpt lat="41.39484" lon="19.65451">
        <ele>101.168826</ele>
        <time>2022-05-06T10:49:11.551Z</time>
      </trkpt>
      <trkpt lat="41.39477" lon="19.6546">
        <ele>101.885215</ele>
        <time>2022-05-06T10:49:16.585Z</time>
      </trkpt>
      <trkpt lat="41.39469" lon="19.65469">
        <ele>102.685278</ele>
        <time>2022-05-06T10:49:22.534Z</time>
      </trkpt>
      <trkpt lat="41.39461" lon="19.65476">
        <ele>103.385012</ele>
        <time>2022-05-06T10:49:26.599Z</time>
      </trkpt>
      <trkpt lat="41.39453" lon="19.65485">
        <ele>104.17316</ele>
        <time>2022-05-06T10:49:30.562Z</time>
      </trkpt>
      <trkpt lat="41.39445" lon="19.65495">
        <ele>105.007322</ele>
        <time>2022-05-06T10:49:34.543Z</time>
      </trkpt>
      <trkpt lat="41.39437" lon="19.65505">
        <ele>105.756292</ele>
        <time>2022-05-06T10:49:38.562Z</time>
      </trkpt>
      <trkpt lat="41.39428" lon="19.65513">
        <ele>106.587475</ele>
        <time>2022-05-06T10:49:42.559Z</time>
      </trkpt>
      <trkpt lat="41.39422" lon="19.65523">
        <ele>107.282738</ele>
        <time>2022-05-06T10:49:45.596Z</time>
      </trkpt>
      <trkpt lat="41.39415" lon="19.65534">
        <ele>108.107758</ele>
        <time>2022-05-06T10:49:48.555Z</time>
      </trkpt>
      <trkpt lat="41.39408" lon="19.65544">
        <ele>108.849656</ele>
        <time>2022-05-06T10:49:51.553Z</time>
      </trkpt>
      <trkpt lat="41.39402" lon="19.65555">
        <ele>109.615718</ele>
        <time>2022-05-06T10:49:54.547Z</time>
      </trkpt>
      <trkpt lat="41.39396" lon="19.65564">
        <ele>110.331164</ele>
        <time>2022-05-06T10:49:58.570Z</time>
      </trkpt>
      <trkpt lat="41.39396" lon="19.65577">
        <ele>111.01561</ele>
        <time>2022-05-06T10:50:02.535Z</time>
      </trkpt>
      <trkpt lat="41.39407" lon="19.65583">
        <ele>111.935715</ele>
        <time>2022-05-06T10:50:05.578Z</time>
      </trkpt>
      <trkpt lat="41.39415" lon="19.6559">
        <ele>112.645509</ele>
        <time>2022-05-06T10:50:08.540Z</time>
      </trkpt>
      <trkpt lat="41.39421" lon="19.656">
        <ele>112.559019</ele>
        <time>2022-05-06T10:50:11.539Z</time>
      </trkpt>
      <trkpt lat="41.39425" lon="19.65611">
        <ele>111.771107</ele>
        <time>2022-05-06T10:50:16.556Z</time>
      </trkpt>
      <trkpt lat="41.39421" lon="19.65622">
        <ele>110.953545</ele>
        <time>2022-05-06T10:50:22.541Z</time>
      </trkpt>
      <trkpt lat="41.39415" lon="19.65633">
        <ele>110.099198</ele>
        <time>2022-05-06T10:50:26.553Z</time>
      </trkpt>
      <trkpt lat="41.39406" lon="19.65645">
        <ele>109.08712</ele>
        <time>2022-05-06T10:50:30.574Z</time>
      </trkpt>
      <trkpt lat="41.39399" lon="19.65655">
        <ele>108.174394</ele>
        <time>2022-05-06T10:50:33.571Z</time>
      </trkpt>
      <trkpt lat="41.39394" lon="19.65664">
        <ele>107.407526</ele>
        <time>2022-05-06T10:50:36.575Z</time>
      </trkpt>
      <trkpt lat="41.39387" lon="19.65673">
        <ele>106.600184</ele>
        <time>2022-05-06T10:50:39.559Z</time>
      </trkpt>
      <trkpt lat="41.39378" lon="19.6568">
        <ele>105.74228</ele>
        <time>2022-05-06T10:50:43.562Z</time>
      </trkpt>
      <trkpt lat="41.39373" lon="19.6569">
        <ele>104.978986</ele>
        <time>2022-05-06T10:50:47.544Z</time>
      </trkpt>
      <trkpt lat="41.39366" lon="19.65701">
        <ele>104.065176</ele>
        <time>2022-05-06T10:50:52.553Z</time>
      </trkpt>
      <trkpt lat="41.39359" lon="19.65711">
        <ele>103.170524</ele>
        <time>2022-05-06T10:50:55.549Z</time>
      </trkpt>
      <trkpt lat="41.39351" lon="19.65722">
        <ele>102.207871</ele>
        <time>2022-05-06T10:50:58.552Z</time>
      </trkpt>
      <trkpt lat="41.39343" lon="19.65733">
        <ele>101.197236</ele>
        <time>2022-05-06T10:51:01.599Z</time>
      </trkpt>
      <trkpt lat="41.39334" lon="19.65744">
        <ele>100.171968</ele>
        <time>2022-05-06T10:51:04.578Z</time>
      </trkpt>
      <trkpt lat="41.39323" lon="19.65754">
        <ele>99.063489</ele>
        <time>2022-05-06T10:51:07.534Z</time>
      </trkpt>
      <trkpt lat="41.39314" lon="19.65765">
        <ele>98.053129</ele>
        <time>2022-05-06T10:51:10.590Z</time>
      </trkpt>
      <trkpt lat="41.39306" lon="19.65774">
        <ele>97.609549</ele>
        <time>2022-05-06T10:51:13.557Z</time>
      </trkpt>
      <trkpt lat="41.39299" lon="19.65785">
        <ele>97.518414</ele>
        <time>2022-05-06T10:51:16.555Z</time>
      </trkpt>
      <trkpt lat="41.39291" lon="19.65795">
        <ele>97.422871</ele>
        <time>2022-05-06T10:51:19.541Z</time>
      </trkpt>
      <trkpt lat="41.39282" lon="19.65804">
        <ele>97.32717</ele>
        <time>2022-05-06T10:51:22.572Z</time>
      </trkpt>
      <trkpt lat="41.39273" lon="19.65813">
        <ele>97.230049</ele>
        <time>2022-05-06T10:51:25.640Z</time>
      </trkpt>
      <trkpt lat="41.39265" lon="19.65823">
        <ele>97.13245</ele>
        <time>2022-05-06T10:51:28.550Z</time>
      </trkpt>
      <trkpt lat="41.39256" lon="19.65831">
        <ele>97.042943</ele>
        <time>2022-05-06T10:51:31.580Z</time>
      </trkpt>
      <trkpt lat="41.39246" lon="19.65835">
        <ele>96.950076</ele>
        <time>2022-05-06T10:51:34.553Z</time>
      </trkpt>
      <trkpt lat="41.39236" lon="19.65837">
        <ele>96.866466</ele>
        <time>2022-05-06T10:51:37.573Z</time>
      </trkpt>
      <trkpt lat="41.39228" lon="19.65846">
        <ele>96.779362</ele>
        <time>2022-05-06T10:51:40.570Z</time>
      </trkpt>
      <trkpt lat="41.39224" lon="19.65859">
        <ele>96.689253</ele>
        <time>2022-05-06T10:51:43.547Z</time>
      </trkpt>
      <trkpt lat="41.39218" lon="19.6587">
        <ele>96.602485</ele>
        <time>2022-05-06T10:51:46.548Z</time>
      </trkpt>
      <trkpt lat="41.39212" lon="19.65879">
        <ele>96.516892</ele>
        <time>2022-05-06T10:51:49.549Z</time>
      </trkpt>
      <trkpt lat="41.39204" lon="19.65889">
        <ele>96.426394</ele>
        <time>2022-05-06T10:51:52.558Z</time>
      </trkpt>
      <trkpt lat="41.39196" lon="19.65898">
        <ele>96.335655</ele>
        <time>2022-05-06T10:51:55.542Z</time>
      </trkpt>
      <trkpt lat="41.39188" lon="19.65907">
        <ele>96.246032</ele>
        <time>2022-05-06T10:51:58.543Z</time>
      </trkpt>
      <trkpt lat="41.39179" lon="19.65915">
        <ele>96.152225</ele>
        <time>2022-05-06T10:52:01.602Z</time>
      </trkpt>
      <trkpt lat="41.39169" lon="19.65923">
        <ele>96.124382</ele>
        <time>2022-05-06T10:52:04.559Z</time>
      </trkpt>
      <trkpt lat="41.39159" lon="19.65931">
        <ele>96.136189</ele>
        <time>2022-05-06T10:52:07.536Z</time>
      </trkpt>
      <trkpt lat="41.39148" lon="19.65939">
        <ele>96.148512</ele>
        <time>2022-05-06T10:52:10.577Z</time>
      </trkpt>
      <trkpt lat="41.39138" lon="19.65947">
        <ele>96.160685</ele>
        <time>2022-05-06T10:52:13.543Z</time>
      </trkpt>
      <trkpt lat="41.39127" lon="19.65954">
        <ele>96.173467</ele>
        <time>2022-05-06T10:52:16.540Z</time>
      </trkpt>
      <trkpt lat="41.39116" lon="19.65961">
        <ele>96.185574</ele>
        <time>2022-05-06T10:52:19.547Z</time>
      </trkpt>
      <trkpt lat="41.39105" lon="19.65967">
        <ele>96.197672</ele>
        <time>2022-05-06T10:52:22.550Z</time>
      </trkpt>
      <trkpt lat="41.39093" lon="19.65974">
        <ele>96.210762</ele>
        <time>2022-05-06T10:52:25.538Z</time>
      </trkpt>
      <trkpt lat="41.39081" lon="19.65981">
        <ele>96.223851</ele>
        <time>2022-05-06T10:52:28.546Z</time>
      </trkpt>
      <trkpt lat="41.39069" lon="19.65989">
        <ele>96.237514</ele>
        <time>2022-05-06T10:52:31.561Z</time>
      </trkpt>
      <trkpt lat="41.39061" lon="19.65994">
        <ele>96.246646</ele>
        <time>2022-05-06T10:52:33.546Z</time>
      </trkpt>
      <trkpt lat="41.3905" lon="19.66003">
        <ele>96.26027</ele>
        <time>2022-05-06T10:52:36.527Z</time>
      </trkpt>
      <trkpt lat="41.39039" lon="19.66012">
        <ele>96.273543</ele>
        <time>2022-05-06T10:52:39.542Z</time>
      </trkpt>
      <trkpt lat="41.39032" lon="19.6602">
        <ele>96.282782</ele>
        <time>2022-05-06T10:52:41.534Z</time>
      </trkpt>
      <trkpt lat="41.39026" lon="19.6603">
        <ele>96.292428</ele>
        <time>2022-05-06T10:52:43.551Z</time>
      </trkpt>
      <trkpt lat="41.3902" lon="19.66041">
        <ele>96.293894</ele>
        <time>2022-05-06T10:52:45.544Z</time>
      </trkpt>
      <trkpt lat="41.39015" lon="19.66052">
        <ele>96.275172</ele>
        <time>2022-05-06T10:52:47.533Z</time>
      </trkpt>
      <trkpt lat="41.39013" lon="19.66065">
        <ele>96.255885</ele>
        <time>2022-05-06T10:52:49.549Z</time>
      </trkpt>
      <trkpt lat="41.39017" lon="19.66078">
        <ele>96.235766</ele>
        <time>2022-05-06T10:52:51.555Z</time>
      </trkpt>
      <trkpt lat="41.39025" lon="19.66086">
        <ele>96.215845</ele>
        <time>2022-05-06T10:52:53.517Z</time>
      </trkpt>
      <trkpt lat="41.39036" lon="19.66091">
        <ele>96.194251</ele>
        <time>2022-05-06T10:52:55.543Z</time>
      </trkpt>
      <trkpt lat="41.39046" lon="19.66098">
        <ele>96.172393</ele>
        <time>2022-05-06T10:52:57.565Z</time>
      </trkpt>
      <trkpt lat="41.39059" lon="19.66107">
        <ele>96.144302</ele>
        <time>2022-05-06T10:53:00.555Z</time>
      </trkpt>
      <trkpt lat="41.39069" lon="19.66118">
        <ele>96.119017</ele>
        <time>2022-05-06T10:53:02.557Z</time>
      </trkpt>
      <trkpt lat="41.39073" lon="19.66129">
        <ele>96.100851</ele>
        <time>2022-05-06T10:53:04.551Z</time>
      </trkpt>
      <trkpt lat="41.39072" lon="19.66142">
        <ele>96.08191</ele>
        <time>2022-05-06T10:53:06.568Z</time>
      </trkpt>
      <trkpt lat="41.3907" lon="19.66154">
        <ele>96.063021</ele>
        <time>2022-05-06T10:53:08.551Z</time>
      </trkpt>
      <trkpt lat="41.39067" lon="19.66166">
        <ele>96.045548</ele>
        <time>2022-05-06T10:53:10.572Z</time>
      </trkpt>
      <trkpt lat="41.39063" lon="19.66178">
        <ele>96.026397</ele>
        <time>2022-05-06T10:53:13.550Z</time>
      </trkpt>
      <trkpt lat="41.39055" lon="19.66185">
        <ele>96.007574</ele>
        <time>2022-05-06T10:53:18.529Z</time>
      </trkpt>
      <trkpt lat="41.39048" lon="19.66195">
        <ele>95.988002</ele>
        <time>2022-05-06T10:53:22.542Z</time>
      </trkpt>
      <trkpt lat="41.3904" lon="19.66205">
        <ele>95.966171</ele>
        <time>2022-05-06T10:53:25.539Z</time>
      </trkpt>
      <trkpt lat="41.39033" lon="19.66214">
        <ele>95.972722</ele>
        <time>2022-05-06T10:53:28.559Z</time>
      </trkpt>
      <trkpt lat="41.39024" lon="19.66222">
        <ele>96.096319</ele>
        <time>2022-05-06T10:53:31.529Z</time>
      </trkpt>
      <trkpt lat="41.39015" lon="19.66229">
        <ele>96.225804</ele>
        <time>2022-05-06T10:53:34.553Z</time>
      </trkpt>
      <trkpt lat="41.39006" lon="19.66235">
        <ele>96.352956</ele>
        <time>2022-05-06T10:53:37.545Z</time>
      </trkpt>
      <trkpt lat="41.38997" lon="19.66241">
        <ele>96.472561</ele>
        <time>2022-05-06T10:53:40.538Z</time>
      </trkpt>
      <trkpt lat="41.38988" lon="19.66246">
        <ele>96.588531</ele>
        <time>2022-05-06T10:53:43.548Z</time>
      </trkpt>
      <trkpt lat="41.38978" lon="19.66254">
        <ele>96.730389</ele>
        <time>2022-05-06T10:53:46.542Z</time>
      </trkpt>
      <trkpt lat="41.38967" lon="19.66262">
        <ele>96.877348</ele>
        <time>2022-05-06T10:53:49.549Z</time>
      </trkpt>
      <trkpt lat="41.38957" lon="19.66271">
        <ele>97.029688</ele>
        <time>2022-05-06T10:53:52.551Z</time>
      </trkpt>
      <trkpt lat="41.38946" lon="19.66281">
        <ele>97.184055</ele>
        <time>2022-05-06T10:53:55.572Z</time>
      </trkpt>
      <trkpt lat="41.38938" lon="19.66291">
        <ele>97.328756</ele>
        <time>2022-05-06T10:53:58.546Z</time>
      </trkpt>
      <trkpt lat="41.38929" lon="19.66303">
        <ele>97.478403</ele>
        <time>2022-05-06T10:54:01.542Z</time>
      </trkpt>
      <trkpt lat="41.38919" lon="19.66314">
        <ele>97.636698</ele>
        <time>2022-05-06T10:54:04.541Z</time>
      </trkpt>
      <trkpt lat="41.38909" lon="19.66326">
        <ele>97.793483</ele>
        <time>2022-05-06T10:54:07.539Z</time>
      </trkpt>
      <trkpt lat="41.389" lon="19.66337">
        <ele>97.944541</ele>
        <time>2022-05-06T10:54:10.540Z</time>
      </trkpt>
      <trkpt lat="41.3889" lon="19.66348">
        <ele>98.098304</ele>
        <time>2022-05-06T10:54:13.538Z</time>
      </trkpt>
      <trkpt lat="41.38881" lon="19.6636">
        <ele>98.008665</ele>
        <time>2022-05-06T10:54:16.542Z</time>
      </trkpt>
      <trkpt lat="41.38872" lon="19.66371">
        <ele>97.855099</ele>
        <time>2022-05-06T10:54:19.550Z</time>
      </trkpt>
      <trkpt lat="41.38863" lon="19.66382">
        <ele>97.702757</ele>
        <time>2022-05-06T10:54:22.531Z</time>
      </trkpt>
      <trkpt lat="41.38854" lon="19.66393">
        <ele>97.548568</ele>
        <time>2022-05-06T10:54:25.538Z</time>
      </trkpt>
      <trkpt lat="41.38845" lon="19.66404">
        <ele>97.392122</ele>
        <time>2022-05-06T10:54:28.568Z</time>
      </trkpt>
      <trkpt lat="41.38836" lon="19.66415">
        <ele>97.242884</ele>
        <time>2022-05-06T10:54:31.545Z</time>
      </trkpt>
      <trkpt lat="41.38828" lon="19.66424">
        <ele>97.10413</ele>
        <time>2022-05-06T10:54:34.541Z</time>
      </trkpt>
      <trkpt lat="41.3882" lon="19.66435">
        <ele>96.967368</ele>
        <time>2022-05-06T10:54:37.543Z</time>
      </trkpt>
      <trkpt lat="41.38812" lon="19.66445">
        <ele>96.827726</ele>
        <time>2022-05-06T10:54:40.535Z</time>
      </trkpt>
      <trkpt lat="41.38803" lon="19.66457">
        <ele>96.673538</ele>
        <time>2022-05-06T10:54:43.538Z</time>
      </trkpt>
      <trkpt lat="41.38795" lon="19.66467">
        <ele>96.538933</ele>
        <time>2022-05-06T10:54:46.574Z</time>
      </trkpt>
      <trkpt lat="41.38787" lon="19.66477">
        <ele>96.398087</ele>
        <time>2022-05-06T10:54:49.541Z</time>
      </trkpt>
      <trkpt lat="41.38779" lon="19.66487">
        <ele>96.255966</ele>
        <time>2022-05-06T10:54:52.549Z</time>
      </trkpt>
      <trkpt lat="41.3877" lon="19.66498">
        <ele>96.111096</ele>
        <time>2022-05-06T10:54:55.550Z</time>
      </trkpt>
      <trkpt lat="41.38761" lon="19.66508">
        <ele>95.966852</ele>
        <time>2022-05-06T10:54:58.538Z</time>
      </trkpt>
      <trkpt lat="41.38752" lon="19.66519">
        <ele>95.875513</ele>
        <time>2022-05-06T10:55:01.545Z</time>
      </trkpt>
      <trkpt lat="41.38743" lon="19.66529">
        <ele>95.851886</ele>
        <time>2022-05-06T10:55:04.535Z</time>
      </trkpt>
      <trkpt lat="41.38734" lon="19.6654">
        <ele>95.828452</ele>
        <time>2022-05-06T10:55:07.565Z</time>
      </trkpt>
      <trkpt lat="41.38725" lon="19.66551">
        <ele>95.804772</ele>
        <time>2022-05-06T10:55:10.529Z</time>
      </trkpt>
      <trkpt lat="41.38715" lon="19.66562">
        <ele>95.781194</ele>
        <time>2022-05-06T10:55:13.539Z</time>
      </trkpt>
      <trkpt lat="41.38706" lon="19.66573">
        <ele>95.75824</ele>
        <time>2022-05-06T10:55:16.561Z</time>
      </trkpt>
      <trkpt lat="41.38698" lon="19.66583">
        <ele>95.735572</ele>
        <time>2022-05-06T10:55:19.601Z</time>
      </trkpt>
      <trkpt lat="41.38688" lon="19.66594">
        <ele>95.711944</ele>
        <time>2022-05-06T10:55:22.544Z</time>
      </trkpt>
      <trkpt lat="41.38679" lon="19.66606">
        <ele>95.686573</ele>
        <time>2022-05-06T10:55:25.560Z</time>
      </trkpt>
      <trkpt lat="41.3867" lon="19.66617">
        <ele>95.662456</ele>
        <time>2022-05-06T10:55:28.570Z</time>
      </trkpt>
      <trkpt lat="41.3866" lon="19.66628">
        <ele>95.63859</ele>
        <time>2022-05-06T10:55:31.532Z</time>
      </trkpt>
      <trkpt lat="41.38651" lon="19.66639">
        <ele>95.6153</ele>
        <time>2022-05-06T10:55:34.550Z</time>
      </trkpt>
      <trkpt lat="41.38643" lon="19.66651">
        <ele>95.59166</ele>
        <time>2022-05-06T10:55:37.576Z</time>
      </trkpt>
      <trkpt lat="41.38633" lon="19.66662">
        <ele>95.567459</ele>
        <time>2022-05-06T10:55:40.546Z</time>
      </trkpt>
      <trkpt lat="41.38624" lon="19.66673">
        <ele>95.544017</ele>
        <time>2022-05-06T10:55:43.538Z</time>
      </trkpt>
      <trkpt lat="41.38615" lon="19.66683">
        <ele>95.614558</ele>
        <time>2022-05-06T10:55:46.543Z</time>
      </trkpt>
      <trkpt lat="41.38606" lon="19.66694">
        <ele>95.696523</ele>
        <time>2022-05-06T10:55:49.546Z</time>
      </trkpt>
      <trkpt lat="41.38598" lon="19.66705">
        <ele>95.776922</ele>
        <time>2022-05-06T10:55:52.571Z</time>
      </trkpt>
      <trkpt lat="41.38589" lon="19.66716">
        <ele>95.860098</ele>
        <time>2022-05-06T10:55:55.559Z</time>
      </trkpt>
      <trkpt lat="41.38581" lon="19.66727">
        <ele>95.940498</ele>
        <time>2022-05-06T10:55:58.574Z</time>
      </trkpt>
      <trkpt lat="41.38571" lon="19.66738">
        <ele>96.025659</ele>
        <time>2022-05-06T10:56:01.540Z</time>
      </trkpt>
      <trkpt lat="41.38562" lon="19.66748">
        <ele>96.10757</ele>
        <time>2022-05-06T10:56:04.555Z</time>
      </trkpt>
      <trkpt lat="41.38553" lon="19.66758">
        <ele>96.191782</ele>
        <time>2022-05-06T10:56:07.547Z</time>
      </trkpt>
      <trkpt lat="41.38543" lon="19.66769">
        <ele>96.278658</ele>
        <time>2022-05-06T10:56:10.531Z</time>
      </trkpt>
      <trkpt lat="41.38535" lon="19.66781">
        <ele>96.363406</ele>
        <time>2022-05-06T10:56:13.553Z</time>
      </trkpt>
      <trkpt lat="41.38526" lon="19.66792">
        <ele>96.448289</ele>
        <time>2022-05-06T10:56:16.547Z</time>
      </trkpt>
      <trkpt lat="41.38517" lon="19.66804">
        <ele>96.53246</ele>
        <time>2022-05-06T10:56:19.562Z</time>
      </trkpt>
      <trkpt lat="41.38508" lon="19.66814">
        <ele>96.616594</ele>
        <time>2022-05-06T10:56:22.536Z</time>
      </trkpt>
      <trkpt lat="41.38498" lon="19.66826">
        <ele>96.706396</ele>
        <time>2022-05-06T10:56:25.558Z</time>
      </trkpt>
      <trkpt lat="41.38489" lon="19.66838">
        <ele>96.864883</ele>
        <time>2022-05-06T10:56:28.550Z</time>
      </trkpt>
      <trkpt lat="41.3848" lon="19.66849">
        <ele>97.359361</ele>
        <time>2022-05-06T10:56:31.546Z</time>
      </trkpt>
      <trkpt lat="41.38471" lon="19.6686">
        <ele>97.822559</ele>
        <time>2022-05-06T10:56:34.557Z</time>
      </trkpt>
      <trkpt lat="41.38463" lon="19.6687">
        <ele>98.270783</ele>
        <time>2022-05-06T10:56:37.548Z</time>
      </trkpt>
      <trkpt lat="41.38454" lon="19.66881">
        <ele>98.73855</ele>
        <time>2022-05-06T10:56:40.550Z</time>
      </trkpt>
      <trkpt lat="41.38446" lon="19.66891">
        <ele>99.176148</ele>
        <time>2022-05-06T10:56:43.547Z</time>
      </trkpt>
      <trkpt lat="41.38437" lon="19.66901">
        <ele>99.616478</ele>
        <time>2022-05-06T10:56:46.542Z</time>
      </trkpt>
      <trkpt lat="41.38429" lon="19.66911">
        <ele>100.060734</ele>
        <time>2022-05-06T10:56:49.566Z</time>
      </trkpt>
      <trkpt lat="41.3842" lon="19.66922">
        <ele>100.515747</ele>
        <time>2022-05-06T10:56:52.552Z</time>
      </trkpt>
      <trkpt lat="41.38412" lon="19.66931">
        <ele>100.961992</ele>
        <time>2022-05-06T10:56:55.552Z</time>
      </trkpt>
      <trkpt lat="41.38403" lon="19.66941">
        <ele>101.394607</ele>
        <time>2022-05-06T10:56:58.552Z</time>
      </trkpt>
      <trkpt lat="41.38395" lon="19.6695">
        <ele>101.807621</ele>
        <time>2022-05-06T10:57:01.530Z</time>
      </trkpt>
      <trkpt lat="41.38388" lon="19.66958">
        <ele>102.189325</ele>
        <time>2022-05-06T10:57:04.545Z</time>
      </trkpt>
      <trkpt lat="41.38382" lon="19.66967">
        <ele>102.547152</ele>
        <time>2022-05-06T10:57:07.564Z</time>
      </trkpt>
      <trkpt lat="41.38376" lon="19.66976">
        <ele>102.902319</ele>
        <time>2022-05-06T10:57:10.551Z</time>
      </trkpt>
      <trkpt lat="41.38368" lon="19.66985">
        <ele>103.294831</ele>
        <time>2022-05-06T10:57:13.553Z</time>
      </trkpt>
      <trkpt lat="41.38361" lon="19.66995">
        <ele>103.700355</ele>
        <time>2022-05-06T10:57:16.553Z</time>
      </trkpt>
      <trkpt lat="41.38353" lon="19.67005">
        <ele>103.923624</ele>
        <time>2022-05-06T10:57:19.539Z</time>
      </trkpt>
      <trkpt lat="41.38346" lon="19.67015">
        <ele>104.043062</ele>
        <time>2022-05-06T10:57:22.597Z</time>
      </trkpt>
      <trkpt lat="41.38338" lon="19.67023">
        <ele>104.164768</ele>
        <time>2022-05-06T10:57:25.556Z</time>
      </trkpt>
      <trkpt lat="41.3833" lon="19.67032">
        <ele>104.289384</ele>
        <time>2022-05-06T10:57:28.544Z</time>
      </trkpt>
      <trkpt lat="41.38322" lon="19.67042">
        <ele>104.41712</ele>
        <time>2022-05-06T10:57:31.547Z</time>
      </trkpt>
      <trkpt lat="41.38313" lon="19.67052">
        <ele>104.551374</ele>
        <time>2022-05-06T10:57:34.564Z</time>
      </trkpt>
      <trkpt lat="41.38304" lon="19.67062">
        <ele>104.679938</ele>
        <time>2022-05-06T10:57:37.541Z</time>
      </trkpt>
      <trkpt lat="41.38296" lon="19.6707">
        <ele>104.802003</ele>
        <time>2022-05-06T10:57:40.532Z</time>
      </trkpt>
      <trkpt lat="41.38288" lon="19.67079">
        <ele>104.920466</ele>
        <time>2022-05-06T10:57:43.546Z</time>
      </trkpt>
      <trkpt lat="41.3828" lon="19.67087">
        <ele>105.040386</ele>
        <time>2022-05-06T10:57:46.543Z</time>
      </trkpt>
      <trkpt lat="41.38271" lon="19.67095">
        <ele>105.166018</ele>
        <time>2022-05-06T10:57:49.558Z</time>
      </trkpt>
      <trkpt lat="41.38262" lon="19.67104">
        <ele>105.292592</ele>
        <time>2022-05-06T10:57:52.535Z</time>
      </trkpt>
      <trkpt lat="41.38254" lon="19.67112">
        <ele>105.413042</ele>
        <time>2022-05-06T10:57:55.543Z</time>
      </trkpt>
      <trkpt lat="41.38246" lon="19.6712">
        <ele>105.526089</ele>
        <time>2022-05-06T10:57:58.541Z</time>
      </trkpt>
      <trkpt lat="41.38238" lon="19.67128">
        <ele>105.642411</ele>
        <time>2022-05-06T10:58:01.534Z</time>
      </trkpt>
      <trkpt lat="41.3823" lon="19.67136">
        <ele>105.759308</ele>
        <time>2022-05-06T10:58:04.558Z</time>
      </trkpt>
      <trkpt lat="41.38222" lon="19.67144">
        <ele>105.876847</ele>
        <time>2022-05-06T10:58:07.553Z</time>
      </trkpt>
      <trkpt lat="41.38213" lon="19.67152">
        <ele>106.042125</ele>
        <time>2022-05-06T10:58:10.556Z</time>
      </trkpt>
      <trkpt lat="41.38204" lon="19.67159">
        <ele>106.249871</ele>
        <time>2022-05-06T10:58:13.535Z</time>
      </trkpt>
      <trkpt lat="41.38195" lon="19.67167">
        <ele>106.461539</ele>
        <time>2022-05-06T10:58:16.569Z</time>
      </trkpt>
      <trkpt lat="41.38186" lon="19.67174">
        <ele>106.665893</ele>
        <time>2022-05-06T10:58:19.541Z</time>
      </trkpt>
      <trkpt lat="41.38176" lon="19.67182">
        <ele>106.88402</ele>
        <time>2022-05-06T10:58:22.552Z</time>
      </trkpt>
      <trkpt lat="41.38166" lon="19.67191">
        <ele>107.112485</ele>
        <time>2022-05-06T10:58:25.553Z</time>
      </trkpt>
      <trkpt lat="41.38157" lon="19.67198">
        <ele>107.322513</ele>
        <time>2022-05-06T10:58:28.553Z</time>
      </trkpt>
      <trkpt lat="41.38148" lon="19.67206">
        <ele>107.536589</ele>
        <time>2022-05-06T10:58:31.550Z</time>
      </trkpt>
      <trkpt lat="41.38139" lon="19.67214">
        <ele>107.743591</ele>
        <time>2022-05-06T10:58:34.554Z</time>
      </trkpt>
      <trkpt lat="41.38129" lon="19.67221">
        <ele>107.968335</ele>
        <time>2022-05-06T10:58:37.544Z</time>
      </trkpt>
      <trkpt lat="41.38119" lon="19.6723">
        <ele>108.183919</ele>
        <time>2022-05-06T10:58:40.555Z</time>
      </trkpt>
      <trkpt lat="41.3811" lon="19.67237">
        <ele>108.400536</ele>
        <time>2022-05-06T10:58:43.549Z</time>
      </trkpt>
      <trkpt lat="41.38099" lon="19.67245">
        <ele>108.627109</ele>
        <time>2022-05-06T10:58:46.561Z</time>
      </trkpt>
      <trkpt lat="41.38089" lon="19.67252">
        <ele>108.84515</ele>
        <time>2022-05-06T10:58:49.531Z</time>
      </trkpt>
      <trkpt lat="41.38079" lon="19.67258">
        <ele>109.06311</ele>
        <time>2022-05-06T10:58:52.551Z</time>
      </trkpt>
      <trkpt lat="41.38069" lon="19.67265">
        <ele>109.28282</ele>
        <time>2022-05-06T10:58:55.570Z</time>
      </trkpt>
      <trkpt lat="41.38058" lon="19.67273">
        <ele>109.389134</ele>
        <time>2022-05-06T10:58:58.534Z</time>
      </trkpt>
      <trkpt lat="41.38048" lon="19.67281">
        <ele>109.340769</ele>
        <time>2022-05-06T10:59:01.561Z</time>
      </trkpt>
      <trkpt lat="41.38037" lon="19.67288">
        <ele>109.290699</ele>
        <time>2022-05-06T10:59:04.596Z</time>
      </trkpt>
      <trkpt lat="41.38026" lon="19.67296">
        <ele>109.24222</ele>
        <time>2022-05-06T10:59:07.539Z</time>
      </trkpt>
      <trkpt lat="41.38016" lon="19.67302">
        <ele>109.195128</ele>
        <time>2022-05-06T10:59:10.541Z</time>
      </trkpt>
      <trkpt lat="41.38005" lon="19.67308">
        <ele>109.146853</ele>
        <time>2022-05-06T10:59:13.548Z</time>
      </trkpt>
      <trkpt lat="41.37994" lon="19.67315">
        <ele>109.095874</ele>
        <time>2022-05-06T10:59:16.560Z</time>
      </trkpt>
      <trkpt lat="41.37983" lon="19.67321">
        <ele>109.045914</ele>
        <time>2022-05-06T10:59:19.552Z</time>
      </trkpt>
      <trkpt lat="41.3797" lon="19.67329">
        <ele>108.990573</ele>
        <time>2022-05-06T10:59:22.543Z</time>
      </trkpt>
      <trkpt lat="41.37963" lon="19.67335">
        <ele>108.953295</ele>
        <time>2022-05-06T10:59:24.553Z</time>
      </trkpt>
      <trkpt lat="41.37951" lon="19.67343">
        <ele>108.901706</ele>
        <time>2022-05-06T10:59:27.536Z</time>
      </trkpt>
      <trkpt lat="41.37941" lon="19.6735">
        <ele>108.852737</ele>
        <time>2022-05-06T10:59:30.550Z</time>
      </trkpt>
      <trkpt lat="41.3793" lon="19.67357">
        <ele>108.803961</ele>
        <time>2022-05-06T10:59:33.554Z</time>
      </trkpt>
      <trkpt lat="41.37918" lon="19.67365">
        <ele>108.750601</ele>
        <time>2022-05-06T10:59:36.551Z</time>
      </trkpt>
      <trkpt lat="41.3791" lon="19.67369">
        <ele>108.713251</ele>
        <time>2022-05-06T10:59:38.535Z</time>
      </trkpt>
      <trkpt lat="41.37901" lon="19.67374">
        <ele>108.671525</ele>
        <time>2022-05-06T10:59:40.555Z</time>
      </trkpt>
      <trkpt lat="41.37893" lon="19.6738">
        <ele>108.484155</ele>
        <time>2022-05-06T10:59:42.529Z</time>
      </trkpt>
      <trkpt lat="41.37885" lon="19.67386">
        <ele>108.304268</ele>
        <time>2022-05-06T10:59:44.577Z</time>
      </trkpt>
      <trkpt lat="41.37876" lon="19.67391">
        <ele>108.114223</ele>
        <time>2022-05-06T10:59:46.541Z</time>
      </trkpt>
      <trkpt lat="41.37868" lon="19.67398">
        <ele>107.925786</ele>
        <time>2022-05-06T10:59:48.571Z</time>
      </trkpt>
      <trkpt lat="41.3786" lon="19.67404">
        <ele>107.731535</ele>
        <time>2022-05-06T10:59:50.530Z</time>
      </trkpt>
      <trkpt lat="41.37851" lon="19.6741">
        <ele>107.539043</ele>
        <time>2022-05-06T10:59:52.549Z</time>
      </trkpt>
      <trkpt lat="41.37842" lon="19.67416">
        <ele>107.341986</ele>
        <time>2022-05-06T10:59:54.551Z</time>
      </trkpt>
      <trkpt lat="41.37833" lon="19.67423">
        <ele>107.134799</ele>
        <time>2022-05-06T10:59:56.560Z</time>
      </trkpt>
      <trkpt lat="41.37824" lon="19.6743">
        <ele>106.921994</ele>
        <time>2022-05-06T10:59:58.558Z</time>
      </trkpt>
      <trkpt lat="41.37814" lon="19.67437">
        <ele>106.698694</ele>
        <time>2022-05-06T11:00:00.550Z</time>
      </trkpt>
      <trkpt lat="41.37804" lon="19.67444">
        <ele>106.485167</ele>
        <time>2022-05-06T11:00:02.552Z</time>
      </trkpt>
      <trkpt lat="41.37794" lon="19.67451">
        <ele>106.263626</ele>
        <time>2022-05-06T11:00:04.537Z</time>
      </trkpt>
      <trkpt lat="41.37784" lon="19.67457">
        <ele>106.036996</ele>
        <time>2022-05-06T11:00:06.532Z</time>
      </trkpt>
      <trkpt lat="41.37774" lon="19.67464">
        <ele>105.810835</ele>
        <time>2022-05-06T11:00:08.570Z</time>
      </trkpt>
      <trkpt lat="41.37764" lon="19.67471">
        <ele>105.59174</ele>
        <time>2022-05-06T11:00:10.551Z</time>
      </trkpt>
      <trkpt lat="41.37755" lon="19.67478">
        <ele>105.377903</ele>
        <time>2022-05-06T11:00:12.528Z</time>
      </trkpt>
      <trkpt lat="41.37745" lon="19.67484">
        <ele>105.168264</ele>
        <time>2022-05-06T11:00:14.536Z</time>
      </trkpt>
      <trkpt lat="41.37736" lon="19.67491">
        <ele>104.934324</ele>
        <time>2022-05-06T11:00:16.550Z</time>
      </trkpt>
      <trkpt lat="41.37726" lon="19.67498">
        <ele>104.680671</ele>
        <time>2022-05-06T11:00:18.532Z</time>
      </trkpt>
      <trkpt lat="41.37716" lon="19.67506">
        <ele>104.415961</ele>
        <time>2022-05-06T11:00:20.552Z</time>
      </trkpt>
      <trkpt lat="41.37706" lon="19.67513">
        <ele>104.141996</ele>
        <time>2022-05-06T11:00:22.534Z</time>
      </trkpt>
      <trkpt lat="41.37696" lon="19.6752">
        <ele>103.890349</ele>
        <time>2022-05-06T11:00:24.547Z</time>
      </trkpt>
      <trkpt lat="41.37687" lon="19.67527">
        <ele>103.649753</ele>
        <time>2022-05-06T11:00:26.559Z</time>
      </trkpt>
      <trkpt lat="41.37678" lon="19.67535">
        <ele>103.410222</ele>
        <time>2022-05-06T11:00:28.545Z</time>
      </trkpt>
      <trkpt lat="41.37669" lon="19.67542">
        <ele>103.170817</ele>
        <time>2022-05-06T11:00:30.568Z</time>
      </trkpt>
      <trkpt lat="41.37661" lon="19.67551">
        <ele>102.929074</ele>
        <time>2022-05-06T11:00:32.539Z</time>
      </trkpt>
      <trkpt lat="41.37653" lon="19.6756">
        <ele>102.688102</ele>
        <time>2022-05-06T11:00:34.556Z</time>
      </trkpt>
      <trkpt lat="41.37644" lon="19.67568">
        <ele>102.443927</ele>
        <time>2022-05-06T11:00:36.535Z</time>
      </trkpt>
      <trkpt lat="41.37636" lon="19.67577">
        <ele>102.196889</ele>
        <time>2022-05-06T11:00:38.547Z</time>
      </trkpt>
      <trkpt lat="41.37627" lon="19.67587">
        <ele>101.943397</ele>
        <time>2022-05-06T11:00:40.548Z</time>
      </trkpt>
      <trkpt lat="41.37619" lon="19.67596">
        <ele>101.685975</ele>
        <time>2022-05-06T11:00:42.545Z</time>
      </trkpt>
      <trkpt lat="41.3761" lon="19.67605">
        <ele>101.440921</ele>
        <time>2022-05-06T11:00:44.549Z</time>
      </trkpt>
      <trkpt lat="41.37602" lon="19.67614">
        <ele>101.198887</ele>
        <time>2022-05-06T11:00:46.547Z</time>
      </trkpt>
      <trkpt lat="41.37593" lon="19.67623">
        <ele>100.960111</ele>
        <time>2022-05-06T11:00:48.569Z</time>
      </trkpt>
      <trkpt lat="41.37585" lon="19.67632">
        <ele>100.811548</ele>
        <time>2022-05-06T11:00:50.579Z</time>
      </trkpt>
      <trkpt lat="41.37575" lon="19.67642">
        <ele>100.655098</ele>
        <time>2022-05-06T11:00:52.541Z</time>
      </trkpt>
      <trkpt lat="41.37566" lon="19.67652">
        <ele>100.497622</ele>
        <time>2022-05-06T11:00:54.549Z</time>
      </trkpt>
      <trkpt lat="41.37557" lon="19.67663">
        <ele>100.335174</ele>
        <time>2022-05-06T11:00:56.550Z</time>
      </trkpt>
      <trkpt lat="41.37547" lon="19.67674">
        <ele>100.17155</ele>
        <time>2022-05-06T11:00:58.552Z</time>
      </trkpt>
      <trkpt lat="41.37539" lon="19.67684">
        <ele>100.012866</ele>
        <time>2022-05-06T11:01:00.544Z</time>
      </trkpt>
      <trkpt lat="41.37529" lon="19.67694">
        <ele>99.854724</ele>
        <time>2022-05-06T11:01:02.542Z</time>
      </trkpt>
      <trkpt lat="41.37519" lon="19.67705">
        <ele>99.687699</ele>
        <time>2022-05-06T11:01:04.536Z</time>
      </trkpt>
      <trkpt lat="41.3751" lon="19.67714">
        <ele>99.525776</ele>
        <time>2022-05-06T11:01:06.550Z</time>
      </trkpt>
      <trkpt lat="41.37501" lon="19.67724">
        <ele>99.372241</ele>
        <time>2022-05-06T11:01:08.525Z</time>
      </trkpt>
      <trkpt lat="41.37492" lon="19.67733">
        <ele>99.222836</ele>
        <time>2022-05-06T11:01:10.550Z</time>
      </trkpt>
      <trkpt lat="41.37483" lon="19.67743">
        <ele>99.076054</ele>
        <time>2022-05-06T11:01:12.541Z</time>
      </trkpt>
      <trkpt lat="41.37474" lon="19.67753">
        <ele>98.920861</ele>
        <time>2022-05-06T11:01:14.536Z</time>
      </trkpt>
      <trkpt lat="41.37466" lon="19.67761">
        <ele>98.779747</ele>
        <time>2022-05-06T11:01:16.548Z</time>
      </trkpt>
      <trkpt lat="41.37457" lon="19.6777">
        <ele>98.636656</ele>
        <time>2022-05-06T11:01:18.536Z</time>
      </trkpt>
      <trkpt lat="41.37448" lon="19.67779">
        <ele>98.702098</ele>
        <time>2022-05-06T11:01:20.562Z</time>
      </trkpt>
      <trkpt lat="41.3744" lon="19.67787">
        <ele>98.829901</ele>
        <time>2022-05-06T11:01:22.571Z</time>
      </trkpt>
      <trkpt lat="41.37432" lon="19.67796">
        <ele>98.958868</ele>
        <time>2022-05-06T11:01:24.546Z</time>
      </trkpt>
      <trkpt lat="41.37425" lon="19.67806">
        <ele>99.08653</ele>
        <time>2022-05-06T11:01:26.528Z</time>
      </trkpt>
      <trkpt lat="41.37417" lon="19.67813">
        <ele>99.205232</ele>
        <time>2022-05-06T11:01:28.554Z</time>
      </trkpt>
      <trkpt lat="41.37406" lon="19.67823">
        <ele>99.367848</ele>
        <time>2022-05-06T11:01:31.538Z</time>
      </trkpt>
      <trkpt lat="41.37395" lon="19.67833">
        <ele>99.531419</ele>
        <time>2022-05-06T11:01:34.549Z</time>
      </trkpt>
      <trkpt lat="41.37386" lon="19.67841">
        <ele>99.658201</ele>
        <time>2022-05-06T11:01:36.546Z</time>
      </trkpt>
      <trkpt lat="41.37378" lon="19.67849">
        <ele>99.783046</ele>
        <time>2022-05-06T11:01:38.539Z</time>
      </trkpt>
      <trkpt lat="41.3737" lon="19.67857">
        <ele>99.901865</ele>
        <time>2022-05-06T11:01:40.591Z</time>
      </trkpt>
      <trkpt lat="41.37362" lon="19.67865">
        <ele>100.026709</ele>
        <time>2022-05-06T11:01:42.548Z</time>
      </trkpt>
      <trkpt lat="41.37354" lon="19.67872">
        <ele>100.147941</ele>
        <time>2022-05-06T11:01:44.536Z</time>
      </trkpt>
      <trkpt lat="41.37347" lon="19.67881">
        <ele>100.271957</ele>
        <time>2022-05-06T11:01:46.560Z</time>
      </trkpt>
      <trkpt lat="41.3734" lon="19.67891">
        <ele>100.39303</ele>
        <time>2022-05-06T11:01:48.546Z</time>
      </trkpt>
      <trkpt lat="41.37334" lon="19.67903">
        <ele>100.525793</ele>
        <time>2022-05-06T11:01:50.552Z</time>
      </trkpt>
      <trkpt lat="41.37328" lon="19.67915">
        <ele>100.660261</ele>
        <time>2022-05-06T11:01:52.530Z</time>
      </trkpt>
      <trkpt lat="41.37322" lon="19.67927">
        <ele>100.788317</ele>
        <time>2022-05-06T11:01:54.588Z</time>
      </trkpt>
      <trkpt lat="41.37316" lon="19.67939">
        <ele>100.620021</ele>
        <time>2022-05-06T11:01:56.559Z</time>
      </trkpt>
      <trkpt lat="41.37311" lon="19.67951">
        <ele>100.405693</ele>
        <time>2022-05-06T11:01:58.540Z</time>
      </trkpt>
      <trkpt lat="41.37305" lon="19.67963">
        <ele>100.189376</ele>
        <time>2022-05-06T11:02:00.550Z</time>
      </trkpt>
      <trkpt lat="41.37299" lon="19.67974">
        <ele>99.962339</ele>
        <time>2022-05-06T11:02:02.547Z</time>
      </trkpt>
      <trkpt lat="41.37292" lon="19.67987">
        <ele>99.721697</ele>
        <time>2022-05-06T11:02:04.548Z</time>
      </trkpt>
      <trkpt lat="41.37284" lon="19.67999">
        <ele>99.472355</ele>
        <time>2022-05-06T11:02:06.555Z</time>
      </trkpt>
      <trkpt lat="41.37277" lon="19.68012">
        <ele>99.224275</ele>
        <time>2022-05-06T11:02:08.539Z</time>
      </trkpt>
      <trkpt lat="41.3727" lon="19.68025">
        <ele>98.985886</ele>
        <time>2022-05-06T11:02:10.559Z</time>
      </trkpt>
      <trkpt lat="41.37264" lon="19.68038">
        <ele>98.734726</ele>
        <time>2022-05-06T11:02:12.549Z</time>
      </trkpt>
      <trkpt lat="41.37257" lon="19.68052">
        <ele>98.488409</ele>
        <time>2022-05-06T11:02:14.558Z</time>
      </trkpt>
      <trkpt lat="41.37252" lon="19.68065">
        <ele>98.247176</ele>
        <time>2022-05-06T11:02:16.559Z</time>
      </trkpt>
      <trkpt lat="41.37246" lon="19.68078">
        <ele>98.010726</ele>
        <time>2022-05-06T11:02:18.552Z</time>
      </trkpt>
      <trkpt lat="41.3724" lon="19.6809">
        <ele>97.784526</ele>
        <time>2022-05-06T11:02:20.533Z</time>
      </trkpt>
      <trkpt lat="41.37233" lon="19.68103">
        <ele>97.5525</ele>
        <time>2022-05-06T11:02:22.558Z</time>
      </trkpt>
      <trkpt lat="41.37227" lon="19.68115">
        <ele>97.322934</ele>
        <time>2022-05-06T11:02:24.554Z</time>
      </trkpt>
      <trkpt lat="41.3722" lon="19.68126">
        <ele>97.103392</ele>
        <time>2022-05-06T11:02:26.544Z</time>
      </trkpt>
      <trkpt lat="41.37214" lon="19.68137">
        <ele>97.259673</ele>
        <time>2022-05-06T11:02:28.555Z</time>
      </trkpt>
      <trkpt lat="41.37208" lon="19.68149">
        <ele>97.436393</ele>
        <time>2022-05-06T11:02:30.535Z</time>
      </trkpt>
      <trkpt lat="41.37201" lon="19.6816">
        <ele>97.613099</ele>
        <time>2022-05-06T11:02:32.568Z</time>
      </trkpt>
      <trkpt lat="41.37195" lon="19.68172">
        <ele>97.787961</ele>
        <time>2022-05-06T11:02:34.546Z</time>
      </trkpt>
      <trkpt lat="41.37189" lon="19.68184">
        <ele>97.971637</ele>
        <time>2022-05-06T11:02:36.560Z</time>
      </trkpt>
      <trkpt lat="41.37182" lon="19.68195">
        <ele>98.151328</ele>
        <time>2022-05-06T11:02:38.549Z</time>
      </trkpt>
      <trkpt lat="41.37176" lon="19.68207">
        <ele>98.333042</ele>
        <time>2022-05-06T11:02:40.538Z</time>
      </trkpt>
      <trkpt lat="41.37169" lon="19.68219">
        <ele>98.509763</ele>
        <time>2022-05-06T11:02:42.550Z</time>
      </trkpt>
      <trkpt lat="41.37163" lon="19.6823">
        <ele>98.683538</ele>
        <time>2022-05-06T11:02:44.544Z</time>
      </trkpt>
      <trkpt lat="41.37156" lon="19.68241">
        <ele>98.858341</ele>
        <time>2022-05-06T11:02:46.533Z</time>
      </trkpt>
      <trkpt lat="41.37149" lon="19.68252">
        <ele>99.041038</ele>
        <time>2022-05-06T11:02:48.558Z</time>
      </trkpt>
      <trkpt lat="41.37143" lon="19.68264">
        <ele>99.225872</ele>
        <time>2022-05-06T11:02:50.556Z</time>
      </trkpt>
      <trkpt lat="41.37137" lon="19.68277">
        <ele>99.414962</ele>
        <time>2022-05-06T11:02:52.555Z</time>
      </trkpt>
      <trkpt lat="41.37131" lon="19.6829">
        <ele>99.599901</ele>
        <time>2022-05-06T11:02:54.571Z</time>
      </trkpt>
      <trkpt lat="41.37124" lon="19.68302">
        <ele>99.783589</ele>
        <time>2022-05-06T11:02:56.573Z</time>
      </trkpt>
      <trkpt lat="41.37118" lon="19.68312">
        <ele>99.944448</ele>
        <time>2022-05-06T11:02:58.537Z</time>
      </trkpt>
      <trkpt lat="41.37112" lon="19.68323">
        <ele>100.054548</ele>
        <time>2022-05-06T11:03:00.539Z</time>
      </trkpt>
      <trkpt lat="41.37106" lon="19.68334">
        <ele>100.004246</ele>
        <time>2022-05-06T11:03:02.549Z</time>
      </trkpt>
      <trkpt lat="41.37101" lon="19.68346">
        <ele>99.955099</ele>
        <time>2022-05-06T11:03:04.544Z</time>
      </trkpt>
      <trkpt lat="41.37097" lon="19.68358">
        <ele>99.908311</ele>
        <time>2022-05-06T11:03:06.535Z</time>
      </trkpt>
      <trkpt lat="41.37092" lon="19.68369">
        <ele>99.860872</ele>
        <time>2022-05-06T11:03:08.564Z</time>
      </trkpt>
      <trkpt lat="41.37089" lon="19.68381">
        <ele>99.81393</ele>
        <time>2022-05-06T11:03:10.534Z</time>
      </trkpt>
      <trkpt lat="41.37085" lon="19.68394">
        <ele>99.764758</ele>
        <time>2022-05-06T11:03:12.529Z</time>
      </trkpt>
      <trkpt lat="41.37081" lon="19.68406">
        <ele>99.718489</ele>
        <time>2022-05-06T11:03:14.541Z</time>
      </trkpt>
      <trkpt lat="41.37078" lon="19.68418">
        <ele>99.670859</ele>
        <time>2022-05-06T11:03:16.550Z</time>
      </trkpt>
      <trkpt lat="41.37075" lon="19.6843">
        <ele>99.624258</ele>
        <time>2022-05-06T11:03:18.561Z</time>
      </trkpt>
      <trkpt lat="41.37072" lon="19.68442">
        <ele>99.576971</ele>
        <time>2022-05-06T11:03:20.559Z</time>
      </trkpt>
      <trkpt lat="41.37069" lon="19.68454">
        <ele>99.533055</ele>
        <time>2022-05-06T11:03:22.538Z</time>
      </trkpt>
      <trkpt lat="41.37066" lon="19.68471">
        <ele>99.468095</ele>
        <time>2022-05-06T11:03:25.531Z</time>
      </trkpt>
      <trkpt lat="41.37066" lon="19.68484">
        <ele>99.422598</ele>
        <time>2022-05-06T11:03:27.533Z</time>
      </trkpt>
      <trkpt lat="41.37068" lon="19.68496">
        <ele>99.377253</ele>
        <time>2022-05-06T11:03:29.544Z</time>
      </trkpt>
      <trkpt lat="41.37074" lon="19.68512">
        <ele>99.312811</ele>
        <time>2022-05-06T11:03:32.529Z</time>
      </trkpt>
      <trkpt lat="41.37079" lon="19.68523">
        <ele>99.266768</ele>
        <time>2022-05-06T11:03:34.542Z</time>
      </trkpt>
      <trkpt lat="41.37084" lon="19.68534">
        <ele>99.218884</ele>
        <time>2022-05-06T11:03:36.556Z</time>
      </trkpt>
      <trkpt lat="41.37089" lon="19.68547">
        <ele>99.249438</ele>
        <time>2022-05-06T11:03:38.542Z</time>
      </trkpt>
      <trkpt lat="41.37094" lon="19.6856">
        <ele>99.339141</ele>
        <time>2022-05-06T11:03:40.532Z</time>
      </trkpt>
      <trkpt lat="41.37098" lon="19.68574">
        <ele>99.428553</ele>
        <time>2022-05-06T11:03:42.536Z</time>
      </trkpt>
      <trkpt lat="41.37101" lon="19.68589">
        <ele>99.515607</ele>
        <time>2022-05-06T11:03:44.547Z</time>
      </trkpt>
      <trkpt lat="41.37102" lon="19.68603">
        <ele>99.604745</ele>
        <time>2022-05-06T11:03:46.532Z</time>
      </trkpt>
      <trkpt lat="41.37103" lon="19.68618">
        <ele>99.690035</ele>
        <time>2022-05-06T11:03:48.545Z</time>
      </trkpt>
      <trkpt lat="41.37104" lon="19.68631">
        <ele>99.76974</ele>
        <time>2022-05-06T11:03:50.542Z</time>
      </trkpt>
      <trkpt lat="41.37105" lon="19.68645">
        <ele>99.856318</ele>
        <time>2022-05-06T11:03:52.557Z</time>
      </trkpt>
      <trkpt lat="41.37106" lon="19.68659">
        <ele>99.940335</ele>
        <time>2022-05-06T11:03:54.544Z</time>
      </trkpt>
      <trkpt lat="41.37107" lon="19.68674">
        <ele>100.02896</ele>
        <time>2022-05-06T11:03:56.554Z</time>
      </trkpt>
      <trkpt lat="41.37108" lon="19.6869">
        <ele>100.126797</ele>
        <time>2022-05-06T11:03:58.542Z</time>
      </trkpt>
      <trkpt lat="41.3711" lon="19.68707">
        <ele>100.226098</ele>
        <time>2022-05-06T11:04:00.554Z</time>
      </trkpt>
      <trkpt lat="41.37111" lon="19.68723">
        <ele>100.320892</ele>
        <time>2022-05-06T11:04:02.561Z</time>
      </trkpt>
      <trkpt lat="41.37113" lon="19.68738">
        <ele>100.412553</ele>
        <time>2022-05-06T11:04:04.534Z</time>
      </trkpt>
      <trkpt lat="41.37116" lon="19.68754">
        <ele>100.510227</ele>
        <time>2022-05-06T11:04:06.540Z</time>
      </trkpt>
      <trkpt lat="41.37117" lon="19.68771">
        <ele>100.615189</ele>
        <time>2022-05-06T11:04:08.558Z</time>
      </trkpt>
      <trkpt lat="41.37119" lon="19.68789">
        <ele>100.717863</ele>
        <time>2022-05-06T11:04:10.550Z</time>
      </trkpt>
      <trkpt lat="41.37121" lon="19.68807">
        <ele>100.817726</ele>
        <time>2022-05-06T11:04:12.574Z</time>
      </trkpt>
      <trkpt lat="41.37124" lon="19.68823">
        <ele>100.910246</ele>
        <time>2022-05-06T11:04:14.553Z</time>
      </trkpt>
      <trkpt lat="41.37126" lon="19.68839">
        <ele>101.002912</ele>
        <time>2022-05-06T11:04:16.595Z</time>
      </trkpt>
      <trkpt lat="41.37128" lon="19.68855">
        <ele>101.097142</ele>
        <time>2022-05-06T11:04:18.543Z</time>
      </trkpt>
      <trkpt lat="41.3713" lon="19.68871">
        <ele>101.187575</ele>
        <time>2022-05-06T11:04:20.560Z</time>
      </trkpt>
      <trkpt lat="41.37131" lon="19.68887">
        <ele>101.27606</ele>
        <time>2022-05-06T11:04:22.559Z</time>
      </trkpt>
      <trkpt lat="41.37131" lon="19.68901">
        <ele>101.359705</ele>
        <time>2022-05-06T11:04:24.564Z</time>
      </trkpt>
      <trkpt lat="41.37131" lon="19.68915">
        <ele>101.438261</ele>
        <time>2022-05-06T11:04:26.566Z</time>
      </trkpt>
      <trkpt lat="41.3713" lon="19.68929">
        <ele>101.515303</ele>
        <time>2022-05-06T11:04:28.558Z</time>
      </trkpt>
      <trkpt lat="41.3713" lon="19.68943">
        <ele>101.595568</ele>
        <time>2022-05-06T11:04:30.526Z</time>
      </trkpt>
      <trkpt lat="41.37129" lon="19.68957">
        <ele>101.674301</ele>
        <time>2022-05-06T11:04:32.540Z</time>
      </trkpt>
      <trkpt lat="41.37127" lon="19.68972">
        <ele>101.75776</ele>
        <time>2022-05-06T11:04:34.537Z</time>
      </trkpt>
      <trkpt lat="41.37124" lon="19.68986">
        <ele>101.84</ele>
        <time>2022-05-06T11:04:36.551Z</time>
      </trkpt>
      <trkpt lat="41.37121" lon="19.68999">
        <ele>101.916979</ele>
        <time>2022-05-06T11:04:38.537Z</time>
      </trkpt>
      <trkpt lat="41.3712" lon="19.69011">
        <ele>101.983064</ele>
        <time>2022-05-06T11:04:40.540Z</time>
      </trkpt>
      <trkpt lat="41.37117" lon="19.69023">
        <ele>101.985177</ele>
        <time>2022-05-06T11:04:42.552Z</time>
      </trkpt>
      <trkpt lat="41.37115" lon="19.69035">
        <ele>101.987305</ele>
        <time>2022-05-06T11:04:44.578Z</time>
      </trkpt>
      <trkpt lat="41.37112" lon="19.69047">
        <ele>101.989424</ele>
        <time>2022-05-06T11:04:46.541Z</time>
      </trkpt>
      <trkpt lat="41.37109" lon="19.69062">
        <ele>101.992097</ele>
        <time>2022-05-06T11:04:49.560Z</time>
      </trkpt>
      <trkpt lat="41.37106" lon="19.69076">
        <ele>101.99448</ele>
        <time>2022-05-06T11:04:52.555Z</time>
      </trkpt>
      <trkpt lat="41.37102" lon="19.69088">
        <ele>101.996697</ele>
        <time>2022-05-06T11:04:56.558Z</time>
      </trkpt>
      <trkpt lat="41.37102" lon="19.691">
        <ele>101.998739</ele>
        <time>2022-05-06T11:05:02.591Z</time>
      </trkpt>
      <trkpt lat="41.371" lon="19.69115">
        <ele>102.00131</ele>
        <time>2022-05-06T11:05:08.542Z</time>
      </trkpt>
      <trkpt lat="41.37098" lon="19.69129">
        <ele>102.003727</ele>
        <time>2022-05-06T11:05:11.536Z</time>
      </trkpt>
      <trkpt lat="41.37095" lon="19.69146">
        <ele>102.006672</ele>
        <time>2022-05-06T11:05:14.548Z</time>
      </trkpt>
      <trkpt lat="41.37093" lon="19.69158">
        <ele>102.008757</ele>
        <time>2022-05-06T11:05:16.540Z</time>
      </trkpt>
      <trkpt lat="41.3709" lon="19.69171">
        <ele>102.010967</ele>
        <time>2022-05-06T11:05:18.549Z</time>
      </trkpt>
      <trkpt lat="41.37087" lon="19.69184">
        <ele>102.013232</ele>
        <time>2022-05-06T11:05:20.541Z</time>
      </trkpt>
      <trkpt lat="41.37084" lon="19.69196">
        <ele>102.015434</ele>
        <time>2022-05-06T11:05:22.554Z</time>
      </trkpt>
      <trkpt lat="41.37082" lon="19.69209">
        <ele>102.017606</ele>
        <time>2022-05-06T11:05:24.547Z</time>
      </trkpt>
      <trkpt lat="41.37079" lon="19.69222">
        <ele>102.019909</ele>
        <time>2022-05-06T11:05:26.531Z</time>
      </trkpt>
      <trkpt lat="41.37076" lon="19.69235">
        <ele>102.02216</ele>
        <time>2022-05-06T11:05:28.539Z</time>
      </trkpt>
      <trkpt lat="41.37074" lon="19.69248">
        <ele>101.903933</ele>
        <time>2022-05-06T11:05:30.530Z</time>
      </trkpt>
      <trkpt lat="41.37072" lon="19.6926">
        <ele>101.648164</ele>
        <time>2022-05-06T11:05:32.539Z</time>
      </trkpt>
      <trkpt lat="41.3707" lon="19.69273">
        <ele>101.395668</ele>
        <time>2022-05-06T11:05:34.561Z</time>
      </trkpt>
      <trkpt lat="41.37067" lon="19.69285">
        <ele>101.14816</ele>
        <time>2022-05-06T11:05:36.551Z</time>
      </trkpt>
      <trkpt lat="41.37065" lon="19.69297">
        <ele>100.902269</ele>
        <time>2022-05-06T11:05:38.535Z</time>
      </trkpt>
      <trkpt lat="41.37064" lon="19.6931">
        <ele>100.642727</ele>
        <time>2022-05-06T11:05:40.536Z</time>
      </trkpt>
      <trkpt lat="41.37061" lon="19.69324">
        <ele>100.35346</ele>
        <time>2022-05-06T11:05:42.567Z</time>
      </trkpt>
      <trkpt lat="41.37059" lon="19.69338">
        <ele>100.067017</ele>
        <time>2022-05-06T11:05:44.542Z</time>
      </trkpt>
      <trkpt lat="41.37056" lon="19.69351">
        <ele>99.795899</ele>
        <time>2022-05-06T11:05:46.548Z</time>
      </trkpt>
      <trkpt lat="41.37053" lon="19.69364">
        <ele>99.52738</ele>
        <time>2022-05-06T11:05:48.545Z</time>
      </trkpt>
      <trkpt lat="41.3705" lon="19.69378">
        <ele>99.247209</ele>
        <time>2022-05-06T11:05:50.563Z</time>
      </trkpt>
      <trkpt lat="41.37048" lon="19.69391">
        <ele>98.973587</ele>
        <time>2022-05-06T11:05:52.527Z</time>
      </trkpt>
      <trkpt lat="41.37045" lon="19.69405">
        <ele>98.695717</ele>
        <time>2022-05-06T11:05:54.553Z</time>
      </trkpt>
      <trkpt lat="41.37042" lon="19.69418">
        <ele>98.417452</ele>
        <time>2022-05-06T11:05:56.554Z</time>
      </trkpt>
      <trkpt lat="41.37039" lon="19.69432">
        <ele>98.141091</ele>
        <time>2022-05-06T11:05:58.552Z</time>
      </trkpt>
      <trkpt lat="41.37037" lon="19.69445">
        <ele>97.857843</ele>
        <time>2022-05-06T11:06:00.561Z</time>
      </trkpt>
      <trkpt lat="41.37034" lon="19.69459">
        <ele>97.571398</ele>
        <time>2022-05-06T11:06:02.556Z</time>
      </trkpt>
      <trkpt lat="41.37031" lon="19.69473">
        <ele>97.28288</ele>
        <time>2022-05-06T11:06:04.536Z</time>
      </trkpt>
      <trkpt lat="41.37028" lon="19.69488">
        <ele>97.038661</ele>
        <time>2022-05-06T11:06:06.553Z</time>
      </trkpt>
      <trkpt lat="41.37025" lon="19.69501">
        <ele>96.803878</ele>
        <time>2022-05-06T11:06:08.526Z</time>
      </trkpt>
      <trkpt lat="41.37022" lon="19.69515">
        <ele>96.572477</ele>
        <time>2022-05-06T11:06:10.543Z</time>
      </trkpt>
      <trkpt lat="41.3702" lon="19.69528">
        <ele>96.343238</ele>
        <time>2022-05-06T11:06:12.546Z</time>
      </trkpt>
      <trkpt lat="41.37017" lon="19.69541">
        <ele>96.119829</ele>
        <time>2022-05-06T11:06:14.543Z</time>
      </trkpt>
      <trkpt lat="41.37015" lon="19.69554">
        <ele>95.893771</ele>
        <time>2022-05-06T11:06:16.580Z</time>
      </trkpt>
      <trkpt lat="41.37012" lon="19.69568">
        <ele>95.668818</ele>
        <time>2022-05-06T11:06:18.542Z</time>
      </trkpt>
      <trkpt lat="41.37009" lon="19.6958">
        <ele>95.445778</ele>
        <time>2022-05-06T11:06:20.575Z</time>
      </trkpt>
      <trkpt lat="41.37006" lon="19.69594">
        <ele>95.218583</ele>
        <time>2022-05-06T11:06:22.556Z</time>
      </trkpt>
      <trkpt lat="41.37004" lon="19.69607">
        <ele>94.996847</ele>
        <time>2022-05-06T11:06:24.554Z</time>
      </trkpt>
      <trkpt lat="41.37002" lon="19.69619">
        <ele>94.793252</ele>
        <time>2022-05-06T11:06:26.561Z</time>
      </trkpt>
      <trkpt lat="41.37" lon="19.69631">
        <ele>94.57714</ele>
        <time>2022-05-06T11:06:28.558Z</time>
      </trkpt>
      <trkpt lat="41.36998" lon="19.69645">
        <ele>94.351672</ele>
        <time>2022-05-06T11:06:30.528Z</time>
      </trkpt>
      <trkpt lat="41.36996" lon="19.69658">
        <ele>94.127227</ele>
        <time>2022-05-06T11:06:32.536Z</time>
      </trkpt>
      <trkpt lat="41.36994" lon="19.69671">
        <ele>93.900663</ele>
        <time>2022-05-06T11:06:34.540Z</time>
      </trkpt>
      <trkpt lat="41.36991" lon="19.69685">
        <ele>93.668415</ele>
        <time>2022-05-06T11:06:36.543Z</time>
      </trkpt>
      <trkpt lat="41.36987" lon="19.69698">
        <ele>93.43268</ele>
        <time>2022-05-06T11:06:38.565Z</time>
      </trkpt>
      <trkpt lat="41.36984" lon="19.69711">
        <ele>93.395945</ele>
        <time>2022-05-06T11:06:40.544Z</time>
      </trkpt>
      <trkpt lat="41.36981" lon="19.69724">
        <ele>93.605778</ele>
        <time>2022-05-06T11:06:42.540Z</time>
      </trkpt>
      <trkpt lat="41.36978" lon="19.69737">
        <ele>93.808042</ele>
        <time>2022-05-06T11:06:44.545Z</time>
      </trkpt>
      <trkpt lat="41.36976" lon="19.69749">
        <ele>94.00653</ele>
        <time>2022-05-06T11:06:46.544Z</time>
      </trkpt>
      <trkpt lat="41.36975" lon="19.69763">
        <ele>94.21411</ele>
        <time>2022-05-06T11:06:48.546Z</time>
      </trkpt>
      <trkpt lat="41.36972" lon="19.69776">
        <ele>94.432888</ele>
        <time>2022-05-06T11:06:50.533Z</time>
      </trkpt>
      <trkpt lat="41.3697" lon="19.6979">
        <ele>94.649705</ele>
        <time>2022-05-06T11:06:52.559Z</time>
      </trkpt>
      <trkpt lat="41.36967" lon="19.69803">
        <ele>94.857966</ele>
        <time>2022-05-06T11:06:54.546Z</time>
      </trkpt>
      <trkpt lat="41.36965" lon="19.69816">
        <ele>95.057237</ele>
        <time>2022-05-06T11:06:56.534Z</time>
      </trkpt>
      <trkpt lat="41.36963" lon="19.69828">
        <ele>95.255537</ele>
        <time>2022-05-06T11:06:58.567Z</time>
      </trkpt>
      <trkpt lat="41.3696" lon="19.69841">
        <ele>95.461304</ele>
        <time>2022-05-06T11:07:00.563Z</time>
      </trkpt>
      <trkpt lat="41.36958" lon="19.69854">
        <ele>95.671067</ele>
        <time>2022-05-06T11:07:02.543Z</time>
      </trkpt>
      <trkpt lat="41.36955" lon="19.69867">
        <ele>95.873845</ele>
        <time>2022-05-06T11:07:04.570Z</time>
      </trkpt>
      <trkpt lat="41.36953" lon="19.6988">
        <ele>96.08224</ele>
        <time>2022-05-06T11:07:06.558Z</time>
      </trkpt>
      <trkpt lat="41.36951" lon="19.69893">
        <ele>96.290999</ele>
        <time>2022-05-06T11:07:08.614Z</time>
      </trkpt>
      <trkpt lat="41.36948" lon="19.69907">
        <ele>96.511754</ele>
        <time>2022-05-06T11:07:10.545Z</time>
      </trkpt>
      <trkpt lat="41.36946" lon="19.69921">
        <ele>96.73505</ele>
        <time>2022-05-06T11:07:12.559Z</time>
      </trkpt>
      <trkpt lat="41.36943" lon="19.69935">
        <ele>96.958346</ele>
        <time>2022-05-06T11:07:14.554Z</time>
      </trkpt>
      <trkpt lat="41.36941" lon="19.69949">
        <ele>97.242048</ele>
        <time>2022-05-06T11:07:16.570Z</time>
      </trkpt>
      <trkpt lat="41.36938" lon="19.69963">
        <ele>97.537471</ele>
        <time>2022-05-06T11:07:18.566Z</time>
      </trkpt>
      <trkpt lat="41.36935" lon="19.69976">
        <ele>97.824822</ele>
        <time>2022-05-06T11:07:20.562Z</time>
      </trkpt>
      <trkpt lat="41.36932" lon="19.69989">
        <ele>98.11419</ele>
        <time>2022-05-06T11:07:22.547Z</time>
      </trkpt>
      <trkpt lat="41.3693" lon="19.70002">
        <ele>98.398048</ele>
        <time>2022-05-06T11:07:24.555Z</time>
      </trkpt>
      <trkpt lat="41.36927" lon="19.70016">
        <ele>98.687985</ele>
        <time>2022-05-06T11:07:26.635Z</time>
      </trkpt>
      <trkpt lat="41.36924" lon="19.70029">
        <ele>98.970896</ele>
        <time>2022-05-06T11:07:28.562Z</time>
      </trkpt>
      <trkpt lat="41.36921" lon="19.70041">
        <ele>99.233802</ele>
        <time>2022-05-06T11:07:30.552Z</time>
      </trkpt>
      <trkpt lat="41.3692" lon="19.70053">
        <ele>99.489622</ele>
        <time>2022-05-06T11:07:32.556Z</time>
      </trkpt>
      <trkpt lat="41.36917" lon="19.7007">
        <ele>99.866917</ele>
        <time>2022-05-06T11:07:35.551Z</time>
      </trkpt>
      <trkpt lat="41.36918" lon="19.70083">
        <ele>100.133196</ele>
        <time>2022-05-06T11:07:37.611Z</time>
      </trkpt>
      <trkpt lat="41.36925" lon="19.70097">
        <ele>100.490076</ele>
        <time>2022-05-06T11:07:40.550Z</time>
      </trkpt>
      <trkpt lat="41.36936" lon="19.70101">
        <ele>100.800616</ele>
        <time>2022-05-06T11:07:42.551Z</time>
      </trkpt>
      <trkpt lat="41.36945" lon="19.70103">
        <ele>101.062645</ele>
        <time>2022-05-06T11:07:44.538Z</time>
      </trkpt>
      <trkpt lat="41.36957" lon="19.70103">
        <ele>101.380869</ele>
        <time>2022-05-06T11:07:46.557Z</time>
      </trkpt>
      <trkpt lat="41.36968" lon="19.70104">
        <ele>101.708004</ele>
        <time>2022-05-06T11:07:48.579Z</time>
      </trkpt>
      <trkpt lat="41.36981" lon="19.70107">
        <ele>102.053312</ele>
        <time>2022-05-06T11:07:50.562Z</time>
      </trkpt>
      <trkpt lat="41.36994" lon="19.70111">
        <ele>102.277071</ele>
        <time>2022-05-06T11:07:52.553Z</time>
      </trkpt>
      <trkpt lat="41.37007" lon="19.70115">
        <ele>102.485816</ele>
        <time>2022-05-06T11:07:54.617Z</time>
      </trkpt>
      <trkpt lat="41.37018" lon="19.70121">
        <ele>102.689294</ele>
        <time>2022-05-06T11:07:56.574Z</time>
      </trkpt>
      <trkpt lat="41.37027" lon="19.70128">
        <ele>102.856217</ele>
        <time>2022-05-06T11:07:58.539Z</time>
      </trkpt>
      <trkpt lat="41.37033" lon="19.70138">
        <ele>103.012803</ele>
        <time>2022-05-06T11:08:00.538Z</time>
      </trkpt>
      <trkpt lat="41.37038" lon="19.7015">
        <ele>103.183711</ele>
        <time>2022-05-06T11:08:02.559Z</time>
      </trkpt>
      <trkpt lat="41.3704" lon="19.70162">
        <ele>103.34138</ele>
        <time>2022-05-06T11:08:04.633Z</time>
      </trkpt>
      <trkpt lat="41.37044" lon="19.70174">
        <ele>103.49603</ele>
        <time>2022-05-06T11:08:06.535Z</time>
      </trkpt>
      <trkpt lat="41.37048" lon="19.70187">
        <ele>103.670677</ele>
        <time>2022-05-06T11:08:08.546Z</time>
      </trkpt>
      <trkpt lat="41.37053" lon="19.702">
        <ele>103.85473</ele>
        <time>2022-05-06T11:08:10.548Z</time>
      </trkpt>
      <trkpt lat="41.37057" lon="19.70212">
        <ele>104.016394</ele>
        <time>2022-05-06T11:08:12.526Z</time>
      </trkpt>
      <trkpt lat="41.37059" lon="19.70225">
        <ele>104.18732</ele>
        <time>2022-05-06T11:08:15.543Z</time>
      </trkpt>
      <trkpt lat="41.37057" lon="19.70239">
        <ele>104.362436</ele>
        <time>2022-05-06T11:08:19.536Z</time>
      </trkpt>
      <trkpt lat="41.37049" lon="19.7025">
        <ele>104.541445</ele>
        <time>2022-05-06T11:08:23.550Z</time>
      </trkpt>
      <trkpt lat="41.37041" lon="19.70256">
        <ele>104.703491</ele>
        <time>2022-05-06T11:08:29.541Z</time>
      </trkpt>
      <trkpt lat="41.37034" lon="19.70264">
        <ele>104.855703</ele>
        <time>2022-05-06T11:08:35.560Z</time>
      </trkpt>
      <trkpt lat="41.37026" lon="19.70271">
        <ele>104.988147</ele>
        <time>2022-05-06T11:08:40.557Z</time>
      </trkpt>
      <trkpt lat="41.37019" lon="19.70279">
        <ele>104.951236</ele>
        <time>2022-05-06T11:08:46.534Z</time>
      </trkpt>
      <trkpt lat="41.37013" lon="19.7029">
        <ele>104.910446</ele>
        <time>2022-05-06T11:08:53.543Z</time>
      </trkpt>
      <trkpt lat="41.37009" lon="19.70301">
        <ele>104.87334</ele>
        <time>2022-05-06T11:08:58.555Z</time>
      </trkpt>
      <trkpt lat="41.37003" lon="19.7031">
        <ele>104.835713</ele>
        <time>2022-05-06T11:09:03.581Z</time>
      </trkpt>
      <trkpt lat="41.36996" lon="19.7032">
        <ele>104.793518</ele>
        <time>2022-05-06T11:09:09.541Z</time>
      </trkpt>
      <trkpt lat="41.36988" lon="19.70328">
        <ele>104.754945</ele>
        <time>2022-05-06T11:09:14.535Z</time>
      </trkpt>
      <trkpt lat="41.3698" lon="19.70335">
        <ele>104.714047</ele>
        <time>2022-05-06T11:09:18.539Z</time>
      </trkpt>
      <trkpt lat="41.3697" lon="19.70339">
        <ele>104.675293</ele>
        <time>2022-05-06T11:09:22.557Z</time>
      </trkpt>
      <trkpt lat="41.3696" lon="19.7034">
        <ele>104.634712</ele>
        <time>2022-05-06T11:09:28.567Z</time>
      </trkpt>
      <trkpt lat="41.36952" lon="19.70345">
        <ele>104.596482</ele>
        <time>2022-05-06T11:09:32.545Z</time>
      </trkpt>
      <trkpt lat="41.36941" lon="19.70349">
        <ele>104.551537</ele>
        <time>2022-05-06T11:09:36.555Z</time>
      </trkpt>
      <trkpt lat="41.36929" lon="19.7035">
        <ele>104.503536</ele>
        <time>2022-05-06T11:09:40.555Z</time>
      </trkpt>
      <trkpt lat="41.36919" lon="19.70353">
        <ele>104.463343</ele>
        <time>2022-05-06T11:09:43.601Z</time>
      </trkpt>
      <trkpt lat="41.36909" lon="19.70354">
        <ele>104.421598</ele>
        <time>2022-05-06T11:09:46.564Z</time>
      </trkpt>
      <trkpt lat="41.36899" lon="19.70355">
        <ele>104.378889</ele>
        <time>2022-05-06T11:09:50.577Z</time>
      </trkpt>
      <trkpt lat="41.36874" lon="19.70364">
        <ele>104.276639</ele>
        <time>2022-05-06T11:11:13.570Z</time>
      </trkpt>
      <trkpt lat="41.36864" lon="19.70367">
        <ele>104.16951</ele>
        <time>2022-05-06T11:11:16.550Z</time>
      </trkpt>
      <trkpt lat="41.36853" lon="19.7037">
        <ele>104.039866</ele>
        <time>2022-05-06T11:11:19.557Z</time>
      </trkpt>
      <trkpt lat="41.36842" lon="19.70373">
        <ele>103.893171</ele>
        <time>2022-05-06T11:11:23.544Z</time>
      </trkpt>
      <trkpt lat="41.36831" lon="19.70377">
        <ele>103.756488</ele>
        <time>2022-05-06T11:11:26.552Z</time>
      </trkpt>
      <trkpt lat="41.3682" lon="19.70381">
        <ele>103.61404</ele>
        <time>2022-05-06T11:11:29.582Z</time>
      </trkpt>
      <trkpt lat="41.36809" lon="19.70385">
        <ele>103.470679</ele>
        <time>2022-05-06T11:11:32.575Z</time>
      </trkpt>
      <trkpt lat="41.36798" lon="19.70389">
        <ele>103.33541</ele>
        <time>2022-05-06T11:11:35.548Z</time>
      </trkpt>
      <trkpt lat="41.36787" lon="19.70393">
        <ele>103.20015</ele>
        <time>2022-05-06T11:11:38.573Z</time>
      </trkpt>
      <trkpt lat="41.36777" lon="19.70396">
        <ele>103.068109</ele>
        <time>2022-05-06T11:11:41.539Z</time>
      </trkpt>
      <trkpt lat="41.36766" lon="19.704">
        <ele>102.935862</ele>
        <time>2022-05-06T11:11:44.609Z</time>
      </trkpt>
      <trkpt lat="41.36757" lon="19.70404">
        <ele>102.818395</ele>
        <time>2022-05-06T11:11:47.548Z</time>
      </trkpt>
      <trkpt lat="41.36748" lon="19.70407">
        <ele>102.702757</ele>
        <time>2022-05-06T11:11:50.537Z</time>
      </trkpt>
      <trkpt lat="41.36738" lon="19.7041">
        <ele>102.577108</ele>
        <time>2022-05-06T11:11:53.537Z</time>
      </trkpt>
      <trkpt lat="41.36729" lon="19.70413">
        <ele>102.464166</ele>
        <time>2022-05-06T11:11:56.553Z</time>
      </trkpt>
      <trkpt lat="41.3672" lon="19.70416">
        <ele>102.351454</ele>
        <time>2022-05-06T11:11:59.536Z</time>
      </trkpt>
      <trkpt lat="41.36711" lon="19.7042">
        <ele>102.229011</ele>
        <time>2022-05-06T11:12:02.555Z</time>
      </trkpt>
      <trkpt lat="41.36701" lon="19.70424">
        <ele>102.104879</ele>
        <time>2022-05-06T11:12:05.552Z</time>
      </trkpt>
      <trkpt lat="41.36691" lon="19.70429">
        <ele>102.017769</ele>
        <time>2022-05-06T11:12:08.549Z</time>
      </trkpt>
      <trkpt lat="41.3668" lon="19.70433">
        <ele>101.956469</ele>
        <time>2022-05-06T11:12:11.561Z</time>
      </trkpt>
      <trkpt lat="41.36669" lon="19.70436">
        <ele>101.896423</ele>
        <time>2022-05-06T11:12:14.568Z</time>
      </trkpt>
      <trkpt lat="41.36658" lon="19.7044">
        <ele>101.831845</ele>
        <time>2022-05-06T11:12:17.539Z</time>
      </trkpt>
      <trkpt lat="41.36647" lon="19.70444">
        <ele>101.767988</ele>
        <time>2022-05-06T11:12:20.627Z</time>
      </trkpt>
      <trkpt lat="41.36634" lon="19.70449">
        <ele>101.695198</ele>
        <time>2022-05-06T11:12:23.570Z</time>
      </trkpt>
      <trkpt lat="41.36625" lon="19.70452">
        <ele>101.644351</ele>
        <time>2022-05-06T11:12:25.565Z</time>
      </trkpt>
      <trkpt lat="41.36615" lon="19.70455">
        <ele>101.591288</ele>
        <time>2022-05-06T11:12:27.566Z</time>
      </trkpt>
      <trkpt lat="41.36606" lon="19.70458">
        <ele>101.539587</ele>
        <time>2022-05-06T11:12:29.547Z</time>
      </trkpt>
      <trkpt lat="41.36597" lon="19.70462">
        <ele>101.485077</ele>
        <time>2022-05-06T11:12:31.566Z</time>
      </trkpt>
      <trkpt lat="41.36587" lon="19.70467">
        <ele>101.430414</ele>
        <time>2022-05-06T11:12:33.556Z</time>
      </trkpt>
      <trkpt lat="41.36578" lon="19.70475">
        <ele>101.370137</ele>
        <time>2022-05-06T11:12:35.556Z</time>
      </trkpt>
      <trkpt lat="41.36569" lon="19.70485">
        <ele>101.303616</ele>
        <time>2022-05-06T11:12:37.548Z</time>
      </trkpt>
      <trkpt lat="41.36561" lon="19.705">
        <ele>101.23076</ele>
        <time>2022-05-06T11:12:39.544Z</time>
      </trkpt>
      <trkpt lat="41.36556" lon="19.70519">
        <ele>101.148096</ele>
        <time>2022-05-06T11:12:41.558Z</time>
      </trkpt>
      <trkpt lat="41.36553" lon="19.7054">
        <ele>100.943493</ele>
        <time>2022-05-06T11:12:43.540Z</time>
      </trkpt>
      <trkpt lat="41.36553" lon="19.70564">
        <ele>100.137689</ele>
        <time>2022-05-06T11:12:45.646Z</time>
      </trkpt>
      <trkpt lat="41.36555" lon="19.70588">
        <ele>99.308467</ele>
        <time>2022-05-06T11:12:47.612Z</time>
      </trkpt>
      <trkpt lat="41.36556" lon="19.70611">
        <ele>98.498355</ele>
        <time>2022-05-06T11:12:49.551Z</time>
      </trkpt>
      <trkpt lat="41.36556" lon="19.70633">
        <ele>97.751028</ele>
        <time>2022-05-06T11:12:51.542Z</time>
      </trkpt>
      <trkpt lat="41.36556" lon="19.70654">
        <ele>97.021441</ele>
        <time>2022-05-06T11:12:53.574Z</time>
      </trkpt>
      <trkpt lat="41.36555" lon="19.70675">
        <ele>96.284759</ele>
        <time>2022-05-06T11:12:55.614Z</time>
      </trkpt>
      <trkpt lat="41.3655" lon="19.70694">
        <ele>95.60718</ele>
        <time>2022-05-06T11:12:57.609Z</time>
      </trkpt>
      <trkpt lat="41.36545" lon="19.7071">
        <ele>94.976019</ele>
        <time>2022-05-06T11:12:59.546Z</time>
      </trkpt>
      <trkpt lat="41.36539" lon="19.70726">
        <ele>94.361672</ele>
        <time>2022-05-06T11:13:01.577Z</time>
      </trkpt>
      <trkpt lat="41.36533" lon="19.7074">
        <ele>93.820079</ele>
        <time>2022-05-06T11:13:03.530Z</time>
      </trkpt>
      <trkpt lat="41.36528" lon="19.7075">
        <ele>93.387647</ele>
        <time>2022-05-06T11:13:05.552Z</time>
      </trkpt>
      <trkpt lat="41.36519" lon="19.70761">
        <ele>92.828529</ele>
        <time>2022-05-06T11:13:08.547Z</time>
      </trkpt>
      <trkpt lat="41.36511" lon="19.70775">
        <ele>92.426875</ele>
        <time>2022-05-06T11:13:11.538Z</time>
      </trkpt>
      <trkpt lat="41.36507" lon="19.70788">
        <ele>92.116508</ele>
        <time>2022-05-06T11:13:13.598Z</time>
      </trkpt>
      <trkpt lat="41.36503" lon="19.70802">
        <ele>91.787196</ele>
        <time>2022-05-06T11:13:15.539Z</time>
      </trkpt>
      <trkpt lat="41.36498" lon="19.70816">
        <ele>91.457074</ele>
        <time>2022-05-06T11:13:17.538Z</time>
      </trkpt>
      <trkpt lat="41.36493" lon="19.70828">
        <ele>91.139536</ele>
        <time>2022-05-06T11:13:19.556Z</time>
      </trkpt>
      <trkpt lat="41.36488" lon="19.70842">
        <ele>90.797566</ele>
        <time>2022-05-06T11:13:21.556Z</time>
      </trkpt>
      <trkpt lat="41.36483" lon="19.70856">
        <ele>90.447097</ele>
        <time>2022-05-06T11:13:23.541Z</time>
      </trkpt>
      <trkpt lat="41.36477" lon="19.70871">
        <ele>90.096627</ele>
        <time>2022-05-06T11:13:25.542Z</time>
      </trkpt>
      <trkpt lat="41.36472" lon="19.70885">
        <ele>89.740209</ele>
        <time>2022-05-06T11:13:27.547Z</time>
      </trkpt>
      <trkpt lat="41.36466" lon="19.70899">
        <ele>89.385718</ele>
        <time>2022-05-06T11:13:29.556Z</time>
      </trkpt>
      <trkpt lat="41.36461" lon="19.70914">
        <ele>89.025824</ele>
        <time>2022-05-06T11:13:31.551Z</time>
      </trkpt>
      <trkpt lat="41.36456" lon="19.70928">
        <ele>88.679928</ele>
        <time>2022-05-06T11:13:33.551Z</time>
      </trkpt>
      <trkpt lat="41.36452" lon="19.70941">
        <ele>88.362761</ele>
        <time>2022-05-06T11:13:35.536Z</time>
      </trkpt>
      <trkpt lat="41.36447" lon="19.70956">
        <ele>87.997179</ele>
        <time>2022-05-06T11:13:38.531Z</time>
      </trkpt>
      <trkpt lat="41.36441" lon="19.70971">
        <ele>87.637967</ele>
        <time>2022-05-06T11:13:42.522Z</time>
      </trkpt>
      <trkpt lat="41.36436" lon="19.70985">
        <ele>87.558604</ele>
        <time>2022-05-06T11:13:45.539Z</time>
      </trkpt>
      <trkpt lat="41.3643" lon="19.71">
        <ele>87.689104</ele>
        <time>2022-05-06T11:13:48.546Z</time>
      </trkpt>
      <trkpt lat="41.36424" lon="19.71015">
        <ele>87.818596</ele>
        <time>2022-05-06T11:13:51.575Z</time>
      </trkpt>
      <trkpt lat="41.36418" lon="19.71031">
        <ele>87.950678</ele>
        <time>2022-05-06T11:13:54.553Z</time>
      </trkpt>
      <trkpt lat="41.36413" lon="19.71048">
        <ele>88.086287</ele>
        <time>2022-05-06T11:13:57.595Z</time>
      </trkpt>
      <trkpt lat="41.36409" lon="19.71059">
        <ele>88.178115</ele>
        <time>2022-05-06T11:13:59.543Z</time>
      </trkpt>
      <trkpt lat="41.36405" lon="19.71071">
        <ele>88.272906</ele>
        <time>2022-05-06T11:14:01.553Z</time>
      </trkpt>
      <trkpt lat="41.36401" lon="19.71082">
        <ele>88.365778</ele>
        <time>2022-05-06T11:14:03.553Z</time>
      </trkpt>
      <trkpt lat="41.36398" lon="19.71094">
        <ele>88.457262</ele>
        <time>2022-05-06T11:14:05.548Z</time>
      </trkpt>
      <trkpt lat="41.36395" lon="19.71106">
        <ele>88.55083</ele>
        <time>2022-05-06T11:14:07.559Z</time>
      </trkpt>
      <trkpt lat="41.36391" lon="19.71117">
        <ele>88.645823</ele>
        <time>2022-05-06T11:14:09.545Z</time>
      </trkpt>
      <trkpt lat="41.36386" lon="19.71134">
        <ele>88.779591</ele>
        <time>2022-05-06T11:14:12.552Z</time>
      </trkpt>
      <trkpt lat="41.36383" lon="19.71145">
        <ele>88.869691</ele>
        <time>2022-05-06T11:14:14.557Z</time>
      </trkpt>
      <trkpt lat="41.36379" lon="19.71157">
        <ele>88.960117</ele>
        <time>2022-05-06T11:14:16.544Z</time>
      </trkpt>
      <trkpt lat="41.36376" lon="19.71168">
        <ele>89.050209</ele>
        <time>2022-05-06T11:14:18.539Z</time>
      </trkpt>
      <trkpt lat="41.36373" lon="19.7118">
        <ele>89.14448</ele>
        <time>2022-05-06T11:14:20.550Z</time>
      </trkpt>
      <trkpt lat="41.3637" lon="19.71192">
        <ele>89.23637</ele>
        <time>2022-05-06T11:14:22.544Z</time>
      </trkpt>
      <trkpt lat="41.36366" lon="19.71208">
        <ele>89.443819</ele>
        <time>2022-05-06T11:14:25.566Z</time>
      </trkpt>
      <trkpt lat="41.36363" lon="19.71223">
        <ele>89.661299</ele>
        <time>2022-05-06T11:14:28.537Z</time>
      </trkpt>
      <trkpt lat="41.36359" lon="19.71238">
        <ele>89.892518</ele>
        <time>2022-05-06T11:14:31.543Z</time>
      </trkpt>
      <trkpt lat="41.36355" lon="19.71254">
        <ele>90.131593</ele>
        <time>2022-05-06T11:14:34.545Z</time>
      </trkpt>
      <trkpt lat="41.3635" lon="19.71271">
        <ele>90.392029</ele>
        <time>2022-05-06T11:14:37.550Z</time>
      </trkpt>
      <trkpt lat="41.36347" lon="19.71288">
        <ele>90.645028</ele>
        <time>2022-05-06T11:14:40.557Z</time>
      </trkpt>
      <trkpt lat="41.36343" lon="19.71305">
        <ele>90.893208</ele>
        <time>2022-05-06T11:14:43.558Z</time>
      </trkpt>
      <trkpt lat="41.36341" lon="19.71317">
        <ele>91.071718</ele>
        <time>2022-05-06T11:14:45.559Z</time>
      </trkpt>
      <trkpt lat="41.36338" lon="19.71329">
        <ele>91.248235</ele>
        <time>2022-05-06T11:14:47.565Z</time>
      </trkpt>
      <trkpt lat="41.36335" lon="19.7134">
        <ele>91.423392</ele>
        <time>2022-05-06T11:14:49.559Z</time>
      </trkpt>
      <trkpt lat="41.36332" lon="19.71353">
        <ele>91.60481</ele>
        <time>2022-05-06T11:14:51.533Z</time>
      </trkpt>
      <trkpt lat="41.36329" lon="19.71364">
        <ele>91.78175</ele>
        <time>2022-05-06T11:14:53.528Z</time>
      </trkpt>
      <trkpt lat="41.36326" lon="19.71376">
        <ele>91.953354</ele>
        <time>2022-05-06T11:14:55.553Z</time>
      </trkpt>
      <trkpt lat="41.36322" lon="19.71392">
        <ele>92.204455</ele>
        <time>2022-05-06T11:14:58.594Z</time>
      </trkpt>
      <trkpt lat="41.36317" lon="19.71408">
        <ele>92.446401</ele>
        <time>2022-05-06T11:15:01.552Z</time>
      </trkpt>
      <trkpt lat="41.36312" lon="19.71424">
        <ele>92.689515</ele>
        <time>2022-05-06T11:15:04.548Z</time>
      </trkpt>
      <trkpt lat="41.36308" lon="19.71441">
        <ele>93.146539</ele>
        <time>2022-05-06T11:15:07.554Z</time>
      </trkpt>
      <trkpt lat="41.36304" lon="19.71456">
        <ele>93.589305</ele>
        <time>2022-05-06T11:15:10.552Z</time>
      </trkpt>
      <trkpt lat="41.363" lon="19.71472">
        <ele>94.033168</ele>
        <time>2022-05-06T11:15:13.554Z</time>
      </trkpt>
      <trkpt lat="41.36295" lon="19.71486">
        <ele>94.428945</ele>
        <time>2022-05-06T11:15:16.561Z</time>
      </trkpt>
      <trkpt lat="41.36292" lon="19.71501">
        <ele>94.851222</ele>
        <time>2022-05-06T11:15:19.523Z</time>
      </trkpt>
      <trkpt lat="41.36287" lon="19.71519">
        <ele>95.342036</ele>
        <time>2022-05-06T11:15:22.549Z</time>
      </trkpt>
      <trkpt lat="41.36284" lon="19.71531">
        <ele>95.684089</ele>
        <time>2022-05-06T11:15:24.562Z</time>
      </trkpt>
      <trkpt lat="41.36282" lon="19.71543">
        <ele>96.013026</ele>
        <time>2022-05-06T11:15:26.556Z</time>
      </trkpt>
      <trkpt lat="41.36278" lon="19.7156">
        <ele>96.479371</ele>
        <time>2022-05-06T11:15:29.553Z</time>
      </trkpt>
      <trkpt lat="41.36275" lon="19.71572">
        <ele>96.796378</ele>
        <time>2022-05-06T11:15:31.529Z</time>
      </trkpt>
      <trkpt lat="41.36271" lon="19.71587">
        <ele>97.222661</ele>
        <time>2022-05-06T11:15:34.554Z</time>
      </trkpt>
      <trkpt lat="41.36267" lon="19.71603">
        <ele>97.66649</ele>
        <time>2022-05-06T11:15:37.544Z</time>
      </trkpt>
      <trkpt lat="41.36263" lon="19.71619">
        <ele>98.104526</ele>
        <time>2022-05-06T11:15:40.534Z</time>
      </trkpt>
      <trkpt lat="41.36259" lon="19.71635">
        <ele>98.551026</ele>
        <time>2022-05-06T11:15:43.540Z</time>
      </trkpt>
      <trkpt lat="41.36255" lon="19.71651">
        <ele>98.989922</ele>
        <time>2022-05-06T11:15:46.562Z</time>
      </trkpt>
      <trkpt lat="41.36251" lon="19.71668">
        <ele>98.513837</ele>
        <time>2022-05-06T11:15:49.547Z</time>
      </trkpt>
      <trkpt lat="41.36247" lon="19.71684">
        <ele>97.995895</ele>
        <time>2022-05-06T11:15:52.559Z</time>
      </trkpt>
      <trkpt lat="41.36244" lon="19.71701">
        <ele>97.480266</ele>
        <time>2022-05-06T11:15:55.563Z</time>
      </trkpt>
      <trkpt lat="41.3624" lon="19.71713">
        <ele>97.097523</ele>
        <time>2022-05-06T11:15:57.542Z</time>
      </trkpt>
      <trkpt lat="41.36236" lon="19.71725">
        <ele>96.706643</ele>
        <time>2022-05-06T11:15:59.540Z</time>
      </trkpt>
      <trkpt lat="41.36232" lon="19.71738">
        <ele>96.314255</ele>
        <time>2022-05-06T11:16:01.555Z</time>
      </trkpt>
      <trkpt lat="41.36228" lon="19.7175">
        <ele>95.923547</ele>
        <time>2022-05-06T11:16:03.579Z</time>
      </trkpt>
      <trkpt lat="41.36225" lon="19.71762">
        <ele>95.54798</ele>
        <time>2022-05-06T11:16:05.555Z</time>
      </trkpt>
      <trkpt lat="41.36222" lon="19.71774">
        <ele>95.177926</ele>
        <time>2022-05-06T11:16:07.571Z</time>
      </trkpt>
      <trkpt lat="41.36219" lon="19.71786">
        <ele>94.809221</ele>
        <time>2022-05-06T11:16:09.544Z</time>
      </trkpt>
      <trkpt lat="41.36214" lon="19.71803">
        <ele>94.283552</ele>
        <time>2022-05-06T11:16:12.549Z</time>
      </trkpt>
      <trkpt lat="41.3621" lon="19.71819">
        <ele>93.777996</ele>
        <time>2022-05-06T11:16:15.593Z</time>
      </trkpt>
      <trkpt lat="41.36207" lon="19.7183">
        <ele>93.424266</ele>
        <time>2022-05-06T11:16:17.552Z</time>
      </trkpt>
      <trkpt lat="41.36204" lon="19.71842">
        <ele>93.059645</ele>
        <time>2022-05-06T11:16:19.552Z</time>
      </trkpt>
      <trkpt lat="41.36201" lon="19.71854">
        <ele>92.691969</ele>
        <time>2022-05-06T11:16:21.581Z</time>
      </trkpt>
      <trkpt lat="41.36199" lon="19.71865">
        <ele>92.339476</ele>
        <time>2022-05-06T11:16:23.560Z</time>
      </trkpt>
      <trkpt lat="41.36196" lon="19.71877">
        <ele>91.973357</ele>
        <time>2022-05-06T11:16:25.558Z</time>
      </trkpt>
      <trkpt lat="41.36191" lon="19.71894">
        <ele>92.233159</ele>
        <time>2022-05-06T11:16:28.563Z</time>
      </trkpt>
      <trkpt lat="41.36188" lon="19.71906">
        <ele>92.419325</ele>
        <time>2022-05-06T11:16:30.543Z</time>
      </trkpt>
      <trkpt lat="41.36184" lon="19.71922">
        <ele>92.683173</ele>
        <time>2022-05-06T11:16:33.553Z</time>
      </trkpt>
      <trkpt lat="41.3618" lon="19.71938">
        <ele>92.947021</ele>
        <time>2022-05-06T11:16:36.570Z</time>
      </trkpt>
      <trkpt lat="41.36175" lon="19.71954">
        <ele>93.1965</ele>
        <time>2022-05-06T11:16:39.585Z</time>
      </trkpt>
      <trkpt lat="41.36172" lon="19.71969">
        <ele>93.438892</ele>
        <time>2022-05-06T11:16:42.559Z</time>
      </trkpt>
      <trkpt lat="41.36168" lon="19.71984">
        <ele>93.687172</ele>
        <time>2022-05-06T11:16:45.562Z</time>
      </trkpt>
      <trkpt lat="41.36165" lon="19.72">
        <ele>93.929032</ele>
        <time>2022-05-06T11:16:48.565Z</time>
      </trkpt>
      <trkpt lat="41.3616" lon="19.72015">
        <ele>94.181384</ele>
        <time>2022-05-06T11:16:51.554Z</time>
      </trkpt>
      <trkpt lat="41.36156" lon="19.7203">
        <ele>94.418775</ele>
        <time>2022-05-06T11:16:54.583Z</time>
      </trkpt>
      <trkpt lat="41.36151" lon="19.72045">
        <ele>94.678313</ele>
        <time>2022-05-06T11:16:57.553Z</time>
      </trkpt>
      <trkpt lat="41.36147" lon="19.7206">
        <ele>94.915669</ele>
        <time>2022-05-06T11:17:00.549Z</time>
      </trkpt>
      <trkpt lat="41.36143" lon="19.72077">
        <ele>95.179922</ele>
        <time>2022-05-06T11:17:03.570Z</time>
      </trkpt>
      <trkpt lat="41.3614" lon="19.72094">
        <ele>95.453507</ele>
        <time>2022-05-06T11:17:06.556Z</time>
      </trkpt>
      <trkpt lat="41.36136" lon="19.7211">
        <ele>95.731607</ele>
        <time>2022-05-06T11:17:09.556Z</time>
      </trkpt>
      <trkpt lat="41.36133" lon="19.72126">
        <ele>96.037553</ele>
        <time>2022-05-06T11:17:12.555Z</time>
      </trkpt>
      <trkpt lat="41.36129" lon="19.72141">
        <ele>96.332134</ele>
        <time>2022-05-06T11:17:15.556Z</time>
      </trkpt>
      <trkpt lat="41.36124" lon="19.72157">
        <ele>96.648498</ele>
        <time>2022-05-06T11:17:18.550Z</time>
      </trkpt>
      <trkpt lat="41.36119" lon="19.72173">
        <ele>96.975088</ele>
        <time>2022-05-06T11:17:21.544Z</time>
      </trkpt>
      <trkpt lat="41.36116" lon="19.72184">
        <ele>97.196469</ele>
        <time>2022-05-06T11:17:23.554Z</time>
      </trkpt>
      <trkpt lat="41.36113" lon="19.72201">
        <ele>97.517217</ele>
        <time>2022-05-06T11:17:26.547Z</time>
      </trkpt>
      <trkpt lat="41.36109" lon="19.72217">
        <ele>97.82278</ele>
        <time>2022-05-06T11:17:29.579Z</time>
      </trkpt>
      <trkpt lat="41.36105" lon="19.72231">
        <ele>98.092342</ele>
        <time>2022-05-06T11:17:32.575Z</time>
      </trkpt>
      <trkpt lat="41.36102" lon="19.72244">
        <ele>98.356095</ele>
        <time>2022-05-06T11:17:35.570Z</time>
      </trkpt>
      <trkpt lat="41.361" lon="19.72256">
        <ele>98.582993</ele>
        <time>2022-05-06T11:17:38.583Z</time>
      </trkpt>
      <trkpt lat="41.36097" lon="19.72269">
        <ele>98.835055</ele>
        <time>2022-05-06T11:17:42.539Z</time>
      </trkpt>
      <trkpt lat="41.36093" lon="19.72283">
        <ele>99.114874</ele>
        <time>2022-05-06T11:17:47.549Z</time>
      </trkpt>
      <trkpt lat="41.3609" lon="19.72294">
        <ele>99.335972</ele>
        <time>2022-05-06T11:17:52.560Z</time>
      </trkpt>
      <trkpt lat="41.36086" lon="19.72305">
        <ele>99.562166</ele>
        <time>2022-05-06T11:17:57.547Z</time>
      </trkpt>
      <trkpt lat="41.36082" lon="19.72319">
        <ele>99.832451</ele>
        <time>2022-05-06T11:18:03.531Z</time>
      </trkpt>
      <trkpt lat="41.36078" lon="19.72332">
        <ele>100.075239</ele>
        <time>2022-05-06T11:18:08.545Z</time>
      </trkpt>
      <trkpt lat="41.36076" lon="19.72345">
        <ele>100.314904</ele>
        <time>2022-05-06T11:18:14.541Z</time>
      </trkpt>
      <trkpt lat="41.36073" lon="19.72359">
        <ele>100.547058</ele>
        <time>2022-05-06T11:18:20.539Z</time>
      </trkpt>
      <trkpt lat="41.36069" lon="19.72371">
        <ele>100.775417</ele>
        <time>2022-05-06T11:18:25.545Z</time>
      </trkpt>
      <trkpt lat="41.36067" lon="19.72385">
        <ele>101.004825</ele>
        <time>2022-05-06T11:18:30.557Z</time>
      </trkpt>
      <trkpt lat="41.36065" lon="19.72397">
        <ele>101.223702</ele>
        <time>2022-05-06T11:18:35.567Z</time>
      </trkpt>
      <trkpt lat="41.36061" lon="19.72408">
        <ele>101.432104</ele>
        <time>2022-05-06T11:18:39.559Z</time>
      </trkpt>
      <trkpt lat="41.36057" lon="19.7242">
        <ele>101.642987</ele>
        <time>2022-05-06T11:18:43.539Z</time>
      </trkpt>
      <trkpt lat="41.36054" lon="19.72431">
        <ele>101.855539</ele>
        <time>2022-05-06T11:18:47.550Z</time>
      </trkpt>
      <trkpt lat="41.36051" lon="19.72443">
        <ele>102.058714</ele>
        <time>2022-05-06T11:18:51.535Z</time>
      </trkpt>
      <trkpt lat="41.36047" lon="19.72454">
        <ele>102.264952</ele>
        <time>2022-05-06T11:18:54.550Z</time>
      </trkpt>
      <trkpt lat="41.36044" lon="19.72469">
        <ele>102.518147</ele>
        <time>2022-05-06T11:18:57.530Z</time>
      </trkpt>
      <trkpt lat="41.3604" lon="19.72483">
        <ele>102.786017</ele>
        <time>2022-05-06T11:19:00.556Z</time>
      </trkpt>
      <trkpt lat="41.36036" lon="19.725">
        <ele>103.074433</ele>
        <time>2022-05-06T11:19:03.542Z</time>
      </trkpt>
      <trkpt lat="41.36033" lon="19.72512">
        <ele>103.288832</ele>
        <time>2022-05-06T11:19:05.541Z</time>
      </trkpt>
      <trkpt lat="41.3603" lon="19.72525">
        <ele>103.521933</ele>
        <time>2022-05-06T11:19:07.558Z</time>
      </trkpt>
      <trkpt lat="41.36026" lon="19.72538">
        <ele>103.766099</ele>
        <time>2022-05-06T11:19:09.546Z</time>
      </trkpt>
      <trkpt lat="41.36022" lon="19.72552">
        <ele>104.010266</ele>
        <time>2022-05-06T11:19:11.549Z</time>
      </trkpt>
      <trkpt lat="41.36018" lon="19.72566">
        <ele>103.95536</ele>
        <time>2022-05-06T11:19:13.553Z</time>
      </trkpt>
      <trkpt lat="41.36013" lon="19.7258">
        <ele>103.733913</ele>
        <time>2022-05-06T11:19:15.562Z</time>
      </trkpt>
      <trkpt lat="41.36008" lon="19.72594">
        <ele>103.507081</ele>
        <time>2022-05-06T11:19:17.585Z</time>
      </trkpt>
      <trkpt lat="41.36002" lon="19.72608">
        <ele>103.280015</ele>
        <time>2022-05-06T11:19:19.545Z</time>
      </trkpt>
      <trkpt lat="41.35996" lon="19.72622">
        <ele>103.053754</ele>
        <time>2022-05-06T11:19:21.532Z</time>
      </trkpt>
      <trkpt lat="41.35989" lon="19.72635">
        <ele>102.826707</ele>
        <time>2022-05-06T11:19:23.534Z</time>
      </trkpt>
      <trkpt lat="41.35982" lon="19.72648">
        <ele>102.600226</ele>
        <time>2022-05-06T11:19:25.550Z</time>
      </trkpt>
      <trkpt lat="41.35976" lon="19.7266">
        <ele>102.387536</ele>
        <time>2022-05-06T11:19:27.561Z</time>
      </trkpt>
      <trkpt lat="41.3597" lon="19.72672">
        <ele>102.187816</ele>
        <time>2022-05-06T11:19:29.562Z</time>
      </trkpt>
      <trkpt lat="41.35966" lon="19.72684">
        <ele>102.004272</ele>
        <time>2022-05-06T11:19:31.550Z</time>
      </trkpt>
      <trkpt lat="41.35962" lon="19.72695">
        <ele>101.830448</ele>
        <time>2022-05-06T11:19:33.553Z</time>
      </trkpt>
      <trkpt lat="41.35958" lon="19.72711">
        <ele>101.586112</ele>
        <time>2022-05-06T11:19:36.554Z</time>
      </trkpt>
      <trkpt lat="41.35954" lon="19.72727">
        <ele>101.34911</ele>
        <time>2022-05-06T11:19:39.544Z</time>
      </trkpt>
      <trkpt lat="41.3595" lon="19.72738">
        <ele>101.175999</ele>
        <time>2022-05-06T11:19:41.537Z</time>
      </trkpt>
      <trkpt lat="41.35947" lon="19.72749">
        <ele>101.006257</ele>
        <time>2022-05-06T11:19:43.636Z</time>
      </trkpt>
      <trkpt lat="41.35943" lon="19.72766">
        <ele>100.760631</ele>
        <time>2022-05-06T11:19:46.542Z</time>
      </trkpt>
      <trkpt lat="41.35938" lon="19.72782">
        <ele>100.872855</ele>
        <time>2022-05-06T11:19:49.556Z</time>
      </trkpt>
      <trkpt lat="41.35935" lon="19.72794">
        <ele>101.049161</ele>
        <time>2022-05-06T11:19:51.528Z</time>
      </trkpt>
      <trkpt lat="41.35932" lon="19.72805">
        <ele>101.230503</ele>
        <time>2022-05-06T11:19:53.529Z</time>
      </trkpt>
      <trkpt lat="41.35926" lon="19.72821">
        <ele>101.487752</ele>
        <time>2022-05-06T11:19:56.572Z</time>
      </trkpt>
      <trkpt lat="41.35921" lon="19.72837">
        <ele>101.744458</ele>
        <time>2022-05-06T11:19:59.544Z</time>
      </trkpt>
      <trkpt lat="41.35915" lon="19.72853">
        <ele>102.008675</ele>
        <time>2022-05-06T11:20:02.553Z</time>
      </trkpt>
      <trkpt lat="41.35912" lon="19.72864">
        <ele>102.187325</ele>
        <time>2022-05-06T11:20:04.554Z</time>
      </trkpt>
      <trkpt lat="41.35907" lon="19.7288">
        <ele>102.437975</ele>
        <time>2022-05-06T11:20:07.541Z</time>
      </trkpt>
      <trkpt lat="41.35902" lon="19.72895">
        <ele>102.676709</ele>
        <time>2022-05-06T11:20:10.545Z</time>
      </trkpt>
      <trkpt lat="41.35896" lon="19.72909">
        <ele>102.915812</ele>
        <time>2022-05-06T11:20:13.547Z</time>
      </trkpt>
      <trkpt lat="41.35889" lon="19.72923">
        <ele>103.163995</ele>
        <time>2022-05-06T11:20:16.561Z</time>
      </trkpt>
      <trkpt lat="41.35884" lon="19.7294">
        <ele>103.430358</ele>
        <time>2022-05-06T11:20:19.543Z</time>
      </trkpt>
      <trkpt lat="41.3588" lon="19.72953">
        <ele>103.637655</ele>
        <time>2022-05-06T11:20:21.551Z</time>
      </trkpt>
      <trkpt lat="41.35876" lon="19.72965">
        <ele>103.82788</ele>
        <time>2022-05-06T11:20:23.595Z</time>
      </trkpt>
      <trkpt lat="41.35872" lon="19.72977">
        <ele>104.026135</ele>
        <time>2022-05-06T11:20:25.554Z</time>
      </trkpt>
      <trkpt lat="41.35868" lon="19.72989">
        <ele>104.21025</ele>
        <time>2022-05-06T11:20:27.548Z</time>
      </trkpt>
      <trkpt lat="41.35865" lon="19.73">
        <ele>104.136436</ele>
        <time>2022-05-06T11:20:29.594Z</time>
      </trkpt>
      <trkpt lat="41.35861" lon="19.73012">
        <ele>104.062093</ele>
        <time>2022-05-06T11:20:31.563Z</time>
      </trkpt>
      <trkpt lat="41.35856" lon="19.73028">
        <ele>103.955207</ele>
        <time>2022-05-06T11:20:34.571Z</time>
      </trkpt>
      <trkpt lat="41.35851" lon="19.73043">
        <ele>103.852234</ele>
        <time>2022-05-06T11:20:37.548Z</time>
      </trkpt>
      <trkpt lat="41.35846" lon="19.73059">
        <ele>103.749819</ele>
        <time>2022-05-06T11:20:40.530Z</time>
      </trkpt>
      <trkpt lat="41.35841" lon="19.73075">
        <ele>103.641082</ele>
        <time>2022-05-06T11:20:43.549Z</time>
      </trkpt>
      <trkpt lat="41.35835" lon="19.73091">
        <ele>103.533887</ele>
        <time>2022-05-06T11:20:46.541Z</time>
      </trkpt>
      <trkpt lat="41.3583" lon="19.73102">
        <ele>103.460791</ele>
        <time>2022-05-06T11:20:48.543Z</time>
      </trkpt>
      <trkpt lat="41.35827" lon="19.73113">
        <ele>103.386006</ele>
        <time>2022-05-06T11:20:50.541Z</time>
      </trkpt>
      <trkpt lat="41.35823" lon="19.73124">
        <ele>103.311221</ele>
        <time>2022-05-06T11:20:52.527Z</time>
      </trkpt>
      <trkpt lat="41.35818" lon="19.73136">
        <ele>103.231015</ele>
        <time>2022-05-06T11:20:54.570Z</time>
      </trkpt>
      <trkpt lat="41.35814" lon="19.73148">
        <ele>103.14866</ele>
        <time>2022-05-06T11:20:56.533Z</time>
      </trkpt>
      <trkpt lat="41.3581" lon="19.7316">
        <ele>103.068214</ele>
        <time>2022-05-06T11:20:58.544Z</time>
      </trkpt>
      <trkpt lat="41.35806" lon="19.73171">
        <ele>102.991205</ele>
        <time>2022-05-06T11:21:00.579Z</time>
      </trkpt>
      <trkpt lat="41.35802" lon="19.73183">
        <ele>102.910846</ele>
        <time>2022-05-06T11:21:02.599Z</time>
      </trkpt>
      <trkpt lat="41.35797" lon="19.73195">
        <ele>102.828682</ele>
        <time>2022-05-06T11:21:04.542Z</time>
      </trkpt>
      <trkpt lat="41.35792" lon="19.73208">
        <ele>102.778662</ele>
        <time>2022-05-06T11:21:06.575Z</time>
      </trkpt>
      <trkpt lat="41.35787" lon="19.7322">
        <ele>102.969902</ele>
        <time>2022-05-06T11:21:08.531Z</time>
      </trkpt>
      <trkpt lat="41.35782" lon="19.73234">
        <ele>103.159401</ele>
        <time>2022-05-06T11:21:10.552Z</time>
      </trkpt>
      <trkpt lat="41.35778" lon="19.73247">
        <ele>103.345622</ele>
        <time>2022-05-06T11:21:12.539Z</time>
      </trkpt>
      <trkpt lat="41.35773" lon="19.7326">
        <ele>103.532582</ele>
        <time>2022-05-06T11:21:14.559Z</time>
      </trkpt>
      <trkpt lat="41.35769" lon="19.73272">
        <ele>103.717188</ele>
        <time>2022-05-06T11:21:16.541Z</time>
      </trkpt>
      <trkpt lat="41.35765" lon="19.73285">
        <ele>103.896169</ele>
        <time>2022-05-06T11:21:18.539Z</time>
      </trkpt>
      <trkpt lat="41.3576" lon="19.73297">
        <ele>104.076579</ele>
        <time>2022-05-06T11:21:20.546Z</time>
      </trkpt>
      <trkpt lat="41.35755" lon="19.7331">
        <ele>104.269402</ele>
        <time>2022-05-06T11:21:22.535Z</time>
      </trkpt>
      <trkpt lat="41.35751" lon="19.73323">
        <ele>104.458425</ele>
        <time>2022-05-06T11:21:24.580Z</time>
      </trkpt>
      <trkpt lat="41.35746" lon="19.73337">
        <ele>104.65534</ele>
        <time>2022-05-06T11:21:26.556Z</time>
      </trkpt>
      <trkpt lat="41.35742" lon="19.73351">
        <ele>104.850593</ele>
        <time>2022-05-06T11:21:28.553Z</time>
      </trkpt>
      <trkpt lat="41.35737" lon="19.73363">
        <ele>105.036503</ele>
        <time>2022-05-06T11:21:30.562Z</time>
      </trkpt>
      <trkpt lat="41.35733" lon="19.73376">
        <ele>105.214114</ele>
        <time>2022-05-06T11:21:32.544Z</time>
      </trkpt>
      <trkpt lat="41.35729" lon="19.73388">
        <ele>105.394072</ele>
        <time>2022-05-06T11:21:34.563Z</time>
      </trkpt>
      <trkpt lat="41.35725" lon="19.73401">
        <ele>105.570472</ele>
        <time>2022-05-06T11:21:36.543Z</time>
      </trkpt>
      <trkpt lat="41.35721" lon="19.73413">
        <ele>105.748761</ele>
        <time>2022-05-06T11:21:38.541Z</time>
      </trkpt>
      <trkpt lat="41.35717" lon="19.73427">
        <ele>105.939077</ele>
        <time>2022-05-06T11:21:40.546Z</time>
      </trkpt>
      <trkpt lat="41.35713" lon="19.73439">
        <ele>106.134743</ele>
        <time>2022-05-06T11:21:42.553Z</time>
      </trkpt>
      <trkpt lat="41.35708" lon="19.73452">
        <ele>106.322293</ele>
        <time>2022-05-06T11:21:44.553Z</time>
      </trkpt>
      <trkpt lat="41.35704" lon="19.73467">
        <ele>106.549198</ele>
        <time>2022-05-06T11:21:46.573Z</time>
      </trkpt>
      <trkpt lat="41.35699" lon="19.73481">
        <ele>106.760288</ele>
        <time>2022-05-06T11:21:48.571Z</time>
      </trkpt>
      <trkpt lat="41.35696" lon="19.73494">
        <ele>106.953104</ele>
        <time>2022-05-06T11:21:50.553Z</time>
      </trkpt>
      <trkpt lat="41.35693" lon="19.73507">
        <ele>107.139156</ele>
        <time>2022-05-06T11:21:52.542Z</time>
      </trkpt>
      <trkpt lat="41.3569" lon="19.73519">
        <ele>107.321551</ele>
        <time>2022-05-06T11:21:54.553Z</time>
      </trkpt>
      <trkpt lat="41.35685" lon="19.73531">
        <ele>107.503754</ele>
        <time>2022-05-06T11:21:56.532Z</time>
      </trkpt>
      <trkpt lat="41.35681" lon="19.73543">
        <ele>107.690847</ele>
        <time>2022-05-06T11:21:58.536Z</time>
      </trkpt>
      <trkpt lat="41.35676" lon="19.73559">
        <ele>107.93931</ele>
        <time>2022-05-06T11:22:01.562Z</time>
      </trkpt>
      <trkpt lat="41.35671" lon="19.7357">
        <ele>108.106089</ele>
        <time>2022-05-06T11:22:03.557Z</time>
      </trkpt>
      <trkpt lat="41.35667" lon="19.73581">
        <ele>108.28131</ele>
        <time>2022-05-06T11:22:05.545Z</time>
      </trkpt>
      <trkpt lat="41.35662" lon="19.73593">
        <ele>108.467973</ele>
        <time>2022-05-06T11:22:07.553Z</time>
      </trkpt>
      <trkpt lat="41.35658" lon="19.73605">
        <ele>108.655249</ele>
        <time>2022-05-06T11:22:09.559Z</time>
      </trkpt>
      <trkpt lat="41.35654" lon="19.73617">
        <ele>108.840756</ele>
        <time>2022-05-06T11:22:11.555Z</time>
      </trkpt>
      <trkpt lat="41.35649" lon="19.73629">
        <ele>109.020785</ele>
        <time>2022-05-06T11:22:13.542Z</time>
      </trkpt>
      <trkpt lat="41.35646" lon="19.73641">
        <ele>109.20275</ele>
        <time>2022-05-06T11:22:15.556Z</time>
      </trkpt>
      <trkpt lat="41.35642" lon="19.73653">
        <ele>109.003524</ele>
        <time>2022-05-06T11:22:17.555Z</time>
      </trkpt>
      <trkpt lat="41.35637" lon="19.73665">
        <ele>108.712415</ele>
        <time>2022-05-06T11:22:19.583Z</time>
      </trkpt>
      <trkpt lat="41.35632" lon="19.73677">
        <ele>108.430047</ele>
        <time>2022-05-06T11:22:21.547Z</time>
      </trkpt>
      <trkpt lat="41.35628" lon="19.73689">
        <ele>108.158163</ele>
        <time>2022-05-06T11:22:23.547Z</time>
      </trkpt>
      <trkpt lat="41.35624" lon="19.737">
        <ele>107.896993</ele>
        <time>2022-05-06T11:22:25.541Z</time>
      </trkpt>
      <trkpt lat="41.35621" lon="19.73711">
        <ele>107.643078</ele>
        <time>2022-05-06T11:22:27.552Z</time>
      </trkpt>
      <trkpt lat="41.35616" lon="19.73722">
        <ele>107.380172</ele>
        <time>2022-05-06T11:22:29.529Z</time>
      </trkpt>
      <trkpt lat="41.35613" lon="19.73733">
        <ele>107.122812</ele>
        <time>2022-05-06T11:22:31.549Z</time>
      </trkpt>
      <trkpt lat="41.35608" lon="19.73746">
        <ele>106.831703</ele>
        <time>2022-05-06T11:22:33.554Z</time>
      </trkpt>
      <trkpt lat="41.35602" lon="19.73761">
        <ele>106.459875</ele>
        <time>2022-05-06T11:22:36.536Z</time>
      </trkpt>
      <trkpt lat="41.35596" lon="19.73777">
        <ele>106.090505</ele>
        <time>2022-05-06T11:22:39.560Z</time>
      </trkpt>
      <trkpt lat="41.35592" lon="19.73788">
        <ele>105.831622</ele>
        <time>2022-05-06T11:22:41.570Z</time>
      </trkpt>
      <trkpt lat="41.35588" lon="19.73799">
        <ele>105.572466</ele>
        <time>2022-05-06T11:22:43.542Z</time>
      </trkpt>
      <trkpt lat="41.35583" lon="19.7381">
        <ele>105.319943</ele>
        <time>2022-05-06T11:22:45.564Z</time>
      </trkpt>
      <trkpt lat="41.35578" lon="19.73821">
        <ele>105.048442</ele>
        <time>2022-05-06T11:22:47.572Z</time>
      </trkpt>
      <trkpt lat="41.35572" lon="19.73836">
        <ele>104.679746</ele>
        <time>2022-05-06T11:22:50.563Z</time>
      </trkpt>
      <trkpt lat="41.35567" lon="19.73852">
        <ele>104.323989</ele>
        <time>2022-05-06T11:22:53.555Z</time>
      </trkpt>
      <trkpt lat="41.35563" lon="19.73868">
        <ele>104.068615</ele>
        <time>2022-05-06T11:22:56.569Z</time>
      </trkpt>
      <trkpt lat="41.35557" lon="19.73884">
        <ele>103.862936</ele>
        <time>2022-05-06T11:22:59.566Z</time>
      </trkpt>
      <trkpt lat="41.35554" lon="19.73895">
        <ele>103.71794</ele>
        <time>2022-05-06T11:23:01.552Z</time>
      </trkpt>
      <trkpt lat="41.3555" lon="19.73906">
        <ele>103.573356</ele>
        <time>2022-05-06T11:23:03.582Z</time>
      </trkpt>
      <trkpt lat="41.35546" lon="19.73917">
        <ele>103.426619</ele>
        <time>2022-05-06T11:23:05.541Z</time>
      </trkpt>
      <trkpt lat="41.35542" lon="19.73929">
        <ele>103.276929</ele>
        <time>2022-05-06T11:23:07.545Z</time>
      </trkpt>
      <trkpt lat="41.35539" lon="19.7394">
        <ele>103.125546</ele>
        <time>2022-05-06T11:23:09.552Z</time>
      </trkpt>
      <trkpt lat="41.35535" lon="19.73953">
        <ele>102.969659</ele>
        <time>2022-05-06T11:23:11.563Z</time>
      </trkpt>
      <trkpt lat="41.35531" lon="19.73964">
        <ele>102.817173</ele>
        <time>2022-05-06T11:23:13.555Z</time>
      </trkpt>
      <trkpt lat="41.35526" lon="19.73981">
        <ele>102.606941</ele>
        <time>2022-05-06T11:23:16.548Z</time>
      </trkpt>
      <trkpt lat="41.35522" lon="19.73992">
        <ele>102.458485</ele>
        <time>2022-05-06T11:23:18.552Z</time>
      </trkpt>
      <trkpt lat="41.35517" lon="19.74003">
        <ele>102.306488</ele>
        <time>2022-05-06T11:23:20.551Z</time>
      </trkpt>
      <trkpt lat="41.35513" lon="19.74014">
        <ele>102.15839</ele>
        <time>2022-05-06T11:23:22.538Z</time>
      </trkpt>
      <trkpt lat="41.35509" lon="19.74025">
        <ele>102.013093</ele>
        <time>2022-05-06T11:23:24.555Z</time>
      </trkpt>
      <trkpt lat="41.35505" lon="19.74037">
        <ele>101.854367</ele>
        <time>2022-05-06T11:23:26.547Z</time>
      </trkpt>
      <trkpt lat="41.35501" lon="19.74049">
        <ele>101.701925</ele>
        <time>2022-05-06T11:23:28.566Z</time>
      </trkpt>
      <trkpt lat="41.35496" lon="19.74062">
        <ele>101.536828</ele>
        <time>2022-05-06T11:23:30.596Z</time>
      </trkpt>
      <trkpt lat="41.35492" lon="19.74074">
        <ele>101.375962</ele>
        <time>2022-05-06T11:23:32.543Z</time>
      </trkpt>
      <trkpt lat="41.35488" lon="19.74086">
        <ele>101.436298</ele>
        <time>2022-05-06T11:23:34.548Z</time>
      </trkpt>
      <trkpt lat="41.35484" lon="19.74098">
        <ele>101.537963</ele>
        <time>2022-05-06T11:23:36.574Z</time>
      </trkpt>
      <trkpt lat="41.3548" lon="19.74111">
        <ele>101.642641</ele>
        <time>2022-05-06T11:23:38.550Z</time>
      </trkpt>
      <trkpt lat="41.35475" lon="19.74124">
        <ele>101.746425</ele>
        <time>2022-05-06T11:23:40.551Z</time>
      </trkpt>
      <trkpt lat="41.35471" lon="19.74136">
        <ele>101.844468</ele>
        <time>2022-05-06T11:23:42.550Z</time>
      </trkpt>
      <trkpt lat="41.35467" lon="19.74147">
        <ele>101.93735</ele>
        <time>2022-05-06T11:23:44.534Z</time>
      </trkpt>
      <trkpt lat="41.35463" lon="19.74158">
        <ele>102.030535</ele>
        <time>2022-05-06T11:23:46.546Z</time>
      </trkpt>
      <trkpt lat="41.35458" lon="19.7417">
        <ele>102.126151</ele>
        <time>2022-05-06T11:23:48.551Z</time>
      </trkpt>
      <trkpt lat="41.35454" lon="19.74181">
        <ele>102.217106</ele>
        <time>2022-05-06T11:23:50.539Z</time>
      </trkpt>
      <trkpt lat="41.3545" lon="19.74196">
        <ele>102.336353</ele>
        <time>2022-05-06T11:23:53.545Z</time>
      </trkpt>
      <trkpt lat="41.35445" lon="19.74211">
        <ele>102.459394</ele>
        <time>2022-05-06T11:23:56.560Z</time>
      </trkpt>
      <trkpt lat="41.3544" lon="19.74226">
        <ele>102.584232</ele>
        <time>2022-05-06T11:23:59.560Z</time>
      </trkpt>
      <trkpt lat="41.35436" lon="19.74238">
        <ele>102.677911</ele>
        <time>2022-05-06T11:24:01.538Z</time>
      </trkpt>
      <trkpt lat="41.35432" lon="19.7425">
        <ele>102.77216</ele>
        <time>2022-05-06T11:24:03.530Z</time>
      </trkpt>
      <trkpt lat="41.35429" lon="19.74261">
        <ele>102.861643</ele>
        <time>2022-05-06T11:24:05.543Z</time>
      </trkpt>
      <trkpt lat="41.35422" lon="19.74276">
        <ele>102.996059</ele>
        <time>2022-05-06T11:24:08.556Z</time>
      </trkpt>
      <trkpt lat="41.35415" lon="19.74285">
        <ele>103.086845</ele>
        <time>2022-05-06T11:24:10.555Z</time>
      </trkpt>
      <trkpt lat="41.35407" lon="19.74291">
        <ele>103.19023</ele>
        <time>2022-05-06T11:24:12.549Z</time>
      </trkpt>
      <trkpt lat="41.35395" lon="19.74296">
        <ele>103.34228</ele>
        <time>2022-05-06T11:24:15.578Z</time>
      </trkpt>
      <trkpt lat="41.35382" lon="19.74302">
        <ele>103.498519</ele>
        <time>2022-05-06T11:24:18.640Z</time>
      </trkpt>
      <trkpt lat="41.35373" lon="19.74306">
        <ele>103.617387</ele>
        <time>2022-05-06T11:24:20.553Z</time>
      </trkpt>
      <trkpt lat="41.35363" lon="19.74311">
        <ele>103.737377</ele>
        <time>2022-05-06T11:24:22.544Z</time>
      </trkpt>
      <trkpt lat="41.35354" lon="19.74315">
        <ele>103.854599</ele>
        <time>2022-05-06T11:24:24.573Z</time>
      </trkpt>
      <trkpt lat="41.35345" lon="19.74319">
        <ele>103.967286</ele>
        <time>2022-05-06T11:24:26.562Z</time>
      </trkpt>
      <trkpt lat="41.35336" lon="19.74323">
        <ele>104.07803</ele>
        <time>2022-05-06T11:24:28.537Z</time>
      </trkpt>
      <trkpt lat="41.35327" lon="19.74328">
        <ele>104.188478</ele>
        <time>2022-05-06T11:24:30.608Z</time>
      </trkpt>
      <trkpt lat="41.35319" lon="19.74332">
        <ele>104.298727</ele>
        <time>2022-05-06T11:24:32.580Z</time>
      </trkpt>
      <trkpt lat="41.35306" lon="19.74338">
        <ele>104.459192</ele>
        <time>2022-05-06T11:24:35.552Z</time>
      </trkpt>
      <trkpt lat="41.35294" lon="19.74345">
        <ele>104.616624</ele>
        <time>2022-05-06T11:24:38.558Z</time>
      </trkpt>
      <trkpt lat="41.35281" lon="19.74351">
        <ele>104.771639</ele>
        <time>2022-05-06T11:24:41.532Z</time>
      </trkpt>
      <trkpt lat="41.35273" lon="19.74356">
        <ele>104.87848</ele>
        <time>2022-05-06T11:24:43.544Z</time>
      </trkpt>
      <trkpt lat="41.35261" lon="19.74361">
        <ele>105.032227</ele>
        <time>2022-05-06T11:24:46.554Z</time>
      </trkpt>
      <trkpt lat="41.35249" lon="19.74361">
        <ele>105.167298</ele>
        <time>2022-05-06T11:24:49.543Z</time>
      </trkpt>
      <trkpt lat="41.35239" lon="19.74368">
        <ele>105.282737</ele>
        <time>2022-05-06T11:24:52.537Z</time>
      </trkpt>
      <trkpt lat="41.35229" lon="19.74378">
        <ele>105.354328</ele>
        <time>2022-05-06T11:24:55.622Z</time>
      </trkpt>
      <trkpt lat="41.35218" lon="19.74387">
        <ele>105.423871</ele>
        <time>2022-05-06T11:24:58.543Z</time>
      </trkpt>
      <trkpt lat="41.35207" lon="19.7439">
        <ele>105.489745</ele>
        <time>2022-05-06T11:25:01.580Z</time>
      </trkpt>
      <trkpt lat="41.35196" lon="19.74387">
        <ele>105.547362</ele>
        <time>2022-05-06T11:25:04.550Z</time>
      </trkpt>
      <trkpt lat="41.35187" lon="19.74391">
        <ele>105.602964</ele>
        <time>2022-05-06T11:25:08.583Z</time>
      </trkpt>
      <trkpt lat="41.35181" lon="19.74404">
        <ele>105.66561</ele>
        <time>2022-05-06T11:25:11.556Z</time>
      </trkpt>
      <trkpt lat="41.35174" lon="19.74415">
        <ele>105.728096</ele>
        <time>2022-05-06T11:25:14.550Z</time>
      </trkpt>
      <trkpt lat="41.35166" lon="19.74427">
        <ele>105.792714</ele>
        <time>2022-05-06T11:25:17.553Z</time>
      </trkpt>
      <trkpt lat="41.35158" lon="19.74438">
        <ele>105.858705</ele>
        <time>2022-05-06T11:25:20.537Z</time>
      </trkpt>
      <trkpt lat="41.35148" lon="19.74448">
        <ele>105.926045</ele>
        <time>2022-05-06T11:25:23.592Z</time>
      </trkpt>
      <trkpt lat="41.35139" lon="19.74459">
        <ele>105.991688</ele>
        <time>2022-05-06T11:25:26.551Z</time>
      </trkpt>
      <trkpt lat="41.35131" lon="19.74469">
        <ele>106.055669</ele>
        <time>2022-05-06T11:25:29.574Z</time>
      </trkpt>
      <trkpt lat="41.35122" lon="19.74478">
        <ele>106.117565</ele>
        <time>2022-05-06T11:25:32.554Z</time>
      </trkpt>
      <trkpt lat="41.35113" lon="19.74489">
        <ele>106.183483</ele>
        <time>2022-05-06T11:25:35.556Z</time>
      </trkpt>
      <trkpt lat="41.35105" lon="19.74502">
        <ele>106.256649</ele>
        <time>2022-05-06T11:25:38.547Z</time>
      </trkpt>
      <trkpt lat="41.35098" lon="19.74511">
        <ele>106.346463</ele>
        <time>2022-05-06T11:25:40.544Z</time>
      </trkpt>
      <trkpt lat="41.3509" lon="19.74525">
        <ele>106.484197</ele>
        <time>2022-05-06T11:25:43.543Z</time>
      </trkpt>
      <trkpt lat="41.35082" lon="19.74538">
        <ele>106.619766</ele>
        <time>2022-05-06T11:25:46.536Z</time>
      </trkpt>
      <trkpt lat="41.35073" lon="19.74551">
        <ele>106.755551</ele>
        <time>2022-05-06T11:25:49.540Z</time>
      </trkpt>
      <trkpt lat="41.35065" lon="19.74564">
        <ele>106.89211</ele>
        <time>2022-05-06T11:25:52.581Z</time>
      </trkpt>
      <trkpt lat="41.35056" lon="19.74577">
        <ele>107.030936</ele>
        <time>2022-05-06T11:25:55.546Z</time>
      </trkpt>
      <trkpt lat="41.35048" lon="19.74591">
        <ele>107.167455</ele>
        <time>2022-05-06T11:25:58.540Z</time>
      </trkpt>
      <trkpt lat="41.3504" lon="19.74605">
        <ele>107.30971</ele>
        <time>2022-05-06T11:26:01.552Z</time>
      </trkpt>
      <trkpt lat="41.35031" lon="19.74618">
        <ele>107.449234</ele>
        <time>2022-05-06T11:26:04.554Z</time>
      </trkpt>
      <trkpt lat="41.35025" lon="19.74628">
        <ele>107.54487</ele>
        <time>2022-05-06T11:26:06.568Z</time>
      </trkpt>
      <trkpt lat="41.35017" lon="19.74641">
        <ele>107.678856</ele>
        <time>2022-05-06T11:26:09.557Z</time>
      </trkpt>
      <trkpt lat="41.3501" lon="19.74654">
        <ele>107.807785</ele>
        <time>2022-05-06T11:26:12.549Z</time>
      </trkpt>
      <trkpt lat="41.35002" lon="19.74666">
        <ele>107.926818</ele>
        <time>2022-05-06T11:26:15.551Z</time>
      </trkpt>
      <trkpt lat="41.34997" lon="19.74679">
        <ele>108.047774</ele>
        <time>2022-05-06T11:26:18.566Z</time>
      </trkpt>
      <trkpt lat="41.34991" lon="19.74694">
        <ele>108.141165</ele>
        <time>2022-05-06T11:26:21.552Z</time>
      </trkpt>
      <trkpt lat="41.34987" lon="19.74706">
        <ele>108.120498</ele>
        <time>2022-05-06T11:26:23.610Z</time>
      </trkpt>
      <trkpt lat="41.34982" lon="19.74721">
        <ele>108.092113</ele>
        <time>2022-05-06T11:26:26.560Z</time>
      </trkpt>
      <trkpt lat="41.34977" lon="19.74735">
        <ele>108.06626</ele>
        <time>2022-05-06T11:26:29.573Z</time>
      </trkpt>
      <trkpt lat="41.34971" lon="19.74747">
        <ele>108.040935</ele>
        <time>2022-05-06T11:26:32.552Z</time>
      </trkpt>
      <trkpt lat="41.34961" lon="19.7476">
        <ele>108.010354</ele>
        <time>2022-05-06T11:26:35.550Z</time>
      </trkpt>
      <trkpt lat="41.34955" lon="19.74771">
        <ele>107.988675</ele>
        <time>2022-05-06T11:26:37.554Z</time>
      </trkpt>
      <trkpt lat="41.34951" lon="19.74781">
        <ele>107.968287</ele>
        <time>2022-05-06T11:26:39.534Z</time>
      </trkpt>
      <trkpt lat="41.34945" lon="19.74792">
        <ele>107.945793</ele>
        <time>2022-05-06T11:26:41.559Z</time>
      </trkpt>
      <trkpt lat="41.34939" lon="19.74802">
        <ele>107.923169</ele>
        <time>2022-05-06T11:26:43.566Z</time>
      </trkpt>
      <trkpt lat="41.34933" lon="19.74812">
        <ele>107.902291</ele>
        <time>2022-05-06T11:26:45.536Z</time>
      </trkpt>
      <trkpt lat="41.34925" lon="19.74825">
        <ele>107.874393</ele>
        <time>2022-05-06T11:26:48.547Z</time>
      </trkpt>
      <trkpt lat="41.34917" lon="19.74837">
        <ele>107.847168</ele>
        <time>2022-05-06T11:26:51.553Z</time>
      </trkpt>
      <trkpt lat="41.34909" lon="19.74848">
        <ele>107.821394</ele>
        <time>2022-05-06T11:26:54.553Z</time>
      </trkpt>
      <trkpt lat="41.34901" lon="19.7486">
        <ele>107.794703</ele>
        <time>2022-05-06T11:26:57.556Z</time>
      </trkpt>
      <trkpt lat="41.34894" lon="19.74873">
        <ele>107.766962</ele>
        <time>2022-05-06T11:27:00.551Z</time>
      </trkpt>
      <trkpt lat="41.34887" lon="19.74886">
        <ele>107.744534</ele>
        <time>2022-05-06T11:27:03.524Z</time>
      </trkpt>
      <trkpt lat="41.34879" lon="19.749">
        <ele>107.741812</ele>
        <time>2022-05-06T11:27:06.546Z</time>
      </trkpt>
      <trkpt lat="41.34872" lon="19.74913">
        <ele>107.739092</ele>
        <time>2022-05-06T11:27:09.554Z</time>
      </trkpt>
      <trkpt lat="41.34866" lon="19.74926">
        <ele>107.736524</ele>
        <time>2022-05-06T11:27:12.619Z</time>
      </trkpt>
      <trkpt lat="41.34859" lon="19.74938">
        <ele>107.734016</ele>
        <time>2022-05-06T11:27:15.551Z</time>
      </trkpt>
      <trkpt lat="41.34852" lon="19.7495">
        <ele>107.731441</ele>
        <time>2022-05-06T11:27:18.543Z</time>
      </trkpt>
      <trkpt lat="41.34845" lon="19.74962">
        <ele>107.728933</ele>
        <time>2022-05-06T11:27:21.587Z</time>
      </trkpt>
      <trkpt lat="41.34838" lon="19.74974">
        <ele>107.726368</ele>
        <time>2022-05-06T11:27:24.543Z</time>
      </trkpt>
      <trkpt lat="41.34831" lon="19.74985">
        <ele>107.723952</ele>
        <time>2022-05-06T11:27:27.545Z</time>
      </trkpt>
      <trkpt lat="41.34823" lon="19.74997">
        <ele>107.721438</ele>
        <time>2022-05-06T11:27:30.554Z</time>
      </trkpt>
      <trkpt lat="41.34816" lon="19.75009">
        <ele>107.718842</ele>
        <time>2022-05-06T11:27:33.549Z</time>
      </trkpt>
      <trkpt lat="41.34808" lon="19.7502">
        <ele>107.716315</ele>
        <time>2022-05-06T11:27:36.542Z</time>
      </trkpt>
      <trkpt lat="41.34802" lon="19.75032">
        <ele>107.713899</ele>
        <time>2022-05-06T11:27:39.562Z</time>
      </trkpt>
      <trkpt lat="41.34795" lon="19.75042">
        <ele>107.71166</ele>
        <time>2022-05-06T11:27:42.560Z</time>
      </trkpt>
      <trkpt lat="41.34789" lon="19.75053">
        <ele>107.709349</ele>
        <time>2022-05-06T11:27:45.579Z</time>
      </trkpt>
      <trkpt lat="41.34782" lon="19.75064">
        <ele>107.706973</ele>
        <time>2022-05-06T11:27:48.572Z</time>
      </trkpt>
      <trkpt lat="41.34776" lon="19.75076">
        <ele>107.769195</ele>
        <time>2022-05-06T11:27:51.548Z</time>
      </trkpt>
      <trkpt lat="41.3477" lon="19.75089">
        <ele>107.993762</ele>
        <time>2022-05-06T11:27:54.554Z</time>
      </trkpt>
      <trkpt lat="41.34763" lon="19.75101">
        <ele>108.226522</ele>
        <time>2022-05-06T11:27:57.552Z</time>
      </trkpt>
      <trkpt lat="41.34756" lon="19.75112">
        <ele>108.444735</ele>
        <time>2022-05-06T11:28:00.543Z</time>
      </trkpt>
      <trkpt lat="41.3475" lon="19.75125">
        <ele>108.672734</ele>
        <time>2022-05-06T11:28:03.546Z</time>
      </trkpt>
      <trkpt lat="41.34744" lon="19.75136">
        <ele>108.882615</ele>
        <time>2022-05-06T11:28:06.566Z</time>
      </trkpt>
      <trkpt lat="41.34738" lon="19.75147">
        <ele>109.088734</ele>
        <time>2022-05-06T11:28:09.556Z</time>
      </trkpt>
      <trkpt lat="41.34732" lon="19.75157">
        <ele>109.280415</ele>
        <time>2022-05-06T11:28:12.582Z</time>
      </trkpt>
      <trkpt lat="41.34725" lon="19.75167">
        <ele>109.489463</ele>
        <time>2022-05-06T11:28:15.553Z</time>
      </trkpt>
      <trkpt lat="41.34719" lon="19.75178">
        <ele>109.689794</ele>
        <time>2022-05-06T11:28:18.565Z</time>
      </trkpt>
      <trkpt lat="41.34714" lon="19.75189">
        <ele>109.894114</ele>
        <time>2022-05-06T11:28:21.548Z</time>
      </trkpt>
      <trkpt lat="41.34708" lon="19.75202">
        <ele>110.123585</ele>
        <time>2022-05-06T11:28:24.546Z</time>
      </trkpt>
      <trkpt lat="41.34701" lon="19.75214">
        <ele>110.352708</ele>
        <time>2022-05-06T11:28:27.570Z</time>
      </trkpt>
      <trkpt lat="41.34694" lon="19.75228">
        <ele>110.602556</ele>
        <time>2022-05-06T11:28:30.555Z</time>
      </trkpt>
      <trkpt lat="41.34687" lon="19.75239">
        <ele>110.828038</ele>
        <time>2022-05-06T11:28:33.552Z</time>
      </trkpt>
      <trkpt lat="41.3468" lon="19.75251">
        <ele>111.052296</ele>
        <time>2022-05-06T11:28:36.564Z</time>
      </trkpt>
      <trkpt lat="41.34673" lon="19.75263">
        <ele>111.282618</ele>
        <time>2022-05-06T11:28:39.582Z</time>
      </trkpt>
      <trkpt lat="41.34666" lon="19.75275">
        <ele>111.222294</ele>
        <time>2022-05-06T11:28:42.553Z</time>
      </trkpt>
      <trkpt lat="41.34659" lon="19.75287">
        <ele>111.078475</ele>
        <time>2022-05-06T11:28:45.620Z</time>
      </trkpt>
      <trkpt lat="41.3465" lon="19.75297">
        <ele>110.93104</ele>
        <time>2022-05-06T11:28:48.559Z</time>
      </trkpt>
      <trkpt lat="41.34641" lon="19.75308">
        <ele>110.77397</ele>
        <time>2022-05-06T11:28:51.572Z</time>
      </trkpt>
      <trkpt lat="41.34632" lon="19.75318">
        <ele>110.619485</ele>
        <time>2022-05-06T11:28:54.563Z</time>
      </trkpt>
      <trkpt lat="41.34624" lon="19.75329">
        <ele>110.470691</ele>
        <time>2022-05-06T11:28:57.551Z</time>
      </trkpt>
      <trkpt lat="41.34616" lon="19.7534">
        <ele>110.322159</ele>
        <time>2022-05-06T11:29:00.552Z</time>
      </trkpt>
      <trkpt lat="41.34608" lon="19.7535">
        <ele>110.178178</ele>
        <time>2022-05-06T11:29:03.540Z</time>
      </trkpt>
      <trkpt lat="41.346" lon="19.75362">
        <ele>110.028259</ele>
        <time>2022-05-06T11:29:06.573Z</time>
      </trkpt>
      <trkpt lat="41.34594" lon="19.75375">
        <ele>109.880729</ele>
        <time>2022-05-06T11:29:09.531Z</time>
      </trkpt>
      <trkpt lat="41.34588" lon="19.75387">
        <ele>109.740664</ele>
        <time>2022-05-06T11:29:12.549Z</time>
      </trkpt>
      <trkpt lat="41.34581" lon="19.75401">
        <ele>109.580747</ele>
        <time>2022-05-06T11:29:15.562Z</time>
      </trkpt>
      <trkpt lat="41.34574" lon="19.75415">
        <ele>109.420131</ele>
        <time>2022-05-06T11:29:18.552Z</time>
      </trkpt>
      <trkpt lat="41.34565" lon="19.75428">
        <ele>109.252004</ele>
        <time>2022-05-06T11:29:21.548Z</time>
      </trkpt>
      <trkpt lat="41.34558" lon="19.75436">
        <ele>109.132746</ele>
        <time>2022-05-06T11:29:23.546Z</time>
      </trkpt>
      <trkpt lat="41.34552" lon="19.75444">
        <ele>109.033381</ele>
        <time>2022-05-06T11:29:25.551Z</time>
      </trkpt>
      <trkpt lat="41.34545" lon="19.75453">
        <ele>109.151126</ele>
        <time>2022-05-06T11:29:27.573Z</time>
      </trkpt>
      <trkpt lat="41.34539" lon="19.75462">
        <ele>109.266783</ele>
        <time>2022-05-06T11:29:29.559Z</time>
      </trkpt>
      <trkpt lat="41.3453" lon="19.75474">
        <ele>109.427233</ele>
        <time>2022-05-06T11:29:32.569Z</time>
      </trkpt>
      <trkpt lat="41.34521" lon="19.75486">
        <ele>109.590232</ele>
        <time>2022-05-06T11:29:35.557Z</time>
      </trkpt>
      <trkpt lat="41.34512" lon="19.75499">
        <ele>109.756518</ele>
        <time>2022-05-06T11:29:38.563Z</time>
      </trkpt>
      <trkpt lat="41.34503" lon="19.7551">
        <ele>109.918998</ele>
        <time>2022-05-06T11:29:41.556Z</time>
      </trkpt>
      <trkpt lat="41.34494" lon="19.75523">
        <ele>110.081693</ele>
        <time>2022-05-06T11:29:44.604Z</time>
      </trkpt>
      <trkpt lat="41.34484" lon="19.75534">
        <ele>110.247801</ele>
        <time>2022-05-06T11:29:47.557Z</time>
      </trkpt>
      <trkpt lat="41.34477" lon="19.75543">
        <ele>110.364155</ele>
        <time>2022-05-06T11:29:49.567Z</time>
      </trkpt>
      <trkpt lat="41.34468" lon="19.75555">
        <ele>110.531351</ele>
        <time>2022-05-06T11:29:52.573Z</time>
      </trkpt>
      <trkpt lat="41.34459" lon="19.75568">
        <ele>110.692281</ele>
        <time>2022-05-06T11:29:55.602Z</time>
      </trkpt>
      <trkpt lat="41.34451" lon="19.75581">
        <ele>110.856877</ele>
        <time>2022-05-06T11:29:58.565Z</time>
      </trkpt>
      <trkpt lat="41.34444" lon="19.75589">
        <ele>110.971881</ele>
        <time>2022-05-06T11:30:00.557Z</time>
      </trkpt>
      <trkpt lat="41.34435" lon="19.75601">
        <ele>111.132128</ele>
        <time>2022-05-06T11:30:03.549Z</time>
      </trkpt>
      <trkpt lat="41.34427" lon="19.75612">
        <ele>111.27958</ele>
        <time>2022-05-06T11:30:06.591Z</time>
      </trkpt>
      <trkpt lat="41.34419" lon="19.75623">
        <ele>111.426852</ele>
        <time>2022-05-06T11:30:09.545Z</time>
      </trkpt>
      <trkpt lat="41.34411" lon="19.75633">
        <ele>111.555067</ele>
        <time>2022-05-06T11:30:12.565Z</time>
      </trkpt>
      <trkpt lat="41.34404" lon="19.75644">
        <ele>111.686105</ele>
        <time>2022-05-06T11:30:15.557Z</time>
      </trkpt>
      <trkpt lat="41.34397" lon="19.75653">
        <ele>111.805304</ele>
        <time>2022-05-06T11:30:18.551Z</time>
      </trkpt>
      <trkpt lat="41.3439" lon="19.75663">
        <ele>111.926004</ele>
        <time>2022-05-06T11:30:21.553Z</time>
      </trkpt>
      <trkpt lat="41.34382" lon="19.75673">
        <ele>112.059644</ele>
        <time>2022-05-06T11:30:24.556Z</time>
      </trkpt>
      <trkpt lat="41.34375" lon="19.75683">
        <ele>112.190368</ele>
        <time>2022-05-06T11:30:27.551Z</time>
      </trkpt>
      <trkpt lat="41.34367" lon="19.75694">
        <ele>112.328687</ele>
        <time>2022-05-06T11:30:30.549Z</time>
      </trkpt>
      <trkpt lat="41.34359" lon="19.75704">
        <ele>112.457952</ele>
        <time>2022-05-06T11:30:33.559Z</time>
      </trkpt>
      <trkpt lat="41.34352" lon="19.75714">
        <ele>112.589591</ele>
        <time>2022-05-06T11:30:36.543Z</time>
      </trkpt>
      <trkpt lat="41.34344" lon="19.75725">
        <ele>112.724132</ele>
        <time>2022-05-06T11:30:39.552Z</time>
      </trkpt>
      <trkpt lat="41.34336" lon="19.75736">
        <ele>112.86317</ele>
        <time>2022-05-06T11:30:42.552Z</time>
      </trkpt>
      <trkpt lat="41.34329" lon="19.75747">
        <ele>113.003407</ele>
        <time>2022-05-06T11:30:45.604Z</time>
      </trkpt>
      <trkpt lat="41.3432" lon="19.75758">
        <ele>113.142843</ele>
        <time>2022-05-06T11:30:48.553Z</time>
      </trkpt>
      <trkpt lat="41.34311" lon="19.75768">
        <ele>113.292869</ele>
        <time>2022-05-06T11:30:51.567Z</time>
      </trkpt>
      <trkpt lat="41.34301" lon="19.75779">
        <ele>113.448643</ele>
        <time>2022-05-06T11:30:54.556Z</time>
      </trkpt>
      <trkpt lat="41.34292" lon="19.7579">
        <ele>113.483928</ele>
        <time>2022-05-06T11:30:57.539Z</time>
      </trkpt>
      <trkpt lat="41.34283" lon="19.75803">
        <ele>113.469079</ele>
        <time>2022-05-06T11:31:00.562Z</time>
      </trkpt>
      <trkpt lat="41.34275" lon="19.75814">
        <ele>113.455722</ele>
        <time>2022-05-06T11:31:03.552Z</time>
      </trkpt>
      <trkpt lat="41.34269" lon="19.75825">
        <ele>113.443622</ele>
        <time>2022-05-06T11:31:06.531Z</time>
      </trkpt>
      <trkpt lat="41.34262" lon="19.75836">
        <ele>113.430815</ele>
        <time>2022-05-06T11:31:09.553Z</time>
      </trkpt>
      <trkpt lat="41.34253" lon="19.75847">
        <ele>113.417011</ele>
        <time>2022-05-06T11:31:12.535Z</time>
      </trkpt>
      <trkpt lat="41.34244" lon="19.75858">
        <ele>113.402942</ele>
        <time>2022-05-06T11:31:15.538Z</time>
      </trkpt>
      <trkpt lat="41.34236" lon="19.75869">
        <ele>113.389545</ele>
        <time>2022-05-06T11:31:18.543Z</time>
      </trkpt>
      <trkpt lat="41.34228" lon="19.75878">
        <ele>113.377597</ele>
        <time>2022-05-06T11:31:21.558Z</time>
      </trkpt>
      <trkpt lat="41.34221" lon="19.75888">
        <ele>113.365659</ele>
        <time>2022-05-06T11:31:24.536Z</time>
      </trkpt>
      <trkpt lat="41.34213" lon="19.75899">
        <ele>113.351953</ele>
        <time>2022-05-06T11:31:27.550Z</time>
      </trkpt>
      <trkpt lat="41.34205" lon="19.75911">
        <ele>113.338006</ele>
        <time>2022-05-06T11:31:30.555Z</time>
      </trkpt>
      <trkpt lat="41.34197" lon="19.75921">
        <ele>113.325003</ele>
        <time>2022-05-06T11:31:33.558Z</time>
      </trkpt>
      <trkpt lat="41.34188" lon="19.75933">
        <ele>113.311386</ele>
        <time>2022-05-06T11:31:36.544Z</time>
      </trkpt>
      <trkpt lat="41.34181" lon="19.75944">
        <ele>113.298371</ele>
        <time>2022-05-06T11:31:39.614Z</time>
      </trkpt>
      <trkpt lat="41.34174" lon="19.75956">
        <ele>113.290849</ele>
        <time>2022-05-06T11:31:42.547Z</time>
      </trkpt>
      <trkpt lat="41.34166" lon="19.75965">
        <ele>113.612548</ele>
        <time>2022-05-06T11:31:45.542Z</time>
      </trkpt>
      <trkpt lat="41.34158" lon="19.75975">
        <ele>113.938558</ele>
        <time>2022-05-06T11:31:48.547Z</time>
      </trkpt>
      <trkpt lat="41.3415" lon="19.75985">
        <ele>114.263887</ele>
        <time>2022-05-06T11:31:51.543Z</time>
      </trkpt>
      <trkpt lat="41.34141" lon="19.75995">
        <ele>114.608016</ele>
        <time>2022-05-06T11:31:54.556Z</time>
      </trkpt>
      <trkpt lat="41.34133" lon="19.76007">
        <ele>114.96161</ele>
        <time>2022-05-06T11:31:57.551Z</time>
      </trkpt>
      <trkpt lat="41.34124" lon="19.76017">
        <ele>115.316801</ele>
        <time>2022-05-06T11:32:00.551Z</time>
      </trkpt>
      <trkpt lat="41.34116" lon="19.76025">
        <ele>115.613902</ele>
        <time>2022-05-06T11:32:03.552Z</time>
      </trkpt>
      <trkpt lat="41.34108" lon="19.76036">
        <ele>115.963285</ele>
        <time>2022-05-06T11:32:07.555Z</time>
      </trkpt>
      <trkpt lat="41.341" lon="19.76048">
        <ele>116.308278</ele>
        <time>2022-05-06T11:32:11.546Z</time>
      </trkpt>
      <trkpt lat="41.34093" lon="19.76057">
        <ele>116.609219</ele>
        <time>2022-05-06T11:32:14.557Z</time>
      </trkpt>
      <trkpt lat="41.34085" lon="19.76068">
        <ele>116.933842</ele>
        <time>2022-05-06T11:32:17.544Z</time>
      </trkpt>
      <trkpt lat="41.34077" lon="19.76078">
        <ele>117.274276</ele>
        <time>2022-05-06T11:32:20.568Z</time>
      </trkpt>
      <trkpt lat="41.34069" lon="19.76092">
        <ele>117.66082</ele>
        <time>2022-05-06T11:32:23.592Z</time>
      </trkpt>
      <trkpt lat="41.34063" lon="19.76101">
        <ele>117.933399</ele>
        <time>2022-05-06T11:32:25.560Z</time>
      </trkpt>
      <trkpt lat="41.34054" lon="19.76114">
        <ele>118.328616</ele>
        <time>2022-05-06T11:32:28.553Z</time>
      </trkpt>
      <trkpt lat="41.34044" lon="19.76125">
        <ele>118.62079</ele>
        <time>2022-05-06T11:32:31.543Z</time>
      </trkpt>
      <trkpt lat="41.34035" lon="19.76137">
        <ele>118.498605</ele>
        <time>2022-05-06T11:32:34.540Z</time>
      </trkpt>
      <trkpt lat="41.34027" lon="19.76148">
        <ele>118.381446</ele>
        <time>2022-05-06T11:32:37.559Z</time>
      </trkpt>
      <trkpt lat="41.34019" lon="19.76159">
        <ele>118.268449</ele>
        <time>2022-05-06T11:32:40.560Z</time>
      </trkpt>
      <trkpt lat="41.34012" lon="19.76169">
        <ele>118.166145</ele>
        <time>2022-05-06T11:32:43.544Z</time>
      </trkpt>
      <trkpt lat="41.34005" lon="19.76179">
        <ele>118.068233</ele>
        <time>2022-05-06T11:32:46.561Z</time>
      </trkpt>
      <trkpt lat="41.33997" lon="19.76189">
        <ele>117.958253</ele>
        <time>2022-05-06T11:32:49.544Z</time>
      </trkpt>
      <trkpt lat="41.33987" lon="19.762">
        <ele>117.83279</ele>
        <time>2022-05-06T11:32:52.543Z</time>
      </trkpt>
      <trkpt lat="41.3398" lon="19.76207">
        <ele>117.74297</ele>
        <time>2022-05-06T11:32:54.562Z</time>
      </trkpt>
      <trkpt lat="41.3397" lon="19.76218">
        <ele>117.614464</ele>
        <time>2022-05-06T11:32:57.619Z</time>
      </trkpt>
      <trkpt lat="41.33959" lon="19.76228">
        <ele>117.485636</ele>
        <time>2022-05-06T11:33:00.576Z</time>
      </trkpt>
      <trkpt lat="41.33948" lon="19.76238">
        <ele>117.354242</ele>
        <time>2022-05-06T11:33:03.558Z</time>
      </trkpt>
      <trkpt lat="41.3394" lon="19.76245">
        <ele>117.264272</ele>
        <time>2022-05-06T11:33:05.559Z</time>
      </trkpt>
      <trkpt lat="41.33932" lon="19.76251">
        <ele>117.17469</ele>
        <time>2022-05-06T11:33:07.544Z</time>
      </trkpt>
      <trkpt lat="41.33923" lon="19.76262">
        <ele>117.052217</ele>
        <time>2022-05-06T11:33:10.554Z</time>
      </trkpt>
      <trkpt lat="41.33915" lon="19.76273">
        <ele>116.940949</ele>
        <time>2022-05-06T11:33:13.556Z</time>
      </trkpt>
      <trkpt lat="41.33906" lon="19.76284">
        <ele>116.869568</ele>
        <time>2022-05-06T11:33:16.547Z</time>
      </trkpt>
      <trkpt lat="41.33898" lon="19.76295">
        <ele>116.855679</ele>
        <time>2022-05-06T11:33:19.688Z</time>
      </trkpt>
      <trkpt lat="41.33891" lon="19.76305">
        <ele>116.8432</ele>
        <time>2022-05-06T11:33:22.546Z</time>
      </trkpt>
      <trkpt lat="41.33883" lon="19.76316">
        <ele>116.829245</ele>
        <time>2022-05-06T11:33:25.556Z</time>
      </trkpt>
      <trkpt lat="41.33877" lon="19.76327">
        <ele>116.816501</ele>
        <time>2022-05-06T11:33:28.554Z</time>
      </trkpt>
      <trkpt lat="41.33874" lon="19.76339">
        <ele>116.804514</ele>
        <time>2022-05-06T11:33:31.571Z</time>
      </trkpt>
      <trkpt lat="41.3388" lon="19.76348">
        <ele>116.792641</ele>
        <time>2022-05-06T11:33:35.542Z</time>
      </trkpt>
      <trkpt lat="41.33889" lon="19.76357">
        <ele>116.779349</ele>
        <time>2022-05-06T11:33:38.579Z</time>
      </trkpt>
      <trkpt lat="41.33899" lon="19.76368">
        <ele>116.762845</ele>
        <time>2022-05-06T11:33:41.548Z</time>
      </trkpt>
      <trkpt lat="41.33907" lon="19.76377">
        <ele>116.750368</ele>
        <time>2022-05-06T11:33:43.538Z</time>
      </trkpt>
      <trkpt lat="41.33916" lon="19.76387">
        <ele>116.736055</ele>
        <time>2022-05-06T11:33:45.611Z</time>
      </trkpt>
      <trkpt lat="41.33926" lon="19.76398">
        <ele>116.720586</ele>
        <time>2022-05-06T11:33:47.553Z</time>
      </trkpt>
      <trkpt lat="41.33935" lon="19.76409">
        <ele>116.705169</ele>
        <time>2022-05-06T11:33:49.553Z</time>
      </trkpt>
      <trkpt lat="41.33944" lon="19.76419">
        <ele>116.690092</ele>
        <time>2022-05-06T11:33:51.610Z</time>
      </trkpt>
      <trkpt lat="41.33954" lon="19.7643">
        <ele>116.675193</ele>
        <time>2022-05-06T11:33:53.562Z</time>
      </trkpt>
      <trkpt lat="41.33963" lon="19.7644">
        <ele>116.660908</ele>
        <time>2022-05-06T11:33:55.562Z</time>
      </trkpt>
      <trkpt lat="41.33971" lon="19.76449">
        <ele>116.625986</ele>
        <time>2022-05-06T11:33:57.556Z</time>
      </trkpt>
      <trkpt lat="41.33979" lon="19.76458">
        <ele>116.583132</ele>
        <time>2022-05-06T11:33:59.538Z</time>
      </trkpt>
      <trkpt lat="41.33987" lon="19.76465">
        <ele>116.543948</ele>
        <time>2022-05-06T11:34:01.552Z</time>
      </trkpt>
      <trkpt lat="41.33997" lon="19.76476">
        <ele>116.487343</ele>
        <time>2022-05-06T11:34:04.565Z</time>
      </trkpt>
      <trkpt lat="41.34008" lon="19.76487">
        <ele>116.431949</ele>
        <time>2022-05-06T11:34:07.562Z</time>
      </trkpt>
      <trkpt lat="41.34019" lon="19.76498">
        <ele>116.374493</ele>
        <time>2022-05-06T11:34:10.540Z</time>
      </trkpt>
      <trkpt lat="41.34026" lon="19.76506">
        <ele>116.333805</ele>
        <time>2022-05-06T11:34:12.550Z</time>
      </trkpt>
      <trkpt lat="41.34036" lon="19.76518">
        <ele>116.27893</ele>
        <time>2022-05-06T11:34:15.555Z</time>
      </trkpt>
      <trkpt lat="41.34046" lon="19.76529">
        <ele>116.224222</ele>
        <time>2022-05-06T11:34:18.561Z</time>
      </trkpt>
      <trkpt lat="41.34054" lon="19.76538">
        <ele>116.179345</ele>
        <time>2022-05-06T11:34:21.547Z</time>
      </trkpt>
      <trkpt lat="41.34063" lon="19.76548">
        <ele>116.131911</ele>
        <time>2022-05-06T11:34:24.551Z</time>
      </trkpt>
      <trkpt lat="41.34073" lon="19.76558">
        <ele>116.078844</ele>
        <time>2022-05-06T11:34:27.575Z</time>
      </trkpt>
      <trkpt lat="41.34081" lon="19.76569">
        <ele>116.030658</ele>
        <time>2022-05-06T11:34:30.562Z</time>
      </trkpt>
      <trkpt lat="41.34081" lon="19.76582">
        <ele>115.98784</ele>
        <time>2022-05-06T11:34:34.556Z</time>
      </trkpt>
      <trkpt lat="41.34075" lon="19.76595">
        <ele>115.941396</ele>
        <time>2022-05-06T11:34:39.554Z</time>
      </trkpt>
      <trkpt lat="41.34069" lon="19.76606">
        <ele>115.902685</ele>
        <time>2022-05-06T11:34:42.573Z</time>
      </trkpt>
      <trkpt lat="41.34062" lon="19.76616">
        <ele>115.91265</ele>
        <time>2022-05-06T11:34:45.545Z</time>
      </trkpt>
      <trkpt lat="41.34054" lon="19.76628">
        <ele>115.923455</ele>
        <time>2022-05-06T11:34:48.550Z</time>
      </trkpt>
      <trkpt lat="41.34046" lon="19.76639">
        <ele>115.934078</ele>
        <time>2022-05-06T11:34:51.545Z</time>
      </trkpt>
      <trkpt lat="41.34038" lon="19.76651">
        <ele>115.945111</ele>
        <time>2022-05-06T11:34:54.552Z</time>
      </trkpt>
      <trkpt lat="41.34031" lon="19.76662">
        <ele>115.955287</ele>
        <time>2022-05-06T11:34:57.551Z</time>
      </trkpt>
      <trkpt lat="41.34024" lon="19.76672">
        <ele>115.965096</ele>
        <time>2022-05-06T11:35:00.557Z</time>
      </trkpt>
      <trkpt lat="41.34017" lon="19.76683">
        <ele>115.975643</ele>
        <time>2022-05-06T11:35:03.568Z</time>
      </trkpt>
      <trkpt lat="41.34009" lon="19.76695">
        <ele>115.986485</ele>
        <time>2022-05-06T11:35:06.542Z</time>
      </trkpt>
      <trkpt lat="41.34001" lon="19.76707">
        <ele>115.99757</ele>
        <time>2022-05-06T11:35:09.553Z</time>
      </trkpt>
      <trkpt lat="41.33994" lon="19.76718">
        <ele>116.007888</ele>
        <time>2022-05-06T11:35:12.548Z</time>
      </trkpt>
      <trkpt lat="41.33986" lon="19.76729">
        <ele>116.018167</ele>
        <time>2022-05-06T11:35:15.593Z</time>
      </trkpt>
      <trkpt lat="41.33979" lon="19.76739">
        <ele>116.027822</ele>
        <time>2022-05-06T11:35:18.558Z</time>
      </trkpt>
      <trkpt lat="41.33972" lon="19.7675">
        <ele>116.037954</ele>
        <time>2022-05-06T11:35:21.560Z</time>
      </trkpt>
      <trkpt lat="41.33965" lon="19.7676">
        <ele>116.047723</ele>
        <time>2022-05-06T11:35:24.550Z</time>
      </trkpt>
      <trkpt lat="41.33956" lon="19.76771">
        <ele>116.058393</ele>
        <time>2022-05-06T11:35:27.555Z</time>
      </trkpt>
      <trkpt lat="41.33948" lon="19.76782">
        <ele>116.066777</ele>
        <time>2022-05-06T11:35:30.552Z</time>
      </trkpt>
      <trkpt lat="41.33939" lon="19.76794">
        <ele>116.038888</ele>
        <time>2022-05-06T11:35:33.547Z</time>
      </trkpt>
      <trkpt lat="41.33932" lon="19.76804">
        <ele>116.013607</ele>
        <time>2022-05-06T11:35:36.541Z</time>
      </trkpt>
      <trkpt lat="41.33924" lon="19.76814">
        <ele>115.988647</ele>
        <time>2022-05-06T11:35:39.564Z</time>
      </trkpt>
      <trkpt lat="41.33915" lon="19.76824">
        <ele>115.962182</ele>
        <time>2022-05-06T11:35:42.545Z</time>
      </trkpt>
      <trkpt lat="41.33908" lon="19.76835">
        <ele>115.93582</ele>
        <time>2022-05-06T11:35:45.618Z</time>
      </trkpt>
      <trkpt lat="41.339" lon="19.76847">
        <ele>115.908657</ele>
        <time>2022-05-06T11:35:48.542Z</time>
      </trkpt>
      <trkpt lat="41.33892" lon="19.76858">
        <ele>115.881908</ele>
        <time>2022-05-06T11:35:51.557Z</time>
      </trkpt>
      <trkpt lat="41.33884" lon="19.7687">
        <ele>115.854745</ele>
        <time>2022-05-06T11:35:54.557Z</time>
      </trkpt>
      <trkpt lat="41.33876" lon="19.76881">
        <ele>115.827683</ele>
        <time>2022-05-06T11:35:57.553Z</time>
      </trkpt>
      <trkpt lat="41.33869" lon="19.76892">
        <ele>115.801812</ele>
        <time>2022-05-06T11:36:00.553Z</time>
      </trkpt>
      <trkpt lat="41.33862" lon="19.76903">
        <ele>115.776618</ele>
        <time>2022-05-06T11:36:03.555Z</time>
      </trkpt>
      <trkpt lat="41.33855" lon="19.76914">
        <ele>115.752013</ele>
        <time>2022-05-06T11:36:06.542Z</time>
      </trkpt>
      <trkpt lat="41.33848" lon="19.76925">
        <ele>115.726444</ele>
        <time>2022-05-06T11:36:09.532Z</time>
      </trkpt>
      <trkpt lat="41.33841" lon="19.76935">
        <ele>115.702467</ele>
        <time>2022-05-06T11:36:12.563Z</time>
      </trkpt>
      <trkpt lat="41.33834" lon="19.76945">
        <ele>115.677599</ele>
        <time>2022-05-06T11:36:15.554Z</time>
      </trkpt>
      <trkpt lat="41.33826" lon="19.76956">
        <ele>115.651117</ele>
        <time>2022-05-06T11:36:18.538Z</time>
      </trkpt>
      <trkpt lat="41.33818" lon="19.76968">
        <ele>115.791849</ele>
        <time>2022-05-06T11:36:21.582Z</time>
      </trkpt>
      <trkpt lat="41.3381" lon="19.7698">
        <ele>115.936056</ele>
        <time>2022-05-06T11:36:24.560Z</time>
      </trkpt>
      <trkpt lat="41.33802" lon="19.76991">
        <ele>116.073184</ele>
        <time>2022-05-06T11:36:27.548Z</time>
      </trkpt>
      <trkpt lat="41.33794" lon="19.77003">
        <ele>116.211647</ele>
        <time>2022-05-06T11:36:30.534Z</time>
      </trkpt>
      <trkpt lat="41.33786" lon="19.77014">
        <ele>116.353716</ele>
        <time>2022-05-06T11:36:33.537Z</time>
      </trkpt>
      <trkpt lat="41.33779" lon="19.77026">
        <ele>116.490333</ele>
        <time>2022-05-06T11:36:36.543Z</time>
      </trkpt>
      <trkpt lat="41.33771" lon="19.77037">
        <ele>116.633074</ele>
        <time>2022-05-06T11:36:39.530Z</time>
      </trkpt>
      <trkpt lat="41.33763" lon="19.77049">
        <ele>116.773677</ele>
        <time>2022-05-06T11:36:42.546Z</time>
      </trkpt>
      <trkpt lat="41.33756" lon="19.77061">
        <ele>116.909002</ele>
        <time>2022-05-06T11:36:45.538Z</time>
      </trkpt>
      <trkpt lat="41.33748" lon="19.77072">
        <ele>117.043743</ele>
        <time>2022-05-06T11:36:48.575Z</time>
      </trkpt>
      <trkpt lat="41.3374" lon="19.77083">
        <ele>117.183309</ele>
        <time>2022-05-06T11:36:51.564Z</time>
      </trkpt>
      <trkpt lat="41.33731" lon="19.77094">
        <ele>117.327752</ele>
        <time>2022-05-06T11:36:54.539Z</time>
      </trkpt>
      <trkpt lat="41.33723" lon="19.77106">
        <ele>117.474053</ele>
        <time>2022-05-06T11:36:57.535Z</time>
      </trkpt>
      <trkpt lat="41.33714" lon="19.77117">
        <ele>117.619067</ele>
        <time>2022-05-06T11:37:00.533Z</time>
      </trkpt>
      <trkpt lat="41.33706" lon="19.77129">
        <ele>117.76408</ele>
        <time>2022-05-06T11:37:03.528Z</time>
      </trkpt>
      <trkpt lat="41.33681" lon="19.77158">
        <ele>118.458857</ele>
        <time>2022-05-06T11:37:27.566Z</time>
      </trkpt>
      <trkpt lat="41.33673" lon="19.77168">
        <ele>118.704912</ele>
        <time>2022-05-06T11:37:30.532Z</time>
      </trkpt>
      <trkpt lat="41.33665" lon="19.7718">
        <ele>118.97319</ele>
        <time>2022-05-06T11:37:33.534Z</time>
      </trkpt>
      <trkpt lat="41.33657" lon="19.77192">
        <ele>119.234884</ele>
        <time>2022-05-06T11:37:36.551Z</time>
      </trkpt>
      <trkpt lat="41.33649" lon="19.77205">
        <ele>119.501419</ele>
        <time>2022-05-06T11:37:39.533Z</time>
      </trkpt>
      <trkpt lat="41.33645" lon="19.77217">
        <ele>119.719321</ele>
        <time>2022-05-06T11:37:41.543Z</time>
      </trkpt>
      <trkpt lat="41.33639" lon="19.77227">
        <ele>119.92384</ele>
        <time>2022-05-06T11:37:43.553Z</time>
      </trkpt>
      <trkpt lat="41.33632" lon="19.7724">
        <ele>120.203553</ele>
        <time>2022-05-06T11:37:46.559Z</time>
      </trkpt>
      <trkpt lat="41.33624" lon="19.77253">
        <ele>120.467442</ele>
        <time>2022-05-06T11:37:49.550Z</time>
      </trkpt>
      <trkpt lat="41.33617" lon="19.77265">
        <ele>120.726122</ele>
        <time>2022-05-06T11:37:52.544Z</time>
      </trkpt>
      <trkpt lat="41.33609" lon="19.77277">
        <ele>120.991693</ele>
        <time>2022-05-06T11:37:55.550Z</time>
      </trkpt>
      <trkpt lat="41.33601" lon="19.77287">
        <ele>121.235054</ele>
        <time>2022-05-06T11:37:58.547Z</time>
      </trkpt>
      <trkpt lat="41.33592" lon="19.77296">
        <ele>121.477123</ele>
        <time>2022-05-06T11:38:01.545Z</time>
      </trkpt>
      <trkpt lat="41.33584" lon="19.77307">
        <ele>121.723933</ele>
        <time>2022-05-06T11:38:04.551Z</time>
      </trkpt>
      <trkpt lat="41.33576" lon="19.77318">
        <ele>122.294678</ele>
        <time>2022-05-06T11:38:07.550Z</time>
      </trkpt>
      <trkpt lat="41.33569" lon="19.77327">
        <ele>122.858981</ele>
        <time>2022-05-06T11:38:10.543Z</time>
      </trkpt>
      <trkpt lat="41.33561" lon="19.7734">
        <ele>123.524145</ele>
        <time>2022-05-06T11:38:13.564Z</time>
      </trkpt>
      <trkpt lat="41.33551" lon="19.77347">
        <ele>124.149486</ele>
        <time>2022-05-06T11:38:16.527Z</time>
      </trkpt>
      <trkpt lat="41.33543" lon="19.77359">
        <ele>124.774066</ele>
        <time>2022-05-06T11:38:20.546Z</time>
      </trkpt>
      <trkpt lat="41.33528" lon="19.77387">
        <ele>126.189171</ele>
        <time>2022-05-06T11:39:28.558Z</time>
      </trkpt>
      <trkpt lat="41.33522" lon="19.77396">
        <ele>126.681602</ele>
        <time>2022-05-06T11:39:31.561Z</time>
      </trkpt>
      <trkpt lat="41.33515" lon="19.77404">
        <ele>127.176508</ele>
        <time>2022-05-06T11:39:34.548Z</time>
      </trkpt>
      <trkpt lat="41.33508" lon="19.77412">
        <ele>127.706641</ele>
        <time>2022-05-06T11:39:37.563Z</time>
      </trkpt>
      <trkpt lat="41.33501" lon="19.77421">
        <ele>128.230023</ele>
        <time>2022-05-06T11:39:40.582Z</time>
      </trkpt>
      <trkpt lat="41.33494" lon="19.77431">
        <ele>128.781574</ele>
        <time>2022-05-06T11:39:43.560Z</time>
      </trkpt>
      <trkpt lat="41.33488" lon="19.77444">
        <ele>129.375619</ele>
        <time>2022-05-06T11:39:46.539Z</time>
      </trkpt>
      <trkpt lat="41.33482" lon="19.77455">
        <ele>129.942406</ele>
        <time>2022-05-06T11:39:49.551Z</time>
      </trkpt>
      <trkpt lat="41.33476" lon="19.77465">
        <ele>130.493063</ele>
        <time>2022-05-06T11:39:52.552Z</time>
      </trkpt>
      <trkpt lat="41.33467" lon="19.77476">
        <ele>131.111963</ele>
        <time>2022-05-06T11:39:55.549Z</time>
      </trkpt>
      <trkpt lat="41.33459" lon="19.77487">
        <ele>131.482066</ele>
        <time>2022-05-06T11:39:58.550Z</time>
      </trkpt>
      <trkpt lat="41.3345" lon="19.775">
        <ele>131.389835</ele>
        <time>2022-05-06T11:40:01.557Z</time>
      </trkpt>
      <trkpt lat="41.33442" lon="19.77511">
        <ele>131.307234</ele>
        <time>2022-05-06T11:40:04.559Z</time>
      </trkpt>
      <trkpt lat="41.33437" lon="19.77524">
        <ele>131.231704</ele>
        <time>2022-05-06T11:40:07.558Z</time>
      </trkpt>
      <trkpt lat="41.33429" lon="19.77534">
        <ele>131.154272</ele>
        <time>2022-05-06T11:40:10.598Z</time>
      </trkpt>
      <trkpt lat="41.3342" lon="19.77544">
        <ele>131.07002</ele>
        <time>2022-05-06T11:40:13.543Z</time>
      </trkpt>
      <trkpt lat="41.33415" lon="19.77554">
        <ele>131.005909</ele>
        <time>2022-05-06T11:40:15.541Z</time>
      </trkpt>
      <trkpt lat="41.33409" lon="19.77564">
        <ele>130.937129</ele>
        <time>2022-05-06T11:40:17.544Z</time>
      </trkpt>
      <trkpt lat="41.33403" lon="19.77575">
        <ele>130.870042</ele>
        <time>2022-05-06T11:40:19.574Z</time>
      </trkpt>
      <trkpt lat="41.33397" lon="19.77584">
        <ele>130.804996</ele>
        <time>2022-05-06T11:40:21.593Z</time>
      </trkpt>
      <trkpt lat="41.33392" lon="19.77593">
        <ele>130.740847</ele>
        <time>2022-05-06T11:40:23.581Z</time>
      </trkpt>
      <trkpt lat="41.33386" lon="19.77603">
        <ele>130.67584</ele>
        <time>2022-05-06T11:40:25.549Z</time>
      </trkpt>
      <trkpt lat="41.33377" lon="19.77616">
        <ele>130.582707</ele>
        <time>2022-05-06T11:40:28.560Z</time>
      </trkpt>
      <trkpt lat="41.33369" lon="19.77628">
        <ele>130.495159</ele>
        <time>2022-05-06T11:40:31.543Z</time>
      </trkpt>
      <trkpt lat="41.3336" lon="19.77639">
        <ele>130.408111</ele>
        <time>2022-05-06T11:40:34.554Z</time>
      </trkpt>
      <trkpt lat="41.33351" lon="19.77651">
        <ele>130.318937</ele>
        <time>2022-05-06T11:40:37.579Z</time>
      </trkpt>
      <trkpt lat="41.33343" lon="19.77663">
        <ele>130.302488</ele>
        <time>2022-05-06T11:40:40.555Z</time>
      </trkpt>
      <trkpt lat="41.33335" lon="19.77674">
        <ele>131.146512</ele>
        <time>2022-05-06T11:40:43.544Z</time>
      </trkpt>
      <trkpt lat="41.33327" lon="19.77685">
        <ele>131.989392</ele>
        <time>2022-05-06T11:40:46.549Z</time>
      </trkpt>
      <trkpt lat="41.3332" lon="19.77695">
        <ele>132.772049</ele>
        <time>2022-05-06T11:40:49.578Z</time>
      </trkpt>
      <trkpt lat="41.33312" lon="19.77707">
        <ele>133.636614</ele>
        <time>2022-05-06T11:40:52.547Z</time>
      </trkpt>
      <trkpt lat="41.33305" lon="19.77718">
        <ele>134.4615</ele>
        <time>2022-05-06T11:40:55.559Z</time>
      </trkpt>
      <trkpt lat="41.33298" lon="19.7773">
        <ele>135.325123</ele>
        <time>2022-05-06T11:40:58.552Z</time>
      </trkpt>
      <trkpt lat="41.33291" lon="19.77743">
        <ele>136.16227</ele>
        <time>2022-05-06T11:41:01.551Z</time>
      </trkpt>
      <trkpt lat="41.33283" lon="19.77753">
        <ele>136.98437</ele>
        <time>2022-05-06T11:41:04.552Z</time>
      </trkpt>
      <trkpt lat="41.33275" lon="19.77764">
        <ele>137.843396</ele>
        <time>2022-05-06T11:41:07.546Z</time>
      </trkpt>
      <trkpt lat="41.33268" lon="19.77777">
        <ele>138.693671</ele>
        <time>2022-05-06T11:41:10.554Z</time>
      </trkpt>
      <trkpt lat="41.33261" lon="19.77788">
        <ele>139.518561</ele>
        <time>2022-05-06T11:41:13.554Z</time>
      </trkpt>
      <trkpt lat="41.33254" lon="19.778">
        <ele>140.347278</ele>
        <time>2022-05-06T11:41:16.568Z</time>
      </trkpt>
      <trkpt lat="41.33247" lon="19.77811">
        <ele>141.171711</ele>
        <time>2022-05-06T11:41:19.539Z</time>
      </trkpt>
      <trkpt lat="41.3324" lon="19.77822">
        <ele>141.960349</ele>
        <time>2022-05-06T11:41:22.539Z</time>
      </trkpt>
      <trkpt lat="41.33233" lon="19.77833">
        <ele>142.742034</ele>
        <time>2022-05-06T11:41:25.557Z</time>
      </trkpt>
      <trkpt lat="41.33227" lon="19.77846">
        <ele>143.533395</ele>
        <time>2022-05-06T11:41:28.581Z</time>
      </trkpt>
      <trkpt lat="41.33219" lon="19.77856">
        <ele>143.804347</ele>
        <time>2022-05-06T11:41:31.550Z</time>
      </trkpt>
      <trkpt lat="41.33209" lon="19.77862">
        <ele>144.073064</ele>
        <time>2022-05-06T11:41:34.591Z</time>
      </trkpt>
      <trkpt lat="41.332" lon="19.77873">
        <ele>144.36903</ele>
        <time>2022-05-06T11:41:37.565Z</time>
      </trkpt>
      <trkpt lat="41.33195" lon="19.77883">
        <ele>144.587498</ele>
        <time>2022-05-06T11:41:39.535Z</time>
      </trkpt>
      <trkpt lat="41.3319" lon="19.77894">
        <ele>144.813966</ele>
        <time>2022-05-06T11:41:41.550Z</time>
      </trkpt>
      <trkpt lat="41.33184" lon="19.77903">
        <ele>145.053715</ele>
        <time>2022-05-06T11:41:43.549Z</time>
      </trkpt>
      <trkpt lat="41.33177" lon="19.77912">
        <ele>145.29084</ele>
        <time>2022-05-06T11:41:45.593Z</time>
      </trkpt>
      <trkpt lat="41.3317" lon="19.77922">
        <ele>145.523495</ele>
        <time>2022-05-06T11:41:47.544Z</time>
      </trkpt>
      <trkpt lat="41.33162" lon="19.77936">
        <ele>145.846065</ele>
        <time>2022-05-06T11:41:50.544Z</time>
      </trkpt>
      <trkpt lat="41.33155" lon="19.77948">
        <ele>146.137924</ele>
        <time>2022-05-06T11:41:53.545Z</time>
      </trkpt>
      <trkpt lat="41.33147" lon="19.7796">
        <ele>146.421809</ele>
        <time>2022-05-06T11:41:56.567Z</time>
      </trkpt>
      <trkpt lat="41.33141" lon="19.77972">
        <ele>146.691625</ele>
        <time>2022-05-06T11:41:59.535Z</time>
      </trkpt>
      <trkpt lat="41.33134" lon="19.77983">
        <ele>146.956202</ele>
        <time>2022-05-06T11:42:02.552Z</time>
      </trkpt>
      <trkpt lat="41.33126" lon="19.77993">
        <ele>147.221085</ele>
        <time>2022-05-06T11:42:05.554Z</time>
      </trkpt>
      <trkpt lat="41.33119" lon="19.78003">
        <ele>147.473792</ele>
        <time>2022-05-06T11:42:08.552Z</time>
      </trkpt>
      <trkpt lat="41.33111" lon="19.78013">
        <ele>147.73857</ele>
        <time>2022-05-06T11:42:11.567Z</time>
      </trkpt>
      <trkpt lat="41.33104" lon="19.78023">
        <ele>147.984589</ele>
        <time>2022-05-06T11:42:14.541Z</time>
      </trkpt>
      <trkpt lat="41.33098" lon="19.78035">
        <ele>148.199096</ele>
        <time>2022-05-06T11:42:20.550Z</time>
      </trkpt>
      <trkpt lat="41.3309" lon="19.78043">
        <ele>148.411405</ele>
        <time>2022-05-06T11:42:24.574Z</time>
      </trkpt>
      <trkpt lat="41.33081" lon="19.7805">
        <ele>148.620498</ele>
        <time>2022-05-06T11:42:27.545Z</time>
      </trkpt>
      <trkpt lat="41.33073" lon="19.78061">
        <ele>148.859046</ele>
        <time>2022-05-06T11:42:30.592Z</time>
      </trkpt>
      <trkpt lat="41.33067" lon="19.78073">
        <ele>149.087017</ele>
        <time>2022-05-06T11:42:33.549Z</time>
      </trkpt>
      <trkpt lat="41.33059" lon="19.78085">
        <ele>149.336064</ele>
        <time>2022-05-06T11:42:36.552Z</time>
      </trkpt>
      <trkpt lat="41.33049" lon="19.78095">
        <ele>149.594092</ele>
        <time>2022-05-06T11:42:39.558Z</time>
      </trkpt>
      <trkpt lat="41.3304" lon="19.78108">
        <ele>149.86398</ele>
        <time>2022-05-06T11:42:42.563Z</time>
      </trkpt>
      <trkpt lat="41.33034" lon="19.78117">
        <ele>150.054059</ele>
        <time>2022-05-06T11:42:44.555Z</time>
      </trkpt>
      <trkpt lat="41.3303" lon="19.78128">
        <ele>150.249491</ele>
        <time>2022-05-06T11:42:46.550Z</time>
      </trkpt>
      <trkpt lat="41.33024" lon="19.78138">
        <ele>150.450108</ele>
        <time>2022-05-06T11:42:48.550Z</time>
      </trkpt>
      <trkpt lat="41.33017" lon="19.78148">
        <ele>150.659278</ele>
        <time>2022-05-06T11:42:50.561Z</time>
      </trkpt>
      <trkpt lat="41.33011" lon="19.78158">
        <ele>150.864851</ele>
        <time>2022-05-06T11:42:52.536Z</time>
      </trkpt>
      <trkpt lat="41.33004" lon="19.78172">
        <ele>151.128961</ele>
        <time>2022-05-06T11:42:55.544Z</time>
      </trkpt>
      <trkpt lat="41.32996" lon="19.78187">
        <ele>151.405811</ele>
        <time>2022-05-06T11:42:58.538Z</time>
      </trkpt>
      <trkpt lat="41.3299" lon="19.78197">
        <ele>151.603921</ele>
        <time>2022-05-06T11:43:00.560Z</time>
      </trkpt>
      <trkpt lat="41.32985" lon="19.78211">
        <ele>151.520402</ele>
        <time>2022-05-06T11:43:03.558Z</time>
      </trkpt>
      <trkpt lat="41.32979" lon="19.78222">
        <ele>151.418325</ele>
        <time>2022-05-06T11:43:06.539Z</time>
      </trkpt>
      <trkpt lat="41.32972" lon="19.78232">
        <ele>151.317724</ele>
        <time>2022-05-06T11:43:09.589Z</time>
      </trkpt>
      <trkpt lat="41.32965" lon="19.78242">
        <ele>151.211313</ele>
        <time>2022-05-06T11:43:12.564Z</time>
      </trkpt>
      <trkpt lat="41.32959" lon="19.78253">
        <ele>151.112818</ele>
        <time>2022-05-06T11:43:15.551Z</time>
      </trkpt>
      <trkpt lat="41.32952" lon="19.78262">
        <ele>151.019792</ele>
        <time>2022-05-06T11:43:18.559Z</time>
      </trkpt>
      <trkpt lat="41.32944" lon="19.78273">
        <ele>150.902635</ele>
        <time>2022-05-06T11:43:22.544Z</time>
      </trkpt>
      <trkpt lat="41.32935" lon="19.78282">
        <ele>150.79295</ele>
        <time>2022-05-06T11:43:26.539Z</time>
      </trkpt>
      <trkpt lat="41.32924" lon="19.78284">
        <ele>150.686626</ele>
        <time>2022-05-06T11:43:29.529Z</time>
      </trkpt>
      <trkpt lat="41.32914" lon="19.7829">
        <ele>150.575165</ele>
        <time>2022-05-06T11:43:32.570Z</time>
      </trkpt>
      <trkpt lat="41.32909" lon="19.78307">
        <ele>150.43993</ele>
        <time>2022-05-06T11:43:35.555Z</time>
      </trkpt>
      <trkpt lat="41.32907" lon="19.78319">
        <ele>150.343858</ele>
        <time>2022-05-06T11:43:37.523Z</time>
      </trkpt>
      <trkpt lat="41.32901" lon="19.78333">
        <ele>150.224452</ele>
        <time>2022-05-06T11:43:40.530Z</time>
      </trkpt>
      <trkpt lat="41.32892" lon="19.7834">
        <ele>150.119751</ele>
        <time>2022-05-06T11:43:43.542Z</time>
      </trkpt>
      <trkpt lat="41.32883" lon="19.78345">
        <ele>150.027757</ele>
        <time>2022-05-06T11:43:46.541Z</time>
      </trkpt>
      <trkpt lat="41.32873" lon="19.78347">
        <ele>149.927001</ele>
        <time>2022-05-06T11:43:49.551Z</time>
      </trkpt>
      <trkpt lat="41.32864" lon="19.7835">
        <ele>149.819783</ele>
        <time>2022-05-06T11:43:53.547Z</time>
      </trkpt>
      <trkpt lat="41.32853" lon="19.78354">
        <ele>149.622445</ele>
        <time>2022-05-06T11:43:57.551Z</time>
      </trkpt>
      <trkpt lat="41.32842" lon="19.78352">
        <ele>149.41692</ele>
        <time>2022-05-06T11:44:02.541Z</time>
      </trkpt>
      <trkpt lat="41.32831" lon="19.78351">
        <ele>149.205907</ele>
        <time>2022-05-06T11:44:05.551Z</time>
      </trkpt>
      <trkpt lat="41.32818" lon="19.78355">
        <ele>148.961397</ele>
        <time>2022-05-06T11:44:08.529Z</time>
      </trkpt>
      <trkpt lat="41.32807" lon="19.78354">
        <ele>148.775458</ele>
        <time>2022-05-06T11:44:14.546Z</time>
      </trkpt>
      <trkpt lat="41.32818" lon="19.78354">
        <ele>148.579123</ele>
        <time>2022-05-06T11:44:22.538Z</time>
      </trkpt>
      <trkpt lat="41.32827" lon="19.78358">
        <ele>148.411123</ele>
        <time>2022-05-06T11:44:26.569Z</time>
      </trkpt>
      <trkpt lat="41.32836" lon="19.78365">
        <ele>148.22444</ele>
        <time>2022-05-06T11:44:30.537Z</time>
      </trkpt>
      <trkpt lat="41.32845" lon="19.78375">
        <ele>148.01025</ele>
        <time>2022-05-06T11:44:34.556Z</time>
      </trkpt>
      <trkpt lat="41.32846" lon="19.78387">
        <ele>147.837982</ele>
        <time>2022-05-06T11:44:41.539Z</time>
      </trkpt>
      <trkpt lat="41.32838" lon="19.78396">
        <ele>147.645862</ele>
        <time>2022-05-06T11:44:47.522Z</time>
      </trkpt>
      <trkpt lat="41.32831" lon="19.78407">
        <ele>147.445186</ele>
        <time>2022-05-06T11:44:52.538Z</time>
      </trkpt>
      <trkpt lat="41.32825" lon="19.78417">
        <ele>147.279917</ele>
        <time>2022-05-06T11:44:56.574Z</time>
      </trkpt>
      <trkpt lat="41.32822" lon="19.78429">
        <ele>147.096474</ele>
        <time>2022-05-06T11:45:01.587Z</time>
      </trkpt>
      <trkpt lat="41.32799" lon="19.78466">
        <ele>146.213561</ele>
        <time>2022-05-06T11:45:24.557Z</time>
      </trkpt>
      <trkpt lat="41.32794" lon="19.78477">
        <ele>145.701016</ele>
        <time>2022-05-06T11:45:28.551Z</time>
      </trkpt>
      <trkpt lat="41.32786" lon="19.78486">
        <ele>145.124357</ele>
        <time>2022-05-06T11:45:33.546Z</time>
      </trkpt>
      <trkpt lat="41.32778" lon="19.78496">
        <ele>144.487049</ele>
        <time>2022-05-06T11:45:37.571Z</time>
      </trkpt>
      <trkpt lat="41.3277" lon="19.78506">
        <ele>143.898666</ele>
        <time>2022-05-06T11:45:41.545Z</time>
      </trkpt>
      <trkpt lat="41.32764" lon="19.78517">
        <ele>143.347183</ele>
        <time>2022-05-06T11:45:45.556Z</time>
      </trkpt>
      <trkpt lat="41.32749" lon="19.78545">
        <ele>141.925052</ele>
        <time>2022-05-06T11:46:10.539Z</time>
      </trkpt>
      <trkpt lat="41.32741" lon="19.78552">
        <ele>141.37464</ele>
        <time>2022-05-06T11:46:13.546Z</time>
      </trkpt>
      <trkpt lat="41.32732" lon="19.78558">
        <ele>140.835587</ele>
        <time>2022-05-06T11:46:18.549Z</time>
      </trkpt>
      <trkpt lat="41.32725" lon="19.78565">
        <ele>140.321993</ele>
        <time>2022-05-06T11:46:21.529Z</time>
      </trkpt>
      <trkpt lat="41.32718" lon="19.78578">
        <ele>139.67273</ele>
        <time>2022-05-06T11:46:25.540Z</time>
      </trkpt>
      <trkpt lat="41.32712" lon="19.78588">
        <ele>139.157033</ele>
        <time>2022-05-06T11:46:29.546Z</time>
      </trkpt>
      <trkpt lat="41.32706" lon="19.78598">
        <ele>138.613835</ele>
        <time>2022-05-06T11:46:33.530Z</time>
      </trkpt>
      <trkpt lat="41.32699" lon="19.78606">
        <ele>138.097873</ele>
        <time>2022-05-06T11:46:37.575Z</time>
      </trkpt>
      <trkpt lat="41.32694" lon="19.78618">
        <ele>137.520465</ele>
        <time>2022-05-06T11:46:44.590Z</time>
      </trkpt>
      <trkpt lat="41.32687" lon="19.78629">
        <ele>136.935526</ele>
        <time>2022-05-06T11:46:51.579Z</time>
      </trkpt>
      <trkpt lat="41.32678" lon="19.78637">
        <ele>136.553036</ele>
        <time>2022-05-06T11:46:54.545Z</time>
      </trkpt>
      <trkpt lat="41.32668" lon="19.78644">
        <ele>136.454049</ele>
        <time>2022-05-06T11:46:57.546Z</time>
      </trkpt>
      <trkpt lat="41.32657" lon="19.7865">
        <ele>136.352632</ele>
        <time>2022-05-06T11:47:00.558Z</time>
      </trkpt>
      <trkpt lat="41.32646" lon="19.78656">
        <ele>136.25063</ele>
        <time>2022-05-06T11:47:03.540Z</time>
      </trkpt>
      <trkpt lat="41.32635" lon="19.78661">
        <ele>136.153042</ele>
        <time>2022-05-06T11:47:06.552Z</time>
      </trkpt>
      <trkpt lat="41.32624" lon="19.78666">
        <ele>136.052195</ele>
        <time>2022-05-06T11:47:09.560Z</time>
      </trkpt>
      <trkpt lat="41.32614" lon="19.7867">
        <ele>135.962706</ele>
        <time>2022-05-06T11:47:12.546Z</time>
      </trkpt>
      <trkpt lat="41.32603" lon="19.78675">
        <ele>135.866744</ele>
        <time>2022-05-06T11:47:15.543Z</time>
      </trkpt>
      <trkpt lat="41.32594" lon="19.78679">
        <ele>135.778865</ele>
        <time>2022-05-06T11:47:18.590Z</time>
      </trkpt>
      <trkpt lat="41.32585" lon="19.78685">
        <ele>135.691151</ele>
        <time>2022-05-06T11:47:21.554Z</time>
      </trkpt>
      <trkpt lat="41.32575" lon="19.78692">
        <ele>135.598045</ele>
        <time>2022-05-06T11:47:24.561Z</time>
      </trkpt>
      <trkpt lat="41.32564" lon="19.78698">
        <ele>135.495363</ele>
        <time>2022-05-06T11:47:27.559Z</time>
      </trkpt>
      <trkpt lat="41.32552" lon="19.78703">
        <ele>135.38968</ele>
        <time>2022-05-06T11:47:30.564Z</time>
      </trkpt>
      <trkpt lat="41.32541" lon="19.78709">
        <ele>135.285525</ele>
        <time>2022-05-06T11:47:33.551Z</time>
      </trkpt>
      <trkpt lat="41.3253" lon="19.78716">
        <ele>135.188051</ele>
        <time>2022-05-06T11:47:36.552Z</time>
      </trkpt>
      <trkpt lat="41.32522" lon="19.78725">
        <ele>135.098967</ele>
        <time>2022-05-06T11:47:39.565Z</time>
      </trkpt>
      <trkpt lat="41.32515" lon="19.78733">
        <ele>135.254104</ele>
        <time>2022-05-06T11:47:42.566Z</time>
      </trkpt>
      <trkpt lat="41.32506" lon="19.7874">
        <ele>135.680433</ele>
        <time>2022-05-06T11:47:45.547Z</time>
      </trkpt>
      <trkpt lat="41.32496" lon="19.78744">
        <ele>136.126462</ele>
        <time>2022-05-06T11:47:48.560Z</time>
      </trkpt>
      <trkpt lat="41.32487" lon="19.78747">
        <ele>136.525674</ele>
        <time>2022-05-06T11:47:51.556Z</time>
      </trkpt>
      <trkpt lat="41.32478" lon="19.78752">
        <ele>136.952862</ele>
        <time>2022-05-06T11:47:55.537Z</time>
      </trkpt>
      <trkpt lat="41.32468" lon="19.78761">
        <ele>137.480654</ele>
        <time>2022-05-06T11:47:59.533Z</time>
      </trkpt>
      <trkpt lat="41.3246" lon="19.78766">
        <ele>137.877504</ele>
        <time>2022-05-06T11:48:02.561Z</time>
      </trkpt>
      <trkpt lat="41.3245" lon="19.78774">
        <ele>138.362347</ele>
        <time>2022-05-06T11:48:08.552Z</time>
      </trkpt>
      <trkpt lat="41.32441" lon="19.78779">
        <ele>138.777552</ele>
        <time>2022-05-06T11:48:12.537Z</time>
      </trkpt>
      <trkpt lat="41.32431" lon="19.78779">
        <ele>139.238959</ele>
        <time>2022-05-06T11:48:17.559Z</time>
      </trkpt>
      <trkpt lat="41.32421" lon="19.78778">
        <ele>139.658951</ele>
        <time>2022-05-06T11:48:21.532Z</time>
      </trkpt>
      <trkpt lat="41.3241" lon="19.78778">
        <ele>140.120437</ele>
        <time>2022-05-06T11:48:26.556Z</time>
      </trkpt>
      <trkpt lat="41.32401" lon="19.78783">
        <ele>140.563682</ele>
        <time>2022-05-06T11:48:31.554Z</time>
      </trkpt>
      <trkpt lat="41.32391" lon="19.78791">
        <ele>141.033796</ele>
        <time>2022-05-06T11:48:36.553Z</time>
      </trkpt>
      <trkpt lat="41.32382" lon="19.78798">
        <ele>141.513653</ele>
        <time>2022-05-06T11:48:40.535Z</time>
      </trkpt>
      <trkpt lat="41.32374" lon="19.78806">
        <ele>141.951908</ele>
        <time>2022-05-06T11:48:43.594Z</time>
      </trkpt>
      <trkpt lat="41.32365" lon="19.78814">
        <ele>142.409467</ele>
        <time>2022-05-06T11:48:46.547Z</time>
      </trkpt>
      <trkpt lat="41.32355" lon="19.78822">
        <ele>142.838655</ele>
        <time>2022-05-06T11:48:50.560Z</time>
      </trkpt>
      <trkpt lat="41.32347" lon="19.78831">
        <ele>142.980888</ele>
        <time>2022-05-06T11:48:54.551Z</time>
      </trkpt>
      <trkpt lat="41.32338" lon="19.78837">
        <ele>143.119965</ele>
        <time>2022-05-06T11:48:57.540Z</time>
      </trkpt>
      <trkpt lat="41.32328" lon="19.78843">
        <ele>143.271366</ele>
        <time>2022-05-06T11:49:00.541Z</time>
      </trkpt>
      <trkpt lat="41.32318" lon="19.78849">
        <ele>143.417803</ele>
        <time>2022-05-06T11:49:03.540Z</time>
      </trkpt>
      <trkpt lat="41.32308" lon="19.78853">
        <ele>143.563681</ele>
        <time>2022-05-06T11:49:06.542Z</time>
      </trkpt>
      <trkpt lat="41.32298" lon="19.78857">
        <ele>143.701164</ele>
        <time>2022-05-06T11:49:09.547Z</time>
      </trkpt>
      <trkpt lat="41.3229" lon="19.78863">
        <ele>143.828975</ele>
        <time>2022-05-06T11:49:12.557Z</time>
      </trkpt>
      <trkpt lat="41.3228" lon="19.78867">
        <ele>143.96454</ele>
        <time>2022-05-06T11:49:15.531Z</time>
      </trkpt>
      <trkpt lat="41.3227" lon="19.78873">
        <ele>144.119998</ele>
        <time>2022-05-06T11:49:19.548Z</time>
      </trkpt>
      <trkpt lat="41.3226" lon="19.78878">
        <ele>144.260709</ele>
        <time>2022-05-06T11:49:23.576Z</time>
      </trkpt>
      <trkpt lat="41.32251" lon="19.78881">
        <ele>144.385619</ele>
        <time>2022-05-06T11:49:28.556Z</time>
      </trkpt>
      <trkpt lat="41.32242" lon="19.78886">
        <ele>144.51917</ele>
        <time>2022-05-06T11:49:32.538Z</time>
      </trkpt>
      <trkpt lat="41.32233" lon="19.7889">
        <ele>144.654427</ele>
        <time>2022-05-06T11:49:35.551Z</time>
      </trkpt>
      <trkpt lat="41.32222" lon="19.78893">
        <ele>144.805187</ele>
        <time>2022-05-06T11:49:38.551Z</time>
      </trkpt>
      <trkpt lat="41.3221" lon="19.78895">
        <ele>144.971078</ele>
        <time>2022-05-06T11:49:41.547Z</time>
      </trkpt>
      <trkpt lat="41.32198" lon="19.78896">
        <ele>145.134805</ele>
        <time>2022-05-06T11:49:44.557Z</time>
      </trkpt>
      <trkpt lat="41.32187" lon="19.789">
        <ele>145.164939</ele>
        <time>2022-05-06T11:49:47.554Z</time>
      </trkpt>
      <trkpt lat="41.32175" lon="19.78904">
        <ele>144.661771</ele>
        <time>2022-05-06T11:49:50.544Z</time>
      </trkpt>
      <trkpt lat="41.32162" lon="19.78908">
        <ele>144.156642</ele>
        <time>2022-05-06T11:49:53.540Z</time>
      </trkpt>
      <trkpt lat="41.32151" lon="19.78916">
        <ele>143.66018</ele>
        <time>2022-05-06T11:49:56.558Z</time>
      </trkpt>
      <trkpt lat="41.32143" lon="19.78929">
        <ele>143.137429</ele>
        <time>2022-05-06T11:49:59.549Z</time>
      </trkpt>
      <trkpt lat="41.32138" lon="19.78939">
        <ele>142.77618</ele>
        <time>2022-05-06T11:50:01.601Z</time>
      </trkpt>
      <trkpt lat="41.32143" lon="19.78954">
        <ele>142.309106</ele>
        <time>2022-05-06T11:50:05.552Z</time>
      </trkpt>
      <trkpt lat="41.32143" lon="19.7897">
        <ele>141.807304</ele>
        <time>2022-05-06T11:50:08.537Z</time>
      </trkpt>
      <trkpt lat="41.3215" lon="19.78981">
        <ele>141.377106</ele>
        <time>2022-05-06T11:50:11.548Z</time>
      </trkpt>
      <trkpt lat="41.32158" lon="19.78988">
        <ele>140.984979</ele>
        <time>2022-05-06T11:50:14.533Z</time>
      </trkpt>
      <trkpt lat="41.32165" lon="19.78997">
        <ele>140.61694</ele>
        <time>2022-05-06T11:50:16.541Z</time>
      </trkpt>
      <trkpt lat="41.32172" lon="19.7901">
        <ele>140.129179</ele>
        <time>2022-05-06T11:50:19.546Z</time>
      </trkpt>
      <trkpt lat="41.3218" lon="19.79024">
        <ele>139.60304</ele>
        <time>2022-05-06T11:50:22.573Z</time>
      </trkpt>
      <trkpt lat="41.32185" lon="19.7904">
        <ele>139.072522</ele>
        <time>2022-05-06T11:50:25.565Z</time>
      </trkpt>
      <trkpt lat="41.32188" lon="19.79052">
        <ele>138.699503</ele>
        <time>2022-05-06T11:50:27.544Z</time>
      </trkpt>
      <trkpt lat="41.32191" lon="19.79063">
        <ele>138.339482</ele>
        <time>2022-05-06T11:50:29.582Z</time>
      </trkpt>
      <trkpt lat="41.32195" lon="19.79079">
        <ele>138.251429</ele>
        <time>2022-05-06T11:50:32.570Z</time>
      </trkpt>
      <trkpt lat="41.32199" lon="19.79095">
        <ele>138.634222</ele>
        <time>2022-05-06T11:50:35.543Z</time>
      </trkpt>
      <trkpt lat="41.32203" lon="19.79109">
        <ele>139.009913</ele>
        <time>2022-05-06T11:50:38.545Z</time>
      </trkpt>
      <trkpt lat="41.32207" lon="19.79125">
        <ele>139.395928</ele>
        <time>2022-05-06T11:50:41.586Z</time>
      </trkpt>
      <trkpt lat="41.3221" lon="19.7914">
        <ele>139.765097</ele>
        <time>2022-05-06T11:50:44.547Z</time>
      </trkpt>
      <trkpt lat="41.32214" lon="19.79155">
        <ele>140.141103</ele>
        <time>2022-05-06T11:50:47.563Z</time>
      </trkpt>
      <trkpt lat="41.32218" lon="19.79166">
        <ele>140.438898</ele>
        <time>2022-05-06T11:50:49.550Z</time>
      </trkpt>
      <trkpt lat="41.32222" lon="19.7918">
        <ele>140.782658</ele>
        <time>2022-05-06T11:50:51.563Z</time>
      </trkpt>
      <trkpt lat="41.32227" lon="19.79195">
        <ele>141.174335</ele>
        <time>2022-05-06T11:50:53.578Z</time>
      </trkpt>
      <trkpt lat="41.32234" lon="19.79211">
        <ele>141.610443</ele>
        <time>2022-05-06T11:50:55.532Z</time>
      </trkpt>
      <trkpt lat="41.32238" lon="19.79226">
        <ele>141.987222</ele>
        <time>2022-05-06T11:50:57.534Z</time>
      </trkpt>
      <trkpt lat="41.32242" lon="19.79241">
        <ele>142.349777</ele>
        <time>2022-05-06T11:50:59.583Z</time>
      </trkpt>
      <trkpt lat="41.32245" lon="19.79254">
        <ele>142.691165</ele>
        <time>2022-05-06T11:51:01.539Z</time>
      </trkpt>
      <trkpt lat="41.3225" lon="19.79267">
        <ele>143.034842</ele>
        <time>2022-05-06T11:51:03.554Z</time>
      </trkpt>
      <trkpt lat="41.32254" lon="19.7928">
        <ele>143.372057</ele>
        <time>2022-05-06T11:51:05.547Z</time>
      </trkpt>
      <trkpt lat="41.32258" lon="19.79293">
        <ele>143.699174</ele>
        <time>2022-05-06T11:51:07.540Z</time>
      </trkpt>
      <trkpt lat="41.32261" lon="19.79306">
        <ele>144.336708</ele>
        <time>2022-05-06T11:51:09.547Z</time>
      </trkpt>
      <trkpt lat="41.32265" lon="19.79319">
        <ele>145.012366</ele>
        <time>2022-05-06T11:51:11.538Z</time>
      </trkpt>
      <trkpt lat="41.3227" lon="19.79331">
        <ele>145.655982</ele>
        <time>2022-05-06T11:51:13.569Z</time>
      </trkpt>
      <trkpt lat="41.32276" lon="19.79344">
        <ele>146.431198</ele>
        <time>2022-05-06T11:51:16.564Z</time>
      </trkpt>
      <trkpt lat="41.32283" lon="19.79354">
        <ele>147.073616</ele>
        <time>2022-05-06T11:51:20.541Z</time>
      </trkpt>
      <trkpt lat="41.32287" lon="19.7937">
        <ele>147.931163</ele>
        <time>2022-05-06T11:51:24.545Z</time>
      </trkpt>
      <trkpt lat="41.32291" lon="19.79382">
        <ele>148.557485</ele>
        <time>2022-05-06T11:51:26.551Z</time>
      </trkpt>
      <trkpt lat="41.32296" lon="19.79396">
        <ele>149.287044</ele>
        <time>2022-05-06T11:51:28.544Z</time>
      </trkpt>
      <trkpt lat="41.32301" lon="19.79408">
        <ele>150.000019</ele>
        <time>2022-05-06T11:51:30.543Z</time>
      </trkpt>
      <trkpt lat="41.32306" lon="19.79422">
        <ele>150.722528</ele>
        <time>2022-05-06T11:51:32.554Z</time>
      </trkpt>
      <trkpt lat="41.32308" lon="19.79438">
        <ele>151.535281</ele>
        <time>2022-05-06T11:51:35.537Z</time>
      </trkpt>
      <trkpt lat="41.32313" lon="19.79451">
        <ele>152.244469</ele>
        <time>2022-05-06T11:51:39.532Z</time>
      </trkpt>
      <trkpt lat="41.32314" lon="19.79463">
        <ele>152.852224</ele>
        <time>2022-05-06T11:51:42.557Z</time>
      </trkpt>
      <trkpt lat="41.32317" lon="19.79475">
        <ele>153.449494</ele>
        <time>2022-05-06T11:51:45.536Z</time>
      </trkpt>
      <trkpt lat="41.32321" lon="19.79491">
        <ele>154.242101</ele>
        <time>2022-05-06T11:51:48.547Z</time>
      </trkpt>
      <trkpt lat="41.32326" lon="19.79505">
        <ele>155.056076</ele>
        <time>2022-05-06T11:51:51.545Z</time>
      </trkpt>
      <trkpt lat="41.3233" lon="19.79518">
        <ele>155.480066</ele>
        <time>2022-05-06T11:51:54.551Z</time>
      </trkpt>
      <trkpt lat="41.32332" lon="19.79532">
        <ele>155.606935</ele>
        <time>2022-05-06T11:51:57.559Z</time>
      </trkpt>
      <trkpt lat="41.3233" lon="19.79546">
        <ele>155.732634</ele>
        <time>2022-05-06T11:51:59.553Z</time>
      </trkpt>
      <trkpt lat="41.32331" lon="19.7956">
        <ele>155.860772</ele>
        <time>2022-05-06T11:52:01.564Z</time>
      </trkpt>
      <trkpt lat="41.32334" lon="19.79573">
        <ele>155.984507</ele>
        <time>2022-05-06T11:52:03.541Z</time>
      </trkpt>
      <trkpt lat="41.32337" lon="19.79585">
        <ele>156.091235</ele>
        <time>2022-05-06T11:52:05.546Z</time>
      </trkpt>
      <trkpt lat="41.32339" lon="19.79599">
        <ele>156.222794</ele>
        <time>2022-05-06T11:52:07.563Z</time>
      </trkpt>
      <trkpt lat="41.32341" lon="19.79617">
        <ele>156.380598</ele>
        <time>2022-05-06T11:52:09.556Z</time>
      </trkpt>
      <trkpt lat="41.32341" lon="19.79631">
        <ele>156.505191</ele>
        <time>2022-05-06T11:52:11.550Z</time>
      </trkpt>
      <trkpt lat="41.32344" lon="19.79645">
        <ele>156.632449</ele>
        <time>2022-05-06T11:52:14.535Z</time>
      </trkpt>
      <trkpt lat="41.32348" lon="19.79656">
        <ele>156.743115</ele>
        <time>2022-05-06T11:52:17.547Z</time>
      </trkpt>
      <trkpt lat="41.32354" lon="19.79667">
        <ele>156.859132</ele>
        <time>2022-05-06T11:52:20.531Z</time>
      </trkpt>
      <trkpt lat="41.32359" lon="19.7968">
        <ele>156.99028</ele>
        <time>2022-05-06T11:52:23.558Z</time>
      </trkpt>
      <trkpt lat="41.32364" lon="19.79693">
        <ele>157.124081</ele>
        <time>2022-05-06T11:52:26.542Z</time>
      </trkpt>
      <trkpt lat="41.32369" lon="19.79705">
        <ele>157.240895</ele>
        <time>2022-05-06T11:52:28.554Z</time>
      </trkpt>
      <trkpt lat="41.32374" lon="19.79717">
        <ele>157.363685</ele>
        <time>2022-05-06T11:52:30.562Z</time>
      </trkpt>
      <trkpt lat="41.32379" lon="19.7973">
        <ele>157.492461</ele>
        <time>2022-05-06T11:52:32.584Z</time>
      </trkpt>
      <trkpt lat="41.32385" lon="19.79743">
        <ele>157.408302</ele>
        <time>2022-05-06T11:52:34.533Z</time>
      </trkpt>
      <trkpt lat="41.32389" lon="19.79755">
        <ele>157.191597</ele>
        <time>2022-05-06T11:52:36.531Z</time>
      </trkpt>
      <trkpt lat="41.32393" lon="19.79768">
        <ele>156.955282</ele>
        <time>2022-05-06T11:52:39.551Z</time>
      </trkpt>
      <trkpt lat="41.32395" lon="19.79782">
        <ele>156.731186</ele>
        <time>2022-05-06T11:52:42.551Z</time>
      </trkpt>
      <trkpt lat="41.32398" lon="19.79796">
        <ele>156.49131</ele>
        <time>2022-05-06T11:52:45.536Z</time>
      </trkpt>
      <trkpt lat="41.32399" lon="19.7981">
        <ele>156.257034</ele>
        <time>2022-05-06T11:52:48.544Z</time>
      </trkpt>
      <trkpt lat="41.32397" lon="19.79828">
        <ele>155.961799</ele>
        <time>2022-05-06T11:52:51.541Z</time>
      </trkpt>
      <trkpt lat="41.32399" lon="19.79845">
        <ele>155.683227</ele>
        <time>2022-05-06T11:52:54.552Z</time>
      </trkpt>
      <trkpt lat="41.32402" lon="19.79856">
        <ele>155.485922</ele>
        <time>2022-05-06T11:52:56.544Z</time>
      </trkpt>
      <trkpt lat="41.32407" lon="19.79869">
        <ele>155.260905</ele>
        <time>2022-05-06T11:52:58.518Z</time>
      </trkpt>
      <trkpt lat="41.32413" lon="19.79883">
        <ele>155.003197</ele>
        <time>2022-05-06T11:53:01.571Z</time>
      </trkpt>
      <trkpt lat="41.32417" lon="19.79894">
        <ele>154.783531</ele>
        <time>2022-05-06T11:53:03.600Z</time>
      </trkpt>
      <trkpt lat="41.32421" lon="19.79905">
        <ele>154.585327</ele>
        <time>2022-05-06T11:53:05.542Z</time>
      </trkpt>
      <trkpt lat="41.32425" lon="19.79916">
        <ele>154.388589</ele>
        <time>2022-05-06T11:53:07.542Z</time>
      </trkpt>
      <trkpt lat="41.3243" lon="19.79931">
        <ele>154.133086</ele>
        <time>2022-05-06T11:53:09.563Z</time>
      </trkpt>
      <trkpt lat="41.32433" lon="19.79945">
        <ele>153.893568</ele>
        <time>2022-05-06T11:53:11.557Z</time>
      </trkpt>
      <trkpt lat="41.32437" lon="19.79956">
        <ele>153.684655</ele>
        <time>2022-05-06T11:53:13.543Z</time>
      </trkpt>
      <trkpt lat="41.32441" lon="19.79971">
        <ele>153.424715</ele>
        <time>2022-05-06T11:53:16.544Z</time>
      </trkpt>
      <trkpt lat="41.32445" lon="19.79983">
        <ele>153.233144</ele>
        <time>2022-05-06T11:53:18.553Z</time>
      </trkpt>
      <trkpt lat="41.3245" lon="19.79999">
        <ele>152.948856</ele>
        <time>2022-05-06T11:53:21.549Z</time>
      </trkpt>
      <trkpt lat="41.32455" lon="19.80014">
        <ele>152.685793</ele>
        <time>2022-05-06T11:53:24.535Z</time>
      </trkpt>
      <trkpt lat="41.32459" lon="19.80025">
        <ele>152.492421</ele>
        <time>2022-05-06T11:53:26.550Z</time>
      </trkpt>
      <trkpt lat="41.32464" lon="19.80038">
        <ele>152.267901</ele>
        <time>2022-05-06T11:53:28.573Z</time>
      </trkpt>
      <trkpt lat="41.32468" lon="19.80049">
        <ele>152.058592</ele>
        <time>2022-05-06T11:53:30.532Z</time>
      </trkpt>
      <trkpt lat="41.32473" lon="19.80061">
        <ele>151.853523</ele>
        <time>2022-05-06T11:53:32.532Z</time>
      </trkpt>
      <trkpt lat="41.32478" lon="19.80075">
        <ele>151.604975</ele>
        <time>2022-05-06T11:53:35.539Z</time>
      </trkpt>
      <trkpt lat="41.32481" lon="19.80089">
        <ele>151.373174</ele>
        <time>2022-05-06T11:53:39.523Z</time>
      </trkpt>
      <trkpt lat="41.32486" lon="19.80104">
        <ele>151.115185</ele>
        <time>2022-05-06T11:53:43.551Z</time>
      </trkpt>
      <trkpt lat="41.32491" lon="19.80116">
        <ele>150.895897</ele>
        <time>2022-05-06T11:53:46.552Z</time>
      </trkpt>
      <trkpt lat="41.32496" lon="19.80132">
        <ele>150.621218</ele>
        <time>2022-05-06T11:53:49.541Z</time>
      </trkpt>
      <trkpt lat="41.32502" lon="19.80148">
        <ele>150.32932</ele>
        <time>2022-05-06T11:53:52.540Z</time>
      </trkpt>
      <trkpt lat="41.32508" lon="19.80162">
        <ele>150.076793</ele>
        <time>2022-05-06T11:53:55.536Z</time>
      </trkpt>
      <trkpt lat="41.32513" lon="19.80172">
        <ele>149.877851</ele>
        <time>2022-05-06T11:53:57.547Z</time>
      </trkpt>
      <trkpt lat="41.3252" lon="19.80188">
        <ele>150.059325</ele>
        <time>2022-05-06T11:54:00.540Z</time>
      </trkpt>
      <trkpt lat="41.32523" lon="19.80201">
        <ele>150.282259</ele>
        <time>2022-05-06T11:54:03.554Z</time>
      </trkpt>
      <trkpt lat="41.32527" lon="19.80212">
        <ele>150.481989</ele>
        <time>2022-05-06T11:54:06.532Z</time>
      </trkpt>
      <trkpt lat="41.32531" lon="19.80225">
        <ele>150.712614</ele>
        <time>2022-05-06T11:54:09.551Z</time>
      </trkpt>
      <trkpt lat="41.32536" lon="19.80239">
        <ele>150.963554</ele>
        <time>2022-05-06T11:54:12.566Z</time>
      </trkpt>
      <trkpt lat="41.32541" lon="19.80254">
        <ele>151.229546</ele>
        <time>2022-05-06T11:54:15.549Z</time>
      </trkpt>
      <trkpt lat="41.32545" lon="19.80271">
        <ele>151.515312</ele>
        <time>2022-05-06T11:54:18.557Z</time>
      </trkpt>
      <trkpt lat="41.32549" lon="19.80286">
        <ele>151.784831</ele>
        <time>2022-05-06T11:54:21.542Z</time>
      </trkpt>
      <trkpt lat="41.32552" lon="19.803">
        <ele>152.022794</ele>
        <time>2022-05-06T11:54:24.550Z</time>
      </trkpt>
      <trkpt lat="41.32557" lon="19.80312">
        <ele>152.242806</ele>
        <time>2022-05-06T11:54:28.542Z</time>
      </trkpt>
      <trkpt lat="41.32559" lon="19.80324">
        <ele>152.44535</ele>
        <time>2022-05-06T11:54:33.536Z</time>
      </trkpt>
      <trkpt lat="41.32557" lon="19.80342">
        <ele>152.743382</ele>
        <time>2022-05-06T11:55:15.543Z</time>
      </trkpt>
      <trkpt lat="41.32561" lon="19.80354">
        <ele>152.955321</ele>
        <time>2022-05-06T11:55:20.540Z</time>
      </trkpt>
      <trkpt lat="41.32568" lon="19.80365">
        <ele>153.190675</ele>
        <time>2022-05-06T11:55:23.545Z</time>
      </trkpt>
      <trkpt lat="41.32573" lon="19.80376">
        <ele>153.403671</ele>
        <time>2022-05-06T11:55:26.550Z</time>
      </trkpt>
      <trkpt lat="41.32578" lon="19.8039">
        <ele>153.643894</ele>
        <time>2022-05-06T11:55:29.529Z</time>
      </trkpt>
      <trkpt lat="41.32581" lon="19.80401">
        <ele>153.730801</ele>
        <time>2022-05-06T11:55:32.526Z</time>
      </trkpt>
      <trkpt lat="41.32585" lon="19.80413">
        <ele>153.730801</ele>
        <time>2022-05-06T11:55:35.542Z</time>
      </trkpt>
      <trkpt lat="41.32589" lon="19.80425">
        <ele>153.730801</ele>
        <time>2022-05-06T11:55:38.549Z</time>
      </trkpt>
      <trkpt lat="41.32591" lon="19.80436">
        <ele>153.730801</ele>
        <time>2022-05-06T11:55:41.557Z</time>
      </trkpt>
      <trkpt lat="41.32596" lon="19.80449">
        <ele>153.730801</ele>
        <time>2022-05-06T11:55:44.535Z</time>
      </trkpt>
      <trkpt lat="41.326" lon="19.80461">
        <ele>153.730801</ele>
        <time>2022-05-06T11:55:47.543Z</time>
      </trkpt>
      <trkpt lat="41.32606" lon="19.80475">
        <ele>153.730801</ele>
        <time>2022-05-06T11:55:50.551Z</time>
      </trkpt>
      <trkpt lat="41.3261" lon="19.80486">
        <ele>153.730801</ele>
        <time>2022-05-06T11:55:53.532Z</time>
      </trkpt>
      <trkpt lat="41.32615" lon="19.80497">
        <ele>153.730801</ele>
        <time>2022-05-06T11:55:56.542Z</time>
      </trkpt>
      <trkpt lat="41.32619" lon="19.80507">
        <ele>153.730801</ele>
        <time>2022-05-06T11:55:59.561Z</time>
      </trkpt>
      <trkpt lat="41.32623" lon="19.80518">
        <ele>153.730801</ele>
        <time>2022-05-06T11:56:02.545Z</time>
      </trkpt>
      <trkpt lat="41.32623" lon="19.8053">
        <ele>153.730801</ele>
        <time>2022-05-06T11:56:05.554Z</time>
      </trkpt>
      <trkpt lat="41.32617" lon="19.8054">
        <ele>153.730801</ele>
        <time>2022-05-06T11:56:10.519Z</time>
      </trkpt>
      <trkpt lat="41.3262" lon="19.80554">
        <ele>153.730801</ele>
        <time>2022-05-06T11:56:15.558Z</time>
      </trkpt>
      <trkpt lat="41.32619" lon="19.80568">
        <ele>153.730801</ele>
        <time>2022-05-06T11:56:18.536Z</time>
      </trkpt>
      <trkpt lat="41.3262" lon="19.8058">
        <ele>153.730801</ele>
        <time>2022-05-06T11:56:22.544Z</time>
      </trkpt>
      <trkpt lat="41.32617" lon="19.80594">
        <ele>153.730801</ele>
        <time>2022-05-06T11:56:28.534Z</time>
      </trkpt>
      <trkpt lat="41.3262" lon="19.80594">
        <ele>153.730801</ele>
        <time>2022-05-06T11:57:38.908Z</time>
      </trkpt>
    </trkseg>
  </trk>
  <trk>
    <name><![CDATA[Tour d'Europe: étape 674]]></name>
    <extensions>
      <line xmlns="http://www.topografix.com/GPX/gpx_style/0/2">
        <color>880088</color>
        <width>4</width>
      </line>
    </extensions>
    <trkseg>
      <trkpt lat="41.11687" lon="20.08468">
        <ele>100.256413</ele>
        <time>2022-05-03T07:16:55.798Z</time>
      </trkpt>
      <trkpt lat="41.11685" lon="20.08448">
        <ele>100.256413</ele>
        <time>2022-05-03T07:16:56.602Z</time>
      </trkpt>
      <trkpt lat="41.1169" lon="20.08471">
        <ele>100.256413</ele>
        <time>2022-05-03T07:16:57.643Z</time>
      </trkpt>
      <trkpt lat="41.11691" lon="20.08504">
        <ele>100.256413</ele>
        <time>2022-05-03T07:17:04.651Z</time>
      </trkpt>
      <trkpt lat="41.117" lon="20.08526">
        <ele>100.256413</ele>
        <time>2022-05-03T07:17:08.652Z</time>
      </trkpt>
      <trkpt lat="41.11718" lon="20.08573">
        <ele>112.908335</ele>
        <time>2022-05-03T07:19:14.613Z</time>
      </trkpt>
      <trkpt lat="41.11734" lon="20.08586">
        <ele>121.504655</ele>
        <time>2022-05-03T07:35:09.594Z</time>
      </trkpt>
      <trkpt lat="41.11749" lon="20.08583">
        <ele>128.561012</ele>
        <time>2022-05-03T07:35:11.603Z</time>
      </trkpt>
      <trkpt lat="41.11766" lon="20.08585">
        <ele>136.433745</ele>
        <time>2022-05-03T07:35:23.648Z</time>
      </trkpt>
      <trkpt lat="41.11773" lon="20.08595">
        <ele>140.924427</ele>
        <time>2022-05-03T07:35:28.583Z</time>
      </trkpt>
      <trkpt lat="41.11779" lon="20.08605">
        <ele>145.41062</ele>
        <time>2022-05-03T07:35:32.603Z</time>
      </trkpt>
      <trkpt lat="41.11782" lon="20.08618">
        <ele>150.1993</ele>
        <time>2022-05-03T07:35:36.591Z</time>
      </trkpt>
      <trkpt lat="41.1178" lon="20.08632">
        <ele>155.109509</ele>
        <time>2022-05-03T07:35:41.580Z</time>
      </trkpt>
      <trkpt lat="41.11776" lon="20.08642">
        <ele>159.220159</ele>
        <time>2022-05-03T07:35:44.586Z</time>
      </trkpt>
      <trkpt lat="41.11768" lon="20.08653">
        <ele>164.465733</ele>
        <time>2022-05-03T07:35:48.627Z</time>
      </trkpt>
      <trkpt lat="41.11763" lon="20.08665">
        <ele>169.026245</ele>
        <time>2022-05-03T07:35:52.595Z</time>
      </trkpt>
      <trkpt lat="41.11758" lon="20.08676">
        <ele>173.613082</ele>
        <time>2022-05-03T07:35:56.591Z</time>
      </trkpt>
      <trkpt lat="41.11754" lon="20.08688">
        <ele>177.884206</ele>
        <time>2022-05-03T07:36:00.615Z</time>
      </trkpt>
      <trkpt lat="41.1175" lon="20.08699">
        <ele>182.215887</ele>
        <time>2022-05-03T07:36:05.588Z</time>
      </trkpt>
      <trkpt lat="41.1175" lon="20.08711">
        <ele>182.664981</ele>
        <time>2022-05-03T07:36:11.590Z</time>
      </trkpt>
      <trkpt lat="41.11741" lon="20.08706">
        <ele>182.824844</ele>
        <time>2022-05-03T07:36:15.586Z</time>
      </trkpt>
      <trkpt lat="41.11731" lon="20.08698">
        <ele>183.009864</ele>
        <time>2022-05-03T07:36:18.609Z</time>
      </trkpt>
      <trkpt lat="41.11722" lon="20.0869">
        <ele>183.199488</ele>
        <time>2022-05-03T07:36:22.589Z</time>
      </trkpt>
      <trkpt lat="41.11716" lon="20.08679">
        <ele>183.371094</ele>
        <time>2022-05-03T07:36:26.583Z</time>
      </trkpt>
      <trkpt lat="41.11707" lon="20.08668">
        <ele>183.567057</ele>
        <time>2022-05-03T07:36:29.584Z</time>
      </trkpt>
      <trkpt lat="41.11699" lon="20.08656">
        <ele>183.762917</ele>
        <time>2022-05-03T07:36:32.585Z</time>
      </trkpt>
      <trkpt lat="41.11691" lon="20.08652">
        <ele>183.914384</ele>
        <time>2022-05-03T07:36:35.582Z</time>
      </trkpt>
      <trkpt lat="41.11679" lon="20.08657">
        <ele>184.119704</ele>
        <time>2022-05-03T07:36:38.583Z</time>
      </trkpt>
      <trkpt lat="41.11668" lon="20.08661">
        <ele>184.301679</ele>
        <time>2022-05-03T07:36:41.597Z</time>
      </trkpt>
      <trkpt lat="41.11658" lon="20.08667">
        <ele>184.484057</ele>
        <time>2022-05-03T07:36:44.590Z</time>
      </trkpt>
      <trkpt lat="41.11648" lon="20.08674">
        <ele>184.675137</ele>
        <time>2022-05-03T07:36:47.588Z</time>
      </trkpt>
      <trkpt lat="41.11637" lon="20.08681">
        <ele>184.874712</ele>
        <time>2022-05-03T07:36:50.586Z</time>
      </trkpt>
      <trkpt lat="41.11628" lon="20.08688">
        <ele>185.047076</ele>
        <time>2022-05-03T07:36:52.586Z</time>
      </trkpt>
      <trkpt lat="41.11617" lon="20.08693">
        <ele>185.233487</ele>
        <time>2022-05-03T07:36:54.611Z</time>
      </trkpt>
      <trkpt lat="41.11608" lon="20.08697">
        <ele>185.402671</ele>
        <time>2022-05-03T07:36:56.591Z</time>
      </trkpt>
      <trkpt lat="41.11596" lon="20.08702">
        <ele>185.27205</ele>
        <time>2022-05-03T07:36:58.592Z</time>
      </trkpt>
      <trkpt lat="41.11587" lon="20.08708">
        <ele>184.943838</ele>
        <time>2022-05-03T07:37:00.619Z</time>
      </trkpt>
      <trkpt lat="41.11575" lon="20.08714">
        <ele>184.522793</ele>
        <time>2022-05-03T07:37:03.597Z</time>
      </trkpt>
      <trkpt lat="41.11566" lon="20.08717">
        <ele>184.211304</ele>
        <time>2022-05-03T07:37:05.596Z</time>
      </trkpt>
      <trkpt lat="41.11557" lon="20.0872">
        <ele>183.884847</ele>
        <time>2022-05-03T07:37:07.581Z</time>
      </trkpt>
      <trkpt lat="41.11547" lon="20.08724">
        <ele>183.536847</ele>
        <time>2022-05-03T07:37:09.590Z</time>
      </trkpt>
      <trkpt lat="41.11536" lon="20.08728">
        <ele>183.179233</ele>
        <time>2022-05-03T07:37:11.585Z</time>
      </trkpt>
      <trkpt lat="41.11527" lon="20.08734">
        <ele>182.8354</ele>
        <time>2022-05-03T07:37:14.588Z</time>
      </trkpt>
      <trkpt lat="41.11517" lon="20.08731">
        <ele>182.499595</ele>
        <time>2022-05-03T07:37:17.590Z</time>
      </trkpt>
      <trkpt lat="41.11508" lon="20.08721">
        <ele>182.107798</ele>
        <time>2022-05-03T07:37:20.582Z</time>
      </trkpt>
      <trkpt lat="41.11498" lon="20.08715">
        <ele>181.731016</ele>
        <time>2022-05-03T07:37:23.629Z</time>
      </trkpt>
      <trkpt lat="41.11487" lon="20.08707">
        <ele>181.322647</ele>
        <time>2022-05-03T07:37:26.586Z</time>
      </trkpt>
      <trkpt lat="41.11476" lon="20.08698">
        <ele>180.900622</ele>
        <time>2022-05-03T07:37:29.591Z</time>
      </trkpt>
      <trkpt lat="41.11469" lon="20.0869">
        <ele>180.578456</ele>
        <time>2022-05-03T07:37:31.585Z</time>
      </trkpt>
      <trkpt lat="41.11461" lon="20.08682">
        <ele>180.257081</ele>
        <time>2022-05-03T07:37:33.612Z</time>
      </trkpt>
      <trkpt lat="41.11452" lon="20.08676">
        <ele>179.917246</ele>
        <time>2022-05-03T07:37:35.584Z</time>
      </trkpt>
      <trkpt lat="41.11443" lon="20.0867">
        <ele>179.579765</ele>
        <time>2022-05-03T07:37:37.585Z</time>
      </trkpt>
      <trkpt lat="41.11435" lon="20.08662">
        <ele>179.635212</ele>
        <time>2022-05-03T07:37:39.582Z</time>
      </trkpt>
      <trkpt lat="41.11428" lon="20.08652">
        <ele>179.78503</ele>
        <time>2022-05-03T07:37:41.588Z</time>
      </trkpt>
      <trkpt lat="41.11423" lon="20.08641">
        <ele>179.922685</ele>
        <time>2022-05-03T07:37:43.587Z</time>
      </trkpt>
      <trkpt lat="41.1142" lon="20.08629">
        <ele>180.058897</ele>
        <time>2022-05-03T07:37:45.596Z</time>
      </trkpt>
      <trkpt lat="41.11416" lon="20.08617">
        <ele>180.196811</ele>
        <time>2022-05-03T07:37:47.592Z</time>
      </trkpt>
      <trkpt lat="41.11413" lon="20.08606">
        <ele>180.330658</ele>
        <time>2022-05-03T07:37:49.622Z</time>
      </trkpt>
      <trkpt lat="41.11408" lon="20.0859">
        <ele>180.51507</ele>
        <time>2022-05-03T07:37:52.590Z</time>
      </trkpt>
      <trkpt lat="41.11403" lon="20.08579">
        <ele>180.661506</ele>
        <time>2022-05-03T07:37:55.581Z</time>
      </trkpt>
      <trkpt lat="41.11397" lon="20.08566">
        <ele>180.822168</ele>
        <time>2022-05-03T07:37:58.587Z</time>
      </trkpt>
      <trkpt lat="41.11392" lon="20.08552">
        <ele>180.987857</ele>
        <time>2022-05-03T07:38:01.581Z</time>
      </trkpt>
      <trkpt lat="41.11388" lon="20.08539">
        <ele>181.144537</ele>
        <time>2022-05-03T07:38:06.586Z</time>
      </trkpt>
      <trkpt lat="41.11383" lon="20.08526">
        <ele>181.308554</ele>
        <time>2022-05-03T07:38:10.584Z</time>
      </trkpt>
      <trkpt lat="41.11378" lon="20.08512">
        <ele>181.475666</ele>
        <time>2022-05-03T07:38:13.590Z</time>
      </trkpt>
      <trkpt lat="41.11373" lon="20.08496">
        <ele>181.664083</ele>
        <time>2022-05-03T07:38:16.583Z</time>
      </trkpt>
      <trkpt lat="41.11367" lon="20.08481">
        <ele>181.842711</ele>
        <time>2022-05-03T07:38:19.591Z</time>
      </trkpt>
      <trkpt lat="41.11361" lon="20.08468">
        <ele>182.014778</ele>
        <time>2022-05-03T07:38:22.592Z</time>
      </trkpt>
      <trkpt lat="41.11354" lon="20.08456">
        <ele>181.91321</ele>
        <time>2022-05-03T07:38:25.598Z</time>
      </trkpt>
      <trkpt lat="41.1135" lon="20.08444">
        <ele>181.373677</ele>
        <time>2022-05-03T07:38:28.592Z</time>
      </trkpt>
      <trkpt lat="41.11346" lon="20.08433">
        <ele>180.87337</ele>
        <time>2022-05-03T07:38:31.591Z</time>
      </trkpt>
      <trkpt lat="41.11343" lon="20.0842">
        <ele>180.359984</ele>
        <time>2022-05-03T07:38:34.591Z</time>
      </trkpt>
      <trkpt lat="41.1134" lon="20.08407">
        <ele>179.798269</ele>
        <time>2022-05-03T07:38:37.589Z</time>
      </trkpt>
      <trkpt lat="41.11338" lon="20.08395">
        <ele>179.313873</ele>
        <time>2022-05-03T07:38:39.584Z</time>
      </trkpt>
      <trkpt lat="41.11335" lon="20.0838">
        <ele>178.672582</ele>
        <time>2022-05-03T07:38:42.595Z</time>
      </trkpt>
      <trkpt lat="41.11332" lon="20.08368">
        <ele>178.169731</ele>
        <time>2022-05-03T07:38:45.609Z</time>
      </trkpt>
      <trkpt lat="41.1133" lon="20.08354">
        <ele>177.590628</ele>
        <time>2022-05-03T07:38:48.586Z</time>
      </trkpt>
      <trkpt lat="41.11327" lon="20.08338">
        <ele>176.938964</ele>
        <time>2022-05-03T07:38:51.586Z</time>
      </trkpt>
      <trkpt lat="41.11323" lon="20.08321">
        <ele>176.253483</ele>
        <time>2022-05-03T07:38:54.584Z</time>
      </trkpt>
      <trkpt lat="41.11321" lon="20.0831">
        <ele>175.759301</ele>
        <time>2022-05-03T07:38:56.579Z</time>
      </trkpt>
      <trkpt lat="41.11317" lon="20.08295">
        <ele>175.138231</ele>
        <time>2022-05-03T07:38:59.594Z</time>
      </trkpt>
      <trkpt lat="41.11314" lon="20.08281">
        <ele>174.555798</ele>
        <time>2022-05-03T07:39:02.592Z</time>
      </trkpt>
      <trkpt lat="41.1131" lon="20.08268">
        <ele>174.010132</ele>
        <time>2022-05-03T07:39:05.594Z</time>
      </trkpt>
      <trkpt lat="41.11307" lon="20.08256">
        <ele>173.479505</ele>
        <time>2022-05-03T07:39:08.591Z</time>
      </trkpt>
      <trkpt lat="41.11304" lon="20.08243">
        <ele>172.959764</ele>
        <time>2022-05-03T07:39:11.605Z</time>
      </trkpt>
      <trkpt lat="41.113" lon="20.0823">
        <ele>172.617733</ele>
        <time>2022-05-03T07:39:14.591Z</time>
      </trkpt>
      <trkpt lat="41.11297" lon="20.08218">
        <ele>172.841359</ele>
        <time>2022-05-03T07:39:17.626Z</time>
      </trkpt>
      <trkpt lat="41.11293" lon="20.08205">
        <ele>173.062824</ele>
        <time>2022-05-03T07:39:20.592Z</time>
      </trkpt>
      <trkpt lat="41.11289" lon="20.08193">
        <ele>173.293714</ele>
        <time>2022-05-03T07:39:23.589Z</time>
      </trkpt>
      <trkpt lat="41.11285" lon="20.0818">
        <ele>173.522893</ele>
        <time>2022-05-03T07:39:26.588Z</time>
      </trkpt>
      <trkpt lat="41.11281" lon="20.08167">
        <ele>173.75903</ele>
        <time>2022-05-03T07:39:29.586Z</time>
      </trkpt>
      <trkpt lat="41.11277" lon="20.08154">
        <ele>173.997525</ele>
        <time>2022-05-03T07:39:32.590Z</time>
      </trkpt>
      <trkpt lat="41.11273" lon="20.08141">
        <ele>174.228253</ele>
        <time>2022-05-03T07:39:35.592Z</time>
      </trkpt>
      <trkpt lat="41.11269" lon="20.08128">
        <ele>174.456738</ele>
        <time>2022-05-03T07:39:38.590Z</time>
      </trkpt>
      <trkpt lat="41.11266" lon="20.08117">
        <ele>174.659572</ele>
        <time>2022-05-03T07:39:41.594Z</time>
      </trkpt>
      <trkpt lat="41.11263" lon="20.08106">
        <ele>174.85906</ele>
        <time>2022-05-03T07:39:44.622Z</time>
      </trkpt>
      <trkpt lat="41.11259" lon="20.08094">
        <ele>175.066763</ele>
        <time>2022-05-03T07:39:47.589Z</time>
      </trkpt>
      <trkpt lat="41.11254" lon="20.08083">
        <ele>175.276361</ele>
        <time>2022-05-03T07:39:50.586Z</time>
      </trkpt>
      <trkpt lat="41.1125" lon="20.08072">
        <ele>175.489546</ele>
        <time>2022-05-03T07:39:53.591Z</time>
      </trkpt>
      <trkpt lat="41.11247" lon="20.0806">
        <ele>175.70622</ele>
        <time>2022-05-03T07:39:56.594Z</time>
      </trkpt>
      <trkpt lat="41.11243" lon="20.08048">
        <ele>175.918826</ele>
        <time>2022-05-03T07:39:59.586Z</time>
      </trkpt>
      <trkpt lat="41.11239" lon="20.08037">
        <ele>176.130869</ele>
        <time>2022-05-03T07:40:02.585Z</time>
      </trkpt>
      <trkpt lat="41.11235" lon="20.08025">
        <ele>176.338573</ele>
        <time>2022-05-03T07:40:05.599Z</time>
      </trkpt>
      <trkpt lat="41.11231" lon="20.08011">
        <ele>176.734484</ele>
        <time>2022-05-03T07:40:09.599Z</time>
      </trkpt>
      <trkpt lat="41.11229" lon="20.07995">
        <ele>177.664515</ele>
        <time>2022-05-03T07:40:13.591Z</time>
      </trkpt>
      <trkpt lat="41.11225" lon="20.0798">
        <ele>178.619113</ele>
        <time>2022-05-03T07:40:16.588Z</time>
      </trkpt>
      <trkpt lat="41.11221" lon="20.07966">
        <ele>179.506358</ele>
        <time>2022-05-03T07:40:19.591Z</time>
      </trkpt>
      <trkpt lat="41.1122" lon="20.07953">
        <ele>180.317709</ele>
        <time>2022-05-03T07:40:22.588Z</time>
      </trkpt>
      <trkpt lat="41.11217" lon="20.07938">
        <ele>181.240597</ele>
        <time>2022-05-03T07:40:25.593Z</time>
      </trkpt>
      <trkpt lat="41.11215" lon="20.07922">
        <ele>182.199619</ele>
        <time>2022-05-03T07:40:28.591Z</time>
      </trkpt>
      <trkpt lat="41.11211" lon="20.07907">
        <ele>183.1456</ele>
        <time>2022-05-03T07:40:31.590Z</time>
      </trkpt>
      <trkpt lat="41.11208" lon="20.07892">
        <ele>184.05848</ele>
        <time>2022-05-03T07:40:34.603Z</time>
      </trkpt>
      <trkpt lat="41.11203" lon="20.07881">
        <ele>184.835623</ele>
        <time>2022-05-03T07:40:37.587Z</time>
      </trkpt>
      <trkpt lat="41.11199" lon="20.0787">
        <ele>185.585668</ele>
        <time>2022-05-03T07:40:40.587Z</time>
      </trkpt>
      <trkpt lat="41.11199" lon="20.07855">
        <ele>186.454109</ele>
        <time>2022-05-03T07:40:43.589Z</time>
      </trkpt>
      <trkpt lat="41.11197" lon="20.07841">
        <ele>187.289096</ele>
        <time>2022-05-03T07:40:47.590Z</time>
      </trkpt>
      <trkpt lat="41.11197" lon="20.07829">
        <ele>188.013793</ele>
        <time>2022-05-03T07:40:50.584Z</time>
      </trkpt>
      <trkpt lat="41.11197" lon="20.07817">
        <ele>188.744073</ele>
        <time>2022-05-03T07:40:53.585Z</time>
      </trkpt>
      <trkpt lat="41.11199" lon="20.07805">
        <ele>189.457525</ele>
        <time>2022-05-03T07:40:57.593Z</time>
      </trkpt>
      <trkpt lat="41.11202" lon="20.07793">
        <ele>190.244554</ele>
        <time>2022-05-03T07:41:01.590Z</time>
      </trkpt>
      <trkpt lat="41.11205" lon="20.07777">
        <ele>190.951659</ele>
        <time>2022-05-03T07:41:05.592Z</time>
      </trkpt>
      <trkpt lat="41.11206" lon="20.07766">
        <ele>191.206942</ele>
        <time>2022-05-03T07:41:08.590Z</time>
      </trkpt>
      <trkpt lat="41.11206" lon="20.07752">
        <ele>191.490975</ele>
        <time>2022-05-03T07:41:11.588Z</time>
      </trkpt>
      <trkpt lat="41.11208" lon="20.07737">
        <ele>191.80873</ele>
        <time>2022-05-03T07:41:14.592Z</time>
      </trkpt>
      <trkpt lat="41.1121" lon="20.07721">
        <ele>192.164913</ele>
        <time>2022-05-03T07:41:17.592Z</time>
      </trkpt>
      <trkpt lat="41.1121" lon="20.07705">
        <ele>192.504146</ele>
        <time>2022-05-03T07:41:19.596Z</time>
      </trkpt>
      <trkpt lat="41.1121" lon="20.0769">
        <ele>192.820272</ele>
        <time>2022-05-03T07:41:21.634Z</time>
      </trkpt>
      <trkpt lat="41.11211" lon="20.07677">
        <ele>193.102082</ele>
        <time>2022-05-03T07:41:23.596Z</time>
      </trkpt>
      <trkpt lat="41.11213" lon="20.07665">
        <ele>193.359071</ele>
        <time>2022-05-03T07:41:25.584Z</time>
      </trkpt>
      <trkpt lat="41.11215" lon="20.07647">
        <ele>193.739302</ele>
        <time>2022-05-03T07:41:28.593Z</time>
      </trkpt>
      <trkpt lat="41.11216" lon="20.07635">
        <ele>194.006898</ele>
        <time>2022-05-03T07:41:30.592Z</time>
      </trkpt>
      <trkpt lat="41.11216" lon="20.07622">
        <ele>194.274908</ele>
        <time>2022-05-03T07:41:32.591Z</time>
      </trkpt>
      <trkpt lat="41.11219" lon="20.0761">
        <ele>194.531897</ele>
        <time>2022-05-03T07:41:34.585Z</time>
      </trkpt>
      <trkpt lat="41.11221" lon="20.07598">
        <ele>194.804627</ele>
        <time>2022-05-03T07:41:36.586Z</time>
      </trkpt>
      <trkpt lat="41.11223" lon="20.07586">
        <ele>195.065733</ele>
        <time>2022-05-03T07:41:38.591Z</time>
      </trkpt>
      <trkpt lat="41.11227" lon="20.07568">
        <ele>195.446039</ele>
        <time>2022-05-03T07:41:41.593Z</time>
      </trkpt>
      <trkpt lat="41.11229" lon="20.07557">
        <ele>195.704464</ele>
        <time>2022-05-03T07:41:43.588Z</time>
      </trkpt>
      <trkpt lat="41.11231" lon="20.07543">
        <ele>195.658488</ele>
        <time>2022-05-03T07:41:45.593Z</time>
      </trkpt>
      <trkpt lat="41.11234" lon="20.07531">
        <ele>195.102294</ele>
        <time>2022-05-03T07:41:47.595Z</time>
      </trkpt>
      <trkpt lat="41.11237" lon="20.07518">
        <ele>194.555626</ele>
        <time>2022-05-03T07:41:49.592Z</time>
      </trkpt>
      <trkpt lat="41.11239" lon="20.07506">
        <ele>194.033496</ele>
        <time>2022-05-03T07:41:51.589Z</time>
      </trkpt>
      <trkpt lat="41.11239" lon="20.07494">
        <ele>193.518793</ele>
        <time>2022-05-03T07:41:53.597Z</time>
      </trkpt>
      <trkpt lat="41.1124" lon="20.07482">
        <ele>193.004393</ele>
        <time>2022-05-03T07:41:55.663Z</time>
      </trkpt>
      <trkpt lat="41.11244" lon="20.07465">
        <ele>192.27314</ele>
        <time>2022-05-03T07:41:58.614Z</time>
      </trkpt>
      <trkpt lat="41.1125" lon="20.0745">
        <ele>191.568637</ele>
        <time>2022-05-03T07:42:01.592Z</time>
      </trkpt>
      <trkpt lat="41.11258" lon="20.0744">
        <ele>190.921902</ele>
        <time>2022-05-03T07:42:04.583Z</time>
      </trkpt>
      <trkpt lat="41.11268" lon="20.07432">
        <ele>190.261741</ele>
        <time>2022-05-03T07:42:07.589Z</time>
      </trkpt>
      <trkpt lat="41.11275" lon="20.07422">
        <ele>189.680818</ele>
        <time>2022-05-03T07:42:10.592Z</time>
      </trkpt>
      <trkpt lat="41.11278" lon="20.07409">
        <ele>189.134152</ele>
        <time>2022-05-03T07:42:13.600Z</time>
      </trkpt>
      <trkpt lat="41.11279" lon="20.07396">
        <ele>188.5638</ele>
        <time>2022-05-03T07:42:16.584Z</time>
      </trkpt>
      <trkpt lat="41.11279" lon="20.07383">
        <ele>188.036468</ele>
        <time>2022-05-03T07:42:19.588Z</time>
      </trkpt>
      <trkpt lat="41.1128" lon="20.0737">
        <ele>187.484439</ele>
        <time>2022-05-03T07:42:24.588Z</time>
      </trkpt>
      <trkpt lat="41.11282" lon="20.07358">
        <ele>186.940408</ele>
        <time>2022-05-03T07:42:28.589Z</time>
      </trkpt>
      <trkpt lat="41.11286" lon="20.07345">
        <ele>186.364542</ele>
        <time>2022-05-03T07:42:32.640Z</time>
      </trkpt>
      <trkpt lat="41.1129" lon="20.07333">
        <ele>185.815916</ele>
        <time>2022-05-03T07:42:35.592Z</time>
      </trkpt>
      <trkpt lat="41.11294" lon="20.07318">
        <ele>185.700232</ele>
        <time>2022-05-03T07:42:38.587Z</time>
      </trkpt>
      <trkpt lat="41.11301" lon="20.07306">
        <ele>185.594292</ele>
        <time>2022-05-03T07:42:41.595Z</time>
      </trkpt>
      <trkpt lat="41.11308" lon="20.07294">
        <ele>185.483838</ele>
        <time>2022-05-03T07:42:44.587Z</time>
      </trkpt>
      <trkpt lat="41.11314" lon="20.07282">
        <ele>185.381422</ele>
        <time>2022-05-03T07:42:47.586Z</time>
      </trkpt>
      <trkpt lat="41.1132" lon="20.07271">
        <ele>185.281317</ele>
        <time>2022-05-03T07:42:50.591Z</time>
      </trkpt>
      <trkpt lat="41.11326" lon="20.07259">
        <ele>185.180761</ele>
        <time>2022-05-03T07:42:53.591Z</time>
      </trkpt>
      <trkpt lat="41.11329" lon="20.07243">
        <ele>185.063163</ele>
        <time>2022-05-03T07:42:56.594Z</time>
      </trkpt>
      <trkpt lat="41.1133" lon="20.07226">
        <ele>184.939879</ele>
        <time>2022-05-03T07:42:59.592Z</time>
      </trkpt>
      <trkpt lat="41.11333" lon="20.0721">
        <ele>184.815245</ele>
        <time>2022-05-03T07:43:02.588Z</time>
      </trkpt>
      <trkpt lat="41.11337" lon="20.07193">
        <ele>184.69298</ele>
        <time>2022-05-03T07:43:05.592Z</time>
      </trkpt>
      <trkpt lat="41.11339" lon="20.07181">
        <ele>184.604265</ele>
        <time>2022-05-03T07:43:07.588Z</time>
      </trkpt>
      <trkpt lat="41.11342" lon="20.0717">
        <ele>184.51653</ele>
        <time>2022-05-03T07:43:09.590Z</time>
      </trkpt>
      <trkpt lat="41.11345" lon="20.07158">
        <ele>184.426735</ele>
        <time>2022-05-03T07:43:11.627Z</time>
      </trkpt>
      <trkpt lat="41.11348" lon="20.07145">
        <ele>184.326048</ele>
        <time>2022-05-03T07:43:13.592Z</time>
      </trkpt>
      <trkpt lat="41.11352" lon="20.07131">
        <ele>184.22117</ele>
        <time>2022-05-03T07:43:15.591Z</time>
      </trkpt>
      <trkpt lat="41.11355" lon="20.07117">
        <ele>184.116663</ele>
        <time>2022-05-03T07:43:17.590Z</time>
      </trkpt>
      <trkpt lat="41.11358" lon="20.07104">
        <ele>183.930628</ele>
        <time>2022-05-03T07:43:19.584Z</time>
      </trkpt>
      <trkpt lat="41.11362" lon="20.07092">
        <ele>183.716399</ele>
        <time>2022-05-03T07:43:21.583Z</time>
      </trkpt>
      <trkpt lat="41.11366" lon="20.0708">
        <ele>183.521969</ele>
        <time>2022-05-03T07:43:23.589Z</time>
      </trkpt>
      <trkpt lat="41.1137" lon="20.07064">
        <ele>183.255426</ele>
        <time>2022-05-03T07:43:26.594Z</time>
      </trkpt>
      <trkpt lat="41.11376" lon="20.07048">
        <ele>182.983768</ele>
        <time>2022-05-03T07:43:29.588Z</time>
      </trkpt>
      <trkpt lat="41.11381" lon="20.07038">
        <ele>182.79045</ele>
        <time>2022-05-03T07:43:31.588Z</time>
      </trkpt>
      <trkpt lat="41.11385" lon="20.07027">
        <ele>182.594816</ele>
        <time>2022-05-03T07:43:33.594Z</time>
      </trkpt>
      <trkpt lat="41.11389" lon="20.07014">
        <ele>182.375484</ele>
        <time>2022-05-03T07:43:35.588Z</time>
      </trkpt>
      <trkpt lat="41.11394" lon="20.07">
        <ele>182.150241</ele>
        <time>2022-05-03T07:43:37.591Z</time>
      </trkpt>
      <trkpt lat="41.11397" lon="20.06986">
        <ele>181.923142</ele>
        <time>2022-05-03T07:43:39.589Z</time>
      </trkpt>
      <trkpt lat="41.11398" lon="20.06971">
        <ele>181.691248</ele>
        <time>2022-05-03T07:43:41.591Z</time>
      </trkpt>
      <trkpt lat="41.11399" lon="20.06955">
        <ele>181.432233</ele>
        <time>2022-05-03T07:43:43.591Z</time>
      </trkpt>
      <trkpt lat="41.11399" lon="20.06938">
        <ele>181.175434</ele>
        <time>2022-05-03T07:43:45.591Z</time>
      </trkpt>
      <trkpt lat="41.11398" lon="20.06923">
        <ele>180.934688</ele>
        <time>2022-05-03T07:43:47.589Z</time>
      </trkpt>
      <trkpt lat="41.11395" lon="20.06906">
        <ele>180.661668</ele>
        <time>2022-05-03T07:43:49.590Z</time>
      </trkpt>
      <trkpt lat="41.11393" lon="20.06889">
        <ele>180.389047</ele>
        <time>2022-05-03T07:43:51.586Z</time>
      </trkpt>
      <trkpt lat="41.1139" lon="20.06872">
        <ele>180.293244</ele>
        <time>2022-05-03T07:43:53.591Z</time>
      </trkpt>
      <trkpt lat="41.11387" lon="20.06856">
        <ele>180.207756</ele>
        <time>2022-05-03T07:43:55.590Z</time>
      </trkpt>
      <trkpt lat="41.11383" lon="20.0684">
        <ele>180.117904</ele>
        <time>2022-05-03T07:43:57.592Z</time>
      </trkpt>
      <trkpt lat="41.1138" lon="20.06824">
        <ele>180.031364</ele>
        <time>2022-05-03T07:43:59.581Z</time>
      </trkpt>
      <trkpt lat="41.1138" lon="20.06807">
        <ele>179.941099</ele>
        <time>2022-05-03T07:44:01.582Z</time>
      </trkpt>
      <trkpt lat="41.11382" lon="20.06789">
        <ele>179.846485</ele>
        <time>2022-05-03T07:44:03.587Z</time>
      </trkpt>
      <trkpt lat="41.11385" lon="20.06773">
        <ele>179.757224</ele>
        <time>2022-05-03T07:44:05.588Z</time>
      </trkpt>
      <trkpt lat="41.11393" lon="20.06758">
        <ele>179.663279</ele>
        <time>2022-05-03T07:44:07.588Z</time>
      </trkpt>
      <trkpt lat="41.11401" lon="20.06743">
        <ele>179.564215</ele>
        <time>2022-05-03T07:44:09.587Z</time>
      </trkpt>
      <trkpt lat="41.11408" lon="20.0673">
        <ele>179.477797</ele>
        <time>2022-05-03T07:44:11.586Z</time>
      </trkpt>
      <trkpt lat="41.11415" lon="20.06716">
        <ele>179.392181</ele>
        <time>2022-05-03T07:44:14.592Z</time>
      </trkpt>
      <trkpt lat="41.11422" lon="20.06704">
        <ele>179.314588</ele>
        <time>2022-05-03T07:44:17.580Z</time>
      </trkpt>
      <trkpt lat="41.11428" lon="20.06692">
        <ele>179.236479</ele>
        <time>2022-05-03T07:44:20.591Z</time>
      </trkpt>
      <trkpt lat="41.11431" lon="20.06677">
        <ele>179.156116</ele>
        <time>2022-05-03T07:44:23.592Z</time>
      </trkpt>
      <trkpt lat="41.11434" lon="20.0666">
        <ele>178.76289</ele>
        <time>2022-05-03T07:44:26.583Z</time>
      </trkpt>
      <trkpt lat="41.11435" lon="20.06647">
        <ele>178.346956</ele>
        <time>2022-05-03T07:44:28.588Z</time>
      </trkpt>
      <trkpt lat="41.11436" lon="20.06634">
        <ele>177.943135</ele>
        <time>2022-05-03T07:44:30.589Z</time>
      </trkpt>
      <trkpt lat="41.11436" lon="20.06621">
        <ele>177.535099</ele>
        <time>2022-05-03T07:44:32.590Z</time>
      </trkpt>
      <trkpt lat="41.11437" lon="20.06608">
        <ele>177.107332</ele>
        <time>2022-05-03T07:44:34.582Z</time>
      </trkpt>
      <trkpt lat="41.11438" lon="20.06594">
        <ele>176.685863</ele>
        <time>2022-05-03T07:44:36.580Z</time>
      </trkpt>
      <trkpt lat="41.11438" lon="20.06582">
        <ele>176.297229</ele>
        <time>2022-05-03T07:44:38.582Z</time>
      </trkpt>
      <trkpt lat="41.11438" lon="20.06569">
        <ele>175.892349</ele>
        <time>2022-05-03T07:44:40.587Z</time>
      </trkpt>
      <trkpt lat="41.11437" lon="20.06555">
        <ele>175.449607</ele>
        <time>2022-05-03T07:44:42.582Z</time>
      </trkpt>
      <trkpt lat="41.11437" lon="20.06542">
        <ele>175.029454</ele>
        <time>2022-05-03T07:44:44.579Z</time>
      </trkpt>
      <trkpt lat="41.11437" lon="20.06529">
        <ele>174.628254</ele>
        <time>2022-05-03T07:44:46.581Z</time>
      </trkpt>
      <trkpt lat="41.11436" lon="20.06517">
        <ele>174.245288</ele>
        <time>2022-05-03T07:44:48.584Z</time>
      </trkpt>
      <trkpt lat="41.11433" lon="20.06504">
        <ele>173.826536</ele>
        <time>2022-05-03T07:44:50.588Z</time>
      </trkpt>
      <trkpt lat="41.1143" lon="20.06492">
        <ele>173.407335</ele>
        <time>2022-05-03T07:44:52.596Z</time>
      </trkpt>
      <trkpt lat="41.11427" lon="20.06479">
        <ele>172.974219</ele>
        <time>2022-05-03T07:44:54.586Z</time>
      </trkpt>
      <trkpt lat="41.11423" lon="20.06466">
        <ele>172.545486</ele>
        <time>2022-05-03T07:44:56.610Z</time>
      </trkpt>
      <trkpt lat="41.1142" lon="20.06452">
        <ele>172.100871</ele>
        <time>2022-05-03T07:44:58.586Z</time>
      </trkpt>
      <trkpt lat="41.11417" lon="20.06438">
        <ele>171.633575</ele>
        <time>2022-05-03T07:45:00.595Z</time>
      </trkpt>
      <trkpt lat="41.11412" lon="20.06425">
        <ele>171.173824</ele>
        <time>2022-05-03T07:45:02.604Z</time>
      </trkpt>
      <trkpt lat="41.11408" lon="20.06411">
        <ele>170.717563</ele>
        <time>2022-05-03T07:45:04.597Z</time>
      </trkpt>
      <trkpt lat="41.11403" lon="20.06397">
        <ele>170.246927</ele>
        <time>2022-05-03T07:45:06.582Z</time>
      </trkpt>
      <trkpt lat="41.11399" lon="20.06382">
        <ele>169.77468</ele>
        <time>2022-05-03T07:45:08.619Z</time>
      </trkpt>
      <trkpt lat="41.11394" lon="20.06369">
        <ele>169.318416</ele>
        <time>2022-05-03T07:45:10.584Z</time>
      </trkpt>
      <trkpt lat="41.11389" lon="20.06356">
        <ele>168.875817</ele>
        <time>2022-05-03T07:45:12.598Z</time>
      </trkpt>
      <trkpt lat="41.11385" lon="20.06342">
        <ele>168.418299</ele>
        <time>2022-05-03T07:45:14.614Z</time>
      </trkpt>
      <trkpt lat="41.1138" lon="20.06328">
        <ele>167.94081</ele>
        <time>2022-05-03T07:45:16.581Z</time>
      </trkpt>
      <trkpt lat="41.11375" lon="20.06313">
        <ele>167.446164</ele>
        <time>2022-05-03T07:45:18.584Z</time>
      </trkpt>
      <trkpt lat="41.11371" lon="20.06298">
        <ele>166.965538</ele>
        <time>2022-05-03T07:45:20.578Z</time>
      </trkpt>
      <trkpt lat="41.11366" lon="20.06284">
        <ele>166.506064</ele>
        <time>2022-05-03T07:45:22.584Z</time>
      </trkpt>
      <trkpt lat="41.11362" lon="20.0627">
        <ele>166.051359</ele>
        <time>2022-05-03T07:45:24.582Z</time>
      </trkpt>
      <trkpt lat="41.11358" lon="20.06257">
        <ele>165.609453</ele>
        <time>2022-05-03T07:45:26.613Z</time>
      </trkpt>
      <trkpt lat="41.11353" lon="20.06245">
        <ele>165.199344</ele>
        <time>2022-05-03T07:45:28.586Z</time>
      </trkpt>
      <trkpt lat="41.11349" lon="20.06229">
        <ele>164.684971</ele>
        <time>2022-05-03T07:45:31.587Z</time>
      </trkpt>
      <trkpt lat="41.11344" lon="20.06215">
        <ele>164.305278</ele>
        <time>2022-05-03T07:45:34.588Z</time>
      </trkpt>
      <trkpt lat="41.11339" lon="20.062">
        <ele>164.271806</ele>
        <time>2022-05-03T07:45:37.584Z</time>
      </trkpt>
      <trkpt lat="41.11334" lon="20.06187">
        <ele>164.240998</ele>
        <time>2022-05-03T07:45:40.587Z</time>
      </trkpt>
      <trkpt lat="41.11328" lon="20.06174">
        <ele>164.21021</ele>
        <time>2022-05-03T07:45:43.596Z</time>
      </trkpt>
      <trkpt lat="41.11322" lon="20.06162">
        <ele>164.180065</ele>
        <time>2022-05-03T07:45:46.584Z</time>
      </trkpt>
      <trkpt lat="41.11316" lon="20.06149">
        <ele>164.147561</ele>
        <time>2022-05-03T07:45:49.598Z</time>
      </trkpt>
      <trkpt lat="41.11309" lon="20.06138">
        <ele>164.116726</ele>
        <time>2022-05-03T07:45:52.582Z</time>
      </trkpt>
      <trkpt lat="41.11301" lon="20.06127">
        <ele>164.085677</ele>
        <time>2022-05-03T07:45:55.580Z</time>
      </trkpt>
      <trkpt lat="41.11293" lon="20.06114">
        <ele>164.050808</ele>
        <time>2022-05-03T07:45:58.591Z</time>
      </trkpt>
      <trkpt lat="41.11284" lon="20.061">
        <ele>164.01351</ele>
        <time>2022-05-03T07:46:01.587Z</time>
      </trkpt>
      <trkpt lat="41.11278" lon="20.06091">
        <ele>163.988752</ele>
        <time>2022-05-03T07:46:03.586Z</time>
      </trkpt>
      <trkpt lat="41.11272" lon="20.06081">
        <ele>163.961897</ele>
        <time>2022-05-03T07:46:05.587Z</time>
      </trkpt>
      <trkpt lat="41.11266" lon="20.06071">
        <ele>163.934211</ele>
        <time>2022-05-03T07:46:07.585Z</time>
      </trkpt>
      <trkpt lat="41.11259" lon="20.06059">
        <ele>163.904695</ele>
        <time>2022-05-03T07:46:09.593Z</time>
      </trkpt>
      <trkpt lat="41.11253" lon="20.06047">
        <ele>163.874191</ele>
        <time>2022-05-03T07:46:11.589Z</time>
      </trkpt>
      <trkpt lat="41.11246" lon="20.06037">
        <ele>163.8446</ele>
        <time>2022-05-03T07:46:13.586Z</time>
      </trkpt>
      <trkpt lat="41.11239" lon="20.06024">
        <ele>163.805054</ele>
        <time>2022-05-03T07:46:15.583Z</time>
      </trkpt>
      <trkpt lat="41.11232" lon="20.06013">
        <ele>163.696506</ele>
        <time>2022-05-03T07:46:17.605Z</time>
      </trkpt>
      <trkpt lat="41.11224" lon="20.06002">
        <ele>163.581973</ele>
        <time>2022-05-03T07:46:19.583Z</time>
      </trkpt>
      <trkpt lat="41.11216" lon="20.05991">
        <ele>163.466076</ele>
        <time>2022-05-03T07:46:21.591Z</time>
      </trkpt>
      <trkpt lat="41.11208" lon="20.05981">
        <ele>163.357964</ele>
        <time>2022-05-03T07:46:23.592Z</time>
      </trkpt>
      <trkpt lat="41.112" lon="20.05972">
        <ele>163.258673</ele>
        <time>2022-05-03T07:46:25.583Z</time>
      </trkpt>
      <trkpt lat="41.11192" lon="20.05962">
        <ele>163.156834</ele>
        <time>2022-05-03T07:46:27.613Z</time>
      </trkpt>
      <trkpt lat="41.11185" lon="20.05951">
        <ele>163.045896</ele>
        <time>2022-05-03T07:46:29.582Z</time>
      </trkpt>
      <trkpt lat="41.11179" lon="20.05938">
        <ele>162.932796</ele>
        <time>2022-05-03T07:46:31.590Z</time>
      </trkpt>
      <trkpt lat="41.11174" lon="20.05923">
        <ele>162.810151</ele>
        <time>2022-05-03T07:46:33.581Z</time>
      </trkpt>
      <trkpt lat="41.11169" lon="20.05906">
        <ele>162.678973</ele>
        <time>2022-05-03T07:46:35.590Z</time>
      </trkpt>
      <trkpt lat="41.11166" lon="20.05888">
        <ele>162.545629</ele>
        <time>2022-05-03T07:46:37.583Z</time>
      </trkpt>
      <trkpt lat="41.11164" lon="20.05871">
        <ele>162.415048</ele>
        <time>2022-05-03T07:46:39.583Z</time>
      </trkpt>
      <trkpt lat="41.11162" lon="20.05854">
        <ele>162.288522</ele>
        <time>2022-05-03T07:46:41.593Z</time>
      </trkpt>
      <trkpt lat="41.1116" lon="20.05838">
        <ele>162.170325</ele>
        <time>2022-05-03T07:46:43.612Z</time>
      </trkpt>
      <trkpt lat="41.11158" lon="20.05822">
        <ele>162.054479</ele>
        <time>2022-05-03T07:46:45.592Z</time>
      </trkpt>
      <trkpt lat="41.11157" lon="20.05807">
        <ele>162.020085</ele>
        <time>2022-05-03T07:46:47.587Z</time>
      </trkpt>
      <trkpt lat="41.11156" lon="20.05791">
        <ele>161.985444</ele>
        <time>2022-05-03T07:46:49.593Z</time>
      </trkpt>
      <trkpt lat="41.11154" lon="20.05776">
        <ele>161.952033</ele>
        <time>2022-05-03T07:46:51.593Z</time>
      </trkpt>
      <trkpt lat="41.11152" lon="20.05762">
        <ele>161.920071</ele>
        <time>2022-05-03T07:46:53.587Z</time>
      </trkpt>
      <trkpt lat="41.11151" lon="20.05748">
        <ele>161.889504</ele>
        <time>2022-05-03T07:46:55.616Z</time>
      </trkpt>
      <trkpt lat="41.1115" lon="20.05734">
        <ele>161.856594</ele>
        <time>2022-05-03T07:46:57.592Z</time>
      </trkpt>
      <trkpt lat="41.11148" lon="20.05718">
        <ele>161.822576</ele>
        <time>2022-05-03T07:46:59.594Z</time>
      </trkpt>
      <trkpt lat="41.11146" lon="20.05702">
        <ele>161.785716</ele>
        <time>2022-05-03T07:47:01.587Z</time>
      </trkpt>
      <trkpt lat="41.11145" lon="20.05685">
        <ele>161.747552</ele>
        <time>2022-05-03T07:47:03.582Z</time>
      </trkpt>
      <trkpt lat="41.11144" lon="20.05668">
        <ele>161.70927</ele>
        <time>2022-05-03T07:47:05.606Z</time>
      </trkpt>
      <trkpt lat="41.11142" lon="20.0565">
        <ele>161.669732</ele>
        <time>2022-05-03T07:47:07.590Z</time>
      </trkpt>
      <trkpt lat="41.11143" lon="20.05632">
        <ele>161.631479</ele>
        <time>2022-05-03T07:47:09.582Z</time>
      </trkpt>
      <trkpt lat="41.11144" lon="20.05617">
        <ele>161.597367</ele>
        <time>2022-05-03T07:47:11.591Z</time>
      </trkpt>
      <trkpt lat="41.11147" lon="20.05603">
        <ele>161.563985</ele>
        <time>2022-05-03T07:47:13.586Z</time>
      </trkpt>
      <trkpt lat="41.1115" lon="20.05589">
        <ele>161.532274</ele>
        <time>2022-05-03T07:47:15.583Z</time>
      </trkpt>
      <trkpt lat="41.11153" lon="20.05576">
        <ele>161.705975</ele>
        <time>2022-05-03T07:47:17.588Z</time>
      </trkpt>
      <trkpt lat="41.11156" lon="20.05561">
        <ele>161.962004</ele>
        <time>2022-05-03T07:47:20.594Z</time>
      </trkpt>
      <trkpt lat="41.11159" lon="20.05546">
        <ele>162.206013</ele>
        <time>2022-05-03T07:47:23.593Z</time>
      </trkpt>
      <trkpt lat="41.11161" lon="20.05531">
        <ele>162.460876</ele>
        <time>2022-05-03T07:47:26.586Z</time>
      </trkpt>
      <trkpt lat="41.11164" lon="20.05515">
        <ele>162.717784</ele>
        <time>2022-05-03T07:47:29.608Z</time>
      </trkpt>
      <trkpt lat="41.11165" lon="20.055">
        <ele>162.955135</ele>
        <time>2022-05-03T07:47:32.590Z</time>
      </trkpt>
      <trkpt lat="41.11167" lon="20.05485">
        <ele>163.210078</ele>
        <time>2022-05-03T07:47:35.611Z</time>
      </trkpt>
      <trkpt lat="41.11169" lon="20.0547">
        <ele>163.452846</ele>
        <time>2022-05-03T07:47:38.585Z</time>
      </trkpt>
      <trkpt lat="41.11171" lon="20.05455">
        <ele>163.686829</ele>
        <time>2022-05-03T07:47:41.585Z</time>
      </trkpt>
      <trkpt lat="41.11174" lon="20.05442">
        <ele>163.91204</ele>
        <time>2022-05-03T07:47:44.581Z</time>
      </trkpt>
      <trkpt lat="41.11176" lon="20.05429">
        <ele>164.12639</ele>
        <time>2022-05-03T07:47:47.604Z</time>
      </trkpt>
      <trkpt lat="41.11178" lon="20.05416">
        <ele>164.333396</ele>
        <time>2022-05-03T07:47:50.582Z</time>
      </trkpt>
      <trkpt lat="41.1118" lon="20.05404">
        <ele>164.533133</ele>
        <time>2022-05-03T07:47:53.602Z</time>
      </trkpt>
      <trkpt lat="41.11183" lon="20.05392">
        <ele>164.739168</ele>
        <time>2022-05-03T07:47:56.584Z</time>
      </trkpt>
      <trkpt lat="41.11184" lon="20.05379">
        <ele>164.942473</ele>
        <time>2022-05-03T07:47:59.590Z</time>
      </trkpt>
      <trkpt lat="41.11185" lon="20.05367">
        <ele>165.139484</ele>
        <time>2022-05-03T07:48:02.587Z</time>
      </trkpt>
      <trkpt lat="41.11184" lon="20.05351">
        <ele>165.364847</ele>
        <time>2022-05-03T07:48:06.585Z</time>
      </trkpt>
      <trkpt lat="41.11182" lon="20.05337">
        <ele>165.3455</ele>
        <time>2022-05-03T07:48:09.583Z</time>
      </trkpt>
      <trkpt lat="41.11179" lon="20.05325">
        <ele>165.325839</ele>
        <time>2022-05-03T07:48:12.593Z</time>
      </trkpt>
      <trkpt lat="41.11175" lon="20.0531">
        <ele>165.304159</ele>
        <time>2022-05-03T07:48:15.607Z</time>
      </trkpt>
      <trkpt lat="41.1117" lon="20.05296">
        <ele>165.281242</ele>
        <time>2022-05-03T07:48:18.618Z</time>
      </trkpt>
      <trkpt lat="41.11164" lon="20.0528">
        <ele>165.256259</ele>
        <time>2022-05-03T07:48:21.596Z</time>
      </trkpt>
      <trkpt lat="41.1116" lon="20.05269">
        <ele>165.238033</ele>
        <time>2022-05-03T07:48:23.624Z</time>
      </trkpt>
      <trkpt lat="41.11155" lon="20.05258">
        <ele>165.219371</ele>
        <time>2022-05-03T07:48:25.604Z</time>
      </trkpt>
      <trkpt lat="41.1115" lon="20.05248">
        <ele>165.202312</ele>
        <time>2022-05-03T07:48:27.615Z</time>
      </trkpt>
      <trkpt lat="41.11143" lon="20.05233">
        <ele>165.176846</ele>
        <time>2022-05-03T07:48:30.606Z</time>
      </trkpt>
      <trkpt lat="41.11136" lon="20.05218">
        <ele>165.151685</ele>
        <time>2022-05-03T07:48:33.639Z</time>
      </trkpt>
      <trkpt lat="41.11132" lon="20.05207">
        <ele>165.133686</ele>
        <time>2022-05-03T07:48:35.649Z</time>
      </trkpt>
      <trkpt lat="41.11128" lon="20.05195">
        <ele>165.115253</ele>
        <time>2022-05-03T07:48:37.604Z</time>
      </trkpt>
      <trkpt lat="41.11124" lon="20.05183">
        <ele>165.095824</ele>
        <time>2022-05-03T07:48:39.608Z</time>
      </trkpt>
      <trkpt lat="41.11119" lon="20.0517">
        <ele>165.075793</ele>
        <time>2022-05-03T07:48:41.623Z</time>
      </trkpt>
      <trkpt lat="41.11115" lon="20.05158">
        <ele>165.055893</ele>
        <time>2022-05-03T07:48:43.613Z</time>
      </trkpt>
      <trkpt lat="41.11112" lon="20.05144">
        <ele>165.035368</ele>
        <time>2022-05-03T07:48:45.603Z</time>
      </trkpt>
      <trkpt lat="41.1111" lon="20.0513">
        <ele>164.743101</ele>
        <time>2022-05-03T07:48:47.687Z</time>
      </trkpt>
      <trkpt lat="41.11109" lon="20.05117">
        <ele>164.1451</ele>
        <time>2022-05-03T07:48:49.603Z</time>
      </trkpt>
      <trkpt lat="41.11107" lon="20.05104">
        <ele>163.569227</ele>
        <time>2022-05-03T07:48:51.601Z</time>
      </trkpt>
      <trkpt lat="41.11102" lon="20.05093">
        <ele>163.008323</ele>
        <time>2022-05-03T07:48:53.608Z</time>
      </trkpt>
      <trkpt lat="41.11095" lon="20.05084">
        <ele>162.445213</ele>
        <time>2022-05-03T07:48:55.620Z</time>
      </trkpt>
      <trkpt lat="41.11088" lon="20.05074">
        <ele>161.849043</ele>
        <time>2022-05-03T07:48:57.640Z</time>
      </trkpt>
      <trkpt lat="41.11079" lon="20.05067">
        <ele>161.251195</ele>
        <time>2022-05-03T07:48:59.603Z</time>
      </trkpt>
      <trkpt lat="41.11069" lon="20.05062">
        <ele>160.620768</ele>
        <time>2022-05-03T07:49:01.598Z</time>
      </trkpt>
      <trkpt lat="41.11058" lon="20.05058">
        <ele>159.960057</ele>
        <time>2022-05-03T07:49:03.662Z</time>
      </trkpt>
      <trkpt lat="41.11047" lon="20.05055">
        <ele>159.320892</ele>
        <time>2022-05-03T07:49:05.603Z</time>
      </trkpt>
      <trkpt lat="41.11036" lon="20.05056">
        <ele>158.681906</ele>
        <time>2022-05-03T07:49:07.603Z</time>
      </trkpt>
      <trkpt lat="41.11024" lon="20.05057">
        <ele>157.995382</ele>
        <time>2022-05-03T07:49:09.586Z</time>
      </trkpt>
      <trkpt lat="41.11012" lon="20.05058">
        <ele>157.290264</ele>
        <time>2022-05-03T07:49:11.604Z</time>
      </trkpt>
      <trkpt lat="41.11" lon="20.05058">
        <ele>156.564159</ele>
        <time>2022-05-03T07:49:13.617Z</time>
      </trkpt>
      <trkpt lat="41.10987" lon="20.05059">
        <ele>155.849388</ele>
        <time>2022-05-03T07:49:15.608Z</time>
      </trkpt>
      <trkpt lat="41.10975" lon="20.05059">
        <ele>155.117318</ele>
        <time>2022-05-03T07:49:17.614Z</time>
      </trkpt>
      <trkpt lat="41.10962" lon="20.05058">
        <ele>154.476503</ele>
        <time>2022-05-03T07:49:19.602Z</time>
      </trkpt>
      <trkpt lat="41.1095" lon="20.05057">
        <ele>154.059891</ele>
        <time>2022-05-03T07:49:21.601Z</time>
      </trkpt>
      <trkpt lat="41.10938" lon="20.05055">
        <ele>153.653968</ele>
        <time>2022-05-03T07:49:23.626Z</time>
      </trkpt>
      <trkpt lat="41.10927" lon="20.05051">
        <ele>153.265056</ele>
        <time>2022-05-03T07:49:25.618Z</time>
      </trkpt>
      <trkpt lat="41.10916" lon="20.05046">
        <ele>152.869894</ele>
        <time>2022-05-03T07:49:27.616Z</time>
      </trkpt>
      <trkpt lat="41.10905" lon="20.05041">
        <ele>152.481887</ele>
        <time>2022-05-03T07:49:29.598Z</time>
      </trkpt>
      <trkpt lat="41.10894" lon="20.05036">
        <ele>152.106349</ele>
        <time>2022-05-03T07:49:31.599Z</time>
      </trkpt>
      <trkpt lat="41.10884" lon="20.05031">
        <ele>151.731686</ele>
        <time>2022-05-03T07:49:33.622Z</time>
      </trkpt>
      <trkpt lat="41.10874" lon="20.05026">
        <ele>151.40013</ele>
        <time>2022-05-03T07:49:35.594Z</time>
      </trkpt>
      <trkpt lat="41.10863" lon="20.05023">
        <ele>151.01398</ele>
        <time>2022-05-03T07:49:37.593Z</time>
      </trkpt>
      <trkpt lat="41.10852" lon="20.05021">
        <ele>150.628788</ele>
        <time>2022-05-03T07:49:39.598Z</time>
      </trkpt>
      <trkpt lat="41.10843" lon="20.05016">
        <ele>150.317703</ele>
        <time>2022-05-03T07:49:41.604Z</time>
      </trkpt>
      <trkpt lat="41.10832" lon="20.0501">
        <ele>149.919192</ele>
        <time>2022-05-03T07:49:44.585Z</time>
      </trkpt>
      <trkpt lat="41.10822" lon="20.05005">
        <ele>149.55169</ele>
        <time>2022-05-03T07:49:48.614Z</time>
      </trkpt>
      <trkpt lat="41.10813" lon="20.05">
        <ele>149.240028</ele>
        <time>2022-05-03T07:49:54.601Z</time>
      </trkpt>
      <trkpt lat="41.10804" lon="20.04995">
        <ele>148.915158</ele>
        <time>2022-05-03T07:49:57.611Z</time>
      </trkpt>
      <trkpt lat="41.10794" lon="20.04987">
        <ele>148.555188</ele>
        <time>2022-05-03T07:50:00.617Z</time>
      </trkpt>
      <trkpt lat="41.10784" lon="20.04979">
        <ele>148.60675</ele>
        <time>2022-05-03T07:50:03.626Z</time>
      </trkpt>
      <trkpt lat="41.10774" lon="20.04971">
        <ele>148.661357</ele>
        <time>2022-05-03T07:50:06.614Z</time>
      </trkpt>
      <trkpt lat="41.10766" lon="20.04964">
        <ele>148.704542</ele>
        <time>2022-05-03T07:50:08.608Z</time>
      </trkpt>
      <trkpt lat="41.10757" lon="20.04956">
        <ele>148.752092</ele>
        <time>2022-05-03T07:50:10.673Z</time>
      </trkpt>
      <trkpt lat="41.10749" lon="20.04948">
        <ele>148.800394</ele>
        <time>2022-05-03T07:50:12.618Z</time>
      </trkpt>
      <trkpt lat="41.1074" lon="20.0494">
        <ele>148.847801</ele>
        <time>2022-05-03T07:50:14.633Z</time>
      </trkpt>
      <trkpt lat="41.10733" lon="20.04931">
        <ele>148.894223</ele>
        <time>2022-05-03T07:50:16.601Z</time>
      </trkpt>
      <trkpt lat="41.10725" lon="20.04922">
        <ele>148.94042</ele>
        <time>2022-05-03T07:50:18.617Z</time>
      </trkpt>
      <trkpt lat="41.10717" lon="20.04914">
        <ele>148.986873</ele>
        <time>2022-05-03T07:50:20.612Z</time>
      </trkpt>
      <trkpt lat="41.10709" lon="20.04906">
        <ele>149.03169</ele>
        <time>2022-05-03T07:50:22.600Z</time>
      </trkpt>
      <trkpt lat="41.10702" lon="20.04898">
        <ele>149.074178</ele>
        <time>2022-05-03T07:50:24.619Z</time>
      </trkpt>
      <trkpt lat="41.10694" lon="20.04891">
        <ele>149.119309</ele>
        <time>2022-05-03T07:50:26.599Z</time>
      </trkpt>
      <trkpt lat="41.10686" lon="20.04883">
        <ele>149.164849</ele>
        <time>2022-05-03T07:50:28.604Z</time>
      </trkpt>
      <trkpt lat="41.10678" lon="20.04874">
        <ele>149.212529</ele>
        <time>2022-05-03T07:50:30.608Z</time>
      </trkpt>
      <trkpt lat="41.1067" lon="20.04865">
        <ele>149.257702</ele>
        <time>2022-05-03T07:50:32.640Z</time>
      </trkpt>
      <trkpt lat="41.10663" lon="20.04856">
        <ele>149.30197</ele>
        <time>2022-05-03T07:50:34.604Z</time>
      </trkpt>
      <trkpt lat="41.10656" lon="20.04847">
        <ele>149.344586</ele>
        <time>2022-05-03T07:50:36.605Z</time>
      </trkpt>
      <trkpt lat="41.10647" lon="20.04834">
        <ele>149.485507</ele>
        <time>2022-05-03T07:50:39.610Z</time>
      </trkpt>
      <trkpt lat="41.1064" lon="20.04824">
        <ele>149.623845</ele>
        <time>2022-05-03T07:50:41.613Z</time>
      </trkpt>
      <trkpt lat="41.10633" lon="20.04813">
        <ele>149.773843</ele>
        <time>2022-05-03T07:50:43.611Z</time>
      </trkpt>
      <trkpt lat="41.10626" lon="20.04803">
        <ele>149.919784</ele>
        <time>2022-05-03T07:50:45.604Z</time>
      </trkpt>
      <trkpt lat="41.1062" lon="20.04793">
        <ele>150.062</ele>
        <time>2022-05-03T07:50:47.616Z</time>
      </trkpt>
      <trkpt lat="41.10613" lon="20.04782">
        <ele>150.205995</ele>
        <time>2022-05-03T07:50:49.632Z</time>
      </trkpt>
      <trkpt lat="41.10607" lon="20.04772">
        <ele>150.342773</ele>
        <time>2022-05-03T07:50:51.587Z</time>
      </trkpt>
      <trkpt lat="41.106" lon="20.04763">
        <ele>150.48033</ele>
        <time>2022-05-03T07:50:53.592Z</time>
      </trkpt>
      <trkpt lat="41.10593" lon="20.04753">
        <ele>150.615951</ele>
        <time>2022-05-03T07:50:55.637Z</time>
      </trkpt>
      <trkpt lat="41.10586" lon="20.04743">
        <ele>150.754437</ele>
        <time>2022-05-03T07:50:57.614Z</time>
      </trkpt>
      <trkpt lat="41.1058" lon="20.04733">
        <ele>150.894242</ele>
        <time>2022-05-03T07:50:59.610Z</time>
      </trkpt>
      <trkpt lat="41.10573" lon="20.04723">
        <ele>151.037559</ele>
        <time>2022-05-03T07:51:01.619Z</time>
      </trkpt>
      <trkpt lat="41.10566" lon="20.04713">
        <ele>151.178693</ele>
        <time>2022-05-03T07:51:03.616Z</time>
      </trkpt>
      <trkpt lat="41.1056" lon="20.04703">
        <ele>151.31718</ele>
        <time>2022-05-03T07:51:05.645Z</time>
      </trkpt>
      <trkpt lat="41.10553" lon="20.04693">
        <ele>151.460635</ele>
        <time>2022-05-03T07:51:07.631Z</time>
      </trkpt>
      <trkpt lat="41.10545" lon="20.04682">
        <ele>151.614525</ele>
        <time>2022-05-03T07:51:09.599Z</time>
      </trkpt>
      <trkpt lat="41.10538" lon="20.04671">
        <ele>151.766227</ele>
        <time>2022-05-03T07:51:11.598Z</time>
      </trkpt>
      <trkpt lat="41.10531" lon="20.04661">
        <ele>151.773672</ele>
        <time>2022-05-03T07:51:13.601Z</time>
      </trkpt>
      <trkpt lat="41.10525" lon="20.04652">
        <ele>151.502865</ele>
        <time>2022-05-03T07:51:15.619Z</time>
      </trkpt>
      <trkpt lat="41.10516" lon="20.04639">
        <ele>151.127667</ele>
        <time>2022-05-03T07:51:18.629Z</time>
      </trkpt>
      <trkpt lat="41.10507" lon="20.04626">
        <ele>150.763721</ele>
        <time>2022-05-03T07:51:21.608Z</time>
      </trkpt>
      <trkpt lat="41.10499" lon="20.04614">
        <ele>150.416216</ele>
        <time>2022-05-03T07:51:24.595Z</time>
      </trkpt>
      <trkpt lat="41.10491" lon="20.04602">
        <ele>150.068478</ele>
        <time>2022-05-03T07:51:27.604Z</time>
      </trkpt>
      <trkpt lat="41.10483" lon="20.04591">
        <ele>149.74084</ele>
        <time>2022-05-03T07:51:30.606Z</time>
      </trkpt>
      <trkpt lat="41.10477" lon="20.04582">
        <ele>149.467279</ele>
        <time>2022-05-03T07:51:33.620Z</time>
      </trkpt>
      <trkpt lat="41.10471" lon="20.04571">
        <ele>149.194234</ele>
        <time>2022-05-03T07:51:36.622Z</time>
      </trkpt>
      <trkpt lat="41.10464" lon="20.04562">
        <ele>148.919914</ele>
        <time>2022-05-03T07:51:42.619Z</time>
      </trkpt>
      <trkpt lat="41.10457" lon="20.0455">
        <ele>148.578907</ele>
        <time>2022-05-03T07:51:46.611Z</time>
      </trkpt>
      <trkpt lat="41.10448" lon="20.04539">
        <ele>148.239134</ele>
        <time>2022-05-03T07:51:49.601Z</time>
      </trkpt>
      <trkpt lat="41.10439" lon="20.04525">
        <ele>147.843215</ele>
        <time>2022-05-03T07:51:52.642Z</time>
      </trkpt>
      <trkpt lat="41.10432" lon="20.04515">
        <ele>147.562203</ele>
        <time>2022-05-03T07:51:54.615Z</time>
      </trkpt>
      <trkpt lat="41.10425" lon="20.04505">
        <ele>147.262365</ele>
        <time>2022-05-03T07:51:56.641Z</time>
      </trkpt>
      <trkpt lat="41.10419" lon="20.04493">
        <ele>146.948112</ele>
        <time>2022-05-03T07:51:58.606Z</time>
      </trkpt>
      <trkpt lat="41.10412" lon="20.04481">
        <ele>146.671913</ele>
        <time>2022-05-03T07:52:00.595Z</time>
      </trkpt>
      <trkpt lat="41.10405" lon="20.04468">
        <ele>146.494653</ele>
        <time>2022-05-03T07:52:02.605Z</time>
      </trkpt>
      <trkpt lat="41.10398" lon="20.04453">
        <ele>146.313299</ele>
        <time>2022-05-03T07:52:04.603Z</time>
      </trkpt>
      <trkpt lat="41.10392" lon="20.04439">
        <ele>146.136629</ele>
        <time>2022-05-03T07:52:06.614Z</time>
      </trkpt>
      <trkpt lat="41.10386" lon="20.04425">
        <ele>145.959947</ele>
        <time>2022-05-03T07:52:08.652Z</time>
      </trkpt>
      <trkpt lat="41.1038" lon="20.04411">
        <ele>145.788176</ele>
        <time>2022-05-03T07:52:10.615Z</time>
      </trkpt>
      <trkpt lat="41.10375" lon="20.04397">
        <ele>145.622565</ele>
        <time>2022-05-03T07:52:12.612Z</time>
      </trkpt>
      <trkpt lat="41.10371" lon="20.04384">
        <ele>145.464087</ele>
        <time>2022-05-03T07:52:14.611Z</time>
      </trkpt>
      <trkpt lat="41.10365" lon="20.04371">
        <ele>145.305598</ele>
        <time>2022-05-03T07:52:16.603Z</time>
      </trkpt>
      <trkpt lat="41.10361" lon="20.04358">
        <ele>145.148097</ele>
        <time>2022-05-03T07:52:18.594Z</time>
      </trkpt>
      <trkpt lat="41.10356" lon="20.04346">
        <ele>144.994802</ele>
        <time>2022-05-03T07:52:20.620Z</time>
      </trkpt>
      <trkpt lat="41.10351" lon="20.04335">
        <ele>144.853675</ele>
        <time>2022-05-03T07:52:22.634Z</time>
      </trkpt>
      <trkpt lat="41.10347" lon="20.04324">
        <ele>144.719513</ele>
        <time>2022-05-03T07:52:24.614Z</time>
      </trkpt>
      <trkpt lat="41.10341" lon="20.04308">
        <ele>144.527335</ele>
        <time>2022-05-03T07:52:27.595Z</time>
      </trkpt>
      <trkpt lat="41.10336" lon="20.04293">
        <ele>144.352456</ele>
        <time>2022-05-03T07:52:30.611Z</time>
      </trkpt>
      <trkpt lat="41.1033" lon="20.04279">
        <ele>144.17864</ele>
        <time>2022-05-03T07:52:33.605Z</time>
      </trkpt>
      <trkpt lat="41.10324" lon="20.04265">
        <ele>144.115336</ele>
        <time>2022-05-03T07:52:36.600Z</time>
      </trkpt>
      <trkpt lat="41.10319" lon="20.04251">
        <ele>144.086035</ele>
        <time>2022-05-03T07:52:39.604Z</time>
      </trkpt>
      <trkpt lat="41.10315" lon="20.0424">
        <ele>144.064634</ele>
        <time>2022-05-03T07:52:41.657Z</time>
      </trkpt>
      <trkpt lat="41.10311" lon="20.04229">
        <ele>144.043051</ele>
        <time>2022-05-03T07:52:43.624Z</time>
      </trkpt>
      <trkpt lat="41.10307" lon="20.04218">
        <ele>144.021107</ele>
        <time>2022-05-03T07:52:45.607Z</time>
      </trkpt>
      <trkpt lat="41.10304" lon="20.04207">
        <ele>143.999455</ele>
        <time>2022-05-03T07:52:47.594Z</time>
      </trkpt>
      <trkpt lat="41.103" lon="20.04195">
        <ele>143.976811</ele>
        <time>2022-05-03T07:52:49.596Z</time>
      </trkpt>
      <trkpt lat="41.10296" lon="20.04184">
        <ele>143.955228</ele>
        <time>2022-05-03T07:52:51.609Z</time>
      </trkpt>
      <trkpt lat="41.10293" lon="20.04173">
        <ele>143.932893</ele>
        <time>2022-05-03T07:52:53.606Z</time>
      </trkpt>
      <trkpt lat="41.10289" lon="20.04161">
        <ele>143.911168</ele>
        <time>2022-05-03T07:52:55.610Z</time>
      </trkpt>
      <trkpt lat="41.10286" lon="20.0415">
        <ele>143.889845</ele>
        <time>2022-05-03T07:52:57.613Z</time>
      </trkpt>
      <trkpt lat="41.10282" lon="20.04139">
        <ele>143.868465</ele>
        <time>2022-05-03T07:52:59.614Z</time>
      </trkpt>
      <trkpt lat="41.10278" lon="20.04128">
        <ele>143.846946</ele>
        <time>2022-05-03T07:53:01.618Z</time>
      </trkpt>
      <trkpt lat="41.10273" lon="20.04113">
        <ele>143.815924</ele>
        <time>2022-05-03T07:53:04.629Z</time>
      </trkpt>
      <trkpt lat="41.10268" lon="20.04096">
        <ele>143.78421</ele>
        <time>2022-05-03T07:53:07.599Z</time>
      </trkpt>
      <trkpt lat="41.10264" lon="20.04085">
        <ele>143.762228</ele>
        <time>2022-05-03T07:53:09.592Z</time>
      </trkpt>
      <trkpt lat="41.10261" lon="20.04073">
        <ele>143.739086</ele>
        <time>2022-05-03T07:53:11.605Z</time>
      </trkpt>
      <trkpt lat="41.10257" lon="20.04061">
        <ele>143.715903</ele>
        <time>2022-05-03T07:53:13.607Z</time>
      </trkpt>
      <trkpt lat="41.10251" lon="20.04046">
        <ele>143.719314</ele>
        <time>2022-05-03T07:53:16.594Z</time>
      </trkpt>
      <trkpt lat="41.10246" lon="20.0403">
        <ele>143.733112</ele>
        <time>2022-05-03T07:53:19.606Z</time>
      </trkpt>
      <trkpt lat="41.10243" lon="20.04019">
        <ele>143.743134</ele>
        <time>2022-05-03T07:53:21.613Z</time>
      </trkpt>
      <trkpt lat="41.10239" lon="20.04007">
        <ele>143.752849</ele>
        <time>2022-05-03T07:53:23.598Z</time>
      </trkpt>
      <trkpt lat="41.10236" lon="20.03996">
        <ele>143.762414</ele>
        <time>2022-05-03T07:53:25.607Z</time>
      </trkpt>
      <trkpt lat="41.10231" lon="20.0398">
        <ele>143.776306</ele>
        <time>2022-05-03T07:53:28.606Z</time>
      </trkpt>
      <trkpt lat="41.10226" lon="20.03964">
        <ele>143.789771</ele>
        <time>2022-05-03T07:53:31.638Z</time>
      </trkpt>
      <trkpt lat="41.10221" lon="20.03949">
        <ele>143.80313</ele>
        <time>2022-05-03T07:53:34.599Z</time>
      </trkpt>
      <trkpt lat="41.10216" lon="20.03932">
        <ele>143.817257</ele>
        <time>2022-05-03T07:53:37.603Z</time>
      </trkpt>
      <trkpt lat="41.10212" lon="20.03921">
        <ele>143.826898</ele>
        <time>2022-05-03T07:53:39.614Z</time>
      </trkpt>
      <trkpt lat="41.10209" lon="20.03909">
        <ele>143.837066</ele>
        <time>2022-05-03T07:53:41.603Z</time>
      </trkpt>
      <trkpt lat="41.10205" lon="20.03897">
        <ele>143.847413</ele>
        <time>2022-05-03T07:53:43.603Z</time>
      </trkpt>
      <trkpt lat="41.10201" lon="20.03885">
        <ele>143.857955</ele>
        <time>2022-05-03T07:53:45.634Z</time>
      </trkpt>
      <trkpt lat="41.10197" lon="20.03872">
        <ele>143.86854</ele>
        <time>2022-05-03T07:53:47.595Z</time>
      </trkpt>
      <trkpt lat="41.10193" lon="20.0386">
        <ele>143.879228</ele>
        <time>2022-05-03T07:53:49.611Z</time>
      </trkpt>
      <trkpt lat="41.10189" lon="20.03847">
        <ele>143.89035</ele>
        <time>2022-05-03T07:53:51.622Z</time>
      </trkpt>
      <trkpt lat="41.10185" lon="20.03834">
        <ele>143.915153</ele>
        <time>2022-05-03T07:53:53.613Z</time>
      </trkpt>
      <trkpt lat="41.10181" lon="20.03822">
        <ele>143.975949</ele>
        <time>2022-05-03T07:53:55.606Z</time>
      </trkpt>
      <trkpt lat="41.10177" lon="20.03809">
        <ele>144.03569</ele>
        <time>2022-05-03T07:53:57.641Z</time>
      </trkpt>
      <trkpt lat="41.10173" lon="20.03798">
        <ele>144.093374</ele>
        <time>2022-05-03T07:53:59.618Z</time>
      </trkpt>
      <trkpt lat="41.10169" lon="20.03787">
        <ele>144.148053</ele>
        <time>2022-05-03T07:54:01.599Z</time>
      </trkpt>
      <trkpt lat="41.10165" lon="20.03775">
        <ele>144.203135</ele>
        <time>2022-05-03T07:54:03.603Z</time>
      </trkpt>
      <trkpt lat="41.1016" lon="20.03759">
        <ele>144.28339</ele>
        <time>2022-05-03T07:54:06.603Z</time>
      </trkpt>
      <trkpt lat="41.10157" lon="20.03748">
        <ele>144.33681</ele>
        <time>2022-05-03T07:54:08.625Z</time>
      </trkpt>
      <trkpt lat="41.10151" lon="20.03732">
        <ele>144.41554</ele>
        <time>2022-05-03T07:54:11.647Z</time>
      </trkpt>
      <trkpt lat="41.10147" lon="20.03716">
        <ele>144.490789</ele>
        <time>2022-05-03T07:54:14.612Z</time>
      </trkpt>
      <trkpt lat="41.1014" lon="20.037">
        <ele>144.570665</ele>
        <time>2022-05-03T07:54:17.617Z</time>
      </trkpt>
      <trkpt lat="41.10137" lon="20.03688">
        <ele>144.630364</ele>
        <time>2022-05-03T07:54:19.616Z</time>
      </trkpt>
      <trkpt lat="41.10133" lon="20.03675">
        <ele>144.690903</ele>
        <time>2022-05-03T07:54:21.604Z</time>
      </trkpt>
      <trkpt lat="41.1013" lon="20.03663">
        <ele>144.748121</ele>
        <time>2022-05-03T07:54:23.590Z</time>
      </trkpt>
      <trkpt lat="41.10124" lon="20.03647">
        <ele>144.827607</ele>
        <time>2022-05-03T07:54:26.595Z</time>
      </trkpt>
      <trkpt lat="41.1012" lon="20.03636">
        <ele>144.882302</ele>
        <time>2022-05-03T07:54:28.641Z</time>
      </trkpt>
      <trkpt lat="41.10117" lon="20.03625">
        <ele>144.936359</ele>
        <time>2022-05-03T07:54:30.604Z</time>
      </trkpt>
      <trkpt lat="41.10114" lon="20.03613">
        <ele>144.866305</ele>
        <time>2022-05-03T07:54:32.605Z</time>
      </trkpt>
      <trkpt lat="41.10111" lon="20.03601">
        <ele>144.629035</ele>
        <time>2022-05-03T07:54:34.598Z</time>
      </trkpt>
      <trkpt lat="41.10108" lon="20.03589">
        <ele>144.384096</ele>
        <time>2022-05-03T07:54:36.604Z</time>
      </trkpt>
      <trkpt lat="41.10105" lon="20.03577">
        <ele>144.149947</ele>
        <time>2022-05-03T07:54:38.600Z</time>
      </trkpt>
      <trkpt lat="41.10103" lon="20.03564">
        <ele>143.895121</ele>
        <time>2022-05-03T07:54:40.599Z</time>
      </trkpt>
      <trkpt lat="41.10101" lon="20.03551">
        <ele>143.638171</ele>
        <time>2022-05-03T07:54:42.606Z</time>
      </trkpt>
      <trkpt lat="41.10099" lon="20.03538">
        <ele>143.387129</ele>
        <time>2022-05-03T07:54:44.609Z</time>
      </trkpt>
      <trkpt lat="41.10097" lon="20.03525">
        <ele>143.135235</ele>
        <time>2022-05-03T07:54:46.608Z</time>
      </trkpt>
      <trkpt lat="41.10095" lon="20.03512">
        <ele>142.880143</ele>
        <time>2022-05-03T07:54:48.621Z</time>
      </trkpt>
      <trkpt lat="41.10093" lon="20.03499">
        <ele>142.633286</ele>
        <time>2022-05-03T07:54:50.597Z</time>
      </trkpt>
      <trkpt lat="41.1009" lon="20.03487">
        <ele>142.389503</ele>
        <time>2022-05-03T07:54:52.594Z</time>
      </trkpt>
      <trkpt lat="41.10088" lon="20.03474">
        <ele>142.143274</ele>
        <time>2022-05-03T07:54:54.604Z</time>
      </trkpt>
      <trkpt lat="41.10085" lon="20.03461">
        <ele>141.894585</ele>
        <time>2022-05-03T07:54:56.616Z</time>
      </trkpt>
      <trkpt lat="41.10083" lon="20.03449">
        <ele>141.640928</ele>
        <time>2022-05-03T07:54:58.604Z</time>
      </trkpt>
      <trkpt lat="41.1008" lon="20.03435">
        <ele>141.383062</ele>
        <time>2022-05-03T07:55:00.596Z</time>
      </trkpt>
      <trkpt lat="41.10078" lon="20.03423">
        <ele>141.143324</ele>
        <time>2022-05-03T07:55:02.600Z</time>
      </trkpt>
      <trkpt lat="41.10076" lon="20.03411">
        <ele>140.901968</ele>
        <time>2022-05-03T07:55:04.604Z</time>
      </trkpt>
      <trkpt lat="41.10074" lon="20.03399">
        <ele>140.669651</ele>
        <time>2022-05-03T07:55:06.611Z</time>
      </trkpt>
      <trkpt lat="41.10072" lon="20.03386">
        <ele>140.44041</ele>
        <time>2022-05-03T07:55:08.607Z</time>
      </trkpt>
      <trkpt lat="41.1007" lon="20.03373">
        <ele>140.388171</ele>
        <time>2022-05-03T07:55:10.616Z</time>
      </trkpt>
      <trkpt lat="41.10068" lon="20.0336">
        <ele>140.336707</ele>
        <time>2022-05-03T07:55:12.624Z</time>
      </trkpt>
      <trkpt lat="41.10066" lon="20.03348">
        <ele>140.287917</ele>
        <time>2022-05-03T07:55:14.655Z</time>
      </trkpt>
      <trkpt lat="41.10063" lon="20.03331">
        <ele>140.217397</ele>
        <time>2022-05-03T07:55:17.615Z</time>
      </trkpt>
      <trkpt lat="41.10061" lon="20.03313">
        <ele>140.146399</ele>
        <time>2022-05-03T07:55:20.603Z</time>
      </trkpt>
      <trkpt lat="41.1006" lon="20.03301">
        <ele>140.09836</ele>
        <time>2022-05-03T07:55:22.610Z</time>
      </trkpt>
      <trkpt lat="41.10059" lon="20.0329">
        <ele>140.050436</ele>
        <time>2022-05-03T07:55:24.608Z</time>
      </trkpt>
      <trkpt lat="41.10057" lon="20.03272">
        <ele>139.98154</ele>
        <time>2022-05-03T07:55:27.593Z</time>
      </trkpt>
      <trkpt lat="41.10057" lon="20.03255">
        <ele>139.911809</ele>
        <time>2022-05-03T07:55:30.589Z</time>
      </trkpt>
      <trkpt lat="41.10057" lon="20.03238">
        <ele>139.844562</ele>
        <time>2022-05-03T07:55:33.610Z</time>
      </trkpt>
      <trkpt lat="41.10056" lon="20.03222">
        <ele>139.781155</ele>
        <time>2022-05-03T07:55:36.613Z</time>
      </trkpt>
      <trkpt lat="41.10055" lon="20.03207">
        <ele>139.721432</ele>
        <time>2022-05-03T07:55:39.592Z</time>
      </trkpt>
      <trkpt lat="41.10055" lon="20.03192">
        <ele>139.659748</ele>
        <time>2022-05-03T07:55:42.611Z</time>
      </trkpt>
      <trkpt lat="41.10055" lon="20.03177">
        <ele>139.600837</ele>
        <time>2022-05-03T07:55:45.622Z</time>
      </trkpt>
      <trkpt lat="41.10055" lon="20.03164">
        <ele>139.548291</ele>
        <time>2022-05-03T07:55:48.622Z</time>
      </trkpt>
      <trkpt lat="41.10055" lon="20.0315">
        <ele>139.495765</ele>
        <time>2022-05-03T07:55:51.606Z</time>
      </trkpt>
      <trkpt lat="41.10055" lon="20.03135">
        <ele>139.905917</ele>
        <time>2022-05-03T07:55:54.603Z</time>
      </trkpt>
      <trkpt lat="41.10055" lon="20.03119">
        <ele>140.33842</ele>
        <time>2022-05-03T07:55:57.662Z</time>
      </trkpt>
      <trkpt lat="41.10055" lon="20.03106">
        <ele>140.662151</ele>
        <time>2022-05-03T07:55:59.604Z</time>
      </trkpt>
      <trkpt lat="41.10056" lon="20.03094">
        <ele>140.996162</ele>
        <time>2022-05-03T07:56:01.610Z</time>
      </trkpt>
      <trkpt lat="41.10056" lon="20.03077">
        <ele>141.458507</ele>
        <time>2022-05-03T07:56:04.616Z</time>
      </trkpt>
      <trkpt lat="41.10057" lon="20.03061">
        <ele>141.864438</ele>
        <time>2022-05-03T07:56:07.599Z</time>
      </trkpt>
      <trkpt lat="41.10057" lon="20.03048">
        <ele>142.224863</ele>
        <time>2022-05-03T07:56:10.597Z</time>
      </trkpt>
      <trkpt lat="41.10055" lon="20.03033">
        <ele>142.619602</ele>
        <time>2022-05-03T07:56:13.626Z</time>
      </trkpt>
      <trkpt lat="41.10053" lon="20.03022">
        <ele>142.938943</ele>
        <time>2022-05-03T07:56:16.596Z</time>
      </trkpt>
      <trkpt lat="41.10053" lon="20.03007">
        <ele>143.331531</ele>
        <time>2022-05-03T07:56:20.625Z</time>
      </trkpt>
      <trkpt lat="41.10053" lon="20.02991">
        <ele>143.756144</ele>
        <time>2022-05-03T07:56:23.578Z</time>
      </trkpt>
      <trkpt lat="41.10053" lon="20.02975">
        <ele>144.19403</ele>
        <time>2022-05-03T07:56:26.618Z</time>
      </trkpt>
      <trkpt lat="41.10054" lon="20.02957">
        <ele>144.668473</ele>
        <time>2022-05-03T07:56:29.613Z</time>
      </trkpt>
      <trkpt lat="41.10057" lon="20.0294">
        <ele>145.124222</ele>
        <time>2022-05-03T07:56:32.599Z</time>
      </trkpt>
      <trkpt lat="41.10062" lon="20.0293">
        <ele>145.449455</ele>
        <time>2022-05-03T07:56:34.617Z</time>
      </trkpt>
      <trkpt lat="41.1007" lon="20.02915">
        <ele>145.800995</ele>
        <time>2022-05-03T07:56:37.598Z</time>
      </trkpt>
      <trkpt lat="41.10077" lon="20.02906">
        <ele>145.476952</ele>
        <time>2022-05-03T07:56:39.658Z</time>
      </trkpt>
      <trkpt lat="41.10085" lon="20.02899">
        <ele>145.157434</ele>
        <time>2022-05-03T07:56:41.590Z</time>
      </trkpt>
      <trkpt lat="41.10093" lon="20.02894">
        <ele>144.848976</ele>
        <time>2022-05-03T07:56:43.584Z</time>
      </trkpt>
      <trkpt lat="41.10101" lon="20.02887">
        <ele>144.541439</ele>
        <time>2022-05-03T07:56:45.583Z</time>
      </trkpt>
      <trkpt lat="41.10109" lon="20.02881">
        <ele>144.239616</ele>
        <time>2022-05-03T07:56:47.587Z</time>
      </trkpt>
      <trkpt lat="41.10117" lon="20.02875">
        <ele>143.937793</ele>
        <time>2022-05-03T07:56:49.581Z</time>
      </trkpt>
      <trkpt lat="41.10126" lon="20.02867">
        <ele>143.578124</ele>
        <time>2022-05-03T07:56:52.586Z</time>
      </trkpt>
      <trkpt lat="41.10134" lon="20.02861">
        <ele>143.267185</ele>
        <time>2022-05-03T07:56:56.624Z</time>
      </trkpt>
      <trkpt lat="41.10145" lon="20.02854">
        <ele>142.881206</ele>
        <time>2022-05-03T07:57:00.585Z</time>
      </trkpt>
      <trkpt lat="41.10153" lon="20.02848">
        <ele>142.557151</ele>
        <time>2022-05-03T07:57:04.604Z</time>
      </trkpt>
      <trkpt lat="41.1016" lon="20.02839">
        <ele>142.247048</ele>
        <time>2022-05-03T07:57:09.626Z</time>
      </trkpt>
      <trkpt lat="41.10157" lon="20.02827">
        <ele>141.916044</ele>
        <time>2022-05-03T07:57:14.607Z</time>
      </trkpt>
      <trkpt lat="41.10153" lon="20.02815">
        <ele>141.586455</ele>
        <time>2022-05-03T07:57:17.601Z</time>
      </trkpt>
      <trkpt lat="41.10149" lon="20.02801">
        <ele>141.218795</ele>
        <time>2022-05-03T07:57:20.610Z</time>
      </trkpt>
      <trkpt lat="41.10144" lon="20.02787">
        <ele>140.850863</ele>
        <time>2022-05-03T07:57:23.655Z</time>
      </trkpt>
      <trkpt lat="41.1014" lon="20.02773">
        <ele>140.458314</ele>
        <time>2022-05-03T07:57:26.600Z</time>
      </trkpt>
      <trkpt lat="41.10135" lon="20.0276">
        <ele>140.088751</ele>
        <time>2022-05-03T07:57:29.618Z</time>
      </trkpt>
      <trkpt lat="41.1013" lon="20.02746">
        <ele>139.875145</ele>
        <time>2022-05-03T07:57:32.615Z</time>
      </trkpt>
      <trkpt lat="41.10125" lon="20.02732">
        <ele>139.830693</ele>
        <time>2022-05-03T07:57:35.591Z</time>
      </trkpt>
      <trkpt lat="41.10121" lon="20.02718">
        <ele>139.784207</ele>
        <time>2022-05-03T07:57:38.611Z</time>
      </trkpt>
      <trkpt lat="41.10116" lon="20.02703">
        <ele>139.738825</ele>
        <time>2022-05-03T07:57:41.624Z</time>
      </trkpt>
      <trkpt lat="41.10113" lon="20.02689">
        <ele>139.695589</ele>
        <time>2022-05-03T07:57:44.606Z</time>
      </trkpt>
      <trkpt lat="41.10108" lon="20.02675">
        <ele>139.650448</ele>
        <time>2022-05-03T07:57:47.613Z</time>
      </trkpt>
      <trkpt lat="41.10104" lon="20.0266">
        <ele>139.604796</ele>
        <time>2022-05-03T07:57:50.642Z</time>
      </trkpt>
      <trkpt lat="41.101" lon="20.02646">
        <ele>139.560486</ele>
        <time>2022-05-03T07:57:53.604Z</time>
      </trkpt>
      <trkpt lat="41.10096" lon="20.02632">
        <ele>139.516477</ele>
        <time>2022-05-03T07:57:56.607Z</time>
      </trkpt>
      <trkpt lat="41.10092" lon="20.02618">
        <ele>139.472984</ele>
        <time>2022-05-03T07:57:59.615Z</time>
      </trkpt>
      <trkpt lat="41.10087" lon="20.02604">
        <ele>139.427472</ele>
        <time>2022-05-03T07:58:02.597Z</time>
      </trkpt>
      <trkpt lat="41.10082" lon="20.0259">
        <ele>139.382444</ele>
        <time>2022-05-03T07:58:05.604Z</time>
      </trkpt>
      <trkpt lat="41.10078" lon="20.02576">
        <ele>139.336915</ele>
        <time>2022-05-03T07:58:08.619Z</time>
      </trkpt>
      <trkpt lat="41.10073" lon="20.0256">
        <ele>139.289224</ele>
        <time>2022-05-03T07:58:11.604Z</time>
      </trkpt>
      <trkpt lat="41.10068" lon="20.02546">
        <ele>139.242653</ele>
        <time>2022-05-03T07:58:14.610Z</time>
      </trkpt>
      <trkpt lat="41.10063" lon="20.02532">
        <ele>139.183286</ele>
        <time>2022-05-03T07:58:17.611Z</time>
      </trkpt>
      <trkpt lat="41.10058" lon="20.02518">
        <ele>138.910035</ele>
        <time>2022-05-03T07:58:20.614Z</time>
      </trkpt>
      <trkpt lat="41.10052" lon="20.02506">
        <ele>138.642152</ele>
        <time>2022-05-03T07:58:23.612Z</time>
      </trkpt>
      <trkpt lat="41.10046" lon="20.02492">
        <ele>138.35474</ele>
        <time>2022-05-03T07:58:26.602Z</time>
      </trkpt>
      <trkpt lat="41.10041" lon="20.02478">
        <ele>138.063655</ele>
        <time>2022-05-03T07:58:29.629Z</time>
      </trkpt>
      <trkpt lat="41.10035" lon="20.02463">
        <ele>137.763898</ele>
        <time>2022-05-03T07:58:32.599Z</time>
      </trkpt>
      <trkpt lat="41.10029" lon="20.0245">
        <ele>137.484809</ele>
        <time>2022-05-03T07:58:35.608Z</time>
      </trkpt>
      <trkpt lat="41.10023" lon="20.02437">
        <ele>137.202966</ele>
        <time>2022-05-03T07:58:38.591Z</time>
      </trkpt>
      <trkpt lat="41.10016" lon="20.02424">
        <ele>136.918096</ele>
        <time>2022-05-03T07:58:41.621Z</time>
      </trkpt>
      <trkpt lat="41.10011" lon="20.0241">
        <ele>136.631347</ele>
        <time>2022-05-03T07:58:44.662Z</time>
      </trkpt>
      <trkpt lat="41.10006" lon="20.02397">
        <ele>136.367211</ele>
        <time>2022-05-03T07:58:47.610Z</time>
      </trkpt>
      <trkpt lat="41.10001" lon="20.02384">
        <ele>136.107447</ele>
        <time>2022-05-03T07:58:50.632Z</time>
      </trkpt>
      <trkpt lat="41.09994" lon="20.02372">
        <ele>135.834735</ele>
        <time>2022-05-03T07:58:53.616Z</time>
      </trkpt>
      <trkpt lat="41.09987" lon="20.02358">
        <ele>135.529885</ele>
        <time>2022-05-03T07:58:56.617Z</time>
      </trkpt>
      <trkpt lat="41.09979" lon="20.02344">
        <ele>135.209311</ele>
        <time>2022-05-03T07:58:59.615Z</time>
      </trkpt>
      <trkpt lat="41.09973" lon="20.02334">
        <ele>134.980103</ele>
        <time>2022-05-03T07:59:01.600Z</time>
      </trkpt>
      <trkpt lat="41.09968" lon="20.02324">
        <ele>134.78914</ele>
        <time>2022-05-03T07:59:03.603Z</time>
      </trkpt>
      <trkpt lat="41.09962" lon="20.02313">
        <ele>134.637391</ele>
        <time>2022-05-03T07:59:05.618Z</time>
      </trkpt>
      <trkpt lat="41.09956" lon="20.02303">
        <ele>134.484706</ele>
        <time>2022-05-03T07:59:07.658Z</time>
      </trkpt>
      <trkpt lat="41.09949" lon="20.02292">
        <ele>134.325325</ele>
        <time>2022-05-03T07:59:09.614Z</time>
      </trkpt>
      <trkpt lat="41.09942" lon="20.02283">
        <ele>134.168209</ele>
        <time>2022-05-03T07:59:11.599Z</time>
      </trkpt>
      <trkpt lat="41.09936" lon="20.02273">
        <ele>134.014327</ele>
        <time>2022-05-03T07:59:13.605Z</time>
      </trkpt>
      <trkpt lat="41.09929" lon="20.02263">
        <ele>133.856158</ele>
        <time>2022-05-03T07:59:15.612Z</time>
      </trkpt>
      <trkpt lat="41.09922" lon="20.02253">
        <ele>133.69521</ele>
        <time>2022-05-03T07:59:17.614Z</time>
      </trkpt>
      <trkpt lat="41.09915" lon="20.02242">
        <ele>133.534441</ele>
        <time>2022-05-03T07:59:19.613Z</time>
      </trkpt>
      <trkpt lat="41.09908" lon="20.02233">
        <ele>133.374745</ele>
        <time>2022-05-03T07:59:21.619Z</time>
      </trkpt>
      <trkpt lat="41.09901" lon="20.02223">
        <ele>133.215294</ele>
        <time>2022-05-03T07:59:23.601Z</time>
      </trkpt>
      <trkpt lat="41.09894" lon="20.02213">
        <ele>133.061134</ele>
        <time>2022-05-03T07:59:25.608Z</time>
      </trkpt>
      <trkpt lat="41.09888" lon="20.02203">
        <ele>132.909247</ele>
        <time>2022-05-03T07:59:27.604Z</time>
      </trkpt>
      <trkpt lat="41.09881" lon="20.02193">
        <ele>132.747748</ele>
        <time>2022-05-03T07:59:29.647Z</time>
      </trkpt>
      <trkpt lat="41.09874" lon="20.02183">
        <ele>132.585558</ele>
        <time>2022-05-03T07:59:31.602Z</time>
      </trkpt>
      <trkpt lat="41.09867" lon="20.02174">
        <ele>132.432405</ele>
        <time>2022-05-03T07:59:33.606Z</time>
      </trkpt>
      <trkpt lat="41.0986" lon="20.02166">
        <ele>132.287805</ele>
        <time>2022-05-03T07:59:35.638Z</time>
      </trkpt>
      <trkpt lat="41.09853" lon="20.02157">
        <ele>132.145467</ele>
        <time>2022-05-03T07:59:37.615Z</time>
      </trkpt>
      <trkpt lat="41.09843" lon="20.02147">
        <ele>132.005275</ele>
        <time>2022-05-03T07:59:40.635Z</time>
      </trkpt>
      <trkpt lat="41.09834" lon="20.02136">
        <ele>131.907158</ele>
        <time>2022-05-03T07:59:43.617Z</time>
      </trkpt>
      <trkpt lat="41.09826" lon="20.02126">
        <ele>131.816365</ele>
        <time>2022-05-03T07:59:46.656Z</time>
      </trkpt>
      <trkpt lat="41.09817" lon="20.02116">
        <ele>131.725567</ele>
        <time>2022-05-03T07:59:49.593Z</time>
      </trkpt>
      <trkpt lat="41.09808" lon="20.02106">
        <ele>131.632185</ele>
        <time>2022-05-03T07:59:52.597Z</time>
      </trkpt>
      <trkpt lat="41.09799" lon="20.02095">
        <ele>131.537426</ele>
        <time>2022-05-03T07:59:55.620Z</time>
      </trkpt>
      <trkpt lat="41.0979" lon="20.02085">
        <ele>131.446237</ele>
        <time>2022-05-03T07:59:58.615Z</time>
      </trkpt>
      <trkpt lat="41.09781" lon="20.02076">
        <ele>131.354613</ele>
        <time>2022-05-03T08:00:01.594Z</time>
      </trkpt>
      <trkpt lat="41.09772" lon="20.02065">
        <ele>131.258642</ele>
        <time>2022-05-03T08:00:04.606Z</time>
      </trkpt>
      <trkpt lat="41.09762" lon="20.02054">
        <ele>131.159743</ele>
        <time>2022-05-03T08:00:07.641Z</time>
      </trkpt>
      <trkpt lat="41.09753" lon="20.02043">
        <ele>131.057665</ele>
        <time>2022-05-03T08:00:10.611Z</time>
      </trkpt>
      <trkpt lat="41.09742" lon="20.02032">
        <ele>130.952165</ele>
        <time>2022-05-03T08:00:13.589Z</time>
      </trkpt>
      <trkpt lat="41.09732" lon="20.02021">
        <ele>130.849096</ele>
        <time>2022-05-03T08:00:16.604Z</time>
      </trkpt>
      <trkpt lat="41.09722" lon="20.0201">
        <ele>130.743596</ele>
        <time>2022-05-03T08:00:19.595Z</time>
      </trkpt>
      <trkpt lat="41.09712" lon="20.01999">
        <ele>130.643051</ele>
        <time>2022-05-03T08:00:22.600Z</time>
      </trkpt>
      <trkpt lat="41.09702" lon="20.01988">
        <ele>130.589856</ele>
        <time>2022-05-03T08:00:25.661Z</time>
      </trkpt>
      <trkpt lat="41.09692" lon="20.01977">
        <ele>130.537289</ele>
        <time>2022-05-03T08:00:28.588Z</time>
      </trkpt>
      <trkpt lat="41.09682" lon="20.01966">
        <ele>130.486632</ele>
        <time>2022-05-03T08:00:31.614Z</time>
      </trkpt>
      <trkpt lat="41.09673" lon="20.01955">
        <ele>130.437784</ele>
        <time>2022-05-03T08:00:34.603Z</time>
      </trkpt>
      <trkpt lat="41.09663" lon="20.01945">
        <ele>130.388832</ele>
        <time>2022-05-03T08:00:37.593Z</time>
      </trkpt>
      <trkpt lat="41.09654" lon="20.01935">
        <ele>130.340592</ele>
        <time>2022-05-03T08:00:40.603Z</time>
      </trkpt>
      <trkpt lat="41.09645" lon="20.01925">
        <ele>130.294902</ele>
        <time>2022-05-03T08:00:43.616Z</time>
      </trkpt>
      <trkpt lat="41.09636" lon="20.01913">
        <ele>130.246083</ele>
        <time>2022-05-03T08:00:46.601Z</time>
      </trkpt>
      <trkpt lat="41.09627" lon="20.01903">
        <ele>130.199307</ele>
        <time>2022-05-03T08:00:49.607Z</time>
      </trkpt>
      <trkpt lat="41.09619" lon="20.01893">
        <ele>130.1542</ele>
        <time>2022-05-03T08:00:52.613Z</time>
      </trkpt>
      <trkpt lat="41.0961" lon="20.01884">
        <ele>130.109607</ele>
        <time>2022-05-03T08:00:55.602Z</time>
      </trkpt>
      <trkpt lat="41.09601" lon="20.01874">
        <ele>130.0634</ele>
        <time>2022-05-03T08:00:58.601Z</time>
      </trkpt>
      <trkpt lat="41.09591" lon="20.01864">
        <ele>130.015076</ele>
        <time>2022-05-03T08:01:01.614Z</time>
      </trkpt>
      <trkpt lat="41.09582" lon="20.01855">
        <ele>129.968589</ele>
        <time>2022-05-03T08:01:04.602Z</time>
      </trkpt>
      <trkpt lat="41.09572" lon="20.01846">
        <ele>129.985901</ele>
        <time>2022-05-03T08:01:07.615Z</time>
      </trkpt>
      <trkpt lat="41.09564" lon="20.01837">
        <ele>130.470377</ele>
        <time>2022-05-03T08:01:10.631Z</time>
      </trkpt>
      <trkpt lat="41.09556" lon="20.01828">
        <ele>130.936338</ele>
        <time>2022-05-03T08:01:13.627Z</time>
      </trkpt>
      <trkpt lat="41.09548" lon="20.0182">
        <ele>131.392045</ele>
        <time>2022-05-03T08:01:16.641Z</time>
      </trkpt>
      <trkpt lat="41.0954" lon="20.0181">
        <ele>131.853553</ele>
        <time>2022-05-03T08:01:19.595Z</time>
      </trkpt>
      <trkpt lat="41.09533" lon="20.01802">
        <ele>132.265978</ele>
        <time>2022-05-03T08:01:22.614Z</time>
      </trkpt>
      <trkpt lat="41.09526" lon="20.01794">
        <ele>132.698528</ele>
        <time>2022-05-03T08:01:26.613Z</time>
      </trkpt>
      <trkpt lat="41.09517" lon="20.01786">
        <ele>133.156625</ele>
        <time>2022-05-03T08:01:30.616Z</time>
      </trkpt>
      <trkpt lat="41.09508" lon="20.01778">
        <ele>133.643084</ele>
        <time>2022-05-03T08:01:34.627Z</time>
      </trkpt>
      <trkpt lat="41.09501" lon="20.01769">
        <ele>134.073167</ele>
        <time>2022-05-03T08:01:38.592Z</time>
      </trkpt>
      <trkpt lat="41.09493" lon="20.01761">
        <ele>134.525871</ele>
        <time>2022-05-03T08:01:42.612Z</time>
      </trkpt>
      <trkpt lat="41.09486" lon="20.01752">
        <ele>134.954184</ele>
        <time>2022-05-03T08:01:46.603Z</time>
      </trkpt>
      <trkpt lat="41.09479" lon="20.01742">
        <ele>135.408986</ele>
        <time>2022-05-03T08:01:50.615Z</time>
      </trkpt>
      <trkpt lat="41.09472" lon="20.01731">
        <ele>135.882194</ele>
        <time>2022-05-03T08:01:54.604Z</time>
      </trkpt>
      <trkpt lat="41.09465" lon="20.01721">
        <ele>136.354268</ele>
        <time>2022-05-03T08:01:58.609Z</time>
      </trkpt>
      <trkpt lat="41.09458" lon="20.0171">
        <ele>136.854852</ele>
        <time>2022-05-03T08:02:02.622Z</time>
      </trkpt>
      <trkpt lat="41.09451" lon="20.01699">
        <ele>137.341496</ele>
        <time>2022-05-03T08:02:06.601Z</time>
      </trkpt>
      <trkpt lat="41.09443" lon="20.01687">
        <ele>137.843303</ele>
        <time>2022-05-03T08:02:10.605Z</time>
      </trkpt>
      <trkpt lat="41.09436" lon="20.01677">
        <ele>138.337054</ele>
        <time>2022-05-03T08:02:14.601Z</time>
      </trkpt>
      <trkpt lat="41.09429" lon="20.01667">
        <ele>138.797807</ele>
        <time>2022-05-03T08:02:18.587Z</time>
      </trkpt>
      <trkpt lat="41.09421" lon="20.01656">
        <ele>139.307336</ele>
        <time>2022-05-03T08:02:22.595Z</time>
      </trkpt>
      <trkpt lat="41.09415" lon="20.01647">
        <ele>139.726987</ele>
        <time>2022-05-03T08:02:25.610Z</time>
      </trkpt>
      <trkpt lat="41.09409" lon="20.01638">
        <ele>140.141589</ele>
        <time>2022-05-03T08:02:28.620Z</time>
      </trkpt>
      <trkpt lat="41.09403" lon="20.01629">
        <ele>140.550599</ele>
        <time>2022-05-03T08:02:31.604Z</time>
      </trkpt>
      <trkpt lat="41.09395" lon="20.01619">
        <ele>141.056132</ele>
        <time>2022-05-03T08:02:35.654Z</time>
      </trkpt>
      <trkpt lat="41.09388" lon="20.01609">
        <ele>141.52756</ele>
        <time>2022-05-03T08:02:39.605Z</time>
      </trkpt>
      <trkpt lat="41.09381" lon="20.01598">
        <ele>142.000243</ele>
        <time>2022-05-03T08:02:43.602Z</time>
      </trkpt>
      <trkpt lat="41.09377" lon="20.01587">
        <ele>142.41276</ele>
        <time>2022-05-03T08:02:47.641Z</time>
      </trkpt>
      <trkpt lat="41.09373" lon="20.01576">
        <ele>142.841038</ele>
        <time>2022-05-03T08:02:51.590Z</time>
      </trkpt>
      <trkpt lat="41.09368" lon="20.01564">
        <ele>143.290389</ele>
        <time>2022-05-03T08:02:55.615Z</time>
      </trkpt>
      <trkpt lat="41.09364" lon="20.0155">
        <ele>143.81539</ele>
        <time>2022-05-03T08:02:59.601Z</time>
      </trkpt>
      <trkpt lat="41.0936" lon="20.01538">
        <ele>144.251777</ele>
        <time>2022-05-03T08:03:02.594Z</time>
      </trkpt>
      <trkpt lat="41.09356" lon="20.01527">
        <ele>144.700725</ele>
        <time>2022-05-03T08:03:05.645Z</time>
      </trkpt>
      <trkpt lat="41.0935" lon="20.01515">
        <ele>145.195245</ele>
        <time>2022-05-03T08:03:08.600Z</time>
      </trkpt>
      <trkpt lat="41.09343" lon="20.01501">
        <ele>145.743268</ele>
        <time>2022-05-03T08:03:11.605Z</time>
      </trkpt>
      <trkpt lat="41.09336" lon="20.01487">
        <ele>145.919134</ele>
        <time>2022-05-03T08:03:14.598Z</time>
      </trkpt>
      <trkpt lat="41.09328" lon="20.01473">
        <ele>145.436051</ele>
        <time>2022-05-03T08:03:17.603Z</time>
      </trkpt>
      <trkpt lat="41.09322" lon="20.01462">
        <ele>145.084236</ele>
        <time>2022-05-03T08:03:19.610Z</time>
      </trkpt>
      <trkpt lat="41.09315" lon="20.01451">
        <ele>144.723914</ele>
        <time>2022-05-03T08:03:21.650Z</time>
      </trkpt>
      <trkpt lat="41.09308" lon="20.01441">
        <ele>144.35122</ele>
        <time>2022-05-03T08:03:23.602Z</time>
      </trkpt>
      <trkpt lat="41.09301" lon="20.0143">
        <ele>143.966353</ele>
        <time>2022-05-03T08:03:25.586Z</time>
      </trkpt>
      <trkpt lat="41.09293" lon="20.01419">
        <ele>143.56567</ele>
        <time>2022-05-03T08:03:27.616Z</time>
      </trkpt>
      <trkpt lat="41.09284" lon="20.01409">
        <ele>143.139419</ele>
        <time>2022-05-03T08:03:29.603Z</time>
      </trkpt>
      <trkpt lat="41.09274" lon="20.01398">
        <ele>142.70043</ele>
        <time>2022-05-03T08:03:31.602Z</time>
      </trkpt>
      <trkpt lat="41.09266" lon="20.01387">
        <ele>142.278103</ele>
        <time>2022-05-03T08:03:33.612Z</time>
      </trkpt>
      <trkpt lat="41.09259" lon="20.01373">
        <ele>141.841191</ele>
        <time>2022-05-03T08:03:35.620Z</time>
      </trkpt>
      <trkpt lat="41.09252" lon="20.01358">
        <ele>141.387333</ele>
        <time>2022-05-03T08:03:37.607Z</time>
      </trkpt>
      <trkpt lat="41.09246" lon="20.01344">
        <ele>140.934657</ele>
        <time>2022-05-03T08:03:39.595Z</time>
      </trkpt>
      <trkpt lat="41.0924" lon="20.0133">
        <ele>140.504788</ele>
        <time>2022-05-03T08:03:41.618Z</time>
      </trkpt>
      <trkpt lat="41.09233" lon="20.01317">
        <ele>140.090621</ele>
        <time>2022-05-03T08:03:43.589Z</time>
      </trkpt>
      <trkpt lat="41.09227" lon="20.01304">
        <ele>139.762929</ele>
        <time>2022-05-03T08:03:45.595Z</time>
      </trkpt>
      <trkpt lat="41.09221" lon="20.01292">
        <ele>139.741511</ele>
        <time>2022-05-03T08:03:47.616Z</time>
      </trkpt>
      <trkpt lat="41.09216" lon="20.01281">
        <ele>139.721545</ele>
        <time>2022-05-03T08:03:49.606Z</time>
      </trkpt>
      <trkpt lat="41.09211" lon="20.0127">
        <ele>139.702581</ele>
        <time>2022-05-03T08:03:51.592Z</time>
      </trkpt>
      <trkpt lat="41.09205" lon="20.01256">
        <ele>139.67779</ele>
        <time>2022-05-03T08:03:54.608Z</time>
      </trkpt>
      <trkpt lat="41.092" lon="20.01243">
        <ele>139.654844</ele>
        <time>2022-05-03T08:03:57.649Z</time>
      </trkpt>
      <trkpt lat="41.09194" lon="20.0123">
        <ele>139.633212</ele>
        <time>2022-05-03T08:04:00.592Z</time>
      </trkpt>
      <trkpt lat="41.09189" lon="20.01217">
        <ele>139.610332</ele>
        <time>2022-05-03T08:04:03.579Z</time>
      </trkpt>
      <trkpt lat="41.09184" lon="20.01204">
        <ele>139.588557</ele>
        <time>2022-05-03T08:04:06.578Z</time>
      </trkpt>
      <trkpt lat="41.09181" lon="20.01191">
        <ele>139.56768</ele>
        <time>2022-05-03T08:04:11.254Z</time>
      </trkpt>
      <trkpt lat="41.09177" lon="20.01178">
        <ele>139.547078</ele>
        <time>2022-05-03T08:04:12.587Z</time>
      </trkpt>
      <trkpt lat="41.09173" lon="20.01163">
        <ele>139.523733</ele>
        <time>2022-05-03T08:04:16.604Z</time>
      </trkpt>
      <trkpt lat="41.09169" lon="20.0115">
        <ele>139.50257</ele>
        <time>2022-05-03T08:04:20.596Z</time>
      </trkpt>
      <trkpt lat="41.09166" lon="20.01137">
        <ele>139.481262</ele>
        <time>2022-05-03T08:04:24.607Z</time>
      </trkpt>
      <trkpt lat="41.09163" lon="20.01123">
        <ele>139.4587</ele>
        <time>2022-05-03T08:04:28.609Z</time>
      </trkpt>
      <trkpt lat="41.0916" lon="20.01108">
        <ele>139.435168</ele>
        <time>2022-05-03T08:04:32.594Z</time>
      </trkpt>
      <trkpt lat="41.09158" lon="20.01094">
        <ele>139.414093</ele>
        <time>2022-05-03T08:04:36.610Z</time>
      </trkpt>
      <trkpt lat="41.09157" lon="20.01081">
        <ele>139.692605</ele>
        <time>2022-05-03T08:04:40.592Z</time>
      </trkpt>
      <trkpt lat="41.09157" lon="20.01066">
        <ele>140.179832</ele>
        <time>2022-05-03T08:04:44.599Z</time>
      </trkpt>
      <trkpt lat="41.09156" lon="20.01052">
        <ele>140.659157</ele>
        <time>2022-05-03T08:04:48.607Z</time>
      </trkpt>
      <trkpt lat="41.09152" lon="20.01039">
        <ele>141.107366</ele>
        <time>2022-05-03T08:04:52.600Z</time>
      </trkpt>
      <trkpt lat="41.0915" lon="20.01026">
        <ele>141.539895</ele>
        <time>2022-05-03T08:04:56.614Z</time>
      </trkpt>
      <trkpt lat="41.09148" lon="20.01015">
        <ele>141.936598</ele>
        <time>2022-05-03T08:05:00.615Z</time>
      </trkpt>
      <trkpt lat="41.09146" lon="20.01">
        <ele>142.426999</ele>
        <time>2022-05-03T08:05:05.604Z</time>
      </trkpt>
      <trkpt lat="41.09144" lon="20.00986">
        <ele>142.915544</ele>
        <time>2022-05-03T08:05:10.609Z</time>
      </trkpt>
      <trkpt lat="41.09143" lon="20.00974">
        <ele>143.319099</ele>
        <time>2022-05-03T08:05:14.606Z</time>
      </trkpt>
      <trkpt lat="41.09141" lon="20.00962">
        <ele>143.71719</ele>
        <time>2022-05-03T08:05:18.604Z</time>
      </trkpt>
      <trkpt lat="41.0914" lon="20.0095">
        <ele>144.131252</ele>
        <time>2022-05-03T08:05:22.599Z</time>
      </trkpt>
      <trkpt lat="41.09138" lon="20.00935">
        <ele>144.622673</ele>
        <time>2022-05-03T08:05:27.602Z</time>
      </trkpt>
      <trkpt lat="41.09137" lon="20.00921">
        <ele>145.110383</ele>
        <time>2022-05-03T08:05:32.605Z</time>
      </trkpt>
      <trkpt lat="41.09137" lon="20.00909">
        <ele>145.510456</ele>
        <time>2022-05-03T08:05:36.605Z</time>
      </trkpt>
      <trkpt lat="41.09136" lon="20.00895">
        <ele>145.97852</ele>
        <time>2022-05-03T08:05:41.595Z</time>
      </trkpt>
      <trkpt lat="41.09136" lon="20.0088">
        <ele>146.465266</ele>
        <time>2022-05-03T08:05:46.611Z</time>
      </trkpt>
      <trkpt lat="41.09137" lon="20.00866">
        <ele>146.927042</ele>
        <time>2022-05-03T08:05:51.605Z</time>
      </trkpt>
      <trkpt lat="41.09137" lon="20.00853">
        <ele>147.360631</ele>
        <time>2022-05-03T08:05:56.655Z</time>
      </trkpt>
      <trkpt lat="41.09138" lon="20.00841">
        <ele>148.090461</ele>
        <time>2022-05-03T08:06:01.613Z</time>
      </trkpt>
      <trkpt lat="41.09139" lon="20.00828">
        <ele>148.783325</ele>
        <time>2022-05-03T08:06:06.627Z</time>
      </trkpt>
      <trkpt lat="41.0914" lon="20.00814">
        <ele>149.599194</ele>
        <time>2022-05-03T08:06:12.614Z</time>
      </trkpt>
      <trkpt lat="41.09142" lon="20.00802">
        <ele>150.292437</ele>
        <time>2022-05-03T08:06:17.617Z</time>
      </trkpt>
      <trkpt lat="41.09144" lon="20.0079">
        <ele>150.988547</ele>
        <time>2022-05-03T08:06:22.608Z</time>
      </trkpt>
      <trkpt lat="41.09145" lon="20.00778">
        <ele>151.697458</ele>
        <time>2022-05-03T08:06:27.613Z</time>
      </trkpt>
      <trkpt lat="41.09147" lon="20.00766">
        <ele>152.385673</ele>
        <time>2022-05-03T08:06:32.610Z</time>
      </trkpt>
      <trkpt lat="41.09149" lon="20.00753">
        <ele>153.106422</ele>
        <time>2022-05-03T08:06:37.615Z</time>
      </trkpt>
      <trkpt lat="41.09151" lon="20.00741">
        <ele>153.804228</ele>
        <time>2022-05-03T08:06:42.602Z</time>
      </trkpt>
      <trkpt lat="41.09152" lon="20.00729">
        <ele>154.513627</ele>
        <time>2022-05-03T08:06:47.599Z</time>
      </trkpt>
      <trkpt lat="41.09153" lon="20.00716">
        <ele>155.236901</ele>
        <time>2022-05-03T08:06:52.612Z</time>
      </trkpt>
      <trkpt lat="41.09155" lon="20.00703">
        <ele>155.988983</ele>
        <time>2022-05-03T08:06:58.648Z</time>
      </trkpt>
      <trkpt lat="41.09156" lon="20.0069">
        <ele>156.732019</ele>
        <time>2022-05-03T08:07:04.600Z</time>
      </trkpt>
      <trkpt lat="41.09158" lon="20.00676">
        <ele>157.506413</ele>
        <time>2022-05-03T08:07:11.607Z</time>
      </trkpt>
      <trkpt lat="41.0916" lon="20.00663">
        <ele>158.262643</ele>
        <time>2022-05-03T08:07:17.602Z</time>
      </trkpt>
      <trkpt lat="41.09162" lon="20.00651">
        <ele>159.000447</ele>
        <time>2022-05-03T08:07:23.611Z</time>
      </trkpt>
      <trkpt lat="41.09163" lon="20.00638">
        <ele>159.70346</ele>
        <time>2022-05-03T08:07:29.600Z</time>
      </trkpt>
      <trkpt lat="41.09163" lon="20.00626">
        <ele>160.416701</ele>
        <time>2022-05-03T08:07:34.602Z</time>
      </trkpt>
      <trkpt lat="41.09164" lon="20.00613">
        <ele>160.975216</ele>
        <time>2022-05-03T08:07:39.607Z</time>
      </trkpt>
      <trkpt lat="41.09166" lon="20.00601">
        <ele>161.270844</ele>
        <time>2022-05-03T08:07:45.608Z</time>
      </trkpt>
      <trkpt lat="41.09167" lon="20.00588">
        <ele>161.576781</ele>
        <time>2022-05-03T08:07:51.597Z</time>
      </trkpt>
      <trkpt lat="41.09168" lon="20.00575">
        <ele>161.863591</ele>
        <time>2022-05-03T08:07:57.598Z</time>
      </trkpt>
      <trkpt lat="41.09169" lon="20.00563">
        <ele>162.142216</ele>
        <time>2022-05-03T08:08:02.652Z</time>
      </trkpt>
      <trkpt lat="41.09169" lon="20.00551">
        <ele>162.425203</ele>
        <time>2022-05-03T08:08:07.612Z</time>
      </trkpt>
      <trkpt lat="41.09169" lon="20.00539">
        <ele>162.712693</ele>
        <time>2022-05-03T08:08:12.602Z</time>
      </trkpt>
      <trkpt lat="41.09169" lon="20.00526">
        <ele>162.995798</ele>
        <time>2022-05-03T08:08:17.588Z</time>
      </trkpt>
      <trkpt lat="41.09168" lon="20.00514">
        <ele>163.277394</ele>
        <time>2022-05-03T08:08:22.600Z</time>
      </trkpt>
      <trkpt lat="41.09168" lon="20.005">
        <ele>163.604279</ele>
        <time>2022-05-03T08:08:28.602Z</time>
      </trkpt>
      <trkpt lat="41.09167" lon="20.00488">
        <ele>163.892164</ele>
        <time>2022-05-03T08:08:33.638Z</time>
      </trkpt>
      <trkpt lat="41.09166" lon="20.00476">
        <ele>164.176968</ele>
        <time>2022-05-03T08:08:38.617Z</time>
      </trkpt>
      <trkpt lat="41.09164" lon="20.00461">
        <ele>164.519944</ele>
        <time>2022-05-03T08:08:43.612Z</time>
      </trkpt>
      <trkpt lat="41.09162" lon="20.00449">
        <ele>164.801945</ele>
        <time>2022-05-03T08:08:47.607Z</time>
      </trkpt>
      <trkpt lat="41.09161" lon="20.00436">
        <ele>165.122064</ele>
        <time>2022-05-03T08:08:51.595Z</time>
      </trkpt>
      <trkpt lat="41.09158" lon="20.00421">
        <ele>165.457183</ele>
        <time>2022-05-03T08:08:55.619Z</time>
      </trkpt>
      <trkpt lat="41.09155" lon="20.00408">
        <ele>165.797929</ele>
        <time>2022-05-03T08:08:59.625Z</time>
      </trkpt>
      <trkpt lat="41.0915" lon="20.00395">
        <ele>166.113514</ele>
        <time>2022-05-03T08:09:03.618Z</time>
      </trkpt>
      <trkpt lat="41.09144" lon="20.00383">
        <ele>166.367908</ele>
        <time>2022-05-03T08:09:07.628Z</time>
      </trkpt>
      <trkpt lat="41.09139" lon="20.00369">
        <ele>166.122029</ele>
        <time>2022-05-03T08:09:11.618Z</time>
      </trkpt>
      <trkpt lat="41.09133" lon="20.00357">
        <ele>165.896752</ele>
        <time>2022-05-03T08:09:15.600Z</time>
      </trkpt>
      <trkpt lat="41.09126" lon="20.00344">
        <ele>165.636782</ele>
        <time>2022-05-03T08:09:19.599Z</time>
      </trkpt>
      <trkpt lat="41.0912" lon="20.00333">
        <ele>165.418236</ele>
        <time>2022-05-03T08:09:22.625Z</time>
      </trkpt>
      <trkpt lat="41.09114" lon="20.00321">
        <ele>165.208719</ele>
        <time>2022-05-03T08:09:25.608Z</time>
      </trkpt>
      <trkpt lat="41.09108" lon="20.00311">
        <ele>164.999023</ele>
        <time>2022-05-03T08:09:28.599Z</time>
      </trkpt>
      <trkpt lat="41.09102" lon="20.00299">
        <ele>164.767982</ele>
        <time>2022-05-03T08:09:31.608Z</time>
      </trkpt>
      <trkpt lat="41.09094" lon="20.00287">
        <ele>164.524075</ele>
        <time>2022-05-03T08:09:34.601Z</time>
      </trkpt>
      <trkpt lat="41.09086" lon="20.00276">
        <ele>164.275636</ele>
        <time>2022-05-03T08:09:37.604Z</time>
      </trkpt>
      <trkpt lat="41.09077" lon="20.00265">
        <ele>164.020406</ele>
        <time>2022-05-03T08:09:40.645Z</time>
      </trkpt>
      <trkpt lat="41.09066" lon="20.00255">
        <ele>163.745373</ele>
        <time>2022-05-03T08:09:43.614Z</time>
      </trkpt>
      <trkpt lat="41.09058" lon="20.00248">
        <ele>163.550645</ele>
        <time>2022-05-03T08:09:45.604Z</time>
      </trkpt>
      <trkpt lat="41.09047" lon="20.00238">
        <ele>163.276829</ele>
        <time>2022-05-03T08:09:48.599Z</time>
      </trkpt>
      <trkpt lat="41.09039" lon="20.00231">
        <ele>163.076906</ele>
        <time>2022-05-03T08:09:50.621Z</time>
      </trkpt>
      <trkpt lat="41.09031" lon="20.00224">
        <ele>162.86567</ele>
        <time>2022-05-03T08:09:52.616Z</time>
      </trkpt>
      <trkpt lat="41.09023" lon="20.00217">
        <ele>162.662269</ele>
        <time>2022-05-03T08:09:54.604Z</time>
      </trkpt>
      <trkpt lat="41.09014" lon="20.00209">
        <ele>162.09306</ele>
        <time>2022-05-03T08:09:56.622Z</time>
      </trkpt>
      <trkpt lat="41.09005" lon="20.00202">
        <ele>161.499611</ele>
        <time>2022-05-03T08:09:58.631Z</time>
      </trkpt>
      <trkpt lat="41.08997" lon="20.00195">
        <ele>160.920225</ele>
        <time>2022-05-03T08:10:00.605Z</time>
      </trkpt>
      <trkpt lat="41.08988" lon="20.00188">
        <ele>160.356091</ele>
        <time>2022-05-03T08:10:02.619Z</time>
      </trkpt>
      <trkpt lat="41.0898" lon="20.00181">
        <ele>159.791318</ele>
        <time>2022-05-03T08:10:04.604Z</time>
      </trkpt>
      <trkpt lat="41.08971" lon="20.00174">
        <ele>159.197614</ele>
        <time>2022-05-03T08:10:06.610Z</time>
      </trkpt>
      <trkpt lat="41.08963" lon="20.00167">
        <ele>158.6138</ele>
        <time>2022-05-03T08:10:08.605Z</time>
      </trkpt>
      <trkpt lat="41.08954" lon="20.0016">
        <ele>158.043275</ele>
        <time>2022-05-03T08:10:10.595Z</time>
      </trkpt>
      <trkpt lat="41.08945" lon="20.00154">
        <ele>157.45565</ele>
        <time>2022-05-03T08:10:12.605Z</time>
      </trkpt>
      <trkpt lat="41.08936" lon="20.00147">
        <ele>156.863706</ele>
        <time>2022-05-03T08:10:14.639Z</time>
      </trkpt>
      <trkpt lat="41.08927" lon="20.0014">
        <ele>156.278204</ele>
        <time>2022-05-03T08:10:16.603Z</time>
      </trkpt>
      <trkpt lat="41.08919" lon="20.00133">
        <ele>155.701069</ele>
        <time>2022-05-03T08:10:18.602Z</time>
      </trkpt>
      <trkpt lat="41.0891" lon="20.00126">
        <ele>155.111295</ele>
        <time>2022-05-03T08:10:20.615Z</time>
      </trkpt>
      <trkpt lat="41.08901" lon="20.0012">
        <ele>154.532917</ele>
        <time>2022-05-03T08:10:22.610Z</time>
      </trkpt>
      <trkpt lat="41.08892" lon="20.00113">
        <ele>153.941789</ele>
        <time>2022-05-03T08:10:24.610Z</time>
      </trkpt>
      <trkpt lat="41.08884" lon="20.00105">
        <ele>153.343332</ele>
        <time>2022-05-03T08:10:26.589Z</time>
      </trkpt>
      <trkpt lat="41.08875" lon="20.00097">
        <ele>152.752063</ele>
        <time>2022-05-03T08:10:28.596Z</time>
      </trkpt>
      <trkpt lat="41.08867" lon="20.00089">
        <ele>152.245889</ele>
        <time>2022-05-03T08:10:30.594Z</time>
      </trkpt>
      <trkpt lat="41.08858" lon="20.00081">
        <ele>151.96865</ele>
        <time>2022-05-03T08:10:32.612Z</time>
      </trkpt>
      <trkpt lat="41.0885" lon="20.00072">
        <ele>151.684188</ele>
        <time>2022-05-03T08:10:34.618Z</time>
      </trkpt>
      <trkpt lat="41.08841" lon="20.00062">
        <ele>151.399271</ele>
        <time>2022-05-03T08:10:36.651Z</time>
      </trkpt>
      <trkpt lat="41.08833" lon="20.00053">
        <ele>151.12363</ele>
        <time>2022-05-03T08:10:38.601Z</time>
      </trkpt>
      <trkpt lat="41.08826" lon="20.00044">
        <ele>150.85381</ele>
        <time>2022-05-03T08:10:40.599Z</time>
      </trkpt>
      <trkpt lat="41.08818" lon="20.00035">
        <ele>150.580813</ele>
        <time>2022-05-03T08:10:42.650Z</time>
      </trkpt>
      <trkpt lat="41.0881" lon="20.00025">
        <ele>150.301712</ele>
        <time>2022-05-03T08:10:44.599Z</time>
      </trkpt>
      <trkpt lat="41.08802" lon="20.00016">
        <ele>150.028051</ele>
        <time>2022-05-03T08:10:46.605Z</time>
      </trkpt>
      <trkpt lat="41.08794" lon="20.00007">
        <ele>149.744586</ele>
        <time>2022-05-03T08:10:48.600Z</time>
      </trkpt>
      <trkpt lat="41.08785" lon="19.99997">
        <ele>149.44375</ele>
        <time>2022-05-03T08:10:50.613Z</time>
      </trkpt>
      <trkpt lat="41.08777" lon="19.99989">
        <ele>149.180967</ele>
        <time>2022-05-03T08:10:52.619Z</time>
      </trkpt>
      <trkpt lat="41.08769" lon="19.9998">
        <ele>148.908595</ele>
        <time>2022-05-03T08:10:54.613Z</time>
      </trkpt>
      <trkpt lat="41.08761" lon="19.9997">
        <ele>148.620518</ele>
        <time>2022-05-03T08:10:56.612Z</time>
      </trkpt>
      <trkpt lat="41.08753" lon="19.9996">
        <ele>148.320534</ele>
        <time>2022-05-03T08:10:58.603Z</time>
      </trkpt>
      <trkpt lat="41.08745" lon="19.9995">
        <ele>148.038353</ele>
        <time>2022-05-03T08:11:00.614Z</time>
      </trkpt>
      <trkpt lat="41.08736" lon="19.99941">
        <ele>147.752293</ele>
        <time>2022-05-03T08:11:02.611Z</time>
      </trkpt>
      <trkpt lat="41.08728" lon="19.99932">
        <ele>147.631004</ele>
        <time>2022-05-03T08:11:04.649Z</time>
      </trkpt>
      <trkpt lat="41.08719" lon="19.99923">
        <ele>147.667991</ele>
        <time>2022-05-03T08:11:06.611Z</time>
      </trkpt>
      <trkpt lat="41.08712" lon="19.99914">
        <ele>147.701263</ele>
        <time>2022-05-03T08:11:08.613Z</time>
      </trkpt>
      <trkpt lat="41.08704" lon="19.99905">
        <ele>147.735058</ele>
        <time>2022-05-03T08:11:10.583Z</time>
      </trkpt>
      <trkpt lat="41.08696" lon="19.99897">
        <ele>147.767761</ele>
        <time>2022-05-03T08:11:12.615Z</time>
      </trkpt>
      <trkpt lat="41.08689" lon="19.9989">
        <ele>147.797692</ele>
        <time>2022-05-03T08:11:14.643Z</time>
      </trkpt>
      <trkpt lat="41.08679" lon="19.99879">
        <ele>147.840864</ele>
        <time>2022-05-03T08:11:17.612Z</time>
      </trkpt>
      <trkpt lat="41.0867" lon="19.99868">
        <ele>147.883039</ele>
        <time>2022-05-03T08:11:20.608Z</time>
      </trkpt>
      <trkpt lat="41.0866" lon="19.99859">
        <ele>147.923174</ele>
        <time>2022-05-03T08:11:23.616Z</time>
      </trkpt>
      <trkpt lat="41.08649" lon="19.9985">
        <ele>147.96504</ele>
        <time>2022-05-03T08:11:26.644Z</time>
      </trkpt>
      <trkpt lat="41.08639" lon="19.99841">
        <ele>148.007169</ele>
        <time>2022-05-03T08:11:29.618Z</time>
      </trkpt>
      <trkpt lat="41.08631" lon="19.99835">
        <ele>148.038696</ele>
        <time>2022-05-03T08:11:31.613Z</time>
      </trkpt>
      <trkpt lat="41.08622" lon="19.99829">
        <ele>148.069872</ele>
        <time>2022-05-03T08:11:33.609Z</time>
      </trkpt>
      <trkpt lat="41.08614" lon="19.99823">
        <ele>148.100102</ele>
        <time>2022-05-03T08:11:35.598Z</time>
      </trkpt>
      <trkpt lat="41.08606" lon="19.99818">
        <ele>148.131279</ele>
        <time>2022-05-03T08:11:37.642Z</time>
      </trkpt>
      <trkpt lat="41.08598" lon="19.99811">
        <ele>148.164126</ele>
        <time>2022-05-03T08:11:39.610Z</time>
      </trkpt>
      <trkpt lat="41.0859" lon="19.99805">
        <ele>148.195404</ele>
        <time>2022-05-03T08:11:41.607Z</time>
      </trkpt>
      <trkpt lat="41.08582" lon="19.99799">
        <ele>148.33679</ele>
        <time>2022-05-03T08:11:43.651Z</time>
      </trkpt>
      <trkpt lat="41.08574" lon="19.99792">
        <ele>148.65895</ele>
        <time>2022-05-03T08:11:45.628Z</time>
      </trkpt>
      <trkpt lat="41.08566" lon="19.99786">
        <ele>148.971049</ele>
        <time>2022-05-03T08:11:47.616Z</time>
      </trkpt>
      <trkpt lat="41.08559" lon="19.99779">
        <ele>149.288939</ele>
        <time>2022-05-03T08:11:49.610Z</time>
      </trkpt>
      <trkpt lat="41.08552" lon="19.99769">
        <ele>149.623989</ele>
        <time>2022-05-03T08:11:51.622Z</time>
      </trkpt>
      <trkpt lat="41.08544" lon="19.99761">
        <ele>149.958436</ele>
        <time>2022-05-03T08:11:53.619Z</time>
      </trkpt>
      <trkpt lat="41.08537" lon="19.99754">
        <ele>150.279582</ele>
        <time>2022-05-03T08:11:55.612Z</time>
      </trkpt>
      <trkpt lat="41.08527" lon="19.99743">
        <ele>150.710245</ele>
        <time>2022-05-03T08:11:58.615Z</time>
      </trkpt>
      <trkpt lat="41.08519" lon="19.99732">
        <ele>151.119621</ele>
        <time>2022-05-03T08:12:01.616Z</time>
      </trkpt>
      <trkpt lat="41.0851" lon="19.99719">
        <ele>151.552703</ele>
        <time>2022-05-03T08:12:04.622Z</time>
      </trkpt>
      <trkpt lat="41.08502" lon="19.99706">
        <ele>151.997376</ele>
        <time>2022-05-03T08:12:07.613Z</time>
      </trkpt>
      <trkpt lat="41.08495" lon="19.99693">
        <ele>152.419353</ele>
        <time>2022-05-03T08:12:10.603Z</time>
      </trkpt>
      <trkpt lat="41.08489" lon="19.99679">
        <ele>152.826169</ele>
        <time>2022-05-03T08:12:13.613Z</time>
      </trkpt>
      <trkpt lat="41.08483" lon="19.99665">
        <ele>153.235035</ele>
        <time>2022-05-03T08:12:16.618Z</time>
      </trkpt>
      <trkpt lat="41.08478" lon="19.99651">
        <ele>153.653893</ele>
        <time>2022-05-03T08:12:19.615Z</time>
      </trkpt>
      <trkpt lat="41.08473" lon="19.99637">
        <ele>154.051935</ele>
        <time>2022-05-03T08:12:22.613Z</time>
      </trkpt>
      <trkpt lat="41.08467" lon="19.99622">
        <ele>154.48721</ele>
        <time>2022-05-03T08:12:25.605Z</time>
      </trkpt>
      <trkpt lat="41.08462" lon="19.99608">
        <ele>154.935134</ele>
        <time>2022-05-03T08:12:28.646Z</time>
      </trkpt>
      <trkpt lat="41.08457" lon="19.99595">
        <ele>155.36187</ele>
        <time>2022-05-03T08:12:31.604Z</time>
      </trkpt>
      <trkpt lat="41.08452" lon="19.99581">
        <ele>155.792097</ele>
        <time>2022-05-03T08:12:34.650Z</time>
      </trkpt>
      <trkpt lat="41.08446" lon="19.99569">
        <ele>156.194597</ele>
        <time>2022-05-03T08:12:37.625Z</time>
      </trkpt>
      <trkpt lat="41.08441" lon="19.99556">
        <ele>156.61288</ele>
        <time>2022-05-03T08:12:40.607Z</time>
      </trkpt>
      <trkpt lat="41.08436" lon="19.99542">
        <ele>157.04044</ele>
        <time>2022-05-03T08:12:43.620Z</time>
      </trkpt>
      <trkpt lat="41.08431" lon="19.9953">
        <ele>157.435956</ele>
        <time>2022-05-03T08:12:46.619Z</time>
      </trkpt>
      <trkpt lat="41.08426" lon="19.99518">
        <ele>157.826661</ele>
        <time>2022-05-03T08:12:49.604Z</time>
      </trkpt>
      <trkpt lat="41.08422" lon="19.99506">
        <ele>158.207051</ele>
        <time>2022-05-03T08:12:52.605Z</time>
      </trkpt>
      <trkpt lat="41.08417" lon="19.99494">
        <ele>158.584333</ele>
        <time>2022-05-03T08:12:55.610Z</time>
      </trkpt>
      <trkpt lat="41.08412" lon="19.99482">
        <ele>158.967234</ele>
        <time>2022-05-03T08:12:58.620Z</time>
      </trkpt>
      <trkpt lat="41.08407" lon="19.99471">
        <ele>159.328373</ele>
        <time>2022-05-03T08:13:01.606Z</time>
      </trkpt>
      <trkpt lat="41.08402" lon="19.9946">
        <ele>159.710512</ele>
        <time>2022-05-03T08:13:04.616Z</time>
      </trkpt>
      <trkpt lat="41.08397" lon="19.99448">
        <ele>160.108165</ele>
        <time>2022-05-03T08:13:07.623Z</time>
      </trkpt>
      <trkpt lat="41.0839" lon="19.99436">
        <ele>160.506153</ele>
        <time>2022-05-03T08:13:10.615Z</time>
      </trkpt>
      <trkpt lat="41.08382" lon="19.99426">
        <ele>160.92559</ele>
        <time>2022-05-03T08:13:13.608Z</time>
      </trkpt>
      <trkpt lat="41.08374" lon="19.99416">
        <ele>160.979846</ele>
        <time>2022-05-03T08:13:16.614Z</time>
      </trkpt>
      <trkpt lat="41.08366" lon="19.99406">
        <ele>160.583631</ele>
        <time>2022-05-03T08:13:19.608Z</time>
      </trkpt>
      <trkpt lat="41.08358" lon="19.99395">
        <ele>160.181918</ele>
        <time>2022-05-03T08:13:22.624Z</time>
      </trkpt>
      <trkpt lat="41.0835" lon="19.99385">
        <ele>159.800554</ele>
        <time>2022-05-03T08:13:25.620Z</time>
      </trkpt>
      <trkpt lat="41.08341" lon="19.99375">
        <ele>159.40025</ele>
        <time>2022-05-03T08:13:28.622Z</time>
      </trkpt>
      <trkpt lat="41.08333" lon="19.99366">
        <ele>159.026864</ele>
        <time>2022-05-03T08:13:31.624Z</time>
      </trkpt>
      <trkpt lat="41.08323" lon="19.99357">
        <ele>158.613561</ele>
        <time>2022-05-03T08:13:34.617Z</time>
      </trkpt>
      <trkpt lat="41.08313" lon="19.99348">
        <ele>158.194396</ele>
        <time>2022-05-03T08:13:37.632Z</time>
      </trkpt>
      <trkpt lat="41.08302" lon="19.9934">
        <ele>157.74737</ele>
        <time>2022-05-03T08:13:40.634Z</time>
      </trkpt>
      <trkpt lat="41.08294" lon="19.99333">
        <ele>157.41972</ele>
        <time>2022-05-03T08:13:42.615Z</time>
      </trkpt>
      <trkpt lat="41.08286" lon="19.99325">
        <ele>157.067485</ele>
        <time>2022-05-03T08:13:44.620Z</time>
      </trkpt>
      <trkpt lat="41.08278" lon="19.99317">
        <ele>156.71479</ele>
        <time>2022-05-03T08:13:46.645Z</time>
      </trkpt>
      <trkpt lat="41.0827" lon="19.99309">
        <ele>156.362239</ele>
        <time>2022-05-03T08:13:48.640Z</time>
      </trkpt>
      <trkpt lat="41.08262" lon="19.99299">
        <ele>155.978338</ele>
        <time>2022-05-03T08:13:50.600Z</time>
      </trkpt>
      <trkpt lat="41.08254" lon="19.99289">
        <ele>155.589322</ele>
        <time>2022-05-03T08:13:52.618Z</time>
      </trkpt>
      <trkpt lat="41.08246" lon="19.99278">
        <ele>155.196884</ele>
        <time>2022-05-03T08:13:54.613Z</time>
      </trkpt>
      <trkpt lat="41.08238" lon="19.99267">
        <ele>154.783636</ele>
        <time>2022-05-03T08:13:56.615Z</time>
      </trkpt>
      <trkpt lat="41.0823" lon="19.99255">
        <ele>154.388964</ele>
        <time>2022-05-03T08:13:58.601Z</time>
      </trkpt>
      <trkpt lat="41.08221" lon="19.99243">
        <ele>153.988146</ele>
        <time>2022-05-03T08:14:00.600Z</time>
      </trkpt>
      <trkpt lat="41.08212" lon="19.99231">
        <ele>153.583624</ele>
        <time>2022-05-03T08:14:02.631Z</time>
      </trkpt>
      <trkpt lat="41.08203" lon="19.99219">
        <ele>153.170169</ele>
        <time>2022-05-03T08:14:04.607Z</time>
      </trkpt>
      <trkpt lat="41.08193" lon="19.99208">
        <ele>152.75188</ele>
        <time>2022-05-03T08:14:06.606Z</time>
      </trkpt>
      <trkpt lat="41.08182" lon="19.99197">
        <ele>152.320246</ele>
        <time>2022-05-03T08:14:08.620Z</time>
      </trkpt>
      <trkpt lat="41.08171" lon="19.99186">
        <ele>151.872977</ele>
        <time>2022-05-03T08:14:10.660Z</time>
      </trkpt>
      <trkpt lat="41.0816" lon="19.99174">
        <ele>151.417656</ele>
        <time>2022-05-03T08:14:12.617Z</time>
      </trkpt>
      <trkpt lat="41.08149" lon="19.99162">
        <ele>150.960731</ele>
        <time>2022-05-03T08:14:14.616Z</time>
      </trkpt>
      <trkpt lat="41.08138" lon="19.99149">
        <ele>150.491921</ele>
        <time>2022-05-03T08:14:16.643Z</time>
      </trkpt>
      <trkpt lat="41.08127" lon="19.99136">
        <ele>150.008629</ele>
        <time>2022-05-03T08:14:18.611Z</time>
      </trkpt>
      <trkpt lat="41.08116" lon="19.99122">
        <ele>149.515559</ele>
        <time>2022-05-03T08:14:20.620Z</time>
      </trkpt>
      <trkpt lat="41.08106" lon="19.99107">
        <ele>149.057731</ele>
        <time>2022-05-03T08:14:22.617Z</time>
      </trkpt>
      <trkpt lat="41.08095" lon="19.99091">
        <ele>148.851489</ele>
        <time>2022-05-03T08:14:24.621Z</time>
      </trkpt>
      <trkpt lat="41.08086" lon="19.99073">
        <ele>148.641691</ele>
        <time>2022-05-03T08:14:26.653Z</time>
      </trkpt>
      <trkpt lat="41.08076" lon="19.99056">
        <ele>148.437255</ele>
        <time>2022-05-03T08:14:28.624Z</time>
      </trkpt>
      <trkpt lat="41.08067" lon="19.9904">
        <ele>148.235995</ele>
        <time>2022-05-03T08:14:30.645Z</time>
      </trkpt>
      <trkpt lat="41.08057" lon="19.99025">
        <ele>148.038543</ele>
        <time>2022-05-03T08:14:32.615Z</time>
      </trkpt>
      <trkpt lat="41.08046" lon="19.99011">
        <ele>147.839677</ele>
        <time>2022-05-03T08:14:34.620Z</time>
      </trkpt>
      <trkpt lat="41.08034" lon="19.98998">
        <ele>147.646796</ele>
        <time>2022-05-03T08:14:36.619Z</time>
      </trkpt>
      <trkpt lat="41.08022" lon="19.98987">
        <ele>147.456038</ele>
        <time>2022-05-03T08:14:38.618Z</time>
      </trkpt>
      <trkpt lat="41.0801" lon="19.98976">
        <ele>147.266543</ele>
        <time>2022-05-03T08:14:40.625Z</time>
      </trkpt>
      <trkpt lat="41.07998" lon="19.98967">
        <ele>147.082132</ele>
        <time>2022-05-03T08:14:42.625Z</time>
      </trkpt>
      <trkpt lat="41.07985" lon="19.98959">
        <ele>146.897667</ele>
        <time>2022-05-03T08:14:44.624Z</time>
      </trkpt>
      <trkpt lat="41.07971" lon="19.98952">
        <ele>146.622161</ele>
        <time>2022-05-03T08:14:46.629Z</time>
      </trkpt>
      <trkpt lat="41.07957" lon="19.98946">
        <ele>146.083257</ele>
        <time>2022-05-03T08:14:48.605Z</time>
      </trkpt>
      <trkpt lat="41.07943" lon="19.98939">
        <ele>145.560168</ele>
        <time>2022-05-03T08:14:50.617Z</time>
      </trkpt>
      <trkpt lat="41.0793" lon="19.98932">
        <ele>145.052133</ele>
        <time>2022-05-03T08:14:52.601Z</time>
      </trkpt>
      <trkpt lat="41.07917" lon="19.98923">
        <ele>144.542607</ele>
        <time>2022-05-03T08:14:54.641Z</time>
      </trkpt>
      <trkpt lat="41.07905" lon="19.98914">
        <ele>144.051416</ele>
        <time>2022-05-03T08:14:56.595Z</time>
      </trkpt>
      <trkpt lat="41.07893" lon="19.98904">
        <ele>143.554432</ele>
        <time>2022-05-03T08:14:58.612Z</time>
      </trkpt>
      <trkpt lat="41.07881" lon="19.98895">
        <ele>143.072197</ele>
        <time>2022-05-03T08:15:00.609Z</time>
      </trkpt>
      <trkpt lat="41.0787" lon="19.98885">
        <ele>142.584097</ele>
        <time>2022-05-03T08:15:02.618Z</time>
      </trkpt>
      <trkpt lat="41.07859" lon="19.98876">
        <ele>142.120741</ele>
        <time>2022-05-03T08:15:04.615Z</time>
      </trkpt>
      <trkpt lat="41.07848" lon="19.98868">
        <ele>141.661815</ele>
        <time>2022-05-03T08:15:06.605Z</time>
      </trkpt>
      <trkpt lat="41.07836" lon="19.98858">
        <ele>141.188611</ele>
        <time>2022-05-03T08:15:08.612Z</time>
      </trkpt>
      <trkpt lat="41.07825" lon="19.98849">
        <ele>140.706375</ele>
        <time>2022-05-03T08:15:10.600Z</time>
      </trkpt>
      <trkpt lat="41.07814" lon="19.98839">
        <ele>140.26771</ele>
        <time>2022-05-03T08:15:12.659Z</time>
      </trkpt>
      <trkpt lat="41.07803" lon="19.98828">
        <ele>139.920749</ele>
        <time>2022-05-03T08:15:14.591Z</time>
      </trkpt>
      <trkpt lat="41.07792" lon="19.98815">
        <ele>139.56223</ele>
        <time>2022-05-03T08:15:16.667Z</time>
      </trkpt>
      <trkpt lat="41.07781" lon="19.98803">
        <ele>139.204965</ele>
        <time>2022-05-03T08:15:18.619Z</time>
      </trkpt>
      <trkpt lat="41.07771" lon="19.98789">
        <ele>138.84485</ele>
        <time>2022-05-03T08:15:20.618Z</time>
      </trkpt>
      <trkpt lat="41.07761" lon="19.98776">
        <ele>138.484735</ele>
        <time>2022-05-03T08:15:22.607Z</time>
      </trkpt>
      <trkpt lat="41.0775" lon="19.98763">
        <ele>138.124129</ele>
        <time>2022-05-03T08:15:24.611Z</time>
      </trkpt>
      <trkpt lat="41.0774" lon="19.98749">
        <ele>137.764013</ele>
        <time>2022-05-03T08:15:26.614Z</time>
      </trkpt>
      <trkpt lat="41.0773" lon="19.98736">
        <ele>137.399466</ele>
        <time>2022-05-03T08:15:28.606Z</time>
      </trkpt>
      <trkpt lat="41.0772" lon="19.98723">
        <ele>137.050814</ele>
        <time>2022-05-03T08:15:30.663Z</time>
      </trkpt>
      <trkpt lat="41.07709" lon="19.98711">
        <ele>136.70925</ele>
        <time>2022-05-03T08:15:32.621Z</time>
      </trkpt>
      <trkpt lat="41.07699" lon="19.987">
        <ele>136.37644</ele>
        <time>2022-05-03T08:15:34.609Z</time>
      </trkpt>
      <trkpt lat="41.07689" lon="19.98689">
        <ele>136.045156</ele>
        <time>2022-05-03T08:15:36.614Z</time>
      </trkpt>
      <trkpt lat="41.07679" lon="19.98677">
        <ele>135.767238</ele>
        <time>2022-05-03T08:15:38.644Z</time>
      </trkpt>
      <trkpt lat="41.07668" lon="19.98666">
        <ele>135.57224</ele>
        <time>2022-05-03T08:15:40.587Z</time>
      </trkpt>
      <trkpt lat="41.07657" lon="19.98656">
        <ele>135.378403</ele>
        <time>2022-05-03T08:15:42.618Z</time>
      </trkpt>
      <trkpt lat="41.07647" lon="19.98646">
        <ele>135.190623</ele>
        <time>2022-05-03T08:15:44.619Z</time>
      </trkpt>
      <trkpt lat="41.07636" lon="19.98637">
        <ele>135.005273</ele>
        <time>2022-05-03T08:15:46.611Z</time>
      </trkpt>
      <trkpt lat="41.07626" lon="19.98628">
        <ele>134.826565</ele>
        <time>2022-05-03T08:15:48.619Z</time>
      </trkpt>
      <trkpt lat="41.07616" lon="19.9862">
        <ele>134.657455</ele>
        <time>2022-05-03T08:15:50.621Z</time>
      </trkpt>
      <trkpt lat="41.07606" lon="19.98613">
        <ele>134.498925</ele>
        <time>2022-05-03T08:15:52.604Z</time>
      </trkpt>
      <trkpt lat="41.07596" lon="19.98606">
        <ele>134.339353</ele>
        <time>2022-05-03T08:15:54.603Z</time>
      </trkpt>
      <trkpt lat="41.07586" lon="19.98601">
        <ele>134.18116</ele>
        <time>2022-05-03T08:15:56.612Z</time>
      </trkpt>
      <trkpt lat="41.07576" lon="19.98597">
        <ele>134.026412</ele>
        <time>2022-05-03T08:15:58.608Z</time>
      </trkpt>
      <trkpt lat="41.07566" lon="19.98594">
        <ele>133.872202</ele>
        <time>2022-05-03T08:16:00.598Z</time>
      </trkpt>
      <trkpt lat="41.07556" lon="19.98592">
        <ele>133.72567</ele>
        <time>2022-05-03T08:16:02.609Z</time>
      </trkpt>
      <trkpt lat="41.07546" lon="19.98591">
        <ele>133.586144</ele>
        <time>2022-05-03T08:16:04.619Z</time>
      </trkpt>
      <trkpt lat="41.07537" lon="19.98591">
        <ele>133.451177</ele>
        <time>2022-05-03T08:16:06.618Z</time>
      </trkpt>
      <trkpt lat="41.07523" lon="19.98593">
        <ele>133.258909</ele>
        <time>2022-05-03T08:16:09.626Z</time>
      </trkpt>
      <trkpt lat="41.07514" lon="19.98595">
        <ele>133.258729</ele>
        <time>2022-05-03T08:16:11.642Z</time>
      </trkpt>
      <trkpt lat="41.07501" lon="19.98598">
        <ele>133.286037</ele>
        <time>2022-05-03T08:16:14.607Z</time>
      </trkpt>
      <trkpt lat="41.07491" lon="19.98603">
        <ele>133.307062</ele>
        <time>2022-05-03T08:16:16.600Z</time>
      </trkpt>
      <trkpt lat="41.07482" lon="19.98607">
        <ele>133.32844</ele>
        <time>2022-05-03T08:16:18.605Z</time>
      </trkpt>
      <trkpt lat="41.07472" lon="19.9861">
        <ele>133.348999</ele>
        <time>2022-05-03T08:16:20.618Z</time>
      </trkpt>
      <trkpt lat="41.07462" lon="19.98613">
        <ele>133.370118</ele>
        <time>2022-05-03T08:16:22.656Z</time>
      </trkpt>
      <trkpt lat="41.07452" lon="19.98615">
        <ele>133.391846</ele>
        <time>2022-05-03T08:16:24.626Z</time>
      </trkpt>
      <trkpt lat="41.07441" lon="19.98617">
        <ele>133.413988</ele>
        <time>2022-05-03T08:16:26.603Z</time>
      </trkpt>
      <trkpt lat="41.07431" lon="19.98618">
        <ele>133.435371</ele>
        <time>2022-05-03T08:16:28.655Z</time>
      </trkpt>
      <trkpt lat="41.07422" lon="19.98617">
        <ele>133.455432</ele>
        <time>2022-05-03T08:16:30.600Z</time>
      </trkpt>
      <trkpt lat="41.07412" lon="19.98616">
        <ele>133.476333</ele>
        <time>2022-05-03T08:16:32.606Z</time>
      </trkpt>
      <trkpt lat="41.07401" lon="19.98612">
        <ele>133.49864</ele>
        <time>2022-05-03T08:16:34.590Z</time>
      </trkpt>
      <trkpt lat="41.07392" lon="19.98609">
        <ele>133.519284</ele>
        <time>2022-05-03T08:16:36.613Z</time>
      </trkpt>
      <trkpt lat="41.07383" lon="19.98604">
        <ele>133.5393</ele>
        <time>2022-05-03T08:16:38.617Z</time>
      </trkpt>
      <trkpt lat="41.07374" lon="19.98599">
        <ele>133.559429</ele>
        <time>2022-05-03T08:16:40.612Z</time>
      </trkpt>
      <trkpt lat="41.07365" lon="19.98593">
        <ele>133.580619</ele>
        <time>2022-05-03T08:16:42.612Z</time>
      </trkpt>
      <trkpt lat="41.07356" lon="19.98586">
        <ele>133.602001</ele>
        <time>2022-05-03T08:16:44.616Z</time>
      </trkpt>
      <trkpt lat="41.07348" lon="19.98579">
        <ele>133.614712</ele>
        <time>2022-05-03T08:16:46.617Z</time>
      </trkpt>
      <trkpt lat="41.07341" lon="19.9857">
        <ele>133.607171</ele>
        <time>2022-05-03T08:16:48.619Z</time>
      </trkpt>
      <trkpt lat="41.07333" lon="19.98562">
        <ele>133.599482</ele>
        <time>2022-05-03T08:16:50.625Z</time>
      </trkpt>
      <trkpt lat="41.07325" lon="19.98553">
        <ele>133.591888</ele>
        <time>2022-05-03T08:16:52.615Z</time>
      </trkpt>
      <trkpt lat="41.07318" lon="19.98543">
        <ele>133.583991</ele>
        <time>2022-05-03T08:16:54.632Z</time>
      </trkpt>
      <trkpt lat="41.07312" lon="19.98532">
        <ele>133.576282</ele>
        <time>2022-05-03T08:16:56.618Z</time>
      </trkpt>
      <trkpt lat="41.07305" lon="19.98521">
        <ele>133.568313</ele>
        <time>2022-05-03T08:16:58.616Z</time>
      </trkpt>
      <trkpt lat="41.07301" lon="19.9851">
        <ele>133.560839</ele>
        <time>2022-05-03T08:17:00.598Z</time>
      </trkpt>
      <trkpt lat="41.07297" lon="19.98497">
        <ele>133.55334</ele>
        <time>2022-05-03T08:17:02.722Z</time>
      </trkpt>
      <trkpt lat="41.07293" lon="19.98485">
        <ele>133.545678</ele>
        <time>2022-05-03T08:17:04.604Z</time>
      </trkpt>
      <trkpt lat="41.0729" lon="19.98473">
        <ele>133.538336</ele>
        <time>2022-05-03T08:17:06.617Z</time>
      </trkpt>
      <trkpt lat="41.07285" lon="19.98457">
        <ele>133.528631</ele>
        <time>2022-05-03T08:17:09.624Z</time>
      </trkpt>
      <trkpt lat="41.07279" lon="19.98442">
        <ele>133.51888</ele>
        <time>2022-05-03T08:17:12.648Z</time>
      </trkpt>
      <trkpt lat="41.07273" lon="19.98427">
        <ele>133.509448</ele>
        <time>2022-05-03T08:17:15.606Z</time>
      </trkpt>
      <trkpt lat="41.07268" lon="19.98417">
        <ele>133.502406</ele>
        <time>2022-05-03T08:17:17.603Z</time>
      </trkpt>
      <trkpt lat="41.07263" lon="19.98407">
        <ele>133.495289</ele>
        <time>2022-05-03T08:17:19.614Z</time>
      </trkpt>
      <trkpt lat="41.07258" lon="19.98396">
        <ele>133.488125</ele>
        <time>2022-05-03T08:17:21.596Z</time>
      </trkpt>
      <trkpt lat="41.07252" lon="19.98386">
        <ele>133.481109</ele>
        <time>2022-05-03T08:17:23.597Z</time>
      </trkpt>
      <trkpt lat="41.07246" lon="19.98378">
        <ele>133.182883</ele>
        <time>2022-05-03T08:17:25.641Z</time>
      </trkpt>
      <trkpt lat="41.07235" lon="19.98367">
        <ele>132.70725</ele>
        <time>2022-05-03T08:17:28.598Z</time>
      </trkpt>
      <trkpt lat="41.07227" lon="19.9836">
        <ele>132.365507</ele>
        <time>2022-05-03T08:17:30.595Z</time>
      </trkpt>
      <trkpt lat="41.07219" lon="19.98353">
        <ele>132.031104</ele>
        <time>2022-05-03T08:17:32.606Z</time>
      </trkpt>
      <trkpt lat="41.07211" lon="19.98347">
        <ele>131.706886</ele>
        <time>2022-05-03T08:17:34.616Z</time>
      </trkpt>
      <trkpt lat="41.07203" lon="19.98341">
        <ele>131.37448</ele>
        <time>2022-05-03T08:17:36.615Z</time>
      </trkpt>
      <trkpt lat="41.07195" lon="19.98335">
        <ele>131.03327</ele>
        <time>2022-05-03T08:17:38.596Z</time>
      </trkpt>
      <trkpt lat="41.07185" lon="19.98329">
        <ele>130.664532</ele>
        <time>2022-05-03T08:17:40.621Z</time>
      </trkpt>
      <trkpt lat="41.07176" lon="19.98322">
        <ele>130.297029</ele>
        <time>2022-05-03T08:17:42.610Z</time>
      </trkpt>
      <trkpt lat="41.07168" lon="19.98316">
        <ele>129.950488</ele>
        <time>2022-05-03T08:17:44.593Z</time>
      </trkpt>
      <trkpt lat="41.0716" lon="19.98309">
        <ele>129.614544</ele>
        <time>2022-05-03T08:17:46.647Z</time>
      </trkpt>
      <trkpt lat="41.07153" lon="19.98301">
        <ele>129.285604</ele>
        <time>2022-05-03T08:17:48.600Z</time>
      </trkpt>
      <trkpt lat="41.07145" lon="19.98292">
        <ele>128.937186</ele>
        <time>2022-05-03T08:17:50.608Z</time>
      </trkpt>
      <trkpt lat="41.07138" lon="19.98284">
        <ele>128.600018</ele>
        <time>2022-05-03T08:17:52.593Z</time>
      </trkpt>
      <trkpt lat="41.07131" lon="19.98277">
        <ele>128.269456</ele>
        <time>2022-05-03T08:17:54.606Z</time>
      </trkpt>
      <trkpt lat="41.07121" lon="19.98266">
        <ele>127.813415</ele>
        <time>2022-05-03T08:17:57.646Z</time>
      </trkpt>
      <trkpt lat="41.07112" lon="19.98256">
        <ele>127.402844</ele>
        <time>2022-05-03T08:18:00.614Z</time>
      </trkpt>
      <trkpt lat="41.07103" lon="19.98247">
        <ele>127.190659</ele>
        <time>2022-05-03T08:18:03.607Z</time>
      </trkpt>
      <trkpt lat="41.07094" lon="19.98236">
        <ele>127.608121</ele>
        <time>2022-05-03T08:18:06.616Z</time>
      </trkpt>
      <trkpt lat="41.07085" lon="19.98225">
        <ele>128.04647</ele>
        <time>2022-05-03T08:18:09.620Z</time>
      </trkpt>
      <trkpt lat="41.07076" lon="19.98214">
        <ele>128.477563</ele>
        <time>2022-05-03T08:18:12.602Z</time>
      </trkpt>
      <trkpt lat="41.07068" lon="19.98202">
        <ele>128.891611</ele>
        <time>2022-05-03T08:18:15.636Z</time>
      </trkpt>
      <trkpt lat="41.0706" lon="19.9819">
        <ele>129.305618</ele>
        <time>2022-05-03T08:18:18.619Z</time>
      </trkpt>
      <trkpt lat="41.07053" lon="19.98177">
        <ele>129.721639</ele>
        <time>2022-05-03T08:18:21.602Z</time>
      </trkpt>
      <trkpt lat="41.07047" lon="19.98165">
        <ele>130.104074</ele>
        <time>2022-05-03T08:18:24.618Z</time>
      </trkpt>
      <trkpt lat="41.0704" lon="19.98153">
        <ele>130.492742</ele>
        <time>2022-05-03T08:18:27.627Z</time>
      </trkpt>
      <trkpt lat="41.07033" lon="19.98142">
        <ele>130.873713</ele>
        <time>2022-05-03T08:18:30.631Z</time>
      </trkpt>
      <trkpt lat="41.07026" lon="19.98131">
        <ele>131.265863</ele>
        <time>2022-05-03T08:18:33.623Z</time>
      </trkpt>
      <trkpt lat="41.07018" lon="19.98122">
        <ele>131.642331</ele>
        <time>2022-05-03T08:18:36.665Z</time>
      </trkpt>
      <trkpt lat="41.07009" lon="19.98112">
        <ele>132.037985</ele>
        <time>2022-05-03T08:18:39.603Z</time>
      </trkpt>
      <trkpt lat="41.07" lon="19.98103">
        <ele>132.442845</ele>
        <time>2022-05-03T08:18:42.652Z</time>
      </trkpt>
      <trkpt lat="41.0699" lon="19.98093">
        <ele>132.853321</ele>
        <time>2022-05-03T08:18:45.606Z</time>
      </trkpt>
      <trkpt lat="41.0698" lon="19.98085">
        <ele>133.282588</ele>
        <time>2022-05-03T08:18:48.594Z</time>
      </trkpt>
      <trkpt lat="41.0697" lon="19.98075">
        <ele>133.200788</ele>
        <time>2022-05-03T08:18:51.642Z</time>
      </trkpt>
      <trkpt lat="41.06958" lon="19.98066">
        <ele>132.977917</ele>
        <time>2022-05-03T08:18:54.658Z</time>
      </trkpt>
      <trkpt lat="41.0695" lon="19.9806">
        <ele>132.822121</ele>
        <time>2022-05-03T08:18:56.601Z</time>
      </trkpt>
      <trkpt lat="41.06942" lon="19.98053">
        <ele>132.659082</ele>
        <time>2022-05-03T08:18:58.614Z</time>
      </trkpt>
      <trkpt lat="41.06933" lon="19.98046">
        <ele>132.487531</ele>
        <time>2022-05-03T08:19:00.636Z</time>
      </trkpt>
      <trkpt lat="41.06925" lon="19.98039">
        <ele>132.322438</ele>
        <time>2022-05-03T08:19:02.612Z</time>
      </trkpt>
      <trkpt lat="41.06917" lon="19.98032">
        <ele>132.153761</ele>
        <time>2022-05-03T08:19:04.629Z</time>
      </trkpt>
      <trkpt lat="41.06908" lon="19.98025">
        <ele>131.98221</ele>
        <time>2022-05-03T08:19:06.595Z</time>
      </trkpt>
      <trkpt lat="41.06895" lon="19.98015">
        <ele>131.727391</ele>
        <time>2022-05-03T08:19:09.612Z</time>
      </trkpt>
      <trkpt lat="41.06884" lon="19.98007">
        <ele>131.517103</ele>
        <time>2022-05-03T08:19:11.612Z</time>
      </trkpt>
      <trkpt lat="41.06873" lon="19.97999">
        <ele>131.3089</ele>
        <time>2022-05-03T08:19:13.616Z</time>
      </trkpt>
      <trkpt lat="41.06862" lon="19.97992">
        <ele>131.104172</ele>
        <time>2022-05-03T08:19:15.617Z</time>
      </trkpt>
      <trkpt lat="41.06851" lon="19.97984">
        <ele>130.893883</ele>
        <time>2022-05-03T08:19:17.658Z</time>
      </trkpt>
      <trkpt lat="41.0684" lon="19.97976">
        <ele>130.68177</ele>
        <time>2022-05-03T08:19:19.606Z</time>
      </trkpt>
      <trkpt lat="41.06829" lon="19.97968">
        <ele>130.470271</ele>
        <time>2022-05-03T08:19:21.608Z</time>
      </trkpt>
      <trkpt lat="41.06818" lon="19.9796">
        <ele>130.217547</ele>
        <time>2022-05-03T08:19:23.653Z</time>
      </trkpt>
      <trkpt lat="41.06807" lon="19.97952">
        <ele>129.893095</ele>
        <time>2022-05-03T08:19:25.630Z</time>
      </trkpt>
      <trkpt lat="41.06795" lon="19.97944">
        <ele>129.574863</ele>
        <time>2022-05-03T08:19:27.612Z</time>
      </trkpt>
      <trkpt lat="41.06785" lon="19.97937">
        <ele>129.268621</ele>
        <time>2022-05-03T08:19:29.591Z</time>
      </trkpt>
      <trkpt lat="41.06774" lon="19.9793">
        <ele>128.972988</ele>
        <time>2022-05-03T08:19:31.619Z</time>
      </trkpt>
      <trkpt lat="41.06763" lon="19.97922">
        <ele>128.662718</ele>
        <time>2022-05-03T08:19:33.621Z</time>
      </trkpt>
      <trkpt lat="41.06753" lon="19.97913">
        <ele>128.352088</ele>
        <time>2022-05-03T08:19:35.599Z</time>
      </trkpt>
      <trkpt lat="41.06743" lon="19.97905">
        <ele>128.051233</ele>
        <time>2022-05-03T08:19:37.593Z</time>
      </trkpt>
      <trkpt lat="41.06734" lon="19.97895">
        <ele>127.762234</ele>
        <time>2022-05-03T08:19:39.631Z</time>
      </trkpt>
      <trkpt lat="41.06726" lon="19.97886">
        <ele>127.496509</ele>
        <time>2022-05-03T08:19:41.609Z</time>
      </trkpt>
      <trkpt lat="41.06718" lon="19.97877">
        <ele>127.236982</ele>
        <time>2022-05-03T08:19:43.621Z</time>
      </trkpt>
      <trkpt lat="41.06711" lon="19.97869">
        <ele>126.993184</ele>
        <time>2022-05-03T08:19:45.640Z</time>
      </trkpt>
      <trkpt lat="41.06703" lon="19.97861">
        <ele>126.751957</ele>
        <time>2022-05-03T08:19:47.606Z</time>
      </trkpt>
      <trkpt lat="41.06696" lon="19.97853">
        <ele>126.523885</ele>
        <time>2022-05-03T08:19:49.612Z</time>
      </trkpt>
      <trkpt lat="41.06687" lon="19.97842">
        <ele>126.204739</ele>
        <time>2022-05-03T08:19:52.615Z</time>
      </trkpt>
      <trkpt lat="41.0668" lon="19.97833">
        <ele>125.976679</ele>
        <time>2022-05-03T08:19:54.639Z</time>
      </trkpt>
      <trkpt lat="41.06673" lon="19.97825">
        <ele>125.795496</ele>
        <time>2022-05-03T08:19:56.604Z</time>
      </trkpt>
      <trkpt lat="41.06666" lon="19.97817">
        <ele>125.730795</ele>
        <time>2022-05-03T08:19:58.610Z</time>
      </trkpt>
      <trkpt lat="41.06659" lon="19.97809">
        <ele>125.667282</ele>
        <time>2022-05-03T08:20:00.626Z</time>
      </trkpt>
      <trkpt lat="41.06652" lon="19.97801">
        <ele>125.605293</ele>
        <time>2022-05-03T08:20:02.603Z</time>
      </trkpt>
      <trkpt lat="41.06645" lon="19.97792">
        <ele>125.541945</ele>
        <time>2022-05-03T08:20:04.613Z</time>
      </trkpt>
      <trkpt lat="41.06639" lon="19.97784">
        <ele>125.4791</ele>
        <time>2022-05-03T08:20:06.622Z</time>
      </trkpt>
      <trkpt lat="41.06629" lon="19.97772">
        <ele>125.388754</ele>
        <time>2022-05-03T08:20:09.611Z</time>
      </trkpt>
      <trkpt lat="41.06619" lon="19.97761">
        <ele>125.300595</ele>
        <time>2022-05-03T08:20:12.610Z</time>
      </trkpt>
      <trkpt lat="41.06608" lon="19.9775">
        <ele>125.209491</ele>
        <time>2022-05-03T08:20:15.609Z</time>
      </trkpt>
      <trkpt lat="41.06598" lon="19.9774">
        <ele>125.120981</ele>
        <time>2022-05-03T08:20:18.614Z</time>
      </trkpt>
      <trkpt lat="41.06586" lon="19.9773">
        <ele>125.027744</ele>
        <time>2022-05-03T08:20:21.613Z</time>
      </trkpt>
      <trkpt lat="41.06578" lon="19.97723">
        <ele>124.960578</ele>
        <time>2022-05-03T08:20:23.598Z</time>
      </trkpt>
      <trkpt lat="41.06569" lon="19.97716">
        <ele>124.887603</ele>
        <time>2022-05-03T08:20:25.636Z</time>
      </trkpt>
      <trkpt lat="41.06559" lon="19.97709">
        <ele>124.814671</ele>
        <time>2022-05-03T08:20:27.662Z</time>
      </trkpt>
      <trkpt lat="41.06549" lon="19.97703">
        <ele>124.739087</ele>
        <time>2022-05-03T08:20:29.616Z</time>
      </trkpt>
      <trkpt lat="41.0654" lon="19.97697">
        <ele>124.668365</ele>
        <time>2022-05-03T08:20:31.610Z</time>
      </trkpt>
      <trkpt lat="41.0653" lon="19.97691">
        <ele>124.595761</ele>
        <time>2022-05-03T08:20:33.601Z</time>
      </trkpt>
      <trkpt lat="41.0652" lon="19.97686">
        <ele>124.292625</ele>
        <time>2022-05-03T08:20:35.615Z</time>
      </trkpt>
      <trkpt lat="41.06509" lon="19.97682">
        <ele>123.966979</ele>
        <time>2022-05-03T08:20:37.610Z</time>
      </trkpt>
      <trkpt lat="41.06498" lon="19.97677">
        <ele>123.630296</ele>
        <time>2022-05-03T08:20:39.611Z</time>
      </trkpt>
      <trkpt lat="41.06487" lon="19.97673">
        <ele>123.291492</ele>
        <time>2022-05-03T08:20:41.600Z</time>
      </trkpt>
      <trkpt lat="41.06475" lon="19.9767">
        <ele>122.949538</ele>
        <time>2022-05-03T08:20:43.615Z</time>
      </trkpt>
      <trkpt lat="41.06463" lon="19.97668">
        <ele>122.605771</ele>
        <time>2022-05-03T08:20:45.610Z</time>
      </trkpt>
      <trkpt lat="41.06451" lon="19.97666">
        <ele>122.248036</ele>
        <time>2022-05-03T08:20:47.612Z</time>
      </trkpt>
      <trkpt lat="41.06439" lon="19.97664">
        <ele>121.897546</ele>
        <time>2022-05-03T08:20:49.595Z</time>
      </trkpt>
      <trkpt lat="41.06427" lon="19.97663">
        <ele>121.545091</ele>
        <time>2022-05-03T08:20:51.642Z</time>
      </trkpt>
      <trkpt lat="41.06414" lon="19.97663">
        <ele>121.190459</ele>
        <time>2022-05-03T08:20:53.655Z</time>
      </trkpt>
      <trkpt lat="41.06401" lon="19.97662">
        <ele>120.818328</ele>
        <time>2022-05-03T08:20:55.611Z</time>
      </trkpt>
      <trkpt lat="41.06388" lon="19.97661">
        <ele>120.440587</ele>
        <time>2022-05-03T08:20:57.598Z</time>
      </trkpt>
      <trkpt lat="41.06375" lon="19.97661">
        <ele>120.068609</ele>
        <time>2022-05-03T08:20:59.610Z</time>
      </trkpt>
      <trkpt lat="41.06362" lon="19.9766">
        <ele>119.696631</ele>
        <time>2022-05-03T08:21:01.602Z</time>
      </trkpt>
      <trkpt lat="41.0635" lon="19.9766">
        <ele>119.344516</ele>
        <time>2022-05-03T08:21:03.611Z</time>
      </trkpt>
      <trkpt lat="41.06337" lon="19.9766">
        <ele>119.057041</ele>
        <time>2022-05-03T08:21:05.611Z</time>
      </trkpt>
      <trkpt lat="41.06325" lon="19.9766">
        <ele>118.771665</ele>
        <time>2022-05-03T08:21:07.613Z</time>
      </trkpt>
      <trkpt lat="41.06312" lon="19.97659">
        <ele>118.490908</ele>
        <time>2022-05-03T08:21:09.623Z</time>
      </trkpt>
      <trkpt lat="41.063" lon="19.97658">
        <ele>118.205201</ele>
        <time>2022-05-03T08:21:11.611Z</time>
      </trkpt>
      <trkpt lat="41.06288" lon="19.97656">
        <ele>117.93153</ele>
        <time>2022-05-03T08:21:13.610Z</time>
      </trkpt>
      <trkpt lat="41.06276" lon="19.97654">
        <ele>117.663674</ele>
        <time>2022-05-03T08:21:15.609Z</time>
      </trkpt>
      <trkpt lat="41.06264" lon="19.97652">
        <ele>117.389782</ele>
        <time>2022-05-03T08:21:17.624Z</time>
      </trkpt>
      <trkpt lat="41.06253" lon="19.9765">
        <ele>117.124693</ele>
        <time>2022-05-03T08:21:19.620Z</time>
      </trkpt>
      <trkpt lat="41.06242" lon="19.97646">
        <ele>116.875471</ele>
        <time>2022-05-03T08:21:21.656Z</time>
      </trkpt>
      <trkpt lat="41.06233" lon="19.97643">
        <ele>116.646121</ele>
        <time>2022-05-03T08:21:23.612Z</time>
      </trkpt>
      <trkpt lat="41.06224" lon="19.97639">
        <ele>116.431146</ele>
        <time>2022-05-03T08:21:25.620Z</time>
      </trkpt>
      <trkpt lat="41.06211" lon="19.97632">
        <ele>116.127116</ele>
        <time>2022-05-03T08:21:28.610Z</time>
      </trkpt>
      <trkpt lat="41.06203" lon="19.97627">
        <ele>115.91279</ele>
        <time>2022-05-03T08:21:30.609Z</time>
      </trkpt>
      <trkpt lat="41.06194" lon="19.97622">
        <ele>115.704088</ele>
        <time>2022-05-03T08:21:32.658Z</time>
      </trkpt>
      <trkpt lat="41.06185" lon="19.97616">
        <ele>115.47989</ele>
        <time>2022-05-03T08:21:34.620Z</time>
      </trkpt>
      <trkpt lat="41.06177" lon="19.97611">
        <ele>115.297118</ele>
        <time>2022-05-03T08:21:36.614Z</time>
      </trkpt>
      <trkpt lat="41.06169" lon="19.97604">
        <ele>115.260671</ele>
        <time>2022-05-03T08:21:38.644Z</time>
      </trkpt>
      <trkpt lat="41.06157" lon="19.97595">
        <ele>115.210113</ele>
        <time>2022-05-03T08:21:41.615Z</time>
      </trkpt>
      <trkpt lat="41.06146" lon="19.97587">
        <ele>115.162308</ele>
        <time>2022-05-03T08:21:44.612Z</time>
      </trkpt>
      <trkpt lat="41.06136" lon="19.97578">
        <ele>115.114461</ele>
        <time>2022-05-03T08:21:47.618Z</time>
      </trkpt>
      <trkpt lat="41.06125" lon="19.97569">
        <ele>115.06501</ele>
        <time>2022-05-03T08:21:50.611Z</time>
      </trkpt>
      <trkpt lat="41.06114" lon="19.9756">
        <ele>115.017019</ele>
        <time>2022-05-03T08:21:53.595Z</time>
      </trkpt>
      <trkpt lat="41.06103" lon="19.97551">
        <ele>114.966613</ele>
        <time>2022-05-03T08:21:56.614Z</time>
      </trkpt>
      <trkpt lat="41.06092" lon="19.97542">
        <ele>114.915882</ele>
        <time>2022-05-03T08:21:59.627Z</time>
      </trkpt>
      <trkpt lat="41.06084" lon="19.97536">
        <ele>114.881382</ele>
        <time>2022-05-03T08:22:01.620Z</time>
      </trkpt>
      <trkpt lat="41.06076" lon="19.97529">
        <ele>114.846589</ele>
        <time>2022-05-03T08:22:03.611Z</time>
      </trkpt>
      <trkpt lat="41.06068" lon="19.97524">
        <ele>114.81164</ele>
        <time>2022-05-03T08:22:05.623Z</time>
      </trkpt>
      <trkpt lat="41.06059" lon="19.97518">
        <ele>114.773987</ele>
        <time>2022-05-03T08:22:07.613Z</time>
      </trkpt>
      <trkpt lat="41.06051" lon="19.97512">
        <ele>114.73642</ele>
        <time>2022-05-03T08:22:09.617Z</time>
      </trkpt>
      <trkpt lat="41.06041" lon="19.97508">
        <ele>114.697102</ele>
        <time>2022-05-03T08:22:11.609Z</time>
      </trkpt>
      <trkpt lat="41.06031" lon="19.97504">
        <ele>114.657697</ele>
        <time>2022-05-03T08:22:13.630Z</time>
      </trkpt>
      <trkpt lat="41.06021" lon="19.975">
        <ele>114.61664</ele>
        <time>2022-05-03T08:22:15.609Z</time>
      </trkpt>
      <trkpt lat="41.0601" lon="19.97496">
        <ele>114.618171</ele>
        <time>2022-05-03T08:22:17.615Z</time>
      </trkpt>
      <trkpt lat="41.05998" lon="19.97493">
        <ele>114.619765</ele>
        <time>2022-05-03T08:22:19.611Z</time>
      </trkpt>
      <trkpt lat="41.05987" lon="19.97491">
        <ele>114.621397</ele>
        <time>2022-05-03T08:22:21.625Z</time>
      </trkpt>
      <trkpt lat="41.05975" lon="19.9749">
        <ele>114.623009</ele>
        <time>2022-05-03T08:22:23.646Z</time>
      </trkpt>
      <trkpt lat="41.05963" lon="19.9749">
        <ele>114.624604</ele>
        <time>2022-05-03T08:22:25.618Z</time>
      </trkpt>
      <trkpt lat="41.05952" lon="19.97491">
        <ele>114.6262</ele>
        <time>2022-05-03T08:22:27.611Z</time>
      </trkpt>
      <trkpt lat="41.0594" lon="19.97492">
        <ele>114.627853</ele>
        <time>2022-05-03T08:22:29.632Z</time>
      </trkpt>
      <trkpt lat="41.05928" lon="19.97493">
        <ele>114.629525</ele>
        <time>2022-05-03T08:22:31.608Z</time>
      </trkpt>
      <trkpt lat="41.05916" lon="19.97496">
        <ele>114.631216</ele>
        <time>2022-05-03T08:22:33.611Z</time>
      </trkpt>
      <trkpt lat="41.05903" lon="19.975">
        <ele>114.632977</ele>
        <time>2022-05-03T08:22:35.638Z</time>
      </trkpt>
      <trkpt lat="41.0589" lon="19.97503">
        <ele>114.63477</ele>
        <time>2022-05-03T08:22:37.612Z</time>
      </trkpt>
      <trkpt lat="41.05877" lon="19.97506">
        <ele>114.63659</ele>
        <time>2022-05-03T08:22:39.620Z</time>
      </trkpt>
      <trkpt lat="41.05864" lon="19.97507">
        <ele>114.638426</ele>
        <time>2022-05-03T08:22:41.626Z</time>
      </trkpt>
      <trkpt lat="41.0585" lon="19.97507">
        <ele>114.640283</ele>
        <time>2022-05-03T08:22:43.610Z</time>
      </trkpt>
      <trkpt lat="41.05837" lon="19.97506">
        <ele>114.490614</ele>
        <time>2022-05-03T08:22:45.644Z</time>
      </trkpt>
      <trkpt lat="41.05824" lon="19.97503">
        <ele>114.123374</ele>
        <time>2022-05-03T08:22:47.615Z</time>
      </trkpt>
      <trkpt lat="41.05812" lon="19.975">
        <ele>113.758612</ele>
        <time>2022-05-03T08:22:49.611Z</time>
      </trkpt>
      <trkpt lat="41.05799" lon="19.97495">
        <ele>113.374087</ele>
        <time>2022-05-03T08:22:51.600Z</time>
      </trkpt>
      <trkpt lat="41.05786" lon="19.97489">
        <ele>113.000811</ele>
        <time>2022-05-03T08:22:53.616Z</time>
      </trkpt>
      <trkpt lat="41.05775" lon="19.97483">
        <ele>112.647499</ele>
        <time>2022-05-03T08:22:55.616Z</time>
      </trkpt>
      <trkpt lat="41.05765" lon="19.97475">
        <ele>112.311044</ele>
        <time>2022-05-03T08:22:57.612Z</time>
      </trkpt>
      <trkpt lat="41.05755" lon="19.97467">
        <ele>111.986924</ele>
        <time>2022-05-03T08:22:59.619Z</time>
      </trkpt>
      <trkpt lat="41.05745" lon="19.9746">
        <ele>111.66739</ele>
        <time>2022-05-03T08:23:01.613Z</time>
      </trkpt>
      <trkpt lat="41.05736" lon="19.97452">
        <ele>111.355603</ele>
        <time>2022-05-03T08:23:03.614Z</time>
      </trkpt>
      <trkpt lat="41.05726" lon="19.97445">
        <ele>111.057173</ele>
        <time>2022-05-03T08:23:05.628Z</time>
      </trkpt>
      <trkpt lat="41.05717" lon="19.97438">
        <ele>110.754714</ele>
        <time>2022-05-03T08:23:07.632Z</time>
      </trkpt>
      <trkpt lat="41.05708" lon="19.9743">
        <ele>110.44145</ele>
        <time>2022-05-03T08:23:09.626Z</time>
      </trkpt>
      <trkpt lat="41.05698" lon="19.97423">
        <ele>110.124658</ele>
        <time>2022-05-03T08:23:11.617Z</time>
      </trkpt>
      <trkpt lat="41.05689" lon="19.97416">
        <ele>109.836326</ele>
        <time>2022-05-03T08:23:13.612Z</time>
      </trkpt>
      <trkpt lat="41.05681" lon="19.97409">
        <ele>109.54529</ele>
        <time>2022-05-03T08:23:15.622Z</time>
      </trkpt>
      <trkpt lat="41.05672" lon="19.97403">
        <ele>109.50163</ele>
        <time>2022-05-03T08:23:17.628Z</time>
      </trkpt>
      <trkpt lat="41.05663" lon="19.97396">
        <ele>109.460281</ele>
        <time>2022-05-03T08:23:19.627Z</time>
      </trkpt>
      <trkpt lat="41.05654" lon="19.97389">
        <ele>109.416556</ele>
        <time>2022-05-03T08:23:21.607Z</time>
      </trkpt>
      <trkpt lat="41.05646" lon="19.97383">
        <ele>109.373674</ele>
        <time>2022-05-03T08:23:23.619Z</time>
      </trkpt>
      <trkpt lat="41.05638" lon="19.97376">
        <ele>109.333056</ele>
        <time>2022-05-03T08:23:25.642Z</time>
      </trkpt>
      <trkpt lat="41.0563" lon="19.9737">
        <ele>109.293788</ele>
        <time>2022-05-03T08:23:27.621Z</time>
      </trkpt>
      <trkpt lat="41.05622" lon="19.97364">
        <ele>109.25563</ele>
        <time>2022-05-03T08:23:29.605Z</time>
      </trkpt>
      <trkpt lat="41.05613" lon="19.97358">
        <ele>109.21396</ele>
        <time>2022-05-03T08:23:31.612Z</time>
      </trkpt>
      <trkpt lat="41.05605" lon="19.97351">
        <ele>109.171712</ele>
        <time>2022-05-03T08:23:33.608Z</time>
      </trkpt>
      <trkpt lat="41.05597" lon="19.97345">
        <ele>109.131913</ele>
        <time>2022-05-03T08:23:35.605Z</time>
      </trkpt>
      <trkpt lat="41.05588" lon="19.97339">
        <ele>109.090361</ele>
        <time>2022-05-03T08:23:37.656Z</time>
      </trkpt>
      <trkpt lat="41.0558" lon="19.97333">
        <ele>109.048383</ele>
        <time>2022-05-03T08:23:39.616Z</time>
      </trkpt>
      <trkpt lat="41.05572" lon="19.97326">
        <ele>109.008098</ele>
        <time>2022-05-03T08:23:41.611Z</time>
      </trkpt>
      <trkpt lat="41.0556" lon="19.97317">
        <ele>108.95038</ele>
        <time>2022-05-03T08:23:44.598Z</time>
      </trkpt>
      <trkpt lat="41.05552" lon="19.9731">
        <ele>108.907966</ele>
        <time>2022-05-03T08:23:46.595Z</time>
      </trkpt>
      <trkpt lat="41.05543" lon="19.97303">
        <ele>108.866617</ele>
        <time>2022-05-03T08:23:48.646Z</time>
      </trkpt>
      <trkpt lat="41.05535" lon="19.97297">
        <ele>108.826167</ele>
        <time>2022-05-03T08:23:50.630Z</time>
      </trkpt>
      <trkpt lat="41.05527" lon="19.97291">
        <ele>108.785837</ele>
        <time>2022-05-03T08:23:52.612Z</time>
      </trkpt>
      <trkpt lat="41.05519" lon="19.97284">
        <ele>108.884753</ele>
        <time>2022-05-03T08:23:54.604Z</time>
      </trkpt>
      <trkpt lat="41.05511" lon="19.97278">
        <ele>109.02709</ele>
        <time>2022-05-03T08:23:56.610Z</time>
      </trkpt>
      <trkpt lat="41.05503" lon="19.97271">
        <ele>109.173949</ele>
        <time>2022-05-03T08:23:58.615Z</time>
      </trkpt>
      <trkpt lat="41.05492" lon="19.97262">
        <ele>109.371476</ele>
        <time>2022-05-03T08:24:01.630Z</time>
      </trkpt>
      <trkpt lat="41.05484" lon="19.97255">
        <ele>109.52156</ele>
        <time>2022-05-03T08:24:03.614Z</time>
      </trkpt>
      <trkpt lat="41.05476" lon="19.97249">
        <ele>109.669259</ele>
        <time>2022-05-03T08:24:05.642Z</time>
      </trkpt>
      <trkpt lat="41.05464" lon="19.97239">
        <ele>109.879702</ele>
        <time>2022-05-03T08:24:08.632Z</time>
      </trkpt>
      <trkpt lat="41.05453" lon="19.9723">
        <ele>110.084394</ele>
        <time>2022-05-03T08:24:11.609Z</time>
      </trkpt>
      <trkpt lat="41.05441" lon="19.97221">
        <ele>110.291141</ele>
        <time>2022-05-03T08:24:14.622Z</time>
      </trkpt>
      <trkpt lat="41.05433" lon="19.97215">
        <ele>110.431637</ele>
        <time>2022-05-03T08:24:16.636Z</time>
      </trkpt>
      <trkpt lat="41.05425" lon="19.97209">
        <ele>110.576685</ele>
        <time>2022-05-03T08:24:18.622Z</time>
      </trkpt>
      <trkpt lat="41.05417" lon="19.97202">
        <ele>110.723804</ele>
        <time>2022-05-03T08:24:20.632Z</time>
      </trkpt>
      <trkpt lat="41.05408" lon="19.97196">
        <ele>110.871693</ele>
        <time>2022-05-03T08:24:22.599Z</time>
      </trkpt>
      <trkpt lat="41.054" lon="19.9719">
        <ele>111.022636</ele>
        <time>2022-05-03T08:24:24.634Z</time>
      </trkpt>
      <trkpt lat="41.05392" lon="19.97183">
        <ele>111.163133</ele>
        <time>2022-05-03T08:24:26.611Z</time>
      </trkpt>
      <trkpt lat="41.05384" lon="19.97177">
        <ele>111.311589</ele>
        <time>2022-05-03T08:24:28.602Z</time>
      </trkpt>
      <trkpt lat="41.05375" lon="19.97171">
        <ele>111.458709</ele>
        <time>2022-05-03T08:24:30.615Z</time>
      </trkpt>
      <trkpt lat="41.05367" lon="19.97164">
        <ele>111.524471</ele>
        <time>2022-05-03T08:24:32.629Z</time>
      </trkpt>
      <trkpt lat="41.05359" lon="19.97158">
        <ele>111.478633</ele>
        <time>2022-05-03T08:24:34.607Z</time>
      </trkpt>
      <trkpt lat="41.05351" lon="19.97152">
        <ele>111.434664</ele>
        <time>2022-05-03T08:24:36.609Z</time>
      </trkpt>
      <trkpt lat="41.05339" lon="19.97143">
        <ele>111.37443</ele>
        <time>2022-05-03T08:24:39.620Z</time>
      </trkpt>
      <trkpt lat="41.05328" lon="19.97135">
        <ele>111.313203</ele>
        <time>2022-05-03T08:24:42.627Z</time>
      </trkpt>
      <trkpt lat="41.05317" lon="19.97126">
        <ele>111.251275</ele>
        <time>2022-05-03T08:24:45.612Z</time>
      </trkpt>
      <trkpt lat="41.05308" lon="19.9712">
        <ele>111.206827</ele>
        <time>2022-05-03T08:24:47.622Z</time>
      </trkpt>
      <trkpt lat="41.053" lon="19.97113">
        <ele>111.160584</ele>
        <time>2022-05-03T08:24:49.645Z</time>
      </trkpt>
      <trkpt lat="41.05292" lon="19.97107">
        <ele>111.115103</ele>
        <time>2022-05-03T08:24:51.615Z</time>
      </trkpt>
      <trkpt lat="41.05284" lon="19.971">
        <ele>111.071601</ele>
        <time>2022-05-03T08:24:53.614Z</time>
      </trkpt>
      <trkpt lat="41.05275" lon="19.97094">
        <ele>111.027694</ele>
        <time>2022-05-03T08:24:55.638Z</time>
      </trkpt>
      <trkpt lat="41.05268" lon="19.97088">
        <ele>110.985</ele>
        <time>2022-05-03T08:24:57.616Z</time>
      </trkpt>
      <trkpt lat="41.0526" lon="19.97082">
        <ele>110.940914</ele>
        <time>2022-05-03T08:24:59.604Z</time>
      </trkpt>
      <trkpt lat="41.05251" lon="19.97075">
        <ele>110.894671</ele>
        <time>2022-05-03T08:25:01.615Z</time>
      </trkpt>
      <trkpt lat="41.05243" lon="19.97069">
        <ele>110.848428</ele>
        <time>2022-05-03T08:25:03.614Z</time>
      </trkpt>
      <trkpt lat="41.05234" lon="19.97062">
        <ele>110.803796</ele>
        <time>2022-05-03T08:25:05.604Z</time>
      </trkpt>
      <trkpt lat="41.05226" lon="19.97055">
        <ele>110.756606</ele>
        <time>2022-05-03T08:25:07.640Z</time>
      </trkpt>
      <trkpt lat="41.05217" lon="19.97048">
        <ele>110.709456</ele>
        <time>2022-05-03T08:25:09.614Z</time>
      </trkpt>
      <trkpt lat="41.05209" lon="19.9704">
        <ele>110.96362</ele>
        <time>2022-05-03T08:25:11.689Z</time>
      </trkpt>
      <trkpt lat="41.05201" lon="19.97031">
        <ele>111.277183</ele>
        <time>2022-05-03T08:25:13.608Z</time>
      </trkpt>
      <trkpt lat="41.05193" lon="19.97023">
        <ele>111.597751</ele>
        <time>2022-05-03T08:25:15.620Z</time>
      </trkpt>
      <trkpt lat="41.05186" lon="19.97015">
        <ele>111.906102</ele>
        <time>2022-05-03T08:25:17.628Z</time>
      </trkpt>
      <trkpt lat="41.05179" lon="19.97006">
        <ele>112.214876</ele>
        <time>2022-05-03T08:25:19.607Z</time>
      </trkpt>
      <trkpt lat="41.05173" lon="19.96997">
        <ele>112.511231</ele>
        <time>2022-05-03T08:25:21.599Z</time>
      </trkpt>
      <trkpt lat="41.05164" lon="19.96984">
        <ele>112.927504</ele>
        <time>2022-05-03T08:25:24.643Z</time>
      </trkpt>
      <trkpt lat="41.05156" lon="19.96972">
        <ele>113.319554</ele>
        <time>2022-05-03T08:25:27.614Z</time>
      </trkpt>
      <trkpt lat="41.05149" lon="19.96959">
        <ele>113.694138</ele>
        <time>2022-05-03T08:25:30.620Z</time>
      </trkpt>
      <trkpt lat="41.05143" lon="19.96947">
        <ele>114.059863</ele>
        <time>2022-05-03T08:25:33.617Z</time>
      </trkpt>
      <trkpt lat="41.05136" lon="19.96933">
        <ele>114.447971</ele>
        <time>2022-05-03T08:25:36.616Z</time>
      </trkpt>
      <trkpt lat="41.05131" lon="19.96919">
        <ele>114.830167</ele>
        <time>2022-05-03T08:25:39.620Z</time>
      </trkpt>
      <trkpt lat="41.05125" lon="19.96905">
        <ele>115.203472</ele>
        <time>2022-05-03T08:25:42.611Z</time>
      </trkpt>
      <trkpt lat="41.05121" lon="19.96891">
        <ele>115.573789</ele>
        <time>2022-05-03T08:25:45.652Z</time>
      </trkpt>
      <trkpt lat="41.05117" lon="19.96875">
        <ele>115.957793</ele>
        <time>2022-05-03T08:25:48.664Z</time>
      </trkpt>
      <trkpt lat="41.05115" lon="19.96861">
        <ele>116.311692</ele>
        <time>2022-05-03T08:25:51.612Z</time>
      </trkpt>
      <trkpt lat="41.05112" lon="19.96847">
        <ele>116.597931</ele>
        <time>2022-05-03T08:25:54.624Z</time>
      </trkpt>
      <trkpt lat="41.05108" lon="19.96832">
        <ele>116.874277</ele>
        <time>2022-05-03T08:25:57.628Z</time>
      </trkpt>
      <trkpt lat="41.05105" lon="19.96817">
        <ele>117.161742</ele>
        <time>2022-05-03T08:26:00.599Z</time>
      </trkpt>
      <trkpt lat="41.05103" lon="19.968">
        <ele>117.455507</ele>
        <time>2022-05-03T08:26:03.606Z</time>
      </trkpt>
      <trkpt lat="41.051" lon="19.96784">
        <ele>117.742556</ele>
        <time>2022-05-03T08:26:06.646Z</time>
      </trkpt>
      <trkpt lat="41.05098" lon="19.96769">
        <ele>118.023004</ele>
        <time>2022-05-03T08:26:09.601Z</time>
      </trkpt>
      <trkpt lat="41.05095" lon="19.96753">
        <ele>118.308329</ele>
        <time>2022-05-03T08:26:12.610Z</time>
      </trkpt>
      <trkpt lat="41.05092" lon="19.96738">
        <ele>118.578161</ele>
        <time>2022-05-03T08:26:15.637Z</time>
      </trkpt>
      <trkpt lat="41.0509" lon="19.96723">
        <ele>118.84777</ele>
        <time>2022-05-03T08:26:18.594Z</time>
      </trkpt>
      <trkpt lat="41.05088" lon="19.96709">
        <ele>119.102639</ele>
        <time>2022-05-03T08:26:21.612Z</time>
      </trkpt>
      <trkpt lat="41.05087" lon="19.96696">
        <ele>119.340643</ele>
        <time>2022-05-03T08:26:24.626Z</time>
      </trkpt>
      <trkpt lat="41.05085" lon="19.96682">
        <ele>119.593777</ele>
        <time>2022-05-03T08:26:27.606Z</time>
      </trkpt>
      <trkpt lat="41.05082" lon="19.96667">
        <ele>119.855205</ele>
        <time>2022-05-03T08:26:30.616Z</time>
      </trkpt>
      <trkpt lat="41.0508" lon="19.96653">
        <ele>120.113129</ele>
        <time>2022-05-03T08:26:33.652Z</time>
      </trkpt>
      <trkpt lat="41.05078" lon="19.96639">
        <ele>120.362797</ele>
        <time>2022-05-03T08:26:36.624Z</time>
      </trkpt>
      <trkpt lat="41.05077" lon="19.96625">
        <ele>120.608169</ele>
        <time>2022-05-03T08:26:39.612Z</time>
      </trkpt>
      <trkpt lat="41.05076" lon="19.96611">
        <ele>120.772645</ele>
        <time>2022-05-03T08:26:42.614Z</time>
      </trkpt>
      <trkpt lat="41.05075" lon="19.96596">
        <ele>120.927086</ele>
        <time>2022-05-03T08:26:45.614Z</time>
      </trkpt>
      <trkpt lat="41.05073" lon="19.96581">
        <ele>121.084737</ele>
        <time>2022-05-03T08:26:48.626Z</time>
      </trkpt>
      <trkpt lat="41.05073" lon="19.96565">
        <ele>121.243179</ele>
        <time>2022-05-03T08:26:51.613Z</time>
      </trkpt>
      <trkpt lat="41.05072" lon="19.9655">
        <ele>121.399371</ele>
        <time>2022-05-03T08:26:54.640Z</time>
      </trkpt>
      <trkpt lat="41.05071" lon="19.96535">
        <ele>121.554725</ele>
        <time>2022-05-03T08:26:57.614Z</time>
      </trkpt>
      <trkpt lat="41.0507" lon="19.9652">
        <ele>121.708948</ele>
        <time>2022-05-03T08:27:00.612Z</time>
      </trkpt>
      <trkpt lat="41.05069" lon="19.96503">
        <ele>121.885229</ele>
        <time>2022-05-03T08:27:03.658Z</time>
      </trkpt>
      <trkpt lat="41.05068" lon="19.96486">
        <ele>122.06756</ele>
        <time>2022-05-03T08:27:06.632Z</time>
      </trkpt>
      <trkpt lat="41.05067" lon="19.96468">
        <ele>122.252067</ele>
        <time>2022-05-03T08:27:09.609Z</time>
      </trkpt>
      <trkpt lat="41.05066" lon="19.96456">
        <ele>122.379528</ele>
        <time>2022-05-03T08:27:11.650Z</time>
      </trkpt>
      <trkpt lat="41.05065" lon="19.96443">
        <ele>122.50596</ele>
        <time>2022-05-03T08:27:13.624Z</time>
      </trkpt>
      <trkpt lat="41.05064" lon="19.96431">
        <ele>122.631155</ele>
        <time>2022-05-03T08:27:15.626Z</time>
      </trkpt>
      <trkpt lat="41.05064" lon="19.96419">
        <ele>122.757713</ele>
        <time>2022-05-03T08:27:17.625Z</time>
      </trkpt>
      <trkpt lat="41.05063" lon="19.96407">
        <ele>122.885174</ele>
        <time>2022-05-03T08:27:19.624Z</time>
      </trkpt>
      <trkpt lat="41.05062" lon="19.96395">
        <ele>123.009678</ele>
        <time>2022-05-03T08:27:21.621Z</time>
      </trkpt>
      <trkpt lat="41.05061" lon="19.96383">
        <ele>123.118894</ele>
        <time>2022-05-03T08:27:23.623Z</time>
      </trkpt>
      <trkpt lat="41.0506" lon="19.96365">
        <ele>123.20035</ele>
        <time>2022-05-03T08:27:26.619Z</time>
      </trkpt>
      <trkpt lat="41.05059" lon="19.96353">
        <ele>123.256492</ele>
        <time>2022-05-03T08:27:28.644Z</time>
      </trkpt>
      <trkpt lat="41.05058" lon="19.96341">
        <ele>123.311273</ele>
        <time>2022-05-03T08:27:30.615Z</time>
      </trkpt>
      <trkpt lat="41.05058" lon="19.96329">
        <ele>123.366919</ele>
        <time>2022-05-03T08:27:32.611Z</time>
      </trkpt>
      <trkpt lat="41.05057" lon="19.96316">
        <ele>123.422499</ele>
        <time>2022-05-03T08:27:34.609Z</time>
      </trkpt>
      <trkpt lat="41.05056" lon="19.96304">
        <ele>123.477839</ele>
        <time>2022-05-03T08:27:36.600Z</time>
      </trkpt>
      <trkpt lat="41.05056" lon="19.96292">
        <ele>123.535302</ele>
        <time>2022-05-03T08:27:38.628Z</time>
      </trkpt>
      <trkpt lat="41.05055" lon="19.96279">
        <ele>123.593813</ele>
        <time>2022-05-03T08:27:40.629Z</time>
      </trkpt>
      <trkpt lat="41.05054" lon="19.96266">
        <ele>123.65215</ele>
        <time>2022-05-03T08:27:42.600Z</time>
      </trkpt>
      <trkpt lat="41.05054" lon="19.96253">
        <ele>123.709512</ele>
        <time>2022-05-03T08:27:44.625Z</time>
      </trkpt>
      <trkpt lat="41.05054" lon="19.9624">
        <ele>123.768681</ele>
        <time>2022-05-03T08:27:46.669Z</time>
      </trkpt>
      <trkpt lat="41.05054" lon="19.96228">
        <ele>123.826968</ele>
        <time>2022-05-03T08:27:48.600Z</time>
      </trkpt>
      <trkpt lat="41.05055" lon="19.96215">
        <ele>123.886334</ele>
        <time>2022-05-03T08:27:50.621Z</time>
      </trkpt>
      <trkpt lat="41.05056" lon="19.96202">
        <ele>123.943999</ele>
        <time>2022-05-03T08:27:52.613Z</time>
      </trkpt>
      <trkpt lat="41.05057" lon="19.96189">
        <ele>124.001462</ele>
        <time>2022-05-03T08:27:54.596Z</time>
      </trkpt>
      <trkpt lat="41.05058" lon="19.96177">
        <ele>124.058222</ele>
        <time>2022-05-03T08:27:56.609Z</time>
      </trkpt>
      <trkpt lat="41.05059" lon="19.96165">
        <ele>124.114982</ele>
        <time>2022-05-03T08:27:58.611Z</time>
      </trkpt>
      <trkpt lat="41.05059" lon="19.96152">
        <ele>124.171082</ele>
        <time>2022-05-03T08:28:00.618Z</time>
      </trkpt>
      <trkpt lat="41.05061" lon="19.9614">
        <ele>124.124518</ele>
        <time>2022-05-03T08:28:02.612Z</time>
      </trkpt>
      <trkpt lat="41.05061" lon="19.96127">
        <ele>124.004999</ele>
        <time>2022-05-03T08:28:04.619Z</time>
      </trkpt>
      <trkpt lat="41.05062" lon="19.96115">
        <ele>123.888881</ele>
        <time>2022-05-03T08:28:06.616Z</time>
      </trkpt>
      <trkpt lat="41.05063" lon="19.96103">
        <ele>123.777237</ele>
        <time>2022-05-03T08:28:08.634Z</time>
      </trkpt>
      <trkpt lat="41.05065" lon="19.96086">
        <ele>123.61804</ele>
        <time>2022-05-03T08:28:11.609Z</time>
      </trkpt>
      <trkpt lat="41.05066" lon="19.96068">
        <ele>123.455542</ele>
        <time>2022-05-03T08:28:14.641Z</time>
      </trkpt>
      <trkpt lat="41.05067" lon="19.96051">
        <ele>123.295563</ele>
        <time>2022-05-03T08:28:17.607Z</time>
      </trkpt>
      <trkpt lat="41.05069" lon="19.96035">
        <ele>123.143193</ele>
        <time>2022-05-03T08:28:20.639Z</time>
      </trkpt>
      <trkpt lat="41.0507" lon="19.96019">
        <ele>122.995425</ele>
        <time>2022-05-03T08:28:23.599Z</time>
      </trkpt>
      <trkpt lat="41.05071" lon="19.96003">
        <ele>122.849368</ele>
        <time>2022-05-03T08:28:26.644Z</time>
      </trkpt>
      <trkpt lat="41.05072" lon="19.95987">
        <ele>122.703172</ele>
        <time>2022-05-03T08:28:29.621Z</time>
      </trkpt>
      <trkpt lat="41.05075" lon="19.95972">
        <ele>122.562529</ele>
        <time>2022-05-03T08:28:32.640Z</time>
      </trkpt>
      <trkpt lat="41.05078" lon="19.95957">
        <ele>122.416643</ele>
        <time>2022-05-03T08:28:35.605Z</time>
      </trkpt>
      <trkpt lat="41.05081" lon="19.9594">
        <ele>122.253109</ele>
        <time>2022-05-03T08:28:38.628Z</time>
      </trkpt>
      <trkpt lat="41.05084" lon="19.95929">
        <ele>122.142612</ele>
        <time>2022-05-03T08:28:40.628Z</time>
      </trkpt>
      <trkpt lat="41.05087" lon="19.95917">
        <ele>122.02921</ele>
        <time>2022-05-03T08:28:42.593Z</time>
      </trkpt>
      <trkpt lat="41.0509" lon="19.95906">
        <ele>121.831101</ele>
        <time>2022-05-03T08:28:44.602Z</time>
      </trkpt>
      <trkpt lat="41.05094" lon="19.95891">
        <ele>121.490528</ele>
        <time>2022-05-03T08:28:47.620Z</time>
      </trkpt>
      <trkpt lat="41.051" lon="19.95875">
        <ele>121.128555</ele>
        <time>2022-05-03T08:28:50.624Z</time>
      </trkpt>
      <trkpt lat="41.05104" lon="19.95864">
        <ele>120.879216</ele>
        <time>2022-05-03T08:28:52.602Z</time>
      </trkpt>
      <trkpt lat="41.05108" lon="19.95853">
        <ele>120.624414</ele>
        <time>2022-05-03T08:28:54.656Z</time>
      </trkpt>
      <trkpt lat="41.05113" lon="19.95843">
        <ele>120.364867</ele>
        <time>2022-05-03T08:28:56.621Z</time>
      </trkpt>
      <trkpt lat="41.05119" lon="19.95832">
        <ele>120.084596</ele>
        <time>2022-05-03T08:28:58.614Z</time>
      </trkpt>
      <trkpt lat="41.05125" lon="19.95821">
        <ele>119.797617</ele>
        <time>2022-05-03T08:29:00.613Z</time>
      </trkpt>
      <trkpt lat="41.05131" lon="19.9581">
        <ele>119.502148</ele>
        <time>2022-05-03T08:29:02.615Z</time>
      </trkpt>
      <trkpt lat="41.05138" lon="19.958">
        <ele>119.219402</ele>
        <time>2022-05-03T08:29:04.616Z</time>
      </trkpt>
      <trkpt lat="41.05145" lon="19.95791">
        <ele>118.949437</ele>
        <time>2022-05-03T08:29:06.614Z</time>
      </trkpt>
      <trkpt lat="41.05152" lon="19.95782">
        <ele>118.681647</ele>
        <time>2022-05-03T08:29:08.635Z</time>
      </trkpt>
      <trkpt lat="41.05158" lon="19.95773">
        <ele>118.426181</ele>
        <time>2022-05-03T08:29:10.619Z</time>
      </trkpt>
      <trkpt lat="41.05165" lon="19.95764">
        <ele>118.159343</ele>
        <time>2022-05-03T08:29:12.614Z</time>
      </trkpt>
      <trkpt lat="41.05171" lon="19.95755">
        <ele>117.89547</ele>
        <time>2022-05-03T08:29:14.619Z</time>
      </trkpt>
      <trkpt lat="41.05179" lon="19.95746">
        <ele>117.611851</ele>
        <time>2022-05-03T08:29:16.643Z</time>
      </trkpt>
      <trkpt lat="41.05186" lon="19.95737">
        <ele>117.332204</ele>
        <time>2022-05-03T08:29:18.620Z</time>
      </trkpt>
      <trkpt lat="41.05193" lon="19.95727">
        <ele>117.040192</ele>
        <time>2022-05-03T08:29:20.624Z</time>
      </trkpt>
      <trkpt lat="41.052" lon="19.95717">
        <ele>116.947788</ele>
        <time>2022-05-03T08:29:22.614Z</time>
      </trkpt>
      <trkpt lat="41.05208" lon="19.95707">
        <ele>116.9103</ele>
        <time>2022-05-03T08:29:24.605Z</time>
      </trkpt>
      <trkpt lat="41.05216" lon="19.95697">
        <ele>116.872502</ele>
        <time>2022-05-03T08:29:26.620Z</time>
      </trkpt>
      <trkpt lat="41.05224" lon="19.95687">
        <ele>116.835379</ele>
        <time>2022-05-03T08:29:28.654Z</time>
      </trkpt>
      <trkpt lat="41.05232" lon="19.95677">
        <ele>116.797463</ele>
        <time>2022-05-03T08:29:30.609Z</time>
      </trkpt>
      <trkpt lat="41.05239" lon="19.95667">
        <ele>116.759665</ele>
        <time>2022-05-03T08:29:32.651Z</time>
      </trkpt>
      <trkpt lat="41.05247" lon="19.95657">
        <ele>116.722904</ele>
        <time>2022-05-03T08:29:34.618Z</time>
      </trkpt>
      <trkpt lat="41.05255" lon="19.95646">
        <ele>116.684861</ele>
        <time>2022-05-03T08:29:36.622Z</time>
      </trkpt>
      <trkpt lat="41.05263" lon="19.95637">
        <ele>116.6481</ele>
        <time>2022-05-03T08:29:38.614Z</time>
      </trkpt>
      <trkpt lat="41.0527" lon="19.95627">
        <ele>116.61073</ele>
        <time>2022-05-03T08:29:40.612Z</time>
      </trkpt>
      <trkpt lat="41.05278" lon="19.95617">
        <ele>116.575318</ele>
        <time>2022-05-03T08:29:42.611Z</time>
      </trkpt>
      <trkpt lat="41.05285" lon="19.95607">
        <ele>116.539051</ele>
        <time>2022-05-03T08:29:44.622Z</time>
      </trkpt>
      <trkpt lat="41.05292" lon="19.95598">
        <ele>116.503639</ele>
        <time>2022-05-03T08:29:46.612Z</time>
      </trkpt>
      <trkpt lat="41.05299" lon="19.95588">
        <ele>116.469139</ele>
        <time>2022-05-03T08:29:48.610Z</time>
      </trkpt>
      <trkpt lat="41.05307" lon="19.95578">
        <ele>116.432872</ele>
        <time>2022-05-03T08:29:50.611Z</time>
      </trkpt>
      <trkpt lat="41.05314" lon="19.95569">
        <ele>116.396849</ele>
        <time>2022-05-03T08:29:52.617Z</time>
      </trkpt>
      <trkpt lat="41.05322" lon="19.95559">
        <ele>116.361052</ele>
        <time>2022-05-03T08:29:54.614Z</time>
      </trkpt>
      <trkpt lat="41.05329" lon="19.9555">
        <ele>116.352704</ele>
        <time>2022-05-03T08:29:56.615Z</time>
      </trkpt>
      <trkpt lat="41.05336" lon="19.95541">
        <ele>116.350129</ele>
        <time>2022-05-03T08:29:58.611Z</time>
      </trkpt>
      <trkpt lat="41.05343" lon="19.95533">
        <ele>116.347634</ele>
        <time>2022-05-03T08:30:00.605Z</time>
      </trkpt>
      <trkpt lat="41.05351" lon="19.95525">
        <ele>116.345158</ele>
        <time>2022-05-03T08:30:02.663Z</time>
      </trkpt>
      <trkpt lat="41.05358" lon="19.95517">
        <ele>116.34261</ele>
        <time>2022-05-03T08:30:04.647Z</time>
      </trkpt>
      <trkpt lat="41.05365" lon="19.95509">
        <ele>116.340062</ele>
        <time>2022-05-03T08:30:06.622Z</time>
      </trkpt>
      <trkpt lat="41.05373" lon="19.955">
        <ele>116.337407</ele>
        <time>2022-05-03T08:30:08.603Z</time>
      </trkpt>
      <trkpt lat="41.05381" lon="19.95492">
        <ele>116.334724</ele>
        <time>2022-05-03T08:30:10.618Z</time>
      </trkpt>
      <trkpt lat="41.05388" lon="19.95483">
        <ele>116.332156</ele>
        <time>2022-05-03T08:30:12.618Z</time>
      </trkpt>
      <trkpt lat="41.05395" lon="19.95475">
        <ele>116.329654</ele>
        <time>2022-05-03T08:30:14.633Z</time>
      </trkpt>
      <trkpt lat="41.05403" lon="19.95467">
        <ele>116.327052</ele>
        <time>2022-05-03T08:30:16.608Z</time>
      </trkpt>
      <trkpt lat="41.0541" lon="19.95459">
        <ele>116.324609</ele>
        <time>2022-05-03T08:30:18.623Z</time>
      </trkpt>
      <trkpt lat="41.05417" lon="19.95451">
        <ele>116.322112</ele>
        <time>2022-05-03T08:30:20.626Z</time>
      </trkpt>
      <trkpt lat="41.05425" lon="19.95443">
        <ele>116.319524</ele>
        <time>2022-05-03T08:30:22.603Z</time>
      </trkpt>
      <trkpt lat="41.05433" lon="19.95435">
        <ele>116.316811</ele>
        <time>2022-05-03T08:30:24.658Z</time>
      </trkpt>
      <trkpt lat="41.05442" lon="19.95427">
        <ele>116.314039</ele>
        <time>2022-05-03T08:30:26.632Z</time>
      </trkpt>
      <trkpt lat="41.05451" lon="19.95419">
        <ele>116.311146</ele>
        <time>2022-05-03T08:30:28.613Z</time>
      </trkpt>
      <trkpt lat="41.05459" lon="19.95412">
        <ele>116.30866</ele>
        <time>2022-05-03T08:30:30.652Z</time>
      </trkpt>
      <trkpt lat="41.0547" lon="19.95403">
        <ele>116.245769</ele>
        <time>2022-05-03T08:30:33.631Z</time>
      </trkpt>
      <trkpt lat="41.05478" lon="19.95396">
        <ele>116.168419</ele>
        <time>2022-05-03T08:30:35.605Z</time>
      </trkpt>
      <trkpt lat="41.05486" lon="19.95389">
        <ele>116.091758</ele>
        <time>2022-05-03T08:30:37.655Z</time>
      </trkpt>
      <trkpt lat="41.05494" lon="19.95382">
        <ele>116.016434</ele>
        <time>2022-05-03T08:30:39.601Z</time>
      </trkpt>
      <trkpt lat="41.05501" lon="19.95375">
        <ele>115.939632</ele>
        <time>2022-05-03T08:30:41.651Z</time>
      </trkpt>
      <trkpt lat="41.05509" lon="19.95367">
        <ele>115.860071</ele>
        <time>2022-05-03T08:30:43.615Z</time>
      </trkpt>
      <trkpt lat="41.05516" lon="19.95358">
        <ele>115.779271</ele>
        <time>2022-05-03T08:30:45.626Z</time>
      </trkpt>
      <trkpt lat="41.05524" lon="19.9535">
        <ele>115.703001</ele>
        <time>2022-05-03T08:30:47.616Z</time>
      </trkpt>
      <trkpt lat="41.05531" lon="19.95342">
        <ele>115.629656</ele>
        <time>2022-05-03T08:30:49.618Z</time>
      </trkpt>
      <trkpt lat="41.05537" lon="19.95334">
        <ele>115.556427</ele>
        <time>2022-05-03T08:30:51.619Z</time>
      </trkpt>
      <trkpt lat="41.05543" lon="19.95325">
        <ele>115.482346</ele>
        <time>2022-05-03T08:30:53.625Z</time>
      </trkpt>
      <trkpt lat="41.0555" lon="19.95316">
        <ele>115.407631</ele>
        <time>2022-05-03T08:30:55.670Z</time>
      </trkpt>
      <trkpt lat="41.05556" lon="19.95305">
        <ele>115.325914</ele>
        <time>2022-05-03T08:30:57.617Z</time>
      </trkpt>
      <trkpt lat="41.05563" lon="19.95295">
        <ele>115.242277</ele>
        <time>2022-05-03T08:30:59.614Z</time>
      </trkpt>
      <trkpt lat="41.05569" lon="19.95285">
        <ele>115.163069</ele>
        <time>2022-05-03T08:31:01.625Z</time>
      </trkpt>
      <trkpt lat="41.05574" lon="19.95274">
        <ele>115.086567</ele>
        <time>2022-05-03T08:31:03.662Z</time>
      </trkpt>
      <trkpt lat="41.05579" lon="19.95263">
        <ele>115.009551</ele>
        <time>2022-05-03T08:31:05.619Z</time>
      </trkpt>
      <trkpt lat="41.05584" lon="19.95252">
        <ele>114.931819</ele>
        <time>2022-05-03T08:31:07.619Z</time>
      </trkpt>
      <trkpt lat="41.05588" lon="19.95241">
        <ele>114.863803</ele>
        <time>2022-05-03T08:31:09.657Z</time>
      </trkpt>
      <trkpt lat="41.05593" lon="19.9523">
        <ele>115.080536</ele>
        <time>2022-05-03T08:31:11.611Z</time>
      </trkpt>
      <trkpt lat="41.05597" lon="19.95218">
        <ele>115.292759</ele>
        <time>2022-05-03T08:31:13.640Z</time>
      </trkpt>
      <trkpt lat="41.05601" lon="19.95207">
        <ele>115.50395</ele>
        <time>2022-05-03T08:31:15.601Z</time>
      </trkpt>
      <trkpt lat="41.05605" lon="19.95196">
        <ele>115.714649</ele>
        <time>2022-05-03T08:31:17.606Z</time>
      </trkpt>
      <trkpt lat="41.0561" lon="19.95185">
        <ele>115.929374</ele>
        <time>2022-05-03T08:31:19.623Z</time>
      </trkpt>
      <trkpt lat="41.05614" lon="19.95173">
        <ele>116.144602</ele>
        <time>2022-05-03T08:31:21.625Z</time>
      </trkpt>
      <trkpt lat="41.05618" lon="19.95162">
        <ele>116.354289</ele>
        <time>2022-05-03T08:31:23.620Z</time>
      </trkpt>
      <trkpt lat="41.05622" lon="19.95151">
        <ele>116.55792</ele>
        <time>2022-05-03T08:31:25.628Z</time>
      </trkpt>
      <trkpt lat="41.05626" lon="19.9514">
        <ele>116.768618</ele>
        <time>2022-05-03T08:31:27.632Z</time>
      </trkpt>
      <trkpt lat="41.0563" lon="19.95129">
        <ele>116.974761</ele>
        <time>2022-05-03T08:31:29.636Z</time>
      </trkpt>
      <trkpt lat="41.05636" lon="19.95113">
        <ele>117.27175</ele>
        <time>2022-05-03T08:31:32.599Z</time>
      </trkpt>
      <trkpt lat="41.0564" lon="19.95103">
        <ele>117.473863</ele>
        <time>2022-05-03T08:31:34.622Z</time>
      </trkpt>
      <trkpt lat="41.05644" lon="19.95092">
        <ele>117.680166</ele>
        <time>2022-05-03T08:31:36.644Z</time>
      </trkpt>
      <trkpt lat="41.05649" lon="19.95076">
        <ele>117.972562</ele>
        <time>2022-05-03T08:31:39.614Z</time>
      </trkpt>
      <trkpt lat="41.05655" lon="19.95061">
        <ele>118.264407</ele>
        <time>2022-05-03T08:31:42.626Z</time>
      </trkpt>
      <trkpt lat="41.0566" lon="19.95045">
        <ele>118.54728</ele>
        <time>2022-05-03T08:31:45.646Z</time>
      </trkpt>
      <trkpt lat="41.05664" lon="19.95028">
        <ele>118.847526</ele>
        <time>2022-05-03T08:31:48.658Z</time>
      </trkpt>
      <trkpt lat="41.05667" lon="19.95017">
        <ele>118.962234</ele>
        <time>2022-05-03T08:31:50.625Z</time>
      </trkpt>
      <trkpt lat="41.05669" lon="19.95004">
        <ele>119.052307</ele>
        <time>2022-05-03T08:31:52.607Z</time>
      </trkpt>
      <trkpt lat="41.05671" lon="19.94992">
        <ele>119.140899</ele>
        <time>2022-05-03T08:31:54.740Z</time>
      </trkpt>
      <trkpt lat="41.05673" lon="19.9498">
        <ele>119.230199</ele>
        <time>2022-05-03T08:31:56.609Z</time>
      </trkpt>
      <trkpt lat="41.05674" lon="19.94968">
        <ele>119.318173</ele>
        <time>2022-05-03T08:31:58.612Z</time>
      </trkpt>
      <trkpt lat="41.05675" lon="19.94956">
        <ele>119.404805</ele>
        <time>2022-05-03T08:32:00.672Z</time>
      </trkpt>
      <trkpt lat="41.05675" lon="19.94944">
        <ele>119.493523</ele>
        <time>2022-05-03T08:32:02.608Z</time>
      </trkpt>
      <trkpt lat="41.05675" lon="19.94932">
        <ele>119.579902</ele>
        <time>2022-05-03T08:32:04.617Z</time>
      </trkpt>
      <trkpt lat="41.05675" lon="19.9492">
        <ele>119.667017</ele>
        <time>2022-05-03T08:32:06.598Z</time>
      </trkpt>
      <trkpt lat="41.05674" lon="19.94907">
        <ele>119.755735</ele>
        <time>2022-05-03T08:32:08.624Z</time>
      </trkpt>
      <trkpt lat="41.05674" lon="19.94895">
        <ele>119.846117</ele>
        <time>2022-05-03T08:32:10.666Z</time>
      </trkpt>
      <trkpt lat="41.05672" lon="19.94883">
        <ele>119.934091</ele>
        <time>2022-05-03T08:32:12.604Z</time>
      </trkpt>
      <trkpt lat="41.05671" lon="19.94871">
        <ele>120.020933</ele>
        <time>2022-05-03T08:32:14.618Z</time>
      </trkpt>
      <trkpt lat="41.05669" lon="19.94859">
        <ele>120.107588</ele>
        <time>2022-05-03T08:32:16.610Z</time>
      </trkpt>
      <trkpt lat="41.05667" lon="19.94847">
        <ele>120.195779</ele>
        <time>2022-05-03T08:32:18.618Z</time>
      </trkpt>
      <trkpt lat="41.05664" lon="19.94835">
        <ele>120.28482</ele>
        <time>2022-05-03T08:32:20.623Z</time>
      </trkpt>
      <trkpt lat="41.05661" lon="19.94823">
        <ele>120.37508</ele>
        <time>2022-05-03T08:32:22.645Z</time>
      </trkpt>
      <trkpt lat="41.05657" lon="19.94812">
        <ele>120.462344</ele>
        <time>2022-05-03T08:32:24.618Z</time>
      </trkpt>
      <trkpt lat="41.05654" lon="19.94801">
        <ele>120.550358</ele>
        <time>2022-05-03T08:32:26.602Z</time>
      </trkpt>
      <trkpt lat="41.0565" lon="19.9479">
        <ele>120.639884</ele>
        <time>2022-05-03T08:32:28.624Z</time>
      </trkpt>
      <trkpt lat="41.05644" lon="19.94774">
        <ele>120.783808</ele>
        <time>2022-05-03T08:32:31.663Z</time>
      </trkpt>
      <trkpt lat="41.05639" lon="19.94759">
        <ele>120.9214</ele>
        <time>2022-05-03T08:32:34.624Z</time>
      </trkpt>
      <trkpt lat="41.05634" lon="19.94746">
        <ele>121.042058</ele>
        <time>2022-05-03T08:32:37.630Z</time>
      </trkpt>
      <trkpt lat="41.05629" lon="19.94732">
        <ele>121.163182</ele>
        <time>2022-05-03T08:32:40.628Z</time>
      </trkpt>
      <trkpt lat="41.05624" lon="19.94718">
        <ele>121.285597</ele>
        <time>2022-05-03T08:32:43.622Z</time>
      </trkpt>
      <trkpt lat="41.05619" lon="19.94705">
        <ele>121.406229</ele>
        <time>2022-05-03T08:32:46.608Z</time>
      </trkpt>
      <trkpt lat="41.05615" lon="19.94693">
        <ele>121.514024</ele>
        <time>2022-05-03T08:32:49.634Z</time>
      </trkpt>
      <trkpt lat="41.05611" lon="19.94682">
        <ele>121.616143</ele>
        <time>2022-05-03T08:32:52.612Z</time>
      </trkpt>
      <trkpt lat="41.05607" lon="19.9467">
        <ele>121.721273</ele>
        <time>2022-05-03T08:32:55.612Z</time>
      </trkpt>
      <trkpt lat="41.05602" lon="19.94659">
        <ele>121.825469</ele>
        <time>2022-05-03T08:32:58.632Z</time>
      </trkpt>
      <trkpt lat="41.05599" lon="19.94647">
        <ele>121.929511</ele>
        <time>2022-05-03T08:33:01.615Z</time>
      </trkpt>
      <trkpt lat="41.05593" lon="19.94633">
        <ele>122.055236</ele>
        <time>2022-05-03T08:33:05.623Z</time>
      </trkpt>
      <trkpt lat="41.05589" lon="19.94622">
        <ele>122.155295</ele>
        <time>2022-05-03T08:33:08.608Z</time>
      </trkpt>
      <trkpt lat="41.05586" lon="19.94611">
        <ele>122.254894</ele>
        <time>2022-05-03T08:33:11.600Z</time>
      </trkpt>
      <trkpt lat="41.0558" lon="19.94597">
        <ele>122.383761</ele>
        <time>2022-05-03T08:33:15.626Z</time>
      </trkpt>
      <trkpt lat="41.05576" lon="19.94583">
        <ele>122.506793</ele>
        <time>2022-05-03T08:33:19.616Z</time>
      </trkpt>
      <trkpt lat="41.05572" lon="19.94571">
        <ele>122.549248</ele>
        <time>2022-05-03T08:33:22.615Z</time>
      </trkpt>
      <trkpt lat="41.05568" lon="19.9456">
        <ele>122.548722</ele>
        <time>2022-05-03T08:33:25.609Z</time>
      </trkpt>
      <trkpt lat="41.05564" lon="19.94549">
        <ele>122.548208</ele>
        <time>2022-05-03T08:33:28.616Z</time>
      </trkpt>
      <trkpt lat="41.0556" lon="19.94536">
        <ele>122.547605</ele>
        <time>2022-05-03T08:33:32.599Z</time>
      </trkpt>
      <trkpt lat="41.05555" lon="19.94524">
        <ele>122.547027</ele>
        <time>2022-05-03T08:33:36.622Z</time>
      </trkpt>
      <trkpt lat="41.0555" lon="19.94512">
        <ele>122.546452</ele>
        <time>2022-05-03T08:33:40.603Z</time>
      </trkpt>
      <trkpt lat="41.05546" lon="19.94499">
        <ele>122.545842</ele>
        <time>2022-05-03T08:33:44.630Z</time>
      </trkpt>
      <trkpt lat="41.05541" lon="19.94486">
        <ele>122.545215</ele>
        <time>2022-05-03T08:33:48.614Z</time>
      </trkpt>
      <trkpt lat="41.05535" lon="19.94473">
        <ele>122.544578</ele>
        <time>2022-05-03T08:33:52.612Z</time>
      </trkpt>
      <trkpt lat="41.0553" lon="19.94461">
        <ele>122.543954</ele>
        <time>2022-05-03T08:33:56.615Z</time>
      </trkpt>
      <trkpt lat="41.05524" lon="19.94449">
        <ele>122.543339</ele>
        <time>2022-05-03T08:34:00.642Z</time>
      </trkpt>
      <trkpt lat="41.05517" lon="19.94437">
        <ele>122.542729</ele>
        <time>2022-05-03T08:34:04.617Z</time>
      </trkpt>
      <trkpt lat="41.05509" lon="19.94426">
        <ele>122.542055</ele>
        <time>2022-05-03T08:34:08.609Z</time>
      </trkpt>
      <trkpt lat="41.05502" lon="19.94417">
        <ele>122.541513</ele>
        <time>2022-05-03T08:34:11.623Z</time>
      </trkpt>
      <trkpt lat="41.05495" lon="19.94407">
        <ele>122.540942</ele>
        <time>2022-05-03T08:34:14.634Z</time>
      </trkpt>
      <trkpt lat="41.05487" lon="19.94398">
        <ele>122.540323</ele>
        <time>2022-05-03T08:34:17.645Z</time>
      </trkpt>
      <trkpt lat="41.05479" lon="19.94388">
        <ele>122.539702</ele>
        <time>2022-05-03T08:34:20.653Z</time>
      </trkpt>
      <trkpt lat="41.05471" lon="19.94378">
        <ele>122.387607</ele>
        <time>2022-05-03T08:34:23.629Z</time>
      </trkpt>
      <trkpt lat="41.05462" lon="19.94367">
        <ele>122.041836</ele>
        <time>2022-05-03T08:34:26.626Z</time>
      </trkpt>
      <trkpt lat="41.05454" lon="19.94356">
        <ele>121.684912</ele>
        <time>2022-05-03T08:34:29.599Z</time>
      </trkpt>
      <trkpt lat="41.05445" lon="19.94343">
        <ele>121.300232</ele>
        <time>2022-05-03T08:34:32.617Z</time>
      </trkpt>
      <trkpt lat="41.05439" lon="19.94334">
        <ele>121.030037</ele>
        <time>2022-05-03T08:34:34.656Z</time>
      </trkpt>
      <trkpt lat="41.05433" lon="19.94324">
        <ele>120.753954</ele>
        <time>2022-05-03T08:34:36.597Z</time>
      </trkpt>
      <trkpt lat="41.05427" lon="19.94314">
        <ele>120.460147</ele>
        <time>2022-05-03T08:34:38.625Z</time>
      </trkpt>
      <trkpt lat="41.05422" lon="19.94302">
        <ele>120.164435</ele>
        <time>2022-05-03T08:34:40.608Z</time>
      </trkpt>
      <trkpt lat="41.05417" lon="19.94289">
        <ele>119.8363</ele>
        <time>2022-05-03T08:34:42.621Z</time>
      </trkpt>
      <trkpt lat="41.05411" lon="19.94275">
        <ele>119.485775</ele>
        <time>2022-05-03T08:34:44.636Z</time>
      </trkpt>
      <trkpt lat="41.05406" lon="19.9426">
        <ele>119.122619</ele>
        <time>2022-05-03T08:34:46.625Z</time>
      </trkpt>
      <trkpt lat="41.05401" lon="19.94244">
        <ele>118.740776</ele>
        <time>2022-05-03T08:34:48.610Z</time>
      </trkpt>
      <trkpt lat="41.05397" lon="19.94228">
        <ele>118.352856</ele>
        <time>2022-05-03T08:34:50.651Z</time>
      </trkpt>
      <trkpt lat="41.05393" lon="19.9421">
        <ele>117.939044</ele>
        <time>2022-05-03T08:34:52.629Z</time>
      </trkpt>
      <trkpt lat="41.0539" lon="19.9419">
        <ele>117.50341</ele>
        <time>2022-05-03T08:34:54.612Z</time>
      </trkpt>
      <trkpt lat="41.05388" lon="19.9417">
        <ele>117.097271</ele>
        <time>2022-05-03T08:34:56.594Z</time>
      </trkpt>
      <trkpt lat="41.05387" lon="19.94149">
        <ele>116.759115</ele>
        <time>2022-05-03T08:34:58.619Z</time>
      </trkpt>
      <trkpt lat="41.05387" lon="19.94126">
        <ele>116.405491</ele>
        <time>2022-05-03T08:35:00.645Z</time>
      </trkpt>
      <trkpt lat="41.05388" lon="19.94104">
        <ele>116.050038</ele>
        <time>2022-05-03T08:35:02.619Z</time>
      </trkpt>
      <trkpt lat="41.05391" lon="19.94082">
        <ele>115.682329</ele>
        <time>2022-05-03T08:35:04.610Z</time>
      </trkpt>
      <trkpt lat="41.05395" lon="19.94059">
        <ele>115.30603</ele>
        <time>2022-05-03T08:35:06.620Z</time>
      </trkpt>
      <trkpt lat="41.05397" lon="19.94047">
        <ele>115.113562</ele>
        <time>2022-05-03T08:35:07.612Z</time>
      </trkpt>
      <trkpt lat="41.054" lon="19.94035">
        <ele>114.920521</ele>
        <time>2022-05-03T08:35:08.612Z</time>
      </trkpt>
      <trkpt lat="41.05402" lon="19.94024">
        <ele>114.72651</ele>
        <time>2022-05-03T08:35:09.630Z</time>
      </trkpt>
      <trkpt lat="41.05404" lon="19.94012">
        <ele>114.533044</ele>
        <time>2022-05-03T08:35:10.620Z</time>
      </trkpt>
      <trkpt lat="41.05407" lon="19.94001">
        <ele>114.342673</ele>
        <time>2022-05-03T08:35:11.678Z</time>
      </trkpt>
      <trkpt lat="41.05409" lon="19.93989">
        <ele>114.148662</ele>
        <time>2022-05-03T08:35:12.640Z</time>
      </trkpt>
      <trkpt lat="41.05411" lon="19.93977">
        <ele>113.953648</ele>
        <time>2022-05-03T08:35:13.621Z</time>
      </trkpt>
      <trkpt lat="41.05413" lon="19.93965">
        <ele>113.759652</ele>
        <time>2022-05-03T08:35:14.623Z</time>
      </trkpt>
      <trkpt lat="41.05415" lon="19.93953">
        <ele>113.558757</ele>
        <time>2022-05-03T08:35:15.612Z</time>
      </trkpt>
      <trkpt lat="41.05417" lon="19.93941">
        <ele>113.430166</ele>
        <time>2022-05-03T08:35:16.607Z</time>
      </trkpt>
      <trkpt lat="41.0542" lon="19.93918">
        <ele>113.399386</ele>
        <time>2022-05-03T08:35:18.634Z</time>
      </trkpt>
      <trkpt lat="41.05425" lon="19.93896">
        <ele>113.36947</ele>
        <time>2022-05-03T08:35:20.622Z</time>
      </trkpt>
      <trkpt lat="41.0543" lon="19.93875">
        <ele>113.339754</ele>
        <time>2022-05-03T08:35:22.613Z</time>
      </trkpt>
      <trkpt lat="41.05437" lon="19.93855">
        <ele>113.310515</ele>
        <time>2022-05-03T08:35:24.620Z</time>
      </trkpt>
      <trkpt lat="41.05444" lon="19.93836">
        <ele>113.282163</ele>
        <time>2022-05-03T08:35:26.636Z</time>
      </trkpt>
      <trkpt lat="41.05452" lon="19.93818">
        <ele>113.255301</ele>
        <time>2022-05-03T08:35:28.645Z</time>
      </trkpt>
      <trkpt lat="41.0546" lon="19.93802">
        <ele>113.229516</ele>
        <time>2022-05-03T08:35:30.613Z</time>
      </trkpt>
      <trkpt lat="41.05468" lon="19.93787">
        <ele>113.204849</ele>
        <time>2022-05-03T08:35:32.634Z</time>
      </trkpt>
      <trkpt lat="41.05476" lon="19.93774">
        <ele>113.182089</ele>
        <time>2022-05-03T08:35:34.604Z</time>
      </trkpt>
      <trkpt lat="41.05484" lon="19.93762">
        <ele>113.161069</ele>
        <time>2022-05-03T08:35:36.622Z</time>
      </trkpt>
      <trkpt lat="41.05491" lon="19.9375">
        <ele>113.141342</ele>
        <time>2022-05-03T08:35:38.604Z</time>
      </trkpt>
      <trkpt lat="41.05499" lon="19.93739">
        <ele>113.1216</ele>
        <time>2022-05-03T08:35:40.606Z</time>
      </trkpt>
      <trkpt lat="41.05506" lon="19.93728">
        <ele>113.330826</ele>
        <time>2022-05-03T08:35:42.618Z</time>
      </trkpt>
      <trkpt lat="41.05513" lon="19.93718">
        <ele>113.549006</ele>
        <time>2022-05-03T08:35:44.632Z</time>
      </trkpt>
      <trkpt lat="41.05519" lon="19.93709">
        <ele>113.744793</ele>
        <time>2022-05-03T08:35:46.623Z</time>
      </trkpt>
      <trkpt lat="41.05527" lon="19.93697">
        <ele>114.007318</ele>
        <time>2022-05-03T08:35:49.654Z</time>
      </trkpt>
      <trkpt lat="41.05534" lon="19.93684">
        <ele>114.26193</ele>
        <time>2022-05-03T08:35:52.616Z</time>
      </trkpt>
      <trkpt lat="41.05542" lon="19.93671">
        <ele>114.5306</ele>
        <time>2022-05-03T08:35:55.620Z</time>
      </trkpt>
      <trkpt lat="41.0555" lon="19.93659">
        <ele>114.789057</ele>
        <time>2022-05-03T08:35:58.616Z</time>
      </trkpt>
      <trkpt lat="41.05558" lon="19.93644">
        <ele>115.084654</ele>
        <time>2022-05-03T08:36:01.636Z</time>
      </trkpt>
      <trkpt lat="41.05564" lon="19.93633">
        <ele>115.30185</ele>
        <time>2022-05-03T08:36:03.605Z</time>
      </trkpt>
      <trkpt lat="41.05571" lon="19.93622">
        <ele>115.528065</ele>
        <time>2022-05-03T08:36:05.604Z</time>
      </trkpt>
      <trkpt lat="41.05577" lon="19.93611">
        <ele>115.758181</ele>
        <time>2022-05-03T08:36:07.631Z</time>
      </trkpt>
      <trkpt lat="41.05584" lon="19.936">
        <ele>115.988228</ele>
        <time>2022-05-03T08:36:09.627Z</time>
      </trkpt>
      <trkpt lat="41.0559" lon="19.93589">
        <ele>116.204158</ele>
        <time>2022-05-03T08:36:11.620Z</time>
      </trkpt>
      <trkpt lat="41.05596" lon="19.93579">
        <ele>116.411073</ele>
        <time>2022-05-03T08:36:13.617Z</time>
      </trkpt>
      <trkpt lat="41.05601" lon="19.93569">
        <ele>116.609002</ele>
        <time>2022-05-03T08:36:15.620Z</time>
      </trkpt>
      <trkpt lat="41.05607" lon="19.93559">
        <ele>116.808387</ele>
        <time>2022-05-03T08:36:17.620Z</time>
      </trkpt>
      <trkpt lat="41.05612" lon="19.93549">
        <ele>116.929646</ele>
        <time>2022-05-03T08:36:19.651Z</time>
      </trkpt>
      <trkpt lat="41.05617" lon="19.93538">
        <ele>116.80189</ele>
        <time>2022-05-03T08:36:21.619Z</time>
      </trkpt>
      <trkpt lat="41.05622" lon="19.93528">
        <ele>116.677344</ele>
        <time>2022-05-03T08:36:23.636Z</time>
      </trkpt>
      <trkpt lat="41.05626" lon="19.93517">
        <ele>116.547562</ele>
        <time>2022-05-03T08:36:25.641Z</time>
      </trkpt>
      <trkpt lat="41.0563" lon="19.93506">
        <ele>116.421507</ele>
        <time>2022-05-03T08:36:27.620Z</time>
      </trkpt>
      <trkpt lat="41.05636" lon="19.93491">
        <ele>116.248196</ele>
        <time>2022-05-03T08:36:30.633Z</time>
      </trkpt>
      <trkpt lat="41.05643" lon="19.93475">
        <ele>116.064404</ele>
        <time>2022-05-03T08:36:33.618Z</time>
      </trkpt>
      <trkpt lat="41.05647" lon="19.93463">
        <ele>115.926693</ele>
        <time>2022-05-03T08:36:35.623Z</time>
      </trkpt>
      <trkpt lat="41.05652" lon="19.93451">
        <ele>115.780698</ele>
        <time>2022-05-03T08:36:37.615Z</time>
      </trkpt>
      <trkpt lat="41.05657" lon="19.93438">
        <ele>115.629496</ele>
        <time>2022-05-03T08:36:39.615Z</time>
      </trkpt>
      <trkpt lat="41.05662" lon="19.93425">
        <ele>115.486259</ele>
        <time>2022-05-03T08:36:41.622Z</time>
      </trkpt>
      <trkpt lat="41.05667" lon="19.93413">
        <ele>115.341942</ele>
        <time>2022-05-03T08:36:43.634Z</time>
      </trkpt>
      <trkpt lat="41.05672" lon="19.93401">
        <ele>115.193588</ele>
        <time>2022-05-03T08:36:45.623Z</time>
      </trkpt>
      <trkpt lat="41.05678" lon="19.93388">
        <ele>115.045671</ele>
        <time>2022-05-03T08:36:47.624Z</time>
      </trkpt>
      <trkpt lat="41.05684" lon="19.93376">
        <ele>114.901659</ele>
        <time>2022-05-03T08:36:49.615Z</time>
      </trkpt>
      <trkpt lat="41.0569" lon="19.93365">
        <ele>114.754329</ele>
        <time>2022-05-03T08:36:51.647Z</time>
      </trkpt>
      <trkpt lat="41.05696" lon="19.93354">
        <ele>114.611251</ele>
        <time>2022-05-03T08:36:53.617Z</time>
      </trkpt>
      <trkpt lat="41.05703" lon="19.93343">
        <ele>114.440994</ele>
        <time>2022-05-03T08:36:55.623Z</time>
      </trkpt>
      <trkpt lat="41.05709" lon="19.93332">
        <ele>114.195968</ele>
        <time>2022-05-03T08:36:57.617Z</time>
      </trkpt>
      <trkpt lat="41.05715" lon="19.93322">
        <ele>113.953623</ele>
        <time>2022-05-03T08:36:59.606Z</time>
      </trkpt>
      <trkpt lat="41.05722" lon="19.93311">
        <ele>113.706997</ele>
        <time>2022-05-03T08:37:01.606Z</time>
      </trkpt>
      <trkpt lat="41.05729" lon="19.933">
        <ele>113.44891</ele>
        <time>2022-05-03T08:37:03.616Z</time>
      </trkpt>
      <trkpt lat="41.05736" lon="19.93288">
        <ele>113.182121</ele>
        <time>2022-05-03T08:37:05.619Z</time>
      </trkpt>
      <trkpt lat="41.05743" lon="19.93277">
        <ele>112.916706</ele>
        <time>2022-05-03T08:37:07.617Z</time>
      </trkpt>
      <trkpt lat="41.0575" lon="19.93266">
        <ele>112.660001</ele>
        <time>2022-05-03T08:37:09.648Z</time>
      </trkpt>
      <trkpt lat="41.05757" lon="19.93255">
        <ele>112.410598</ele>
        <time>2022-05-03T08:37:11.633Z</time>
      </trkpt>
      <trkpt lat="41.05763" lon="19.93245">
        <ele>112.162588</ele>
        <time>2022-05-03T08:37:13.619Z</time>
      </trkpt>
      <trkpt lat="41.0577" lon="19.93234">
        <ele>111.920445</ele>
        <time>2022-05-03T08:37:15.668Z</time>
      </trkpt>
      <trkpt lat="41.05776" lon="19.93224">
        <ele>111.685282</ele>
        <time>2022-05-03T08:37:17.622Z</time>
      </trkpt>
      <trkpt lat="41.05782" lon="19.93214">
        <ele>111.451629</ele>
        <time>2022-05-03T08:37:19.602Z</time>
      </trkpt>
      <trkpt lat="41.05788" lon="19.93204">
        <ele>111.216582</ele>
        <time>2022-05-03T08:37:21.618Z</time>
      </trkpt>
      <trkpt lat="41.05795" lon="19.93194">
        <ele>110.987077</ele>
        <time>2022-05-03T08:37:23.608Z</time>
      </trkpt>
      <trkpt lat="41.05801" lon="19.93184">
        <ele>110.761851</ele>
        <time>2022-05-03T08:37:25.619Z</time>
      </trkpt>
      <trkpt lat="41.05807" lon="19.93175">
        <ele>110.542267</ele>
        <time>2022-05-03T08:37:27.616Z</time>
      </trkpt>
      <trkpt lat="41.05813" lon="19.93165">
        <ele>110.305192</ele>
        <time>2022-05-03T08:37:29.615Z</time>
      </trkpt>
      <trkpt lat="41.0582" lon="19.93155">
        <ele>110.205565</ele>
        <time>2022-05-03T08:37:31.616Z</time>
      </trkpt>
      <trkpt lat="41.05827" lon="19.93146">
        <ele>110.178847</ele>
        <time>2022-05-03T08:37:33.621Z</time>
      </trkpt>
      <trkpt lat="41.05835" lon="19.93137">
        <ele>110.152306</ele>
        <time>2022-05-03T08:37:35.625Z</time>
      </trkpt>
      <trkpt lat="41.05842" lon="19.93129">
        <ele>110.125739</ele>
        <time>2022-05-03T08:37:37.623Z</time>
      </trkpt>
      <trkpt lat="41.0585" lon="19.93121">
        <ele>110.098657</ele>
        <time>2022-05-03T08:37:39.600Z</time>
      </trkpt>
      <trkpt lat="41.05858" lon="19.93112">
        <ele>110.072171</ele>
        <time>2022-05-03T08:37:41.617Z</time>
      </trkpt>
      <trkpt lat="41.05865" lon="19.93104">
        <ele>110.045477</ele>
        <time>2022-05-03T08:37:43.624Z</time>
      </trkpt>
      <trkpt lat="41.05873" lon="19.93095">
        <ele>110.017731</ele>
        <time>2022-05-03T08:37:45.619Z</time>
      </trkpt>
      <trkpt lat="41.05881" lon="19.93086">
        <ele>109.988836</ele>
        <time>2022-05-03T08:37:47.622Z</time>
      </trkpt>
      <trkpt lat="41.0589" lon="19.93077">
        <ele>109.960103</ele>
        <time>2022-05-03T08:37:49.628Z</time>
      </trkpt>
      <trkpt lat="41.05898" lon="19.93069">
        <ele>109.93289</ele>
        <time>2022-05-03T08:37:51.622Z</time>
      </trkpt>
      <trkpt lat="41.05905" lon="19.9306">
        <ele>109.906622</ele>
        <time>2022-05-03T08:37:53.622Z</time>
      </trkpt>
      <trkpt lat="41.05912" lon="19.93052">
        <ele>109.881192</ele>
        <time>2022-05-03T08:37:55.624Z</time>
      </trkpt>
      <trkpt lat="41.05919" lon="19.93045">
        <ele>109.856562</ele>
        <time>2022-05-03T08:37:57.625Z</time>
      </trkpt>
      <trkpt lat="41.05926" lon="19.93037">
        <ele>109.832225</ele>
        <time>2022-05-03T08:37:59.612Z</time>
      </trkpt>
      <trkpt lat="41.05934" lon="19.9303">
        <ele>109.807595</ele>
        <time>2022-05-03T08:38:01.644Z</time>
      </trkpt>
      <trkpt lat="41.05941" lon="19.93022">
        <ele>109.782502</ele>
        <time>2022-05-03T08:38:03.632Z</time>
      </trkpt>
      <trkpt lat="41.05948" lon="19.93014">
        <ele>109.756689</ele>
        <time>2022-05-03T08:38:05.606Z</time>
      </trkpt>
      <trkpt lat="41.05956" lon="19.93006">
        <ele>109.776317</ele>
        <time>2022-05-03T08:38:07.614Z</time>
      </trkpt>
      <trkpt lat="41.05964" lon="19.92998">
        <ele>109.878672</ele>
        <time>2022-05-03T08:38:09.620Z</time>
      </trkpt>
      <trkpt lat="41.05971" lon="19.92991">
        <ele>109.980001</ele>
        <time>2022-05-03T08:38:11.620Z</time>
      </trkpt>
      <trkpt lat="41.05979" lon="19.92984">
        <ele>110.082744</ele>
        <time>2022-05-03T08:38:13.640Z</time>
      </trkpt>
      <trkpt lat="41.05987" lon="19.92976">
        <ele>110.186777</ele>
        <time>2022-05-03T08:38:15.630Z</time>
      </trkpt>
      <trkpt lat="41.05995" lon="19.9297">
        <ele>110.28865</ele>
        <time>2022-05-03T08:38:17.608Z</time>
      </trkpt>
      <trkpt lat="41.06006" lon="19.92961">
        <ele>110.43051</ele>
        <time>2022-05-03T08:38:20.625Z</time>
      </trkpt>
      <trkpt lat="41.06015" lon="19.92954">
        <ele>110.536932</ele>
        <time>2022-05-03T08:38:22.629Z</time>
      </trkpt>
      <trkpt lat="41.06023" lon="19.92948">
        <ele>110.640667</ele>
        <time>2022-05-03T08:38:24.667Z</time>
      </trkpt>
      <trkpt lat="41.06031" lon="19.92941">
        <ele>110.745876</ele>
        <time>2022-05-03T08:38:26.621Z</time>
      </trkpt>
      <trkpt lat="41.0604" lon="19.92935">
        <ele>110.852588</ele>
        <time>2022-05-03T08:38:28.603Z</time>
      </trkpt>
      <trkpt lat="41.06049" lon="19.92929">
        <ele>110.960461</ele>
        <time>2022-05-03T08:38:30.617Z</time>
      </trkpt>
      <trkpt lat="41.06057" lon="19.92924">
        <ele>111.06145</ele>
        <time>2022-05-03T08:38:32.619Z</time>
      </trkpt>
      <trkpt lat="41.06066" lon="19.92918">
        <ele>111.162667</ele>
        <time>2022-05-03T08:38:34.618Z</time>
      </trkpt>
      <trkpt lat="41.06074" lon="19.92912">
        <ele>111.263079</ele>
        <time>2022-05-03T08:38:36.614Z</time>
      </trkpt>
      <trkpt lat="41.06082" lon="19.92906">
        <ele>111.365402</ele>
        <time>2022-05-03T08:38:38.624Z</time>
      </trkpt>
      <trkpt lat="41.06091" lon="19.92901">
        <ele>111.465056</ele>
        <time>2022-05-03T08:38:40.622Z</time>
      </trkpt>
      <trkpt lat="41.06099" lon="19.92895">
        <ele>111.562417</ele>
        <time>2022-05-03T08:38:42.639Z</time>
      </trkpt>
      <trkpt lat="41.06107" lon="19.9289">
        <ele>111.663635</ele>
        <time>2022-05-03T08:38:44.635Z</time>
      </trkpt>
      <trkpt lat="41.06115" lon="19.92884">
        <ele>111.681562</ele>
        <time>2022-05-03T08:38:46.599Z</time>
      </trkpt>
      <trkpt lat="41.06124" lon="19.92879">
        <ele>111.6799</ele>
        <time>2022-05-03T08:38:48.600Z</time>
      </trkpt>
      <trkpt lat="41.06132" lon="19.92873">
        <ele>111.678151</ele>
        <time>2022-05-03T08:38:50.623Z</time>
      </trkpt>
      <trkpt lat="41.0614" lon="19.92867">
        <ele>111.676521</ele>
        <time>2022-05-03T08:38:52.660Z</time>
      </trkpt>
      <trkpt lat="41.06152" lon="19.92859">
        <ele>111.674196</ele>
        <time>2022-05-03T08:38:55.600Z</time>
      </trkpt>
      <trkpt lat="41.06161" lon="19.92854">
        <ele>111.672491</ele>
        <time>2022-05-03T08:38:57.610Z</time>
      </trkpt>
      <trkpt lat="41.06169" lon="19.92848">
        <ele>111.67087</ele>
        <time>2022-05-03T08:38:59.608Z</time>
      </trkpt>
      <trkpt lat="41.06181" lon="19.92839">
        <ele>111.668443</ele>
        <time>2022-05-03T08:39:02.621Z</time>
      </trkpt>
      <trkpt lat="41.06189" lon="19.92834">
        <ele>111.66674</ele>
        <time>2022-05-03T08:39:04.607Z</time>
      </trkpt>
      <trkpt lat="41.06199" lon="19.92829">
        <ele>111.664917</ele>
        <time>2022-05-03T08:39:06.595Z</time>
      </trkpt>
      <trkpt lat="41.06208" lon="19.92822">
        <ele>111.662972</ele>
        <time>2022-05-03T08:39:08.611Z</time>
      </trkpt>
      <trkpt lat="41.06218" lon="19.92815">
        <ele>111.660986</ele>
        <time>2022-05-03T08:39:10.605Z</time>
      </trkpt>
      <trkpt lat="41.06228" lon="19.92808">
        <ele>111.658971</ele>
        <time>2022-05-03T08:39:12.611Z</time>
      </trkpt>
      <trkpt lat="41.06238" lon="19.92801">
        <ele>111.656887</ele>
        <time>2022-05-03T08:39:14.644Z</time>
      </trkpt>
      <trkpt lat="41.06249" lon="19.92794">
        <ele>111.654785</ele>
        <time>2022-05-03T08:39:16.622Z</time>
      </trkpt>
      <trkpt lat="41.06259" lon="19.92787">
        <ele>111.652694</ele>
        <time>2022-05-03T08:39:18.632Z</time>
      </trkpt>
      <trkpt lat="41.0627" lon="19.9278">
        <ele>111.63161</ele>
        <time>2022-05-03T08:39:20.655Z</time>
      </trkpt>
      <trkpt lat="41.06281" lon="19.92772">
        <ele>111.454972</ele>
        <time>2022-05-03T08:39:22.638Z</time>
      </trkpt>
      <trkpt lat="41.06292" lon="19.92765">
        <ele>111.278334</ele>
        <time>2022-05-03T08:39:24.625Z</time>
      </trkpt>
      <trkpt lat="41.06303" lon="19.92757">
        <ele>111.098642</ele>
        <time>2022-05-03T08:39:26.603Z</time>
      </trkpt>
      <trkpt lat="41.06314" lon="19.9275">
        <ele>110.919445</ele>
        <time>2022-05-03T08:39:28.618Z</time>
      </trkpt>
      <trkpt lat="41.06325" lon="19.92742">
        <ele>110.739451</ele>
        <time>2022-05-03T08:39:30.611Z</time>
      </trkpt>
      <trkpt lat="41.06336" lon="19.92734">
        <ele>110.556464</ele>
        <time>2022-05-03T08:39:32.621Z</time>
      </trkpt>
      <trkpt lat="41.06348" lon="19.92727">
        <ele>110.375984</ele>
        <time>2022-05-03T08:39:34.615Z</time>
      </trkpt>
      <trkpt lat="41.06359" lon="19.92719">
        <ele>110.195505</ele>
        <time>2022-05-03T08:39:36.674Z</time>
      </trkpt>
      <trkpt lat="41.0637" lon="19.92712">
        <ele>110.020142</ele>
        <time>2022-05-03T08:39:38.608Z</time>
      </trkpt>
      <trkpt lat="41.06381" lon="19.92705">
        <ele>109.84272</ele>
        <time>2022-05-03T08:39:40.608Z</time>
      </trkpt>
      <trkpt lat="41.06392" lon="19.92698">
        <ele>109.668982</ele>
        <time>2022-05-03T08:39:42.624Z</time>
      </trkpt>
      <trkpt lat="41.06403" lon="19.9269">
        <ele>109.49156</ele>
        <time>2022-05-03T08:39:44.612Z</time>
      </trkpt>
      <trkpt lat="41.06413" lon="19.92683">
        <ele>109.317353</ele>
        <time>2022-05-03T08:39:46.607Z</time>
      </trkpt>
      <trkpt lat="41.06424" lon="19.92676">
        <ele>109.146534</ele>
        <time>2022-05-03T08:39:48.601Z</time>
      </trkpt>
      <trkpt lat="41.06434" lon="19.92669">
        <ele>109.060656</ele>
        <time>2022-05-03T08:39:50.607Z</time>
      </trkpt>
      <trkpt lat="41.06444" lon="19.92662">
        <ele>109.054755</ele>
        <time>2022-05-03T08:39:52.622Z</time>
      </trkpt>
      <trkpt lat="41.06454" lon="19.92655">
        <ele>109.048965</ele>
        <time>2022-05-03T08:39:54.617Z</time>
      </trkpt>
      <trkpt lat="41.06464" lon="19.92648">
        <ele>109.043045</ele>
        <time>2022-05-03T08:39:56.623Z</time>
      </trkpt>
      <trkpt lat="41.06474" lon="19.92641">
        <ele>109.037137</ele>
        <time>2022-05-03T08:39:58.646Z</time>
      </trkpt>
      <trkpt lat="41.06484" lon="19.92633">
        <ele>109.031088</ele>
        <time>2022-05-03T08:40:00.618Z</time>
      </trkpt>
      <trkpt lat="41.06494" lon="19.92625">
        <ele>109.025093</ele>
        <time>2022-05-03T08:40:02.604Z</time>
      </trkpt>
      <trkpt lat="41.06503" lon="19.92618">
        <ele>109.019269</ele>
        <time>2022-05-03T08:40:04.648Z</time>
      </trkpt>
      <trkpt lat="41.06513" lon="19.9261">
        <ele>109.013449</ele>
        <time>2022-05-03T08:40:06.611Z</time>
      </trkpt>
      <trkpt lat="41.06522" lon="19.92602">
        <ele>109.007675</ele>
        <time>2022-05-03T08:40:08.626Z</time>
      </trkpt>
      <trkpt lat="41.06531" lon="19.92594">
        <ele>109.002053</ele>
        <time>2022-05-03T08:40:10.669Z</time>
      </trkpt>
      <trkpt lat="41.0654" lon="19.92586">
        <ele>108.996518</ele>
        <time>2022-05-03T08:40:12.624Z</time>
      </trkpt>
      <trkpt lat="41.06548" lon="19.92578">
        <ele>108.991112</ele>
        <time>2022-05-03T08:40:14.627Z</time>
      </trkpt>
      <trkpt lat="41.06557" lon="19.92571">
        <ele>108.985772</ele>
        <time>2022-05-03T08:40:16.611Z</time>
      </trkpt>
      <trkpt lat="41.06565" lon="19.92563">
        <ele>108.980581</ele>
        <time>2022-05-03T08:40:18.617Z</time>
      </trkpt>
      <trkpt lat="41.06574" lon="19.92556">
        <ele>108.975262</ele>
        <time>2022-05-03T08:40:20.628Z</time>
      </trkpt>
      <trkpt lat="41.06581" lon="19.92549">
        <ele>108.970377</ele>
        <time>2022-05-03T08:40:22.615Z</time>
      </trkpt>
      <trkpt lat="41.0659" lon="19.92541">
        <ele>109.088687</ele>
        <time>2022-05-03T08:40:24.594Z</time>
      </trkpt>
      <trkpt lat="41.06599" lon="19.92532">
        <ele>109.227481</ele>
        <time>2022-05-03T08:40:26.623Z</time>
      </trkpt>
      <trkpt lat="41.06607" lon="19.92524">
        <ele>109.357172</ele>
        <time>2022-05-03T08:40:28.605Z</time>
      </trkpt>
      <trkpt lat="41.06616" lon="19.92516">
        <ele>109.495334</ele>
        <time>2022-05-03T08:40:30.640Z</time>
      </trkpt>
      <trkpt lat="41.06625" lon="19.92507">
        <ele>109.642582</ele>
        <time>2022-05-03T08:40:32.651Z</time>
      </trkpt>
      <trkpt lat="41.06635" lon="19.92498">
        <ele>109.788794</ele>
        <time>2022-05-03T08:40:34.612Z</time>
      </trkpt>
      <trkpt lat="41.06644" lon="19.9249">
        <ele>109.933338</ele>
        <time>2022-05-03T08:40:36.625Z</time>
      </trkpt>
      <trkpt lat="41.06653" lon="19.92481">
        <ele>110.073728</ele>
        <time>2022-05-03T08:40:38.613Z</time>
      </trkpt>
      <trkpt lat="41.06662" lon="19.92474">
        <ele>110.20709</ele>
        <time>2022-05-03T08:40:40.615Z</time>
      </trkpt>
      <trkpt lat="41.0667" lon="19.92466">
        <ele>110.342569</ele>
        <time>2022-05-03T08:40:42.599Z</time>
      </trkpt>
      <trkpt lat="41.06679" lon="19.92457">
        <ele>110.483992</ele>
        <time>2022-05-03T08:40:44.616Z</time>
      </trkpt>
      <trkpt lat="41.06689" lon="19.92449">
        <ele>110.628535</ele>
        <time>2022-05-03T08:40:46.611Z</time>
      </trkpt>
      <trkpt lat="41.06698" lon="19.9244">
        <ele>110.774126</ele>
        <time>2022-05-03T08:40:48.624Z</time>
      </trkpt>
      <trkpt lat="41.06707" lon="19.92432">
        <ele>110.911741</ele>
        <time>2022-05-03T08:40:50.607Z</time>
      </trkpt>
      <trkpt lat="41.06716" lon="19.92423">
        <ele>111.049971</ele>
        <time>2022-05-03T08:40:52.650Z</time>
      </trkpt>
      <trkpt lat="41.06724" lon="19.92415">
        <ele>111.183079</ele>
        <time>2022-05-03T08:40:54.653Z</time>
      </trkpt>
      <trkpt lat="41.06732" lon="19.92407">
        <ele>111.258672</ele>
        <time>2022-05-03T08:40:56.620Z</time>
      </trkpt>
      <trkpt lat="41.0674" lon="19.92398">
        <ele>111.24761</ele>
        <time>2022-05-03T08:40:58.623Z</time>
      </trkpt>
      <trkpt lat="41.06749" lon="19.9239">
        <ele>111.236401</ele>
        <time>2022-05-03T08:41:00.613Z</time>
      </trkpt>
      <trkpt lat="41.06757" lon="19.92381">
        <ele>111.224908</ele>
        <time>2022-05-03T08:41:02.612Z</time>
      </trkpt>
      <trkpt lat="41.06766" lon="19.92372">
        <ele>111.213161</ele>
        <time>2022-05-03T08:41:04.614Z</time>
      </trkpt>
      <trkpt lat="41.06774" lon="19.92362">
        <ele>111.2013</ele>
        <time>2022-05-03T08:41:06.623Z</time>
      </trkpt>
      <trkpt lat="41.06783" lon="19.92352">
        <ele>111.188459</ele>
        <time>2022-05-03T08:41:08.622Z</time>
      </trkpt>
      <trkpt lat="41.06792" lon="19.92342">
        <ele>111.176073</ele>
        <time>2022-05-03T08:41:10.615Z</time>
      </trkpt>
      <trkpt lat="41.068" lon="19.92331">
        <ele>111.164033</ele>
        <time>2022-05-03T08:41:12.627Z</time>
      </trkpt>
      <trkpt lat="41.06809" lon="19.92321">
        <ele>111.151617</ele>
        <time>2022-05-03T08:41:14.615Z</time>
      </trkpt>
      <trkpt lat="41.06817" lon="19.9231">
        <ele>111.13879</ele>
        <time>2022-05-03T08:41:16.652Z</time>
      </trkpt>
      <trkpt lat="41.06826" lon="19.92298">
        <ele>111.125811</ele>
        <time>2022-05-03T08:41:18.633Z</time>
      </trkpt>
      <trkpt lat="41.06834" lon="19.92287">
        <ele>111.112996</ele>
        <time>2022-05-03T08:41:20.600Z</time>
      </trkpt>
      <trkpt lat="41.06842" lon="19.92276">
        <ele>111.100624</ele>
        <time>2022-05-03T08:41:22.658Z</time>
      </trkpt>
      <trkpt lat="41.0685" lon="19.92265">
        <ele>111.088336</ele>
        <time>2022-05-03T08:41:24.611Z</time>
      </trkpt>
      <trkpt lat="41.06858" lon="19.92254">
        <ele>111.075945</ele>
        <time>2022-05-03T08:41:26.614Z</time>
      </trkpt>
      <trkpt lat="41.06867" lon="19.92242">
        <ele>110.93762</ele>
        <time>2022-05-03T08:41:28.595Z</time>
      </trkpt>
      <trkpt lat="41.06875" lon="19.9223">
        <ele>110.715064</ele>
        <time>2022-05-03T08:41:30.625Z</time>
      </trkpt>
      <trkpt lat="41.06884" lon="19.92218">
        <ele>110.482526</ele>
        <time>2022-05-03T08:41:32.609Z</time>
      </trkpt>
      <trkpt lat="41.06893" lon="19.92206">
        <ele>110.254914</ele>
        <time>2022-05-03T08:41:34.663Z</time>
      </trkpt>
      <trkpt lat="41.06901" lon="19.92195">
        <ele>110.037847</ele>
        <time>2022-05-03T08:41:36.636Z</time>
      </trkpt>
      <trkpt lat="41.06909" lon="19.92183">
        <ele>109.822764</ele>
        <time>2022-05-03T08:41:38.604Z</time>
      </trkpt>
      <trkpt lat="41.06917" lon="19.92172">
        <ele>109.602889</ele>
        <time>2022-05-03T08:41:40.607Z</time>
      </trkpt>
      <trkpt lat="41.06926" lon="19.92161">
        <ele>109.388179</ele>
        <time>2022-05-03T08:41:42.609Z</time>
      </trkpt>
      <trkpt lat="41.06934" lon="19.9215">
        <ele>109.178295</ele>
        <time>2022-05-03T08:41:44.656Z</time>
      </trkpt>
      <trkpt lat="41.06942" lon="19.9214">
        <ele>108.979059</ele>
        <time>2022-05-03T08:41:46.618Z</time>
      </trkpt>
      <trkpt lat="41.06951" lon="19.92129">
        <ele>108.7624</ele>
        <time>2022-05-03T08:41:48.656Z</time>
      </trkpt>
      <trkpt lat="41.0696" lon="19.92119">
        <ele>108.543471</ele>
        <time>2022-05-03T08:41:50.619Z</time>
      </trkpt>
      <trkpt lat="41.06969" lon="19.92108">
        <ele>108.320433</ele>
        <time>2022-05-03T08:41:52.600Z</time>
      </trkpt>
      <trkpt lat="41.06978" lon="19.92098">
        <ele>108.097249</ele>
        <time>2022-05-03T08:41:54.637Z</time>
      </trkpt>
      <trkpt lat="41.06988" lon="19.92088">
        <ele>107.868623</ele>
        <time>2022-05-03T08:41:56.657Z</time>
      </trkpt>
      <trkpt lat="41.06998" lon="19.92078">
        <ele>108.026388</ele>
        <time>2022-05-03T08:41:58.614Z</time>
      </trkpt>
      <trkpt lat="41.07009" lon="19.92068">
        <ele>108.34483</ele>
        <time>2022-05-03T08:42:00.598Z</time>
      </trkpt>
      <trkpt lat="41.07019" lon="19.92059">
        <ele>108.658934</ele>
        <time>2022-05-03T08:42:02.624Z</time>
      </trkpt>
      <trkpt lat="41.07029" lon="19.9205">
        <ele>108.975088</ele>
        <time>2022-05-03T08:42:04.620Z</time>
      </trkpt>
      <trkpt lat="41.07039" lon="19.92041">
        <ele>109.276233</ele>
        <time>2022-05-03T08:42:06.617Z</time>
      </trkpt>
      <trkpt lat="41.07048" lon="19.92034">
        <ele>109.553961</ele>
        <time>2022-05-03T08:42:08.620Z</time>
      </trkpt>
      <trkpt lat="41.07057" lon="19.92026">
        <ele>109.835089</ele>
        <time>2022-05-03T08:42:10.616Z</time>
      </trkpt>
      <trkpt lat="41.07067" lon="19.92018">
        <ele>110.133021</ele>
        <time>2022-05-03T08:42:12.652Z</time>
      </trkpt>
      <trkpt lat="41.07077" lon="19.9201">
        <ele>110.445008</ele>
        <time>2022-05-03T08:42:14.620Z</time>
      </trkpt>
      <trkpt lat="41.07087" lon="19.92001">
        <ele>110.752769</ele>
        <time>2022-05-03T08:42:16.602Z</time>
      </trkpt>
      <trkpt lat="41.07097" lon="19.91993">
        <ele>111.052948</ele>
        <time>2022-05-03T08:42:18.592Z</time>
      </trkpt>
      <trkpt lat="41.07107" lon="19.91985">
        <ele>111.349093</ele>
        <time>2022-05-03T08:42:20.615Z</time>
      </trkpt>
      <trkpt lat="41.07117" lon="19.91977">
        <ele>111.6385</ele>
        <time>2022-05-03T08:42:22.626Z</time>
      </trkpt>
      <trkpt lat="41.07126" lon="19.91969">
        <ele>111.921437</ele>
        <time>2022-05-03T08:42:24.615Z</time>
      </trkpt>
      <trkpt lat="41.07134" lon="19.9196">
        <ele>112.199948</ele>
        <time>2022-05-03T08:42:26.622Z</time>
      </trkpt>
      <trkpt lat="41.07142" lon="19.9195">
        <ele>112.458058</ele>
        <time>2022-05-03T08:42:28.598Z</time>
      </trkpt>
      <trkpt lat="41.07149" lon="19.9194">
        <ele>112.631875</ele>
        <time>2022-05-03T08:42:30.619Z</time>
      </trkpt>
      <trkpt lat="41.07156" lon="19.91929">
        <ele>112.809827</ele>
        <time>2022-05-03T08:42:32.628Z</time>
      </trkpt>
      <trkpt lat="41.07163" lon="19.91917">
        <ele>112.998611</ele>
        <time>2022-05-03T08:42:34.644Z</time>
      </trkpt>
      <trkpt lat="41.07169" lon="19.91903">
        <ele>113.199969</ele>
        <time>2022-05-03T08:42:36.602Z</time>
      </trkpt>
      <trkpt lat="41.07176" lon="19.91888">
        <ele>113.407889</ele>
        <time>2022-05-03T08:42:38.600Z</time>
      </trkpt>
      <trkpt lat="41.07181" lon="19.91874">
        <ele>113.610239</ele>
        <time>2022-05-03T08:42:40.661Z</time>
      </trkpt>
      <trkpt lat="41.07185" lon="19.91859">
        <ele>113.802457</ele>
        <time>2022-05-03T08:42:42.618Z</time>
      </trkpt>
      <trkpt lat="41.07189" lon="19.91844">
        <ele>113.993719</ele>
        <time>2022-05-03T08:42:44.608Z</time>
      </trkpt>
      <trkpt lat="41.07193" lon="19.9183">
        <ele>114.183803</ele>
        <time>2022-05-03T08:42:46.624Z</time>
      </trkpt>
      <trkpt lat="41.07196" lon="19.91815">
        <ele>114.368389</ele>
        <time>2022-05-03T08:42:48.622Z</time>
      </trkpt>
      <trkpt lat="41.07199" lon="19.91801">
        <ele>114.55684</ele>
        <time>2022-05-03T08:42:50.619Z</time>
      </trkpt>
      <trkpt lat="41.07202" lon="19.91785">
        <ele>114.754073</ele>
        <time>2022-05-03T08:42:52.657Z</time>
      </trkpt>
      <trkpt lat="41.07204" lon="19.91769">
        <ele>114.952326</ele>
        <time>2022-05-03T08:42:54.615Z</time>
      </trkpt>
      <trkpt lat="41.07205" lon="19.91754">
        <ele>115.140996</ele>
        <time>2022-05-03T08:42:56.597Z</time>
      </trkpt>
      <trkpt lat="41.07204" lon="19.9174">
        <ele>115.32293</ele>
        <time>2022-05-03T08:42:58.652Z</time>
      </trkpt>
      <trkpt lat="41.07203" lon="19.91725">
        <ele>115.391163</ele>
        <time>2022-05-03T08:43:00.616Z</time>
      </trkpt>
      <trkpt lat="41.07201" lon="19.91711">
        <ele>115.410998</ele>
        <time>2022-05-03T08:43:02.616Z</time>
      </trkpt>
      <trkpt lat="41.07199" lon="19.91696">
        <ele>115.430765</ele>
        <time>2022-05-03T08:43:04.645Z</time>
      </trkpt>
      <trkpt lat="41.07197" lon="19.91681">
        <ele>115.451959</ele>
        <time>2022-05-03T08:43:06.624Z</time>
      </trkpt>
      <trkpt lat="41.07195" lon="19.91665">
        <ele>115.473153</ele>
        <time>2022-05-03T08:43:08.619Z</time>
      </trkpt>
      <trkpt lat="41.07193" lon="19.91651">
        <ele>115.493318</ele>
        <time>2022-05-03T08:43:10.607Z</time>
      </trkpt>
      <trkpt lat="41.0719" lon="19.91637">
        <ele>115.51236</ele>
        <time>2022-05-03T08:43:12.623Z</time>
      </trkpt>
      <trkpt lat="41.07188" lon="19.91623">
        <ele>115.531498</ele>
        <time>2022-05-03T08:43:14.603Z</time>
      </trkpt>
      <trkpt lat="41.07186" lon="19.91609">
        <ele>115.550314</ele>
        <time>2022-05-03T08:43:16.609Z</time>
      </trkpt>
      <trkpt lat="41.07184" lon="19.91596">
        <ele>115.568828</ele>
        <time>2022-05-03T08:43:18.630Z</time>
      </trkpt>
      <trkpt lat="41.07181" lon="19.91582">
        <ele>115.587553</ele>
        <time>2022-05-03T08:43:20.616Z</time>
      </trkpt>
      <trkpt lat="41.07179" lon="19.9157">
        <ele>115.604446</ele>
        <time>2022-05-03T08:43:22.619Z</time>
      </trkpt>
      <trkpt lat="41.07177" lon="19.91559">
        <ele>115.620603</ele>
        <time>2022-05-03T08:43:24.626Z</time>
      </trkpt>
      <trkpt lat="41.07175" lon="19.91545">
        <ele>115.639239</ele>
        <time>2022-05-03T08:43:26.648Z</time>
      </trkpt>
      <trkpt lat="41.07173" lon="19.91532">
        <ele>115.657885</ele>
        <time>2022-05-03T08:43:28.598Z</time>
      </trkpt>
      <trkpt lat="41.0717" lon="19.91518">
        <ele>115.676531</ele>
        <time>2022-05-03T08:43:30.613Z</time>
      </trkpt>
      <trkpt lat="41.07168" lon="19.91505">
        <ele>115.694575</ele>
        <time>2022-05-03T08:43:32.651Z</time>
      </trkpt>
      <trkpt lat="41.07166" lon="19.91492">
        <ele>116.023024</ele>
        <time>2022-05-03T08:43:34.606Z</time>
      </trkpt>
      <trkpt lat="41.07165" lon="19.91479">
        <ele>116.445645</ele>
        <time>2022-05-03T08:43:36.604Z</time>
      </trkpt>
      <trkpt lat="41.07162" lon="19.91467">
        <ele>116.857719</ele>
        <time>2022-05-03T08:43:38.653Z</time>
      </trkpt>
      <trkpt lat="41.0716" lon="19.91454">
        <ele>117.270049</ele>
        <time>2022-05-03T08:43:40.611Z</time>
      </trkpt>
      <trkpt lat="41.07158" lon="19.91437">
        <ele>117.856416</ele>
        <time>2022-05-03T08:43:43.612Z</time>
      </trkpt>
      <trkpt lat="41.07156" lon="19.91424">
        <ele>118.26239</ele>
        <time>2022-05-03T08:43:45.609Z</time>
      </trkpt>
      <trkpt lat="41.07154" lon="19.91413">
        <ele>118.652243</ele>
        <time>2022-05-03T08:43:47.609Z</time>
      </trkpt>
      <trkpt lat="41.07153" lon="19.91401">
        <ele>119.047087</ele>
        <time>2022-05-03T08:43:49.652Z</time>
      </trkpt>
      <trkpt lat="41.07152" lon="19.91388">
        <ele>119.453075</ele>
        <time>2022-05-03T08:43:51.619Z</time>
      </trkpt>
      <trkpt lat="41.07151" lon="19.91376">
        <ele>119.843489</ele>
        <time>2022-05-03T08:43:53.623Z</time>
      </trkpt>
      <trkpt lat="41.07151" lon="19.91364">
        <ele>120.243537</ele>
        <time>2022-05-03T08:43:55.617Z</time>
      </trkpt>
      <trkpt lat="41.07151" lon="19.91352">
        <ele>120.637201</ele>
        <time>2022-05-03T08:43:57.608Z</time>
      </trkpt>
      <trkpt lat="41.07152" lon="19.91335">
        <ele>121.18518</ele>
        <time>2022-05-03T08:44:00.642Z</time>
      </trkpt>
      <trkpt lat="41.07153" lon="19.91318">
        <ele>121.726677</ele>
        <time>2022-05-03T08:44:03.601Z</time>
      </trkpt>
      <trkpt lat="41.07154" lon="19.91301">
        <ele>122.290272</ele>
        <time>2022-05-03T08:44:06.658Z</time>
      </trkpt>
      <trkpt lat="41.07156" lon="19.91284">
        <ele>122.847896</ele>
        <time>2022-05-03T08:44:09.612Z</time>
      </trkpt>
      <trkpt lat="41.07157" lon="19.91268">
        <ele>123.381346</ele>
        <time>2022-05-03T08:44:12.648Z</time>
      </trkpt>
      <trkpt lat="41.07158" lon="19.91252">
        <ele>122.738975</ele>
        <time>2022-05-03T08:44:15.623Z</time>
      </trkpt>
      <trkpt lat="41.0716" lon="19.91236">
        <ele>121.843648</ele>
        <time>2022-05-03T08:44:18.627Z</time>
      </trkpt>
      <trkpt lat="41.07162" lon="19.91218">
        <ele>120.896379</ele>
        <time>2022-05-03T08:44:21.618Z</time>
      </trkpt>
      <trkpt lat="41.07164" lon="19.91201">
        <ele>119.970386</ele>
        <time>2022-05-03T08:44:24.612Z</time>
      </trkpt>
      <trkpt lat="41.07166" lon="19.91185">
        <ele>119.066756</ele>
        <time>2022-05-03T08:44:27.620Z</time>
      </trkpt>
      <trkpt lat="41.07168" lon="19.91168">
        <ele>118.147813</ele>
        <time>2022-05-03T08:44:30.631Z</time>
      </trkpt>
      <trkpt lat="41.0717" lon="19.91151">
        <ele>117.205864</ele>
        <time>2022-05-03T08:44:33.621Z</time>
      </trkpt>
      <trkpt lat="41.07172" lon="19.91139">
        <ele>116.560613</ele>
        <time>2022-05-03T08:44:35.594Z</time>
      </trkpt>
      <trkpt lat="41.07174" lon="19.91127">
        <ele>115.91406</ele>
        <time>2022-05-03T08:44:37.619Z</time>
      </trkpt>
      <trkpt lat="41.07175" lon="19.91115">
        <ele>115.248878</ele>
        <time>2022-05-03T08:44:39.641Z</time>
      </trkpt>
      <trkpt lat="41.07177" lon="19.91103">
        <ele>114.576945</ele>
        <time>2022-05-03T08:44:41.611Z</time>
      </trkpt>
      <trkpt lat="41.0718" lon="19.91091">
        <ele>113.917527</ele>
        <time>2022-05-03T08:44:43.592Z</time>
      </trkpt>
      <trkpt lat="41.07182" lon="19.9108">
        <ele>113.279562</ele>
        <time>2022-05-03T08:44:45.619Z</time>
      </trkpt>
      <trkpt lat="41.07187" lon="19.91063">
        <ele>112.312227</ele>
        <time>2022-05-03T08:44:48.620Z</time>
      </trkpt>
      <trkpt lat="41.0719" lon="19.91051">
        <ele>111.652428</ele>
        <time>2022-05-03T08:44:50.642Z</time>
      </trkpt>
      <trkpt lat="41.07193" lon="19.91039">
        <ele>110.984993</ele>
        <time>2022-05-03T08:44:52.607Z</time>
      </trkpt>
      <trkpt lat="41.07196" lon="19.91027">
        <ele>110.476049</ele>
        <time>2022-05-03T08:44:54.619Z</time>
      </trkpt>
      <trkpt lat="41.07199" lon="19.91016">
        <ele>110.172483</ele>
        <time>2022-05-03T08:44:56.607Z</time>
      </trkpt>
      <trkpt lat="41.07203" lon="19.91003">
        <ele>109.861036</ele>
        <time>2022-05-03T08:44:58.599Z</time>
      </trkpt>
      <trkpt lat="41.07206" lon="19.90991">
        <ele>109.538366</ele>
        <time>2022-05-03T08:45:00.618Z</time>
      </trkpt>
      <trkpt lat="41.07209" lon="19.90979">
        <ele>109.229278</ele>
        <time>2022-05-03T08:45:02.613Z</time>
      </trkpt>
      <trkpt lat="41.07213" lon="19.90966">
        <ele>108.915553</ele>
        <time>2022-05-03T08:45:04.627Z</time>
      </trkpt>
      <trkpt lat="41.07216" lon="19.90955">
        <ele>108.609839</ele>
        <time>2022-05-03T08:45:06.641Z</time>
      </trkpt>
      <trkpt lat="41.07219" lon="19.90943">
        <ele>108.302943</ele>
        <time>2022-05-03T08:45:08.620Z</time>
      </trkpt>
      <trkpt lat="41.07222" lon="19.90929">
        <ele>107.975557</ele>
        <time>2022-05-03T08:45:10.615Z</time>
      </trkpt>
      <trkpt lat="41.07224" lon="19.90916">
        <ele>107.652645</ele>
        <time>2022-05-03T08:45:12.646Z</time>
      </trkpt>
      <trkpt lat="41.07225" lon="19.90903">
        <ele>107.319724</ele>
        <time>2022-05-03T08:45:14.625Z</time>
      </trkpt>
      <trkpt lat="41.07226" lon="19.90889">
        <ele>106.992662</ele>
        <time>2022-05-03T08:45:16.624Z</time>
      </trkpt>
      <trkpt lat="41.07227" lon="19.90876">
        <ele>106.673374</ele>
        <time>2022-05-03T08:45:18.619Z</time>
      </trkpt>
      <trkpt lat="41.07227" lon="19.90862">
        <ele>106.342995</ele>
        <time>2022-05-03T08:45:20.631Z</time>
      </trkpt>
      <trkpt lat="41.07227" lon="19.90849">
        <ele>106.014841</ele>
        <time>2022-05-03T08:45:22.610Z</time>
      </trkpt>
      <trkpt lat="41.07226" lon="19.90835">
        <ele>105.683272</ele>
        <time>2022-05-03T08:45:24.614Z</time>
      </trkpt>
      <trkpt lat="41.07225" lon="19.90822">
        <ele>105.360676</ele>
        <time>2022-05-03T08:45:26.612Z</time>
      </trkpt>
      <trkpt lat="41.07223" lon="19.90804">
        <ele>104.927661</ele>
        <time>2022-05-03T08:45:29.635Z</time>
      </trkpt>
      <trkpt lat="41.07221" lon="19.90786">
        <ele>105.031686</ele>
        <time>2022-05-03T08:45:32.612Z</time>
      </trkpt>
      <trkpt lat="41.07218" lon="19.9077">
        <ele>105.212754</ele>
        <time>2022-05-03T08:45:35.619Z</time>
      </trkpt>
      <trkpt lat="41.07217" lon="19.90755">
        <ele>105.384464</ele>
        <time>2022-05-03T08:45:38.606Z</time>
      </trkpt>
      <trkpt lat="41.07215" lon="19.9074">
        <ele>105.559901</ele>
        <time>2022-05-03T08:45:41.621Z</time>
      </trkpt>
      <trkpt lat="41.07213" lon="19.90724">
        <ele>105.73252</ele>
        <time>2022-05-03T08:45:44.600Z</time>
      </trkpt>
      <trkpt lat="41.07211" lon="19.90709">
        <ele>105.904045</ele>
        <time>2022-05-03T08:45:47.616Z</time>
      </trkpt>
      <trkpt lat="41.07209" lon="19.90694">
        <ele>106.076101</ele>
        <time>2022-05-03T08:45:50.604Z</time>
      </trkpt>
      <trkpt lat="41.07207" lon="19.90679">
        <ele>106.238426</ele>
        <time>2022-05-03T08:45:53.622Z</time>
      </trkpt>
      <trkpt lat="41.07206" lon="19.90665">
        <ele>106.401125</ele>
        <time>2022-05-03T08:45:56.614Z</time>
      </trkpt>
      <trkpt lat="41.07204" lon="19.90651">
        <ele>106.551719</ele>
        <time>2022-05-03T08:45:59.609Z</time>
      </trkpt>
      <trkpt lat="41.07203" lon="19.90638">
        <ele>106.704513</ele>
        <time>2022-05-03T08:46:02.618Z</time>
      </trkpt>
      <trkpt lat="41.07201" lon="19.90624">
        <ele>106.861922</ele>
        <time>2022-05-03T08:46:05.614Z</time>
      </trkpt>
      <trkpt lat="41.072" lon="19.9061">
        <ele>107.016915</ele>
        <time>2022-05-03T08:46:08.606Z</time>
      </trkpt>
      <trkpt lat="41.07198" lon="19.90596">
        <ele>107.170604</ele>
        <time>2022-05-03T08:46:11.611Z</time>
      </trkpt>
      <trkpt lat="41.07197" lon="19.90583">
        <ele>107.316442</ele>
        <time>2022-05-03T08:46:14.606Z</time>
      </trkpt>
      <trkpt lat="41.07195" lon="19.90572">
        <ele>107.449232</ele>
        <time>2022-05-03T08:46:17.603Z</time>
      </trkpt>
      <trkpt lat="41.07194" lon="19.90559">
        <ele>107.508128</ele>
        <time>2022-05-03T08:46:20.623Z</time>
      </trkpt>
      <trkpt lat="41.07192" lon="19.90545">
        <ele>107.491473</ele>
        <time>2022-05-03T08:46:23.618Z</time>
      </trkpt>
      <trkpt lat="41.0719" lon="19.90531">
        <ele>107.474362</ele>
        <time>2022-05-03T08:46:26.620Z</time>
      </trkpt>
      <trkpt lat="41.07188" lon="19.90516">
        <ele>107.455414</ele>
        <time>2022-05-03T08:46:29.615Z</time>
      </trkpt>
      <trkpt lat="41.07187" lon="19.905">
        <ele>107.435179</ele>
        <time>2022-05-03T08:46:32.611Z</time>
      </trkpt>
      <trkpt lat="41.07185" lon="19.90483">
        <ele>107.41474</ele>
        <time>2022-05-03T08:46:35.613Z</time>
      </trkpt>
      <trkpt lat="41.07185" lon="19.90466">
        <ele>107.393683</ele>
        <time>2022-05-03T08:46:38.625Z</time>
      </trkpt>
      <trkpt lat="41.07185" lon="19.90448">
        <ele>107.371758</ele>
        <time>2022-05-03T08:46:41.615Z</time>
      </trkpt>
      <trkpt lat="41.07186" lon="19.90435">
        <ele>107.355932</ele>
        <time>2022-05-03T08:46:43.622Z</time>
      </trkpt>
      <trkpt lat="41.07187" lon="19.90422">
        <ele>107.34029</ele>
        <time>2022-05-03T08:46:45.635Z</time>
      </trkpt>
      <trkpt lat="41.07188" lon="19.9041">
        <ele>107.324628</ele>
        <time>2022-05-03T08:46:47.627Z</time>
      </trkpt>
      <trkpt lat="41.0719" lon="19.90397">
        <ele>107.308801</ele>
        <time>2022-05-03T08:46:49.637Z</time>
      </trkpt>
      <trkpt lat="41.07191" lon="19.90384">
        <ele>107.292829</ele>
        <time>2022-05-03T08:46:51.606Z</time>
      </trkpt>
      <trkpt lat="41.07193" lon="19.90371">
        <ele>107.276386</ele>
        <time>2022-05-03T08:46:53.618Z</time>
      </trkpt>
      <trkpt lat="41.07195" lon="19.90357">
        <ele>107.25973</ele>
        <time>2022-05-03T08:46:55.614Z</time>
      </trkpt>
      <trkpt lat="41.07197" lon="19.90344">
        <ele>107.24267</ele>
        <time>2022-05-03T08:46:57.616Z</time>
      </trkpt>
      <trkpt lat="41.07198" lon="19.9033">
        <ele>107.226014</ele>
        <time>2022-05-03T08:46:59.630Z</time>
      </trkpt>
      <trkpt lat="41.072" lon="19.90317">
        <ele>107.21728</ele>
        <time>2022-05-03T08:47:01.617Z</time>
      </trkpt>
      <trkpt lat="41.07201" lon="19.90304">
        <ele>107.209132</ele>
        <time>2022-05-03T08:47:03.627Z</time>
      </trkpt>
      <trkpt lat="41.07203" lon="19.90291">
        <ele>107.201056</ele>
        <time>2022-05-03T08:47:05.615Z</time>
      </trkpt>
      <trkpt lat="41.07204" lon="19.90278">
        <ele>107.192917</ele>
        <time>2022-05-03T08:47:07.612Z</time>
      </trkpt>
      <trkpt lat="41.07206" lon="19.90264">
        <ele>107.184637</ele>
        <time>2022-05-03T08:47:09.620Z</time>
      </trkpt>
      <trkpt lat="41.07207" lon="19.90251">
        <ele>107.176417</ele>
        <time>2022-05-03T08:47:11.631Z</time>
      </trkpt>
      <trkpt lat="41.07209" lon="19.90238">
        <ele>107.168351</ele>
        <time>2022-05-03T08:47:13.654Z</time>
      </trkpt>
      <trkpt lat="41.0721" lon="19.90225">
        <ele>107.160615</ele>
        <time>2022-05-03T08:47:15.596Z</time>
      </trkpt>
      <trkpt lat="41.07212" lon="19.90213">
        <ele>107.152685</ele>
        <time>2022-05-03T08:47:17.604Z</time>
      </trkpt>
      <trkpt lat="41.07214" lon="19.902">
        <ele>107.145069</ele>
        <time>2022-05-03T08:47:19.655Z</time>
      </trkpt>
      <trkpt lat="41.07216" lon="19.90183">
        <ele>107.134302</ele>
        <time>2022-05-03T08:47:22.631Z</time>
      </trkpt>
      <trkpt lat="41.07218" lon="19.90167">
        <ele>107.124305</ele>
        <time>2022-05-03T08:47:25.626Z</time>
      </trkpt>
      <trkpt lat="41.0722" lon="19.90151">
        <ele>107.114289</ele>
        <time>2022-05-03T08:47:28.598Z</time>
      </trkpt>
      <trkpt lat="41.07222" lon="19.90135">
        <ele>107.104545</ele>
        <time>2022-05-03T08:47:31.615Z</time>
      </trkpt>
      <trkpt lat="41.07223" lon="19.9012">
        <ele>107.095356</ele>
        <time>2022-05-03T08:47:34.624Z</time>
      </trkpt>
      <trkpt lat="41.07225" lon="19.90105">
        <ele>107.08635</ele>
        <time>2022-05-03T08:47:37.617Z</time>
      </trkpt>
      <trkpt lat="41.07226" lon="19.9009">
        <ele>107.079719</ele>
        <time>2022-05-03T08:47:40.626Z</time>
      </trkpt>
      <trkpt lat="41.07226" lon="19.90075">
        <ele>107.082752</ele>
        <time>2022-05-03T08:47:43.602Z</time>
      </trkpt>
      <trkpt lat="41.07227" lon="19.9006">
        <ele>107.085775</ele>
        <time>2022-05-03T08:47:46.617Z</time>
      </trkpt>
      <trkpt lat="41.07228" lon="19.90044">
        <ele>107.088867</ele>
        <time>2022-05-03T08:47:49.631Z</time>
      </trkpt>
      <trkpt lat="41.07228" lon="19.90029">
        <ele>107.09186</ele>
        <time>2022-05-03T08:47:52.625Z</time>
      </trkpt>
      <trkpt lat="41.07229" lon="19.90015">
        <ele>107.094731</ele>
        <time>2022-05-03T08:47:55.603Z</time>
      </trkpt>
      <trkpt lat="41.07229" lon="19.90001">
        <ele>107.097486</ele>
        <time>2022-05-03T08:47:58.611Z</time>
      </trkpt>
      <trkpt lat="41.07229" lon="19.89987">
        <ele>107.100239</ele>
        <time>2022-05-03T08:48:01.618Z</time>
      </trkpt>
      <trkpt lat="41.07229" lon="19.89973">
        <ele>107.103011</ele>
        <time>2022-05-03T08:48:04.602Z</time>
      </trkpt>
      <trkpt lat="41.07229" lon="19.89958">
        <ele>107.105885</ele>
        <time>2022-05-03T08:48:07.613Z</time>
      </trkpt>
      <trkpt lat="41.07228" lon="19.89943">
        <ele>107.108843</ele>
        <time>2022-05-03T08:48:10.660Z</time>
      </trkpt>
      <trkpt lat="41.07227" lon="19.8993">
        <ele>107.111587</ele>
        <time>2022-05-03T08:48:13.622Z</time>
      </trkpt>
      <trkpt lat="41.07225" lon="19.89916">
        <ele>107.11434</ele>
        <time>2022-05-03T08:48:16.622Z</time>
      </trkpt>
      <trkpt lat="41.07223" lon="19.89902">
        <ele>107.117045</ele>
        <time>2022-05-03T08:48:19.626Z</time>
      </trkpt>
      <trkpt lat="41.07221" lon="19.89889">
        <ele>107.119842</ele>
        <time>2022-05-03T08:48:22.592Z</time>
      </trkpt>
      <trkpt lat="41.07218" lon="19.89875">
        <ele>107.122735</ele>
        <time>2022-05-03T08:48:25.612Z</time>
      </trkpt>
      <trkpt lat="41.07215" lon="19.89861">
        <ele>107.125537</ele>
        <time>2022-05-03T08:48:28.597Z</time>
      </trkpt>
      <trkpt lat="41.07211" lon="19.89847">
        <ele>107.040826</ele>
        <time>2022-05-03T08:48:31.612Z</time>
      </trkpt>
      <trkpt lat="41.07206" lon="19.89834">
        <ele>106.922858</ele>
        <time>2022-05-03T08:48:34.634Z</time>
      </trkpt>
      <trkpt lat="41.07201" lon="19.89819">
        <ele>106.799778</ele>
        <time>2022-05-03T08:48:37.607Z</time>
      </trkpt>
      <trkpt lat="41.07195" lon="19.89804">
        <ele>106.669917</ele>
        <time>2022-05-03T08:48:40.614Z</time>
      </trkpt>
      <trkpt lat="41.07191" lon="19.89794">
        <ele>106.576338</ele>
        <time>2022-05-03T08:48:42.600Z</time>
      </trkpt>
      <trkpt lat="41.07187" lon="19.89783">
        <ele>106.480981</ele>
        <time>2022-05-03T08:48:44.604Z</time>
      </trkpt>
      <trkpt lat="41.07182" lon="19.89771">
        <ele>106.376488</ele>
        <time>2022-05-03T08:48:46.604Z</time>
      </trkpt>
      <trkpt lat="41.07177" lon="19.89759">
        <ele>106.270443</ele>
        <time>2022-05-03T08:48:48.630Z</time>
      </trkpt>
      <trkpt lat="41.07172" lon="19.89747">
        <ele>106.162863</ele>
        <time>2022-05-03T08:48:50.643Z</time>
      </trkpt>
      <trkpt lat="41.07167" lon="19.89735">
        <ele>106.052236</ele>
        <time>2022-05-03T08:48:52.617Z</time>
      </trkpt>
      <trkpt lat="41.07162" lon="19.89722">
        <ele>105.9426</ele>
        <time>2022-05-03T08:48:54.652Z</time>
      </trkpt>
      <trkpt lat="41.07157" lon="19.8971">
        <ele>105.836199</ele>
        <time>2022-05-03T08:48:56.612Z</time>
      </trkpt>
      <trkpt lat="41.07152" lon="19.89698">
        <ele>105.727737</ele>
        <time>2022-05-03T08:48:58.605Z</time>
      </trkpt>
      <trkpt lat="41.07147" lon="19.89686">
        <ele>105.618292</ele>
        <time>2022-05-03T08:49:00.611Z</time>
      </trkpt>
      <trkpt lat="41.07142" lon="19.89673">
        <ele>105.507756</ele>
        <time>2022-05-03T08:49:02.612Z</time>
      </trkpt>
      <trkpt lat="41.07137" lon="19.8966">
        <ele>105.396752</ele>
        <time>2022-05-03T08:49:04.608Z</time>
      </trkpt>
      <trkpt lat="41.07133" lon="19.89648">
        <ele>105.286216</ele>
        <time>2022-05-03T08:49:06.621Z</time>
      </trkpt>
      <trkpt lat="41.07128" lon="19.89635">
        <ele>105.185767</ele>
        <time>2022-05-03T08:49:08.612Z</time>
      </trkpt>
      <trkpt lat="41.07123" lon="19.89623">
        <ele>105.089472</ele>
        <time>2022-05-03T08:49:10.608Z</time>
      </trkpt>
      <trkpt lat="41.07118" lon="19.89611">
        <ele>104.993121</ele>
        <time>2022-05-03T08:49:12.610Z</time>
      </trkpt>
      <trkpt lat="41.07113" lon="19.89599">
        <ele>104.895333</ele>
        <time>2022-05-03T08:49:14.604Z</time>
      </trkpt>
      <trkpt lat="41.07108" lon="19.89587">
        <ele>104.79478</ele>
        <time>2022-05-03T08:49:16.612Z</time>
      </trkpt>
      <trkpt lat="41.07103" lon="19.89574">
        <ele>104.692339</ele>
        <time>2022-05-03T08:49:18.618Z</time>
      </trkpt>
      <trkpt lat="41.07098" lon="19.89561">
        <ele>104.590752</ele>
        <time>2022-05-03T08:49:20.606Z</time>
      </trkpt>
      <trkpt lat="41.07093" lon="19.89549">
        <ele>104.4941</ele>
        <time>2022-05-03T08:49:22.643Z</time>
      </trkpt>
      <trkpt lat="41.07088" lon="19.89538">
        <ele>104.40085</ele>
        <time>2022-05-03T08:49:24.629Z</time>
      </trkpt>
      <trkpt lat="41.07084" lon="19.89527">
        <ele>104.309765</ele>
        <time>2022-05-03T08:49:26.616Z</time>
      </trkpt>
      <trkpt lat="41.07079" lon="19.89516">
        <ele>104.220379</ele>
        <time>2022-05-03T08:49:28.658Z</time>
      </trkpt>
      <trkpt lat="41.07074" lon="19.89504">
        <ele>104.128213</ele>
        <time>2022-05-03T08:49:30.628Z</time>
      </trkpt>
      <trkpt lat="41.07069" lon="19.89493">
        <ele>104.034493</ele>
        <time>2022-05-03T08:49:32.616Z</time>
      </trkpt>
      <trkpt lat="41.07064" lon="19.89482">
        <ele>103.940022</ele>
        <time>2022-05-03T08:49:34.628Z</time>
      </trkpt>
      <trkpt lat="41.07059" lon="19.8947">
        <ele>103.846154</ele>
        <time>2022-05-03T08:49:36.644Z</time>
      </trkpt>
      <trkpt lat="41.07054" lon="19.8946">
        <ele>103.757192</ele>
        <time>2022-05-03T08:49:38.615Z</time>
      </trkpt>
      <trkpt lat="41.07049" lon="19.89449">
        <ele>103.667236</ele>
        <time>2022-05-03T08:49:40.598Z</time>
      </trkpt>
      <trkpt lat="41.07044" lon="19.89439">
        <ele>103.579586</ele>
        <time>2022-05-03T08:49:42.607Z</time>
      </trkpt>
      <trkpt lat="41.07039" lon="19.89428">
        <ele>103.550935</ele>
        <time>2022-05-03T08:49:44.623Z</time>
      </trkpt>
      <trkpt lat="41.07034" lon="19.89418">
        <ele>103.528654</ele>
        <time>2022-05-03T08:49:46.652Z</time>
      </trkpt>
      <trkpt lat="41.07029" lon="19.89408">
        <ele>103.506678</ele>
        <time>2022-05-03T08:49:48.625Z</time>
      </trkpt>
      <trkpt lat="41.07024" lon="19.89398">
        <ele>103.484882</ele>
        <time>2022-05-03T08:49:50.643Z</time>
      </trkpt>
      <trkpt lat="41.07019" lon="19.89388">
        <ele>103.463038</ele>
        <time>2022-05-03T08:49:52.618Z</time>
      </trkpt>
      <trkpt lat="41.07014" lon="19.89377">
        <ele>103.440704</ele>
        <time>2022-05-03T08:49:54.632Z</time>
      </trkpt>
      <trkpt lat="41.07009" lon="19.89367">
        <ele>103.417834</ele>
        <time>2022-05-03T08:49:56.651Z</time>
      </trkpt>
      <trkpt lat="41.07004" lon="19.89357">
        <ele>103.395858</ele>
        <time>2022-05-03T08:49:58.604Z</time>
      </trkpt>
      <trkpt lat="41.06999" lon="19.89346">
        <ele>103.373446</ele>
        <time>2022-05-03T08:50:00.603Z</time>
      </trkpt>
      <trkpt lat="41.06994" lon="19.89336">
        <ele>103.350575</ele>
        <time>2022-05-03T08:50:02.643Z</time>
      </trkpt>
      <trkpt lat="41.06989" lon="19.89325">
        <ele>103.328141</ele>
        <time>2022-05-03T08:50:04.620Z</time>
      </trkpt>
      <trkpt lat="41.06984" lon="19.89315">
        <ele>103.305216</ele>
        <time>2022-05-03T08:50:06.632Z</time>
      </trkpt>
      <trkpt lat="41.06979" lon="19.89304">
        <ele>103.28232</ele>
        <time>2022-05-03T08:50:08.629Z</time>
      </trkpt>
      <trkpt lat="41.06974" lon="19.89293">
        <ele>103.259013</ele>
        <time>2022-05-03T08:50:10.621Z</time>
      </trkpt>
      <trkpt lat="41.06969" lon="19.89282">
        <ele>103.235618</ele>
        <time>2022-05-03T08:50:12.611Z</time>
      </trkpt>
      <trkpt lat="41.06964" lon="19.89271">
        <ele>103.212158</ele>
        <time>2022-05-03T08:50:14.631Z</time>
      </trkpt>
      <trkpt lat="41.06958" lon="19.8926">
        <ele>103.188284</ele>
        <time>2022-05-03T08:50:16.612Z</time>
      </trkpt>
      <trkpt lat="41.06953" lon="19.89249">
        <ele>103.164977</ele>
        <time>2022-05-03T08:50:18.612Z</time>
      </trkpt>
      <trkpt lat="41.06948" lon="19.89239">
        <ele>103.14228</ele>
        <time>2022-05-03T08:50:20.607Z</time>
      </trkpt>
      <trkpt lat="41.06943" lon="19.89229">
        <ele>103.082755</ele>
        <time>2022-05-03T08:50:22.611Z</time>
      </trkpt>
      <trkpt lat="41.06938" lon="19.89219">
        <ele>103.011661</ele>
        <time>2022-05-03T08:50:24.621Z</time>
      </trkpt>
      <trkpt lat="41.0693" lon="19.89204">
        <ele>102.906928</ele>
        <time>2022-05-03T08:50:27.625Z</time>
      </trkpt>
      <trkpt lat="41.06922" lon="19.8919">
        <ele>102.801321</ele>
        <time>2022-05-03T08:50:30.627Z</time>
      </trkpt>
      <trkpt lat="41.06916" lon="19.8918">
        <ele>102.728548</ele>
        <time>2022-05-03T08:50:32.624Z</time>
      </trkpt>
      <trkpt lat="41.0691" lon="19.89171">
        <ele>102.654177</ele>
        <time>2022-05-03T08:50:34.635Z</time>
      </trkpt>
      <trkpt lat="41.06904" lon="19.89161">
        <ele>102.581121</ele>
        <time>2022-05-03T08:50:36.643Z</time>
      </trkpt>
      <trkpt lat="41.06897" lon="19.89153">
        <ele>102.507606</ele>
        <time>2022-05-03T08:50:38.606Z</time>
      </trkpt>
      <trkpt lat="41.0689" lon="19.89144">
        <ele>102.434585</ele>
        <time>2022-05-03T08:50:40.628Z</time>
      </trkpt>
      <trkpt lat="41.06883" lon="19.89136">
        <ele>102.360756</ele>
        <time>2022-05-03T08:50:42.626Z</time>
      </trkpt>
      <trkpt lat="41.06875" lon="19.89128">
        <ele>102.284595</ele>
        <time>2022-05-03T08:50:44.618Z</time>
      </trkpt>
      <trkpt lat="41.06867" lon="19.89121">
        <ele>102.210837</ele>
        <time>2022-05-03T08:50:46.608Z</time>
      </trkpt>
      <trkpt lat="41.06859" lon="19.89114">
        <ele>102.137089</ele>
        <time>2022-05-03T08:50:48.631Z</time>
      </trkpt>
      <trkpt lat="41.06851" lon="19.89108">
        <ele>102.06455</ele>
        <time>2022-05-03T08:50:50.612Z</time>
      </trkpt>
      <trkpt lat="41.06843" lon="19.89103">
        <ele>101.993869</ele>
        <time>2022-05-03T08:50:52.624Z</time>
      </trkpt>
      <trkpt lat="41.06835" lon="19.89097">
        <ele>101.92064</ele>
        <time>2022-05-03T08:50:54.604Z</time>
      </trkpt>
      <trkpt lat="41.06826" lon="19.89092">
        <ele>101.844334</ele>
        <time>2022-05-03T08:50:56.636Z</time>
      </trkpt>
      <trkpt lat="41.06817" lon="19.89086">
        <ele>101.768679</ele>
        <time>2022-05-03T08:50:58.609Z</time>
      </trkpt>
      <trkpt lat="41.06808" lon="19.8908">
        <ele>101.819999</ele>
        <time>2022-05-03T08:51:00.621Z</time>
      </trkpt>
      <trkpt lat="41.068" lon="19.89073">
        <ele>101.976693</ele>
        <time>2022-05-03T08:51:02.620Z</time>
      </trkpt>
      <trkpt lat="41.06792" lon="19.89067">
        <ele>102.126614</ele>
        <time>2022-05-03T08:51:04.613Z</time>
      </trkpt>
      <trkpt lat="41.06784" lon="19.8906">
        <ele>102.271191</ele>
        <time>2022-05-03T08:51:06.618Z</time>
      </trkpt>
      <trkpt lat="41.06773" lon="19.8905">
        <ele>102.483541</ele>
        <time>2022-05-03T08:51:09.627Z</time>
      </trkpt>
      <trkpt lat="41.06763" lon="19.89039">
        <ele>102.682968</ele>
        <time>2022-05-03T08:51:12.615Z</time>
      </trkpt>
      <trkpt lat="41.06755" lon="19.89029">
        <ele>102.865719</ele>
        <time>2022-05-03T08:51:15.613Z</time>
      </trkpt>
      <trkpt lat="41.06746" lon="19.8902">
        <ele>103.040454</ele>
        <time>2022-05-03T08:51:18.612Z</time>
      </trkpt>
      <trkpt lat="41.06738" lon="19.8901">
        <ele>103.21023</ele>
        <time>2022-05-03T08:51:21.620Z</time>
      </trkpt>
      <trkpt lat="41.0673" lon="19.89001">
        <ele>103.370534</ele>
        <time>2022-05-03T08:51:24.617Z</time>
      </trkpt>
      <trkpt lat="41.06723" lon="19.88993">
        <ele>103.525698</ele>
        <time>2022-05-03T08:51:27.613Z</time>
      </trkpt>
      <trkpt lat="41.06716" lon="19.88984">
        <ele>103.673875</ele>
        <time>2022-05-03T08:51:30.636Z</time>
      </trkpt>
      <trkpt lat="41.06709" lon="19.88976">
        <ele>103.819614</ele>
        <time>2022-05-03T08:51:33.642Z</time>
      </trkpt>
      <trkpt lat="41.06702" lon="19.88968">
        <ele>103.96774</ele>
        <time>2022-05-03T08:51:36.606Z</time>
      </trkpt>
      <trkpt lat="41.06695" lon="19.88959">
        <ele>104.117411</ele>
        <time>2022-05-03T08:51:39.630Z</time>
      </trkpt>
      <trkpt lat="41.06689" lon="19.8895">
        <ele>104.264999</ele>
        <time>2022-05-03T08:51:42.655Z</time>
      </trkpt>
      <trkpt lat="41.06682" lon="19.88942">
        <ele>104.408429</ele>
        <time>2022-05-03T08:51:45.610Z</time>
      </trkpt>
      <trkpt lat="41.06675" lon="19.88931">
        <ele>104.584637</ele>
        <time>2022-05-03T08:51:49.616Z</time>
      </trkpt>
      <trkpt lat="41.06667" lon="19.8892">
        <ele>104.825382</ele>
        <time>2022-05-03T08:51:53.660Z</time>
      </trkpt>
      <trkpt lat="41.06659" lon="19.88908">
        <ele>105.071172</ele>
        <time>2022-05-03T08:51:57.619Z</time>
      </trkpt>
      <trkpt lat="41.06653" lon="19.88899">
        <ele>105.2679</ele>
        <time>2022-05-03T08:52:00.598Z</time>
      </trkpt>
      <trkpt lat="41.06648" lon="19.88888">
        <ele>105.480869</ele>
        <time>2022-05-03T08:52:03.614Z</time>
      </trkpt>
      <trkpt lat="41.06642" lon="19.88877">
        <ele>105.694716</ele>
        <time>2022-05-03T08:52:06.616Z</time>
      </trkpt>
      <trkpt lat="41.06636" lon="19.88866">
        <ele>105.902334</ele>
        <time>2022-05-03T08:52:09.602Z</time>
      </trkpt>
      <trkpt lat="41.06631" lon="19.88855">
        <ele>106.111038</ele>
        <time>2022-05-03T08:52:12.594Z</time>
      </trkpt>
      <trkpt lat="41.06625" lon="19.88843">
        <ele>106.336922</ele>
        <time>2022-05-03T08:52:15.597Z</time>
      </trkpt>
      <trkpt lat="41.0662" lon="19.88829">
        <ele>106.574912</ele>
        <time>2022-05-03T08:52:18.606Z</time>
      </trkpt>
      <trkpt lat="41.06615" lon="19.88816">
        <ele>106.81469</ele>
        <time>2022-05-03T08:52:21.598Z</time>
      </trkpt>
      <trkpt lat="41.0661" lon="19.88803">
        <ele>107.046931</ele>
        <time>2022-05-03T08:52:24.604Z</time>
      </trkpt>
      <trkpt lat="41.06606" lon="19.88789">
        <ele>107.281456</ele>
        <time>2022-05-03T08:52:27.640Z</time>
      </trkpt>
      <trkpt lat="41.06601" lon="19.88774">
        <ele>107.545107</ele>
        <time>2022-05-03T08:52:30.609Z</time>
      </trkpt>
      <trkpt lat="41.06596" lon="19.88757">
        <ele>107.827047</ele>
        <time>2022-05-03T08:52:33.593Z</time>
      </trkpt>
      <trkpt lat="41.0659" lon="19.88741">
        <ele>108.111112</ele>
        <time>2022-05-03T08:52:36.606Z</time>
      </trkpt>
      <trkpt lat="41.06587" lon="19.88729">
        <ele>108.310713</ele>
        <time>2022-05-03T08:52:38.608Z</time>
      </trkpt>
      <trkpt lat="41.06583" lon="19.88717">
        <ele>108.366902</ele>
        <time>2022-05-03T08:52:40.603Z</time>
      </trkpt>
      <trkpt lat="41.0658" lon="19.88706">
        <ele>108.38621</ele>
        <time>2022-05-03T08:52:42.608Z</time>
      </trkpt>
      <trkpt lat="41.06576" lon="19.88694">
        <ele>108.406317</ele>
        <time>2022-05-03T08:52:44.631Z</time>
      </trkpt>
      <trkpt lat="41.06572" lon="19.88682">
        <ele>108.426264</ele>
        <time>2022-05-03T08:52:46.608Z</time>
      </trkpt>
      <trkpt lat="41.06568" lon="19.88669">
        <ele>108.446842</ele>
        <time>2022-05-03T08:52:48.603Z</time>
      </trkpt>
      <trkpt lat="41.06564" lon="19.88657">
        <ele>108.467137</ele>
        <time>2022-05-03T08:52:50.631Z</time>
      </trkpt>
      <trkpt lat="41.06561" lon="19.88644">
        <ele>108.487145</ele>
        <time>2022-05-03T08:52:52.642Z</time>
      </trkpt>
      <trkpt lat="41.06557" lon="19.88632">
        <ele>108.507152</ele>
        <time>2022-05-03T08:52:54.608Z</time>
      </trkpt>
      <trkpt lat="41.06554" lon="19.8862">
        <ele>108.526661</ele>
        <time>2022-05-03T08:52:56.611Z</time>
      </trkpt>
      <trkpt lat="41.0655" lon="19.88608">
        <ele>108.54625</ele>
        <time>2022-05-03T08:52:58.614Z</time>
      </trkpt>
      <trkpt lat="41.06546" lon="19.88596">
        <ele>108.565885</ele>
        <time>2022-05-03T08:53:00.599Z</time>
      </trkpt>
      <trkpt lat="41.06543" lon="19.88584">
        <ele>108.585681</ele>
        <time>2022-05-03T08:53:02.620Z</time>
      </trkpt>
      <trkpt lat="41.06539" lon="19.88573">
        <ele>108.603839</ele>
        <time>2022-05-03T08:53:04.617Z</time>
      </trkpt>
      <trkpt lat="41.06535" lon="19.88561">
        <ele>108.623367</ele>
        <time>2022-05-03T08:53:06.655Z</time>
      </trkpt>
      <trkpt lat="41.06531" lon="19.88549">
        <ele>108.643613</ele>
        <time>2022-05-03T08:53:08.653Z</time>
      </trkpt>
      <trkpt lat="41.06528" lon="19.88536">
        <ele>108.66462</ele>
        <time>2022-05-03T08:53:10.640Z</time>
      </trkpt>
      <trkpt lat="41.06524" lon="19.88523">
        <ele>108.685913</ele>
        <time>2022-05-03T08:53:12.611Z</time>
      </trkpt>
      <trkpt lat="41.0652" lon="19.8851">
        <ele>108.707183</ele>
        <time>2022-05-03T08:53:14.628Z</time>
      </trkpt>
      <trkpt lat="41.06516" lon="19.88498">
        <ele>108.700564</ele>
        <time>2022-05-03T08:53:16.592Z</time>
      </trkpt>
      <trkpt lat="41.06512" lon="19.88485">
        <ele>108.678462</ele>
        <time>2022-05-03T08:53:18.601Z</time>
      </trkpt>
      <trkpt lat="41.06507" lon="19.88472">
        <ele>108.656401</ele>
        <time>2022-05-03T08:53:20.634Z</time>
      </trkpt>
      <trkpt lat="41.06503" lon="19.88459">
        <ele>108.63411</ele>
        <time>2022-05-03T08:53:22.608Z</time>
      </trkpt>
      <trkpt lat="41.06498" lon="19.88446">
        <ele>108.611122</ele>
        <time>2022-05-03T08:53:24.593Z</time>
      </trkpt>
      <trkpt lat="41.06494" lon="19.88433">
        <ele>108.588726</ele>
        <time>2022-05-03T08:53:26.616Z</time>
      </trkpt>
      <trkpt lat="41.0649" lon="19.88421">
        <ele>108.567499</ele>
        <time>2022-05-03T08:53:28.595Z</time>
      </trkpt>
      <trkpt lat="41.06486" lon="19.88408">
        <ele>108.545005</ele>
        <time>2022-05-03T08:53:30.599Z</time>
      </trkpt>
      <trkpt lat="41.06482" lon="19.88395">
        <ele>108.522675</ele>
        <time>2022-05-03T08:53:32.626Z</time>
      </trkpt>
      <trkpt lat="41.06478" lon="19.88381">
        <ele>108.49968</ele>
        <time>2022-05-03T08:53:34.604Z</time>
      </trkpt>
      <trkpt lat="41.06473" lon="19.88368">
        <ele>108.477013</ele>
        <time>2022-05-03T08:53:36.605Z</time>
      </trkpt>
      <trkpt lat="41.06469" lon="19.88355">
        <ele>108.45491</ele>
        <time>2022-05-03T08:53:38.614Z</time>
      </trkpt>
      <trkpt lat="41.06465" lon="19.88342">
        <ele>108.432499</ele>
        <time>2022-05-03T08:53:40.642Z</time>
      </trkpt>
      <trkpt lat="41.06461" lon="19.8833">
        <ele>108.410378</ele>
        <time>2022-05-03T08:53:42.603Z</time>
      </trkpt>
      <trkpt lat="41.06456" lon="19.88317">
        <ele>108.387909</ele>
        <time>2022-05-03T08:53:44.614Z</time>
      </trkpt>
      <trkpt lat="41.06452" lon="19.88304">
        <ele>108.366018</ele>
        <time>2022-05-03T08:53:46.618Z</time>
      </trkpt>
      <trkpt lat="41.06448" lon="19.88291">
        <ele>108.343957</ele>
        <time>2022-05-03T08:53:48.605Z</time>
      </trkpt>
      <trkpt lat="41.06444" lon="19.88278">
        <ele>108.118378</ele>
        <time>2022-05-03T08:53:50.630Z</time>
      </trkpt>
      <trkpt lat="41.0644" lon="19.88266">
        <ele>107.801367</ele>
        <time>2022-05-03T08:53:52.624Z</time>
      </trkpt>
      <trkpt lat="41.06435" lon="19.88253">
        <ele>107.481951</ele>
        <time>2022-05-03T08:53:54.616Z</time>
      </trkpt>
      <trkpt lat="41.06431" lon="19.8824">
        <ele>107.156195</ele>
        <time>2022-05-03T08:53:56.615Z</time>
      </trkpt>
      <trkpt lat="41.06427" lon="19.88228">
        <ele>106.840991</ele>
        <time>2022-05-03T08:53:58.606Z</time>
      </trkpt>
      <trkpt lat="41.06423" lon="19.88215">
        <ele>106.525144</ele>
        <time>2022-05-03T08:54:00.615Z</time>
      </trkpt>
      <trkpt lat="41.06419" lon="19.88203">
        <ele>106.21539</ele>
        <time>2022-05-03T08:54:02.643Z</time>
      </trkpt>
      <trkpt lat="41.06415" lon="19.88191">
        <ele>105.91067</ele>
        <time>2022-05-03T08:54:04.608Z</time>
      </trkpt>
      <trkpt lat="41.0641" lon="19.88178">
        <ele>105.599177</ele>
        <time>2022-05-03T08:54:06.606Z</time>
      </trkpt>
      <trkpt lat="41.06406" lon="19.88167">
        <ele>105.292383</ele>
        <time>2022-05-03T08:54:08.610Z</time>
      </trkpt>
      <trkpt lat="41.06401" lon="19.88155">
        <ele>104.980922</ele>
        <time>2022-05-03T08:54:10.596Z</time>
      </trkpt>
      <trkpt lat="41.06396" lon="19.88143">
        <ele>104.668877</ele>
        <time>2022-05-03T08:54:12.619Z</time>
      </trkpt>
      <trkpt lat="41.0639" lon="19.88131">
        <ele>104.341046</ele>
        <time>2022-05-03T08:54:14.602Z</time>
      </trkpt>
      <trkpt lat="41.06384" lon="19.88119">
        <ele>104.020201</ele>
        <time>2022-05-03T08:54:16.617Z</time>
      </trkpt>
      <trkpt lat="41.06378" lon="19.88107">
        <ele>103.677877</ele>
        <time>2022-05-03T08:54:18.614Z</time>
      </trkpt>
      <trkpt lat="41.06372" lon="19.88095">
        <ele>103.350464</ele>
        <time>2022-05-03T08:54:20.612Z</time>
      </trkpt>
      <trkpt lat="41.06365" lon="19.88085">
        <ele>103.033827</ele>
        <time>2022-05-03T08:54:22.625Z</time>
      </trkpt>
      <trkpt lat="41.06358" lon="19.88074">
        <ele>102.773966</ele>
        <time>2022-05-03T08:54:24.651Z</time>
      </trkpt>
      <trkpt lat="41.06351" lon="19.88062">
        <ele>102.610666</ele>
        <time>2022-05-03T08:54:26.636Z</time>
      </trkpt>
      <trkpt lat="41.06344" lon="19.8805">
        <ele>102.441134</ele>
        <time>2022-05-03T08:54:28.613Z</time>
      </trkpt>
      <trkpt lat="41.06337" lon="19.88039">
        <ele>102.276963</ele>
        <time>2022-05-03T08:54:30.625Z</time>
      </trkpt>
      <trkpt lat="41.0633" lon="19.88027">
        <ele>102.111875</ele>
        <time>2022-05-03T08:54:32.622Z</time>
      </trkpt>
      <trkpt lat="41.06323" lon="19.88015">
        <ele>101.946829</ele>
        <time>2022-05-03T08:54:34.618Z</time>
      </trkpt>
      <trkpt lat="41.06317" lon="19.88004">
        <ele>101.78954</ele>
        <time>2022-05-03T08:54:36.610Z</time>
      </trkpt>
      <trkpt lat="41.0631" lon="19.87994">
        <ele>101.637817</ele>
        <time>2022-05-03T08:54:38.626Z</time>
      </trkpt>
      <trkpt lat="41.06303" lon="19.87983">
        <ele>101.483892</ele>
        <time>2022-05-03T08:54:40.614Z</time>
      </trkpt>
      <trkpt lat="41.06297" lon="19.87973">
        <ele>101.331143</ele>
        <time>2022-05-03T08:54:42.609Z</time>
      </trkpt>
      <trkpt lat="41.0629" lon="19.87962">
        <ele>101.177537</ele>
        <time>2022-05-03T08:54:44.614Z</time>
      </trkpt>
      <trkpt lat="41.06284" lon="19.87951">
        <ele>101.021388</ele>
        <time>2022-05-03T08:54:46.644Z</time>
      </trkpt>
      <trkpt lat="41.06277" lon="19.8794">
        <ele>100.865187</ele>
        <time>2022-05-03T08:54:48.605Z</time>
      </trkpt>
      <trkpt lat="41.06271" lon="19.87928">
        <ele>100.700046</ele>
        <time>2022-05-03T08:54:50.606Z</time>
      </trkpt>
      <trkpt lat="41.06265" lon="19.87914">
        <ele>100.528967</ele>
        <time>2022-05-03T08:54:52.663Z</time>
      </trkpt>
      <trkpt lat="41.06259" lon="19.87901">
        <ele>100.361391</ele>
        <time>2022-05-03T08:54:54.613Z</time>
      </trkpt>
      <trkpt lat="41.06255" lon="19.87887">
        <ele>100.194329</ele>
        <time>2022-05-03T08:54:56.626Z</time>
      </trkpt>
      <trkpt lat="41.06251" lon="19.87874">
        <ele>100.205352</ele>
        <time>2022-05-03T08:54:58.615Z</time>
      </trkpt>
      <trkpt lat="41.06248" lon="19.8786">
        <ele>100.219096</ele>
        <time>2022-05-03T08:55:00.614Z</time>
      </trkpt>
      <trkpt lat="41.06245" lon="19.87847">
        <ele>100.232054</ele>
        <time>2022-05-03T08:55:02.620Z</time>
      </trkpt>
      <trkpt lat="41.06243" lon="19.87834">
        <ele>100.24512</ele>
        <time>2022-05-03T08:55:04.611Z</time>
      </trkpt>
      <trkpt lat="41.06242" lon="19.8782">
        <ele>100.258439</ele>
        <time>2022-05-03T08:55:06.615Z</time>
      </trkpt>
      <trkpt lat="41.06241" lon="19.87806">
        <ele>100.272141</ele>
        <time>2022-05-03T08:55:08.633Z</time>
      </trkpt>
      <trkpt lat="41.06241" lon="19.87792">
        <ele>100.286017</ele>
        <time>2022-05-03T08:55:10.619Z</time>
      </trkpt>
      <trkpt lat="41.06241" lon="19.87778">
        <ele>100.298744</ele>
        <time>2022-05-03T08:55:12.634Z</time>
      </trkpt>
      <trkpt lat="41.06242" lon="19.87764">
        <ele>100.312454</ele>
        <time>2022-05-03T08:55:14.649Z</time>
      </trkpt>
      <trkpt lat="41.06243" lon="19.8775">
        <ele>100.326548</ele>
        <time>2022-05-03T08:55:16.624Z</time>
      </trkpt>
      <trkpt lat="41.06243" lon="19.87734">
        <ele>100.341804</ele>
        <time>2022-05-03T08:55:18.616Z</time>
      </trkpt>
      <trkpt lat="41.06244" lon="19.87717">
        <ele>100.357521</ele>
        <time>2022-05-03T08:55:20.616Z</time>
      </trkpt>
      <trkpt lat="41.06244" lon="19.87701">
        <ele>100.373142</ele>
        <time>2022-05-03T08:55:22.621Z</time>
      </trkpt>
      <trkpt lat="41.06245" lon="19.87684">
        <ele>100.389656</ele>
        <time>2022-05-03T08:55:24.617Z</time>
      </trkpt>
      <trkpt lat="41.06246" lon="19.87666">
        <ele>100.407309</ele>
        <time>2022-05-03T08:55:26.596Z</time>
      </trkpt>
      <trkpt lat="41.06246" lon="19.87648">
        <ele>100.352863</ele>
        <time>2022-05-03T08:55:28.612Z</time>
      </trkpt>
      <trkpt lat="41.06247" lon="19.8763">
        <ele>100.018404</ele>
        <time>2022-05-03T08:55:30.597Z</time>
      </trkpt>
      <trkpt lat="41.06248" lon="19.87612">
        <ele>99.687371</ele>
        <time>2022-05-03T08:55:32.619Z</time>
      </trkpt>
      <trkpt lat="41.06249" lon="19.87593">
        <ele>99.326402</ele>
        <time>2022-05-03T08:55:34.631Z</time>
      </trkpt>
      <trkpt lat="41.0625" lon="19.87574">
        <ele>98.961325</ele>
        <time>2022-05-03T08:55:36.614Z</time>
      </trkpt>
      <trkpt lat="41.06251" lon="19.87555">
        <ele>98.603771</ele>
        <time>2022-05-03T08:55:38.623Z</time>
      </trkpt>
      <trkpt lat="41.06252" lon="19.87537">
        <ele>98.2525</ele>
        <time>2022-05-03T08:55:40.620Z</time>
      </trkpt>
      <trkpt lat="41.06253" lon="19.87517">
        <ele>97.889795</ele>
        <time>2022-05-03T08:55:42.630Z</time>
      </trkpt>
      <trkpt lat="41.06254" lon="19.87498">
        <ele>97.530543</ele>
        <time>2022-05-03T08:55:44.635Z</time>
      </trkpt>
      <trkpt lat="41.06255" lon="19.8748">
        <ele>97.188398</ele>
        <time>2022-05-03T08:55:46.604Z</time>
      </trkpt>
      <trkpt lat="41.06256" lon="19.87463">
        <ele>96.863007</ele>
        <time>2022-05-03T08:55:48.600Z</time>
      </trkpt>
      <trkpt lat="41.06257" lon="19.87447">
        <ele>96.558494</ele>
        <time>2022-05-03T08:55:50.602Z</time>
      </trkpt>
      <trkpt lat="41.06257" lon="19.87434">
        <ele>96.307616</ele>
        <time>2022-05-03T08:55:52.607Z</time>
      </trkpt>
      <trkpt lat="41.06257" lon="19.87421">
        <ele>96.062397</ele>
        <time>2022-05-03T08:55:54.652Z</time>
      </trkpt>
      <trkpt lat="41.06256" lon="19.87407">
        <ele>95.866527</ele>
        <time>2022-05-03T08:55:56.608Z</time>
      </trkpt>
      <trkpt lat="41.06256" lon="19.87392">
        <ele>95.745608</ele>
        <time>2022-05-03T08:55:58.603Z</time>
      </trkpt>
      <trkpt lat="41.06255" lon="19.87379">
        <ele>95.631984</ele>
        <time>2022-05-03T08:56:00.608Z</time>
      </trkpt>
      <trkpt lat="41.06253" lon="19.87366">
        <ele>95.518669</ele>
        <time>2022-05-03T08:56:02.616Z</time>
      </trkpt>
      <trkpt lat="41.06252" lon="19.87352">
        <ele>95.400184</ele>
        <time>2022-05-03T08:56:04.602Z</time>
      </trkpt>
      <trkpt lat="41.0625" lon="19.87337">
        <ele>95.27746</ele>
        <time>2022-05-03T08:56:06.625Z</time>
      </trkpt>
      <trkpt lat="41.06248" lon="19.87323">
        <ele>95.154104</ele>
        <time>2022-05-03T08:56:08.617Z</time>
      </trkpt>
      <trkpt lat="41.06246" lon="19.87308">
        <ele>95.025988</ele>
        <time>2022-05-03T08:56:10.616Z</time>
      </trkpt>
      <trkpt lat="41.06244" lon="19.87293">
        <ele>94.897452</ele>
        <time>2022-05-03T08:56:12.618Z</time>
      </trkpt>
      <trkpt lat="41.06242" lon="19.87278">
        <ele>94.771204</ele>
        <time>2022-05-03T08:56:14.615Z</time>
      </trkpt>
      <trkpt lat="41.0624" lon="19.87265">
        <ele>94.652832</ele>
        <time>2022-05-03T08:56:16.649Z</time>
      </trkpt>
      <trkpt lat="41.06238" lon="19.87251">
        <ele>94.533176</ele>
        <time>2022-05-03T08:56:18.623Z</time>
      </trkpt>
      <trkpt lat="41.06236" lon="19.87237">
        <ele>94.418324</ele>
        <time>2022-05-03T08:56:20.628Z</time>
      </trkpt>
      <trkpt lat="41.06234" lon="19.87224">
        <ele>94.304496</ele>
        <time>2022-05-03T08:56:22.620Z</time>
      </trkpt>
      <trkpt lat="41.06233" lon="19.8721">
        <ele>94.189003</ele>
        <time>2022-05-03T08:56:24.628Z</time>
      </trkpt>
      <trkpt lat="41.06231" lon="19.87197">
        <ele>94.074522</ele>
        <time>2022-05-03T08:56:26.608Z</time>
      </trkpt>
      <trkpt lat="41.06229" lon="19.87184">
        <ele>93.960693</ele>
        <time>2022-05-03T08:56:28.626Z</time>
      </trkpt>
      <trkpt lat="41.06228" lon="19.8717">
        <ele>94.076618</ele>
        <time>2022-05-03T08:56:30.627Z</time>
      </trkpt>
      <trkpt lat="41.06227" lon="19.87157">
        <ele>94.37277</ele>
        <time>2022-05-03T08:56:32.615Z</time>
      </trkpt>
      <trkpt lat="41.06225" lon="19.87145">
        <ele>94.660963</ele>
        <time>2022-05-03T08:56:34.613Z</time>
      </trkpt>
      <trkpt lat="41.06224" lon="19.87132">
        <ele>94.949512</ele>
        <time>2022-05-03T08:56:36.615Z</time>
      </trkpt>
      <trkpt lat="41.06222" lon="19.8712">
        <ele>95.231319</ele>
        <time>2022-05-03T08:56:38.643Z</time>
      </trkpt>
      <trkpt lat="41.06221" lon="19.87108">
        <ele>95.506831</ele>
        <time>2022-05-03T08:56:40.619Z</time>
      </trkpt>
      <trkpt lat="41.06218" lon="19.87091">
        <ele>95.905945</ele>
        <time>2022-05-03T08:56:43.613Z</time>
      </trkpt>
      <trkpt lat="41.06216" lon="19.87073">
        <ele>96.312301</ele>
        <time>2022-05-03T08:56:46.619Z</time>
      </trkpt>
      <trkpt lat="41.06214" lon="19.87061">
        <ele>96.597176</ele>
        <time>2022-05-03T08:56:48.622Z</time>
      </trkpt>
      <trkpt lat="41.06212" lon="19.87049">
        <ele>96.882671</ele>
        <time>2022-05-03T08:56:50.629Z</time>
      </trkpt>
      <trkpt lat="41.0621" lon="19.87036">
        <ele>97.164391</ele>
        <time>2022-05-03T08:56:52.607Z</time>
      </trkpt>
      <trkpt lat="41.06208" lon="19.87025">
        <ele>97.435944</ele>
        <time>2022-05-03T08:56:54.618Z</time>
      </trkpt>
      <trkpt lat="41.06206" lon="19.87013">
        <ele>97.711326</ele>
        <time>2022-05-03T08:56:56.620Z</time>
      </trkpt>
      <trkpt lat="41.06203" lon="19.86996">
        <ele>98.10526</ele>
        <time>2022-05-03T08:56:59.619Z</time>
      </trkpt>
      <trkpt lat="41.062" lon="19.86979">
        <ele>98.502292</ele>
        <time>2022-05-03T08:57:02.616Z</time>
      </trkpt>
      <trkpt lat="41.06197" lon="19.86962">
        <ele>98.903544</ele>
        <time>2022-05-03T08:57:05.625Z</time>
      </trkpt>
      <trkpt lat="41.06194" lon="19.86945">
        <ele>99.283537</ele>
        <time>2022-05-03T08:57:08.619Z</time>
      </trkpt>
      <trkpt lat="41.06192" lon="19.86931">
        <ele>99.259154</ele>
        <time>2022-05-03T08:57:11.632Z</time>
      </trkpt>
      <trkpt lat="41.06189" lon="19.86917">
        <ele>99.195627</ele>
        <time>2022-05-03T08:57:14.622Z</time>
      </trkpt>
      <trkpt lat="41.06187" lon="19.86904">
        <ele>99.130835</ele>
        <time>2022-05-03T08:57:17.682Z</time>
      </trkpt>
      <trkpt lat="41.06185" lon="19.8689">
        <ele>99.064908</ele>
        <time>2022-05-03T08:57:20.615Z</time>
      </trkpt>
      <trkpt lat="41.06183" lon="19.86876">
        <ele>98.997596</ele>
        <time>2022-05-03T08:57:23.631Z</time>
      </trkpt>
      <trkpt lat="41.06181" lon="19.86861">
        <ele>98.92756</ele>
        <time>2022-05-03T08:57:26.611Z</time>
      </trkpt>
      <trkpt lat="41.06179" lon="19.86846">
        <ele>98.858266</ele>
        <time>2022-05-03T08:57:29.618Z</time>
      </trkpt>
      <trkpt lat="41.06177" lon="19.86831">
        <ele>98.788015</ele>
        <time>2022-05-03T08:57:32.624Z</time>
      </trkpt>
      <trkpt lat="41.06175" lon="19.86816">
        <ele>98.71913</ele>
        <time>2022-05-03T08:57:35.711Z</time>
      </trkpt>
      <trkpt lat="41.06173" lon="19.86801">
        <ele>98.648423</ele>
        <time>2022-05-03T08:57:38.631Z</time>
      </trkpt>
      <trkpt lat="41.06171" lon="19.86787">
        <ele>98.579674</ele>
        <time>2022-05-03T08:57:41.617Z</time>
      </trkpt>
      <trkpt lat="41.06169" lon="19.86772">
        <ele>98.509989</ele>
        <time>2022-05-03T08:57:44.630Z</time>
      </trkpt>
      <trkpt lat="41.06167" lon="19.86757">
        <ele>98.442128</ele>
        <time>2022-05-03T08:57:47.612Z</time>
      </trkpt>
      <trkpt lat="41.06165" lon="19.86743">
        <ele>98.372421</ele>
        <time>2022-05-03T08:57:50.607Z</time>
      </trkpt>
      <trkpt lat="41.06163" lon="19.86728">
        <ele>98.302484</ele>
        <time>2022-05-03T08:57:53.615Z</time>
      </trkpt>
      <trkpt lat="41.0616" lon="19.86712">
        <ele>98.22757</ele>
        <time>2022-05-03T08:57:56.652Z</time>
      </trkpt>
      <trkpt lat="41.06158" lon="19.86697">
        <ele>98.186891</ele>
        <time>2022-05-03T08:57:59.618Z</time>
      </trkpt>
      <trkpt lat="41.06156" lon="19.86682">
        <ele>98.152032</ele>
        <time>2022-05-03T08:58:02.592Z</time>
      </trkpt>
      <trkpt lat="41.06154" lon="19.86668">
        <ele>98.117962</ele>
        <time>2022-05-03T08:58:05.637Z</time>
      </trkpt>
      <trkpt lat="41.06151" lon="19.86652">
        <ele>98.08112</ele>
        <time>2022-05-03T08:58:08.613Z</time>
      </trkpt>
      <trkpt lat="41.06148" lon="19.86637">
        <ele>98.044454</ele>
        <time>2022-05-03T08:58:11.598Z</time>
      </trkpt>
      <trkpt lat="41.06145" lon="19.86621">
        <ele>98.007085</ele>
        <time>2022-05-03T08:58:14.657Z</time>
      </trkpt>
      <trkpt lat="41.06142" lon="19.86605">
        <ele>97.969216</ele>
        <time>2022-05-03T08:58:17.616Z</time>
      </trkpt>
      <trkpt lat="41.06139" lon="19.8659">
        <ele>97.932773</ele>
        <time>2022-05-03T08:58:20.639Z</time>
      </trkpt>
      <trkpt lat="41.06136" lon="19.86575">
        <ele>97.896722</ele>
        <time>2022-05-03T08:58:23.613Z</time>
      </trkpt>
      <trkpt lat="41.06132" lon="19.8656">
        <ele>97.861672</ele>
        <time>2022-05-03T08:58:26.655Z</time>
      </trkpt>
      <trkpt lat="41.06128" lon="19.86546">
        <ele>97.826116</ele>
        <time>2022-05-03T08:58:29.615Z</time>
      </trkpt>
      <trkpt lat="41.06123" lon="19.86531">
        <ele>97.789787</ele>
        <time>2022-05-03T08:58:32.616Z</time>
      </trkpt>
      <trkpt lat="41.06119" lon="19.86516">
        <ele>97.753095</ele>
        <time>2022-05-03T08:58:35.624Z</time>
      </trkpt>
      <trkpt lat="41.06113" lon="19.86502">
        <ele>97.71685</ele>
        <time>2022-05-03T08:58:38.633Z</time>
      </trkpt>
      <trkpt lat="41.06108" lon="19.86488">
        <ele>97.680451</ele>
        <time>2022-05-03T08:58:41.621Z</time>
      </trkpt>
      <trkpt lat="41.06103" lon="19.86473">
        <ele>97.762144</ele>
        <time>2022-05-03T08:58:44.598Z</time>
      </trkpt>
      <trkpt lat="41.06097" lon="19.86457">
        <ele>97.909514</ele>
        <time>2022-05-03T08:58:47.616Z</time>
      </trkpt>
      <trkpt lat="41.06094" lon="19.86446">
        <ele>98.009891</ele>
        <time>2022-05-03T08:58:49.610Z</time>
      </trkpt>
      <trkpt lat="41.0609" lon="19.86434">
        <ele>98.118373</ele>
        <time>2022-05-03T08:58:51.609Z</time>
      </trkpt>
      <trkpt lat="41.06087" lon="19.86422">
        <ele>98.226079</ele>
        <time>2022-05-03T08:58:53.627Z</time>
      </trkpt>
      <trkpt lat="41.06084" lon="19.8641">
        <ele>98.331047</ele>
        <time>2022-05-03T08:58:55.620Z</time>
      </trkpt>
      <trkpt lat="41.06081" lon="19.86398">
        <ele>98.436066</ele>
        <time>2022-05-03T08:58:57.625Z</time>
      </trkpt>
      <trkpt lat="41.06079" lon="19.86386">
        <ele>98.537277</ele>
        <time>2022-05-03T08:58:59.651Z</time>
      </trkpt>
      <trkpt lat="41.06075" lon="19.86369">
        <ele>98.681788</ele>
        <time>2022-05-03T08:59:02.617Z</time>
      </trkpt>
      <trkpt lat="41.06073" lon="19.86355">
        <ele>98.808744</ele>
        <time>2022-05-03T08:59:05.620Z</time>
      </trkpt>
      <trkpt lat="41.06072" lon="19.86342">
        <ele>98.914687</ele>
        <time>2022-05-03T08:59:08.611Z</time>
      </trkpt>
      <trkpt lat="41.06071" lon="19.86328">
        <ele>99.029628</ele>
        <time>2022-05-03T08:59:11.612Z</time>
      </trkpt>
      <trkpt lat="41.06071" lon="19.86313">
        <ele>99.160381</ele>
        <time>2022-05-03T08:59:14.626Z</time>
      </trkpt>
      <trkpt lat="41.06071" lon="19.86295">
        <ele>99.306047</ele>
        <time>2022-05-03T08:59:17.624Z</time>
      </trkpt>
      <trkpt lat="41.06071" lon="19.86278">
        <ele>99.44919</ele>
        <time>2022-05-03T08:59:20.622Z</time>
      </trkpt>
      <trkpt lat="41.06071" lon="19.86262">
        <ele>99.584813</ele>
        <time>2022-05-03T08:59:23.630Z</time>
      </trkpt>
      <trkpt lat="41.06071" lon="19.86246">
        <ele>99.615209</ele>
        <time>2022-05-03T08:59:26.626Z</time>
      </trkpt>
      <trkpt lat="41.06071" lon="19.86229">
        <ele>99.49336</ele>
        <time>2022-05-03T08:59:29.605Z</time>
      </trkpt>
      <trkpt lat="41.0607" lon="19.86211">
        <ele>99.368417</ele>
        <time>2022-05-03T08:59:32.627Z</time>
      </trkpt>
      <trkpt lat="41.06069" lon="19.86194">
        <ele>99.244127</ele>
        <time>2022-05-03T08:59:35.609Z</time>
      </trkpt>
      <trkpt lat="41.06068" lon="19.86182">
        <ele>99.158786</ele>
        <time>2022-05-03T08:59:37.611Z</time>
      </trkpt>
      <trkpt lat="41.06066" lon="19.86164">
        <ele>99.030775</ele>
        <time>2022-05-03T08:59:40.624Z</time>
      </trkpt>
      <trkpt lat="41.06065" lon="19.86152">
        <ele>98.941171</ele>
        <time>2022-05-03T08:59:42.627Z</time>
      </trkpt>
      <trkpt lat="41.06063" lon="19.86139">
        <ele>98.848177</ele>
        <time>2022-05-03T08:59:44.644Z</time>
      </trkpt>
      <trkpt lat="41.06061" lon="19.86126">
        <ele>98.755183</ele>
        <time>2022-05-03T08:59:46.622Z</time>
      </trkpt>
      <trkpt lat="41.0606" lon="19.86114">
        <ele>98.662383</ele>
        <time>2022-05-03T08:59:48.615Z</time>
      </trkpt>
      <trkpt lat="41.06058" lon="19.86101">
        <ele>98.572393</ele>
        <time>2022-05-03T08:59:50.613Z</time>
      </trkpt>
      <trkpt lat="41.06055" lon="19.86089">
        <ele>98.484103</ele>
        <time>2022-05-03T08:59:52.606Z</time>
      </trkpt>
      <trkpt lat="41.06053" lon="19.86078">
        <ele>98.395303</ele>
        <time>2022-05-03T08:59:54.614Z</time>
      </trkpt>
      <trkpt lat="41.0605" lon="19.86066">
        <ele>98.308975</ele>
        <time>2022-05-03T08:59:56.621Z</time>
      </trkpt>
      <trkpt lat="41.06047" lon="19.86054">
        <ele>98.219486</ele>
        <time>2022-05-03T08:59:58.604Z</time>
      </trkpt>
      <trkpt lat="41.06045" lon="19.86043">
        <ele>98.133552</ele>
        <time>2022-05-03T09:00:00.638Z</time>
      </trkpt>
      <trkpt lat="41.0604" lon="19.86027">
        <ele>98.011828</ele>
        <time>2022-05-03T09:00:03.615Z</time>
      </trkpt>
      <trkpt lat="41.06035" lon="19.86012">
        <ele>97.894123</ele>
        <time>2022-05-03T09:00:06.672Z</time>
      </trkpt>
      <trkpt lat="41.06029" lon="19.85997">
        <ele>97.772517</ele>
        <time>2022-05-03T09:00:09.625Z</time>
      </trkpt>
      <trkpt lat="41.06024" lon="19.85983">
        <ele>97.660867</ele>
        <time>2022-05-03T09:00:12.657Z</time>
      </trkpt>
      <trkpt lat="41.06017" lon="19.8597">
        <ele>97.544924</ele>
        <time>2022-05-03T09:00:15.639Z</time>
      </trkpt>
      <trkpt lat="41.0601" lon="19.85956">
        <ele>97.421688</ele>
        <time>2022-05-03T09:00:18.622Z</time>
      </trkpt>
      <trkpt lat="41.06003" lon="19.85942">
        <ele>97.295788</ele>
        <time>2022-05-03T09:00:21.630Z</time>
      </trkpt>
      <trkpt lat="41.05995" lon="19.85927">
        <ele>97.168737</ele>
        <time>2022-05-03T09:00:24.612Z</time>
      </trkpt>
      <trkpt lat="41.05987" lon="19.85913">
        <ele>97.040537</ele>
        <time>2022-05-03T09:00:27.631Z</time>
      </trkpt>
      <trkpt lat="41.05979" lon="19.85899">
        <ele>96.909434</ele>
        <time>2022-05-03T09:00:30.618Z</time>
      </trkpt>
      <trkpt lat="41.05972" lon="19.85889">
        <ele>96.815434</ele>
        <time>2022-05-03T09:00:32.641Z</time>
      </trkpt>
      <trkpt lat="41.05966" lon="19.85879">
        <ele>96.717922</ele>
        <time>2022-05-03T09:00:34.653Z</time>
      </trkpt>
      <trkpt lat="41.0596" lon="19.85869">
        <ele>96.622706</ele>
        <time>2022-05-03T09:00:36.617Z</time>
      </trkpt>
      <trkpt lat="41.05954" lon="19.85859">
        <ele>96.528101</ele>
        <time>2022-05-03T09:00:38.633Z</time>
      </trkpt>
      <trkpt lat="41.05947" lon="19.85848">
        <ele>96.431225</ele>
        <time>2022-05-03T09:00:40.652Z</time>
      </trkpt>
      <trkpt lat="41.05941" lon="19.85837">
        <ele>96.332624</ele>
        <time>2022-05-03T09:00:42.632Z</time>
      </trkpt>
      <trkpt lat="41.05935" lon="19.85826">
        <ele>96.228224</ele>
        <time>2022-05-03T09:00:44.603Z</time>
      </trkpt>
      <trkpt lat="41.05928" lon="19.85814">
        <ele>96.023886</ele>
        <time>2022-05-03T09:00:46.597Z</time>
      </trkpt>
      <trkpt lat="41.05921" lon="19.85801">
        <ele>95.80753</ele>
        <time>2022-05-03T09:00:48.622Z</time>
      </trkpt>
      <trkpt lat="41.05914" lon="19.85789">
        <ele>95.588932</ele>
        <time>2022-05-03T09:00:50.622Z</time>
      </trkpt>
      <trkpt lat="41.05907" lon="19.85776">
        <ele>95.361323</ele>
        <time>2022-05-03T09:00:52.619Z</time>
      </trkpt>
      <trkpt lat="41.05899" lon="19.85762">
        <ele>95.128152</ele>
        <time>2022-05-03T09:00:54.617Z</time>
      </trkpt>
      <trkpt lat="41.05892" lon="19.85748">
        <ele>94.890553</ele>
        <time>2022-05-03T09:00:56.622Z</time>
      </trkpt>
      <trkpt lat="41.05885" lon="19.85734">
        <ele>94.650384</ele>
        <time>2022-05-03T09:00:58.623Z</time>
      </trkpt>
      <trkpt lat="41.05877" lon="19.85719">
        <ele>94.401024</ele>
        <time>2022-05-03T09:01:00.639Z</time>
      </trkpt>
      <trkpt lat="41.0587" lon="19.85704">
        <ele>94.158663</ele>
        <time>2022-05-03T09:01:02.604Z</time>
      </trkpt>
      <trkpt lat="41.05863" lon="19.8569">
        <ele>93.913827</ele>
        <time>2022-05-03T09:01:04.608Z</time>
      </trkpt>
      <trkpt lat="41.05856" lon="19.85675">
        <ele>93.67434</ele>
        <time>2022-05-03T09:01:06.625Z</time>
      </trkpt>
      <trkpt lat="41.05848" lon="19.8566">
        <ele>93.423082</ele>
        <time>2022-05-03T09:01:08.655Z</time>
      </trkpt>
      <trkpt lat="41.05841" lon="19.85646">
        <ele>93.185229</ele>
        <time>2022-05-03T09:01:10.606Z</time>
      </trkpt>
      <trkpt lat="41.05835" lon="19.85632">
        <ele>92.956962</ele>
        <time>2022-05-03T09:01:12.612Z</time>
      </trkpt>
      <trkpt lat="41.05829" lon="19.85619">
        <ele>92.915679</ele>
        <time>2022-05-03T09:01:14.648Z</time>
      </trkpt>
      <trkpt lat="41.05824" lon="19.85606">
        <ele>92.949272</ele>
        <time>2022-05-03T09:01:16.624Z</time>
      </trkpt>
      <trkpt lat="41.05819" lon="19.85594">
        <ele>92.981106</ele>
        <time>2022-05-03T09:01:18.622Z</time>
      </trkpt>
      <trkpt lat="41.05814" lon="19.85583">
        <ele>93.011507</ele>
        <time>2022-05-03T09:01:20.630Z</time>
      </trkpt>
      <trkpt lat="41.0581" lon="19.85572">
        <ele>93.0398</ele>
        <time>2022-05-03T09:01:22.647Z</time>
      </trkpt>
      <trkpt lat="41.05804" lon="19.85558">
        <ele>93.077753</ele>
        <time>2022-05-03T09:01:25.624Z</time>
      </trkpt>
      <trkpt lat="41.05799" lon="19.85545">
        <ele>93.110558</ele>
        <time>2022-05-03T09:01:28.599Z</time>
      </trkpt>
      <trkpt lat="41.05795" lon="19.85534">
        <ele>93.140445</ele>
        <time>2022-05-03T09:01:31.618Z</time>
      </trkpt>
      <trkpt lat="41.05791" lon="19.85523">
        <ele>93.169437</ele>
        <time>2022-05-03T09:01:34.610Z</time>
      </trkpt>
      <trkpt lat="41.05787" lon="19.85512">
        <ele>93.197871</ele>
        <time>2022-05-03T09:01:37.608Z</time>
      </trkpt>
      <trkpt lat="41.05782" lon="19.855">
        <ele>93.2288</ele>
        <time>2022-05-03T09:01:40.620Z</time>
      </trkpt>
      <trkpt lat="41.05777" lon="19.85488">
        <ele>93.259729</ele>
        <time>2022-05-03T09:01:43.645Z</time>
      </trkpt>
      <trkpt lat="41.05773" lon="19.85476">
        <ele>93.290154</ele>
        <time>2022-05-03T09:01:46.655Z</time>
      </trkpt>
      <trkpt lat="41.05769" lon="19.85464">
        <ele>93.320617</ele>
        <time>2022-05-03T09:01:49.617Z</time>
      </trkpt>
      <trkpt lat="41.05765" lon="19.85453">
        <ele>93.350257</ele>
        <time>2022-05-03T09:01:52.614Z</time>
      </trkpt>
      <trkpt lat="41.0576" lon="19.85442">
        <ele>93.37959</ele>
        <time>2022-05-03T09:01:55.616Z</time>
      </trkpt>
      <trkpt lat="41.05756" lon="19.85429">
        <ele>93.410779</ele>
        <time>2022-05-03T09:01:58.658Z</time>
      </trkpt>
      <trkpt lat="41.05753" lon="19.85417">
        <ele>93.442276</ele>
        <time>2022-05-03T09:02:01.617Z</time>
      </trkpt>
      <trkpt lat="41.0575" lon="19.85405">
        <ele>93.927355</ele>
        <time>2022-05-03T09:02:04.620Z</time>
      </trkpt>
      <trkpt lat="41.05747" lon="19.85393">
        <ele>94.522799</ele>
        <time>2022-05-03T09:02:07.626Z</time>
      </trkpt>
      <trkpt lat="41.05745" lon="19.8538">
        <ele>95.113379</ele>
        <time>2022-05-03T09:02:10.627Z</time>
      </trkpt>
      <trkpt lat="41.05743" lon="19.85368">
        <ele>95.675902</ele>
        <time>2022-05-03T09:02:13.602Z</time>
      </trkpt>
      <trkpt lat="41.05741" lon="19.85355">
        <ele>96.26199</ele>
        <time>2022-05-03T09:02:16.620Z</time>
      </trkpt>
      <trkpt lat="41.0574" lon="19.85343">
        <ele>96.845449</ele>
        <time>2022-05-03T09:02:19.614Z</time>
      </trkpt>
      <trkpt lat="41.05739" lon="19.85331">
        <ele>97.409194</ele>
        <time>2022-05-03T09:02:22.616Z</time>
      </trkpt>
      <trkpt lat="41.05738" lon="19.85317">
        <ele>98.009342</ele>
        <time>2022-05-03T09:02:25.631Z</time>
      </trkpt>
      <trkpt lat="41.05738" lon="19.85304">
        <ele>98.607562</ele>
        <time>2022-05-03T09:02:28.604Z</time>
      </trkpt>
      <trkpt lat="41.05738" lon="19.85292">
        <ele>99.18292</ele>
        <time>2022-05-03T09:02:31.643Z</time>
      </trkpt>
      <trkpt lat="41.05738" lon="19.8528">
        <ele>99.740539</ele>
        <time>2022-05-03T09:02:34.639Z</time>
      </trkpt>
      <trkpt lat="41.05739" lon="19.85266">
        <ele>100.345754</ele>
        <time>2022-05-03T09:02:37.646Z</time>
      </trkpt>
      <trkpt lat="41.0574" lon="19.85253">
        <ele>100.955005</ele>
        <time>2022-05-03T09:02:40.599Z</time>
      </trkpt>
      <trkpt lat="41.05742" lon="19.8524">
        <ele>101.556484</ele>
        <time>2022-05-03T09:02:43.634Z</time>
      </trkpt>
      <trkpt lat="41.05744" lon="19.85226">
        <ele>102.198731</ele>
        <time>2022-05-03T09:02:46.612Z</time>
      </trkpt>
      <trkpt lat="41.05746" lon="19.85213">
        <ele>102.808475</ele>
        <time>2022-05-03T09:02:49.617Z</time>
      </trkpt>
      <trkpt lat="41.05748" lon="19.85201">
        <ele>103.406639</ele>
        <time>2022-05-03T09:02:52.615Z</time>
      </trkpt>
      <trkpt lat="41.0575" lon="19.85188">
        <ele>103.984613</ele>
        <time>2022-05-03T09:02:55.623Z</time>
      </trkpt>
      <trkpt lat="41.05752" lon="19.85175">
        <ele>104.321699</ele>
        <time>2022-05-03T09:02:58.586Z</time>
      </trkpt>
      <trkpt lat="41.05754" lon="19.85162">
        <ele>104.279405</ele>
        <time>2022-05-03T09:03:01.629Z</time>
      </trkpt>
      <trkpt lat="41.05756" lon="19.85148">
        <ele>104.233586</ele>
        <time>2022-05-03T09:03:04.610Z</time>
      </trkpt>
      <trkpt lat="41.05759" lon="19.85134">
        <ele>104.186546</ele>
        <time>2022-05-03T09:03:07.617Z</time>
      </trkpt>
      <trkpt lat="41.05761" lon="19.85119">
        <ele>104.13752</ele>
        <time>2022-05-03T09:03:10.627Z</time>
      </trkpt>
      <trkpt lat="41.05763" lon="19.85105">
        <ele>104.090673</ele>
        <time>2022-05-03T09:03:13.616Z</time>
      </trkpt>
      <trkpt lat="41.05765" lon="19.8509">
        <ele>104.043115</ele>
        <time>2022-05-03T09:03:16.642Z</time>
      </trkpt>
      <trkpt lat="41.05767" lon="19.85075">
        <ele>103.992913</ele>
        <time>2022-05-03T09:03:19.608Z</time>
      </trkpt>
      <trkpt lat="41.0577" lon="19.85059">
        <ele>103.94026</ele>
        <time>2022-05-03T09:03:22.662Z</time>
      </trkpt>
      <trkpt lat="41.05772" lon="19.85043">
        <ele>103.88872</ele>
        <time>2022-05-03T09:03:25.615Z</time>
      </trkpt>
      <trkpt lat="41.05774" lon="19.85028">
        <ele>103.839854</ele>
        <time>2022-05-03T09:03:28.632Z</time>
      </trkpt>
      <trkpt lat="41.05777" lon="19.85013">
        <ele>103.791845</ele>
        <time>2022-05-03T09:03:31.633Z</time>
      </trkpt>
      <trkpt lat="41.05778" lon="19.84999">
        <ele>103.7458</ele>
        <time>2022-05-03T09:03:34.610Z</time>
      </trkpt>
      <trkpt lat="41.0578" lon="19.84985">
        <ele>103.702223</ele>
        <time>2022-05-03T09:03:37.622Z</time>
      </trkpt>
      <trkpt lat="41.05781" lon="19.84972">
        <ele>103.65775</ele>
        <time>2022-05-03T09:03:40.653Z</time>
      </trkpt>
      <trkpt lat="41.05782" lon="19.84957">
        <ele>103.609983</ele>
        <time>2022-05-03T09:03:43.599Z</time>
      </trkpt>
      <trkpt lat="41.05782" lon="19.84941">
        <ele>103.481645</ele>
        <time>2022-05-03T09:03:46.627Z</time>
      </trkpt>
      <trkpt lat="41.05783" lon="19.84925">
        <ele>103.186406</ele>
        <time>2022-05-03T09:03:49.618Z</time>
      </trkpt>
      <trkpt lat="41.05782" lon="19.8491">
        <ele>102.907225</ele>
        <time>2022-05-03T09:03:52.620Z</time>
      </trkpt>
      <trkpt lat="41.05781" lon="19.84895">
        <ele>102.612848</ele>
        <time>2022-05-03T09:03:55.613Z</time>
      </trkpt>
      <trkpt lat="41.05779" lon="19.84879">
        <ele>102.314096</ele>
        <time>2022-05-03T09:03:58.604Z</time>
      </trkpt>
      <trkpt lat="41.05777" lon="19.84864">
        <ele>102.027455</ele>
        <time>2022-05-03T09:04:01.616Z</time>
      </trkpt>
      <trkpt lat="41.05774" lon="19.84849">
        <ele>101.732784</ele>
        <time>2022-05-03T09:04:04.610Z</time>
      </trkpt>
      <trkpt lat="41.0577" lon="19.84833">
        <ele>101.42158</ele>
        <time>2022-05-03T09:04:07.616Z</time>
      </trkpt>
      <trkpt lat="41.05767" lon="19.84817">
        <ele>101.116358</ele>
        <time>2022-05-03T09:04:10.602Z</time>
      </trkpt>
      <trkpt lat="41.05762" lon="19.84803">
        <ele>100.822763</ele>
        <time>2022-05-03T09:04:13.618Z</time>
      </trkpt>
      <trkpt lat="41.05758" lon="19.84789">
        <ele>100.538263</ele>
        <time>2022-05-03T09:04:16.614Z</time>
      </trkpt>
      <trkpt lat="41.05752" lon="19.84776">
        <ele>100.254456</ele>
        <time>2022-05-03T09:04:19.651Z</time>
      </trkpt>
      <trkpt lat="41.05746" lon="19.84762">
        <ele>99.961649</ele>
        <time>2022-05-03T09:04:22.623Z</time>
      </trkpt>
      <trkpt lat="41.0574" lon="19.8475">
        <ele>99.680323</ele>
        <time>2022-05-03T09:04:25.655Z</time>
      </trkpt>
      <trkpt lat="41.05734" lon="19.84738">
        <ele>99.407014</ele>
        <time>2022-05-03T09:04:28.601Z</time>
      </trkpt>
      <trkpt lat="41.05727" lon="19.84726">
        <ele>99.123446</ele>
        <time>2022-05-03T09:04:31.628Z</time>
      </trkpt>
      <trkpt lat="41.0572" lon="19.84713">
        <ele>99.12475</ele>
        <time>2022-05-03T09:04:34.622Z</time>
      </trkpt>
      <trkpt lat="41.05713" lon="19.84701">
        <ele>99.158641</ele>
        <time>2022-05-03T09:04:37.629Z</time>
      </trkpt>
      <trkpt lat="41.05706" lon="19.84688">
        <ele>99.192707</ele>
        <time>2022-05-03T09:04:40.595Z</time>
      </trkpt>
      <trkpt lat="41.05699" lon="19.84675">
        <ele>99.227146</ele>
        <time>2022-05-03T09:04:43.614Z</time>
      </trkpt>
      <trkpt lat="41.05692" lon="19.84663">
        <ele>99.260688</ele>
        <time>2022-05-03T09:04:46.581Z</time>
      </trkpt>
      <trkpt lat="41.05686" lon="19.84651">
        <ele>99.293521</ele>
        <time>2022-05-03T09:04:49.597Z</time>
      </trkpt>
      <trkpt lat="41.0568" lon="19.84638">
        <ele>99.325588</ele>
        <time>2022-05-03T09:04:52.610Z</time>
      </trkpt>
      <trkpt lat="41.05674" lon="19.84626">
        <ele>99.357241</ele>
        <time>2022-05-03T09:04:55.637Z</time>
      </trkpt>
      <trkpt lat="41.05669" lon="19.84612">
        <ele>99.39089</ele>
        <time>2022-05-03T09:04:58.604Z</time>
      </trkpt>
      <trkpt lat="41.05663" lon="19.846">
        <ele>99.423256</ele>
        <time>2022-05-03T09:05:01.639Z</time>
      </trkpt>
      <trkpt lat="41.05658" lon="19.84586">
        <ele>99.456024</ele>
        <time>2022-05-03T09:05:04.611Z</time>
      </trkpt>
      <trkpt lat="41.05653" lon="19.84573">
        <ele>99.487615</ele>
        <time>2022-05-03T09:05:07.626Z</time>
      </trkpt>
      <trkpt lat="41.05649" lon="19.84559">
        <ele>99.521016</ele>
        <time>2022-05-03T09:05:10.601Z</time>
      </trkpt>
      <trkpt lat="41.05644" lon="19.84545">
        <ele>99.554592</ele>
        <time>2022-05-03T09:05:13.603Z</time>
      </trkpt>
      <trkpt lat="41.0564" lon="19.84531">
        <ele>99.587033</ele>
        <time>2022-05-03T09:05:16.630Z</time>
      </trkpt>
      <trkpt lat="41.05636" lon="19.84518">
        <ele>99.625949</ele>
        <time>2022-05-03T09:05:19.620Z</time>
      </trkpt>
      <trkpt lat="41.05632" lon="19.84505">
        <ele>99.727341</ele>
        <time>2022-05-03T09:05:22.603Z</time>
      </trkpt>
      <trkpt lat="41.05628" lon="19.84491">
        <ele>99.835473</ele>
        <time>2022-05-03T09:05:25.603Z</time>
      </trkpt>
      <trkpt lat="41.05624" lon="19.84476">
        <ele>99.944612</ele>
        <time>2022-05-03T09:05:28.609Z</time>
      </trkpt>
      <trkpt lat="41.0562" lon="19.84462">
        <ele>100.056784</ele>
        <time>2022-05-03T09:05:31.625Z</time>
      </trkpt>
      <trkpt lat="41.05617" lon="19.84448">
        <ele>100.160534</ele>
        <time>2022-05-03T09:05:34.609Z</time>
      </trkpt>
      <trkpt lat="41.05613" lon="19.84435">
        <ele>100.265308</ele>
        <time>2022-05-03T09:05:37.607Z</time>
      </trkpt>
      <trkpt lat="41.05609" lon="19.84421">
        <ele>100.371754</ele>
        <time>2022-05-03T09:05:40.610Z</time>
      </trkpt>
      <trkpt lat="41.05605" lon="19.84406">
        <ele>100.482247</ele>
        <time>2022-05-03T09:05:43.646Z</time>
      </trkpt>
      <trkpt lat="41.056" lon="19.84392">
        <ele>100.593148</ele>
        <time>2022-05-03T09:05:46.606Z</time>
      </trkpt>
      <trkpt lat="41.05596" lon="19.84378">
        <ele>100.6996</ele>
        <time>2022-05-03T09:05:49.618Z</time>
      </trkpt>
      <trkpt lat="41.05592" lon="19.84365">
        <ele>100.804034</ele>
        <time>2022-05-03T09:05:52.639Z</time>
      </trkpt>
      <trkpt lat="41.05588" lon="19.84351">
        <ele>100.913856</ele>
        <time>2022-05-03T09:05:55.608Z</time>
      </trkpt>
      <trkpt lat="41.05584" lon="19.84337">
        <ele>101.019633</ele>
        <time>2022-05-03T09:05:58.609Z</time>
      </trkpt>
      <trkpt lat="41.0558" lon="19.84323">
        <ele>101.127141</ele>
        <time>2022-05-03T09:06:01.626Z</time>
      </trkpt>
      <trkpt lat="41.05576" lon="19.84309">
        <ele>101.235314</ele>
        <time>2022-05-03T09:06:04.606Z</time>
      </trkpt>
      <trkpt lat="41.05572" lon="19.84294">
        <ele>101.358122</ele>
        <time>2022-05-03T09:06:07.660Z</time>
      </trkpt>
      <trkpt lat="41.05568" lon="19.84279">
        <ele>101.534537</ele>
        <time>2022-05-03T09:06:10.607Z</time>
      </trkpt>
      <trkpt lat="41.05564" lon="19.84264">
        <ele>101.715016</ele>
        <time>2022-05-03T09:06:13.654Z</time>
      </trkpt>
      <trkpt lat="41.0556" lon="19.84249">
        <ele>101.889906</ele>
        <time>2022-05-03T09:06:16.652Z</time>
      </trkpt>
      <trkpt lat="41.05557" lon="19.84234">
        <ele>102.064108</ele>
        <time>2022-05-03T09:06:19.624Z</time>
      </trkpt>
      <trkpt lat="41.05554" lon="19.84219">
        <ele>102.23712</ele>
        <time>2022-05-03T09:06:22.645Z</time>
      </trkpt>
      <trkpt lat="41.05551" lon="19.84205">
        <ele>102.404803</ele>
        <time>2022-05-03T09:06:25.620Z</time>
      </trkpt>
      <trkpt lat="41.05549" lon="19.8419">
        <ele>102.571335</ele>
        <time>2022-05-03T09:06:28.610Z</time>
      </trkpt>
      <trkpt lat="41.05547" lon="19.84174">
        <ele>102.747454</ele>
        <time>2022-05-03T09:06:31.625Z</time>
      </trkpt>
      <trkpt lat="41.05545" lon="19.84159">
        <ele>102.92408</ele>
        <time>2022-05-03T09:06:34.651Z</time>
      </trkpt>
      <trkpt lat="41.05543" lon="19.84142">
        <ele>103.11237</ele>
        <time>2022-05-03T09:06:37.607Z</time>
      </trkpt>
      <trkpt lat="41.05542" lon="19.84126">
        <ele>103.291782</ele>
        <time>2022-05-03T09:06:40.630Z</time>
      </trkpt>
      <trkpt lat="41.05541" lon="19.8411">
        <ele>103.465822</ele>
        <time>2022-05-03T09:06:43.614Z</time>
      </trkpt>
      <trkpt lat="41.0554" lon="19.84095">
        <ele>103.642721</ele>
        <time>2022-05-03T09:06:46.612Z</time>
      </trkpt>
      <trkpt lat="41.05539" lon="19.84079">
        <ele>103.818379</ele>
        <time>2022-05-03T09:06:49.631Z</time>
      </trkpt>
      <trkpt lat="41.05537" lon="19.84063">
        <ele>103.994663</ele>
        <time>2022-05-03T09:06:52.621Z</time>
      </trkpt>
      <trkpt lat="41.05536" lon="19.84048">
        <ele>104.189435</ele>
        <time>2022-05-03T09:06:55.615Z</time>
      </trkpt>
      <trkpt lat="41.05535" lon="19.84033">
        <ele>104.392093</ele>
        <time>2022-05-03T09:06:58.606Z</time>
      </trkpt>
      <trkpt lat="41.05533" lon="19.84016">
        <ele>104.602439</ele>
        <time>2022-05-03T09:07:01.611Z</time>
      </trkpt>
      <trkpt lat="41.05531" lon="19.84001">
        <ele>104.810972</ele>
        <time>2022-05-03T09:07:04.600Z</time>
      </trkpt>
      <trkpt lat="41.0553" lon="19.83985">
        <ele>105.015821</ele>
        <time>2022-05-03T09:07:07.617Z</time>
      </trkpt>
      <trkpt lat="41.05528" lon="19.83969">
        <ele>105.217199</ele>
        <time>2022-05-03T09:07:10.657Z</time>
      </trkpt>
      <trkpt lat="41.05527" lon="19.83954">
        <ele>105.417296</ele>
        <time>2022-05-03T09:07:13.619Z</time>
      </trkpt>
      <trkpt lat="41.05525" lon="19.83939">
        <ele>105.614503</ele>
        <time>2022-05-03T09:07:16.630Z</time>
      </trkpt>
      <trkpt lat="41.05523" lon="19.83924">
        <ele>105.808772</ele>
        <time>2022-05-03T09:07:19.633Z</time>
      </trkpt>
      <trkpt lat="41.05521" lon="19.83909">
        <ele>106.003431</ele>
        <time>2022-05-03T09:07:22.657Z</time>
      </trkpt>
      <trkpt lat="41.05519" lon="19.83895">
        <ele>106.193283</ele>
        <time>2022-05-03T09:07:25.621Z</time>
      </trkpt>
      <trkpt lat="41.05517" lon="19.83879">
        <ele>106.395801</ele>
        <time>2022-05-03T09:07:28.612Z</time>
      </trkpt>
      <trkpt lat="41.05515" lon="19.83864">
        <ele>106.594869</ele>
        <time>2022-05-03T09:07:31.600Z</time>
      </trkpt>
      <trkpt lat="41.05512" lon="19.83848">
        <ele>106.802133</ele>
        <time>2022-05-03T09:07:34.614Z</time>
      </trkpt>
      <trkpt lat="41.05509" lon="19.83832">
        <ele>107.01692</ele>
        <time>2022-05-03T09:07:37.619Z</time>
      </trkpt>
      <trkpt lat="41.05506" lon="19.83816">
        <ele>107.303912</ele>
        <time>2022-05-03T09:07:40.635Z</time>
      </trkpt>
      <trkpt lat="41.05503" lon="19.83802">
        <ele>107.592859</ele>
        <time>2022-05-03T09:07:43.628Z</time>
      </trkpt>
      <trkpt lat="41.055" lon="19.83788">
        <ele>107.869498</ele>
        <time>2022-05-03T09:07:46.698Z</time>
      </trkpt>
      <trkpt lat="41.05498" lon="19.83773">
        <ele>108.143308</ele>
        <time>2022-05-03T09:07:49.658Z</time>
      </trkpt>
      <trkpt lat="41.05496" lon="19.8376">
        <ele>108.415049</ele>
        <time>2022-05-03T09:07:52.623Z</time>
      </trkpt>
      <trkpt lat="41.05493" lon="19.83746">
        <ele>108.673979</ele>
        <time>2022-05-03T09:07:55.640Z</time>
      </trkpt>
      <trkpt lat="41.05491" lon="19.83733">
        <ele>108.924203</ele>
        <time>2022-05-03T09:07:58.593Z</time>
      </trkpt>
      <trkpt lat="41.05488" lon="19.83719">
        <ele>109.215635</ele>
        <time>2022-05-03T09:08:02.629Z</time>
      </trkpt>
      <trkpt lat="41.05485" lon="19.83704">
        <ele>109.496755</ele>
        <time>2022-05-03T09:08:05.658Z</time>
      </trkpt>
      <trkpt lat="41.05481" lon="19.8369">
        <ele>109.781495</ele>
        <time>2022-05-03T09:08:08.669Z</time>
      </trkpt>
      <trkpt lat="41.05478" lon="19.83678">
        <ele>110.029791</ele>
        <time>2022-05-03T09:08:11.611Z</time>
      </trkpt>
      <trkpt lat="41.05474" lon="19.83667">
        <ele>110.267553</ele>
        <time>2022-05-03T09:08:14.611Z</time>
      </trkpt>
      <trkpt lat="41.0547" lon="19.83656">
        <ele>110.4931</ele>
        <time>2022-05-03T09:08:17.606Z</time>
      </trkpt>
      <trkpt lat="41.05465" lon="19.83645">
        <ele>110.730631</ele>
        <time>2022-05-03T09:08:20.615Z</time>
      </trkpt>
      <trkpt lat="41.0546" lon="19.83634">
        <ele>110.976865</ele>
        <time>2022-05-03T09:08:23.616Z</time>
      </trkpt>
      <trkpt lat="41.05454" lon="19.83623">
        <ele>111.239957</ele>
        <time>2022-05-03T09:08:26.613Z</time>
      </trkpt>
      <trkpt lat="41.05448" lon="19.83612">
        <ele>111.507211</ele>
        <time>2022-05-03T09:08:29.626Z</time>
      </trkpt>
      <trkpt lat="41.0544" lon="19.836">
        <ele>111.293798</ele>
        <time>2022-05-03T09:08:32.612Z</time>
      </trkpt>
      <trkpt lat="41.05432" lon="19.8359">
        <ele>110.890009</ele>
        <time>2022-05-03T09:08:35.609Z</time>
      </trkpt>
      <trkpt lat="41.05423" lon="19.83581">
        <ele>110.485958</ele>
        <time>2022-05-03T09:08:38.648Z</time>
      </trkpt>
      <trkpt lat="41.05416" lon="19.83572">
        <ele>110.118052</ele>
        <time>2022-05-03T09:08:41.624Z</time>
      </trkpt>
      <trkpt lat="41.05408" lon="19.83565">
        <ele>109.741868</ele>
        <time>2022-05-03T09:08:44.614Z</time>
      </trkpt>
      <trkpt lat="41.05399" lon="19.83557">
        <ele>109.326822</ele>
        <time>2022-05-03T09:08:47.624Z</time>
      </trkpt>
      <trkpt lat="41.05389" lon="19.8355">
        <ele>108.910458</ele>
        <time>2022-05-03T09:08:50.624Z</time>
      </trkpt>
      <trkpt lat="41.05379" lon="19.83542">
        <ele>108.472903</ele>
        <time>2022-05-03T09:08:53.658Z</time>
      </trkpt>
      <trkpt lat="41.05368" lon="19.83536">
        <ele>108.042598</ele>
        <time>2022-05-03T09:08:56.630Z</time>
      </trkpt>
      <trkpt lat="41.05357" lon="19.83528">
        <ele>107.54585</ele>
        <time>2022-05-03T09:08:59.606Z</time>
      </trkpt>
      <trkpt lat="41.05345" lon="19.83519">
        <ele>107.048538</ele>
        <time>2022-05-03T09:09:02.611Z</time>
      </trkpt>
      <trkpt lat="41.05334" lon="19.83511">
        <ele>106.566851</ele>
        <time>2022-05-03T09:09:05.622Z</time>
      </trkpt>
      <trkpt lat="41.05322" lon="19.83501">
        <ele>106.051606</ele>
        <time>2022-05-03T09:09:08.618Z</time>
      </trkpt>
      <trkpt lat="41.05314" lon="19.83494">
        <ele>105.677081</ele>
        <time>2022-05-03T09:09:10.626Z</time>
      </trkpt>
      <trkpt lat="41.05306" lon="19.83486">
        <ele>105.303459</ele>
        <time>2022-05-03T09:09:12.625Z</time>
      </trkpt>
      <trkpt lat="41.05299" lon="19.83477">
        <ele>104.932388</ele>
        <time>2022-05-03T09:09:14.615Z</time>
      </trkpt>
      <trkpt lat="41.05292" lon="19.83467">
        <ele>104.656203</ele>
        <time>2022-05-03T09:09:16.614Z</time>
      </trkpt>
      <trkpt lat="41.05286" lon="19.83456">
        <ele>104.410853</ele>
        <time>2022-05-03T09:09:18.614Z</time>
      </trkpt>
      <trkpt lat="41.0528" lon="19.83445">
        <ele>104.167294</ele>
        <time>2022-05-03T09:09:20.608Z</time>
      </trkpt>
      <trkpt lat="41.05274" lon="19.83434">
        <ele>103.930564</ele>
        <time>2022-05-03T09:09:22.653Z</time>
      </trkpt>
      <trkpt lat="41.05269" lon="19.83423">
        <ele>103.695632</ele>
        <time>2022-05-03T09:09:24.650Z</time>
      </trkpt>
      <trkpt lat="41.05265" lon="19.83412">
        <ele>103.468777</ele>
        <time>2022-05-03T09:09:26.615Z</time>
      </trkpt>
      <trkpt lat="41.05261" lon="19.834">
        <ele>103.23651</ele>
        <time>2022-05-03T09:09:28.603Z</time>
      </trkpt>
      <trkpt lat="41.05256" lon="19.83389">
        <ele>102.998325</ele>
        <time>2022-05-03T09:09:30.609Z</time>
      </trkpt>
      <trkpt lat="41.05252" lon="19.83376">
        <ele>102.760803</ele>
        <time>2022-05-03T09:09:32.611Z</time>
      </trkpt>
      <trkpt lat="41.05249" lon="19.83364">
        <ele>102.520875</ele>
        <time>2022-05-03T09:09:34.618Z</time>
      </trkpt>
      <trkpt lat="41.05245" lon="19.83352">
        <ele>102.277664</ele>
        <time>2022-05-03T09:09:36.612Z</time>
      </trkpt>
      <trkpt lat="41.05241" lon="19.83339">
        <ele>102.027568</ele>
        <time>2022-05-03T09:09:38.620Z</time>
      </trkpt>
      <trkpt lat="41.05237" lon="19.83326">
        <ele>101.777471</ele>
        <time>2022-05-03T09:09:40.599Z</time>
      </trkpt>
      <trkpt lat="41.05233" lon="19.83313">
        <ele>101.527374</ele>
        <time>2022-05-03T09:09:42.613Z</time>
      </trkpt>
      <trkpt lat="41.05229" lon="19.833">
        <ele>101.27907</ele>
        <time>2022-05-03T09:09:44.654Z</time>
      </trkpt>
      <trkpt lat="41.05225" lon="19.83288">
        <ele>101.030766</ele>
        <time>2022-05-03T09:09:46.643Z</time>
      </trkpt>
      <trkpt lat="41.05221" lon="19.83275">
        <ele>100.781766</ele>
        <time>2022-05-03T09:09:48.615Z</time>
      </trkpt>
      <trkpt lat="41.05217" lon="19.83262">
        <ele>100.539007</ele>
        <time>2022-05-03T09:09:50.615Z</time>
      </trkpt>
      <trkpt lat="41.05213" lon="19.83249">
        <ele>100.442119</ele>
        <time>2022-05-03T09:09:52.660Z</time>
      </trkpt>
      <trkpt lat="41.05209" lon="19.83236">
        <ele>100.343677</ele>
        <time>2022-05-03T09:09:54.610Z</time>
      </trkpt>
      <trkpt lat="41.05205" lon="19.83222">
        <ele>100.245213</ele>
        <time>2022-05-03T09:09:56.614Z</time>
      </trkpt>
      <trkpt lat="41.05202" lon="19.83208">
        <ele>100.14359</ele>
        <time>2022-05-03T09:09:58.599Z</time>
      </trkpt>
      <trkpt lat="41.05198" lon="19.83194">
        <ele>100.041553</ele>
        <time>2022-05-03T09:10:00.630Z</time>
      </trkpt>
      <trkpt lat="41.05195" lon="19.83179">
        <ele>99.939917</ele>
        <time>2022-05-03T09:10:02.600Z</time>
      </trkpt>
      <trkpt lat="41.05192" lon="19.83165">
        <ele>99.83921</ele>
        <time>2022-05-03T09:10:04.617Z</time>
      </trkpt>
      <trkpt lat="41.0519" lon="19.8315">
        <ele>99.73826</ele>
        <time>2022-05-03T09:10:06.616Z</time>
      </trkpt>
      <trkpt lat="41.05187" lon="19.83135">
        <ele>99.633597</ele>
        <time>2022-05-03T09:10:08.620Z</time>
      </trkpt>
      <trkpt lat="41.05185" lon="19.8312">
        <ele>99.528198</ele>
        <time>2022-05-03T09:10:10.684Z</time>
      </trkpt>
      <trkpt lat="41.05183" lon="19.83105">
        <ele>99.424147</ele>
        <time>2022-05-03T09:10:12.607Z</time>
      </trkpt>
      <trkpt lat="41.0518" lon="19.8309">
        <ele>99.319594</ele>
        <time>2022-05-03T09:10:14.621Z</time>
      </trkpt>
      <trkpt lat="41.05178" lon="19.83074">
        <ele>99.212713</ele>
        <time>2022-05-03T09:10:16.614Z</time>
      </trkpt>
      <trkpt lat="41.05176" lon="19.83059">
        <ele>99.106164</ele>
        <time>2022-05-03T09:10:18.656Z</time>
      </trkpt>
      <trkpt lat="41.05174" lon="19.83044">
        <ele>99.001953</ele>
        <time>2022-05-03T09:10:20.615Z</time>
      </trkpt>
      <trkpt lat="41.05172" lon="19.83029">
        <ele>98.905571</ele>
        <time>2022-05-03T09:10:22.691Z</time>
      </trkpt>
      <trkpt lat="41.05169" lon="19.83014">
        <ele>98.834686</ele>
        <time>2022-05-03T09:10:24.606Z</time>
      </trkpt>
      <trkpt lat="41.05166" lon="19.83">
        <ele>98.765147</ele>
        <time>2022-05-03T09:10:26.622Z</time>
      </trkpt>
      <trkpt lat="41.05162" lon="19.82986">
        <ele>98.696872</ele>
        <time>2022-05-03T09:10:28.613Z</time>
      </trkpt>
      <trkpt lat="41.05158" lon="19.82971">
        <ele>98.625004</ele>
        <time>2022-05-03T09:10:30.617Z</time>
      </trkpt>
      <trkpt lat="41.05154" lon="19.82957">
        <ele>98.554348</ele>
        <time>2022-05-03T09:10:32.606Z</time>
      </trkpt>
      <trkpt lat="41.05149" lon="19.82943">
        <ele>98.480031</ele>
        <time>2022-05-03T09:10:34.646Z</time>
      </trkpt>
      <trkpt lat="41.05144" lon="19.82929">
        <ele>98.407084</ele>
        <time>2022-05-03T09:10:36.602Z</time>
      </trkpt>
      <trkpt lat="41.05138" lon="19.82914">
        <ele>98.331661</ele>
        <time>2022-05-03T09:10:38.618Z</time>
      </trkpt>
      <trkpt lat="41.05133" lon="19.829">
        <ele>98.255417</ele>
        <time>2022-05-03T09:10:40.615Z</time>
      </trkpt>
      <trkpt lat="41.05127" lon="19.82885">
        <ele>98.178757</ele>
        <time>2022-05-03T09:10:42.612Z</time>
      </trkpt>
      <trkpt lat="41.05122" lon="19.8287">
        <ele>98.102927</ele>
        <time>2022-05-03T09:10:44.617Z</time>
      </trkpt>
      <trkpt lat="41.05116" lon="19.82856">
        <ele>98.027504</ele>
        <time>2022-05-03T09:10:46.611Z</time>
      </trkpt>
      <trkpt lat="41.05111" lon="19.82841">
        <ele>97.951259</ele>
        <time>2022-05-03T09:10:48.651Z</time>
      </trkpt>
      <trkpt lat="41.05105" lon="19.82827">
        <ele>97.876818</ele>
        <time>2022-05-03T09:10:50.640Z</time>
      </trkpt>
      <trkpt lat="41.051" lon="19.82812">
        <ele>97.803498</ele>
        <time>2022-05-03T09:10:52.620Z</time>
      </trkpt>
      <trkpt lat="41.05095" lon="19.82798">
        <ele>97.747946</ele>
        <time>2022-05-03T09:10:54.611Z</time>
      </trkpt>
      <trkpt lat="41.0509" lon="19.82784">
        <ele>97.692831</ele>
        <time>2022-05-03T09:10:56.650Z</time>
      </trkpt>
      <trkpt lat="41.05084" lon="19.8277">
        <ele>97.639703</ele>
        <time>2022-05-03T09:10:58.629Z</time>
      </trkpt>
      <trkpt lat="41.0508" lon="19.82757">
        <ele>97.58833</ele>
        <time>2022-05-03T09:11:00.596Z</time>
      </trkpt>
      <trkpt lat="41.05075" lon="19.82743">
        <ele>97.536397</ele>
        <time>2022-05-03T09:11:02.613Z</time>
      </trkpt>
      <trkpt lat="41.05071" lon="19.82728">
        <ele>97.481292</ele>
        <time>2022-05-03T09:11:04.631Z</time>
      </trkpt>
      <trkpt lat="41.05067" lon="19.82713">
        <ele>97.426635</ele>
        <time>2022-05-03T09:11:06.624Z</time>
      </trkpt>
      <trkpt lat="41.05064" lon="19.82699">
        <ele>97.373395</ele>
        <time>2022-05-03T09:11:08.620Z</time>
      </trkpt>
      <trkpt lat="41.0506" lon="19.82684">
        <ele>97.320755</ele>
        <time>2022-05-03T09:11:10.621Z</time>
      </trkpt>
      <trkpt lat="41.05058" lon="19.8267">
        <ele>97.26835</ele>
        <time>2022-05-03T09:11:12.622Z</time>
      </trkpt>
      <trkpt lat="41.05056" lon="19.82655">
        <ele>97.216665</ele>
        <time>2022-05-03T09:11:14.612Z</time>
      </trkpt>
      <trkpt lat="41.05055" lon="19.8264">
        <ele>97.165788</ele>
        <time>2022-05-03T09:11:16.624Z</time>
      </trkpt>
      <trkpt lat="41.05054" lon="19.82627">
        <ele>97.118178</ele>
        <time>2022-05-03T09:11:18.652Z</time>
      </trkpt>
      <trkpt lat="41.05053" lon="19.82614">
        <ele>97.071998</ele>
        <time>2022-05-03T09:11:20.631Z</time>
      </trkpt>
      <trkpt lat="41.05052" lon="19.82601">
        <ele>97.0279</ele>
        <time>2022-05-03T09:11:22.614Z</time>
      </trkpt>
      <trkpt lat="41.05052" lon="19.82589">
        <ele>96.984191</ele>
        <time>2022-05-03T09:11:24.649Z</time>
      </trkpt>
      <trkpt lat="41.05051" lon="19.82576">
        <ele>97.09481</ele>
        <time>2022-05-03T09:11:26.610Z</time>
      </trkpt>
      <trkpt lat="41.0505" lon="19.82564">
        <ele>97.218325</ele>
        <time>2022-05-03T09:11:28.610Z</time>
      </trkpt>
      <trkpt lat="41.05049" lon="19.82546">
        <ele>97.39313</ele>
        <time>2022-05-03T09:11:31.623Z</time>
      </trkpt>
      <trkpt lat="41.05048" lon="19.82529">
        <ele>97.561742</ele>
        <time>2022-05-03T09:11:34.628Z</time>
      </trkpt>
      <trkpt lat="41.05047" lon="19.82513">
        <ele>97.723845</ele>
        <time>2022-05-03T09:11:37.637Z</time>
      </trkpt>
      <trkpt lat="41.05046" lon="19.82497">
        <ele>97.881583</ele>
        <time>2022-05-03T09:11:40.625Z</time>
      </trkpt>
      <trkpt lat="41.05045" lon="19.82481">
        <ele>98.038332</ele>
        <time>2022-05-03T09:11:43.641Z</time>
      </trkpt>
      <trkpt lat="41.05044" lon="19.82465">
        <ele>98.196537</ele>
        <time>2022-05-03T09:11:46.597Z</time>
      </trkpt>
      <trkpt lat="41.05043" lon="19.8245">
        <ele>98.354412</ele>
        <time>2022-05-03T09:11:49.619Z</time>
      </trkpt>
      <trkpt lat="41.05041" lon="19.82433">
        <ele>98.516382</ele>
        <time>2022-05-03T09:11:52.672Z</time>
      </trkpt>
      <trkpt lat="41.0504" lon="19.82417">
        <ele>98.678054</ele>
        <time>2022-05-03T09:11:55.619Z</time>
      </trkpt>
      <trkpt lat="41.05038" lon="19.82402">
        <ele>98.833058</ele>
        <time>2022-05-03T09:11:58.606Z</time>
      </trkpt>
      <trkpt lat="41.05035" lon="19.82386">
        <ele>98.990701</ele>
        <time>2022-05-03T09:12:01.611Z</time>
      </trkpt>
      <trkpt lat="41.05032" lon="19.82369">
        <ele>99.167411</ele>
        <time>2022-05-03T09:12:04.615Z</time>
      </trkpt>
      <trkpt lat="41.05029" lon="19.82358">
        <ele>99.287999</ele>
        <time>2022-05-03T09:12:06.619Z</time>
      </trkpt>
      <trkpt lat="41.05026" lon="19.82346">
        <ele>99.288495</ele>
        <time>2022-05-03T09:12:08.626Z</time>
      </trkpt>
      <trkpt lat="41.05023" lon="19.82335">
        <ele>99.165786</ele>
        <time>2022-05-03T09:12:10.612Z</time>
      </trkpt>
      <trkpt lat="41.05019" lon="19.82324">
        <ele>99.043069</ele>
        <time>2022-05-03T09:12:12.614Z</time>
      </trkpt>
      <trkpt lat="41.05016" lon="19.82313">
        <ele>98.917424</ele>
        <time>2022-05-03T09:12:14.620Z</time>
      </trkpt>
      <trkpt lat="41.05012" lon="19.82302">
        <ele>98.789374</ele>
        <time>2022-05-03T09:12:16.617Z</time>
      </trkpt>
      <trkpt lat="41.05008" lon="19.82291">
        <ele>98.663478</ele>
        <time>2022-05-03T09:12:18.624Z</time>
      </trkpt>
      <trkpt lat="41.05003" lon="19.8228">
        <ele>98.538775</ele>
        <time>2022-05-03T09:12:20.653Z</time>
      </trkpt>
      <trkpt lat="41.04998" lon="19.8227">
        <ele>98.41192</ele>
        <time>2022-05-03T09:12:22.603Z</time>
      </trkpt>
      <trkpt lat="41.04993" lon="19.82259">
        <ele>98.284196</ele>
        <time>2022-05-03T09:12:24.603Z</time>
      </trkpt>
      <trkpt lat="41.04987" lon="19.82249">
        <ele>98.155227</ele>
        <time>2022-05-03T09:12:26.651Z</time>
      </trkpt>
      <trkpt lat="41.04982" lon="19.82239">
        <ele>98.025478</ele>
        <time>2022-05-03T09:12:28.624Z</time>
      </trkpt>
      <trkpt lat="41.04976" lon="19.82229">
        <ele>97.893189</ele>
        <time>2022-05-03T09:12:30.616Z</time>
      </trkpt>
      <trkpt lat="41.04969" lon="19.82219">
        <ele>97.759168</ele>
        <time>2022-05-03T09:12:32.621Z</time>
      </trkpt>
      <trkpt lat="41.04963" lon="19.82209">
        <ele>97.621965</ele>
        <time>2022-05-03T09:12:34.630Z</time>
      </trkpt>
      <trkpt lat="41.04956" lon="19.82198">
        <ele>97.480497</ele>
        <time>2022-05-03T09:12:36.649Z</time>
      </trkpt>
      <trkpt lat="41.04949" lon="19.82188">
        <ele>97.339698</ele>
        <time>2022-05-03T09:12:38.621Z</time>
      </trkpt>
      <trkpt lat="41.04943" lon="19.82178">
        <ele>97.202727</ele>
        <time>2022-05-03T09:12:40.622Z</time>
      </trkpt>
      <trkpt lat="41.04936" lon="19.82168">
        <ele>97.062394</ele>
        <time>2022-05-03T09:12:42.617Z</time>
      </trkpt>
      <trkpt lat="41.04929" lon="19.82158">
        <ele>96.921305</ele>
        <time>2022-05-03T09:12:44.622Z</time>
      </trkpt>
      <trkpt lat="41.04921" lon="19.82148">
        <ele>96.729032</ele>
        <time>2022-05-03T09:12:46.622Z</time>
      </trkpt>
      <trkpt lat="41.04914" lon="19.82138">
        <ele>96.527081</ele>
        <time>2022-05-03T09:12:48.668Z</time>
      </trkpt>
      <trkpt lat="41.04906" lon="19.82129">
        <ele>96.329321</ele>
        <time>2022-05-03T09:12:50.632Z</time>
      </trkpt>
      <trkpt lat="41.04898" lon="19.8212">
        <ele>96.126401</ele>
        <time>2022-05-03T09:12:52.623Z</time>
      </trkpt>
      <trkpt lat="41.04889" lon="19.82111">
        <ele>95.92109</ele>
        <time>2022-05-03T09:12:54.612Z</time>
      </trkpt>
      <trkpt lat="41.04881" lon="19.82102">
        <ele>95.716154</ele>
        <time>2022-05-03T09:12:56.624Z</time>
      </trkpt>
      <trkpt lat="41.04873" lon="19.82093">
        <ele>95.506063</ele>
        <time>2022-05-03T09:12:58.613Z</time>
      </trkpt>
      <trkpt lat="41.04864" lon="19.82083">
        <ele>95.290644</ele>
        <time>2022-05-03T09:13:00.627Z</time>
      </trkpt>
      <trkpt lat="41.04855" lon="19.82073">
        <ele>95.066568</ele>
        <time>2022-05-03T09:13:02.610Z</time>
      </trkpt>
      <trkpt lat="41.04846" lon="19.82064">
        <ele>94.849305</ele>
        <time>2022-05-03T09:13:04.619Z</time>
      </trkpt>
      <trkpt lat="41.04837" lon="19.82054">
        <ele>94.633314</ele>
        <time>2022-05-03T09:13:06.606Z</time>
      </trkpt>
      <trkpt lat="41.04829" lon="19.82045">
        <ele>94.421758</ele>
        <time>2022-05-03T09:13:08.622Z</time>
      </trkpt>
      <trkpt lat="41.04821" lon="19.82035">
        <ele>94.210733</ele>
        <time>2022-05-03T09:13:10.684Z</time>
      </trkpt>
      <trkpt lat="41.04812" lon="19.82026">
        <ele>94.004488</ele>
        <time>2022-05-03T09:13:12.643Z</time>
      </trkpt>
      <trkpt lat="41.04804" lon="19.82017">
        <ele>93.803021</ele>
        <time>2022-05-03T09:13:14.614Z</time>
      </trkpt>
      <trkpt lat="41.04797" lon="19.82007">
        <ele>93.601988</ele>
        <time>2022-05-03T09:13:16.617Z</time>
      </trkpt>
      <trkpt lat="41.0479" lon="19.81997">
        <ele>93.462375</ele>
        <time>2022-05-03T09:13:18.617Z</time>
      </trkpt>
      <trkpt lat="41.04783" lon="19.81986">
        <ele>93.477852</ele>
        <time>2022-05-03T09:13:20.611Z</time>
      </trkpt>
      <trkpt lat="41.04776" lon="19.81975">
        <ele>93.493317</ele>
        <time>2022-05-03T09:13:22.622Z</time>
      </trkpt>
      <trkpt lat="41.0477" lon="19.81964">
        <ele>93.508777</ele>
        <time>2022-05-03T09:13:24.612Z</time>
      </trkpt>
      <trkpt lat="41.04764" lon="19.81952">
        <ele>93.524093</ele>
        <time>2022-05-03T09:13:26.612Z</time>
      </trkpt>
      <trkpt lat="41.04758" lon="19.81941">
        <ele>93.538629</ele>
        <time>2022-05-03T09:13:28.620Z</time>
      </trkpt>
      <trkpt lat="41.04752" lon="19.8193">
        <ele>93.552796</ele>
        <time>2022-05-03T09:13:30.639Z</time>
      </trkpt>
      <trkpt lat="41.04747" lon="19.8192">
        <ele>93.566885</ele>
        <time>2022-05-03T09:13:32.665Z</time>
      </trkpt>
      <trkpt lat="41.04741" lon="19.81908">
        <ele>93.581761</ele>
        <time>2022-05-03T09:13:34.620Z</time>
      </trkpt>
      <trkpt lat="41.04735" lon="19.81897">
        <ele>93.596978</ele>
        <time>2022-05-03T09:13:36.645Z</time>
      </trkpt>
      <trkpt lat="41.04729" lon="19.81885">
        <ele>93.612454</ele>
        <time>2022-05-03T09:13:38.663Z</time>
      </trkpt>
      <trkpt lat="41.04723" lon="19.81873">
        <ele>93.627262</ele>
        <time>2022-05-03T09:13:40.610Z</time>
      </trkpt>
      <trkpt lat="41.04718" lon="19.81862">
        <ele>93.642071</ele>
        <time>2022-05-03T09:13:42.625Z</time>
      </trkpt>
      <trkpt lat="41.04712" lon="19.8185">
        <ele>93.656777</ele>
        <time>2022-05-03T09:13:44.613Z</time>
      </trkpt>
      <trkpt lat="41.04706" lon="19.81839">
        <ele>93.671573</ele>
        <time>2022-05-03T09:13:46.622Z</time>
      </trkpt>
      <trkpt lat="41.04701" lon="19.81828">
        <ele>93.686136</ele>
        <time>2022-05-03T09:13:48.618Z</time>
      </trkpt>
      <trkpt lat="41.04696" lon="19.81817">
        <ele>93.699725</ele>
        <time>2022-05-03T09:13:50.624Z</time>
      </trkpt>
      <trkpt lat="41.04691" lon="19.81806">
        <ele>93.713786</ele>
        <time>2022-05-03T09:13:52.628Z</time>
      </trkpt>
      <trkpt lat="41.04685" lon="19.81794">
        <ele>93.677231</ele>
        <time>2022-05-03T09:13:54.609Z</time>
      </trkpt>
      <trkpt lat="41.04679" lon="19.81783">
        <ele>93.632333</ele>
        <time>2022-05-03T09:13:56.624Z</time>
      </trkpt>
      <trkpt lat="41.04674" lon="19.81772">
        <ele>93.586477</ele>
        <time>2022-05-03T09:13:58.612Z</time>
      </trkpt>
      <trkpt lat="41.04669" lon="19.81761">
        <ele>93.542712</ele>
        <time>2022-05-03T09:14:00.651Z</time>
      </trkpt>
      <trkpt lat="41.04663" lon="19.8175">
        <ele>93.497472</ele>
        <time>2022-05-03T09:14:02.612Z</time>
      </trkpt>
      <trkpt lat="41.04658" lon="19.81738">
        <ele>93.452762</ele>
        <time>2022-05-03T09:14:04.622Z</time>
      </trkpt>
      <trkpt lat="41.04653" lon="19.81727">
        <ele>93.409225</ele>
        <time>2022-05-03T09:14:06.614Z</time>
      </trkpt>
      <trkpt lat="41.04648" lon="19.81716">
        <ele>93.365751</ele>
        <time>2022-05-03T09:14:08.618Z</time>
      </trkpt>
      <trkpt lat="41.04643" lon="19.81705">
        <ele>93.321174</ele>
        <time>2022-05-03T09:14:10.619Z</time>
      </trkpt>
      <trkpt lat="41.04638" lon="19.81693">
        <ele>93.276242</ele>
        <time>2022-05-03T09:14:12.622Z</time>
      </trkpt>
      <trkpt lat="41.04633" lon="19.81681">
        <ele>93.230644</ele>
        <time>2022-05-03T09:14:14.616Z</time>
      </trkpt>
      <trkpt lat="41.04628" lon="19.8167">
        <ele>93.185547</ele>
        <time>2022-05-03T09:14:16.621Z</time>
      </trkpt>
      <trkpt lat="41.04623" lon="19.81658">
        <ele>93.140026</ele>
        <time>2022-05-03T09:14:18.643Z</time>
      </trkpt>
      <trkpt lat="41.04618" lon="19.81647">
        <ele>93.095154</ele>
        <time>2022-05-03T09:14:20.638Z</time>
      </trkpt>
      <trkpt lat="41.04613" lon="19.81635">
        <ele>93.049703</ele>
        <time>2022-05-03T09:14:22.635Z</time>
      </trkpt>
      <trkpt lat="41.04608" lon="19.81623">
        <ele>93.002915</ele>
        <time>2022-05-03T09:14:24.619Z</time>
      </trkpt>
      <trkpt lat="41.04604" lon="19.8161">
        <ele>92.955735</ele>
        <time>2022-05-03T09:14:26.632Z</time>
      </trkpt>
      <trkpt lat="41.04599" lon="19.81598">
        <ele>92.909543</ele>
        <time>2022-05-03T09:14:28.647Z</time>
      </trkpt>
      <trkpt lat="41.04594" lon="19.81586">
        <ele>92.823803</ele>
        <time>2022-05-03T09:14:30.626Z</time>
      </trkpt>
      <trkpt lat="41.04589" lon="19.81575">
        <ele>92.737511</ele>
        <time>2022-05-03T09:14:32.618Z</time>
      </trkpt>
      <trkpt lat="41.04584" lon="19.81562">
        <ele>92.649362</ele>
        <time>2022-05-03T09:14:34.661Z</time>
      </trkpt>
      <trkpt lat="41.0458" lon="19.8155">
        <ele>92.560644</ele>
        <time>2022-05-03T09:14:36.619Z</time>
      </trkpt>
      <trkpt lat="41.04574" lon="19.81538">
        <ele>92.468917</ele>
        <time>2022-05-03T09:14:38.621Z</time>
      </trkpt>
      <trkpt lat="41.04569" lon="19.81526">
        <ele>92.383032</ele>
        <time>2022-05-03T09:14:40.617Z</time>
      </trkpt>
      <trkpt lat="41.04564" lon="19.81514">
        <ele>92.29786</ele>
        <time>2022-05-03T09:14:42.620Z</time>
      </trkpt>
      <trkpt lat="41.0456" lon="19.81502">
        <ele>92.210844</ele>
        <time>2022-05-03T09:14:44.611Z</time>
      </trkpt>
      <trkpt lat="41.04555" lon="19.81491">
        <ele>92.127053</ele>
        <time>2022-05-03T09:14:46.625Z</time>
      </trkpt>
      <trkpt lat="41.0455" lon="19.8148">
        <ele>92.044792</ele>
        <time>2022-05-03T09:14:48.616Z</time>
      </trkpt>
      <trkpt lat="41.04546" lon="19.81468">
        <ele>91.962269</ele>
        <time>2022-05-03T09:14:50.624Z</time>
      </trkpt>
      <trkpt lat="41.04541" lon="19.81457">
        <ele>91.87863</ele>
        <time>2022-05-03T09:14:52.624Z</time>
      </trkpt>
      <trkpt lat="41.04536" lon="19.81445">
        <ele>91.795065</ele>
        <time>2022-05-03T09:14:54.615Z</time>
      </trkpt>
      <trkpt lat="41.04531" lon="19.81434">
        <ele>91.708917</ele>
        <time>2022-05-03T09:14:56.619Z</time>
      </trkpt>
      <trkpt lat="41.04526" lon="19.81422">
        <ele>91.622348</ele>
        <time>2022-05-03T09:14:58.618Z</time>
      </trkpt>
      <trkpt lat="41.04521" lon="19.8141">
        <ele>91.534523</ele>
        <time>2022-05-03T09:15:00.605Z</time>
      </trkpt>
      <trkpt lat="41.04516" lon="19.81398">
        <ele>91.444751</ele>
        <time>2022-05-03T09:15:02.625Z</time>
      </trkpt>
      <trkpt lat="41.04511" lon="19.81385">
        <ele>91.335322</ele>
        <time>2022-05-03T09:15:04.619Z</time>
      </trkpt>
      <trkpt lat="41.04506" lon="19.81373">
        <ele>91.177</ele>
        <time>2022-05-03T09:15:06.605Z</time>
      </trkpt>
      <trkpt lat="41.045" lon="19.8136">
        <ele>91.013256</ele>
        <time>2022-05-03T09:15:08.596Z</time>
      </trkpt>
      <trkpt lat="41.04494" lon="19.81347">
        <ele>90.847235</ele>
        <time>2022-05-03T09:15:10.602Z</time>
      </trkpt>
      <trkpt lat="41.04489" lon="19.81334">
        <ele>90.676857</ele>
        <time>2022-05-03T09:15:12.657Z</time>
      </trkpt>
      <trkpt lat="41.04483" lon="19.8132">
        <ele>90.505782</ele>
        <time>2022-05-03T09:15:14.623Z</time>
      </trkpt>
      <trkpt lat="41.04477" lon="19.81306">
        <ele>90.328865</ele>
        <time>2022-05-03T09:15:16.635Z</time>
      </trkpt>
      <trkpt lat="41.04471" lon="19.81291">
        <ele>90.147933</ele>
        <time>2022-05-03T09:15:18.664Z</time>
      </trkpt>
      <trkpt lat="41.04465" lon="19.81277">
        <ele>89.966041</ele>
        <time>2022-05-03T09:15:20.620Z</time>
      </trkpt>
      <trkpt lat="41.04459" lon="19.81262">
        <ele>89.779123</ele>
        <time>2022-05-03T09:15:22.616Z</time>
      </trkpt>
      <trkpt lat="41.04453" lon="19.81247">
        <ele>89.588733</ele>
        <time>2022-05-03T09:15:24.615Z</time>
      </trkpt>
      <trkpt lat="41.04447" lon="19.81231">
        <ele>89.393744</ele>
        <time>2022-05-03T09:15:26.621Z</time>
      </trkpt>
      <trkpt lat="41.04441" lon="19.81216">
        <ele>89.196004</ele>
        <time>2022-05-03T09:15:28.596Z</time>
      </trkpt>
      <trkpt lat="41.04434" lon="19.81199">
        <ele>88.988667</ele>
        <time>2022-05-03T09:15:30.611Z</time>
      </trkpt>
      <trkpt lat="41.04427" lon="19.81183">
        <ele>88.782741</ele>
        <time>2022-05-03T09:15:32.621Z</time>
      </trkpt>
      <trkpt lat="41.0442" lon="19.81167">
        <ele>88.521509</ele>
        <time>2022-05-03T09:15:34.627Z</time>
      </trkpt>
      <trkpt lat="41.04414" lon="19.8115">
        <ele>88.251673</ele>
        <time>2022-05-03T09:15:36.619Z</time>
      </trkpt>
      <trkpt lat="41.04407" lon="19.81134">
        <ele>87.981837</ele>
        <time>2022-05-03T09:15:38.618Z</time>
      </trkpt>
      <trkpt lat="41.04401" lon="19.81118">
        <ele>87.710147</ele>
        <time>2022-05-03T09:15:40.649Z</time>
      </trkpt>
      <trkpt lat="41.04394" lon="19.81102">
        <ele>87.445489</ele>
        <time>2022-05-03T09:15:42.612Z</time>
      </trkpt>
      <trkpt lat="41.04387" lon="19.81087">
        <ele>87.180531</ele>
        <time>2022-05-03T09:15:44.620Z</time>
      </trkpt>
      <trkpt lat="41.04381" lon="19.81071">
        <ele>86.92161</ele>
        <time>2022-05-03T09:15:46.676Z</time>
      </trkpt>
      <trkpt lat="41.04375" lon="19.81056">
        <ele>86.666202</ele>
        <time>2022-05-03T09:15:48.612Z</time>
      </trkpt>
      <trkpt lat="41.04369" lon="19.81041">
        <ele>86.41301</ele>
        <time>2022-05-03T09:15:50.617Z</time>
      </trkpt>
      <trkpt lat="41.04363" lon="19.81026">
        <ele>86.165133</ele>
        <time>2022-05-03T09:15:52.613Z</time>
      </trkpt>
      <trkpt lat="41.04357" lon="19.8101">
        <ele>85.917691</ele>
        <time>2022-05-03T09:15:54.608Z</time>
      </trkpt>
      <trkpt lat="41.04352" lon="19.80995">
        <ele>85.674013</ele>
        <time>2022-05-03T09:15:56.605Z</time>
      </trkpt>
      <trkpt lat="41.04348" lon="19.8098">
        <ele>85.442158</ele>
        <time>2022-05-03T09:15:58.616Z</time>
      </trkpt>
      <trkpt lat="41.04345" lon="19.80966">
        <ele>85.25281</ele>
        <time>2022-05-03T09:16:00.604Z</time>
      </trkpt>
      <trkpt lat="41.04342" lon="19.80953">
        <ele>85.396769</ele>
        <time>2022-05-03T09:16:02.617Z</time>
      </trkpt>
      <trkpt lat="41.04339" lon="19.8094">
        <ele>85.53266</ele>
        <time>2022-05-03T09:16:04.610Z</time>
      </trkpt>
      <trkpt lat="41.04337" lon="19.80928">
        <ele>85.663549</ele>
        <time>2022-05-03T09:16:06.638Z</time>
      </trkpt>
      <trkpt lat="41.04336" lon="19.80916">
        <ele>85.792982</ele>
        <time>2022-05-03T09:16:08.652Z</time>
      </trkpt>
      <trkpt lat="41.04335" lon="19.80904">
        <ele>85.917834</ele>
        <time>2022-05-03T09:16:10.622Z</time>
      </trkpt>
      <trkpt lat="41.04334" lon="19.80892">
        <ele>86.041526</ele>
        <time>2022-05-03T09:16:12.630Z</time>
      </trkpt>
      <trkpt lat="41.04333" lon="19.8088">
        <ele>86.169344</ele>
        <time>2022-05-03T09:16:14.656Z</time>
      </trkpt>
      <trkpt lat="41.04333" lon="19.80867">
        <ele>86.296697</ele>
        <time>2022-05-03T09:16:16.624Z</time>
      </trkpt>
      <trkpt lat="41.04334" lon="19.80849">
        <ele>86.485371</ele>
        <time>2022-05-03T09:16:19.608Z</time>
      </trkpt>
      <trkpt lat="41.04334" lon="19.80837">
        <ele>86.613935</ele>
        <time>2022-05-03T09:16:21.621Z</time>
      </trkpt>
      <trkpt lat="41.04335" lon="19.80824">
        <ele>86.748639</ele>
        <time>2022-05-03T09:16:23.631Z</time>
      </trkpt>
      <trkpt lat="41.04335" lon="19.80811">
        <ele>86.883406</ele>
        <time>2022-05-03T09:16:25.652Z</time>
      </trkpt>
      <trkpt lat="41.04336" lon="19.80798">
        <ele>87.018111</ele>
        <time>2022-05-03T09:16:27.619Z</time>
      </trkpt>
      <trkpt lat="41.04336" lon="19.80785">
        <ele>87.147555</ele>
        <time>2022-05-03T09:16:29.623Z</time>
      </trkpt>
      <trkpt lat="41.04336" lon="19.80773">
        <ele>87.271863</ele>
        <time>2022-05-03T09:16:31.660Z</time>
      </trkpt>
      <trkpt lat="41.04337" lon="19.80755">
        <ele>87.456335</ele>
        <time>2022-05-03T09:16:34.649Z</time>
      </trkpt>
      <trkpt lat="41.04337" lon="19.80743">
        <ele>87.586815</ele>
        <time>2022-05-03T09:16:36.613Z</time>
      </trkpt>
      <trkpt lat="41.04337" lon="19.8073">
        <ele>87.712014</ele>
        <time>2022-05-03T09:16:38.622Z</time>
      </trkpt>
      <trkpt lat="41.04338" lon="19.80718">
        <ele>87.73997</ele>
        <time>2022-05-03T09:16:40.619Z</time>
      </trkpt>
      <trkpt lat="41.04339" lon="19.80705">
        <ele>87.768773</ele>
        <time>2022-05-03T09:16:42.612Z</time>
      </trkpt>
      <trkpt lat="41.04339" lon="19.80692">
        <ele>87.796978</ele>
        <time>2022-05-03T09:16:44.610Z</time>
      </trkpt>
      <trkpt lat="41.0434" lon="19.8068">
        <ele>87.825434</ele>
        <time>2022-05-03T09:16:46.617Z</time>
      </trkpt>
      <trkpt lat="41.04341" lon="19.80668">
        <ele>87.853281</ele>
        <time>2022-05-03T09:16:48.623Z</time>
      </trkpt>
      <trkpt lat="41.04343" lon="19.8065">
        <ele>87.892245</ele>
        <time>2022-05-03T09:16:51.623Z</time>
      </trkpt>
      <trkpt lat="41.04345" lon="19.80633">
        <ele>87.931732</ele>
        <time>2022-05-03T09:16:54.622Z</time>
      </trkpt>
      <trkpt lat="41.04347" lon="19.80616">
        <ele>87.970733</ele>
        <time>2022-05-03T09:16:57.627Z</time>
      </trkpt>
      <trkpt lat="41.04349" lon="19.80599">
        <ele>88.00902</ele>
        <time>2022-05-03T09:17:00.622Z</time>
      </trkpt>
      <trkpt lat="41.04351" lon="19.80582">
        <ele>88.047259</ele>
        <time>2022-05-03T09:17:03.619Z</time>
      </trkpt>
      <trkpt lat="41.04354" lon="19.80565">
        <ele>88.086862</ele>
        <time>2022-05-03T09:17:06.625Z</time>
      </trkpt>
      <trkpt lat="41.04356" lon="19.80548">
        <ele>88.125968</ele>
        <time>2022-05-03T09:17:09.614Z</time>
      </trkpt>
      <trkpt lat="41.04358" lon="19.80531">
        <ele>88.164873</ele>
        <time>2022-05-03T09:17:12.626Z</time>
      </trkpt>
      <trkpt lat="41.0436" lon="19.80513">
        <ele>88.204642</ele>
        <time>2022-05-03T09:17:15.621Z</time>
      </trkpt>
      <trkpt lat="41.04363" lon="19.80497">
        <ele>88.242979</ele>
        <time>2022-05-03T09:17:18.620Z</time>
      </trkpt>
      <trkpt lat="41.04365" lon="19.80481">
        <ele>88.399694</ele>
        <time>2022-05-03T09:17:21.602Z</time>
      </trkpt>
      <trkpt lat="41.04367" lon="19.80464">
        <ele>88.574045</ele>
        <time>2022-05-03T09:17:24.634Z</time>
      </trkpt>
      <trkpt lat="41.04369" lon="19.80449">
        <ele>88.742591</ele>
        <time>2022-05-03T09:17:27.624Z</time>
      </trkpt>
      <trkpt lat="41.04371" lon="19.80434">
        <ele>88.902177</ele>
        <time>2022-05-03T09:17:30.610Z</time>
      </trkpt>
      <trkpt lat="41.04372" lon="19.80419">
        <ele>89.056383</ele>
        <time>2022-05-03T09:17:33.624Z</time>
      </trkpt>
      <trkpt lat="41.04373" lon="19.80405">
        <ele>89.209541</ele>
        <time>2022-05-03T09:17:36.624Z</time>
      </trkpt>
      <trkpt lat="41.04375" lon="19.80391">
        <ele>89.36221</ele>
        <time>2022-05-03T09:17:39.622Z</time>
      </trkpt>
      <trkpt lat="41.04376" lon="19.80376">
        <ele>89.514493</ele>
        <time>2022-05-03T09:17:42.631Z</time>
      </trkpt>
      <trkpt lat="41.04378" lon="19.80362">
        <ele>89.670101</ele>
        <time>2022-05-03T09:17:45.614Z</time>
      </trkpt>
      <trkpt lat="41.04379" lon="19.80347">
        <ele>89.831132</ele>
        <time>2022-05-03T09:17:48.612Z</time>
      </trkpt>
      <trkpt lat="41.04381" lon="19.80331">
        <ele>89.996879</ele>
        <time>2022-05-03T09:17:51.625Z</time>
      </trkpt>
      <trkpt lat="41.04382" lon="19.80315">
        <ele>90.1676</ele>
        <time>2022-05-03T09:17:54.643Z</time>
      </trkpt>
      <trkpt lat="41.04382" lon="19.803">
        <ele>90.328176</ele>
        <time>2022-05-03T09:17:57.618Z</time>
      </trkpt>
      <trkpt lat="41.04383" lon="19.80284">
        <ele>90.49141</ele>
        <time>2022-05-03T09:18:00.612Z</time>
      </trkpt>
      <trkpt lat="41.04384" lon="19.80269">
        <ele>90.65254</ele>
        <time>2022-05-03T09:18:03.636Z</time>
      </trkpt>
      <trkpt lat="41.04384" lon="19.80254">
        <ele>90.809673</ele>
        <time>2022-05-03T09:18:06.627Z</time>
      </trkpt>
      <trkpt lat="41.04385" lon="19.80239">
        <ele>90.950638</ele>
        <time>2022-05-03T09:18:09.649Z</time>
      </trkpt>
      <trkpt lat="41.04385" lon="19.80224">
        <ele>91.091553</ele>
        <time>2022-05-03T09:18:12.604Z</time>
      </trkpt>
      <trkpt lat="41.04386" lon="19.80208">
        <ele>91.235246</ele>
        <time>2022-05-03T09:18:15.626Z</time>
      </trkpt>
      <trkpt lat="41.04386" lon="19.80193">
        <ele>91.381754</ele>
        <time>2022-05-03T09:18:18.619Z</time>
      </trkpt>
      <trkpt lat="41.04386" lon="19.80178">
        <ele>91.52448</ele>
        <time>2022-05-03T09:18:21.609Z</time>
      </trkpt>
      <trkpt lat="41.04386" lon="19.80163">
        <ele>91.665357</ele>
        <time>2022-05-03T09:18:24.624Z</time>
      </trkpt>
      <trkpt lat="41.04386" lon="19.80147">
        <ele>91.80994</ele>
        <time>2022-05-03T09:18:27.659Z</time>
      </trkpt>
      <trkpt lat="41.04387" lon="19.80132">
        <ele>91.954656</ele>
        <time>2022-05-03T09:18:30.619Z</time>
      </trkpt>
      <trkpt lat="41.04387" lon="19.80116">
        <ele>92.102139</ele>
        <time>2022-05-03T09:18:33.622Z</time>
      </trkpt>
      <trkpt lat="41.04387" lon="19.80101">
        <ele>92.24205</ele>
        <time>2022-05-03T09:18:36.615Z</time>
      </trkpt>
      <trkpt lat="41.04387" lon="19.80086">
        <ele>92.38196</ele>
        <time>2022-05-03T09:18:39.628Z</time>
      </trkpt>
      <trkpt lat="41.04387" lon="19.80072">
        <ele>92.520246</ele>
        <time>2022-05-03T09:18:42.619Z</time>
      </trkpt>
      <trkpt lat="41.04386" lon="19.80057">
        <ele>92.656521</ele>
        <time>2022-05-03T09:18:45.612Z</time>
      </trkpt>
      <trkpt lat="41.04386" lon="19.80042">
        <ele>92.793644</ele>
        <time>2022-05-03T09:18:48.624Z</time>
      </trkpt>
      <trkpt lat="41.04385" lon="19.80028">
        <ele>92.93367</ele>
        <time>2022-05-03T09:18:51.623Z</time>
      </trkpt>
      <trkpt lat="41.04385" lon="19.80012">
        <ele>93.015079</ele>
        <time>2022-05-03T09:18:54.610Z</time>
      </trkpt>
      <trkpt lat="41.04385" lon="19.79997">
        <ele>93.037065</ele>
        <time>2022-05-03T09:18:57.628Z</time>
      </trkpt>
      <trkpt lat="41.04384" lon="19.79981">
        <ele>93.05918</ele>
        <time>2022-05-03T09:19:00.652Z</time>
      </trkpt>
      <trkpt lat="41.04384" lon="19.79966">
        <ele>93.080735</ele>
        <time>2022-05-03T09:19:03.619Z</time>
      </trkpt>
      <trkpt lat="41.04384" lon="19.7995">
        <ele>93.102849</ele>
        <time>2022-05-03T09:19:06.662Z</time>
      </trkpt>
      <trkpt lat="41.04384" lon="19.79935">
        <ele>93.125248</ele>
        <time>2022-05-03T09:19:09.614Z</time>
      </trkpt>
      <trkpt lat="41.04384" lon="19.79919">
        <ele>93.147647</ele>
        <time>2022-05-03T09:19:12.656Z</time>
      </trkpt>
      <trkpt lat="41.04385" lon="19.79904">
        <ele>93.168657</ele>
        <time>2022-05-03T09:19:15.617Z</time>
      </trkpt>
      <trkpt lat="41.04385" lon="19.79889">
        <ele>93.190205</ele>
        <time>2022-05-03T09:19:18.632Z</time>
      </trkpt>
      <trkpt lat="41.04385" lon="19.79874">
        <ele>93.211793</ele>
        <time>2022-05-03T09:19:21.601Z</time>
      </trkpt>
      <trkpt lat="41.04386" lon="19.79858">
        <ele>93.234502</ele>
        <time>2022-05-03T09:19:24.621Z</time>
      </trkpt>
      <trkpt lat="41.04386" lon="19.79842">
        <ele>93.256495</ele>
        <time>2022-05-03T09:19:27.632Z</time>
      </trkpt>
      <trkpt lat="41.04387" lon="19.79827">
        <ele>93.278109</ele>
        <time>2022-05-03T09:19:30.614Z</time>
      </trkpt>
      <trkpt lat="41.04388" lon="19.79812">
        <ele>93.299522</ele>
        <time>2022-05-03T09:19:33.620Z</time>
      </trkpt>
      <trkpt lat="41.04389" lon="19.79797">
        <ele>93.320104</ele>
        <time>2022-05-03T09:19:36.630Z</time>
      </trkpt>
      <trkpt lat="41.0439" lon="19.79783">
        <ele>93.341186</ele>
        <time>2022-05-03T09:19:39.605Z</time>
      </trkpt>
      <trkpt lat="41.04392" lon="19.79768">
        <ele>93.206583</ele>
        <time>2022-05-03T09:19:42.624Z</time>
      </trkpt>
      <trkpt lat="41.04393" lon="19.79754">
        <ele>93.06509</ele>
        <time>2022-05-03T09:19:45.625Z</time>
      </trkpt>
      <trkpt lat="41.04394" lon="19.7974">
        <ele>92.922756</ele>
        <time>2022-05-03T09:19:48.620Z</time>
      </trkpt>
      <trkpt lat="41.04395" lon="19.79725">
        <ele>92.783601</ele>
        <time>2022-05-03T09:19:51.676Z</time>
      </trkpt>
      <trkpt lat="41.04396" lon="19.79711">
        <ele>92.640647</ele>
        <time>2022-05-03T09:19:54.603Z</time>
      </trkpt>
      <trkpt lat="41.04398" lon="19.79696">
        <ele>92.49459</ele>
        <time>2022-05-03T09:19:57.643Z</time>
      </trkpt>
      <trkpt lat="41.044" lon="19.79681">
        <ele>92.344482</ele>
        <time>2022-05-03T09:20:00.618Z</time>
      </trkpt>
      <trkpt lat="41.04402" lon="19.79666">
        <ele>92.193371</ele>
        <time>2022-05-03T09:20:03.599Z</time>
      </trkpt>
      <trkpt lat="41.04405" lon="19.79651">
        <ele>92.035574</ele>
        <time>2022-05-03T09:20:06.607Z</time>
      </trkpt>
      <trkpt lat="41.04408" lon="19.79635">
        <ele>91.875662</ele>
        <time>2022-05-03T09:20:09.612Z</time>
      </trkpt>
      <trkpt lat="41.04409" lon="19.79623">
        <ele>91.758489</ele>
        <time>2022-05-03T09:20:11.614Z</time>
      </trkpt>
      <trkpt lat="41.04412" lon="19.79605">
        <ele>91.581603</ele>
        <time>2022-05-03T09:20:14.655Z</time>
      </trkpt>
      <trkpt lat="41.04414" lon="19.79593">
        <ele>91.456458</ele>
        <time>2022-05-03T09:20:16.609Z</time>
      </trkpt>
      <trkpt lat="41.04416" lon="19.7958">
        <ele>91.325984</ele>
        <time>2022-05-03T09:20:18.621Z</time>
      </trkpt>
      <trkpt lat="41.04418" lon="19.79566">
        <ele>91.189724</ele>
        <time>2022-05-03T09:20:20.661Z</time>
      </trkpt>
      <trkpt lat="41.0442" lon="19.79552">
        <ele>91.051246</ele>
        <time>2022-05-03T09:20:22.614Z</time>
      </trkpt>
      <trkpt lat="41.04421" lon="19.79538">
        <ele>90.921177</ele>
        <time>2022-05-03T09:20:24.613Z</time>
      </trkpt>
      <trkpt lat="41.04424" lon="19.79524">
        <ele>90.79883</ele>
        <time>2022-05-03T09:20:26.656Z</time>
      </trkpt>
      <trkpt lat="41.04426" lon="19.79508">
        <ele>90.670069</ele>
        <time>2022-05-03T09:20:28.616Z</time>
      </trkpt>
      <trkpt lat="41.04428" lon="19.79493">
        <ele>90.537852</ele>
        <time>2022-05-03T09:20:30.620Z</time>
      </trkpt>
      <trkpt lat="41.0443" lon="19.79476">
        <ele>90.399118</ele>
        <time>2022-05-03T09:20:32.598Z</time>
      </trkpt>
      <trkpt lat="41.04432" lon="19.7946">
        <ele>90.260571</ele>
        <time>2022-05-03T09:20:34.644Z</time>
      </trkpt>
      <trkpt lat="41.04435" lon="19.79443">
        <ele>90.119384</ele>
        <time>2022-05-03T09:20:36.621Z</time>
      </trkpt>
      <trkpt lat="41.04437" lon="19.79426">
        <ele>89.975755</ele>
        <time>2022-05-03T09:20:38.661Z</time>
      </trkpt>
      <trkpt lat="41.0444" lon="19.79409">
        <ele>89.833368</ele>
        <time>2022-05-03T09:20:40.614Z</time>
      </trkpt>
      <trkpt lat="41.04442" lon="19.79393">
        <ele>89.696454</ele>
        <time>2022-05-03T09:20:42.618Z</time>
      </trkpt>
      <trkpt lat="41.04443" lon="19.79377">
        <ele>89.565557</ele>
        <time>2022-05-03T09:20:44.658Z</time>
      </trkpt>
      <trkpt lat="41.04445" lon="19.79362">
        <ele>89.438163</ele>
        <time>2022-05-03T09:20:46.620Z</time>
      </trkpt>
      <trkpt lat="41.04446" lon="19.79347">
        <ele>89.312198</ele>
        <time>2022-05-03T09:20:48.617Z</time>
      </trkpt>
      <trkpt lat="41.04448" lon="19.79331">
        <ele>89.186362</ele>
        <time>2022-05-03T09:20:50.671Z</time>
      </trkpt>
      <trkpt lat="41.04448" lon="19.79317">
        <ele>89.062755</ele>
        <time>2022-05-03T09:20:52.613Z</time>
      </trkpt>
      <trkpt lat="41.04449" lon="19.79302">
        <ele>88.963486</ele>
        <time>2022-05-03T09:20:54.600Z</time>
      </trkpt>
      <trkpt lat="41.04449" lon="19.79288">
        <ele>88.876668</ele>
        <time>2022-05-03T09:20:56.618Z</time>
      </trkpt>
      <trkpt lat="41.04449" lon="19.79274">
        <ele>88.789333</ele>
        <time>2022-05-03T09:20:58.652Z</time>
      </trkpt>
      <trkpt lat="41.0445" lon="19.79259">
        <ele>88.703204</ele>
        <time>2022-05-03T09:21:00.617Z</time>
      </trkpt>
      <trkpt lat="41.04449" lon="19.79245">
        <ele>88.617686</ele>
        <time>2022-05-03T09:21:02.657Z</time>
      </trkpt>
      <trkpt lat="41.04449" lon="19.79232">
        <ele>88.537065</ele>
        <time>2022-05-03T09:21:04.611Z</time>
      </trkpt>
      <trkpt lat="41.04449" lon="19.7922">
        <ele>88.459435</ele>
        <time>2022-05-03T09:21:06.618Z</time>
      </trkpt>
      <trkpt lat="41.04448" lon="19.79207">
        <ele>88.384101</ele>
        <time>2022-05-03T09:21:08.608Z</time>
      </trkpt>
      <trkpt lat="41.04448" lon="19.79195">
        <ele>88.310091</ele>
        <time>2022-05-03T09:21:10.611Z</time>
      </trkpt>
      <trkpt lat="41.04447" lon="19.79183">
        <ele>88.236033</ele>
        <time>2022-05-03T09:21:12.628Z</time>
      </trkpt>
      <trkpt lat="41.04447" lon="19.79171">
        <ele>88.161975</ele>
        <time>2022-05-03T09:21:14.616Z</time>
      </trkpt>
      <trkpt lat="41.04446" lon="19.79159">
        <ele>88.088526</ele>
        <time>2022-05-03T09:21:16.616Z</time>
      </trkpt>
      <trkpt lat="41.04446" lon="19.79147">
        <ele>88.013906</ele>
        <time>2022-05-03T09:21:18.604Z</time>
      </trkpt>
      <trkpt lat="41.04445" lon="19.79135">
        <ele>87.941116</ele>
        <time>2022-05-03T09:21:20.618Z</time>
      </trkpt>
      <trkpt lat="41.04444" lon="19.79117">
        <ele>87.83399</ele>
        <time>2022-05-03T09:21:23.619Z</time>
      </trkpt>
      <trkpt lat="41.04443" lon="19.791">
        <ele>87.72477</ele>
        <time>2022-05-03T09:21:26.611Z</time>
      </trkpt>
      <trkpt lat="41.04442" lon="19.79087">
        <ele>87.649297</ele>
        <time>2022-05-03T09:21:28.614Z</time>
      </trkpt>
      <trkpt lat="41.04441" lon="19.79075">
        <ele>87.572438</ele>
        <time>2022-05-03T09:21:30.652Z</time>
      </trkpt>
      <trkpt lat="41.0444" lon="19.79063">
        <ele>87.546739</ele>
        <time>2022-05-03T09:21:32.620Z</time>
      </trkpt>
      <trkpt lat="41.04439" lon="19.7905">
        <ele>87.525387</ele>
        <time>2022-05-03T09:21:34.624Z</time>
      </trkpt>
      <trkpt lat="41.04438" lon="19.79038">
        <ele>87.504216</ele>
        <time>2022-05-03T09:21:36.607Z</time>
      </trkpt>
      <trkpt lat="41.04437" lon="19.79025">
        <ele>87.48158</ele>
        <time>2022-05-03T09:21:38.625Z</time>
      </trkpt>
      <trkpt lat="41.04436" lon="19.79012">
        <ele>87.458601</ele>
        <time>2022-05-03T09:21:40.629Z</time>
      </trkpt>
      <trkpt lat="41.04435" lon="19.78999">
        <ele>87.43545</ele>
        <time>2022-05-03T09:21:42.612Z</time>
      </trkpt>
      <trkpt lat="41.04434" lon="19.78985">
        <ele>87.412364</ele>
        <time>2022-05-03T09:21:44.617Z</time>
      </trkpt>
      <trkpt lat="41.04433" lon="19.78972">
        <ele>87.388524</ele>
        <time>2022-05-03T09:21:46.619Z</time>
      </trkpt>
      <trkpt lat="41.04431" lon="19.78958">
        <ele>87.364117</ele>
        <time>2022-05-03T09:21:48.623Z</time>
      </trkpt>
      <trkpt lat="41.04431" lon="19.78944">
        <ele>87.340012</ele>
        <time>2022-05-03T09:21:50.618Z</time>
      </trkpt>
      <trkpt lat="41.0443" lon="19.7893">
        <ele>87.316235</ele>
        <time>2022-05-03T09:21:52.617Z</time>
      </trkpt>
      <trkpt lat="41.04429" lon="19.78917">
        <ele>87.293108</ele>
        <time>2022-05-03T09:21:54.615Z</time>
      </trkpt>
      <trkpt lat="41.04428" lon="19.78903">
        <ele>87.269363</ele>
        <time>2022-05-03T09:21:56.600Z</time>
      </trkpt>
      <trkpt lat="41.04427" lon="19.7889">
        <ele>87.245695</ele>
        <time>2022-05-03T09:21:58.606Z</time>
      </trkpt>
      <trkpt lat="41.04427" lon="19.78876">
        <ele>87.222295</ele>
        <time>2022-05-03T09:22:00.615Z</time>
      </trkpt>
      <trkpt lat="41.04426" lon="19.78862">
        <ele>87.1985</ele>
        <time>2022-05-03T09:22:02.610Z</time>
      </trkpt>
      <trkpt lat="41.04425" lon="19.78848">
        <ele>87.17365</ele>
        <time>2022-05-03T09:22:04.640Z</time>
      </trkpt>
      <trkpt lat="41.04424" lon="19.78835">
        <ele>87.151183</ele>
        <time>2022-05-03T09:22:06.613Z</time>
      </trkpt>
      <trkpt lat="41.04423" lon="19.78822">
        <ele>87.13594</ele>
        <time>2022-05-03T09:22:08.623Z</time>
      </trkpt>
      <trkpt lat="41.04422" lon="19.78808">
        <ele>87.12012</ele>
        <time>2022-05-03T09:22:10.617Z</time>
      </trkpt>
      <trkpt lat="41.04422" lon="19.78795">
        <ele>87.10362</ele>
        <time>2022-05-03T09:22:12.604Z</time>
      </trkpt>
      <trkpt lat="41.04421" lon="19.7878">
        <ele>87.086874</ele>
        <time>2022-05-03T09:22:14.625Z</time>
      </trkpt>
      <trkpt lat="41.0442" lon="19.78766">
        <ele>87.069764</ele>
        <time>2022-05-03T09:22:16.612Z</time>
      </trkpt>
      <trkpt lat="41.0442" lon="19.78751">
        <ele>87.052052</ele>
        <time>2022-05-03T09:22:18.606Z</time>
      </trkpt>
      <trkpt lat="41.04419" lon="19.78736">
        <ele>87.03436</ele>
        <time>2022-05-03T09:22:20.612Z</time>
      </trkpt>
      <trkpt lat="41.04418" lon="19.78722">
        <ele>87.016977</ele>
        <time>2022-05-03T09:22:22.615Z</time>
      </trkpt>
      <trkpt lat="41.04417" lon="19.78707">
        <ele>86.999579</ele>
        <time>2022-05-03T09:22:24.621Z</time>
      </trkpt>
      <trkpt lat="41.04416" lon="19.78693">
        <ele>86.982283</ele>
        <time>2022-05-03T09:22:26.617Z</time>
      </trkpt>
      <trkpt lat="41.04415" lon="19.78678">
        <ele>86.965032</ele>
        <time>2022-05-03T09:22:28.618Z</time>
      </trkpt>
      <trkpt lat="41.04414" lon="19.78664">
        <ele>86.948342</ele>
        <time>2022-05-03T09:22:30.688Z</time>
      </trkpt>
      <trkpt lat="41.04413" lon="19.7865">
        <ele>86.931077</ele>
        <time>2022-05-03T09:22:32.640Z</time>
      </trkpt>
      <trkpt lat="41.04411" lon="19.78635">
        <ele>86.914134</ele>
        <time>2022-05-03T09:22:34.627Z</time>
      </trkpt>
      <trkpt lat="41.0441" lon="19.78621">
        <ele>86.897388</ele>
        <time>2022-05-03T09:22:36.605Z</time>
      </trkpt>
      <trkpt lat="41.04409" lon="19.78607">
        <ele>86.880698</ele>
        <time>2022-05-03T09:22:38.660Z</time>
      </trkpt>
      <trkpt lat="41.04408" lon="19.78593">
        <ele>86.813962</ele>
        <time>2022-05-03T09:22:40.629Z</time>
      </trkpt>
      <trkpt lat="41.04407" lon="19.78579">
        <ele>86.66761</ele>
        <time>2022-05-03T09:22:42.623Z</time>
      </trkpt>
      <trkpt lat="41.04405" lon="19.78564">
        <ele>86.523884</ele>
        <time>2022-05-03T09:22:44.618Z</time>
      </trkpt>
      <trkpt lat="41.04403" lon="19.7855">
        <ele>86.380754</ele>
        <time>2022-05-03T09:22:46.618Z</time>
      </trkpt>
      <trkpt lat="41.04402" lon="19.78536">
        <ele>86.239178</ele>
        <time>2022-05-03T09:22:48.658Z</time>
      </trkpt>
      <trkpt lat="41.04401" lon="19.78522">
        <ele>86.094803</ele>
        <time>2022-05-03T09:22:50.615Z</time>
      </trkpt>
      <trkpt lat="41.04399" lon="19.78508">
        <ele>85.953195</ele>
        <time>2022-05-03T09:22:52.626Z</time>
      </trkpt>
      <trkpt lat="41.04397" lon="19.78494">
        <ele>85.812031</ele>
        <time>2022-05-03T09:22:54.615Z</time>
      </trkpt>
      <trkpt lat="41.04396" lon="19.78479">
        <ele>85.670276</ele>
        <time>2022-05-03T09:22:56.604Z</time>
      </trkpt>
      <trkpt lat="41.04394" lon="19.78465">
        <ele>85.521805</ele>
        <time>2022-05-03T09:22:58.613Z</time>
      </trkpt>
      <trkpt lat="41.04392" lon="19.78449">
        <ele>85.368036</ele>
        <time>2022-05-03T09:23:00.610Z</time>
      </trkpt>
      <trkpt lat="41.0439" lon="19.78434">
        <ele>85.217035</ele>
        <time>2022-05-03T09:23:02.623Z</time>
      </trkpt>
      <trkpt lat="41.04388" lon="19.7842">
        <ele>85.070525</ele>
        <time>2022-05-03T09:23:04.666Z</time>
      </trkpt>
      <trkpt lat="41.04387" lon="19.78405">
        <ele>84.922271</ele>
        <time>2022-05-03T09:23:06.665Z</time>
      </trkpt>
      <trkpt lat="41.04385" lon="19.7839">
        <ele>84.770631</ele>
        <time>2022-05-03T09:23:08.623Z</time>
      </trkpt>
      <trkpt lat="41.04383" lon="19.78375">
        <ele>84.619215</ele>
        <time>2022-05-03T09:23:10.630Z</time>
      </trkpt>
      <trkpt lat="41.04381" lon="19.7836">
        <ele>84.45924</ele>
        <time>2022-05-03T09:23:12.649Z</time>
      </trkpt>
      <trkpt lat="41.04379" lon="19.78344">
        <ele>84.277718</ele>
        <time>2022-05-03T09:23:14.618Z</time>
      </trkpt>
      <trkpt lat="41.04377" lon="19.78329">
        <ele>84.094151</ele>
        <time>2022-05-03T09:23:16.646Z</time>
      </trkpt>
      <trkpt lat="41.04375" lon="19.78312">
        <ele>83.903724</ele>
        <time>2022-05-03T09:23:18.609Z</time>
      </trkpt>
      <trkpt lat="41.04373" lon="19.78296">
        <ele>83.71511</ele>
        <time>2022-05-03T09:23:20.626Z</time>
      </trkpt>
      <trkpt lat="41.04371" lon="19.7828">
        <ele>83.522823</ele>
        <time>2022-05-03T09:23:22.612Z</time>
      </trkpt>
      <trkpt lat="41.04369" lon="19.78264">
        <ele>83.336232</ele>
        <time>2022-05-03T09:23:24.625Z</time>
      </trkpt>
      <trkpt lat="41.04367" lon="19.78248">
        <ele>83.146817</ele>
        <time>2022-05-03T09:23:26.614Z</time>
      </trkpt>
      <trkpt lat="41.04365" lon="19.78232">
        <ele>82.955669</ele>
        <time>2022-05-03T09:23:28.616Z</time>
      </trkpt>
      <trkpt lat="41.04362" lon="19.78215">
        <ele>82.762845</ele>
        <time>2022-05-03T09:23:30.644Z</time>
      </trkpt>
      <trkpt lat="41.0436" lon="19.78199">
        <ele>82.57309</ele>
        <time>2022-05-03T09:23:32.666Z</time>
      </trkpt>
      <trkpt lat="41.04358" lon="19.78183">
        <ele>82.386499</ele>
        <time>2022-05-03T09:23:34.632Z</time>
      </trkpt>
      <trkpt lat="41.04356" lon="19.78166">
        <ele>82.191272</ele>
        <time>2022-05-03T09:23:36.655Z</time>
      </trkpt>
      <trkpt lat="41.04354" lon="19.7815">
        <ele>81.995811</ele>
        <time>2022-05-03T09:23:38.623Z</time>
      </trkpt>
      <trkpt lat="41.04353" lon="19.78134">
        <ele>81.812878</ele>
        <time>2022-05-03T09:23:40.629Z</time>
      </trkpt>
      <trkpt lat="41.04351" lon="19.78119">
        <ele>81.675623</ele>
        <time>2022-05-03T09:23:42.618Z</time>
      </trkpt>
      <trkpt lat="41.04348" lon="19.78103">
        <ele>81.563565</ele>
        <time>2022-05-03T09:23:44.596Z</time>
      </trkpt>
      <trkpt lat="41.04346" lon="19.78087">
        <ele>81.449845</ele>
        <time>2022-05-03T09:23:46.661Z</time>
      </trkpt>
      <trkpt lat="41.04342" lon="19.78071">
        <ele>81.338426</ele>
        <time>2022-05-03T09:23:48.644Z</time>
      </trkpt>
      <trkpt lat="41.04338" lon="19.78056">
        <ele>81.228326</ele>
        <time>2022-05-03T09:23:50.614Z</time>
      </trkpt>
      <trkpt lat="41.04335" lon="19.78041">
        <ele>81.119262</ele>
        <time>2022-05-03T09:23:52.619Z</time>
      </trkpt>
      <trkpt lat="41.04331" lon="19.78027">
        <ele>81.011599</ele>
        <time>2022-05-03T09:23:54.623Z</time>
      </trkpt>
      <trkpt lat="41.04326" lon="19.78012">
        <ele>80.903166</ele>
        <time>2022-05-03T09:23:56.625Z</time>
      </trkpt>
      <trkpt lat="41.04322" lon="19.77997">
        <ele>80.794533</ele>
        <time>2022-05-03T09:23:58.647Z</time>
      </trkpt>
      <trkpt lat="41.04319" lon="19.77982">
        <ele>80.681267</ele>
        <time>2022-05-03T09:24:00.605Z</time>
      </trkpt>
      <trkpt lat="41.0432" lon="19.77964">
        <ele>80.559444</ele>
        <time>2022-05-03T09:24:02.617Z</time>
      </trkpt>
      <trkpt lat="41.04325" lon="19.77951">
        <ele>80.459966</ele>
        <time>2022-05-03T09:24:04.664Z</time>
      </trkpt>
      <trkpt lat="41.0433" lon="19.77935">
        <ele>80.344172</ele>
        <time>2022-05-03T09:24:06.625Z</time>
      </trkpt>
      <trkpt lat="41.04331" lon="19.77918">
        <ele>80.222127</ele>
        <time>2022-05-03T09:24:08.632Z</time>
      </trkpt>
      <trkpt lat="41.04327" lon="19.77904">
        <ele>80.117041</ele>
        <time>2022-05-03T09:24:10.613Z</time>
      </trkpt>
      <trkpt lat="41.0432" lon="19.77887">
        <ele>79.856928</ele>
        <time>2022-05-03T09:24:12.616Z</time>
      </trkpt>
      <trkpt lat="41.04314" lon="19.77872">
        <ele>79.602003</ele>
        <time>2022-05-03T09:24:14.614Z</time>
      </trkpt>
      <trkpt lat="41.0431" lon="19.77855">
        <ele>79.327879</ele>
        <time>2022-05-03T09:24:16.613Z</time>
      </trkpt>
      <trkpt lat="41.04305" lon="19.7784">
        <ele>79.075918</ele>
        <time>2022-05-03T09:24:18.616Z</time>
      </trkpt>
      <trkpt lat="41.043" lon="19.77824">
        <ele>78.803939</ele>
        <time>2022-05-03T09:24:20.615Z</time>
      </trkpt>
      <trkpt lat="41.04296" lon="19.77808">
        <ele>78.553123</ele>
        <time>2022-05-03T09:24:22.623Z</time>
      </trkpt>
      <trkpt lat="41.04292" lon="19.77792">
        <ele>78.29438</ele>
        <time>2022-05-03T09:24:24.623Z</time>
      </trkpt>
      <trkpt lat="41.04289" lon="19.77777">
        <ele>78.046488</ele>
        <time>2022-05-03T09:24:26.628Z</time>
      </trkpt>
      <trkpt lat="41.04285" lon="19.77761">
        <ele>77.800057</ele>
        <time>2022-05-03T09:24:28.632Z</time>
      </trkpt>
      <trkpt lat="41.04282" lon="19.77746">
        <ele>77.562765</ele>
        <time>2022-05-03T09:24:30.615Z</time>
      </trkpt>
      <trkpt lat="41.04278" lon="19.77731">
        <ele>77.321068</ele>
        <time>2022-05-03T09:24:32.620Z</time>
      </trkpt>
      <trkpt lat="41.04275" lon="19.77717">
        <ele>77.095657</ele>
        <time>2022-05-03T09:24:34.619Z</time>
      </trkpt>
      <trkpt lat="41.04272" lon="19.77703">
        <ele>76.863025</ele>
        <time>2022-05-03T09:24:36.621Z</time>
      </trkpt>
      <trkpt lat="41.04268" lon="19.77689">
        <ele>76.63952</ele>
        <time>2022-05-03T09:24:38.656Z</time>
      </trkpt>
      <trkpt lat="41.04265" lon="19.77675">
        <ele>76.437117</ele>
        <time>2022-05-03T09:24:40.621Z</time>
      </trkpt>
      <trkpt lat="41.04262" lon="19.77662">
        <ele>76.49622</ele>
        <time>2022-05-03T09:24:42.625Z</time>
      </trkpt>
      <trkpt lat="41.04259" lon="19.77648">
        <ele>76.555572</ele>
        <time>2022-05-03T09:24:44.668Z</time>
      </trkpt>
      <trkpt lat="41.04255" lon="19.77634">
        <ele>76.615098</ele>
        <time>2022-05-03T09:24:46.617Z</time>
      </trkpt>
      <trkpt lat="41.04251" lon="19.77621">
        <ele>76.672858</ele>
        <time>2022-05-03T09:24:48.608Z</time>
      </trkpt>
      <trkpt lat="41.04248" lon="19.77609">
        <ele>76.726617</ele>
        <time>2022-05-03T09:24:50.622Z</time>
      </trkpt>
      <trkpt lat="41.04245" lon="19.77597">
        <ele>76.777916</ele>
        <time>2022-05-03T09:24:52.614Z</time>
      </trkpt>
      <trkpt lat="41.04241" lon="19.7758">
        <ele>76.849971</ele>
        <time>2022-05-03T09:24:55.658Z</time>
      </trkpt>
      <trkpt lat="41.04238" lon="19.77563">
        <ele>76.923181</ele>
        <time>2022-05-03T09:24:58.624Z</time>
      </trkpt>
      <trkpt lat="41.04235" lon="19.77551">
        <ele>76.97448</ele>
        <time>2022-05-03T09:25:00.616Z</time>
      </trkpt>
      <trkpt lat="41.04232" lon="19.77538">
        <ele>77.03027</ele>
        <time>2022-05-03T09:25:02.618Z</time>
      </trkpt>
      <trkpt lat="41.04229" lon="19.77526">
        <ele>77.082356</ele>
        <time>2022-05-03T09:25:04.623Z</time>
      </trkpt>
      <trkpt lat="41.04227" lon="19.77514">
        <ele>77.135177</ele>
        <time>2022-05-03T09:25:06.673Z</time>
      </trkpt>
      <trkpt lat="41.04224" lon="19.77502">
        <ele>77.185767</ele>
        <time>2022-05-03T09:25:08.617Z</time>
      </trkpt>
      <trkpt lat="41.04221" lon="19.77489">
        <ele>77.24009</ele>
        <time>2022-05-03T09:25:10.623Z</time>
      </trkpt>
      <trkpt lat="41.04218" lon="19.77477">
        <ele>77.29504</ele>
        <time>2022-05-03T09:25:12.615Z</time>
      </trkpt>
      <trkpt lat="41.04215" lon="19.77464">
        <ele>77.35053</ele>
        <time>2022-05-03T09:25:14.632Z</time>
      </trkpt>
      <trkpt lat="41.04212" lon="19.77451">
        <ele>77.406198</ele>
        <time>2022-05-03T09:25:16.618Z</time>
      </trkpt>
      <trkpt lat="41.04209" lon="19.77438">
        <ele>77.393279</ele>
        <time>2022-05-03T09:25:18.629Z</time>
      </trkpt>
      <trkpt lat="41.04207" lon="19.77426">
        <ele>77.367579</ele>
        <time>2022-05-03T09:25:20.619Z</time>
      </trkpt>
      <trkpt lat="41.04205" lon="19.77414">
        <ele>77.341326</ele>
        <time>2022-05-03T09:25:22.612Z</time>
      </trkpt>
      <trkpt lat="41.04203" lon="19.77402">
        <ele>77.316312</ele>
        <time>2022-05-03T09:25:24.613Z</time>
      </trkpt>
      <trkpt lat="41.04199" lon="19.77385">
        <ele>77.279687</ele>
        <time>2022-05-03T09:25:27.620Z</time>
      </trkpt>
      <trkpt lat="41.04197" lon="19.77373">
        <ele>77.253407</ele>
        <time>2022-05-03T09:25:29.598Z</time>
      </trkpt>
      <trkpt lat="41.04195" lon="19.7736">
        <ele>77.227592</ele>
        <time>2022-05-03T09:25:31.623Z</time>
      </trkpt>
      <trkpt lat="41.04192" lon="19.77349">
        <ele>77.202627</ele>
        <time>2022-05-03T09:25:33.620Z</time>
      </trkpt>
      <trkpt lat="41.04189" lon="19.77337">
        <ele>77.17635</ele>
        <time>2022-05-03T09:25:35.617Z</time>
      </trkpt>
      <trkpt lat="41.04187" lon="19.77324">
        <ele>77.149845</ele>
        <time>2022-05-03T09:25:37.660Z</time>
      </trkpt>
      <trkpt lat="41.04184" lon="19.77312">
        <ele>77.122668</ele>
        <time>2022-05-03T09:25:39.624Z</time>
      </trkpt>
      <trkpt lat="41.04181" lon="19.77299">
        <ele>77.094591</ele>
        <time>2022-05-03T09:25:41.620Z</time>
      </trkpt>
      <trkpt lat="41.04179" lon="19.77285">
        <ele>77.066098</ele>
        <time>2022-05-03T09:25:43.632Z</time>
      </trkpt>
      <trkpt lat="41.04178" lon="19.77271">
        <ele>77.037703</ele>
        <time>2022-05-03T09:25:45.618Z</time>
      </trkpt>
      <trkpt lat="41.04177" lon="19.77257">
        <ele>77.007332</ele>
        <time>2022-05-03T09:25:47.616Z</time>
      </trkpt>
      <trkpt lat="41.04177" lon="19.77241">
        <ele>76.975149</ele>
        <time>2022-05-03T09:25:49.621Z</time>
      </trkpt>
      <trkpt lat="41.04178" lon="19.77225">
        <ele>76.941262</ele>
        <time>2022-05-03T09:25:51.614Z</time>
      </trkpt>
      <trkpt lat="41.04179" lon="19.77208">
        <ele>76.973675</ele>
        <time>2022-05-03T09:25:53.626Z</time>
      </trkpt>
      <trkpt lat="41.0418" lon="19.77192">
        <ele>77.077613</ele>
        <time>2022-05-03T09:25:55.604Z</time>
      </trkpt>
      <trkpt lat="41.0418" lon="19.77176">
        <ele>77.179879</ele>
        <time>2022-05-03T09:25:57.621Z</time>
      </trkpt>
      <trkpt lat="41.04181" lon="19.7716">
        <ele>77.283322</ele>
        <time>2022-05-03T09:25:59.611Z</time>
      </trkpt>
      <trkpt lat="41.04179" lon="19.77146">
        <ele>77.379212</ele>
        <time>2022-05-03T09:26:01.619Z</time>
      </trkpt>
      <trkpt lat="41.04177" lon="19.77131">
        <ele>77.474986</ele>
        <time>2022-05-03T09:26:03.614Z</time>
      </trkpt>
      <trkpt lat="41.04175" lon="19.77117">
        <ele>77.565357</ele>
        <time>2022-05-03T09:26:05.621Z</time>
      </trkpt>
      <trkpt lat="41.04173" lon="19.77101">
        <ele>77.671976</ele>
        <time>2022-05-03T09:26:08.625Z</time>
      </trkpt>
      <trkpt lat="41.04171" lon="19.77086">
        <ele>77.770936</ele>
        <time>2022-05-03T09:26:11.614Z</time>
      </trkpt>
      <trkpt lat="41.0417" lon="19.77072">
        <ele>77.859832</ele>
        <time>2022-05-03T09:26:14.622Z</time>
      </trkpt>
      <trkpt lat="41.0417" lon="19.77059">
        <ele>77.949303</ele>
        <time>2022-05-03T09:26:17.622Z</time>
      </trkpt>
      <trkpt lat="41.04169" lon="19.77044">
        <ele>78.044641</ele>
        <time>2022-05-03T09:26:20.603Z</time>
      </trkpt>
      <trkpt lat="41.04168" lon="19.77028">
        <ele>78.145924</ele>
        <time>2022-05-03T09:26:23.616Z</time>
      </trkpt>
      <trkpt lat="41.04167" lon="19.77012">
        <ele>78.253399</ele>
        <time>2022-05-03T09:26:26.663Z</time>
      </trkpt>
      <trkpt lat="41.04166" lon="19.76996">
        <ele>78.356955</ele>
        <time>2022-05-03T09:26:29.625Z</time>
      </trkpt>
      <trkpt lat="41.04166" lon="19.76979">
        <ele>78.461849</ele>
        <time>2022-05-03T09:26:32.613Z</time>
      </trkpt>
      <trkpt lat="41.04164" lon="19.76962">
        <ele>78.540168</ele>
        <time>2022-05-03T09:26:35.629Z</time>
      </trkpt>
      <trkpt lat="41.04163" lon="19.76946">
        <ele>78.616026</ele>
        <time>2022-05-03T09:26:38.625Z</time>
      </trkpt>
      <trkpt lat="41.04162" lon="19.76929">
        <ele>78.693912</ele>
        <time>2022-05-03T09:26:41.624Z</time>
      </trkpt>
      <trkpt lat="41.04161" lon="19.76911">
        <ele>78.773881</ele>
        <time>2022-05-03T09:26:44.616Z</time>
      </trkpt>
      <trkpt lat="41.04159" lon="19.76894">
        <ele>78.850718</ele>
        <time>2022-05-03T09:26:47.622Z</time>
      </trkpt>
      <trkpt lat="41.04158" lon="19.76877">
        <ele>78.92959</ele>
        <time>2022-05-03T09:26:50.630Z</time>
      </trkpt>
      <trkpt lat="41.04157" lon="19.76865">
        <ele>78.985301</ele>
        <time>2022-05-03T09:26:52.626Z</time>
      </trkpt>
      <trkpt lat="41.04155" lon="19.76853">
        <ele>79.039175</ele>
        <time>2022-05-03T09:26:54.639Z</time>
      </trkpt>
      <trkpt lat="41.0415" lon="19.76836">
        <ele>79.120737</ele>
        <time>2022-05-03T09:26:57.643Z</time>
      </trkpt>
      <trkpt lat="41.04142" lon="19.76822">
        <ele>79.201002</ele>
        <time>2022-05-03T09:27:00.652Z</time>
      </trkpt>
      <trkpt lat="41.04136" lon="19.76814">
        <ele>79.254996</ele>
        <time>2022-05-03T09:27:02.615Z</time>
      </trkpt>
      <trkpt lat="41.04126" lon="19.76803">
        <ele>79.331861</ele>
        <time>2022-05-03T09:27:05.615Z</time>
      </trkpt>
      <trkpt lat="41.04116" lon="19.76794">
        <ele>79.399968</ele>
        <time>2022-05-03T09:27:08.623Z</time>
      </trkpt>
      <trkpt lat="41.04107" lon="19.76786">
        <ele>79.468793</ele>
        <time>2022-05-03T09:27:11.653Z</time>
      </trkpt>
      <trkpt lat="41.04098" lon="19.76776">
        <ele>79.538713</ele>
        <time>2022-05-03T09:27:14.614Z</time>
      </trkpt>
      <trkpt lat="41.04089" lon="19.76765">
        <ele>79.287835</ele>
        <time>2022-05-03T09:27:17.666Z</time>
      </trkpt>
      <trkpt lat="41.0408" lon="19.76752">
        <ele>79.002649</ele>
        <time>2022-05-03T09:27:20.622Z</time>
      </trkpt>
      <trkpt lat="41.04074" lon="19.76736">
        <ele>78.704059</ele>
        <time>2022-05-03T09:27:23.616Z</time>
      </trkpt>
      <trkpt lat="41.0407" lon="19.76724">
        <ele>78.49185</ele>
        <time>2022-05-03T09:27:25.603Z</time>
      </trkpt>
      <trkpt lat="41.04065" lon="19.76712">
        <ele>78.272518</ele>
        <time>2022-05-03T09:27:27.631Z</time>
      </trkpt>
      <trkpt lat="41.04061" lon="19.767">
        <ele>78.047104</ele>
        <time>2022-05-03T09:27:29.657Z</time>
      </trkpt>
      <trkpt lat="41.04058" lon="19.76687">
        <ele>77.810832</ele>
        <time>2022-05-03T09:27:31.600Z</time>
      </trkpt>
      <trkpt lat="41.04057" lon="19.76671">
        <ele>77.553072</ele>
        <time>2022-05-03T09:27:33.614Z</time>
      </trkpt>
      <trkpt lat="41.04058" lon="19.76656">
        <ele>77.2995</ele>
        <time>2022-05-03T09:27:35.612Z</time>
      </trkpt>
      <trkpt lat="41.04063" lon="19.76642">
        <ele>77.045557</ele>
        <time>2022-05-03T09:27:37.616Z</time>
      </trkpt>
      <trkpt lat="41.0407" lon="19.76629">
        <ele>76.775542</ele>
        <time>2022-05-03T09:27:39.609Z</time>
      </trkpt>
      <trkpt lat="41.04078" lon="19.76617">
        <ele>76.510913</ele>
        <time>2022-05-03T09:27:41.616Z</time>
      </trkpt>
      <trkpt lat="41.04084" lon="19.76606">
        <ele>76.276807</ele>
        <time>2022-05-03T09:27:43.611Z</time>
      </trkpt>
      <trkpt lat="41.04091" lon="19.76594">
        <ele>76.034827</ele>
        <time>2022-05-03T09:27:45.637Z</time>
      </trkpt>
      <trkpt lat="41.04098" lon="19.76582">
        <ele>75.77829</ele>
        <time>2022-05-03T09:27:47.622Z</time>
      </trkpt>
      <trkpt lat="41.04106" lon="19.76569">
        <ele>75.540689</ele>
        <time>2022-05-03T09:27:49.605Z</time>
      </trkpt>
      <trkpt lat="41.04114" lon="19.76555">
        <ele>75.402643</ele>
        <time>2022-05-03T09:27:51.651Z</time>
      </trkpt>
      <trkpt lat="41.04122" lon="19.76542">
        <ele>75.265021</ele>
        <time>2022-05-03T09:27:53.625Z</time>
      </trkpt>
      <trkpt lat="41.04131" lon="19.76529">
        <ele>75.129351</ele>
        <time>2022-05-03T09:27:55.604Z</time>
      </trkpt>
      <trkpt lat="41.0414" lon="19.76515">
        <ele>74.985235</ele>
        <time>2022-05-03T09:27:57.632Z</time>
      </trkpt>
      <trkpt lat="41.04148" lon="19.76499">
        <ele>74.838205</ele>
        <time>2022-05-03T09:27:59.623Z</time>
      </trkpt>
      <trkpt lat="41.04154" lon="19.76483">
        <ele>74.693544</ele>
        <time>2022-05-03T09:28:01.613Z</time>
      </trkpt>
      <trkpt lat="41.04161" lon="19.76466">
        <ele>74.543304</ele>
        <time>2022-05-03T09:28:03.616Z</time>
      </trkpt>
      <trkpt lat="41.04168" lon="19.76449">
        <ele>74.389075</ele>
        <time>2022-05-03T09:28:05.616Z</time>
      </trkpt>
      <trkpt lat="41.04174" lon="19.76432">
        <ele>74.235539</ele>
        <time>2022-05-03T09:28:07.611Z</time>
      </trkpt>
      <trkpt lat="41.0418" lon="19.76413">
        <ele>74.077591</ele>
        <time>2022-05-03T09:28:09.613Z</time>
      </trkpt>
      <trkpt lat="41.04186" lon="19.76397">
        <ele>73.932297</ele>
        <time>2022-05-03T09:28:11.620Z</time>
      </trkpt>
      <trkpt lat="41.04192" lon="19.76381">
        <ele>73.797511</ele>
        <time>2022-05-03T09:28:13.598Z</time>
      </trkpt>
      <trkpt lat="41.04198" lon="19.76366">
        <ele>73.772964</ele>
        <time>2022-05-03T09:28:15.625Z</time>
      </trkpt>
      <trkpt lat="41.04203" lon="19.76351">
        <ele>74.132884</ele>
        <time>2022-05-03T09:28:17.620Z</time>
      </trkpt>
      <trkpt lat="41.04208" lon="19.76336">
        <ele>74.470966</ele>
        <time>2022-05-03T09:28:19.668Z</time>
      </trkpt>
      <trkpt lat="41.04212" lon="19.76322">
        <ele>74.807081</ele>
        <time>2022-05-03T09:28:21.623Z</time>
      </trkpt>
      <trkpt lat="41.04217" lon="19.76309">
        <ele>75.118569</ele>
        <time>2022-05-03T09:28:23.625Z</time>
      </trkpt>
      <trkpt lat="41.04221" lon="19.76296">
        <ele>75.411707</ele>
        <time>2022-05-03T09:28:25.608Z</time>
      </trkpt>
      <trkpt lat="41.04225" lon="19.76284">
        <ele>75.694711</ele>
        <time>2022-05-03T09:28:27.632Z</time>
      </trkpt>
      <trkpt lat="41.04229" lon="19.76272">
        <ele>75.970437</ele>
        <time>2022-05-03T09:28:29.620Z</time>
      </trkpt>
      <trkpt lat="41.04233" lon="19.76261">
        <ele>76.226257</ele>
        <time>2022-05-03T09:28:31.625Z</time>
      </trkpt>
      <trkpt lat="41.04237" lon="19.76248">
        <ele>76.545543</ele>
        <time>2022-05-03T09:28:34.608Z</time>
      </trkpt>
      <trkpt lat="41.04242" lon="19.76235">
        <ele>76.850505</ele>
        <time>2022-05-03T09:28:37.616Z</time>
      </trkpt>
      <trkpt lat="41.04246" lon="19.76223">
        <ele>77.140916</ele>
        <time>2022-05-03T09:28:40.610Z</time>
      </trkpt>
      <trkpt lat="41.04251" lon="19.76209">
        <ele>77.457089</ele>
        <time>2022-05-03T09:28:44.610Z</time>
      </trkpt>
      <trkpt lat="41.04256" lon="19.76195">
        <ele>77.785045</ele>
        <time>2022-05-03T09:28:48.597Z</time>
      </trkpt>
      <trkpt lat="41.04261" lon="19.76182">
        <ele>78.112967</ele>
        <time>2022-05-03T09:28:52.608Z</time>
      </trkpt>
      <trkpt lat="41.04267" lon="19.76168">
        <ele>78.445425</ele>
        <time>2022-05-03T09:28:56.619Z</time>
      </trkpt>
      <trkpt lat="41.04274" lon="19.76157">
        <ele>78.765441</ele>
        <time>2022-05-03T09:29:00.612Z</time>
      </trkpt>
      <trkpt lat="41.0428" lon="19.76148">
        <ele>79.002519</ele>
        <time>2022-05-03T09:29:03.638Z</time>
      </trkpt>
      <trkpt lat="41.04289" lon="19.7614">
        <ele>79.277902</ele>
        <time>2022-05-03T09:29:07.605Z</time>
      </trkpt>
      <trkpt lat="41.04297" lon="19.76133">
        <ele>79.532508</ele>
        <time>2022-05-03T09:29:11.611Z</time>
      </trkpt>
      <trkpt lat="41.04306" lon="19.76126">
        <ele>79.809953</ele>
        <time>2022-05-03T09:29:15.647Z</time>
      </trkpt>
      <trkpt lat="41.04316" lon="19.7612">
        <ele>80.075932</ele>
        <time>2022-05-03T09:29:19.631Z</time>
      </trkpt>
      <trkpt lat="41.04325" lon="19.76115">
        <ele>80.351081</ele>
        <time>2022-05-03T09:29:24.605Z</time>
      </trkpt>
      <trkpt lat="41.04334" lon="19.7611">
        <ele>80.59628</ele>
        <time>2022-05-03T09:29:29.632Z</time>
      </trkpt>
      <trkpt lat="41.04343" lon="19.76106">
        <ele>80.835667</ele>
        <time>2022-05-03T09:29:34.612Z</time>
      </trkpt>
      <trkpt lat="41.04353" lon="19.76101">
        <ele>81.113508</ele>
        <time>2022-05-03T09:29:39.615Z</time>
      </trkpt>
      <trkpt lat="41.04362" lon="19.76098">
        <ele>81.362803</ele>
        <time>2022-05-03T09:29:43.654Z</time>
      </trkpt>
      <trkpt lat="41.04373" lon="19.76093">
        <ele>81.657315</ele>
        <time>2022-05-03T09:29:48.617Z</time>
      </trkpt>
      <trkpt lat="41.04381" lon="19.76087">
        <ele>81.904944</ele>
        <time>2022-05-03T09:29:52.625Z</time>
      </trkpt>
      <trkpt lat="41.0439" lon="19.76079">
        <ele>82.184564</ele>
        <time>2022-05-03T09:29:57.618Z</time>
      </trkpt>
      <trkpt lat="41.04398" lon="19.7607">
        <ele>82.459303</ele>
        <time>2022-05-03T09:30:02.610Z</time>
      </trkpt>
      <trkpt lat="41.04405" lon="19.7606">
        <ele>82.7179</ele>
        <time>2022-05-03T09:30:06.625Z</time>
      </trkpt>
      <trkpt lat="41.04412" lon="19.76051">
        <ele>82.976497</ele>
        <time>2022-05-03T09:30:11.649Z</time>
      </trkpt>
      <trkpt lat="41.04418" lon="19.76039">
        <ele>83.253664</ele>
        <time>2022-05-03T09:30:16.620Z</time>
      </trkpt>
      <trkpt lat="41.04424" lon="19.76029">
        <ele>83.49028</ele>
        <time>2022-05-03T09:30:20.632Z</time>
      </trkpt>
      <trkpt lat="41.04429" lon="19.76018">
        <ele>83.608374</ele>
        <time>2022-05-03T09:30:24.624Z</time>
      </trkpt>
      <trkpt lat="41.04434" lon="19.76007">
        <ele>83.724948</ele>
        <time>2022-05-03T09:30:28.660Z</time>
      </trkpt>
      <trkpt lat="41.04439" lon="19.75996">
        <ele>83.843908</ele>
        <time>2022-05-03T09:30:32.638Z</time>
      </trkpt>
      <trkpt lat="41.04445" lon="19.75984">
        <ele>83.972711</ele>
        <time>2022-05-03T09:30:36.624Z</time>
      </trkpt>
      <trkpt lat="41.0445" lon="19.75973">
        <ele>84.090685</ele>
        <time>2022-05-03T09:30:40.627Z</time>
      </trkpt>
      <trkpt lat="41.04455" lon="19.7596">
        <ele>84.226016</ele>
        <time>2022-05-03T09:30:45.619Z</time>
      </trkpt>
      <trkpt lat="41.0446" lon="19.75948">
        <ele>84.350045</ele>
        <time>2022-05-03T09:30:49.616Z</time>
      </trkpt>
      <trkpt lat="41.04465" lon="19.75936">
        <ele>84.479265</ele>
        <time>2022-05-03T09:30:53.654Z</time>
      </trkpt>
      <trkpt lat="41.0447" lon="19.75922">
        <ele>84.624058</ele>
        <time>2022-05-03T09:30:57.605Z</time>
      </trkpt>
      <trkpt lat="41.04474" lon="19.7591">
        <ele>84.746237</ele>
        <time>2022-05-03T09:31:00.617Z</time>
      </trkpt>
      <trkpt lat="41.04479" lon="19.75894">
        <ele>84.899439</ele>
        <time>2022-05-03T09:31:03.620Z</time>
      </trkpt>
      <trkpt lat="41.0448" lon="19.75882">
        <ele>85.01414</ele>
        <time>2022-05-03T09:31:05.613Z</time>
      </trkpt>
      <trkpt lat="41.04482" lon="19.75867">
        <ele>85.153689</ele>
        <time>2022-05-03T09:31:07.657Z</time>
      </trkpt>
      <trkpt lat="41.04483" lon="19.7585">
        <ele>85.306772</ele>
        <time>2022-05-03T09:31:09.619Z</time>
      </trkpt>
      <trkpt lat="41.04486" lon="19.75834">
        <ele>85.452162</ele>
        <time>2022-05-03T09:31:11.626Z</time>
      </trkpt>
      <trkpt lat="41.04491" lon="19.75817">
        <ele>85.619533</ele>
        <time>2022-05-03T09:31:13.636Z</time>
      </trkpt>
      <trkpt lat="41.04497" lon="19.75801">
        <ele>85.467049</ele>
        <time>2022-05-03T09:31:15.631Z</time>
      </trkpt>
      <trkpt lat="41.04504" lon="19.75785">
        <ele>85.209312</ele>
        <time>2022-05-03T09:31:17.616Z</time>
      </trkpt>
      <trkpt lat="41.04511" lon="19.75769">
        <ele>84.940047</ele>
        <time>2022-05-03T09:31:19.619Z</time>
      </trkpt>
      <trkpt lat="41.04518" lon="19.75754">
        <ele>84.682001</ele>
        <time>2022-05-03T09:31:21.622Z</time>
      </trkpt>
      <trkpt lat="41.04526" lon="19.75737">
        <ele>84.404903</ele>
        <time>2022-05-03T09:31:23.616Z</time>
      </trkpt>
      <trkpt lat="41.04534" lon="19.7572">
        <ele>84.118733</ele>
        <time>2022-05-03T09:31:25.618Z</time>
      </trkpt>
      <trkpt lat="41.04542" lon="19.75703">
        <ele>83.832175</ele>
        <time>2022-05-03T09:31:27.615Z</time>
      </trkpt>
      <trkpt lat="41.04549" lon="19.75686">
        <ele>83.543946</ele>
        <time>2022-05-03T09:31:29.675Z</time>
      </trkpt>
      <trkpt lat="41.04558" lon="19.75669">
        <ele>83.258744</ele>
        <time>2022-05-03T09:31:31.612Z</time>
      </trkpt>
      <trkpt lat="41.04566" lon="19.75653">
        <ele>82.979362</ele>
        <time>2022-05-03T09:31:33.623Z</time>
      </trkpt>
      <trkpt lat="41.04574" lon="19.75637">
        <ele>82.70191</ele>
        <time>2022-05-03T09:31:35.599Z</time>
      </trkpt>
      <trkpt lat="41.04581" lon="19.7562">
        <ele>82.421119</ele>
        <time>2022-05-03T09:31:37.602Z</time>
      </trkpt>
      <trkpt lat="41.04587" lon="19.75603">
        <ele>82.612389</ele>
        <time>2022-05-03T09:31:39.604Z</time>
      </trkpt>
      <trkpt lat="41.04592" lon="19.75586">
        <ele>83.587225</ele>
        <time>2022-05-03T09:31:41.616Z</time>
      </trkpt>
      <trkpt lat="41.04597" lon="19.7557">
        <ele>84.491356</ele>
        <time>2022-05-03T09:31:43.657Z</time>
      </trkpt>
      <trkpt lat="41.04601" lon="19.75557">
        <ele>85.270326</ele>
        <time>2022-05-03T09:31:45.622Z</time>
      </trkpt>
      <trkpt lat="41.04605" lon="19.75544">
        <ele>86.006421</ele>
        <time>2022-05-03T09:31:47.619Z</time>
      </trkpt>
      <trkpt lat="41.0461" lon="19.75528">
        <ele>86.93674</ele>
        <time>2022-05-03T09:31:50.617Z</time>
      </trkpt>
      <trkpt lat="41.04613" lon="19.75515">
        <ele>87.688339</ele>
        <time>2022-05-03T09:31:54.613Z</time>
      </trkpt>
      <trkpt lat="41.04616" lon="19.75502">
        <ele>88.392504</ele>
        <time>2022-05-03T09:31:59.619Z</time>
      </trkpt>
      <trkpt lat="41.04618" lon="19.7549">
        <ele>89.092799</ele>
        <time>2022-05-03T09:32:05.616Z</time>
      </trkpt>
      <trkpt lat="41.04621" lon="19.75477">
        <ele>89.779462</ele>
        <time>2022-05-03T09:32:11.618Z</time>
      </trkpt>
      <trkpt lat="41.04623" lon="19.75463">
        <ele>90.558917</ele>
        <time>2022-05-03T09:32:17.620Z</time>
      </trkpt>
      <trkpt lat="41.04622" lon="19.7545">
        <ele>91.290222</ele>
        <time>2022-05-03T09:32:25.647Z</time>
      </trkpt>
      <trkpt lat="41.04622" lon="19.75436">
        <ele>92.011793</ele>
        <time>2022-05-03T09:32:32.625Z</time>
      </trkpt>
      <trkpt lat="41.0462" lon="19.75424">
        <ele>92.685772</ele>
        <time>2022-05-03T09:32:37.617Z</time>
      </trkpt>
      <trkpt lat="41.04619" lon="19.75411">
        <ele>93.369335</ele>
        <time>2022-05-03T09:32:43.624Z</time>
      </trkpt>
      <trkpt lat="41.04618" lon="19.75399">
        <ele>94.020114</ele>
        <time>2022-05-03T09:32:49.638Z</time>
      </trkpt>
      <trkpt lat="41.04616" lon="19.75386">
        <ele>94.713793</ele>
        <time>2022-05-03T09:32:54.617Z</time>
      </trkpt>
      <trkpt lat="41.04614" lon="19.75372">
        <ele>95.34406</ele>
        <time>2022-05-03T09:32:59.656Z</time>
      </trkpt>
      <trkpt lat="41.04613" lon="19.75358">
        <ele>95.821763</ele>
        <time>2022-05-03T09:33:04.614Z</time>
      </trkpt>
      <trkpt lat="41.04611" lon="19.75344">
        <ele>96.321869</ele>
        <time>2022-05-03T09:33:09.641Z</time>
      </trkpt>
      <trkpt lat="41.0461" lon="19.7533">
        <ele>96.783317</ele>
        <time>2022-05-03T09:33:13.616Z</time>
      </trkpt>
      <trkpt lat="41.04608" lon="19.75317">
        <ele>97.231237</ele>
        <time>2022-05-03T09:33:17.620Z</time>
      </trkpt>
      <trkpt lat="41.04607" lon="19.75303">
        <ele>97.708261</ele>
        <time>2022-05-03T09:33:22.617Z</time>
      </trkpt>
      <trkpt lat="41.04605" lon="19.75289">
        <ele>98.21414</ele>
        <time>2022-05-03T09:33:27.631Z</time>
      </trkpt>
      <trkpt lat="41.04604" lon="19.75276">
        <ele>98.664731</ele>
        <time>2022-05-03T09:33:31.614Z</time>
      </trkpt>
      <trkpt lat="41.04601" lon="19.75262">
        <ele>99.15208</ele>
        <time>2022-05-03T09:33:35.625Z</time>
      </trkpt>
      <trkpt lat="41.04598" lon="19.75251">
        <ele>99.57237</ele>
        <time>2022-05-03T09:33:39.595Z</time>
      </trkpt>
      <trkpt lat="41.04595" lon="19.75238">
        <ele>100.038164</ele>
        <time>2022-05-03T09:33:43.613Z</time>
      </trkpt>
      <trkpt lat="41.04591" lon="19.75226">
        <ele>100.476005</ele>
        <time>2022-05-03T09:33:47.613Z</time>
      </trkpt>
      <trkpt lat="41.0459" lon="19.75213">
        <ele>100.92871</ele>
        <time>2022-05-03T09:33:52.615Z</time>
      </trkpt>
      <trkpt lat="41.04589" lon="19.75199">
        <ele>101.40757</ele>
        <time>2022-05-03T09:33:57.631Z</time>
      </trkpt>
      <trkpt lat="41.04584" lon="19.75189">
        <ele>101.820747</ele>
        <time>2022-05-03T09:34:02.615Z</time>
      </trkpt>
      <trkpt lat="41.04573" lon="19.75142">
        <ele>103.343514</ele>
        <time>2022-05-03T10:04:35.639Z</time>
      </trkpt>
      <trkpt lat="41.0457" lon="19.75128">
        <ele>103.566755</ele>
        <time>2022-05-03T10:04:39.625Z</time>
      </trkpt>
      <trkpt lat="41.04571" lon="19.75115">
        <ele>103.761178</ele>
        <time>2022-05-03T10:04:44.655Z</time>
      </trkpt>
      <trkpt lat="41.0457" lon="19.75101">
        <ele>103.968973</ele>
        <time>2022-05-03T10:04:50.628Z</time>
      </trkpt>
      <trkpt lat="41.04571" lon="19.75088">
        <ele>104.161781</ele>
        <time>2022-05-03T10:04:57.621Z</time>
      </trkpt>
      <trkpt lat="41.04575" lon="19.75076">
        <ele>104.353666</ele>
        <time>2022-05-03T10:05:01.627Z</time>
      </trkpt>
      <trkpt lat="41.04576" lon="19.7506">
        <ele>104.601921</ele>
        <time>2022-05-03T10:05:05.652Z</time>
      </trkpt>
      <trkpt lat="41.04577" lon="19.75044">
        <ele>104.841623</ele>
        <time>2022-05-03T10:05:08.623Z</time>
      </trkpt>
      <trkpt lat="41.04578" lon="19.75027">
        <ele>105.093791</ele>
        <time>2022-05-03T10:05:11.607Z</time>
      </trkpt>
      <trkpt lat="41.04583" lon="19.75011">
        <ele>105.35246</ele>
        <time>2022-05-03T10:05:14.632Z</time>
      </trkpt>
      <trkpt lat="41.04586" lon="19.74999">
        <ele>105.533658</ele>
        <time>2022-05-03T10:05:16.662Z</time>
      </trkpt>
      <trkpt lat="41.0459" lon="19.74983">
        <ele>105.786961</ele>
        <time>2022-05-03T10:05:19.636Z</time>
      </trkpt>
      <trkpt lat="41.04593" lon="19.74972">
        <ele>105.97572</ele>
        <time>2022-05-03T10:05:21.626Z</time>
      </trkpt>
      <trkpt lat="41.04597" lon="19.74959">
        <ele>106.178509</ele>
        <time>2022-05-03T10:05:23.620Z</time>
      </trkpt>
      <trkpt lat="41.046" lon="19.74946">
        <ele>106.379099</ele>
        <time>2022-05-03T10:05:25.621Z</time>
      </trkpt>
      <trkpt lat="41.04603" lon="19.74933">
        <ele>106.575728</ele>
        <time>2022-05-03T10:05:27.650Z</time>
      </trkpt>
      <trkpt lat="41.04605" lon="19.7492">
        <ele>106.78495</ele>
        <time>2022-05-03T10:05:29.616Z</time>
      </trkpt>
      <trkpt lat="41.04608" lon="19.74906">
        <ele>105.401328</ele>
        <time>2022-05-03T10:05:31.615Z</time>
      </trkpt>
      <trkpt lat="41.04611" lon="19.74892">
        <ele>103.896987</ele>
        <time>2022-05-03T10:05:33.662Z</time>
      </trkpt>
      <trkpt lat="41.04614" lon="19.74877">
        <ele>102.409295</ele>
        <time>2022-05-03T10:05:35.628Z</time>
      </trkpt>
      <trkpt lat="41.04619" lon="19.74863">
        <ele>100.84876</ele>
        <time>2022-05-03T10:05:37.613Z</time>
      </trkpt>
      <trkpt lat="41.04625" lon="19.74848">
        <ele>99.155308</ele>
        <time>2022-05-03T10:05:39.649Z</time>
      </trkpt>
      <trkpt lat="41.04629" lon="19.74833">
        <ele>97.584005</ele>
        <time>2022-05-03T10:05:41.623Z</time>
      </trkpt>
      <trkpt lat="41.04632" lon="19.74821">
        <ele>96.293516</ele>
        <time>2022-05-03T10:05:43.632Z</time>
      </trkpt>
      <trkpt lat="41.04638" lon="19.74807">
        <ele>94.765797</ele>
        <time>2022-05-03T10:05:46.619Z</time>
      </trkpt>
      <trkpt lat="41.04643" lon="19.74795">
        <ele>93.437941</ele>
        <time>2022-05-03T10:05:49.611Z</time>
      </trkpt>
      <trkpt lat="41.04647" lon="19.74779">
        <ele>91.729433</ele>
        <time>2022-05-03T10:05:52.640Z</time>
      </trkpt>
      <trkpt lat="41.04653" lon="19.74764">
        <ele>90.030384</ele>
        <time>2022-05-03T10:05:55.611Z</time>
      </trkpt>
      <trkpt lat="41.0466" lon="19.74751">
        <ele>88.484454</ele>
        <time>2022-05-03T10:05:58.626Z</time>
      </trkpt>
      <trkpt lat="41.04666" lon="19.74739">
        <ele>87.071448</ele>
        <time>2022-05-03T10:06:01.644Z</time>
      </trkpt>
      <trkpt lat="41.04672" lon="19.74724">
        <ele>85.352845</ele>
        <time>2022-05-03T10:06:04.623Z</time>
      </trkpt>
      <trkpt lat="41.04677" lon="19.74711">
        <ele>83.898916</ele>
        <time>2022-05-03T10:06:07.654Z</time>
      </trkpt>
      <trkpt lat="41.04681" lon="19.74698">
        <ele>82.851354</ele>
        <time>2022-05-03T10:06:10.623Z</time>
      </trkpt>
      <trkpt lat="41.04684" lon="19.74684">
        <ele>82.207143</ele>
        <time>2022-05-03T10:06:13.615Z</time>
      </trkpt>
      <trkpt lat="41.04686" lon="19.74668">
        <ele>81.518315</ele>
        <time>2022-05-03T10:06:16.624Z</time>
      </trkpt>
      <trkpt lat="41.0469" lon="19.74651">
        <ele>80.747654</ele>
        <time>2022-05-03T10:06:19.611Z</time>
      </trkpt>
      <trkpt lat="41.04691" lon="19.74637">
        <ele>80.152233</ele>
        <time>2022-05-03T10:06:21.617Z</time>
      </trkpt>
      <trkpt lat="41.04693" lon="19.74622">
        <ele>79.476235</ele>
        <time>2022-05-03T10:06:23.674Z</time>
      </trkpt>
      <trkpt lat="41.04695" lon="19.74606">
        <ele>78.772694</ele>
        <time>2022-05-03T10:06:25.627Z</time>
      </trkpt>
      <trkpt lat="41.04697" lon="19.74592">
        <ele>78.178078</ele>
        <time>2022-05-03T10:06:27.613Z</time>
      </trkpt>
      <trkpt lat="41.047" lon="19.74575">
        <ele>77.418805</ele>
        <time>2022-05-03T10:06:30.623Z</time>
      </trkpt>
      <trkpt lat="41.04701" lon="19.74563">
        <ele>76.86708</ele>
        <time>2022-05-03T10:06:32.620Z</time>
      </trkpt>
      <trkpt lat="41.04703" lon="19.7455">
        <ele>76.318936</ele>
        <time>2022-05-03T10:06:34.663Z</time>
      </trkpt>
      <trkpt lat="41.04705" lon="19.74537">
        <ele>75.710924</ele>
        <time>2022-05-03T10:06:36.608Z</time>
      </trkpt>
      <trkpt lat="41.04708" lon="19.74524">
        <ele>75.152151</ele>
        <time>2022-05-03T10:06:38.617Z</time>
      </trkpt>
      <trkpt lat="41.04709" lon="19.7451">
        <ele>74.528378</ele>
        <time>2022-05-03T10:06:41.609Z</time>
      </trkpt>
      <trkpt lat="41.04711" lon="19.74495">
        <ele>73.856656</ele>
        <time>2022-05-03T10:06:44.609Z</time>
      </trkpt>
      <trkpt lat="41.04714" lon="19.74482">
        <ele>73.269376</ele>
        <time>2022-05-03T10:06:48.603Z</time>
      </trkpt>
      <trkpt lat="41.04713" lon="19.74466">
        <ele>72.808798</ele>
        <time>2022-05-03T10:06:53.632Z</time>
      </trkpt>
      <trkpt lat="41.04713" lon="19.74452">
        <ele>72.860575</ele>
        <time>2022-05-03T10:06:56.650Z</time>
      </trkpt>
      <trkpt lat="41.04713" lon="19.7444">
        <ele>72.909687</ele>
        <time>2022-05-03T10:06:59.614Z</time>
      </trkpt>
      <trkpt lat="41.04713" lon="19.74427">
        <ele>72.956156</ele>
        <time>2022-05-03T10:07:02.659Z</time>
      </trkpt>
      <trkpt lat="41.04713" lon="19.74415">
        <ele>73.002669</ele>
        <time>2022-05-03T10:07:05.600Z</time>
      </trkpt>
      <trkpt lat="41.04711" lon="19.744">
        <ele>73.062419</ele>
        <time>2022-05-03T10:07:09.624Z</time>
      </trkpt>
      <trkpt lat="41.0471" lon="19.74385">
        <ele>73.117519</ele>
        <time>2022-05-03T10:07:12.627Z</time>
      </trkpt>
      <trkpt lat="41.04709" lon="19.74369">
        <ele>73.178304</ele>
        <time>2022-05-03T10:07:15.620Z</time>
      </trkpt>
      <trkpt lat="41.04708" lon="19.74353">
        <ele>73.239317</ele>
        <time>2022-05-03T10:07:18.624Z</time>
      </trkpt>
      <trkpt lat="41.04708" lon="19.74337">
        <ele>73.300742</ele>
        <time>2022-05-03T10:07:21.611Z</time>
      </trkpt>
      <trkpt lat="41.04707" lon="19.74321">
        <ele>73.360968</ele>
        <time>2022-05-03T10:07:24.667Z</time>
      </trkpt>
      <trkpt lat="41.04707" lon="19.74306">
        <ele>73.417727</ele>
        <time>2022-05-03T10:07:27.623Z</time>
      </trkpt>
      <trkpt lat="41.04707" lon="19.74291">
        <ele>73.477505</ele>
        <time>2022-05-03T10:07:30.618Z</time>
      </trkpt>
      <trkpt lat="41.04707" lon="19.74274">
        <ele>73.539938</ele>
        <time>2022-05-03T10:07:33.624Z</time>
      </trkpt>
      <trkpt lat="41.04707" lon="19.74258">
        <ele>73.603516</ele>
        <time>2022-05-03T10:07:36.614Z</time>
      </trkpt>
      <trkpt lat="41.04706" lon="19.7424">
        <ele>73.670207</ele>
        <time>2022-05-03T10:07:39.619Z</time>
      </trkpt>
      <trkpt lat="41.04706" lon="19.74224">
        <ele>73.556482</ele>
        <time>2022-05-03T10:07:42.616Z</time>
      </trkpt>
      <trkpt lat="41.0471" lon="19.74212">
        <ele>73.334612</ele>
        <time>2022-05-03T10:07:45.613Z</time>
      </trkpt>
      <trkpt lat="41.04714" lon="19.74198">
        <ele>73.093952</ele>
        <time>2022-05-03T10:07:48.651Z</time>
      </trkpt>
      <trkpt lat="41.0472" lon="19.74183">
        <ele>72.81137</ele>
        <time>2022-05-03T10:07:51.621Z</time>
      </trkpt>
      <trkpt lat="41.04725" lon="19.74169">
        <ele>72.535907</ele>
        <time>2022-05-03T10:07:54.617Z</time>
      </trkpt>
      <trkpt lat="41.0473" lon="19.74156">
        <ele>72.294389</ele>
        <time>2022-05-03T10:07:57.619Z</time>
      </trkpt>
      <trkpt lat="41.04736" lon="19.74143">
        <ele>72.039509</ele>
        <time>2022-05-03T10:08:00.624Z</time>
      </trkpt>
      <trkpt lat="41.04742" lon="19.74129">
        <ele>71.772947</ele>
        <time>2022-05-03T10:08:03.646Z</time>
      </trkpt>
      <trkpt lat="41.04748" lon="19.74114">
        <ele>71.500004</ele>
        <time>2022-05-03T10:08:06.631Z</time>
      </trkpt>
      <trkpt lat="41.04751" lon="19.74099">
        <ele>71.232399</ele>
        <time>2022-05-03T10:08:09.652Z</time>
      </trkpt>
      <trkpt lat="41.04754" lon="19.74085">
        <ele>70.981062</ele>
        <time>2022-05-03T10:08:12.596Z</time>
      </trkpt>
      <trkpt lat="41.04758" lon="19.74071">
        <ele>70.738065</ele>
        <time>2022-05-03T10:08:15.623Z</time>
      </trkpt>
      <trkpt lat="41.04761" lon="19.74057">
        <ele>70.485552</ele>
        <time>2022-05-03T10:08:18.625Z</time>
      </trkpt>
      <trkpt lat="41.04765" lon="19.74041">
        <ele>70.209014</ele>
        <time>2022-05-03T10:08:21.618Z</time>
      </trkpt>
      <trkpt lat="41.04767" lon="19.74024">
        <ele>69.922534</ele>
        <time>2022-05-03T10:08:24.622Z</time>
      </trkpt>
      <trkpt lat="41.04767" lon="19.74008">
        <ele>69.700695</ele>
        <time>2022-05-03T10:08:27.612Z</time>
      </trkpt>
      <trkpt lat="41.04771" lon="19.73996">
        <ele>69.687888</ele>
        <time>2022-05-03T10:08:30.612Z</time>
      </trkpt>
      <trkpt lat="41.04774" lon="19.73984">
        <ele>69.675569</ele>
        <time>2022-05-03T10:08:33.626Z</time>
      </trkpt>
      <trkpt lat="41.04776" lon="19.7397">
        <ele>69.661373</ele>
        <time>2022-05-03T10:08:36.615Z</time>
      </trkpt>
      <trkpt lat="41.04779" lon="19.73953">
        <ele>69.644776</ele>
        <time>2022-05-03T10:08:39.613Z</time>
      </trkpt>
      <trkpt lat="41.04781" lon="19.73936">
        <ele>69.628476</ele>
        <time>2022-05-03T10:08:42.612Z</time>
      </trkpt>
      <trkpt lat="41.04782" lon="19.7392">
        <ele>69.611901</ele>
        <time>2022-05-03T10:08:45.623Z</time>
      </trkpt>
      <trkpt lat="41.04784" lon="19.73903">
        <ele>69.595389</ele>
        <time>2022-05-03T10:08:48.656Z</time>
      </trkpt>
      <trkpt lat="41.04786" lon="19.73885">
        <ele>69.577937</ele>
        <time>2022-05-03T10:08:51.614Z</time>
      </trkpt>
      <trkpt lat="41.04788" lon="19.73872">
        <ele>69.565039</ele>
        <time>2022-05-03T10:08:53.616Z</time>
      </trkpt>
      <trkpt lat="41.0479" lon="19.7386">
        <ele>69.552498</ele>
        <time>2022-05-03T10:08:55.607Z</time>
      </trkpt>
      <trkpt lat="41.04792" lon="19.73846">
        <ele>69.539384</ele>
        <time>2022-05-03T10:08:57.627Z</time>
      </trkpt>
      <trkpt lat="41.04794" lon="19.73833">
        <ele>69.526104</ele>
        <time>2022-05-03T10:08:59.638Z</time>
      </trkpt>
      <trkpt lat="41.04796" lon="19.7382">
        <ele>69.513178</ele>
        <time>2022-05-03T10:09:01.615Z</time>
      </trkpt>
      <trkpt lat="41.04798" lon="19.73807">
        <ele>69.500662</ele>
        <time>2022-05-03T10:09:03.619Z</time>
      </trkpt>
      <trkpt lat="41.048" lon="19.73795">
        <ele>69.488065</ele>
        <time>2022-05-03T10:09:05.650Z</time>
      </trkpt>
      <trkpt lat="41.04802" lon="19.73782">
        <ele>69.475932</ele>
        <time>2022-05-03T10:09:07.613Z</time>
      </trkpt>
      <trkpt lat="41.04804" lon="19.73771">
        <ele>69.526163</ele>
        <time>2022-05-03T10:09:09.622Z</time>
      </trkpt>
      <trkpt lat="41.04807" lon="19.73755">
        <ele>69.645504</ele>
        <time>2022-05-03T10:09:12.617Z</time>
      </trkpt>
      <trkpt lat="41.0481" lon="19.73741">
        <ele>69.756312</ele>
        <time>2022-05-03T10:09:15.630Z</time>
      </trkpt>
      <trkpt lat="41.04813" lon="19.73726">
        <ele>69.872876</ele>
        <time>2022-05-03T10:09:18.617Z</time>
      </trkpt>
      <trkpt lat="41.04818" lon="19.7371">
        <ele>69.997743</ele>
        <time>2022-05-03T10:09:21.651Z</time>
      </trkpt>
      <trkpt lat="41.04822" lon="19.73698">
        <ele>70.096491</ele>
        <time>2022-05-03T10:09:23.625Z</time>
      </trkpt>
      <trkpt lat="41.04826" lon="19.73686">
        <ele>70.198731</ele>
        <time>2022-05-03T10:09:25.619Z</time>
      </trkpt>
      <trkpt lat="41.04831" lon="19.73674">
        <ele>70.303287</ele>
        <time>2022-05-03T10:09:27.618Z</time>
      </trkpt>
      <trkpt lat="41.04836" lon="19.73662">
        <ele>70.406233</ele>
        <time>2022-05-03T10:09:29.623Z</time>
      </trkpt>
      <trkpt lat="41.04841" lon="19.73651">
        <ele>70.503146</ele>
        <time>2022-05-03T10:09:31.614Z</time>
      </trkpt>
      <trkpt lat="41.04847" lon="19.7364">
        <ele>70.59779</ele>
        <time>2022-05-03T10:09:33.614Z</time>
      </trkpt>
      <trkpt lat="41.04852" lon="19.7363">
        <ele>70.69117</ele>
        <time>2022-05-03T10:09:35.623Z</time>
      </trkpt>
      <trkpt lat="41.04858" lon="19.73621">
        <ele>70.780339</ele>
        <time>2022-05-03T10:09:37.622Z</time>
      </trkpt>
      <trkpt lat="41.04865" lon="19.73607">
        <ele>70.904246</ele>
        <time>2022-05-03T10:09:40.632Z</time>
      </trkpt>
      <trkpt lat="41.04873" lon="19.73596">
        <ele>71.02318</ele>
        <time>2022-05-03T10:09:43.623Z</time>
      </trkpt>
      <trkpt lat="41.04881" lon="19.73583">
        <ele>71.146531</ele>
        <time>2022-05-03T10:09:46.617Z</time>
      </trkpt>
      <trkpt lat="41.04889" lon="19.7357">
        <ele>71.274356</ele>
        <time>2022-05-03T10:09:49.613Z</time>
      </trkpt>
      <trkpt lat="41.04897" lon="19.73557">
        <ele>71.401448</ele>
        <time>2022-05-03T10:09:52.615Z</time>
      </trkpt>
      <trkpt lat="41.04905" lon="19.73545">
        <ele>71.524618</ele>
        <time>2022-05-03T10:09:55.619Z</time>
      </trkpt>
      <trkpt lat="41.04912" lon="19.73533">
        <ele>71.64396</ele>
        <time>2022-05-03T10:09:58.639Z</time>
      </trkpt>
      <trkpt lat="41.04919" lon="19.73522">
        <ele>71.755861</ele>
        <time>2022-05-03T10:10:01.634Z</time>
      </trkpt>
      <trkpt lat="41.04926" lon="19.73512">
        <ele>71.85487</ele>
        <time>2022-05-03T10:10:04.627Z</time>
      </trkpt>
      <trkpt lat="41.04932" lon="19.73499">
        <ele>71.972157</ele>
        <time>2022-05-03T10:10:08.608Z</time>
      </trkpt>
      <trkpt lat="41.04938" lon="19.73487">
        <ele>72.077197</ele>
        <time>2022-05-03T10:10:12.618Z</time>
      </trkpt>
      <trkpt lat="41.04943" lon="19.73473">
        <ele>72.199286</ele>
        <time>2022-05-03T10:10:16.624Z</time>
      </trkpt>
      <trkpt lat="41.04949" lon="19.7346">
        <ele>72.313633</ele>
        <time>2022-05-03T10:10:19.625Z</time>
      </trkpt>
      <trkpt lat="41.04955" lon="19.73445">
        <ele>72.448438</ele>
        <time>2022-05-03T10:10:22.624Z</time>
      </trkpt>
      <trkpt lat="41.0496" lon="19.73434">
        <ele>72.545131</ele>
        <time>2022-05-03T10:10:24.625Z</time>
      </trkpt>
      <trkpt lat="41.04965" lon="19.73422">
        <ele>72.645168</ele>
        <time>2022-05-03T10:10:26.611Z</time>
      </trkpt>
      <trkpt lat="41.0497" lon="19.73411">
        <ele>72.745693</ele>
        <time>2022-05-03T10:10:28.616Z</time>
      </trkpt>
      <trkpt lat="41.04974" lon="19.734">
        <ele>72.842276</ele>
        <time>2022-05-03T10:10:30.640Z</time>
      </trkpt>
      <trkpt lat="41.04978" lon="19.73388">
        <ele>72.938438</ele>
        <time>2022-05-03T10:10:32.624Z</time>
      </trkpt>
      <trkpt lat="41.04982" lon="19.73377">
        <ele>73.033667</ele>
        <time>2022-05-03T10:10:34.626Z</time>
      </trkpt>
      <trkpt lat="41.04986" lon="19.73361">
        <ele>73.053529</ele>
        <time>2022-05-03T10:10:37.603Z</time>
      </trkpt>
      <trkpt lat="41.04991" lon="19.73347">
        <ele>73.012126</ele>
        <time>2022-05-03T10:10:40.622Z</time>
      </trkpt>
      <trkpt lat="41.04997" lon="19.73335">
        <ele>72.97213</ele>
        <time>2022-05-03T10:10:43.617Z</time>
      </trkpt>
      <trkpt lat="41.05002" lon="19.7332">
        <ele>72.927437</ele>
        <time>2022-05-03T10:10:46.611Z</time>
      </trkpt>
      <trkpt lat="41.05008" lon="19.73305">
        <ele>72.878044</ele>
        <time>2022-05-03T10:10:49.618Z</time>
      </trkpt>
      <trkpt lat="41.05013" lon="19.73294">
        <ele>72.844628</ele>
        <time>2022-05-03T10:10:51.616Z</time>
      </trkpt>
      <trkpt lat="41.05016" lon="19.73283">
        <ele>72.811036</ele>
        <time>2022-05-03T10:10:53.624Z</time>
      </trkpt>
      <trkpt lat="41.05023" lon="19.73268">
        <ele>72.763166</ele>
        <time>2022-05-03T10:10:56.628Z</time>
      </trkpt>
      <trkpt lat="41.05027" lon="19.73253">
        <ele>72.719833</ele>
        <time>2022-05-03T10:10:59.627Z</time>
      </trkpt>
      <trkpt lat="41.05031" lon="19.73238">
        <ele>72.675588</ele>
        <time>2022-05-03T10:11:02.628Z</time>
      </trkpt>
      <trkpt lat="41.05033" lon="19.7322">
        <ele>72.626636</ele>
        <time>2022-05-03T10:11:05.619Z</time>
      </trkpt>
      <trkpt lat="41.05034" lon="19.73208">
        <ele>72.591581</ele>
        <time>2022-05-03T10:11:07.614Z</time>
      </trkpt>
      <trkpt lat="41.05037" lon="19.73191">
        <ele>72.543569</ele>
        <time>2022-05-03T10:11:10.624Z</time>
      </trkpt>
      <trkpt lat="41.05039" lon="19.73174">
        <ele>72.495021</ele>
        <time>2022-05-03T10:11:13.627Z</time>
      </trkpt>
      <trkpt lat="41.05041" lon="19.73156">
        <ele>72.446263</ele>
        <time>2022-05-03T10:11:16.620Z</time>
      </trkpt>
      <trkpt lat="41.05043" lon="19.73144">
        <ele>72.414878</ele>
        <time>2022-05-03T10:11:18.611Z</time>
      </trkpt>
      <trkpt lat="41.05046" lon="19.73133">
        <ele>72.387104</ele>
        <time>2022-05-03T10:11:20.630Z</time>
      </trkpt>
      <trkpt lat="41.05048" lon="19.73115">
        <ele>72.345853</ele>
        <time>2022-05-03T10:11:23.615Z</time>
      </trkpt>
      <trkpt lat="41.0505" lon="19.73103">
        <ele>72.318148</ele>
        <time>2022-05-03T10:11:25.620Z</time>
      </trkpt>
      <trkpt lat="41.05052" lon="19.73086">
        <ele>72.277272</ele>
        <time>2022-05-03T10:11:28.619Z</time>
      </trkpt>
      <trkpt lat="41.05054" lon="19.73068">
        <ele>72.236397</ele>
        <time>2022-05-03T10:11:31.626Z</time>
      </trkpt>
      <trkpt lat="41.05055" lon="19.73056">
        <ele>72.2084</ele>
        <time>2022-05-03T10:11:33.616Z</time>
      </trkpt>
      <trkpt lat="41.05057" lon="19.73039">
        <ele>72.167652</ele>
        <time>2022-05-03T10:11:36.616Z</time>
      </trkpt>
      <trkpt lat="41.05058" lon="19.73027">
        <ele>72.140017</ele>
        <time>2022-05-03T10:11:38.614Z</time>
      </trkpt>
      <trkpt lat="41.05061" lon="19.7301">
        <ele>72.099728</ele>
        <time>2022-05-03T10:11:41.625Z</time>
      </trkpt>
      <trkpt lat="41.05063" lon="19.72993">
        <ele>72.059537</ele>
        <time>2022-05-03T10:11:44.630Z</time>
      </trkpt>
      <trkpt lat="41.05065" lon="19.72976">
        <ele>72.019992</ele>
        <time>2022-05-03T10:11:47.647Z</time>
      </trkpt>
      <trkpt lat="41.05068" lon="19.72959">
        <ele>71.979254</ele>
        <time>2022-05-03T10:11:50.632Z</time>
      </trkpt>
      <trkpt lat="41.05069" lon="19.72947">
        <ele>71.951225</ele>
        <time>2022-05-03T10:11:52.648Z</time>
      </trkpt>
      <trkpt lat="41.05071" lon="19.72935">
        <ele>71.923069</ele>
        <time>2022-05-03T10:11:54.617Z</time>
      </trkpt>
      <trkpt lat="41.05074" lon="19.72923">
        <ele>71.894592</ele>
        <time>2022-05-03T10:11:56.616Z</time>
      </trkpt>
      <trkpt lat="41.05077" lon="19.72912">
        <ele>71.838656</ele>
        <time>2022-05-03T10:11:58.621Z</time>
      </trkpt>
      <trkpt lat="41.05082" lon="19.72895">
        <ele>71.611477</ele>
        <time>2022-05-03T10:12:01.616Z</time>
      </trkpt>
      <trkpt lat="41.05086" lon="19.72884">
        <ele>71.453374</ele>
        <time>2022-05-03T10:12:03.647Z</time>
      </trkpt>
      <trkpt lat="41.05089" lon="19.72872">
        <ele>71.289335</ele>
        <time>2022-05-03T10:12:05.628Z</time>
      </trkpt>
      <trkpt lat="41.05093" lon="19.72859">
        <ele>71.114596</ele>
        <time>2022-05-03T10:12:07.627Z</time>
      </trkpt>
      <trkpt lat="41.05096" lon="19.72846">
        <ele>70.939665</ele>
        <time>2022-05-03T10:12:09.652Z</time>
      </trkpt>
      <trkpt lat="41.051" lon="19.72833">
        <ele>70.763649</ele>
        <time>2022-05-03T10:12:11.622Z</time>
      </trkpt>
      <trkpt lat="41.05104" lon="19.72819">
        <ele>70.584136</ele>
        <time>2022-05-03T10:12:13.634Z</time>
      </trkpt>
      <trkpt lat="41.05107" lon="19.72806">
        <ele>70.404529</ele>
        <time>2022-05-03T10:12:15.642Z</time>
      </trkpt>
      <trkpt lat="41.05111" lon="19.72793">
        <ele>70.227409</ele>
        <time>2022-05-03T10:12:17.616Z</time>
      </trkpt>
      <trkpt lat="41.05114" lon="19.7278">
        <ele>70.05624</ele>
        <time>2022-05-03T10:12:19.626Z</time>
      </trkpt>
      <trkpt lat="41.05119" lon="19.72768">
        <ele>69.884011</ele>
        <time>2022-05-03T10:12:21.671Z</time>
      </trkpt>
      <trkpt lat="41.05123" lon="19.72755">
        <ele>69.70201</ele>
        <time>2022-05-03T10:12:23.628Z</time>
      </trkpt>
      <trkpt lat="41.05128" lon="19.72742">
        <ele>69.517718</ele>
        <time>2022-05-03T10:12:25.625Z</time>
      </trkpt>
      <trkpt lat="41.05133" lon="19.72729">
        <ele>69.328172</ele>
        <time>2022-05-03T10:12:27.642Z</time>
      </trkpt>
      <trkpt lat="41.05138" lon="19.72716">
        <ele>69.142786</ele>
        <time>2022-05-03T10:12:29.629Z</time>
      </trkpt>
      <trkpt lat="41.05143" lon="19.72702">
        <ele>68.953181</ele>
        <time>2022-05-03T10:12:31.611Z</time>
      </trkpt>
      <trkpt lat="41.05148" lon="19.72688">
        <ele>68.712996</ele>
        <time>2022-05-03T10:12:33.605Z</time>
      </trkpt>
      <trkpt lat="41.05154" lon="19.72674">
        <ele>68.423206</ele>
        <time>2022-05-03T10:12:35.614Z</time>
      </trkpt>
      <trkpt lat="41.05159" lon="19.7266">
        <ele>68.133415</ele>
        <time>2022-05-03T10:12:37.616Z</time>
      </trkpt>
      <trkpt lat="41.05165" lon="19.72646">
        <ele>67.852063</ele>
        <time>2022-05-03T10:12:39.628Z</time>
      </trkpt>
      <trkpt lat="41.05171" lon="19.72633">
        <ele>67.577388</ele>
        <time>2022-05-03T10:12:41.611Z</time>
      </trkpt>
      <trkpt lat="41.05177" lon="19.72621">
        <ele>67.303577</ele>
        <time>2022-05-03T10:12:43.611Z</time>
      </trkpt>
      <trkpt lat="41.05183" lon="19.72608">
        <ele>67.018418</ele>
        <time>2022-05-03T10:12:45.620Z</time>
      </trkpt>
      <trkpt lat="41.0519" lon="19.72594">
        <ele>66.731926</ele>
        <time>2022-05-03T10:12:47.633Z</time>
      </trkpt>
      <trkpt lat="41.05197" lon="19.72581">
        <ele>66.440041</ele>
        <time>2022-05-03T10:12:49.656Z</time>
      </trkpt>
      <trkpt lat="41.05204" lon="19.72568">
        <ele>66.14784</ele>
        <time>2022-05-03T10:12:51.598Z</time>
      </trkpt>
      <trkpt lat="41.0521" lon="19.72554">
        <ele>65.859746</ele>
        <time>2022-05-03T10:12:53.613Z</time>
      </trkpt>
      <trkpt lat="41.05216" lon="19.72541">
        <ele>65.578395</ele>
        <time>2022-05-03T10:12:55.671Z</time>
      </trkpt>
      <trkpt lat="41.05221" lon="19.72527">
        <ele>65.295059</ele>
        <time>2022-05-03T10:12:57.622Z</time>
      </trkpt>
      <trkpt lat="41.05225" lon="19.72512">
        <ele>65.005769</ele>
        <time>2022-05-03T10:12:59.622Z</time>
      </trkpt>
      <trkpt lat="41.05229" lon="19.72497">
        <ele>64.715636</ele>
        <time>2022-05-03T10:13:01.671Z</time>
      </trkpt>
      <trkpt lat="41.05233" lon="19.72483">
        <ele>64.492047</ele>
        <time>2022-05-03T10:13:03.624Z</time>
      </trkpt>
      <trkpt lat="41.05237" lon="19.72469">
        <ele>64.4343</ele>
        <time>2022-05-03T10:13:05.607Z</time>
      </trkpt>
      <trkpt lat="41.0524" lon="19.72456">
        <ele>64.380383</ele>
        <time>2022-05-03T10:13:07.623Z</time>
      </trkpt>
      <trkpt lat="41.05244" lon="19.72443">
        <ele>64.323368</ele>
        <time>2022-05-03T10:13:09.629Z</time>
      </trkpt>
      <trkpt lat="41.05249" lon="19.72429">
        <ele>64.265964</ele>
        <time>2022-05-03T10:13:11.622Z</time>
      </trkpt>
      <trkpt lat="41.05253" lon="19.72416">
        <ele>64.209849</ele>
        <time>2022-05-03T10:13:13.634Z</time>
      </trkpt>
      <trkpt lat="41.05257" lon="19.72402">
        <ele>64.152656</ele>
        <time>2022-05-03T10:13:15.622Z</time>
      </trkpt>
      <trkpt lat="41.0526" lon="19.72389">
        <ele>64.096872</ele>
        <time>2022-05-03T10:13:17.627Z</time>
      </trkpt>
      <trkpt lat="41.05264" lon="19.72376">
        <ele>64.041701</ele>
        <time>2022-05-03T10:13:19.616Z</time>
      </trkpt>
      <trkpt lat="41.05268" lon="19.72363">
        <ele>63.987435</ele>
        <time>2022-05-03T10:13:21.625Z</time>
      </trkpt>
      <trkpt lat="41.05271" lon="19.7235">
        <ele>63.93153</ele>
        <time>2022-05-03T10:13:23.675Z</time>
      </trkpt>
      <trkpt lat="41.05275" lon="19.72336">
        <ele>63.875416</ele>
        <time>2022-05-03T10:13:25.634Z</time>
      </trkpt>
      <trkpt lat="41.05278" lon="19.72323">
        <ele>63.820006</ele>
        <time>2022-05-03T10:13:27.606Z</time>
      </trkpt>
      <trkpt lat="41.05281" lon="19.72309">
        <ele>63.764381</ele>
        <time>2022-05-03T10:13:29.614Z</time>
      </trkpt>
      <trkpt lat="41.05285" lon="19.72295">
        <ele>63.707254</ele>
        <time>2022-05-03T10:13:31.616Z</time>
      </trkpt>
      <trkpt lat="41.05287" lon="19.72281">
        <ele>63.649669</ele>
        <time>2022-05-03T10:13:33.632Z</time>
      </trkpt>
      <trkpt lat="41.0529" lon="19.72267">
        <ele>63.594139</ele>
        <time>2022-05-03T10:13:35.629Z</time>
      </trkpt>
      <trkpt lat="41.05292" lon="19.72254">
        <ele>63.621706</ele>
        <time>2022-05-03T10:13:37.630Z</time>
      </trkpt>
      <trkpt lat="41.05295" lon="19.72241">
        <ele>63.718268</ele>
        <time>2022-05-03T10:13:39.614Z</time>
      </trkpt>
      <trkpt lat="41.05298" lon="19.72228">
        <ele>63.814873</ele>
        <time>2022-05-03T10:13:41.631Z</time>
      </trkpt>
      <trkpt lat="41.053" lon="19.72213">
        <ele>63.91764</ele>
        <time>2022-05-03T10:13:43.619Z</time>
      </trkpt>
      <trkpt lat="41.05302" lon="19.722">
        <ele>64.016133</ele>
        <time>2022-05-03T10:13:45.659Z</time>
      </trkpt>
      <trkpt lat="41.05305" lon="19.72186">
        <ele>64.115226</ele>
        <time>2022-05-03T10:13:47.607Z</time>
      </trkpt>
      <trkpt lat="41.05308" lon="19.72173">
        <ele>64.213316</ele>
        <time>2022-05-03T10:13:49.600Z</time>
      </trkpt>
      <trkpt lat="41.05311" lon="19.7216">
        <ele>64.312409</ele>
        <time>2022-05-03T10:13:51.664Z</time>
      </trkpt>
      <trkpt lat="41.05312" lon="19.72146">
        <ele>64.410629</ele>
        <time>2022-05-03T10:13:53.630Z</time>
      </trkpt>
      <trkpt lat="41.05312" lon="19.72132">
        <ele>64.507194</ele>
        <time>2022-05-03T10:13:55.615Z</time>
      </trkpt>
      <trkpt lat="41.0531" lon="19.72118">
        <ele>64.608817</ele>
        <time>2022-05-03T10:13:57.762Z</time>
      </trkpt>
      <trkpt lat="41.05308" lon="19.72104">
        <ele>64.708701</ele>
        <time>2022-05-03T10:13:59.635Z</time>
      </trkpt>
      <trkpt lat="41.05309" lon="19.7209">
        <ele>64.808568</ele>
        <time>2022-05-03T10:14:01.596Z</time>
      </trkpt>
      <trkpt lat="41.05314" lon="19.72078">
        <ele>64.91128</ele>
        <time>2022-05-03T10:14:03.631Z</time>
      </trkpt>
      <trkpt lat="41.05322" lon="19.72066">
        <ele>65.020924</ele>
        <time>2022-05-03T10:14:05.622Z</time>
      </trkpt>
      <trkpt lat="41.0533" lon="19.72055">
        <ele>65.132667</ele>
        <time>2022-05-03T10:14:07.613Z</time>
      </trkpt>
      <trkpt lat="41.05339" lon="19.72045">
        <ele>65.244274</ele>
        <time>2022-05-03T10:14:09.603Z</time>
      </trkpt>
      <trkpt lat="41.05347" lon="19.72034">
        <ele>65.327265</ele>
        <time>2022-05-03T10:14:11.658Z</time>
      </trkpt>
      <trkpt lat="41.05354" lon="19.72023">
        <ele>65.405505</ele>
        <time>2022-05-03T10:14:13.630Z</time>
      </trkpt>
      <trkpt lat="41.05361" lon="19.72013">
        <ele>65.480603</ele>
        <time>2022-05-03T10:14:15.627Z</time>
      </trkpt>
      <trkpt lat="41.05367" lon="19.72002">
        <ele>65.555702</ele>
        <time>2022-05-03T10:14:17.628Z</time>
      </trkpt>
      <trkpt lat="41.05374" lon="19.71992">
        <ele>65.631968</ele>
        <time>2022-05-03T10:14:19.651Z</time>
      </trkpt>
      <trkpt lat="41.0538" lon="19.71981">
        <ele>65.706893</ele>
        <time>2022-05-03T10:14:21.697Z</time>
      </trkpt>
      <trkpt lat="41.05386" lon="19.71969">
        <ele>65.783563</ele>
        <time>2022-05-03T10:14:23.629Z</time>
      </trkpt>
      <trkpt lat="41.05392" lon="19.71958">
        <ele>65.858998</ele>
        <time>2022-05-03T10:14:25.660Z</time>
      </trkpt>
      <trkpt lat="41.05398" lon="19.71946">
        <ele>65.936302</ele>
        <time>2022-05-03T10:14:27.605Z</time>
      </trkpt>
      <trkpt lat="41.05404" lon="19.71934">
        <ele>66.017075</ele>
        <time>2022-05-03T10:14:29.636Z</time>
      </trkpt>
      <trkpt lat="41.05411" lon="19.71921">
        <ele>66.101267</ele>
        <time>2022-05-03T10:14:31.599Z</time>
      </trkpt>
      <trkpt lat="41.05417" lon="19.71908">
        <ele>66.183877</ele>
        <time>2022-05-03T10:14:33.618Z</time>
      </trkpt>
      <trkpt lat="41.05423" lon="19.71896">
        <ele>66.264141</ele>
        <time>2022-05-03T10:14:35.633Z</time>
      </trkpt>
      <trkpt lat="41.05429" lon="19.71884">
        <ele>66.343954</ele>
        <time>2022-05-03T10:14:37.620Z</time>
      </trkpt>
      <trkpt lat="41.05436" lon="19.71871">
        <ele>66.426384</ele>
        <time>2022-05-03T10:14:39.625Z</time>
      </trkpt>
      <trkpt lat="41.05443" lon="19.71858">
        <ele>66.51309</ele>
        <time>2022-05-03T10:14:41.626Z</time>
      </trkpt>
      <trkpt lat="41.0545" lon="19.71845">
        <ele>66.461739</ele>
        <time>2022-05-03T10:14:43.639Z</time>
      </trkpt>
      <trkpt lat="41.05457" lon="19.71831">
        <ele>66.245199</ele>
        <time>2022-05-03T10:14:45.607Z</time>
      </trkpt>
      <trkpt lat="41.05463" lon="19.71818">
        <ele>66.036969</ele>
        <time>2022-05-03T10:14:47.622Z</time>
      </trkpt>
      <trkpt lat="41.05471" lon="19.71804">
        <ele>65.807955</ele>
        <time>2022-05-03T10:14:49.626Z</time>
      </trkpt>
      <trkpt lat="41.05479" lon="19.7179">
        <ele>65.57764</ele>
        <time>2022-05-03T10:14:51.623Z</time>
      </trkpt>
      <trkpt lat="41.05486" lon="19.71776">
        <ele>65.358917</ele>
        <time>2022-05-03T10:14:53.669Z</time>
      </trkpt>
      <trkpt lat="41.05493" lon="19.71763">
        <ele>65.149808</ele>
        <time>2022-05-03T10:14:55.613Z</time>
      </trkpt>
      <trkpt lat="41.055" lon="19.71751">
        <ele>64.93875</ele>
        <time>2022-05-03T10:14:57.612Z</time>
      </trkpt>
      <trkpt lat="41.05507" lon="19.71738">
        <ele>64.740342</ele>
        <time>2022-05-03T10:14:59.630Z</time>
      </trkpt>
      <trkpt lat="41.05513" lon="19.71727">
        <ele>64.545102</ele>
        <time>2022-05-03T10:15:01.629Z</time>
      </trkpt>
      <trkpt lat="41.05519" lon="19.71715">
        <ele>64.361469</ele>
        <time>2022-05-03T10:15:03.626Z</time>
      </trkpt>
      <trkpt lat="41.05526" lon="19.71704">
        <ele>64.181017</ele>
        <time>2022-05-03T10:15:05.610Z</time>
      </trkpt>
      <trkpt lat="41.05532" lon="19.71694">
        <ele>64.002675</ele>
        <time>2022-05-03T10:15:07.623Z</time>
      </trkpt>
      <trkpt lat="41.05538" lon="19.71683">
        <ele>63.824333</ele>
        <time>2022-05-03T10:15:09.627Z</time>
      </trkpt>
      <trkpt lat="41.05544" lon="19.71672">
        <ele>63.648098</ele>
        <time>2022-05-03T10:15:11.610Z</time>
      </trkpt>
      <trkpt lat="41.0555" lon="19.71662">
        <ele>63.475031</ele>
        <time>2022-05-03T10:15:13.623Z</time>
      </trkpt>
      <trkpt lat="41.05558" lon="19.71647">
        <ele>63.435799</ele>
        <time>2022-05-03T10:15:16.631Z</time>
      </trkpt>
      <trkpt lat="41.05563" lon="19.71638">
        <ele>63.46069</ele>
        <time>2022-05-03T10:15:18.616Z</time>
      </trkpt>
      <trkpt lat="41.0557" lon="19.71623">
        <ele>63.497403</ele>
        <time>2022-05-03T10:15:21.655Z</time>
      </trkpt>
      <trkpt lat="41.05578" lon="19.71609">
        <ele>63.533584</ele>
        <time>2022-05-03T10:15:24.619Z</time>
      </trkpt>
      <trkpt lat="41.05586" lon="19.71595">
        <ele>63.570256</ele>
        <time>2022-05-03T10:15:27.658Z</time>
      </trkpt>
      <trkpt lat="41.05592" lon="19.71585">
        <ele>63.596665</ele>
        <time>2022-05-03T10:15:29.628Z</time>
      </trkpt>
      <trkpt lat="41.05598" lon="19.71575">
        <ele>63.621739</ele>
        <time>2022-05-03T10:15:31.610Z</time>
      </trkpt>
      <trkpt lat="41.05604" lon="19.71565">
        <ele>63.649878</ele>
        <time>2022-05-03T10:15:33.612Z</time>
      </trkpt>
      <trkpt lat="41.05611" lon="19.71555">
        <ele>63.67779</ele>
        <time>2022-05-03T10:15:35.620Z</time>
      </trkpt>
      <trkpt lat="41.05617" lon="19.71545">
        <ele>63.705544</ele>
        <time>2022-05-03T10:15:37.622Z</time>
      </trkpt>
      <trkpt lat="41.05624" lon="19.71535">
        <ele>63.73328</ele>
        <time>2022-05-03T10:15:39.626Z</time>
      </trkpt>
      <trkpt lat="41.0563" lon="19.71525">
        <ele>63.760561</ele>
        <time>2022-05-03T10:15:41.626Z</time>
      </trkpt>
      <trkpt lat="41.05637" lon="19.71515">
        <ele>63.788023</ele>
        <time>2022-05-03T10:15:43.630Z</time>
      </trkpt>
      <trkpt lat="41.05644" lon="19.71505">
        <ele>63.814904</ele>
        <time>2022-05-03T10:15:45.643Z</time>
      </trkpt>
      <trkpt lat="41.05651" lon="19.71496">
        <ele>63.842849</ele>
        <time>2022-05-03T10:15:47.616Z</time>
      </trkpt>
      <trkpt lat="41.05658" lon="19.71485">
        <ele>63.872755</ele>
        <time>2022-05-03T10:15:49.610Z</time>
      </trkpt>
      <trkpt lat="41.05666" lon="19.71475">
        <ele>63.903268</ele>
        <time>2022-05-03T10:15:51.627Z</time>
      </trkpt>
      <trkpt lat="41.05673" lon="19.71464">
        <ele>63.853004</ele>
        <time>2022-05-03T10:15:53.621Z</time>
      </trkpt>
      <trkpt lat="41.05681" lon="19.71453">
        <ele>63.797301</ele>
        <time>2022-05-03T10:15:55.617Z</time>
      </trkpt>
      <trkpt lat="41.05689" lon="19.71441">
        <ele>63.740872</ele>
        <time>2022-05-03T10:15:57.610Z</time>
      </trkpt>
      <trkpt lat="41.05696" lon="19.7143">
        <ele>63.683517</ele>
        <time>2022-05-03T10:15:59.632Z</time>
      </trkpt>
      <trkpt lat="41.05704" lon="19.71418">
        <ele>63.626112</ele>
        <time>2022-05-03T10:16:01.606Z</time>
      </trkpt>
      <trkpt lat="41.05712" lon="19.71407">
        <ele>63.56953</ele>
        <time>2022-05-03T10:16:03.636Z</time>
      </trkpt>
      <trkpt lat="41.0572" lon="19.71396">
        <ele>63.513334</ele>
        <time>2022-05-03T10:16:05.616Z</time>
      </trkpt>
      <trkpt lat="41.05727" lon="19.71384">
        <ele>63.457465</ele>
        <time>2022-05-03T10:16:07.617Z</time>
      </trkpt>
      <trkpt lat="41.05735" lon="19.71373">
        <ele>63.398791</ele>
        <time>2022-05-03T10:16:09.607Z</time>
      </trkpt>
      <trkpt lat="41.05743" lon="19.71361">
        <ele>63.341661</ele>
        <time>2022-05-03T10:16:11.662Z</time>
      </trkpt>
      <trkpt lat="41.05751" lon="19.7135">
        <ele>63.283459</ele>
        <time>2022-05-03T10:16:13.617Z</time>
      </trkpt>
      <trkpt lat="41.05759" lon="19.71339">
        <ele>63.22735</ele>
        <time>2022-05-03T10:16:15.626Z</time>
      </trkpt>
      <trkpt lat="41.05767" lon="19.71328">
        <ele>63.171581</ele>
        <time>2022-05-03T10:16:17.626Z</time>
      </trkpt>
      <trkpt lat="41.05775" lon="19.71317">
        <ele>63.115878</ele>
        <time>2022-05-03T10:16:19.638Z</time>
      </trkpt>
      <trkpt lat="41.05782" lon="19.71306">
        <ele>63.06172</ele>
        <time>2022-05-03T10:16:21.638Z</time>
      </trkpt>
      <trkpt lat="41.05789" lon="19.71297">
        <ele>63.036183</ele>
        <time>2022-05-03T10:16:23.612Z</time>
      </trkpt>
      <trkpt lat="41.05796" lon="19.71286">
        <ele>63.141344</ele>
        <time>2022-05-03T10:16:25.609Z</time>
      </trkpt>
      <trkpt lat="41.05803" lon="19.71276">
        <ele>63.247077</ele>
        <time>2022-05-03T10:16:27.624Z</time>
      </trkpt>
      <trkpt lat="41.05809" lon="19.71266">
        <ele>63.352636</ele>
        <time>2022-05-03T10:16:29.623Z</time>
      </trkpt>
      <trkpt lat="41.05815" lon="19.71255">
        <ele>63.457423</ele>
        <time>2022-05-03T10:16:31.627Z</time>
      </trkpt>
      <trkpt lat="41.05821" lon="19.71243">
        <ele>63.561692</ele>
        <time>2022-05-03T10:16:33.666Z</time>
      </trkpt>
      <trkpt lat="41.05827" lon="19.71232">
        <ele>63.665553</ele>
        <time>2022-05-03T10:16:35.627Z</time>
      </trkpt>
      <trkpt lat="41.05832" lon="19.7122">
        <ele>63.769778</ele>
        <time>2022-05-03T10:16:37.618Z</time>
      </trkpt>
      <trkpt lat="41.05836" lon="19.71209">
        <ele>63.868526</ele>
        <time>2022-05-03T10:16:39.611Z</time>
      </trkpt>
      <trkpt lat="41.0584" lon="19.71197">
        <ele>63.966994</ele>
        <time>2022-05-03T10:16:41.630Z</time>
      </trkpt>
      <trkpt lat="41.05844" lon="19.71185">
        <ele>64.066105</ele>
        <time>2022-05-03T10:16:43.630Z</time>
      </trkpt>
      <trkpt lat="41.05847" lon="19.71173">
        <ele>64.164129</ele>
        <time>2022-05-03T10:16:45.605Z</time>
      </trkpt>
      <trkpt lat="41.0585" lon="19.71161">
        <ele>64.259298</ele>
        <time>2022-05-03T10:16:47.630Z</time>
      </trkpt>
      <trkpt lat="41.05853" lon="19.71149">
        <ele>64.356872</ele>
        <time>2022-05-03T10:16:49.618Z</time>
      </trkpt>
      <trkpt lat="41.05855" lon="19.71137">
        <ele>64.452684</ele>
        <time>2022-05-03T10:16:51.661Z</time>
      </trkpt>
      <trkpt lat="41.05856" lon="19.71125">
        <ele>64.549061</ele>
        <time>2022-05-03T10:16:53.644Z</time>
      </trkpt>
      <trkpt lat="41.05858" lon="19.71112">
        <ele>64.647117</ele>
        <time>2022-05-03T10:16:55.625Z</time>
      </trkpt>
      <trkpt lat="41.05859" lon="19.711">
        <ele>64.743337</ele>
        <time>2022-05-03T10:16:57.618Z</time>
      </trkpt>
      <trkpt lat="41.05861" lon="19.71087">
        <ele>64.841076</ele>
        <time>2022-05-03T10:16:59.622Z</time>
      </trkpt>
      <trkpt lat="41.05863" lon="19.71074">
        <ele>65.001038</ele>
        <time>2022-05-03T10:17:01.613Z</time>
      </trkpt>
      <trkpt lat="41.05864" lon="19.71062">
        <ele>65.163465</ele>
        <time>2022-05-03T10:17:03.609Z</time>
      </trkpt>
      <trkpt lat="41.05865" lon="19.7105">
        <ele>65.323808</ele>
        <time>2022-05-03T10:17:05.616Z</time>
      </trkpt>
      <trkpt lat="41.05867" lon="19.71037">
        <ele>65.48851</ele>
        <time>2022-05-03T10:17:07.614Z</time>
      </trkpt>
      <trkpt lat="41.05869" lon="19.71025">
        <ele>65.648129</ele>
        <time>2022-05-03T10:17:09.624Z</time>
      </trkpt>
      <trkpt lat="41.05871" lon="19.71007">
        <ele>65.877405</ele>
        <time>2022-05-03T10:17:12.618Z</time>
      </trkpt>
      <trkpt lat="41.05873" lon="19.70996">
        <ele>66.030789</ele>
        <time>2022-05-03T10:17:14.652Z</time>
      </trkpt>
      <trkpt lat="41.05875" lon="19.70978">
        <ele>66.260065</ele>
        <time>2022-05-03T10:17:17.609Z</time>
      </trkpt>
      <trkpt lat="41.05877" lon="19.70966">
        <ele>66.413985</ele>
        <time>2022-05-03T10:17:19.614Z</time>
      </trkpt>
      <trkpt lat="41.0588" lon="19.70949">
        <ele>66.636615</ele>
        <time>2022-05-03T10:17:22.628Z</time>
      </trkpt>
      <trkpt lat="41.05882" lon="19.70933">
        <ele>66.853579</ele>
        <time>2022-05-03T10:17:25.607Z</time>
      </trkpt>
      <trkpt lat="41.05884" lon="19.70917">
        <ele>67.066731</ele>
        <time>2022-05-03T10:17:28.623Z</time>
      </trkpt>
      <trkpt lat="41.05886" lon="19.709">
        <ele>67.283337</ele>
        <time>2022-05-03T10:17:31.654Z</time>
      </trkpt>
      <trkpt lat="41.05888" lon="19.70884">
        <ele>67.497999</ele>
        <time>2022-05-03T10:17:34.607Z</time>
      </trkpt>
      <trkpt lat="41.0589" lon="19.70867">
        <ele>67.710106</ele>
        <time>2022-05-03T10:17:37.667Z</time>
      </trkpt>
      <trkpt lat="41.05891" lon="19.70852">
        <ele>67.91353</ele>
        <time>2022-05-03T10:17:40.629Z</time>
      </trkpt>
      <trkpt lat="41.05893" lon="19.70836">
        <ele>67.977827</ele>
        <time>2022-05-03T10:17:43.667Z</time>
      </trkpt>
      <trkpt lat="41.05895" lon="19.70821">
        <ele>68.03385</ele>
        <time>2022-05-03T10:17:46.620Z</time>
      </trkpt>
      <trkpt lat="41.05898" lon="19.70805">
        <ele>68.091794</ele>
        <time>2022-05-03T10:17:49.615Z</time>
      </trkpt>
      <trkpt lat="41.059" lon="19.70788">
        <ele>68.152457</ele>
        <time>2022-05-03T10:17:52.635Z</time>
      </trkpt>
      <trkpt lat="41.05903" lon="19.70771">
        <ele>68.213912</ele>
        <time>2022-05-03T10:17:55.630Z</time>
      </trkpt>
      <trkpt lat="41.05905" lon="19.70754">
        <ele>68.276248</ele>
        <time>2022-05-03T10:17:58.632Z</time>
      </trkpt>
      <trkpt lat="41.05907" lon="19.70742">
        <ele>68.31952</ele>
        <time>2022-05-03T10:18:00.656Z</time>
      </trkpt>
      <trkpt lat="41.05909" lon="19.7073">
        <ele>68.363344</ele>
        <time>2022-05-03T10:18:02.621Z</time>
      </trkpt>
      <trkpt lat="41.05911" lon="19.70718">
        <ele>68.407219</ele>
        <time>2022-05-03T10:18:04.613Z</time>
      </trkpt>
      <trkpt lat="41.05913" lon="19.70706">
        <ele>68.450655</ele>
        <time>2022-05-03T10:18:06.623Z</time>
      </trkpt>
      <trkpt lat="41.05915" lon="19.70694">
        <ele>68.494132</ele>
        <time>2022-05-03T10:18:08.637Z</time>
      </trkpt>
      <trkpt lat="41.05916" lon="19.70682">
        <ele>68.537568</ele>
        <time>2022-05-03T10:18:10.624Z</time>
      </trkpt>
      <trkpt lat="41.05918" lon="19.7067">
        <ele>68.580344</ele>
        <time>2022-05-03T10:18:12.612Z</time>
      </trkpt>
      <trkpt lat="41.05919" lon="19.70658">
        <ele>68.623471</ele>
        <time>2022-05-03T10:18:14.611Z</time>
      </trkpt>
      <trkpt lat="41.05921" lon="19.70645">
        <ele>68.668575</ele>
        <time>2022-05-03T10:18:16.618Z</time>
      </trkpt>
      <trkpt lat="41.05922" lon="19.70633">
        <ele>68.714895</ele>
        <time>2022-05-03T10:18:18.628Z</time>
      </trkpt>
      <trkpt lat="41.05924" lon="19.7062">
        <ele>68.761844</ele>
        <time>2022-05-03T10:18:20.635Z</time>
      </trkpt>
      <trkpt lat="41.05926" lon="19.70607">
        <ele>68.716216</ele>
        <time>2022-05-03T10:18:22.616Z</time>
      </trkpt>
      <trkpt lat="41.05928" lon="19.70594">
        <ele>68.63844</ele>
        <time>2022-05-03T10:18:24.627Z</time>
      </trkpt>
      <trkpt lat="41.0593" lon="19.70581">
        <ele>68.561657</ele>
        <time>2022-05-03T10:18:26.636Z</time>
      </trkpt>
      <trkpt lat="41.05932" lon="19.70568">
        <ele>68.484597</ele>
        <time>2022-05-03T10:18:28.651Z</time>
      </trkpt>
      <trkpt lat="41.05934" lon="19.70555">
        <ele>68.407814</ele>
        <time>2022-05-03T10:18:30.626Z</time>
      </trkpt>
      <trkpt lat="41.05936" lon="19.70542">
        <ele>68.331755</ele>
        <time>2022-05-03T10:18:32.615Z</time>
      </trkpt>
      <trkpt lat="41.05938" lon="19.70529">
        <ele>68.252938</ele>
        <time>2022-05-03T10:18:34.615Z</time>
      </trkpt>
      <trkpt lat="41.0594" lon="19.70515">
        <ele>68.173297</ele>
        <time>2022-05-03T10:18:36.605Z</time>
      </trkpt>
      <trkpt lat="41.05942" lon="19.70502">
        <ele>68.094074</ele>
        <time>2022-05-03T10:18:38.612Z</time>
      </trkpt>
      <trkpt lat="41.05943" lon="19.70489">
        <ele>68.016128</ele>
        <time>2022-05-03T10:18:40.629Z</time>
      </trkpt>
      <trkpt lat="41.05945" lon="19.70476">
        <ele>67.937479</ele>
        <time>2022-05-03T10:18:42.614Z</time>
      </trkpt>
      <trkpt lat="41.05947" lon="19.70462">
        <ele>67.857805</ele>
        <time>2022-05-03T10:18:44.616Z</time>
      </trkpt>
      <trkpt lat="41.05948" lon="19.70449">
        <ele>67.780089</ele>
        <time>2022-05-03T10:18:46.617Z</time>
      </trkpt>
      <trkpt lat="41.0595" lon="19.70436">
        <ele>67.701566</ele>
        <time>2022-05-03T10:18:48.632Z</time>
      </trkpt>
      <trkpt lat="41.05951" lon="19.70423">
        <ele>67.625921</ele>
        <time>2022-05-03T10:18:50.620Z</time>
      </trkpt>
      <trkpt lat="41.05953" lon="19.7041">
        <ele>67.547424</ele>
        <time>2022-05-03T10:18:52.614Z</time>
      </trkpt>
      <trkpt lat="41.05955" lon="19.70396">
        <ele>67.465345</ele>
        <time>2022-05-03T10:18:54.659Z</time>
      </trkpt>
      <trkpt lat="41.05958" lon="19.70382">
        <ele>67.38368</ele>
        <time>2022-05-03T10:18:56.645Z</time>
      </trkpt>
      <trkpt lat="41.0596" lon="19.70368">
        <ele>67.147245</ele>
        <time>2022-05-03T10:18:58.644Z</time>
      </trkpt>
      <trkpt lat="41.05962" lon="19.70355">
        <ele>66.911939</ele>
        <time>2022-05-03T10:19:00.626Z</time>
      </trkpt>
      <trkpt lat="41.05964" lon="19.70341">
        <ele>66.677184</ele>
        <time>2022-05-03T10:19:02.621Z</time>
      </trkpt>
      <trkpt lat="41.05966" lon="19.70327">
        <ele>66.438685</ele>
        <time>2022-05-03T10:19:04.624Z</time>
      </trkpt>
      <trkpt lat="41.05968" lon="19.70313">
        <ele>66.196001</ele>
        <time>2022-05-03T10:19:06.653Z</time>
      </trkpt>
      <trkpt lat="41.0597" lon="19.70299">
        <ele>65.952397</ele>
        <time>2022-05-03T10:19:08.613Z</time>
      </trkpt>
      <trkpt lat="41.05972" lon="19.70286">
        <ele>65.710454</ele>
        <time>2022-05-03T10:19:10.629Z</time>
      </trkpt>
      <trkpt lat="41.05974" lon="19.70272">
        <ele>65.468609</ele>
        <time>2022-05-03T10:19:12.607Z</time>
      </trkpt>
      <trkpt lat="41.05976" lon="19.70257">
        <ele>65.220068</ele>
        <time>2022-05-03T10:19:14.611Z</time>
      </trkpt>
      <trkpt lat="41.05978" lon="19.70243">
        <ele>64.974473</ele>
        <time>2022-05-03T10:19:16.618Z</time>
      </trkpt>
      <trkpt lat="41.0598" lon="19.70228">
        <ele>64.718009</ele>
        <time>2022-05-03T10:19:18.619Z</time>
      </trkpt>
      <trkpt lat="41.05983" lon="19.70212">
        <ele>64.445657</ele>
        <time>2022-05-03T10:19:20.623Z</time>
      </trkpt>
      <trkpt lat="41.05985" lon="19.70196">
        <ele>64.161532</ele>
        <time>2022-05-03T10:19:22.607Z</time>
      </trkpt>
      <trkpt lat="41.05987" lon="19.70179">
        <ele>63.875402</ele>
        <time>2022-05-03T10:19:24.608Z</time>
      </trkpt>
      <trkpt lat="41.0599" lon="19.70163">
        <ele>63.592836</ele>
        <time>2022-05-03T10:19:26.634Z</time>
      </trkpt>
      <trkpt lat="41.05992" lon="19.70146">
        <ele>63.305028</ele>
        <time>2022-05-03T10:19:28.616Z</time>
      </trkpt>
      <trkpt lat="41.05995" lon="19.70129">
        <ele>63.064534</ele>
        <time>2022-05-03T10:19:30.614Z</time>
      </trkpt>
      <trkpt lat="41.05997" lon="19.70111">
        <ele>62.818399</ele>
        <time>2022-05-03T10:19:32.613Z</time>
      </trkpt>
      <trkpt lat="41.06" lon="19.70092">
        <ele>62.562569</ele>
        <time>2022-05-03T10:19:34.616Z</time>
      </trkpt>
      <trkpt lat="41.06002" lon="19.70073">
        <ele>62.305956</ele>
        <time>2022-05-03T10:19:36.647Z</time>
      </trkpt>
      <trkpt lat="41.06004" lon="19.70054">
        <ele>62.044506</ele>
        <time>2022-05-03T10:19:38.613Z</time>
      </trkpt>
      <trkpt lat="41.06007" lon="19.70035">
        <ele>61.782756</ele>
        <time>2022-05-03T10:19:40.624Z</time>
      </trkpt>
      <trkpt lat="41.06009" lon="19.70017">
        <ele>61.528662</ele>
        <time>2022-05-03T10:19:42.656Z</time>
      </trkpt>
      <trkpt lat="41.06012" lon="19.69998">
        <ele>61.269915</ele>
        <time>2022-05-03T10:19:44.613Z</time>
      </trkpt>
      <trkpt lat="41.06015" lon="19.69978">
        <ele>60.993479</ele>
        <time>2022-05-03T10:19:46.612Z</time>
      </trkpt>
      <trkpt lat="41.06019" lon="19.69958">
        <ele>60.719682</ele>
        <time>2022-05-03T10:19:48.626Z</time>
      </trkpt>
      <trkpt lat="41.06023" lon="19.69938">
        <ele>60.442908</ele>
        <time>2022-05-03T10:19:50.610Z</time>
      </trkpt>
      <trkpt lat="41.06027" lon="19.69919">
        <ele>60.171348</ele>
        <time>2022-05-03T10:19:52.626Z</time>
      </trkpt>
      <trkpt lat="41.06031" lon="19.69899">
        <ele>59.903466</ele>
        <time>2022-05-03T10:19:54.614Z</time>
      </trkpt>
      <trkpt lat="41.06034" lon="19.69879">
        <ele>59.639709</ele>
        <time>2022-05-03T10:19:56.630Z</time>
      </trkpt>
      <trkpt lat="41.06038" lon="19.69861">
        <ele>59.387282</ele>
        <time>2022-05-03T10:19:58.617Z</time>
      </trkpt>
      <trkpt lat="41.06042" lon="19.69842">
        <ele>59.137719</ele>
        <time>2022-05-03T10:20:00.635Z</time>
      </trkpt>
      <trkpt lat="41.06045" lon="19.69825">
        <ele>58.913314</ele>
        <time>2022-05-03T10:20:02.626Z</time>
      </trkpt>
      <trkpt lat="41.06049" lon="19.69809">
        <ele>58.690157</ele>
        <time>2022-05-03T10:20:04.690Z</time>
      </trkpt>
      <trkpt lat="41.06052" lon="19.69793">
        <ele>58.479295</ele>
        <time>2022-05-03T10:20:06.638Z</time>
      </trkpt>
      <trkpt lat="41.06056" lon="19.69779">
        <ele>58.278106</ele>
        <time>2022-05-03T10:20:08.623Z</time>
      </trkpt>
      <trkpt lat="41.0606" lon="19.69764">
        <ele>58.073878</ele>
        <time>2022-05-03T10:20:10.614Z</time>
      </trkpt>
      <trkpt lat="41.06064" lon="19.69748">
        <ele>57.860476</ele>
        <time>2022-05-03T10:20:12.619Z</time>
      </trkpt>
      <trkpt lat="41.06068" lon="19.69733">
        <ele>57.650747</ele>
        <time>2022-05-03T10:20:14.626Z</time>
      </trkpt>
      <trkpt lat="41.06072" lon="19.69719">
        <ele>57.459808</ele>
        <time>2022-05-03T10:20:16.623Z</time>
      </trkpt>
      <trkpt lat="41.06075" lon="19.69706">
        <ele>57.274343</ele>
        <time>2022-05-03T10:20:18.614Z</time>
      </trkpt>
      <trkpt lat="41.06079" lon="19.69693">
        <ele>57.092559</ele>
        <time>2022-05-03T10:20:20.630Z</time>
      </trkpt>
      <trkpt lat="41.06083" lon="19.6968">
        <ele>56.960083</ele>
        <time>2022-05-03T10:20:22.620Z</time>
      </trkpt>
      <trkpt lat="41.06086" lon="19.69669">
        <ele>56.868558</ele>
        <time>2022-05-03T10:20:24.629Z</time>
      </trkpt>
      <trkpt lat="41.06089" lon="19.69656">
        <ele>56.772623</ele>
        <time>2022-05-03T10:20:26.625Z</time>
      </trkpt>
      <trkpt lat="41.06093" lon="19.69644">
        <ele>56.676689</ele>
        <time>2022-05-03T10:20:28.617Z</time>
      </trkpt>
      <trkpt lat="41.06097" lon="19.69632">
        <ele>56.580191</ele>
        <time>2022-05-03T10:20:30.605Z</time>
      </trkpt>
      <trkpt lat="41.06101" lon="19.6962">
        <ele>56.485283</ele>
        <time>2022-05-03T10:20:32.650Z</time>
      </trkpt>
      <trkpt lat="41.06104" lon="19.69607">
        <ele>56.390722</ele>
        <time>2022-05-03T10:20:34.622Z</time>
      </trkpt>
      <trkpt lat="41.06108" lon="19.69596">
        <ele>56.297658</ele>
        <time>2022-05-03T10:20:36.623Z</time>
      </trkpt>
      <trkpt lat="41.06112" lon="19.69584">
        <ele>56.204409</ele>
        <time>2022-05-03T10:20:38.662Z</time>
      </trkpt>
      <trkpt lat="41.06116" lon="19.69572">
        <ele>56.112498</ele>
        <time>2022-05-03T10:20:40.624Z</time>
      </trkpt>
      <trkpt lat="41.0612" lon="19.69561">
        <ele>56.022305</ele>
        <time>2022-05-03T10:20:42.616Z</time>
      </trkpt>
      <trkpt lat="41.06124" lon="19.6955">
        <ele>55.934274</ele>
        <time>2022-05-03T10:20:44.651Z</time>
      </trkpt>
      <trkpt lat="41.06129" lon="19.69539">
        <ele>55.84425</ele>
        <time>2022-05-03T10:20:46.631Z</time>
      </trkpt>
      <trkpt lat="41.06133" lon="19.69528">
        <ele>55.753817</ele>
        <time>2022-05-03T10:20:48.610Z</time>
      </trkpt>
      <trkpt lat="41.06136" lon="19.69517">
        <ele>55.666283</ele>
        <time>2022-05-03T10:20:50.629Z</time>
      </trkpt>
      <trkpt lat="41.0614" lon="19.69506">
        <ele>55.578748</ele>
        <time>2022-05-03T10:20:52.631Z</time>
      </trkpt>
      <trkpt lat="41.06144" lon="19.69495">
        <ele>55.491096</ele>
        <time>2022-05-03T10:20:54.636Z</time>
      </trkpt>
      <trkpt lat="41.06148" lon="19.69484">
        <ele>55.401726</ele>
        <time>2022-05-03T10:20:56.624Z</time>
      </trkpt>
      <trkpt lat="41.06152" lon="19.69473">
        <ele>55.314131</ele>
        <time>2022-05-03T10:20:58.625Z</time>
      </trkpt>
      <trkpt lat="41.06156" lon="19.69462">
        <ele>55.38756</ele>
        <time>2022-05-03T10:21:00.625Z</time>
      </trkpt>
      <trkpt lat="41.0616" lon="19.69451">
        <ele>55.55972</ele>
        <time>2022-05-03T10:21:02.628Z</time>
      </trkpt>
      <trkpt lat="41.06167" lon="19.69435">
        <ele>55.810734</ele>
        <time>2022-05-03T10:21:05.612Z</time>
      </trkpt>
      <trkpt lat="41.06171" lon="19.69425">
        <ele>55.978287</ele>
        <time>2022-05-03T10:21:07.618Z</time>
      </trkpt>
      <trkpt lat="41.06175" lon="19.69413">
        <ele>56.151794</ele>
        <time>2022-05-03T10:21:09.614Z</time>
      </trkpt>
      <trkpt lat="41.06179" lon="19.69402">
        <ele>56.333643</ele>
        <time>2022-05-03T10:21:11.616Z</time>
      </trkpt>
      <trkpt lat="41.06184" lon="19.6939">
        <ele>56.522135</ele>
        <time>2022-05-03T10:21:13.620Z</time>
      </trkpt>
      <trkpt lat="41.06188" lon="19.69378">
        <ele>56.706019</ele>
        <time>2022-05-03T10:21:15.628Z</time>
      </trkpt>
      <trkpt lat="41.06193" lon="19.69366">
        <ele>56.897069</ele>
        <time>2022-05-03T10:21:17.610Z</time>
      </trkpt>
      <trkpt lat="41.06198" lon="19.69354">
        <ele>57.088501</ele>
        <time>2022-05-03T10:21:19.634Z</time>
      </trkpt>
      <trkpt lat="41.06203" lon="19.69342">
        <ele>57.282236</ele>
        <time>2022-05-03T10:21:21.637Z</time>
      </trkpt>
      <trkpt lat="41.06208" lon="19.6933">
        <ele>57.476294</ele>
        <time>2022-05-03T10:21:23.672Z</time>
      </trkpt>
      <trkpt lat="41.06213" lon="19.69318">
        <ele>57.667583</ele>
        <time>2022-05-03T10:21:25.624Z</time>
      </trkpt>
      <trkpt lat="41.06218" lon="19.69306">
        <ele>57.866547</ele>
        <time>2022-05-03T10:21:27.624Z</time>
      </trkpt>
      <trkpt lat="41.06223" lon="19.69294">
        <ele>58.055401</ele>
        <time>2022-05-03T10:21:29.626Z</time>
      </trkpt>
      <trkpt lat="41.06228" lon="19.69283">
        <ele>58.243632</ele>
        <time>2022-05-03T10:21:31.627Z</time>
      </trkpt>
      <trkpt lat="41.06233" lon="19.69271">
        <ele>58.431553</ele>
        <time>2022-05-03T10:21:33.623Z</time>
      </trkpt>
      <trkpt lat="41.06238" lon="19.69259">
        <ele>58.625287</ele>
        <time>2022-05-03T10:21:35.642Z</time>
      </trkpt>
      <trkpt lat="41.06244" lon="19.69247">
        <ele>58.578137</ele>
        <time>2022-05-03T10:21:37.616Z</time>
      </trkpt>
      <trkpt lat="41.06249" lon="19.69235">
        <ele>58.520557</ele>
        <time>2022-05-03T10:21:39.688Z</time>
      </trkpt>
      <trkpt lat="41.06254" lon="19.69222">
        <ele>58.462057</ele>
        <time>2022-05-03T10:21:41.626Z</time>
      </trkpt>
      <trkpt lat="41.06259" lon="19.69209">
        <ele>58.402575</ele>
        <time>2022-05-03T10:21:43.615Z</time>
      </trkpt>
      <trkpt lat="41.06264" lon="19.69197">
        <ele>58.344011</ele>
        <time>2022-05-03T10:21:45.656Z</time>
      </trkpt>
      <trkpt lat="41.0627" lon="19.69184">
        <ele>58.28364</ele>
        <time>2022-05-03T10:21:47.631Z</time>
      </trkpt>
      <trkpt lat="41.06276" lon="19.69171">
        <ele>58.222298</ele>
        <time>2022-05-03T10:21:49.617Z</time>
      </trkpt>
      <trkpt lat="41.06281" lon="19.69158">
        <ele>58.160626</ele>
        <time>2022-05-03T10:21:51.658Z</time>
      </trkpt>
      <trkpt lat="41.06285" lon="19.69145">
        <ele>58.102368</ele>
        <time>2022-05-03T10:21:53.632Z</time>
      </trkpt>
      <trkpt lat="41.06291" lon="19.69132">
        <ele>58.040306</ele>
        <time>2022-05-03T10:21:55.616Z</time>
      </trkpt>
      <trkpt lat="41.06297" lon="19.69118">
        <ele>57.976376</ele>
        <time>2022-05-03T10:21:57.628Z</time>
      </trkpt>
      <trkpt lat="41.06303" lon="19.69105">
        <ele>57.912767</ele>
        <time>2022-05-03T10:21:59.622Z</time>
      </trkpt>
      <trkpt lat="41.06309" lon="19.69092">
        <ele>57.851762</ele>
        <time>2022-05-03T10:22:01.615Z</time>
      </trkpt>
      <trkpt lat="41.06314" lon="19.6908">
        <ele>57.791391</ele>
        <time>2022-05-03T10:22:03.624Z</time>
      </trkpt>
      <trkpt lat="41.06319" lon="19.69067">
        <ele>57.732273</ele>
        <time>2022-05-03T10:22:05.608Z</time>
      </trkpt>
      <trkpt lat="41.06325" lon="19.69054">
        <ele>57.672099</ele>
        <time>2022-05-03T10:22:07.634Z</time>
      </trkpt>
      <trkpt lat="41.06331" lon="19.69041">
        <ele>57.703686</ele>
        <time>2022-05-03T10:22:09.623Z</time>
      </trkpt>
      <trkpt lat="41.06336" lon="19.69028">
        <ele>57.773202</ele>
        <time>2022-05-03T10:22:11.624Z</time>
      </trkpt>
      <trkpt lat="41.06342" lon="19.69014">
        <ele>57.844087</ele>
        <time>2022-05-03T10:22:13.656Z</time>
      </trkpt>
      <trkpt lat="41.06348" lon="19.69">
        <ele>57.915553</ele>
        <time>2022-05-03T10:22:15.609Z</time>
      </trkpt>
      <trkpt lat="41.06354" lon="19.68987">
        <ele>57.985941</ele>
        <time>2022-05-03T10:22:17.617Z</time>
      </trkpt>
      <trkpt lat="41.0636" lon="19.68973">
        <ele>58.056235</ele>
        <time>2022-05-03T10:22:19.660Z</time>
      </trkpt>
      <trkpt lat="41.06366" lon="19.68959">
        <ele>58.128093</ele>
        <time>2022-05-03T10:22:21.617Z</time>
      </trkpt>
      <trkpt lat="41.06371" lon="19.68946">
        <ele>58.197308</ele>
        <time>2022-05-03T10:22:23.625Z</time>
      </trkpt>
      <trkpt lat="41.06377" lon="19.68933">
        <ele>58.265744</ele>
        <time>2022-05-03T10:22:25.616Z</time>
      </trkpt>
      <trkpt lat="41.06383" lon="19.6892">
        <ele>58.333018</ele>
        <time>2022-05-03T10:22:27.624Z</time>
      </trkpt>
      <trkpt lat="41.06389" lon="19.68907">
        <ele>58.401249</ele>
        <time>2022-05-03T10:22:29.636Z</time>
      </trkpt>
      <trkpt lat="41.06394" lon="19.68893">
        <ele>58.469583</ele>
        <time>2022-05-03T10:22:31.640Z</time>
      </trkpt>
      <trkpt lat="41.064" lon="19.6888">
        <ele>58.538313</ele>
        <time>2022-05-03T10:22:33.610Z</time>
      </trkpt>
      <trkpt lat="41.06406" lon="19.68867">
        <ele>58.606667</ele>
        <time>2022-05-03T10:22:35.639Z</time>
      </trkpt>
      <trkpt lat="41.06411" lon="19.68854">
        <ele>58.675291</ele>
        <time>2022-05-03T10:22:37.631Z</time>
      </trkpt>
      <trkpt lat="41.06417" lon="19.68841">
        <ele>58.724751</ele>
        <time>2022-05-03T10:22:39.663Z</time>
      </trkpt>
      <trkpt lat="41.06423" lon="19.68828">
        <ele>58.705554</ele>
        <time>2022-05-03T10:22:41.667Z</time>
      </trkpt>
      <trkpt lat="41.06429" lon="19.68815">
        <ele>58.686376</ele>
        <time>2022-05-03T10:22:43.625Z</time>
      </trkpt>
      <trkpt lat="41.06435" lon="19.68802">
        <ele>58.667461</ele>
        <time>2022-05-03T10:22:45.624Z</time>
      </trkpt>
      <trkpt lat="41.0644" lon="19.68789">
        <ele>58.648687</ele>
        <time>2022-05-03T10:22:47.612Z</time>
      </trkpt>
      <trkpt lat="41.06446" lon="19.68776">
        <ele>58.62972</ele>
        <time>2022-05-03T10:22:49.626Z</time>
      </trkpt>
      <trkpt lat="41.06451" lon="19.68763">
        <ele>58.61056</ele>
        <time>2022-05-03T10:22:51.634Z</time>
      </trkpt>
      <trkpt lat="41.06457" lon="19.6875">
        <ele>58.591288</ele>
        <time>2022-05-03T10:22:53.621Z</time>
      </trkpt>
      <trkpt lat="41.06462" lon="19.68737">
        <ele>58.572099</ele>
        <time>2022-05-03T10:22:55.622Z</time>
      </trkpt>
      <trkpt lat="41.06468" lon="19.68723">
        <ele>58.552909</ele>
        <time>2022-05-03T10:22:57.611Z</time>
      </trkpt>
      <trkpt lat="41.06473" lon="19.6871">
        <ele>58.534024</ele>
        <time>2022-05-03T10:22:59.623Z</time>
      </trkpt>
      <trkpt lat="41.06479" lon="19.68698">
        <ele>58.515694</ele>
        <time>2022-05-03T10:23:01.614Z</time>
      </trkpt>
      <trkpt lat="41.06484" lon="19.68685">
        <ele>58.496644</ele>
        <time>2022-05-03T10:23:03.628Z</time>
      </trkpt>
      <trkpt lat="41.0649" lon="19.68672">
        <ele>58.477509</ele>
        <time>2022-05-03T10:23:05.624Z</time>
      </trkpt>
      <trkpt lat="41.06496" lon="19.68659">
        <ele>58.458265</ele>
        <time>2022-05-03T10:23:07.621Z</time>
      </trkpt>
      <trkpt lat="41.06501" lon="19.68646">
        <ele>58.439157</ele>
        <time>2022-05-03T10:23:09.657Z</time>
      </trkpt>
      <trkpt lat="41.06507" lon="19.68632">
        <ele>58.361525</ele>
        <time>2022-05-03T10:23:11.604Z</time>
      </trkpt>
      <trkpt lat="41.06512" lon="19.68619">
        <ele>58.16049</ele>
        <time>2022-05-03T10:23:13.614Z</time>
      </trkpt>
      <trkpt lat="41.06518" lon="19.68606">
        <ele>57.964339</ele>
        <time>2022-05-03T10:23:15.619Z</time>
      </trkpt>
      <trkpt lat="41.06523" lon="19.68593">
        <ele>57.770188</ele>
        <time>2022-05-03T10:23:17.626Z</time>
      </trkpt>
      <trkpt lat="41.06529" lon="19.6858">
        <ele>57.57861</ele>
        <time>2022-05-03T10:23:19.618Z</time>
      </trkpt>
      <trkpt lat="41.06534" lon="19.68568">
        <ele>57.387607</ele>
        <time>2022-05-03T10:23:21.623Z</time>
      </trkpt>
      <trkpt lat="41.06539" lon="19.68555">
        <ele>57.203733</ele>
        <time>2022-05-03T10:23:23.625Z</time>
      </trkpt>
      <trkpt lat="41.06544" lon="19.68543">
        <ele>57.017318</ele>
        <time>2022-05-03T10:23:25.625Z</time>
      </trkpt>
      <trkpt lat="41.0655" lon="19.68531">
        <ele>56.83003</ele>
        <time>2022-05-03T10:23:27.630Z</time>
      </trkpt>
      <trkpt lat="41.06555" lon="19.68518">
        <ele>56.639028</ele>
        <time>2022-05-03T10:23:29.626Z</time>
      </trkpt>
      <trkpt lat="41.06561" lon="19.68505">
        <ele>56.441146</ele>
        <time>2022-05-03T10:23:31.652Z</time>
      </trkpt>
      <trkpt lat="41.06567" lon="19.68492">
        <ele>56.236074</ele>
        <time>2022-05-03T10:23:33.616Z</time>
      </trkpt>
      <trkpt lat="41.06572" lon="19.68479">
        <ele>56.037921</ele>
        <time>2022-05-03T10:23:35.634Z</time>
      </trkpt>
      <trkpt lat="41.06578" lon="19.68466">
        <ele>55.840912</ele>
        <time>2022-05-03T10:23:37.645Z</time>
      </trkpt>
      <trkpt lat="41.06584" lon="19.68453">
        <ele>55.64732</ele>
        <time>2022-05-03T10:23:39.618Z</time>
      </trkpt>
      <trkpt lat="41.06589" lon="19.6844">
        <ele>55.453728</ele>
        <time>2022-05-03T10:23:41.616Z</time>
      </trkpt>
      <trkpt lat="41.06595" lon="19.68427">
        <ele>55.272075</ele>
        <time>2022-05-03T10:23:43.611Z</time>
      </trkpt>
      <trkpt lat="41.066" lon="19.68415">
        <ele>55.178414</ele>
        <time>2022-05-03T10:23:45.621Z</time>
      </trkpt>
      <trkpt lat="41.06605" lon="19.68402">
        <ele>55.082033</ele>
        <time>2022-05-03T10:23:47.617Z</time>
      </trkpt>
      <trkpt lat="41.06611" lon="19.68388">
        <ele>54.981095</ele>
        <time>2022-05-03T10:23:49.618Z</time>
      </trkpt>
      <trkpt lat="41.06616" lon="19.68375">
        <ele>54.883146</ele>
        <time>2022-05-03T10:23:51.620Z</time>
      </trkpt>
      <trkpt lat="41.06622" lon="19.68363">
        <ele>54.788062</ele>
        <time>2022-05-03T10:23:53.631Z</time>
      </trkpt>
      <trkpt lat="41.06627" lon="19.6835">
        <ele>54.692407</ele>
        <time>2022-05-03T10:23:55.620Z</time>
      </trkpt>
      <trkpt lat="41.06633" lon="19.68337">
        <ele>54.597893</ele>
        <time>2022-05-03T10:23:57.620Z</time>
      </trkpt>
      <trkpt lat="41.06638" lon="19.68325">
        <ele>54.503357</ele>
        <time>2022-05-03T10:23:59.607Z</time>
      </trkpt>
      <trkpt lat="41.06644" lon="19.68313">
        <ele>54.408638</ele>
        <time>2022-05-03T10:24:01.625Z</time>
      </trkpt>
      <trkpt lat="41.06649" lon="19.683">
        <ele>54.313982</ele>
        <time>2022-05-03T10:24:03.636Z</time>
      </trkpt>
      <trkpt lat="41.06655" lon="19.68288">
        <ele>54.218177</ele>
        <time>2022-05-03T10:24:05.635Z</time>
      </trkpt>
      <trkpt lat="41.0666" lon="19.68275">
        <ele>54.121797</ele>
        <time>2022-05-03T10:24:07.620Z</time>
      </trkpt>
      <trkpt lat="41.06666" lon="19.68262">
        <ele>54.024001</ele>
        <time>2022-05-03T10:24:09.655Z</time>
      </trkpt>
      <trkpt lat="41.06671" lon="19.68249">
        <ele>53.925888</ele>
        <time>2022-05-03T10:24:11.673Z</time>
      </trkpt>
      <trkpt lat="41.06676" lon="19.68236">
        <ele>53.829234</ele>
        <time>2022-05-03T10:24:13.622Z</time>
      </trkpt>
      <trkpt lat="41.06681" lon="19.68223">
        <ele>53.732708</ele>
        <time>2022-05-03T10:24:15.653Z</time>
      </trkpt>
      <trkpt lat="41.06687" lon="19.6821">
        <ele>53.774251</ele>
        <time>2022-05-03T10:24:17.630Z</time>
      </trkpt>
      <trkpt lat="41.06692" lon="19.68196">
        <ele>53.835567</ele>
        <time>2022-05-03T10:24:19.614Z</time>
      </trkpt>
      <trkpt lat="41.06696" lon="19.68183">
        <ele>53.894926</ele>
        <time>2022-05-03T10:24:21.626Z</time>
      </trkpt>
      <trkpt lat="41.06701" lon="19.68169">
        <ele>53.955681</ele>
        <time>2022-05-03T10:24:23.639Z</time>
      </trkpt>
      <trkpt lat="41.06706" lon="19.68156">
        <ele>54.017485</ele>
        <time>2022-05-03T10:24:25.629Z</time>
      </trkpt>
      <trkpt lat="41.06711" lon="19.68142">
        <ele>54.079415</ele>
        <time>2022-05-03T10:24:27.614Z</time>
      </trkpt>
      <trkpt lat="41.06716" lon="19.68129">
        <ele>54.140985</ele>
        <time>2022-05-03T10:24:29.630Z</time>
      </trkpt>
      <trkpt lat="41.06722" lon="19.68115">
        <ele>54.20411</ele>
        <time>2022-05-03T10:24:31.683Z</time>
      </trkpt>
      <trkpt lat="41.06727" lon="19.68101">
        <ele>54.268206</ele>
        <time>2022-05-03T10:24:33.605Z</time>
      </trkpt>
      <trkpt lat="41.06732" lon="19.68087">
        <ele>54.331087</ele>
        <time>2022-05-03T10:24:35.625Z</time>
      </trkpt>
      <trkpt lat="41.06737" lon="19.68074">
        <ele>54.392587</ele>
        <time>2022-05-03T10:24:37.613Z</time>
      </trkpt>
      <trkpt lat="41.06742" lon="19.6806">
        <ele>54.453194</ele>
        <time>2022-05-03T10:24:39.627Z</time>
      </trkpt>
      <trkpt lat="41.06749" lon="19.68048">
        <ele>54.513754</ele>
        <time>2022-05-03T10:24:41.614Z</time>
      </trkpt>
      <trkpt lat="41.06759" lon="19.68041">
        <ele>54.575074</ele>
        <time>2022-05-03T10:24:43.657Z</time>
      </trkpt>
      <trkpt lat="41.0677" lon="19.68042">
        <ele>54.635249</ele>
        <time>2022-05-03T10:24:45.652Z</time>
      </trkpt>
      <trkpt lat="41.0678" lon="19.68046">
        <ele>54.691895</ele>
        <time>2022-05-03T10:24:47.621Z</time>
      </trkpt>
      <trkpt lat="41.0679" lon="19.68047">
        <ele>54.722759</ele>
        <time>2022-05-03T10:24:49.671Z</time>
      </trkpt>
      <trkpt lat="41.06799" lon="19.68039">
        <ele>54.752966</ele>
        <time>2022-05-03T10:24:51.625Z</time>
      </trkpt>
      <trkpt lat="41.06806" lon="19.68028">
        <ele>54.786177</ele>
        <time>2022-05-03T10:24:53.617Z</time>
      </trkpt>
      <trkpt lat="41.06814" lon="19.68017">
        <ele>54.820738</ele>
        <time>2022-05-03T10:24:55.630Z</time>
      </trkpt>
      <trkpt lat="41.06821" lon="19.68006">
        <ele>54.853585</ele>
        <time>2022-05-03T10:24:57.623Z</time>
      </trkpt>
      <trkpt lat="41.06828" lon="19.67995">
        <ele>54.886205</ele>
        <time>2022-05-03T10:24:59.623Z</time>
      </trkpt>
      <trkpt lat="41.06835" lon="19.67984">
        <ele>54.918995</ele>
        <time>2022-05-03T10:25:01.609Z</time>
      </trkpt>
      <trkpt lat="41.06842" lon="19.67973">
        <ele>54.951421</ele>
        <time>2022-05-03T10:25:03.622Z</time>
      </trkpt>
      <trkpt lat="41.06849" lon="19.67962">
        <ele>54.983656</ele>
        <time>2022-05-03T10:25:05.632Z</time>
      </trkpt>
      <trkpt lat="41.06856" lon="19.6795">
        <ele>55.016406</ele>
        <time>2022-05-03T10:25:07.612Z</time>
      </trkpt>
      <trkpt lat="41.06864" lon="19.67939">
        <ele>55.050226</ele>
        <time>2022-05-03T10:25:09.623Z</time>
      </trkpt>
      <trkpt lat="41.06871" lon="19.67927">
        <ele>55.083699</ele>
        <time>2022-05-03T10:25:11.627Z</time>
      </trkpt>
      <trkpt lat="41.06878" lon="19.67916">
        <ele>55.117022</ele>
        <time>2022-05-03T10:25:13.626Z</time>
      </trkpt>
      <trkpt lat="41.06885" lon="19.67904">
        <ele>55.150669</ele>
        <time>2022-05-03T10:25:15.618Z</time>
      </trkpt>
      <trkpt lat="41.06893" lon="19.67893">
        <ele>55.18511</ele>
        <time>2022-05-03T10:25:17.635Z</time>
      </trkpt>
      <trkpt lat="41.06901" lon="19.67882">
        <ele>55.218601</ele>
        <time>2022-05-03T10:25:19.628Z</time>
      </trkpt>
      <trkpt lat="41.06909" lon="19.67871">
        <ele>55.323165</ele>
        <time>2022-05-03T10:25:21.643Z</time>
      </trkpt>
      <trkpt lat="41.06916" lon="19.6786">
        <ele>55.459987</ele>
        <time>2022-05-03T10:25:23.646Z</time>
      </trkpt>
      <trkpt lat="41.06923" lon="19.67849">
        <ele>55.590062</ele>
        <time>2022-05-03T10:25:25.620Z</time>
      </trkpt>
      <trkpt lat="41.0693" lon="19.67838">
        <ele>55.715606</ele>
        <time>2022-05-03T10:25:27.606Z</time>
      </trkpt>
      <trkpt lat="41.06937" lon="19.67826">
        <ele>55.849821</ele>
        <time>2022-05-03T10:25:29.612Z</time>
      </trkpt>
      <trkpt lat="41.06944" lon="19.67816">
        <ele>55.975456</ele>
        <time>2022-05-03T10:25:31.613Z</time>
      </trkpt>
      <trkpt lat="41.0695" lon="19.67805">
        <ele>56.099709</ele>
        <time>2022-05-03T10:25:33.633Z</time>
      </trkpt>
      <trkpt lat="41.06957" lon="19.67794">
        <ele>56.221696</ele>
        <time>2022-05-03T10:25:35.632Z</time>
      </trkpt>
      <trkpt lat="41.06963" lon="19.67784">
        <ele>56.344386</ele>
        <time>2022-05-03T10:25:37.629Z</time>
      </trkpt>
      <trkpt lat="41.0697" lon="19.67773">
        <ele>56.465733</ele>
        <time>2022-05-03T10:25:39.661Z</time>
      </trkpt>
      <trkpt lat="41.06976" lon="19.67763">
        <ele>56.586578</ele>
        <time>2022-05-03T10:25:41.615Z</time>
      </trkpt>
      <trkpt lat="41.06982" lon="19.67753">
        <ele>56.701428</ele>
        <time>2022-05-03T10:25:43.626Z</time>
      </trkpt>
      <trkpt lat="41.06988" lon="19.67744">
        <ele>56.812684</ele>
        <time>2022-05-03T10:25:45.639Z</time>
      </trkpt>
      <trkpt lat="41.06994" lon="19.67734">
        <ele>56.924775</ele>
        <time>2022-05-03T10:25:47.615Z</time>
      </trkpt>
      <trkpt lat="41.07001" lon="19.67725">
        <ele>57.040013</ele>
        <time>2022-05-03T10:25:49.635Z</time>
      </trkpt>
      <trkpt lat="41.07007" lon="19.67715">
        <ele>57.152203</ele>
        <time>2022-05-03T10:25:51.619Z</time>
      </trkpt>
      <trkpt lat="41.07013" lon="19.67706">
        <ele>57.260795</ele>
        <time>2022-05-03T10:25:53.612Z</time>
      </trkpt>
      <trkpt lat="41.07022" lon="19.67693">
        <ele>57.39654</ele>
        <time>2022-05-03T10:25:56.618Z</time>
      </trkpt>
      <trkpt lat="41.0703" lon="19.6768">
        <ele>57.482349</ele>
        <time>2022-05-03T10:25:59.607Z</time>
      </trkpt>
      <trkpt lat="41.07039" lon="19.67667">
        <ele>57.56522</ele>
        <time>2022-05-03T10:26:02.634Z</time>
      </trkpt>
      <trkpt lat="41.07047" lon="19.67655">
        <ele>57.646998</ele>
        <time>2022-05-03T10:26:05.632Z</time>
      </trkpt>
      <trkpt lat="41.07055" lon="19.67642">
        <ele>57.727603</ele>
        <time>2022-05-03T10:26:08.604Z</time>
      </trkpt>
      <trkpt lat="41.07063" lon="19.6763">
        <ele>57.805484</ele>
        <time>2022-05-03T10:26:11.630Z</time>
      </trkpt>
      <trkpt lat="41.07071" lon="19.67618">
        <ele>57.885946</ele>
        <time>2022-05-03T10:26:14.633Z</time>
      </trkpt>
      <trkpt lat="41.07079" lon="19.67606">
        <ele>57.964802</ele>
        <time>2022-05-03T10:26:17.610Z</time>
      </trkpt>
      <trkpt lat="41.07087" lon="19.67594">
        <ele>58.042683</ele>
        <time>2022-05-03T10:26:20.627Z</time>
      </trkpt>
      <trkpt lat="41.07095" lon="19.67582">
        <ele>58.119502</ele>
        <time>2022-05-03T10:26:23.655Z</time>
      </trkpt>
      <trkpt lat="41.07102" lon="19.67569">
        <ele>58.198449</ele>
        <time>2022-05-03T10:26:26.625Z</time>
      </trkpt>
      <trkpt lat="41.0711" lon="19.67558">
        <ele>58.27558</ele>
        <time>2022-05-03T10:26:29.643Z</time>
      </trkpt>
      <trkpt lat="41.07118" lon="19.67546">
        <ele>58.354676</ele>
        <time>2022-05-03T10:26:32.617Z</time>
      </trkpt>
      <trkpt lat="41.07125" lon="19.67538">
        <ele>58.41435</ele>
        <time>2022-05-03T10:26:34.634Z</time>
      </trkpt>
      <trkpt lat="41.07132" lon="19.6753">
        <ele>58.474464</ele>
        <time>2022-05-03T10:26:36.642Z</time>
      </trkpt>
      <trkpt lat="41.07139" lon="19.67522">
        <ele>58.533169</ele>
        <time>2022-05-03T10:26:38.632Z</time>
      </trkpt>
      <trkpt lat="41.07146" lon="19.67514">
        <ele>58.664344</ele>
        <time>2022-05-03T10:26:40.655Z</time>
      </trkpt>
      <trkpt lat="41.07153" lon="19.67507">
        <ele>58.811571</ele>
        <time>2022-05-03T10:26:42.627Z</time>
      </trkpt>
      <trkpt lat="41.0716" lon="19.67499">
        <ele>58.965347</ele>
        <time>2022-05-03T10:26:44.637Z</time>
      </trkpt>
      <trkpt lat="41.07167" lon="19.67491">
        <ele>59.117429</ele>
        <time>2022-05-03T10:26:46.650Z</time>
      </trkpt>
      <trkpt lat="41.07174" lon="19.67483">
        <ele>59.263423</ele>
        <time>2022-05-03T10:26:48.620Z</time>
      </trkpt>
      <trkpt lat="41.07184" lon="19.67471">
        <ele>59.477939</ele>
        <time>2022-05-03T10:26:51.629Z</time>
      </trkpt>
      <trkpt lat="41.07194" lon="19.6746">
        <ele>59.694545</ele>
        <time>2022-05-03T10:26:54.627Z</time>
      </trkpt>
      <trkpt lat="41.07204" lon="19.67448">
        <ele>59.909062</ele>
        <time>2022-05-03T10:26:57.651Z</time>
      </trkpt>
      <trkpt lat="41.07213" lon="19.67437">
        <ele>60.103407</ele>
        <time>2022-05-03T10:27:00.622Z</time>
      </trkpt>
      <trkpt lat="41.07222" lon="19.67427">
        <ele>60.294854</ele>
        <time>2022-05-03T10:27:03.636Z</time>
      </trkpt>
      <trkpt lat="41.07231" lon="19.67417">
        <ele>60.494362</ele>
        <time>2022-05-03T10:27:06.616Z</time>
      </trkpt>
      <trkpt lat="41.07239" lon="19.67407">
        <ele>60.668206</ele>
        <time>2022-05-03T10:27:09.655Z</time>
      </trkpt>
      <trkpt lat="41.07247" lon="19.67397">
        <ele>60.844699</ele>
        <time>2022-05-03T10:27:12.606Z</time>
      </trkpt>
      <trkpt lat="41.07254" lon="19.67387">
        <ele>61.013768</ele>
        <time>2022-05-03T10:27:15.659Z</time>
      </trkpt>
      <trkpt lat="41.07261" lon="19.67376">
        <ele>61.186154</ele>
        <time>2022-05-03T10:27:18.622Z</time>
      </trkpt>
      <trkpt lat="41.07267" lon="19.67365">
        <ele>61.367022</ele>
        <time>2022-05-03T10:27:21.610Z</time>
      </trkpt>
      <trkpt lat="41.07273" lon="19.67351">
        <ele>61.497136</ele>
        <time>2022-05-03T10:27:24.625Z</time>
      </trkpt>
      <trkpt lat="41.07278" lon="19.67338">
        <ele>61.553095</ele>
        <time>2022-05-03T10:27:27.627Z</time>
      </trkpt>
      <trkpt lat="41.07283" lon="19.67324">
        <ele>61.612439</ele>
        <time>2022-05-03T10:27:30.628Z</time>
      </trkpt>
      <trkpt lat="41.0729" lon="19.6731">
        <ele>61.678334</ele>
        <time>2022-05-03T10:27:33.626Z</time>
      </trkpt>
      <trkpt lat="41.07296" lon="19.67295">
        <ele>61.745405</ele>
        <time>2022-05-03T10:27:36.635Z</time>
      </trkpt>
      <trkpt lat="41.07303" lon="19.6728">
        <ele>61.813126</ele>
        <time>2022-05-03T10:27:39.623Z</time>
      </trkpt>
      <trkpt lat="41.07309" lon="19.67265">
        <ele>61.88327</ele>
        <time>2022-05-03T10:27:42.619Z</time>
      </trkpt>
      <trkpt lat="41.07314" lon="19.67253">
        <ele>61.93305</ele>
        <time>2022-05-03T10:27:44.628Z</time>
      </trkpt>
      <trkpt lat="41.07318" lon="19.67242">
        <ele>61.982927</ele>
        <time>2022-05-03T10:27:46.628Z</time>
      </trkpt>
      <trkpt lat="41.07322" lon="19.67231">
        <ele>62.032793</ele>
        <time>2022-05-03T10:27:48.628Z</time>
      </trkpt>
      <trkpt lat="41.07326" lon="19.67219">
        <ele>62.083281</ele>
        <time>2022-05-03T10:27:50.630Z</time>
      </trkpt>
      <trkpt lat="41.07331" lon="19.67208">
        <ele>62.134202</ele>
        <time>2022-05-03T10:27:52.634Z</time>
      </trkpt>
      <trkpt lat="41.07336" lon="19.67196">
        <ele>62.186303</ele>
        <time>2022-05-03T10:27:54.617Z</time>
      </trkpt>
      <trkpt lat="41.0734" lon="19.67184">
        <ele>62.239448</ele>
        <time>2022-05-03T10:27:56.628Z</time>
      </trkpt>
      <trkpt lat="41.07345" lon="19.67172">
        <ele>62.292473</ele>
        <time>2022-05-03T10:27:58.622Z</time>
      </trkpt>
      <trkpt lat="41.07349" lon="19.6716">
        <ele>62.345269</ele>
        <time>2022-05-03T10:28:00.624Z</time>
      </trkpt>
      <trkpt lat="41.07354" lon="19.67148">
        <ele>62.39607</ele>
        <time>2022-05-03T10:28:02.618Z</time>
      </trkpt>
      <trkpt lat="41.07358" lon="19.67137">
        <ele>62.597026</ele>
        <time>2022-05-03T10:28:04.628Z</time>
      </trkpt>
      <trkpt lat="41.07362" lon="19.67126">
        <ele>62.814123</ele>
        <time>2022-05-03T10:28:06.671Z</time>
      </trkpt>
      <trkpt lat="41.07365" lon="19.67115">
        <ele>63.026609</ele>
        <time>2022-05-03T10:28:08.620Z</time>
      </trkpt>
      <trkpt lat="41.0737" lon="19.67104">
        <ele>63.239477</ele>
        <time>2022-05-03T10:28:10.624Z</time>
      </trkpt>
      <trkpt lat="41.07374" lon="19.67093">
        <ele>63.465701</ele>
        <time>2022-05-03T10:28:12.613Z</time>
      </trkpt>
      <trkpt lat="41.07377" lon="19.67081">
        <ele>63.68236</ele>
        <time>2022-05-03T10:28:14.615Z</time>
      </trkpt>
      <trkpt lat="41.07385" lon="19.67067">
        <ele>64.005244</ele>
        <time>2022-05-03T10:28:17.648Z</time>
      </trkpt>
      <trkpt lat="41.07391" lon="19.67054">
        <ele>64.271956</ele>
        <time>2022-05-03T10:28:19.640Z</time>
      </trkpt>
      <trkpt lat="41.07397" lon="19.67039">
        <ele>64.563545</ele>
        <time>2022-05-03T10:28:21.622Z</time>
      </trkpt>
      <trkpt lat="41.07403" lon="19.67026">
        <ele>64.840657</ele>
        <time>2022-05-03T10:28:23.625Z</time>
      </trkpt>
      <trkpt lat="41.07408" lon="19.67011">
        <ele>65.123784</ele>
        <time>2022-05-03T10:28:25.630Z</time>
      </trkpt>
      <trkpt lat="41.07413" lon="19.66997">
        <ele>65.40957</ele>
        <time>2022-05-03T10:28:27.622Z</time>
      </trkpt>
      <trkpt lat="41.07419" lon="19.66983">
        <ele>65.689077</ele>
        <time>2022-05-03T10:28:29.632Z</time>
      </trkpt>
      <trkpt lat="41.07425" lon="19.66969">
        <ele>65.97282</ele>
        <time>2022-05-03T10:28:31.632Z</time>
      </trkpt>
      <trkpt lat="41.0743" lon="19.66954">
        <ele>66.257212</ele>
        <time>2022-05-03T10:28:33.628Z</time>
      </trkpt>
      <trkpt lat="41.07434" lon="19.6694">
        <ele>66.536206</ele>
        <time>2022-05-03T10:28:35.624Z</time>
      </trkpt>
      <trkpt lat="41.07439" lon="19.66925">
        <ele>66.719543</ele>
        <time>2022-05-03T10:28:37.622Z</time>
      </trkpt>
      <trkpt lat="41.07444" lon="19.66913">
        <ele>66.842496</ele>
        <time>2022-05-03T10:28:39.652Z</time>
      </trkpt>
      <trkpt lat="41.07449" lon="19.66901">
        <ele>66.960521</ele>
        <time>2022-05-03T10:28:41.624Z</time>
      </trkpt>
      <trkpt lat="41.07453" lon="19.66889">
        <ele>67.079856</ele>
        <time>2022-05-03T10:28:43.611Z</time>
      </trkpt>
      <trkpt lat="41.07458" lon="19.66876">
        <ele>67.203303</ele>
        <time>2022-05-03T10:28:45.619Z</time>
      </trkpt>
      <trkpt lat="41.07463" lon="19.66864">
        <ele>67.320187</ele>
        <time>2022-05-03T10:28:47.628Z</time>
      </trkpt>
      <trkpt lat="41.07468" lon="19.66853">
        <ele>67.43054</ele>
        <time>2022-05-03T10:28:49.640Z</time>
      </trkpt>
      <trkpt lat="41.07472" lon="19.66841">
        <ele>67.545765</ele>
        <time>2022-05-03T10:28:51.617Z</time>
      </trkpt>
      <trkpt lat="41.07476" lon="19.66829">
        <ele>67.657895</ele>
        <time>2022-05-03T10:28:53.621Z</time>
      </trkpt>
      <trkpt lat="41.0748" lon="19.66818">
        <ele>67.762127</ele>
        <time>2022-05-03T10:28:55.624Z</time>
      </trkpt>
      <trkpt lat="41.07483" lon="19.66807">
        <ele>67.866384</ele>
        <time>2022-05-03T10:28:57.618Z</time>
      </trkpt>
      <trkpt lat="41.07486" lon="19.66795">
        <ele>67.973049</ele>
        <time>2022-05-03T10:28:59.615Z</time>
      </trkpt>
      <trkpt lat="41.07489" lon="19.66782">
        <ele>68.087306</ele>
        <time>2022-05-03T10:29:01.662Z</time>
      </trkpt>
      <trkpt lat="41.07493" lon="19.66771">
        <ele>68.192441</ele>
        <time>2022-05-03T10:29:03.625Z</time>
      </trkpt>
      <trkpt lat="41.07498" lon="19.66756">
        <ele>68.335316</ele>
        <time>2022-05-03T10:29:06.633Z</time>
      </trkpt>
      <trkpt lat="41.07502" lon="19.66743">
        <ele>68.455067</ele>
        <time>2022-05-03T10:29:09.645Z</time>
      </trkpt>
      <trkpt lat="41.07508" lon="19.6673">
        <ele>68.588559</ele>
        <time>2022-05-03T10:29:12.618Z</time>
      </trkpt>
      <trkpt lat="41.07513" lon="19.66717">
        <ele>68.701122</ele>
        <time>2022-05-03T10:29:15.638Z</time>
      </trkpt>
      <trkpt lat="41.07518" lon="19.66704">
        <ele>68.752026</ele>
        <time>2022-05-03T10:29:18.658Z</time>
      </trkpt>
      <trkpt lat="41.07526" lon="19.66691">
        <ele>68.812461</ele>
        <time>2022-05-03T10:29:21.623Z</time>
      </trkpt>
      <trkpt lat="41.07531" lon="19.6668">
        <ele>68.854307</ele>
        <time>2022-05-03T10:29:23.632Z</time>
      </trkpt>
      <trkpt lat="41.07535" lon="19.66668">
        <ele>68.901335</ele>
        <time>2022-05-03T10:29:26.636Z</time>
      </trkpt>
      <trkpt lat="41.07539" lon="19.66655">
        <ele>68.952165</ele>
        <time>2022-05-03T10:29:30.605Z</time>
      </trkpt>
      <trkpt lat="41.07543" lon="19.66644">
        <ele>68.994244</ele>
        <time>2022-05-03T10:29:33.629Z</time>
      </trkpt>
      <trkpt lat="41.07547" lon="19.66633">
        <ele>69.035381</ele>
        <time>2022-05-03T10:29:36.609Z</time>
      </trkpt>
      <trkpt lat="41.07551" lon="19.66621">
        <ele>69.082371</ele>
        <time>2022-05-03T10:29:39.623Z</time>
      </trkpt>
      <trkpt lat="41.07557" lon="19.66607">
        <ele>69.135407</ele>
        <time>2022-05-03T10:29:43.619Z</time>
      </trkpt>
      <trkpt lat="41.07562" lon="19.66595">
        <ele>69.183781</ele>
        <time>2022-05-03T10:29:48.638Z</time>
      </trkpt>
      <trkpt lat="41.07567" lon="19.6658">
        <ele>69.239906</ele>
        <time>2022-05-03T10:29:52.622Z</time>
      </trkpt>
      <trkpt lat="41.07572" lon="19.66569">
        <ele>69.28741</ele>
        <time>2022-05-03T10:29:55.629Z</time>
      </trkpt>
      <trkpt lat="41.07579" lon="19.66556">
        <ele>69.341752</ele>
        <time>2022-05-03T10:29:58.617Z</time>
      </trkpt>
      <trkpt lat="41.07585" lon="19.66543">
        <ele>69.3931</ele>
        <time>2022-05-03T10:30:01.607Z</time>
      </trkpt>
      <trkpt lat="41.0759" lon="19.66529">
        <ele>69.448119</ele>
        <time>2022-05-03T10:30:04.613Z</time>
      </trkpt>
      <trkpt lat="41.07594" lon="19.66514">
        <ele>69.503274</ele>
        <time>2022-05-03T10:30:07.622Z</time>
      </trkpt>
      <trkpt lat="41.07599" lon="19.66497">
        <ele>69.297953</ele>
        <time>2022-05-03T10:30:10.627Z</time>
      </trkpt>
      <trkpt lat="41.07603" lon="19.66485">
        <ele>69.060112</ele>
        <time>2022-05-03T10:30:12.625Z</time>
      </trkpt>
      <trkpt lat="41.07607" lon="19.66473">
        <ele>68.842558</ele>
        <time>2022-05-03T10:30:14.623Z</time>
      </trkpt>
      <trkpt lat="41.07611" lon="19.66462">
        <ele>68.619973</ele>
        <time>2022-05-03T10:30:16.600Z</time>
      </trkpt>
      <trkpt lat="41.07616" lon="19.6645">
        <ele>68.38502</ele>
        <time>2022-05-03T10:30:18.657Z</time>
      </trkpt>
      <trkpt lat="41.07621" lon="19.66439">
        <ele>68.162972</ele>
        <time>2022-05-03T10:30:20.632Z</time>
      </trkpt>
      <trkpt lat="41.07625" lon="19.66428">
        <ele>67.942307</ele>
        <time>2022-05-03T10:30:22.618Z</time>
      </trkpt>
      <trkpt lat="41.07629" lon="19.66416">
        <ele>67.717121</ele>
        <time>2022-05-03T10:30:24.665Z</time>
      </trkpt>
      <trkpt lat="41.07634" lon="19.66405">
        <ele>67.49871</ele>
        <time>2022-05-03T10:30:26.629Z</time>
      </trkpt>
      <trkpt lat="41.07638" lon="19.66394">
        <ele>67.275751</ele>
        <time>2022-05-03T10:30:28.609Z</time>
      </trkpt>
      <trkpt lat="41.07644" lon="19.66383">
        <ele>67.045662</ele>
        <time>2022-05-03T10:30:31.632Z</time>
      </trkpt>
      <trkpt lat="41.07647" lon="19.66369">
        <ele>66.786922</ele>
        <time>2022-05-03T10:30:36.615Z</time>
      </trkpt>
      <trkpt lat="41.07651" lon="19.66357">
        <ele>66.56199</ele>
        <time>2022-05-03T10:30:39.596Z</time>
      </trkpt>
      <trkpt lat="41.07657" lon="19.66345">
        <ele>66.298506</ele>
        <time>2022-05-03T10:30:42.644Z</time>
      </trkpt>
      <trkpt lat="41.07663" lon="19.66332">
        <ele>66.033278</ele>
        <time>2022-05-03T10:30:45.603Z</time>
      </trkpt>
      <trkpt lat="41.07668" lon="19.66322">
        <ele>65.82316</ele>
        <time>2022-05-03T10:30:47.623Z</time>
      </trkpt>
      <trkpt lat="41.07674" lon="19.66312">
        <ele>65.605701</ele>
        <time>2022-05-03T10:30:49.626Z</time>
      </trkpt>
      <trkpt lat="41.07677" lon="19.66301">
        <ele>65.391194</ele>
        <time>2022-05-03T10:30:51.658Z</time>
      </trkpt>
      <trkpt lat="41.07682" lon="19.66289">
        <ele>65.202852</ele>
        <time>2022-05-03T10:30:53.618Z</time>
      </trkpt>
      <trkpt lat="41.07687" lon="19.66276">
        <ele>65.002356</ele>
        <time>2022-05-03T10:30:55.624Z</time>
      </trkpt>
      <trkpt lat="41.07691" lon="19.66264">
        <ele>64.818603</ele>
        <time>2022-05-03T10:30:57.667Z</time>
      </trkpt>
      <trkpt lat="41.07696" lon="19.66252">
        <ele>64.638867</ele>
        <time>2022-05-03T10:30:59.627Z</time>
      </trkpt>
      <trkpt lat="41.077" lon="19.66241">
        <ele>64.464085</ele>
        <time>2022-05-03T10:31:01.630Z</time>
      </trkpt>
      <trkpt lat="41.07705" lon="19.6623">
        <ele>64.297586</ele>
        <time>2022-05-03T10:31:03.654Z</time>
      </trkpt>
      <trkpt lat="41.0771" lon="19.66219">
        <ele>64.129603</ele>
        <time>2022-05-03T10:31:05.622Z</time>
      </trkpt>
      <trkpt lat="41.07715" lon="19.66203">
        <ele>63.899224</ele>
        <time>2022-05-03T10:31:08.622Z</time>
      </trkpt>
      <trkpt lat="41.0772" lon="19.66189">
        <ele>63.674116</ele>
        <time>2022-05-03T10:31:11.629Z</time>
      </trkpt>
      <trkpt lat="41.07728" lon="19.66173">
        <ele>63.433559</ele>
        <time>2022-05-03T10:31:14.619Z</time>
      </trkpt>
      <trkpt lat="41.07732" lon="19.66162">
        <ele>63.261758</ele>
        <time>2022-05-03T10:31:16.614Z</time>
      </trkpt>
      <trkpt lat="41.07737" lon="19.66151">
        <ele>63.090207</ele>
        <time>2022-05-03T10:31:18.637Z</time>
      </trkpt>
      <trkpt lat="41.07742" lon="19.6614">
        <ele>62.912825</ele>
        <time>2022-05-03T10:31:20.674Z</time>
      </trkpt>
      <trkpt lat="41.07746" lon="19.66129">
        <ele>62.738376</ele>
        <time>2022-05-03T10:31:22.634Z</time>
      </trkpt>
      <trkpt lat="41.07751" lon="19.66118">
        <ele>62.571577</ele>
        <time>2022-05-03T10:31:24.623Z</time>
      </trkpt>
      <trkpt lat="41.07755" lon="19.66107">
        <ele>62.405287</ele>
        <time>2022-05-03T10:31:26.644Z</time>
      </trkpt>
      <trkpt lat="41.0776" lon="19.66096">
        <ele>62.234378</ele>
        <time>2022-05-03T10:31:28.625Z</time>
      </trkpt>
      <trkpt lat="41.07764" lon="19.66085">
        <ele>62.109756</ele>
        <time>2022-05-03T10:31:30.616Z</time>
      </trkpt>
      <trkpt lat="41.07768" lon="19.6607">
        <ele>62.097927</ele>
        <time>2022-05-03T10:31:33.632Z</time>
      </trkpt>
      <trkpt lat="41.07773" lon="19.66054">
        <ele>62.08533</ele>
        <time>2022-05-03T10:31:36.627Z</time>
      </trkpt>
      <trkpt lat="41.07777" lon="19.66044">
        <ele>62.076449</ele>
        <time>2022-05-03T10:31:38.627Z</time>
      </trkpt>
      <trkpt lat="41.07783" lon="19.66028">
        <ele>62.063468</ele>
        <time>2022-05-03T10:31:41.624Z</time>
      </trkpt>
      <trkpt lat="41.07789" lon="19.66013">
        <ele>62.050402</ele>
        <time>2022-05-03T10:31:44.618Z</time>
      </trkpt>
      <trkpt lat="41.07795" lon="19.65998">
        <ele>62.038055</ele>
        <time>2022-05-03T10:31:47.618Z</time>
      </trkpt>
      <trkpt lat="41.07802" lon="19.65983">
        <ele>62.025062</ele>
        <time>2022-05-03T10:31:50.626Z</time>
      </trkpt>
      <trkpt lat="41.07808" lon="19.65968">
        <ele>62.012193</ele>
        <time>2022-05-03T10:31:53.612Z</time>
      </trkpt>
      <trkpt lat="41.07814" lon="19.65952">
        <ele>61.999348</ele>
        <time>2022-05-03T10:31:56.630Z</time>
      </trkpt>
      <trkpt lat="41.07818" lon="19.65936">
        <ele>61.986442</ele>
        <time>2022-05-03T10:31:59.659Z</time>
      </trkpt>
      <trkpt lat="41.07824" lon="19.65921">
        <ele>61.973886</ele>
        <time>2022-05-03T10:32:02.639Z</time>
      </trkpt>
      <trkpt lat="41.07829" lon="19.65907">
        <ele>61.962734</ele>
        <time>2022-05-03T10:32:05.625Z</time>
      </trkpt>
      <trkpt lat="41.07835" lon="19.65894">
        <ele>61.950964</ele>
        <time>2022-05-03T10:32:08.620Z</time>
      </trkpt>
      <trkpt lat="41.0784" lon="19.65882">
        <ele>61.940414</ele>
        <time>2022-05-03T10:32:11.631Z</time>
      </trkpt>
      <trkpt lat="41.07846" lon="19.65867">
        <ele>61.86865</ele>
        <time>2022-05-03T10:32:14.631Z</time>
      </trkpt>
      <trkpt lat="41.07851" lon="19.65852">
        <ele>61.730871</ele>
        <time>2022-05-03T10:32:17.634Z</time>
      </trkpt>
      <trkpt lat="41.07855" lon="19.65839">
        <ele>61.610901</ele>
        <time>2022-05-03T10:32:20.625Z</time>
      </trkpt>
      <trkpt lat="41.0786" lon="19.65823">
        <ele>61.469648</ele>
        <time>2022-05-03T10:32:23.630Z</time>
      </trkpt>
      <trkpt lat="41.07864" lon="19.65812">
        <ele>61.363552</ele>
        <time>2022-05-03T10:32:25.619Z</time>
      </trkpt>
      <trkpt lat="41.07869" lon="19.65801">
        <ele>61.259697</ele>
        <time>2022-05-03T10:32:27.628Z</time>
      </trkpt>
      <trkpt lat="41.07873" lon="19.65789">
        <ele>61.150414</ele>
        <time>2022-05-03T10:32:29.620Z</time>
      </trkpt>
      <trkpt lat="41.07877" lon="19.65778">
        <ele>61.049459</ele>
        <time>2022-05-03T10:32:31.630Z</time>
      </trkpt>
      <trkpt lat="41.07882" lon="19.65762">
        <ele>60.909267</ele>
        <time>2022-05-03T10:32:34.620Z</time>
      </trkpt>
      <trkpt lat="41.07888" lon="19.65746">
        <ele>60.761502</ele>
        <time>2022-05-03T10:32:37.623Z</time>
      </trkpt>
      <trkpt lat="41.07891" lon="19.65734">
        <ele>60.657263</ele>
        <time>2022-05-03T10:32:39.654Z</time>
      </trkpt>
      <trkpt lat="41.07894" lon="19.65722">
        <ele>60.554662</ele>
        <time>2022-05-03T10:32:41.615Z</time>
      </trkpt>
      <trkpt lat="41.07898" lon="19.65706">
        <ele>60.409306</ele>
        <time>2022-05-03T10:32:44.628Z</time>
      </trkpt>
      <trkpt lat="41.07901" lon="19.65689">
        <ele>60.266856</ele>
        <time>2022-05-03T10:32:47.655Z</time>
      </trkpt>
      <trkpt lat="41.07904" lon="19.65672">
        <ele>60.126674</ele>
        <time>2022-05-03T10:32:50.645Z</time>
      </trkpt>
      <trkpt lat="41.07906" lon="19.65656">
        <ele>59.985889</ele>
        <time>2022-05-03T10:32:53.650Z</time>
      </trkpt>
      <trkpt lat="41.07908" lon="19.65644">
        <ele>60.040896</ele>
        <time>2022-05-03T10:32:55.630Z</time>
      </trkpt>
      <trkpt lat="41.0791" lon="19.65627">
        <ele>60.200315</ele>
        <time>2022-05-03T10:32:58.623Z</time>
      </trkpt>
      <trkpt lat="41.07912" lon="19.6561">
        <ele>60.366579</ele>
        <time>2022-05-03T10:33:01.625Z</time>
      </trkpt>
      <trkpt lat="41.07914" lon="19.65593">
        <ele>60.527926</ele>
        <time>2022-05-03T10:33:04.634Z</time>
      </trkpt>
      <trkpt lat="41.07916" lon="19.65577">
        <ele>60.676415</ele>
        <time>2022-05-03T10:33:07.627Z</time>
      </trkpt>
      <trkpt lat="41.07917" lon="19.65562">
        <ele>60.823805</ele>
        <time>2022-05-03T10:33:10.624Z</time>
      </trkpt>
      <trkpt lat="41.07919" lon="19.65546">
        <ele>60.974652</ele>
        <time>2022-05-03T10:33:13.668Z</time>
      </trkpt>
      <trkpt lat="41.07922" lon="19.6553">
        <ele>61.133249</ele>
        <time>2022-05-03T10:33:16.625Z</time>
      </trkpt>
      <trkpt lat="41.07924" lon="19.65514">
        <ele>61.287355</ele>
        <time>2022-05-03T10:33:19.623Z</time>
      </trkpt>
      <trkpt lat="41.07926" lon="19.65497">
        <ele>61.444782</ele>
        <time>2022-05-03T10:33:22.654Z</time>
      </trkpt>
      <trkpt lat="41.07929" lon="19.65481">
        <ele>61.598646</ele>
        <time>2022-05-03T10:33:25.618Z</time>
      </trkpt>
      <trkpt lat="41.0793" lon="19.65465">
        <ele>61.74955</ele>
        <time>2022-05-03T10:33:28.614Z</time>
      </trkpt>
      <trkpt lat="41.07932" lon="19.65449">
        <ele>61.908711</ele>
        <time>2022-05-03T10:33:31.632Z</time>
      </trkpt>
      <trkpt lat="41.07933" lon="19.65432">
        <ele>62.064845</ele>
        <time>2022-05-03T10:33:34.613Z</time>
      </trkpt>
      <trkpt lat="41.07936" lon="19.65417">
        <ele>62.209395</ele>
        <time>2022-05-03T10:33:37.617Z</time>
      </trkpt>
      <trkpt lat="41.07935" lon="19.65401">
        <ele>62.231681</ele>
        <time>2022-05-03T10:33:40.650Z</time>
      </trkpt>
      <trkpt lat="41.07935" lon="19.65383">
        <ele>62.25682</ele>
        <time>2022-05-03T10:33:43.626Z</time>
      </trkpt>
      <trkpt lat="41.07934" lon="19.6537">
        <ele>62.273834</ele>
        <time>2022-05-03T10:33:45.630Z</time>
      </trkpt>
      <trkpt lat="41.07933" lon="19.65355">
        <ele>62.295556</ele>
        <time>2022-05-03T10:33:48.617Z</time>
      </trkpt>
      <trkpt lat="41.0793" lon="19.6534">
        <ele>62.316505</ele>
        <time>2022-05-03T10:33:51.616Z</time>
      </trkpt>
      <trkpt lat="41.07927" lon="19.65325">
        <ele>62.337313</ele>
        <time>2022-05-03T10:33:54.618Z</time>
      </trkpt>
      <trkpt lat="41.07924" lon="19.65312">
        <ele>62.357483</ele>
        <time>2022-05-03T10:33:57.665Z</time>
      </trkpt>
      <trkpt lat="41.07919" lon="19.65298">
        <ele>62.378178</ele>
        <time>2022-05-03T10:34:00.623Z</time>
      </trkpt>
      <trkpt lat="41.07913" lon="19.65284">
        <ele>62.399583</ele>
        <time>2022-05-03T10:34:03.611Z</time>
      </trkpt>
      <trkpt lat="41.07907" lon="19.65271">
        <ele>62.421468</ele>
        <time>2022-05-03T10:34:06.612Z</time>
      </trkpt>
      <trkpt lat="41.07901" lon="19.65256">
        <ele>62.444163</ele>
        <time>2022-05-03T10:34:09.617Z</time>
      </trkpt>
      <trkpt lat="41.07896" lon="19.65242">
        <ele>62.466092</ele>
        <time>2022-05-03T10:34:12.613Z</time>
      </trkpt>
      <trkpt lat="41.07891" lon="19.65228">
        <ele>62.487568</ele>
        <time>2022-05-03T10:34:15.630Z</time>
      </trkpt>
      <trkpt lat="41.07886" lon="19.65214">
        <ele>62.50917</ele>
        <time>2022-05-03T10:34:18.622Z</time>
      </trkpt>
      <trkpt lat="41.07881" lon="19.65199">
        <ele>62.531983</ele>
        <time>2022-05-03T10:34:21.626Z</time>
      </trkpt>
      <trkpt lat="41.07876" lon="19.65182">
        <ele>62.368815</ele>
        <time>2022-05-03T10:34:24.633Z</time>
      </trkpt>
      <trkpt lat="41.07873" lon="19.6517">
        <ele>62.203409</ele>
        <time>2022-05-03T10:34:26.666Z</time>
      </trkpt>
      <trkpt lat="41.07869" lon="19.65158">
        <ele>62.033729</ele>
        <time>2022-05-03T10:34:28.648Z</time>
      </trkpt>
      <trkpt lat="41.07866" lon="19.65146">
        <ele>61.860389</ele>
        <time>2022-05-03T10:34:30.625Z</time>
      </trkpt>
      <trkpt lat="41.07863" lon="19.65132">
        <ele>61.675795</ele>
        <time>2022-05-03T10:34:32.626Z</time>
      </trkpt>
      <trkpt lat="41.0786" lon="19.65118">
        <ele>61.49106</ele>
        <time>2022-05-03T10:34:34.638Z</time>
      </trkpt>
      <trkpt lat="41.07858" lon="19.65104">
        <ele>61.303912</ele>
        <time>2022-05-03T10:34:36.626Z</time>
      </trkpt>
      <trkpt lat="41.07857" lon="19.6509">
        <ele>61.114049</ele>
        <time>2022-05-03T10:34:38.614Z</time>
      </trkpt>
      <trkpt lat="41.07855" lon="19.65075">
        <ele>60.922073</ele>
        <time>2022-05-03T10:34:40.609Z</time>
      </trkpt>
      <trkpt lat="41.07854" lon="19.65061">
        <ele>60.738639</ele>
        <time>2022-05-03T10:34:42.617Z</time>
      </trkpt>
      <trkpt lat="41.07854" lon="19.65047">
        <ele>60.545309</ele>
        <time>2022-05-03T10:34:44.627Z</time>
      </trkpt>
      <trkpt lat="41.07853" lon="19.65032">
        <ele>60.350923</ele>
        <time>2022-05-03T10:34:46.628Z</time>
      </trkpt>
      <trkpt lat="41.07852" lon="19.65016">
        <ele>60.15157</ele>
        <time>2022-05-03T10:34:48.616Z</time>
      </trkpt>
      <trkpt lat="41.0785" lon="19.65002">
        <ele>59.963751</ele>
        <time>2022-05-03T10:34:50.616Z</time>
      </trkpt>
      <trkpt lat="41.07849" lon="19.64988">
        <ele>59.780829</ele>
        <time>2022-05-03T10:34:52.621Z</time>
      </trkpt>
      <trkpt lat="41.07847" lon="19.64975">
        <ele>59.60201</ele>
        <time>2022-05-03T10:34:54.707Z</time>
      </trkpt>
      <trkpt lat="41.07846" lon="19.64961">
        <ele>59.41902</ele>
        <time>2022-05-03T10:34:56.623Z</time>
      </trkpt>
      <trkpt lat="41.07844" lon="19.64947">
        <ele>59.259954</ele>
        <time>2022-05-03T10:34:58.630Z</time>
      </trkpt>
      <trkpt lat="41.07842" lon="19.64932">
        <ele>59.093748</ele>
        <time>2022-05-03T10:35:00.623Z</time>
      </trkpt>
      <trkpt lat="41.0784" lon="19.64917">
        <ele>58.916847</ele>
        <time>2022-05-03T10:35:02.623Z</time>
      </trkpt>
      <trkpt lat="41.07837" lon="19.64901">
        <ele>58.742971</ele>
        <time>2022-05-03T10:35:04.613Z</time>
      </trkpt>
      <trkpt lat="41.07835" lon="19.64886">
        <ele>58.568516</ele>
        <time>2022-05-03T10:35:06.633Z</time>
      </trkpt>
      <trkpt lat="41.07833" lon="19.6487">
        <ele>58.388593</ele>
        <time>2022-05-03T10:35:08.617Z</time>
      </trkpt>
      <trkpt lat="41.0783" lon="19.64855">
        <ele>58.211426</ele>
        <time>2022-05-03T10:35:10.623Z</time>
      </trkpt>
      <trkpt lat="41.07828" lon="19.6484">
        <ele>58.043577</ele>
        <time>2022-05-03T10:35:12.619Z</time>
      </trkpt>
      <trkpt lat="41.07826" lon="19.64825">
        <ele>57.878281</ele>
        <time>2022-05-03T10:35:14.631Z</time>
      </trkpt>
      <trkpt lat="41.07823" lon="19.64811">
        <ele>57.715497</ele>
        <time>2022-05-03T10:35:16.631Z</time>
      </trkpt>
      <trkpt lat="41.07821" lon="19.64798">
        <ele>57.567171</ele>
        <time>2022-05-03T10:35:18.616Z</time>
      </trkpt>
      <trkpt lat="41.07816" lon="19.64781">
        <ele>57.366036</ele>
        <time>2022-05-03T10:35:21.629Z</time>
      </trkpt>
      <trkpt lat="41.07812" lon="19.64766">
        <ele>57.181602</ele>
        <time>2022-05-03T10:35:24.664Z</time>
      </trkpt>
      <trkpt lat="41.07807" lon="19.64751">
        <ele>56.996469</ele>
        <time>2022-05-03T10:35:27.623Z</time>
      </trkpt>
      <trkpt lat="41.07802" lon="19.64736">
        <ele>56.8125</ele>
        <time>2022-05-03T10:35:30.638Z</time>
      </trkpt>
      <trkpt lat="41.07796" lon="19.6472">
        <ele>56.79906</ele>
        <time>2022-05-03T10:35:33.611Z</time>
      </trkpt>
      <trkpt lat="41.0779" lon="19.64704">
        <ele>56.84921</ele>
        <time>2022-05-03T10:35:36.630Z</time>
      </trkpt>
      <trkpt lat="41.07787" lon="19.64693">
        <ele>56.883563</ele>
        <time>2022-05-03T10:35:38.609Z</time>
      </trkpt>
      <trkpt lat="41.07782" lon="19.64681">
        <ele>56.918489</ele>
        <time>2022-05-03T10:35:40.624Z</time>
      </trkpt>
      <trkpt lat="41.07778" lon="19.64671">
        <ele>56.952927</ele>
        <time>2022-05-03T10:35:42.611Z</time>
      </trkpt>
      <trkpt lat="41.07774" lon="19.6466">
        <ele>56.987859</ele>
        <time>2022-05-03T10:35:44.627Z</time>
      </trkpt>
      <trkpt lat="41.07769" lon="19.64649">
        <ele>57.022369</ele>
        <time>2022-05-03T10:35:46.614Z</time>
      </trkpt>
      <trkpt lat="41.07765" lon="19.64638">
        <ele>57.056068</ele>
        <time>2022-05-03T10:35:48.626Z</time>
      </trkpt>
      <trkpt lat="41.07761" lon="19.64627">
        <ele>57.090578</ele>
        <time>2022-05-03T10:35:50.630Z</time>
      </trkpt>
      <trkpt lat="41.07756" lon="19.64617">
        <ele>57.124278</ele>
        <time>2022-05-03T10:35:52.662Z</time>
      </trkpt>
      <trkpt lat="41.07752" lon="19.64606">
        <ele>57.158533</ele>
        <time>2022-05-03T10:35:54.621Z</time>
      </trkpt>
      <trkpt lat="41.07745" lon="19.64592">
        <ele>57.20711</ele>
        <time>2022-05-03T10:35:57.620Z</time>
      </trkpt>
      <trkpt lat="41.07737" lon="19.64577">
        <ele>57.257369</ele>
        <time>2022-05-03T10:36:00.629Z</time>
      </trkpt>
      <trkpt lat="41.07731" lon="19.64567">
        <ele>57.293209</ele>
        <time>2022-05-03T10:36:02.622Z</time>
      </trkpt>
      <trkpt lat="41.07726" lon="19.64557">
        <ele>57.328382</ele>
        <time>2022-05-03T10:36:04.627Z</time>
      </trkpt>
      <trkpt lat="41.0772" lon="19.64547">
        <ele>57.363552</ele>
        <time>2022-05-03T10:36:06.633Z</time>
      </trkpt>
      <trkpt lat="41.07714" lon="19.64537">
        <ele>57.398516</ele>
        <time>2022-05-03T10:36:08.642Z</time>
      </trkpt>
      <trkpt lat="41.07708" lon="19.64527">
        <ele>57.437924</ele>
        <time>2022-05-03T10:36:10.631Z</time>
      </trkpt>
      <trkpt lat="41.07702" lon="19.64518">
        <ele>57.603582</ele>
        <time>2022-05-03T10:36:12.624Z</time>
      </trkpt>
      <trkpt lat="41.07694" lon="19.64504">
        <ele>57.834804</ele>
        <time>2022-05-03T10:36:15.620Z</time>
      </trkpt>
      <trkpt lat="41.07686" lon="19.6449">
        <ele>58.073723</ele>
        <time>2022-05-03T10:36:18.614Z</time>
      </trkpt>
      <trkpt lat="41.0768" lon="19.64482">
        <ele>58.238372</ele>
        <time>2022-05-03T10:36:20.622Z</time>
      </trkpt>
      <trkpt lat="41.07673" lon="19.64473">
        <ele>58.405842</ele>
        <time>2022-05-03T10:36:22.627Z</time>
      </trkpt>
      <trkpt lat="41.07665" lon="19.64464">
        <ele>58.581172</ele>
        <time>2022-05-03T10:36:24.627Z</time>
      </trkpt>
      <trkpt lat="41.07657" lon="19.64457">
        <ele>58.757887</ele>
        <time>2022-05-03T10:36:26.619Z</time>
      </trkpt>
      <trkpt lat="41.0765" lon="19.64449">
        <ele>58.920579</ele>
        <time>2022-05-03T10:36:28.625Z</time>
      </trkpt>
      <trkpt lat="41.07643" lon="19.64442">
        <ele>59.085947</ele>
        <time>2022-05-03T10:36:30.618Z</time>
      </trkpt>
      <trkpt lat="41.07636" lon="19.64434">
        <ele>59.251993</ele>
        <time>2022-05-03T10:36:32.625Z</time>
      </trkpt>
      <trkpt lat="41.07629" lon="19.64426">
        <ele>59.413924</ele>
        <time>2022-05-03T10:36:34.620Z</time>
      </trkpt>
      <trkpt lat="41.07621" lon="19.64417">
        <ele>59.591024</ele>
        <time>2022-05-03T10:36:36.646Z</time>
      </trkpt>
      <trkpt lat="41.07615" lon="19.64407">
        <ele>59.773894</ele>
        <time>2022-05-03T10:36:38.626Z</time>
      </trkpt>
      <trkpt lat="41.07609" lon="19.64396">
        <ele>59.958908</ele>
        <time>2022-05-03T10:36:40.618Z</time>
      </trkpt>
      <trkpt lat="41.07602" lon="19.64383">
        <ele>60.167524</ele>
        <time>2022-05-03T10:36:42.615Z</time>
      </trkpt>
      <trkpt lat="41.07596" lon="19.6437">
        <ele>60.378306</ele>
        <time>2022-05-03T10:36:44.614Z</time>
      </trkpt>
      <trkpt lat="41.0759" lon="19.64355">
        <ele>60.595675</ele>
        <time>2022-05-03T10:36:46.625Z</time>
      </trkpt>
      <trkpt lat="41.07586" lon="19.64341">
        <ele>60.606844</ele>
        <time>2022-05-03T10:36:48.652Z</time>
      </trkpt>
      <trkpt lat="41.07581" lon="19.64328">
        <ele>60.560549</ele>
        <time>2022-05-03T10:36:50.621Z</time>
      </trkpt>
      <trkpt lat="41.07575" lon="19.64315">
        <ele>60.513497</ele>
        <time>2022-05-03T10:36:52.622Z</time>
      </trkpt>
      <trkpt lat="41.07571" lon="19.64302">
        <ele>60.466722</ele>
        <time>2022-05-03T10:36:54.611Z</time>
      </trkpt>
      <trkpt lat="41.07566" lon="19.64289">
        <ele>60.421748</ele>
        <time>2022-05-03T10:36:56.621Z</time>
      </trkpt>
      <trkpt lat="41.07561" lon="19.64276">
        <ele>60.376682</ele>
        <time>2022-05-03T10:36:58.667Z</time>
      </trkpt>
      <trkpt lat="41.07557" lon="19.64264">
        <ele>60.333385</ele>
        <time>2022-05-03T10:37:00.631Z</time>
      </trkpt>
      <trkpt lat="41.07552" lon="19.64251">
        <ele>60.289972</ele>
        <time>2022-05-03T10:37:02.618Z</time>
      </trkpt>
      <trkpt lat="41.07548" lon="19.64239">
        <ele>60.244704</ele>
        <time>2022-05-03T10:37:04.624Z</time>
      </trkpt>
      <trkpt lat="41.07543" lon="19.64226">
        <ele>60.200654</ele>
        <time>2022-05-03T10:37:06.615Z</time>
      </trkpt>
      <trkpt lat="41.07538" lon="19.64214">
        <ele>60.157232</ele>
        <time>2022-05-03T10:37:08.637Z</time>
      </trkpt>
      <trkpt lat="41.07534" lon="19.64202">
        <ele>60.113676</ele>
        <time>2022-05-03T10:37:10.633Z</time>
      </trkpt>
      <trkpt lat="41.07529" lon="19.64189">
        <ele>60.070202</ele>
        <time>2022-05-03T10:37:12.629Z</time>
      </trkpt>
      <trkpt lat="41.07525" lon="19.64177">
        <ele>60.026038</ele>
        <time>2022-05-03T10:37:14.615Z</time>
      </trkpt>
      <trkpt lat="41.07521" lon="19.64164">
        <ele>59.982953</ele>
        <time>2022-05-03T10:37:16.625Z</time>
      </trkpt>
      <trkpt lat="41.07516" lon="19.64151">
        <ele>59.935668</ele>
        <time>2022-05-03T10:37:18.609Z</time>
      </trkpt>
      <trkpt lat="41.07511" lon="19.64138">
        <ele>59.888892</ele>
        <time>2022-05-03T10:37:20.706Z</time>
      </trkpt>
      <trkpt lat="41.07507" lon="19.64124">
        <ele>59.600593</ele>
        <time>2022-05-03T10:37:22.624Z</time>
      </trkpt>
      <trkpt lat="41.07502" lon="19.64109">
        <ele>59.293883</ele>
        <time>2022-05-03T10:37:24.618Z</time>
      </trkpt>
      <trkpt lat="41.07498" lon="19.64093">
        <ele>58.976304</ele>
        <time>2022-05-03T10:37:26.643Z</time>
      </trkpt>
      <trkpt lat="41.07494" lon="19.64077">
        <ele>58.639402</ele>
        <time>2022-05-03T10:37:28.628Z</time>
      </trkpt>
      <trkpt lat="41.07489" lon="19.6406">
        <ele>58.28279</ele>
        <time>2022-05-03T10:37:30.616Z</time>
      </trkpt>
      <trkpt lat="41.07484" lon="19.64044">
        <ele>57.938552</ele>
        <time>2022-05-03T10:37:32.612Z</time>
      </trkpt>
      <trkpt lat="41.07478" lon="19.64028">
        <ele>57.600099</ele>
        <time>2022-05-03T10:37:34.623Z</time>
      </trkpt>
      <trkpt lat="41.07472" lon="19.64014">
        <ele>57.286525</ele>
        <time>2022-05-03T10:37:36.625Z</time>
      </trkpt>
      <trkpt lat="41.07466" lon="19.64001">
        <ele>56.993114</ele>
        <time>2022-05-03T10:37:38.622Z</time>
      </trkpt>
      <trkpt lat="41.07459" lon="19.6399">
        <ele>56.714293</ele>
        <time>2022-05-03T10:37:40.627Z</time>
      </trkpt>
      <trkpt lat="41.07453" lon="19.63978">
        <ele>56.443194</ele>
        <time>2022-05-03T10:37:42.667Z</time>
      </trkpt>
      <trkpt lat="41.07448" lon="19.63967">
        <ele>56.188116</ele>
        <time>2022-05-03T10:37:44.616Z</time>
      </trkpt>
      <trkpt lat="41.07442" lon="19.63956">
        <ele>55.920216</ele>
        <time>2022-05-03T10:37:46.644Z</time>
      </trkpt>
      <trkpt lat="41.07435" lon="19.63945">
        <ele>55.63983</ele>
        <time>2022-05-03T10:37:48.619Z</time>
      </trkpt>
      <trkpt lat="41.07429" lon="19.63934">
        <ele>55.379682</ele>
        <time>2022-05-03T10:37:50.625Z</time>
      </trkpt>
      <trkpt lat="41.07423" lon="19.63924">
        <ele>55.258261</ele>
        <time>2022-05-03T10:37:52.631Z</time>
      </trkpt>
      <trkpt lat="41.07417" lon="19.63914">
        <ele>55.252887</ele>
        <time>2022-05-03T10:37:54.615Z</time>
      </trkpt>
      <trkpt lat="41.07411" lon="19.63904">
        <ele>55.247648</ele>
        <time>2022-05-03T10:37:56.627Z</time>
      </trkpt>
      <trkpt lat="41.07405" lon="19.63894">
        <ele>55.242505</ele>
        <time>2022-05-03T10:37:58.632Z</time>
      </trkpt>
      <trkpt lat="41.074" lon="19.63885">
        <ele>55.237501</ele>
        <time>2022-05-03T10:38:00.613Z</time>
      </trkpt>
      <trkpt lat="41.07393" lon="19.63871">
        <ele>55.230617</ele>
        <time>2022-05-03T10:38:03.612Z</time>
      </trkpt>
      <trkpt lat="41.07386" lon="19.63859">
        <ele>55.224338</ele>
        <time>2022-05-03T10:38:06.615Z</time>
      </trkpt>
      <trkpt lat="41.0738" lon="19.63848">
        <ele>55.218326</ele>
        <time>2022-05-03T10:38:09.606Z</time>
      </trkpt>
      <trkpt lat="41.07375" lon="19.63836">
        <ele>55.212524</ele>
        <time>2022-05-03T10:38:12.611Z</time>
      </trkpt>
      <trkpt lat="41.0737" lon="19.63825">
        <ele>55.207165</ele>
        <time>2022-05-03T10:38:15.670Z</time>
      </trkpt>
      <trkpt lat="41.07364" lon="19.63813">
        <ele>55.201116</ele>
        <time>2022-05-03T10:38:18.614Z</time>
      </trkpt>
      <trkpt lat="41.07359" lon="19.638">
        <ele>55.195066</ele>
        <time>2022-05-03T10:38:21.612Z</time>
      </trkpt>
      <trkpt lat="41.07355" lon="19.63785">
        <ele>55.188218</ele>
        <time>2022-05-03T10:38:24.608Z</time>
      </trkpt>
      <trkpt lat="41.07349" lon="19.63769">
        <ele>55.180879</ele>
        <time>2022-05-03T10:38:27.614Z</time>
      </trkpt>
      <trkpt lat="41.07343" lon="19.63754">
        <ele>55.17394</ele>
        <time>2022-05-03T10:38:30.605Z</time>
      </trkpt>
      <trkpt lat="41.07339" lon="19.6374">
        <ele>55.167303</ele>
        <time>2022-05-03T10:38:33.616Z</time>
      </trkpt>
      <trkpt lat="41.07334" lon="19.63725">
        <ele>55.160809</ele>
        <time>2022-05-03T10:38:36.626Z</time>
      </trkpt>
      <trkpt lat="41.0733" lon="19.63712">
        <ele>55.108658</ele>
        <time>2022-05-03T10:38:39.638Z</time>
      </trkpt>
      <trkpt lat="41.07325" lon="19.63701">
        <ele>55.060712</ele>
        <time>2022-05-03T10:38:42.653Z</time>
      </trkpt>
      <trkpt lat="41.07316" lon="19.637">
        <ele>55.016682</ele>
        <time>2022-05-03T10:38:45.602Z</time>
      </trkpt>
      <trkpt lat="41.07305" lon="19.63708">
        <ele>54.957304</ele>
        <time>2022-05-03T10:38:48.652Z</time>
      </trkpt>
      <trkpt lat="41.07296" lon="19.63713">
        <ele>54.910135</ele>
        <time>2022-05-03T10:38:50.638Z</time>
      </trkpt>
      <trkpt lat="41.07288" lon="19.63718">
        <ele>54.864436</ele>
        <time>2022-05-03T10:38:52.637Z</time>
      </trkpt>
      <trkpt lat="41.07277" lon="19.63725">
        <ele>54.807812</ele>
        <time>2022-05-03T10:38:55.607Z</time>
      </trkpt>
      <trkpt lat="41.07266" lon="19.63721">
        <ele>54.750433</ele>
        <time>2022-05-03T10:38:59.634Z</time>
      </trkpt>
      <trkpt lat="41.07257" lon="19.63712">
        <ele>54.694889</ele>
        <time>2022-05-03T10:39:02.627Z</time>
      </trkpt>
      <trkpt lat="41.07246" lon="19.63703">
        <ele>54.635284</ele>
        <time>2022-05-03T10:39:05.619Z</time>
      </trkpt>
      <trkpt lat="41.07234" lon="19.63703">
        <ele>54.574184</ele>
        <time>2022-05-03T10:39:08.639Z</time>
      </trkpt>
      <trkpt lat="41.07226" lon="19.63708">
        <ele>54.530061</ele>
        <time>2022-05-03T10:39:10.649Z</time>
      </trkpt>
      <trkpt lat="41.07217" lon="19.63714">
        <ele>54.48577</ele>
        <time>2022-05-03T10:39:13.632Z</time>
      </trkpt>
      <trkpt lat="41.07212" lon="19.63699">
        <ele>54.427152</ele>
        <time>2022-05-03T10:39:17.603Z</time>
      </trkpt>
      <trkpt lat="41.0721" lon="19.63687">
        <ele>54.382008</ele>
        <time>2022-05-03T10:39:19.632Z</time>
      </trkpt>
      <trkpt lat="41.07207" lon="19.63676">
        <ele>54.337012</ele>
        <time>2022-05-03T10:39:21.627Z</time>
      </trkpt>
      <trkpt lat="41.07203" lon="19.63665">
        <ele>54.292354</ele>
        <time>2022-05-03T10:39:23.617Z</time>
      </trkpt>
      <trkpt lat="41.07199" lon="19.63649">
        <ele>54.126544</ele>
        <time>2022-05-03T10:39:26.633Z</time>
      </trkpt>
      <trkpt lat="41.07197" lon="19.63638">
        <ele>53.999499</ele>
        <time>2022-05-03T10:39:28.670Z</time>
      </trkpt>
      <trkpt lat="41.07196" lon="19.63624">
        <ele>53.848711</ele>
        <time>2022-05-03T10:39:30.654Z</time>
      </trkpt>
      <trkpt lat="41.07195" lon="19.6361">
        <ele>53.703257</ele>
        <time>2022-05-03T10:39:32.636Z</time>
      </trkpt>
      <trkpt lat="41.07197" lon="19.63597">
        <ele>53.562155</ele>
        <time>2022-05-03T10:39:34.615Z</time>
      </trkpt>
      <trkpt lat="41.072" lon="19.63585">
        <ele>53.432675</ele>
        <time>2022-05-03T10:39:36.606Z</time>
      </trkpt>
      <trkpt lat="41.07202" lon="19.63573">
        <ele>53.303964</ele>
        <time>2022-05-03T10:39:38.634Z</time>
      </trkpt>
      <trkpt lat="41.07204" lon="19.63562">
        <ele>53.176919</ele>
        <time>2022-05-03T10:39:40.612Z</time>
      </trkpt>
      <trkpt lat="41.07207" lon="19.63545">
        <ele>52.996654</ele>
        <time>2022-05-03T10:39:43.628Z</time>
      </trkpt>
      <trkpt lat="41.07211" lon="19.6353">
        <ele>52.822814</ele>
        <time>2022-05-03T10:39:46.634Z</time>
      </trkpt>
      <trkpt lat="41.07218" lon="19.63515">
        <ele>52.638251</ele>
        <time>2022-05-03T10:39:49.620Z</time>
      </trkpt>
      <trkpt lat="41.07228" lon="19.63503">
        <ele>52.450831</ele>
        <time>2022-05-03T10:39:52.625Z</time>
      </trkpt>
      <trkpt lat="41.0724" lon="19.63498">
        <ele>52.271408</ele>
        <time>2022-05-03T10:39:55.616Z</time>
      </trkpt>
      <trkpt lat="41.07252" lon="19.63496">
        <ele>52.102982</ele>
        <time>2022-05-03T10:39:58.658Z</time>
      </trkpt>
      <trkpt lat="41.07264" lon="19.63491">
        <ele>51.926804</ele>
        <time>2022-05-03T10:40:01.627Z</time>
      </trkpt>
      <trkpt lat="41.07275" lon="19.63483">
        <ele>51.757144</ele>
        <time>2022-05-03T10:40:04.658Z</time>
      </trkpt>
      <trkpt lat="41.07282" lon="19.63471">
        <ele>51.608939</ele>
        <time>2022-05-03T10:40:07.629Z</time>
      </trkpt>
      <trkpt lat="41.07288" lon="19.63457">
        <ele>51.46205</ele>
        <time>2022-05-03T10:40:10.658Z</time>
      </trkpt>
      <trkpt lat="41.07291" lon="19.63442">
        <ele>51.311071</ele>
        <time>2022-05-03T10:40:13.626Z</time>
      </trkpt>
      <trkpt lat="41.07296" lon="19.63426">
        <ele>51.150186</ele>
        <time>2022-05-03T10:40:16.621Z</time>
      </trkpt>
      <trkpt lat="41.073" lon="19.63414">
        <ele>51.034126</ele>
        <time>2022-05-03T10:40:18.616Z</time>
      </trkpt>
      <trkpt lat="41.07304" lon="19.63403">
        <ele>50.919762</ele>
        <time>2022-05-03T10:40:20.603Z</time>
      </trkpt>
      <trkpt lat="41.07308" lon="19.63392">
        <ele>50.80016</ele>
        <time>2022-05-03T10:40:22.649Z</time>
      </trkpt>
      <trkpt lat="41.07312" lon="19.6338">
        <ele>50.678057</ele>
        <time>2022-05-03T10:40:24.643Z</time>
      </trkpt>
      <trkpt lat="41.07317" lon="19.63369">
        <ele>50.558352</ele>
        <time>2022-05-03T10:40:26.628Z</time>
      </trkpt>
      <trkpt lat="41.07321" lon="19.63358">
        <ele>50.443203</ele>
        <time>2022-05-03T10:40:28.652Z</time>
      </trkpt>
      <trkpt lat="41.07325" lon="19.63347">
        <ele>50.328887</ele>
        <time>2022-05-03T10:40:30.624Z</time>
      </trkpt>
      <trkpt lat="41.0733" lon="19.63336">
        <ele>50.215065</ele>
        <time>2022-05-03T10:40:32.644Z</time>
      </trkpt>
      <trkpt lat="41.07334" lon="19.63325">
        <ele>50.099916</ele>
        <time>2022-05-03T10:40:34.675Z</time>
      </trkpt>
      <trkpt lat="41.07341" lon="19.6331">
        <ele>49.936108</ele>
        <time>2022-05-03T10:40:37.624Z</time>
      </trkpt>
      <trkpt lat="41.07348" lon="19.63295">
        <ele>49.774396</ele>
        <time>2022-05-03T10:40:40.629Z</time>
      </trkpt>
      <trkpt lat="41.07354" lon="19.63281">
        <ele>49.614441</ele>
        <time>2022-05-03T10:40:43.640Z</time>
      </trkpt>
      <trkpt lat="41.07361" lon="19.63266">
        <ele>49.636171</ele>
        <time>2022-05-03T10:40:46.625Z</time>
      </trkpt>
      <trkpt lat="41.07366" lon="19.63255">
        <ele>49.792058</ele>
        <time>2022-05-03T10:40:48.612Z</time>
      </trkpt>
      <trkpt lat="41.07371" lon="19.63246">
        <ele>49.945285</ele>
        <time>2022-05-03T10:40:50.618Z</time>
      </trkpt>
      <trkpt lat="41.07376" lon="19.63236">
        <ele>50.098511</ele>
        <time>2022-05-03T10:40:52.627Z</time>
      </trkpt>
      <trkpt lat="41.07384" lon="19.63221">
        <ele>50.323829</ele>
        <time>2022-05-03T10:40:55.636Z</time>
      </trkpt>
      <trkpt lat="41.07389" lon="19.63211">
        <ele>50.484484</ele>
        <time>2022-05-03T10:40:57.626Z</time>
      </trkpt>
      <trkpt lat="41.07397" lon="19.63197">
        <ele>50.709611</ele>
        <time>2022-05-03T10:41:00.618Z</time>
      </trkpt>
      <trkpt lat="41.07404" lon="19.63183">
        <ele>50.934792</ele>
        <time>2022-05-03T10:41:03.644Z</time>
      </trkpt>
      <trkpt lat="41.07412" lon="19.63168">
        <ele>51.160625</ele>
        <time>2022-05-03T10:41:06.636Z</time>
      </trkpt>
      <trkpt lat="41.07419" lon="19.63153">
        <ele>51.386159</ele>
        <time>2022-05-03T10:41:09.624Z</time>
      </trkpt>
      <trkpt lat="41.07426" lon="19.63139">
        <ele>51.602725</ele>
        <time>2022-05-03T10:41:12.629Z</time>
      </trkpt>
      <trkpt lat="41.07432" lon="19.63126">
        <ele>51.808429</ele>
        <time>2022-05-03T10:41:15.628Z</time>
      </trkpt>
      <trkpt lat="41.07439" lon="19.63112">
        <ele>52.013183</ele>
        <time>2022-05-03T10:41:18.665Z</time>
      </trkpt>
      <trkpt lat="41.07446" lon="19.63099">
        <ele>52.225982</ele>
        <time>2022-05-03T10:41:21.638Z</time>
      </trkpt>
      <trkpt lat="41.07453" lon="19.63087">
        <ele>52.429536</ele>
        <time>2022-05-03T10:41:24.616Z</time>
      </trkpt>
      <trkpt lat="41.0746" lon="19.63075">
        <ele>52.608145</ele>
        <time>2022-05-03T10:41:27.616Z</time>
      </trkpt>
      <trkpt lat="41.07467" lon="19.63063">
        <ele>52.672589</ele>
        <time>2022-05-03T10:41:30.604Z</time>
      </trkpt>
      <trkpt lat="41.07474" lon="19.63053">
        <ele>52.733616</ele>
        <time>2022-05-03T10:41:33.626Z</time>
      </trkpt>
      <trkpt lat="41.07481" lon="19.63042">
        <ele>52.795022</ele>
        <time>2022-05-03T10:41:36.617Z</time>
      </trkpt>
      <trkpt lat="41.07487" lon="19.63031">
        <ele>52.856999</ele>
        <time>2022-05-03T10:41:39.626Z</time>
      </trkpt>
      <trkpt lat="41.07494" lon="19.63019">
        <ele>52.920371</ele>
        <time>2022-05-03T10:41:42.630Z</time>
      </trkpt>
      <trkpt lat="41.075" lon="19.63008">
        <ele>52.980954</ele>
        <time>2022-05-03T10:41:45.635Z</time>
      </trkpt>
      <trkpt lat="41.07506" lon="19.62996">
        <ele>53.045764</ele>
        <time>2022-05-03T10:41:48.605Z</time>
      </trkpt>
      <trkpt lat="41.07512" lon="19.62984">
        <ele>53.109633</ele>
        <time>2022-05-03T10:41:51.617Z</time>
      </trkpt>
      <trkpt lat="41.07519" lon="19.62972">
        <ele>53.173706</ele>
        <time>2022-05-03T10:41:54.625Z</time>
      </trkpt>
      <trkpt lat="41.07526" lon="19.6296">
        <ele>53.238157</ele>
        <time>2022-05-03T10:41:57.643Z</time>
      </trkpt>
      <trkpt lat="41.07532" lon="19.62948">
        <ele>53.303642</ele>
        <time>2022-05-03T10:42:00.620Z</time>
      </trkpt>
      <trkpt lat="41.07538" lon="19.62935">
        <ele>53.371461</ele>
        <time>2022-05-03T10:42:03.616Z</time>
      </trkpt>
      <trkpt lat="41.07545" lon="19.62922">
        <ele>53.440591</ele>
        <time>2022-05-03T10:42:06.627Z</time>
      </trkpt>
      <trkpt lat="41.07551" lon="19.62909">
        <ele>53.507616</ele>
        <time>2022-05-03T10:42:09.630Z</time>
      </trkpt>
      <trkpt lat="41.07558" lon="19.62895">
        <ele>53.577482</ele>
        <time>2022-05-03T10:42:12.596Z</time>
      </trkpt>
      <trkpt lat="41.07564" lon="19.62882">
        <ele>53.645065</ele>
        <time>2022-05-03T10:42:15.630Z</time>
      </trkpt>
      <trkpt lat="41.0757" lon="19.6287">
        <ele>53.572282</ele>
        <time>2022-05-03T10:42:18.627Z</time>
      </trkpt>
      <trkpt lat="41.07577" lon="19.62858">
        <ele>53.497236</ele>
        <time>2022-05-03T10:42:21.627Z</time>
      </trkpt>
      <trkpt lat="41.07585" lon="19.62845">
        <ele>53.417868</ele>
        <time>2022-05-03T10:42:24.629Z</time>
      </trkpt>
      <trkpt lat="41.07592" lon="19.62832">
        <ele>53.338111</ele>
        <time>2022-05-03T10:42:27.634Z</time>
      </trkpt>
      <trkpt lat="41.07599" lon="19.62818">
        <ele>53.253817</ele>
        <time>2022-05-03T10:42:30.640Z</time>
      </trkpt>
      <trkpt lat="41.07604" lon="19.62807">
        <ele>53.19324</ele>
        <time>2022-05-03T10:42:32.624Z</time>
      </trkpt>
      <trkpt lat="41.07609" lon="19.62797">
        <ele>53.134009</ele>
        <time>2022-05-03T10:42:34.629Z</time>
      </trkpt>
      <trkpt lat="41.07614" lon="19.62787">
        <ele>53.074648</ele>
        <time>2022-05-03T10:42:36.636Z</time>
      </trkpt>
      <trkpt lat="41.07619" lon="19.62778">
        <ele>53.016092</ele>
        <time>2022-05-03T10:42:38.612Z</time>
      </trkpt>
      <trkpt lat="41.07626" lon="19.62768">
        <ele>52.953846</ele>
        <time>2022-05-03T10:42:40.621Z</time>
      </trkpt>
      <trkpt lat="41.07632" lon="19.62759">
        <ele>52.892029</ele>
        <time>2022-05-03T10:42:42.626Z</time>
      </trkpt>
      <trkpt lat="41.0764" lon="19.62745">
        <ele>52.802826</ele>
        <time>2022-05-03T10:42:45.622Z</time>
      </trkpt>
      <trkpt lat="41.07647" lon="19.62735">
        <ele>52.737824</ele>
        <time>2022-05-03T10:42:47.628Z</time>
      </trkpt>
      <trkpt lat="41.07655" lon="19.62726">
        <ele>52.671339</ele>
        <time>2022-05-03T10:42:49.631Z</time>
      </trkpt>
      <trkpt lat="41.07662" lon="19.62717">
        <ele>52.608998</ele>
        <time>2022-05-03T10:42:51.639Z</time>
      </trkpt>
      <trkpt lat="41.07668" lon="19.62709">
        <ele>52.549196</ele>
        <time>2022-05-03T10:42:53.626Z</time>
      </trkpt>
      <trkpt lat="41.07675" lon="19.627">
        <ele>52.489745</ele>
        <time>2022-05-03T10:42:55.635Z</time>
      </trkpt>
      <trkpt lat="41.07681" lon="19.62691">
        <ele>52.476679</ele>
        <time>2022-05-03T10:42:57.613Z</time>
      </trkpt>
      <trkpt lat="41.07688" lon="19.62682">
        <ele>52.483559</ele>
        <time>2022-05-03T10:42:59.622Z</time>
      </trkpt>
      <trkpt lat="41.07694" lon="19.62673">
        <ele>52.490518</ele>
        <time>2022-05-03T10:43:01.630Z</time>
      </trkpt>
      <trkpt lat="41.07701" lon="19.62665">
        <ele>52.497491</ele>
        <time>2022-05-03T10:43:03.666Z</time>
      </trkpt>
      <trkpt lat="41.07708" lon="19.62657">
        <ele>52.504099</ele>
        <time>2022-05-03T10:43:05.629Z</time>
      </trkpt>
      <trkpt lat="41.07715" lon="19.62648">
        <ele>52.510963</ele>
        <time>2022-05-03T10:43:07.635Z</time>
      </trkpt>
      <trkpt lat="41.07722" lon="19.62641">
        <ele>52.517793</ele>
        <time>2022-05-03T10:43:09.611Z</time>
      </trkpt>
      <trkpt lat="41.0773" lon="19.62633">
        <ele>52.524486</ele>
        <time>2022-05-03T10:43:11.620Z</time>
      </trkpt>
      <trkpt lat="41.07737" lon="19.62627">
        <ele>52.531096</ele>
        <time>2022-05-03T10:43:13.636Z</time>
      </trkpt>
      <trkpt lat="41.07749" lon="19.62617">
        <ele>52.540942</ele>
        <time>2022-05-03T10:43:16.644Z</time>
      </trkpt>
      <trkpt lat="41.07759" lon="19.62609">
        <ele>52.54983</ele>
        <time>2022-05-03T10:43:19.626Z</time>
      </trkpt>
      <trkpt lat="41.0777" lon="19.62601">
        <ele>52.558738</ele>
        <time>2022-05-03T10:43:22.630Z</time>
      </trkpt>
      <trkpt lat="41.07781" lon="19.62591">
        <ele>52.568335</ele>
        <time>2022-05-03T10:43:25.603Z</time>
      </trkpt>
      <trkpt lat="41.07788" lon="19.62585">
        <ele>52.574975</ele>
        <time>2022-05-03T10:43:27.621Z</time>
      </trkpt>
      <trkpt lat="41.07797" lon="19.62578">
        <ele>52.582049</ele>
        <time>2022-05-03T10:43:29.623Z</time>
      </trkpt>
      <trkpt lat="41.07804" lon="19.62571">
        <ele>52.588934</ele>
        <time>2022-05-03T10:43:31.616Z</time>
      </trkpt>
      <trkpt lat="41.07812" lon="19.62564">
        <ele>52.595789</ele>
        <time>2022-05-03T10:43:33.637Z</time>
      </trkpt>
      <trkpt lat="41.0782" lon="19.62557">
        <ele>52.602859</ele>
        <time>2022-05-03T10:43:35.612Z</time>
      </trkpt>
      <trkpt lat="41.07828" lon="19.6255">
        <ele>52.620088</ele>
        <time>2022-05-03T10:43:37.613Z</time>
      </trkpt>
      <trkpt lat="41.07839" lon="19.6254">
        <ele>52.646557</ele>
        <time>2022-05-03T10:43:40.619Z</time>
      </trkpt>
      <trkpt lat="41.07847" lon="19.62534">
        <ele>52.665025</ele>
        <time>2022-05-03T10:43:42.630Z</time>
      </trkpt>
      <trkpt lat="41.07855" lon="19.62527">
        <ele>52.683506</ele>
        <time>2022-05-03T10:43:44.647Z</time>
      </trkpt>
      <trkpt lat="41.07863" lon="19.6252">
        <ele>52.702394</ele>
        <time>2022-05-03T10:43:46.675Z</time>
      </trkpt>
      <trkpt lat="41.07871" lon="19.62513">
        <ele>52.7205</ele>
        <time>2022-05-03T10:43:48.641Z</time>
      </trkpt>
      <trkpt lat="41.07881" lon="19.62502">
        <ele>52.746277</ele>
        <time>2022-05-03T10:43:51.639Z</time>
      </trkpt>
      <trkpt lat="41.07891" lon="19.62491">
        <ele>52.77102</ele>
        <time>2022-05-03T10:43:54.630Z</time>
      </trkpt>
      <trkpt lat="41.079" lon="19.6248">
        <ele>52.795857</ele>
        <time>2022-05-03T10:43:57.642Z</time>
      </trkpt>
      <trkpt lat="41.0791" lon="19.62468">
        <ele>52.82246</ele>
        <time>2022-05-03T10:44:00.636Z</time>
      </trkpt>
      <trkpt lat="41.07917" lon="19.62459">
        <ele>52.841101</ele>
        <time>2022-05-03T10:44:02.629Z</time>
      </trkpt>
      <trkpt lat="41.07925" lon="19.62451">
        <ele>52.859812</ele>
        <time>2022-05-03T10:44:04.610Z</time>
      </trkpt>
      <trkpt lat="41.07932" lon="19.62443">
        <ele>52.878615</ele>
        <time>2022-05-03T10:44:06.612Z</time>
      </trkpt>
      <trkpt lat="41.0794" lon="19.62434">
        <ele>52.898377</ele>
        <time>2022-05-03T10:44:08.625Z</time>
      </trkpt>
      <trkpt lat="41.07947" lon="19.62425">
        <ele>52.917423</ele>
        <time>2022-05-03T10:44:10.626Z</time>
      </trkpt>
      <trkpt lat="41.07954" lon="19.62416">
        <ele>52.936894</ele>
        <time>2022-05-03T10:44:12.624Z</time>
      </trkpt>
      <trkpt lat="41.07961" lon="19.62407">
        <ele>52.942737</ele>
        <time>2022-05-03T10:44:14.651Z</time>
      </trkpt>
      <trkpt lat="41.07969" lon="19.62398">
        <ele>52.787792</ele>
        <time>2022-05-03T10:44:16.620Z</time>
      </trkpt>
      <trkpt lat="41.07976" lon="19.62388">
        <ele>52.630464</ele>
        <time>2022-05-03T10:44:18.624Z</time>
      </trkpt>
      <trkpt lat="41.07983" lon="19.62379">
        <ele>52.472596</ele>
        <time>2022-05-03T10:44:20.663Z</time>
      </trkpt>
      <trkpt lat="41.07991" lon="19.62369">
        <ele>52.317156</ele>
        <time>2022-05-03T10:44:22.616Z</time>
      </trkpt>
      <trkpt lat="41.07998" lon="19.62359">
        <ele>52.154707</ele>
        <time>2022-05-03T10:44:24.610Z</time>
      </trkpt>
      <trkpt lat="41.08006" lon="19.62349">
        <ele>51.986607</ele>
        <time>2022-05-03T10:44:26.655Z</time>
      </trkpt>
      <trkpt lat="41.08014" lon="19.62338">
        <ele>51.818507</ele>
        <time>2022-05-03T10:44:28.630Z</time>
      </trkpt>
      <trkpt lat="41.08022" lon="19.62328">
        <ele>51.651425</ele>
        <time>2022-05-03T10:44:30.634Z</time>
      </trkpt>
      <trkpt lat="41.0803" lon="19.62318">
        <ele>51.483233</ele>
        <time>2022-05-03T10:44:32.663Z</time>
      </trkpt>
      <trkpt lat="41.08038" lon="19.62308">
        <ele>51.313148</ele>
        <time>2022-05-03T10:44:34.634Z</time>
      </trkpt>
      <trkpt lat="41.08046" lon="19.62298">
        <ele>51.143388</ele>
        <time>2022-05-03T10:44:36.614Z</time>
      </trkpt>
      <trkpt lat="41.08054" lon="19.62287">
        <ele>50.970152</ele>
        <time>2022-05-03T10:44:38.638Z</time>
      </trkpt>
      <trkpt lat="41.08063" lon="19.62277">
        <ele>50.793137</ele>
        <time>2022-05-03T10:44:40.642Z</time>
      </trkpt>
      <trkpt lat="41.08071" lon="19.62266">
        <ele>50.618146</ele>
        <time>2022-05-03T10:44:42.615Z</time>
      </trkpt>
      <trkpt lat="41.0808" lon="19.62256">
        <ele>50.443813</ele>
        <time>2022-05-03T10:44:44.623Z</time>
      </trkpt>
      <trkpt lat="41.08088" lon="19.62245">
        <ele>50.26548</ele>
        <time>2022-05-03T10:44:46.627Z</time>
      </trkpt>
      <trkpt lat="41.08096" lon="19.62233">
        <ele>50.074562</ele>
        <time>2022-05-03T10:44:48.662Z</time>
      </trkpt>
      <trkpt lat="41.08105" lon="19.62222">
        <ele>49.875554</ele>
        <time>2022-05-03T10:44:50.627Z</time>
      </trkpt>
      <trkpt lat="41.08114" lon="19.62211">
        <ele>49.680545</ele>
        <time>2022-05-03T10:44:52.627Z</time>
      </trkpt>
      <trkpt lat="41.08122" lon="19.62199">
        <ele>49.484389</ele>
        <time>2022-05-03T10:44:54.662Z</time>
      </trkpt>
      <trkpt lat="41.08131" lon="19.62188">
        <ele>49.285061</ele>
        <time>2022-05-03T10:44:56.627Z</time>
      </trkpt>
      <trkpt lat="41.0814" lon="19.62175">
        <ele>49.08331</ele>
        <time>2022-05-03T10:44:58.630Z</time>
      </trkpt>
      <trkpt lat="41.08149" lon="19.62163">
        <ele>48.876873</ele>
        <time>2022-05-03T10:45:00.630Z</time>
      </trkpt>
      <trkpt lat="41.08158" lon="19.62151">
        <ele>48.669013</ele>
        <time>2022-05-03T10:45:02.612Z</time>
      </trkpt>
      <trkpt lat="41.08167" lon="19.62139">
        <ele>48.458847</ele>
        <time>2022-05-03T10:45:04.638Z</time>
      </trkpt>
      <trkpt lat="41.08176" lon="19.62126">
        <ele>48.247554</ele>
        <time>2022-05-03T10:45:06.632Z</time>
      </trkpt>
      <trkpt lat="41.08185" lon="19.62114">
        <ele>48.033131</ele>
        <time>2022-05-03T10:45:08.617Z</time>
      </trkpt>
      <trkpt lat="41.08195" lon="19.62101">
        <ele>47.817566</ele>
        <time>2022-05-03T10:45:10.614Z</time>
      </trkpt>
      <trkpt lat="41.08205" lon="19.62089">
        <ele>47.603059</ele>
        <time>2022-05-03T10:45:12.626Z</time>
      </trkpt>
      <trkpt lat="41.08214" lon="19.62077">
        <ele>47.391492</ele>
        <time>2022-05-03T10:45:14.630Z</time>
      </trkpt>
      <trkpt lat="41.08223" lon="19.62065">
        <ele>47.291497</ele>
        <time>2022-05-03T10:45:16.671Z</time>
      </trkpt>
      <trkpt lat="41.08232" lon="19.62053">
        <ele>47.2426</ele>
        <time>2022-05-03T10:45:18.629Z</time>
      </trkpt>
      <trkpt lat="41.08241" lon="19.62041">
        <ele>47.196422</ele>
        <time>2022-05-03T10:45:20.635Z</time>
      </trkpt>
      <trkpt lat="41.0825" lon="19.6203">
        <ele>47.151697</ele>
        <time>2022-05-03T10:45:22.647Z</time>
      </trkpt>
      <trkpt lat="41.08259" lon="19.62019">
        <ele>47.10519</ele>
        <time>2022-05-03T10:45:24.627Z</time>
      </trkpt>
      <trkpt lat="41.08266" lon="19.62008">
        <ele>47.064629</ele>
        <time>2022-05-03T10:45:26.631Z</time>
      </trkpt>
      <trkpt lat="41.08274" lon="19.61999">
        <ele>47.025897</ele>
        <time>2022-05-03T10:45:28.619Z</time>
      </trkpt>
      <trkpt lat="41.08282" lon="19.6199">
        <ele>46.986046</ele>
        <time>2022-05-03T10:45:30.622Z</time>
      </trkpt>
      <trkpt lat="41.0829" lon="19.61981">
        <ele>46.947697</ele>
        <time>2022-05-03T10:45:32.638Z</time>
      </trkpt>
      <trkpt lat="41.08297" lon="19.61972">
        <ele>46.911014</ele>
        <time>2022-05-03T10:45:34.622Z</time>
      </trkpt>
      <trkpt lat="41.08304" lon="19.61964">
        <ele>46.875176</ele>
        <time>2022-05-03T10:45:36.625Z</time>
      </trkpt>
      <trkpt lat="41.08313" lon="19.61952">
        <ele>46.827476</ele>
        <time>2022-05-03T10:45:39.606Z</time>
      </trkpt>
      <trkpt lat="41.08323" lon="19.61941">
        <ele>46.780473</ele>
        <time>2022-05-03T10:45:42.611Z</time>
      </trkpt>
      <trkpt lat="41.08333" lon="19.61928">
        <ele>46.729334</ele>
        <time>2022-05-03T10:45:45.617Z</time>
      </trkpt>
      <trkpt lat="41.08339" lon="19.61919">
        <ele>46.693793</ele>
        <time>2022-05-03T10:45:47.605Z</time>
      </trkpt>
      <trkpt lat="41.08346" lon="19.6191">
        <ele>46.659636</ele>
        <time>2022-05-03T10:45:49.611Z</time>
      </trkpt>
      <trkpt lat="41.08353" lon="19.61901">
        <ele>46.745109</ele>
        <time>2022-05-03T10:45:51.609Z</time>
      </trkpt>
      <trkpt lat="41.0836" lon="19.61891">
        <ele>46.868083</ele>
        <time>2022-05-03T10:45:53.671Z</time>
      </trkpt>
      <trkpt lat="41.08366" lon="19.61881">
        <ele>46.991384</ele>
        <time>2022-05-03T10:45:55.628Z</time>
      </trkpt>
      <trkpt lat="41.08373" lon="19.6187">
        <ele>47.117811</ele>
        <time>2022-05-03T10:45:57.624Z</time>
      </trkpt>
      <trkpt lat="41.08381" lon="19.61859">
        <ele>47.249956</ele>
        <time>2022-05-03T10:45:59.619Z</time>
      </trkpt>
      <trkpt lat="41.08388" lon="19.61848">
        <ele>47.380641</ele>
        <time>2022-05-03T10:46:01.655Z</time>
      </trkpt>
      <trkpt lat="41.08395" lon="19.61838">
        <ele>47.507357</ele>
        <time>2022-05-03T10:46:03.607Z</time>
      </trkpt>
      <trkpt lat="41.08403" lon="19.61828">
        <ele>47.634242</ele>
        <time>2022-05-03T10:46:05.635Z</time>
      </trkpt>
      <trkpt lat="41.0841" lon="19.61818">
        <ele>47.759204</ele>
        <time>2022-05-03T10:46:07.616Z</time>
      </trkpt>
      <trkpt lat="41.08417" lon="19.61808">
        <ele>47.884302</ele>
        <time>2022-05-03T10:46:09.631Z</time>
      </trkpt>
      <trkpt lat="41.08424" lon="19.61797">
        <ele>48.0094</ele>
        <time>2022-05-03T10:46:11.623Z</time>
      </trkpt>
      <trkpt lat="41.08432" lon="19.61787">
        <ele>48.133838</ele>
        <time>2022-05-03T10:46:13.637Z</time>
      </trkpt>
      <trkpt lat="41.08439" lon="19.61777">
        <ele>48.261864</ele>
        <time>2022-05-03T10:46:15.610Z</time>
      </trkpt>
      <trkpt lat="41.08446" lon="19.61766">
        <ele>48.394009</ele>
        <time>2022-05-03T10:46:17.628Z</time>
      </trkpt>
      <trkpt lat="41.08454" lon="19.61755">
        <ele>48.522035</ele>
        <time>2022-05-03T10:46:19.622Z</time>
      </trkpt>
      <trkpt lat="41.08461" lon="19.61744">
        <ele>48.652185</ele>
        <time>2022-05-03T10:46:21.613Z</time>
      </trkpt>
      <trkpt lat="41.08469" lon="19.61733">
        <ele>48.785925</ele>
        <time>2022-05-03T10:46:23.630Z</time>
      </trkpt>
      <trkpt lat="41.08476" lon="19.61722">
        <ele>48.712788</ele>
        <time>2022-05-03T10:46:25.627Z</time>
      </trkpt>
      <trkpt lat="41.08483" lon="19.61711">
        <ele>48.629775</ele>
        <time>2022-05-03T10:46:27.622Z</time>
      </trkpt>
      <trkpt lat="41.0849" lon="19.61699">
        <ele>48.547632</ele>
        <time>2022-05-03T10:46:29.633Z</time>
      </trkpt>
      <trkpt lat="41.08497" lon="19.61688">
        <ele>48.463625</ele>
        <time>2022-05-03T10:46:31.614Z</time>
      </trkpt>
      <trkpt lat="41.08504" lon="19.61677">
        <ele>48.379559</ele>
        <time>2022-05-03T10:46:33.626Z</time>
      </trkpt>
      <trkpt lat="41.08512" lon="19.61666">
        <ele>48.297088</ele>
        <time>2022-05-03T10:46:35.683Z</time>
      </trkpt>
      <trkpt lat="41.08519" lon="19.61655">
        <ele>48.214286</ele>
        <time>2022-05-03T10:46:37.618Z</time>
      </trkpt>
      <trkpt lat="41.08526" lon="19.61644">
        <ele>48.132892</ele>
        <time>2022-05-03T10:46:39.618Z</time>
      </trkpt>
      <trkpt lat="41.08533" lon="19.61633">
        <ele>48.052473</ele>
        <time>2022-05-03T10:46:41.604Z</time>
      </trkpt>
      <trkpt lat="41.0854" lon="19.61622">
        <ele>47.971992</ele>
        <time>2022-05-03T10:46:43.630Z</time>
      </trkpt>
      <trkpt lat="41.08548" lon="19.61612">
        <ele>47.891858</ele>
        <time>2022-05-03T10:46:45.642Z</time>
      </trkpt>
      <trkpt lat="41.08555" lon="19.61601">
        <ele>47.810953</ele>
        <time>2022-05-03T10:46:47.620Z</time>
      </trkpt>
      <trkpt lat="41.08562" lon="19.6159">
        <ele>47.729981</ele>
        <time>2022-05-03T10:46:49.626Z</time>
      </trkpt>
      <trkpt lat="41.08569" lon="19.61579">
        <ele>47.649989</ele>
        <time>2022-05-03T10:46:51.630Z</time>
      </trkpt>
      <trkpt lat="41.08576" lon="19.61568">
        <ele>47.569996</ele>
        <time>2022-05-03T10:46:53.636Z</time>
      </trkpt>
      <trkpt lat="41.08582" lon="19.61559">
        <ele>47.497106</ele>
        <time>2022-05-03T10:46:55.628Z</time>
      </trkpt>
      <trkpt lat="41.08589" lon="19.61548">
        <ele>47.520038</ele>
        <time>2022-05-03T10:46:57.635Z</time>
      </trkpt>
      <trkpt lat="41.08596" lon="19.61538">
        <ele>47.701139</ele>
        <time>2022-05-03T10:46:59.616Z</time>
      </trkpt>
      <trkpt lat="41.08603" lon="19.61527">
        <ele>47.88237</ele>
        <time>2022-05-03T10:47:01.619Z</time>
      </trkpt>
      <trkpt lat="41.0861" lon="19.61517">
        <ele>48.054732</ele>
        <time>2022-05-03T10:47:03.627Z</time>
      </trkpt>
      <trkpt lat="41.08616" lon="19.61507">
        <ele>48.228048</ele>
        <time>2022-05-03T10:47:05.619Z</time>
      </trkpt>
      <trkpt lat="41.08623" lon="19.61497">
        <ele>48.407328</ele>
        <time>2022-05-03T10:47:07.626Z</time>
      </trkpt>
      <trkpt lat="41.08631" lon="19.61486">
        <ele>48.599079</ele>
        <time>2022-05-03T10:47:09.630Z</time>
      </trkpt>
      <trkpt lat="41.08638" lon="19.61475">
        <ele>48.791443</ele>
        <time>2022-05-03T10:47:11.628Z</time>
      </trkpt>
      <trkpt lat="41.08646" lon="19.61465">
        <ele>48.97745</ele>
        <time>2022-05-03T10:47:13.638Z</time>
      </trkpt>
      <trkpt lat="41.08653" lon="19.61454">
        <ele>49.165574</ele>
        <time>2022-05-03T10:47:15.664Z</time>
      </trkpt>
      <trkpt lat="41.08661" lon="19.61444">
        <ele>49.349464</ele>
        <time>2022-05-03T10:47:17.618Z</time>
      </trkpt>
      <trkpt lat="41.08668" lon="19.61433">
        <ele>49.529882</ele>
        <time>2022-05-03T10:47:19.627Z</time>
      </trkpt>
      <trkpt lat="41.08674" lon="19.61423">
        <ele>49.699936</ele>
        <time>2022-05-03T10:47:21.650Z</time>
      </trkpt>
      <trkpt lat="41.08681" lon="19.61414">
        <ele>49.869027</ele>
        <time>2022-05-03T10:47:23.611Z</time>
      </trkpt>
      <trkpt lat="41.08687" lon="19.61404">
        <ele>50.03179</ele>
        <time>2022-05-03T10:47:25.627Z</time>
      </trkpt>
      <trkpt lat="41.08693" lon="19.61395">
        <ele>50.191673</ele>
        <time>2022-05-03T10:47:27.684Z</time>
      </trkpt>
      <trkpt lat="41.08702" lon="19.61382">
        <ele>50.420841</ele>
        <time>2022-05-03T10:47:30.624Z</time>
      </trkpt>
      <trkpt lat="41.08711" lon="19.61369">
        <ele>50.515623</ele>
        <time>2022-05-03T10:47:33.638Z</time>
      </trkpt>
      <trkpt lat="41.08719" lon="19.61356">
        <ele>50.463099</ele>
        <time>2022-05-03T10:47:36.635Z</time>
      </trkpt>
      <trkpt lat="41.08727" lon="19.61342">
        <ele>50.408352</ele>
        <time>2022-05-03T10:47:39.624Z</time>
      </trkpt>
      <trkpt lat="41.08733" lon="19.61333">
        <ele>50.370444</ele>
        <time>2022-05-03T10:47:41.619Z</time>
      </trkpt>
      <trkpt lat="41.08739" lon="19.61323">
        <ele>50.3323</ele>
        <time>2022-05-03T10:47:43.640Z</time>
      </trkpt>
      <trkpt lat="41.08745" lon="19.61313">
        <ele>50.293921</ele>
        <time>2022-05-03T10:47:45.624Z</time>
      </trkpt>
      <trkpt lat="41.08751" lon="19.61304">
        <ele>50.254989</ele>
        <time>2022-05-03T10:47:47.631Z</time>
      </trkpt>
      <trkpt lat="41.08758" lon="19.61293">
        <ele>50.214161</ele>
        <time>2022-05-03T10:47:49.662Z</time>
      </trkpt>
      <trkpt lat="41.08765" lon="19.61283">
        <ele>50.172779</ele>
        <time>2022-05-03T10:47:51.626Z</time>
      </trkpt>
      <trkpt lat="41.08771" lon="19.61273">
        <ele>50.131166</ele>
        <time>2022-05-03T10:47:53.628Z</time>
      </trkpt>
      <trkpt lat="41.08778" lon="19.61263">
        <ele>50.090014</ele>
        <time>2022-05-03T10:47:55.612Z</time>
      </trkpt>
      <trkpt lat="41.08785" lon="19.61253">
        <ele>50.049092</ele>
        <time>2022-05-03T10:47:57.610Z</time>
      </trkpt>
      <trkpt lat="41.08791" lon="19.61243">
        <ele>50.009892</ele>
        <time>2022-05-03T10:47:59.645Z</time>
      </trkpt>
      <trkpt lat="41.08798" lon="19.61234">
        <ele>49.970423</ele>
        <time>2022-05-03T10:48:01.662Z</time>
      </trkpt>
      <trkpt lat="41.08804" lon="19.61224">
        <ele>49.930795</ele>
        <time>2022-05-03T10:48:03.618Z</time>
      </trkpt>
      <trkpt lat="41.0881" lon="19.61214">
        <ele>49.891685</ele>
        <time>2022-05-03T10:48:05.627Z</time>
      </trkpt>
      <trkpt lat="41.08816" lon="19.61204">
        <ele>49.851561</ele>
        <time>2022-05-03T10:48:07.669Z</time>
      </trkpt>
      <trkpt lat="41.08823" lon="19.61194">
        <ele>49.812398</ele>
        <time>2022-05-03T10:48:09.627Z</time>
      </trkpt>
      <trkpt lat="41.08828" lon="19.61183">
        <ele>50.030589</ele>
        <time>2022-05-03T10:48:11.626Z</time>
      </trkpt>
      <trkpt lat="41.08829" lon="19.61171">
        <ele>50.259004</ele>
        <time>2022-05-03T10:48:13.630Z</time>
      </trkpt>
      <trkpt lat="41.08828" lon="19.61159">
        <ele>50.501538</ele>
        <time>2022-05-03T10:48:15.617Z</time>
      </trkpt>
      <trkpt lat="41.08825" lon="19.61147">
        <ele>50.740838</ele>
        <time>2022-05-03T10:48:17.616Z</time>
      </trkpt>
      <trkpt lat="41.08819" lon="19.61131">
        <ele>51.066183</ele>
        <time>2022-05-03T10:48:20.671Z</time>
      </trkpt>
      <trkpt lat="41.08816" lon="19.61114">
        <ele>51.401921</ele>
        <time>2022-05-03T10:48:23.650Z</time>
      </trkpt>
      <trkpt lat="41.08821" lon="19.61102">
        <ele>51.683317</ele>
        <time>2022-05-03T10:48:26.631Z</time>
      </trkpt>
      <trkpt lat="41.08832" lon="19.61091">
        <ele>52.013638</ele>
        <time>2022-05-03T10:48:29.624Z</time>
      </trkpt>
      <trkpt lat="41.08841" lon="19.61078">
        <ele>52.356316</ele>
        <time>2022-05-03T10:48:32.624Z</time>
      </trkpt>
      <trkpt lat="41.08849" lon="19.6107">
        <ele>52.614493</ele>
        <time>2022-05-03T10:48:34.623Z</time>
      </trkpt>
      <trkpt lat="41.08858" lon="19.61065">
        <ele>52.852917</ele>
        <time>2022-05-03T10:48:36.678Z</time>
      </trkpt>
      <trkpt lat="41.08869" lon="19.61062">
        <ele>53.145043</ele>
        <time>2022-05-03T10:48:39.656Z</time>
      </trkpt>
      <trkpt lat="41.08879" lon="19.61061">
        <ele>53.385446</ele>
        <time>2022-05-03T10:48:43.623Z</time>
      </trkpt>
      <trkpt lat="41.08888" lon="19.61062">
        <ele>53.615791</ele>
        <time>2022-05-03T10:48:49.631Z</time>
      </trkpt>
      <trkpt lat="41.08897" lon="19.61064">
        <ele>53.857635</ele>
        <time>2022-05-03T10:48:55.606Z</time>
      </trkpt>
      <trkpt lat="41.08907" lon="19.6107">
        <ele>54.12218</ele>
        <time>2022-05-03T10:49:02.624Z</time>
      </trkpt>
      <trkpt lat="41.08915" lon="19.61076">
        <ele>54.346284</ele>
        <time>2022-05-03T10:49:08.613Z</time>
      </trkpt>
      <trkpt lat="41.08923" lon="19.61085">
        <ele>54.345705</ele>
        <time>2022-05-03T10:49:15.624Z</time>
      </trkpt>
      <trkpt lat="41.08929" lon="19.61097">
        <ele>54.345128</ele>
        <time>2022-05-03T10:49:22.628Z</time>
      </trkpt>
      <trkpt lat="41.08934" lon="19.61109">
        <ele>54.34453</ele>
        <time>2022-05-03T10:49:27.627Z</time>
      </trkpt>
      <trkpt lat="41.08939" lon="19.61122">
        <ele>54.343957</ele>
        <time>2022-05-03T10:49:31.660Z</time>
      </trkpt>
      <trkpt lat="41.08944" lon="19.61136">
        <ele>54.343304</ele>
        <time>2022-05-03T10:49:34.622Z</time>
      </trkpt>
      <trkpt lat="41.08947" lon="19.61148">
        <ele>54.342773</ele>
        <time>2022-05-03T10:49:36.637Z</time>
      </trkpt>
      <trkpt lat="41.0895" lon="19.61161">
        <ele>54.342181</ele>
        <time>2022-05-03T10:49:38.611Z</time>
      </trkpt>
      <trkpt lat="41.08952" lon="19.61177">
        <ele>54.341513</ele>
        <time>2022-05-03T10:49:40.629Z</time>
      </trkpt>
      <trkpt lat="41.08951" lon="19.61194">
        <ele>54.34082</ele>
        <time>2022-05-03T10:49:42.682Z</time>
      </trkpt>
      <trkpt lat="41.08948" lon="19.61211">
        <ele>54.340073</ele>
        <time>2022-05-03T10:49:44.624Z</time>
      </trkpt>
      <trkpt lat="41.08943" lon="19.61227">
        <ele>54.339343</ele>
        <time>2022-05-03T10:49:46.625Z</time>
      </trkpt>
      <trkpt lat="41.08935" lon="19.61241">
        <ele>54.338634</ele>
        <time>2022-05-03T10:49:48.620Z</time>
      </trkpt>
      <trkpt lat="41.08926" lon="19.61252">
        <ele>54.337928</ele>
        <time>2022-05-03T10:49:50.621Z</time>
      </trkpt>
      <trkpt lat="41.08915" lon="19.61261">
        <ele>54.337232</ele>
        <time>2022-05-03T10:49:52.677Z</time>
      </trkpt>
      <trkpt lat="41.08903" lon="19.61265">
        <ele>54.336519</ele>
        <time>2022-05-03T10:49:54.619Z</time>
      </trkpt>
      <trkpt lat="41.08891" lon="19.61267">
        <ele>54.676527</ele>
        <time>2022-05-03T10:49:56.724Z</time>
      </trkpt>
      <trkpt lat="41.08882" lon="19.61278">
        <ele>55.091605</ele>
        <time>2022-05-03T10:49:58.628Z</time>
      </trkpt>
      <trkpt lat="41.08882" lon="19.61294">
        <ele>55.514424</ele>
        <time>2022-05-03T10:50:00.608Z</time>
      </trkpt>
      <trkpt lat="41.08888" lon="19.61304">
        <ele>55.879686</ele>
        <time>2022-05-03T10:50:02.611Z</time>
      </trkpt>
      <trkpt lat="41.08896" lon="19.61313">
        <ele>56.244506</ele>
        <time>2022-05-03T10:50:04.674Z</time>
      </trkpt>
      <trkpt lat="41.08902" lon="19.61322">
        <ele>56.566688</ele>
        <time>2022-05-03T10:50:06.681Z</time>
      </trkpt>
      <trkpt lat="41.08911" lon="19.61335">
        <ele>57.032391</ele>
        <time>2022-05-03T10:50:09.628Z</time>
      </trkpt>
      <trkpt lat="41.08919" lon="19.61348">
        <ele>57.49011</ele>
        <time>2022-05-03T10:50:12.616Z</time>
      </trkpt>
      <trkpt lat="41.08927" lon="19.61359">
        <ele>57.904523</ele>
        <time>2022-05-03T10:50:15.664Z</time>
      </trkpt>
      <trkpt lat="41.08934" lon="19.61369">
        <ele>58.269109</ele>
        <time>2022-05-03T10:50:18.645Z</time>
      </trkpt>
      <trkpt lat="41.08941" lon="19.61382">
        <ele>58.69417</ele>
        <time>2022-05-03T10:50:22.615Z</time>
      </trkpt>
      <trkpt lat="41.08946" lon="19.61393">
        <ele>59.039188</ele>
        <time>2022-05-03T10:50:25.627Z</time>
      </trkpt>
      <trkpt lat="41.08953" lon="19.61403">
        <ele>59.396435</ele>
        <time>2022-05-03T10:50:28.629Z</time>
      </trkpt>
      <trkpt lat="41.08958" lon="19.61413">
        <ele>59.71895</ele>
        <time>2022-05-03T10:50:31.654Z</time>
      </trkpt>
      <trkpt lat="41.08963" lon="19.61423">
        <ele>60.040263</ele>
        <time>2022-05-03T10:50:35.634Z</time>
      </trkpt>
      <trkpt lat="41.08969" lon="19.61436">
        <ele>60.432463</ele>
        <time>2022-05-03T10:50:39.687Z</time>
      </trkpt>
      <trkpt lat="41.08974" lon="19.61447">
        <ele>60.737082</ele>
        <time>2022-05-03T10:50:43.628Z</time>
      </trkpt>
      <trkpt lat="41.08979" lon="19.61458">
        <ele>60.829133</ele>
        <time>2022-05-03T10:50:47.629Z</time>
      </trkpt>
      <trkpt lat="41.08984" lon="19.61469">
        <ele>60.920106</ele>
        <time>2022-05-03T10:50:51.629Z</time>
      </trkpt>
      <trkpt lat="41.0899" lon="19.61481">
        <ele>61.015679</ele>
        <time>2022-05-03T10:50:55.627Z</time>
      </trkpt>
      <trkpt lat="41.08996" lon="19.61491">
        <ele>61.110419</ele>
        <time>2022-05-03T10:50:59.675Z</time>
      </trkpt>
      <trkpt lat="41.09003" lon="19.61502">
        <ele>61.2094</ele>
        <time>2022-05-03T10:51:03.632Z</time>
      </trkpt>
      <trkpt lat="41.0901" lon="19.61512">
        <ele>61.309366</ele>
        <time>2022-05-03T10:51:07.628Z</time>
      </trkpt>
      <trkpt lat="41.0902" lon="19.61514">
        <ele>61.404746</ele>
        <time>2022-05-03T10:51:10.658Z</time>
      </trkpt>
      <trkpt lat="41.0903" lon="19.61508">
        <ele>61.502432</ele>
        <time>2022-05-03T10:51:13.626Z</time>
      </trkpt>
      <trkpt lat="41.09038" lon="19.61501">
        <ele>61.595737</ele>
        <time>2022-05-03T10:51:16.677Z</time>
      </trkpt>
      <trkpt lat="41.09046" lon="19.61493">
        <ele>61.690015</ele>
        <time>2022-05-03T10:51:19.615Z</time>
      </trkpt>
      <trkpt lat="41.09055" lon="19.61486">
        <ele>61.784907</ele>
        <time>2022-05-03T10:51:22.625Z</time>
      </trkpt>
      <trkpt lat="41.09065" lon="19.61477">
        <ele>61.897885</ele>
        <time>2022-05-03T10:51:25.628Z</time>
      </trkpt>
      <trkpt lat="41.09077" lon="19.61469">
        <ele>62.027156</ele>
        <time>2022-05-03T10:51:28.630Z</time>
      </trkpt>
      <trkpt lat="41.09086" lon="19.61462">
        <ele>62.119421</ele>
        <time>2022-05-03T10:51:30.621Z</time>
      </trkpt>
      <trkpt lat="41.09094" lon="19.61455">
        <ele>62.215067</ele>
        <time>2022-05-03T10:51:32.644Z</time>
      </trkpt>
      <trkpt lat="41.09103" lon="19.61447">
        <ele>62.311177</ele>
        <time>2022-05-03T10:51:34.639Z</time>
      </trkpt>
      <trkpt lat="41.09111" lon="19.61439">
        <ele>62.391922</ele>
        <time>2022-05-03T10:51:36.622Z</time>
      </trkpt>
      <trkpt lat="41.09119" lon="19.61431">
        <ele>62.08937</ele>
        <time>2022-05-03T10:51:38.663Z</time>
      </trkpt>
      <trkpt lat="41.09128" lon="19.61423">
        <ele>61.774825</ele>
        <time>2022-05-03T10:51:40.626Z</time>
      </trkpt>
      <trkpt lat="41.09137" lon="19.61414">
        <ele>61.44176</ele>
        <time>2022-05-03T10:51:42.618Z</time>
      </trkpt>
      <trkpt lat="41.09147" lon="19.61406">
        <ele>61.088799</ele>
        <time>2022-05-03T10:51:44.618Z</time>
      </trkpt>
      <trkpt lat="41.09158" lon="19.61397">
        <ele>60.710937</ele>
        <time>2022-05-03T10:51:46.632Z</time>
      </trkpt>
      <trkpt lat="41.09169" lon="19.61389">
        <ele>60.335622</ele>
        <time>2022-05-03T10:51:48.616Z</time>
      </trkpt>
      <trkpt lat="41.09181" lon="19.6138">
        <ele>59.951189</ele>
        <time>2022-05-03T10:51:50.631Z</time>
      </trkpt>
      <trkpt lat="41.09192" lon="19.61371">
        <ele>59.563671</ele>
        <time>2022-05-03T10:51:52.631Z</time>
      </trkpt>
      <trkpt lat="41.09203" lon="19.61363">
        <ele>59.175563</ele>
        <time>2022-05-03T10:51:54.626Z</time>
      </trkpt>
      <trkpt lat="41.09214" lon="19.61354">
        <ele>58.798479</ele>
        <time>2022-05-03T10:51:56.616Z</time>
      </trkpt>
      <trkpt lat="41.09226" lon="19.61346">
        <ele>58.408887</ele>
        <time>2022-05-03T10:51:58.628Z</time>
      </trkpt>
      <trkpt lat="41.09236" lon="19.61338">
        <ele>58.045402</ele>
        <time>2022-05-03T10:52:00.633Z</time>
      </trkpt>
      <trkpt lat="41.09247" lon="19.6133">
        <ele>57.686677</ele>
        <time>2022-05-03T10:52:02.630Z</time>
      </trkpt>
      <trkpt lat="41.09258" lon="19.61323">
        <ele>57.333758</ele>
        <time>2022-05-03T10:52:04.616Z</time>
      </trkpt>
      <trkpt lat="41.09268" lon="19.61315">
        <ele>57.038033</ele>
        <time>2022-05-03T10:52:06.666Z</time>
      </trkpt>
      <trkpt lat="41.09279" lon="19.61308">
        <ele>56.882539</ele>
        <time>2022-05-03T10:52:08.618Z</time>
      </trkpt>
      <trkpt lat="41.09289" lon="19.61301">
        <ele>56.729379</ele>
        <time>2022-05-03T10:52:10.624Z</time>
      </trkpt>
      <trkpt lat="41.09299" lon="19.61295">
        <ele>56.587076</ele>
        <time>2022-05-03T10:52:12.626Z</time>
      </trkpt>
      <trkpt lat="41.09309" lon="19.61288">
        <ele>56.443602</ele>
        <time>2022-05-03T10:52:14.632Z</time>
      </trkpt>
      <trkpt lat="41.09318" lon="19.61282">
        <ele>56.303034</ele>
        <time>2022-05-03T10:52:16.613Z</time>
      </trkpt>
      <trkpt lat="41.09327" lon="19.61276">
        <ele>56.168162</ele>
        <time>2022-05-03T10:52:18.636Z</time>
      </trkpt>
      <trkpt lat="41.09336" lon="19.61269">
        <ele>56.041317</ele>
        <time>2022-05-03T10:52:20.624Z</time>
      </trkpt>
      <trkpt lat="41.09347" lon="19.61261">
        <ele>55.87128</ele>
        <time>2022-05-03T10:52:23.630Z</time>
      </trkpt>
      <trkpt lat="41.09356" lon="19.61257">
        <ele>55.753105</ele>
        <time>2022-05-03T10:52:25.605Z</time>
      </trkpt>
      <trkpt lat="41.09364" lon="19.61251">
        <ele>55.633227</ele>
        <time>2022-05-03T10:52:27.615Z</time>
      </trkpt>
      <trkpt lat="41.09375" lon="19.61244">
        <ele>55.466352</ele>
        <time>2022-05-03T10:52:30.635Z</time>
      </trkpt>
      <trkpt lat="41.09384" lon="19.6124">
        <ele>55.347352</ele>
        <time>2022-05-03T10:52:32.628Z</time>
      </trkpt>
      <trkpt lat="41.09392" lon="19.61235">
        <ele>55.223997</ele>
        <time>2022-05-03T10:52:34.624Z</time>
      </trkpt>
      <trkpt lat="41.09401" lon="19.6123">
        <ele>55.104155</ele>
        <time>2022-05-03T10:52:36.635Z</time>
      </trkpt>
      <trkpt lat="41.0941" lon="19.61226">
        <ele>54.984487</ele>
        <time>2022-05-03T10:52:38.624Z</time>
      </trkpt>
      <trkpt lat="41.09418" lon="19.61222">
        <ele>54.865472</ele>
        <time>2022-05-03T10:52:40.628Z</time>
      </trkpt>
      <trkpt lat="41.09431" lon="19.61216">
        <ele>54.756299</ele>
        <time>2022-05-03T10:52:43.611Z</time>
      </trkpt>
      <trkpt lat="41.09443" lon="19.6121">
        <ele>54.896046</ele>
        <time>2022-05-03T10:52:46.616Z</time>
      </trkpt>
      <trkpt lat="41.09452" lon="19.61205">
        <ele>54.992378</ele>
        <time>2022-05-03T10:52:48.606Z</time>
      </trkpt>
      <trkpt lat="41.0946" lon="19.612">
        <ele>55.091712</ele>
        <time>2022-05-03T10:52:50.620Z</time>
      </trkpt>
      <trkpt lat="41.09469" lon="19.61196">
        <ele>55.190764</ele>
        <time>2022-05-03T10:52:52.616Z</time>
      </trkpt>
      <trkpt lat="41.09479" lon="19.61191">
        <ele>55.297011</ele>
        <time>2022-05-03T10:52:54.644Z</time>
      </trkpt>
      <trkpt lat="41.09488" lon="19.61187">
        <ele>55.404082</ele>
        <time>2022-05-03T10:52:56.642Z</time>
      </trkpt>
      <trkpt lat="41.09498" lon="19.61183">
        <ele>55.507056</ele>
        <time>2022-05-03T10:52:58.633Z</time>
      </trkpt>
      <trkpt lat="41.09507" lon="19.61179">
        <ele>55.608545</ele>
        <time>2022-05-03T10:53:00.631Z</time>
      </trkpt>
      <trkpt lat="41.09516" lon="19.61175">
        <ele>55.711518</ele>
        <time>2022-05-03T10:53:02.654Z</time>
      </trkpt>
      <trkpt lat="41.09526" lon="19.61171">
        <ele>55.816381</ele>
        <time>2022-05-03T10:53:04.624Z</time>
      </trkpt>
      <trkpt lat="41.09535" lon="19.61167">
        <ele>55.92337</ele>
        <time>2022-05-03T10:53:06.627Z</time>
      </trkpt>
      <trkpt lat="41.09545" lon="19.61163">
        <ele>56.027591</ele>
        <time>2022-05-03T10:53:08.652Z</time>
      </trkpt>
      <trkpt lat="41.09554" lon="19.61159">
        <ele>56.127564</ele>
        <time>2022-05-03T10:53:10.627Z</time>
      </trkpt>
      <trkpt lat="41.09563" lon="19.61155">
        <ele>56.2258</ele>
        <time>2022-05-03T10:53:12.630Z</time>
      </trkpt>
      <trkpt lat="41.09571" lon="19.61152">
        <ele>56.321327</ele>
        <time>2022-05-03T10:53:14.668Z</time>
      </trkpt>
      <trkpt lat="41.0958" lon="19.61148">
        <ele>56.420337</ele>
        <time>2022-05-03T10:53:16.628Z</time>
      </trkpt>
      <trkpt lat="41.0959" lon="19.61144">
        <ele>56.524558</ele>
        <time>2022-05-03T10:53:18.634Z</time>
      </trkpt>
      <trkpt lat="41.09599" lon="19.6114">
        <ele>56.614411</ele>
        <time>2022-05-03T10:53:20.658Z</time>
      </trkpt>
      <trkpt lat="41.09609" lon="19.61136">
        <ele>56.555675</ele>
        <time>2022-05-03T10:53:22.615Z</time>
      </trkpt>
      <trkpt lat="41.09618" lon="19.61132">
        <ele>56.496654</ele>
        <time>2022-05-03T10:53:24.614Z</time>
      </trkpt>
      <trkpt lat="41.09627" lon="19.61128">
        <ele>56.439045</ele>
        <time>2022-05-03T10:53:26.623Z</time>
      </trkpt>
      <trkpt lat="41.09636" lon="19.61125">
        <ele>56.382759</ele>
        <time>2022-05-03T10:53:28.634Z</time>
      </trkpt>
      <trkpt lat="41.09645" lon="19.61121">
        <ele>56.327701</ele>
        <time>2022-05-03T10:53:30.631Z</time>
      </trkpt>
      <trkpt lat="41.09654" lon="19.61118">
        <ele>56.272371</ele>
        <time>2022-05-03T10:53:32.619Z</time>
      </trkpt>
      <trkpt lat="41.09663" lon="19.61114">
        <ele>56.216423</ele>
        <time>2022-05-03T10:53:34.635Z</time>
      </trkpt>
      <trkpt lat="41.09671" lon="19.6111">
        <ele>56.162229</ele>
        <time>2022-05-03T10:53:36.618Z</time>
      </trkpt>
      <trkpt lat="41.0968" lon="19.61107">
        <ele>56.10743</ele>
        <time>2022-05-03T10:53:38.613Z</time>
      </trkpt>
      <trkpt lat="41.09693" lon="19.61101">
        <ele>56.02882</ele>
        <time>2022-05-03T10:53:41.625Z</time>
      </trkpt>
      <trkpt lat="41.09701" lon="19.61097">
        <ele>55.974767</ele>
        <time>2022-05-03T10:53:43.635Z</time>
      </trkpt>
      <trkpt lat="41.0971" lon="19.61094">
        <ele>55.920005</ele>
        <time>2022-05-03T10:53:45.615Z</time>
      </trkpt>
      <trkpt lat="41.09719" lon="19.6109">
        <ele>55.865666</ele>
        <time>2022-05-03T10:53:47.623Z</time>
      </trkpt>
      <trkpt lat="41.09727" lon="19.61086">
        <ele>55.809485</ele>
        <time>2022-05-03T10:53:49.627Z</time>
      </trkpt>
      <trkpt lat="41.09736" lon="19.61081">
        <ele>55.751149</ele>
        <time>2022-05-03T10:53:51.618Z</time>
      </trkpt>
      <trkpt lat="41.09745" lon="19.61076">
        <ele>55.696288</ele>
        <time>2022-05-03T10:53:53.628Z</time>
      </trkpt>
      <trkpt lat="41.09753" lon="19.61071">
        <ele>55.641232</ele>
        <time>2022-05-03T10:53:55.598Z</time>
      </trkpt>
      <trkpt lat="41.09765" lon="19.61065">
        <ele>55.566672</ele>
        <time>2022-05-03T10:53:58.620Z</time>
      </trkpt>
      <trkpt lat="41.09777" lon="19.6106">
        <ele>55.564608</ele>
        <time>2022-05-03T10:54:01.630Z</time>
      </trkpt>
      <trkpt lat="41.09789" lon="19.61055">
        <ele>55.59377</ele>
        <time>2022-05-03T10:54:04.631Z</time>
      </trkpt>
      <trkpt lat="41.09801" lon="19.6105">
        <ele>55.622881</ele>
        <time>2022-05-03T10:54:07.634Z</time>
      </trkpt>
      <trkpt lat="41.09813" lon="19.61044">
        <ele>55.652313</ele>
        <time>2022-05-03T10:54:10.619Z</time>
      </trkpt>
      <trkpt lat="41.09826" lon="19.61039">
        <ele>55.681477</ele>
        <time>2022-05-03T10:54:13.634Z</time>
      </trkpt>
      <trkpt lat="41.09838" lon="19.61034">
        <ele>55.710123</ele>
        <time>2022-05-03T10:54:16.659Z</time>
      </trkpt>
      <trkpt lat="41.0985" lon="19.61029">
        <ele>55.73935</ele>
        <time>2022-05-03T10:54:19.626Z</time>
      </trkpt>
      <trkpt lat="41.09862" lon="19.61024">
        <ele>55.768403</ele>
        <time>2022-05-03T10:54:22.634Z</time>
      </trkpt>
      <trkpt lat="41.09874" lon="19.61018">
        <ele>55.797727</ele>
        <time>2022-05-03T10:54:25.628Z</time>
      </trkpt>
      <trkpt lat="41.09887" lon="19.61013">
        <ele>55.827808</ele>
        <time>2022-05-03T10:54:28.638Z</time>
      </trkpt>
      <trkpt lat="41.09899" lon="19.61007">
        <ele>55.858107</ele>
        <time>2022-05-03T10:54:31.662Z</time>
      </trkpt>
      <trkpt lat="41.09912" lon="19.61003">
        <ele>55.888243</ele>
        <time>2022-05-03T10:54:34.630Z</time>
      </trkpt>
      <trkpt lat="41.09925" lon="19.60998">
        <ele>55.917955</ele>
        <time>2022-05-03T10:54:37.622Z</time>
      </trkpt>
      <trkpt lat="41.09937" lon="19.60992">
        <ele>55.947663</ele>
        <time>2022-05-03T10:54:40.628Z</time>
      </trkpt>
      <trkpt lat="41.0995" lon="19.60987">
        <ele>56.194542</ele>
        <time>2022-05-03T10:54:43.625Z</time>
      </trkpt>
      <trkpt lat="41.09962" lon="19.60981">
        <ele>56.490053</ele>
        <time>2022-05-03T10:54:46.611Z</time>
      </trkpt>
      <trkpt lat="41.09974" lon="19.60975">
        <ele>56.795274</ele>
        <time>2022-05-03T10:54:49.618Z</time>
      </trkpt>
      <trkpt lat="41.09987" lon="19.60969">
        <ele>57.095693</ele>
        <time>2022-05-03T10:54:52.629Z</time>
      </trkpt>
      <trkpt lat="41.09998" lon="19.60963">
        <ele>57.386577</ele>
        <time>2022-05-03T10:54:55.654Z</time>
      </trkpt>
      <trkpt lat="41.1001" lon="19.60958">
        <ele>57.675482</ele>
        <time>2022-05-03T10:54:58.616Z</time>
      </trkpt>
      <trkpt lat="41.10023" lon="19.60954">
        <ele>57.977419</ele>
        <time>2022-05-03T10:55:01.664Z</time>
      </trkpt>
      <trkpt lat="41.10035" lon="19.60949">
        <ele>58.263616</ele>
        <time>2022-05-03T10:55:04.622Z</time>
      </trkpt>
      <trkpt lat="41.10047" lon="19.60945">
        <ele>58.544359</ele>
        <time>2022-05-03T10:55:07.616Z</time>
      </trkpt>
      <trkpt lat="41.1006" lon="19.60943">
        <ele>58.843332</ele>
        <time>2022-05-03T10:55:10.624Z</time>
      </trkpt>
      <trkpt lat="41.10073" lon="19.60942">
        <ele>59.139825</ele>
        <time>2022-05-03T10:55:13.624Z</time>
      </trkpt>
      <trkpt lat="41.10086" lon="19.60941">
        <ele>59.448208</ele>
        <time>2022-05-03T10:55:16.615Z</time>
      </trkpt>
      <trkpt lat="41.10095" lon="19.6094">
        <ele>59.657492</ele>
        <time>2022-05-03T10:55:18.625Z</time>
      </trkpt>
      <trkpt lat="41.10104" lon="19.6094">
        <ele>59.868991</ele>
        <time>2022-05-03T10:55:20.620Z</time>
      </trkpt>
      <trkpt lat="41.10114" lon="19.60938">
        <ele>60.082228</ele>
        <time>2022-05-03T10:55:22.630Z</time>
      </trkpt>
      <trkpt lat="41.10124" lon="19.60938">
        <ele>60.024514</ele>
        <time>2022-05-03T10:55:24.624Z</time>
      </trkpt>
      <trkpt lat="41.10134" lon="19.60937">
        <ele>59.965513</ele>
        <time>2022-05-03T10:55:26.625Z</time>
      </trkpt>
      <trkpt lat="41.10144" lon="19.60935">
        <ele>59.904995</ele>
        <time>2022-05-03T10:55:28.614Z</time>
      </trkpt>
      <trkpt lat="41.10154" lon="19.60934">
        <ele>59.843485</ele>
        <time>2022-05-03T10:55:30.608Z</time>
      </trkpt>
      <trkpt lat="41.10165" lon="19.60932">
        <ele>59.778943</ele>
        <time>2022-05-03T10:55:32.631Z</time>
      </trkpt>
      <trkpt lat="41.10176" lon="19.60931">
        <ele>59.712092</ele>
        <time>2022-05-03T10:55:34.611Z</time>
      </trkpt>
      <trkpt lat="41.10187" lon="19.6093">
        <ele>59.642282</ele>
        <time>2022-05-03T10:55:36.624Z</time>
      </trkpt>
      <trkpt lat="41.10199" lon="19.60929">
        <ele>59.570607</ele>
        <time>2022-05-03T10:55:38.621Z</time>
      </trkpt>
      <trkpt lat="41.10212" lon="19.60928">
        <ele>59.494862</ele>
        <time>2022-05-03T10:55:40.619Z</time>
      </trkpt>
      <trkpt lat="41.10225" lon="19.60927">
        <ele>59.41487</ele>
        <time>2022-05-03T10:55:42.645Z</time>
      </trkpt>
      <trkpt lat="41.10239" lon="19.60925">
        <ele>59.332184</ele>
        <time>2022-05-03T10:55:44.627Z</time>
      </trkpt>
      <trkpt lat="41.10252" lon="19.60924">
        <ele>59.250993</ele>
        <time>2022-05-03T10:55:46.629Z</time>
      </trkpt>
      <trkpt lat="41.10266" lon="19.60922">
        <ele>59.169592</ele>
        <time>2022-05-03T10:55:48.633Z</time>
      </trkpt>
      <trkpt lat="41.10279" lon="19.60921">
        <ele>59.088905</ele>
        <time>2022-05-03T10:55:50.610Z</time>
      </trkpt>
      <trkpt lat="41.10293" lon="19.60919">
        <ele>59.008182</ele>
        <time>2022-05-03T10:55:52.634Z</time>
      </trkpt>
      <trkpt lat="41.10306" lon="19.60918">
        <ele>58.784671</ele>
        <time>2022-05-03T10:55:54.664Z</time>
      </trkpt>
      <trkpt lat="41.1032" lon="19.60916">
        <ele>58.557311</ele>
        <time>2022-05-03T10:55:56.623Z</time>
      </trkpt>
      <trkpt lat="41.10333" lon="19.60915">
        <ele>58.328011</ele>
        <time>2022-05-03T10:55:58.618Z</time>
      </trkpt>
      <trkpt lat="41.10347" lon="19.60914">
        <ele>58.102062</ele>
        <time>2022-05-03T10:56:00.609Z</time>
      </trkpt>
      <trkpt lat="41.10361" lon="19.60912">
        <ele>57.867528</ele>
        <time>2022-05-03T10:56:02.644Z</time>
      </trkpt>
      <trkpt lat="41.10374" lon="19.60911">
        <ele>57.648381</ele>
        <time>2022-05-03T10:56:04.620Z</time>
      </trkpt>
      <trkpt lat="41.10386" lon="19.6091">
        <ele>57.434356</ele>
        <time>2022-05-03T10:56:06.659Z</time>
      </trkpt>
      <trkpt lat="41.10399" lon="19.60909">
        <ele>57.227207</ele>
        <time>2022-05-03T10:56:08.619Z</time>
      </trkpt>
      <trkpt lat="41.1041" lon="19.60908">
        <ele>57.035157</ele>
        <time>2022-05-03T10:56:10.642Z</time>
      </trkpt>
      <trkpt lat="41.10421" lon="19.60906">
        <ele>56.846168</ele>
        <time>2022-05-03T10:56:12.628Z</time>
      </trkpt>
      <trkpt lat="41.10432" lon="19.60905">
        <ele>56.669012</ele>
        <time>2022-05-03T10:56:14.629Z</time>
      </trkpt>
      <trkpt lat="41.10442" lon="19.60904">
        <ele>56.493896</ele>
        <time>2022-05-03T10:56:16.632Z</time>
      </trkpt>
      <trkpt lat="41.10453" lon="19.60903">
        <ele>56.315424</ele>
        <time>2022-05-03T10:56:18.614Z</time>
      </trkpt>
      <trkpt lat="41.10463" lon="19.60902">
        <ele>56.142914</ele>
        <time>2022-05-03T10:56:20.629Z</time>
      </trkpt>
      <trkpt lat="41.10473" lon="19.60901">
        <ele>55.983606</ele>
        <time>2022-05-03T10:56:22.630Z</time>
      </trkpt>
      <trkpt lat="41.10482" lon="19.60899">
        <ele>56.048032</ele>
        <time>2022-05-03T10:56:24.627Z</time>
      </trkpt>
      <trkpt lat="41.10492" lon="19.60897">
        <ele>56.115211</ele>
        <time>2022-05-03T10:56:26.634Z</time>
      </trkpt>
      <trkpt lat="41.10502" lon="19.60895">
        <ele>56.181862</ele>
        <time>2022-05-03T10:56:28.647Z</time>
      </trkpt>
      <trkpt lat="41.10511" lon="19.60893">
        <ele>56.249632</ele>
        <time>2022-05-03T10:56:30.620Z</time>
      </trkpt>
      <trkpt lat="41.10522" lon="19.60891">
        <ele>56.319648</ele>
        <time>2022-05-03T10:56:32.628Z</time>
      </trkpt>
      <trkpt lat="41.10531" lon="19.60889">
        <ele>56.382071</ele>
        <time>2022-05-03T10:56:34.648Z</time>
      </trkpt>
      <trkpt lat="41.10541" lon="19.60887">
        <ele>56.450001</ele>
        <time>2022-05-03T10:56:36.625Z</time>
      </trkpt>
      <trkpt lat="41.1055" lon="19.60885">
        <ele>56.515763</ele>
        <time>2022-05-03T10:56:38.615Z</time>
      </trkpt>
      <trkpt lat="41.1056" lon="19.60883">
        <ele>56.581025</ele>
        <time>2022-05-03T10:56:40.624Z</time>
      </trkpt>
      <trkpt lat="41.10569" lon="19.6088">
        <ele>56.647135</ele>
        <time>2022-05-03T10:56:42.623Z</time>
      </trkpt>
      <trkpt lat="41.10579" lon="19.60878">
        <ele>56.711644</ele>
        <time>2022-05-03T10:56:44.615Z</time>
      </trkpt>
      <trkpt lat="41.10588" lon="19.60876">
        <ele>56.774334</ele>
        <time>2022-05-03T10:56:46.624Z</time>
      </trkpt>
      <trkpt lat="41.10597" lon="19.60873">
        <ele>56.837328</ele>
        <time>2022-05-03T10:56:48.651Z</time>
      </trkpt>
      <trkpt lat="41.10606" lon="19.60871">
        <ele>56.900217</ele>
        <time>2022-05-03T10:56:50.627Z</time>
      </trkpt>
      <trkpt lat="41.10615" lon="19.60868">
        <ele>56.964753</ele>
        <time>2022-05-03T10:56:52.618Z</time>
      </trkpt>
      <trkpt lat="41.10625" lon="19.60865">
        <ele>57.030426</ele>
        <time>2022-05-03T10:56:54.643Z</time>
      </trkpt>
      <trkpt lat="41.10634" lon="19.60861">
        <ele>57.094789</ele>
        <time>2022-05-03T10:56:56.608Z</time>
      </trkpt>
      <trkpt lat="41.10643" lon="19.60859">
        <ele>57.157465</ele>
        <time>2022-05-03T10:56:58.636Z</time>
      </trkpt>
      <trkpt lat="41.10652" lon="19.60855">
        <ele>57.286518</ele>
        <time>2022-05-03T10:57:00.631Z</time>
      </trkpt>
      <trkpt lat="41.10661" lon="19.60852">
        <ele>57.546574</ele>
        <time>2022-05-03T10:57:02.662Z</time>
      </trkpt>
      <trkpt lat="41.1067" lon="19.60847">
        <ele>57.807211</ele>
        <time>2022-05-03T10:57:04.618Z</time>
      </trkpt>
      <trkpt lat="41.10679" lon="19.60844">
        <ele>58.068501</ele>
        <time>2022-05-03T10:57:06.637Z</time>
      </trkpt>
      <trkpt lat="41.10688" lon="19.6084">
        <ele>58.323885</ele>
        <time>2022-05-03T10:57:08.623Z</time>
      </trkpt>
      <trkpt lat="41.107" lon="19.60834">
        <ele>58.694943</ele>
        <time>2022-05-03T10:57:11.625Z</time>
      </trkpt>
      <trkpt lat="41.10713" lon="19.60828">
        <ele>59.065847</ele>
        <time>2022-05-03T10:57:14.639Z</time>
      </trkpt>
      <trkpt lat="41.10725" lon="19.60823">
        <ele>59.426255</ele>
        <time>2022-05-03T10:57:17.647Z</time>
      </trkpt>
      <trkpt lat="41.10737" lon="19.60817">
        <ele>59.7801</ele>
        <time>2022-05-03T10:57:20.634Z</time>
      </trkpt>
      <trkpt lat="41.10749" lon="19.60812">
        <ele>60.122126</ele>
        <time>2022-05-03T10:57:23.623Z</time>
      </trkpt>
      <trkpt lat="41.10758" lon="19.60808">
        <ele>60.376852</ele>
        <time>2022-05-03T10:57:25.627Z</time>
      </trkpt>
      <trkpt lat="41.1077" lon="19.60803">
        <ele>60.731548</ele>
        <time>2022-05-03T10:57:28.640Z</time>
      </trkpt>
      <trkpt lat="41.10782" lon="19.60799">
        <ele>61.06649</ele>
        <time>2022-05-03T10:57:31.622Z</time>
      </trkpt>
      <trkpt lat="41.10793" lon="19.60794">
        <ele>61.394107</ele>
        <time>2022-05-03T10:57:34.623Z</time>
      </trkpt>
      <trkpt lat="41.10804" lon="19.6079">
        <ele>61.710204</ele>
        <time>2022-05-03T10:57:37.629Z</time>
      </trkpt>
      <trkpt lat="41.10815" lon="19.60786">
        <ele>62.032766</ele>
        <time>2022-05-03T10:57:40.629Z</time>
      </trkpt>
      <trkpt lat="41.10826" lon="19.60781">
        <ele>62.315477</ele>
        <time>2022-05-03T10:57:43.622Z</time>
      </trkpt>
      <trkpt lat="41.10836" lon="19.60777">
        <ele>62.562806</ele>
        <time>2022-05-03T10:57:46.625Z</time>
      </trkpt>
      <trkpt lat="41.10846" lon="19.60772">
        <ele>62.808522</ele>
        <time>2022-05-03T10:57:49.622Z</time>
      </trkpt>
      <trkpt lat="41.10856" lon="19.60767">
        <ele>63.053096</ele>
        <time>2022-05-03T10:57:52.653Z</time>
      </trkpt>
      <trkpt lat="41.10866" lon="19.60763">
        <ele>63.29229</ele>
        <time>2022-05-03T10:57:55.634Z</time>
      </trkpt>
      <trkpt lat="41.10875" lon="19.6076">
        <ele>63.504985</ele>
        <time>2022-05-03T10:57:58.679Z</time>
      </trkpt>
      <trkpt lat="41.10884" lon="19.60756">
        <ele>63.72922</ele>
        <time>2022-05-03T10:58:01.640Z</time>
      </trkpt>
      <trkpt lat="41.10894" lon="19.60751">
        <ele>63.980384</ele>
        <time>2022-05-03T10:58:04.623Z</time>
      </trkpt>
      <trkpt lat="41.10905" lon="19.60747">
        <ele>64.237395</ele>
        <time>2022-05-03T10:58:07.623Z</time>
      </trkpt>
      <trkpt lat="41.10915" lon="19.60743">
        <ele>64.490905</ele>
        <time>2022-05-03T10:58:10.634Z</time>
      </trkpt>
      <trkpt lat="41.10926" lon="19.60739">
        <ele>64.741529</ele>
        <time>2022-05-03T10:58:13.626Z</time>
      </trkpt>
      <trkpt lat="41.10936" lon="19.60734">
        <ele>64.987208</ele>
        <time>2022-05-03T10:58:16.619Z</time>
      </trkpt>
      <trkpt lat="41.10946" lon="19.6073">
        <ele>65.229029</ele>
        <time>2022-05-03T10:58:19.624Z</time>
      </trkpt>
      <trkpt lat="41.10956" lon="19.60726">
        <ele>65.466786</ele>
        <time>2022-05-03T10:58:22.624Z</time>
      </trkpt>
      <trkpt lat="41.10966" lon="19.60722">
        <ele>65.718075</ele>
        <time>2022-05-03T10:58:25.631Z</time>
      </trkpt>
      <trkpt lat="41.10976" lon="19.60718">
        <ele>65.961609</ele>
        <time>2022-05-03T10:58:28.624Z</time>
      </trkpt>
      <trkpt lat="41.10986" lon="19.60713">
        <ele>66.210686</ele>
        <time>2022-05-03T10:58:31.664Z</time>
      </trkpt>
      <trkpt lat="41.10997" lon="19.60708">
        <ele>66.313946</ele>
        <time>2022-05-03T10:58:34.628Z</time>
      </trkpt>
      <trkpt lat="41.11008" lon="19.60703">
        <ele>66.259128</ele>
        <time>2022-05-03T10:58:37.614Z</time>
      </trkpt>
      <trkpt lat="41.11019" lon="19.60698">
        <ele>66.204972</ele>
        <time>2022-05-03T10:58:40.624Z</time>
      </trkpt>
      <trkpt lat="41.1103" lon="19.60692">
        <ele>66.149712</ele>
        <time>2022-05-03T10:58:43.624Z</time>
      </trkpt>
      <trkpt lat="41.11041" lon="19.60687">
        <ele>66.097986</ele>
        <time>2022-05-03T10:58:46.633Z</time>
      </trkpt>
      <trkpt lat="41.11051" lon="19.60684">
        <ele>66.046936</ele>
        <time>2022-05-03T10:58:49.638Z</time>
      </trkpt>
      <trkpt lat="41.11061" lon="19.60678">
        <ele>65.995953</ele>
        <time>2022-05-03T10:58:52.616Z</time>
      </trkpt>
      <trkpt lat="41.11073" lon="19.60673">
        <ele>65.938365</ele>
        <time>2022-05-03T10:58:55.635Z</time>
      </trkpt>
      <trkpt lat="41.11084" lon="19.60668">
        <ele>65.88587</ele>
        <time>2022-05-03T10:58:58.622Z</time>
      </trkpt>
      <trkpt lat="41.11095" lon="19.60663">
        <ele>65.831273</ele>
        <time>2022-05-03T10:59:01.632Z</time>
      </trkpt>
      <trkpt lat="41.11106" lon="19.60658">
        <ele>65.774655</ele>
        <time>2022-05-03T10:59:04.626Z</time>
      </trkpt>
      <trkpt lat="41.11118" lon="19.60653">
        <ele>65.719389</ele>
        <time>2022-05-03T10:59:07.629Z</time>
      </trkpt>
      <trkpt lat="41.11129" lon="19.60647">
        <ele>65.661094</ele>
        <time>2022-05-03T10:59:10.648Z</time>
      </trkpt>
      <trkpt lat="41.11142" lon="19.60642">
        <ele>65.599959</ele>
        <time>2022-05-03T10:59:13.633Z</time>
      </trkpt>
      <trkpt lat="41.11151" lon="19.60638">
        <ele>65.556856</ele>
        <time>2022-05-03T10:59:15.627Z</time>
      </trkpt>
      <trkpt lat="41.11159" lon="19.60635">
        <ele>65.514305</ele>
        <time>2022-05-03T10:59:17.625Z</time>
      </trkpt>
      <trkpt lat="41.11172" lon="19.60629">
        <ele>65.373999</ele>
        <time>2022-05-03T10:59:20.639Z</time>
      </trkpt>
      <trkpt lat="41.11181" lon="19.60625">
        <ele>65.269453</ele>
        <time>2022-05-03T10:59:22.672Z</time>
      </trkpt>
      <trkpt lat="41.1119" lon="19.60621">
        <ele>65.165738</ele>
        <time>2022-05-03T10:59:24.615Z</time>
      </trkpt>
      <trkpt lat="41.11199" lon="19.60618">
        <ele>65.056312</ele>
        <time>2022-05-03T10:59:26.628Z</time>
      </trkpt>
      <trkpt lat="41.11208" lon="19.60614">
        <ele>64.948821</ele>
        <time>2022-05-03T10:59:28.622Z</time>
      </trkpt>
      <trkpt lat="41.11217" lon="19.60611">
        <ele>64.844257</ele>
        <time>2022-05-03T10:59:30.610Z</time>
      </trkpt>
      <trkpt lat="41.11226" lon="19.60607">
        <ele>64.730447</ele>
        <time>2022-05-03T10:59:32.624Z</time>
      </trkpt>
      <trkpt lat="41.11236" lon="19.60603">
        <ele>64.616478</ele>
        <time>2022-05-03T10:59:34.623Z</time>
      </trkpt>
      <trkpt lat="41.11244" lon="19.60598">
        <ele>64.508656</ele>
        <time>2022-05-03T10:59:36.610Z</time>
      </trkpt>
      <trkpt lat="41.11253" lon="19.60594">
        <ele>64.402439</ele>
        <time>2022-05-03T10:59:38.619Z</time>
      </trkpt>
      <trkpt lat="41.11262" lon="19.6059">
        <ele>64.295239</ele>
        <time>2022-05-03T10:59:40.629Z</time>
      </trkpt>
      <trkpt lat="41.11271" lon="19.60585">
        <ele>64.186681</ele>
        <time>2022-05-03T10:59:42.615Z</time>
      </trkpt>
      <trkpt lat="41.1128" lon="19.60581">
        <ele>64.076959</ele>
        <time>2022-05-03T10:59:44.674Z</time>
      </trkpt>
      <trkpt lat="41.11289" lon="19.60577">
        <ele>63.968904</ele>
        <time>2022-05-03T10:59:46.624Z</time>
      </trkpt>
      <trkpt lat="41.11301" lon="19.6057">
        <ele>63.817731</ele>
        <time>2022-05-03T10:59:49.619Z</time>
      </trkpt>
      <trkpt lat="41.11314" lon="19.60565">
        <ele>63.664222</ele>
        <time>2022-05-03T10:59:52.616Z</time>
      </trkpt>
      <trkpt lat="41.11323" lon="19.6056">
        <ele>63.55782</ele>
        <time>2022-05-03T10:59:54.635Z</time>
      </trkpt>
      <trkpt lat="41.11332" lon="19.60556">
        <ele>63.443897</ele>
        <time>2022-05-03T10:59:56.623Z</time>
      </trkpt>
      <trkpt lat="41.11343" lon="19.60551">
        <ele>63.325218</ele>
        <time>2022-05-03T10:59:58.636Z</time>
      </trkpt>
      <trkpt lat="41.11352" lon="19.60547">
        <ele>63.21454</ele>
        <time>2022-05-03T11:00:00.627Z</time>
      </trkpt>
      <trkpt lat="41.11362" lon="19.60544">
        <ele>63.107112</ele>
        <time>2022-05-03T11:00:02.629Z</time>
      </trkpt>
      <trkpt lat="41.11371" lon="19.6054">
        <ele>62.999551</ele>
        <time>2022-05-03T11:00:04.619Z</time>
      </trkpt>
      <trkpt lat="41.1138" lon="19.60536">
        <ele>62.893761</ele>
        <time>2022-05-03T11:00:06.632Z</time>
      </trkpt>
      <trkpt lat="41.1139" lon="19.60532">
        <ele>62.789309</ele>
        <time>2022-05-03T11:00:08.626Z</time>
      </trkpt>
      <trkpt lat="41.11399" lon="19.60528">
        <ele>62.684075</ele>
        <time>2022-05-03T11:00:10.637Z</time>
      </trkpt>
      <trkpt lat="41.11408" lon="19.60525">
        <ele>62.578744</ele>
        <time>2022-05-03T11:00:12.653Z</time>
      </trkpt>
      <trkpt lat="41.11417" lon="19.60521">
        <ele>62.471184</ele>
        <time>2022-05-03T11:00:14.632Z</time>
      </trkpt>
      <trkpt lat="41.11427" lon="19.60516">
        <ele>62.359488</ele>
        <time>2022-05-03T11:00:16.617Z</time>
      </trkpt>
      <trkpt lat="41.11436" lon="19.60512">
        <ele>62.252447</ele>
        <time>2022-05-03T11:00:18.621Z</time>
      </trkpt>
      <trkpt lat="41.11446" lon="19.60508">
        <ele>62.143291</ele>
        <time>2022-05-03T11:00:20.626Z</time>
      </trkpt>
      <trkpt lat="41.11455" lon="19.60503">
        <ele>62.041308</ele>
        <time>2022-05-03T11:00:22.624Z</time>
      </trkpt>
      <trkpt lat="41.11464" lon="19.60499">
        <ele>61.935028</ele>
        <time>2022-05-03T11:00:24.606Z</time>
      </trkpt>
      <trkpt lat="41.11475" lon="19.60494">
        <ele>61.808336</ele>
        <time>2022-05-03T11:00:26.617Z</time>
      </trkpt>
      <trkpt lat="41.11486" lon="19.6049">
        <ele>61.684889</ele>
        <time>2022-05-03T11:00:28.617Z</time>
      </trkpt>
      <trkpt lat="41.11497" lon="19.60485">
        <ele>61.558894</ele>
        <time>2022-05-03T11:00:30.635Z</time>
      </trkpt>
      <trkpt lat="41.11508" lon="19.60481">
        <ele>61.499537</ele>
        <time>2022-05-03T11:00:32.627Z</time>
      </trkpt>
      <trkpt lat="41.11518" lon="19.60478">
        <ele>61.515243</ele>
        <time>2022-05-03T11:00:34.656Z</time>
      </trkpt>
      <trkpt lat="41.11529" lon="19.60474">
        <ele>61.532213</ele>
        <time>2022-05-03T11:00:36.618Z</time>
      </trkpt>
      <trkpt lat="41.11539" lon="19.60469">
        <ele>61.54871</ele>
        <time>2022-05-03T11:00:38.630Z</time>
      </trkpt>
      <trkpt lat="41.1155" lon="19.60465">
        <ele>61.564998</ele>
        <time>2022-05-03T11:00:40.631Z</time>
      </trkpt>
      <trkpt lat="41.11561" lon="19.6046">
        <ele>61.582128</ele>
        <time>2022-05-03T11:00:42.676Z</time>
      </trkpt>
      <trkpt lat="41.11571" lon="19.60456">
        <ele>61.598275</ele>
        <time>2022-05-03T11:00:44.627Z</time>
      </trkpt>
      <trkpt lat="41.11582" lon="19.60452">
        <ele>61.614756</ele>
        <time>2022-05-03T11:00:46.629Z</time>
      </trkpt>
      <trkpt lat="41.11593" lon="19.60448">
        <ele>61.631329</ele>
        <time>2022-05-03T11:00:48.628Z</time>
      </trkpt>
      <trkpt lat="41.11603" lon="19.60444">
        <ele>61.647792</ele>
        <time>2022-05-03T11:00:50.627Z</time>
      </trkpt>
      <trkpt lat="41.11613" lon="19.60439">
        <ele>61.663405</ele>
        <time>2022-05-03T11:00:52.624Z</time>
      </trkpt>
      <trkpt lat="41.11623" lon="19.60435">
        <ele>61.679159</ele>
        <time>2022-05-03T11:00:54.631Z</time>
      </trkpt>
      <trkpt lat="41.11634" lon="19.60431">
        <ele>61.695442</ele>
        <time>2022-05-03T11:00:56.657Z</time>
      </trkpt>
      <trkpt lat="41.11644" lon="19.60426">
        <ele>61.711376</ele>
        <time>2022-05-03T11:00:58.630Z</time>
      </trkpt>
      <trkpt lat="41.11654" lon="19.60421">
        <ele>61.726853</ele>
        <time>2022-05-03T11:01:00.629Z</time>
      </trkpt>
      <trkpt lat="41.11664" lon="19.60416">
        <ele>61.743181</ele>
        <time>2022-05-03T11:01:02.657Z</time>
      </trkpt>
      <trkpt lat="41.11674" lon="19.60411">
        <ele>61.760207</ele>
        <time>2022-05-03T11:01:04.637Z</time>
      </trkpt>
      <trkpt lat="41.11685" lon="19.60407">
        <ele>61.809883</ele>
        <time>2022-05-03T11:01:06.634Z</time>
      </trkpt>
      <trkpt lat="41.11696" lon="19.60403">
        <ele>61.857683</ele>
        <time>2022-05-03T11:01:08.623Z</time>
      </trkpt>
      <trkpt lat="41.11706" lon="19.60399">
        <ele>61.903458</ele>
        <time>2022-05-03T11:01:10.616Z</time>
      </trkpt>
      <trkpt lat="41.11717" lon="19.60395">
        <ele>61.949382</ele>
        <time>2022-05-03T11:01:12.613Z</time>
      </trkpt>
      <trkpt lat="41.11727" lon="19.60391">
        <ele>61.995141</ele>
        <time>2022-05-03T11:01:14.626Z</time>
      </trkpt>
      <trkpt lat="41.11737" lon="19.60388">
        <ele>62.039685</ele>
        <time>2022-05-03T11:01:16.618Z</time>
      </trkpt>
      <trkpt lat="41.11747" lon="19.60385">
        <ele>62.08556</ele>
        <time>2022-05-03T11:01:18.614Z</time>
      </trkpt>
      <trkpt lat="41.11758" lon="19.60382">
        <ele>62.13214</ele>
        <time>2022-05-03T11:01:20.629Z</time>
      </trkpt>
      <trkpt lat="41.11769" lon="19.60379">
        <ele>62.179629</ele>
        <time>2022-05-03T11:01:22.626Z</time>
      </trkpt>
      <trkpt lat="41.1178" lon="19.60376">
        <ele>62.228132</ele>
        <time>2022-05-03T11:01:24.653Z</time>
      </trkpt>
      <trkpt lat="41.1179" lon="19.60371">
        <ele>62.27533</ele>
        <time>2022-05-03T11:01:26.626Z</time>
      </trkpt>
      <trkpt lat="41.118" lon="19.60367">
        <ele>62.320067</ele>
        <time>2022-05-03T11:01:28.620Z</time>
      </trkpt>
      <trkpt lat="41.1181" lon="19.60362">
        <ele>62.366736</ele>
        <time>2022-05-03T11:01:30.624Z</time>
      </trkpt>
      <trkpt lat="41.1182" lon="19.60358">
        <ele>62.412996</ele>
        <time>2022-05-03T11:01:32.631Z</time>
      </trkpt>
      <trkpt lat="41.1183" lon="19.60353">
        <ele>62.457627</ele>
        <time>2022-05-03T11:01:34.632Z</time>
      </trkpt>
      <trkpt lat="41.1184" lon="19.60349">
        <ele>62.500931</ele>
        <time>2022-05-03T11:01:36.620Z</time>
      </trkpt>
      <trkpt lat="41.11848" lon="19.60343">
        <ele>62.560675</ele>
        <time>2022-05-03T11:01:38.610Z</time>
      </trkpt>
      <trkpt lat="41.11857" lon="19.60336">
        <ele>62.686962</ele>
        <time>2022-05-03T11:01:40.608Z</time>
      </trkpt>
      <trkpt lat="41.11865" lon="19.60331">
        <ele>62.809127</ele>
        <time>2022-05-03T11:01:42.636Z</time>
      </trkpt>
      <trkpt lat="41.11874" lon="19.60326">
        <ele>62.939381</ele>
        <time>2022-05-03T11:01:44.629Z</time>
      </trkpt>
      <trkpt lat="41.11884" lon="19.60321">
        <ele>63.072301</ele>
        <time>2022-05-03T11:01:46.695Z</time>
      </trkpt>
      <trkpt lat="41.11893" lon="19.60316">
        <ele>63.209557</ele>
        <time>2022-05-03T11:01:48.625Z</time>
      </trkpt>
      <trkpt lat="41.11902" lon="19.6031">
        <ele>63.336116</ele>
        <time>2022-05-03T11:01:50.604Z</time>
      </trkpt>
      <trkpt lat="41.11911" lon="19.60305">
        <ele>63.460642</ele>
        <time>2022-05-03T11:01:52.675Z</time>
      </trkpt>
      <trkpt lat="41.11919" lon="19.60299">
        <ele>63.583148</ele>
        <time>2022-05-03T11:01:54.617Z</time>
      </trkpt>
      <trkpt lat="41.11931" lon="19.60292">
        <ele>63.755255</ele>
        <time>2022-05-03T11:01:57.627Z</time>
      </trkpt>
      <trkpt lat="41.11939" lon="19.60287">
        <ele>63.875781</ele>
        <time>2022-05-03T11:01:59.630Z</time>
      </trkpt>
      <trkpt lat="41.11948" lon="19.60282">
        <ele>63.997519</ele>
        <time>2022-05-03T11:02:01.624Z</time>
      </trkpt>
      <trkpt lat="41.11957" lon="19.60277">
        <ele>64.125608</ele>
        <time>2022-05-03T11:02:03.691Z</time>
      </trkpt>
      <trkpt lat="41.11966" lon="19.60272">
        <ele>64.252935</ele>
        <time>2022-05-03T11:02:05.623Z</time>
      </trkpt>
      <trkpt lat="41.11975" lon="19.60266">
        <ele>64.381854</ele>
        <time>2022-05-03T11:02:07.635Z</time>
      </trkpt>
      <trkpt lat="41.11983" lon="19.60261">
        <ele>64.503951</ele>
        <time>2022-05-03T11:02:09.610Z</time>
      </trkpt>
      <trkpt lat="41.11992" lon="19.60256">
        <ele>64.629636</ele>
        <time>2022-05-03T11:02:11.612Z</time>
      </trkpt>
      <trkpt lat="41.12001" lon="19.6025">
        <ele>64.755455</ele>
        <time>2022-05-03T11:02:13.626Z</time>
      </trkpt>
      <trkpt lat="41.12009" lon="19.60245">
        <ele>64.878746</ele>
        <time>2022-05-03T11:02:15.625Z</time>
      </trkpt>
      <trkpt lat="41.12018" lon="19.6024">
        <ele>64.764967</ele>
        <time>2022-05-03T11:02:17.628Z</time>
      </trkpt>
      <trkpt lat="41.12026" lon="19.60235">
        <ele>64.630809</ele>
        <time>2022-05-03T11:02:19.625Z</time>
      </trkpt>
      <trkpt lat="41.12034" lon="19.60229">
        <ele>64.50018</ele>
        <time>2022-05-03T11:02:21.626Z</time>
      </trkpt>
      <trkpt lat="41.12046" lon="19.60222">
        <ele>64.310887</ele>
        <time>2022-05-03T11:02:24.637Z</time>
      </trkpt>
      <trkpt lat="41.12055" lon="19.60217">
        <ele>64.168011</ele>
        <time>2022-05-03T11:02:26.624Z</time>
      </trkpt>
      <trkpt lat="41.12064" lon="19.60211">
        <ele>64.022975</ele>
        <time>2022-05-03T11:02:28.624Z</time>
      </trkpt>
      <trkpt lat="41.12074" lon="19.60205">
        <ele>63.86915</ele>
        <time>2022-05-03T11:02:30.628Z</time>
      </trkpt>
      <trkpt lat="41.12084" lon="19.60199">
        <ele>63.710956</ele>
        <time>2022-05-03T11:02:32.627Z</time>
      </trkpt>
      <trkpt lat="41.12095" lon="19.60193">
        <ele>63.545315</ele>
        <time>2022-05-03T11:02:34.619Z</time>
      </trkpt>
      <trkpt lat="41.12106" lon="19.60187">
        <ele>63.373955</ele>
        <time>2022-05-03T11:02:36.616Z</time>
      </trkpt>
      <trkpt lat="41.12117" lon="19.60181">
        <ele>63.197121</ele>
        <time>2022-05-03T11:02:38.621Z</time>
      </trkpt>
      <trkpt lat="41.12129" lon="19.60175">
        <ele>63.012565</ele>
        <time>2022-05-03T11:02:40.615Z</time>
      </trkpt>
      <trkpt lat="41.12142" lon="19.60169">
        <ele>62.822852</ele>
        <time>2022-05-03T11:02:42.661Z</time>
      </trkpt>
      <trkpt lat="41.12154" lon="19.60163">
        <ele>62.633138</ele>
        <time>2022-05-03T11:02:44.632Z</time>
      </trkpt>
      <trkpt lat="41.12166" lon="19.60157">
        <ele>62.442839</ele>
        <time>2022-05-03T11:02:46.625Z</time>
      </trkpt>
      <trkpt lat="41.12179" lon="19.60152">
        <ele>62.28097</ele>
        <time>2022-05-03T11:02:48.659Z</time>
      </trkpt>
      <trkpt lat="41.12191" lon="19.60146">
        <ele>62.192699</ele>
        <time>2022-05-03T11:02:50.623Z</time>
      </trkpt>
      <trkpt lat="41.12203" lon="19.60139">
        <ele>62.106862</ele>
        <time>2022-05-03T11:02:52.632Z</time>
      </trkpt>
      <trkpt lat="41.12214" lon="19.60132">
        <ele>62.0247</ele>
        <time>2022-05-03T11:02:54.615Z</time>
      </trkpt>
      <trkpt lat="41.12225" lon="19.60126">
        <ele>61.946346</ele>
        <time>2022-05-03T11:02:56.631Z</time>
      </trkpt>
      <trkpt lat="41.12236" lon="19.60121">
        <ele>61.866681</ele>
        <time>2022-05-03T11:02:58.628Z</time>
      </trkpt>
      <trkpt lat="41.12247" lon="19.60117">
        <ele>61.788909</ele>
        <time>2022-05-03T11:03:00.623Z</time>
      </trkpt>
      <trkpt lat="41.12258" lon="19.60112">
        <ele>61.71384</ele>
        <time>2022-05-03T11:03:02.606Z</time>
      </trkpt>
      <trkpt lat="41.12269" lon="19.60108">
        <ele>61.639889</ele>
        <time>2022-05-03T11:03:04.633Z</time>
      </trkpt>
      <trkpt lat="41.12279" lon="19.60103">
        <ele>61.567206</ele>
        <time>2022-05-03T11:03:06.632Z</time>
      </trkpt>
      <trkpt lat="41.12289" lon="19.60098">
        <ele>61.4923</ele>
        <time>2022-05-03T11:03:08.637Z</time>
      </trkpt>
      <trkpt lat="41.123" lon="19.60093">
        <ele>61.417973</ele>
        <time>2022-05-03T11:03:10.652Z</time>
      </trkpt>
      <trkpt lat="41.1231" lon="19.60088">
        <ele>61.346578</ele>
        <time>2022-05-03T11:03:12.627Z</time>
      </trkpt>
      <trkpt lat="41.1232" lon="19.60083">
        <ele>61.277224</ele>
        <time>2022-05-03T11:03:14.629Z</time>
      </trkpt>
      <trkpt lat="41.12329" lon="19.60079">
        <ele>61.208827</ele>
        <time>2022-05-03T11:03:16.624Z</time>
      </trkpt>
      <trkpt lat="41.12338" lon="19.60075">
        <ele>61.146451</ele>
        <time>2022-05-03T11:03:18.637Z</time>
      </trkpt>
      <trkpt lat="41.1235" lon="19.60069">
        <ele>61.102384</ele>
        <time>2022-05-03T11:03:21.655Z</time>
      </trkpt>
      <trkpt lat="41.12363" lon="19.60062">
        <ele>61.109613</ele>
        <time>2022-05-03T11:03:24.638Z</time>
      </trkpt>
      <trkpt lat="41.12372" lon="19.60057">
        <ele>61.114858</ele>
        <time>2022-05-03T11:03:26.652Z</time>
      </trkpt>
      <trkpt lat="41.12381" lon="19.60052">
        <ele>61.120236</ele>
        <time>2022-05-03T11:03:28.629Z</time>
      </trkpt>
      <trkpt lat="41.12391" lon="19.60047">
        <ele>61.125594</ele>
        <time>2022-05-03T11:03:30.642Z</time>
      </trkpt>
      <trkpt lat="41.124" lon="19.60042">
        <ele>61.131023</ele>
        <time>2022-05-03T11:03:32.657Z</time>
      </trkpt>
      <trkpt lat="41.12409" lon="19.60038">
        <ele>61.136337</ele>
        <time>2022-05-03T11:03:34.613Z</time>
      </trkpt>
      <trkpt lat="41.12419" lon="19.60033">
        <ele>61.141751</ele>
        <time>2022-05-03T11:03:36.632Z</time>
      </trkpt>
      <trkpt lat="41.12428" lon="19.60028">
        <ele>61.147239</ele>
        <time>2022-05-03T11:03:38.634Z</time>
      </trkpt>
      <trkpt lat="41.12438" lon="19.60023">
        <ele>61.152817</ele>
        <time>2022-05-03T11:03:40.605Z</time>
      </trkpt>
      <trkpt lat="41.12447" lon="19.60018">
        <ele>61.158046</ele>
        <time>2022-05-03T11:03:42.634Z</time>
      </trkpt>
      <trkpt lat="41.12456" lon="19.60013">
        <ele>61.163241</ele>
        <time>2022-05-03T11:03:44.615Z</time>
      </trkpt>
      <trkpt lat="41.12465" lon="19.60008">
        <ele>61.168565</ele>
        <time>2022-05-03T11:03:46.627Z</time>
      </trkpt>
      <trkpt lat="41.12474" lon="19.60003">
        <ele>61.173612</ele>
        <time>2022-05-03T11:03:48.621Z</time>
      </trkpt>
      <trkpt lat="41.12487" lon="19.59997">
        <ele>61.180962</ele>
        <time>2022-05-03T11:03:51.619Z</time>
      </trkpt>
      <trkpt lat="41.12496" lon="19.59995">
        <ele>61.185925</ele>
        <time>2022-05-03T11:03:53.632Z</time>
      </trkpt>
      <trkpt lat="41.12505" lon="19.59991">
        <ele>61.190803</ele>
        <time>2022-05-03T11:03:55.664Z</time>
      </trkpt>
      <trkpt lat="41.12517" lon="19.59985">
        <ele>61.216667</ele>
        <time>2022-05-03T11:03:58.636Z</time>
      </trkpt>
      <trkpt lat="41.12528" lon="19.59979">
        <ele>61.268829</ele>
        <time>2022-05-03T11:04:01.627Z</time>
      </trkpt>
      <trkpt lat="41.12539" lon="19.59973">
        <ele>61.321674</ele>
        <time>2022-05-03T11:04:04.631Z</time>
      </trkpt>
      <trkpt lat="41.12552" lon="19.59967">
        <ele>61.380335</ele>
        <time>2022-05-03T11:04:07.623Z</time>
      </trkpt>
      <trkpt lat="41.12561" lon="19.59963">
        <ele>61.42053</ele>
        <time>2022-05-03T11:04:09.613Z</time>
      </trkpt>
      <trkpt lat="41.12569" lon="19.59958">
        <ele>61.460758</ele>
        <time>2022-05-03T11:04:11.615Z</time>
      </trkpt>
      <trkpt lat="41.12577" lon="19.59954">
        <ele>61.500451</ele>
        <time>2022-05-03T11:04:13.610Z</time>
      </trkpt>
      <trkpt lat="41.12587" lon="19.59949">
        <ele>61.545347</ele>
        <time>2022-05-03T11:04:15.620Z</time>
      </trkpt>
      <trkpt lat="41.12596" lon="19.59945">
        <ele>61.589915</ele>
        <time>2022-05-03T11:04:17.626Z</time>
      </trkpt>
      <trkpt lat="41.12605" lon="19.59941">
        <ele>61.631879</ele>
        <time>2022-05-03T11:04:19.627Z</time>
      </trkpt>
      <trkpt lat="41.12614" lon="19.59936">
        <ele>61.672257</ele>
        <time>2022-05-03T11:04:21.628Z</time>
      </trkpt>
      <trkpt lat="41.12623" lon="19.59931">
        <ele>61.715385</ele>
        <time>2022-05-03T11:04:23.625Z</time>
      </trkpt>
      <trkpt lat="41.12632" lon="19.59928">
        <ele>61.757031</ele>
        <time>2022-05-03T11:04:25.624Z</time>
      </trkpt>
      <trkpt lat="41.12641" lon="19.59923">
        <ele>61.800687</ele>
        <time>2022-05-03T11:04:27.619Z</time>
      </trkpt>
      <trkpt lat="41.12651" lon="19.59918">
        <ele>61.847164</ele>
        <time>2022-05-03T11:04:29.649Z</time>
      </trkpt>
      <trkpt lat="41.12661" lon="19.59913">
        <ele>61.894466</ele>
        <time>2022-05-03T11:04:31.624Z</time>
      </trkpt>
      <trkpt lat="41.12671" lon="19.59909">
        <ele>61.940603</ele>
        <time>2022-05-03T11:04:33.617Z</time>
      </trkpt>
      <trkpt lat="41.12681" lon="19.59905">
        <ele>61.985066</ele>
        <time>2022-05-03T11:04:35.612Z</time>
      </trkpt>
      <trkpt lat="41.12691" lon="19.599">
        <ele>62.105645</ele>
        <time>2022-05-03T11:04:37.630Z</time>
      </trkpt>
      <trkpt lat="41.127" lon="19.59895">
        <ele>62.231493</ele>
        <time>2022-05-03T11:04:39.624Z</time>
      </trkpt>
      <trkpt lat="41.1271" lon="19.5989">
        <ele>62.355095</ele>
        <time>2022-05-03T11:04:41.621Z</time>
      </trkpt>
      <trkpt lat="41.1272" lon="19.59886">
        <ele>62.476932</ele>
        <time>2022-05-03T11:04:43.631Z</time>
      </trkpt>
      <trkpt lat="41.12729" lon="19.59881">
        <ele>62.596845</ele>
        <time>2022-05-03T11:04:45.627Z</time>
      </trkpt>
      <trkpt lat="41.12738" lon="19.59877">
        <ele>62.716893</ele>
        <time>2022-05-03T11:04:47.618Z</time>
      </trkpt>
      <trkpt lat="41.12748" lon="19.59872">
        <ele>62.834946</ele>
        <time>2022-05-03T11:04:49.628Z</time>
      </trkpt>
      <trkpt lat="41.12757" lon="19.59868">
        <ele>62.953</ele>
        <time>2022-05-03T11:04:51.655Z</time>
      </trkpt>
      <trkpt lat="41.12766" lon="19.59864">
        <ele>63.071648</ele>
        <time>2022-05-03T11:04:53.620Z</time>
      </trkpt>
      <trkpt lat="41.12775" lon="19.59859">
        <ele>63.187223</ele>
        <time>2022-05-03T11:04:55.627Z</time>
      </trkpt>
      <trkpt lat="41.12784" lon="19.59855">
        <ele>63.302482</ele>
        <time>2022-05-03T11:04:57.631Z</time>
      </trkpt>
      <trkpt lat="41.12793" lon="19.59851">
        <ele>63.415488</ele>
        <time>2022-05-03T11:04:59.637Z</time>
      </trkpt>
      <trkpt lat="41.12802" lon="19.59846">
        <ele>63.530134</ele>
        <time>2022-05-03T11:05:01.620Z</time>
      </trkpt>
      <trkpt lat="41.12811" lon="19.59842">
        <ele>63.642766</ele>
        <time>2022-05-03T11:05:03.631Z</time>
      </trkpt>
      <trkpt lat="41.1282" lon="19.59838">
        <ele>63.756279</ele>
        <time>2022-05-03T11:05:05.626Z</time>
      </trkpt>
      <trkpt lat="41.12829" lon="19.59834">
        <ele>63.87236</ele>
        <time>2022-05-03T11:05:07.634Z</time>
      </trkpt>
      <trkpt lat="41.12838" lon="19.5983">
        <ele>63.991551</ele>
        <time>2022-05-03T11:05:09.625Z</time>
      </trkpt>
      <trkpt lat="41.12848" lon="19.59826">
        <ele>64.113023</ele>
        <time>2022-05-03T11:05:11.623Z</time>
      </trkpt>
      <trkpt lat="41.12858" lon="19.59821">
        <ele>64.147468</ele>
        <time>2022-05-03T11:05:13.660Z</time>
      </trkpt>
      <trkpt lat="41.12868" lon="19.59817">
        <ele>64.146752</ele>
        <time>2022-05-03T11:05:15.643Z</time>
      </trkpt>
      <trkpt lat="41.12877" lon="19.59812">
        <ele>64.146041</ele>
        <time>2022-05-03T11:05:17.628Z</time>
      </trkpt>
      <trkpt lat="41.12887" lon="19.59808">
        <ele>64.145351</ele>
        <time>2022-05-03T11:05:19.635Z</time>
      </trkpt>
      <trkpt lat="41.12897" lon="19.59803">
        <ele>64.144648</ele>
        <time>2022-05-03T11:05:21.630Z</time>
      </trkpt>
      <trkpt lat="41.12906" lon="19.59798">
        <ele>64.143942</ele>
        <time>2022-05-03T11:05:23.622Z</time>
      </trkpt>
      <trkpt lat="41.12916" lon="19.59794">
        <ele>64.143251</ele>
        <time>2022-05-03T11:05:25.632Z</time>
      </trkpt>
      <trkpt lat="41.12925" lon="19.5979">
        <ele>64.142554</ele>
        <time>2022-05-03T11:05:27.610Z</time>
      </trkpt>
      <trkpt lat="41.12935" lon="19.59785">
        <ele>64.141863</ele>
        <time>2022-05-03T11:05:29.625Z</time>
      </trkpt>
      <trkpt lat="41.12944" lon="19.59781">
        <ele>64.141171</ele>
        <time>2022-05-03T11:05:31.631Z</time>
      </trkpt>
      <trkpt lat="41.12954" lon="19.59776">
        <ele>64.140481</ele>
        <time>2022-05-03T11:05:33.663Z</time>
      </trkpt>
      <trkpt lat="41.12963" lon="19.59771">
        <ele>64.139816</ele>
        <time>2022-05-03T11:05:35.626Z</time>
      </trkpt>
      <trkpt lat="41.12972" lon="19.59766">
        <ele>64.139132</ele>
        <time>2022-05-03T11:05:37.661Z</time>
      </trkpt>
      <trkpt lat="41.12981" lon="19.59761">
        <ele>64.138457</ele>
        <time>2022-05-03T11:05:39.666Z</time>
      </trkpt>
      <trkpt lat="41.1299" lon="19.59757">
        <ele>64.13778</ele>
        <time>2022-05-03T11:05:41.626Z</time>
      </trkpt>
      <trkpt lat="41.12999" lon="19.59752">
        <ele>64.137117</ele>
        <time>2022-05-03T11:05:43.617Z</time>
      </trkpt>
      <trkpt lat="41.13008" lon="19.59748">
        <ele>64.136469</ele>
        <time>2022-05-03T11:05:45.637Z</time>
      </trkpt>
      <trkpt lat="41.13017" lon="19.59742">
        <ele>64.135793</ele>
        <time>2022-05-03T11:05:47.606Z</time>
      </trkpt>
      <trkpt lat="41.13026" lon="19.59736">
        <ele>64.162605</ele>
        <time>2022-05-03T11:05:49.615Z</time>
      </trkpt>
      <trkpt lat="41.13035" lon="19.59731">
        <ele>64.197589</ele>
        <time>2022-05-03T11:05:51.636Z</time>
      </trkpt>
      <trkpt lat="41.13044" lon="19.59726">
        <ele>64.232807</ele>
        <time>2022-05-03T11:05:53.667Z</time>
      </trkpt>
      <trkpt lat="41.13053" lon="19.59723">
        <ele>64.266344</ele>
        <time>2022-05-03T11:05:55.621Z</time>
      </trkpt>
      <trkpt lat="41.13066" lon="19.59718">
        <ele>64.316006</ele>
        <time>2022-05-03T11:05:58.618Z</time>
      </trkpt>
      <trkpt lat="41.13075" lon="19.59714">
        <ele>64.352139</ele>
        <time>2022-05-03T11:06:00.634Z</time>
      </trkpt>
      <trkpt lat="41.13085" lon="19.5971">
        <ele>64.386546</ele>
        <time>2022-05-03T11:06:02.632Z</time>
      </trkpt>
      <trkpt lat="41.13094" lon="19.59706">
        <ele>64.422662</ele>
        <time>2022-05-03T11:06:04.658Z</time>
      </trkpt>
      <trkpt lat="41.13103" lon="19.59702">
        <ele>64.458435</ele>
        <time>2022-05-03T11:06:06.634Z</time>
      </trkpt>
      <trkpt lat="41.13113" lon="19.59698">
        <ele>64.493352</ele>
        <time>2022-05-03T11:06:08.622Z</time>
      </trkpt>
      <trkpt lat="41.13122" lon="19.59694">
        <ele>64.527421</ele>
        <time>2022-05-03T11:06:10.670Z</time>
      </trkpt>
      <trkpt lat="41.1313" lon="19.5969">
        <ele>64.561581</ele>
        <time>2022-05-03T11:06:12.633Z</time>
      </trkpt>
      <trkpt lat="41.13139" lon="19.59685">
        <ele>64.594689</ele>
        <time>2022-05-03T11:06:14.622Z</time>
      </trkpt>
      <trkpt lat="41.13151" lon="19.59679">
        <ele>64.640939</ele>
        <time>2022-05-03T11:06:17.645Z</time>
      </trkpt>
      <trkpt lat="41.13163" lon="19.59673">
        <ele>64.686949</ele>
        <time>2022-05-03T11:06:20.624Z</time>
      </trkpt>
      <trkpt lat="41.13175" lon="19.59668">
        <ele>64.731538</ele>
        <time>2022-05-03T11:06:23.612Z</time>
      </trkpt>
      <trkpt lat="41.13187" lon="19.59663">
        <ele>64.777764</ele>
        <time>2022-05-03T11:06:26.618Z</time>
      </trkpt>
      <trkpt lat="41.13199" lon="19.5966">
        <ele>65.167365</ele>
        <time>2022-05-03T11:06:29.636Z</time>
      </trkpt>
      <trkpt lat="41.13211" lon="19.59654">
        <ele>65.62996</ele>
        <time>2022-05-03T11:06:32.627Z</time>
      </trkpt>
      <trkpt lat="41.13223" lon="19.59648">
        <ele>66.097541</ele>
        <time>2022-05-03T11:06:35.630Z</time>
      </trkpt>
      <trkpt lat="41.13234" lon="19.59642">
        <ele>66.560788</ele>
        <time>2022-05-03T11:06:38.663Z</time>
      </trkpt>
      <trkpt lat="41.13246" lon="19.59636">
        <ele>67.031782</ele>
        <time>2022-05-03T11:06:41.637Z</time>
      </trkpt>
      <trkpt lat="41.13258" lon="19.5963">
        <ele>67.488099</ele>
        <time>2022-05-03T11:06:44.625Z</time>
      </trkpt>
      <trkpt lat="41.13266" lon="19.59625">
        <ele>67.822158</ele>
        <time>2022-05-03T11:06:46.618Z</time>
      </trkpt>
      <trkpt lat="41.13278" lon="19.59619">
        <ele>68.279844</ele>
        <time>2022-05-03T11:06:49.679Z</time>
      </trkpt>
      <trkpt lat="41.13289" lon="19.59617">
        <ele>68.69205</ele>
        <time>2022-05-03T11:06:52.619Z</time>
      </trkpt>
      <trkpt lat="41.13298" lon="19.59626">
        <ele>69.110885</ele>
        <time>2022-05-03T11:06:55.622Z</time>
      </trkpt>
      <trkpt lat="41.13301" lon="19.59641">
        <ele>69.527268</ele>
        <time>2022-05-03T11:06:58.632Z</time>
      </trkpt>
      <trkpt lat="41.13304" lon="19.59655">
        <ele>69.94464</ele>
        <time>2022-05-03T11:07:01.630Z</time>
      </trkpt>
      <trkpt lat="41.13307" lon="19.59669">
        <ele>70.336029</ele>
        <time>2022-05-03T11:07:04.612Z</time>
      </trkpt>
      <trkpt lat="41.13311" lon="19.59683">
        <ele>70.754714</ele>
        <time>2022-05-03T11:07:07.633Z</time>
      </trkpt>
      <trkpt lat="41.13315" lon="19.59696">
        <ele>71.1487</ele>
        <time>2022-05-03T11:07:10.637Z</time>
      </trkpt>
      <trkpt lat="41.13318" lon="19.59709">
        <ele>71.333833</ele>
        <time>2022-05-03T11:07:13.638Z</time>
      </trkpt>
      <trkpt lat="41.13322" lon="19.59721">
        <ele>71.1381</ele>
        <time>2022-05-03T11:07:16.629Z</time>
      </trkpt>
      <trkpt lat="41.13326" lon="19.59733">
        <ele>70.937339</ele>
        <time>2022-05-03T11:07:19.644Z</time>
      </trkpt>
      <trkpt lat="41.13329" lon="19.59747">
        <ele>70.722381</ele>
        <time>2022-05-03T11:07:22.628Z</time>
      </trkpt>
      <trkpt lat="41.13332" lon="19.59759">
        <ele>70.528049</ele>
        <time>2022-05-03T11:07:25.620Z</time>
      </trkpt>
      <trkpt lat="41.1334" lon="19.59769">
        <ele>70.297533</ele>
        <time>2022-05-03T11:07:29.650Z</time>
      </trkpt>
      <trkpt lat="41.13351" lon="19.59765">
        <ele>70.06955</ele>
        <time>2022-05-03T11:07:33.632Z</time>
      </trkpt>
      <trkpt lat="41.1336" lon="19.59759">
        <ele>69.874768</ele>
        <time>2022-05-03T11:07:37.630Z</time>
      </trkpt>
      <trkpt lat="41.13369" lon="19.59754">
        <ele>69.687014</ele>
        <time>2022-05-03T11:07:42.634Z</time>
      </trkpt>
      <trkpt lat="41.1338" lon="19.59748">
        <ele>69.449854</ele>
        <time>2022-05-03T11:07:47.631Z</time>
      </trkpt>
      <trkpt lat="41.13388" lon="19.59743">
        <ele>69.267821</ele>
        <time>2022-05-03T11:07:49.634Z</time>
      </trkpt>
      <trkpt lat="41.13397" lon="19.59736">
        <ele>69.044706</ele>
        <time>2022-05-03T11:07:51.620Z</time>
      </trkpt>
      <trkpt lat="41.13408" lon="19.59728">
        <ele>68.806366</ele>
        <time>2022-05-03T11:07:53.631Z</time>
      </trkpt>
      <trkpt lat="41.13418" lon="19.59722">
        <ele>68.572269</ele>
        <time>2022-05-03T11:07:55.610Z</time>
      </trkpt>
      <trkpt lat="41.13428" lon="19.59716">
        <ele>68.351625</ele>
        <time>2022-05-03T11:07:57.627Z</time>
      </trkpt>
      <trkpt lat="41.13438" lon="19.59708">
        <ele>68.136881</ele>
        <time>2022-05-03T11:07:59.631Z</time>
      </trkpt>
      <trkpt lat="41.13447" lon="19.59702">
        <ele>67.930414</ele>
        <time>2022-05-03T11:08:01.634Z</time>
      </trkpt>
      <trkpt lat="41.13456" lon="19.59696">
        <ele>67.719302</ele>
        <time>2022-05-03T11:08:03.629Z</time>
      </trkpt>
      <trkpt lat="41.13464" lon="19.5969">
        <ele>67.527395</ele>
        <time>2022-05-03T11:08:05.633Z</time>
      </trkpt>
      <trkpt lat="41.13473" lon="19.59681">
        <ele>67.292066</ele>
        <time>2022-05-03T11:08:08.610Z</time>
      </trkpt>
      <trkpt lat="41.13477" lon="19.59669">
        <ele>67.088539</ele>
        <time>2022-05-03T11:08:11.625Z</time>
      </trkpt>
      <trkpt lat="41.13472" lon="19.59654">
        <ele>66.830043</ele>
        <time>2022-05-03T11:08:14.627Z</time>
      </trkpt>
      <trkpt lat="41.13466" lon="19.59644">
        <ele>66.637013</ele>
        <time>2022-05-03T11:08:16.619Z</time>
      </trkpt>
      <trkpt lat="41.1346" lon="19.5963">
        <ele>66.368838</ele>
        <time>2022-05-03T11:08:19.633Z</time>
      </trkpt>
      <trkpt lat="41.13455" lon="19.59617">
        <ele>66.145294</ele>
        <time>2022-05-03T11:08:22.628Z</time>
      </trkpt>
      <trkpt lat="41.13455" lon="19.59605">
        <ele>65.952604</ele>
        <time>2022-05-03T11:08:26.639Z</time>
      </trkpt>
      <trkpt lat="41.13451" lon="19.59591">
        <ele>65.714631</ele>
        <time>2022-05-03T11:08:31.621Z</time>
      </trkpt>
      <trkpt lat="41.13447" lon="19.59577">
        <ele>65.489927</ele>
        <time>2022-05-03T11:08:35.622Z</time>
      </trkpt>
      <trkpt lat="41.13443" lon="19.59566">
        <ele>65.2777</ele>
        <time>2022-05-03T11:08:39.659Z</time>
      </trkpt>
      <trkpt lat="41.13439" lon="19.59552">
        <ele>65.041204</ele>
        <time>2022-05-03T11:08:43.630Z</time>
      </trkpt>
      <trkpt lat="41.13445" lon="19.5954">
        <ele>64.812847</ele>
        <time>2022-05-03T11:08:47.646Z</time>
      </trkpt>
      <trkpt lat="41.13456" lon="19.59536">
        <ele>64.566341</ele>
        <time>2022-05-03T11:08:50.633Z</time>
      </trkpt>
      <trkpt lat="41.13467" lon="19.5953">
        <ele>64.331101</ele>
        <time>2022-05-03T11:08:53.629Z</time>
      </trkpt>
      <trkpt lat="41.13477" lon="19.59525">
        <ele>64.101659</ele>
        <time>2022-05-03T11:08:56.642Z</time>
      </trkpt>
      <trkpt lat="41.13487" lon="19.5952">
        <ele>64.2429</ele>
        <time>2022-05-03T11:08:59.623Z</time>
      </trkpt>
      <trkpt lat="41.13498" lon="19.59515">
        <ele>64.613484</ele>
        <time>2022-05-03T11:09:02.607Z</time>
      </trkpt>
      <trkpt lat="41.13508" lon="19.59511">
        <ele>64.969116</ele>
        <time>2022-05-03T11:09:05.622Z</time>
      </trkpt>
      <trkpt lat="41.13518" lon="19.5951">
        <ele>65.296829</ele>
        <time>2022-05-03T11:09:08.634Z</time>
      </trkpt>
      <trkpt lat="41.13527" lon="19.59505">
        <ele>65.607977</ele>
        <time>2022-05-03T11:09:12.626Z</time>
      </trkpt>
      <trkpt lat="41.13537" lon="19.59501">
        <ele>65.964426</ele>
        <time>2022-05-03T11:09:16.628Z</time>
      </trkpt>
      <trkpt lat="41.13547" lon="19.59493">
        <ele>66.365002</ele>
        <time>2022-05-03T11:09:20.617Z</time>
      </trkpt>
      <trkpt lat="41.13557" lon="19.59487">
        <ele>66.703073</ele>
        <time>2022-05-03T11:09:23.639Z</time>
      </trkpt>
      <trkpt lat="41.13567" lon="19.59484">
        <ele>67.054205</ele>
        <time>2022-05-03T11:09:26.621Z</time>
      </trkpt>
      <trkpt lat="41.13577" lon="19.59482">
        <ele>67.389211</ele>
        <time>2022-05-03T11:09:29.626Z</time>
      </trkpt>
      <trkpt lat="41.13585" lon="19.59476">
        <ele>67.70319</ele>
        <time>2022-05-03T11:09:32.627Z</time>
      </trkpt>
      <trkpt lat="41.13597" lon="19.59473">
        <ele>68.084997</ele>
        <time>2022-05-03T11:09:36.645Z</time>
      </trkpt>
      <trkpt lat="41.13607" lon="19.59466">
        <ele>68.468416</ele>
        <time>2022-05-03T11:09:39.602Z</time>
      </trkpt>
      <trkpt lat="41.13619" lon="19.5946">
        <ele>68.882183</ele>
        <time>2022-05-03T11:09:42.633Z</time>
      </trkpt>
      <trkpt lat="41.1363" lon="19.59453">
        <ele>69.287717</ele>
        <time>2022-05-03T11:09:45.617Z</time>
      </trkpt>
      <trkpt lat="41.1364" lon="19.59448">
        <ele>69.664293</ele>
        <time>2022-05-03T11:09:48.622Z</time>
      </trkpt>
      <trkpt lat="41.13651" lon="19.59444">
        <ele>69.954871</ele>
        <time>2022-05-03T11:09:51.632Z</time>
      </trkpt>
      <trkpt lat="41.13662" lon="19.59439">
        <ele>69.859361</ele>
        <time>2022-05-03T11:09:54.636Z</time>
      </trkpt>
      <trkpt lat="41.13673" lon="19.59433">
        <ele>69.768016</ele>
        <time>2022-05-03T11:09:57.627Z</time>
      </trkpt>
      <trkpt lat="41.13682" lon="19.59427">
        <ele>69.679191</ele>
        <time>2022-05-03T11:10:00.626Z</time>
      </trkpt>
      <trkpt lat="41.13693" lon="19.59423">
        <ele>69.589887</ele>
        <time>2022-05-03T11:10:03.639Z</time>
      </trkpt>
      <trkpt lat="41.13702" lon="19.59418">
        <ele>69.508032</ele>
        <time>2022-05-03T11:10:06.653Z</time>
      </trkpt>
      <trkpt lat="41.13711" lon="19.59415">
        <ele>69.429747</ele>
        <time>2022-05-03T11:10:09.639Z</time>
      </trkpt>
      <trkpt lat="41.13721" lon="19.59411">
        <ele>69.349111</ele>
        <time>2022-05-03T11:10:12.631Z</time>
      </trkpt>
      <trkpt lat="41.13731" lon="19.59407">
        <ele>69.265058</ele>
        <time>2022-05-03T11:10:15.668Z</time>
      </trkpt>
      <trkpt lat="41.13742" lon="19.59402">
        <ele>69.17055</ele>
        <time>2022-05-03T11:10:18.629Z</time>
      </trkpt>
      <trkpt lat="41.13754" lon="19.59395">
        <ele>69.061738</ele>
        <time>2022-05-03T11:10:21.615Z</time>
      </trkpt>
      <trkpt lat="41.13766" lon="19.5939">
        <ele>68.957919</ele>
        <time>2022-05-03T11:10:24.623Z</time>
      </trkpt>
      <trkpt lat="41.13778" lon="19.59385">
        <ele>68.858374</ele>
        <time>2022-05-03T11:10:27.637Z</time>
      </trkpt>
      <trkpt lat="41.13789" lon="19.5938">
        <ele>68.759605</ele>
        <time>2022-05-03T11:10:30.633Z</time>
      </trkpt>
      <trkpt lat="41.138" lon="19.59375">
        <ele>68.667789</ele>
        <time>2022-05-03T11:10:33.626Z</time>
      </trkpt>
      <trkpt lat="41.1381" lon="19.59368">
        <ele>68.57725</ele>
        <time>2022-05-03T11:10:36.629Z</time>
      </trkpt>
      <trkpt lat="41.13819" lon="19.59362">
        <ele>68.502898</ele>
        <time>2022-05-03T11:10:39.626Z</time>
      </trkpt>
      <trkpt lat="41.13829" lon="19.59358">
        <ele>68.505815</ele>
        <time>2022-05-03T11:10:42.638Z</time>
      </trkpt>
      <trkpt lat="41.13839" lon="19.59354">
        <ele>68.50904</ele>
        <time>2022-05-03T11:10:45.634Z</time>
      </trkpt>
      <trkpt lat="41.13849" lon="19.59349">
        <ele>68.512077</ele>
        <time>2022-05-03T11:10:48.616Z</time>
      </trkpt>
      <trkpt lat="41.13858" lon="19.59344">
        <ele>68.514931</ele>
        <time>2022-05-03T11:10:51.627Z</time>
      </trkpt>
      <trkpt lat="41.13868" lon="19.59341">
        <ele>68.517923</ele>
        <time>2022-05-03T11:10:55.628Z</time>
      </trkpt>
      <trkpt lat="41.13876" lon="19.59334">
        <ele>68.520784</ele>
        <time>2022-05-03T11:10:58.639Z</time>
      </trkpt>
      <trkpt lat="41.13885" lon="19.59329">
        <ele>68.523653</ele>
        <time>2022-05-03T11:11:01.625Z</time>
      </trkpt>
      <trkpt lat="41.13895" lon="19.59323">
        <ele>68.526889</ele>
        <time>2022-05-03T11:11:04.643Z</time>
      </trkpt>
      <trkpt lat="41.13906" lon="19.59319">
        <ele>68.530344</ele>
        <time>2022-05-03T11:11:07.641Z</time>
      </trkpt>
      <trkpt lat="41.13919" lon="19.59314">
        <ele>68.534241</ele>
        <time>2022-05-03T11:11:10.627Z</time>
      </trkpt>
      <trkpt lat="41.13928" lon="19.59309">
        <ele>68.537277</ele>
        <time>2022-05-03T11:11:12.633Z</time>
      </trkpt>
      <trkpt lat="41.13937" lon="19.59306">
        <ele>68.540006</ele>
        <time>2022-05-03T11:11:14.624Z</time>
      </trkpt>
      <trkpt lat="41.13949" lon="19.593">
        <ele>68.543727</ele>
        <time>2022-05-03T11:11:17.635Z</time>
      </trkpt>
      <trkpt lat="41.13961" lon="19.59295">
        <ele>68.54728</ele>
        <time>2022-05-03T11:11:20.642Z</time>
      </trkpt>
      <trkpt lat="41.13972" lon="19.5929">
        <ele>68.550895</ele>
        <time>2022-05-03T11:11:23.631Z</time>
      </trkpt>
      <trkpt lat="41.13983" lon="19.59284">
        <ele>68.554192</ele>
        <time>2022-05-03T11:11:26.640Z</time>
      </trkpt>
      <trkpt lat="41.13994" lon="19.59278">
        <ele>68.582002</ele>
        <time>2022-05-03T11:11:29.632Z</time>
      </trkpt>
      <trkpt lat="41.14005" lon="19.59273">
        <ele>68.621615</ele>
        <time>2022-05-03T11:11:32.624Z</time>
      </trkpt>
      <trkpt lat="41.14015" lon="19.59268">
        <ele>68.660409</ele>
        <time>2022-05-03T11:11:35.636Z</time>
      </trkpt>
      <trkpt lat="41.14027" lon="19.59264">
        <ele>68.702222</ele>
        <time>2022-05-03T11:11:38.622Z</time>
      </trkpt>
      <trkpt lat="41.14038" lon="19.59259">
        <ele>68.74346</ele>
        <time>2022-05-03T11:11:41.622Z</time>
      </trkpt>
      <trkpt lat="41.14049" lon="19.59254">
        <ele>68.783721</ele>
        <time>2022-05-03T11:11:44.644Z</time>
      </trkpt>
      <trkpt lat="41.1406" lon="19.59248">
        <ele>68.823916</ele>
        <time>2022-05-03T11:11:47.637Z</time>
      </trkpt>
      <trkpt lat="41.14071" lon="19.59244">
        <ele>68.861976</ele>
        <time>2022-05-03T11:11:50.630Z</time>
      </trkpt>
      <trkpt lat="41.14082" lon="19.59239">
        <ele>68.902169</ele>
        <time>2022-05-03T11:11:53.620Z</time>
      </trkpt>
      <trkpt lat="41.14093" lon="19.59235">
        <ele>68.940973</ele>
        <time>2022-05-03T11:11:56.627Z</time>
      </trkpt>
      <trkpt lat="41.14103" lon="19.59229">
        <ele>68.978595</ele>
        <time>2022-05-03T11:11:59.620Z</time>
      </trkpt>
      <trkpt lat="41.14114" lon="19.59225">
        <ele>69.017307</ele>
        <time>2022-05-03T11:12:02.628Z</time>
      </trkpt>
      <trkpt lat="41.14125" lon="19.5922">
        <ele>69.05651</ele>
        <time>2022-05-03T11:12:05.610Z</time>
      </trkpt>
      <trkpt lat="41.14135" lon="19.59215">
        <ele>69.094735</ele>
        <time>2022-05-03T11:12:08.615Z</time>
      </trkpt>
      <trkpt lat="41.14147" lon="19.5921">
        <ele>69.13631</ele>
        <time>2022-05-03T11:12:11.674Z</time>
      </trkpt>
      <trkpt lat="41.14158" lon="19.59204">
        <ele>69.163939</ele>
        <time>2022-05-03T11:12:14.616Z</time>
      </trkpt>
      <trkpt lat="41.14169" lon="19.592">
        <ele>69.070028</ele>
        <time>2022-05-03T11:12:17.623Z</time>
      </trkpt>
      <trkpt lat="41.1418" lon="19.59196">
        <ele>68.974365</ele>
        <time>2022-05-03T11:12:20.634Z</time>
      </trkpt>
      <trkpt lat="41.14191" lon="19.5919">
        <ele>68.874061</ele>
        <time>2022-05-03T11:12:23.621Z</time>
      </trkpt>
      <trkpt lat="41.14202" lon="19.59185">
        <ele>68.775948</ele>
        <time>2022-05-03T11:12:26.644Z</time>
      </trkpt>
      <trkpt lat="41.14213" lon="19.59179">
        <ele>68.678262</ele>
        <time>2022-05-03T11:12:29.631Z</time>
      </trkpt>
      <trkpt lat="41.14224" lon="19.59173">
        <ele>68.584137</ele>
        <time>2022-05-03T11:12:32.629Z</time>
      </trkpt>
      <trkpt lat="41.14235" lon="19.59166">
        <ele>68.488256</ele>
        <time>2022-05-03T11:12:35.632Z</time>
      </trkpt>
      <trkpt lat="41.14246" lon="19.5916">
        <ele>68.386356</ele>
        <time>2022-05-03T11:12:38.612Z</time>
      </trkpt>
      <trkpt lat="41.14257" lon="19.59155">
        <ele>68.288474</ele>
        <time>2022-05-03T11:12:41.613Z</time>
      </trkpt>
      <trkpt lat="41.14268" lon="19.5915">
        <ele>68.195634</ele>
        <time>2022-05-03T11:12:44.636Z</time>
      </trkpt>
      <trkpt lat="41.14278" lon="19.59145">
        <ele>68.102917</ele>
        <time>2022-05-03T11:12:47.629Z</time>
      </trkpt>
      <trkpt lat="41.1429" lon="19.5914">
        <ele>68.00522</ele>
        <time>2022-05-03T11:12:50.640Z</time>
      </trkpt>
      <trkpt lat="41.14301" lon="19.59134">
        <ele>67.905465</ele>
        <time>2022-05-03T11:12:53.644Z</time>
      </trkpt>
      <trkpt lat="41.14313" lon="19.59128">
        <ele>67.799439</ele>
        <time>2022-05-03T11:12:56.635Z</time>
      </trkpt>
      <trkpt lat="41.14324" lon="19.59123">
        <ele>67.705829</ele>
        <time>2022-05-03T11:12:59.639Z</time>
      </trkpt>
      <trkpt lat="41.14334" lon="19.59119">
        <ele>68.05796</ele>
        <time>2022-05-03T11:13:02.664Z</time>
      </trkpt>
      <trkpt lat="41.14345" lon="19.59113">
        <ele>68.501252</ele>
        <time>2022-05-03T11:13:05.638Z</time>
      </trkpt>
      <trkpt lat="41.14356" lon="19.59109">
        <ele>68.949597</ele>
        <time>2022-05-03T11:13:08.612Z</time>
      </trkpt>
      <trkpt lat="41.14367" lon="19.59104">
        <ele>69.391389</ele>
        <time>2022-05-03T11:13:11.622Z</time>
      </trkpt>
      <trkpt lat="41.14377" lon="19.59099">
        <ele>69.822069</ele>
        <time>2022-05-03T11:13:14.612Z</time>
      </trkpt>
      <trkpt lat="41.14387" lon="19.59094">
        <ele>70.220119</ele>
        <time>2022-05-03T11:13:17.624Z</time>
      </trkpt>
      <trkpt lat="41.14397" lon="19.5909">
        <ele>70.64263</ele>
        <time>2022-05-03T11:13:20.626Z</time>
      </trkpt>
      <trkpt lat="41.14407" lon="19.59085">
        <ele>71.070548</ele>
        <time>2022-05-03T11:13:23.631Z</time>
      </trkpt>
      <trkpt lat="41.14417" lon="19.5908">
        <ele>71.471754</ele>
        <time>2022-05-03T11:13:26.649Z</time>
      </trkpt>
      <trkpt lat="41.14427" lon="19.59075">
        <ele>71.898086</ele>
        <time>2022-05-03T11:13:30.622Z</time>
      </trkpt>
      <trkpt lat="41.14437" lon="19.59071">
        <ele>72.31236</ele>
        <time>2022-05-03T11:13:34.629Z</time>
      </trkpt>
      <trkpt lat="41.1445" lon="19.5907">
        <ele>72.792555</ele>
        <time>2022-05-03T11:13:38.615Z</time>
      </trkpt>
      <trkpt lat="41.14459" lon="19.59073">
        <ele>73.161561</ele>
        <time>2022-05-03T11:13:41.619Z</time>
      </trkpt>
      <trkpt lat="41.14466" lon="19.59082">
        <ele>73.556252</ele>
        <time>2022-05-03T11:13:45.625Z</time>
      </trkpt>
      <trkpt lat="41.14477" lon="19.59085">
        <ele>73.988701</ele>
        <time>2022-05-03T11:13:49.601Z</time>
      </trkpt>
      <trkpt lat="41.14487" lon="19.59081">
        <ele>74.418751</ele>
        <time>2022-05-03T11:13:52.607Z</time>
      </trkpt>
      <trkpt lat="41.14496" lon="19.59076">
        <ele>74.657418</ele>
        <time>2022-05-03T11:13:55.630Z</time>
      </trkpt>
      <trkpt lat="41.14506" lon="19.59073">
        <ele>74.517194</ele>
        <time>2022-05-03T11:13:58.612Z</time>
      </trkpt>
      <trkpt lat="41.14515" lon="19.59069">
        <ele>74.36214</ele>
        <time>2022-05-03T11:14:01.630Z</time>
      </trkpt>
      <trkpt lat="41.14526" lon="19.59065">
        <ele>74.205735</ele>
        <time>2022-05-03T11:14:04.643Z</time>
      </trkpt>
      <trkpt lat="41.14537" lon="19.5906">
        <ele>74.021913</ele>
        <time>2022-05-03T11:14:07.635Z</time>
      </trkpt>
      <trkpt lat="41.14549" lon="19.59054">
        <ele>73.828148</ele>
        <time>2022-05-03T11:14:10.631Z</time>
      </trkpt>
      <trkpt lat="41.14556" lon="19.59045">
        <ele>73.689307</ele>
        <time>2022-05-03T11:14:12.634Z</time>
      </trkpt>
      <trkpt lat="41.1456" lon="19.59029">
        <ele>73.496592</ele>
        <time>2022-05-03T11:14:15.624Z</time>
      </trkpt>
      <trkpt lat="41.14565" lon="19.59018">
        <ele>73.353053</ele>
        <time>2022-05-03T11:14:17.649Z</time>
      </trkpt>
      <trkpt lat="41.14574" lon="19.59011">
        <ele>73.193614</ele>
        <time>2022-05-03T11:14:19.609Z</time>
      </trkpt>
      <trkpt lat="41.14585" lon="19.59006">
        <ele>73.016203</ele>
        <time>2022-05-03T11:14:21.618Z</time>
      </trkpt>
      <trkpt lat="41.14596" lon="19.59">
        <ele>72.841083</ele>
        <time>2022-05-03T11:14:23.676Z</time>
      </trkpt>
      <trkpt lat="41.14606" lon="19.58994">
        <ele>72.681467</ele>
        <time>2022-05-03T11:14:25.631Z</time>
      </trkpt>
      <trkpt lat="41.14616" lon="19.58988">
        <ele>72.51291</ele>
        <time>2022-05-03T11:14:27.617Z</time>
      </trkpt>
      <trkpt lat="41.14626" lon="19.58982">
        <ele>72.346567</ele>
        <time>2022-05-03T11:14:29.651Z</time>
      </trkpt>
      <trkpt lat="41.14637" lon="19.58977">
        <ele>72.171614</ele>
        <time>2022-05-03T11:14:31.649Z</time>
      </trkpt>
      <trkpt lat="41.14647" lon="19.58972">
        <ele>72.007496</ele>
        <time>2022-05-03T11:14:33.633Z</time>
      </trkpt>
      <trkpt lat="41.14657" lon="19.58966">
        <ele>71.693736</ele>
        <time>2022-05-03T11:14:35.620Z</time>
      </trkpt>
      <trkpt lat="41.14667" lon="19.58961">
        <ele>71.381275</ele>
        <time>2022-05-03T11:14:37.664Z</time>
      </trkpt>
      <trkpt lat="41.14676" lon="19.58955">
        <ele>71.063372</ele>
        <time>2022-05-03T11:14:39.614Z</time>
      </trkpt>
      <trkpt lat="41.14686" lon="19.58949">
        <ele>70.739754</ele>
        <time>2022-05-03T11:14:41.621Z</time>
      </trkpt>
      <trkpt lat="41.14696" lon="19.58943">
        <ele>70.429108</ele>
        <time>2022-05-03T11:14:43.626Z</time>
      </trkpt>
      <trkpt lat="41.14705" lon="19.58938">
        <ele>70.122844</ele>
        <time>2022-05-03T11:14:45.623Z</time>
      </trkpt>
      <trkpt lat="41.14715" lon="19.58933">
        <ele>69.81314</ele>
        <time>2022-05-03T11:14:47.642Z</time>
      </trkpt>
      <trkpt lat="41.14724" lon="19.58927">
        <ele>69.497977</ele>
        <time>2022-05-03T11:14:49.626Z</time>
      </trkpt>
      <trkpt lat="41.14734" lon="19.58921">
        <ele>69.17642</ele>
        <time>2022-05-03T11:14:51.635Z</time>
      </trkpt>
      <trkpt lat="41.14744" lon="19.58914">
        <ele>68.840733</ele>
        <time>2022-05-03T11:14:53.645Z</time>
      </trkpt>
      <trkpt lat="41.14754" lon="19.58908">
        <ele>68.497202</ele>
        <time>2022-05-03T11:14:55.631Z</time>
      </trkpt>
      <trkpt lat="41.14765" lon="19.58902">
        <ele>68.15446</ele>
        <time>2022-05-03T11:14:57.632Z</time>
      </trkpt>
      <trkpt lat="41.14776" lon="19.58897">
        <ele>67.799752</ele>
        <time>2022-05-03T11:14:59.618Z</time>
      </trkpt>
      <trkpt lat="41.14788" lon="19.58891">
        <ele>67.41362</ele>
        <time>2022-05-03T11:15:01.633Z</time>
      </trkpt>
      <trkpt lat="41.148" lon="19.58885">
        <ele>67.035734</ele>
        <time>2022-05-03T11:15:03.602Z</time>
      </trkpt>
      <trkpt lat="41.14812" lon="19.5888">
        <ele>66.666585</ele>
        <time>2022-05-03T11:15:05.669Z</time>
      </trkpt>
      <trkpt lat="41.14823" lon="19.58874">
        <ele>66.474914</ele>
        <time>2022-05-03T11:15:07.636Z</time>
      </trkpt>
      <trkpt lat="41.14834" lon="19.58868">
        <ele>66.314224</ele>
        <time>2022-05-03T11:15:09.621Z</time>
      </trkpt>
      <trkpt lat="41.14844" lon="19.58863">
        <ele>66.156681</ele>
        <time>2022-05-03T11:15:11.627Z</time>
      </trkpt>
      <trkpt lat="41.14855" lon="19.58857">
        <ele>66.000942</ele>
        <time>2022-05-03T11:15:13.635Z</time>
      </trkpt>
      <trkpt lat="41.14865" lon="19.58851">
        <ele>65.846934</ele>
        <time>2022-05-03T11:15:15.622Z</time>
      </trkpt>
      <trkpt lat="41.14875" lon="19.58843">
        <ele>65.693828</ele>
        <time>2022-05-03T11:15:17.633Z</time>
      </trkpt>
      <trkpt lat="41.14883" lon="19.58834">
        <ele>65.543568</ele>
        <time>2022-05-03T11:15:19.630Z</time>
      </trkpt>
      <trkpt lat="41.14891" lon="19.58823">
        <ele>65.393636</ele>
        <time>2022-05-03T11:15:21.630Z</time>
      </trkpt>
      <trkpt lat="41.14898" lon="19.58812">
        <ele>65.246538</ele>
        <time>2022-05-03T11:15:23.620Z</time>
      </trkpt>
      <trkpt lat="41.14903" lon="19.588">
        <ele>65.102427</ele>
        <time>2022-05-03T11:15:25.619Z</time>
      </trkpt>
      <trkpt lat="41.14908" lon="19.58788">
        <ele>64.958471</ele>
        <time>2022-05-03T11:15:27.643Z</time>
      </trkpt>
      <trkpt lat="41.14912" lon="19.58776">
        <ele>64.820336</ele>
        <time>2022-05-03T11:15:29.638Z</time>
      </trkpt>
      <trkpt lat="41.14918" lon="19.58764">
        <ele>64.682442</ele>
        <time>2022-05-03T11:15:31.644Z</time>
      </trkpt>
      <trkpt lat="41.14923" lon="19.58753">
        <ele>64.552115</ele>
        <time>2022-05-03T11:15:33.661Z</time>
      </trkpt>
      <trkpt lat="41.1493" lon="19.58739">
        <ele>64.373175</ele>
        <time>2022-05-03T11:15:36.646Z</time>
      </trkpt>
      <trkpt lat="41.14937" lon="19.58724">
        <ele>64.195484</ele>
        <time>2022-05-03T11:15:39.623Z</time>
      </trkpt>
      <trkpt lat="41.14944" lon="19.5871">
        <ele>64.391985</ele>
        <time>2022-05-03T11:15:42.626Z</time>
      </trkpt>
      <trkpt lat="41.14949" lon="19.58699">
        <ele>64.613548</ele>
        <time>2022-05-03T11:15:44.668Z</time>
      </trkpt>
      <trkpt lat="41.14955" lon="19.58688">
        <ele>64.846093</ele>
        <time>2022-05-03T11:15:46.617Z</time>
      </trkpt>
      <trkpt lat="41.14961" lon="19.58678">
        <ele>65.088231</ele>
        <time>2022-05-03T11:15:48.628Z</time>
      </trkpt>
      <trkpt lat="41.14968" lon="19.58667">
        <ele>65.331501</ele>
        <time>2022-05-03T11:15:50.613Z</time>
      </trkpt>
      <trkpt lat="41.14976" lon="19.58659">
        <ele>65.560209</ele>
        <time>2022-05-03T11:15:52.635Z</time>
      </trkpt>
      <trkpt lat="41.14986" lon="19.58648">
        <ele>65.865694</ele>
        <time>2022-05-03T11:15:55.651Z</time>
      </trkpt>
      <trkpt lat="41.14994" lon="19.58642">
        <ele>66.086608</ele>
        <time>2022-05-03T11:15:57.621Z</time>
      </trkpt>
      <trkpt lat="41.15002" lon="19.58635">
        <ele>66.306584</ele>
        <time>2022-05-03T11:15:59.627Z</time>
      </trkpt>
      <trkpt lat="41.1501" lon="19.58629">
        <ele>66.5223</ele>
        <time>2022-05-03T11:16:01.634Z</time>
      </trkpt>
      <trkpt lat="41.15022" lon="19.5862">
        <ele>66.833885</ele>
        <time>2022-05-03T11:16:04.625Z</time>
      </trkpt>
      <trkpt lat="41.15033" lon="19.58612">
        <ele>67.129883</ele>
        <time>2022-05-03T11:16:07.638Z</time>
      </trkpt>
      <trkpt lat="41.15043" lon="19.58603">
        <ele>67.413906</ele>
        <time>2022-05-03T11:16:10.628Z</time>
      </trkpt>
      <trkpt lat="41.15054" lon="19.58596">
        <ele>67.689558</ele>
        <time>2022-05-03T11:16:13.621Z</time>
      </trkpt>
      <trkpt lat="41.15062" lon="19.5859">
        <ele>67.903758</ele>
        <time>2022-05-03T11:16:15.624Z</time>
      </trkpt>
      <trkpt lat="41.1507" lon="19.58585">
        <ele>68.113775</ele>
        <time>2022-05-03T11:16:17.620Z</time>
      </trkpt>
      <trkpt lat="41.15078" lon="19.5858">
        <ele>68.323296</ele>
        <time>2022-05-03T11:16:19.618Z</time>
      </trkpt>
      <trkpt lat="41.15087" lon="19.58574">
        <ele>68.101084</ele>
        <time>2022-05-03T11:16:21.628Z</time>
      </trkpt>
      <trkpt lat="41.15096" lon="19.58568">
        <ele>67.845129</ele>
        <time>2022-05-03T11:16:23.639Z</time>
      </trkpt>
      <trkpt lat="41.15104" lon="19.58562">
        <ele>67.596493</ele>
        <time>2022-05-03T11:16:25.651Z</time>
      </trkpt>
      <trkpt lat="41.15113" lon="19.58556">
        <ele>67.345162</ele>
        <time>2022-05-03T11:16:27.633Z</time>
      </trkpt>
      <trkpt lat="41.15122" lon="19.58549">
        <ele>67.070771</ele>
        <time>2022-05-03T11:16:29.643Z</time>
      </trkpt>
      <trkpt lat="41.15131" lon="19.58543">
        <ele>66.793153</ele>
        <time>2022-05-03T11:16:31.610Z</time>
      </trkpt>
      <trkpt lat="41.15141" lon="19.58536">
        <ele>66.524673</ele>
        <time>2022-05-03T11:16:33.632Z</time>
      </trkpt>
      <trkpt lat="41.1515" lon="19.58531">
        <ele>66.261132</ele>
        <time>2022-05-03T11:16:35.645Z</time>
      </trkpt>
      <trkpt lat="41.15158" lon="19.58525">
        <ele>66.003751</ele>
        <time>2022-05-03T11:16:37.629Z</time>
      </trkpt>
      <trkpt lat="41.15167" lon="19.58518">
        <ele>65.736267</ele>
        <time>2022-05-03T11:16:39.633Z</time>
      </trkpt>
      <trkpt lat="41.15176" lon="19.58512">
        <ele>65.476174</ele>
        <time>2022-05-03T11:16:41.623Z</time>
      </trkpt>
      <trkpt lat="41.15185" lon="19.58505">
        <ele>65.205457</ele>
        <time>2022-05-03T11:16:43.645Z</time>
      </trkpt>
      <trkpt lat="41.15194" lon="19.58499">
        <ele>64.947099</ele>
        <time>2022-05-03T11:16:45.644Z</time>
      </trkpt>
      <trkpt lat="41.15206" lon="19.5849">
        <ele>64.590141</ele>
        <time>2022-05-03T11:16:48.640Z</time>
      </trkpt>
      <trkpt lat="41.15214" lon="19.58484">
        <ele>64.338562</ele>
        <time>2022-05-03T11:16:50.630Z</time>
      </trkpt>
      <trkpt lat="41.15223" lon="19.58477">
        <ele>64.075204</ele>
        <time>2022-05-03T11:16:52.629Z</time>
      </trkpt>
      <trkpt lat="41.15232" lon="19.58469">
        <ele>63.806514</ele>
        <time>2022-05-03T11:16:54.652Z</time>
      </trkpt>
      <trkpt lat="41.1524" lon="19.58462">
        <ele>63.611966</ele>
        <time>2022-05-03T11:16:56.620Z</time>
      </trkpt>
      <trkpt lat="41.15249" lon="19.58458">
        <ele>63.526974</ele>
        <time>2022-05-03T11:16:58.613Z</time>
      </trkpt>
      <trkpt lat="41.15258" lon="19.58453">
        <ele>63.444173</ele>
        <time>2022-05-03T11:17:00.615Z</time>
      </trkpt>
      <trkpt lat="41.15267" lon="19.58446">
        <ele>63.362227</ele>
        <time>2022-05-03T11:17:02.625Z</time>
      </trkpt>
      <trkpt lat="41.15276" lon="19.58439">
        <ele>63.272084</ele>
        <time>2022-05-03T11:17:04.625Z</time>
      </trkpt>
      <trkpt lat="41.15285" lon="19.58433">
        <ele>63.185995</ele>
        <time>2022-05-03T11:17:06.602Z</time>
      </trkpt>
      <trkpt lat="41.15294" lon="19.58427">
        <ele>63.100494</ele>
        <time>2022-05-03T11:17:08.627Z</time>
      </trkpt>
      <trkpt lat="41.15302" lon="19.5842">
        <ele>63.018958</ele>
        <time>2022-05-03T11:17:10.607Z</time>
      </trkpt>
      <trkpt lat="41.1531" lon="19.58415">
        <ele>62.941833</ele>
        <time>2022-05-03T11:17:12.659Z</time>
      </trkpt>
      <trkpt lat="41.15319" lon="19.58408">
        <ele>62.860078</ele>
        <time>2022-05-03T11:17:14.638Z</time>
      </trkpt>
      <trkpt lat="41.15328" lon="19.58402">
        <ele>62.774864</ele>
        <time>2022-05-03T11:17:16.633Z</time>
      </trkpt>
      <trkpt lat="41.15337" lon="19.58396">
        <ele>62.689222</ele>
        <time>2022-05-03T11:17:18.666Z</time>
      </trkpt>
      <trkpt lat="41.15346" lon="19.5839">
        <ele>62.601244</ele>
        <time>2022-05-03T11:17:20.618Z</time>
      </trkpt>
      <trkpt lat="41.15356" lon="19.58384">
        <ele>62.507618</ele>
        <time>2022-05-03T11:17:22.625Z</time>
      </trkpt>
      <trkpt lat="41.15366" lon="19.58378">
        <ele>62.416527</ele>
        <time>2022-05-03T11:17:24.625Z</time>
      </trkpt>
      <trkpt lat="41.15375" lon="19.58372">
        <ele>62.329855</ele>
        <time>2022-05-03T11:17:26.645Z</time>
      </trkpt>
      <trkpt lat="41.15385" lon="19.58366">
        <ele>62.237724</ele>
        <time>2022-05-03T11:17:28.638Z</time>
      </trkpt>
      <trkpt lat="41.15394" lon="19.58359">
        <ele>62.148196</ele>
        <time>2022-05-03T11:17:30.619Z</time>
      </trkpt>
      <trkpt lat="41.15403" lon="19.58353">
        <ele>62.218389</ele>
        <time>2022-05-03T11:17:32.651Z</time>
      </trkpt>
      <trkpt lat="41.15412" lon="19.58346">
        <ele>62.353776</ele>
        <time>2022-05-03T11:17:34.632Z</time>
      </trkpt>
      <trkpt lat="41.1542" lon="19.58339">
        <ele>62.488534</ele>
        <time>2022-05-03T11:17:36.630Z</time>
      </trkpt>
      <trkpt lat="41.15431" lon="19.5833">
        <ele>62.66755</ele>
        <time>2022-05-03T11:17:39.612Z</time>
      </trkpt>
      <trkpt lat="41.15439" lon="19.58323">
        <ele>62.79826</ele>
        <time>2022-05-03T11:17:41.619Z</time>
      </trkpt>
      <trkpt lat="41.15447" lon="19.58316">
        <ele>62.927266</ele>
        <time>2022-05-03T11:17:43.649Z</time>
      </trkpt>
      <trkpt lat="41.15455" lon="19.58308">
        <ele>63.061385</ele>
        <time>2022-05-03T11:17:45.648Z</time>
      </trkpt>
      <trkpt lat="41.15464" lon="19.58302">
        <ele>63.196142</ele>
        <time>2022-05-03T11:17:47.622Z</time>
      </trkpt>
      <trkpt lat="41.15472" lon="19.58295">
        <ele>63.327498</ele>
        <time>2022-05-03T11:17:49.635Z</time>
      </trkpt>
      <trkpt lat="41.1548" lon="19.58288">
        <ele>63.458222</ele>
        <time>2022-05-03T11:17:51.644Z</time>
      </trkpt>
      <trkpt lat="41.15488" lon="19.58281">
        <ele>63.594779</ele>
        <time>2022-05-03T11:17:53.675Z</time>
      </trkpt>
      <trkpt lat="41.15497" lon="19.58274">
        <ele>63.734869</ele>
        <time>2022-05-03T11:17:55.635Z</time>
      </trkpt>
      <trkpt lat="41.15506" lon="19.58268">
        <ele>63.871515</ele>
        <time>2022-05-03T11:17:57.624Z</time>
      </trkpt>
      <trkpt lat="41.15515" lon="19.58263">
        <ele>64.003766</ele>
        <time>2022-05-03T11:17:59.617Z</time>
      </trkpt>
      <trkpt lat="41.15524" lon="19.58259">
        <ele>64.135528</ele>
        <time>2022-05-03T11:18:01.721Z</time>
      </trkpt>
      <trkpt lat="41.15534" lon="19.58256">
        <ele>64.269413</ele>
        <time>2022-05-03T11:18:03.624Z</time>
      </trkpt>
      <trkpt lat="41.15543" lon="19.5825">
        <ele>64.40836</ele>
        <time>2022-05-03T11:18:05.591Z</time>
      </trkpt>
      <trkpt lat="41.15552" lon="19.58243">
        <ele>64.549322</ele>
        <time>2022-05-03T11:18:07.602Z</time>
      </trkpt>
      <trkpt lat="41.1556" lon="19.58236">
        <ele>64.755459</ele>
        <time>2022-05-03T11:18:09.626Z</time>
      </trkpt>
      <trkpt lat="41.15569" lon="19.5823">
        <ele>64.977568</ele>
        <time>2022-05-03T11:18:11.656Z</time>
      </trkpt>
      <trkpt lat="41.15577" lon="19.58224">
        <ele>65.186695</ele>
        <time>2022-05-03T11:18:13.686Z</time>
      </trkpt>
      <trkpt lat="41.15586" lon="19.58217">
        <ele>65.401947</ele>
        <time>2022-05-03T11:18:15.631Z</time>
      </trkpt>
      <trkpt lat="41.15594" lon="19.58211">
        <ele>65.618535</ele>
        <time>2022-05-03T11:18:17.631Z</time>
      </trkpt>
      <trkpt lat="41.15603" lon="19.58204">
        <ele>65.839827</ele>
        <time>2022-05-03T11:18:19.617Z</time>
      </trkpt>
      <trkpt lat="41.15612" lon="19.58198">
        <ele>66.067777</ele>
        <time>2022-05-03T11:18:21.629Z</time>
      </trkpt>
      <trkpt lat="41.1562" lon="19.58191">
        <ele>66.284092</ele>
        <time>2022-05-03T11:18:23.632Z</time>
      </trkpt>
      <trkpt lat="41.15628" lon="19.58185">
        <ele>66.499343</ele>
        <time>2022-05-03T11:18:25.630Z</time>
      </trkpt>
      <trkpt lat="41.15637" lon="19.58178">
        <ele>66.716335</ele>
        <time>2022-05-03T11:18:27.624Z</time>
      </trkpt>
      <trkpt lat="41.15646" lon="19.58172">
        <ele>66.940205</ele>
        <time>2022-05-03T11:18:29.628Z</time>
      </trkpt>
      <trkpt lat="41.15656" lon="19.58167">
        <ele>67.176219</ele>
        <time>2022-05-03T11:18:31.630Z</time>
      </trkpt>
      <trkpt lat="41.15665" lon="19.5816">
        <ele>67.419762</ele>
        <time>2022-05-03T11:18:33.634Z</time>
      </trkpt>
      <trkpt lat="41.15675" lon="19.58154">
        <ele>67.666238</ele>
        <time>2022-05-03T11:18:35.625Z</time>
      </trkpt>
      <trkpt lat="41.15685" lon="19.58147">
        <ele>67.918195</ele>
        <time>2022-05-03T11:18:37.616Z</time>
      </trkpt>
      <trkpt lat="41.15695" lon="19.5814">
        <ele>68.165447</ele>
        <time>2022-05-03T11:18:39.620Z</time>
      </trkpt>
      <trkpt lat="41.15705" lon="19.58133">
        <ele>68.407997</ele>
        <time>2022-05-03T11:18:41.612Z</time>
      </trkpt>
      <trkpt lat="41.15714" lon="19.58126">
        <ele>68.565628</ele>
        <time>2022-05-03T11:18:43.627Z</time>
      </trkpt>
      <trkpt lat="41.15723" lon="19.5812">
        <ele>68.527926</ele>
        <time>2022-05-03T11:18:45.621Z</time>
      </trkpt>
      <trkpt lat="41.15734" lon="19.58114">
        <ele>68.483988</ele>
        <time>2022-05-03T11:18:47.616Z</time>
      </trkpt>
      <trkpt lat="41.15744" lon="19.58107">
        <ele>68.440302</ele>
        <time>2022-05-03T11:18:49.640Z</time>
      </trkpt>
      <trkpt lat="41.15754" lon="19.58099">
        <ele>68.398809</ele>
        <time>2022-05-03T11:18:51.637Z</time>
      </trkpt>
      <trkpt lat="41.15763" lon="19.58092">
        <ele>68.356794</ele>
        <time>2022-05-03T11:18:53.635Z</time>
      </trkpt>
      <trkpt lat="41.15773" lon="19.58086">
        <ele>68.315186</ele>
        <time>2022-05-03T11:18:55.628Z</time>
      </trkpt>
      <trkpt lat="41.15782" lon="19.58079">
        <ele>68.275716</ele>
        <time>2022-05-03T11:18:57.612Z</time>
      </trkpt>
      <trkpt lat="41.15791" lon="19.58072">
        <ele>68.236383</ele>
        <time>2022-05-03T11:18:59.621Z</time>
      </trkpt>
      <trkpt lat="41.15801" lon="19.58065">
        <ele>68.19511</ele>
        <time>2022-05-03T11:19:01.624Z</time>
      </trkpt>
      <trkpt lat="41.1581" lon="19.58058">
        <ele>68.153565</ele>
        <time>2022-05-03T11:19:03.658Z</time>
      </trkpt>
      <trkpt lat="41.1582" lon="19.58051">
        <ele>68.111882</ele>
        <time>2022-05-03T11:19:05.635Z</time>
      </trkpt>
      <trkpt lat="41.1583" lon="19.58044">
        <ele>68.070669</ele>
        <time>2022-05-03T11:19:07.623Z</time>
      </trkpt>
      <trkpt lat="41.15839" lon="19.58037">
        <ele>68.029317</ele>
        <time>2022-05-03T11:19:09.634Z</time>
      </trkpt>
      <trkpt lat="41.15848" lon="19.58031">
        <ele>67.989182</ele>
        <time>2022-05-03T11:19:11.650Z</time>
      </trkpt>
      <trkpt lat="41.15858" lon="19.58024">
        <ele>67.947909</ele>
        <time>2022-05-03T11:19:13.622Z</time>
      </trkpt>
      <trkpt lat="41.15868" lon="19.58016">
        <ele>67.905615</ele>
        <time>2022-05-03T11:19:15.617Z</time>
      </trkpt>
      <trkpt lat="41.15878" lon="19.58009">
        <ele>67.798814</ele>
        <time>2022-05-03T11:19:17.625Z</time>
      </trkpt>
      <trkpt lat="41.15888" lon="19.58001">
        <ele>67.676354</ele>
        <time>2022-05-03T11:19:19.617Z</time>
      </trkpt>
      <trkpt lat="41.15898" lon="19.57993">
        <ele>67.557471</ele>
        <time>2022-05-03T11:19:21.700Z</time>
      </trkpt>
      <trkpt lat="41.15909" lon="19.57986">
        <ele>67.437561</ele>
        <time>2022-05-03T11:19:23.632Z</time>
      </trkpt>
      <trkpt lat="41.15919" lon="19.57979">
        <ele>67.319121</ele>
        <time>2022-05-03T11:19:25.653Z</time>
      </trkpt>
      <trkpt lat="41.15929" lon="19.57971">
        <ele>67.20011</ele>
        <time>2022-05-03T11:19:27.645Z</time>
      </trkpt>
      <trkpt lat="41.15939" lon="19.57964">
        <ele>67.080196</ele>
        <time>2022-05-03T11:19:29.627Z</time>
      </trkpt>
      <trkpt lat="41.15948" lon="19.57958">
        <ele>66.976626</ele>
        <time>2022-05-03T11:19:31.652Z</time>
      </trkpt>
      <trkpt lat="41.15957" lon="19.57951">
        <ele>66.870245</ele>
        <time>2022-05-03T11:19:33.621Z</time>
      </trkpt>
      <trkpt lat="41.15967" lon="19.57944">
        <ele>66.755801</ele>
        <time>2022-05-03T11:19:35.601Z</time>
      </trkpt>
      <trkpt lat="41.15977" lon="19.57937">
        <ele>66.642994</ele>
        <time>2022-05-03T11:19:37.642Z</time>
      </trkpt>
      <trkpt lat="41.15987" lon="19.5793">
        <ele>66.525886</ele>
        <time>2022-05-03T11:19:39.623Z</time>
      </trkpt>
      <trkpt lat="41.15997" lon="19.57922">
        <ele>66.406112</ele>
        <time>2022-05-03T11:19:41.626Z</time>
      </trkpt>
      <trkpt lat="41.16007" lon="19.57914">
        <ele>66.283394</ele>
        <time>2022-05-03T11:19:43.632Z</time>
      </trkpt>
      <trkpt lat="41.16017" lon="19.57906">
        <ele>66.164121</ele>
        <time>2022-05-03T11:19:45.628Z</time>
      </trkpt>
      <trkpt lat="41.16027" lon="19.57899">
        <ele>66.046333</ele>
        <time>2022-05-03T11:19:47.659Z</time>
      </trkpt>
      <trkpt lat="41.16037" lon="19.57892">
        <ele>66.041129</ele>
        <time>2022-05-03T11:19:49.627Z</time>
      </trkpt>
      <trkpt lat="41.16046" lon="19.57885">
        <ele>66.036124</ele>
        <time>2022-05-03T11:19:51.626Z</time>
      </trkpt>
      <trkpt lat="41.16055" lon="19.57878">
        <ele>66.031152</ele>
        <time>2022-05-03T11:19:53.624Z</time>
      </trkpt>
      <trkpt lat="41.16065" lon="19.5787">
        <ele>66.025941</ele>
        <time>2022-05-03T11:19:55.631Z</time>
      </trkpt>
      <trkpt lat="41.16074" lon="19.57862">
        <ele>66.02083</ele>
        <time>2022-05-03T11:19:57.627Z</time>
      </trkpt>
      <trkpt lat="41.16083" lon="19.57855">
        <ele>66.015772</ele>
        <time>2022-05-03T11:19:59.619Z</time>
      </trkpt>
      <trkpt lat="41.16092" lon="19.57848">
        <ele>66.01091</ele>
        <time>2022-05-03T11:20:01.627Z</time>
      </trkpt>
      <trkpt lat="41.16102" lon="19.5784">
        <ele>66.005556</ele>
        <time>2022-05-03T11:20:03.627Z</time>
      </trkpt>
      <trkpt lat="41.16112" lon="19.57834">
        <ele>66.00041</ele>
        <time>2022-05-03T11:20:05.628Z</time>
      </trkpt>
      <trkpt lat="41.16122" lon="19.57827">
        <ele>65.995191</ele>
        <time>2022-05-03T11:20:07.639Z</time>
      </trkpt>
      <trkpt lat="41.16133" lon="19.5782">
        <ele>65.989485</ele>
        <time>2022-05-03T11:20:09.614Z</time>
      </trkpt>
      <trkpt lat="41.16144" lon="19.57812">
        <ele>65.983563</ele>
        <time>2022-05-03T11:20:11.642Z</time>
      </trkpt>
      <trkpt lat="41.16155" lon="19.57804">
        <ele>65.977897</ele>
        <time>2022-05-03T11:20:13.625Z</time>
      </trkpt>
      <trkpt lat="41.16165" lon="19.57797">
        <ele>65.972296</ele>
        <time>2022-05-03T11:20:15.664Z</time>
      </trkpt>
      <trkpt lat="41.16176" lon="19.57789">
        <ele>65.966581</ele>
        <time>2022-05-03T11:20:17.630Z</time>
      </trkpt>
      <trkpt lat="41.16186" lon="19.57782">
        <ele>65.939512</ele>
        <time>2022-05-03T11:20:19.613Z</time>
      </trkpt>
      <trkpt lat="41.16194" lon="19.57776">
        <ele>65.790908</ele>
        <time>2022-05-03T11:20:21.661Z</time>
      </trkpt>
      <trkpt lat="41.16203" lon="19.5777">
        <ele>65.64497</ele>
        <time>2022-05-03T11:20:23.646Z</time>
      </trkpt>
      <trkpt lat="41.16212" lon="19.57764">
        <ele>65.494499</ele>
        <time>2022-05-03T11:20:25.641Z</time>
      </trkpt>
      <trkpt lat="41.16221" lon="19.57758">
        <ele>65.334611</ele>
        <time>2022-05-03T11:20:27.666Z</time>
      </trkpt>
      <trkpt lat="41.1623" lon="19.57751">
        <ele>65.187577</ele>
        <time>2022-05-03T11:20:29.613Z</time>
      </trkpt>
      <trkpt lat="41.16239" lon="19.57745">
        <ele>65.031173</ele>
        <time>2022-05-03T11:20:31.626Z</time>
      </trkpt>
      <trkpt lat="41.16248" lon="19.57738">
        <ele>64.867618</ele>
        <time>2022-05-03T11:20:33.629Z</time>
      </trkpt>
      <trkpt lat="41.16258" lon="19.57731">
        <ele>64.706474</ele>
        <time>2022-05-03T11:20:35.640Z</time>
      </trkpt>
      <trkpt lat="41.16267" lon="19.57724">
        <ele>64.544442</ele>
        <time>2022-05-03T11:20:37.625Z</time>
      </trkpt>
      <trkpt lat="41.16276" lon="19.57717">
        <ele>64.385405</ele>
        <time>2022-05-03T11:20:39.627Z</time>
      </trkpt>
      <trkpt lat="41.16286" lon="19.5771">
        <ele>64.218653</ele>
        <time>2022-05-03T11:20:41.622Z</time>
      </trkpt>
      <trkpt lat="41.16295" lon="19.57703">
        <ele>64.050804</ele>
        <time>2022-05-03T11:20:43.643Z</time>
      </trkpt>
      <trkpt lat="41.16305" lon="19.57696">
        <ele>63.87844</ele>
        <time>2022-05-03T11:20:45.650Z</time>
      </trkpt>
      <trkpt lat="41.16315" lon="19.57688">
        <ele>63.70904</ele>
        <time>2022-05-03T11:20:47.615Z</time>
      </trkpt>
      <trkpt lat="41.16324" lon="19.5768">
        <ele>63.541619</ele>
        <time>2022-05-03T11:20:49.624Z</time>
      </trkpt>
      <trkpt lat="41.16334" lon="19.57673">
        <ele>63.383339</ele>
        <time>2022-05-03T11:20:51.618Z</time>
      </trkpt>
      <trkpt lat="41.16344" lon="19.57668">
        <ele>63.238791</ele>
        <time>2022-05-03T11:20:53.626Z</time>
      </trkpt>
      <trkpt lat="41.16354" lon="19.57664">
        <ele>63.194272</ele>
        <time>2022-05-03T11:20:55.639Z</time>
      </trkpt>
      <trkpt lat="41.16364" lon="19.57657">
        <ele>63.147639</ele>
        <time>2022-05-03T11:20:57.624Z</time>
      </trkpt>
      <trkpt lat="41.16375" lon="19.5765">
        <ele>63.10118</ele>
        <time>2022-05-03T11:20:59.624Z</time>
      </trkpt>
      <trkpt lat="41.16385" lon="19.57643">
        <ele>63.052789</ele>
        <time>2022-05-03T11:21:01.640Z</time>
      </trkpt>
      <trkpt lat="41.16397" lon="19.57635">
        <ele>63.002186</ele>
        <time>2022-05-03T11:21:03.642Z</time>
      </trkpt>
      <trkpt lat="41.16407" lon="19.57628">
        <ele>62.953376</ele>
        <time>2022-05-03T11:21:05.637Z</time>
      </trkpt>
      <trkpt lat="41.16418" lon="19.5762">
        <ele>62.905777</ele>
        <time>2022-05-03T11:21:07.626Z</time>
      </trkpt>
      <trkpt lat="41.16429" lon="19.57612">
        <ele>62.85597</ele>
        <time>2022-05-03T11:21:09.636Z</time>
      </trkpt>
      <trkpt lat="41.16439" lon="19.57604">
        <ele>62.805729</ele>
        <time>2022-05-03T11:21:11.627Z</time>
      </trkpt>
      <trkpt lat="41.1645" lon="19.57596">
        <ele>62.75666</ele>
        <time>2022-05-03T11:21:13.667Z</time>
      </trkpt>
      <trkpt lat="41.16459" lon="19.57585">
        <ele>62.707724</ele>
        <time>2022-05-03T11:21:15.626Z</time>
      </trkpt>
      <trkpt lat="41.16468" lon="19.57575">
        <ele>62.659957</ele>
        <time>2022-05-03T11:21:17.625Z</time>
      </trkpt>
      <trkpt lat="41.16478" lon="19.57565">
        <ele>62.610045</ele>
        <time>2022-05-03T11:21:19.632Z</time>
      </trkpt>
      <trkpt lat="41.16488" lon="19.57556">
        <ele>62.560474</ele>
        <time>2022-05-03T11:21:21.660Z</time>
      </trkpt>
      <trkpt lat="41.16498" lon="19.57549">
        <ele>62.494692</ele>
        <time>2022-05-03T11:21:23.655Z</time>
      </trkpt>
      <trkpt lat="41.16509" lon="19.57542">
        <ele>62.271446</ele>
        <time>2022-05-03T11:21:25.615Z</time>
      </trkpt>
      <trkpt lat="41.1652" lon="19.57535">
        <ele>62.040592</ele>
        <time>2022-05-03T11:21:27.624Z</time>
      </trkpt>
      <trkpt lat="41.16531" lon="19.57528">
        <ele>61.815798</ele>
        <time>2022-05-03T11:21:29.628Z</time>
      </trkpt>
      <trkpt lat="41.16541" lon="19.57522">
        <ele>61.59904</ele>
        <time>2022-05-03T11:21:31.632Z</time>
      </trkpt>
      <trkpt lat="41.16551" lon="19.57515">
        <ele>61.386764</ele>
        <time>2022-05-03T11:21:33.636Z</time>
      </trkpt>
      <trkpt lat="41.1656" lon="19.57508">
        <ele>61.187517</ele>
        <time>2022-05-03T11:21:35.679Z</time>
      </trkpt>
      <trkpt lat="41.16569" lon="19.57502">
        <ele>60.995287</ele>
        <time>2022-05-03T11:21:37.627Z</time>
      </trkpt>
      <trkpt lat="41.16579" lon="19.57496">
        <ele>60.803236</ele>
        <time>2022-05-03T11:21:39.635Z</time>
      </trkpt>
      <trkpt lat="41.16589" lon="19.5749">
        <ele>60.592858</ele>
        <time>2022-05-03T11:21:41.633Z</time>
      </trkpt>
      <trkpt lat="41.16598" lon="19.57484">
        <ele>60.398943</ele>
        <time>2022-05-03T11:21:43.641Z</time>
      </trkpt>
      <trkpt lat="41.16608" lon="19.57477">
        <ele>60.187723</ele>
        <time>2022-05-03T11:21:45.652Z</time>
      </trkpt>
      <trkpt lat="41.16617" lon="19.5747">
        <ele>59.986135</ele>
        <time>2022-05-03T11:21:47.632Z</time>
      </trkpt>
      <trkpt lat="41.16626" lon="19.57463">
        <ele>59.789451</ele>
        <time>2022-05-03T11:21:49.649Z</time>
      </trkpt>
      <trkpt lat="41.16636" lon="19.57457">
        <ele>59.589248</ele>
        <time>2022-05-03T11:21:51.623Z</time>
      </trkpt>
      <trkpt lat="41.16644" lon="19.5745">
        <ele>59.399359</ele>
        <time>2022-05-03T11:21:53.647Z</time>
      </trkpt>
      <trkpt lat="41.16653" lon="19.57444">
        <ele>59.211807</ele>
        <time>2022-05-03T11:21:55.638Z</time>
      </trkpt>
      <trkpt lat="41.16662" lon="19.57438">
        <ele>59.164823</ele>
        <time>2022-05-03T11:21:57.677Z</time>
      </trkpt>
      <trkpt lat="41.16671" lon="19.57432">
        <ele>59.234792</ele>
        <time>2022-05-03T11:21:59.643Z</time>
      </trkpt>
      <trkpt lat="41.16679" lon="19.57426">
        <ele>59.302126</ele>
        <time>2022-05-03T11:22:01.653Z</time>
      </trkpt>
      <trkpt lat="41.16688" lon="19.57421">
        <ele>59.371498</ele>
        <time>2022-05-03T11:22:03.623Z</time>
      </trkpt>
      <trkpt lat="41.16696" lon="19.57415">
        <ele>59.440839</ele>
        <time>2022-05-03T11:22:05.629Z</time>
      </trkpt>
      <trkpt lat="41.16705" lon="19.57409">
        <ele>59.509683</ele>
        <time>2022-05-03T11:22:07.657Z</time>
      </trkpt>
      <trkpt lat="41.16714" lon="19.57403">
        <ele>59.580913</ele>
        <time>2022-05-03T11:22:09.622Z</time>
      </trkpt>
      <trkpt lat="41.16723" lon="19.57397">
        <ele>59.651762</ele>
        <time>2022-05-03T11:22:11.637Z</time>
      </trkpt>
      <trkpt lat="41.16731" lon="19.5739">
        <ele>59.722946</ele>
        <time>2022-05-03T11:22:13.636Z</time>
      </trkpt>
      <trkpt lat="41.16741" lon="19.57383">
        <ele>59.797828</ele>
        <time>2022-05-03T11:22:15.632Z</time>
      </trkpt>
      <trkpt lat="41.1675" lon="19.57377">
        <ele>59.870815</ele>
        <time>2022-05-03T11:22:17.632Z</time>
      </trkpt>
      <trkpt lat="41.16759" lon="19.5737">
        <ele>59.949453</ele>
        <time>2022-05-03T11:22:19.667Z</time>
      </trkpt>
      <trkpt lat="41.16769" lon="19.57364">
        <ele>60.028637</ele>
        <time>2022-05-03T11:22:21.706Z</time>
      </trkpt>
      <trkpt lat="41.16779" lon="19.57356">
        <ele>60.10829</ele>
        <time>2022-05-03T11:22:23.648Z</time>
      </trkpt>
      <trkpt lat="41.16789" lon="19.57349">
        <ele>60.188937</ele>
        <time>2022-05-03T11:22:25.631Z</time>
      </trkpt>
      <trkpt lat="41.16799" lon="19.57342">
        <ele>60.270353</ele>
        <time>2022-05-03T11:22:27.629Z</time>
      </trkpt>
      <trkpt lat="41.16809" lon="19.57335">
        <ele>60.347734</ele>
        <time>2022-05-03T11:22:29.645Z</time>
      </trkpt>
      <trkpt lat="41.16819" lon="19.57329">
        <ele>60.41285</ele>
        <time>2022-05-03T11:22:31.623Z</time>
      </trkpt>
      <trkpt lat="41.16828" lon="19.57322">
        <ele>60.435275</ele>
        <time>2022-05-03T11:22:33.640Z</time>
      </trkpt>
      <trkpt lat="41.16838" lon="19.57315">
        <ele>60.457997</ele>
        <time>2022-05-03T11:22:35.642Z</time>
      </trkpt>
      <trkpt lat="41.16848" lon="19.57309">
        <ele>60.480092</ele>
        <time>2022-05-03T11:22:37.646Z</time>
      </trkpt>
      <trkpt lat="41.16857" lon="19.57302">
        <ele>60.502673</ele>
        <time>2022-05-03T11:22:39.650Z</time>
      </trkpt>
      <trkpt lat="41.16867" lon="19.57295">
        <ele>60.525688</ele>
        <time>2022-05-03T11:22:41.639Z</time>
      </trkpt>
      <trkpt lat="41.16877" lon="19.57288">
        <ele>60.549403</ele>
        <time>2022-05-03T11:22:43.628Z</time>
      </trkpt>
      <trkpt lat="41.16887" lon="19.57281">
        <ele>60.573193</ele>
        <time>2022-05-03T11:22:45.633Z</time>
      </trkpt>
      <trkpt lat="41.16897" lon="19.57274">
        <ele>60.596873</ele>
        <time>2022-05-03T11:22:47.631Z</time>
      </trkpt>
      <trkpt lat="41.16907" lon="19.57267">
        <ele>60.620071</ele>
        <time>2022-05-03T11:22:49.624Z</time>
      </trkpt>
      <trkpt lat="41.16916" lon="19.57261">
        <ele>60.642023</ele>
        <time>2022-05-03T11:22:51.631Z</time>
      </trkpt>
      <trkpt lat="41.16926" lon="19.57254">
        <ele>60.665117</ele>
        <time>2022-05-03T11:22:53.643Z</time>
      </trkpt>
      <trkpt lat="41.16936" lon="19.57247">
        <ele>60.688097</ele>
        <time>2022-05-03T11:22:55.657Z</time>
      </trkpt>
      <trkpt lat="41.16945" lon="19.5724">
        <ele>60.7109</ele>
        <time>2022-05-03T11:22:57.640Z</time>
      </trkpt>
      <trkpt lat="41.16955" lon="19.57233">
        <ele>60.734209</ele>
        <time>2022-05-03T11:22:59.667Z</time>
      </trkpt>
      <trkpt lat="41.16965" lon="19.57227">
        <ele>60.756489</ele>
        <time>2022-05-03T11:23:01.633Z</time>
      </trkpt>
      <trkpt lat="41.16975" lon="19.5722">
        <ele>60.780756</ele>
        <time>2022-05-03T11:23:03.628Z</time>
      </trkpt>
      <trkpt lat="41.16985" lon="19.57212">
        <ele>60.651987</ele>
        <time>2022-05-03T11:23:05.629Z</time>
      </trkpt>
      <trkpt lat="41.16994" lon="19.57206">
        <ele>60.523466</ele>
        <time>2022-05-03T11:23:07.641Z</time>
      </trkpt>
      <trkpt lat="41.17004" lon="19.57199">
        <ele>60.391752</ele>
        <time>2022-05-03T11:23:09.691Z</time>
      </trkpt>
      <trkpt lat="41.17013" lon="19.57192">
        <ele>60.260038</ele>
        <time>2022-05-03T11:23:11.632Z</time>
      </trkpt>
      <trkpt lat="41.17024" lon="19.57184">
        <ele>60.114543</ele>
        <time>2022-05-03T11:23:13.637Z</time>
      </trkpt>
      <trkpt lat="41.17035" lon="19.57175">
        <ele>59.960592</ele>
        <time>2022-05-03T11:23:15.678Z</time>
      </trkpt>
      <trkpt lat="41.17046" lon="19.57167">
        <ele>59.811328</ele>
        <time>2022-05-03T11:23:17.663Z</time>
      </trkpt>
      <trkpt lat="41.17056" lon="19.5716">
        <ele>59.662935</ele>
        <time>2022-05-03T11:23:19.639Z</time>
      </trkpt>
      <trkpt lat="41.17067" lon="19.57152">
        <ele>59.51497</ele>
        <time>2022-05-03T11:23:21.624Z</time>
      </trkpt>
      <trkpt lat="41.17078" lon="19.57145">
        <ele>59.367186</ele>
        <time>2022-05-03T11:23:23.630Z</time>
      </trkpt>
      <trkpt lat="41.17089" lon="19.57137">
        <ele>59.217496</ele>
        <time>2022-05-03T11:23:25.648Z</time>
      </trkpt>
      <trkpt lat="41.171" lon="19.5713">
        <ele>59.072097</ele>
        <time>2022-05-03T11:23:27.630Z</time>
      </trkpt>
      <trkpt lat="41.1711" lon="19.57122">
        <ele>58.932893</ele>
        <time>2022-05-03T11:23:29.644Z</time>
      </trkpt>
      <trkpt lat="41.1712" lon="19.57115">
        <ele>58.794975</ele>
        <time>2022-05-03T11:23:31.628Z</time>
      </trkpt>
      <trkpt lat="41.1713" lon="19.57107">
        <ele>58.654686</ele>
        <time>2022-05-03T11:23:33.649Z</time>
      </trkpt>
      <trkpt lat="41.1714" lon="19.571">
        <ele>58.489685</ele>
        <time>2022-05-03T11:23:35.632Z</time>
      </trkpt>
      <trkpt lat="41.1715" lon="19.57092">
        <ele>58.31078</ele>
        <time>2022-05-03T11:23:37.664Z</time>
      </trkpt>
      <trkpt lat="41.1716" lon="19.57085">
        <ele>58.132799</ele>
        <time>2022-05-03T11:23:39.648Z</time>
      </trkpt>
      <trkpt lat="41.17169" lon="19.57077">
        <ele>57.960032</ele>
        <time>2022-05-03T11:23:41.639Z</time>
      </trkpt>
      <trkpt lat="41.17178" lon="19.5707">
        <ele>57.790989</ele>
        <time>2022-05-03T11:23:43.623Z</time>
      </trkpt>
      <trkpt lat="41.17188" lon="19.57063">
        <ele>57.614892</ele>
        <time>2022-05-03T11:23:45.613Z</time>
      </trkpt>
      <trkpt lat="41.17199" lon="19.57055">
        <ele>57.434628</ele>
        <time>2022-05-03T11:23:47.629Z</time>
      </trkpt>
      <trkpt lat="41.17208" lon="19.57047">
        <ele>57.256188</ele>
        <time>2022-05-03T11:23:49.641Z</time>
      </trkpt>
      <trkpt lat="41.17218" lon="19.5704">
        <ele>57.079784</ele>
        <time>2022-05-03T11:23:51.643Z</time>
      </trkpt>
      <trkpt lat="41.17228" lon="19.57034">
        <ele>56.903127</ele>
        <time>2022-05-03T11:23:53.684Z</time>
      </trkpt>
      <trkpt lat="41.17239" lon="19.57026">
        <ele>56.724553</ele>
        <time>2022-05-03T11:23:55.632Z</time>
      </trkpt>
      <trkpt lat="41.17248" lon="19.57019">
        <ele>56.55029</ele>
        <time>2022-05-03T11:23:57.657Z</time>
      </trkpt>
      <trkpt lat="41.17258" lon="19.57011">
        <ele>56.374249</ele>
        <time>2022-05-03T11:23:59.650Z</time>
      </trkpt>
      <trkpt lat="41.17267" lon="19.57004">
        <ele>56.203271</ele>
        <time>2022-05-03T11:24:01.638Z</time>
      </trkpt>
      <trkpt lat="41.17277" lon="19.56997">
        <ele>56.034983</ele>
        <time>2022-05-03T11:24:03.633Z</time>
      </trkpt>
      <trkpt lat="41.17286" lon="19.56989">
        <ele>55.85954</ele>
        <time>2022-05-03T11:24:05.664Z</time>
      </trkpt>
      <trkpt lat="41.17296" lon="19.56982">
        <ele>55.918439</ele>
        <time>2022-05-03T11:24:07.664Z</time>
      </trkpt>
      <trkpt lat="41.17305" lon="19.56975">
        <ele>56.089081</ele>
        <time>2022-05-03T11:24:09.638Z</time>
      </trkpt>
      <trkpt lat="41.17314" lon="19.56968">
        <ele>56.262967</ele>
        <time>2022-05-03T11:24:11.645Z</time>
      </trkpt>
      <trkpt lat="41.17323" lon="19.56961">
        <ele>56.432424</ele>
        <time>2022-05-03T11:24:13.674Z</time>
      </trkpt>
      <trkpt lat="41.17331" lon="19.56955">
        <ele>56.594666</ele>
        <time>2022-05-03T11:24:15.672Z</time>
      </trkpt>
      <trkpt lat="41.17339" lon="19.56949">
        <ele>56.747733</ele>
        <time>2022-05-03T11:24:17.658Z</time>
      </trkpt>
      <trkpt lat="41.17347" lon="19.56943">
        <ele>56.897507</ele>
        <time>2022-05-03T11:24:19.628Z</time>
      </trkpt>
      <trkpt lat="41.17359" lon="19.56934">
        <ele>57.111045</ele>
        <time>2022-05-03T11:24:22.638Z</time>
      </trkpt>
      <trkpt lat="41.17366" lon="19.56927">
        <ele>57.263253</ele>
        <time>2022-05-03T11:24:24.668Z</time>
      </trkpt>
      <trkpt lat="41.17374" lon="19.56919">
        <ele>57.420966</ele>
        <time>2022-05-03T11:24:26.634Z</time>
      </trkpt>
      <trkpt lat="41.17379" lon="19.5691">
        <ele>57.572597</ele>
        <time>2022-05-03T11:24:28.626Z</time>
      </trkpt>
      <trkpt lat="41.17384" lon="19.56899">
        <ele>57.727574</ele>
        <time>2022-05-03T11:24:30.619Z</time>
      </trkpt>
      <trkpt lat="41.17389" lon="19.56888">
        <ele>57.88063</ele>
        <time>2022-05-03T11:24:32.623Z</time>
      </trkpt>
      <trkpt lat="41.17395" lon="19.56879">
        <ele>58.038176</ele>
        <time>2022-05-03T11:24:34.632Z</time>
      </trkpt>
      <trkpt lat="41.17402" lon="19.56868">
        <ele>58.204485</ele>
        <time>2022-05-03T11:24:36.645Z</time>
      </trkpt>
      <trkpt lat="41.17407" lon="19.56856">
        <ele>58.383432</ele>
        <time>2022-05-03T11:24:38.750Z</time>
      </trkpt>
      <trkpt lat="41.17411" lon="19.56843">
        <ele>58.558517</ele>
        <time>2022-05-03T11:24:40.638Z</time>
      </trkpt>
      <trkpt lat="41.17414" lon="19.5683">
        <ele>58.721567</ele>
        <time>2022-05-03T11:24:42.617Z</time>
      </trkpt>
      <trkpt lat="41.17418" lon="19.56817">
        <ele>58.898167</ele>
        <time>2022-05-03T11:24:44.680Z</time>
      </trkpt>
      <trkpt lat="41.17422" lon="19.56803">
        <ele>59.086408</ele>
        <time>2022-05-03T11:24:46.656Z</time>
      </trkpt>
      <trkpt lat="41.17426" lon="19.56789">
        <ele>59.280587</ele>
        <time>2022-05-03T11:24:48.646Z</time>
      </trkpt>
      <trkpt lat="41.1743" lon="19.56775">
        <ele>59.471247</ele>
        <time>2022-05-03T11:24:50.621Z</time>
      </trkpt>
      <trkpt lat="41.17434" lon="19.56761">
        <ele>59.670815</ele>
        <time>2022-05-03T11:24:52.791Z</time>
      </trkpt>
      <trkpt lat="41.17439" lon="19.56747">
        <ele>59.867363</ele>
        <time>2022-05-03T11:24:54.661Z</time>
      </trkpt>
      <trkpt lat="41.17444" lon="19.56733">
        <ele>60.06918</ele>
        <time>2022-05-03T11:24:56.629Z</time>
      </trkpt>
      <trkpt lat="41.17447" lon="19.56719">
        <ele>60.251418</ele>
        <time>2022-05-03T11:24:58.622Z</time>
      </trkpt>
      <trkpt lat="41.1745" lon="19.56707">
        <ele>60.409348</ele>
        <time>2022-05-03T11:25:00.662Z</time>
      </trkpt>
      <trkpt lat="41.17441" lon="19.56707">
        <ele>60.564245</ele>
        <time>2022-05-03T11:25:07.619Z</time>
      </trkpt>
      <trkpt lat="41.17438" lon="19.56722">
        <ele>60.763433</ele>
        <time>2022-05-03T11:25:11.629Z</time>
      </trkpt>
      <trkpt lat="41.17435" lon="19.56733">
        <ele>60.918648</ele>
        <time>2022-05-03T11:25:14.627Z</time>
      </trkpt>
      <trkpt lat="41.17431" lon="19.56746">
        <ele>61.091834</ele>
        <time>2022-05-03T11:25:17.623Z</time>
      </trkpt>
      <trkpt lat="41.17427" lon="19.5676">
        <ele>61.283465</ele>
        <time>2022-05-03T11:25:20.631Z</time>
      </trkpt>
      <trkpt lat="41.17422" lon="19.56773">
        <ele>61.471934</ele>
        <time>2022-05-03T11:25:23.629Z</time>
      </trkpt>
      <trkpt lat="41.17418" lon="19.56785">
        <ele>61.639146</ele>
        <time>2022-05-03T11:25:26.663Z</time>
      </trkpt>
      <trkpt lat="41.17414" lon="19.56797">
        <ele>61.8079</ele>
        <time>2022-05-03T11:25:29.688Z</time>
      </trkpt>
      <trkpt lat="41.1741" lon="19.56811">
        <ele>62.309502</ele>
        <time>2022-05-03T11:25:32.664Z</time>
      </trkpt>
      <trkpt lat="41.17406" lon="19.56826">
        <ele>62.83561</ele>
        <time>2022-05-03T11:25:35.656Z</time>
      </trkpt>
      <trkpt lat="41.17402" lon="19.56841">
        <ele>63.374016</ele>
        <time>2022-05-03T11:25:38.632Z</time>
      </trkpt>
      <trkpt lat="41.17399" lon="19.56856">
        <ele>63.943537</ele>
        <time>2022-05-03T11:25:41.632Z</time>
      </trkpt>
      <trkpt lat="41.17395" lon="19.56872">
        <ele>64.49347</ele>
        <time>2022-05-03T11:25:44.705Z</time>
      </trkpt>
      <trkpt lat="41.17392" lon="19.56887">
        <ele>65.035399</ele>
        <time>2022-05-03T11:25:47.622Z</time>
      </trkpt>
      <trkpt lat="41.1739" lon="19.56902">
        <ele>65.559634</ele>
        <time>2022-05-03T11:25:50.642Z</time>
      </trkpt>
      <trkpt lat="41.17395" lon="19.56912">
        <ele>65.97661</ele>
        <time>2022-05-03T11:25:53.638Z</time>
      </trkpt>
      <trkpt lat="41.17404" lon="19.56909">
        <ele>66.394677</ele>
        <time>2022-05-03T11:25:55.639Z</time>
      </trkpt>
      <trkpt lat="41.17413" lon="19.56903">
        <ele>66.836389</ele>
        <time>2022-05-03T11:25:57.642Z</time>
      </trkpt>
      <trkpt lat="41.17424" lon="19.56893">
        <ele>67.438635</ele>
        <time>2022-05-03T11:26:00.631Z</time>
      </trkpt>
      <trkpt lat="41.17434" lon="19.56884">
        <ele>67.999091</ele>
        <time>2022-05-03T11:26:03.640Z</time>
      </trkpt>
      <trkpt lat="41.17445" lon="19.56876">
        <ele>68.57189</ele>
        <time>2022-05-03T11:26:06.643Z</time>
      </trkpt>
      <trkpt lat="41.17456" lon="19.56868">
        <ele>69.155848</ele>
        <time>2022-05-03T11:26:09.630Z</time>
      </trkpt>
      <trkpt lat="41.17464" lon="19.56861">
        <ele>69.585221</ele>
        <time>2022-05-03T11:26:11.616Z</time>
      </trkpt>
      <trkpt lat="41.17475" lon="19.56852">
        <ele>70.050177</ele>
        <time>2022-05-03T11:26:14.639Z</time>
      </trkpt>
      <trkpt lat="41.17487" lon="19.56844">
        <ele>70.135182</ele>
        <time>2022-05-03T11:26:17.674Z</time>
      </trkpt>
      <trkpt lat="41.17495" lon="19.56838">
        <ele>70.193805</ele>
        <time>2022-05-03T11:26:19.623Z</time>
      </trkpt>
      <trkpt lat="41.17504" lon="19.56833">
        <ele>70.256178</ele>
        <time>2022-05-03T11:26:21.625Z</time>
      </trkpt>
      <trkpt lat="41.17512" lon="19.56827">
        <ele>70.318279</ele>
        <time>2022-05-03T11:26:23.637Z</time>
      </trkpt>
      <trkpt lat="41.1752" lon="19.56821">
        <ele>70.37779</ele>
        <time>2022-05-03T11:26:25.614Z</time>
      </trkpt>
      <trkpt lat="41.17528" lon="19.56814">
        <ele>70.436939</ele>
        <time>2022-05-03T11:26:27.617Z</time>
      </trkpt>
      <trkpt lat="41.17536" lon="19.56808">
        <ele>70.497812</ele>
        <time>2022-05-03T11:26:29.627Z</time>
      </trkpt>
      <trkpt lat="41.17545" lon="19.56802">
        <ele>70.559575</ele>
        <time>2022-05-03T11:26:31.617Z</time>
      </trkpt>
      <trkpt lat="41.17553" lon="19.56796">
        <ele>70.62069</ele>
        <time>2022-05-03T11:26:33.626Z</time>
      </trkpt>
      <trkpt lat="41.17562" lon="19.56789">
        <ele>70.685088</ele>
        <time>2022-05-03T11:26:35.626Z</time>
      </trkpt>
      <trkpt lat="41.1757" lon="19.56783">
        <ele>70.748364</ele>
        <time>2022-05-03T11:26:37.617Z</time>
      </trkpt>
      <trkpt lat="41.17581" lon="19.56775">
        <ele>70.829951</ele>
        <time>2022-05-03T11:26:40.619Z</time>
      </trkpt>
      <trkpt lat="41.17593" lon="19.56767">
        <ele>70.913132</ele>
        <time>2022-05-03T11:26:43.635Z</time>
      </trkpt>
      <trkpt lat="41.17605" lon="19.56758">
        <ele>71.000359</ele>
        <time>2022-05-03T11:26:46.637Z</time>
      </trkpt>
      <trkpt lat="41.17613" lon="19.56752">
        <ele>71.061556</ele>
        <time>2022-05-03T11:26:48.628Z</time>
      </trkpt>
      <trkpt lat="41.17621" lon="19.56745">
        <ele>71.120705</ele>
        <time>2022-05-03T11:26:50.650Z</time>
      </trkpt>
      <trkpt lat="41.17629" lon="19.56738">
        <ele>71.18335</ele>
        <time>2022-05-03T11:26:52.648Z</time>
      </trkpt>
      <trkpt lat="41.17637" lon="19.56731">
        <ele>71.257902</ele>
        <time>2022-05-03T11:26:54.617Z</time>
      </trkpt>
      <trkpt lat="41.17645" lon="19.56725">
        <ele>71.331681</ele>
        <time>2022-05-03T11:26:56.619Z</time>
      </trkpt>
      <trkpt lat="41.17653" lon="19.56719">
        <ele>71.407092</ele>
        <time>2022-05-03T11:26:58.645Z</time>
      </trkpt>
      <trkpt lat="41.17661" lon="19.56713">
        <ele>71.480435</ele>
        <time>2022-05-03T11:27:00.618Z</time>
      </trkpt>
      <trkpt lat="41.17669" lon="19.56707">
        <ele>71.552023</ele>
        <time>2022-05-03T11:27:02.644Z</time>
      </trkpt>
      <trkpt lat="41.17677" lon="19.567">
        <ele>71.624825</ele>
        <time>2022-05-03T11:27:04.623Z</time>
      </trkpt>
      <trkpt lat="41.17685" lon="19.56692">
        <ele>71.69822</ele>
        <time>2022-05-03T11:27:06.631Z</time>
      </trkpt>
      <trkpt lat="41.17696" lon="19.56683">
        <ele>71.801009</ele>
        <time>2022-05-03T11:27:09.627Z</time>
      </trkpt>
      <trkpt lat="41.17707" lon="19.56675">
        <ele>71.9012</ele>
        <time>2022-05-03T11:27:12.617Z</time>
      </trkpt>
      <trkpt lat="41.17718" lon="19.56665">
        <ele>72.008226</ele>
        <time>2022-05-03T11:27:15.637Z</time>
      </trkpt>
      <trkpt lat="41.17728" lon="19.56658">
        <ele>72.09125</ele>
        <time>2022-05-03T11:27:17.634Z</time>
      </trkpt>
      <trkpt lat="41.17736" lon="19.56652">
        <ele>72.169849</ele>
        <time>2022-05-03T11:27:19.606Z</time>
      </trkpt>
      <trkpt lat="41.17746" lon="19.56645">
        <ele>72.252071</ele>
        <time>2022-05-03T11:27:21.643Z</time>
      </trkpt>
      <trkpt lat="41.17756" lon="19.56639">
        <ele>72.339952</ele>
        <time>2022-05-03T11:27:23.615Z</time>
      </trkpt>
      <trkpt lat="41.17766" lon="19.56633">
        <ele>72.425918</ele>
        <time>2022-05-03T11:27:25.611Z</time>
      </trkpt>
      <trkpt lat="41.17776" lon="19.56626">
        <ele>72.515999</ele>
        <time>2022-05-03T11:27:27.625Z</time>
      </trkpt>
      <trkpt lat="41.17786" lon="19.56618">
        <ele>72.563169</ele>
        <time>2022-05-03T11:27:29.620Z</time>
      </trkpt>
      <trkpt lat="41.17795" lon="19.56611">
        <ele>72.122202</ele>
        <time>2022-05-03T11:27:31.663Z</time>
      </trkpt>
      <trkpt lat="41.17805" lon="19.56604">
        <ele>71.709979</ele>
        <time>2022-05-03T11:27:33.640Z</time>
      </trkpt>
      <trkpt lat="41.17814" lon="19.56598">
        <ele>71.301198</ele>
        <time>2022-05-03T11:27:35.628Z</time>
      </trkpt>
      <trkpt lat="41.17823" lon="19.56591">
        <ele>70.892367</ele>
        <time>2022-05-03T11:27:37.664Z</time>
      </trkpt>
      <trkpt lat="41.17831" lon="19.56586">
        <ele>70.51692</ele>
        <time>2022-05-03T11:27:39.630Z</time>
      </trkpt>
      <trkpt lat="41.17843" lon="19.56577">
        <ele>69.979795</ele>
        <time>2022-05-03T11:27:42.622Z</time>
      </trkpt>
      <trkpt lat="41.17852" lon="19.56572">
        <ele>69.616628</ele>
        <time>2022-05-03T11:27:44.631Z</time>
      </trkpt>
      <trkpt lat="41.1786" lon="19.56567">
        <ele>69.257323</ele>
        <time>2022-05-03T11:27:46.648Z</time>
      </trkpt>
      <trkpt lat="41.17868" lon="19.5656">
        <ele>68.880949</ele>
        <time>2022-05-03T11:27:48.623Z</time>
      </trkpt>
      <trkpt lat="41.17877" lon="19.56553">
        <ele>68.491475</ele>
        <time>2022-05-03T11:27:50.641Z</time>
      </trkpt>
      <trkpt lat="41.17886" lon="19.56547">
        <ele>68.085529</ele>
        <time>2022-05-03T11:27:52.608Z</time>
      </trkpt>
      <trkpt lat="41.17895" lon="19.56541">
        <ele>67.688965</ele>
        <time>2022-05-03T11:27:54.667Z</time>
      </trkpt>
      <trkpt lat="41.17905" lon="19.56534">
        <ele>67.257268</ele>
        <time>2022-05-03T11:27:56.623Z</time>
      </trkpt>
      <trkpt lat="41.17914" lon="19.56528">
        <ele>66.844923</ele>
        <time>2022-05-03T11:27:58.636Z</time>
      </trkpt>
      <trkpt lat="41.17923" lon="19.56522">
        <ele>66.440931</ele>
        <time>2022-05-03T11:28:00.637Z</time>
      </trkpt>
      <trkpt lat="41.17935" lon="19.56514">
        <ele>65.916036</ele>
        <time>2022-05-03T11:28:03.623Z</time>
      </trkpt>
      <trkpt lat="41.17943" lon="19.56508">
        <ele>65.547589</ele>
        <time>2022-05-03T11:28:05.664Z</time>
      </trkpt>
      <trkpt lat="41.17951" lon="19.56501">
        <ele>65.893992</ele>
        <time>2022-05-03T11:28:07.613Z</time>
      </trkpt>
      <trkpt lat="41.17959" lon="19.56495">
        <ele>66.275957</ele>
        <time>2022-05-03T11:28:09.637Z</time>
      </trkpt>
      <trkpt lat="41.17971" lon="19.56487">
        <ele>66.829341</ele>
        <time>2022-05-03T11:28:12.612Z</time>
      </trkpt>
      <trkpt lat="41.17983" lon="19.56479">
        <ele>67.365508</ele>
        <time>2022-05-03T11:28:15.629Z</time>
      </trkpt>
      <trkpt lat="41.17995" lon="19.56472">
        <ele>67.911559</ele>
        <time>2022-05-03T11:28:18.624Z</time>
      </trkpt>
      <trkpt lat="41.18004" lon="19.56467">
        <ele>68.316821</ele>
        <time>2022-05-03T11:28:20.627Z</time>
      </trkpt>
      <trkpt lat="41.18015" lon="19.56462">
        <ele>68.805275</ele>
        <time>2022-05-03T11:28:23.616Z</time>
      </trkpt>
      <trkpt lat="41.18024" lon="19.56454">
        <ele>69.247552</ele>
        <time>2022-05-03T11:28:26.649Z</time>
      </trkpt>
      <trkpt lat="41.18036" lon="19.56446">
        <ele>69.789196</ele>
        <time>2022-05-03T11:28:29.627Z</time>
      </trkpt>
      <trkpt lat="41.18044" lon="19.5644">
        <ele>70.179413</ele>
        <time>2022-05-03T11:28:31.631Z</time>
      </trkpt>
      <trkpt lat="41.18053" lon="19.56434">
        <ele>70.578143</ele>
        <time>2022-05-03T11:28:33.623Z</time>
      </trkpt>
      <trkpt lat="41.18061" lon="19.56428">
        <ele>70.963565</ele>
        <time>2022-05-03T11:28:35.626Z</time>
      </trkpt>
      <trkpt lat="41.1807" lon="19.56422">
        <ele>71.373231</ele>
        <time>2022-05-03T11:28:37.636Z</time>
      </trkpt>
      <trkpt lat="41.18078" lon="19.56417">
        <ele>71.749417</ele>
        <time>2022-05-03T11:28:39.616Z</time>
      </trkpt>
      <trkpt lat="41.18087" lon="19.56412">
        <ele>72.145861</ele>
        <time>2022-05-03T11:28:41.616Z</time>
      </trkpt>
      <trkpt lat="41.18096" lon="19.56407">
        <ele>72.558484</ele>
        <time>2022-05-03T11:28:43.614Z</time>
      </trkpt>
      <trkpt lat="41.18105" lon="19.56401">
        <ele>72.985727</ele>
        <time>2022-05-03T11:28:45.607Z</time>
      </trkpt>
      <trkpt lat="41.18114" lon="19.56393">
        <ele>73.467315</ele>
        <time>2022-05-03T11:28:47.633Z</time>
      </trkpt>
      <trkpt lat="41.18122" lon="19.56385">
        <ele>73.949813</ele>
        <time>2022-05-03T11:28:49.623Z</time>
      </trkpt>
      <trkpt lat="41.1813" lon="19.56377">
        <ele>74.415977</ele>
        <time>2022-05-03T11:28:51.630Z</time>
      </trkpt>
      <trkpt lat="41.18138" lon="19.56368">
        <ele>74.895086</ele>
        <time>2022-05-03T11:28:53.627Z</time>
      </trkpt>
      <trkpt lat="41.18147" lon="19.56361">
        <ele>75.383333</ele>
        <time>2022-05-03T11:28:55.632Z</time>
      </trkpt>
      <trkpt lat="41.18157" lon="19.56355">
        <ele>75.884526</ele>
        <time>2022-05-03T11:28:57.648Z</time>
      </trkpt>
      <trkpt lat="41.18166" lon="19.56348">
        <ele>76.381607</ele>
        <time>2022-05-03T11:28:59.648Z</time>
      </trkpt>
      <trkpt lat="41.18175" lon="19.56342">
        <ele>76.850421</ele>
        <time>2022-05-03T11:29:01.669Z</time>
      </trkpt>
      <trkpt lat="41.18185" lon="19.56337">
        <ele>77.356451</ele>
        <time>2022-05-03T11:29:03.627Z</time>
      </trkpt>
      <trkpt lat="41.18194" lon="19.5633">
        <ele>77.854531</ele>
        <time>2022-05-03T11:29:05.617Z</time>
      </trkpt>
      <trkpt lat="41.18203" lon="19.56323">
        <ele>78.320348</ele>
        <time>2022-05-03T11:29:07.661Z</time>
      </trkpt>
      <trkpt lat="41.18211" lon="19.56315">
        <ele>78.768758</ele>
        <time>2022-05-03T11:29:09.630Z</time>
      </trkpt>
      <trkpt lat="41.18218" lon="19.56308">
        <ele>79.211594</ele>
        <time>2022-05-03T11:29:11.614Z</time>
      </trkpt>
      <trkpt lat="41.18227" lon="19.56301">
        <ele>79.671792</ele>
        <time>2022-05-03T11:29:13.661Z</time>
      </trkpt>
      <trkpt lat="41.18235" lon="19.56295">
        <ele>80.12477</ele>
        <time>2022-05-03T11:29:15.632Z</time>
      </trkpt>
      <trkpt lat="41.18243" lon="19.56288">
        <ele>80.580859</ele>
        <time>2022-05-03T11:29:17.612Z</time>
      </trkpt>
      <trkpt lat="41.18251" lon="19.56281">
        <ele>81.013651</ele>
        <time>2022-05-03T11:29:19.645Z</time>
      </trkpt>
      <trkpt lat="41.18259" lon="19.56274">
        <ele>81.226427</ele>
        <time>2022-05-03T11:29:21.640Z</time>
      </trkpt>
      <trkpt lat="41.18267" lon="19.56268">
        <ele>80.851752</ele>
        <time>2022-05-03T11:29:23.642Z</time>
      </trkpt>
      <trkpt lat="41.18279" lon="19.56261">
        <ele>80.333761</ele>
        <time>2022-05-03T11:29:26.697Z</time>
      </trkpt>
      <trkpt lat="41.18291" lon="19.56252">
        <ele>79.785734</ele>
        <time>2022-05-03T11:29:29.656Z</time>
      </trkpt>
      <trkpt lat="41.18302" lon="19.56244">
        <ele>79.255733</ele>
        <time>2022-05-03T11:29:32.619Z</time>
      </trkpt>
      <trkpt lat="41.18312" lon="19.56234">
        <ele>78.751574</ele>
        <time>2022-05-03T11:29:35.636Z</time>
      </trkpt>
      <trkpt lat="41.18322" lon="19.56227">
        <ele>78.300034</ele>
        <time>2022-05-03T11:29:38.626Z</time>
      </trkpt>
      <trkpt lat="41.18331" lon="19.5622">
        <ele>77.863698</ele>
        <time>2022-05-03T11:29:41.623Z</time>
      </trkpt>
      <trkpt lat="41.18341" lon="19.56214">
        <ele>77.427929</ele>
        <time>2022-05-03T11:29:44.635Z</time>
      </trkpt>
      <trkpt lat="41.18349" lon="19.56208">
        <ele>77.04463</ele>
        <time>2022-05-03T11:29:47.635Z</time>
      </trkpt>
      <trkpt lat="41.18357" lon="19.56202">
        <ele>76.662796</ele>
        <time>2022-05-03T11:29:50.707Z</time>
      </trkpt>
      <trkpt lat="41.18366" lon="19.56196">
        <ele>76.262238</ele>
        <time>2022-05-03T11:29:53.625Z</time>
      </trkpt>
      <trkpt lat="41.18374" lon="19.56189">
        <ele>75.866783</ele>
        <time>2022-05-03T11:29:56.634Z</time>
      </trkpt>
      <trkpt lat="41.18384" lon="19.56184">
        <ele>75.438537</ele>
        <time>2022-05-03T11:29:59.626Z</time>
      </trkpt>
      <trkpt lat="41.18393" lon="19.56177">
        <ele>75.00523</ele>
        <time>2022-05-03T11:30:02.657Z</time>
      </trkpt>
      <trkpt lat="41.18403" lon="19.56171">
        <ele>74.567941</ele>
        <time>2022-05-03T11:30:05.626Z</time>
      </trkpt>
      <trkpt lat="41.18412" lon="19.56163">
        <ele>74.107842</ele>
        <time>2022-05-03T11:30:08.700Z</time>
      </trkpt>
      <trkpt lat="41.18423" lon="19.56156">
        <ele>74.105528</ele>
        <time>2022-05-03T11:30:11.642Z</time>
      </trkpt>
      <trkpt lat="41.18432" lon="19.56147">
        <ele>74.222672</ele>
        <time>2022-05-03T11:30:14.617Z</time>
      </trkpt>
      <trkpt lat="41.1844" lon="19.56138">
        <ele>74.339697</ele>
        <time>2022-05-03T11:30:17.617Z</time>
      </trkpt>
      <trkpt lat="41.18451" lon="19.56129">
        <ele>74.469669</ele>
        <time>2022-05-03T11:30:20.628Z</time>
      </trkpt>
      <trkpt lat="41.18461" lon="19.56121">
        <ele>74.593832</ele>
        <time>2022-05-03T11:30:23.632Z</time>
      </trkpt>
      <trkpt lat="41.1847" lon="19.5611">
        <ele>74.726565</ele>
        <time>2022-05-03T11:30:26.628Z</time>
      </trkpt>
      <trkpt lat="41.18479" lon="19.56099">
        <ele>74.850375</ele>
        <time>2022-05-03T11:30:29.624Z</time>
      </trkpt>
      <trkpt lat="41.18488" lon="19.5609">
        <ele>74.967699</ele>
        <time>2022-05-03T11:30:32.620Z</time>
      </trkpt>
      <trkpt lat="41.18497" lon="19.5608">
        <ele>75.091075</ele>
        <time>2022-05-03T11:30:35.616Z</time>
      </trkpt>
      <trkpt lat="41.18506" lon="19.56071">
        <ele>75.208879</ele>
        <time>2022-05-03T11:30:38.628Z</time>
      </trkpt>
      <trkpt lat="41.18516" lon="19.56062">
        <ele>75.331732</ele>
        <time>2022-05-03T11:30:41.620Z</time>
      </trkpt>
      <trkpt lat="41.18525" lon="19.56052">
        <ele>75.45592</ele>
        <time>2022-05-03T11:30:44.626Z</time>
      </trkpt>
      <trkpt lat="41.18533" lon="19.56043">
        <ele>75.571582</ele>
        <time>2022-05-03T11:30:47.634Z</time>
      </trkpt>
      <trkpt lat="41.18542" lon="19.56033">
        <ele>75.694603</ele>
        <time>2022-05-03T11:30:50.638Z</time>
      </trkpt>
      <trkpt lat="41.18553" lon="19.56024">
        <ele>75.829642</ele>
        <time>2022-05-03T11:30:53.611Z</time>
      </trkpt>
      <trkpt lat="41.18563" lon="19.56015">
        <ele>76.10445</ele>
        <time>2022-05-03T11:30:56.637Z</time>
      </trkpt>
      <trkpt lat="41.18572" lon="19.56006">
        <ele>76.507086</ele>
        <time>2022-05-03T11:30:59.634Z</time>
      </trkpt>
      <trkpt lat="41.18582" lon="19.55998">
        <ele>76.951343</ele>
        <time>2022-05-03T11:31:02.629Z</time>
      </trkpt>
      <trkpt lat="41.18591" lon="19.55987">
        <ele>77.403015</ele>
        <time>2022-05-03T11:31:05.639Z</time>
      </trkpt>
      <trkpt lat="41.18599" lon="19.55976">
        <ele>77.838107</ele>
        <time>2022-05-03T11:31:08.640Z</time>
      </trkpt>
      <trkpt lat="41.18608" lon="19.55967">
        <ele>78.256553</ele>
        <time>2022-05-03T11:31:11.641Z</time>
      </trkpt>
      <trkpt lat="41.18617" lon="19.55956">
        <ele>78.715519</ele>
        <time>2022-05-03T11:31:14.647Z</time>
      </trkpt>
      <trkpt lat="41.18626" lon="19.55945">
        <ele>79.172944</ele>
        <time>2022-05-03T11:31:17.659Z</time>
      </trkpt>
      <trkpt lat="41.18636" lon="19.55934">
        <ele>79.645825</ele>
        <time>2022-05-03T11:31:20.649Z</time>
      </trkpt>
      <trkpt lat="41.18646" lon="19.55922">
        <ele>80.128979</ele>
        <time>2022-05-03T11:31:23.619Z</time>
      </trkpt>
      <trkpt lat="41.18656" lon="19.55913">
        <ele>80.602595</ele>
        <time>2022-05-03T11:31:26.634Z</time>
      </trkpt>
      <trkpt lat="41.18667" lon="19.55902">
        <ele>81.093075</ele>
        <time>2022-05-03T11:31:29.644Z</time>
      </trkpt>
      <trkpt lat="41.18677" lon="19.55892">
        <ele>81.576399</ele>
        <time>2022-05-03T11:31:32.627Z</time>
      </trkpt>
      <trkpt lat="41.18688" lon="19.55883">
        <ele>82.051798</ele>
        <time>2022-05-03T11:31:35.619Z</time>
      </trkpt>
      <trkpt lat="41.18698" lon="19.55871">
        <ele>82.537751</ele>
        <time>2022-05-03T11:31:38.625Z</time>
      </trkpt>
      <trkpt lat="41.18709" lon="19.55861">
        <ele>82.145655</ele>
        <time>2022-05-03T11:31:41.651Z</time>
      </trkpt>
      <trkpt lat="41.18716" lon="19.55854">
        <ele>81.817725</ele>
        <time>2022-05-03T11:31:43.623Z</time>
      </trkpt>
      <trkpt lat="41.18724" lon="19.55847">
        <ele>81.473811</ele>
        <time>2022-05-03T11:31:45.680Z</time>
      </trkpt>
      <trkpt lat="41.18733" lon="19.5584">
        <ele>81.116022</ele>
        <time>2022-05-03T11:31:47.636Z</time>
      </trkpt>
      <trkpt lat="41.18741" lon="19.55834">
        <ele>80.774803</ele>
        <time>2022-05-03T11:31:49.632Z</time>
      </trkpt>
      <trkpt lat="41.18749" lon="19.55826">
        <ele>80.433671</ele>
        <time>2022-05-03T11:31:51.611Z</time>
      </trkpt>
      <trkpt lat="41.18756" lon="19.55817">
        <ele>80.063431</ele>
        <time>2022-05-03T11:31:53.643Z</time>
      </trkpt>
      <trkpt lat="41.18764" lon="19.55807">
        <ele>79.679888</ele>
        <time>2022-05-03T11:31:55.628Z</time>
      </trkpt>
      <trkpt lat="41.18773" lon="19.55798">
        <ele>79.3004</ele>
        <time>2022-05-03T11:31:57.671Z</time>
      </trkpt>
      <trkpt lat="41.18781" lon="19.5579">
        <ele>78.944844</ele>
        <time>2022-05-03T11:31:59.621Z</time>
      </trkpt>
      <trkpt lat="41.18788" lon="19.55781">
        <ele>78.589431</ele>
        <time>2022-05-03T11:32:01.637Z</time>
      </trkpt>
      <trkpt lat="41.18795" lon="19.55771">
        <ele>78.228855</ele>
        <time>2022-05-03T11:32:03.647Z</time>
      </trkpt>
      <trkpt lat="41.18802" lon="19.55762">
        <ele>77.869499</ele>
        <time>2022-05-03T11:32:05.629Z</time>
      </trkpt>
      <trkpt lat="41.1881" lon="19.55753">
        <ele>77.496139</ele>
        <time>2022-05-03T11:32:07.642Z</time>
      </trkpt>
      <trkpt lat="41.18818" lon="19.55744">
        <ele>77.131682</ele>
        <time>2022-05-03T11:32:09.632Z</time>
      </trkpt>
      <trkpt lat="41.18826" lon="19.55736">
        <ele>76.785545</ele>
        <time>2022-05-03T11:32:11.615Z</time>
      </trkpt>
      <trkpt lat="41.18834" lon="19.55729">
        <ele>76.439408</ele>
        <time>2022-05-03T11:32:13.615Z</time>
      </trkpt>
      <trkpt lat="41.18842" lon="19.55721">
        <ele>76.189647</ele>
        <time>2022-05-03T11:32:15.629Z</time>
      </trkpt>
      <trkpt lat="41.1885" lon="19.55713">
        <ele>76.219013</ele>
        <time>2022-05-03T11:32:17.628Z</time>
      </trkpt>
      <trkpt lat="41.18859" lon="19.55705">
        <ele>76.248457</ele>
        <time>2022-05-03T11:32:19.653Z</time>
      </trkpt>
      <trkpt lat="41.18866" lon="19.55696">
        <ele>76.277318</ele>
        <time>2022-05-03T11:32:21.639Z</time>
      </trkpt>
      <trkpt lat="41.18874" lon="19.55687">
        <ele>76.305018</ele>
        <time>2022-05-03T11:32:23.631Z</time>
      </trkpt>
      <trkpt lat="41.18882" lon="19.55678">
        <ele>76.334779</ele>
        <time>2022-05-03T11:32:25.632Z</time>
      </trkpt>
      <trkpt lat="41.18889" lon="19.5567">
        <ele>76.361134</ele>
        <time>2022-05-03T11:32:27.627Z</time>
      </trkpt>
      <trkpt lat="41.18896" lon="19.55662">
        <ele>76.387427</ele>
        <time>2022-05-03T11:32:29.627Z</time>
      </trkpt>
      <trkpt lat="41.18903" lon="19.55654">
        <ele>76.415534</ele>
        <time>2022-05-03T11:32:31.629Z</time>
      </trkpt>
      <trkpt lat="41.18912" lon="19.55645">
        <ele>76.445105</ele>
        <time>2022-05-03T11:32:33.626Z</time>
      </trkpt>
      <trkpt lat="41.1892" lon="19.55637">
        <ele>76.474903</ele>
        <time>2022-05-03T11:32:35.623Z</time>
      </trkpt>
      <trkpt lat="41.18928" lon="19.55629">
        <ele>76.503142</ele>
        <time>2022-05-03T11:32:37.614Z</time>
      </trkpt>
      <trkpt lat="41.18936" lon="19.55622">
        <ele>76.530479</ele>
        <time>2022-05-03T11:32:39.638Z</time>
      </trkpt>
      <trkpt lat="41.18944" lon="19.55614">
        <ele>76.55993</ele>
        <time>2022-05-03T11:32:41.671Z</time>
      </trkpt>
      <trkpt lat="41.18953" lon="19.55606">
        <ele>76.589848</ele>
        <time>2022-05-03T11:32:43.626Z</time>
      </trkpt>
      <trkpt lat="41.18962" lon="19.55599">
        <ele>76.619062</ele>
        <time>2022-05-03T11:32:45.666Z</time>
      </trkpt>
      <trkpt lat="41.18969" lon="19.55591">
        <ele>76.646235</ele>
        <time>2022-05-03T11:32:47.661Z</time>
      </trkpt>
      <trkpt lat="41.18976" lon="19.55583">
        <ele>76.672518</ele>
        <time>2022-05-03T11:32:49.623Z</time>
      </trkpt>
      <trkpt lat="41.18986" lon="19.55571">
        <ele>76.803522</ele>
        <time>2022-05-03T11:32:52.645Z</time>
      </trkpt>
      <trkpt lat="41.18993" lon="19.55563">
        <ele>76.964214</ele>
        <time>2022-05-03T11:32:54.621Z</time>
      </trkpt>
      <trkpt lat="41.18999" lon="19.55553">
        <ele>77.12618</ele>
        <time>2022-05-03T11:32:56.626Z</time>
      </trkpt>
      <trkpt lat="41.19006" lon="19.55544">
        <ele>77.303428</ele>
        <time>2022-05-03T11:32:58.628Z</time>
      </trkpt>
      <trkpt lat="41.19014" lon="19.55536">
        <ele>77.482708</ele>
        <time>2022-05-03T11:33:00.617Z</time>
      </trkpt>
      <trkpt lat="41.19022" lon="19.55528">
        <ele>77.652953</ele>
        <time>2022-05-03T11:33:02.634Z</time>
      </trkpt>
      <trkpt lat="41.1903" lon="19.55521">
        <ele>77.81927</ele>
        <time>2022-05-03T11:33:04.694Z</time>
      </trkpt>
      <trkpt lat="41.19037" lon="19.55512">
        <ele>77.990808</ele>
        <time>2022-05-03T11:33:06.611Z</time>
      </trkpt>
      <trkpt lat="41.19045" lon="19.55505">
        <ele>78.16582</ele>
        <time>2022-05-03T11:33:08.594Z</time>
      </trkpt>
      <trkpt lat="41.19053" lon="19.55497">
        <ele>78.341075</ele>
        <time>2022-05-03T11:33:10.645Z</time>
      </trkpt>
      <trkpt lat="41.19061" lon="19.5549">
        <ele>78.51023</ele>
        <time>2022-05-03T11:33:12.636Z</time>
      </trkpt>
      <trkpt lat="41.1907" lon="19.55483">
        <ele>78.695536</ele>
        <time>2022-05-03T11:33:14.617Z</time>
      </trkpt>
      <trkpt lat="41.19078" lon="19.55474">
        <ele>78.867671</ele>
        <time>2022-05-03T11:33:16.636Z</time>
      </trkpt>
      <trkpt lat="41.19085" lon="19.55466">
        <ele>79.039677</ele>
        <time>2022-05-03T11:33:18.618Z</time>
      </trkpt>
      <trkpt lat="41.19093" lon="19.55457">
        <ele>79.221787</ele>
        <time>2022-05-03T11:33:20.618Z</time>
      </trkpt>
      <trkpt lat="41.19102" lon="19.55448">
        <ele>79.416237</ele>
        <time>2022-05-03T11:33:22.660Z</time>
      </trkpt>
      <trkpt lat="41.19111" lon="19.5544">
        <ele>79.60956</ele>
        <time>2022-05-03T11:33:24.630Z</time>
      </trkpt>
      <trkpt lat="41.19119" lon="19.55432">
        <ele>79.791162</ele>
        <time>2022-05-03T11:33:26.623Z</time>
      </trkpt>
      <trkpt lat="41.19128" lon="19.55424">
        <ele>79.550943</ele>
        <time>2022-05-03T11:33:28.627Z</time>
      </trkpt>
      <trkpt lat="41.19138" lon="19.55417">
        <ele>79.079834</ele>
        <time>2022-05-03T11:33:30.617Z</time>
      </trkpt>
      <trkpt lat="41.19147" lon="19.55409">
        <ele>78.623961</ele>
        <time>2022-05-03T11:33:32.628Z</time>
      </trkpt>
      <trkpt lat="41.19155" lon="19.55398">
        <ele>78.144772</ele>
        <time>2022-05-03T11:33:34.633Z</time>
      </trkpt>
      <trkpt lat="41.19164" lon="19.5539">
        <ele>77.672749</ele>
        <time>2022-05-03T11:33:36.635Z</time>
      </trkpt>
      <trkpt lat="41.19174" lon="19.55383">
        <ele>77.197108</ele>
        <time>2022-05-03T11:33:38.655Z</time>
      </trkpt>
      <trkpt lat="41.19183" lon="19.55375">
        <ele>76.729691</ele>
        <time>2022-05-03T11:33:40.622Z</time>
      </trkpt>
      <trkpt lat="41.19192" lon="19.55369">
        <ele>76.29557</ele>
        <time>2022-05-03T11:33:42.657Z</time>
      </trkpt>
      <trkpt lat="41.19201" lon="19.55362">
        <ele>75.83752</ele>
        <time>2022-05-03T11:33:44.649Z</time>
      </trkpt>
      <trkpt lat="41.1921" lon="19.55353">
        <ele>75.369277</ele>
        <time>2022-05-03T11:33:46.644Z</time>
      </trkpt>
      <trkpt lat="41.19219" lon="19.55344">
        <ele>74.91311</ele>
        <time>2022-05-03T11:33:48.674Z</time>
      </trkpt>
      <trkpt lat="41.19227" lon="19.55336">
        <ele>74.470671</ele>
        <time>2022-05-03T11:33:50.630Z</time>
      </trkpt>
      <trkpt lat="41.19235" lon="19.55328">
        <ele>74.019491</ele>
        <time>2022-05-03T11:33:52.636Z</time>
      </trkpt>
      <trkpt lat="41.19244" lon="19.55319">
        <ele>73.564457</ele>
        <time>2022-05-03T11:33:54.652Z</time>
      </trkpt>
      <trkpt lat="41.19253" lon="19.55312">
        <ele>73.124488</ele>
        <time>2022-05-03T11:33:56.644Z</time>
      </trkpt>
      <trkpt lat="41.1926" lon="19.55304">
        <ele>72.717856</ele>
        <time>2022-05-03T11:33:58.628Z</time>
      </trkpt>
      <trkpt lat="41.19268" lon="19.55297">
        <ele>72.309651</ele>
        <time>2022-05-03T11:34:00.621Z</time>
      </trkpt>
      <trkpt lat="41.19276" lon="19.5529">
        <ele>71.765073</ele>
        <time>2022-05-03T11:34:02.619Z</time>
      </trkpt>
      <trkpt lat="41.19284" lon="19.55282">
        <ele>71.175525</ele>
        <time>2022-05-03T11:34:04.633Z</time>
      </trkpt>
      <trkpt lat="41.19292" lon="19.55274">
        <ele>70.601164</ele>
        <time>2022-05-03T11:34:06.628Z</time>
      </trkpt>
      <trkpt lat="41.19299" lon="19.55267">
        <ele>70.050044</ele>
        <time>2022-05-03T11:34:08.623Z</time>
      </trkpt>
      <trkpt lat="41.1931" lon="19.55258">
        <ele>69.246525</ele>
        <time>2022-05-03T11:34:11.636Z</time>
      </trkpt>
      <trkpt lat="41.19317" lon="19.55251">
        <ele>68.698041</ele>
        <time>2022-05-03T11:34:13.614Z</time>
      </trkpt>
      <trkpt lat="41.19325" lon="19.55244">
        <ele>68.11688</ele>
        <time>2022-05-03T11:34:15.621Z</time>
      </trkpt>
      <trkpt lat="41.19333" lon="19.55236">
        <ele>67.517549</ele>
        <time>2022-05-03T11:34:17.636Z</time>
      </trkpt>
      <trkpt lat="41.19342" lon="19.55228">
        <ele>66.903383</ele>
        <time>2022-05-03T11:34:19.631Z</time>
      </trkpt>
      <trkpt lat="41.19349" lon="19.5522">
        <ele>66.320754</ele>
        <time>2022-05-03T11:34:21.650Z</time>
      </trkpt>
      <trkpt lat="41.1936" lon="19.5521">
        <ele>65.504306</ele>
        <time>2022-05-03T11:34:24.642Z</time>
      </trkpt>
      <trkpt lat="41.19368" lon="19.55203">
        <ele>64.920623</ele>
        <time>2022-05-03T11:34:26.645Z</time>
      </trkpt>
      <trkpt lat="41.19376" lon="19.55195">
        <ele>64.323485</ele>
        <time>2022-05-03T11:34:28.619Z</time>
      </trkpt>
      <trkpt lat="41.19384" lon="19.55188">
        <ele>63.716909</ele>
        <time>2022-05-03T11:34:30.619Z</time>
      </trkpt>
      <trkpt lat="41.19392" lon="19.5518">
        <ele>63.126689</ele>
        <time>2022-05-03T11:34:32.645Z</time>
      </trkpt>
      <trkpt lat="41.19401" lon="19.55172">
        <ele>62.497348</ele>
        <time>2022-05-03T11:34:34.619Z</time>
      </trkpt>
      <trkpt lat="41.19409" lon="19.55164">
        <ele>61.863049</ele>
        <time>2022-05-03T11:34:36.622Z</time>
      </trkpt>
      <trkpt lat="41.19418" lon="19.55158">
        <ele>61.284932</ele>
        <time>2022-05-03T11:34:38.619Z</time>
      </trkpt>
      <trkpt lat="41.19429" lon="19.55147">
        <ele>61.445179</ele>
        <time>2022-05-03T11:34:41.622Z</time>
      </trkpt>
      <trkpt lat="41.19436" lon="19.55139">
        <ele>61.559984</ele>
        <time>2022-05-03T11:34:43.632Z</time>
      </trkpt>
      <trkpt lat="41.19447" lon="19.55127">
        <ele>61.722218</ele>
        <time>2022-05-03T11:34:46.660Z</time>
      </trkpt>
      <trkpt lat="41.19455" lon="19.55119">
        <ele>61.839329</ele>
        <time>2022-05-03T11:34:48.620Z</time>
      </trkpt>
      <trkpt lat="41.19462" lon="19.55112">
        <ele>61.949548</ele>
        <time>2022-05-03T11:34:50.635Z</time>
      </trkpt>
      <trkpt lat="41.19473" lon="19.55104">
        <ele>62.097462</ele>
        <time>2022-05-03T11:34:53.635Z</time>
      </trkpt>
      <trkpt lat="41.19481" lon="19.55097">
        <ele>62.205679</ele>
        <time>2022-05-03T11:34:55.624Z</time>
      </trkpt>
      <trkpt lat="41.19489" lon="19.55085">
        <ele>62.353356</ele>
        <time>2022-05-03T11:34:58.653Z</time>
      </trkpt>
      <trkpt lat="41.19495" lon="19.55074">
        <ele>62.475352</ele>
        <time>2022-05-03T11:35:00.629Z</time>
      </trkpt>
      <trkpt lat="41.19501" lon="19.55062">
        <ele>62.601744</ele>
        <time>2022-05-03T11:35:02.628Z</time>
      </trkpt>
      <trkpt lat="41.19507" lon="19.55052">
        <ele>62.718722</ele>
        <time>2022-05-03T11:35:04.630Z</time>
      </trkpt>
      <trkpt lat="41.19513" lon="19.55041">
        <ele>62.840779</ele>
        <time>2022-05-03T11:35:06.635Z</time>
      </trkpt>
      <trkpt lat="41.1952" lon="19.5503">
        <ele>62.968394</ele>
        <time>2022-05-03T11:35:08.637Z</time>
      </trkpt>
      <trkpt lat="41.19527" lon="19.55019">
        <ele>63.092214</ele>
        <time>2022-05-03T11:35:10.626Z</time>
      </trkpt>
      <trkpt lat="41.19534" lon="19.55011">
        <ele>63.201179</ele>
        <time>2022-05-03T11:35:12.631Z</time>
      </trkpt>
      <trkpt lat="41.19539" lon="19.55002">
        <ele>63.308341</ele>
        <time>2022-05-03T11:35:14.619Z</time>
      </trkpt>
      <trkpt lat="41.19545" lon="19.54991">
        <ele>63.417301</ele>
        <time>2022-05-03T11:35:16.625Z</time>
      </trkpt>
      <trkpt lat="41.1955" lon="19.54981">
        <ele>63.495738</ele>
        <time>2022-05-03T11:35:18.631Z</time>
      </trkpt>
      <trkpt lat="41.19556" lon="19.54972">
        <ele>63.573169</ele>
        <time>2022-05-03T11:35:20.616Z</time>
      </trkpt>
      <trkpt lat="41.19563" lon="19.5496">
        <ele>63.670411</ele>
        <time>2022-05-03T11:35:23.678Z</time>
      </trkpt>
      <trkpt lat="41.19572" lon="19.5495">
        <ele>63.763677</ele>
        <time>2022-05-03T11:35:27.632Z</time>
      </trkpt>
      <trkpt lat="41.19564" lon="19.54967">
        <ele>63.887248</ele>
        <time>2022-05-03T12:27:41.660Z</time>
      </trkpt>
      <trkpt lat="41.19571" lon="19.54957">
        <ele>63.976843</ele>
        <time>2022-05-03T12:27:45.652Z</time>
      </trkpt>
      <trkpt lat="41.19578" lon="19.54947">
        <ele>64.057976</ele>
        <time>2022-05-03T12:27:48.627Z</time>
      </trkpt>
      <trkpt lat="41.19585" lon="19.54937">
        <ele>64.144656</ele>
        <time>2022-05-03T12:27:51.646Z</time>
      </trkpt>
      <trkpt lat="41.19593" lon="19.54926">
        <ele>64.239073</ele>
        <time>2022-05-03T12:27:54.652Z</time>
      </trkpt>
      <trkpt lat="41.196" lon="19.54913">
        <ele>64.341138</ele>
        <time>2022-05-03T12:27:57.643Z</time>
      </trkpt>
      <trkpt lat="41.19608" lon="19.549">
        <ele>64.444708</ele>
        <time>2022-05-03T12:28:00.721Z</time>
      </trkpt>
      <trkpt lat="41.19616" lon="19.54887">
        <ele>64.553138</ele>
        <time>2022-05-03T12:28:03.635Z</time>
      </trkpt>
      <trkpt lat="41.19622" lon="19.54878">
        <ele>64.629258</ele>
        <time>2022-05-03T12:28:05.642Z</time>
      </trkpt>
      <trkpt lat="41.19628" lon="19.54868">
        <ele>64.707682</ele>
        <time>2022-05-03T12:28:07.647Z</time>
      </trkpt>
      <trkpt lat="41.19636" lon="19.54854">
        <ele>64.816782</ele>
        <time>2022-05-03T12:28:10.679Z</time>
      </trkpt>
      <trkpt lat="41.19641" lon="19.54844">
        <ele>64.895711</ele>
        <time>2022-05-03T12:28:12.620Z</time>
      </trkpt>
      <trkpt lat="41.1965" lon="19.54832">
        <ele>64.711289</ele>
        <time>2022-05-03T12:28:15.633Z</time>
      </trkpt>
      <trkpt lat="41.19658" lon="19.54819">
        <ele>64.458277</ele>
        <time>2022-05-03T12:28:18.673Z</time>
      </trkpt>
      <trkpt lat="41.19667" lon="19.54805">
        <ele>64.185965</ele>
        <time>2022-05-03T12:28:21.625Z</time>
      </trkpt>
      <trkpt lat="41.19673" lon="19.54794">
        <ele>63.983183</ele>
        <time>2022-05-03T12:28:23.638Z</time>
      </trkpt>
      <trkpt lat="41.1968" lon="19.54783">
        <ele>63.773167</ele>
        <time>2022-05-03T12:28:25.660Z</time>
      </trkpt>
      <trkpt lat="41.19687" lon="19.54772">
        <ele>63.559251</ele>
        <time>2022-05-03T12:28:27.658Z</time>
      </trkpt>
      <trkpt lat="41.19693" lon="19.54761">
        <ele>63.356439</ele>
        <time>2022-05-03T12:28:29.632Z</time>
      </trkpt>
      <trkpt lat="41.197" lon="19.5475">
        <ele>63.146478</ele>
        <time>2022-05-03T12:28:31.633Z</time>
      </trkpt>
      <trkpt lat="41.19706" lon="19.54739">
        <ele>62.936543</ele>
        <time>2022-05-03T12:28:33.619Z</time>
      </trkpt>
      <trkpt lat="41.19713" lon="19.54728">
        <ele>62.731331</ele>
        <time>2022-05-03T12:28:35.668Z</time>
      </trkpt>
      <trkpt lat="41.19719" lon="19.54717">
        <ele>62.52612</ele>
        <time>2022-05-03T12:28:37.627Z</time>
      </trkpt>
      <trkpt lat="41.19725" lon="19.54707">
        <ele>62.320908</ele>
        <time>2022-05-03T12:28:39.652Z</time>
      </trkpt>
      <trkpt lat="41.19732" lon="19.54696">
        <ele>62.119092</ele>
        <time>2022-05-03T12:28:41.631Z</time>
      </trkpt>
      <trkpt lat="41.19738" lon="19.54686">
        <ele>61.927042</ele>
        <time>2022-05-03T12:28:43.642Z</time>
      </trkpt>
      <trkpt lat="41.19743" lon="19.54676">
        <ele>61.734978</ele>
        <time>2022-05-03T12:28:45.638Z</time>
      </trkpt>
      <trkpt lat="41.19749" lon="19.54665">
        <ele>61.541712</ele>
        <time>2022-05-03T12:28:47.636Z</time>
      </trkpt>
      <trkpt lat="41.19756" lon="19.54655">
        <ele>61.34583</ele>
        <time>2022-05-03T12:28:49.628Z</time>
      </trkpt>
      <trkpt lat="41.19762" lon="19.54644">
        <ele>61.298923</ele>
        <time>2022-05-03T12:28:51.631Z</time>
      </trkpt>
      <trkpt lat="41.19768" lon="19.54633">
        <ele>61.252299</ele>
        <time>2022-05-03T12:28:53.636Z</time>
      </trkpt>
      <trkpt lat="41.19774" lon="19.54622">
        <ele>61.2076</ele>
        <time>2022-05-03T12:28:55.638Z</time>
      </trkpt>
      <trkpt lat="41.1978" lon="19.54612">
        <ele>61.162314</ele>
        <time>2022-05-03T12:28:57.609Z</time>
      </trkpt>
      <trkpt lat="41.19786" lon="19.54602">
        <ele>61.117884</ele>
        <time>2022-05-03T12:28:59.633Z</time>
      </trkpt>
      <trkpt lat="41.19792" lon="19.54591">
        <ele>61.071738</ele>
        <time>2022-05-03T12:29:01.635Z</time>
      </trkpt>
      <trkpt lat="41.19798" lon="19.5458">
        <ele>61.023745</ele>
        <time>2022-05-03T12:29:03.621Z</time>
      </trkpt>
      <trkpt lat="41.19804" lon="19.54569">
        <ele>60.978773</ele>
        <time>2022-05-03T12:29:05.651Z</time>
      </trkpt>
      <trkpt lat="41.1981" lon="19.54559">
        <ele>60.934042</ele>
        <time>2022-05-03T12:29:07.659Z</time>
      </trkpt>
      <trkpt lat="41.19816" lon="19.54549">
        <ele>60.889598</ele>
        <time>2022-05-03T12:29:09.622Z</time>
      </trkpt>
      <trkpt lat="41.19822" lon="19.54539">
        <ele>60.845976</ele>
        <time>2022-05-03T12:29:11.645Z</time>
      </trkpt>
      <trkpt lat="41.19828" lon="19.54528">
        <ele>60.801828</ele>
        <time>2022-05-03T12:29:13.678Z</time>
      </trkpt>
      <trkpt lat="41.19834" lon="19.54518">
        <ele>60.758489</ele>
        <time>2022-05-03T12:29:15.612Z</time>
      </trkpt>
      <trkpt lat="41.1984" lon="19.54508">
        <ele>60.71103</ele>
        <time>2022-05-03T12:29:17.629Z</time>
      </trkpt>
      <trkpt lat="41.19846" lon="19.54498">
        <ele>60.668134</ele>
        <time>2022-05-03T12:29:19.687Z</time>
      </trkpt>
      <trkpt lat="41.19853" lon="19.54489">
        <ele>60.624631</ele>
        <time>2022-05-03T12:29:21.612Z</time>
      </trkpt>
      <trkpt lat="41.19859" lon="19.54478">
        <ele>60.577971</ele>
        <time>2022-05-03T12:29:23.630Z</time>
      </trkpt>
      <trkpt lat="41.19866" lon="19.54468">
        <ele>60.530988</ele>
        <time>2022-05-03T12:29:25.650Z</time>
      </trkpt>
      <trkpt lat="41.19873" lon="19.54457">
        <ele>60.320332</ele>
        <time>2022-05-03T12:29:27.622Z</time>
      </trkpt>
      <trkpt lat="41.1988" lon="19.54447">
        <ele>60.112436</ele>
        <time>2022-05-03T12:29:29.624Z</time>
      </trkpt>
      <trkpt lat="41.19886" lon="19.54437">
        <ele>59.907644</ele>
        <time>2022-05-03T12:29:31.632Z</time>
      </trkpt>
      <trkpt lat="41.19892" lon="19.54427">
        <ele>59.703153</ele>
        <time>2022-05-03T12:29:33.615Z</time>
      </trkpt>
      <trkpt lat="41.19899" lon="19.54416">
        <ele>59.487367</ele>
        <time>2022-05-03T12:29:35.634Z</time>
      </trkpt>
      <trkpt lat="41.19905" lon="19.54405">
        <ele>59.273981</ele>
        <time>2022-05-03T12:29:37.642Z</time>
      </trkpt>
      <trkpt lat="41.19912" lon="19.54395">
        <ele>59.065609</ele>
        <time>2022-05-03T12:29:39.618Z</time>
      </trkpt>
      <trkpt lat="41.19918" lon="19.54385">
        <ele>58.862001</ele>
        <time>2022-05-03T12:29:41.636Z</time>
      </trkpt>
      <trkpt lat="41.19924" lon="19.54375">
        <ele>58.660909</ele>
        <time>2022-05-03T12:29:43.633Z</time>
      </trkpt>
      <trkpt lat="41.19931" lon="19.54366">
        <ele>58.467039</ele>
        <time>2022-05-03T12:29:45.616Z</time>
      </trkpt>
      <trkpt lat="41.19937" lon="19.54355">
        <ele>58.261253</ele>
        <time>2022-05-03T12:29:47.659Z</time>
      </trkpt>
      <trkpt lat="41.19943" lon="19.54345">
        <ele>58.04906</ele>
        <time>2022-05-03T12:29:49.656Z</time>
      </trkpt>
      <trkpt lat="41.1995" lon="19.54334">
        <ele>57.83184</ele>
        <time>2022-05-03T12:29:51.619Z</time>
      </trkpt>
      <trkpt lat="41.19957" lon="19.54323">
        <ele>57.616055</ele>
        <time>2022-05-03T12:29:53.630Z</time>
      </trkpt>
      <trkpt lat="41.19963" lon="19.54313">
        <ele>57.410189</ele>
        <time>2022-05-03T12:29:55.674Z</time>
      </trkpt>
      <trkpt lat="41.1997" lon="19.54303">
        <ele>57.205398</ele>
        <time>2022-05-03T12:29:57.617Z</time>
      </trkpt>
      <trkpt lat="41.19976" lon="19.54293">
        <ele>57.003948</ele>
        <time>2022-05-03T12:29:59.640Z</time>
      </trkpt>
      <trkpt lat="41.19982" lon="19.54283">
        <ele>56.800856</ele>
        <time>2022-05-03T12:30:01.636Z</time>
      </trkpt>
      <trkpt lat="41.19988" lon="19.54272">
        <ele>56.59544</ele>
        <time>2022-05-03T12:30:03.628Z</time>
      </trkpt>
      <trkpt lat="41.19994" lon="19.54261">
        <ele>56.386363</ele>
        <time>2022-05-03T12:30:05.641Z</time>
      </trkpt>
      <trkpt lat="41.2" lon="19.5425">
        <ele>56.177165</ele>
        <time>2022-05-03T12:30:07.633Z</time>
      </trkpt>
      <trkpt lat="41.20007" lon="19.54239">
        <ele>55.955826</ele>
        <time>2022-05-03T12:30:09.624Z</time>
      </trkpt>
      <trkpt lat="41.20014" lon="19.54228">
        <ele>55.739173</ele>
        <time>2022-05-03T12:30:11.635Z</time>
      </trkpt>
      <trkpt lat="41.2002" lon="19.54216">
        <ele>55.51293</ele>
        <time>2022-05-03T12:30:13.627Z</time>
      </trkpt>
      <trkpt lat="41.20027" lon="19.54204">
        <ele>55.290384</ele>
        <time>2022-05-03T12:30:15.618Z</time>
      </trkpt>
      <trkpt lat="41.20034" lon="19.54193">
        <ele>55.071367</ele>
        <time>2022-05-03T12:30:17.636Z</time>
      </trkpt>
      <trkpt lat="41.20041" lon="19.54181">
        <ele>54.847609</ele>
        <time>2022-05-03T12:30:19.634Z</time>
      </trkpt>
      <trkpt lat="41.20047" lon="19.54171">
        <ele>54.629653</ele>
        <time>2022-05-03T12:30:21.680Z</time>
      </trkpt>
      <trkpt lat="41.20054" lon="19.5416">
        <ele>54.412701</ele>
        <time>2022-05-03T12:30:23.631Z</time>
      </trkpt>
      <trkpt lat="41.20062" lon="19.5415">
        <ele>54.198091</ele>
        <time>2022-05-03T12:30:25.623Z</time>
      </trkpt>
      <trkpt lat="41.20071" lon="19.54138">
        <ele>53.946396</ele>
        <time>2022-05-03T12:30:28.638Z</time>
      </trkpt>
      <trkpt lat="41.20078" lon="19.54127">
        <ele>53.728105</ele>
        <time>2022-05-03T12:30:32.659Z</time>
      </trkpt>
      <trkpt lat="41.20083" lon="19.54118">
        <ele>53.544696</ele>
        <time>2022-05-03T12:30:35.651Z</time>
      </trkpt>
      <trkpt lat="41.2009" lon="19.54106">
        <ele>53.319694</ele>
        <time>2022-05-03T12:30:38.656Z</time>
      </trkpt>
      <trkpt lat="41.20098" lon="19.54093">
        <ele>53.066328</ele>
        <time>2022-05-03T12:30:41.644Z</time>
      </trkpt>
      <trkpt lat="41.20103" lon="19.54083">
        <ele>52.886547</ele>
        <time>2022-05-03T12:30:43.640Z</time>
      </trkpt>
      <trkpt lat="41.20109" lon="19.54072">
        <ele>52.698847</ele>
        <time>2022-05-03T12:30:45.633Z</time>
      </trkpt>
      <trkpt lat="41.20116" lon="19.54063">
        <ele>52.521541</ele>
        <time>2022-05-03T12:30:47.636Z</time>
      </trkpt>
      <trkpt lat="41.20123" lon="19.54053">
        <ele>52.321856</ele>
        <time>2022-05-03T12:30:49.620Z</time>
      </trkpt>
      <trkpt lat="41.20129" lon="19.54043">
        <ele>52.131261</ele>
        <time>2022-05-03T12:30:51.624Z</time>
      </trkpt>
      <trkpt lat="41.20136" lon="19.54032">
        <ele>51.9396</ele>
        <time>2022-05-03T12:30:53.638Z</time>
      </trkpt>
      <trkpt lat="41.20143" lon="19.54022">
        <ele>51.745034</ele>
        <time>2022-05-03T12:30:55.662Z</time>
      </trkpt>
      <trkpt lat="41.20149" lon="19.54011">
        <ele>51.548092</ele>
        <time>2022-05-03T12:30:57.610Z</time>
      </trkpt>
      <trkpt lat="41.20155" lon="19.54001">
        <ele>51.364749</ele>
        <time>2022-05-03T12:30:59.647Z</time>
      </trkpt>
      <trkpt lat="41.20162" lon="19.53991">
        <ele>51.1791</ele>
        <time>2022-05-03T12:31:01.676Z</time>
      </trkpt>
      <trkpt lat="41.20168" lon="19.53981">
        <ele>50.987859</ele>
        <time>2022-05-03T12:31:03.634Z</time>
      </trkpt>
      <trkpt lat="41.20175" lon="19.5397">
        <ele>50.790494</ele>
        <time>2022-05-03T12:31:05.631Z</time>
      </trkpt>
      <trkpt lat="41.20182" lon="19.5396">
        <ele>50.595746</ele>
        <time>2022-05-03T12:31:07.664Z</time>
      </trkpt>
      <trkpt lat="41.20188" lon="19.53949">
        <ele>50.404505</ele>
        <time>2022-05-03T12:31:09.616Z</time>
      </trkpt>
      <trkpt lat="41.20195" lon="19.53939">
        <ele>50.208663</ele>
        <time>2022-05-03T12:31:11.644Z</time>
      </trkpt>
      <trkpt lat="41.20201" lon="19.53928">
        <ele>50.00602</ele>
        <time>2022-05-03T12:31:13.669Z</time>
      </trkpt>
      <trkpt lat="41.20208" lon="19.53917">
        <ele>49.806967</ele>
        <time>2022-05-03T12:31:15.622Z</time>
      </trkpt>
      <trkpt lat="41.20215" lon="19.53905">
        <ele>49.807878</ele>
        <time>2022-05-03T12:31:17.650Z</time>
      </trkpt>
      <trkpt lat="41.20221" lon="19.53895">
        <ele>49.86456</ele>
        <time>2022-05-03T12:31:19.632Z</time>
      </trkpt>
      <trkpt lat="41.20227" lon="19.53884">
        <ele>49.922283</ele>
        <time>2022-05-03T12:31:21.638Z</time>
      </trkpt>
      <trkpt lat="41.20234" lon="19.53873">
        <ele>49.978625</ele>
        <time>2022-05-03T12:31:23.621Z</time>
      </trkpt>
      <trkpt lat="41.2024" lon="19.53863">
        <ele>50.033631</ele>
        <time>2022-05-03T12:31:25.630Z</time>
      </trkpt>
      <trkpt lat="41.20246" lon="19.53852">
        <ele>50.088661</ele>
        <time>2022-05-03T12:31:27.621Z</time>
      </trkpt>
      <trkpt lat="41.20251" lon="19.53842">
        <ele>50.140332</ele>
        <time>2022-05-03T12:31:29.636Z</time>
      </trkpt>
      <trkpt lat="41.20257" lon="19.53832">
        <ele>50.193009</ele>
        <time>2022-05-03T12:31:31.637Z</time>
      </trkpt>
      <trkpt lat="41.20263" lon="19.53822">
        <ele>50.244685</ele>
        <time>2022-05-03T12:31:33.624Z</time>
      </trkpt>
      <trkpt lat="41.20269" lon="19.53812">
        <ele>50.300027</ele>
        <time>2022-05-03T12:31:35.698Z</time>
      </trkpt>
      <trkpt lat="41.20275" lon="19.538">
        <ele>50.357709</ele>
        <time>2022-05-03T12:31:37.638Z</time>
      </trkpt>
      <trkpt lat="41.20281" lon="19.5379">
        <ele>50.414052</ele>
        <time>2022-05-03T12:31:39.621Z</time>
      </trkpt>
      <trkpt lat="41.20287" lon="19.53779">
        <ele>50.470057</ele>
        <time>2022-05-03T12:31:41.646Z</time>
      </trkpt>
      <trkpt lat="41.20293" lon="19.53768">
        <ele>50.526436</ele>
        <time>2022-05-03T12:31:43.687Z</time>
      </trkpt>
      <trkpt lat="41.20298" lon="19.53757">
        <ele>50.581155</ele>
        <time>2022-05-03T12:31:45.632Z</time>
      </trkpt>
      <trkpt lat="41.20304" lon="19.53747">
        <ele>50.633185</ele>
        <time>2022-05-03T12:31:47.617Z</time>
      </trkpt>
      <trkpt lat="41.20309" lon="19.53736">
        <ele>50.687327</ele>
        <time>2022-05-03T12:31:49.632Z</time>
      </trkpt>
      <trkpt lat="41.20315" lon="19.53724">
        <ele>50.745431</ele>
        <time>2022-05-03T12:31:51.628Z</time>
      </trkpt>
      <trkpt lat="41.2032" lon="19.53712">
        <ele>50.852007</ele>
        <time>2022-05-03T12:31:53.637Z</time>
      </trkpt>
      <trkpt lat="41.20327" lon="19.53701">
        <ele>50.969714</ele>
        <time>2022-05-03T12:31:55.646Z</time>
      </trkpt>
      <trkpt lat="41.20332" lon="19.5369">
        <ele>51.085429</ele>
        <time>2022-05-03T12:31:57.663Z</time>
      </trkpt>
      <trkpt lat="41.20338" lon="19.53678">
        <ele>51.201979</ele>
        <time>2022-05-03T12:31:59.642Z</time>
      </trkpt>
      <trkpt lat="41.20344" lon="19.53667">
        <ele>51.318343</ele>
        <time>2022-05-03T12:32:01.614Z</time>
      </trkpt>
      <trkpt lat="41.2035" lon="19.53655">
        <ele>51.439054</ele>
        <time>2022-05-03T12:32:03.671Z</time>
      </trkpt>
      <trkpt lat="41.20356" lon="19.53644">
        <ele>51.55742</ele>
        <time>2022-05-03T12:32:05.644Z</time>
      </trkpt>
      <trkpt lat="41.20363" lon="19.53635">
        <ele>51.668566</ele>
        <time>2022-05-03T12:32:07.641Z</time>
      </trkpt>
      <trkpt lat="41.2037" lon="19.53625">
        <ele>51.780699</ele>
        <time>2022-05-03T12:32:09.650Z</time>
      </trkpt>
      <trkpt lat="41.20376" lon="19.53616">
        <ele>51.882733</ele>
        <time>2022-05-03T12:32:11.641Z</time>
      </trkpt>
      <trkpt lat="41.20386" lon="19.53608">
        <ele>52.019048</ele>
        <time>2022-05-03T12:32:14.723Z</time>
      </trkpt>
      <trkpt lat="41.20398" lon="19.53601">
        <ele>52.157252</ele>
        <time>2022-05-03T12:32:17.639Z</time>
      </trkpt>
      <trkpt lat="41.20404" lon="19.53592">
        <ele>52.260837</ele>
        <time>2022-05-03T12:32:19.650Z</time>
      </trkpt>
      <trkpt lat="41.2041" lon="19.53582">
        <ele>52.369514</ele>
        <time>2022-05-03T12:32:21.624Z</time>
      </trkpt>
      <trkpt lat="41.20419" lon="19.53574">
        <ele>52.485082</ele>
        <time>2022-05-03T12:32:23.646Z</time>
      </trkpt>
      <trkpt lat="41.20427" lon="19.53566">
        <ele>52.600794</ele>
        <time>2022-05-03T12:32:25.621Z</time>
      </trkpt>
      <trkpt lat="41.20436" lon="19.53559">
        <ele>52.721322</ele>
        <time>2022-05-03T12:32:27.638Z</time>
      </trkpt>
      <trkpt lat="41.20446" lon="19.53553">
        <ele>52.780954</ele>
        <time>2022-05-03T12:32:29.633Z</time>
      </trkpt>
      <trkpt lat="41.20456" lon="19.53547">
        <ele>52.780739</ele>
        <time>2022-05-03T12:32:31.678Z</time>
      </trkpt>
      <trkpt lat="41.20466" lon="19.53542">
        <ele>52.780531</ele>
        <time>2022-05-03T12:32:33.640Z</time>
      </trkpt>
      <trkpt lat="41.20476" lon="19.53536">
        <ele>52.780307</ele>
        <time>2022-05-03T12:32:35.627Z</time>
      </trkpt>
      <trkpt lat="41.20486" lon="19.53531">
        <ele>52.780089</ele>
        <time>2022-05-03T12:32:37.633Z</time>
      </trkpt>
      <trkpt lat="41.20496" lon="19.53526">
        <ele>52.779883</ele>
        <time>2022-05-03T12:32:39.663Z</time>
      </trkpt>
      <trkpt lat="41.20506" lon="19.53522">
        <ele>52.779683</ele>
        <time>2022-05-03T12:32:41.642Z</time>
      </trkpt>
      <trkpt lat="41.20516" lon="19.53517">
        <ele>52.779474</ele>
        <time>2022-05-03T12:32:43.632Z</time>
      </trkpt>
      <trkpt lat="41.20525" lon="19.53512">
        <ele>52.77927</ele>
        <time>2022-05-03T12:32:45.635Z</time>
      </trkpt>
      <trkpt lat="41.20534" lon="19.53508">
        <ele>52.779085</ele>
        <time>2022-05-03T12:32:47.638Z</time>
      </trkpt>
      <trkpt lat="41.20545" lon="19.53505">
        <ele>52.778851</ele>
        <time>2022-05-03T12:32:50.687Z</time>
      </trkpt>
      <trkpt lat="41.20556" lon="19.53505">
        <ele>52.778636</ele>
        <time>2022-05-03T12:32:53.646Z</time>
      </trkpt>
      <trkpt lat="41.20566" lon="19.53509">
        <ele>52.77843</ele>
        <time>2022-05-03T12:32:56.648Z</time>
      </trkpt>
      <trkpt lat="41.20575" lon="19.53512">
        <ele>52.778243</ele>
        <time>2022-05-03T12:32:59.635Z</time>
      </trkpt>
      <trkpt lat="41.20586" lon="19.53515">
        <ele>52.77803</ele>
        <time>2022-05-03T12:33:03.647Z</time>
      </trkpt>
      <trkpt lat="41.20596" lon="19.53513">
        <ele>52.777838</ele>
        <time>2022-05-03T12:33:07.624Z</time>
      </trkpt>
      <trkpt lat="41.20604" lon="19.53507">
        <ele>52.777637</ele>
        <time>2022-05-03T12:33:12.631Z</time>
      </trkpt>
      <trkpt lat="41.20612" lon="19.53496">
        <ele>52.808603</ele>
        <time>2022-05-03T12:33:17.629Z</time>
      </trkpt>
      <trkpt lat="41.20615" lon="19.53483">
        <ele>52.899366</ele>
        <time>2022-05-03T12:33:22.633Z</time>
      </trkpt>
      <trkpt lat="41.20615" lon="19.53471">
        <ele>52.979195</ele>
        <time>2022-05-03T12:33:27.624Z</time>
      </trkpt>
      <trkpt lat="41.20613" lon="19.53458">
        <ele>53.063141</ele>
        <time>2022-05-03T12:33:32.637Z</time>
      </trkpt>
      <trkpt lat="41.2061" lon="19.53444">
        <ele>53.158919</ele>
        <time>2022-05-03T12:33:37.624Z</time>
      </trkpt>
      <trkpt lat="41.20608" lon="19.53432">
        <ele>53.24646</ele>
        <time>2022-05-03T12:33:41.709Z</time>
      </trkpt>
      <trkpt lat="41.20604" lon="19.53416">
        <ele>53.353719</ele>
        <time>2022-05-03T12:33:45.642Z</time>
      </trkpt>
      <trkpt lat="41.20599" lon="19.53402">
        <ele>53.454968</ele>
        <time>2022-05-03T12:33:48.651Z</time>
      </trkpt>
      <trkpt lat="41.20592" lon="19.53387">
        <ele>53.570372</ele>
        <time>2022-05-03T12:33:51.673Z</time>
      </trkpt>
      <trkpt lat="41.20581" lon="19.53377">
        <ele>53.6851</ele>
        <time>2022-05-03T12:33:54.633Z</time>
      </trkpt>
      <trkpt lat="41.20572" lon="19.53373">
        <ele>53.773519</ele>
        <time>2022-05-03T12:33:56.635Z</time>
      </trkpt>
      <trkpt lat="41.20562" lon="19.53369">
        <ele>53.860969</ele>
        <time>2022-05-03T12:33:58.669Z</time>
      </trkpt>
      <trkpt lat="41.20553" lon="19.53363">
        <ele>53.947581</ele>
        <time>2022-05-03T12:34:00.644Z</time>
      </trkpt>
      <trkpt lat="41.20547" lon="19.53354">
        <ele>54.028963</ele>
        <time>2022-05-03T12:34:02.640Z</time>
      </trkpt>
      <trkpt lat="41.20547" lon="19.53342">
        <ele>54.109738</ele>
        <time>2022-05-03T12:34:04.656Z</time>
      </trkpt>
      <trkpt lat="41.20549" lon="19.53329">
        <ele>54.196965</ele>
        <time>2022-05-03T12:34:06.734Z</time>
      </trkpt>
      <trkpt lat="41.20554" lon="19.53319">
        <ele>54.277818</ele>
        <time>2022-05-03T12:34:08.618Z</time>
      </trkpt>
      <trkpt lat="41.20563" lon="19.53314">
        <ele>54.32018</ele>
        <time>2022-05-03T12:34:10.626Z</time>
      </trkpt>
      <trkpt lat="41.20575" lon="19.53312">
        <ele>53.993197</ele>
        <time>2022-05-03T12:34:12.633Z</time>
      </trkpt>
      <trkpt lat="41.20586" lon="19.53318">
        <ele>53.6642</ele>
        <time>2022-05-03T12:34:14.648Z</time>
      </trkpt>
      <trkpt lat="41.20593" lon="19.53327">
        <ele>53.363481</ele>
        <time>2022-05-03T12:34:16.643Z</time>
      </trkpt>
      <trkpt lat="41.20598" lon="19.5334">
        <ele>53.068638</ele>
        <time>2022-05-03T12:34:18.635Z</time>
      </trkpt>
      <trkpt lat="41.206" lon="19.53353">
        <ele>52.773447</ele>
        <time>2022-05-03T12:34:20.630Z</time>
      </trkpt>
      <trkpt lat="41.20602" lon="19.53367">
        <ele>52.483632</ele>
        <time>2022-05-03T12:34:22.631Z</time>
      </trkpt>
      <trkpt lat="41.20606" lon="19.53381">
        <ele>52.163803</ele>
        <time>2022-05-03T12:34:24.630Z</time>
      </trkpt>
      <trkpt lat="41.2061" lon="19.53396">
        <ele>51.826411</ele>
        <time>2022-05-03T12:34:26.672Z</time>
      </trkpt>
      <trkpt lat="41.20617" lon="19.53409">
        <ele>51.49372</ele>
        <time>2022-05-03T12:34:28.633Z</time>
      </trkpt>
      <trkpt lat="41.20625" lon="19.53418">
        <ele>51.186545</ele>
        <time>2022-05-03T12:34:30.635Z</time>
      </trkpt>
      <trkpt lat="41.20637" lon="19.53422">
        <ele>50.837972</ele>
        <time>2022-05-03T12:34:32.673Z</time>
      </trkpt>
      <trkpt lat="41.20648" lon="19.53422">
        <ele>50.514799</ele>
        <time>2022-05-03T12:34:34.627Z</time>
      </trkpt>
      <trkpt lat="41.20659" lon="19.53422">
        <ele>50.216677</ele>
        <time>2022-05-03T12:34:36.640Z</time>
      </trkpt>
      <trkpt lat="41.20669" lon="19.5342">
        <ele>49.928095</ele>
        <time>2022-05-03T12:34:38.675Z</time>
      </trkpt>
      <trkpt lat="41.20679" lon="19.53418">
        <ele>49.651588</ele>
        <time>2022-05-03T12:34:40.649Z</time>
      </trkpt>
      <trkpt lat="41.20688" lon="19.53415">
        <ele>49.37151</ele>
        <time>2022-05-03T12:34:42.637Z</time>
      </trkpt>
      <trkpt lat="41.20698" lon="19.53412">
        <ele>49.189986</ele>
        <time>2022-05-03T12:34:44.628Z</time>
      </trkpt>
      <trkpt lat="41.20709" lon="19.53409">
        <ele>49.076206</ele>
        <time>2022-05-03T12:34:46.628Z</time>
      </trkpt>
      <trkpt lat="41.20719" lon="19.53406">
        <ele>48.962425</ele>
        <time>2022-05-03T12:34:48.636Z</time>
      </trkpt>
      <trkpt lat="41.2073" lon="19.53404">
        <ele>48.84793</ele>
        <time>2022-05-03T12:34:50.637Z</time>
      </trkpt>
      <trkpt lat="41.2074" lon="19.53401">
        <ele>48.734921</ele>
        <time>2022-05-03T12:34:52.651Z</time>
      </trkpt>
      <trkpt lat="41.20751" lon="19.53399">
        <ele>48.626492</ele>
        <time>2022-05-03T12:34:54.636Z</time>
      </trkpt>
      <trkpt lat="41.20761" lon="19.53397">
        <ele>48.514925</ele>
        <time>2022-05-03T12:34:56.636Z</time>
      </trkpt>
      <trkpt lat="41.20771" lon="19.53394">
        <ele>48.40727</ele>
        <time>2022-05-03T12:34:58.651Z</time>
      </trkpt>
      <trkpt lat="41.20781" lon="19.53392">
        <ele>48.300797</ele>
        <time>2022-05-03T12:35:00.646Z</time>
      </trkpt>
      <trkpt lat="41.20791" lon="19.5339">
        <ele>48.190012</ele>
        <time>2022-05-03T12:35:02.628Z</time>
      </trkpt>
      <trkpt lat="41.20801" lon="19.53387">
        <ele>48.084294</ele>
        <time>2022-05-03T12:35:04.637Z</time>
      </trkpt>
      <trkpt lat="41.20811" lon="19.53385">
        <ele>47.977535</ele>
        <time>2022-05-03T12:35:06.700Z</time>
      </trkpt>
      <trkpt lat="41.2082" lon="19.53382">
        <ele>47.87493</ele>
        <time>2022-05-03T12:35:08.646Z</time>
      </trkpt>
      <trkpt lat="41.20829" lon="19.53378">
        <ele>47.775407</ele>
        <time>2022-05-03T12:35:10.627Z</time>
      </trkpt>
      <trkpt lat="41.20839" lon="19.53375">
        <ele>47.666248</ele>
        <time>2022-05-03T12:35:12.632Z</time>
      </trkpt>
      <trkpt lat="41.20849" lon="19.53372">
        <ele>47.559525</ele>
        <time>2022-05-03T12:35:14.639Z</time>
      </trkpt>
      <trkpt lat="41.20859" lon="19.53369">
        <ele>47.453644</ele>
        <time>2022-05-03T12:35:16.638Z</time>
      </trkpt>
      <trkpt lat="41.20869" lon="19.53366">
        <ele>47.350211</ele>
        <time>2022-05-03T12:35:18.625Z</time>
      </trkpt>
      <trkpt lat="41.20879" lon="19.53363">
        <ele>47.345032</ele>
        <time>2022-05-03T12:35:20.655Z</time>
      </trkpt>
      <trkpt lat="41.20888" lon="19.53359">
        <ele>47.33984</ele>
        <time>2022-05-03T12:35:22.633Z</time>
      </trkpt>
      <trkpt lat="41.20898" lon="19.53355">
        <ele>47.334582</ele>
        <time>2022-05-03T12:35:24.646Z</time>
      </trkpt>
      <trkpt lat="41.20908" lon="19.53351">
        <ele>47.32954</ele>
        <time>2022-05-03T12:35:26.634Z</time>
      </trkpt>
      <trkpt lat="41.20918" lon="19.53347">
        <ele>47.324373</ele>
        <time>2022-05-03T12:35:28.626Z</time>
      </trkpt>
      <trkpt lat="41.20927" lon="19.53343">
        <ele>47.31923</ele>
        <time>2022-05-03T12:35:30.634Z</time>
      </trkpt>
      <trkpt lat="41.20937" lon="19.53339">
        <ele>47.314183</ele>
        <time>2022-05-03T12:35:32.632Z</time>
      </trkpt>
      <trkpt lat="41.20947" lon="19.53334">
        <ele>47.308944</ele>
        <time>2022-05-03T12:35:34.639Z</time>
      </trkpt>
      <trkpt lat="41.20956" lon="19.5333">
        <ele>47.303788</ele>
        <time>2022-05-03T12:35:36.638Z</time>
      </trkpt>
      <trkpt lat="41.20966" lon="19.53326">
        <ele>47.298521</ele>
        <time>2022-05-03T12:35:38.623Z</time>
      </trkpt>
      <trkpt lat="41.20977" lon="19.53322">
        <ele>47.293123</ele>
        <time>2022-05-03T12:35:40.653Z</time>
      </trkpt>
      <trkpt lat="41.20987" lon="19.53318">
        <ele>47.287618</ele>
        <time>2022-05-03T12:35:42.655Z</time>
      </trkpt>
      <trkpt lat="41.20997" lon="19.53314">
        <ele>47.282232</ele>
        <time>2022-05-03T12:35:44.626Z</time>
      </trkpt>
      <trkpt lat="41.21007" lon="19.5331">
        <ele>47.276872</ele>
        <time>2022-05-03T12:35:46.620Z</time>
      </trkpt>
      <trkpt lat="41.21018" lon="19.53305">
        <ele>47.271356</ele>
        <time>2022-05-03T12:35:48.636Z</time>
      </trkpt>
      <trkpt lat="41.21028" lon="19.53301">
        <ele>47.265876</ele>
        <time>2022-05-03T12:35:50.632Z</time>
      </trkpt>
      <trkpt lat="41.21038" lon="19.53297">
        <ele>47.260479</ele>
        <time>2022-05-03T12:35:52.646Z</time>
      </trkpt>
      <trkpt lat="41.21049" lon="19.53292">
        <ele>47.206895</ele>
        <time>2022-05-03T12:35:54.636Z</time>
      </trkpt>
      <trkpt lat="41.21059" lon="19.53288">
        <ele>47.14327</ele>
        <time>2022-05-03T12:35:56.648Z</time>
      </trkpt>
      <trkpt lat="41.21069" lon="19.53284">
        <ele>47.079787</ele>
        <time>2022-05-03T12:35:58.648Z</time>
      </trkpt>
      <trkpt lat="41.21079" lon="19.53279">
        <ele>47.014598</ele>
        <time>2022-05-03T12:36:00.636Z</time>
      </trkpt>
      <trkpt lat="41.21089" lon="19.53275">
        <ele>46.950684</ele>
        <time>2022-05-03T12:36:02.635Z</time>
      </trkpt>
      <trkpt lat="41.211" lon="19.53271">
        <ele>46.886141</ele>
        <time>2022-05-03T12:36:04.634Z</time>
      </trkpt>
      <trkpt lat="41.2111" lon="19.53267">
        <ele>46.824776</ele>
        <time>2022-05-03T12:36:06.639Z</time>
      </trkpt>
      <trkpt lat="41.2112" lon="19.53263">
        <ele>46.761567</ele>
        <time>2022-05-03T12:36:08.681Z</time>
      </trkpt>
      <trkpt lat="41.2113" lon="19.53259">
        <ele>46.697346</ele>
        <time>2022-05-03T12:36:10.627Z</time>
      </trkpt>
      <trkpt lat="41.2114" lon="19.53254">
        <ele>46.634137</ele>
        <time>2022-05-03T12:36:12.652Z</time>
      </trkpt>
      <trkpt lat="41.2115" lon="19.5325">
        <ele>46.570357</ele>
        <time>2022-05-03T12:36:14.640Z</time>
      </trkpt>
      <trkpt lat="41.21161" lon="19.53246">
        <ele>46.505738</ele>
        <time>2022-05-03T12:36:16.654Z</time>
      </trkpt>
      <trkpt lat="41.21171" lon="19.53241">
        <ele>46.440549</ele>
        <time>2022-05-03T12:36:18.634Z</time>
      </trkpt>
      <trkpt lat="41.21181" lon="19.53237">
        <ele>46.377204</ele>
        <time>2022-05-03T12:36:20.636Z</time>
      </trkpt>
      <trkpt lat="41.21191" lon="19.53233">
        <ele>46.31272</ele>
        <time>2022-05-03T12:36:22.627Z</time>
      </trkpt>
      <trkpt lat="41.21201" lon="19.53228">
        <ele>46.249662</ele>
        <time>2022-05-03T12:36:24.639Z</time>
      </trkpt>
      <trkpt lat="41.21211" lon="19.53224">
        <ele>46.189863</ele>
        <time>2022-05-03T12:36:26.628Z</time>
      </trkpt>
      <trkpt lat="41.21221" lon="19.5322">
        <ele>46.301727</ele>
        <time>2022-05-03T12:36:28.639Z</time>
      </trkpt>
      <trkpt lat="41.2123" lon="19.53216">
        <ele>46.42543</ele>
        <time>2022-05-03T12:36:30.681Z</time>
      </trkpt>
      <trkpt lat="41.2124" lon="19.53213">
        <ele>46.550598</ele>
        <time>2022-05-03T12:36:32.630Z</time>
      </trkpt>
      <trkpt lat="41.21249" lon="19.53209">
        <ele>46.672583</ele>
        <time>2022-05-03T12:36:34.650Z</time>
      </trkpt>
      <trkpt lat="41.21259" lon="19.53205">
        <ele>46.799775</ele>
        <time>2022-05-03T12:36:36.655Z</time>
      </trkpt>
      <trkpt lat="41.21269" lon="19.53201">
        <ele>46.927255</ele>
        <time>2022-05-03T12:36:38.636Z</time>
      </trkpt>
      <trkpt lat="41.21278" lon="19.53197">
        <ele>47.055924</ele>
        <time>2022-05-03T12:36:40.633Z</time>
      </trkpt>
      <trkpt lat="41.21288" lon="19.53193">
        <ele>47.182835</ele>
        <time>2022-05-03T12:36:42.632Z</time>
      </trkpt>
      <trkpt lat="41.21298" lon="19.53189">
        <ele>47.310667</ele>
        <time>2022-05-03T12:36:44.642Z</time>
      </trkpt>
      <trkpt lat="41.21308" lon="19.53185">
        <ele>47.442094</ele>
        <time>2022-05-03T12:36:46.670Z</time>
      </trkpt>
      <trkpt lat="41.21318" lon="19.53181">
        <ele>47.57259</ele>
        <time>2022-05-03T12:36:48.643Z</time>
      </trkpt>
      <trkpt lat="41.21328" lon="19.53177">
        <ele>47.699501</ele>
        <time>2022-05-03T12:36:50.698Z</time>
      </trkpt>
      <trkpt lat="41.21337" lon="19.53172">
        <ele>47.823725</ele>
        <time>2022-05-03T12:36:52.627Z</time>
      </trkpt>
      <trkpt lat="41.21347" lon="19.53168">
        <ele>47.949727</ele>
        <time>2022-05-03T12:36:54.679Z</time>
      </trkpt>
      <trkpt lat="41.21356" lon="19.53164">
        <ele>48.074833</ele>
        <time>2022-05-03T12:36:56.644Z</time>
      </trkpt>
      <trkpt lat="41.21365" lon="19.5316">
        <ele>48.188819</ele>
        <time>2022-05-03T12:36:58.636Z</time>
      </trkpt>
      <trkpt lat="41.21375" lon="19.53154">
        <ele>48.327177</ele>
        <time>2022-05-03T12:37:01.639Z</time>
      </trkpt>
      <trkpt lat="41.21379" lon="19.53143">
        <ele>48.430817</ele>
        <time>2022-05-03T12:37:04.682Z</time>
      </trkpt>
      <trkpt lat="41.21375" lon="19.53127">
        <ele>48.403562</ele>
        <time>2022-05-03T12:37:07.646Z</time>
      </trkpt>
      <trkpt lat="41.21371" lon="19.53111">
        <ele>48.377675</ele>
        <time>2022-05-03T12:37:10.641Z</time>
      </trkpt>
      <trkpt lat="41.21375" lon="19.53097">
        <ele>48.3549</ele>
        <time>2022-05-03T12:37:13.639Z</time>
      </trkpt>
      <trkpt lat="41.21386" lon="19.53089">
        <ele>48.329816</ele>
        <time>2022-05-03T12:37:16.634Z</time>
      </trkpt>
      <trkpt lat="41.21395" lon="19.5308">
        <ele>48.306559</ele>
        <time>2022-05-03T12:37:20.638Z</time>
      </trkpt>
      <trkpt lat="41.21405" lon="19.53071">
        <ele>48.282189</ele>
        <time>2022-05-03T12:37:24.633Z</time>
      </trkpt>
      <trkpt lat="41.21414" lon="19.53064">
        <ele>48.2607</ele>
        <time>2022-05-03T12:37:27.629Z</time>
      </trkpt>
      <trkpt lat="41.21424" lon="19.53055">
        <ele>48.235818</ele>
        <time>2022-05-03T12:37:30.662Z</time>
      </trkpt>
      <trkpt lat="41.21431" lon="19.53049">
        <ele>48.217093</ele>
        <time>2022-05-03T12:37:32.640Z</time>
      </trkpt>
      <trkpt lat="41.21439" lon="19.53042">
        <ele>48.198276</ele>
        <time>2022-05-03T12:37:34.667Z</time>
      </trkpt>
      <trkpt lat="41.21447" lon="19.53035">
        <ele>48.178867</ele>
        <time>2022-05-03T12:37:36.632Z</time>
      </trkpt>
      <trkpt lat="41.21455" lon="19.53028">
        <ele>48.158576</ele>
        <time>2022-05-03T12:37:38.619Z</time>
      </trkpt>
      <trkpt lat="41.21464" lon="19.53021">
        <ele>48.137904</ele>
        <time>2022-05-03T12:37:40.651Z</time>
      </trkpt>
      <trkpt lat="41.21473" lon="19.53015">
        <ele>48.117454</ele>
        <time>2022-05-03T12:37:42.642Z</time>
      </trkpt>
      <trkpt lat="41.21481" lon="19.53008">
        <ele>48.098458</ele>
        <time>2022-05-03T12:37:44.624Z</time>
      </trkpt>
      <trkpt lat="41.21491" lon="19.53">
        <ele>48.07251</ele>
        <time>2022-05-03T12:37:47.642Z</time>
      </trkpt>
      <trkpt lat="41.21501" lon="19.52991">
        <ele>48.054657</ele>
        <time>2022-05-03T12:37:51.626Z</time>
      </trkpt>
      <trkpt lat="41.2151" lon="19.52983">
        <ele>48.040994</ele>
        <time>2022-05-03T12:37:54.640Z</time>
      </trkpt>
      <trkpt lat="41.21521" lon="19.52975">
        <ele>48.025661</ele>
        <time>2022-05-03T12:37:57.639Z</time>
      </trkpt>
      <trkpt lat="41.21533" lon="19.52965">
        <ele>48.008923</ele>
        <time>2022-05-03T12:38:00.640Z</time>
      </trkpt>
      <trkpt lat="41.2154" lon="19.52959">
        <ele>47.997438</ele>
        <time>2022-05-03T12:38:02.628Z</time>
      </trkpt>
      <trkpt lat="41.21548" lon="19.52952">
        <ele>47.986005</ele>
        <time>2022-05-03T12:38:04.638Z</time>
      </trkpt>
      <trkpt lat="41.21556" lon="19.52945">
        <ele>47.974725</ele>
        <time>2022-05-03T12:38:06.639Z</time>
      </trkpt>
      <trkpt lat="41.21564" lon="19.52938">
        <ele>47.963027</ele>
        <time>2022-05-03T12:38:08.620Z</time>
      </trkpt>
      <trkpt lat="41.21572" lon="19.52931">
        <ele>47.951336</ele>
        <time>2022-05-03T12:38:10.638Z</time>
      </trkpt>
      <trkpt lat="41.2158" lon="19.52925">
        <ele>47.94004</ele>
        <time>2022-05-03T12:38:12.648Z</time>
      </trkpt>
      <trkpt lat="41.21591" lon="19.52916">
        <ele>47.923835</ele>
        <time>2022-05-03T12:38:15.636Z</time>
      </trkpt>
      <trkpt lat="41.21599" lon="19.52909">
        <ele>47.912604</ele>
        <time>2022-05-03T12:38:17.631Z</time>
      </trkpt>
      <trkpt lat="41.21606" lon="19.52903">
        <ele>47.901508</ele>
        <time>2022-05-03T12:38:19.630Z</time>
      </trkpt>
      <trkpt lat="41.21618" lon="19.52894">
        <ele>47.884911</ele>
        <time>2022-05-03T12:38:22.627Z</time>
      </trkpt>
      <trkpt lat="41.21628" lon="19.52887">
        <ele>47.870315</ele>
        <time>2022-05-03T12:38:25.615Z</time>
      </trkpt>
      <trkpt lat="41.21637" lon="19.5288">
        <ele>47.857955</ele>
        <time>2022-05-03T12:38:28.639Z</time>
      </trkpt>
      <trkpt lat="41.21646" lon="19.52873">
        <ele>47.84501</ele>
        <time>2022-05-03T12:38:31.670Z</time>
      </trkpt>
      <trkpt lat="41.21656" lon="19.52864">
        <ele>47.911059</ele>
        <time>2022-05-03T12:38:34.634Z</time>
      </trkpt>
      <trkpt lat="41.21667" lon="19.52855">
        <ele>48.01237</ele>
        <time>2022-05-03T12:38:37.680Z</time>
      </trkpt>
      <trkpt lat="41.21678" lon="19.52845">
        <ele>48.114284</ele>
        <time>2022-05-03T12:38:40.620Z</time>
      </trkpt>
      <trkpt lat="41.21689" lon="19.52835">
        <ele>48.219103</ele>
        <time>2022-05-03T12:38:43.631Z</time>
      </trkpt>
      <trkpt lat="41.21701" lon="19.52827">
        <ele>48.324007</ele>
        <time>2022-05-03T12:38:46.638Z</time>
      </trkpt>
      <trkpt lat="41.21709" lon="19.5282">
        <ele>48.394966</ele>
        <time>2022-05-03T12:38:48.647Z</time>
      </trkpt>
      <trkpt lat="41.21716" lon="19.52814">
        <ele>48.4653</ele>
        <time>2022-05-03T12:38:50.635Z</time>
      </trkpt>
      <trkpt lat="41.21724" lon="19.52807">
        <ele>48.536951</ele>
        <time>2022-05-03T12:38:52.627Z</time>
      </trkpt>
      <trkpt lat="41.21735" lon="19.52798">
        <ele>48.635984</ele>
        <time>2022-05-03T12:38:55.625Z</time>
      </trkpt>
      <trkpt lat="41.21746" lon="19.5279">
        <ele>48.736098</ele>
        <time>2022-05-03T12:38:58.630Z</time>
      </trkpt>
      <trkpt lat="41.21754" lon="19.52783">
        <ele>48.810607</ele>
        <time>2022-05-03T12:39:00.641Z</time>
      </trkpt>
      <trkpt lat="41.21762" lon="19.52777">
        <ele>48.881598</ele>
        <time>2022-05-03T12:39:02.636Z</time>
      </trkpt>
      <trkpt lat="41.2177" lon="19.52771">
        <ele>48.951625</ele>
        <time>2022-05-03T12:39:04.630Z</time>
      </trkpt>
      <trkpt lat="41.21779" lon="19.52763">
        <ele>49.030967</ele>
        <time>2022-05-03T12:39:07.642Z</time>
      </trkpt>
      <trkpt lat="41.21787" lon="19.52756">
        <ele>49.105466</ele>
        <time>2022-05-03T12:39:10.679Z</time>
      </trkpt>
      <trkpt lat="41.21795" lon="19.52748">
        <ele>49.18676</ele>
        <time>2022-05-03T12:39:13.638Z</time>
      </trkpt>
      <trkpt lat="41.21805" lon="19.52739">
        <ele>49.223922</ele>
        <time>2022-05-03T12:39:16.675Z</time>
      </trkpt>
      <trkpt lat="41.21813" lon="19.52733">
        <ele>49.204406</ele>
        <time>2022-05-03T12:39:18.635Z</time>
      </trkpt>
      <trkpt lat="41.21821" lon="19.52726">
        <ele>49.185678</ele>
        <time>2022-05-03T12:39:20.634Z</time>
      </trkpt>
      <trkpt lat="41.21828" lon="19.5272">
        <ele>49.167199</ele>
        <time>2022-05-03T12:39:22.622Z</time>
      </trkpt>
      <trkpt lat="41.21837" lon="19.52714">
        <ele>49.148058</ele>
        <time>2022-05-03T12:39:24.631Z</time>
      </trkpt>
      <trkpt lat="41.21845" lon="19.52707">
        <ele>49.128731</ele>
        <time>2022-05-03T12:39:26.631Z</time>
      </trkpt>
      <trkpt lat="41.21853" lon="19.527">
        <ele>49.109483</ele>
        <time>2022-05-03T12:39:28.647Z</time>
      </trkpt>
      <trkpt lat="41.21861" lon="19.52694">
        <ele>49.090156</ele>
        <time>2022-05-03T12:39:30.632Z</time>
      </trkpt>
      <trkpt lat="41.21869" lon="19.52687">
        <ele>49.071413</ele>
        <time>2022-05-03T12:39:32.608Z</time>
      </trkpt>
      <trkpt lat="41.21877" lon="19.5268">
        <ele>49.052429</ele>
        <time>2022-05-03T12:39:34.633Z</time>
      </trkpt>
      <trkpt lat="41.21884" lon="19.52673">
        <ele>49.03385</ele>
        <time>2022-05-03T12:39:36.635Z</time>
      </trkpt>
      <trkpt lat="41.21896" lon="19.52663">
        <ele>49.006433</ele>
        <time>2022-05-03T12:39:39.672Z</time>
      </trkpt>
      <trkpt lat="41.21904" lon="19.52657">
        <ele>48.986756</ele>
        <time>2022-05-03T12:39:41.638Z</time>
      </trkpt>
      <trkpt lat="41.21915" lon="19.52648">
        <ele>48.960242</ele>
        <time>2022-05-03T12:39:44.627Z</time>
      </trkpt>
      <trkpt lat="41.21925" lon="19.5264">
        <ele>48.936424</ele>
        <time>2022-05-03T12:39:47.637Z</time>
      </trkpt>
      <trkpt lat="41.21936" lon="19.52631">
        <ele>48.909933</ele>
        <time>2022-05-03T12:39:50.621Z</time>
      </trkpt>
      <trkpt lat="41.21947" lon="19.52621">
        <ele>48.883434</ele>
        <time>2022-05-03T12:39:53.628Z</time>
      </trkpt>
      <trkpt lat="41.21955" lon="19.52614">
        <ele>48.840456</ele>
        <time>2022-05-03T12:39:55.630Z</time>
      </trkpt>
      <trkpt lat="41.21963" lon="19.52608">
        <ele>48.743251</ele>
        <time>2022-05-03T12:39:57.670Z</time>
      </trkpt>
      <trkpt lat="41.21971" lon="19.52601">
        <ele>48.643136</ele>
        <time>2022-05-03T12:39:59.652Z</time>
      </trkpt>
      <trkpt lat="41.21979" lon="19.52594">
        <ele>48.539023</ele>
        <time>2022-05-03T12:40:01.630Z</time>
      </trkpt>
      <trkpt lat="41.21987" lon="19.52587">
        <ele>48.432684</ele>
        <time>2022-05-03T12:40:03.623Z</time>
      </trkpt>
      <trkpt lat="41.21995" lon="19.5258">
        <ele>48.333476</ele>
        <time>2022-05-03T12:40:05.630Z</time>
      </trkpt>
      <trkpt lat="41.22002" lon="19.52573">
        <ele>48.234714</ele>
        <time>2022-05-03T12:40:07.623Z</time>
      </trkpt>
      <trkpt lat="41.2201" lon="19.52566">
        <ele>48.132791</ele>
        <time>2022-05-03T12:40:09.635Z</time>
      </trkpt>
      <trkpt lat="41.22018" lon="19.52559">
        <ele>48.029125</ele>
        <time>2022-05-03T12:40:11.628Z</time>
      </trkpt>
      <trkpt lat="41.22027" lon="19.52553">
        <ele>47.927625</ele>
        <time>2022-05-03T12:40:13.637Z</time>
      </trkpt>
      <trkpt lat="41.22035" lon="19.52547">
        <ele>47.821963</ele>
        <time>2022-05-03T12:40:16.635Z</time>
      </trkpt>
      <trkpt lat="41.22043" lon="19.5254">
        <ele>47.720464</ele>
        <time>2022-05-03T12:40:19.632Z</time>
      </trkpt>
      <trkpt lat="41.22052" lon="19.52532">
        <ele>47.602979</ele>
        <time>2022-05-03T12:40:22.636Z</time>
      </trkpt>
      <trkpt lat="41.22063" lon="19.52522">
        <ele>47.466321</ele>
        <time>2022-05-03T12:40:25.687Z</time>
      </trkpt>
      <trkpt lat="41.22074" lon="19.52512">
        <ele>47.324402</ele>
        <time>2022-05-03T12:40:28.658Z</time>
      </trkpt>
      <trkpt lat="41.22082" lon="19.52505">
        <ele>47.224742</ele>
        <time>2022-05-03T12:40:30.633Z</time>
      </trkpt>
      <trkpt lat="41.22089" lon="19.52498">
        <ele>47.12598</ele>
        <time>2022-05-03T12:40:32.622Z</time>
      </trkpt>
      <trkpt lat="41.22097" lon="19.52491">
        <ele>47.027613</ele>
        <time>2022-05-03T12:40:34.650Z</time>
      </trkpt>
      <trkpt lat="41.22104" lon="19.52484">
        <ele>46.955968</ele>
        <time>2022-05-03T12:40:36.635Z</time>
      </trkpt>
      <trkpt lat="41.22115" lon="19.52474">
        <ele>47.008817</ele>
        <time>2022-05-03T12:40:39.626Z</time>
      </trkpt>
      <trkpt lat="41.22123" lon="19.52467">
        <ele>47.044583</ele>
        <time>2022-05-03T12:40:41.621Z</time>
      </trkpt>
      <trkpt lat="41.22131" lon="19.52462">
        <ele>47.08016</ele>
        <time>2022-05-03T12:40:43.627Z</time>
      </trkpt>
      <trkpt lat="41.22144" lon="19.52455">
        <ele>47.131584</ele>
        <time>2022-05-03T12:40:46.645Z</time>
      </trkpt>
      <trkpt lat="41.22156" lon="19.52448">
        <ele>47.183832</ele>
        <time>2022-05-03T12:40:49.634Z</time>
      </trkpt>
      <trkpt lat="41.22168" lon="19.52441">
        <ele>47.235113</ele>
        <time>2022-05-03T12:40:52.634Z</time>
      </trkpt>
      <trkpt lat="41.22179" lon="19.52434">
        <ele>47.282374</ele>
        <time>2022-05-03T12:40:55.627Z</time>
      </trkpt>
      <trkpt lat="41.22188" lon="19.52428">
        <ele>47.322959</ele>
        <time>2022-05-03T12:40:58.627Z</time>
      </trkpt>
      <trkpt lat="41.22199" lon="19.52422">
        <ele>47.370721</ele>
        <time>2022-05-03T12:41:01.625Z</time>
      </trkpt>
      <trkpt lat="41.22211" lon="19.52415">
        <ele>47.421062</ele>
        <time>2022-05-03T12:41:04.636Z</time>
      </trkpt>
      <trkpt lat="41.2222" lon="19.5241">
        <ele>47.457139</ele>
        <time>2022-05-03T12:41:06.627Z</time>
      </trkpt>
      <trkpt lat="41.22228" lon="19.52405">
        <ele>47.493222</ele>
        <time>2022-05-03T12:41:08.642Z</time>
      </trkpt>
      <trkpt lat="41.2224" lon="19.52399">
        <ele>47.544397</ele>
        <time>2022-05-03T12:41:11.633Z</time>
      </trkpt>
      <trkpt lat="41.22252" lon="19.52391">
        <ele>47.596511</ele>
        <time>2022-05-03T12:41:14.628Z</time>
      </trkpt>
      <trkpt lat="41.22265" lon="19.52385">
        <ele>47.648131</ele>
        <time>2022-05-03T12:41:17.625Z</time>
      </trkpt>
      <trkpt lat="41.22273" lon="19.5238">
        <ele>47.557365</ele>
        <time>2022-05-03T12:41:19.634Z</time>
      </trkpt>
      <trkpt lat="41.22281" lon="19.52374">
        <ele>47.45139</ele>
        <time>2022-05-03T12:41:21.635Z</time>
      </trkpt>
      <trkpt lat="41.22293" lon="19.52366">
        <ele>47.301162</ele>
        <time>2022-05-03T12:41:24.644Z</time>
      </trkpt>
      <trkpt lat="41.22302" lon="19.52361">
        <ele>47.196438</ele>
        <time>2022-05-03T12:41:26.635Z</time>
      </trkpt>
      <trkpt lat="41.2231" lon="19.52356">
        <ele>47.094122</ele>
        <time>2022-05-03T12:41:28.616Z</time>
      </trkpt>
      <trkpt lat="41.22318" lon="19.52351">
        <ele>46.991442</ele>
        <time>2022-05-03T12:41:30.637Z</time>
      </trkpt>
      <trkpt lat="41.22327" lon="19.52345">
        <ele>46.878772</ele>
        <time>2022-05-03T12:41:32.646Z</time>
      </trkpt>
      <trkpt lat="41.22336" lon="19.5234">
        <ele>46.770256</ele>
        <time>2022-05-03T12:41:34.632Z</time>
      </trkpt>
      <trkpt lat="41.22345" lon="19.52335">
        <ele>46.659683</ele>
        <time>2022-05-03T12:41:36.626Z</time>
      </trkpt>
      <trkpt lat="41.22354" lon="19.52329">
        <ele>46.548775</ele>
        <time>2022-05-03T12:41:38.686Z</time>
      </trkpt>
      <trkpt lat="41.22362" lon="19.52323">
        <ele>46.438394</ele>
        <time>2022-05-03T12:41:40.638Z</time>
      </trkpt>
      <trkpt lat="41.22371" lon="19.52317">
        <ele>46.328229</ele>
        <time>2022-05-03T12:41:42.652Z</time>
      </trkpt>
      <trkpt lat="41.22379" lon="19.52311">
        <ele>46.221043</ele>
        <time>2022-05-03T12:41:44.640Z</time>
      </trkpt>
      <trkpt lat="41.22387" lon="19.52305">
        <ele>46.115665</ele>
        <time>2022-05-03T12:41:46.636Z</time>
      </trkpt>
      <trkpt lat="41.22398" lon="19.52298">
        <ele>45.98654</ele>
        <time>2022-05-03T12:41:49.638Z</time>
      </trkpt>
      <trkpt lat="41.22408" lon="19.52291">
        <ele>45.853813</ele>
        <time>2022-05-03T12:41:53.650Z</time>
      </trkpt>
      <trkpt lat="41.22417" lon="19.52284">
        <ele>45.733669</ele>
        <time>2022-05-03T12:41:56.639Z</time>
      </trkpt>
      <trkpt lat="41.22428" lon="19.52277">
        <ele>45.6255</ele>
        <time>2022-05-03T12:41:59.634Z</time>
      </trkpt>
      <trkpt lat="41.22439" lon="19.5227">
        <ele>45.66524</ele>
        <time>2022-05-03T12:42:02.657Z</time>
      </trkpt>
      <trkpt lat="41.2245" lon="19.52263">
        <ele>45.706507</ele>
        <time>2022-05-03T12:42:05.632Z</time>
      </trkpt>
      <trkpt lat="41.22457" lon="19.52257">
        <ele>45.737488</ele>
        <time>2022-05-03T12:42:07.640Z</time>
      </trkpt>
      <trkpt lat="41.22465" lon="19.52251">
        <ele>45.768378</ele>
        <time>2022-05-03T12:42:09.638Z</time>
      </trkpt>
      <trkpt lat="41.22477" lon="19.52242">
        <ele>45.813831</ele>
        <time>2022-05-03T12:42:12.646Z</time>
      </trkpt>
      <trkpt lat="41.22485" lon="19.52237">
        <ele>45.844802</ele>
        <time>2022-05-03T12:42:14.617Z</time>
      </trkpt>
      <trkpt lat="41.22494" lon="19.52232">
        <ele>45.876082</ele>
        <time>2022-05-03T12:42:16.639Z</time>
      </trkpt>
      <trkpt lat="41.22502" lon="19.52227">
        <ele>45.908706</ele>
        <time>2022-05-03T12:42:18.620Z</time>
      </trkpt>
      <trkpt lat="41.22511" lon="19.52222">
        <ele>45.940604</ele>
        <time>2022-05-03T12:42:20.635Z</time>
      </trkpt>
      <trkpt lat="41.22522" lon="19.52215">
        <ele>45.983722</ele>
        <time>2022-05-03T12:42:23.636Z</time>
      </trkpt>
      <trkpt lat="41.22528" lon="19.52204">
        <ele>46.01653</ele>
        <time>2022-05-03T12:42:26.625Z</time>
      </trkpt>
      <trkpt lat="41.22526" lon="19.52192">
        <ele>46.049548</ele>
        <time>2022-05-03T12:42:29.644Z</time>
      </trkpt>
      <trkpt lat="41.22522" lon="19.5218">
        <ele>46.081408</ele>
        <time>2022-05-03T12:42:32.617Z</time>
      </trkpt>
      <trkpt lat="41.22516" lon="19.52164">
        <ele>46.127412</ele>
        <time>2022-05-03T12:42:35.667Z</time>
      </trkpt>
      <trkpt lat="41.22513" lon="19.52152">
        <ele>46.160173</ele>
        <time>2022-05-03T12:42:37.693Z</time>
      </trkpt>
      <trkpt lat="41.22511" lon="19.52138">
        <ele>46.196282</ele>
        <time>2022-05-03T12:42:39.633Z</time>
      </trkpt>
      <trkpt lat="41.2251" lon="19.52123">
        <ele>46.228323</ele>
        <time>2022-05-03T12:42:41.636Z</time>
      </trkpt>
      <trkpt lat="41.2251" lon="19.52107">
        <ele>46.198863</ele>
        <time>2022-05-03T12:42:43.634Z</time>
      </trkpt>
      <trkpt lat="41.2251" lon="19.52092">
        <ele>46.170012</ele>
        <time>2022-05-03T12:42:45.619Z</time>
      </trkpt>
      <trkpt lat="41.22509" lon="19.52077">
        <ele>46.142101</ele>
        <time>2022-05-03T12:42:47.630Z</time>
      </trkpt>
      <trkpt lat="41.22509" lon="19.52063">
        <ele>46.115296</ele>
        <time>2022-05-03T12:42:49.642Z</time>
      </trkpt>
      <trkpt lat="41.22509" lon="19.52049">
        <ele>46.089248</ele>
        <time>2022-05-03T12:42:51.635Z</time>
      </trkpt>
      <trkpt lat="41.22509" lon="19.52036">
        <ele>46.06471</ele>
        <time>2022-05-03T12:42:53.631Z</time>
      </trkpt>
      <trkpt lat="41.22508" lon="19.52023">
        <ele>46.040514</ele>
        <time>2022-05-03T12:42:55.612Z</time>
      </trkpt>
      <trkpt lat="41.22507" lon="19.52006">
        <ele>46.008965</ele>
        <time>2022-05-03T12:42:58.644Z</time>
      </trkpt>
      <trkpt lat="41.2251" lon="19.5199">
        <ele>45.978486</ele>
        <time>2022-05-03T12:43:01.626Z</time>
      </trkpt>
      <trkpt lat="41.22516" lon="19.51979">
        <ele>45.952288</ele>
        <time>2022-05-03T12:43:05.643Z</time>
      </trkpt>
      <trkpt lat="41.22526" lon="19.51978">
        <ele>45.927778</ele>
        <time>2022-05-03T12:43:08.652Z</time>
      </trkpt>
      <trkpt lat="41.22534" lon="19.51972">
        <ele>45.905126</ele>
        <time>2022-05-03T12:43:11.630Z</time>
      </trkpt>
      <trkpt lat="41.22542" lon="19.51963">
        <ele>45.877791</ele>
        <time>2022-05-03T12:43:14.648Z</time>
      </trkpt>
      <trkpt lat="41.22549" lon="19.51953">
        <ele>45.853213</ele>
        <time>2022-05-03T12:43:17.637Z</time>
      </trkpt>
      <trkpt lat="41.22557" lon="19.51941">
        <ele>45.823316</ele>
        <time>2022-05-03T12:43:20.654Z</time>
      </trkpt>
      <trkpt lat="41.22563" lon="19.51931">
        <ele>45.800038</ele>
        <time>2022-05-03T12:43:22.628Z</time>
      </trkpt>
      <trkpt lat="41.22569" lon="19.51922">
        <ele>45.726695</ele>
        <time>2022-05-03T12:43:24.667Z</time>
      </trkpt>
      <trkpt lat="41.22578" lon="19.51909">
        <ele>45.417153</ele>
        <time>2022-05-03T12:43:27.641Z</time>
      </trkpt>
      <trkpt lat="41.22586" lon="19.51896">
        <ele>45.112828</ele>
        <time>2022-05-03T12:43:30.668Z</time>
      </trkpt>
      <trkpt lat="41.22596" lon="19.51883">
        <ele>44.803397</ele>
        <time>2022-05-03T12:43:33.647Z</time>
      </trkpt>
      <trkpt lat="41.22604" lon="19.5187">
        <ele>44.494076</ele>
        <time>2022-05-03T12:43:36.664Z</time>
      </trkpt>
      <trkpt lat="41.22613" lon="19.51858">
        <ele>44.194896</ele>
        <time>2022-05-03T12:43:39.638Z</time>
      </trkpt>
      <trkpt lat="41.22621" lon="19.51843">
        <ele>43.886269</ele>
        <time>2022-05-03T12:43:42.654Z</time>
      </trkpt>
      <trkpt lat="41.22629" lon="19.5183">
        <ele>43.58853</ele>
        <time>2022-05-03T12:43:45.636Z</time>
      </trkpt>
      <trkpt lat="41.22637" lon="19.51817">
        <ele>43.291126</ele>
        <time>2022-05-03T12:43:48.649Z</time>
      </trkpt>
      <trkpt lat="41.22644" lon="19.51803">
        <ele>42.990924</ele>
        <time>2022-05-03T12:43:51.625Z</time>
      </trkpt>
      <trkpt lat="41.22654" lon="19.51797">
        <ele>42.736686</ele>
        <time>2022-05-03T12:43:54.636Z</time>
      </trkpt>
      <trkpt lat="41.22666" lon="19.51803">
        <ele>42.434475</ele>
        <time>2022-05-03T12:43:57.634Z</time>
      </trkpt>
      <trkpt lat="41.22677" lon="19.5181">
        <ele>42.150048</ele>
        <time>2022-05-03T12:44:00.638Z</time>
      </trkpt>
      <trkpt lat="41.2269" lon="19.51817">
        <ele>41.836883</ele>
        <time>2022-05-03T12:44:03.643Z</time>
      </trkpt>
      <trkpt lat="41.22701" lon="19.51823">
        <ele>41.688431</ele>
        <time>2022-05-03T12:44:06.679Z</time>
      </trkpt>
      <trkpt lat="41.22713" lon="19.5183">
        <ele>42.271418</ele>
        <time>2022-05-03T12:44:09.645Z</time>
      </trkpt>
      <trkpt lat="41.22723" lon="19.51836">
        <ele>42.786293</ele>
        <time>2022-05-03T12:44:12.637Z</time>
      </trkpt>
      <trkpt lat="41.22733" lon="19.51842">
        <ele>43.31556</ele>
        <time>2022-05-03T12:44:15.637Z</time>
      </trkpt>
      <trkpt lat="41.22744" lon="19.51846">
        <ele>43.870323</ele>
        <time>2022-05-03T12:44:19.645Z</time>
      </trkpt>
      <trkpt lat="41.22755" lon="19.51852">
        <ele>44.439956</ele>
        <time>2022-05-03T12:44:22.628Z</time>
      </trkpt>
      <trkpt lat="41.22767" lon="19.51858">
        <ele>45.042129</ele>
        <time>2022-05-03T12:44:25.637Z</time>
      </trkpt>
      <trkpt lat="41.22776" lon="19.51865">
        <ele>45.517325</ele>
        <time>2022-05-03T12:44:27.636Z</time>
      </trkpt>
      <trkpt lat="41.22785" lon="19.51867">
        <ele>45.978887</ele>
        <time>2022-05-03T12:44:29.624Z</time>
      </trkpt>
      <trkpt lat="41.22796" lon="19.51869">
        <ele>46.489617</ele>
        <time>2022-05-03T12:44:31.636Z</time>
      </trkpt>
      <trkpt lat="41.22808" lon="19.51874">
        <ele>47.112058</ele>
        <time>2022-05-03T12:44:34.623Z</time>
      </trkpt>
      <trkpt lat="41.22818" lon="19.51878">
        <ele>47.585348</ele>
        <time>2022-05-03T12:44:36.644Z</time>
      </trkpt>
      <trkpt lat="41.22828" lon="19.51881">
        <ele>48.05488</ele>
        <time>2022-05-03T12:44:38.633Z</time>
      </trkpt>
      <trkpt lat="41.2284" lon="19.51887">
        <ele>48.671365</ele>
        <time>2022-05-03T12:44:41.651Z</time>
      </trkpt>
      <trkpt lat="41.22852" lon="19.51892">
        <ele>49.270411</ele>
        <time>2022-05-03T12:44:44.621Z</time>
      </trkpt>
      <trkpt lat="41.22861" lon="19.51895">
        <ele>49.698868</ele>
        <time>2022-05-03T12:44:46.632Z</time>
      </trkpt>
      <trkpt lat="41.22872" lon="19.51898">
        <ele>50.129937</ele>
        <time>2022-05-03T12:44:49.626Z</time>
      </trkpt>
      <trkpt lat="41.22881" lon="19.51906">
        <ele>50.166759</ele>
        <time>2022-05-03T12:44:52.664Z</time>
      </trkpt>
      <trkpt lat="41.2289" lon="19.51914">
        <ele>50.206714</ele>
        <time>2022-05-03T12:44:55.625Z</time>
      </trkpt>
      <trkpt lat="41.22904" lon="19.51921">
        <ele>50.257799</ele>
        <time>2022-05-03T12:44:58.631Z</time>
      </trkpt>
      <trkpt lat="41.22915" lon="19.51928">
        <ele>50.303473</ele>
        <time>2022-05-03T12:45:00.652Z</time>
      </trkpt>
      <trkpt lat="41.22925" lon="19.51935">
        <ele>50.342293</ele>
        <time>2022-05-03T12:45:02.623Z</time>
      </trkpt>
      <trkpt lat="41.22936" lon="19.5194">
        <ele>50.385606</ele>
        <time>2022-05-03T12:45:04.636Z</time>
      </trkpt>
      <trkpt lat="41.2295" lon="19.51944">
        <ele>50.434054</ele>
        <time>2022-05-03T12:45:06.660Z</time>
      </trkpt>
      <trkpt lat="41.2296" lon="19.51948">
        <ele>50.472137</ele>
        <time>2022-05-03T12:45:08.633Z</time>
      </trkpt>
      <trkpt lat="41.22972" lon="19.51953">
        <ele>50.516565</ele>
        <time>2022-05-03T12:45:11.633Z</time>
      </trkpt>
      <trkpt lat="41.22981" lon="19.51958">
        <ele>50.552292</ele>
        <time>2022-05-03T12:45:14.651Z</time>
      </trkpt>
      <trkpt lat="41.22991" lon="19.51964">
        <ele>50.589208</ele>
        <time>2022-05-03T12:45:17.646Z</time>
      </trkpt>
      <trkpt lat="41.23001" lon="19.51972">
        <ele>50.632416</ele>
        <time>2022-05-03T12:45:20.624Z</time>
      </trkpt>
      <trkpt lat="41.2301" lon="19.51977">
        <ele>50.66698</ele>
        <time>2022-05-03T12:45:22.643Z</time>
      </trkpt>
      <trkpt lat="41.23021" lon="19.51982">
        <ele>50.706412</ele>
        <time>2022-05-03T12:45:24.633Z</time>
      </trkpt>
      <trkpt lat="41.23033" lon="19.51986">
        <ele>50.750004</ele>
        <time>2022-05-03T12:45:26.625Z</time>
      </trkpt>
      <trkpt lat="41.23045" lon="19.51989">
        <ele>50.354126</ele>
        <time>2022-05-03T12:45:28.627Z</time>
      </trkpt>
      <trkpt lat="41.23056" lon="19.51988">
        <ele>49.892676</ele>
        <time>2022-05-03T12:45:30.653Z</time>
      </trkpt>
      <trkpt lat="41.23066" lon="19.51987">
        <ele>49.469351</ele>
        <time>2022-05-03T12:45:32.619Z</time>
      </trkpt>
      <trkpt lat="41.23076" lon="19.51985">
        <ele>49.061027</ele>
        <time>2022-05-03T12:45:34.637Z</time>
      </trkpt>
      <trkpt lat="41.23086" lon="19.51982">
        <ele>48.661091</ele>
        <time>2022-05-03T12:45:36.634Z</time>
      </trkpt>
      <trkpt lat="41.23095" lon="19.5198">
        <ele>48.277877</ele>
        <time>2022-05-03T12:45:38.640Z</time>
      </trkpt>
      <trkpt lat="41.23108" lon="19.51977">
        <ele>47.74103</ele>
        <time>2022-05-03T12:45:41.656Z</time>
      </trkpt>
      <trkpt lat="41.23121" lon="19.51974">
        <ele>47.220038</ele>
        <time>2022-05-03T12:45:44.640Z</time>
      </trkpt>
      <trkpt lat="41.23134" lon="19.51971">
        <ele>46.678585</ele>
        <time>2022-05-03T12:45:47.632Z</time>
      </trkpt>
      <trkpt lat="41.23146" lon="19.5197">
        <ele>46.1871</ele>
        <time>2022-05-03T12:45:50.625Z</time>
      </trkpt>
      <trkpt lat="41.23158" lon="19.51967">
        <ele>45.672598</ele>
        <time>2022-05-03T12:45:53.629Z</time>
      </trkpt>
      <trkpt lat="41.2317" lon="19.51963">
        <ele>45.181661</ele>
        <time>2022-05-03T12:45:56.634Z</time>
      </trkpt>
      <trkpt lat="41.2318" lon="19.5196">
        <ele>44.746577</ele>
        <time>2022-05-03T12:45:59.632Z</time>
      </trkpt>
      <trkpt lat="41.23189" lon="19.51955">
        <ele>44.347462</ele>
        <time>2022-05-03T12:46:03.646Z</time>
      </trkpt>
      <trkpt lat="41.2319" lon="19.51941">
        <ele>43.891619</ele>
        <time>2022-05-03T12:46:09.630Z</time>
      </trkpt>
      <trkpt lat="41.23187" lon="19.51929">
        <ele>43.519471</ele>
        <time>2022-05-03T12:46:12.650Z</time>
      </trkpt>
      <trkpt lat="41.23183" lon="19.51916">
        <ele>43.410028</ele>
        <time>2022-05-03T12:46:15.679Z</time>
      </trkpt>
      <trkpt lat="41.23179" lon="19.519">
        <ele>43.400929</ele>
        <time>2022-05-03T12:46:18.642Z</time>
      </trkpt>
      <trkpt lat="41.23176" lon="19.51885">
        <ele>43.391931</ele>
        <time>2022-05-03T12:46:21.676Z</time>
      </trkpt>
      <trkpt lat="41.23171" lon="19.51869">
        <ele>43.382497</ele>
        <time>2022-05-03T12:46:24.630Z</time>
      </trkpt>
      <trkpt lat="41.23167" lon="19.51852">
        <ele>43.372598</ele>
        <time>2022-05-03T12:46:27.646Z</time>
      </trkpt>
      <trkpt lat="41.23165" lon="19.51841">
        <ele>43.365906</ele>
        <time>2022-05-03T12:46:29.650Z</time>
      </trkpt>
      <trkpt lat="41.23161" lon="19.51824">
        <ele>43.356229</ele>
        <time>2022-05-03T12:46:32.679Z</time>
      </trkpt>
      <trkpt lat="41.23157" lon="19.51808">
        <ele>43.346555</ele>
        <time>2022-05-03T12:46:35.632Z</time>
      </trkpt>
      <trkpt lat="41.23154" lon="19.51791">
        <ele>43.336842</ele>
        <time>2022-05-03T12:46:38.635Z</time>
      </trkpt>
      <trkpt lat="41.2315" lon="19.51775">
        <ele>43.327454</ele>
        <time>2022-05-03T12:46:41.628Z</time>
      </trkpt>
      <trkpt lat="41.23146" lon="19.51759">
        <ele>43.317859</ele>
        <time>2022-05-03T12:46:44.638Z</time>
      </trkpt>
      <trkpt lat="41.23142" lon="19.51744">
        <ele>43.309159</ele>
        <time>2022-05-03T12:46:47.658Z</time>
      </trkpt>
      <trkpt lat="41.23142" lon="19.51731">
        <ele>43.301488</ele>
        <time>2022-05-03T12:46:50.645Z</time>
      </trkpt>
      <trkpt lat="41.23139" lon="19.51719">
        <ele>43.294619</ele>
        <time>2022-05-03T12:46:53.622Z</time>
      </trkpt>
      <trkpt lat="41.23131" lon="19.51709">
        <ele>43.286619</ele>
        <time>2022-05-03T12:46:57.635Z</time>
      </trkpt>
      <trkpt lat="41.23128" lon="19.51696">
        <ele>43.235871</ele>
        <time>2022-05-03T12:47:00.636Z</time>
      </trkpt>
      <trkpt lat="41.23124" lon="19.51681">
        <ele>43.126482</ele>
        <time>2022-05-03T12:47:03.619Z</time>
      </trkpt>
      <trkpt lat="41.23121" lon="19.51666">
        <ele>43.013915</ele>
        <time>2022-05-03T12:47:06.642Z</time>
      </trkpt>
      <trkpt lat="41.23118" lon="19.51652">
        <ele>42.910694</ele>
        <time>2022-05-03T12:47:09.665Z</time>
      </trkpt>
      <trkpt lat="41.23113" lon="19.51642">
        <ele>42.821084</ele>
        <time>2022-05-03T12:47:13.633Z</time>
      </trkpt>
      <trkpt lat="41.23114" lon="19.51656">
        <ele>42.715257</ele>
        <time>2022-05-03T12:47:19.640Z</time>
      </trkpt>
      <trkpt lat="41.23117" lon="19.51669">
        <ele>42.618201</ele>
        <time>2022-05-03T12:47:22.633Z</time>
      </trkpt>
      <trkpt lat="41.2312" lon="19.51683">
        <ele>42.517025</ele>
        <time>2022-05-03T12:47:25.617Z</time>
      </trkpt>
      <trkpt lat="41.23123" lon="19.51696">
        <ele>42.41437</ele>
        <time>2022-05-03T12:47:28.622Z</time>
      </trkpt>
      <trkpt lat="41.23127" lon="19.51711">
        <ele>42.299523</ele>
        <time>2022-05-03T12:47:31.637Z</time>
      </trkpt>
      <trkpt lat="41.23131" lon="19.51727">
        <ele>42.182618</ele>
        <time>2022-05-03T12:47:34.664Z</time>
      </trkpt>
      <trkpt lat="41.23135" lon="19.51743">
        <ele>42.057699</ele>
        <time>2022-05-03T12:47:37.642Z</time>
      </trkpt>
      <trkpt lat="41.23137" lon="19.51755">
        <ele>41.969074</ele>
        <time>2022-05-03T12:47:39.699Z</time>
      </trkpt>
      <trkpt lat="41.2314" lon="19.51768">
        <ele>41.87755</ele>
        <time>2022-05-03T12:47:41.629Z</time>
      </trkpt>
      <trkpt lat="41.23144" lon="19.51785">
        <ele>41.750134</ele>
        <time>2022-05-03T12:47:44.672Z</time>
      </trkpt>
      <trkpt lat="41.23147" lon="19.51796">
        <ele>41.66217</ele>
        <time>2022-05-03T12:47:46.632Z</time>
      </trkpt>
      <trkpt lat="41.2315" lon="19.51808">
        <ele>41.570137</ele>
        <time>2022-05-03T12:47:48.637Z</time>
      </trkpt>
      <trkpt lat="41.23153" lon="19.5182">
        <ele>41.538639</ele>
        <time>2022-05-03T12:47:50.650Z</time>
      </trkpt>
      <trkpt lat="41.23157" lon="19.51831">
        <ele>41.509665</ele>
        <time>2022-05-03T12:47:52.636Z</time>
      </trkpt>
      <trkpt lat="41.2316" lon="19.51843">
        <ele>41.480489</ele>
        <time>2022-05-03T12:47:54.634Z</time>
      </trkpt>
      <trkpt lat="41.23164" lon="19.51855">
        <ele>41.45186</ele>
        <time>2022-05-03T12:47:56.638Z</time>
      </trkpt>
      <trkpt lat="41.23166" lon="19.51866">
        <ele>41.423868</ele>
        <time>2022-05-03T12:47:58.634Z</time>
      </trkpt>
      <trkpt lat="41.2317" lon="19.51882">
        <ele>41.384664</ele>
        <time>2022-05-03T12:48:01.620Z</time>
      </trkpt>
      <trkpt lat="41.23173" lon="19.51899">
        <ele>41.344954</ele>
        <time>2022-05-03T12:48:04.620Z</time>
      </trkpt>
      <trkpt lat="41.23176" lon="19.51916">
        <ele>41.305017</ele>
        <time>2022-05-03T12:48:07.668Z</time>
      </trkpt>
      <trkpt lat="41.23181" lon="19.51932">
        <ele>41.263433</ele>
        <time>2022-05-03T12:48:10.632Z</time>
      </trkpt>
      <trkpt lat="41.23186" lon="19.51948">
        <ele>41.224788</ele>
        <time>2022-05-03T12:48:13.684Z</time>
      </trkpt>
      <trkpt lat="41.23193" lon="19.51961">
        <ele>41.18723</ele>
        <time>2022-05-03T12:48:16.648Z</time>
      </trkpt>
      <trkpt lat="41.23201" lon="19.51973">
        <ele>41.14996</ele>
        <time>2022-05-03T12:48:19.628Z</time>
      </trkpt>
      <trkpt lat="41.23209" lon="19.51982">
        <ele>41.114662</ele>
        <time>2022-05-03T12:48:22.627Z</time>
      </trkpt>
      <trkpt lat="41.2322" lon="19.51976">
        <ele>41.077903</ele>
        <time>2022-05-03T12:48:25.633Z</time>
      </trkpt>
      <trkpt lat="41.23226" lon="19.51961">
        <ele>41.038851</ele>
        <time>2022-05-03T12:48:28.626Z</time>
      </trkpt>
      <trkpt lat="41.23228" lon="19.51944">
        <ele>41.158454</ele>
        <time>2022-05-03T12:48:31.642Z</time>
      </trkpt>
      <trkpt lat="41.2323" lon="19.51929">
        <ele>41.693468</ele>
        <time>2022-05-03T12:48:34.640Z</time>
      </trkpt>
      <trkpt lat="41.23232" lon="19.51917">
        <ele>42.119323</ele>
        <time>2022-05-03T12:48:36.641Z</time>
      </trkpt>
      <trkpt lat="41.23234" lon="19.519">
        <ele>42.707759</ele>
        <time>2022-05-03T12:48:39.663Z</time>
      </trkpt>
      <trkpt lat="41.23236" lon="19.51884">
        <ele>43.29106</ele>
        <time>2022-05-03T12:48:42.664Z</time>
      </trkpt>
      <trkpt lat="41.23237" lon="19.5187">
        <ele>43.757714</ele>
        <time>2022-05-03T12:48:45.643Z</time>
      </trkpt>
      <trkpt lat="41.23239" lon="19.51854">
        <ele>44.319377</ele>
        <time>2022-05-03T12:48:48.650Z</time>
      </trkpt>
      <trkpt lat="41.23241" lon="19.51838">
        <ele>44.86885</ele>
        <time>2022-05-03T12:48:51.660Z</time>
      </trkpt>
      <trkpt lat="41.23243" lon="19.51823">
        <ele>45.413479</ele>
        <time>2022-05-03T12:48:54.631Z</time>
      </trkpt>
      <trkpt lat="41.23246" lon="19.51809">
        <ele>45.926716</ele>
        <time>2022-05-03T12:48:57.642Z</time>
      </trkpt>
      <trkpt lat="41.23248" lon="19.51797">
        <ele>46.343856</ele>
        <time>2022-05-03T12:48:59.717Z</time>
      </trkpt>
      <trkpt lat="41.2325" lon="19.51784">
        <ele>46.783484</ele>
        <time>2022-05-03T12:49:01.631Z</time>
      </trkpt>
      <trkpt lat="41.23252" lon="19.51768">
        <ele>47.351533</ele>
        <time>2022-05-03T12:49:04.635Z</time>
      </trkpt>
      <trkpt lat="41.23254" lon="19.51753">
        <ele>47.874977</ele>
        <time>2022-05-03T12:49:07.637Z</time>
      </trkpt>
      <trkpt lat="41.23255" lon="19.51738">
        <ele>48.403397</ele>
        <time>2022-05-03T12:49:09.663Z</time>
      </trkpt>
      <trkpt lat="41.23257" lon="19.51726">
        <ele>48.830892</ele>
        <time>2022-05-03T12:49:11.650Z</time>
      </trkpt>
      <trkpt lat="41.23259" lon="19.51712">
        <ele>49.31441</ele>
        <time>2022-05-03T12:49:13.640Z</time>
      </trkpt>
      <trkpt lat="41.23261" lon="19.51699">
        <ele>49.759969</ele>
        <time>2022-05-03T12:49:15.707Z</time>
      </trkpt>
      <trkpt lat="41.23264" lon="19.51686">
        <ele>50.221646</ele>
        <time>2022-05-03T12:49:17.658Z</time>
      </trkpt>
      <trkpt lat="41.23267" lon="19.51674">
        <ele>50.658505</ele>
        <time>2022-05-03T12:49:19.627Z</time>
      </trkpt>
      <trkpt lat="41.23271" lon="19.51661">
        <ele>51.101805</ele>
        <time>2022-05-03T12:49:21.636Z</time>
      </trkpt>
      <trkpt lat="41.23274" lon="19.51646">
        <ele>51.633776</ele>
        <time>2022-05-03T12:49:24.640Z</time>
      </trkpt>
      <trkpt lat="41.23284" lon="19.51646">
        <ele>52.09378</ele>
        <time>2022-05-03T12:49:30.640Z</time>
      </trkpt>
      <trkpt lat="41.23292" lon="19.51652">
        <ele>52.497376</ele>
        <time>2022-05-03T12:49:33.607Z</time>
      </trkpt>
      <trkpt lat="41.233" lon="19.51657">
        <ele>52.90038</ele>
        <time>2022-05-03T12:49:36.644Z</time>
      </trkpt>
      <trkpt lat="41.2331" lon="19.51661">
        <ele>53.342292</ele>
        <time>2022-05-03T12:49:39.629Z</time>
      </trkpt>
      <trkpt lat="41.23318" lon="19.51666">
        <ele>53.75044</ele>
        <time>2022-05-03T12:49:43.687Z</time>
      </trkpt>
      <trkpt lat="41.23328" lon="19.51672">
        <ele>54.239331</ele>
        <time>2022-05-03T12:49:48.633Z</time>
      </trkpt>
      <trkpt lat="41.23338" lon="19.51674">
        <ele>54.683581</ele>
        <time>2022-05-03T12:49:54.668Z</time>
      </trkpt>
      <trkpt lat="41.23348" lon="19.51677">
        <ele>55.172452</ele>
        <time>2022-05-03T12:50:00.659Z</time>
      </trkpt>
      <trkpt lat="41.23358" lon="19.51684">
        <ele>55.667883</ele>
        <time>2022-05-03T12:50:05.643Z</time>
      </trkpt>
      <trkpt lat="41.23367" lon="19.51688">
        <ele>56.099009</ele>
        <time>2022-05-03T12:50:09.699Z</time>
      </trkpt>
      <trkpt lat="41.23378" lon="19.51691">
        <ele>56.579899</ele>
        <time>2022-05-03T12:50:14.643Z</time>
      </trkpt>
      <trkpt lat="41.23386" lon="19.51698">
        <ele>56.997123</ele>
        <time>2022-05-03T12:50:18.636Z</time>
      </trkpt>
      <trkpt lat="41.23396" lon="19.51702">
        <ele>57.410981</ele>
        <time>2022-05-03T12:50:23.629Z</time>
      </trkpt>
      <trkpt lat="41.23405" lon="19.51707">
        <ele>57.681859</ele>
        <time>2022-05-03T12:50:27.633Z</time>
      </trkpt>
      <trkpt lat="41.23415" lon="19.51708">
        <ele>57.959567</ele>
        <time>2022-05-03T12:50:31.641Z</time>
      </trkpt>
      <trkpt lat="41.23425" lon="19.51706">
        <ele>58.255016</ele>
        <time>2022-05-03T12:50:35.624Z</time>
      </trkpt>
      <trkpt lat="41.23434" lon="19.51702">
        <ele>58.513604</ele>
        <time>2022-05-03T12:50:38.630Z</time>
      </trkpt>
      <trkpt lat="41.23444" lon="19.51694">
        <ele>58.85158</ele>
        <time>2022-05-03T12:50:41.632Z</time>
      </trkpt>
      <trkpt lat="41.23449" lon="19.51684">
        <ele>59.109059</ele>
        <time>2022-05-03T12:50:45.632Z</time>
      </trkpt>
      <trkpt lat="41.23453" lon="19.51672">
        <ele>59.379861</ele>
        <time>2022-05-03T12:50:49.659Z</time>
      </trkpt>
      <trkpt lat="41.23461" lon="19.51661">
        <ele>59.709195</ele>
        <time>2022-05-03T12:50:53.634Z</time>
      </trkpt>
      <trkpt lat="41.23468" lon="19.5165">
        <ele>60.020259</ele>
        <time>2022-05-03T12:50:56.633Z</time>
      </trkpt>
      <trkpt lat="41.23474" lon="19.51639">
        <ele>60.309466</ele>
        <time>2022-05-03T12:50:59.636Z</time>
      </trkpt>
      <trkpt lat="41.23479" lon="19.51628">
        <ele>60.581596</ele>
        <time>2022-05-03T12:51:04.623Z</time>
      </trkpt>
      <trkpt lat="41.23489" lon="19.51628">
        <ele>60.869546</ele>
        <time>2022-05-03T12:51:10.642Z</time>
      </trkpt>
      <trkpt lat="41.23499" lon="19.51624">
        <ele>61.159729</ele>
        <time>2022-05-03T12:51:14.667Z</time>
      </trkpt>
      <trkpt lat="41.23511" lon="19.51625">
        <ele>61.484265</ele>
        <time>2022-05-03T12:51:18.642Z</time>
      </trkpt>
      <trkpt lat="41.23521" lon="19.51631">
        <ele>61.795556</ele>
        <time>2022-05-03T12:51:21.634Z</time>
      </trkpt>
      <trkpt lat="41.23534" lon="19.51638">
        <ele>62.196277</ele>
        <time>2022-05-03T12:51:24.627Z</time>
      </trkpt>
      <trkpt lat="41.23543" lon="19.51646">
        <ele>62.32637</ele>
        <time>2022-05-03T12:51:27.635Z</time>
      </trkpt>
      <trkpt lat="41.23552" lon="19.51656">
        <ele>62.237543</ele>
        <time>2022-05-03T12:51:30.627Z</time>
      </trkpt>
      <trkpt lat="41.23561" lon="19.5166">
        <ele>62.167506</ele>
        <time>2022-05-03T12:51:32.626Z</time>
      </trkpt>
      <trkpt lat="41.23571" lon="19.51667">
        <ele>62.081051</ele>
        <time>2022-05-03T12:51:34.636Z</time>
      </trkpt>
      <trkpt lat="41.23582" lon="19.5167">
        <ele>61.996346</ele>
        <time>2022-05-03T12:51:36.639Z</time>
      </trkpt>
      <trkpt lat="41.23592" lon="19.51675">
        <ele>61.91573</ele>
        <time>2022-05-03T12:51:39.627Z</time>
      </trkpt>
      <trkpt lat="41.23602" lon="19.51682">
        <ele>61.828313</ele>
        <time>2022-05-03T12:51:42.662Z</time>
      </trkpt>
      <trkpt lat="41.23613" lon="19.51686">
        <ele>61.739599</ele>
        <time>2022-05-03T12:51:45.632Z</time>
      </trkpt>
      <trkpt lat="41.23625" lon="19.51688">
        <ele>61.6431</ele>
        <time>2022-05-03T12:51:48.673Z</time>
      </trkpt>
      <trkpt lat="41.23638" lon="19.51689">
        <ele>61.544459</ele>
        <time>2022-05-03T12:51:51.631Z</time>
      </trkpt>
      <trkpt lat="41.23649" lon="19.51695">
        <ele>61.452478</ele>
        <time>2022-05-03T12:51:54.671Z</time>
      </trkpt>
      <trkpt lat="41.23659" lon="19.517">
        <ele>61.368503</ele>
        <time>2022-05-03T12:51:57.647Z</time>
      </trkpt>
      <trkpt lat="41.23669" lon="19.51703">
        <ele>61.295402</ele>
        <time>2022-05-03T12:51:59.647Z</time>
      </trkpt>
      <trkpt lat="41.23678" lon="19.51707">
        <ele>61.220995</ele>
        <time>2022-05-03T12:52:01.626Z</time>
      </trkpt>
      <trkpt lat="41.23686" lon="19.51712">
        <ele>61.15023</ele>
        <time>2022-05-03T12:52:03.639Z</time>
      </trkpt>
      <trkpt lat="41.23696" lon="19.51714">
        <ele>61.077305</ele>
        <time>2022-05-03T12:52:05.628Z</time>
      </trkpt>
      <trkpt lat="41.23708" lon="19.51715">
        <ele>60.984525</ele>
        <time>2022-05-03T12:52:08.636Z</time>
      </trkpt>
      <trkpt lat="41.23717" lon="19.51715">
        <ele>60.744887</ele>
        <time>2022-05-03T12:52:11.616Z</time>
      </trkpt>
      <trkpt lat="41.23726" lon="19.51717">
        <ele>60.521509</ele>
        <time>2022-05-03T12:52:13.639Z</time>
      </trkpt>
      <trkpt lat="41.23736" lon="19.51721">
        <ele>60.27677</ele>
        <time>2022-05-03T12:52:15.633Z</time>
      </trkpt>
      <trkpt lat="41.23744" lon="19.51728">
        <ele>60.042221</ele>
        <time>2022-05-03T12:52:17.657Z</time>
      </trkpt>
      <trkpt lat="41.23756" lon="19.51735">
        <ele>59.716666</ele>
        <time>2022-05-03T12:52:20.625Z</time>
      </trkpt>
      <trkpt lat="41.23769" lon="19.51741">
        <ele>59.397641</ele>
        <time>2022-05-03T12:52:23.675Z</time>
      </trkpt>
      <trkpt lat="41.23781" lon="19.51746">
        <ele>59.079635</ele>
        <time>2022-05-03T12:52:26.640Z</time>
      </trkpt>
      <trkpt lat="41.23794" lon="19.51748">
        <ele>58.767637</ele>
        <time>2022-05-03T12:52:29.628Z</time>
      </trkpt>
      <trkpt lat="41.23803" lon="19.51749">
        <ele>58.53528</ele>
        <time>2022-05-03T12:52:31.617Z</time>
      </trkpt>
      <trkpt lat="41.23815" lon="19.51749">
        <ele>58.258736</ele>
        <time>2022-05-03T12:52:33.627Z</time>
      </trkpt>
      <trkpt lat="41.23825" lon="19.51751">
        <ele>57.992415</ele>
        <time>2022-05-03T12:52:35.634Z</time>
      </trkpt>
      <trkpt lat="41.23837" lon="19.51753">
        <ele>57.712703</ele>
        <time>2022-05-03T12:52:37.644Z</time>
      </trkpt>
      <trkpt lat="41.23847" lon="19.51756">
        <ele>57.445749</ele>
        <time>2022-05-03T12:52:39.635Z</time>
      </trkpt>
      <trkpt lat="41.23857" lon="19.51759">
        <ele>57.196684</ele>
        <time>2022-05-03T12:52:41.634Z</time>
      </trkpt>
      <trkpt lat="41.23866" lon="19.5176">
        <ele>56.972037</ele>
        <time>2022-05-03T12:52:43.645Z</time>
      </trkpt>
      <trkpt lat="41.23876" lon="19.51762">
        <ele>56.743019</ele>
        <time>2022-05-03T12:52:45.654Z</time>
      </trkpt>
      <trkpt lat="41.23885" lon="19.51763">
        <ele>56.580013</ele>
        <time>2022-05-03T12:52:47.639Z</time>
      </trkpt>
      <trkpt lat="41.23894" lon="19.51761">
        <ele>56.5543</ele>
        <time>2022-05-03T12:52:49.638Z</time>
      </trkpt>
      <trkpt lat="41.23907" lon="19.51761">
        <ele>56.518072</ele>
        <time>2022-05-03T12:52:52.687Z</time>
      </trkpt>
      <trkpt lat="41.23919" lon="19.51764">
        <ele>56.486089</ele>
        <time>2022-05-03T12:52:55.634Z</time>
      </trkpt>
      <trkpt lat="41.23931" lon="19.51768">
        <ele>56.450994</ele>
        <time>2022-05-03T12:52:58.668Z</time>
      </trkpt>
      <trkpt lat="41.23944" lon="19.51771">
        <ele>56.415908</ele>
        <time>2022-05-03T12:53:01.642Z</time>
      </trkpt>
      <trkpt lat="41.23953" lon="19.51771">
        <ele>56.388483</ele>
        <time>2022-05-03T12:53:03.637Z</time>
      </trkpt>
      <trkpt lat="41.23963" lon="19.51773">
        <ele>56.362671</ele>
        <time>2022-05-03T12:53:05.642Z</time>
      </trkpt>
      <trkpt lat="41.23972" lon="19.51776">
        <ele>56.337019</ele>
        <time>2022-05-03T12:53:07.635Z</time>
      </trkpt>
      <trkpt lat="41.23983" lon="19.51778">
        <ele>56.304491</ele>
        <time>2022-05-03T12:53:10.615Z</time>
      </trkpt>
      <trkpt lat="41.23995" lon="19.51781">
        <ele>56.270494</ele>
        <time>2022-05-03T12:53:13.631Z</time>
      </trkpt>
      <trkpt lat="41.24008" lon="19.51782">
        <ele>56.237012</ele>
        <time>2022-05-03T12:53:16.680Z</time>
      </trkpt>
      <trkpt lat="41.2402" lon="19.51786">
        <ele>56.201332</ele>
        <time>2022-05-03T12:53:19.639Z</time>
      </trkpt>
      <trkpt lat="41.24033" lon="19.5179">
        <ele>56.165679</ele>
        <time>2022-05-03T12:53:22.663Z</time>
      </trkpt>
      <trkpt lat="41.24045" lon="19.51795">
        <ele>56.129586</ele>
        <time>2022-05-03T12:53:25.628Z</time>
      </trkpt>
      <trkpt lat="41.24058" lon="19.518">
        <ele>56.092922</ele>
        <time>2022-05-03T12:53:28.660Z</time>
      </trkpt>
      <trkpt lat="41.24067" lon="19.51803">
        <ele>56.17268</ele>
        <time>2022-05-03T12:53:30.639Z</time>
      </trkpt>
      <trkpt lat="41.24076" lon="19.51806">
        <ele>56.255826</ele>
        <time>2022-05-03T12:53:32.642Z</time>
      </trkpt>
      <trkpt lat="41.24085" lon="19.5181">
        <ele>56.341168</ele>
        <time>2022-05-03T12:53:34.665Z</time>
      </trkpt>
      <trkpt lat="41.24095" lon="19.51812">
        <ele>56.435341</ele>
        <time>2022-05-03T12:53:36.643Z</time>
      </trkpt>
      <trkpt lat="41.24105" lon="19.51814">
        <ele>56.52699</ele>
        <time>2022-05-03T12:53:38.636Z</time>
      </trkpt>
      <trkpt lat="41.24116" lon="19.51816">
        <ele>56.631153</ele>
        <time>2022-05-03T12:53:40.623Z</time>
      </trkpt>
      <trkpt lat="41.24128" lon="19.51816">
        <ele>56.733681</ele>
        <time>2022-05-03T12:53:42.636Z</time>
      </trkpt>
      <trkpt lat="41.2414" lon="19.51819">
        <ele>56.845863</ele>
        <time>2022-05-03T12:53:45.636Z</time>
      </trkpt>
      <trkpt lat="41.24152" lon="19.51824">
        <ele>56.964853</ele>
        <time>2022-05-03T12:53:48.660Z</time>
      </trkpt>
      <trkpt lat="41.24165" lon="19.51829">
        <ele>57.08426</ele>
        <time>2022-05-03T12:53:51.628Z</time>
      </trkpt>
      <trkpt lat="41.24173" lon="19.51831">
        <ele>57.167659</ele>
        <time>2022-05-03T12:53:53.638Z</time>
      </trkpt>
      <trkpt lat="41.24184" lon="19.51833">
        <ele>57.265223</ele>
        <time>2022-05-03T12:53:56.624Z</time>
      </trkpt>
      <trkpt lat="41.24195" lon="19.51836">
        <ele>57.367852</ele>
        <time>2022-05-03T12:53:59.638Z</time>
      </trkpt>
      <trkpt lat="41.24208" lon="19.51841">
        <ele>57.490974</ele>
        <time>2022-05-03T12:54:02.645Z</time>
      </trkpt>
      <trkpt lat="41.24217" lon="19.51845">
        <ele>57.576318</ele>
        <time>2022-05-03T12:54:04.627Z</time>
      </trkpt>
      <trkpt lat="41.24226" lon="19.51848">
        <ele>57.666041</ele>
        <time>2022-05-03T12:54:06.638Z</time>
      </trkpt>
      <trkpt lat="41.24236" lon="19.51851">
        <ele>57.595475</ele>
        <time>2022-05-03T12:54:08.631Z</time>
      </trkpt>
      <trkpt lat="41.2425" lon="19.51857">
        <ele>56.668633</ele>
        <time>2022-05-03T12:54:10.645Z</time>
      </trkpt>
      <trkpt lat="41.24263" lon="19.51863">
        <ele>55.794989</ele>
        <time>2022-05-03T12:54:12.646Z</time>
      </trkpt>
      <trkpt lat="41.24276" lon="19.51868">
        <ele>54.970801</ele>
        <time>2022-05-03T12:54:14.641Z</time>
      </trkpt>
      <trkpt lat="41.24286" lon="19.51873">
        <ele>54.290823</ele>
        <time>2022-05-03T12:54:16.632Z</time>
      </trkpt>
      <trkpt lat="41.24298" lon="19.51876">
        <ele>53.512487</ele>
        <time>2022-05-03T12:54:19.638Z</time>
      </trkpt>
      <trkpt lat="41.2431" lon="19.51878">
        <ele>52.720273</ele>
        <time>2022-05-03T12:54:22.648Z</time>
      </trkpt>
      <trkpt lat="41.24321" lon="19.51882">
        <ele>51.995654</ele>
        <time>2022-05-03T12:54:25.627Z</time>
      </trkpt>
      <trkpt lat="41.24334" lon="19.51887">
        <ele>51.162477</ele>
        <time>2022-05-03T12:54:28.643Z</time>
      </trkpt>
      <trkpt lat="41.24343" lon="19.51891">
        <ele>50.534945</ele>
        <time>2022-05-03T12:54:30.626Z</time>
      </trkpt>
      <trkpt lat="41.24353" lon="19.51892">
        <ele>49.916294</ele>
        <time>2022-05-03T12:54:32.663Z</time>
      </trkpt>
      <trkpt lat="41.24363" lon="19.51893">
        <ele>49.30839</ele>
        <time>2022-05-03T12:54:34.628Z</time>
      </trkpt>
      <trkpt lat="41.24373" lon="19.51895">
        <ele>48.660165</ele>
        <time>2022-05-03T12:54:36.626Z</time>
      </trkpt>
      <trkpt lat="41.24382" lon="19.51897">
        <ele>48.060836</ele>
        <time>2022-05-03T12:54:38.669Z</time>
      </trkpt>
      <trkpt lat="41.24392" lon="19.51899">
        <ele>47.446289</ele>
        <time>2022-05-03T12:54:40.629Z</time>
      </trkpt>
      <trkpt lat="41.24401" lon="19.51902">
        <ele>46.84962</ele>
        <time>2022-05-03T12:54:42.635Z</time>
      </trkpt>
      <trkpt lat="41.24411" lon="19.51903">
        <ele>46.294526</ele>
        <time>2022-05-03T12:54:44.670Z</time>
      </trkpt>
      <trkpt lat="41.2442" lon="19.51905">
        <ele>45.933695</ele>
        <time>2022-05-03T12:54:46.637Z</time>
      </trkpt>
      <trkpt lat="41.2443" lon="19.51906">
        <ele>45.591546</ele>
        <time>2022-05-03T12:54:48.639Z</time>
      </trkpt>
      <trkpt lat="41.24439" lon="19.51907">
        <ele>45.239118</ele>
        <time>2022-05-03T12:54:50.666Z</time>
      </trkpt>
      <trkpt lat="41.24449" lon="19.51908">
        <ele>44.88669</ele>
        <time>2022-05-03T12:54:52.630Z</time>
      </trkpt>
      <trkpt lat="41.24458" lon="19.51909">
        <ele>44.526889</ele>
        <time>2022-05-03T12:54:54.624Z</time>
      </trkpt>
      <trkpt lat="41.24468" lon="19.5191">
        <ele>44.158703</ele>
        <time>2022-05-03T12:54:56.670Z</time>
      </trkpt>
      <trkpt lat="41.24478" lon="19.51912">
        <ele>43.794481</ele>
        <time>2022-05-03T12:54:58.639Z</time>
      </trkpt>
      <trkpt lat="41.24488" lon="19.51912">
        <ele>43.439182</ele>
        <time>2022-05-03T12:55:00.630Z</time>
      </trkpt>
      <trkpt lat="41.24498" lon="19.51914">
        <ele>43.040322</ele>
        <time>2022-05-03T12:55:02.669Z</time>
      </trkpt>
      <trkpt lat="41.24509" lon="19.51916">
        <ele>42.632603</ele>
        <time>2022-05-03T12:55:04.631Z</time>
      </trkpt>
      <trkpt lat="41.2452" lon="19.51918">
        <ele>42.241079</ele>
        <time>2022-05-03T12:55:06.624Z</time>
      </trkpt>
      <trkpt lat="41.2453" lon="19.5192">
        <ele>41.860181</ele>
        <time>2022-05-03T12:55:08.631Z</time>
      </trkpt>
      <trkpt lat="41.2454" lon="19.51923">
        <ele>41.484049</ele>
        <time>2022-05-03T12:55:10.645Z</time>
      </trkpt>
      <trkpt lat="41.2455" lon="19.51926">
        <ele>41.110189</ele>
        <time>2022-05-03T12:55:12.623Z</time>
      </trkpt>
      <trkpt lat="41.2456" lon="19.5193">
        <ele>40.727061</ele>
        <time>2022-05-03T12:55:14.622Z</time>
      </trkpt>
      <trkpt lat="41.24569" lon="19.51933">
        <ele>40.353201</ele>
        <time>2022-05-03T12:55:16.618Z</time>
      </trkpt>
      <trkpt lat="41.24579" lon="19.51937">
        <ele>39.985516</ele>
        <time>2022-05-03T12:55:18.640Z</time>
      </trkpt>
      <trkpt lat="41.24589" lon="19.51942">
        <ele>39.753637</ele>
        <time>2022-05-03T12:55:20.631Z</time>
      </trkpt>
      <trkpt lat="41.24599" lon="19.51948">
        <ele>39.848141</ele>
        <time>2022-05-03T12:55:22.634Z</time>
      </trkpt>
      <trkpt lat="41.24609" lon="19.51952">
        <ele>39.940579</ele>
        <time>2022-05-03T12:55:24.637Z</time>
      </trkpt>
      <trkpt lat="41.24618" lon="19.51955">
        <ele>40.027401</ele>
        <time>2022-05-03T12:55:26.685Z</time>
      </trkpt>
      <trkpt lat="41.24628" lon="19.51958">
        <ele>40.113601</ele>
        <time>2022-05-03T12:55:28.639Z</time>
      </trkpt>
      <trkpt lat="41.24637" lon="19.51962">
        <ele>40.200095</ele>
        <time>2022-05-03T12:55:30.612Z</time>
      </trkpt>
      <trkpt lat="41.24647" lon="19.51966">
        <ele>40.288826</ele>
        <time>2022-05-03T12:55:32.616Z</time>
      </trkpt>
      <trkpt lat="41.24657" lon="19.5197">
        <ele>40.377369</ele>
        <time>2022-05-03T12:55:34.631Z</time>
      </trkpt>
      <trkpt lat="41.24667" lon="19.51973">
        <ele>40.465549</ele>
        <time>2022-05-03T12:55:36.647Z</time>
      </trkpt>
      <trkpt lat="41.24676" lon="19.51977">
        <ele>40.548314</ele>
        <time>2022-05-03T12:55:38.672Z</time>
      </trkpt>
      <trkpt lat="41.24685" lon="19.5198">
        <ele>40.632864</ele>
        <time>2022-05-03T12:55:40.639Z</time>
      </trkpt>
      <trkpt lat="41.24694" lon="19.51985">
        <ele>40.717526</ele>
        <time>2022-05-03T12:55:42.665Z</time>
      </trkpt>
      <trkpt lat="41.24703" lon="19.51989">
        <ele>40.799392</ele>
        <time>2022-05-03T12:55:44.611Z</time>
      </trkpt>
      <trkpt lat="41.24712" lon="19.51993">
        <ele>40.881684</ele>
        <time>2022-05-03T12:55:46.630Z</time>
      </trkpt>
      <trkpt lat="41.24721" lon="19.51997">
        <ele>40.969021</ele>
        <time>2022-05-03T12:55:48.659Z</time>
      </trkpt>
      <trkpt lat="41.2473" lon="19.52001">
        <ele>41.053804</ele>
        <time>2022-05-03T12:55:50.631Z</time>
      </trkpt>
      <trkpt lat="41.24741" lon="19.5201">
        <ele>41.164277</ele>
        <time>2022-05-03T12:55:53.638Z</time>
      </trkpt>
      <trkpt lat="41.24742" lon="19.52028">
        <ele>41.27713</ele>
        <time>2022-05-03T12:55:56.630Z</time>
      </trkpt>
      <trkpt lat="41.24743" lon="19.52041">
        <ele>41.251888</ele>
        <time>2022-05-03T12:55:58.681Z</time>
      </trkpt>
      <trkpt lat="41.24747" lon="19.52053">
        <ele>41.1924</ele>
        <time>2022-05-03T12:56:00.640Z</time>
      </trkpt>
      <trkpt lat="41.24754" lon="19.52062">
        <ele>41.131753</ele>
        <time>2022-05-03T12:56:02.642Z</time>
      </trkpt>
      <trkpt lat="41.24764" lon="19.52069">
        <ele>41.067331</ele>
        <time>2022-05-03T12:56:04.677Z</time>
      </trkpt>
      <trkpt lat="41.24775" lon="19.52073">
        <ele>41.000092</ele>
        <time>2022-05-03T12:56:06.666Z</time>
      </trkpt>
      <trkpt lat="41.24786" lon="19.52072">
        <ele>40.935353</ele>
        <time>2022-05-03T12:56:08.641Z</time>
      </trkpt>
      <trkpt lat="41.24795" lon="19.52067">
        <ele>40.87392</ele>
        <time>2022-05-03T12:56:10.626Z</time>
      </trkpt>
      <trkpt lat="41.24805" lon="19.52063">
        <ele>40.815899</ele>
        <time>2022-05-03T12:56:12.617Z</time>
      </trkpt>
      <trkpt lat="41.24814" lon="19.52061">
        <ele>40.756311</ele>
        <time>2022-05-03T12:56:14.660Z</time>
      </trkpt>
      <trkpt lat="41.24824" lon="19.52062">
        <ele>40.698818</ele>
        <time>2022-05-03T12:56:16.621Z</time>
      </trkpt>
      <trkpt lat="41.24833" lon="19.52063">
        <ele>40.641709</ele>
        <time>2022-05-03T12:56:18.675Z</time>
      </trkpt>
      <trkpt lat="41.24843" lon="19.52064">
        <ele>40.582447</ele>
        <time>2022-05-03T12:56:20.640Z</time>
      </trkpt>
      <trkpt lat="41.24854" lon="19.52065">
        <ele>40.521287</ele>
        <time>2022-05-03T12:56:22.637Z</time>
      </trkpt>
      <trkpt lat="41.24864" lon="19.52065">
        <ele>40.459017</ele>
        <time>2022-05-03T12:56:24.695Z</time>
      </trkpt>
      <trkpt lat="41.24874" lon="19.52066">
        <ele>40.399678</ele>
        <time>2022-05-03T12:56:26.659Z</time>
      </trkpt>
      <trkpt lat="41.24883" lon="19.52067">
        <ele>40.342691</ele>
        <time>2022-05-03T12:56:28.664Z</time>
      </trkpt>
      <trkpt lat="41.24893" lon="19.52068">
        <ele>40.285583</ele>
        <time>2022-05-03T12:56:30.620Z</time>
      </trkpt>
      <trkpt lat="41.24903" lon="19.52069">
        <ele>40.226299</ele>
        <time>2022-05-03T12:56:32.641Z</time>
      </trkpt>
      <trkpt lat="41.24913" lon="19.5207">
        <ele>40.762857</ele>
        <time>2022-05-03T12:56:34.638Z</time>
      </trkpt>
      <trkpt lat="41.24922" lon="19.5207">
        <ele>41.31556</ele>
        <time>2022-05-03T12:56:36.631Z</time>
      </trkpt>
      <trkpt lat="41.24931" lon="19.52071">
        <ele>41.856844</ele>
        <time>2022-05-03T12:56:38.645Z</time>
      </trkpt>
      <trkpt lat="41.2494" lon="19.52071">
        <ele>42.387094</ele>
        <time>2022-05-03T12:56:40.637Z</time>
      </trkpt>
      <trkpt lat="41.2495" lon="19.52071">
        <ele>42.962998</ele>
        <time>2022-05-03T12:56:42.663Z</time>
      </trkpt>
      <trkpt lat="41.2496" lon="19.52073">
        <ele>43.514847</ele>
        <time>2022-05-03T12:56:44.686Z</time>
      </trkpt>
      <trkpt lat="41.24969" lon="19.52074">
        <ele>44.057612</ele>
        <time>2022-05-03T12:56:46.660Z</time>
      </trkpt>
      <trkpt lat="41.24979" lon="19.52076">
        <ele>44.643527</ele>
        <time>2022-05-03T12:56:48.647Z</time>
      </trkpt>
      <trkpt lat="41.24989" lon="19.52076">
        <ele>45.209167</ele>
        <time>2022-05-03T12:56:50.630Z</time>
      </trkpt>
      <trkpt lat="41.25002" lon="19.52078">
        <ele>45.958392</ele>
        <time>2022-05-03T12:56:53.666Z</time>
      </trkpt>
      <trkpt lat="41.25013" lon="19.52081">
        <ele>46.611232</ele>
        <time>2022-05-03T12:56:56.622Z</time>
      </trkpt>
      <trkpt lat="41.25025" lon="19.52082">
        <ele>47.331066</ele>
        <time>2022-05-03T12:56:59.626Z</time>
      </trkpt>
      <trkpt lat="41.25034" lon="19.52082">
        <ele>47.860721</ele>
        <time>2022-05-03T12:57:01.618Z</time>
      </trkpt>
      <trkpt lat="41.25044" lon="19.52083">
        <ele>48.413978</ele>
        <time>2022-05-03T12:57:03.638Z</time>
      </trkpt>
      <trkpt lat="41.25053" lon="19.52086">
        <ele>48.988653</ele>
        <time>2022-05-03T12:57:05.648Z</time>
      </trkpt>
      <trkpt lat="41.25062" lon="19.52088">
        <ele>49.52262</ele>
        <time>2022-05-03T12:57:07.646Z</time>
      </trkpt>
      <trkpt lat="41.25075" lon="19.52089">
        <ele>50.298395</ele>
        <time>2022-05-03T12:57:10.628Z</time>
      </trkpt>
      <trkpt lat="41.25086" lon="19.52095">
        <ele>50.76195</ele>
        <time>2022-05-03T12:57:12.627Z</time>
      </trkpt>
      <trkpt lat="41.25096" lon="19.52096">
        <ele>50.911852</ele>
        <time>2022-05-03T12:57:14.634Z</time>
      </trkpt>
      <trkpt lat="41.25109" lon="19.52097">
        <ele>51.129419</ele>
        <time>2022-05-03T12:57:17.666Z</time>
      </trkpt>
      <trkpt lat="41.25122" lon="19.52096">
        <ele>51.334453</ele>
        <time>2022-05-03T12:57:20.646Z</time>
      </trkpt>
      <trkpt lat="41.25133" lon="19.52092">
        <ele>51.516863</ele>
        <time>2022-05-03T12:57:23.646Z</time>
      </trkpt>
      <trkpt lat="41.25146" lon="19.52092">
        <ele>51.718361</ele>
        <time>2022-05-03T12:57:26.634Z</time>
      </trkpt>
      <trkpt lat="41.25159" lon="19.52094">
        <ele>51.922175</ele>
        <time>2022-05-03T12:57:29.674Z</time>
      </trkpt>
      <trkpt lat="41.25171" lon="19.52094">
        <ele>52.123743</ele>
        <time>2022-05-03T12:57:32.635Z</time>
      </trkpt>
      <trkpt lat="41.25183" lon="19.52096">
        <ele>52.31056</ele>
        <time>2022-05-03T12:57:35.644Z</time>
      </trkpt>
      <trkpt lat="41.25192" lon="19.52097">
        <ele>52.458462</ele>
        <time>2022-05-03T12:57:38.633Z</time>
      </trkpt>
      <trkpt lat="41.25202" lon="19.52096">
        <ele>52.616141</ele>
        <time>2022-05-03T12:57:41.640Z</time>
      </trkpt>
      <trkpt lat="41.25214" lon="19.52096">
        <ele>52.801736</ele>
        <time>2022-05-03T12:57:44.640Z</time>
      </trkpt>
      <trkpt lat="41.25227" lon="19.52098">
        <ele>53.006302</ele>
        <time>2022-05-03T12:57:47.644Z</time>
      </trkpt>
      <trkpt lat="41.25239" lon="19.52096">
        <ele>53.199294</ele>
        <time>2022-05-03T12:57:50.642Z</time>
      </trkpt>
      <trkpt lat="41.25252" lon="19.52096">
        <ele>53.402409</ele>
        <time>2022-05-03T12:57:53.651Z</time>
      </trkpt>
      <trkpt lat="41.25263" lon="19.52093">
        <ele>53.550253</ele>
        <time>2022-05-03T12:57:56.643Z</time>
      </trkpt>
      <trkpt lat="41.25275" lon="19.52091">
        <ele>53.593806</ele>
        <time>2022-05-03T12:57:59.630Z</time>
      </trkpt>
      <trkpt lat="41.25287" lon="19.52089">
        <ele>53.638483</ele>
        <time>2022-05-03T12:58:02.639Z</time>
      </trkpt>
      <trkpt lat="41.253" lon="19.52089">
        <ele>53.684287</ele>
        <time>2022-05-03T12:58:05.651Z</time>
      </trkpt>
      <trkpt lat="41.25312" lon="19.5209">
        <ele>53.729823</ele>
        <time>2022-05-03T12:58:08.627Z</time>
      </trkpt>
      <trkpt lat="41.25324" lon="19.52091">
        <ele>53.774629</ele>
        <time>2022-05-03T12:58:11.644Z</time>
      </trkpt>
      <trkpt lat="41.25335" lon="19.5209">
        <ele>53.816166</ele>
        <time>2022-05-03T12:58:14.619Z</time>
      </trkpt>
      <trkpt lat="41.25347" lon="19.52089">
        <ele>53.856847</ele>
        <time>2022-05-03T12:58:17.665Z</time>
      </trkpt>
      <trkpt lat="41.25356" lon="19.52084">
        <ele>53.894283</ele>
        <time>2022-05-03T12:58:21.643Z</time>
      </trkpt>
      <trkpt lat="41.25367" lon="19.52082">
        <ele>53.936574</ele>
        <time>2022-05-03T12:58:25.634Z</time>
      </trkpt>
      <trkpt lat="41.25378" lon="19.52082">
        <ele>53.975424</ele>
        <time>2022-05-03T12:58:28.654Z</time>
      </trkpt>
      <trkpt lat="41.25389" lon="19.52082">
        <ele>54.017204</ele>
        <time>2022-05-03T12:58:31.638Z</time>
      </trkpt>
      <trkpt lat="41.25401" lon="19.52085">
        <ele>54.059993</ele>
        <time>2022-05-03T12:58:34.656Z</time>
      </trkpt>
      <trkpt lat="41.25414" lon="19.52086">
        <ele>54.107341</ele>
        <time>2022-05-03T12:58:37.624Z</time>
      </trkpt>
      <trkpt lat="41.25425" lon="19.52088">
        <ele>54.147659</ele>
        <time>2022-05-03T12:58:40.628Z</time>
      </trkpt>
      <trkpt lat="41.25436" lon="19.52088">
        <ele>54.188333</ele>
        <time>2022-05-03T12:58:43.622Z</time>
      </trkpt>
      <trkpt lat="41.25446" lon="19.52087">
        <ele>54.093259</ele>
        <time>2022-05-03T12:58:46.628Z</time>
      </trkpt>
      <trkpt lat="41.25455" lon="19.52083">
        <ele>53.957411</ele>
        <time>2022-05-03T12:58:49.656Z</time>
      </trkpt>
      <trkpt lat="41.25466" lon="19.52083">
        <ele>53.79462</ele>
        <time>2022-05-03T12:58:53.643Z</time>
      </trkpt>
      <trkpt lat="41.25476" lon="19.52086">
        <ele>53.649438</ele>
        <time>2022-05-03T12:58:57.642Z</time>
      </trkpt>
      <trkpt lat="41.25487" lon="19.52086">
        <ele>53.488042</ele>
        <time>2022-05-03T12:59:01.634Z</time>
      </trkpt>
      <trkpt lat="41.25499" lon="19.52088">
        <ele>53.32565</ele>
        <time>2022-05-03T12:59:05.637Z</time>
      </trkpt>
      <trkpt lat="41.2551" lon="19.52089">
        <ele>53.167747</ele>
        <time>2022-05-03T12:59:09.668Z</time>
      </trkpt>
      <trkpt lat="41.2552" lon="19.52089">
        <ele>53.02066</ele>
        <time>2022-05-03T12:59:12.681Z</time>
      </trkpt>
      <trkpt lat="41.25532" lon="19.52087">
        <ele>52.842651</ele>
        <time>2022-05-03T12:59:16.639Z</time>
      </trkpt>
      <trkpt lat="41.25546" lon="19.52084">
        <ele>52.640634</ele>
        <time>2022-05-03T12:59:19.641Z</time>
      </trkpt>
      <trkpt lat="41.25556" lon="19.52079">
        <ele>52.496068</ele>
        <time>2022-05-03T12:59:21.632Z</time>
      </trkpt>
      <trkpt lat="41.25565" lon="19.52073">
        <ele>52.349846</ele>
        <time>2022-05-03T12:59:23.682Z</time>
      </trkpt>
      <trkpt lat="41.25575" lon="19.52067">
        <ele>52.195338</ele>
        <time>2022-05-03T12:59:25.647Z</time>
      </trkpt>
      <trkpt lat="41.25584" lon="19.52062">
        <ele>52.05342</ele>
        <time>2022-05-03T12:59:27.639Z</time>
      </trkpt>
      <trkpt lat="41.25596" lon="19.52059">
        <ele>51.882172</ele>
        <time>2022-05-03T12:59:30.628Z</time>
      </trkpt>
      <trkpt lat="41.25606" lon="19.52056">
        <ele>51.733227</ele>
        <time>2022-05-03T12:59:33.620Z</time>
      </trkpt>
      <trkpt lat="41.25616" lon="19.52056">
        <ele>51.514546</ele>
        <time>2022-05-03T12:59:36.645Z</time>
      </trkpt>
      <trkpt lat="41.25627" lon="19.52056">
        <ele>51.127697</ele>
        <time>2022-05-03T12:59:39.631Z</time>
      </trkpt>
      <trkpt lat="41.25637" lon="19.52054">
        <ele>50.751509</ele>
        <time>2022-05-03T12:59:42.616Z</time>
      </trkpt>
      <trkpt lat="41.25647" lon="19.52053">
        <ele>50.388792</ele>
        <time>2022-05-03T12:59:45.639Z</time>
      </trkpt>
      <trkpt lat="41.25659" lon="19.52054">
        <ele>49.950872</ele>
        <time>2022-05-03T12:59:49.634Z</time>
      </trkpt>
      <trkpt lat="41.25668" lon="19.52054">
        <ele>49.625722</ele>
        <time>2022-05-03T12:59:52.643Z</time>
      </trkpt>
      <trkpt lat="41.2568" lon="19.52054">
        <ele>49.195098</ele>
        <time>2022-05-03T12:59:56.656Z</time>
      </trkpt>
      <trkpt lat="41.25691" lon="19.52054">
        <ele>48.768167</ele>
        <time>2022-05-03T13:00:00.621Z</time>
      </trkpt>
      <trkpt lat="41.25702" lon="19.52055">
        <ele>48.391542</ele>
        <time>2022-05-03T13:00:05.624Z</time>
      </trkpt>
      <trkpt lat="41.25711" lon="19.52055">
        <ele>48.033802</ele>
        <time>2022-05-03T13:00:10.639Z</time>
      </trkpt>
      <trkpt lat="41.2572" lon="19.5206">
        <ele>47.701008</ele>
        <time>2022-05-03T13:00:14.681Z</time>
      </trkpt>
      <trkpt lat="41.2573" lon="19.52066">
        <ele>47.295726</ele>
        <time>2022-05-03T13:00:19.640Z</time>
      </trkpt>
      <trkpt lat="41.25739" lon="19.5207">
        <ele>46.952019</ele>
        <time>2022-05-03T13:00:23.636Z</time>
      </trkpt>
      <trkpt lat="41.25751" lon="19.52074">
        <ele>46.499274</ele>
        <time>2022-05-03T13:00:27.656Z</time>
      </trkpt>
      <trkpt lat="41.2576" lon="19.52077">
        <ele>46.158476</ele>
        <time>2022-05-03T13:00:30.637Z</time>
      </trkpt>
      <trkpt lat="41.25769" lon="19.52079">
        <ele>45.822795</ele>
        <time>2022-05-03T13:00:33.638Z</time>
      </trkpt>
      <trkpt lat="41.2578" lon="19.52082">
        <ele>45.418251</ele>
        <time>2022-05-03T13:00:37.637Z</time>
      </trkpt>
      <trkpt lat="41.25789" lon="19.52082">
        <ele>45.071615</ele>
        <time>2022-05-03T13:00:40.634Z</time>
      </trkpt>
      <trkpt lat="41.25799" lon="19.52082">
        <ele>45.403771</ele>
        <time>2022-05-03T13:00:44.636Z</time>
      </trkpt>
      <trkpt lat="41.2581" lon="19.52081">
        <ele>45.759233</ele>
        <time>2022-05-03T13:00:50.658Z</time>
      </trkpt>
      <trkpt lat="41.25819" lon="19.52079">
        <ele>46.084329</ele>
        <time>2022-05-03T13:00:54.648Z</time>
      </trkpt>
      <trkpt lat="41.25829" lon="19.52079">
        <ele>46.408436</ele>
        <time>2022-05-03T13:00:58.624Z</time>
      </trkpt>
      <trkpt lat="41.25838" lon="19.5208">
        <ele>46.724267</ele>
        <time>2022-05-03T13:01:01.635Z</time>
      </trkpt>
      <trkpt lat="41.25847" lon="19.52081">
        <ele>47.0423</ele>
        <time>2022-05-03T13:01:04.649Z</time>
      </trkpt>
      <trkpt lat="41.25857" lon="19.52081">
        <ele>47.376558</ele>
        <time>2022-05-03T13:01:07.640Z</time>
      </trkpt>
      <trkpt lat="41.25868" lon="19.5208">
        <ele>47.760239</ele>
        <time>2022-05-03T13:01:11.646Z</time>
      </trkpt>
      <trkpt lat="41.25877" lon="19.5208">
        <ele>48.067726</ele>
        <time>2022-05-03T13:01:15.644Z</time>
      </trkpt>
      <trkpt lat="41.25888" lon="19.52079">
        <ele>48.450961</ele>
        <time>2022-05-03T13:01:20.644Z</time>
      </trkpt>
      <trkpt lat="41.25899" lon="19.52078">
        <ele>48.817201</ele>
        <time>2022-05-03T13:01:24.636Z</time>
      </trkpt>
      <trkpt lat="41.25908" lon="19.52079">
        <ele>49.134768</ele>
        <time>2022-05-03T13:01:28.652Z</time>
      </trkpt>
      <trkpt lat="41.25919" lon="19.52077">
        <ele>49.487415</ele>
        <time>2022-05-03T13:01:33.634Z</time>
      </trkpt>
      <trkpt lat="41.25928" lon="19.52077">
        <ele>49.797884</ele>
        <time>2022-05-03T13:01:37.638Z</time>
      </trkpt>
      <trkpt lat="41.25938" lon="19.52078">
        <ele>50.136719</ele>
        <time>2022-05-03T13:01:42.645Z</time>
      </trkpt>
      <trkpt lat="41.25947" lon="19.5208">
        <ele>50.445773</ele>
        <time>2022-05-03T13:01:46.637Z</time>
      </trkpt>
      <trkpt lat="41.25957" lon="19.5208">
        <ele>50.810718</ele>
        <time>2022-05-03T13:01:50.648Z</time>
      </trkpt>
      <trkpt lat="41.25968" lon="19.52082">
        <ele>51.159786</ele>
        <time>2022-05-03T13:01:54.646Z</time>
      </trkpt>
      <trkpt lat="41.25979" lon="19.52082">
        <ele>51.190757</ele>
        <time>2022-05-03T13:01:59.624Z</time>
      </trkpt>
      <trkpt lat="41.2599" lon="19.52082">
        <ele>51.178785</ele>
        <time>2022-05-03T13:02:04.640Z</time>
      </trkpt>
      <trkpt lat="41.25997" lon="19.52092">
        <ele>51.167057</ele>
        <time>2022-05-03T13:02:09.666Z</time>
      </trkpt>
      <trkpt lat="41.25996" lon="19.52107">
        <ele>51.154726</ele>
        <time>2022-05-03T13:02:14.620Z</time>
      </trkpt>
      <trkpt lat="41.25996" lon="19.52119">
        <ele>51.144726</ele>
        <time>2022-05-03T13:02:18.617Z</time>
      </trkpt>
      <trkpt lat="41.25998" lon="19.52133">
        <ele>51.132935</ele>
        <time>2022-05-03T13:02:22.634Z</time>
      </trkpt>
      <trkpt lat="41.26" lon="19.52146">
        <ele>51.121691</ele>
        <time>2022-05-03T13:02:25.703Z</time>
      </trkpt>
      <trkpt lat="41.26002" lon="19.52159">
        <ele>51.110735</ele>
        <time>2022-05-03T13:02:28.633Z</time>
      </trkpt>
      <trkpt lat="41.26004" lon="19.52172">
        <ele>51.10035</ele>
        <time>2022-05-03T13:02:31.640Z</time>
      </trkpt>
      <trkpt lat="41.26006" lon="19.52184">
        <ele>51.090339</ele>
        <time>2022-05-03T13:02:34.624Z</time>
      </trkpt>
      <trkpt lat="41.2601" lon="19.52197">
        <ele>51.078741</ele>
        <time>2022-05-03T13:02:38.647Z</time>
      </trkpt>
      <trkpt lat="41.26012" lon="19.52209">
        <ele>51.068141</ele>
        <time>2022-05-03T13:02:41.646Z</time>
      </trkpt>
      <trkpt lat="41.26014" lon="19.52222">
        <ele>51.057266</ele>
        <time>2022-05-03T13:02:44.643Z</time>
      </trkpt>
      <trkpt lat="41.26017" lon="19.52236">
        <ele>51.045599</ele>
        <time>2022-05-03T13:02:47.633Z</time>
      </trkpt>
      <trkpt lat="41.26017" lon="19.52249">
        <ele>51.03501</ele>
        <time>2022-05-03T13:02:50.627Z</time>
      </trkpt>
      <trkpt lat="41.26019" lon="19.52263">
        <ele>51.023252</ele>
        <time>2022-05-03T13:02:53.637Z</time>
      </trkpt>
      <trkpt lat="41.2602" lon="19.52278">
        <ele>51.01014</ele>
        <time>2022-05-03T13:02:56.623Z</time>
      </trkpt>
      <trkpt lat="41.26022" lon="19.52294">
        <ele>50.807418</ele>
        <time>2022-05-03T13:02:59.628Z</time>
      </trkpt>
      <trkpt lat="41.26023" lon="19.5231">
        <ele>50.450227</ele>
        <time>2022-05-03T13:03:02.648Z</time>
      </trkpt>
      <trkpt lat="41.26026" lon="19.52324">
        <ele>50.109911</ele>
        <time>2022-05-03T13:03:05.654Z</time>
      </trkpt>
      <trkpt lat="41.26028" lon="19.52337">
        <ele>49.809147</ele>
        <time>2022-05-03T13:03:08.626Z</time>
      </trkpt>
      <trkpt lat="41.26027" lon="19.52351">
        <ele>49.499892</ele>
        <time>2022-05-03T13:03:11.635Z</time>
      </trkpt>
      <trkpt lat="41.2603" lon="19.52362">
        <ele>49.219216</ele>
        <time>2022-05-03T13:03:14.656Z</time>
      </trkpt>
      <trkpt lat="41.26032" lon="19.52377">
        <ele>48.86578</ele>
        <time>2022-05-03T13:03:18.667Z</time>
      </trkpt>
      <trkpt lat="41.26034" lon="19.52391">
        <ele>48.540997</ele>
        <time>2022-05-03T13:03:21.659Z</time>
      </trkpt>
      <trkpt lat="41.26037" lon="19.52404">
        <ele>48.239838</ele>
        <time>2022-05-03T13:03:24.670Z</time>
      </trkpt>
      <trkpt lat="41.26039" lon="19.52417">
        <ele>47.928894</ele>
        <time>2022-05-03T13:03:27.631Z</time>
      </trkpt>
      <trkpt lat="41.26039" lon="19.52431">
        <ele>47.610731</ele>
        <time>2022-05-03T13:03:30.672Z</time>
      </trkpt>
      <trkpt lat="41.26042" lon="19.52446">
        <ele>47.253737</ele>
        <time>2022-05-03T13:03:33.650Z</time>
      </trkpt>
      <trkpt lat="41.26043" lon="19.52461">
        <ele>46.907955</ele>
        <time>2022-05-03T13:03:36.667Z</time>
      </trkpt>
      <trkpt lat="41.26046" lon="19.52476">
        <ele>46.561653</ele>
        <time>2022-05-03T13:03:40.639Z</time>
      </trkpt>
      <trkpt lat="41.26046" lon="19.52488">
        <ele>46.275394</ele>
        <time>2022-05-03T13:03:44.644Z</time>
      </trkpt>
      <trkpt lat="41.26045" lon="19.525">
        <ele>46.002527</ele>
        <time>2022-05-03T13:03:50.622Z</time>
      </trkpt>
      <trkpt lat="41.26045" lon="19.52515">
        <ele>45.661276</ele>
        <time>2022-05-03T13:04:18.646Z</time>
      </trkpt>
      <trkpt lat="41.26055" lon="19.5252">
        <ele>45.549559</ele>
        <time>2022-05-03T13:04:30.643Z</time>
      </trkpt>
      <trkpt lat="41.26064" lon="19.52517">
        <ele>45.582829</ele>
        <time>2022-05-03T13:04:33.642Z</time>
      </trkpt>
      <trkpt lat="41.26074" lon="19.52515">
        <ele>45.61888</ele>
        <time>2022-05-03T13:04:36.649Z</time>
      </trkpt>
      <trkpt lat="41.26083" lon="19.52513">
        <ele>45.654179</ele>
        <time>2022-05-03T13:04:39.636Z</time>
      </trkpt>
      <trkpt lat="41.26093" lon="19.5251">
        <ele>45.690238</ele>
        <time>2022-05-03T13:04:42.639Z</time>
      </trkpt>
      <trkpt lat="41.26102" lon="19.52508">
        <ele>45.724669</ele>
        <time>2022-05-03T13:04:45.684Z</time>
      </trkpt>
      <trkpt lat="41.26112" lon="19.52505">
        <ele>45.758645</ele>
        <time>2022-05-03T13:04:48.623Z</time>
      </trkpt>
      <trkpt lat="41.26122" lon="19.52503">
        <ele>45.794591</ele>
        <time>2022-05-03T13:04:51.662Z</time>
      </trkpt>
      <trkpt lat="41.26131" lon="19.52499">
        <ele>45.830204</ele>
        <time>2022-05-03T13:04:54.639Z</time>
      </trkpt>
      <trkpt lat="41.2614" lon="19.52496">
        <ele>45.863249</ele>
        <time>2022-05-03T13:04:57.638Z</time>
      </trkpt>
      <trkpt lat="41.2615" lon="19.52493">
        <ele>45.898731</ele>
        <time>2022-05-03T13:05:00.638Z</time>
      </trkpt>
      <trkpt lat="41.2616" lon="19.52491">
        <ele>45.935369</ele>
        <time>2022-05-03T13:05:03.643Z</time>
      </trkpt>
      <trkpt lat="41.26169" lon="19.52488">
        <ele>45.96974</ele>
        <time>2022-05-03T13:05:06.645Z</time>
      </trkpt>
      <trkpt lat="41.26179" lon="19.52485">
        <ele>46.007444</ele>
        <time>2022-05-03T13:05:09.635Z</time>
      </trkpt>
      <trkpt lat="41.26189" lon="19.52482">
        <ele>46.043742</ele>
        <time>2022-05-03T13:05:12.634Z</time>
      </trkpt>
      <trkpt lat="41.26199" lon="19.52479">
        <ele>46.080211</ele>
        <time>2022-05-03T13:05:15.633Z</time>
      </trkpt>
      <trkpt lat="41.26209" lon="19.52476">
        <ele>46.117284</ele>
        <time>2022-05-03T13:05:18.641Z</time>
      </trkpt>
      <trkpt lat="41.26219" lon="19.52472">
        <ele>46.15269</ele>
        <time>2022-05-03T13:05:21.635Z</time>
      </trkpt>
      <trkpt lat="41.26228" lon="19.52469">
        <ele>46.318913</ele>
        <time>2022-05-03T13:05:24.665Z</time>
      </trkpt>
      <trkpt lat="41.26239" lon="19.52466">
        <ele>46.746688</ele>
        <time>2022-05-03T13:05:27.637Z</time>
      </trkpt>
      <trkpt lat="41.26249" lon="19.52463">
        <ele>47.142599</ele>
        <time>2022-05-03T13:05:30.640Z</time>
      </trkpt>
      <trkpt lat="41.2626" lon="19.5246">
        <ele>47.539282</ele>
        <time>2022-05-03T13:05:33.662Z</time>
      </trkpt>
      <trkpt lat="41.2627" lon="19.52457">
        <ele>47.947004</ele>
        <time>2022-05-03T13:05:36.653Z</time>
      </trkpt>
      <trkpt lat="41.2628" lon="19.52454">
        <ele>48.352292</ele>
        <time>2022-05-03T13:05:39.633Z</time>
      </trkpt>
      <trkpt lat="41.26291" lon="19.52451">
        <ele>48.754639</ele>
        <time>2022-05-03T13:05:42.660Z</time>
      </trkpt>
      <trkpt lat="41.26301" lon="19.52448">
        <ele>49.15559</ele>
        <time>2022-05-03T13:05:45.643Z</time>
      </trkpt>
      <trkpt lat="41.26311" lon="19.52444">
        <ele>49.567685</ele>
        <time>2022-05-03T13:05:48.654Z</time>
      </trkpt>
      <trkpt lat="41.26323" lon="19.52441">
        <ele>50.015862</ele>
        <time>2022-05-03T13:05:51.651Z</time>
      </trkpt>
      <trkpt lat="41.26335" lon="19.52436">
        <ele>50.507959</ele>
        <time>2022-05-03T13:05:54.639Z</time>
      </trkpt>
      <trkpt lat="41.26345" lon="19.52431">
        <ele>50.891519</ele>
        <time>2022-05-03T13:05:56.634Z</time>
      </trkpt>
      <trkpt lat="41.26354" lon="19.52429">
        <ele>51.24522</ele>
        <time>2022-05-03T13:05:58.671Z</time>
      </trkpt>
      <trkpt lat="41.26367" lon="19.52425">
        <ele>51.756736</ele>
        <time>2022-05-03T13:06:01.625Z</time>
      </trkpt>
      <trkpt lat="41.26376" lon="19.52422">
        <ele>52.106726</ele>
        <time>2022-05-03T13:06:03.652Z</time>
      </trkpt>
      <trkpt lat="41.26385" lon="19.52419">
        <ele>52.464078</ele>
        <time>2022-05-03T13:06:05.635Z</time>
      </trkpt>
      <trkpt lat="41.26393" lon="19.52414">
        <ele>52.823824</ele>
        <time>2022-05-03T13:06:07.624Z</time>
      </trkpt>
      <trkpt lat="41.26403" lon="19.5241">
        <ele>52.886417</ele>
        <time>2022-05-03T13:06:09.684Z</time>
      </trkpt>
      <trkpt lat="41.26411" lon="19.52405">
        <ele>52.49786</ele>
        <time>2022-05-03T13:06:11.644Z</time>
      </trkpt>
      <trkpt lat="41.2642" lon="19.524">
        <ele>52.10575</ele>
        <time>2022-05-03T13:06:13.622Z</time>
      </trkpt>
      <trkpt lat="41.26428" lon="19.52393">
        <ele>51.715773</ele>
        <time>2022-05-03T13:06:15.641Z</time>
      </trkpt>
      <trkpt lat="41.26439" lon="19.52384">
        <ele>51.180433</ele>
        <time>2022-05-03T13:06:18.666Z</time>
      </trkpt>
      <trkpt lat="41.26447" lon="19.52377">
        <ele>50.804951</ele>
        <time>2022-05-03T13:06:20.671Z</time>
      </trkpt>
      <trkpt lat="41.26455" lon="19.5237">
        <ele>50.419254</ele>
        <time>2022-05-03T13:06:22.637Z</time>
      </trkpt>
      <trkpt lat="41.26465" lon="19.5236">
        <ele>49.903986</ele>
        <time>2022-05-03T13:06:25.623Z</time>
      </trkpt>
      <trkpt lat="41.26476" lon="19.52351">
        <ele>49.377185</ele>
        <time>2022-05-03T13:06:28.635Z</time>
      </trkpt>
      <trkpt lat="41.26487" lon="19.52343">
        <ele>48.856035</ele>
        <time>2022-05-03T13:06:31.668Z</time>
      </trkpt>
      <trkpt lat="41.26495" lon="19.52337">
        <ele>48.487119</ele>
        <time>2022-05-03T13:06:33.656Z</time>
      </trkpt>
      <trkpt lat="41.26505" lon="19.52333">
        <ele>48.076578</ele>
        <time>2022-05-03T13:06:35.647Z</time>
      </trkpt>
      <trkpt lat="41.26516" lon="19.52331">
        <ele>47.613117</ele>
        <time>2022-05-03T13:06:37.623Z</time>
      </trkpt>
      <trkpt lat="41.26527" lon="19.52328">
        <ele>47.170787</ele>
        <time>2022-05-03T13:06:39.638Z</time>
      </trkpt>
      <trkpt lat="41.26536" lon="19.52324">
        <ele>46.783311</ele>
        <time>2022-05-03T13:06:41.645Z</time>
      </trkpt>
      <trkpt lat="41.26547" lon="19.52316">
        <ele>46.237148</ele>
        <time>2022-05-03T13:06:44.638Z</time>
      </trkpt>
      <trkpt lat="41.26558" lon="19.52306">
        <ele>45.717008</ele>
        <time>2022-05-03T13:06:47.644Z</time>
      </trkpt>
      <trkpt lat="41.26569" lon="19.52297">
        <ele>47.538239</ele>
        <time>2022-05-03T13:06:50.641Z</time>
      </trkpt>
      <trkpt lat="41.2658" lon="19.52287">
        <ele>49.37125</ele>
        <time>2022-05-03T13:06:53.642Z</time>
      </trkpt>
      <trkpt lat="41.26591" lon="19.52278">
        <ele>51.151506</ele>
        <time>2022-05-03T13:06:56.640Z</time>
      </trkpt>
      <trkpt lat="41.266" lon="19.52267">
        <ele>52.872167</ele>
        <time>2022-05-03T13:06:59.680Z</time>
      </trkpt>
      <trkpt lat="41.26608" lon="19.52254">
        <ele>54.645734</ele>
        <time>2022-05-03T13:07:02.637Z</time>
      </trkpt>
      <trkpt lat="41.26616" lon="19.5224">
        <ele>56.48225</ele>
        <time>2022-05-03T13:07:05.641Z</time>
      </trkpt>
      <trkpt lat="41.26624" lon="19.52229">
        <ele>58.090094</ele>
        <time>2022-05-03T13:07:08.644Z</time>
      </trkpt>
      <trkpt lat="41.26632" lon="19.52218">
        <ele>59.755135</ele>
        <time>2022-05-03T13:07:11.659Z</time>
      </trkpt>
      <trkpt lat="41.26642" lon="19.52209">
        <ele>61.412837</ele>
        <time>2022-05-03T13:07:14.655Z</time>
      </trkpt>
      <trkpt lat="41.26651" lon="19.522">
        <ele>62.961288</ele>
        <time>2022-05-03T13:07:17.634Z</time>
      </trkpt>
      <trkpt lat="41.2666" lon="19.52194">
        <ele>64.435709</ele>
        <time>2022-05-03T13:07:20.637Z</time>
      </trkpt>
      <trkpt lat="41.26671" lon="19.52193">
        <ele>65.974415</ele>
        <time>2022-05-03T13:07:25.623Z</time>
      </trkpt>
      <trkpt lat="41.2668" lon="19.52187">
        <ele>67.301308</ele>
        <time>2022-05-03T13:07:28.669Z</time>
      </trkpt>
      <trkpt lat="41.2669" lon="19.5218">
        <ele>68.925197</ele>
        <time>2022-05-03T13:07:31.640Z</time>
      </trkpt>
      <trkpt lat="41.267" lon="19.52173">
        <ele>70.542055</ele>
        <time>2022-05-03T13:07:34.626Z</time>
      </trkpt>
      <trkpt lat="41.26712" lon="19.52165">
        <ele>71.633026</ele>
        <time>2022-05-03T13:07:37.626Z</time>
      </trkpt>
      <trkpt lat="41.26723" lon="19.52156">
        <ele>72.51757</ele>
        <time>2022-05-03T13:07:40.635Z</time>
      </trkpt>
      <trkpt lat="41.26731" lon="19.52149">
        <ele>73.144916</ele>
        <time>2022-05-03T13:07:42.634Z</time>
      </trkpt>
      <trkpt lat="41.26741" lon="19.5214">
        <ele>73.989875</ele>
        <time>2022-05-03T13:07:45.731Z</time>
      </trkpt>
      <trkpt lat="41.26751" lon="19.52131">
        <ele>74.778438</ele>
        <time>2022-05-03T13:07:48.655Z</time>
      </trkpt>
      <trkpt lat="41.2676" lon="19.52123">
        <ele>75.549784</ele>
        <time>2022-05-03T13:07:51.622Z</time>
      </trkpt>
      <trkpt lat="41.26771" lon="19.52112">
        <ele>76.483085</ele>
        <time>2022-05-03T13:07:54.644Z</time>
      </trkpt>
      <trkpt lat="41.26777" lon="19.521">
        <ele>77.217865</ele>
        <time>2022-05-03T13:07:56.672Z</time>
      </trkpt>
      <trkpt lat="41.26785" lon="19.52089">
        <ele>77.965154</ele>
        <time>2022-05-03T13:07:58.640Z</time>
      </trkpt>
      <trkpt lat="41.26795" lon="19.52084">
        <ele>78.687021</ele>
        <time>2022-05-03T13:08:00.626Z</time>
      </trkpt>
      <trkpt lat="41.26804" lon="19.52079">
        <ele>79.346731</ele>
        <time>2022-05-03T13:08:02.627Z</time>
      </trkpt>
      <trkpt lat="41.26812" lon="19.52076">
        <ele>79.954218</ele>
        <time>2022-05-03T13:08:04.635Z</time>
      </trkpt>
      <trkpt lat="41.26821" lon="19.52071">
        <ele>80.568547</ele>
        <time>2022-05-03T13:08:06.635Z</time>
      </trkpt>
      <trkpt lat="41.26833" lon="19.52064">
        <ele>81.44597</ele>
        <time>2022-05-03T13:08:09.658Z</time>
      </trkpt>
      <trkpt lat="41.26844" lon="19.52056">
        <ele>82.355502</ele>
        <time>2022-05-03T13:08:12.638Z</time>
      </trkpt>
      <trkpt lat="41.26855" lon="19.52048">
        <ele>83.137133</ele>
        <time>2022-05-03T13:08:15.677Z</time>
      </trkpt>
      <trkpt lat="41.26865" lon="19.52042">
        <ele>83.255832</ele>
        <time>2022-05-03T13:08:18.655Z</time>
      </trkpt>
      <trkpt lat="41.26876" lon="19.52036">
        <ele>83.378739</ele>
        <time>2022-05-03T13:08:21.641Z</time>
      </trkpt>
      <trkpt lat="41.26885" lon="19.52032">
        <ele>83.484592</ele>
        <time>2022-05-03T13:08:24.642Z</time>
      </trkpt>
      <trkpt lat="41.26894" lon="19.52026">
        <ele>83.591212</ele>
        <time>2022-05-03T13:08:27.635Z</time>
      </trkpt>
      <trkpt lat="41.26904" lon="19.5202">
        <ele>83.707901</ele>
        <time>2022-05-03T13:08:30.655Z</time>
      </trkpt>
      <trkpt lat="41.26914" lon="19.52014">
        <ele>83.830134</ele>
        <time>2022-05-03T13:08:33.642Z</time>
      </trkpt>
      <trkpt lat="41.26923" lon="19.52005">
        <ele>83.949353</ele>
        <time>2022-05-03T13:08:36.672Z</time>
      </trkpt>
      <trkpt lat="41.26931" lon="19.51996">
        <ele>84.059702</ele>
        <time>2022-05-03T13:08:39.630Z</time>
      </trkpt>
      <trkpt lat="41.26938" lon="19.51988">
        <ele>84.161081</ele>
        <time>2022-05-03T13:08:41.624Z</time>
      </trkpt>
      <trkpt lat="41.26948" lon="19.51979">
        <ele>84.292517</ele>
        <time>2022-05-03T13:08:44.641Z</time>
      </trkpt>
      <trkpt lat="41.26958" lon="19.5197">
        <ele>84.414976</ele>
        <time>2022-05-03T13:08:47.672Z</time>
      </trkpt>
      <trkpt lat="41.26967" lon="19.5196">
        <ele>84.537532</ele>
        <time>2022-05-03T13:08:50.647Z</time>
      </trkpt>
      <trkpt lat="41.26976" lon="19.5195">
        <ele>84.667187</ele>
        <time>2022-05-03T13:08:53.635Z</time>
      </trkpt>
      <trkpt lat="41.26987" lon="19.5194">
        <ele>84.805233</ele>
        <time>2022-05-03T13:08:56.645Z</time>
      </trkpt>
      <trkpt lat="41.26996" lon="19.51932">
        <ele>84.927692</ele>
        <time>2022-05-03T13:08:59.634Z</time>
      </trkpt>
      <trkpt lat="41.27007" lon="19.51924">
        <ele>85.053676</ele>
        <time>2022-05-03T13:09:02.633Z</time>
      </trkpt>
      <trkpt lat="41.27017" lon="19.51916">
        <ele>84.353871</ele>
        <time>2022-05-03T13:09:05.627Z</time>
      </trkpt>
      <trkpt lat="41.27025" lon="19.51909">
        <ele>83.838398</ele>
        <time>2022-05-03T13:09:07.660Z</time>
      </trkpt>
      <trkpt lat="41.27033" lon="19.51901">
        <ele>83.282602</ele>
        <time>2022-05-03T13:09:09.621Z</time>
      </trkpt>
      <trkpt lat="41.27043" lon="19.5189">
        <ele>82.523597</ele>
        <time>2022-05-03T13:09:12.650Z</time>
      </trkpt>
      <trkpt lat="41.27053" lon="19.51879">
        <ele>81.800865</ele>
        <time>2022-05-03T13:09:15.629Z</time>
      </trkpt>
      <trkpt lat="41.27064" lon="19.5187">
        <ele>81.047183</ele>
        <time>2022-05-03T13:09:18.630Z</time>
      </trkpt>
      <trkpt lat="41.27072" lon="19.51864">
        <ele>80.516821</ele>
        <time>2022-05-03T13:09:20.660Z</time>
      </trkpt>
      <trkpt lat="41.27081" lon="19.51858">
        <ele>79.949678</ele>
        <time>2022-05-03T13:09:22.631Z</time>
      </trkpt>
      <trkpt lat="41.27091" lon="19.51849">
        <ele>79.297764</ele>
        <time>2022-05-03T13:09:24.651Z</time>
      </trkpt>
      <trkpt lat="41.271" lon="19.51842">
        <ele>78.68338</ele>
        <time>2022-05-03T13:09:26.645Z</time>
      </trkpt>
      <trkpt lat="41.2711" lon="19.51834">
        <ele>78.066724</ele>
        <time>2022-05-03T13:09:28.654Z</time>
      </trkpt>
      <trkpt lat="41.27118" lon="19.51826">
        <ele>77.471357</ele>
        <time>2022-05-03T13:09:30.632Z</time>
      </trkpt>
      <trkpt lat="41.27128" lon="19.51819">
        <ele>76.850497</ele>
        <time>2022-05-03T13:09:32.636Z</time>
      </trkpt>
      <trkpt lat="41.27138" lon="19.51813">
        <ele>76.228652</ele>
        <time>2022-05-03T13:09:34.638Z</time>
      </trkpt>
      <trkpt lat="41.27147" lon="19.51806">
        <ele>75.664638</ele>
        <time>2022-05-03T13:09:36.625Z</time>
      </trkpt>
      <trkpt lat="41.27155" lon="19.51801">
        <ele>75.117688</ele>
        <time>2022-05-03T13:09:38.626Z</time>
      </trkpt>
      <trkpt lat="41.27166" lon="19.51792">
        <ele>73.976557</ele>
        <time>2022-05-03T13:09:41.638Z</time>
      </trkpt>
      <trkpt lat="41.27177" lon="19.51781">
        <ele>72.594509</ele>
        <time>2022-05-03T13:09:44.639Z</time>
      </trkpt>
      <trkpt lat="41.27185" lon="19.51775">
        <ele>71.66277</ele>
        <time>2022-05-03T13:09:46.644Z</time>
      </trkpt>
      <trkpt lat="41.27193" lon="19.51769">
        <ele>70.701404</ele>
        <time>2022-05-03T13:09:48.630Z</time>
      </trkpt>
      <trkpt lat="41.27201" lon="19.5176">
        <ele>69.63693</ele>
        <time>2022-05-03T13:09:50.625Z</time>
      </trkpt>
      <trkpt lat="41.27209" lon="19.51754">
        <ele>68.6795</ele>
        <time>2022-05-03T13:09:52.638Z</time>
      </trkpt>
      <trkpt lat="41.27218" lon="19.51749">
        <ele>67.692975</ele>
        <time>2022-05-03T13:09:54.635Z</time>
      </trkpt>
      <trkpt lat="41.27226" lon="19.51745">
        <ele>66.763149</ele>
        <time>2022-05-03T13:09:56.620Z</time>
      </trkpt>
      <trkpt lat="41.27235" lon="19.5174">
        <ele>65.763297</ele>
        <time>2022-05-03T13:09:58.636Z</time>
      </trkpt>
      <trkpt lat="41.27243" lon="19.51736">
        <ele>64.826848</ele>
        <time>2022-05-03T13:10:00.624Z</time>
      </trkpt>
      <trkpt lat="41.27256" lon="19.51729">
        <ele>63.420797</ele>
        <time>2022-05-03T13:10:03.652Z</time>
      </trkpt>
      <trkpt lat="41.27265" lon="19.51726">
        <ele>62.44195</ele>
        <time>2022-05-03T13:10:05.622Z</time>
      </trkpt>
      <trkpt lat="41.27279" lon="19.51721">
        <ele>61.004816</ele>
        <time>2022-05-03T13:10:08.635Z</time>
      </trkpt>
      <trkpt lat="41.27288" lon="19.51718">
        <ele>59.963108</ele>
        <time>2022-05-03T13:10:10.688Z</time>
      </trkpt>
      <trkpt lat="41.27301" lon="19.51714">
        <ele>58.596759</ele>
        <time>2022-05-03T13:10:13.633Z</time>
      </trkpt>
      <trkpt lat="41.2731" lon="19.51712">
        <ele>57.64028</ele>
        <time>2022-05-03T13:10:15.639Z</time>
      </trkpt>
      <trkpt lat="41.2732" lon="19.51709">
        <ele>56.625566</ele>
        <time>2022-05-03T13:10:17.666Z</time>
      </trkpt>
      <trkpt lat="41.27329" lon="19.51705">
        <ele>56.180459</ele>
        <time>2022-05-03T13:10:19.643Z</time>
      </trkpt>
      <trkpt lat="41.27338" lon="19.51701">
        <ele>56.014399</ele>
        <time>2022-05-03T13:10:21.652Z</time>
      </trkpt>
      <trkpt lat="41.2735" lon="19.51694">
        <ele>55.797472</ele>
        <time>2022-05-03T13:10:24.639Z</time>
      </trkpt>
      <trkpt lat="41.27363" lon="19.51689">
        <ele>55.575512</ele>
        <time>2022-05-03T13:10:27.647Z</time>
      </trkpt>
      <trkpt lat="41.27375" lon="19.51685">
        <ele>55.35871</ele>
        <time>2022-05-03T13:10:30.606Z</time>
      </trkpt>
      <trkpt lat="41.27388" lon="19.51682">
        <ele>55.147136</ele>
        <time>2022-05-03T13:10:33.633Z</time>
      </trkpt>
      <trkpt lat="41.27401" lon="19.51674">
        <ele>54.903437</ele>
        <time>2022-05-03T13:10:36.631Z</time>
      </trkpt>
      <trkpt lat="41.27411" lon="19.51667">
        <ele>54.716556</ele>
        <time>2022-05-03T13:10:38.653Z</time>
      </trkpt>
      <trkpt lat="41.27419" lon="19.51662">
        <ele>54.550092</ele>
        <time>2022-05-03T13:10:40.702Z</time>
      </trkpt>
      <trkpt lat="41.27428" lon="19.51657">
        <ele>54.392404</ele>
        <time>2022-05-03T13:10:42.645Z</time>
      </trkpt>
      <trkpt lat="41.27438" lon="19.51654">
        <ele>54.215775</ele>
        <time>2022-05-03T13:10:44.641Z</time>
      </trkpt>
      <trkpt lat="41.27449" lon="19.51652">
        <ele>54.0381</ele>
        <time>2022-05-03T13:10:46.637Z</time>
      </trkpt>
      <trkpt lat="41.27458" lon="19.51649">
        <ele>53.874358</ele>
        <time>2022-05-03T13:10:48.636Z</time>
      </trkpt>
      <trkpt lat="41.27466" lon="19.51643">
        <ele>53.715841</ele>
        <time>2022-05-03T13:10:50.663Z</time>
      </trkpt>
      <trkpt lat="41.27475" lon="19.51638">
        <ele>53.547305</ele>
        <time>2022-05-03T13:10:52.638Z</time>
      </trkpt>
      <trkpt lat="41.27486" lon="19.51634">
        <ele>53.367559</ele>
        <time>2022-05-03T13:10:54.633Z</time>
      </trkpt>
      <trkpt lat="41.27496" lon="19.51632">
        <ele>53.433049</ele>
        <time>2022-05-03T13:10:56.671Z</time>
      </trkpt>
      <trkpt lat="41.27508" lon="19.51628">
        <ele>54.027379</ele>
        <time>2022-05-03T13:10:58.643Z</time>
      </trkpt>
      <trkpt lat="41.27519" lon="19.51625">
        <ele>54.618351</ele>
        <time>2022-05-03T13:11:00.640Z</time>
      </trkpt>
      <trkpt lat="41.27529" lon="19.51623">
        <ele>55.157885</ele>
        <time>2022-05-03T13:11:02.623Z</time>
      </trkpt>
      <trkpt lat="41.2754" lon="19.5162">
        <ele>55.71021</ele>
        <time>2022-05-03T13:11:04.639Z</time>
      </trkpt>
      <trkpt lat="41.2755" lon="19.51615">
        <ele>56.272809</ele>
        <time>2022-05-03T13:11:06.637Z</time>
      </trkpt>
      <trkpt lat="41.2756" lon="19.51611">
        <ele>56.835971</ele>
        <time>2022-05-03T13:11:08.635Z</time>
      </trkpt>
      <trkpt lat="41.2757" lon="19.51607">
        <ele>57.345799</ele>
        <time>2022-05-03T13:11:10.636Z</time>
      </trkpt>
      <trkpt lat="41.27579" lon="19.51604">
        <ele>57.831289</ele>
        <time>2022-05-03T13:11:12.636Z</time>
      </trkpt>
      <trkpt lat="41.27588" lon="19.51599">
        <ele>58.357183</ele>
        <time>2022-05-03T13:11:14.658Z</time>
      </trkpt>
      <trkpt lat="41.27596" lon="19.51593">
        <ele>58.82644</ele>
        <time>2022-05-03T13:11:16.639Z</time>
      </trkpt>
      <trkpt lat="41.27604" lon="19.51587">
        <ele>59.304241</ele>
        <time>2022-05-03T13:11:18.644Z</time>
      </trkpt>
      <trkpt lat="41.27613" lon="19.5158">
        <ele>59.844103</ele>
        <time>2022-05-03T13:11:20.632Z</time>
      </trkpt>
      <trkpt lat="41.27622" lon="19.51575">
        <ele>60.313874</ele>
        <time>2022-05-03T13:11:22.640Z</time>
      </trkpt>
      <trkpt lat="41.27633" lon="19.5157">
        <ele>60.943782</ele>
        <time>2022-05-03T13:11:25.648Z</time>
      </trkpt>
      <trkpt lat="41.27643" lon="19.51568">
        <ele>61.453468</ele>
        <time>2022-05-03T13:11:27.656Z</time>
      </trkpt>
      <trkpt lat="41.27653" lon="19.51566">
        <ele>61.959415</ele>
        <time>2022-05-03T13:11:29.646Z</time>
      </trkpt>
      <trkpt lat="41.27662" lon="19.51564">
        <ele>62.439432</ele>
        <time>2022-05-03T13:11:31.634Z</time>
      </trkpt>
      <trkpt lat="41.27672" lon="19.51561">
        <ele>62.741179</ele>
        <time>2022-05-03T13:11:33.646Z</time>
      </trkpt>
      <trkpt lat="41.27682" lon="19.51558">
        <ele>63.011733</ele>
        <time>2022-05-03T13:11:35.676Z</time>
      </trkpt>
      <trkpt lat="41.27692" lon="19.51553">
        <ele>63.271419</ele>
        <time>2022-05-03T13:11:37.624Z</time>
      </trkpt>
      <trkpt lat="41.277" lon="19.51547">
        <ele>63.496973</ele>
        <time>2022-05-03T13:11:39.652Z</time>
      </trkpt>
      <trkpt lat="41.27713" lon="19.51541">
        <ele>63.819435</ele>
        <time>2022-05-03T13:11:42.629Z</time>
      </trkpt>
      <trkpt lat="41.27724" lon="19.51538">
        <ele>64.106079</ele>
        <time>2022-05-03T13:11:44.634Z</time>
      </trkpt>
      <trkpt lat="41.27736" lon="19.51532">
        <ele>64.422445</ele>
        <time>2022-05-03T13:11:46.677Z</time>
      </trkpt>
      <trkpt lat="41.27746" lon="19.51527">
        <ele>64.700736</ele>
        <time>2022-05-03T13:11:48.651Z</time>
      </trkpt>
      <trkpt lat="41.27756" lon="19.51521">
        <ele>64.969362</ele>
        <time>2022-05-03T13:11:50.638Z</time>
      </trkpt>
      <trkpt lat="41.27766" lon="19.51517">
        <ele>65.207675</ele>
        <time>2022-05-03T13:11:52.620Z</time>
      </trkpt>
      <trkpt lat="41.27777" lon="19.51509">
        <ele>65.53063</ele>
        <time>2022-05-03T13:11:55.640Z</time>
      </trkpt>
      <trkpt lat="41.27789" lon="19.51501">
        <ele>65.860089</ele>
        <time>2022-05-03T13:11:58.680Z</time>
      </trkpt>
      <trkpt lat="41.27799" lon="19.51495">
        <ele>66.127726</ele>
        <time>2022-05-03T13:12:01.648Z</time>
      </trkpt>
      <trkpt lat="41.2781" lon="19.51488">
        <ele>66.433098</ele>
        <time>2022-05-03T13:12:04.641Z</time>
      </trkpt>
      <trkpt lat="41.27821" lon="19.51482">
        <ele>66.723355</ele>
        <time>2022-05-03T13:12:07.639Z</time>
      </trkpt>
      <trkpt lat="41.27832" lon="19.51475">
        <ele>66.976346</ele>
        <time>2022-05-03T13:12:10.640Z</time>
      </trkpt>
      <trkpt lat="41.27843" lon="19.51469">
        <ele>66.890829</ele>
        <time>2022-05-03T13:12:13.636Z</time>
      </trkpt>
      <trkpt lat="41.27855" lon="19.51464">
        <ele>66.80246</ele>
        <time>2022-05-03T13:12:16.644Z</time>
      </trkpt>
      <trkpt lat="41.27864" lon="19.5146">
        <ele>66.731977</ele>
        <time>2022-05-03T13:12:18.637Z</time>
      </trkpt>
      <trkpt lat="41.27875" lon="19.51454">
        <ele>66.650941</ele>
        <time>2022-05-03T13:12:20.634Z</time>
      </trkpt>
      <trkpt lat="41.27886" lon="19.51449">
        <ele>66.565278</ele>
        <time>2022-05-03T13:12:22.635Z</time>
      </trkpt>
      <trkpt lat="41.27898" lon="19.51443">
        <ele>66.477568</ele>
        <time>2022-05-03T13:12:24.644Z</time>
      </trkpt>
      <trkpt lat="41.27909" lon="19.5144">
        <ele>66.39248</ele>
        <time>2022-05-03T13:12:26.664Z</time>
      </trkpt>
      <trkpt lat="41.2792" lon="19.51438">
        <ele>66.315593</ele>
        <time>2022-05-03T13:12:28.645Z</time>
      </trkpt>
      <trkpt lat="41.27931" lon="19.51436">
        <ele>66.239181</ele>
        <time>2022-05-03T13:12:30.627Z</time>
      </trkpt>
      <trkpt lat="41.27941" lon="19.51433">
        <ele>66.164176</ele>
        <time>2022-05-03T13:12:32.666Z</time>
      </trkpt>
      <trkpt lat="41.27951" lon="19.51432">
        <ele>66.095547</ele>
        <time>2022-05-03T13:12:34.635Z</time>
      </trkpt>
      <trkpt lat="41.2796" lon="19.51431">
        <ele>66.026636</ele>
        <time>2022-05-03T13:12:36.662Z</time>
      </trkpt>
      <trkpt lat="41.2797" lon="19.5143">
        <ele>65.958938</ele>
        <time>2022-05-03T13:12:38.671Z</time>
      </trkpt>
      <trkpt lat="41.2798" lon="19.51426">
        <ele>65.880747</ele>
        <time>2022-05-03T13:12:40.652Z</time>
      </trkpt>
      <trkpt lat="41.27991" lon="19.51423">
        <ele>65.800354</ele>
        <time>2022-05-03T13:12:42.626Z</time>
      </trkpt>
      <trkpt lat="41.28002" lon="19.51419">
        <ele>65.723749</ele>
        <time>2022-05-03T13:12:44.657Z</time>
      </trkpt>
      <trkpt lat="41.28012" lon="19.51417">
        <ele>65.283958</ele>
        <time>2022-05-03T13:12:46.654Z</time>
      </trkpt>
      <trkpt lat="41.28022" lon="19.51416">
        <ele>64.75492</ele>
        <time>2022-05-03T13:12:48.641Z</time>
      </trkpt>
      <trkpt lat="41.28032" lon="19.51416">
        <ele>64.238042</ele>
        <time>2022-05-03T13:12:50.620Z</time>
      </trkpt>
      <trkpt lat="41.28041" lon="19.51418">
        <ele>63.749287</ele>
        <time>2022-05-03T13:12:52.638Z</time>
      </trkpt>
      <trkpt lat="41.2805" lon="19.51421">
        <ele>63.258221</ele>
        <time>2022-05-03T13:12:54.632Z</time>
      </trkpt>
      <trkpt lat="41.2806" lon="19.51423">
        <ele>62.772488</ele>
        <time>2022-05-03T13:12:56.628Z</time>
      </trkpt>
      <trkpt lat="41.2807" lon="19.51425">
        <ele>62.246524</ele>
        <time>2022-05-03T13:12:58.630Z</time>
      </trkpt>
      <trkpt lat="41.2808" lon="19.51425">
        <ele>61.713846</ele>
        <time>2022-05-03T13:13:00.650Z</time>
      </trkpt>
      <trkpt lat="41.2809" lon="19.51426">
        <ele>61.171026</ele>
        <time>2022-05-03T13:13:02.626Z</time>
      </trkpt>
      <trkpt lat="41.28101" lon="19.51427">
        <ele>60.610089</ele>
        <time>2022-05-03T13:13:04.661Z</time>
      </trkpt>
      <trkpt lat="41.28113" lon="19.51427">
        <ele>60.004877</ele>
        <time>2022-05-03T13:13:06.638Z</time>
      </trkpt>
      <trkpt lat="41.28126" lon="19.51425">
        <ele>59.318176</ele>
        <time>2022-05-03T13:13:08.633Z</time>
      </trkpt>
      <trkpt lat="41.28138" lon="19.51426">
        <ele>58.691996</ele>
        <time>2022-05-03T13:13:10.628Z</time>
      </trkpt>
      <trkpt lat="41.28149" lon="19.51427">
        <ele>58.110975</ele>
        <time>2022-05-03T13:13:12.634Z</time>
      </trkpt>
      <trkpt lat="41.2816" lon="19.51427">
        <ele>57.510672</ele>
        <time>2022-05-03T13:13:14.639Z</time>
      </trkpt>
      <trkpt lat="41.28171" lon="19.51428">
        <ele>56.941776</ele>
        <time>2022-05-03T13:13:16.633Z</time>
      </trkpt>
      <trkpt lat="41.28182" lon="19.51428">
        <ele>56.367826</ele>
        <time>2022-05-03T13:13:18.645Z</time>
      </trkpt>
      <trkpt lat="41.28193" lon="19.51428">
        <ele>55.923972</ele>
        <time>2022-05-03T13:13:20.639Z</time>
      </trkpt>
      <trkpt lat="41.28204" lon="19.51429">
        <ele>55.49208</ele>
        <time>2022-05-03T13:13:22.632Z</time>
      </trkpt>
      <trkpt lat="41.28215" lon="19.5143">
        <ele>55.082722</ele>
        <time>2022-05-03T13:13:24.681Z</time>
      </trkpt>
      <trkpt lat="41.28225" lon="19.51431">
        <ele>54.677444</ele>
        <time>2022-05-03T13:13:26.629Z</time>
      </trkpt>
      <trkpt lat="41.28236" lon="19.51431">
        <ele>54.265077</ele>
        <time>2022-05-03T13:13:28.627Z</time>
      </trkpt>
      <trkpt lat="41.28247" lon="19.51431">
        <ele>53.829533</ele>
        <time>2022-05-03T13:13:30.660Z</time>
      </trkpt>
      <trkpt lat="41.28258" lon="19.5143">
        <ele>53.397532</ele>
        <time>2022-05-03T13:13:32.642Z</time>
      </trkpt>
      <trkpt lat="41.28269" lon="19.5143">
        <ele>52.985331</ele>
        <time>2022-05-03T13:13:34.645Z</time>
      </trkpt>
      <trkpt lat="41.28279" lon="19.51431">
        <ele>52.576757</ele>
        <time>2022-05-03T13:13:36.635Z</time>
      </trkpt>
      <trkpt lat="41.28289" lon="19.51432">
        <ele>52.17881</ele>
        <time>2022-05-03T13:13:38.638Z</time>
      </trkpt>
      <trkpt lat="41.283" lon="19.51433">
        <ele>51.780863</ele>
        <time>2022-05-03T13:13:40.644Z</time>
      </trkpt>
      <trkpt lat="41.2831" lon="19.51432">
        <ele>51.386791</ele>
        <time>2022-05-03T13:13:42.695Z</time>
      </trkpt>
      <trkpt lat="41.28319" lon="19.5143">
        <ele>51.018276</ele>
        <time>2022-05-03T13:13:44.674Z</time>
      </trkpt>
      <trkpt lat="41.28329" lon="19.5143">
        <ele>50.632586</ele>
        <time>2022-05-03T13:13:46.645Z</time>
      </trkpt>
      <trkpt lat="41.28339" lon="19.51429">
        <ele>50.232008</ele>
        <time>2022-05-03T13:13:48.640Z</time>
      </trkpt>
      <trkpt lat="41.2835" lon="19.5143">
        <ele>49.827067</ele>
        <time>2022-05-03T13:13:50.642Z</time>
      </trkpt>
      <trkpt lat="41.2836" lon="19.51429">
        <ele>49.425669</ele>
        <time>2022-05-03T13:13:52.640Z</time>
      </trkpt>
      <trkpt lat="41.2837" lon="19.51428">
        <ele>49.233535</ele>
        <time>2022-05-03T13:13:54.636Z</time>
      </trkpt>
      <trkpt lat="41.2838" lon="19.51426">
        <ele>49.115648</ele>
        <time>2022-05-03T13:13:56.643Z</time>
      </trkpt>
      <trkpt lat="41.28389" lon="19.51423">
        <ele>48.998712</ele>
        <time>2022-05-03T13:13:58.642Z</time>
      </trkpt>
      <trkpt lat="41.28399" lon="19.5142">
        <ele>48.876433</ele>
        <time>2022-05-03T13:14:00.639Z</time>
      </trkpt>
      <trkpt lat="41.28409" lon="19.51417">
        <ele>48.758309</ele>
        <time>2022-05-03T13:14:02.645Z</time>
      </trkpt>
      <trkpt lat="41.28418" lon="19.51415">
        <ele>48.645321</ele>
        <time>2022-05-03T13:14:04.666Z</time>
      </trkpt>
      <trkpt lat="41.28427" lon="19.51412">
        <ele>48.531747</ele>
        <time>2022-05-03T13:14:06.642Z</time>
      </trkpt>
      <trkpt lat="41.28435" lon="19.51408">
        <ele>48.420403</ele>
        <time>2022-05-03T13:14:08.634Z</time>
      </trkpt>
      <trkpt lat="41.28446" lon="19.51406">
        <ele>48.295135</ele>
        <time>2022-05-03T13:14:10.654Z</time>
      </trkpt>
      <trkpt lat="41.28456" lon="19.51406">
        <ele>48.168669</ele>
        <time>2022-05-03T13:14:12.625Z</time>
      </trkpt>
      <trkpt lat="41.28467" lon="19.51405">
        <ele>48.038546</ele>
        <time>2022-05-03T13:14:14.633Z</time>
      </trkpt>
      <trkpt lat="41.28477" lon="19.51403">
        <ele>47.910769</ele>
        <time>2022-05-03T13:14:16.636Z</time>
      </trkpt>
      <trkpt lat="41.28488" lon="19.514">
        <ele>47.777414</ele>
        <time>2022-05-03T13:14:18.636Z</time>
      </trkpt>
      <trkpt lat="41.28499" lon="19.51397">
        <ele>47.641279</ele>
        <time>2022-05-03T13:14:20.643Z</time>
      </trkpt>
      <trkpt lat="41.2851" lon="19.51393">
        <ele>47.504492</ele>
        <time>2022-05-03T13:14:22.631Z</time>
      </trkpt>
      <trkpt lat="41.2852" lon="19.51391">
        <ele>47.373104</ele>
        <time>2022-05-03T13:14:24.666Z</time>
      </trkpt>
      <trkpt lat="41.28531" lon="19.51389">
        <ele>47.242651</ele>
        <time>2022-05-03T13:14:26.663Z</time>
      </trkpt>
      <trkpt lat="41.28541" lon="19.51386">
        <ele>47.160719</ele>
        <time>2022-05-03T13:14:28.632Z</time>
      </trkpt>
      <trkpt lat="41.28551" lon="19.51383">
        <ele>47.251897</ele>
        <time>2022-05-03T13:14:30.629Z</time>
      </trkpt>
      <trkpt lat="41.28561" lon="19.51379">
        <ele>47.342233</ele>
        <time>2022-05-03T13:14:32.648Z</time>
      </trkpt>
      <trkpt lat="41.28571" lon="19.51375">
        <ele>47.436199</ele>
        <time>2022-05-03T13:14:34.640Z</time>
      </trkpt>
      <trkpt lat="41.2858" lon="19.51371">
        <ele>47.52614</ele>
        <time>2022-05-03T13:14:36.640Z</time>
      </trkpt>
      <trkpt lat="41.28589" lon="19.51369">
        <ele>47.608843</ele>
        <time>2022-05-03T13:14:38.626Z</time>
      </trkpt>
      <trkpt lat="41.28599" lon="19.51367">
        <ele>47.692905</ele>
        <time>2022-05-03T13:14:40.642Z</time>
      </trkpt>
      <trkpt lat="41.28608" lon="19.51363">
        <ele>47.776737</ele>
        <time>2022-05-03T13:14:42.624Z</time>
      </trkpt>
      <trkpt lat="41.28617" lon="19.5136">
        <ele>47.861261</ele>
        <time>2022-05-03T13:14:44.651Z</time>
      </trkpt>
      <trkpt lat="41.28626" lon="19.51357">
        <ele>47.94787</ele>
        <time>2022-05-03T13:14:46.621Z</time>
      </trkpt>
      <trkpt lat="41.28635" lon="19.51353">
        <ele>48.033435</ele>
        <time>2022-05-03T13:14:48.620Z</time>
      </trkpt>
      <trkpt lat="41.28645" lon="19.5135">
        <ele>48.120086</ele>
        <time>2022-05-03T13:14:50.656Z</time>
      </trkpt>
      <trkpt lat="41.28654" lon="19.51349">
        <ele>48.20332</ele>
        <time>2022-05-03T13:14:52.641Z</time>
      </trkpt>
      <trkpt lat="41.28663" lon="19.51346">
        <ele>48.291575</ele>
        <time>2022-05-03T13:14:54.666Z</time>
      </trkpt>
      <trkpt lat="41.28674" lon="19.51341">
        <ele>48.390154</ele>
        <time>2022-05-03T13:14:56.643Z</time>
      </trkpt>
      <trkpt lat="41.28683" lon="19.51337">
        <ele>48.476461</ele>
        <time>2022-05-03T13:14:58.628Z</time>
      </trkpt>
      <trkpt lat="41.28692" lon="19.51335">
        <ele>48.558758</ele>
        <time>2022-05-03T13:15:00.642Z</time>
      </trkpt>
      <trkpt lat="41.28701" lon="19.51334">
        <ele>48.642493</ele>
        <time>2022-05-03T13:15:02.692Z</time>
      </trkpt>
      <trkpt lat="41.28711" lon="19.51334">
        <ele>48.730508</ele>
        <time>2022-05-03T13:15:04.642Z</time>
      </trkpt>
      <trkpt lat="41.2872" lon="19.51333">
        <ele>48.475307</ele>
        <time>2022-05-03T13:15:06.642Z</time>
      </trkpt>
      <trkpt lat="41.2873" lon="19.51332">
        <ele>48.03533</ele>
        <time>2022-05-03T13:15:08.617Z</time>
      </trkpt>
      <trkpt lat="41.28741" lon="19.5133">
        <ele>47.599601</ele>
        <time>2022-05-03T13:15:10.629Z</time>
      </trkpt>
      <trkpt lat="41.2875" lon="19.51329">
        <ele>47.178383</ele>
        <time>2022-05-03T13:15:12.652Z</time>
      </trkpt>
      <trkpt lat="41.28761" lon="19.51328">
        <ele>46.740386</ele>
        <time>2022-05-03T13:15:14.642Z</time>
      </trkpt>
      <trkpt lat="41.28771" lon="19.51325">
        <ele>46.290166</ele>
        <time>2022-05-03T13:15:16.677Z</time>
      </trkpt>
      <trkpt lat="41.28782" lon="19.51323">
        <ele>45.828244</ele>
        <time>2022-05-03T13:15:18.647Z</time>
      </trkpt>
      <trkpt lat="41.28792" lon="19.5132">
        <ele>45.354841</ele>
        <time>2022-05-03T13:15:20.642Z</time>
      </trkpt>
      <trkpt lat="41.28803" lon="19.51318">
        <ele>44.88088</ele>
        <time>2022-05-03T13:15:22.686Z</time>
      </trkpt>
      <trkpt lat="41.28814" lon="19.51315">
        <ele>44.406919</ele>
        <time>2022-05-03T13:15:24.641Z</time>
      </trkpt>
      <trkpt lat="41.28824" lon="19.51312">
        <ele>43.964687</ele>
        <time>2022-05-03T13:15:26.646Z</time>
      </trkpt>
      <trkpt lat="41.28834" lon="19.51309">
        <ele>43.523766</ele>
        <time>2022-05-03T13:15:28.640Z</time>
      </trkpt>
      <trkpt lat="41.28845" lon="19.51307">
        <ele>43.068974</ele>
        <time>2022-05-03T13:15:30.639Z</time>
      </trkpt>
      <trkpt lat="41.28856" lon="19.51303">
        <ele>42.593221</ele>
        <time>2022-05-03T13:15:32.647Z</time>
      </trkpt>
      <trkpt lat="41.28866" lon="19.51299">
        <ele>42.128975</ele>
        <time>2022-05-03T13:15:34.641Z</time>
      </trkpt>
      <trkpt lat="41.28876" lon="19.51294">
        <ele>41.65991</ele>
        <time>2022-05-03T13:15:36.644Z</time>
      </trkpt>
      <trkpt lat="41.28887" lon="19.5129">
        <ele>41.197918</ele>
        <time>2022-05-03T13:15:38.640Z</time>
      </trkpt>
      <trkpt lat="41.28896" lon="19.51284">
        <ele>41.161925</ele>
        <time>2022-05-03T13:15:40.632Z</time>
      </trkpt>
      <trkpt lat="41.28906" lon="19.51278">
        <ele>41.3126</ele>
        <time>2022-05-03T13:15:42.655Z</time>
      </trkpt>
      <trkpt lat="41.28916" lon="19.51271">
        <ele>41.467248</ele>
        <time>2022-05-03T13:15:44.676Z</time>
      </trkpt>
      <trkpt lat="41.28925" lon="19.51264">
        <ele>41.618966</ele>
        <time>2022-05-03T13:15:46.629Z</time>
      </trkpt>
      <trkpt lat="41.28934" lon="19.51257">
        <ele>41.765801</ele>
        <time>2022-05-03T13:15:48.643Z</time>
      </trkpt>
      <trkpt lat="41.28943" lon="19.51248">
        <ele>41.923681</ele>
        <time>2022-05-03T13:15:50.683Z</time>
      </trkpt>
      <trkpt lat="41.28952" lon="19.51239">
        <ele>42.086895</ele>
        <time>2022-05-03T13:15:52.695Z</time>
      </trkpt>
      <trkpt lat="41.28961" lon="19.51229">
        <ele>42.245341</ele>
        <time>2022-05-03T13:15:54.644Z</time>
      </trkpt>
      <trkpt lat="41.28969" lon="19.51219">
        <ele>42.400964</ele>
        <time>2022-05-03T13:15:56.644Z</time>
      </trkpt>
      <trkpt lat="41.28976" lon="19.51209">
        <ele>42.551194</ele>
        <time>2022-05-03T13:15:58.637Z</time>
      </trkpt>
      <trkpt lat="41.28983" lon="19.51199">
        <ele>42.696182</ele>
        <time>2022-05-03T13:16:00.659Z</time>
      </trkpt>
      <trkpt lat="41.2899" lon="19.51189">
        <ele>42.841842</ele>
        <time>2022-05-03T13:16:02.654Z</time>
      </trkpt>
      <trkpt lat="41.28996" lon="19.51179">
        <ele>42.983676</ele>
        <time>2022-05-03T13:16:04.641Z</time>
      </trkpt>
      <trkpt lat="41.29004" lon="19.5117">
        <ele>43.125657</ele>
        <time>2022-05-03T13:16:06.628Z</time>
      </trkpt>
      <trkpt lat="41.29011" lon="19.51161">
        <ele>43.263386</ele>
        <time>2022-05-03T13:16:08.621Z</time>
      </trkpt>
      <trkpt lat="41.29017" lon="19.51152">
        <ele>43.393836</ele>
        <time>2022-05-03T13:16:10.676Z</time>
      </trkpt>
      <trkpt lat="41.29024" lon="19.51143">
        <ele>43.529853</ele>
        <time>2022-05-03T13:16:12.667Z</time>
      </trkpt>
      <trkpt lat="41.2903" lon="19.51133">
        <ele>43.640913</ele>
        <time>2022-05-03T13:16:14.647Z</time>
      </trkpt>
      <trkpt lat="41.29036" lon="19.51124">
        <ele>43.722032</ele>
        <time>2022-05-03T13:16:16.633Z</time>
      </trkpt>
      <trkpt lat="41.29042" lon="19.51113">
        <ele>43.808705</ele>
        <time>2022-05-03T13:16:18.643Z</time>
      </trkpt>
      <trkpt lat="41.29048" lon="19.51101">
        <ele>43.895047</ele>
        <time>2022-05-03T13:16:20.664Z</time>
      </trkpt>
      <trkpt lat="41.29053" lon="19.51089">
        <ele>43.985094</ele>
        <time>2022-05-03T13:16:22.653Z</time>
      </trkpt>
      <trkpt lat="41.29059" lon="19.51078">
        <ele>44.071845</ele>
        <time>2022-05-03T13:16:24.630Z</time>
      </trkpt>
      <trkpt lat="41.29066" lon="19.51068">
        <ele>44.156574</ele>
        <time>2022-05-03T13:16:26.632Z</time>
      </trkpt>
      <trkpt lat="41.29074" lon="19.51058">
        <ele>44.251749</ele>
        <time>2022-05-03T13:16:28.636Z</time>
      </trkpt>
      <trkpt lat="41.29083" lon="19.51049">
        <ele>44.347066</ele>
        <time>2022-05-03T13:16:30.674Z</time>
      </trkpt>
      <trkpt lat="41.29091" lon="19.5104">
        <ele>44.439265</ele>
        <time>2022-05-03T13:16:32.643Z</time>
      </trkpt>
      <trkpt lat="41.291" lon="19.51032">
        <ele>44.528818</ele>
        <time>2022-05-03T13:16:34.626Z</time>
      </trkpt>
      <trkpt lat="41.29108" lon="19.51024">
        <ele>44.614327</ele>
        <time>2022-05-03T13:16:36.678Z</time>
      </trkpt>
      <trkpt lat="41.29116" lon="19.51016">
        <ele>44.700777</ele>
        <time>2022-05-03T13:16:38.647Z</time>
      </trkpt>
      <trkpt lat="41.29123" lon="19.51006">
        <ele>44.787832</ele>
        <time>2022-05-03T13:16:40.640Z</time>
      </trkpt>
      <trkpt lat="41.2913" lon="19.50997">
        <ele>44.871974</ele>
        <time>2022-05-03T13:16:42.636Z</time>
      </trkpt>
      <trkpt lat="41.29137" lon="19.50987">
        <ele>44.956944</ele>
        <time>2022-05-03T13:16:44.635Z</time>
      </trkpt>
      <trkpt lat="41.29143" lon="19.50977">
        <ele>45.04584</ele>
        <time>2022-05-03T13:16:46.633Z</time>
      </trkpt>
      <trkpt lat="41.29149" lon="19.50966">
        <ele>45.130436</ele>
        <time>2022-05-03T13:16:48.636Z</time>
      </trkpt>
      <trkpt lat="41.29155" lon="19.50955">
        <ele>44.940169</ele>
        <time>2022-05-03T13:16:50.650Z</time>
      </trkpt>
      <trkpt lat="41.29158" lon="19.50943">
        <ele>44.726027</ele>
        <time>2022-05-03T13:16:52.650Z</time>
      </trkpt>
      <trkpt lat="41.29161" lon="19.50931">
        <ele>44.500441</ele>
        <time>2022-05-03T13:16:54.644Z</time>
      </trkpt>
      <trkpt lat="41.29165" lon="19.50917">
        <ele>44.260514</ele>
        <time>2022-05-03T13:16:56.659Z</time>
      </trkpt>
      <trkpt lat="41.29168" lon="19.50904">
        <ele>44.0229</ele>
        <time>2022-05-03T13:16:58.741Z</time>
      </trkpt>
      <trkpt lat="41.29171" lon="19.5089">
        <ele>43.787588</ele>
        <time>2022-05-03T13:17:00.651Z</time>
      </trkpt>
      <trkpt lat="41.29176" lon="19.50878">
        <ele>43.558265</ele>
        <time>2022-05-03T13:17:02.626Z</time>
      </trkpt>
      <trkpt lat="41.29182" lon="19.50867">
        <ele>43.333958</ele>
        <time>2022-05-03T13:17:04.649Z</time>
      </trkpt>
      <trkpt lat="41.29189" lon="19.50859">
        <ele>43.131377</ele>
        <time>2022-05-03T13:17:06.649Z</time>
      </trkpt>
      <trkpt lat="41.29198" lon="19.50853">
        <ele>42.888836</ele>
        <time>2022-05-03T13:17:09.679Z</time>
      </trkpt>
      <trkpt lat="41.29211" lon="19.50855">
        <ele>42.596758</ele>
        <time>2022-05-03T13:17:12.657Z</time>
      </trkpt>
      <trkpt lat="41.29221" lon="19.50853">
        <ele>42.374251</ele>
        <time>2022-05-03T13:17:14.636Z</time>
      </trkpt>
      <trkpt lat="41.29229" lon="19.50843">
        <ele>42.141212</ele>
        <time>2022-05-03T13:17:16.640Z</time>
      </trkpt>
      <trkpt lat="41.29232" lon="19.50829">
        <ele>41.89132</ele>
        <time>2022-05-03T13:17:18.646Z</time>
      </trkpt>
      <trkpt lat="41.29235" lon="19.50813">
        <ele>41.617461</ele>
        <time>2022-05-03T13:17:20.639Z</time>
      </trkpt>
      <trkpt lat="41.29238" lon="19.50798">
        <ele>41.353111</ele>
        <time>2022-05-03T13:17:22.640Z</time>
      </trkpt>
      <trkpt lat="41.29242" lon="19.50785">
        <ele>41.117192</ele>
        <time>2022-05-03T13:17:24.640Z</time>
      </trkpt>
      <trkpt lat="41.29248" lon="19.50774">
        <ele>41.359608</ele>
        <time>2022-05-03T13:17:26.665Z</time>
      </trkpt>
      <trkpt lat="41.29256" lon="19.50765">
        <ele>41.609291</ele>
        <time>2022-05-03T13:17:28.631Z</time>
      </trkpt>
      <trkpt lat="41.29265" lon="19.50759">
        <ele>41.847712</ele>
        <time>2022-05-03T13:17:30.644Z</time>
      </trkpt>
      <trkpt lat="41.29275" lon="19.50753">
        <ele>42.108425</ele>
        <time>2022-05-03T13:17:32.643Z</time>
      </trkpt>
      <trkpt lat="41.29285" lon="19.50747">
        <ele>42.382216</ele>
        <time>2022-05-03T13:17:34.644Z</time>
      </trkpt>
      <trkpt lat="41.29295" lon="19.5074">
        <ele>42.640155</ele>
        <time>2022-05-03T13:17:36.651Z</time>
      </trkpt>
      <trkpt lat="41.29304" lon="19.50735">
        <ele>42.887761</ele>
        <time>2022-05-03T13:17:38.651Z</time>
      </trkpt>
      <trkpt lat="41.29313" lon="19.50727">
        <ele>43.132494</ele>
        <time>2022-05-03T13:17:40.632Z</time>
      </trkpt>
      <trkpt lat="41.29323" lon="19.50722">
        <ele>43.387367</ele>
        <time>2022-05-03T13:17:42.666Z</time>
      </trkpt>
      <trkpt lat="41.29332" lon="19.50717">
        <ele>43.627336</ele>
        <time>2022-05-03T13:17:44.636Z</time>
      </trkpt>
      <trkpt lat="41.29341" lon="19.50713">
        <ele>43.863179</ele>
        <time>2022-05-03T13:17:46.641Z</time>
      </trkpt>
      <trkpt lat="41.2935" lon="19.50709">
        <ele>44.08049</ele>
        <time>2022-05-03T13:17:48.642Z</time>
      </trkpt>
      <trkpt lat="41.29358" lon="19.50704">
        <ele>44.299666</ele>
        <time>2022-05-03T13:17:50.621Z</time>
      </trkpt>
      <trkpt lat="41.2937" lon="19.50696">
        <ele>44.611587</ele>
        <time>2022-05-03T13:17:53.674Z</time>
      </trkpt>
      <trkpt lat="41.29379" lon="19.50691">
        <ele>44.832247</ele>
        <time>2022-05-03T13:17:55.646Z</time>
      </trkpt>
      <trkpt lat="41.29391" lon="19.50685">
        <ele>45.138989</ele>
        <time>2022-05-03T13:17:58.641Z</time>
      </trkpt>
      <trkpt lat="41.29399" lon="19.50681">
        <ele>45.36205</ele>
        <time>2022-05-03T13:18:00.626Z</time>
      </trkpt>
      <trkpt lat="41.29409" lon="19.50677">
        <ele>45.634841</ele>
        <time>2022-05-03T13:18:02.647Z</time>
      </trkpt>
      <trkpt lat="41.29418" lon="19.50673">
        <ele>45.936986</ele>
        <time>2022-05-03T13:18:04.665Z</time>
      </trkpt>
      <trkpt lat="41.29428" lon="19.50669">
        <ele>46.222339</ele>
        <time>2022-05-03T13:18:06.641Z</time>
      </trkpt>
      <trkpt lat="41.29437" lon="19.50664">
        <ele>46.516706</ele>
        <time>2022-05-03T13:18:08.641Z</time>
      </trkpt>
      <trkpt lat="41.29447" lon="19.5066">
        <ele>46.818001</ele>
        <time>2022-05-03T13:18:10.637Z</time>
      </trkpt>
      <trkpt lat="41.29457" lon="19.50656">
        <ele>47.132479</ele>
        <time>2022-05-03T13:18:12.639Z</time>
      </trkpt>
      <trkpt lat="41.29468" lon="19.50652">
        <ele>47.457377</ele>
        <time>2022-05-03T13:18:14.659Z</time>
      </trkpt>
      <trkpt lat="41.29478" lon="19.50647">
        <ele>47.761483</ele>
        <time>2022-05-03T13:18:16.647Z</time>
      </trkpt>
      <trkpt lat="41.29487" lon="19.50642">
        <ele>48.06942</ele>
        <time>2022-05-03T13:18:18.636Z</time>
      </trkpt>
      <trkpt lat="41.29497" lon="19.50637">
        <ele>48.362513</ele>
        <time>2022-05-03T13:18:20.645Z</time>
      </trkpt>
      <trkpt lat="41.29506" lon="19.50632">
        <ele>48.64167</ele>
        <time>2022-05-03T13:18:22.640Z</time>
      </trkpt>
      <trkpt lat="41.29515" lon="19.50627">
        <ele>48.926115</ele>
        <time>2022-05-03T13:18:24.647Z</time>
      </trkpt>
      <trkpt lat="41.29523" lon="19.50622">
        <ele>49.204318</ele>
        <time>2022-05-03T13:18:26.672Z</time>
      </trkpt>
      <trkpt lat="41.29532" lon="19.50617">
        <ele>49.472844</ele>
        <time>2022-05-03T13:18:28.647Z</time>
      </trkpt>
      <trkpt lat="41.2954" lon="19.50612">
        <ele>49.753025</ele>
        <time>2022-05-03T13:18:30.644Z</time>
      </trkpt>
      <trkpt lat="41.29549" lon="19.50606">
        <ele>50.044409</ele>
        <time>2022-05-03T13:18:32.683Z</time>
      </trkpt>
      <trkpt lat="41.29559" lon="19.50601">
        <ele>50.342569</ele>
        <time>2022-05-03T13:18:34.639Z</time>
      </trkpt>
      <trkpt lat="41.29568" lon="19.50596">
        <ele>50.629696</ele>
        <time>2022-05-03T13:18:36.658Z</time>
      </trkpt>
      <trkpt lat="41.29577" lon="19.5059">
        <ele>50.231256</ele>
        <time>2022-05-03T13:18:38.632Z</time>
      </trkpt>
      <trkpt lat="41.29587" lon="19.50585">
        <ele>49.664372</ele>
        <time>2022-05-03T13:18:40.645Z</time>
      </trkpt>
      <trkpt lat="41.29598" lon="19.50579">
        <ele>49.091271</ele>
        <time>2022-05-03T13:18:42.638Z</time>
      </trkpt>
      <trkpt lat="41.29608" lon="19.50573">
        <ele>48.525867</ele>
        <time>2022-05-03T13:18:44.640Z</time>
      </trkpt>
      <trkpt lat="41.29618" lon="19.50568">
        <ele>47.966154</ele>
        <time>2022-05-03T13:18:46.651Z</time>
      </trkpt>
      <trkpt lat="41.29628" lon="19.50563">
        <ele>47.424902</ele>
        <time>2022-05-03T13:18:48.666Z</time>
      </trkpt>
      <trkpt lat="41.29638" lon="19.50558">
        <ele>46.887588</ele>
        <time>2022-05-03T13:18:50.643Z</time>
      </trkpt>
      <trkpt lat="41.29647" lon="19.50552">
        <ele>46.353598</ele>
        <time>2022-05-03T13:18:52.653Z</time>
      </trkpt>
      <trkpt lat="41.29657" lon="19.50545">
        <ele>45.802668</ele>
        <time>2022-05-03T13:18:54.665Z</time>
      </trkpt>
      <trkpt lat="41.29666" lon="19.50538">
        <ele>45.236662</ele>
        <time>2022-05-03T13:18:56.655Z</time>
      </trkpt>
      <trkpt lat="41.29675" lon="19.50531">
        <ele>44.696136</ele>
        <time>2022-05-03T13:18:58.653Z</time>
      </trkpt>
      <trkpt lat="41.29684" lon="19.50524">
        <ele>44.155609</ele>
        <time>2022-05-03T13:19:00.626Z</time>
      </trkpt>
      <trkpt lat="41.29693" lon="19.50516">
        <ele>43.628598</ele>
        <time>2022-05-03T13:19:02.651Z</time>
      </trkpt>
      <trkpt lat="41.29701" lon="19.50509">
        <ele>43.120922</ele>
        <time>2022-05-03T13:19:04.653Z</time>
      </trkpt>
      <trkpt lat="41.29709" lon="19.50502">
        <ele>42.6217</ele>
        <time>2022-05-03T13:19:06.640Z</time>
      </trkpt>
      <trkpt lat="41.29718" lon="19.50494">
        <ele>42.071375</ele>
        <time>2022-05-03T13:19:08.647Z</time>
      </trkpt>
      <trkpt lat="41.29728" lon="19.50485">
        <ele>41.495443</ele>
        <time>2022-05-03T13:19:10.652Z</time>
      </trkpt>
      <trkpt lat="41.29736" lon="19.50477">
        <ele>41.345376</ele>
        <time>2022-05-03T13:19:12.636Z</time>
      </trkpt>
      <trkpt lat="41.29745" lon="19.50469">
        <ele>41.225411</ele>
        <time>2022-05-03T13:19:14.655Z</time>
      </trkpt>
      <trkpt lat="41.29753" lon="19.50461">
        <ele>41.102801</ele>
        <time>2022-05-03T13:19:16.636Z</time>
      </trkpt>
      <trkpt lat="41.29762" lon="19.50453">
        <ele>40.980306</ele>
        <time>2022-05-03T13:19:18.626Z</time>
      </trkpt>
      <trkpt lat="41.2977" lon="19.50443">
        <ele>40.855357</ele>
        <time>2022-05-03T13:19:20.648Z</time>
      </trkpt>
      <trkpt lat="41.29778" lon="19.50435">
        <ele>40.733509</ele>
        <time>2022-05-03T13:19:22.687Z</time>
      </trkpt>
      <trkpt lat="41.29787" lon="19.50426">
        <ele>40.608755</ele>
        <time>2022-05-03T13:19:24.635Z</time>
      </trkpt>
      <trkpt lat="41.29795" lon="19.50417">
        <ele>40.482175</ele>
        <time>2022-05-03T13:19:26.652Z</time>
      </trkpt>
      <trkpt lat="41.29804" lon="19.50408">
        <ele>40.358329</ele>
        <time>2022-05-03T13:19:28.677Z</time>
      </trkpt>
      <trkpt lat="41.29812" lon="19.50398">
        <ele>40.230561</ele>
        <time>2022-05-03T13:19:30.638Z</time>
      </trkpt>
      <trkpt lat="41.2982" lon="19.50389">
        <ele>40.103667</ele>
        <time>2022-05-03T13:19:32.640Z</time>
      </trkpt>
      <trkpt lat="41.29828" lon="19.50379">
        <ele>39.977348</ele>
        <time>2022-05-03T13:19:34.640Z</time>
      </trkpt>
      <trkpt lat="41.29836" lon="19.5037">
        <ele>39.851867</ele>
        <time>2022-05-03T13:19:36.657Z</time>
      </trkpt>
      <trkpt lat="41.29844" lon="19.50359">
        <ele>39.720904</ele>
        <time>2022-05-03T13:19:38.653Z</time>
      </trkpt>
      <trkpt lat="41.29852" lon="19.50349">
        <ele>39.5995</ele>
        <time>2022-05-03T13:19:40.653Z</time>
      </trkpt>
      <trkpt lat="41.29859" lon="19.5034">
        <ele>39.475104</ele>
        <time>2022-05-03T13:19:42.643Z</time>
      </trkpt>
      <trkpt lat="41.29867" lon="19.50329">
        <ele>39.434257</ele>
        <time>2022-05-03T13:19:44.649Z</time>
      </trkpt>
      <trkpt lat="41.29874" lon="19.50319">
        <ele>39.761736</ele>
        <time>2022-05-03T13:19:46.647Z</time>
      </trkpt>
      <trkpt lat="41.29881" lon="19.50309">
        <ele>40.088767</ele>
        <time>2022-05-03T13:19:48.645Z</time>
      </trkpt>
      <trkpt lat="41.29889" lon="19.50299">
        <ele>40.421838</ele>
        <time>2022-05-03T13:19:50.663Z</time>
      </trkpt>
      <trkpt lat="41.29895" lon="19.50289">
        <ele>40.742492</ele>
        <time>2022-05-03T13:19:52.672Z</time>
      </trkpt>
      <trkpt lat="41.29902" lon="19.50279">
        <ele>41.050159</ele>
        <time>2022-05-03T13:19:54.628Z</time>
      </trkpt>
      <trkpt lat="41.29908" lon="19.5027">
        <ele>41.349755</ele>
        <time>2022-05-03T13:19:56.662Z</time>
      </trkpt>
      <trkpt lat="41.29917" lon="19.50257">
        <ele>41.765982</ele>
        <time>2022-05-03T13:19:59.651Z</time>
      </trkpt>
      <trkpt lat="41.29924" lon="19.50248">
        <ele>42.061147</ele>
        <time>2022-05-03T13:20:01.645Z</time>
      </trkpt>
      <trkpt lat="41.2993" lon="19.50238">
        <ele>42.364945</ele>
        <time>2022-05-03T13:20:03.642Z</time>
      </trkpt>
      <trkpt lat="41.29936" lon="19.50229">
        <ele>42.654775</ele>
        <time>2022-05-03T13:20:05.629Z</time>
      </trkpt>
      <trkpt lat="41.29944" lon="19.50216">
        <ele>43.046119</ele>
        <time>2022-05-03T13:20:08.692Z</time>
      </trkpt>
      <trkpt lat="41.29951" lon="19.50204">
        <ele>43.402321</ele>
        <time>2022-05-03T13:20:11.645Z</time>
      </trkpt>
      <trkpt lat="41.29959" lon="19.50191">
        <ele>43.803454</ele>
        <time>2022-05-03T13:20:14.680Z</time>
      </trkpt>
      <trkpt lat="41.29965" lon="19.50182">
        <ele>44.094292</ele>
        <time>2022-05-03T13:20:16.644Z</time>
      </trkpt>
      <trkpt lat="41.29973" lon="19.50174">
        <ele>44.390934</ele>
        <time>2022-05-03T13:20:18.664Z</time>
      </trkpt>
      <trkpt lat="41.29978" lon="19.50164">
        <ele>44.67831</ele>
        <time>2022-05-03T13:20:20.639Z</time>
      </trkpt>
      <trkpt lat="41.29984" lon="19.50155">
        <ele>44.97453</ele>
        <time>2022-05-03T13:20:22.654Z</time>
      </trkpt>
      <trkpt lat="41.29991" lon="19.50145">
        <ele>45.788135</ele>
        <time>2022-05-03T13:20:24.642Z</time>
      </trkpt>
      <trkpt lat="41.29997" lon="19.50135">
        <ele>46.69217</ele>
        <time>2022-05-03T13:20:26.645Z</time>
      </trkpt>
      <trkpt lat="41.30002" lon="19.50124">
        <ele>47.651513</ele>
        <time>2022-05-03T13:20:28.711Z</time>
      </trkpt>
      <trkpt lat="41.30009" lon="19.50114">
        <ele>48.61141</ele>
        <time>2022-05-03T13:20:30.638Z</time>
      </trkpt>
      <trkpt lat="41.30015" lon="19.50106">
        <ele>49.491147</ele>
        <time>2022-05-03T13:20:32.645Z</time>
      </trkpt>
      <trkpt lat="41.30021" lon="19.50096">
        <ele>50.379268</ele>
        <time>2022-05-03T13:20:34.648Z</time>
      </trkpt>
      <trkpt lat="41.30029" lon="19.50086">
        <ele>51.361761</ele>
        <time>2022-05-03T13:20:36.648Z</time>
      </trkpt>
      <trkpt lat="41.30037" lon="19.50078">
        <ele>52.357656</ele>
        <time>2022-05-03T13:20:38.660Z</time>
      </trkpt>
      <trkpt lat="41.30043" lon="19.50067">
        <ele>53.338866</ele>
        <time>2022-05-03T13:20:40.631Z</time>
      </trkpt>
      <trkpt lat="41.30049" lon="19.50056">
        <ele>54.306399</ele>
        <time>2022-05-03T13:20:42.670Z</time>
      </trkpt>
      <trkpt lat="41.3006" lon="19.50044">
        <ele>55.639107</ele>
        <time>2022-05-03T13:20:45.718Z</time>
      </trkpt>
      <trkpt lat="41.30066" lon="19.50034">
        <ele>56.58892</ele>
        <time>2022-05-03T13:20:47.644Z</time>
      </trkpt>
      <trkpt lat="41.30071" lon="19.50022">
        <ele>57.586432</ele>
        <time>2022-05-03T13:20:49.641Z</time>
      </trkpt>
      <trkpt lat="41.30078" lon="19.50012">
        <ele>58.572435</ele>
        <time>2022-05-03T13:20:51.647Z</time>
      </trkpt>
      <trkpt lat="41.30086" lon="19.50004">
        <ele>59.500873</ele>
        <time>2022-05-03T13:20:53.649Z</time>
      </trkpt>
      <trkpt lat="41.30093" lon="19.49994">
        <ele>60.423165</ele>
        <time>2022-05-03T13:20:55.705Z</time>
      </trkpt>
      <trkpt lat="41.301" lon="19.49981">
        <ele>61.590296</ele>
        <time>2022-05-03T13:20:58.644Z</time>
      </trkpt>
      <trkpt lat="41.30103" lon="19.4997">
        <ele>62.610428</ele>
        <time>2022-05-03T13:21:01.639Z</time>
      </trkpt>
      <trkpt lat="41.30109" lon="19.4996">
        <ele>63.993</ele>
        <time>2022-05-03T13:21:05.642Z</time>
      </trkpt>
      <trkpt lat="41.30119" lon="19.4995">
        <ele>65.762368</ele>
        <time>2022-05-03T13:21:09.668Z</time>
      </trkpt>
      <trkpt lat="41.30128" lon="19.49944">
        <ele>67.249776</ele>
        <time>2022-05-03T13:21:12.643Z</time>
      </trkpt>
      <trkpt lat="41.30135" lon="19.49934">
        <ele>68.768279</ele>
        <time>2022-05-03T13:21:15.631Z</time>
      </trkpt>
      <trkpt lat="41.30138" lon="19.49922">
        <ele>70.196857</ele>
        <time>2022-05-03T13:21:18.657Z</time>
      </trkpt>
      <trkpt lat="41.30144" lon="19.49912">
        <ele>71.570947</ele>
        <time>2022-05-03T13:21:21.637Z</time>
      </trkpt>
      <trkpt lat="41.30152" lon="19.499">
        <ele>73.385245</ele>
        <time>2022-05-03T13:21:25.633Z</time>
      </trkpt>
      <trkpt lat="41.30159" lon="19.4989">
        <ele>74.85316</ele>
        <time>2022-05-03T13:21:28.668Z</time>
      </trkpt>
      <trkpt lat="41.30171" lon="19.49879">
        <ele>76.980854</ele>
        <time>2022-05-03T13:21:31.639Z</time>
      </trkpt>
      <trkpt lat="41.30181" lon="19.49872">
        <ele>78.547832</ele>
        <time>2022-05-03T13:21:33.643Z</time>
      </trkpt>
      <trkpt lat="41.30188" lon="19.49865">
        <ele>79.926085</ele>
        <time>2022-05-03T13:21:35.646Z</time>
      </trkpt>
      <trkpt lat="41.30198" lon="19.49855">
        <ele>81.738987</ele>
        <time>2022-05-03T13:21:38.641Z</time>
      </trkpt>
      <trkpt lat="41.30207" lon="19.49845">
        <ele>83.380194</ele>
        <time>2022-05-03T13:21:41.625Z</time>
      </trkpt>
      <trkpt lat="41.30214" lon="19.49837">
        <ele>84.760583</ele>
        <time>2022-05-03T13:21:43.629Z</time>
      </trkpt>
      <trkpt lat="41.30222" lon="19.49825">
        <ele>86.589628</ele>
        <time>2022-05-03T13:21:46.657Z</time>
      </trkpt>
      <trkpt lat="41.30228" lon="19.49815">
        <ele>87.969286</ele>
        <time>2022-05-03T13:21:48.684Z</time>
      </trkpt>
      <trkpt lat="41.30235" lon="19.49805">
        <ele>88.152999</ele>
        <time>2022-05-03T13:21:50.646Z</time>
      </trkpt>
      <trkpt lat="41.30242" lon="19.49794">
        <ele>87.52814</ele>
        <time>2022-05-03T13:21:53.648Z</time>
      </trkpt>
      <trkpt lat="41.30248" lon="19.49784">
        <ele>86.968448</ele>
        <time>2022-05-03T13:21:56.648Z</time>
      </trkpt>
      <trkpt lat="41.30256" lon="19.49773">
        <ele>86.340167</ele>
        <time>2022-05-03T13:21:59.668Z</time>
      </trkpt>
      <trkpt lat="41.30262" lon="19.49764">
        <ele>85.795522</ele>
        <time>2022-05-03T13:22:02.652Z</time>
      </trkpt>
      <trkpt lat="41.3027" lon="19.49754">
        <ele>85.210244</ele>
        <time>2022-05-03T13:22:05.682Z</time>
      </trkpt>
      <trkpt lat="41.30278" lon="19.49743">
        <ele>84.532613</ele>
        <time>2022-05-03T13:22:08.642Z</time>
      </trkpt>
      <trkpt lat="41.30285" lon="19.4973">
        <ele>83.833779</ele>
        <time>2022-05-03T13:22:11.641Z</time>
      </trkpt>
      <trkpt lat="41.30293" lon="19.4972">
        <ele>83.213023</ele>
        <time>2022-05-03T13:22:13.653Z</time>
      </trkpt>
      <trkpt lat="41.30301" lon="19.4971">
        <ele>82.597702</ele>
        <time>2022-05-03T13:22:15.654Z</time>
      </trkpt>
      <trkpt lat="41.30306" lon="19.49698">
        <ele>82.013206</ele>
        <time>2022-05-03T13:22:17.638Z</time>
      </trkpt>
      <trkpt lat="41.30312" lon="19.49688">
        <ele>81.450032</ele>
        <time>2022-05-03T13:22:19.630Z</time>
      </trkpt>
      <trkpt lat="41.30322" lon="19.49676">
        <ele>80.696413</ele>
        <time>2022-05-03T13:22:22.676Z</time>
      </trkpt>
      <trkpt lat="41.30331" lon="19.49662">
        <ele>79.927825</ele>
        <time>2022-05-03T13:22:25.640Z</time>
      </trkpt>
      <trkpt lat="41.30337" lon="19.49653">
        <ele>79.409764</ele>
        <time>2022-05-03T13:22:27.636Z</time>
      </trkpt>
      <trkpt lat="41.30344" lon="19.49639">
        <ele>78.671828</ele>
        <time>2022-05-03T13:22:30.625Z</time>
      </trkpt>
      <trkpt lat="41.3035" lon="19.49627">
        <ele>78.149741</ele>
        <time>2022-05-03T13:22:33.671Z</time>
      </trkpt>
      <trkpt lat="41.30355" lon="19.49615">
        <ele>77.762418</ele>
        <time>2022-05-03T13:22:36.644Z</time>
      </trkpt>
      <trkpt lat="41.30361" lon="19.49606">
        <ele>77.435614</ele>
        <time>2022-05-03T13:22:39.671Z</time>
      </trkpt>
      <trkpt lat="41.3037" lon="19.49601">
        <ele>77.097266</ele>
        <time>2022-05-03T13:22:41.643Z</time>
      </trkpt>
      <trkpt lat="41.30378" lon="19.49589">
        <ele>76.673617</ele>
        <time>2022-05-03T13:22:44.647Z</time>
      </trkpt>
      <trkpt lat="41.30386" lon="19.49578">
        <ele>76.239013</ele>
        <time>2022-05-03T13:22:47.645Z</time>
      </trkpt>
      <trkpt lat="41.30393" lon="19.49566">
        <ele>75.820636</ele>
        <time>2022-05-03T13:22:50.640Z</time>
      </trkpt>
      <trkpt lat="41.30401" lon="19.49554">
        <ele>75.388038</ele>
        <time>2022-05-03T13:22:53.640Z</time>
      </trkpt>
      <trkpt lat="41.30408" lon="19.49541">
        <ele>74.951018</ele>
        <time>2022-05-03T13:22:56.654Z</time>
      </trkpt>
      <trkpt lat="41.30418" lon="19.49528">
        <ele>74.444686</ele>
        <time>2022-05-03T13:22:59.637Z</time>
      </trkpt>
      <trkpt lat="41.30429" lon="19.49522">
        <ele>74.004846</ele>
        <time>2022-05-03T13:23:02.657Z</time>
      </trkpt>
      <trkpt lat="41.30438" lon="19.49513">
        <ele>73.598497</ele>
        <time>2022-05-03T13:23:05.656Z</time>
      </trkpt>
      <trkpt lat="41.30445" lon="19.49499">
        <ele>73.150592</ele>
        <time>2022-05-03T13:23:08.680Z</time>
      </trkpt>
      <trkpt lat="41.30451" lon="19.49489">
        <ele>72.803346</ele>
        <time>2022-05-03T13:23:10.643Z</time>
      </trkpt>
      <trkpt lat="41.30459" lon="19.49476">
        <ele>72.33795</ele>
        <time>2022-05-03T13:23:13.649Z</time>
      </trkpt>
      <trkpt lat="41.30465" lon="19.49464">
        <ele>71.936062</ele>
        <time>2022-05-03T13:23:16.638Z</time>
      </trkpt>
      <trkpt lat="41.30474" lon="19.49454">
        <ele>71.68522</ele>
        <time>2022-05-03T13:23:20.644Z</time>
      </trkpt>
      <trkpt lat="41.30483" lon="19.49445">
        <ele>71.557995</ele>
        <time>2022-05-03T13:23:24.637Z</time>
      </trkpt>
      <trkpt lat="41.3049" lon="19.49436">
        <ele>71.453458</ele>
        <time>2022-05-03T13:23:29.651Z</time>
      </trkpt>
      <trkpt lat="41.30496" lon="19.49425">
        <ele>71.342918</ele>
        <time>2022-05-03T13:23:33.650Z</time>
      </trkpt>
      <trkpt lat="41.30501" lon="19.49413">
        <ele>71.222438</ele>
        <time>2022-05-03T13:23:37.643Z</time>
      </trkpt>
      <trkpt lat="41.30507" lon="19.49401">
        <ele>71.110941</ele>
        <time>2022-05-03T13:23:41.642Z</time>
      </trkpt>
      <trkpt lat="41.30517" lon="19.49396">
        <ele>70.993114</ele>
        <time>2022-05-03T13:23:44.651Z</time>
      </trkpt>
      <trkpt lat="41.30526" lon="19.49386">
        <ele>70.867059</ele>
        <time>2022-05-03T13:23:47.643Z</time>
      </trkpt>
      <trkpt lat="41.30535" lon="19.49376">
        <ele>70.739159</ele>
        <time>2022-05-03T13:23:50.645Z</time>
      </trkpt>
      <trkpt lat="41.30545" lon="19.49372">
        <ele>70.622671</ele>
        <time>2022-05-03T13:23:52.678Z</time>
      </trkpt>
      <trkpt lat="41.30557" lon="19.49362">
        <ele>70.469919</ele>
        <time>2022-05-03T13:23:55.634Z</time>
      </trkpt>
      <trkpt lat="41.30567" lon="19.49352">
        <ele>70.324295</ele>
        <time>2022-05-03T13:23:58.642Z</time>
      </trkpt>
      <trkpt lat="41.30578" lon="19.49342">
        <ele>70.182915</ele>
        <time>2022-05-03T13:24:01.640Z</time>
      </trkpt>
      <trkpt lat="41.30585" lon="19.49334">
        <ele>70.082761</ele>
        <time>2022-05-03T13:24:03.675Z</time>
      </trkpt>
      <trkpt lat="41.30596" lon="19.49327">
        <ele>69.950669</ele>
        <time>2022-05-03T13:24:06.638Z</time>
      </trkpt>
      <trkpt lat="41.30606" lon="19.49316">
        <ele>69.811609</ele>
        <time>2022-05-03T13:24:09.646Z</time>
      </trkpt>
      <trkpt lat="41.30612" lon="19.49307">
        <ele>69.656468</ele>
        <time>2022-05-03T13:24:11.654Z</time>
      </trkpt>
      <trkpt lat="41.3062" lon="19.49295">
        <ele>69.418886</ele>
        <time>2022-05-03T13:24:14.685Z</time>
      </trkpt>
      <trkpt lat="41.30629" lon="19.49284">
        <ele>69.18815</ele>
        <time>2022-05-03T13:24:17.643Z</time>
      </trkpt>
      <trkpt lat="41.30636" lon="19.49271">
        <ele>68.957203</ele>
        <time>2022-05-03T13:24:20.654Z</time>
      </trkpt>
      <trkpt lat="41.30641" lon="19.49259">
        <ele>68.758079</ele>
        <time>2022-05-03T13:24:23.652Z</time>
      </trkpt>
      <trkpt lat="41.30646" lon="19.49245">
        <ele>68.528483</ele>
        <time>2022-05-03T13:24:27.642Z</time>
      </trkpt>
      <trkpt lat="41.30652" lon="19.49232">
        <ele>68.304585</ele>
        <time>2022-05-03T13:24:31.652Z</time>
      </trkpt>
      <trkpt lat="41.30657" lon="19.49219">
        <ele>68.093652</ele>
        <time>2022-05-03T13:24:35.641Z</time>
      </trkpt>
      <trkpt lat="41.30663" lon="19.49208">
        <ele>67.889599</ele>
        <time>2022-05-03T13:24:39.633Z</time>
      </trkpt>
      <trkpt lat="41.3067" lon="19.49196">
        <ele>67.67266</ele>
        <time>2022-05-03T13:24:43.651Z</time>
      </trkpt>
      <trkpt lat="41.30675" lon="19.49186">
        <ele>67.489611</ele>
        <time>2022-05-03T13:24:46.642Z</time>
      </trkpt>
      <trkpt lat="41.3068" lon="19.49174">
        <ele>67.305723</ele>
        <time>2022-05-03T13:24:50.621Z</time>
      </trkpt>
      <trkpt lat="41.30677" lon="19.49161">
        <ele>67.105221</ele>
        <time>2022-05-03T13:24:53.626Z</time>
      </trkpt>
      <trkpt lat="41.30667" lon="19.49169">
        <ele>66.886946</ele>
        <time>2022-05-03T13:24:57.663Z</time>
      </trkpt>
      <trkpt lat="41.30662" lon="19.49182">
        <ele>66.669673</ele>
        <time>2022-05-03T13:25:01.639Z</time>
      </trkpt>
      <trkpt lat="41.30659" lon="19.49194">
        <ele>66.489437</ele>
        <time>2022-05-03T13:25:05.635Z</time>
      </trkpt>
      <trkpt lat="41.30651" lon="19.492">
        <ele>66.305374</ele>
        <time>2022-05-03T13:25:10.644Z</time>
      </trkpt>
      <trkpt lat="41.30642" lon="19.49194">
        <ele>65.600193</ele>
        <time>2022-05-03T13:25:14.664Z</time>
      </trkpt>
      <trkpt lat="41.30632" lon="19.49187">
        <ele>64.757006</ele>
        <time>2022-05-03T13:25:17.623Z</time>
      </trkpt>
      <trkpt lat="41.30623" lon="19.4918">
        <ele>63.95092</ele>
        <time>2022-05-03T13:25:20.677Z</time>
      </trkpt>
      <trkpt lat="41.30615" lon="19.49169">
        <ele>63.09672</ele>
        <time>2022-05-03T13:25:23.625Z</time>
      </trkpt>
      <trkpt lat="41.30607" lon="19.49158">
        <ele>62.269061</ele>
        <time>2022-05-03T13:25:26.634Z</time>
      </trkpt>
      <trkpt lat="41.306" lon="19.49146">
        <ele>61.429828</ele>
        <time>2022-05-03T13:25:30.625Z</time>
      </trkpt>
      <trkpt lat="41.30595" lon="19.49132">
        <ele>60.549443</ele>
        <time>2022-05-03T13:25:34.647Z</time>
      </trkpt>
      <trkpt lat="41.30589" lon="19.49121">
        <ele>59.781257</ele>
        <time>2022-05-03T13:25:37.628Z</time>
      </trkpt>
      <trkpt lat="41.3058" lon="19.49111">
        <ele>58.908891</ele>
        <time>2022-05-03T13:25:40.625Z</time>
      </trkpt>
      <trkpt lat="41.30575" lon="19.491">
        <ele>58.202239</ele>
        <time>2022-05-03T13:25:42.631Z</time>
      </trkpt>
      <trkpt lat="41.30575" lon="19.49088">
        <ele>57.500575</ele>
        <time>2022-05-03T13:25:47.636Z</time>
      </trkpt>
      <trkpt lat="41.30583" lon="19.49077">
        <ele>56.661128</ele>
        <time>2022-05-03T13:25:51.632Z</time>
      </trkpt>
      <trkpt lat="41.30591" lon="19.49067">
        <ele>55.835679</ele>
        <time>2022-05-03T13:25:55.631Z</time>
      </trkpt>
      <trkpt lat="41.30599" lon="19.49059">
        <ele>55.100748</ele>
        <time>2022-05-03T13:25:58.642Z</time>
      </trkpt>
      <trkpt lat="41.30606" lon="19.49048">
        <ele>54.278161</ele>
        <time>2022-05-03T13:26:01.644Z</time>
      </trkpt>
      <trkpt lat="41.30613" lon="19.49039">
        <ele>53.524628</ele>
        <time>2022-05-03T13:26:04.634Z</time>
      </trkpt>
      <trkpt lat="41.30621" lon="19.49026">
        <ele>53.00936</ele>
        <time>2022-05-03T13:26:07.649Z</time>
      </trkpt>
      <trkpt lat="41.3063" lon="19.49016">
        <ele>53.579997</ele>
        <time>2022-05-03T13:26:10.638Z</time>
      </trkpt>
      <trkpt lat="41.30639" lon="19.49006">
        <ele>54.130491</ele>
        <time>2022-05-03T13:26:13.637Z</time>
      </trkpt>
      <trkpt lat="41.30646" lon="19.48995">
        <ele>54.650139</ele>
        <time>2022-05-03T13:26:16.620Z</time>
      </trkpt>
      <trkpt lat="41.30655" lon="19.48983">
        <ele>55.259107</ele>
        <time>2022-05-03T13:26:19.637Z</time>
      </trkpt>
      <trkpt lat="41.30663" lon="19.48972">
        <ele>55.808402</ele>
        <time>2022-05-03T13:26:22.631Z</time>
      </trkpt>
      <trkpt lat="41.30671" lon="19.48962">
        <ele>56.337324</ele>
        <time>2022-05-03T13:26:25.633Z</time>
      </trkpt>
      <trkpt lat="41.30677" lon="19.48953">
        <ele>56.780482</ele>
        <time>2022-05-03T13:26:28.635Z</time>
      </trkpt>
      <trkpt lat="41.30683" lon="19.48939">
        <ele>57.345576</ele>
        <time>2022-05-03T13:26:31.623Z</time>
      </trkpt>
      <trkpt lat="41.30682" lon="19.48927">
        <ele>57.778224</ele>
        <time>2022-05-03T13:26:34.631Z</time>
      </trkpt>
      <trkpt lat="41.30682" lon="19.48915">
        <ele>58.220091</ele>
        <time>2022-05-03T13:26:38.622Z</time>
      </trkpt>
      <trkpt lat="41.30685" lon="19.48903">
        <ele>58.685851</ele>
        <time>2022-05-03T13:26:44.653Z</time>
      </trkpt>
      <trkpt lat="41.30691" lon="19.48893">
        <ele>59.130156</ele>
        <time>2022-05-03T13:26:48.635Z</time>
      </trkpt>
      <trkpt lat="41.30696" lon="19.48883">
        <ele>59.577203</ele>
        <time>2022-05-03T13:26:51.632Z</time>
      </trkpt>
      <trkpt lat="41.30701" lon="19.4887">
        <ele>60.096103</ele>
        <time>2022-05-03T13:26:54.614Z</time>
      </trkpt>
      <trkpt lat="41.30706" lon="19.4886">
        <ele>60.550885</ele>
        <time>2022-05-03T13:26:57.636Z</time>
      </trkpt>
      <trkpt lat="41.30708" lon="19.48846">
        <ele>61.061323</ele>
        <time>2022-05-03T13:27:00.636Z</time>
      </trkpt>
      <trkpt lat="41.30714" lon="19.48834">
        <ele>61.545118</ele>
        <time>2022-05-03T13:27:03.654Z</time>
      </trkpt>
      <trkpt lat="41.30722" lon="19.48821">
        <ele>61.902009</ele>
        <time>2022-05-03T13:27:06.622Z</time>
      </trkpt>
      <trkpt lat="41.30729" lon="19.48807">
        <ele>62.262398</ele>
        <time>2022-05-03T13:27:09.633Z</time>
      </trkpt>
      <trkpt lat="41.30739" lon="19.488">
        <ele>62.584242</ele>
        <time>2022-05-03T13:27:12.635Z</time>
      </trkpt>
      <trkpt lat="41.30747" lon="19.48791">
        <ele>62.878041</ele>
        <time>2022-05-03T13:27:15.627Z</time>
      </trkpt>
      <trkpt lat="41.30758" lon="19.48782">
        <ele>63.256632</ele>
        <time>2022-05-03T13:27:18.641Z</time>
      </trkpt>
      <trkpt lat="41.30766" lon="19.48775">
        <ele>63.530472</ele>
        <time>2022-05-03T13:27:20.619Z</time>
      </trkpt>
      <trkpt lat="41.30774" lon="19.48763">
        <ele>63.875908</ele>
        <time>2022-05-03T13:27:23.629Z</time>
      </trkpt>
      <trkpt lat="41.3078" lon="19.48754">
        <ele>64.140414</ele>
        <time>2022-05-03T13:27:25.628Z</time>
      </trkpt>
      <trkpt lat="41.30788" lon="19.48743">
        <ele>64.475175</ele>
        <time>2022-05-03T13:27:28.628Z</time>
      </trkpt>
      <trkpt lat="41.30794" lon="19.48733">
        <ele>64.759272</ele>
        <time>2022-05-03T13:27:32.636Z</time>
      </trkpt>
      <trkpt lat="41.30802" lon="19.48725">
        <ele>65.035983</ele>
        <time>2022-05-03T13:27:35.624Z</time>
      </trkpt>
      <trkpt lat="41.30812" lon="19.48716">
        <ele>65.392469</ele>
        <time>2022-05-03T13:27:39.644Z</time>
      </trkpt>
      <trkpt lat="41.30821" lon="19.48708">
        <ele>65.714119</ele>
        <time>2022-05-03T13:27:42.631Z</time>
      </trkpt>
      <trkpt lat="41.30829" lon="19.48695">
        <ele>66.062221</ele>
        <time>2022-05-03T13:27:45.621Z</time>
      </trkpt>
      <trkpt lat="41.30836" lon="19.48684">
        <ele>66.374491</ele>
        <time>2022-05-03T13:27:48.626Z</time>
      </trkpt>
      <trkpt lat="41.30843" lon="19.48671">
        <ele>66.616836</ele>
        <time>2022-05-03T13:27:52.639Z</time>
      </trkpt>
      <trkpt lat="41.30849" lon="19.48661">
        <ele>66.377084</ele>
        <time>2022-05-03T13:27:55.615Z</time>
      </trkpt>
      <trkpt lat="41.30855" lon="19.48651">
        <ele>66.153567</ele>
        <time>2022-05-03T13:27:58.623Z</time>
      </trkpt>
      <trkpt lat="41.3086" lon="19.48641">
        <ele>65.920145</ele>
        <time>2022-05-03T13:28:01.622Z</time>
      </trkpt>
      <trkpt lat="41.30868" lon="19.48631">
        <ele>65.657357</ele>
        <time>2022-05-03T13:28:04.626Z</time>
      </trkpt>
      <trkpt lat="41.30876" lon="19.4862">
        <ele>65.385261</ele>
        <time>2022-05-03T13:28:07.645Z</time>
      </trkpt>
      <trkpt lat="41.30882" lon="19.4861">
        <ele>65.144563</ele>
        <time>2022-05-03T13:28:11.632Z</time>
      </trkpt>
      <trkpt lat="41.30889" lon="19.48602">
        <ele>64.91152</ele>
        <time>2022-05-03T13:28:14.616Z</time>
      </trkpt>
      <trkpt lat="41.30899" lon="19.48593">
        <ele>64.622397</ele>
        <time>2022-05-03T13:28:17.627Z</time>
      </trkpt>
      <trkpt lat="41.30905" lon="19.4858">
        <ele>64.344334</ele>
        <time>2022-05-03T13:28:20.640Z</time>
      </trkpt>
      <trkpt lat="41.30915" lon="19.48568">
        <ele>64.023289</ele>
        <time>2022-05-03T13:28:23.634Z</time>
      </trkpt>
      <trkpt lat="41.30922" lon="19.48556">
        <ele>63.737244</ele>
        <time>2022-05-03T13:28:26.634Z</time>
      </trkpt>
      <trkpt lat="41.30932" lon="19.48544">
        <ele>63.427257</ele>
        <time>2022-05-03T13:28:29.630Z</time>
      </trkpt>
      <trkpt lat="41.3094" lon="19.48532">
        <ele>63.127696</ele>
        <time>2022-05-03T13:28:32.667Z</time>
      </trkpt>
      <trkpt lat="41.30947" lon="19.48521">
        <ele>62.860513</ele>
        <time>2022-05-03T13:28:35.632Z</time>
      </trkpt>
      <trkpt lat="41.30953" lon="19.4851">
        <ele>62.622681</ele>
        <time>2022-05-03T13:28:38.638Z</time>
      </trkpt>
      <trkpt lat="41.30959" lon="19.48501">
        <ele>62.398271</ele>
        <time>2022-05-03T13:28:43.622Z</time>
      </trkpt>
      <trkpt lat="41.30968" lon="19.48496">
        <ele>62.111191</ele>
        <time>2022-05-03T13:28:47.632Z</time>
      </trkpt>
      <trkpt lat="41.30972" lon="19.48485">
        <ele>61.764577</ele>
        <time>2022-05-03T13:28:52.648Z</time>
      </trkpt>
      <trkpt lat="41.3098" lon="19.48478">
        <ele>61.407312</ele>
        <time>2022-05-03T13:28:57.617Z</time>
      </trkpt>
      <trkpt lat="41.30991" lon="19.48475">
        <ele>60.974807</ele>
        <time>2022-05-03T13:29:01.653Z</time>
      </trkpt>
      <trkpt lat="41.31001" lon="19.48468">
        <ele>60.559301</ele>
        <time>2022-05-03T13:29:04.628Z</time>
      </trkpt>
      <trkpt lat="41.31009" lon="19.48462">
        <ele>60.198711</ele>
        <time>2022-05-03T13:29:10.621Z</time>
      </trkpt>
      <trkpt lat="41.3102" lon="19.48462">
        <ele>59.786193</ele>
        <time>2022-05-03T13:29:15.635Z</time>
      </trkpt>
      <trkpt lat="41.31031" lon="19.48458">
        <ele>59.354054</ele>
        <time>2022-05-03T13:29:18.658Z</time>
      </trkpt>
      <trkpt lat="41.31037" lon="19.48444">
        <ele>58.921688</ele>
        <time>2022-05-03T13:29:21.624Z</time>
      </trkpt>
      <trkpt lat="41.31043" lon="19.48431">
        <ele>58.48815</ele>
        <time>2022-05-03T13:29:24.619Z</time>
      </trkpt>
      <trkpt lat="41.31045" lon="19.48415">
        <ele>58.028385</ele>
        <time>2022-05-03T13:29:27.634Z</time>
      </trkpt>
      <trkpt lat="41.3105" lon="19.484">
        <ele>57.57253</ele>
        <time>2022-05-03T13:29:30.636Z</time>
      </trkpt>
      <trkpt lat="41.31057" lon="19.48387">
        <ele>57.127481</ele>
        <time>2022-05-03T13:29:33.635Z</time>
      </trkpt>
      <trkpt lat="41.31062" lon="19.48372">
        <ele>56.680204</ele>
        <time>2022-05-03T13:29:36.635Z</time>
      </trkpt>
      <trkpt lat="41.31066" lon="19.4836">
        <ele>56.287426</ele>
        <time>2022-05-03T13:29:39.629Z</time>
      </trkpt>
      <trkpt lat="41.31073" lon="19.4835">
        <ele>55.912663</ele>
        <time>2022-05-03T13:29:42.647Z</time>
      </trkpt>
      <trkpt lat="41.31081" lon="19.48339">
        <ele>55.67557</ele>
        <time>2022-05-03T13:29:45.624Z</time>
      </trkpt>
      <trkpt lat="41.31088" lon="19.48324">
        <ele>56.387529</ele>
        <time>2022-05-03T13:29:48.631Z</time>
      </trkpt>
      <trkpt lat="41.31093" lon="19.48312">
        <ele>56.946904</ele>
        <time>2022-05-03T13:29:50.633Z</time>
      </trkpt>
      <trkpt lat="41.31098" lon="19.48303">
        <ele>57.445871</ele>
        <time>2022-05-03T13:29:52.631Z</time>
      </trkpt>
      <trkpt lat="41.31105" lon="19.48288">
        <ele>58.16273</ele>
        <time>2022-05-03T13:29:55.632Z</time>
      </trkpt>
      <trkpt lat="41.31111" lon="19.48274">
        <ele>58.827908</ele>
        <time>2022-05-03T13:29:58.620Z</time>
      </trkpt>
      <trkpt lat="41.31118" lon="19.48261">
        <ele>59.475459</ele>
        <time>2022-05-03T13:30:01.639Z</time>
      </trkpt>
      <trkpt lat="41.31125" lon="19.48248">
        <ele>60.153268</ele>
        <time>2022-05-03T13:30:04.623Z</time>
      </trkpt>
      <trkpt lat="41.31132" lon="19.48235">
        <ele>60.794337</ele>
        <time>2022-05-03T13:30:07.626Z</time>
      </trkpt>
      <trkpt lat="41.31139" lon="19.48223">
        <ele>61.441931</ele>
        <time>2022-05-03T13:30:10.647Z</time>
      </trkpt>
      <trkpt lat="41.31147" lon="19.48209">
        <ele>62.136193</ele>
        <time>2022-05-03T13:30:13.636Z</time>
      </trkpt>
      <trkpt lat="41.31153" lon="19.48196">
        <ele>62.774981</ele>
        <time>2022-05-03T13:30:16.632Z</time>
      </trkpt>
      <trkpt lat="41.3116" lon="19.48183">
        <ele>63.455608</ele>
        <time>2022-05-03T13:30:19.646Z</time>
      </trkpt>
      <trkpt lat="41.31167" lon="19.48171">
        <ele>64.073485</ele>
        <time>2022-05-03T13:30:22.636Z</time>
      </trkpt>
      <trkpt lat="41.31172" lon="19.48158">
        <ele>64.67328</ele>
        <time>2022-05-03T13:30:25.629Z</time>
      </trkpt>
      <trkpt lat="41.31176" lon="19.48146">
        <ele>65.205357</ele>
        <time>2022-05-03T13:30:28.629Z</time>
      </trkpt>
      <trkpt lat="41.31181" lon="19.48133">
        <ele>65.595544</ele>
        <time>2022-05-03T13:30:31.627Z</time>
      </trkpt>
      <trkpt lat="41.31186" lon="19.48121">
        <ele>65.841101</ele>
        <time>2022-05-03T13:30:34.633Z</time>
      </trkpt>
      <trkpt lat="41.31191" lon="19.48107">
        <ele>66.114434</ele>
        <time>2022-05-03T13:30:37.627Z</time>
      </trkpt>
      <trkpt lat="41.31196" lon="19.48092">
        <ele>66.413704</ele>
        <time>2022-05-03T13:30:40.622Z</time>
      </trkpt>
      <trkpt lat="41.31203" lon="19.48077">
        <ele>66.711759</ele>
        <time>2022-05-03T13:30:43.633Z</time>
      </trkpt>
      <trkpt lat="41.3121" lon="19.48064">
        <ele>66.994489</ele>
        <time>2022-05-03T13:30:46.668Z</time>
      </trkpt>
      <trkpt lat="41.31216" lon="19.4805">
        <ele>67.268842</ele>
        <time>2022-05-03T13:30:49.632Z</time>
      </trkpt>
      <trkpt lat="41.3122" lon="19.48037">
        <ele>67.519081</ele>
        <time>2022-05-03T13:30:52.635Z</time>
      </trkpt>
      <trkpt lat="41.31226" lon="19.48026">
        <ele>67.747189</ele>
        <time>2022-05-03T13:30:55.622Z</time>
      </trkpt>
      <trkpt lat="41.31232" lon="19.48014">
        <ele>68.003934</ele>
        <time>2022-05-03T13:30:59.632Z</time>
      </trkpt>
      <trkpt lat="41.31237" lon="19.48001">
        <ele>68.257371</ele>
        <time>2022-05-03T13:31:02.635Z</time>
      </trkpt>
      <trkpt lat="41.31242" lon="19.47989">
        <ele>68.506918</ele>
        <time>2022-05-03T13:31:05.634Z</time>
      </trkpt>
      <trkpt lat="41.31249" lon="19.47975">
        <ele>68.792411</ele>
        <time>2022-05-03T13:31:08.636Z</time>
      </trkpt>
      <trkpt lat="41.31256" lon="19.47963">
        <ele>69.065154</ele>
        <time>2022-05-03T13:31:11.631Z</time>
      </trkpt>
      <trkpt lat="41.31264" lon="19.47951">
        <ele>69.348911</ele>
        <time>2022-05-03T13:31:14.631Z</time>
      </trkpt>
      <trkpt lat="41.3127" lon="19.47942">
        <ele>69.558088</ele>
        <time>2022-05-03T13:31:16.654Z</time>
      </trkpt>
      <trkpt lat="41.31276" lon="19.47931">
        <ele>69.653594</ele>
        <time>2022-05-03T13:31:18.622Z</time>
      </trkpt>
      <trkpt lat="41.31282" lon="19.4792">
        <ele>69.677138</ele>
        <time>2022-05-03T13:31:20.656Z</time>
      </trkpt>
      <trkpt lat="41.31288" lon="19.4791">
        <ele>69.700541</ele>
        <time>2022-05-03T13:31:22.638Z</time>
      </trkpt>
      <trkpt lat="41.31295" lon="19.47897">
        <ele>69.72986</ele>
        <time>2022-05-03T13:31:25.651Z</time>
      </trkpt>
      <trkpt lat="41.31301" lon="19.47883">
        <ele>69.757119</ele>
        <time>2022-05-03T13:31:28.627Z</time>
      </trkpt>
      <trkpt lat="41.31306" lon="19.47869">
        <ele>69.785016</ele>
        <time>2022-05-03T13:31:31.633Z</time>
      </trkpt>
      <trkpt lat="41.31311" lon="19.47855">
        <ele>69.811501</ele>
        <time>2022-05-03T13:31:34.644Z</time>
      </trkpt>
      <trkpt lat="41.31317" lon="19.47843">
        <ele>69.837003</ele>
        <time>2022-05-03T13:31:37.640Z</time>
      </trkpt>
      <trkpt lat="41.31323" lon="19.4783">
        <ele>69.86442</ele>
        <time>2022-05-03T13:31:40.651Z</time>
      </trkpt>
      <trkpt lat="41.31328" lon="19.47819">
        <ele>69.887384</ele>
        <time>2022-05-03T13:31:43.630Z</time>
      </trkpt>
      <trkpt lat="41.31335" lon="19.47805">
        <ele>69.915627</ele>
        <time>2022-05-03T13:31:46.640Z</time>
      </trkpt>
      <trkpt lat="41.31342" lon="19.47792">
        <ele>69.945377</ele>
        <time>2022-05-03T13:31:49.629Z</time>
      </trkpt>
      <trkpt lat="41.31349" lon="19.47778">
        <ele>69.974468</ele>
        <time>2022-05-03T13:31:52.666Z</time>
      </trkpt>
      <trkpt lat="41.31356" lon="19.47764">
        <ele>70.003981</ele>
        <time>2022-05-03T13:31:55.629Z</time>
      </trkpt>
      <trkpt lat="41.31362" lon="19.47751">
        <ele>70.030602</ele>
        <time>2022-05-03T13:31:58.668Z</time>
      </trkpt>
      <trkpt lat="41.31368" lon="19.47739">
        <ele>70.056407</ele>
        <time>2022-05-03T13:32:01.639Z</time>
      </trkpt>
      <trkpt lat="41.31373" lon="19.47722">
        <ele>70.198866</ele>
        <time>2022-05-03T13:32:04.642Z</time>
      </trkpt>
      <trkpt lat="41.31377" lon="19.47711">
        <ele>70.30467</ele>
        <time>2022-05-03T13:32:06.667Z</time>
      </trkpt>
      <trkpt lat="41.31383" lon="19.47697">
        <ele>70.442753</ele>
        <time>2022-05-03T13:32:09.648Z</time>
      </trkpt>
      <trkpt lat="41.31388" lon="19.47683">
        <ele>70.570787</ele>
        <time>2022-05-03T13:32:12.650Z</time>
      </trkpt>
      <trkpt lat="41.31393" lon="19.4767">
        <ele>70.70128</ele>
        <time>2022-05-03T13:32:15.649Z</time>
      </trkpt>
      <trkpt lat="41.31399" lon="19.47658">
        <ele>70.823293</ele>
        <time>2022-05-03T13:32:18.629Z</time>
      </trkpt>
      <trkpt lat="41.31402" lon="19.47641">
        <ele>70.973627</ele>
        <time>2022-05-03T13:32:21.647Z</time>
      </trkpt>
      <trkpt lat="41.31407" lon="19.47631">
        <ele>71.077472</ele>
        <time>2022-05-03T13:32:23.647Z</time>
      </trkpt>
      <trkpt lat="41.31416" lon="19.47619">
        <ele>71.226797</ele>
        <time>2022-05-03T13:32:26.643Z</time>
      </trkpt>
      <trkpt lat="41.31421" lon="19.47608">
        <ele>71.339045</ele>
        <time>2022-05-03T13:32:28.634Z</time>
      </trkpt>
      <trkpt lat="41.31429" lon="19.47595">
        <ele>71.479001</ele>
        <time>2022-05-03T13:32:31.646Z</time>
      </trkpt>
      <trkpt lat="41.31435" lon="19.47582">
        <ele>71.61794</ele>
        <time>2022-05-03T13:32:34.635Z</time>
      </trkpt>
      <trkpt lat="41.3144" lon="19.47571">
        <ele>71.728658</ele>
        <time>2022-05-03T13:32:37.625Z</time>
      </trkpt>
      <trkpt lat="41.31444" lon="19.47557">
        <ele>71.857927</ele>
        <time>2022-05-03T13:32:41.645Z</time>
      </trkpt>
      <trkpt lat="41.31448" lon="19.47546">
        <ele>71.965014</ele>
        <time>2022-05-03T13:32:44.640Z</time>
      </trkpt>
      <trkpt lat="41.31453" lon="19.47532">
        <ele>72.09037</ele>
        <time>2022-05-03T13:32:47.630Z</time>
      </trkpt>
      <trkpt lat="41.31457" lon="19.4752">
        <ele>71.969946</ele>
        <time>2022-05-03T13:32:50.619Z</time>
      </trkpt>
      <trkpt lat="41.31463" lon="19.47509">
        <ele>71.723452</ele>
        <time>2022-05-03T13:32:53.638Z</time>
      </trkpt>
      <trkpt lat="41.31469" lon="19.47495">
        <ele>71.412141</ele>
        <time>2022-05-03T13:32:56.634Z</time>
      </trkpt>
      <trkpt lat="41.31475" lon="19.4748">
        <ele>71.096279</ele>
        <time>2022-05-03T13:32:59.642Z</time>
      </trkpt>
      <trkpt lat="41.31482" lon="19.47464">
        <ele>70.753338</ele>
        <time>2022-05-03T13:33:02.637Z</time>
      </trkpt>
      <trkpt lat="41.31486" lon="19.47452">
        <ele>70.491031</ele>
        <time>2022-05-03T13:33:04.647Z</time>
      </trkpt>
      <trkpt lat="41.31491" lon="19.47436">
        <ele>70.177045</ele>
        <time>2022-05-03T13:33:07.624Z</time>
      </trkpt>
      <trkpt lat="41.31495" lon="19.47423">
        <ele>69.903998</ele>
        <time>2022-05-03T13:33:10.631Z</time>
      </trkpt>
      <trkpt lat="41.31499" lon="19.47408">
        <ele>69.591139</ele>
        <time>2022-05-03T13:33:13.638Z</time>
      </trkpt>
      <trkpt lat="41.31504" lon="19.47393">
        <ele>69.294747</ele>
        <time>2022-05-03T13:33:16.649Z</time>
      </trkpt>
      <trkpt lat="41.3151" lon="19.47379">
        <ele>68.998165</ele>
        <time>2022-05-03T13:33:19.630Z</time>
      </trkpt>
      <trkpt lat="41.31515" lon="19.47367">
        <ele>68.725549</ele>
        <time>2022-05-03T13:33:22.652Z</time>
      </trkpt>
      <trkpt lat="41.3152" lon="19.47353">
        <ele>68.427297</ele>
        <time>2022-05-03T13:33:25.643Z</time>
      </trkpt>
      <trkpt lat="41.31524" lon="19.47339">
        <ele>68.150304</ele>
        <time>2022-05-03T13:33:28.646Z</time>
      </trkpt>
      <trkpt lat="41.31529" lon="19.47323">
        <ele>67.833955</ele>
        <time>2022-05-03T13:33:31.664Z</time>
      </trkpt>
      <trkpt lat="41.31532" lon="19.47312">
        <ele>67.613816</ele>
        <time>2022-05-03T13:33:33.620Z</time>
      </trkpt>
      <trkpt lat="41.31538" lon="19.473">
        <ele>67.613816</ele>
        <time>2022-05-03T13:33:36.631Z</time>
      </trkpt>
      <trkpt lat="41.31544" lon="19.47288">
        <ele>67.613816</ele>
        <time>2022-05-03T13:33:41.644Z</time>
      </trkpt>
      <trkpt lat="41.31536" lon="19.47279">
        <ele>67.613816</ele>
        <time>2022-05-03T13:34:11.652Z</time>
      </trkpt>
      <trkpt lat="41.31529" lon="19.47288">
        <ele>67.613816</ele>
        <time>2022-05-03T13:34:15.645Z</time>
      </trkpt>
      <trkpt lat="41.31519" lon="19.47289">
        <ele>67.613816</ele>
        <time>2022-05-03T13:34:21.667Z</time>
      </trkpt>
      <trkpt lat="41.31509" lon="19.47281">
        <ele>67.613816</ele>
        <time>2022-05-03T13:34:25.640Z</time>
      </trkpt>
      <trkpt lat="41.315" lon="19.47275">
        <ele>67.613816</ele>
        <time>2022-05-03T13:34:28.645Z</time>
      </trkpt>
      <trkpt lat="41.31492" lon="19.47267">
        <ele>67.613816</ele>
        <time>2022-05-03T13:34:32.639Z</time>
      </trkpt>
      <trkpt lat="41.31486" lon="19.47258">
        <ele>67.613816</ele>
        <time>2022-05-03T13:34:38.619Z</time>
      </trkpt>
      <trkpt lat="41.31485" lon="19.47246">
        <ele>67.613816</ele>
        <time>2022-05-03T13:34:49.732Z</time>
      </trkpt>
      <trkpt lat="41.31486" lon="19.47232">
        <ele>67.613816</ele>
        <time>2022-05-03T13:34:52.632Z</time>
      </trkpt>
      <trkpt lat="41.31491" lon="19.47217">
        <ele>67.613816</ele>
        <time>2022-05-03T13:34:56.641Z</time>
      </trkpt>
      <trkpt lat="41.31491" lon="19.47205">
        <ele>67.613816</ele>
        <time>2022-05-03T13:35:00.634Z</time>
      </trkpt>
      <trkpt lat="41.31484" lon="19.47168">
        <ele>67.613816</ele>
        <time>2022-05-03T13:35:55.670Z</time>
      </trkpt>
      <trkpt lat="41.31475" lon="19.47166">
        <ele>67.613816</ele>
        <time>2022-05-03T13:36:04.647Z</time>
      </trkpt>
      <trkpt lat="41.31466" lon="19.47166">
        <ele>67.613816</ele>
        <time>2022-05-03T13:36:13.639Z</time>
      </trkpt>
      <trkpt lat="41.31456" lon="19.47177">
        <ele>67.613816</ele>
        <time>2022-05-03T13:43:33.675Z</time>
      </trkpt>
      <trkpt lat="41.31465" lon="19.47181">
        <ele>67.613816</ele>
        <time>2022-05-03T13:43:50.632Z</time>
      </trkpt>
      <trkpt lat="41.31468" lon="19.47191">
        <ele>67.613816</ele>
        <time>2022-05-03T13:49:59.616Z</time>
      </trkpt>
    </trkseg>
  </trk>
  <trk>
    <name><![CDATA[Tour d'Europe: étape 672]]></name>
    <extensions>
      <line xmlns="http://www.topografix.com/GPX/gpx_style/0/2">
        <color>0000FF</color>
        <width>4</width>
      </line>
    </extensions>
    <trkseg>
      <trkpt lat="41.17664" lon="20.67606">
        <ele>761.792461</ele>
        <time>2022-05-01T07:07:47.723Z</time>
      </trkpt>
      <trkpt lat="41.17641" lon="20.67614">
        <ele>761.792461</ele>
        <time>2022-05-01T07:18:10.521Z</time>
      </trkpt>
      <trkpt lat="41.17651" lon="20.6761">
        <ele>761.792461</ele>
        <time>2022-05-01T07:18:14.519Z</time>
      </trkpt>
      <trkpt lat="41.17661" lon="20.67608">
        <ele>761.792461</ele>
        <time>2022-05-01T07:18:17.542Z</time>
      </trkpt>
      <trkpt lat="41.17671" lon="20.67608">
        <ele>761.792461</ele>
        <time>2022-05-01T07:18:20.586Z</time>
      </trkpt>
      <trkpt lat="41.17682" lon="20.6761">
        <ele>761.792461</ele>
        <time>2022-05-01T07:18:23.548Z</time>
      </trkpt>
      <trkpt lat="41.17692" lon="20.6761">
        <ele>761.792461</ele>
        <time>2022-05-01T07:18:27.553Z</time>
      </trkpt>
      <trkpt lat="41.17703" lon="20.67608">
        <ele>761.792461</ele>
        <time>2022-05-01T07:18:32.516Z</time>
      </trkpt>
      <trkpt lat="41.17713" lon="20.67604">
        <ele>761.697604</ele>
        <time>2022-05-01T07:18:36.540Z</time>
      </trkpt>
      <trkpt lat="41.17724" lon="20.676">
        <ele>761.547081</ele>
        <time>2022-05-01T07:18:40.521Z</time>
      </trkpt>
      <trkpt lat="41.17733" lon="20.676">
        <ele>761.425551</ele>
        <time>2022-05-01T07:18:43.518Z</time>
      </trkpt>
      <trkpt lat="41.17744" lon="20.67596">
        <ele>761.276833</ele>
        <time>2022-05-01T07:18:47.526Z</time>
      </trkpt>
      <trkpt lat="41.17755" lon="20.67598">
        <ele>761.120307</ele>
        <time>2022-05-01T07:18:51.566Z</time>
      </trkpt>
      <trkpt lat="41.17761" lon="20.67588">
        <ele>760.995316</ele>
        <time>2022-05-01T07:18:59.528Z</time>
      </trkpt>
      <trkpt lat="41.17763" lon="20.67577">
        <ele>760.874124</ele>
        <time>2022-05-01T07:19:03.524Z</time>
      </trkpt>
      <trkpt lat="41.17764" lon="20.67562">
        <ele>760.726634</ele>
        <time>2022-05-01T07:19:07.540Z</time>
      </trkpt>
      <trkpt lat="41.17763" lon="20.6755">
        <ele>760.602114</ele>
        <time>2022-05-01T07:19:10.540Z</time>
      </trkpt>
      <trkpt lat="41.17761" lon="20.67537">
        <ele>760.462197</ele>
        <time>2022-05-01T07:19:13.558Z</time>
      </trkpt>
      <trkpt lat="41.17758" lon="20.67522">
        <ele>760.307925</ele>
        <time>2022-05-01T07:19:16.517Z</time>
      </trkpt>
      <trkpt lat="41.17758" lon="20.6751">
        <ele>760.184651</ele>
        <time>2022-05-01T07:19:19.530Z</time>
      </trkpt>
      <trkpt lat="41.17758" lon="20.67497">
        <ele>760.056654</ele>
        <time>2022-05-01T07:19:22.543Z</time>
      </trkpt>
      <trkpt lat="41.17755" lon="20.67483">
        <ele>759.901412</ele>
        <time>2022-05-01T07:19:25.534Z</time>
      </trkpt>
      <trkpt lat="41.17753" lon="20.67468">
        <ele>759.751129</ele>
        <time>2022-05-01T07:19:28.528Z</time>
      </trkpt>
      <trkpt lat="41.17752" lon="20.67453">
        <ele>759.596585</ele>
        <time>2022-05-01T07:19:31.539Z</time>
      </trkpt>
      <trkpt lat="41.17748" lon="20.67442">
        <ele>759.472041</ele>
        <time>2022-05-01T07:19:33.534Z</time>
      </trkpt>
      <trkpt lat="41.17744" lon="20.67429">
        <ele>759.161557</ele>
        <time>2022-05-01T07:19:35.536Z</time>
      </trkpt>
      <trkpt lat="41.17741" lon="20.67415">
        <ele>758.32851</ele>
        <time>2022-05-01T07:19:37.537Z</time>
      </trkpt>
      <trkpt lat="41.17739" lon="20.67402">
        <ele>757.547869</ele>
        <time>2022-05-01T07:19:39.526Z</time>
      </trkpt>
      <trkpt lat="41.17739" lon="20.67387">
        <ele>756.666587</ele>
        <time>2022-05-01T07:19:42.525Z</time>
      </trkpt>
      <trkpt lat="41.17739" lon="20.67372">
        <ele>755.808791</ele>
        <time>2022-05-01T07:19:45.522Z</time>
      </trkpt>
      <trkpt lat="41.17736" lon="20.6736">
        <ele>755.106282</ele>
        <time>2022-05-01T07:19:50.531Z</time>
      </trkpt>
      <trkpt lat="41.17731" lon="20.67348">
        <ele>754.301604</ele>
        <time>2022-05-01T07:19:53.590Z</time>
      </trkpt>
      <trkpt lat="41.17729" lon="20.67335">
        <ele>753.505012</ele>
        <time>2022-05-01T07:19:56.527Z</time>
      </trkpt>
      <trkpt lat="41.17726" lon="20.6732">
        <ele>752.629222</ele>
        <time>2022-05-01T07:19:59.539Z</time>
      </trkpt>
      <trkpt lat="41.17724" lon="20.67305">
        <ele>751.765603</ele>
        <time>2022-05-01T07:20:02.564Z</time>
      </trkpt>
      <trkpt lat="41.17724" lon="20.67288">
        <ele>750.784609</ele>
        <time>2022-05-01T07:20:05.531Z</time>
      </trkpt>
      <trkpt lat="41.17722" lon="20.67273">
        <ele>749.875734</ele>
        <time>2022-05-01T07:20:08.538Z</time>
      </trkpt>
      <trkpt lat="41.1772" lon="20.67257">
        <ele>748.969971</ele>
        <time>2022-05-01T07:20:11.523Z</time>
      </trkpt>
      <trkpt lat="41.17717" lon="20.67241">
        <ele>747.975417</ele>
        <time>2022-05-01T07:20:14.540Z</time>
      </trkpt>
      <trkpt lat="41.17714" lon="20.67226">
        <ele>747.087148</ele>
        <time>2022-05-01T07:20:17.531Z</time>
      </trkpt>
      <trkpt lat="41.17707" lon="20.67216">
        <ele>746.286151</ele>
        <time>2022-05-01T07:20:19.530Z</time>
      </trkpt>
      <trkpt lat="41.17701" lon="20.67201">
        <ele>745.6163</ele>
        <time>2022-05-01T07:20:22.522Z</time>
      </trkpt>
      <trkpt lat="41.177" lon="20.67187">
        <ele>746.060752</ele>
        <time>2022-05-01T07:20:25.525Z</time>
      </trkpt>
      <trkpt lat="41.17699" lon="20.67171">
        <ele>746.531189</ele>
        <time>2022-05-01T07:20:28.547Z</time>
      </trkpt>
      <trkpt lat="41.17698" lon="20.67156">
        <ele>746.982957</ele>
        <time>2022-05-01T07:20:31.511Z</time>
      </trkpt>
      <trkpt lat="41.17695" lon="20.67143">
        <ele>747.401854</ele>
        <time>2022-05-01T07:20:34.518Z</time>
      </trkpt>
      <trkpt lat="41.17691" lon="20.6713">
        <ele>747.814385</ele>
        <time>2022-05-01T07:20:37.518Z</time>
      </trkpt>
      <trkpt lat="41.17688" lon="20.67116">
        <ele>748.253145</ele>
        <time>2022-05-01T07:20:40.530Z</time>
      </trkpt>
      <trkpt lat="41.17686" lon="20.671">
        <ele>748.729252</ele>
        <time>2022-05-01T07:20:43.538Z</time>
      </trkpt>
      <trkpt lat="41.17684" lon="20.67089">
        <ele>749.087763</ele>
        <time>2022-05-01T07:20:45.543Z</time>
      </trkpt>
      <trkpt lat="41.17681" lon="20.67072">
        <ele>749.608639</ele>
        <time>2022-05-01T07:20:48.533Z</time>
      </trkpt>
      <trkpt lat="41.17678" lon="20.6706">
        <ele>749.992379</ele>
        <time>2022-05-01T07:20:50.546Z</time>
      </trkpt>
      <trkpt lat="41.17675" lon="20.67048">
        <ele>750.358442</ele>
        <time>2022-05-01T07:20:52.548Z</time>
      </trkpt>
      <trkpt lat="41.17671" lon="20.67033">
        <ele>750.840735</ele>
        <time>2022-05-01T07:20:55.542Z</time>
      </trkpt>
      <trkpt lat="41.17667" lon="20.67017">
        <ele>751.362277</ele>
        <time>2022-05-01T07:20:58.525Z</time>
      </trkpt>
      <trkpt lat="41.17664" lon="20.67004">
        <ele>751.742694</ele>
        <time>2022-05-01T07:21:00.545Z</time>
      </trkpt>
      <trkpt lat="41.1766" lon="20.66988">
        <ele>752.275035</ele>
        <time>2022-05-01T07:21:03.518Z</time>
      </trkpt>
      <trkpt lat="41.17657" lon="20.66976">
        <ele>752.636892</ele>
        <time>2022-05-01T07:21:05.529Z</time>
      </trkpt>
      <trkpt lat="41.17654" lon="20.66965">
        <ele>752.459214</ele>
        <time>2022-05-01T07:21:07.527Z</time>
      </trkpt>
      <trkpt lat="41.1765" lon="20.66953">
        <ele>752.136253</ele>
        <time>2022-05-01T07:21:09.509Z</time>
      </trkpt>
      <trkpt lat="41.17646" lon="20.66942">
        <ele>751.843363</ele>
        <time>2022-05-01T07:21:11.534Z</time>
      </trkpt>
      <trkpt lat="41.17641" lon="20.66925">
        <ele>751.394541</ele>
        <time>2022-05-01T07:21:14.515Z</time>
      </trkpt>
      <trkpt lat="41.17638" lon="20.66912">
        <ele>751.066303</ele>
        <time>2022-05-01T07:21:16.532Z</time>
      </trkpt>
      <trkpt lat="41.17636" lon="20.66897">
        <ele>750.692762</ele>
        <time>2022-05-01T07:21:19.531Z</time>
      </trkpt>
      <trkpt lat="41.17635" lon="20.66883">
        <ele>750.347546</ele>
        <time>2022-05-01T07:21:22.524Z</time>
      </trkpt>
      <trkpt lat="41.17636" lon="20.66871">
        <ele>750.045447</ele>
        <time>2022-05-01T07:21:25.536Z</time>
      </trkpt>
      <trkpt lat="41.17634" lon="20.66856">
        <ele>749.67827</ele>
        <time>2022-05-01T07:21:28.532Z</time>
      </trkpt>
      <trkpt lat="41.17631" lon="20.6684">
        <ele>749.278101</ele>
        <time>2022-05-01T07:21:31.537Z</time>
      </trkpt>
      <trkpt lat="41.17628" lon="20.66828">
        <ele>748.964096</ele>
        <time>2022-05-01T07:21:33.522Z</time>
      </trkpt>
      <trkpt lat="41.17626" lon="20.66815">
        <ele>748.630114</ele>
        <time>2022-05-01T07:21:35.540Z</time>
      </trkpt>
      <trkpt lat="41.17623" lon="20.66803">
        <ele>748.322945</ele>
        <time>2022-05-01T07:21:37.545Z</time>
      </trkpt>
      <trkpt lat="41.1762" lon="20.66787">
        <ele>747.915204</ele>
        <time>2022-05-01T07:21:40.526Z</time>
      </trkpt>
      <trkpt lat="41.17616" lon="20.66774">
        <ele>747.573179</ele>
        <time>2022-05-01T07:21:43.511Z</time>
      </trkpt>
      <trkpt lat="41.17612" lon="20.66762">
        <ele>747.260913</ele>
        <time>2022-05-01T07:21:46.539Z</time>
      </trkpt>
      <trkpt lat="41.17609" lon="20.66748">
        <ele>746.886451</ele>
        <time>2022-05-01T07:21:49.547Z</time>
      </trkpt>
      <trkpt lat="41.17606" lon="20.66731">
        <ele>746.414088</ele>
        <time>2022-05-01T07:21:52.561Z</time>
      </trkpt>
      <trkpt lat="41.17603" lon="20.66716">
        <ele>745.93867</ele>
        <time>2022-05-01T07:21:55.531Z</time>
      </trkpt>
      <trkpt lat="41.17601" lon="20.66699">
        <ele>745.458137</ele>
        <time>2022-05-01T07:21:58.526Z</time>
      </trkpt>
      <trkpt lat="41.17599" lon="20.66682">
        <ele>744.957219</ele>
        <time>2022-05-01T07:22:01.516Z</time>
      </trkpt>
      <trkpt lat="41.17596" lon="20.66665">
        <ele>744.448129</ele>
        <time>2022-05-01T07:22:04.533Z</time>
      </trkpt>
      <trkpt lat="41.17593" lon="20.66649">
        <ele>743.96297</ele>
        <time>2022-05-01T07:22:07.530Z</time>
      </trkpt>
      <trkpt lat="41.1759" lon="20.66632">
        <ele>743.46314</ele>
        <time>2022-05-01T07:22:10.521Z</time>
      </trkpt>
      <trkpt lat="41.17588" lon="20.66615">
        <ele>742.972622</ele>
        <time>2022-05-01T07:22:13.542Z</time>
      </trkpt>
      <trkpt lat="41.17585" lon="20.666">
        <ele>742.495085</ele>
        <time>2022-05-01T07:22:16.516Z</time>
      </trkpt>
      <trkpt lat="41.17581" lon="20.66583">
        <ele>741.988111</ele>
        <time>2022-05-01T07:22:19.536Z</time>
      </trkpt>
      <trkpt lat="41.17576" lon="20.66567">
        <ele>741.479206</ele>
        <time>2022-05-01T07:22:22.538Z</time>
      </trkpt>
      <trkpt lat="41.17572" lon="20.66551">
        <ele>740.996104</ele>
        <time>2022-05-01T07:22:25.521Z</time>
      </trkpt>
      <trkpt lat="41.17568" lon="20.66534">
        <ele>740.492302</ele>
        <time>2022-05-01T07:22:28.528Z</time>
      </trkpt>
      <trkpt lat="41.17563" lon="20.66519">
        <ele>740.011133</ele>
        <time>2022-05-01T07:22:31.530Z</time>
      </trkpt>
      <trkpt lat="41.17557" lon="20.66503">
        <ele>739.737434</ele>
        <time>2022-05-01T07:22:34.537Z</time>
      </trkpt>
      <trkpt lat="41.17555" lon="20.66491">
        <ele>739.579665</ele>
        <time>2022-05-01T07:22:36.528Z</time>
      </trkpt>
      <trkpt lat="41.17552" lon="20.66474">
        <ele>739.363848</ele>
        <time>2022-05-01T07:22:39.537Z</time>
      </trkpt>
      <trkpt lat="41.17549" lon="20.66457">
        <ele>739.146214</ele>
        <time>2022-05-01T07:22:42.521Z</time>
      </trkpt>
      <trkpt lat="41.17546" lon="20.6644">
        <ele>738.924932</ele>
        <time>2022-05-01T07:22:45.532Z</time>
      </trkpt>
      <trkpt lat="41.17543" lon="20.66423">
        <ele>738.706467</ele>
        <time>2022-05-01T07:22:48.549Z</time>
      </trkpt>
      <trkpt lat="41.1754" lon="20.66407">
        <ele>738.497735</ele>
        <time>2022-05-01T07:22:51.561Z</time>
      </trkpt>
      <trkpt lat="41.17536" lon="20.6639">
        <ele>738.282548</ele>
        <time>2022-05-01T07:22:54.535Z</time>
      </trkpt>
      <trkpt lat="41.17533" lon="20.66374">
        <ele>738.073775</ele>
        <time>2022-05-01T07:22:57.540Z</time>
      </trkpt>
      <trkpt lat="41.1753" lon="20.66358">
        <ele>737.869084</ele>
        <time>2022-05-01T07:23:00.540Z</time>
      </trkpt>
      <trkpt lat="41.17528" lon="20.66347">
        <ele>737.71885</ele>
        <time>2022-05-01T07:23:02.574Z</time>
      </trkpt>
      <trkpt lat="41.17525" lon="20.66335">
        <ele>737.565536</ele>
        <time>2022-05-01T07:23:04.532Z</time>
      </trkpt>
      <trkpt lat="41.17522" lon="20.66318">
        <ele>737.345785</ele>
        <time>2022-05-01T07:23:07.530Z</time>
      </trkpt>
      <trkpt lat="41.17519" lon="20.66301">
        <ele>737.132075</ele>
        <time>2022-05-01T07:23:10.536Z</time>
      </trkpt>
      <trkpt lat="41.17516" lon="20.66285">
        <ele>736.928586</ele>
        <time>2022-05-01T07:23:13.565Z</time>
      </trkpt>
      <trkpt lat="41.17513" lon="20.66268">
        <ele>737.02369</ele>
        <time>2022-05-01T07:23:16.509Z</time>
      </trkpt>
      <trkpt lat="41.17509" lon="20.66251">
        <ele>737.117424</ele>
        <time>2022-05-01T07:23:19.551Z</time>
      </trkpt>
      <trkpt lat="41.17506" lon="20.66234">
        <ele>737.212339</ele>
        <time>2022-05-01T07:23:22.542Z</time>
      </trkpt>
      <trkpt lat="41.17502" lon="20.66218">
        <ele>737.307593</ele>
        <time>2022-05-01T07:23:25.572Z</time>
      </trkpt>
      <trkpt lat="41.17497" lon="20.66202">
        <ele>737.395191</ele>
        <time>2022-05-01T07:23:28.537Z</time>
      </trkpt>
      <trkpt lat="41.17493" lon="20.66188">
        <ele>737.475941</ele>
        <time>2022-05-01T07:23:31.544Z</time>
      </trkpt>
      <trkpt lat="41.1749" lon="20.66173">
        <ele>737.56282</ele>
        <time>2022-05-01T07:23:34.529Z</time>
      </trkpt>
      <trkpt lat="41.17488" lon="20.66156">
        <ele>737.654819</ele>
        <time>2022-05-01T07:23:37.544Z</time>
      </trkpt>
      <trkpt lat="41.17483" lon="20.6614">
        <ele>737.749613</ele>
        <time>2022-05-01T07:23:40.527Z</time>
      </trkpt>
      <trkpt lat="41.1748" lon="20.66123">
        <ele>737.841723</ele>
        <time>2022-05-01T07:23:43.518Z</time>
      </trkpt>
      <trkpt lat="41.17477" lon="20.66107">
        <ele>737.932243</ele>
        <time>2022-05-01T07:23:46.535Z</time>
      </trkpt>
      <trkpt lat="41.17473" lon="20.6609">
        <ele>738.031558</ele>
        <time>2022-05-01T07:23:49.543Z</time>
      </trkpt>
      <trkpt lat="41.17469" lon="20.66078">
        <ele>738.101649</ele>
        <time>2022-05-01T07:23:51.566Z</time>
      </trkpt>
      <trkpt lat="41.17466" lon="20.66066">
        <ele>738.170488</ele>
        <time>2022-05-01T07:23:53.533Z</time>
      </trkpt>
      <trkpt lat="41.17463" lon="20.66054">
        <ele>738.181678</ele>
        <time>2022-05-01T07:23:55.522Z</time>
      </trkpt>
      <trkpt lat="41.1746" lon="20.66043">
        <ele>738.00127</ele>
        <time>2022-05-01T07:23:57.530Z</time>
      </trkpt>
      <trkpt lat="41.17456" lon="20.6603">
        <ele>737.812719</ele>
        <time>2022-05-01T07:23:59.563Z</time>
      </trkpt>
      <trkpt lat="41.17453" lon="20.66018">
        <ele>737.624169</ele>
        <time>2022-05-01T07:24:01.534Z</time>
      </trkpt>
      <trkpt lat="41.1745" lon="20.66005">
        <ele>737.433274</ele>
        <time>2022-05-01T07:24:03.528Z</time>
      </trkpt>
      <trkpt lat="41.17447" lon="20.65992">
        <ele>737.243755</ele>
        <time>2022-05-01T07:24:05.526Z</time>
      </trkpt>
      <trkpt lat="41.17445" lon="20.6598">
        <ele>737.058605</ele>
        <time>2022-05-01T07:24:07.533Z</time>
      </trkpt>
      <trkpt lat="41.17442" lon="20.65968">
        <ele>736.875836</ele>
        <time>2022-05-01T07:24:09.523Z</time>
      </trkpt>
      <trkpt lat="41.17439" lon="20.65956">
        <ele>736.692072</ele>
        <time>2022-05-01T07:24:11.536Z</time>
      </trkpt>
      <trkpt lat="41.17436" lon="20.65943">
        <ele>736.50216</ele>
        <time>2022-05-01T07:24:13.540Z</time>
      </trkpt>
      <trkpt lat="41.17433" lon="20.65931">
        <ele>736.315585</ele>
        <time>2022-05-01T07:24:15.540Z</time>
      </trkpt>
      <trkpt lat="41.1743" lon="20.65919">
        <ele>736.134456</ele>
        <time>2022-05-01T07:24:17.619Z</time>
      </trkpt>
      <trkpt lat="41.17426" lon="20.65907">
        <ele>735.951372</ele>
        <time>2022-05-01T07:24:19.550Z</time>
      </trkpt>
      <trkpt lat="41.17423" lon="20.65896">
        <ele>735.774281</ele>
        <time>2022-05-01T07:24:21.542Z</time>
      </trkpt>
      <trkpt lat="41.1742" lon="20.65884">
        <ele>735.598597</ele>
        <time>2022-05-01T07:24:23.528Z</time>
      </trkpt>
      <trkpt lat="41.17415" lon="20.65867">
        <ele>735.341379</ele>
        <time>2022-05-01T07:24:26.547Z</time>
      </trkpt>
      <trkpt lat="41.17412" lon="20.65856">
        <ele>735.163415</ele>
        <time>2022-05-01T07:24:28.545Z</time>
      </trkpt>
      <trkpt lat="41.1741" lon="20.65844">
        <ele>734.984079</ele>
        <time>2022-05-01T07:24:30.531Z</time>
      </trkpt>
      <trkpt lat="41.17407" lon="20.65832">
        <ele>734.809012</ele>
        <time>2022-05-01T07:24:32.533Z</time>
      </trkpt>
      <trkpt lat="41.17404" lon="20.6582">
        <ele>734.990537</ele>
        <time>2022-05-01T07:24:34.531Z</time>
      </trkpt>
      <trkpt lat="41.17401" lon="20.65808">
        <ele>735.222492</ele>
        <time>2022-05-01T07:24:36.537Z</time>
      </trkpt>
      <trkpt lat="41.17398" lon="20.65796">
        <ele>735.452973</ele>
        <time>2022-05-01T07:24:38.520Z</time>
      </trkpt>
      <trkpt lat="41.17396" lon="20.65784">
        <ele>735.682502</ele>
        <time>2022-05-01T07:24:40.543Z</time>
      </trkpt>
      <trkpt lat="41.17393" lon="20.65772">
        <ele>735.91625</ele>
        <time>2022-05-01T07:24:42.550Z</time>
      </trkpt>
      <trkpt lat="41.1739" lon="20.6576">
        <ele>736.156652</ele>
        <time>2022-05-01T07:24:44.537Z</time>
      </trkpt>
      <trkpt lat="41.17387" lon="20.65743">
        <ele>736.474919</ele>
        <time>2022-05-01T07:24:47.548Z</time>
      </trkpt>
      <trkpt lat="41.17385" lon="20.65728">
        <ele>736.760168</ele>
        <time>2022-05-01T07:24:50.515Z</time>
      </trkpt>
      <trkpt lat="41.17394" lon="20.65718">
        <ele>737.047133</ele>
        <time>2022-05-01T07:24:53.537Z</time>
      </trkpt>
      <trkpt lat="41.17403" lon="20.65714">
        <ele>737.287272</ele>
        <time>2022-05-01T07:24:55.615Z</time>
      </trkpt>
      <trkpt lat="41.17411" lon="20.65706">
        <ele>737.538029</ele>
        <time>2022-05-01T07:24:57.548Z</time>
      </trkpt>
      <trkpt lat="41.17413" lon="20.65692">
        <ele>737.787434</ele>
        <time>2022-05-01T07:24:59.538Z</time>
      </trkpt>
      <trkpt lat="41.17411" lon="20.65678">
        <ele>738.07018</ele>
        <time>2022-05-01T07:25:01.521Z</time>
      </trkpt>
      <trkpt lat="41.17404" lon="20.65667">
        <ele>738.324644</ele>
        <time>2022-05-01T07:25:03.533Z</time>
      </trkpt>
      <trkpt lat="41.17394" lon="20.6566">
        <ele>738.590202</ele>
        <time>2022-05-01T07:25:05.594Z</time>
      </trkpt>
      <trkpt lat="41.17387" lon="20.65653">
        <ele>738.823414</ele>
        <time>2022-05-01T07:25:07.537Z</time>
      </trkpt>
      <trkpt lat="41.17382" lon="20.65642">
        <ele>739.049995</ele>
        <time>2022-05-01T07:25:09.528Z</time>
      </trkpt>
      <trkpt lat="41.17377" lon="20.6563">
        <ele>739.199379</ele>
        <time>2022-05-01T07:25:11.571Z</time>
      </trkpt>
      <trkpt lat="41.17372" lon="20.65617">
        <ele>739.192199</ele>
        <time>2022-05-01T07:25:13.528Z</time>
      </trkpt>
      <trkpt lat="41.17367" lon="20.65605">
        <ele>739.185132</ele>
        <time>2022-05-01T07:25:15.531Z</time>
      </trkpt>
      <trkpt lat="41.17362" lon="20.65593">
        <ele>739.178193</ele>
        <time>2022-05-01T07:25:17.540Z</time>
      </trkpt>
      <trkpt lat="41.17357" lon="20.65581">
        <ele>739.171223</ele>
        <time>2022-05-01T07:25:19.527Z</time>
      </trkpt>
      <trkpt lat="41.17352" lon="20.65569">
        <ele>739.164287</ele>
        <time>2022-05-01T07:25:21.519Z</time>
      </trkpt>
      <trkpt lat="41.17347" lon="20.65556">
        <ele>739.157348</ele>
        <time>2022-05-01T07:25:23.534Z</time>
      </trkpt>
      <trkpt lat="41.17343" lon="20.65545">
        <ele>739.150604</ele>
        <time>2022-05-01T07:25:25.526Z</time>
      </trkpt>
      <trkpt lat="41.17339" lon="20.65533">
        <ele>739.143996</ele>
        <time>2022-05-01T07:25:27.544Z</time>
      </trkpt>
      <trkpt lat="41.17335" lon="20.65521">
        <ele>739.137651</ele>
        <time>2022-05-01T07:25:29.526Z</time>
      </trkpt>
      <trkpt lat="41.17332" lon="20.65509">
        <ele>739.131069</ele>
        <time>2022-05-01T07:25:31.529Z</time>
      </trkpt>
      <trkpt lat="41.17328" lon="20.65497">
        <ele>739.124464</ele>
        <time>2022-05-01T07:25:33.529Z</time>
      </trkpt>
      <trkpt lat="41.17325" lon="20.65484">
        <ele>739.117739</ele>
        <time>2022-05-01T07:25:35.540Z</time>
      </trkpt>
      <trkpt lat="41.17321" lon="20.65471">
        <ele>739.110945</ele>
        <time>2022-05-01T07:25:37.535Z</time>
      </trkpt>
      <trkpt lat="41.17319" lon="20.65459">
        <ele>739.104564</ele>
        <time>2022-05-01T07:25:39.520Z</time>
      </trkpt>
      <trkpt lat="41.17316" lon="20.65447">
        <ele>739.098202</ele>
        <time>2022-05-01T07:25:41.534Z</time>
      </trkpt>
      <trkpt lat="41.17313" lon="20.65434">
        <ele>739.091451</ele>
        <time>2022-05-01T07:25:43.532Z</time>
      </trkpt>
      <trkpt lat="41.1731" lon="20.65422">
        <ele>739.084838</ele>
        <time>2022-05-01T07:25:45.561Z</time>
      </trkpt>
      <trkpt lat="41.17306" lon="20.65409">
        <ele>739.136758</ele>
        <time>2022-05-01T07:25:47.533Z</time>
      </trkpt>
      <trkpt lat="41.17303" lon="20.65397">
        <ele>739.236569</ele>
        <time>2022-05-01T07:25:49.541Z</time>
      </trkpt>
      <trkpt lat="41.173" lon="20.65385">
        <ele>739.336205</ele>
        <time>2022-05-01T07:25:51.541Z</time>
      </trkpt>
      <trkpt lat="41.17297" lon="20.65371">
        <ele>739.442697</ele>
        <time>2022-05-01T07:25:53.536Z</time>
      </trkpt>
      <trkpt lat="41.17294" lon="20.65359">
        <ele>739.544396</ele>
        <time>2022-05-01T07:25:55.544Z</time>
      </trkpt>
      <trkpt lat="41.17291" lon="20.65346">
        <ele>739.64682</ele>
        <time>2022-05-01T07:25:57.534Z</time>
      </trkpt>
      <trkpt lat="41.17288" lon="20.65333">
        <ele>739.749162</ele>
        <time>2022-05-01T07:25:59.540Z</time>
      </trkpt>
      <trkpt lat="41.17285" lon="20.6532">
        <ele>739.852445</ele>
        <time>2022-05-01T07:26:01.512Z</time>
      </trkpt>
      <trkpt lat="41.17282" lon="20.65308">
        <ele>739.949762</ele>
        <time>2022-05-01T07:26:03.524Z</time>
      </trkpt>
      <trkpt lat="41.17279" lon="20.65295">
        <ele>740.047358</ele>
        <time>2022-05-01T07:26:05.533Z</time>
      </trkpt>
      <trkpt lat="41.17276" lon="20.65284">
        <ele>740.142892</ele>
        <time>2022-05-01T07:26:07.594Z</time>
      </trkpt>
      <trkpt lat="41.17272" lon="20.65271">
        <ele>740.244956</ele>
        <time>2022-05-01T07:26:09.528Z</time>
      </trkpt>
      <trkpt lat="41.17268" lon="20.6526">
        <ele>740.340533</ele>
        <time>2022-05-01T07:26:11.540Z</time>
      </trkpt>
      <trkpt lat="41.17266" lon="20.65248">
        <ele>740.433326</ele>
        <time>2022-05-01T07:26:13.544Z</time>
      </trkpt>
      <trkpt lat="41.17263" lon="20.65236">
        <ele>740.528001</ele>
        <time>2022-05-01T07:26:15.541Z</time>
      </trkpt>
      <trkpt lat="41.1726" lon="20.65225">
        <ele>740.620927</ele>
        <time>2022-05-01T07:26:17.530Z</time>
      </trkpt>
      <trkpt lat="41.17257" lon="20.65212">
        <ele>740.718811</ele>
        <time>2022-05-01T07:26:19.525Z</time>
      </trkpt>
      <trkpt lat="41.17255" lon="20.652">
        <ele>740.816696</ele>
        <time>2022-05-01T07:26:21.535Z</time>
      </trkpt>
      <trkpt lat="41.17252" lon="20.65188">
        <ele>740.899515</ele>
        <time>2022-05-01T07:26:23.536Z</time>
      </trkpt>
      <trkpt lat="41.17248" lon="20.65175">
        <ele>740.879534</ele>
        <time>2022-05-01T07:26:25.533Z</time>
      </trkpt>
      <trkpt lat="41.17245" lon="20.65163">
        <ele>740.859973</ele>
        <time>2022-05-01T07:26:27.527Z</time>
      </trkpt>
      <trkpt lat="41.17241" lon="20.65152">
        <ele>740.841262</ele>
        <time>2022-05-01T07:26:29.571Z</time>
      </trkpt>
      <trkpt lat="41.17238" lon="20.65141">
        <ele>740.823169</ele>
        <time>2022-05-01T07:26:31.555Z</time>
      </trkpt>
      <trkpt lat="41.17233" lon="20.65125">
        <ele>740.796839</ele>
        <time>2022-05-01T07:26:34.530Z</time>
      </trkpt>
      <trkpt lat="41.17229" lon="20.65113">
        <ele>740.77833</ele>
        <time>2022-05-01T07:26:36.529Z</time>
      </trkpt>
      <trkpt lat="41.17225" lon="20.65102">
        <ele>740.759767</ele>
        <time>2022-05-01T07:26:38.541Z</time>
      </trkpt>
      <trkpt lat="41.17221" lon="20.65091">
        <ele>740.740122</ele>
        <time>2022-05-01T07:26:40.584Z</time>
      </trkpt>
      <trkpt lat="41.17216" lon="20.65079">
        <ele>740.720744</ele>
        <time>2022-05-01T07:26:42.538Z</time>
      </trkpt>
      <trkpt lat="41.17212" lon="20.65068">
        <ele>740.70151</ele>
        <time>2022-05-01T07:26:44.541Z</time>
      </trkpt>
      <trkpt lat="41.17207" lon="20.65057">
        <ele>740.68233</ele>
        <time>2022-05-01T07:26:46.571Z</time>
      </trkpt>
      <trkpt lat="41.17202" lon="20.65045">
        <ele>740.661757</ele>
        <time>2022-05-01T07:26:48.534Z</time>
      </trkpt>
      <trkpt lat="41.17196" lon="20.65034">
        <ele>740.642011</ele>
        <time>2022-05-01T07:26:50.544Z</time>
      </trkpt>
      <trkpt lat="41.17192" lon="20.65023">
        <ele>740.622633</ele>
        <time>2022-05-01T07:26:52.529Z</time>
      </trkpt>
      <trkpt lat="41.17187" lon="20.65011">
        <ele>740.602437</ele>
        <time>2022-05-01T07:26:54.538Z</time>
      </trkpt>
      <trkpt lat="41.17182" lon="20.65">
        <ele>740.582433</ele>
        <time>2022-05-01T07:26:56.529Z</time>
      </trkpt>
      <trkpt lat="41.17177" lon="20.64988">
        <ele>740.561908</ele>
        <time>2022-05-01T07:26:58.532Z</time>
      </trkpt>
      <trkpt lat="41.17171" lon="20.64977">
        <ele>740.541824</ele>
        <time>2022-05-01T07:27:00.529Z</time>
      </trkpt>
      <trkpt lat="41.17166" lon="20.64965">
        <ele>740.541694</ele>
        <time>2022-05-01T07:27:02.555Z</time>
      </trkpt>
      <trkpt lat="41.17162" lon="20.64954">
        <ele>740.541838</ele>
        <time>2022-05-01T07:27:04.518Z</time>
      </trkpt>
      <trkpt lat="41.17157" lon="20.64943">
        <ele>740.541984</ele>
        <time>2022-05-01T07:27:06.545Z</time>
      </trkpt>
      <trkpt lat="41.17151" lon="20.64931">
        <ele>740.542135</ele>
        <time>2022-05-01T07:27:08.579Z</time>
      </trkpt>
      <trkpt lat="41.17146" lon="20.6492">
        <ele>740.542284</ele>
        <time>2022-05-01T07:27:10.531Z</time>
      </trkpt>
      <trkpt lat="41.1714" lon="20.64909">
        <ele>740.542433</ele>
        <time>2022-05-01T07:27:12.541Z</time>
      </trkpt>
      <trkpt lat="41.17135" lon="20.64898">
        <ele>740.542581</ele>
        <time>2022-05-01T07:27:14.541Z</time>
      </trkpt>
      <trkpt lat="41.17129" lon="20.64886">
        <ele>740.542729</ele>
        <time>2022-05-01T07:27:16.544Z</time>
      </trkpt>
      <trkpt lat="41.17124" lon="20.64875">
        <ele>740.54288</ele>
        <time>2022-05-01T07:27:18.515Z</time>
      </trkpt>
      <trkpt lat="41.17119" lon="20.64864">
        <ele>740.543026</ele>
        <time>2022-05-01T07:27:20.525Z</time>
      </trkpt>
      <trkpt lat="41.17114" lon="20.64853">
        <ele>740.543168</ele>
        <time>2022-05-01T07:27:22.526Z</time>
      </trkpt>
      <trkpt lat="41.17109" lon="20.64842">
        <ele>740.543307</ele>
        <time>2022-05-01T07:27:24.534Z</time>
      </trkpt>
      <trkpt lat="41.17104" lon="20.64831">
        <ele>740.543453</ele>
        <time>2022-05-01T07:27:26.526Z</time>
      </trkpt>
      <trkpt lat="41.17099" lon="20.6482">
        <ele>740.543594</ele>
        <time>2022-05-01T07:27:28.534Z</time>
      </trkpt>
      <trkpt lat="41.17093" lon="20.64809">
        <ele>740.543748</ele>
        <time>2022-05-01T07:27:30.572Z</time>
      </trkpt>
      <trkpt lat="41.17087" lon="20.64798">
        <ele>740.543901</ele>
        <time>2022-05-01T07:27:32.543Z</time>
      </trkpt>
      <trkpt lat="41.17082" lon="20.64787">
        <ele>740.544045</ele>
        <time>2022-05-01T07:27:34.509Z</time>
      </trkpt>
      <trkpt lat="41.17077" lon="20.64776">
        <ele>740.544187</ele>
        <time>2022-05-01T07:27:36.540Z</time>
      </trkpt>
      <trkpt lat="41.17072" lon="20.64765">
        <ele>740.619367</ele>
        <time>2022-05-01T07:27:38.540Z</time>
      </trkpt>
      <trkpt lat="41.17067" lon="20.64754">
        <ele>740.708667</ele>
        <time>2022-05-01T07:27:40.539Z</time>
      </trkpt>
      <trkpt lat="41.17062" lon="20.64743">
        <ele>740.794672</ele>
        <time>2022-05-01T07:27:42.524Z</time>
      </trkpt>
      <trkpt lat="41.17056" lon="20.64732">
        <ele>740.881554</ele>
        <time>2022-05-01T07:27:44.523Z</time>
      </trkpt>
      <trkpt lat="41.17051" lon="20.64722">
        <ele>740.96996</ele>
        <time>2022-05-01T07:27:46.530Z</time>
      </trkpt>
      <trkpt lat="41.17046" lon="20.64711">
        <ele>741.055379</ele>
        <time>2022-05-01T07:27:48.561Z</time>
      </trkpt>
      <trkpt lat="41.17041" lon="20.64701">
        <ele>741.139266</ele>
        <time>2022-05-01T07:27:50.531Z</time>
      </trkpt>
      <trkpt lat="41.17036" lon="20.6469">
        <ele>741.226234</ele>
        <time>2022-05-01T07:27:52.519Z</time>
      </trkpt>
      <trkpt lat="41.17031" lon="20.64679">
        <ele>741.313617</ele>
        <time>2022-05-01T07:27:54.570Z</time>
      </trkpt>
      <trkpt lat="41.17025" lon="20.64668">
        <ele>741.404807</ele>
        <time>2022-05-01T07:27:56.548Z</time>
      </trkpt>
      <trkpt lat="41.17021" lon="20.64657">
        <ele>741.491524</ele>
        <time>2022-05-01T07:27:58.525Z</time>
      </trkpt>
      <trkpt lat="41.17016" lon="20.64647">
        <ele>741.57421</ele>
        <time>2022-05-01T07:28:00.526Z</time>
      </trkpt>
      <trkpt lat="41.17011" lon="20.64636">
        <ele>741.66439</ele>
        <time>2022-05-01T07:28:02.554Z</time>
      </trkpt>
      <trkpt lat="41.17005" lon="20.64625">
        <ele>741.753881</ele>
        <time>2022-05-01T07:28:04.530Z</time>
      </trkpt>
      <trkpt lat="41.17" lon="20.64614">
        <ele>741.845071</ele>
        <time>2022-05-01T07:28:06.540Z</time>
      </trkpt>
      <trkpt lat="41.16994" lon="20.64603">
        <ele>741.935251</ele>
        <time>2022-05-01T07:28:08.595Z</time>
      </trkpt>
      <trkpt lat="41.16989" lon="20.64592">
        <ele>742.027656</ele>
        <time>2022-05-01T07:28:10.545Z</time>
      </trkpt>
      <trkpt lat="41.16983" lon="20.6458">
        <ele>742.120731</ele>
        <time>2022-05-01T07:28:12.547Z</time>
      </trkpt>
      <trkpt lat="41.16978" lon="20.64569">
        <ele>742.159023</ele>
        <time>2022-05-01T07:28:14.546Z</time>
      </trkpt>
      <trkpt lat="41.16973" lon="20.64559">
        <ele>742.067723</ele>
        <time>2022-05-01T07:28:16.545Z</time>
      </trkpt>
      <trkpt lat="41.16968" lon="20.64549">
        <ele>741.981222</ele>
        <time>2022-05-01T07:28:18.550Z</time>
      </trkpt>
      <trkpt lat="41.16963" lon="20.64538">
        <ele>741.894055</ele>
        <time>2022-05-01T07:28:20.538Z</time>
      </trkpt>
      <trkpt lat="41.16959" lon="20.64527">
        <ele>741.805482</ele>
        <time>2022-05-01T07:28:22.535Z</time>
      </trkpt>
      <trkpt lat="41.16953" lon="20.64516">
        <ele>741.712355</ele>
        <time>2022-05-01T07:28:24.533Z</time>
      </trkpt>
      <trkpt lat="41.16948" lon="20.64505">
        <ele>741.616663</ele>
        <time>2022-05-01T07:28:26.553Z</time>
      </trkpt>
      <trkpt lat="41.16942" lon="20.64495">
        <ele>741.525093</ele>
        <time>2022-05-01T07:28:28.551Z</time>
      </trkpt>
      <trkpt lat="41.16937" lon="20.64485">
        <ele>741.43412</ele>
        <time>2022-05-01T07:28:30.551Z</time>
      </trkpt>
      <trkpt lat="41.16931" lon="20.64474">
        <ele>741.341925</ele>
        <time>2022-05-01T07:28:32.530Z</time>
      </trkpt>
      <trkpt lat="41.16925" lon="20.64463">
        <ele>741.24688</ele>
        <time>2022-05-01T07:28:34.539Z</time>
      </trkpt>
      <trkpt lat="41.16919" lon="20.64452">
        <ele>741.147807</ele>
        <time>2022-05-01T07:28:36.568Z</time>
      </trkpt>
      <trkpt lat="41.16914" lon="20.64441">
        <ele>741.053239</ele>
        <time>2022-05-01T07:28:38.551Z</time>
      </trkpt>
      <trkpt lat="41.16909" lon="20.6443">
        <ele>740.965376</ele>
        <time>2022-05-01T07:28:40.551Z</time>
      </trkpt>
      <trkpt lat="41.16904" lon="20.6442">
        <ele>740.874842</ele>
        <time>2022-05-01T07:28:42.539Z</time>
      </trkpt>
      <trkpt lat="41.16898" lon="20.64409">
        <ele>740.780869</ele>
        <time>2022-05-01T07:28:44.534Z</time>
      </trkpt>
      <trkpt lat="41.16893" lon="20.64398">
        <ele>740.68813</ele>
        <time>2022-05-01T07:28:46.571Z</time>
      </trkpt>
      <trkpt lat="41.16887" lon="20.64387">
        <ele>740.593085</ele>
        <time>2022-05-01T07:28:48.535Z</time>
      </trkpt>
      <trkpt lat="41.16881" lon="20.64377">
        <ele>740.501535</ele>
        <time>2022-05-01T07:28:50.543Z</time>
      </trkpt>
      <trkpt lat="41.16876" lon="20.64367">
        <ele>740.442391</ele>
        <time>2022-05-01T07:28:52.529Z</time>
      </trkpt>
      <trkpt lat="41.1687" lon="20.64357">
        <ele>740.393455</ele>
        <time>2022-05-01T07:28:54.559Z</time>
      </trkpt>
      <trkpt lat="41.16863" lon="20.64347">
        <ele>740.344149</ele>
        <time>2022-05-01T07:28:56.542Z</time>
      </trkpt>
      <trkpt lat="41.16857" lon="20.64337">
        <ele>740.293897</ele>
        <time>2022-05-01T07:28:58.542Z</time>
      </trkpt>
      <trkpt lat="41.1685" lon="20.64328">
        <ele>740.243545</ele>
        <time>2022-05-01T07:29:00.534Z</time>
      </trkpt>
      <trkpt lat="41.16843" lon="20.64318">
        <ele>740.192852</ele>
        <time>2022-05-01T07:29:02.525Z</time>
      </trkpt>
      <trkpt lat="41.16837" lon="20.64308">
        <ele>740.143506</ele>
        <time>2022-05-01T07:29:04.533Z</time>
      </trkpt>
      <trkpt lat="41.16831" lon="20.64298">
        <ele>740.095724</ele>
        <time>2022-05-01T07:29:06.560Z</time>
      </trkpt>
      <trkpt lat="41.16824" lon="20.64289">
        <ele>740.047456</ele>
        <time>2022-05-01T07:29:08.584Z</time>
      </trkpt>
      <trkpt lat="41.16818" lon="20.64279">
        <ele>739.997042</ele>
        <time>2022-05-01T07:29:10.584Z</time>
      </trkpt>
      <trkpt lat="41.16811" lon="20.6427">
        <ele>739.947408</ele>
        <time>2022-05-01T07:29:12.550Z</time>
      </trkpt>
      <trkpt lat="41.16805" lon="20.6426">
        <ele>739.898748</ele>
        <time>2022-05-01T07:29:14.543Z</time>
      </trkpt>
      <trkpt lat="41.16799" lon="20.6425">
        <ele>739.849299</ele>
        <time>2022-05-01T07:29:16.560Z</time>
      </trkpt>
      <trkpt lat="41.16792" lon="20.6424">
        <ele>739.799334</ele>
        <time>2022-05-01T07:29:18.561Z</time>
      </trkpt>
      <trkpt lat="41.16786" lon="20.6423">
        <ele>739.748577</ele>
        <time>2022-05-01T07:29:20.545Z</time>
      </trkpt>
      <trkpt lat="41.1678" lon="20.64219">
        <ele>739.69782</ele>
        <time>2022-05-01T07:29:22.547Z</time>
      </trkpt>
      <trkpt lat="41.16774" lon="20.64209">
        <ele>739.647373</ele>
        <time>2022-05-01T07:29:24.545Z</time>
      </trkpt>
      <trkpt lat="41.16767" lon="20.64198">
        <ele>739.597527</ele>
        <time>2022-05-01T07:29:26.551Z</time>
      </trkpt>
      <trkpt lat="41.16761" lon="20.64188">
        <ele>739.585056</ele>
        <time>2022-05-01T07:29:28.552Z</time>
      </trkpt>
      <trkpt lat="41.16755" lon="20.64177">
        <ele>739.640448</ele>
        <time>2022-05-01T07:29:30.545Z</time>
      </trkpt>
      <trkpt lat="41.1675" lon="20.64167">
        <ele>739.693154</ele>
        <time>2022-05-01T07:29:32.543Z</time>
      </trkpt>
      <trkpt lat="41.16744" lon="20.64157">
        <ele>739.74721</ele>
        <time>2022-05-01T07:29:34.543Z</time>
      </trkpt>
      <trkpt lat="41.16739" lon="20.64146">
        <ele>739.800727</ele>
        <time>2022-05-01T07:29:36.550Z</time>
      </trkpt>
      <trkpt lat="41.16734" lon="20.64135">
        <ele>739.85596</ele>
        <time>2022-05-01T07:29:38.531Z</time>
      </trkpt>
      <trkpt lat="41.16728" lon="20.64125">
        <ele>739.910031</ele>
        <time>2022-05-01T07:29:40.573Z</time>
      </trkpt>
      <trkpt lat="41.16722" lon="20.64114">
        <ele>739.964822</ele>
        <time>2022-05-01T07:29:42.543Z</time>
      </trkpt>
      <trkpt lat="41.16717" lon="20.64103">
        <ele>740.020226</ele>
        <time>2022-05-01T07:29:44.544Z</time>
      </trkpt>
      <trkpt lat="41.1671" lon="20.64093">
        <ele>740.075642</ele>
        <time>2022-05-01T07:29:46.581Z</time>
      </trkpt>
      <trkpt lat="41.16705" lon="20.64082">
        <ele>740.129692</ele>
        <time>2022-05-01T07:29:48.540Z</time>
      </trkpt>
      <trkpt lat="41.16699" lon="20.64072">
        <ele>740.182737</ele>
        <time>2022-05-01T07:29:50.541Z</time>
      </trkpt>
      <trkpt lat="41.16693" lon="20.64063">
        <ele>740.235167</ele>
        <time>2022-05-01T07:29:52.543Z</time>
      </trkpt>
      <trkpt lat="41.16686" lon="20.64053">
        <ele>740.28918</ele>
        <time>2022-05-01T07:29:54.547Z</time>
      </trkpt>
      <trkpt lat="41.16679" lon="20.64044">
        <ele>740.346449</ele>
        <time>2022-05-01T07:29:56.543Z</time>
      </trkpt>
      <trkpt lat="41.16672" lon="20.64036">
        <ele>740.398977</ele>
        <time>2022-05-01T07:29:58.544Z</time>
      </trkpt>
      <trkpt lat="41.16665" lon="20.64028">
        <ele>740.449263</ele>
        <time>2022-05-01T07:30:00.559Z</time>
      </trkpt>
      <trkpt lat="41.16658" lon="20.6402">
        <ele>740.500425</ele>
        <time>2022-05-01T07:30:02.587Z</time>
      </trkpt>
      <trkpt lat="41.1665" lon="20.64012">
        <ele>740.553272</ele>
        <time>2022-05-01T07:30:04.538Z</time>
      </trkpt>
      <trkpt lat="41.1664" lon="20.64002">
        <ele>740.713543</ele>
        <time>2022-05-01T07:30:07.544Z</time>
      </trkpt>
      <trkpt lat="41.16632" lon="20.63994">
        <ele>740.843781</ele>
        <time>2022-05-01T07:30:09.546Z</time>
      </trkpt>
      <trkpt lat="41.16625" lon="20.63987">
        <ele>740.97598</ele>
        <time>2022-05-01T07:30:11.548Z</time>
      </trkpt>
      <trkpt lat="41.16617" lon="20.63979">
        <ele>741.10582</ele>
        <time>2022-05-01T07:30:13.541Z</time>
      </trkpt>
      <trkpt lat="41.1661" lon="20.63971">
        <ele>741.238654</ele>
        <time>2022-05-01T07:30:15.562Z</time>
      </trkpt>
      <trkpt lat="41.16602" lon="20.63964">
        <ele>741.370714</ele>
        <time>2022-05-01T07:30:17.559Z</time>
      </trkpt>
      <trkpt lat="41.16594" lon="20.63957">
        <ele>741.500355</ele>
        <time>2022-05-01T07:30:19.580Z</time>
      </trkpt>
      <trkpt lat="41.16586" lon="20.63949">
        <ele>741.632925</ele>
        <time>2022-05-01T07:30:21.533Z</time>
      </trkpt>
      <trkpt lat="41.16579" lon="20.63942">
        <ele>741.758061</ele>
        <time>2022-05-01T07:30:23.534Z</time>
      </trkpt>
      <trkpt lat="41.16572" lon="20.63935">
        <ele>741.88544</ele>
        <time>2022-05-01T07:30:25.547Z</time>
      </trkpt>
      <trkpt lat="41.16564" lon="20.63928">
        <ele>742.009463</ele>
        <time>2022-05-01T07:30:27.540Z</time>
      </trkpt>
      <trkpt lat="41.16554" lon="20.63917">
        <ele>742.195505</ele>
        <time>2022-05-01T07:30:30.599Z</time>
      </trkpt>
      <trkpt lat="41.16546" lon="20.6391">
        <ele>742.321259</ele>
        <time>2022-05-01T07:30:32.562Z</time>
      </trkpt>
      <trkpt lat="41.16539" lon="20.63902">
        <ele>742.446724</ele>
        <time>2022-05-01T07:30:34.546Z</time>
      </trkpt>
      <trkpt lat="41.16529" lon="20.63891">
        <ele>742.632152</ele>
        <time>2022-05-01T07:30:37.540Z</time>
      </trkpt>
      <trkpt lat="41.16519" lon="20.6388">
        <ele>742.816022</ele>
        <time>2022-05-01T07:30:40.545Z</time>
      </trkpt>
      <trkpt lat="41.1651" lon="20.63867">
        <ele>742.991022</ele>
        <time>2022-05-01T07:30:43.573Z</time>
      </trkpt>
      <trkpt lat="41.16503" lon="20.63854">
        <ele>743.228618</ele>
        <time>2022-05-01T07:30:46.547Z</time>
      </trkpt>
      <trkpt lat="41.16495" lon="20.63841">
        <ele>743.502327</ele>
        <time>2022-05-01T07:30:49.551Z</time>
      </trkpt>
      <trkpt lat="41.16489" lon="20.63827">
        <ele>743.767542</ele>
        <time>2022-05-01T07:30:52.544Z</time>
      </trkpt>
      <trkpt lat="41.16482" lon="20.63813">
        <ele>744.055204</ele>
        <time>2022-05-01T07:30:55.540Z</time>
      </trkpt>
      <trkpt lat="41.16475" lon="20.63798">
        <ele>744.334919</ele>
        <time>2022-05-01T07:30:58.543Z</time>
      </trkpt>
      <trkpt lat="41.16468" lon="20.63784">
        <ele>744.615526</ele>
        <time>2022-05-01T07:31:01.546Z</time>
      </trkpt>
      <trkpt lat="41.16461" lon="20.63772">
        <ele>744.865597</ele>
        <time>2022-05-01T07:31:04.575Z</time>
      </trkpt>
      <trkpt lat="41.16455" lon="20.63762">
        <ele>745.086452</ele>
        <time>2022-05-01T07:31:07.541Z</time>
      </trkpt>
      <trkpt lat="41.16449" lon="20.6375">
        <ele>745.323138</ele>
        <time>2022-05-01T07:31:10.584Z</time>
      </trkpt>
      <trkpt lat="41.16442" lon="20.63738">
        <ele>745.575695</ele>
        <time>2022-05-01T07:31:13.538Z</time>
      </trkpt>
      <trkpt lat="41.16434" lon="20.63726">
        <ele>745.830905</ele>
        <time>2022-05-01T07:31:16.544Z</time>
      </trkpt>
      <trkpt lat="41.16426" lon="20.63715">
        <ele>746.085228</ele>
        <time>2022-05-01T07:31:19.538Z</time>
      </trkpt>
      <trkpt lat="41.16418" lon="20.63704">
        <ele>746.335427</ele>
        <time>2022-05-01T07:31:22.543Z</time>
      </trkpt>
      <trkpt lat="41.1641" lon="20.63694">
        <ele>746.579664</ele>
        <time>2022-05-01T07:31:25.537Z</time>
      </trkpt>
      <trkpt lat="41.16402" lon="20.63685">
        <ele>746.800757</ele>
        <time>2022-05-01T07:31:28.541Z</time>
      </trkpt>
      <trkpt lat="41.16395" lon="20.63676">
        <ele>747.004582</ele>
        <time>2022-05-01T07:31:31.598Z</time>
      </trkpt>
      <trkpt lat="41.16387" lon="20.63667">
        <ele>746.921742</ele>
        <time>2022-05-01T07:31:34.527Z</time>
      </trkpt>
      <trkpt lat="41.16379" lon="20.63659">
        <ele>746.837897</ele>
        <time>2022-05-01T07:31:37.548Z</time>
      </trkpt>
      <trkpt lat="41.16371" lon="20.6365">
        <ele>746.755063</ele>
        <time>2022-05-01T07:31:40.542Z</time>
      </trkpt>
      <trkpt lat="41.16363" lon="20.63642">
        <ele>746.675388</ele>
        <time>2022-05-01T07:31:43.534Z</time>
      </trkpt>
      <trkpt lat="41.16354" lon="20.63634">
        <ele>746.587373</ele>
        <time>2022-05-01T07:31:46.563Z</time>
      </trkpt>
      <trkpt lat="41.16344" lon="20.63625">
        <ele>746.492992</ele>
        <time>2022-05-01T07:31:49.562Z</time>
      </trkpt>
      <trkpt lat="41.16334" lon="20.63617">
        <ele>746.396731</ele>
        <time>2022-05-01T07:31:52.532Z</time>
      </trkpt>
      <trkpt lat="41.16323" lon="20.63609">
        <ele>746.297537</ele>
        <time>2022-05-01T07:31:55.542Z</time>
      </trkpt>
      <trkpt lat="41.16312" lon="20.63603">
        <ele>746.198339</ele>
        <time>2022-05-01T07:31:58.521Z</time>
      </trkpt>
      <trkpt lat="41.16301" lon="20.63596">
        <ele>746.106642</ele>
        <time>2022-05-01T07:32:01.553Z</time>
      </trkpt>
      <trkpt lat="41.1629" lon="20.6359">
        <ele>746.004683</ele>
        <time>2022-05-01T07:32:04.585Z</time>
      </trkpt>
      <trkpt lat="41.16281" lon="20.63585">
        <ele>745.930635</ele>
        <time>2022-05-01T07:32:06.566Z</time>
      </trkpt>
      <trkpt lat="41.16269" lon="20.63578">
        <ele>745.828513</ele>
        <time>2022-05-01T07:32:09.574Z</time>
      </trkpt>
      <trkpt lat="41.16257" lon="20.63571">
        <ele>745.72002</ele>
        <time>2022-05-01T07:32:12.544Z</time>
      </trkpt>
      <trkpt lat="41.16245" lon="20.63564">
        <ele>745.612756</ele>
        <time>2022-05-01T07:32:15.559Z</time>
      </trkpt>
      <trkpt lat="41.16233" lon="20.63557">
        <ele>745.556471</ele>
        <time>2022-05-01T07:32:18.541Z</time>
      </trkpt>
      <trkpt lat="41.16221" lon="20.6355">
        <ele>745.539656</ele>
        <time>2022-05-01T07:32:21.547Z</time>
      </trkpt>
      <trkpt lat="41.16209" lon="20.63544">
        <ele>745.522757</ele>
        <time>2022-05-01T07:32:24.576Z</time>
      </trkpt>
      <trkpt lat="41.162" lon="20.63541">
        <ele>745.51034</ele>
        <time>2022-05-01T07:32:26.589Z</time>
      </trkpt>
      <trkpt lat="41.16191" lon="20.63537">
        <ele>745.498451</ele>
        <time>2022-05-01T07:32:28.552Z</time>
      </trkpt>
      <trkpt lat="41.1618" lon="20.6353">
        <ele>745.482784</ele>
        <time>2022-05-01T07:32:31.552Z</time>
      </trkpt>
      <trkpt lat="41.1617" lon="20.63524">
        <ele>745.468761</ele>
        <time>2022-05-01T07:32:34.586Z</time>
      </trkpt>
      <trkpt lat="41.1616" lon="20.63517">
        <ele>745.453781</ele>
        <time>2022-05-01T07:32:37.545Z</time>
      </trkpt>
      <trkpt lat="41.16149" lon="20.6351">
        <ele>745.438507</ele>
        <time>2022-05-01T07:32:40.554Z</time>
      </trkpt>
      <trkpt lat="41.16138" lon="20.63504">
        <ele>745.423077</ele>
        <time>2022-05-01T07:32:43.542Z</time>
      </trkpt>
      <trkpt lat="41.16127" lon="20.63497">
        <ele>745.407134</ele>
        <time>2022-05-01T07:32:46.541Z</time>
      </trkpt>
      <trkpt lat="41.16115" lon="20.63491">
        <ele>745.390464</ele>
        <time>2022-05-01T07:32:49.558Z</time>
      </trkpt>
      <trkpt lat="41.16103" lon="20.63484">
        <ele>745.373924</ele>
        <time>2022-05-01T07:32:52.563Z</time>
      </trkpt>
      <trkpt lat="41.16092" lon="20.63479">
        <ele>745.358287</ele>
        <time>2022-05-01T07:32:55.566Z</time>
      </trkpt>
      <trkpt lat="41.1608" lon="20.63475">
        <ele>745.342895</ele>
        <time>2022-05-01T07:32:58.543Z</time>
      </trkpt>
      <trkpt lat="41.16068" lon="20.63472">
        <ele>745.380042</ele>
        <time>2022-05-01T07:33:01.537Z</time>
      </trkpt>
      <trkpt lat="41.16056" lon="20.63469">
        <ele>745.509062</ele>
        <time>2022-05-01T07:33:04.598Z</time>
      </trkpt>
      <trkpt lat="41.16044" lon="20.63467">
        <ele>745.640339</ele>
        <time>2022-05-01T07:33:07.532Z</time>
      </trkpt>
      <trkpt lat="41.16031" lon="20.63465">
        <ele>745.781456</ele>
        <time>2022-05-01T07:33:10.528Z</time>
      </trkpt>
      <trkpt lat="41.16018" lon="20.63464">
        <ele>745.922049</ele>
        <time>2022-05-01T07:33:13.541Z</time>
      </trkpt>
      <trkpt lat="41.16005" lon="20.63462">
        <ele>746.061655</ele>
        <time>2022-05-01T07:33:16.554Z</time>
      </trkpt>
      <trkpt lat="41.15992" lon="20.6346">
        <ele>746.202248</ele>
        <time>2022-05-01T07:33:19.518Z</time>
      </trkpt>
      <trkpt lat="41.15979" lon="20.63458">
        <ele>746.338926</ele>
        <time>2022-05-01T07:33:22.599Z</time>
      </trkpt>
      <trkpt lat="41.15967" lon="20.63456">
        <ele>746.472421</ele>
        <time>2022-05-01T07:33:25.535Z</time>
      </trkpt>
      <trkpt lat="41.15954" lon="20.63454">
        <ele>746.607287</ele>
        <time>2022-05-01T07:33:28.539Z</time>
      </trkpt>
      <trkpt lat="41.15942" lon="20.63452">
        <ele>746.743785</ele>
        <time>2022-05-01T07:33:31.541Z</time>
      </trkpt>
      <trkpt lat="41.1593" lon="20.6345">
        <ele>746.874001</ele>
        <time>2022-05-01T07:33:34.543Z</time>
      </trkpt>
      <trkpt lat="41.15918" lon="20.63448">
        <ele>747.000649</ele>
        <time>2022-05-01T07:33:37.533Z</time>
      </trkpt>
      <trkpt lat="41.15906" lon="20.63446">
        <ele>747.12672</ele>
        <time>2022-05-01T07:33:40.538Z</time>
      </trkpt>
      <trkpt lat="41.15895" lon="20.63444">
        <ele>747.246435</ele>
        <time>2022-05-01T07:33:43.558Z</time>
      </trkpt>
      <trkpt lat="41.15884" lon="20.63443">
        <ele>747.567332</ele>
        <time>2022-05-01T07:33:46.540Z</time>
      </trkpt>
      <trkpt lat="41.15874" lon="20.63441">
        <ele>747.896822</ele>
        <time>2022-05-01T07:33:49.521Z</time>
      </trkpt>
      <trkpt lat="41.15864" lon="20.63439">
        <ele>748.217582</ele>
        <time>2022-05-01T07:33:52.559Z</time>
      </trkpt>
      <trkpt lat="41.15854" lon="20.63438">
        <ele>748.515013</ele>
        <time>2022-05-01T07:33:55.529Z</time>
      </trkpt>
      <trkpt lat="41.15845" lon="20.63436">
        <ele>748.800233</ele>
        <time>2022-05-01T07:33:58.527Z</time>
      </trkpt>
      <trkpt lat="41.15836" lon="20.63434">
        <ele>749.11276</ele>
        <time>2022-05-01T07:34:01.539Z</time>
      </trkpt>
      <trkpt lat="41.15826" lon="20.63432">
        <ele>749.406701</ele>
        <time>2022-05-01T07:34:04.551Z</time>
      </trkpt>
      <trkpt lat="41.15815" lon="20.6343">
        <ele>749.761449</ele>
        <time>2022-05-01T07:34:08.560Z</time>
      </trkpt>
      <trkpt lat="41.15803" lon="20.63428">
        <ele>750.135212</ele>
        <time>2022-05-01T07:34:12.539Z</time>
      </trkpt>
      <trkpt lat="41.15793" lon="20.63426">
        <ele>750.477779</ele>
        <time>2022-05-01T07:34:16.532Z</time>
      </trkpt>
      <trkpt lat="41.15781" lon="20.63425">
        <ele>750.834433</ele>
        <time>2022-05-01T07:34:20.542Z</time>
      </trkpt>
      <trkpt lat="41.1577" lon="20.63423">
        <ele>751.188397</ele>
        <time>2022-05-01T07:34:24.531Z</time>
      </trkpt>
      <trkpt lat="41.1576" lon="20.63422">
        <ele>751.517888</ele>
        <time>2022-05-01T07:34:28.534Z</time>
      </trkpt>
      <trkpt lat="41.15749" lon="20.6342">
        <ele>751.847098</ele>
        <time>2022-05-01T07:34:32.564Z</time>
      </trkpt>
      <trkpt lat="41.15739" lon="20.63419">
        <ele>752.188313</ele>
        <time>2022-05-01T07:34:36.530Z</time>
      </trkpt>
      <trkpt lat="41.15728" lon="20.63417">
        <ele>752.524046</ele>
        <time>2022-05-01T07:34:40.526Z</time>
      </trkpt>
      <trkpt lat="41.15718" lon="20.63415">
        <ele>752.838927</ele>
        <time>2022-05-01T07:34:44.539Z</time>
      </trkpt>
      <trkpt lat="41.15708" lon="20.63413">
        <ele>753.338258</ele>
        <time>2022-05-01T07:34:48.533Z</time>
      </trkpt>
      <trkpt lat="41.15698" lon="20.63411">
        <ele>753.903769</ele>
        <time>2022-05-01T07:34:52.528Z</time>
      </trkpt>
      <trkpt lat="41.15688" lon="20.63409">
        <ele>754.50144</ele>
        <time>2022-05-01T07:34:56.534Z</time>
      </trkpt>
      <trkpt lat="41.15677" lon="20.63408">
        <ele>755.105203</ele>
        <time>2022-05-01T07:35:00.542Z</time>
      </trkpt>
      <trkpt lat="41.15667" lon="20.63405">
        <ele>755.707474</ele>
        <time>2022-05-01T07:35:04.526Z</time>
      </trkpt>
      <trkpt lat="41.15658" lon="20.63404">
        <ele>756.226435</ele>
        <time>2022-05-01T07:35:08.530Z</time>
      </trkpt>
      <trkpt lat="41.15648" lon="20.63403">
        <ele>756.799959</ele>
        <time>2022-05-01T07:35:12.536Z</time>
      </trkpt>
      <trkpt lat="41.15637" lon="20.63401">
        <ele>757.384785</ele>
        <time>2022-05-01T07:35:17.541Z</time>
      </trkpt>
      <trkpt lat="41.15628" lon="20.63395">
        <ele>757.987294</ele>
        <time>2022-05-01T07:35:24.528Z</time>
      </trkpt>
      <trkpt lat="41.15616" lon="20.63394">
        <ele>758.657769</ele>
        <time>2022-05-01T07:35:28.516Z</time>
      </trkpt>
      <trkpt lat="41.15605" lon="20.63392">
        <ele>759.258711</ele>
        <time>2022-05-01T07:35:32.531Z</time>
      </trkpt>
      <trkpt lat="41.15595" lon="20.6339">
        <ele>759.826098</ele>
        <time>2022-05-01T07:35:36.554Z</time>
      </trkpt>
      <trkpt lat="41.15585" lon="20.63389">
        <ele>760.416545</ele>
        <time>2022-05-01T07:35:40.524Z</time>
      </trkpt>
      <trkpt lat="41.15574" lon="20.63387">
        <ele>761.031556</ele>
        <time>2022-05-01T07:35:44.532Z</time>
      </trkpt>
      <trkpt lat="41.15564" lon="20.63386">
        <ele>761.616719</ele>
        <time>2022-05-01T07:35:48.530Z</time>
      </trkpt>
      <trkpt lat="41.15553" lon="20.63385">
        <ele>762.230844</ele>
        <time>2022-05-01T07:35:52.536Z</time>
      </trkpt>
      <trkpt lat="41.15542" lon="20.63384">
        <ele>762.831487</ele>
        <time>2022-05-01T07:35:56.574Z</time>
      </trkpt>
      <trkpt lat="41.15532" lon="20.63383">
        <ele>763.268621</ele>
        <time>2022-05-01T07:36:01.528Z</time>
      </trkpt>
      <trkpt lat="41.15522" lon="20.63382">
        <ele>763.55151</ele>
        <time>2022-05-01T07:36:05.563Z</time>
      </trkpt>
      <trkpt lat="41.15513" lon="20.63379">
        <ele>763.830601</ele>
        <time>2022-05-01T07:36:09.525Z</time>
      </trkpt>
      <trkpt lat="41.15504" lon="20.63377">
        <ele>764.117941</ele>
        <time>2022-05-01T07:36:13.538Z</time>
      </trkpt>
      <trkpt lat="41.15492" lon="20.63376">
        <ele>764.446646</ele>
        <time>2022-05-01T07:36:17.544Z</time>
      </trkpt>
      <trkpt lat="41.15482" lon="20.63375">
        <ele>764.764798</ele>
        <time>2022-05-01T07:36:22.533Z</time>
      </trkpt>
      <trkpt lat="41.15472" lon="20.63373">
        <ele>765.069359</ele>
        <time>2022-05-01T07:36:26.518Z</time>
      </trkpt>
      <trkpt lat="41.15462" lon="20.63372">
        <ele>765.343179</ele>
        <time>2022-05-01T07:36:29.587Z</time>
      </trkpt>
      <trkpt lat="41.15453" lon="20.6337">
        <ele>765.616999</ele>
        <time>2022-05-01T07:36:32.556Z</time>
      </trkpt>
      <trkpt lat="41.15443" lon="20.63369">
        <ele>765.914333</ele>
        <time>2022-05-01T07:36:36.530Z</time>
      </trkpt>
      <trkpt lat="41.15433" lon="20.63368">
        <ele>766.216608</ele>
        <time>2022-05-01T07:36:40.571Z</time>
      </trkpt>
      <trkpt lat="41.15424" lon="20.63366">
        <ele>766.495187</ele>
        <time>2022-05-01T07:36:44.535Z</time>
      </trkpt>
      <trkpt lat="41.15415" lon="20.63365">
        <ele>766.762651</ele>
        <time>2022-05-01T07:36:48.540Z</time>
      </trkpt>
      <trkpt lat="41.15406" lon="20.63364">
        <ele>767.02953</ele>
        <time>2022-05-01T07:36:52.562Z</time>
      </trkpt>
      <trkpt lat="41.15395" lon="20.63363">
        <ele>767.337448</ele>
        <time>2022-05-01T07:36:57.547Z</time>
      </trkpt>
      <trkpt lat="41.15386" lon="20.63362">
        <ele>767.626211</ele>
        <time>2022-05-01T07:37:00.539Z</time>
      </trkpt>
      <trkpt lat="41.15375" lon="20.63359">
        <ele>767.948967</ele>
        <time>2022-05-01T07:37:04.539Z</time>
      </trkpt>
      <trkpt lat="41.15364" lon="20.63357">
        <ele>768.262624</ele>
        <time>2022-05-01T07:37:08.542Z</time>
      </trkpt>
      <trkpt lat="41.15354" lon="20.63355">
        <ele>768.467891</ele>
        <time>2022-05-01T07:37:12.544Z</time>
      </trkpt>
      <trkpt lat="41.15343" lon="20.63354">
        <ele>768.589704</ele>
        <time>2022-05-01T07:37:16.525Z</time>
      </trkpt>
      <trkpt lat="41.15332" lon="20.63352">
        <ele>768.709366</ele>
        <time>2022-05-01T07:37:20.533Z</time>
      </trkpt>
      <trkpt lat="41.15323" lon="20.63351">
        <ele>768.808177</ele>
        <time>2022-05-01T07:37:23.532Z</time>
      </trkpt>
      <trkpt lat="41.15312" lon="20.63349">
        <ele>768.92728</ele>
        <time>2022-05-01T07:37:27.541Z</time>
      </trkpt>
      <trkpt lat="41.153" lon="20.63349">
        <ele>769.05164</ele>
        <time>2022-05-01T07:37:31.539Z</time>
      </trkpt>
      <trkpt lat="41.1529" lon="20.63347">
        <ele>769.158316</ele>
        <time>2022-05-01T07:37:34.540Z</time>
      </trkpt>
      <trkpt lat="41.15281" lon="20.63345">
        <ele>769.262146</ele>
        <time>2022-05-01T07:37:37.534Z</time>
      </trkpt>
      <trkpt lat="41.15272" lon="20.63343">
        <ele>769.362317</ele>
        <time>2022-05-01T07:37:40.526Z</time>
      </trkpt>
      <trkpt lat="41.15263" lon="20.6334">
        <ele>769.462805</ele>
        <time>2022-05-01T07:37:43.531Z</time>
      </trkpt>
      <trkpt lat="41.15254" lon="20.63336">
        <ele>769.560313</ele>
        <time>2022-05-01T07:37:46.536Z</time>
      </trkpt>
      <trkpt lat="41.15243" lon="20.63332">
        <ele>769.688865</ele>
        <time>2022-05-01T07:37:50.551Z</time>
      </trkpt>
      <trkpt lat="41.15232" lon="20.63327">
        <ele>769.818277</ele>
        <time>2022-05-01T07:37:54.572Z</time>
      </trkpt>
      <trkpt lat="41.15221" lon="20.63321">
        <ele>769.94456</ele>
        <time>2022-05-01T07:37:58.538Z</time>
      </trkpt>
      <trkpt lat="41.15212" lon="20.63315">
        <ele>770.05366</ele>
        <time>2022-05-01T07:38:02.549Z</time>
      </trkpt>
      <trkpt lat="41.15202" lon="20.6331">
        <ele>770.170022</ele>
        <time>2022-05-01T07:38:06.525Z</time>
      </trkpt>
      <trkpt lat="41.15193" lon="20.63305">
        <ele>770.271703</ele>
        <time>2022-05-01T07:38:09.531Z</time>
      </trkpt>
      <trkpt lat="41.15184" lon="20.633">
        <ele>770.33902</ele>
        <time>2022-05-01T07:38:12.530Z</time>
      </trkpt>
      <trkpt lat="41.15174" lon="20.63294">
        <ele>770.239432</ele>
        <time>2022-05-01T07:38:16.552Z</time>
      </trkpt>
      <trkpt lat="41.15165" lon="20.63289">
        <ele>770.153289</ele>
        <time>2022-05-01T07:38:19.579Z</time>
      </trkpt>
      <trkpt lat="41.15156" lon="20.63284">
        <ele>770.068972</ele>
        <time>2022-05-01T07:38:22.581Z</time>
      </trkpt>
      <trkpt lat="41.15147" lon="20.6328">
        <ele>769.988966</ele>
        <time>2022-05-01T07:38:25.545Z</time>
      </trkpt>
      <trkpt lat="41.15138" lon="20.63275">
        <ele>769.903194</ele>
        <time>2022-05-01T07:38:28.550Z</time>
      </trkpt>
      <trkpt lat="41.15128" lon="20.6327">
        <ele>769.815185</ele>
        <time>2022-05-01T07:38:31.523Z</time>
      </trkpt>
      <trkpt lat="41.15118" lon="20.63267">
        <ele>769.721172</ele>
        <time>2022-05-01T07:38:34.538Z</time>
      </trkpt>
      <trkpt lat="41.15107" lon="20.63266">
        <ele>769.625301</ele>
        <time>2022-05-01T07:38:37.546Z</time>
      </trkpt>
      <trkpt lat="41.15095" lon="20.63263">
        <ele>769.522127</ele>
        <time>2022-05-01T07:38:40.546Z</time>
      </trkpt>
      <trkpt lat="41.15082" lon="20.63261">
        <ele>769.410309</ele>
        <time>2022-05-01T07:38:43.533Z</time>
      </trkpt>
      <trkpt lat="41.15068" lon="20.63258">
        <ele>769.292009</ele>
        <time>2022-05-01T07:38:46.540Z</time>
      </trkpt>
      <trkpt lat="41.15059" lon="20.63255">
        <ele>769.205088</ele>
        <time>2022-05-01T07:38:48.543Z</time>
      </trkpt>
      <trkpt lat="41.15049" lon="20.63251">
        <ele>769.116201</ele>
        <time>2022-05-01T07:38:50.558Z</time>
      </trkpt>
      <trkpt lat="41.15038" lon="20.63247">
        <ele>769.022622</ele>
        <time>2022-05-01T07:38:52.534Z</time>
      </trkpt>
      <trkpt lat="41.15028" lon="20.63243">
        <ele>768.926189</ele>
        <time>2022-05-01T07:38:54.530Z</time>
      </trkpt>
      <trkpt lat="41.15017" lon="20.63238">
        <ele>768.825496</ele>
        <time>2022-05-01T07:38:56.556Z</time>
      </trkpt>
      <trkpt lat="41.15005" lon="20.63233">
        <ele>768.637664</ele>
        <time>2022-05-01T07:38:58.521Z</time>
      </trkpt>
      <trkpt lat="41.14994" lon="20.63228">
        <ele>768.412724</ele>
        <time>2022-05-01T07:39:00.531Z</time>
      </trkpt>
      <trkpt lat="41.14983" lon="20.63222">
        <ele>768.199161</ele>
        <time>2022-05-01T07:39:02.518Z</time>
      </trkpt>
      <trkpt lat="41.14972" lon="20.63217">
        <ele>767.981148</ele>
        <time>2022-05-01T07:39:04.540Z</time>
      </trkpt>
      <trkpt lat="41.1496" lon="20.63211">
        <ele>767.737854</ele>
        <time>2022-05-01T07:39:06.549Z</time>
      </trkpt>
      <trkpt lat="41.14947" lon="20.63205">
        <ele>767.490139</ele>
        <time>2022-05-01T07:39:08.542Z</time>
      </trkpt>
      <trkpt lat="41.14935" lon="20.63199">
        <ele>767.245905</ele>
        <time>2022-05-01T07:39:10.539Z</time>
      </trkpt>
      <trkpt lat="41.14923" lon="20.63194">
        <ele>767.011872</ele>
        <time>2022-05-01T07:39:12.517Z</time>
      </trkpt>
      <trkpt lat="41.14911" lon="20.63188">
        <ele>766.775067</ele>
        <time>2022-05-01T07:39:14.537Z</time>
      </trkpt>
      <trkpt lat="41.14898" lon="20.63182">
        <ele>766.534421</ele>
        <time>2022-05-01T07:39:16.532Z</time>
      </trkpt>
      <trkpt lat="41.14887" lon="20.63178">
        <ele>766.309001</ele>
        <time>2022-05-01T07:39:18.561Z</time>
      </trkpt>
      <trkpt lat="41.14875" lon="20.63173">
        <ele>766.083304</ele>
        <time>2022-05-01T07:39:20.565Z</time>
      </trkpt>
      <trkpt lat="41.14865" lon="20.63169">
        <ele>765.879545</ele>
        <time>2022-05-01T07:39:22.547Z</time>
      </trkpt>
      <trkpt lat="41.14854" lon="20.63165">
        <ele>765.681335</ele>
        <time>2022-05-01T07:39:24.564Z</time>
      </trkpt>
      <trkpt lat="41.14845" lon="20.63162">
        <ele>765.512848</ele>
        <time>2022-05-01T07:39:26.537Z</time>
      </trkpt>
      <trkpt lat="41.14833" lon="20.63157">
        <ele>765.518576</ele>
        <time>2022-05-01T07:39:29.538Z</time>
      </trkpt>
      <trkpt lat="41.14822" lon="20.63152">
        <ele>765.571163</ele>
        <time>2022-05-01T07:39:32.541Z</time>
      </trkpt>
      <trkpt lat="41.14811" lon="20.63148">
        <ele>765.62715</ele>
        <time>2022-05-01T07:39:35.524Z</time>
      </trkpt>
      <trkpt lat="41.14799" lon="20.63143">
        <ele>765.683771</ele>
        <time>2022-05-01T07:39:38.529Z</time>
      </trkpt>
      <trkpt lat="41.14789" lon="20.63138">
        <ele>765.735015</ele>
        <time>2022-05-01T07:39:41.530Z</time>
      </trkpt>
      <trkpt lat="41.14778" lon="20.63132">
        <ele>765.789854</ele>
        <time>2022-05-01T07:39:44.538Z</time>
      </trkpt>
      <trkpt lat="41.14767" lon="20.63126">
        <ele>765.845577</ele>
        <time>2022-05-01T07:39:47.538Z</time>
      </trkpt>
      <trkpt lat="41.14756" lon="20.63121">
        <ele>765.897283</ele>
        <time>2022-05-01T07:39:50.537Z</time>
      </trkpt>
      <trkpt lat="41.14746" lon="20.63116">
        <ele>765.945471</ele>
        <time>2022-05-01T07:39:53.550Z</time>
      </trkpt>
      <trkpt lat="41.14736" lon="20.63111">
        <ele>765.996125</ele>
        <time>2022-05-01T07:39:56.537Z</time>
      </trkpt>
      <trkpt lat="41.14727" lon="20.63105">
        <ele>766.043224</ele>
        <time>2022-05-01T07:39:59.519Z</time>
      </trkpt>
      <trkpt lat="41.14717" lon="20.631">
        <ele>766.091173</ele>
        <time>2022-05-01T07:40:02.553Z</time>
      </trkpt>
      <trkpt lat="41.14708" lon="20.63094">
        <ele>766.139949</ele>
        <time>2022-05-01T07:40:05.545Z</time>
      </trkpt>
      <trkpt lat="41.14697" lon="20.63088">
        <ele>766.193376</ele>
        <time>2022-05-01T07:40:08.556Z</time>
      </trkpt>
      <trkpt lat="41.14687" lon="20.63082">
        <ele>766.243567</ele>
        <time>2022-05-01T07:40:11.525Z</time>
      </trkpt>
      <trkpt lat="41.14677" lon="20.63076">
        <ele>766.294316</ele>
        <time>2022-05-01T07:40:14.528Z</time>
      </trkpt>
      <trkpt lat="41.14668" lon="20.6307">
        <ele>766.552288</ele>
        <time>2022-05-01T07:40:17.535Z</time>
      </trkpt>
      <trkpt lat="41.14659" lon="20.63064">
        <ele>766.838696</ele>
        <time>2022-05-01T07:40:20.538Z</time>
      </trkpt>
      <trkpt lat="41.14651" lon="20.63058">
        <ele>767.129234</ele>
        <time>2022-05-01T07:40:23.541Z</time>
      </trkpt>
      <trkpt lat="41.14641" lon="20.63052">
        <ele>767.436123</ele>
        <time>2022-05-01T07:40:26.536Z</time>
      </trkpt>
      <trkpt lat="41.14633" lon="20.63047">
        <ele>767.700214</ele>
        <time>2022-05-01T07:40:29.519Z</time>
      </trkpt>
      <trkpt lat="41.14622" lon="20.63041">
        <ele>768.04016</ele>
        <time>2022-05-01T07:40:33.571Z</time>
      </trkpt>
      <trkpt lat="41.14611" lon="20.63035">
        <ele>768.381128</ele>
        <time>2022-05-01T07:40:37.528Z</time>
      </trkpt>
      <trkpt lat="41.14601" lon="20.6303">
        <ele>768.703378</ele>
        <time>2022-05-01T07:40:41.527Z</time>
      </trkpt>
      <trkpt lat="41.14591" lon="20.63027">
        <ele>769.012853</ele>
        <time>2022-05-01T07:40:45.541Z</time>
      </trkpt>
      <trkpt lat="41.14579" lon="20.63024">
        <ele>769.356461</ele>
        <time>2022-05-01T07:40:49.532Z</time>
      </trkpt>
      <trkpt lat="41.14567" lon="20.63024">
        <ele>769.704928</ele>
        <time>2022-05-01T07:40:53.569Z</time>
      </trkpt>
      <trkpt lat="41.14556" lon="20.63023">
        <ele>770.048225</ele>
        <time>2022-05-01T07:40:57.519Z</time>
      </trkpt>
      <trkpt lat="41.14544" lon="20.63022">
        <ele>770.39736</ele>
        <time>2022-05-01T07:41:01.540Z</time>
      </trkpt>
      <trkpt lat="41.14534" lon="20.63018">
        <ele>770.681934</ele>
        <time>2022-05-01T07:41:04.571Z</time>
      </trkpt>
      <trkpt lat="41.14525" lon="20.63014">
        <ele>770.97921</ele>
        <time>2022-05-01T07:41:07.546Z</time>
      </trkpt>
      <trkpt lat="41.14516" lon="20.63009">
        <ele>771.262941</ele>
        <time>2022-05-01T07:41:10.545Z</time>
      </trkpt>
      <trkpt lat="41.14507" lon="20.63002">
        <ele>771.568612</ele>
        <time>2022-05-01T07:41:13.520Z</time>
      </trkpt>
      <trkpt lat="41.14498" lon="20.62995">
        <ele>771.80717</ele>
        <time>2022-05-01T07:41:16.529Z</time>
      </trkpt>
      <trkpt lat="41.14489" lon="20.62988">
        <ele>772.077058</ele>
        <time>2022-05-01T07:41:19.540Z</time>
      </trkpt>
      <trkpt lat="41.14479" lon="20.6298">
        <ele>772.360381</ele>
        <time>2022-05-01T07:41:22.538Z</time>
      </trkpt>
      <trkpt lat="41.14468" lon="20.62975">
        <ele>772.637953</ele>
        <time>2022-05-01T07:41:25.529Z</time>
      </trkpt>
      <trkpt lat="41.14456" lon="20.6297">
        <ele>772.929512</ele>
        <time>2022-05-01T07:41:28.523Z</time>
      </trkpt>
      <trkpt lat="41.14445" lon="20.62969">
        <ele>773.206819</ele>
        <time>2022-05-01T07:41:31.538Z</time>
      </trkpt>
      <trkpt lat="41.14434" lon="20.62969">
        <ele>773.473716</ele>
        <time>2022-05-01T07:41:34.536Z</time>
      </trkpt>
      <trkpt lat="41.14423" lon="20.62967">
        <ele>773.746685</ele>
        <time>2022-05-01T07:41:37.528Z</time>
      </trkpt>
      <trkpt lat="41.14411" lon="20.62966">
        <ele>774.024665</ele>
        <time>2022-05-01T07:41:40.547Z</time>
      </trkpt>
      <trkpt lat="41.14401" lon="20.62963">
        <ele>774.284551</ele>
        <time>2022-05-01T07:41:43.559Z</time>
      </trkpt>
      <trkpt lat="41.14391" lon="20.62961">
        <ele>774.533687</ele>
        <time>2022-05-01T07:41:46.531Z</time>
      </trkpt>
      <trkpt lat="41.1438" lon="20.62958">
        <ele>774.799256</ele>
        <time>2022-05-01T07:41:49.561Z</time>
      </trkpt>
      <trkpt lat="41.14369" lon="20.62954">
        <ele>775.072999</ele>
        <time>2022-05-01T07:41:52.565Z</time>
      </trkpt>
      <trkpt lat="41.14358" lon="20.62949">
        <ele>775.353243</ele>
        <time>2022-05-01T07:41:55.519Z</time>
      </trkpt>
      <trkpt lat="41.14348" lon="20.62945">
        <ele>775.603557</ele>
        <time>2022-05-01T07:41:58.538Z</time>
      </trkpt>
      <trkpt lat="41.14338" lon="20.62942">
        <ele>775.866523</ele>
        <time>2022-05-01T07:42:01.533Z</time>
      </trkpt>
      <trkpt lat="41.14327" lon="20.62938">
        <ele>776.17347</ele>
        <time>2022-05-01T07:42:04.526Z</time>
      </trkpt>
      <trkpt lat="41.14317" lon="20.62933">
        <ele>776.514008</ele>
        <time>2022-05-01T07:42:07.536Z</time>
      </trkpt>
      <trkpt lat="41.14307" lon="20.62931">
        <ele>776.795099</ele>
        <time>2022-05-01T07:42:10.545Z</time>
      </trkpt>
      <trkpt lat="41.14296" lon="20.62927">
        <ele>777.14189</ele>
        <time>2022-05-01T07:42:14.526Z</time>
      </trkpt>
      <trkpt lat="41.14285" lon="20.62924">
        <ele>777.493218</ele>
        <time>2022-05-01T07:42:18.563Z</time>
      </trkpt>
      <trkpt lat="41.14275" lon="20.6292">
        <ele>777.81455</ele>
        <time>2022-05-01T07:42:21.527Z</time>
      </trkpt>
      <trkpt lat="41.14264" lon="20.62915">
        <ele>778.152233</ele>
        <time>2022-05-01T07:42:24.549Z</time>
      </trkpt>
      <trkpt lat="41.14254" lon="20.6291">
        <ele>778.475226</ele>
        <time>2022-05-01T07:42:28.518Z</time>
      </trkpt>
      <trkpt lat="41.14245" lon="20.62903">
        <ele>778.788282</ele>
        <time>2022-05-01T07:42:32.542Z</time>
      </trkpt>
      <trkpt lat="41.14237" lon="20.62896">
        <ele>779.086102</ele>
        <time>2022-05-01T07:42:35.536Z</time>
      </trkpt>
      <trkpt lat="41.14228" lon="20.62891">
        <ele>779.372097</ele>
        <time>2022-05-01T07:42:38.524Z</time>
      </trkpt>
      <trkpt lat="41.14218" lon="20.62886">
        <ele>779.690304</ele>
        <time>2022-05-01T07:42:42.532Z</time>
      </trkpt>
      <trkpt lat="41.14209" lon="20.62879">
        <ele>780.006137</ele>
        <time>2022-05-01T07:42:46.528Z</time>
      </trkpt>
      <trkpt lat="41.14201" lon="20.62874">
        <ele>780.282774</ele>
        <time>2022-05-01T07:42:50.536Z</time>
      </trkpt>
      <trkpt lat="41.14192" lon="20.62869">
        <ele>780.571385</ele>
        <time>2022-05-01T07:42:54.539Z</time>
      </trkpt>
      <trkpt lat="41.14182" lon="20.62864">
        <ele>780.886794</ele>
        <time>2022-05-01T07:42:59.529Z</time>
      </trkpt>
      <trkpt lat="41.14173" lon="20.62859">
        <ele>781.186409</ele>
        <time>2022-05-01T07:43:04.538Z</time>
      </trkpt>
      <trkpt lat="41.14163" lon="20.62853">
        <ele>781.444647</ele>
        <time>2022-05-01T07:43:09.539Z</time>
      </trkpt>
      <trkpt lat="41.14154" lon="20.62848">
        <ele>781.603333</ele>
        <time>2022-05-01T07:43:13.580Z</time>
      </trkpt>
      <trkpt lat="41.14143" lon="20.62845">
        <ele>781.776602</ele>
        <time>2022-05-01T07:43:18.539Z</time>
      </trkpt>
      <trkpt lat="41.14133" lon="20.6284">
        <ele>781.952557</ele>
        <time>2022-05-01T07:43:23.525Z</time>
      </trkpt>
      <trkpt lat="41.14123" lon="20.62835">
        <ele>782.129331</ele>
        <time>2022-05-01T07:43:28.524Z</time>
      </trkpt>
      <trkpt lat="41.14113" lon="20.62833">
        <ele>782.285553</ele>
        <time>2022-05-01T07:43:32.535Z</time>
      </trkpt>
      <trkpt lat="41.14103" lon="20.62829">
        <ele>782.468469</ele>
        <time>2022-05-01T07:43:36.536Z</time>
      </trkpt>
      <trkpt lat="41.14094" lon="20.62826">
        <ele>782.61842</ele>
        <time>2022-05-01T07:43:39.531Z</time>
      </trkpt>
      <trkpt lat="41.14084" lon="20.62825">
        <ele>782.773481</ele>
        <time>2022-05-01T07:43:43.542Z</time>
      </trkpt>
      <trkpt lat="41.14074" lon="20.62825">
        <ele>782.946234</ele>
        <time>2022-05-01T07:43:47.545Z</time>
      </trkpt>
      <trkpt lat="41.14064" lon="20.62825">
        <ele>783.104359</ele>
        <time>2022-05-01T07:43:50.523Z</time>
      </trkpt>
      <trkpt lat="41.14055" lon="20.62824">
        <ele>783.258145</ele>
        <time>2022-05-01T07:43:53.540Z</time>
      </trkpt>
      <trkpt lat="41.14044" lon="20.62823">
        <ele>783.438121</ele>
        <time>2022-05-01T07:43:57.532Z</time>
      </trkpt>
      <trkpt lat="41.14034" lon="20.62822">
        <ele>783.598064</ele>
        <time>2022-05-01T07:44:01.521Z</time>
      </trkpt>
      <trkpt lat="41.14024" lon="20.62822">
        <ele>783.754559</ele>
        <time>2022-05-01T07:44:05.535Z</time>
      </trkpt>
      <trkpt lat="41.14014" lon="20.6282">
        <ele>783.923426</ele>
        <time>2022-05-01T07:44:10.525Z</time>
      </trkpt>
      <trkpt lat="41.14005" lon="20.6282">
        <ele>784.070105</ele>
        <time>2022-05-01T07:44:14.555Z</time>
      </trkpt>
      <trkpt lat="41.13993" lon="20.62821">
        <ele>784.260974</ele>
        <time>2022-05-01T07:44:18.575Z</time>
      </trkpt>
      <trkpt lat="41.13983" lon="20.6282">
        <ele>784.739208</ele>
        <time>2022-05-01T07:44:22.541Z</time>
      </trkpt>
      <trkpt lat="41.13973" lon="20.62819">
        <ele>785.235797</ele>
        <time>2022-05-01T07:44:26.570Z</time>
      </trkpt>
      <trkpt lat="41.13962" lon="20.62818">
        <ele>785.815702</ele>
        <time>2022-05-01T07:44:31.535Z</time>
      </trkpt>
      <trkpt lat="41.13952" lon="20.62818">
        <ele>786.324227</ele>
        <time>2022-05-01T07:44:35.536Z</time>
      </trkpt>
      <trkpt lat="41.13942" lon="20.62817">
        <ele>786.813897</ele>
        <time>2022-05-01T07:44:39.524Z</time>
      </trkpt>
      <trkpt lat="41.13933" lon="20.62815">
        <ele>787.297995</ele>
        <time>2022-05-01T07:44:43.529Z</time>
      </trkpt>
      <trkpt lat="41.13923" lon="20.62813">
        <ele>787.782714</ele>
        <time>2022-05-01T07:44:47.535Z</time>
      </trkpt>
      <trkpt lat="41.13912" lon="20.62812">
        <ele>788.350076</ele>
        <time>2022-05-01T07:44:52.540Z</time>
      </trkpt>
      <trkpt lat="41.13903" lon="20.62808">
        <ele>788.869231</ele>
        <time>2022-05-01T07:44:57.524Z</time>
      </trkpt>
      <trkpt lat="41.13891" lon="20.62805">
        <ele>789.446028</ele>
        <time>2022-05-01T07:45:02.538Z</time>
      </trkpt>
      <trkpt lat="41.13881" lon="20.62801">
        <ele>789.984826</ele>
        <time>2022-05-01T07:45:06.540Z</time>
      </trkpt>
      <trkpt lat="41.13871" lon="20.62798">
        <ele>790.522514</ele>
        <time>2022-05-01T07:45:10.569Z</time>
      </trkpt>
      <trkpt lat="41.13861" lon="20.62795">
        <ele>791.014265</ele>
        <time>2022-05-01T07:45:14.551Z</time>
      </trkpt>
      <trkpt lat="41.13851" lon="20.6279">
        <ele>791.567933</ele>
        <time>2022-05-01T07:45:18.541Z</time>
      </trkpt>
      <trkpt lat="41.13843" lon="20.62783">
        <ele>792.076919</ele>
        <time>2022-05-01T07:45:22.548Z</time>
      </trkpt>
      <trkpt lat="41.13833" lon="20.62778">
        <ele>792.63203</ele>
        <time>2022-05-01T07:45:26.547Z</time>
      </trkpt>
      <trkpt lat="41.13823" lon="20.62775">
        <ele>793.12191</ele>
        <time>2022-05-01T07:45:30.518Z</time>
      </trkpt>
      <trkpt lat="41.13813" lon="20.62774">
        <ele>793.718779</ele>
        <time>2022-05-01T07:45:34.531Z</time>
      </trkpt>
      <trkpt lat="41.13802" lon="20.62775">
        <ele>794.509509</ele>
        <time>2022-05-01T07:45:38.542Z</time>
      </trkpt>
      <trkpt lat="41.13792" lon="20.62777">
        <ele>795.205476</ele>
        <time>2022-05-01T07:45:42.540Z</time>
      </trkpt>
      <trkpt lat="41.13783" lon="20.62779">
        <ele>795.894376</ele>
        <time>2022-05-01T07:45:47.542Z</time>
      </trkpt>
      <trkpt lat="41.13773" lon="20.62781">
        <ele>796.604449</ele>
        <time>2022-05-01T07:45:51.532Z</time>
      </trkpt>
      <trkpt lat="41.13763" lon="20.62784">
        <ele>797.355697</ele>
        <time>2022-05-01T07:45:55.538Z</time>
      </trkpt>
      <trkpt lat="41.13752" lon="20.62787">
        <ele>798.105082</ele>
        <time>2022-05-01T07:45:59.522Z</time>
      </trkpt>
      <trkpt lat="41.13742" lon="20.62791">
        <ele>798.863269</ele>
        <time>2022-05-01T07:46:03.524Z</time>
      </trkpt>
      <trkpt lat="41.13732" lon="20.62793">
        <ele>799.595082</ele>
        <time>2022-05-01T07:46:07.526Z</time>
      </trkpt>
      <trkpt lat="41.13722" lon="20.62795">
        <ele>800.338649</ele>
        <time>2022-05-01T07:46:11.547Z</time>
      </trkpt>
      <trkpt lat="41.13711" lon="20.62797">
        <ele>801.095633</ele>
        <time>2022-05-01T07:46:15.536Z</time>
      </trkpt>
      <trkpt lat="41.13699" lon="20.62799">
        <ele>801.933448</ele>
        <time>2022-05-01T07:46:19.527Z</time>
      </trkpt>
      <trkpt lat="41.1369" lon="20.62801">
        <ele>802.632542</ele>
        <time>2022-05-01T07:46:22.539Z</time>
      </trkpt>
      <trkpt lat="41.13678" lon="20.62803">
        <ele>803.444931</ele>
        <time>2022-05-01T07:46:26.530Z</time>
      </trkpt>
      <trkpt lat="41.13668" lon="20.62806">
        <ele>804.218175</ele>
        <time>2022-05-01T07:46:30.534Z</time>
      </trkpt>
      <trkpt lat="41.13658" lon="20.6281">
        <ele>804.957457</ele>
        <time>2022-05-01T07:46:34.525Z</time>
      </trkpt>
      <trkpt lat="41.13647" lon="20.62813">
        <ele>805.727643</ele>
        <time>2022-05-01T07:46:38.528Z</time>
      </trkpt>
      <trkpt lat="41.13639" lon="20.62816">
        <ele>806.270924</ele>
        <time>2022-05-01T07:46:42.540Z</time>
      </trkpt>
      <trkpt lat="41.13629" lon="20.6282">
        <ele>806.508975</ele>
        <time>2022-05-01T07:46:46.526Z</time>
      </trkpt>
      <trkpt lat="41.1362" lon="20.62822">
        <ele>806.723899</ele>
        <time>2022-05-01T07:46:50.539Z</time>
      </trkpt>
      <trkpt lat="41.1361" lon="20.62825">
        <ele>806.95207</ele>
        <time>2022-05-01T07:46:55.567Z</time>
      </trkpt>
      <trkpt lat="41.13599" lon="20.62828">
        <ele>807.209397</ele>
        <time>2022-05-01T07:47:00.540Z</time>
      </trkpt>
      <trkpt lat="41.1359" lon="20.62831">
        <ele>807.429537</ele>
        <time>2022-05-01T07:47:04.532Z</time>
      </trkpt>
      <trkpt lat="41.13581" lon="20.62833">
        <ele>807.640092</ele>
        <time>2022-05-01T07:47:08.529Z</time>
      </trkpt>
      <trkpt lat="41.1357" lon="20.62835">
        <ele>807.909163</ele>
        <time>2022-05-01T07:47:13.535Z</time>
      </trkpt>
      <trkpt lat="41.1356" lon="20.62836">
        <ele>808.139366</ele>
        <time>2022-05-01T07:47:17.541Z</time>
      </trkpt>
      <trkpt lat="41.13551" lon="20.62838">
        <ele>808.353691</ele>
        <time>2022-05-01T07:47:21.539Z</time>
      </trkpt>
      <trkpt lat="41.13541" lon="20.6284">
        <ele>808.581781</ele>
        <time>2022-05-01T07:47:25.532Z</time>
      </trkpt>
      <trkpt lat="41.13531" lon="20.62842">
        <ele>808.822481</ele>
        <time>2022-05-01T07:47:30.547Z</time>
      </trkpt>
      <trkpt lat="41.13522" lon="20.62845">
        <ele>809.03727</ele>
        <time>2022-05-01T07:47:34.549Z</time>
      </trkpt>
      <trkpt lat="41.13512" lon="20.62849">
        <ele>809.273279</ele>
        <time>2022-05-01T07:47:39.540Z</time>
      </trkpt>
      <trkpt lat="41.13503" lon="20.62852">
        <ele>809.48352</ele>
        <time>2022-05-01T07:47:44.573Z</time>
      </trkpt>
      <trkpt lat="41.13493" lon="20.62856">
        <ele>809.725629</ele>
        <time>2022-05-01T07:47:50.536Z</time>
      </trkpt>
      <trkpt lat="41.13484" lon="20.62858">
        <ele>809.949409</ele>
        <time>2022-05-01T07:47:55.568Z</time>
      </trkpt>
      <trkpt lat="41.13475" lon="20.62859">
        <ele>810.16132</ele>
        <time>2022-05-01T07:47:59.543Z</time>
      </trkpt>
      <trkpt lat="41.13465" lon="20.6286">
        <ele>810.375806</ele>
        <time>2022-05-01T07:48:03.543Z</time>
      </trkpt>
      <trkpt lat="41.13456" lon="20.62861">
        <ele>810.449368</ele>
        <time>2022-05-01T07:48:07.544Z</time>
      </trkpt>
      <trkpt lat="41.13447" lon="20.62863">
        <ele>810.505117</ele>
        <time>2022-05-01T07:48:12.573Z</time>
      </trkpt>
      <trkpt lat="41.13437" lon="20.62865">
        <ele>810.563645</ele>
        <time>2022-05-01T07:48:17.526Z</time>
      </trkpt>
      <trkpt lat="41.13428" lon="20.62868">
        <ele>810.616461</ele>
        <time>2022-05-01T07:48:21.541Z</time>
      </trkpt>
      <trkpt lat="41.13418" lon="20.6287">
        <ele>810.67564</ele>
        <time>2022-05-01T07:48:26.538Z</time>
      </trkpt>
      <trkpt lat="41.13408" lon="20.62871">
        <ele>810.735156</ele>
        <time>2022-05-01T07:48:31.531Z</time>
      </trkpt>
      <trkpt lat="41.13398" lon="20.62872">
        <ele>810.79392</ele>
        <time>2022-05-01T07:48:36.561Z</time>
      </trkpt>
      <trkpt lat="41.13388" lon="20.62873">
        <ele>810.852791</ele>
        <time>2022-05-01T07:48:41.581Z</time>
      </trkpt>
      <trkpt lat="41.13377" lon="20.62873">
        <ele>810.913332</ele>
        <time>2022-05-01T07:48:46.573Z</time>
      </trkpt>
      <trkpt lat="41.13368" lon="20.62874">
        <ele>810.969272</ele>
        <time>2022-05-01T07:48:51.538Z</time>
      </trkpt>
      <trkpt lat="41.13358" lon="20.62875">
        <ele>811.024236</ele>
        <time>2022-05-01T07:48:56.514Z</time>
      </trkpt>
      <trkpt lat="41.13349" lon="20.62876">
        <ele>811.078338</ele>
        <time>2022-05-01T07:49:00.561Z</time>
      </trkpt>
      <trkpt lat="41.13338" lon="20.62878">
        <ele>811.142595</ele>
        <time>2022-05-01T07:49:05.520Z</time>
      </trkpt>
      <trkpt lat="41.13328" lon="20.62878">
        <ele>811.20136</ele>
        <time>2022-05-01T07:49:10.591Z</time>
      </trkpt>
      <trkpt lat="41.13318" lon="20.62877">
        <ele>811.259597</ele>
        <time>2022-05-01T07:49:15.545Z</time>
      </trkpt>
      <trkpt lat="41.13309" lon="20.62877">
        <ele>811.314267</ele>
        <time>2022-05-01T07:49:20.555Z</time>
      </trkpt>
      <trkpt lat="41.13298" lon="20.62877">
        <ele>811.373613</ele>
        <time>2022-05-01T07:49:25.572Z</time>
      </trkpt>
      <trkpt lat="41.13288" lon="20.62877">
        <ele>811.43119</ele>
        <time>2022-05-01T07:49:30.528Z</time>
      </trkpt>
      <trkpt lat="41.13279" lon="20.62876">
        <ele>811.608096</ele>
        <time>2022-05-01T07:49:35.526Z</time>
      </trkpt>
      <trkpt lat="41.13269" lon="20.62876">
        <ele>811.823924</ele>
        <time>2022-05-01T07:49:39.531Z</time>
      </trkpt>
      <trkpt lat="41.1326" lon="20.62878">
        <ele>812.044089</ele>
        <time>2022-05-01T07:49:44.533Z</time>
      </trkpt>
      <trkpt lat="41.13251" lon="20.62881">
        <ele>812.27079</ele>
        <time>2022-05-01T07:49:49.517Z</time>
      </trkpt>
      <trkpt lat="41.13241" lon="20.62887">
        <ele>812.513148</ele>
        <time>2022-05-01T07:49:54.535Z</time>
      </trkpt>
      <trkpt lat="41.13233" lon="20.62892">
        <ele>812.735479</ele>
        <time>2022-05-01T07:49:59.531Z</time>
      </trkpt>
      <trkpt lat="41.13222" lon="20.62896">
        <ele>812.986671</ele>
        <time>2022-05-01T07:50:06.550Z</time>
      </trkpt>
      <trkpt lat="41.13212" lon="20.62897">
        <ele>813.234538</ele>
        <time>2022-05-01T07:50:12.542Z</time>
      </trkpt>
      <trkpt lat="41.13202" lon="20.62898">
        <ele>813.469169</ele>
        <time>2022-05-01T07:50:19.522Z</time>
      </trkpt>
      <trkpt lat="41.13193" lon="20.62896">
        <ele>813.68445</ele>
        <time>2022-05-01T07:50:25.523Z</time>
      </trkpt>
      <trkpt lat="41.13184" lon="20.62892">
        <ele>813.901473</ele>
        <time>2022-05-01T07:50:31.518Z</time>
      </trkpt>
      <trkpt lat="41.13175" lon="20.62889">
        <ele>814.130902</ele>
        <time>2022-05-01T07:50:37.531Z</time>
      </trkpt>
      <trkpt lat="41.13165" lon="20.62887">
        <ele>814.351852</ele>
        <time>2022-05-01T07:50:43.525Z</time>
      </trkpt>
      <trkpt lat="41.13156" lon="20.62884">
        <ele>814.584039</ele>
        <time>2022-05-01T07:50:49.523Z</time>
      </trkpt>
      <trkpt lat="41.13146" lon="20.62882">
        <ele>814.81095</ele>
        <time>2022-05-01T07:50:56.541Z</time>
      </trkpt>
      <trkpt lat="41.13136" lon="20.62879">
        <ele>815.048061</ele>
        <time>2022-05-01T07:51:02.573Z</time>
      </trkpt>
      <trkpt lat="41.13126" lon="20.62875">
        <ele>815.289264</ele>
        <time>2022-05-01T07:51:08.578Z</time>
      </trkpt>
      <trkpt lat="41.13118" lon="20.62872">
        <ele>815.502341</ele>
        <time>2022-05-01T07:51:14.530Z</time>
      </trkpt>
      <trkpt lat="41.13108" lon="20.62869">
        <ele>815.761646</ele>
        <time>2022-05-01T07:51:20.543Z</time>
      </trkpt>
      <trkpt lat="41.13099" lon="20.62865">
        <ele>816.046136</ele>
        <time>2022-05-01T07:51:26.542Z</time>
      </trkpt>
      <trkpt lat="41.13089" lon="20.62861">
        <ele>816.347524</ele>
        <time>2022-05-01T07:51:33.542Z</time>
      </trkpt>
      <trkpt lat="41.13078" lon="20.62858">
        <ele>816.66829</ele>
        <time>2022-05-01T07:51:39.525Z</time>
      </trkpt>
      <trkpt lat="41.13069" lon="20.62854">
        <ele>816.938293</ele>
        <time>2022-05-01T07:51:44.535Z</time>
      </trkpt>
      <trkpt lat="41.1306" lon="20.62851">
        <ele>817.228426</ele>
        <time>2022-05-01T07:51:49.516Z</time>
      </trkpt>
      <trkpt lat="41.1305" lon="20.62846">
        <ele>817.5374</ele>
        <time>2022-05-01T07:51:55.542Z</time>
      </trkpt>
      <trkpt lat="41.13041" lon="20.62842">
        <ele>817.822605</ele>
        <time>2022-05-01T07:52:00.533Z</time>
      </trkpt>
      <trkpt lat="41.13032" lon="20.62836">
        <ele>818.104462</ele>
        <time>2022-05-01T07:52:05.537Z</time>
      </trkpt>
      <trkpt lat="41.13023" lon="20.6283">
        <ele>818.40227</ele>
        <time>2022-05-01T07:52:10.571Z</time>
      </trkpt>
      <trkpt lat="41.13015" lon="20.62824">
        <ele>818.688632</ele>
        <time>2022-05-01T07:52:15.535Z</time>
      </trkpt>
      <trkpt lat="41.13007" lon="20.62818">
        <ele>818.970931</ele>
        <time>2022-05-01T07:52:20.540Z</time>
      </trkpt>
      <trkpt lat="41.12999" lon="20.62811">
        <ele>819.242788</ele>
        <time>2022-05-01T07:52:25.524Z</time>
      </trkpt>
      <trkpt lat="41.12991" lon="20.62804">
        <ele>819.518391</ele>
        <time>2022-05-01T07:52:30.542Z</time>
      </trkpt>
      <trkpt lat="41.12983" lon="20.62799">
        <ele>819.795671</ele>
        <time>2022-05-01T07:52:35.558Z</time>
      </trkpt>
      <trkpt lat="41.12974" lon="20.62791">
        <ele>820.097218</ele>
        <time>2022-05-01T07:52:40.522Z</time>
      </trkpt>
      <trkpt lat="41.12966" lon="20.62784">
        <ele>820.393656</ele>
        <time>2022-05-01T07:52:45.536Z</time>
      </trkpt>
      <trkpt lat="41.12957" lon="20.62778">
        <ele>820.685755</ele>
        <time>2022-05-01T07:52:50.533Z</time>
      </trkpt>
      <trkpt lat="41.12948" lon="20.62772">
        <ele>820.994946</ele>
        <time>2022-05-01T07:52:55.567Z</time>
      </trkpt>
      <trkpt lat="41.12938" lon="20.62766">
        <ele>821.988859</ele>
        <time>2022-05-01T07:53:00.531Z</time>
      </trkpt>
      <trkpt lat="41.12929" lon="20.62762">
        <ele>822.888164</ele>
        <time>2022-05-01T07:53:05.531Z</time>
      </trkpt>
      <trkpt lat="41.1292" lon="20.62759">
        <ele>823.830297</ele>
        <time>2022-05-01T07:53:10.540Z</time>
      </trkpt>
      <trkpt lat="41.12911" lon="20.62757">
        <ele>824.704587</ele>
        <time>2022-05-01T07:53:14.528Z</time>
      </trkpt>
      <trkpt lat="41.12901" lon="20.62754">
        <ele>825.674472</ele>
        <time>2022-05-01T07:53:19.531Z</time>
      </trkpt>
      <trkpt lat="41.12891" lon="20.62752">
        <ele>826.597566</ele>
        <time>2022-05-01T07:53:24.541Z</time>
      </trkpt>
      <trkpt lat="41.12881" lon="20.62751">
        <ele>827.555542</ele>
        <time>2022-05-01T07:53:29.541Z</time>
      </trkpt>
      <trkpt lat="41.12871" lon="20.6275">
        <ele>828.513518</ele>
        <time>2022-05-01T07:53:34.564Z</time>
      </trkpt>
      <trkpt lat="41.12861" lon="20.62749">
        <ele>829.482143</ele>
        <time>2022-05-01T07:53:39.548Z</time>
      </trkpt>
      <trkpt lat="41.12851" lon="20.62749">
        <ele>830.402617</ele>
        <time>2022-05-01T07:53:44.538Z</time>
      </trkpt>
      <trkpt lat="41.1284" lon="20.62748">
        <ele>831.408254</ele>
        <time>2022-05-01T07:53:50.535Z</time>
      </trkpt>
      <trkpt lat="41.12831" lon="20.62747">
        <ele>832.321918</ele>
        <time>2022-05-01T07:53:55.542Z</time>
      </trkpt>
      <trkpt lat="41.12821" lon="20.62746">
        <ele>833.270777</ele>
        <time>2022-05-01T07:54:00.519Z</time>
      </trkpt>
      <trkpt lat="41.12812" lon="20.62747">
        <ele>834.138019</ele>
        <time>2022-05-01T07:54:05.574Z</time>
      </trkpt>
      <trkpt lat="41.12801" lon="20.62747">
        <ele>835.133169</ele>
        <time>2022-05-01T07:54:11.534Z</time>
      </trkpt>
      <trkpt lat="41.12791" lon="20.62747">
        <ele>836.071264</ele>
        <time>2022-05-01T07:54:16.545Z</time>
      </trkpt>
      <trkpt lat="41.12782" lon="20.62747">
        <ele>836.971882</ele>
        <time>2022-05-01T07:54:21.550Z</time>
      </trkpt>
      <trkpt lat="41.12772" lon="20.62746">
        <ele>837.912661</ele>
        <time>2022-05-01T07:54:26.539Z</time>
      </trkpt>
      <trkpt lat="41.12762" lon="20.62745">
        <ele>838.359255</ele>
        <time>2022-05-01T07:54:31.517Z</time>
      </trkpt>
      <trkpt lat="41.12752" lon="20.62744">
        <ele>838.773178</ele>
        <time>2022-05-01T07:54:36.525Z</time>
      </trkpt>
      <trkpt lat="41.12742" lon="20.62744">
        <ele>839.181709</ele>
        <time>2022-05-01T07:54:41.538Z</time>
      </trkpt>
      <trkpt lat="41.12732" lon="20.62744">
        <ele>839.578199</ele>
        <time>2022-05-01T07:54:46.535Z</time>
      </trkpt>
      <trkpt lat="41.12722" lon="20.62744">
        <ele>840.00704</ele>
        <time>2022-05-01T07:54:52.566Z</time>
      </trkpt>
      <trkpt lat="41.12711" lon="20.62743">
        <ele>840.43588</ele>
        <time>2022-05-01T07:54:58.536Z</time>
      </trkpt>
      <trkpt lat="41.12702" lon="20.62744">
        <ele>840.812646</ele>
        <time>2022-05-01T07:55:03.575Z</time>
      </trkpt>
      <trkpt lat="41.12692" lon="20.62745">
        <ele>841.225491</ele>
        <time>2022-05-01T07:55:08.610Z</time>
      </trkpt>
      <trkpt lat="41.12681" lon="20.62744">
        <ele>841.646685</ele>
        <time>2022-05-01T07:55:13.582Z</time>
      </trkpt>
      <trkpt lat="41.12671" lon="20.62744">
        <ele>842.067438</ele>
        <time>2022-05-01T07:55:18.543Z</time>
      </trkpt>
      <trkpt lat="41.12661" lon="20.62743">
        <ele>842.480103</ele>
        <time>2022-05-01T07:55:23.547Z</time>
      </trkpt>
      <trkpt lat="41.12651" lon="20.62744">
        <ele>842.852332</ele>
        <time>2022-05-01T07:55:28.544Z</time>
      </trkpt>
      <trkpt lat="41.12642" lon="20.62744">
        <ele>843.21739</ele>
        <time>2022-05-01T07:55:33.525Z</time>
      </trkpt>
      <trkpt lat="41.12633" lon="20.62745">
        <ele>843.614197</ele>
        <time>2022-05-01T07:55:38.516Z</time>
      </trkpt>
      <trkpt lat="41.12623" lon="20.62745">
        <ele>843.994403</ele>
        <time>2022-05-01T07:55:43.520Z</time>
      </trkpt>
      <trkpt lat="41.12613" lon="20.62746">
        <ele>844.391081</ele>
        <time>2022-05-01T07:55:48.533Z</time>
      </trkpt>
      <trkpt lat="41.12603" lon="20.62746">
        <ele>844.796484</ele>
        <time>2022-05-01T07:55:53.527Z</time>
      </trkpt>
      <trkpt lat="41.12593" lon="20.62746">
        <ele>845.205014</ele>
        <time>2022-05-01T07:55:58.558Z</time>
      </trkpt>
      <trkpt lat="41.12583" lon="20.62746">
        <ele>845.349097</ele>
        <time>2022-05-01T07:56:04.571Z</time>
      </trkpt>
      <trkpt lat="41.12573" lon="20.62747">
        <ele>845.410317</ele>
        <time>2022-05-01T07:56:09.539Z</time>
      </trkpt>
      <trkpt lat="41.12563" lon="20.62746">
        <ele>845.473001</ele>
        <time>2022-05-01T07:56:14.546Z</time>
      </trkpt>
      <trkpt lat="41.12554" lon="20.62745">
        <ele>845.532328</ele>
        <time>2022-05-01T07:56:19.544Z</time>
      </trkpt>
      <trkpt lat="41.12544" lon="20.62746">
        <ele>845.591669</ele>
        <time>2022-05-01T07:56:24.544Z</time>
      </trkpt>
      <trkpt lat="41.12533" lon="20.62747">
        <ele>845.660014</ele>
        <time>2022-05-01T07:56:30.533Z</time>
      </trkpt>
      <trkpt lat="41.12524" lon="20.62748">
        <ele>845.716898</ele>
        <time>2022-05-01T07:56:35.565Z</time>
      </trkpt>
      <trkpt lat="41.12514" lon="20.62749">
        <ele>845.78269</ele>
        <time>2022-05-01T07:56:41.557Z</time>
      </trkpt>
      <trkpt lat="41.12503" lon="20.62749">
        <ele>845.850203</ele>
        <time>2022-05-01T07:56:47.543Z</time>
      </trkpt>
      <trkpt lat="41.12493" lon="20.62748">
        <ele>845.913937</ele>
        <time>2022-05-01T07:56:53.533Z</time>
      </trkpt>
      <trkpt lat="41.12484" lon="20.62747">
        <ele>845.971231</ele>
        <time>2022-05-01T07:56:59.542Z</time>
      </trkpt>
      <trkpt lat="41.12475" lon="20.62745">
        <ele>846.030401</ele>
        <time>2022-05-01T07:57:05.535Z</time>
      </trkpt>
      <trkpt lat="41.12465" lon="20.62745">
        <ele>846.090345</ele>
        <time>2022-05-01T07:57:10.529Z</time>
      </trkpt>
      <trkpt lat="41.12456" lon="20.62745">
        <ele>846.149042</ele>
        <time>2022-05-01T07:57:16.526Z</time>
      </trkpt>
      <trkpt lat="41.12446" lon="20.62747">
        <ele>846.21244</ele>
        <time>2022-05-01T07:57:22.567Z</time>
      </trkpt>
      <trkpt lat="41.12437" lon="20.62747">
        <ele>846.269907</ele>
        <time>2022-05-01T07:57:27.523Z</time>
      </trkpt>
      <trkpt lat="41.12427" lon="20.62746">
        <ele>846.330599</ele>
        <time>2022-05-01T07:57:32.549Z</time>
      </trkpt>
      <trkpt lat="41.12418" lon="20.62746">
        <ele>846.389401</ele>
        <time>2022-05-01T07:57:37.527Z</time>
      </trkpt>
      <trkpt lat="41.12408" lon="20.62743">
        <ele>846.485818</ele>
        <time>2022-05-01T07:57:45.569Z</time>
      </trkpt>
      <trkpt lat="41.12398" lon="20.62741">
        <ele>846.618284</ele>
        <time>2022-05-01T07:57:51.575Z</time>
      </trkpt>
      <trkpt lat="41.12388" lon="20.62738">
        <ele>846.760389</ele>
        <time>2022-05-01T07:58:00.534Z</time>
      </trkpt>
      <trkpt lat="41.12377" lon="20.62735">
        <ele>846.900304</ele>
        <time>2022-05-01T07:58:05.536Z</time>
      </trkpt>
      <trkpt lat="41.12368" lon="20.62732">
        <ele>847.037368</ele>
        <time>2022-05-01T07:58:11.535Z</time>
      </trkpt>
      <trkpt lat="41.12358" lon="20.62729">
        <ele>847.162802</ele>
        <time>2022-05-01T07:58:17.533Z</time>
      </trkpt>
      <trkpt lat="41.12349" lon="20.62725">
        <ele>847.300906</ele>
        <time>2022-05-01T07:58:22.541Z</time>
      </trkpt>
      <trkpt lat="41.12339" lon="20.62721">
        <ele>847.439823</ele>
        <time>2022-05-01T07:58:28.537Z</time>
      </trkpt>
      <trkpt lat="41.12329" lon="20.62718">
        <ele>847.571593</ele>
        <time>2022-05-01T07:58:33.575Z</time>
      </trkpt>
      <trkpt lat="41.12319" lon="20.62715">
        <ele>847.704888</ele>
        <time>2022-05-01T07:58:38.532Z</time>
      </trkpt>
      <trkpt lat="41.1231" lon="20.62712">
        <ele>847.839348</ele>
        <time>2022-05-01T07:58:44.539Z</time>
      </trkpt>
      <trkpt lat="41.12301" lon="20.62708">
        <ele>847.969342</ele>
        <time>2022-05-01T07:58:50.532Z</time>
      </trkpt>
      <trkpt lat="41.12291" lon="20.62703">
        <ele>848.109261</ele>
        <time>2022-05-01T07:58:56.517Z</time>
      </trkpt>
      <trkpt lat="41.12282" lon="20.627">
        <ele>848.23362</ele>
        <time>2022-05-01T07:59:01.528Z</time>
      </trkpt>
      <trkpt lat="41.12273" lon="20.62695">
        <ele>848.361504</ele>
        <time>2022-05-01T07:59:08.570Z</time>
      </trkpt>
      <trkpt lat="41.12264" lon="20.6269">
        <ele>848.497494</ele>
        <time>2022-05-01T07:59:16.576Z</time>
      </trkpt>
      <trkpt lat="41.12257" lon="20.62681">
        <ele>848.628552</ele>
        <time>2022-05-01T07:59:25.564Z</time>
      </trkpt>
      <trkpt lat="41.12248" lon="20.62673">
        <ele>848.764012</ele>
        <time>2022-05-01T07:59:32.537Z</time>
      </trkpt>
      <trkpt lat="41.1224" lon="20.62665">
        <ele>848.969141</ele>
        <time>2022-05-01T07:59:38.543Z</time>
      </trkpt>
      <trkpt lat="41.12232" lon="20.62657">
        <ele>849.25818</ele>
        <time>2022-05-01T07:59:45.532Z</time>
      </trkpt>
      <trkpt lat="41.12226" lon="20.62647">
        <ele>849.525019</ele>
        <time>2022-05-01T07:59:51.540Z</time>
      </trkpt>
      <trkpt lat="41.1222" lon="20.62636">
        <ele>849.825873</ele>
        <time>2022-05-01T07:59:58.562Z</time>
      </trkpt>
      <trkpt lat="41.12213" lon="20.62627">
        <ele>850.08681</ele>
        <time>2022-05-01T08:00:04.543Z</time>
      </trkpt>
      <trkpt lat="41.12205" lon="20.62618">
        <ele>850.381686</ele>
        <time>2022-05-01T08:00:11.533Z</time>
      </trkpt>
      <trkpt lat="41.12198" lon="20.62609">
        <ele>850.650498</ele>
        <time>2022-05-01T08:00:16.541Z</time>
      </trkpt>
      <trkpt lat="41.12191" lon="20.62601">
        <ele>850.931551</ele>
        <time>2022-05-01T08:00:21.543Z</time>
      </trkpt>
      <trkpt lat="41.12182" lon="20.62592">
        <ele>851.23514</ele>
        <time>2022-05-01T08:00:27.528Z</time>
      </trkpt>
      <trkpt lat="41.12175" lon="20.62584">
        <ele>851.497522</ele>
        <time>2022-05-01T08:00:33.554Z</time>
      </trkpt>
      <trkpt lat="41.12168" lon="20.62576">
        <ele>851.760032</ele>
        <time>2022-05-01T08:00:40.548Z</time>
      </trkpt>
      <trkpt lat="41.1216" lon="20.6257">
        <ele>852.023668</ele>
        <time>2022-05-01T08:00:46.555Z</time>
      </trkpt>
      <trkpt lat="41.12151" lon="20.62565">
        <ele>852.286287</ele>
        <time>2022-05-01T08:00:52.549Z</time>
      </trkpt>
      <trkpt lat="41.12142" lon="20.6256">
        <ele>852.574181</ele>
        <time>2022-05-01T08:00:59.587Z</time>
      </trkpt>
      <trkpt lat="41.12132" lon="20.62555">
        <ele>852.861771</ele>
        <time>2022-05-01T08:01:06.520Z</time>
      </trkpt>
      <trkpt lat="41.12123" lon="20.6255">
        <ele>853.142474</ele>
        <time>2022-05-01T08:01:13.551Z</time>
      </trkpt>
      <trkpt lat="41.12114" lon="20.62545">
        <ele>853.41678</ele>
        <time>2022-05-01T08:01:19.526Z</time>
      </trkpt>
      <trkpt lat="41.12105" lon="20.62541">
        <ele>853.697628</ele>
        <time>2022-05-01T08:01:26.539Z</time>
      </trkpt>
      <trkpt lat="41.12095" lon="20.62537">
        <ele>854.147979</ele>
        <time>2022-05-01T08:01:32.566Z</time>
      </trkpt>
      <trkpt lat="41.12086" lon="20.62532">
        <ele>855.509453</ele>
        <time>2022-05-01T08:01:39.538Z</time>
      </trkpt>
      <trkpt lat="41.12078" lon="20.62526">
        <ele>856.733535</ele>
        <time>2022-05-01T08:01:47.544Z</time>
      </trkpt>
      <trkpt lat="41.12069" lon="20.6252">
        <ele>858.010753</ele>
        <time>2022-05-01T08:01:54.584Z</time>
      </trkpt>
      <trkpt lat="41.1206" lon="20.62513">
        <ele>859.339776</ele>
        <time>2022-05-01T08:02:03.535Z</time>
      </trkpt>
      <trkpt lat="41.12052" lon="20.62506">
        <ele>860.668156</ele>
        <time>2022-05-01T08:02:11.528Z</time>
      </trkpt>
      <trkpt lat="41.12044" lon="20.62497">
        <ele>862.003986</ele>
        <time>2022-05-01T08:02:19.558Z</time>
      </trkpt>
      <trkpt lat="41.12038" lon="20.62488">
        <ele>863.248205</ele>
        <time>2022-05-01T08:02:27.570Z</time>
      </trkpt>
      <trkpt lat="41.12033" lon="20.62477">
        <ele>864.534322</ele>
        <time>2022-05-01T08:02:36.522Z</time>
      </trkpt>
      <trkpt lat="41.1203" lon="20.62465">
        <ele>865.743231</ele>
        <time>2022-05-01T08:02:45.546Z</time>
      </trkpt>
      <trkpt lat="41.12028" lon="20.62452">
        <ele>867.122942</ele>
        <time>2022-05-01T08:02:54.560Z</time>
      </trkpt>
      <trkpt lat="41.12024" lon="20.62439">
        <ele>868.42813</ele>
        <time>2022-05-01T08:03:02.531Z</time>
      </trkpt>
      <trkpt lat="41.12021" lon="20.62427">
        <ele>869.701807</ele>
        <time>2022-05-01T08:03:09.542Z</time>
      </trkpt>
      <trkpt lat="41.12017" lon="20.62416">
        <ele>870.955538</ele>
        <time>2022-05-01T08:03:16.544Z</time>
      </trkpt>
      <trkpt lat="41.12014" lon="20.62404">
        <ele>872.201839</ele>
        <time>2022-05-01T08:03:23.555Z</time>
      </trkpt>
      <trkpt lat="41.12009" lon="20.62393">
        <ele>873.455571</ele>
        <time>2022-05-01T08:03:30.521Z</time>
      </trkpt>
      <trkpt lat="41.12006" lon="20.62381">
        <ele>874.789177</ele>
        <time>2022-05-01T08:03:38.544Z</time>
      </trkpt>
      <trkpt lat="41.12001" lon="20.62369">
        <ele>876.040203</ele>
        <time>2022-05-01T08:03:46.521Z</time>
      </trkpt>
      <trkpt lat="41.11995" lon="20.6236">
        <ele>877.30124</ele>
        <time>2022-05-01T08:03:53.531Z</time>
      </trkpt>
      <trkpt lat="41.11989" lon="20.62351">
        <ele>878.554887</ele>
        <time>2022-05-01T08:03:59.544Z</time>
      </trkpt>
      <trkpt lat="41.11982" lon="20.62342">
        <ele>879.84971</ele>
        <time>2022-05-01T08:04:05.530Z</time>
      </trkpt>
      <trkpt lat="41.11974" lon="20.62334">
        <ele>881.377679</ele>
        <time>2022-05-01T08:04:11.530Z</time>
      </trkpt>
      <trkpt lat="41.11967" lon="20.62325">
        <ele>882.654893</ele>
        <time>2022-05-01T08:04:16.537Z</time>
      </trkpt>
      <trkpt lat="41.1196" lon="20.62316">
        <ele>884.052786</ele>
        <time>2022-05-01T08:04:21.527Z</time>
      </trkpt>
      <trkpt lat="41.11953" lon="20.62307">
        <ele>885.455575</ele>
        <time>2022-05-01T08:04:26.539Z</time>
      </trkpt>
      <trkpt lat="41.11945" lon="20.62301">
        <ele>886.822006</ele>
        <time>2022-05-01T08:04:32.556Z</time>
      </trkpt>
      <trkpt lat="41.11935" lon="20.62295">
        <ele>888.293391</ele>
        <time>2022-05-01T08:04:38.543Z</time>
      </trkpt>
      <trkpt lat="41.11927" lon="20.6229">
        <ele>889.621556</ele>
        <time>2022-05-01T08:04:44.540Z</time>
      </trkpt>
      <trkpt lat="41.11917" lon="20.62287">
        <ele>890.999314</ele>
        <time>2022-05-01T08:04:50.531Z</time>
      </trkpt>
      <trkpt lat="41.11908" lon="20.62284">
        <ele>892.313888</ele>
        <time>2022-05-01T08:04:56.558Z</time>
      </trkpt>
      <trkpt lat="41.11898" lon="20.62281">
        <ele>893.767762</ele>
        <time>2022-05-01T08:05:02.573Z</time>
      </trkpt>
      <trkpt lat="41.11889" lon="20.62279">
        <ele>895.085915</ele>
        <time>2022-05-01T08:05:09.589Z</time>
      </trkpt>
      <trkpt lat="41.1188" lon="20.62277">
        <ele>896.446247</ele>
        <time>2022-05-01T08:05:16.542Z</time>
      </trkpt>
      <trkpt lat="41.1187" lon="20.62275">
        <ele>897.868807</ele>
        <time>2022-05-01T08:05:24.573Z</time>
      </trkpt>
      <trkpt lat="41.1186" lon="20.62271">
        <ele>899.34487</ele>
        <time>2022-05-01T08:05:32.539Z</time>
      </trkpt>
      <trkpt lat="41.1185" lon="20.62269">
        <ele>900.708223</ele>
        <time>2022-05-01T08:05:39.517Z</time>
      </trkpt>
      <trkpt lat="41.11841" lon="20.62266">
        <ele>902.063443</ele>
        <time>2022-05-01T08:05:46.532Z</time>
      </trkpt>
      <trkpt lat="41.11832" lon="20.62262">
        <ele>903.294328</ele>
        <time>2022-05-01T08:05:52.533Z</time>
      </trkpt>
      <trkpt lat="41.11824" lon="20.62256">
        <ele>904.118793</ele>
        <time>2022-05-01T08:05:59.530Z</time>
      </trkpt>
      <trkpt lat="41.11815" lon="20.62251">
        <ele>904.998647</ele>
        <time>2022-05-01T08:06:06.566Z</time>
      </trkpt>
      <trkpt lat="41.11806" lon="20.62247">
        <ele>905.826161</ele>
        <time>2022-05-01T08:06:12.548Z</time>
      </trkpt>
      <trkpt lat="41.11796" lon="20.62242">
        <ele>906.735223</ele>
        <time>2022-05-01T08:06:19.525Z</time>
      </trkpt>
      <trkpt lat="41.11787" lon="20.62237">
        <ele>907.588986</ele>
        <time>2022-05-01T08:06:25.522Z</time>
      </trkpt>
      <trkpt lat="41.11778" lon="20.62233">
        <ele>908.399984</ele>
        <time>2022-05-01T08:06:31.570Z</time>
      </trkpt>
      <trkpt lat="41.1177" lon="20.62229">
        <ele>909.195446</ele>
        <time>2022-05-01T08:06:37.546Z</time>
      </trkpt>
      <trkpt lat="41.1176" lon="20.62226">
        <ele>910.028373</ele>
        <time>2022-05-01T08:06:45.527Z</time>
      </trkpt>
      <trkpt lat="41.11751" lon="20.62223">
        <ele>910.852003</ele>
        <time>2022-05-01T08:06:53.520Z</time>
      </trkpt>
      <trkpt lat="41.11741" lon="20.62222">
        <ele>911.710078</ele>
        <time>2022-05-01T08:07:01.536Z</time>
      </trkpt>
      <trkpt lat="41.11732" lon="20.62221">
        <ele>912.527714</ele>
        <time>2022-05-01T08:07:08.563Z</time>
      </trkpt>
      <trkpt lat="41.11723" lon="20.62219">
        <ele>913.33438</ele>
        <time>2022-05-01T08:07:15.540Z</time>
      </trkpt>
      <trkpt lat="41.11713" lon="20.62218">
        <ele>914.14789</ele>
        <time>2022-05-01T08:07:21.534Z</time>
      </trkpt>
      <trkpt lat="41.11704" lon="20.62218">
        <ele>914.941333</ele>
        <time>2022-05-01T08:07:27.560Z</time>
      </trkpt>
      <trkpt lat="41.11695" lon="20.62219">
        <ele>915.727787</ele>
        <time>2022-05-01T08:07:34.543Z</time>
      </trkpt>
      <trkpt lat="41.11686" lon="20.62219">
        <ele>916.52123</ele>
        <time>2022-05-01T08:07:41.535Z</time>
      </trkpt>
      <trkpt lat="41.11677" lon="20.6222">
        <ele>917.337281</ele>
        <time>2022-05-01T08:07:48.547Z</time>
      </trkpt>
      <trkpt lat="41.11667" lon="20.62219">
        <ele>918.189515</ele>
        <time>2022-05-01T08:07:54.528Z</time>
      </trkpt>
      <trkpt lat="41.11658" lon="20.62215">
        <ele>918.833609</ele>
        <time>2022-05-01T08:08:01.542Z</time>
      </trkpt>
      <trkpt lat="41.11648" lon="20.62214">
        <ele>918.854731</ele>
        <time>2022-05-01T08:08:07.533Z</time>
      </trkpt>
      <trkpt lat="41.11637" lon="20.62212">
        <ele>918.875705</ele>
        <time>2022-05-01T08:08:15.529Z</time>
      </trkpt>
      <trkpt lat="41.11628" lon="20.62213">
        <ele>918.895822</ele>
        <time>2022-05-01T08:08:26.534Z</time>
      </trkpt>
      <trkpt lat="41.11618" lon="20.62212">
        <ele>918.915901</ele>
        <time>2022-05-01T08:08:34.543Z</time>
      </trkpt>
      <trkpt lat="41.11608" lon="20.6221">
        <ele>918.936934</ele>
        <time>2022-05-01T08:08:39.520Z</time>
      </trkpt>
      <trkpt lat="41.11599" lon="20.62208">
        <ele>918.955397</ele>
        <time>2022-05-01T08:08:45.559Z</time>
      </trkpt>
      <trkpt lat="41.11589" lon="20.62205">
        <ele>918.976571</ele>
        <time>2022-05-01T08:08:51.527Z</time>
      </trkpt>
      <trkpt lat="41.11579" lon="20.62202">
        <ele>918.997462</ele>
        <time>2022-05-01T08:08:58.526Z</time>
      </trkpt>
      <trkpt lat="41.11569" lon="20.62199">
        <ele>919.018179</ele>
        <time>2022-05-01T08:09:06.541Z</time>
      </trkpt>
      <trkpt lat="41.11559" lon="20.62194">
        <ele>919.038939</ele>
        <time>2022-05-01T08:09:13.540Z</time>
      </trkpt>
      <trkpt lat="41.11551" lon="20.6219">
        <ele>919.057862</ele>
        <time>2022-05-01T08:09:20.526Z</time>
      </trkpt>
      <trkpt lat="41.11542" lon="20.62184">
        <ele>919.076825</ele>
        <time>2022-05-01T08:09:28.539Z</time>
      </trkpt>
      <trkpt lat="41.11534" lon="20.6218">
        <ele>919.095311</ele>
        <time>2022-05-01T08:09:35.534Z</time>
      </trkpt>
      <trkpt lat="41.11525" lon="20.62176">
        <ele>919.114863</ele>
        <time>2022-05-01T08:09:45.528Z</time>
      </trkpt>
      <trkpt lat="41.11516" lon="20.62173">
        <ele>919.134322</ele>
        <time>2022-05-01T08:09:53.551Z</time>
      </trkpt>
      <trkpt lat="41.11508" lon="20.62166">
        <ele>919.153098</ele>
        <time>2022-05-01T08:10:01.539Z</time>
      </trkpt>
      <trkpt lat="41.11499" lon="20.62161">
        <ele>919.17441</ele>
        <time>2022-05-01T08:10:09.537Z</time>
      </trkpt>
      <trkpt lat="41.1149" lon="20.62159">
        <ele>919.193217</ele>
        <time>2022-05-01T08:10:16.548Z</time>
      </trkpt>
      <trkpt lat="41.11481" lon="20.62153">
        <ele>919.626823</ele>
        <time>2022-05-01T08:10:23.540Z</time>
      </trkpt>
      <trkpt lat="41.11472" lon="20.62148">
        <ele>920.202946</ele>
        <time>2022-05-01T08:10:32.532Z</time>
      </trkpt>
      <trkpt lat="41.11463" lon="20.62146">
        <ele>920.743263</ele>
        <time>2022-05-01T08:10:44.548Z</time>
      </trkpt>
      <trkpt lat="41.11453" lon="20.62144">
        <ele>921.317409</ele>
        <time>2022-05-01T08:10:54.546Z</time>
      </trkpt>
      <trkpt lat="41.11443" lon="20.62141">
        <ele>921.896328</ele>
        <time>2022-05-01T08:11:05.547Z</time>
      </trkpt>
      <trkpt lat="41.11433" lon="20.62139">
        <ele>922.456912</ele>
        <time>2022-05-01T08:11:13.542Z</time>
      </trkpt>
      <trkpt lat="41.11423" lon="20.62136">
        <ele>923.043147</ele>
        <time>2022-05-01T08:11:19.539Z</time>
      </trkpt>
      <trkpt lat="41.11414" lon="20.62133">
        <ele>923.590307</ele>
        <time>2022-05-01T08:11:29.569Z</time>
      </trkpt>
      <trkpt lat="41.11404" lon="20.62132">
        <ele>924.127162</ele>
        <time>2022-05-01T08:11:39.545Z</time>
      </trkpt>
      <trkpt lat="41.11395" lon="20.62133">
        <ele>924.662783</ele>
        <time>2022-05-01T08:11:50.532Z</time>
      </trkpt>
      <trkpt lat="41.11386" lon="20.62128">
        <ele>925.20244</ele>
        <time>2022-05-01T08:11:57.522Z</time>
      </trkpt>
      <trkpt lat="41.11376" lon="20.62127">
        <ele>925.749204</ele>
        <time>2022-05-01T08:12:09.538Z</time>
      </trkpt>
      <trkpt lat="41.11367" lon="20.62123">
        <ele>926.310903</ele>
        <time>2022-05-01T08:12:16.547Z</time>
      </trkpt>
      <trkpt lat="41.11358" lon="20.62119">
        <ele>926.853633</ele>
        <time>2022-05-01T08:12:26.530Z</time>
      </trkpt>
      <trkpt lat="41.11348" lon="20.62115">
        <ele>927.430053</ele>
        <time>2022-05-01T08:12:33.533Z</time>
      </trkpt>
      <trkpt lat="41.11338" lon="20.62115">
        <ele>928.021973</ele>
        <time>2022-05-01T08:12:43.528Z</time>
      </trkpt>
      <trkpt lat="41.11329" lon="20.62111">
        <ele>928.588119</ele>
        <time>2022-05-01T08:12:47.550Z</time>
      </trkpt>
      <trkpt lat="41.11319" lon="20.62108">
        <ele>929.151108</ele>
        <time>2022-05-01T08:12:55.526Z</time>
      </trkpt>
      <trkpt lat="41.1131" lon="20.62108">
        <ele>930.205504</ele>
        <time>2022-05-01T08:13:04.543Z</time>
      </trkpt>
      <trkpt lat="41.113" lon="20.62104">
        <ele>931.919878</ele>
        <time>2022-05-01T08:13:13.541Z</time>
      </trkpt>
      <trkpt lat="41.11292" lon="20.62099">
        <ele>933.477083</ele>
        <time>2022-05-01T08:13:19.571Z</time>
      </trkpt>
      <trkpt lat="41.11285" lon="20.62092">
        <ele>935.041377</ele>
        <time>2022-05-01T08:13:29.531Z</time>
      </trkpt>
      <trkpt lat="41.11277" lon="20.62084">
        <ele>936.72111</ele>
        <time>2022-05-01T08:13:38.541Z</time>
      </trkpt>
      <trkpt lat="41.11268" lon="20.62076">
        <ele>938.512656</ele>
        <time>2022-05-01T08:13:44.524Z</time>
      </trkpt>
      <trkpt lat="41.1126" lon="20.62071">
        <ele>940.123671</ele>
        <time>2022-05-01T08:13:53.533Z</time>
      </trkpt>
      <trkpt lat="41.11252" lon="20.62064">
        <ele>941.679138</ele>
        <time>2022-05-01T08:14:03.565Z</time>
      </trkpt>
      <trkpt lat="41.11245" lon="20.62056">
        <ele>943.363736</ele>
        <time>2022-05-01T08:14:13.546Z</time>
      </trkpt>
      <trkpt lat="41.11239" lon="20.62046">
        <ele>944.992454</ele>
        <time>2022-05-01T08:14:21.534Z</time>
      </trkpt>
      <trkpt lat="41.1123" lon="20.62038">
        <ele>946.758331</ele>
        <time>2022-05-01T08:14:34.528Z</time>
      </trkpt>
      <trkpt lat="41.11223" lon="20.62029">
        <ele>948.463221</ele>
        <time>2022-05-01T08:14:42.567Z</time>
      </trkpt>
      <trkpt lat="41.11215" lon="20.62022">
        <ele>950.097353</ele>
        <time>2022-05-01T08:14:50.541Z</time>
      </trkpt>
      <trkpt lat="41.11207" lon="20.62014">
        <ele>951.80286</ele>
        <time>2022-05-01T08:15:00.572Z</time>
      </trkpt>
      <trkpt lat="41.11189" lon="20.61996">
        <ele>955.720908</ele>
        <time>2022-05-01T08:20:35.552Z</time>
      </trkpt>
      <trkpt lat="41.11182" lon="20.61986">
        <ele>957.455063</ele>
        <time>2022-05-01T08:20:43.547Z</time>
      </trkpt>
      <trkpt lat="41.11177" lon="20.61975">
        <ele>959.153237</ele>
        <time>2022-05-01T08:20:50.529Z</time>
      </trkpt>
      <trkpt lat="41.1117" lon="20.61966">
        <ele>960.631981</ele>
        <time>2022-05-01T08:20:57.529Z</time>
      </trkpt>
      <trkpt lat="41.11164" lon="20.61957">
        <ele>961.696084</ele>
        <time>2022-05-01T08:21:04.589Z</time>
      </trkpt>
      <trkpt lat="41.11157" lon="20.61948">
        <ele>962.863486</ele>
        <time>2022-05-01T08:21:12.541Z</time>
      </trkpt>
      <trkpt lat="41.1115" lon="20.61938">
        <ele>964.071454</ele>
        <time>2022-05-01T08:21:20.520Z</time>
      </trkpt>
      <trkpt lat="41.11143" lon="20.61929">
        <ele>965.209238</ele>
        <time>2022-05-01T08:21:27.538Z</time>
      </trkpt>
      <trkpt lat="41.11136" lon="20.61921">
        <ele>966.332356</ele>
        <time>2022-05-01T08:21:35.527Z</time>
      </trkpt>
      <trkpt lat="41.11129" lon="20.61911">
        <ele>967.490256</ele>
        <time>2022-05-01T08:21:43.562Z</time>
      </trkpt>
      <trkpt lat="41.11123" lon="20.61901">
        <ele>968.617022</ele>
        <time>2022-05-01T08:21:51.551Z</time>
      </trkpt>
      <trkpt lat="41.11117" lon="20.61891">
        <ele>969.837685</ele>
        <time>2022-05-01T08:22:00.559Z</time>
      </trkpt>
      <trkpt lat="41.1111" lon="20.61881">
        <ele>971.000322</ele>
        <time>2022-05-01T08:22:07.545Z</time>
      </trkpt>
      <trkpt lat="41.11106" lon="20.6187">
        <ele>972.097455</ele>
        <time>2022-05-01T08:22:16.540Z</time>
      </trkpt>
      <trkpt lat="41.11101" lon="20.6186">
        <ele>973.155698</ele>
        <time>2022-05-01T08:22:25.536Z</time>
      </trkpt>
      <trkpt lat="41.11096" lon="20.6185">
        <ele>974.221389</ele>
        <time>2022-05-01T08:22:33.518Z</time>
      </trkpt>
      <trkpt lat="41.11091" lon="20.61839">
        <ele>975.293032</ele>
        <time>2022-05-01T08:22:41.530Z</time>
      </trkpt>
      <trkpt lat="41.11089" lon="20.61827">
        <ele>976.407476</ele>
        <time>2022-05-01T08:22:49.534Z</time>
      </trkpt>
      <trkpt lat="41.11085" lon="20.61815">
        <ele>977.578659</ele>
        <time>2022-05-01T08:22:59.539Z</time>
      </trkpt>
      <trkpt lat="41.11082" lon="20.61803">
        <ele>978.728482</ele>
        <time>2022-05-01T08:23:08.544Z</time>
      </trkpt>
      <trkpt lat="41.11078" lon="20.61791">
        <ele>979.89518</ele>
        <time>2022-05-01T08:23:19.535Z</time>
      </trkpt>
      <trkpt lat="41.11077" lon="20.61778">
        <ele>981.029264</ele>
        <time>2022-05-01T08:23:27.536Z</time>
      </trkpt>
      <trkpt lat="41.11073" lon="20.61767">
        <ele>981.818241</ele>
        <time>2022-05-01T08:23:36.540Z</time>
      </trkpt>
      <trkpt lat="41.11068" lon="20.61755">
        <ele>982.357119</ele>
        <time>2022-05-01T08:23:45.547Z</time>
      </trkpt>
      <trkpt lat="41.11062" lon="20.61746">
        <ele>982.834617</ele>
        <time>2022-05-01T08:23:53.538Z</time>
      </trkpt>
      <trkpt lat="41.11055" lon="20.61738">
        <ele>983.319191</ele>
        <time>2022-05-01T08:24:02.544Z</time>
      </trkpt>
      <trkpt lat="41.11048" lon="20.6173">
        <ele>983.830593</ele>
        <time>2022-05-01T08:24:11.570Z</time>
      </trkpt>
      <trkpt lat="41.1104" lon="20.61722">
        <ele>984.352902</ele>
        <time>2022-05-01T08:24:19.524Z</time>
      </trkpt>
      <trkpt lat="41.11031" lon="20.61716">
        <ele>984.874039</ele>
        <time>2022-05-01T08:24:28.579Z</time>
      </trkpt>
      <trkpt lat="41.11023" lon="20.61708">
        <ele>985.400577</ele>
        <time>2022-05-01T08:24:37.550Z</time>
      </trkpt>
      <trkpt lat="41.11015" lon="20.61701">
        <ele>985.917126</ele>
        <time>2022-05-01T08:24:47.552Z</time>
      </trkpt>
      <trkpt lat="41.11007" lon="20.61695">
        <ele>986.406032</ele>
        <time>2022-05-01T08:24:56.522Z</time>
      </trkpt>
      <trkpt lat="41.10998" lon="20.61689">
        <ele>986.93655</ele>
        <time>2022-05-01T08:25:05.548Z</time>
      </trkpt>
      <trkpt lat="41.10991" lon="20.61683">
        <ele>987.419949</ele>
        <time>2022-05-01T08:25:14.531Z</time>
      </trkpt>
      <trkpt lat="41.10982" lon="20.61678">
        <ele>987.925588</ele>
        <time>2022-05-01T08:25:25.540Z</time>
      </trkpt>
      <trkpt lat="41.10973" lon="20.61674">
        <ele>988.419269</ele>
        <time>2022-05-01T08:25:34.539Z</time>
      </trkpt>
      <trkpt lat="41.10965" lon="20.61669">
        <ele>988.913722</ele>
        <time>2022-05-01T08:25:42.541Z</time>
      </trkpt>
      <trkpt lat="41.10956" lon="20.61665">
        <ele>989.414805</ele>
        <time>2022-05-01T08:25:51.558Z</time>
      </trkpt>
      <trkpt lat="41.10946" lon="20.61663">
        <ele>989.948821</ele>
        <time>2022-05-01T08:26:00.543Z</time>
      </trkpt>
      <trkpt lat="41.10936" lon="20.61663">
        <ele>990.466482</ele>
        <time>2022-05-01T08:26:11.528Z</time>
      </trkpt>
      <trkpt lat="41.10927" lon="20.61661">
        <ele>990.975772</ele>
        <time>2022-05-01T08:26:20.543Z</time>
      </trkpt>
      <trkpt lat="41.10917" lon="20.61662">
        <ele>991.902029</ele>
        <time>2022-05-01T08:26:30.579Z</time>
      </trkpt>
      <trkpt lat="41.10908" lon="20.61661">
        <ele>992.984053</ele>
        <time>2022-05-01T08:26:41.584Z</time>
      </trkpt>
      <trkpt lat="41.10899" lon="20.61664">
        <ele>994.036966</ele>
        <time>2022-05-01T08:26:48.528Z</time>
      </trkpt>
      <trkpt lat="41.10889" lon="20.61661">
        <ele>995.193203</ele>
        <time>2022-05-01T08:26:54.529Z</time>
      </trkpt>
      <trkpt lat="41.10879" lon="20.61661">
        <ele>996.35326</ele>
        <time>2022-05-01T08:27:04.567Z</time>
      </trkpt>
      <trkpt lat="41.1087" lon="20.61662">
        <ele>997.48011</ele>
        <time>2022-05-01T08:27:15.566Z</time>
      </trkpt>
      <trkpt lat="41.1086" lon="20.61661">
        <ele>998.582285</ele>
        <time>2022-05-01T08:27:23.544Z</time>
      </trkpt>
      <trkpt lat="41.10851" lon="20.61658">
        <ele>999.64944</ele>
        <time>2022-05-01T08:27:31.543Z</time>
      </trkpt>
      <trkpt lat="41.10842" lon="20.61657">
        <ele>1000.730053</ele>
        <time>2022-05-01T08:27:40.539Z</time>
      </trkpt>
      <trkpt lat="41.10833" lon="20.61656">
        <ele>1001.813766</ele>
        <time>2022-05-01T08:27:49.538Z</time>
      </trkpt>
      <trkpt lat="41.10823" lon="20.61653">
        <ele>1002.934463</ele>
        <time>2022-05-01T08:28:00.547Z</time>
      </trkpt>
      <trkpt lat="41.10814" lon="20.6165">
        <ele>1004.043593</ele>
        <time>2022-05-01T08:28:10.531Z</time>
      </trkpt>
      <trkpt lat="41.10805" lon="20.61647">
        <ele>1005.144019</ele>
        <time>2022-05-01T08:28:18.539Z</time>
      </trkpt>
      <trkpt lat="41.10795" lon="20.61644">
        <ele>1006.310286</ele>
        <time>2022-05-01T08:28:26.519Z</time>
      </trkpt>
      <trkpt lat="41.10786" lon="20.61641">
        <ele>1007.386008</ele>
        <time>2022-05-01T08:28:34.531Z</time>
      </trkpt>
      <trkpt lat="41.10778" lon="20.61636">
        <ele>1008.445857</ele>
        <time>2022-05-01T08:28:45.547Z</time>
      </trkpt>
      <trkpt lat="41.10768" lon="20.61632">
        <ele>1009.559542</ele>
        <time>2022-05-01T08:28:54.530Z</time>
      </trkpt>
      <trkpt lat="41.1076" lon="20.61627">
        <ele>1010.65243</ele>
        <time>2022-05-01T08:29:02.542Z</time>
      </trkpt>
      <trkpt lat="41.10751" lon="20.61623">
        <ele>1011.706605</ele>
        <time>2022-05-01T08:29:10.545Z</time>
      </trkpt>
      <trkpt lat="41.10742" lon="20.6162">
        <ele>1012.244963</ele>
        <time>2022-05-01T08:29:18.546Z</time>
      </trkpt>
      <trkpt lat="41.10733" lon="20.61615">
        <ele>1012.585266</ele>
        <time>2022-05-01T08:29:25.533Z</time>
      </trkpt>
      <trkpt lat="41.10724" lon="20.6161">
        <ele>1012.963559</ele>
        <time>2022-05-01T08:29:33.542Z</time>
      </trkpt>
      <trkpt lat="41.10715" lon="20.61606">
        <ele>1013.296363</ele>
        <time>2022-05-01T08:29:40.572Z</time>
      </trkpt>
      <trkpt lat="41.10707" lon="20.61601">
        <ele>1013.635432</ele>
        <time>2022-05-01T08:29:48.540Z</time>
      </trkpt>
      <trkpt lat="41.10698" lon="20.61597">
        <ele>1013.971824</ele>
        <time>2022-05-01T08:29:55.543Z</time>
      </trkpt>
      <trkpt lat="41.1069" lon="20.61591">
        <ele>1014.318432</ele>
        <time>2022-05-01T08:30:02.534Z</time>
      </trkpt>
      <trkpt lat="41.10681" lon="20.61584">
        <ele>1014.691273</ele>
        <time>2022-05-01T08:30:10.543Z</time>
      </trkpt>
      <trkpt lat="41.10673" lon="20.61575">
        <ele>1015.067986</ele>
        <time>2022-05-01T08:30:18.542Z</time>
      </trkpt>
      <trkpt lat="41.10666" lon="20.61568">
        <ele>1015.400317</ele>
        <time>2022-05-01T08:30:25.541Z</time>
      </trkpt>
      <trkpt lat="41.10659" lon="20.61559">
        <ele>1015.775485</ele>
        <time>2022-05-01T08:30:33.529Z</time>
      </trkpt>
      <trkpt lat="41.10653" lon="20.61548">
        <ele>1016.143326</ele>
        <time>2022-05-01T08:30:41.544Z</time>
      </trkpt>
      <trkpt lat="41.10647" lon="20.61538">
        <ele>1016.500314</ele>
        <time>2022-05-01T08:30:49.536Z</time>
      </trkpt>
      <trkpt lat="41.10642" lon="20.61527">
        <ele>1016.862151</ele>
        <time>2022-05-01T08:30:57.530Z</time>
      </trkpt>
      <trkpt lat="41.10638" lon="20.61515">
        <ele>1017.213481</ele>
        <time>2022-05-01T08:31:06.540Z</time>
      </trkpt>
      <trkpt lat="41.10633" lon="20.61503">
        <ele>1017.592068</ele>
        <time>2022-05-01T08:31:15.545Z</time>
      </trkpt>
      <trkpt lat="41.10627" lon="20.61493">
        <ele>1017.931071</ele>
        <time>2022-05-01T08:31:22.562Z</time>
      </trkpt>
      <trkpt lat="41.10622" lon="20.61482">
        <ele>1018.294555</ele>
        <time>2022-05-01T08:31:31.555Z</time>
      </trkpt>
      <trkpt lat="41.10619" lon="20.6147">
        <ele>1018.742245</ele>
        <time>2022-05-01T08:31:39.536Z</time>
      </trkpt>
      <trkpt lat="41.10614" lon="20.61458">
        <ele>1019.72186</ele>
        <time>2022-05-01T08:31:47.543Z</time>
      </trkpt>
      <trkpt lat="41.10608" lon="20.61449">
        <ele>1020.589864</ele>
        <time>2022-05-01T08:31:54.565Z</time>
      </trkpt>
      <trkpt lat="41.10603" lon="20.61438">
        <ele>1021.48727</ele>
        <time>2022-05-01T08:32:02.548Z</time>
      </trkpt>
      <trkpt lat="41.10596" lon="20.6143">
        <ele>1022.358823</ele>
        <time>2022-05-01T08:32:09.542Z</time>
      </trkpt>
      <trkpt lat="41.1059" lon="20.61421">
        <ele>1023.243353</ele>
        <time>2022-05-01T08:32:16.542Z</time>
      </trkpt>
      <trkpt lat="41.10582" lon="20.61413">
        <ele>1024.174288</ele>
        <time>2022-05-01T08:32:24.549Z</time>
      </trkpt>
      <trkpt lat="41.10575" lon="20.61405">
        <ele>1025.079673</ele>
        <time>2022-05-01T08:32:31.540Z</time>
      </trkpt>
      <trkpt lat="41.10566" lon="20.61398">
        <ele>1026.020556</ele>
        <time>2022-05-01T08:32:39.573Z</time>
      </trkpt>
      <trkpt lat="41.10558" lon="20.61391">
        <ele>1026.898537</ele>
        <time>2022-05-01T08:32:46.534Z</time>
      </trkpt>
      <trkpt lat="41.1055" lon="20.61385">
        <ele>1027.797327</ele>
        <time>2022-05-01T08:32:53.526Z</time>
      </trkpt>
      <trkpt lat="41.10542" lon="20.61378">
        <ele>1028.726986</ele>
        <time>2022-05-01T08:33:01.531Z</time>
      </trkpt>
      <trkpt lat="41.10534" lon="20.61372">
        <ele>1029.611799</ele>
        <time>2022-05-01T08:33:08.520Z</time>
      </trkpt>
      <trkpt lat="41.10526" lon="20.61366">
        <ele>1030.501012</ele>
        <time>2022-05-01T08:33:15.538Z</time>
      </trkpt>
      <trkpt lat="41.10517" lon="20.61359">
        <ele>1031.446983</ele>
        <time>2022-05-01T08:33:23.546Z</time>
      </trkpt>
      <trkpt lat="41.10509" lon="20.61353">
        <ele>1032.303403</ele>
        <time>2022-05-01T08:33:30.539Z</time>
      </trkpt>
      <trkpt lat="41.105" lon="20.61347">
        <ele>1033.264132</ele>
        <time>2022-05-01T08:33:39.541Z</time>
      </trkpt>
      <trkpt lat="41.10492" lon="20.61341">
        <ele>1034.127564</ele>
        <time>2022-05-01T08:33:47.526Z</time>
      </trkpt>
      <trkpt lat="41.10485" lon="20.61334">
        <ele>1034.98919</ele>
        <time>2022-05-01T08:33:56.530Z</time>
      </trkpt>
      <trkpt lat="41.10477" lon="20.61328">
        <ele>1035.855539</ele>
        <time>2022-05-01T08:34:04.548Z</time>
      </trkpt>
      <trkpt lat="41.10468" lon="20.61322">
        <ele>1036.6161</ele>
        <time>2022-05-01T08:34:12.552Z</time>
      </trkpt>
      <trkpt lat="41.10459" lon="20.61318">
        <ele>1037.411249</ele>
        <time>2022-05-01T08:34:21.563Z</time>
      </trkpt>
      <trkpt lat="41.10451" lon="20.61311">
        <ele>1038.139819</ele>
        <time>2022-05-01T08:34:28.549Z</time>
      </trkpt>
      <trkpt lat="41.10443" lon="20.61307">
        <ele>1038.874856</ele>
        <time>2022-05-01T08:34:35.521Z</time>
      </trkpt>
      <trkpt lat="41.10434" lon="20.61301">
        <ele>1039.660297</ele>
        <time>2022-05-01T08:34:43.531Z</time>
      </trkpt>
      <trkpt lat="41.10426" lon="20.61295">
        <ele>1040.391493</ele>
        <time>2022-05-01T08:34:50.522Z</time>
      </trkpt>
      <trkpt lat="41.10417" lon="20.6129">
        <ele>1041.14723</ele>
        <time>2022-05-01T08:34:57.534Z</time>
      </trkpt>
      <trkpt lat="41.10408" lon="20.61285">
        <ele>1041.95729</ele>
        <time>2022-05-01T08:35:04.536Z</time>
      </trkpt>
      <trkpt lat="41.10399" lon="20.61281">
        <ele>1042.698239</ele>
        <time>2022-05-01T08:35:09.622Z</time>
      </trkpt>
      <trkpt lat="41.10389" lon="20.61274">
        <ele>1043.623701</ele>
        <time>2022-05-01T08:35:14.548Z</time>
      </trkpt>
      <trkpt lat="41.10379" lon="20.61268">
        <ele>1044.531382</ele>
        <time>2022-05-01T08:35:18.526Z</time>
      </trkpt>
      <trkpt lat="41.10369" lon="20.61262">
        <ele>1045.335956</ele>
        <time>2022-05-01T08:35:21.541Z</time>
      </trkpt>
      <trkpt lat="41.10358" lon="20.61255">
        <ele>1046.35078</ele>
        <time>2022-05-01T08:35:24.534Z</time>
      </trkpt>
      <trkpt lat="41.10349" lon="20.61249">
        <ele>1047.161377</ele>
        <time>2022-05-01T08:35:26.542Z</time>
      </trkpt>
      <trkpt lat="41.10339" lon="20.61244">
        <ele>1048.017642</ele>
        <time>2022-05-01T08:35:28.537Z</time>
      </trkpt>
      <trkpt lat="41.10329" lon="20.61239">
        <ele>1048.894083</ele>
        <time>2022-05-01T08:35:30.533Z</time>
      </trkpt>
      <trkpt lat="41.10318" lon="20.61233">
        <ele>1049.835554</ele>
        <time>2022-05-01T08:35:32.558Z</time>
      </trkpt>
      <trkpt lat="41.10306" lon="20.61226">
        <ele>1049.600068</ele>
        <time>2022-05-01T08:35:34.553Z</time>
      </trkpt>
      <trkpt lat="41.10294" lon="20.61219">
        <ele>1048.935782</ele>
        <time>2022-05-01T08:35:36.521Z</time>
      </trkpt>
      <trkpt lat="41.1028" lon="20.61212">
        <ele>1048.235307</ele>
        <time>2022-05-01T08:35:38.534Z</time>
      </trkpt>
      <trkpt lat="41.10267" lon="20.61205">
        <ele>1047.545029</ele>
        <time>2022-05-01T08:35:40.543Z</time>
      </trkpt>
      <trkpt lat="41.10254" lon="20.61197">
        <ele>1046.825119</ele>
        <time>2022-05-01T08:35:42.539Z</time>
      </trkpt>
      <trkpt lat="41.1024" lon="20.6119">
        <ele>1046.088119</ele>
        <time>2022-05-01T08:35:44.569Z</time>
      </trkpt>
      <trkpt lat="41.10226" lon="20.61183">
        <ele>1045.343285</ele>
        <time>2022-05-01T08:35:46.542Z</time>
      </trkpt>
      <trkpt lat="41.10211" lon="20.61176">
        <ele>1044.580441</ele>
        <time>2022-05-01T08:35:48.541Z</time>
      </trkpt>
      <trkpt lat="41.10196" lon="20.61169">
        <ele>1043.793094</ele>
        <time>2022-05-01T08:35:50.517Z</time>
      </trkpt>
      <trkpt lat="41.10181" lon="20.61163">
        <ele>1042.985519</ele>
        <time>2022-05-01T08:35:52.566Z</time>
      </trkpt>
      <trkpt lat="41.10165" lon="20.61158">
        <ele>1042.167711</ele>
        <time>2022-05-01T08:35:54.562Z</time>
      </trkpt>
      <trkpt lat="41.10148" lon="20.61154">
        <ele>1041.343912</ele>
        <time>2022-05-01T08:35:56.510Z</time>
      </trkpt>
      <trkpt lat="41.10132" lon="20.6115">
        <ele>1040.724658</ele>
        <time>2022-05-01T08:35:58.552Z</time>
      </trkpt>
      <trkpt lat="41.10115" lon="20.61147">
        <ele>1040.123916</ele>
        <time>2022-05-01T08:36:00.542Z</time>
      </trkpt>
      <trkpt lat="41.10098" lon="20.61145">
        <ele>1039.531957</ele>
        <time>2022-05-01T08:36:02.539Z</time>
      </trkpt>
      <trkpt lat="41.10081" lon="20.61145">
        <ele>1038.951842</ele>
        <time>2022-05-01T08:36:04.544Z</time>
      </trkpt>
      <trkpt lat="41.10065" lon="20.61144">
        <ele>1038.371794</ele>
        <time>2022-05-01T08:36:06.526Z</time>
      </trkpt>
      <trkpt lat="41.10049" lon="20.61145">
        <ele>1037.798871</ele>
        <time>2022-05-01T08:36:08.550Z</time>
      </trkpt>
      <trkpt lat="41.10032" lon="20.61146">
        <ele>1037.229019</ele>
        <time>2022-05-01T08:36:10.540Z</time>
      </trkpt>
      <trkpt lat="41.10016" lon="20.61146">
        <ele>1036.65966</ele>
        <time>2022-05-01T08:36:12.559Z</time>
      </trkpt>
      <trkpt lat="41.1" lon="20.61145">
        <ele>1036.082542</ele>
        <time>2022-05-01T08:36:14.522Z</time>
      </trkpt>
      <trkpt lat="41.09984" lon="20.61144">
        <ele>1035.523424</ele>
        <time>2022-05-01T08:36:16.546Z</time>
      </trkpt>
      <trkpt lat="41.09968" lon="20.61144">
        <ele>1034.978615</ele>
        <time>2022-05-01T08:36:18.534Z</time>
      </trkpt>
      <trkpt lat="41.09954" lon="20.61143">
        <ele>1034.313653</ele>
        <time>2022-05-01T08:36:20.538Z</time>
      </trkpt>
      <trkpt lat="41.09939" lon="20.61143">
        <ele>1033.628478</ele>
        <time>2022-05-01T08:36:22.564Z</time>
      </trkpt>
      <trkpt lat="41.09925" lon="20.61143">
        <ele>1032.971009</ele>
        <time>2022-05-01T08:36:24.533Z</time>
      </trkpt>
      <trkpt lat="41.09911" lon="20.61142">
        <ele>1032.331861</ele>
        <time>2022-05-01T08:36:26.545Z</time>
      </trkpt>
      <trkpt lat="41.09897" lon="20.61141">
        <ele>1031.701146</ele>
        <time>2022-05-01T08:36:28.563Z</time>
      </trkpt>
      <trkpt lat="41.09884" lon="20.61141">
        <ele>1031.071445</ele>
        <time>2022-05-01T08:36:30.546Z</time>
      </trkpt>
      <trkpt lat="41.0987" lon="20.6114">
        <ele>1030.432554</ele>
        <time>2022-05-01T08:36:32.533Z</time>
      </trkpt>
      <trkpt lat="41.09856" lon="20.6114">
        <ele>1029.798225</ele>
        <time>2022-05-01T08:36:34.554Z</time>
      </trkpt>
      <trkpt lat="41.09843" lon="20.6114">
        <ele>1029.177926</ele>
        <time>2022-05-01T08:36:36.540Z</time>
      </trkpt>
      <trkpt lat="41.09829" lon="20.6114">
        <ele>1028.539112</ele>
        <time>2022-05-01T08:36:38.546Z</time>
      </trkpt>
      <trkpt lat="41.09815" lon="20.6114">
        <ele>1027.909526</ele>
        <time>2022-05-01T08:36:40.548Z</time>
      </trkpt>
      <trkpt lat="41.09802" lon="20.61139">
        <ele>1027.303084</ele>
        <time>2022-05-01T08:36:42.544Z</time>
      </trkpt>
      <trkpt lat="41.09789" lon="20.61139">
        <ele>1026.715157</ele>
        <time>2022-05-01T08:36:44.544Z</time>
      </trkpt>
      <trkpt lat="41.09777" lon="20.61139">
        <ele>1026.138923</ele>
        <time>2022-05-01T08:36:46.546Z</time>
      </trkpt>
      <trkpt lat="41.09764" lon="20.61138">
        <ele>1025.590767</ele>
        <time>2022-05-01T08:36:48.543Z</time>
      </trkpt>
      <trkpt lat="41.09751" lon="20.61138">
        <ele>1025.029847</ele>
        <time>2022-05-01T08:36:50.563Z</time>
      </trkpt>
      <trkpt lat="41.09739" lon="20.61138">
        <ele>1024.486594</ele>
        <time>2022-05-01T08:36:52.541Z</time>
      </trkpt>
      <trkpt lat="41.09726" lon="20.61139">
        <ele>1023.925526</ele>
        <time>2022-05-01T08:36:54.541Z</time>
      </trkpt>
      <trkpt lat="41.09714" lon="20.61139">
        <ele>1023.377703</ele>
        <time>2022-05-01T08:36:56.550Z</time>
      </trkpt>
      <trkpt lat="41.09701" lon="20.6114">
        <ele>1022.811398</ele>
        <time>2022-05-01T08:36:58.539Z</time>
      </trkpt>
      <trkpt lat="41.09688" lon="20.61141">
        <ele>1022.227455</ele>
        <time>2022-05-01T08:37:00.541Z</time>
      </trkpt>
      <trkpt lat="41.09676" lon="20.61142">
        <ele>1021.68412</ele>
        <time>2022-05-01T08:37:02.527Z</time>
      </trkpt>
      <trkpt lat="41.09663" lon="20.61142">
        <ele>1021.11359</ele>
        <time>2022-05-01T08:37:04.544Z</time>
      </trkpt>
      <trkpt lat="41.0965" lon="20.61143">
        <ele>1020.547783</ele>
        <time>2022-05-01T08:37:06.518Z</time>
      </trkpt>
      <trkpt lat="41.09637" lon="20.61144">
        <ele>1019.951308</ele>
        <time>2022-05-01T08:37:08.531Z</time>
      </trkpt>
      <trkpt lat="41.09623" lon="20.61144">
        <ele>1019.350418</ele>
        <time>2022-05-01T08:37:10.532Z</time>
      </trkpt>
      <trkpt lat="41.0961" lon="20.61145">
        <ele>1018.767187</ele>
        <time>2022-05-01T08:37:12.544Z</time>
      </trkpt>
      <trkpt lat="41.09596" lon="20.61145">
        <ele>1018.660791</ele>
        <time>2022-05-01T08:37:14.562Z</time>
      </trkpt>
      <trkpt lat="41.09582" lon="20.61143">
        <ele>1018.699468</ele>
        <time>2022-05-01T08:37:16.544Z</time>
      </trkpt>
      <trkpt lat="41.09568" lon="20.6114">
        <ele>1018.737875</ele>
        <time>2022-05-01T08:37:18.540Z</time>
      </trkpt>
      <trkpt lat="41.09556" lon="20.61136">
        <ele>1018.773212</ele>
        <time>2022-05-01T08:37:20.520Z</time>
      </trkpt>
      <trkpt lat="41.09544" lon="20.6113">
        <ele>1018.808711</ele>
        <time>2022-05-01T08:37:22.549Z</time>
      </trkpt>
      <trkpt lat="41.09533" lon="20.61124">
        <ele>1018.842402</ele>
        <time>2022-05-01T08:37:24.543Z</time>
      </trkpt>
      <trkpt lat="41.09523" lon="20.61117">
        <ele>1018.87422</ele>
        <time>2022-05-01T08:37:26.558Z</time>
      </trkpt>
      <trkpt lat="41.09513" lon="20.61112">
        <ele>1018.902383</ele>
        <time>2022-05-01T08:37:28.546Z</time>
      </trkpt>
      <trkpt lat="41.09502" lon="20.61105">
        <ele>1018.936862</ele>
        <time>2022-05-01T08:37:31.568Z</time>
      </trkpt>
      <trkpt lat="41.09492" lon="20.61098">
        <ele>1018.968661</ele>
        <time>2022-05-01T08:37:34.548Z</time>
      </trkpt>
      <trkpt lat="41.09483" lon="20.61092">
        <ele>1018.998206</ele>
        <time>2022-05-01T08:37:37.526Z</time>
      </trkpt>
      <trkpt lat="41.09474" lon="20.61085">
        <ele>1019.026173</ele>
        <time>2022-05-01T08:37:40.547Z</time>
      </trkpt>
      <trkpt lat="41.09466" lon="20.61079">
        <ele>1019.052511</ele>
        <time>2022-05-01T08:37:43.524Z</time>
      </trkpt>
      <trkpt lat="41.09458" lon="20.61073">
        <ele>1019.078989</ele>
        <time>2022-05-01T08:37:46.533Z</time>
      </trkpt>
      <trkpt lat="41.09447" lon="20.61066">
        <ele>1019.112069</ele>
        <time>2022-05-01T08:37:50.543Z</time>
      </trkpt>
      <trkpt lat="41.09437" lon="20.61058">
        <ele>1019.320537</ele>
        <time>2022-05-01T08:37:54.550Z</time>
      </trkpt>
      <trkpt lat="41.09426" lon="20.61051">
        <ele>1019.821794</ele>
        <time>2022-05-01T08:37:58.541Z</time>
      </trkpt>
      <trkpt lat="41.09416" lon="20.61044">
        <ele>1020.310411</ele>
        <time>2022-05-01T08:38:02.541Z</time>
      </trkpt>
      <trkpt lat="41.09406" lon="20.61036">
        <ele>1020.804913</ele>
        <time>2022-05-01T08:38:06.564Z</time>
      </trkpt>
      <trkpt lat="41.09396" lon="20.61029">
        <ele>1021.295046</ele>
        <time>2022-05-01T08:38:10.546Z</time>
      </trkpt>
      <trkpt lat="41.09385" lon="20.61021">
        <ele>1021.792004</ele>
        <time>2022-05-01T08:38:14.538Z</time>
      </trkpt>
      <trkpt lat="41.09377" lon="20.61018">
        <ele>1022.181973</ele>
        <time>2022-05-01T08:38:18.560Z</time>
      </trkpt>
      <trkpt lat="41.09367" lon="20.61013">
        <ele>1022.625132</ele>
        <time>2022-05-01T08:38:22.543Z</time>
      </trkpt>
      <trkpt lat="41.09357" lon="20.61005">
        <ele>1023.118414</ele>
        <time>2022-05-01T08:38:26.537Z</time>
      </trkpt>
      <trkpt lat="41.09347" lon="20.60997">
        <ele>1023.612904</ele>
        <time>2022-05-01T08:38:30.565Z</time>
      </trkpt>
      <trkpt lat="41.09337" lon="20.6099">
        <ele>1024.08103</ele>
        <time>2022-05-01T08:38:34.529Z</time>
      </trkpt>
      <trkpt lat="41.09328" lon="20.60982">
        <ele>1024.543885</ele>
        <time>2022-05-01T08:38:38.543Z</time>
      </trkpt>
      <trkpt lat="41.09318" lon="20.60975">
        <ele>1025.011479</ele>
        <time>2022-05-01T08:38:42.545Z</time>
      </trkpt>
      <trkpt lat="41.09308" lon="20.60968">
        <ele>1025.485305</ele>
        <time>2022-05-01T08:38:46.573Z</time>
      </trkpt>
      <trkpt lat="41.09299" lon="20.60961">
        <ele>1025.936524</ele>
        <time>2022-05-01T08:38:50.545Z</time>
      </trkpt>
      <trkpt lat="41.0929" lon="20.60954">
        <ele>1026.406291</ele>
        <time>2022-05-01T08:38:54.584Z</time>
      </trkpt>
      <trkpt lat="41.09281" lon="20.60944">
        <ele>1026.796481</ele>
        <time>2022-05-01T08:38:58.530Z</time>
      </trkpt>
      <trkpt lat="41.09273" lon="20.60933">
        <ele>1026.973605</ele>
        <time>2022-05-01T08:39:02.536Z</time>
      </trkpt>
      <trkpt lat="41.09265" lon="20.60922">
        <ele>1027.143469</ele>
        <time>2022-05-01T08:39:06.535Z</time>
      </trkpt>
      <trkpt lat="41.09257" lon="20.60911">
        <ele>1027.319162</ele>
        <time>2022-05-01T08:39:10.548Z</time>
      </trkpt>
      <trkpt lat="41.0925" lon="20.60899">
        <ele>1027.492481</ele>
        <time>2022-05-01T08:39:14.573Z</time>
      </trkpt>
      <trkpt lat="41.09244" lon="20.6089">
        <ele>1027.62994</ele>
        <time>2022-05-01T08:39:17.538Z</time>
      </trkpt>
      <trkpt lat="41.09234" lon="20.60881">
        <ele>1027.808497</ele>
        <time>2022-05-01T08:39:21.613Z</time>
      </trkpt>
      <trkpt lat="41.09226" lon="20.60875">
        <ele>1027.948952</ele>
        <time>2022-05-01T08:39:24.553Z</time>
      </trkpt>
      <trkpt lat="41.09217" lon="20.60868">
        <ele>1028.113477</ele>
        <time>2022-05-01T08:39:28.532Z</time>
      </trkpt>
      <trkpt lat="41.09178" lon="20.60826">
        <ele>1028.867835</ele>
        <time>2022-05-01T08:45:39.554Z</time>
      </trkpt>
      <trkpt lat="41.09169" lon="20.60825">
        <ele>1029.010132</ele>
        <time>2022-05-01T08:45:42.535Z</time>
      </trkpt>
      <trkpt lat="41.09159" lon="20.60824">
        <ele>1029.152618</ele>
        <time>2022-05-01T08:45:45.536Z</time>
      </trkpt>
      <trkpt lat="41.09149" lon="20.60825">
        <ele>1029.304299</ele>
        <time>2022-05-01T08:45:48.537Z</time>
      </trkpt>
      <trkpt lat="41.09139" lon="20.60825">
        <ele>1029.45423</ele>
        <time>2022-05-01T08:45:51.542Z</time>
      </trkpt>
      <trkpt lat="41.09129" lon="20.60824">
        <ele>1029.717745</ele>
        <time>2022-05-01T08:45:54.541Z</time>
      </trkpt>
      <trkpt lat="41.09119" lon="20.60822">
        <ele>1029.987455</ele>
        <time>2022-05-01T08:45:57.547Z</time>
      </trkpt>
      <trkpt lat="41.09109" lon="20.60818">
        <ele>1030.275358</ele>
        <time>2022-05-01T08:46:00.545Z</time>
      </trkpt>
      <trkpt lat="41.09099" lon="20.60813">
        <ele>1030.559337</ele>
        <time>2022-05-01T08:46:03.522Z</time>
      </trkpt>
      <trkpt lat="41.09089" lon="20.60807">
        <ele>1030.843761</ele>
        <time>2022-05-01T08:46:06.551Z</time>
      </trkpt>
      <trkpt lat="41.09079" lon="20.60799">
        <ele>1031.162512</ele>
        <time>2022-05-01T08:46:09.539Z</time>
      </trkpt>
      <trkpt lat="41.09068" lon="20.60792">
        <ele>1031.475008</ele>
        <time>2022-05-01T08:46:12.535Z</time>
      </trkpt>
      <trkpt lat="41.09057" lon="20.60785">
        <ele>1031.807225</ele>
        <time>2022-05-01T08:46:15.540Z</time>
      </trkpt>
      <trkpt lat="41.09046" lon="20.60778">
        <ele>1032.134509</ele>
        <time>2022-05-01T08:46:18.545Z</time>
      </trkpt>
      <trkpt lat="41.09034" lon="20.60771">
        <ele>1032.478931</ele>
        <time>2022-05-01T08:46:21.528Z</time>
      </trkpt>
      <trkpt lat="41.09024" lon="20.60763">
        <ele>1032.799899</ele>
        <time>2022-05-01T08:46:24.539Z</time>
      </trkpt>
      <trkpt lat="41.09017" lon="20.60755">
        <ele>1033.042125</ele>
        <time>2022-05-01T08:46:27.543Z</time>
      </trkpt>
      <trkpt lat="41.09007" lon="20.60748">
        <ele>1033.32696</ele>
        <time>2022-05-01T08:46:32.562Z</time>
      </trkpt>
      <trkpt lat="41.09" lon="20.60738">
        <ele>1033.603179</ele>
        <time>2022-05-01T08:46:36.539Z</time>
      </trkpt>
      <trkpt lat="41.08993" lon="20.6073">
        <ele>1033.853266</ele>
        <time>2022-05-01T08:46:39.535Z</time>
      </trkpt>
      <trkpt lat="41.08986" lon="20.60723">
        <ele>1034.094216</ele>
        <time>2022-05-01T08:46:42.539Z</time>
      </trkpt>
      <trkpt lat="41.08977" lon="20.60713">
        <ele>1034.218542</ele>
        <time>2022-05-01T08:46:46.545Z</time>
      </trkpt>
      <trkpt lat="41.08968" lon="20.60707">
        <ele>1034.128108</ele>
        <time>2022-05-01T08:46:50.570Z</time>
      </trkpt>
      <trkpt lat="41.0896" lon="20.60701">
        <ele>1034.045999</ele>
        <time>2022-05-01T08:46:55.549Z</time>
      </trkpt>
      <trkpt lat="41.08957" lon="20.60688">
        <ele>1033.957174</ele>
        <time>2022-05-01T08:52:31.554Z</time>
      </trkpt>
      <trkpt lat="41.08932" lon="20.6067">
        <ele>1033.705053</ele>
        <time>2022-05-01T08:54:47.549Z</time>
      </trkpt>
      <trkpt lat="41.08926" lon="20.6066">
        <ele>1033.619099</ele>
        <time>2022-05-01T08:54:55.545Z</time>
      </trkpt>
      <trkpt lat="41.08904" lon="20.60647">
        <ele>1033.403054</ele>
        <time>2022-05-01T08:59:31.555Z</time>
      </trkpt>
      <trkpt lat="41.08895" lon="20.60645">
        <ele>1033.322222</ele>
        <time>2022-05-01T08:59:34.542Z</time>
      </trkpt>
      <trkpt lat="41.08883" lon="20.60644">
        <ele>1033.215531</ele>
        <time>2022-05-01T08:59:38.538Z</time>
      </trkpt>
      <trkpt lat="41.08873" lon="20.60643">
        <ele>1033.123975</ele>
        <time>2022-05-01T08:59:41.554Z</time>
      </trkpt>
      <trkpt lat="41.08863" lon="20.60642">
        <ele>1033.034853</ele>
        <time>2022-05-01T08:59:44.567Z</time>
      </trkpt>
      <trkpt lat="41.08853" lon="20.60642">
        <ele>1032.949701</ele>
        <time>2022-05-01T08:59:47.542Z</time>
      </trkpt>
      <trkpt lat="41.08842" lon="20.6064">
        <ele>1032.853236</ele>
        <time>2022-05-01T08:59:50.586Z</time>
      </trkpt>
      <trkpt lat="41.08832" lon="20.60638">
        <ele>1032.763726</ele>
        <time>2022-05-01T08:59:53.535Z</time>
      </trkpt>
      <trkpt lat="41.08823" lon="20.60636">
        <ele>1032.676326</ele>
        <time>2022-05-01T08:59:56.532Z</time>
      </trkpt>
      <trkpt lat="41.08812" lon="20.60631">
        <ele>1032.554326</ele>
        <time>2022-05-01T09:00:00.543Z</time>
      </trkpt>
      <trkpt lat="41.08803" lon="20.60626">
        <ele>1032.441031</ele>
        <time>2022-05-01T09:00:05.551Z</time>
      </trkpt>
      <trkpt lat="41.08794" lon="20.6062">
        <ele>1032.327994</ele>
        <time>2022-05-01T09:00:10.546Z</time>
      </trkpt>
      <trkpt lat="41.08784" lon="20.60615">
        <ele>1032.214698</ele>
        <time>2022-05-01T09:00:14.536Z</time>
      </trkpt>
      <trkpt lat="41.08776" lon="20.60607">
        <ele>1032.099788</ele>
        <time>2022-05-01T09:00:18.597Z</time>
      </trkpt>
      <trkpt lat="41.08768" lon="20.60601">
        <ele>1031.997461</ele>
        <time>2022-05-01T09:00:21.531Z</time>
      </trkpt>
      <trkpt lat="41.08759" lon="20.60598">
        <ele>1031.890123</ele>
        <time>2022-05-01T09:00:24.535Z</time>
      </trkpt>
      <trkpt lat="41.08749" lon="20.60591">
        <ele>1031.763439</ele>
        <time>2022-05-01T09:00:28.539Z</time>
      </trkpt>
      <trkpt lat="41.08739" lon="20.60584">
        <ele>1031.64238</ele>
        <time>2022-05-01T09:00:32.541Z</time>
      </trkpt>
      <trkpt lat="41.0873" lon="20.60578">
        <ele>1031.523222</ele>
        <time>2022-05-01T09:00:36.535Z</time>
      </trkpt>
      <trkpt lat="41.08719" lon="20.60572">
        <ele>1031.393812</ele>
        <time>2022-05-01T09:00:40.579Z</time>
      </trkpt>
      <trkpt lat="41.0871" lon="20.60568">
        <ele>1031.286004</ele>
        <time>2022-05-01T09:00:43.540Z</time>
      </trkpt>
      <trkpt lat="41.087" lon="20.60564">
        <ele>1031.17574</ele>
        <time>2022-05-01T09:00:46.583Z</time>
      </trkpt>
      <trkpt lat="41.0869" lon="20.60561">
        <ele>1031.062475</ele>
        <time>2022-05-01T09:00:49.543Z</time>
      </trkpt>
      <trkpt lat="41.0868" lon="20.60558">
        <ele>1030.938974</ele>
        <time>2022-05-01T09:00:52.587Z</time>
      </trkpt>
      <trkpt lat="41.08669" lon="20.60555">
        <ele>1030.820064</ele>
        <time>2022-05-01T09:00:55.551Z</time>
      </trkpt>
      <trkpt lat="41.08658" lon="20.60552">
        <ele>1030.695826</ele>
        <time>2022-05-01T09:00:58.588Z</time>
      </trkpt>
      <trkpt lat="41.08647" lon="20.60549">
        <ele>1030.327204</ele>
        <time>2022-05-01T09:01:01.545Z</time>
      </trkpt>
      <trkpt lat="41.08637" lon="20.6055">
        <ele>1029.963581</ele>
        <time>2022-05-01T09:01:03.535Z</time>
      </trkpt>
      <trkpt lat="41.08628" lon="20.60551">
        <ele>1029.606541</ele>
        <time>2022-05-01T09:01:05.549Z</time>
      </trkpt>
      <trkpt lat="41.08615" lon="20.60551">
        <ele>1029.119863</ele>
        <time>2022-05-01T09:01:08.526Z</time>
      </trkpt>
      <trkpt lat="41.08603" lon="20.6055">
        <ele>1028.643302</ele>
        <time>2022-05-01T09:01:11.552Z</time>
      </trkpt>
      <trkpt lat="41.08591" lon="20.60548">
        <ele>1028.157991</ele>
        <time>2022-05-01T09:01:14.556Z</time>
      </trkpt>
      <trkpt lat="41.08577" lon="20.60547">
        <ele>1027.631919</ele>
        <time>2022-05-01T09:01:17.545Z</time>
      </trkpt>
      <trkpt lat="41.08567" lon="20.60547">
        <ele>1027.237959</ele>
        <time>2022-05-01T09:01:19.547Z</time>
      </trkpt>
      <trkpt lat="41.08557" lon="20.60546">
        <ele>1026.839466</ele>
        <time>2022-05-01T09:01:21.546Z</time>
      </trkpt>
      <trkpt lat="41.08546" lon="20.60545">
        <ele>1026.436013</ele>
        <time>2022-05-01T09:01:23.544Z</time>
      </trkpt>
      <trkpt lat="41.08534" lon="20.60543">
        <ele>1025.982296</ele>
        <time>2022-05-01T09:01:25.533Z</time>
      </trkpt>
      <trkpt lat="41.08523" lon="20.60542">
        <ele>1025.535996</ele>
        <time>2022-05-01T09:01:27.555Z</time>
      </trkpt>
      <trkpt lat="41.08513" lon="20.60541">
        <ele>1025.155887</ele>
        <time>2022-05-01T09:01:29.534Z</time>
      </trkpt>
      <trkpt lat="41.08503" lon="20.60538">
        <ele>1024.766105</ele>
        <time>2022-05-01T09:01:31.571Z</time>
      </trkpt>
      <trkpt lat="41.08493" lon="20.60536">
        <ele>1024.358889</ele>
        <time>2022-05-01T09:01:33.547Z</time>
      </trkpt>
      <trkpt lat="41.0848" lon="20.60532">
        <ele>1023.841596</ele>
        <time>2022-05-01T09:01:36.537Z</time>
      </trkpt>
      <trkpt lat="41.08466" lon="20.60528">
        <ele>1024.283287</ele>
        <time>2022-05-01T09:01:39.554Z</time>
      </trkpt>
      <trkpt lat="41.08456" lon="20.60524">
        <ele>1024.847568</ele>
        <time>2022-05-01T09:01:41.555Z</time>
      </trkpt>
      <trkpt lat="41.08447" lon="20.6052">
        <ele>1025.377153</ele>
        <time>2022-05-01T09:01:43.544Z</time>
      </trkpt>
      <trkpt lat="41.08436" lon="20.60516">
        <ele>1026.004395</ele>
        <time>2022-05-01T09:01:46.578Z</time>
      </trkpt>
      <trkpt lat="41.08426" lon="20.60512">
        <ele>1026.544793</ele>
        <time>2022-05-01T09:01:49.550Z</time>
      </trkpt>
      <trkpt lat="41.08416" lon="20.6051">
        <ele>1027.119634</ele>
        <time>2022-05-01T09:01:52.581Z</time>
      </trkpt>
      <trkpt lat="41.08405" lon="20.60507">
        <ele>1027.715726</ele>
        <time>2022-05-01T09:01:55.547Z</time>
      </trkpt>
      <trkpt lat="41.08394" lon="20.60504">
        <ele>1028.347782</ele>
        <time>2022-05-01T09:01:59.545Z</time>
      </trkpt>
      <trkpt lat="41.08384" lon="20.60501">
        <ele>1028.899777</ele>
        <time>2022-05-01T09:02:03.557Z</time>
      </trkpt>
      <trkpt lat="41.08374" lon="20.60498">
        <ele>1029.421643</ele>
        <time>2022-05-01T09:02:07.561Z</time>
      </trkpt>
      <trkpt lat="41.08364" lon="20.60494">
        <ele>1030.005977</ele>
        <time>2022-05-01T09:02:12.548Z</time>
      </trkpt>
      <trkpt lat="41.08353" lon="20.60491">
        <ele>1030.605993</ele>
        <time>2022-05-01T09:02:17.530Z</time>
      </trkpt>
      <trkpt lat="41.08343" lon="20.60487">
        <ele>1031.16419</ele>
        <time>2022-05-01T09:02:22.558Z</time>
      </trkpt>
      <trkpt lat="41.08333" lon="20.60485">
        <ele>1031.704016</ele>
        <time>2022-05-01T09:02:27.547Z</time>
      </trkpt>
      <trkpt lat="41.08322" lon="20.60483">
        <ele>1032.30008</ele>
        <time>2022-05-01T09:02:33.550Z</time>
      </trkpt>
      <trkpt lat="41.08312" lon="20.60482">
        <ele>1032.869382</ele>
        <time>2022-05-01T09:02:38.550Z</time>
      </trkpt>
      <trkpt lat="41.08303" lon="20.6048">
        <ele>1033.368389</ele>
        <time>2022-05-01T09:02:43.543Z</time>
      </trkpt>
      <trkpt lat="41.08292" lon="20.60478">
        <ele>1034.224426</ele>
        <time>2022-05-01T09:02:49.551Z</time>
      </trkpt>
      <trkpt lat="41.08282" lon="20.60477">
        <ele>1035.154892</ele>
        <time>2022-05-01T09:02:55.539Z</time>
      </trkpt>
      <trkpt lat="41.08273" lon="20.60476">
        <ele>1035.932882</ele>
        <time>2022-05-01T09:03:00.564Z</time>
      </trkpt>
      <trkpt lat="41.08263" lon="20.60475">
        <ele>1036.806359</ele>
        <time>2022-05-01T09:03:06.546Z</time>
      </trkpt>
      <trkpt lat="41.08252" lon="20.60473">
        <ele>1037.70063</ele>
        <time>2022-05-01T09:03:12.551Z</time>
      </trkpt>
      <trkpt lat="41.08242" lon="20.60472">
        <ele>1038.571574</ele>
        <time>2022-05-01T09:03:18.543Z</time>
      </trkpt>
      <trkpt lat="41.08233" lon="20.60471">
        <ele>1039.391892</ele>
        <time>2022-05-01T09:03:24.544Z</time>
      </trkpt>
      <trkpt lat="41.08224" lon="20.6047">
        <ele>1040.182058</ele>
        <time>2022-05-01T09:03:30.539Z</time>
      </trkpt>
      <trkpt lat="41.08214" lon="20.60469">
        <ele>1041.027226</ele>
        <time>2022-05-01T09:03:36.557Z</time>
      </trkpt>
      <trkpt lat="41.08204" lon="20.60468">
        <ele>1041.875675</ele>
        <time>2022-05-01T09:03:42.539Z</time>
      </trkpt>
      <trkpt lat="41.08194" lon="20.60466">
        <ele>1042.737678</ele>
        <time>2022-05-01T09:03:48.528Z</time>
      </trkpt>
      <trkpt lat="41.08185" lon="20.60465">
        <ele>1043.512632</ele>
        <time>2022-05-01T09:03:54.586Z</time>
      </trkpt>
      <trkpt lat="41.08175" lon="20.60465">
        <ele>1044.374617</ele>
        <time>2022-05-01T09:04:00.546Z</time>
      </trkpt>
      <trkpt lat="41.08165" lon="20.60462">
        <ele>1045.239765</ele>
        <time>2022-05-01T09:04:06.551Z</time>
      </trkpt>
      <trkpt lat="41.08155" lon="20.60462">
        <ele>1046.118368</ele>
        <time>2022-05-01T09:04:12.559Z</time>
      </trkpt>
      <trkpt lat="41.08145" lon="20.60461">
        <ele>1046.971437</ele>
        <time>2022-05-01T09:04:18.540Z</time>
      </trkpt>
      <trkpt lat="41.08136" lon="20.60461">
        <ele>1047.771996</ele>
        <time>2022-05-01T09:04:24.548Z</time>
      </trkpt>
      <trkpt lat="41.08125" lon="20.60461">
        <ele>1048.658821</ele>
        <time>2022-05-01T09:04:30.539Z</time>
      </trkpt>
      <trkpt lat="41.08115" lon="20.60463">
        <ele>1048.976752</ele>
        <time>2022-05-01T09:04:36.539Z</time>
      </trkpt>
      <trkpt lat="41.08105" lon="20.60466">
        <ele>1049.029161</ele>
        <time>2022-05-01T09:04:41.539Z</time>
      </trkpt>
      <trkpt lat="41.08097" lon="20.6047">
        <ele>1049.077662</ele>
        <time>2022-05-01T09:04:46.535Z</time>
      </trkpt>
      <trkpt lat="41.08088" lon="20.60476">
        <ele>1049.131082</ele>
        <time>2022-05-01T09:04:51.541Z</time>
      </trkpt>
      <trkpt lat="41.08078" lon="20.60482">
        <ele>1049.188312</ele>
        <time>2022-05-01T09:04:56.584Z</time>
      </trkpt>
      <trkpt lat="41.08069" lon="20.60488">
        <ele>1049.235941</ele>
        <time>2022-05-01T09:05:00.549Z</time>
      </trkpt>
      <trkpt lat="41.08062" lon="20.60495">
        <ele>1049.28468</ele>
        <time>2022-05-01T09:05:04.582Z</time>
      </trkpt>
      <trkpt lat="41.08054" lon="20.60505">
        <ele>1049.341969</ele>
        <time>2022-05-01T09:05:08.539Z</time>
      </trkpt>
      <trkpt lat="41.08045" lon="20.60515">
        <ele>1049.401882</ele>
        <time>2022-05-01T09:05:12.610Z</time>
      </trkpt>
      <trkpt lat="41.08039" lon="20.60523">
        <ele>1049.448927</ele>
        <time>2022-05-01T09:05:15.552Z</time>
      </trkpt>
      <trkpt lat="41.08032" lon="20.60532">
        <ele>1049.49841</ele>
        <time>2022-05-01T09:05:18.541Z</time>
      </trkpt>
      <trkpt lat="41.08026" lon="20.60541">
        <ele>1049.547505</ele>
        <time>2022-05-01T09:05:21.517Z</time>
      </trkpt>
      <trkpt lat="41.08019" lon="20.60551">
        <ele>1049.59916</ele>
        <time>2022-05-01T09:05:24.553Z</time>
      </trkpt>
      <trkpt lat="41.08012" lon="20.60561">
        <ele>1049.652683</ele>
        <time>2022-05-01T09:05:27.547Z</time>
      </trkpt>
      <trkpt lat="41.08005" lon="20.60572">
        <ele>1049.709472</ele>
        <time>2022-05-01T09:05:30.542Z</time>
      </trkpt>
      <trkpt lat="41.07998" lon="20.60582">
        <ele>1049.763756</ele>
        <time>2022-05-01T09:05:33.551Z</time>
      </trkpt>
      <trkpt lat="41.0799" lon="20.60593">
        <ele>1049.823576</ele>
        <time>2022-05-01T09:05:36.528Z</time>
      </trkpt>
      <trkpt lat="41.07981" lon="20.60604">
        <ele>1049.846338</ele>
        <time>2022-05-01T09:05:39.530Z</time>
      </trkpt>
      <trkpt lat="41.07972" lon="20.60614">
        <ele>1049.571101</ele>
        <time>2022-05-01T09:05:42.545Z</time>
      </trkpt>
      <trkpt lat="41.07962" lon="20.60625">
        <ele>1049.284892</ele>
        <time>2022-05-01T09:05:45.594Z</time>
      </trkpt>
      <trkpt lat="41.07952" lon="20.60634">
        <ele>1049.014639</ele>
        <time>2022-05-01T09:05:48.546Z</time>
      </trkpt>
      <trkpt lat="41.07942" lon="20.60641">
        <ele>1048.755117</ele>
        <time>2022-05-01T09:05:51.609Z</time>
      </trkpt>
      <trkpt lat="41.07932" lon="20.60647">
        <ele>1048.502232</ele>
        <time>2022-05-01T09:05:54.552Z</time>
      </trkpt>
      <trkpt lat="41.07922" lon="20.60652">
        <ele>1048.255776</ele>
        <time>2022-05-01T09:05:57.552Z</time>
      </trkpt>
      <trkpt lat="41.07912" lon="20.60657">
        <ele>1048.01699</ele>
        <time>2022-05-01T09:06:00.545Z</time>
      </trkpt>
      <trkpt lat="41.07902" lon="20.60659">
        <ele>1047.780914</ele>
        <time>2022-05-01T09:06:03.612Z</time>
      </trkpt>
      <trkpt lat="41.07891" lon="20.60662">
        <ele>1047.540052</ele>
        <time>2022-05-01T09:06:06.544Z</time>
      </trkpt>
      <trkpt lat="41.0788" lon="20.60665">
        <ele>1047.281087</ele>
        <time>2022-05-01T09:06:09.544Z</time>
      </trkpt>
      <trkpt lat="41.07869" lon="20.60668">
        <ele>1047.017748</ele>
        <time>2022-05-01T09:06:12.548Z</time>
      </trkpt>
      <trkpt lat="41.07858" lon="20.60669">
        <ele>1046.767125</ele>
        <time>2022-05-01T09:06:15.554Z</time>
      </trkpt>
      <trkpt lat="41.07846" lon="20.60671">
        <ele>1046.499054</ele>
        <time>2022-05-01T09:06:18.553Z</time>
      </trkpt>
      <trkpt lat="41.07835" lon="20.60674">
        <ele>1046.248905</ele>
        <time>2022-05-01T09:06:21.527Z</time>
      </trkpt>
      <trkpt lat="41.07823" lon="20.60676">
        <ele>1045.981538</ele>
        <time>2022-05-01T09:06:24.537Z</time>
      </trkpt>
      <trkpt lat="41.07812" lon="20.60678">
        <ele>1045.774453</ele>
        <time>2022-05-01T09:06:27.538Z</time>
      </trkpt>
      <trkpt lat="41.078" lon="20.60681">
        <ele>1045.686866</ele>
        <time>2022-05-01T09:06:30.577Z</time>
      </trkpt>
      <trkpt lat="41.07788" lon="20.60683">
        <ele>1045.594366</ele>
        <time>2022-05-01T09:06:33.564Z</time>
      </trkpt>
      <trkpt lat="41.07776" lon="20.60685">
        <ele>1045.500529</ele>
        <time>2022-05-01T09:06:36.544Z</time>
      </trkpt>
      <trkpt lat="41.07763" lon="20.60687">
        <ele>1045.403446</ele>
        <time>2022-05-01T09:06:39.547Z</time>
      </trkpt>
      <trkpt lat="41.0775" lon="20.6069">
        <ele>1045.307916</ele>
        <time>2022-05-01T09:06:42.554Z</time>
      </trkpt>
      <trkpt lat="41.07737" lon="20.60692">
        <ele>1045.213404</ele>
        <time>2022-05-01T09:06:45.543Z</time>
      </trkpt>
      <trkpt lat="41.07724" lon="20.60694">
        <ele>1045.114181</ele>
        <time>2022-05-01T09:06:48.550Z</time>
      </trkpt>
      <trkpt lat="41.07715" lon="20.60695">
        <ele>1045.047385</ele>
        <time>2022-05-01T09:06:50.557Z</time>
      </trkpt>
      <trkpt lat="41.07703" lon="20.60698">
        <ele>1044.952669</ele>
        <time>2022-05-01T09:06:53.555Z</time>
      </trkpt>
      <trkpt lat="41.0769" lon="20.607">
        <ele>1044.853585</ele>
        <time>2022-05-01T09:06:56.553Z</time>
      </trkpt>
      <trkpt lat="41.07676" lon="20.60701">
        <ele>1044.7521</ele>
        <time>2022-05-01T09:06:59.549Z</time>
      </trkpt>
      <trkpt lat="41.07666" lon="20.607">
        <ele>1044.677517</ele>
        <time>2022-05-01T09:07:01.555Z</time>
      </trkpt>
      <trkpt lat="41.07656" lon="20.60698">
        <ele>1044.599114</ele>
        <time>2022-05-01T09:07:03.556Z</time>
      </trkpt>
      <trkpt lat="41.07645" lon="20.60694">
        <ele>1044.516703</ele>
        <time>2022-05-01T09:07:05.556Z</time>
      </trkpt>
      <trkpt lat="41.07636" lon="20.60687">
        <ele>1044.357533</ele>
        <time>2022-05-01T09:07:07.569Z</time>
      </trkpt>
      <trkpt lat="41.07628" lon="20.60677">
        <ele>1043.996901</ele>
        <time>2022-05-01T09:07:09.615Z</time>
      </trkpt>
      <trkpt lat="41.07622" lon="20.60663">
        <ele>1043.596779</ele>
        <time>2022-05-01T09:07:11.551Z</time>
      </trkpt>
      <trkpt lat="41.07616" lon="20.60649">
        <ele>1043.180403</ele>
        <time>2022-05-01T09:07:13.626Z</time>
      </trkpt>
      <trkpt lat="41.07611" lon="20.60633">
        <ele>1042.745077</ele>
        <time>2022-05-01T09:07:15.562Z</time>
      </trkpt>
      <trkpt lat="41.07607" lon="20.60616">
        <ele>1042.29215</ele>
        <time>2022-05-01T09:07:17.546Z</time>
      </trkpt>
      <trkpt lat="41.07602" lon="20.60598">
        <ele>1041.817927</ele>
        <time>2022-05-01T09:07:19.537Z</time>
      </trkpt>
      <trkpt lat="41.07597" lon="20.60579">
        <ele>1041.328114</ele>
        <time>2022-05-01T09:07:21.545Z</time>
      </trkpt>
      <trkpt lat="41.0759" lon="20.60561">
        <ele>1040.806875</ele>
        <time>2022-05-01T09:07:23.537Z</time>
      </trkpt>
      <trkpt lat="41.0758" lon="20.60543">
        <ele>1040.250709</ele>
        <time>2022-05-01T09:07:25.596Z</time>
      </trkpt>
      <trkpt lat="41.07567" lon="20.60528">
        <ele>1039.656207</ele>
        <time>2022-05-01T09:07:27.575Z</time>
      </trkpt>
      <trkpt lat="41.07559" lon="20.60522">
        <ele>1039.352119</ele>
        <time>2022-05-01T09:07:28.555Z</time>
      </trkpt>
      <trkpt lat="41.07541" lon="20.60516">
        <ele>1038.753067</ele>
        <time>2022-05-01T09:07:30.578Z</time>
      </trkpt>
      <trkpt lat="41.07523" lon="20.60515">
        <ele>1038.096179</ele>
        <time>2022-05-01T09:07:32.533Z</time>
      </trkpt>
      <trkpt lat="41.07514" lon="20.60517">
        <ele>1037.733808</ele>
        <time>2022-05-01T09:07:33.574Z</time>
      </trkpt>
      <trkpt lat="41.07497" lon="20.60524">
        <ele>1037.011931</ele>
        <time>2022-05-01T09:07:35.535Z</time>
      </trkpt>
      <trkpt lat="41.07481" lon="20.60532">
        <ele>1036.33382</ele>
        <time>2022-05-01T09:07:37.538Z</time>
      </trkpt>
      <trkpt lat="41.07466" lon="20.60538">
        <ele>1035.690972</ele>
        <time>2022-05-01T09:07:39.536Z</time>
      </trkpt>
      <trkpt lat="41.07448" lon="20.6054">
        <ele>1035.000729</ele>
        <time>2022-05-01T09:07:41.590Z</time>
      </trkpt>
      <trkpt lat="41.07439" lon="20.60538">
        <ele>1034.626543</ele>
        <time>2022-05-01T09:07:42.545Z</time>
      </trkpt>
      <trkpt lat="41.0743" lon="20.60535">
        <ele>1034.247876</ele>
        <time>2022-05-01T09:07:43.530Z</time>
      </trkpt>
      <trkpt lat="41.07421" lon="20.60529">
        <ele>1033.871587</ele>
        <time>2022-05-01T09:07:44.548Z</time>
      </trkpt>
      <trkpt lat="41.07413" lon="20.60522">
        <ele>1033.481723</ele>
        <time>2022-05-01T09:07:45.547Z</time>
      </trkpt>
      <trkpt lat="41.07406" lon="20.60514">
        <ele>1033.093956</ele>
        <time>2022-05-01T09:07:46.564Z</time>
      </trkpt>
      <trkpt lat="41.07399" lon="20.60505">
        <ele>1032.700886</ele>
        <time>2022-05-01T09:07:47.569Z</time>
      </trkpt>
      <trkpt lat="41.07392" lon="20.60496">
        <ele>1032.329697</ele>
        <time>2022-05-01T09:07:48.547Z</time>
      </trkpt>
      <trkpt lat="41.07378" lon="20.60486">
        <ele>1031.676033</ele>
        <time>2022-05-01T09:07:50.551Z</time>
      </trkpt>
      <trkpt lat="41.07361" lon="20.60481">
        <ele>1031.097999</ele>
        <time>2022-05-01T09:07:52.532Z</time>
      </trkpt>
      <trkpt lat="41.07343" lon="20.60482">
        <ele>1030.592575</ele>
        <time>2022-05-01T09:07:54.536Z</time>
      </trkpt>
      <trkpt lat="41.07334" lon="20.60485">
        <ele>1030.327453</ele>
        <time>2022-05-01T09:07:55.542Z</time>
      </trkpt>
      <trkpt lat="41.07317" lon="20.60495">
        <ele>1029.819758</ele>
        <time>2022-05-01T09:07:57.562Z</time>
      </trkpt>
      <trkpt lat="41.0731" lon="20.60503">
        <ele>1029.563515</ele>
        <time>2022-05-01T09:07:58.593Z</time>
      </trkpt>
      <trkpt lat="41.07303" lon="20.60511">
        <ele>1029.312563</ele>
        <time>2022-05-01T09:07:59.534Z</time>
      </trkpt>
      <trkpt lat="41.07297" lon="20.60519">
        <ele>1029.059263</ele>
        <time>2022-05-01T09:08:00.543Z</time>
      </trkpt>
      <trkpt lat="41.07285" lon="20.60537">
        <ele>1028.569911</ele>
        <time>2022-05-01T09:08:02.549Z</time>
      </trkpt>
      <trkpt lat="41.07278" lon="20.60545">
        <ele>1028.302429</ele>
        <time>2022-05-01T09:08:03.538Z</time>
      </trkpt>
      <trkpt lat="41.0727" lon="20.60553">
        <ele>1028.038716</ele>
        <time>2022-05-01T09:08:04.557Z</time>
      </trkpt>
      <trkpt lat="41.07261" lon="20.60558">
        <ele>1027.774401</ele>
        <time>2022-05-01T09:08:05.547Z</time>
      </trkpt>
      <trkpt lat="41.07252" lon="20.60562">
        <ele>1027.51032</ele>
        <time>2022-05-01T09:08:06.551Z</time>
      </trkpt>
      <trkpt lat="41.07243" lon="20.60565">
        <ele>1027.25324</ele>
        <time>2022-05-01T09:08:07.553Z</time>
      </trkpt>
      <trkpt lat="41.07234" lon="20.60567">
        <ele>1026.997261</ele>
        <time>2022-05-01T09:08:08.544Z</time>
      </trkpt>
      <trkpt lat="41.07225" lon="20.60568">
        <ele>1026.743859</ele>
        <time>2022-05-01T09:08:09.556Z</time>
      </trkpt>
      <trkpt lat="41.07207" lon="20.60568">
        <ele>1026.197356</ele>
        <time>2022-05-01T09:08:11.548Z</time>
      </trkpt>
      <trkpt lat="41.07198" lon="20.60568">
        <ele>1025.762527</ele>
        <time>2022-05-01T09:08:12.538Z</time>
      </trkpt>
      <trkpt lat="41.07189" lon="20.60567">
        <ele>1025.326865</ele>
        <time>2022-05-01T09:08:13.560Z</time>
      </trkpt>
      <trkpt lat="41.0718" lon="20.60566">
        <ele>1024.882335</ele>
        <time>2022-05-01T09:08:14.552Z</time>
      </trkpt>
      <trkpt lat="41.0717" lon="20.60566">
        <ele>1024.433195</ele>
        <time>2022-05-01T09:08:15.536Z</time>
      </trkpt>
      <trkpt lat="41.07161" lon="20.60565">
        <ele>1023.978942</ele>
        <time>2022-05-01T09:08:16.543Z</time>
      </trkpt>
      <trkpt lat="41.07152" lon="20.60564">
        <ele>1023.538989</ele>
        <time>2022-05-01T09:08:17.549Z</time>
      </trkpt>
      <trkpt lat="41.07142" lon="20.60564">
        <ele>1023.089503</ele>
        <time>2022-05-01T09:08:18.533Z</time>
      </trkpt>
      <trkpt lat="41.07133" lon="20.60563">
        <ele>1022.635592</ele>
        <time>2022-05-01T09:08:19.538Z</time>
      </trkpt>
      <trkpt lat="41.07123" lon="20.60562">
        <ele>1022.181525</ele>
        <time>2022-05-01T09:08:20.549Z</time>
      </trkpt>
      <trkpt lat="41.07114" lon="20.60562">
        <ele>1021.727457</ele>
        <time>2022-05-01T09:08:21.547Z</time>
      </trkpt>
      <trkpt lat="41.07104" lon="20.60561">
        <ele>1021.278158</ele>
        <time>2022-05-01T09:08:22.534Z</time>
      </trkpt>
      <trkpt lat="41.07095" lon="20.60561">
        <ele>1020.843165</ele>
        <time>2022-05-01T09:08:23.541Z</time>
      </trkpt>
      <trkpt lat="41.07079" lon="20.6056">
        <ele>1020.054592</ele>
        <time>2022-05-01T09:08:25.534Z</time>
      </trkpt>
      <trkpt lat="41.07064" lon="20.60559">
        <ele>1019.361391</ele>
        <time>2022-05-01T09:08:27.555Z</time>
      </trkpt>
      <trkpt lat="41.0705" lon="20.60558">
        <ele>1018.683209</ele>
        <time>2022-05-01T09:08:29.587Z</time>
      </trkpt>
      <trkpt lat="41.07035" lon="20.60558">
        <ele>1017.976611</ele>
        <time>2022-05-01T09:08:31.542Z</time>
      </trkpt>
      <trkpt lat="41.0702" lon="20.60558">
        <ele>1016.875848</ele>
        <time>2022-05-01T09:08:33.553Z</time>
      </trkpt>
      <trkpt lat="41.07003" lon="20.60557">
        <ele>1015.505807</ele>
        <time>2022-05-01T09:08:35.534Z</time>
      </trkpt>
      <trkpt lat="41.06986" lon="20.60556">
        <ele>1014.059381</ele>
        <time>2022-05-01T09:08:37.579Z</time>
      </trkpt>
      <trkpt lat="41.06968" lon="20.60555">
        <ele>1012.562039</ele>
        <time>2022-05-01T09:08:39.536Z</time>
      </trkpt>
      <trkpt lat="41.06959" lon="20.60555">
        <ele>1011.805352</ele>
        <time>2022-05-01T09:08:40.569Z</time>
      </trkpt>
      <trkpt lat="41.0695" lon="20.60554">
        <ele>1011.022239</ele>
        <time>2022-05-01T09:08:41.533Z</time>
      </trkpt>
      <trkpt lat="41.06941" lon="20.60554">
        <ele>1010.240127</ele>
        <time>2022-05-01T09:08:42.538Z</time>
      </trkpt>
      <trkpt lat="41.06932" lon="20.60553">
        <ele>1009.46641</ele>
        <time>2022-05-01T09:08:43.536Z</time>
      </trkpt>
      <trkpt lat="41.06922" lon="20.60553">
        <ele>1008.684528</ele>
        <time>2022-05-01T09:08:44.552Z</time>
      </trkpt>
      <trkpt lat="41.06905" lon="20.60552">
        <ele>1007.19655</ele>
        <time>2022-05-01T09:08:46.551Z</time>
      </trkpt>
      <trkpt lat="41.06887" lon="20.60552">
        <ele>1005.742625</ele>
        <time>2022-05-01T09:08:48.568Z</time>
      </trkpt>
      <trkpt lat="41.06869" lon="20.60552">
        <ele>1004.238503</ele>
        <time>2022-05-01T09:08:50.537Z</time>
      </trkpt>
      <trkpt lat="41.0686" lon="20.60552">
        <ele>1003.465409</ele>
        <time>2022-05-01T09:08:51.543Z</time>
      </trkpt>
      <trkpt lat="41.06851" lon="20.60552">
        <ele>1002.683706</ele>
        <time>2022-05-01T09:08:52.545Z</time>
      </trkpt>
      <trkpt lat="41.06842" lon="20.60552">
        <ele>1001.899731</ele>
        <time>2022-05-01T09:08:53.538Z</time>
      </trkpt>
      <trkpt lat="41.06832" lon="20.60553">
        <ele>1001.1066</ele>
        <time>2022-05-01T09:08:54.525Z</time>
      </trkpt>
      <trkpt lat="41.06823" lon="20.60554">
        <ele>1000.328097</ele>
        <time>2022-05-01T09:08:55.583Z</time>
      </trkpt>
      <trkpt lat="41.06805" lon="20.60557">
        <ele>998.83093</ele>
        <time>2022-05-01T09:08:57.543Z</time>
      </trkpt>
      <trkpt lat="41.06787" lon="20.60562">
        <ele>997.282303</ele>
        <time>2022-05-01T09:08:59.573Z</time>
      </trkpt>
      <trkpt lat="41.06778" lon="20.60565">
        <ele>996.442875</ele>
        <time>2022-05-01T09:09:00.549Z</time>
      </trkpt>
      <trkpt lat="41.06769" lon="20.60568">
        <ele>995.647796</ele>
        <time>2022-05-01T09:09:01.517Z</time>
      </trkpt>
      <trkpt lat="41.0676" lon="20.60572">
        <ele>994.871674</ele>
        <time>2022-05-01T09:09:02.538Z</time>
      </trkpt>
      <trkpt lat="41.06751" lon="20.60576">
        <ele>994.107215</ele>
        <time>2022-05-01T09:09:03.548Z</time>
      </trkpt>
      <trkpt lat="41.06735" lon="20.60585">
        <ele>992.652752</ele>
        <time>2022-05-01T09:09:05.532Z</time>
      </trkpt>
      <trkpt lat="41.06722" lon="20.60594">
        <ele>991.379365</ele>
        <time>2022-05-01T09:09:07.578Z</time>
      </trkpt>
      <trkpt lat="41.06711" lon="20.60602">
        <ele>990.34899</ele>
        <time>2022-05-01T09:09:09.545Z</time>
      </trkpt>
      <trkpt lat="41.06703" lon="20.60608">
        <ele>989.550871</ele>
        <time>2022-05-01T09:09:11.538Z</time>
      </trkpt>
      <trkpt lat="41.06694" lon="20.60614">
        <ele>988.743773</ele>
        <time>2022-05-01T09:09:14.535Z</time>
      </trkpt>
      <trkpt lat="41.06663" lon="20.60647">
        <ele>985.432853</ele>
        <time>2022-05-01T09:13:58.570Z</time>
      </trkpt>
      <trkpt lat="41.06654" lon="20.60658">
        <ele>984.452463</ele>
        <time>2022-05-01T09:14:00.590Z</time>
      </trkpt>
      <trkpt lat="41.06646" lon="20.60671">
        <ele>983.463464</ele>
        <time>2022-05-01T09:14:02.535Z</time>
      </trkpt>
      <trkpt lat="41.06639" lon="20.60684">
        <ele>982.474832</ele>
        <time>2022-05-01T09:14:04.536Z</time>
      </trkpt>
      <trkpt lat="41.06631" lon="20.60698">
        <ele>981.413511</ele>
        <time>2022-05-01T09:14:06.549Z</time>
      </trkpt>
      <trkpt lat="41.06623" lon="20.60714">
        <ele>980.307503</ele>
        <time>2022-05-01T09:14:08.538Z</time>
      </trkpt>
      <trkpt lat="41.06615" lon="20.6073">
        <ele>979.128433</ele>
        <time>2022-05-01T09:14:10.540Z</time>
      </trkpt>
      <trkpt lat="41.06607" lon="20.60745">
        <ele>978.012377</ele>
        <time>2022-05-01T09:14:12.543Z</time>
      </trkpt>
      <trkpt lat="41.066" lon="20.6076">
        <ele>976.915221</ele>
        <time>2022-05-01T09:14:14.561Z</time>
      </trkpt>
      <trkpt lat="41.06593" lon="20.60775">
        <ele>975.894896</ele>
        <time>2022-05-01T09:14:16.570Z</time>
      </trkpt>
      <trkpt lat="41.06586" lon="20.6079">
        <ele>974.805593</ele>
        <time>2022-05-01T09:14:18.574Z</time>
      </trkpt>
      <trkpt lat="41.06579" lon="20.60806">
        <ele>973.685383</ele>
        <time>2022-05-01T09:14:20.535Z</time>
      </trkpt>
      <trkpt lat="41.0657" lon="20.60823">
        <ele>972.628696</ele>
        <time>2022-05-01T09:14:22.534Z</time>
      </trkpt>
      <trkpt lat="41.06561" lon="20.6084">
        <ele>971.729148</ele>
        <time>2022-05-01T09:14:24.556Z</time>
      </trkpt>
      <trkpt lat="41.06551" lon="20.60856">
        <ele>970.879666</ele>
        <time>2022-05-01T09:14:26.531Z</time>
      </trkpt>
      <trkpt lat="41.06541" lon="20.60867">
        <ele>970.158216</ele>
        <time>2022-05-01T09:14:28.537Z</time>
      </trkpt>
      <trkpt lat="41.06528" lon="20.6087">
        <ele>969.414408</ele>
        <time>2022-05-01T09:14:30.554Z</time>
      </trkpt>
      <trkpt lat="41.06516" lon="20.60866">
        <ele>968.724128</ele>
        <time>2022-05-01T09:14:32.549Z</time>
      </trkpt>
      <trkpt lat="41.06509" lon="20.60855">
        <ele>968.11631</ele>
        <time>2022-05-01T09:14:34.616Z</time>
      </trkpt>
      <trkpt lat="41.06506" lon="20.60839">
        <ele>967.427519</ele>
        <time>2022-05-01T09:14:36.545Z</time>
      </trkpt>
      <trkpt lat="41.06508" lon="20.60824">
        <ele>966.787373</ele>
        <time>2022-05-01T09:14:38.552Z</time>
      </trkpt>
      <trkpt lat="41.06515" lon="20.60811">
        <ele>966.116255</ele>
        <time>2022-05-01T09:14:40.536Z</time>
      </trkpt>
      <trkpt lat="41.06524" lon="20.60801">
        <ele>965.459294</ele>
        <time>2022-05-01T09:14:42.564Z</time>
      </trkpt>
      <trkpt lat="41.06531" lon="20.60791">
        <ele>964.871324</ele>
        <time>2022-05-01T09:14:44.551Z</time>
      </trkpt>
      <trkpt lat="41.06538" lon="20.6078">
        <ele>964.271107</ele>
        <time>2022-05-01T09:14:46.527Z</time>
      </trkpt>
      <trkpt lat="41.06546" lon="20.6077">
        <ele>963.67839</ele>
        <time>2022-05-01T09:14:48.543Z</time>
      </trkpt>
      <trkpt lat="41.06551" lon="20.60758">
        <ele>963.076351</ele>
        <time>2022-05-01T09:14:50.553Z</time>
      </trkpt>
      <trkpt lat="41.06557" lon="20.60744">
        <ele>962.231516</ele>
        <time>2022-05-01T09:14:52.546Z</time>
      </trkpt>
      <trkpt lat="41.0656" lon="20.60728">
        <ele>961.319176</ele>
        <time>2022-05-01T09:14:54.559Z</time>
      </trkpt>
      <trkpt lat="41.06563" lon="20.6071">
        <ele>960.324264</ele>
        <time>2022-05-01T09:14:56.553Z</time>
      </trkpt>
      <trkpt lat="41.06565" lon="20.60692">
        <ele>959.317083</ele>
        <time>2022-05-01T09:14:58.555Z</time>
      </trkpt>
      <trkpt lat="41.06566" lon="20.60675">
        <ele>958.380061</ele>
        <time>2022-05-01T09:15:00.548Z</time>
      </trkpt>
      <trkpt lat="41.06567" lon="20.60657">
        <ele>957.384593</ele>
        <time>2022-05-01T09:15:02.547Z</time>
      </trkpt>
      <trkpt lat="41.06568" lon="20.60639">
        <ele>956.393817</ele>
        <time>2022-05-01T09:15:04.554Z</time>
      </trkpt>
      <trkpt lat="41.06569" lon="20.60621">
        <ele>955.406405</ele>
        <time>2022-05-01T09:15:06.526Z</time>
      </trkpt>
      <trkpt lat="41.06571" lon="20.60601">
        <ele>954.308384</ele>
        <time>2022-05-01T09:15:08.558Z</time>
      </trkpt>
      <trkpt lat="41.06575" lon="20.6058">
        <ele>953.095493</ele>
        <time>2022-05-01T09:15:10.571Z</time>
      </trkpt>
      <trkpt lat="41.06581" lon="20.60559">
        <ele>951.893508</ele>
        <time>2022-05-01T09:15:12.530Z</time>
      </trkpt>
      <trkpt lat="41.06587" lon="20.60539">
        <ele>950.70184</ele>
        <time>2022-05-01T09:15:14.544Z</time>
      </trkpt>
      <trkpt lat="41.06592" lon="20.60519">
        <ele>949.503816</ele>
        <time>2022-05-01T09:15:16.550Z</time>
      </trkpt>
      <trkpt lat="41.06598" lon="20.605">
        <ele>948.298316</ele>
        <time>2022-05-01T09:15:18.538Z</time>
      </trkpt>
      <trkpt lat="41.06603" lon="20.60481">
        <ele>947.095559</ele>
        <time>2022-05-01T09:15:20.544Z</time>
      </trkpt>
      <trkpt lat="41.06609" lon="20.6046">
        <ele>945.806914</ele>
        <time>2022-05-01T09:15:22.580Z</time>
      </trkpt>
      <trkpt lat="41.06611" lon="20.60437">
        <ele>944.478987</ele>
        <time>2022-05-01T09:15:24.548Z</time>
      </trkpt>
      <trkpt lat="41.06608" lon="20.60414">
        <ele>943.07332</ele>
        <time>2022-05-01T09:15:26.549Z</time>
      </trkpt>
      <trkpt lat="41.06605" lon="20.60402">
        <ele>942.339297</ele>
        <time>2022-05-01T09:15:27.543Z</time>
      </trkpt>
      <trkpt lat="41.06602" lon="20.6039">
        <ele>941.588471</ele>
        <time>2022-05-01T09:15:28.547Z</time>
      </trkpt>
      <trkpt lat="41.06597" lon="20.60379">
        <ele>940.828011</ele>
        <time>2022-05-01T09:15:29.536Z</time>
      </trkpt>
      <trkpt lat="41.06593" lon="20.60368">
        <ele>940.093474</ele>
        <time>2022-05-01T09:15:30.546Z</time>
      </trkpt>
      <trkpt lat="41.06589" lon="20.60357">
        <ele>939.376682</ele>
        <time>2022-05-01T09:15:31.521Z</time>
      </trkpt>
      <trkpt lat="41.06585" lon="20.60334">
        <ele>938.014162</ele>
        <time>2022-05-01T09:15:33.576Z</time>
      </trkpt>
      <trkpt lat="41.06587" lon="20.60311">
        <ele>936.652402</ele>
        <time>2022-05-01T09:15:35.552Z</time>
      </trkpt>
      <trkpt lat="41.0659" lon="20.603">
        <ele>935.935386</ele>
        <time>2022-05-01T09:15:36.529Z</time>
      </trkpt>
      <trkpt lat="41.06596" lon="20.60289">
        <ele>935.072461</ele>
        <time>2022-05-01T09:15:37.552Z</time>
      </trkpt>
      <trkpt lat="41.06602" lon="20.60279">
        <ele>934.16692</ele>
        <time>2022-05-01T09:15:38.538Z</time>
      </trkpt>
      <trkpt lat="41.0661" lon="20.6027">
        <ele>933.212543</ele>
        <time>2022-05-01T09:15:39.531Z</time>
      </trkpt>
      <trkpt lat="41.0662" lon="20.60261">
        <ele>932.206509</ele>
        <time>2022-05-01T09:15:40.554Z</time>
      </trkpt>
      <trkpt lat="41.06629" lon="20.60253">
        <ele>931.217898</ele>
        <time>2022-05-01T09:15:41.539Z</time>
      </trkpt>
      <trkpt lat="41.06636" lon="20.60243">
        <ele>930.303416</ele>
        <time>2022-05-01T09:15:42.549Z</time>
      </trkpt>
      <trkpt lat="41.06642" lon="20.60233">
        <ele>929.452841</ele>
        <time>2022-05-01T09:15:43.543Z</time>
      </trkpt>
      <trkpt lat="41.06646" lon="20.60222">
        <ele>928.610711</ele>
        <time>2022-05-01T09:15:44.565Z</time>
      </trkpt>
      <trkpt lat="41.06651" lon="20.6021">
        <ele>927.714987</ele>
        <time>2022-05-01T09:15:45.577Z</time>
      </trkpt>
      <trkpt lat="41.06655" lon="20.60197">
        <ele>926.777997</ele>
        <time>2022-05-01T09:15:46.546Z</time>
      </trkpt>
      <trkpt lat="41.06658" lon="20.60185">
        <ele>925.853723</ele>
        <time>2022-05-01T09:15:47.549Z</time>
      </trkpt>
      <trkpt lat="41.06662" lon="20.60172">
        <ele>924.954668</ele>
        <time>2022-05-01T09:15:48.537Z</time>
      </trkpt>
      <trkpt lat="41.06665" lon="20.6016">
        <ele>924.068136</ele>
        <time>2022-05-01T09:15:49.529Z</time>
      </trkpt>
      <trkpt lat="41.06669" lon="20.60148">
        <ele>923.171995</ele>
        <time>2022-05-01T09:15:50.534Z</time>
      </trkpt>
      <trkpt lat="41.06673" lon="20.60135">
        <ele>922.278636</ele>
        <time>2022-05-01T09:15:51.526Z</time>
      </trkpt>
      <trkpt lat="41.06677" lon="20.60123">
        <ele>921.407945</ele>
        <time>2022-05-01T09:15:52.574Z</time>
      </trkpt>
      <trkpt lat="41.0668" lon="20.60112">
        <ele>920.559353</ele>
        <time>2022-05-01T09:15:53.539Z</time>
      </trkpt>
      <trkpt lat="41.06684" lon="20.601">
        <ele>919.728106</ele>
        <time>2022-05-01T09:15:54.550Z</time>
      </trkpt>
      <trkpt lat="41.06687" lon="20.60088">
        <ele>919.01111</ele>
        <time>2022-05-01T09:15:55.579Z</time>
      </trkpt>
      <trkpt lat="41.06692" lon="20.60076">
        <ele>918.267358</ele>
        <time>2022-05-01T09:15:56.550Z</time>
      </trkpt>
      <trkpt lat="41.06696" lon="20.60063">
        <ele>917.512533</ele>
        <time>2022-05-01T09:15:57.535Z</time>
      </trkpt>
      <trkpt lat="41.067" lon="20.60051">
        <ele>916.77457</ele>
        <time>2022-05-01T09:15:58.536Z</time>
      </trkpt>
      <trkpt lat="41.06705" lon="20.60039">
        <ele>916.038317</ele>
        <time>2022-05-01T09:15:59.551Z</time>
      </trkpt>
      <trkpt lat="41.06709" lon="20.60028">
        <ele>915.298747</ele>
        <time>2022-05-01T09:16:00.565Z</time>
      </trkpt>
      <trkpt lat="41.06714" lon="20.60016">
        <ele>914.54749</ele>
        <time>2022-05-01T09:16:01.543Z</time>
      </trkpt>
      <trkpt lat="41.06719" lon="20.60004">
        <ele>913.809439</ele>
        <time>2022-05-01T09:16:02.551Z</time>
      </trkpt>
      <trkpt lat="41.06724" lon="20.59993">
        <ele>913.10056</ele>
        <time>2022-05-01T09:16:03.543Z</time>
      </trkpt>
      <trkpt lat="41.06728" lon="20.59982">
        <ele>912.4278</ele>
        <time>2022-05-01T09:16:04.545Z</time>
      </trkpt>
      <trkpt lat="41.06737" lon="20.59962">
        <ele>911.132798</ele>
        <time>2022-05-01T09:16:06.549Z</time>
      </trkpt>
      <trkpt lat="41.06745" lon="20.59942">
        <ele>909.914768</ele>
        <time>2022-05-01T09:16:08.536Z</time>
      </trkpt>
      <trkpt lat="41.06754" lon="20.59923">
        <ele>908.676858</ele>
        <time>2022-05-01T09:16:10.548Z</time>
      </trkpt>
      <trkpt lat="41.06765" lon="20.59905">
        <ele>907.386543</ele>
        <time>2022-05-01T09:16:12.527Z</time>
      </trkpt>
      <trkpt lat="41.06779" lon="20.59892">
        <ele>906.045354</ele>
        <time>2022-05-01T09:16:14.572Z</time>
      </trkpt>
      <trkpt lat="41.06788" lon="20.59887">
        <ele>905.26755</ele>
        <time>2022-05-01T09:16:15.533Z</time>
      </trkpt>
      <trkpt lat="41.06798" lon="20.59882">
        <ele>904.445498</ele>
        <time>2022-05-01T09:16:16.558Z</time>
      </trkpt>
      <trkpt lat="41.06809" lon="20.59879">
        <ele>903.612598</ele>
        <time>2022-05-01T09:16:17.562Z</time>
      </trkpt>
      <trkpt lat="41.06819" lon="20.59876">
        <ele>902.80912</ele>
        <time>2022-05-01T09:16:18.534Z</time>
      </trkpt>
      <trkpt lat="41.06828" lon="20.59874">
        <ele>902.032235</ele>
        <time>2022-05-01T09:16:19.566Z</time>
      </trkpt>
      <trkpt lat="41.06838" lon="20.59871">
        <ele>901.287717</ele>
        <time>2022-05-01T09:16:20.544Z</time>
      </trkpt>
      <trkpt lat="41.06846" lon="20.59868">
        <ele>900.563234</ele>
        <time>2022-05-01T09:16:21.566Z</time>
      </trkpt>
      <trkpt lat="41.06864" lon="20.59862">
        <ele>899.162974</ele>
        <time>2022-05-01T09:16:23.545Z</time>
      </trkpt>
      <trkpt lat="41.06881" lon="20.59858">
        <ele>897.79107</ele>
        <time>2022-05-01T09:16:25.522Z</time>
      </trkpt>
      <trkpt lat="41.06897" lon="20.59859">
        <ele>896.51547</ele>
        <time>2022-05-01T09:16:27.543Z</time>
      </trkpt>
      <trkpt lat="41.06911" lon="20.59862">
        <ele>895.405718</ele>
        <time>2022-05-01T09:16:29.560Z</time>
      </trkpt>
      <trkpt lat="41.06925" lon="20.59861">
        <ele>894.318795</ele>
        <time>2022-05-01T09:16:31.555Z</time>
      </trkpt>
      <trkpt lat="41.06936" lon="20.59852">
        <ele>893.275284</ele>
        <time>2022-05-01T09:16:33.519Z</time>
      </trkpt>
      <trkpt lat="41.06942" lon="20.59835">
        <ele>892.169206</ele>
        <time>2022-05-01T09:16:35.552Z</time>
      </trkpt>
      <trkpt lat="41.0694" lon="20.59815">
        <ele>890.957508</ele>
        <time>2022-05-01T09:16:37.550Z</time>
      </trkpt>
      <trkpt lat="41.0693" lon="20.598">
        <ele>889.740657</ele>
        <time>2022-05-01T09:16:39.529Z</time>
      </trkpt>
      <trkpt lat="41.06918" lon="20.59795">
        <ele>888.662824</ele>
        <time>2022-05-01T09:16:41.545Z</time>
      </trkpt>
      <trkpt lat="41.06905" lon="20.59796">
        <ele>887.642678</ele>
        <time>2022-05-01T09:16:43.527Z</time>
      </trkpt>
      <trkpt lat="41.06894" lon="20.59798">
        <ele>886.746982</ele>
        <time>2022-05-01T09:16:45.527Z</time>
      </trkpt>
      <trkpt lat="41.06881" lon="20.59801">
        <ele>885.658864</ele>
        <time>2022-05-01T09:16:47.564Z</time>
      </trkpt>
      <trkpt lat="41.06865" lon="20.59803">
        <ele>884.333311</ele>
        <time>2022-05-01T09:16:49.537Z</time>
      </trkpt>
      <trkpt lat="41.06856" lon="20.59805">
        <ele>883.602237</ele>
        <time>2022-05-01T09:16:50.566Z</time>
      </trkpt>
      <trkpt lat="41.06847" lon="20.59806">
        <ele>882.85581</ele>
        <time>2022-05-01T09:16:51.525Z</time>
      </trkpt>
      <trkpt lat="41.06838" lon="20.59808">
        <ele>882.101305</ele>
        <time>2022-05-01T09:16:52.559Z</time>
      </trkpt>
      <trkpt lat="41.06828" lon="20.59809">
        <ele>881.331348</ele>
        <time>2022-05-01T09:16:53.561Z</time>
      </trkpt>
      <trkpt lat="41.06819" lon="20.5981">
        <ele>880.560682</ele>
        <time>2022-05-01T09:16:54.527Z</time>
      </trkpt>
      <trkpt lat="41.0681" lon="20.59812">
        <ele>879.814987</ele>
        <time>2022-05-01T09:16:55.552Z</time>
      </trkpt>
      <trkpt lat="41.06793" lon="20.59815">
        <ele>878.457625</ele>
        <time>2022-05-01T09:16:57.533Z</time>
      </trkpt>
      <trkpt lat="41.06779" lon="20.59819">
        <ele>877.448857</ele>
        <time>2022-05-01T09:16:59.537Z</time>
      </trkpt>
      <trkpt lat="41.06765" lon="20.59825">
        <ele>876.684064</ele>
        <time>2022-05-01T09:17:01.552Z</time>
      </trkpt>
      <trkpt lat="41.06751" lon="20.59834">
        <ele>875.890621</ele>
        <time>2022-05-01T09:17:03.550Z</time>
      </trkpt>
      <trkpt lat="41.06738" lon="20.59845">
        <ele>875.071984</ele>
        <time>2022-05-01T09:17:05.556Z</time>
      </trkpt>
      <trkpt lat="41.06725" lon="20.59858">
        <ele>874.215118</ele>
        <time>2022-05-01T09:17:07.558Z</time>
      </trkpt>
      <trkpt lat="41.06712" lon="20.5987">
        <ele>873.385347</ele>
        <time>2022-05-01T09:17:09.522Z</time>
      </trkpt>
      <trkpt lat="41.067" lon="20.59882">
        <ele>872.583585</ele>
        <time>2022-05-01T09:17:11.549Z</time>
      </trkpt>
      <trkpt lat="41.06689" lon="20.59893">
        <ele>871.82449</ele>
        <time>2022-05-01T09:17:13.551Z</time>
      </trkpt>
      <trkpt lat="41.06677" lon="20.59905">
        <ele>871.066545</ele>
        <time>2022-05-01T09:17:15.539Z</time>
      </trkpt>
      <trkpt lat="41.06665" lon="20.59914">
        <ele>870.34166</ele>
        <time>2022-05-01T09:17:17.529Z</time>
      </trkpt>
      <trkpt lat="41.06652" lon="20.5992">
        <ele>869.589301</ele>
        <time>2022-05-01T09:17:19.542Z</time>
      </trkpt>
      <trkpt lat="41.06637" lon="20.59923">
        <ele>868.817643</ele>
        <time>2022-05-01T09:17:21.529Z</time>
      </trkpt>
      <trkpt lat="41.06622" lon="20.59921">
        <ele>868.166233</ele>
        <time>2022-05-01T09:17:23.577Z</time>
      </trkpt>
      <trkpt lat="41.06608" lon="20.59914">
        <ele>867.731691</ele>
        <time>2022-05-01T09:17:25.534Z</time>
      </trkpt>
      <trkpt lat="41.06596" lon="20.59905">
        <ele>867.339765</ele>
        <time>2022-05-01T09:17:27.538Z</time>
      </trkpt>
      <trkpt lat="41.06588" lon="20.59895">
        <ele>867.003467</ele>
        <time>2022-05-01T09:17:29.566Z</time>
      </trkpt>
      <trkpt lat="41.06582" lon="20.59884">
        <ele>866.718803</ele>
        <time>2022-05-01T09:17:31.531Z</time>
      </trkpt>
      <trkpt lat="41.06574" lon="20.59874">
        <ele>866.420212</ele>
        <time>2022-05-01T09:17:33.535Z</time>
      </trkpt>
      <trkpt lat="41.06567" lon="20.59865">
        <ele>866.128931</ele>
        <time>2022-05-01T09:17:35.579Z</time>
      </trkpt>
      <trkpt lat="41.0656" lon="20.59855">
        <ele>865.8167</ele>
        <time>2022-05-01T09:17:37.525Z</time>
      </trkpt>
      <trkpt lat="41.06552" lon="20.59843">
        <ele>865.486719</ele>
        <time>2022-05-01T09:17:39.550Z</time>
      </trkpt>
      <trkpt lat="41.06547" lon="20.59829">
        <ele>865.145272</ele>
        <time>2022-05-01T09:17:41.554Z</time>
      </trkpt>
      <trkpt lat="41.06545" lon="20.59812">
        <ele>864.783667</ele>
        <time>2022-05-01T09:17:43.589Z</time>
      </trkpt>
      <trkpt lat="41.06544" lon="20.59796">
        <ele>864.439002</ele>
        <time>2022-05-01T09:17:45.539Z</time>
      </trkpt>
      <trkpt lat="41.06545" lon="20.59781">
        <ele>864.099292</ele>
        <time>2022-05-01T09:17:47.559Z</time>
      </trkpt>
      <trkpt lat="41.06544" lon="20.59766">
        <ele>863.779278</ele>
        <time>2022-05-01T09:17:49.547Z</time>
      </trkpt>
      <trkpt lat="41.06542" lon="20.59754">
        <ele>863.505756</ele>
        <time>2022-05-01T09:17:51.531Z</time>
      </trkpt>
      <trkpt lat="41.06539" lon="20.59739">
        <ele>863.16795</ele>
        <time>2022-05-01T09:17:54.535Z</time>
      </trkpt>
      <trkpt lat="41.06533" lon="20.59728">
        <ele>862.883523</ele>
        <time>2022-05-01T09:17:57.539Z</time>
      </trkpt>
      <trkpt lat="41.06526" lon="20.59716">
        <ele>862.559627</ele>
        <time>2022-05-01T09:18:00.519Z</time>
      </trkpt>
      <trkpt lat="41.06517" lon="20.59706">
        <ele>862.220872</ele>
        <time>2022-05-01T09:18:03.531Z</time>
      </trkpt>
      <trkpt lat="41.06509" lon="20.59696">
        <ele>861.902113</ele>
        <time>2022-05-01T09:18:06.526Z</time>
      </trkpt>
      <trkpt lat="41.06502" lon="20.59688">
        <ele>861.639103</ele>
        <time>2022-05-01T09:18:08.535Z</time>
      </trkpt>
      <trkpt lat="41.06495" lon="20.59679">
        <ele>861.358065</ele>
        <time>2022-05-01T09:18:10.559Z</time>
      </trkpt>
      <trkpt lat="41.06487" lon="20.59669">
        <ele>861.045123</ele>
        <time>2022-05-01T09:18:12.526Z</time>
      </trkpt>
      <trkpt lat="41.06479" lon="20.59658">
        <ele>860.713907</ele>
        <time>2022-05-01T09:18:14.544Z</time>
      </trkpt>
      <trkpt lat="41.0647" lon="20.59647">
        <ele>860.363946</ele>
        <time>2022-05-01T09:18:16.545Z</time>
      </trkpt>
      <trkpt lat="41.06461" lon="20.59635">
        <ele>860.004322</ele>
        <time>2022-05-01T09:18:18.526Z</time>
      </trkpt>
      <trkpt lat="41.06451" lon="20.59622">
        <ele>859.608136</ele>
        <time>2022-05-01T09:18:20.577Z</time>
      </trkpt>
      <trkpt lat="41.06441" lon="20.59609">
        <ele>859.187611</ele>
        <time>2022-05-01T09:18:22.571Z</time>
      </trkpt>
      <trkpt lat="41.0643" lon="20.59594">
        <ele>858.747586</ele>
        <time>2022-05-01T09:18:24.535Z</time>
      </trkpt>
      <trkpt lat="41.06421" lon="20.59576">
        <ele>858.290364</ele>
        <time>2022-05-01T09:18:26.573Z</time>
      </trkpt>
      <trkpt lat="41.06414" lon="20.59556">
        <ele>857.550173</ele>
        <time>2022-05-01T09:18:28.534Z</time>
      </trkpt>
      <trkpt lat="41.06412" lon="20.59544">
        <ele>856.977373</ele>
        <time>2022-05-01T09:18:29.552Z</time>
      </trkpt>
      <trkpt lat="41.06409" lon="20.59531">
        <ele>856.347693</ele>
        <time>2022-05-01T09:18:30.536Z</time>
      </trkpt>
      <trkpt lat="41.06408" lon="20.59519">
        <ele>855.730934</ele>
        <time>2022-05-01T09:18:31.569Z</time>
      </trkpt>
      <trkpt lat="41.06406" lon="20.59507">
        <ele>855.135383</ele>
        <time>2022-05-01T09:18:32.559Z</time>
      </trkpt>
      <trkpt lat="41.06404" lon="20.59495">
        <ele>854.558776</ele>
        <time>2022-05-01T09:18:33.569Z</time>
      </trkpt>
      <trkpt lat="41.06402" lon="20.59472">
        <ele>853.430219</ele>
        <time>2022-05-01T09:18:35.539Z</time>
      </trkpt>
      <trkpt lat="41.064" lon="20.5945">
        <ele>852.407457</ele>
        <time>2022-05-01T09:18:37.597Z</time>
      </trkpt>
      <trkpt lat="41.06398" lon="20.5943">
        <ele>851.437163</ele>
        <time>2022-05-01T09:18:39.527Z</time>
      </trkpt>
      <trkpt lat="41.06398" lon="20.5941">
        <ele>850.44625</ele>
        <time>2022-05-01T09:18:41.537Z</time>
      </trkpt>
      <trkpt lat="41.06401" lon="20.59389">
        <ele>849.431266</ele>
        <time>2022-05-01T09:18:43.543Z</time>
      </trkpt>
      <trkpt lat="41.06407" lon="20.59369">
        <ele>848.384386</ele>
        <time>2022-05-01T09:18:45.536Z</time>
      </trkpt>
      <trkpt lat="41.06412" lon="20.59359">
        <ele>847.807702</ele>
        <time>2022-05-01T09:18:46.540Z</time>
      </trkpt>
      <trkpt lat="41.06421" lon="20.59339">
        <ele>846.674933</ele>
        <time>2022-05-01T09:18:48.535Z</time>
      </trkpt>
      <trkpt lat="41.06427" lon="20.59328">
        <ele>845.9381</ele>
        <time>2022-05-01T09:18:49.563Z</time>
      </trkpt>
      <trkpt lat="41.06432" lon="20.59318">
        <ele>845.136946</ele>
        <time>2022-05-01T09:18:50.551Z</time>
      </trkpt>
      <trkpt lat="41.06437" lon="20.59307">
        <ele>844.33461</ele>
        <time>2022-05-01T09:18:51.542Z</time>
      </trkpt>
      <trkpt lat="41.06443" lon="20.59297">
        <ele>843.507135</ele>
        <time>2022-05-01T09:18:52.550Z</time>
      </trkpt>
      <trkpt lat="41.06447" lon="20.59286">
        <ele>842.718284</ele>
        <time>2022-05-01T09:18:53.546Z</time>
      </trkpt>
      <trkpt lat="41.06452" lon="20.59275">
        <ele>841.928353</ele>
        <time>2022-05-01T09:18:54.570Z</time>
      </trkpt>
      <trkpt lat="41.06456" lon="20.59264">
        <ele>841.146076</ele>
        <time>2022-05-01T09:18:55.539Z</time>
      </trkpt>
      <trkpt lat="41.0646" lon="20.59253">
        <ele>840.373618</ele>
        <time>2022-05-01T09:18:56.569Z</time>
      </trkpt>
      <trkpt lat="41.06462" lon="20.59242">
        <ele>839.622683</ele>
        <time>2022-05-01T09:18:57.610Z</time>
      </trkpt>
      <trkpt lat="41.06464" lon="20.59218">
        <ele>838.100392</ele>
        <time>2022-05-01T09:18:59.560Z</time>
      </trkpt>
      <trkpt lat="41.06464" lon="20.59205">
        <ele>837.313499</ele>
        <time>2022-05-01T09:19:00.560Z</time>
      </trkpt>
      <trkpt lat="41.06463" lon="20.59193">
        <ele>836.50968</ele>
        <time>2022-05-01T09:19:01.555Z</time>
      </trkpt>
      <trkpt lat="41.06461" lon="20.5918">
        <ele>835.708519</ele>
        <time>2022-05-01T09:19:02.551Z</time>
      </trkpt>
      <trkpt lat="41.06459" lon="20.59169">
        <ele>834.930877</ele>
        <time>2022-05-01T09:19:03.547Z</time>
      </trkpt>
      <trkpt lat="41.06455" lon="20.59157">
        <ele>834.170988</ele>
        <time>2022-05-01T09:19:04.526Z</time>
      </trkpt>
      <trkpt lat="41.06448" lon="20.59137">
        <ele>832.738341</ele>
        <time>2022-05-01T09:19:06.549Z</time>
      </trkpt>
      <trkpt lat="41.06441" lon="20.59117">
        <ele>831.328243</ele>
        <time>2022-05-01T09:19:08.553Z</time>
      </trkpt>
      <trkpt lat="41.06434" lon="20.59097">
        <ele>829.922147</ele>
        <time>2022-05-01T09:19:10.546Z</time>
      </trkpt>
      <trkpt lat="41.06427" lon="20.59078">
        <ele>828.628245</ele>
        <time>2022-05-01T09:19:12.544Z</time>
      </trkpt>
      <trkpt lat="41.06423" lon="20.59062">
        <ele>827.565153</ele>
        <time>2022-05-01T09:19:14.532Z</time>
      </trkpt>
      <trkpt lat="41.0642" lon="20.59048">
        <ele>826.633257</ele>
        <time>2022-05-01T09:19:16.575Z</time>
      </trkpt>
      <trkpt lat="41.06422" lon="20.59034">
        <ele>825.764913</ele>
        <time>2022-05-01T09:19:18.554Z</time>
      </trkpt>
      <trkpt lat="41.06431" lon="20.59024">
        <ele>824.767804</ele>
        <time>2022-05-01T09:19:20.548Z</time>
      </trkpt>
      <trkpt lat="41.06443" lon="20.59023">
        <ele>823.785943</ele>
        <time>2022-05-01T09:19:22.575Z</time>
      </trkpt>
      <trkpt lat="41.06454" lon="20.59033">
        <ele>822.627347</ele>
        <time>2022-05-01T09:19:24.535Z</time>
      </trkpt>
      <trkpt lat="41.06463" lon="20.5905">
        <ele>821.369526</ele>
        <time>2022-05-01T09:19:26.535Z</time>
      </trkpt>
      <trkpt lat="41.06469" lon="20.59065">
        <ele>820.283054</ele>
        <time>2022-05-01T09:19:28.545Z</time>
      </trkpt>
      <trkpt lat="41.06473" lon="20.59076">
        <ele>819.515867</ele>
        <time>2022-05-01T09:19:30.544Z</time>
      </trkpt>
      <trkpt lat="41.06478" lon="20.59088">
        <ele>818.633855</ele>
        <time>2022-05-01T09:19:33.575Z</time>
      </trkpt>
      <trkpt lat="41.06483" lon="20.591">
        <ele>817.742367</ele>
        <time>2022-05-01T09:19:36.549Z</time>
      </trkpt>
      <trkpt lat="41.06489" lon="20.59111">
        <ele>816.915747</ele>
        <time>2022-05-01T09:19:40.552Z</time>
      </trkpt>
      <trkpt lat="41.06497" lon="20.59142">
        <ele>815.765458</ele>
        <time>2022-05-01T09:22:34.536Z</time>
      </trkpt>
      <trkpt lat="41.06497" lon="20.59157">
        <ele>815.399222</ele>
        <time>2022-05-01T09:22:37.563Z</time>
      </trkpt>
      <trkpt lat="41.06498" lon="20.59168">
        <ele>815.107089</ele>
        <time>2022-05-01T09:22:39.537Z</time>
      </trkpt>
      <trkpt lat="41.06502" lon="20.5918">
        <ele>814.787983</ele>
        <time>2022-05-01T09:22:41.537Z</time>
      </trkpt>
      <trkpt lat="41.06506" lon="20.59193">
        <ele>814.45641</ele>
        <time>2022-05-01T09:22:43.544Z</time>
      </trkpt>
      <trkpt lat="41.06511" lon="20.59206">
        <ele>814.10079</ele>
        <time>2022-05-01T09:22:45.540Z</time>
      </trkpt>
      <trkpt lat="41.06516" lon="20.59218">
        <ele>813.756027</ele>
        <time>2022-05-01T09:22:47.547Z</time>
      </trkpt>
      <trkpt lat="41.06521" lon="20.5923">
        <ele>813.417733</ele>
        <time>2022-05-01T09:22:49.552Z</time>
      </trkpt>
      <trkpt lat="41.06527" lon="20.59242">
        <ele>813.070886</ele>
        <time>2022-05-01T09:22:51.560Z</time>
      </trkpt>
      <trkpt lat="41.06534" lon="20.59253">
        <ele>812.712696</ele>
        <time>2022-05-01T09:22:53.590Z</time>
      </trkpt>
      <trkpt lat="41.06544" lon="20.59262">
        <ele>812.32756</ele>
        <time>2022-05-01T09:22:55.556Z</time>
      </trkpt>
      <trkpt lat="41.06556" lon="20.59268">
        <ele>811.924437</ele>
        <time>2022-05-01T09:22:57.538Z</time>
      </trkpt>
      <trkpt lat="41.06569" lon="20.59271">
        <ele>811.491286</ele>
        <time>2022-05-01T09:22:59.537Z</time>
      </trkpt>
      <trkpt lat="41.06584" lon="20.59274">
        <ele>810.992598</ele>
        <time>2022-05-01T09:23:01.538Z</time>
      </trkpt>
      <trkpt lat="41.066" lon="20.59276">
        <ele>810.42059</ele>
        <time>2022-05-01T09:23:03.553Z</time>
      </trkpt>
      <trkpt lat="41.06617" lon="20.59279">
        <ele>809.196776</ele>
        <time>2022-05-01T09:23:05.542Z</time>
      </trkpt>
      <trkpt lat="41.06634" lon="20.59276">
        <ele>808.013708</ele>
        <time>2022-05-01T09:23:07.573Z</time>
      </trkpt>
      <trkpt lat="41.06648" lon="20.59267">
        <ele>806.897046</ele>
        <time>2022-05-01T09:23:09.548Z</time>
      </trkpt>
      <trkpt lat="41.0666" lon="20.59253">
        <ele>805.760629</ele>
        <time>2022-05-01T09:23:11.551Z</time>
      </trkpt>
      <trkpt lat="41.06672" lon="20.59235">
        <ele>804.527259</ele>
        <time>2022-05-01T09:23:13.567Z</time>
      </trkpt>
      <trkpt lat="41.06678" lon="20.59226">
        <ele>803.892461</ele>
        <time>2022-05-01T09:23:14.558Z</time>
      </trkpt>
      <trkpt lat="41.06684" lon="20.59217">
        <ele>803.2277</ele>
        <time>2022-05-01T09:23:15.566Z</time>
      </trkpt>
      <trkpt lat="41.0669" lon="20.59208">
        <ele>802.560837</ele>
        <time>2022-05-01T09:23:16.587Z</time>
      </trkpt>
      <trkpt lat="41.06697" lon="20.59198">
        <ele>801.897878</ele>
        <time>2022-05-01T09:23:17.537Z</time>
      </trkpt>
      <trkpt lat="41.06703" lon="20.59189">
        <ele>801.226204</ele>
        <time>2022-05-01T09:23:18.549Z</time>
      </trkpt>
      <trkpt lat="41.0671" lon="20.5918">
        <ele>800.547508</ele>
        <time>2022-05-01T09:23:19.529Z</time>
      </trkpt>
      <trkpt lat="41.06716" lon="20.5917">
        <ele>799.872777</ele>
        <time>2022-05-01T09:23:20.539Z</time>
      </trkpt>
      <trkpt lat="41.06722" lon="20.59161">
        <ele>799.20199</ele>
        <time>2022-05-01T09:23:21.549Z</time>
      </trkpt>
      <trkpt lat="41.06729" lon="20.59152">
        <ele>798.551641</ele>
        <time>2022-05-01T09:23:22.584Z</time>
      </trkpt>
      <trkpt lat="41.0674" lon="20.59135">
        <ele>797.225354</ele>
        <time>2022-05-01T09:23:24.593Z</time>
      </trkpt>
      <trkpt lat="41.0675" lon="20.59117">
        <ele>795.762281</ele>
        <time>2022-05-01T09:23:26.533Z</time>
      </trkpt>
      <trkpt lat="41.06758" lon="20.59098">
        <ele>794.32016</ele>
        <time>2022-05-01T09:23:28.569Z</time>
      </trkpt>
      <trkpt lat="41.06763" lon="20.59076">
        <ele>792.819165</ele>
        <time>2022-05-01T09:23:30.531Z</time>
      </trkpt>
      <trkpt lat="41.06764" lon="20.59064">
        <ele>792.007441</ele>
        <time>2022-05-01T09:23:31.548Z</time>
      </trkpt>
      <trkpt lat="41.06765" lon="20.59052">
        <ele>791.196734</ele>
        <time>2022-05-01T09:23:32.564Z</time>
      </trkpt>
      <trkpt lat="41.06766" lon="20.59039">
        <ele>790.393891</ele>
        <time>2022-05-01T09:23:33.571Z</time>
      </trkpt>
      <trkpt lat="41.06766" lon="20.59027">
        <ele>789.610076</ele>
        <time>2022-05-01T09:23:34.547Z</time>
      </trkpt>
      <trkpt lat="41.06768" lon="20.59004">
        <ele>788.089567</ele>
        <time>2022-05-01T09:23:36.548Z</time>
      </trkpt>
      <trkpt lat="41.06772" lon="20.58982">
        <ele>786.558749</ele>
        <time>2022-05-01T09:23:38.557Z</time>
      </trkpt>
      <trkpt lat="41.06779" lon="20.58961">
        <ele>785.05097</ele>
        <time>2022-05-01T09:23:40.543Z</time>
      </trkpt>
      <trkpt lat="41.06786" lon="20.58941">
        <ele>783.591813</ele>
        <time>2022-05-01T09:23:42.550Z</time>
      </trkpt>
      <trkpt lat="41.06793" lon="20.5892">
        <ele>782.079684</ele>
        <time>2022-05-01T09:23:44.564Z</time>
      </trkpt>
      <trkpt lat="41.068" lon="20.58899">
        <ele>780.479961</ele>
        <time>2022-05-01T09:23:46.546Z</time>
      </trkpt>
      <trkpt lat="41.06807" lon="20.5888">
        <ele>778.915303</ele>
        <time>2022-05-01T09:23:48.531Z</time>
      </trkpt>
      <trkpt lat="41.06816" lon="20.58862">
        <ele>777.377581</ele>
        <time>2022-05-01T09:23:50.578Z</time>
      </trkpt>
      <trkpt lat="41.06829" lon="20.58849">
        <ele>775.84194</ele>
        <time>2022-05-01T09:23:52.556Z</time>
      </trkpt>
      <trkpt lat="41.06846" lon="20.58847">
        <ele>774.230436</ele>
        <time>2022-05-01T09:23:54.574Z</time>
      </trkpt>
      <trkpt lat="41.06856" lon="20.5885">
        <ele>773.308429</ele>
        <time>2022-05-01T09:23:55.550Z</time>
      </trkpt>
      <trkpt lat="41.06865" lon="20.58855">
        <ele>772.387876</ele>
        <time>2022-05-01T09:23:56.562Z</time>
      </trkpt>
      <trkpt lat="41.06873" lon="20.5886">
        <ele>771.482298</ele>
        <time>2022-05-01T09:23:57.532Z</time>
      </trkpt>
      <trkpt lat="41.06882" lon="20.58865">
        <ele>770.631405</ele>
        <time>2022-05-01T09:23:58.547Z</time>
      </trkpt>
      <trkpt lat="41.06895" lon="20.58877">
        <ele>769.112888</ele>
        <time>2022-05-01T09:24:00.550Z</time>
      </trkpt>
      <trkpt lat="41.06906" lon="20.58891">
        <ele>767.664714</ele>
        <time>2022-05-01T09:24:02.557Z</time>
      </trkpt>
      <trkpt lat="41.06915" lon="20.58907">
        <ele>766.207349</ele>
        <time>2022-05-01T09:24:04.545Z</time>
      </trkpt>
      <trkpt lat="41.06919" lon="20.58925">
        <ele>764.90578</ele>
        <time>2022-05-01T09:24:06.537Z</time>
      </trkpt>
      <trkpt lat="41.0692" lon="20.58944">
        <ele>764.001005</ele>
        <time>2022-05-01T09:24:08.549Z</time>
      </trkpt>
      <trkpt lat="41.0692" lon="20.58961">
        <ele>763.160646</ele>
        <time>2022-05-01T09:24:10.558Z</time>
      </trkpt>
      <trkpt lat="41.06919" lon="20.58976">
        <ele>762.413538</ele>
        <time>2022-05-01T09:24:12.575Z</time>
      </trkpt>
      <trkpt lat="41.06918" lon="20.5899">
        <ele>761.715756</ele>
        <time>2022-05-01T09:24:14.542Z</time>
      </trkpt>
      <trkpt lat="41.06916" lon="20.59004">
        <ele>761.017974</ele>
        <time>2022-05-01T09:24:16.537Z</time>
      </trkpt>
      <trkpt lat="41.06914" lon="20.59018">
        <ele>760.319994</ele>
        <time>2022-05-01T09:24:18.549Z</time>
      </trkpt>
      <trkpt lat="41.06912" lon="20.59031">
        <ele>759.640218</ele>
        <time>2022-05-01T09:24:20.543Z</time>
      </trkpt>
      <trkpt lat="41.0691" lon="20.59045">
        <ele>758.926474</ele>
        <time>2022-05-01T09:24:22.557Z</time>
      </trkpt>
      <trkpt lat="41.06909" lon="20.59058">
        <ele>758.300024</ele>
        <time>2022-05-01T09:24:24.557Z</time>
      </trkpt>
      <trkpt lat="41.06906" lon="20.5907">
        <ele>757.681277</ele>
        <time>2022-05-01T09:24:26.537Z</time>
      </trkpt>
      <trkpt lat="41.06903" lon="20.59082">
        <ele>757.063357</ele>
        <time>2022-05-01T09:24:28.539Z</time>
      </trkpt>
      <trkpt lat="41.069" lon="20.59093">
        <ele>756.470957</ele>
        <time>2022-05-01T09:24:30.548Z</time>
      </trkpt>
      <trkpt lat="41.06895" lon="20.5911">
        <ele>755.606335</ele>
        <time>2022-05-01T09:24:33.538Z</time>
      </trkpt>
      <trkpt lat="41.06891" lon="20.5912">
        <ele>755.008886</ele>
        <time>2022-05-01T09:24:35.555Z</time>
      </trkpt>
      <trkpt lat="41.06887" lon="20.59131">
        <ele>754.405469</ele>
        <time>2022-05-01T09:24:37.543Z</time>
      </trkpt>
      <trkpt lat="41.06882" lon="20.59147">
        <ele>753.529405</ele>
        <time>2022-05-01T09:24:40.567Z</time>
      </trkpt>
      <trkpt lat="41.06877" lon="20.59158">
        <ele>753.026417</ele>
        <time>2022-05-01T09:24:42.539Z</time>
      </trkpt>
      <trkpt lat="41.06873" lon="20.59169">
        <ele>752.601575</ele>
        <time>2022-05-01T09:24:44.540Z</time>
      </trkpt>
      <trkpt lat="41.06867" lon="20.5918">
        <ele>752.165522</ele>
        <time>2022-05-01T09:24:46.583Z</time>
      </trkpt>
      <trkpt lat="41.06861" lon="20.59191">
        <ele>751.716182</ele>
        <time>2022-05-01T09:24:48.539Z</time>
      </trkpt>
      <trkpt lat="41.06856" lon="20.59203">
        <ele>751.240812</ele>
        <time>2022-05-01T09:24:50.543Z</time>
      </trkpt>
      <trkpt lat="41.06853" lon="20.59217">
        <ele>750.73727</ele>
        <time>2022-05-01T09:24:52.547Z</time>
      </trkpt>
      <trkpt lat="41.06854" lon="20.59233">
        <ele>750.207941</ele>
        <time>2022-05-01T09:24:54.548Z</time>
      </trkpt>
      <trkpt lat="41.0686" lon="20.59248">
        <ele>749.637146</ele>
        <time>2022-05-01T09:24:56.548Z</time>
      </trkpt>
      <trkpt lat="41.06874" lon="20.59255">
        <ele>748.972494</ele>
        <time>2022-05-01T09:24:58.558Z</time>
      </trkpt>
      <trkpt lat="41.06889" lon="20.59253">
        <ele>748.272833</ele>
        <time>2022-05-01T09:25:00.569Z</time>
      </trkpt>
      <trkpt lat="41.06901" lon="20.5924">
        <ele>747.572931</ele>
        <time>2022-05-01T09:25:02.531Z</time>
      </trkpt>
      <trkpt lat="41.06912" lon="20.59221">
        <ele>746.752857</ele>
        <time>2022-05-01T09:25:04.537Z</time>
      </trkpt>
      <trkpt lat="41.06919" lon="20.59212">
        <ele>746.323651</ele>
        <time>2022-05-01T09:25:05.544Z</time>
      </trkpt>
      <trkpt lat="41.06926" lon="20.59204">
        <ele>745.901628</ele>
        <time>2022-05-01T09:25:06.530Z</time>
      </trkpt>
      <trkpt lat="41.06934" lon="20.59197">
        <ele>745.485165</ele>
        <time>2022-05-01T09:25:07.553Z</time>
      </trkpt>
      <trkpt lat="41.06951" lon="20.59191">
        <ele>744.276254</ele>
        <time>2022-05-01T09:25:09.563Z</time>
      </trkpt>
      <trkpt lat="41.06969" lon="20.59186">
        <ele>742.758325</ele>
        <time>2022-05-01T09:25:11.553Z</time>
      </trkpt>
      <trkpt lat="41.06977" lon="20.59183">
        <ele>741.999994</ele>
        <time>2022-05-01T09:25:12.547Z</time>
      </trkpt>
      <trkpt lat="41.06994" lon="20.59178">
        <ele>740.532749</ele>
        <time>2022-05-01T09:25:14.575Z</time>
      </trkpt>
      <trkpt lat="41.07011" lon="20.59168">
        <ele>739.051233</ele>
        <time>2022-05-01T09:25:16.548Z</time>
      </trkpt>
      <trkpt lat="41.07025" lon="20.59154">
        <ele>737.584368</ele>
        <time>2022-05-01T09:25:18.600Z</time>
      </trkpt>
      <trkpt lat="41.07037" lon="20.59136">
        <ele>736.043836</ele>
        <time>2022-05-01T09:25:20.575Z</time>
      </trkpt>
      <trkpt lat="41.07044" lon="20.59126">
        <ele>735.213299</ele>
        <time>2022-05-01T09:25:21.550Z</time>
      </trkpt>
      <trkpt lat="41.0705" lon="20.59116">
        <ele>734.380513</ele>
        <time>2022-05-01T09:25:22.548Z</time>
      </trkpt>
      <trkpt lat="41.07057" lon="20.59107">
        <ele>733.595956</ele>
        <time>2022-05-01T09:25:23.541Z</time>
      </trkpt>
      <trkpt lat="41.07064" lon="20.59099">
        <ele>732.820324</ele>
        <time>2022-05-01T09:25:24.531Z</time>
      </trkpt>
      <trkpt lat="41.07072" lon="20.59092">
        <ele>732.037307</ele>
        <time>2022-05-01T09:25:25.543Z</time>
      </trkpt>
      <trkpt lat="41.0708" lon="20.59086">
        <ele>731.227346</ele>
        <time>2022-05-01T09:25:26.579Z</time>
      </trkpt>
      <trkpt lat="41.07089" lon="20.5908">
        <ele>730.382181</ele>
        <time>2022-05-01T09:25:27.548Z</time>
      </trkpt>
      <trkpt lat="41.07099" lon="20.59076">
        <ele>729.649765</ele>
        <time>2022-05-01T09:25:28.548Z</time>
      </trkpt>
      <trkpt lat="41.0711" lon="20.59072">
        <ele>728.94996</ele>
        <time>2022-05-01T09:25:29.541Z</time>
      </trkpt>
      <trkpt lat="41.0712" lon="20.59067">
        <ele>728.228646</ele>
        <time>2022-05-01T09:25:30.611Z</time>
      </trkpt>
      <trkpt lat="41.07131" lon="20.59062">
        <ele>727.50281</ele>
        <time>2022-05-01T09:25:31.575Z</time>
      </trkpt>
      <trkpt lat="41.07141" lon="20.59057">
        <ele>726.773206</ele>
        <time>2022-05-01T09:25:32.585Z</time>
      </trkpt>
      <trkpt lat="41.07152" lon="20.59051">
        <ele>726.036683</ele>
        <time>2022-05-01T09:25:33.548Z</time>
      </trkpt>
      <trkpt lat="41.07161" lon="20.59045">
        <ele>725.325113</ele>
        <time>2022-05-01T09:25:34.536Z</time>
      </trkpt>
      <trkpt lat="41.07171" lon="20.59038">
        <ele>724.633875</ele>
        <time>2022-05-01T09:25:35.545Z</time>
      </trkpt>
      <trkpt lat="41.0718" lon="20.5903">
        <ele>723.946468</ele>
        <time>2022-05-01T09:25:36.539Z</time>
      </trkpt>
      <trkpt lat="41.07188" lon="20.59022">
        <ele>723.261011</ele>
        <time>2022-05-01T09:25:37.566Z</time>
      </trkpt>
      <trkpt lat="41.07196" lon="20.59013">
        <ele>722.59283</ele>
        <time>2022-05-01T09:25:38.557Z</time>
      </trkpt>
      <trkpt lat="41.07204" lon="20.59003">
        <ele>721.905132</ele>
        <time>2022-05-01T09:25:39.553Z</time>
      </trkpt>
      <trkpt lat="41.07211" lon="20.58993">
        <ele>721.223622</ele>
        <time>2022-05-01T09:25:40.544Z</time>
      </trkpt>
      <trkpt lat="41.07218" lon="20.58983">
        <ele>720.549013</ele>
        <time>2022-05-01T09:25:41.554Z</time>
      </trkpt>
      <trkpt lat="41.07224" lon="20.58972">
        <ele>719.880498</ele>
        <time>2022-05-01T09:25:42.546Z</time>
      </trkpt>
      <trkpt lat="41.0723" lon="20.58961">
        <ele>719.214331</ele>
        <time>2022-05-01T09:25:43.555Z</time>
      </trkpt>
      <trkpt lat="41.07235" lon="20.58949">
        <ele>718.548405</ele>
        <time>2022-05-01T09:25:44.570Z</time>
      </trkpt>
      <trkpt lat="41.0724" lon="20.58937">
        <ele>717.856145</ele>
        <time>2022-05-01T09:25:45.535Z</time>
      </trkpt>
      <trkpt lat="41.07244" lon="20.58924">
        <ele>717.170515</ele>
        <time>2022-05-01T09:25:46.539Z</time>
      </trkpt>
      <trkpt lat="41.07248" lon="20.58912">
        <ele>716.496741</ele>
        <time>2022-05-01T09:25:47.560Z</time>
      </trkpt>
      <trkpt lat="41.07252" lon="20.589">
        <ele>715.827545</ele>
        <time>2022-05-01T09:25:48.550Z</time>
      </trkpt>
      <trkpt lat="41.07256" lon="20.58887">
        <ele>715.161584</ele>
        <time>2022-05-01T09:25:49.629Z</time>
      </trkpt>
      <trkpt lat="41.0726" lon="20.58876">
        <ele>714.523335</ele>
        <time>2022-05-01T09:25:50.545Z</time>
      </trkpt>
      <trkpt lat="41.07264" lon="20.58865">
        <ele>713.906233</ele>
        <time>2022-05-01T09:25:51.549Z</time>
      </trkpt>
      <trkpt lat="41.0727" lon="20.58855">
        <ele>713.294139</ele>
        <time>2022-05-01T09:25:52.534Z</time>
      </trkpt>
      <trkpt lat="41.07277" lon="20.58847">
        <ele>712.673518</ele>
        <time>2022-05-01T09:25:53.544Z</time>
      </trkpt>
      <trkpt lat="41.07285" lon="20.5884">
        <ele>712.027829</ele>
        <time>2022-05-01T09:25:54.557Z</time>
      </trkpt>
      <trkpt lat="41.07294" lon="20.58834">
        <ele>711.365646</ele>
        <time>2022-05-01T09:25:55.549Z</time>
      </trkpt>
      <trkpt lat="41.07303" lon="20.58828">
        <ele>710.678786</ele>
        <time>2022-05-01T09:25:56.623Z</time>
      </trkpt>
      <trkpt lat="41.07312" lon="20.58823">
        <ele>710.036519</ele>
        <time>2022-05-01T09:25:57.544Z</time>
      </trkpt>
      <trkpt lat="41.0732" lon="20.58817">
        <ele>709.416578</ele>
        <time>2022-05-01T09:25:58.583Z</time>
      </trkpt>
      <trkpt lat="41.07333" lon="20.58804">
        <ele>708.326711</ele>
        <time>2022-05-01T09:26:00.529Z</time>
      </trkpt>
      <trkpt lat="41.07342" lon="20.58789">
        <ele>707.377234</ele>
        <time>2022-05-01T09:26:02.561Z</time>
      </trkpt>
      <trkpt lat="41.07354" lon="20.58775">
        <ele>706.290582</ele>
        <time>2022-05-01T09:26:04.548Z</time>
      </trkpt>
      <trkpt lat="41.07362" lon="20.58759">
        <ele>705.16361</ele>
        <time>2022-05-01T09:26:06.540Z</time>
      </trkpt>
      <trkpt lat="41.07366" lon="20.58743">
        <ele>704.197191</ele>
        <time>2022-05-01T09:26:08.594Z</time>
      </trkpt>
      <trkpt lat="41.07362" lon="20.58729">
        <ele>703.288896</ele>
        <time>2022-05-01T09:26:10.546Z</time>
      </trkpt>
      <trkpt lat="41.07349" lon="20.58721">
        <ele>702.199112</ele>
        <time>2022-05-01T09:26:12.539Z</time>
      </trkpt>
      <trkpt lat="41.07333" lon="20.58727">
        <ele>700.928092</ele>
        <time>2022-05-01T09:26:14.547Z</time>
      </trkpt>
      <trkpt lat="41.07319" lon="20.58743">
        <ele>699.525643</ele>
        <time>2022-05-01T09:26:16.554Z</time>
      </trkpt>
      <trkpt lat="41.07314" lon="20.58753">
        <ele>698.815958</ele>
        <time>2022-05-01T09:26:17.538Z</time>
      </trkpt>
      <trkpt lat="41.07302" lon="20.58768">
        <ele>697.558372</ele>
        <time>2022-05-01T09:26:19.548Z</time>
      </trkpt>
      <trkpt lat="41.07287" lon="20.58779">
        <ele>696.259792</ele>
        <time>2022-05-01T09:26:21.549Z</time>
      </trkpt>
      <trkpt lat="41.07279" lon="20.58783">
        <ele>695.56301</ele>
        <time>2022-05-01T09:26:22.544Z</time>
      </trkpt>
      <trkpt lat="41.07269" lon="20.58785">
        <ele>694.831983</ele>
        <time>2022-05-01T09:26:23.602Z</time>
      </trkpt>
      <trkpt lat="41.07259" lon="20.58785">
        <ele>694.030755</ele>
        <time>2022-05-01T09:26:24.537Z</time>
      </trkpt>
      <trkpt lat="41.07248" lon="20.58782">
        <ele>693.152727</ele>
        <time>2022-05-01T09:26:25.561Z</time>
      </trkpt>
      <trkpt lat="41.07236" lon="20.58778">
        <ele>692.223556</ele>
        <time>2022-05-01T09:26:26.578Z</time>
      </trkpt>
      <trkpt lat="41.07225" lon="20.58771">
        <ele>691.26904</ele>
        <time>2022-05-01T09:26:27.546Z</time>
      </trkpt>
      <trkpt lat="41.07214" lon="20.58764">
        <ele>690.343899</ele>
        <time>2022-05-01T09:26:28.546Z</time>
      </trkpt>
      <trkpt lat="41.07203" lon="20.58757">
        <ele>689.377271</ele>
        <time>2022-05-01T09:26:29.545Z</time>
      </trkpt>
      <trkpt lat="41.07191" lon="20.5875">
        <ele>688.389819</ele>
        <time>2022-05-01T09:26:30.543Z</time>
      </trkpt>
      <trkpt lat="41.07179" lon="20.58744">
        <ele>687.39035</ele>
        <time>2022-05-01T09:26:31.531Z</time>
      </trkpt>
      <trkpt lat="41.07167" lon="20.58737">
        <ele>686.369428</ele>
        <time>2022-05-01T09:26:32.582Z</time>
      </trkpt>
      <trkpt lat="41.07155" lon="20.58731">
        <ele>685.354831</ele>
        <time>2022-05-01T09:26:33.538Z</time>
      </trkpt>
      <trkpt lat="41.07143" lon="20.58726">
        <ele>684.401416</ele>
        <time>2022-05-01T09:26:34.566Z</time>
      </trkpt>
      <trkpt lat="41.07131" lon="20.58722">
        <ele>683.503943</ele>
        <time>2022-05-01T09:26:35.543Z</time>
      </trkpt>
      <trkpt lat="41.07121" lon="20.5872">
        <ele>682.674779</ele>
        <time>2022-05-01T09:26:36.550Z</time>
      </trkpt>
      <trkpt lat="41.07111" lon="20.58718">
        <ele>681.883593</ele>
        <time>2022-05-01T09:26:37.557Z</time>
      </trkpt>
      <trkpt lat="41.07101" lon="20.58715">
        <ele>681.131921</ele>
        <time>2022-05-01T09:26:38.539Z</time>
      </trkpt>
      <trkpt lat="41.07092" lon="20.58711">
        <ele>680.375868</ele>
        <time>2022-05-01T09:26:39.535Z</time>
      </trkpt>
      <trkpt lat="41.07083" lon="20.58706">
        <ele>679.630649</ele>
        <time>2022-05-01T09:26:40.531Z</time>
      </trkpt>
      <trkpt lat="41.07075" lon="20.58698">
        <ele>678.849847</ele>
        <time>2022-05-01T09:26:41.544Z</time>
      </trkpt>
      <trkpt lat="41.07066" lon="20.58689">
        <ele>677.98358</ele>
        <time>2022-05-01T09:26:42.548Z</time>
      </trkpt>
      <trkpt lat="41.07059" lon="20.58678">
        <ele>677.098911</ele>
        <time>2022-05-01T09:26:43.591Z</time>
      </trkpt>
      <trkpt lat="41.07053" lon="20.58666">
        <ele>676.240694</ele>
        <time>2022-05-01T09:26:44.545Z</time>
      </trkpt>
      <trkpt lat="41.07048" lon="20.58654">
        <ele>675.393914</ele>
        <time>2022-05-01T09:26:45.555Z</time>
      </trkpt>
      <trkpt lat="41.07043" lon="20.58641">
        <ele>674.540531</ele>
        <time>2022-05-01T09:26:46.557Z</time>
      </trkpt>
      <trkpt lat="41.07041" lon="20.58627">
        <ele>673.679834</ele>
        <time>2022-05-01T09:26:47.538Z</time>
      </trkpt>
      <trkpt lat="41.0704" lon="20.58612">
        <ele>672.789722</ele>
        <time>2022-05-01T09:26:48.549Z</time>
      </trkpt>
      <trkpt lat="41.07041" lon="20.58597">
        <ele>671.894233</ele>
        <time>2022-05-01T09:26:49.580Z</time>
      </trkpt>
      <trkpt lat="41.07042" lon="20.58582">
        <ele>670.970297</ele>
        <time>2022-05-01T09:26:50.575Z</time>
      </trkpt>
      <trkpt lat="41.07044" lon="20.58566">
        <ele>670.026218</ele>
        <time>2022-05-01T09:26:51.576Z</time>
      </trkpt>
      <trkpt lat="41.07046" lon="20.5855">
        <ele>669.058648</ele>
        <time>2022-05-01T09:26:52.545Z</time>
      </trkpt>
      <trkpt lat="41.07047" lon="20.58534">
        <ele>668.081131</ele>
        <time>2022-05-01T09:26:53.547Z</time>
      </trkpt>
      <trkpt lat="41.07048" lon="20.58517">
        <ele>667.072468</ele>
        <time>2022-05-01T09:26:54.548Z</time>
      </trkpt>
      <trkpt lat="41.07048" lon="20.585">
        <ele>666.065217</ele>
        <time>2022-05-01T09:26:55.562Z</time>
      </trkpt>
      <trkpt lat="41.07048" lon="20.58484">
        <ele>665.088032</ele>
        <time>2022-05-01T09:26:56.556Z</time>
      </trkpt>
      <trkpt lat="41.07049" lon="20.58468">
        <ele>664.169332</ele>
        <time>2022-05-01T09:26:57.548Z</time>
      </trkpt>
      <trkpt lat="41.07048" lon="20.58452">
        <ele>663.35007</ele>
        <time>2022-05-01T09:26:58.539Z</time>
      </trkpt>
      <trkpt lat="41.07048" lon="20.58437">
        <ele>662.520306</ele>
        <time>2022-05-01T09:26:59.554Z</time>
      </trkpt>
      <trkpt lat="41.07048" lon="20.58421">
        <ele>661.695881</ele>
        <time>2022-05-01T09:27:00.575Z</time>
      </trkpt>
      <trkpt lat="41.07049" lon="20.58405">
        <ele>660.875997</ele>
        <time>2022-05-01T09:27:01.543Z</time>
      </trkpt>
      <trkpt lat="41.0705" lon="20.5839">
        <ele>660.053897</ele>
        <time>2022-05-01T09:27:02.537Z</time>
      </trkpt>
      <trkpt lat="41.07051" lon="20.58374">
        <ele>659.237593</ele>
        <time>2022-05-01T09:27:03.555Z</time>
      </trkpt>
      <trkpt lat="41.07051" lon="20.58359">
        <ele>658.427483</ele>
        <time>2022-05-01T09:27:04.557Z</time>
      </trkpt>
      <trkpt lat="41.07052" lon="20.58343">
        <ele>657.618361</ele>
        <time>2022-05-01T09:27:05.547Z</time>
      </trkpt>
      <trkpt lat="41.07052" lon="20.58328">
        <ele>656.819127</ele>
        <time>2022-05-01T09:27:06.593Z</time>
      </trkpt>
      <trkpt lat="41.07053" lon="20.58313">
        <ele>656.020227</ele>
        <time>2022-05-01T09:27:07.535Z</time>
      </trkpt>
      <trkpt lat="41.07053" lon="20.58298">
        <ele>655.216082</ele>
        <time>2022-05-01T09:27:08.545Z</time>
      </trkpt>
      <trkpt lat="41.07054" lon="20.58282">
        <ele>654.412208</ele>
        <time>2022-05-01T09:27:09.538Z</time>
      </trkpt>
      <trkpt lat="41.07054" lon="20.58267">
        <ele>653.598047</ele>
        <time>2022-05-01T09:27:10.549Z</time>
      </trkpt>
      <trkpt lat="41.07055" lon="20.58251">
        <ele>652.778163</ele>
        <time>2022-05-01T09:27:11.534Z</time>
      </trkpt>
      <trkpt lat="41.07055" lon="20.58236">
        <ele>651.965317</ele>
        <time>2022-05-01T09:27:12.589Z</time>
      </trkpt>
      <trkpt lat="41.07055" lon="20.5822">
        <ele>651.380393</ele>
        <time>2022-05-01T09:27:13.539Z</time>
      </trkpt>
      <trkpt lat="41.07056" lon="20.58205">
        <ele>650.788031</ele>
        <time>2022-05-01T09:27:14.557Z</time>
      </trkpt>
      <trkpt lat="41.07056" lon="20.58189">
        <ele>650.195519</ele>
        <time>2022-05-01T09:27:15.545Z</time>
      </trkpt>
      <trkpt lat="41.07056" lon="20.58174">
        <ele>649.610854</ele>
        <time>2022-05-01T09:27:16.547Z</time>
      </trkpt>
      <trkpt lat="41.07056" lon="20.58158">
        <ele>649.014867</ele>
        <time>2022-05-01T09:27:17.550Z</time>
      </trkpt>
      <trkpt lat="41.07057" lon="20.58142">
        <ele>648.418817</ele>
        <time>2022-05-01T09:27:18.565Z</time>
      </trkpt>
      <trkpt lat="41.07057" lon="20.58127">
        <ele>647.833697</ele>
        <time>2022-05-01T09:27:19.548Z</time>
      </trkpt>
      <trkpt lat="41.07058" lon="20.58111">
        <ele>647.243947</ele>
        <time>2022-05-01T09:27:20.538Z</time>
      </trkpt>
      <trkpt lat="41.07058" lon="20.58096">
        <ele>646.647641</ele>
        <time>2022-05-01T09:27:21.548Z</time>
      </trkpt>
      <trkpt lat="41.07059" lon="20.5808">
        <ele>646.055279</ele>
        <time>2022-05-01T09:27:22.548Z</time>
      </trkpt>
      <trkpt lat="41.07059" lon="20.58065">
        <ele>645.482067</ele>
        <time>2022-05-01T09:27:23.565Z</time>
      </trkpt>
      <trkpt lat="41.07059" lon="20.58051">
        <ele>644.946743</ele>
        <time>2022-05-01T09:27:24.587Z</time>
      </trkpt>
      <trkpt lat="41.07059" lon="20.58037">
        <ele>644.430492</ele>
        <time>2022-05-01T09:27:25.571Z</time>
      </trkpt>
      <trkpt lat="41.07059" lon="20.58024">
        <ele>643.925228</ele>
        <time>2022-05-01T09:27:26.547Z</time>
      </trkpt>
      <trkpt lat="41.07058" lon="20.58011">
        <ele>643.427041</ele>
        <time>2022-05-01T09:27:27.539Z</time>
      </trkpt>
      <trkpt lat="41.07057" lon="20.57998">
        <ele>642.924737</ele>
        <time>2022-05-01T09:27:28.543Z</time>
      </trkpt>
      <trkpt lat="41.07056" lon="20.57984">
        <ele>642.506257</ele>
        <time>2022-05-01T09:27:29.535Z</time>
      </trkpt>
      <trkpt lat="41.07056" lon="20.57971">
        <ele>642.076955</ele>
        <time>2022-05-01T09:27:30.558Z</time>
      </trkpt>
      <trkpt lat="41.07055" lon="20.57957">
        <ele>641.647275</ele>
        <time>2022-05-01T09:27:31.553Z</time>
      </trkpt>
      <trkpt lat="41.07053" lon="20.57943">
        <ele>641.220279</ele>
        <time>2022-05-01T09:27:32.546Z</time>
      </trkpt>
      <trkpt lat="41.07052" lon="20.5793">
        <ele>640.795922</ele>
        <time>2022-05-01T09:27:33.569Z</time>
      </trkpt>
      <trkpt lat="41.07051" lon="20.57916">
        <ele>640.371565</ele>
        <time>2022-05-01T09:27:34.550Z</time>
      </trkpt>
      <trkpt lat="41.0705" lon="20.57903">
        <ele>639.950309</ele>
        <time>2022-05-01T09:27:35.593Z</time>
      </trkpt>
      <trkpt lat="41.07049" lon="20.57889">
        <ele>639.52235</ele>
        <time>2022-05-01T09:27:36.528Z</time>
      </trkpt>
      <trkpt lat="41.07047" lon="20.57876">
        <ele>639.097993</ele>
        <time>2022-05-01T09:27:37.548Z</time>
      </trkpt>
      <trkpt lat="41.07046" lon="20.57862">
        <ele>638.668914</ele>
        <time>2022-05-01T09:27:38.536Z</time>
      </trkpt>
      <trkpt lat="41.07045" lon="20.57849">
        <ele>638.244557</ele>
        <time>2022-05-01T09:27:39.546Z</time>
      </trkpt>
      <trkpt lat="41.07044" lon="20.57835">
        <ele>637.821089</ele>
        <time>2022-05-01T09:27:40.547Z</time>
      </trkpt>
      <trkpt lat="41.07043" lon="20.57822">
        <ele>637.403404</ele>
        <time>2022-05-01T09:27:41.543Z</time>
      </trkpt>
      <trkpt lat="41.07042" lon="20.57809">
        <ele>636.989255</ele>
        <time>2022-05-01T09:27:42.546Z</time>
      </trkpt>
      <trkpt lat="41.07041" lon="20.57796">
        <ele>636.572392</ele>
        <time>2022-05-01T09:27:43.556Z</time>
      </trkpt>
      <trkpt lat="41.0704" lon="20.57782">
        <ele>636.151602</ele>
        <time>2022-05-01T09:27:44.547Z</time>
      </trkpt>
      <trkpt lat="41.07038" lon="20.57769">
        <ele>635.730813</ele>
        <time>2022-05-01T09:27:45.554Z</time>
      </trkpt>
      <trkpt lat="41.07037" lon="20.57755">
        <ele>635.392498</ele>
        <time>2022-05-01T09:27:46.592Z</time>
      </trkpt>
      <trkpt lat="41.07036" lon="20.57742">
        <ele>635.196646</ele>
        <time>2022-05-01T09:27:47.547Z</time>
      </trkpt>
      <trkpt lat="41.07035" lon="20.57728">
        <ele>634.995098</ele>
        <time>2022-05-01T09:27:48.549Z</time>
      </trkpt>
      <trkpt lat="41.07034" lon="20.57715">
        <ele>634.807564</ele>
        <time>2022-05-01T09:27:49.551Z</time>
      </trkpt>
      <trkpt lat="41.07032" lon="20.57702">
        <ele>634.620669</ele>
        <time>2022-05-01T09:27:50.541Z</time>
      </trkpt>
      <trkpt lat="41.07031" lon="20.57689">
        <ele>634.434566</ele>
        <time>2022-05-01T09:27:51.539Z</time>
      </trkpt>
      <trkpt lat="41.07029" lon="20.57676">
        <ele>634.247951</ele>
        <time>2022-05-01T09:27:52.563Z</time>
      </trkpt>
      <trkpt lat="41.07027" lon="20.57663">
        <ele>634.059747</ele>
        <time>2022-05-01T09:27:53.550Z</time>
      </trkpt>
      <trkpt lat="41.07025" lon="20.5765">
        <ele>633.871764</ele>
        <time>2022-05-01T09:27:54.570Z</time>
      </trkpt>
      <trkpt lat="41.07022" lon="20.57638">
        <ele>633.68333</ele>
        <time>2022-05-01T09:27:55.552Z</time>
      </trkpt>
      <trkpt lat="41.07019" lon="20.57625">
        <ele>633.497738</ele>
        <time>2022-05-01T09:27:56.529Z</time>
      </trkpt>
      <trkpt lat="41.07015" lon="20.57613">
        <ele>633.31137</ele>
        <time>2022-05-01T09:27:57.591Z</time>
      </trkpt>
      <trkpt lat="41.07011" lon="20.57602">
        <ele>633.123706</ele>
        <time>2022-05-01T09:27:58.552Z</time>
      </trkpt>
      <trkpt lat="41.07006" lon="20.5759">
        <ele>632.935141</ele>
        <time>2022-05-01T09:27:59.547Z</time>
      </trkpt>
      <trkpt lat="41.07002" lon="20.57578">
        <ele>632.744412</ele>
        <time>2022-05-01T09:28:00.546Z</time>
      </trkpt>
      <trkpt lat="41.06997" lon="20.57567">
        <ele>632.550592</ele>
        <time>2022-05-01T09:28:01.556Z</time>
      </trkpt>
      <trkpt lat="41.06992" lon="20.57554">
        <ele>632.353921</ele>
        <time>2022-05-01T09:28:02.550Z</time>
      </trkpt>
      <trkpt lat="41.06987" lon="20.57542">
        <ele>632.156874</ele>
        <time>2022-05-01T09:28:03.559Z</time>
      </trkpt>
      <trkpt lat="41.06982" lon="20.5753">
        <ele>631.970344</ele>
        <time>2022-05-01T09:28:04.546Z</time>
      </trkpt>
      <trkpt lat="41.06978" lon="20.57519">
        <ele>631.799463</ele>
        <time>2022-05-01T09:28:05.536Z</time>
      </trkpt>
      <trkpt lat="41.06973" lon="20.57507">
        <ele>631.629739</ele>
        <time>2022-05-01T09:28:06.561Z</time>
      </trkpt>
      <trkpt lat="41.06969" lon="20.57495">
        <ele>631.458857</ele>
        <time>2022-05-01T09:28:07.558Z</time>
      </trkpt>
      <trkpt lat="41.06964" lon="20.57484">
        <ele>631.287975</ele>
        <time>2022-05-01T09:28:08.587Z</time>
      </trkpt>
      <trkpt lat="41.0696" lon="20.57472">
        <ele>631.119382</ele>
        <time>2022-05-01T09:28:09.551Z</time>
      </trkpt>
      <trkpt lat="41.06956" lon="20.5746">
        <ele>630.95354</ele>
        <time>2022-05-01T09:28:10.539Z</time>
      </trkpt>
      <trkpt lat="41.06952" lon="20.57449">
        <ele>630.788768</ele>
        <time>2022-05-01T09:28:11.542Z</time>
      </trkpt>
      <trkpt lat="41.06948" lon="20.57437">
        <ele>630.623795</ele>
        <time>2022-05-01T09:28:12.552Z</time>
      </trkpt>
      <trkpt lat="41.06945" lon="20.57425">
        <ele>630.454575</ele>
        <time>2022-05-01T09:28:13.546Z</time>
      </trkpt>
      <trkpt lat="41.06942" lon="20.57413">
        <ele>630.287414</ele>
        <time>2022-05-01T09:28:14.579Z</time>
      </trkpt>
      <trkpt lat="41.0694" lon="20.574">
        <ele>630.122791</ele>
        <time>2022-05-01T09:28:15.550Z</time>
      </trkpt>
      <trkpt lat="41.06939" lon="20.57387">
        <ele>629.954518</ele>
        <time>2022-05-01T09:28:16.542Z</time>
      </trkpt>
      <trkpt lat="41.06938" lon="20.57375">
        <ele>629.791562</ele>
        <time>2022-05-01T09:28:17.558Z</time>
      </trkpt>
      <trkpt lat="41.06938" lon="20.57362">
        <ele>629.623589</ele>
        <time>2022-05-01T09:28:18.552Z</time>
      </trkpt>
      <trkpt lat="41.06937" lon="20.57349">
        <ele>629.457024</ele>
        <time>2022-05-01T09:28:19.539Z</time>
      </trkpt>
      <trkpt lat="41.06937" lon="20.57337">
        <ele>629.293096</ele>
        <time>2022-05-01T09:28:20.557Z</time>
      </trkpt>
      <trkpt lat="41.06937" lon="20.57324">
        <ele>629.127642</ele>
        <time>2022-05-01T09:28:21.557Z</time>
      </trkpt>
      <trkpt lat="41.06936" lon="20.57311">
        <ele>628.963569</ele>
        <time>2022-05-01T09:28:22.555Z</time>
      </trkpt>
      <trkpt lat="41.06936" lon="20.57298">
        <ele>628.858366</ele>
        <time>2022-05-01T09:28:23.628Z</time>
      </trkpt>
      <trkpt lat="41.06935" lon="20.57285">
        <ele>628.764927</ele>
        <time>2022-05-01T09:28:24.543Z</time>
      </trkpt>
      <trkpt lat="41.06935" lon="20.57272">
        <ele>628.67509</ele>
        <time>2022-05-01T09:28:25.597Z</time>
      </trkpt>
      <trkpt lat="41.06935" lon="20.5726">
        <ele>628.588177</ele>
        <time>2022-05-01T09:28:26.547Z</time>
      </trkpt>
      <trkpt lat="41.06934" lon="20.57248">
        <ele>628.500536</ele>
        <time>2022-05-01T09:28:27.556Z</time>
      </trkpt>
      <trkpt lat="41.06934" lon="20.57224">
        <ele>628.333064</ele>
        <time>2022-05-01T09:28:29.556Z</time>
      </trkpt>
      <trkpt lat="41.06933" lon="20.57201">
        <ele>628.168441</ele>
        <time>2022-05-01T09:28:31.554Z</time>
      </trkpt>
      <trkpt lat="41.06933" lon="20.57179">
        <ele>628.010296</ele>
        <time>2022-05-01T09:28:33.548Z</time>
      </trkpt>
      <trkpt lat="41.06933" lon="20.57158">
        <ele>627.8614</ele>
        <time>2022-05-01T09:28:35.552Z</time>
      </trkpt>
      <trkpt lat="41.06933" lon="20.57138">
        <ele>627.716778</ele>
        <time>2022-05-01T09:28:37.566Z</time>
      </trkpt>
      <trkpt lat="41.06933" lon="20.57118">
        <ele>627.57643</ele>
        <time>2022-05-01T09:28:39.541Z</time>
      </trkpt>
      <trkpt lat="41.06932" lon="20.57099">
        <ele>627.441631</ele>
        <time>2022-05-01T09:28:41.555Z</time>
      </trkpt>
      <trkpt lat="41.06932" lon="20.5708">
        <ele>627.308406</ele>
        <time>2022-05-01T09:28:43.574Z</time>
      </trkpt>
      <trkpt lat="41.06932" lon="20.57061">
        <ele>627.593717</ele>
        <time>2022-05-01T09:28:45.639Z</time>
      </trkpt>
      <trkpt lat="41.06932" lon="20.57043">
        <ele>628.213932</ele>
        <time>2022-05-01T09:28:47.547Z</time>
      </trkpt>
      <trkpt lat="41.06932" lon="20.57026">
        <ele>628.806455</ele>
        <time>2022-05-01T09:28:49.552Z</time>
      </trkpt>
      <trkpt lat="41.06932" lon="20.5701">
        <ele>629.368124</ele>
        <time>2022-05-01T09:28:51.551Z</time>
      </trkpt>
      <trkpt lat="41.06932" lon="20.56994">
        <ele>629.922737</ele>
        <time>2022-05-01T09:28:53.546Z</time>
      </trkpt>
      <trkpt lat="41.06932" lon="20.56978">
        <ele>630.460145</ele>
        <time>2022-05-01T09:28:55.546Z</time>
      </trkpt>
      <trkpt lat="41.06931" lon="20.56963">
        <ele>630.983934</ele>
        <time>2022-05-01T09:28:57.650Z</time>
      </trkpt>
      <trkpt lat="41.06931" lon="20.56949">
        <ele>631.483513</ele>
        <time>2022-05-01T09:28:59.578Z</time>
      </trkpt>
      <trkpt lat="41.06931" lon="20.56935">
        <ele>631.948763</ele>
        <time>2022-05-01T09:29:01.562Z</time>
      </trkpt>
      <trkpt lat="41.0693" lon="20.56923">
        <ele>632.366809</ele>
        <time>2022-05-01T09:29:03.546Z</time>
      </trkpt>
      <trkpt lat="41.0693" lon="20.56907">
        <ele>632.911394</ele>
        <time>2022-05-01T09:29:06.568Z</time>
      </trkpt>
      <trkpt lat="41.0693" lon="20.56893">
        <ele>633.386798</ele>
        <time>2022-05-01T09:29:09.552Z</time>
      </trkpt>
      <trkpt lat="41.0693" lon="20.56879">
        <ele>633.889822</ele>
        <time>2022-05-01T09:29:13.543Z</time>
      </trkpt>
      <trkpt lat="41.06929" lon="20.56865">
        <ele>634.373154</ele>
        <time>2022-05-01T09:29:18.559Z</time>
      </trkpt>
      <trkpt lat="41.06929" lon="20.5685">
        <ele>634.869731</ele>
        <time>2022-05-01T09:29:23.607Z</time>
      </trkpt>
      <trkpt lat="41.06928" lon="20.56838">
        <ele>635.285624</ele>
        <time>2022-05-01T09:29:27.540Z</time>
      </trkpt>
      <trkpt lat="41.06927" lon="20.56825">
        <ele>635.631499</ele>
        <time>2022-05-01T09:29:32.546Z</time>
      </trkpt>
      <trkpt lat="41.06927" lon="20.56813">
        <ele>635.893277</ele>
        <time>2022-05-01T09:29:37.546Z</time>
      </trkpt>
      <trkpt lat="41.06927" lon="20.56801">
        <ele>636.148601</ele>
        <time>2022-05-01T09:29:41.542Z</time>
      </trkpt>
      <trkpt lat="41.06927" lon="20.56786">
        <ele>636.454276</ele>
        <time>2022-05-01T09:29:46.566Z</time>
      </trkpt>
      <trkpt lat="41.06926" lon="20.56772">
        <ele>636.747954</ele>
        <time>2022-05-01T09:29:52.550Z</time>
      </trkpt>
      <trkpt lat="41.06926" lon="20.56759">
        <ele>637.026728</ele>
        <time>2022-05-01T09:29:57.555Z</time>
      </trkpt>
      <trkpt lat="41.06926" lon="20.56746">
        <ele>637.305011</ele>
        <time>2022-05-01T09:30:02.530Z</time>
      </trkpt>
      <trkpt lat="41.06926" lon="20.56733">
        <ele>637.570867</ele>
        <time>2022-05-01T09:30:07.555Z</time>
      </trkpt>
      <trkpt lat="41.06925" lon="20.56721">
        <ele>637.822726</ele>
        <time>2022-05-01T09:30:11.537Z</time>
      </trkpt>
      <trkpt lat="41.06925" lon="20.56707">
        <ele>638.118191</ele>
        <time>2022-05-01T09:30:16.546Z</time>
      </trkpt>
      <trkpt lat="41.06925" lon="20.56694">
        <ele>638.394578</ele>
        <time>2022-05-01T09:30:20.549Z</time>
      </trkpt>
      <trkpt lat="41.06925" lon="20.56679">
        <ele>638.717311</ele>
        <time>2022-05-01T09:30:24.546Z</time>
      </trkpt>
      <trkpt lat="41.06925" lon="20.56666">
        <ele>638.987162</ele>
        <time>2022-05-01T09:30:27.539Z</time>
      </trkpt>
      <trkpt lat="41.06925" lon="20.5665">
        <ele>639.322396</ele>
        <time>2022-05-01T09:30:30.566Z</time>
      </trkpt>
      <trkpt lat="41.06925" lon="20.56638">
        <ele>639.588016</ele>
        <time>2022-05-01T09:30:32.585Z</time>
      </trkpt>
      <trkpt lat="41.06925" lon="20.56623">
        <ele>639.889474</ele>
        <time>2022-05-01T09:30:34.554Z</time>
      </trkpt>
      <trkpt lat="41.06926" lon="20.56607">
        <ele>640.234468</ele>
        <time>2022-05-01T09:30:36.553Z</time>
      </trkpt>
      <trkpt lat="41.06929" lon="20.56588">
        <ele>640.292625</ele>
        <time>2022-05-01T09:30:38.577Z</time>
      </trkpt>
      <trkpt lat="41.06933" lon="20.56568">
        <ele>639.679364</ele>
        <time>2022-05-01T09:30:40.555Z</time>
      </trkpt>
      <trkpt lat="41.0694" lon="20.56546">
        <ele>638.968288</ele>
        <time>2022-05-01T09:30:42.546Z</time>
      </trkpt>
      <trkpt lat="41.06944" lon="20.56535">
        <ele>638.592009</ele>
        <time>2022-05-01T09:30:43.559Z</time>
      </trkpt>
      <trkpt lat="41.06949" lon="20.56524">
        <ele>638.210655</ele>
        <time>2022-05-01T09:30:44.584Z</time>
      </trkpt>
      <trkpt lat="41.06955" lon="20.56514">
        <ele>637.811836</ele>
        <time>2022-05-01T09:30:45.559Z</time>
      </trkpt>
      <trkpt lat="41.06962" lon="20.56503">
        <ele>637.395906</ele>
        <time>2022-05-01T09:30:46.555Z</time>
      </trkpt>
      <trkpt lat="41.06971" lon="20.56494">
        <ele>636.970135</ele>
        <time>2022-05-01T09:30:47.536Z</time>
      </trkpt>
      <trkpt lat="41.0698" lon="20.56487">
        <ele>636.547845</ele>
        <time>2022-05-01T09:30:48.534Z</time>
      </trkpt>
      <trkpt lat="41.06989" lon="20.5648">
        <ele>636.126217</ele>
        <time>2022-05-01T09:30:49.535Z</time>
      </trkpt>
      <trkpt lat="41.06999" lon="20.56473">
        <ele>635.707422</ele>
        <time>2022-05-01T09:30:50.538Z</time>
      </trkpt>
      <trkpt lat="41.07008" lon="20.56468">
        <ele>635.286653</ele>
        <time>2022-05-01T09:30:51.541Z</time>
      </trkpt>
      <trkpt lat="41.07018" lon="20.56462">
        <ele>634.867114</ele>
        <time>2022-05-01T09:30:52.569Z</time>
      </trkpt>
      <trkpt lat="41.07027" lon="20.56456">
        <ele>634.465615</ele>
        <time>2022-05-01T09:30:53.554Z</time>
      </trkpt>
      <trkpt lat="41.07037" lon="20.5645">
        <ele>634.056832</ele>
        <time>2022-05-01T09:30:54.571Z</time>
      </trkpt>
      <trkpt lat="41.07046" lon="20.56445">
        <ele>633.65162</ele>
        <time>2022-05-01T09:30:55.576Z</time>
      </trkpt>
      <trkpt lat="41.07055" lon="20.56439">
        <ele>633.423968</ele>
        <time>2022-05-01T09:30:56.534Z</time>
      </trkpt>
      <trkpt lat="41.07064" lon="20.56433">
        <ele>633.479685</ele>
        <time>2022-05-01T09:30:57.549Z</time>
      </trkpt>
      <trkpt lat="41.07072" lon="20.56427">
        <ele>633.533645</ele>
        <time>2022-05-01T09:30:58.552Z</time>
      </trkpt>
      <trkpt lat="41.0708" lon="20.56421">
        <ele>633.58529</ele>
        <time>2022-05-01T09:30:59.547Z</time>
      </trkpt>
      <trkpt lat="41.07094" lon="20.56408">
        <ele>633.683055</ele>
        <time>2022-05-01T09:31:01.574Z</time>
      </trkpt>
      <trkpt lat="41.07107" lon="20.56394">
        <ele>633.776423</ele>
        <time>2022-05-01T09:31:03.562Z</time>
      </trkpt>
      <trkpt lat="41.07117" lon="20.56379">
        <ele>633.865921</ele>
        <time>2022-05-01T09:31:05.557Z</time>
      </trkpt>
      <trkpt lat="41.07126" lon="20.56363">
        <ele>633.950129</ele>
        <time>2022-05-01T09:31:07.550Z</time>
      </trkpt>
      <trkpt lat="41.07134" lon="20.56349">
        <ele>634.026518</ele>
        <time>2022-05-01T09:31:09.554Z</time>
      </trkpt>
      <trkpt lat="41.0714" lon="20.56334">
        <ele>634.097797</ele>
        <time>2022-05-01T09:31:11.558Z</time>
      </trkpt>
      <trkpt lat="41.07145" lon="20.56321">
        <ele>634.161011</ele>
        <time>2022-05-01T09:31:13.549Z</time>
      </trkpt>
      <trkpt lat="41.07149" lon="20.56309">
        <ele>634.21923</ele>
        <time>2022-05-01T09:31:15.557Z</time>
      </trkpt>
      <trkpt lat="41.07152" lon="20.56296">
        <ele>634.274606</ele>
        <time>2022-05-01T09:31:17.587Z</time>
      </trkpt>
      <trkpt lat="41.07155" lon="20.56285">
        <ele>634.327264</ele>
        <time>2022-05-01T09:31:19.545Z</time>
      </trkpt>
      <trkpt lat="41.07157" lon="20.56273">
        <ele>634.379576</ele>
        <time>2022-05-01T09:31:21.557Z</time>
      </trkpt>
      <trkpt lat="41.07159" lon="20.56261">
        <ele>634.421137</ele>
        <time>2022-05-01T09:31:23.555Z</time>
      </trkpt>
      <trkpt lat="41.0716" lon="20.56249">
        <ele>634.240209</ele>
        <time>2022-05-01T09:31:25.539Z</time>
      </trkpt>
      <trkpt lat="41.07161" lon="20.56236">
        <ele>634.055151</ele>
        <time>2022-05-01T09:31:27.542Z</time>
      </trkpt>
      <trkpt lat="41.07162" lon="20.56223">
        <ele>633.869035</ele>
        <time>2022-05-01T09:31:29.549Z</time>
      </trkpt>
      <trkpt lat="41.07162" lon="20.56209">
        <ele>633.665733</ele>
        <time>2022-05-01T09:31:31.611Z</time>
      </trkpt>
      <trkpt lat="41.07161" lon="20.56194">
        <ele>633.440364</ele>
        <time>2022-05-01T09:31:33.550Z</time>
      </trkpt>
      <trkpt lat="41.0716" lon="20.56178">
        <ele>633.209958</ele>
        <time>2022-05-01T09:31:35.531Z</time>
      </trkpt>
      <trkpt lat="41.07159" lon="20.56161">
        <ele>632.96684</ele>
        <time>2022-05-01T09:31:37.553Z</time>
      </trkpt>
      <trkpt lat="41.07158" lon="20.56145">
        <ele>632.732412</ele>
        <time>2022-05-01T09:31:39.550Z</time>
      </trkpt>
      <trkpt lat="41.07157" lon="20.56128">
        <ele>632.486398</ele>
        <time>2022-05-01T09:31:41.548Z</time>
      </trkpt>
      <trkpt lat="41.07157" lon="20.56111">
        <ele>632.233552</ele>
        <time>2022-05-01T09:31:43.552Z</time>
      </trkpt>
      <trkpt lat="41.07156" lon="20.56093">
        <ele>631.97047</ele>
        <time>2022-05-01T09:31:45.540Z</time>
      </trkpt>
      <trkpt lat="41.07155" lon="20.56074">
        <ele>631.700045</ele>
        <time>2022-05-01T09:31:47.536Z</time>
      </trkpt>
      <trkpt lat="41.07154" lon="20.56056">
        <ele>631.426076</ele>
        <time>2022-05-01T09:31:49.590Z</time>
      </trkpt>
      <trkpt lat="41.07153" lon="20.56037">
        <ele>631.154829</ele>
        <time>2022-05-01T09:31:51.554Z</time>
      </trkpt>
      <trkpt lat="41.07152" lon="20.56018">
        <ele>630.909293</ele>
        <time>2022-05-01T09:31:53.587Z</time>
      </trkpt>
      <trkpt lat="41.07152" lon="20.56">
        <ele>630.726145</ele>
        <time>2022-05-01T09:31:55.575Z</time>
      </trkpt>
      <trkpt lat="41.07152" lon="20.55982">
        <ele>630.542996</ele>
        <time>2022-05-01T09:31:57.556Z</time>
      </trkpt>
      <trkpt lat="41.07152" lon="20.55964">
        <ele>630.356818</ele>
        <time>2022-05-01T09:31:59.564Z</time>
      </trkpt>
      <trkpt lat="41.07151" lon="20.55945">
        <ele>630.164268</ele>
        <time>2022-05-01T09:32:01.591Z</time>
      </trkpt>
      <trkpt lat="41.0715" lon="20.55927">
        <ele>629.980531</ele>
        <time>2022-05-01T09:32:03.538Z</time>
      </trkpt>
      <trkpt lat="41.07149" lon="20.55909">
        <ele>629.799923</ele>
        <time>2022-05-01T09:32:05.529Z</time>
      </trkpt>
      <trkpt lat="41.07147" lon="20.5589">
        <ele>629.604315</ele>
        <time>2022-05-01T09:32:07.544Z</time>
      </trkpt>
      <trkpt lat="41.07146" lon="20.55872">
        <ele>629.423363</ele>
        <time>2022-05-01T09:32:09.542Z</time>
      </trkpt>
      <trkpt lat="41.07145" lon="20.55855">
        <ele>629.246155</ele>
        <time>2022-05-01T09:32:11.555Z</time>
      </trkpt>
      <trkpt lat="41.07143" lon="20.55837">
        <ele>629.068445</ele>
        <time>2022-05-01T09:32:13.563Z</time>
      </trkpt>
      <trkpt lat="41.07141" lon="20.5582">
        <ele>628.894403</ele>
        <time>2022-05-01T09:32:15.544Z</time>
      </trkpt>
      <trkpt lat="41.0714" lon="20.55804">
        <ele>628.728405</ele>
        <time>2022-05-01T09:32:17.558Z</time>
      </trkpt>
      <trkpt lat="41.07139" lon="20.5579">
        <ele>628.58735</ele>
        <time>2022-05-01T09:32:19.546Z</time>
      </trkpt>
      <trkpt lat="41.07138" lon="20.55774">
        <ele>628.503506</ele>
        <time>2022-05-01T09:32:21.558Z</time>
      </trkpt>
      <trkpt lat="41.07135" lon="20.5576">
        <ele>628.445601</ele>
        <time>2022-05-01T09:32:23.534Z</time>
      </trkpt>
      <trkpt lat="41.07133" lon="20.55745">
        <ele>628.38959</ele>
        <time>2022-05-01T09:32:25.585Z</time>
      </trkpt>
      <trkpt lat="41.0713" lon="20.5573">
        <ele>628.330133</ele>
        <time>2022-05-01T09:32:27.549Z</time>
      </trkpt>
      <trkpt lat="41.07127" lon="20.55716">
        <ele>628.272643</ele>
        <time>2022-05-01T09:32:29.543Z</time>
      </trkpt>
      <trkpt lat="41.07124" lon="20.55702">
        <ele>628.216918</ele>
        <time>2022-05-01T09:32:31.543Z</time>
      </trkpt>
      <trkpt lat="41.07121" lon="20.55688">
        <ele>628.158461</ele>
        <time>2022-05-01T09:32:33.548Z</time>
      </trkpt>
      <trkpt lat="41.07117" lon="20.55674">
        <ele>628.100943</ele>
        <time>2022-05-01T09:32:35.600Z</time>
      </trkpt>
      <trkpt lat="41.07114" lon="20.5566">
        <ele>628.046099</ele>
        <time>2022-05-01T09:32:37.543Z</time>
      </trkpt>
      <trkpt lat="41.07111" lon="20.55646">
        <ele>627.990374</ele>
        <time>2022-05-01T09:32:39.551Z</time>
      </trkpt>
      <trkpt lat="41.07108" lon="20.55633">
        <ele>627.937169</ele>
        <time>2022-05-01T09:32:41.572Z</time>
      </trkpt>
      <trkpt lat="41.07105" lon="20.5562">
        <ele>627.883303</ele>
        <time>2022-05-01T09:32:43.533Z</time>
      </trkpt>
      <trkpt lat="41.07102" lon="20.55604">
        <ele>627.821974</ele>
        <time>2022-05-01T09:32:45.555Z</time>
      </trkpt>
      <trkpt lat="41.07098" lon="20.55587">
        <ele>627.75322</ele>
        <time>2022-05-01T09:32:47.557Z</time>
      </trkpt>
      <trkpt lat="41.07093" lon="20.55569">
        <ele>627.677112</ele>
        <time>2022-05-01T09:32:49.546Z</time>
      </trkpt>
      <trkpt lat="41.07088" lon="20.55547">
        <ele>627.480122</ele>
        <time>2022-05-01T09:32:51.543Z</time>
      </trkpt>
      <trkpt lat="41.07086" lon="20.55535">
        <ele>627.302373</ele>
        <time>2022-05-01T09:32:52.542Z</time>
      </trkpt>
      <trkpt lat="41.07084" lon="20.55523">
        <ele>627.118448</ele>
        <time>2022-05-01T09:32:53.559Z</time>
      </trkpt>
      <trkpt lat="41.07082" lon="20.5551">
        <ele>626.926758</ele>
        <time>2022-05-01T09:32:54.552Z</time>
      </trkpt>
      <trkpt lat="41.0708" lon="20.55497">
        <ele>626.73793</ele>
        <time>2022-05-01T09:32:55.577Z</time>
      </trkpt>
      <trkpt lat="41.07078" lon="20.55484">
        <ele>626.545168</ele>
        <time>2022-05-01T09:32:56.583Z</time>
      </trkpt>
      <trkpt lat="41.07077" lon="20.55471">
        <ele>626.34643</ele>
        <time>2022-05-01T09:32:57.560Z</time>
      </trkpt>
      <trkpt lat="41.07076" lon="20.55457">
        <ele>626.149137</ele>
        <time>2022-05-01T09:32:58.543Z</time>
      </trkpt>
      <trkpt lat="41.07074" lon="20.55444">
        <ele>625.951844</ele>
        <time>2022-05-01T09:32:59.557Z</time>
      </trkpt>
      <trkpt lat="41.07073" lon="20.55431">
        <ele>625.759613</ele>
        <time>2022-05-01T09:33:00.549Z</time>
      </trkpt>
      <trkpt lat="41.07072" lon="20.55418">
        <ele>625.572947</ele>
        <time>2022-05-01T09:33:01.560Z</time>
      </trkpt>
      <trkpt lat="41.07071" lon="20.55406">
        <ele>625.390622</ele>
        <time>2022-05-01T09:33:02.539Z</time>
      </trkpt>
      <trkpt lat="41.0707" lon="20.55394">
        <ele>625.215998</ele>
        <time>2022-05-01T09:33:03.541Z</time>
      </trkpt>
      <trkpt lat="41.07067" lon="20.55372">
        <ele>624.893486</ele>
        <time>2022-05-01T09:33:05.539Z</time>
      </trkpt>
      <trkpt lat="41.07063" lon="20.55352">
        <ele>624.596891</ele>
        <time>2022-05-01T09:33:07.583Z</time>
      </trkpt>
      <trkpt lat="41.07059" lon="20.55333">
        <ele>624.301125</ele>
        <time>2022-05-01T09:33:09.553Z</time>
      </trkpt>
      <trkpt lat="41.07055" lon="20.55313">
        <ele>624.059605</ele>
        <time>2022-05-01T09:33:11.551Z</time>
      </trkpt>
      <trkpt lat="41.07051" lon="20.55295">
        <ele>623.88483</ele>
        <time>2022-05-01T09:33:13.556Z</time>
      </trkpt>
      <trkpt lat="41.07047" lon="20.55275">
        <ele>623.700618</ele>
        <time>2022-05-01T09:33:15.559Z</time>
      </trkpt>
      <trkpt lat="41.07043" lon="20.55254">
        <ele>623.508359</ele>
        <time>2022-05-01T09:33:17.555Z</time>
      </trkpt>
      <trkpt lat="41.07039" lon="20.55234">
        <ele>623.321061</ele>
        <time>2022-05-01T09:33:19.541Z</time>
      </trkpt>
      <trkpt lat="41.07035" lon="20.55214">
        <ele>623.136925</ele>
        <time>2022-05-01T09:33:21.530Z</time>
      </trkpt>
      <trkpt lat="41.07031" lon="20.55195">
        <ele>622.957166</ele>
        <time>2022-05-01T09:33:23.559Z</time>
      </trkpt>
      <trkpt lat="41.07027" lon="20.55176">
        <ele>622.777952</ele>
        <time>2022-05-01T09:33:25.546Z</time>
      </trkpt>
      <trkpt lat="41.07024" lon="20.55158">
        <ele>622.607279</ele>
        <time>2022-05-01T09:33:27.565Z</time>
      </trkpt>
      <trkpt lat="41.0702" lon="20.5514">
        <ele>622.440986</ele>
        <time>2022-05-01T09:33:29.553Z</time>
      </trkpt>
      <trkpt lat="41.07017" lon="20.55122">
        <ele>622.27436</ele>
        <time>2022-05-01T09:33:31.556Z</time>
      </trkpt>
      <trkpt lat="41.07014" lon="20.55104">
        <ele>622.110102</ele>
        <time>2022-05-01T09:33:33.551Z</time>
      </trkpt>
      <trkpt lat="41.07011" lon="20.55088">
        <ele>621.993695</ele>
        <time>2022-05-01T09:33:35.555Z</time>
      </trkpt>
      <trkpt lat="41.07008" lon="20.55071">
        <ele>621.984756</ele>
        <time>2022-05-01T09:33:37.553Z</time>
      </trkpt>
      <trkpt lat="41.07005" lon="20.55056">
        <ele>621.976853</ele>
        <time>2022-05-01T09:33:39.543Z</time>
      </trkpt>
      <trkpt lat="41.07002" lon="20.55042">
        <ele>621.969317</ele>
        <time>2022-05-01T09:33:41.573Z</time>
      </trkpt>
      <trkpt lat="41.06998" lon="20.55029">
        <ele>621.962247</ele>
        <time>2022-05-01T09:33:43.560Z</time>
      </trkpt>
      <trkpt lat="41.06994" lon="20.55013">
        <ele>621.953567</ele>
        <time>2022-05-01T09:33:46.546Z</time>
      </trkpt>
      <trkpt lat="41.0699" lon="20.55001">
        <ele>621.946867</ele>
        <time>2022-05-01T09:33:48.559Z</time>
      </trkpt>
      <trkpt lat="41.06984" lon="20.54989">
        <ele>621.939209</ele>
        <time>2022-05-01T09:33:50.571Z</time>
      </trkpt>
      <trkpt lat="41.06981" lon="20.54976">
        <ele>621.932206</ele>
        <time>2022-05-01T09:33:52.576Z</time>
      </trkpt>
      <trkpt lat="41.06976" lon="20.54964">
        <ele>621.925226</ele>
        <time>2022-05-01T09:33:54.562Z</time>
      </trkpt>
      <trkpt lat="41.06969" lon="20.54948">
        <ele>621.91578</ele>
        <time>2022-05-01T09:33:57.550Z</time>
      </trkpt>
      <trkpt lat="41.06964" lon="20.54935">
        <ele>621.908103</ele>
        <time>2022-05-01T09:33:59.579Z</time>
      </trkpt>
      <trkpt lat="41.06959" lon="20.54922">
        <ele>621.900924</ele>
        <time>2022-05-01T09:34:01.558Z</time>
      </trkpt>
      <trkpt lat="41.06955" lon="20.5491">
        <ele>621.893968</ele>
        <time>2022-05-01T09:34:03.533Z</time>
      </trkpt>
      <trkpt lat="41.06951" lon="20.54897">
        <ele>621.886882</ele>
        <time>2022-05-01T09:34:05.547Z</time>
      </trkpt>
      <trkpt lat="41.06947" lon="20.54884">
        <ele>621.879523</ele>
        <time>2022-05-01T09:34:07.548Z</time>
      </trkpt>
      <trkpt lat="41.06943" lon="20.54872">
        <ele>621.863966</ele>
        <time>2022-05-01T09:34:09.551Z</time>
      </trkpt>
      <trkpt lat="41.06939" lon="20.54859">
        <ele>621.724274</ele>
        <time>2022-05-01T09:34:11.547Z</time>
      </trkpt>
      <trkpt lat="41.06934" lon="20.54847">
        <ele>621.583728</ele>
        <time>2022-05-01T09:34:13.535Z</time>
      </trkpt>
      <trkpt lat="41.06929" lon="20.54834">
        <ele>621.437526</ele>
        <time>2022-05-01T09:34:15.554Z</time>
      </trkpt>
      <trkpt lat="41.06924" lon="20.54821">
        <ele>621.293443</ele>
        <time>2022-05-01T09:34:17.509Z</time>
      </trkpt>
      <trkpt lat="41.06919" lon="20.54808">
        <ele>621.14818</ele>
        <time>2022-05-01T09:34:19.534Z</time>
      </trkpt>
      <trkpt lat="41.06914" lon="20.54795">
        <ele>621.006781</ele>
        <time>2022-05-01T09:34:21.514Z</time>
      </trkpt>
      <trkpt lat="41.06909" lon="20.54784">
        <ele>620.87235</ele>
        <time>2022-05-01T09:34:23.527Z</time>
      </trkpt>
      <trkpt lat="41.06903" lon="20.54773">
        <ele>620.740318</ele>
        <time>2022-05-01T09:34:25.530Z</time>
      </trkpt>
      <trkpt lat="41.06897" lon="20.54762">
        <ele>620.605429</ele>
        <time>2022-05-01T09:34:27.562Z</time>
      </trkpt>
      <trkpt lat="41.06893" lon="20.54751">
        <ele>620.482322</ele>
        <time>2022-05-01T09:34:29.580Z</time>
      </trkpt>
      <trkpt lat="41.06887" lon="20.5474">
        <ele>620.351128</ele>
        <time>2022-05-01T09:34:31.552Z</time>
      </trkpt>
      <trkpt lat="41.06881" lon="20.54728">
        <ele>620.203578</ele>
        <time>2022-05-01T09:34:33.575Z</time>
      </trkpt>
      <trkpt lat="41.06875" lon="20.54715">
        <ele>620.053782</ele>
        <time>2022-05-01T09:34:35.553Z</time>
      </trkpt>
      <trkpt lat="41.0687" lon="20.54702">
        <ele>619.908925</ele>
        <time>2022-05-01T09:34:37.534Z</time>
      </trkpt>
      <trkpt lat="41.06864" lon="20.5469">
        <ele>619.761777</ele>
        <time>2022-05-01T09:34:39.554Z</time>
      </trkpt>
      <trkpt lat="41.06857" lon="20.54678">
        <ele>619.611583</ele>
        <time>2022-05-01T09:34:41.552Z</time>
      </trkpt>
      <trkpt lat="41.06852" lon="20.54665">
        <ele>619.458849</ele>
        <time>2022-05-01T09:34:43.564Z</time>
      </trkpt>
      <trkpt lat="41.06846" lon="20.54653">
        <ele>619.240027</ele>
        <time>2022-05-01T09:34:45.593Z</time>
      </trkpt>
      <trkpt lat="41.06841" lon="20.54641">
        <ele>619.026593</ele>
        <time>2022-05-01T09:34:47.534Z</time>
      </trkpt>
      <trkpt lat="41.06836" lon="20.5463">
        <ele>618.812109</ele>
        <time>2022-05-01T09:34:49.541Z</time>
      </trkpt>
      <trkpt lat="41.0683" lon="20.54618">
        <ele>618.606075</ele>
        <time>2022-05-01T09:34:51.558Z</time>
      </trkpt>
      <trkpt lat="41.06825" lon="20.54606">
        <ele>618.389991</ele>
        <time>2022-05-01T09:34:53.558Z</time>
      </trkpt>
      <trkpt lat="41.06819" lon="20.54594">
        <ele>618.170191</ele>
        <time>2022-05-01T09:34:55.549Z</time>
      </trkpt>
      <trkpt lat="41.06814" lon="20.54582">
        <ele>617.951724</ele>
        <time>2022-05-01T09:34:57.576Z</time>
      </trkpt>
      <trkpt lat="41.06809" lon="20.5457">
        <ele>617.739323</ele>
        <time>2022-05-01T09:34:59.565Z</time>
      </trkpt>
      <trkpt lat="41.06803" lon="20.54558">
        <ele>617.521556</ele>
        <time>2022-05-01T09:35:01.539Z</time>
      </trkpt>
      <trkpt lat="41.06798" lon="20.54546">
        <ele>617.307323</ele>
        <time>2022-05-01T09:35:03.545Z</time>
      </trkpt>
      <trkpt lat="41.06794" lon="20.54534">
        <ele>617.10721</ele>
        <time>2022-05-01T09:35:05.544Z</time>
      </trkpt>
      <trkpt lat="41.06789" lon="20.54522">
        <ele>616.902034</ele>
        <time>2022-05-01T09:35:07.547Z</time>
      </trkpt>
      <trkpt lat="41.06785" lon="20.5451">
        <ele>616.692664</ele>
        <time>2022-05-01T09:35:09.574Z</time>
      </trkpt>
      <trkpt lat="41.0678" lon="20.54497">
        <ele>616.464809</ele>
        <time>2022-05-01T09:35:11.546Z</time>
      </trkpt>
      <trkpt lat="41.06774" lon="20.54484">
        <ele>616.228107</ele>
        <time>2022-05-01T09:35:13.541Z</time>
      </trkpt>
      <trkpt lat="41.06768" lon="20.5447">
        <ele>615.98745</ele>
        <time>2022-05-01T09:35:15.555Z</time>
      </trkpt>
      <trkpt lat="41.06763" lon="20.54457">
        <ele>615.777071</ele>
        <time>2022-05-01T09:35:17.572Z</time>
      </trkpt>
      <trkpt lat="41.06758" lon="20.54443">
        <ele>615.653943</ele>
        <time>2022-05-01T09:35:19.572Z</time>
      </trkpt>
      <trkpt lat="41.06753" lon="20.5443">
        <ele>615.531519</ele>
        <time>2022-05-01T09:35:21.533Z</time>
      </trkpt>
      <trkpt lat="41.06748" lon="20.54416">
        <ele>615.409555</ele>
        <time>2022-05-01T09:35:23.569Z</time>
      </trkpt>
      <trkpt lat="41.06743" lon="20.54402">
        <ele>615.286856</ele>
        <time>2022-05-01T09:35:25.547Z</time>
      </trkpt>
      <trkpt lat="41.06738" lon="20.54388">
        <ele>615.162229</ele>
        <time>2022-05-01T09:35:27.550Z</time>
      </trkpt>
      <trkpt lat="41.06734" lon="20.54374">
        <ele>615.038694</ele>
        <time>2022-05-01T09:35:29.565Z</time>
      </trkpt>
      <trkpt lat="41.06729" lon="20.54361">
        <ele>614.917321</ele>
        <time>2022-05-01T09:35:31.556Z</time>
      </trkpt>
      <trkpt lat="41.06726" lon="20.54347">
        <ele>614.799589</ele>
        <time>2022-05-01T09:35:33.555Z</time>
      </trkpt>
      <trkpt lat="41.06721" lon="20.54332">
        <ele>614.670223</ele>
        <time>2022-05-01T09:35:35.542Z</time>
      </trkpt>
      <trkpt lat="41.06716" lon="20.54318">
        <ele>614.540542</ele>
        <time>2022-05-01T09:35:37.546Z</time>
      </trkpt>
      <trkpt lat="41.06711" lon="20.54304">
        <ele>614.414512</ele>
        <time>2022-05-01T09:35:39.534Z</time>
      </trkpt>
      <trkpt lat="41.06705" lon="20.5429">
        <ele>614.285282</ele>
        <time>2022-05-01T09:35:41.532Z</time>
      </trkpt>
      <trkpt lat="41.067" lon="20.54275">
        <ele>614.154135</ele>
        <time>2022-05-01T09:35:43.550Z</time>
      </trkpt>
      <trkpt lat="41.06695" lon="20.54261">
        <ele>614.02892</ele>
        <time>2022-05-01T09:35:45.552Z</time>
      </trkpt>
      <trkpt lat="41.06691" lon="20.54248">
        <ele>613.908594</ele>
        <time>2022-05-01T09:35:47.549Z</time>
      </trkpt>
      <trkpt lat="41.06687" lon="20.54234">
        <ele>613.859167</ele>
        <time>2022-05-01T09:35:49.546Z</time>
      </trkpt>
      <trkpt lat="41.06683" lon="20.54221">
        <ele>613.846856</ele>
        <time>2022-05-01T09:35:51.561Z</time>
      </trkpt>
      <trkpt lat="41.06679" lon="20.54206">
        <ele>613.833915</ele>
        <time>2022-05-01T09:35:53.549Z</time>
      </trkpt>
      <trkpt lat="41.06675" lon="20.54192">
        <ele>613.820896</ele>
        <time>2022-05-01T09:35:55.586Z</time>
      </trkpt>
      <trkpt lat="41.06671" lon="20.54178">
        <ele>613.808188</ele>
        <time>2022-05-01T09:35:57.569Z</time>
      </trkpt>
      <trkpt lat="41.06667" lon="20.54164">
        <ele>613.795745</ele>
        <time>2022-05-01T09:35:59.537Z</time>
      </trkpt>
      <trkpt lat="41.06664" lon="20.54149">
        <ele>613.783141</ele>
        <time>2022-05-01T09:36:01.559Z</time>
      </trkpt>
      <trkpt lat="41.0666" lon="20.54135">
        <ele>613.770157</ele>
        <time>2022-05-01T09:36:03.546Z</time>
      </trkpt>
      <trkpt lat="41.06657" lon="20.5412">
        <ele>613.757199</ele>
        <time>2022-05-01T09:36:05.543Z</time>
      </trkpt>
      <trkpt lat="41.06654" lon="20.54105">
        <ele>613.744479</ele>
        <time>2022-05-01T09:36:07.549Z</time>
      </trkpt>
      <trkpt lat="41.06651" lon="20.54091">
        <ele>613.731815</ele>
        <time>2022-05-01T09:36:09.546Z</time>
      </trkpt>
      <trkpt lat="41.06649" lon="20.54076">
        <ele>613.718948</ele>
        <time>2022-05-01T09:36:11.528Z</time>
      </trkpt>
      <trkpt lat="41.06646" lon="20.54061">
        <ele>613.706164</ele>
        <time>2022-05-01T09:36:13.544Z</time>
      </trkpt>
      <trkpt lat="41.06644" lon="20.54046">
        <ele>613.693295</ele>
        <time>2022-05-01T09:36:15.566Z</time>
      </trkpt>
      <trkpt lat="41.06642" lon="20.54031">
        <ele>613.680863</ele>
        <time>2022-05-01T09:36:17.534Z</time>
      </trkpt>
      <trkpt lat="41.0664" lon="20.54017">
        <ele>613.668677</ele>
        <time>2022-05-01T09:36:19.538Z</time>
      </trkpt>
      <trkpt lat="41.06638" lon="20.54004">
        <ele>613.680143</ele>
        <time>2022-05-01T09:36:21.551Z</time>
      </trkpt>
      <trkpt lat="41.06635" lon="20.5399">
        <ele>613.698496</ele>
        <time>2022-05-01T09:36:23.591Z</time>
      </trkpt>
      <trkpt lat="41.06632" lon="20.53976">
        <ele>613.717949</ele>
        <time>2022-05-01T09:36:25.558Z</time>
      </trkpt>
      <trkpt lat="41.0663" lon="20.53962">
        <ele>613.737319</ele>
        <time>2022-05-01T09:36:27.546Z</time>
      </trkpt>
      <trkpt lat="41.06627" lon="20.53947">
        <ele>613.756984</ele>
        <time>2022-05-01T09:36:29.553Z</time>
      </trkpt>
      <trkpt lat="41.06624" lon="20.53933">
        <ele>613.776059</ele>
        <time>2022-05-01T09:36:31.640Z</time>
      </trkpt>
      <trkpt lat="41.06622" lon="20.53919">
        <ele>613.795058</ele>
        <time>2022-05-01T09:36:33.559Z</time>
      </trkpt>
      <trkpt lat="41.0662" lon="20.53905">
        <ele>613.813765</ele>
        <time>2022-05-01T09:36:35.537Z</time>
      </trkpt>
      <trkpt lat="41.06618" lon="20.53891">
        <ele>613.832181</ele>
        <time>2022-05-01T09:36:37.543Z</time>
      </trkpt>
      <trkpt lat="41.06616" lon="20.53877">
        <ele>613.850797</ele>
        <time>2022-05-01T09:36:39.547Z</time>
      </trkpt>
      <trkpt lat="41.06613" lon="20.53863">
        <ele>613.86949</ele>
        <time>2022-05-01T09:36:41.550Z</time>
      </trkpt>
      <trkpt lat="41.06611" lon="20.53849">
        <ele>613.888233</ele>
        <time>2022-05-01T09:36:43.541Z</time>
      </trkpt>
      <trkpt lat="41.06609" lon="20.53835">
        <ele>613.906912</ele>
        <time>2022-05-01T09:36:45.568Z</time>
      </trkpt>
      <trkpt lat="41.06607" lon="20.5382">
        <ele>613.926264</ele>
        <time>2022-05-01T09:36:47.557Z</time>
      </trkpt>
      <trkpt lat="41.06605" lon="20.53805">
        <ele>613.946195</ele>
        <time>2022-05-01T09:36:49.532Z</time>
      </trkpt>
      <trkpt lat="41.06603" lon="20.53791">
        <ele>613.965478</ele>
        <time>2022-05-01T09:36:51.543Z</time>
      </trkpt>
      <trkpt lat="41.066" lon="20.53776">
        <ele>613.944661</ele>
        <time>2022-05-01T09:36:53.549Z</time>
      </trkpt>
      <trkpt lat="41.06598" lon="20.53762">
        <ele>613.848922</ele>
        <time>2022-05-01T09:36:55.542Z</time>
      </trkpt>
      <trkpt lat="41.06595" lon="20.53748">
        <ele>613.752752</ele>
        <time>2022-05-01T09:36:57.537Z</time>
      </trkpt>
      <trkpt lat="41.06593" lon="20.53734">
        <ele>613.655408</ele>
        <time>2022-05-01T09:36:59.554Z</time>
      </trkpt>
      <trkpt lat="41.06591" lon="20.53721">
        <ele>613.564773</ele>
        <time>2022-05-01T09:37:01.577Z</time>
      </trkpt>
      <trkpt lat="41.06588" lon="20.53707">
        <ele>613.46946</ele>
        <time>2022-05-01T09:37:03.540Z</time>
      </trkpt>
      <trkpt lat="41.06586" lon="20.53693">
        <ele>613.372288</ele>
        <time>2022-05-01T09:37:05.540Z</time>
      </trkpt>
      <trkpt lat="41.06584" lon="20.53678">
        <ele>613.271777</ele>
        <time>2022-05-01T09:37:07.556Z</time>
      </trkpt>
      <trkpt lat="41.06581" lon="20.53662">
        <ele>613.162019</ele>
        <time>2022-05-01T09:37:09.538Z</time>
      </trkpt>
      <trkpt lat="41.06578" lon="20.53646">
        <ele>613.050962</ele>
        <time>2022-05-01T09:37:11.561Z</time>
      </trkpt>
      <trkpt lat="41.06574" lon="20.53629">
        <ele>612.934941</ele>
        <time>2022-05-01T09:37:13.560Z</time>
      </trkpt>
      <trkpt lat="41.06571" lon="20.53612">
        <ele>612.814999</ele>
        <time>2022-05-01T09:37:15.553Z</time>
      </trkpt>
      <trkpt lat="41.06567" lon="20.53594">
        <ele>612.692003</ele>
        <time>2022-05-01T09:37:17.587Z</time>
      </trkpt>
      <trkpt lat="41.06563" lon="20.53577">
        <ele>612.573175</ele>
        <time>2022-05-01T09:37:19.552Z</time>
      </trkpt>
      <trkpt lat="41.0656" lon="20.53559">
        <ele>612.448735</ele>
        <time>2022-05-01T09:37:21.556Z</time>
      </trkpt>
      <trkpt lat="41.06555" lon="20.53541">
        <ele>612.260507</ele>
        <time>2022-05-01T09:37:23.595Z</time>
      </trkpt>
      <trkpt lat="41.0655" lon="20.53523">
        <ele>612.011391</ele>
        <time>2022-05-01T09:37:25.537Z</time>
      </trkpt>
      <trkpt lat="41.06545" lon="20.53506">
        <ele>611.761643</ele>
        <time>2022-05-01T09:37:27.548Z</time>
      </trkpt>
      <trkpt lat="41.0654" lon="20.53489">
        <ele>611.51398</ele>
        <time>2022-05-01T09:37:29.544Z</time>
      </trkpt>
      <trkpt lat="41.06534" lon="20.53472">
        <ele>611.275048</ele>
        <time>2022-05-01T09:37:31.553Z</time>
      </trkpt>
      <trkpt lat="41.06528" lon="20.53457">
        <ele>611.046681</ele>
        <time>2022-05-01T09:37:33.535Z</time>
      </trkpt>
      <trkpt lat="41.06523" lon="20.53442">
        <ele>610.822281</ele>
        <time>2022-05-01T09:37:35.535Z</time>
      </trkpt>
      <trkpt lat="41.06517" lon="20.53428">
        <ele>610.612556</ele>
        <time>2022-05-01T09:37:37.567Z</time>
      </trkpt>
      <trkpt lat="41.06512" lon="20.53415">
        <ele>610.414309</ele>
        <time>2022-05-01T09:37:39.559Z</time>
      </trkpt>
      <trkpt lat="41.06506" lon="20.53401">
        <ele>610.198419</ele>
        <time>2022-05-01T09:37:41.552Z</time>
      </trkpt>
      <trkpt lat="41.06501" lon="20.53388">
        <ele>610.008512</ele>
        <time>2022-05-01T09:37:43.560Z</time>
      </trkpt>
      <trkpt lat="41.06496" lon="20.53376">
        <ele>609.825329</ele>
        <time>2022-05-01T09:37:45.593Z</time>
      </trkpt>
      <trkpt lat="41.06492" lon="20.53363">
        <ele>609.638968</ele>
        <time>2022-05-01T09:37:47.549Z</time>
      </trkpt>
      <trkpt lat="41.06487" lon="20.53351">
        <ele>609.456964</ele>
        <time>2022-05-01T09:37:49.543Z</time>
      </trkpt>
      <trkpt lat="41.06481" lon="20.53339">
        <ele>609.269792</ele>
        <time>2022-05-01T09:37:51.570Z</time>
      </trkpt>
      <trkpt lat="41.06476" lon="20.53327">
        <ele>609.228175</ele>
        <time>2022-05-01T09:37:53.545Z</time>
      </trkpt>
      <trkpt lat="41.06471" lon="20.53315">
        <ele>609.252747</ele>
        <time>2022-05-01T09:37:55.527Z</time>
      </trkpt>
      <trkpt lat="41.06466" lon="20.53304">
        <ele>609.275771</ele>
        <time>2022-05-01T09:37:57.525Z</time>
      </trkpt>
      <trkpt lat="41.06461" lon="20.53291">
        <ele>609.299704</ele>
        <time>2022-05-01T09:37:59.551Z</time>
      </trkpt>
      <trkpt lat="41.06456" lon="20.53279">
        <ele>609.324209</ele>
        <time>2022-05-01T09:38:01.547Z</time>
      </trkpt>
      <trkpt lat="41.06451" lon="20.53267">
        <ele>609.347988</ele>
        <time>2022-05-01T09:38:03.549Z</time>
      </trkpt>
      <trkpt lat="41.06448" lon="20.53255">
        <ele>609.370701</ele>
        <time>2022-05-01T09:38:05.556Z</time>
      </trkpt>
      <trkpt lat="41.06443" lon="20.53243">
        <ele>609.394994</ele>
        <time>2022-05-01T09:38:07.555Z</time>
      </trkpt>
      <trkpt lat="41.06437" lon="20.53229">
        <ele>609.42166</ele>
        <time>2022-05-01T09:38:09.555Z</time>
      </trkpt>
      <trkpt lat="41.06432" lon="20.53216">
        <ele>609.448256</ele>
        <time>2022-05-01T09:38:11.546Z</time>
      </trkpt>
      <trkpt lat="41.06427" lon="20.53203">
        <ele>609.473664</ele>
        <time>2022-05-01T09:38:13.550Z</time>
      </trkpt>
      <trkpt lat="41.06421" lon="20.5319">
        <ele>609.499534</ele>
        <time>2022-05-01T09:38:15.536Z</time>
      </trkpt>
      <trkpt lat="41.06416" lon="20.53177">
        <ele>609.525515</ele>
        <time>2022-05-01T09:38:17.552Z</time>
      </trkpt>
      <trkpt lat="41.06411" lon="20.53165">
        <ele>609.549894</ele>
        <time>2022-05-01T09:38:19.584Z</time>
      </trkpt>
      <trkpt lat="41.06405" lon="20.53152">
        <ele>609.575835</ele>
        <time>2022-05-01T09:38:21.546Z</time>
      </trkpt>
      <trkpt lat="41.06399" lon="20.5314">
        <ele>609.601752</ele>
        <time>2022-05-01T09:38:23.550Z</time>
      </trkpt>
      <trkpt lat="41.06394" lon="20.53127">
        <ele>609.62793</ele>
        <time>2022-05-01T09:38:25.547Z</time>
      </trkpt>
      <trkpt lat="41.06389" lon="20.53114">
        <ele>609.458407</ele>
        <time>2022-05-01T09:38:27.548Z</time>
      </trkpt>
      <trkpt lat="41.06382" lon="20.531">
        <ele>609.261337</ele>
        <time>2022-05-01T09:38:29.549Z</time>
      </trkpt>
      <trkpt lat="41.06375" lon="20.53086">
        <ele>609.052765</ele>
        <time>2022-05-01T09:38:31.568Z</time>
      </trkpt>
      <trkpt lat="41.0637" lon="20.5307">
        <ele>608.839948</ele>
        <time>2022-05-01T09:38:33.540Z</time>
      </trkpt>
      <trkpt lat="41.06364" lon="20.53054">
        <ele>608.626709</ele>
        <time>2022-05-01T09:38:35.544Z</time>
      </trkpt>
      <trkpt lat="41.06358" lon="20.53039">
        <ele>608.416136</ele>
        <time>2022-05-01T09:38:37.544Z</time>
      </trkpt>
      <trkpt lat="41.06353" lon="20.53024">
        <ele>608.212137</ele>
        <time>2022-05-01T09:38:39.550Z</time>
      </trkpt>
      <trkpt lat="41.06347" lon="20.5301">
        <ele>608.01347</ele>
        <time>2022-05-01T09:38:41.546Z</time>
      </trkpt>
      <trkpt lat="41.06341" lon="20.52996">
        <ele>607.818806</ele>
        <time>2022-05-01T09:38:43.554Z</time>
      </trkpt>
      <trkpt lat="41.06336" lon="20.52982">
        <ele>607.624969</ele>
        <time>2022-05-01T09:38:45.549Z</time>
      </trkpt>
      <trkpt lat="41.06331" lon="20.52967">
        <ele>607.431573</ele>
        <time>2022-05-01T09:38:47.539Z</time>
      </trkpt>
      <trkpt lat="41.06327" lon="20.52952">
        <ele>607.234937</ele>
        <time>2022-05-01T09:38:49.559Z</time>
      </trkpt>
      <trkpt lat="41.06323" lon="20.52937">
        <ele>607.039022</ele>
        <time>2022-05-01T09:38:51.550Z</time>
      </trkpt>
      <trkpt lat="41.0632" lon="20.52922">
        <ele>606.84726</ele>
        <time>2022-05-01T09:38:53.580Z</time>
      </trkpt>
      <trkpt lat="41.06318" lon="20.52906">
        <ele>606.618522</ele>
        <time>2022-05-01T09:38:55.559Z</time>
      </trkpt>
      <trkpt lat="41.06316" lon="20.52889">
        <ele>606.333467</ele>
        <time>2022-05-01T09:38:57.548Z</time>
      </trkpt>
      <trkpt lat="41.06313" lon="20.52873">
        <ele>606.047108</ele>
        <time>2022-05-01T09:38:59.535Z</time>
      </trkpt>
      <trkpt lat="41.06313" lon="20.52856">
        <ele>605.762483</ele>
        <time>2022-05-01T09:39:01.551Z</time>
      </trkpt>
      <trkpt lat="41.06312" lon="20.52839">
        <ele>605.466175</ele>
        <time>2022-05-01T09:39:03.550Z</time>
      </trkpt>
      <trkpt lat="41.06312" lon="20.52822">
        <ele>605.17353</ele>
        <time>2022-05-01T09:39:05.552Z</time>
      </trkpt>
      <trkpt lat="41.06313" lon="20.52805">
        <ele>604.875502</ele>
        <time>2022-05-01T09:39:07.566Z</time>
      </trkpt>
      <trkpt lat="41.06314" lon="20.52787">
        <ele>604.572558</ele>
        <time>2022-05-01T09:39:09.582Z</time>
      </trkpt>
      <trkpt lat="41.06316" lon="20.52769">
        <ele>604.249791</ele>
        <time>2022-05-01T09:39:11.554Z</time>
      </trkpt>
      <trkpt lat="41.06319" lon="20.5275">
        <ele>603.916529</ele>
        <time>2022-05-01T09:39:13.536Z</time>
      </trkpt>
      <trkpt lat="41.06323" lon="20.5273">
        <ele>603.560913</ele>
        <time>2022-05-01T09:39:15.536Z</time>
      </trkpt>
      <trkpt lat="41.06328" lon="20.5271">
        <ele>603.189476</ele>
        <time>2022-05-01T09:39:17.565Z</time>
      </trkpt>
      <trkpt lat="41.06335" lon="20.52689">
        <ele>602.810847</ele>
        <time>2022-05-01T09:39:19.546Z</time>
      </trkpt>
      <trkpt lat="41.06342" lon="20.52669">
        <ele>602.454682</ele>
        <time>2022-05-01T09:39:21.553Z</time>
      </trkpt>
      <trkpt lat="41.06349" lon="20.52649">
        <ele>602.129018</ele>
        <time>2022-05-01T09:39:23.551Z</time>
      </trkpt>
      <trkpt lat="41.06358" lon="20.52629">
        <ele>601.801201</ele>
        <time>2022-05-01T09:39:25.601Z</time>
      </trkpt>
      <trkpt lat="41.06367" lon="20.52609">
        <ele>601.470241</ele>
        <time>2022-05-01T09:39:27.565Z</time>
      </trkpt>
      <trkpt lat="41.06377" lon="20.5259">
        <ele>601.133596</ele>
        <time>2022-05-01T09:39:29.551Z</time>
      </trkpt>
      <trkpt lat="41.06386" lon="20.5257">
        <ele>600.796112</ele>
        <time>2022-05-01T09:39:31.536Z</time>
      </trkpt>
      <trkpt lat="41.06395" lon="20.5255">
        <ele>600.464937</ele>
        <time>2022-05-01T09:39:33.546Z</time>
      </trkpt>
      <trkpt lat="41.06404" lon="20.52531">
        <ele>600.140428</ele>
        <time>2022-05-01T09:39:35.542Z</time>
      </trkpt>
      <trkpt lat="41.06413" lon="20.52512">
        <ele>599.820353</ele>
        <time>2022-05-01T09:39:37.546Z</time>
      </trkpt>
      <trkpt lat="41.06421" lon="20.52493">
        <ele>599.508506</ele>
        <time>2022-05-01T09:39:39.540Z</time>
      </trkpt>
      <trkpt lat="41.06428" lon="20.52475">
        <ele>599.220412</ele>
        <time>2022-05-01T09:39:41.554Z</time>
      </trkpt>
      <trkpt lat="41.06435" lon="20.52457">
        <ele>598.813322</ele>
        <time>2022-05-01T09:39:43.540Z</time>
      </trkpt>
      <trkpt lat="41.06442" lon="20.52438">
        <ele>598.369186</ele>
        <time>2022-05-01T09:39:45.557Z</time>
      </trkpt>
      <trkpt lat="41.06448" lon="20.52418">
        <ele>597.933953</ele>
        <time>2022-05-01T09:39:47.537Z</time>
      </trkpt>
      <trkpt lat="41.06453" lon="20.52399">
        <ele>597.503801</ele>
        <time>2022-05-01T09:39:49.538Z</time>
      </trkpt>
      <trkpt lat="41.06458" lon="20.5238">
        <ele>597.071527</ele>
        <time>2022-05-01T09:39:51.545Z</time>
      </trkpt>
      <trkpt lat="41.06464" lon="20.5236">
        <ele>596.643326</ele>
        <time>2022-05-01T09:39:53.539Z</time>
      </trkpt>
      <trkpt lat="41.06469" lon="20.52341">
        <ele>596.214134</ele>
        <time>2022-05-01T09:39:55.547Z</time>
      </trkpt>
      <trkpt lat="41.06475" lon="20.52322">
        <ele>595.79362</ele>
        <time>2022-05-01T09:39:57.558Z</time>
      </trkpt>
      <trkpt lat="41.06481" lon="20.52304">
        <ele>595.379941</ele>
        <time>2022-05-01T09:39:59.550Z</time>
      </trkpt>
      <trkpt lat="41.06487" lon="20.52287">
        <ele>594.979148</ele>
        <time>2022-05-01T09:40:01.549Z</time>
      </trkpt>
      <trkpt lat="41.06494" lon="20.5227">
        <ele>594.577149</ele>
        <time>2022-05-01T09:40:03.559Z</time>
      </trkpt>
      <trkpt lat="41.06501" lon="20.52253">
        <ele>594.187083</ele>
        <time>2022-05-01T09:40:05.589Z</time>
      </trkpt>
      <trkpt lat="41.06509" lon="20.52239">
        <ele>594.060032</ele>
        <time>2022-05-01T09:40:07.555Z</time>
      </trkpt>
      <trkpt lat="41.06518" lon="20.52225">
        <ele>593.93297</ele>
        <time>2022-05-01T09:40:09.540Z</time>
      </trkpt>
      <trkpt lat="41.06526" lon="20.52212">
        <ele>593.811576</ele>
        <time>2022-05-01T09:40:11.536Z</time>
      </trkpt>
      <trkpt lat="41.06533" lon="20.52199">
        <ele>593.697039</ele>
        <time>2022-05-01T09:40:13.547Z</time>
      </trkpt>
      <trkpt lat="41.06541" lon="20.52188">
        <ele>593.589741</ele>
        <time>2022-05-01T09:40:15.548Z</time>
      </trkpt>
      <trkpt lat="41.06548" lon="20.52176">
        <ele>593.481824</ele>
        <time>2022-05-01T09:40:17.551Z</time>
      </trkpt>
      <trkpt lat="41.06556" lon="20.52165">
        <ele>593.373283</ele>
        <time>2022-05-01T09:40:19.542Z</time>
      </trkpt>
      <trkpt lat="41.06563" lon="20.52153">
        <ele>593.265562</ele>
        <time>2022-05-01T09:40:21.578Z</time>
      </trkpt>
      <trkpt lat="41.06569" lon="20.52141">
        <ele>593.16174</ele>
        <time>2022-05-01T09:40:23.540Z</time>
      </trkpt>
      <trkpt lat="41.06575" lon="20.52129">
        <ele>593.059863</ele>
        <time>2022-05-01T09:40:25.564Z</time>
      </trkpt>
      <trkpt lat="41.06579" lon="20.52117">
        <ele>592.963207</ele>
        <time>2022-05-01T09:40:27.560Z</time>
      </trkpt>
      <trkpt lat="41.06583" lon="20.52104">
        <ele>592.866759</ele>
        <time>2022-05-01T09:40:29.540Z</time>
      </trkpt>
      <trkpt lat="41.06586" lon="20.52091">
        <ele>592.767265</ele>
        <time>2022-05-01T09:40:31.545Z</time>
      </trkpt>
      <trkpt lat="41.06589" lon="20.52077">
        <ele>592.666607</ele>
        <time>2022-05-01T09:40:33.541Z</time>
      </trkpt>
      <trkpt lat="41.06593" lon="20.52064">
        <ele>592.566738</ele>
        <time>2022-05-01T09:40:35.554Z</time>
      </trkpt>
      <trkpt lat="41.06596" lon="20.52051">
        <ele>592.520684</ele>
        <time>2022-05-01T09:40:37.547Z</time>
      </trkpt>
      <trkpt lat="41.06599" lon="20.52038">
        <ele>592.631942</ele>
        <time>2022-05-01T09:40:39.545Z</time>
      </trkpt>
      <trkpt lat="41.06603" lon="20.52024">
        <ele>592.744557</ele>
        <time>2022-05-01T09:40:41.562Z</time>
      </trkpt>
      <trkpt lat="41.06607" lon="20.52012">
        <ele>592.855942</ele>
        <time>2022-05-01T09:40:43.548Z</time>
      </trkpt>
      <trkpt lat="41.06612" lon="20.52001">
        <ele>592.957499</ele>
        <time>2022-05-01T09:40:45.543Z</time>
      </trkpt>
      <trkpt lat="41.06619" lon="20.51991">
        <ele>593.05703</ele>
        <time>2022-05-01T09:40:47.533Z</time>
      </trkpt>
      <trkpt lat="41.06628" lon="20.5198">
        <ele>593.196935</ele>
        <time>2022-05-01T09:40:50.546Z</time>
      </trkpt>
      <trkpt lat="41.06638" lon="20.51967">
        <ele>593.340317</ele>
        <time>2022-05-01T09:40:53.548Z</time>
      </trkpt>
      <trkpt lat="41.06645" lon="20.5196">
        <ele>593.435631</ele>
        <time>2022-05-01T09:40:55.587Z</time>
      </trkpt>
      <trkpt lat="41.06653" lon="20.51952">
        <ele>593.535881</ele>
        <time>2022-05-01T09:40:57.536Z</time>
      </trkpt>
      <trkpt lat="41.0666" lon="20.51944">
        <ele>593.637805</ele>
        <time>2022-05-01T09:40:59.558Z</time>
      </trkpt>
      <trkpt lat="41.06667" lon="20.51935">
        <ele>593.741294</ele>
        <time>2022-05-01T09:41:01.534Z</time>
      </trkpt>
      <trkpt lat="41.06674" lon="20.51926">
        <ele>593.84006</ele>
        <time>2022-05-01T09:41:03.550Z</time>
      </trkpt>
      <trkpt lat="41.06681" lon="20.51917">
        <ele>593.940289</ele>
        <time>2022-05-01T09:41:05.582Z</time>
      </trkpt>
      <trkpt lat="41.06687" lon="20.51908">
        <ele>594.03982</ele>
        <time>2022-05-01T09:41:07.530Z</time>
      </trkpt>
      <trkpt lat="41.06695" lon="20.51894">
        <ele>594.177301</ele>
        <time>2022-05-01T09:41:10.554Z</time>
      </trkpt>
      <trkpt lat="41.06698" lon="20.51882">
        <ele>594.281024</ele>
        <time>2022-05-01T09:41:12.557Z</time>
      </trkpt>
      <trkpt lat="41.06701" lon="20.5187">
        <ele>594.384377</ele>
        <time>2022-05-01T09:41:14.555Z</time>
      </trkpt>
      <trkpt lat="41.06704" lon="20.51857">
        <ele>594.490449</ele>
        <time>2022-05-01T09:41:16.543Z</time>
      </trkpt>
      <trkpt lat="41.06704" lon="20.51845">
        <ele>594.599438</ele>
        <time>2022-05-01T09:41:18.539Z</time>
      </trkpt>
      <trkpt lat="41.06704" lon="20.51832">
        <ele>594.709268</ele>
        <time>2022-05-01T09:41:20.547Z</time>
      </trkpt>
      <trkpt lat="41.06702" lon="20.51819">
        <ele>594.819699</ele>
        <time>2022-05-01T09:41:22.562Z</time>
      </trkpt>
      <trkpt lat="41.06699" lon="20.51806">
        <ele>594.931486</ele>
        <time>2022-05-01T09:41:24.550Z</time>
      </trkpt>
      <trkpt lat="41.06696" lon="20.51793">
        <ele>595.043544</ele>
        <time>2022-05-01T09:41:26.559Z</time>
      </trkpt>
      <trkpt lat="41.06692" lon="20.51781">
        <ele>595.157571</ele>
        <time>2022-05-01T09:41:28.543Z</time>
      </trkpt>
      <trkpt lat="41.06688" lon="20.51768">
        <ele>595.27763</ele>
        <time>2022-05-01T09:41:30.547Z</time>
      </trkpt>
      <trkpt lat="41.06684" lon="20.51755">
        <ele>595.394829</ele>
        <time>2022-05-01T09:41:32.559Z</time>
      </trkpt>
      <trkpt lat="41.0668" lon="20.51741">
        <ele>595.520363</ele>
        <time>2022-05-01T09:41:34.551Z</time>
      </trkpt>
      <trkpt lat="41.06676" lon="20.51726">
        <ele>595.652591</ele>
        <time>2022-05-01T09:41:36.539Z</time>
      </trkpt>
      <trkpt lat="41.06672" lon="20.5171">
        <ele>595.794243</ele>
        <time>2022-05-01T09:41:38.553Z</time>
      </trkpt>
      <trkpt lat="41.06669" lon="20.51693">
        <ele>595.946098</ele>
        <time>2022-05-01T09:41:40.592Z</time>
      </trkpt>
      <trkpt lat="41.06668" lon="20.51674">
        <ele>596.103727</ele>
        <time>2022-05-01T09:41:42.559Z</time>
      </trkpt>
      <trkpt lat="41.0667" lon="20.51656">
        <ele>596.256849</ele>
        <time>2022-05-01T09:41:44.554Z</time>
      </trkpt>
      <trkpt lat="41.06675" lon="20.51639">
        <ele>596.400894</ele>
        <time>2022-05-01T09:41:46.547Z</time>
      </trkpt>
      <trkpt lat="41.06683" lon="20.51623">
        <ele>596.339142</ele>
        <time>2022-05-01T09:41:48.546Z</time>
      </trkpt>
      <trkpt lat="41.06692" lon="20.51608">
        <ele>596.276827</ele>
        <time>2022-05-01T09:41:50.548Z</time>
      </trkpt>
      <trkpt lat="41.06702" lon="20.51595">
        <ele>596.217622</ele>
        <time>2022-05-01T09:41:52.563Z</time>
      </trkpt>
      <trkpt lat="41.06713" lon="20.51585">
        <ele>596.158235</ele>
        <time>2022-05-01T09:41:54.542Z</time>
      </trkpt>
      <trkpt lat="41.06725" lon="20.51576">
        <ele>596.096948</ele>
        <time>2022-05-01T09:41:56.529Z</time>
      </trkpt>
      <trkpt lat="41.06738" lon="20.51566">
        <ele>596.034909</ele>
        <time>2022-05-01T09:41:58.559Z</time>
      </trkpt>
      <trkpt lat="41.0675" lon="20.51557">
        <ele>595.970975</ele>
        <time>2022-05-01T09:42:00.557Z</time>
      </trkpt>
      <trkpt lat="41.06763" lon="20.51548">
        <ele>595.907509</ele>
        <time>2022-05-01T09:42:02.585Z</time>
      </trkpt>
      <trkpt lat="41.06776" lon="20.51538">
        <ele>595.843796</ele>
        <time>2022-05-01T09:42:04.551Z</time>
      </trkpt>
      <trkpt lat="41.06789" lon="20.51529">
        <ele>595.782553</ele>
        <time>2022-05-01T09:42:06.544Z</time>
      </trkpt>
      <trkpt lat="41.06801" lon="20.5152">
        <ele>595.719975</ele>
        <time>2022-05-01T09:42:08.581Z</time>
      </trkpt>
      <trkpt lat="41.06813" lon="20.5151">
        <ele>595.657276</ele>
        <time>2022-05-01T09:42:10.538Z</time>
      </trkpt>
      <trkpt lat="41.06826" lon="20.515">
        <ele>595.606828</ele>
        <time>2022-05-01T09:42:12.542Z</time>
      </trkpt>
      <trkpt lat="41.06839" lon="20.5149">
        <ele>595.569842</ele>
        <time>2022-05-01T09:42:14.535Z</time>
      </trkpt>
      <trkpt lat="41.06852" lon="20.51481">
        <ele>595.533936</ele>
        <time>2022-05-01T09:42:16.537Z</time>
      </trkpt>
      <trkpt lat="41.06865" lon="20.51472">
        <ele>595.498719</ele>
        <time>2022-05-01T09:42:18.578Z</time>
      </trkpt>
      <trkpt lat="41.06878" lon="20.51463">
        <ele>595.462598</ele>
        <time>2022-05-01T09:42:20.545Z</time>
      </trkpt>
      <trkpt lat="41.06891" lon="20.51454">
        <ele>595.426563</ele>
        <time>2022-05-01T09:42:22.550Z</time>
      </trkpt>
      <trkpt lat="41.06905" lon="20.51444">
        <ele>595.387988</ele>
        <time>2022-05-01T09:42:24.554Z</time>
      </trkpt>
      <trkpt lat="41.0692" lon="20.51434">
        <ele>595.348897</ele>
        <time>2022-05-01T09:42:26.562Z</time>
      </trkpt>
      <trkpt lat="41.06934" lon="20.51425">
        <ele>595.309706</ele>
        <time>2022-05-01T09:42:28.544Z</time>
      </trkpt>
      <trkpt lat="41.06948" lon="20.51416">
        <ele>595.272204</ele>
        <time>2022-05-01T09:42:30.579Z</time>
      </trkpt>
      <trkpt lat="41.06962" lon="20.51407">
        <ele>595.234613</ele>
        <time>2022-05-01T09:42:32.539Z</time>
      </trkpt>
      <trkpt lat="41.06976" lon="20.51399">
        <ele>595.196345</ele>
        <time>2022-05-01T09:42:34.546Z</time>
      </trkpt>
      <trkpt lat="41.06991" lon="20.51393">
        <ele>595.033003</ele>
        <time>2022-05-01T09:42:36.537Z</time>
      </trkpt>
      <trkpt lat="41.07007" lon="20.51387">
        <ele>594.819115</ele>
        <time>2022-05-01T09:42:38.544Z</time>
      </trkpt>
      <trkpt lat="41.07022" lon="20.51382">
        <ele>594.603038</ele>
        <time>2022-05-01T09:42:40.550Z</time>
      </trkpt>
      <trkpt lat="41.07038" lon="20.51378">
        <ele>594.388038</ele>
        <time>2022-05-01T09:42:42.555Z</time>
      </trkpt>
      <trkpt lat="41.07054" lon="20.51373">
        <ele>594.171521</ele>
        <time>2022-05-01T09:42:44.545Z</time>
      </trkpt>
      <trkpt lat="41.0707" lon="20.51368">
        <ele>593.948555</ele>
        <time>2022-05-01T09:42:46.540Z</time>
      </trkpt>
      <trkpt lat="41.07086" lon="20.51362">
        <ele>593.72299</ele>
        <time>2022-05-01T09:42:48.559Z</time>
      </trkpt>
      <trkpt lat="41.07102" lon="20.51356">
        <ele>593.498215</ele>
        <time>2022-05-01T09:42:50.570Z</time>
      </trkpt>
      <trkpt lat="41.07118" lon="20.51349">
        <ele>593.274811</ele>
        <time>2022-05-01T09:42:52.566Z</time>
      </trkpt>
      <trkpt lat="41.07131" lon="20.51339">
        <ele>593.076923</ele>
        <time>2022-05-01T09:42:54.538Z</time>
      </trkpt>
      <trkpt lat="41.07141" lon="20.51325">
        <ele>592.878975</ele>
        <time>2022-05-01T09:42:56.536Z</time>
      </trkpt>
      <trkpt lat="41.07148" lon="20.51308">
        <ele>592.473278</ele>
        <time>2022-05-01T09:42:58.595Z</time>
      </trkpt>
      <trkpt lat="41.07156" lon="20.51291">
        <ele>591.801104</ele>
        <time>2022-05-01T09:43:00.561Z</time>
      </trkpt>
      <trkpt lat="41.07166" lon="20.51275">
        <ele>591.125689</ele>
        <time>2022-05-01T09:43:02.537Z</time>
      </trkpt>
      <trkpt lat="41.07177" lon="20.51262">
        <ele>590.446576</ele>
        <time>2022-05-01T09:43:04.574Z</time>
      </trkpt>
      <trkpt lat="41.07192" lon="20.51253">
        <ele>589.739734</ele>
        <time>2022-05-01T09:43:06.537Z</time>
      </trkpt>
      <trkpt lat="41.07209" lon="20.51248">
        <ele>588.990993</ele>
        <time>2022-05-01T09:43:08.576Z</time>
      </trkpt>
      <trkpt lat="41.07226" lon="20.51244">
        <ele>588.233663</ele>
        <time>2022-05-01T09:43:10.553Z</time>
      </trkpt>
      <trkpt lat="41.0724" lon="20.51239">
        <ele>587.577329</ele>
        <time>2022-05-01T09:43:12.538Z</time>
      </trkpt>
      <trkpt lat="41.07253" lon="20.51236">
        <ele>587.011155</ele>
        <time>2022-05-01T09:43:14.566Z</time>
      </trkpt>
      <trkpt lat="41.07264" lon="20.51232">
        <ele>586.485942</ele>
        <time>2022-05-01T09:43:16.549Z</time>
      </trkpt>
      <trkpt lat="41.07278" lon="20.51228">
        <ele>585.8558</ele>
        <time>2022-05-01T09:43:18.551Z</time>
      </trkpt>
      <trkpt lat="41.07292" lon="20.5122">
        <ele>585.205548</ele>
        <time>2022-05-01T09:43:20.579Z</time>
      </trkpt>
      <trkpt lat="41.07304" lon="20.51211">
        <ele>584.506462</ele>
        <time>2022-05-01T09:43:22.561Z</time>
      </trkpt>
      <trkpt lat="41.07316" lon="20.51199">
        <ele>583.774708</ele>
        <time>2022-05-01T09:43:24.549Z</time>
      </trkpt>
      <trkpt lat="41.07325" lon="20.51187">
        <ele>583.067971</ele>
        <time>2022-05-01T09:43:26.595Z</time>
      </trkpt>
      <trkpt lat="41.07333" lon="20.51173">
        <ele>582.383915</ele>
        <time>2022-05-01T09:43:28.565Z</time>
      </trkpt>
      <trkpt lat="41.07339" lon="20.51157">
        <ele>581.679083</ele>
        <time>2022-05-01T09:43:30.564Z</time>
      </trkpt>
      <trkpt lat="41.07344" lon="20.51141">
        <ele>581.015369</ele>
        <time>2022-05-01T09:43:32.535Z</time>
      </trkpt>
      <trkpt lat="41.07347" lon="20.51125">
        <ele>580.36366</ele>
        <time>2022-05-01T09:43:34.545Z</time>
      </trkpt>
      <trkpt lat="41.07349" lon="20.5111">
        <ele>579.75515</ele>
        <time>2022-05-01T09:43:36.543Z</time>
      </trkpt>
      <trkpt lat="41.07347" lon="20.51094">
        <ele>579.138395</ele>
        <time>2022-05-01T09:43:38.561Z</time>
      </trkpt>
      <trkpt lat="41.07344" lon="20.51078">
        <ele>578.489775</ele>
        <time>2022-05-01T09:43:40.544Z</time>
      </trkpt>
      <trkpt lat="41.07337" lon="20.51062">
        <ele>577.738908</ele>
        <time>2022-05-01T09:43:42.582Z</time>
      </trkpt>
      <trkpt lat="41.07325" lon="20.51046">
        <ele>576.887107</ele>
        <time>2022-05-01T09:43:44.551Z</time>
      </trkpt>
      <trkpt lat="41.07318" lon="20.51039">
        <ele>576.403382</ele>
        <time>2022-05-01T09:43:45.544Z</time>
      </trkpt>
      <trkpt lat="41.07311" lon="20.51031">
        <ele>575.90417</ele>
        <time>2022-05-01T09:43:46.553Z</time>
      </trkpt>
      <trkpt lat="41.07304" lon="20.51022">
        <ele>575.41271</ele>
        <time>2022-05-01T09:43:47.545Z</time>
      </trkpt>
      <trkpt lat="41.07298" lon="20.51011">
        <ele>574.934511</ele>
        <time>2022-05-01T09:43:48.604Z</time>
      </trkpt>
      <trkpt lat="41.07294" lon="20.50999">
        <ele>574.43296</ele>
        <time>2022-05-01T09:43:49.551Z</time>
      </trkpt>
      <trkpt lat="41.07292" lon="20.50985">
        <ele>573.899076</ele>
        <time>2022-05-01T09:43:50.544Z</time>
      </trkpt>
      <trkpt lat="41.07293" lon="20.50969">
        <ele>573.329839</ele>
        <time>2022-05-01T09:43:51.539Z</time>
      </trkpt>
      <trkpt lat="41.07293" lon="20.50954">
        <ele>572.7774</ele>
        <time>2022-05-01T09:43:52.541Z</time>
      </trkpt>
      <trkpt lat="41.07296" lon="20.50939">
        <ele>572.211041</ele>
        <time>2022-05-01T09:43:53.552Z</time>
      </trkpt>
      <trkpt lat="41.07298" lon="20.50926">
        <ele>571.713936</ele>
        <time>2022-05-01T09:43:54.558Z</time>
      </trkpt>
      <trkpt lat="41.07301" lon="20.50915">
        <ele>571.261722</ele>
        <time>2022-05-01T09:43:55.570Z</time>
      </trkpt>
      <trkpt lat="41.07308" lon="20.50895">
        <ele>570.457599</ele>
        <time>2022-05-01T09:43:57.552Z</time>
      </trkpt>
      <trkpt lat="41.07316" lon="20.50878">
        <ele>569.713816</ele>
        <time>2022-05-01T09:43:59.591Z</time>
      </trkpt>
      <trkpt lat="41.07324" lon="20.5086">
        <ele>568.943437</ele>
        <time>2022-05-01T09:44:01.535Z</time>
      </trkpt>
      <trkpt lat="41.07334" lon="20.50841">
        <ele>568.092309</ele>
        <time>2022-05-01T09:44:03.535Z</time>
      </trkpt>
      <trkpt lat="41.07343" lon="20.50821">
        <ele>567.225794</ele>
        <time>2022-05-01T09:44:05.549Z</time>
      </trkpt>
      <trkpt lat="41.07349" lon="20.50799">
        <ele>566.412062</ele>
        <time>2022-05-01T09:44:07.552Z</time>
      </trkpt>
      <trkpt lat="41.07352" lon="20.50776">
        <ele>565.660668</ele>
        <time>2022-05-01T09:44:09.549Z</time>
      </trkpt>
      <trkpt lat="41.07351" lon="20.50753">
        <ele>564.895015</ele>
        <time>2022-05-01T09:44:11.546Z</time>
      </trkpt>
      <trkpt lat="41.07347" lon="20.5073">
        <ele>564.11634</ele>
        <time>2022-05-01T09:44:13.529Z</time>
      </trkpt>
      <trkpt lat="41.07343" lon="20.50718">
        <ele>563.718906</ele>
        <time>2022-05-01T09:44:14.553Z</time>
      </trkpt>
      <trkpt lat="41.0734" lon="20.50707">
        <ele>563.329596</ele>
        <time>2022-05-01T09:44:15.551Z</time>
      </trkpt>
      <trkpt lat="41.07335" lon="20.50697">
        <ele>562.941393</ele>
        <time>2022-05-01T09:44:16.554Z</time>
      </trkpt>
      <trkpt lat="41.07331" lon="20.50686">
        <ele>562.529366</ele>
        <time>2022-05-01T09:44:17.559Z</time>
      </trkpt>
      <trkpt lat="41.07326" lon="20.50674">
        <ele>562.110191</ele>
        <time>2022-05-01T09:44:18.545Z</time>
      </trkpt>
      <trkpt lat="41.07322" lon="20.50662">
        <ele>561.680515</ele>
        <time>2022-05-01T09:44:19.537Z</time>
      </trkpt>
      <trkpt lat="41.07318" lon="20.5065">
        <ele>561.25421</ele>
        <time>2022-05-01T09:44:20.557Z</time>
      </trkpt>
      <trkpt lat="41.07315" lon="20.50637">
        <ele>560.820199</ele>
        <time>2022-05-01T09:44:21.532Z</time>
      </trkpt>
      <trkpt lat="41.07314" lon="20.50624">
        <ele>560.377827</ele>
        <time>2022-05-01T09:44:22.535Z</time>
      </trkpt>
      <trkpt lat="41.07313" lon="20.50609">
        <ele>559.913273</ele>
        <time>2022-05-01T09:44:23.551Z</time>
      </trkpt>
      <trkpt lat="41.07313" lon="20.50595">
        <ele>559.449695</ele>
        <time>2022-05-01T09:44:24.555Z</time>
      </trkpt>
      <trkpt lat="41.07314" lon="20.50581">
        <ele>558.976809</ele>
        <time>2022-05-01T09:44:25.550Z</time>
      </trkpt>
      <trkpt lat="41.07316" lon="20.50566">
        <ele>558.266644</ele>
        <time>2022-05-01T09:44:26.554Z</time>
      </trkpt>
      <trkpt lat="41.0732" lon="20.50551">
        <ele>557.497722</ele>
        <time>2022-05-01T09:44:27.548Z</time>
      </trkpt>
      <trkpt lat="41.07324" lon="20.50537">
        <ele>556.742315</ele>
        <time>2022-05-01T09:44:28.538Z</time>
      </trkpt>
      <trkpt lat="41.07327" lon="20.50523">
        <ele>556.026492</ele>
        <time>2022-05-01T09:44:29.567Z</time>
      </trkpt>
      <trkpt lat="41.0733" lon="20.5051">
        <ele>555.338004</ele>
        <time>2022-05-01T09:44:30.538Z</time>
      </trkpt>
      <trkpt lat="41.07331" lon="20.50496">
        <ele>554.656504</ele>
        <time>2022-05-01T09:44:31.547Z</time>
      </trkpt>
      <trkpt lat="41.07331" lon="20.50482">
        <ele>553.9731</ele>
        <time>2022-05-01T09:44:32.578Z</time>
      </trkpt>
      <trkpt lat="41.0733" lon="20.50468">
        <ele>553.288276</ele>
        <time>2022-05-01T09:44:33.546Z</time>
      </trkpt>
      <trkpt lat="41.07329" lon="20.50455">
        <ele>552.628269</ele>
        <time>2022-05-01T09:44:34.544Z</time>
      </trkpt>
      <trkpt lat="41.07327" lon="20.50442">
        <ele>551.947725</ele>
        <time>2022-05-01T09:44:35.563Z</time>
      </trkpt>
      <trkpt lat="41.07326" lon="20.50427">
        <ele>551.211996</ele>
        <time>2022-05-01T09:44:36.559Z</time>
      </trkpt>
      <trkpt lat="41.07326" lon="20.50412">
        <ele>550.462938</ele>
        <time>2022-05-01T09:44:37.571Z</time>
      </trkpt>
      <trkpt lat="41.07325" lon="20.50396">
        <ele>549.708509</ele>
        <time>2022-05-01T09:44:38.574Z</time>
      </trkpt>
      <trkpt lat="41.07324" lon="20.50381">
        <ele>548.95672</ele>
        <time>2022-05-01T09:44:39.539Z</time>
      </trkpt>
      <trkpt lat="41.07322" lon="20.50366">
        <ele>548.208355</ele>
        <time>2022-05-01T09:44:40.557Z</time>
      </trkpt>
      <trkpt lat="41.07321" lon="20.50351">
        <ele>547.466414</ele>
        <time>2022-05-01T09:44:41.547Z</time>
      </trkpt>
      <trkpt lat="41.0732" lon="20.50337">
        <ele>546.838963</ele>
        <time>2022-05-01T09:44:42.548Z</time>
      </trkpt>
      <trkpt lat="41.0732" lon="20.50322">
        <ele>546.333379</ele>
        <time>2022-05-01T09:44:43.539Z</time>
      </trkpt>
      <trkpt lat="41.0732" lon="20.50308">
        <ele>545.827281</ele>
        <time>2022-05-01T09:44:44.576Z</time>
      </trkpt>
      <trkpt lat="41.07322" lon="20.50294">
        <ele>545.318796</ele>
        <time>2022-05-01T09:44:45.559Z</time>
      </trkpt>
      <trkpt lat="41.07325" lon="20.50279">
        <ele>544.793558</ele>
        <time>2022-05-01T09:44:46.552Z</time>
      </trkpt>
      <trkpt lat="41.07329" lon="20.50265">
        <ele>544.260205</ele>
        <time>2022-05-01T09:44:47.553Z</time>
      </trkpt>
      <trkpt lat="41.07334" lon="20.50251">
        <ele>543.711686</ele>
        <time>2022-05-01T09:44:48.542Z</time>
      </trkpt>
      <trkpt lat="41.07339" lon="20.50236">
        <ele>543.144139</ele>
        <time>2022-05-01T09:44:49.511Z</time>
      </trkpt>
      <trkpt lat="41.07344" lon="20.50221">
        <ele>542.57078</ele>
        <time>2022-05-01T09:44:50.548Z</time>
      </trkpt>
      <trkpt lat="41.07348" lon="20.50206">
        <ele>541.999255</ele>
        <time>2022-05-01T09:44:51.550Z</time>
      </trkpt>
      <trkpt lat="41.07353" lon="20.50191">
        <ele>541.420822</ele>
        <time>2022-05-01T09:44:52.531Z</time>
      </trkpt>
      <trkpt lat="41.07359" lon="20.50176">
        <ele>540.836636</ele>
        <time>2022-05-01T09:44:53.547Z</time>
      </trkpt>
      <trkpt lat="41.07364" lon="20.50161">
        <ele>540.250472</ele>
        <time>2022-05-01T09:44:54.545Z</time>
      </trkpt>
      <trkpt lat="41.0737" lon="20.50146">
        <ele>539.661326</ele>
        <time>2022-05-01T09:44:55.544Z</time>
      </trkpt>
      <trkpt lat="41.07376" lon="20.50131">
        <ele>539.083425</ele>
        <time>2022-05-01T09:44:56.546Z</time>
      </trkpt>
      <trkpt lat="41.07382" lon="20.50117">
        <ele>538.635179</ele>
        <time>2022-05-01T09:44:57.538Z</time>
      </trkpt>
      <trkpt lat="41.07388" lon="20.50103">
        <ele>538.393805</ele>
        <time>2022-05-01T09:44:58.543Z</time>
      </trkpt>
      <trkpt lat="41.07395" lon="20.5009">
        <ele>538.154291</ele>
        <time>2022-05-01T09:44:59.545Z</time>
      </trkpt>
      <trkpt lat="41.07401" lon="20.50077">
        <ele>537.916035</ele>
        <time>2022-05-01T09:45:00.552Z</time>
      </trkpt>
      <trkpt lat="41.07407" lon="20.50065">
        <ele>537.691743</ele>
        <time>2022-05-01T09:45:01.549Z</time>
      </trkpt>
      <trkpt lat="41.07413" lon="20.50052">
        <ele>537.474463</ele>
        <time>2022-05-01T09:45:02.571Z</time>
      </trkpt>
      <trkpt lat="41.07418" lon="20.50041">
        <ele>537.269085</ele>
        <time>2022-05-01T09:45:03.544Z</time>
      </trkpt>
      <trkpt lat="41.07423" lon="20.50029">
        <ele>537.06703</ele>
        <time>2022-05-01T09:45:04.556Z</time>
      </trkpt>
      <trkpt lat="41.07428" lon="20.50017">
        <ele>536.862664</ele>
        <time>2022-05-01T09:45:05.587Z</time>
      </trkpt>
      <trkpt lat="41.07433" lon="20.50005">
        <ele>536.655983</ele>
        <time>2022-05-01T09:45:06.539Z</time>
      </trkpt>
      <trkpt lat="41.07439" lon="20.49993">
        <ele>536.443622</ele>
        <time>2022-05-01T09:45:07.555Z</time>
      </trkpt>
      <trkpt lat="41.07444" lon="20.49982">
        <ele>536.234056</ele>
        <time>2022-05-01T09:45:08.534Z</time>
      </trkpt>
      <trkpt lat="41.0745" lon="20.4997">
        <ele>536.029571</ele>
        <time>2022-05-01T09:45:09.536Z</time>
      </trkpt>
      <trkpt lat="41.07455" lon="20.49959">
        <ele>535.828538</ele>
        <time>2022-05-01T09:45:10.547Z</time>
      </trkpt>
      <trkpt lat="41.07461" lon="20.49948">
        <ele>535.632573</ele>
        <time>2022-05-01T09:45:11.541Z</time>
      </trkpt>
      <trkpt lat="41.07466" lon="20.49938">
        <ele>535.438796</ele>
        <time>2022-05-01T09:45:12.565Z</time>
      </trkpt>
      <trkpt lat="41.07471" lon="20.49927">
        <ele>535.248192</ele>
        <time>2022-05-01T09:45:13.553Z</time>
      </trkpt>
      <trkpt lat="41.07475" lon="20.49916">
        <ele>535.052077</ele>
        <time>2022-05-01T09:45:14.549Z</time>
      </trkpt>
      <trkpt lat="41.07479" lon="20.49905">
        <ele>534.843532</ele>
        <time>2022-05-01T09:45:15.546Z</time>
      </trkpt>
      <trkpt lat="41.07483" lon="20.49894">
        <ele>534.636887</ele>
        <time>2022-05-01T09:45:16.591Z</time>
      </trkpt>
      <trkpt lat="41.07489" lon="20.49871">
        <ele>534.235533</ele>
        <time>2022-05-01T09:45:18.566Z</time>
      </trkpt>
      <trkpt lat="41.07494" lon="20.49849">
        <ele>533.839773</ele>
        <time>2022-05-01T09:45:20.553Z</time>
      </trkpt>
      <trkpt lat="41.07495" lon="20.49837">
        <ele>533.633208</ele>
        <time>2022-05-01T09:45:21.549Z</time>
      </trkpt>
      <trkpt lat="41.07497" lon="20.49825">
        <ele>533.427711</ele>
        <time>2022-05-01T09:45:22.573Z</time>
      </trkpt>
      <trkpt lat="41.07497" lon="20.49801">
        <ele>533.029061</ele>
        <time>2022-05-01T09:45:24.537Z</time>
      </trkpt>
      <trkpt lat="41.07495" lon="20.49778">
        <ele>532.623722</ele>
        <time>2022-05-01T09:45:26.541Z</time>
      </trkpt>
      <trkpt lat="41.07493" lon="20.49766">
        <ele>532.418207</ele>
        <time>2022-05-01T09:45:27.587Z</time>
      </trkpt>
      <trkpt lat="41.07489" lon="20.49744">
        <ele>532.041087</ele>
        <time>2022-05-01T09:45:29.544Z</time>
      </trkpt>
      <trkpt lat="41.07488" lon="20.49723">
        <ele>531.688369</ele>
        <time>2022-05-01T09:45:31.540Z</time>
      </trkpt>
      <trkpt lat="41.07487" lon="20.49703">
        <ele>531.342458</ele>
        <time>2022-05-01T09:45:33.547Z</time>
      </trkpt>
      <trkpt lat="41.07489" lon="20.49682">
        <ele>530.98881</ele>
        <time>2022-05-01T09:45:35.551Z</time>
      </trkpt>
      <trkpt lat="41.07492" lon="20.49662">
        <ele>530.648976</ele>
        <time>2022-05-01T09:45:37.547Z</time>
      </trkpt>
      <trkpt lat="41.07496" lon="20.49644">
        <ele>530.334962</ele>
        <time>2022-05-01T09:45:39.545Z</time>
      </trkpt>
      <trkpt lat="41.075" lon="20.49626">
        <ele>530.024615</ele>
        <time>2022-05-01T09:45:41.553Z</time>
      </trkpt>
      <trkpt lat="41.07502" lon="20.49608">
        <ele>529.725288</ele>
        <time>2022-05-01T09:45:43.556Z</time>
      </trkpt>
      <trkpt lat="41.07503" lon="20.4959">
        <ele>529.428288</ele>
        <time>2022-05-01T09:45:45.576Z</time>
      </trkpt>
      <trkpt lat="41.07503" lon="20.49573">
        <ele>529.148394</ele>
        <time>2022-05-01T09:45:47.550Z</time>
      </trkpt>
      <trkpt lat="41.07502" lon="20.49557">
        <ele>528.88181</ele>
        <time>2022-05-01T09:45:49.552Z</time>
      </trkpt>
      <trkpt lat="41.07499" lon="20.49541">
        <ele>528.623125</ele>
        <time>2022-05-01T09:45:51.544Z</time>
      </trkpt>
      <trkpt lat="41.07495" lon="20.49526">
        <ele>528.361892</ele>
        <time>2022-05-01T09:45:53.551Z</time>
      </trkpt>
      <trkpt lat="41.07491" lon="20.49512">
        <ele>528.115398</ele>
        <time>2022-05-01T09:45:55.587Z</time>
      </trkpt>
      <trkpt lat="41.07487" lon="20.49499">
        <ele>527.874763</ele>
        <time>2022-05-01T09:45:57.534Z</time>
      </trkpt>
      <trkpt lat="41.07482" lon="20.49487">
        <ele>527.65605</ele>
        <time>2022-05-01T09:45:59.552Z</time>
      </trkpt>
      <trkpt lat="41.07477" lon="20.49476">
        <ele>527.448788</ele>
        <time>2022-05-01T09:46:01.544Z</time>
      </trkpt>
      <trkpt lat="41.07472" lon="20.49465">
        <ele>527.220817</ele>
        <time>2022-05-01T09:46:03.554Z</time>
      </trkpt>
      <trkpt lat="41.07466" lon="20.49453">
        <ele>527.02563</ele>
        <time>2022-05-01T09:46:05.554Z</time>
      </trkpt>
      <trkpt lat="41.0746" lon="20.49441">
        <ele>526.838186</ele>
        <time>2022-05-01T09:46:07.549Z</time>
      </trkpt>
      <trkpt lat="41.07454" lon="20.49428">
        <ele>526.638326</ele>
        <time>2022-05-01T09:46:09.556Z</time>
      </trkpt>
      <trkpt lat="41.0745" lon="20.49414">
        <ele>526.445951</ele>
        <time>2022-05-01T09:46:11.575Z</time>
      </trkpt>
      <trkpt lat="41.07447" lon="20.49401">
        <ele>526.259605</ele>
        <time>2022-05-01T09:46:13.549Z</time>
      </trkpt>
      <trkpt lat="41.07446" lon="20.49386">
        <ele>526.075996</ele>
        <time>2022-05-01T09:46:15.554Z</time>
      </trkpt>
      <trkpt lat="41.07448" lon="20.49371">
        <ele>525.870146</ele>
        <time>2022-05-01T09:46:17.547Z</time>
      </trkpt>
      <trkpt lat="41.0745" lon="20.49353">
        <ele>525.642486</ele>
        <time>2022-05-01T09:46:19.546Z</time>
      </trkpt>
      <trkpt lat="41.07452" lon="20.49336">
        <ele>525.40942</ele>
        <time>2022-05-01T09:46:21.556Z</time>
      </trkpt>
      <trkpt lat="41.07455" lon="20.49318">
        <ele>525.173924</ele>
        <time>2022-05-01T09:46:23.567Z</time>
      </trkpt>
      <trkpt lat="41.07459" lon="20.493">
        <ele>524.926084</ele>
        <time>2022-05-01T09:46:25.559Z</time>
      </trkpt>
      <trkpt lat="41.07463" lon="20.49282">
        <ele>524.681221</ele>
        <time>2022-05-01T09:46:27.548Z</time>
      </trkpt>
      <trkpt lat="41.07467" lon="20.49263">
        <ele>524.424428</ele>
        <time>2022-05-01T09:46:29.549Z</time>
      </trkpt>
      <trkpt lat="41.07473" lon="20.49242">
        <ele>524.141853</ele>
        <time>2022-05-01T09:46:31.555Z</time>
      </trkpt>
      <trkpt lat="41.07477" lon="20.49222">
        <ele>523.944651</ele>
        <time>2022-05-01T09:46:33.569Z</time>
      </trkpt>
      <trkpt lat="41.07482" lon="20.49201">
        <ele>523.78647</ele>
        <time>2022-05-01T09:46:35.544Z</time>
      </trkpt>
      <trkpt lat="41.07487" lon="20.49179">
        <ele>523.625145</ele>
        <time>2022-05-01T09:46:37.552Z</time>
      </trkpt>
      <trkpt lat="41.0749" lon="20.49168">
        <ele>523.540182</ele>
        <time>2022-05-01T09:46:38.556Z</time>
      </trkpt>
      <trkpt lat="41.07493" lon="20.49156">
        <ele>523.450572</ele>
        <time>2022-05-01T09:46:39.576Z</time>
      </trkpt>
      <trkpt lat="41.07495" lon="20.49144">
        <ele>523.360281</ele>
        <time>2022-05-01T09:46:40.575Z</time>
      </trkpt>
      <trkpt lat="41.07498" lon="20.49131">
        <ele>523.26641</ele>
        <time>2022-05-01T09:46:41.540Z</time>
      </trkpt>
      <trkpt lat="41.07502" lon="20.49118">
        <ele>523.169825</ele>
        <time>2022-05-01T09:46:42.547Z</time>
      </trkpt>
      <trkpt lat="41.07505" lon="20.49105">
        <ele>523.073625</ele>
        <time>2022-05-01T09:46:43.545Z</time>
      </trkpt>
      <trkpt lat="41.07508" lon="20.49092">
        <ele>522.975152</ele>
        <time>2022-05-01T09:46:44.542Z</time>
      </trkpt>
      <trkpt lat="41.07511" lon="20.4908">
        <ele>522.880981</ele>
        <time>2022-05-01T09:46:45.557Z</time>
      </trkpt>
      <trkpt lat="41.07514" lon="20.49068">
        <ele>522.790408</ele>
        <time>2022-05-01T09:46:46.584Z</time>
      </trkpt>
      <trkpt lat="41.07517" lon="20.49055">
        <ele>522.698621</ele>
        <time>2022-05-01T09:46:47.562Z</time>
      </trkpt>
      <trkpt lat="41.07518" lon="20.49043">
        <ele>522.606064</ele>
        <time>2022-05-01T09:46:48.551Z</time>
      </trkpt>
      <trkpt lat="41.07519" lon="20.49029">
        <ele>522.512443</ele>
        <time>2022-05-01T09:46:49.553Z</time>
      </trkpt>
      <trkpt lat="41.07518" lon="20.49016">
        <ele>522.417896</ele>
        <time>2022-05-01T09:46:50.592Z</time>
      </trkpt>
      <trkpt lat="41.07516" lon="20.49003">
        <ele>522.355058</ele>
        <time>2022-05-01T09:46:51.594Z</time>
      </trkpt>
      <trkpt lat="41.07514" lon="20.4899">
        <ele>522.46567</ele>
        <time>2022-05-01T09:46:52.556Z</time>
      </trkpt>
      <trkpt lat="41.07511" lon="20.48978">
        <ele>522.575444</ele>
        <time>2022-05-01T09:46:53.547Z</time>
      </trkpt>
      <trkpt lat="41.07509" lon="20.48965">
        <ele>522.679541</ele>
        <time>2022-05-01T09:46:54.553Z</time>
      </trkpt>
      <trkpt lat="41.07507" lon="20.48943">
        <ele>522.871401</ele>
        <time>2022-05-01T09:46:56.556Z</time>
      </trkpt>
      <trkpt lat="41.07509" lon="20.48923">
        <ele>523.039853</ele>
        <time>2022-05-01T09:46:58.563Z</time>
      </trkpt>
      <trkpt lat="41.07514" lon="20.48904">
        <ele>523.204615</ele>
        <time>2022-05-01T09:47:00.557Z</time>
      </trkpt>
      <trkpt lat="41.07522" lon="20.4889">
        <ele>523.352312</ele>
        <time>2022-05-01T09:47:02.550Z</time>
      </trkpt>
      <trkpt lat="41.07528" lon="20.48879">
        <ele>523.469854</ele>
        <time>2022-05-01T09:47:04.540Z</time>
      </trkpt>
      <trkpt lat="41.07533" lon="20.48869">
        <ele>523.573409</ele>
        <time>2022-05-01T09:47:06.544Z</time>
      </trkpt>
      <trkpt lat="41.07541" lon="20.48854">
        <ele>523.718414</ele>
        <time>2022-05-01T09:47:09.569Z</time>
      </trkpt>
      <trkpt lat="41.07546" lon="20.48841">
        <ele>523.846015</ele>
        <time>2022-05-01T09:47:12.578Z</time>
      </trkpt>
      <trkpt lat="41.0755" lon="20.48828">
        <ele>523.96184</ele>
        <time>2022-05-01T09:47:15.539Z</time>
      </trkpt>
      <trkpt lat="41.07552" lon="20.48816">
        <ele>524.064311</ele>
        <time>2022-05-01T09:47:18.601Z</time>
      </trkpt>
      <trkpt lat="41.07554" lon="20.48801">
        <ele>524.190469</ele>
        <time>2022-05-01T09:47:22.550Z</time>
      </trkpt>
      <trkpt lat="41.07555" lon="20.48789">
        <ele>524.291882</ele>
        <time>2022-05-01T09:47:25.563Z</time>
      </trkpt>
      <trkpt lat="41.07554" lon="20.48774">
        <ele>524.537258</ele>
        <time>2022-05-01T09:47:29.560Z</time>
      </trkpt>
      <trkpt lat="41.07553" lon="20.48759">
        <ele>524.851224</ele>
        <time>2022-05-01T09:47:33.536Z</time>
      </trkpt>
      <trkpt lat="41.07552" lon="20.48746">
        <ele>525.139782</ele>
        <time>2022-05-01T09:47:37.546Z</time>
      </trkpt>
      <trkpt lat="41.0755" lon="20.48732">
        <ele>525.433054</ele>
        <time>2022-05-01T09:47:41.541Z</time>
      </trkpt>
      <trkpt lat="41.07547" lon="20.48718">
        <ele>525.733282</ele>
        <time>2022-05-01T09:47:45.546Z</time>
      </trkpt>
      <trkpt lat="41.07542" lon="20.48705">
        <ele>526.026969</ele>
        <time>2022-05-01T09:47:50.548Z</time>
      </trkpt>
      <trkpt lat="41.07536" lon="20.48695">
        <ele>526.299329</ele>
        <time>2022-05-01T09:47:54.550Z</time>
      </trkpt>
      <trkpt lat="41.07531" lon="20.48684">
        <ele>526.568388</ele>
        <time>2022-05-01T09:47:58.545Z</time>
      </trkpt>
      <trkpt lat="41.07524" lon="20.48674">
        <ele>526.859859</ele>
        <time>2022-05-01T09:48:02.538Z</time>
      </trkpt>
      <trkpt lat="41.07516" lon="20.48663">
        <ele>527.179612</ele>
        <time>2022-05-01T09:48:06.567Z</time>
      </trkpt>
      <trkpt lat="41.07508" lon="20.48651">
        <ele>527.497043</ele>
        <time>2022-05-01T09:48:10.556Z</time>
      </trkpt>
      <trkpt lat="41.075" lon="20.48644">
        <ele>527.754784</ele>
        <time>2022-05-01T09:48:13.559Z</time>
      </trkpt>
      <trkpt lat="41.07494" lon="20.48635">
        <ele>528.008276</ele>
        <time>2022-05-01T09:48:16.555Z</time>
      </trkpt>
      <trkpt lat="41.07487" lon="20.48627">
        <ele>528.276308</ele>
        <time>2022-05-01T09:48:19.530Z</time>
      </trkpt>
      <trkpt lat="41.07479" lon="20.48615">
        <ele>528.5838</ele>
        <time>2022-05-01T09:48:22.555Z</time>
      </trkpt>
      <trkpt lat="41.07473" lon="20.486">
        <ele>528.957145</ele>
        <time>2022-05-01T09:48:25.578Z</time>
      </trkpt>
      <trkpt lat="41.07469" lon="20.48587">
        <ele>529.240269</ele>
        <time>2022-05-01T09:48:27.559Z</time>
      </trkpt>
      <trkpt lat="41.07468" lon="20.48574">
        <ele>528.83636</ele>
        <time>2022-05-01T09:48:29.548Z</time>
      </trkpt>
      <trkpt lat="41.07469" lon="20.4856">
        <ele>528.223436</ele>
        <time>2022-05-01T09:48:31.589Z</time>
      </trkpt>
      <trkpt lat="41.07473" lon="20.48545">
        <ele>527.549341</ele>
        <time>2022-05-01T09:48:33.538Z</time>
      </trkpt>
      <trkpt lat="41.07477" lon="20.4853">
        <ele>526.845793</ele>
        <time>2022-05-01T09:48:35.546Z</time>
      </trkpt>
      <trkpt lat="41.07481" lon="20.48514">
        <ele>526.136784</ele>
        <time>2022-05-01T09:48:37.566Z</time>
      </trkpt>
      <trkpt lat="41.07484" lon="20.48497">
        <ele>525.370359</ele>
        <time>2022-05-01T09:48:39.547Z</time>
      </trkpt>
      <trkpt lat="41.07488" lon="20.48479">
        <ele>524.556841</ele>
        <time>2022-05-01T09:48:41.544Z</time>
      </trkpt>
      <trkpt lat="41.07492" lon="20.48462">
        <ele>523.782083</ele>
        <time>2022-05-01T09:48:43.551Z</time>
      </trkpt>
      <trkpt lat="41.07495" lon="20.48447">
        <ele>523.099192</ele>
        <time>2022-05-01T09:48:45.551Z</time>
      </trkpt>
      <trkpt lat="41.07496" lon="20.48431">
        <ele>522.403504</ele>
        <time>2022-05-01T09:48:47.551Z</time>
      </trkpt>
      <trkpt lat="41.07496" lon="20.48414">
        <ele>521.647303</ele>
        <time>2022-05-01T09:48:49.539Z</time>
      </trkpt>
      <trkpt lat="41.07494" lon="20.48395">
        <ele>520.820774</ele>
        <time>2022-05-01T09:48:51.546Z</time>
      </trkpt>
      <trkpt lat="41.07491" lon="20.48375">
        <ele>519.928194</ele>
        <time>2022-05-01T09:48:53.562Z</time>
      </trkpt>
      <trkpt lat="41.07487" lon="20.48352">
        <ele>518.897137</ele>
        <time>2022-05-01T09:48:55.558Z</time>
      </trkpt>
      <trkpt lat="41.07484" lon="20.48339">
        <ele>518.428466</ele>
        <time>2022-05-01T09:48:56.550Z</time>
      </trkpt>
      <trkpt lat="41.07482" lon="20.48326">
        <ele>517.964406</ele>
        <time>2022-05-01T09:48:57.559Z</time>
      </trkpt>
      <trkpt lat="41.07479" lon="20.48313">
        <ele>517.479503</ele>
        <time>2022-05-01T09:48:58.550Z</time>
      </trkpt>
      <trkpt lat="41.07477" lon="20.48299">
        <ele>516.952946</ele>
        <time>2022-05-01T09:48:59.544Z</time>
      </trkpt>
      <trkpt lat="41.07474" lon="20.48285">
        <ele>516.437938</ele>
        <time>2022-05-01T09:49:00.603Z</time>
      </trkpt>
      <trkpt lat="41.07472" lon="20.48271">
        <ele>515.937978</ele>
        <time>2022-05-01T09:49:01.546Z</time>
      </trkpt>
      <trkpt lat="41.07469" lon="20.48259">
        <ele>515.477261</ele>
        <time>2022-05-01T09:49:02.539Z</time>
      </trkpt>
      <trkpt lat="41.07466" lon="20.48247">
        <ele>515.042688</ele>
        <time>2022-05-01T09:49:03.541Z</time>
      </trkpt>
      <trkpt lat="41.0746" lon="20.48226">
        <ele>514.230397</ele>
        <time>2022-05-01T09:49:05.555Z</time>
      </trkpt>
      <trkpt lat="41.07456" lon="20.48204">
        <ele>513.424774</ele>
        <time>2022-05-01T09:49:07.548Z</time>
      </trkpt>
      <trkpt lat="41.07453" lon="20.48182">
        <ele>512.606866</ele>
        <time>2022-05-01T09:49:09.536Z</time>
      </trkpt>
      <trkpt lat="41.07452" lon="20.48158">
        <ele>511.768154</ele>
        <time>2022-05-01T09:49:11.548Z</time>
      </trkpt>
      <trkpt lat="41.07455" lon="20.48136">
        <ele>510.971027</ele>
        <time>2022-05-01T09:49:13.553Z</time>
      </trkpt>
      <trkpt lat="41.0746" lon="20.48116">
        <ele>510.29989</ele>
        <time>2022-05-01T09:49:15.550Z</time>
      </trkpt>
      <trkpt lat="41.07466" lon="20.48096">
        <ele>509.972719</ele>
        <time>2022-05-01T09:49:17.542Z</time>
      </trkpt>
      <trkpt lat="41.07472" lon="20.48076">
        <ele>509.656161</ele>
        <time>2022-05-01T09:49:19.538Z</time>
      </trkpt>
      <trkpt lat="41.07475" lon="20.48057">
        <ele>509.355092</ele>
        <time>2022-05-01T09:49:21.546Z</time>
      </trkpt>
      <trkpt lat="41.07474" lon="20.48036">
        <ele>509.039621</ele>
        <time>2022-05-01T09:49:23.550Z</time>
      </trkpt>
      <trkpt lat="41.07467" lon="20.48017">
        <ele>508.71489</ele>
        <time>2022-05-01T09:49:25.535Z</time>
      </trkpt>
      <trkpt lat="41.07454" lon="20.48001">
        <ele>508.373167</ele>
        <time>2022-05-01T09:49:27.573Z</time>
      </trkpt>
      <trkpt lat="41.07441" lon="20.47989">
        <ele>508.04455</ele>
        <time>2022-05-01T09:49:29.550Z</time>
      </trkpt>
      <trkpt lat="41.0743" lon="20.47974">
        <ele>507.718926</ele>
        <time>2022-05-01T09:49:31.550Z</time>
      </trkpt>
      <trkpt lat="41.07422" lon="20.47953">
        <ele>507.36575</ele>
        <time>2022-05-01T09:49:33.556Z</time>
      </trkpt>
      <trkpt lat="41.07419" lon="20.47941">
        <ele>507.170082</ele>
        <time>2022-05-01T09:49:34.554Z</time>
      </trkpt>
      <trkpt lat="41.07417" lon="20.47928">
        <ele>506.972994</ele>
        <time>2022-05-01T09:49:35.559Z</time>
      </trkpt>
      <trkpt lat="41.07415" lon="20.47915">
        <ele>506.773846</ele>
        <time>2022-05-01T09:49:36.535Z</time>
      </trkpt>
      <trkpt lat="41.07413" lon="20.47902">
        <ele>506.25332</ele>
        <time>2022-05-01T09:49:37.563Z</time>
      </trkpt>
      <trkpt lat="41.07411" lon="20.4789">
        <ele>505.725597</ele>
        <time>2022-05-01T09:49:38.581Z</time>
      </trkpt>
      <trkpt lat="41.07409" lon="20.47878">
        <ele>505.195272</ele>
        <time>2022-05-01T09:49:39.555Z</time>
      </trkpt>
      <trkpt lat="41.07407" lon="20.47866">
        <ele>504.690558</ele>
        <time>2022-05-01T09:49:40.545Z</time>
      </trkpt>
      <trkpt lat="41.07403" lon="20.47843">
        <ele>503.679936</ele>
        <time>2022-05-01T09:49:42.553Z</time>
      </trkpt>
      <trkpt lat="41.07401" lon="20.47831">
        <ele>503.168644</ele>
        <time>2022-05-01T09:49:43.550Z</time>
      </trkpt>
      <trkpt lat="41.07398" lon="20.47819">
        <ele>502.651752</ele>
        <time>2022-05-01T09:49:44.555Z</time>
      </trkpt>
      <trkpt lat="41.07396" lon="20.47807">
        <ele>502.118601</ele>
        <time>2022-05-01T09:49:45.531Z</time>
      </trkpt>
      <trkpt lat="41.07394" lon="20.47795">
        <ele>501.582652</ele>
        <time>2022-05-01T09:49:46.548Z</time>
      </trkpt>
      <trkpt lat="41.07391" lon="20.47783">
        <ele>501.059097</ele>
        <time>2022-05-01T09:49:47.539Z</time>
      </trkpt>
      <trkpt lat="41.07388" lon="20.47771">
        <ele>500.54772</ele>
        <time>2022-05-01T09:49:48.553Z</time>
      </trkpt>
      <trkpt lat="41.07385" lon="20.4776">
        <ele>500.040614</ele>
        <time>2022-05-01T09:49:49.582Z</time>
      </trkpt>
      <trkpt lat="41.07382" lon="20.47749">
        <ele>499.525431</ele>
        <time>2022-05-01T09:49:50.535Z</time>
      </trkpt>
      <trkpt lat="41.07378" lon="20.47738">
        <ele>499.008992</ele>
        <time>2022-05-01T09:49:51.551Z</time>
      </trkpt>
      <trkpt lat="41.07374" lon="20.47727">
        <ele>498.511584</ele>
        <time>2022-05-01T09:49:52.571Z</time>
      </trkpt>
      <trkpt lat="41.07366" lon="20.47707">
        <ele>497.567951</ele>
        <time>2022-05-01T09:49:54.544Z</time>
      </trkpt>
      <trkpt lat="41.0736" lon="20.47686">
        <ele>496.59721</ele>
        <time>2022-05-01T09:49:56.542Z</time>
      </trkpt>
      <trkpt lat="41.07359" lon="20.47674">
        <ele>495.990378</ele>
        <time>2022-05-01T09:49:57.552Z</time>
      </trkpt>
      <trkpt lat="41.07358" lon="20.47661">
        <ele>495.364433</ele>
        <time>2022-05-01T09:49:58.558Z</time>
      </trkpt>
      <trkpt lat="41.07358" lon="20.47647">
        <ele>494.659014</ele>
        <time>2022-05-01T09:49:59.550Z</time>
      </trkpt>
      <trkpt lat="41.07358" lon="20.47633">
        <ele>493.939351</ele>
        <time>2022-05-01T09:50:00.559Z</time>
      </trkpt>
      <trkpt lat="41.07358" lon="20.47617">
        <ele>493.159298</ele>
        <time>2022-05-01T09:50:01.552Z</time>
      </trkpt>
      <trkpt lat="41.07359" lon="20.47601">
        <ele>492.345138</ele>
        <time>2022-05-01T09:50:02.549Z</time>
      </trkpt>
      <trkpt lat="41.07363" lon="20.47585">
        <ele>491.501692</ele>
        <time>2022-05-01T09:50:03.551Z</time>
      </trkpt>
      <trkpt lat="41.07366" lon="20.47569">
        <ele>490.672887</ele>
        <time>2022-05-01T09:50:04.549Z</time>
      </trkpt>
      <trkpt lat="41.07371" lon="20.47554">
        <ele>489.866116</ele>
        <time>2022-05-01T09:50:05.556Z</time>
      </trkpt>
      <trkpt lat="41.07375" lon="20.47539">
        <ele>489.089801</ele>
        <time>2022-05-01T09:50:06.582Z</time>
      </trkpt>
      <trkpt lat="41.07378" lon="20.47525">
        <ele>488.343695</ele>
        <time>2022-05-01T09:50:07.570Z</time>
      </trkpt>
      <trkpt lat="41.07383" lon="20.47511">
        <ele>487.602077</ele>
        <time>2022-05-01T09:50:08.550Z</time>
      </trkpt>
      <trkpt lat="41.07387" lon="20.47498">
        <ele>486.870806</ele>
        <time>2022-05-01T09:50:09.560Z</time>
      </trkpt>
      <trkpt lat="41.07393" lon="20.47485">
        <ele>486.129047</ele>
        <time>2022-05-01T09:50:10.549Z</time>
      </trkpt>
      <trkpt lat="41.07399" lon="20.47472">
        <ele>485.365114</ele>
        <time>2022-05-01T09:50:11.559Z</time>
      </trkpt>
      <trkpt lat="41.07405" lon="20.4746">
        <ele>484.643055</ele>
        <time>2022-05-01T09:50:12.597Z</time>
      </trkpt>
      <trkpt lat="41.07412" lon="20.47448">
        <ele>484.039053</ele>
        <time>2022-05-01T09:50:13.555Z</time>
      </trkpt>
      <trkpt lat="41.07418" lon="20.47436">
        <ele>483.477367</ele>
        <time>2022-05-01T09:50:14.557Z</time>
      </trkpt>
      <trkpt lat="41.07423" lon="20.47425">
        <ele>482.943344</ele>
        <time>2022-05-01T09:50:15.557Z</time>
      </trkpt>
      <trkpt lat="41.07428" lon="20.47414">
        <ele>482.405847</ele>
        <time>2022-05-01T09:50:16.534Z</time>
      </trkpt>
      <trkpt lat="41.07433" lon="20.47403">
        <ele>481.85222</ele>
        <time>2022-05-01T09:50:17.552Z</time>
      </trkpt>
      <trkpt lat="41.07438" lon="20.47391">
        <ele>481.30349</ele>
        <time>2022-05-01T09:50:18.555Z</time>
      </trkpt>
      <trkpt lat="41.07443" lon="20.47379">
        <ele>480.757471</ele>
        <time>2022-05-01T09:50:19.564Z</time>
      </trkpt>
      <trkpt lat="41.07448" lon="20.47368">
        <ele>480.224783</ele>
        <time>2022-05-01T09:50:20.555Z</time>
      </trkpt>
      <trkpt lat="41.07453" lon="20.47357">
        <ele>479.690109</ele>
        <time>2022-05-01T09:50:21.565Z</time>
      </trkpt>
      <trkpt lat="41.07458" lon="20.47346">
        <ele>479.168933</ele>
        <time>2022-05-01T09:50:22.552Z</time>
      </trkpt>
      <trkpt lat="41.07462" lon="20.47334">
        <ele>478.647692</ele>
        <time>2022-05-01T09:50:23.548Z</time>
      </trkpt>
      <trkpt lat="41.07465" lon="20.47322">
        <ele>478.134958</ele>
        <time>2022-05-01T09:50:24.589Z</time>
      </trkpt>
      <trkpt lat="41.07467" lon="20.4731">
        <ele>477.612798</ele>
        <time>2022-05-01T09:50:25.529Z</time>
      </trkpt>
      <trkpt lat="41.07468" lon="20.47297">
        <ele>477.080591</ele>
        <time>2022-05-01T09:50:26.557Z</time>
      </trkpt>
      <trkpt lat="41.07467" lon="20.47284">
        <ele>476.544305</ele>
        <time>2022-05-01T09:50:27.569Z</time>
      </trkpt>
      <trkpt lat="41.07465" lon="20.4727">
        <ele>475.988122</ele>
        <time>2022-05-01T09:50:28.565Z</time>
      </trkpt>
      <trkpt lat="41.07462" lon="20.47257">
        <ele>475.435653</ele>
        <time>2022-05-01T09:50:29.569Z</time>
      </trkpt>
      <trkpt lat="41.07459" lon="20.47245">
        <ele>474.853046</ele>
        <time>2022-05-01T09:50:30.597Z</time>
      </trkpt>
      <trkpt lat="41.07454" lon="20.47233">
        <ele>474.199661</ele>
        <time>2022-05-01T09:50:31.528Z</time>
      </trkpt>
      <trkpt lat="41.07447" lon="20.47221">
        <ele>473.537491</ele>
        <time>2022-05-01T09:50:32.584Z</time>
      </trkpt>
      <trkpt lat="41.0744" lon="20.47211">
        <ele>472.86236</ele>
        <time>2022-05-01T09:50:33.539Z</time>
      </trkpt>
      <trkpt lat="41.07433" lon="20.47201">
        <ele>472.197625</ele>
        <time>2022-05-01T09:50:34.536Z</time>
      </trkpt>
      <trkpt lat="41.07425" lon="20.47192">
        <ele>471.543691</ele>
        <time>2022-05-01T09:50:35.564Z</time>
      </trkpt>
      <trkpt lat="41.07417" lon="20.47184">
        <ele>470.921394</ele>
        <time>2022-05-01T09:50:36.565Z</time>
      </trkpt>
      <trkpt lat="41.0741" lon="20.47176">
        <ele>470.302115</ele>
        <time>2022-05-01T09:50:37.554Z</time>
      </trkpt>
      <trkpt lat="41.07403" lon="20.47168">
        <ele>469.717974</ele>
        <time>2022-05-01T09:50:38.556Z</time>
      </trkpt>
      <trkpt lat="41.07391" lon="20.47151">
        <ele>468.599463</ele>
        <time>2022-05-01T09:50:40.551Z</time>
      </trkpt>
      <trkpt lat="41.0738" lon="20.47131">
        <ele>467.468073</ele>
        <time>2022-05-01T09:50:42.529Z</time>
      </trkpt>
      <trkpt lat="41.07376" lon="20.4712">
        <ele>466.866215</ele>
        <time>2022-05-01T09:50:43.545Z</time>
      </trkpt>
      <trkpt lat="41.07372" lon="20.47108">
        <ele>466.250347</ele>
        <time>2022-05-01T09:50:44.545Z</time>
      </trkpt>
      <trkpt lat="41.07369" lon="20.47095">
        <ele>465.619193</ele>
        <time>2022-05-01T09:50:45.545Z</time>
      </trkpt>
      <trkpt lat="41.07366" lon="20.47083">
        <ele>464.987458</ele>
        <time>2022-05-01T09:50:46.559Z</time>
      </trkpt>
      <trkpt lat="41.07364" lon="20.47069">
        <ele>464.341831</ele>
        <time>2022-05-01T09:50:47.538Z</time>
      </trkpt>
      <trkpt lat="41.07362" lon="20.47056">
        <ele>463.676206</ele>
        <time>2022-05-01T09:50:48.556Z</time>
      </trkpt>
      <trkpt lat="41.07359" lon="20.47043">
        <ele>463.209633</ele>
        <time>2022-05-01T09:50:49.551Z</time>
      </trkpt>
      <trkpt lat="41.07355" lon="20.4703">
        <ele>462.75133</ele>
        <time>2022-05-01T09:50:50.534Z</time>
      </trkpt>
      <trkpt lat="41.07351" lon="20.47017">
        <ele>462.299119</ele>
        <time>2022-05-01T09:50:51.554Z</time>
      </trkpt>
      <trkpt lat="41.07347" lon="20.47005">
        <ele>461.861707</ele>
        <time>2022-05-01T09:50:52.588Z</time>
      </trkpt>
      <trkpt lat="41.07343" lon="20.46993">
        <ele>461.432542</ele>
        <time>2022-05-01T09:50:53.544Z</time>
      </trkpt>
      <trkpt lat="41.07339" lon="20.46982">
        <ele>461.02108</ele>
        <time>2022-05-01T09:50:54.607Z</time>
      </trkpt>
      <trkpt lat="41.07335" lon="20.46971">
        <ele>460.606747</ele>
        <time>2022-05-01T09:50:55.563Z</time>
      </trkpt>
      <trkpt lat="41.0733" lon="20.4696">
        <ele>460.177455</ele>
        <time>2022-05-01T09:50:56.554Z</time>
      </trkpt>
      <trkpt lat="41.07326" lon="20.46948">
        <ele>459.74728</ele>
        <time>2022-05-01T09:50:57.561Z</time>
      </trkpt>
      <trkpt lat="41.07322" lon="20.46937">
        <ele>459.342536</ele>
        <time>2022-05-01T09:50:58.539Z</time>
      </trkpt>
      <trkpt lat="41.07314" lon="20.46916">
        <ele>458.558398</ele>
        <time>2022-05-01T09:51:00.554Z</time>
      </trkpt>
      <trkpt lat="41.07306" lon="20.46895">
        <ele>457.789969</ele>
        <time>2022-05-01T09:51:02.557Z</time>
      </trkpt>
      <trkpt lat="41.07298" lon="20.46876">
        <ele>457.04327</ele>
        <time>2022-05-01T09:51:04.549Z</time>
      </trkpt>
      <trkpt lat="41.07291" lon="20.46856">
        <ele>456.320181</ele>
        <time>2022-05-01T09:51:06.546Z</time>
      </trkpt>
      <trkpt lat="41.07286" lon="20.46836">
        <ele>455.821428</ele>
        <time>2022-05-01T09:51:08.600Z</time>
      </trkpt>
      <trkpt lat="41.07282" lon="20.46816">
        <ele>456.351447</ele>
        <time>2022-05-01T09:51:10.568Z</time>
      </trkpt>
      <trkpt lat="41.0728" lon="20.46797">
        <ele>456.864112</ele>
        <time>2022-05-01T09:51:12.548Z</time>
      </trkpt>
      <trkpt lat="41.07279" lon="20.46777">
        <ele>457.388082</ele>
        <time>2022-05-01T09:51:14.552Z</time>
      </trkpt>
      <trkpt lat="41.07281" lon="20.46757">
        <ele>457.914758</ele>
        <time>2022-05-01T09:51:16.550Z</time>
      </trkpt>
      <trkpt lat="41.07285" lon="20.4674">
        <ele>458.395981</ele>
        <time>2022-05-01T09:51:18.554Z</time>
      </trkpt>
      <trkpt lat="41.0729" lon="20.46724">
        <ele>458.83924</ele>
        <time>2022-05-01T09:51:20.545Z</time>
      </trkpt>
      <trkpt lat="41.07295" lon="20.4671">
        <ele>459.251882</ele>
        <time>2022-05-01T09:51:22.554Z</time>
      </trkpt>
      <trkpt lat="41.07296" lon="20.46697">
        <ele>459.602937</ele>
        <time>2022-05-01T09:51:24.559Z</time>
      </trkpt>
      <trkpt lat="41.073" lon="20.46685">
        <ele>459.931671</ele>
        <time>2022-05-01T09:51:26.605Z</time>
      </trkpt>
      <trkpt lat="41.07304" lon="20.46669">
        <ele>460.365108</ele>
        <time>2022-05-01T09:51:29.529Z</time>
      </trkpt>
      <trkpt lat="41.07307" lon="20.46657">
        <ele>460.716122</ele>
        <time>2022-05-01T09:51:32.552Z</time>
      </trkpt>
      <trkpt lat="41.0731" lon="20.46645">
        <ele>461.053563</ele>
        <time>2022-05-01T09:51:35.561Z</time>
      </trkpt>
      <trkpt lat="41.07313" lon="20.46632">
        <ele>461.390192</ele>
        <time>2022-05-01T09:51:38.557Z</time>
      </trkpt>
      <trkpt lat="41.07317" lon="20.46618">
        <ele>461.786255</ele>
        <time>2022-05-01T09:51:42.552Z</time>
      </trkpt>
      <trkpt lat="41.0732" lon="20.46604">
        <ele>462.413523</ele>
        <time>2022-05-01T09:51:46.554Z</time>
      </trkpt>
      <trkpt lat="41.07322" lon="20.46592">
        <ele>463.221607</ele>
        <time>2022-05-01T09:51:50.554Z</time>
      </trkpt>
      <trkpt lat="41.07325" lon="20.4658">
        <ele>464.05081</ele>
        <time>2022-05-01T09:51:54.548Z</time>
      </trkpt>
      <trkpt lat="41.07327" lon="20.46567">
        <ele>464.957387</ele>
        <time>2022-05-01T09:51:58.540Z</time>
      </trkpt>
      <trkpt lat="41.07329" lon="20.46555">
        <ele>465.810341</ele>
        <time>2022-05-01T09:52:02.568Z</time>
      </trkpt>
      <trkpt lat="41.07331" lon="20.46542">
        <ele>466.662503</ele>
        <time>2022-05-01T09:52:06.581Z</time>
      </trkpt>
      <trkpt lat="41.07334" lon="20.4653">
        <ele>467.48338</ele>
        <time>2022-05-01T09:52:10.540Z</time>
      </trkpt>
      <trkpt lat="41.07337" lon="20.46517">
        <ele>468.402088</ele>
        <time>2022-05-01T09:52:15.573Z</time>
      </trkpt>
      <trkpt lat="41.07341" lon="20.46503">
        <ele>469.390739</ele>
        <time>2022-05-01T09:52:20.566Z</time>
      </trkpt>
      <trkpt lat="41.07345" lon="20.4649">
        <ele>470.308769</ele>
        <time>2022-05-01T09:52:25.550Z</time>
      </trkpt>
      <trkpt lat="41.07348" lon="20.46478">
        <ele>471.164261</ele>
        <time>2022-05-01T09:52:30.541Z</time>
      </trkpt>
      <trkpt lat="41.07352" lon="20.46467">
        <ele>471.975852</ele>
        <time>2022-05-01T09:52:36.560Z</time>
      </trkpt>
      <trkpt lat="41.07356" lon="20.46456">
        <ele>472.789612</ele>
        <time>2022-05-01T09:52:41.543Z</time>
      </trkpt>
      <trkpt lat="41.07361" lon="20.46444">
        <ele>473.708167</ele>
        <time>2022-05-01T09:52:46.571Z</time>
      </trkpt>
      <trkpt lat="41.07367" lon="20.46432">
        <ele>474.63865</ele>
        <time>2022-05-01T09:52:51.547Z</time>
      </trkpt>
      <trkpt lat="41.07373" lon="20.46422">
        <ele>475.520015</ele>
        <time>2022-05-01T09:52:56.548Z</time>
      </trkpt>
      <trkpt lat="41.0738" lon="20.46412">
        <ele>476.389324</ele>
        <time>2022-05-01T09:53:01.552Z</time>
      </trkpt>
      <trkpt lat="41.07388" lon="20.46402">
        <ele>477.372266</ele>
        <time>2022-05-01T09:53:06.538Z</time>
      </trkpt>
      <trkpt lat="41.07394" lon="20.46392">
        <ele>477.869021</ele>
        <time>2022-05-01T09:53:10.568Z</time>
      </trkpt>
      <trkpt lat="41.07402" lon="20.46385">
        <ele>477.878417</ele>
        <time>2022-05-01T09:53:14.571Z</time>
      </trkpt>
      <trkpt lat="41.0741" lon="20.46377">
        <ele>477.888283</ele>
        <time>2022-05-01T09:53:18.554Z</time>
      </trkpt>
      <trkpt lat="41.07418" lon="20.46371">
        <ele>477.898205</ele>
        <time>2022-05-01T09:53:22.583Z</time>
      </trkpt>
      <trkpt lat="41.07428" lon="20.46365">
        <ele>477.908403</ele>
        <time>2022-05-01T09:53:26.553Z</time>
      </trkpt>
      <trkpt lat="41.07437" lon="20.46359">
        <ele>477.918979</ele>
        <time>2022-05-01T09:53:30.549Z</time>
      </trkpt>
      <trkpt lat="41.07446" lon="20.46354">
        <ele>477.928656</ele>
        <time>2022-05-01T09:53:34.572Z</time>
      </trkpt>
      <trkpt lat="41.07453" lon="20.46347">
        <ele>477.938144</ele>
        <time>2022-05-01T09:53:38.563Z</time>
      </trkpt>
      <trkpt lat="41.07462" lon="20.46338">
        <ele>477.949086</ele>
        <time>2022-05-01T09:53:42.570Z</time>
      </trkpt>
      <trkpt lat="41.07471" lon="20.46327">
        <ele>477.961111</ele>
        <time>2022-05-01T09:53:46.546Z</time>
      </trkpt>
      <trkpt lat="41.07479" lon="20.46315">
        <ele>477.973079</ele>
        <time>2022-05-01T09:53:50.583Z</time>
      </trkpt>
      <trkpt lat="41.07485" lon="20.46306">
        <ele>477.982376</ele>
        <time>2022-05-01T09:53:53.581Z</time>
      </trkpt>
      <trkpt lat="41.07492" lon="20.46294">
        <ele>477.993598</ele>
        <time>2022-05-01T09:53:57.534Z</time>
      </trkpt>
      <trkpt lat="41.07498" lon="20.46285">
        <ele>478.003069</ele>
        <time>2022-05-01T09:54:00.577Z</time>
      </trkpt>
      <trkpt lat="41.07504" lon="20.46276">
        <ele>478.012465</ele>
        <time>2022-05-01T09:54:03.560Z</time>
      </trkpt>
      <trkpt lat="41.07512" lon="20.46266">
        <ele>478.023408</ele>
        <time>2022-05-01T09:54:06.538Z</time>
      </trkpt>
      <trkpt lat="41.07522" lon="20.46256">
        <ele>478.035595</ele>
        <time>2022-05-01T09:54:09.561Z</time>
      </trkpt>
      <trkpt lat="41.07532" lon="20.46245">
        <ele>477.917459</ele>
        <time>2022-05-01T09:54:12.543Z</time>
      </trkpt>
      <trkpt lat="41.0754" lon="20.46237">
        <ele>477.545221</ele>
        <time>2022-05-01T09:54:14.548Z</time>
      </trkpt>
      <trkpt lat="41.07549" lon="20.46228">
        <ele>477.133042</ele>
        <time>2022-05-01T09:54:16.547Z</time>
      </trkpt>
      <trkpt lat="41.07558" lon="20.46219">
        <ele>476.702128</ele>
        <time>2022-05-01T09:54:18.600Z</time>
      </trkpt>
      <trkpt lat="41.07568" lon="20.46209">
        <ele>476.240119</ele>
        <time>2022-05-01T09:54:20.568Z</time>
      </trkpt>
      <trkpt lat="41.07579" lon="20.46199">
        <ele>475.761555</ele>
        <time>2022-05-01T09:54:22.555Z</time>
      </trkpt>
      <trkpt lat="41.07589" lon="20.4619">
        <ele>475.287774</ele>
        <time>2022-05-01T09:54:24.563Z</time>
      </trkpt>
      <trkpt lat="41.076" lon="20.46181">
        <ele>474.818092</ele>
        <time>2022-05-01T09:54:26.549Z</time>
      </trkpt>
      <trkpt lat="41.07611" lon="20.46172">
        <ele>474.331526</ele>
        <time>2022-05-01T09:54:28.566Z</time>
      </trkpt>
      <trkpt lat="41.07622" lon="20.46164">
        <ele>473.850745</ele>
        <time>2022-05-01T09:54:30.558Z</time>
      </trkpt>
      <trkpt lat="41.07633" lon="20.46155">
        <ele>473.36673</ele>
        <time>2022-05-01T09:54:32.555Z</time>
      </trkpt>
      <trkpt lat="41.07644" lon="20.46147">
        <ele>472.889623</ele>
        <time>2022-05-01T09:54:34.547Z</time>
      </trkpt>
      <trkpt lat="41.07656" lon="20.4614">
        <ele>472.428723</ele>
        <time>2022-05-01T09:54:36.548Z</time>
      </trkpt>
      <trkpt lat="41.07666" lon="20.46133">
        <ele>471.992934</ele>
        <time>2022-05-01T09:54:38.567Z</time>
      </trkpt>
      <trkpt lat="41.07677" lon="20.46127">
        <ele>471.560616</ele>
        <time>2022-05-01T09:54:40.553Z</time>
      </trkpt>
      <trkpt lat="41.07688" lon="20.46122">
        <ele>471.088881</ele>
        <time>2022-05-01T09:54:42.552Z</time>
      </trkpt>
      <trkpt lat="41.07699" lon="20.46116">
        <ele>470.542424</ele>
        <time>2022-05-01T09:54:44.550Z</time>
      </trkpt>
      <trkpt lat="41.07711" lon="20.4611">
        <ele>469.958761</ele>
        <time>2022-05-01T09:54:46.579Z</time>
      </trkpt>
      <trkpt lat="41.07723" lon="20.46104">
        <ele>469.38601</ele>
        <time>2022-05-01T09:54:48.549Z</time>
      </trkpt>
      <trkpt lat="41.07736" lon="20.46098">
        <ele>468.801988</ele>
        <time>2022-05-01T09:54:50.557Z</time>
      </trkpt>
      <trkpt lat="41.07749" lon="20.46091">
        <ele>468.189449</ele>
        <time>2022-05-01T09:54:52.546Z</time>
      </trkpt>
      <trkpt lat="41.07763" lon="20.46084">
        <ele>467.521043</ele>
        <time>2022-05-01T09:54:54.546Z</time>
      </trkpt>
      <trkpt lat="41.07778" lon="20.46077">
        <ele>466.781924</ele>
        <time>2022-05-01T09:54:56.550Z</time>
      </trkpt>
      <trkpt lat="41.07795" lon="20.46069">
        <ele>465.989944</ele>
        <time>2022-05-01T09:54:58.540Z</time>
      </trkpt>
      <trkpt lat="41.07804" lon="20.46064">
        <ele>465.57341</ele>
        <time>2022-05-01T09:54:59.565Z</time>
      </trkpt>
      <trkpt lat="41.07812" lon="20.46059">
        <ele>465.169239</ele>
        <time>2022-05-01T09:55:00.537Z</time>
      </trkpt>
      <trkpt lat="41.07821" lon="20.46054">
        <ele>464.748877</ele>
        <time>2022-05-01T09:55:01.559Z</time>
      </trkpt>
      <trkpt lat="41.0783" lon="20.46049">
        <ele>464.320425</ele>
        <time>2022-05-01T09:55:02.542Z</time>
      </trkpt>
      <trkpt lat="41.07838" lon="20.46043">
        <ele>463.88738</ele>
        <time>2022-05-01T09:55:03.582Z</time>
      </trkpt>
      <trkpt lat="41.07846" lon="20.46037">
        <ele>463.464247</ele>
        <time>2022-05-01T09:55:04.554Z</time>
      </trkpt>
      <trkpt lat="41.07855" lon="20.4603">
        <ele>463.157709</ele>
        <time>2022-05-01T09:55:05.555Z</time>
      </trkpt>
      <trkpt lat="41.07862" lon="20.46022">
        <ele>462.926898</ele>
        <time>2022-05-01T09:55:06.550Z</time>
      </trkpt>
      <trkpt lat="41.07869" lon="20.46015">
        <ele>462.701532</ele>
        <time>2022-05-01T09:55:07.548Z</time>
      </trkpt>
      <trkpt lat="41.07876" lon="20.46006">
        <ele>462.476253</ele>
        <time>2022-05-01T09:55:08.555Z</time>
      </trkpt>
      <trkpt lat="41.07883" lon="20.45998">
        <ele>462.246109</ele>
        <time>2022-05-01T09:55:09.574Z</time>
      </trkpt>
      <trkpt lat="41.0789" lon="20.45989">
        <ele>462.003496</ele>
        <time>2022-05-01T09:55:10.538Z</time>
      </trkpt>
      <trkpt lat="41.07897" lon="20.4598">
        <ele>461.763084</ele>
        <time>2022-05-01T09:55:11.545Z</time>
      </trkpt>
      <trkpt lat="41.07904" lon="20.4597">
        <ele>461.521355</ele>
        <time>2022-05-01T09:55:12.550Z</time>
      </trkpt>
      <trkpt lat="41.07911" lon="20.45961">
        <ele>461.272598</ele>
        <time>2022-05-01T09:55:13.526Z</time>
      </trkpt>
      <trkpt lat="41.07918" lon="20.45951">
        <ele>461.028567</ele>
        <time>2022-05-01T09:55:14.588Z</time>
      </trkpt>
      <trkpt lat="41.07924" lon="20.45942">
        <ele>460.789241</ele>
        <time>2022-05-01T09:55:15.553Z</time>
      </trkpt>
      <trkpt lat="41.07931" lon="20.45933">
        <ele>460.562329</ele>
        <time>2022-05-01T09:55:16.550Z</time>
      </trkpt>
      <trkpt lat="41.07937" lon="20.45924">
        <ele>460.338461</ele>
        <time>2022-05-01T09:55:17.558Z</time>
      </trkpt>
      <trkpt lat="41.07949" lon="20.45908">
        <ele>459.916778</ele>
        <time>2022-05-01T09:55:19.549Z</time>
      </trkpt>
      <trkpt lat="41.07961" lon="20.45892">
        <ele>459.499832</ele>
        <time>2022-05-01T09:55:21.559Z</time>
      </trkpt>
      <trkpt lat="41.07972" lon="20.45876">
        <ele>459.093676</ele>
        <time>2022-05-01T09:55:23.547Z</time>
      </trkpt>
      <trkpt lat="41.07983" lon="20.4586">
        <ele>458.897685</ele>
        <time>2022-05-01T09:55:25.558Z</time>
      </trkpt>
      <trkpt lat="41.07995" lon="20.45844">
        <ele>458.895001</ele>
        <time>2022-05-01T09:55:27.567Z</time>
      </trkpt>
      <trkpt lat="41.08006" lon="20.45828">
        <ele>458.892324</ele>
        <time>2022-05-01T09:55:29.554Z</time>
      </trkpt>
      <trkpt lat="41.08017" lon="20.45813">
        <ele>458.889665</ele>
        <time>2022-05-01T09:55:31.546Z</time>
      </trkpt>
      <trkpt lat="41.08028" lon="20.45797">
        <ele>458.887026</ele>
        <time>2022-05-01T09:55:33.545Z</time>
      </trkpt>
      <trkpt lat="41.0804" lon="20.45781">
        <ele>458.884302</ele>
        <time>2022-05-01T09:55:35.546Z</time>
      </trkpt>
      <trkpt lat="41.08051" lon="20.45765">
        <ele>458.881549</ele>
        <time>2022-05-01T09:55:37.548Z</time>
      </trkpt>
      <trkpt lat="41.08062" lon="20.45749">
        <ele>458.878893</ele>
        <time>2022-05-01T09:55:39.561Z</time>
      </trkpt>
      <trkpt lat="41.08071" lon="20.45733">
        <ele>458.876391</ele>
        <time>2022-05-01T09:55:41.545Z</time>
      </trkpt>
      <trkpt lat="41.0808" lon="20.45717">
        <ele>458.874008</ele>
        <time>2022-05-01T09:55:43.547Z</time>
      </trkpt>
      <trkpt lat="41.08088" lon="20.45702">
        <ele>458.871781</ele>
        <time>2022-05-01T09:55:45.531Z</time>
      </trkpt>
      <trkpt lat="41.08095" lon="20.45688">
        <ele>458.869925</ele>
        <time>2022-05-01T09:55:47.567Z</time>
      </trkpt>
      <trkpt lat="41.08101" lon="20.45674">
        <ele>458.974879</ele>
        <time>2022-05-01T09:55:49.586Z</time>
      </trkpt>
      <trkpt lat="41.08107" lon="20.45662">
        <ele>459.069981</ele>
        <time>2022-05-01T09:55:51.554Z</time>
      </trkpt>
      <trkpt lat="41.08111" lon="20.4565">
        <ele>459.157794</ele>
        <time>2022-05-01T09:55:53.587Z</time>
      </trkpt>
      <trkpt lat="41.08116" lon="20.45639">
        <ele>459.243632</ele>
        <time>2022-05-01T09:55:55.535Z</time>
      </trkpt>
      <trkpt lat="41.0812" lon="20.45627">
        <ele>459.331635</ele>
        <time>2022-05-01T09:55:57.550Z</time>
      </trkpt>
      <trkpt lat="41.08125" lon="20.45615">
        <ele>459.420035</ele>
        <time>2022-05-01T09:55:59.556Z</time>
      </trkpt>
      <trkpt lat="41.0813" lon="20.45603">
        <ele>459.506505</ele>
        <time>2022-05-01T09:56:01.560Z</time>
      </trkpt>
      <trkpt lat="41.08135" lon="20.45592">
        <ele>459.594583</ele>
        <time>2022-05-01T09:56:03.550Z</time>
      </trkpt>
      <trkpt lat="41.08141" lon="20.4558">
        <ele>459.686045</ele>
        <time>2022-05-01T09:56:05.560Z</time>
      </trkpt>
      <trkpt lat="41.08146" lon="20.4557">
        <ele>459.771029</ele>
        <time>2022-05-01T09:56:07.548Z</time>
      </trkpt>
      <trkpt lat="41.08153" lon="20.4556">
        <ele>459.864269</ele>
        <time>2022-05-01T09:56:09.552Z</time>
      </trkpt>
      <trkpt lat="41.08162" lon="20.45549">
        <ele>459.964507</ele>
        <time>2022-05-01T09:56:11.542Z</time>
      </trkpt>
      <trkpt lat="41.0817" lon="20.4554">
        <ele>460.060705</ele>
        <time>2022-05-01T09:56:13.568Z</time>
      </trkpt>
      <trkpt lat="41.08178" lon="20.45532">
        <ele>460.148423</ele>
        <time>2022-05-01T09:56:15.576Z</time>
      </trkpt>
      <trkpt lat="41.08187" lon="20.45525">
        <ele>460.235881</ele>
        <time>2022-05-01T09:56:17.545Z</time>
      </trkpt>
      <trkpt lat="41.08195" lon="20.45519">
        <ele>460.318322</ele>
        <time>2022-05-01T09:56:19.561Z</time>
      </trkpt>
      <trkpt lat="41.08207" lon="20.45511">
        <ele>460.439635</ele>
        <time>2022-05-01T09:56:22.557Z</time>
      </trkpt>
      <trkpt lat="41.08216" lon="20.45505">
        <ele>460.708498</ele>
        <time>2022-05-01T09:56:24.552Z</time>
      </trkpt>
      <trkpt lat="41.08224" lon="20.45499">
        <ele>460.976325</ele>
        <time>2022-05-01T09:56:26.600Z</time>
      </trkpt>
      <trkpt lat="41.08232" lon="20.45492">
        <ele>461.240982</ele>
        <time>2022-05-01T09:56:28.557Z</time>
      </trkpt>
      <trkpt lat="41.08242" lon="20.45484">
        <ele>461.575396</ele>
        <time>2022-05-01T09:56:31.553Z</time>
      </trkpt>
      <trkpt lat="41.0825" lon="20.4548">
        <ele>461.846894</ele>
        <time>2022-05-01T09:56:35.567Z</time>
      </trkpt>
      <trkpt lat="41.08265" lon="20.45461">
        <ele>462.438161</ele>
        <time>2022-05-01T10:00:18.554Z</time>
      </trkpt>
      <trkpt lat="41.08272" lon="20.45449">
        <ele>462.757905</ele>
        <time>2022-05-01T10:00:22.545Z</time>
      </trkpt>
      <trkpt lat="41.08278" lon="20.45439">
        <ele>463.03254</ele>
        <time>2022-05-01T10:00:25.570Z</time>
      </trkpt>
      <trkpt lat="41.08283" lon="20.45428">
        <ele>463.324323</ele>
        <time>2022-05-01T10:00:28.546Z</time>
      </trkpt>
      <trkpt lat="41.08288" lon="20.45414">
        <ele>463.665241</ele>
        <time>2022-05-01T10:00:31.547Z</time>
      </trkpt>
      <trkpt lat="41.08293" lon="20.45399">
        <ele>464.001573</ele>
        <time>2022-05-01T10:00:34.558Z</time>
      </trkpt>
      <trkpt lat="41.08297" lon="20.45384">
        <ele>464.359998</ele>
        <time>2022-05-01T10:00:37.573Z</time>
      </trkpt>
      <trkpt lat="41.08302" lon="20.45368">
        <ele>464.732637</ele>
        <time>2022-05-01T10:00:40.559Z</time>
      </trkpt>
      <trkpt lat="41.08305" lon="20.45354">
        <ele>465.055674</ele>
        <time>2022-05-01T10:00:43.545Z</time>
      </trkpt>
      <trkpt lat="41.08309" lon="20.45341">
        <ele>465.363152</ele>
        <time>2022-05-01T10:00:46.567Z</time>
      </trkpt>
      <trkpt lat="41.08312" lon="20.45328">
        <ele>465.64006</ele>
        <time>2022-05-01T10:00:49.554Z</time>
      </trkpt>
      <trkpt lat="41.08318" lon="20.45314">
        <ele>465.65936</ele>
        <time>2022-05-01T10:00:53.594Z</time>
      </trkpt>
      <trkpt lat="41.08322" lon="20.45302">
        <ele>465.674598</ele>
        <time>2022-05-01T10:00:56.552Z</time>
      </trkpt>
      <trkpt lat="41.08328" lon="20.45291">
        <ele>465.690297</ele>
        <time>2022-05-01T10:00:59.531Z</time>
      </trkpt>
      <trkpt lat="41.08334" lon="20.45279">
        <ele>465.707116</ele>
        <time>2022-05-01T10:01:02.553Z</time>
      </trkpt>
      <trkpt lat="41.08342" lon="20.45269">
        <ele>465.724706</ele>
        <time>2022-05-01T10:01:05.554Z</time>
      </trkpt>
      <trkpt lat="41.0835" lon="20.4526">
        <ele>465.741311</ele>
        <time>2022-05-01T10:01:08.561Z</time>
      </trkpt>
      <trkpt lat="41.0836" lon="20.45251">
        <ele>465.759516</ele>
        <time>2022-05-01T10:01:11.558Z</time>
      </trkpt>
      <trkpt lat="41.08369" lon="20.45244">
        <ele>465.776587</ele>
        <time>2022-05-01T10:01:14.539Z</time>
      </trkpt>
      <trkpt lat="41.08378" lon="20.45238">
        <ele>465.792331</ele>
        <time>2022-05-01T10:01:17.535Z</time>
      </trkpt>
      <trkpt lat="41.08388" lon="20.45234">
        <ele>465.808806</ele>
        <time>2022-05-01T10:01:20.557Z</time>
      </trkpt>
      <trkpt lat="41.08399" lon="20.4523">
        <ele>465.825338</ele>
        <time>2022-05-01T10:01:23.559Z</time>
      </trkpt>
      <trkpt lat="41.08412" lon="20.45226">
        <ele>465.846186</ele>
        <time>2022-05-01T10:01:26.551Z</time>
      </trkpt>
      <trkpt lat="41.08424" lon="20.45223">
        <ele>465.865636</ele>
        <time>2022-05-01T10:01:29.558Z</time>
      </trkpt>
      <trkpt lat="41.08435" lon="20.45219">
        <ele>465.884299</ele>
        <time>2022-05-01T10:01:32.602Z</time>
      </trkpt>
      <trkpt lat="41.08447" lon="20.45215">
        <ele>465.90264</ele>
        <time>2022-05-01T10:01:35.541Z</time>
      </trkpt>
      <trkpt lat="41.08457" lon="20.45212">
        <ele>465.91938</ele>
        <time>2022-05-01T10:01:38.551Z</time>
      </trkpt>
      <trkpt lat="41.08467" lon="20.45208">
        <ele>465.998209</ele>
        <time>2022-05-01T10:01:41.543Z</time>
      </trkpt>
      <trkpt lat="41.08476" lon="20.45205">
        <ele>466.073508</ele>
        <time>2022-05-01T10:01:44.555Z</time>
      </trkpt>
      <trkpt lat="41.08486" lon="20.45201">
        <ele>466.151437</ele>
        <time>2022-05-01T10:01:47.566Z</time>
      </trkpt>
      <trkpt lat="41.08495" lon="20.45197">
        <ele>466.23041</ele>
        <time>2022-05-01T10:01:50.549Z</time>
      </trkpt>
      <trkpt lat="41.08504" lon="20.45193">
        <ele>466.308795</ele>
        <time>2022-05-01T10:01:53.568Z</time>
      </trkpt>
      <trkpt lat="41.08513" lon="20.45189">
        <ele>466.386231</ele>
        <time>2022-05-01T10:01:56.570Z</time>
      </trkpt>
      <trkpt lat="41.08523" lon="20.45184">
        <ele>466.46754</ele>
        <time>2022-05-01T10:01:59.550Z</time>
      </trkpt>
      <trkpt lat="41.08533" lon="20.45179">
        <ele>466.556369</ele>
        <time>2022-05-01T10:02:02.573Z</time>
      </trkpt>
      <trkpt lat="41.08543" lon="20.45174">
        <ele>466.637149</ele>
        <time>2022-05-01T10:02:05.552Z</time>
      </trkpt>
      <trkpt lat="41.08553" lon="20.4517">
        <ele>466.72125</ele>
        <time>2022-05-01T10:02:08.557Z</time>
      </trkpt>
      <trkpt lat="41.08563" lon="20.45165">
        <ele>466.806662</ele>
        <time>2022-05-01T10:02:11.554Z</time>
      </trkpt>
      <trkpt lat="41.08574" lon="20.45161">
        <ele>466.901601</ele>
        <time>2022-05-01T10:02:14.539Z</time>
      </trkpt>
      <trkpt lat="41.08585" lon="20.45157">
        <ele>466.991618</ele>
        <time>2022-05-01T10:02:17.551Z</time>
      </trkpt>
      <trkpt lat="41.08595" lon="20.45152">
        <ele>467.077982</ele>
        <time>2022-05-01T10:02:20.554Z</time>
      </trkpt>
      <trkpt lat="41.08606" lon="20.45148">
        <ele>467.166617</ele>
        <time>2022-05-01T10:02:23.555Z</time>
      </trkpt>
      <trkpt lat="41.08617" lon="20.45143">
        <ele>467.258006</ele>
        <time>2022-05-01T10:02:26.546Z</time>
      </trkpt>
      <trkpt lat="41.08628" lon="20.4514">
        <ele>467.349075</ele>
        <time>2022-05-01T10:02:29.581Z</time>
      </trkpt>
      <trkpt lat="41.08638" lon="20.45136">
        <ele>467.857498</ele>
        <time>2022-05-01T10:02:32.560Z</time>
      </trkpt>
      <trkpt lat="41.08648" lon="20.45132">
        <ele>468.418174</ele>
        <time>2022-05-01T10:02:35.540Z</time>
      </trkpt>
      <trkpt lat="41.08658" lon="20.45128">
        <ele>468.941547</ele>
        <time>2022-05-01T10:02:38.548Z</time>
      </trkpt>
      <trkpt lat="41.08669" lon="20.45123">
        <ele>469.579145</ele>
        <time>2022-05-01T10:02:42.540Z</time>
      </trkpt>
      <trkpt lat="41.0868" lon="20.45118">
        <ele>470.212743</ele>
        <time>2022-05-01T10:02:46.598Z</time>
      </trkpt>
      <trkpt lat="41.0869" lon="20.45114">
        <ele>470.765904</ele>
        <time>2022-05-01T10:02:50.554Z</time>
      </trkpt>
      <trkpt lat="41.087" lon="20.45109">
        <ele>471.338151</ele>
        <time>2022-05-01T10:02:55.552Z</time>
      </trkpt>
      <trkpt lat="41.0871" lon="20.45102">
        <ele>471.919279</ele>
        <time>2022-05-01T10:03:00.547Z</time>
      </trkpt>
      <trkpt lat="41.08719" lon="20.45096">
        <ele>472.434179</ele>
        <time>2022-05-01T10:03:04.548Z</time>
      </trkpt>
      <trkpt lat="41.08728" lon="20.45089">
        <ele>472.990558</ele>
        <time>2022-05-01T10:03:08.596Z</time>
      </trkpt>
      <trkpt lat="41.08736" lon="20.45083">
        <ele>473.497249</ele>
        <time>2022-05-01T10:03:12.556Z</time>
      </trkpt>
      <trkpt lat="41.08745" lon="20.45075">
        <ele>474.070091</ele>
        <time>2022-05-01T10:03:17.546Z</time>
      </trkpt>
      <trkpt lat="41.08753" lon="20.45068">
        <ele>474.567849</ele>
        <time>2022-05-01T10:03:21.559Z</time>
      </trkpt>
      <trkpt lat="41.0876" lon="20.45061">
        <ele>475.065607</ele>
        <time>2022-05-01T10:03:25.560Z</time>
      </trkpt>
      <trkpt lat="41.08768" lon="20.45053">
        <ele>475.569007</ele>
        <time>2022-05-01T10:03:29.568Z</time>
      </trkpt>
      <trkpt lat="41.08775" lon="20.45044">
        <ele>476.081949</ele>
        <time>2022-05-01T10:03:34.552Z</time>
      </trkpt>
      <trkpt lat="41.08783" lon="20.45036">
        <ele>476.613666</ele>
        <time>2022-05-01T10:03:38.559Z</time>
      </trkpt>
      <trkpt lat="41.0879" lon="20.45028">
        <ele>477.157135</ele>
        <time>2022-05-01T10:03:42.580Z</time>
      </trkpt>
      <trkpt lat="41.08796" lon="20.45019">
        <ele>477.733043</ele>
        <time>2022-05-01T10:03:46.548Z</time>
      </trkpt>
      <trkpt lat="41.08803" lon="20.45011">
        <ele>478.308951</ele>
        <time>2022-05-01T10:03:50.566Z</time>
      </trkpt>
      <trkpt lat="41.08809" lon="20.45">
        <ele>478.977488</ele>
        <time>2022-05-01T10:03:56.566Z</time>
      </trkpt>
      <trkpt lat="41.08816" lon="20.44989">
        <ele>479.627165</ele>
        <time>2022-05-01T10:04:01.548Z</time>
      </trkpt>
      <trkpt lat="41.08822" lon="20.44978">
        <ele>480.269548</ele>
        <time>2022-05-01T10:04:06.557Z</time>
      </trkpt>
      <trkpt lat="41.08827" lon="20.44968">
        <ele>480.840822</ele>
        <time>2022-05-01T10:04:10.551Z</time>
      </trkpt>
      <trkpt lat="41.08833" lon="20.44956">
        <ele>481.533662</ele>
        <time>2022-05-01T10:04:15.576Z</time>
      </trkpt>
      <trkpt lat="41.08838" lon="20.44943">
        <ele>482.219687</ele>
        <time>2022-05-01T10:04:20.558Z</time>
      </trkpt>
      <trkpt lat="41.08843" lon="20.44932">
        <ele>482.817492</ele>
        <time>2022-05-01T10:04:25.567Z</time>
      </trkpt>
      <trkpt lat="41.08848" lon="20.4492">
        <ele>483.477352</ele>
        <time>2022-05-01T10:04:31.549Z</time>
      </trkpt>
      <trkpt lat="41.08852" lon="20.44909">
        <ele>484.060824</ele>
        <time>2022-05-01T10:04:36.548Z</time>
      </trkpt>
      <trkpt lat="41.08857" lon="20.44897">
        <ele>484.696372</ele>
        <time>2022-05-01T10:04:42.564Z</time>
      </trkpt>
      <trkpt lat="41.08861" lon="20.44885">
        <ele>485.365008</ele>
        <time>2022-05-01T10:04:49.532Z</time>
      </trkpt>
      <trkpt lat="41.08866" lon="20.44873">
        <ele>485.986887</ele>
        <time>2022-05-01T10:04:56.565Z</time>
      </trkpt>
      <trkpt lat="41.0887" lon="20.44862">
        <ele>486.559786</ele>
        <time>2022-05-01T10:05:01.560Z</time>
      </trkpt>
      <trkpt lat="41.08874" lon="20.44851">
        <ele>487.149238</ele>
        <time>2022-05-01T10:05:06.558Z</time>
      </trkpt>
      <trkpt lat="41.08877" lon="20.44839">
        <ele>487.728015</ele>
        <time>2022-05-01T10:05:11.538Z</time>
      </trkpt>
      <trkpt lat="41.08879" lon="20.44827">
        <ele>488.230864</ele>
        <time>2022-05-01T10:05:16.574Z</time>
      </trkpt>
      <trkpt lat="41.08882" lon="20.44813">
        <ele>488.042197</ele>
        <time>2022-05-01T10:05:21.555Z</time>
      </trkpt>
      <trkpt lat="41.08884" lon="20.44799">
        <ele>487.857463</ele>
        <time>2022-05-01T10:05:25.532Z</time>
      </trkpt>
      <trkpt lat="41.08886" lon="20.44786">
        <ele>487.682178</ele>
        <time>2022-05-01T10:05:28.551Z</time>
      </trkpt>
      <trkpt lat="41.08891" lon="20.44773">
        <ele>487.500675</ele>
        <time>2022-05-01T10:05:31.548Z</time>
      </trkpt>
      <trkpt lat="41.08896" lon="20.44758">
        <ele>487.290143</ele>
        <time>2022-05-01T10:05:34.561Z</time>
      </trkpt>
      <trkpt lat="41.08902" lon="20.44748">
        <ele>487.131568</ele>
        <time>2022-05-01T10:05:36.549Z</time>
      </trkpt>
      <trkpt lat="41.08908" lon="20.44738">
        <ele>486.953207</ele>
        <time>2022-05-01T10:05:38.550Z</time>
      </trkpt>
      <trkpt lat="41.08916" lon="20.44727">
        <ele>486.757508</ele>
        <time>2022-05-01T10:05:40.546Z</time>
      </trkpt>
      <trkpt lat="41.08925" lon="20.44717">
        <ele>486.564245</ele>
        <time>2022-05-01T10:05:42.551Z</time>
      </trkpt>
      <trkpt lat="41.08934" lon="20.44707">
        <ele>486.362319</ele>
        <time>2022-05-01T10:05:44.547Z</time>
      </trkpt>
      <trkpt lat="41.08944" lon="20.44697">
        <ele>486.141342</ele>
        <time>2022-05-01T10:05:46.559Z</time>
      </trkpt>
      <trkpt lat="41.08955" lon="20.44684">
        <ele>485.889927</ele>
        <time>2022-05-01T10:05:48.555Z</time>
      </trkpt>
      <trkpt lat="41.08967" lon="20.44672">
        <ele>485.632056</ele>
        <time>2022-05-01T10:05:50.540Z</time>
      </trkpt>
      <trkpt lat="41.08978" lon="20.44659">
        <ele>485.375005</ele>
        <time>2022-05-01T10:05:52.569Z</time>
      </trkpt>
      <trkpt lat="41.0899" lon="20.44646">
        <ele>484.967311</ele>
        <time>2022-05-01T10:05:54.539Z</time>
      </trkpt>
      <trkpt lat="41.09002" lon="20.44634">
        <ele>484.076307</ele>
        <time>2022-05-01T10:05:56.538Z</time>
      </trkpt>
      <trkpt lat="41.09015" lon="20.44622">
        <ele>483.154664</ele>
        <time>2022-05-01T10:05:58.546Z</time>
      </trkpt>
      <trkpt lat="41.09028" lon="20.44611">
        <ele>482.240631</ele>
        <time>2022-05-01T10:06:00.556Z</time>
      </trkpt>
      <trkpt lat="41.09042" lon="20.446">
        <ele>481.283835</ele>
        <time>2022-05-01T10:06:02.566Z</time>
      </trkpt>
      <trkpt lat="41.09058" lon="20.44588">
        <ele>480.223454</ele>
        <time>2022-05-01T10:06:04.558Z</time>
      </trkpt>
      <trkpt lat="41.09066" lon="20.44581">
        <ele>479.646535</ele>
        <time>2022-05-01T10:06:05.535Z</time>
      </trkpt>
      <trkpt lat="41.09076" lon="20.44574">
        <ele>479.030191</ele>
        <time>2022-05-01T10:06:06.550Z</time>
      </trkpt>
      <trkpt lat="41.09085" lon="20.44567">
        <ele>478.399235</ele>
        <time>2022-05-01T10:06:07.548Z</time>
      </trkpt>
      <trkpt lat="41.09095" lon="20.4456">
        <ele>477.725909</ele>
        <time>2022-05-01T10:06:08.548Z</time>
      </trkpt>
      <trkpt lat="41.09105" lon="20.44553">
        <ele>477.03609</ele>
        <time>2022-05-01T10:06:09.549Z</time>
      </trkpt>
      <trkpt lat="41.09116" lon="20.44546">
        <ele>476.333114</ele>
        <time>2022-05-01T10:06:10.575Z</time>
      </trkpt>
      <trkpt lat="41.09127" lon="20.4454">
        <ele>475.635404</ele>
        <time>2022-05-01T10:06:11.559Z</time>
      </trkpt>
      <trkpt lat="41.09138" lon="20.44535">
        <ele>474.93902</ele>
        <time>2022-05-01T10:06:12.590Z</time>
      </trkpt>
      <trkpt lat="41.0915" lon="20.44532">
        <ele>474.328346</ele>
        <time>2022-05-01T10:06:13.535Z</time>
      </trkpt>
      <trkpt lat="41.09162" lon="20.4453">
        <ele>473.775481</ele>
        <time>2022-05-01T10:06:14.567Z</time>
      </trkpt>
      <trkpt lat="41.09173" lon="20.44529">
        <ele>473.250691</ele>
        <time>2022-05-01T10:06:15.560Z</time>
      </trkpt>
      <trkpt lat="41.09184" lon="20.4453">
        <ele>472.753082</ele>
        <time>2022-05-01T10:06:16.551Z</time>
      </trkpt>
      <trkpt lat="41.09195" lon="20.44531">
        <ele>472.237255</ele>
        <time>2022-05-01T10:06:17.552Z</time>
      </trkpt>
      <trkpt lat="41.09206" lon="20.44531">
        <ele>471.758468</ele>
        <time>2022-05-01T10:06:18.548Z</time>
      </trkpt>
      <trkpt lat="41.09216" lon="20.44531">
        <ele>471.30657</ele>
        <time>2022-05-01T10:06:19.553Z</time>
      </trkpt>
      <trkpt lat="41.09233" lon="20.44535">
        <ele>470.505088</ele>
        <time>2022-05-01T10:06:21.565Z</time>
      </trkpt>
      <trkpt lat="41.0925" lon="20.44536">
        <ele>469.722899</ele>
        <time>2022-05-01T10:06:23.585Z</time>
      </trkpt>
      <trkpt lat="41.09264" lon="20.44538">
        <ele>469.086984</ele>
        <time>2022-05-01T10:06:25.546Z</time>
      </trkpt>
      <trkpt lat="41.09278" lon="20.44538">
        <ele>468.475874</ele>
        <time>2022-05-01T10:06:27.559Z</time>
      </trkpt>
      <trkpt lat="41.09293" lon="20.44537">
        <ele>467.773115</ele>
        <time>2022-05-01T10:06:29.586Z</time>
      </trkpt>
      <trkpt lat="41.09309" lon="20.44535">
        <ele>467.030898</ele>
        <time>2022-05-01T10:06:31.559Z</time>
      </trkpt>
      <trkpt lat="41.09327" lon="20.44529">
        <ele>466.19231</ele>
        <time>2022-05-01T10:06:33.562Z</time>
      </trkpt>
      <trkpt lat="41.09335" lon="20.44524">
        <ele>465.716872</ele>
        <time>2022-05-01T10:06:34.546Z</time>
      </trkpt>
      <trkpt lat="41.09344" lon="20.4452">
        <ele>465.21025</ele>
        <time>2022-05-01T10:06:35.586Z</time>
      </trkpt>
      <trkpt lat="41.09354" lon="20.44515">
        <ele>464.693946</ele>
        <time>2022-05-01T10:06:36.627Z</time>
      </trkpt>
      <trkpt lat="41.09363" lon="20.4451">
        <ele>464.158197</ele>
        <time>2022-05-01T10:06:37.538Z</time>
      </trkpt>
      <trkpt lat="41.09373" lon="20.44506">
        <ele>463.614017</ele>
        <time>2022-05-01T10:06:38.547Z</time>
      </trkpt>
      <trkpt lat="41.09384" lon="20.44503">
        <ele>463.060138</ele>
        <time>2022-05-01T10:06:39.615Z</time>
      </trkpt>
      <trkpt lat="41.09394" lon="20.44501">
        <ele>462.531434</ele>
        <time>2022-05-01T10:06:40.546Z</time>
      </trkpt>
      <trkpt lat="41.09404" lon="20.445">
        <ele>461.984989</ele>
        <time>2022-05-01T10:06:41.554Z</time>
      </trkpt>
      <trkpt lat="41.09415" lon="20.44499">
        <ele>461.422373</ele>
        <time>2022-05-01T10:06:42.551Z</time>
      </trkpt>
      <trkpt lat="41.09425" lon="20.44498">
        <ele>460.887298</ele>
        <time>2022-05-01T10:06:43.549Z</time>
      </trkpt>
      <trkpt lat="41.09436" lon="20.44496">
        <ele>460.342645</ele>
        <time>2022-05-01T10:06:44.543Z</time>
      </trkpt>
      <trkpt lat="41.09446" lon="20.44493">
        <ele>459.815087</ele>
        <time>2022-05-01T10:06:45.562Z</time>
      </trkpt>
      <trkpt lat="41.09455" lon="20.44488">
        <ele>459.274649</ele>
        <time>2022-05-01T10:06:46.598Z</time>
      </trkpt>
      <trkpt lat="41.09465" lon="20.44483">
        <ele>458.757365</ele>
        <time>2022-05-01T10:06:47.576Z</time>
      </trkpt>
      <trkpt lat="41.09473" lon="20.44477">
        <ele>458.256866</ele>
        <time>2022-05-01T10:06:48.544Z</time>
      </trkpt>
      <trkpt lat="41.09481" lon="20.44471">
        <ele>457.774607</ele>
        <time>2022-05-01T10:06:49.552Z</time>
      </trkpt>
      <trkpt lat="41.09496" lon="20.44458">
        <ele>456.791549</ele>
        <time>2022-05-01T10:06:51.543Z</time>
      </trkpt>
      <trkpt lat="41.09505" lon="20.4445">
        <ele>456.172027</ele>
        <time>2022-05-01T10:06:52.540Z</time>
      </trkpt>
      <trkpt lat="41.09513" lon="20.44443">
        <ele>455.567959</ele>
        <time>2022-05-01T10:06:53.555Z</time>
      </trkpt>
      <trkpt lat="41.09522" lon="20.44436">
        <ele>454.950916</ele>
        <time>2022-05-01T10:06:54.533Z</time>
      </trkpt>
      <trkpt lat="41.0953" lon="20.44429">
        <ele>454.303207</ele>
        <time>2022-05-01T10:06:55.552Z</time>
      </trkpt>
      <trkpt lat="41.09539" lon="20.44422">
        <ele>453.709357</ele>
        <time>2022-05-01T10:06:56.551Z</time>
      </trkpt>
      <trkpt lat="41.09547" lon="20.44415">
        <ele>453.106655</ele>
        <time>2022-05-01T10:06:57.640Z</time>
      </trkpt>
      <trkpt lat="41.09556" lon="20.44409">
        <ele>452.499533</ele>
        <time>2022-05-01T10:06:58.548Z</time>
      </trkpt>
      <trkpt lat="41.09566" lon="20.44405">
        <ele>451.846228</ele>
        <time>2022-05-01T10:06:59.571Z</time>
      </trkpt>
      <trkpt lat="41.09577" lon="20.44401">
        <ele>451.143118</ele>
        <time>2022-05-01T10:07:00.573Z</time>
      </trkpt>
      <trkpt lat="41.09589" lon="20.44399">
        <ele>450.423235</ele>
        <time>2022-05-01T10:07:01.542Z</time>
      </trkpt>
      <trkpt lat="41.09601" lon="20.44398">
        <ele>449.672576</ele>
        <time>2022-05-01T10:07:02.539Z</time>
      </trkpt>
      <trkpt lat="41.09613" lon="20.44397">
        <ele>448.910563</ele>
        <time>2022-05-01T10:07:03.547Z</time>
      </trkpt>
      <trkpt lat="41.09626" lon="20.44396">
        <ele>448.128026</ele>
        <time>2022-05-01T10:07:04.562Z</time>
      </trkpt>
      <trkpt lat="41.09638" lon="20.44393">
        <ele>447.355202</ele>
        <time>2022-05-01T10:07:05.543Z</time>
      </trkpt>
      <trkpt lat="41.0965" lon="20.44387">
        <ele>446.602635</ele>
        <time>2022-05-01T10:07:06.543Z</time>
      </trkpt>
      <trkpt lat="41.09661" lon="20.44381">
        <ele>445.885801</ele>
        <time>2022-05-01T10:07:07.615Z</time>
      </trkpt>
      <trkpt lat="41.09672" lon="20.44376">
        <ele>445.323658</ele>
        <time>2022-05-01T10:07:08.541Z</time>
      </trkpt>
      <trkpt lat="41.09682" lon="20.44371">
        <ele>444.802326</ele>
        <time>2022-05-01T10:07:09.547Z</time>
      </trkpt>
      <trkpt lat="41.09692" lon="20.44367">
        <ele>444.275112</ele>
        <time>2022-05-01T10:07:10.557Z</time>
      </trkpt>
      <trkpt lat="41.09703" lon="20.44364">
        <ele>443.764916</ele>
        <time>2022-05-01T10:07:11.545Z</time>
      </trkpt>
      <trkpt lat="41.09713" lon="20.44363">
        <ele>443.267618</ele>
        <time>2022-05-01T10:07:12.610Z</time>
      </trkpt>
      <trkpt lat="41.09723" lon="20.44364">
        <ele>442.776145</ele>
        <time>2022-05-01T10:07:13.595Z</time>
      </trkpt>
      <trkpt lat="41.09732" lon="20.44366">
        <ele>442.31772</ele>
        <time>2022-05-01T10:07:14.565Z</time>
      </trkpt>
      <trkpt lat="41.09741" lon="20.44369">
        <ele>441.868663</ele>
        <time>2022-05-01T10:07:15.543Z</time>
      </trkpt>
      <trkpt lat="41.09757" lon="20.44378">
        <ele>441.045022</ele>
        <time>2022-05-01T10:07:17.556Z</time>
      </trkpt>
      <trkpt lat="41.0977" lon="20.44389">
        <ele>440.285624</ele>
        <time>2022-05-01T10:07:19.570Z</time>
      </trkpt>
      <trkpt lat="41.09783" lon="20.444">
        <ele>439.542582</ele>
        <time>2022-05-01T10:07:21.543Z</time>
      </trkpt>
      <trkpt lat="41.09796" lon="20.44412">
        <ele>438.775237</ele>
        <time>2022-05-01T10:07:23.561Z</time>
      </trkpt>
      <trkpt lat="41.09809" lon="20.44423">
        <ele>438.031856</ele>
        <time>2022-05-01T10:07:25.545Z</time>
      </trkpt>
      <trkpt lat="41.09823" lon="20.44432">
        <ele>437.265066</ele>
        <time>2022-05-01T10:07:27.559Z</time>
      </trkpt>
      <trkpt lat="41.09838" lon="20.44439">
        <ele>436.455138</ele>
        <time>2022-05-01T10:07:29.579Z</time>
      </trkpt>
      <trkpt lat="41.09856" lon="20.44443">
        <ele>435.57418</ele>
        <time>2022-05-01T10:07:31.544Z</time>
      </trkpt>
      <trkpt lat="41.09866" lon="20.44442">
        <ele>435.093798</ele>
        <time>2022-05-01T10:07:32.559Z</time>
      </trkpt>
      <trkpt lat="41.09875" lon="20.4444">
        <ele>434.604368</ele>
        <time>2022-05-01T10:07:33.555Z</time>
      </trkpt>
      <trkpt lat="41.09885" lon="20.44437">
        <ele>434.126088</ele>
        <time>2022-05-01T10:07:34.560Z</time>
      </trkpt>
      <trkpt lat="41.09894" lon="20.44433">
        <ele>433.644353</ele>
        <time>2022-05-01T10:07:35.552Z</time>
      </trkpt>
      <trkpt lat="41.09902" lon="20.44427">
        <ele>433.180299</ele>
        <time>2022-05-01T10:07:36.558Z</time>
      </trkpt>
      <trkpt lat="41.0991" lon="20.4442">
        <ele>432.703783</ele>
        <time>2022-05-01T10:07:37.563Z</time>
      </trkpt>
      <trkpt lat="41.09918" lon="20.44411">
        <ele>432.204805</ele>
        <time>2022-05-01T10:07:38.554Z</time>
      </trkpt>
      <trkpt lat="41.09924" lon="20.44401">
        <ele>431.71293</ele>
        <time>2022-05-01T10:07:39.648Z</time>
      </trkpt>
      <trkpt lat="41.0993" lon="20.44391">
        <ele>431.242213</ele>
        <time>2022-05-01T10:07:40.577Z</time>
      </trkpt>
      <trkpt lat="41.09938" lon="20.44371">
        <ele>430.397748</ele>
        <time>2022-05-01T10:07:42.554Z</time>
      </trkpt>
      <trkpt lat="41.0994" lon="20.44359">
        <ele>429.922826</ele>
        <time>2022-05-01T10:07:43.533Z</time>
      </trkpt>
      <trkpt lat="41.09941" lon="20.44346">
        <ele>429.448029</ele>
        <time>2022-05-01T10:07:44.556Z</time>
      </trkpt>
      <trkpt lat="41.09942" lon="20.44333">
        <ele>428.967025</ele>
        <time>2022-05-01T10:07:45.556Z</time>
      </trkpt>
      <trkpt lat="41.09941" lon="20.4432">
        <ele>428.465917</ele>
        <time>2022-05-01T10:07:46.565Z</time>
      </trkpt>
      <trkpt lat="41.09939" lon="20.44307">
        <ele>428.043289</ele>
        <time>2022-05-01T10:07:47.565Z</time>
      </trkpt>
      <trkpt lat="41.09936" lon="20.44294">
        <ele>427.639546</ele>
        <time>2022-05-01T10:07:48.562Z</time>
      </trkpt>
      <trkpt lat="41.09932" lon="20.44283">
        <ele>427.261964</ele>
        <time>2022-05-01T10:07:49.537Z</time>
      </trkpt>
      <trkpt lat="41.09922" lon="20.44263">
        <ele>426.55057</ele>
        <time>2022-05-01T10:07:51.593Z</time>
      </trkpt>
      <trkpt lat="41.0991" lon="20.44247">
        <ele>425.867145</ele>
        <time>2022-05-01T10:07:53.553Z</time>
      </trkpt>
      <trkpt lat="41.09895" lon="20.44233">
        <ele>425.134425</ele>
        <time>2022-05-01T10:07:55.554Z</time>
      </trkpt>
      <trkpt lat="41.09887" lon="20.44226">
        <ele>424.734721</ele>
        <time>2022-05-01T10:07:56.546Z</time>
      </trkpt>
      <trkpt lat="41.09878" lon="20.44219">
        <ele>424.323219</ele>
        <time>2022-05-01T10:07:57.543Z</time>
      </trkpt>
      <trkpt lat="41.09869" lon="20.44212">
        <ele>423.919884</ele>
        <time>2022-05-01T10:07:58.543Z</time>
      </trkpt>
      <trkpt lat="41.09861" lon="20.44205">
        <ele>423.525189</ele>
        <time>2022-05-01T10:07:59.551Z</time>
      </trkpt>
      <trkpt lat="41.09853" lon="20.44197">
        <ele>423.129998</ele>
        <time>2022-05-01T10:08:00.546Z</time>
      </trkpt>
      <trkpt lat="41.09846" lon="20.44189">
        <ele>422.747225</ele>
        <time>2022-05-01T10:08:01.538Z</time>
      </trkpt>
      <trkpt lat="41.09839" lon="20.44179">
        <ele>422.358099</ele>
        <time>2022-05-01T10:08:02.592Z</time>
      </trkpt>
      <trkpt lat="41.09834" lon="20.44169">
        <ele>421.981225</ele>
        <time>2022-05-01T10:08:03.562Z</time>
      </trkpt>
      <trkpt lat="41.0983" lon="20.44157">
        <ele>421.585981</ele>
        <time>2022-05-01T10:08:04.547Z</time>
      </trkpt>
      <trkpt lat="41.09827" lon="20.44145">
        <ele>421.203602</ele>
        <time>2022-05-01T10:08:05.559Z</time>
      </trkpt>
      <trkpt lat="41.09826" lon="20.44132">
        <ele>420.939098</ele>
        <time>2022-05-01T10:08:06.568Z</time>
      </trkpt>
      <trkpt lat="41.09827" lon="20.44118">
        <ele>420.69524</ele>
        <time>2022-05-01T10:08:07.547Z</time>
      </trkpt>
      <trkpt lat="41.09829" lon="20.44103">
        <ele>420.404909</ele>
        <time>2022-05-01T10:08:08.566Z</time>
      </trkpt>
      <trkpt lat="41.09833" lon="20.44088">
        <ele>420.136095</ele>
        <time>2022-05-01T10:08:09.551Z</time>
      </trkpt>
      <trkpt lat="41.09836" lon="20.44075">
        <ele>419.876923</ele>
        <time>2022-05-01T10:08:10.536Z</time>
      </trkpt>
      <trkpt lat="41.0984" lon="20.44062">
        <ele>419.62446</ele>
        <time>2022-05-01T10:08:11.551Z</time>
      </trkpt>
      <trkpt lat="41.09843" lon="20.44048">
        <ele>419.369495</ele>
        <time>2022-05-01T10:08:12.553Z</time>
      </trkpt>
      <trkpt lat="41.09847" lon="20.44036">
        <ele>419.130554</ele>
        <time>2022-05-01T10:08:13.599Z</time>
      </trkpt>
      <trkpt lat="41.09851" lon="20.44023">
        <ele>418.886579</ele>
        <time>2022-05-01T10:08:14.564Z</time>
      </trkpt>
      <trkpt lat="41.09854" lon="20.44011">
        <ele>418.640912</ele>
        <time>2022-05-01T10:08:15.555Z</time>
      </trkpt>
      <trkpt lat="41.09858" lon="20.43998">
        <ele>418.397796</ele>
        <time>2022-05-01T10:08:16.548Z</time>
      </trkpt>
      <trkpt lat="41.09862" lon="20.43986">
        <ele>418.156288</ele>
        <time>2022-05-01T10:08:17.548Z</time>
      </trkpt>
      <trkpt lat="41.09865" lon="20.43973">
        <ele>417.917348</ele>
        <time>2022-05-01T10:08:18.557Z</time>
      </trkpt>
      <trkpt lat="41.0987" lon="20.43961">
        <ele>417.675359</ele>
        <time>2022-05-01T10:08:19.528Z</time>
      </trkpt>
      <trkpt lat="41.09874" lon="20.43949">
        <ele>417.437269</ele>
        <time>2022-05-01T10:08:20.550Z</time>
      </trkpt>
      <trkpt lat="41.09879" lon="20.43938">
        <ele>417.203965</ele>
        <time>2022-05-01T10:08:21.550Z</time>
      </trkpt>
      <trkpt lat="41.09883" lon="20.43927">
        <ele>416.972681</ele>
        <time>2022-05-01T10:08:22.558Z</time>
      </trkpt>
      <trkpt lat="41.09888" lon="20.43916">
        <ele>416.69153</ele>
        <time>2022-05-01T10:08:23.552Z</time>
      </trkpt>
      <trkpt lat="41.09894" lon="20.43905">
        <ele>416.354806</ele>
        <time>2022-05-01T10:08:24.588Z</time>
      </trkpt>
      <trkpt lat="41.099" lon="20.43895">
        <ele>416.017765</ele>
        <time>2022-05-01T10:08:25.550Z</time>
      </trkpt>
      <trkpt lat="41.09907" lon="20.43886">
        <ele>415.687433</ele>
        <time>2022-05-01T10:08:26.567Z</time>
      </trkpt>
      <trkpt lat="41.09914" lon="20.43877">
        <ele>415.361852</ele>
        <time>2022-05-01T10:08:27.548Z</time>
      </trkpt>
      <trkpt lat="41.09922" lon="20.43869">
        <ele>415.031665</ele>
        <time>2022-05-01T10:08:28.551Z</time>
      </trkpt>
      <trkpt lat="41.09929" lon="20.43862">
        <ele>414.705633</ele>
        <time>2022-05-01T10:08:29.549Z</time>
      </trkpt>
      <trkpt lat="41.09937" lon="20.43855">
        <ele>414.389654</ele>
        <time>2022-05-01T10:08:30.547Z</time>
      </trkpt>
      <trkpt lat="41.09945" lon="20.43848">
        <ele>414.072278</ele>
        <time>2022-05-01T10:08:31.555Z</time>
      </trkpt>
      <trkpt lat="41.09952" lon="20.43842">
        <ele>413.7576</ele>
        <time>2022-05-01T10:08:32.559Z</time>
      </trkpt>
      <trkpt lat="41.09961" lon="20.43836">
        <ele>413.442328</ele>
        <time>2022-05-01T10:08:33.551Z</time>
      </trkpt>
      <trkpt lat="41.09969" lon="20.43831">
        <ele>413.122826</ele>
        <time>2022-05-01T10:08:34.552Z</time>
      </trkpt>
      <trkpt lat="41.09978" lon="20.43825">
        <ele>412.793255</ele>
        <time>2022-05-01T10:08:35.585Z</time>
      </trkpt>
      <trkpt lat="41.09986" lon="20.43821">
        <ele>412.478266</ele>
        <time>2022-05-01T10:08:36.553Z</time>
      </trkpt>
      <trkpt lat="41.09995" lon="20.43817">
        <ele>412.16147</ele>
        <time>2022-05-01T10:08:37.565Z</time>
      </trkpt>
      <trkpt lat="41.10004" lon="20.43813">
        <ele>411.847185</ele>
        <time>2022-05-01T10:08:38.545Z</time>
      </trkpt>
      <trkpt lat="41.10012" lon="20.4381">
        <ele>411.5367</ele>
        <time>2022-05-01T10:08:39.526Z</time>
      </trkpt>
      <trkpt lat="41.10021" lon="20.43807">
        <ele>411.223428</ele>
        <time>2022-05-01T10:08:40.536Z</time>
      </trkpt>
      <trkpt lat="41.10039" lon="20.43803">
        <ele>410.643725</ele>
        <time>2022-05-01T10:08:42.565Z</time>
      </trkpt>
      <trkpt lat="41.10056" lon="20.43799">
        <ele>410.365386</ele>
        <time>2022-05-01T10:08:44.567Z</time>
      </trkpt>
      <trkpt lat="41.10072" lon="20.43796">
        <ele>410.091817</ele>
        <time>2022-05-01T10:08:46.589Z</time>
      </trkpt>
      <trkpt lat="41.10088" lon="20.43792">
        <ele>409.836104</ele>
        <time>2022-05-01T10:08:48.547Z</time>
      </trkpt>
      <trkpt lat="41.10105" lon="20.43788">
        <ele>409.564695</ele>
        <time>2022-05-01T10:08:50.537Z</time>
      </trkpt>
      <trkpt lat="41.10121" lon="20.43785">
        <ele>409.295294</ele>
        <time>2022-05-01T10:08:52.558Z</time>
      </trkpt>
      <trkpt lat="41.10138" lon="20.43781">
        <ele>409.023681</ele>
        <time>2022-05-01T10:08:54.561Z</time>
      </trkpt>
      <trkpt lat="41.10154" lon="20.43776">
        <ele>408.755559</ele>
        <time>2022-05-01T10:08:56.550Z</time>
      </trkpt>
      <trkpt lat="41.1017" lon="20.43772">
        <ele>408.496802</ele>
        <time>2022-05-01T10:08:58.548Z</time>
      </trkpt>
      <trkpt lat="41.10185" lon="20.43769">
        <ele>408.244456</ele>
        <time>2022-05-01T10:09:00.557Z</time>
      </trkpt>
      <trkpt lat="41.102" lon="20.43766">
        <ele>408.012546</ele>
        <time>2022-05-01T10:09:02.561Z</time>
      </trkpt>
      <trkpt lat="41.10213" lon="20.43762">
        <ele>407.791268</ele>
        <time>2022-05-01T10:09:04.562Z</time>
      </trkpt>
      <trkpt lat="41.10226" lon="20.43758">
        <ele>408.280952</ele>
        <time>2022-05-01T10:09:06.537Z</time>
      </trkpt>
      <trkpt lat="41.10237" lon="20.43754">
        <ele>408.776293</ele>
        <time>2022-05-01T10:09:08.535Z</time>
      </trkpt>
      <trkpt lat="41.10246" lon="20.43749">
        <ele>409.2149</ele>
        <time>2022-05-01T10:09:10.559Z</time>
      </trkpt>
      <trkpt lat="41.10254" lon="20.43744">
        <ele>409.626138</ele>
        <time>2022-05-01T10:09:12.553Z</time>
      </trkpt>
      <trkpt lat="41.10264" lon="20.43734">
        <ele>410.163785</ele>
        <time>2022-05-01T10:09:15.569Z</time>
      </trkpt>
      <trkpt lat="41.10273" lon="20.43724">
        <ele>410.651846</ele>
        <time>2022-05-01T10:09:18.547Z</time>
      </trkpt>
      <trkpt lat="41.10281" lon="20.43714">
        <ele>411.125958</ele>
        <time>2022-05-01T10:09:21.565Z</time>
      </trkpt>
      <trkpt lat="41.10287" lon="20.43702">
        <ele>411.612264</ele>
        <time>2022-05-01T10:09:24.579Z</time>
      </trkpt>
      <trkpt lat="41.10293" lon="20.43689">
        <ele>412.102311</ele>
        <time>2022-05-01T10:09:27.561Z</time>
      </trkpt>
      <trkpt lat="41.10297" lon="20.43675">
        <ele>412.597071</ele>
        <time>2022-05-01T10:09:30.541Z</time>
      </trkpt>
      <trkpt lat="41.103" lon="20.43661">
        <ele>413.090915</ele>
        <time>2022-05-01T10:09:33.567Z</time>
      </trkpt>
      <trkpt lat="41.10302" lon="20.43645">
        <ele>413.592049</ele>
        <time>2022-05-01T10:09:36.551Z</time>
      </trkpt>
      <trkpt lat="41.10303" lon="20.43631">
        <ele>414.079186</ele>
        <time>2022-05-01T10:09:39.551Z</time>
      </trkpt>
      <trkpt lat="41.10302" lon="20.43616">
        <ele>414.544622</ele>
        <time>2022-05-01T10:09:42.555Z</time>
      </trkpt>
      <trkpt lat="41.10301" lon="20.43602">
        <ele>415.009497</ele>
        <time>2022-05-01T10:09:45.564Z</time>
      </trkpt>
      <trkpt lat="41.103" lon="20.43587">
        <ele>415.50362</ele>
        <time>2022-05-01T10:09:48.553Z</time>
      </trkpt>
      <trkpt lat="41.10297" lon="20.43572">
        <ele>415.535536</ele>
        <time>2022-05-01T10:09:51.554Z</time>
      </trkpt>
      <trkpt lat="41.10295" lon="20.43555">
        <ele>415.468672</ele>
        <time>2022-05-01T10:09:54.545Z</time>
      </trkpt>
      <trkpt lat="41.10294" lon="20.43538">
        <ele>415.402778</ele>
        <time>2022-05-01T10:09:57.581Z</time>
      </trkpt>
      <trkpt lat="41.10293" lon="20.43526">
        <ele>415.356453</ele>
        <time>2022-05-01T10:09:59.545Z</time>
      </trkpt>
      <trkpt lat="41.10295" lon="20.43513">
        <ele>415.307016</ele>
        <time>2022-05-01T10:10:01.569Z</time>
      </trkpt>
      <trkpt lat="41.10297" lon="20.435">
        <ele>415.255033</ele>
        <time>2022-05-01T10:10:03.585Z</time>
      </trkpt>
      <trkpt lat="41.10302" lon="20.43486">
        <ele>415.199435</ele>
        <time>2022-05-01T10:10:05.539Z</time>
      </trkpt>
      <trkpt lat="41.10308" lon="20.43473">
        <ele>415.140948</ele>
        <time>2022-05-01T10:10:07.548Z</time>
      </trkpt>
      <trkpt lat="41.10316" lon="20.4346">
        <ele>415.076382</ele>
        <time>2022-05-01T10:10:09.552Z</time>
      </trkpt>
      <trkpt lat="41.10326" lon="20.43449">
        <ele>415.007762</ele>
        <time>2022-05-01T10:10:11.549Z</time>
      </trkpt>
      <trkpt lat="41.10338" lon="20.4344">
        <ele>414.937217</ele>
        <time>2022-05-01T10:10:13.562Z</time>
      </trkpt>
      <trkpt lat="41.10354" lon="20.43434">
        <ele>414.855497</ele>
        <time>2022-05-01T10:10:15.553Z</time>
      </trkpt>
      <trkpt lat="41.1037" lon="20.43429">
        <ele>414.770083</ele>
        <time>2022-05-01T10:10:17.539Z</time>
      </trkpt>
      <trkpt lat="41.10387" lon="20.43427">
        <ele>414.684579</ele>
        <time>2022-05-01T10:10:19.552Z</time>
      </trkpt>
      <trkpt lat="41.10403" lon="20.43425">
        <ele>414.505744</ele>
        <time>2022-05-01T10:10:21.548Z</time>
      </trkpt>
      <trkpt lat="41.10418" lon="20.43424">
        <ele>414.312522</ele>
        <time>2022-05-01T10:10:23.561Z</time>
      </trkpt>
      <trkpt lat="41.10433" lon="20.43423">
        <ele>414.116633</ele>
        <time>2022-05-01T10:10:25.580Z</time>
      </trkpt>
      <trkpt lat="41.10448" lon="20.43421">
        <ele>413.935654</ele>
        <time>2022-05-01T10:10:27.543Z</time>
      </trkpt>
      <trkpt lat="41.10462" lon="20.43419">
        <ele>413.752883</ele>
        <time>2022-05-01T10:10:29.545Z</time>
      </trkpt>
      <trkpt lat="41.10475" lon="20.43417">
        <ele>413.582289</ele>
        <time>2022-05-01T10:10:31.540Z</time>
      </trkpt>
      <trkpt lat="41.10489" lon="20.43414">
        <ele>413.405544</ele>
        <time>2022-05-01T10:10:33.552Z</time>
      </trkpt>
      <trkpt lat="41.10502" lon="20.4341">
        <ele>413.236566</ele>
        <time>2022-05-01T10:10:35.547Z</time>
      </trkpt>
      <trkpt lat="41.10516" lon="20.43407">
        <ele>413.063378</ele>
        <time>2022-05-01T10:10:37.566Z</time>
      </trkpt>
      <trkpt lat="41.10529" lon="20.43403">
        <ele>412.891931</ele>
        <time>2022-05-01T10:10:39.544Z</time>
      </trkpt>
      <trkpt lat="41.10544" lon="20.43399">
        <ele>412.705081</ele>
        <time>2022-05-01T10:10:41.584Z</time>
      </trkpt>
      <trkpt lat="41.10558" lon="20.43395">
        <ele>412.514712</ele>
        <time>2022-05-01T10:10:43.547Z</time>
      </trkpt>
      <trkpt lat="41.10574" lon="20.43391">
        <ele>412.440266</ele>
        <time>2022-05-01T10:10:45.619Z</time>
      </trkpt>
      <trkpt lat="41.1059" lon="20.43386">
        <ele>412.52194</ele>
        <time>2022-05-01T10:10:47.566Z</time>
      </trkpt>
      <trkpt lat="41.10605" lon="20.43379">
        <ele>412.605082</ele>
        <time>2022-05-01T10:10:49.555Z</time>
      </trkpt>
      <trkpt lat="41.10619" lon="20.43369">
        <ele>412.687291</ele>
        <time>2022-05-01T10:10:51.576Z</time>
      </trkpt>
      <trkpt lat="41.10634" lon="20.43357">
        <ele>412.776235</ele>
        <time>2022-05-01T10:10:53.571Z</time>
      </trkpt>
      <trkpt lat="41.10648" lon="20.43345">
        <ele>412.861662</ele>
        <time>2022-05-01T10:10:55.555Z</time>
      </trkpt>
      <trkpt lat="41.10662" lon="20.43332">
        <ele>412.949231</ele>
        <time>2022-05-01T10:10:57.552Z</time>
      </trkpt>
      <trkpt lat="41.10675" lon="20.4332">
        <ele>413.032319</ele>
        <time>2022-05-01T10:10:59.549Z</time>
      </trkpt>
      <trkpt lat="41.10688" lon="20.43307">
        <ele>413.116407</ele>
        <time>2022-05-01T10:11:01.531Z</time>
      </trkpt>
      <trkpt lat="41.10699" lon="20.43292">
        <ele>413.199015</ele>
        <time>2022-05-01T10:11:03.548Z</time>
      </trkpt>
      <trkpt lat="41.10709" lon="20.43275">
        <ele>413.283659</ele>
        <time>2022-05-01T10:11:05.550Z</time>
      </trkpt>
      <trkpt lat="41.10718" lon="20.43257">
        <ele>413.444622</ele>
        <time>2022-05-01T10:11:07.559Z</time>
      </trkpt>
      <trkpt lat="41.10725" lon="20.43241">
        <ele>413.670117</ele>
        <time>2022-05-01T10:11:09.559Z</time>
      </trkpt>
      <trkpt lat="41.10731" lon="20.43228">
        <ele>413.871233</ele>
        <time>2022-05-01T10:11:11.586Z</time>
      </trkpt>
      <trkpt lat="41.10737" lon="20.43216">
        <ele>414.053593</ele>
        <time>2022-05-01T10:11:13.526Z</time>
      </trkpt>
      <trkpt lat="41.10743" lon="20.43205">
        <ele>414.21994</ele>
        <time>2022-05-01T10:11:15.539Z</time>
      </trkpt>
      <trkpt lat="41.10751" lon="20.43192">
        <ele>414.426419</ele>
        <time>2022-05-01T10:11:17.551Z</time>
      </trkpt>
      <trkpt lat="41.10757" lon="20.43182">
        <ele>414.586712</ele>
        <time>2022-05-01T10:11:19.551Z</time>
      </trkpt>
      <trkpt lat="41.10764" lon="20.43171">
        <ele>414.765272</ele>
        <time>2022-05-01T10:11:22.538Z</time>
      </trkpt>
      <trkpt lat="41.10772" lon="20.43159">
        <ele>414.96405</ele>
        <time>2022-05-01T10:11:25.554Z</time>
      </trkpt>
      <trkpt lat="41.10779" lon="20.43148">
        <ele>415.158894</ele>
        <time>2022-05-01T10:11:28.589Z</time>
      </trkpt>
      <trkpt lat="41.10786" lon="20.43135">
        <ele>415.354236</ele>
        <time>2022-05-01T10:11:31.551Z</time>
      </trkpt>
      <trkpt lat="41.10792" lon="20.43126">
        <ele>415.505575</ele>
        <time>2022-05-01T10:11:33.534Z</time>
      </trkpt>
      <trkpt lat="41.10799" lon="20.43112">
        <ele>415.70821</ele>
        <time>2022-05-01T10:11:36.551Z</time>
      </trkpt>
      <trkpt lat="41.10804" lon="20.43097">
        <ele>415.923151</ele>
        <time>2022-05-01T10:11:39.552Z</time>
      </trkpt>
      <trkpt lat="41.10807" lon="20.43085">
        <ele>416.07693</ele>
        <time>2022-05-01T10:11:41.557Z</time>
      </trkpt>
      <trkpt lat="41.10811" lon="20.43073">
        <ele>416.245946</ele>
        <time>2022-05-01T10:11:43.550Z</time>
      </trkpt>
      <trkpt lat="41.10814" lon="20.43059">
        <ele>416.127093</ele>
        <time>2022-05-01T10:11:45.579Z</time>
      </trkpt>
      <trkpt lat="41.10818" lon="20.43044">
        <ele>415.773501</ele>
        <time>2022-05-01T10:11:47.562Z</time>
      </trkpt>
      <trkpt lat="41.10822" lon="20.43028">
        <ele>415.377064</ele>
        <time>2022-05-01T10:11:49.531Z</time>
      </trkpt>
      <trkpt lat="41.10828" lon="20.43009">
        <ele>414.909751</ele>
        <time>2022-05-01T10:11:51.542Z</time>
      </trkpt>
      <trkpt lat="41.10837" lon="20.4299">
        <ele>414.406049</ele>
        <time>2022-05-01T10:11:53.552Z</time>
      </trkpt>
      <trkpt lat="41.10847" lon="20.42973">
        <ele>413.905481</ele>
        <time>2022-05-01T10:11:55.553Z</time>
      </trkpt>
      <trkpt lat="41.10857" lon="20.42956">
        <ele>413.404432</ele>
        <time>2022-05-01T10:11:57.560Z</time>
      </trkpt>
      <trkpt lat="41.10867" lon="20.4294">
        <ele>412.93055</ele>
        <time>2022-05-01T10:11:59.539Z</time>
      </trkpt>
      <trkpt lat="41.10877" lon="20.42924">
        <ele>412.459145</ele>
        <time>2022-05-01T10:12:01.559Z</time>
      </trkpt>
      <trkpt lat="41.10887" lon="20.42908">
        <ele>411.986043</ele>
        <time>2022-05-01T10:12:03.568Z</time>
      </trkpt>
      <trkpt lat="41.10895" lon="20.42893">
        <ele>411.544184</ele>
        <time>2022-05-01T10:12:05.557Z</time>
      </trkpt>
      <trkpt lat="41.10903" lon="20.42877">
        <ele>411.114805</ele>
        <time>2022-05-01T10:12:07.590Z</time>
      </trkpt>
      <trkpt lat="41.10911" lon="20.42862">
        <ele>410.654523</ele>
        <time>2022-05-01T10:12:09.549Z</time>
      </trkpt>
      <trkpt lat="41.10918" lon="20.42845">
        <ele>410.126099</ele>
        <time>2022-05-01T10:12:11.543Z</time>
      </trkpt>
      <trkpt lat="41.10924" lon="20.42829">
        <ele>409.595127</ele>
        <time>2022-05-01T10:12:13.587Z</time>
      </trkpt>
      <trkpt lat="41.1093" lon="20.42811">
        <ele>409.054559</ele>
        <time>2022-05-01T10:12:15.588Z</time>
      </trkpt>
      <trkpt lat="41.10935" lon="20.42793">
        <ele>408.501769</ele>
        <time>2022-05-01T10:12:17.552Z</time>
      </trkpt>
      <trkpt lat="41.10941" lon="20.42773">
        <ele>407.90941</ele>
        <time>2022-05-01T10:12:19.550Z</time>
      </trkpt>
      <trkpt lat="41.10946" lon="20.42753">
        <ele>407.302416</ele>
        <time>2022-05-01T10:12:21.549Z</time>
      </trkpt>
      <trkpt lat="41.10952" lon="20.42733">
        <ele>406.68481</ele>
        <time>2022-05-01T10:12:23.542Z</time>
      </trkpt>
      <trkpt lat="41.10959" lon="20.42712">
        <ele>406.052505</ele>
        <time>2022-05-01T10:12:25.558Z</time>
      </trkpt>
      <trkpt lat="41.10966" lon="20.42691">
        <ele>405.416154</ele>
        <time>2022-05-01T10:12:27.552Z</time>
      </trkpt>
      <trkpt lat="41.10973" lon="20.42671">
        <ele>404.781209</ele>
        <time>2022-05-01T10:12:29.537Z</time>
      </trkpt>
      <trkpt lat="41.10981" lon="20.42652">
        <ele>404.172437</ele>
        <time>2022-05-01T10:12:31.556Z</time>
      </trkpt>
      <trkpt lat="41.1099" lon="20.42634">
        <ele>403.806899</ele>
        <time>2022-05-01T10:12:33.539Z</time>
      </trkpt>
      <trkpt lat="41.10999" lon="20.42616">
        <ele>403.481297</ele>
        <time>2022-05-01T10:12:35.550Z</time>
      </trkpt>
      <trkpt lat="41.11007" lon="20.426">
        <ele>403.188593</ele>
        <time>2022-05-01T10:12:37.563Z</time>
      </trkpt>
      <trkpt lat="41.11014" lon="20.42584">
        <ele>402.896799</ele>
        <time>2022-05-01T10:12:39.557Z</time>
      </trkpt>
      <trkpt lat="41.11023" lon="20.42569">
        <ele>402.607138</ele>
        <time>2022-05-01T10:12:41.558Z</time>
      </trkpt>
      <trkpt lat="41.1103" lon="20.42554">
        <ele>402.32585</ele>
        <time>2022-05-01T10:12:43.550Z</time>
      </trkpt>
      <trkpt lat="41.11038" lon="20.4254">
        <ele>402.055879</ele>
        <time>2022-05-01T10:12:45.551Z</time>
      </trkpt>
      <trkpt lat="41.11046" lon="20.42525">
        <ele>401.777244</ele>
        <time>2022-05-01T10:12:47.555Z</time>
      </trkpt>
      <trkpt lat="41.11054" lon="20.42509">
        <ele>401.482624</ele>
        <time>2022-05-01T10:12:49.556Z</time>
      </trkpt>
      <trkpt lat="41.11062" lon="20.42494">
        <ele>401.191706</ele>
        <time>2022-05-01T10:12:51.531Z</time>
      </trkpt>
      <trkpt lat="41.1107" lon="20.42478">
        <ele>400.906409</ele>
        <time>2022-05-01T10:12:53.558Z</time>
      </trkpt>
      <trkpt lat="41.11076" lon="20.42463">
        <ele>400.631397</ele>
        <time>2022-05-01T10:12:55.550Z</time>
      </trkpt>
      <trkpt lat="41.11082" lon="20.42447">
        <ele>400.324943</ele>
        <time>2022-05-01T10:12:57.559Z</time>
      </trkpt>
      <trkpt lat="41.11087" lon="20.4243">
        <ele>399.851773</ele>
        <time>2022-05-01T10:12:59.548Z</time>
      </trkpt>
      <trkpt lat="41.11092" lon="20.42413">
        <ele>399.373067</ele>
        <time>2022-05-01T10:13:01.559Z</time>
      </trkpt>
      <trkpt lat="41.11096" lon="20.42395">
        <ele>398.905357</ele>
        <time>2022-05-01T10:13:03.567Z</time>
      </trkpt>
      <trkpt lat="41.111" lon="20.42378">
        <ele>398.444762</ele>
        <time>2022-05-01T10:13:05.551Z</time>
      </trkpt>
      <trkpt lat="41.11102" lon="20.42361">
        <ele>398.003622</ele>
        <time>2022-05-01T10:13:07.537Z</time>
      </trkpt>
      <trkpt lat="41.11105" lon="20.42343">
        <ele>397.544262</ele>
        <time>2022-05-01T10:13:09.607Z</time>
      </trkpt>
      <trkpt lat="41.11108" lon="20.42326">
        <ele>397.0835</ele>
        <time>2022-05-01T10:13:11.549Z</time>
      </trkpt>
      <trkpt lat="41.11112" lon="20.42308">
        <ele>396.616183</ele>
        <time>2022-05-01T10:13:13.548Z</time>
      </trkpt>
      <trkpt lat="41.11116" lon="20.4229">
        <ele>396.145035</ele>
        <time>2022-05-01T10:13:15.557Z</time>
      </trkpt>
      <trkpt lat="41.11122" lon="20.42274">
        <ele>395.670989</ele>
        <time>2022-05-01T10:13:17.558Z</time>
      </trkpt>
      <trkpt lat="41.11128" lon="20.42259">
        <ele>395.242907</ele>
        <time>2022-05-01T10:13:19.565Z</time>
      </trkpt>
      <trkpt lat="41.11135" lon="20.42247">
        <ele>394.858871</ele>
        <time>2022-05-01T10:13:21.584Z</time>
      </trkpt>
      <trkpt lat="41.11142" lon="20.42237">
        <ele>394.509312</ele>
        <time>2022-05-01T10:13:23.592Z</time>
      </trkpt>
      <trkpt lat="41.11152" lon="20.42227">
        <ele>394.247799</ele>
        <time>2022-05-01T10:13:26.554Z</time>
      </trkpt>
      <trkpt lat="41.11162" lon="20.42218">
        <ele>394.117203</ele>
        <time>2022-05-01T10:13:29.528Z</time>
      </trkpt>
      <trkpt lat="41.11173" lon="20.4221">
        <ele>393.976028</ele>
        <time>2022-05-01T10:13:32.541Z</time>
      </trkpt>
      <trkpt lat="41.11184" lon="20.42203">
        <ele>393.846474</ele>
        <time>2022-05-01T10:13:35.543Z</time>
      </trkpt>
      <trkpt lat="41.11193" lon="20.42196">
        <ele>393.730447</ele>
        <time>2022-05-01T10:13:38.563Z</time>
      </trkpt>
      <trkpt lat="41.11205" lon="20.42189">
        <ele>393.590243</ele>
        <time>2022-05-01T10:13:41.542Z</time>
      </trkpt>
      <trkpt lat="41.11216" lon="20.42183">
        <ele>393.462351</ele>
        <time>2022-05-01T10:13:44.562Z</time>
      </trkpt>
      <trkpt lat="41.11226" lon="20.42176">
        <ele>393.344336</ele>
        <time>2022-05-01T10:13:47.528Z</time>
      </trkpt>
      <trkpt lat="41.11234" lon="20.4217">
        <ele>393.238819</ele>
        <time>2022-05-01T10:13:50.525Z</time>
      </trkpt>
      <trkpt lat="41.11243" lon="20.42165">
        <ele>393.134858</ele>
        <time>2022-05-01T10:13:53.535Z</time>
      </trkpt>
      <trkpt lat="41.11252" lon="20.42158">
        <ele>393.021695</ele>
        <time>2022-05-01T10:13:56.545Z</time>
      </trkpt>
      <trkpt lat="41.11262" lon="20.42152">
        <ele>392.908293</ele>
        <time>2022-05-01T10:13:59.549Z</time>
      </trkpt>
      <trkpt lat="41.11272" lon="20.42145">
        <ele>392.781309</ele>
        <time>2022-05-01T10:14:02.562Z</time>
      </trkpt>
      <trkpt lat="41.11284" lon="20.42138">
        <ele>392.64171</ele>
        <time>2022-05-01T10:14:05.540Z</time>
      </trkpt>
      <trkpt lat="41.11296" lon="20.4213">
        <ele>392.496896</ele>
        <time>2022-05-01T10:14:08.600Z</time>
      </trkpt>
      <trkpt lat="41.11304" lon="20.42124">
        <ele>392.397147</ele>
        <time>2022-05-01T10:14:10.554Z</time>
      </trkpt>
      <trkpt lat="41.11312" lon="20.42118">
        <ele>392.285247</ele>
        <time>2022-05-01T10:14:12.548Z</time>
      </trkpt>
      <trkpt lat="41.11321" lon="20.42112">
        <ele>392.166333</ele>
        <time>2022-05-01T10:14:14.578Z</time>
      </trkpt>
      <trkpt lat="41.11331" lon="20.42106">
        <ele>392.041132</ele>
        <time>2022-05-01T10:14:16.560Z</time>
      </trkpt>
      <trkpt lat="41.11341" lon="20.421">
        <ele>391.916864</ele>
        <time>2022-05-01T10:14:18.560Z</time>
      </trkpt>
      <trkpt lat="41.1135" lon="20.42093">
        <ele>391.788495</ele>
        <time>2022-05-01T10:14:20.578Z</time>
      </trkpt>
      <trkpt lat="41.11361" lon="20.42086">
        <ele>391.650395</ele>
        <time>2022-05-01T10:14:22.577Z</time>
      </trkpt>
      <trkpt lat="41.11372" lon="20.42079">
        <ele>391.511901</ele>
        <time>2022-05-01T10:14:24.551Z</time>
      </trkpt>
      <trkpt lat="41.11382" lon="20.42071">
        <ele>391.369726</ele>
        <time>2022-05-01T10:14:26.609Z</time>
      </trkpt>
      <trkpt lat="41.11394" lon="20.42064">
        <ele>391.224569</ele>
        <time>2022-05-01T10:14:28.565Z</time>
      </trkpt>
      <trkpt lat="41.11405" lon="20.42056">
        <ele>391.071581</ele>
        <time>2022-05-01T10:14:30.570Z</time>
      </trkpt>
      <trkpt lat="41.11417" lon="20.42049">
        <ele>390.917922</ele>
        <time>2022-05-01T10:14:32.598Z</time>
      </trkpt>
      <trkpt lat="41.11429" lon="20.42041">
        <ele>390.758807</ele>
        <time>2022-05-01T10:14:34.538Z</time>
      </trkpt>
      <trkpt lat="41.11441" lon="20.42032">
        <ele>390.608163</ele>
        <time>2022-05-01T10:14:36.556Z</time>
      </trkpt>
      <trkpt lat="41.11453" lon="20.42023">
        <ele>390.44261</ele>
        <time>2022-05-01T10:14:38.539Z</time>
      </trkpt>
      <trkpt lat="41.11466" lon="20.42013">
        <ele>390.307231</ele>
        <time>2022-05-01T10:14:40.544Z</time>
      </trkpt>
      <trkpt lat="41.11479" lon="20.42001">
        <ele>390.798447</ele>
        <time>2022-05-01T10:14:42.555Z</time>
      </trkpt>
      <trkpt lat="41.11491" lon="20.4199">
        <ele>391.287004</ele>
        <time>2022-05-01T10:14:44.558Z</time>
      </trkpt>
      <trkpt lat="41.11503" lon="20.41978">
        <ele>391.773217</ele>
        <time>2022-05-01T10:14:46.543Z</time>
      </trkpt>
      <trkpt lat="41.11515" lon="20.41967">
        <ele>392.227342</ele>
        <time>2022-05-01T10:14:48.565Z</time>
      </trkpt>
      <trkpt lat="41.11525" lon="20.41957">
        <ele>392.654325</ele>
        <time>2022-05-01T10:14:50.553Z</time>
      </trkpt>
      <trkpt lat="41.11535" lon="20.41947">
        <ele>393.052582</ele>
        <time>2022-05-01T10:14:52.535Z</time>
      </trkpt>
      <trkpt lat="41.11544" lon="20.41939">
        <ele>393.414605</ele>
        <time>2022-05-01T10:14:54.547Z</time>
      </trkpt>
      <trkpt lat="41.11552" lon="20.41931">
        <ele>393.732408</ele>
        <time>2022-05-01T10:14:56.566Z</time>
      </trkpt>
      <trkpt lat="41.1156" lon="20.41924">
        <ele>394.029132</ele>
        <time>2022-05-01T10:14:58.556Z</time>
      </trkpt>
      <trkpt lat="41.11567" lon="20.41917">
        <ele>394.325312</ele>
        <time>2022-05-01T10:15:00.579Z</time>
      </trkpt>
      <trkpt lat="41.11575" lon="20.4191">
        <ele>394.616057</ele>
        <time>2022-05-01T10:15:02.557Z</time>
      </trkpt>
      <trkpt lat="41.11585" lon="20.419">
        <ele>395.033355</ele>
        <time>2022-05-01T10:15:05.553Z</time>
      </trkpt>
      <trkpt lat="41.11596" lon="20.41891">
        <ele>395.446524</ele>
        <time>2022-05-01T10:15:08.549Z</time>
      </trkpt>
      <trkpt lat="41.11605" lon="20.41881">
        <ele>395.822364</ele>
        <time>2022-05-01T10:15:11.587Z</time>
      </trkpt>
      <trkpt lat="41.11614" lon="20.41872">
        <ele>396.185758</ele>
        <time>2022-05-01T10:15:14.563Z</time>
      </trkpt>
      <trkpt lat="41.11622" lon="20.41862">
        <ele>396.544934</ele>
        <time>2022-05-01T10:15:17.545Z</time>
      </trkpt>
      <trkpt lat="41.11629" lon="20.41852">
        <ele>396.879081</ele>
        <time>2022-05-01T10:15:20.547Z</time>
      </trkpt>
      <trkpt lat="41.11636" lon="20.41841">
        <ele>397.215777</ele>
        <time>2022-05-01T10:15:23.551Z</time>
      </trkpt>
      <trkpt lat="41.11641" lon="20.41829">
        <ele>397.541868</ele>
        <time>2022-05-01T10:15:26.559Z</time>
      </trkpt>
      <trkpt lat="41.11646" lon="20.41817">
        <ele>397.872194</ele>
        <time>2022-05-01T10:15:29.554Z</time>
      </trkpt>
      <trkpt lat="41.1165" lon="20.41806">
        <ele>398.165514</ele>
        <time>2022-05-01T10:15:32.540Z</time>
      </trkpt>
      <trkpt lat="41.11652" lon="20.41794">
        <ele>398.468624</ele>
        <time>2022-05-01T10:15:35.558Z</time>
      </trkpt>
      <trkpt lat="41.11655" lon="20.41783">
        <ele>398.76516</ele>
        <time>2022-05-01T10:15:38.580Z</time>
      </trkpt>
      <trkpt lat="41.11658" lon="20.41771">
        <ele>399.053766</ele>
        <time>2022-05-01T10:15:41.539Z</time>
      </trkpt>
      <trkpt lat="41.11662" lon="20.41758">
        <ele>399.396974</ele>
        <time>2022-05-01T10:15:45.558Z</time>
      </trkpt>
      <trkpt lat="41.11665" lon="20.41744">
        <ele>399.740182</ele>
        <time>2022-05-01T10:15:49.556Z</time>
      </trkpt>
      <trkpt lat="41.11668" lon="20.41731">
        <ele>400.07324</ele>
        <time>2022-05-01T10:15:53.551Z</time>
      </trkpt>
      <trkpt lat="41.11671" lon="20.4172">
        <ele>400.360662</ele>
        <time>2022-05-01T10:15:56.555Z</time>
      </trkpt>
      <trkpt lat="41.11674" lon="20.41708">
        <ele>400.661663</ele>
        <time>2022-05-01T10:15:59.542Z</time>
      </trkpt>
      <trkpt lat="41.11678" lon="20.41696">
        <ele>400.965101</ele>
        <time>2022-05-01T10:16:02.550Z</time>
      </trkpt>
      <trkpt lat="41.11683" lon="20.41683">
        <ele>401.335362</ele>
        <time>2022-05-01T10:16:06.572Z</time>
      </trkpt>
      <trkpt lat="41.11689" lon="20.4167">
        <ele>401.693104</ele>
        <time>2022-05-01T10:16:10.542Z</time>
      </trkpt>
      <trkpt lat="41.11695" lon="20.41658">
        <ele>401.854677</ele>
        <time>2022-05-01T10:16:14.551Z</time>
      </trkpt>
      <trkpt lat="41.11701" lon="20.41647">
        <ele>401.882128</ele>
        <time>2022-05-01T10:16:18.547Z</time>
      </trkpt>
      <trkpt lat="41.11708" lon="20.41635">
        <ele>401.912301</ele>
        <time>2022-05-01T10:16:22.603Z</time>
      </trkpt>
      <trkpt lat="41.11715" lon="20.41623">
        <ele>401.944435</ele>
        <time>2022-05-01T10:16:26.561Z</time>
      </trkpt>
      <trkpt lat="41.11722" lon="20.41614">
        <ele>401.970107</ele>
        <time>2022-05-01T10:16:29.585Z</time>
      </trkpt>
      <trkpt lat="41.11729" lon="20.41605">
        <ele>401.996875</ele>
        <time>2022-05-01T10:16:32.554Z</time>
      </trkpt>
      <trkpt lat="41.11738" lon="20.41595">
        <ele>402.026752</ele>
        <time>2022-05-01T10:16:35.574Z</time>
      </trkpt>
      <trkpt lat="41.11747" lon="20.41586">
        <ele>402.057383</ele>
        <time>2022-05-01T10:16:38.560Z</time>
      </trkpt>
      <trkpt lat="41.11757" lon="20.41578">
        <ele>402.087827</ele>
        <time>2022-05-01T10:16:41.584Z</time>
      </trkpt>
      <trkpt lat="41.11768" lon="20.41569">
        <ele>402.121626</ele>
        <time>2022-05-01T10:16:44.551Z</time>
      </trkpt>
      <trkpt lat="41.11776" lon="20.41562">
        <ele>402.148222</ele>
        <time>2022-05-01T10:16:46.550Z</time>
      </trkpt>
      <trkpt lat="41.11785" lon="20.41556">
        <ele>402.17588</ele>
        <time>2022-05-01T10:16:48.549Z</time>
      </trkpt>
      <trkpt lat="41.11794" lon="20.41549">
        <ele>402.203634</ele>
        <time>2022-05-01T10:16:50.546Z</time>
      </trkpt>
      <trkpt lat="41.11804" lon="20.41542">
        <ele>402.233178</ele>
        <time>2022-05-01T10:16:52.545Z</time>
      </trkpt>
      <trkpt lat="41.11814" lon="20.41534">
        <ele>402.263426</ele>
        <time>2022-05-01T10:16:54.556Z</time>
      </trkpt>
      <trkpt lat="41.11824" lon="20.41526">
        <ele>402.295441</ele>
        <time>2022-05-01T10:16:56.565Z</time>
      </trkpt>
      <trkpt lat="41.11834" lon="20.41515">
        <ele>402.180586</ele>
        <time>2022-05-01T10:16:58.539Z</time>
      </trkpt>
      <trkpt lat="41.11845" lon="20.41502">
        <ele>401.75401</ele>
        <time>2022-05-01T10:17:00.550Z</time>
      </trkpt>
      <trkpt lat="41.11856" lon="20.41488">
        <ele>401.30624</ele>
        <time>2022-05-01T10:17:02.564Z</time>
      </trkpt>
      <trkpt lat="41.11863" lon="20.41472">
        <ele>400.872293</ele>
        <time>2022-05-01T10:17:04.559Z</time>
      </trkpt>
      <trkpt lat="41.1187" lon="20.41455">
        <ele>400.432756</ele>
        <time>2022-05-01T10:17:06.545Z</time>
      </trkpt>
      <trkpt lat="41.11876" lon="20.41435">
        <ele>399.955063</ele>
        <time>2022-05-01T10:17:08.540Z</time>
      </trkpt>
      <trkpt lat="41.11883" lon="20.41414">
        <ele>399.431414</ele>
        <time>2022-05-01T10:17:10.544Z</time>
      </trkpt>
      <trkpt lat="41.11891" lon="20.41393">
        <ele>398.902449</ele>
        <time>2022-05-01T10:17:12.550Z</time>
      </trkpt>
      <trkpt lat="41.119" lon="20.41374">
        <ele>398.395861</ele>
        <time>2022-05-01T10:17:14.585Z</time>
      </trkpt>
      <trkpt lat="41.11912" lon="20.41357">
        <ele>397.88204</ele>
        <time>2022-05-01T10:17:16.552Z</time>
      </trkpt>
      <trkpt lat="41.11919" lon="20.4135">
        <ele>397.606674</ele>
        <time>2022-05-01T10:17:17.540Z</time>
      </trkpt>
      <trkpt lat="41.11927" lon="20.41343">
        <ele>397.326833</ele>
        <time>2022-05-01T10:17:18.554Z</time>
      </trkpt>
      <trkpt lat="41.11935" lon="20.41339">
        <ele>397.047146</ele>
        <time>2022-05-01T10:17:19.560Z</time>
      </trkpt>
      <trkpt lat="41.11944" lon="20.41335">
        <ele>396.671133</ele>
        <time>2022-05-01T10:17:20.547Z</time>
      </trkpt>
      <trkpt lat="41.11955" lon="20.41333">
        <ele>396.182909</ele>
        <time>2022-05-01T10:17:21.574Z</time>
      </trkpt>
      <trkpt lat="41.11965" lon="20.41331">
        <ele>395.708371</ele>
        <time>2022-05-01T10:17:22.551Z</time>
      </trkpt>
      <trkpt lat="41.11975" lon="20.4133">
        <ele>395.221369</ele>
        <time>2022-05-01T10:17:23.558Z</time>
      </trkpt>
      <trkpt lat="41.11986" lon="20.41328">
        <ele>394.715621</ele>
        <time>2022-05-01T10:17:24.564Z</time>
      </trkpt>
      <trkpt lat="41.11996" lon="20.41327">
        <ele>394.222401</ele>
        <time>2022-05-01T10:17:25.590Z</time>
      </trkpt>
      <trkpt lat="41.12006" lon="20.41324">
        <ele>393.734177</ele>
        <time>2022-05-01T10:17:26.548Z</time>
      </trkpt>
      <trkpt lat="41.12016" lon="20.4132">
        <ele>393.243589</ele>
        <time>2022-05-01T10:17:27.557Z</time>
      </trkpt>
      <trkpt lat="41.12025" lon="20.41315">
        <ele>392.767193</ele>
        <time>2022-05-01T10:17:28.557Z</time>
      </trkpt>
      <trkpt lat="41.12035" lon="20.41307">
        <ele>392.252284</ele>
        <time>2022-05-01T10:17:29.551Z</time>
      </trkpt>
      <trkpt lat="41.12043" lon="20.41299">
        <ele>391.75137</ele>
        <time>2022-05-01T10:17:30.559Z</time>
      </trkpt>
      <trkpt lat="41.12051" lon="20.41289">
        <ele>391.244329</ele>
        <time>2022-05-01T10:17:31.567Z</time>
      </trkpt>
      <trkpt lat="41.12058" lon="20.41278">
        <ele>390.737022</ele>
        <time>2022-05-01T10:17:32.546Z</time>
      </trkpt>
      <trkpt lat="41.12064" lon="20.41266">
        <ele>390.225485</ele>
        <time>2022-05-01T10:17:33.566Z</time>
      </trkpt>
      <trkpt lat="41.12069" lon="20.41253">
        <ele>389.69989</ele>
        <time>2022-05-01T10:17:34.565Z</time>
      </trkpt>
      <trkpt lat="41.12074" lon="20.4124">
        <ele>389.180159</ele>
        <time>2022-05-01T10:17:35.536Z</time>
      </trkpt>
      <trkpt lat="41.12079" lon="20.41225">
        <ele>388.623691</ele>
        <time>2022-05-01T10:17:36.586Z</time>
      </trkpt>
      <trkpt lat="41.12083" lon="20.41211">
        <ele>388.207357</ele>
        <time>2022-05-01T10:17:37.536Z</time>
      </trkpt>
      <trkpt lat="41.12087" lon="20.41196">
        <ele>387.805001</ele>
        <time>2022-05-01T10:17:38.565Z</time>
      </trkpt>
      <trkpt lat="41.12092" lon="20.41183">
        <ele>387.443087</ele>
        <time>2022-05-01T10:17:39.557Z</time>
      </trkpt>
      <trkpt lat="41.12097" lon="20.41169">
        <ele>387.042379</ele>
        <time>2022-05-01T10:17:40.554Z</time>
      </trkpt>
      <trkpt lat="41.12102" lon="20.41154">
        <ele>386.630764</ele>
        <time>2022-05-01T10:17:41.572Z</time>
      </trkpt>
      <trkpt lat="41.12108" lon="20.41139">
        <ele>386.230944</ele>
        <time>2022-05-01T10:17:42.566Z</time>
      </trkpt>
      <trkpt lat="41.12113" lon="20.41124">
        <ele>385.830541</ele>
        <time>2022-05-01T10:17:43.555Z</time>
      </trkpt>
      <trkpt lat="41.12119" lon="20.41111">
        <ele>385.445398</ele>
        <time>2022-05-01T10:17:44.557Z</time>
      </trkpt>
      <trkpt lat="41.12126" lon="20.41099">
        <ele>385.076246</ele>
        <time>2022-05-01T10:17:45.543Z</time>
      </trkpt>
      <trkpt lat="41.12134" lon="20.41089">
        <ele>384.711061</ele>
        <time>2022-05-01T10:17:46.551Z</time>
      </trkpt>
      <trkpt lat="41.12142" lon="20.41081">
        <ele>384.361858</ele>
        <time>2022-05-01T10:17:47.593Z</time>
      </trkpt>
      <trkpt lat="41.12151" lon="20.41074">
        <ele>384.014587</ele>
        <time>2022-05-01T10:17:48.544Z</time>
      </trkpt>
      <trkpt lat="41.12161" lon="20.4107">
        <ele>383.690369</ele>
        <time>2022-05-01T10:17:49.544Z</time>
      </trkpt>
      <trkpt lat="41.1217" lon="20.41067">
        <ele>383.37319</ele>
        <time>2022-05-01T10:17:50.554Z</time>
      </trkpt>
      <trkpt lat="41.12179" lon="20.41066">
        <ele>383.069416</ele>
        <time>2022-05-01T10:17:51.548Z</time>
      </trkpt>
      <trkpt lat="41.12189" lon="20.41066">
        <ele>382.746181</ele>
        <time>2022-05-01T10:17:52.598Z</time>
      </trkpt>
      <trkpt lat="41.12204" lon="20.4107">
        <ele>383.240852</ele>
        <time>2022-05-01T10:17:54.555Z</time>
      </trkpt>
      <trkpt lat="41.12216" lon="20.41074">
        <ele>384.300091</ele>
        <time>2022-05-01T10:17:56.534Z</time>
      </trkpt>
      <trkpt lat="41.12225" lon="20.41077">
        <ele>385.046983</ele>
        <time>2022-05-01T10:17:58.612Z</time>
      </trkpt>
      <trkpt lat="41.12235" lon="20.4108">
        <ele>385.853854</ele>
        <time>2022-05-01T10:18:01.551Z</time>
      </trkpt>
      <trkpt lat="41.12245" lon="20.41082">
        <ele>386.739141</ele>
        <time>2022-05-01T10:18:05.548Z</time>
      </trkpt>
      <trkpt lat="41.12256" lon="20.41082">
        <ele>387.626878</ele>
        <time>2022-05-01T10:18:09.600Z</time>
      </trkpt>
      <trkpt lat="41.12267" lon="20.41081">
        <ele>388.510113</ele>
        <time>2022-05-01T10:18:13.543Z</time>
      </trkpt>
      <trkpt lat="41.12277" lon="20.41079">
        <ele>389.396984</ele>
        <time>2022-05-01T10:18:17.557Z</time>
      </trkpt>
      <trkpt lat="41.12286" lon="20.41075">
        <ele>390.155188</ele>
        <time>2022-05-01T10:18:21.538Z</time>
      </trkpt>
      <trkpt lat="41.12296" lon="20.41072">
        <ele>391.030298</ele>
        <time>2022-05-01T10:18:26.550Z</time>
      </trkpt>
      <trkpt lat="41.12306" lon="20.41067">
        <ele>391.884722</ele>
        <time>2022-05-01T10:18:31.547Z</time>
      </trkpt>
      <trkpt lat="41.12316" lon="20.4106">
        <ele>392.810001</ele>
        <time>2022-05-01T10:18:36.539Z</time>
      </trkpt>
      <trkpt lat="41.12324" lon="20.41055">
        <ele>393.596161</ele>
        <time>2022-05-01T10:18:41.573Z</time>
      </trkpt>
      <trkpt lat="41.12334" lon="20.41049">
        <ele>394.445487</ele>
        <time>2022-05-01T10:18:46.553Z</time>
      </trkpt>
      <trkpt lat="41.12344" lon="20.41043">
        <ele>395.374253</ele>
        <time>2022-05-01T10:18:51.565Z</time>
      </trkpt>
      <trkpt lat="41.12352" lon="20.41038">
        <ele>396.12743</ele>
        <time>2022-05-01T10:18:55.542Z</time>
      </trkpt>
      <trkpt lat="41.1236" lon="20.41033">
        <ele>396.895788</ele>
        <time>2022-05-01T10:19:00.576Z</time>
      </trkpt>
      <trkpt lat="41.1237" lon="20.41027">
        <ele>397.581002</ele>
        <time>2022-05-01T10:19:06.556Z</time>
      </trkpt>
      <trkpt lat="41.12378" lon="20.41021">
        <ele>397.934813</ele>
        <time>2022-05-01T10:19:11.561Z</time>
      </trkpt>
      <trkpt lat="41.12386" lon="20.41015">
        <ele>398.281622</ele>
        <time>2022-05-01T10:19:15.551Z</time>
      </trkpt>
      <trkpt lat="41.12394" lon="20.41006">
        <ele>398.654815</ele>
        <time>2022-05-01T10:19:20.547Z</time>
      </trkpt>
      <trkpt lat="41.12403" lon="20.40997">
        <ele>399.056967</ele>
        <time>2022-05-01T10:19:26.558Z</time>
      </trkpt>
      <trkpt lat="41.12409" lon="20.40989">
        <ele>399.405331</ele>
        <time>2022-05-01T10:19:31.531Z</time>
      </trkpt>
      <trkpt lat="41.12416" lon="20.40979">
        <ele>399.773881</ele>
        <time>2022-05-01T10:19:36.609Z</time>
      </trkpt>
      <trkpt lat="41.12421" lon="20.40969">
        <ele>400.117586</ele>
        <time>2022-05-01T10:19:41.547Z</time>
      </trkpt>
      <trkpt lat="41.12427" lon="20.40958">
        <ele>400.492613</ele>
        <time>2022-05-01T10:19:46.539Z</time>
      </trkpt>
      <trkpt lat="41.12434" lon="20.40946">
        <ele>400.901023</ele>
        <time>2022-05-01T10:19:51.532Z</time>
      </trkpt>
      <trkpt lat="41.1244" lon="20.40937">
        <ele>401.252572</ele>
        <time>2022-05-01T10:19:56.555Z</time>
      </trkpt>
      <trkpt lat="41.12447" lon="20.40928">
        <ele>401.612864</ele>
        <time>2022-05-01T10:20:01.565Z</time>
      </trkpt>
      <trkpt lat="41.12455" lon="20.4092">
        <ele>401.992401</ele>
        <time>2022-05-01T10:20:06.582Z</time>
      </trkpt>
      <trkpt lat="41.12464" lon="20.40912">
        <ele>402.360164</ele>
        <time>2022-05-01T10:20:11.537Z</time>
      </trkpt>
      <trkpt lat="41.12472" lon="20.40907">
        <ele>402.711851</ele>
        <time>2022-05-01T10:20:16.552Z</time>
      </trkpt>
      <trkpt lat="41.12481" lon="20.40902">
        <ele>403.072527</ele>
        <time>2022-05-01T10:20:21.553Z</time>
      </trkpt>
      <trkpt lat="41.1249" lon="20.40897">
        <ele>403.446096</ele>
        <time>2022-05-01T10:20:26.546Z</time>
      </trkpt>
      <trkpt lat="41.125" lon="20.40892">
        <ele>403.835517</ele>
        <time>2022-05-01T10:20:31.529Z</time>
      </trkpt>
      <trkpt lat="41.1251" lon="20.40887">
        <ele>404.065499</ele>
        <time>2022-05-01T10:20:36.549Z</time>
      </trkpt>
      <trkpt lat="41.12518" lon="20.40882">
        <ele>403.911224</ele>
        <time>2022-05-01T10:20:40.555Z</time>
      </trkpt>
      <trkpt lat="41.12527" lon="20.40876">
        <ele>403.74302</ele>
        <time>2022-05-01T10:20:44.557Z</time>
      </trkpt>
      <trkpt lat="41.12537" lon="20.40869">
        <ele>403.566538</ele>
        <time>2022-05-01T10:20:48.559Z</time>
      </trkpt>
      <trkpt lat="41.12544" lon="20.40862">
        <ele>403.412906</ele>
        <time>2022-05-01T10:20:51.551Z</time>
      </trkpt>
      <trkpt lat="41.12552" lon="20.40853">
        <ele>403.23262</ele>
        <time>2022-05-01T10:20:54.540Z</time>
      </trkpt>
      <trkpt lat="41.12561" lon="20.40841">
        <ele>403.020705</ele>
        <time>2022-05-01T10:20:57.571Z</time>
      </trkpt>
      <trkpt lat="41.12568" lon="20.40832">
        <ele>402.857374</ele>
        <time>2022-05-01T10:20:59.546Z</time>
      </trkpt>
      <trkpt lat="41.12576" lon="20.40821">
        <ele>402.670946</ele>
        <time>2022-05-01T10:21:01.547Z</time>
      </trkpt>
      <trkpt lat="41.12585" lon="20.40809">
        <ele>402.457012</ele>
        <time>2022-05-01T10:21:03.556Z</time>
      </trkpt>
      <trkpt lat="41.12595" lon="20.40794">
        <ele>402.208298</ele>
        <time>2022-05-01T10:21:05.554Z</time>
      </trkpt>
      <trkpt lat="41.12606" lon="20.40778">
        <ele>401.92321</ele>
        <time>2022-05-01T10:21:07.605Z</time>
      </trkpt>
      <trkpt lat="41.12613" lon="20.40769">
        <ele>401.767869</ele>
        <time>2022-05-01T10:21:08.538Z</time>
      </trkpt>
      <trkpt lat="41.12619" lon="20.4076">
        <ele>401.613978</ele>
        <time>2022-05-01T10:21:09.545Z</time>
      </trkpt>
      <trkpt lat="41.12626" lon="20.4075">
        <ele>401.43945</ele>
        <time>2022-05-01T10:21:10.552Z</time>
      </trkpt>
      <trkpt lat="41.12633" lon="20.40739">
        <ele>401.265243</ele>
        <time>2022-05-01T10:21:11.550Z</time>
      </trkpt>
      <trkpt lat="41.1264" lon="20.40728">
        <ele>401.053498</ele>
        <time>2022-05-01T10:21:12.582Z</time>
      </trkpt>
      <trkpt lat="41.12646" lon="20.40717">
        <ele>400.552936</ele>
        <time>2022-05-01T10:21:13.595Z</time>
      </trkpt>
      <trkpt lat="41.12652" lon="20.40704">
        <ele>400.036483</ele>
        <time>2022-05-01T10:21:14.573Z</time>
      </trkpt>
      <trkpt lat="41.12656" lon="20.40692">
        <ele>399.551634</ele>
        <time>2022-05-01T10:21:15.553Z</time>
      </trkpt>
      <trkpt lat="41.1266" lon="20.40679">
        <ele>399.039885</ele>
        <time>2022-05-01T10:21:16.548Z</time>
      </trkpt>
      <trkpt lat="41.12663" lon="20.40665">
        <ele>398.523943</ele>
        <time>2022-05-01T10:21:17.564Z</time>
      </trkpt>
      <trkpt lat="41.12665" lon="20.4065">
        <ele>398.015204</ele>
        <time>2022-05-01T10:21:18.543Z</time>
      </trkpt>
      <trkpt lat="41.12667" lon="20.40635">
        <ele>397.464491</ele>
        <time>2022-05-01T10:21:19.591Z</time>
      </trkpt>
      <trkpt lat="41.12668" lon="20.4062">
        <ele>396.924953</ele>
        <time>2022-05-01T10:21:20.574Z</time>
      </trkpt>
      <trkpt lat="41.1267" lon="20.40604">
        <ele>396.363735</ele>
        <time>2022-05-01T10:21:21.554Z</time>
      </trkpt>
      <trkpt lat="41.12672" lon="20.40589">
        <ele>395.812606</ele>
        <time>2022-05-01T10:21:22.556Z</time>
      </trkpt>
      <trkpt lat="41.12675" lon="20.40574">
        <ele>395.271516</ele>
        <time>2022-05-01T10:21:23.568Z</time>
      </trkpt>
      <trkpt lat="41.12679" lon="20.40559">
        <ele>394.718268</ele>
        <time>2022-05-01T10:21:24.551Z</time>
      </trkpt>
      <trkpt lat="41.12683" lon="20.40545">
        <ele>394.168091</ele>
        <time>2022-05-01T10:21:25.536Z</time>
      </trkpt>
      <trkpt lat="41.12688" lon="20.40531">
        <ele>393.615448</ele>
        <time>2022-05-01T10:21:26.550Z</time>
      </trkpt>
      <trkpt lat="41.12693" lon="20.40516">
        <ele>393.058757</ele>
        <time>2022-05-01T10:21:27.551Z</time>
      </trkpt>
      <trkpt lat="41.12698" lon="20.40502">
        <ele>392.537814</ele>
        <time>2022-05-01T10:21:28.551Z</time>
      </trkpt>
      <trkpt lat="41.12703" lon="20.40487">
        <ele>392.14344</ele>
        <time>2022-05-01T10:21:29.541Z</time>
      </trkpt>
      <trkpt lat="41.12707" lon="20.40473">
        <ele>391.76143</ele>
        <time>2022-05-01T10:21:30.564Z</time>
      </trkpt>
      <trkpt lat="41.12712" lon="20.4046">
        <ele>391.388679</ele>
        <time>2022-05-01T10:21:31.555Z</time>
      </trkpt>
      <trkpt lat="41.12716" lon="20.40447">
        <ele>391.019587</ele>
        <time>2022-05-01T10:21:32.584Z</time>
      </trkpt>
      <trkpt lat="41.1272" lon="20.40434">
        <ele>390.662426</ele>
        <time>2022-05-01T10:21:33.544Z</time>
      </trkpt>
      <trkpt lat="41.12724" lon="20.40421">
        <ele>390.31861</ele>
        <time>2022-05-01T10:21:34.582Z</time>
      </trkpt>
      <trkpt lat="41.12727" lon="20.40409">
        <ele>389.995593</ele>
        <time>2022-05-01T10:21:35.562Z</time>
      </trkpt>
      <trkpt lat="41.12729" lon="20.40396">
        <ele>389.673614</ele>
        <time>2022-05-01T10:21:36.588Z</time>
      </trkpt>
      <trkpt lat="41.1273" lon="20.40384">
        <ele>389.355851</ele>
        <time>2022-05-01T10:21:37.552Z</time>
      </trkpt>
      <trkpt lat="41.12729" lon="20.40361">
        <ele>388.774497</ele>
        <time>2022-05-01T10:21:39.557Z</time>
      </trkpt>
      <trkpt lat="41.12727" lon="20.40338">
        <ele>388.205337</ele>
        <time>2022-05-01T10:21:41.554Z</time>
      </trkpt>
      <trkpt lat="41.12726" lon="20.40317">
        <ele>387.669002</ele>
        <time>2022-05-01T10:21:43.552Z</time>
      </trkpt>
      <trkpt lat="41.12727" lon="20.40296">
        <ele>387.138596</ele>
        <time>2022-05-01T10:21:45.530Z</time>
      </trkpt>
      <trkpt lat="41.12729" lon="20.40278">
        <ele>386.66957</ele>
        <time>2022-05-01T10:21:47.585Z</time>
      </trkpt>
      <trkpt lat="41.12734" lon="20.40261">
        <ele>386.371056</ele>
        <time>2022-05-01T10:21:49.558Z</time>
      </trkpt>
      <trkpt lat="41.1274" lon="20.40244">
        <ele>386.074255</ele>
        <time>2022-05-01T10:21:51.548Z</time>
      </trkpt>
      <trkpt lat="41.12749" lon="20.4023">
        <ele>385.789746</ele>
        <time>2022-05-01T10:21:53.561Z</time>
      </trkpt>
      <trkpt lat="41.12758" lon="20.40217">
        <ele>385.506194</ele>
        <time>2022-05-01T10:21:55.567Z</time>
      </trkpt>
      <trkpt lat="41.12769" lon="20.40207">
        <ele>385.229798</ele>
        <time>2022-05-01T10:21:57.556Z</time>
      </trkpt>
      <trkpt lat="41.1278" lon="20.40199">
        <ele>384.972869</ele>
        <time>2022-05-01T10:21:59.558Z</time>
      </trkpt>
      <trkpt lat="41.1279" lon="20.40193">
        <ele>384.734927</ele>
        <time>2022-05-01T10:22:01.562Z</time>
      </trkpt>
      <trkpt lat="41.128" lon="20.40189">
        <ele>384.520874</ele>
        <time>2022-05-01T10:22:03.551Z</time>
      </trkpt>
      <trkpt lat="41.12811" lon="20.40186">
        <ele>384.28751</ele>
        <time>2022-05-01T10:22:05.551Z</time>
      </trkpt>
      <trkpt lat="41.1282" lon="20.40183">
        <ele>384.094461</ele>
        <time>2022-05-01T10:22:07.546Z</time>
      </trkpt>
      <trkpt lat="41.12832" lon="20.40179">
        <ele>383.836427</ele>
        <time>2022-05-01T10:22:10.557Z</time>
      </trkpt>
      <trkpt lat="41.1284" lon="20.40175">
        <ele>383.644306</ele>
        <time>2022-05-01T10:22:12.552Z</time>
      </trkpt>
      <trkpt lat="41.12849" lon="20.4017">
        <ele>383.447789</ele>
        <time>2022-05-01T10:22:14.556Z</time>
      </trkpt>
      <trkpt lat="41.12858" lon="20.40165">
        <ele>383.254529</ele>
        <time>2022-05-01T10:22:16.546Z</time>
      </trkpt>
      <trkpt lat="41.12867" lon="20.4016">
        <ele>383.050445</ele>
        <time>2022-05-01T10:22:18.542Z</time>
      </trkpt>
      <trkpt lat="41.12875" lon="20.40154">
        <ele>382.861207</ele>
        <time>2022-05-01T10:22:20.551Z</time>
      </trkpt>
      <trkpt lat="41.12884" lon="20.40148">
        <ele>382.782475</ele>
        <time>2022-05-01T10:22:22.558Z</time>
      </trkpt>
      <trkpt lat="41.12893" lon="20.40143">
        <ele>382.701419</ele>
        <time>2022-05-01T10:22:24.567Z</time>
      </trkpt>
      <trkpt lat="41.12902" lon="20.40137">
        <ele>382.621267</ele>
        <time>2022-05-01T10:22:26.582Z</time>
      </trkpt>
      <trkpt lat="41.1291" lon="20.40131">
        <ele>382.5492</ele>
        <time>2022-05-01T10:22:28.558Z</time>
      </trkpt>
      <trkpt lat="41.12919" lon="20.40126">
        <ele>382.471008</ele>
        <time>2022-05-01T10:22:30.566Z</time>
      </trkpt>
      <trkpt lat="41.12928" lon="20.4012">
        <ele>382.393795</ele>
        <time>2022-05-01T10:22:32.563Z</time>
      </trkpt>
      <trkpt lat="41.12937" lon="20.40114">
        <ele>382.312931</ele>
        <time>2022-05-01T10:22:34.557Z</time>
      </trkpt>
      <trkpt lat="41.12946" lon="20.40108">
        <ele>382.232594</ele>
        <time>2022-05-01T10:22:36.547Z</time>
      </trkpt>
      <trkpt lat="41.12955" lon="20.40102">
        <ele>382.152709</ele>
        <time>2022-05-01T10:22:38.551Z</time>
      </trkpt>
      <trkpt lat="41.12964" lon="20.40097">
        <ele>382.075518</ele>
        <time>2022-05-01T10:22:40.555Z</time>
      </trkpt>
      <trkpt lat="41.12973" lon="20.40092">
        <ele>381.9947</ele>
        <time>2022-05-01T10:22:42.549Z</time>
      </trkpt>
      <trkpt lat="41.12983" lon="20.40087">
        <ele>381.914108</ele>
        <time>2022-05-01T10:22:44.533Z</time>
      </trkpt>
      <trkpt lat="41.12992" lon="20.40083">
        <ele>381.835927</ele>
        <time>2022-05-01T10:22:46.559Z</time>
      </trkpt>
      <trkpt lat="41.13002" lon="20.40079">
        <ele>381.756238</ele>
        <time>2022-05-01T10:22:48.611Z</time>
      </trkpt>
      <trkpt lat="41.13011" lon="20.40075">
        <ele>381.677862</ele>
        <time>2022-05-01T10:22:50.551Z</time>
      </trkpt>
      <trkpt lat="41.1302" lon="20.40071">
        <ele>381.604576</ele>
        <time>2022-05-01T10:22:52.555Z</time>
      </trkpt>
      <trkpt lat="41.13029" lon="20.40067">
        <ele>381.525831</ele>
        <time>2022-05-01T10:22:54.546Z</time>
      </trkpt>
      <trkpt lat="41.13039" lon="20.40063">
        <ele>381.442357</ele>
        <time>2022-05-01T10:22:56.547Z</time>
      </trkpt>
      <trkpt lat="41.13049" lon="20.40059">
        <ele>381.583313</ele>
        <time>2022-05-01T10:22:58.552Z</time>
      </trkpt>
      <trkpt lat="41.1306" lon="20.40055">
        <ele>381.743685</ele>
        <time>2022-05-01T10:23:00.558Z</time>
      </trkpt>
      <trkpt lat="41.13071" lon="20.4005">
        <ele>381.909035</ele>
        <time>2022-05-01T10:23:02.590Z</time>
      </trkpt>
      <trkpt lat="41.13082" lon="20.40046">
        <ele>382.079031</ele>
        <time>2022-05-01T10:23:04.545Z</time>
      </trkpt>
      <trkpt lat="41.13093" lon="20.40041">
        <ele>382.255094</ele>
        <time>2022-05-01T10:23:06.546Z</time>
      </trkpt>
      <trkpt lat="41.13105" lon="20.40036">
        <ele>382.431484</ele>
        <time>2022-05-01T10:23:08.567Z</time>
      </trkpt>
      <trkpt lat="41.13117" lon="20.40032">
        <ele>382.609682</ele>
        <time>2022-05-01T10:23:10.569Z</time>
      </trkpt>
      <trkpt lat="41.13128" lon="20.40027">
        <ele>382.785013</ele>
        <time>2022-05-01T10:23:12.536Z</time>
      </trkpt>
      <trkpt lat="41.13139" lon="20.40022">
        <ele>382.954785</ele>
        <time>2022-05-01T10:23:14.551Z</time>
      </trkpt>
      <trkpt lat="41.13149" lon="20.40018">
        <ele>383.109983</ele>
        <time>2022-05-01T10:23:16.587Z</time>
      </trkpt>
      <trkpt lat="41.13158" lon="20.40015">
        <ele>383.251127</ele>
        <time>2022-05-01T10:23:18.556Z</time>
      </trkpt>
      <trkpt lat="41.13167" lon="20.40012">
        <ele>383.383536</ele>
        <time>2022-05-01T10:23:20.549Z</time>
      </trkpt>
      <trkpt lat="41.13179" lon="20.40009">
        <ele>383.552373</ele>
        <time>2022-05-01T10:23:23.555Z</time>
      </trkpt>
      <trkpt lat="41.13188" lon="20.40006">
        <ele>383.695518</ele>
        <time>2022-05-01T10:23:26.541Z</time>
      </trkpt>
      <trkpt lat="41.13198" lon="20.40002">
        <ele>383.84238</ele>
        <time>2022-05-01T10:23:29.540Z</time>
      </trkpt>
      <trkpt lat="41.13208" lon="20.39996">
        <ele>384.00295</ele>
        <time>2022-05-01T10:23:32.531Z</time>
      </trkpt>
      <trkpt lat="41.13216" lon="20.39987">
        <ele>384.257306</ele>
        <time>2022-05-01T10:23:35.534Z</time>
      </trkpt>
      <trkpt lat="41.13224" lon="20.39977">
        <ele>384.579703</ele>
        <time>2022-05-01T10:23:38.591Z</time>
      </trkpt>
      <trkpt lat="41.13233" lon="20.39967">
        <ele>384.907232</ele>
        <time>2022-05-01T10:23:41.546Z</time>
      </trkpt>
      <trkpt lat="41.13238" lon="20.39952">
        <ele>385.272474</ele>
        <time>2022-05-01T10:23:44.543Z</time>
      </trkpt>
      <trkpt lat="41.13246" lon="20.39939">
        <ele>385.634488</ele>
        <time>2022-05-01T10:23:47.546Z</time>
      </trkpt>
      <trkpt lat="41.13255" lon="20.39927">
        <ele>386.004549</ele>
        <time>2022-05-01T10:23:50.550Z</time>
      </trkpt>
      <trkpt lat="41.13263" lon="20.39921">
        <ele>386.271296</ele>
        <time>2022-05-01T10:23:52.557Z</time>
      </trkpt>
      <trkpt lat="41.13272" lon="20.39914">
        <ele>386.562245</ele>
        <time>2022-05-01T10:23:54.555Z</time>
      </trkpt>
      <trkpt lat="41.13279" lon="20.39905">
        <ele>386.845224</ele>
        <time>2022-05-01T10:23:56.550Z</time>
      </trkpt>
      <trkpt lat="41.13286" lon="20.39896">
        <ele>387.15058</ele>
        <time>2022-05-01T10:23:58.591Z</time>
      </trkpt>
      <trkpt lat="41.13294" lon="20.39886">
        <ele>387.457494</ele>
        <time>2022-05-01T10:24:00.543Z</time>
      </trkpt>
      <trkpt lat="41.13301" lon="20.39875">
        <ele>387.776309</ele>
        <time>2022-05-01T10:24:02.547Z</time>
      </trkpt>
      <trkpt lat="41.13308" lon="20.39864">
        <ele>388.095636</ele>
        <time>2022-05-01T10:24:04.556Z</time>
      </trkpt>
      <trkpt lat="41.13315" lon="20.39853">
        <ele>388.410425</ele>
        <time>2022-05-01T10:24:06.608Z</time>
      </trkpt>
      <trkpt lat="41.13321" lon="20.3984">
        <ele>388.740834</ele>
        <time>2022-05-01T10:24:08.546Z</time>
      </trkpt>
      <trkpt lat="41.13324" lon="20.39825">
        <ele>389.072455</ele>
        <time>2022-05-01T10:24:10.562Z</time>
      </trkpt>
      <trkpt lat="41.13326" lon="20.3981">
        <ele>389.129128</ele>
        <time>2022-05-01T10:24:12.554Z</time>
      </trkpt>
      <trkpt lat="41.13329" lon="20.39795">
        <ele>388.616244</ele>
        <time>2022-05-01T10:24:14.564Z</time>
      </trkpt>
      <trkpt lat="41.13333" lon="20.39782">
        <ele>388.14143</ele>
        <time>2022-05-01T10:24:16.550Z</time>
      </trkpt>
      <trkpt lat="41.13337" lon="20.39769">
        <ele>387.654007</ele>
        <time>2022-05-01T10:24:18.557Z</time>
      </trkpt>
      <trkpt lat="41.13342" lon="20.39755">
        <ele>387.14303</ele>
        <time>2022-05-01T10:24:20.554Z</time>
      </trkpt>
      <trkpt lat="41.13347" lon="20.3974">
        <ele>386.606661</ele>
        <time>2022-05-01T10:24:22.567Z</time>
      </trkpt>
      <trkpt lat="41.13353" lon="20.39725">
        <ele>386.051867</ele>
        <time>2022-05-01T10:24:24.561Z</time>
      </trkpt>
      <trkpt lat="41.1336" lon="20.3971">
        <ele>385.453454</ele>
        <time>2022-05-01T10:24:26.549Z</time>
      </trkpt>
      <trkpt lat="41.1337" lon="20.39697">
        <ele>384.833628</ele>
        <time>2022-05-01T10:24:28.577Z</time>
      </trkpt>
      <trkpt lat="41.13382" lon="20.39685">
        <ele>384.180213</ele>
        <time>2022-05-01T10:24:30.546Z</time>
      </trkpt>
      <trkpt lat="41.13398" lon="20.39676">
        <ele>383.419655</ele>
        <time>2022-05-01T10:24:32.566Z</time>
      </trkpt>
      <trkpt lat="41.13415" lon="20.39672">
        <ele>382.661623</ele>
        <time>2022-05-01T10:24:34.539Z</time>
      </trkpt>
      <trkpt lat="41.13431" lon="20.39669">
        <ele>381.913636</ele>
        <time>2022-05-01T10:24:36.552Z</time>
      </trkpt>
      <trkpt lat="41.13448" lon="20.39666">
        <ele>381.194103</ele>
        <time>2022-05-01T10:24:38.556Z</time>
      </trkpt>
      <trkpt lat="41.13465" lon="20.39661">
        <ele>380.462904</ele>
        <time>2022-05-01T10:24:40.559Z</time>
      </trkpt>
      <trkpt lat="41.13473" lon="20.39657">
        <ele>380.080281</ele>
        <time>2022-05-01T10:24:41.557Z</time>
      </trkpt>
      <trkpt lat="41.13488" lon="20.39643">
        <ele>379.324166</ele>
        <time>2022-05-01T10:24:43.552Z</time>
      </trkpt>
      <trkpt lat="41.13495" lon="20.39635">
        <ele>378.912276</ele>
        <time>2022-05-01T10:24:44.559Z</time>
      </trkpt>
      <trkpt lat="41.13502" lon="20.39626">
        <ele>378.527664</ele>
        <time>2022-05-01T10:24:45.553Z</time>
      </trkpt>
      <trkpt lat="41.13509" lon="20.39618">
        <ele>378.125072</ele>
        <time>2022-05-01T10:24:46.551Z</time>
      </trkpt>
      <trkpt lat="41.13515" lon="20.39609">
        <ele>377.737378</ele>
        <time>2022-05-01T10:24:47.555Z</time>
      </trkpt>
      <trkpt lat="41.13522" lon="20.396">
        <ele>377.328895</ele>
        <time>2022-05-01T10:24:48.552Z</time>
      </trkpt>
      <trkpt lat="41.13529" lon="20.39592">
        <ele>376.936133</ele>
        <time>2022-05-01T10:24:49.550Z</time>
      </trkpt>
      <trkpt lat="41.13535" lon="20.39583">
        <ele>376.539634</ele>
        <time>2022-05-01T10:24:50.587Z</time>
      </trkpt>
      <trkpt lat="41.13542" lon="20.39574">
        <ele>376.139357</ele>
        <time>2022-05-01T10:24:51.544Z</time>
      </trkpt>
      <trkpt lat="41.13549" lon="20.39565">
        <ele>375.736117</ele>
        <time>2022-05-01T10:24:52.549Z</time>
      </trkpt>
      <trkpt lat="41.13556" lon="20.39556">
        <ele>375.321632</ele>
        <time>2022-05-01T10:24:53.565Z</time>
      </trkpt>
      <trkpt lat="41.13563" lon="20.39546">
        <ele>374.896641</ele>
        <time>2022-05-01T10:24:54.549Z</time>
      </trkpt>
      <trkpt lat="41.1357" lon="20.39537">
        <ele>374.474672</ele>
        <time>2022-05-01T10:24:55.558Z</time>
      </trkpt>
      <trkpt lat="41.13577" lon="20.39528">
        <ele>374.057619</ele>
        <time>2022-05-01T10:24:56.544Z</time>
      </trkpt>
      <trkpt lat="41.13583" lon="20.39518">
        <ele>373.684073</ele>
        <time>2022-05-01T10:24:57.557Z</time>
      </trkpt>
      <trkpt lat="41.13588" lon="20.39508">
        <ele>373.406576</ele>
        <time>2022-05-01T10:24:58.558Z</time>
      </trkpt>
      <trkpt lat="41.13594" lon="20.39498">
        <ele>373.12913</ele>
        <time>2022-05-01T10:24:59.552Z</time>
      </trkpt>
      <trkpt lat="41.13599" lon="20.39488">
        <ele>372.863234</ele>
        <time>2022-05-01T10:25:00.543Z</time>
      </trkpt>
      <trkpt lat="41.13607" lon="20.39468">
        <ele>372.352873</ele>
        <time>2022-05-01T10:25:02.560Z</time>
      </trkpt>
      <trkpt lat="41.13614" lon="20.39448">
        <ele>371.868758</ele>
        <time>2022-05-01T10:25:04.552Z</time>
      </trkpt>
      <trkpt lat="41.13618" lon="20.39429">
        <ele>371.422298</ele>
        <time>2022-05-01T10:25:06.541Z</time>
      </trkpt>
      <trkpt lat="41.13623" lon="20.39411">
        <ele>371.005547</ele>
        <time>2022-05-01T10:25:08.542Z</time>
      </trkpt>
      <trkpt lat="41.13627" lon="20.39393">
        <ele>370.581536</ele>
        <time>2022-05-01T10:25:10.550Z</time>
      </trkpt>
      <trkpt lat="41.1363" lon="20.39377">
        <ele>370.203596</ele>
        <time>2022-05-01T10:25:12.633Z</time>
      </trkpt>
      <trkpt lat="41.13633" lon="20.3936">
        <ele>369.836364</ele>
        <time>2022-05-01T10:25:14.550Z</time>
      </trkpt>
      <trkpt lat="41.13636" lon="20.39344">
        <ele>369.471305</ele>
        <time>2022-05-01T10:25:16.559Z</time>
      </trkpt>
      <trkpt lat="41.13638" lon="20.3933">
        <ele>369.137042</ele>
        <time>2022-05-01T10:25:18.551Z</time>
      </trkpt>
      <trkpt lat="41.1364" lon="20.39314">
        <ele>368.772737</ele>
        <time>2022-05-01T10:25:20.545Z</time>
      </trkpt>
      <trkpt lat="41.13643" lon="20.39298">
        <ele>368.410553</ele>
        <time>2022-05-01T10:25:22.563Z</time>
      </trkpt>
      <trkpt lat="41.13646" lon="20.39281">
        <ele>367.98975</ele>
        <time>2022-05-01T10:25:24.555Z</time>
      </trkpt>
      <trkpt lat="41.13649" lon="20.39263">
        <ele>367.538942</ele>
        <time>2022-05-01T10:25:26.542Z</time>
      </trkpt>
      <trkpt lat="41.13652" lon="20.39245">
        <ele>367.080338</ele>
        <time>2022-05-01T10:25:28.553Z</time>
      </trkpt>
      <trkpt lat="41.13655" lon="20.39227">
        <ele>366.633318</ele>
        <time>2022-05-01T10:25:30.557Z</time>
      </trkpt>
      <trkpt lat="41.13658" lon="20.39209">
        <ele>366.195842</ele>
        <time>2022-05-01T10:25:32.550Z</time>
      </trkpt>
      <trkpt lat="41.13661" lon="20.39191">
        <ele>365.724926</ele>
        <time>2022-05-01T10:25:34.602Z</time>
      </trkpt>
      <trkpt lat="41.13664" lon="20.3917">
        <ele>365.224008</ele>
        <time>2022-05-01T10:25:36.549Z</time>
      </trkpt>
      <trkpt lat="41.13667" lon="20.39149">
        <ele>364.693087</ele>
        <time>2022-05-01T10:25:38.555Z</time>
      </trkpt>
      <trkpt lat="41.13669" lon="20.39137">
        <ele>364.388927</ele>
        <time>2022-05-01T10:25:39.539Z</time>
      </trkpt>
      <trkpt lat="41.13671" lon="20.39125">
        <ele>364.097651</ele>
        <time>2022-05-01T10:25:40.545Z</time>
      </trkpt>
      <trkpt lat="41.13673" lon="20.39114">
        <ele>363.804735</ele>
        <time>2022-05-01T10:25:41.554Z</time>
      </trkpt>
      <trkpt lat="41.13676" lon="20.39102">
        <ele>363.503204</ele>
        <time>2022-05-01T10:25:42.561Z</time>
      </trkpt>
      <trkpt lat="41.13678" lon="20.39089">
        <ele>363.194518</ele>
        <time>2022-05-01T10:25:43.552Z</time>
      </trkpt>
      <trkpt lat="41.13681" lon="20.39078">
        <ele>362.891087</ele>
        <time>2022-05-01T10:25:44.555Z</time>
      </trkpt>
      <trkpt lat="41.13683" lon="20.39065">
        <ele>362.586472</ele>
        <time>2022-05-01T10:25:45.588Z</time>
      </trkpt>
      <trkpt lat="41.13686" lon="20.39053">
        <ele>362.332172</ele>
        <time>2022-05-01T10:25:46.546Z</time>
      </trkpt>
      <trkpt lat="41.1369" lon="20.39041">
        <ele>362.075312</ele>
        <time>2022-05-01T10:25:47.558Z</time>
      </trkpt>
      <trkpt lat="41.13693" lon="20.39029">
        <ele>361.817457</ele>
        <time>2022-05-01T10:25:48.549Z</time>
      </trkpt>
      <trkpt lat="41.13696" lon="20.39017">
        <ele>361.562461</ele>
        <time>2022-05-01T10:25:49.558Z</time>
      </trkpt>
      <trkpt lat="41.13699" lon="20.39005">
        <ele>361.318611</ele>
        <time>2022-05-01T10:25:50.558Z</time>
      </trkpt>
      <trkpt lat="41.13703" lon="20.38993">
        <ele>361.071053</ele>
        <time>2022-05-01T10:25:51.556Z</time>
      </trkpt>
      <trkpt lat="41.13706" lon="20.38982">
        <ele>360.830891</ele>
        <time>2022-05-01T10:25:52.560Z</time>
      </trkpt>
      <trkpt lat="41.13709" lon="20.3897">
        <ele>360.583259</ele>
        <time>2022-05-01T10:25:53.551Z</time>
      </trkpt>
      <trkpt lat="41.13712" lon="20.38959">
        <ele>360.339409</ele>
        <time>2022-05-01T10:25:54.568Z</time>
      </trkpt>
      <trkpt lat="41.13719" lon="20.38937">
        <ele>359.883164</ele>
        <time>2022-05-01T10:25:56.589Z</time>
      </trkpt>
      <trkpt lat="41.13724" lon="20.38916">
        <ele>359.436132</ele>
        <time>2022-05-01T10:25:58.566Z</time>
      </trkpt>
      <trkpt lat="41.13728" lon="20.38894">
        <ele>358.992751</ele>
        <time>2022-05-01T10:26:00.696Z</time>
      </trkpt>
      <trkpt lat="41.1373" lon="20.38871">
        <ele>358.524961</ele>
        <time>2022-05-01T10:26:02.585Z</time>
      </trkpt>
      <trkpt lat="41.1373" lon="20.38848">
        <ele>358.07714</ele>
        <time>2022-05-01T10:26:04.546Z</time>
      </trkpt>
      <trkpt lat="41.13729" lon="20.38826">
        <ele>357.615608</ele>
        <time>2022-05-01T10:26:06.556Z</time>
      </trkpt>
      <trkpt lat="41.13729" lon="20.38806">
        <ele>357.181955</ele>
        <time>2022-05-01T10:26:08.558Z</time>
      </trkpt>
      <trkpt lat="41.1373" lon="20.38784">
        <ele>356.710387</ele>
        <time>2022-05-01T10:26:10.567Z</time>
      </trkpt>
      <trkpt lat="41.13733" lon="20.38764">
        <ele>356.274287</ele>
        <time>2022-05-01T10:26:12.604Z</time>
      </trkpt>
      <trkpt lat="41.13735" lon="20.38746">
        <ele>355.874155</ele>
        <time>2022-05-01T10:26:14.558Z</time>
      </trkpt>
      <trkpt lat="41.13737" lon="20.3873">
        <ele>355.516957</ele>
        <time>2022-05-01T10:26:16.549Z</time>
      </trkpt>
      <trkpt lat="41.13738" lon="20.38714">
        <ele>355.177338</ele>
        <time>2022-05-01T10:26:18.547Z</time>
      </trkpt>
      <trkpt lat="41.1374" lon="20.38698">
        <ele>354.817918</ele>
        <time>2022-05-01T10:26:20.549Z</time>
      </trkpt>
      <trkpt lat="41.13739" lon="20.38682">
        <ele>354.474133</ele>
        <time>2022-05-01T10:26:22.640Z</time>
      </trkpt>
      <trkpt lat="41.13736" lon="20.38666">
        <ele>354.12253</ele>
        <time>2022-05-01T10:26:24.546Z</time>
      </trkpt>
      <trkpt lat="41.13732" lon="20.38652">
        <ele>353.787712</ele>
        <time>2022-05-01T10:26:26.550Z</time>
      </trkpt>
      <trkpt lat="41.13727" lon="20.38637">
        <ele>353.446608</ele>
        <time>2022-05-01T10:26:28.558Z</time>
      </trkpt>
      <trkpt lat="41.13721" lon="20.38624">
        <ele>353.103769</ele>
        <time>2022-05-01T10:26:30.555Z</time>
      </trkpt>
      <trkpt lat="41.13714" lon="20.3861">
        <ele>352.752693</ele>
        <time>2022-05-01T10:26:32.560Z</time>
      </trkpt>
      <trkpt lat="41.13707" lon="20.38596">
        <ele>352.354505</ele>
        <time>2022-05-01T10:26:34.586Z</time>
      </trkpt>
      <trkpt lat="41.13699" lon="20.38583">
        <ele>351.936607</ele>
        <time>2022-05-01T10:26:36.565Z</time>
      </trkpt>
      <trkpt lat="41.1369" lon="20.3857">
        <ele>351.532177</ele>
        <time>2022-05-01T10:26:38.550Z</time>
      </trkpt>
      <trkpt lat="41.1368" lon="20.3856">
        <ele>351.113402</ele>
        <time>2022-05-01T10:26:40.568Z</time>
      </trkpt>
      <trkpt lat="41.13668" lon="20.38552">
        <ele>350.687472</ele>
        <time>2022-05-01T10:26:42.557Z</time>
      </trkpt>
      <trkpt lat="41.13655" lon="20.38545">
        <ele>350.254681</ele>
        <time>2022-05-01T10:26:44.634Z</time>
      </trkpt>
      <trkpt lat="41.13642" lon="20.38538">
        <ele>349.816627</ele>
        <time>2022-05-01T10:26:46.533Z</time>
      </trkpt>
      <trkpt lat="41.13628" lon="20.38532">
        <ele>349.352653</ele>
        <time>2022-05-01T10:26:48.562Z</time>
      </trkpt>
      <trkpt lat="41.13613" lon="20.38525">
        <ele>348.85184</ele>
        <time>2022-05-01T10:26:50.554Z</time>
      </trkpt>
      <trkpt lat="41.13599" lon="20.38516">
        <ele>348.339841</ele>
        <time>2022-05-01T10:26:52.557Z</time>
      </trkpt>
      <trkpt lat="41.13584" lon="20.38506">
        <ele>347.827108</ele>
        <time>2022-05-01T10:26:54.562Z</time>
      </trkpt>
      <trkpt lat="41.13571" lon="20.38493">
        <ele>347.312087</ele>
        <time>2022-05-01T10:26:56.612Z</time>
      </trkpt>
      <trkpt lat="41.1356" lon="20.38477">
        <ele>346.755342</ele>
        <time>2022-05-01T10:26:58.569Z</time>
      </trkpt>
      <trkpt lat="41.13551" lon="20.38458">
        <ele>346.141885</ele>
        <time>2022-05-01T10:27:00.565Z</time>
      </trkpt>
      <trkpt lat="41.13544" lon="20.38438">
        <ele>345.55383</ele>
        <time>2022-05-01T10:27:02.582Z</time>
      </trkpt>
      <trkpt lat="41.1354" lon="20.38415">
        <ele>344.918953</ele>
        <time>2022-05-01T10:27:04.555Z</time>
      </trkpt>
      <trkpt lat="41.13539" lon="20.38403">
        <ele>344.574281</ele>
        <time>2022-05-01T10:27:05.559Z</time>
      </trkpt>
      <trkpt lat="41.13538" lon="20.3839">
        <ele>344.232666</ele>
        <time>2022-05-01T10:27:06.560Z</time>
      </trkpt>
      <trkpt lat="41.1354" lon="20.38367">
        <ele>343.589432</ele>
        <time>2022-05-01T10:27:08.544Z</time>
      </trkpt>
      <trkpt lat="41.13544" lon="20.38345">
        <ele>342.970355</ele>
        <time>2022-05-01T10:27:10.547Z</time>
      </trkpt>
      <trkpt lat="41.13548" lon="20.38323">
        <ele>342.361745</ele>
        <time>2022-05-01T10:27:12.571Z</time>
      </trkpt>
      <trkpt lat="41.13553" lon="20.38302">
        <ele>341.751056</ele>
        <time>2022-05-01T10:27:14.561Z</time>
      </trkpt>
      <trkpt lat="41.13559" lon="20.3828">
        <ele>341.127745</ele>
        <time>2022-05-01T10:27:16.555Z</time>
      </trkpt>
      <trkpt lat="41.13562" lon="20.38269">
        <ele>340.802304</ele>
        <time>2022-05-01T10:27:17.556Z</time>
      </trkpt>
      <trkpt lat="41.13565" lon="20.38258">
        <ele>340.471092</ele>
        <time>2022-05-01T10:27:18.560Z</time>
      </trkpt>
      <trkpt lat="41.13569" lon="20.38247">
        <ele>340.255142</ele>
        <time>2022-05-01T10:27:19.599Z</time>
      </trkpt>
      <trkpt lat="41.13579" lon="20.38227">
        <ele>339.844852</ele>
        <time>2022-05-01T10:27:21.555Z</time>
      </trkpt>
      <trkpt lat="41.1359" lon="20.3821">
        <ele>339.458476</ele>
        <time>2022-05-01T10:27:23.552Z</time>
      </trkpt>
      <trkpt lat="41.13602" lon="20.38199">
        <ele>339.139562</ele>
        <time>2022-05-01T10:27:25.538Z</time>
      </trkpt>
      <trkpt lat="41.13614" lon="20.38191">
        <ele>338.812564</ele>
        <time>2022-05-01T10:27:27.566Z</time>
      </trkpt>
      <trkpt lat="41.13629" lon="20.38184">
        <ele>338.446534</ele>
        <time>2022-05-01T10:27:29.557Z</time>
      </trkpt>
      <trkpt lat="41.13645" lon="20.38181">
        <ele>338.078532</ele>
        <time>2022-05-01T10:27:31.543Z</time>
      </trkpt>
      <trkpt lat="41.13662" lon="20.38182">
        <ele>337.696126</ele>
        <time>2022-05-01T10:27:33.552Z</time>
      </trkpt>
      <trkpt lat="41.13677" lon="20.38186">
        <ele>337.334139</ele>
        <time>2022-05-01T10:27:35.562Z</time>
      </trkpt>
      <trkpt lat="41.13691" lon="20.38193">
        <ele>336.983219</ele>
        <time>2022-05-01T10:27:37.565Z</time>
      </trkpt>
      <trkpt lat="41.13704" lon="20.38202">
        <ele>336.646449</ele>
        <time>2022-05-01T10:27:39.578Z</time>
      </trkpt>
      <trkpt lat="41.13717" lon="20.38212">
        <ele>336.323791</ele>
        <time>2022-05-01T10:27:41.551Z</time>
      </trkpt>
      <trkpt lat="41.13728" lon="20.38222">
        <ele>336.246284</ele>
        <time>2022-05-01T10:27:43.551Z</time>
      </trkpt>
      <trkpt lat="41.13736" lon="20.3823">
        <ele>336.186865</ele>
        <time>2022-05-01T10:27:45.554Z</time>
      </trkpt>
      <trkpt lat="41.13745" lon="20.38237">
        <ele>336.120683</ele>
        <time>2022-05-01T10:27:47.594Z</time>
      </trkpt>
      <trkpt lat="41.13755" lon="20.38246">
        <ele>336.048464</ele>
        <time>2022-05-01T10:27:49.533Z</time>
      </trkpt>
      <trkpt lat="41.13767" lon="20.38256">
        <ele>335.964659</ele>
        <time>2022-05-01T10:27:51.532Z</time>
      </trkpt>
      <trkpt lat="41.13778" lon="20.38266">
        <ele>335.880867</ele>
        <time>2022-05-01T10:27:53.539Z</time>
      </trkpt>
      <trkpt lat="41.13789" lon="20.38277">
        <ele>335.800767</ele>
        <time>2022-05-01T10:27:55.544Z</time>
      </trkpt>
      <trkpt lat="41.13799" lon="20.38286">
        <ele>335.727545</ele>
        <time>2022-05-01T10:27:57.559Z</time>
      </trkpt>
      <trkpt lat="41.13808" lon="20.38294">
        <ele>335.662109</ele>
        <time>2022-05-01T10:27:59.543Z</time>
      </trkpt>
      <trkpt lat="41.13817" lon="20.38301">
        <ele>335.600185</ele>
        <time>2022-05-01T10:28:01.563Z</time>
      </trkpt>
      <trkpt lat="41.13825" lon="20.38308">
        <ele>335.539489</ele>
        <time>2022-05-01T10:28:03.553Z</time>
      </trkpt>
      <trkpt lat="41.13834" lon="20.38315">
        <ele>335.480009</ele>
        <time>2022-05-01T10:28:05.546Z</time>
      </trkpt>
      <trkpt lat="41.13842" lon="20.3832">
        <ele>335.424516</ele>
        <time>2022-05-01T10:28:07.565Z</time>
      </trkpt>
      <trkpt lat="41.13851" lon="20.38325">
        <ele>335.366697</ele>
        <time>2022-05-01T10:28:09.530Z</time>
      </trkpt>
      <trkpt lat="41.1386" lon="20.38329">
        <ele>335.307504</ele>
        <time>2022-05-01T10:28:11.545Z</time>
      </trkpt>
      <trkpt lat="41.1387" lon="20.38333">
        <ele>335.248997</ele>
        <time>2022-05-01T10:28:13.622Z</time>
      </trkpt>
      <trkpt lat="41.13879" lon="20.38337">
        <ele>335.613238</ele>
        <time>2022-05-01T10:28:15.550Z</time>
      </trkpt>
      <trkpt lat="41.13888" lon="20.3834">
        <ele>336.004124</ele>
        <time>2022-05-01T10:28:17.544Z</time>
      </trkpt>
      <trkpt lat="41.13898" lon="20.38343">
        <ele>336.395011</ele>
        <time>2022-05-01T10:28:19.532Z</time>
      </trkpt>
      <trkpt lat="41.13908" lon="20.38347">
        <ele>336.808806</ele>
        <time>2022-05-01T10:28:21.540Z</time>
      </trkpt>
      <trkpt lat="41.13918" lon="20.38351">
        <ele>337.220261</ele>
        <time>2022-05-01T10:28:23.562Z</time>
      </trkpt>
      <trkpt lat="41.13928" lon="20.38354">
        <ele>337.618079</ele>
        <time>2022-05-01T10:28:25.576Z</time>
      </trkpt>
      <trkpt lat="41.13937" lon="20.38357">
        <ele>337.977938</ele>
        <time>2022-05-01T10:28:27.566Z</time>
      </trkpt>
      <trkpt lat="41.13949" lon="20.38361">
        <ele>338.491758</ele>
        <time>2022-05-01T10:28:30.547Z</time>
      </trkpt>
      <trkpt lat="41.13962" lon="20.38364">
        <ele>339.017343</ele>
        <time>2022-05-01T10:28:33.548Z</time>
      </trkpt>
      <trkpt lat="41.13975" lon="20.38367">
        <ele>339.530757</ele>
        <time>2022-05-01T10:28:36.567Z</time>
      </trkpt>
      <trkpt lat="41.13986" lon="20.3837">
        <ele>339.984995</ele>
        <time>2022-05-01T10:28:39.555Z</time>
      </trkpt>
      <trkpt lat="41.13998" lon="20.38373">
        <ele>340.438107</ele>
        <time>2022-05-01T10:28:42.560Z</time>
      </trkpt>
      <trkpt lat="41.1401" lon="20.38375">
        <ele>340.911304</ele>
        <time>2022-05-01T10:28:46.549Z</time>
      </trkpt>
      <trkpt lat="41.1402" lon="20.38378">
        <ele>341.338566</ele>
        <time>2022-05-01T10:28:50.549Z</time>
      </trkpt>
      <trkpt lat="41.14031" lon="20.38379">
        <ele>341.748072</ele>
        <time>2022-05-01T10:28:54.569Z</time>
      </trkpt>
      <trkpt lat="41.14042" lon="20.38382">
        <ele>342.184089</ele>
        <time>2022-05-01T10:28:59.537Z</time>
      </trkpt>
      <trkpt lat="41.14052" lon="20.38385">
        <ele>342.452612</ele>
        <time>2022-05-01T10:29:04.545Z</time>
      </trkpt>
      <trkpt lat="41.14062" lon="20.38387">
        <ele>342.635473</ele>
        <time>2022-05-01T10:29:09.535Z</time>
      </trkpt>
      <trkpt lat="41.14072" lon="20.38388">
        <ele>342.806428</ele>
        <time>2022-05-01T10:29:14.585Z</time>
      </trkpt>
      <trkpt lat="41.14082" lon="20.38388">
        <ele>342.983591</ele>
        <time>2022-05-01T10:29:18.548Z</time>
      </trkpt>
      <trkpt lat="41.14092" lon="20.38388">
        <ele>343.164298</ele>
        <time>2022-05-01T10:29:22.546Z</time>
      </trkpt>
      <trkpt lat="41.14102" lon="20.38387">
        <ele>343.340677</ele>
        <time>2022-05-01T10:29:26.545Z</time>
      </trkpt>
      <trkpt lat="41.14112" lon="20.38384">
        <ele>343.526672</ele>
        <time>2022-05-01T10:29:30.557Z</time>
      </trkpt>
      <trkpt lat="41.14123" lon="20.3838">
        <ele>343.724723</ele>
        <time>2022-05-01T10:29:34.567Z</time>
      </trkpt>
      <trkpt lat="41.14132" lon="20.38375">
        <ele>343.900832</ele>
        <time>2022-05-01T10:29:38.554Z</time>
      </trkpt>
      <trkpt lat="41.14141" lon="20.38369">
        <ele>344.078061</ele>
        <time>2022-05-01T10:29:42.567Z</time>
      </trkpt>
      <trkpt lat="41.14151" lon="20.38362">
        <ele>344.285844</ele>
        <time>2022-05-01T10:29:46.542Z</time>
      </trkpt>
      <trkpt lat="41.1416" lon="20.38354">
        <ele>344.466672</ele>
        <time>2022-05-01T10:29:49.543Z</time>
      </trkpt>
      <trkpt lat="41.14169" lon="20.38342">
        <ele>344.69988</ele>
        <time>2022-05-01T10:29:52.560Z</time>
      </trkpt>
      <trkpt lat="41.14176" lon="20.38331">
        <ele>344.885535</ele>
        <time>2022-05-01T10:29:54.547Z</time>
      </trkpt>
      <trkpt lat="41.14183" lon="20.38319">
        <ele>345.09016</ele>
        <time>2022-05-01T10:29:56.531Z</time>
      </trkpt>
      <trkpt lat="41.1419" lon="20.38306">
        <ele>345.304753</ele>
        <time>2022-05-01T10:29:58.573Z</time>
      </trkpt>
      <trkpt lat="41.14196" lon="20.38291">
        <ele>345.516644</ele>
        <time>2022-05-01T10:30:00.545Z</time>
      </trkpt>
      <trkpt lat="41.14203" lon="20.38276">
        <ele>345.35546</ele>
        <time>2022-05-01T10:30:02.552Z</time>
      </trkpt>
      <trkpt lat="41.14211" lon="20.38261">
        <ele>345.185912</ele>
        <time>2022-05-01T10:30:04.554Z</time>
      </trkpt>
      <trkpt lat="41.1422" lon="20.38244">
        <ele>345.006328</ele>
        <time>2022-05-01T10:30:06.543Z</time>
      </trkpt>
      <trkpt lat="41.14229" lon="20.38228">
        <ele>344.823322</ele>
        <time>2022-05-01T10:30:08.567Z</time>
      </trkpt>
      <trkpt lat="41.14239" lon="20.38211">
        <ele>344.628025</ele>
        <time>2022-05-01T10:30:10.585Z</time>
      </trkpt>
      <trkpt lat="41.14249" lon="20.38193">
        <ele>344.424054</ele>
        <time>2022-05-01T10:30:12.557Z</time>
      </trkpt>
      <trkpt lat="41.14259" lon="20.38174">
        <ele>344.219997</ele>
        <time>2022-05-01T10:30:14.548Z</time>
      </trkpt>
      <trkpt lat="41.14269" lon="20.38157">
        <ele>344.021092</ele>
        <time>2022-05-01T10:30:16.556Z</time>
      </trkpt>
      <trkpt lat="41.14278" lon="20.3814">
        <ele>343.834484</ele>
        <time>2022-05-01T10:30:18.565Z</time>
      </trkpt>
      <trkpt lat="41.14287" lon="20.38125">
        <ele>343.660153</ele>
        <time>2022-05-01T10:30:20.584Z</time>
      </trkpt>
      <trkpt lat="41.14295" lon="20.38111">
        <ele>343.498824</ele>
        <time>2022-05-01T10:30:22.548Z</time>
      </trkpt>
      <trkpt lat="41.14302" lon="20.38099">
        <ele>343.362764</ele>
        <time>2022-05-01T10:30:24.546Z</time>
      </trkpt>
      <trkpt lat="41.14309" lon="20.38089">
        <ele>343.767777</ele>
        <time>2022-05-01T10:30:26.543Z</time>
      </trkpt>
      <trkpt lat="41.14317" lon="20.38075">
        <ele>344.306415</ele>
        <time>2022-05-01T10:30:29.555Z</time>
      </trkpt>
      <trkpt lat="41.14324" lon="20.38064">
        <ele>344.751319</ele>
        <time>2022-05-01T10:30:32.559Z</time>
      </trkpt>
      <trkpt lat="41.1433" lon="20.38054">
        <ele>345.131931</ele>
        <time>2022-05-01T10:30:35.547Z</time>
      </trkpt>
      <trkpt lat="41.14336" lon="20.38044">
        <ele>345.53443</ele>
        <time>2022-05-01T10:30:39.571Z</time>
      </trkpt>
      <trkpt lat="41.14342" lon="20.38034">
        <ele>345.922581</ele>
        <time>2022-05-01T10:30:43.531Z</time>
      </trkpt>
      <trkpt lat="41.14349" lon="20.38025">
        <ele>346.292711</ele>
        <time>2022-05-01T10:30:47.586Z</time>
      </trkpt>
      <trkpt lat="41.14355" lon="20.38015">
        <ele>346.673435</ele>
        <time>2022-05-01T10:30:51.537Z</time>
      </trkpt>
      <trkpt lat="41.14361" lon="20.38005">
        <ele>347.083815</ele>
        <time>2022-05-01T10:30:56.540Z</time>
      </trkpt>
      <trkpt lat="41.14367" lon="20.37995">
        <ele>347.469427</ele>
        <time>2022-05-01T10:31:01.533Z</time>
      </trkpt>
      <trkpt lat="41.14374" lon="20.37986">
        <ele>347.849151</ele>
        <time>2022-05-01T10:31:06.550Z</time>
      </trkpt>
      <trkpt lat="41.1438" lon="20.37977">
        <ele>348.241357</ele>
        <time>2022-05-01T10:31:11.550Z</time>
      </trkpt>
      <trkpt lat="41.14387" lon="20.37966">
        <ele>348.666515</ele>
        <time>2022-05-01T10:31:16.546Z</time>
      </trkpt>
      <trkpt lat="41.14395" lon="20.37956">
        <ele>349.097628</ele>
        <time>2022-05-01T10:31:20.543Z</time>
      </trkpt>
      <trkpt lat="41.14403" lon="20.37945">
        <ele>349.5517</ele>
        <time>2022-05-01T10:31:24.549Z</time>
      </trkpt>
      <trkpt lat="41.14411" lon="20.37934">
        <ele>350.007966</ele>
        <time>2022-05-01T10:31:28.541Z</time>
      </trkpt>
      <trkpt lat="41.14417" lon="20.37925">
        <ele>350.389158</ele>
        <time>2022-05-01T10:31:31.555Z</time>
      </trkpt>
      <trkpt lat="41.14424" lon="20.37915">
        <ele>350.7733</ele>
        <time>2022-05-01T10:31:34.556Z</time>
      </trkpt>
      <trkpt lat="41.14431" lon="20.37905">
        <ele>351.141909</ele>
        <time>2022-05-01T10:31:37.561Z</time>
      </trkpt>
      <trkpt lat="41.14439" lon="20.37895">
        <ele>351.51415</ele>
        <time>2022-05-01T10:31:40.553Z</time>
      </trkpt>
      <trkpt lat="41.14446" lon="20.37886">
        <ele>351.87277</ele>
        <time>2022-05-01T10:31:43.578Z</time>
      </trkpt>
      <trkpt lat="41.14453" lon="20.37877">
        <ele>352.215967</ele>
        <time>2022-05-01T10:31:46.554Z</time>
      </trkpt>
      <trkpt lat="41.14462" lon="20.37866">
        <ele>352.639212</ele>
        <time>2022-05-01T10:31:50.560Z</time>
      </trkpt>
      <trkpt lat="41.1447" lon="20.37858">
        <ele>352.994181</ele>
        <time>2022-05-01T10:31:53.553Z</time>
      </trkpt>
      <trkpt lat="41.14478" lon="20.3785">
        <ele>353.335588</ele>
        <time>2022-05-01T10:31:56.564Z</time>
      </trkpt>
      <trkpt lat="41.14487" lon="20.37842">
        <ele>353.708438</ele>
        <time>2022-05-01T10:31:59.557Z</time>
      </trkpt>
      <trkpt lat="41.14498" lon="20.37834">
        <ele>354.154759</ele>
        <time>2022-05-01T10:32:02.558Z</time>
      </trkpt>
      <trkpt lat="41.14506" lon="20.37828">
        <ele>354.474721</ele>
        <time>2022-05-01T10:32:04.547Z</time>
      </trkpt>
      <trkpt lat="41.14514" lon="20.37822">
        <ele>354.805756</ele>
        <time>2022-05-01T10:32:06.579Z</time>
      </trkpt>
      <trkpt lat="41.14523" lon="20.37816">
        <ele>355.136791</ele>
        <time>2022-05-01T10:32:08.552Z</time>
      </trkpt>
      <trkpt lat="41.14531" lon="20.3781">
        <ele>355.462309</ele>
        <time>2022-05-01T10:32:10.560Z</time>
      </trkpt>
      <trkpt lat="41.14541" lon="20.37806">
        <ele>355.813504</ele>
        <time>2022-05-01T10:32:12.556Z</time>
      </trkpt>
      <trkpt lat="41.1455" lon="20.378">
        <ele>356.182273</ele>
        <time>2022-05-01T10:32:14.532Z</time>
      </trkpt>
      <trkpt lat="41.1456" lon="20.37793">
        <ele>356.578213</ele>
        <time>2022-05-01T10:32:16.565Z</time>
      </trkpt>
      <trkpt lat="41.1457" lon="20.37787">
        <ele>356.800443</ele>
        <time>2022-05-01T10:32:18.548Z</time>
      </trkpt>
      <trkpt lat="41.14581" lon="20.37781">
        <ele>356.211764</ele>
        <time>2022-05-01T10:32:20.548Z</time>
      </trkpt>
      <trkpt lat="41.14592" lon="20.37774">
        <ele>355.578507</ele>
        <time>2022-05-01T10:32:22.529Z</time>
      </trkpt>
      <trkpt lat="41.14604" lon="20.37766">
        <ele>354.901997</ele>
        <time>2022-05-01T10:32:24.541Z</time>
      </trkpt>
      <trkpt lat="41.14617" lon="20.37758">
        <ele>354.194521</ele>
        <time>2022-05-01T10:32:26.538Z</time>
      </trkpt>
      <trkpt lat="41.14631" lon="20.37749">
        <ele>353.39046</ele>
        <time>2022-05-01T10:32:28.571Z</time>
      </trkpt>
      <trkpt lat="41.14646" lon="20.37739">
        <ele>352.557105</ele>
        <time>2022-05-01T10:32:30.552Z</time>
      </trkpt>
      <trkpt lat="41.14661" lon="20.3773">
        <ele>351.711368</ele>
        <time>2022-05-01T10:32:32.543Z</time>
      </trkpt>
      <trkpt lat="41.14677" lon="20.3772">
        <ele>350.845808</ele>
        <time>2022-05-01T10:32:34.550Z</time>
      </trkpt>
      <trkpt lat="41.14693" lon="20.3771">
        <ele>349.974062</ele>
        <time>2022-05-01T10:32:36.551Z</time>
      </trkpt>
      <trkpt lat="41.14708" lon="20.377">
        <ele>349.10521</ele>
        <time>2022-05-01T10:32:38.563Z</time>
      </trkpt>
      <trkpt lat="41.14724" lon="20.3769">
        <ele>348.21324</ele>
        <time>2022-05-01T10:32:40.550Z</time>
      </trkpt>
      <trkpt lat="41.14732" lon="20.37684">
        <ele>347.737182</ele>
        <time>2022-05-01T10:32:41.543Z</time>
      </trkpt>
      <trkpt lat="41.14741" lon="20.37679">
        <ele>347.192067</ele>
        <time>2022-05-01T10:32:42.555Z</time>
      </trkpt>
      <trkpt lat="41.14749" lon="20.37673">
        <ele>346.645058</ele>
        <time>2022-05-01T10:32:43.555Z</time>
      </trkpt>
      <trkpt lat="41.14758" lon="20.37668">
        <ele>346.091314</ele>
        <time>2022-05-01T10:32:44.542Z</time>
      </trkpt>
      <trkpt lat="41.14767" lon="20.37662">
        <ele>345.535262</ele>
        <time>2022-05-01T10:32:45.594Z</time>
      </trkpt>
      <trkpt lat="41.14775" lon="20.37657">
        <ele>344.972088</ele>
        <time>2022-05-01T10:32:46.536Z</time>
      </trkpt>
      <trkpt lat="41.14784" lon="20.37651">
        <ele>344.41008</ele>
        <time>2022-05-01T10:32:47.540Z</time>
      </trkpt>
      <trkpt lat="41.14792" lon="20.37644">
        <ele>343.842637</ele>
        <time>2022-05-01T10:32:48.542Z</time>
      </trkpt>
      <trkpt lat="41.14801" lon="20.37637">
        <ele>343.280715</ele>
        <time>2022-05-01T10:32:49.542Z</time>
      </trkpt>
      <trkpt lat="41.14809" lon="20.3763">
        <ele>342.714403</ele>
        <time>2022-05-01T10:32:50.546Z</time>
      </trkpt>
      <trkpt lat="41.14817" lon="20.37622">
        <ele>342.121433</ele>
        <time>2022-05-01T10:32:51.592Z</time>
      </trkpt>
      <trkpt lat="41.14826" lon="20.37615">
        <ele>341.525956</ele>
        <time>2022-05-01T10:32:52.574Z</time>
      </trkpt>
      <trkpt lat="41.14834" lon="20.37607">
        <ele>340.935471</ele>
        <time>2022-05-01T10:32:53.536Z</time>
      </trkpt>
      <trkpt lat="41.14843" lon="20.37599">
        <ele>340.315746</ele>
        <time>2022-05-01T10:32:54.555Z</time>
      </trkpt>
      <trkpt lat="41.14851" lon="20.3759">
        <ele>339.69347</ele>
        <time>2022-05-01T10:32:55.558Z</time>
      </trkpt>
      <trkpt lat="41.1486" lon="20.37582">
        <ele>339.059265</ele>
        <time>2022-05-01T10:32:56.542Z</time>
      </trkpt>
      <trkpt lat="41.14869" lon="20.37573">
        <ele>338.436989</ele>
        <time>2022-05-01T10:32:57.559Z</time>
      </trkpt>
      <trkpt lat="41.14878" lon="20.37565">
        <ele>337.817265</ele>
        <time>2022-05-01T10:32:58.554Z</time>
      </trkpt>
      <trkpt lat="41.14886" lon="20.37557">
        <ele>337.341001</ele>
        <time>2022-05-01T10:32:59.537Z</time>
      </trkpt>
      <trkpt lat="41.14895" lon="20.37549">
        <ele>337.103487</ele>
        <time>2022-05-01T10:33:00.536Z</time>
      </trkpt>
      <trkpt lat="41.14904" lon="20.3754">
        <ele>336.865859</ele>
        <time>2022-05-01T10:33:01.567Z</time>
      </trkpt>
      <trkpt lat="41.14912" lon="20.37533">
        <ele>336.63484</ele>
        <time>2022-05-01T10:33:02.538Z</time>
      </trkpt>
      <trkpt lat="41.14921" lon="20.37524">
        <ele>336.399011</ele>
        <time>2022-05-01T10:33:03.547Z</time>
      </trkpt>
      <trkpt lat="41.14929" lon="20.37516">
        <ele>336.166756</ele>
        <time>2022-05-01T10:33:04.540Z</time>
      </trkpt>
      <trkpt lat="41.14938" lon="20.37508">
        <ele>335.933837</ele>
        <time>2022-05-01T10:33:05.546Z</time>
      </trkpt>
      <trkpt lat="41.14947" lon="20.37501">
        <ele>335.70652</ele>
        <time>2022-05-01T10:33:06.547Z</time>
      </trkpt>
      <trkpt lat="41.14955" lon="20.37493">
        <ele>335.479123</ele>
        <time>2022-05-01T10:33:07.548Z</time>
      </trkpt>
      <trkpt lat="41.14964" lon="20.37487">
        <ele>335.258143</ele>
        <time>2022-05-01T10:33:08.543Z</time>
      </trkpt>
      <trkpt lat="41.14973" lon="20.37482">
        <ele>335.047856</ele>
        <time>2022-05-01T10:33:09.550Z</time>
      </trkpt>
      <trkpt lat="41.14981" lon="20.37478">
        <ele>334.843074</ele>
        <time>2022-05-01T10:33:10.566Z</time>
      </trkpt>
      <trkpt lat="41.1499" lon="20.37475">
        <ele>334.639771</ele>
        <time>2022-05-01T10:33:11.539Z</time>
      </trkpt>
      <trkpt lat="41.15008" lon="20.37471">
        <ele>334.245575</ele>
        <time>2022-05-01T10:33:13.584Z</time>
      </trkpt>
      <trkpt lat="41.15025" lon="20.37467">
        <ele>333.860068</ele>
        <time>2022-05-01T10:33:15.554Z</time>
      </trkpt>
      <trkpt lat="41.15041" lon="20.37464">
        <ele>333.493791</ele>
        <time>2022-05-01T10:33:17.546Z</time>
      </trkpt>
      <trkpt lat="41.15057" lon="20.3746">
        <ele>333.371985</ele>
        <time>2022-05-01T10:33:19.552Z</time>
      </trkpt>
      <trkpt lat="41.15072" lon="20.37456">
        <ele>333.303117</ele>
        <time>2022-05-01T10:33:21.550Z</time>
      </trkpt>
      <trkpt lat="41.15085" lon="20.37451">
        <ele>333.239591</ele>
        <time>2022-05-01T10:33:23.550Z</time>
      </trkpt>
      <trkpt lat="41.15099" lon="20.37445">
        <ele>333.17643</ele>
        <time>2022-05-01T10:33:25.558Z</time>
      </trkpt>
      <trkpt lat="41.15111" lon="20.37439">
        <ele>333.114547</ele>
        <time>2022-05-01T10:33:27.565Z</time>
      </trkpt>
      <trkpt lat="41.15123" lon="20.37433">
        <ele>333.056503</ele>
        <time>2022-05-01T10:33:29.535Z</time>
      </trkpt>
      <trkpt lat="41.15135" lon="20.37427">
        <ele>332.999603</ele>
        <time>2022-05-01T10:33:31.548Z</time>
      </trkpt>
      <trkpt lat="41.15146" lon="20.3742">
        <ele>332.944948</ele>
        <time>2022-05-01T10:33:33.561Z</time>
      </trkpt>
      <trkpt lat="41.15156" lon="20.37413">
        <ele>332.892198</ele>
        <time>2022-05-01T10:33:35.534Z</time>
      </trkpt>
      <trkpt lat="41.15166" lon="20.37406">
        <ele>332.841798</ele>
        <time>2022-05-01T10:33:37.556Z</time>
      </trkpt>
      <trkpt lat="41.15175" lon="20.37398">
        <ele>332.791188</ele>
        <time>2022-05-01T10:33:39.563Z</time>
      </trkpt>
      <trkpt lat="41.15184" lon="20.37389">
        <ele>332.742406</ele>
        <time>2022-05-01T10:33:41.530Z</time>
      </trkpt>
      <trkpt lat="41.15191" lon="20.37382">
        <ele>332.699569</ele>
        <time>2022-05-01T10:33:43.569Z</time>
      </trkpt>
      <trkpt lat="41.15199" lon="20.37373">
        <ele>332.651414</ele>
        <time>2022-05-01T10:33:45.553Z</time>
      </trkpt>
      <trkpt lat="41.15207" lon="20.37364">
        <ele>332.590235</ele>
        <time>2022-05-01T10:33:47.569Z</time>
      </trkpt>
      <trkpt lat="41.15214" lon="20.37354">
        <ele>332.477537</ele>
        <time>2022-05-01T10:33:49.559Z</time>
      </trkpt>
      <trkpt lat="41.15222" lon="20.37343">
        <ele>332.357042</ele>
        <time>2022-05-01T10:33:51.543Z</time>
      </trkpt>
      <trkpt lat="41.15229" lon="20.37331">
        <ele>332.228354</ele>
        <time>2022-05-01T10:33:53.549Z</time>
      </trkpt>
      <trkpt lat="41.15236" lon="20.37318">
        <ele>332.09044</ele>
        <time>2022-05-01T10:33:55.563Z</time>
      </trkpt>
      <trkpt lat="41.15244" lon="20.37303">
        <ele>331.938642</ele>
        <time>2022-05-01T10:33:57.559Z</time>
      </trkpt>
      <trkpt lat="41.15253" lon="20.37287">
        <ele>331.780137</ele>
        <time>2022-05-01T10:33:59.537Z</time>
      </trkpt>
      <trkpt lat="41.15262" lon="20.37269">
        <ele>331.601122</ele>
        <time>2022-05-01T10:34:01.578Z</time>
      </trkpt>
      <trkpt lat="41.15271" lon="20.3725">
        <ele>331.409971</ele>
        <time>2022-05-01T10:34:03.559Z</time>
      </trkpt>
      <trkpt lat="41.15281" lon="20.37229">
        <ele>331.214972</ele>
        <time>2022-05-01T10:34:05.571Z</time>
      </trkpt>
      <trkpt lat="41.15284" lon="20.37218">
        <ele>331.114544</ele>
        <time>2022-05-01T10:34:06.561Z</time>
      </trkpt>
      <trkpt lat="41.15288" lon="20.37207">
        <ele>331.014862</ele>
        <time>2022-05-01T10:34:07.536Z</time>
      </trkpt>
      <trkpt lat="41.15292" lon="20.37196">
        <ele>330.913839</ele>
        <time>2022-05-01T10:34:08.531Z</time>
      </trkpt>
      <trkpt lat="41.15296" lon="20.37185">
        <ele>330.807244</ele>
        <time>2022-05-01T10:34:09.558Z</time>
      </trkpt>
      <trkpt lat="41.153" lon="20.37173">
        <ele>330.6999</ele>
        <time>2022-05-01T10:34:10.548Z</time>
      </trkpt>
      <trkpt lat="41.15304" lon="20.3716">
        <ele>330.532393</ele>
        <time>2022-05-01T10:34:11.536Z</time>
      </trkpt>
      <trkpt lat="41.15308" lon="20.37147">
        <ele>330.302278</ele>
        <time>2022-05-01T10:34:12.557Z</time>
      </trkpt>
      <trkpt lat="41.15311" lon="20.37133">
        <ele>330.065424</ele>
        <time>2022-05-01T10:34:13.540Z</time>
      </trkpt>
      <trkpt lat="41.15313" lon="20.37119">
        <ele>329.831356</ele>
        <time>2022-05-01T10:34:14.535Z</time>
      </trkpt>
      <trkpt lat="41.15315" lon="20.37106">
        <ele>329.604181</ele>
        <time>2022-05-01T10:34:15.580Z</time>
      </trkpt>
      <trkpt lat="41.15318" lon="20.37093">
        <ele>329.390627</ele>
        <time>2022-05-01T10:34:16.548Z</time>
      </trkpt>
      <trkpt lat="41.15322" lon="20.3708">
        <ele>329.162051</ele>
        <time>2022-05-01T10:34:17.544Z</time>
      </trkpt>
      <trkpt lat="41.15327" lon="20.37069">
        <ele>328.952949</ele>
        <time>2022-05-01T10:34:18.630Z</time>
      </trkpt>
      <trkpt lat="41.15339" lon="20.37051">
        <ele>328.554183</ele>
        <time>2022-05-01T10:34:20.545Z</time>
      </trkpt>
      <trkpt lat="41.15345" lon="20.37041">
        <ele>328.348654</ele>
        <time>2022-05-01T10:34:21.588Z</time>
      </trkpt>
      <trkpt lat="41.1535" lon="20.37032">
        <ele>328.152884</ele>
        <time>2022-05-01T10:34:22.561Z</time>
      </trkpt>
      <trkpt lat="41.15359" lon="20.37013">
        <ele>327.795037</ele>
        <time>2022-05-01T10:34:24.552Z</time>
      </trkpt>
      <trkpt lat="41.15365" lon="20.36994">
        <ele>327.452387</ele>
        <time>2022-05-01T10:34:26.574Z</time>
      </trkpt>
      <trkpt lat="41.15369" lon="20.36979">
        <ele>327.192211</ele>
        <time>2022-05-01T10:34:28.541Z</time>
      </trkpt>
      <trkpt lat="41.1537" lon="20.36966">
        <ele>326.967094</ele>
        <time>2022-05-01T10:34:30.567Z</time>
      </trkpt>
      <trkpt lat="41.15371" lon="20.36952">
        <ele>326.743034</ele>
        <time>2022-05-01T10:34:32.548Z</time>
      </trkpt>
      <trkpt lat="41.15369" lon="20.36935">
        <ele>326.898532</ele>
        <time>2022-05-01T10:34:35.566Z</time>
      </trkpt>
      <trkpt lat="41.15367" lon="20.36923">
        <ele>327.051014</ele>
        <time>2022-05-01T10:34:37.593Z</time>
      </trkpt>
      <trkpt lat="41.15364" lon="20.36911">
        <ele>327.202553</ele>
        <time>2022-05-01T10:34:39.559Z</time>
      </trkpt>
      <trkpt lat="41.1536" lon="20.36898">
        <ele>327.362551</ele>
        <time>2022-05-01T10:34:41.563Z</time>
      </trkpt>
      <trkpt lat="41.15355" lon="20.36886">
        <ele>327.529288</ele>
        <time>2022-05-01T10:34:43.547Z</time>
      </trkpt>
      <trkpt lat="41.15351" lon="20.36875">
        <ele>327.68768</ele>
        <time>2022-05-01T10:34:45.534Z</time>
      </trkpt>
      <trkpt lat="41.15345" lon="20.36862">
        <ele>327.858344</ele>
        <time>2022-05-01T10:34:47.566Z</time>
      </trkpt>
      <trkpt lat="41.1534" lon="20.36849">
        <ele>328.035552</ele>
        <time>2022-05-01T10:34:49.559Z</time>
      </trkpt>
      <trkpt lat="41.15335" lon="20.36837">
        <ele>328.211493</ele>
        <time>2022-05-01T10:34:51.545Z</time>
      </trkpt>
      <trkpt lat="41.1533" lon="20.36824">
        <ele>328.381778</ele>
        <time>2022-05-01T10:34:53.559Z</time>
      </trkpt>
      <trkpt lat="41.15326" lon="20.3681">
        <ele>328.559139</ele>
        <time>2022-05-01T10:34:55.549Z</time>
      </trkpt>
      <trkpt lat="41.15322" lon="20.36796">
        <ele>328.734701</ele>
        <time>2022-05-01T10:34:57.583Z</time>
      </trkpt>
      <trkpt lat="41.15318" lon="20.36782">
        <ele>328.921514</ele>
        <time>2022-05-01T10:34:59.625Z</time>
      </trkpt>
      <trkpt lat="41.15315" lon="20.36767">
        <ele>329.110058</ele>
        <time>2022-05-01T10:35:01.553Z</time>
      </trkpt>
      <trkpt lat="41.15312" lon="20.36753">
        <ele>329.284159</ele>
        <time>2022-05-01T10:35:03.544Z</time>
      </trkpt>
      <trkpt lat="41.15309" lon="20.36739">
        <ele>329.462851</ele>
        <time>2022-05-01T10:35:05.543Z</time>
      </trkpt>
      <trkpt lat="41.15307" lon="20.36724">
        <ele>329.682175</ele>
        <time>2022-05-01T10:35:07.568Z</time>
      </trkpt>
      <trkpt lat="41.15304" lon="20.36712">
        <ele>329.980637</ele>
        <time>2022-05-01T10:35:09.550Z</time>
      </trkpt>
      <trkpt lat="41.15301" lon="20.36698">
        <ele>330.313153</ele>
        <time>2022-05-01T10:35:11.555Z</time>
      </trkpt>
      <trkpt lat="41.15298" lon="20.36684">
        <ele>330.637518</ele>
        <time>2022-05-01T10:35:13.554Z</time>
      </trkpt>
      <trkpt lat="41.15295" lon="20.3667">
        <ele>330.964086</ele>
        <time>2022-05-01T10:35:15.562Z</time>
      </trkpt>
      <trkpt lat="41.15293" lon="20.36658">
        <ele>331.251689</ele>
        <time>2022-05-01T10:35:17.556Z</time>
      </trkpt>
      <trkpt lat="41.1529" lon="20.36646">
        <ele>331.527902</ele>
        <time>2022-05-01T10:35:19.545Z</time>
      </trkpt>
      <trkpt lat="41.15288" lon="20.36634">
        <ele>331.811151</ele>
        <time>2022-05-01T10:35:21.548Z</time>
      </trkpt>
      <trkpt lat="41.15285" lon="20.36623">
        <ele>332.083454</ele>
        <time>2022-05-01T10:35:23.543Z</time>
      </trkpt>
      <trkpt lat="41.15283" lon="20.36611">
        <ele>332.36232</ele>
        <time>2022-05-01T10:35:25.538Z</time>
      </trkpt>
      <trkpt lat="41.1528" lon="20.36599">
        <ele>332.640708</ele>
        <time>2022-05-01T10:35:27.578Z</time>
      </trkpt>
      <trkpt lat="41.15276" lon="20.36583">
        <ele>333.024236</ele>
        <time>2022-05-01T10:35:30.565Z</time>
      </trkpt>
      <trkpt lat="41.15272" lon="20.36567">
        <ele>333.420743</ele>
        <time>2022-05-01T10:35:33.591Z</time>
      </trkpt>
      <trkpt lat="41.15268" lon="20.36555">
        <ele>333.706444</ele>
        <time>2022-05-01T10:35:35.547Z</time>
      </trkpt>
      <trkpt lat="41.15265" lon="20.36539">
        <ele>334.094231</ele>
        <time>2022-05-01T10:35:38.549Z</time>
      </trkpt>
      <trkpt lat="41.15263" lon="20.36527">
        <ele>334.368743</ele>
        <time>2022-05-01T10:35:40.563Z</time>
      </trkpt>
      <trkpt lat="41.15262" lon="20.36513">
        <ele>334.682875</ele>
        <time>2022-05-01T10:35:42.558Z</time>
      </trkpt>
      <trkpt lat="41.15261" lon="20.36499">
        <ele>335.015237</ele>
        <time>2022-05-01T10:35:44.541Z</time>
      </trkpt>
      <trkpt lat="41.15262" lon="20.36484">
        <ele>334.734849</ele>
        <time>2022-05-01T10:35:46.552Z</time>
      </trkpt>
      <trkpt lat="41.15264" lon="20.36469">
        <ele>334.434341</ele>
        <time>2022-05-01T10:35:48.538Z</time>
      </trkpt>
      <trkpt lat="41.15267" lon="20.36454">
        <ele>334.143729</ele>
        <time>2022-05-01T10:35:50.543Z</time>
      </trkpt>
      <trkpt lat="41.15271" lon="20.36439">
        <ele>333.837175</ele>
        <time>2022-05-01T10:35:52.542Z</time>
      </trkpt>
      <trkpt lat="41.15276" lon="20.36425">
        <ele>333.531451</ele>
        <time>2022-05-01T10:35:54.554Z</time>
      </trkpt>
      <trkpt lat="41.15282" lon="20.36412">
        <ele>333.239755</ele>
        <time>2022-05-01T10:35:56.564Z</time>
      </trkpt>
      <trkpt lat="41.1529" lon="20.364">
        <ele>332.934536</ele>
        <time>2022-05-01T10:35:58.554Z</time>
      </trkpt>
      <trkpt lat="41.15299" lon="20.36388">
        <ele>332.613098</ele>
        <time>2022-05-01T10:36:00.559Z</time>
      </trkpt>
      <trkpt lat="41.15308" lon="20.36378">
        <ele>332.290538</ele>
        <time>2022-05-01T10:36:02.536Z</time>
      </trkpt>
      <trkpt lat="41.15318" lon="20.36366">
        <ele>331.952609</ele>
        <time>2022-05-01T10:36:04.545Z</time>
      </trkpt>
      <trkpt lat="41.15328" lon="20.36356">
        <ele>331.624855</ele>
        <time>2022-05-01T10:36:06.534Z</time>
      </trkpt>
      <trkpt lat="41.15339" lon="20.36345">
        <ele>331.2766</ele>
        <time>2022-05-01T10:36:08.543Z</time>
      </trkpt>
      <trkpt lat="41.1535" lon="20.36333">
        <ele>330.907262</ele>
        <time>2022-05-01T10:36:10.544Z</time>
      </trkpt>
      <trkpt lat="41.15361" lon="20.36322">
        <ele>330.549343</ele>
        <time>2022-05-01T10:36:12.613Z</time>
      </trkpt>
      <trkpt lat="41.15372" lon="20.36311">
        <ele>330.195419</ele>
        <time>2022-05-01T10:36:14.554Z</time>
      </trkpt>
      <trkpt lat="41.15383" lon="20.363">
        <ele>329.827883</ele>
        <time>2022-05-01T10:36:16.580Z</time>
      </trkpt>
      <trkpt lat="41.15395" lon="20.36289">
        <ele>329.462301</ele>
        <time>2022-05-01T10:36:18.568Z</time>
      </trkpt>
      <trkpt lat="41.15406" lon="20.36277">
        <ele>329.089745</ele>
        <time>2022-05-01T10:36:20.557Z</time>
      </trkpt>
      <trkpt lat="41.15418" lon="20.36265">
        <ele>328.704662</ele>
        <time>2022-05-01T10:36:22.577Z</time>
      </trkpt>
      <trkpt lat="41.15429" lon="20.36252">
        <ele>328.323503</ele>
        <time>2022-05-01T10:36:24.620Z</time>
      </trkpt>
      <trkpt lat="41.15439" lon="20.36239">
        <ele>327.935983</ele>
        <time>2022-05-01T10:36:26.586Z</time>
      </trkpt>
      <trkpt lat="41.15449" lon="20.36224">
        <ele>327.559378</ele>
        <time>2022-05-01T10:36:28.531Z</time>
      </trkpt>
      <trkpt lat="41.15458" lon="20.36208">
        <ele>327.166786</ele>
        <time>2022-05-01T10:36:30.551Z</time>
      </trkpt>
      <trkpt lat="41.15467" lon="20.3619">
        <ele>326.746766</ele>
        <time>2022-05-01T10:36:32.557Z</time>
      </trkpt>
      <trkpt lat="41.15475" lon="20.36171">
        <ele>326.30555</ele>
        <time>2022-05-01T10:36:34.563Z</time>
      </trkpt>
      <trkpt lat="41.1548" lon="20.3616">
        <ele>326.067617</ele>
        <time>2022-05-01T10:36:35.593Z</time>
      </trkpt>
      <trkpt lat="41.15484" lon="20.36149">
        <ele>325.818073</ele>
        <time>2022-05-01T10:36:36.538Z</time>
      </trkpt>
      <trkpt lat="41.15488" lon="20.36138">
        <ele>325.582135</ele>
        <time>2022-05-01T10:36:37.566Z</time>
      </trkpt>
      <trkpt lat="41.15493" lon="20.36127">
        <ele>325.363945</ele>
        <time>2022-05-01T10:36:38.573Z</time>
      </trkpt>
      <trkpt lat="41.15497" lon="20.36116">
        <ele>325.143057</ele>
        <time>2022-05-01T10:36:39.546Z</time>
      </trkpt>
      <trkpt lat="41.155" lon="20.36105">
        <ele>324.925501</ele>
        <time>2022-05-01T10:36:40.547Z</time>
      </trkpt>
      <trkpt lat="41.15503" lon="20.36093">
        <ele>324.707807</ele>
        <time>2022-05-01T10:36:41.579Z</time>
      </trkpt>
      <trkpt lat="41.15506" lon="20.36082">
        <ele>324.492566</ele>
        <time>2022-05-01T10:36:42.549Z</time>
      </trkpt>
      <trkpt lat="41.1551" lon="20.3606">
        <ele>324.08401</ele>
        <time>2022-05-01T10:36:44.532Z</time>
      </trkpt>
      <trkpt lat="41.15513" lon="20.36039">
        <ele>323.699011</ele>
        <time>2022-05-01T10:36:46.546Z</time>
      </trkpt>
      <trkpt lat="41.15515" lon="20.36019">
        <ele>323.335387</ele>
        <time>2022-05-01T10:36:48.591Z</time>
      </trkpt>
      <trkpt lat="41.15517" lon="20.36">
        <ele>322.992105</ele>
        <time>2022-05-01T10:36:50.534Z</time>
      </trkpt>
      <trkpt lat="41.15519" lon="20.35982">
        <ele>322.65959</ele>
        <time>2022-05-01T10:36:52.513Z</time>
      </trkpt>
      <trkpt lat="41.15523" lon="20.35965">
        <ele>322.348841</ele>
        <time>2022-05-01T10:36:54.541Z</time>
      </trkpt>
      <trkpt lat="41.15528" lon="20.3595">
        <ele>322.060521</ele>
        <time>2022-05-01T10:36:56.548Z</time>
      </trkpt>
      <trkpt lat="41.15533" lon="20.35936">
        <ele>321.774377</ele>
        <time>2022-05-01T10:36:58.577Z</time>
      </trkpt>
      <trkpt lat="41.1554" lon="20.35924">
        <ele>321.507658</ele>
        <time>2022-05-01T10:37:00.546Z</time>
      </trkpt>
      <trkpt lat="41.15547" lon="20.35914">
        <ele>321.410986</ele>
        <time>2022-05-01T10:37:02.536Z</time>
      </trkpt>
      <trkpt lat="41.15555" lon="20.35905">
        <ele>321.418726</ele>
        <time>2022-05-01T10:37:04.546Z</time>
      </trkpt>
      <trkpt lat="41.15564" lon="20.35896">
        <ele>321.426537</ele>
        <time>2022-05-01T10:37:06.534Z</time>
      </trkpt>
      <trkpt lat="41.15573" lon="20.35889">
        <ele>321.434403</ele>
        <time>2022-05-01T10:37:08.540Z</time>
      </trkpt>
      <trkpt lat="41.15582" lon="20.35882">
        <ele>321.441792</ele>
        <time>2022-05-01T10:37:10.532Z</time>
      </trkpt>
      <trkpt lat="41.1559" lon="20.35875">
        <ele>321.448907</ele>
        <time>2022-05-01T10:37:12.550Z</time>
      </trkpt>
      <trkpt lat="41.15599" lon="20.35868">
        <ele>321.456528</ele>
        <time>2022-05-01T10:37:14.582Z</time>
      </trkpt>
      <trkpt lat="41.15608" lon="20.35862">
        <ele>321.464277</ele>
        <time>2022-05-01T10:37:16.580Z</time>
      </trkpt>
      <trkpt lat="41.15618" lon="20.35858">
        <ele>321.471634</ele>
        <time>2022-05-01T10:37:18.546Z</time>
      </trkpt>
      <trkpt lat="41.1563" lon="20.35853">
        <ele>321.481172</ele>
        <time>2022-05-01T10:37:21.563Z</time>
      </trkpt>
      <trkpt lat="41.15641" lon="20.35849">
        <ele>321.489581</ele>
        <time>2022-05-01T10:37:24.556Z</time>
      </trkpt>
      <trkpt lat="41.15651" lon="20.35845">
        <ele>321.497081</ele>
        <time>2022-05-01T10:37:27.563Z</time>
      </trkpt>
      <trkpt lat="41.15661" lon="20.35842">
        <ele>321.504168</ele>
        <time>2022-05-01T10:37:30.559Z</time>
      </trkpt>
      <trkpt lat="41.1567" lon="20.35839">
        <ele>321.511045</ele>
        <time>2022-05-01T10:37:33.548Z</time>
      </trkpt>
      <trkpt lat="41.1568" lon="20.35836">
        <ele>321.518615</ele>
        <time>2022-05-01T10:37:36.557Z</time>
      </trkpt>
      <trkpt lat="41.15689" lon="20.35833">
        <ele>321.525732</ele>
        <time>2022-05-01T10:37:39.554Z</time>
      </trkpt>
      <trkpt lat="41.15699" lon="20.35829">
        <ele>321.533643</ele>
        <time>2022-05-01T10:37:43.543Z</time>
      </trkpt>
      <trkpt lat="41.1571" lon="20.35825">
        <ele>321.839571</ele>
        <time>2022-05-01T10:37:47.546Z</time>
      </trkpt>
      <trkpt lat="41.15721" lon="20.35821">
        <ele>322.545512</ele>
        <time>2022-05-01T10:37:51.565Z</time>
      </trkpt>
      <trkpt lat="41.15732" lon="20.35818">
        <ele>323.237334</ele>
        <time>2022-05-01T10:37:55.587Z</time>
      </trkpt>
      <trkpt lat="41.15743" lon="20.35814">
        <ele>323.949274</ele>
        <time>2022-05-01T10:37:59.555Z</time>
      </trkpt>
      <trkpt lat="41.15752" lon="20.35811">
        <ele>324.52658</ele>
        <time>2022-05-01T10:38:02.549Z</time>
      </trkpt>
      <trkpt lat="41.15761" lon="20.35808">
        <ele>325.101494</ele>
        <time>2022-05-01T10:38:05.556Z</time>
      </trkpt>
      <trkpt lat="41.15771" lon="20.35805">
        <ele>325.752699</ele>
        <time>2022-05-01T10:38:10.557Z</time>
      </trkpt>
      <trkpt lat="41.1578" lon="20.35801">
        <ele>326.382049</ele>
        <time>2022-05-01T10:38:15.554Z</time>
      </trkpt>
      <trkpt lat="41.1579" lon="20.35798">
        <ele>326.989628</ele>
        <time>2022-05-01T10:38:20.549Z</time>
      </trkpt>
      <trkpt lat="41.158" lon="20.35795">
        <ele>327.661373</ele>
        <time>2022-05-01T10:38:26.550Z</time>
      </trkpt>
      <trkpt lat="41.1581" lon="20.35791">
        <ele>328.275019</ele>
        <time>2022-05-01T10:38:31.540Z</time>
      </trkpt>
      <trkpt lat="41.15819" lon="20.35789">
        <ele>328.848864</ele>
        <time>2022-05-01T10:38:36.549Z</time>
      </trkpt>
      <trkpt lat="41.15828" lon="20.35787">
        <ele>329.450046</ele>
        <time>2022-05-01T10:38:42.590Z</time>
      </trkpt>
      <trkpt lat="41.15838" lon="20.35785">
        <ele>330.079636</ele>
        <time>2022-05-01T10:38:49.552Z</time>
      </trkpt>
      <trkpt lat="41.15847" lon="20.35784">
        <ele>330.659992</ele>
        <time>2022-05-01T10:38:55.549Z</time>
      </trkpt>
      <trkpt lat="41.15858" lon="20.35783">
        <ele>331.344091</ele>
        <time>2022-05-01T10:39:02.579Z</time>
      </trkpt>
      <trkpt lat="41.15868" lon="20.35783">
        <ele>331.951448</ele>
        <time>2022-05-01T10:39:08.558Z</time>
      </trkpt>
      <trkpt lat="41.15878" lon="20.35782">
        <ele>332.565337</ele>
        <time>2022-05-01T10:39:16.529Z</time>
      </trkpt>
      <trkpt lat="41.15887" lon="20.35782">
        <ele>333.320171</ele>
        <time>2022-05-01T10:39:23.535Z</time>
      </trkpt>
      <trkpt lat="41.15896" lon="20.3578">
        <ele>334.131658</ele>
        <time>2022-05-01T10:39:31.560Z</time>
      </trkpt>
      <trkpt lat="41.15906" lon="20.35779">
        <ele>335.028259</ele>
        <time>2022-05-01T10:39:40.550Z</time>
      </trkpt>
      <trkpt lat="41.15915" lon="20.35779">
        <ele>335.868803</ele>
        <time>2022-05-01T10:39:47.578Z</time>
      </trkpt>
      <trkpt lat="41.15925" lon="20.35778">
        <ele>336.728139</ele>
        <time>2022-05-01T10:39:54.563Z</time>
      </trkpt>
      <trkpt lat="41.15934" lon="20.35778">
        <ele>337.579212</ele>
        <time>2022-05-01T10:40:00.547Z</time>
      </trkpt>
      <trkpt lat="41.15944" lon="20.35777">
        <ele>338.438549</ele>
        <time>2022-05-01T10:40:07.550Z</time>
      </trkpt>
      <trkpt lat="41.15954" lon="20.35776">
        <ele>339.343014</ele>
        <time>2022-05-01T10:40:13.558Z</time>
      </trkpt>
      <trkpt lat="41.15963" lon="20.35776">
        <ele>340.165942</ele>
        <time>2022-05-01T10:40:21.553Z</time>
      </trkpt>
      <trkpt lat="41.15973" lon="20.35776">
        <ele>341.05152</ele>
        <time>2022-05-01T10:40:29.550Z</time>
      </trkpt>
      <trkpt lat="41.15982" lon="20.35775">
        <ele>341.91056</ele>
        <time>2022-05-01T10:40:36.538Z</time>
      </trkpt>
      <trkpt lat="41.15991" lon="20.35775">
        <ele>342.741932</ele>
        <time>2022-05-01T10:40:43.555Z</time>
      </trkpt>
      <trkpt lat="41.16002" lon="20.35774">
        <ele>343.738643</ele>
        <time>2022-05-01T10:40:50.545Z</time>
      </trkpt>
      <trkpt lat="41.16012" lon="20.35773">
        <ele>344.636868</ele>
        <time>2022-05-01T10:40:57.553Z</time>
      </trkpt>
      <trkpt lat="41.16022" lon="20.35771">
        <ele>345.536058</ele>
        <time>2022-05-01T10:41:04.550Z</time>
      </trkpt>
      <trkpt lat="41.16031" lon="20.35768">
        <ele>346.377878</ele>
        <time>2022-05-01T10:41:11.543Z</time>
      </trkpt>
      <trkpt lat="41.16041" lon="20.35764">
        <ele>347.270495</ele>
        <time>2022-05-01T10:41:19.540Z</time>
      </trkpt>
      <trkpt lat="41.1605" lon="20.35757">
        <ele>348.199391</ele>
        <time>2022-05-01T10:41:26.538Z</time>
      </trkpt>
      <trkpt lat="41.16059" lon="20.35752">
        <ele>349.058417</ele>
        <time>2022-05-01T10:41:32.549Z</time>
      </trkpt>
      <trkpt lat="41.16067" lon="20.35746">
        <ele>349.172373</ele>
        <time>2022-05-01T10:41:38.559Z</time>
      </trkpt>
      <trkpt lat="41.16076" lon="20.35739">
        <ele>349.296622</ele>
        <time>2022-05-01T10:41:44.543Z</time>
      </trkpt>
      <trkpt lat="41.16083" lon="20.35733">
        <ele>349.406493</ele>
        <time>2022-05-01T10:41:48.551Z</time>
      </trkpt>
      <trkpt lat="41.16093" lon="20.35725">
        <ele>349.540632</ele>
        <time>2022-05-01T10:41:53.557Z</time>
      </trkpt>
      <trkpt lat="41.16101" lon="20.35718">
        <ele>349.66147</ele>
        <time>2022-05-01T10:41:57.556Z</time>
      </trkpt>
      <trkpt lat="41.1611" lon="20.3571">
        <ele>349.790939</ele>
        <time>2022-05-01T10:42:01.561Z</time>
      </trkpt>
      <trkpt lat="41.1612" lon="20.35703">
        <ele>349.926573</ele>
        <time>2022-05-01T10:42:05.553Z</time>
      </trkpt>
      <trkpt lat="41.16128" lon="20.35697">
        <ele>350.042647</ele>
        <time>2022-05-01T10:42:08.554Z</time>
      </trkpt>
      <trkpt lat="41.16137" lon="20.35689">
        <ele>350.176229</ele>
        <time>2022-05-01T10:42:11.548Z</time>
      </trkpt>
      <trkpt lat="41.16148" lon="20.35681">
        <ele>350.326116</ele>
        <time>2022-05-01T10:42:14.546Z</time>
      </trkpt>
      <trkpt lat="41.16159" lon="20.35673">
        <ele>350.47575</ele>
        <time>2022-05-01T10:42:17.566Z</time>
      </trkpt>
      <trkpt lat="41.16169" lon="20.35666">
        <ele>350.623018</ele>
        <time>2022-05-01T10:42:20.555Z</time>
      </trkpt>
      <trkpt lat="41.1618" lon="20.35658">
        <ele>350.770729</ele>
        <time>2022-05-01T10:42:23.555Z</time>
      </trkpt>
      <trkpt lat="41.16191" lon="20.3565">
        <ele>350.917559</ele>
        <time>2022-05-01T10:42:26.548Z</time>
      </trkpt>
      <trkpt lat="41.16202" lon="20.35642">
        <ele>351.077305</ele>
        <time>2022-05-01T10:42:29.575Z</time>
      </trkpt>
      <trkpt lat="41.16214" lon="20.35634">
        <ele>351.236405</ele>
        <time>2022-05-01T10:42:32.564Z</time>
      </trkpt>
      <trkpt lat="41.16225" lon="20.35626">
        <ele>351.171964</ele>
        <time>2022-05-01T10:42:35.541Z</time>
      </trkpt>
      <trkpt lat="41.16233" lon="20.3562">
        <ele>351.117833</ele>
        <time>2022-05-01T10:42:37.566Z</time>
      </trkpt>
      <trkpt lat="41.16242" lon="20.35614">
        <ele>351.062351</ele>
        <time>2022-05-01T10:42:39.562Z</time>
      </trkpt>
      <trkpt lat="41.1625" lon="20.35608">
        <ele>351.006978</ele>
        <time>2022-05-01T10:42:41.555Z</time>
      </trkpt>
      <trkpt lat="41.16259" lon="20.35603">
        <ele>350.950623</ele>
        <time>2022-05-01T10:42:43.559Z</time>
      </trkpt>
      <trkpt lat="41.16267" lon="20.35597">
        <ele>350.896078</ele>
        <time>2022-05-01T10:42:45.595Z</time>
      </trkpt>
      <trkpt lat="41.16275" lon="20.35591">
        <ele>350.840186</ele>
        <time>2022-05-01T10:42:47.565Z</time>
      </trkpt>
      <trkpt lat="41.16284" lon="20.35585">
        <ele>350.78233</ele>
        <time>2022-05-01T10:42:49.551Z</time>
      </trkpt>
      <trkpt lat="41.16292" lon="20.35579">
        <ele>350.72736</ele>
        <time>2022-05-01T10:42:51.551Z</time>
      </trkpt>
      <trkpt lat="41.163" lon="20.35573">
        <ele>350.673115</ele>
        <time>2022-05-01T10:42:53.554Z</time>
      </trkpt>
      <trkpt lat="41.16312" lon="20.35563">
        <ele>350.592679</ele>
        <time>2022-05-01T10:42:56.586Z</time>
      </trkpt>
      <trkpt lat="41.1632" lon="20.35556">
        <ele>350.535407</ele>
        <time>2022-05-01T10:42:58.550Z</time>
      </trkpt>
      <trkpt lat="41.16328" lon="20.35548">
        <ele>350.475108</ele>
        <time>2022-05-01T10:43:00.546Z</time>
      </trkpt>
      <trkpt lat="41.16337" lon="20.35538">
        <ele>350.409119</ele>
        <time>2022-05-01T10:43:02.549Z</time>
      </trkpt>
      <trkpt lat="41.16346" lon="20.35526">
        <ele>350.336497</ele>
        <time>2022-05-01T10:43:04.558Z</time>
      </trkpt>
      <trkpt lat="41.16354" lon="20.35512">
        <ele>350.259797</ele>
        <time>2022-05-01T10:43:06.552Z</time>
      </trkpt>
      <trkpt lat="41.1636" lon="20.35497">
        <ele>350.12299</ele>
        <time>2022-05-01T10:43:08.548Z</time>
      </trkpt>
      <trkpt lat="41.16365" lon="20.3548">
        <ele>349.513558</ele>
        <time>2022-05-01T10:43:10.555Z</time>
      </trkpt>
      <trkpt lat="41.16369" lon="20.35462">
        <ele>348.890306</ele>
        <time>2022-05-01T10:43:12.559Z</time>
      </trkpt>
      <trkpt lat="41.16372" lon="20.35442">
        <ele>348.215339</ele>
        <time>2022-05-01T10:43:14.554Z</time>
      </trkpt>
      <trkpt lat="41.16375" lon="20.35421">
        <ele>347.512136</ele>
        <time>2022-05-01T10:43:16.569Z</time>
      </trkpt>
      <trkpt lat="41.16379" lon="20.35398">
        <ele>346.727334</ele>
        <time>2022-05-01T10:43:18.589Z</time>
      </trkpt>
      <trkpt lat="41.16382" lon="20.35386">
        <ele>346.314</ele>
        <time>2022-05-01T10:43:19.550Z</time>
      </trkpt>
      <trkpt lat="41.16386" lon="20.35374">
        <ele>345.880482</ele>
        <time>2022-05-01T10:43:20.535Z</time>
      </trkpt>
      <trkpt lat="41.16391" lon="20.35362">
        <ele>345.449723</ele>
        <time>2022-05-01T10:43:21.547Z</time>
      </trkpt>
      <trkpt lat="41.16395" lon="20.35351">
        <ele>345.045127</ele>
        <time>2022-05-01T10:43:22.546Z</time>
      </trkpt>
      <trkpt lat="41.16401" lon="20.35341">
        <ele>344.628757</ele>
        <time>2022-05-01T10:43:23.548Z</time>
      </trkpt>
      <trkpt lat="41.16411" lon="20.35323">
        <ele>343.88932</ele>
        <time>2022-05-01T10:43:25.558Z</time>
      </trkpt>
      <trkpt lat="41.1642" lon="20.35305">
        <ele>343.167797</ele>
        <time>2022-05-01T10:43:27.541Z</time>
      </trkpt>
      <trkpt lat="41.16426" lon="20.35286">
        <ele>342.491094</ele>
        <time>2022-05-01T10:43:29.576Z</time>
      </trkpt>
      <trkpt lat="41.16429" lon="20.35262">
        <ele>341.346338</ele>
        <time>2022-05-01T10:43:31.534Z</time>
      </trkpt>
      <trkpt lat="41.16427" lon="20.35244">
        <ele>340.438681</ele>
        <time>2022-05-01T10:43:33.559Z</time>
      </trkpt>
      <trkpt lat="41.16423" lon="20.35222">
        <ele>339.316027</ele>
        <time>2022-05-01T10:43:35.553Z</time>
      </trkpt>
      <trkpt lat="41.1642" lon="20.3521">
        <ele>338.708535</ele>
        <time>2022-05-01T10:43:36.550Z</time>
      </trkpt>
      <trkpt lat="41.16417" lon="20.35198">
        <ele>338.07377</ele>
        <time>2022-05-01T10:43:37.564Z</time>
      </trkpt>
      <trkpt lat="41.16414" lon="20.35185">
        <ele>337.391487</ele>
        <time>2022-05-01T10:43:38.587Z</time>
      </trkpt>
      <trkpt lat="41.16411" lon="20.35172">
        <ele>336.684264</ele>
        <time>2022-05-01T10:43:39.548Z</time>
      </trkpt>
      <trkpt lat="41.16409" lon="20.35157">
        <ele>335.935649</ele>
        <time>2022-05-01T10:43:40.585Z</time>
      </trkpt>
      <trkpt lat="41.16408" lon="20.35143">
        <ele>335.218662</ele>
        <time>2022-05-01T10:43:41.546Z</time>
      </trkpt>
      <trkpt lat="41.16409" lon="20.35128">
        <ele>334.482091</ele>
        <time>2022-05-01T10:43:42.535Z</time>
      </trkpt>
      <trkpt lat="41.1641" lon="20.35112">
        <ele>333.666228</ele>
        <time>2022-05-01T10:43:43.550Z</time>
      </trkpt>
      <trkpt lat="41.16412" lon="20.35095">
        <ele>332.807291</ele>
        <time>2022-05-01T10:43:44.556Z</time>
      </trkpt>
      <trkpt lat="41.16414" lon="20.35079">
        <ele>331.997869</ele>
        <time>2022-05-01T10:43:45.551Z</time>
      </trkpt>
      <trkpt lat="41.16416" lon="20.35062">
        <ele>331.178549</ele>
        <time>2022-05-01T10:43:46.551Z</time>
      </trkpt>
      <trkpt lat="41.16418" lon="20.35047">
        <ele>330.37306</ele>
        <time>2022-05-01T10:43:47.540Z</time>
      </trkpt>
      <trkpt lat="41.16419" lon="20.35031">
        <ele>329.39628</ele>
        <time>2022-05-01T10:43:48.552Z</time>
      </trkpt>
      <trkpt lat="41.16421" lon="20.35015">
        <ele>328.418606</ele>
        <time>2022-05-01T10:43:49.553Z</time>
      </trkpt>
      <trkpt lat="41.16423" lon="20.35">
        <ele>327.504999</ele>
        <time>2022-05-01T10:43:50.546Z</time>
      </trkpt>
      <trkpt lat="41.16424" lon="20.34987">
        <ele>326.670038</ele>
        <time>2022-05-01T10:43:51.531Z</time>
      </trkpt>
      <trkpt lat="41.16424" lon="20.34973">
        <ele>325.856714</ele>
        <time>2022-05-01T10:43:52.554Z</time>
      </trkpt>
      <trkpt lat="41.16424" lon="20.34961">
        <ele>325.123294</ele>
        <time>2022-05-01T10:43:53.566Z</time>
      </trkpt>
      <trkpt lat="41.16422" lon="20.34938">
        <ele>323.667047</ele>
        <time>2022-05-01T10:43:55.567Z</time>
      </trkpt>
      <trkpt lat="41.1642" lon="20.34925">
        <ele>322.902347</ele>
        <time>2022-05-01T10:43:56.543Z</time>
      </trkpt>
      <trkpt lat="41.16417" lon="20.34913">
        <ele>322.137647</ele>
        <time>2022-05-01T10:43:57.557Z</time>
      </trkpt>
      <trkpt lat="41.16416" lon="20.34901">
        <ele>321.393853</ele>
        <time>2022-05-01T10:43:58.550Z</time>
      </trkpt>
      <trkpt lat="41.16419" lon="20.34882">
        <ele>320.174853</ele>
        <time>2022-05-01T10:44:00.557Z</time>
      </trkpt>
      <trkpt lat="41.16423" lon="20.3487">
        <ele>319.413875</ele>
        <time>2022-05-01T10:44:01.536Z</time>
      </trkpt>
      <trkpt lat="41.16429" lon="20.3486">
        <ele>318.630533</ele>
        <time>2022-05-01T10:44:02.594Z</time>
      </trkpt>
      <trkpt lat="41.16434" lon="20.34849">
        <ele>317.81022</ele>
        <time>2022-05-01T10:44:03.560Z</time>
      </trkpt>
      <trkpt lat="41.16441" lon="20.34837">
        <ele>316.916693</ele>
        <time>2022-05-01T10:44:04.551Z</time>
      </trkpt>
      <trkpt lat="41.16449" lon="20.34827">
        <ele>316.042293</ele>
        <time>2022-05-01T10:44:05.546Z</time>
      </trkpt>
      <trkpt lat="41.16456" lon="20.34817">
        <ele>315.363764</ele>
        <time>2022-05-01T10:44:06.558Z</time>
      </trkpt>
      <trkpt lat="41.16464" lon="20.34808">
        <ele>314.781247</ele>
        <time>2022-05-01T10:44:07.545Z</time>
      </trkpt>
      <trkpt lat="41.16473" lon="20.348">
        <ele>314.192342</ele>
        <time>2022-05-01T10:44:08.543Z</time>
      </trkpt>
      <trkpt lat="41.16482" lon="20.34792">
        <ele>313.587707</ele>
        <time>2022-05-01T10:44:09.543Z</time>
      </trkpt>
      <trkpt lat="41.16491" lon="20.34783">
        <ele>312.962126</ele>
        <time>2022-05-01T10:44:10.567Z</time>
      </trkpt>
      <trkpt lat="41.165" lon="20.34774">
        <ele>312.317738</ele>
        <time>2022-05-01T10:44:11.543Z</time>
      </trkpt>
      <trkpt lat="41.1651" lon="20.34765">
        <ele>311.666366</ele>
        <time>2022-05-01T10:44:12.550Z</time>
      </trkpt>
      <trkpt lat="41.16519" lon="20.34757">
        <ele>311.024409</ele>
        <time>2022-05-01T10:44:13.534Z</time>
      </trkpt>
      <trkpt lat="41.16529" lon="20.34748">
        <ele>310.384864</ele>
        <time>2022-05-01T10:44:14.558Z</time>
      </trkpt>
      <trkpt lat="41.16538" lon="20.3474">
        <ele>309.750122</ele>
        <time>2022-05-01T10:44:15.557Z</time>
      </trkpt>
      <trkpt lat="41.16547" lon="20.34731">
        <ele>309.136282</ele>
        <time>2022-05-01T10:44:16.556Z</time>
      </trkpt>
      <trkpt lat="41.16556" lon="20.34723">
        <ele>308.527054</ele>
        <time>2022-05-01T10:44:17.554Z</time>
      </trkpt>
      <trkpt lat="41.16566" lon="20.34715">
        <ele>307.906236</ele>
        <time>2022-05-01T10:44:18.552Z</time>
      </trkpt>
      <trkpt lat="41.16574" lon="20.34706">
        <ele>307.296775</ele>
        <time>2022-05-01T10:44:19.591Z</time>
      </trkpt>
      <trkpt lat="41.16583" lon="20.34698">
        <ele>306.707873</ele>
        <time>2022-05-01T10:44:20.551Z</time>
      </trkpt>
      <trkpt lat="41.16592" lon="20.34689">
        <ele>306.084038</ele>
        <time>2022-05-01T10:44:21.539Z</time>
      </trkpt>
      <trkpt lat="41.16601" lon="20.3468">
        <ele>305.469062</ele>
        <time>2022-05-01T10:44:22.558Z</time>
      </trkpt>
      <trkpt lat="41.1661" lon="20.3467">
        <ele>304.855319</ele>
        <time>2022-05-01T10:44:23.570Z</time>
      </trkpt>
      <trkpt lat="41.16618" lon="20.3466">
        <ele>304.249697</ele>
        <time>2022-05-01T10:44:24.559Z</time>
      </trkpt>
      <trkpt lat="41.16626" lon="20.3465">
        <ele>303.654094</ele>
        <time>2022-05-01T10:44:25.548Z</time>
      </trkpt>
      <trkpt lat="41.16634" lon="20.34639">
        <ele>303.070667</ele>
        <time>2022-05-01T10:44:26.582Z</time>
      </trkpt>
      <trkpt lat="41.16641" lon="20.34629">
        <ele>302.525399</ele>
        <time>2022-05-01T10:44:27.546Z</time>
      </trkpt>
      <trkpt lat="41.16647" lon="20.34619">
        <ele>301.997187</ele>
        <time>2022-05-01T10:44:28.556Z</time>
      </trkpt>
      <trkpt lat="41.16653" lon="20.34608">
        <ele>301.488266</ele>
        <time>2022-05-01T10:44:29.549Z</time>
      </trkpt>
      <trkpt lat="41.16658" lon="20.34598">
        <ele>300.978849</ele>
        <time>2022-05-01T10:44:30.583Z</time>
      </trkpt>
      <trkpt lat="41.16663" lon="20.34587">
        <ele>300.491055</ele>
        <time>2022-05-01T10:44:31.539Z</time>
      </trkpt>
      <trkpt lat="41.16668" lon="20.34577">
        <ele>300.005788</ele>
        <time>2022-05-01T10:44:32.554Z</time>
      </trkpt>
      <trkpt lat="41.16675" lon="20.34556">
        <ele>299.090379</ele>
        <time>2022-05-01T10:44:34.545Z</time>
      </trkpt>
      <trkpt lat="41.16682" lon="20.34536">
        <ele>298.21546</ele>
        <time>2022-05-01T10:44:36.554Z</time>
      </trkpt>
      <trkpt lat="41.16687" lon="20.34516">
        <ele>297.377278</ele>
        <time>2022-05-01T10:44:38.533Z</time>
      </trkpt>
      <trkpt lat="41.16692" lon="20.34497">
        <ele>296.562838</ele>
        <time>2022-05-01T10:44:40.554Z</time>
      </trkpt>
      <trkpt lat="41.16696" lon="20.34478">
        <ele>296.321487</ele>
        <time>2022-05-01T10:44:42.547Z</time>
      </trkpt>
      <trkpt lat="41.16698" lon="20.34462">
        <ele>296.487109</ele>
        <time>2022-05-01T10:44:44.559Z</time>
      </trkpt>
      <trkpt lat="41.167" lon="20.34447">
        <ele>296.641046</ele>
        <time>2022-05-01T10:44:46.544Z</time>
      </trkpt>
      <trkpt lat="41.16702" lon="20.34432">
        <ele>296.783779</ele>
        <time>2022-05-01T10:44:48.548Z</time>
      </trkpt>
      <trkpt lat="41.16702" lon="20.34418">
        <ele>296.923564</ele>
        <time>2022-05-01T10:44:50.566Z</time>
      </trkpt>
      <trkpt lat="41.16703" lon="20.34403">
        <ele>297.073116</ele>
        <time>2022-05-01T10:44:52.578Z</time>
      </trkpt>
      <trkpt lat="41.16702" lon="20.34389">
        <ele>297.217681</ele>
        <time>2022-05-01T10:44:54.544Z</time>
      </trkpt>
      <trkpt lat="41.16702" lon="20.34373">
        <ele>297.37328</ele>
        <time>2022-05-01T10:44:56.551Z</time>
      </trkpt>
      <trkpt lat="41.167" lon="20.34358">
        <ele>297.524036</ele>
        <time>2022-05-01T10:44:58.594Z</time>
      </trkpt>
      <trkpt lat="41.16697" lon="20.34342">
        <ele>297.684691</ele>
        <time>2022-05-01T10:45:00.564Z</time>
      </trkpt>
      <trkpt lat="41.16693" lon="20.34327">
        <ele>297.844956</ele>
        <time>2022-05-01T10:45:02.531Z</time>
      </trkpt>
      <trkpt lat="41.16687" lon="20.34312">
        <ele>298.010108</ele>
        <time>2022-05-01T10:45:04.571Z</time>
      </trkpt>
      <trkpt lat="41.16681" lon="20.34298">
        <ele>298.171936</ele>
        <time>2022-05-01T10:45:06.553Z</time>
      </trkpt>
      <trkpt lat="41.16673" lon="20.34285">
        <ele>298.33332</ele>
        <time>2022-05-01T10:45:08.562Z</time>
      </trkpt>
      <trkpt lat="41.16665" lon="20.34272">
        <ele>298.505254</ele>
        <time>2022-05-01T10:45:10.547Z</time>
      </trkpt>
      <trkpt lat="41.16656" lon="20.34259">
        <ele>298.65401</ele>
        <time>2022-05-01T10:45:12.547Z</time>
      </trkpt>
      <trkpt lat="41.16646" lon="20.34247">
        <ele>298.792117</ele>
        <time>2022-05-01T10:45:14.550Z</time>
      </trkpt>
      <trkpt lat="41.16635" lon="20.34234">
        <ele>298.934891</ele>
        <time>2022-05-01T10:45:16.551Z</time>
      </trkpt>
      <trkpt lat="41.16624" lon="20.34221">
        <ele>299.08532</ele>
        <time>2022-05-01T10:45:18.553Z</time>
      </trkpt>
      <trkpt lat="41.16614" lon="20.34207">
        <ele>299.230705</ele>
        <time>2022-05-01T10:45:20.595Z</time>
      </trkpt>
      <trkpt lat="41.16602" lon="20.34193">
        <ele>299.387154</ele>
        <time>2022-05-01T10:45:22.546Z</time>
      </trkpt>
      <trkpt lat="41.16592" lon="20.34177">
        <ele>299.548602</ele>
        <time>2022-05-01T10:45:24.552Z</time>
      </trkpt>
      <trkpt lat="41.16583" lon="20.34157">
        <ele>299.719188</ele>
        <time>2022-05-01T10:45:26.548Z</time>
      </trkpt>
      <trkpt lat="41.16578" lon="20.34136">
        <ele>299.885364</ele>
        <time>2022-05-01T10:45:28.559Z</time>
      </trkpt>
      <trkpt lat="41.16577" lon="20.34115">
        <ele>300.045813</ele>
        <time>2022-05-01T10:45:30.554Z</time>
      </trkpt>
      <trkpt lat="41.1658" lon="20.34095">
        <ele>300.202264</ele>
        <time>2022-05-01T10:45:32.553Z</time>
      </trkpt>
      <trkpt lat="41.16586" lon="20.34075">
        <ele>300.360695</ele>
        <time>2022-05-01T10:45:34.567Z</time>
      </trkpt>
      <trkpt lat="41.16595" lon="20.34059">
        <ele>300.544041</ele>
        <time>2022-05-01T10:45:36.560Z</time>
      </trkpt>
      <trkpt lat="41.16603" lon="20.34047">
        <ele>300.708494</ele>
        <time>2022-05-01T10:45:38.550Z</time>
      </trkpt>
      <trkpt lat="41.1661" lon="20.34036">
        <ele>300.843095</ele>
        <time>2022-05-01T10:45:40.546Z</time>
      </trkpt>
      <trkpt lat="41.16617" lon="20.34028">
        <ele>300.962979</ele>
        <time>2022-05-01T10:45:42.554Z</time>
      </trkpt>
      <trkpt lat="41.16624" lon="20.34018">
        <ele>301.099901</ele>
        <time>2022-05-01T10:45:45.535Z</time>
      </trkpt>
      <trkpt lat="41.16632" lon="20.3401">
        <ele>301.22051</ele>
        <time>2022-05-01T10:45:50.552Z</time>
      </trkpt>
      <trkpt lat="41.1664" lon="20.34001">
        <ele>301.357736</ele>
        <time>2022-05-01T10:45:55.544Z</time>
      </trkpt>
      <trkpt lat="41.16647" lon="20.33992">
        <ele>301.482857</ele>
        <time>2022-05-01T10:46:00.544Z</time>
      </trkpt>
      <trkpt lat="41.16653" lon="20.33983">
        <ele>301.605044</ele>
        <time>2022-05-01T10:46:05.547Z</time>
      </trkpt>
      <trkpt lat="41.1666" lon="20.33973">
        <ele>301.734711</ele>
        <time>2022-05-01T10:46:09.555Z</time>
      </trkpt>
      <trkpt lat="41.16667" lon="20.33962">
        <ele>301.875521</ele>
        <time>2022-05-01T10:46:14.550Z</time>
      </trkpt>
      <trkpt lat="41.16674" lon="20.33953">
        <ele>302.004308</ele>
        <time>2022-05-01T10:46:18.558Z</time>
      </trkpt>
      <trkpt lat="41.1668" lon="20.33941">
        <ele>302.142841</ele>
        <time>2022-05-01T10:46:22.551Z</time>
      </trkpt>
      <trkpt lat="41.16686" lon="20.33932">
        <ele>302.265879</ele>
        <time>2022-05-01T10:46:25.556Z</time>
      </trkpt>
      <trkpt lat="41.16691" lon="20.3392">
        <ele>302.390149</ele>
        <time>2022-05-01T10:46:28.563Z</time>
      </trkpt>
      <trkpt lat="41.16695" lon="20.33907">
        <ele>302.530567</ele>
        <time>2022-05-01T10:46:31.564Z</time>
      </trkpt>
      <trkpt lat="41.16698" lon="20.33889">
        <ele>302.705276</ele>
        <time>2022-05-01T10:46:34.584Z</time>
      </trkpt>
      <trkpt lat="41.167" lon="20.33874">
        <ele>302.544971</ele>
        <time>2022-05-01T10:46:36.548Z</time>
      </trkpt>
      <trkpt lat="41.16702" lon="20.33859">
        <ele>302.366103</ele>
        <time>2022-05-01T10:46:38.550Z</time>
      </trkpt>
      <trkpt lat="41.16704" lon="20.33842">
        <ele>302.177491</ele>
        <time>2022-05-01T10:46:40.538Z</time>
      </trkpt>
      <trkpt lat="41.16706" lon="20.33824">
        <ele>301.977232</ele>
        <time>2022-05-01T10:46:42.553Z</time>
      </trkpt>
      <trkpt lat="41.16709" lon="20.33806">
        <ele>301.77488</ele>
        <time>2022-05-01T10:46:44.560Z</time>
      </trkpt>
      <trkpt lat="41.16711" lon="20.33789">
        <ele>301.580109</ele>
        <time>2022-05-01T10:46:46.582Z</time>
      </trkpt>
      <trkpt lat="41.16713" lon="20.33772">
        <ele>301.393322</ele>
        <time>2022-05-01T10:46:48.554Z</time>
      </trkpt>
      <trkpt lat="41.16715" lon="20.33757">
        <ele>301.216338</ele>
        <time>2022-05-01T10:46:50.573Z</time>
      </trkpt>
      <trkpt lat="41.16718" lon="20.33742">
        <ele>301.044916</ele>
        <time>2022-05-01T10:46:52.579Z</time>
      </trkpt>
      <trkpt lat="41.16721" lon="20.33728">
        <ele>300.881858</ele>
        <time>2022-05-01T10:46:54.584Z</time>
      </trkpt>
      <trkpt lat="41.16724" lon="20.33713">
        <ele>300.71725</ele>
        <time>2022-05-01T10:46:56.570Z</time>
      </trkpt>
      <trkpt lat="41.16728" lon="20.337">
        <ele>300.558429</ele>
        <time>2022-05-01T10:46:58.549Z</time>
      </trkpt>
      <trkpt lat="41.16731" lon="20.33685">
        <ele>300.391297</ele>
        <time>2022-05-01T10:47:00.535Z</time>
      </trkpt>
      <trkpt lat="41.16735" lon="20.33672">
        <ele>300.229017</ele>
        <time>2022-05-01T10:47:02.556Z</time>
      </trkpt>
      <trkpt lat="41.16739" lon="20.33659">
        <ele>300.078692</ele>
        <time>2022-05-01T10:47:04.550Z</time>
      </trkpt>
      <trkpt lat="41.16742" lon="20.33647">
        <ele>299.792525</ele>
        <time>2022-05-01T10:47:06.553Z</time>
      </trkpt>
      <trkpt lat="41.16746" lon="20.33635">
        <ele>299.49451</ele>
        <time>2022-05-01T10:47:08.531Z</time>
      </trkpt>
      <trkpt lat="41.16751" lon="20.33621">
        <ele>299.158679</ele>
        <time>2022-05-01T10:47:10.556Z</time>
      </trkpt>
      <trkpt lat="41.16755" lon="20.33607">
        <ele>298.797706</ele>
        <time>2022-05-01T10:47:12.590Z</time>
      </trkpt>
      <trkpt lat="41.1676" lon="20.33592">
        <ele>298.420349</ele>
        <time>2022-05-01T10:47:14.547Z</time>
      </trkpt>
      <trkpt lat="41.16766" lon="20.33576">
        <ele>298.019024</ele>
        <time>2022-05-01T10:47:16.546Z</time>
      </trkpt>
      <trkpt lat="41.16772" lon="20.33561">
        <ele>297.615148</ele>
        <time>2022-05-01T10:47:18.550Z</time>
      </trkpt>
      <trkpt lat="41.16778" lon="20.33544">
        <ele>297.191928</ele>
        <time>2022-05-01T10:47:20.555Z</time>
      </trkpt>
      <trkpt lat="41.16785" lon="20.33527">
        <ele>296.749756</ele>
        <time>2022-05-01T10:47:22.552Z</time>
      </trkpt>
      <trkpt lat="41.16794" lon="20.3351">
        <ele>296.2701</ele>
        <time>2022-05-01T10:47:24.551Z</time>
      </trkpt>
      <trkpt lat="41.16804" lon="20.33491">
        <ele>295.734105</ele>
        <time>2022-05-01T10:47:26.552Z</time>
      </trkpt>
      <trkpt lat="41.16811" lon="20.33482">
        <ele>295.440188</ele>
        <time>2022-05-01T10:47:27.555Z</time>
      </trkpt>
      <trkpt lat="41.16817" lon="20.33473">
        <ele>295.148372</ele>
        <time>2022-05-01T10:47:28.546Z</time>
      </trkpt>
      <trkpt lat="41.16825" lon="20.33463">
        <ele>294.833204</ele>
        <time>2022-05-01T10:47:29.578Z</time>
      </trkpt>
      <trkpt lat="41.16833" lon="20.33454">
        <ele>294.529429</ele>
        <time>2022-05-01T10:47:30.536Z</time>
      </trkpt>
      <trkpt lat="41.16842" lon="20.33446">
        <ele>294.398619</ele>
        <time>2022-05-01T10:47:31.547Z</time>
      </trkpt>
      <trkpt lat="41.1685" lon="20.33439">
        <ele>294.280219</ele>
        <time>2022-05-01T10:47:32.538Z</time>
      </trkpt>
      <trkpt lat="41.16859" lon="20.33432">
        <ele>294.155515</ele>
        <time>2022-05-01T10:47:33.565Z</time>
      </trkpt>
      <trkpt lat="41.16869" lon="20.33426">
        <ele>294.031433</ele>
        <time>2022-05-01T10:47:34.548Z</time>
      </trkpt>
      <trkpt lat="41.16878" lon="20.3342">
        <ele>293.90645</ele>
        <time>2022-05-01T10:47:35.547Z</time>
      </trkpt>
      <trkpt lat="41.16888" lon="20.33414">
        <ele>293.779293</ele>
        <time>2022-05-01T10:47:36.540Z</time>
      </trkpt>
      <trkpt lat="41.16898" lon="20.33408">
        <ele>293.647063</ele>
        <time>2022-05-01T10:47:37.554Z</time>
      </trkpt>
      <trkpt lat="41.16909" lon="20.33402">
        <ele>293.512296</ele>
        <time>2022-05-01T10:47:38.539Z</time>
      </trkpt>
      <trkpt lat="41.16918" lon="20.33397">
        <ele>293.387675</ele>
        <time>2022-05-01T10:47:39.548Z</time>
      </trkpt>
      <trkpt lat="41.16928" lon="20.33391">
        <ele>293.266677</ele>
        <time>2022-05-01T10:47:40.558Z</time>
      </trkpt>
      <trkpt lat="41.16936" lon="20.33386">
        <ele>293.151084</ele>
        <time>2022-05-01T10:47:41.584Z</time>
      </trkpt>
      <trkpt lat="41.16945" lon="20.3338">
        <ele>293.035386</ele>
        <time>2022-05-01T10:47:42.579Z</time>
      </trkpt>
      <trkpt lat="41.16961" lon="20.3337">
        <ele>292.826978</ele>
        <time>2022-05-01T10:47:44.534Z</time>
      </trkpt>
      <trkpt lat="41.16975" lon="20.33359">
        <ele>292.634412</ele>
        <time>2022-05-01T10:47:46.534Z</time>
      </trkpt>
      <trkpt lat="41.16989" lon="20.33348">
        <ele>292.443585</ele>
        <time>2022-05-01T10:47:48.548Z</time>
      </trkpt>
      <trkpt lat="41.17002" lon="20.33338">
        <ele>292.649018</ele>
        <time>2022-05-01T10:47:50.556Z</time>
      </trkpt>
      <trkpt lat="41.17013" lon="20.33327">
        <ele>292.932603</ele>
        <time>2022-05-01T10:47:52.598Z</time>
      </trkpt>
      <trkpt lat="41.17024" lon="20.33316">
        <ele>293.209785</ele>
        <time>2022-05-01T10:47:54.562Z</time>
      </trkpt>
      <trkpt lat="41.17034" lon="20.33305">
        <ele>293.480003</ele>
        <time>2022-05-01T10:47:56.547Z</time>
      </trkpt>
      <trkpt lat="41.17044" lon="20.33292">
        <ele>293.759856</ele>
        <time>2022-05-01T10:47:58.543Z</time>
      </trkpt>
      <trkpt lat="41.17055" lon="20.33278">
        <ele>294.062838</ele>
        <time>2022-05-01T10:48:00.565Z</time>
      </trkpt>
      <trkpt lat="41.17065" lon="20.33264">
        <ele>294.361895</ele>
        <time>2022-05-01T10:48:02.566Z</time>
      </trkpt>
      <trkpt lat="41.17075" lon="20.33251">
        <ele>294.637647</ele>
        <time>2022-05-01T10:48:04.564Z</time>
      </trkpt>
      <trkpt lat="41.17083" lon="20.33238">
        <ele>294.892042</ele>
        <time>2022-05-01T10:48:06.567Z</time>
      </trkpt>
      <trkpt lat="41.1709" lon="20.33225">
        <ele>295.137429</ele>
        <time>2022-05-01T10:48:08.554Z</time>
      </trkpt>
      <trkpt lat="41.17096" lon="20.33213">
        <ele>295.354079</ele>
        <time>2022-05-01T10:48:10.549Z</time>
      </trkpt>
      <trkpt lat="41.17101" lon="20.33203">
        <ele>295.551207</ele>
        <time>2022-05-01T10:48:12.544Z</time>
      </trkpt>
      <trkpt lat="41.17108" lon="20.33188">
        <ele>295.812026</ele>
        <time>2022-05-01T10:48:15.549Z</time>
      </trkpt>
      <trkpt lat="41.17114" lon="20.33175">
        <ele>296.038579</ele>
        <time>2022-05-01T10:48:18.547Z</time>
      </trkpt>
      <trkpt lat="41.17119" lon="20.33161">
        <ele>295.818188</ele>
        <time>2022-05-01T10:48:21.538Z</time>
      </trkpt>
      <trkpt lat="41.17124" lon="20.33148">
        <ele>295.593374</ele>
        <time>2022-05-01T10:48:24.542Z</time>
      </trkpt>
      <trkpt lat="41.17129" lon="20.33134">
        <ele>295.365053</ele>
        <time>2022-05-01T10:48:27.538Z</time>
      </trkpt>
      <trkpt lat="41.17134" lon="20.33121">
        <ele>295.149929</ele>
        <time>2022-05-01T10:48:30.549Z</time>
      </trkpt>
      <trkpt lat="41.17139" lon="20.33107">
        <ele>294.925971</ele>
        <time>2022-05-01T10:48:33.534Z</time>
      </trkpt>
      <trkpt lat="41.17145" lon="20.33091">
        <ele>294.667271</ele>
        <time>2022-05-01T10:48:36.588Z</time>
      </trkpt>
      <trkpt lat="41.17149" lon="20.33081">
        <ele>294.489092</ele>
        <time>2022-05-01T10:48:38.548Z</time>
      </trkpt>
      <trkpt lat="41.17153" lon="20.3307">
        <ele>294.307854</ele>
        <time>2022-05-01T10:48:40.551Z</time>
      </trkpt>
      <trkpt lat="41.17158" lon="20.33059">
        <ele>294.123657</ele>
        <time>2022-05-01T10:48:42.561Z</time>
      </trkpt>
      <trkpt lat="41.17163" lon="20.33048">
        <ele>293.9362</ele>
        <time>2022-05-01T10:48:44.526Z</time>
      </trkpt>
      <trkpt lat="41.17168" lon="20.33037">
        <ele>293.751498</ele>
        <time>2022-05-01T10:48:46.567Z</time>
      </trkpt>
      <trkpt lat="41.17173" lon="20.33027">
        <ele>293.569709</ele>
        <time>2022-05-01T10:48:48.543Z</time>
      </trkpt>
      <trkpt lat="41.17179" lon="20.33017">
        <ele>293.382138</ele>
        <time>2022-05-01T10:48:50.552Z</time>
      </trkpt>
      <trkpt lat="41.17185" lon="20.33007">
        <ele>293.191684</ele>
        <time>2022-05-01T10:48:52.556Z</time>
      </trkpt>
      <trkpt lat="41.17192" lon="20.32998">
        <ele>293.000542</ele>
        <time>2022-05-01T10:48:54.551Z</time>
      </trkpt>
      <trkpt lat="41.17199" lon="20.32989">
        <ele>292.810866</ele>
        <time>2022-05-01T10:48:56.549Z</time>
      </trkpt>
      <trkpt lat="41.17206" lon="20.32981">
        <ele>292.619394</ele>
        <time>2022-05-01T10:48:58.614Z</time>
      </trkpt>
      <trkpt lat="41.17214" lon="20.32973">
        <ele>292.599275</ele>
        <time>2022-05-01T10:49:00.562Z</time>
      </trkpt>
      <trkpt lat="41.17222" lon="20.32966">
        <ele>292.797138</ele>
        <time>2022-05-01T10:49:02.553Z</time>
      </trkpt>
      <trkpt lat="41.17231" lon="20.32959">
        <ele>293.005284</ele>
        <time>2022-05-01T10:49:04.550Z</time>
      </trkpt>
      <trkpt lat="41.17241" lon="20.32952">
        <ele>293.214699</ele>
        <time>2022-05-01T10:49:06.551Z</time>
      </trkpt>
      <trkpt lat="41.1725" lon="20.32945">
        <ele>293.431797</ele>
        <time>2022-05-01T10:49:08.553Z</time>
      </trkpt>
      <trkpt lat="41.1726" lon="20.32939">
        <ele>293.650237</ele>
        <time>2022-05-01T10:49:10.548Z</time>
      </trkpt>
      <trkpt lat="41.1727" lon="20.32933">
        <ele>293.855964</ele>
        <time>2022-05-01T10:49:12.531Z</time>
      </trkpt>
      <trkpt lat="41.17278" lon="20.32928">
        <ele>294.039374</ele>
        <time>2022-05-01T10:49:14.556Z</time>
      </trkpt>
      <trkpt lat="41.17287" lon="20.32923">
        <ele>294.221021</ele>
        <time>2022-05-01T10:49:16.546Z</time>
      </trkpt>
      <trkpt lat="41.17299" lon="20.32916">
        <ele>294.483527</ele>
        <time>2022-05-01T10:49:19.556Z</time>
      </trkpt>
      <trkpt lat="41.17309" lon="20.3291">
        <ele>294.696642</ele>
        <time>2022-05-01T10:49:22.548Z</time>
      </trkpt>
      <trkpt lat="41.17319" lon="20.32904">
        <ele>294.915232</ele>
        <time>2022-05-01T10:49:26.550Z</time>
      </trkpt>
      <trkpt lat="41.17327" lon="20.32898">
        <ele>295.112118</ele>
        <time>2022-05-01T10:49:31.549Z</time>
      </trkpt>
      <trkpt lat="41.17336" lon="20.32891">
        <ele>295.308395</ele>
        <time>2022-05-01T10:49:36.546Z</time>
      </trkpt>
      <trkpt lat="41.17344" lon="20.32884">
        <ele>295.498835</ele>
        <time>2022-05-01T10:49:42.540Z</time>
      </trkpt>
      <trkpt lat="41.17351" lon="20.32876">
        <ele>295.676253</ele>
        <time>2022-05-01T10:49:47.579Z</time>
      </trkpt>
      <trkpt lat="41.17359" lon="20.32867">
        <ele>295.882719</ele>
        <time>2022-05-01T10:49:53.579Z</time>
      </trkpt>
      <trkpt lat="41.17366" lon="20.32856">
        <ele>296.149839</ele>
        <time>2022-05-01T10:50:00.552Z</time>
      </trkpt>
      <trkpt lat="41.17373" lon="20.32846">
        <ele>296.704169</ele>
        <time>2022-05-01T10:50:06.548Z</time>
      </trkpt>
      <trkpt lat="41.17378" lon="20.32836">
        <ele>297.191854</ele>
        <time>2022-05-01T10:50:12.545Z</time>
      </trkpt>
      <trkpt lat="41.17383" lon="20.32825">
        <ele>297.676697</ele>
        <time>2022-05-01T10:50:18.571Z</time>
      </trkpt>
      <trkpt lat="41.17388" lon="20.32813">
        <ele>298.205713</ele>
        <time>2022-05-01T10:50:23.553Z</time>
      </trkpt>
      <trkpt lat="41.17392" lon="20.32801">
        <ele>298.737313</ele>
        <time>2022-05-01T10:50:28.531Z</time>
      </trkpt>
      <trkpt lat="41.17396" lon="20.32788">
        <ele>299.288179</ele>
        <time>2022-05-01T10:50:34.538Z</time>
      </trkpt>
      <trkpt lat="41.17398" lon="20.32777">
        <ele>299.759689</ele>
        <time>2022-05-01T10:50:39.552Z</time>
      </trkpt>
      <trkpt lat="41.17401" lon="20.32764">
        <ele>300.28497</ele>
        <time>2022-05-01T10:50:45.531Z</time>
      </trkpt>
      <trkpt lat="41.17403" lon="20.32752">
        <ele>300.775868</ele>
        <time>2022-05-01T10:50:51.568Z</time>
      </trkpt>
      <trkpt lat="41.17405" lon="20.3274">
        <ele>301.272393</ele>
        <time>2022-05-01T10:50:56.535Z</time>
      </trkpt>
      <trkpt lat="41.17407" lon="20.32726">
        <ele>301.808123</ele>
        <time>2022-05-01T10:51:01.542Z</time>
      </trkpt>
      <trkpt lat="41.17409" lon="20.32713">
        <ele>302.342377</ele>
        <time>2022-05-01T10:51:06.570Z</time>
      </trkpt>
      <trkpt lat="41.17412" lon="20.32699">
        <ele>302.91686</ele>
        <time>2022-05-01T10:51:11.539Z</time>
      </trkpt>
      <trkpt lat="41.17414" lon="20.32685">
        <ele>303.484682</ele>
        <time>2022-05-01T10:51:16.557Z</time>
      </trkpt>
      <trkpt lat="41.17415" lon="20.32672">
        <ele>303.997219</ele>
        <time>2022-05-01T10:51:20.543Z</time>
      </trkpt>
      <trkpt lat="41.17416" lon="20.32657">
        <ele>304.599739</ele>
        <time>2022-05-01T10:51:24.556Z</time>
      </trkpt>
      <trkpt lat="41.17415" lon="20.32643">
        <ele>305.173282</ele>
        <time>2022-05-01T10:51:27.564Z</time>
      </trkpt>
      <trkpt lat="41.17412" lon="20.32625">
        <ele>305.246291</ele>
        <time>2022-05-01T10:51:30.564Z</time>
      </trkpt>
      <trkpt lat="41.1741" lon="20.3261">
        <ele>304.707191</ele>
        <time>2022-05-01T10:51:32.554Z</time>
      </trkpt>
      <trkpt lat="41.1741" lon="20.32592">
        <ele>304.049287</ele>
        <time>2022-05-01T10:51:34.588Z</time>
      </trkpt>
      <trkpt lat="41.17412" lon="20.3257">
        <ele>303.279376</ele>
        <time>2022-05-01T10:51:36.543Z</time>
      </trkpt>
      <trkpt lat="41.17418" lon="20.32549">
        <ele>302.457803</ele>
        <time>2022-05-01T10:51:38.553Z</time>
      </trkpt>
      <trkpt lat="41.17423" lon="20.32539">
        <ele>302.023147</ele>
        <time>2022-05-01T10:51:39.555Z</time>
      </trkpt>
      <trkpt lat="41.17436" lon="20.32522">
        <ele>301.181955</ele>
        <time>2022-05-01T10:51:41.555Z</time>
      </trkpt>
      <trkpt lat="41.17443" lon="20.32514">
        <ele>300.736496</ele>
        <time>2022-05-01T10:51:42.536Z</time>
      </trkpt>
      <trkpt lat="41.1745" lon="20.32506">
        <ele>300.302837</ele>
        <time>2022-05-01T10:51:43.551Z</time>
      </trkpt>
      <trkpt lat="41.17457" lon="20.32498">
        <ele>299.868091</ele>
        <time>2022-05-01T10:51:44.551Z</time>
      </trkpt>
      <trkpt lat="41.17464" lon="20.3249">
        <ele>299.43802</ele>
        <time>2022-05-01T10:51:45.610Z</time>
      </trkpt>
      <trkpt lat="41.17471" lon="20.32482">
        <ele>299.002051</ele>
        <time>2022-05-01T10:51:46.549Z</time>
      </trkpt>
      <trkpt lat="41.17478" lon="20.32474">
        <ele>298.556682</ele>
        <time>2022-05-01T10:51:47.557Z</time>
      </trkpt>
      <trkpt lat="41.17485" lon="20.32465">
        <ele>298.100703</ele>
        <time>2022-05-01T10:51:48.540Z</time>
      </trkpt>
      <trkpt lat="41.17493" lon="20.32457">
        <ele>297.613347</ele>
        <time>2022-05-01T10:51:49.550Z</time>
      </trkpt>
      <trkpt lat="41.17501" lon="20.32448">
        <ele>297.125991</ele>
        <time>2022-05-01T10:51:50.563Z</time>
      </trkpt>
      <trkpt lat="41.1751" lon="20.3244">
        <ele>296.576289</ele>
        <time>2022-05-01T10:51:51.543Z</time>
      </trkpt>
      <trkpt lat="41.17518" lon="20.32431">
        <ele>295.994655</ele>
        <time>2022-05-01T10:51:52.556Z</time>
      </trkpt>
      <trkpt lat="41.17527" lon="20.32422">
        <ele>295.418811</ele>
        <time>2022-05-01T10:51:53.532Z</time>
      </trkpt>
      <trkpt lat="41.17535" lon="20.32413">
        <ele>294.872069</ele>
        <time>2022-05-01T10:51:54.546Z</time>
      </trkpt>
      <trkpt lat="41.17542" lon="20.32405">
        <ele>294.350904</ele>
        <time>2022-05-01T10:51:55.554Z</time>
      </trkpt>
      <trkpt lat="41.1755" lon="20.32396">
        <ele>293.836378</ele>
        <time>2022-05-01T10:51:56.571Z</time>
      </trkpt>
      <trkpt lat="41.17557" lon="20.32388">
        <ele>293.323219</ele>
        <time>2022-05-01T10:51:57.556Z</time>
      </trkpt>
      <trkpt lat="41.17564" lon="20.32378">
        <ele>292.80759</ele>
        <time>2022-05-01T10:51:58.567Z</time>
      </trkpt>
      <trkpt lat="41.1757" lon="20.32369">
        <ele>292.308595</ele>
        <time>2022-05-01T10:51:59.557Z</time>
      </trkpt>
      <trkpt lat="41.17575" lon="20.32359">
        <ele>291.826138</ele>
        <time>2022-05-01T10:52:00.545Z</time>
      </trkpt>
      <trkpt lat="41.17586" lon="20.3234">
        <ele>290.870806</ele>
        <time>2022-05-01T10:52:02.549Z</time>
      </trkpt>
      <trkpt lat="41.17596" lon="20.32322">
        <ele>289.953755</ele>
        <time>2022-05-01T10:52:04.554Z</time>
      </trkpt>
      <trkpt lat="41.17606" lon="20.32304">
        <ele>289.062134</ele>
        <time>2022-05-01T10:52:06.555Z</time>
      </trkpt>
      <trkpt lat="41.17616" lon="20.32285">
        <ele>288.170345</ele>
        <time>2022-05-01T10:52:08.557Z</time>
      </trkpt>
      <trkpt lat="41.17625" lon="20.32267">
        <ele>287.283164</ele>
        <time>2022-05-01T10:52:10.549Z</time>
      </trkpt>
      <trkpt lat="41.17636" lon="20.32249">
        <ele>286.39404</ele>
        <time>2022-05-01T10:52:12.541Z</time>
      </trkpt>
      <trkpt lat="41.17645" lon="20.3223">
        <ele>285.509094</ele>
        <time>2022-05-01T10:52:14.567Z</time>
      </trkpt>
      <trkpt lat="41.17655" lon="20.32211">
        <ele>284.622337</ele>
        <time>2022-05-01T10:52:16.547Z</time>
      </trkpt>
      <trkpt lat="41.17664" lon="20.32193">
        <ele>283.732627</ele>
        <time>2022-05-01T10:52:18.543Z</time>
      </trkpt>
      <trkpt lat="41.17674" lon="20.32173">
        <ele>282.829729</ele>
        <time>2022-05-01T10:52:20.550Z</time>
      </trkpt>
      <trkpt lat="41.17682" lon="20.32153">
        <ele>281.932608</ele>
        <time>2022-05-01T10:52:22.602Z</time>
      </trkpt>
      <trkpt lat="41.17689" lon="20.32132">
        <ele>281.031558</ele>
        <time>2022-05-01T10:52:24.539Z</time>
      </trkpt>
      <trkpt lat="41.17695" lon="20.3211">
        <ele>280.13802</ele>
        <time>2022-05-01T10:52:26.581Z</time>
      </trkpt>
      <trkpt lat="41.177" lon="20.32089">
        <ele>279.289174</ele>
        <time>2022-05-01T10:52:28.539Z</time>
      </trkpt>
      <trkpt lat="41.17704" lon="20.32068">
        <ele>278.419523</ele>
        <time>2022-05-01T10:52:30.509Z</time>
      </trkpt>
      <trkpt lat="41.1771" lon="20.32047">
        <ele>277.918554</ele>
        <time>2022-05-01T10:52:32.543Z</time>
      </trkpt>
      <trkpt lat="41.17715" lon="20.32023">
        <ele>277.535425</ele>
        <time>2022-05-01T10:52:34.540Z</time>
      </trkpt>
      <trkpt lat="41.17718" lon="20.32011">
        <ele>277.347399</ele>
        <time>2022-05-01T10:52:35.553Z</time>
      </trkpt>
      <trkpt lat="41.1772" lon="20.32">
        <ele>277.163465</ele>
        <time>2022-05-01T10:52:36.575Z</time>
      </trkpt>
      <trkpt lat="41.17723" lon="20.31977">
        <ele>276.80371</ele>
        <time>2022-05-01T10:52:38.548Z</time>
      </trkpt>
      <trkpt lat="41.17725" lon="20.31954">
        <ele>276.451207</ele>
        <time>2022-05-01T10:52:40.543Z</time>
      </trkpt>
      <trkpt lat="41.17726" lon="20.31933">
        <ele>276.121215</ele>
        <time>2022-05-01T10:52:42.548Z</time>
      </trkpt>
      <trkpt lat="41.17726" lon="20.31913">
        <ele>275.812898</ele>
        <time>2022-05-01T10:52:44.555Z</time>
      </trkpt>
      <trkpt lat="41.17725" lon="20.31894">
        <ele>275.527695</ele>
        <time>2022-05-01T10:52:46.556Z</time>
      </trkpt>
      <trkpt lat="41.17725" lon="20.31877">
        <ele>275.259129</ele>
        <time>2022-05-01T10:52:48.551Z</time>
      </trkpt>
      <trkpt lat="41.17725" lon="20.31861">
        <ele>275.007868</ele>
        <time>2022-05-01T10:52:50.547Z</time>
      </trkpt>
      <trkpt lat="41.17726" lon="20.31846">
        <ele>274.785461</ele>
        <time>2022-05-01T10:52:52.567Z</time>
      </trkpt>
      <trkpt lat="41.17728" lon="20.31832">
        <ele>274.558254</ele>
        <time>2022-05-01T10:52:54.552Z</time>
      </trkpt>
      <trkpt lat="41.17731" lon="20.31817">
        <ele>274.489009</ele>
        <time>2022-05-01T10:52:56.569Z</time>
      </trkpt>
      <trkpt lat="41.17735" lon="20.31802">
        <ele>274.502337</ele>
        <time>2022-05-01T10:52:58.612Z</time>
      </trkpt>
      <trkpt lat="41.17739" lon="20.31788">
        <ele>274.515408</ele>
        <time>2022-05-01T10:53:00.557Z</time>
      </trkpt>
      <trkpt lat="41.17744" lon="20.31774">
        <ele>274.528603</ele>
        <time>2022-05-01T10:53:02.550Z</time>
      </trkpt>
      <trkpt lat="41.17749" lon="20.31758">
        <ele>274.543097</ele>
        <time>2022-05-01T10:53:04.553Z</time>
      </trkpt>
      <trkpt lat="41.17755" lon="20.3174">
        <ele>274.559329</ele>
        <time>2022-05-01T10:53:06.550Z</time>
      </trkpt>
      <trkpt lat="41.17761" lon="20.3172">
        <ele>274.577537</ele>
        <time>2022-05-01T10:53:08.546Z</time>
      </trkpt>
      <trkpt lat="41.17767" lon="20.317">
        <ele>274.596306</ele>
        <time>2022-05-01T10:53:10.574Z</time>
      </trkpt>
      <trkpt lat="41.17774" lon="20.3168">
        <ele>274.614754</ele>
        <time>2022-05-01T10:53:12.653Z</time>
      </trkpt>
      <trkpt lat="41.1778" lon="20.3166">
        <ele>274.63341</ele>
        <time>2022-05-01T10:53:14.534Z</time>
      </trkpt>
      <trkpt lat="41.17787" lon="20.31641">
        <ele>274.651054</ele>
        <time>2022-05-01T10:53:16.565Z</time>
      </trkpt>
      <trkpt lat="41.17793" lon="20.31623">
        <ele>274.667941</ele>
        <time>2022-05-01T10:53:18.549Z</time>
      </trkpt>
      <trkpt lat="41.17798" lon="20.31605">
        <ele>274.75748</ele>
        <time>2022-05-01T10:53:20.581Z</time>
      </trkpt>
      <trkpt lat="41.17803" lon="20.3159">
        <ele>275.893356</ele>
        <time>2022-05-01T10:53:22.556Z</time>
      </trkpt>
      <trkpt lat="41.17808" lon="20.31574">
        <ele>276.966431</ele>
        <time>2022-05-01T10:53:24.547Z</time>
      </trkpt>
      <trkpt lat="41.17813" lon="20.31559">
        <ele>278.057221</ele>
        <time>2022-05-01T10:53:26.540Z</time>
      </trkpt>
      <trkpt lat="41.17818" lon="20.31547">
        <ele>279.024742</ele>
        <time>2022-05-01T10:53:28.552Z</time>
      </trkpt>
      <trkpt lat="41.17823" lon="20.31535">
        <ele>279.906282</ele>
        <time>2022-05-01T10:53:30.551Z</time>
      </trkpt>
      <trkpt lat="41.17828" lon="20.31524">
        <ele>280.723701</ele>
        <time>2022-05-01T10:53:32.558Z</time>
      </trkpt>
      <trkpt lat="41.17833" lon="20.3151">
        <ele>281.813684</ele>
        <time>2022-05-01T10:53:35.571Z</time>
      </trkpt>
      <trkpt lat="41.17837" lon="20.31499">
        <ele>282.64101</ele>
        <time>2022-05-01T10:53:38.580Z</time>
      </trkpt>
      <trkpt lat="41.17841" lon="20.31487">
        <ele>283.47088</ele>
        <time>2022-05-01T10:53:43.543Z</time>
      </trkpt>
      <trkpt lat="41.17845" lon="20.31475">
        <ele>284.374511</ele>
        <time>2022-05-01T10:53:48.570Z</time>
      </trkpt>
      <trkpt lat="41.17853" lon="20.31465">
        <ele>285.324308</ele>
        <time>2022-05-01T10:55:20.583Z</time>
      </trkpt>
      <trkpt lat="41.17882" lon="20.31442">
        <ele>288.302244</ele>
        <time>2022-05-01T10:57:01.546Z</time>
      </trkpt>
      <trkpt lat="41.17891" lon="20.31437">
        <ele>289.170112</ele>
        <time>2022-05-01T10:57:06.547Z</time>
      </trkpt>
      <trkpt lat="41.17903" lon="20.31434">
        <ele>290.230511</ele>
        <time>2022-05-01T11:02:14.646Z</time>
      </trkpt>
      <trkpt lat="41.17899" lon="20.3141">
        <ele>291.337844</ele>
        <time>2022-05-01T11:04:48.548Z</time>
      </trkpt>
      <trkpt lat="41.17915" lon="20.31421">
        <ele>292.306851</ele>
        <time>2022-05-01T11:06:10.540Z</time>
      </trkpt>
      <trkpt lat="41.17901" lon="20.3142">
        <ele>293.091173</ele>
        <time>2022-05-01T11:06:19.546Z</time>
      </trkpt>
      <trkpt lat="41.17915" lon="20.31435">
        <ele>294.063197</ele>
        <time>2022-05-01T11:09:16.581Z</time>
      </trkpt>
      <trkpt lat="41.17925" lon="20.31432">
        <ele>294.603915</ele>
        <time>2022-05-01T11:09:19.556Z</time>
      </trkpt>
      <trkpt lat="41.17933" lon="20.31427">
        <ele>295.09228</ele>
        <time>2022-05-01T11:09:21.556Z</time>
      </trkpt>
      <trkpt lat="41.17942" lon="20.31427">
        <ele>295.574781</ele>
        <time>2022-05-01T11:09:23.539Z</time>
      </trkpt>
      <trkpt lat="41.17951" lon="20.31422">
        <ele>296.112338</ele>
        <time>2022-05-01T11:09:25.586Z</time>
      </trkpt>
      <trkpt lat="41.17963" lon="20.31413">
        <ele>296.82244</ele>
        <time>2022-05-01T11:09:28.563Z</time>
      </trkpt>
      <trkpt lat="41.17972" lon="20.31408">
        <ele>297.338485</ele>
        <time>2022-05-01T11:09:31.566Z</time>
      </trkpt>
      <trkpt lat="41.1798" lon="20.31402">
        <ele>297.8268</ele>
        <time>2022-05-01T11:09:34.546Z</time>
      </trkpt>
      <trkpt lat="41.17984" lon="20.31391">
        <ele>298.327822</ele>
        <time>2022-05-01T11:09:38.570Z</time>
      </trkpt>
      <trkpt lat="41.17988" lon="20.3138">
        <ele>298.817028</ele>
        <time>2022-05-01T11:09:41.547Z</time>
      </trkpt>
      <trkpt lat="41.17994" lon="20.31367">
        <ele>299.4432</ele>
        <time>2022-05-01T11:09:44.549Z</time>
      </trkpt>
      <trkpt lat="41.17998" lon="20.31353">
        <ele>300.055034</ele>
        <time>2022-05-01T11:09:47.545Z</time>
      </trkpt>
      <trkpt lat="41.18003" lon="20.31338">
        <ele>299.153193</ele>
        <time>2022-05-01T11:09:50.552Z</time>
      </trkpt>
      <trkpt lat="41.18009" lon="20.31325">
        <ele>297.923461</ele>
        <time>2022-05-01T11:09:53.542Z</time>
      </trkpt>
      <trkpt lat="41.18014" lon="20.31313">
        <ele>296.836528</ele>
        <time>2022-05-01T11:09:56.526Z</time>
      </trkpt>
      <trkpt lat="41.18019" lon="20.31301">
        <ele>295.775787</ele>
        <time>2022-05-01T11:09:59.559Z</time>
      </trkpt>
      <trkpt lat="41.18023" lon="20.31289">
        <ele>294.708804</ele>
        <time>2022-05-01T11:10:02.607Z</time>
      </trkpt>
      <trkpt lat="41.18027" lon="20.31274">
        <ele>293.518739</ele>
        <time>2022-05-01T11:10:06.571Z</time>
      </trkpt>
      <trkpt lat="41.1803" lon="20.31261">
        <ele>292.468504</ele>
        <time>2022-05-01T11:10:10.560Z</time>
      </trkpt>
      <trkpt lat="41.18034" lon="20.3125">
        <ele>291.508069</ele>
        <time>2022-05-01T11:10:13.547Z</time>
      </trkpt>
      <trkpt lat="41.18038" lon="20.31238">
        <ele>290.482774</ele>
        <time>2022-05-01T11:10:16.555Z</time>
      </trkpt>
      <trkpt lat="41.18042" lon="20.31226">
        <ele>289.447631</ele>
        <time>2022-05-01T11:10:19.556Z</time>
      </trkpt>
      <trkpt lat="41.18046" lon="20.31214">
        <ele>288.399271</ele>
        <time>2022-05-01T11:10:22.569Z</time>
      </trkpt>
      <trkpt lat="41.1805" lon="20.31201">
        <ele>287.359832</ele>
        <time>2022-05-01T11:10:25.537Z</time>
      </trkpt>
      <trkpt lat="41.18054" lon="20.31189">
        <ele>286.289005</ele>
        <time>2022-05-01T11:10:28.559Z</time>
      </trkpt>
      <trkpt lat="41.18058" lon="20.31176">
        <ele>285.211014</ele>
        <time>2022-05-01T11:10:31.570Z</time>
      </trkpt>
      <trkpt lat="41.18063" lon="20.31164">
        <ele>284.127473</ele>
        <time>2022-05-01T11:10:34.553Z</time>
      </trkpt>
      <trkpt lat="41.18067" lon="20.31151">
        <ele>283.031901</ele>
        <time>2022-05-01T11:10:37.555Z</time>
      </trkpt>
      <trkpt lat="41.18076" lon="20.31141">
        <ele>281.831729</ele>
        <time>2022-05-01T11:10:41.549Z</time>
      </trkpt>
      <trkpt lat="41.18085" lon="20.31139">
        <ele>282.072377</ele>
        <time>2022-05-01T11:10:45.538Z</time>
      </trkpt>
      <trkpt lat="41.18094" lon="20.31136">
        <ele>282.882566</ele>
        <time>2022-05-01T11:10:49.551Z</time>
      </trkpt>
      <trkpt lat="41.18103" lon="20.3113">
        <ele>283.68399</ele>
        <time>2022-05-01T11:10:52.579Z</time>
      </trkpt>
      <trkpt lat="41.18111" lon="20.31126">
        <ele>284.480254</ele>
        <time>2022-05-01T11:10:55.578Z</time>
      </trkpt>
      <trkpt lat="41.18122" lon="20.31124">
        <ele>285.390476</ele>
        <time>2022-05-01T11:11:00.551Z</time>
      </trkpt>
      <trkpt lat="41.18133" lon="20.31123">
        <ele>286.310627</ele>
        <time>2022-05-01T11:11:05.566Z</time>
      </trkpt>
      <trkpt lat="41.18142" lon="20.3112">
        <ele>287.108212</ele>
        <time>2022-05-01T11:11:09.602Z</time>
      </trkpt>
      <trkpt lat="41.18151" lon="20.31116">
        <ele>287.930856</ele>
        <time>2022-05-01T11:11:14.579Z</time>
      </trkpt>
      <trkpt lat="41.18162" lon="20.31114">
        <ele>288.859651</ele>
        <time>2022-05-01T11:11:20.582Z</time>
      </trkpt>
      <trkpt lat="41.18172" lon="20.31111">
        <ele>289.757873</ele>
        <time>2022-05-01T11:11:26.580Z</time>
      </trkpt>
      <trkpt lat="41.18182" lon="20.31109">
        <ele>290.625561</ele>
        <time>2022-05-01T11:11:32.572Z</time>
      </trkpt>
      <trkpt lat="41.18191" lon="20.31106">
        <ele>291.412</ele>
        <time>2022-05-01T11:11:37.549Z</time>
      </trkpt>
      <trkpt lat="41.18202" lon="20.31103">
        <ele>292.337932</ele>
        <time>2022-05-01T11:11:43.551Z</time>
      </trkpt>
      <trkpt lat="41.18212" lon="20.31099">
        <ele>293.247339</ele>
        <time>2022-05-01T11:11:49.604Z</time>
      </trkpt>
      <trkpt lat="41.18221" lon="20.31095">
        <ele>294.069982</ele>
        <time>2022-05-01T11:11:55.544Z</time>
      </trkpt>
      <trkpt lat="41.1823" lon="20.31091">
        <ele>294.851264</ele>
        <time>2022-05-01T11:12:00.591Z</time>
      </trkpt>
      <trkpt lat="41.18239" lon="20.31086">
        <ele>295.703171</ele>
        <time>2022-05-01T11:12:06.586Z</time>
      </trkpt>
      <trkpt lat="41.18249" lon="20.31081">
        <ele>296.613255</ele>
        <time>2022-05-01T11:12:12.572Z</time>
      </trkpt>
      <trkpt lat="41.18257" lon="20.31074">
        <ele>296.956347</ele>
        <time>2022-05-01T11:12:17.565Z</time>
      </trkpt>
      <trkpt lat="41.18265" lon="20.31067">
        <ele>297.07035</ele>
        <time>2022-05-01T11:12:21.559Z</time>
      </trkpt>
      <trkpt lat="41.18273" lon="20.31059">
        <ele>297.187432</ele>
        <time>2022-05-01T11:12:25.559Z</time>
      </trkpt>
      <trkpt lat="41.18282" lon="20.31052">
        <ele>297.309862</ele>
        <time>2022-05-01T11:12:29.548Z</time>
      </trkpt>
      <trkpt lat="41.1829" lon="20.31043">
        <ele>297.436473</ele>
        <time>2022-05-01T11:12:33.549Z</time>
      </trkpt>
      <trkpt lat="41.18298" lon="20.31034">
        <ele>297.558835</ele>
        <time>2022-05-01T11:12:37.551Z</time>
      </trkpt>
      <trkpt lat="41.18305" lon="20.31025">
        <ele>297.675451</ele>
        <time>2022-05-01T11:12:41.545Z</time>
      </trkpt>
      <trkpt lat="41.18311" lon="20.31014">
        <ele>297.801508</ele>
        <time>2022-05-01T11:12:45.546Z</time>
      </trkpt>
      <trkpt lat="41.18318" lon="20.31003">
        <ele>297.924609</ele>
        <time>2022-05-01T11:12:49.542Z</time>
      </trkpt>
      <trkpt lat="41.18323" lon="20.30992">
        <ele>298.040003</ele>
        <time>2022-05-01T11:12:53.567Z</time>
      </trkpt>
      <trkpt lat="41.18328" lon="20.30981">
        <ele>298.154089</ele>
        <time>2022-05-01T11:12:57.550Z</time>
      </trkpt>
      <trkpt lat="41.18333" lon="20.30971">
        <ele>298.269051</ele>
        <time>2022-05-01T11:13:01.554Z</time>
      </trkpt>
      <trkpt lat="41.18338" lon="20.30959">
        <ele>298.391337</ele>
        <time>2022-05-01T11:13:05.561Z</time>
      </trkpt>
      <trkpt lat="41.18343" lon="20.30948">
        <ele>298.505228</ele>
        <time>2022-05-01T11:13:09.560Z</time>
      </trkpt>
      <trkpt lat="41.18348" lon="20.30935">
        <ele>298.630386</ele>
        <time>2022-05-01T11:13:14.613Z</time>
      </trkpt>
      <trkpt lat="41.18353" lon="20.30925">
        <ele>298.740288</ele>
        <time>2022-05-01T11:13:18.545Z</time>
      </trkpt>
      <trkpt lat="41.18358" lon="20.30913">
        <ele>298.856326</ele>
        <time>2022-05-01T11:13:22.557Z</time>
      </trkpt>
      <trkpt lat="41.18362" lon="20.30902">
        <ele>298.977258</ele>
        <time>2022-05-01T11:13:26.588Z</time>
      </trkpt>
      <trkpt lat="41.18367" lon="20.30891">
        <ele>299.41443</ele>
        <time>2022-05-01T11:13:30.552Z</time>
      </trkpt>
      <trkpt lat="41.18372" lon="20.30881">
        <ele>300.015157</ele>
        <time>2022-05-01T11:13:34.543Z</time>
      </trkpt>
      <trkpt lat="41.18378" lon="20.30871">
        <ele>300.615885</ele>
        <time>2022-05-01T11:13:38.533Z</time>
      </trkpt>
      <trkpt lat="41.18385" lon="20.30862">
        <ele>301.282528</ele>
        <time>2022-05-01T11:13:43.559Z</time>
      </trkpt>
      <trkpt lat="41.18393" lon="20.30855">
        <ele>301.918737</ele>
        <time>2022-05-01T11:13:48.548Z</time>
      </trkpt>
      <trkpt lat="41.18401" lon="20.30848">
        <ele>302.538281</ele>
        <time>2022-05-01T11:13:53.575Z</time>
      </trkpt>
      <trkpt lat="41.18408" lon="20.30841">
        <ele>303.157826</ele>
        <time>2022-05-01T11:13:59.574Z</time>
      </trkpt>
      <trkpt lat="41.18417" lon="20.30834">
        <ele>303.807799</ele>
        <time>2022-05-01T11:14:05.539Z</time>
      </trkpt>
      <trkpt lat="41.18424" lon="20.30827">
        <ele>304.433709</ele>
        <time>2022-05-01T11:14:11.535Z</time>
      </trkpt>
      <trkpt lat="41.18431" lon="20.30818">
        <ele>305.064781</ele>
        <time>2022-05-01T11:14:18.553Z</time>
      </trkpt>
      <trkpt lat="41.18437" lon="20.30806">
        <ele>305.738582</ele>
        <time>2022-05-01T11:14:25.546Z</time>
      </trkpt>
      <trkpt lat="41.18442" lon="20.30796">
        <ele>306.376544</ele>
        <time>2022-05-01T11:14:31.549Z</time>
      </trkpt>
      <trkpt lat="41.18446" lon="20.30785">
        <ele>306.982115</ele>
        <time>2022-05-01T11:14:37.558Z</time>
      </trkpt>
      <trkpt lat="41.18452" lon="20.30775">
        <ele>307.618235</ele>
        <time>2022-05-01T11:14:43.559Z</time>
      </trkpt>
      <trkpt lat="41.18458" lon="20.30762">
        <ele>308.342079</ele>
        <time>2022-05-01T11:14:49.552Z</time>
      </trkpt>
      <trkpt lat="41.18462" lon="20.30751">
        <ele>308.942623</ele>
        <time>2022-05-01T11:14:54.551Z</time>
      </trkpt>
      <trkpt lat="41.18466" lon="20.3074">
        <ele>309.578667</ele>
        <time>2022-05-01T11:14:59.547Z</time>
      </trkpt>
      <trkpt lat="41.1847" lon="20.30727">
        <ele>310.298939</ele>
        <time>2022-05-01T11:15:04.551Z</time>
      </trkpt>
      <trkpt lat="41.18474" lon="20.30715">
        <ele>310.894778</ele>
        <time>2022-05-01T11:15:08.539Z</time>
      </trkpt>
      <trkpt lat="41.18478" lon="20.30702">
        <ele>310.680685</ele>
        <time>2022-05-01T11:15:12.544Z</time>
      </trkpt>
      <trkpt lat="41.18482" lon="20.30688">
        <ele>310.436976</ele>
        <time>2022-05-01T11:15:16.554Z</time>
      </trkpt>
      <trkpt lat="41.18484" lon="20.30675">
        <ele>310.23482</ele>
        <time>2022-05-01T11:15:19.561Z</time>
      </trkpt>
      <trkpt lat="41.18487" lon="20.30662">
        <ele>310.012913</ele>
        <time>2022-05-01T11:15:22.537Z</time>
      </trkpt>
      <trkpt lat="41.18492" lon="20.30647">
        <ele>309.757305</ele>
        <time>2022-05-01T11:15:25.558Z</time>
      </trkpt>
      <trkpt lat="41.18495" lon="20.30636">
        <ele>309.56196</ele>
        <time>2022-05-01T11:15:27.553Z</time>
      </trkpt>
      <trkpt lat="41.18501" lon="20.30623">
        <ele>309.335487</ele>
        <time>2022-05-01T11:15:29.580Z</time>
      </trkpt>
      <trkpt lat="41.18507" lon="20.3061">
        <ele>309.091107</ele>
        <time>2022-05-01T11:15:31.553Z</time>
      </trkpt>
      <trkpt lat="41.18514" lon="20.30597">
        <ele>308.841699</ele>
        <time>2022-05-01T11:15:33.561Z</time>
      </trkpt>
      <trkpt lat="41.18522" lon="20.30581">
        <ele>308.536697</ele>
        <time>2022-05-01T11:15:35.580Z</time>
      </trkpt>
      <trkpt lat="41.18531" lon="20.30565">
        <ele>308.209095</ele>
        <time>2022-05-01T11:15:37.551Z</time>
      </trkpt>
      <trkpt lat="41.18541" lon="20.30547">
        <ele>307.863786</ele>
        <time>2022-05-01T11:15:39.552Z</time>
      </trkpt>
      <trkpt lat="41.18551" lon="20.30529">
        <ele>307.5008</ele>
        <time>2022-05-01T11:15:41.561Z</time>
      </trkpt>
      <trkpt lat="41.18561" lon="20.3051">
        <ele>307.133988</ele>
        <time>2022-05-01T11:15:43.537Z</time>
      </trkpt>
      <trkpt lat="41.18572" lon="20.30491">
        <ele>306.836072</ele>
        <time>2022-05-01T11:15:45.570Z</time>
      </trkpt>
      <trkpt lat="41.18582" lon="20.30473">
        <ele>306.543502</ele>
        <time>2022-05-01T11:15:47.561Z</time>
      </trkpt>
      <trkpt lat="41.18592" lon="20.30455">
        <ele>306.260944</ele>
        <time>2022-05-01T11:15:49.551Z</time>
      </trkpt>
      <trkpt lat="41.18602" lon="20.30437">
        <ele>305.988535</ele>
        <time>2022-05-01T11:15:51.551Z</time>
      </trkpt>
      <trkpt lat="41.18611" lon="20.3042">
        <ele>305.724194</ele>
        <time>2022-05-01T11:15:53.550Z</time>
      </trkpt>
      <trkpt lat="41.1862" lon="20.30404">
        <ele>305.470909</ele>
        <time>2022-05-01T11:15:55.547Z</time>
      </trkpt>
      <trkpt lat="41.18629" lon="20.30388">
        <ele>305.221678</ele>
        <time>2022-05-01T11:15:57.568Z</time>
      </trkpt>
      <trkpt lat="41.18636" lon="20.30373">
        <ele>304.990982</ele>
        <time>2022-05-01T11:15:59.540Z</time>
      </trkpt>
      <trkpt lat="41.18641" lon="20.30357">
        <ele>304.779876</ele>
        <time>2022-05-01T11:16:01.564Z</time>
      </trkpt>
      <trkpt lat="41.18644" lon="20.30343">
        <ele>304.595755</ele>
        <time>2022-05-01T11:16:03.550Z</time>
      </trkpt>
      <trkpt lat="41.18645" lon="20.30331">
        <ele>304.43643</ele>
        <time>2022-05-01T11:16:05.547Z</time>
      </trkpt>
      <trkpt lat="41.18645" lon="20.30315">
        <ele>304.239463</ele>
        <time>2022-05-01T11:16:08.557Z</time>
      </trkpt>
      <trkpt lat="41.18644" lon="20.30303">
        <ele>304.200331</ele>
        <time>2022-05-01T11:16:11.533Z</time>
      </trkpt>
      <trkpt lat="41.18642" lon="20.30289">
        <ele>304.984655</ele>
        <time>2022-05-01T11:16:15.546Z</time>
      </trkpt>
      <trkpt lat="41.1864" lon="20.30278">
        <ele>305.682778</ele>
        <time>2022-05-01T11:16:19.550Z</time>
      </trkpt>
      <trkpt lat="41.18637" lon="20.30266">
        <ele>306.39428</ele>
        <time>2022-05-01T11:16:23.567Z</time>
      </trkpt>
      <trkpt lat="41.18634" lon="20.30254">
        <ele>307.120188</ele>
        <time>2022-05-01T11:16:27.551Z</time>
      </trkpt>
      <trkpt lat="41.1863" lon="20.30243">
        <ele>307.883056</ele>
        <time>2022-05-01T11:16:32.559Z</time>
      </trkpt>
      <trkpt lat="41.18626" lon="20.30231">
        <ele>308.586591</ele>
        <time>2022-05-01T11:16:37.565Z</time>
      </trkpt>
      <trkpt lat="41.18622" lon="20.30218">
        <ele>309.417893</ele>
        <time>2022-05-01T11:16:43.549Z</time>
      </trkpt>
      <trkpt lat="41.1862" lon="20.30205">
        <ele>310.157329</ele>
        <time>2022-05-01T11:16:49.556Z</time>
      </trkpt>
      <trkpt lat="41.18618" lon="20.30193">
        <ele>310.895034</ele>
        <time>2022-05-01T11:16:55.557Z</time>
      </trkpt>
      <trkpt lat="41.18618" lon="20.3018">
        <ele>311.638317</ele>
        <time>2022-05-01T11:17:01.551Z</time>
      </trkpt>
      <trkpt lat="41.18618" lon="20.30168">
        <ele>312.376444</ele>
        <time>2022-05-01T11:17:08.550Z</time>
      </trkpt>
      <trkpt lat="41.1862" lon="20.30155">
        <ele>313.107834</ele>
        <time>2022-05-01T11:17:15.555Z</time>
      </trkpt>
      <trkpt lat="41.18621" lon="20.30143">
        <ele>313.803711</ele>
        <time>2022-05-01T11:17:21.556Z</time>
      </trkpt>
      <trkpt lat="41.18624" lon="20.3013">
        <ele>314.605072</ele>
        <time>2022-05-01T11:17:28.595Z</time>
      </trkpt>
      <trkpt lat="41.18628" lon="20.30119">
        <ele>315.31728</ele>
        <time>2022-05-01T11:17:34.555Z</time>
      </trkpt>
      <trkpt lat="41.18633" lon="20.30109">
        <ele>316.013118</ele>
        <time>2022-05-01T11:17:39.543Z</time>
      </trkpt>
      <trkpt lat="41.1864" lon="20.30101">
        <ele>316.712403</ele>
        <time>2022-05-01T11:17:45.553Z</time>
      </trkpt>
      <trkpt lat="41.18646" lon="20.30092">
        <ele>317.414607</ele>
        <time>2022-05-01T11:17:51.548Z</time>
      </trkpt>
      <trkpt lat="41.18653" lon="20.30081">
        <ele>317.886842</ele>
        <time>2022-05-01T11:17:58.547Z</time>
      </trkpt>
      <trkpt lat="41.18659" lon="20.30071">
        <ele>317.598983</ele>
        <time>2022-05-01T11:18:04.544Z</time>
      </trkpt>
      <trkpt lat="41.18666" lon="20.3006">
        <ele>317.286111</ele>
        <time>2022-05-01T11:18:09.566Z</time>
      </trkpt>
      <trkpt lat="41.18672" lon="20.30048">
        <ele>316.975758</ele>
        <time>2022-05-01T11:18:13.532Z</time>
      </trkpt>
      <trkpt lat="41.18677" lon="20.30038">
        <ele>316.714058</ele>
        <time>2022-05-01T11:18:16.557Z</time>
      </trkpt>
      <trkpt lat="41.18682" lon="20.30025">
        <ele>316.398476</ele>
        <time>2022-05-01T11:18:19.546Z</time>
      </trkpt>
      <trkpt lat="41.18685" lon="20.30013">
        <ele>316.136986</ele>
        <time>2022-05-01T11:18:21.563Z</time>
      </trkpt>
      <trkpt lat="41.18689" lon="20.29999">
        <ele>315.819982</ele>
        <time>2022-05-01T11:18:23.563Z</time>
      </trkpt>
      <trkpt lat="41.18692" lon="20.29983">
        <ele>315.451863</ele>
        <time>2022-05-01T11:18:25.566Z</time>
      </trkpt>
      <trkpt lat="41.18696" lon="20.29965">
        <ele>315.047785</ele>
        <time>2022-05-01T11:18:27.549Z</time>
      </trkpt>
      <trkpt lat="41.18701" lon="20.29946">
        <ele>314.614507</ele>
        <time>2022-05-01T11:18:29.555Z</time>
      </trkpt>
      <trkpt lat="41.18707" lon="20.29926">
        <ele>314.155107</ele>
        <time>2022-05-01T11:18:31.560Z</time>
      </trkpt>
      <trkpt lat="41.18715" lon="20.29907">
        <ele>313.675461</ele>
        <time>2022-05-01T11:18:33.554Z</time>
      </trkpt>
      <trkpt lat="41.18725" lon="20.29888">
        <ele>313.178384</ele>
        <time>2022-05-01T11:18:35.557Z</time>
      </trkpt>
      <trkpt lat="41.1873" lon="20.29878">
        <ele>312.916359</ele>
        <time>2022-05-01T11:18:36.538Z</time>
      </trkpt>
      <trkpt lat="41.18736" lon="20.29869">
        <ele>312.411942</ele>
        <time>2022-05-01T11:18:37.535Z</time>
      </trkpt>
      <trkpt lat="41.18749" lon="20.29852">
        <ele>311.147498</ele>
        <time>2022-05-01T11:18:39.565Z</time>
      </trkpt>
      <trkpt lat="41.18762" lon="20.29836">
        <ele>309.886668</ele>
        <time>2022-05-01T11:18:41.598Z</time>
      </trkpt>
      <trkpt lat="41.18774" lon="20.29819">
        <ele>308.635923</ele>
        <time>2022-05-01T11:18:43.551Z</time>
      </trkpt>
      <trkpt lat="41.18785" lon="20.298">
        <ele>307.3555</ele>
        <time>2022-05-01T11:18:45.552Z</time>
      </trkpt>
      <trkpt lat="41.18789" lon="20.29788">
        <ele>306.661713</ele>
        <time>2022-05-01T11:18:46.552Z</time>
      </trkpt>
      <trkpt lat="41.18792" lon="20.29776">
        <ele>305.966641</ele>
        <time>2022-05-01T11:18:47.589Z</time>
      </trkpt>
      <trkpt lat="41.18794" lon="20.29763">
        <ele>305.273645</ele>
        <time>2022-05-01T11:18:48.553Z</time>
      </trkpt>
      <trkpt lat="41.18794" lon="20.29749">
        <ele>304.535379</ele>
        <time>2022-05-01T11:18:49.575Z</time>
      </trkpt>
      <trkpt lat="41.18794" lon="20.29736">
        <ele>303.812655</ele>
        <time>2022-05-01T11:18:50.550Z</time>
      </trkpt>
      <trkpt lat="41.18792" lon="20.29722">
        <ele>303.056362</ele>
        <time>2022-05-01T11:18:51.557Z</time>
      </trkpt>
      <trkpt lat="41.1879" lon="20.29708">
        <ele>302.305102</ele>
        <time>2022-05-01T11:18:52.548Z</time>
      </trkpt>
      <trkpt lat="41.18788" lon="20.29694">
        <ele>301.568845</ele>
        <time>2022-05-01T11:18:53.549Z</time>
      </trkpt>
      <trkpt lat="41.18785" lon="20.29682">
        <ele>300.851789</ele>
        <time>2022-05-01T11:18:54.556Z</time>
      </trkpt>
      <trkpt lat="41.18781" lon="20.29669">
        <ele>300.103894</ele>
        <time>2022-05-01T11:18:55.551Z</time>
      </trkpt>
      <trkpt lat="41.18777" lon="20.29656">
        <ele>299.546736</ele>
        <time>2022-05-01T11:18:56.566Z</time>
      </trkpt>
      <trkpt lat="41.18774" lon="20.29643">
        <ele>298.993982</ele>
        <time>2022-05-01T11:18:57.542Z</time>
      </trkpt>
      <trkpt lat="41.18772" lon="20.29629">
        <ele>298.440418</ele>
        <time>2022-05-01T11:18:58.587Z</time>
      </trkpt>
      <trkpt lat="41.18772" lon="20.29615">
        <ele>297.885808</ele>
        <time>2022-05-01T11:18:59.546Z</time>
      </trkpt>
      <trkpt lat="41.18772" lon="20.29601">
        <ele>297.323065</ele>
        <time>2022-05-01T11:19:00.549Z</time>
      </trkpt>
      <trkpt lat="41.18773" lon="20.29586">
        <ele>296.760051</ele>
        <time>2022-05-01T11:19:01.544Z</time>
      </trkpt>
      <trkpt lat="41.18773" lon="20.29572">
        <ele>296.208895</ele>
        <time>2022-05-01T11:19:02.562Z</time>
      </trkpt>
      <trkpt lat="41.18774" lon="20.29558">
        <ele>295.640832</ele>
        <time>2022-05-01T11:19:03.551Z</time>
      </trkpt>
      <trkpt lat="41.18776" lon="20.29544">
        <ele>295.069888</ele>
        <time>2022-05-01T11:19:04.533Z</time>
      </trkpt>
      <trkpt lat="41.18778" lon="20.2953">
        <ele>294.495971</ele>
        <time>2022-05-01T11:19:05.548Z</time>
      </trkpt>
      <trkpt lat="41.18781" lon="20.29515">
        <ele>293.911038</ele>
        <time>2022-05-01T11:19:06.547Z</time>
      </trkpt>
      <trkpt lat="41.18785" lon="20.29502">
        <ele>293.336691</ele>
        <time>2022-05-01T11:19:07.555Z</time>
      </trkpt>
      <trkpt lat="41.18791" lon="20.29489">
        <ele>292.735938</ele>
        <time>2022-05-01T11:19:08.555Z</time>
      </trkpt>
      <trkpt lat="41.18797" lon="20.29475">
        <ele>292.091999</ele>
        <time>2022-05-01T11:19:09.554Z</time>
      </trkpt>
      <trkpt lat="41.18804" lon="20.29461">
        <ele>291.428525</ele>
        <time>2022-05-01T11:19:10.592Z</time>
      </trkpt>
      <trkpt lat="41.1881" lon="20.29446">
        <ele>290.766492</ele>
        <time>2022-05-01T11:19:11.565Z</time>
      </trkpt>
      <trkpt lat="41.18816" lon="20.29432">
        <ele>290.104255</ele>
        <time>2022-05-01T11:19:12.547Z</time>
      </trkpt>
      <trkpt lat="41.18822" lon="20.29418">
        <ele>289.437285</ele>
        <time>2022-05-01T11:19:13.530Z</time>
      </trkpt>
      <trkpt lat="41.18828" lon="20.29403">
        <ele>288.768127</ele>
        <time>2022-05-01T11:19:14.551Z</time>
      </trkpt>
      <trkpt lat="41.18833" lon="20.29389">
        <ele>288.092819</ele>
        <time>2022-05-01T11:19:15.552Z</time>
      </trkpt>
      <trkpt lat="41.18839" lon="20.29374">
        <ele>287.407709</ele>
        <time>2022-05-01T11:19:16.543Z</time>
      </trkpt>
      <trkpt lat="41.18846" lon="20.29359">
        <ele>286.689007</ele>
        <time>2022-05-01T11:19:17.543Z</time>
      </trkpt>
      <trkpt lat="41.18852" lon="20.29344">
        <ele>285.990879</ele>
        <time>2022-05-01T11:19:18.555Z</time>
      </trkpt>
      <trkpt lat="41.18857" lon="20.2933">
        <ele>285.336292</ele>
        <time>2022-05-01T11:19:19.556Z</time>
      </trkpt>
      <trkpt lat="41.18863" lon="20.29316">
        <ele>284.695145</ele>
        <time>2022-05-01T11:19:20.551Z</time>
      </trkpt>
      <trkpt lat="41.18869" lon="20.29303">
        <ele>284.056287</ele>
        <time>2022-05-01T11:19:21.598Z</time>
      </trkpt>
      <trkpt lat="41.18876" lon="20.2929">
        <ele>283.412751</ele>
        <time>2022-05-01T11:19:22.533Z</time>
      </trkpt>
      <trkpt lat="41.18883" lon="20.29277">
        <ele>282.762734</ele>
        <time>2022-05-01T11:19:23.543Z</time>
      </trkpt>
      <trkpt lat="41.18889" lon="20.29264">
        <ele>282.123877</ele>
        <time>2022-05-01T11:19:24.555Z</time>
      </trkpt>
      <trkpt lat="41.18894" lon="20.2925">
        <ele>281.493591</ele>
        <time>2022-05-01T11:19:25.552Z</time>
      </trkpt>
      <trkpt lat="41.18899" lon="20.29236">
        <ele>280.862624</ele>
        <time>2022-05-01T11:19:26.583Z</time>
      </trkpt>
      <trkpt lat="41.18902" lon="20.29221">
        <ele>280.003866</ele>
        <time>2022-05-01T11:19:27.577Z</time>
      </trkpt>
      <trkpt lat="41.18904" lon="20.29206">
        <ele>279.103762</ele>
        <time>2022-05-01T11:19:28.550Z</time>
      </trkpt>
      <trkpt lat="41.18903" lon="20.29191">
        <ele>278.180408</ele>
        <time>2022-05-01T11:19:29.550Z</time>
      </trkpt>
      <trkpt lat="41.18901" lon="20.29175">
        <ele>277.243118</ele>
        <time>2022-05-01T11:19:30.553Z</time>
      </trkpt>
      <trkpt lat="41.18898" lon="20.29159">
        <ele>276.26433</ele>
        <time>2022-05-01T11:19:31.548Z</time>
      </trkpt>
      <trkpt lat="41.18894" lon="20.29143">
        <ele>275.273844</ele>
        <time>2022-05-01T11:19:32.551Z</time>
      </trkpt>
      <trkpt lat="41.18889" lon="20.29127">
        <ele>274.277766</ele>
        <time>2022-05-01T11:19:33.540Z</time>
      </trkpt>
      <trkpt lat="41.18883" lon="20.29112">
        <ele>273.262019</ele>
        <time>2022-05-01T11:19:34.567Z</time>
      </trkpt>
      <trkpt lat="41.18876" lon="20.29097">
        <ele>272.270975</ele>
        <time>2022-05-01T11:19:35.557Z</time>
      </trkpt>
      <trkpt lat="41.18869" lon="20.29084">
        <ele>271.302488</ele>
        <time>2022-05-01T11:19:36.553Z</time>
      </trkpt>
      <trkpt lat="41.18862" lon="20.29071">
        <ele>270.348954</ele>
        <time>2022-05-01T11:19:37.545Z</time>
      </trkpt>
      <trkpt lat="41.18854" lon="20.29059">
        <ele>269.397055</ele>
        <time>2022-05-01T11:19:38.570Z</time>
      </trkpt>
      <trkpt lat="41.18845" lon="20.29048">
        <ele>268.467614</ele>
        <time>2022-05-01T11:19:39.548Z</time>
      </trkpt>
      <trkpt lat="41.18837" lon="20.29037">
        <ele>267.574861</ele>
        <time>2022-05-01T11:19:40.549Z</time>
      </trkpt>
      <trkpt lat="41.18828" lon="20.29028">
        <ele>266.69741</ele>
        <time>2022-05-01T11:19:41.560Z</time>
      </trkpt>
      <trkpt lat="41.18819" lon="20.29018">
        <ele>266.063219</ele>
        <time>2022-05-01T11:19:42.536Z</time>
      </trkpt>
      <trkpt lat="41.18811" lon="20.29009">
        <ele>265.426384</ele>
        <time>2022-05-01T11:19:43.553Z</time>
      </trkpt>
      <trkpt lat="41.18802" lon="20.29">
        <ele>264.801055</ele>
        <time>2022-05-01T11:19:44.535Z</time>
      </trkpt>
      <trkpt lat="41.18794" lon="20.28991">
        <ele>264.188124</ele>
        <time>2022-05-01T11:19:45.558Z</time>
      </trkpt>
      <trkpt lat="41.18785" lon="20.28982">
        <ele>263.565459</ele>
        <time>2022-05-01T11:19:46.557Z</time>
      </trkpt>
      <trkpt lat="41.18776" lon="20.28973">
        <ele>262.94544</ele>
        <time>2022-05-01T11:19:47.559Z</time>
      </trkpt>
      <trkpt lat="41.18768" lon="20.28964">
        <ele>262.340339</ele>
        <time>2022-05-01T11:19:48.547Z</time>
      </trkpt>
      <trkpt lat="41.18759" lon="20.28956">
        <ele>261.732645</ele>
        <time>2022-05-01T11:19:49.581Z</time>
      </trkpt>
      <trkpt lat="41.18751" lon="20.28947">
        <ele>261.133886</ele>
        <time>2022-05-01T11:19:50.587Z</time>
      </trkpt>
      <trkpt lat="41.18743" lon="20.28938">
        <ele>260.534207</ele>
        <time>2022-05-01T11:19:51.539Z</time>
      </trkpt>
      <trkpt lat="41.18735" lon="20.28929">
        <ele>259.938903</ele>
        <time>2022-05-01T11:19:52.558Z</time>
      </trkpt>
      <trkpt lat="41.18727" lon="20.2892">
        <ele>259.360472</ele>
        <time>2022-05-01T11:19:53.536Z</time>
      </trkpt>
      <trkpt lat="41.18719" lon="20.28912">
        <ele>258.791816</ele>
        <time>2022-05-01T11:19:54.547Z</time>
      </trkpt>
      <trkpt lat="41.18711" lon="20.28904">
        <ele>258.219561</ele>
        <time>2022-05-01T11:19:55.548Z</time>
      </trkpt>
      <trkpt lat="41.18703" lon="20.28896">
        <ele>257.653579</ele>
        <time>2022-05-01T11:19:56.565Z</time>
      </trkpt>
      <trkpt lat="41.18696" lon="20.28887">
        <ele>257.092006</ele>
        <time>2022-05-01T11:19:57.552Z</time>
      </trkpt>
      <trkpt lat="41.18688" lon="20.28879">
        <ele>256.543746</ele>
        <time>2022-05-01T11:19:58.546Z</time>
      </trkpt>
      <trkpt lat="41.1868" lon="20.28871">
        <ele>256.470105</ele>
        <time>2022-05-01T11:19:59.545Z</time>
      </trkpt>
      <trkpt lat="41.18672" lon="20.28863">
        <ele>256.39706</ele>
        <time>2022-05-01T11:20:00.549Z</time>
      </trkpt>
      <trkpt lat="41.18665" lon="20.28855">
        <ele>256.32376</ele>
        <time>2022-05-01T11:20:01.595Z</time>
      </trkpt>
      <trkpt lat="41.18657" lon="20.28848">
        <ele>256.251898</ele>
        <time>2022-05-01T11:20:02.547Z</time>
      </trkpt>
      <trkpt lat="41.1865" lon="20.28839">
        <ele>256.179581</ele>
        <time>2022-05-01T11:20:03.540Z</time>
      </trkpt>
      <trkpt lat="41.18643" lon="20.28829">
        <ele>256.105832</ele>
        <time>2022-05-01T11:20:04.552Z</time>
      </trkpt>
      <trkpt lat="41.18638" lon="20.28818">
        <ele>256.028358</ele>
        <time>2022-05-01T11:20:05.553Z</time>
      </trkpt>
      <trkpt lat="41.18634" lon="20.28805">
        <ele>255.953224</ele>
        <time>2022-05-01T11:20:06.552Z</time>
      </trkpt>
      <trkpt lat="41.18632" lon="20.28793">
        <ele>255.882115</ele>
        <time>2022-05-01T11:20:07.561Z</time>
      </trkpt>
      <trkpt lat="41.18631" lon="20.2878">
        <ele>255.810908</ele>
        <time>2022-05-01T11:20:08.565Z</time>
      </trkpt>
      <trkpt lat="41.18631" lon="20.28768">
        <ele>255.740834</ele>
        <time>2022-05-01T11:20:09.552Z</time>
      </trkpt>
      <trkpt lat="41.18632" lon="20.28756">
        <ele>255.672311</ele>
        <time>2022-05-01T11:20:10.559Z</time>
      </trkpt>
      <trkpt lat="41.18633" lon="20.28733">
        <ele>255.542125</ele>
        <time>2022-05-01T11:20:12.533Z</time>
      </trkpt>
      <trkpt lat="41.18635" lon="20.28711">
        <ele>255.416723</ele>
        <time>2022-05-01T11:20:14.538Z</time>
      </trkpt>
      <trkpt lat="41.1864" lon="20.28691">
        <ele>255.296324</ele>
        <time>2022-05-01T11:20:16.570Z</time>
      </trkpt>
      <trkpt lat="41.18646" lon="20.28672">
        <ele>255.180496</ele>
        <time>2022-05-01T11:20:18.552Z</time>
      </trkpt>
      <trkpt lat="41.18651" lon="20.28653">
        <ele>255.069108</ele>
        <time>2022-05-01T11:20:20.565Z</time>
      </trkpt>
      <trkpt lat="41.18656" lon="20.28635">
        <ele>254.956677</ele>
        <time>2022-05-01T11:20:22.546Z</time>
      </trkpt>
      <trkpt lat="41.18662" lon="20.28615">
        <ele>254.837315</ele>
        <time>2022-05-01T11:20:24.601Z</time>
      </trkpt>
      <trkpt lat="41.18669" lon="20.28596">
        <ele>254.720994</ele>
        <time>2022-05-01T11:20:26.560Z</time>
      </trkpt>
      <trkpt lat="41.18676" lon="20.28579">
        <ele>254.607874</ele>
        <time>2022-05-01T11:20:28.560Z</time>
      </trkpt>
      <trkpt lat="41.18685" lon="20.28563">
        <ele>254.495818</ele>
        <time>2022-05-01T11:20:30.531Z</time>
      </trkpt>
      <trkpt lat="41.18693" lon="20.28547">
        <ele>254.385581</ele>
        <time>2022-05-01T11:20:32.555Z</time>
      </trkpt>
      <trkpt lat="41.18701" lon="20.28532">
        <ele>254.281169</ele>
        <time>2022-05-01T11:20:34.529Z</time>
      </trkpt>
      <trkpt lat="41.18709" lon="20.28516">
        <ele>254.174774</ele>
        <time>2022-05-01T11:20:36.594Z</time>
      </trkpt>
      <trkpt lat="41.18715" lon="20.28501">
        <ele>254.079755</ele>
        <time>2022-05-01T11:20:38.557Z</time>
      </trkpt>
      <trkpt lat="41.18722" lon="20.28487">
        <ele>253.984801</ele>
        <time>2022-05-01T11:20:40.534Z</time>
      </trkpt>
      <trkpt lat="41.1873" lon="20.28473">
        <ele>253.884081</ele>
        <time>2022-05-01T11:20:42.587Z</time>
      </trkpt>
      <trkpt lat="41.18738" lon="20.2846">
        <ele>253.721202</ele>
        <time>2022-05-01T11:20:44.552Z</time>
      </trkpt>
      <trkpt lat="41.18746" lon="20.28448">
        <ele>253.523513</ele>
        <time>2022-05-01T11:20:46.530Z</time>
      </trkpt>
      <trkpt lat="41.18754" lon="20.28435">
        <ele>253.309609</ele>
        <time>2022-05-01T11:20:48.589Z</time>
      </trkpt>
      <trkpt lat="41.18763" lon="20.28423">
        <ele>253.103781</ele>
        <time>2022-05-01T11:20:50.551Z</time>
      </trkpt>
      <trkpt lat="41.18771" lon="20.28411">
        <ele>252.908115</ele>
        <time>2022-05-01T11:20:52.564Z</time>
      </trkpt>
      <trkpt lat="41.18777" lon="20.28398">
        <ele>252.714313</ele>
        <time>2022-05-01T11:20:54.542Z</time>
      </trkpt>
      <trkpt lat="41.18783" lon="20.28384">
        <ele>252.513206</ele>
        <time>2022-05-01T11:20:56.554Z</time>
      </trkpt>
      <trkpt lat="41.18787" lon="20.28369">
        <ele>252.315843</ele>
        <time>2022-05-01T11:20:58.538Z</time>
      </trkpt>
      <trkpt lat="41.1879" lon="20.28354">
        <ele>252.119007</ele>
        <time>2022-05-01T11:21:00.553Z</time>
      </trkpt>
      <trkpt lat="41.18791" lon="20.28339">
        <ele>251.935012</ele>
        <time>2022-05-01T11:21:02.544Z</time>
      </trkpt>
      <trkpt lat="41.1879" lon="20.28325">
        <ele>251.757667</ele>
        <time>2022-05-01T11:21:04.549Z</time>
      </trkpt>
      <trkpt lat="41.18788" lon="20.28311">
        <ele>251.585397</ele>
        <time>2022-05-01T11:21:06.559Z</time>
      </trkpt>
      <trkpt lat="41.18786" lon="20.283">
        <ele>251.435794</ele>
        <time>2022-05-01T11:21:08.544Z</time>
      </trkpt>
      <trkpt lat="41.18781" lon="20.28288">
        <ele>251.271504</ele>
        <time>2022-05-01T11:21:10.595Z</time>
      </trkpt>
      <trkpt lat="41.18776" lon="20.28277">
        <ele>251.109257</ele>
        <time>2022-05-01T11:21:12.555Z</time>
      </trkpt>
      <trkpt lat="41.18771" lon="20.28266">
        <ele>250.944364</ele>
        <time>2022-05-01T11:21:14.552Z</time>
      </trkpt>
      <trkpt lat="41.18763" lon="20.28255">
        <ele>250.751529</ele>
        <time>2022-05-01T11:21:16.591Z</time>
      </trkpt>
      <trkpt lat="41.18754" lon="20.28245">
        <ele>250.567051</ele>
        <time>2022-05-01T11:21:18.570Z</time>
      </trkpt>
      <trkpt lat="41.18745" lon="20.28237">
        <ele>250.383212</ele>
        <time>2022-05-01T11:21:20.553Z</time>
      </trkpt>
      <trkpt lat="41.18736" lon="20.28229">
        <ele>250.202262</ele>
        <time>2022-05-01T11:21:22.549Z</time>
      </trkpt>
      <trkpt lat="41.18728" lon="20.28222">
        <ele>250.028306</ele>
        <time>2022-05-01T11:21:24.550Z</time>
      </trkpt>
      <trkpt lat="41.18719" lon="20.28215">
        <ele>249.859971</ele>
        <time>2022-05-01T11:21:26.548Z</time>
      </trkpt>
      <trkpt lat="41.18711" lon="20.2821">
        <ele>249.702271</ele>
        <time>2022-05-01T11:21:28.534Z</time>
      </trkpt>
      <trkpt lat="41.18701" lon="20.28202">
        <ele>249.504384</ele>
        <time>2022-05-01T11:21:30.558Z</time>
      </trkpt>
      <trkpt lat="41.1869" lon="20.28194">
        <ele>249.300065</ele>
        <time>2022-05-01T11:21:32.563Z</time>
      </trkpt>
      <trkpt lat="41.1868" lon="20.28186">
        <ele>249.101244</ele>
        <time>2022-05-01T11:21:34.547Z</time>
      </trkpt>
      <trkpt lat="41.1867" lon="20.28178">
        <ele>248.899232</ele>
        <time>2022-05-01T11:21:36.546Z</time>
      </trkpt>
      <trkpt lat="41.18659" lon="20.28169">
        <ele>248.688812</ele>
        <time>2022-05-01T11:21:38.551Z</time>
      </trkpt>
      <trkpt lat="41.18648" lon="20.2816">
        <ele>248.478997</ele>
        <time>2022-05-01T11:21:40.560Z</time>
      </trkpt>
      <trkpt lat="41.18638" lon="20.2815">
        <ele>248.266466</ele>
        <time>2022-05-01T11:21:42.559Z</time>
      </trkpt>
      <trkpt lat="41.18628" lon="20.2814">
        <ele>248.057045</ele>
        <time>2022-05-01T11:21:44.578Z</time>
      </trkpt>
      <trkpt lat="41.18618" lon="20.28129">
        <ele>247.837614</ele>
        <time>2022-05-01T11:21:46.564Z</time>
      </trkpt>
      <trkpt lat="41.18608" lon="20.28118">
        <ele>248.231932</ele>
        <time>2022-05-01T11:21:48.544Z</time>
      </trkpt>
      <trkpt lat="41.18599" lon="20.28106">
        <ele>248.636543</ele>
        <time>2022-05-01T11:21:50.547Z</time>
      </trkpt>
      <trkpt lat="41.1859" lon="20.28094">
        <ele>249.028193</ele>
        <time>2022-05-01T11:21:52.544Z</time>
      </trkpt>
      <trkpt lat="41.18581" lon="20.28082">
        <ele>249.418942</ele>
        <time>2022-05-01T11:21:54.543Z</time>
      </trkpt>
      <trkpt lat="41.18573" lon="20.28071">
        <ele>249.784126</ele>
        <time>2022-05-01T11:21:56.560Z</time>
      </trkpt>
      <trkpt lat="41.18566" lon="20.28059">
        <ele>250.142022</ele>
        <time>2022-05-01T11:21:58.551Z</time>
      </trkpt>
      <trkpt lat="41.18558" lon="20.28049">
        <ele>250.490939</ele>
        <time>2022-05-01T11:22:00.550Z</time>
      </trkpt>
      <trkpt lat="41.18551" lon="20.28038">
        <ele>250.831763</ele>
        <time>2022-05-01T11:22:02.554Z</time>
      </trkpt>
      <trkpt lat="41.18544" lon="20.28027">
        <ele>251.169269</ele>
        <time>2022-05-01T11:22:04.559Z</time>
      </trkpt>
      <trkpt lat="41.18538" lon="20.28015">
        <ele>251.501328</ele>
        <time>2022-05-01T11:22:06.531Z</time>
      </trkpt>
      <trkpt lat="41.18532" lon="20.28004">
        <ele>251.823891</ele>
        <time>2022-05-01T11:22:08.535Z</time>
      </trkpt>
      <trkpt lat="41.18526" lon="20.27993">
        <ele>252.129954</ele>
        <time>2022-05-01T11:22:10.594Z</time>
      </trkpt>
      <trkpt lat="41.18521" lon="20.27981">
        <ele>252.452249</ele>
        <time>2022-05-01T11:22:12.569Z</time>
      </trkpt>
      <trkpt lat="41.18516" lon="20.27969">
        <ele>252.767448</ele>
        <time>2022-05-01T11:22:14.558Z</time>
      </trkpt>
      <trkpt lat="41.18512" lon="20.27957">
        <ele>253.083999</ele>
        <time>2022-05-01T11:22:16.552Z</time>
      </trkpt>
      <trkpt lat="41.18508" lon="20.27944">
        <ele>253.407206</ele>
        <time>2022-05-01T11:22:18.544Z</time>
      </trkpt>
      <trkpt lat="41.18504" lon="20.27932">
        <ele>253.556866</ele>
        <time>2022-05-01T11:22:20.549Z</time>
      </trkpt>
      <trkpt lat="41.18501" lon="20.2792">
        <ele>253.683441</ele>
        <time>2022-05-01T11:22:22.562Z</time>
      </trkpt>
      <trkpt lat="41.18498" lon="20.27909">
        <ele>253.804456</ele>
        <time>2022-05-01T11:22:24.535Z</time>
      </trkpt>
      <trkpt lat="41.18494" lon="20.27892">
        <ele>253.983967</ele>
        <time>2022-05-01T11:22:27.566Z</time>
      </trkpt>
      <trkpt lat="41.18491" lon="20.27881">
        <ele>254.105536</ele>
        <time>2022-05-01T11:22:29.546Z</time>
      </trkpt>
      <trkpt lat="41.18489" lon="20.27869">
        <ele>254.229862</ele>
        <time>2022-05-01T11:22:31.564Z</time>
      </trkpt>
      <trkpt lat="41.18487" lon="20.27856">
        <ele>254.358826</ele>
        <time>2022-05-01T11:22:33.562Z</time>
      </trkpt>
      <trkpt lat="41.18485" lon="20.27844">
        <ele>254.489</ele>
        <time>2022-05-01T11:22:35.540Z</time>
      </trkpt>
      <trkpt lat="41.18485" lon="20.2783">
        <ele>254.621444</ele>
        <time>2022-05-01T11:22:37.544Z</time>
      </trkpt>
      <trkpt lat="41.18485" lon="20.27818">
        <ele>254.749719</ele>
        <time>2022-05-01T11:22:39.544Z</time>
      </trkpt>
      <trkpt lat="41.18486" lon="20.27805">
        <ele>254.875434</ele>
        <time>2022-05-01T11:22:41.556Z</time>
      </trkpt>
      <trkpt lat="41.18487" lon="20.27792">
        <ele>255.014145</ele>
        <time>2022-05-01T11:22:43.545Z</time>
      </trkpt>
      <trkpt lat="41.18489" lon="20.27778">
        <ele>255.15233</ele>
        <time>2022-05-01T11:22:45.566Z</time>
      </trkpt>
      <trkpt lat="41.1849" lon="20.27764">
        <ele>255.29367</ele>
        <time>2022-05-01T11:22:47.552Z</time>
      </trkpt>
      <trkpt lat="41.18492" lon="20.2775">
        <ele>255.435782</ele>
        <time>2022-05-01T11:22:49.583Z</time>
      </trkpt>
      <trkpt lat="41.18493" lon="20.27737">
        <ele>255.574821</ele>
        <time>2022-05-01T11:22:51.542Z</time>
      </trkpt>
      <trkpt lat="41.18495" lon="20.27722">
        <ele>255.720179</ele>
        <time>2022-05-01T11:22:53.536Z</time>
      </trkpt>
      <trkpt lat="41.18496" lon="20.27708">
        <ele>255.861487</ele>
        <time>2022-05-01T11:22:55.530Z</time>
      </trkpt>
      <trkpt lat="41.18498" lon="20.27694">
        <ele>255.955685</ele>
        <time>2022-05-01T11:22:57.548Z</time>
      </trkpt>
      <trkpt lat="41.185" lon="20.2768">
        <ele>256.045871</ele>
        <time>2022-05-01T11:22:59.542Z</time>
      </trkpt>
      <trkpt lat="41.18502" lon="20.27667">
        <ele>256.132087</ele>
        <time>2022-05-01T11:23:01.548Z</time>
      </trkpt>
      <trkpt lat="41.18504" lon="20.27653">
        <ele>256.225145</ele>
        <time>2022-05-01T11:23:03.545Z</time>
      </trkpt>
      <trkpt lat="41.18507" lon="20.27637">
        <ele>256.329414</ele>
        <time>2022-05-01T11:23:05.554Z</time>
      </trkpt>
      <trkpt lat="41.1851" lon="20.27622">
        <ele>256.431891</ele>
        <time>2022-05-01T11:23:07.555Z</time>
      </trkpt>
      <trkpt lat="41.18513" lon="20.27607">
        <ele>256.529304</ele>
        <time>2022-05-01T11:23:09.569Z</time>
      </trkpt>
      <trkpt lat="41.18517" lon="20.27593">
        <ele>256.625346</ele>
        <time>2022-05-01T11:23:11.564Z</time>
      </trkpt>
      <trkpt lat="41.1852" lon="20.27579">
        <ele>256.721282</ele>
        <time>2022-05-01T11:23:13.533Z</time>
      </trkpt>
      <trkpt lat="41.18523" lon="20.27565">
        <ele>256.81445</ele>
        <time>2022-05-01T11:23:15.547Z</time>
      </trkpt>
      <trkpt lat="41.18527" lon="20.27551">
        <ele>256.909413</ele>
        <time>2022-05-01T11:23:17.552Z</time>
      </trkpt>
      <trkpt lat="41.1853" lon="20.27537">
        <ele>257.005712</ele>
        <time>2022-05-01T11:23:19.549Z</time>
      </trkpt>
      <trkpt lat="41.18533" lon="20.27523">
        <ele>257.103294</ele>
        <time>2022-05-01T11:23:21.553Z</time>
      </trkpt>
      <trkpt lat="41.18536" lon="20.27508">
        <ele>257.200707</ele>
        <time>2022-05-01T11:23:23.587Z</time>
      </trkpt>
      <trkpt lat="41.18539" lon="20.27494">
        <ele>257.293895</ele>
        <time>2022-05-01T11:23:25.550Z</time>
      </trkpt>
      <trkpt lat="41.18541" lon="20.2748">
        <ele>257.383769</ele>
        <time>2022-05-01T11:23:27.557Z</time>
      </trkpt>
      <trkpt lat="41.18542" lon="20.27467">
        <ele>257.318849</ele>
        <time>2022-05-01T11:23:29.580Z</time>
      </trkpt>
      <trkpt lat="41.18543" lon="20.27453">
        <ele>257.22492</ele>
        <time>2022-05-01T11:23:31.546Z</time>
      </trkpt>
      <trkpt lat="41.18543" lon="20.27439">
        <ele>257.133194</ele>
        <time>2022-05-01T11:23:33.536Z</time>
      </trkpt>
      <trkpt lat="41.18544" lon="20.27425">
        <ele>257.03795</ele>
        <time>2022-05-01T11:23:35.539Z</time>
      </trkpt>
      <trkpt lat="41.18545" lon="20.2741">
        <ele>256.943294</ele>
        <time>2022-05-01T11:23:37.536Z</time>
      </trkpt>
      <trkpt lat="41.18545" lon="20.27397">
        <ele>256.854796</ele>
        <time>2022-05-01T11:23:39.543Z</time>
      </trkpt>
      <trkpt lat="41.18545" lon="20.27379">
        <ele>256.738029</ele>
        <time>2022-05-01T11:23:42.531Z</time>
      </trkpt>
      <trkpt lat="41.18545" lon="20.27362">
        <ele>256.625234</ele>
        <time>2022-05-01T11:23:45.552Z</time>
      </trkpt>
      <trkpt lat="41.18544" lon="20.27346">
        <ele>256.517658</ele>
        <time>2022-05-01T11:23:48.559Z</time>
      </trkpt>
      <trkpt lat="41.18545" lon="20.27334">
        <ele>256.438498</ele>
        <time>2022-05-01T11:23:50.554Z</time>
      </trkpt>
      <trkpt lat="41.18545" lon="20.27317">
        <ele>256.325012</ele>
        <time>2022-05-01T11:23:53.540Z</time>
      </trkpt>
      <trkpt lat="41.18546" lon="20.273">
        <ele>256.215948</ele>
        <time>2022-05-01T11:23:56.557Z</time>
      </trkpt>
      <trkpt lat="41.18546" lon="20.27283">
        <ele>256.100501</ele>
        <time>2022-05-01T11:23:59.541Z</time>
      </trkpt>
      <trkpt lat="41.18545" lon="20.27265">
        <ele>255.985606</ele>
        <time>2022-05-01T11:24:02.545Z</time>
      </trkpt>
      <trkpt lat="41.18543" lon="20.27248">
        <ele>255.869884</ele>
        <time>2022-05-01T11:24:05.558Z</time>
      </trkpt>
      <trkpt lat="41.18539" lon="20.27231">
        <ele>255.605012</ele>
        <time>2022-05-01T11:24:08.552Z</time>
      </trkpt>
      <trkpt lat="41.18532" lon="20.27217">
        <ele>255.234114</ele>
        <time>2022-05-01T11:24:11.548Z</time>
      </trkpt>
      <trkpt lat="41.18523" lon="20.27204">
        <ele>254.847836</ele>
        <time>2022-05-01T11:24:14.528Z</time>
      </trkpt>
      <trkpt lat="41.18513" lon="20.27194">
        <ele>254.470545</ele>
        <time>2022-05-01T11:24:17.560Z</time>
      </trkpt>
      <trkpt lat="41.18504" lon="20.27188">
        <ele>254.19147</ele>
        <time>2022-05-01T11:24:19.554Z</time>
      </trkpt>
      <trkpt lat="41.18495" lon="20.27183">
        <ele>253.899502</ele>
        <time>2022-05-01T11:24:21.549Z</time>
      </trkpt>
      <trkpt lat="41.18485" lon="20.2718">
        <ele>253.615555</ele>
        <time>2022-05-01T11:24:23.548Z</time>
      </trkpt>
      <trkpt lat="41.18475" lon="20.27179">
        <ele>253.3082</ele>
        <time>2022-05-01T11:24:25.549Z</time>
      </trkpt>
      <trkpt lat="41.18464" lon="20.27179">
        <ele>253.013037</ele>
        <time>2022-05-01T11:24:27.548Z</time>
      </trkpt>
      <trkpt lat="41.18454" lon="20.27181">
        <ele>252.721026</ele>
        <time>2022-05-01T11:24:29.551Z</time>
      </trkpt>
      <trkpt lat="41.18444" lon="20.27184">
        <ele>252.422472</ele>
        <time>2022-05-01T11:24:31.581Z</time>
      </trkpt>
      <trkpt lat="41.18435" lon="20.27187">
        <ele>252.13162</ele>
        <time>2022-05-01T11:24:33.546Z</time>
      </trkpt>
      <trkpt lat="41.18426" lon="20.27193">
        <ele>251.848332</ele>
        <time>2022-05-01T11:24:35.559Z</time>
      </trkpt>
      <trkpt lat="41.18418" lon="20.27201">
        <ele>251.553959</ele>
        <time>2022-05-01T11:24:37.555Z</time>
      </trkpt>
      <trkpt lat="41.1841" lon="20.27211">
        <ele>251.252124</ele>
        <time>2022-05-01T11:24:39.645Z</time>
      </trkpt>
      <trkpt lat="41.18403" lon="20.27221">
        <ele>250.959457</ele>
        <time>2022-05-01T11:24:41.534Z</time>
      </trkpt>
      <trkpt lat="41.18396" lon="20.27231">
        <ele>250.639428</ele>
        <time>2022-05-01T11:24:43.540Z</time>
      </trkpt>
      <trkpt lat="41.18388" lon="20.27243">
        <ele>250.111135</ele>
        <time>2022-05-01T11:24:45.556Z</time>
      </trkpt>
      <trkpt lat="41.18381" lon="20.27255">
        <ele>249.557413</ele>
        <time>2022-05-01T11:24:47.546Z</time>
      </trkpt>
      <trkpt lat="41.18374" lon="20.27266">
        <ele>249.009031</ele>
        <time>2022-05-01T11:24:49.554Z</time>
      </trkpt>
      <trkpt lat="41.18366" lon="20.27278">
        <ele>248.451595</ele>
        <time>2022-05-01T11:24:51.540Z</time>
      </trkpt>
      <trkpt lat="41.18359" lon="20.27289">
        <ele>247.888609</ele>
        <time>2022-05-01T11:24:53.563Z</time>
      </trkpt>
      <trkpt lat="41.18351" lon="20.27303">
        <ele>247.259278</ele>
        <time>2022-05-01T11:24:55.575Z</time>
      </trkpt>
      <trkpt lat="41.18342" lon="20.27316">
        <ele>246.64024</ele>
        <time>2022-05-01T11:24:57.535Z</time>
      </trkpt>
      <trkpt lat="41.18333" lon="20.2733">
        <ele>245.974626</ele>
        <time>2022-05-01T11:24:59.567Z</time>
      </trkpt>
      <trkpt lat="41.18324" lon="20.27344">
        <ele>245.285287</ele>
        <time>2022-05-01T11:25:01.573Z</time>
      </trkpt>
      <trkpt lat="41.18315" lon="20.27358">
        <ele>244.597094</ele>
        <time>2022-05-01T11:25:03.550Z</time>
      </trkpt>
      <trkpt lat="41.18306" lon="20.27372">
        <ele>243.918633</ele>
        <time>2022-05-01T11:25:05.542Z</time>
      </trkpt>
      <trkpt lat="41.18294" lon="20.27382">
        <ele>243.234729</ele>
        <time>2022-05-01T11:25:07.566Z</time>
      </trkpt>
      <trkpt lat="41.18281" lon="20.27386">
        <ele>242.588263</ele>
        <time>2022-05-01T11:25:09.546Z</time>
      </trkpt>
      <trkpt lat="41.18269" lon="20.27383">
        <ele>242.006848</ele>
        <time>2022-05-01T11:25:11.556Z</time>
      </trkpt>
      <trkpt lat="41.18258" lon="20.2738">
        <ele>242.151368</ele>
        <time>2022-05-01T11:25:13.557Z</time>
      </trkpt>
      <trkpt lat="41.18247" lon="20.27376">
        <ele>242.457248</ele>
        <time>2022-05-01T11:25:15.588Z</time>
      </trkpt>
      <trkpt lat="41.18238" lon="20.27374">
        <ele>242.725963</ele>
        <time>2022-05-01T11:25:17.550Z</time>
      </trkpt>
      <trkpt lat="41.18228" lon="20.27373">
        <ele>242.997477</ele>
        <time>2022-05-01T11:25:19.535Z</time>
      </trkpt>
      <trkpt lat="41.18218" lon="20.27372">
        <ele>243.262285</ele>
        <time>2022-05-01T11:25:21.526Z</time>
      </trkpt>
      <trkpt lat="41.18209" lon="20.27371">
        <ele>243.523232</ele>
        <time>2022-05-01T11:25:23.536Z</time>
      </trkpt>
      <trkpt lat="41.18195" lon="20.27368">
        <ele>243.897422</ele>
        <time>2022-05-01T11:25:26.545Z</time>
      </trkpt>
      <trkpt lat="41.18186" lon="20.27366">
        <ele>244.162519</ele>
        <time>2022-05-01T11:25:28.567Z</time>
      </trkpt>
      <trkpt lat="41.18177" lon="20.27362">
        <ele>244.421263</ele>
        <time>2022-05-01T11:25:30.550Z</time>
      </trkpt>
      <trkpt lat="41.18166" lon="20.27357">
        <ele>244.749965</ele>
        <time>2022-05-01T11:25:33.546Z</time>
      </trkpt>
      <trkpt lat="41.18157" lon="20.27351">
        <ele>245.031818</ele>
        <time>2022-05-01T11:25:36.542Z</time>
      </trkpt>
      <trkpt lat="41.18149" lon="20.27344">
        <ele>245.295668</ele>
        <time>2022-05-01T11:25:39.552Z</time>
      </trkpt>
      <trkpt lat="41.18139" lon="20.27335">
        <ele>245.6188</ele>
        <time>2022-05-01T11:25:43.553Z</time>
      </trkpt>
      <trkpt lat="41.18133" lon="20.27324">
        <ele>245.903523</ele>
        <time>2022-05-01T11:25:48.540Z</time>
      </trkpt>
      <trkpt lat="41.18126" lon="20.27314">
        <ele>246.182476</ele>
        <time>2022-05-01T11:25:54.568Z</time>
      </trkpt>
      <trkpt lat="41.18121" lon="20.27304">
        <ele>246.441937</ele>
        <time>2022-05-01T11:26:00.565Z</time>
      </trkpt>
      <trkpt lat="41.18115" lon="20.27294">
        <ele>246.703016</ele>
        <time>2022-05-01T11:26:06.559Z</time>
      </trkpt>
      <trkpt lat="41.18108" lon="20.27286">
        <ele>247.195303</ele>
        <time>2022-05-01T11:26:12.595Z</time>
      </trkpt>
      <trkpt lat="41.18103" lon="20.27276">
        <ele>248.188544</ele>
        <time>2022-05-01T11:26:19.559Z</time>
      </trkpt>
      <trkpt lat="41.18098" lon="20.27265">
        <ele>249.245123</ele>
        <time>2022-05-01T11:26:26.547Z</time>
      </trkpt>
      <trkpt lat="41.18091" lon="20.27256">
        <ele>250.331579</ele>
        <time>2022-05-01T11:26:33.562Z</time>
      </trkpt>
      <trkpt lat="41.18084" lon="20.27246">
        <ele>251.475499</ele>
        <time>2022-05-01T11:26:40.544Z</time>
      </trkpt>
      <trkpt lat="41.18077" lon="20.27237">
        <ele>252.522783</ele>
        <time>2022-05-01T11:26:47.587Z</time>
      </trkpt>
      <trkpt lat="41.18071" lon="20.27227">
        <ele>253.592892</ele>
        <time>2022-05-01T11:26:54.542Z</time>
      </trkpt>
      <trkpt lat="41.18064" lon="20.27218">
        <ele>254.63719</ele>
        <time>2022-05-01T11:27:01.555Z</time>
      </trkpt>
      <trkpt lat="41.18058" lon="20.27207">
        <ele>255.763854</ele>
        <time>2022-05-01T11:27:08.556Z</time>
      </trkpt>
      <trkpt lat="41.1805" lon="20.272">
        <ele>256.793688</ele>
        <time>2022-05-01T11:27:14.553Z</time>
      </trkpt>
      <trkpt lat="41.18043" lon="20.2719">
        <ele>257.870015</ele>
        <time>2022-05-01T11:27:21.547Z</time>
      </trkpt>
      <trkpt lat="41.18037" lon="20.27179">
        <ele>259.022119</ele>
        <time>2022-05-01T11:27:28.537Z</time>
      </trkpt>
      <trkpt lat="41.18032" lon="20.27169">
        <ele>260.048419</ele>
        <time>2022-05-01T11:27:34.549Z</time>
      </trkpt>
      <trkpt lat="41.18025" lon="20.27161">
        <ele>261.109497</ele>
        <time>2022-05-01T11:27:41.551Z</time>
      </trkpt>
      <trkpt lat="41.18018" lon="20.27151">
        <ele>262.185786</ele>
        <time>2022-05-01T11:27:48.547Z</time>
      </trkpt>
      <trkpt lat="41.18011" lon="20.27142">
        <ele>263.251816</ele>
        <time>2022-05-01T11:27:54.570Z</time>
      </trkpt>
      <trkpt lat="41.18004" lon="20.27133">
        <ele>264.330721</ele>
        <time>2022-05-01T11:28:00.595Z</time>
      </trkpt>
      <trkpt lat="41.17997" lon="20.27124">
        <ele>265.39123</ele>
        <time>2022-05-01T11:28:06.584Z</time>
      </trkpt>
      <trkpt lat="41.1799" lon="20.27116">
        <ele>266.428564</ele>
        <time>2022-05-01T11:28:12.585Z</time>
      </trkpt>
      <trkpt lat="41.17984" lon="20.27106">
        <ele>267.426539</ele>
        <time>2022-05-01T11:28:19.552Z</time>
      </trkpt>
      <trkpt lat="41.17977" lon="20.27096">
        <ele>268.444958</ele>
        <time>2022-05-01T11:28:25.543Z</time>
      </trkpt>
      <trkpt lat="41.1797" lon="20.27087">
        <ele>269.408209</ele>
        <time>2022-05-01T11:28:31.547Z</time>
      </trkpt>
      <trkpt lat="41.17963" lon="20.27078">
        <ele>270.371863</ele>
        <time>2022-05-01T11:28:37.558Z</time>
      </trkpt>
      <trkpt lat="41.17957" lon="20.27069">
        <ele>271.292212</ele>
        <time>2022-05-01T11:28:43.540Z</time>
      </trkpt>
      <trkpt lat="41.17951" lon="20.27058">
        <ele>272.339081</ele>
        <time>2022-05-01T11:28:49.564Z</time>
      </trkpt>
      <trkpt lat="41.17946" lon="20.27047">
        <ele>273.307067</ele>
        <time>2022-05-01T11:28:55.554Z</time>
      </trkpt>
      <trkpt lat="41.17941" lon="20.27037">
        <ele>274.247244</ele>
        <time>2022-05-01T11:29:01.566Z</time>
      </trkpt>
      <trkpt lat="41.17936" lon="20.27026">
        <ele>275.188524</ele>
        <time>2022-05-01T11:29:07.569Z</time>
      </trkpt>
      <trkpt lat="41.17931" lon="20.27015">
        <ele>276.145642</ele>
        <time>2022-05-01T11:29:13.565Z</time>
      </trkpt>
      <trkpt lat="41.17927" lon="20.27004">
        <ele>277.108339</ele>
        <time>2022-05-01T11:29:19.544Z</time>
      </trkpt>
      <trkpt lat="41.17922" lon="20.26993">
        <ele>278.049051</ele>
        <time>2022-05-01T11:29:25.535Z</time>
      </trkpt>
      <trkpt lat="41.17918" lon="20.26982">
        <ele>278.996595</ele>
        <time>2022-05-01T11:29:31.549Z</time>
      </trkpt>
      <trkpt lat="41.17913" lon="20.2697">
        <ele>280.029636</ele>
        <time>2022-05-01T11:29:37.558Z</time>
      </trkpt>
      <trkpt lat="41.1791" lon="20.26958">
        <ele>281.018692</ele>
        <time>2022-05-01T11:29:45.552Z</time>
      </trkpt>
      <trkpt lat="41.17907" lon="20.26945">
        <ele>282.0128</ele>
        <time>2022-05-01T11:29:52.550Z</time>
      </trkpt>
      <trkpt lat="41.17904" lon="20.26933">
        <ele>282.990405</ele>
        <time>2022-05-01T11:29:58.554Z</time>
      </trkpt>
      <trkpt lat="41.17899" lon="20.26921">
        <ele>284.005544</ele>
        <time>2022-05-01T11:30:05.548Z</time>
      </trkpt>
      <trkpt lat="41.17896" lon="20.26908">
        <ele>284.883397</ele>
        <time>2022-05-01T11:30:12.549Z</time>
      </trkpt>
      <trkpt lat="41.17893" lon="20.26896">
        <ele>285.303061</ele>
        <time>2022-05-01T11:30:18.558Z</time>
      </trkpt>
      <trkpt lat="41.17891" lon="20.26884">
        <ele>285.743981</ele>
        <time>2022-05-01T11:30:24.557Z</time>
      </trkpt>
      <trkpt lat="41.17888" lon="20.26873">
        <ele>286.180512</ele>
        <time>2022-05-01T11:30:30.577Z</time>
      </trkpt>
      <trkpt lat="41.17884" lon="20.2686">
        <ele>286.663784</ele>
        <time>2022-05-01T11:30:37.575Z</time>
      </trkpt>
      <trkpt lat="41.17882" lon="20.26847">
        <ele>287.146313</ele>
        <time>2022-05-01T11:30:44.556Z</time>
      </trkpt>
      <trkpt lat="41.17879" lon="20.26835">
        <ele>287.576776</ele>
        <time>2022-05-01T11:30:50.551Z</time>
      </trkpt>
      <trkpt lat="41.17877" lon="20.26821">
        <ele>288.064349</ele>
        <time>2022-05-01T11:30:57.540Z</time>
      </trkpt>
      <trkpt lat="41.17876" lon="20.26809">
        <ele>288.500909</ele>
        <time>2022-05-01T11:31:03.555Z</time>
      </trkpt>
      <trkpt lat="41.17874" lon="20.26796">
        <ele>288.959042</ele>
        <time>2022-05-01T11:31:09.560Z</time>
      </trkpt>
      <trkpt lat="41.17873" lon="20.26783">
        <ele>289.409703</ele>
        <time>2022-05-01T11:31:15.566Z</time>
      </trkpt>
      <trkpt lat="41.17873" lon="20.26771">
        <ele>289.842024</ele>
        <time>2022-05-01T11:31:21.553Z</time>
      </trkpt>
      <trkpt lat="41.17872" lon="20.26759">
        <ele>290.269473</ele>
        <time>2022-05-01T11:31:27.546Z</time>
      </trkpt>
      <trkpt lat="41.1787" lon="20.26745">
        <ele>290.764265</ele>
        <time>2022-05-01T11:31:33.574Z</time>
      </trkpt>
      <trkpt lat="41.1787" lon="20.26731">
        <ele>291.256233</ele>
        <time>2022-05-01T11:31:39.562Z</time>
      </trkpt>
      <trkpt lat="41.17869" lon="20.26719">
        <ele>291.67571</ele>
        <time>2022-05-01T11:31:45.565Z</time>
      </trkpt>
      <trkpt lat="41.17868" lon="20.26706">
        <ele>292.12521</ele>
        <time>2022-05-01T11:31:51.564Z</time>
      </trkpt>
      <trkpt lat="41.17867" lon="20.26693">
        <ele>292.595055</ele>
        <time>2022-05-01T11:31:57.560Z</time>
      </trkpt>
      <trkpt lat="41.17867" lon="20.2668">
        <ele>293.041897</ele>
        <time>2022-05-01T11:32:02.563Z</time>
      </trkpt>
      <trkpt lat="41.17865" lon="20.26667">
        <ele>293.22263</ele>
        <time>2022-05-01T11:32:07.558Z</time>
      </trkpt>
      <trkpt lat="41.17864" lon="20.26654">
        <ele>293.313716</ele>
        <time>2022-05-01T11:32:12.561Z</time>
      </trkpt>
      <trkpt lat="41.17863" lon="20.26639">
        <ele>293.41838</ele>
        <time>2022-05-01T11:32:17.550Z</time>
      </trkpt>
      <trkpt lat="41.17861" lon="20.26627">
        <ele>293.503751</ele>
        <time>2022-05-01T11:32:21.539Z</time>
      </trkpt>
      <trkpt lat="41.17859" lon="20.26614">
        <ele>293.597047</ele>
        <time>2022-05-01T11:32:25.538Z</time>
      </trkpt>
      <trkpt lat="41.17855" lon="20.26601">
        <ele>293.693614</ele>
        <time>2022-05-01T11:32:29.568Z</time>
      </trkpt>
      <trkpt lat="41.17853" lon="20.26587">
        <ele>293.792507</ele>
        <time>2022-05-01T11:32:33.541Z</time>
      </trkpt>
      <trkpt lat="41.1785" lon="20.26575">
        <ele>293.879964</ele>
        <time>2022-05-01T11:32:36.588Z</time>
      </trkpt>
      <trkpt lat="41.17848" lon="20.26561">
        <ele>293.97841</ele>
        <time>2022-05-01T11:32:39.557Z</time>
      </trkpt>
      <trkpt lat="41.17844" lon="20.26546">
        <ele>294.091051</ele>
        <time>2022-05-01T11:32:42.541Z</time>
      </trkpt>
      <trkpt lat="41.1784" lon="20.26528">
        <ele>294.217047</ele>
        <time>2022-05-01T11:32:45.550Z</time>
      </trkpt>
      <trkpt lat="41.17837" lon="20.26516">
        <ele>294.306354</ele>
        <time>2022-05-01T11:32:47.575Z</time>
      </trkpt>
      <trkpt lat="41.17833" lon="20.26503">
        <ele>294.402101</ele>
        <time>2022-05-01T11:32:49.549Z</time>
      </trkpt>
      <trkpt lat="41.17829" lon="20.2649">
        <ele>294.501437</ele>
        <time>2022-05-01T11:32:51.549Z</time>
      </trkpt>
      <trkpt lat="41.17824" lon="20.26477">
        <ele>294.602896</ele>
        <time>2022-05-01T11:32:53.590Z</time>
      </trkpt>
      <trkpt lat="41.1782" lon="20.26463">
        <ele>294.710485</ele>
        <time>2022-05-01T11:32:55.565Z</time>
      </trkpt>
      <trkpt lat="41.17815" lon="20.26448">
        <ele>294.752455</ele>
        <time>2022-05-01T11:32:57.552Z</time>
      </trkpt>
      <trkpt lat="41.1781" lon="20.26432">
        <ele>294.128564</ele>
        <time>2022-05-01T11:32:59.543Z</time>
      </trkpt>
      <trkpt lat="41.17803" lon="20.26414">
        <ele>293.407341</ele>
        <time>2022-05-01T11:33:01.557Z</time>
      </trkpt>
      <trkpt lat="41.17796" lon="20.26396">
        <ele>292.631539</ele>
        <time>2022-05-01T11:33:03.543Z</time>
      </trkpt>
      <trkpt lat="41.17787" lon="20.26375">
        <ele>291.778884</ele>
        <time>2022-05-01T11:33:05.559Z</time>
      </trkpt>
      <trkpt lat="41.17782" lon="20.26365">
        <ele>291.324533</ele>
        <time>2022-05-01T11:33:06.554Z</time>
      </trkpt>
      <trkpt lat="41.17777" lon="20.26354">
        <ele>290.858786</ele>
        <time>2022-05-01T11:33:07.567Z</time>
      </trkpt>
      <trkpt lat="41.17771" lon="20.26343">
        <ele>290.369768</ele>
        <time>2022-05-01T11:33:08.563Z</time>
      </trkpt>
      <trkpt lat="41.17766" lon="20.26331">
        <ele>289.85088</ele>
        <time>2022-05-01T11:33:09.558Z</time>
      </trkpt>
      <trkpt lat="41.17759" lon="20.26319">
        <ele>289.315865</ele>
        <time>2022-05-01T11:33:10.579Z</time>
      </trkpt>
      <trkpt lat="41.17752" lon="20.26307">
        <ele>288.775207</ele>
        <time>2022-05-01T11:33:11.532Z</time>
      </trkpt>
      <trkpt lat="41.17745" lon="20.26296">
        <ele>288.225392</ele>
        <time>2022-05-01T11:33:12.549Z</time>
      </trkpt>
      <trkpt lat="41.17738" lon="20.26285">
        <ele>287.686372</ele>
        <time>2022-05-01T11:33:13.538Z</time>
      </trkpt>
      <trkpt lat="41.17731" lon="20.26274">
        <ele>287.163675</ele>
        <time>2022-05-01T11:33:14.557Z</time>
      </trkpt>
      <trkpt lat="41.17724" lon="20.26264">
        <ele>286.662175</ele>
        <time>2022-05-01T11:33:15.556Z</time>
      </trkpt>
      <trkpt lat="41.17717" lon="20.26254">
        <ele>286.180115</ele>
        <time>2022-05-01T11:33:16.557Z</time>
      </trkpt>
      <trkpt lat="41.17711" lon="20.26245">
        <ele>285.609904</ele>
        <time>2022-05-01T11:33:17.565Z</time>
      </trkpt>
      <trkpt lat="41.17704" lon="20.26235">
        <ele>284.995216</ele>
        <time>2022-05-01T11:33:18.557Z</time>
      </trkpt>
      <trkpt lat="41.17698" lon="20.26224">
        <ele>284.347424</ele>
        <time>2022-05-01T11:33:19.540Z</time>
      </trkpt>
      <trkpt lat="41.17691" lon="20.26213">
        <ele>283.673226</ele>
        <time>2022-05-01T11:33:20.541Z</time>
      </trkpt>
      <trkpt lat="41.17684" lon="20.26202">
        <ele>282.997839</ele>
        <time>2022-05-01T11:33:21.539Z</time>
      </trkpt>
      <trkpt lat="41.17677" lon="20.2619">
        <ele>282.296369</ele>
        <time>2022-05-01T11:33:22.539Z</time>
      </trkpt>
      <trkpt lat="41.1767" lon="20.26178">
        <ele>281.569516</ele>
        <time>2022-05-01T11:33:23.553Z</time>
      </trkpt>
      <trkpt lat="41.17662" lon="20.26166">
        <ele>280.815413</ele>
        <time>2022-05-01T11:33:24.554Z</time>
      </trkpt>
      <trkpt lat="41.17654" lon="20.26154">
        <ele>280.057569</ele>
        <time>2022-05-01T11:33:25.548Z</time>
      </trkpt>
      <trkpt lat="41.17646" lon="20.26142">
        <ele>279.304006</ele>
        <time>2022-05-01T11:33:26.550Z</time>
      </trkpt>
      <trkpt lat="41.17637" lon="20.26131">
        <ele>278.554296</ele>
        <time>2022-05-01T11:33:27.548Z</time>
      </trkpt>
      <trkpt lat="41.17629" lon="20.2612">
        <ele>277.78983</ele>
        <time>2022-05-01T11:33:28.547Z</time>
      </trkpt>
      <trkpt lat="41.17619" lon="20.26108">
        <ele>276.984975</ele>
        <time>2022-05-01T11:33:29.572Z</time>
      </trkpt>
      <trkpt lat="41.17609" lon="20.26097">
        <ele>276.169247</ele>
        <time>2022-05-01T11:33:30.552Z</time>
      </trkpt>
      <trkpt lat="41.17599" lon="20.26086">
        <ele>275.348376</ele>
        <time>2022-05-01T11:33:31.550Z</time>
      </trkpt>
      <trkpt lat="41.17589" lon="20.26075">
        <ele>274.563389</ele>
        <time>2022-05-01T11:33:32.558Z</time>
      </trkpt>
      <trkpt lat="41.17579" lon="20.26064">
        <ele>273.814271</ele>
        <time>2022-05-01T11:33:33.541Z</time>
      </trkpt>
      <trkpt lat="41.1757" lon="20.26053">
        <ele>273.079719</ele>
        <time>2022-05-01T11:33:34.557Z</time>
      </trkpt>
      <trkpt lat="41.1756" lon="20.26043">
        <ele>272.365313</ele>
        <time>2022-05-01T11:33:35.551Z</time>
      </trkpt>
      <trkpt lat="41.17551" lon="20.26033">
        <ele>271.671641</ele>
        <time>2022-05-01T11:33:36.563Z</time>
      </trkpt>
      <trkpt lat="41.17542" lon="20.26023">
        <ele>270.983592</ele>
        <time>2022-05-01T11:33:37.582Z</time>
      </trkpt>
      <trkpt lat="41.17533" lon="20.26013">
        <ele>270.302828</ele>
        <time>2022-05-01T11:33:38.555Z</time>
      </trkpt>
      <trkpt lat="41.17524" lon="20.26003">
        <ele>269.641104</ele>
        <time>2022-05-01T11:33:39.553Z</time>
      </trkpt>
      <trkpt lat="41.17516" lon="20.25994">
        <ele>268.992672</ele>
        <time>2022-05-01T11:33:40.536Z</time>
      </trkpt>
      <trkpt lat="41.17507" lon="20.25984">
        <ele>268.348326</ele>
        <time>2022-05-01T11:33:41.556Z</time>
      </trkpt>
      <trkpt lat="41.17499" lon="20.25975">
        <ele>267.714061</ele>
        <time>2022-05-01T11:33:42.549Z</time>
      </trkpt>
      <trkpt lat="41.17491" lon="20.25966">
        <ele>267.091564</ele>
        <time>2022-05-01T11:33:43.554Z</time>
      </trkpt>
      <trkpt lat="41.17483" lon="20.25957">
        <ele>266.477418</ele>
        <time>2022-05-01T11:33:44.553Z</time>
      </trkpt>
      <trkpt lat="41.17475" lon="20.25948">
        <ele>265.875078</ele>
        <time>2022-05-01T11:33:45.557Z</time>
      </trkpt>
      <trkpt lat="41.17467" lon="20.2594">
        <ele>265.272739</ele>
        <time>2022-05-01T11:33:46.547Z</time>
      </trkpt>
      <trkpt lat="41.17459" lon="20.25932">
        <ele>264.686712</ele>
        <time>2022-05-01T11:33:47.564Z</time>
      </trkpt>
      <trkpt lat="41.1745" lon="20.25925">
        <ele>264.30188</ele>
        <time>2022-05-01T11:33:48.598Z</time>
      </trkpt>
      <trkpt lat="41.17442" lon="20.25919">
        <ele>264.225694</ele>
        <time>2022-05-01T11:33:49.548Z</time>
      </trkpt>
      <trkpt lat="41.17434" lon="20.25914">
        <ele>264.154676</ele>
        <time>2022-05-01T11:33:50.588Z</time>
      </trkpt>
      <trkpt lat="41.17418" lon="20.25906">
        <ele>264.021056</ele>
        <time>2022-05-01T11:33:52.545Z</time>
      </trkpt>
      <trkpt lat="41.17404" lon="20.25901">
        <ele>263.906791</ele>
        <time>2022-05-01T11:33:54.563Z</time>
      </trkpt>
      <trkpt lat="41.17392" lon="20.25895">
        <ele>263.806392</ele>
        <time>2022-05-01T11:33:56.568Z</time>
      </trkpt>
      <trkpt lat="41.17381" lon="20.25888">
        <ele>263.70923</ele>
        <time>2022-05-01T11:33:58.570Z</time>
      </trkpt>
      <trkpt lat="41.1737" lon="20.2588">
        <ele>263.61757</ele>
        <time>2022-05-01T11:34:00.555Z</time>
      </trkpt>
      <trkpt lat="41.1736" lon="20.25871">
        <ele>263.520859</ele>
        <time>2022-05-01T11:34:02.539Z</time>
      </trkpt>
      <trkpt lat="41.1735" lon="20.25862">
        <ele>263.425128</ele>
        <time>2022-05-01T11:34:04.561Z</time>
      </trkpt>
      <trkpt lat="41.17339" lon="20.25853">
        <ele>263.32411</ele>
        <time>2022-05-01T11:34:06.559Z</time>
      </trkpt>
      <trkpt lat="41.17328" lon="20.25843">
        <ele>263.215265</ele>
        <time>2022-05-01T11:34:08.560Z</time>
      </trkpt>
      <trkpt lat="41.17315" lon="20.25833">
        <ele>263.101827</ele>
        <time>2022-05-01T11:34:10.543Z</time>
      </trkpt>
      <trkpt lat="41.17303" lon="20.25822">
        <ele>262.986732</ele>
        <time>2022-05-01T11:34:12.586Z</time>
      </trkpt>
      <trkpt lat="41.17291" lon="20.2581">
        <ele>262.752862</ele>
        <time>2022-05-01T11:34:14.569Z</time>
      </trkpt>
      <trkpt lat="41.17278" lon="20.25797">
        <ele>262.350256</ele>
        <time>2022-05-01T11:34:16.570Z</time>
      </trkpt>
      <trkpt lat="41.17266" lon="20.25783">
        <ele>261.930684</ele>
        <time>2022-05-01T11:34:18.590Z</time>
      </trkpt>
      <trkpt lat="41.17254" lon="20.25765">
        <ele>261.467281</ele>
        <time>2022-05-01T11:34:20.539Z</time>
      </trkpt>
      <trkpt lat="41.17248" lon="20.25755">
        <ele>261.230907</ele>
        <time>2022-05-01T11:34:21.548Z</time>
      </trkpt>
      <trkpt lat="41.17243" lon="20.25745">
        <ele>260.993022</ele>
        <time>2022-05-01T11:34:22.551Z</time>
      </trkpt>
      <trkpt lat="41.17238" lon="20.25735">
        <ele>260.75468</ele>
        <time>2022-05-01T11:34:23.550Z</time>
      </trkpt>
      <trkpt lat="41.17233" lon="20.25724">
        <ele>260.509241</ele>
        <time>2022-05-01T11:34:24.550Z</time>
      </trkpt>
      <trkpt lat="41.17228" lon="20.25712">
        <ele>260.252366</ele>
        <time>2022-05-01T11:34:25.558Z</time>
      </trkpt>
      <trkpt lat="41.17224" lon="20.25699">
        <ele>259.98913</ele>
        <time>2022-05-01T11:34:26.551Z</time>
      </trkpt>
      <trkpt lat="41.17219" lon="20.25686">
        <ele>259.709415</ele>
        <time>2022-05-01T11:34:27.543Z</time>
      </trkpt>
      <trkpt lat="41.17215" lon="20.25672">
        <ele>259.425363</ele>
        <time>2022-05-01T11:34:28.558Z</time>
      </trkpt>
      <trkpt lat="41.17211" lon="20.25658">
        <ele>259.136791</ele>
        <time>2022-05-01T11:34:29.578Z</time>
      </trkpt>
      <trkpt lat="41.17207" lon="20.25644">
        <ele>258.85096</ele>
        <time>2022-05-01T11:34:30.563Z</time>
      </trkpt>
      <trkpt lat="41.17203" lon="20.2563">
        <ele>258.558918</ele>
        <time>2022-05-01T11:34:31.555Z</time>
      </trkpt>
      <trkpt lat="41.17198" lon="20.25616">
        <ele>258.236791</ele>
        <time>2022-05-01T11:34:32.559Z</time>
      </trkpt>
      <trkpt lat="41.17194" lon="20.25602">
        <ele>257.801099</ele>
        <time>2022-05-01T11:34:33.543Z</time>
      </trkpt>
      <trkpt lat="41.17189" lon="20.25587">
        <ele>257.365406</ele>
        <time>2022-05-01T11:34:34.572Z</time>
      </trkpt>
      <trkpt lat="41.17184" lon="20.25573">
        <ele>256.940245</ele>
        <time>2022-05-01T11:34:35.554Z</time>
      </trkpt>
      <trkpt lat="41.17179" lon="20.2556">
        <ele>256.52585</ele>
        <time>2022-05-01T11:34:36.560Z</time>
      </trkpt>
      <trkpt lat="41.17173" lon="20.25546">
        <ele>256.104634</ele>
        <time>2022-05-01T11:34:37.546Z</time>
      </trkpt>
      <trkpt lat="41.17168" lon="20.25533">
        <ele>255.68226</ele>
        <time>2022-05-01T11:34:38.554Z</time>
      </trkpt>
      <trkpt lat="41.17162" lon="20.2552">
        <ele>255.264672</ele>
        <time>2022-05-01T11:34:39.558Z</time>
      </trkpt>
      <trkpt lat="41.17156" lon="20.25507">
        <ele>254.846179</ele>
        <time>2022-05-01T11:34:40.579Z</time>
      </trkpt>
      <trkpt lat="41.1715" lon="20.25494">
        <ele>254.434705</ele>
        <time>2022-05-01T11:34:41.554Z</time>
      </trkpt>
      <trkpt lat="41.17144" lon="20.25482">
        <ele>254.025561</ele>
        <time>2022-05-01T11:34:42.542Z</time>
      </trkpt>
      <trkpt lat="41.17138" lon="20.25469">
        <ele>253.605127</ele>
        <time>2022-05-01T11:34:43.566Z</time>
      </trkpt>
      <trkpt lat="41.17131" lon="20.25456">
        <ele>253.180748</ele>
        <time>2022-05-01T11:34:44.555Z</time>
      </trkpt>
      <trkpt lat="41.17125" lon="20.25443">
        <ele>252.752743</ele>
        <time>2022-05-01T11:34:45.568Z</time>
      </trkpt>
      <trkpt lat="41.17118" lon="20.25431">
        <ele>252.331507</ele>
        <time>2022-05-01T11:34:46.550Z</time>
      </trkpt>
      <trkpt lat="41.1711" lon="20.2542">
        <ele>251.922298</ele>
        <time>2022-05-01T11:34:47.548Z</time>
      </trkpt>
      <trkpt lat="41.17102" lon="20.2541">
        <ele>251.524041</ele>
        <time>2022-05-01T11:34:48.556Z</time>
      </trkpt>
      <trkpt lat="41.17093" lon="20.25402">
        <ele>251.137662</ele>
        <time>2022-05-01T11:34:49.550Z</time>
      </trkpt>
      <trkpt lat="41.17083" lon="20.25394">
        <ele>250.749611</ele>
        <time>2022-05-01T11:34:50.551Z</time>
      </trkpt>
      <trkpt lat="41.17072" lon="20.25388">
        <ele>250.34073</ele>
        <time>2022-05-01T11:34:51.585Z</time>
      </trkpt>
      <trkpt lat="41.17062" lon="20.25382">
        <ele>249.952907</ele>
        <time>2022-05-01T11:34:52.546Z</time>
      </trkpt>
      <trkpt lat="41.17052" lon="20.25376">
        <ele>249.561309</ele>
        <time>2022-05-01T11:34:53.565Z</time>
      </trkpt>
      <trkpt lat="41.17041" lon="20.25371">
        <ele>249.167374</ele>
        <time>2022-05-01T11:34:54.577Z</time>
      </trkpt>
      <trkpt lat="41.1703" lon="20.25366">
        <ele>248.770689</ele>
        <time>2022-05-01T11:34:55.557Z</time>
      </trkpt>
      <trkpt lat="41.1702" lon="20.2536">
        <ele>248.37332</ele>
        <time>2022-05-01T11:34:56.556Z</time>
      </trkpt>
      <trkpt lat="41.17009" lon="20.25353">
        <ele>247.976792</ele>
        <time>2022-05-01T11:34:57.553Z</time>
      </trkpt>
      <trkpt lat="41.16999" lon="20.25345">
        <ele>247.580143</ele>
        <time>2022-05-01T11:34:58.538Z</time>
      </trkpt>
      <trkpt lat="41.1699" lon="20.25337">
        <ele>247.181035</ele>
        <time>2022-05-01T11:34:59.560Z</time>
      </trkpt>
      <trkpt lat="41.16982" lon="20.25326">
        <ele>246.785439</ele>
        <time>2022-05-01T11:35:00.549Z</time>
      </trkpt>
      <trkpt lat="41.16975" lon="20.25313">
        <ele>246.373562</ele>
        <time>2022-05-01T11:35:01.552Z</time>
      </trkpt>
      <trkpt lat="41.16969" lon="20.25299">
        <ele>245.954841</ele>
        <time>2022-05-01T11:35:02.591Z</time>
      </trkpt>
      <trkpt lat="41.16966" lon="20.25283">
        <ele>245.536154</ele>
        <time>2022-05-01T11:35:03.569Z</time>
      </trkpt>
      <trkpt lat="41.16964" lon="20.25268">
        <ele>245.613787</ele>
        <time>2022-05-01T11:35:04.557Z</time>
      </trkpt>
      <trkpt lat="41.16962" lon="20.25254">
        <ele>245.715502</ele>
        <time>2022-05-01T11:35:05.551Z</time>
      </trkpt>
      <trkpt lat="41.1696" lon="20.2524">
        <ele>245.812366</ele>
        <time>2022-05-01T11:35:06.554Z</time>
      </trkpt>
      <trkpt lat="41.16958" lon="20.25226">
        <ele>245.905974</ele>
        <time>2022-05-01T11:35:07.559Z</time>
      </trkpt>
      <trkpt lat="41.16956" lon="20.25214">
        <ele>245.993144</ele>
        <time>2022-05-01T11:35:08.546Z</time>
      </trkpt>
      <trkpt lat="41.16953" lon="20.25192">
        <ele>246.146412</ele>
        <time>2022-05-01T11:35:10.573Z</time>
      </trkpt>
      <trkpt lat="41.16948" lon="20.25175">
        <ele>246.273756</ele>
        <time>2022-05-01T11:35:12.568Z</time>
      </trkpt>
      <trkpt lat="41.16943" lon="20.25161">
        <ele>246.37824</ele>
        <time>2022-05-01T11:35:14.555Z</time>
      </trkpt>
      <trkpt lat="41.16938" lon="20.25151">
        <ele>246.463452</ele>
        <time>2022-05-01T11:35:16.545Z</time>
      </trkpt>
      <trkpt lat="41.16929" lon="20.2514">
        <ele>246.571874</ele>
        <time>2022-05-01T11:35:19.615Z</time>
      </trkpt>
      <trkpt lat="41.16921" lon="20.25131">
        <ele>246.669345</ele>
        <time>2022-05-01T11:35:22.565Z</time>
      </trkpt>
      <trkpt lat="41.16914" lon="20.25124">
        <ele>246.752476</ele>
        <time>2022-05-01T11:35:25.564Z</time>
      </trkpt>
      <trkpt lat="41.16904" lon="20.25116">
        <ele>246.853123</ele>
        <time>2022-05-01T11:35:29.552Z</time>
      </trkpt>
      <trkpt lat="41.16895" lon="20.2511">
        <ele>246.944964</ele>
        <time>2022-05-01T11:35:33.555Z</time>
      </trkpt>
      <trkpt lat="41.16886" lon="20.25104">
        <ele>247.039521</ele>
        <time>2022-05-01T11:35:37.557Z</time>
      </trkpt>
      <trkpt lat="41.16876" lon="20.25101">
        <ele>247.131502</ele>
        <time>2022-05-01T11:35:41.569Z</time>
      </trkpt>
      <trkpt lat="41.16866" lon="20.25097">
        <ele>247.627427</ele>
        <time>2022-05-01T11:35:46.550Z</time>
      </trkpt>
      <trkpt lat="41.16857" lon="20.25095">
        <ele>248.193842</ele>
        <time>2022-05-01T11:35:50.559Z</time>
      </trkpt>
      <trkpt lat="41.16848" lon="20.25093">
        <ele>248.782204</ele>
        <time>2022-05-01T11:35:54.552Z</time>
      </trkpt>
      <trkpt lat="41.16838" lon="20.25091">
        <ele>249.406767</ele>
        <time>2022-05-01T11:35:59.552Z</time>
      </trkpt>
      <trkpt lat="41.16828" lon="20.25088">
        <ele>250.014364</ele>
        <time>2022-05-01T11:36:04.591Z</time>
      </trkpt>
      <trkpt lat="41.16819" lon="20.25084">
        <ele>250.627009</ele>
        <time>2022-05-01T11:36:09.555Z</time>
      </trkpt>
      <trkpt lat="41.16811" lon="20.25078">
        <ele>251.241824</ele>
        <time>2022-05-01T11:36:14.549Z</time>
      </trkpt>
      <trkpt lat="41.16802" lon="20.25068">
        <ele>251.918864</ele>
        <time>2022-05-01T11:36:19.581Z</time>
      </trkpt>
      <trkpt lat="41.16796" lon="20.25057">
        <ele>252.571988</ele>
        <time>2022-05-01T11:36:23.543Z</time>
      </trkpt>
      <trkpt lat="41.16791" lon="20.25042">
        <ele>253.327834</ele>
        <time>2022-05-01T11:36:27.567Z</time>
      </trkpt>
      <trkpt lat="41.16789" lon="20.25028">
        <ele>254.041383</ele>
        <time>2022-05-01T11:36:30.552Z</time>
      </trkpt>
      <trkpt lat="41.16786" lon="20.25015">
        <ele>254.644096</ele>
        <time>2022-05-01T11:36:32.544Z</time>
      </trkpt>
      <trkpt lat="41.16784" lon="20.25001">
        <ele>255.315145</ele>
        <time>2022-05-01T11:36:34.546Z</time>
      </trkpt>
      <trkpt lat="41.16782" lon="20.24985">
        <ele>256.112778</ele>
        <time>2022-05-01T11:36:36.552Z</time>
      </trkpt>
      <trkpt lat="41.1678" lon="20.24966">
        <ele>257.008881</ele>
        <time>2022-05-01T11:36:38.560Z</time>
      </trkpt>
      <trkpt lat="41.16777" lon="20.24946">
        <ele>257.966367</ele>
        <time>2022-05-01T11:36:40.552Z</time>
      </trkpt>
      <trkpt lat="41.16772" lon="20.24925">
        <ele>258.172082</ele>
        <time>2022-05-01T11:36:42.557Z</time>
      </trkpt>
      <trkpt lat="41.16765" lon="20.24904">
        <ele>257.817729</ele>
        <time>2022-05-01T11:36:44.565Z</time>
      </trkpt>
      <trkpt lat="41.16758" lon="20.24883">
        <ele>257.450695</ele>
        <time>2022-05-01T11:36:46.567Z</time>
      </trkpt>
      <trkpt lat="41.16754" lon="20.24872">
        <ele>257.259632</ele>
        <time>2022-05-01T11:36:47.555Z</time>
      </trkpt>
      <trkpt lat="41.16751" lon="20.24861">
        <ele>257.062778</ele>
        <time>2022-05-01T11:36:48.556Z</time>
      </trkpt>
      <trkpt lat="41.16747" lon="20.2485">
        <ele>256.864002</ele>
        <time>2022-05-01T11:36:49.555Z</time>
      </trkpt>
      <trkpt lat="41.16744" lon="20.24838">
        <ele>256.660789</ele>
        <time>2022-05-01T11:36:50.575Z</time>
      </trkpt>
      <trkpt lat="41.1674" lon="20.24825">
        <ele>256.450881</ele>
        <time>2022-05-01T11:36:51.556Z</time>
      </trkpt>
      <trkpt lat="41.16737" lon="20.24812">
        <ele>256.236128</ele>
        <time>2022-05-01T11:36:52.550Z</time>
      </trkpt>
      <trkpt lat="41.16734" lon="20.24799">
        <ele>256.021988</ele>
        <time>2022-05-01T11:36:53.562Z</time>
      </trkpt>
      <trkpt lat="41.16731" lon="20.24787">
        <ele>255.813937</ele>
        <time>2022-05-01T11:36:54.540Z</time>
      </trkpt>
      <trkpt lat="41.16729" lon="20.24774">
        <ele>255.601527</ele>
        <time>2022-05-01T11:36:55.552Z</time>
      </trkpt>
      <trkpt lat="41.16727" lon="20.24761">
        <ele>255.38424</ele>
        <time>2022-05-01T11:36:56.576Z</time>
      </trkpt>
      <trkpt lat="41.16725" lon="20.24747">
        <ele>255.163035</ele>
        <time>2022-05-01T11:36:57.576Z</time>
      </trkpt>
      <trkpt lat="41.16724" lon="20.24733">
        <ele>254.935904</ele>
        <time>2022-05-01T11:36:58.554Z</time>
      </trkpt>
      <trkpt lat="41.16722" lon="20.24719">
        <ele>254.707203</ele>
        <time>2022-05-01T11:36:59.559Z</time>
      </trkpt>
      <trkpt lat="41.1672" lon="20.24704">
        <ele>254.364721</ele>
        <time>2022-05-01T11:37:00.558Z</time>
      </trkpt>
      <trkpt lat="41.16718" lon="20.2469">
        <ele>253.853847</ele>
        <time>2022-05-01T11:37:01.535Z</time>
      </trkpt>
      <trkpt lat="41.16716" lon="20.24675">
        <ele>253.33624</ele>
        <time>2022-05-01T11:37:02.555Z</time>
      </trkpt>
      <trkpt lat="41.16714" lon="20.2466">
        <ele>252.810018</ele>
        <time>2022-05-01T11:37:03.547Z</time>
      </trkpt>
      <trkpt lat="41.16712" lon="20.24644">
        <ele>252.273084</ele>
        <time>2022-05-01T11:37:04.592Z</time>
      </trkpt>
      <trkpt lat="41.16709" lon="20.24629">
        <ele>251.732319</ele>
        <time>2022-05-01T11:37:05.559Z</time>
      </trkpt>
      <trkpt lat="41.16706" lon="20.24614">
        <ele>251.22253</ele>
        <time>2022-05-01T11:37:06.599Z</time>
      </trkpt>
      <trkpt lat="41.16703" lon="20.246">
        <ele>250.71509</ele>
        <time>2022-05-01T11:37:07.580Z</time>
      </trkpt>
      <trkpt lat="41.16699" lon="20.24586">
        <ele>250.209137</ele>
        <time>2022-05-01T11:37:08.577Z</time>
      </trkpt>
      <trkpt lat="41.16696" lon="20.24572">
        <ele>249.696272</ele>
        <time>2022-05-01T11:37:09.551Z</time>
      </trkpt>
      <trkpt lat="41.16692" lon="20.24558">
        <ele>249.191293</ele>
        <time>2022-05-01T11:37:10.585Z</time>
      </trkpt>
      <trkpt lat="41.16689" lon="20.24544">
        <ele>248.680293</ele>
        <time>2022-05-01T11:37:11.574Z</time>
      </trkpt>
      <trkpt lat="41.16685" lon="20.2453">
        <ele>248.172542</ele>
        <time>2022-05-01T11:37:12.548Z</time>
      </trkpt>
      <trkpt lat="41.16682" lon="20.24515">
        <ele>247.66011</ele>
        <time>2022-05-01T11:37:13.549Z</time>
      </trkpt>
      <trkpt lat="41.16678" lon="20.24501">
        <ele>247.14621</ele>
        <time>2022-05-01T11:37:14.556Z</time>
      </trkpt>
      <trkpt lat="41.16674" lon="20.24487">
        <ele>246.62584</ele>
        <time>2022-05-01T11:37:15.555Z</time>
      </trkpt>
      <trkpt lat="41.16671" lon="20.24473">
        <ele>245.896043</ele>
        <time>2022-05-01T11:37:16.552Z</time>
      </trkpt>
      <trkpt lat="41.16666" lon="20.24459">
        <ele>244.990418</ele>
        <time>2022-05-01T11:37:17.560Z</time>
      </trkpt>
      <trkpt lat="41.16661" lon="20.24446">
        <ele>244.110774</ele>
        <time>2022-05-01T11:37:18.577Z</time>
      </trkpt>
      <trkpt lat="41.16655" lon="20.24434">
        <ele>243.265747</ele>
        <time>2022-05-01T11:37:19.549Z</time>
      </trkpt>
      <trkpt lat="41.16648" lon="20.24423">
        <ele>242.380528</ele>
        <time>2022-05-01T11:37:20.554Z</time>
      </trkpt>
      <trkpt lat="41.1664" lon="20.24414">
        <ele>241.527128</ele>
        <time>2022-05-01T11:37:21.554Z</time>
      </trkpt>
      <trkpt lat="41.16631" lon="20.24407">
        <ele>240.720015</ele>
        <time>2022-05-01T11:37:22.563Z</time>
      </trkpt>
      <trkpt lat="41.16622" lon="20.24401">
        <ele>239.901275</ele>
        <time>2022-05-01T11:37:23.543Z</time>
      </trkpt>
      <trkpt lat="41.16612" lon="20.24397">
        <ele>239.084071</ele>
        <time>2022-05-01T11:37:24.615Z</time>
      </trkpt>
      <trkpt lat="41.16602" lon="20.24395">
        <ele>238.2953</ele>
        <time>2022-05-01T11:37:25.569Z</time>
      </trkpt>
      <trkpt lat="41.16592" lon="20.24393">
        <ele>237.480425</ele>
        <time>2022-05-01T11:37:26.552Z</time>
      </trkpt>
      <trkpt lat="41.16582" lon="20.24391">
        <ele>236.66732</ele>
        <time>2022-05-01T11:37:27.567Z</time>
      </trkpt>
      <trkpt lat="41.16572" lon="20.24388">
        <ele>235.889756</ele>
        <time>2022-05-01T11:37:28.554Z</time>
      </trkpt>
      <trkpt lat="41.16563" lon="20.24385">
        <ele>235.14711</ele>
        <time>2022-05-01T11:37:29.557Z</time>
      </trkpt>
      <trkpt lat="41.16555" lon="20.24381">
        <ele>234.405854</ele>
        <time>2022-05-01T11:37:30.626Z</time>
      </trkpt>
      <trkpt lat="41.16546" lon="20.24373">
        <ele>233.599044</ele>
        <time>2022-05-01T11:37:31.548Z</time>
      </trkpt>
      <trkpt lat="41.16538" lon="20.24366">
        <ele>232.792234</ele>
        <time>2022-05-01T11:37:32.542Z</time>
      </trkpt>
      <trkpt lat="41.1653" lon="20.24358">
        <ele>232.028235</ele>
        <time>2022-05-01T11:37:33.599Z</time>
      </trkpt>
      <trkpt lat="41.16523" lon="20.24351">
        <ele>231.449592</ele>
        <time>2022-05-01T11:37:34.571Z</time>
      </trkpt>
      <trkpt lat="41.1651" lon="20.24335">
        <ele>230.324257</ele>
        <time>2022-05-01T11:37:36.550Z</time>
      </trkpt>
      <trkpt lat="41.16499" lon="20.24318">
        <ele>229.259575</ele>
        <time>2022-05-01T11:37:38.538Z</time>
      </trkpt>
      <trkpt lat="41.16491" lon="20.24301">
        <ele>228.270837</ele>
        <time>2022-05-01T11:37:40.554Z</time>
      </trkpt>
      <trkpt lat="41.16484" lon="20.24283">
        <ele>227.349824</ele>
        <time>2022-05-01T11:37:42.561Z</time>
      </trkpt>
      <trkpt lat="41.16479" lon="20.24267">
        <ele>226.485733</ele>
        <time>2022-05-01T11:37:44.560Z</time>
      </trkpt>
      <trkpt lat="41.16477" lon="20.24251">
        <ele>225.7255</ele>
        <time>2022-05-01T11:37:46.588Z</time>
      </trkpt>
      <trkpt lat="41.16476" lon="20.24238">
        <ele>225.066319</ele>
        <time>2022-05-01T11:37:48.567Z</time>
      </trkpt>
      <trkpt lat="41.16475" lon="20.2422">
        <ele>224.208582</ele>
        <time>2022-05-01T11:37:51.545Z</time>
      </trkpt>
      <trkpt lat="41.16475" lon="20.24207">
        <ele>223.605424</ele>
        <time>2022-05-01T11:37:53.555Z</time>
      </trkpt>
      <trkpt lat="41.16474" lon="20.24191">
        <ele>222.821628</ele>
        <time>2022-05-01T11:37:56.557Z</time>
      </trkpt>
      <trkpt lat="41.16476" lon="20.24174">
        <ele>222.017785</ele>
        <time>2022-05-01T11:37:59.548Z</time>
      </trkpt>
      <trkpt lat="41.16478" lon="20.24162">
        <ele>221.417472</ele>
        <time>2022-05-01T11:38:01.545Z</time>
      </trkpt>
      <trkpt lat="41.16479" lon="20.24149">
        <ele>220.774654</ele>
        <time>2022-05-01T11:38:03.595Z</time>
      </trkpt>
      <trkpt lat="41.16481" lon="20.24135">
        <ele>220.611705</ele>
        <time>2022-05-01T11:38:05.546Z</time>
      </trkpt>
      <trkpt lat="41.16484" lon="20.24121">
        <ele>220.654313</ele>
        <time>2022-05-01T11:38:07.615Z</time>
      </trkpt>
      <trkpt lat="41.16485" lon="20.24108">
        <ele>220.694702</ele>
        <time>2022-05-01T11:38:09.555Z</time>
      </trkpt>
      <trkpt lat="41.16487" lon="20.24095">
        <ele>220.734139</ele>
        <time>2022-05-01T11:38:11.560Z</time>
      </trkpt>
      <trkpt lat="41.16488" lon="20.24082">
        <ele>220.773218</ele>
        <time>2022-05-01T11:38:13.549Z</time>
      </trkpt>
      <trkpt lat="41.16489" lon="20.24066">
        <ele>220.820847</ele>
        <time>2022-05-01T11:38:16.549Z</time>
      </trkpt>
      <trkpt lat="41.16489" lon="20.24052">
        <ele>220.864324</ele>
        <time>2022-05-01T11:38:19.584Z</time>
      </trkpt>
      <trkpt lat="41.1649" lon="20.24035">
        <ele>220.912832</ele>
        <time>2022-05-01T11:38:22.554Z</time>
      </trkpt>
      <trkpt lat="41.16489" lon="20.24018">
        <ele>220.966195</ele>
        <time>2022-05-01T11:38:25.548Z</time>
      </trkpt>
      <trkpt lat="41.16489" lon="20.24004">
        <ele>221.005717</ele>
        <time>2022-05-01T11:38:27.628Z</time>
      </trkpt>
      <trkpt lat="41.16489" lon="20.23991">
        <ele>221.047049</ele>
        <time>2022-05-01T11:38:29.549Z</time>
      </trkpt>
      <trkpt lat="41.16491" lon="20.23976">
        <ele>221.09102</ele>
        <time>2022-05-01T11:38:31.554Z</time>
      </trkpt>
      <trkpt lat="41.16493" lon="20.2396">
        <ele>221.138692</ele>
        <time>2022-05-01T11:38:33.606Z</time>
      </trkpt>
      <trkpt lat="41.16496" lon="20.23944">
        <ele>221.189663</ele>
        <time>2022-05-01T11:38:35.562Z</time>
      </trkpt>
      <trkpt lat="41.16501" lon="20.23928">
        <ele>221.241223</ele>
        <time>2022-05-01T11:38:37.549Z</time>
      </trkpt>
      <trkpt lat="41.16506" lon="20.23913">
        <ele>221.290664</ele>
        <time>2022-05-01T11:38:39.570Z</time>
      </trkpt>
      <trkpt lat="41.16511" lon="20.23896">
        <ele>221.69003</ele>
        <time>2022-05-01T11:38:41.548Z</time>
      </trkpt>
      <trkpt lat="41.16517" lon="20.2388">
        <ele>222.153912</ele>
        <time>2022-05-01T11:38:43.562Z</time>
      </trkpt>
      <trkpt lat="41.16524" lon="20.23862">
        <ele>222.657087</ele>
        <time>2022-05-01T11:38:45.542Z</time>
      </trkpt>
      <trkpt lat="41.16531" lon="20.23844">
        <ele>223.163789</ele>
        <time>2022-05-01T11:38:47.586Z</time>
      </trkpt>
      <trkpt lat="41.1654" lon="20.23829">
        <ele>223.636199</ele>
        <time>2022-05-01T11:38:49.579Z</time>
      </trkpt>
      <trkpt lat="41.16548" lon="20.23815">
        <ele>224.070882</ele>
        <time>2022-05-01T11:38:51.555Z</time>
      </trkpt>
      <trkpt lat="41.16556" lon="20.23802">
        <ele>224.498026</ele>
        <time>2022-05-01T11:38:53.560Z</time>
      </trkpt>
      <trkpt lat="41.16564" lon="20.23789">
        <ele>224.900807</ele>
        <time>2022-05-01T11:38:55.561Z</time>
      </trkpt>
      <trkpt lat="41.1657" lon="20.23777">
        <ele>225.266173</ele>
        <time>2022-05-01T11:38:57.537Z</time>
      </trkpt>
      <trkpt lat="41.16576" lon="20.23764">
        <ele>225.643158</ele>
        <time>2022-05-01T11:38:59.536Z</time>
      </trkpt>
      <trkpt lat="41.16581" lon="20.23751">
        <ele>226.012609</ele>
        <time>2022-05-01T11:39:01.551Z</time>
      </trkpt>
      <trkpt lat="41.16585" lon="20.23739">
        <ele>226.338154</ele>
        <time>2022-05-01T11:39:03.554Z</time>
      </trkpt>
      <trkpt lat="41.1659" lon="20.23724">
        <ele>226.745118</ele>
        <time>2022-05-01T11:39:06.547Z</time>
      </trkpt>
      <trkpt lat="41.16594" lon="20.2371">
        <ele>227.136524</ele>
        <time>2022-05-01T11:39:09.599Z</time>
      </trkpt>
      <trkpt lat="41.16598" lon="20.23696">
        <ele>227.476821</ele>
        <time>2022-05-01T11:39:12.544Z</time>
      </trkpt>
      <trkpt lat="41.16601" lon="20.23684">
        <ele>227.761335</ele>
        <time>2022-05-01T11:39:15.532Z</time>
      </trkpt>
      <trkpt lat="41.16603" lon="20.23671">
        <ele>228.058063</ele>
        <time>2022-05-01T11:39:19.560Z</time>
      </trkpt>
      <trkpt lat="41.16605" lon="20.23659">
        <ele>228.331143</ele>
        <time>2022-05-01T11:39:23.559Z</time>
      </trkpt>
      <trkpt lat="41.16607" lon="20.23646">
        <ele>228.614849</ele>
        <time>2022-05-01T11:39:28.557Z</time>
      </trkpt>
      <trkpt lat="41.1661" lon="20.23634">
        <ele>228.893394</ele>
        <time>2022-05-01T11:39:33.554Z</time>
      </trkpt>
      <trkpt lat="41.16613" lon="20.23622">
        <ele>229.185725</ele>
        <time>2022-05-01T11:39:38.555Z</time>
      </trkpt>
      <trkpt lat="41.16616" lon="20.2361">
        <ele>229.454885</ele>
        <time>2022-05-01T11:39:43.555Z</time>
      </trkpt>
      <trkpt lat="41.16618" lon="20.23597">
        <ele>229.769521</ele>
        <time>2022-05-01T11:39:49.607Z</time>
      </trkpt>
      <trkpt lat="41.1662" lon="20.23585">
        <ele>230.041444</ele>
        <time>2022-05-01T11:39:54.556Z</time>
      </trkpt>
      <trkpt lat="41.16623" lon="20.23572">
        <ele>230.346029</ele>
        <time>2022-05-01T11:39:59.596Z</time>
      </trkpt>
      <trkpt lat="41.16626" lon="20.23557">
        <ele>230.670126</ele>
        <time>2022-05-01T11:40:04.554Z</time>
      </trkpt>
      <trkpt lat="41.16627" lon="20.23544">
        <ele>230.968865</ele>
        <time>2022-05-01T11:40:09.557Z</time>
      </trkpt>
      <trkpt lat="41.16629" lon="20.23531">
        <ele>231.263949</ele>
        <time>2022-05-01T11:40:13.554Z</time>
      </trkpt>
      <trkpt lat="41.16631" lon="20.23517">
        <ele>231.58026</ele>
        <time>2022-05-01T11:40:17.557Z</time>
      </trkpt>
      <trkpt lat="41.16633" lon="20.23503">
        <ele>231.889</ele>
        <time>2022-05-01T11:40:20.568Z</time>
      </trkpt>
      <trkpt lat="41.16635" lon="20.23488">
        <ele>232.233147</ele>
        <time>2022-05-01T11:40:23.555Z</time>
      </trkpt>
      <trkpt lat="41.16637" lon="20.23471">
        <ele>232.557072</ele>
        <time>2022-05-01T11:40:26.539Z</time>
      </trkpt>
      <trkpt lat="41.16639" lon="20.23454">
        <ele>232.362444</ele>
        <time>2022-05-01T11:40:29.562Z</time>
      </trkpt>
      <trkpt lat="41.16641" lon="20.23436">
        <ele>232.159335</ele>
        <time>2022-05-01T11:40:32.593Z</time>
      </trkpt>
      <trkpt lat="41.16642" lon="20.23423">
        <ele>232.007472</ele>
        <time>2022-05-01T11:40:34.565Z</time>
      </trkpt>
      <trkpt lat="41.16642" lon="20.23408">
        <ele>231.842465</ele>
        <time>2022-05-01T11:40:36.567Z</time>
      </trkpt>
      <trkpt lat="41.16643" lon="20.23391">
        <ele>231.644706</ele>
        <time>2022-05-01T11:40:38.598Z</time>
      </trkpt>
      <trkpt lat="41.16643" lon="20.23372">
        <ele>231.429795</ele>
        <time>2022-05-01T11:40:40.557Z</time>
      </trkpt>
      <trkpt lat="41.16645" lon="20.23352">
        <ele>231.198076</ele>
        <time>2022-05-01T11:40:42.548Z</time>
      </trkpt>
      <trkpt lat="41.16647" lon="20.2333">
        <ele>230.949585</ele>
        <time>2022-05-01T11:40:44.535Z</time>
      </trkpt>
      <trkpt lat="41.16647" lon="20.23309">
        <ele>230.710071</ele>
        <time>2022-05-01T11:40:46.552Z</time>
      </trkpt>
      <trkpt lat="41.16646" lon="20.23287">
        <ele>230.470895</ele>
        <time>2022-05-01T11:40:48.568Z</time>
      </trkpt>
      <trkpt lat="41.16643" lon="20.23265">
        <ele>230.219067</ele>
        <time>2022-05-01T11:40:50.555Z</time>
      </trkpt>
      <trkpt lat="41.16639" lon="20.23245">
        <ele>229.976963</ele>
        <time>2022-05-01T11:40:52.610Z</time>
      </trkpt>
      <trkpt lat="41.16633" lon="20.23226">
        <ele>229.802012</ele>
        <time>2022-05-01T11:40:54.552Z</time>
      </trkpt>
      <trkpt lat="41.16628" lon="20.23209">
        <ele>229.680801</ele>
        <time>2022-05-01T11:40:56.537Z</time>
      </trkpt>
      <trkpt lat="41.16622" lon="20.23193">
        <ele>229.564256</ele>
        <time>2022-05-01T11:40:58.572Z</time>
      </trkpt>
      <trkpt lat="41.16615" lon="20.23179">
        <ele>229.460895</ele>
        <time>2022-05-01T11:41:00.591Z</time>
      </trkpt>
      <trkpt lat="41.16609" lon="20.23167">
        <ele>229.365736</ele>
        <time>2022-05-01T11:41:02.555Z</time>
      </trkpt>
      <trkpt lat="41.16603" lon="20.23156">
        <ele>229.277703</ele>
        <time>2022-05-01T11:41:04.564Z</time>
      </trkpt>
      <trkpt lat="41.16597" lon="20.23147">
        <ele>229.194983</ele>
        <time>2022-05-01T11:41:06.551Z</time>
      </trkpt>
      <trkpt lat="41.1659" lon="20.23138">
        <ele>229.11507</ele>
        <time>2022-05-01T11:41:08.552Z</time>
      </trkpt>
      <trkpt lat="41.16582" lon="20.23125">
        <ele>229.00029</ele>
        <time>2022-05-01T11:41:11.579Z</time>
      </trkpt>
      <trkpt lat="41.16574" lon="20.23112">
        <ele>228.893681</ele>
        <time>2022-05-01T11:41:14.623Z</time>
      </trkpt>
      <trkpt lat="41.16567" lon="20.23102">
        <ele>228.803006</ele>
        <time>2022-05-01T11:41:17.550Z</time>
      </trkpt>
      <trkpt lat="41.16561" lon="20.23091">
        <ele>228.716499</ele>
        <time>2022-05-01T11:41:20.531Z</time>
      </trkpt>
      <trkpt lat="41.16554" lon="20.23081">
        <ele>228.628077</ele>
        <time>2022-05-01T11:41:23.560Z</time>
      </trkpt>
      <trkpt lat="41.16547" lon="20.23072">
        <ele>228.540959</ele>
        <time>2022-05-01T11:41:26.555Z</time>
      </trkpt>
      <trkpt lat="41.16541" lon="20.23062">
        <ele>228.459003</ele>
        <time>2022-05-01T11:41:29.546Z</time>
      </trkpt>
      <trkpt lat="41.16534" lon="20.23052">
        <ele>228.372012</ele>
        <time>2022-05-01T11:41:32.548Z</time>
      </trkpt>
      <trkpt lat="41.16527" lon="20.23043">
        <ele>228.575406</ele>
        <time>2022-05-01T11:41:35.641Z</time>
      </trkpt>
      <trkpt lat="41.1652" lon="20.23033">
        <ele>229.238461</ele>
        <time>2022-05-01T11:41:38.567Z</time>
      </trkpt>
      <trkpt lat="41.16513" lon="20.23023">
        <ele>229.926781</ele>
        <time>2022-05-01T11:41:41.580Z</time>
      </trkpt>
      <trkpt lat="41.16506" lon="20.23014">
        <ele>230.594135</ele>
        <time>2022-05-01T11:41:44.553Z</time>
      </trkpt>
      <trkpt lat="41.16499" lon="20.23004">
        <ele>231.246442</ele>
        <time>2022-05-01T11:41:47.566Z</time>
      </trkpt>
      <trkpt lat="41.16491" lon="20.22995">
        <ele>231.916541</ele>
        <time>2022-05-01T11:41:50.596Z</time>
      </trkpt>
      <trkpt lat="41.16484" lon="20.22986">
        <ele>232.559803</ele>
        <time>2022-05-01T11:41:53.567Z</time>
      </trkpt>
      <trkpt lat="41.16476" lon="20.22974">
        <ele>233.327259</ele>
        <time>2022-05-01T11:41:56.567Z</time>
      </trkpt>
      <trkpt lat="41.16469" lon="20.22962">
        <ele>234.14077</ele>
        <time>2022-05-01T11:41:59.560Z</time>
      </trkpt>
      <trkpt lat="41.16461" lon="20.22949">
        <ele>234.926392</ele>
        <time>2022-05-01T11:42:02.559Z</time>
      </trkpt>
      <trkpt lat="41.16456" lon="20.22937">
        <ele>235.642929</ele>
        <time>2022-05-01T11:42:05.572Z</time>
      </trkpt>
      <trkpt lat="41.1645" lon="20.22923">
        <ele>236.415929</ele>
        <time>2022-05-01T11:42:08.576Z</time>
      </trkpt>
      <trkpt lat="41.16446" lon="20.22908">
        <ele>237.162851</ele>
        <time>2022-05-01T11:42:11.562Z</time>
      </trkpt>
      <trkpt lat="41.16442" lon="20.22895">
        <ele>237.880732</ele>
        <time>2022-05-01T11:42:14.568Z</time>
      </trkpt>
      <trkpt lat="41.16437" lon="20.22881">
        <ele>238.633705</ele>
        <time>2022-05-01T11:42:17.556Z</time>
      </trkpt>
      <trkpt lat="41.16433" lon="20.22867">
        <ele>239.382914</ele>
        <time>2022-05-01T11:42:20.530Z</time>
      </trkpt>
      <trkpt lat="41.1643" lon="20.22854">
        <ele>240.063478</ele>
        <time>2022-05-01T11:42:23.544Z</time>
      </trkpt>
      <trkpt lat="41.16427" lon="20.22841">
        <ele>239.69308</ele>
        <time>2022-05-01T11:42:26.589Z</time>
      </trkpt>
      <trkpt lat="41.16423" lon="20.22826">
        <ele>239.14516</ele>
        <time>2022-05-01T11:42:29.565Z</time>
      </trkpt>
      <trkpt lat="41.16421" lon="20.2281">
        <ele>238.593981</ele>
        <time>2022-05-01T11:42:32.553Z</time>
      </trkpt>
      <trkpt lat="41.1642" lon="20.22795">
        <ele>238.075728</ele>
        <time>2022-05-01T11:42:35.555Z</time>
      </trkpt>
      <trkpt lat="41.1642" lon="20.22779">
        <ele>237.545058</ele>
        <time>2022-05-01T11:42:38.543Z</time>
      </trkpt>
      <trkpt lat="41.1642" lon="20.22762">
        <ele>236.952746</ele>
        <time>2022-05-01T11:42:41.599Z</time>
      </trkpt>
      <trkpt lat="41.16421" lon="20.22744">
        <ele>236.360014</ele>
        <time>2022-05-01T11:42:44.550Z</time>
      </trkpt>
      <trkpt lat="41.16421" lon="20.22727">
        <ele>235.77002</ele>
        <time>2022-05-01T11:42:47.586Z</time>
      </trkpt>
      <trkpt lat="41.16423" lon="20.2271">
        <ele>235.177548</ele>
        <time>2022-05-01T11:42:50.559Z</time>
      </trkpt>
      <trkpt lat="41.16425" lon="20.22698">
        <ele>234.75357</ele>
        <time>2022-05-01T11:42:52.549Z</time>
      </trkpt>
      <trkpt lat="41.16427" lon="20.22685">
        <ele>234.284015</ele>
        <time>2022-05-01T11:42:54.563Z</time>
      </trkpt>
      <trkpt lat="41.1643" lon="20.2267">
        <ele>233.756828</ele>
        <time>2022-05-01T11:42:56.546Z</time>
      </trkpt>
      <trkpt lat="41.16434" lon="20.22655">
        <ele>233.222446</ele>
        <time>2022-05-01T11:42:58.538Z</time>
      </trkpt>
      <trkpt lat="41.16438" lon="20.2264">
        <ele>232.688535</ele>
        <time>2022-05-01T11:43:00.534Z</time>
      </trkpt>
      <trkpt lat="41.16443" lon="20.22622">
        <ele>232.025235</ele>
        <time>2022-05-01T11:43:02.548Z</time>
      </trkpt>
      <trkpt lat="41.16448" lon="20.22603">
        <ele>231.295666</ele>
        <time>2022-05-01T11:43:04.579Z</time>
      </trkpt>
      <trkpt lat="41.16453" lon="20.22584">
        <ele>230.573119</ele>
        <time>2022-05-01T11:43:06.544Z</time>
      </trkpt>
      <trkpt lat="41.16459" lon="20.22565">
        <ele>229.816074</ele>
        <time>2022-05-01T11:43:08.587Z</time>
      </trkpt>
      <trkpt lat="41.16465" lon="20.22547">
        <ele>229.090104</ele>
        <time>2022-05-01T11:43:10.598Z</time>
      </trkpt>
      <trkpt lat="41.1647" lon="20.22529">
        <ele>228.386309</ele>
        <time>2022-05-01T11:43:12.538Z</time>
      </trkpt>
      <trkpt lat="41.16475" lon="20.22509">
        <ele>227.641127</ele>
        <time>2022-05-01T11:43:14.573Z</time>
      </trkpt>
      <trkpt lat="41.1648" lon="20.2249">
        <ele>226.894633</ele>
        <time>2022-05-01T11:43:16.533Z</time>
      </trkpt>
      <trkpt lat="41.16485" lon="20.22471">
        <ele>226.149916</ele>
        <time>2022-05-01T11:43:18.545Z</time>
      </trkpt>
      <trkpt lat="41.16491" lon="20.22452">
        <ele>225.427168</ele>
        <time>2022-05-01T11:43:20.544Z</time>
      </trkpt>
      <trkpt lat="41.16496" lon="20.22435">
        <ele>224.7261</ele>
        <time>2022-05-01T11:43:22.555Z</time>
      </trkpt>
      <trkpt lat="41.16502" lon="20.22417">
        <ele>224.029147</ele>
        <time>2022-05-01T11:43:24.555Z</time>
      </trkpt>
      <trkpt lat="41.16508" lon="20.22402">
        <ele>223.395548</ele>
        <time>2022-05-01T11:43:26.551Z</time>
      </trkpt>
      <trkpt lat="41.16515" lon="20.22386">
        <ele>223.257015</ele>
        <time>2022-05-01T11:43:28.551Z</time>
      </trkpt>
      <trkpt lat="41.16521" lon="20.22372">
        <ele>223.26953</ele>
        <time>2022-05-01T11:43:30.551Z</time>
      </trkpt>
      <trkpt lat="41.16528" lon="20.22359">
        <ele>223.281928</ele>
        <time>2022-05-01T11:43:32.549Z</time>
      </trkpt>
      <trkpt lat="41.16535" lon="20.22346">
        <ele>223.293369</ele>
        <time>2022-05-01T11:43:34.553Z</time>
      </trkpt>
      <trkpt lat="41.1654" lon="20.22335">
        <ele>223.303396</ele>
        <time>2022-05-01T11:43:36.535Z</time>
      </trkpt>
      <trkpt lat="41.16546" lon="20.22324">
        <ele>223.313091</ele>
        <time>2022-05-01T11:43:38.588Z</time>
      </trkpt>
      <trkpt lat="41.16551" lon="20.22314">
        <ele>223.322575</ele>
        <time>2022-05-01T11:43:40.558Z</time>
      </trkpt>
      <trkpt lat="41.16555" lon="20.22302">
        <ele>223.332111</ele>
        <time>2022-05-01T11:43:42.551Z</time>
      </trkpt>
      <trkpt lat="41.16559" lon="20.22291">
        <ele>223.341719</ele>
        <time>2022-05-01T11:43:44.550Z</time>
      </trkpt>
      <trkpt lat="41.16563" lon="20.22279">
        <ele>223.351345</ele>
        <time>2022-05-01T11:43:46.565Z</time>
      </trkpt>
      <trkpt lat="41.16567" lon="20.22267">
        <ele>223.361354</ele>
        <time>2022-05-01T11:43:48.570Z</time>
      </trkpt>
      <trkpt lat="41.16572" lon="20.22255">
        <ele>223.371704</ele>
        <time>2022-05-01T11:43:50.554Z</time>
      </trkpt>
      <trkpt lat="41.16576" lon="20.22242">
        <ele>223.382027</ele>
        <time>2022-05-01T11:43:52.558Z</time>
      </trkpt>
      <trkpt lat="41.1658" lon="20.2223">
        <ele>223.392325</ele>
        <time>2022-05-01T11:43:54.558Z</time>
      </trkpt>
      <trkpt lat="41.16583" lon="20.22217">
        <ele>223.402536</ele>
        <time>2022-05-01T11:43:56.536Z</time>
      </trkpt>
      <trkpt lat="41.16586" lon="20.22204">
        <ele>223.412551</ele>
        <time>2022-05-01T11:43:58.548Z</time>
      </trkpt>
      <trkpt lat="41.16589" lon="20.22192">
        <ele>223.421876</ele>
        <time>2022-05-01T11:44:00.579Z</time>
      </trkpt>
      <trkpt lat="41.16592" lon="20.22178">
        <ele>223.4787</ele>
        <time>2022-05-01T11:44:02.567Z</time>
      </trkpt>
      <trkpt lat="41.16596" lon="20.22163">
        <ele>223.581174</ele>
        <time>2022-05-01T11:44:04.583Z</time>
      </trkpt>
      <trkpt lat="41.166" lon="20.22149">
        <ele>223.68182</ele>
        <time>2022-05-01T11:44:06.545Z</time>
      </trkpt>
      <trkpt lat="41.16603" lon="20.22135">
        <ele>223.777042</ele>
        <time>2022-05-01T11:44:08.560Z</time>
      </trkpt>
      <trkpt lat="41.16607" lon="20.22122">
        <ele>223.867142</ele>
        <time>2022-05-01T11:44:10.550Z</time>
      </trkpt>
      <trkpt lat="41.1661" lon="20.22109">
        <ele>223.953113</ele>
        <time>2022-05-01T11:44:12.574Z</time>
      </trkpt>
      <trkpt lat="41.16612" lon="20.22096">
        <ele>224.037306</ele>
        <time>2022-05-01T11:44:14.531Z</time>
      </trkpt>
      <trkpt lat="41.16615" lon="20.22079">
        <ele>224.154016</ele>
        <time>2022-05-01T11:44:17.578Z</time>
      </trkpt>
      <trkpt lat="41.16618" lon="20.22063">
        <ele>224.258222</ele>
        <time>2022-05-01T11:44:20.548Z</time>
      </trkpt>
      <trkpt lat="41.16621" lon="20.22049">
        <ele>224.355611</ele>
        <time>2022-05-01T11:44:23.558Z</time>
      </trkpt>
      <trkpt lat="41.16625" lon="20.22033">
        <ele>224.45971</ele>
        <time>2022-05-01T11:44:26.558Z</time>
      </trkpt>
      <trkpt lat="41.1663" lon="20.22017">
        <ele>224.574598</ele>
        <time>2022-05-01T11:44:29.560Z</time>
      </trkpt>
      <trkpt lat="41.16634" lon="20.22004">
        <ele>224.66417</ele>
        <time>2022-05-01T11:44:31.556Z</time>
      </trkpt>
      <trkpt lat="41.16638" lon="20.2199">
        <ele>224.761778</ele>
        <time>2022-05-01T11:44:33.552Z</time>
      </trkpt>
      <trkpt lat="41.16641" lon="20.21976">
        <ele>224.857894</ele>
        <time>2022-05-01T11:44:35.547Z</time>
      </trkpt>
      <trkpt lat="41.16645" lon="20.21961">
        <ele>224.958539</ele>
        <time>2022-05-01T11:44:37.549Z</time>
      </trkpt>
      <trkpt lat="41.16649" lon="20.21947">
        <ele>224.985057</ele>
        <time>2022-05-01T11:44:39.588Z</time>
      </trkpt>
      <trkpt lat="41.16652" lon="20.21932">
        <ele>224.997536</ele>
        <time>2022-05-01T11:44:41.555Z</time>
      </trkpt>
      <trkpt lat="41.16656" lon="20.21916">
        <ele>225.010427</ele>
        <time>2022-05-01T11:44:43.537Z</time>
      </trkpt>
      <trkpt lat="41.1666" lon="20.21901">
        <ele>225.023591</ele>
        <time>2022-05-01T11:44:45.552Z</time>
      </trkpt>
      <trkpt lat="41.16663" lon="20.21884">
        <ele>225.037252</ele>
        <time>2022-05-01T11:44:47.558Z</time>
      </trkpt>
      <trkpt lat="41.16668" lon="20.21867">
        <ele>225.052342</ele>
        <time>2022-05-01T11:44:49.566Z</time>
      </trkpt>
      <trkpt lat="41.16673" lon="20.21848">
        <ele>225.068172</ele>
        <time>2022-05-01T11:44:51.549Z</time>
      </trkpt>
      <trkpt lat="41.16678" lon="20.21828">
        <ele>225.085134</ele>
        <time>2022-05-01T11:44:53.559Z</time>
      </trkpt>
      <trkpt lat="41.16685" lon="20.21809">
        <ele>225.101863</ele>
        <time>2022-05-01T11:44:55.565Z</time>
      </trkpt>
      <trkpt lat="41.1669" lon="20.21791">
        <ele>225.117254</ele>
        <time>2022-05-01T11:44:57.577Z</time>
      </trkpt>
      <trkpt lat="41.16695" lon="20.21774">
        <ele>225.131336</ele>
        <time>2022-05-01T11:44:59.565Z</time>
      </trkpt>
      <trkpt lat="41.16699" lon="20.21759">
        <ele>225.144291</ele>
        <time>2022-05-01T11:45:01.587Z</time>
      </trkpt>
      <trkpt lat="41.16702" lon="20.21747">
        <ele>225.154626</ele>
        <time>2022-05-01T11:45:03.549Z</time>
      </trkpt>
      <trkpt lat="41.16708" lon="20.21732">
        <ele>225.201778</ele>
        <time>2022-05-01T11:45:06.558Z</time>
      </trkpt>
      <trkpt lat="41.16712" lon="20.2172">
        <ele>225.370942</ele>
        <time>2022-05-01T11:45:09.544Z</time>
      </trkpt>
      <trkpt lat="41.16717" lon="20.21706">
        <ele>225.574667</ele>
        <time>2022-05-01T11:45:13.549Z</time>
      </trkpt>
      <trkpt lat="41.16721" lon="20.21695">
        <ele>225.732516</ele>
        <time>2022-05-01T11:45:16.556Z</time>
      </trkpt>
      <trkpt lat="41.16725" lon="20.21681">
        <ele>225.933165</ele>
        <time>2022-05-01T11:45:20.548Z</time>
      </trkpt>
      <trkpt lat="41.16729" lon="20.21667">
        <ele>226.123914</ele>
        <time>2022-05-01T11:45:24.555Z</time>
      </trkpt>
      <trkpt lat="41.16732" lon="20.21653">
        <ele>226.320561</ele>
        <time>2022-05-01T11:45:28.563Z</time>
      </trkpt>
      <trkpt lat="41.16735" lon="20.2164">
        <ele>226.486169</ele>
        <time>2022-05-01T11:45:32.540Z</time>
      </trkpt>
      <trkpt lat="41.16737" lon="20.21627">
        <ele>226.671507</ele>
        <time>2022-05-01T11:45:36.550Z</time>
      </trkpt>
      <trkpt lat="41.1674" lon="20.21613">
        <ele>226.860609</ele>
        <time>2022-05-01T11:45:40.583Z</time>
      </trkpt>
      <trkpt lat="41.16742" lon="20.21601">
        <ele>227.01618</ele>
        <time>2022-05-01T11:45:43.551Z</time>
      </trkpt>
      <trkpt lat="41.16744" lon="20.21589">
        <ele>227.177153</ele>
        <time>2022-05-01T11:45:46.589Z</time>
      </trkpt>
      <trkpt lat="41.16745" lon="20.21577">
        <ele>227.337781</ele>
        <time>2022-05-01T11:45:49.554Z</time>
      </trkpt>
      <trkpt lat="41.16747" lon="20.21561">
        <ele>227.544593</ele>
        <time>2022-05-01T11:45:53.559Z</time>
      </trkpt>
      <trkpt lat="41.16747" lon="20.21549">
        <ele>227.704078</ele>
        <time>2022-05-01T11:45:56.550Z</time>
      </trkpt>
      <trkpt lat="41.16748" lon="20.21536">
        <ele>227.869617</ele>
        <time>2022-05-01T11:45:59.541Z</time>
      </trkpt>
      <trkpt lat="41.16749" lon="20.21521">
        <ele>228.05941</ele>
        <time>2022-05-01T11:46:02.552Z</time>
      </trkpt>
      <trkpt lat="41.1675" lon="20.21505">
        <ele>228.271243</ele>
        <time>2022-05-01T11:46:05.544Z</time>
      </trkpt>
      <trkpt lat="41.16751" lon="20.21493">
        <ele>228.110201</ele>
        <time>2022-05-01T11:46:07.568Z</time>
      </trkpt>
      <trkpt lat="41.16751" lon="20.2148">
        <ele>227.920581</ele>
        <time>2022-05-01T11:46:09.560Z</time>
      </trkpt>
      <trkpt lat="41.16751" lon="20.21464">
        <ele>227.707286</ele>
        <time>2022-05-01T11:46:11.553Z</time>
      </trkpt>
      <trkpt lat="41.1675" lon="20.21448">
        <ele>227.469525</ele>
        <time>2022-05-01T11:46:13.566Z</time>
      </trkpt>
      <trkpt lat="41.1675" lon="20.21429">
        <ele>227.205534</ele>
        <time>2022-05-01T11:46:15.577Z</time>
      </trkpt>
      <trkpt lat="41.1675" lon="20.21409">
        <ele>226.920351</ele>
        <time>2022-05-01T11:46:17.556Z</time>
      </trkpt>
      <trkpt lat="41.16749" lon="20.21387">
        <ele>226.616788</ele>
        <time>2022-05-01T11:46:19.536Z</time>
      </trkpt>
      <trkpt lat="41.16749" lon="20.21365">
        <ele>226.297612</ele>
        <time>2022-05-01T11:46:21.538Z</time>
      </trkpt>
      <trkpt lat="41.16748" lon="20.21341">
        <ele>225.965608</ele>
        <time>2022-05-01T11:46:23.548Z</time>
      </trkpt>
      <trkpt lat="41.16748" lon="20.21318">
        <ele>225.640787</ele>
        <time>2022-05-01T11:46:25.550Z</time>
      </trkpt>
      <trkpt lat="41.16747" lon="20.21296">
        <ele>225.32853</ele>
        <time>2022-05-01T11:46:27.553Z</time>
      </trkpt>
      <trkpt lat="41.16747" lon="20.21276">
        <ele>225.040548</ele>
        <time>2022-05-01T11:46:29.587Z</time>
      </trkpt>
      <trkpt lat="41.16747" lon="20.21256">
        <ele>224.92522</ele>
        <time>2022-05-01T11:46:31.560Z</time>
      </trkpt>
      <trkpt lat="41.16746" lon="20.21239">
        <ele>224.961585</ele>
        <time>2022-05-01T11:46:33.554Z</time>
      </trkpt>
      <trkpt lat="41.16746" lon="20.21225">
        <ele>224.993234</ele>
        <time>2022-05-01T11:46:35.563Z</time>
      </trkpt>
      <trkpt lat="41.16746" lon="20.21212">
        <ele>225.021031</ele>
        <time>2022-05-01T11:46:37.541Z</time>
      </trkpt>
      <trkpt lat="41.16745" lon="20.21194">
        <ele>225.05826</ele>
        <time>2022-05-01T11:46:40.556Z</time>
      </trkpt>
      <trkpt lat="41.16745" lon="20.21177">
        <ele>225.094198</ele>
        <time>2022-05-01T11:46:43.543Z</time>
      </trkpt>
      <trkpt lat="41.16745" lon="20.21165">
        <ele>225.11988</ele>
        <time>2022-05-01T11:46:45.556Z</time>
      </trkpt>
      <trkpt lat="41.16744" lon="20.21153">
        <ele>225.146303</ele>
        <time>2022-05-01T11:46:47.583Z</time>
      </trkpt>
      <trkpt lat="41.16743" lon="20.2114">
        <ele>225.173636</ele>
        <time>2022-05-01T11:46:49.553Z</time>
      </trkpt>
      <trkpt lat="41.16742" lon="20.21128">
        <ele>225.200937</ele>
        <time>2022-05-01T11:46:51.552Z</time>
      </trkpt>
      <trkpt lat="41.16741" lon="20.21116">
        <ele>225.226482</ele>
        <time>2022-05-01T11:46:53.573Z</time>
      </trkpt>
      <trkpt lat="41.1674" lon="20.21103">
        <ele>225.253425</ele>
        <time>2022-05-01T11:46:55.559Z</time>
      </trkpt>
      <trkpt lat="41.16738" lon="20.21091">
        <ele>225.279177</ele>
        <time>2022-05-01T11:46:57.534Z</time>
      </trkpt>
      <trkpt lat="41.16736" lon="20.21075">
        <ele>225.315848</ele>
        <time>2022-05-01T11:47:00.564Z</time>
      </trkpt>
      <trkpt lat="41.16734" lon="20.21059">
        <ele>225.349472</ele>
        <time>2022-05-01T11:47:03.552Z</time>
      </trkpt>
      <trkpt lat="41.16731" lon="20.21044">
        <ele>225.382146</ele>
        <time>2022-05-01T11:47:06.538Z</time>
      </trkpt>
      <trkpt lat="41.16729" lon="20.2103">
        <ele>225.413143</ele>
        <time>2022-05-01T11:47:09.559Z</time>
      </trkpt>
      <trkpt lat="41.16727" lon="20.21016">
        <ele>225.519912</ele>
        <time>2022-05-01T11:47:12.560Z</time>
      </trkpt>
      <trkpt lat="41.16724" lon="20.21003">
        <ele>225.63371</ele>
        <time>2022-05-01T11:47:15.537Z</time>
      </trkpt>
      <trkpt lat="41.16721" lon="20.20989">
        <ele>225.747019</ele>
        <time>2022-05-01T11:47:18.548Z</time>
      </trkpt>
      <trkpt lat="41.16718" lon="20.20976">
        <ele>225.855086</ele>
        <time>2022-05-01T11:47:21.552Z</time>
      </trkpt>
      <trkpt lat="41.16715" lon="20.20962">
        <ele>225.979851</ele>
        <time>2022-05-01T11:47:24.572Z</time>
      </trkpt>
      <trkpt lat="41.16711" lon="20.20946">
        <ele>226.108018</ele>
        <time>2022-05-01T11:47:27.558Z</time>
      </trkpt>
      <trkpt lat="41.16707" lon="20.20931">
        <ele>226.244745</ele>
        <time>2022-05-01T11:47:30.555Z</time>
      </trkpt>
      <trkpt lat="41.16702" lon="20.20914">
        <ele>226.388644</ele>
        <time>2022-05-01T11:47:33.570Z</time>
      </trkpt>
      <trkpt lat="41.16699" lon="20.20902">
        <ele>226.489516</ele>
        <time>2022-05-01T11:47:35.544Z</time>
      </trkpt>
      <trkpt lat="41.16695" lon="20.2089">
        <ele>226.5984</ele>
        <time>2022-05-01T11:47:37.547Z</time>
      </trkpt>
      <trkpt lat="41.1669" lon="20.20877">
        <ele>226.710058</ele>
        <time>2022-05-01T11:47:39.554Z</time>
      </trkpt>
      <trkpt lat="41.16686" lon="20.20864">
        <ele>226.826144</ele>
        <time>2022-05-01T11:47:41.552Z</time>
      </trkpt>
      <trkpt lat="41.16682" lon="20.2085">
        <ele>226.947526</ele>
        <time>2022-05-01T11:47:43.609Z</time>
      </trkpt>
      <trkpt lat="41.16677" lon="20.20836">
        <ele>227.076251</ele>
        <time>2022-05-01T11:47:45.556Z</time>
      </trkpt>
      <trkpt lat="41.16672" lon="20.2082">
        <ele>227.20983</ele>
        <time>2022-05-01T11:47:47.554Z</time>
      </trkpt>
      <trkpt lat="41.16666" lon="20.20805">
        <ele>227.343688</ele>
        <time>2022-05-01T11:47:49.552Z</time>
      </trkpt>
      <trkpt lat="41.16661" lon="20.2079">
        <ele>227.328269</ele>
        <time>2022-05-01T11:47:51.556Z</time>
      </trkpt>
      <trkpt lat="41.16656" lon="20.20774">
        <ele>227.31303</ele>
        <time>2022-05-01T11:47:53.573Z</time>
      </trkpt>
      <trkpt lat="41.16652" lon="20.20758">
        <ele>227.297847</ele>
        <time>2022-05-01T11:47:55.537Z</time>
      </trkpt>
      <trkpt lat="41.16648" lon="20.20743">
        <ele>227.282992</ele>
        <time>2022-05-01T11:47:57.554Z</time>
      </trkpt>
      <trkpt lat="41.16644" lon="20.20727">
        <ele>227.268021</ele>
        <time>2022-05-01T11:47:59.549Z</time>
      </trkpt>
      <trkpt lat="41.16642" lon="20.20711">
        <ele>227.253202</ele>
        <time>2022-05-01T11:48:01.584Z</time>
      </trkpt>
      <trkpt lat="41.1664" lon="20.20695">
        <ele>227.238615</ele>
        <time>2022-05-01T11:48:03.556Z</time>
      </trkpt>
      <trkpt lat="41.16639" lon="20.20679">
        <ele>227.223904</ele>
        <time>2022-05-01T11:48:05.548Z</time>
      </trkpt>
      <trkpt lat="41.16639" lon="20.20663">
        <ele>227.210072</ele>
        <time>2022-05-01T11:48:07.550Z</time>
      </trkpt>
      <trkpt lat="41.16639" lon="20.20648">
        <ele>227.196056</ele>
        <time>2022-05-01T11:48:09.551Z</time>
      </trkpt>
      <trkpt lat="41.1664" lon="20.20632">
        <ele>227.182022</ele>
        <time>2022-05-01T11:48:11.566Z</time>
      </trkpt>
      <trkpt lat="41.1664" lon="20.20617">
        <ele>227.168342</ele>
        <time>2022-05-01T11:48:13.543Z</time>
      </trkpt>
      <trkpt lat="41.16641" lon="20.20602">
        <ele>227.154473</ele>
        <time>2022-05-01T11:48:15.549Z</time>
      </trkpt>
      <trkpt lat="41.16642" lon="20.20588">
        <ele>227.141529</ele>
        <time>2022-05-01T11:48:17.556Z</time>
      </trkpt>
      <trkpt lat="41.16643" lon="20.20574">
        <ele>227.12948</ele>
        <time>2022-05-01T11:48:19.554Z</time>
      </trkpt>
      <trkpt lat="41.16644" lon="20.20562">
        <ele>227.383981</ele>
        <time>2022-05-01T11:48:21.544Z</time>
      </trkpt>
      <trkpt lat="41.16643" lon="20.20549">
        <ele>227.671498</ele>
        <time>2022-05-01T11:48:23.559Z</time>
      </trkpt>
      <trkpt lat="41.16641" lon="20.20537">
        <ele>227.948673</ele>
        <time>2022-05-01T11:48:25.560Z</time>
      </trkpt>
      <trkpt lat="41.16637" lon="20.20521">
        <ele>228.3438</ele>
        <time>2022-05-01T11:48:28.558Z</time>
      </trkpt>
      <trkpt lat="41.16631" lon="20.20506">
        <ele>228.738178</ele>
        <time>2022-05-01T11:48:31.553Z</time>
      </trkpt>
      <trkpt lat="41.16625" lon="20.20491">
        <ele>229.13203</ele>
        <time>2022-05-01T11:48:34.559Z</time>
      </trkpt>
      <trkpt lat="41.16618" lon="20.20476">
        <ele>229.540109</ele>
        <time>2022-05-01T11:48:37.550Z</time>
      </trkpt>
      <trkpt lat="41.16614" lon="20.20465">
        <ele>229.818888</ele>
        <time>2022-05-01T11:48:39.553Z</time>
      </trkpt>
      <trkpt lat="41.1661" lon="20.20454">
        <ele>230.096394</ele>
        <time>2022-05-01T11:48:41.538Z</time>
      </trkpt>
      <trkpt lat="41.16606" lon="20.20443">
        <ele>230.389397</ele>
        <time>2022-05-01T11:48:43.550Z</time>
      </trkpt>
      <trkpt lat="41.16603" lon="20.20431">
        <ele>230.680559</ele>
        <time>2022-05-01T11:48:45.555Z</time>
      </trkpt>
      <trkpt lat="41.16601" lon="20.20419">
        <ele>230.962244</ele>
        <time>2022-05-01T11:48:47.561Z</time>
      </trkpt>
      <trkpt lat="41.16601" lon="20.20401">
        <ele>231.366952</ele>
        <time>2022-05-01T11:48:50.581Z</time>
      </trkpt>
      <trkpt lat="41.16601" lon="20.20389">
        <ele>231.653568</ele>
        <time>2022-05-01T11:48:52.565Z</time>
      </trkpt>
      <trkpt lat="41.16602" lon="20.20376">
        <ele>231.945239</ele>
        <time>2022-05-01T11:48:54.558Z</time>
      </trkpt>
      <trkpt lat="41.16603" lon="20.20359">
        <ele>232.346331</ele>
        <time>2022-05-01T11:48:57.555Z</time>
      </trkpt>
      <trkpt lat="41.16603" lon="20.20342">
        <ele>232.695005</ele>
        <time>2022-05-01T11:49:00.553Z</time>
      </trkpt>
      <trkpt lat="41.16605" lon="20.20326">
        <ele>232.873621</ele>
        <time>2022-05-01T11:49:03.568Z</time>
      </trkpt>
      <trkpt lat="41.16607" lon="20.2031">
        <ele>233.047481</ele>
        <time>2022-05-01T11:49:06.570Z</time>
      </trkpt>
      <trkpt lat="41.16609" lon="20.20297">
        <ele>233.201492</ele>
        <time>2022-05-01T11:49:09.555Z</time>
      </trkpt>
      <trkpt lat="41.1661" lon="20.20282">
        <ele>233.369587</ele>
        <time>2022-05-01T11:49:12.552Z</time>
      </trkpt>
      <trkpt lat="41.16611" lon="20.20266">
        <ele>233.542682</ele>
        <time>2022-05-01T11:49:15.559Z</time>
      </trkpt>
      <trkpt lat="41.16613" lon="20.2025">
        <ele>233.719329</ele>
        <time>2022-05-01T11:49:18.568Z</time>
      </trkpt>
      <trkpt lat="41.16615" lon="20.20236">
        <ele>233.87993</ele>
        <time>2022-05-01T11:49:21.558Z</time>
      </trkpt>
      <trkpt lat="41.16616" lon="20.20222">
        <ele>234.036631</ele>
        <time>2022-05-01T11:49:24.548Z</time>
      </trkpt>
      <trkpt lat="41.16617" lon="20.20209">
        <ele>234.182127</ele>
        <time>2022-05-01T11:49:27.565Z</time>
      </trkpt>
      <trkpt lat="41.16619" lon="20.20194">
        <ele>234.348021</ele>
        <time>2022-05-01T11:49:30.549Z</time>
      </trkpt>
      <trkpt lat="41.1662" lon="20.2018">
        <ele>234.510752</ele>
        <time>2022-05-01T11:49:33.562Z</time>
      </trkpt>
      <trkpt lat="41.1662" lon="20.20165">
        <ele>234.669614</ele>
        <time>2022-05-01T11:49:36.585Z</time>
      </trkpt>
      <trkpt lat="41.1662" lon="20.20151">
        <ele>234.827366</ele>
        <time>2022-05-01T11:49:39.556Z</time>
      </trkpt>
      <trkpt lat="41.1662" lon="20.20138">
        <ele>234.977341</ele>
        <time>2022-05-01T11:49:42.544Z</time>
      </trkpt>
      <trkpt lat="41.1662" lon="20.20125">
        <ele>235.120645</ele>
        <time>2022-05-01T11:49:45.555Z</time>
      </trkpt>
      <trkpt lat="41.1662" lon="20.20113">
        <ele>235.253958</ele>
        <time>2022-05-01T11:49:48.588Z</time>
      </trkpt>
      <trkpt lat="41.1662" lon="20.20098">
        <ele>235.160279</ele>
        <time>2022-05-01T11:49:52.555Z</time>
      </trkpt>
      <trkpt lat="41.16619" lon="20.20083">
        <ele>234.970924</ele>
        <time>2022-05-01T11:49:56.542Z</time>
      </trkpt>
      <trkpt lat="41.16619" lon="20.20067">
        <ele>234.772755</ele>
        <time>2022-05-01T11:50:00.553Z</time>
      </trkpt>
      <trkpt lat="41.16618" lon="20.20056">
        <ele>234.619419</ele>
        <time>2022-05-01T11:50:03.549Z</time>
      </trkpt>
      <trkpt lat="41.16617" lon="20.20043">
        <ele>234.451263</ele>
        <time>2022-05-01T11:50:06.549Z</time>
      </trkpt>
      <trkpt lat="41.16615" lon="20.20028">
        <ele>234.265471</ele>
        <time>2022-05-01T11:50:09.545Z</time>
      </trkpt>
      <trkpt lat="41.16614" lon="20.20013">
        <ele>234.066565</ele>
        <time>2022-05-01T11:50:12.561Z</time>
      </trkpt>
      <trkpt lat="41.16613" lon="20.19999">
        <ele>233.879499</ele>
        <time>2022-05-01T11:50:15.547Z</time>
      </trkpt>
      <trkpt lat="41.16611" lon="20.19984">
        <ele>233.69166</ele>
        <time>2022-05-01T11:50:18.557Z</time>
      </trkpt>
      <trkpt lat="41.16609" lon="20.19969">
        <ele>233.496901</ele>
        <time>2022-05-01T11:50:21.593Z</time>
      </trkpt>
      <trkpt lat="41.16607" lon="20.19956">
        <ele>233.315382</ele>
        <time>2022-05-01T11:50:24.596Z</time>
      </trkpt>
      <trkpt lat="41.16604" lon="20.19942">
        <ele>233.129309</ele>
        <time>2022-05-01T11:50:27.556Z</time>
      </trkpt>
      <trkpt lat="41.166" lon="20.19926">
        <ele>232.923209</ele>
        <time>2022-05-01T11:50:30.595Z</time>
      </trkpt>
      <trkpt lat="41.16596" lon="20.19912">
        <ele>232.720769</ele>
        <time>2022-05-01T11:50:33.556Z</time>
      </trkpt>
      <trkpt lat="41.16592" lon="20.19896">
        <ele>232.508807</ele>
        <time>2022-05-01T11:50:36.581Z</time>
      </trkpt>
      <trkpt lat="41.16587" lon="20.19882">
        <ele>232.307328</ele>
        <time>2022-05-01T11:50:39.555Z</time>
      </trkpt>
      <trkpt lat="41.16582" lon="20.19869">
        <ele>232.292585</ele>
        <time>2022-05-01T11:50:42.604Z</time>
      </trkpt>
      <trkpt lat="41.16576" lon="20.19856">
        <ele>232.408489</ele>
        <time>2022-05-01T11:50:45.556Z</time>
      </trkpt>
      <trkpt lat="41.1657" lon="20.19843">
        <ele>232.528228</ele>
        <time>2022-05-01T11:50:48.554Z</time>
      </trkpt>
      <trkpt lat="41.16564" lon="20.1983">
        <ele>232.653314</ele>
        <time>2022-05-01T11:50:51.554Z</time>
      </trkpt>
      <trkpt lat="41.16557" lon="20.19818">
        <ele>232.770079</ele>
        <time>2022-05-01T11:50:54.559Z</time>
      </trkpt>
      <trkpt lat="41.1655" lon="20.19806">
        <ele>232.886146</ele>
        <time>2022-05-01T11:50:57.563Z</time>
      </trkpt>
      <trkpt lat="41.16543" lon="20.19794">
        <ele>233.002275</ele>
        <time>2022-05-01T11:51:00.535Z</time>
      </trkpt>
      <trkpt lat="41.16536" lon="20.19784">
        <ele>233.114077</ele>
        <time>2022-05-01T11:51:03.561Z</time>
      </trkpt>
      <trkpt lat="41.16528" lon="20.19774">
        <ele>233.227506</ele>
        <time>2022-05-01T11:51:06.547Z</time>
      </trkpt>
      <trkpt lat="41.16519" lon="20.19763">
        <ele>233.354025</ele>
        <time>2022-05-01T11:51:09.552Z</time>
      </trkpt>
      <trkpt lat="41.1651" lon="20.19753">
        <ele>233.474031</ele>
        <time>2022-05-01T11:51:12.556Z</time>
      </trkpt>
      <trkpt lat="41.16502" lon="20.19744">
        <ele>233.591819</ele>
        <time>2022-05-01T11:51:15.554Z</time>
      </trkpt>
      <trkpt lat="41.16492" lon="20.19735">
        <ele>233.715294</ele>
        <time>2022-05-01T11:51:18.552Z</time>
      </trkpt>
      <trkpt lat="41.16481" lon="20.19726">
        <ele>233.847044</ele>
        <time>2022-05-01T11:51:21.547Z</time>
      </trkpt>
      <trkpt lat="41.16469" lon="20.19717">
        <ele>233.98807</ele>
        <time>2022-05-01T11:51:24.556Z</time>
      </trkpt>
      <trkpt lat="41.16461" lon="20.19711">
        <ele>234.08869</ele>
        <time>2022-05-01T11:51:26.566Z</time>
      </trkpt>
      <trkpt lat="41.16452" lon="20.19704">
        <ele>234.18528</ele>
        <time>2022-05-01T11:51:28.559Z</time>
      </trkpt>
      <trkpt lat="41.16443" lon="20.19697">
        <ele>234.288927</ele>
        <time>2022-05-01T11:51:30.556Z</time>
      </trkpt>
      <trkpt lat="41.16434" lon="20.1969">
        <ele>234.394011</ele>
        <time>2022-05-01T11:51:32.545Z</time>
      </trkpt>
      <trkpt lat="41.16425" lon="20.19683">
        <ele>234.496605</ele>
        <time>2022-05-01T11:51:34.557Z</time>
      </trkpt>
      <trkpt lat="41.16415" lon="20.19675">
        <ele>234.601982</ele>
        <time>2022-05-01T11:51:36.543Z</time>
      </trkpt>
      <trkpt lat="41.16405" lon="20.19667">
        <ele>234.714268</ele>
        <time>2022-05-01T11:51:38.585Z</time>
      </trkpt>
      <trkpt lat="41.16395" lon="20.19659">
        <ele>234.832187</ele>
        <time>2022-05-01T11:51:40.536Z</time>
      </trkpt>
      <trkpt lat="41.16384" lon="20.19651">
        <ele>234.953337</ele>
        <time>2022-05-01T11:51:42.547Z</time>
      </trkpt>
      <trkpt lat="41.16373" lon="20.19642">
        <ele>235.074589</ele>
        <time>2022-05-01T11:51:44.587Z</time>
      </trkpt>
      <trkpt lat="41.16361" lon="20.19633">
        <ele>235.204236</ele>
        <time>2022-05-01T11:51:46.557Z</time>
      </trkpt>
      <trkpt lat="41.16349" lon="20.19623">
        <ele>235.345148</ele>
        <time>2022-05-01T11:51:48.556Z</time>
      </trkpt>
      <trkpt lat="41.16337" lon="20.19613">
        <ele>235.484702</ele>
        <time>2022-05-01T11:51:50.591Z</time>
      </trkpt>
      <trkpt lat="41.16324" lon="20.19603">
        <ele>235.627866</ele>
        <time>2022-05-01T11:51:52.551Z</time>
      </trkpt>
      <trkpt lat="41.16311" lon="20.19591">
        <ele>235.779006</ele>
        <time>2022-05-01T11:51:54.556Z</time>
      </trkpt>
      <trkpt lat="41.16297" lon="20.19578">
        <ele>235.563274</ele>
        <time>2022-05-01T11:51:56.590Z</time>
      </trkpt>
      <trkpt lat="41.16284" lon="20.19564">
        <ele>235.120843</ele>
        <time>2022-05-01T11:51:58.549Z</time>
      </trkpt>
      <trkpt lat="41.16271" lon="20.1955">
        <ele>234.668521</ele>
        <time>2022-05-01T11:52:00.558Z</time>
      </trkpt>
      <trkpt lat="41.16258" lon="20.19534">
        <ele>234.217719</ele>
        <time>2022-05-01T11:52:02.604Z</time>
      </trkpt>
      <trkpt lat="41.16246" lon="20.19517">
        <ele>233.749886</ele>
        <time>2022-05-01T11:52:04.560Z</time>
      </trkpt>
      <trkpt lat="41.16234" lon="20.19499">
        <ele>233.281798</ele>
        <time>2022-05-01T11:52:06.557Z</time>
      </trkpt>
      <trkpt lat="41.16228" lon="20.1949">
        <ele>233.041773</ele>
        <time>2022-05-01T11:52:07.555Z</time>
      </trkpt>
      <trkpt lat="41.16222" lon="20.1948">
        <ele>232.798715</ele>
        <time>2022-05-01T11:52:08.546Z</time>
      </trkpt>
      <trkpt lat="41.16216" lon="20.19471">
        <ele>232.552067</ele>
        <time>2022-05-01T11:52:09.564Z</time>
      </trkpt>
      <trkpt lat="41.16209" lon="20.19462">
        <ele>232.2962</ele>
        <time>2022-05-01T11:52:10.572Z</time>
      </trkpt>
      <trkpt lat="41.16202" lon="20.19453">
        <ele>232.035656</ele>
        <time>2022-05-01T11:52:11.551Z</time>
      </trkpt>
      <trkpt lat="41.16195" lon="20.19444">
        <ele>231.771346</ele>
        <time>2022-05-01T11:52:12.571Z</time>
      </trkpt>
      <trkpt lat="41.16187" lon="20.19435">
        <ele>231.503578</ele>
        <time>2022-05-01T11:52:13.573Z</time>
      </trkpt>
      <trkpt lat="41.16179" lon="20.19427">
        <ele>231.234181</ele>
        <time>2022-05-01T11:52:14.543Z</time>
      </trkpt>
      <trkpt lat="41.1617" lon="20.19418">
        <ele>230.672204</ele>
        <time>2022-05-01T11:52:15.589Z</time>
      </trkpt>
      <trkpt lat="41.16162" lon="20.1941">
        <ele>229.89672</ele>
        <time>2022-05-01T11:52:16.560Z</time>
      </trkpt>
      <trkpt lat="41.16153" lon="20.19402">
        <ele>229.118875</ele>
        <time>2022-05-01T11:52:17.557Z</time>
      </trkpt>
      <trkpt lat="41.16145" lon="20.19394">
        <ele>228.337383</ele>
        <time>2022-05-01T11:52:18.538Z</time>
      </trkpt>
      <trkpt lat="41.16137" lon="20.19386">
        <ele>227.558568</ele>
        <time>2022-05-01T11:52:19.573Z</time>
      </trkpt>
      <trkpt lat="41.16128" lon="20.19378">
        <ele>226.798375</ele>
        <time>2022-05-01T11:52:20.549Z</time>
      </trkpt>
      <trkpt lat="41.1612" lon="20.1937">
        <ele>226.050822</ele>
        <time>2022-05-01T11:52:21.571Z</time>
      </trkpt>
      <trkpt lat="41.16112" lon="20.19362">
        <ele>225.29994</ele>
        <time>2022-05-01T11:52:22.554Z</time>
      </trkpt>
      <trkpt lat="41.16104" lon="20.19354">
        <ele>224.543075</ele>
        <time>2022-05-01T11:52:23.544Z</time>
      </trkpt>
      <trkpt lat="41.16096" lon="20.19345">
        <ele>223.763425</ele>
        <time>2022-05-01T11:52:24.571Z</time>
      </trkpt>
      <trkpt lat="41.16087" lon="20.19337">
        <ele>222.989653</ele>
        <time>2022-05-01T11:52:25.565Z</time>
      </trkpt>
      <trkpt lat="41.16079" lon="20.19329">
        <ele>222.234501</ele>
        <time>2022-05-01T11:52:26.548Z</time>
      </trkpt>
      <trkpt lat="41.16071" lon="20.19321">
        <ele>221.468843</ele>
        <time>2022-05-01T11:52:27.566Z</time>
      </trkpt>
      <trkpt lat="41.16063" lon="20.19314">
        <ele>220.746323</ele>
        <time>2022-05-01T11:52:28.582Z</time>
      </trkpt>
      <trkpt lat="41.16048" lon="20.19301">
        <ele>219.466657</ele>
        <time>2022-05-01T11:52:30.556Z</time>
      </trkpt>
      <trkpt lat="41.16038" lon="20.19285">
        <ele>218.272268</ele>
        <time>2022-05-01T11:52:32.541Z</time>
      </trkpt>
      <trkpt lat="41.16034" lon="20.19265">
        <ele>217.028767</ele>
        <time>2022-05-01T11:52:34.547Z</time>
      </trkpt>
      <trkpt lat="41.16036" lon="20.19245">
        <ele>215.699599</ele>
        <time>2022-05-01T11:52:36.557Z</time>
      </trkpt>
      <trkpt lat="41.16039" lon="20.19226">
        <ele>214.477161</ele>
        <time>2022-05-01T11:52:38.556Z</time>
      </trkpt>
      <trkpt lat="41.16039" lon="20.19208">
        <ele>213.345667</ele>
        <time>2022-05-01T11:52:40.561Z</time>
      </trkpt>
      <trkpt lat="41.16039" lon="20.1919">
        <ele>212.240239</ele>
        <time>2022-05-01T11:52:42.556Z</time>
      </trkpt>
      <trkpt lat="41.16039" lon="20.19174">
        <ele>211.179105</ele>
        <time>2022-05-01T11:52:44.554Z</time>
      </trkpt>
      <trkpt lat="41.1604" lon="20.19157">
        <ele>210.11072</ele>
        <time>2022-05-01T11:52:46.548Z</time>
      </trkpt>
      <trkpt lat="41.16039" lon="20.19142">
        <ele>209.150597</ele>
        <time>2022-05-01T11:52:48.551Z</time>
      </trkpt>
      <trkpt lat="41.16039" lon="20.19128">
        <ele>208.259317</ele>
        <time>2022-05-01T11:52:50.557Z</time>
      </trkpt>
      <trkpt lat="41.16038" lon="20.19114">
        <ele>207.365166</ele>
        <time>2022-05-01T11:52:52.540Z</time>
      </trkpt>
      <trkpt lat="41.16037" lon="20.191">
        <ele>206.497923</ele>
        <time>2022-05-01T11:52:54.556Z</time>
      </trkpt>
      <trkpt lat="41.16035" lon="20.19087">
        <ele>205.627076</ele>
        <time>2022-05-01T11:52:56.554Z</time>
      </trkpt>
      <trkpt lat="41.16034" lon="20.19073">
        <ele>204.727567</ele>
        <time>2022-05-01T11:52:58.616Z</time>
      </trkpt>
      <trkpt lat="41.16032" lon="20.19058">
        <ele>203.809212</ele>
        <time>2022-05-01T11:53:00.546Z</time>
      </trkpt>
      <trkpt lat="41.1603" lon="20.19044">
        <ele>202.889947</ele>
        <time>2022-05-01T11:53:02.556Z</time>
      </trkpt>
      <trkpt lat="41.16028" lon="20.1903">
        <ele>202.477237</ele>
        <time>2022-05-01T11:53:04.555Z</time>
      </trkpt>
      <trkpt lat="41.16026" lon="20.19017">
        <ele>202.340782</ele>
        <time>2022-05-01T11:53:06.548Z</time>
      </trkpt>
      <trkpt lat="41.16025" lon="20.19003">
        <ele>202.205699</ele>
        <time>2022-05-01T11:53:08.572Z</time>
      </trkpt>
      <trkpt lat="41.16023" lon="20.18989">
        <ele>202.069698</ele>
        <time>2022-05-01T11:53:10.562Z</time>
      </trkpt>
      <trkpt lat="41.16021" lon="20.18976">
        <ele>201.936053</ele>
        <time>2022-05-01T11:53:12.534Z</time>
      </trkpt>
      <trkpt lat="41.1602" lon="20.18962">
        <ele>201.797528</ele>
        <time>2022-05-01T11:53:14.554Z</time>
      </trkpt>
      <trkpt lat="41.16019" lon="20.18948">
        <ele>201.656705</ele>
        <time>2022-05-01T11:53:16.545Z</time>
      </trkpt>
      <trkpt lat="41.16018" lon="20.18933">
        <ele>201.51131</ele>
        <time>2022-05-01T11:53:18.548Z</time>
      </trkpt>
      <trkpt lat="41.16018" lon="20.18918">
        <ele>201.366199</ele>
        <time>2022-05-01T11:53:20.594Z</time>
      </trkpt>
      <trkpt lat="41.16017" lon="20.18904">
        <ele>201.224118</ele>
        <time>2022-05-01T11:53:22.565Z</time>
      </trkpt>
      <trkpt lat="41.16018" lon="20.1889">
        <ele>201.083024</ele>
        <time>2022-05-01T11:53:24.556Z</time>
      </trkpt>
      <trkpt lat="41.16017" lon="20.18876">
        <ele>200.944609</ele>
        <time>2022-05-01T11:53:26.608Z</time>
      </trkpt>
      <trkpt lat="41.16016" lon="20.18862">
        <ele>200.807842</ele>
        <time>2022-05-01T11:53:28.557Z</time>
      </trkpt>
      <trkpt lat="41.16014" lon="20.18848">
        <ele>200.670099</ele>
        <time>2022-05-01T11:53:30.546Z</time>
      </trkpt>
      <trkpt lat="41.16013" lon="20.18834">
        <ele>200.532151</ele>
        <time>2022-05-01T11:53:32.543Z</time>
      </trkpt>
      <trkpt lat="41.16011" lon="20.18819">
        <ele>200.382308</ele>
        <time>2022-05-01T11:53:34.556Z</time>
      </trkpt>
      <trkpt lat="41.16008" lon="20.18805">
        <ele>200.236124</ele>
        <time>2022-05-01T11:53:36.577Z</time>
      </trkpt>
      <trkpt lat="41.16005" lon="20.18791">
        <ele>200.31776</ele>
        <time>2022-05-01T11:53:38.551Z</time>
      </trkpt>
      <trkpt lat="41.16002" lon="20.18777">
        <ele>200.447908</ele>
        <time>2022-05-01T11:53:40.570Z</time>
      </trkpt>
      <trkpt lat="41.15999" lon="20.18763">
        <ele>200.579076</ele>
        <time>2022-05-01T11:53:42.602Z</time>
      </trkpt>
      <trkpt lat="41.15996" lon="20.18749">
        <ele>200.711017</ele>
        <time>2022-05-01T11:53:44.537Z</time>
      </trkpt>
      <trkpt lat="41.15993" lon="20.18735">
        <ele>200.846667</ele>
        <time>2022-05-01T11:53:46.547Z</time>
      </trkpt>
      <trkpt lat="41.15989" lon="20.1872">
        <ele>200.985986</ele>
        <time>2022-05-01T11:53:48.559Z</time>
      </trkpt>
      <trkpt lat="41.15985" lon="20.18705">
        <ele>201.124387</ele>
        <time>2022-05-01T11:53:50.544Z</time>
      </trkpt>
      <trkpt lat="41.1598" lon="20.18691">
        <ele>201.264992</ele>
        <time>2022-05-01T11:53:52.528Z</time>
      </trkpt>
      <trkpt lat="41.15975" lon="20.18677">
        <ele>201.406545</ele>
        <time>2022-05-01T11:53:54.594Z</time>
      </trkpt>
      <trkpt lat="41.15971" lon="20.18662">
        <ele>201.545793</ele>
        <time>2022-05-01T11:53:56.552Z</time>
      </trkpt>
      <trkpt lat="41.15968" lon="20.18647">
        <ele>201.687806</ele>
        <time>2022-05-01T11:53:58.558Z</time>
      </trkpt>
      <trkpt lat="41.15964" lon="20.18632">
        <ele>201.83262</ele>
        <time>2022-05-01T11:54:00.587Z</time>
      </trkpt>
      <trkpt lat="41.1596" lon="20.18617">
        <ele>201.975656</ele>
        <time>2022-05-01T11:54:02.554Z</time>
      </trkpt>
      <trkpt lat="41.15956" lon="20.18602">
        <ele>202.120387</ele>
        <time>2022-05-01T11:54:04.571Z</time>
      </trkpt>
      <trkpt lat="41.15952" lon="20.18586">
        <ele>202.26721</ele>
        <time>2022-05-01T11:54:06.575Z</time>
      </trkpt>
      <trkpt lat="41.15947" lon="20.18572">
        <ele>202.375718</ele>
        <time>2022-05-01T11:54:08.531Z</time>
      </trkpt>
      <trkpt lat="41.15943" lon="20.18557">
        <ele>202.422732</ele>
        <time>2022-05-01T11:54:10.559Z</time>
      </trkpt>
      <trkpt lat="41.15939" lon="20.18542">
        <ele>202.470204</ele>
        <time>2022-05-01T11:54:12.588Z</time>
      </trkpt>
      <trkpt lat="41.15935" lon="20.18527">
        <ele>202.518047</ele>
        <time>2022-05-01T11:54:14.556Z</time>
      </trkpt>
      <trkpt lat="41.15931" lon="20.18512">
        <ele>202.56533</ele>
        <time>2022-05-01T11:54:16.555Z</time>
      </trkpt>
      <trkpt lat="41.15927" lon="20.18497">
        <ele>202.612207</ele>
        <time>2022-05-01T11:54:18.646Z</time>
      </trkpt>
      <trkpt lat="41.15923" lon="20.18483">
        <ele>202.65949</ele>
        <time>2022-05-01T11:54:20.554Z</time>
      </trkpt>
      <trkpt lat="41.15918" lon="20.18468">
        <ele>202.705949</ele>
        <time>2022-05-01T11:54:22.553Z</time>
      </trkpt>
      <trkpt lat="41.15915" lon="20.18454">
        <ele>202.751566</ele>
        <time>2022-05-01T11:54:24.577Z</time>
      </trkpt>
      <trkpt lat="41.15911" lon="20.18439">
        <ele>202.797024</ele>
        <time>2022-05-01T11:54:26.566Z</time>
      </trkpt>
      <trkpt lat="41.15909" lon="20.18424">
        <ele>202.844003</ele>
        <time>2022-05-01T11:54:28.542Z</time>
      </trkpt>
      <trkpt lat="41.15906" lon="20.18408">
        <ele>202.891819</ele>
        <time>2022-05-01T11:54:30.558Z</time>
      </trkpt>
      <trkpt lat="41.15904" lon="20.18393">
        <ele>202.938916</ele>
        <time>2022-05-01T11:54:32.570Z</time>
      </trkpt>
      <trkpt lat="41.15902" lon="20.18377">
        <ele>202.985931</ele>
        <time>2022-05-01T11:54:34.568Z</time>
      </trkpt>
      <trkpt lat="41.15901" lon="20.18361">
        <ele>203.034821</ele>
        <time>2022-05-01T11:54:36.553Z</time>
      </trkpt>
      <trkpt lat="41.15901" lon="20.18345">
        <ele>203.019214</ele>
        <time>2022-05-01T11:54:38.566Z</time>
      </trkpt>
      <trkpt lat="41.15901" lon="20.18328">
        <ele>202.782621</ele>
        <time>2022-05-01T11:54:40.593Z</time>
      </trkpt>
      <trkpt lat="41.15902" lon="20.18312">
        <ele>202.541582</ele>
        <time>2022-05-01T11:54:42.548Z</time>
      </trkpt>
      <trkpt lat="41.15903" lon="20.18295">
        <ele>202.295577</ele>
        <time>2022-05-01T11:54:44.557Z</time>
      </trkpt>
      <trkpt lat="41.15905" lon="20.18279">
        <ele>202.048566</ele>
        <time>2022-05-01T11:54:46.568Z</time>
      </trkpt>
      <trkpt lat="41.15907" lon="20.18263">
        <ele>201.814616</ele>
        <time>2022-05-01T11:54:48.551Z</time>
      </trkpt>
      <trkpt lat="41.1591" lon="20.18248">
        <ele>201.581811</ele>
        <time>2022-05-01T11:54:50.555Z</time>
      </trkpt>
      <trkpt lat="41.15913" lon="20.18232">
        <ele>201.334706</ele>
        <time>2022-05-01T11:54:52.555Z</time>
      </trkpt>
      <trkpt lat="41.15917" lon="20.18215">
        <ele>201.082806</ele>
        <time>2022-05-01T11:54:54.560Z</time>
      </trkpt>
      <trkpt lat="41.15922" lon="20.182">
        <ele>200.841773</ele>
        <time>2022-05-01T11:54:56.549Z</time>
      </trkpt>
      <trkpt lat="41.15928" lon="20.18185">
        <ele>200.593111</ele>
        <time>2022-05-01T11:54:58.548Z</time>
      </trkpt>
      <trkpt lat="41.15934" lon="20.1817">
        <ele>200.345346</ele>
        <time>2022-05-01T11:55:00.566Z</time>
      </trkpt>
      <trkpt lat="41.15939" lon="20.18156">
        <ele>200.108033</ele>
        <time>2022-05-01T11:55:02.586Z</time>
      </trkpt>
      <trkpt lat="41.15945" lon="20.18141">
        <ele>199.873373</ele>
        <time>2022-05-01T11:55:04.561Z</time>
      </trkpt>
      <trkpt lat="41.1595" lon="20.18127">
        <ele>199.639551</ele>
        <time>2022-05-01T11:55:06.548Z</time>
      </trkpt>
      <trkpt lat="41.15955" lon="20.18113">
        <ele>199.591798</ele>
        <time>2022-05-01T11:55:08.547Z</time>
      </trkpt>
      <trkpt lat="41.1596" lon="20.18099">
        <ele>199.634309</ele>
        <time>2022-05-01T11:55:10.570Z</time>
      </trkpt>
      <trkpt lat="41.15965" lon="20.18085">
        <ele>199.675621</ele>
        <time>2022-05-01T11:55:12.558Z</time>
      </trkpt>
      <trkpt lat="41.15969" lon="20.18071">
        <ele>199.717431</ele>
        <time>2022-05-01T11:55:14.570Z</time>
      </trkpt>
      <trkpt lat="41.15974" lon="20.18056">
        <ele>199.760741</ele>
        <time>2022-05-01T11:55:16.551Z</time>
      </trkpt>
      <trkpt lat="41.15978" lon="20.18041">
        <ele>199.803374</ele>
        <time>2022-05-01T11:55:18.552Z</time>
      </trkpt>
      <trkpt lat="41.15982" lon="20.18027">
        <ele>199.844479</ele>
        <time>2022-05-01T11:55:20.555Z</time>
      </trkpt>
      <trkpt lat="41.15986" lon="20.18014">
        <ele>199.882897</ele>
        <time>2022-05-01T11:55:22.568Z</time>
      </trkpt>
      <trkpt lat="41.15989" lon="20.18001">
        <ele>199.920766</ele>
        <time>2022-05-01T11:55:24.570Z</time>
      </trkpt>
      <trkpt lat="41.15992" lon="20.17988">
        <ele>199.958271</ele>
        <time>2022-05-01T11:55:26.548Z</time>
      </trkpt>
      <trkpt lat="41.15994" lon="20.17974">
        <ele>199.995492</ele>
        <time>2022-05-01T11:55:28.539Z</time>
      </trkpt>
      <trkpt lat="41.15997" lon="20.17961">
        <ele>200.033064</ele>
        <time>2022-05-01T11:55:30.540Z</time>
      </trkpt>
      <trkpt lat="41.15999" lon="20.17948">
        <ele>200.07011</ele>
        <time>2022-05-01T11:55:32.556Z</time>
      </trkpt>
      <trkpt lat="41.16002" lon="20.17935">
        <ele>200.10699</ele>
        <time>2022-05-01T11:55:34.549Z</time>
      </trkpt>
      <trkpt lat="41.16005" lon="20.17922">
        <ele>200.143346</ele>
        <time>2022-05-01T11:55:36.559Z</time>
      </trkpt>
      <trkpt lat="41.16008" lon="20.17909">
        <ele>200.181375</ele>
        <time>2022-05-01T11:55:38.555Z</time>
      </trkpt>
      <trkpt lat="41.16011" lon="20.17893">
        <ele>200.199381</ele>
        <time>2022-05-01T11:55:40.554Z</time>
      </trkpt>
      <trkpt lat="41.16014" lon="20.17878">
        <ele>200.141279</ele>
        <time>2022-05-01T11:55:42.567Z</time>
      </trkpt>
      <trkpt lat="41.16018" lon="20.17862">
        <ele>200.083049</ele>
        <time>2022-05-01T11:55:44.555Z</time>
      </trkpt>
      <trkpt lat="41.16021" lon="20.17846">
        <ele>200.025191</ele>
        <time>2022-05-01T11:55:46.583Z</time>
      </trkpt>
      <trkpt lat="41.16024" lon="20.17831">
        <ele>199.966961</ele>
        <time>2022-05-01T11:55:48.558Z</time>
      </trkpt>
      <trkpt lat="41.16027" lon="20.17815">
        <ele>199.90933</ele>
        <time>2022-05-01T11:55:50.554Z</time>
      </trkpt>
      <trkpt lat="41.1603" lon="20.178">
        <ele>199.853872</ele>
        <time>2022-05-01T11:55:52.564Z</time>
      </trkpt>
      <trkpt lat="41.16032" lon="20.17786">
        <ele>199.800106</ele>
        <time>2022-05-01T11:55:54.569Z</time>
      </trkpt>
      <trkpt lat="41.16034" lon="20.1777">
        <ele>199.74501</ele>
        <time>2022-05-01T11:55:56.566Z</time>
      </trkpt>
      <trkpt lat="41.16035" lon="20.17755">
        <ele>199.690501</ele>
        <time>2022-05-01T11:55:58.546Z</time>
      </trkpt>
      <trkpt lat="41.16037" lon="20.17741">
        <ele>199.636416</ele>
        <time>2022-05-01T11:56:00.552Z</time>
      </trkpt>
      <trkpt lat="41.16038" lon="20.17725">
        <ele>199.581587</ele>
        <time>2022-05-01T11:56:02.556Z</time>
      </trkpt>
      <trkpt lat="41.16038" lon="20.1771">
        <ele>199.527631</ele>
        <time>2022-05-01T11:56:04.547Z</time>
      </trkpt>
      <trkpt lat="41.16039" lon="20.17695">
        <ele>199.472649</ele>
        <time>2022-05-01T11:56:06.573Z</time>
      </trkpt>
      <trkpt lat="41.16039" lon="20.1768">
        <ele>199.419412</ele>
        <time>2022-05-01T11:56:08.586Z</time>
      </trkpt>
      <trkpt lat="41.16039" lon="20.17665">
        <ele>199.366228</ele>
        <time>2022-05-01T11:56:10.534Z</time>
      </trkpt>
      <trkpt lat="41.16039" lon="20.1765">
        <ele>199.269202</ele>
        <time>2022-05-01T11:56:12.575Z</time>
      </trkpt>
      <trkpt lat="41.16039" lon="20.17636">
        <ele>199.162272</ele>
        <time>2022-05-01T11:56:14.585Z</time>
      </trkpt>
      <trkpt lat="41.16038" lon="20.17621">
        <ele>199.060311</ele>
        <time>2022-05-01T11:56:16.551Z</time>
      </trkpt>
      <trkpt lat="41.16038" lon="20.17607">
        <ele>198.959815</ele>
        <time>2022-05-01T11:56:18.566Z</time>
      </trkpt>
      <trkpt lat="41.16037" lon="20.17593">
        <ele>198.856332</ele>
        <time>2022-05-01T11:56:20.588Z</time>
      </trkpt>
      <trkpt lat="41.16037" lon="20.17578">
        <ele>198.751937</ele>
        <time>2022-05-01T11:56:22.569Z</time>
      </trkpt>
      <trkpt lat="41.16035" lon="20.17564">
        <ele>198.647159</ele>
        <time>2022-05-01T11:56:24.539Z</time>
      </trkpt>
      <trkpt lat="41.16033" lon="20.1755">
        <ele>198.542091</ele>
        <time>2022-05-01T11:56:26.581Z</time>
      </trkpt>
      <trkpt lat="41.16031" lon="20.17535">
        <ele>198.433845</ele>
        <time>2022-05-01T11:56:28.543Z</time>
      </trkpt>
      <trkpt lat="41.16028" lon="20.1752">
        <ele>198.323182</ele>
        <time>2022-05-01T11:56:30.546Z</time>
      </trkpt>
      <trkpt lat="41.16026" lon="20.17505">
        <ele>198.212518</ele>
        <time>2022-05-01T11:56:32.555Z</time>
      </trkpt>
      <trkpt lat="41.16023" lon="20.1749">
        <ele>198.100235</ele>
        <time>2022-05-01T11:56:34.548Z</time>
      </trkpt>
      <trkpt lat="41.1602" lon="20.17474">
        <ele>197.987931</ele>
        <time>2022-05-01T11:56:36.551Z</time>
      </trkpt>
      <trkpt lat="41.16017" lon="20.17459">
        <ele>197.873299</ele>
        <time>2022-05-01T11:56:38.579Z</time>
      </trkpt>
      <trkpt lat="41.16013" lon="20.17444">
        <ele>197.758378</ele>
        <time>2022-05-01T11:56:40.560Z</time>
      </trkpt>
      <trkpt lat="41.16009" lon="20.17428">
        <ele>197.641411</ele>
        <time>2022-05-01T11:56:42.550Z</time>
      </trkpt>
      <trkpt lat="41.16005" lon="20.17413">
        <ele>197.761057</ele>
        <time>2022-05-01T11:56:44.547Z</time>
      </trkpt>
      <trkpt lat="41.16001" lon="20.17397">
        <ele>197.88351</ele>
        <time>2022-05-01T11:56:46.551Z</time>
      </trkpt>
      <trkpt lat="41.15996" lon="20.17381">
        <ele>198.008317</ele>
        <time>2022-05-01T11:56:48.591Z</time>
      </trkpt>
      <trkpt lat="41.15991" lon="20.17365">
        <ele>198.13525</ele>
        <time>2022-05-01T11:56:50.568Z</time>
      </trkpt>
      <trkpt lat="41.15986" lon="20.17349">
        <ele>198.261321</ele>
        <time>2022-05-01T11:56:52.547Z</time>
      </trkpt>
      <trkpt lat="41.1598" lon="20.17334">
        <ele>198.38509</ele>
        <time>2022-05-01T11:56:54.556Z</time>
      </trkpt>
      <trkpt lat="41.15975" lon="20.1732">
        <ele>198.50275</ele>
        <time>2022-05-01T11:56:56.554Z</time>
      </trkpt>
      <trkpt lat="41.1597" lon="20.17306">
        <ele>198.618224</ele>
        <time>2022-05-01T11:56:58.571Z</time>
      </trkpt>
      <trkpt lat="41.15964" lon="20.17292">
        <ele>198.732609</ele>
        <time>2022-05-01T11:57:00.572Z</time>
      </trkpt>
      <trkpt lat="41.15959" lon="20.17279">
        <ele>198.843329</ele>
        <time>2022-05-01T11:57:02.554Z</time>
      </trkpt>
      <trkpt lat="41.15954" lon="20.17265">
        <ele>198.95359</ele>
        <time>2022-05-01T11:57:04.552Z</time>
      </trkpt>
      <trkpt lat="41.15948" lon="20.17254">
        <ele>199.053748</ele>
        <time>2022-05-01T11:57:06.597Z</time>
      </trkpt>
      <trkpt lat="41.15942" lon="20.17242">
        <ele>199.159994</ele>
        <time>2022-05-01T11:57:08.565Z</time>
      </trkpt>
      <trkpt lat="41.15936" lon="20.17229">
        <ele>199.271348</ele>
        <time>2022-05-01T11:57:10.567Z</time>
      </trkpt>
      <trkpt lat="41.1593" lon="20.17215">
        <ele>199.386847</ele>
        <time>2022-05-01T11:57:12.561Z</time>
      </trkpt>
      <trkpt lat="41.15924" lon="20.17201">
        <ele>199.422124</ele>
        <time>2022-05-01T11:57:14.569Z</time>
      </trkpt>
      <trkpt lat="41.15917" lon="20.17187">
        <ele>199.453668</ele>
        <time>2022-05-01T11:57:16.597Z</time>
      </trkpt>
      <trkpt lat="41.1591" lon="20.17173">
        <ele>199.485322</ele>
        <time>2022-05-01T11:57:18.551Z</time>
      </trkpt>
      <trkpt lat="41.15903" lon="20.17159">
        <ele>199.518589</ele>
        <time>2022-05-01T11:57:20.551Z</time>
      </trkpt>
      <trkpt lat="41.15895" lon="20.17144">
        <ele>199.551556</ele>
        <time>2022-05-01T11:57:22.551Z</time>
      </trkpt>
      <trkpt lat="41.15888" lon="20.17131">
        <ele>199.582999</ele>
        <time>2022-05-01T11:57:24.541Z</time>
      </trkpt>
      <trkpt lat="41.15881" lon="20.17117">
        <ele>199.613675</ele>
        <time>2022-05-01T11:57:26.555Z</time>
      </trkpt>
      <trkpt lat="41.15874" lon="20.17105">
        <ele>199.642827</ele>
        <time>2022-05-01T11:57:28.561Z</time>
      </trkpt>
      <trkpt lat="41.15868" lon="20.17093">
        <ele>199.670922</ele>
        <time>2022-05-01T11:57:30.559Z</time>
      </trkpt>
      <trkpt lat="41.15862" lon="20.17081">
        <ele>199.699017</ele>
        <time>2022-05-01T11:57:32.574Z</time>
      </trkpt>
      <trkpt lat="41.15855" lon="20.17069">
        <ele>199.726796</ele>
        <time>2022-05-01T11:57:34.555Z</time>
      </trkpt>
      <trkpt lat="41.15849" lon="20.17058">
        <ele>199.753511</ele>
        <time>2022-05-01T11:57:36.573Z</time>
      </trkpt>
      <trkpt lat="41.15843" lon="20.17047">
        <ele>199.779314</ele>
        <time>2022-05-01T11:57:38.582Z</time>
      </trkpt>
      <trkpt lat="41.15836" lon="20.17036">
        <ele>199.804995</ele>
        <time>2022-05-01T11:57:40.545Z</time>
      </trkpt>
      <trkpt lat="41.15829" lon="20.17026">
        <ele>199.831499</ele>
        <time>2022-05-01T11:57:42.553Z</time>
      </trkpt>
      <trkpt lat="41.15822" lon="20.17016">
        <ele>199.813827</ele>
        <time>2022-05-01T11:57:44.563Z</time>
      </trkpt>
      <trkpt lat="41.15816" lon="20.17006">
        <ele>199.745699</ele>
        <time>2022-05-01T11:57:46.552Z</time>
      </trkpt>
      <trkpt lat="41.15809" lon="20.16996">
        <ele>199.677116</ele>
        <time>2022-05-01T11:57:48.552Z</time>
      </trkpt>
      <trkpt lat="41.15802" lon="20.16987">
        <ele>199.609928</ele>
        <time>2022-05-01T11:57:50.575Z</time>
      </trkpt>
      <trkpt lat="41.15795" lon="20.16977">
        <ele>199.541169</ele>
        <time>2022-05-01T11:57:52.546Z</time>
      </trkpt>
      <trkpt lat="41.15787" lon="20.16968">
        <ele>199.472462</ele>
        <time>2022-05-01T11:57:54.552Z</time>
      </trkpt>
      <trkpt lat="41.1578" lon="20.16959">
        <ele>199.404096</ele>
        <time>2022-05-01T11:57:56.541Z</time>
      </trkpt>
      <trkpt lat="41.15772" lon="20.16951">
        <ele>199.338064</ele>
        <time>2022-05-01T11:57:58.562Z</time>
      </trkpt>
      <trkpt lat="41.15765" lon="20.16943">
        <ele>199.275104</ele>
        <time>2022-05-01T11:58:00.585Z</time>
      </trkpt>
      <trkpt lat="41.15758" lon="20.16935">
        <ele>199.213812</ele>
        <time>2022-05-01T11:58:02.540Z</time>
      </trkpt>
      <trkpt lat="41.15751" lon="20.16927">
        <ele>199.150976</ele>
        <time>2022-05-01T11:58:04.548Z</time>
      </trkpt>
      <trkpt lat="41.15744" lon="20.16919">
        <ele>199.084838</ele>
        <time>2022-05-01T11:58:06.557Z</time>
      </trkpt>
      <trkpt lat="41.15736" lon="20.16911">
        <ele>199.016459</ele>
        <time>2022-05-01T11:58:08.543Z</time>
      </trkpt>
      <trkpt lat="41.15727" lon="20.16903">
        <ele>198.946603</ele>
        <time>2022-05-01T11:58:10.566Z</time>
      </trkpt>
      <trkpt lat="41.15719" lon="20.16895">
        <ele>198.874674</ele>
        <time>2022-05-01T11:58:12.559Z</time>
      </trkpt>
      <trkpt lat="41.1571" lon="20.16886">
        <ele>198.797905</ele>
        <time>2022-05-01T11:58:14.566Z</time>
      </trkpt>
      <trkpt lat="41.157" lon="20.16878">
        <ele>198.720582</ele>
        <time>2022-05-01T11:58:16.551Z</time>
      </trkpt>
      <trkpt lat="41.15691" lon="20.16869">
        <ele>198.643458</ele>
        <time>2022-05-01T11:58:18.538Z</time>
      </trkpt>
      <trkpt lat="41.15681" lon="20.1686">
        <ele>198.578473</ele>
        <time>2022-05-01T11:58:20.550Z</time>
      </trkpt>
      <trkpt lat="41.15672" lon="20.16851">
        <ele>198.519768</ele>
        <time>2022-05-01T11:58:22.553Z</time>
      </trkpt>
      <trkpt lat="41.15662" lon="20.16843">
        <ele>198.460435</ele>
        <time>2022-05-01T11:58:24.572Z</time>
      </trkpt>
      <trkpt lat="41.15653" lon="20.16833">
        <ele>198.398453</ele>
        <time>2022-05-01T11:58:26.559Z</time>
      </trkpt>
      <trkpt lat="41.15644" lon="20.16824">
        <ele>198.34259</ele>
        <time>2022-05-01T11:58:28.560Z</time>
      </trkpt>
      <trkpt lat="41.15636" lon="20.16815">
        <ele>198.28625</ele>
        <time>2022-05-01T11:58:30.592Z</time>
      </trkpt>
      <trkpt lat="41.15627" lon="20.16806">
        <ele>198.227822</ele>
        <time>2022-05-01T11:58:32.544Z</time>
      </trkpt>
      <trkpt lat="41.15618" lon="20.16797">
        <ele>198.170558</ele>
        <time>2022-05-01T11:58:34.586Z</time>
      </trkpt>
      <trkpt lat="41.15608" lon="20.16787">
        <ele>198.110371</ele>
        <time>2022-05-01T11:58:36.551Z</time>
      </trkpt>
      <trkpt lat="41.15599" lon="20.16777">
        <ele>198.049141</ele>
        <time>2022-05-01T11:58:38.542Z</time>
      </trkpt>
      <trkpt lat="41.1559" lon="20.16768">
        <ele>197.98885</ele>
        <time>2022-05-01T11:58:40.560Z</time>
      </trkpt>
      <trkpt lat="41.1558" lon="20.16759">
        <ele>197.927552</ele>
        <time>2022-05-01T11:58:42.558Z</time>
      </trkpt>
      <trkpt lat="41.1557" lon="20.16749">
        <ele>197.865196</ele>
        <time>2022-05-01T11:58:44.607Z</time>
      </trkpt>
      <trkpt lat="41.1556" lon="20.1674">
        <ele>197.804123</ele>
        <time>2022-05-01T11:58:46.557Z</time>
      </trkpt>
      <trkpt lat="41.15551" lon="20.16731">
        <ele>197.745346</ele>
        <time>2022-05-01T11:58:48.551Z</time>
      </trkpt>
      <trkpt lat="41.15541" lon="20.16721">
        <ele>197.679664</ele>
        <time>2022-05-01T11:58:50.542Z</time>
      </trkpt>
      <trkpt lat="41.15531" lon="20.16713">
        <ele>197.604968</ele>
        <time>2022-05-01T11:58:52.571Z</time>
      </trkpt>
      <trkpt lat="41.15522" lon="20.16704">
        <ele>197.531817</ele>
        <time>2022-05-01T11:58:54.551Z</time>
      </trkpt>
      <trkpt lat="41.15513" lon="20.16694">
        <ele>197.459291</ele>
        <time>2022-05-01T11:58:56.551Z</time>
      </trkpt>
      <trkpt lat="41.15503" lon="20.16685">
        <ele>197.384989</ele>
        <time>2022-05-01T11:58:58.537Z</time>
      </trkpt>
      <trkpt lat="41.15494" lon="20.16675">
        <ele>197.310968</ele>
        <time>2022-05-01T11:59:00.603Z</time>
      </trkpt>
      <trkpt lat="41.15484" lon="20.16667">
        <ele>197.23938</ele>
        <time>2022-05-01T11:59:02.559Z</time>
      </trkpt>
      <trkpt lat="41.15475" lon="20.16658">
        <ele>197.167481</ele>
        <time>2022-05-01T11:59:04.550Z</time>
      </trkpt>
      <trkpt lat="41.15466" lon="20.16649">
        <ele>197.099934</ele>
        <time>2022-05-01T11:59:06.550Z</time>
      </trkpt>
      <trkpt lat="41.15458" lon="20.1664">
        <ele>197.030248</ele>
        <time>2022-05-01T11:59:08.562Z</time>
      </trkpt>
      <trkpt lat="41.15449" lon="20.16631">
        <ele>196.960354</ele>
        <time>2022-05-01T11:59:10.551Z</time>
      </trkpt>
      <trkpt lat="41.1544" lon="20.16622">
        <ele>196.890378</ele>
        <time>2022-05-01T11:59:12.565Z</time>
      </trkpt>
      <trkpt lat="41.15431" lon="20.16612">
        <ele>196.82011</ele>
        <time>2022-05-01T11:59:14.556Z</time>
      </trkpt>
      <trkpt lat="41.15422" lon="20.16604">
        <ele>196.750618</ele>
        <time>2022-05-01T11:59:16.550Z</time>
      </trkpt>
      <trkpt lat="41.15413" lon="20.16594">
        <ele>196.6779</ele>
        <time>2022-05-01T11:59:18.550Z</time>
      </trkpt>
      <trkpt lat="41.15404" lon="20.16585">
        <ele>196.606649</ele>
        <time>2022-05-01T11:59:20.555Z</time>
      </trkpt>
      <trkpt lat="41.15395" lon="20.16576">
        <ele>196.59186</ele>
        <time>2022-05-01T11:59:22.592Z</time>
      </trkpt>
      <trkpt lat="41.15385" lon="20.16566">
        <ele>196.616773</ele>
        <time>2022-05-01T11:59:24.570Z</time>
      </trkpt>
      <trkpt lat="41.15376" lon="20.16557">
        <ele>196.640372</ele>
        <time>2022-05-01T11:59:26.550Z</time>
      </trkpt>
      <trkpt lat="41.15367" lon="20.16549">
        <ele>196.663256</ele>
        <time>2022-05-01T11:59:28.547Z</time>
      </trkpt>
      <trkpt lat="41.15357" lon="20.1654">
        <ele>196.68675</ele>
        <time>2022-05-01T11:59:30.558Z</time>
      </trkpt>
      <trkpt lat="41.15348" lon="20.16532">
        <ele>196.71015</ele>
        <time>2022-05-01T11:59:32.571Z</time>
      </trkpt>
      <trkpt lat="41.15339" lon="20.16524">
        <ele>196.732184</ele>
        <time>2022-05-01T11:59:34.554Z</time>
      </trkpt>
      <trkpt lat="41.15331" lon="20.16515">
        <ele>196.754217</ele>
        <time>2022-05-01T11:59:36.547Z</time>
      </trkpt>
      <trkpt lat="41.15322" lon="20.16507">
        <ele>196.776432</ele>
        <time>2022-05-01T11:59:38.564Z</time>
      </trkpt>
      <trkpt lat="41.15313" lon="20.16498">
        <ele>196.799073</ele>
        <time>2022-05-01T11:59:40.555Z</time>
      </trkpt>
      <trkpt lat="41.15304" lon="20.16489">
        <ele>196.821525</ele>
        <time>2022-05-01T11:59:42.563Z</time>
      </trkpt>
      <trkpt lat="41.15296" lon="20.16481">
        <ele>196.843666</ele>
        <time>2022-05-01T11:59:44.580Z</time>
      </trkpt>
      <trkpt lat="41.15288" lon="20.16472">
        <ele>196.865504</ele>
        <time>2022-05-01T11:59:46.564Z</time>
      </trkpt>
      <trkpt lat="41.15279" lon="20.16464">
        <ele>196.887904</ele>
        <time>2022-05-01T11:59:48.554Z</time>
      </trkpt>
      <trkpt lat="41.1527" lon="20.16455">
        <ele>196.910211</ele>
        <time>2022-05-01T11:59:50.576Z</time>
      </trkpt>
      <trkpt lat="41.15262" lon="20.16446">
        <ele>196.932633</ele>
        <time>2022-05-01T11:59:52.555Z</time>
      </trkpt>
      <trkpt lat="41.15253" lon="20.16437">
        <ele>196.937627</ele>
        <time>2022-05-01T11:59:54.539Z</time>
      </trkpt>
      <trkpt lat="41.15243" lon="20.16428">
        <ele>196.896874</ele>
        <time>2022-05-01T11:59:56.535Z</time>
      </trkpt>
      <trkpt lat="41.15234" lon="20.1642">
        <ele>196.85601</ele>
        <time>2022-05-01T11:59:58.550Z</time>
      </trkpt>
      <trkpt lat="41.15224" lon="20.16412">
        <ele>196.8156</ele>
        <time>2022-05-01T12:00:00.538Z</time>
      </trkpt>
      <trkpt lat="41.15215" lon="20.16403">
        <ele>196.774745</ele>
        <time>2022-05-01T12:00:02.546Z</time>
      </trkpt>
      <trkpt lat="41.15205" lon="20.16394">
        <ele>196.733294</ele>
        <time>2022-05-01T12:00:04.545Z</time>
      </trkpt>
      <trkpt lat="41.15195" lon="20.16385">
        <ele>196.689014</ele>
        <time>2022-05-01T12:00:06.573Z</time>
      </trkpt>
      <trkpt lat="41.15185" lon="20.16376">
        <ele>196.644887</ele>
        <time>2022-05-01T12:00:08.547Z</time>
      </trkpt>
      <trkpt lat="41.15175" lon="20.16367">
        <ele>196.601358</ele>
        <time>2022-05-01T12:00:10.563Z</time>
      </trkpt>
      <trkpt lat="41.15165" lon="20.16358">
        <ele>196.558846</ele>
        <time>2022-05-01T12:00:12.559Z</time>
      </trkpt>
      <trkpt lat="41.15155" lon="20.16348">
        <ele>196.51586</ele>
        <time>2022-05-01T12:00:14.547Z</time>
      </trkpt>
      <trkpt lat="41.15146" lon="20.16339">
        <ele>196.473607</ele>
        <time>2022-05-01T12:00:16.554Z</time>
      </trkpt>
      <trkpt lat="41.15136" lon="20.1633">
        <ele>196.431261</ele>
        <time>2022-05-01T12:00:18.593Z</time>
      </trkpt>
      <trkpt lat="41.15126" lon="20.16321">
        <ele>196.389168</ele>
        <time>2022-05-01T12:00:20.549Z</time>
      </trkpt>
      <trkpt lat="41.15117" lon="20.16312">
        <ele>196.347102</ele>
        <time>2022-05-01T12:00:22.552Z</time>
      </trkpt>
      <trkpt lat="41.15107" lon="20.16303">
        <ele>196.295285</ele>
        <time>2022-05-01T12:00:24.560Z</time>
      </trkpt>
      <trkpt lat="41.15097" lon="20.16295">
        <ele>196.018314</ele>
        <time>2022-05-01T12:00:26.548Z</time>
      </trkpt>
      <trkpt lat="41.15088" lon="20.16287">
        <ele>195.740453</ele>
        <time>2022-05-01T12:00:28.551Z</time>
      </trkpt>
      <trkpt lat="41.15078" lon="20.16278">
        <ele>195.473581</ele>
        <time>2022-05-01T12:00:30.558Z</time>
      </trkpt>
      <trkpt lat="41.15069" lon="20.1627">
        <ele>195.20541</ele>
        <time>2022-05-01T12:00:32.547Z</time>
      </trkpt>
      <trkpt lat="41.1506" lon="20.1626">
        <ele>194.928228</ele>
        <time>2022-05-01T12:00:34.543Z</time>
      </trkpt>
      <trkpt lat="41.15051" lon="20.16252">
        <ele>194.653174</ele>
        <time>2022-05-01T12:00:36.554Z</time>
      </trkpt>
      <trkpt lat="41.15042" lon="20.16243">
        <ele>194.380063</ele>
        <time>2022-05-01T12:00:38.551Z</time>
      </trkpt>
      <trkpt lat="41.15032" lon="20.16234">
        <ele>194.101211</ele>
        <time>2022-05-01T12:00:40.589Z</time>
      </trkpt>
      <trkpt lat="41.15022" lon="20.16226">
        <ele>193.81936</ele>
        <time>2022-05-01T12:00:42.550Z</time>
      </trkpt>
      <trkpt lat="41.15013" lon="20.16218">
        <ele>193.551468</ele>
        <time>2022-05-01T12:00:44.552Z</time>
      </trkpt>
      <trkpt lat="41.15004" lon="20.1621">
        <ele>193.292605</ele>
        <time>2022-05-01T12:00:46.567Z</time>
      </trkpt>
      <trkpt lat="41.14995" lon="20.16201">
        <ele>193.030993</ele>
        <time>2022-05-01T12:00:48.570Z</time>
      </trkpt>
      <trkpt lat="41.14986" lon="20.16192">
        <ele>192.752734</ele>
        <time>2022-05-01T12:00:50.533Z</time>
      </trkpt>
      <trkpt lat="41.14976" lon="20.16183">
        <ele>192.475729</ele>
        <time>2022-05-01T12:00:52.551Z</time>
      </trkpt>
      <trkpt lat="41.14966" lon="20.16174">
        <ele>192.189862</ele>
        <time>2022-05-01T12:00:54.543Z</time>
      </trkpt>
      <trkpt lat="41.14956" lon="20.16165">
        <ele>191.928486</ele>
        <time>2022-05-01T12:00:56.572Z</time>
      </trkpt>
      <trkpt lat="41.14946" lon="20.16156">
        <ele>191.737539</ele>
        <time>2022-05-01T12:00:58.560Z</time>
      </trkpt>
      <trkpt lat="41.14936" lon="20.16148">
        <ele>191.541804</ele>
        <time>2022-05-01T12:01:00.559Z</time>
      </trkpt>
      <trkpt lat="41.14924" lon="20.16138">
        <ele>191.323362</ele>
        <time>2022-05-01T12:01:02.565Z</time>
      </trkpt>
      <trkpt lat="41.14913" lon="20.16128">
        <ele>191.104312</ele>
        <time>2022-05-01T12:01:04.577Z</time>
      </trkpt>
      <trkpt lat="41.14902" lon="20.16118">
        <ele>190.895975</ele>
        <time>2022-05-01T12:01:06.572Z</time>
      </trkpt>
      <trkpt lat="41.14891" lon="20.16108">
        <ele>190.667639</ele>
        <time>2022-05-01T12:01:08.573Z</time>
      </trkpt>
      <trkpt lat="41.14878" lon="20.16097">
        <ele>190.426567</ele>
        <time>2022-05-01T12:01:10.565Z</time>
      </trkpt>
      <trkpt lat="41.14865" lon="20.16086">
        <ele>190.180688</ele>
        <time>2022-05-01T12:01:12.546Z</time>
      </trkpt>
      <trkpt lat="41.14851" lon="20.16075">
        <ele>189.926262</ele>
        <time>2022-05-01T12:01:14.590Z</time>
      </trkpt>
      <trkpt lat="41.14838" lon="20.16064">
        <ele>189.666402</ele>
        <time>2022-05-01T12:01:16.562Z</time>
      </trkpt>
      <trkpt lat="41.14824" lon="20.16052">
        <ele>189.401267</ele>
        <time>2022-05-01T12:01:18.550Z</time>
      </trkpt>
      <trkpt lat="41.1481" lon="20.1604">
        <ele>189.134839</ele>
        <time>2022-05-01T12:01:20.592Z</time>
      </trkpt>
      <trkpt lat="41.14795" lon="20.16028">
        <ele>188.993704</ele>
        <time>2022-05-01T12:01:22.548Z</time>
      </trkpt>
      <trkpt lat="41.1478" lon="20.16017">
        <ele>188.867317</ele>
        <time>2022-05-01T12:01:24.613Z</time>
      </trkpt>
      <trkpt lat="41.14766" lon="20.16006">
        <ele>188.740885</ele>
        <time>2022-05-01T12:01:26.578Z</time>
      </trkpt>
      <trkpt lat="41.14752" lon="20.15994">
        <ele>188.617978</ele>
        <time>2022-05-01T12:01:28.557Z</time>
      </trkpt>
      <trkpt lat="41.14738" lon="20.15982">
        <ele>188.49384</ele>
        <time>2022-05-01T12:01:30.542Z</time>
      </trkpt>
      <trkpt lat="41.14724" lon="20.1597">
        <ele>188.368136</ele>
        <time>2022-05-01T12:01:32.598Z</time>
      </trkpt>
      <trkpt lat="41.14711" lon="20.15956">
        <ele>188.239054</ele>
        <time>2022-05-01T12:01:34.554Z</time>
      </trkpt>
      <trkpt lat="41.14698" lon="20.15941">
        <ele>188.110143</ele>
        <time>2022-05-01T12:01:36.569Z</time>
      </trkpt>
      <trkpt lat="41.14686" lon="20.15924">
        <ele>187.978012</ele>
        <time>2022-05-01T12:01:38.559Z</time>
      </trkpt>
      <trkpt lat="41.14676" lon="20.15906">
        <ele>187.851506</ele>
        <time>2022-05-01T12:01:40.554Z</time>
      </trkpt>
      <trkpt lat="41.14668" lon="20.15887">
        <ele>187.725653</ele>
        <time>2022-05-01T12:01:42.551Z</time>
      </trkpt>
      <trkpt lat="41.1466" lon="20.15869">
        <ele>187.579987</ele>
        <time>2022-05-01T12:01:44.547Z</time>
      </trkpt>
      <trkpt lat="41.14652" lon="20.15852">
        <ele>187.438427</ele>
        <time>2022-05-01T12:01:46.551Z</time>
      </trkpt>
      <trkpt lat="41.14644" lon="20.15835">
        <ele>187.301389</ele>
        <time>2022-05-01T12:01:48.559Z</time>
      </trkpt>
      <trkpt lat="41.14635" lon="20.15819">
        <ele>187.164114</ele>
        <time>2022-05-01T12:01:50.531Z</time>
      </trkpt>
      <trkpt lat="41.14625" lon="20.15804">
        <ele>187.029578</ele>
        <time>2022-05-01T12:01:52.567Z</time>
      </trkpt>
      <trkpt lat="41.14614" lon="20.1579">
        <ele>186.891635</ele>
        <time>2022-05-01T12:01:54.548Z</time>
      </trkpt>
      <trkpt lat="41.14602" lon="20.15777">
        <ele>186.751527</ele>
        <time>2022-05-01T12:01:56.546Z</time>
      </trkpt>
      <trkpt lat="41.1459" lon="20.15764">
        <ele>186.60973</ele>
        <time>2022-05-01T12:01:58.559Z</time>
      </trkpt>
      <trkpt lat="41.14579" lon="20.15751">
        <ele>186.470919</ele>
        <time>2022-05-01T12:02:00.555Z</time>
      </trkpt>
      <trkpt lat="41.14567" lon="20.15738">
        <ele>186.336673</ele>
        <time>2022-05-01T12:02:02.562Z</time>
      </trkpt>
      <trkpt lat="41.14556" lon="20.15726">
        <ele>186.20471</ele>
        <time>2022-05-01T12:02:04.576Z</time>
      </trkpt>
      <trkpt lat="41.14545" lon="20.15715">
        <ele>186.113354</ele>
        <time>2022-05-01T12:02:06.554Z</time>
      </trkpt>
      <trkpt lat="41.14535" lon="20.15704">
        <ele>186.10211</ele>
        <time>2022-05-01T12:02:08.547Z</time>
      </trkpt>
      <trkpt lat="41.14524" lon="20.15694">
        <ele>186.091362</ele>
        <time>2022-05-01T12:02:10.543Z</time>
      </trkpt>
      <trkpt lat="41.14515" lon="20.15683">
        <ele>186.080721</ele>
        <time>2022-05-01T12:02:12.538Z</time>
      </trkpt>
      <trkpt lat="41.14505" lon="20.15673">
        <ele>186.070379</ele>
        <time>2022-05-01T12:02:14.561Z</time>
      </trkpt>
      <trkpt lat="41.14496" lon="20.15662">
        <ele>186.06012</ele>
        <time>2022-05-01T12:02:16.554Z</time>
      </trkpt>
      <trkpt lat="41.14488" lon="20.1565">
        <ele>186.050312</ele>
        <time>2022-05-01T12:02:18.551Z</time>
      </trkpt>
      <trkpt lat="41.14481" lon="20.15639">
        <ele>186.040649</ele>
        <time>2022-05-01T12:02:20.554Z</time>
      </trkpt>
      <trkpt lat="41.14473" lon="20.15627">
        <ele>186.031109</ele>
        <time>2022-05-01T12:02:22.596Z</time>
      </trkpt>
      <trkpt lat="41.14466" lon="20.15616">
        <ele>186.021965</ele>
        <time>2022-05-01T12:02:24.570Z</time>
      </trkpt>
      <trkpt lat="41.1446" lon="20.15605">
        <ele>186.013034</ele>
        <time>2022-05-01T12:02:26.563Z</time>
      </trkpt>
      <trkpt lat="41.14454" lon="20.15593">
        <ele>186.003994</ele>
        <time>2022-05-01T12:02:28.579Z</time>
      </trkpt>
      <trkpt lat="41.14448" lon="20.15582">
        <ele>185.995461</ele>
        <time>2022-05-01T12:02:30.563Z</time>
      </trkpt>
      <trkpt lat="41.14443" lon="20.1557">
        <ele>185.986804</ele>
        <time>2022-05-01T12:02:32.553Z</time>
      </trkpt>
      <trkpt lat="41.14437" lon="20.15559">
        <ele>185.978019</ele>
        <time>2022-05-01T12:02:34.591Z</time>
      </trkpt>
      <trkpt lat="41.1443" lon="20.15548">
        <ele>185.96929</ele>
        <time>2022-05-01T12:02:36.549Z</time>
      </trkpt>
      <trkpt lat="41.14424" lon="20.15537">
        <ele>185.989442</ele>
        <time>2022-05-01T12:02:38.555Z</time>
      </trkpt>
      <trkpt lat="41.14418" lon="20.15525">
        <ele>186.026491</ele>
        <time>2022-05-01T12:02:40.552Z</time>
      </trkpt>
      <trkpt lat="41.14412" lon="20.15514">
        <ele>186.062861</ele>
        <time>2022-05-01T12:02:42.567Z</time>
      </trkpt>
      <trkpt lat="41.14406" lon="20.15503">
        <ele>186.098809</ele>
        <time>2022-05-01T12:02:44.559Z</time>
      </trkpt>
      <trkpt lat="41.144" lon="20.15493">
        <ele>186.132416</ele>
        <time>2022-05-01T12:02:46.570Z</time>
      </trkpt>
      <trkpt lat="41.14394" lon="20.15484">
        <ele>186.16612</ele>
        <time>2022-05-01T12:02:48.551Z</time>
      </trkpt>
      <trkpt lat="41.14387" lon="20.15474">
        <ele>186.200339</ele>
        <time>2022-05-01T12:02:50.546Z</time>
      </trkpt>
      <trkpt lat="41.1438" lon="20.15466">
        <ele>186.23442</ele>
        <time>2022-05-01T12:02:52.567Z</time>
      </trkpt>
      <trkpt lat="41.14373" lon="20.15457">
        <ele>186.268685</ele>
        <time>2022-05-01T12:02:54.551Z</time>
      </trkpt>
      <trkpt lat="41.14366" lon="20.15447">
        <ele>186.303445</ele>
        <time>2022-05-01T12:02:56.542Z</time>
      </trkpt>
      <trkpt lat="41.14359" lon="20.15438">
        <ele>186.33815</ele>
        <time>2022-05-01T12:02:58.553Z</time>
      </trkpt>
      <trkpt lat="41.14353" lon="20.15429">
        <ele>186.371408</ele>
        <time>2022-05-01T12:03:00.552Z</time>
      </trkpt>
      <trkpt lat="41.14346" lon="20.1542">
        <ele>186.404914</ele>
        <time>2022-05-01T12:03:02.567Z</time>
      </trkpt>
      <trkpt lat="41.1434" lon="20.15411">
        <ele>186.437243</ele>
        <time>2022-05-01T12:03:04.553Z</time>
      </trkpt>
      <trkpt lat="41.14331" lon="20.15399">
        <ele>186.482482</ele>
        <time>2022-05-01T12:03:07.561Z</time>
      </trkpt>
      <trkpt lat="41.14323" lon="20.15386">
        <ele>186.527688</ele>
        <time>2022-05-01T12:03:10.557Z</time>
      </trkpt>
      <trkpt lat="41.14315" lon="20.15374">
        <ele>186.570502</ele>
        <time>2022-05-01T12:03:13.574Z</time>
      </trkpt>
      <trkpt lat="41.14308" lon="20.15361">
        <ele>186.61502</ele>
        <time>2022-05-01T12:03:16.556Z</time>
      </trkpt>
      <trkpt lat="41.14301" lon="20.1535">
        <ele>186.667326</ele>
        <time>2022-05-01T12:03:19.557Z</time>
      </trkpt>
      <trkpt lat="41.14295" lon="20.15337">
        <ele>186.719537</ele>
        <time>2022-05-01T12:03:22.603Z</time>
      </trkpt>
      <trkpt lat="41.14288" lon="20.15324">
        <ele>186.776098</ele>
        <time>2022-05-01T12:03:25.563Z</time>
      </trkpt>
      <trkpt lat="41.14281" lon="20.15311">
        <ele>186.834632</ele>
        <time>2022-05-01T12:03:28.537Z</time>
      </trkpt>
      <trkpt lat="41.14274" lon="20.15297">
        <ele>186.894014</ele>
        <time>2022-05-01T12:03:31.559Z</time>
      </trkpt>
      <trkpt lat="41.14266" lon="20.15283">
        <ele>186.957062</ele>
        <time>2022-05-01T12:03:34.554Z</time>
      </trkpt>
      <trkpt lat="41.14258" lon="20.1527">
        <ele>187.015309</ele>
        <time>2022-05-01T12:03:37.538Z</time>
      </trkpt>
      <trkpt lat="41.14251" lon="20.15258">
        <ele>187.069592</ele>
        <time>2022-05-01T12:03:40.550Z</time>
      </trkpt>
      <trkpt lat="41.14244" lon="20.15244">
        <ele>187.126814</ele>
        <time>2022-05-01T12:03:43.559Z</time>
      </trkpt>
      <trkpt lat="41.14237" lon="20.15231">
        <ele>187.182793</ele>
        <time>2022-05-01T12:03:46.539Z</time>
      </trkpt>
      <trkpt lat="41.14229" lon="20.15219">
        <ele>187.239975</ele>
        <time>2022-05-01T12:03:49.568Z</time>
      </trkpt>
      <trkpt lat="41.14222" lon="20.15207">
        <ele>187.294847</ele>
        <time>2022-05-01T12:03:52.558Z</time>
      </trkpt>
      <trkpt lat="41.14215" lon="20.15195">
        <ele>187.349532</ele>
        <time>2022-05-01T12:03:55.546Z</time>
      </trkpt>
      <trkpt lat="41.14207" lon="20.15184">
        <ele>187.401382</ele>
        <time>2022-05-01T12:03:58.562Z</time>
      </trkpt>
      <trkpt lat="41.142" lon="20.15173">
        <ele>187.507254</ele>
        <time>2022-05-01T12:04:01.556Z</time>
      </trkpt>
      <trkpt lat="41.14193" lon="20.15162">
        <ele>187.937641</ele>
        <time>2022-05-01T12:04:04.541Z</time>
      </trkpt>
      <trkpt lat="41.14186" lon="20.15152">
        <ele>188.349011</ele>
        <time>2022-05-01T12:04:07.589Z</time>
      </trkpt>
      <trkpt lat="41.14178" lon="20.15141">
        <ele>188.790186</ele>
        <time>2022-05-01T12:04:10.562Z</time>
      </trkpt>
      <trkpt lat="41.14171" lon="20.15132">
        <ele>189.192331</ele>
        <time>2022-05-01T12:04:13.579Z</time>
      </trkpt>
      <trkpt lat="41.14163" lon="20.15123">
        <ele>189.597692</ele>
        <time>2022-05-01T12:04:16.580Z</time>
      </trkpt>
      <trkpt lat="41.14155" lon="20.15112">
        <ele>190.036701</ele>
        <time>2022-05-01T12:04:19.555Z</time>
      </trkpt>
      <trkpt lat="41.14147" lon="20.15102">
        <ele>190.467224</ele>
        <time>2022-05-01T12:04:22.543Z</time>
      </trkpt>
      <trkpt lat="41.1414" lon="20.15092">
        <ele>190.891028</ele>
        <time>2022-05-01T12:04:25.554Z</time>
      </trkpt>
      <trkpt lat="41.14133" lon="20.15082">
        <ele>191.320882</ele>
        <time>2022-05-01T12:04:28.556Z</time>
      </trkpt>
      <trkpt lat="41.14125" lon="20.15072">
        <ele>191.745136</ele>
        <time>2022-05-01T12:04:31.573Z</time>
      </trkpt>
      <trkpt lat="41.14118" lon="20.15061">
        <ele>192.161883</ele>
        <time>2022-05-01T12:04:34.571Z</time>
      </trkpt>
      <trkpt lat="41.1411" lon="20.15052">
        <ele>192.570977</ele>
        <time>2022-05-01T12:04:37.557Z</time>
      </trkpt>
      <trkpt lat="41.14103" lon="20.15043">
        <ele>192.955424</ele>
        <time>2022-05-01T12:04:40.575Z</time>
      </trkpt>
      <trkpt lat="41.14096" lon="20.15035">
        <ele>193.331278</ele>
        <time>2022-05-01T12:04:43.556Z</time>
      </trkpt>
      <trkpt lat="41.14089" lon="20.15024">
        <ele>193.756235</ele>
        <time>2022-05-01T12:04:46.539Z</time>
      </trkpt>
      <trkpt lat="41.14081" lon="20.15014">
        <ele>194.190991</ele>
        <time>2022-05-01T12:04:49.550Z</time>
      </trkpt>
      <trkpt lat="41.14075" lon="20.15004">
        <ele>194.562925</ele>
        <time>2022-05-01T12:04:52.581Z</time>
      </trkpt>
      <trkpt lat="41.14068" lon="20.14993">
        <ele>194.452492</ele>
        <time>2022-05-01T12:04:55.593Z</time>
      </trkpt>
      <trkpt lat="41.14061" lon="20.14983">
        <ele>194.349527</ele>
        <time>2022-05-01T12:04:58.555Z</time>
      </trkpt>
      <trkpt lat="41.14055" lon="20.14972">
        <ele>194.238619</ele>
        <time>2022-05-01T12:05:01.563Z</time>
      </trkpt>
      <trkpt lat="41.14047" lon="20.14961">
        <ele>194.122168</ele>
        <time>2022-05-01T12:05:04.607Z</time>
      </trkpt>
      <trkpt lat="41.1404" lon="20.14949">
        <ele>193.998781</ele>
        <time>2022-05-01T12:05:07.588Z</time>
      </trkpt>
      <trkpt lat="41.14032" lon="20.14937">
        <ele>193.874419</ele>
        <time>2022-05-01T12:05:10.557Z</time>
      </trkpt>
      <trkpt lat="41.14024" lon="20.14925">
        <ele>193.744946</ele>
        <time>2022-05-01T12:05:13.543Z</time>
      </trkpt>
      <trkpt lat="41.14015" lon="20.14913">
        <ele>193.621506</ele>
        <time>2022-05-01T12:05:16.563Z</time>
      </trkpt>
      <trkpt lat="41.14006" lon="20.14902">
        <ele>193.492344</ele>
        <time>2022-05-01T12:05:19.565Z</time>
      </trkpt>
      <trkpt lat="41.13997" lon="20.14892">
        <ele>193.364978</ele>
        <time>2022-05-01T12:05:22.557Z</time>
      </trkpt>
      <trkpt lat="41.13987" lon="20.14881">
        <ele>193.233706</ele>
        <time>2022-05-01T12:05:25.543Z</time>
      </trkpt>
      <trkpt lat="41.13978" lon="20.1487">
        <ele>193.10301</ele>
        <time>2022-05-01T12:05:28.572Z</time>
      </trkpt>
      <trkpt lat="41.13969" lon="20.14858">
        <ele>192.971696</ele>
        <time>2022-05-01T12:05:31.543Z</time>
      </trkpt>
      <trkpt lat="41.13959" lon="20.14847">
        <ele>192.835552</ele>
        <time>2022-05-01T12:05:34.570Z</time>
      </trkpt>
      <trkpt lat="41.1395" lon="20.14836">
        <ele>192.712379</ele>
        <time>2022-05-01T12:05:37.616Z</time>
      </trkpt>
      <trkpt lat="41.13942" lon="20.14827">
        <ele>192.608062</ele>
        <time>2022-05-01T12:05:40.557Z</time>
      </trkpt>
      <trkpt lat="41.13934" lon="20.14817">
        <ele>192.510254</ele>
        <time>2022-05-01T12:05:43.546Z</time>
      </trkpt>
      <trkpt lat="41.13926" lon="20.14807">
        <ele>192.412446</ele>
        <time>2022-05-01T12:05:46.549Z</time>
      </trkpt>
      <trkpt lat="41.13917" lon="20.14797">
        <ele>192.305529</ele>
        <time>2022-05-01T12:05:49.536Z</time>
      </trkpt>
      <trkpt lat="41.13909" lon="20.14786">
        <ele>192.201174</ele>
        <time>2022-05-01T12:05:52.554Z</time>
      </trkpt>
      <trkpt lat="41.13901" lon="20.14775">
        <ele>192.092601</ele>
        <time>2022-05-01T12:05:55.555Z</time>
      </trkpt>
      <trkpt lat="41.13892" lon="20.14764">
        <ele>191.984363</ele>
        <time>2022-05-01T12:05:58.567Z</time>
      </trkpt>
      <trkpt lat="41.13884" lon="20.14751">
        <ele>191.87153</ele>
        <time>2022-05-01T12:06:01.555Z</time>
      </trkpt>
      <trkpt lat="41.13876" lon="20.14739">
        <ele>191.758228</ele>
        <time>2022-05-01T12:06:04.563Z</time>
      </trkpt>
      <trkpt lat="41.13869" lon="20.14726">
        <ele>191.647097</ele>
        <time>2022-05-01T12:06:07.555Z</time>
      </trkpt>
      <trkpt lat="41.13861" lon="20.14714">
        <ele>191.535966</ele>
        <time>2022-05-01T12:06:10.584Z</time>
      </trkpt>
      <trkpt lat="41.13854" lon="20.14702">
        <ele>191.431538</ele>
        <time>2022-05-01T12:06:13.558Z</time>
      </trkpt>
      <trkpt lat="41.13846" lon="20.1469">
        <ele>191.324856</ele>
        <time>2022-05-01T12:06:16.560Z</time>
      </trkpt>
      <trkpt lat="41.13839" lon="20.14678">
        <ele>191.21812</ele>
        <time>2022-05-01T12:06:19.554Z</time>
      </trkpt>
      <trkpt lat="41.13831" lon="20.14665">
        <ele>191.103575</ele>
        <time>2022-05-01T12:06:22.549Z</time>
      </trkpt>
      <trkpt lat="41.13825" lon="20.14656">
        <ele>190.976691</ele>
        <time>2022-05-01T12:06:24.563Z</time>
      </trkpt>
      <trkpt lat="41.13818" lon="20.14646">
        <ele>190.751502</ele>
        <time>2022-05-01T12:06:26.551Z</time>
      </trkpt>
      <trkpt lat="41.13811" lon="20.14635">
        <ele>190.509135</ele>
        <time>2022-05-01T12:06:28.561Z</time>
      </trkpt>
      <trkpt lat="41.13803" lon="20.14623">
        <ele>190.2479</ele>
        <time>2022-05-01T12:06:30.559Z</time>
      </trkpt>
      <trkpt lat="41.13794" lon="20.14611">
        <ele>189.97166</ele>
        <time>2022-05-01T12:06:32.561Z</time>
      </trkpt>
      <trkpt lat="41.13785" lon="20.14597">
        <ele>189.672883</ele>
        <time>2022-05-01T12:06:34.552Z</time>
      </trkpt>
      <trkpt lat="41.13776" lon="20.14583">
        <ele>189.361977</ele>
        <time>2022-05-01T12:06:36.558Z</time>
      </trkpt>
      <trkpt lat="41.13766" lon="20.14568">
        <ele>189.031271</ele>
        <time>2022-05-01T12:06:38.553Z</time>
      </trkpt>
      <trkpt lat="41.13756" lon="20.14553">
        <ele>188.705493</ele>
        <time>2022-05-01T12:06:40.560Z</time>
      </trkpt>
      <trkpt lat="41.13746" lon="20.14538">
        <ele>188.374331</ele>
        <time>2022-05-01T12:06:42.547Z</time>
      </trkpt>
      <trkpt lat="41.13736" lon="20.14524">
        <ele>188.04603</ele>
        <time>2022-05-01T12:06:44.557Z</time>
      </trkpt>
      <trkpt lat="41.13725" lon="20.14509">
        <ele>187.708702</ele>
        <time>2022-05-01T12:06:46.560Z</time>
      </trkpt>
      <trkpt lat="41.13714" lon="20.14494">
        <ele>187.354438</ele>
        <time>2022-05-01T12:06:48.552Z</time>
      </trkpt>
      <trkpt lat="41.13701" lon="20.14479">
        <ele>186.868664</ele>
        <time>2022-05-01T12:06:50.545Z</time>
      </trkpt>
      <trkpt lat="41.13689" lon="20.14463">
        <ele>186.150623</ele>
        <time>2022-05-01T12:06:52.567Z</time>
      </trkpt>
      <trkpt lat="41.13676" lon="20.14446">
        <ele>185.417107</ele>
        <time>2022-05-01T12:06:54.555Z</time>
      </trkpt>
      <trkpt lat="41.13663" lon="20.1443">
        <ele>184.677595</ele>
        <time>2022-05-01T12:06:56.537Z</time>
      </trkpt>
      <trkpt lat="41.1365" lon="20.14414">
        <ele>183.939349</ele>
        <time>2022-05-01T12:06:58.551Z</time>
      </trkpt>
      <trkpt lat="41.13637" lon="20.14398">
        <ele>183.198061</ele>
        <time>2022-05-01T12:07:00.542Z</time>
      </trkpt>
      <trkpt lat="41.13631" lon="20.1439">
        <ele>182.819657</ele>
        <time>2022-05-01T12:07:01.565Z</time>
      </trkpt>
      <trkpt lat="41.13624" lon="20.14381">
        <ele>182.441253</ele>
        <time>2022-05-01T12:07:02.584Z</time>
      </trkpt>
      <trkpt lat="41.13611" lon="20.14365">
        <ele>181.6957</ele>
        <time>2022-05-01T12:07:04.555Z</time>
      </trkpt>
      <trkpt lat="41.13604" lon="20.14357">
        <ele>181.32336</ele>
        <time>2022-05-01T12:07:05.558Z</time>
      </trkpt>
      <trkpt lat="41.13598" lon="20.14349">
        <ele>180.942829</ele>
        <time>2022-05-01T12:07:06.566Z</time>
      </trkpt>
      <trkpt lat="41.13591" lon="20.1434">
        <ele>180.553656</ele>
        <time>2022-05-01T12:07:07.552Z</time>
      </trkpt>
      <trkpt lat="41.13584" lon="20.14331">
        <ele>180.160649</ele>
        <time>2022-05-01T12:07:08.596Z</time>
      </trkpt>
      <trkpt lat="41.13577" lon="20.14323">
        <ele>179.773655</ele>
        <time>2022-05-01T12:07:09.546Z</time>
      </trkpt>
      <trkpt lat="41.1357" lon="20.14315">
        <ele>179.403832</ele>
        <time>2022-05-01T12:07:10.562Z</time>
      </trkpt>
      <trkpt lat="41.13564" lon="20.14306">
        <ele>179.046632</ele>
        <time>2022-05-01T12:07:11.555Z</time>
      </trkpt>
      <trkpt lat="41.13557" lon="20.14298">
        <ele>178.691432</ele>
        <time>2022-05-01T12:07:12.569Z</time>
      </trkpt>
      <trkpt lat="41.1355" lon="20.14289">
        <ele>178.333419</ele>
        <time>2022-05-01T12:07:13.566Z</time>
      </trkpt>
      <trkpt lat="41.13543" lon="20.14281">
        <ele>177.978218</ele>
        <time>2022-05-01T12:07:14.569Z</time>
      </trkpt>
      <trkpt lat="41.13537" lon="20.14272">
        <ele>177.623795</ele>
        <time>2022-05-01T12:07:15.540Z</time>
      </trkpt>
      <trkpt lat="41.1353" lon="20.14264">
        <ele>177.274159</ele>
        <time>2022-05-01T12:07:16.539Z</time>
      </trkpt>
      <trkpt lat="41.13524" lon="20.14256">
        <ele>176.926542</ele>
        <time>2022-05-01T12:07:17.560Z</time>
      </trkpt>
      <trkpt lat="41.13511" lon="20.14239">
        <ele>176.244906</ele>
        <time>2022-05-01T12:07:19.616Z</time>
      </trkpt>
      <trkpt lat="41.13498" lon="20.14223">
        <ele>175.568063</ele>
        <time>2022-05-01T12:07:21.570Z</time>
      </trkpt>
      <trkpt lat="41.13486" lon="20.14207">
        <ele>174.896011</ele>
        <time>2022-05-01T12:07:23.552Z</time>
      </trkpt>
      <trkpt lat="41.13474" lon="20.14191">
        <ele>174.239798</ele>
        <time>2022-05-01T12:07:25.563Z</time>
      </trkpt>
      <trkpt lat="41.13462" lon="20.14176">
        <ele>173.60458</ele>
        <time>2022-05-01T12:07:27.554Z</time>
      </trkpt>
      <trkpt lat="41.13452" lon="20.14161">
        <ele>173.019561</ele>
        <time>2022-05-01T12:07:29.567Z</time>
      </trkpt>
      <trkpt lat="41.13442" lon="20.14145">
        <ele>172.531369</ele>
        <time>2022-05-01T12:07:31.559Z</time>
      </trkpt>
      <trkpt lat="41.13432" lon="20.14129">
        <ele>172.182511</ele>
        <time>2022-05-01T12:07:33.565Z</time>
      </trkpt>
      <trkpt lat="41.13423" lon="20.14113">
        <ele>171.848699</ele>
        <time>2022-05-01T12:07:35.557Z</time>
      </trkpt>
      <trkpt lat="41.13414" lon="20.14099">
        <ele>171.525782</ele>
        <time>2022-05-01T12:07:37.555Z</time>
      </trkpt>
      <trkpt lat="41.13406" lon="20.14084">
        <ele>171.209763</ele>
        <time>2022-05-01T12:07:39.555Z</time>
      </trkpt>
      <trkpt lat="41.13397" lon="20.14069">
        <ele>170.892348</ele>
        <time>2022-05-01T12:07:41.592Z</time>
      </trkpt>
      <trkpt lat="41.13389" lon="20.14056">
        <ele>170.588376</ele>
        <time>2022-05-01T12:07:43.569Z</time>
      </trkpt>
      <trkpt lat="41.13381" lon="20.14042">
        <ele>170.294203</ele>
        <time>2022-05-01T12:07:45.531Z</time>
      </trkpt>
      <trkpt lat="41.13373" lon="20.14029">
        <ele>170.006808</ele>
        <time>2022-05-01T12:07:47.550Z</time>
      </trkpt>
      <trkpt lat="41.13365" lon="20.14017">
        <ele>169.736991</ele>
        <time>2022-05-01T12:07:49.565Z</time>
      </trkpt>
      <trkpt lat="41.13358" lon="20.14006">
        <ele>169.473478</ele>
        <time>2022-05-01T12:07:51.567Z</time>
      </trkpt>
      <trkpt lat="41.1335" lon="20.13994">
        <ele>169.216057</ele>
        <time>2022-05-01T12:07:53.566Z</time>
      </trkpt>
      <trkpt lat="41.13343" lon="20.13983">
        <ele>168.964043</ele>
        <time>2022-05-01T12:07:55.557Z</time>
      </trkpt>
      <trkpt lat="41.13336" lon="20.13972">
        <ele>168.721508</ele>
        <time>2022-05-01T12:07:57.567Z</time>
      </trkpt>
      <trkpt lat="41.1333" lon="20.13962">
        <ele>168.603606</ele>
        <time>2022-05-01T12:07:59.556Z</time>
      </trkpt>
      <trkpt lat="41.13324" lon="20.13951">
        <ele>168.588527</ele>
        <time>2022-05-01T12:08:01.551Z</time>
      </trkpt>
      <trkpt lat="41.13318" lon="20.13941">
        <ele>168.573454</ele>
        <time>2022-05-01T12:08:03.541Z</time>
      </trkpt>
      <trkpt lat="41.13312" lon="20.13931">
        <ele>168.5582</ele>
        <time>2022-05-01T12:08:05.545Z</time>
      </trkpt>
      <trkpt lat="41.13305" lon="20.1392">
        <ele>168.542483</ele>
        <time>2022-05-01T12:08:07.543Z</time>
      </trkpt>
      <trkpt lat="41.13299" lon="20.1391">
        <ele>168.527119</ele>
        <time>2022-05-01T12:08:09.580Z</time>
      </trkpt>
      <trkpt lat="41.13293" lon="20.139">
        <ele>168.512882</ele>
        <time>2022-05-01T12:08:11.563Z</time>
      </trkpt>
      <trkpt lat="41.13285" lon="20.13886">
        <ele>168.491795</ele>
        <time>2022-05-01T12:08:14.548Z</time>
      </trkpt>
      <trkpt lat="41.13279" lon="20.13876">
        <ele>168.476726</ele>
        <time>2022-05-01T12:08:16.539Z</time>
      </trkpt>
      <trkpt lat="41.13272" lon="20.13865">
        <ele>168.461286</ele>
        <time>2022-05-01T12:08:18.544Z</time>
      </trkpt>
      <trkpt lat="41.13266" lon="20.13855">
        <ele>168.445846</ele>
        <time>2022-05-01T12:08:20.579Z</time>
      </trkpt>
      <trkpt lat="41.1326" lon="20.13844">
        <ele>168.4304</ele>
        <time>2022-05-01T12:08:22.572Z</time>
      </trkpt>
      <trkpt lat="41.13253" lon="20.13834">
        <ele>168.414402</ele>
        <time>2022-05-01T12:08:24.555Z</time>
      </trkpt>
      <trkpt lat="41.13247" lon="20.13823">
        <ele>168.398762</ele>
        <time>2022-05-01T12:08:26.556Z</time>
      </trkpt>
      <trkpt lat="41.1324" lon="20.13812">
        <ele>168.382659</ele>
        <time>2022-05-01T12:08:28.547Z</time>
      </trkpt>
      <trkpt lat="41.13233" lon="20.13802">
        <ele>168.36628</ele>
        <time>2022-05-01T12:08:30.563Z</time>
      </trkpt>
      <trkpt lat="41.13227" lon="20.13791">
        <ele>168.350275</ele>
        <time>2022-05-01T12:08:32.552Z</time>
      </trkpt>
      <trkpt lat="41.1322" lon="20.1378">
        <ele>168.331362</ele>
        <time>2022-05-01T12:08:34.554Z</time>
      </trkpt>
      <trkpt lat="41.13214" lon="20.1377">
        <ele>168.270628</ele>
        <time>2022-05-01T12:08:36.548Z</time>
      </trkpt>
      <trkpt lat="41.13207" lon="20.13759">
        <ele>168.209976</ele>
        <time>2022-05-01T12:08:38.565Z</time>
      </trkpt>
      <trkpt lat="41.13201" lon="20.13748">
        <ele>168.146468</ele>
        <time>2022-05-01T12:08:40.551Z</time>
      </trkpt>
      <trkpt lat="41.13194" lon="20.13737">
        <ele>168.083312</ele>
        <time>2022-05-01T12:08:42.557Z</time>
      </trkpt>
      <trkpt lat="41.13188" lon="20.13725">
        <ele>168.019789</ele>
        <time>2022-05-01T12:08:44.556Z</time>
      </trkpt>
      <trkpt lat="41.13182" lon="20.13713">
        <ele>167.956537</ele>
        <time>2022-05-01T12:08:46.551Z</time>
      </trkpt>
      <trkpt lat="41.13176" lon="20.13701">
        <ele>167.892042</ele>
        <time>2022-05-01T12:08:48.572Z</time>
      </trkpt>
      <trkpt lat="41.13171" lon="20.13688">
        <ele>167.825842</ele>
        <time>2022-05-01T12:08:50.544Z</time>
      </trkpt>
      <trkpt lat="41.13165" lon="20.13676">
        <ele>167.761576</ele>
        <time>2022-05-01T12:08:52.540Z</time>
      </trkpt>
      <trkpt lat="41.1316" lon="20.13664">
        <ele>167.698843</ele>
        <time>2022-05-01T12:08:54.560Z</time>
      </trkpt>
      <trkpt lat="41.13155" lon="20.13652">
        <ele>167.637788</ele>
        <time>2022-05-01T12:08:56.565Z</time>
      </trkpt>
      <trkpt lat="41.1315" lon="20.13641">
        <ele>167.578781</ele>
        <time>2022-05-01T12:08:58.555Z</time>
      </trkpt>
      <trkpt lat="41.13145" lon="20.13629">
        <ele>167.52063</ele>
        <time>2022-05-01T12:09:00.548Z</time>
      </trkpt>
      <trkpt lat="41.1314" lon="20.13617">
        <ele>167.461234</ele>
        <time>2022-05-01T12:09:02.564Z</time>
      </trkpt>
      <trkpt lat="41.13135" lon="20.13606">
        <ele>167.402803</ele>
        <time>2022-05-01T12:09:04.552Z</time>
      </trkpt>
      <trkpt lat="41.1313" lon="20.13595">
        <ele>167.342718</ele>
        <time>2022-05-01T12:09:06.555Z</time>
      </trkpt>
      <trkpt lat="41.13125" lon="20.13583">
        <ele>167.280977</ele>
        <time>2022-05-01T12:09:08.553Z</time>
      </trkpt>
      <trkpt lat="41.1312" lon="20.13571">
        <ele>167.234133</ele>
        <time>2022-05-01T12:09:10.560Z</time>
      </trkpt>
      <trkpt lat="41.13115" lon="20.1356">
        <ele>167.191658</ele>
        <time>2022-05-01T12:09:12.548Z</time>
      </trkpt>
      <trkpt lat="41.13112" lon="20.13548">
        <ele>167.152546</ele>
        <time>2022-05-01T12:09:14.549Z</time>
      </trkpt>
      <trkpt lat="41.13106" lon="20.13537">
        <ele>167.106912</ele>
        <time>2022-05-01T12:09:16.565Z</time>
      </trkpt>
      <trkpt lat="41.131" lon="20.13525">
        <ele>167.061278</ele>
        <time>2022-05-01T12:09:18.555Z</time>
      </trkpt>
      <trkpt lat="41.13095" lon="20.13513">
        <ele>167.016875</ele>
        <time>2022-05-01T12:09:20.541Z</time>
      </trkpt>
      <trkpt lat="41.1309" lon="20.13501">
        <ele>166.972526</ele>
        <time>2022-05-01T12:09:22.552Z</time>
      </trkpt>
      <trkpt lat="41.13085" lon="20.1349">
        <ele>166.929404</ele>
        <time>2022-05-01T12:09:24.563Z</time>
      </trkpt>
      <trkpt lat="41.1308" lon="20.13479">
        <ele>166.88728</ele>
        <time>2022-05-01T12:09:26.558Z</time>
      </trkpt>
      <trkpt lat="41.13074" lon="20.13468">
        <ele>166.845358</ele>
        <time>2022-05-01T12:09:28.580Z</time>
      </trkpt>
      <trkpt lat="41.13069" lon="20.13458">
        <ele>166.804277</ele>
        <time>2022-05-01T12:09:30.548Z</time>
      </trkpt>
      <trkpt lat="41.13064" lon="20.13447">
        <ele>166.764489</ele>
        <time>2022-05-01T12:09:32.553Z</time>
      </trkpt>
      <trkpt lat="41.13058" lon="20.13437">
        <ele>166.723439</ele>
        <time>2022-05-01T12:09:34.547Z</time>
      </trkpt>
      <trkpt lat="41.13053" lon="20.13427">
        <ele>166.681064</ele>
        <time>2022-05-01T12:09:36.555Z</time>
      </trkpt>
      <trkpt lat="41.13046" lon="20.13416">
        <ele>166.637929</ele>
        <time>2022-05-01T12:09:38.571Z</time>
      </trkpt>
      <trkpt lat="41.13039" lon="20.13406">
        <ele>166.593235</ele>
        <time>2022-05-01T12:09:40.558Z</time>
      </trkpt>
      <trkpt lat="41.13032" lon="20.13396">
        <ele>166.548541</ele>
        <time>2022-05-01T12:09:42.547Z</time>
      </trkpt>
      <trkpt lat="41.13025" lon="20.13386">
        <ele>166.502182</ele>
        <time>2022-05-01T12:09:44.562Z</time>
      </trkpt>
      <trkpt lat="41.13017" lon="20.13376">
        <ele>166.608772</ele>
        <time>2022-05-01T12:09:46.570Z</time>
      </trkpt>
      <trkpt lat="41.13009" lon="20.13366">
        <ele>166.752253</ele>
        <time>2022-05-01T12:09:48.548Z</time>
      </trkpt>
      <trkpt lat="41.13001" lon="20.13357">
        <ele>166.894451</ele>
        <time>2022-05-01T12:09:50.592Z</time>
      </trkpt>
      <trkpt lat="41.12994" lon="20.13348">
        <ele>167.033561</ele>
        <time>2022-05-01T12:09:52.559Z</time>
      </trkpt>
      <trkpt lat="41.12987" lon="20.13338">
        <ele>167.174069</ele>
        <time>2022-05-01T12:09:54.559Z</time>
      </trkpt>
      <trkpt lat="41.1298" lon="20.13327">
        <ele>167.31302</ele>
        <time>2022-05-01T12:09:56.571Z</time>
      </trkpt>
      <trkpt lat="41.12974" lon="20.13317">
        <ele>167.450046</ele>
        <time>2022-05-01T12:09:58.588Z</time>
      </trkpt>
      <trkpt lat="41.12968" lon="20.13306">
        <ele>167.587092</ele>
        <time>2022-05-01T12:10:00.555Z</time>
      </trkpt>
      <trkpt lat="41.12962" lon="20.13295">
        <ele>167.728251</ele>
        <time>2022-05-01T12:10:02.559Z</time>
      </trkpt>
      <trkpt lat="41.12956" lon="20.13284">
        <ele>167.861282</ele>
        <time>2022-05-01T12:10:04.563Z</time>
      </trkpt>
      <trkpt lat="41.12951" lon="20.13273">
        <ele>167.995341</ele>
        <time>2022-05-01T12:10:06.561Z</time>
      </trkpt>
      <trkpt lat="41.12945" lon="20.13261">
        <ele>168.141388</ele>
        <time>2022-05-01T12:10:08.543Z</time>
      </trkpt>
      <trkpt lat="41.1294" lon="20.13249">
        <ele>168.284809</ele>
        <time>2022-05-01T12:10:10.542Z</time>
      </trkpt>
      <trkpt lat="41.12934" lon="20.13237">
        <ele>168.422819</ele>
        <time>2022-05-01T12:10:12.555Z</time>
      </trkpt>
      <trkpt lat="41.12928" lon="20.13227">
        <ele>168.555753</ele>
        <time>2022-05-01T12:10:14.555Z</time>
      </trkpt>
      <trkpt lat="41.12923" lon="20.13216">
        <ele>168.688016</ele>
        <time>2022-05-01T12:10:16.556Z</time>
      </trkpt>
      <trkpt lat="41.12917" lon="20.13206">
        <ele>168.820278</ele>
        <time>2022-05-01T12:10:18.547Z</time>
      </trkpt>
      <trkpt lat="41.12911" lon="20.13196">
        <ele>168.909549</ele>
        <time>2022-05-01T12:10:20.581Z</time>
      </trkpt>
      <trkpt lat="41.12905" lon="20.13186">
        <ele>168.777949</ele>
        <time>2022-05-01T12:10:22.555Z</time>
      </trkpt>
      <trkpt lat="41.12898" lon="20.13176">
        <ele>168.643537</ele>
        <time>2022-05-01T12:10:24.557Z</time>
      </trkpt>
      <trkpt lat="41.12892" lon="20.13167">
        <ele>168.510464</ele>
        <time>2022-05-01T12:10:26.565Z</time>
      </trkpt>
      <trkpt lat="41.12885" lon="20.13158">
        <ele>168.379821</ele>
        <time>2022-05-01T12:10:28.546Z</time>
      </trkpt>
      <trkpt lat="41.12879" lon="20.13147">
        <ele>168.242437</ele>
        <time>2022-05-01T12:10:30.559Z</time>
      </trkpt>
      <trkpt lat="41.12873" lon="20.13136">
        <ele>168.099482</ele>
        <time>2022-05-01T12:10:32.545Z</time>
      </trkpt>
      <trkpt lat="41.12867" lon="20.13124">
        <ele>167.94966</ele>
        <time>2022-05-01T12:10:34.567Z</time>
      </trkpt>
      <trkpt lat="41.12861" lon="20.13112">
        <ele>167.805517</ele>
        <time>2022-05-01T12:10:36.563Z</time>
      </trkpt>
      <trkpt lat="41.12857" lon="20.13097">
        <ele>167.642653</ele>
        <time>2022-05-01T12:10:38.558Z</time>
      </trkpt>
      <trkpt lat="41.12852" lon="20.13082">
        <ele>167.475069</ele>
        <time>2022-05-01T12:10:40.587Z</time>
      </trkpt>
      <trkpt lat="41.12847" lon="20.13067">
        <ele>167.301789</ele>
        <time>2022-05-01T12:10:42.553Z</time>
      </trkpt>
      <trkpt lat="41.12842" lon="20.13052">
        <ele>167.134058</ele>
        <time>2022-05-01T12:10:44.567Z</time>
      </trkpt>
      <trkpt lat="41.12837" lon="20.13037">
        <ele>166.965549</ele>
        <time>2022-05-01T12:10:46.555Z</time>
      </trkpt>
      <trkpt lat="41.12831" lon="20.13022">
        <ele>166.800744</ele>
        <time>2022-05-01T12:10:48.540Z</time>
      </trkpt>
      <trkpt lat="41.12826" lon="20.13008">
        <ele>166.636189</ele>
        <time>2022-05-01T12:10:50.605Z</time>
      </trkpt>
      <trkpt lat="41.12821" lon="20.12994">
        <ele>166.475579</ele>
        <time>2022-05-01T12:10:52.567Z</time>
      </trkpt>
      <trkpt lat="41.12817" lon="20.1298">
        <ele>166.541359</ele>
        <time>2022-05-01T12:10:54.586Z</time>
      </trkpt>
      <trkpt lat="41.12812" lon="20.12966">
        <ele>166.612293</ele>
        <time>2022-05-01T12:10:56.552Z</time>
      </trkpt>
      <trkpt lat="41.12807" lon="20.12951">
        <ele>166.682419</ele>
        <time>2022-05-01T12:10:58.555Z</time>
      </trkpt>
      <trkpt lat="41.12802" lon="20.12937">
        <ele>166.753109</ele>
        <time>2022-05-01T12:11:00.546Z</time>
      </trkpt>
      <trkpt lat="41.12797" lon="20.12923">
        <ele>166.821407</ele>
        <time>2022-05-01T12:11:02.545Z</time>
      </trkpt>
      <trkpt lat="41.12793" lon="20.12909">
        <ele>166.888473</ele>
        <time>2022-05-01T12:11:04.559Z</time>
      </trkpt>
      <trkpt lat="41.12788" lon="20.12895">
        <ele>166.955949</ele>
        <time>2022-05-01T12:11:06.539Z</time>
      </trkpt>
      <trkpt lat="41.12784" lon="20.12881">
        <ele>167.022196</ele>
        <time>2022-05-01T12:11:08.539Z</time>
      </trkpt>
      <trkpt lat="41.1278" lon="20.12868">
        <ele>167.086644</ele>
        <time>2022-05-01T12:11:10.552Z</time>
      </trkpt>
      <trkpt lat="41.12775" lon="20.12855">
        <ele>167.149391</ele>
        <time>2022-05-01T12:11:12.562Z</time>
      </trkpt>
      <trkpt lat="41.12771" lon="20.12842">
        <ele>167.211733</ele>
        <time>2022-05-01T12:11:14.538Z</time>
      </trkpt>
      <trkpt lat="41.12767" lon="20.12829">
        <ele>167.273602</ele>
        <time>2022-05-01T12:11:16.587Z</time>
      </trkpt>
      <trkpt lat="41.12762" lon="20.12817">
        <ele>167.335085</ele>
        <time>2022-05-01T12:11:18.538Z</time>
      </trkpt>
      <trkpt lat="41.12758" lon="20.12805">
        <ele>167.395908</ele>
        <time>2022-05-01T12:11:20.570Z</time>
      </trkpt>
      <trkpt lat="41.12753" lon="20.12791">
        <ele>167.460356</ele>
        <time>2022-05-01T12:11:22.550Z</time>
      </trkpt>
      <trkpt lat="41.12749" lon="20.12778">
        <ele>167.523751</ele>
        <time>2022-05-01T12:11:24.558Z</time>
      </trkpt>
      <trkpt lat="41.12745" lon="20.12765">
        <ele>167.585823</ele>
        <time>2022-05-01T12:11:26.536Z</time>
      </trkpt>
      <trkpt lat="41.1274" lon="20.12752">
        <ele>167.649487</ele>
        <time>2022-05-01T12:11:28.542Z</time>
      </trkpt>
      <trkpt lat="41.12736" lon="20.12738">
        <ele>167.712583</ele>
        <time>2022-05-01T12:11:30.563Z</time>
      </trkpt>
      <trkpt lat="41.12731" lon="20.12725">
        <ele>167.775679</ele>
        <time>2022-05-01T12:11:32.553Z</time>
      </trkpt>
      <trkpt lat="41.12727" lon="20.12711">
        <ele>167.838946</ele>
        <time>2022-05-01T12:11:34.548Z</time>
      </trkpt>
      <trkpt lat="41.12723" lon="20.12698">
        <ele>167.902212</ele>
        <time>2022-05-01T12:11:36.569Z</time>
      </trkpt>
      <trkpt lat="41.12718" lon="20.12684">
        <ele>167.966649</ele>
        <time>2022-05-01T12:11:38.585Z</time>
      </trkpt>
      <trkpt lat="41.12714" lon="20.12671">
        <ele>168.030094</ele>
        <time>2022-05-01T12:11:40.553Z</time>
      </trkpt>
      <trkpt lat="41.12709" lon="20.12657">
        <ele>168.093421</ele>
        <time>2022-05-01T12:11:42.557Z</time>
      </trkpt>
      <trkpt lat="41.12705" lon="20.12644">
        <ele>168.155497</ele>
        <time>2022-05-01T12:11:44.550Z</time>
      </trkpt>
      <trkpt lat="41.12701" lon="20.12631">
        <ele>168.217803</ele>
        <time>2022-05-01T12:11:46.544Z</time>
      </trkpt>
      <trkpt lat="41.12696" lon="20.12618">
        <ele>168.279165</ele>
        <time>2022-05-01T12:11:48.554Z</time>
      </trkpt>
      <trkpt lat="41.12692" lon="20.12605">
        <ele>168.339034</ele>
        <time>2022-05-01T12:11:50.555Z</time>
      </trkpt>
      <trkpt lat="41.12688" lon="20.12593">
        <ele>168.397326</ele>
        <time>2022-05-01T12:11:52.558Z</time>
      </trkpt>
      <trkpt lat="41.12683" lon="20.12581">
        <ele>168.455466</ele>
        <time>2022-05-01T12:11:54.560Z</time>
      </trkpt>
      <trkpt lat="41.12679" lon="20.12569">
        <ele>168.511165</ele>
        <time>2022-05-01T12:11:56.546Z</time>
      </trkpt>
      <trkpt lat="41.12675" lon="20.12557">
        <ele>168.567648</ele>
        <time>2022-05-01T12:11:58.539Z</time>
      </trkpt>
      <trkpt lat="41.12671" lon="20.12545">
        <ele>168.613668</ele>
        <time>2022-05-01T12:12:00.584Z</time>
      </trkpt>
      <trkpt lat="41.12666" lon="20.12534">
        <ele>168.659706</ele>
        <time>2022-05-01T12:12:02.572Z</time>
      </trkpt>
      <trkpt lat="41.12661" lon="20.12523">
        <ele>168.704398</ele>
        <time>2022-05-01T12:12:04.542Z</time>
      </trkpt>
      <trkpt lat="41.12656" lon="20.12511">
        <ele>168.748927</ele>
        <time>2022-05-01T12:12:06.556Z</time>
      </trkpt>
      <trkpt lat="41.12651" lon="20.125">
        <ele>168.792856</ele>
        <time>2022-05-01T12:12:08.553Z</time>
      </trkpt>
      <trkpt lat="41.12647" lon="20.12489">
        <ele>168.837084</ele>
        <time>2022-05-01T12:12:10.596Z</time>
      </trkpt>
      <trkpt lat="41.12641" lon="20.12479">
        <ele>168.880734</ele>
        <time>2022-05-01T12:12:12.562Z</time>
      </trkpt>
      <trkpt lat="41.12636" lon="20.12469">
        <ele>168.923554</ele>
        <time>2022-05-01T12:12:14.544Z</time>
      </trkpt>
      <trkpt lat="41.12631" lon="20.12458">
        <ele>168.965407</ele>
        <time>2022-05-01T12:12:16.572Z</time>
      </trkpt>
      <trkpt lat="41.12624" lon="20.12445">
        <ele>169.024492</ele>
        <time>2022-05-01T12:12:19.546Z</time>
      </trkpt>
      <trkpt lat="41.12617" lon="20.12431">
        <ele>169.081154</ele>
        <time>2022-05-01T12:12:22.573Z</time>
      </trkpt>
      <trkpt lat="41.12611" lon="20.12418">
        <ele>169.135023</ele>
        <time>2022-05-01T12:12:25.570Z</time>
      </trkpt>
      <trkpt lat="41.12605" lon="20.12405">
        <ele>169.184339</ele>
        <time>2022-05-01T12:12:28.547Z</time>
      </trkpt>
      <trkpt lat="41.12598" lon="20.12394">
        <ele>169.233747</ele>
        <time>2022-05-01T12:12:31.547Z</time>
      </trkpt>
      <trkpt lat="41.12593" lon="20.12383">
        <ele>169.27887</ele>
        <time>2022-05-01T12:12:34.547Z</time>
      </trkpt>
      <trkpt lat="41.12588" lon="20.12373">
        <ele>169.321259</ele>
        <time>2022-05-01T12:12:37.539Z</time>
      </trkpt>
      <trkpt lat="41.12582" lon="20.1236">
        <ele>169.374003</ele>
        <time>2022-05-01T12:12:41.540Z</time>
      </trkpt>
      <trkpt lat="41.12577" lon="20.12346">
        <ele>169.659356</ele>
        <time>2022-05-01T12:12:45.580Z</time>
      </trkpt>
      <trkpt lat="41.12571" lon="20.12333">
        <ele>170.083699</ele>
        <time>2022-05-01T12:12:49.564Z</time>
      </trkpt>
      <trkpt lat="41.12567" lon="20.1232">
        <ele>170.487407</ele>
        <time>2022-05-01T12:12:53.552Z</time>
      </trkpt>
      <trkpt lat="41.12563" lon="20.12307">
        <ele>170.87032</ele>
        <time>2022-05-01T12:12:57.555Z</time>
      </trkpt>
      <trkpt lat="41.12559" lon="20.12296">
        <ele>171.214779</ele>
        <time>2022-05-01T12:13:01.535Z</time>
      </trkpt>
      <trkpt lat="41.12555" lon="20.12284">
        <ele>171.580973</ele>
        <time>2022-05-01T12:13:05.556Z</time>
      </trkpt>
      <trkpt lat="41.12551" lon="20.12271">
        <ele>171.955921</ele>
        <time>2022-05-01T12:13:09.563Z</time>
      </trkpt>
      <trkpt lat="41.12546" lon="20.12259">
        <ele>172.343089</ele>
        <time>2022-05-01T12:13:13.537Z</time>
      </trkpt>
      <trkpt lat="41.12542" lon="20.12246">
        <ele>172.714366</ele>
        <time>2022-05-01T12:13:17.559Z</time>
      </trkpt>
      <trkpt lat="41.12538" lon="20.12234">
        <ele>173.102767</ele>
        <time>2022-05-01T12:13:21.550Z</time>
      </trkpt>
      <trkpt lat="41.12533" lon="20.12221">
        <ele>173.503986</ele>
        <time>2022-05-01T12:13:25.559Z</time>
      </trkpt>
      <trkpt lat="41.12528" lon="20.12209">
        <ele>173.870765</ele>
        <time>2022-05-01T12:13:29.552Z</time>
      </trkpt>
      <trkpt lat="41.12523" lon="20.12196">
        <ele>174.277747</ele>
        <time>2022-05-01T12:13:33.552Z</time>
      </trkpt>
      <trkpt lat="41.12517" lon="20.12184">
        <ele>174.66822</ele>
        <time>2022-05-01T12:13:37.558Z</time>
      </trkpt>
      <trkpt lat="41.12512" lon="20.12174">
        <ele>175.003482</ele>
        <time>2022-05-01T12:13:40.550Z</time>
      </trkpt>
      <trkpt lat="41.12507" lon="20.12163">
        <ele>175.354386</ele>
        <time>2022-05-01T12:13:43.558Z</time>
      </trkpt>
      <trkpt lat="41.12502" lon="20.12151">
        <ele>175.751848</ele>
        <time>2022-05-01T12:13:46.560Z</time>
      </trkpt>
      <trkpt lat="41.12495" lon="20.12137">
        <ele>175.903155</ele>
        <time>2022-05-01T12:13:49.540Z</time>
      </trkpt>
      <trkpt lat="41.1249" lon="20.12127">
        <ele>175.712482</ele>
        <time>2022-05-01T12:13:51.547Z</time>
      </trkpt>
      <trkpt lat="41.12485" lon="20.12115">
        <ele>175.504346</ele>
        <time>2022-05-01T12:13:53.548Z</time>
      </trkpt>
      <trkpt lat="41.12478" lon="20.12103">
        <ele>175.275332</ele>
        <time>2022-05-01T12:13:55.544Z</time>
      </trkpt>
      <trkpt lat="41.12472" lon="20.12089">
        <ele>175.02639</ele>
        <time>2022-05-01T12:13:57.550Z</time>
      </trkpt>
      <trkpt lat="41.12465" lon="20.12075">
        <ele>174.760945</ele>
        <time>2022-05-01T12:13:59.561Z</time>
      </trkpt>
      <trkpt lat="41.12458" lon="20.12059">
        <ele>174.480244</ele>
        <time>2022-05-01T12:14:01.539Z</time>
      </trkpt>
      <trkpt lat="41.12452" lon="20.12042">
        <ele>174.185047</ele>
        <time>2022-05-01T12:14:03.588Z</time>
      </trkpt>
      <trkpt lat="41.12446" lon="20.12023">
        <ele>173.871097</ele>
        <time>2022-05-01T12:14:05.554Z</time>
      </trkpt>
      <trkpt lat="41.12442" lon="20.12003">
        <ele>173.561396</ele>
        <time>2022-05-01T12:14:07.554Z</time>
      </trkpt>
      <trkpt lat="41.12439" lon="20.11985">
        <ele>173.270201</ele>
        <time>2022-05-01T12:14:09.553Z</time>
      </trkpt>
      <trkpt lat="41.12436" lon="20.11966">
        <ele>172.970781</ele>
        <time>2022-05-01T12:14:11.554Z</time>
      </trkpt>
      <trkpt lat="41.12434" lon="20.11946">
        <ele>172.662365</ele>
        <time>2022-05-01T12:14:13.553Z</time>
      </trkpt>
      <trkpt lat="41.12434" lon="20.11925">
        <ele>172.343419</ele>
        <time>2022-05-01T12:14:15.560Z</time>
      </trkpt>
      <trkpt lat="41.12432" lon="20.11904">
        <ele>171.860961</ele>
        <time>2022-05-01T12:14:17.555Z</time>
      </trkpt>
      <trkpt lat="41.1243" lon="20.11883">
        <ele>171.372434</ele>
        <time>2022-05-01T12:14:19.543Z</time>
      </trkpt>
      <trkpt lat="41.12429" lon="20.11861">
        <ele>170.869175</ele>
        <time>2022-05-01T12:14:21.544Z</time>
      </trkpt>
      <trkpt lat="41.12427" lon="20.11839">
        <ele>170.347257</ele>
        <time>2022-05-01T12:14:23.560Z</time>
      </trkpt>
      <trkpt lat="41.12425" lon="20.11815">
        <ele>169.805986</ele>
        <time>2022-05-01T12:14:25.550Z</time>
      </trkpt>
      <trkpt lat="41.12424" lon="20.11803">
        <ele>169.530761</ele>
        <time>2022-05-01T12:14:26.545Z</time>
      </trkpt>
      <trkpt lat="41.12423" lon="20.11792">
        <ele>169.254926</ele>
        <time>2022-05-01T12:14:27.539Z</time>
      </trkpt>
      <trkpt lat="41.12422" lon="20.1178">
        <ele>168.978345</ele>
        <time>2022-05-01T12:14:28.538Z</time>
      </trkpt>
      <trkpt lat="41.1242" lon="20.11756">
        <ele>168.428964</ele>
        <time>2022-05-01T12:14:30.531Z</time>
      </trkpt>
      <trkpt lat="41.12419" lon="20.11733">
        <ele>167.895555</ele>
        <time>2022-05-01T12:14:32.542Z</time>
      </trkpt>
      <trkpt lat="41.12417" lon="20.11709">
        <ele>167.352255</ele>
        <time>2022-05-01T12:14:34.555Z</time>
      </trkpt>
      <trkpt lat="41.12415" lon="20.11686">
        <ele>166.833632</ele>
        <time>2022-05-01T12:14:36.544Z</time>
      </trkpt>
      <trkpt lat="41.12414" lon="20.11664">
        <ele>166.785954</ele>
        <time>2022-05-01T12:14:38.534Z</time>
      </trkpt>
      <trkpt lat="41.12412" lon="20.11644">
        <ele>166.742139</ele>
        <time>2022-05-01T12:14:40.546Z</time>
      </trkpt>
      <trkpt lat="41.12411" lon="20.11625">
        <ele>166.700506</ele>
        <time>2022-05-01T12:14:42.549Z</time>
      </trkpt>
      <trkpt lat="41.12408" lon="20.11606">
        <ele>166.65948</ele>
        <time>2022-05-01T12:14:44.559Z</time>
      </trkpt>
      <trkpt lat="41.12404" lon="20.11588">
        <ele>166.619479</ele>
        <time>2022-05-01T12:14:46.602Z</time>
      </trkpt>
      <trkpt lat="41.12401" lon="20.1157">
        <ele>166.580382</ele>
        <time>2022-05-01T12:14:48.543Z</time>
      </trkpt>
      <trkpt lat="41.12397" lon="20.11552">
        <ele>166.539665</ele>
        <time>2022-05-01T12:14:50.546Z</time>
      </trkpt>
      <trkpt lat="41.12394" lon="20.11534">
        <ele>166.500079</ele>
        <time>2022-05-01T12:14:52.550Z</time>
      </trkpt>
      <trkpt lat="41.12391" lon="20.11517">
        <ele>166.462373</ele>
        <time>2022-05-01T12:14:54.554Z</time>
      </trkpt>
      <trkpt lat="41.12388" lon="20.11502">
        <ele>166.427449</ele>
        <time>2022-05-01T12:14:56.548Z</time>
      </trkpt>
      <trkpt lat="41.12385" lon="20.11486">
        <ele>166.392456</ele>
        <time>2022-05-01T12:14:58.549Z</time>
      </trkpt>
      <trkpt lat="41.12382" lon="20.1147">
        <ele>166.357739</ele>
        <time>2022-05-01T12:15:00.547Z</time>
      </trkpt>
      <trkpt lat="41.1238" lon="20.11455">
        <ele>166.323745</ele>
        <time>2022-05-01T12:15:02.556Z</time>
      </trkpt>
      <trkpt lat="41.12377" lon="20.11439">
        <ele>166.390759</ele>
        <time>2022-05-01T12:15:04.533Z</time>
      </trkpt>
      <trkpt lat="41.12375" lon="20.11425">
        <ele>166.462291</ele>
        <time>2022-05-01T12:15:06.550Z</time>
      </trkpt>
      <trkpt lat="41.12373" lon="20.1141">
        <ele>166.534081</ele>
        <time>2022-05-01T12:15:08.590Z</time>
      </trkpt>
      <trkpt lat="41.12371" lon="20.11395">
        <ele>166.606443</ele>
        <time>2022-05-01T12:15:10.555Z</time>
      </trkpt>
      <trkpt lat="41.12369" lon="20.1138">
        <ele>166.677866</ele>
        <time>2022-05-01T12:15:12.567Z</time>
      </trkpt>
      <trkpt lat="41.12367" lon="20.11366">
        <ele>166.747526</ele>
        <time>2022-05-01T12:15:14.584Z</time>
      </trkpt>
      <trkpt lat="41.12366" lon="20.11351">
        <ele>166.815928</ele>
        <time>2022-05-01T12:15:16.555Z</time>
      </trkpt>
      <trkpt lat="41.12363" lon="20.11337">
        <ele>166.886693</ele>
        <time>2022-05-01T12:15:18.570Z</time>
      </trkpt>
      <trkpt lat="41.12361" lon="20.11323">
        <ele>166.954625</ele>
        <time>2022-05-01T12:15:20.543Z</time>
      </trkpt>
      <trkpt lat="41.12359" lon="20.1131">
        <ele>167.018213</ele>
        <time>2022-05-01T12:15:22.559Z</time>
      </trkpt>
      <trkpt lat="41.12357" lon="20.11297">
        <ele>167.082661</ele>
        <time>2022-05-01T12:15:24.565Z</time>
      </trkpt>
      <trkpt lat="41.12354" lon="20.11284">
        <ele>167.147023</ele>
        <time>2022-05-01T12:15:26.549Z</time>
      </trkpt>
      <trkpt lat="41.1235" lon="20.11272">
        <ele>167.209129</ele>
        <time>2022-05-01T12:15:28.570Z</time>
      </trkpt>
      <trkpt lat="41.12347" lon="20.11259">
        <ele>167.272591</ele>
        <time>2022-05-01T12:15:30.550Z</time>
      </trkpt>
      <trkpt lat="41.12344" lon="20.11246">
        <ele>167.338107</ele>
        <time>2022-05-01T12:15:32.566Z</time>
      </trkpt>
      <trkpt lat="41.1234" lon="20.11233">
        <ele>167.404724</ele>
        <time>2022-05-01T12:15:34.555Z</time>
      </trkpt>
      <trkpt lat="41.12336" lon="20.1122">
        <ele>167.453873</ele>
        <time>2022-05-01T12:15:36.547Z</time>
      </trkpt>
      <trkpt lat="41.12332" lon="20.11207">
        <ele>167.437049</ele>
        <time>2022-05-01T12:15:38.557Z</time>
      </trkpt>
      <trkpt lat="41.12328" lon="20.11195">
        <ele>167.420155</ele>
        <time>2022-05-01T12:15:40.546Z</time>
      </trkpt>
      <trkpt lat="41.12322" lon="20.11182">
        <ele>167.402112</ele>
        <time>2022-05-01T12:15:42.539Z</time>
      </trkpt>
      <trkpt lat="41.12317" lon="20.11169">
        <ele>167.383693</ele>
        <time>2022-05-01T12:15:44.552Z</time>
      </trkpt>
      <trkpt lat="41.12311" lon="20.11156">
        <ele>167.365328</ele>
        <time>2022-05-01T12:15:46.559Z</time>
      </trkpt>
      <trkpt lat="41.12306" lon="20.11144">
        <ele>167.347403</ele>
        <time>2022-05-01T12:15:48.567Z</time>
      </trkpt>
      <trkpt lat="41.12302" lon="20.1113">
        <ele>167.328793</ele>
        <time>2022-05-01T12:15:50.514Z</time>
      </trkpt>
      <trkpt lat="41.12297" lon="20.11116">
        <ele>167.310477</ele>
        <time>2022-05-01T12:15:52.569Z</time>
      </trkpt>
      <trkpt lat="41.12293" lon="20.11103">
        <ele>167.292698</ele>
        <time>2022-05-01T12:15:54.559Z</time>
      </trkpt>
      <trkpt lat="41.12288" lon="20.11091">
        <ele>167.275179</ele>
        <time>2022-05-01T12:15:56.531Z</time>
      </trkpt>
      <trkpt lat="41.12283" lon="20.11078">
        <ele>167.257766</ele>
        <time>2022-05-01T12:15:58.565Z</time>
      </trkpt>
      <trkpt lat="41.12279" lon="20.11065">
        <ele>167.240128</ele>
        <time>2022-05-01T12:16:00.532Z</time>
      </trkpt>
      <trkpt lat="41.12274" lon="20.11053">
        <ele>167.222868</ele>
        <time>2022-05-01T12:16:02.549Z</time>
      </trkpt>
      <trkpt lat="41.1227" lon="20.1104">
        <ele>167.205749</ele>
        <time>2022-05-01T12:16:04.554Z</time>
      </trkpt>
      <trkpt lat="41.12266" lon="20.11027">
        <ele>167.188391</ele>
        <time>2022-05-01T12:16:06.550Z</time>
      </trkpt>
      <trkpt lat="41.12263" lon="20.11013">
        <ele>167.170476</ele>
        <time>2022-05-01T12:16:08.556Z</time>
      </trkpt>
      <trkpt lat="41.12259" lon="20.11">
        <ele>167.229711</ele>
        <time>2022-05-01T12:16:10.572Z</time>
      </trkpt>
      <trkpt lat="41.12256" lon="20.10986">
        <ele>167.37088</ele>
        <time>2022-05-01T12:16:12.594Z</time>
      </trkpt>
      <trkpt lat="41.12253" lon="20.10972">
        <ele>167.51064</ele>
        <time>2022-05-01T12:16:14.539Z</time>
      </trkpt>
      <trkpt lat="41.1225" lon="20.10959">
        <ele>167.644817</ele>
        <time>2022-05-01T12:16:16.548Z</time>
      </trkpt>
      <trkpt lat="41.12248" lon="20.10946">
        <ele>167.777015</ele>
        <time>2022-05-01T12:16:18.552Z</time>
      </trkpt>
      <trkpt lat="41.12246" lon="20.10933">
        <ele>167.906959</ele>
        <time>2022-05-01T12:16:20.562Z</time>
      </trkpt>
      <trkpt lat="41.12244" lon="20.1092">
        <ele>168.037656</ele>
        <time>2022-05-01T12:16:22.547Z</time>
      </trkpt>
      <trkpt lat="41.12241" lon="20.10906">
        <ele>168.173014</ele>
        <time>2022-05-01T12:16:24.553Z</time>
      </trkpt>
      <trkpt lat="41.12239" lon="20.10893">
        <ele>168.304575</ele>
        <time>2022-05-01T12:16:26.553Z</time>
      </trkpt>
      <trkpt lat="41.12236" lon="20.1088">
        <ele>168.435945</ele>
        <time>2022-05-01T12:16:28.555Z</time>
      </trkpt>
      <trkpt lat="41.12233" lon="20.10868">
        <ele>168.55967</ele>
        <time>2022-05-01T12:16:30.567Z</time>
      </trkpt>
      <trkpt lat="41.12231" lon="20.10856">
        <ele>168.683152</ele>
        <time>2022-05-01T12:16:32.545Z</time>
      </trkpt>
      <trkpt lat="41.1223" lon="20.10844">
        <ele>168.799998</ele>
        <time>2022-05-01T12:16:34.551Z</time>
      </trkpt>
      <trkpt lat="41.12229" lon="20.10832">
        <ele>168.917737</ele>
        <time>2022-05-01T12:16:36.557Z</time>
      </trkpt>
      <trkpt lat="41.12227" lon="20.10818">
        <ele>169.052255</ele>
        <time>2022-05-01T12:16:38.551Z</time>
      </trkpt>
      <trkpt lat="41.12225" lon="20.10804">
        <ele>169.196624</ele>
        <time>2022-05-01T12:16:40.554Z</time>
      </trkpt>
      <trkpt lat="41.12224" lon="20.1079">
        <ele>169.328823</ele>
        <time>2022-05-01T12:16:42.549Z</time>
      </trkpt>
      <trkpt lat="41.12222" lon="20.10777">
        <ele>169.462602</ele>
        <time>2022-05-01T12:16:44.549Z</time>
      </trkpt>
      <trkpt lat="41.12221" lon="20.10764">
        <ele>169.772654</ele>
        <time>2022-05-01T12:16:46.544Z</time>
      </trkpt>
      <trkpt lat="41.12219" lon="20.10751">
        <ele>170.144343</ele>
        <time>2022-05-01T12:16:48.564Z</time>
      </trkpt>
      <trkpt lat="41.12218" lon="20.10737">
        <ele>170.522255</ele>
        <time>2022-05-01T12:16:50.570Z</time>
      </trkpt>
      <trkpt lat="41.12217" lon="20.10724">
        <ele>170.882418</ele>
        <time>2022-05-01T12:16:52.543Z</time>
      </trkpt>
      <trkpt lat="41.12216" lon="20.10711">
        <ele>171.248471</ele>
        <time>2022-05-01T12:16:54.551Z</time>
      </trkpt>
      <trkpt lat="41.12215" lon="20.10698">
        <ele>171.617678</ele>
        <time>2022-05-01T12:16:56.557Z</time>
      </trkpt>
      <trkpt lat="41.12214" lon="20.10685">
        <ele>171.964788</ele>
        <time>2022-05-01T12:16:58.531Z</time>
      </trkpt>
      <trkpt lat="41.12213" lon="20.10673">
        <ele>172.315593</ele>
        <time>2022-05-01T12:17:00.547Z</time>
      </trkpt>
      <trkpt lat="41.12211" lon="20.1066">
        <ele>172.67905</ele>
        <time>2022-05-01T12:17:02.554Z</time>
      </trkpt>
      <trkpt lat="41.12209" lon="20.10647">
        <ele>173.040386</ele>
        <time>2022-05-01T12:17:04.545Z</time>
      </trkpt>
      <trkpt lat="41.12207" lon="20.10634">
        <ele>173.403077</ele>
        <time>2022-05-01T12:17:06.544Z</time>
      </trkpt>
      <trkpt lat="41.12206" lon="20.10622">
        <ele>173.757156</ele>
        <time>2022-05-01T12:17:08.543Z</time>
      </trkpt>
      <trkpt lat="41.12205" lon="20.1061">
        <ele>174.098326</ele>
        <time>2022-05-01T12:17:10.554Z</time>
      </trkpt>
      <trkpt lat="41.12203" lon="20.10592">
        <ele>174.590972</ele>
        <time>2022-05-01T12:17:13.554Z</time>
      </trkpt>
      <trkpt lat="41.122" lon="20.10575">
        <ele>175.069777</ele>
        <time>2022-05-01T12:17:16.548Z</time>
      </trkpt>
      <trkpt lat="41.12198" lon="20.10559">
        <ele>175.538356</ele>
        <time>2022-05-01T12:17:19.567Z</time>
      </trkpt>
      <trkpt lat="41.12196" lon="20.10541">
        <ele>176.023383</ele>
        <time>2022-05-01T12:17:22.554Z</time>
      </trkpt>
      <trkpt lat="41.12195" lon="20.10525">
        <ele>176.442542</ele>
        <time>2022-05-01T12:17:25.595Z</time>
      </trkpt>
      <trkpt lat="41.12193" lon="20.10508">
        <ele>176.848226</ele>
        <time>2022-05-01T12:17:28.558Z</time>
      </trkpt>
      <trkpt lat="41.12193" lon="20.10491">
        <ele>177.234435</ele>
        <time>2022-05-01T12:17:31.548Z</time>
      </trkpt>
      <trkpt lat="41.12192" lon="20.10476">
        <ele>177.595173</ele>
        <time>2022-05-01T12:17:34.557Z</time>
      </trkpt>
      <trkpt lat="41.12191" lon="20.10462">
        <ele>177.952092</ele>
        <time>2022-05-01T12:17:37.613Z</time>
      </trkpt>
      <trkpt lat="41.12189" lon="20.10446">
        <ele>178.337763</ele>
        <time>2022-05-01T12:17:40.557Z</time>
      </trkpt>
      <trkpt lat="41.12187" lon="20.10431">
        <ele>178.684029</ele>
        <time>2022-05-01T12:17:43.549Z</time>
      </trkpt>
      <trkpt lat="41.12183" lon="20.10416">
        <ele>179.067511</ele>
        <time>2022-05-01T12:17:46.563Z</time>
      </trkpt>
      <trkpt lat="41.12179" lon="20.104">
        <ele>179.473938</ele>
        <time>2022-05-01T12:17:49.628Z</time>
      </trkpt>
      <trkpt lat="41.12175" lon="20.10383">
        <ele>179.888972</ele>
        <time>2022-05-01T12:17:52.583Z</time>
      </trkpt>
      <trkpt lat="41.1217" lon="20.10367">
        <ele>180.298389</ele>
        <time>2022-05-01T12:17:55.570Z</time>
      </trkpt>
      <trkpt lat="41.12166" lon="20.10351">
        <ele>180.703554</ele>
        <time>2022-05-01T12:17:58.592Z</time>
      </trkpt>
      <trkpt lat="41.12163" lon="20.10335">
        <ele>181.09445</ele>
        <time>2022-05-01T12:18:01.563Z</time>
      </trkpt>
      <trkpt lat="41.12159" lon="20.10321">
        <ele>181.46496</ele>
        <time>2022-05-01T12:18:04.577Z</time>
      </trkpt>
      <trkpt lat="41.12159" lon="20.10304">
        <ele>181.774</ele>
        <time>2022-05-01T12:18:07.552Z</time>
      </trkpt>
      <trkpt lat="41.12162" lon="20.10287">
        <ele>181.315981</ele>
        <time>2022-05-01T12:18:10.548Z</time>
      </trkpt>
      <trkpt lat="41.12163" lon="20.10271">
        <ele>180.891127</ele>
        <time>2022-05-01T12:18:13.537Z</time>
      </trkpt>
      <trkpt lat="41.12162" lon="20.10256">
        <ele>180.471578</ele>
        <time>2022-05-01T12:18:16.555Z</time>
      </trkpt>
      <trkpt lat="41.12159" lon="20.10239">
        <ele>180.019898</ele>
        <time>2022-05-01T12:18:19.551Z</time>
      </trkpt>
      <trkpt lat="41.12155" lon="20.10224">
        <ele>179.592442</ele>
        <time>2022-05-01T12:18:22.591Z</time>
      </trkpt>
      <trkpt lat="41.1215" lon="20.1021">
        <ele>179.169475</ele>
        <time>2022-05-01T12:18:25.555Z</time>
      </trkpt>
      <trkpt lat="41.12145" lon="20.10196">
        <ele>178.77013</ele>
        <time>2022-05-01T12:18:28.553Z</time>
      </trkpt>
      <trkpt lat="41.12139" lon="20.10181">
        <ele>178.305104</ele>
        <time>2022-05-01T12:18:31.557Z</time>
      </trkpt>
      <trkpt lat="41.12132" lon="20.10166">
        <ele>177.842815</ele>
        <time>2022-05-01T12:18:34.551Z</time>
      </trkpt>
      <trkpt lat="41.12127" lon="20.1015">
        <ele>177.379038</ele>
        <time>2022-05-01T12:18:37.539Z</time>
      </trkpt>
      <trkpt lat="41.12121" lon="20.10135">
        <ele>176.929504</ele>
        <time>2022-05-01T12:18:40.553Z</time>
      </trkpt>
      <trkpt lat="41.12114" lon="20.1012">
        <ele>176.454454</ele>
        <time>2022-05-01T12:18:43.548Z</time>
      </trkpt>
      <trkpt lat="41.1211" lon="20.10104">
        <ele>176.014519</ele>
        <time>2022-05-01T12:18:46.551Z</time>
      </trkpt>
      <trkpt lat="41.12105" lon="20.10089">
        <ele>175.575026</ele>
        <time>2022-05-01T12:18:49.554Z</time>
      </trkpt>
      <trkpt lat="41.12099" lon="20.10075">
        <ele>175.485805</ele>
        <time>2022-05-01T12:18:52.552Z</time>
      </trkpt>
      <trkpt lat="41.12093" lon="20.10059">
        <ele>175.54543</ele>
        <time>2022-05-01T12:18:55.596Z</time>
      </trkpt>
      <trkpt lat="41.12088" lon="20.10043">
        <ele>175.605079</ele>
        <time>2022-05-01T12:18:58.556Z</time>
      </trkpt>
      <trkpt lat="41.12083" lon="20.10026">
        <ele>175.666608</ele>
        <time>2022-05-01T12:19:01.600Z</time>
      </trkpt>
      <trkpt lat="41.1208" lon="20.10015">
        <ele>175.707579</ele>
        <time>2022-05-01T12:19:03.538Z</time>
      </trkpt>
      <trkpt lat="41.12076" lon="20.10004">
        <ele>175.749027</ele>
        <time>2022-05-01T12:19:05.555Z</time>
      </trkpt>
      <trkpt lat="41.12072" lon="20.09988">
        <ele>175.807505</ele>
        <time>2022-05-01T12:19:08.549Z</time>
      </trkpt>
      <trkpt lat="41.12068" lon="20.09977">
        <ele>175.849282</ele>
        <time>2022-05-01T12:19:10.540Z</time>
      </trkpt>
      <trkpt lat="41.12065" lon="20.09966">
        <ele>175.889963</ele>
        <time>2022-05-01T12:19:12.589Z</time>
      </trkpt>
      <trkpt lat="41.12059" lon="20.0995">
        <ele>175.950159</ele>
        <time>2022-05-01T12:19:15.553Z</time>
      </trkpt>
      <trkpt lat="41.12056" lon="20.09939">
        <ele>175.991617</ele>
        <time>2022-05-01T12:19:17.547Z</time>
      </trkpt>
      <trkpt lat="41.12053" lon="20.09927">
        <ele>176.033076</ele>
        <time>2022-05-01T12:19:19.574Z</time>
      </trkpt>
      <trkpt lat="41.12049" lon="20.09916">
        <ele>176.074203</ele>
        <time>2022-05-01T12:19:21.557Z</time>
      </trkpt>
      <trkpt lat="41.12045" lon="20.09901">
        <ele>176.128824</ele>
        <time>2022-05-01T12:19:24.568Z</time>
      </trkpt>
      <trkpt lat="41.12042" lon="20.09888">
        <ele>176.176901</ele>
        <time>2022-05-01T12:19:27.557Z</time>
      </trkpt>
      <trkpt lat="41.12039" lon="20.09877">
        <ele>176.218037</ele>
        <time>2022-05-01T12:19:30.552Z</time>
      </trkpt>
      <trkpt lat="41.12036" lon="20.09864">
        <ele>176.264313</ele>
        <time>2022-05-01T12:19:33.548Z</time>
      </trkpt>
      <trkpt lat="41.12031" lon="20.0985">
        <ele>176.504973</ele>
        <time>2022-05-01T12:19:36.558Z</time>
      </trkpt>
      <trkpt lat="41.12027" lon="20.09837">
        <ele>176.742094</ele>
        <time>2022-05-01T12:19:39.551Z</time>
      </trkpt>
      <trkpt lat="41.12022" lon="20.09824">
        <ele>176.972313</ele>
        <time>2022-05-01T12:19:42.571Z</time>
      </trkpt>
      <trkpt lat="41.12018" lon="20.09811">
        <ele>177.199877</ele>
        <time>2022-05-01T12:19:45.593Z</time>
      </trkpt>
      <trkpt lat="41.12014" lon="20.09797">
        <ele>177.434924</ele>
        <time>2022-05-01T12:19:48.608Z</time>
      </trkpt>
      <trkpt lat="41.12011" lon="20.09784">
        <ele>177.660132</ele>
        <time>2022-05-01T12:19:51.577Z</time>
      </trkpt>
      <trkpt lat="41.12008" lon="20.09771">
        <ele>177.882613</ele>
        <time>2022-05-01T12:19:54.558Z</time>
      </trkpt>
      <trkpt lat="41.12004" lon="20.09758">
        <ele>178.106295</ele>
        <time>2022-05-01T12:19:57.562Z</time>
      </trkpt>
      <trkpt lat="41.12001" lon="20.09745">
        <ele>178.336931</ele>
        <time>2022-05-01T12:20:00.568Z</time>
      </trkpt>
      <trkpt lat="41.11996" lon="20.0973">
        <ele>178.586538</ele>
        <time>2022-05-01T12:20:03.536Z</time>
      </trkpt>
      <trkpt lat="41.11991" lon="20.09716">
        <ele>178.849347</ele>
        <time>2022-05-01T12:20:06.592Z</time>
      </trkpt>
      <trkpt lat="41.11986" lon="20.09701">
        <ele>179.107078</ele>
        <time>2022-05-01T12:20:09.547Z</time>
      </trkpt>
      <trkpt lat="41.1198" lon="20.09687">
        <ele>179.366998</ele>
        <time>2022-05-01T12:20:12.548Z</time>
      </trkpt>
      <trkpt lat="41.11976" lon="20.09676">
        <ele>179.582273</ele>
        <time>2022-05-01T12:20:14.596Z</time>
      </trkpt>
      <trkpt lat="41.1197" lon="20.09664">
        <ele>179.807983</ele>
        <time>2022-05-01T12:20:16.565Z</time>
      </trkpt>
      <trkpt lat="41.11965" lon="20.0965">
        <ele>180.052246</ele>
        <time>2022-05-01T12:20:18.551Z</time>
      </trkpt>
      <trkpt lat="41.1196" lon="20.09637">
        <ele>180.148222</ele>
        <time>2022-05-01T12:20:20.569Z</time>
      </trkpt>
      <trkpt lat="41.11953" lon="20.09624">
        <ele>180.173481</ele>
        <time>2022-05-01T12:20:22.568Z</time>
      </trkpt>
      <trkpt lat="41.11946" lon="20.0961">
        <ele>180.199195</ele>
        <time>2022-05-01T12:20:24.582Z</time>
      </trkpt>
      <trkpt lat="41.1194" lon="20.09596">
        <ele>180.22365</ele>
        <time>2022-05-01T12:20:26.547Z</time>
      </trkpt>
      <trkpt lat="41.11933" lon="20.09584">
        <ele>180.246938</ele>
        <time>2022-05-01T12:20:28.535Z</time>
      </trkpt>
      <trkpt lat="41.11927" lon="20.09573">
        <ele>180.268013</ele>
        <time>2022-05-01T12:20:30.531Z</time>
      </trkpt>
      <trkpt lat="41.11921" lon="20.09561">
        <ele>180.290458</ele>
        <time>2022-05-01T12:20:32.543Z</time>
      </trkpt>
      <trkpt lat="41.11914" lon="20.0955">
        <ele>180.312513</ele>
        <time>2022-05-01T12:20:34.556Z</time>
      </trkpt>
      <trkpt lat="41.11908" lon="20.09538">
        <ele>180.335456</ele>
        <time>2022-05-01T12:20:36.551Z</time>
      </trkpt>
      <trkpt lat="41.11903" lon="20.09526">
        <ele>180.356307</ele>
        <time>2022-05-01T12:20:38.545Z</time>
      </trkpt>
      <trkpt lat="41.11898" lon="20.09512">
        <ele>180.379195</ele>
        <time>2022-05-01T12:20:40.560Z</time>
      </trkpt>
      <trkpt lat="41.11892" lon="20.09499">
        <ele>180.40315</ele>
        <time>2022-05-01T12:20:42.545Z</time>
      </trkpt>
      <trkpt lat="41.11886" lon="20.09487">
        <ele>180.425688</ele>
        <time>2022-05-01T12:20:44.564Z</time>
      </trkpt>
      <trkpt lat="41.11881" lon="20.09475">
        <ele>180.446365</ele>
        <time>2022-05-01T12:20:46.543Z</time>
      </trkpt>
      <trkpt lat="41.11877" lon="20.09462">
        <ele>180.467599</ele>
        <time>2022-05-01T12:20:48.554Z</time>
      </trkpt>
      <trkpt lat="41.11872" lon="20.09449">
        <ele>180.490633</ele>
        <time>2022-05-01T12:20:50.542Z</time>
      </trkpt>
      <trkpt lat="41.11864" lon="20.09437">
        <ele>180.569761</ele>
        <time>2022-05-01T12:20:52.555Z</time>
      </trkpt>
      <trkpt lat="41.11858" lon="20.09423">
        <ele>180.697651</ele>
        <time>2022-05-01T12:20:54.565Z</time>
      </trkpt>
      <trkpt lat="41.11852" lon="20.09411">
        <ele>180.818344</ele>
        <time>2022-05-01T12:20:56.548Z</time>
      </trkpt>
      <trkpt lat="41.11846" lon="20.09398">
        <ele>180.930445</ele>
        <time>2022-05-01T12:20:58.571Z</time>
      </trkpt>
      <trkpt lat="41.11841" lon="20.09387">
        <ele>181.035039</ele>
        <time>2022-05-01T12:21:00.564Z</time>
      </trkpt>
      <trkpt lat="41.11835" lon="20.09376">
        <ele>181.142346</ele>
        <time>2022-05-01T12:21:02.537Z</time>
      </trkpt>
      <trkpt lat="41.11829" lon="20.09366">
        <ele>181.239665</ele>
        <time>2022-05-01T12:21:04.596Z</time>
      </trkpt>
      <trkpt lat="41.11823" lon="20.09352">
        <ele>181.374839</ele>
        <time>2022-05-01T12:21:07.551Z</time>
      </trkpt>
      <trkpt lat="41.11816" lon="20.09338">
        <ele>181.498384</ele>
        <time>2022-05-01T12:21:10.548Z</time>
      </trkpt>
      <trkpt lat="41.1181" lon="20.09327">
        <ele>181.612596</ele>
        <time>2022-05-01T12:21:13.549Z</time>
      </trkpt>
      <trkpt lat="41.11813" lon="20.09315">
        <ele>181.708195</ele>
        <time>2022-05-01T12:21:17.558Z</time>
      </trkpt>
      <trkpt lat="41.11821" lon="20.09306">
        <ele>181.817353</ele>
        <time>2022-05-01T12:21:21.549Z</time>
      </trkpt>
      <trkpt lat="41.1183" lon="20.09296">
        <ele>181.938909</ele>
        <time>2022-05-01T12:21:24.547Z</time>
      </trkpt>
      <trkpt lat="41.11839" lon="20.09286">
        <ele>182.064303</ele>
        <time>2022-05-01T12:21:27.568Z</time>
      </trkpt>
      <trkpt lat="41.11848" lon="20.09276">
        <ele>182.194229</ele>
        <time>2022-05-01T12:21:30.555Z</time>
      </trkpt>
      <trkpt lat="41.11859" lon="20.09266">
        <ele>182.331438</ele>
        <time>2022-05-01T12:21:33.563Z</time>
      </trkpt>
      <trkpt lat="41.1187" lon="20.09257">
        <ele>182.186195</ele>
        <time>2022-05-01T12:21:36.571Z</time>
      </trkpt>
      <trkpt lat="41.11881" lon="20.0925">
        <ele>181.852878</ele>
        <time>2022-05-01T12:21:39.553Z</time>
      </trkpt>
      <trkpt lat="41.1189" lon="20.09245">
        <ele>181.612125</ele>
        <time>2022-05-01T12:21:41.558Z</time>
      </trkpt>
      <trkpt lat="41.11899" lon="20.09238">
        <ele>181.312599</ele>
        <time>2022-05-01T12:21:44.588Z</time>
      </trkpt>
      <trkpt lat="41.11909" lon="20.09232">
        <ele>181.028874</ele>
        <time>2022-05-01T12:21:47.569Z</time>
      </trkpt>
      <trkpt lat="41.11919" lon="20.09225">
        <ele>180.740539</ele>
        <time>2022-05-01T12:21:50.580Z</time>
      </trkpt>
      <trkpt lat="41.11929" lon="20.09216">
        <ele>180.42477</ele>
        <time>2022-05-01T12:21:53.550Z</time>
      </trkpt>
      <trkpt lat="41.11936" lon="20.09208">
        <ele>180.175084</ele>
        <time>2022-05-01T12:21:56.552Z</time>
      </trkpt>
      <trkpt lat="41.11943" lon="20.092">
        <ele>179.922803</ele>
        <time>2022-05-01T12:21:59.550Z</time>
      </trkpt>
      <trkpt lat="41.1195" lon="20.0919">
        <ele>179.658957</ele>
        <time>2022-05-01T12:22:02.565Z</time>
      </trkpt>
      <trkpt lat="41.11958" lon="20.09179">
        <ele>179.354869</ele>
        <time>2022-05-01T12:22:05.574Z</time>
      </trkpt>
      <trkpt lat="41.11965" lon="20.09169">
        <ele>179.068949</ele>
        <time>2022-05-01T12:22:08.536Z</time>
      </trkpt>
      <trkpt lat="41.11972" lon="20.09159">
        <ele>178.79074</ele>
        <time>2022-05-01T12:22:11.625Z</time>
      </trkpt>
      <trkpt lat="41.11979" lon="20.09148">
        <ele>178.509254</ele>
        <time>2022-05-01T12:22:14.550Z</time>
      </trkpt>
      <trkpt lat="41.11986" lon="20.09138">
        <ele>178.239384</ele>
        <time>2022-05-01T12:22:17.571Z</time>
      </trkpt>
      <trkpt lat="41.11992" lon="20.09128">
        <ele>177.975151</ele>
        <time>2022-05-01T12:22:20.547Z</time>
      </trkpt>
      <trkpt lat="41.11999" lon="20.09118">
        <ele>177.707503</ele>
        <time>2022-05-01T12:22:23.579Z</time>
      </trkpt>
      <trkpt lat="41.12006" lon="20.09108">
        <ele>177.582818</ele>
        <time>2022-05-01T12:22:26.558Z</time>
      </trkpt>
      <trkpt lat="41.12012" lon="20.09099">
        <ele>177.548837</ele>
        <time>2022-05-01T12:22:29.546Z</time>
      </trkpt>
      <trkpt lat="41.12019" lon="20.09089">
        <ele>177.514786</ele>
        <time>2022-05-01T12:22:33.594Z</time>
      </trkpt>
      <trkpt lat="41.12026" lon="20.09078">
        <ele>177.476109</ele>
        <time>2022-05-01T12:22:37.563Z</time>
      </trkpt>
      <trkpt lat="41.12035" lon="20.09068">
        <ele>177.437638</ele>
        <time>2022-05-01T12:22:41.554Z</time>
      </trkpt>
      <trkpt lat="41.12037" lon="20.09056">
        <ele>177.404942</ele>
        <time>2022-05-01T12:22:45.556Z</time>
      </trkpt>
      <trkpt lat="41.12029" lon="20.09046">
        <ele>177.367541</ele>
        <time>2022-05-01T12:22:49.541Z</time>
      </trkpt>
      <trkpt lat="41.12022" lon="20.09038">
        <ele>177.335506</ele>
        <time>2022-05-01T12:22:52.548Z</time>
      </trkpt>
      <trkpt lat="41.12015" lon="20.09027">
        <ele>177.298967</ele>
        <time>2022-05-01T12:22:55.581Z</time>
      </trkpt>
      <trkpt lat="41.12008" lon="20.09016">
        <ele>177.261464</ele>
        <time>2022-05-01T12:22:58.548Z</time>
      </trkpt>
      <trkpt lat="41.12002" lon="20.09006">
        <ele>177.226295</ele>
        <time>2022-05-01T12:23:01.564Z</time>
      </trkpt>
      <trkpt lat="41.11994" lon="20.08996">
        <ele>177.188179</ele>
        <time>2022-05-01T12:23:04.544Z</time>
      </trkpt>
      <trkpt lat="41.11985" lon="20.08986">
        <ele>177.14807</ele>
        <time>2022-05-01T12:23:07.581Z</time>
      </trkpt>
      <trkpt lat="41.11976" lon="20.08976">
        <ele>177.106936</ele>
        <time>2022-05-01T12:23:10.550Z</time>
      </trkpt>
      <trkpt lat="41.11967" lon="20.08966">
        <ele>177.06411</ele>
        <time>2022-05-01T12:23:13.640Z</time>
      </trkpt>
      <trkpt lat="41.11959" lon="20.08955">
        <ele>177.024426</ele>
        <time>2022-05-01T12:23:16.556Z</time>
      </trkpt>
      <trkpt lat="41.1195" lon="20.08944">
        <ele>176.982311</ele>
        <time>2022-05-01T12:23:19.552Z</time>
      </trkpt>
      <trkpt lat="41.1194" lon="20.08935">
        <ele>177.299216</ele>
        <time>2022-05-01T12:23:22.566Z</time>
      </trkpt>
      <trkpt lat="41.11931" lon="20.08926">
        <ele>177.622175</ele>
        <time>2022-05-01T12:23:25.565Z</time>
      </trkpt>
      <trkpt lat="41.11923" lon="20.08915">
        <ele>177.934212</ele>
        <time>2022-05-01T12:23:28.554Z</time>
      </trkpt>
      <trkpt lat="41.11916" lon="20.08908">
        <ele>178.213849</ele>
        <time>2022-05-01T12:23:31.558Z</time>
      </trkpt>
      <trkpt lat="41.11906" lon="20.089">
        <ele>178.539491</ele>
        <time>2022-05-01T12:23:38.583Z</time>
      </trkpt>
      <trkpt lat="41.11898" lon="20.08893">
        <ele>178.809636</ele>
        <time>2022-05-01T12:23:41.602Z</time>
      </trkpt>
      <trkpt lat="41.1189" lon="20.08883">
        <ele>179.116589</ele>
        <time>2022-05-01T12:23:44.537Z</time>
      </trkpt>
      <trkpt lat="41.11881" lon="20.08876">
        <ele>179.428313</ele>
        <time>2022-05-01T12:23:47.564Z</time>
      </trkpt>
      <trkpt lat="41.11873" lon="20.08866">
        <ele>179.725439</ele>
        <time>2022-05-01T12:23:50.550Z</time>
      </trkpt>
      <trkpt lat="41.11864" lon="20.08858">
        <ele>180.039928</ele>
        <time>2022-05-01T12:23:53.543Z</time>
      </trkpt>
      <trkpt lat="41.11856" lon="20.08844">
        <ele>180.422831</ele>
        <time>2022-05-01T12:23:56.562Z</time>
      </trkpt>
      <trkpt lat="41.11853" lon="20.08831">
        <ele>180.706789</ele>
        <time>2022-05-01T12:23:58.555Z</time>
      </trkpt>
      <trkpt lat="41.11848" lon="20.0882">
        <ele>180.976555</ele>
        <time>2022-05-01T12:24:00.567Z</time>
      </trkpt>
      <trkpt lat="41.11843" lon="20.0881">
        <ele>181.261182</ele>
        <time>2022-05-01T12:24:02.530Z</time>
      </trkpt>
      <trkpt lat="41.11835" lon="20.08801">
        <ele>181.543814</ele>
        <time>2022-05-01T12:24:04.556Z</time>
      </trkpt>
      <trkpt lat="41.11828" lon="20.08792">
        <ele>181.836507</ele>
        <time>2022-05-01T12:24:06.587Z</time>
      </trkpt>
      <trkpt lat="41.11819" lon="20.08783">
        <ele>182.134023</ele>
        <time>2022-05-01T12:24:08.558Z</time>
      </trkpt>
      <trkpt lat="41.11811" lon="20.08774">
        <ele>182.134023</ele>
        <time>2022-05-01T12:24:10.554Z</time>
      </trkpt>
      <trkpt lat="41.11803" lon="20.08766">
        <ele>182.134023</ele>
        <time>2022-05-01T12:24:12.560Z</time>
      </trkpt>
      <trkpt lat="41.11793" lon="20.08759">
        <ele>182.134023</ele>
        <time>2022-05-01T12:24:14.541Z</time>
      </trkpt>
      <trkpt lat="41.11784" lon="20.0875">
        <ele>182.134023</ele>
        <time>2022-05-01T12:24:16.539Z</time>
      </trkpt>
      <trkpt lat="41.11773" lon="20.08742">
        <ele>182.134023</ele>
        <time>2022-05-01T12:24:18.573Z</time>
      </trkpt>
      <trkpt lat="41.11764" lon="20.08735">
        <ele>182.134023</ele>
        <time>2022-05-01T12:24:20.542Z</time>
      </trkpt>
      <trkpt lat="41.11757" lon="20.08726">
        <ele>182.134023</ele>
        <time>2022-05-01T12:24:23.588Z</time>
      </trkpt>
      <trkpt lat="41.11757" lon="20.08714">
        <ele>182.134023</ele>
        <time>2022-05-01T12:24:29.544Z</time>
      </trkpt>
      <trkpt lat="41.11762" lon="20.08704">
        <ele>182.134023</ele>
        <time>2022-05-01T12:24:36.584Z</time>
      </trkpt>
      <trkpt lat="41.11764" lon="20.08692">
        <ele>182.134023</ele>
        <time>2022-05-01T12:24:41.552Z</time>
      </trkpt>
      <trkpt lat="41.11767" lon="20.08679">
        <ele>182.134023</ele>
        <time>2022-05-01T12:24:47.580Z</time>
      </trkpt>
      <trkpt lat="41.11772" lon="20.08666">
        <ele>182.134023</ele>
        <time>2022-05-01T12:24:52.543Z</time>
      </trkpt>
      <trkpt lat="41.1178" lon="20.08655">
        <ele>182.134023</ele>
        <time>2022-05-01T12:24:56.569Z</time>
      </trkpt>
      <trkpt lat="41.11786" lon="20.08642">
        <ele>182.134023</ele>
        <time>2022-05-01T12:25:00.549Z</time>
      </trkpt>
      <trkpt lat="41.11784" lon="20.08627">
        <ele>182.134023</ele>
        <time>2022-05-01T12:25:04.565Z</time>
      </trkpt>
      <trkpt lat="41.11782" lon="20.08615">
        <ele>182.134023</ele>
        <time>2022-05-01T12:25:07.570Z</time>
      </trkpt>
      <trkpt lat="41.11778" lon="20.08603">
        <ele>182.134023</ele>
        <time>2022-05-01T12:25:10.556Z</time>
      </trkpt>
      <trkpt lat="41.11774" lon="20.08589">
        <ele>182.134023</ele>
        <time>2022-05-01T12:25:13.557Z</time>
      </trkpt>
      <trkpt lat="41.11767" lon="20.08578">
        <ele>182.134023</ele>
        <time>2022-05-01T12:25:17.558Z</time>
      </trkpt>
      <trkpt lat="41.11757" lon="20.08583">
        <ele>182.134023</ele>
        <time>2022-05-01T12:25:25.580Z</time>
      </trkpt>
      <trkpt lat="41.1175" lon="20.08591">
        <ele>182.134023</ele>
        <time>2022-05-01T12:25:30.547Z</time>
      </trkpt>
      <trkpt lat="41.11746" lon="20.08594">
        <ele>182.134023</ele>
        <time>2022-05-01T12:26:33.963Z</time>
      </trkpt>
    </trkseg>
  </trk>
  <trk>
    <name><![CDATA[Tour d'Europe: étape 668]]></name>
    <extensions>
      <line xmlns="http://www.topografix.com/GPX/gpx_style/0/2">
        <color>00FF00</color>
        <width>4</width>
      </line>
    </extensions>
    <trkseg>
      <trkpt lat="41.51496" lon="20.53273">
        <ele>709.729914</ele>
        <time>2022-04-27T08:26:40.761Z</time>
      </trkpt>
      <trkpt lat="41.51607" lon="20.53324">
        <ele>712.454487</ele>
        <time>2022-04-27T08:36:02.769Z</time>
      </trkpt>
      <trkpt lat="41.51611" lon="20.53313">
        <ele>713.401359</ele>
        <time>2022-04-27T08:36:07.772Z</time>
      </trkpt>
      <trkpt lat="41.51615" lon="20.53301">
        <ele>714.364886</ele>
        <time>2022-04-27T08:36:14.752Z</time>
      </trkpt>
      <trkpt lat="41.51618" lon="20.5329">
        <ele>715.256189</ele>
        <time>2022-04-27T08:36:20.765Z</time>
      </trkpt>
      <trkpt lat="41.51622" lon="20.53278">
        <ele>716.194913</ele>
        <time>2022-04-27T08:36:25.753Z</time>
      </trkpt>
      <trkpt lat="41.51625" lon="20.53266">
        <ele>717.137881</ele>
        <time>2022-04-27T08:36:30.750Z</time>
      </trkpt>
      <trkpt lat="41.51629" lon="20.53254">
        <ele>718.130724</ele>
        <time>2022-04-27T08:36:36.766Z</time>
      </trkpt>
      <trkpt lat="41.51634" lon="20.53241">
        <ele>719.154725</ele>
        <time>2022-04-27T08:36:43.764Z</time>
      </trkpt>
      <trkpt lat="41.51637" lon="20.53228">
        <ele>720.187289</ele>
        <time>2022-04-27T08:36:50.753Z</time>
      </trkpt>
      <trkpt lat="41.5164" lon="20.53217">
        <ele>721.101743</ele>
        <time>2022-04-27T08:36:56.773Z</time>
      </trkpt>
      <trkpt lat="41.51644" lon="20.53205">
        <ele>722.027178</ele>
        <time>2022-04-27T08:37:01.751Z</time>
      </trkpt>
      <trkpt lat="41.51648" lon="20.53193">
        <ele>723.059402</ele>
        <time>2022-04-27T08:37:06.775Z</time>
      </trkpt>
      <trkpt lat="41.51654" lon="20.5318">
        <ele>724.124427</ele>
        <time>2022-04-27T08:37:11.764Z</time>
      </trkpt>
      <trkpt lat="41.51658" lon="20.5317">
        <ele>725.032679</ele>
        <time>2022-04-27T08:37:16.770Z</time>
      </trkpt>
      <trkpt lat="41.51665" lon="20.53157">
        <ele>726.177023</ele>
        <time>2022-04-27T08:37:20.772Z</time>
      </trkpt>
      <trkpt lat="41.51671" lon="20.53143">
        <ele>727.351767</ele>
        <time>2022-04-27T08:37:24.795Z</time>
      </trkpt>
      <trkpt lat="41.51678" lon="20.53132">
        <ele>727.393998</ele>
        <time>2022-04-27T08:37:28.774Z</time>
      </trkpt>
      <trkpt lat="41.51685" lon="20.53123">
        <ele>727.218281</ele>
        <time>2022-04-27T08:37:31.781Z</time>
      </trkpt>
      <trkpt lat="41.51692" lon="20.53113">
        <ele>727.011492</ele>
        <time>2022-04-27T08:37:34.774Z</time>
      </trkpt>
      <trkpt lat="41.51699" lon="20.53103">
        <ele>726.81626</ele>
        <time>2022-04-27T08:37:37.760Z</time>
      </trkpt>
      <trkpt lat="41.51706" lon="20.53094">
        <ele>726.63046</ele>
        <time>2022-04-27T08:37:40.817Z</time>
      </trkpt>
      <trkpt lat="41.51715" lon="20.53086">
        <ele>726.4284</ele>
        <time>2022-04-27T08:37:43.789Z</time>
      </trkpt>
      <trkpt lat="41.51723" lon="20.53076">
        <ele>726.222029</ele>
        <time>2022-04-27T08:37:46.780Z</time>
      </trkpt>
      <trkpt lat="41.51732" lon="20.53067">
        <ele>726.014105</ele>
        <time>2022-04-27T08:37:49.785Z</time>
      </trkpt>
      <trkpt lat="41.51739" lon="20.5306">
        <ele>725.84117</ele>
        <time>2022-04-27T08:37:51.780Z</time>
      </trkpt>
      <trkpt lat="41.51747" lon="20.53053">
        <ele>725.662882</ele>
        <time>2022-04-27T08:37:53.783Z</time>
      </trkpt>
      <trkpt lat="41.51756" lon="20.53046">
        <ele>725.460398</ele>
        <time>2022-04-27T08:37:55.772Z</time>
      </trkpt>
      <trkpt lat="41.51765" lon="20.5304">
        <ele>725.272916</ele>
        <time>2022-04-27T08:37:57.768Z</time>
      </trkpt>
      <trkpt lat="41.51773" lon="20.53036">
        <ele>725.098806</ele>
        <time>2022-04-27T08:37:59.768Z</time>
      </trkpt>
      <trkpt lat="41.51783" lon="20.53029">
        <ele>724.894492</ele>
        <time>2022-04-27T08:38:01.856Z</time>
      </trkpt>
      <trkpt lat="41.51792" lon="20.53024">
        <ele>724.707614</ele>
        <time>2022-04-27T08:38:03.800Z</time>
      </trkpt>
      <trkpt lat="41.51801" lon="20.5302">
        <ele>724.524103</ele>
        <time>2022-04-27T08:38:05.785Z</time>
      </trkpt>
      <trkpt lat="41.5181" lon="20.53017">
        <ele>724.350671</ele>
        <time>2022-04-27T08:38:07.808Z</time>
      </trkpt>
      <trkpt lat="41.51819" lon="20.53013">
        <ele>724.173043</ele>
        <time>2022-04-27T08:38:09.750Z</time>
      </trkpt>
      <trkpt lat="41.51828" lon="20.53009">
        <ele>723.772118</ele>
        <time>2022-04-27T08:38:11.758Z</time>
      </trkpt>
      <trkpt lat="41.51837" lon="20.53005">
        <ele>723.325922</ele>
        <time>2022-04-27T08:38:13.757Z</time>
      </trkpt>
      <trkpt lat="41.51848" lon="20.53">
        <ele>722.767955</ele>
        <time>2022-04-27T08:38:16.801Z</time>
      </trkpt>
      <trkpt lat="41.5186" lon="20.52995">
        <ele>722.168681</ele>
        <time>2022-04-27T08:38:19.777Z</time>
      </trkpt>
      <trkpt lat="41.51871" lon="20.52989">
        <ele>721.624273</ele>
        <time>2022-04-27T08:38:22.799Z</time>
      </trkpt>
      <trkpt lat="41.51881" lon="20.52984">
        <ele>721.119627</ele>
        <time>2022-04-27T08:38:25.812Z</time>
      </trkpt>
      <trkpt lat="41.51889" lon="20.52979">
        <ele>720.671491</ele>
        <time>2022-04-27T08:38:27.778Z</time>
      </trkpt>
      <trkpt lat="41.51899" lon="20.52975">
        <ele>720.213125</ele>
        <time>2022-04-27T08:38:29.774Z</time>
      </trkpt>
      <trkpt lat="41.51908" lon="20.52971">
        <ele>719.763631</ele>
        <time>2022-04-27T08:38:31.801Z</time>
      </trkpt>
      <trkpt lat="41.51917" lon="20.52965">
        <ele>719.296761</ele>
        <time>2022-04-27T08:38:33.770Z</time>
      </trkpt>
      <trkpt lat="41.51922" lon="20.52954">
        <ele>718.854535</ele>
        <time>2022-04-27T08:38:35.769Z</time>
      </trkpt>
      <trkpt lat="41.51923" lon="20.5294">
        <ele>718.347569</ele>
        <time>2022-04-27T08:38:37.763Z</time>
      </trkpt>
      <trkpt lat="41.51921" lon="20.52925">
        <ele>717.815851</ele>
        <time>2022-04-27T08:38:39.781Z</time>
      </trkpt>
      <trkpt lat="41.5192" lon="20.5291">
        <ele>717.277638</ele>
        <time>2022-04-27T08:38:41.771Z</time>
      </trkpt>
      <trkpt lat="41.5192" lon="20.52896">
        <ele>716.782896</ele>
        <time>2022-04-27T08:38:43.780Z</time>
      </trkpt>
      <trkpt lat="41.5192" lon="20.52882">
        <ele>716.292155</ele>
        <time>2022-04-27T08:38:45.802Z</time>
      </trkpt>
      <trkpt lat="41.5192" lon="20.52868">
        <ele>715.805012</ele>
        <time>2022-04-27T08:38:47.811Z</time>
      </trkpt>
      <trkpt lat="41.51921" lon="20.52854">
        <ele>715.224431</ele>
        <time>2022-04-27T08:38:49.789Z</time>
      </trkpt>
      <trkpt lat="41.51921" lon="20.52838">
        <ele>714.572756</ele>
        <time>2022-04-27T08:38:51.794Z</time>
      </trkpt>
      <trkpt lat="41.51921" lon="20.52821">
        <ele>713.896308</ele>
        <time>2022-04-27T08:38:53.765Z</time>
      </trkpt>
      <trkpt lat="41.51921" lon="20.52804">
        <ele>713.204099</ele>
        <time>2022-04-27T08:38:55.760Z</time>
      </trkpt>
      <trkpt lat="41.51921" lon="20.52786">
        <ele>712.486966</ele>
        <time>2022-04-27T08:38:57.777Z</time>
      </trkpt>
      <trkpt lat="41.51921" lon="20.52768">
        <ele>711.745838</ele>
        <time>2022-04-27T08:38:59.780Z</time>
      </trkpt>
      <trkpt lat="41.5192" lon="20.5275">
        <ele>711.016925</ele>
        <time>2022-04-27T08:39:01.773Z</time>
      </trkpt>
      <trkpt lat="41.5192" lon="20.52733">
        <ele>710.296215</ele>
        <time>2022-04-27T08:39:03.771Z</time>
      </trkpt>
      <trkpt lat="41.5192" lon="20.52714">
        <ele>709.555087</ele>
        <time>2022-04-27T08:39:05.770Z</time>
      </trkpt>
      <trkpt lat="41.5192" lon="20.52696">
        <ele>708.797733</ele>
        <time>2022-04-27T08:39:07.775Z</time>
      </trkpt>
      <trkpt lat="41.5192" lon="20.52677">
        <ele>708.028183</ele>
        <time>2022-04-27T08:39:09.767Z</time>
      </trkpt>
      <trkpt lat="41.51921" lon="20.52659">
        <ele>707.306489</ele>
        <time>2022-04-27T08:39:11.779Z</time>
      </trkpt>
      <trkpt lat="41.51921" lon="20.52643">
        <ele>706.654451</ele>
        <time>2022-04-27T08:39:13.768Z</time>
      </trkpt>
      <trkpt lat="41.51922" lon="20.52628">
        <ele>706.023128</ele>
        <time>2022-04-27T08:39:15.758Z</time>
      </trkpt>
      <trkpt lat="41.51922" lon="20.52611">
        <ele>705.274271</ele>
        <time>2022-04-27T08:39:17.762Z</time>
      </trkpt>
      <trkpt lat="41.51922" lon="20.52595">
        <ele>704.550703</ele>
        <time>2022-04-27T08:39:19.770Z</time>
      </trkpt>
      <trkpt lat="41.51923" lon="20.52579">
        <ele>703.831453</ele>
        <time>2022-04-27T08:39:21.808Z</time>
      </trkpt>
      <trkpt lat="41.51922" lon="20.52562">
        <ele>703.08068</ele>
        <time>2022-04-27T08:39:23.786Z</time>
      </trkpt>
      <trkpt lat="41.51922" lon="20.52546">
        <ele>702.325095</ele>
        <time>2022-04-27T08:39:25.783Z</time>
      </trkpt>
      <trkpt lat="41.51922" lon="20.52528">
        <ele>701.54239</ele>
        <time>2022-04-27T08:39:27.777Z</time>
      </trkpt>
      <trkpt lat="41.51921" lon="20.52511">
        <ele>700.767948</ele>
        <time>2022-04-27T08:39:29.768Z</time>
      </trkpt>
      <trkpt lat="41.5192" lon="20.52494">
        <ele>699.98026</ele>
        <time>2022-04-27T08:39:31.794Z</time>
      </trkpt>
      <trkpt lat="41.5192" lon="20.52477">
        <ele>699.197719</ele>
        <time>2022-04-27T08:39:33.767Z</time>
      </trkpt>
      <trkpt lat="41.5192" lon="20.52459">
        <ele>698.424337</ele>
        <time>2022-04-27T08:39:35.771Z</time>
      </trkpt>
      <trkpt lat="41.51921" lon="20.52442">
        <ele>697.650461</ele>
        <time>2022-04-27T08:39:37.760Z</time>
      </trkpt>
      <trkpt lat="41.51921" lon="20.52426">
        <ele>696.913128</ele>
        <time>2022-04-27T08:39:39.786Z</time>
      </trkpt>
      <trkpt lat="41.51918" lon="20.52411">
        <ele>696.193532</ele>
        <time>2022-04-27T08:39:41.787Z</time>
      </trkpt>
      <trkpt lat="41.51911" lon="20.52399">
        <ele>695.541459</ele>
        <time>2022-04-27T08:39:43.810Z</time>
      </trkpt>
      <trkpt lat="41.51902" lon="20.52394">
        <ele>695.003756</ele>
        <time>2022-04-27T08:39:45.780Z</time>
      </trkpt>
      <trkpt lat="41.51894" lon="20.52389">
        <ele>694.929602</ele>
        <time>2022-04-27T08:39:47.780Z</time>
      </trkpt>
      <trkpt lat="41.51884" lon="20.52379">
        <ele>694.831267</ele>
        <time>2022-04-27T08:39:50.774Z</time>
      </trkpt>
      <trkpt lat="41.51876" lon="20.52368">
        <ele>694.739032</ele>
        <time>2022-04-27T08:39:53.762Z</time>
      </trkpt>
      <trkpt lat="41.51868" lon="20.52358">
        <ele>694.650975</ele>
        <time>2022-04-27T08:39:56.779Z</time>
      </trkpt>
      <trkpt lat="41.51858" lon="20.52347">
        <ele>694.550716</ele>
        <time>2022-04-27T08:39:59.765Z</time>
      </trkpt>
      <trkpt lat="41.51851" lon="20.52339">
        <ele>694.471681</ele>
        <time>2022-04-27T08:40:01.776Z</time>
      </trkpt>
      <trkpt lat="41.51843" lon="20.52331">
        <ele>694.393165</ele>
        <time>2022-04-27T08:40:03.777Z</time>
      </trkpt>
      <trkpt lat="41.51836" lon="20.52323">
        <ele>694.316654</ele>
        <time>2022-04-27T08:40:05.775Z</time>
      </trkpt>
      <trkpt lat="41.51828" lon="20.52315">
        <ele>694.237993</ele>
        <time>2022-04-27T08:40:07.788Z</time>
      </trkpt>
      <trkpt lat="41.5182" lon="20.52306">
        <ele>694.157551</ele>
        <time>2022-04-27T08:40:09.784Z</time>
      </trkpt>
      <trkpt lat="41.51812" lon="20.52297">
        <ele>694.073014</ele>
        <time>2022-04-27T08:40:11.784Z</time>
      </trkpt>
      <trkpt lat="41.51804" lon="20.52289">
        <ele>693.989724</ele>
        <time>2022-04-27T08:40:13.753Z</time>
      </trkpt>
      <trkpt lat="41.51796" lon="20.5228">
        <ele>693.907053</ele>
        <time>2022-04-27T08:40:15.774Z</time>
      </trkpt>
      <trkpt lat="41.51789" lon="20.52271">
        <ele>693.825999</ele>
        <time>2022-04-27T08:40:17.803Z</time>
      </trkpt>
      <trkpt lat="41.51781" lon="20.52263">
        <ele>693.74834</ele>
        <time>2022-04-27T08:40:19.781Z</time>
      </trkpt>
      <trkpt lat="41.51774" lon="20.52255">
        <ele>693.675842</ele>
        <time>2022-04-27T08:40:21.790Z</time>
      </trkpt>
      <trkpt lat="41.51764" lon="20.52244">
        <ele>693.572186</ele>
        <time>2022-04-27T08:40:24.761Z</time>
      </trkpt>
      <trkpt lat="41.51755" lon="20.52234">
        <ele>693.610991</ele>
        <time>2022-04-27T08:40:27.789Z</time>
      </trkpt>
      <trkpt lat="41.51747" lon="20.52223">
        <ele>693.654869</ele>
        <time>2022-04-27T08:40:30.787Z</time>
      </trkpt>
      <trkpt lat="41.51738" lon="20.52213">
        <ele>693.699594</ele>
        <time>2022-04-27T08:40:33.775Z</time>
      </trkpt>
      <trkpt lat="41.51729" lon="20.52203">
        <ele>693.742776</ele>
        <time>2022-04-27T08:40:36.766Z</time>
      </trkpt>
      <trkpt lat="41.51719" lon="20.52193">
        <ele>693.791414</ele>
        <time>2022-04-27T08:40:39.765Z</time>
      </trkpt>
      <trkpt lat="41.51709" lon="20.52182">
        <ele>693.839211</ele>
        <time>2022-04-27T08:40:42.773Z</time>
      </trkpt>
      <trkpt lat="41.517" lon="20.52172">
        <ele>693.885263</ele>
        <time>2022-04-27T08:40:45.767Z</time>
      </trkpt>
      <trkpt lat="41.5169" lon="20.52161">
        <ele>693.934839</ele>
        <time>2022-04-27T08:40:48.766Z</time>
      </trkpt>
      <trkpt lat="41.51683" lon="20.52153">
        <ele>693.969471</ele>
        <time>2022-04-27T08:40:50.773Z</time>
      </trkpt>
      <trkpt lat="41.51676" lon="20.52144">
        <ele>694.004195</ele>
        <time>2022-04-27T08:40:52.766Z</time>
      </trkpt>
      <trkpt lat="41.51669" lon="20.52136">
        <ele>694.038258</ele>
        <time>2022-04-27T08:40:54.778Z</time>
      </trkpt>
      <trkpt lat="41.51662" lon="20.52128">
        <ele>694.07289</ele>
        <time>2022-04-27T08:40:56.820Z</time>
      </trkpt>
      <trkpt lat="41.51653" lon="20.52117">
        <ele>694.121296</ele>
        <time>2022-04-27T08:40:59.778Z</time>
      </trkpt>
      <trkpt lat="41.51643" lon="20.52106">
        <ele>694.168109</ele>
        <time>2022-04-27T08:41:02.811Z</time>
      </trkpt>
      <trkpt lat="41.51633" lon="20.52095">
        <ele>694.219358</ele>
        <time>2022-04-27T08:41:05.771Z</time>
      </trkpt>
      <trkpt lat="41.51626" lon="20.52086">
        <ele>694.236562</ele>
        <time>2022-04-27T08:41:07.783Z</time>
      </trkpt>
      <trkpt lat="41.51618" lon="20.52077">
        <ele>694.164016</ele>
        <time>2022-04-27T08:41:09.784Z</time>
      </trkpt>
      <trkpt lat="41.51611" lon="20.52067">
        <ele>694.090237</ele>
        <time>2022-04-27T08:41:11.770Z</time>
      </trkpt>
      <trkpt lat="41.51603" lon="20.52057">
        <ele>694.017329</ele>
        <time>2022-04-27T08:41:13.786Z</time>
      </trkpt>
      <trkpt lat="41.51596" lon="20.52048">
        <ele>693.949396</ele>
        <time>2022-04-27T08:41:15.785Z</time>
      </trkpt>
      <trkpt lat="41.51589" lon="20.52038">
        <ele>693.876256</ele>
        <time>2022-04-27T08:41:17.774Z</time>
      </trkpt>
      <trkpt lat="41.51581" lon="20.52028">
        <ele>693.799502</ele>
        <time>2022-04-27T08:41:19.784Z</time>
      </trkpt>
      <trkpt lat="41.51573" lon="20.52018">
        <ele>693.722888</ele>
        <time>2022-04-27T08:41:21.768Z</time>
      </trkpt>
      <trkpt lat="41.51567" lon="20.52008">
        <ele>693.653923</ele>
        <time>2022-04-27T08:41:23.783Z</time>
      </trkpt>
      <trkpt lat="41.5156" lon="20.51999">
        <ele>693.585723</ele>
        <time>2022-04-27T08:41:25.748Z</time>
      </trkpt>
      <trkpt lat="41.51553" lon="20.5199">
        <ele>693.519269</ele>
        <time>2022-04-27T08:41:27.803Z</time>
      </trkpt>
      <trkpt lat="41.51546" lon="20.51982">
        <ele>693.45405</ele>
        <time>2022-04-27T08:41:29.765Z</time>
      </trkpt>
      <trkpt lat="41.51539" lon="20.51973">
        <ele>693.388877</ele>
        <time>2022-04-27T08:41:31.771Z</time>
      </trkpt>
      <trkpt lat="41.5153" lon="20.51961">
        <ele>693.295874</ele>
        <time>2022-04-27T08:41:34.773Z</time>
      </trkpt>
      <trkpt lat="41.5152" lon="20.51949">
        <ele>693.203619</ele>
        <time>2022-04-27T08:41:37.776Z</time>
      </trkpt>
      <trkpt lat="41.51511" lon="20.51939">
        <ele>693.117469</ele>
        <time>2022-04-27T08:41:41.179Z</time>
      </trkpt>
      <trkpt lat="41.51502" lon="20.51929">
        <ele>693.035502</ele>
        <time>2022-04-27T08:41:43.787Z</time>
      </trkpt>
      <trkpt lat="41.51495" lon="20.5192">
        <ele>692.970681</ele>
        <time>2022-04-27T08:41:46.765Z</time>
      </trkpt>
      <trkpt lat="41.51486" lon="20.51908">
        <ele>692.889332</ele>
        <time>2022-04-27T08:41:49.801Z</time>
      </trkpt>
      <trkpt lat="41.51476" lon="20.51896">
        <ele>692.806242</ele>
        <time>2022-04-27T08:41:52.777Z</time>
      </trkpt>
      <trkpt lat="41.51467" lon="20.51885">
        <ele>692.727158</ele>
        <time>2022-04-27T08:41:55.754Z</time>
      </trkpt>
      <trkpt lat="41.51459" lon="20.51874">
        <ele>692.65299</ele>
        <time>2022-04-27T08:41:58.820Z</time>
      </trkpt>
      <trkpt lat="41.5145" lon="20.51862">
        <ele>692.575022</ele>
        <time>2022-04-27T08:42:01.785Z</time>
      </trkpt>
      <trkpt lat="41.51443" lon="20.51853">
        <ele>692.513485</ele>
        <time>2022-04-27T08:42:03.784Z</time>
      </trkpt>
      <trkpt lat="41.51436" lon="20.51843">
        <ele>692.445922</ele>
        <time>2022-04-27T08:42:05.760Z</time>
      </trkpt>
      <trkpt lat="41.51428" lon="20.51833">
        <ele>692.379538</ele>
        <time>2022-04-27T08:42:07.768Z</time>
      </trkpt>
      <trkpt lat="41.5142" lon="20.51824">
        <ele>692.312045</ele>
        <time>2022-04-27T08:42:09.769Z</time>
      </trkpt>
      <trkpt lat="41.51412" lon="20.51814">
        <ele>692.243698</ele>
        <time>2022-04-27T08:42:11.802Z</time>
      </trkpt>
      <trkpt lat="41.51404" lon="20.51803">
        <ele>692.171999</ele>
        <time>2022-04-27T08:42:13.784Z</time>
      </trkpt>
      <trkpt lat="41.51396" lon="20.51792">
        <ele>692.095477</ele>
        <time>2022-04-27T08:42:15.773Z</time>
      </trkpt>
      <trkpt lat="41.51386" lon="20.5178">
        <ele>692.015856</ele>
        <time>2022-04-27T08:42:17.769Z</time>
      </trkpt>
      <trkpt lat="41.51377" lon="20.51769">
        <ele>691.934161</ele>
        <time>2022-04-27T08:42:19.759Z</time>
      </trkpt>
      <trkpt lat="41.51367" lon="20.51757">
        <ele>691.851354</ele>
        <time>2022-04-27T08:42:21.768Z</time>
      </trkpt>
      <trkpt lat="41.51357" lon="20.51744">
        <ele>691.50899</ele>
        <time>2022-04-27T08:42:23.765Z</time>
      </trkpt>
      <trkpt lat="41.51347" lon="20.51732">
        <ele>691.155848</ele>
        <time>2022-04-27T08:42:25.781Z</time>
      </trkpt>
      <trkpt lat="41.51337" lon="20.5172">
        <ele>690.79873</ele>
        <time>2022-04-27T08:42:27.768Z</time>
      </trkpt>
      <trkpt lat="41.51327" lon="20.51707">
        <ele>690.427326</ele>
        <time>2022-04-27T08:42:29.783Z</time>
      </trkpt>
      <trkpt lat="41.51317" lon="20.51694">
        <ele>690.076382</ele>
        <time>2022-04-27T08:42:31.789Z</time>
      </trkpt>
      <trkpt lat="41.51308" lon="20.51681">
        <ele>689.718981</ele>
        <time>2022-04-27T08:42:33.804Z</time>
      </trkpt>
      <trkpt lat="41.51298" lon="20.5167">
        <ele>689.386457</ele>
        <time>2022-04-27T08:42:35.765Z</time>
      </trkpt>
      <trkpt lat="41.51289" lon="20.5166">
        <ele>689.0747</ele>
        <time>2022-04-27T08:42:37.788Z</time>
      </trkpt>
      <trkpt lat="41.51279" lon="20.51651">
        <ele>688.769422</ele>
        <time>2022-04-27T08:42:39.763Z</time>
      </trkpt>
      <trkpt lat="41.51271" lon="20.51642">
        <ele>688.492686</ele>
        <time>2022-04-27T08:42:41.777Z</time>
      </trkpt>
      <trkpt lat="41.51263" lon="20.51634">
        <ele>688.234584</ele>
        <time>2022-04-27T08:42:43.792Z</time>
      </trkpt>
      <trkpt lat="41.51255" lon="20.51627">
        <ele>687.994977</ele>
        <time>2022-04-27T08:42:45.785Z</time>
      </trkpt>
      <trkpt lat="41.51244" lon="20.51618">
        <ele>687.656406</ele>
        <time>2022-04-27T08:42:48.768Z</time>
      </trkpt>
      <trkpt lat="41.51234" lon="20.51609">
        <ele>687.3214</ele>
        <time>2022-04-27T08:42:51.765Z</time>
      </trkpt>
      <trkpt lat="41.51224" lon="20.516">
        <ele>687.091656</ele>
        <time>2022-04-27T08:42:54.775Z</time>
      </trkpt>
      <trkpt lat="41.51215" lon="20.51591">
        <ele>686.950046</ele>
        <time>2022-04-27T08:42:57.777Z</time>
      </trkpt>
      <trkpt lat="41.51206" lon="20.51583">
        <ele>686.807401</ele>
        <time>2022-04-27T08:43:00.781Z</time>
      </trkpt>
      <trkpt lat="41.51196" lon="20.51574">
        <ele>686.658428</ele>
        <time>2022-04-27T08:43:03.764Z</time>
      </trkpt>
      <trkpt lat="41.51186" lon="20.51565">
        <ele>686.503135</ele>
        <time>2022-04-27T08:43:06.766Z</time>
      </trkpt>
      <trkpt lat="41.51175" lon="20.51556">
        <ele>686.345218</ele>
        <time>2022-04-27T08:43:09.784Z</time>
      </trkpt>
      <trkpt lat="41.51165" lon="20.51547">
        <ele>686.192572</ele>
        <time>2022-04-27T08:43:12.812Z</time>
      </trkpt>
      <trkpt lat="41.51155" lon="20.51538">
        <ele>686.036215</ele>
        <time>2022-04-27T08:43:15.774Z</time>
      </trkpt>
      <trkpt lat="41.51144" lon="20.51528">
        <ele>685.873569</ele>
        <time>2022-04-27T08:43:18.801Z</time>
      </trkpt>
      <trkpt lat="41.51133" lon="20.51519">
        <ele>685.70723</ele>
        <time>2022-04-27T08:43:21.781Z</time>
      </trkpt>
      <trkpt lat="41.51126" lon="20.51512">
        <ele>685.591431</ele>
        <time>2022-04-27T08:43:23.778Z</time>
      </trkpt>
      <trkpt lat="41.51118" lon="20.51505">
        <ele>685.471391</ele>
        <time>2022-04-27T08:43:25.779Z</time>
      </trkpt>
      <trkpt lat="41.51109" lon="20.51498">
        <ele>685.343902</ele>
        <time>2022-04-27T08:43:27.777Z</time>
      </trkpt>
      <trkpt lat="41.51101" lon="20.51491">
        <ele>685.215996</ele>
        <time>2022-04-27T08:43:29.788Z</time>
      </trkpt>
      <trkpt lat="41.51092" lon="20.51483">
        <ele>685.082286</ele>
        <time>2022-04-27T08:43:31.781Z</time>
      </trkpt>
      <trkpt lat="41.51084" lon="20.51475">
        <ele>684.955424</ele>
        <time>2022-04-27T08:43:33.761Z</time>
      </trkpt>
      <trkpt lat="41.51075" lon="20.51468">
        <ele>684.734524</ele>
        <time>2022-04-27T08:43:35.815Z</time>
      </trkpt>
      <trkpt lat="41.51066" lon="20.5146">
        <ele>684.390487</ele>
        <time>2022-04-27T08:43:37.776Z</time>
      </trkpt>
      <trkpt lat="41.51058" lon="20.51452">
        <ele>684.062621</ele>
        <time>2022-04-27T08:43:39.775Z</time>
      </trkpt>
      <trkpt lat="41.51049" lon="20.51444">
        <ele>683.71172</ele>
        <time>2022-04-27T08:43:41.785Z</time>
      </trkpt>
      <trkpt lat="41.51041" lon="20.51436">
        <ele>683.367617</ele>
        <time>2022-04-27T08:43:43.752Z</time>
      </trkpt>
      <trkpt lat="41.51033" lon="20.51428">
        <ele>683.038004</ele>
        <time>2022-04-27T08:43:45.806Z</time>
      </trkpt>
      <trkpt lat="41.51025" lon="20.51419">
        <ele>682.696724</ele>
        <time>2022-04-27T08:43:47.781Z</time>
      </trkpt>
      <trkpt lat="41.51017" lon="20.51411">
        <ele>682.365574</ele>
        <time>2022-04-27T08:43:49.780Z</time>
      </trkpt>
      <trkpt lat="41.5101" lon="20.51401">
        <ele>682.038404</ele>
        <time>2022-04-27T08:43:51.763Z</time>
      </trkpt>
      <trkpt lat="41.51003" lon="20.51392">
        <ele>681.717004</ele>
        <time>2022-04-27T08:43:53.767Z</time>
      </trkpt>
      <trkpt lat="41.50995" lon="20.51384">
        <ele>681.396538</ele>
        <time>2022-04-27T08:43:55.771Z</time>
      </trkpt>
      <trkpt lat="41.50988" lon="20.51375">
        <ele>681.065387</ele>
        <time>2022-04-27T08:43:57.779Z</time>
      </trkpt>
      <trkpt lat="41.5098" lon="20.51366">
        <ele>680.733515</ele>
        <time>2022-04-27T08:43:59.797Z</time>
      </trkpt>
      <trkpt lat="41.50973" lon="20.51357">
        <ele>680.413388</ele>
        <time>2022-04-27T08:44:01.773Z</time>
      </trkpt>
      <trkpt lat="41.50966" lon="20.51347">
        <ele>680.067158</ele>
        <time>2022-04-27T08:44:03.773Z</time>
      </trkpt>
      <trkpt lat="41.50958" lon="20.51338">
        <ele>679.731133</ele>
        <time>2022-04-27T08:44:05.788Z</time>
      </trkpt>
      <trkpt lat="41.50951" lon="20.51328">
        <ele>679.392409</ele>
        <time>2022-04-27T08:44:07.814Z</time>
      </trkpt>
      <trkpt lat="41.50943" lon="20.51318">
        <ele>679.048505</ele>
        <time>2022-04-27T08:44:09.761Z</time>
      </trkpt>
      <trkpt lat="41.50936" lon="20.51308">
        <ele>678.996485</ele>
        <time>2022-04-27T08:44:11.769Z</time>
      </trkpt>
      <trkpt lat="41.50928" lon="20.51298">
        <ele>679.021817</ele>
        <time>2022-04-27T08:44:13.823Z</time>
      </trkpt>
      <trkpt lat="41.50921" lon="20.51288">
        <ele>679.046496</ele>
        <time>2022-04-27T08:44:15.765Z</time>
      </trkpt>
      <trkpt lat="41.50914" lon="20.51278">
        <ele>679.070882</ele>
        <time>2022-04-27T08:44:17.774Z</time>
      </trkpt>
      <trkpt lat="41.50908" lon="20.51268">
        <ele>679.095269</ele>
        <time>2022-04-27T08:44:19.796Z</time>
      </trkpt>
      <trkpt lat="41.50901" lon="20.51257">
        <ele>679.119471</ele>
        <time>2022-04-27T08:44:21.788Z</time>
      </trkpt>
      <trkpt lat="41.50895" lon="20.51247">
        <ele>679.143193</ele>
        <time>2022-04-27T08:44:23.774Z</time>
      </trkpt>
      <trkpt lat="41.50888" lon="20.51236">
        <ele>679.167467</ele>
        <time>2022-04-27T08:44:25.795Z</time>
      </trkpt>
      <trkpt lat="41.50882" lon="20.51226">
        <ele>679.192094</ele>
        <time>2022-04-27T08:44:27.772Z</time>
      </trkpt>
      <trkpt lat="41.50875" lon="20.51215">
        <ele>679.216855</ele>
        <time>2022-04-27T08:44:29.769Z</time>
      </trkpt>
      <trkpt lat="41.50868" lon="20.51205">
        <ele>679.240729</ele>
        <time>2022-04-27T08:44:31.777Z</time>
      </trkpt>
      <trkpt lat="41.50861" lon="20.51194">
        <ele>679.266342</ele>
        <time>2022-04-27T08:44:33.766Z</time>
      </trkpt>
      <trkpt lat="41.50854" lon="20.51183">
        <ele>679.292963</ele>
        <time>2022-04-27T08:44:35.780Z</time>
      </trkpt>
      <trkpt lat="41.50847" lon="20.51173">
        <ele>679.31813</ele>
        <time>2022-04-27T08:44:37.759Z</time>
      </trkpt>
      <trkpt lat="41.50839" lon="20.51162">
        <ele>679.344534</ele>
        <time>2022-04-27T08:44:39.778Z</time>
      </trkpt>
      <trkpt lat="41.50831" lon="20.5115">
        <ele>679.372565</ele>
        <time>2022-04-27T08:44:41.781Z</time>
      </trkpt>
      <trkpt lat="41.50823" lon="20.51138">
        <ele>679.401066</ele>
        <time>2022-04-27T08:44:43.764Z</time>
      </trkpt>
      <trkpt lat="41.50815" lon="20.51126">
        <ele>679.292345</ele>
        <time>2022-04-27T08:44:45.767Z</time>
      </trkpt>
      <trkpt lat="41.50807" lon="20.51113">
        <ele>679.158395</ele>
        <time>2022-04-27T08:44:47.781Z</time>
      </trkpt>
      <trkpt lat="41.508" lon="20.51099">
        <ele>679.021375</ele>
        <time>2022-04-27T08:44:49.758Z</time>
      </trkpt>
      <trkpt lat="41.50791" lon="20.51086">
        <ele>678.881609</ele>
        <time>2022-04-27T08:44:51.771Z</time>
      </trkpt>
      <trkpt lat="41.50782" lon="20.51072">
        <ele>678.74116</ele>
        <time>2022-04-27T08:44:53.801Z</time>
      </trkpt>
      <trkpt lat="41.50774" lon="20.51059">
        <ele>678.601999</ele>
        <time>2022-04-27T08:44:55.765Z</time>
      </trkpt>
      <trkpt lat="41.50766" lon="20.51045">
        <ele>678.461818</ele>
        <time>2022-04-27T08:44:57.767Z</time>
      </trkpt>
      <trkpt lat="41.50757" lon="20.5103">
        <ele>678.315272</ele>
        <time>2022-04-27T08:44:59.785Z</time>
      </trkpt>
      <trkpt lat="41.5075" lon="20.51015">
        <ele>678.168601</ele>
        <time>2022-04-27T08:45:01.780Z</time>
      </trkpt>
      <trkpt lat="41.50742" lon="20.51">
        <ele>678.023889</ele>
        <time>2022-04-27T08:45:03.775Z</time>
      </trkpt>
      <trkpt lat="41.50735" lon="20.50983">
        <ele>677.873385</ele>
        <time>2022-04-27T08:45:05.764Z</time>
      </trkpt>
      <trkpt lat="41.50728" lon="20.50967">
        <ele>677.724486</ele>
        <time>2022-04-27T08:45:07.768Z</time>
      </trkpt>
      <trkpt lat="41.50721" lon="20.50951">
        <ele>677.578527</ele>
        <time>2022-04-27T08:45:09.775Z</time>
      </trkpt>
      <trkpt lat="41.50714" lon="20.50935">
        <ele>677.508203</ele>
        <time>2022-04-27T08:45:11.763Z</time>
      </trkpt>
      <trkpt lat="41.50708" lon="20.50919">
        <ele>677.521971</ele>
        <time>2022-04-27T08:45:13.781Z</time>
      </trkpt>
      <trkpt lat="41.50703" lon="20.50904">
        <ele>677.535201</ele>
        <time>2022-04-27T08:45:15.810Z</time>
      </trkpt>
      <trkpt lat="41.50698" lon="20.5089">
        <ele>677.547656</ele>
        <time>2022-04-27T08:45:17.769Z</time>
      </trkpt>
      <trkpt lat="41.50691" lon="20.50877">
        <ele>677.560168</ele>
        <time>2022-04-27T08:45:19.778Z</time>
      </trkpt>
      <trkpt lat="41.50684" lon="20.50864">
        <ele>677.572519</ele>
        <time>2022-04-27T08:45:21.783Z</time>
      </trkpt>
      <trkpt lat="41.50679" lon="20.50851">
        <ele>677.584869</ele>
        <time>2022-04-27T08:45:23.781Z</time>
      </trkpt>
      <trkpt lat="41.50673" lon="20.50837">
        <ele>677.597188</ele>
        <time>2022-04-27T08:45:25.780Z</time>
      </trkpt>
      <trkpt lat="41.50667" lon="20.50825">
        <ele>677.608961</ele>
        <time>2022-04-27T08:45:27.761Z</time>
      </trkpt>
      <trkpt lat="41.5066" lon="20.50813">
        <ele>677.620583</ele>
        <time>2022-04-27T08:45:29.768Z</time>
      </trkpt>
      <trkpt lat="41.50654" lon="20.50802">
        <ele>677.631511</ele>
        <time>2022-04-27T08:45:31.777Z</time>
      </trkpt>
      <trkpt lat="41.50647" lon="20.50791">
        <ele>677.642207</ele>
        <time>2022-04-27T08:45:33.781Z</time>
      </trkpt>
      <trkpt lat="41.5064" lon="20.50781">
        <ele>677.653008</ele>
        <time>2022-04-27T08:45:35.776Z</time>
      </trkpt>
      <trkpt lat="41.50633" lon="20.50772">
        <ele>677.663543</ele>
        <time>2022-04-27T08:45:37.781Z</time>
      </trkpt>
      <trkpt lat="41.50626" lon="20.50763">
        <ele>677.674059</ele>
        <time>2022-04-27T08:45:39.774Z</time>
      </trkpt>
      <trkpt lat="41.50619" lon="20.50754">
        <ele>677.683951</ele>
        <time>2022-04-27T08:45:41.778Z</time>
      </trkpt>
      <trkpt lat="41.50612" lon="20.50745">
        <ele>677.560888</ele>
        <time>2022-04-27T08:45:43.845Z</time>
      </trkpt>
      <trkpt lat="41.50604" lon="20.50737">
        <ele>677.17172</ele>
        <time>2022-04-27T08:45:45.753Z</time>
      </trkpt>
      <trkpt lat="41.50596" lon="20.50729">
        <ele>676.813353</ele>
        <time>2022-04-27T08:45:47.751Z</time>
      </trkpt>
      <trkpt lat="41.50589" lon="20.50722">
        <ele>676.452589</ele>
        <time>2022-04-27T08:45:49.798Z</time>
      </trkpt>
      <trkpt lat="41.50582" lon="20.50715">
        <ele>676.097266</ele>
        <time>2022-04-27T08:45:51.782Z</time>
      </trkpt>
      <trkpt lat="41.5057" lon="20.50704">
        <ele>675.573956</ele>
        <time>2022-04-27T08:45:54.771Z</time>
      </trkpt>
      <trkpt lat="41.5056" lon="20.50695">
        <ele>675.073174</ele>
        <time>2022-04-27T08:45:57.777Z</time>
      </trkpt>
      <trkpt lat="41.50549" lon="20.50686">
        <ele>674.596288</ele>
        <time>2022-04-27T08:46:00.772Z</time>
      </trkpt>
      <trkpt lat="41.50539" lon="20.50679">
        <ele>674.147454</ele>
        <time>2022-04-27T08:46:03.775Z</time>
      </trkpt>
      <trkpt lat="41.50528" lon="20.50671">
        <ele>673.679599</ele>
        <time>2022-04-27T08:46:06.773Z</time>
      </trkpt>
      <trkpt lat="41.50516" lon="20.50664">
        <ele>673.176114</ele>
        <time>2022-04-27T08:46:09.780Z</time>
      </trkpt>
      <trkpt lat="41.50504" lon="20.50657">
        <ele>672.661821</ele>
        <time>2022-04-27T08:46:12.825Z</time>
      </trkpt>
      <trkpt lat="41.50496" lon="20.50653">
        <ele>672.311116</ele>
        <time>2022-04-27T08:46:14.791Z</time>
      </trkpt>
      <trkpt lat="41.50487" lon="20.5065">
        <ele>671.960167</ele>
        <time>2022-04-27T08:46:16.781Z</time>
      </trkpt>
      <trkpt lat="41.50478" lon="20.50647">
        <ele>671.593536</ele>
        <time>2022-04-27T08:46:18.788Z</time>
      </trkpt>
      <trkpt lat="41.50469" lon="20.50643">
        <ele>671.236354</ele>
        <time>2022-04-27T08:46:20.779Z</time>
      </trkpt>
      <trkpt lat="41.5046" lon="20.5064">
        <ele>670.877226</ele>
        <time>2022-04-27T08:46:22.789Z</time>
      </trkpt>
      <trkpt lat="41.50451" lon="20.50637">
        <ele>670.682898</ele>
        <time>2022-04-27T08:46:24.778Z</time>
      </trkpt>
      <trkpt lat="41.50442" lon="20.50634">
        <ele>670.603583</ele>
        <time>2022-04-27T08:46:26.772Z</time>
      </trkpt>
      <trkpt lat="41.50432" lon="20.50632">
        <ele>670.522618</ele>
        <time>2022-04-27T08:46:28.777Z</time>
      </trkpt>
      <trkpt lat="41.50423" lon="20.5063">
        <ele>670.442234</ele>
        <time>2022-04-27T08:46:30.784Z</time>
      </trkpt>
      <trkpt lat="41.50414" lon="20.50628">
        <ele>670.362975</ele>
        <time>2022-04-27T08:46:32.781Z</time>
      </trkpt>
      <trkpt lat="41.504" lon="20.50627">
        <ele>670.248095</ele>
        <time>2022-04-27T08:46:35.775Z</time>
      </trkpt>
      <trkpt lat="41.5039" lon="20.50626">
        <ele>670.162759</ele>
        <time>2022-04-27T08:46:37.790Z</time>
      </trkpt>
      <trkpt lat="41.5038" lon="20.50625">
        <ele>670.077488</ele>
        <time>2022-04-27T08:46:39.796Z</time>
      </trkpt>
      <trkpt lat="41.5037" lon="20.50625">
        <ele>669.994794</ele>
        <time>2022-04-27T08:46:41.806Z</time>
      </trkpt>
      <trkpt lat="41.5036" lon="20.50625">
        <ele>669.911256</ele>
        <time>2022-04-27T08:46:43.755Z</time>
      </trkpt>
      <trkpt lat="41.5035" lon="20.50626">
        <ele>669.826854</ele>
        <time>2022-04-27T08:46:45.765Z</time>
      </trkpt>
      <trkpt lat="41.50339" lon="20.50626">
        <ele>669.73318</ele>
        <time>2022-04-27T08:46:47.780Z</time>
      </trkpt>
      <trkpt lat="41.50328" lon="20.50626">
        <ele>669.637873</ele>
        <time>2022-04-27T08:46:49.790Z</time>
      </trkpt>
      <trkpt lat="41.50316" lon="20.50626">
        <ele>669.535786</ele>
        <time>2022-04-27T08:46:51.818Z</time>
      </trkpt>
      <trkpt lat="41.50303" lon="20.50625">
        <ele>669.42858</ele>
        <time>2022-04-27T08:46:53.775Z</time>
      </trkpt>
      <trkpt lat="41.5029" lon="20.50624">
        <ele>669.315164</ele>
        <time>2022-04-27T08:46:55.784Z</time>
      </trkpt>
      <trkpt lat="41.50275" lon="20.50622">
        <ele>669.111125</ele>
        <time>2022-04-27T08:46:57.793Z</time>
      </trkpt>
      <trkpt lat="41.50261" lon="20.50617">
        <ele>668.43374</ele>
        <time>2022-04-27T08:46:59.780Z</time>
      </trkpt>
      <trkpt lat="41.50246" lon="20.50609">
        <ele>667.730445</ele>
        <time>2022-04-27T08:47:01.779Z</time>
      </trkpt>
      <trkpt lat="41.50233" lon="20.50597">
        <ele>667.001952</ele>
        <time>2022-04-27T08:47:03.805Z</time>
      </trkpt>
      <trkpt lat="41.50221" lon="20.50582">
        <ele>666.235528</ele>
        <time>2022-04-27T08:47:05.769Z</time>
      </trkpt>
      <trkpt lat="41.50208" lon="20.50564">
        <ele>665.426994</ele>
        <time>2022-04-27T08:47:07.778Z</time>
      </trkpt>
      <trkpt lat="41.50196" lon="20.50548">
        <ele>664.641091</ele>
        <time>2022-04-27T08:47:09.782Z</time>
      </trkpt>
      <trkpt lat="41.50184" lon="20.50533">
        <ele>663.89715</ele>
        <time>2022-04-27T08:47:11.769Z</time>
      </trkpt>
      <trkpt lat="41.5017" lon="20.5052">
        <ele>663.119734</ele>
        <time>2022-04-27T08:47:13.806Z</time>
      </trkpt>
      <trkpt lat="41.50154" lon="20.50509">
        <ele>662.318874</ele>
        <time>2022-04-27T08:47:15.776Z</time>
      </trkpt>
      <trkpt lat="41.50138" lon="20.50501">
        <ele>661.539486</ele>
        <time>2022-04-27T08:47:17.769Z</time>
      </trkpt>
      <trkpt lat="41.50122" lon="20.50495">
        <ele>660.863247</ele>
        <time>2022-04-27T08:47:19.811Z</time>
      </trkpt>
      <trkpt lat="41.50106" lon="20.5049">
        <ele>660.328095</ele>
        <time>2022-04-27T08:47:21.769Z</time>
      </trkpt>
      <trkpt lat="41.50091" lon="20.50483">
        <ele>659.79032</ele>
        <time>2022-04-27T08:47:23.780Z</time>
      </trkpt>
      <trkpt lat="41.50075" lon="20.50472">
        <ele>659.20848</ele>
        <time>2022-04-27T08:47:25.770Z</time>
      </trkpt>
      <trkpt lat="41.50061" lon="20.50459">
        <ele>658.630586</ele>
        <time>2022-04-27T08:47:27.774Z</time>
      </trkpt>
      <trkpt lat="41.50046" lon="20.50445">
        <ele>658.037257</ele>
        <time>2022-04-27T08:47:29.767Z</time>
      </trkpt>
      <trkpt lat="41.50039" lon="20.50437">
        <ele>657.73276</ele>
        <time>2022-04-27T08:47:30.824Z</time>
      </trkpt>
      <trkpt lat="41.50031" lon="20.50429">
        <ele>657.420018</ele>
        <time>2022-04-27T08:47:31.784Z</time>
      </trkpt>
      <trkpt lat="41.50024" lon="20.50421">
        <ele>657.100569</ele>
        <time>2022-04-27T08:47:32.806Z</time>
      </trkpt>
      <trkpt lat="41.50016" lon="20.50413">
        <ele>656.776996</ele>
        <time>2022-04-27T08:47:33.754Z</time>
      </trkpt>
      <trkpt lat="41.50009" lon="20.50406">
        <ele>656.469915</ele>
        <time>2022-04-27T08:47:34.773Z</time>
      </trkpt>
      <trkpt lat="41.50002" lon="20.50398">
        <ele>656.170755</ele>
        <time>2022-04-27T08:47:35.773Z</time>
      </trkpt>
      <trkpt lat="41.49989" lon="20.50382">
        <ele>655.597881</ele>
        <time>2022-04-27T08:47:37.768Z</time>
      </trkpt>
      <trkpt lat="41.49976" lon="20.50368">
        <ele>654.960692</ele>
        <time>2022-04-27T08:47:39.816Z</time>
      </trkpt>
      <trkpt lat="41.49961" lon="20.50356">
        <ele>653.880334</ele>
        <time>2022-04-27T08:47:41.810Z</time>
      </trkpt>
      <trkpt lat="41.49946" lon="20.50344">
        <ele>652.764396</ele>
        <time>2022-04-27T08:47:43.771Z</time>
      </trkpt>
      <trkpt lat="41.49937" lon="20.5034">
        <ele>652.188868</ele>
        <time>2022-04-27T08:47:44.771Z</time>
      </trkpt>
      <trkpt lat="41.49928" lon="20.50335">
        <ele>651.594948</ele>
        <time>2022-04-27T08:47:45.776Z</time>
      </trkpt>
      <trkpt lat="41.49919" lon="20.50332">
        <ele>650.987336</ele>
        <time>2022-04-27T08:47:46.778Z</time>
      </trkpt>
      <trkpt lat="41.4991" lon="20.50329">
        <ele>650.376854</ele>
        <time>2022-04-27T08:47:47.792Z</time>
      </trkpt>
      <trkpt lat="41.499" lon="20.50328">
        <ele>649.770337</ele>
        <time>2022-04-27T08:47:48.784Z</time>
      </trkpt>
      <trkpt lat="41.4989" lon="20.50327">
        <ele>649.148236</ele>
        <time>2022-04-27T08:47:49.773Z</time>
      </trkpt>
      <trkpt lat="41.4988" lon="20.50326">
        <ele>648.538087</ele>
        <time>2022-04-27T08:47:50.768Z</time>
      </trkpt>
      <trkpt lat="41.49871" lon="20.50325">
        <ele>647.94129</ele>
        <time>2022-04-27T08:47:51.764Z</time>
      </trkpt>
      <trkpt lat="41.49862" lon="20.50325">
        <ele>647.369313</ele>
        <time>2022-04-27T08:47:52.830Z</time>
      </trkpt>
      <trkpt lat="41.49852" lon="20.50324">
        <ele>646.772516</ele>
        <time>2022-04-27T08:47:53.753Z</time>
      </trkpt>
      <trkpt lat="41.49843" lon="20.50323">
        <ele>646.175719</ele>
        <time>2022-04-27T08:47:54.765Z</time>
      </trkpt>
      <trkpt lat="41.49834" lon="20.50323">
        <ele>645.591458</ele>
        <time>2022-04-27T08:47:55.790Z</time>
      </trkpt>
      <trkpt lat="41.49824" lon="20.50322">
        <ele>645.020118</ele>
        <time>2022-04-27T08:47:56.795Z</time>
      </trkpt>
      <trkpt lat="41.49808" lon="20.50323">
        <ele>643.984563</ele>
        <time>2022-04-27T08:47:58.770Z</time>
      </trkpt>
      <trkpt lat="41.49793" lon="20.50327">
        <ele>642.921898</ele>
        <time>2022-04-27T08:48:00.783Z</time>
      </trkpt>
      <trkpt lat="41.49778" lon="20.50336">
        <ele>641.819707</ele>
        <time>2022-04-27T08:48:02.762Z</time>
      </trkpt>
      <trkpt lat="41.49765" lon="20.5035">
        <ele>640.672371</ele>
        <time>2022-04-27T08:48:04.777Z</time>
      </trkpt>
      <trkpt lat="41.49755" lon="20.50369">
        <ele>639.480548</ele>
        <time>2022-04-27T08:48:06.784Z</time>
      </trkpt>
      <trkpt lat="41.49746" lon="20.50388">
        <ele>638.334373</ele>
        <time>2022-04-27T08:48:08.779Z</time>
      </trkpt>
      <trkpt lat="41.49739" lon="20.50405">
        <ele>637.318276</ele>
        <time>2022-04-27T08:48:10.765Z</time>
      </trkpt>
      <trkpt lat="41.49732" lon="20.50421">
        <ele>636.386113</ele>
        <time>2022-04-27T08:48:12.779Z</time>
      </trkpt>
      <trkpt lat="41.49725" lon="20.50436">
        <ele>635.453313</ele>
        <time>2022-04-27T08:48:14.824Z</time>
      </trkpt>
      <trkpt lat="41.49717" lon="20.50451">
        <ele>634.507349</ele>
        <time>2022-04-27T08:48:16.786Z</time>
      </trkpt>
      <trkpt lat="41.4971" lon="20.50465">
        <ele>633.6444</ele>
        <time>2022-04-27T08:48:18.772Z</time>
      </trkpt>
      <trkpt lat="41.49701" lon="20.50478">
        <ele>632.750501</ele>
        <time>2022-04-27T08:48:20.759Z</time>
      </trkpt>
      <trkpt lat="41.49691" lon="20.50488">
        <ele>631.905617</ele>
        <time>2022-04-27T08:48:22.763Z</time>
      </trkpt>
      <trkpt lat="41.49682" lon="20.50498">
        <ele>631.396936</ele>
        <time>2022-04-27T08:48:24.774Z</time>
      </trkpt>
      <trkpt lat="41.49673" lon="20.50506">
        <ele>631.169673</ele>
        <time>2022-04-27T08:48:26.773Z</time>
      </trkpt>
      <trkpt lat="41.49663" lon="20.50515">
        <ele>630.938259</ele>
        <time>2022-04-27T08:48:28.786Z</time>
      </trkpt>
      <trkpt lat="41.49653" lon="20.50523">
        <ele>630.6993</ele>
        <time>2022-04-27T08:48:30.783Z</time>
      </trkpt>
      <trkpt lat="41.49644" lon="20.50532">
        <ele>630.462852</ele>
        <time>2022-04-27T08:48:32.767Z</time>
      </trkpt>
      <trkpt lat="41.49634" lon="20.50541">
        <ele>630.223893</ele>
        <time>2022-04-27T08:48:34.784Z</time>
      </trkpt>
      <trkpt lat="41.49623" lon="20.5055">
        <ele>629.963897</ele>
        <time>2022-04-27T08:48:36.787Z</time>
      </trkpt>
      <trkpt lat="41.49611" lon="20.50559">
        <ele>629.692501</ele>
        <time>2022-04-27T08:48:38.770Z</time>
      </trkpt>
      <trkpt lat="41.496" lon="20.50566">
        <ele>629.438742</ele>
        <time>2022-04-27T08:48:40.761Z</time>
      </trkpt>
      <trkpt lat="41.49588" lon="20.50573">
        <ele>629.191298</ele>
        <time>2022-04-27T08:48:42.811Z</time>
      </trkpt>
      <trkpt lat="41.49578" lon="20.50577">
        <ele>628.971344</ele>
        <time>2022-04-27T08:48:44.817Z</time>
      </trkpt>
      <trkpt lat="41.49568" lon="20.50581">
        <ele>628.764016</ele>
        <time>2022-04-27T08:48:46.773Z</time>
      </trkpt>
      <trkpt lat="41.49558" lon="20.50584">
        <ele>628.547523</ele>
        <time>2022-04-27T08:48:48.769Z</time>
      </trkpt>
      <trkpt lat="41.49548" lon="20.50587">
        <ele>628.348738</ele>
        <time>2022-04-27T08:48:50.769Z</time>
      </trkpt>
      <trkpt lat="41.49539" lon="20.50589">
        <ele>628.154881</ele>
        <time>2022-04-27T08:48:52.774Z</time>
      </trkpt>
      <trkpt lat="41.49529" lon="20.50592">
        <ele>627.954132</ele>
        <time>2022-04-27T08:48:54.792Z</time>
      </trkpt>
      <trkpt lat="41.49519" lon="20.50596">
        <ele>627.683523</ele>
        <time>2022-04-27T08:48:56.781Z</time>
      </trkpt>
      <trkpt lat="41.49509" lon="20.50599">
        <ele>627.406803</ele>
        <time>2022-04-27T08:48:58.754Z</time>
      </trkpt>
      <trkpt lat="41.49498" lon="20.50601">
        <ele>627.066976</ele>
        <time>2022-04-27T08:49:01.769Z</time>
      </trkpt>
      <trkpt lat="41.49486" lon="20.50602">
        <ele>626.727935</ele>
        <time>2022-04-27T08:49:04.800Z</time>
      </trkpt>
      <trkpt lat="41.49475" lon="20.50604">
        <ele>626.427055</ele>
        <time>2022-04-27T08:49:07.768Z</time>
      </trkpt>
      <trkpt lat="41.49465" lon="20.50605">
        <ele>626.129239</ele>
        <time>2022-04-27T08:49:10.814Z</time>
      </trkpt>
      <trkpt lat="41.49453" lon="20.50607">
        <ele>625.801302</ele>
        <time>2022-04-27T08:49:14.784Z</time>
      </trkpt>
      <trkpt lat="41.49442" lon="20.50605">
        <ele>625.482415</ele>
        <time>2022-04-27T08:49:18.776Z</time>
      </trkpt>
      <trkpt lat="41.49433" lon="20.50603">
        <ele>625.220185</ele>
        <time>2022-04-27T08:49:21.812Z</time>
      </trkpt>
      <trkpt lat="41.49424" lon="20.50605">
        <ele>624.953731</ele>
        <time>2022-04-27T08:49:24.786Z</time>
      </trkpt>
      <trkpt lat="41.49414" lon="20.50606">
        <ele>624.679883</ele>
        <time>2022-04-27T08:49:27.812Z</time>
      </trkpt>
      <trkpt lat="41.49405" lon="20.50607">
        <ele>624.407997</ele>
        <time>2022-04-27T08:49:30.780Z</time>
      </trkpt>
      <trkpt lat="41.49396" lon="20.50607">
        <ele>624.151682</ele>
        <time>2022-04-27T08:49:33.776Z</time>
      </trkpt>
      <trkpt lat="41.49386" lon="20.50607">
        <ele>623.875486</ele>
        <time>2022-04-27T08:49:36.787Z</time>
      </trkpt>
      <trkpt lat="41.49376" lon="20.50608">
        <ele>623.58765</ele>
        <time>2022-04-27T08:49:39.774Z</time>
      </trkpt>
      <trkpt lat="41.49366" lon="20.50609">
        <ele>623.30319</ele>
        <time>2022-04-27T08:49:42.772Z</time>
      </trkpt>
      <trkpt lat="41.49355" lon="20.50611">
        <ele>622.993322</ele>
        <time>2022-04-27T08:49:45.768Z</time>
      </trkpt>
      <trkpt lat="41.49344" lon="20.50613">
        <ele>622.807626</ele>
        <time>2022-04-27T08:49:48.774Z</time>
      </trkpt>
      <trkpt lat="41.49332" lon="20.50614">
        <ele>622.934385</ele>
        <time>2022-04-27T08:49:51.774Z</time>
      </trkpt>
      <trkpt lat="41.4932" lon="20.50615">
        <ele>623.066435</ele>
        <time>2022-04-27T08:49:54.774Z</time>
      </trkpt>
      <trkpt lat="41.49307" lon="20.50616">
        <ele>623.197174</ele>
        <time>2022-04-27T08:49:57.783Z</time>
      </trkpt>
      <trkpt lat="41.49295" lon="20.50617">
        <ele>623.330169</ele>
        <time>2022-04-27T08:50:00.809Z</time>
      </trkpt>
      <trkpt lat="41.49282" lon="20.50619">
        <ele>623.46764</ele>
        <time>2022-04-27T08:50:03.792Z</time>
      </trkpt>
      <trkpt lat="41.49269" lon="20.5062">
        <ele>623.606944</ele>
        <time>2022-04-27T08:50:06.812Z</time>
      </trkpt>
      <trkpt lat="41.49256" lon="20.50621">
        <ele>623.748415</ele>
        <time>2022-04-27T08:50:09.777Z</time>
      </trkpt>
      <trkpt lat="41.49243" lon="20.50622">
        <ele>623.884901</ele>
        <time>2022-04-27T08:50:12.762Z</time>
      </trkpt>
      <trkpt lat="41.49231" lon="20.50626">
        <ele>624.014099</ele>
        <time>2022-04-27T08:50:15.776Z</time>
      </trkpt>
      <trkpt lat="41.4922" lon="20.50632">
        <ele>624.137311</ele>
        <time>2022-04-27T08:50:18.774Z</time>
      </trkpt>
      <trkpt lat="41.49211" lon="20.50643">
        <ele>624.267942</ele>
        <time>2022-04-27T08:50:21.784Z</time>
      </trkpt>
      <trkpt lat="41.49205" lon="20.50655">
        <ele>624.382016</ele>
        <time>2022-04-27T08:50:24.768Z</time>
      </trkpt>
      <trkpt lat="41.49201" lon="20.50669">
        <ele>624.503405</ele>
        <time>2022-04-27T08:50:28.806Z</time>
      </trkpt>
      <trkpt lat="41.492" lon="20.50682">
        <ele>624.604862</ele>
        <time>2022-04-27T08:50:32.769Z</time>
      </trkpt>
      <trkpt lat="41.49199" lon="20.50695">
        <ele>624.831789</ele>
        <time>2022-04-27T08:50:37.782Z</time>
      </trkpt>
      <trkpt lat="41.49199" lon="20.50708">
        <ele>625.374418</ele>
        <time>2022-04-27T08:50:42.772Z</time>
      </trkpt>
      <trkpt lat="41.49198" lon="20.50721">
        <ele>625.883302</ele>
        <time>2022-04-27T08:50:47.773Z</time>
      </trkpt>
      <trkpt lat="41.49197" lon="20.50733">
        <ele>626.374156</ele>
        <time>2022-04-27T08:50:52.758Z</time>
      </trkpt>
      <trkpt lat="41.49195" lon="20.50746">
        <ele>626.885188</ele>
        <time>2022-04-27T08:50:57.828Z</time>
      </trkpt>
      <trkpt lat="41.49189" lon="20.50756">
        <ele>627.396044</ele>
        <time>2022-04-27T08:51:02.766Z</time>
      </trkpt>
      <trkpt lat="41.49184" lon="20.50766">
        <ele>627.878158</ele>
        <time>2022-04-27T08:51:07.799Z</time>
      </trkpt>
      <trkpt lat="41.49177" lon="20.50776">
        <ele>628.433619</ele>
        <time>2022-04-27T08:51:13.773Z</time>
      </trkpt>
      <trkpt lat="41.4917" lon="20.50786">
        <ele>628.938857</ele>
        <time>2022-04-27T08:51:19.784Z</time>
      </trkpt>
      <trkpt lat="41.49163" lon="20.50795">
        <ele>629.496064</ele>
        <time>2022-04-27T08:51:25.769Z</time>
      </trkpt>
      <trkpt lat="41.49158" lon="20.50805">
        <ele>629.978666</ele>
        <time>2022-04-27T08:51:31.787Z</time>
      </trkpt>
      <trkpt lat="41.49151" lon="20.50816">
        <ele>630.537453</ele>
        <time>2022-04-27T08:51:38.790Z</time>
      </trkpt>
      <trkpt lat="41.49145" lon="20.50826">
        <ele>631.045754</ele>
        <time>2022-04-27T08:51:44.774Z</time>
      </trkpt>
      <trkpt lat="41.49138" lon="20.50835">
        <ele>631.571045</ele>
        <time>2022-04-27T08:51:50.761Z</time>
      </trkpt>
      <trkpt lat="41.49132" lon="20.50845">
        <ele>632.078457</ele>
        <time>2022-04-27T08:51:56.774Z</time>
      </trkpt>
      <trkpt lat="41.49125" lon="20.50854">
        <ele>632.579322</ele>
        <time>2022-04-27T08:52:02.780Z</time>
      </trkpt>
      <trkpt lat="41.49117" lon="20.50862">
        <ele>633.128839</ele>
        <time>2022-04-27T08:52:09.800Z</time>
      </trkpt>
      <trkpt lat="41.49109" lon="20.50871">
        <ele>633.67014</ele>
        <time>2022-04-27T08:52:15.820Z</time>
      </trkpt>
      <trkpt lat="41.49103" lon="20.5088">
        <ele>634.167397</ele>
        <time>2022-04-27T08:52:21.753Z</time>
      </trkpt>
      <trkpt lat="41.49096" lon="20.50889">
        <ele>635.075544</ele>
        <time>2022-04-27T08:52:27.771Z</time>
      </trkpt>
      <trkpt lat="41.49089" lon="20.50898">
        <ele>636.196571</ele>
        <time>2022-04-27T08:52:34.765Z</time>
      </trkpt>
      <trkpt lat="41.49082" lon="20.50906">
        <ele>637.180135</ele>
        <time>2022-04-27T08:52:40.780Z</time>
      </trkpt>
      <trkpt lat="41.49075" lon="20.50915">
        <ele>638.166749</ele>
        <time>2022-04-27T08:52:46.790Z</time>
      </trkpt>
      <trkpt lat="41.49068" lon="20.50925">
        <ele>639.29849</ele>
        <time>2022-04-27T08:52:53.850Z</time>
      </trkpt>
      <trkpt lat="41.49062" lon="20.50935">
        <ele>640.390091</ele>
        <time>2022-04-27T08:53:00.800Z</time>
      </trkpt>
      <trkpt lat="41.49054" lon="20.50944">
        <ele>641.529769</ele>
        <time>2022-04-27T08:53:07.785Z</time>
      </trkpt>
      <trkpt lat="41.49046" lon="20.50952">
        <ele>642.592955</ele>
        <time>2022-04-27T08:53:13.782Z</time>
      </trkpt>
      <trkpt lat="41.49038" lon="20.50958">
        <ele>643.587513</ele>
        <time>2022-04-27T08:53:19.758Z</time>
      </trkpt>
      <trkpt lat="41.49029" lon="20.50964">
        <ele>644.642346</ele>
        <time>2022-04-27T08:53:25.774Z</time>
      </trkpt>
      <trkpt lat="41.49021" lon="20.50971">
        <ele>645.695502</ele>
        <time>2022-04-27T08:53:31.797Z</time>
      </trkpt>
      <trkpt lat="41.49013" lon="20.50976">
        <ele>646.674332</ele>
        <time>2022-04-27T08:53:37.762Z</time>
      </trkpt>
      <trkpt lat="41.49003" lon="20.50981">
        <ele>647.805363</ele>
        <time>2022-04-27T08:53:43.809Z</time>
      </trkpt>
      <trkpt lat="41.48994" lon="20.50987">
        <ele>648.872461</ele>
        <time>2022-04-27T08:53:49.809Z</time>
      </trkpt>
      <trkpt lat="41.48986" lon="20.50993">
        <ele>649.852113</ele>
        <time>2022-04-27T08:53:55.822Z</time>
      </trkpt>
      <trkpt lat="41.48978" lon="20.50998">
        <ele>650.85838</ele>
        <time>2022-04-27T08:54:01.781Z</time>
      </trkpt>
      <trkpt lat="41.48969" lon="20.51004">
        <ele>651.890195</ele>
        <time>2022-04-27T08:54:08.793Z</time>
      </trkpt>
      <trkpt lat="41.48961" lon="20.5101">
        <ele>652.898124</ele>
        <time>2022-04-27T08:54:14.769Z</time>
      </trkpt>
      <trkpt lat="41.48953" lon="20.51015">
        <ele>653.850816</ele>
        <time>2022-04-27T08:54:20.781Z</time>
      </trkpt>
      <trkpt lat="41.48944" lon="20.51022">
        <ele>654.662029</ele>
        <time>2022-04-27T08:54:26.769Z</time>
      </trkpt>
      <trkpt lat="41.48935" lon="20.51028">
        <ele>655.424934</ele>
        <time>2022-04-27T08:54:32.787Z</time>
      </trkpt>
      <trkpt lat="41.48926" lon="20.51035">
        <ele>656.254045</ele>
        <time>2022-04-27T08:54:38.772Z</time>
      </trkpt>
      <trkpt lat="41.48918" lon="20.51042">
        <ele>657.057646</ele>
        <time>2022-04-27T08:54:45.770Z</time>
      </trkpt>
      <trkpt lat="41.4891" lon="20.51048">
        <ele>657.817874</ele>
        <time>2022-04-27T08:54:52.774Z</time>
      </trkpt>
      <trkpt lat="41.48902" lon="20.51057">
        <ele>658.576833</ele>
        <time>2022-04-27T08:54:59.777Z</time>
      </trkpt>
      <trkpt lat="41.48894" lon="20.51065">
        <ele>659.407802</ele>
        <time>2022-04-27T08:55:06.760Z</time>
      </trkpt>
      <trkpt lat="41.48886" lon="20.51073">
        <ele>660.205269</ele>
        <time>2022-04-27T08:55:13.757Z</time>
      </trkpt>
      <trkpt lat="41.48878" lon="20.51081">
        <ele>660.997363</ele>
        <time>2022-04-27T08:55:20.789Z</time>
      </trkpt>
      <trkpt lat="41.4887" lon="20.51088">
        <ele>661.777454</ele>
        <time>2022-04-27T08:55:26.767Z</time>
      </trkpt>
      <trkpt lat="41.48862" lon="20.51096">
        <ele>662.58384</ele>
        <time>2022-04-27T08:55:32.800Z</time>
      </trkpt>
      <trkpt lat="41.48853" lon="20.51103">
        <ele>663.418792</ele>
        <time>2022-04-27T08:55:39.752Z</time>
      </trkpt>
      <trkpt lat="41.48844" lon="20.51109">
        <ele>664.231196</ele>
        <time>2022-04-27T08:55:45.814Z</time>
      </trkpt>
      <trkpt lat="41.48836" lon="20.51116">
        <ele>664.988792</ele>
        <time>2022-04-27T08:55:51.776Z</time>
      </trkpt>
      <trkpt lat="41.48828" lon="20.51124">
        <ele>665.789121</ele>
        <time>2022-04-27T08:55:57.774Z</time>
      </trkpt>
      <trkpt lat="41.48819" lon="20.51129">
        <ele>666.518104</ele>
        <time>2022-04-27T08:56:03.771Z</time>
      </trkpt>
      <trkpt lat="41.48811" lon="20.51134">
        <ele>667.24022</ele>
        <time>2022-04-27T08:56:09.784Z</time>
      </trkpt>
      <trkpt lat="41.48803" lon="20.5114">
        <ele>668.015877</ele>
        <time>2022-04-27T08:56:16.789Z</time>
      </trkpt>
      <trkpt lat="41.48793" lon="20.51145">
        <ele>668.632693</ele>
        <time>2022-04-27T08:56:23.809Z</time>
      </trkpt>
      <trkpt lat="41.48783" lon="20.5115">
        <ele>669.227803</ele>
        <time>2022-04-27T08:56:30.803Z</time>
      </trkpt>
      <trkpt lat="41.48774" lon="20.51154">
        <ele>669.779572</ele>
        <time>2022-04-27T08:56:36.778Z</time>
      </trkpt>
      <trkpt lat="41.48764" lon="20.51158">
        <ele>670.35092</ele>
        <time>2022-04-27T08:56:42.764Z</time>
      </trkpt>
      <trkpt lat="41.48755" lon="20.51161">
        <ele>670.886772</ele>
        <time>2022-04-27T08:56:48.768Z</time>
      </trkpt>
      <trkpt lat="41.48745" lon="20.51162">
        <ele>671.470709</ele>
        <time>2022-04-27T08:56:55.780Z</time>
      </trkpt>
      <trkpt lat="41.48735" lon="20.51164">
        <ele>672.06768</ele>
        <time>2022-04-27T08:57:02.812Z</time>
      </trkpt>
      <trkpt lat="41.48725" lon="20.51166">
        <ele>672.638404</ele>
        <time>2022-04-27T08:57:08.779Z</time>
      </trkpt>
      <trkpt lat="41.48716" lon="20.51168">
        <ele>673.180155</ele>
        <time>2022-04-27T08:57:14.786Z</time>
      </trkpt>
      <trkpt lat="41.48706" lon="20.5117">
        <ele>673.763141</ele>
        <time>2022-04-27T08:57:21.801Z</time>
      </trkpt>
      <trkpt lat="41.48695" lon="20.5117">
        <ele>674.366036</ele>
        <time>2022-04-27T08:57:29.761Z</time>
      </trkpt>
      <trkpt lat="41.48686" lon="20.51169">
        <ele>674.91161</ele>
        <time>2022-04-27T08:57:36.764Z</time>
      </trkpt>
      <trkpt lat="41.48677" lon="20.51169">
        <ele>675.434137</ele>
        <time>2022-04-27T08:57:43.769Z</time>
      </trkpt>
      <trkpt lat="41.48666" lon="20.5117">
        <ele>676.037952</ele>
        <time>2022-04-27T08:57:51.785Z</time>
      </trkpt>
      <trkpt lat="41.48657" lon="20.5117">
        <ele>676.560478</ele>
        <time>2022-04-27T08:57:57.783Z</time>
      </trkpt>
      <trkpt lat="41.48648" lon="20.51169">
        <ele>677.089306</ele>
        <time>2022-04-27T08:58:04.783Z</time>
      </trkpt>
      <trkpt lat="41.48637" lon="20.51169">
        <ele>677.693381</ele>
        <time>2022-04-27T08:58:11.781Z</time>
      </trkpt>
      <trkpt lat="41.48628" lon="20.51168">
        <ele>678.262174</ele>
        <time>2022-04-27T08:58:18.759Z</time>
      </trkpt>
      <trkpt lat="41.48617" lon="20.51167">
        <ele>678.870366</ele>
        <time>2022-04-27T08:58:26.785Z</time>
      </trkpt>
      <trkpt lat="41.48608" lon="20.51167">
        <ele>679.391297</ele>
        <time>2022-04-27T08:58:33.770Z</time>
      </trkpt>
      <trkpt lat="41.48598" lon="20.51167">
        <ele>679.912435</ele>
        <time>2022-04-27T08:58:39.773Z</time>
      </trkpt>
      <trkpt lat="41.48589" lon="20.51165">
        <ele>680.436017</ele>
        <time>2022-04-27T08:58:45.765Z</time>
      </trkpt>
      <trkpt lat="41.4858" lon="20.51164">
        <ele>680.986821</ele>
        <time>2022-04-27T08:58:52.775Z</time>
      </trkpt>
      <trkpt lat="41.48571" lon="20.51162">
        <ele>681.495248</ele>
        <time>2022-04-27T08:58:59.766Z</time>
      </trkpt>
      <trkpt lat="41.4856" lon="20.51161">
        <ele>682.096584</ele>
        <time>2022-04-27T08:59:06.792Z</time>
      </trkpt>
      <trkpt lat="41.4855" lon="20.51159">
        <ele>682.659925</ele>
        <time>2022-04-27T08:59:12.772Z</time>
      </trkpt>
      <trkpt lat="41.48541" lon="20.51158">
        <ele>683.187063</ele>
        <time>2022-04-27T08:59:18.805Z</time>
      </trkpt>
      <trkpt lat="41.48531" lon="20.51156">
        <ele>683.742504</ele>
        <time>2022-04-27T08:59:24.781Z</time>
      </trkpt>
      <trkpt lat="41.48521" lon="20.51154">
        <ele>684.322219</ele>
        <time>2022-04-27T08:59:31.791Z</time>
      </trkpt>
      <trkpt lat="41.48511" lon="20.51153">
        <ele>684.890293</ele>
        <time>2022-04-27T08:59:38.775Z</time>
      </trkpt>
      <trkpt lat="41.48502" lon="20.51152">
        <ele>685.401963</ele>
        <time>2022-04-27T08:59:44.771Z</time>
      </trkpt>
      <trkpt lat="41.48492" lon="20.51149">
        <ele>685.978653</ele>
        <time>2022-04-27T08:59:52.764Z</time>
      </trkpt>
      <trkpt lat="41.48483" lon="20.5115">
        <ele>686.517318</ele>
        <time>2022-04-27T08:59:58.770Z</time>
      </trkpt>
      <trkpt lat="41.48474" lon="20.51148">
        <ele>687.032545</ele>
        <time>2022-04-27T09:00:05.774Z</time>
      </trkpt>
      <trkpt lat="41.48465" lon="20.51147">
        <ele>687.538986</ele>
        <time>2022-04-27T09:00:11.773Z</time>
      </trkpt>
      <trkpt lat="41.48455" lon="20.51146">
        <ele>688.123988</ele>
        <time>2022-04-27T09:00:18.769Z</time>
      </trkpt>
      <trkpt lat="41.48445" lon="20.51144">
        <ele>688.701762</ele>
        <time>2022-04-27T09:00:25.768Z</time>
      </trkpt>
      <trkpt lat="41.48435" lon="20.51141">
        <ele>689.510035</ele>
        <time>2022-04-27T09:00:32.755Z</time>
      </trkpt>
      <trkpt lat="41.48426" lon="20.51138">
        <ele>690.23912</ele>
        <time>2022-04-27T09:00:38.780Z</time>
      </trkpt>
      <trkpt lat="41.48417" lon="20.51134">
        <ele>691.048668</ele>
        <time>2022-04-27T09:00:45.808Z</time>
      </trkpt>
      <trkpt lat="41.48407" lon="20.51131">
        <ele>691.843677</ele>
        <time>2022-04-27T09:00:52.765Z</time>
      </trkpt>
      <trkpt lat="41.48398" lon="20.51126">
        <ele>692.654275</ele>
        <time>2022-04-27T09:00:59.779Z</time>
      </trkpt>
      <trkpt lat="41.48389" lon="20.51121">
        <ele>693.442598</ele>
        <time>2022-04-27T09:01:07.781Z</time>
      </trkpt>
      <trkpt lat="41.4838" lon="20.51117">
        <ele>694.196823</ele>
        <time>2022-04-27T09:01:13.804Z</time>
      </trkpt>
      <trkpt lat="41.4837" lon="20.51111">
        <ele>695.041067</ele>
        <time>2022-04-27T09:01:19.813Z</time>
      </trkpt>
      <trkpt lat="41.48361" lon="20.51106">
        <ele>695.868771</ele>
        <time>2022-04-27T09:01:26.785Z</time>
      </trkpt>
      <trkpt lat="41.48351" lon="20.51106">
        <ele>696.613872</ele>
        <time>2022-04-27T09:01:32.793Z</time>
      </trkpt>
      <trkpt lat="41.48341" lon="20.51105">
        <ele>697.401222</ele>
        <time>2022-04-27T09:01:39.786Z</time>
      </trkpt>
      <trkpt lat="41.48331" lon="20.51104">
        <ele>698.22688</ele>
        <time>2022-04-27T09:01:46.776Z</time>
      </trkpt>
      <trkpt lat="41.48322" lon="20.51106">
        <ele>699.001168</ele>
        <time>2022-04-27T09:01:53.774Z</time>
      </trkpt>
      <trkpt lat="41.48312" lon="20.51108">
        <ele>699.792828</ele>
        <time>2022-04-27T09:02:00.770Z</time>
      </trkpt>
      <trkpt lat="41.48302" lon="20.51111">
        <ele>700.59963</ele>
        <time>2022-04-27T09:02:06.781Z</time>
      </trkpt>
      <trkpt lat="41.48293" lon="20.51115">
        <ele>701.336753</ele>
        <time>2022-04-27T09:02:12.779Z</time>
      </trkpt>
      <trkpt lat="41.48285" lon="20.5112">
        <ele>702.077371</ele>
        <time>2022-04-27T09:02:18.776Z</time>
      </trkpt>
      <trkpt lat="41.48275" lon="20.51125">
        <ele>702.90001</ele>
        <time>2022-04-27T09:02:25.775Z</time>
      </trkpt>
      <trkpt lat="41.48265" lon="20.51129">
        <ele>703.56071</ele>
        <time>2022-04-27T09:02:31.770Z</time>
      </trkpt>
      <trkpt lat="41.48256" lon="20.5113">
        <ele>704.12748</ele>
        <time>2022-04-27T09:02:37.777Z</time>
      </trkpt>
      <trkpt lat="41.48246" lon="20.51133">
        <ele>704.756175</ele>
        <time>2022-04-27T09:02:43.771Z</time>
      </trkpt>
      <trkpt lat="41.48237" lon="20.51134">
        <ele>705.350854</ele>
        <time>2022-04-27T09:02:50.786Z</time>
      </trkpt>
      <trkpt lat="41.48227" lon="20.51133">
        <ele>705.963966</ele>
        <time>2022-04-27T09:02:57.780Z</time>
      </trkpt>
      <trkpt lat="41.48218" lon="20.51132">
        <ele>706.531249</ele>
        <time>2022-04-27T09:03:03.782Z</time>
      </trkpt>
      <trkpt lat="41.48209" lon="20.51129">
        <ele>707.107566</ele>
        <time>2022-04-27T09:03:09.820Z</time>
      </trkpt>
      <trkpt lat="41.48199" lon="20.51127">
        <ele>707.727261</ele>
        <time>2022-04-27T09:03:15.765Z</time>
      </trkpt>
      <trkpt lat="41.48189" lon="20.51124">
        <ele>708.348898</ele>
        <time>2022-04-27T09:03:21.786Z</time>
      </trkpt>
      <trkpt lat="41.4818" lon="20.51121">
        <ele>708.911199</ele>
        <time>2022-04-27T09:03:27.778Z</time>
      </trkpt>
      <trkpt lat="41.4817" lon="20.51117">
        <ele>709.548615</ele>
        <time>2022-04-27T09:03:34.789Z</time>
      </trkpt>
      <trkpt lat="41.4816" lon="20.51117">
        <ele>710.168337</ele>
        <time>2022-04-27T09:03:40.780Z</time>
      </trkpt>
      <trkpt lat="41.4815" lon="20.51117">
        <ele>710.812397</ele>
        <time>2022-04-27T09:03:46.775Z</time>
      </trkpt>
      <trkpt lat="41.48141" lon="20.51115">
        <ele>711.408733</ele>
        <time>2022-04-27T09:03:51.769Z</time>
      </trkpt>
      <trkpt lat="41.48132" lon="20.51114">
        <ele>711.967326</ele>
        <time>2022-04-27T09:03:56.780Z</time>
      </trkpt>
      <trkpt lat="41.48122" lon="20.51113">
        <ele>712.58086</ele>
        <time>2022-04-27T09:04:02.770Z</time>
      </trkpt>
      <trkpt lat="41.48112" lon="20.51115">
        <ele>713.192285</ele>
        <time>2022-04-27T09:04:08.777Z</time>
      </trkpt>
      <trkpt lat="41.48103" lon="20.51117">
        <ele>713.755523</ele>
        <time>2022-04-27T09:04:13.773Z</time>
      </trkpt>
      <trkpt lat="41.48094" lon="20.51121">
        <ele>714.302292</ele>
        <time>2022-04-27T09:04:18.784Z</time>
      </trkpt>
      <trkpt lat="41.48085" lon="20.51124">
        <ele>714.775855</ele>
        <time>2022-04-27T09:04:23.771Z</time>
      </trkpt>
      <trkpt lat="41.48076" lon="20.51127">
        <ele>715.27858</ele>
        <time>2022-04-27T09:04:28.765Z</time>
      </trkpt>
      <trkpt lat="41.48068" lon="20.51133">
        <ele>715.766779</ele>
        <time>2022-04-27T09:04:33.824Z</time>
      </trkpt>
      <trkpt lat="41.4806" lon="20.51141">
        <ele>716.302784</ele>
        <time>2022-04-27T09:04:39.752Z</time>
      </trkpt>
      <trkpt lat="41.48052" lon="20.51149">
        <ele>716.817524</ele>
        <time>2022-04-27T09:04:45.769Z</time>
      </trkpt>
      <trkpt lat="41.48046" lon="20.51158">
        <ele>717.301974</ele>
        <time>2022-04-27T09:04:51.774Z</time>
      </trkpt>
      <trkpt lat="41.48038" lon="20.51167">
        <ele>717.851066</ele>
        <time>2022-04-27T09:04:56.786Z</time>
      </trkpt>
      <trkpt lat="41.4803" lon="20.51174">
        <ele>718.340168</ele>
        <time>2022-04-27T09:05:01.813Z</time>
      </trkpt>
      <trkpt lat="41.48024" lon="20.51183">
        <ele>718.837637</ele>
        <time>2022-04-27T09:05:06.776Z</time>
      </trkpt>
      <trkpt lat="41.48016" lon="20.51192">
        <ele>719.357726</ele>
        <time>2022-04-27T09:05:11.777Z</time>
      </trkpt>
      <trkpt lat="41.48008" lon="20.51201">
        <ele>719.914148</ele>
        <time>2022-04-27T09:05:16.772Z</time>
      </trkpt>
      <trkpt lat="41.48001" lon="20.51208">
        <ele>720.394649</ele>
        <time>2022-04-27T09:05:20.776Z</time>
      </trkpt>
      <trkpt lat="41.47993" lon="20.51215">
        <ele>720.882162</ele>
        <time>2022-04-27T09:05:24.772Z</time>
      </trkpt>
      <trkpt lat="41.47984" lon="20.51223">
        <ele>721.461056</ele>
        <time>2022-04-27T09:05:29.776Z</time>
      </trkpt>
      <trkpt lat="41.47976" lon="20.51229">
        <ele>721.953195</ele>
        <time>2022-04-27T09:05:33.795Z</time>
      </trkpt>
      <trkpt lat="41.47967" lon="20.51234">
        <ele>722.449365</ele>
        <time>2022-04-27T09:05:37.774Z</time>
      </trkpt>
      <trkpt lat="41.47957" lon="20.51239">
        <ele>723.013342</ele>
        <time>2022-04-27T09:05:41.822Z</time>
      </trkpt>
      <trkpt lat="41.47947" lon="20.51243">
        <ele>723.55483</ele>
        <time>2022-04-27T09:05:45.804Z</time>
      </trkpt>
      <trkpt lat="41.47936" lon="20.51245">
        <ele>723.389475</ele>
        <time>2022-04-27T09:05:49.810Z</time>
      </trkpt>
      <trkpt lat="41.47925" lon="20.51248">
        <ele>723.139543</ele>
        <time>2022-04-27T09:05:54.777Z</time>
      </trkpt>
      <trkpt lat="41.47915" lon="20.51247">
        <ele>722.92075</ele>
        <time>2022-04-27T09:05:58.813Z</time>
      </trkpt>
      <trkpt lat="41.47904" lon="20.51247">
        <ele>722.680013</ele>
        <time>2022-04-27T09:06:02.795Z</time>
      </trkpt>
      <trkpt lat="41.47894" lon="20.51246">
        <ele>722.449811</ele>
        <time>2022-04-27T09:06:06.773Z</time>
      </trkpt>
      <trkpt lat="41.47884" lon="20.51243">
        <ele>722.217074</ele>
        <time>2022-04-27T09:06:10.768Z</time>
      </trkpt>
      <trkpt lat="41.47873" lon="20.51241">
        <ele>721.9778</ele>
        <time>2022-04-27T09:06:14.776Z</time>
      </trkpt>
      <trkpt lat="41.47863" lon="20.51238">
        <ele>721.763699</ele>
        <time>2022-04-27T09:06:18.783Z</time>
      </trkpt>
      <trkpt lat="41.47854" lon="20.51235">
        <ele>721.538419</ele>
        <time>2022-04-27T09:06:22.791Z</time>
      </trkpt>
      <trkpt lat="41.47844" lon="20.51232">
        <ele>721.312314</ele>
        <time>2022-04-27T09:06:26.778Z</time>
      </trkpt>
      <trkpt lat="41.47834" lon="20.51227">
        <ele>721.085574</ele>
        <time>2022-04-27T09:06:30.800Z</time>
      </trkpt>
      <trkpt lat="41.47823" lon="20.51224">
        <ele>720.841685</ele>
        <time>2022-04-27T09:06:34.781Z</time>
      </trkpt>
      <trkpt lat="41.47813" lon="20.5122">
        <ele>720.609557</ele>
        <time>2022-04-27T09:06:38.760Z</time>
      </trkpt>
      <trkpt lat="41.47802" lon="20.51216">
        <ele>720.349322</ele>
        <time>2022-04-27T09:06:42.785Z</time>
      </trkpt>
      <trkpt lat="41.47791" lon="20.51212">
        <ele>720.098849</ele>
        <time>2022-04-27T09:06:46.773Z</time>
      </trkpt>
      <trkpt lat="41.47781" lon="20.51208">
        <ele>719.871581</ele>
        <time>2022-04-27T09:06:50.780Z</time>
      </trkpt>
      <trkpt lat="41.47771" lon="20.51203">
        <ele>719.645399</ele>
        <time>2022-04-27T09:06:54.781Z</time>
      </trkpt>
      <trkpt lat="41.47761" lon="20.51199">
        <ele>719.622124</ele>
        <time>2022-04-27T09:06:58.786Z</time>
      </trkpt>
      <trkpt lat="41.47751" lon="20.51195">
        <ele>719.604458</ele>
        <time>2022-04-27T09:07:02.769Z</time>
      </trkpt>
      <trkpt lat="41.47742" lon="20.5119">
        <ele>719.588525</ele>
        <time>2022-04-27T09:07:06.798Z</time>
      </trkpt>
      <trkpt lat="41.47732" lon="20.51186">
        <ele>719.572476</ele>
        <time>2022-04-27T09:07:10.775Z</time>
      </trkpt>
      <trkpt lat="41.47722" lon="20.51183">
        <ele>719.555697</ele>
        <time>2022-04-27T09:07:14.762Z</time>
      </trkpt>
      <trkpt lat="41.47712" lon="20.51179">
        <ele>719.537969</ele>
        <time>2022-04-27T09:07:18.778Z</time>
      </trkpt>
      <trkpt lat="41.47702" lon="20.51175">
        <ele>719.520369</ele>
        <time>2022-04-27T09:07:22.774Z</time>
      </trkpt>
      <trkpt lat="41.47691" lon="20.51173">
        <ele>719.50285</ele>
        <time>2022-04-27T09:07:26.780Z</time>
      </trkpt>
      <trkpt lat="41.47679" lon="20.51173">
        <ele>719.482701</ele>
        <time>2022-04-27T09:07:30.815Z</time>
      </trkpt>
      <trkpt lat="41.47667" lon="20.51172">
        <ele>719.463546</ele>
        <time>2022-04-27T09:07:34.775Z</time>
      </trkpt>
      <trkpt lat="41.47657" lon="20.51173">
        <ele>719.446521</ele>
        <time>2022-04-27T09:07:37.777Z</time>
      </trkpt>
      <trkpt lat="41.47646" lon="20.51174">
        <ele>719.427784</ele>
        <time>2022-04-27T09:07:41.805Z</time>
      </trkpt>
      <trkpt lat="41.47634" lon="20.51177">
        <ele>719.408333</ele>
        <time>2022-04-27T09:07:45.773Z</time>
      </trkpt>
      <trkpt lat="41.47624" lon="20.51179">
        <ele>719.390958</ele>
        <time>2022-04-27T09:07:49.773Z</time>
      </trkpt>
      <trkpt lat="41.47615" lon="20.51182">
        <ele>719.375652</ele>
        <time>2022-04-27T09:07:53.771Z</time>
      </trkpt>
      <trkpt lat="41.47606" lon="20.51184">
        <ele>719.360251</ele>
        <time>2022-04-27T09:07:57.767Z</time>
      </trkpt>
      <trkpt lat="41.47596" lon="20.51185">
        <ele>719.344316</ele>
        <time>2022-04-27T09:08:01.782Z</time>
      </trkpt>
      <trkpt lat="41.47585" lon="20.51186">
        <ele>719.187094</ele>
        <time>2022-04-27T09:08:05.753Z</time>
      </trkpt>
      <trkpt lat="41.47574" lon="20.51187">
        <ele>719.013443</ele>
        <time>2022-04-27T09:08:10.775Z</time>
      </trkpt>
      <trkpt lat="41.47563" lon="20.51187">
        <ele>718.836785</ele>
        <time>2022-04-27T09:08:14.765Z</time>
      </trkpt>
      <trkpt lat="41.47553" lon="20.51188">
        <ele>718.68302</ele>
        <time>2022-04-27T09:08:18.769Z</time>
      </trkpt>
      <trkpt lat="41.47543" lon="20.51188">
        <ele>718.534145</ele>
        <time>2022-04-27T09:08:21.784Z</time>
      </trkpt>
      <trkpt lat="41.47534" lon="20.51188">
        <ele>718.386769</ele>
        <time>2022-04-27T09:08:24.785Z</time>
      </trkpt>
      <trkpt lat="41.47524" lon="20.51186">
        <ele>718.240442</ele>
        <time>2022-04-27T09:08:27.773Z</time>
      </trkpt>
      <trkpt lat="41.47513" lon="20.51185">
        <ele>718.071138</ele>
        <time>2022-04-27T09:08:31.792Z</time>
      </trkpt>
      <trkpt lat="41.47504" lon="20.51184">
        <ele>717.929053</ele>
        <time>2022-04-27T09:08:35.760Z</time>
      </trkpt>
      <trkpt lat="41.47494" lon="20.51182">
        <ele>717.776197</ele>
        <time>2022-04-27T09:08:39.781Z</time>
      </trkpt>
      <trkpt lat="41.47484" lon="20.51182">
        <ele>717.608515</ele>
        <time>2022-04-27T09:08:43.777Z</time>
      </trkpt>
      <trkpt lat="41.47472" lon="20.51181">
        <ele>717.436506</ele>
        <time>2022-04-27T09:08:47.766Z</time>
      </trkpt>
      <trkpt lat="41.47461" lon="20.51182">
        <ele>717.258242</ele>
        <time>2022-04-27T09:08:51.783Z</time>
      </trkpt>
      <trkpt lat="41.47449" lon="20.51183">
        <ele>717.07302</ele>
        <time>2022-04-27T09:08:55.782Z</time>
      </trkpt>
      <trkpt lat="41.47438" lon="20.51186">
        <ele>716.899042</ele>
        <time>2022-04-27T09:08:59.802Z</time>
      </trkpt>
      <trkpt lat="41.47427" lon="20.5119">
        <ele>716.725584</ele>
        <time>2022-04-27T09:09:03.793Z</time>
      </trkpt>
      <trkpt lat="41.47418" lon="20.51192">
        <ele>716.581129</ele>
        <time>2022-04-27T09:09:06.786Z</time>
      </trkpt>
      <trkpt lat="41.47409" lon="20.51196">
        <ele>716.613212</ele>
        <time>2022-04-27T09:09:10.762Z</time>
      </trkpt>
      <trkpt lat="41.474" lon="20.51199">
        <ele>716.684809</ele>
        <time>2022-04-27T09:09:14.792Z</time>
      </trkpt>
      <trkpt lat="41.47389" lon="20.51203">
        <ele>716.76848</ele>
        <time>2022-04-27T09:09:18.782Z</time>
      </trkpt>
      <trkpt lat="41.47378" lon="20.51207">
        <ele>716.847606</ele>
        <time>2022-04-27T09:09:22.765Z</time>
      </trkpt>
      <trkpt lat="41.47367" lon="20.51208">
        <ele>716.930474</ele>
        <time>2022-04-27T09:09:26.779Z</time>
      </trkpt>
      <trkpt lat="41.47355" lon="20.51208">
        <ele>717.015839</ele>
        <time>2022-04-27T09:09:30.773Z</time>
      </trkpt>
      <trkpt lat="41.47345" lon="20.51206">
        <ele>717.094619</ele>
        <time>2022-04-27T09:09:34.790Z</time>
      </trkpt>
      <trkpt lat="41.47333" lon="20.51202">
        <ele>717.180869</ele>
        <time>2022-04-27T09:09:38.813Z</time>
      </trkpt>
      <trkpt lat="41.47323" lon="20.51196">
        <ele>717.263946</ele>
        <time>2022-04-27T09:09:42.802Z</time>
      </trkpt>
      <trkpt lat="41.47312" lon="20.51191">
        <ele>717.345362</ele>
        <time>2022-04-27T09:09:46.773Z</time>
      </trkpt>
      <trkpt lat="41.47302" lon="20.51187">
        <ele>717.423641</ele>
        <time>2022-04-27T09:09:50.785Z</time>
      </trkpt>
      <trkpt lat="41.47291" lon="20.51182">
        <ele>717.509591</ele>
        <time>2022-04-27T09:09:54.782Z</time>
      </trkpt>
      <trkpt lat="41.4728" lon="20.51177">
        <ele>717.594875</ele>
        <time>2022-04-27T09:09:58.776Z</time>
      </trkpt>
      <trkpt lat="41.47269" lon="20.51171">
        <ele>717.680159</ele>
        <time>2022-04-27T09:10:02.764Z</time>
      </trkpt>
      <trkpt lat="41.47258" lon="20.51167">
        <ele>717.766104</ele>
        <time>2022-04-27T09:10:06.784Z</time>
      </trkpt>
      <trkpt lat="41.47249" lon="20.51164">
        <ele>717.836314</ele>
        <time>2022-04-27T09:10:09.780Z</time>
      </trkpt>
      <trkpt lat="41.4724" lon="20.51162">
        <ele>718.050078</ele>
        <time>2022-04-27T09:10:12.783Z</time>
      </trkpt>
      <trkpt lat="41.4723" lon="20.51161">
        <ele>718.492713</ele>
        <time>2022-04-27T09:10:15.786Z</time>
      </trkpt>
      <trkpt lat="41.4722" lon="20.5116">
        <ele>718.92886</ele>
        <time>2022-04-27T09:10:18.781Z</time>
      </trkpt>
      <trkpt lat="41.47211" lon="20.51159">
        <ele>719.378293</ele>
        <time>2022-04-27T09:10:21.769Z</time>
      </trkpt>
      <trkpt lat="41.47201" lon="20.51159">
        <ele>719.799622</ele>
        <time>2022-04-27T09:10:24.784Z</time>
      </trkpt>
      <trkpt lat="41.47192" lon="20.51161">
        <ele>720.228614</ele>
        <time>2022-04-27T09:10:27.790Z</time>
      </trkpt>
      <trkpt lat="41.47182" lon="20.51163">
        <ele>720.682622</ele>
        <time>2022-04-27T09:10:30.772Z</time>
      </trkpt>
      <trkpt lat="41.47173" lon="20.51164">
        <ele>721.093435</ele>
        <time>2022-04-27T09:10:33.767Z</time>
      </trkpt>
      <trkpt lat="41.47162" lon="20.51166">
        <ele>721.607334</ele>
        <time>2022-04-27T09:10:37.768Z</time>
      </trkpt>
      <trkpt lat="41.47151" lon="20.5117">
        <ele>722.123249</ele>
        <time>2022-04-27T09:10:41.752Z</time>
      </trkpt>
      <trkpt lat="41.47141" lon="20.51175">
        <ele>722.635988</ele>
        <time>2022-04-27T09:10:45.782Z</time>
      </trkpt>
      <trkpt lat="41.4713" lon="20.51179">
        <ele>723.129202</ele>
        <time>2022-04-27T09:10:49.759Z</time>
      </trkpt>
      <trkpt lat="41.4712" lon="20.51181">
        <ele>723.595396</ele>
        <time>2022-04-27T09:10:53.756Z</time>
      </trkpt>
      <trkpt lat="41.47109" lon="20.51185">
        <ele>724.138459</ele>
        <time>2022-04-27T09:10:57.771Z</time>
      </trkpt>
      <trkpt lat="41.47098" lon="20.51191">
        <ele>724.665422</ele>
        <time>2022-04-27T09:11:01.791Z</time>
      </trkpt>
      <trkpt lat="41.4709" lon="20.51196">
        <ele>725.092891</ele>
        <time>2022-04-27T09:11:04.764Z</time>
      </trkpt>
      <trkpt lat="41.47081" lon="20.51203">
        <ele>725.544551</ele>
        <time>2022-04-27T09:11:07.791Z</time>
      </trkpt>
      <trkpt lat="41.47072" lon="20.51207">
        <ele>725.981624</ele>
        <time>2022-04-27T09:11:10.780Z</time>
      </trkpt>
      <trkpt lat="41.47064" lon="20.51211">
        <ele>726.310654</ele>
        <time>2022-04-27T09:11:13.781Z</time>
      </trkpt>
      <trkpt lat="41.47055" lon="20.51216">
        <ele>726.584654</ele>
        <time>2022-04-27T09:11:16.806Z</time>
      </trkpt>
      <trkpt lat="41.47046" lon="20.51221">
        <ele>726.87823</ele>
        <time>2022-04-27T09:11:19.771Z</time>
      </trkpt>
      <trkpt lat="41.47037" lon="20.51225">
        <ele>727.164937</ele>
        <time>2022-04-27T09:11:22.758Z</time>
      </trkpt>
      <trkpt lat="41.47027" lon="20.51229">
        <ele>727.501519</ele>
        <time>2022-04-27T09:11:25.766Z</time>
      </trkpt>
      <trkpt lat="41.47017" lon="20.51234">
        <ele>727.809211</ele>
        <time>2022-04-27T09:11:28.768Z</time>
      </trkpt>
      <trkpt lat="41.47008" lon="20.51239">
        <ele>728.097171</ele>
        <time>2022-04-27T09:11:31.788Z</time>
      </trkpt>
      <trkpt lat="41.46997" lon="20.51243">
        <ele>728.443723</ele>
        <time>2022-04-27T09:11:34.780Z</time>
      </trkpt>
      <trkpt lat="41.46986" lon="20.51245">
        <ele>728.797813</ele>
        <time>2022-04-27T09:11:37.767Z</time>
      </trkpt>
      <trkpt lat="41.46974" lon="20.51247">
        <ele>729.141566</ele>
        <time>2022-04-27T09:11:40.766Z</time>
      </trkpt>
      <trkpt lat="41.46965" lon="20.51246">
        <ele>729.442479</ele>
        <time>2022-04-27T09:11:43.779Z</time>
      </trkpt>
      <trkpt lat="41.46955" lon="20.51245">
        <ele>729.722479</ele>
        <time>2022-04-27T09:11:46.773Z</time>
      </trkpt>
      <trkpt lat="41.46943" lon="20.51244">
        <ele>730.083649</ele>
        <time>2022-04-27T09:11:50.787Z</time>
      </trkpt>
      <trkpt lat="41.46932" lon="20.51245">
        <ele>730.445503</ele>
        <time>2022-04-27T09:11:54.787Z</time>
      </trkpt>
      <trkpt lat="41.4692" lon="20.51249">
        <ele>730.803298</ele>
        <time>2022-04-27T09:11:58.776Z</time>
      </trkpt>
      <trkpt lat="41.46911" lon="20.51252">
        <ele>731.082096</ele>
        <time>2022-04-27T09:12:01.767Z</time>
      </trkpt>
      <trkpt lat="41.46902" lon="20.51256">
        <ele>731.363791</ele>
        <time>2022-04-27T09:12:04.770Z</time>
      </trkpt>
      <trkpt lat="41.46894" lon="20.51265">
        <ele>731.729391</ele>
        <time>2022-04-27T09:12:08.760Z</time>
      </trkpt>
      <trkpt lat="41.46886" lon="20.51276">
        <ele>732.129744</ele>
        <time>2022-04-27T09:12:12.809Z</time>
      </trkpt>
      <trkpt lat="41.46879" lon="20.51288">
        <ele>732.543925</ele>
        <time>2022-04-27T09:12:17.779Z</time>
      </trkpt>
      <trkpt lat="41.46873" lon="20.51297">
        <ele>732.885349</ele>
        <time>2022-04-27T09:12:21.770Z</time>
      </trkpt>
      <trkpt lat="41.46865" lon="20.51307">
        <ele>733.27118</ele>
        <time>2022-04-27T09:12:25.790Z</time>
      </trkpt>
      <trkpt lat="41.46857" lon="20.51315">
        <ele>733.648203</ele>
        <time>2022-04-27T09:12:29.790Z</time>
      </trkpt>
      <trkpt lat="41.46849" lon="20.51321">
        <ele>733.982491</ele>
        <time>2022-04-27T09:12:33.811Z</time>
      </trkpt>
      <trkpt lat="41.46838" lon="20.51326">
        <ele>734.393754</ele>
        <time>2022-04-27T09:12:38.785Z</time>
      </trkpt>
      <trkpt lat="41.46829" lon="20.51329">
        <ele>734.758021</ele>
        <time>2022-04-27T09:12:42.772Z</time>
      </trkpt>
      <trkpt lat="41.46818" lon="20.5133">
        <ele>735.153682</ele>
        <time>2022-04-27T09:12:47.780Z</time>
      </trkpt>
      <trkpt lat="41.46808" lon="20.51329">
        <ele>735.512974</ele>
        <time>2022-04-27T09:12:52.788Z</time>
      </trkpt>
      <trkpt lat="41.46799" lon="20.51327">
        <ele>735.860493</ele>
        <time>2022-04-27T09:12:57.777Z</time>
      </trkpt>
      <trkpt lat="41.46789" lon="20.51324">
        <ele>736.225827</ele>
        <time>2022-04-27T09:13:02.776Z</time>
      </trkpt>
      <trkpt lat="41.46779" lon="20.51321">
        <ele>736.600637</ele>
        <time>2022-04-27T09:13:07.768Z</time>
      </trkpt>
      <trkpt lat="41.46769" lon="20.51319">
        <ele>736.954567</ele>
        <time>2022-04-27T09:13:12.808Z</time>
      </trkpt>
      <trkpt lat="41.4676" lon="20.51319">
        <ele>737.294145</ele>
        <time>2022-04-27T09:13:17.781Z</time>
      </trkpt>
      <trkpt lat="41.4675" lon="20.51322">
        <ele>737.674436</ele>
        <time>2022-04-27T09:13:23.762Z</time>
      </trkpt>
      <trkpt lat="41.46741" lon="20.51327">
        <ele>738.015088</ele>
        <time>2022-04-27T09:13:29.792Z</time>
      </trkpt>
      <trkpt lat="41.46732" lon="20.51333">
        <ele>738.149773</ele>
        <time>2022-04-27T09:13:36.818Z</time>
      </trkpt>
      <trkpt lat="41.46726" lon="20.51343">
        <ele>738.179244</ele>
        <time>2022-04-27T09:13:43.773Z</time>
      </trkpt>
      <trkpt lat="41.46721" lon="20.51356">
        <ele>738.210474</ele>
        <time>2022-04-27T09:13:49.768Z</time>
      </trkpt>
      <trkpt lat="41.46717" lon="20.51368">
        <ele>738.240187</ele>
        <time>2022-04-27T09:13:53.781Z</time>
      </trkpt>
      <trkpt lat="41.46716" lon="20.51381">
        <ele>738.267068</ele>
        <time>2022-04-27T09:13:58.812Z</time>
      </trkpt>
      <trkpt lat="41.46715" lon="20.51394">
        <ele>738.296018</ele>
        <time>2022-04-27T09:14:04.781Z</time>
      </trkpt>
      <trkpt lat="41.46715" lon="20.51407">
        <ele>738.324317</ele>
        <time>2022-04-27T09:14:10.769Z</time>
      </trkpt>
      <trkpt lat="41.46712" lon="20.5142">
        <ele>738.353627</ele>
        <time>2022-04-27T09:14:15.757Z</time>
      </trkpt>
      <trkpt lat="41.46709" lon="20.51434">
        <ele>738.385474</ele>
        <time>2022-04-27T09:14:20.766Z</time>
      </trkpt>
      <trkpt lat="41.46704" lon="20.51446">
        <ele>738.414181</ele>
        <time>2022-04-27T09:14:25.803Z</time>
      </trkpt>
      <trkpt lat="41.46701" lon="20.51457">
        <ele>738.440499</ele>
        <time>2022-04-27T09:14:30.763Z</time>
      </trkpt>
      <trkpt lat="41.46696" lon="20.51467">
        <ele>738.467375</ele>
        <time>2022-04-27T09:14:35.774Z</time>
      </trkpt>
      <trkpt lat="41.46689" lon="20.51478">
        <ele>738.496771</ele>
        <time>2022-04-27T09:14:41.758Z</time>
      </trkpt>
      <trkpt lat="41.46684" lon="20.51489">
        <ele>738.525805</ele>
        <time>2022-04-27T09:14:47.768Z</time>
      </trkpt>
      <trkpt lat="41.46679" lon="20.515">
        <ele>738.554015</ele>
        <time>2022-04-27T09:14:53.803Z</time>
      </trkpt>
      <trkpt lat="41.46672" lon="20.51509">
        <ele>738.58129</ele>
        <time>2022-04-27T09:14:58.771Z</time>
      </trkpt>
      <trkpt lat="41.46669" lon="20.51523">
        <ele>738.611918</ele>
        <time>2022-04-27T09:15:05.804Z</time>
      </trkpt>
      <trkpt lat="41.46667" lon="20.51536">
        <ele>738.641925</ele>
        <time>2022-04-27T09:15:11.781Z</time>
      </trkpt>
      <trkpt lat="41.46665" lon="20.51548">
        <ele>738.732755</ele>
        <time>2022-04-27T09:15:17.771Z</time>
      </trkpt>
      <trkpt lat="41.46661" lon="20.5156">
        <ele>738.867133</ele>
        <time>2022-04-27T09:15:23.780Z</time>
      </trkpt>
      <trkpt lat="41.46658" lon="20.51574">
        <ele>739.009763</ele>
        <time>2022-04-27T09:15:29.766Z</time>
      </trkpt>
      <trkpt lat="41.46655" lon="20.51587">
        <ele>739.14862</ele>
        <time>2022-04-27T09:15:35.794Z</time>
      </trkpt>
      <trkpt lat="41.4665" lon="20.51597">
        <ele>739.272404</ele>
        <time>2022-04-27T09:15:40.780Z</time>
      </trkpt>
      <trkpt lat="41.46644" lon="20.51607">
        <ele>739.407319</ele>
        <time>2022-04-27T09:15:45.774Z</time>
      </trkpt>
      <trkpt lat="41.46636" lon="20.51616">
        <ele>739.548737</ele>
        <time>2022-04-27T09:15:50.776Z</time>
      </trkpt>
      <trkpt lat="41.46628" lon="20.51623">
        <ele>739.678642</ele>
        <time>2022-04-27T09:15:55.825Z</time>
      </trkpt>
      <trkpt lat="41.46619" lon="20.51627">
        <ele>739.802083</ele>
        <time>2022-04-27T09:15:59.768Z</time>
      </trkpt>
      <trkpt lat="41.46609" lon="20.51627">
        <ele>739.948619</ele>
        <time>2022-04-27T09:16:03.800Z</time>
      </trkpt>
      <trkpt lat="41.46599" lon="20.51625">
        <ele>740.085901</ele>
        <time>2022-04-27T09:16:07.807Z</time>
      </trkpt>
      <trkpt lat="41.46589" lon="20.51622">
        <ele>740.219391</ele>
        <time>2022-04-27T09:16:11.768Z</time>
      </trkpt>
      <trkpt lat="41.46579" lon="20.51616">
        <ele>740.373683</ele>
        <time>2022-04-27T09:16:15.785Z</time>
      </trkpt>
      <trkpt lat="41.46569" lon="20.51608">
        <ele>740.529043</ele>
        <time>2022-04-27T09:16:19.778Z</time>
      </trkpt>
      <trkpt lat="41.46562" lon="20.51602">
        <ele>740.652055</ele>
        <time>2022-04-27T09:16:22.851Z</time>
      </trkpt>
      <trkpt lat="41.46554" lon="20.51594">
        <ele>740.778542</ele>
        <time>2022-04-27T09:16:25.761Z</time>
      </trkpt>
      <trkpt lat="41.46544" lon="20.51587">
        <ele>740.941933</ele>
        <time>2022-04-27T09:16:29.760Z</time>
      </trkpt>
      <trkpt lat="41.46534" lon="20.51584">
        <ele>741.074187</ele>
        <time>2022-04-27T09:16:32.784Z</time>
      </trkpt>
      <trkpt lat="41.46525" lon="20.51584">
        <ele>741.095276</ele>
        <time>2022-04-27T09:16:35.780Z</time>
      </trkpt>
      <trkpt lat="41.46516" lon="20.51585">
        <ele>741.072129</ele>
        <time>2022-04-27T09:16:38.764Z</time>
      </trkpt>
      <trkpt lat="41.46506" lon="20.51589">
        <ele>741.047301</ele>
        <time>2022-04-27T09:16:41.779Z</time>
      </trkpt>
      <trkpt lat="41.46497" lon="20.51593">
        <ele>741.021853</ele>
        <time>2022-04-27T09:16:44.805Z</time>
      </trkpt>
      <trkpt lat="41.46486" lon="20.51597">
        <ele>740.993551</ele>
        <time>2022-04-27T09:16:47.766Z</time>
      </trkpt>
      <trkpt lat="41.46473" lon="20.51601">
        <ele>740.960091</ele>
        <time>2022-04-27T09:16:50.771Z</time>
      </trkpt>
      <trkpt lat="41.4646" lon="20.51605">
        <ele>740.928021</ele>
        <time>2022-04-27T09:16:53.776Z</time>
      </trkpt>
      <trkpt lat="41.46448" lon="20.51608">
        <ele>740.897841</ele>
        <time>2022-04-27T09:16:56.762Z</time>
      </trkpt>
      <trkpt lat="41.46438" lon="20.51612">
        <ele>740.870885</ele>
        <time>2022-04-27T09:16:59.775Z</time>
      </trkpt>
      <trkpt lat="41.46428" lon="20.51617">
        <ele>740.844503</ele>
        <time>2022-04-27T09:17:02.780Z</time>
      </trkpt>
      <trkpt lat="41.46417" lon="20.51625">
        <ele>740.813557</ele>
        <time>2022-04-27T09:17:05.782Z</time>
      </trkpt>
      <trkpt lat="41.46409" lon="20.51635">
        <ele>740.786154</ele>
        <time>2022-04-27T09:17:08.785Z</time>
      </trkpt>
      <trkpt lat="41.46402" lon="20.51647">
        <ele>740.757268</ele>
        <time>2022-04-27T09:17:11.787Z</time>
      </trkpt>
      <trkpt lat="41.46397" lon="20.5166">
        <ele>740.729169</ele>
        <time>2022-04-27T09:17:14.777Z</time>
      </trkpt>
      <trkpt lat="41.46392" lon="20.51674">
        <ele>740.701415</ele>
        <time>2022-04-27T09:17:17.769Z</time>
      </trkpt>
      <trkpt lat="41.46389" lon="20.51688">
        <ele>740.674096</ele>
        <time>2022-04-27T09:17:20.764Z</time>
      </trkpt>
      <trkpt lat="41.46384" lon="20.51701">
        <ele>740.707861</ele>
        <time>2022-04-27T09:17:23.771Z</time>
      </trkpt>
      <trkpt lat="41.46378" lon="20.51715">
        <ele>740.782287</ele>
        <time>2022-04-27T09:17:26.774Z</time>
      </trkpt>
      <trkpt lat="41.4637" lon="20.51725">
        <ele>740.858671</ele>
        <time>2022-04-27T09:17:29.753Z</time>
      </trkpt>
      <trkpt lat="41.46362" lon="20.51734">
        <ele>740.922959</ele>
        <time>2022-04-27T09:17:32.807Z</time>
      </trkpt>
      <trkpt lat="41.46352" lon="20.5174">
        <ele>740.997949</ele>
        <time>2022-04-27T09:17:36.774Z</time>
      </trkpt>
      <trkpt lat="41.46341" lon="20.51746">
        <ele>741.075178</ele>
        <time>2022-04-27T09:17:40.760Z</time>
      </trkpt>
      <trkpt lat="41.4633" lon="20.51751">
        <ele>741.148885</ele>
        <time>2022-04-27T09:17:44.828Z</time>
      </trkpt>
      <trkpt lat="41.46323" lon="20.51759">
        <ele>741.210947</ele>
        <time>2022-04-27T09:17:47.775Z</time>
      </trkpt>
      <trkpt lat="41.46314" lon="20.51768">
        <ele>741.283744</ele>
        <time>2022-04-27T09:17:50.763Z</time>
      </trkpt>
      <trkpt lat="41.46307" lon="20.51778">
        <ele>741.350919</ele>
        <time>2022-04-27T09:17:53.778Z</time>
      </trkpt>
      <trkpt lat="41.46302" lon="20.51791">
        <ele>741.424167</ele>
        <time>2022-04-27T09:17:56.780Z</time>
      </trkpt>
      <trkpt lat="41.46299" lon="20.51805">
        <ele>741.495439</ele>
        <time>2022-04-27T09:17:59.783Z</time>
      </trkpt>
      <trkpt lat="41.46298" lon="20.51818">
        <ele>741.558965</ele>
        <time>2022-04-27T09:18:02.774Z</time>
      </trkpt>
      <trkpt lat="41.46297" lon="20.51832">
        <ele>741.628048</ele>
        <time>2022-04-27T09:18:05.779Z</time>
      </trkpt>
      <trkpt lat="41.46295" lon="20.51847">
        <ele>741.704344</ele>
        <time>2022-04-27T09:18:08.754Z</time>
      </trkpt>
      <trkpt lat="41.46288" lon="20.5186">
        <ele>741.785848</ele>
        <time>2022-04-27T09:18:11.761Z</time>
      </trkpt>
      <trkpt lat="41.4628" lon="20.51874">
        <ele>741.762042</ele>
        <time>2022-04-27T09:18:14.783Z</time>
      </trkpt>
      <trkpt lat="41.46271" lon="20.51887">
        <ele>741.517382</ele>
        <time>2022-04-27T09:18:17.773Z</time>
      </trkpt>
      <trkpt lat="41.46262" lon="20.51897">
        <ele>741.283091</ele>
        <time>2022-04-27T09:18:20.774Z</time>
      </trkpt>
      <trkpt lat="41.46252" lon="20.51904">
        <ele>741.063977</ele>
        <time>2022-04-27T09:18:23.779Z</time>
      </trkpt>
      <trkpt lat="41.4624" lon="20.51905">
        <ele>740.831485</ele>
        <time>2022-04-27T09:18:26.758Z</time>
      </trkpt>
      <trkpt lat="41.46229" lon="20.51903">
        <ele>740.623223</ele>
        <time>2022-04-27T09:18:29.805Z</time>
      </trkpt>
      <trkpt lat="41.46219" lon="20.51899">
        <ele>740.428798</ele>
        <time>2022-04-27T09:18:32.788Z</time>
      </trkpt>
      <trkpt lat="41.4621" lon="20.51892">
        <ele>740.217102</ele>
        <time>2022-04-27T09:18:36.753Z</time>
      </trkpt>
      <trkpt lat="41.46201" lon="20.51882">
        <ele>739.995825</ele>
        <time>2022-04-27T09:18:40.767Z</time>
      </trkpt>
      <trkpt lat="41.46193" lon="20.51871">
        <ele>739.764492</ele>
        <time>2022-04-27T09:18:44.772Z</time>
      </trkpt>
      <trkpt lat="41.46184" lon="20.51862">
        <ele>739.557197</ele>
        <time>2022-04-27T09:18:47.760Z</time>
      </trkpt>
      <trkpt lat="41.46176" lon="20.51853">
        <ele>739.351388</ele>
        <time>2022-04-27T09:18:50.778Z</time>
      </trkpt>
      <trkpt lat="41.46168" lon="20.51845">
        <ele>739.154173</ele>
        <time>2022-04-27T09:18:53.773Z</time>
      </trkpt>
      <trkpt lat="41.46159" lon="20.51834">
        <ele>738.919452</ele>
        <time>2022-04-27T09:18:56.768Z</time>
      </trkpt>
      <trkpt lat="41.4615" lon="20.51825">
        <ele>738.707758</ele>
        <time>2022-04-27T09:18:59.765Z</time>
      </trkpt>
      <trkpt lat="41.4614" lon="20.51817">
        <ele>738.483505</ele>
        <time>2022-04-27T09:19:02.775Z</time>
      </trkpt>
      <trkpt lat="41.4613" lon="20.51808">
        <ele>738.724758</ele>
        <time>2022-04-27T09:19:05.764Z</time>
      </trkpt>
      <trkpt lat="41.4612" lon="20.51802">
        <ele>739.372606</ele>
        <time>2022-04-27T09:19:08.815Z</time>
      </trkpt>
      <trkpt lat="41.46111" lon="20.51793">
        <ele>740.043</ele>
        <time>2022-04-27T09:19:11.776Z</time>
      </trkpt>
      <trkpt lat="41.46102" lon="20.51783">
        <ele>740.705458</ele>
        <time>2022-04-27T09:19:14.808Z</time>
      </trkpt>
      <trkpt lat="41.46095" lon="20.51772">
        <ele>741.347019</ele>
        <time>2022-04-27T09:19:17.774Z</time>
      </trkpt>
      <trkpt lat="41.46088" lon="20.51762">
        <ele>741.929369</ele>
        <time>2022-04-27T09:19:20.821Z</time>
      </trkpt>
      <trkpt lat="41.4608" lon="20.51751">
        <ele>742.570669</ele>
        <time>2022-04-27T09:19:23.770Z</time>
      </trkpt>
      <trkpt lat="41.46072" lon="20.5174">
        <ele>743.266823</ele>
        <time>2022-04-27T09:19:26.769Z</time>
      </trkpt>
      <trkpt lat="41.46063" lon="20.5173">
        <ele>743.962396</ele>
        <time>2022-04-27T09:19:29.759Z</time>
      </trkpt>
      <trkpt lat="41.46053" lon="20.51722">
        <ele>744.625876</ele>
        <time>2022-04-27T09:19:32.782Z</time>
      </trkpt>
      <trkpt lat="41.46043" lon="20.51716">
        <ele>745.233744</ele>
        <time>2022-04-27T09:19:35.804Z</time>
      </trkpt>
      <trkpt lat="41.46033" lon="20.51713">
        <ele>745.863443</ele>
        <time>2022-04-27T09:19:38.779Z</time>
      </trkpt>
      <trkpt lat="41.46022" lon="20.5171">
        <ele>746.529193</ele>
        <time>2022-04-27T09:19:41.775Z</time>
      </trkpt>
      <trkpt lat="41.46012" lon="20.5171">
        <ele>747.088026</ele>
        <time>2022-04-27T09:19:44.778Z</time>
      </trkpt>
      <trkpt lat="41.46001" lon="20.51712">
        <ele>747.70921</ele>
        <time>2022-04-27T09:19:47.762Z</time>
      </trkpt>
      <trkpt lat="41.45992" lon="20.51715">
        <ele>748.269121</ele>
        <time>2022-04-27T09:19:50.773Z</time>
      </trkpt>
      <trkpt lat="41.45983" lon="20.51722">
        <ele>748.834185</ele>
        <time>2022-04-27T09:19:53.801Z</time>
      </trkpt>
      <trkpt lat="41.45975" lon="20.5173">
        <ele>748.803339</ele>
        <time>2022-04-27T09:19:56.778Z</time>
      </trkpt>
      <trkpt lat="41.45967" lon="20.51741">
        <ele>748.76948</ele>
        <time>2022-04-27T09:19:59.789Z</time>
      </trkpt>
      <trkpt lat="41.45961" lon="20.51754">
        <ele>748.735455</ele>
        <time>2022-04-27T09:20:02.771Z</time>
      </trkpt>
      <trkpt lat="41.45957" lon="20.51768">
        <ele>748.702017</ele>
        <time>2022-04-27T09:20:05.778Z</time>
      </trkpt>
      <trkpt lat="41.45953" lon="20.51781">
        <ele>748.67085</ele>
        <time>2022-04-27T09:20:08.769Z</time>
      </trkpt>
      <trkpt lat="41.45951" lon="20.51794">
        <ele>748.639396</ele>
        <time>2022-04-27T09:20:11.788Z</time>
      </trkpt>
      <trkpt lat="41.45948" lon="20.51809">
        <ele>748.605111</ele>
        <time>2022-04-27T09:20:14.764Z</time>
      </trkpt>
      <trkpt lat="41.45943" lon="20.51823">
        <ele>748.569491</ele>
        <time>2022-04-27T09:20:17.779Z</time>
      </trkpt>
      <trkpt lat="41.45937" lon="20.51837">
        <ele>748.533927</ele>
        <time>2022-04-27T09:20:20.782Z</time>
      </trkpt>
      <trkpt lat="41.4593" lon="20.51851">
        <ele>748.496983</ele>
        <time>2022-04-27T09:20:23.769Z</time>
      </trkpt>
      <trkpt lat="41.4592" lon="20.51861">
        <ele>748.459722</ele>
        <time>2022-04-27T09:20:26.764Z</time>
      </trkpt>
      <trkpt lat="41.45911" lon="20.51868">
        <ele>748.427792</ele>
        <time>2022-04-27T09:20:29.759Z</time>
      </trkpt>
      <trkpt lat="41.45901" lon="20.51874">
        <ele>748.396644</ele>
        <time>2022-04-27T09:20:32.785Z</time>
      </trkpt>
      <trkpt lat="41.4589" lon="20.51878">
        <ele>748.361888</ele>
        <time>2022-04-27T09:20:35.756Z</time>
      </trkpt>
      <trkpt lat="41.45879" lon="20.51884">
        <ele>748.327679</ele>
        <time>2022-04-27T09:20:38.784Z</time>
      </trkpt>
      <trkpt lat="41.45869" lon="20.5189">
        <ele>748.283439</ele>
        <time>2022-04-27T09:20:41.793Z</time>
      </trkpt>
      <trkpt lat="41.45859" lon="20.51899">
        <ele>748.166794</ele>
        <time>2022-04-27T09:20:44.782Z</time>
      </trkpt>
      <trkpt lat="41.45853" lon="20.51908">
        <ele>748.077161</ele>
        <time>2022-04-27T09:20:46.778Z</time>
      </trkpt>
      <trkpt lat="41.45849" lon="20.51919">
        <ele>747.986269</ele>
        <time>2022-04-27T09:20:48.810Z</time>
      </trkpt>
      <trkpt lat="41.45845" lon="20.51936">
        <ele>747.86064</ele>
        <time>2022-04-27T09:20:51.787Z</time>
      </trkpt>
      <trkpt lat="41.45845" lon="20.5195">
        <ele>747.75417</ele>
        <time>2022-04-27T09:20:54.811Z</time>
      </trkpt>
      <trkpt lat="41.45848" lon="20.51965">
        <ele>747.643737</ele>
        <time>2022-04-27T09:20:57.766Z</time>
      </trkpt>
      <trkpt lat="41.45853" lon="20.51975">
        <ele>747.554068</ele>
        <time>2022-04-27T09:20:59.791Z</time>
      </trkpt>
      <trkpt lat="41.45859" lon="20.51985">
        <ele>747.462226</ele>
        <time>2022-04-27T09:21:01.762Z</time>
      </trkpt>
      <trkpt lat="41.45868" lon="20.51996">
        <ele>747.343162</ele>
        <time>2022-04-27T09:21:04.779Z</time>
      </trkpt>
      <trkpt lat="41.45877" lon="20.52007">
        <ele>747.225793</ele>
        <time>2022-04-27T09:21:07.778Z</time>
      </trkpt>
      <trkpt lat="41.45885" lon="20.52019">
        <ele>747.102159</ele>
        <time>2022-04-27T09:21:10.785Z</time>
      </trkpt>
      <trkpt lat="41.45892" lon="20.52033">
        <ele>746.976293</ele>
        <time>2022-04-27T09:21:13.780Z</time>
      </trkpt>
      <trkpt lat="41.45898" lon="20.52049">
        <ele>746.849761</ele>
        <time>2022-04-27T09:21:16.802Z</time>
      </trkpt>
      <trkpt lat="41.45902" lon="20.5206">
        <ele>746.759504</ele>
        <time>2022-04-27T09:21:18.767Z</time>
      </trkpt>
      <trkpt lat="41.45905" lon="20.52077">
        <ele>746.633669</ele>
        <time>2022-04-27T09:21:21.768Z</time>
      </trkpt>
      <trkpt lat="41.45906" lon="20.52093">
        <ele>746.428696</ele>
        <time>2022-04-27T09:21:24.781Z</time>
      </trkpt>
      <trkpt lat="41.45906" lon="20.52109">
        <ele>745.891556</ele>
        <time>2022-04-27T09:21:27.773Z</time>
      </trkpt>
      <trkpt lat="41.45906" lon="20.52126">
        <ele>745.344525</ele>
        <time>2022-04-27T09:21:30.769Z</time>
      </trkpt>
      <trkpt lat="41.45906" lon="20.52142">
        <ele>744.793326</ele>
        <time>2022-04-27T09:21:33.815Z</time>
      </trkpt>
      <trkpt lat="41.45904" lon="20.52157">
        <ele>744.29103</ele>
        <time>2022-04-27T09:21:36.771Z</time>
      </trkpt>
      <trkpt lat="41.45901" lon="20.52173">
        <ele>743.767033</ele>
        <time>2022-04-27T09:21:39.771Z</time>
      </trkpt>
      <trkpt lat="41.45895" lon="20.52187">
        <ele>743.237114</ele>
        <time>2022-04-27T09:21:42.770Z</time>
      </trkpt>
      <trkpt lat="41.45889" lon="20.52201">
        <ele>742.693379</ele>
        <time>2022-04-27T09:21:45.781Z</time>
      </trkpt>
      <trkpt lat="41.45885" lon="20.52213">
        <ele>742.272077</ele>
        <time>2022-04-27T09:21:47.776Z</time>
      </trkpt>
      <trkpt lat="41.4588" lon="20.52224">
        <ele>741.837032</ele>
        <time>2022-04-27T09:21:49.778Z</time>
      </trkpt>
      <trkpt lat="41.45872" lon="20.52237">
        <ele>741.268625</ele>
        <time>2022-04-27T09:21:52.766Z</time>
      </trkpt>
      <trkpt lat="41.45863" lon="20.52246">
        <ele>740.79519</ele>
        <time>2022-04-27T09:21:54.783Z</time>
      </trkpt>
      <trkpt lat="41.45855" lon="20.52252">
        <ele>740.370079</ele>
        <time>2022-04-27T09:21:56.777Z</time>
      </trkpt>
      <trkpt lat="41.45844" lon="20.52261">
        <ele>739.824709</ele>
        <time>2022-04-27T09:21:59.786Z</time>
      </trkpt>
      <trkpt lat="41.45833" lon="20.52265">
        <ele>739.297856</ele>
        <time>2022-04-27T09:22:02.771Z</time>
      </trkpt>
      <trkpt lat="41.45821" lon="20.52269">
        <ele>738.742191</ele>
        <time>2022-04-27T09:22:05.765Z</time>
      </trkpt>
      <trkpt lat="41.45812" lon="20.52271">
        <ele>738.502151</ele>
        <time>2022-04-27T09:22:07.798Z</time>
      </trkpt>
      <trkpt lat="41.45799" lon="20.52275">
        <ele>738.317384</ele>
        <time>2022-04-27T09:22:10.758Z</time>
      </trkpt>
      <trkpt lat="41.45786" lon="20.52282">
        <ele>738.126649</ele>
        <time>2022-04-27T09:22:13.793Z</time>
      </trkpt>
      <trkpt lat="41.45778" lon="20.5229">
        <ele>737.980715</ele>
        <time>2022-04-27T09:22:15.783Z</time>
      </trkpt>
      <trkpt lat="41.45769" lon="20.52299">
        <ele>737.82922</ele>
        <time>2022-04-27T09:22:17.788Z</time>
      </trkpt>
      <trkpt lat="41.4576" lon="20.52309">
        <ele>737.667499</ele>
        <time>2022-04-27T09:22:19.807Z</time>
      </trkpt>
      <trkpt lat="41.45751" lon="20.52319">
        <ele>737.498354</ele>
        <time>2022-04-27T09:22:21.767Z</time>
      </trkpt>
      <trkpt lat="41.45741" lon="20.52327">
        <ele>737.33439</ele>
        <time>2022-04-27T09:22:23.783Z</time>
      </trkpt>
      <trkpt lat="41.4573" lon="20.52335">
        <ele>737.166585</ele>
        <time>2022-04-27T09:22:25.779Z</time>
      </trkpt>
      <trkpt lat="41.4572" lon="20.52343">
        <ele>736.996571</ele>
        <time>2022-04-27T09:22:27.771Z</time>
      </trkpt>
      <trkpt lat="41.45707" lon="20.52348">
        <ele>736.815177</ele>
        <time>2022-04-27T09:22:29.773Z</time>
      </trkpt>
      <trkpt lat="41.45695" lon="20.52355">
        <ele>736.628947</ele>
        <time>2022-04-27T09:22:31.771Z</time>
      </trkpt>
      <trkpt lat="41.45684" lon="20.52362">
        <ele>736.455235</ele>
        <time>2022-04-27T09:22:33.790Z</time>
      </trkpt>
      <trkpt lat="41.45672" lon="20.52371">
        <ele>736.265052</ele>
        <time>2022-04-27T09:22:35.772Z</time>
      </trkpt>
      <trkpt lat="41.45661" lon="20.52381">
        <ele>736.073107</ele>
        <time>2022-04-27T09:22:37.760Z</time>
      </trkpt>
      <trkpt lat="41.4565" lon="20.52393">
        <ele>735.407188</ele>
        <time>2022-04-27T09:22:39.744Z</time>
      </trkpt>
      <trkpt lat="41.45639" lon="20.52403">
        <ele>734.728389</ele>
        <time>2022-04-27T09:22:41.830Z</time>
      </trkpt>
      <trkpt lat="41.45626" lon="20.52411">
        <ele>734.028645</ele>
        <time>2022-04-27T09:22:43.794Z</time>
      </trkpt>
      <trkpt lat="41.45612" lon="20.52417">
        <ele>733.291754</ele>
        <time>2022-04-27T09:22:45.767Z</time>
      </trkpt>
      <trkpt lat="41.45598" lon="20.52417">
        <ele>732.59446</ele>
        <time>2022-04-27T09:22:47.772Z</time>
      </trkpt>
      <trkpt lat="41.45584" lon="20.52409">
        <ele>731.81236</ele>
        <time>2022-04-27T09:22:49.739Z</time>
      </trkpt>
      <trkpt lat="41.45571" lon="20.52396">
        <ele>731.021312</ele>
        <time>2022-04-27T09:22:51.752Z</time>
      </trkpt>
      <trkpt lat="41.45563" lon="20.52381">
        <ele>730.325909</ele>
        <time>2022-04-27T09:22:53.741Z</time>
      </trkpt>
      <trkpt lat="41.4556" lon="20.52362">
        <ele>729.578514</ele>
        <time>2022-04-27T09:22:55.756Z</time>
      </trkpt>
      <trkpt lat="41.45561" lon="20.5234">
        <ele>728.751288</ele>
        <time>2022-04-27T09:22:57.746Z</time>
      </trkpt>
      <trkpt lat="41.45563" lon="20.52318">
        <ele>727.91619</ele>
        <time>2022-04-27T09:22:59.746Z</time>
      </trkpt>
      <trkpt lat="41.45566" lon="20.52296">
        <ele>727.096631</ele>
        <time>2022-04-27T09:23:01.758Z</time>
      </trkpt>
      <trkpt lat="41.45569" lon="20.52275">
        <ele>725.073786</ele>
        <time>2022-04-27T09:23:03.748Z</time>
      </trkpt>
      <trkpt lat="41.45573" lon="20.52254">
        <ele>723.093022</ele>
        <time>2022-04-27T09:23:05.753Z</time>
      </trkpt>
      <trkpt lat="41.45576" lon="20.52234">
        <ele>721.111173</ele>
        <time>2022-04-27T09:23:07.751Z</time>
      </trkpt>
      <trkpt lat="41.45578" lon="20.52215">
        <ele>719.230545</ele>
        <time>2022-04-27T09:23:09.745Z</time>
      </trkpt>
      <trkpt lat="41.4558" lon="20.52196">
        <ele>717.431552</ele>
        <time>2022-04-27T09:23:11.748Z</time>
      </trkpt>
      <trkpt lat="41.45582" lon="20.52177">
        <ele>715.611372</ele>
        <time>2022-04-27T09:23:13.786Z</time>
      </trkpt>
      <trkpt lat="41.45583" lon="20.52158">
        <ele>713.751642</ele>
        <time>2022-04-27T09:23:15.749Z</time>
      </trkpt>
      <trkpt lat="41.45583" lon="20.52138">
        <ele>711.869509</ele>
        <time>2022-04-27T09:23:17.757Z</time>
      </trkpt>
      <trkpt lat="41.45581" lon="20.52119">
        <ele>710.052474</ele>
        <time>2022-04-27T09:23:19.742Z</time>
      </trkpt>
      <trkpt lat="41.45576" lon="20.52101">
        <ele>708.221511</ele>
        <time>2022-04-27T09:23:21.760Z</time>
      </trkpt>
      <trkpt lat="41.45562" lon="20.52082">
        <ele>705.707433</ele>
        <time>2022-04-27T09:23:24.774Z</time>
      </trkpt>
      <trkpt lat="41.45551" lon="20.52076">
        <ele>704.091269</ele>
        <time>2022-04-27T09:23:26.756Z</time>
      </trkpt>
      <trkpt lat="41.45536" lon="20.52073">
        <ele>703.290349</ele>
        <time>2022-04-27T09:23:28.739Z</time>
      </trkpt>
      <trkpt lat="41.45522" lon="20.52077">
        <ele>702.461529</ele>
        <time>2022-04-27T09:23:30.745Z</time>
      </trkpt>
      <trkpt lat="41.45508" lon="20.52086">
        <ele>701.610983</ele>
        <time>2022-04-27T09:23:32.751Z</time>
      </trkpt>
      <trkpt lat="41.45497" lon="20.52098">
        <ele>700.803896</ele>
        <time>2022-04-27T09:23:34.740Z</time>
      </trkpt>
      <trkpt lat="41.45486" lon="20.52113">
        <ele>699.976566</ele>
        <time>2022-04-27T09:23:36.757Z</time>
      </trkpt>
      <trkpt lat="41.45476" lon="20.52127">
        <ele>699.16745</ele>
        <time>2022-04-27T09:23:38.752Z</time>
      </trkpt>
      <trkpt lat="41.45467" lon="20.52141">
        <ele>698.400352</ele>
        <time>2022-04-27T09:23:40.756Z</time>
      </trkpt>
      <trkpt lat="41.45459" lon="20.52154">
        <ele>697.659849</ele>
        <time>2022-04-27T09:23:42.740Z</time>
      </trkpt>
      <trkpt lat="41.45449" lon="20.52166">
        <ele>696.926282</ele>
        <time>2022-04-27T09:23:44.749Z</time>
      </trkpt>
      <trkpt lat="41.45439" lon="20.52177">
        <ele>696.225706</ele>
        <time>2022-04-27T09:23:46.772Z</time>
      </trkpt>
      <trkpt lat="41.45427" lon="20.52186">
        <ele>695.453385</ele>
        <time>2022-04-27T09:23:48.757Z</time>
      </trkpt>
      <trkpt lat="41.45413" lon="20.52192">
        <ele>694.664287</ele>
        <time>2022-04-27T09:23:50.744Z</time>
      </trkpt>
      <trkpt lat="41.45399" lon="20.52195">
        <ele>693.727051</ele>
        <time>2022-04-27T09:23:52.785Z</time>
      </trkpt>
      <trkpt lat="41.45386" lon="20.52194">
        <ele>692.470761</ele>
        <time>2022-04-27T09:23:54.746Z</time>
      </trkpt>
      <trkpt lat="41.45372" lon="20.52189">
        <ele>691.211312</ele>
        <time>2022-04-27T09:23:56.750Z</time>
      </trkpt>
      <trkpt lat="41.4536" lon="20.52181">
        <ele>689.895514</ele>
        <time>2022-04-27T09:23:58.749Z</time>
      </trkpt>
      <trkpt lat="41.45349" lon="20.5217">
        <ele>688.66325</ele>
        <time>2022-04-27T09:24:00.791Z</time>
      </trkpt>
      <trkpt lat="41.45341" lon="20.52156">
        <ele>687.470047</ele>
        <time>2022-04-27T09:24:02.770Z</time>
      </trkpt>
      <trkpt lat="41.45337" lon="20.52142">
        <ele>686.417847</ele>
        <time>2022-04-27T09:24:04.751Z</time>
      </trkpt>
      <trkpt lat="41.45334" lon="20.52126">
        <ele>685.313605</ele>
        <time>2022-04-27T09:24:06.793Z</time>
      </trkpt>
      <trkpt lat="41.45332" lon="20.52109">
        <ele>684.110987</ele>
        <time>2022-04-27T09:24:08.771Z</time>
      </trkpt>
      <trkpt lat="41.45332" lon="20.52091">
        <ele>682.879974</ele>
        <time>2022-04-27T09:24:10.764Z</time>
      </trkpt>
      <trkpt lat="41.45332" lon="20.52075">
        <ele>681.77977</ele>
        <time>2022-04-27T09:24:12.758Z</time>
      </trkpt>
      <trkpt lat="41.45332" lon="20.52058">
        <ele>680.597758</ele>
        <time>2022-04-27T09:24:14.775Z</time>
      </trkpt>
      <trkpt lat="41.45333" lon="20.5204">
        <ele>679.415924</ele>
        <time>2022-04-27T09:24:16.765Z</time>
      </trkpt>
      <trkpt lat="41.45332" lon="20.52023">
        <ele>678.254264</ele>
        <time>2022-04-27T09:24:18.770Z</time>
      </trkpt>
      <trkpt lat="41.45332" lon="20.52007">
        <ele>677.32738</ele>
        <time>2022-04-27T09:24:20.750Z</time>
      </trkpt>
      <trkpt lat="41.45333" lon="20.51989">
        <ele>676.623252</ele>
        <time>2022-04-27T09:24:22.773Z</time>
      </trkpt>
      <trkpt lat="41.45333" lon="20.51971">
        <ele>675.892462</ele>
        <time>2022-04-27T09:24:24.764Z</time>
      </trkpt>
      <trkpt lat="41.45333" lon="20.51953">
        <ele>675.184909</ele>
        <time>2022-04-27T09:24:26.757Z</time>
      </trkpt>
      <trkpt lat="41.4533" lon="20.51936">
        <ele>674.50484</ele>
        <time>2022-04-27T09:24:28.754Z</time>
      </trkpt>
      <trkpt lat="41.45325" lon="20.51922">
        <ele>673.848732</ele>
        <time>2022-04-27T09:24:30.760Z</time>
      </trkpt>
      <trkpt lat="41.45318" lon="20.51908">
        <ele>673.196464</ele>
        <time>2022-04-27T09:24:32.752Z</time>
      </trkpt>
      <trkpt lat="41.45309" lon="20.51897">
        <ele>672.55669</ele>
        <time>2022-04-27T09:24:34.755Z</time>
      </trkpt>
      <trkpt lat="41.45298" lon="20.51888">
        <ele>671.871837</ele>
        <time>2022-04-27T09:24:36.754Z</time>
      </trkpt>
      <trkpt lat="41.45286" lon="20.5188">
        <ele>671.154086</ele>
        <time>2022-04-27T09:24:38.752Z</time>
      </trkpt>
      <trkpt lat="41.45273" lon="20.51877">
        <ele>670.456397</ele>
        <time>2022-04-27T09:24:40.756Z</time>
      </trkpt>
      <trkpt lat="41.45259" lon="20.51879">
        <ele>669.669104</ele>
        <time>2022-04-27T09:24:42.947Z</time>
      </trkpt>
      <trkpt lat="41.45244" lon="20.51885">
        <ele>668.835097</ele>
        <time>2022-04-27T09:24:44.772Z</time>
      </trkpt>
      <trkpt lat="41.45232" lon="20.51896">
        <ele>668.069007</ele>
        <time>2022-04-27T09:24:46.768Z</time>
      </trkpt>
      <trkpt lat="41.45224" lon="20.51908">
        <ele>668.050191</ele>
        <time>2022-04-27T09:24:48.779Z</time>
      </trkpt>
      <trkpt lat="41.45218" lon="20.51922">
        <ele>668.031143</ele>
        <time>2022-04-27T09:24:50.781Z</time>
      </trkpt>
      <trkpt lat="41.45211" lon="20.51935">
        <ele>668.011601</ele>
        <time>2022-04-27T09:24:52.801Z</time>
      </trkpt>
      <trkpt lat="41.45205" lon="20.5195">
        <ele>667.99176</ele>
        <time>2022-04-27T09:24:54.770Z</time>
      </trkpt>
      <trkpt lat="41.452" lon="20.51965">
        <ele>667.971148</ele>
        <time>2022-04-27T09:24:56.787Z</time>
      </trkpt>
      <trkpt lat="41.45195" lon="20.5198">
        <ele>667.951159</ele>
        <time>2022-04-27T09:24:58.774Z</time>
      </trkpt>
      <trkpt lat="41.4519" lon="20.51995">
        <ele>667.931874</ele>
        <time>2022-04-27T09:25:00.772Z</time>
      </trkpt>
      <trkpt lat="41.45186" lon="20.5201">
        <ele>667.91264</ele>
        <time>2022-04-27T09:25:02.776Z</time>
      </trkpt>
      <trkpt lat="41.45182" lon="20.52025">
        <ele>667.894091</ele>
        <time>2022-04-27T09:25:04.779Z</time>
      </trkpt>
      <trkpt lat="41.45176" lon="20.52038">
        <ele>667.875615</ele>
        <time>2022-04-27T09:25:06.780Z</time>
      </trkpt>
      <trkpt lat="41.45169" lon="20.52048">
        <ele>667.858347</ele>
        <time>2022-04-27T09:25:08.790Z</time>
      </trkpt>
      <trkpt lat="41.4516" lon="20.52056">
        <ele>667.841037</ele>
        <time>2022-04-27T09:25:10.764Z</time>
      </trkpt>
      <trkpt lat="41.4515" lon="20.52062">
        <ele>667.82347</ele>
        <time>2022-04-27T09:25:12.808Z</time>
      </trkpt>
      <trkpt lat="41.45139" lon="20.52065">
        <ele>667.804846</ele>
        <time>2022-04-27T09:25:14.738Z</time>
      </trkpt>
      <trkpt lat="41.45126" lon="20.52064">
        <ele>667.785066</ele>
        <time>2022-04-27T09:25:16.751Z</time>
      </trkpt>
      <trkpt lat="41.45114" lon="20.52061">
        <ele>667.63374</ele>
        <time>2022-04-27T09:25:18.742Z</time>
      </trkpt>
      <trkpt lat="41.45104" lon="20.52055">
        <ele>667.446022</ele>
        <time>2022-04-27T09:25:20.776Z</time>
      </trkpt>
      <trkpt lat="41.45095" lon="20.52046">
        <ele>667.268273</ele>
        <time>2022-04-27T09:25:22.785Z</time>
      </trkpt>
      <trkpt lat="41.45088" lon="20.52037">
        <ele>667.112019</ele>
        <time>2022-04-27T09:25:24.769Z</time>
      </trkpt>
      <trkpt lat="41.45081" lon="20.52027">
        <ele>666.94807</ele>
        <time>2022-04-27T09:25:26.774Z</time>
      </trkpt>
      <trkpt lat="41.45074" lon="20.52018">
        <ele>666.792063</ele>
        <time>2022-04-27T09:25:28.772Z</time>
      </trkpt>
      <trkpt lat="41.45067" lon="20.52008">
        <ele>666.630002</ele>
        <time>2022-04-27T09:25:30.791Z</time>
      </trkpt>
      <trkpt lat="41.45058" lon="20.52">
        <ele>666.459139</ele>
        <time>2022-04-27T09:25:32.806Z</time>
      </trkpt>
      <trkpt lat="41.45049" lon="20.51994">
        <ele>666.283531</ele>
        <time>2022-04-27T09:25:34.765Z</time>
      </trkpt>
      <trkpt lat="41.45037" lon="20.51989">
        <ele>666.090668</ele>
        <time>2022-04-27T09:25:36.755Z</time>
      </trkpt>
      <trkpt lat="41.45026" lon="20.51985">
        <ele>665.902766</ele>
        <time>2022-04-27T09:25:38.774Z</time>
      </trkpt>
      <trkpt lat="41.45015" lon="20.5198">
        <ele>665.726186</ele>
        <time>2022-04-27T09:25:40.776Z</time>
      </trkpt>
      <trkpt lat="41.45005" lon="20.51974">
        <ele>665.546334</ele>
        <time>2022-04-27T09:25:42.778Z</time>
      </trkpt>
      <trkpt lat="41.44997" lon="20.51966">
        <ele>665.377891</ele>
        <time>2022-04-27T09:25:44.758Z</time>
      </trkpt>
      <trkpt lat="41.4499" lon="20.51956">
        <ele>665.215829</ele>
        <time>2022-04-27T09:25:46.757Z</time>
      </trkpt>
      <trkpt lat="41.44985" lon="20.51945">
        <ele>665.057544</ele>
        <time>2022-04-27T09:25:48.770Z</time>
      </trkpt>
      <trkpt lat="41.44981" lon="20.51932">
        <ele>664.893142</ele>
        <time>2022-04-27T09:25:50.812Z</time>
      </trkpt>
      <trkpt lat="41.44977" lon="20.51918">
        <ele>664.775509</ele>
        <time>2022-04-27T09:25:52.788Z</time>
      </trkpt>
      <trkpt lat="41.44973" lon="20.51903">
        <ele>664.65197</ele>
        <time>2022-04-27T09:25:54.764Z</time>
      </trkpt>
      <trkpt lat="41.44967" lon="20.5189">
        <ele>664.527978</ele>
        <time>2022-04-27T09:25:56.764Z</time>
      </trkpt>
      <trkpt lat="41.44957" lon="20.5188">
        <ele>664.401068</ele>
        <time>2022-04-27T09:25:58.772Z</time>
      </trkpt>
      <trkpt lat="41.44947" lon="20.51871">
        <ele>664.275991</ele>
        <time>2022-04-27T09:26:00.777Z</time>
      </trkpt>
      <trkpt lat="41.44937" lon="20.51866">
        <ele>664.162699</ele>
        <time>2022-04-27T09:26:02.808Z</time>
      </trkpt>
      <trkpt lat="41.44927" lon="20.51863">
        <ele>664.052902</ele>
        <time>2022-04-27T09:26:04.767Z</time>
      </trkpt>
      <trkpt lat="41.44916" lon="20.51862">
        <ele>663.941478</ele>
        <time>2022-04-27T09:26:06.780Z</time>
      </trkpt>
      <trkpt lat="41.44905" lon="20.51862">
        <ele>663.822063</ele>
        <time>2022-04-27T09:26:08.776Z</time>
      </trkpt>
      <trkpt lat="41.44893" lon="20.51861">
        <ele>663.701447</ele>
        <time>2022-04-27T09:26:10.787Z</time>
      </trkpt>
      <trkpt lat="41.44881" lon="20.51858">
        <ele>663.574111</ele>
        <time>2022-04-27T09:26:12.782Z</time>
      </trkpt>
      <trkpt lat="41.44869" lon="20.51855">
        <ele>663.438591</ele>
        <time>2022-04-27T09:26:14.776Z</time>
      </trkpt>
      <trkpt lat="41.44857" lon="20.51849">
        <ele>663.305892</ele>
        <time>2022-04-27T09:26:16.777Z</time>
      </trkpt>
      <trkpt lat="41.44846" lon="20.51843">
        <ele>663.184979</ele>
        <time>2022-04-27T09:26:18.782Z</time>
      </trkpt>
      <trkpt lat="41.44836" lon="20.51836">
        <ele>663.066501</ele>
        <time>2022-04-27T09:26:20.771Z</time>
      </trkpt>
      <trkpt lat="41.44826" lon="20.51829">
        <ele>663.369064</ele>
        <time>2022-04-27T09:26:22.753Z</time>
      </trkpt>
      <trkpt lat="41.44816" lon="20.51823">
        <ele>664.03929</ele>
        <time>2022-04-27T09:26:24.747Z</time>
      </trkpt>
      <trkpt lat="41.44806" lon="20.51818">
        <ele>664.698546</ele>
        <time>2022-04-27T09:26:26.763Z</time>
      </trkpt>
      <trkpt lat="41.44796" lon="20.51816">
        <ele>665.283681</ele>
        <time>2022-04-27T09:26:28.747Z</time>
      </trkpt>
      <trkpt lat="41.44784" lon="20.51816">
        <ele>666.03971</ele>
        <time>2022-04-27T09:26:31.744Z</time>
      </trkpt>
      <trkpt lat="41.44775" lon="20.51819">
        <ele>666.622901</ele>
        <time>2022-04-27T09:26:34.746Z</time>
      </trkpt>
      <trkpt lat="41.44766" lon="20.51827">
        <ele>667.272173</ele>
        <time>2022-04-27T09:26:38.773Z</time>
      </trkpt>
      <trkpt lat="41.4476" lon="20.51839">
        <ele>667.937617</ele>
        <time>2022-04-27T09:26:43.760Z</time>
      </trkpt>
      <trkpt lat="41.44755" lon="20.5185">
        <ele>668.518305</ele>
        <time>2022-04-27T09:26:48.752Z</time>
      </trkpt>
      <trkpt lat="41.4475" lon="20.51863">
        <ele>669.164049</ele>
        <time>2022-04-27T09:26:53.759Z</time>
      </trkpt>
      <trkpt lat="41.44747" lon="20.51876">
        <ele>669.796032</ele>
        <time>2022-04-27T09:26:58.760Z</time>
      </trkpt>
      <trkpt lat="41.44747" lon="20.51889">
        <ele>670.413567</ele>
        <time>2022-04-27T09:27:03.753Z</time>
      </trkpt>
      <trkpt lat="41.44745" lon="20.51902">
        <ele>671.012212</ele>
        <time>2022-04-27T09:27:08.748Z</time>
      </trkpt>
      <trkpt lat="41.44746" lon="20.51914">
        <ele>671.556747</ele>
        <time>2022-04-27T09:27:13.747Z</time>
      </trkpt>
      <trkpt lat="41.44746" lon="20.51926">
        <ele>672.118737</ele>
        <time>2022-04-27T09:27:18.742Z</time>
      </trkpt>
      <trkpt lat="41.44748" lon="20.51938">
        <ele>672.686169</ele>
        <time>2022-04-27T09:27:24.747Z</time>
      </trkpt>
      <trkpt lat="41.44748" lon="20.51953">
        <ele>673.335189</ele>
        <time>2022-04-27T09:27:31.745Z</time>
      </trkpt>
      <trkpt lat="41.44749" lon="20.51965">
        <ele>673.92258</ele>
        <time>2022-04-27T09:27:36.748Z</time>
      </trkpt>
      <trkpt lat="41.44748" lon="20.51979">
        <ele>674.693288</ele>
        <time>2022-04-27T09:27:42.745Z</time>
      </trkpt>
      <trkpt lat="41.44744" lon="20.5199">
        <ele>675.386291</ele>
        <time>2022-04-27T09:27:48.749Z</time>
      </trkpt>
      <trkpt lat="41.44739" lon="20.52001">
        <ele>676.13191</ele>
        <time>2022-04-27T09:27:55.756Z</time>
      </trkpt>
      <trkpt lat="41.44735" lon="20.52013">
        <ele>676.8962</ele>
        <time>2022-04-27T09:28:02.741Z</time>
      </trkpt>
      <trkpt lat="41.44731" lon="20.52025">
        <ele>677.630954</ele>
        <time>2022-04-27T09:28:08.757Z</time>
      </trkpt>
      <trkpt lat="41.44726" lon="20.52035">
        <ele>678.352993</ele>
        <time>2022-04-27T09:28:14.749Z</time>
      </trkpt>
      <trkpt lat="41.44721" lon="20.52047">
        <ele>679.156586</ele>
        <time>2022-04-27T09:28:21.746Z</time>
      </trkpt>
      <trkpt lat="41.44718" lon="20.52058">
        <ele>679.849303</ele>
        <time>2022-04-27T09:28:28.742Z</time>
      </trkpt>
      <trkpt lat="41.44713" lon="20.52071">
        <ele>680.663168</ele>
        <time>2022-04-27T09:28:35.774Z</time>
      </trkpt>
      <trkpt lat="41.44712" lon="20.52083">
        <ele>681.383946</ele>
        <time>2022-04-27T09:28:41.748Z</time>
      </trkpt>
      <trkpt lat="41.44712" lon="20.52096">
        <ele>682.155073</ele>
        <time>2022-04-27T09:28:47.745Z</time>
      </trkpt>
      <trkpt lat="41.44715" lon="20.52108">
        <ele>682.865313</ele>
        <time>2022-04-27T09:28:52.749Z</time>
      </trkpt>
      <trkpt lat="41.44719" lon="20.52121">
        <ele>683.670698</ele>
        <time>2022-04-27T09:28:58.754Z</time>
      </trkpt>
      <trkpt lat="41.44725" lon="20.52132">
        <ele>684.429352</ele>
        <time>2022-04-27T09:29:04.746Z</time>
      </trkpt>
      <trkpt lat="41.4473" lon="20.52142">
        <ele>685.173889</ele>
        <time>2022-04-27T09:29:11.748Z</time>
      </trkpt>
      <trkpt lat="41.44736" lon="20.52154">
        <ele>685.977842</ele>
        <time>2022-04-27T09:29:18.752Z</time>
      </trkpt>
      <trkpt lat="41.4474" lon="20.52165">
        <ele>686.708602</ele>
        <time>2022-04-27T09:29:25.770Z</time>
      </trkpt>
      <trkpt lat="41.44745" lon="20.52177">
        <ele>687.527436</ele>
        <time>2022-04-27T09:29:32.741Z</time>
      </trkpt>
      <trkpt lat="41.4475" lon="20.52188">
        <ele>688.114059</ele>
        <time>2022-04-27T09:29:38.752Z</time>
      </trkpt>
      <trkpt lat="41.4475" lon="20.522">
        <ele>688.566226</ele>
        <time>2022-04-27T09:29:45.747Z</time>
      </trkpt>
      <trkpt lat="41.44747" lon="20.52214">
        <ele>689.078838</ele>
        <time>2022-04-27T09:29:52.750Z</time>
      </trkpt>
      <trkpt lat="41.44745" lon="20.52227">
        <ele>689.591206</ele>
        <time>2022-04-27T09:30:00.744Z</time>
      </trkpt>
      <trkpt lat="41.4474" lon="20.52238">
        <ele>690.044871</ele>
        <time>2022-04-27T09:30:06.744Z</time>
      </trkpt>
      <trkpt lat="41.44735" lon="20.52249">
        <ele>690.553139</ele>
        <time>2022-04-27T09:30:13.745Z</time>
      </trkpt>
      <trkpt lat="41.44732" lon="20.52261">
        <ele>691.022766</ele>
        <time>2022-04-27T09:30:19.747Z</time>
      </trkpt>
      <trkpt lat="41.44731" lon="20.52274">
        <ele>691.506873</ele>
        <time>2022-04-27T09:30:26.750Z</time>
      </trkpt>
      <trkpt lat="41.44729" lon="20.52287">
        <ele>691.994672</ele>
        <time>2022-04-27T09:30:33.761Z</time>
      </trkpt>
      <trkpt lat="41.44729" lon="20.523">
        <ele>692.477967</ele>
        <time>2022-04-27T09:30:40.752Z</time>
      </trkpt>
      <trkpt lat="41.44729" lon="20.52314">
        <ele>692.991083</ele>
        <time>2022-04-27T09:30:46.761Z</time>
      </trkpt>
      <trkpt lat="41.44731" lon="20.52326">
        <ele>693.459374</ele>
        <time>2022-04-27T09:30:52.747Z</time>
      </trkpt>
      <trkpt lat="41.44734" lon="20.52338">
        <ele>693.916817</ele>
        <time>2022-04-27T09:30:58.746Z</time>
      </trkpt>
      <trkpt lat="41.44738" lon="20.5235">
        <ele>694.405133</ele>
        <time>2022-04-27T09:31:04.774Z</time>
      </trkpt>
      <trkpt lat="41.44741" lon="20.52363">
        <ele>694.910931</ele>
        <time>2022-04-27T09:31:10.780Z</time>
      </trkpt>
      <trkpt lat="41.44744" lon="20.52376">
        <ele>695.451774</ele>
        <time>2022-04-27T09:31:16.750Z</time>
      </trkpt>
      <trkpt lat="41.44744" lon="20.52389">
        <ele>695.911819</ele>
        <time>2022-04-27T09:31:23.747Z</time>
      </trkpt>
      <trkpt lat="41.44742" lon="20.52401">
        <ele>696.393035</ele>
        <time>2022-04-27T09:31:30.749Z</time>
      </trkpt>
      <trkpt lat="41.44739" lon="20.52413">
        <ele>696.882965</ele>
        <time>2022-04-27T09:31:37.792Z</time>
      </trkpt>
      <trkpt lat="41.44735" lon="20.52425">
        <ele>697.445526</ele>
        <time>2022-04-27T09:31:44.751Z</time>
      </trkpt>
      <trkpt lat="41.44729" lon="20.52436">
        <ele>698.05537</ele>
        <time>2022-04-27T09:31:52.753Z</time>
      </trkpt>
      <trkpt lat="41.44723" lon="20.52447">
        <ele>698.654518</ele>
        <time>2022-04-27T09:32:00.757Z</time>
      </trkpt>
      <trkpt lat="41.44718" lon="20.52456">
        <ele>699.203731</ele>
        <time>2022-04-27T09:32:07.749Z</time>
      </trkpt>
      <trkpt lat="41.4471" lon="20.52465">
        <ele>699.796288</ele>
        <time>2022-04-27T09:32:15.745Z</time>
      </trkpt>
      <trkpt lat="41.44704" lon="20.52475">
        <ele>700.393481</ele>
        <time>2022-04-27T09:32:23.740Z</time>
      </trkpt>
      <trkpt lat="41.44697" lon="20.52484">
        <ele>700.937586</ele>
        <time>2022-04-27T09:32:31.749Z</time>
      </trkpt>
      <trkpt lat="41.44691" lon="20.52492">
        <ele>701.478211</ele>
        <time>2022-04-27T09:32:38.755Z</time>
      </trkpt>
      <trkpt lat="41.44684" lon="20.52502">
        <ele>702.046886</ele>
        <time>2022-04-27T09:32:45.744Z</time>
      </trkpt>
      <trkpt lat="41.44679" lon="20.52512">
        <ele>702.592528</ele>
        <time>2022-04-27T09:32:52.756Z</time>
      </trkpt>
      <trkpt lat="41.44671" lon="20.52521">
        <ele>703.208751</ele>
        <time>2022-04-27T09:32:59.771Z</time>
      </trkpt>
      <trkpt lat="41.44665" lon="20.52531">
        <ele>703.755186</ele>
        <time>2022-04-27T09:33:06.755Z</time>
      </trkpt>
      <trkpt lat="41.44658" lon="20.52539">
        <ele>704.356863</ele>
        <time>2022-04-27T09:33:13.742Z</time>
      </trkpt>
      <trkpt lat="41.44651" lon="20.52548">
        <ele>704.920167</ele>
        <time>2022-04-27T09:33:20.750Z</time>
      </trkpt>
      <trkpt lat="41.44645" lon="20.52557">
        <ele>705.452937</ele>
        <time>2022-04-27T09:33:27.798Z</time>
      </trkpt>
      <trkpt lat="41.44638" lon="20.52565">
        <ele>706.000412</ele>
        <time>2022-04-27T09:33:34.748Z</time>
      </trkpt>
      <trkpt lat="41.44631" lon="20.52574">
        <ele>706.559463</ele>
        <time>2022-04-27T09:33:41.747Z</time>
      </trkpt>
      <trkpt lat="41.44625" lon="20.52584">
        <ele>707.131026</ele>
        <time>2022-04-27T09:33:48.767Z</time>
      </trkpt>
      <trkpt lat="41.44619" lon="20.52594">
        <ele>707.81768</ele>
        <time>2022-04-27T09:33:56.750Z</time>
      </trkpt>
      <trkpt lat="41.44613" lon="20.52605">
        <ele>708.788006</ele>
        <time>2022-04-27T09:34:04.750Z</time>
      </trkpt>
      <trkpt lat="41.44608" lon="20.52617">
        <ele>709.727735</ele>
        <time>2022-04-27T09:34:11.745Z</time>
      </trkpt>
      <trkpt lat="41.44604" lon="20.52629">
        <ele>710.575202</ele>
        <time>2022-04-27T09:34:18.762Z</time>
      </trkpt>
      <trkpt lat="41.44602" lon="20.52641">
        <ele>711.410715</ele>
        <time>2022-04-27T09:34:26.752Z</time>
      </trkpt>
      <trkpt lat="41.44602" lon="20.52653">
        <ele>712.276067</ele>
        <time>2022-04-27T09:34:33.741Z</time>
      </trkpt>
      <trkpt lat="41.44603" lon="20.52667">
        <ele>713.189772</ele>
        <time>2022-04-27T09:34:40.743Z</time>
      </trkpt>
      <trkpt lat="41.44607" lon="20.52679">
        <ele>714.047746</ele>
        <time>2022-04-27T09:34:47.740Z</time>
      </trkpt>
      <trkpt lat="41.44612" lon="20.52689">
        <ele>714.892684</ele>
        <time>2022-04-27T09:34:54.753Z</time>
      </trkpt>
      <trkpt lat="41.44618" lon="20.52699">
        <ele>715.781194</ele>
        <time>2022-04-27T09:35:02.745Z</time>
      </trkpt>
      <trkpt lat="41.44627" lon="20.52705">
        <ele>716.69054</ele>
        <time>2022-04-27T09:35:09.751Z</time>
      </trkpt>
      <trkpt lat="41.44634" lon="20.52714">
        <ele>717.60278</ele>
        <time>2022-04-27T09:35:16.749Z</time>
      </trkpt>
      <trkpt lat="41.44642" lon="20.52722">
        <ele>718.51141</ele>
        <time>2022-04-27T09:35:24.749Z</time>
      </trkpt>
      <trkpt lat="41.44649" lon="20.5273">
        <ele>719.353542</ele>
        <time>2022-04-27T09:35:31.742Z</time>
      </trkpt>
      <trkpt lat="41.44656" lon="20.5274">
        <ele>720.234816</ele>
        <time>2022-04-27T09:35:38.749Z</time>
      </trkpt>
      <trkpt lat="41.44662" lon="20.52751">
        <ele>721.172458</ele>
        <time>2022-04-27T09:35:46.749Z</time>
      </trkpt>
      <trkpt lat="41.44667" lon="20.52761">
        <ele>722.023185</ele>
        <time>2022-04-27T09:35:53.740Z</time>
      </trkpt>
      <trkpt lat="41.44671" lon="20.52773">
        <ele>722.882405</ele>
        <time>2022-04-27T09:36:00.754Z</time>
      </trkpt>
      <trkpt lat="41.44675" lon="20.52785">
        <ele>723.788477</ele>
        <time>2022-04-27T09:36:08.749Z</time>
      </trkpt>
      <trkpt lat="41.44677" lon="20.52798">
        <ele>724.228333</ele>
        <time>2022-04-27T09:36:16.749Z</time>
      </trkpt>
      <trkpt lat="41.44677" lon="20.52811">
        <ele>724.583284</ele>
        <time>2022-04-27T09:36:24.771Z</time>
      </trkpt>
      <trkpt lat="41.44676" lon="20.52824">
        <ele>724.982325</ele>
        <time>2022-04-27T09:36:33.747Z</time>
      </trkpt>
      <trkpt lat="41.44673" lon="20.52836">
        <ele>725.356922</ele>
        <time>2022-04-27T09:36:42.744Z</time>
      </trkpt>
      <trkpt lat="41.44671" lon="20.52848">
        <ele>725.712628</ele>
        <time>2022-04-27T09:36:49.747Z</time>
      </trkpt>
      <trkpt lat="41.44668" lon="20.52861">
        <ele>726.106738</ele>
        <time>2022-04-27T09:36:56.752Z</time>
      </trkpt>
      <trkpt lat="41.44662" lon="20.52873">
        <ele>726.501964</ele>
        <time>2022-04-27T09:37:03.743Z</time>
      </trkpt>
      <trkpt lat="41.44656" lon="20.52882">
        <ele>726.856423</ele>
        <time>2022-04-27T09:37:10.757Z</time>
      </trkpt>
      <trkpt lat="41.44647" lon="20.52886">
        <ele>727.243068</ele>
        <time>2022-04-27T09:37:16.741Z</time>
      </trkpt>
      <trkpt lat="41.44639" lon="20.52893">
        <ele>727.603309</ele>
        <time>2022-04-27T09:37:22.757Z</time>
      </trkpt>
      <trkpt lat="41.44631" lon="20.52898">
        <ele>727.958233</ele>
        <time>2022-04-27T09:37:29.757Z</time>
      </trkpt>
      <trkpt lat="41.44621" lon="20.52903">
        <ele>728.354314</ele>
        <time>2022-04-27T09:37:36.746Z</time>
      </trkpt>
      <trkpt lat="41.44613" lon="20.52908">
        <ele>728.711433</ele>
        <time>2022-04-27T09:37:43.750Z</time>
      </trkpt>
      <trkpt lat="41.44604" lon="20.52915">
        <ele>729.110039</ele>
        <time>2022-04-27T09:37:51.740Z</time>
      </trkpt>
      <trkpt lat="41.44596" lon="20.52922">
        <ele>729.48469</ele>
        <time>2022-04-27T09:37:59.740Z</time>
      </trkpt>
      <trkpt lat="41.44588" lon="20.5293">
        <ele>729.868907</ele>
        <time>2022-04-27T09:38:07.757Z</time>
      </trkpt>
      <trkpt lat="41.44582" lon="20.5294">
        <ele>730.24268</ele>
        <time>2022-04-27T09:38:14.743Z</time>
      </trkpt>
      <trkpt lat="41.44575" lon="20.5295">
        <ele>730.631727</ele>
        <time>2022-04-27T09:38:21.766Z</time>
      </trkpt>
      <trkpt lat="41.44571" lon="20.5296">
        <ele>731.144953</ele>
        <time>2022-04-27T09:38:28.751Z</time>
      </trkpt>
      <trkpt lat="41.44565" lon="20.52971">
        <ele>731.936029</ele>
        <time>2022-04-27T09:38:36.749Z</time>
      </trkpt>
      <trkpt lat="41.44559" lon="20.5298">
        <ele>732.663104</ele>
        <time>2022-04-27T09:38:43.740Z</time>
      </trkpt>
      <trkpt lat="41.44551" lon="20.52987">
        <ele>733.405912</ele>
        <time>2022-04-27T09:38:49.740Z</time>
      </trkpt>
      <trkpt lat="41.44543" lon="20.52994">
        <ele>734.164821</ele>
        <time>2022-04-27T09:38:55.770Z</time>
      </trkpt>
      <trkpt lat="41.44533" lon="20.52999">
        <ele>734.970173</ele>
        <time>2022-04-27T09:39:02.752Z</time>
      </trkpt>
      <trkpt lat="41.44524" lon="20.53002">
        <ele>735.733443</ele>
        <time>2022-04-27T09:39:09.745Z</time>
      </trkpt>
      <trkpt lat="41.44514" lon="20.53001">
        <ele>736.499549</ele>
        <time>2022-04-27T09:39:16.752Z</time>
      </trkpt>
      <trkpt lat="41.44504" lon="20.53">
        <ele>737.303475</ele>
        <time>2022-04-27T09:39:22.740Z</time>
      </trkpt>
      <trkpt lat="41.44495" lon="20.52996">
        <ele>738.041433</ele>
        <time>2022-04-27T09:39:27.754Z</time>
      </trkpt>
      <trkpt lat="41.44486" lon="20.52992">
        <ele>738.85613</ele>
        <time>2022-04-27T09:39:33.752Z</time>
      </trkpt>
      <trkpt lat="41.44478" lon="20.52983">
        <ele>739.605958</ele>
        <time>2022-04-27T09:39:39.749Z</time>
      </trkpt>
      <trkpt lat="41.44473" lon="20.52973">
        <ele>740.369531</ele>
        <time>2022-04-27T09:39:45.776Z</time>
      </trkpt>
      <trkpt lat="41.44468" lon="20.52962">
        <ele>741.096679</ele>
        <time>2022-04-27T09:39:51.750Z</time>
      </trkpt>
      <trkpt lat="41.44463" lon="20.5295">
        <ele>741.931701</ele>
        <time>2022-04-27T09:39:59.752Z</time>
      </trkpt>
      <trkpt lat="41.4446" lon="20.52937">
        <ele>742.735948</ele>
        <time>2022-04-27T09:40:05.751Z</time>
      </trkpt>
      <trkpt lat="41.44458" lon="20.52925">
        <ele>743.463647</ele>
        <time>2022-04-27T09:40:11.748Z</time>
      </trkpt>
      <trkpt lat="41.44454" lon="20.52912">
        <ele>744.279177</ele>
        <time>2022-04-27T09:40:17.742Z</time>
      </trkpt>
      <trkpt lat="41.44448" lon="20.52903">
        <ele>745.014541</ele>
        <time>2022-04-27T09:40:23.751Z</time>
      </trkpt>
      <trkpt lat="41.44441" lon="20.52894">
        <ele>745.73676</ele>
        <time>2022-04-27T09:40:29.769Z</time>
      </trkpt>
      <trkpt lat="41.44432" lon="20.52888">
        <ele>746.55168</ele>
        <time>2022-04-27T09:40:35.770Z</time>
      </trkpt>
      <trkpt lat="41.44424" lon="20.5288">
        <ele>747.326766</ele>
        <time>2022-04-27T09:40:40.746Z</time>
      </trkpt>
      <trkpt lat="41.44414" lon="20.52876">
        <ele>748.155596</ele>
        <time>2022-04-27T09:40:46.743Z</time>
      </trkpt>
      <trkpt lat="41.44404" lon="20.52873">
        <ele>748.954659</ele>
        <time>2022-04-27T09:40:52.761Z</time>
      </trkpt>
      <trkpt lat="41.44394" lon="20.52871">
        <ele>749.67782</ele>
        <time>2022-04-27T09:40:57.745Z</time>
      </trkpt>
      <trkpt lat="41.44385" lon="20.52867">
        <ele>750.426618</ele>
        <time>2022-04-27T09:41:03.746Z</time>
      </trkpt>
      <trkpt lat="41.44376" lon="20.52866">
        <ele>751.161762</ele>
        <time>2022-04-27T09:41:09.744Z</time>
      </trkpt>
      <trkpt lat="41.44367" lon="20.52868">
        <ele>751.871237</ele>
        <time>2022-04-27T09:41:14.747Z</time>
      </trkpt>
      <trkpt lat="41.44358" lon="20.5287">
        <ele>752.611566</ele>
        <time>2022-04-27T09:41:20.752Z</time>
      </trkpt>
      <trkpt lat="41.44348" lon="20.52872">
        <ele>753.377665</ele>
        <time>2022-04-27T09:41:26.740Z</time>
      </trkpt>
      <trkpt lat="41.44339" lon="20.52876">
        <ele>754.086365</ele>
        <time>2022-04-27T09:41:33.741Z</time>
      </trkpt>
      <trkpt lat="41.44331" lon="20.52882">
        <ele>754.790687</ele>
        <time>2022-04-27T09:41:40.751Z</time>
      </trkpt>
      <trkpt lat="41.44324" lon="20.5289">
        <ele>755.538931</ele>
        <time>2022-04-27T09:41:48.741Z</time>
      </trkpt>
      <trkpt lat="41.44318" lon="20.52901">
        <ele>756.319826</ele>
        <time>2022-04-27T09:41:55.746Z</time>
      </trkpt>
      <trkpt lat="41.44313" lon="20.52911">
        <ele>757.072664</ele>
        <time>2022-04-27T09:42:01.739Z</time>
      </trkpt>
      <trkpt lat="41.44309" lon="20.52923">
        <ele>757.818845</ele>
        <time>2022-04-27T09:42:09.744Z</time>
      </trkpt>
      <trkpt lat="41.44305" lon="20.52935">
        <ele>758.552166</ele>
        <time>2022-04-27T09:42:15.742Z</time>
      </trkpt>
      <trkpt lat="41.44303" lon="20.52948">
        <ele>759.077126</ele>
        <time>2022-04-27T09:42:21.745Z</time>
      </trkpt>
      <trkpt lat="41.44301" lon="20.52962">
        <ele>759.133815</ele>
        <time>2022-04-27T09:42:27.741Z</time>
      </trkpt>
      <trkpt lat="41.44301" lon="20.52976">
        <ele>759.188677</ele>
        <time>2022-04-27T09:42:33.759Z</time>
      </trkpt>
      <trkpt lat="41.44302" lon="20.52989">
        <ele>759.240126</ele>
        <time>2022-04-27T09:42:39.746Z</time>
      </trkpt>
      <trkpt lat="41.44304" lon="20.53002">
        <ele>759.294539</ele>
        <time>2022-04-27T09:42:45.740Z</time>
      </trkpt>
      <trkpt lat="41.44305" lon="20.53015">
        <ele>759.343911</ele>
        <time>2022-04-27T09:42:50.763Z</time>
      </trkpt>
      <trkpt lat="41.44305" lon="20.53027">
        <ele>759.39162</ele>
        <time>2022-04-27T09:42:55.755Z</time>
      </trkpt>
      <trkpt lat="41.44302" lon="20.5304">
        <ele>759.448586</ele>
        <time>2022-04-27T09:43:01.744Z</time>
      </trkpt>
      <trkpt lat="41.44299" lon="20.53053">
        <ele>759.500918</ele>
        <time>2022-04-27T09:43:06.742Z</time>
      </trkpt>
      <trkpt lat="41.44295" lon="20.53066">
        <ele>759.558424</ele>
        <time>2022-04-27T09:43:12.748Z</time>
      </trkpt>
      <trkpt lat="41.44292" lon="20.53078">
        <ele>759.608111</ele>
        <time>2022-04-27T09:43:17.752Z</time>
      </trkpt>
      <trkpt lat="41.44288" lon="20.53092">
        <ele>759.665264</ele>
        <time>2022-04-27T09:43:23.735Z</time>
      </trkpt>
      <trkpt lat="41.44284" lon="20.53103">
        <ele>759.714983</ele>
        <time>2022-04-27T09:43:28.744Z</time>
      </trkpt>
      <trkpt lat="41.4428" lon="20.53114">
        <ele>759.764685</ele>
        <time>2022-04-27T09:43:34.755Z</time>
      </trkpt>
      <trkpt lat="41.44276" lon="20.53126">
        <ele>759.81638</ele>
        <time>2022-04-27T09:43:40.751Z</time>
      </trkpt>
      <trkpt lat="41.44271" lon="20.53137">
        <ele>759.868407</ele>
        <time>2022-04-27T09:43:46.739Z</time>
      </trkpt>
      <trkpt lat="41.44264" lon="20.53147">
        <ele>759.921583</ele>
        <time>2022-04-27T09:43:51.743Z</time>
      </trkpt>
      <trkpt lat="41.4426" lon="20.5316">
        <ele>759.975996</ele>
        <time>2022-04-27T09:43:57.745Z</time>
      </trkpt>
      <trkpt lat="41.44256" lon="20.53172">
        <ele>760.091853</ele>
        <time>2022-04-27T09:44:03.751Z</time>
      </trkpt>
      <trkpt lat="41.44253" lon="20.53185">
        <ele>760.322644</ele>
        <time>2022-04-27T09:44:09.762Z</time>
      </trkpt>
      <trkpt lat="41.4425" lon="20.53197">
        <ele>760.549128</ele>
        <time>2022-04-27T09:44:15.754Z</time>
      </trkpt>
      <trkpt lat="41.44248" lon="20.53209">
        <ele>760.756235</ele>
        <time>2022-04-27T09:44:20.746Z</time>
      </trkpt>
      <trkpt lat="41.44247" lon="20.53222">
        <ele>760.991095</ele>
        <time>2022-04-27T09:44:26.750Z</time>
      </trkpt>
      <trkpt lat="41.44246" lon="20.53235">
        <ele>761.213235</ele>
        <time>2022-04-27T09:44:31.751Z</time>
      </trkpt>
      <trkpt lat="41.44244" lon="20.53248">
        <ele>761.436017</ele>
        <time>2022-04-27T09:44:36.764Z</time>
      </trkpt>
      <trkpt lat="41.44243" lon="20.53261">
        <ele>761.661456</ele>
        <time>2022-04-27T09:44:41.745Z</time>
      </trkpt>
      <trkpt lat="41.44242" lon="20.53274">
        <ele>761.902755</ele>
        <time>2022-04-27T09:44:47.747Z</time>
      </trkpt>
      <trkpt lat="41.4424" lon="20.53289">
        <ele>762.150321</ele>
        <time>2022-04-27T09:44:53.745Z</time>
      </trkpt>
      <trkpt lat="41.44237" lon="20.53301">
        <ele>762.375676</ele>
        <time>2022-04-27T09:44:58.743Z</time>
      </trkpt>
      <trkpt lat="41.44235" lon="20.53313">
        <ele>762.583386</ele>
        <time>2022-04-27T09:45:03.743Z</time>
      </trkpt>
      <trkpt lat="41.44232" lon="20.53324">
        <ele>762.799996</ele>
        <time>2022-04-27T09:45:08.757Z</time>
      </trkpt>
      <trkpt lat="41.44228" lon="20.53336">
        <ele>763.015706</ele>
        <time>2022-04-27T09:45:13.746Z</time>
      </trkpt>
      <trkpt lat="41.44225" lon="20.53347">
        <ele>763.229738</ele>
        <time>2022-04-27T09:45:18.760Z</time>
      </trkpt>
      <trkpt lat="41.44221" lon="20.53358">
        <ele>763.438244</ele>
        <time>2022-04-27T09:45:23.740Z</time>
      </trkpt>
      <trkpt lat="41.44214" lon="20.53369">
        <ele>763.690808</ele>
        <time>2022-04-27T09:45:28.748Z</time>
      </trkpt>
      <trkpt lat="41.44208" lon="20.53379">
        <ele>763.91518</ele>
        <time>2022-04-27T09:45:33.740Z</time>
      </trkpt>
      <trkpt lat="41.44202" lon="20.5339">
        <ele>764.138158</ele>
        <time>2022-04-27T09:45:38.776Z</time>
      </trkpt>
      <trkpt lat="41.44196" lon="20.534">
        <ele>764.162786</ele>
        <time>2022-04-27T09:45:43.742Z</time>
      </trkpt>
      <trkpt lat="41.44189" lon="20.5341">
        <ele>764.162674</ele>
        <time>2022-04-27T09:45:48.742Z</time>
      </trkpt>
      <trkpt lat="41.44183" lon="20.5342">
        <ele>764.162562</ele>
        <time>2022-04-27T09:45:53.746Z</time>
      </trkpt>
      <trkpt lat="41.44175" lon="20.5343">
        <ele>764.162442</ele>
        <time>2022-04-27T09:45:57.742Z</time>
      </trkpt>
      <trkpt lat="41.44167" lon="20.53438">
        <ele>764.162335</ele>
        <time>2022-04-27T09:46:01.777Z</time>
      </trkpt>
      <trkpt lat="41.4416" lon="20.53447">
        <ele>764.162224</ele>
        <time>2022-04-27T09:46:05.754Z</time>
      </trkpt>
      <trkpt lat="41.44151" lon="20.53456">
        <ele>764.162104</ele>
        <time>2022-04-27T09:46:09.757Z</time>
      </trkpt>
      <trkpt lat="41.44145" lon="20.53468">
        <ele>764.161983</ele>
        <time>2022-04-27T09:46:14.741Z</time>
      </trkpt>
      <trkpt lat="41.44139" lon="20.53479">
        <ele>764.161872</ele>
        <time>2022-04-27T09:46:18.765Z</time>
      </trkpt>
      <trkpt lat="41.44133" lon="20.53488">
        <ele>764.161772</ele>
        <time>2022-04-27T09:46:21.747Z</time>
      </trkpt>
      <trkpt lat="41.44128" lon="20.535">
        <ele>764.161657</ele>
        <time>2022-04-27T09:46:24.754Z</time>
      </trkpt>
      <trkpt lat="41.44123" lon="20.53513">
        <ele>764.161535</ele>
        <time>2022-04-27T09:46:27.741Z</time>
      </trkpt>
      <trkpt lat="41.44119" lon="20.53528">
        <ele>764.161406</ele>
        <time>2022-04-27T09:46:30.751Z</time>
      </trkpt>
      <trkpt lat="41.44118" lon="20.53541">
        <ele>764.161301</ele>
        <time>2022-04-27T09:46:32.756Z</time>
      </trkpt>
      <trkpt lat="41.4412" lon="20.53556">
        <ele>764.161174</ele>
        <time>2022-04-27T09:46:34.768Z</time>
      </trkpt>
      <trkpt lat="41.44127" lon="20.53571">
        <ele>764.161028</ele>
        <time>2022-04-27T09:46:36.749Z</time>
      </trkpt>
      <trkpt lat="41.44134" lon="20.53583">
        <ele>764.160908</ele>
        <time>2022-04-27T09:46:38.763Z</time>
      </trkpt>
      <trkpt lat="41.44144" lon="20.53592">
        <ele>763.69793</ele>
        <time>2022-04-27T09:46:40.764Z</time>
      </trkpt>
      <trkpt lat="41.44155" lon="20.53602">
        <ele>763.11765</ele>
        <time>2022-04-27T09:46:42.746Z</time>
      </trkpt>
      <trkpt lat="41.44165" lon="20.53612">
        <ele>762.603944</ele>
        <time>2022-04-27T09:46:44.748Z</time>
      </trkpt>
      <trkpt lat="41.44172" lon="20.5362">
        <ele>762.195692</ele>
        <time>2022-04-27T09:46:46.750Z</time>
      </trkpt>
      <trkpt lat="41.44178" lon="20.5363">
        <ele>761.801336</ele>
        <time>2022-04-27T09:46:49.741Z</time>
      </trkpt>
      <trkpt lat="41.44187" lon="20.53636">
        <ele>761.406854</ele>
        <time>2022-04-27T09:46:52.752Z</time>
      </trkpt>
      <trkpt lat="41.44196" lon="20.53642">
        <ele>760.976845</ele>
        <time>2022-04-27T09:46:56.750Z</time>
      </trkpt>
      <trkpt lat="41.44213" lon="20.5368">
        <ele>759.578433</ele>
        <time>2022-04-27T09:48:53.747Z</time>
      </trkpt>
      <trkpt lat="41.44223" lon="20.53688">
        <ele>759.087145</ele>
        <time>2022-04-27T09:48:55.740Z</time>
      </trkpt>
      <trkpt lat="41.44234" lon="20.53696">
        <ele>758.568554</ele>
        <time>2022-04-27T09:48:57.747Z</time>
      </trkpt>
      <trkpt lat="41.44246" lon="20.53699">
        <ele>758.070207</ele>
        <time>2022-04-27T09:48:59.771Z</time>
      </trkpt>
      <trkpt lat="41.44259" lon="20.53699">
        <ele>757.536592</ele>
        <time>2022-04-27T09:49:01.748Z</time>
      </trkpt>
      <trkpt lat="41.44272" lon="20.53696">
        <ele>756.968095</ele>
        <time>2022-04-27T09:49:03.746Z</time>
      </trkpt>
      <trkpt lat="41.44285" lon="20.53694">
        <ele>756.220485</ele>
        <time>2022-04-27T09:49:05.771Z</time>
      </trkpt>
      <trkpt lat="41.44297" lon="20.53695">
        <ele>755.121442</ele>
        <time>2022-04-27T09:49:07.739Z</time>
      </trkpt>
      <trkpt lat="41.44308" lon="20.53697">
        <ele>754.044444</ele>
        <time>2022-04-27T09:49:09.745Z</time>
      </trkpt>
      <trkpt lat="41.44318" lon="20.53702">
        <ele>753.068212</ele>
        <time>2022-04-27T09:49:11.741Z</time>
      </trkpt>
      <trkpt lat="41.44328" lon="20.53708">
        <ele>752.058487</ele>
        <time>2022-04-27T09:49:13.750Z</time>
      </trkpt>
      <trkpt lat="41.44339" lon="20.53717">
        <ele>750.838219</ele>
        <time>2022-04-27T09:49:15.750Z</time>
      </trkpt>
      <trkpt lat="41.44348" lon="20.53731">
        <ele>749.534201</ele>
        <time>2022-04-27T09:49:17.743Z</time>
      </trkpt>
      <trkpt lat="41.44356" lon="20.53746">
        <ele>748.286534</ele>
        <time>2022-04-27T09:49:19.750Z</time>
      </trkpt>
      <trkpt lat="41.44366" lon="20.53762">
        <ele>746.832921</ele>
        <time>2022-04-27T09:49:21.749Z</time>
      </trkpt>
      <trkpt lat="41.44374" lon="20.5378">
        <ele>745.382926</ele>
        <time>2022-04-27T09:49:23.748Z</time>
      </trkpt>
      <trkpt lat="41.44377" lon="20.53799">
        <ele>743.974111</ele>
        <time>2022-04-27T09:49:25.743Z</time>
      </trkpt>
      <trkpt lat="41.44381" lon="20.53819">
        <ele>742.574437</ele>
        <time>2022-04-27T09:49:27.739Z</time>
      </trkpt>
      <trkpt lat="41.44385" lon="20.53839">
        <ele>741.09575</ele>
        <time>2022-04-27T09:49:29.747Z</time>
      </trkpt>
      <trkpt lat="41.44389" lon="20.53861">
        <ele>739.527814</ele>
        <time>2022-04-27T09:49:31.740Z</time>
      </trkpt>
      <trkpt lat="41.44392" lon="20.53882">
        <ele>738.08666</ele>
        <time>2022-04-27T09:49:33.776Z</time>
      </trkpt>
      <trkpt lat="41.44393" lon="20.53905">
        <ele>736.567689</ele>
        <time>2022-04-27T09:49:35.745Z</time>
      </trkpt>
      <trkpt lat="41.44394" lon="20.53926">
        <ele>735.139116</ele>
        <time>2022-04-27T09:49:37.744Z</time>
      </trkpt>
      <trkpt lat="41.44394" lon="20.53946">
        <ele>733.786342</ele>
        <time>2022-04-27T09:49:39.751Z</time>
      </trkpt>
      <trkpt lat="41.44394" lon="20.53966">
        <ele>732.440061</ele>
        <time>2022-04-27T09:49:41.739Z</time>
      </trkpt>
      <trkpt lat="41.44392" lon="20.53986">
        <ele>731.059426</ele>
        <time>2022-04-27T09:49:43.746Z</time>
      </trkpt>
      <trkpt lat="41.44388" lon="20.54007">
        <ele>729.589325</ele>
        <time>2022-04-27T09:49:45.741Z</time>
      </trkpt>
      <trkpt lat="41.44382" lon="20.54027">
        <ele>728.097726</ele>
        <time>2022-04-27T09:49:47.746Z</time>
      </trkpt>
      <trkpt lat="41.44375" lon="20.54049">
        <ele>726.51358</ele>
        <time>2022-04-27T09:49:49.735Z</time>
      </trkpt>
      <trkpt lat="41.44368" lon="20.5407">
        <ele>724.97608</ele>
        <time>2022-04-27T09:49:51.753Z</time>
      </trkpt>
      <trkpt lat="41.44362" lon="20.5409">
        <ele>723.546946</ele>
        <time>2022-04-27T09:49:53.741Z</time>
      </trkpt>
      <trkpt lat="41.44355" lon="20.5411">
        <ele>722.571471</ele>
        <time>2022-04-27T09:49:55.782Z</time>
      </trkpt>
      <trkpt lat="41.44348" lon="20.54132">
        <ele>721.543867</ele>
        <time>2022-04-27T09:49:57.742Z</time>
      </trkpt>
      <trkpt lat="41.4434" lon="20.54153">
        <ele>720.53317</ele>
        <time>2022-04-27T09:49:59.741Z</time>
      </trkpt>
      <trkpt lat="41.44331" lon="20.54173">
        <ele>719.537995</ele>
        <time>2022-04-27T09:50:01.776Z</time>
      </trkpt>
      <trkpt lat="41.44326" lon="20.54183">
        <ele>719.001113</ele>
        <time>2022-04-27T09:50:02.740Z</time>
      </trkpt>
      <trkpt lat="41.44321" lon="20.54194">
        <ele>718.460987</ele>
        <time>2022-04-27T09:50:03.751Z</time>
      </trkpt>
      <trkpt lat="41.44312" lon="20.54212">
        <ele>717.523523</ele>
        <time>2022-04-27T09:50:05.745Z</time>
      </trkpt>
      <trkpt lat="41.44304" lon="20.54229">
        <ele>716.664029</ele>
        <time>2022-04-27T09:50:07.743Z</time>
      </trkpt>
      <trkpt lat="41.44296" lon="20.54244">
        <ele>715.857252</ele>
        <time>2022-04-27T09:50:09.738Z</time>
      </trkpt>
      <trkpt lat="41.44288" lon="20.5426">
        <ele>715.022861</ele>
        <time>2022-04-27T09:50:11.739Z</time>
      </trkpt>
      <trkpt lat="41.44283" lon="20.54278">
        <ele>714.198472</ele>
        <time>2022-04-27T09:50:13.756Z</time>
      </trkpt>
      <trkpt lat="41.44279" lon="20.54294">
        <ele>713.46126</ele>
        <time>2022-04-27T09:50:15.741Z</time>
      </trkpt>
      <trkpt lat="41.44278" lon="20.54308">
        <ele>713.5435</ele>
        <time>2022-04-27T09:50:17.750Z</time>
      </trkpt>
      <trkpt lat="41.44278" lon="20.54321">
        <ele>713.980896</ele>
        <time>2022-04-27T09:50:19.742Z</time>
      </trkpt>
      <trkpt lat="41.44281" lon="20.54335">
        <ele>714.47913</ele>
        <time>2022-04-27T09:50:21.746Z</time>
      </trkpt>
      <trkpt lat="41.44282" lon="20.54351">
        <ele>715.00076</ele>
        <time>2022-04-27T09:50:23.773Z</time>
      </trkpt>
      <trkpt lat="41.44283" lon="20.54364">
        <ele>715.444092</ele>
        <time>2022-04-27T09:50:25.747Z</time>
      </trkpt>
      <trkpt lat="41.44288" lon="20.54376">
        <ele>715.873984</ele>
        <time>2022-04-27T09:50:27.745Z</time>
      </trkpt>
      <trkpt lat="41.44292" lon="20.54388">
        <ele>716.313613</ele>
        <time>2022-04-27T09:50:29.766Z</time>
      </trkpt>
      <trkpt lat="41.44298" lon="20.54399">
        <ele>716.771409</ele>
        <time>2022-04-27T09:50:31.746Z</time>
      </trkpt>
      <trkpt lat="41.44305" lon="20.54407">
        <ele>717.189857</ele>
        <time>2022-04-27T09:50:33.744Z</time>
      </trkpt>
      <trkpt lat="41.44314" lon="20.54417">
        <ele>717.661085</ele>
        <time>2022-04-27T09:50:36.761Z</time>
      </trkpt>
      <trkpt lat="41.44323" lon="20.54425">
        <ele>718.165512</ele>
        <time>2022-04-27T09:50:39.744Z</time>
      </trkpt>
      <trkpt lat="41.44332" lon="20.54432">
        <ele>718.637988</ele>
        <time>2022-04-27T09:50:42.749Z</time>
      </trkpt>
      <trkpt lat="41.4434" lon="20.54439">
        <ele>719.041594</ele>
        <time>2022-04-27T09:50:45.742Z</time>
      </trkpt>
      <trkpt lat="41.44349" lon="20.54448">
        <ele>719.531429</ele>
        <time>2022-04-27T09:50:49.745Z</time>
      </trkpt>
      <trkpt lat="41.44357" lon="20.54457">
        <ele>720.013652</ele>
        <time>2022-04-27T09:50:54.746Z</time>
      </trkpt>
      <trkpt lat="41.44365" lon="20.54466">
        <ele>720.458587</ele>
        <time>2022-04-27T09:50:59.737Z</time>
      </trkpt>
      <trkpt lat="41.44373" lon="20.54475">
        <ele>720.915571</ele>
        <time>2022-04-27T09:51:04.738Z</time>
      </trkpt>
      <trkpt lat="41.44377" lon="20.54486">
        <ele>721.574649</ele>
        <time>2022-04-27T09:51:09.748Z</time>
      </trkpt>
      <trkpt lat="41.44381" lon="20.54497">
        <ele>722.617193</ele>
        <time>2022-04-27T09:51:14.762Z</time>
      </trkpt>
      <trkpt lat="41.44388" lon="20.54506">
        <ele>723.745244</ele>
        <time>2022-04-27T09:51:19.740Z</time>
      </trkpt>
      <trkpt lat="41.44394" lon="20.54517">
        <ele>724.914831</ele>
        <time>2022-04-27T09:51:25.743Z</time>
      </trkpt>
      <trkpt lat="41.444" lon="20.54528">
        <ele>726.132688</ele>
        <time>2022-04-27T09:51:31.740Z</time>
      </trkpt>
      <trkpt lat="41.44406" lon="20.54541">
        <ele>727.370776</ele>
        <time>2022-04-27T09:51:37.747Z</time>
      </trkpt>
      <trkpt lat="41.44414" lon="20.54547">
        <ele>728.510709</ele>
        <time>2022-04-27T09:51:41.744Z</time>
      </trkpt>
      <trkpt lat="41.44421" lon="20.54557">
        <ele>729.63247</ele>
        <time>2022-04-27T09:51:46.775Z</time>
      </trkpt>
      <trkpt lat="41.44429" lon="20.54566">
        <ele>730.840377</ele>
        <time>2022-04-27T09:51:52.742Z</time>
      </trkpt>
      <trkpt lat="41.44436" lon="20.54573">
        <ele>731.926876</ele>
        <time>2022-04-27T09:51:57.769Z</time>
      </trkpt>
      <trkpt lat="41.44444" lon="20.54581">
        <ele>733.055439</ele>
        <time>2022-04-27T09:52:03.784Z</time>
      </trkpt>
      <trkpt lat="41.44452" lon="20.54588">
        <ele>734.150954</ele>
        <time>2022-04-27T09:52:08.754Z</time>
      </trkpt>
      <trkpt lat="41.4446" lon="20.54597">
        <ele>735.363697</ele>
        <time>2022-04-27T09:52:14.768Z</time>
      </trkpt>
      <trkpt lat="41.44468" lon="20.54605">
        <ele>736.547441</ele>
        <time>2022-04-27T09:52:20.753Z</time>
      </trkpt>
      <trkpt lat="41.44476" lon="20.54614">
        <ele>737.697546</ele>
        <time>2022-04-27T09:52:26.747Z</time>
      </trkpt>
      <trkpt lat="41.44483" lon="20.54623">
        <ele>738.825435</ele>
        <time>2022-04-27T09:52:32.742Z</time>
      </trkpt>
      <trkpt lat="41.44489" lon="20.54632">
        <ele>739.994696</ele>
        <time>2022-04-27T09:52:38.739Z</time>
      </trkpt>
      <trkpt lat="41.44496" lon="20.54642">
        <ele>741.126488</ele>
        <time>2022-04-27T09:52:43.743Z</time>
      </trkpt>
      <trkpt lat="41.44504" lon="20.54652">
        <ele>741.912034</ele>
        <time>2022-04-27T09:52:49.751Z</time>
      </trkpt>
      <trkpt lat="41.44509" lon="20.54664">
        <ele>741.369021</ele>
        <time>2022-04-27T09:52:55.746Z</time>
      </trkpt>
      <trkpt lat="41.44514" lon="20.54676">
        <ele>740.807383</ele>
        <time>2022-04-27T09:53:01.741Z</time>
      </trkpt>
      <trkpt lat="41.44518" lon="20.54687">
        <ele>740.331668</ele>
        <time>2022-04-27T09:53:06.746Z</time>
      </trkpt>
      <trkpt lat="41.44521" lon="20.547">
        <ele>739.763605</ele>
        <time>2022-04-27T09:53:12.765Z</time>
      </trkpt>
      <trkpt lat="41.44524" lon="20.54713">
        <ele>739.24445</ele>
        <time>2022-04-27T09:53:17.740Z</time>
      </trkpt>
      <trkpt lat="41.44525" lon="20.54728">
        <ele>738.640414</ele>
        <time>2022-04-27T09:53:22.756Z</time>
      </trkpt>
      <trkpt lat="41.44526" lon="20.54741">
        <ele>738.131477</ele>
        <time>2022-04-27T09:53:26.755Z</time>
      </trkpt>
      <trkpt lat="41.44525" lon="20.54754">
        <ele>737.611169</ele>
        <time>2022-04-27T09:53:30.749Z</time>
      </trkpt>
      <trkpt lat="41.44524" lon="20.54769">
        <ele>737.016751</ele>
        <time>2022-04-27T09:53:34.746Z</time>
      </trkpt>
      <trkpt lat="41.44523" lon="20.54783">
        <ele>736.442351</ele>
        <time>2022-04-27T09:53:38.741Z</time>
      </trkpt>
      <trkpt lat="41.4452" lon="20.54797">
        <ele>735.867361</ele>
        <time>2022-04-27T09:53:42.753Z</time>
      </trkpt>
      <trkpt lat="41.44516" lon="20.54808">
        <ele>735.375136</ele>
        <time>2022-04-27T09:53:45.740Z</time>
      </trkpt>
      <trkpt lat="41.4451" lon="20.54821">
        <ele>734.782126</ele>
        <time>2022-04-27T09:53:48.770Z</time>
      </trkpt>
      <trkpt lat="41.44502" lon="20.54836">
        <ele>734.048461</ele>
        <time>2022-04-27T09:53:51.747Z</time>
      </trkpt>
      <trkpt lat="41.44498" lon="20.54848">
        <ele>733.531399</ele>
        <time>2022-04-27T09:53:53.744Z</time>
      </trkpt>
      <trkpt lat="41.44493" lon="20.54863">
        <ele>732.888124</ele>
        <time>2022-04-27T09:53:56.742Z</time>
      </trkpt>
      <trkpt lat="41.44491" lon="20.54878">
        <ele>732.172965</ele>
        <time>2022-04-27T09:53:59.770Z</time>
      </trkpt>
      <trkpt lat="41.44487" lon="20.54895">
        <ele>731.190005</ele>
        <time>2022-04-27T09:54:02.753Z</time>
      </trkpt>
      <trkpt lat="41.44485" lon="20.54908">
        <ele>730.480385</ele>
        <time>2022-04-27T09:54:04.751Z</time>
      </trkpt>
      <trkpt lat="41.44483" lon="20.54923">
        <ele>729.627127</ele>
        <time>2022-04-27T09:54:06.745Z</time>
      </trkpt>
      <trkpt lat="41.4448" lon="20.54938">
        <ele>728.761406</ele>
        <time>2022-04-27T09:54:08.754Z</time>
      </trkpt>
      <trkpt lat="41.44477" lon="20.54951">
        <ele>728.010334</ele>
        <time>2022-04-27T09:54:10.744Z</time>
      </trkpt>
      <trkpt lat="41.44473" lon="20.54962">
        <ele>727.304388</ele>
        <time>2022-04-27T09:54:12.749Z</time>
      </trkpt>
      <trkpt lat="41.44469" lon="20.54975">
        <ele>726.53583</ele>
        <time>2022-04-27T09:54:14.749Z</time>
      </trkpt>
      <trkpt lat="41.44464" lon="20.54986">
        <ele>725.783158</ele>
        <time>2022-04-27T09:54:16.746Z</time>
      </trkpt>
      <trkpt lat="41.44457" lon="20.54998">
        <ele>724.956514</ele>
        <time>2022-04-27T09:54:18.747Z</time>
      </trkpt>
      <trkpt lat="41.44449" lon="20.5501">
        <ele>724.08779</ele>
        <time>2022-04-27T09:54:20.745Z</time>
      </trkpt>
      <trkpt lat="41.44439" lon="20.55022">
        <ele>723.130018</ele>
        <time>2022-04-27T09:54:22.740Z</time>
      </trkpt>
      <trkpt lat="41.4443" lon="20.55034">
        <ele>722.146273</ele>
        <time>2022-04-27T09:54:24.750Z</time>
      </trkpt>
      <trkpt lat="41.44421" lon="20.55045">
        <ele>721.256729</ele>
        <time>2022-04-27T09:54:26.752Z</time>
      </trkpt>
      <trkpt lat="41.44412" lon="20.55055">
        <ele>720.359994</ele>
        <time>2022-04-27T09:54:28.754Z</time>
      </trkpt>
      <trkpt lat="41.44403" lon="20.55065">
        <ele>719.495882</ele>
        <time>2022-04-27T09:54:30.750Z</time>
      </trkpt>
      <trkpt lat="41.44395" lon="20.55075">
        <ele>718.890104</ele>
        <time>2022-04-27T09:54:32.740Z</time>
      </trkpt>
      <trkpt lat="41.44387" lon="20.55086">
        <ele>718.366322</ele>
        <time>2022-04-27T09:54:34.749Z</time>
      </trkpt>
      <trkpt lat="41.4438" lon="20.55097">
        <ele>717.885742</ele>
        <time>2022-04-27T09:54:36.741Z</time>
      </trkpt>
      <trkpt lat="41.44374" lon="20.55108">
        <ele>717.416776</ele>
        <time>2022-04-27T09:54:38.757Z</time>
      </trkpt>
      <trkpt lat="41.44368" lon="20.55119">
        <ele>716.957702</ele>
        <time>2022-04-27T09:54:40.755Z</time>
      </trkpt>
      <trkpt lat="41.44363" lon="20.55131">
        <ele>716.493614</ele>
        <time>2022-04-27T09:54:42.776Z</time>
      </trkpt>
      <trkpt lat="41.44357" lon="20.55142">
        <ele>716.032048</ele>
        <time>2022-04-27T09:54:44.747Z</time>
      </trkpt>
      <trkpt lat="41.4435" lon="20.55153">
        <ele>715.534006</ele>
        <time>2022-04-27T09:54:46.743Z</time>
      </trkpt>
      <trkpt lat="41.44339" lon="20.55163">
        <ele>714.954955</ele>
        <time>2022-04-27T09:54:48.749Z</time>
      </trkpt>
      <trkpt lat="41.44326" lon="20.5517">
        <ele>714.312492</ele>
        <time>2022-04-27T09:54:50.792Z</time>
      </trkpt>
      <trkpt lat="41.44312" lon="20.55174">
        <ele>713.665661</ele>
        <time>2022-04-27T09:54:52.755Z</time>
      </trkpt>
      <trkpt lat="41.44297" lon="20.55173">
        <ele>712.951496</ele>
        <time>2022-04-27T09:54:54.744Z</time>
      </trkpt>
      <trkpt lat="41.44283" lon="20.55167">
        <ele>712.301173</ele>
        <time>2022-04-27T09:54:56.767Z</time>
      </trkpt>
      <trkpt lat="41.44272" lon="20.55156">
        <ele>711.66931</ele>
        <time>2022-04-27T09:54:58.749Z</time>
      </trkpt>
      <trkpt lat="41.44264" lon="20.55143">
        <ele>711.110393</ele>
        <time>2022-04-27T09:55:00.761Z</time>
      </trkpt>
      <trkpt lat="41.44258" lon="20.5513">
        <ele>711.038986</ele>
        <time>2022-04-27T09:55:02.780Z</time>
      </trkpt>
      <trkpt lat="41.44254" lon="20.55117">
        <ele>711.026766</ele>
        <time>2022-04-27T09:55:04.749Z</time>
      </trkpt>
      <trkpt lat="41.4425" lon="20.55104">
        <ele>711.014945</ele>
        <time>2022-04-27T09:55:06.760Z</time>
      </trkpt>
      <trkpt lat="41.44246" lon="20.5509">
        <ele>711.002509</ele>
        <time>2022-04-27T09:55:08.740Z</time>
      </trkpt>
      <trkpt lat="41.44239" lon="20.55078">
        <ele>710.989862</ele>
        <time>2022-04-27T09:55:10.743Z</time>
      </trkpt>
      <trkpt lat="41.44232" lon="20.55067">
        <ele>710.977193</ele>
        <time>2022-04-27T09:55:12.749Z</time>
      </trkpt>
      <trkpt lat="41.44224" lon="20.55056">
        <ele>710.964778</ele>
        <time>2022-04-27T09:55:14.744Z</time>
      </trkpt>
      <trkpt lat="41.44214" lon="20.55046">
        <ele>710.950535</ele>
        <time>2022-04-27T09:55:16.753Z</time>
      </trkpt>
      <trkpt lat="41.442" lon="20.55039">
        <ele>710.934117</ele>
        <time>2022-04-27T09:55:18.737Z</time>
      </trkpt>
      <trkpt lat="41.44188" lon="20.55033">
        <ele>710.918837</ele>
        <time>2022-04-27T09:55:20.745Z</time>
      </trkpt>
      <trkpt lat="41.44175" lon="20.55028">
        <ele>710.903611</ele>
        <time>2022-04-27T09:55:22.752Z</time>
      </trkpt>
      <trkpt lat="41.44161" lon="20.55024">
        <ele>710.888293</ele>
        <time>2022-04-27T09:55:24.741Z</time>
      </trkpt>
      <trkpt lat="41.4415" lon="20.55026">
        <ele>710.87542</ele>
        <time>2022-04-27T09:55:26.741Z</time>
      </trkpt>
      <trkpt lat="41.44141" lon="20.5503">
        <ele>710.864535</ele>
        <time>2022-04-27T09:55:28.750Z</time>
      </trkpt>
      <trkpt lat="41.44132" lon="20.55037">
        <ele>710.852688</ele>
        <time>2022-04-27T09:55:30.739Z</time>
      </trkpt>
      <trkpt lat="41.44123" lon="20.55045">
        <ele>710.920474</ele>
        <time>2022-04-27T09:55:32.753Z</time>
      </trkpt>
      <trkpt lat="41.44116" lon="20.55055">
        <ele>711.033927</ele>
        <time>2022-04-27T09:55:34.751Z</time>
      </trkpt>
      <trkpt lat="41.44111" lon="20.55065">
        <ele>711.137428</ele>
        <time>2022-04-27T09:55:36.746Z</time>
      </trkpt>
      <trkpt lat="41.44107" lon="20.55077">
        <ele>711.244989</ele>
        <time>2022-04-27T09:55:38.743Z</time>
      </trkpt>
      <trkpt lat="41.44105" lon="20.55093">
        <ele>711.385792</ele>
        <time>2022-04-27T09:55:41.748Z</time>
      </trkpt>
      <trkpt lat="41.44104" lon="20.55105">
        <ele>711.490204</ele>
        <time>2022-04-27T09:55:44.749Z</time>
      </trkpt>
      <trkpt lat="41.44104" lon="20.5512">
        <ele>711.619568</ele>
        <time>2022-04-27T09:55:48.760Z</time>
      </trkpt>
      <trkpt lat="41.44103" lon="20.55135">
        <ele>711.74708</ele>
        <time>2022-04-27T09:55:52.747Z</time>
      </trkpt>
      <trkpt lat="41.44101" lon="20.5515">
        <ele>711.874261</ele>
        <time>2022-04-27T09:55:56.747Z</time>
      </trkpt>
      <trkpt lat="41.44097" lon="20.55164">
        <ele>711.995815</ele>
        <time>2022-04-27T09:56:00.743Z</time>
      </trkpt>
      <trkpt lat="41.44094" lon="20.55176">
        <ele>712.10394</ele>
        <time>2022-04-27T09:56:04.748Z</time>
      </trkpt>
      <trkpt lat="41.4409" lon="20.55189">
        <ele>712.227609</ele>
        <time>2022-04-27T09:56:09.747Z</time>
      </trkpt>
      <trkpt lat="41.44085" lon="20.552">
        <ele>712.337068</ele>
        <time>2022-04-27T09:56:14.766Z</time>
      </trkpt>
      <trkpt lat="41.44082" lon="20.55212">
        <ele>712.439959</ele>
        <time>2022-04-27T09:56:19.738Z</time>
      </trkpt>
      <trkpt lat="41.44074" lon="20.55219">
        <ele>712.553425</ele>
        <time>2022-04-27T09:56:26.745Z</time>
      </trkpt>
      <trkpt lat="41.44065" lon="20.55223">
        <ele>712.658112</ele>
        <time>2022-04-27T09:56:31.747Z</time>
      </trkpt>
      <trkpt lat="41.44056" lon="20.55226">
        <ele>712.76266</ele>
        <time>2022-04-27T09:56:37.746Z</time>
      </trkpt>
      <trkpt lat="41.44047" lon="20.55229">
        <ele>712.867066</ele>
        <time>2022-04-27T09:56:42.767Z</time>
      </trkpt>
      <trkpt lat="41.44038" lon="20.55233">
        <ele>713.057668</ele>
        <time>2022-04-27T09:56:47.743Z</time>
      </trkpt>
      <trkpt lat="41.4403" lon="20.5524">
        <ele>713.269328</ele>
        <time>2022-04-27T09:56:54.744Z</time>
      </trkpt>
      <trkpt lat="41.44022" lon="20.55246">
        <ele>713.4746</ele>
        <time>2022-04-27T09:57:01.749Z</time>
      </trkpt>
      <trkpt lat="41.44013" lon="20.55252">
        <ele>713.704324</ele>
        <time>2022-04-27T09:57:08.748Z</time>
      </trkpt>
      <trkpt lat="41.44003" lon="20.55255">
        <ele>713.909643</ele>
        <time>2022-04-27T09:57:13.777Z</time>
      </trkpt>
      <trkpt lat="41.43993" lon="20.55258">
        <ele>714.142196</ele>
        <time>2022-04-27T09:57:19.741Z</time>
      </trkpt>
      <trkpt lat="41.43984" lon="20.55262">
        <ele>714.35033</ele>
        <time>2022-04-27T09:57:25.747Z</time>
      </trkpt>
      <trkpt lat="41.43974" lon="20.55263">
        <ele>714.571321</ele>
        <time>2022-04-27T09:57:32.779Z</time>
      </trkpt>
      <trkpt lat="41.43964" lon="20.55264">
        <ele>714.79646</ele>
        <time>2022-04-27T09:57:38.744Z</time>
      </trkpt>
      <trkpt lat="41.43954" lon="20.55266">
        <ele>715.011277</ele>
        <time>2022-04-27T09:57:44.749Z</time>
      </trkpt>
      <trkpt lat="41.43944" lon="20.55266">
        <ele>715.238133</ele>
        <time>2022-04-27T09:57:51.742Z</time>
      </trkpt>
      <trkpt lat="41.43935" lon="20.55267">
        <ele>715.439104</ele>
        <time>2022-04-27T09:57:56.743Z</time>
      </trkpt>
      <trkpt lat="41.43926" lon="20.5527">
        <ele>715.636657</ele>
        <time>2022-04-27T09:58:01.748Z</time>
      </trkpt>
      <trkpt lat="41.43916" lon="20.55274">
        <ele>715.871165</ele>
        <time>2022-04-27T09:58:07.748Z</time>
      </trkpt>
      <trkpt lat="41.43906" lon="20.55278">
        <ele>716.098901</ele>
        <time>2022-04-27T09:58:12.738Z</time>
      </trkpt>
      <trkpt lat="41.43898" lon="20.55282">
        <ele>716.300606</ele>
        <time>2022-04-27T09:58:16.744Z</time>
      </trkpt>
      <trkpt lat="41.43888" lon="20.55287">
        <ele>716.523195</ele>
        <time>2022-04-27T09:58:20.744Z</time>
      </trkpt>
      <trkpt lat="41.43879" lon="20.55291">
        <ele>716.734307</ele>
        <time>2022-04-27T09:58:23.741Z</time>
      </trkpt>
      <trkpt lat="41.43869" lon="20.55296">
        <ele>716.511829</ele>
        <time>2022-04-27T09:58:26.749Z</time>
      </trkpt>
      <trkpt lat="41.43857" lon="20.55303">
        <ele>715.785673</ele>
        <time>2022-04-27T09:58:29.745Z</time>
      </trkpt>
      <trkpt lat="41.43848" lon="20.5531">
        <ele>715.211075</ele>
        <time>2022-04-27T09:58:31.757Z</time>
      </trkpt>
      <trkpt lat="41.43839" lon="20.55317">
        <ele>714.578281</ele>
        <time>2022-04-27T09:58:33.771Z</time>
      </trkpt>
      <trkpt lat="41.43829" lon="20.55325">
        <ele>713.951376</ele>
        <time>2022-04-27T09:58:35.749Z</time>
      </trkpt>
      <trkpt lat="41.4382" lon="20.55333">
        <ele>713.33152</ele>
        <time>2022-04-27T09:58:37.743Z</time>
      </trkpt>
      <trkpt lat="41.4381" lon="20.55341">
        <ele>712.69303</ele>
        <time>2022-04-27T09:58:39.741Z</time>
      </trkpt>
      <trkpt lat="41.43801" lon="20.55349">
        <ele>712.0358</ele>
        <time>2022-04-27T09:58:41.745Z</time>
      </trkpt>
      <trkpt lat="41.4379" lon="20.55358">
        <ele>711.354727</ele>
        <time>2022-04-27T09:58:43.738Z</time>
      </trkpt>
      <trkpt lat="41.43781" lon="20.55367">
        <ele>710.68533</ele>
        <time>2022-04-27T09:58:45.748Z</time>
      </trkpt>
      <trkpt lat="41.43771" lon="20.55377">
        <ele>709.978062</ele>
        <time>2022-04-27T09:58:47.743Z</time>
      </trkpt>
      <trkpt lat="41.43761" lon="20.55389">
        <ele>709.220531</ele>
        <time>2022-04-27T09:58:49.739Z</time>
      </trkpt>
      <trkpt lat="41.4375" lon="20.55401">
        <ele>708.406621</ele>
        <time>2022-04-27T09:58:51.747Z</time>
      </trkpt>
      <trkpt lat="41.4374" lon="20.55415">
        <ele>707.572904</ele>
        <time>2022-04-27T09:58:53.746Z</time>
      </trkpt>
      <trkpt lat="41.43731" lon="20.55429">
        <ele>706.811053</ele>
        <time>2022-04-27T09:58:55.767Z</time>
      </trkpt>
      <trkpt lat="41.43722" lon="20.55444">
        <ele>705.610168</ele>
        <time>2022-04-27T09:58:57.749Z</time>
      </trkpt>
      <trkpt lat="41.43712" lon="20.55459">
        <ele>704.291358</ele>
        <time>2022-04-27T09:58:59.739Z</time>
      </trkpt>
      <trkpt lat="41.43703" lon="20.55473">
        <ele>702.982123</ele>
        <time>2022-04-27T09:59:01.747Z</time>
      </trkpt>
      <trkpt lat="41.43695" lon="20.55488">
        <ele>701.768247</ele>
        <time>2022-04-27T09:59:03.744Z</time>
      </trkpt>
      <trkpt lat="41.43687" lon="20.55502">
        <ele>700.591891</ele>
        <time>2022-04-27T09:59:05.738Z</time>
      </trkpt>
      <trkpt lat="41.43678" lon="20.55518">
        <ele>699.242558</ele>
        <time>2022-04-27T09:59:07.751Z</time>
      </trkpt>
      <trkpt lat="41.43669" lon="20.55535">
        <ele>697.779324</ele>
        <time>2022-04-27T09:59:09.740Z</time>
      </trkpt>
      <trkpt lat="41.4366" lon="20.55553">
        <ele>696.306953</ele>
        <time>2022-04-27T09:59:11.750Z</time>
      </trkpt>
      <trkpt lat="41.43652" lon="20.55572">
        <ele>694.896087</ele>
        <time>2022-04-27T09:59:13.743Z</time>
      </trkpt>
      <trkpt lat="41.43646" lon="20.55588">
        <ele>693.625272</ele>
        <time>2022-04-27T09:59:15.748Z</time>
      </trkpt>
      <trkpt lat="41.43639" lon="20.55605">
        <ele>692.330572</ele>
        <time>2022-04-27T09:59:17.743Z</time>
      </trkpt>
      <trkpt lat="41.43631" lon="20.55622">
        <ele>690.962325</ele>
        <time>2022-04-27T09:59:19.751Z</time>
      </trkpt>
      <trkpt lat="41.43621" lon="20.55638">
        <ele>689.568378</ele>
        <time>2022-04-27T09:59:21.741Z</time>
      </trkpt>
      <trkpt lat="41.4361" lon="20.55654">
        <ele>688.124912</ele>
        <time>2022-04-27T09:59:23.776Z</time>
      </trkpt>
      <trkpt lat="41.43597" lon="20.5567">
        <ele>686.592805</ele>
        <time>2022-04-27T09:59:25.747Z</time>
      </trkpt>
      <trkpt lat="41.43585" lon="20.55683">
        <ele>685.150012</ele>
        <time>2022-04-27T09:59:27.751Z</time>
      </trkpt>
      <trkpt lat="41.43572" lon="20.55696">
        <ele>683.758368</ele>
        <time>2022-04-27T09:59:29.749Z</time>
      </trkpt>
      <trkpt lat="41.4356" lon="20.55707">
        <ele>682.432932</ele>
        <time>2022-04-27T09:59:31.743Z</time>
      </trkpt>
      <trkpt lat="41.43546" lon="20.55718">
        <ele>681.063572</ele>
        <time>2022-04-27T09:59:33.741Z</time>
      </trkpt>
      <trkpt lat="41.43533" lon="20.55726">
        <ele>679.756775</ele>
        <time>2022-04-27T09:59:35.743Z</time>
      </trkpt>
      <trkpt lat="41.43519" lon="20.55734">
        <ele>678.410156</ele>
        <time>2022-04-27T09:59:37.746Z</time>
      </trkpt>
      <trkpt lat="41.43504" lon="20.55741">
        <ele>677.00584</ele>
        <time>2022-04-27T09:59:39.780Z</time>
      </trkpt>
      <trkpt lat="41.43489" lon="20.55747">
        <ele>675.58556</ele>
        <time>2022-04-27T09:59:41.753Z</time>
      </trkpt>
      <trkpt lat="41.43472" lon="20.55751">
        <ele>674.173963</ele>
        <time>2022-04-27T09:59:43.742Z</time>
      </trkpt>
      <trkpt lat="41.43455" lon="20.55755">
        <ele>673.098879</ele>
        <time>2022-04-27T09:59:45.743Z</time>
      </trkpt>
      <trkpt lat="41.43438" lon="20.5576">
        <ele>672.01277</ele>
        <time>2022-04-27T09:59:47.742Z</time>
      </trkpt>
      <trkpt lat="41.43421" lon="20.55763">
        <ele>670.937686</ele>
        <time>2022-04-27T09:59:49.767Z</time>
      </trkpt>
      <trkpt lat="41.43405" lon="20.55767">
        <ele>669.929003</ele>
        <time>2022-04-27T09:59:51.764Z</time>
      </trkpt>
      <trkpt lat="41.4339" lon="20.55772">
        <ele>668.971463</ele>
        <time>2022-04-27T09:59:53.746Z</time>
      </trkpt>
      <trkpt lat="41.43375" lon="20.55777">
        <ele>668.053486</ele>
        <time>2022-04-27T09:59:55.744Z</time>
      </trkpt>
      <trkpt lat="41.43362" lon="20.55782">
        <ele>667.173496</ele>
        <time>2022-04-27T09:59:57.743Z</time>
      </trkpt>
      <trkpt lat="41.43347" lon="20.55788">
        <ele>666.227765</ele>
        <time>2022-04-27T09:59:59.743Z</time>
      </trkpt>
      <trkpt lat="41.43332" lon="20.55795">
        <ele>665.239396</ele>
        <time>2022-04-27T10:00:01.747Z</time>
      </trkpt>
      <trkpt lat="41.43317" lon="20.55802">
        <ele>664.22455</ele>
        <time>2022-04-27T10:00:03.738Z</time>
      </trkpt>
      <trkpt lat="41.43301" lon="20.5581">
        <ele>663.148544</ele>
        <time>2022-04-27T10:00:05.774Z</time>
      </trkpt>
      <trkpt lat="41.43285" lon="20.55818">
        <ele>661.697042</ele>
        <time>2022-04-27T10:00:07.745Z</time>
      </trkpt>
      <trkpt lat="41.4327" lon="20.55827">
        <ele>660.3023</ele>
        <time>2022-04-27T10:00:09.751Z</time>
      </trkpt>
      <trkpt lat="41.43255" lon="20.55837">
        <ele>658.903784</ele>
        <time>2022-04-27T10:00:11.739Z</time>
      </trkpt>
      <trkpt lat="41.43241" lon="20.55848">
        <ele>657.506459</ele>
        <time>2022-04-27T10:00:13.761Z</time>
      </trkpt>
      <trkpt lat="41.43228" lon="20.55861">
        <ele>656.096189</ele>
        <time>2022-04-27T10:00:15.751Z</time>
      </trkpt>
      <trkpt lat="41.43215" lon="20.55875">
        <ele>654.674217</ele>
        <time>2022-04-27T10:00:17.746Z</time>
      </trkpt>
      <trkpt lat="41.43202" lon="20.5589">
        <ele>653.275539</ele>
        <time>2022-04-27T10:00:19.743Z</time>
      </trkpt>
      <trkpt lat="41.43191" lon="20.55906">
        <ele>651.865158</ele>
        <time>2022-04-27T10:00:21.745Z</time>
      </trkpt>
      <trkpt lat="41.43179" lon="20.55921">
        <ele>650.488271</ele>
        <time>2022-04-27T10:00:23.748Z</time>
      </trkpt>
      <trkpt lat="41.43169" lon="20.55935">
        <ele>649.235821</ele>
        <time>2022-04-27T10:00:25.741Z</time>
      </trkpt>
      <trkpt lat="41.43159" lon="20.5595">
        <ele>648.00144</ele>
        <time>2022-04-27T10:00:27.767Z</time>
      </trkpt>
      <trkpt lat="41.43151" lon="20.55966">
        <ele>647.020269</ele>
        <time>2022-04-27T10:00:29.749Z</time>
      </trkpt>
      <trkpt lat="41.43143" lon="20.55983">
        <ele>645.99293</ele>
        <time>2022-04-27T10:00:31.741Z</time>
      </trkpt>
      <trkpt lat="41.43136" lon="20.56">
        <ele>645.00333</ele>
        <time>2022-04-27T10:00:33.740Z</time>
      </trkpt>
      <trkpt lat="41.43131" lon="20.56019">
        <ele>643.967987</ele>
        <time>2022-04-27T10:00:35.748Z</time>
      </trkpt>
      <trkpt lat="41.43125" lon="20.56038">
        <ele>642.897085</ele>
        <time>2022-04-27T10:00:37.743Z</time>
      </trkpt>
      <trkpt lat="41.4312" lon="20.56057">
        <ele>641.895326</ele>
        <time>2022-04-27T10:00:39.748Z</time>
      </trkpt>
      <trkpt lat="41.43115" lon="20.56075">
        <ele>640.914984</ele>
        <time>2022-04-27T10:00:41.743Z</time>
      </trkpt>
      <trkpt lat="41.43107" lon="20.56092">
        <ele>639.897198</ele>
        <time>2022-04-27T10:00:43.749Z</time>
      </trkpt>
      <trkpt lat="41.43096" lon="20.56108">
        <ele>638.807843</ele>
        <time>2022-04-27T10:00:45.738Z</time>
      </trkpt>
      <trkpt lat="41.43082" lon="20.5612">
        <ele>637.63423</ele>
        <time>2022-04-27T10:00:47.740Z</time>
      </trkpt>
      <trkpt lat="41.43067" lon="20.56128">
        <ele>636.552882</ele>
        <time>2022-04-27T10:00:49.770Z</time>
      </trkpt>
      <trkpt lat="41.43052" lon="20.56132">
        <ele>635.669234</ele>
        <time>2022-04-27T10:00:51.742Z</time>
      </trkpt>
      <trkpt lat="41.43037" lon="20.56134">
        <ele>635.108523</ele>
        <time>2022-04-27T10:00:53.743Z</time>
      </trkpt>
      <trkpt lat="41.43022" lon="20.56135">
        <ele>634.556839</ele>
        <time>2022-04-27T10:00:55.770Z</time>
      </trkpt>
      <trkpt lat="41.43008" lon="20.56135">
        <ele>634.010067</ele>
        <time>2022-04-27T10:00:57.738Z</time>
      </trkpt>
      <trkpt lat="41.42992" lon="20.56135">
        <ele>633.429819</ele>
        <time>2022-04-27T10:00:59.744Z</time>
      </trkpt>
      <trkpt lat="41.42975" lon="20.56134">
        <ele>632.797277</ele>
        <time>2022-04-27T10:01:01.738Z</time>
      </trkpt>
      <trkpt lat="41.42957" lon="20.56133">
        <ele>632.112314</ele>
        <time>2022-04-27T10:01:03.743Z</time>
      </trkpt>
      <trkpt lat="41.42947" lon="20.56133">
        <ele>631.769833</ele>
        <time>2022-04-27T10:01:04.753Z</time>
      </trkpt>
      <trkpt lat="41.42938" lon="20.56133">
        <ele>631.431252</ele>
        <time>2022-04-27T10:01:05.741Z</time>
      </trkpt>
      <trkpt lat="41.42921" lon="20.56132">
        <ele>630.780237</ele>
        <time>2022-04-27T10:01:07.741Z</time>
      </trkpt>
      <trkpt lat="41.42903" lon="20.56132">
        <ele>630.099511</ele>
        <time>2022-04-27T10:01:09.746Z</time>
      </trkpt>
      <trkpt lat="41.42893" lon="20.56132">
        <ele>629.753549</ele>
        <time>2022-04-27T10:01:10.749Z</time>
      </trkpt>
      <trkpt lat="41.42884" lon="20.56131">
        <ele>629.407587</ele>
        <time>2022-04-27T10:01:11.743Z</time>
      </trkpt>
      <trkpt lat="41.42875" lon="20.56131">
        <ele>629.07947</ele>
        <time>2022-04-27T10:01:12.753Z</time>
      </trkpt>
      <trkpt lat="41.42866" lon="20.56131">
        <ele>628.810338</ele>
        <time>2022-04-27T10:01:13.740Z</time>
      </trkpt>
      <trkpt lat="41.42856" lon="20.5613">
        <ele>628.54413</ele>
        <time>2022-04-27T10:01:14.749Z</time>
      </trkpt>
      <trkpt lat="41.4284" lon="20.56129">
        <ele>628.063535</ele>
        <time>2022-04-27T10:01:16.743Z</time>
      </trkpt>
      <trkpt lat="41.42825" lon="20.56129">
        <ele>627.621934</ele>
        <time>2022-04-27T10:01:18.747Z</time>
      </trkpt>
      <trkpt lat="41.42811" lon="20.56129">
        <ele>627.20081</ele>
        <time>2022-04-27T10:01:20.762Z</time>
      </trkpt>
      <trkpt lat="41.42796" lon="20.56129">
        <ele>626.785511</ele>
        <time>2022-04-27T10:01:22.748Z</time>
      </trkpt>
      <trkpt lat="41.42783" lon="20.56129">
        <ele>626.402349</ele>
        <time>2022-04-27T10:01:24.739Z</time>
      </trkpt>
      <trkpt lat="41.42771" lon="20.56131">
        <ele>626.033901</ele>
        <time>2022-04-27T10:01:26.753Z</time>
      </trkpt>
      <trkpt lat="41.42759" lon="20.56136">
        <ele>625.689639</ele>
        <time>2022-04-27T10:01:28.765Z</time>
      </trkpt>
      <trkpt lat="41.42749" lon="20.56143">
        <ele>625.332527</ele>
        <time>2022-04-27T10:01:30.753Z</time>
      </trkpt>
      <trkpt lat="41.42739" lon="20.56152">
        <ele>624.985736</ele>
        <time>2022-04-27T10:01:32.744Z</time>
      </trkpt>
      <trkpt lat="41.4273" lon="20.56162">
        <ele>624.647634</ele>
        <time>2022-04-27T10:01:34.748Z</time>
      </trkpt>
      <trkpt lat="41.42721" lon="20.56172">
        <ele>624.302321</ele>
        <time>2022-04-27T10:01:36.746Z</time>
      </trkpt>
      <trkpt lat="41.42713" lon="20.56183">
        <ele>623.967501</ele>
        <time>2022-04-27T10:01:38.736Z</time>
      </trkpt>
      <trkpt lat="41.42707" lon="20.56195">
        <ele>623.722226</ele>
        <time>2022-04-27T10:01:40.746Z</time>
      </trkpt>
      <trkpt lat="41.42702" lon="20.56207">
        <ele>623.507949</ele>
        <time>2022-04-27T10:01:42.759Z</time>
      </trkpt>
      <trkpt lat="41.42696" lon="20.5622">
        <ele>623.287733</ele>
        <time>2022-04-27T10:01:44.739Z</time>
      </trkpt>
      <trkpt lat="41.4269" lon="20.56233">
        <ele>623.062255</ele>
        <time>2022-04-27T10:01:46.751Z</time>
      </trkpt>
      <trkpt lat="41.42685" lon="20.56246">
        <ele>622.83542</ele>
        <time>2022-04-27T10:01:48.749Z</time>
      </trkpt>
      <trkpt lat="41.42678" lon="20.56257">
        <ele>622.61447</ele>
        <time>2022-04-27T10:01:50.742Z</time>
      </trkpt>
      <trkpt lat="41.42671" lon="20.56268">
        <ele>622.412598</ele>
        <time>2022-04-27T10:01:52.750Z</time>
      </trkpt>
      <trkpt lat="41.42664" lon="20.56277">
        <ele>622.213475</ele>
        <time>2022-04-27T10:01:54.752Z</time>
      </trkpt>
      <trkpt lat="41.42657" lon="20.56286">
        <ele>622.021176</ele>
        <time>2022-04-27T10:01:56.746Z</time>
      </trkpt>
      <trkpt lat="41.42649" lon="20.56294">
        <ele>621.815306</ele>
        <time>2022-04-27T10:01:58.742Z</time>
      </trkpt>
      <trkpt lat="41.42641" lon="20.56302">
        <ele>621.616472</ele>
        <time>2022-04-27T10:02:00.758Z</time>
      </trkpt>
      <trkpt lat="41.42632" lon="20.56308">
        <ele>621.421264</ele>
        <time>2022-04-27T10:02:02.765Z</time>
      </trkpt>
      <trkpt lat="41.42623" lon="20.56314">
        <ele>621.217198</ele>
        <time>2022-04-27T10:02:04.741Z</time>
      </trkpt>
      <trkpt lat="41.42614" lon="20.56318">
        <ele>621.020705</ele>
        <time>2022-04-27T10:02:06.763Z</time>
      </trkpt>
      <trkpt lat="41.42604" lon="20.56322">
        <ele>620.822919</ele>
        <time>2022-04-27T10:02:08.765Z</time>
      </trkpt>
      <trkpt lat="41.42595" lon="20.56327">
        <ele>620.619754</ele>
        <time>2022-04-27T10:02:10.741Z</time>
      </trkpt>
      <trkpt lat="41.42585" lon="20.56332">
        <ele>620.420325</ele>
        <time>2022-04-27T10:02:12.754Z</time>
      </trkpt>
      <trkpt lat="41.42577" lon="20.56336">
        <ele>620.282977</ele>
        <time>2022-04-27T10:02:14.740Z</time>
      </trkpt>
      <trkpt lat="41.42568" lon="20.56341">
        <ele>620.326519</ele>
        <time>2022-04-27T10:02:16.741Z</time>
      </trkpt>
      <trkpt lat="41.42558" lon="20.56346">
        <ele>620.370415</ele>
        <time>2022-04-27T10:02:18.748Z</time>
      </trkpt>
      <trkpt lat="41.42549" lon="20.56351">
        <ele>620.415632</ele>
        <time>2022-04-27T10:02:20.757Z</time>
      </trkpt>
      <trkpt lat="41.4254" lon="20.56357">
        <ele>620.460165</ele>
        <time>2022-04-27T10:02:22.761Z</time>
      </trkpt>
      <trkpt lat="41.42531" lon="20.56362">
        <ele>620.503526</ele>
        <time>2022-04-27T10:02:24.751Z</time>
      </trkpt>
      <trkpt lat="41.42523" lon="20.56367">
        <ele>620.544266</ele>
        <time>2022-04-27T10:02:26.754Z</time>
      </trkpt>
      <trkpt lat="41.42514" lon="20.56371">
        <ele>620.585691</ele>
        <time>2022-04-27T10:02:28.739Z</time>
      </trkpt>
      <trkpt lat="41.42505" lon="20.56376">
        <ele>620.627378</ele>
        <time>2022-04-27T10:02:30.760Z</time>
      </trkpt>
      <trkpt lat="41.42497" lon="20.56381">
        <ele>620.668524</ele>
        <time>2022-04-27T10:02:32.747Z</time>
      </trkpt>
      <trkpt lat="41.42488" lon="20.56386">
        <ele>620.710771</ele>
        <time>2022-04-27T10:02:34.769Z</time>
      </trkpt>
      <trkpt lat="41.42479" lon="20.56391">
        <ele>620.754667</ele>
        <time>2022-04-27T10:02:36.753Z</time>
      </trkpt>
      <trkpt lat="41.4247" lon="20.56396">
        <ele>620.798687</ele>
        <time>2022-04-27T10:02:38.747Z</time>
      </trkpt>
      <trkpt lat="41.42461" lon="20.56401">
        <ele>620.841049</ele>
        <time>2022-04-27T10:02:40.743Z</time>
      </trkpt>
      <trkpt lat="41.42453" lon="20.56407">
        <ele>620.881446</ele>
        <time>2022-04-27T10:02:42.738Z</time>
      </trkpt>
      <trkpt lat="41.42445" lon="20.56414">
        <ele>620.923814</ele>
        <time>2022-04-27T10:02:44.744Z</time>
      </trkpt>
      <trkpt lat="41.42438" lon="20.56422">
        <ele>620.966348</ele>
        <time>2022-04-27T10:02:46.754Z</time>
      </trkpt>
      <trkpt lat="41.4243" lon="20.56429">
        <ele>621.007771</ele>
        <time>2022-04-27T10:02:48.774Z</time>
      </trkpt>
      <trkpt lat="41.42423" lon="20.56437">
        <ele>621.048573</ele>
        <time>2022-04-27T10:02:50.784Z</time>
      </trkpt>
      <trkpt lat="41.42415" lon="20.56444">
        <ele>621.121776</ele>
        <time>2022-04-27T10:02:52.779Z</time>
      </trkpt>
      <trkpt lat="41.42408" lon="20.5645">
        <ele>621.254691</ele>
        <time>2022-04-27T10:02:54.776Z</time>
      </trkpt>
      <trkpt lat="41.424" lon="20.56456">
        <ele>621.387602</ele>
        <time>2022-04-27T10:02:56.794Z</time>
      </trkpt>
      <trkpt lat="41.42391" lon="20.56462">
        <ele>621.529869</ele>
        <time>2022-04-27T10:02:58.802Z</time>
      </trkpt>
      <trkpt lat="41.42378" lon="20.56467">
        <ele>621.717417</ele>
        <time>2022-04-27T10:03:01.761Z</time>
      </trkpt>
      <trkpt lat="41.42367" lon="20.56473">
        <ele>621.891318</ele>
        <time>2022-04-27T10:03:04.753Z</time>
      </trkpt>
      <trkpt lat="41.42356" lon="20.56476">
        <ele>622.063498</ele>
        <time>2022-04-27T10:03:07.783Z</time>
      </trkpt>
      <trkpt lat="41.42344" lon="20.56479">
        <ele>622.226615</ele>
        <time>2022-04-27T10:03:10.797Z</time>
      </trkpt>
      <trkpt lat="41.42332" lon="20.56482">
        <ele>622.403968</ele>
        <time>2022-04-27T10:03:13.768Z</time>
      </trkpt>
      <trkpt lat="41.42321" lon="20.56485">
        <ele>622.577238</ele>
        <time>2022-04-27T10:03:16.778Z</time>
      </trkpt>
      <trkpt lat="41.42309" lon="20.56488">
        <ele>622.744086</ele>
        <time>2022-04-27T10:03:19.781Z</time>
      </trkpt>
      <trkpt lat="41.42297" lon="20.56491">
        <ele>622.922419</ele>
        <time>2022-04-27T10:03:22.768Z</time>
      </trkpt>
      <trkpt lat="41.42286" lon="20.56494">
        <ele>623.093039</ele>
        <time>2022-04-27T10:03:25.764Z</time>
      </trkpt>
      <trkpt lat="41.42274" lon="20.56497">
        <ele>623.261237</ele>
        <time>2022-04-27T10:03:28.762Z</time>
      </trkpt>
      <trkpt lat="41.42263" lon="20.565">
        <ele>623.426827</ele>
        <time>2022-04-27T10:03:31.775Z</time>
      </trkpt>
      <trkpt lat="41.42252" lon="20.56504">
        <ele>623.591975</ele>
        <time>2022-04-27T10:03:34.773Z</time>
      </trkpt>
      <trkpt lat="41.42241" lon="20.56508">
        <ele>623.867309</ele>
        <time>2022-04-27T10:03:37.778Z</time>
      </trkpt>
      <trkpt lat="41.42232" lon="20.56512">
        <ele>624.185802</ele>
        <time>2022-04-27T10:03:40.766Z</time>
      </trkpt>
      <trkpt lat="41.42222" lon="20.5652">
        <ele>624.583403</ele>
        <time>2022-04-27T10:03:44.784Z</time>
      </trkpt>
      <trkpt lat="41.42215" lon="20.56528">
        <ele>624.91718</ele>
        <time>2022-04-27T10:03:47.768Z</time>
      </trkpt>
      <trkpt lat="41.42205" lon="20.56535">
        <ele>625.310065</ele>
        <time>2022-04-27T10:03:50.782Z</time>
      </trkpt>
      <trkpt lat="41.42195" lon="20.56542">
        <ele>625.689595</ele>
        <time>2022-04-27T10:03:53.773Z</time>
      </trkpt>
      <trkpt lat="41.42184" lon="20.56548">
        <ele>626.087695</ele>
        <time>2022-04-27T10:03:56.778Z</time>
      </trkpt>
      <trkpt lat="41.42175" lon="20.56554">
        <ele>626.447051</ele>
        <time>2022-04-27T10:03:59.769Z</time>
      </trkpt>
      <trkpt lat="41.42164" lon="20.56559">
        <ele>626.824502</ele>
        <time>2022-04-27T10:04:02.764Z</time>
      </trkpt>
      <trkpt lat="41.42154" lon="20.56566">
        <ele>627.218446</ele>
        <time>2022-04-27T10:04:05.763Z</time>
      </trkpt>
      <trkpt lat="41.42145" lon="20.56571">
        <ele>627.575768</ele>
        <time>2022-04-27T10:04:08.780Z</time>
      </trkpt>
      <trkpt lat="41.42135" lon="20.56578">
        <ele>627.950852</ele>
        <time>2022-04-27T10:04:11.813Z</time>
      </trkpt>
      <trkpt lat="41.42126" lon="20.56585">
        <ele>628.295602</ele>
        <time>2022-04-27T10:04:14.771Z</time>
      </trkpt>
      <trkpt lat="41.42118" lon="20.56592">
        <ele>628.654732</ele>
        <time>2022-04-27T10:04:17.765Z</time>
      </trkpt>
      <trkpt lat="41.4211" lon="20.56601">
        <ele>628.997465</ele>
        <time>2022-04-27T10:04:20.772Z</time>
      </trkpt>
      <trkpt lat="41.42105" lon="20.56613">
        <ele>629.351428</ele>
        <time>2022-04-27T10:04:23.766Z</time>
      </trkpt>
      <trkpt lat="41.42099" lon="20.56625">
        <ele>629.714584</ele>
        <time>2022-04-27T10:04:26.775Z</time>
      </trkpt>
      <trkpt lat="41.42094" lon="20.56638">
        <ele>629.635162</ele>
        <time>2022-04-27T10:04:29.768Z</time>
      </trkpt>
      <trkpt lat="41.42088" lon="20.56651">
        <ele>629.255814</ele>
        <time>2022-04-27T10:04:32.754Z</time>
      </trkpt>
      <trkpt lat="41.4208" lon="20.56664">
        <ele>628.843042</ele>
        <time>2022-04-27T10:04:35.770Z</time>
      </trkpt>
      <trkpt lat="41.4207" lon="20.56677">
        <ele>628.406328</ele>
        <time>2022-04-27T10:04:38.765Z</time>
      </trkpt>
      <trkpt lat="41.42064" lon="20.56685">
        <ele>628.109774</ele>
        <time>2022-04-27T10:04:40.770Z</time>
      </trkpt>
      <trkpt lat="41.42055" lon="20.56696">
        <ele>627.694752</ele>
        <time>2022-04-27T10:04:43.769Z</time>
      </trkpt>
      <trkpt lat="41.42045" lon="20.56707">
        <ele>627.282376</ele>
        <time>2022-04-27T10:04:46.778Z</time>
      </trkpt>
      <trkpt lat="41.42036" lon="20.56717">
        <ele>626.899688</ele>
        <time>2022-04-27T10:04:49.756Z</time>
      </trkpt>
      <trkpt lat="41.42028" lon="20.56726">
        <ele>626.565467</ele>
        <time>2022-04-27T10:04:52.773Z</time>
      </trkpt>
      <trkpt lat="41.42021" lon="20.56735">
        <ele>626.224681</ele>
        <time>2022-04-27T10:04:55.822Z</time>
      </trkpt>
      <trkpt lat="41.42013" lon="20.56744">
        <ele>625.873212</ele>
        <time>2022-04-27T10:04:58.757Z</time>
      </trkpt>
      <trkpt lat="41.42006" lon="20.56755">
        <ele>625.54147</ele>
        <time>2022-04-27T10:05:01.753Z</time>
      </trkpt>
      <trkpt lat="41.41999" lon="20.56765">
        <ele>625.183899</ele>
        <time>2022-04-27T10:05:04.824Z</time>
      </trkpt>
      <trkpt lat="41.41992" lon="20.56777">
        <ele>624.828685</ele>
        <time>2022-04-27T10:05:07.774Z</time>
      </trkpt>
      <trkpt lat="41.41986" lon="20.56789">
        <ele>624.465454</ele>
        <time>2022-04-27T10:05:10.762Z</time>
      </trkpt>
      <trkpt lat="41.4198" lon="20.56801">
        <ele>624.113101</ele>
        <time>2022-04-27T10:05:13.779Z</time>
      </trkpt>
      <trkpt lat="41.41974" lon="20.56813">
        <ele>623.857505</ele>
        <time>2022-04-27T10:05:16.822Z</time>
      </trkpt>
      <trkpt lat="41.41967" lon="20.56823">
        <ele>623.695429</ele>
        <time>2022-04-27T10:05:19.764Z</time>
      </trkpt>
      <trkpt lat="41.41962" lon="20.56835">
        <ele>623.534811</ele>
        <time>2022-04-27T10:05:22.781Z</time>
      </trkpt>
      <trkpt lat="41.41955" lon="20.56848">
        <ele>623.344843</ele>
        <time>2022-04-27T10:05:25.762Z</time>
      </trkpt>
      <trkpt lat="41.41946" lon="20.5686">
        <ele>623.147778</ele>
        <time>2022-04-27T10:05:28.771Z</time>
      </trkpt>
      <trkpt lat="41.41938" lon="20.56872">
        <ele>622.962015</ele>
        <time>2022-04-27T10:05:31.774Z</time>
      </trkpt>
      <trkpt lat="41.4193" lon="20.56883">
        <ele>622.781218</ele>
        <time>2022-04-27T10:05:34.764Z</time>
      </trkpt>
      <trkpt lat="41.41921" lon="20.56892">
        <ele>622.613042</ele>
        <time>2022-04-27T10:05:37.767Z</time>
      </trkpt>
      <trkpt lat="41.41912" lon="20.56902">
        <ele>622.420656</ele>
        <time>2022-04-27T10:05:40.769Z</time>
      </trkpt>
      <trkpt lat="41.41904" lon="20.5691">
        <ele>622.269355</ele>
        <time>2022-04-27T10:05:42.760Z</time>
      </trkpt>
      <trkpt lat="41.41894" lon="20.5692">
        <ele>622.071408</ele>
        <time>2022-04-27T10:05:45.806Z</time>
      </trkpt>
      <trkpt lat="41.41884" lon="20.5693">
        <ele>621.877362</ele>
        <time>2022-04-27T10:05:48.752Z</time>
      </trkpt>
      <trkpt lat="41.41874" lon="20.5694">
        <ele>621.69277</ele>
        <time>2022-04-27T10:05:51.763Z</time>
      </trkpt>
      <trkpt lat="41.41865" lon="20.56949">
        <ele>621.513488</ele>
        <time>2022-04-27T10:05:54.779Z</time>
      </trkpt>
      <trkpt lat="41.41855" lon="20.56958">
        <ele>621.323334</ele>
        <time>2022-04-27T10:05:57.768Z</time>
      </trkpt>
      <trkpt lat="41.41846" lon="20.56967">
        <ele>621.14296</ele>
        <time>2022-04-27T10:06:00.774Z</time>
      </trkpt>
      <trkpt lat="41.41836" lon="20.56975">
        <ele>620.835395</ele>
        <time>2022-04-27T10:06:03.765Z</time>
      </trkpt>
      <trkpt lat="41.41826" lon="20.56983">
        <ele>620.528379</ele>
        <time>2022-04-27T10:06:06.755Z</time>
      </trkpt>
      <trkpt lat="41.41816" lon="20.56992">
        <ele>620.222475</ele>
        <time>2022-04-27T10:06:09.765Z</time>
      </trkpt>
      <trkpt lat="41.41807" lon="20.57001">
        <ele>619.931701</ele>
        <time>2022-04-27T10:06:12.778Z</time>
      </trkpt>
      <trkpt lat="41.41797" lon="20.5701">
        <ele>619.623518</ele>
        <time>2022-04-27T10:06:15.770Z</time>
      </trkpt>
      <trkpt lat="41.41788" lon="20.57019">
        <ele>619.317569</ele>
        <time>2022-04-27T10:06:18.761Z</time>
      </trkpt>
      <trkpt lat="41.41779" lon="20.57029">
        <ele>619.010385</ele>
        <time>2022-04-27T10:06:21.773Z</time>
      </trkpt>
      <trkpt lat="41.41771" lon="20.5704">
        <ele>618.700147</ele>
        <time>2022-04-27T10:06:24.784Z</time>
      </trkpt>
      <trkpt lat="41.41764" lon="20.57051">
        <ele>618.422836</ele>
        <time>2022-04-27T10:06:27.770Z</time>
      </trkpt>
      <trkpt lat="41.41756" lon="20.57064">
        <ele>618.085266</ele>
        <time>2022-04-27T10:06:30.756Z</time>
      </trkpt>
      <trkpt lat="41.41749" lon="20.57078">
        <ele>617.760619</ele>
        <time>2022-04-27T10:06:33.772Z</time>
      </trkpt>
      <trkpt lat="41.41742" lon="20.57092">
        <ele>617.414838</ele>
        <time>2022-04-27T10:06:36.769Z</time>
      </trkpt>
      <trkpt lat="41.41734" lon="20.57107">
        <ele>617.06597</ele>
        <time>2022-04-27T10:06:39.760Z</time>
      </trkpt>
      <trkpt lat="41.41727" lon="20.57122">
        <ele>616.713804</ele>
        <time>2022-04-27T10:06:42.779Z</time>
      </trkpt>
      <trkpt lat="41.41722" lon="20.57133">
        <ele>616.46126</ele>
        <time>2022-04-27T10:06:44.781Z</time>
      </trkpt>
      <trkpt lat="41.41715" lon="20.57147">
        <ele>616.033228</ele>
        <time>2022-04-27T10:06:47.804Z</time>
      </trkpt>
      <trkpt lat="41.41708" lon="20.57162">
        <ele>615.571427</ele>
        <time>2022-04-27T10:06:50.777Z</time>
      </trkpt>
      <trkpt lat="41.41702" lon="20.57173">
        <ele>615.247089</ele>
        <time>2022-04-27T10:06:52.771Z</time>
      </trkpt>
      <trkpt lat="41.41695" lon="20.57187">
        <ele>614.80914</ele>
        <time>2022-04-27T10:06:55.750Z</time>
      </trkpt>
      <trkpt lat="41.41688" lon="20.57195">
        <ele>614.478064</ele>
        <time>2022-04-27T10:06:57.831Z</time>
      </trkpt>
      <trkpt lat="41.41682" lon="20.57204">
        <ele>614.161123</ele>
        <time>2022-04-27T10:06:59.763Z</time>
      </trkpt>
      <trkpt lat="41.41675" lon="20.57213">
        <ele>613.836255</ele>
        <time>2022-04-27T10:07:01.770Z</time>
      </trkpt>
      <trkpt lat="41.41667" lon="20.57222">
        <ele>613.494155</ele>
        <time>2022-04-27T10:07:03.768Z</time>
      </trkpt>
      <trkpt lat="41.4166" lon="20.5723">
        <ele>613.151126</ele>
        <time>2022-04-27T10:07:05.766Z</time>
      </trkpt>
      <trkpt lat="41.41652" lon="20.57239">
        <ele>612.815006</ele>
        <time>2022-04-27T10:07:07.768Z</time>
      </trkpt>
      <trkpt lat="41.41645" lon="20.57247">
        <ele>612.488184</ele>
        <time>2022-04-27T10:07:09.765Z</time>
      </trkpt>
      <trkpt lat="41.41638" lon="20.57255">
        <ele>612.175897</ele>
        <time>2022-04-27T10:07:11.762Z</time>
      </trkpt>
      <trkpt lat="41.41627" lon="20.57266">
        <ele>611.71407</ele>
        <time>2022-04-27T10:07:14.757Z</time>
      </trkpt>
      <trkpt lat="41.41618" lon="20.57276">
        <ele>611.287821</ele>
        <time>2022-04-27T10:07:17.763Z</time>
      </trkpt>
      <trkpt lat="41.41607" lon="20.57286">
        <ele>610.845266</ele>
        <time>2022-04-27T10:07:20.790Z</time>
      </trkpt>
      <trkpt lat="41.41596" lon="20.57296">
        <ele>610.394112</ele>
        <time>2022-04-27T10:07:23.781Z</time>
      </trkpt>
      <trkpt lat="41.41585" lon="20.57304">
        <ele>610.533741</ele>
        <time>2022-04-27T10:07:26.769Z</time>
      </trkpt>
      <trkpt lat="41.41574" lon="20.57312">
        <ele>611.039169</ele>
        <time>2022-04-27T10:07:29.753Z</time>
      </trkpt>
      <trkpt lat="41.41562" lon="20.57321">
        <ele>611.545982</ele>
        <time>2022-04-27T10:07:32.754Z</time>
      </trkpt>
      <trkpt lat="41.41552" lon="20.57329">
        <ele>612.022755</ele>
        <time>2022-04-27T10:07:35.740Z</time>
      </trkpt>
      <trkpt lat="41.41541" lon="20.57334">
        <ele>612.478899</ele>
        <time>2022-04-27T10:07:38.749Z</time>
      </trkpt>
      <trkpt lat="41.4153" lon="20.5734">
        <ele>612.93359</ele>
        <time>2022-04-27T10:07:41.745Z</time>
      </trkpt>
      <trkpt lat="41.41519" lon="20.57345">
        <ele>613.379126</ele>
        <time>2022-04-27T10:07:44.752Z</time>
      </trkpt>
      <trkpt lat="41.41507" lon="20.57351">
        <ele>613.844078</ele>
        <time>2022-04-27T10:07:47.736Z</time>
      </trkpt>
      <trkpt lat="41.41496" lon="20.57355">
        <ele>614.307316</ele>
        <time>2022-04-27T10:07:50.737Z</time>
      </trkpt>
      <trkpt lat="41.41484" lon="20.57358">
        <ele>614.785318</ele>
        <time>2022-04-27T10:07:53.743Z</time>
      </trkpt>
      <trkpt lat="41.4147" lon="20.57362">
        <ele>615.311055</ele>
        <time>2022-04-27T10:07:56.772Z</time>
      </trkpt>
      <trkpt lat="41.41461" lon="20.57363">
        <ele>615.685369</ele>
        <time>2022-04-27T10:07:58.740Z</time>
      </trkpt>
      <trkpt lat="41.41451" lon="20.57364">
        <ele>616.069118</ele>
        <time>2022-04-27T10:08:00.739Z</time>
      </trkpt>
      <trkpt lat="41.41442" lon="20.57366">
        <ele>616.434704</ele>
        <time>2022-04-27T10:08:02.748Z</time>
      </trkpt>
      <trkpt lat="41.41432" lon="20.57368">
        <ele>616.795973</ele>
        <time>2022-04-27T10:08:04.741Z</time>
      </trkpt>
      <trkpt lat="41.41423" lon="20.5737">
        <ele>617.156741</ele>
        <time>2022-04-27T10:08:06.750Z</time>
      </trkpt>
      <trkpt lat="41.41411" lon="20.57372">
        <ele>617.745065</ele>
        <time>2022-04-27T10:08:09.742Z</time>
      </trkpt>
      <trkpt lat="41.41399" lon="20.57374">
        <ele>618.350571</ele>
        <time>2022-04-27T10:08:12.745Z</time>
      </trkpt>
      <trkpt lat="41.41386" lon="20.57377">
        <ele>618.992276</ele>
        <time>2022-04-27T10:08:15.739Z</time>
      </trkpt>
      <trkpt lat="41.41373" lon="20.57378">
        <ele>619.64763</ele>
        <time>2022-04-27T10:08:18.762Z</time>
      </trkpt>
      <trkpt lat="41.41363" lon="20.57379">
        <ele>620.106143</ele>
        <time>2022-04-27T10:08:20.745Z</time>
      </trkpt>
      <trkpt lat="41.41354" lon="20.57379">
        <ele>620.553343</ele>
        <time>2022-04-27T10:08:22.738Z</time>
      </trkpt>
      <trkpt lat="41.41342" lon="20.57381">
        <ele>621.168966</ele>
        <time>2022-04-27T10:08:25.743Z</time>
      </trkpt>
      <trkpt lat="41.41329" lon="20.57381">
        <ele>621.798038</ele>
        <time>2022-04-27T10:08:28.740Z</time>
      </trkpt>
      <trkpt lat="41.41319" lon="20.57382">
        <ele>622.270974</ele>
        <time>2022-04-27T10:08:30.741Z</time>
      </trkpt>
      <trkpt lat="41.41307" lon="20.57383">
        <ele>622.87867</ele>
        <time>2022-04-27T10:08:33.746Z</time>
      </trkpt>
      <trkpt lat="41.41293" lon="20.57384">
        <ele>623.556933</ele>
        <time>2022-04-27T10:08:36.748Z</time>
      </trkpt>
      <trkpt lat="41.41283" lon="20.57384">
        <ele>624.063225</ele>
        <time>2022-04-27T10:08:38.746Z</time>
      </trkpt>
      <trkpt lat="41.41273" lon="20.57384">
        <ele>624.54484</ele>
        <time>2022-04-27T10:08:40.739Z</time>
      </trkpt>
      <trkpt lat="41.41264" lon="20.57384">
        <ele>624.992283</ele>
        <time>2022-04-27T10:08:42.742Z</time>
      </trkpt>
      <trkpt lat="41.41252" lon="20.57385">
        <ele>625.601755</ele>
        <time>2022-04-27T10:08:45.742Z</time>
      </trkpt>
      <trkpt lat="41.41239" lon="20.57386">
        <ele>625.977269</ele>
        <time>2022-04-27T10:08:48.745Z</time>
      </trkpt>
      <trkpt lat="41.41226" lon="20.57389">
        <ele>625.853231</ele>
        <time>2022-04-27T10:08:51.751Z</time>
      </trkpt>
      <trkpt lat="41.41214" lon="20.57393">
        <ele>625.729518</ele>
        <time>2022-04-27T10:08:54.744Z</time>
      </trkpt>
      <trkpt lat="41.41202" lon="20.57398">
        <ele>625.606071</ele>
        <time>2022-04-27T10:08:57.737Z</time>
      </trkpt>
      <trkpt lat="41.41189" lon="20.57404">
        <ele>625.472919</ele>
        <time>2022-04-27T10:09:00.738Z</time>
      </trkpt>
      <trkpt lat="41.4118" lon="20.57409">
        <ele>625.382305</ele>
        <time>2022-04-27T10:09:02.762Z</time>
      </trkpt>
      <trkpt lat="41.41169" lon="20.57416">
        <ele>625.261623</ele>
        <time>2022-04-27T10:09:05.756Z</time>
      </trkpt>
      <trkpt lat="41.41158" lon="20.57422">
        <ele>625.142407</ele>
        <time>2022-04-27T10:09:08.761Z</time>
      </trkpt>
      <trkpt lat="41.41145" lon="20.57428">
        <ele>625.014976</ele>
        <time>2022-04-27T10:09:11.743Z</time>
      </trkpt>
      <trkpt lat="41.41133" lon="20.57434">
        <ele>624.892857</ele>
        <time>2022-04-27T10:09:14.743Z</time>
      </trkpt>
      <trkpt lat="41.41121" lon="20.57438">
        <ele>624.76881</ele>
        <time>2022-04-27T10:09:17.739Z</time>
      </trkpt>
      <trkpt lat="41.41109" lon="20.57443">
        <ele>624.644211</ele>
        <time>2022-04-27T10:09:20.745Z</time>
      </trkpt>
      <trkpt lat="41.41096" lon="20.57445">
        <ele>624.516565</ele>
        <time>2022-04-27T10:09:23.742Z</time>
      </trkpt>
      <trkpt lat="41.41087" lon="20.57448">
        <ele>624.427715</ele>
        <time>2022-04-27T10:09:25.744Z</time>
      </trkpt>
      <trkpt lat="41.41074" lon="20.57451">
        <ele>624.298259</ele>
        <time>2022-04-27T10:09:28.744Z</time>
      </trkpt>
      <trkpt lat="41.41061" lon="20.57454">
        <ele>624.102656</ele>
        <time>2022-04-27T10:09:31.741Z</time>
      </trkpt>
      <trkpt lat="41.41052" lon="20.57456">
        <ele>623.943825</ele>
        <time>2022-04-27T10:09:33.739Z</time>
      </trkpt>
      <trkpt lat="41.41039" lon="20.57459">
        <ele>623.72477</ele>
        <time>2022-04-27T10:09:36.747Z</time>
      </trkpt>
      <trkpt lat="41.41026" lon="20.57463">
        <ele>623.507781</ele>
        <time>2022-04-27T10:09:39.744Z</time>
      </trkpt>
      <trkpt lat="41.41013" lon="20.57468">
        <ele>623.285091</ele>
        <time>2022-04-27T10:09:42.767Z</time>
      </trkpt>
      <trkpt lat="41.41005" lon="20.57473">
        <ele>623.131993</ele>
        <time>2022-04-27T10:09:44.756Z</time>
      </trkpt>
      <trkpt lat="41.40992" lon="20.57481">
        <ele>622.90685</ele>
        <time>2022-04-27T10:09:47.743Z</time>
      </trkpt>
      <trkpt lat="41.40981" lon="20.57489">
        <ele>622.687272</ele>
        <time>2022-04-27T10:09:50.748Z</time>
      </trkpt>
      <trkpt lat="41.4097" lon="20.57498">
        <ele>622.473065</ele>
        <time>2022-04-27T10:09:53.748Z</time>
      </trkpt>
      <trkpt lat="41.40958" lon="20.57505">
        <ele>622.265327</ele>
        <time>2022-04-27T10:09:56.743Z</time>
      </trkpt>
      <trkpt lat="41.40947" lon="20.57511">
        <ele>622.06225</ele>
        <time>2022-04-27T10:09:59.741Z</time>
      </trkpt>
      <trkpt lat="41.40936" lon="20.57515">
        <ele>621.872763</ele>
        <time>2022-04-27T10:10:02.747Z</time>
      </trkpt>
      <trkpt lat="41.40925" lon="20.57516">
        <ele>621.69087</ele>
        <time>2022-04-27T10:10:05.759Z</time>
      </trkpt>
      <trkpt lat="41.40913" lon="20.57517">
        <ele>621.501187</ele>
        <time>2022-04-27T10:10:08.747Z</time>
      </trkpt>
      <trkpt lat="41.40901" lon="20.57519">
        <ele>621.296071</ele>
        <time>2022-04-27T10:10:11.740Z</time>
      </trkpt>
      <trkpt lat="41.4089" lon="20.5752">
        <ele>621.266503</ele>
        <time>2022-04-27T10:10:14.742Z</time>
      </trkpt>
      <trkpt lat="41.40876" lon="20.57521">
        <ele>621.238208</ele>
        <time>2022-04-27T10:10:17.745Z</time>
      </trkpt>
      <trkpt lat="41.40862" lon="20.57521">
        <ele>621.210205</ele>
        <time>2022-04-27T10:10:20.757Z</time>
      </trkpt>
      <trkpt lat="41.40849" lon="20.57522">
        <ele>621.182956</ele>
        <time>2022-04-27T10:10:23.743Z</time>
      </trkpt>
      <trkpt lat="41.40836" lon="20.57525">
        <ele>621.154387</ele>
        <time>2022-04-27T10:10:26.759Z</time>
      </trkpt>
      <trkpt lat="41.40823" lon="20.57529">
        <ele>621.127252</ele>
        <time>2022-04-27T10:10:29.743Z</time>
      </trkpt>
      <trkpt lat="41.40811" lon="20.57534">
        <ele>621.100734</ele>
        <time>2022-04-27T10:10:32.755Z</time>
      </trkpt>
      <trkpt lat="41.40799" lon="20.5754">
        <ele>621.073867</ele>
        <time>2022-04-27T10:10:35.748Z</time>
      </trkpt>
      <trkpt lat="41.4079" lon="20.57545">
        <ele>621.054719</ele>
        <time>2022-04-27T10:10:37.734Z</time>
      </trkpt>
      <trkpt lat="41.40782" lon="20.57551">
        <ele>621.035573</ele>
        <time>2022-04-27T10:10:39.748Z</time>
      </trkpt>
      <trkpt lat="41.40771" lon="20.57561">
        <ele>621.008128</ele>
        <time>2022-04-27T10:10:42.739Z</time>
      </trkpt>
      <trkpt lat="41.40763" lon="20.57572">
        <ele>620.983229</ele>
        <time>2022-04-27T10:10:45.736Z</time>
      </trkpt>
      <trkpt lat="41.40755" lon="20.57584">
        <ele>620.957997</ele>
        <time>2022-04-27T10:10:48.748Z</time>
      </trkpt>
      <trkpt lat="41.40747" lon="20.57597">
        <ele>620.933221</ele>
        <time>2022-04-27T10:10:51.748Z</time>
      </trkpt>
      <trkpt lat="41.40739" lon="20.57611">
        <ele>620.816282</ele>
        <time>2022-04-27T10:10:54.739Z</time>
      </trkpt>
      <trkpt lat="41.40733" lon="20.5762">
        <ele>620.640966</ele>
        <time>2022-04-27T10:10:56.751Z</time>
      </trkpt>
      <trkpt lat="41.40727" lon="20.5763">
        <ele>620.461781</ele>
        <time>2022-04-27T10:10:58.743Z</time>
      </trkpt>
      <trkpt lat="41.4072" lon="20.57639">
        <ele>620.263722</ele>
        <time>2022-04-27T10:11:00.740Z</time>
      </trkpt>
      <trkpt lat="41.40714" lon="20.57648">
        <ele>620.085626</ele>
        <time>2022-04-27T10:11:02.743Z</time>
      </trkpt>
      <trkpt lat="41.40707" lon="20.57658">
        <ele>619.901708</ele>
        <time>2022-04-27T10:11:04.753Z</time>
      </trkpt>
      <trkpt lat="41.40702" lon="20.57668">
        <ele>619.719542</ele>
        <time>2022-04-27T10:11:06.748Z</time>
      </trkpt>
      <trkpt lat="41.40695" lon="20.57677">
        <ele>619.535413</ele>
        <time>2022-04-27T10:11:08.743Z</time>
      </trkpt>
      <trkpt lat="41.40688" lon="20.57686">
        <ele>619.346714</ele>
        <time>2022-04-27T10:11:10.737Z</time>
      </trkpt>
      <trkpt lat="41.40682" lon="20.57696">
        <ele>619.16102</ele>
        <time>2022-04-27T10:11:12.741Z</time>
      </trkpt>
      <trkpt lat="41.40675" lon="20.57705">
        <ele>618.973444</ele>
        <time>2022-04-27T10:11:14.750Z</time>
      </trkpt>
      <trkpt lat="41.40669" lon="20.57715">
        <ele>618.78801</ele>
        <time>2022-04-27T10:11:16.776Z</time>
      </trkpt>
      <trkpt lat="41.40662" lon="20.57724">
        <ele>618.606798</ele>
        <time>2022-04-27T10:11:18.750Z</time>
      </trkpt>
      <trkpt lat="41.40656" lon="20.57732">
        <ele>618.425556</ele>
        <time>2022-04-27T10:11:20.743Z</time>
      </trkpt>
      <trkpt lat="41.40649" lon="20.5774">
        <ele>618.248735</ele>
        <time>2022-04-27T10:11:22.754Z</time>
      </trkpt>
      <trkpt lat="41.40639" lon="20.57751">
        <ele>618.010245</ele>
        <time>2022-04-27T10:11:25.743Z</time>
      </trkpt>
      <trkpt lat="41.40629" lon="20.57761">
        <ele>617.758855</ele>
        <time>2022-04-27T10:11:28.743Z</time>
      </trkpt>
      <trkpt lat="41.40621" lon="20.57768">
        <ele>617.581865</ele>
        <time>2022-04-27T10:11:30.763Z</time>
      </trkpt>
      <trkpt lat="41.40612" lon="20.5778">
        <ele>617.119871</ele>
        <time>2022-04-27T10:11:33.753Z</time>
      </trkpt>
      <trkpt lat="41.40602" lon="20.57791">
        <ele>616.38904</ele>
        <time>2022-04-27T10:11:36.736Z</time>
      </trkpt>
      <trkpt lat="41.40591" lon="20.57801">
        <ele>615.665601</ele>
        <time>2022-04-27T10:11:39.749Z</time>
      </trkpt>
      <trkpt lat="41.40581" lon="20.57812">
        <ele>614.941194</ele>
        <time>2022-04-27T10:11:42.739Z</time>
      </trkpt>
      <trkpt lat="41.4057" lon="20.57823">
        <ele>614.202014</ele>
        <time>2022-04-27T10:11:45.745Z</time>
      </trkpt>
      <trkpt lat="41.40563" lon="20.5783">
        <ele>613.701431</ele>
        <time>2022-04-27T10:11:47.740Z</time>
      </trkpt>
      <trkpt lat="41.40556" lon="20.57838">
        <ele>613.197351</ele>
        <time>2022-04-27T10:11:49.761Z</time>
      </trkpt>
      <trkpt lat="41.40549" lon="20.57845">
        <ele>612.683995</ele>
        <time>2022-04-27T10:11:51.742Z</time>
      </trkpt>
      <trkpt lat="41.40538" lon="20.57855">
        <ele>611.992868</ele>
        <time>2022-04-27T10:11:54.759Z</time>
      </trkpt>
      <trkpt lat="41.4053" lon="20.57866">
        <ele>611.304429</ele>
        <time>2022-04-27T10:11:57.743Z</time>
      </trkpt>
      <trkpt lat="41.40523" lon="20.57875">
        <ele>610.796731</ele>
        <time>2022-04-27T10:11:59.741Z</time>
      </trkpt>
      <trkpt lat="41.40517" lon="20.57884">
        <ele>610.296748</ele>
        <time>2022-04-27T10:12:01.738Z</time>
      </trkpt>
      <trkpt lat="41.40511" lon="20.57893">
        <ele>609.787631</ele>
        <time>2022-04-27T10:12:03.749Z</time>
      </trkpt>
      <trkpt lat="41.40504" lon="20.57905">
        <ele>609.131044</ele>
        <time>2022-04-27T10:12:06.750Z</time>
      </trkpt>
      <trkpt lat="41.40498" lon="20.57918">
        <ele>608.525543</ele>
        <time>2022-04-27T10:12:09.737Z</time>
      </trkpt>
      <trkpt lat="41.40493" lon="20.57932">
        <ele>607.873361</ele>
        <time>2022-04-27T10:12:12.753Z</time>
      </trkpt>
      <trkpt lat="41.40488" lon="20.57947">
        <ele>607.497049</ele>
        <time>2022-04-27T10:12:15.743Z</time>
      </trkpt>
      <trkpt lat="41.40482" lon="20.57962">
        <ele>607.633596</ele>
        <time>2022-04-27T10:12:18.744Z</time>
      </trkpt>
      <trkpt lat="41.40478" lon="20.57974">
        <ele>607.73238</ele>
        <time>2022-04-27T10:12:20.752Z</time>
      </trkpt>
      <trkpt lat="41.40475" lon="20.57985">
        <ele>607.833786</ele>
        <time>2022-04-27T10:12:22.743Z</time>
      </trkpt>
      <trkpt lat="41.40472" lon="20.57997">
        <ele>607.929972</ele>
        <time>2022-04-27T10:12:24.758Z</time>
      </trkpt>
      <trkpt lat="41.40468" lon="20.58012">
        <ele>608.057901</ele>
        <time>2022-04-27T10:12:27.765Z</time>
      </trkpt>
      <trkpt lat="41.40462" lon="20.58028">
        <ele>608.198782</ele>
        <time>2022-04-27T10:12:30.754Z</time>
      </trkpt>
      <trkpt lat="41.40457" lon="20.58044">
        <ele>608.335454</ele>
        <time>2022-04-27T10:12:33.764Z</time>
      </trkpt>
      <trkpt lat="41.40453" lon="20.58055">
        <ele>608.433984</ele>
        <time>2022-04-27T10:12:35.740Z</time>
      </trkpt>
      <trkpt lat="41.40448" lon="20.58066">
        <ele>608.532368</ele>
        <time>2022-04-27T10:12:37.742Z</time>
      </trkpt>
      <trkpt lat="41.40444" lon="20.58076">
        <ele>608.628933</ele>
        <time>2022-04-27T10:12:39.766Z</time>
      </trkpt>
      <trkpt lat="41.40437" lon="20.5809">
        <ele>608.762088</ele>
        <time>2022-04-27T10:12:42.763Z</time>
      </trkpt>
      <trkpt lat="41.4043" lon="20.58104">
        <ele>608.89465</ele>
        <time>2022-04-27T10:12:45.741Z</time>
      </trkpt>
      <trkpt lat="41.40421" lon="20.58117">
        <ele>609.033885</ele>
        <time>2022-04-27T10:12:48.741Z</time>
      </trkpt>
      <trkpt lat="41.40412" lon="20.58128">
        <ele>609.166156</ele>
        <time>2022-04-27T10:12:51.746Z</time>
      </trkpt>
      <trkpt lat="41.40403" lon="20.58139">
        <ele>609.297679</ele>
        <time>2022-04-27T10:12:54.738Z</time>
      </trkpt>
      <trkpt lat="41.40393" lon="20.58148">
        <ele>609.728108</ele>
        <time>2022-04-27T10:12:57.752Z</time>
      </trkpt>
      <trkpt lat="41.40383" lon="20.58156">
        <ele>610.427181</ele>
        <time>2022-04-27T10:13:00.748Z</time>
      </trkpt>
      <trkpt lat="41.40372" lon="20.58164">
        <ele>611.19435</ele>
        <time>2022-04-27T10:13:03.743Z</time>
      </trkpt>
      <trkpt lat="41.40361" lon="20.58173">
        <ele>611.924953</ele>
        <time>2022-04-27T10:13:06.752Z</time>
      </trkpt>
      <trkpt lat="41.40351" lon="20.58181">
        <ele>612.611465</ele>
        <time>2022-04-27T10:13:09.747Z</time>
      </trkpt>
      <trkpt lat="41.40342" lon="20.58187">
        <ele>613.239458</ele>
        <time>2022-04-27T10:13:12.773Z</time>
      </trkpt>
      <trkpt lat="41.40334" lon="20.58193">
        <ele>613.804195</ele>
        <time>2022-04-27T10:13:15.744Z</time>
      </trkpt>
      <trkpt lat="41.40325" lon="20.58198">
        <ele>614.391569</ele>
        <time>2022-04-27T10:13:18.744Z</time>
      </trkpt>
      <trkpt lat="41.40314" lon="20.58203">
        <ele>615.050072</ele>
        <time>2022-04-27T10:13:21.749Z</time>
      </trkpt>
      <trkpt lat="41.40304" lon="20.5821">
        <ele>615.71961</ele>
        <time>2022-04-27T10:13:24.737Z</time>
      </trkpt>
      <trkpt lat="41.40293" lon="20.58218">
        <ele>616.462422</ele>
        <time>2022-04-27T10:13:27.736Z</time>
      </trkpt>
      <trkpt lat="41.40282" lon="20.58226">
        <ele>617.209594</ele>
        <time>2022-04-27T10:13:30.741Z</time>
      </trkpt>
      <trkpt lat="41.40271" lon="20.58234">
        <ele>617.971569</ele>
        <time>2022-04-27T10:13:33.744Z</time>
      </trkpt>
      <trkpt lat="41.4026" lon="20.58243">
        <ele>618.739732</ele>
        <time>2022-04-27T10:13:36.735Z</time>
      </trkpt>
      <trkpt lat="41.40249" lon="20.58252">
        <ele>619.491346</ele>
        <time>2022-04-27T10:13:39.742Z</time>
      </trkpt>
      <trkpt lat="41.40241" lon="20.58258">
        <ele>620.037146</ele>
        <time>2022-04-27T10:13:41.746Z</time>
      </trkpt>
      <trkpt lat="41.4023" lon="20.58265">
        <ele>620.480337</ele>
        <time>2022-04-27T10:13:44.751Z</time>
      </trkpt>
      <trkpt lat="41.40218" lon="20.58272">
        <ele>620.912999</ele>
        <time>2022-04-27T10:13:47.738Z</time>
      </trkpt>
      <trkpt lat="41.40205" lon="20.58277">
        <ele>621.361592</ele>
        <time>2022-04-27T10:13:50.740Z</time>
      </trkpt>
      <trkpt lat="41.40193" lon="20.58282">
        <ele>621.795776</ele>
        <time>2022-04-27T10:13:53.738Z</time>
      </trkpt>
      <trkpt lat="41.40184" lon="20.58285">
        <ele>622.09911</ele>
        <time>2022-04-27T10:13:55.736Z</time>
      </trkpt>
      <trkpt lat="41.40175" lon="20.58288">
        <ele>622.405217</ele>
        <time>2022-04-27T10:13:57.762Z</time>
      </trkpt>
      <trkpt lat="41.40165" lon="20.5829">
        <ele>622.729785</ele>
        <time>2022-04-27T10:13:59.750Z</time>
      </trkpt>
      <trkpt lat="41.40156" lon="20.58293">
        <ele>623.043377</ele>
        <time>2022-04-27T10:14:01.732Z</time>
      </trkpt>
      <trkpt lat="41.40147" lon="20.58297">
        <ele>623.346711</ele>
        <time>2022-04-27T10:14:03.771Z</time>
      </trkpt>
      <trkpt lat="41.40134" lon="20.583">
        <ele>623.786786</ele>
        <time>2022-04-27T10:14:06.738Z</time>
      </trkpt>
      <trkpt lat="41.40121" lon="20.58304">
        <ele>624.236149</ele>
        <time>2022-04-27T10:14:09.739Z</time>
      </trkpt>
      <trkpt lat="41.40108" lon="20.58308">
        <ele>624.68478</ele>
        <time>2022-04-27T10:14:12.743Z</time>
      </trkpt>
      <trkpt lat="41.40098" lon="20.5831">
        <ele>625.003334</ele>
        <time>2022-04-27T10:14:14.773Z</time>
      </trkpt>
      <trkpt lat="41.40089" lon="20.58313">
        <ele>625.320833</ele>
        <time>2022-04-27T10:14:16.739Z</time>
      </trkpt>
      <trkpt lat="41.4008" lon="20.58316">
        <ele>625.628665</ele>
        <time>2022-04-27T10:14:18.740Z</time>
      </trkpt>
      <trkpt lat="41.40067" lon="20.5832">
        <ele>626.072657</ele>
        <time>2022-04-27T10:14:21.740Z</time>
      </trkpt>
      <trkpt lat="41.40058" lon="20.58324">
        <ele>626.381647</ele>
        <time>2022-04-27T10:14:23.735Z</time>
      </trkpt>
      <trkpt lat="41.40049" lon="20.58328">
        <ele>626.68276</ele>
        <time>2022-04-27T10:14:25.734Z</time>
      </trkpt>
      <trkpt lat="41.4004" lon="20.58332">
        <ele>626.975702</ele>
        <time>2022-04-27T10:14:27.736Z</time>
      </trkpt>
      <trkpt lat="41.40031" lon="20.58337">
        <ele>627.282594</ele>
        <time>2022-04-27T10:14:29.745Z</time>
      </trkpt>
      <trkpt lat="41.40022" lon="20.58343">
        <ele>627.585993</ele>
        <time>2022-04-27T10:14:31.760Z</time>
      </trkpt>
      <trkpt lat="41.40014" lon="20.58349">
        <ele>627.873173</ele>
        <time>2022-04-27T10:14:33.741Z</time>
      </trkpt>
      <trkpt lat="41.40002" lon="20.58355">
        <ele>628.28273</ele>
        <time>2022-04-27T10:14:36.741Z</time>
      </trkpt>
      <trkpt lat="41.3999" lon="20.58361">
        <ele>628.686844</ele>
        <time>2022-04-27T10:14:39.745Z</time>
      </trkpt>
      <trkpt lat="41.39982" lon="20.58365">
        <ele>628.983156</ele>
        <time>2022-04-27T10:14:41.739Z</time>
      </trkpt>
      <trkpt lat="41.39973" lon="20.58369">
        <ele>629.273749</ele>
        <time>2022-04-27T10:14:43.763Z</time>
      </trkpt>
      <trkpt lat="41.39962" lon="20.58375">
        <ele>629.659219</ele>
        <time>2022-04-27T10:14:46.738Z</time>
      </trkpt>
      <trkpt lat="41.3995" lon="20.58379">
        <ele>630.041047</ele>
        <time>2022-04-27T10:14:49.766Z</time>
      </trkpt>
      <trkpt lat="41.39938" lon="20.58383">
        <ele>630.426857</ele>
        <time>2022-04-27T10:14:52.755Z</time>
      </trkpt>
      <trkpt lat="41.39927" lon="20.58384">
        <ele>630.78059</ele>
        <time>2022-04-27T10:14:55.745Z</time>
      </trkpt>
      <trkpt lat="41.39916" lon="20.58385">
        <ele>631.12351</ele>
        <time>2022-04-27T10:14:58.740Z</time>
      </trkpt>
      <trkpt lat="41.39906" lon="20.58386">
        <ele>631.430838</ele>
        <time>2022-04-27T10:15:01.741Z</time>
      </trkpt>
      <trkpt lat="41.39897" lon="20.58385">
        <ele>631.726048</ele>
        <time>2022-04-27T10:15:04.754Z</time>
      </trkpt>
      <trkpt lat="41.39887" lon="20.58384">
        <ele>632.235252</ele>
        <time>2022-04-27T10:15:07.737Z</time>
      </trkpt>
      <trkpt lat="41.39876" lon="20.58381">
        <ele>632.830054</ele>
        <time>2022-04-27T10:15:11.765Z</time>
      </trkpt>
      <trkpt lat="41.39866" lon="20.58378">
        <ele>633.38601</ele>
        <time>2022-04-27T10:15:15.780Z</time>
      </trkpt>
      <trkpt lat="41.39856" lon="20.58373">
        <ele>633.940118</ele>
        <time>2022-04-27T10:15:19.738Z</time>
      </trkpt>
      <trkpt lat="41.39848" lon="20.58368">
        <ele>634.431142</ele>
        <time>2022-04-27T10:15:22.767Z</time>
      </trkpt>
      <trkpt lat="41.39837" lon="20.58362">
        <ele>635.023158</ele>
        <time>2022-04-27T10:15:26.745Z</time>
      </trkpt>
      <trkpt lat="41.39828" lon="20.58358">
        <ele>635.542074</ele>
        <time>2022-04-27T10:15:30.762Z</time>
      </trkpt>
      <trkpt lat="41.39818" lon="20.58355">
        <ele>636.080808</ele>
        <time>2022-04-27T10:15:34.756Z</time>
      </trkpt>
      <trkpt lat="41.39808" lon="20.58353">
        <ele>636.646568</ele>
        <time>2022-04-27T10:15:38.759Z</time>
      </trkpt>
      <trkpt lat="41.39798" lon="20.58351">
        <ele>637.164351</ele>
        <time>2022-04-27T10:15:42.745Z</time>
      </trkpt>
      <trkpt lat="41.39788" lon="20.58348">
        <ele>637.714493</ele>
        <time>2022-04-27T10:15:46.756Z</time>
      </trkpt>
      <trkpt lat="41.39779" lon="20.58345">
        <ele>638.212064</ele>
        <time>2022-04-27T10:15:50.757Z</time>
      </trkpt>
      <trkpt lat="41.39769" lon="20.58343">
        <ele>638.754214</ele>
        <time>2022-04-27T10:15:55.739Z</time>
      </trkpt>
      <trkpt lat="41.39758" lon="20.58343">
        <ele>639.336961</ele>
        <time>2022-04-27T10:16:00.740Z</time>
      </trkpt>
      <trkpt lat="41.39748" lon="20.58344">
        <ele>639.841797</ele>
        <time>2022-04-27T10:16:05.739Z</time>
      </trkpt>
      <trkpt lat="41.39739" lon="20.58347">
        <ele>640.321079</ele>
        <time>2022-04-27T10:16:09.744Z</time>
      </trkpt>
      <trkpt lat="41.39729" lon="20.58349">
        <ele>640.875683</ele>
        <time>2022-04-27T10:16:14.744Z</time>
      </trkpt>
      <trkpt lat="41.39719" lon="20.5835">
        <ele>641.255749</ele>
        <time>2022-04-27T10:16:18.759Z</time>
      </trkpt>
      <trkpt lat="41.39708" lon="20.58353">
        <ele>641.11294</ele>
        <time>2022-04-27T10:16:22.747Z</time>
      </trkpt>
      <trkpt lat="41.39699" lon="20.58356">
        <ele>640.992764</ele>
        <time>2022-04-27T10:16:26.776Z</time>
      </trkpt>
      <trkpt lat="41.3969" lon="20.58358">
        <ele>640.876002</ele>
        <time>2022-04-27T10:16:30.744Z</time>
      </trkpt>
      <trkpt lat="41.3968" lon="20.58361">
        <ele>640.743635</ele>
        <time>2022-04-27T10:16:35.742Z</time>
      </trkpt>
      <trkpt lat="41.3967" lon="20.58366">
        <ele>640.60338</ele>
        <time>2022-04-27T10:16:40.742Z</time>
      </trkpt>
      <trkpt lat="41.39661" lon="20.58372">
        <ele>640.471168</ele>
        <time>2022-04-27T10:16:45.739Z</time>
      </trkpt>
      <trkpt lat="41.39651" lon="20.58376">
        <ele>640.337518</ele>
        <time>2022-04-27T10:16:50.755Z</time>
      </trkpt>
      <trkpt lat="41.39641" lon="20.58379">
        <ele>640.211347</ele>
        <time>2022-04-27T10:16:54.772Z</time>
      </trkpt>
      <trkpt lat="41.39632" lon="20.58382">
        <ele>640.091403</ele>
        <time>2022-04-27T10:16:58.740Z</time>
      </trkpt>
      <trkpt lat="41.39622" lon="20.58386">
        <ele>639.948207</ele>
        <time>2022-04-27T10:17:03.739Z</time>
      </trkpt>
      <trkpt lat="41.39612" lon="20.58389">
        <ele>639.816781</ele>
        <time>2022-04-27T10:17:07.741Z</time>
      </trkpt>
      <trkpt lat="41.39601" lon="20.58394">
        <ele>639.663568</ele>
        <time>2022-04-27T10:17:11.739Z</time>
      </trkpt>
      <trkpt lat="41.39592" lon="20.58398">
        <ele>639.543127</ele>
        <time>2022-04-27T10:17:14.755Z</time>
      </trkpt>
      <trkpt lat="41.39581" lon="20.58401">
        <ele>639.401428</ele>
        <time>2022-04-27T10:17:17.741Z</time>
      </trkpt>
      <trkpt lat="41.39568" lon="20.58404">
        <ele>639.230135</ele>
        <time>2022-04-27T10:17:20.740Z</time>
      </trkpt>
      <trkpt lat="41.39557" lon="20.58405">
        <ele>639.087856</ele>
        <time>2022-04-27T10:17:22.754Z</time>
      </trkpt>
      <trkpt lat="41.39548" lon="20.58408">
        <ele>638.966228</ele>
        <time>2022-04-27T10:17:24.755Z</time>
      </trkpt>
      <trkpt lat="41.39538" lon="20.5841">
        <ele>638.803818</ele>
        <time>2022-04-27T10:17:26.742Z</time>
      </trkpt>
      <trkpt lat="41.39528" lon="20.58413">
        <ele>638.622061</ele>
        <time>2022-04-27T10:17:28.740Z</time>
      </trkpt>
      <trkpt lat="41.39516" lon="20.58416">
        <ele>638.417871</ele>
        <time>2022-04-27T10:17:30.744Z</time>
      </trkpt>
      <trkpt lat="41.39504" lon="20.58418">
        <ele>638.203145</ele>
        <time>2022-04-27T10:17:32.743Z</time>
      </trkpt>
      <trkpt lat="41.39485" lon="20.58422">
        <ele>637.879165</ele>
        <time>2022-04-27T10:17:35.739Z</time>
      </trkpt>
      <trkpt lat="41.39473" lon="20.58426">
        <ele>637.662074</ele>
        <time>2022-04-27T10:17:37.743Z</time>
      </trkpt>
      <trkpt lat="41.39461" lon="20.5843">
        <ele>637.450785</ele>
        <time>2022-04-27T10:17:39.746Z</time>
      </trkpt>
      <trkpt lat="41.39447" lon="20.58432">
        <ele>637.21611</ele>
        <time>2022-04-27T10:17:41.770Z</time>
      </trkpt>
      <trkpt lat="41.39432" lon="20.58433">
        <ele>636.959053</ele>
        <time>2022-04-27T10:17:43.786Z</time>
      </trkpt>
      <trkpt lat="41.39416" lon="20.58432">
        <ele>636.684989</ele>
        <time>2022-04-27T10:17:45.784Z</time>
      </trkpt>
      <trkpt lat="41.39401" lon="20.58429">
        <ele>636.422323</ele>
        <time>2022-04-27T10:17:47.763Z</time>
      </trkpt>
      <trkpt lat="41.39384" lon="20.58424">
        <ele>636.131064</ele>
        <time>2022-04-27T10:17:49.751Z</time>
      </trkpt>
      <trkpt lat="41.39368" lon="20.58416">
        <ele>635.863975</ele>
        <time>2022-04-27T10:17:51.772Z</time>
      </trkpt>
      <trkpt lat="41.39355" lon="20.58408">
        <ele>635.784918</ele>
        <time>2022-04-27T10:17:53.768Z</time>
      </trkpt>
      <trkpt lat="41.39343" lon="20.58401">
        <ele>635.712014</ele>
        <time>2022-04-27T10:17:55.783Z</time>
      </trkpt>
      <trkpt lat="41.3933" lon="20.58394">
        <ele>635.636943</ele>
        <time>2022-04-27T10:17:57.776Z</time>
      </trkpt>
      <trkpt lat="41.39317" lon="20.58386">
        <ele>635.558714</ele>
        <time>2022-04-27T10:17:59.765Z</time>
      </trkpt>
      <trkpt lat="41.39305" lon="20.58377">
        <ele>635.481473</ele>
        <time>2022-04-27T10:18:01.818Z</time>
      </trkpt>
      <trkpt lat="41.39292" lon="20.58367">
        <ele>635.400037</ele>
        <time>2022-04-27T10:18:03.790Z</time>
      </trkpt>
      <trkpt lat="41.39278" lon="20.58356">
        <ele>635.311628</ele>
        <time>2022-04-27T10:18:05.776Z</time>
      </trkpt>
      <trkpt lat="41.39263" lon="20.58345">
        <ele>635.216242</ele>
        <time>2022-04-27T10:18:07.778Z</time>
      </trkpt>
      <trkpt lat="41.39249" lon="20.58334">
        <ele>635.124837</ele>
        <time>2022-04-27T10:18:09.769Z</time>
      </trkpt>
      <trkpt lat="41.39233" lon="20.58324">
        <ele>635.032033</ele>
        <time>2022-04-27T10:18:11.778Z</time>
      </trkpt>
      <trkpt lat="41.39224" lon="20.5832">
        <ele>634.978825</ele>
        <time>2022-04-27T10:18:12.772Z</time>
      </trkpt>
      <trkpt lat="41.39215" lon="20.58316">
        <ele>634.92653</ele>
        <time>2022-04-27T10:18:13.773Z</time>
      </trkpt>
      <trkpt lat="41.39207" lon="20.58313">
        <ele>634.818621</ele>
        <time>2022-04-27T10:18:14.784Z</time>
      </trkpt>
      <trkpt lat="41.3919" lon="20.58309">
        <ele>634.329866</ele>
        <time>2022-04-27T10:18:16.763Z</time>
      </trkpt>
      <trkpt lat="41.39173" lon="20.58308">
        <ele>633.82482</ele>
        <time>2022-04-27T10:18:18.753Z</time>
      </trkpt>
      <trkpt lat="41.39156" lon="20.58311">
        <ele>633.345644</ele>
        <time>2022-04-27T10:18:20.780Z</time>
      </trkpt>
      <trkpt lat="41.39142" lon="20.58314">
        <ele>632.906726</ele>
        <time>2022-04-27T10:18:22.772Z</time>
      </trkpt>
      <trkpt lat="41.39128" lon="20.58317">
        <ele>632.496691</ele>
        <time>2022-04-27T10:18:24.761Z</time>
      </trkpt>
      <trkpt lat="41.39115" lon="20.58319">
        <ele>632.120997</ele>
        <time>2022-04-27T10:18:26.781Z</time>
      </trkpt>
      <trkpt lat="41.39103" lon="20.58323">
        <ele>631.763303</ele>
        <time>2022-04-27T10:18:28.774Z</time>
      </trkpt>
      <trkpt lat="41.39092" lon="20.58326">
        <ele>631.426988</ele>
        <time>2022-04-27T10:18:30.769Z</time>
      </trkpt>
      <trkpt lat="41.39081" lon="20.58329">
        <ele>631.09437</ele>
        <time>2022-04-27T10:18:32.769Z</time>
      </trkpt>
      <trkpt lat="41.39071" lon="20.58331">
        <ele>630.822249</ele>
        <time>2022-04-27T10:18:34.789Z</time>
      </trkpt>
      <trkpt lat="41.3906" lon="20.58334">
        <ele>630.485934</ele>
        <time>2022-04-27T10:18:37.802Z</time>
      </trkpt>
      <trkpt lat="41.39051" lon="20.58336">
        <ele>630.205534</ele>
        <time>2022-04-27T10:18:40.759Z</time>
      </trkpt>
      <trkpt lat="41.39042" lon="20.58336">
        <ele>629.942604</ele>
        <time>2022-04-27T10:18:43.769Z</time>
      </trkpt>
      <trkpt lat="41.39032" lon="20.58335">
        <ele>629.670713</ele>
        <time>2022-04-27T10:18:46.773Z</time>
      </trkpt>
      <trkpt lat="41.39023" lon="20.58333">
        <ele>629.756598</ele>
        <time>2022-04-27T10:18:49.773Z</time>
      </trkpt>
      <trkpt lat="41.39013" lon="20.58331">
        <ele>629.888369</ele>
        <time>2022-04-27T10:18:53.761Z</time>
      </trkpt>
      <trkpt lat="41.39004" lon="20.58328">
        <ele>630.021999</ele>
        <time>2022-04-27T10:18:56.805Z</time>
      </trkpt>
      <trkpt lat="41.3899" lon="20.58325">
        <ele>630.2041</ele>
        <time>2022-04-27T10:18:59.805Z</time>
      </trkpt>
      <trkpt lat="41.38981" lon="20.58324">
        <ele>630.327961</ele>
        <time>2022-04-27T10:19:01.792Z</time>
      </trkpt>
      <trkpt lat="41.38972" lon="20.58324">
        <ele>630.458029</ele>
        <time>2022-04-27T10:19:03.750Z</time>
      </trkpt>
      <trkpt lat="41.38962" lon="20.58325">
        <ele>630.584198</ele>
        <time>2022-04-27T10:19:05.739Z</time>
      </trkpt>
      <trkpt lat="41.38953" lon="20.58326">
        <ele>630.709225</ele>
        <time>2022-04-27T10:19:07.766Z</time>
      </trkpt>
      <trkpt lat="41.38942" lon="20.58328">
        <ele>630.862422</ele>
        <time>2022-04-27T10:19:10.775Z</time>
      </trkpt>
      <trkpt lat="41.38929" lon="20.58331">
        <ele>631.047377</ele>
        <time>2022-04-27T10:19:13.808Z</time>
      </trkpt>
      <trkpt lat="41.38919" lon="20.58334">
        <ele>631.178538</ele>
        <time>2022-04-27T10:19:15.766Z</time>
      </trkpt>
      <trkpt lat="41.3891" lon="20.58336">
        <ele>631.30932</ele>
        <time>2022-04-27T10:19:17.760Z</time>
      </trkpt>
      <trkpt lat="41.389" lon="20.58339">
        <ele>631.436298</ele>
        <time>2022-04-27T10:19:19.809Z</time>
      </trkpt>
      <trkpt lat="41.38891" lon="20.58342">
        <ele>631.561714</ele>
        <time>2022-04-27T10:19:21.760Z</time>
      </trkpt>
      <trkpt lat="41.38879" lon="20.58346">
        <ele>631.738951</ele>
        <time>2022-04-27T10:19:24.765Z</time>
      </trkpt>
      <trkpt lat="41.38866" lon="20.5835">
        <ele>631.910685</ele>
        <time>2022-04-27T10:19:27.772Z</time>
      </trkpt>
      <trkpt lat="41.38854" lon="20.58354">
        <ele>632.082136</ele>
        <time>2022-04-27T10:19:30.749Z</time>
      </trkpt>
      <trkpt lat="41.38845" lon="20.58356">
        <ele>632.145167</ele>
        <time>2022-04-27T10:19:32.741Z</time>
      </trkpt>
      <trkpt lat="41.38832" lon="20.58359">
        <ele>632.233567</ele>
        <time>2022-04-27T10:19:35.746Z</time>
      </trkpt>
      <trkpt lat="41.38822" lon="20.58362">
        <ele>632.306759</ele>
        <time>2022-04-27T10:19:38.738Z</time>
      </trkpt>
      <trkpt lat="41.38812" lon="20.58365">
        <ele>632.37771</ele>
        <time>2022-04-27T10:19:41.746Z</time>
      </trkpt>
      <trkpt lat="41.38802" lon="20.58368">
        <ele>632.445525</ele>
        <time>2022-04-27T10:19:44.743Z</time>
      </trkpt>
      <trkpt lat="41.38792" lon="20.5837">
        <ele>632.517044</ele>
        <time>2022-04-27T10:19:47.741Z</time>
      </trkpt>
      <trkpt lat="41.38781" lon="20.58373">
        <ele>632.595401</ele>
        <time>2022-04-27T10:19:50.748Z</time>
      </trkpt>
      <trkpt lat="41.38769" lon="20.58376">
        <ele>632.681486</ele>
        <time>2022-04-27T10:19:53.736Z</time>
      </trkpt>
      <trkpt lat="41.38756" lon="20.5838">
        <ele>632.774247</ele>
        <time>2022-04-27T10:19:56.741Z</time>
      </trkpt>
      <trkpt lat="41.38744" lon="20.58385">
        <ele>632.864807</ele>
        <time>2022-04-27T10:19:59.737Z</time>
      </trkpt>
      <trkpt lat="41.38733" lon="20.58388">
        <ele>632.941961</ele>
        <time>2022-04-27T10:20:02.750Z</time>
      </trkpt>
      <trkpt lat="41.38723" lon="20.5839">
        <ele>633.011502</ele>
        <time>2022-04-27T10:20:05.768Z</time>
      </trkpt>
      <trkpt lat="41.38712" lon="20.58393">
        <ele>633.091714</ele>
        <time>2022-04-27T10:20:09.740Z</time>
      </trkpt>
      <trkpt lat="41.38701" lon="20.58397">
        <ele>633.16857</ele>
        <time>2022-04-27T10:20:13.733Z</time>
      </trkpt>
      <trkpt lat="41.38692" lon="20.584">
        <ele>633.23092</ele>
        <time>2022-04-27T10:20:17.762Z</time>
      </trkpt>
      <trkpt lat="41.38682" lon="20.58402">
        <ele>633.301474</ele>
        <time>2022-04-27T10:20:21.749Z</time>
      </trkpt>
      <trkpt lat="41.38672" lon="20.58405">
        <ele>633.366952</ele>
        <time>2022-04-27T10:20:25.739Z</time>
      </trkpt>
      <trkpt lat="41.38662" lon="20.58406">
        <ele>633.435415</ele>
        <time>2022-04-27T10:20:29.742Z</time>
      </trkpt>
      <trkpt lat="41.38652" lon="20.58408">
        <ele>633.500101</ele>
        <time>2022-04-27T10:20:33.739Z</time>
      </trkpt>
      <trkpt lat="41.38642" lon="20.58411">
        <ele>633.56455</ele>
        <time>2022-04-27T10:20:37.740Z</time>
      </trkpt>
      <trkpt lat="41.38632" lon="20.58415">
        <ele>633.631042</ele>
        <time>2022-04-27T10:20:41.740Z</time>
      </trkpt>
      <trkpt lat="41.38622" lon="20.58417">
        <ele>633.692096</ele>
        <time>2022-04-27T10:20:44.753Z</time>
      </trkpt>
      <trkpt lat="41.3861" lon="20.58419">
        <ele>633.768808</ele>
        <time>2022-04-27T10:20:48.744Z</time>
      </trkpt>
      <trkpt lat="41.38598" lon="20.5842">
        <ele>633.847034</ele>
        <time>2022-04-27T10:20:52.742Z</time>
      </trkpt>
      <trkpt lat="41.38587" lon="20.5842">
        <ele>633.915593</ele>
        <time>2022-04-27T10:20:55.752Z</time>
      </trkpt>
      <trkpt lat="41.38577" lon="20.58419">
        <ele>633.975929</ele>
        <time>2022-04-27T10:20:58.737Z</time>
      </trkpt>
      <trkpt lat="41.38567" lon="20.58419">
        <ele>634.041357</ele>
        <time>2022-04-27T10:21:01.762Z</time>
      </trkpt>
      <trkpt lat="41.38556" lon="20.58417">
        <ele>634.110239</ele>
        <time>2022-04-27T10:21:04.743Z</time>
      </trkpt>
      <trkpt lat="41.38546" lon="20.58415">
        <ele>634.175832</ele>
        <time>2022-04-27T10:21:07.758Z</time>
      </trkpt>
      <trkpt lat="41.38535" lon="20.58415">
        <ele>634.247579</ele>
        <time>2022-04-27T10:21:10.756Z</time>
      </trkpt>
      <trkpt lat="41.38522" lon="20.58414">
        <ele>634.329536</ele>
        <time>2022-04-27T10:21:13.735Z</time>
      </trkpt>
      <trkpt lat="41.38512" lon="20.58412">
        <ele>634.392704</ele>
        <time>2022-04-27T10:21:16.738Z</time>
      </trkpt>
      <trkpt lat="41.38501" lon="20.5841">
        <ele>634.466103</ele>
        <time>2022-04-27T10:21:19.765Z</time>
      </trkpt>
      <trkpt lat="41.38488" lon="20.58409">
        <ele>634.883003</ele>
        <time>2022-04-27T10:21:22.740Z</time>
      </trkpt>
      <trkpt lat="41.38478" lon="20.58409">
        <ele>635.249307</ele>
        <time>2022-04-27T10:21:25.740Z</time>
      </trkpt>
      <trkpt lat="41.38467" lon="20.5841">
        <ele>635.612463</ele>
        <time>2022-04-27T10:21:28.748Z</time>
      </trkpt>
      <trkpt lat="41.38456" lon="20.5841">
        <ele>636.0068</ele>
        <time>2022-04-27T10:21:31.739Z</time>
      </trkpt>
      <trkpt lat="41.38443" lon="20.58412">
        <ele>636.441387</ele>
        <time>2022-04-27T10:21:34.746Z</time>
      </trkpt>
      <trkpt lat="41.38433" lon="20.58414">
        <ele>636.796159</ele>
        <time>2022-04-27T10:21:36.741Z</time>
      </trkpt>
      <trkpt lat="41.38422" lon="20.58415">
        <ele>637.174423</ele>
        <time>2022-04-27T10:21:38.740Z</time>
      </trkpt>
      <trkpt lat="41.38411" lon="20.58417">
        <ele>637.560679</ele>
        <time>2022-04-27T10:21:40.770Z</time>
      </trkpt>
      <trkpt lat="41.384" lon="20.58419">
        <ele>637.941889</ele>
        <time>2022-04-27T10:21:42.757Z</time>
      </trkpt>
      <trkpt lat="41.3839" lon="20.58423">
        <ele>638.317725</ele>
        <time>2022-04-27T10:21:44.745Z</time>
      </trkpt>
      <trkpt lat="41.38379" lon="20.58427">
        <ele>638.689798</ele>
        <time>2022-04-27T10:21:46.748Z</time>
      </trkpt>
      <trkpt lat="41.3837" lon="20.58431">
        <ele>639.038319</ele>
        <time>2022-04-27T10:21:48.738Z</time>
      </trkpt>
      <trkpt lat="41.38358" lon="20.58437">
        <ele>639.472554</ele>
        <time>2022-04-27T10:21:51.767Z</time>
      </trkpt>
      <trkpt lat="41.38346" lon="20.58444">
        <ele>639.917112</ele>
        <time>2022-04-27T10:21:54.744Z</time>
      </trkpt>
      <trkpt lat="41.38338" lon="20.58449">
        <ele>640.235962</ele>
        <time>2022-04-27T10:21:56.748Z</time>
      </trkpt>
      <trkpt lat="41.38327" lon="20.58457">
        <ele>640.652467</ele>
        <time>2022-04-27T10:21:59.741Z</time>
      </trkpt>
      <trkpt lat="41.38317" lon="20.58465">
        <ele>640.793659</ele>
        <time>2022-04-27T10:22:02.779Z</time>
      </trkpt>
      <trkpt lat="41.38306" lon="20.58473">
        <ele>640.909816</ele>
        <time>2022-04-27T10:22:05.739Z</time>
      </trkpt>
      <trkpt lat="41.38298" lon="20.58479">
        <ele>641.000838</ele>
        <time>2022-04-27T10:22:07.740Z</time>
      </trkpt>
      <trkpt lat="41.38288" lon="20.58487">
        <ele>641.118741</ele>
        <time>2022-04-27T10:22:10.742Z</time>
      </trkpt>
      <trkpt lat="41.38277" lon="20.58499">
        <ele>641.252916</ele>
        <time>2022-04-27T10:22:13.743Z</time>
      </trkpt>
      <trkpt lat="41.38268" lon="20.58507">
        <ele>641.365116</ele>
        <time>2022-04-27T10:22:15.748Z</time>
      </trkpt>
      <trkpt lat="41.38259" lon="20.58515">
        <ele>641.465888</ele>
        <time>2022-04-27T10:22:17.745Z</time>
      </trkpt>
      <trkpt lat="41.3825" lon="20.58523">
        <ele>641.572884</ele>
        <time>2022-04-27T10:22:19.749Z</time>
      </trkpt>
      <trkpt lat="41.38242" lon="20.58532">
        <ele>641.679489</ele>
        <time>2022-04-27T10:22:21.747Z</time>
      </trkpt>
      <trkpt lat="41.38233" lon="20.58543">
        <ele>641.7953</ele>
        <time>2022-04-27T10:22:23.776Z</time>
      </trkpt>
      <trkpt lat="41.38225" lon="20.58554">
        <ele>641.910448</ele>
        <time>2022-04-27T10:22:25.753Z</time>
      </trkpt>
      <trkpt lat="41.38217" lon="20.58565">
        <ele>642.023681</ele>
        <time>2022-04-27T10:22:27.745Z</time>
      </trkpt>
      <trkpt lat="41.38209" lon="20.58576">
        <ele>642.135224</ele>
        <time>2022-04-27T10:22:29.736Z</time>
      </trkpt>
      <trkpt lat="41.38202" lon="20.58587">
        <ele>642.242948</ele>
        <time>2022-04-27T10:22:31.743Z</time>
      </trkpt>
      <trkpt lat="41.38195" lon="20.58598">
        <ele>642.350187</ele>
        <time>2022-04-27T10:22:33.734Z</time>
      </trkpt>
      <trkpt lat="41.38188" lon="20.58609">
        <ele>642.416339</ele>
        <time>2022-04-27T10:22:35.741Z</time>
      </trkpt>
      <trkpt lat="41.38182" lon="20.58621">
        <ele>642.090347</ele>
        <time>2022-04-27T10:22:37.737Z</time>
      </trkpt>
      <trkpt lat="41.38175" lon="20.58632">
        <ele>641.77347</ele>
        <time>2022-04-27T10:22:39.735Z</time>
      </trkpt>
      <trkpt lat="41.38168" lon="20.58643">
        <ele>641.445122</ele>
        <time>2022-04-27T10:22:41.748Z</time>
      </trkpt>
      <trkpt lat="41.38161" lon="20.58654">
        <ele>641.11714</ele>
        <time>2022-04-27T10:22:43.735Z</time>
      </trkpt>
      <trkpt lat="41.38155" lon="20.58665">
        <ele>640.792684</ele>
        <time>2022-04-27T10:22:45.765Z</time>
      </trkpt>
      <trkpt lat="41.38148" lon="20.58675">
        <ele>640.482602</ele>
        <time>2022-04-27T10:22:47.738Z</time>
      </trkpt>
      <trkpt lat="41.38143" lon="20.58686">
        <ele>640.188556</ele>
        <time>2022-04-27T10:22:49.731Z</time>
      </trkpt>
      <trkpt lat="41.38137" lon="20.58697">
        <ele>639.898765</ele>
        <time>2022-04-27T10:22:51.757Z</time>
      </trkpt>
      <trkpt lat="41.38132" lon="20.58707">
        <ele>639.623049</ele>
        <time>2022-04-27T10:22:53.734Z</time>
      </trkpt>
      <trkpt lat="41.38126" lon="20.58716">
        <ele>639.343833</ele>
        <time>2022-04-27T10:22:55.776Z</time>
      </trkpt>
      <trkpt lat="41.3812" lon="20.58725">
        <ele>639.067734</ele>
        <time>2022-04-27T10:22:57.748Z</time>
      </trkpt>
      <trkpt lat="41.38114" lon="20.58734">
        <ele>638.789593</ele>
        <time>2022-04-27T10:22:59.822Z</time>
      </trkpt>
      <trkpt lat="41.38108" lon="20.58744">
        <ele>638.503704</ele>
        <time>2022-04-27T10:23:01.764Z</time>
      </trkpt>
      <trkpt lat="41.38102" lon="20.58754">
        <ele>638.214746</ele>
        <time>2022-04-27T10:23:03.756Z</time>
      </trkpt>
      <trkpt lat="41.38093" lon="20.58767">
        <ele>637.818188</ele>
        <time>2022-04-27T10:23:06.770Z</time>
      </trkpt>
      <trkpt lat="41.38084" lon="20.58779">
        <ele>637.41851</ele>
        <time>2022-04-27T10:23:09.781Z</time>
      </trkpt>
      <trkpt lat="41.38075" lon="20.5879">
        <ele>637.044917</ele>
        <time>2022-04-27T10:23:12.781Z</time>
      </trkpt>
      <trkpt lat="41.38066" lon="20.58801">
        <ele>637.438669</ele>
        <time>2022-04-27T10:23:15.780Z</time>
      </trkpt>
      <trkpt lat="41.38058" lon="20.58812">
        <ele>637.920255</ele>
        <time>2022-04-27T10:23:18.768Z</time>
      </trkpt>
      <trkpt lat="41.3805" lon="20.5882">
        <ele>638.358491</ele>
        <time>2022-04-27T10:23:21.771Z</time>
      </trkpt>
      <trkpt lat="41.38043" lon="20.58828">
        <ele>638.758222</ele>
        <time>2022-04-27T10:23:24.748Z</time>
      </trkpt>
      <trkpt lat="41.38035" lon="20.58836">
        <ele>639.174241</ele>
        <time>2022-04-27T10:23:27.770Z</time>
      </trkpt>
      <trkpt lat="41.38026" lon="20.58846">
        <ele>639.675507</ele>
        <time>2022-04-27T10:23:31.780Z</time>
      </trkpt>
      <trkpt lat="41.38017" lon="20.58856">
        <ele>640.171958</ele>
        <time>2022-04-27T10:23:35.763Z</time>
      </trkpt>
      <trkpt lat="41.38007" lon="20.58865">
        <ele>640.684256</ele>
        <time>2022-04-27T10:23:39.763Z</time>
      </trkpt>
      <trkpt lat="41.37999" lon="20.58872">
        <ele>641.118484</ele>
        <time>2022-04-27T10:23:42.771Z</time>
      </trkpt>
      <trkpt lat="41.37991" lon="20.58879">
        <ele>641.53638</ele>
        <time>2022-04-27T10:23:45.764Z</time>
      </trkpt>
      <trkpt lat="41.37982" lon="20.58886">
        <ele>641.983328</ele>
        <time>2022-04-27T10:23:48.758Z</time>
      </trkpt>
      <trkpt lat="41.37972" lon="20.58894">
        <ele>642.44626</ele>
        <time>2022-04-27T10:23:51.774Z</time>
      </trkpt>
      <trkpt lat="41.37963" lon="20.589">
        <ele>642.901237</ele>
        <time>2022-04-27T10:23:54.777Z</time>
      </trkpt>
      <trkpt lat="41.37953" lon="20.58908">
        <ele>643.383852</ele>
        <time>2022-04-27T10:23:57.765Z</time>
      </trkpt>
      <trkpt lat="41.37945" lon="20.58915">
        <ele>643.80325</ele>
        <time>2022-04-27T10:24:00.770Z</time>
      </trkpt>
      <trkpt lat="41.37935" lon="20.58923">
        <ele>644.303613</ele>
        <time>2022-04-27T10:24:03.760Z</time>
      </trkpt>
      <trkpt lat="41.37926" lon="20.58931">
        <ele>644.740544</ele>
        <time>2022-04-27T10:24:06.774Z</time>
      </trkpt>
      <trkpt lat="41.37917" lon="20.58938">
        <ele>645.009803</ele>
        <time>2022-04-27T10:24:09.765Z</time>
      </trkpt>
      <trkpt lat="41.37909" lon="20.58946">
        <ele>645.271585</ele>
        <time>2022-04-27T10:24:12.809Z</time>
      </trkpt>
      <trkpt lat="41.379" lon="20.58954">
        <ele>645.534247</ele>
        <time>2022-04-27T10:24:15.789Z</time>
      </trkpt>
      <trkpt lat="41.37891" lon="20.58961">
        <ele>645.809727</ele>
        <time>2022-04-27T10:24:18.771Z</time>
      </trkpt>
      <trkpt lat="41.37881" lon="20.5897">
        <ele>646.12878</ele>
        <time>2022-04-27T10:24:21.774Z</time>
      </trkpt>
      <trkpt lat="41.37871" lon="20.58981">
        <ele>646.454972</ele>
        <time>2022-04-27T10:24:24.776Z</time>
      </trkpt>
      <trkpt lat="41.37863" lon="20.58989">
        <ele>646.699703</ele>
        <time>2022-04-27T10:24:26.766Z</time>
      </trkpt>
      <trkpt lat="41.37855" lon="20.59">
        <ele>647.004311</ele>
        <time>2022-04-27T10:24:29.804Z</time>
      </trkpt>
      <trkpt lat="41.37847" lon="20.59012">
        <ele>647.29875</ele>
        <time>2022-04-27T10:24:32.762Z</time>
      </trkpt>
      <trkpt lat="41.3784" lon="20.59025">
        <ele>647.611662</ele>
        <time>2022-04-27T10:24:35.766Z</time>
      </trkpt>
      <trkpt lat="41.37833" lon="20.59038">
        <ele>647.917021</ele>
        <time>2022-04-27T10:24:38.768Z</time>
      </trkpt>
      <trkpt lat="41.37826" lon="20.5905">
        <ele>648.213167</ele>
        <time>2022-04-27T10:24:41.758Z</time>
      </trkpt>
      <trkpt lat="41.37819" lon="20.59062">
        <ele>648.503909</ele>
        <time>2022-04-27T10:24:44.756Z</time>
      </trkpt>
      <trkpt lat="41.37813" lon="20.59074">
        <ele>648.777189</ele>
        <time>2022-04-27T10:24:47.783Z</time>
      </trkpt>
      <trkpt lat="41.37809" lon="20.59087">
        <ele>649.059771</ele>
        <time>2022-04-27T10:24:50.758Z</time>
      </trkpt>
      <trkpt lat="41.37804" lon="20.591">
        <ele>649.264003</ele>
        <time>2022-04-27T10:24:53.752Z</time>
      </trkpt>
      <trkpt lat="41.37799" lon="20.59114">
        <ele>648.965122</ele>
        <time>2022-04-27T10:24:56.791Z</time>
      </trkpt>
      <trkpt lat="41.37794" lon="20.59128">
        <ele>648.665489</ele>
        <time>2022-04-27T10:24:59.781Z</time>
      </trkpt>
      <trkpt lat="41.37791" lon="20.59142">
        <ele>648.387897</ele>
        <time>2022-04-27T10:25:02.781Z</time>
      </trkpt>
      <trkpt lat="41.37788" lon="20.59157">
        <ele>648.084452</ele>
        <time>2022-04-27T10:25:05.780Z</time>
      </trkpt>
      <trkpt lat="41.37782" lon="20.59172">
        <ele>647.763269</ele>
        <time>2022-04-27T10:25:08.760Z</time>
      </trkpt>
      <trkpt lat="41.37776" lon="20.59184">
        <ele>647.457463</ele>
        <time>2022-04-27T10:25:11.746Z</time>
      </trkpt>
      <trkpt lat="41.37767" lon="20.59196">
        <ele>647.13703</ele>
        <time>2022-04-27T10:25:14.759Z</time>
      </trkpt>
      <trkpt lat="41.37757" lon="20.59208">
        <ele>646.801519</ele>
        <time>2022-04-27T10:25:17.747Z</time>
      </trkpt>
      <trkpt lat="41.37749" lon="20.59219">
        <ele>646.482533</ele>
        <time>2022-04-27T10:25:20.767Z</time>
      </trkpt>
      <trkpt lat="41.3774" lon="20.59232">
        <ele>646.140045</ele>
        <time>2022-04-27T10:25:23.746Z</time>
      </trkpt>
      <trkpt lat="41.37732" lon="20.59241">
        <ele>645.875759</ele>
        <time>2022-04-27T10:25:25.749Z</time>
      </trkpt>
      <trkpt lat="41.37726" lon="20.5925">
        <ele>645.640907</ele>
        <time>2022-04-27T10:25:27.735Z</time>
      </trkpt>
      <trkpt lat="41.37717" lon="20.59262">
        <ele>645.310855</ele>
        <time>2022-04-27T10:25:30.745Z</time>
      </trkpt>
      <trkpt lat="41.37707" lon="20.59273">
        <ele>644.972585</ele>
        <time>2022-04-27T10:25:33.740Z</time>
      </trkpt>
      <trkpt lat="41.37698" lon="20.59283">
        <ele>644.663209</ele>
        <time>2022-04-27T10:25:36.752Z</time>
      </trkpt>
      <trkpt lat="41.37689" lon="20.59293">
        <ele>644.726353</ele>
        <time>2022-04-27T10:25:39.747Z</time>
      </trkpt>
      <trkpt lat="41.37682" lon="20.593">
        <ele>644.816008</ele>
        <time>2022-04-27T10:25:41.741Z</time>
      </trkpt>
      <trkpt lat="41.37673" lon="20.59307">
        <ele>644.912316</ele>
        <time>2022-04-27T10:25:43.733Z</time>
      </trkpt>
      <trkpt lat="41.37665" lon="20.59314">
        <ele>645.004559</ele>
        <time>2022-04-27T10:25:45.757Z</time>
      </trkpt>
      <trkpt lat="41.37655" lon="20.59323">
        <ele>645.127879</ele>
        <time>2022-04-27T10:25:48.754Z</time>
      </trkpt>
      <trkpt lat="41.37645" lon="20.59334">
        <ele>645.252522</ele>
        <time>2022-04-27T10:25:51.738Z</time>
      </trkpt>
      <trkpt lat="41.37635" lon="20.59344">
        <ele>645.376317</ele>
        <time>2022-04-27T10:25:54.763Z</time>
      </trkpt>
      <trkpt lat="41.37627" lon="20.59351">
        <ele>645.476699</ele>
        <time>2022-04-27T10:25:57.740Z</time>
      </trkpt>
      <trkpt lat="41.37617" lon="20.5936">
        <ele>645.586529</ele>
        <time>2022-04-27T10:26:01.744Z</time>
      </trkpt>
      <trkpt lat="41.37608" lon="20.59368">
        <ele>645.693035</ele>
        <time>2022-04-27T10:26:04.758Z</time>
      </trkpt>
      <trkpt lat="41.37598" lon="20.59376">
        <ele>645.809468</ele>
        <time>2022-04-27T10:26:07.773Z</time>
      </trkpt>
      <trkpt lat="41.37588" lon="20.59384">
        <ele>645.926956</ele>
        <time>2022-04-27T10:26:10.743Z</time>
      </trkpt>
      <trkpt lat="41.3758" lon="20.59391">
        <ele>646.025269</ele>
        <time>2022-04-27T10:26:13.736Z</time>
      </trkpt>
      <trkpt lat="41.37571" lon="20.594">
        <ele>646.130561</ele>
        <time>2022-04-27T10:26:16.736Z</time>
      </trkpt>
      <trkpt lat="41.37561" lon="20.59409">
        <ele>646.250192</ele>
        <time>2022-04-27T10:26:19.740Z</time>
      </trkpt>
      <trkpt lat="41.3755" lon="20.59418">
        <ele>646.376883</ele>
        <time>2022-04-27T10:26:22.755Z</time>
      </trkpt>
      <trkpt lat="41.3754" lon="20.59424">
        <ele>646.722033</ele>
        <time>2022-04-27T10:26:24.737Z</time>
      </trkpt>
      <trkpt lat="41.3753" lon="20.59429">
        <ele>647.108973</ele>
        <time>2022-04-27T10:26:26.751Z</time>
      </trkpt>
      <trkpt lat="41.37519" lon="20.59433">
        <ele>647.520995</ele>
        <time>2022-04-27T10:26:28.743Z</time>
      </trkpt>
      <trkpt lat="41.3751" lon="20.59439">
        <ele>647.860047</ele>
        <time>2022-04-27T10:26:30.745Z</time>
      </trkpt>
      <trkpt lat="41.37501" lon="20.59454">
        <ele>648.370335</ele>
        <time>2022-04-27T10:26:33.737Z</time>
      </trkpt>
      <trkpt lat="41.37497" lon="20.59464">
        <ele>648.694905</ele>
        <time>2022-04-27T10:26:35.735Z</time>
      </trkpt>
      <trkpt lat="41.37488" lon="20.59473">
        <ele>649.073199</ele>
        <time>2022-04-27T10:26:38.750Z</time>
      </trkpt>
      <trkpt lat="41.3748" lon="20.59479">
        <ele>649.413121</ele>
        <time>2022-04-27T10:26:41.740Z</time>
      </trkpt>
      <trkpt lat="41.37472" lon="20.59485">
        <ele>649.746462</ele>
        <time>2022-04-27T10:26:44.760Z</time>
      </trkpt>
      <trkpt lat="41.37462" lon="20.59493">
        <ele>650.148653</ele>
        <time>2022-04-27T10:26:48.750Z</time>
      </trkpt>
      <trkpt lat="41.37454" lon="20.59503">
        <ele>650.539085</ele>
        <time>2022-04-27T10:26:53.740Z</time>
      </trkpt>
      <trkpt lat="41.37446" lon="20.59511">
        <ele>650.919221</ele>
        <time>2022-04-27T10:26:58.739Z</time>
      </trkpt>
      <trkpt lat="41.37437" lon="20.59519">
        <ele>651.288384</ele>
        <time>2022-04-27T10:27:03.736Z</time>
      </trkpt>
      <trkpt lat="41.37429" lon="20.59528">
        <ele>651.662211</ele>
        <time>2022-04-27T10:27:08.772Z</time>
      </trkpt>
      <trkpt lat="41.37422" lon="20.59538">
        <ele>652.045534</ele>
        <time>2022-04-27T10:27:13.747Z</time>
      </trkpt>
      <trkpt lat="41.37413" lon="20.59547">
        <ele>652.431416</ele>
        <time>2022-04-27T10:27:18.749Z</time>
      </trkpt>
      <trkpt lat="41.37404" lon="20.59554">
        <ele>652.807987</ele>
        <time>2022-04-27T10:27:23.743Z</time>
      </trkpt>
      <trkpt lat="41.37395" lon="20.59562">
        <ele>652.624639</ele>
        <time>2022-04-27T10:27:28.753Z</time>
      </trkpt>
      <trkpt lat="41.37386" lon="20.5957">
        <ele>652.404407</ele>
        <time>2022-04-27T10:27:33.745Z</time>
      </trkpt>
      <trkpt lat="41.37377" lon="20.59577">
        <ele>652.181242</ele>
        <time>2022-04-27T10:27:38.737Z</time>
      </trkpt>
      <trkpt lat="41.37367" lon="20.59582">
        <ele>651.958929</ele>
        <time>2022-04-27T10:27:42.738Z</time>
      </trkpt>
      <trkpt lat="41.37357" lon="20.59585">
        <ele>651.745596</ele>
        <time>2022-04-27T10:27:46.738Z</time>
      </trkpt>
      <trkpt lat="41.37347" lon="20.59589">
        <ele>651.545115</ele>
        <time>2022-04-27T10:27:50.744Z</time>
      </trkpt>
      <trkpt lat="41.37337" lon="20.59593">
        <ele>651.315952</ele>
        <time>2022-04-27T10:27:54.751Z</time>
      </trkpt>
      <trkpt lat="41.37326" lon="20.59596">
        <ele>651.099905</ele>
        <time>2022-04-27T10:27:58.743Z</time>
      </trkpt>
      <trkpt lat="41.37315" lon="20.59599">
        <ele>650.867084</ele>
        <time>2022-04-27T10:28:02.737Z</time>
      </trkpt>
      <trkpt lat="41.37304" lon="20.59601">
        <ele>650.625691</ele>
        <time>2022-04-27T10:28:06.753Z</time>
      </trkpt>
      <trkpt lat="41.37294" lon="20.59603">
        <ele>650.420932</ele>
        <time>2022-04-27T10:28:09.740Z</time>
      </trkpt>
      <trkpt lat="41.37283" lon="20.59604">
        <ele>650.198746</ele>
        <time>2022-04-27T10:28:12.740Z</time>
      </trkpt>
      <trkpt lat="41.37274" lon="20.59608">
        <ele>650.00336</ele>
        <time>2022-04-27T10:28:15.742Z</time>
      </trkpt>
      <trkpt lat="41.37266" lon="20.59615">
        <ele>649.795217</ele>
        <time>2022-04-27T10:28:18.751Z</time>
      </trkpt>
      <trkpt lat="41.37258" lon="20.59622">
        <ele>649.605717</ele>
        <time>2022-04-27T10:28:20.740Z</time>
      </trkpt>
      <trkpt lat="41.37249" lon="20.59628">
        <ele>649.390972</ele>
        <time>2022-04-27T10:28:22.738Z</time>
      </trkpt>
      <trkpt lat="41.37239" lon="20.59637">
        <ele>649.15286</ele>
        <time>2022-04-27T10:28:24.748Z</time>
      </trkpt>
      <trkpt lat="41.37231" lon="20.59646">
        <ele>648.876103</ele>
        <time>2022-04-27T10:28:26.738Z</time>
      </trkpt>
      <trkpt lat="41.37224" lon="20.59654">
        <ele>648.623695</ele>
        <time>2022-04-27T10:28:28.745Z</time>
      </trkpt>
      <trkpt lat="41.37216" lon="20.59663">
        <ele>648.34128</ele>
        <time>2022-04-27T10:28:30.747Z</time>
      </trkpt>
      <trkpt lat="41.37208" lon="20.59671">
        <ele>648.069951</ele>
        <time>2022-04-27T10:28:32.746Z</time>
      </trkpt>
      <trkpt lat="41.372" lon="20.5968">
        <ele>647.765945</ele>
        <time>2022-04-27T10:28:35.738Z</time>
      </trkpt>
      <trkpt lat="41.37189" lon="20.59688">
        <ele>647.428376</ele>
        <time>2022-04-27T10:28:38.737Z</time>
      </trkpt>
      <trkpt lat="41.37179" lon="20.59696">
        <ele>647.120772</ele>
        <time>2022-04-27T10:28:41.745Z</time>
      </trkpt>
      <trkpt lat="41.3717" lon="20.59703">
        <ele>646.820216</ele>
        <time>2022-04-27T10:28:44.743Z</time>
      </trkpt>
      <trkpt lat="41.37161" lon="20.59709">
        <ele>646.551685</ele>
        <time>2022-04-27T10:28:47.761Z</time>
      </trkpt>
      <trkpt lat="41.37152" lon="20.59712">
        <ele>646.299718</ele>
        <time>2022-04-27T10:28:50.755Z</time>
      </trkpt>
      <trkpt lat="41.37143" lon="20.59716">
        <ele>646.041284</ele>
        <time>2022-04-27T10:28:53.765Z</time>
      </trkpt>
      <trkpt lat="41.37133" lon="20.59722">
        <ele>645.731715</ele>
        <time>2022-04-27T10:28:57.743Z</time>
      </trkpt>
      <trkpt lat="41.37123" lon="20.59729">
        <ele>645.438839</ele>
        <time>2022-04-27T10:29:01.745Z</time>
      </trkpt>
      <trkpt lat="41.37114" lon="20.59736">
        <ele>645.160015</ele>
        <time>2022-04-27T10:29:05.734Z</time>
      </trkpt>
      <trkpt lat="41.37105" lon="20.59742">
        <ele>644.874725</ele>
        <time>2022-04-27T10:29:09.741Z</time>
      </trkpt>
      <trkpt lat="41.37096" lon="20.59747">
        <ele>644.595383</ele>
        <time>2022-04-27T10:29:12.743Z</time>
      </trkpt>
      <trkpt lat="41.37086" lon="20.59753">
        <ele>644.309356</ele>
        <time>2022-04-27T10:29:15.762Z</time>
      </trkpt>
      <trkpt lat="41.37077" lon="20.59758">
        <ele>644.053743</ele>
        <time>2022-04-27T10:29:18.739Z</time>
      </trkpt>
      <trkpt lat="41.37069" lon="20.59766">
        <ele>643.815543</ele>
        <time>2022-04-27T10:29:21.743Z</time>
      </trkpt>
      <trkpt lat="41.37061" lon="20.59773">
        <ele>643.572149</ele>
        <time>2022-04-27T10:29:24.747Z</time>
      </trkpt>
      <trkpt lat="41.37051" lon="20.59781">
        <ele>643.284897</ele>
        <time>2022-04-27T10:29:27.734Z</time>
      </trkpt>
      <trkpt lat="41.37043" lon="20.59792">
        <ele>643.003395</ele>
        <time>2022-04-27T10:29:30.739Z</time>
      </trkpt>
      <trkpt lat="41.37036" lon="20.598">
        <ele>642.779906</ele>
        <time>2022-04-27T10:29:32.745Z</time>
      </trkpt>
      <trkpt lat="41.37026" lon="20.59812">
        <ele>642.449914</ele>
        <time>2022-04-27T10:29:35.736Z</time>
      </trkpt>
      <trkpt lat="41.37019" lon="20.5982">
        <ele>642.219596</ele>
        <time>2022-04-27T10:29:37.740Z</time>
      </trkpt>
      <trkpt lat="41.37011" lon="20.59829">
        <ele>641.971582</ele>
        <time>2022-04-27T10:29:39.746Z</time>
      </trkpt>
      <trkpt lat="41.37003" lon="20.59839">
        <ele>641.702803</ele>
        <time>2022-04-27T10:29:41.741Z</time>
      </trkpt>
      <trkpt lat="41.36995" lon="20.59849">
        <ele>641.433328</ele>
        <time>2022-04-27T10:29:43.735Z</time>
      </trkpt>
      <trkpt lat="41.36989" lon="20.59859">
        <ele>641.192937</ele>
        <time>2022-04-27T10:29:45.743Z</time>
      </trkpt>
      <trkpt lat="41.36985" lon="20.59871">
        <ele>640.94942</ele>
        <time>2022-04-27T10:29:47.739Z</time>
      </trkpt>
      <trkpt lat="41.3698" lon="20.59883">
        <ele>640.701966</ele>
        <time>2022-04-27T10:29:49.742Z</time>
      </trkpt>
      <trkpt lat="41.36975" lon="20.59893">
        <ele>640.471374</ele>
        <time>2022-04-27T10:29:51.743Z</time>
      </trkpt>
      <trkpt lat="41.3697" lon="20.59904">
        <ele>640.242328</ele>
        <time>2022-04-27T10:29:53.732Z</time>
      </trkpt>
      <trkpt lat="41.36964" lon="20.59917">
        <ele>639.964374</ele>
        <time>2022-04-27T10:29:56.739Z</time>
      </trkpt>
      <trkpt lat="41.3696" lon="20.59931">
        <ele>639.656586</ele>
        <time>2022-04-27T10:29:59.773Z</time>
      </trkpt>
      <trkpt lat="41.36957" lon="20.59946">
        <ele>639.295814</ele>
        <time>2022-04-27T10:30:02.736Z</time>
      </trkpt>
      <trkpt lat="41.36954" lon="20.59959">
        <ele>638.993884</ele>
        <time>2022-04-27T10:30:05.737Z</time>
      </trkpt>
      <trkpt lat="41.36951" lon="20.59971">
        <ele>638.695718</ele>
        <time>2022-04-27T10:30:08.740Z</time>
      </trkpt>
      <trkpt lat="41.36948" lon="20.59986">
        <ele>638.351392</ele>
        <time>2022-04-27T10:30:11.740Z</time>
      </trkpt>
      <trkpt lat="41.36947" lon="20.60002">
        <ele>637.977119</ele>
        <time>2022-04-27T10:30:14.744Z</time>
      </trkpt>
      <trkpt lat="41.36944" lon="20.60017">
        <ele>637.612589</ele>
        <time>2022-04-27T10:30:17.740Z</time>
      </trkpt>
      <trkpt lat="41.36942" lon="20.60032">
        <ele>637.263778</ele>
        <time>2022-04-27T10:30:20.741Z</time>
      </trkpt>
      <trkpt lat="41.36942" lon="20.60046">
        <ele>636.938868</ele>
        <time>2022-04-27T10:30:23.746Z</time>
      </trkpt>
      <trkpt lat="41.36943" lon="20.6006">
        <ele>636.624665</ele>
        <time>2022-04-27T10:30:26.743Z</time>
      </trkpt>
      <trkpt lat="41.36942" lon="20.60073">
        <ele>636.323861</ele>
        <time>2022-04-27T10:30:29.738Z</time>
      </trkpt>
      <trkpt lat="41.36941" lon="20.60088">
        <ele>635.959011</ele>
        <time>2022-04-27T10:30:33.753Z</time>
      </trkpt>
      <trkpt lat="41.36939" lon="20.60102">
        <ele>635.643194</ele>
        <time>2022-04-27T10:30:36.738Z</time>
      </trkpt>
      <trkpt lat="41.36937" lon="20.60117">
        <ele>635.29854</ele>
        <time>2022-04-27T10:30:39.737Z</time>
      </trkpt>
      <trkpt lat="41.36937" lon="20.60131">
        <ele>634.976579</ele>
        <time>2022-04-27T10:30:42.742Z</time>
      </trkpt>
      <trkpt lat="41.36937" lon="20.60144">
        <ele>634.658743</ele>
        <time>2022-04-27T10:30:45.738Z</time>
      </trkpt>
      <trkpt lat="41.36934" lon="20.60157">
        <ele>634.3623</ele>
        <time>2022-04-27T10:30:48.763Z</time>
      </trkpt>
      <trkpt lat="41.36927" lon="20.6017">
        <ele>634.458329</ele>
        <time>2022-04-27T10:30:51.741Z</time>
      </trkpt>
      <trkpt lat="41.36919" lon="20.60182">
        <ele>634.700286</ele>
        <time>2022-04-27T10:30:54.756Z</time>
      </trkpt>
      <trkpt lat="41.36912" lon="20.60196">
        <ele>634.939999</ele>
        <time>2022-04-27T10:30:57.734Z</time>
      </trkpt>
      <trkpt lat="41.36903" lon="20.60208">
        <ele>635.184605</ele>
        <time>2022-04-27T10:31:00.741Z</time>
      </trkpt>
      <trkpt lat="41.36897" lon="20.60218">
        <ele>635.371169</ele>
        <time>2022-04-27T10:31:03.737Z</time>
      </trkpt>
      <trkpt lat="41.36891" lon="20.60226">
        <ele>635.548631</ele>
        <time>2022-04-27T10:31:06.739Z</time>
      </trkpt>
      <trkpt lat="41.36886" lon="20.60238">
        <ele>635.743841</ele>
        <time>2022-04-27T10:31:09.739Z</time>
      </trkpt>
      <trkpt lat="41.3688" lon="20.60249">
        <ele>635.939817</ele>
        <time>2022-04-27T10:31:12.739Z</time>
      </trkpt>
      <trkpt lat="41.36876" lon="20.60262">
        <ele>636.141122</ele>
        <time>2022-04-27T10:31:15.742Z</time>
      </trkpt>
      <trkpt lat="41.36872" lon="20.60276">
        <ele>636.360042</ele>
        <time>2022-04-27T10:31:18.745Z</time>
      </trkpt>
      <trkpt lat="41.36867" lon="20.60288">
        <ele>636.567431</ele>
        <time>2022-04-27T10:31:21.740Z</time>
      </trkpt>
      <trkpt lat="41.36862" lon="20.60301">
        <ele>636.782211</ele>
        <time>2022-04-27T10:31:24.737Z</time>
      </trkpt>
      <trkpt lat="41.36854" lon="20.60315">
        <ele>637.032397</ele>
        <time>2022-04-27T10:31:27.736Z</time>
      </trkpt>
      <trkpt lat="41.36848" lon="20.60325">
        <ele>637.218252</ele>
        <time>2022-04-27T10:31:29.740Z</time>
      </trkpt>
      <trkpt lat="41.36841" lon="20.60341">
        <ele>637.480365</ele>
        <time>2022-04-27T10:31:32.743Z</time>
      </trkpt>
      <trkpt lat="41.36836" lon="20.60352">
        <ele>637.684065</ele>
        <time>2022-04-27T10:31:35.735Z</time>
      </trkpt>
      <trkpt lat="41.36828" lon="20.60364">
        <ele>638.091623</ele>
        <time>2022-04-27T10:31:38.753Z</time>
      </trkpt>
      <trkpt lat="41.3682" lon="20.60375">
        <ele>638.688205</ele>
        <time>2022-04-27T10:31:41.739Z</time>
      </trkpt>
      <trkpt lat="41.36811" lon="20.60386">
        <ele>639.251507</ele>
        <time>2022-04-27T10:31:44.773Z</time>
      </trkpt>
      <trkpt lat="41.36801" lon="20.60394">
        <ele>639.833514</ele>
        <time>2022-04-27T10:31:47.737Z</time>
      </trkpt>
      <trkpt lat="41.36793" lon="20.60402">
        <ele>640.288963</ele>
        <time>2022-04-27T10:31:50.744Z</time>
      </trkpt>
      <trkpt lat="41.36784" lon="20.60409">
        <ele>640.792652</ele>
        <time>2022-04-27T10:31:53.739Z</time>
      </trkpt>
      <trkpt lat="41.36776" lon="20.60415">
        <ele>641.247749</ele>
        <time>2022-04-27T10:31:56.739Z</time>
      </trkpt>
      <trkpt lat="41.36766" lon="20.6042">
        <ele>641.779433</ele>
        <time>2022-04-27T10:32:00.744Z</time>
      </trkpt>
      <trkpt lat="41.36754" lon="20.60423">
        <ele>642.355859</ele>
        <time>2022-04-27T10:32:04.745Z</time>
      </trkpt>
      <trkpt lat="41.36742" lon="20.60426">
        <ele>642.918025</ele>
        <time>2022-04-27T10:32:08.751Z</time>
      </trkpt>
      <trkpt lat="41.36731" lon="20.60429">
        <ele>643.449723</ele>
        <time>2022-04-27T10:32:12.736Z</time>
      </trkpt>
      <trkpt lat="41.36721" lon="20.6043">
        <ele>643.958673</ele>
        <time>2022-04-27T10:32:15.736Z</time>
      </trkpt>
      <trkpt lat="41.3671" lon="20.60432">
        <ele>644.497162</ele>
        <time>2022-04-27T10:32:19.740Z</time>
      </trkpt>
      <trkpt lat="41.36698" lon="20.60434">
        <ele>645.078763</ele>
        <time>2022-04-27T10:32:23.744Z</time>
      </trkpt>
      <trkpt lat="41.36686" lon="20.60437">
        <ele>645.666092</ele>
        <time>2022-04-27T10:32:26.743Z</time>
      </trkpt>
      <trkpt lat="41.36674" lon="20.60442">
        <ele>646.272525</ele>
        <time>2022-04-27T10:32:29.745Z</time>
      </trkpt>
      <trkpt lat="41.36663" lon="20.60449">
        <ele>646.61467</ele>
        <time>2022-04-27T10:32:32.771Z</time>
      </trkpt>
      <trkpt lat="41.36654" lon="20.60454">
        <ele>646.789801</ele>
        <time>2022-04-27T10:32:34.740Z</time>
      </trkpt>
      <trkpt lat="41.36646" lon="20.60459">
        <ele>646.959397</ele>
        <time>2022-04-27T10:32:36.738Z</time>
      </trkpt>
      <trkpt lat="41.36634" lon="20.60468">
        <ele>647.200786</ele>
        <time>2022-04-27T10:32:39.735Z</time>
      </trkpt>
      <trkpt lat="41.36626" lon="20.60472">
        <ele>647.378368</ele>
        <time>2022-04-27T10:32:41.748Z</time>
      </trkpt>
      <trkpt lat="41.36615" lon="20.60481">
        <ele>647.607023</ele>
        <time>2022-04-27T10:32:44.741Z</time>
      </trkpt>
      <trkpt lat="41.36603" lon="20.60488">
        <ele>647.858214</ele>
        <time>2022-04-27T10:32:47.739Z</time>
      </trkpt>
      <trkpt lat="41.36593" lon="20.60492">
        <ele>648.050258</ele>
        <time>2022-04-27T10:32:50.739Z</time>
      </trkpt>
      <trkpt lat="41.36584" lon="20.60496">
        <ele>648.225114</ele>
        <time>2022-04-27T10:32:54.739Z</time>
      </trkpt>
      <trkpt lat="41.36573" lon="20.60503">
        <ele>648.45699</ele>
        <time>2022-04-27T10:32:58.742Z</time>
      </trkpt>
      <trkpt lat="41.36563" lon="20.60506">
        <ele>648.648066</ele>
        <time>2022-04-27T10:33:01.745Z</time>
      </trkpt>
      <trkpt lat="41.36554" lon="20.60508">
        <ele>648.81828</ele>
        <time>2022-04-27T10:33:04.767Z</time>
      </trkpt>
      <trkpt lat="41.36544" lon="20.60509">
        <ele>648.993996</ele>
        <time>2022-04-27T10:33:08.742Z</time>
      </trkpt>
      <trkpt lat="41.36534" lon="20.60509">
        <ele>649.180804</ele>
        <time>2022-04-27T10:33:12.735Z</time>
      </trkpt>
      <trkpt lat="41.36525" lon="20.60507">
        <ele>649.349405</ele>
        <time>2022-04-27T10:33:15.734Z</time>
      </trkpt>
      <trkpt lat="41.36513" lon="20.60506">
        <ele>649.579953</ele>
        <time>2022-04-27T10:33:18.755Z</time>
      </trkpt>
      <trkpt lat="41.36501" lon="20.60503">
        <ele>649.803279</ele>
        <time>2022-04-27T10:33:21.765Z</time>
      </trkpt>
      <trkpt lat="41.3649" lon="20.60501">
        <ele>649.849329</ele>
        <time>2022-04-27T10:33:23.749Z</time>
      </trkpt>
      <trkpt lat="41.3648" lon="20.60499">
        <ele>649.896866</ele>
        <time>2022-04-27T10:33:25.735Z</time>
      </trkpt>
      <trkpt lat="41.36468" lon="20.60497">
        <ele>649.949075</ele>
        <time>2022-04-27T10:33:27.731Z</time>
      </trkpt>
      <trkpt lat="41.36457" lon="20.60494">
        <ele>649.997736</ele>
        <time>2022-04-27T10:33:29.738Z</time>
      </trkpt>
      <trkpt lat="41.36447" lon="20.60489">
        <ele>650.044681</ele>
        <time>2022-04-27T10:33:32.746Z</time>
      </trkpt>
      <trkpt lat="41.36439" lon="20.60481">
        <ele>650.088121</ele>
        <time>2022-04-27T10:33:35.734Z</time>
      </trkpt>
      <trkpt lat="41.3643" lon="20.60474">
        <ele>650.13371</ele>
        <time>2022-04-27T10:33:38.744Z</time>
      </trkpt>
      <trkpt lat="41.36421" lon="20.60471">
        <ele>650.174525</ele>
        <time>2022-04-27T10:33:40.738Z</time>
      </trkpt>
      <trkpt lat="41.36412" lon="20.60467">
        <ele>650.218242</ele>
        <time>2022-04-27T10:33:42.747Z</time>
      </trkpt>
      <trkpt lat="41.364" lon="20.6046">
        <ele>650.273462</ele>
        <time>2022-04-27T10:33:45.737Z</time>
      </trkpt>
      <trkpt lat="41.3639" lon="20.60455">
        <ele>650.322168</ele>
        <time>2022-04-27T10:33:48.737Z</time>
      </trkpt>
      <trkpt lat="41.3638" lon="20.60458">
        <ele>650.363702</ele>
        <time>2022-04-27T10:33:50.743Z</time>
      </trkpt>
      <trkpt lat="41.36368" lon="20.60453">
        <ele>650.420653</ele>
        <time>2022-04-27T10:33:53.747Z</time>
      </trkpt>
      <trkpt lat="41.36357" lon="20.60446">
        <ele>650.474307</ele>
        <time>2022-04-27T10:33:56.750Z</time>
      </trkpt>
      <trkpt lat="41.36347" lon="20.6044">
        <ele>650.519919</ele>
        <time>2022-04-27T10:33:59.744Z</time>
      </trkpt>
      <trkpt lat="41.36339" lon="20.60432">
        <ele>650.564413</ele>
        <time>2022-04-27T10:34:02.740Z</time>
      </trkpt>
      <trkpt lat="41.36331" lon="20.60424">
        <ele>650.568134</ele>
        <time>2022-04-27T10:34:05.733Z</time>
      </trkpt>
      <trkpt lat="41.36323" lon="20.60416">
        <ele>650.521854</ele>
        <time>2022-04-27T10:34:08.747Z</time>
      </trkpt>
      <trkpt lat="41.36312" lon="20.60413">
        <ele>650.472835</ele>
        <time>2022-04-27T10:34:11.737Z</time>
      </trkpt>
      <trkpt lat="41.36299" lon="20.6041">
        <ele>650.414976</ele>
        <time>2022-04-27T10:34:14.741Z</time>
      </trkpt>
      <trkpt lat="41.36288" lon="20.60408">
        <ele>650.363701</ele>
        <time>2022-04-27T10:34:17.759Z</time>
      </trkpt>
      <trkpt lat="41.36276" lon="20.60408">
        <ele>650.313648</ele>
        <time>2022-04-27T10:34:20.739Z</time>
      </trkpt>
      <trkpt lat="41.36266" lon="20.60406">
        <ele>650.268621</ele>
        <time>2022-04-27T10:34:23.738Z</time>
      </trkpt>
      <trkpt lat="41.36255" lon="20.60403">
        <ele>650.216344</ele>
        <time>2022-04-27T10:34:27.735Z</time>
      </trkpt>
      <trkpt lat="41.36245" lon="20.60399">
        <ele>650.169127</ele>
        <time>2022-04-27T10:34:30.744Z</time>
      </trkpt>
      <trkpt lat="41.36235" lon="20.60392">
        <ele>650.118425</ele>
        <time>2022-04-27T10:34:33.746Z</time>
      </trkpt>
      <trkpt lat="41.36228" lon="20.60382">
        <ele>650.07294</ele>
        <time>2022-04-27T10:34:36.755Z</time>
      </trkpt>
      <trkpt lat="41.36221" lon="20.60374">
        <ele>650.032181</ele>
        <time>2022-04-27T10:34:39.767Z</time>
      </trkpt>
      <trkpt lat="41.36215" lon="20.6036">
        <ele>649.977605</ele>
        <time>2022-04-27T10:34:43.733Z</time>
      </trkpt>
      <trkpt lat="41.3621" lon="20.60349">
        <ele>649.932518</ele>
        <time>2022-04-27T10:34:46.745Z</time>
      </trkpt>
      <trkpt lat="41.36203" lon="20.60339">
        <ele>649.88733</ele>
        <time>2022-04-27T10:34:49.734Z</time>
      </trkpt>
      <trkpt lat="41.36196" lon="20.60329">
        <ele>649.842284</ele>
        <time>2022-04-27T10:34:52.744Z</time>
      </trkpt>
      <trkpt lat="41.36189" lon="20.6032">
        <ele>649.79887</ele>
        <time>2022-04-27T10:34:55.734Z</time>
      </trkpt>
      <trkpt lat="41.36181" lon="20.60312">
        <ele>649.625516</ele>
        <time>2022-04-27T10:34:58.745Z</time>
      </trkpt>
      <trkpt lat="41.36174" lon="20.60305">
        <ele>649.395997</ele>
        <time>2022-04-27T10:35:01.769Z</time>
      </trkpt>
      <trkpt lat="41.36164" lon="20.60299">
        <ele>649.148803</ele>
        <time>2022-04-27T10:35:04.738Z</time>
      </trkpt>
      <trkpt lat="41.36153" lon="20.60296">
        <ele>648.867855</ele>
        <time>2022-04-27T10:35:08.743Z</time>
      </trkpt>
      <trkpt lat="41.36141" lon="20.60296">
        <ele>648.575927</ele>
        <time>2022-04-27T10:35:12.772Z</time>
      </trkpt>
      <trkpt lat="41.36132" lon="20.60296">
        <ele>648.338138</ele>
        <time>2022-04-27T10:35:15.742Z</time>
      </trkpt>
      <trkpt lat="41.3612" lon="20.60297">
        <ele>648.043272</ele>
        <time>2022-04-27T10:35:19.739Z</time>
      </trkpt>
      <trkpt lat="41.36109" lon="20.60298">
        <ele>647.768558</ele>
        <time>2022-04-27T10:35:22.739Z</time>
      </trkpt>
      <trkpt lat="41.36099" lon="20.60298">
        <ele>647.540568</ele>
        <time>2022-04-27T10:35:25.744Z</time>
      </trkpt>
      <trkpt lat="41.36088" lon="20.60297">
        <ele>647.255911</ele>
        <time>2022-04-27T10:35:29.744Z</time>
      </trkpt>
      <trkpt lat="41.36075" lon="20.60296">
        <ele>646.949035</ele>
        <time>2022-04-27T10:35:32.760Z</time>
      </trkpt>
      <trkpt lat="41.36063" lon="20.60298">
        <ele>646.643808</ele>
        <time>2022-04-27T10:35:34.757Z</time>
      </trkpt>
      <trkpt lat="41.36052" lon="20.60301">
        <ele>646.378022</ele>
        <time>2022-04-27T10:35:36.742Z</time>
      </trkpt>
      <trkpt lat="41.36039" lon="20.60303">
        <ele>646.060741</ele>
        <time>2022-04-27T10:35:39.742Z</time>
      </trkpt>
      <trkpt lat="41.36026" lon="20.60302">
        <ele>645.744459</ele>
        <time>2022-04-27T10:35:42.739Z</time>
      </trkpt>
      <trkpt lat="41.36014" lon="20.60302">
        <ele>645.440459</ele>
        <time>2022-04-27T10:35:45.737Z</time>
      </trkpt>
      <trkpt lat="41.36002" lon="20.60305">
        <ele>645.49158</ele>
        <time>2022-04-27T10:35:48.745Z</time>
      </trkpt>
      <trkpt lat="41.35993" lon="20.60307">
        <ele>645.600321</ele>
        <time>2022-04-27T10:35:50.749Z</time>
      </trkpt>
      <trkpt lat="41.3598" lon="20.60311">
        <ele>645.752164</ele>
        <time>2022-04-27T10:35:53.743Z</time>
      </trkpt>
      <trkpt lat="41.35972" lon="20.60314">
        <ele>645.859492</ele>
        <time>2022-04-27T10:35:55.742Z</time>
      </trkpt>
      <trkpt lat="41.3596" lon="20.60319">
        <ele>646.00848</ele>
        <time>2022-04-27T10:35:58.736Z</time>
      </trkpt>
      <trkpt lat="41.35948" lon="20.60327">
        <ele>646.16424</ele>
        <time>2022-04-27T10:36:01.738Z</time>
      </trkpt>
      <trkpt lat="41.35939" lon="20.60332">
        <ele>646.278715</ele>
        <time>2022-04-27T10:36:03.745Z</time>
      </trkpt>
      <trkpt lat="41.35932" lon="20.60339">
        <ele>646.390796</ele>
        <time>2022-04-27T10:36:05.733Z</time>
      </trkpt>
      <trkpt lat="41.35924" lon="20.60348">
        <ele>646.509312</ele>
        <time>2022-04-27T10:36:07.744Z</time>
      </trkpt>
      <trkpt lat="41.35917" lon="20.60362">
        <ele>646.660982</ele>
        <time>2022-04-27T10:36:10.742Z</time>
      </trkpt>
      <trkpt lat="41.35911" lon="20.60375">
        <ele>646.792197</ele>
        <time>2022-04-27T10:36:13.736Z</time>
      </trkpt>
      <trkpt lat="41.35906" lon="20.60389">
        <ele>646.940727</ele>
        <time>2022-04-27T10:36:16.745Z</time>
      </trkpt>
      <trkpt lat="41.35901" lon="20.60403">
        <ele>647.07408</ele>
        <time>2022-04-27T10:36:19.763Z</time>
      </trkpt>
      <trkpt lat="41.35897" lon="20.60414">
        <ele>647.185276</ele>
        <time>2022-04-27T10:36:22.755Z</time>
      </trkpt>
      <trkpt lat="41.35892" lon="20.60425">
        <ele>647.301845</ele>
        <time>2022-04-27T10:36:25.745Z</time>
      </trkpt>
      <trkpt lat="41.35886" lon="20.60436">
        <ele>647.422319</ele>
        <time>2022-04-27T10:36:28.748Z</time>
      </trkpt>
      <trkpt lat="41.3588" lon="20.60447">
        <ele>647.508974</ele>
        <time>2022-04-27T10:36:31.739Z</time>
      </trkpt>
      <trkpt lat="41.35873" lon="20.60458">
        <ele>647.447622</ele>
        <time>2022-04-27T10:36:35.734Z</time>
      </trkpt>
      <trkpt lat="41.35867" lon="20.60468">
        <ele>647.39362</ele>
        <time>2022-04-27T10:36:38.773Z</time>
      </trkpt>
      <trkpt lat="41.35862" lon="20.60479">
        <ele>647.337302</ele>
        <time>2022-04-27T10:36:41.759Z</time>
      </trkpt>
      <trkpt lat="41.35854" lon="20.60491">
        <ele>647.270784</ele>
        <time>2022-04-27T10:36:44.763Z</time>
      </trkpt>
      <trkpt lat="41.35847" lon="20.60505">
        <ele>647.200338</ele>
        <time>2022-04-27T10:36:47.735Z</time>
      </trkpt>
      <trkpt lat="41.3584" lon="20.60514">
        <ele>647.149178</ele>
        <time>2022-04-27T10:36:49.737Z</time>
      </trkpt>
      <trkpt lat="41.35832" lon="20.60527">
        <ele>647.078674</ele>
        <time>2022-04-27T10:36:52.772Z</time>
      </trkpt>
      <trkpt lat="41.35825" lon="20.6054">
        <ele>647.006224</ele>
        <time>2022-04-27T10:36:55.738Z</time>
      </trkpt>
      <trkpt lat="41.35816" lon="20.60554">
        <ele>646.931386</ele>
        <time>2022-04-27T10:36:58.737Z</time>
      </trkpt>
      <trkpt lat="41.35811" lon="20.60564">
        <ele>646.879151</ele>
        <time>2022-04-27T10:37:00.748Z</time>
      </trkpt>
      <trkpt lat="41.35804" lon="20.60579">
        <ele>646.807702</ele>
        <time>2022-04-27T10:37:03.764Z</time>
      </trkpt>
      <trkpt lat="41.358" lon="20.60593">
        <ele>646.744081</ele>
        <time>2022-04-27T10:37:06.738Z</time>
      </trkpt>
      <trkpt lat="41.35794" lon="20.60607">
        <ele>646.677755</ele>
        <time>2022-04-27T10:37:09.732Z</time>
      </trkpt>
      <trkpt lat="41.35788" lon="20.60619">
        <ele>646.613923</ele>
        <time>2022-04-27T10:37:12.735Z</time>
      </trkpt>
      <trkpt lat="41.35781" lon="20.60631">
        <ele>646.549542</ele>
        <time>2022-04-27T10:37:15.741Z</time>
      </trkpt>
      <trkpt lat="41.35775" lon="20.60643">
        <ele>646.712052</ele>
        <time>2022-04-27T10:37:18.740Z</time>
      </trkpt>
      <trkpt lat="41.35768" lon="20.60654">
        <ele>647.278567</ele>
        <time>2022-04-27T10:37:21.749Z</time>
      </trkpt>
      <trkpt lat="41.35761" lon="20.60664">
        <ele>647.816276</ele>
        <time>2022-04-27T10:37:24.737Z</time>
      </trkpt>
      <trkpt lat="41.35754" lon="20.60675">
        <ele>648.408568</ele>
        <time>2022-04-27T10:37:27.733Z</time>
      </trkpt>
      <trkpt lat="41.35745" lon="20.60688">
        <ele>649.072599</ele>
        <time>2022-04-27T10:37:30.761Z</time>
      </trkpt>
      <trkpt lat="41.35736" lon="20.60699">
        <ele>649.735344</ele>
        <time>2022-04-27T10:37:33.744Z</time>
      </trkpt>
      <trkpt lat="41.35726" lon="20.6071">
        <ele>650.433884</ele>
        <time>2022-04-27T10:37:36.765Z</time>
      </trkpt>
      <trkpt lat="41.35716" lon="20.60721">
        <ele>651.087647</ele>
        <time>2022-04-27T10:37:39.752Z</time>
      </trkpt>
      <trkpt lat="41.35707" lon="20.60731">
        <ele>651.746309</ele>
        <time>2022-04-27T10:37:42.737Z</time>
      </trkpt>
      <trkpt lat="41.35698" lon="20.60741">
        <ele>652.374708</ele>
        <time>2022-04-27T10:37:45.733Z</time>
      </trkpt>
      <trkpt lat="41.35688" lon="20.60751">
        <ele>653.024308</ele>
        <time>2022-04-27T10:37:48.750Z</time>
      </trkpt>
      <trkpt lat="41.35678" lon="20.60761">
        <ele>653.648694</ele>
        <time>2022-04-27T10:37:51.736Z</time>
      </trkpt>
      <trkpt lat="41.35669" lon="20.6077">
        <ele>654.254388</ele>
        <time>2022-04-27T10:37:54.748Z</time>
      </trkpt>
      <trkpt lat="41.35662" lon="20.60779">
        <ele>654.804921</ele>
        <time>2022-04-27T10:37:57.739Z</time>
      </trkpt>
      <trkpt lat="41.35653" lon="20.60788">
        <ele>655.376842</ele>
        <time>2022-04-27T10:38:00.747Z</time>
      </trkpt>
      <trkpt lat="41.35645" lon="20.60796">
        <ele>655.883227</ele>
        <time>2022-04-27T10:38:03.736Z</time>
      </trkpt>
      <trkpt lat="41.35636" lon="20.60806">
        <ele>655.765513</ele>
        <time>2022-04-27T10:38:07.737Z</time>
      </trkpt>
      <trkpt lat="41.3563" lon="20.60814">
        <ele>655.483963</ele>
        <time>2022-04-27T10:38:10.742Z</time>
      </trkpt>
      <trkpt lat="41.3562" lon="20.60824">
        <ele>655.124148</ele>
        <time>2022-04-27T10:38:14.743Z</time>
      </trkpt>
      <trkpt lat="41.35611" lon="20.60833">
        <ele>654.773287</ele>
        <time>2022-04-27T10:38:18.739Z</time>
      </trkpt>
      <trkpt lat="41.35604" lon="20.60841">
        <ele>654.487237</ele>
        <time>2022-04-27T10:38:21.738Z</time>
      </trkpt>
      <trkpt lat="41.35595" lon="20.60849">
        <ele>654.157231</ele>
        <time>2022-04-27T10:38:24.740Z</time>
      </trkpt>
      <trkpt lat="41.35586" lon="20.60858">
        <ele>653.818042</ele>
        <time>2022-04-27T10:38:27.734Z</time>
      </trkpt>
      <trkpt lat="41.35578" lon="20.60867">
        <ele>653.510741</ele>
        <time>2022-04-27T10:38:30.741Z</time>
      </trkpt>
      <trkpt lat="41.3557" lon="20.60875">
        <ele>653.211905</ele>
        <time>2022-04-27T10:38:33.741Z</time>
      </trkpt>
      <trkpt lat="41.35562" lon="20.60883">
        <ele>652.903212</ele>
        <time>2022-04-27T10:38:36.739Z</time>
      </trkpt>
      <trkpt lat="41.35554" lon="20.6089">
        <ele>652.622126</ele>
        <time>2022-04-27T10:38:39.734Z</time>
      </trkpt>
      <trkpt lat="41.35546" lon="20.60901">
        <ele>652.285449</ele>
        <time>2022-04-27T10:38:43.744Z</time>
      </trkpt>
      <trkpt lat="41.35543" lon="20.60912">
        <ele>651.993782</ele>
        <time>2022-04-27T10:38:46.744Z</time>
      </trkpt>
      <trkpt lat="41.35539" lon="20.60924">
        <ele>651.704507</ele>
        <time>2022-04-27T10:38:50.744Z</time>
      </trkpt>
      <trkpt lat="41.35527" lon="20.6093">
        <ele>651.321207</ele>
        <time>2022-04-27T10:40:06.753Z</time>
      </trkpt>
      <trkpt lat="41.35521" lon="20.60949">
        <ele>650.85716</ele>
        <time>2022-04-27T10:40:48.753Z</time>
      </trkpt>
      <trkpt lat="41.35523" lon="20.60937">
        <ele>650.606894</ele>
        <time>2022-04-27T11:04:28.757Z</time>
      </trkpt>
      <trkpt lat="41.35516" lon="20.60954">
        <ele>651.51331</ele>
        <time>2022-04-27T11:07:38.739Z</time>
      </trkpt>
      <trkpt lat="41.35511" lon="20.60969">
        <ele>652.239473</ele>
        <time>2022-04-27T11:07:42.747Z</time>
      </trkpt>
      <trkpt lat="41.35507" lon="20.60982">
        <ele>652.918824</ele>
        <time>2022-04-27T11:07:46.739Z</time>
      </trkpt>
      <trkpt lat="41.35503" lon="20.60997">
        <ele>653.622998</ele>
        <time>2022-04-27T11:07:51.742Z</time>
      </trkpt>
      <trkpt lat="41.35498" lon="20.6101">
        <ele>654.308695</ele>
        <time>2022-04-27T11:07:55.743Z</time>
      </trkpt>
      <trkpt lat="41.35493" lon="20.61024">
        <ele>654.989045</ele>
        <time>2022-04-27T11:07:59.740Z</time>
      </trkpt>
      <trkpt lat="41.35488" lon="20.61034">
        <ele>655.553171</ele>
        <time>2022-04-27T11:08:02.744Z</time>
      </trkpt>
      <trkpt lat="41.35484" lon="20.61048">
        <ele>656.259459</ele>
        <time>2022-04-27T11:08:06.742Z</time>
      </trkpt>
      <trkpt lat="41.3548" lon="20.61059">
        <ele>656.809329</ele>
        <time>2022-04-27T11:08:09.738Z</time>
      </trkpt>
      <trkpt lat="41.35476" lon="20.61072">
        <ele>657.457366</ele>
        <time>2022-04-27T11:08:13.738Z</time>
      </trkpt>
      <trkpt lat="41.35473" lon="20.61084">
        <ele>658.015071</ele>
        <time>2022-04-27T11:08:16.768Z</time>
      </trkpt>
      <trkpt lat="41.3547" lon="20.61096">
        <ele>658.615499</ele>
        <time>2022-04-27T11:08:19.737Z</time>
      </trkpt>
      <trkpt lat="41.35467" lon="20.61108">
        <ele>659.201108</ele>
        <time>2022-04-27T11:08:22.738Z</time>
      </trkpt>
      <trkpt lat="41.35465" lon="20.61121">
        <ele>659.780598</ele>
        <time>2022-04-27T11:08:25.749Z</time>
      </trkpt>
      <trkpt lat="41.35463" lon="20.61135">
        <ele>660.466279</ele>
        <time>2022-04-27T11:08:29.740Z</time>
      </trkpt>
      <trkpt lat="41.3546" lon="20.6115">
        <ele>661.164576</ele>
        <time>2022-04-27T11:08:33.739Z</time>
      </trkpt>
      <trkpt lat="41.3546" lon="20.61163">
        <ele>661.633461</ele>
        <time>2022-04-27T11:08:36.738Z</time>
      </trkpt>
      <trkpt lat="41.35459" lon="20.61177">
        <ele>661.899838</ele>
        <time>2022-04-27T11:08:40.739Z</time>
      </trkpt>
      <trkpt lat="41.35459" lon="20.6119">
        <ele>662.127507</ele>
        <time>2022-04-27T11:08:43.735Z</time>
      </trkpt>
      <trkpt lat="41.35458" lon="20.61203">
        <ele>662.365132</ele>
        <time>2022-04-27T11:08:46.733Z</time>
      </trkpt>
      <trkpt lat="41.35456" lon="20.61216">
        <ele>662.60207</ele>
        <time>2022-04-27T11:08:49.744Z</time>
      </trkpt>
      <trkpt lat="41.35454" lon="20.61229">
        <ele>662.82749</ele>
        <time>2022-04-27T11:08:52.748Z</time>
      </trkpt>
      <trkpt lat="41.35453" lon="20.6124">
        <ele>663.043159</ele>
        <time>2022-04-27T11:08:55.768Z</time>
      </trkpt>
      <trkpt lat="41.35452" lon="20.61253">
        <ele>663.262724</ele>
        <time>2022-04-27T11:08:58.743Z</time>
      </trkpt>
      <trkpt lat="41.3545" lon="20.61266">
        <ele>663.498652</ele>
        <time>2022-04-27T11:09:01.732Z</time>
      </trkpt>
      <trkpt lat="41.35449" lon="20.61281">
        <ele>663.774986</ele>
        <time>2022-04-27T11:09:04.729Z</time>
      </trkpt>
      <trkpt lat="41.35447" lon="20.61297">
        <ele>664.065009</ele>
        <time>2022-04-27T11:09:07.738Z</time>
      </trkpt>
      <trkpt lat="41.35446" lon="20.61312">
        <ele>664.345071</ele>
        <time>2022-04-27T11:09:10.734Z</time>
      </trkpt>
      <trkpt lat="41.35443" lon="20.61327">
        <ele>664.620804</ele>
        <time>2022-04-27T11:09:13.741Z</time>
      </trkpt>
      <trkpt lat="41.35443" lon="20.61343">
        <ele>664.897293</ele>
        <time>2022-04-27T11:09:16.732Z</time>
      </trkpt>
      <trkpt lat="41.35439" lon="20.61357">
        <ele>665.167271</ele>
        <time>2022-04-27T11:09:19.739Z</time>
      </trkpt>
      <trkpt lat="41.35436" lon="20.61372">
        <ele>665.445293</ele>
        <time>2022-04-27T11:09:22.736Z</time>
      </trkpt>
      <trkpt lat="41.35433" lon="20.61388">
        <ele>665.738364</ele>
        <time>2022-04-27T11:09:25.761Z</time>
      </trkpt>
      <trkpt lat="41.35429" lon="20.61403">
        <ele>665.899458</ele>
        <time>2022-04-27T11:09:28.769Z</time>
      </trkpt>
      <trkpt lat="41.35424" lon="20.61417">
        <ele>665.962499</ele>
        <time>2022-04-27T11:09:31.737Z</time>
      </trkpt>
      <trkpt lat="41.3542" lon="20.6143">
        <ele>666.018414</ele>
        <time>2022-04-27T11:09:34.729Z</time>
      </trkpt>
      <trkpt lat="41.35414" lon="20.61443">
        <ele>666.076391</ele>
        <time>2022-04-27T11:09:37.741Z</time>
      </trkpt>
      <trkpt lat="41.35408" lon="20.61455">
        <ele>666.133299</ele>
        <time>2022-04-27T11:09:40.742Z</time>
      </trkpt>
      <trkpt lat="41.35403" lon="20.61466">
        <ele>666.185191</ele>
        <time>2022-04-27T11:09:43.736Z</time>
      </trkpt>
      <trkpt lat="41.35398" lon="20.61477">
        <ele>666.236404</ele>
        <time>2022-04-27T11:09:46.737Z</time>
      </trkpt>
      <trkpt lat="41.35393" lon="20.61487">
        <ele>666.285523</ele>
        <time>2022-04-27T11:09:49.752Z</time>
      </trkpt>
      <trkpt lat="41.35386" lon="20.615">
        <ele>666.3481</ele>
        <time>2022-04-27T11:09:53.738Z</time>
      </trkpt>
      <trkpt lat="41.35381" lon="20.61512">
        <ele>666.405606</ele>
        <time>2022-04-27T11:09:57.742Z</time>
      </trkpt>
      <trkpt lat="41.35376" lon="20.61525">
        <ele>666.463609</ele>
        <time>2022-04-27T11:10:01.741Z</time>
      </trkpt>
      <trkpt lat="41.3537" lon="20.61539">
        <ele>666.528288</ele>
        <time>2022-04-27T11:10:05.735Z</time>
      </trkpt>
      <trkpt lat="41.35366" lon="20.6155">
        <ele>666.576294</ele>
        <time>2022-04-27T11:10:08.732Z</time>
      </trkpt>
      <trkpt lat="41.35362" lon="20.61561">
        <ele>666.627165</ele>
        <time>2022-04-27T11:10:11.743Z</time>
      </trkpt>
      <trkpt lat="41.35357" lon="20.61574">
        <ele>666.683884</ele>
        <time>2022-04-27T11:10:14.739Z</time>
      </trkpt>
      <trkpt lat="41.35355" lon="20.61589">
        <ele>666.742276</ele>
        <time>2022-04-27T11:10:17.754Z</time>
      </trkpt>
      <trkpt lat="41.35352" lon="20.61606">
        <ele>666.814482</ele>
        <time>2022-04-27T11:10:20.737Z</time>
      </trkpt>
      <trkpt lat="41.3535" lon="20.61623">
        <ele>666.025839</ele>
        <time>2022-04-27T11:10:23.745Z</time>
      </trkpt>
      <trkpt lat="41.35344" lon="20.61638">
        <ele>665.192203</ele>
        <time>2022-04-27T11:10:26.736Z</time>
      </trkpt>
      <trkpt lat="41.35339" lon="20.61651">
        <ele>664.4213</ele>
        <time>2022-04-27T11:10:29.739Z</time>
      </trkpt>
      <trkpt lat="41.35335" lon="20.61665">
        <ele>663.654499</ele>
        <time>2022-04-27T11:10:32.748Z</time>
      </trkpt>
      <trkpt lat="41.35332" lon="20.61679">
        <ele>662.932898</ele>
        <time>2022-04-27T11:10:35.735Z</time>
      </trkpt>
      <trkpt lat="41.35328" lon="20.61691">
        <ele>662.279766</ele>
        <time>2022-04-27T11:10:38.740Z</time>
      </trkpt>
      <trkpt lat="41.35324" lon="20.61703">
        <ele>661.586152</ele>
        <time>2022-04-27T11:10:41.742Z</time>
      </trkpt>
      <trkpt lat="41.35318" lon="20.61717">
        <ele>660.758676</ele>
        <time>2022-04-27T11:10:44.740Z</time>
      </trkpt>
      <trkpt lat="41.35311" lon="20.6173">
        <ele>659.957357</ele>
        <time>2022-04-27T11:10:47.734Z</time>
      </trkpt>
      <trkpt lat="41.35305" lon="20.61739">
        <ele>659.319284</ele>
        <time>2022-04-27T11:10:49.736Z</time>
      </trkpt>
      <trkpt lat="41.35299" lon="20.61748">
        <ele>658.694405</ele>
        <time>2022-04-27T11:10:51.741Z</time>
      </trkpt>
      <trkpt lat="41.35292" lon="20.61761">
        <ele>657.883611</ele>
        <time>2022-04-27T11:10:54.738Z</time>
      </trkpt>
      <trkpt lat="41.35287" lon="20.61776">
        <ele>657.08618</ele>
        <time>2022-04-27T11:10:57.755Z</time>
      </trkpt>
      <trkpt lat="41.35286" lon="20.61788">
        <ele>656.462934</ele>
        <time>2022-04-27T11:10:59.745Z</time>
      </trkpt>
      <trkpt lat="41.35284" lon="20.61805">
        <ele>655.597012</ele>
        <time>2022-04-27T11:11:02.738Z</time>
      </trkpt>
      <trkpt lat="41.3528" lon="20.61819">
        <ele>654.827625</ele>
        <time>2022-04-27T11:11:05.740Z</time>
      </trkpt>
      <trkpt lat="41.35278" lon="20.61832">
        <ele>654.408669</ele>
        <time>2022-04-27T11:11:08.741Z</time>
      </trkpt>
      <trkpt lat="41.35275" lon="20.61844">
        <ele>654.145205</ele>
        <time>2022-04-27T11:11:11.745Z</time>
      </trkpt>
      <trkpt lat="41.35272" lon="20.61856">
        <ele>653.867998</ele>
        <time>2022-04-27T11:11:14.737Z</time>
      </trkpt>
      <trkpt lat="41.35269" lon="20.61868">
        <ele>653.59156</ele>
        <time>2022-04-27T11:11:17.749Z</time>
      </trkpt>
      <trkpt lat="41.35264" lon="20.6188">
        <ele>653.309237</ele>
        <time>2022-04-27T11:11:20.733Z</time>
      </trkpt>
      <trkpt lat="41.35258" lon="20.61891">
        <ele>652.99</ele>
        <time>2022-04-27T11:11:23.740Z</time>
      </trkpt>
      <trkpt lat="41.35251" lon="20.61903">
        <ele>652.681084</ele>
        <time>2022-04-27T11:11:26.732Z</time>
      </trkpt>
      <trkpt lat="41.35245" lon="20.61913">
        <ele>652.394766</ele>
        <time>2022-04-27T11:11:29.731Z</time>
      </trkpt>
      <trkpt lat="41.3524" lon="20.61924">
        <ele>652.114594</ele>
        <time>2022-04-27T11:11:32.741Z</time>
      </trkpt>
      <trkpt lat="41.35233" lon="20.61933">
        <ele>651.840619</ele>
        <time>2022-04-27T11:11:35.750Z</time>
      </trkpt>
      <trkpt lat="41.35224" lon="20.61944">
        <ele>651.494833</ele>
        <time>2022-04-27T11:11:38.732Z</time>
      </trkpt>
      <trkpt lat="41.35214" lon="20.61954">
        <ele>651.134775</ele>
        <time>2022-04-27T11:11:41.737Z</time>
      </trkpt>
      <trkpt lat="41.35205" lon="20.61963">
        <ele>650.797406</ele>
        <time>2022-04-27T11:11:44.732Z</time>
      </trkpt>
      <trkpt lat="41.35198" lon="20.61974">
        <ele>650.496568</ele>
        <time>2022-04-27T11:11:47.741Z</time>
      </trkpt>
      <trkpt lat="41.35191" lon="20.61984">
        <ele>650.187859</ele>
        <time>2022-04-27T11:11:50.750Z</time>
      </trkpt>
      <trkpt lat="41.35183" lon="20.61995">
        <ele>649.839377</ele>
        <time>2022-04-27T11:11:53.736Z</time>
      </trkpt>
      <trkpt lat="41.35174" lon="20.62005">
        <ele>649.500687</ele>
        <time>2022-04-27T11:11:56.732Z</time>
      </trkpt>
      <trkpt lat="41.35167" lon="20.62016">
        <ele>649.519122</ele>
        <time>2022-04-27T11:11:59.745Z</time>
      </trkpt>
      <trkpt lat="41.3516" lon="20.62025">
        <ele>649.639846</ele>
        <time>2022-04-27T11:12:02.740Z</time>
      </trkpt>
      <trkpt lat="41.35152" lon="20.62036">
        <ele>649.782865</ele>
        <time>2022-04-27T11:12:06.739Z</time>
      </trkpt>
      <trkpt lat="41.35145" lon="20.62044">
        <ele>649.896655</ele>
        <time>2022-04-27T11:12:09.740Z</time>
      </trkpt>
      <trkpt lat="41.35137" lon="20.62055">
        <ele>650.041361</ele>
        <time>2022-04-27T11:12:12.739Z</time>
      </trkpt>
      <trkpt lat="41.35127" lon="20.62066">
        <ele>650.196956</ele>
        <time>2022-04-27T11:12:15.735Z</time>
      </trkpt>
      <trkpt lat="41.35118" lon="20.62078">
        <ele>650.35351</ele>
        <time>2022-04-27T11:12:18.728Z</time>
      </trkpt>
      <trkpt lat="41.35108" lon="20.62086">
        <ele>650.493711</ele>
        <time>2022-04-27T11:12:21.746Z</time>
      </trkpt>
      <trkpt lat="41.351" lon="20.62094">
        <ele>650.622314</ele>
        <time>2022-04-27T11:12:24.748Z</time>
      </trkpt>
      <trkpt lat="41.35091" lon="20.62101">
        <ele>650.745605</ele>
        <time>2022-04-27T11:12:27.737Z</time>
      </trkpt>
      <trkpt lat="41.35083" lon="20.6211">
        <ele>650.879185</ele>
        <time>2022-04-27T11:12:31.735Z</time>
      </trkpt>
      <trkpt lat="41.35075" lon="20.62118">
        <ele>651.006047</ele>
        <time>2022-04-27T11:12:35.735Z</time>
      </trkpt>
      <trkpt lat="41.35066" lon="20.62127">
        <ele>651.143348</ele>
        <time>2022-04-27T11:12:39.741Z</time>
      </trkpt>
      <trkpt lat="41.35059" lon="20.62135">
        <ele>651.259284</ele>
        <time>2022-04-27T11:12:42.740Z</time>
      </trkpt>
      <trkpt lat="41.35049" lon="20.62145">
        <ele>651.406961</ele>
        <time>2022-04-27T11:12:45.737Z</time>
      </trkpt>
      <trkpt lat="41.3504" lon="20.62155">
        <ele>651.55335</ele>
        <time>2022-04-27T11:12:48.740Z</time>
      </trkpt>
      <trkpt lat="41.35033" lon="20.62164">
        <ele>651.740087</ele>
        <time>2022-04-27T11:12:51.737Z</time>
      </trkpt>
      <trkpt lat="41.35024" lon="20.62173">
        <ele>652.112575</ele>
        <time>2022-04-27T11:12:54.733Z</time>
      </trkpt>
      <trkpt lat="41.35014" lon="20.6218">
        <ele>652.511487</ele>
        <time>2022-04-27T11:12:57.738Z</time>
      </trkpt>
      <trkpt lat="41.35003" lon="20.62186">
        <ele>652.899933</ele>
        <time>2022-04-27T11:13:00.734Z</time>
      </trkpt>
      <trkpt lat="41.34995" lon="20.62192">
        <ele>653.212874</ele>
        <time>2022-04-27T11:13:03.736Z</time>
      </trkpt>
      <trkpt lat="41.34985" lon="20.62198">
        <ele>653.612777</ele>
        <time>2022-04-27T11:13:07.746Z</time>
      </trkpt>
      <trkpt lat="41.34973" lon="20.62201">
        <ele>654.039299</ele>
        <time>2022-04-27T11:13:10.731Z</time>
      </trkpt>
      <trkpt lat="41.34964" lon="20.62204">
        <ele>654.351626</ele>
        <time>2022-04-27T11:13:12.746Z</time>
      </trkpt>
      <trkpt lat="41.34954" lon="20.62211">
        <ele>654.741482</ele>
        <time>2022-04-27T11:13:15.738Z</time>
      </trkpt>
      <trkpt lat="41.34945" lon="20.6222">
        <ele>655.111976</ele>
        <time>2022-04-27T11:13:18.738Z</time>
      </trkpt>
      <trkpt lat="41.34938" lon="20.62231">
        <ele>655.494398</ele>
        <time>2022-04-27T11:13:21.742Z</time>
      </trkpt>
      <trkpt lat="41.34931" lon="20.62243">
        <ele>655.883274</ele>
        <time>2022-04-27T11:13:24.730Z</time>
      </trkpt>
      <trkpt lat="41.34926" lon="20.62258">
        <ele>656.321196</ele>
        <time>2022-04-27T11:13:27.747Z</time>
      </trkpt>
      <trkpt lat="41.3492" lon="20.62273">
        <ele>656.751808</ele>
        <time>2022-04-27T11:13:30.737Z</time>
      </trkpt>
      <trkpt lat="41.34916" lon="20.62287">
        <ele>657.152843</ele>
        <time>2022-04-27T11:13:33.738Z</time>
      </trkpt>
      <trkpt lat="41.34911" lon="20.62302">
        <ele>657.557985</ele>
        <time>2022-04-27T11:13:36.733Z</time>
      </trkpt>
      <trkpt lat="41.34907" lon="20.62315">
        <ele>658.115092</ele>
        <time>2022-04-27T11:13:39.736Z</time>
      </trkpt>
      <trkpt lat="41.34902" lon="20.62329">
        <ele>659.18076</ele>
        <time>2022-04-27T11:13:42.732Z</time>
      </trkpt>
      <trkpt lat="41.34896" lon="20.62342">
        <ele>660.146235</ele>
        <time>2022-04-27T11:13:45.737Z</time>
      </trkpt>
      <trkpt lat="41.34889" lon="20.62353">
        <ele>661.140527</ele>
        <time>2022-04-27T11:13:48.761Z</time>
      </trkpt>
      <trkpt lat="41.34882" lon="20.62362">
        <ele>662.050281</ele>
        <time>2022-04-27T11:13:51.746Z</time>
      </trkpt>
      <trkpt lat="41.34872" lon="20.6237">
        <ele>663.118716</ele>
        <time>2022-04-27T11:13:55.735Z</time>
      </trkpt>
      <trkpt lat="41.34862" lon="20.62377">
        <ele>664.198928</ele>
        <time>2022-04-27T11:13:59.771Z</time>
      </trkpt>
      <trkpt lat="41.34852" lon="20.62381">
        <ele>665.148194</ele>
        <time>2022-04-27T11:14:02.734Z</time>
      </trkpt>
      <trkpt lat="41.34842" lon="20.62386">
        <ele>666.075516</ele>
        <time>2022-04-27T11:14:05.737Z</time>
      </trkpt>
      <trkpt lat="41.34834" lon="20.62391">
        <ele>666.918658</ele>
        <time>2022-04-27T11:14:08.735Z</time>
      </trkpt>
      <trkpt lat="41.34824" lon="20.62395">
        <ele>667.821378</ele>
        <time>2022-04-27T11:14:11.738Z</time>
      </trkpt>
      <trkpt lat="41.34816" lon="20.624">
        <ele>668.675428</ele>
        <time>2022-04-27T11:14:14.732Z</time>
      </trkpt>
      <trkpt lat="41.34805" lon="20.62405">
        <ele>669.716605</ele>
        <time>2022-04-27T11:14:18.739Z</time>
      </trkpt>
      <trkpt lat="41.34797" lon="20.62411">
        <ele>670.545503</ele>
        <time>2022-04-27T11:14:21.774Z</time>
      </trkpt>
      <trkpt lat="41.34788" lon="20.62417">
        <ele>671.442537</ele>
        <time>2022-04-27T11:14:24.734Z</time>
      </trkpt>
      <trkpt lat="41.34778" lon="20.62423">
        <ele>672.501385</ele>
        <time>2022-04-27T11:14:28.737Z</time>
      </trkpt>
      <trkpt lat="41.34769" lon="20.62427">
        <ele>673.333796</ele>
        <time>2022-04-27T11:14:31.735Z</time>
      </trkpt>
      <trkpt lat="41.34761" lon="20.62432">
        <ele>674.15779</ele>
        <time>2022-04-27T11:14:34.732Z</time>
      </trkpt>
      <trkpt lat="41.3475" lon="20.62438">
        <ele>675.336385</ele>
        <time>2022-04-27T11:14:38.737Z</time>
      </trkpt>
      <trkpt lat="41.34741" lon="20.62441">
        <ele>676.330553</ele>
        <time>2022-04-27T11:14:42.730Z</time>
      </trkpt>
      <trkpt lat="41.34732" lon="20.62447">
        <ele>677.40495</ele>
        <time>2022-04-27T11:14:46.744Z</time>
      </trkpt>
      <trkpt lat="41.34723" lon="20.62453">
        <ele>678.46975</ele>
        <time>2022-04-27T11:14:50.749Z</time>
      </trkpt>
      <trkpt lat="41.34715" lon="20.62457">
        <ele>679.449913</ele>
        <time>2022-04-27T11:14:53.740Z</time>
      </trkpt>
      <trkpt lat="41.34705" lon="20.62463">
        <ele>680.598559</ele>
        <time>2022-04-27T11:14:56.742Z</time>
      </trkpt>
      <trkpt lat="41.34696" lon="20.62469">
        <ele>681.676433</ele>
        <time>2022-04-27T11:14:59.735Z</time>
      </trkpt>
      <trkpt lat="41.34686" lon="20.62474">
        <ele>682.826796</ele>
        <time>2022-04-27T11:15:02.745Z</time>
      </trkpt>
      <trkpt lat="41.34676" lon="20.6248">
        <ele>683.989203</ele>
        <time>2022-04-27T11:15:05.742Z</time>
      </trkpt>
      <trkpt lat="41.34668" lon="20.62486">
        <ele>684.964851</ele>
        <time>2022-04-27T11:15:08.738Z</time>
      </trkpt>
      <trkpt lat="41.34659" lon="20.62493">
        <ele>686.073964</ele>
        <time>2022-04-27T11:15:12.733Z</time>
      </trkpt>
      <trkpt lat="41.3465" lon="20.62498">
        <ele>687.144937</ele>
        <time>2022-04-27T11:15:16.741Z</time>
      </trkpt>
      <trkpt lat="41.34641" lon="20.62504">
        <ele>688.151359</ele>
        <time>2022-04-27T11:15:21.747Z</time>
      </trkpt>
      <trkpt lat="41.34634" lon="20.62511">
        <ele>689.117985</ele>
        <time>2022-04-27T11:15:26.729Z</time>
      </trkpt>
      <trkpt lat="41.34624" lon="20.62517">
        <ele>690.227099</ele>
        <time>2022-04-27T11:15:33.744Z</time>
      </trkpt>
      <trkpt lat="41.34615" lon="20.62522">
        <ele>691.271903</ele>
        <time>2022-04-27T11:15:39.758Z</time>
      </trkpt>
      <trkpt lat="41.34607" lon="20.62529">
        <ele>692.313898</ele>
        <time>2022-04-27T11:15:47.750Z</time>
      </trkpt>
      <trkpt lat="41.34599" lon="20.62538">
        <ele>693.373888</ele>
        <time>2022-04-27T11:15:54.745Z</time>
      </trkpt>
      <trkpt lat="41.34592" lon="20.62544">
        <ele>693.587188</ele>
        <time>2022-04-27T11:16:00.740Z</time>
      </trkpt>
      <trkpt lat="41.34585" lon="20.62553">
        <ele>693.769475</ele>
        <time>2022-04-27T11:16:08.772Z</time>
      </trkpt>
      <trkpt lat="41.3458" lon="20.62564">
        <ele>693.938689</ele>
        <time>2022-04-27T11:16:15.746Z</time>
      </trkpt>
      <trkpt lat="41.34574" lon="20.62573">
        <ele>694.117632</ele>
        <time>2022-04-27T11:16:21.735Z</time>
      </trkpt>
      <trkpt lat="41.34567" lon="20.62581">
        <ele>694.285015</ele>
        <time>2022-04-27T11:16:28.736Z</time>
      </trkpt>
      <trkpt lat="41.34558" lon="20.62589">
        <ele>694.474725</ele>
        <time>2022-04-27T11:16:35.740Z</time>
      </trkpt>
      <trkpt lat="41.34552" lon="20.626">
        <ele>694.665122</ele>
        <time>2022-04-27T11:16:44.728Z</time>
      </trkpt>
      <trkpt lat="41.34547" lon="20.6261">
        <ele>694.831316</ele>
        <time>2022-04-27T11:16:49.737Z</time>
      </trkpt>
      <trkpt lat="41.3454" lon="20.6262">
        <ele>695.023714</ele>
        <time>2022-04-27T11:16:54.735Z</time>
      </trkpt>
      <trkpt lat="41.34531" lon="20.62626">
        <ele>695.206958</ele>
        <time>2022-04-27T11:16:59.748Z</time>
      </trkpt>
      <trkpt lat="41.34521" lon="20.62634">
        <ele>695.410772</ele>
        <time>2022-04-27T11:17:05.740Z</time>
      </trkpt>
      <trkpt lat="41.34513" lon="20.62641">
        <ele>695.606443</ele>
        <time>2022-04-27T11:17:11.736Z</time>
      </trkpt>
      <trkpt lat="41.34505" lon="20.62649">
        <ele>695.778991</ele>
        <time>2022-04-27T11:17:17.736Z</time>
      </trkpt>
      <trkpt lat="41.345" lon="20.62659">
        <ele>695.950625</ele>
        <time>2022-04-27T11:17:24.768Z</time>
      </trkpt>
      <trkpt lat="41.34493" lon="20.62668">
        <ele>696.124468</ele>
        <time>2022-04-27T11:17:30.733Z</time>
      </trkpt>
      <trkpt lat="41.34485" lon="20.62675">
        <ele>696.307157</ele>
        <time>2022-04-27T11:17:34.735Z</time>
      </trkpt>
      <trkpt lat="41.34477" lon="20.62685">
        <ele>696.504854</ele>
        <time>2022-04-27T11:17:38.748Z</time>
      </trkpt>
      <trkpt lat="41.34469" lon="20.62691">
        <ele>696.671623</ele>
        <time>2022-04-27T11:17:43.745Z</time>
      </trkpt>
      <trkpt lat="41.3446" lon="20.62697">
        <ele>696.685226</ele>
        <time>2022-04-27T11:17:49.745Z</time>
      </trkpt>
      <trkpt lat="41.34451" lon="20.62704">
        <ele>696.584468</ele>
        <time>2022-04-27T11:17:55.744Z</time>
      </trkpt>
      <trkpt lat="41.34442" lon="20.62711">
        <ele>696.486043</ele>
        <time>2022-04-27T11:18:02.731Z</time>
      </trkpt>
      <trkpt lat="41.34433" lon="20.62716">
        <ele>696.392938</ele>
        <time>2022-04-27T11:18:08.735Z</time>
      </trkpt>
      <trkpt lat="41.34424" lon="20.62723">
        <ele>696.289801</ele>
        <time>2022-04-27T11:18:14.736Z</time>
      </trkpt>
      <trkpt lat="41.34414" lon="20.62728">
        <ele>696.193384</ele>
        <time>2022-04-27T11:18:20.736Z</time>
      </trkpt>
      <trkpt lat="41.34405" lon="20.62732">
        <ele>696.097197</ele>
        <time>2022-04-27T11:18:25.740Z</time>
      </trkpt>
      <trkpt lat="41.34396" lon="20.62736">
        <ele>696.005558</ele>
        <time>2022-04-27T11:18:31.736Z</time>
      </trkpt>
      <trkpt lat="41.34386" lon="20.62737">
        <ele>695.910031</ele>
        <time>2022-04-27T11:18:36.741Z</time>
      </trkpt>
      <trkpt lat="41.34377" lon="20.62736">
        <ele>695.819414</ele>
        <time>2022-04-27T11:18:41.741Z</time>
      </trkpt>
      <trkpt lat="41.34367" lon="20.62736">
        <ele>695.728121</ele>
        <time>2022-04-27T11:18:46.736Z</time>
      </trkpt>
      <trkpt lat="41.34357" lon="20.62738">
        <ele>695.628098</ele>
        <time>2022-04-27T11:18:52.734Z</time>
      </trkpt>
      <trkpt lat="41.34346" lon="20.62737">
        <ele>695.523955</ele>
        <time>2022-04-27T11:18:58.735Z</time>
      </trkpt>
      <trkpt lat="41.34337" lon="20.62735">
        <ele>695.435892</ele>
        <time>2022-04-27T11:19:03.746Z</time>
      </trkpt>
      <trkpt lat="41.34327" lon="20.62731">
        <ele>695.338527</ele>
        <time>2022-04-27T11:19:09.748Z</time>
      </trkpt>
      <trkpt lat="41.34318" lon="20.62726">
        <ele>695.243196</ele>
        <time>2022-04-27T11:19:15.743Z</time>
      </trkpt>
      <trkpt lat="41.34308" lon="20.62722">
        <ele>695.144492</ele>
        <time>2022-04-27T11:19:21.739Z</time>
      </trkpt>
      <trkpt lat="41.34299" lon="20.62718">
        <ele>695.049219</ele>
        <time>2022-04-27T11:19:27.737Z</time>
      </trkpt>
      <trkpt lat="41.3429" lon="20.62714">
        <ele>694.811909</ele>
        <time>2022-04-27T11:19:33.762Z</time>
      </trkpt>
      <trkpt lat="41.3428" lon="20.62712">
        <ele>694.445055</ele>
        <time>2022-04-27T11:19:41.736Z</time>
      </trkpt>
      <trkpt lat="41.34271" lon="20.62709">
        <ele>694.119159</ele>
        <time>2022-04-27T11:19:47.734Z</time>
      </trkpt>
      <trkpt lat="41.34261" lon="20.62706">
        <ele>693.742048</ele>
        <time>2022-04-27T11:19:54.737Z</time>
      </trkpt>
      <trkpt lat="41.34252" lon="20.62702">
        <ele>693.417434</ele>
        <time>2022-04-27T11:20:00.740Z</time>
      </trkpt>
      <trkpt lat="41.34243" lon="20.62697">
        <ele>693.054206</ele>
        <time>2022-04-27T11:20:07.742Z</time>
      </trkpt>
      <trkpt lat="41.34234" lon="20.62693">
        <ele>692.706011</ele>
        <time>2022-04-27T11:20:13.760Z</time>
      </trkpt>
      <trkpt lat="41.34225" lon="20.62689">
        <ele>692.370565</ele>
        <time>2022-04-27T11:20:19.734Z</time>
      </trkpt>
      <trkpt lat="41.34215" lon="20.62687">
        <ele>692.022255</ele>
        <time>2022-04-27T11:20:25.740Z</time>
      </trkpt>
      <trkpt lat="41.34206" lon="20.62685">
        <ele>691.682249</ele>
        <time>2022-04-27T11:20:31.737Z</time>
      </trkpt>
      <trkpt lat="41.34196" lon="20.62681">
        <ele>691.329754</ele>
        <time>2022-04-27T11:20:39.732Z</time>
      </trkpt>
      <trkpt lat="41.34187" lon="20.62679">
        <ele>690.994023</ele>
        <time>2022-04-27T11:20:46.731Z</time>
      </trkpt>
      <trkpt lat="41.34178" lon="20.62678">
        <ele>690.663063</ele>
        <time>2022-04-27T11:20:52.754Z</time>
      </trkpt>
      <trkpt lat="41.34169" lon="20.62673">
        <ele>690.295477</ele>
        <time>2022-04-27T11:20:59.736Z</time>
      </trkpt>
      <trkpt lat="41.34159" lon="20.62667">
        <ele>689.923436</ele>
        <time>2022-04-27T11:21:05.734Z</time>
      </trkpt>
      <trkpt lat="41.3415" lon="20.62663">
        <ele>689.576102</ele>
        <time>2022-04-27T11:21:11.734Z</time>
      </trkpt>
      <trkpt lat="41.3414" lon="20.6266">
        <ele>689.221314</ele>
        <time>2022-04-27T11:21:17.735Z</time>
      </trkpt>
      <trkpt lat="41.34131" lon="20.62658">
        <ele>688.900455</ele>
        <time>2022-04-27T11:21:22.733Z</time>
      </trkpt>
      <trkpt lat="41.34121" lon="20.62656">
        <ele>688.595537</ele>
        <time>2022-04-27T11:21:28.739Z</time>
      </trkpt>
      <trkpt lat="41.34111" lon="20.62654">
        <ele>688.715048</ele>
        <time>2022-04-27T11:21:33.738Z</time>
      </trkpt>
      <trkpt lat="41.34102" lon="20.62653">
        <ele>688.830423</ele>
        <time>2022-04-27T11:21:38.730Z</time>
      </trkpt>
      <trkpt lat="41.34093" lon="20.62654">
        <ele>688.94195</ele>
        <time>2022-04-27T11:21:43.776Z</time>
      </trkpt>
      <trkpt lat="41.34083" lon="20.62654">
        <ele>689.068128</ele>
        <time>2022-04-27T11:21:49.742Z</time>
      </trkpt>
      <trkpt lat="41.34074" lon="20.62658">
        <ele>689.180647</ele>
        <time>2022-04-27T11:21:55.746Z</time>
      </trkpt>
      <trkpt lat="41.34064" lon="20.62659">
        <ele>689.30226</ele>
        <time>2022-04-27T11:22:02.732Z</time>
      </trkpt>
      <trkpt lat="41.34055" lon="20.62664">
        <ele>689.426077</ele>
        <time>2022-04-27T11:22:08.730Z</time>
      </trkpt>
      <trkpt lat="41.34046" lon="20.62671">
        <ele>689.552368</ele>
        <time>2022-04-27T11:22:14.734Z</time>
      </trkpt>
      <trkpt lat="41.34036" lon="20.62676">
        <ele>689.681114</ele>
        <time>2022-04-27T11:22:20.729Z</time>
      </trkpt>
      <trkpt lat="41.34027" lon="20.6268">
        <ele>689.796882</ele>
        <time>2022-04-27T11:22:26.731Z</time>
      </trkpt>
      <trkpt lat="41.34017" lon="20.6268">
        <ele>689.912056</ele>
        <time>2022-04-27T11:22:33.769Z</time>
      </trkpt>
      <trkpt lat="41.34009" lon="20.62687">
        <ele>690.030863</ele>
        <time>2022-04-27T11:22:39.743Z</time>
      </trkpt>
      <trkpt lat="41.34001" lon="20.62693">
        <ele>690.146338</ele>
        <time>2022-04-27T11:22:46.741Z</time>
      </trkpt>
      <trkpt lat="41.33992" lon="20.62699">
        <ele>690.265686</ele>
        <time>2022-04-27T11:22:52.738Z</time>
      </trkpt>
      <trkpt lat="41.33983" lon="20.62705">
        <ele>690.388154</ele>
        <time>2022-04-27T11:22:58.732Z</time>
      </trkpt>
      <trkpt lat="41.33974" lon="20.62712">
        <ele>690.516752</ele>
        <time>2022-04-27T11:23:05.732Z</time>
      </trkpt>
      <trkpt lat="41.33966" lon="20.62718">
        <ele>690.634588</ele>
        <time>2022-04-27T11:23:12.755Z</time>
      </trkpt>
      <trkpt lat="41.33957" lon="20.62723">
        <ele>690.756909</ele>
        <time>2022-04-27T11:23:19.739Z</time>
      </trkpt>
      <trkpt lat="41.33947" lon="20.62727">
        <ele>691.412996</ele>
        <time>2022-04-27T11:23:26.734Z</time>
      </trkpt>
      <trkpt lat="41.33938" lon="20.62732">
        <ele>692.154447</ele>
        <time>2022-04-27T11:23:32.739Z</time>
      </trkpt>
      <trkpt lat="41.33929" lon="20.62738">
        <ele>692.986168</ele>
        <time>2022-04-27T11:23:38.737Z</time>
      </trkpt>
      <trkpt lat="41.3392" lon="20.62745">
        <ele>693.802885</ele>
        <time>2022-04-27T11:23:43.732Z</time>
      </trkpt>
      <trkpt lat="41.3391" lon="20.62751">
        <ele>694.635235</ele>
        <time>2022-04-27T11:23:49.738Z</time>
      </trkpt>
      <trkpt lat="41.33901" lon="20.62757">
        <ele>695.464472</ele>
        <time>2022-04-27T11:23:55.734Z</time>
      </trkpt>
      <trkpt lat="41.33892" lon="20.62764">
        <ele>696.232403</ele>
        <time>2022-04-27T11:24:01.738Z</time>
      </trkpt>
      <trkpt lat="41.33884" lon="20.6277">
        <ele>696.999387</ele>
        <time>2022-04-27T11:24:08.770Z</time>
      </trkpt>
      <trkpt lat="41.33875" lon="20.62778">
        <ele>697.813433</ele>
        <time>2022-04-27T11:24:15.737Z</time>
      </trkpt>
      <trkpt lat="41.33868" lon="20.62786">
        <ele>698.54284</ele>
        <time>2022-04-27T11:24:21.733Z</time>
      </trkpt>
      <trkpt lat="41.33861" lon="20.62795">
        <ele>699.288058</ele>
        <time>2022-04-27T11:24:27.739Z</time>
      </trkpt>
      <trkpt lat="41.33856" lon="20.62805">
        <ele>700.01368</ele>
        <time>2022-04-27T11:24:33.738Z</time>
      </trkpt>
      <trkpt lat="41.33852" lon="20.62816">
        <ele>700.779357</ele>
        <time>2022-04-27T11:24:39.737Z</time>
      </trkpt>
      <trkpt lat="41.33848" lon="20.62828">
        <ele>701.512664</ele>
        <time>2022-04-27T11:24:45.739Z</time>
      </trkpt>
      <trkpt lat="41.33846" lon="20.6284">
        <ele>702.256397</ele>
        <time>2022-04-27T11:24:51.739Z</time>
      </trkpt>
      <trkpt lat="41.33845" lon="20.62852">
        <ele>702.982793</ele>
        <time>2022-04-27T11:24:57.740Z</time>
      </trkpt>
      <trkpt lat="41.33844" lon="20.62866">
        <ele>703.761538</ele>
        <time>2022-04-27T11:25:05.732Z</time>
      </trkpt>
      <trkpt lat="41.33845" lon="20.62878">
        <ele>704.487939</ele>
        <time>2022-04-27T11:25:13.738Z</time>
      </trkpt>
      <trkpt lat="41.33847" lon="20.6289">
        <ele>705.202021</ele>
        <time>2022-04-27T11:25:20.730Z</time>
      </trkpt>
      <trkpt lat="41.33848" lon="20.62903">
        <ele>706.005597</ele>
        <time>2022-04-27T11:25:27.744Z</time>
      </trkpt>
      <trkpt lat="41.33851" lon="20.62916">
        <ele>706.776824</ele>
        <time>2022-04-27T11:25:34.729Z</time>
      </trkpt>
      <trkpt lat="41.33852" lon="20.62929">
        <ele>707.582508</ele>
        <time>2022-04-27T11:25:42.730Z</time>
      </trkpt>
      <trkpt lat="41.33854" lon="20.62942">
        <ele>708.324946</ele>
        <time>2022-04-27T11:25:48.732Z</time>
      </trkpt>
      <trkpt lat="41.33857" lon="20.62954">
        <ele>709.06928</ele>
        <time>2022-04-27T11:25:54.746Z</time>
      </trkpt>
      <trkpt lat="41.33858" lon="20.62966">
        <ele>709.775981</ele>
        <time>2022-04-27T11:25:59.736Z</time>
      </trkpt>
      <trkpt lat="41.3386" lon="20.62979">
        <ele>710.562969</ele>
        <time>2022-04-27T11:26:04.738Z</time>
      </trkpt>
      <trkpt lat="41.33859" lon="20.62991">
        <ele>711.275843</ele>
        <time>2022-04-27T11:26:09.736Z</time>
      </trkpt>
      <trkpt lat="41.33859" lon="20.63004">
        <ele>712.037094</ele>
        <time>2022-04-27T11:26:15.736Z</time>
      </trkpt>
      <trkpt lat="41.33856" lon="20.63017">
        <ele>712.856761</ele>
        <time>2022-04-27T11:26:22.743Z</time>
      </trkpt>
      <trkpt lat="41.33852" lon="20.63029">
        <ele>713.581674</ele>
        <time>2022-04-27T11:26:28.733Z</time>
      </trkpt>
      <trkpt lat="41.33848" lon="20.63041">
        <ele>714.361573</ele>
        <time>2022-04-27T11:26:35.747Z</time>
      </trkpt>
      <trkpt lat="41.33843" lon="20.63052">
        <ele>715.138947</ele>
        <time>2022-04-27T11:26:42.747Z</time>
      </trkpt>
      <trkpt lat="41.33835" lon="20.63061">
        <ele>715.934328</ele>
        <time>2022-04-27T11:26:51.763Z</time>
      </trkpt>
      <trkpt lat="41.33828" lon="20.63069">
        <ele>716.696534</ele>
        <time>2022-04-27T11:26:57.754Z</time>
      </trkpt>
      <trkpt lat="41.33819" lon="20.63075">
        <ele>717.436848</ele>
        <time>2022-04-27T11:27:03.741Z</time>
      </trkpt>
      <trkpt lat="41.3381" lon="20.63082">
        <ele>718.244131</ele>
        <time>2022-04-27T11:27:10.741Z</time>
      </trkpt>
      <trkpt lat="41.33802" lon="20.63089">
        <ele>719.031393</ele>
        <time>2022-04-27T11:27:15.741Z</time>
      </trkpt>
      <trkpt lat="41.33793" lon="20.63098">
        <ele>719.720322</ele>
        <time>2022-04-27T11:27:22.737Z</time>
      </trkpt>
      <trkpt lat="41.33787" lon="20.63108">
        <ele>720.385138</ele>
        <time>2022-04-27T11:27:29.732Z</time>
      </trkpt>
      <trkpt lat="41.33779" lon="20.63116">
        <ele>721.014185</ele>
        <time>2022-04-27T11:27:35.732Z</time>
      </trkpt>
      <trkpt lat="41.33772" lon="20.63124">
        <ele>721.634952</ele>
        <time>2022-04-27T11:27:41.739Z</time>
      </trkpt>
      <trkpt lat="41.33765" lon="20.63133">
        <ele>722.247619</ele>
        <time>2022-04-27T11:27:47.737Z</time>
      </trkpt>
      <trkpt lat="41.33756" lon="20.63142">
        <ele>722.955036</ele>
        <time>2022-04-27T11:27:53.755Z</time>
      </trkpt>
      <trkpt lat="41.33749" lon="20.63149">
        <ele>723.562659</ele>
        <time>2022-04-27T11:27:58.736Z</time>
      </trkpt>
      <trkpt lat="41.3374" lon="20.63156">
        <ele>724.215494</ele>
        <time>2022-04-27T11:28:03.732Z</time>
      </trkpt>
      <trkpt lat="41.33731" lon="20.63161">
        <ele>724.893593</ele>
        <time>2022-04-27T11:28:09.738Z</time>
      </trkpt>
      <trkpt lat="41.33721" lon="20.63166">
        <ele>725.569916</ele>
        <time>2022-04-27T11:28:15.736Z</time>
      </trkpt>
      <trkpt lat="41.33712" lon="20.63172">
        <ele>726.20579</ele>
        <time>2022-04-27T11:28:21.774Z</time>
      </trkpt>
      <trkpt lat="41.33704" lon="20.6318">
        <ele>726.828239</ele>
        <time>2022-04-27T11:28:28.739Z</time>
      </trkpt>
      <trkpt lat="41.33699" lon="20.63191">
        <ele>727.469884</ele>
        <time>2022-04-27T11:28:35.745Z</time>
      </trkpt>
      <trkpt lat="41.33691" lon="20.632">
        <ele>728.152384</ele>
        <time>2022-04-27T11:28:42.738Z</time>
      </trkpt>
      <trkpt lat="41.33684" lon="20.6321">
        <ele>728.819461</ele>
        <time>2022-04-27T11:28:49.744Z</time>
      </trkpt>
      <trkpt lat="41.33678" lon="20.6322">
        <ele>729.452621</ele>
        <time>2022-04-27T11:28:56.730Z</time>
      </trkpt>
      <trkpt lat="41.33673" lon="20.6323">
        <ele>730.036909</ele>
        <time>2022-04-27T11:29:02.739Z</time>
      </trkpt>
      <trkpt lat="41.33668" lon="20.63241">
        <ele>730.671871</ele>
        <time>2022-04-27T11:29:09.754Z</time>
      </trkpt>
      <trkpt lat="41.33665" lon="20.63254">
        <ele>730.856544</ele>
        <time>2022-04-27T11:29:16.737Z</time>
      </trkpt>
      <trkpt lat="41.33663" lon="20.63265">
        <ele>731.015257</ele>
        <time>2022-04-27T11:29:22.737Z</time>
      </trkpt>
      <trkpt lat="41.33659" lon="20.63277">
        <ele>731.175222</ele>
        <time>2022-04-27T11:29:28.761Z</time>
      </trkpt>
      <trkpt lat="41.33656" lon="20.63288">
        <ele>731.338338</ele>
        <time>2022-04-27T11:29:34.733Z</time>
      </trkpt>
      <trkpt lat="41.33654" lon="20.633">
        <ele>731.496048</ele>
        <time>2022-04-27T11:29:40.744Z</time>
      </trkpt>
      <trkpt lat="41.33649" lon="20.63311">
        <ele>731.671127</ele>
        <time>2022-04-27T11:29:47.742Z</time>
      </trkpt>
      <trkpt lat="41.33645" lon="20.63324">
        <ele>731.850853</ele>
        <time>2022-04-27T11:29:54.740Z</time>
      </trkpt>
      <trkpt lat="41.33642" lon="20.63336">
        <ele>732.017395</ele>
        <time>2022-04-27T11:30:01.737Z</time>
      </trkpt>
      <trkpt lat="41.3364" lon="20.63349">
        <ele>732.188967</ele>
        <time>2022-04-27T11:30:08.732Z</time>
      </trkpt>
      <trkpt lat="41.33638" lon="20.63361">
        <ele>732.356637</ele>
        <time>2022-04-27T11:30:14.744Z</time>
      </trkpt>
      <trkpt lat="41.33634" lon="20.63373">
        <ele>732.527788</ele>
        <time>2022-04-27T11:30:20.744Z</time>
      </trkpt>
      <trkpt lat="41.3363" lon="20.63386">
        <ele>732.716934</ele>
        <time>2022-04-27T11:30:26.733Z</time>
      </trkpt>
      <trkpt lat="41.33627" lon="20.63399">
        <ele>732.888285</ele>
        <time>2022-04-27T11:30:32.731Z</time>
      </trkpt>
      <trkpt lat="41.33622" lon="20.63409">
        <ele>733.049858</ele>
        <time>2022-04-27T11:30:36.732Z</time>
      </trkpt>
      <trkpt lat="41.33617" lon="20.63419">
        <ele>733.208369</ele>
        <time>2022-04-27T11:30:40.728Z</time>
      </trkpt>
      <trkpt lat="41.33611" lon="20.63428">
        <ele>733.37147</ele>
        <time>2022-04-27T11:30:44.740Z</time>
      </trkpt>
      <trkpt lat="41.33602" lon="20.63437">
        <ele>733.558709</ele>
        <time>2022-04-27T11:30:48.738Z</time>
      </trkpt>
      <trkpt lat="41.33593" lon="20.63445">
        <ele>733.754121</ele>
        <time>2022-04-27T11:30:52.748Z</time>
      </trkpt>
      <trkpt lat="41.33582" lon="20.63453">
        <ele>733.979895</ele>
        <time>2022-04-27T11:30:56.755Z</time>
      </trkpt>
      <trkpt lat="41.33575" lon="20.63459">
        <ele>734.152347</ele>
        <time>2022-04-27T11:30:59.756Z</time>
      </trkpt>
      <trkpt lat="41.33564" lon="20.63465">
        <ele>734.376953</ele>
        <time>2022-04-27T11:31:03.755Z</time>
      </trkpt>
      <trkpt lat="41.33553" lon="20.63472">
        <ele>734.604691</ele>
        <time>2022-04-27T11:31:07.759Z</time>
      </trkpt>
      <trkpt lat="41.33545" lon="20.63477">
        <ele>734.782022</ele>
        <time>2022-04-27T11:31:10.746Z</time>
      </trkpt>
      <trkpt lat="41.33536" lon="20.63482">
        <ele>734.972112</ele>
        <time>2022-04-27T11:31:13.730Z</time>
      </trkpt>
      <trkpt lat="41.33526" lon="20.6349">
        <ele>735.195005</ele>
        <time>2022-04-27T11:31:17.733Z</time>
      </trkpt>
      <trkpt lat="41.33516" lon="20.63495">
        <ele>735.393198</ele>
        <time>2022-04-27T11:31:20.740Z</time>
      </trkpt>
      <trkpt lat="41.33507" lon="20.63499">
        <ele>735.589527</ele>
        <time>2022-04-27T11:31:23.734Z</time>
      </trkpt>
      <trkpt lat="41.33497" lon="20.63504">
        <ele>735.795943</ele>
        <time>2022-04-27T11:31:26.732Z</time>
      </trkpt>
      <trkpt lat="41.33487" lon="20.63509">
        <ele>735.99152</ele>
        <time>2022-04-27T11:31:29.757Z</time>
      </trkpt>
      <trkpt lat="41.33478" lon="20.63514">
        <ele>736.184463</ele>
        <time>2022-04-27T11:31:32.735Z</time>
      </trkpt>
      <trkpt lat="41.33469" lon="20.63519">
        <ele>736.369288</ele>
        <time>2022-04-27T11:31:35.736Z</time>
      </trkpt>
      <trkpt lat="41.3346" lon="20.63523">
        <ele>736.550558</ele>
        <time>2022-04-27T11:31:38.733Z</time>
      </trkpt>
      <trkpt lat="41.3345" lon="20.63528">
        <ele>736.763385</ele>
        <time>2022-04-27T11:31:41.732Z</time>
      </trkpt>
      <trkpt lat="41.3344" lon="20.63532">
        <ele>736.950212</ele>
        <time>2022-04-27T11:31:44.742Z</time>
      </trkpt>
      <trkpt lat="41.33428" lon="20.63535">
        <ele>737.185103</ele>
        <time>2022-04-27T11:31:48.740Z</time>
      </trkpt>
      <trkpt lat="41.33418" lon="20.63539">
        <ele>737.47196</ele>
        <time>2022-04-27T11:31:52.732Z</time>
      </trkpt>
      <trkpt lat="41.33407" lon="20.63543">
        <ele>737.814472</ele>
        <time>2022-04-27T11:31:56.731Z</time>
      </trkpt>
      <trkpt lat="41.33396" lon="20.63545">
        <ele>738.20053</ele>
        <time>2022-04-27T11:32:00.733Z</time>
      </trkpt>
      <trkpt lat="41.33387" lon="20.63546">
        <ele>738.497144</ele>
        <time>2022-04-27T11:32:03.736Z</time>
      </trkpt>
      <trkpt lat="41.33376" lon="20.63546">
        <ele>738.841756</ele>
        <time>2022-04-27T11:32:06.731Z</time>
      </trkpt>
      <trkpt lat="41.33365" lon="20.63547">
        <ele>739.20307</ele>
        <time>2022-04-27T11:32:09.741Z</time>
      </trkpt>
      <trkpt lat="41.33356" lon="20.63549">
        <ele>739.515484</ele>
        <time>2022-04-27T11:32:12.756Z</time>
      </trkpt>
      <trkpt lat="41.33346" lon="20.63551">
        <ele>739.844887</ele>
        <time>2022-04-27T11:32:15.741Z</time>
      </trkpt>
      <trkpt lat="41.33336" lon="20.63555">
        <ele>740.179871</ele>
        <time>2022-04-27T11:32:18.731Z</time>
      </trkpt>
      <trkpt lat="41.33327" lon="20.63559">
        <ele>740.51698</ele>
        <time>2022-04-27T11:32:21.733Z</time>
      </trkpt>
      <trkpt lat="41.33317" lon="20.63566">
        <ele>740.854269</ele>
        <time>2022-04-27T11:32:24.730Z</time>
      </trkpt>
      <trkpt lat="41.33308" lon="20.63572">
        <ele>741.187522</ele>
        <time>2022-04-27T11:32:27.746Z</time>
      </trkpt>
      <trkpt lat="41.33299" lon="20.63577">
        <ele>741.507566</ele>
        <time>2022-04-27T11:32:30.762Z</time>
      </trkpt>
      <trkpt lat="41.33292" lon="20.63583">
        <ele>741.806733</ele>
        <time>2022-04-27T11:32:33.739Z</time>
      </trkpt>
      <trkpt lat="41.33282" lon="20.63592">
        <ele>742.191927</ele>
        <time>2022-04-27T11:32:37.735Z</time>
      </trkpt>
      <trkpt lat="41.33273" lon="20.63602">
        <ele>742.558631</ele>
        <time>2022-04-27T11:32:40.739Z</time>
      </trkpt>
      <trkpt lat="41.33265" lon="20.6361">
        <ele>742.904547</ele>
        <time>2022-04-27T11:32:43.733Z</time>
      </trkpt>
      <trkpt lat="41.33257" lon="20.63616">
        <ele>743.203829</ele>
        <time>2022-04-27T11:32:46.745Z</time>
      </trkpt>
      <trkpt lat="41.33247" lon="20.63623">
        <ele>743.068308</ele>
        <time>2022-04-27T11:32:50.733Z</time>
      </trkpt>
      <trkpt lat="41.33237" lon="20.63633">
        <ele>742.922156</ele>
        <time>2022-04-27T11:32:54.745Z</time>
      </trkpt>
      <trkpt lat="41.33228" lon="20.63643">
        <ele>742.770962</ele>
        <time>2022-04-27T11:32:58.758Z</time>
      </trkpt>
      <trkpt lat="41.3322" lon="20.63654">
        <ele>742.62973</ele>
        <time>2022-04-27T11:33:02.734Z</time>
      </trkpt>
      <trkpt lat="41.33213" lon="20.63664">
        <ele>742.504596</ele>
        <time>2022-04-27T11:33:05.738Z</time>
      </trkpt>
      <trkpt lat="41.33205" lon="20.63673">
        <ele>742.376209</ele>
        <time>2022-04-27T11:33:08.739Z</time>
      </trkpt>
      <trkpt lat="41.33195" lon="20.63683">
        <ele>742.223118</ele>
        <time>2022-04-27T11:33:11.736Z</time>
      </trkpt>
      <trkpt lat="41.33185" lon="20.63691">
        <ele>742.0838</ele>
        <time>2022-04-27T11:33:14.737Z</time>
      </trkpt>
      <trkpt lat="41.33174" lon="20.63698">
        <ele>741.925239</ele>
        <time>2022-04-27T11:33:17.728Z</time>
      </trkpt>
      <trkpt lat="41.33165" lon="20.63704">
        <ele>741.806639</ele>
        <time>2022-04-27T11:33:19.739Z</time>
      </trkpt>
      <trkpt lat="41.33157" lon="20.63712">
        <ele>741.68426</ele>
        <time>2022-04-27T11:33:21.741Z</time>
      </trkpt>
      <trkpt lat="41.3315" lon="20.63719">
        <ele>741.570519</ele>
        <time>2022-04-27T11:33:23.735Z</time>
      </trkpt>
      <trkpt lat="41.33138" lon="20.63727">
        <ele>741.41193</ele>
        <time>2022-04-27T11:33:26.758Z</time>
      </trkpt>
      <trkpt lat="41.33128" lon="20.63733">
        <ele>741.274268</ele>
        <time>2022-04-27T11:33:29.753Z</time>
      </trkpt>
      <trkpt lat="41.33118" lon="20.63735">
        <ele>741.147563</ele>
        <time>2022-04-27T11:33:32.729Z</time>
      </trkpt>
      <trkpt lat="41.33106" lon="20.63736">
        <ele>741.004496</ele>
        <time>2022-04-27T11:33:35.731Z</time>
      </trkpt>
      <trkpt lat="41.33094" lon="20.63736">
        <ele>741.13377</ele>
        <time>2022-04-27T11:33:38.768Z</time>
      </trkpt>
      <trkpt lat="41.33082" lon="20.63734">
        <ele>741.287338</ele>
        <time>2022-04-27T11:33:41.738Z</time>
      </trkpt>
      <trkpt lat="41.3307" lon="20.63732">
        <ele>741.436385</ele>
        <time>2022-04-27T11:33:44.736Z</time>
      </trkpt>
      <trkpt lat="41.33058" lon="20.63731">
        <ele>741.579818</ele>
        <time>2022-04-27T11:33:47.734Z</time>
      </trkpt>
      <trkpt lat="41.33047" lon="20.63729">
        <ele>741.715933</ele>
        <time>2022-04-27T11:33:50.748Z</time>
      </trkpt>
      <trkpt lat="41.33036" lon="20.63726">
        <ele>741.852676</ele>
        <time>2022-04-27T11:33:53.737Z</time>
      </trkpt>
      <trkpt lat="41.33026" lon="20.63724">
        <ele>741.978001</ele>
        <time>2022-04-27T11:33:56.735Z</time>
      </trkpt>
      <trkpt lat="41.33018" lon="20.6372">
        <ele>742.092995</ele>
        <time>2022-04-27T11:33:59.746Z</time>
      </trkpt>
      <trkpt lat="41.33009" lon="20.63715">
        <ele>742.205352</ele>
        <time>2022-04-27T11:34:02.744Z</time>
      </trkpt>
      <trkpt lat="41.33001" lon="20.6371">
        <ele>742.321212</ele>
        <time>2022-04-27T11:34:05.737Z</time>
      </trkpt>
      <trkpt lat="41.32992" lon="20.63702">
        <ele>742.446973</ele>
        <time>2022-04-27T11:34:08.733Z</time>
      </trkpt>
      <trkpt lat="41.32985" lon="20.63695">
        <ele>742.56069</ele>
        <time>2022-04-27T11:34:11.748Z</time>
      </trkpt>
      <trkpt lat="41.32977" lon="20.63688">
        <ele>742.672727</ele>
        <time>2022-04-27T11:34:14.739Z</time>
      </trkpt>
      <trkpt lat="41.32968" lon="20.63682">
        <ele>742.801614</ele>
        <time>2022-04-27T11:34:17.761Z</time>
      </trkpt>
      <trkpt lat="41.32958" lon="20.63674">
        <ele>742.943962</ele>
        <time>2022-04-27T11:34:20.738Z</time>
      </trkpt>
      <trkpt lat="41.3295" lon="20.63667">
        <ele>743.068709</ele>
        <time>2022-04-27T11:34:23.737Z</time>
      </trkpt>
      <trkpt lat="41.32941" lon="20.6366">
        <ele>743.1915</ele>
        <time>2022-04-27T11:34:26.742Z</time>
      </trkpt>
      <trkpt lat="41.32931" lon="20.63653">
        <ele>743.280974</ele>
        <time>2022-04-27T11:34:29.759Z</time>
      </trkpt>
      <trkpt lat="41.32921" lon="20.63646">
        <ele>743.370255</ele>
        <time>2022-04-27T11:34:32.733Z</time>
      </trkpt>
      <trkpt lat="41.32911" lon="20.63638">
        <ele>743.453976</ele>
        <time>2022-04-27T11:34:35.745Z</time>
      </trkpt>
      <trkpt lat="41.32901" lon="20.63632">
        <ele>743.541985</ele>
        <time>2022-04-27T11:34:38.732Z</time>
      </trkpt>
      <trkpt lat="41.32891" lon="20.63628">
        <ele>743.618188</ele>
        <time>2022-04-27T11:34:41.744Z</time>
      </trkpt>
      <trkpt lat="41.32881" lon="20.63625">
        <ele>743.691197</ele>
        <time>2022-04-27T11:34:44.738Z</time>
      </trkpt>
      <trkpt lat="41.32871" lon="20.63622">
        <ele>743.768854</ele>
        <time>2022-04-27T11:34:47.738Z</time>
      </trkpt>
      <trkpt lat="41.32861" lon="20.63619">
        <ele>743.850154</ele>
        <time>2022-04-27T11:34:50.729Z</time>
      </trkpt>
      <trkpt lat="41.32849" lon="20.63616">
        <ele>743.936318</ele>
        <time>2022-04-27T11:34:53.739Z</time>
      </trkpt>
      <trkpt lat="41.32839" lon="20.63614">
        <ele>744.015469</ele>
        <time>2022-04-27T11:34:56.735Z</time>
      </trkpt>
      <trkpt lat="41.3283" lon="20.63609">
        <ele>744.087696</ele>
        <time>2022-04-27T11:34:59.735Z</time>
      </trkpt>
      <trkpt lat="41.3282" lon="20.63606">
        <ele>744.163641</ele>
        <time>2022-04-27T11:35:02.735Z</time>
      </trkpt>
      <trkpt lat="41.32808" lon="20.63602">
        <ele>744.252692</ele>
        <time>2022-04-27T11:35:05.740Z</time>
      </trkpt>
      <trkpt lat="41.32798" lon="20.63597">
        <ele>744.335653</ele>
        <time>2022-04-27T11:35:08.738Z</time>
      </trkpt>
      <trkpt lat="41.32787" lon="20.6359">
        <ele>744.424538</ele>
        <time>2022-04-27T11:35:11.737Z</time>
      </trkpt>
      <trkpt lat="41.32777" lon="20.63583">
        <ele>744.513802</ele>
        <time>2022-04-27T11:35:14.745Z</time>
      </trkpt>
      <trkpt lat="41.32766" lon="20.63575">
        <ele>744.620641</ele>
        <time>2022-04-27T11:35:17.737Z</time>
      </trkpt>
      <trkpt lat="41.32756" lon="20.63564">
        <ele>744.752289</ele>
        <time>2022-04-27T11:35:20.732Z</time>
      </trkpt>
      <trkpt lat="41.32746" lon="20.63554">
        <ele>744.878253</ele>
        <time>2022-04-27T11:35:23.737Z</time>
      </trkpt>
      <trkpt lat="41.32736" lon="20.63548">
        <ele>744.994153</ele>
        <time>2022-04-27T11:35:26.738Z</time>
      </trkpt>
      <trkpt lat="41.32724" lon="20.63545">
        <ele>745.115546</ele>
        <time>2022-04-27T11:35:29.739Z</time>
      </trkpt>
      <trkpt lat="41.32712" lon="20.63541">
        <ele>745.238313</ele>
        <time>2022-04-27T11:35:32.737Z</time>
      </trkpt>
      <trkpt lat="41.32701" lon="20.63537">
        <ele>745.36152</ele>
        <time>2022-04-27T11:35:35.737Z</time>
      </trkpt>
      <trkpt lat="41.3269" lon="20.63533">
        <ele>745.471908</ele>
        <time>2022-04-27T11:35:38.736Z</time>
      </trkpt>
      <trkpt lat="41.3268" lon="20.6353">
        <ele>745.574107</ele>
        <time>2022-04-27T11:35:41.739Z</time>
      </trkpt>
      <trkpt lat="41.32671" lon="20.63527">
        <ele>745.668781</ele>
        <time>2022-04-27T11:35:44.735Z</time>
      </trkpt>
      <trkpt lat="41.32661" lon="20.63524">
        <ele>745.778919</ele>
        <time>2022-04-27T11:35:47.746Z</time>
      </trkpt>
      <trkpt lat="41.3265" lon="20.6352">
        <ele>745.898039</ele>
        <time>2022-04-27T11:35:50.737Z</time>
      </trkpt>
      <trkpt lat="41.32638" lon="20.63515">
        <ele>746.015964</ele>
        <time>2022-04-27T11:35:53.740Z</time>
      </trkpt>
      <trkpt lat="41.32629" lon="20.63509">
        <ele>746.120021</ele>
        <time>2022-04-27T11:35:56.742Z</time>
      </trkpt>
      <trkpt lat="41.32621" lon="20.63499">
        <ele>746.233729</ele>
        <time>2022-04-27T11:35:59.767Z</time>
      </trkpt>
      <trkpt lat="41.32613" lon="20.63491">
        <ele>746.331571</ele>
        <time>2022-04-27T11:36:02.748Z</time>
      </trkpt>
      <trkpt lat="41.32607" lon="20.63481">
        <ele>746.285866</ele>
        <time>2022-04-27T11:36:05.737Z</time>
      </trkpt>
      <trkpt lat="41.326" lon="20.63471">
        <ele>746.044656</ele>
        <time>2022-04-27T11:36:08.737Z</time>
      </trkpt>
      <trkpt lat="41.32592" lon="20.63459">
        <ele>745.764949</ele>
        <time>2022-04-27T11:36:11.770Z</time>
      </trkpt>
      <trkpt lat="41.32584" lon="20.63447">
        <ele>745.480576</ele>
        <time>2022-04-27T11:36:14.736Z</time>
      </trkpt>
      <trkpt lat="41.32576" lon="20.63436">
        <ele>745.222164</ele>
        <time>2022-04-27T11:36:17.740Z</time>
      </trkpt>
      <trkpt lat="41.32569" lon="20.63426">
        <ele>744.980607</ele>
        <time>2022-04-27T11:36:20.734Z</time>
      </trkpt>
      <trkpt lat="41.32562" lon="20.63414">
        <ele>744.70306</ele>
        <time>2022-04-27T11:36:23.743Z</time>
      </trkpt>
      <trkpt lat="41.32554" lon="20.63402">
        <ele>744.427917</ele>
        <time>2022-04-27T11:36:26.739Z</time>
      </trkpt>
      <trkpt lat="41.32547" lon="20.6339">
        <ele>744.155759</ele>
        <time>2022-04-27T11:36:29.730Z</time>
      </trkpt>
      <trkpt lat="41.32539" lon="20.63379">
        <ele>743.900601</ele>
        <time>2022-04-27T11:36:32.735Z</time>
      </trkpt>
      <trkpt lat="41.32531" lon="20.6337">
        <ele>743.641594</ele>
        <time>2022-04-27T11:36:35.743Z</time>
      </trkpt>
      <trkpt lat="41.32521" lon="20.63362">
        <ele>743.387975</ele>
        <time>2022-04-27T11:36:38.737Z</time>
      </trkpt>
      <trkpt lat="41.32513" lon="20.63356">
        <ele>743.171263</ele>
        <time>2022-04-27T11:36:41.741Z</time>
      </trkpt>
      <trkpt lat="41.32505" lon="20.63351">
        <ele>742.95864</ele>
        <time>2022-04-27T11:36:44.731Z</time>
      </trkpt>
      <trkpt lat="41.32495" lon="20.63347">
        <ele>742.721486</ele>
        <time>2022-04-27T11:36:47.754Z</time>
      </trkpt>
      <trkpt lat="41.32486" lon="20.63343">
        <ele>742.485983</ele>
        <time>2022-04-27T11:36:50.739Z</time>
      </trkpt>
      <trkpt lat="41.32475" lon="20.6334">
        <ele>742.227528</ele>
        <time>2022-04-27T11:36:53.740Z</time>
      </trkpt>
      <trkpt lat="41.32464" lon="20.63338">
        <ele>742.474251</ele>
        <time>2022-04-27T11:36:56.756Z</time>
      </trkpt>
      <trkpt lat="41.32454" lon="20.63335">
        <ele>742.804071</ele>
        <time>2022-04-27T11:36:59.737Z</time>
      </trkpt>
      <trkpt lat="41.32443" lon="20.63332">
        <ele>743.149816</ele>
        <time>2022-04-27T11:37:02.737Z</time>
      </trkpt>
      <trkpt lat="41.32433" lon="20.63334">
        <ele>743.468556</ele>
        <time>2022-04-27T11:37:05.733Z</time>
      </trkpt>
      <trkpt lat="41.32423" lon="20.63336">
        <ele>743.781166</ele>
        <time>2022-04-27T11:37:08.744Z</time>
      </trkpt>
      <trkpt lat="41.32412" lon="20.63338">
        <ele>744.116981</ele>
        <time>2022-04-27T11:37:11.739Z</time>
      </trkpt>
      <trkpt lat="41.32401" lon="20.63338">
        <ele>744.442138</ele>
        <time>2022-04-27T11:37:14.743Z</time>
      </trkpt>
      <trkpt lat="41.32391" lon="20.63339">
        <ele>744.762327</ele>
        <time>2022-04-27T11:37:17.756Z</time>
      </trkpt>
      <trkpt lat="41.32381" lon="20.63342">
        <ele>745.080253</ele>
        <time>2022-04-27T11:37:20.735Z</time>
      </trkpt>
      <trkpt lat="41.32371" lon="20.63345">
        <ele>745.40165</ele>
        <time>2022-04-27T11:37:23.764Z</time>
      </trkpt>
      <trkpt lat="41.32359" lon="20.63348">
        <ele>745.764239</ele>
        <time>2022-04-27T11:37:26.734Z</time>
      </trkpt>
      <trkpt lat="41.32349" lon="20.6335">
        <ele>746.099302</ele>
        <time>2022-04-27T11:37:29.753Z</time>
      </trkpt>
      <trkpt lat="41.32338" lon="20.63352">
        <ele>746.427897</ele>
        <time>2022-04-27T11:37:32.731Z</time>
      </trkpt>
      <trkpt lat="41.32328" lon="20.63355">
        <ele>746.75455</ele>
        <time>2022-04-27T11:37:35.746Z</time>
      </trkpt>
      <trkpt lat="41.32316" lon="20.63358">
        <ele>747.108107</ele>
        <time>2022-04-27T11:37:38.736Z</time>
      </trkpt>
      <trkpt lat="41.32305" lon="20.6336">
        <ele>747.467658</ele>
        <time>2022-04-27T11:37:41.734Z</time>
      </trkpt>
      <trkpt lat="41.32293" lon="20.63362">
        <ele>747.721391</ele>
        <time>2022-04-27T11:37:44.739Z</time>
      </trkpt>
      <trkpt lat="41.32281" lon="20.63367">
        <ele>747.556</ele>
        <time>2022-04-27T11:37:47.736Z</time>
      </trkpt>
      <trkpt lat="41.3227" lon="20.63373">
        <ele>747.397599</ele>
        <time>2022-04-27T11:37:50.732Z</time>
      </trkpt>
      <trkpt lat="41.3226" lon="20.6338">
        <ele>747.254742</ele>
        <time>2022-04-27T11:37:53.741Z</time>
      </trkpt>
      <trkpt lat="41.32252" lon="20.63387">
        <ele>747.119889</ele>
        <time>2022-04-27T11:37:56.745Z</time>
      </trkpt>
      <trkpt lat="41.32243" lon="20.63397">
        <ele>746.96591</ele>
        <time>2022-04-27T11:37:59.749Z</time>
      </trkpt>
      <trkpt lat="41.32236" lon="20.63405">
        <ele>746.843569</ele>
        <time>2022-04-27T11:38:01.746Z</time>
      </trkpt>
      <trkpt lat="41.32229" lon="20.63413">
        <ele>746.71981</ele>
        <time>2022-04-27T11:38:03.735Z</time>
      </trkpt>
      <trkpt lat="41.32219" lon="20.63422">
        <ele>746.562835</ele>
        <time>2022-04-27T11:38:06.739Z</time>
      </trkpt>
      <trkpt lat="41.3221" lon="20.63431">
        <ele>746.417317</ele>
        <time>2022-04-27T11:38:09.738Z</time>
      </trkpt>
      <trkpt lat="41.32201" lon="20.6344">
        <ele>746.263649</ele>
        <time>2022-04-27T11:38:12.741Z</time>
      </trkpt>
      <trkpt lat="41.32192" lon="20.63449">
        <ele>746.113765</ele>
        <time>2022-04-27T11:38:15.736Z</time>
      </trkpt>
      <trkpt lat="41.32183" lon="20.63455">
        <ele>745.976749</ele>
        <time>2022-04-27T11:38:18.743Z</time>
      </trkpt>
      <trkpt lat="41.32174" lon="20.63461">
        <ele>745.854439</ele>
        <time>2022-04-27T11:38:21.747Z</time>
      </trkpt>
      <trkpt lat="41.32163" lon="20.63467">
        <ele>745.700662</ele>
        <time>2022-04-27T11:38:24.741Z</time>
      </trkpt>
      <trkpt lat="41.32152" lon="20.63471">
        <ele>745.545266</ele>
        <time>2022-04-27T11:38:27.739Z</time>
      </trkpt>
      <trkpt lat="41.32141" lon="20.63475">
        <ele>745.389635</ele>
        <time>2022-04-27T11:38:30.733Z</time>
      </trkpt>
      <trkpt lat="41.3213" lon="20.63475">
        <ele>745.33182</ele>
        <time>2022-04-27T11:38:33.748Z</time>
      </trkpt>
      <trkpt lat="41.32119" lon="20.63475">
        <ele>745.278413</ele>
        <time>2022-04-27T11:38:36.733Z</time>
      </trkpt>
      <trkpt lat="41.32108" lon="20.63477">
        <ele>745.228864</ele>
        <time>2022-04-27T11:38:39.753Z</time>
      </trkpt>
      <trkpt lat="41.32096" lon="20.6348">
        <ele>745.170839</ele>
        <time>2022-04-27T11:38:42.736Z</time>
      </trkpt>
      <trkpt lat="41.32085" lon="20.6348">
        <ele>745.115561</ele>
        <time>2022-04-27T11:38:45.740Z</time>
      </trkpt>
      <trkpt lat="41.32073" lon="20.63479">
        <ele>745.060754</ele>
        <time>2022-04-27T11:38:48.740Z</time>
      </trkpt>
      <trkpt lat="41.32062" lon="20.63481">
        <ele>745.009883</ele>
        <time>2022-04-27T11:38:51.736Z</time>
      </trkpt>
      <trkpt lat="41.32052" lon="20.63482">
        <ele>744.958616</ele>
        <time>2022-04-27T11:38:54.729Z</time>
      </trkpt>
      <trkpt lat="41.32041" lon="20.63484">
        <ele>744.908503</ele>
        <time>2022-04-27T11:38:57.748Z</time>
      </trkpt>
      <trkpt lat="41.3203" lon="20.63489">
        <ele>744.852256</ele>
        <time>2022-04-27T11:39:00.736Z</time>
      </trkpt>
      <trkpt lat="41.32019" lon="20.63492">
        <ele>744.798739</ele>
        <time>2022-04-27T11:39:03.736Z</time>
      </trkpt>
      <trkpt lat="41.32009" lon="20.63497">
        <ele>744.751173</ele>
        <time>2022-04-27T11:39:06.749Z</time>
      </trkpt>
      <trkpt lat="41.32" lon="20.63504">
        <ele>744.702283</ele>
        <time>2022-04-27T11:39:09.741Z</time>
      </trkpt>
      <trkpt lat="41.3199" lon="20.63511">
        <ele>744.648487</ele>
        <time>2022-04-27T11:39:12.756Z</time>
      </trkpt>
      <trkpt lat="41.31981" lon="20.6352">
        <ele>744.59455</ele>
        <time>2022-04-27T11:39:15.736Z</time>
      </trkpt>
      <trkpt lat="41.31972" lon="20.6353">
        <ele>744.536711</ele>
        <time>2022-04-27T11:39:18.767Z</time>
      </trkpt>
      <trkpt lat="41.31962" lon="20.63541">
        <ele>744.106564</ele>
        <time>2022-04-27T11:39:21.733Z</time>
      </trkpt>
      <trkpt lat="41.31953" lon="20.63551">
        <ele>743.622597</ele>
        <time>2022-04-27T11:39:24.740Z</time>
      </trkpt>
      <trkpt lat="41.31944" lon="20.63561">
        <ele>743.131629</ele>
        <time>2022-04-27T11:39:27.737Z</time>
      </trkpt>
      <trkpt lat="41.31935" lon="20.63572">
        <ele>742.662903</ele>
        <time>2022-04-27T11:39:30.743Z</time>
      </trkpt>
      <trkpt lat="41.31927" lon="20.63582">
        <ele>742.215926</ele>
        <time>2022-04-27T11:39:33.745Z</time>
      </trkpt>
      <trkpt lat="41.3192" lon="20.63591">
        <ele>741.818307</ele>
        <time>2022-04-27T11:39:36.733Z</time>
      </trkpt>
      <trkpt lat="41.31914" lon="20.63602">
        <ele>741.407735</ele>
        <time>2022-04-27T11:39:39.736Z</time>
      </trkpt>
      <trkpt lat="41.31906" lon="20.63613">
        <ele>740.963363</ele>
        <time>2022-04-27T11:39:42.750Z</time>
      </trkpt>
      <trkpt lat="41.31898" lon="20.63623">
        <ele>740.507847</ele>
        <time>2022-04-27T11:39:45.731Z</time>
      </trkpt>
      <trkpt lat="41.3189" lon="20.63634">
        <ele>740.032283</ele>
        <time>2022-04-27T11:39:48.736Z</time>
      </trkpt>
      <trkpt lat="41.31882" lon="20.63644">
        <ele>739.607281</ele>
        <time>2022-04-27T11:39:51.741Z</time>
      </trkpt>
      <trkpt lat="41.31874" lon="20.63654">
        <ele>739.138553</ele>
        <time>2022-04-27T11:39:54.736Z</time>
      </trkpt>
      <trkpt lat="41.31866" lon="20.63666">
        <ele>738.662628</ele>
        <time>2022-04-27T11:39:57.735Z</time>
      </trkpt>
      <trkpt lat="41.31857" lon="20.63677">
        <ele>738.15752</ele>
        <time>2022-04-27T11:40:00.737Z</time>
      </trkpt>
      <trkpt lat="41.31848" lon="20.63688">
        <ele>737.680788</ele>
        <time>2022-04-27T11:40:03.741Z</time>
      </trkpt>
      <trkpt lat="41.3184" lon="20.63698">
        <ele>737.250845</ele>
        <time>2022-04-27T11:40:06.743Z</time>
      </trkpt>
      <trkpt lat="41.31832" lon="20.63708">
        <ele>737.146684</ele>
        <time>2022-04-27T11:40:09.746Z</time>
      </trkpt>
      <trkpt lat="41.31823" lon="20.6372">
        <ele>737.030392</ele>
        <time>2022-04-27T11:40:12.743Z</time>
      </trkpt>
      <trkpt lat="41.31814" lon="20.63732">
        <ele>736.909705</ele>
        <time>2022-04-27T11:40:15.739Z</time>
      </trkpt>
      <trkpt lat="41.31804" lon="20.63742">
        <ele>736.794582</ele>
        <time>2022-04-27T11:40:18.732Z</time>
      </trkpt>
      <trkpt lat="41.31794" lon="20.63753">
        <ele>736.66984</ele>
        <time>2022-04-27T11:40:21.745Z</time>
      </trkpt>
      <trkpt lat="41.31784" lon="20.63761">
        <ele>736.560876</ele>
        <time>2022-04-27T11:40:24.732Z</time>
      </trkpt>
      <trkpt lat="41.31774" lon="20.63768">
        <ele>736.457485</ele>
        <time>2022-04-27T11:40:27.740Z</time>
      </trkpt>
      <trkpt lat="41.31764" lon="20.63774">
        <ele>736.35041</ele>
        <time>2022-04-27T11:40:30.739Z</time>
      </trkpt>
      <trkpt lat="41.31753" lon="20.63781">
        <ele>736.237651</ele>
        <time>2022-04-27T11:40:33.735Z</time>
      </trkpt>
      <trkpt lat="41.31743" lon="20.63787">
        <ele>736.13426</ele>
        <time>2022-04-27T11:40:36.730Z</time>
      </trkpt>
      <trkpt lat="41.31733" lon="20.63795">
        <ele>736.0304</ele>
        <time>2022-04-27T11:40:39.732Z</time>
      </trkpt>
      <trkpt lat="41.31724" lon="20.63807">
        <ele>735.913897</ele>
        <time>2022-04-27T11:40:42.744Z</time>
      </trkpt>
      <trkpt lat="41.31718" lon="20.63815">
        <ele>735.828567</ele>
        <time>2022-04-27T11:40:44.735Z</time>
      </trkpt>
      <trkpt lat="41.31708" lon="20.63827">
        <ele>735.706245</ele>
        <time>2022-04-27T11:40:47.751Z</time>
      </trkpt>
      <trkpt lat="41.31698" lon="20.63838">
        <ele>735.587877</ele>
        <time>2022-04-27T11:40:50.734Z</time>
      </trkpt>
      <trkpt lat="41.31689" lon="20.63848">
        <ele>735.855809</ele>
        <time>2022-04-27T11:40:53.741Z</time>
      </trkpt>
      <trkpt lat="41.31679" lon="20.63856">
        <ele>736.157427</ele>
        <time>2022-04-27T11:40:56.736Z</time>
      </trkpt>
      <trkpt lat="41.31669" lon="20.63864">
        <ele>736.479771</ele>
        <time>2022-04-27T11:40:59.731Z</time>
      </trkpt>
      <trkpt lat="41.31658" lon="20.6387">
        <ele>736.778086</ele>
        <time>2022-04-27T11:41:02.733Z</time>
      </trkpt>
      <trkpt lat="41.31648" lon="20.63874">
        <ele>737.04064</ele>
        <time>2022-04-27T11:41:05.746Z</time>
      </trkpt>
      <trkpt lat="41.31638" lon="20.63877">
        <ele>737.313158</ele>
        <time>2022-04-27T11:41:08.740Z</time>
      </trkpt>
      <trkpt lat="41.31627" lon="20.63879">
        <ele>737.604134</ele>
        <time>2022-04-27T11:41:11.740Z</time>
      </trkpt>
      <trkpt lat="41.31617" lon="20.63882">
        <ele>737.890887</ele>
        <time>2022-04-27T11:41:14.735Z</time>
      </trkpt>
      <trkpt lat="41.31605" lon="20.63886">
        <ele>738.19529</ele>
        <time>2022-04-27T11:41:17.736Z</time>
      </trkpt>
      <trkpt lat="41.31592" lon="20.63889">
        <ele>738.542632</ele>
        <time>2022-04-27T11:41:20.731Z</time>
      </trkpt>
      <trkpt lat="41.31583" lon="20.63892">
        <ele>738.789501</ele>
        <time>2022-04-27T11:41:22.738Z</time>
      </trkpt>
      <trkpt lat="41.31573" lon="20.63895">
        <ele>739.052546</ele>
        <time>2022-04-27T11:41:24.736Z</time>
      </trkpt>
      <trkpt lat="41.31561" lon="20.639">
        <ele>739.373633</ele>
        <time>2022-04-27T11:41:27.761Z</time>
      </trkpt>
      <trkpt lat="41.3155" lon="20.63904">
        <ele>739.697777</ele>
        <time>2022-04-27T11:41:30.736Z</time>
      </trkpt>
      <trkpt lat="41.31538" lon="20.63908">
        <ele>740.006677</ele>
        <time>2022-04-27T11:41:33.736Z</time>
      </trkpt>
      <trkpt lat="41.31527" lon="20.63912">
        <ele>740.29556</ele>
        <time>2022-04-27T11:41:36.733Z</time>
      </trkpt>
      <trkpt lat="41.31516" lon="20.63917">
        <ele>740.473353</ele>
        <time>2022-04-27T11:41:40.739Z</time>
      </trkpt>
      <trkpt lat="41.31506" lon="20.6392">
        <ele>740.633753</ele>
        <time>2022-04-27T11:41:44.735Z</time>
      </trkpt>
      <trkpt lat="41.31495" lon="20.63923">
        <ele>740.804851</ele>
        <time>2022-04-27T11:41:48.737Z</time>
      </trkpt>
      <trkpt lat="41.31485" lon="20.63928">
        <ele>740.962849</ele>
        <time>2022-04-27T11:41:51.749Z</time>
      </trkpt>
      <trkpt lat="41.31475" lon="20.63935">
        <ele>741.138528</ele>
        <time>2022-04-27T11:41:54.732Z</time>
      </trkpt>
      <trkpt lat="41.31465" lon="20.63943">
        <ele>741.313178</ele>
        <time>2022-04-27T11:41:57.740Z</time>
      </trkpt>
      <trkpt lat="41.31456" lon="20.6395">
        <ele>741.474802</ele>
        <time>2022-04-27T11:42:00.741Z</time>
      </trkpt>
      <trkpt lat="41.31447" lon="20.63959">
        <ele>741.652603</ele>
        <time>2022-04-27T11:42:03.738Z</time>
      </trkpt>
      <trkpt lat="41.31438" lon="20.63967">
        <ele>741.820838</ele>
        <time>2022-04-27T11:42:06.727Z</time>
      </trkpt>
      <trkpt lat="41.31429" lon="20.63974">
        <ele>741.969188</ele>
        <time>2022-04-27T11:42:09.741Z</time>
      </trkpt>
      <trkpt lat="41.3142" lon="20.63979">
        <ele>742.118018</ele>
        <time>2022-04-27T11:42:12.761Z</time>
      </trkpt>
      <trkpt lat="41.31411" lon="20.63981">
        <ele>742.263472</ele>
        <time>2022-04-27T11:42:15.739Z</time>
      </trkpt>
      <trkpt lat="41.31401" lon="20.63982">
        <ele>742.415283</ele>
        <time>2022-04-27T11:42:18.754Z</time>
      </trkpt>
      <trkpt lat="41.31389" lon="20.63983">
        <ele>742.59297</ele>
        <time>2022-04-27T11:42:21.745Z</time>
      </trkpt>
      <trkpt lat="41.31378" lon="20.6398">
        <ele>742.775681</ele>
        <time>2022-04-27T11:42:24.735Z</time>
      </trkpt>
      <trkpt lat="41.31367" lon="20.63976">
        <ele>742.942229</ele>
        <time>2022-04-27T11:42:27.732Z</time>
      </trkpt>
      <trkpt lat="41.31356" lon="20.63975">
        <ele>742.873084</ele>
        <time>2022-04-27T11:42:30.730Z</time>
      </trkpt>
      <trkpt lat="41.31345" lon="20.63971">
        <ele>742.543062</ele>
        <time>2022-04-27T11:42:33.740Z</time>
      </trkpt>
      <trkpt lat="41.31334" lon="20.63968">
        <ele>742.227805</ele>
        <time>2022-04-27T11:42:36.738Z</time>
      </trkpt>
      <trkpt lat="41.31324" lon="20.63966">
        <ele>741.911265</ele>
        <time>2022-04-27T11:42:39.740Z</time>
      </trkpt>
      <trkpt lat="41.31313" lon="20.63964">
        <ele>741.594519</ele>
        <time>2022-04-27T11:42:42.732Z</time>
      </trkpt>
      <trkpt lat="41.31302" lon="20.63962">
        <ele>741.252793</ele>
        <time>2022-04-27T11:42:45.744Z</time>
      </trkpt>
      <trkpt lat="41.3129" lon="20.63959">
        <ele>740.889176</ele>
        <time>2022-04-27T11:42:48.734Z</time>
      </trkpt>
      <trkpt lat="41.31277" lon="20.63955">
        <ele>740.515067</ele>
        <time>2022-04-27T11:42:51.768Z</time>
      </trkpt>
      <trkpt lat="41.31266" lon="20.63952">
        <ele>740.182618</ele>
        <time>2022-04-27T11:42:54.731Z</time>
      </trkpt>
      <trkpt lat="41.31256" lon="20.6395">
        <ele>739.889284</ele>
        <time>2022-04-27T11:42:57.738Z</time>
      </trkpt>
      <trkpt lat="41.31247" lon="20.63948">
        <ele>739.603306</ele>
        <time>2022-04-27T11:43:00.730Z</time>
      </trkpt>
      <trkpt lat="41.31236" lon="20.63944">
        <ele>739.281252</ele>
        <time>2022-04-27T11:43:03.733Z</time>
      </trkpt>
      <trkpt lat="41.31225" lon="20.63941">
        <ele>738.948239</ele>
        <time>2022-04-27T11:43:06.756Z</time>
      </trkpt>
      <trkpt lat="41.31215" lon="20.63937">
        <ele>738.626978</ele>
        <time>2022-04-27T11:43:09.727Z</time>
      </trkpt>
      <trkpt lat="41.31205" lon="20.63933">
        <ele>738.322399</ele>
        <time>2022-04-27T11:43:12.746Z</time>
      </trkpt>
      <trkpt lat="41.31195" lon="20.63928">
        <ele>738.010925</ele>
        <time>2022-04-27T11:43:15.734Z</time>
      </trkpt>
      <trkpt lat="41.31185" lon="20.63923">
        <ele>737.706585</ele>
        <time>2022-04-27T11:43:18.743Z</time>
      </trkpt>
      <trkpt lat="41.31175" lon="20.63918">
        <ele>737.435431</ele>
        <time>2022-04-27T11:43:21.733Z</time>
      </trkpt>
      <trkpt lat="41.31163" lon="20.63913">
        <ele>737.137571</ele>
        <time>2022-04-27T11:43:24.738Z</time>
      </trkpt>
      <trkpt lat="41.31151" lon="20.63908">
        <ele>736.818342</ele>
        <time>2022-04-27T11:43:27.727Z</time>
      </trkpt>
      <trkpt lat="41.3114" lon="20.63903">
        <ele>736.528156</ele>
        <time>2022-04-27T11:43:30.729Z</time>
      </trkpt>
      <trkpt lat="41.3113" lon="20.63898">
        <ele>736.263202</ele>
        <time>2022-04-27T11:43:33.733Z</time>
      </trkpt>
      <trkpt lat="41.3112" lon="20.63892">
        <ele>735.988423</ele>
        <time>2022-04-27T11:43:36.737Z</time>
      </trkpt>
      <trkpt lat="41.3111" lon="20.63882">
        <ele>735.685061</ele>
        <time>2022-04-27T11:43:39.731Z</time>
      </trkpt>
      <trkpt lat="41.31102" lon="20.63872">
        <ele>735.388801</ele>
        <time>2022-04-27T11:43:42.762Z</time>
      </trkpt>
      <trkpt lat="41.31094" lon="20.63859">
        <ele>735.081669</ele>
        <time>2022-04-27T11:43:45.731Z</time>
      </trkpt>
      <trkpt lat="41.31087" lon="20.63848">
        <ele>734.815328</ele>
        <time>2022-04-27T11:43:48.742Z</time>
      </trkpt>
      <trkpt lat="41.3108" lon="20.63837">
        <ele>734.551763</ele>
        <time>2022-04-27T11:43:51.741Z</time>
      </trkpt>
      <trkpt lat="41.31075" lon="20.63823">
        <ele>734.257867</ele>
        <time>2022-04-27T11:43:54.729Z</time>
      </trkpt>
      <trkpt lat="41.3107" lon="20.63808">
        <ele>733.961747</ele>
        <time>2022-04-27T11:43:57.745Z</time>
      </trkpt>
      <trkpt lat="41.31066" lon="20.63795">
        <ele>733.693485</ele>
        <time>2022-04-27T11:44:00.742Z</time>
      </trkpt>
      <trkpt lat="41.31062" lon="20.63782">
        <ele>733.421069</ele>
        <time>2022-04-27T11:44:03.733Z</time>
      </trkpt>
      <trkpt lat="41.31058" lon="20.63768">
        <ele>733.63699</ele>
        <time>2022-04-27T11:44:06.734Z</time>
      </trkpt>
      <trkpt lat="41.31055" lon="20.63755">
        <ele>734.655525</ele>
        <time>2022-04-27T11:44:09.733Z</time>
      </trkpt>
      <trkpt lat="41.31051" lon="20.6374">
        <ele>735.684902</ele>
        <time>2022-04-27T11:44:12.759Z</time>
      </trkpt>
      <trkpt lat="41.31047" lon="20.63725">
        <ele>736.82063</ele>
        <time>2022-04-27T11:44:15.729Z</time>
      </trkpt>
      <trkpt lat="41.31044" lon="20.63709">
        <ele>737.937725</ele>
        <time>2022-04-27T11:44:18.730Z</time>
      </trkpt>
      <trkpt lat="41.31043" lon="20.63694">
        <ele>739.027777</ele>
        <time>2022-04-27T11:44:21.732Z</time>
      </trkpt>
      <trkpt lat="41.31043" lon="20.63679">
        <ele>740.091464</ele>
        <time>2022-04-27T11:44:24.734Z</time>
      </trkpt>
      <trkpt lat="41.31042" lon="20.63665">
        <ele>741.050226</ele>
        <time>2022-04-27T11:44:27.740Z</time>
      </trkpt>
      <trkpt lat="41.31041" lon="20.63653">
        <ele>741.891774</ele>
        <time>2022-04-27T11:44:30.748Z</time>
      </trkpt>
      <trkpt lat="41.31042" lon="20.63638">
        <ele>742.907022</ele>
        <time>2022-04-27T11:44:34.737Z</time>
      </trkpt>
      <trkpt lat="41.31042" lon="20.63625">
        <ele>743.845839</ele>
        <time>2022-04-27T11:44:37.735Z</time>
      </trkpt>
      <trkpt lat="41.31042" lon="20.63611">
        <ele>744.777294</ele>
        <time>2022-04-27T11:44:40.741Z</time>
      </trkpt>
      <trkpt lat="41.31043" lon="20.63598">
        <ele>745.69713</ele>
        <time>2022-04-27T11:44:43.742Z</time>
      </trkpt>
      <trkpt lat="41.31043" lon="20.63586">
        <ele>746.567797</ele>
        <time>2022-04-27T11:44:46.765Z</time>
      </trkpt>
      <trkpt lat="41.31044" lon="20.63572">
        <ele>747.518619</ele>
        <time>2022-04-27T11:44:49.732Z</time>
      </trkpt>
      <trkpt lat="41.31044" lon="20.6356">
        <ele>748.36913</ele>
        <time>2022-04-27T11:44:52.734Z</time>
      </trkpt>
      <trkpt lat="41.31044" lon="20.63548">
        <ele>749.217625</ele>
        <time>2022-04-27T11:44:55.741Z</time>
      </trkpt>
      <trkpt lat="41.31045" lon="20.63535">
        <ele>749.892035</ele>
        <time>2022-04-27T11:44:58.741Z</time>
      </trkpt>
      <trkpt lat="41.31044" lon="20.63521">
        <ele>749.846996</ele>
        <time>2022-04-27T11:45:01.735Z</time>
      </trkpt>
      <trkpt lat="41.31044" lon="20.63509">
        <ele>749.80422</ele>
        <time>2022-04-27T11:45:04.735Z</time>
      </trkpt>
      <trkpt lat="41.31043" lon="20.63495">
        <ele>749.756998</ele>
        <time>2022-04-27T11:45:07.731Z</time>
      </trkpt>
      <trkpt lat="41.31043" lon="20.6348">
        <ele>749.704701</ele>
        <time>2022-04-27T11:45:10.735Z</time>
      </trkpt>
      <trkpt lat="41.31042" lon="20.63466">
        <ele>749.658424</ele>
        <time>2022-04-27T11:45:13.739Z</time>
      </trkpt>
      <trkpt lat="41.31041" lon="20.6345">
        <ele>749.605527</ele>
        <time>2022-04-27T11:45:16.737Z</time>
      </trkpt>
      <trkpt lat="41.31039" lon="20.63437">
        <ele>749.55754</ele>
        <time>2022-04-27T11:45:19.734Z</time>
      </trkpt>
      <trkpt lat="41.31035" lon="20.63423">
        <ele>749.509228</ele>
        <time>2022-04-27T11:45:22.737Z</time>
      </trkpt>
      <trkpt lat="41.31031" lon="20.63411">
        <ele>749.462477</ele>
        <time>2022-04-27T11:45:25.762Z</time>
      </trkpt>
      <trkpt lat="41.31026" lon="20.63398">
        <ele>749.414633</ele>
        <time>2022-04-27T11:45:28.737Z</time>
      </trkpt>
      <trkpt lat="41.31021" lon="20.63385">
        <ele>749.36394</ele>
        <time>2022-04-27T11:45:31.728Z</time>
      </trkpt>
      <trkpt lat="41.31017" lon="20.63371">
        <ele>749.313221</ele>
        <time>2022-04-27T11:45:34.737Z</time>
      </trkpt>
      <trkpt lat="41.31013" lon="20.63358">
        <ele>749.266595</ele>
        <time>2022-04-27T11:45:37.759Z</time>
      </trkpt>
      <trkpt lat="41.31011" lon="20.63345">
        <ele>749.220125</ele>
        <time>2022-04-27T11:45:40.737Z</time>
      </trkpt>
      <trkpt lat="41.31008" lon="20.63332">
        <ele>749.174651</ele>
        <time>2022-04-27T11:45:43.739Z</time>
      </trkpt>
      <trkpt lat="41.31007" lon="20.63319">
        <ele>749.130403</ele>
        <time>2022-04-27T11:45:46.743Z</time>
      </trkpt>
      <trkpt lat="41.31007" lon="20.63305">
        <ele>749.009709</ele>
        <time>2022-04-27T11:45:49.731Z</time>
      </trkpt>
      <trkpt lat="41.31007" lon="20.63291">
        <ele>748.491126</ele>
        <time>2022-04-27T11:45:52.736Z</time>
      </trkpt>
      <trkpt lat="41.31006" lon="20.63276">
        <ele>747.975896</ele>
        <time>2022-04-27T11:45:55.738Z</time>
      </trkpt>
      <trkpt lat="41.31005" lon="20.63263">
        <ele>747.473649</ele>
        <time>2022-04-27T11:45:58.753Z</time>
      </trkpt>
      <trkpt lat="41.31004" lon="20.63249">
        <ele>746.95796</ele>
        <time>2022-04-27T11:46:01.742Z</time>
      </trkpt>
      <trkpt lat="41.31002" lon="20.63233">
        <ele>746.378884</ele>
        <time>2022-04-27T11:46:04.736Z</time>
      </trkpt>
      <trkpt lat="41.31" lon="20.63221">
        <ele>745.930674</ele>
        <time>2022-04-27T11:46:06.743Z</time>
      </trkpt>
      <trkpt lat="41.30996" lon="20.63205">
        <ele>745.336427</ele>
        <time>2022-04-27T11:46:09.737Z</time>
      </trkpt>
      <trkpt lat="41.30991" lon="20.63191">
        <ele>744.767147</ele>
        <time>2022-04-27T11:46:12.738Z</time>
      </trkpt>
      <trkpt lat="41.30984" lon="20.63179">
        <ele>744.230644</ele>
        <time>2022-04-27T11:46:15.737Z</time>
      </trkpt>
      <trkpt lat="41.30976" lon="20.63171">
        <ele>743.736283</ele>
        <time>2022-04-27T11:46:18.730Z</time>
      </trkpt>
      <trkpt lat="41.30967" lon="20.63165">
        <ele>743.243756</ele>
        <time>2022-04-27T11:46:21.732Z</time>
      </trkpt>
      <trkpt lat="41.30957" lon="20.6316">
        <ele>742.734516</ele>
        <time>2022-04-27T11:46:24.738Z</time>
      </trkpt>
      <trkpt lat="41.30947" lon="20.63155">
        <ele>742.200937</ele>
        <time>2022-04-27T11:46:27.761Z</time>
      </trkpt>
      <trkpt lat="41.30935" lon="20.63151">
        <ele>741.617711</ele>
        <time>2022-04-27T11:46:30.727Z</time>
      </trkpt>
      <trkpt lat="41.30923" lon="20.63148">
        <ele>741.020729</ele>
        <time>2022-04-27T11:46:33.735Z</time>
      </trkpt>
      <trkpt lat="41.30911" lon="20.63149">
        <ele>740.426604</ele>
        <time>2022-04-27T11:46:36.733Z</time>
      </trkpt>
      <trkpt lat="41.30901" lon="20.63151">
        <ele>739.960508</ele>
        <time>2022-04-27T11:46:39.735Z</time>
      </trkpt>
      <trkpt lat="41.30892" lon="20.63154">
        <ele>739.541989</ele>
        <time>2022-04-27T11:46:42.735Z</time>
      </trkpt>
      <trkpt lat="41.30882" lon="20.63157">
        <ele>739.065275</ele>
        <time>2022-04-27T11:46:45.732Z</time>
      </trkpt>
      <trkpt lat="41.30871" lon="20.6316">
        <ele>738.532845</ele>
        <time>2022-04-27T11:46:48.737Z</time>
      </trkpt>
      <trkpt lat="41.30859" lon="20.6316">
        <ele>737.989577</ele>
        <time>2022-04-27T11:46:51.735Z</time>
      </trkpt>
      <trkpt lat="41.30847" lon="20.63158">
        <ele>737.442328</ele>
        <time>2022-04-27T11:46:54.733Z</time>
      </trkpt>
      <trkpt lat="41.30837" lon="20.63155">
        <ele>736.936028</ele>
        <time>2022-04-27T11:46:57.728Z</time>
      </trkpt>
      <trkpt lat="41.30827" lon="20.63151">
        <ele>736.465572</ele>
        <time>2022-04-27T11:47:00.775Z</time>
      </trkpt>
      <trkpt lat="41.30818" lon="20.63146">
        <ele>735.998747</ele>
        <time>2022-04-27T11:47:03.736Z</time>
      </trkpt>
      <trkpt lat="41.30808" lon="20.63141">
        <ele>735.528194</ele>
        <time>2022-04-27T11:47:06.754Z</time>
      </trkpt>
      <trkpt lat="41.30797" lon="20.63134">
        <ele>734.966569</ele>
        <time>2022-04-27T11:47:09.747Z</time>
      </trkpt>
      <trkpt lat="41.30786" lon="20.63126">
        <ele>734.384602</ele>
        <time>2022-04-27T11:47:12.732Z</time>
      </trkpt>
      <trkpt lat="41.30776" lon="20.63119">
        <ele>733.834617</ele>
        <time>2022-04-27T11:47:15.734Z</time>
      </trkpt>
      <trkpt lat="41.30766" lon="20.63112">
        <ele>733.336232</ele>
        <time>2022-04-27T11:47:18.737Z</time>
      </trkpt>
      <trkpt lat="41.30757" lon="20.63106">
        <ele>732.845305</ele>
        <time>2022-04-27T11:47:21.732Z</time>
      </trkpt>
      <trkpt lat="41.30748" lon="20.631">
        <ele>732.378049</ele>
        <time>2022-04-27T11:47:24.735Z</time>
      </trkpt>
      <trkpt lat="41.30739" lon="20.63093">
        <ele>732.128521</ele>
        <time>2022-04-27T11:47:27.731Z</time>
      </trkpt>
      <trkpt lat="41.30731" lon="20.63087">
        <ele>732.323051</ele>
        <time>2022-04-27T11:47:30.732Z</time>
      </trkpt>
      <trkpt lat="41.30722" lon="20.6308">
        <ele>732.531308</ele>
        <time>2022-04-27T11:47:33.764Z</time>
      </trkpt>
      <trkpt lat="41.30714" lon="20.63074">
        <ele>732.737212</ele>
        <time>2022-04-27T11:47:36.755Z</time>
      </trkpt>
      <trkpt lat="41.30705" lon="20.63068">
        <ele>732.949446</ele>
        <time>2022-04-27T11:47:39.732Z</time>
      </trkpt>
      <trkpt lat="41.30696" lon="20.63061">
        <ele>733.155228</ele>
        <time>2022-04-27T11:47:42.736Z</time>
      </trkpt>
      <trkpt lat="41.30688" lon="20.63054">
        <ele>733.367059</ele>
        <time>2022-04-27T11:47:45.740Z</time>
      </trkpt>
      <trkpt lat="41.30678" lon="20.63047">
        <ele>733.586679</ele>
        <time>2022-04-27T11:47:48.730Z</time>
      </trkpt>
      <trkpt lat="41.3067" lon="20.63041">
        <ele>733.79591</ele>
        <time>2022-04-27T11:47:51.736Z</time>
      </trkpt>
      <trkpt lat="41.30661" lon="20.63036">
        <ele>734.006587</ele>
        <time>2022-04-27T11:47:54.734Z</time>
      </trkpt>
      <trkpt lat="41.3065" lon="20.6303">
        <ele>734.24093</ele>
        <time>2022-04-27T11:47:57.733Z</time>
      </trkpt>
      <trkpt lat="41.30639" lon="20.63024">
        <ele>734.501159</ele>
        <time>2022-04-27T11:48:00.736Z</time>
      </trkpt>
      <trkpt lat="41.30627" lon="20.6302">
        <ele>734.760281</ele>
        <time>2022-04-27T11:48:03.732Z</time>
      </trkpt>
      <trkpt lat="41.30615" lon="20.63017">
        <ele>735.019924</ele>
        <time>2022-04-27T11:48:06.725Z</time>
      </trkpt>
      <trkpt lat="41.30604" lon="20.63019">
        <ele>735.233861</ele>
        <time>2022-04-27T11:48:09.744Z</time>
      </trkpt>
      <trkpt lat="41.30594" lon="20.63022">
        <ele>735.450368</ele>
        <time>2022-04-27T11:48:12.744Z</time>
      </trkpt>
      <trkpt lat="41.30583" lon="20.63027">
        <ele>735.699629</ele>
        <time>2022-04-27T11:48:15.738Z</time>
      </trkpt>
      <trkpt lat="41.30573" lon="20.63031">
        <ele>735.80584</ele>
        <time>2022-04-27T11:48:18.745Z</time>
      </trkpt>
      <trkpt lat="41.30564" lon="20.63037">
        <ele>735.735547</ele>
        <time>2022-04-27T11:48:21.743Z</time>
      </trkpt>
      <trkpt lat="41.30553" lon="20.63043">
        <ele>735.656094</ele>
        <time>2022-04-27T11:48:24.736Z</time>
      </trkpt>
      <trkpt lat="41.30542" lon="20.63047">
        <ele>735.578395</ele>
        <time>2022-04-27T11:48:27.763Z</time>
      </trkpt>
      <trkpt lat="41.30531" lon="20.63049">
        <ele>735.494541</ele>
        <time>2022-04-27T11:48:30.733Z</time>
      </trkpt>
      <trkpt lat="41.30522" lon="20.63049">
        <ele>735.431601</ele>
        <time>2022-04-27T11:48:32.735Z</time>
      </trkpt>
      <trkpt lat="41.30509" lon="20.63046">
        <ele>735.34496</ele>
        <time>2022-04-27T11:48:35.732Z</time>
      </trkpt>
      <trkpt lat="41.30498" lon="20.63042">
        <ele>735.263215</ele>
        <time>2022-04-27T11:48:38.737Z</time>
      </trkpt>
      <trkpt lat="41.30487" lon="20.63037">
        <ele>735.184594</ele>
        <time>2022-04-27T11:48:41.738Z</time>
      </trkpt>
      <trkpt lat="41.30478" lon="20.6303">
        <ele>735.110393</ele>
        <time>2022-04-27T11:48:44.742Z</time>
      </trkpt>
      <trkpt lat="41.30468" lon="20.63024">
        <ele>735.037105</ele>
        <time>2022-04-27T11:48:47.733Z</time>
      </trkpt>
      <trkpt lat="41.30459" lon="20.63018">
        <ele>734.963996</ele>
        <time>2022-04-27T11:48:50.729Z</time>
      </trkpt>
      <trkpt lat="41.30449" lon="20.63012">
        <ele>734.886424</ele>
        <time>2022-04-27T11:48:53.743Z</time>
      </trkpt>
      <trkpt lat="41.3044" lon="20.63006">
        <ele>734.814333</ele>
        <time>2022-04-27T11:48:56.745Z</time>
      </trkpt>
      <trkpt lat="41.30431" lon="20.62999">
        <ele>734.741795</ele>
        <time>2022-04-27T11:48:59.733Z</time>
      </trkpt>
      <trkpt lat="41.30421" lon="20.6299">
        <ele>734.656531</ele>
        <time>2022-04-27T11:49:02.736Z</time>
      </trkpt>
      <trkpt lat="41.30412" lon="20.6298">
        <ele>734.59005</ele>
        <time>2022-04-27T11:49:05.740Z</time>
      </trkpt>
      <trkpt lat="41.30404" lon="20.62968">
        <ele>734.940357</ele>
        <time>2022-04-27T11:49:08.733Z</time>
      </trkpt>
      <trkpt lat="41.30397" lon="20.62958">
        <ele>735.224883</ele>
        <time>2022-04-27T11:49:11.735Z</time>
      </trkpt>
      <trkpt lat="41.30389" lon="20.62948">
        <ele>735.545651</ele>
        <time>2022-04-27T11:49:14.736Z</time>
      </trkpt>
      <trkpt lat="41.30383" lon="20.62937">
        <ele>735.841247</ele>
        <time>2022-04-27T11:49:17.731Z</time>
      </trkpt>
      <trkpt lat="41.30376" lon="20.62926">
        <ele>736.140543</ele>
        <time>2022-04-27T11:49:20.735Z</time>
      </trkpt>
      <trkpt lat="41.3037" lon="20.62917">
        <ele>736.412869</ele>
        <time>2022-04-27T11:49:23.726Z</time>
      </trkpt>
      <trkpt lat="41.30363" lon="20.62907">
        <ele>736.703229</ele>
        <time>2022-04-27T11:49:26.743Z</time>
      </trkpt>
      <trkpt lat="41.30355" lon="20.62898">
        <ele>736.997462</ele>
        <time>2022-04-27T11:49:29.740Z</time>
      </trkpt>
      <trkpt lat="41.30347" lon="20.62891">
        <ele>737.287789</ele>
        <time>2022-04-27T11:49:32.736Z</time>
      </trkpt>
      <trkpt lat="41.30337" lon="20.62885">
        <ele>737.588724</ele>
        <time>2022-04-27T11:49:35.747Z</time>
      </trkpt>
      <trkpt lat="41.30328" lon="20.6288">
        <ele>737.882493</ele>
        <time>2022-04-27T11:49:38.742Z</time>
      </trkpt>
      <trkpt lat="41.30318" lon="20.62874">
        <ele>738.190253</ele>
        <time>2022-04-27T11:49:41.731Z</time>
      </trkpt>
      <trkpt lat="41.30309" lon="20.62866">
        <ele>738.511454</ele>
        <time>2022-04-27T11:49:44.728Z</time>
      </trkpt>
      <trkpt lat="41.303" lon="20.62857">
        <ele>738.832125</ele>
        <time>2022-04-27T11:49:47.733Z</time>
      </trkpt>
      <trkpt lat="41.30291" lon="20.62847">
        <ele>739.169406</ele>
        <time>2022-04-27T11:49:50.744Z</time>
      </trkpt>
      <trkpt lat="41.30284" lon="20.62836">
        <ele>739.482925</ele>
        <time>2022-04-27T11:49:53.736Z</time>
      </trkpt>
      <trkpt lat="41.3028" lon="20.62823">
        <ele>739.797523</ele>
        <time>2022-04-27T11:49:56.758Z</time>
      </trkpt>
      <trkpt lat="41.30276" lon="20.6281">
        <ele>740.156418</ele>
        <time>2022-04-27T11:49:59.744Z</time>
      </trkpt>
      <trkpt lat="41.30273" lon="20.62799">
        <ele>740.48421</ele>
        <time>2022-04-27T11:50:02.738Z</time>
      </trkpt>
      <trkpt lat="41.30271" lon="20.62786">
        <ele>740.854512</ele>
        <time>2022-04-27T11:50:05.740Z</time>
      </trkpt>
      <trkpt lat="41.30269" lon="20.62772">
        <ele>741.235266</ele>
        <time>2022-04-27T11:50:08.769Z</time>
      </trkpt>
      <trkpt lat="41.30268" lon="20.62759">
        <ele>741.605074</ele>
        <time>2022-04-27T11:50:11.728Z</time>
      </trkpt>
      <trkpt lat="41.30267" lon="20.62744">
        <ele>742.033808</ele>
        <time>2022-04-27T11:50:14.736Z</time>
      </trkpt>
      <trkpt lat="41.30266" lon="20.62729">
        <ele>742.448477</ele>
        <time>2022-04-27T11:50:17.735Z</time>
      </trkpt>
      <trkpt lat="41.30265" lon="20.62714">
        <ele>742.83778</ele>
        <time>2022-04-27T11:50:20.740Z</time>
      </trkpt>
      <trkpt lat="41.30265" lon="20.627">
        <ele>743.230493</ele>
        <time>2022-04-27T11:50:23.738Z</time>
      </trkpt>
      <trkpt lat="41.30266" lon="20.62684">
        <ele>743.668828</ele>
        <time>2022-04-27T11:50:26.735Z</time>
      </trkpt>
      <trkpt lat="41.30267" lon="20.62671">
        <ele>744.035247</ele>
        <time>2022-04-27T11:50:29.735Z</time>
      </trkpt>
      <trkpt lat="41.30268" lon="20.62655">
        <ele>744.465901</ele>
        <time>2022-04-27T11:50:32.762Z</time>
      </trkpt>
      <trkpt lat="41.3027" lon="20.62642">
        <ele>744.850637</ele>
        <time>2022-04-27T11:50:35.733Z</time>
      </trkpt>
      <trkpt lat="41.30272" lon="20.62628">
        <ele>745.225965</ele>
        <time>2022-04-27T11:50:38.732Z</time>
      </trkpt>
      <trkpt lat="41.30273" lon="20.62616">
        <ele>745.568865</ele>
        <time>2022-04-27T11:50:41.764Z</time>
      </trkpt>
      <trkpt lat="41.30274" lon="20.62601">
        <ele>745.987077</ele>
        <time>2022-04-27T11:50:45.736Z</time>
      </trkpt>
      <trkpt lat="41.30276" lon="20.62586">
        <ele>746.399723</ele>
        <time>2022-04-27T11:50:49.729Z</time>
      </trkpt>
      <trkpt lat="41.30278" lon="20.6257">
        <ele>746.784278</ele>
        <time>2022-04-27T11:50:53.727Z</time>
      </trkpt>
      <trkpt lat="41.30281" lon="20.62557">
        <ele>747.137556</ele>
        <time>2022-04-27T11:50:57.736Z</time>
      </trkpt>
      <trkpt lat="41.30283" lon="20.62543">
        <ele>747.493981</ele>
        <time>2022-04-27T11:51:00.734Z</time>
      </trkpt>
      <trkpt lat="41.30285" lon="20.62528">
        <ele>747.854758</ele>
        <time>2022-04-27T11:51:03.744Z</time>
      </trkpt>
      <trkpt lat="41.30285" lon="20.62515">
        <ele>748.195791</ele>
        <time>2022-04-27T11:51:06.731Z</time>
      </trkpt>
      <trkpt lat="41.30284" lon="20.62502">
        <ele>748.512905</ele>
        <time>2022-04-27T11:51:09.756Z</time>
      </trkpt>
      <trkpt lat="41.30283" lon="20.62488">
        <ele>748.854467</ele>
        <time>2022-04-27T11:51:12.743Z</time>
      </trkpt>
      <trkpt lat="41.30282" lon="20.62474">
        <ele>749.211823</ele>
        <time>2022-04-27T11:51:15.736Z</time>
      </trkpt>
      <trkpt lat="41.30281" lon="20.62459">
        <ele>749.587168</ele>
        <time>2022-04-27T11:51:18.759Z</time>
      </trkpt>
      <trkpt lat="41.3028" lon="20.62446">
        <ele>749.913396</ele>
        <time>2022-04-27T11:51:21.731Z</time>
      </trkpt>
      <trkpt lat="41.30283" lon="20.62434">
        <ele>750.235175</ele>
        <time>2022-04-27T11:51:24.734Z</time>
      </trkpt>
      <trkpt lat="41.30284" lon="20.62421">
        <ele>750.544852</ele>
        <time>2022-04-27T11:51:27.732Z</time>
      </trkpt>
      <trkpt lat="41.30284" lon="20.62408">
        <ele>750.885756</ele>
        <time>2022-04-27T11:51:30.744Z</time>
      </trkpt>
      <trkpt lat="41.30285" lon="20.62395">
        <ele>751.209836</ele>
        <time>2022-04-27T11:51:33.737Z</time>
      </trkpt>
      <trkpt lat="41.30284" lon="20.62382">
        <ele>751.519813</ele>
        <time>2022-04-27T11:51:36.734Z</time>
      </trkpt>
      <trkpt lat="41.30283" lon="20.62367">
        <ele>751.893283</ele>
        <time>2022-04-27T11:51:40.746Z</time>
      </trkpt>
      <trkpt lat="41.30284" lon="20.62352">
        <ele>752.271509</ele>
        <time>2022-04-27T11:51:44.735Z</time>
      </trkpt>
      <trkpt lat="41.30283" lon="20.62339">
        <ele>752.005679</ele>
        <time>2022-04-27T11:51:47.730Z</time>
      </trkpt>
      <trkpt lat="41.30281" lon="20.62326">
        <ele>751.695254</ele>
        <time>2022-04-27T11:51:50.744Z</time>
      </trkpt>
      <trkpt lat="41.30279" lon="20.62312">
        <ele>751.385366</ele>
        <time>2022-04-27T11:51:53.729Z</time>
      </trkpt>
      <trkpt lat="41.30276" lon="20.62299">
        <ele>751.076204</ele>
        <time>2022-04-27T11:51:56.735Z</time>
      </trkpt>
      <trkpt lat="41.30274" lon="20.62287">
        <ele>750.779512</ele>
        <time>2022-04-27T11:51:59.758Z</time>
      </trkpt>
      <trkpt lat="41.30271" lon="20.62275">
        <ele>750.500417</ele>
        <time>2022-04-27T11:52:02.741Z</time>
      </trkpt>
      <trkpt lat="41.30268" lon="20.62263">
        <ele>750.222306</ele>
        <time>2022-04-27T11:52:05.735Z</time>
      </trkpt>
      <trkpt lat="41.30263" lon="20.62252">
        <ele>749.932722</ele>
        <time>2022-04-27T11:52:08.737Z</time>
      </trkpt>
      <trkpt lat="41.30259" lon="20.62241">
        <ele>749.644368</ele>
        <time>2022-04-27T11:52:11.728Z</time>
      </trkpt>
      <trkpt lat="41.30254" lon="20.6223">
        <ele>749.33918</ele>
        <time>2022-04-27T11:52:14.730Z</time>
      </trkpt>
      <trkpt lat="41.30247" lon="20.62219">
        <ele>749.014702</ele>
        <time>2022-04-27T11:52:17.743Z</time>
      </trkpt>
      <trkpt lat="41.30241" lon="20.62207">
        <ele>748.68845</ele>
        <time>2022-04-27T11:52:20.730Z</time>
      </trkpt>
      <trkpt lat="41.30234" lon="20.62194">
        <ele>748.337038</ele>
        <time>2022-04-27T11:52:23.729Z</time>
      </trkpt>
      <trkpt lat="41.30227" lon="20.62181">
        <ele>747.953005</ele>
        <time>2022-04-27T11:52:26.733Z</time>
      </trkpt>
      <trkpt lat="41.3022" lon="20.6217">
        <ele>747.637422</ele>
        <time>2022-04-27T11:52:29.735Z</time>
      </trkpt>
      <trkpt lat="41.30212" lon="20.62158">
        <ele>747.272735</ele>
        <time>2022-04-27T11:52:32.741Z</time>
      </trkpt>
      <trkpt lat="41.30203" lon="20.62147">
        <ele>746.907099</ele>
        <time>2022-04-27T11:52:35.734Z</time>
      </trkpt>
      <trkpt lat="41.30196" lon="20.62134">
        <ele>746.78763</ele>
        <time>2022-04-27T11:52:38.736Z</time>
      </trkpt>
      <trkpt lat="41.30189" lon="20.62121">
        <ele>746.727049</ele>
        <time>2022-04-27T11:52:41.745Z</time>
      </trkpt>
      <trkpt lat="41.30181" lon="20.6211">
        <ele>746.670379</ele>
        <time>2022-04-27T11:52:44.761Z</time>
      </trkpt>
      <trkpt lat="41.30173" lon="20.62097">
        <ele>746.607067</ele>
        <time>2022-04-27T11:52:47.733Z</time>
      </trkpt>
      <trkpt lat="41.30164" lon="20.62084">
        <ele>746.541284</ele>
        <time>2022-04-27T11:52:50.738Z</time>
      </trkpt>
      <trkpt lat="41.30155" lon="20.62075">
        <ele>746.483441</ele>
        <time>2022-04-27T11:52:53.735Z</time>
      </trkpt>
      <trkpt lat="41.30146" lon="20.62068">
        <ele>746.43064</ele>
        <time>2022-04-27T11:52:56.736Z</time>
      </trkpt>
      <trkpt lat="41.30136" lon="20.62062">
        <ele>746.374242</ele>
        <time>2022-04-27T11:52:59.740Z</time>
      </trkpt>
      <trkpt lat="41.30127" lon="20.62056">
        <ele>746.322309</ele>
        <time>2022-04-27T11:53:02.757Z</time>
      </trkpt>
      <trkpt lat="41.30117" lon="20.62051">
        <ele>746.270539</ele>
        <time>2022-04-27T11:53:05.735Z</time>
      </trkpt>
      <trkpt lat="41.30107" lon="20.62044">
        <ele>746.21482</ele>
        <time>2022-04-27T11:53:08.737Z</time>
      </trkpt>
      <trkpt lat="41.30098" lon="20.62038">
        <ele>746.163333</ele>
        <time>2022-04-27T11:53:11.749Z</time>
      </trkpt>
      <trkpt lat="41.30089" lon="20.62032">
        <ele>746.111513</ele>
        <time>2022-04-27T11:53:14.750Z</time>
      </trkpt>
      <trkpt lat="41.3008" lon="20.62026">
        <ele>746.059692</ele>
        <time>2022-04-27T11:53:17.741Z</time>
      </trkpt>
      <trkpt lat="41.3007" lon="20.6202">
        <ele>746.004846</ele>
        <time>2022-04-27T11:53:20.737Z</time>
      </trkpt>
      <trkpt lat="41.30059" lon="20.62016">
        <ele>745.945044</ele>
        <time>2022-04-27T11:53:23.764Z</time>
      </trkpt>
      <trkpt lat="41.30047" lon="20.6201">
        <ele>746.187868</ele>
        <time>2022-04-27T11:53:26.732Z</time>
      </trkpt>
      <trkpt lat="41.30036" lon="20.62004">
        <ele>746.5129</ele>
        <time>2022-04-27T11:53:29.744Z</time>
      </trkpt>
      <trkpt lat="41.30024" lon="20.61999">
        <ele>746.845869</ele>
        <time>2022-04-27T11:53:32.750Z</time>
      </trkpt>
      <trkpt lat="41.30012" lon="20.61994">
        <ele>747.169898</ele>
        <time>2022-04-27T11:53:35.736Z</time>
      </trkpt>
      <trkpt lat="41.3" lon="20.6199">
        <ele>747.507846</ele>
        <time>2022-04-27T11:53:38.731Z</time>
      </trkpt>
      <trkpt lat="41.29988" lon="20.61985">
        <ele>747.841118</ele>
        <time>2022-04-27T11:53:41.733Z</time>
      </trkpt>
      <trkpt lat="41.29978" lon="20.61983">
        <ele>748.141066</ele>
        <time>2022-04-27T11:53:44.732Z</time>
      </trkpt>
      <trkpt lat="41.29968" lon="20.6198">
        <ele>748.406935</ele>
        <time>2022-04-27T11:53:47.739Z</time>
      </trkpt>
      <trkpt lat="41.29957" lon="20.61976">
        <ele>748.725799</ele>
        <time>2022-04-27T11:53:51.755Z</time>
      </trkpt>
      <trkpt lat="41.29946" lon="20.61975">
        <ele>749.006905</ele>
        <time>2022-04-27T11:53:54.736Z</time>
      </trkpt>
      <trkpt lat="41.29936" lon="20.61974">
        <ele>749.27498</ele>
        <time>2022-04-27T11:53:57.755Z</time>
      </trkpt>
      <trkpt lat="41.29925" lon="20.61974">
        <ele>749.566418</ele>
        <time>2022-04-27T11:54:00.735Z</time>
      </trkpt>
      <trkpt lat="41.29915" lon="20.61973">
        <ele>749.855499</ele>
        <time>2022-04-27T11:54:03.731Z</time>
      </trkpt>
      <trkpt lat="41.29904" lon="20.61973">
        <ele>750.146994</ele>
        <time>2022-04-27T11:54:06.733Z</time>
      </trkpt>
      <trkpt lat="41.29893" lon="20.61973">
        <ele>750.441131</ele>
        <time>2022-04-27T11:54:09.754Z</time>
      </trkpt>
      <trkpt lat="41.29883" lon="20.61972">
        <ele>750.719963</ele>
        <time>2022-04-27T11:54:12.752Z</time>
      </trkpt>
      <trkpt lat="41.29872" lon="20.61972">
        <ele>750.786396</ele>
        <time>2022-04-27T11:54:15.726Z</time>
      </trkpt>
      <trkpt lat="41.2986" lon="20.6197">
        <ele>750.789748</ele>
        <time>2022-04-27T11:54:18.744Z</time>
      </trkpt>
      <trkpt lat="41.29848" lon="20.6197">
        <ele>750.792982</ele>
        <time>2022-04-27T11:54:21.732Z</time>
      </trkpt>
      <trkpt lat="41.29836" lon="20.61972">
        <ele>750.796437</ele>
        <time>2022-04-27T11:54:24.740Z</time>
      </trkpt>
      <trkpt lat="41.29825" lon="20.61975">
        <ele>750.799825</ele>
        <time>2022-04-27T11:54:27.743Z</time>
      </trkpt>
      <trkpt lat="41.29814" lon="20.61978">
        <ele>750.802831</ele>
        <time>2022-04-27T11:54:30.741Z</time>
      </trkpt>
      <trkpt lat="41.29803" lon="20.61978">
        <ele>750.806008</ele>
        <time>2022-04-27T11:54:33.733Z</time>
      </trkpt>
      <trkpt lat="41.29792" lon="20.61983">
        <ele>750.809299</ele>
        <time>2022-04-27T11:54:36.764Z</time>
      </trkpt>
      <trkpt lat="41.29781" lon="20.61986">
        <ele>750.812521</ele>
        <time>2022-04-27T11:54:39.729Z</time>
      </trkpt>
      <trkpt lat="41.29768" lon="20.6199">
        <ele>750.816186</ele>
        <time>2022-04-27T11:54:42.753Z</time>
      </trkpt>
      <trkpt lat="41.29756" lon="20.61992">
        <ele>750.81968</ele>
        <time>2022-04-27T11:54:45.736Z</time>
      </trkpt>
      <trkpt lat="41.29744" lon="20.61993">
        <ele>750.823081</ele>
        <time>2022-04-27T11:54:48.742Z</time>
      </trkpt>
      <trkpt lat="41.29733" lon="20.61991">
        <ele>750.826127</ele>
        <time>2022-04-27T11:54:51.732Z</time>
      </trkpt>
      <trkpt lat="41.29723" lon="20.61989">
        <ele>750.829173</ele>
        <time>2022-04-27T11:54:54.735Z</time>
      </trkpt>
      <trkpt lat="41.29711" lon="20.61988">
        <ele>750.832379</ele>
        <time>2022-04-27T11:54:57.755Z</time>
      </trkpt>
      <trkpt lat="41.297" lon="20.61988">
        <ele>750.903683</ele>
        <time>2022-04-27T11:55:00.734Z</time>
      </trkpt>
      <trkpt lat="41.29688" lon="20.61989">
        <ele>751.21699</ele>
        <time>2022-04-27T11:55:03.748Z</time>
      </trkpt>
      <trkpt lat="41.29676" lon="20.6199">
        <ele>751.52043</ele>
        <time>2022-04-27T11:55:06.741Z</time>
      </trkpt>
      <trkpt lat="41.29664" lon="20.61989">
        <ele>751.821109</ele>
        <time>2022-04-27T11:55:09.733Z</time>
      </trkpt>
      <trkpt lat="41.29653" lon="20.61986">
        <ele>752.102216</ele>
        <time>2022-04-27T11:55:12.739Z</time>
      </trkpt>
      <trkpt lat="41.29643" lon="20.61985">
        <ele>752.36547</ele>
        <time>2022-04-27T11:55:15.732Z</time>
      </trkpt>
      <trkpt lat="41.29633" lon="20.61983">
        <ele>752.626834</ele>
        <time>2022-04-27T11:55:18.733Z</time>
      </trkpt>
      <trkpt lat="41.29623" lon="20.61983">
        <ele>752.891717</ele>
        <time>2022-04-27T11:55:21.746Z</time>
      </trkpt>
      <trkpt lat="41.29613" lon="20.61981">
        <ele>753.155395</ele>
        <time>2022-04-27T11:55:24.734Z</time>
      </trkpt>
      <trkpt lat="41.29602" lon="20.6198">
        <ele>753.420277</ele>
        <time>2022-04-27T11:55:27.735Z</time>
      </trkpt>
      <trkpt lat="41.29592" lon="20.6198">
        <ele>753.684774</ele>
        <time>2022-04-27T11:55:30.737Z</time>
      </trkpt>
      <trkpt lat="41.29582" lon="20.6198">
        <ele>753.936377</ele>
        <time>2022-04-27T11:55:33.737Z</time>
      </trkpt>
      <trkpt lat="41.29572" lon="20.61981">
        <ele>754.185884</ele>
        <time>2022-04-27T11:55:36.735Z</time>
      </trkpt>
      <trkpt lat="41.29562" lon="20.61983">
        <ele>754.46302</ele>
        <time>2022-04-27T11:55:39.736Z</time>
      </trkpt>
      <trkpt lat="41.29551" lon="20.61987">
        <ele>754.757267</ele>
        <time>2022-04-27T11:55:42.729Z</time>
      </trkpt>
      <trkpt lat="41.2954" lon="20.61991">
        <ele>755.045943</ele>
        <time>2022-04-27T11:55:45.733Z</time>
      </trkpt>
      <trkpt lat="41.29528" lon="20.61997">
        <ele>755.363057</ele>
        <time>2022-04-27T11:55:48.744Z</time>
      </trkpt>
      <trkpt lat="41.29517" lon="20.62003">
        <ele>755.204777</ele>
        <time>2022-04-27T11:55:51.730Z</time>
      </trkpt>
      <trkpt lat="41.29505" lon="20.6201">
        <ele>754.828258</ele>
        <time>2022-04-27T11:55:54.737Z</time>
      </trkpt>
      <trkpt lat="41.29494" lon="20.62017">
        <ele>754.477913</ele>
        <time>2022-04-27T11:55:57.737Z</time>
      </trkpt>
      <trkpt lat="41.29483" lon="20.62024">
        <ele>754.115199</ele>
        <time>2022-04-27T11:56:00.737Z</time>
      </trkpt>
      <trkpt lat="41.29472" lon="20.62031">
        <ele>753.770129</ele>
        <time>2022-04-27T11:56:03.740Z</time>
      </trkpt>
      <trkpt lat="41.29462" lon="20.62037">
        <ele>753.455507</ele>
        <time>2022-04-27T11:56:06.736Z</time>
      </trkpt>
      <trkpt lat="41.29452" lon="20.62045">
        <ele>753.136765</ele>
        <time>2022-04-27T11:56:09.760Z</time>
      </trkpt>
      <trkpt lat="41.29442" lon="20.62053">
        <ele>752.800881</ele>
        <time>2022-04-27T11:56:12.732Z</time>
      </trkpt>
      <trkpt lat="41.29432" lon="20.6206">
        <ele>752.480323</ele>
        <time>2022-04-27T11:56:15.732Z</time>
      </trkpt>
      <trkpt lat="41.29424" lon="20.62068">
        <ele>752.184296</ele>
        <time>2022-04-27T11:56:18.732Z</time>
      </trkpt>
      <trkpt lat="41.29416" lon="20.62075">
        <ele>751.904972</ele>
        <time>2022-04-27T11:56:21.746Z</time>
      </trkpt>
      <trkpt lat="41.29407" lon="20.62083">
        <ele>751.593391</ele>
        <time>2022-04-27T11:56:24.737Z</time>
      </trkpt>
      <trkpt lat="41.29397" lon="20.62091">
        <ele>751.273898</ele>
        <time>2022-04-27T11:56:27.729Z</time>
      </trkpt>
      <trkpt lat="41.29387" lon="20.62098">
        <ele>750.95044</ele>
        <time>2022-04-27T11:56:30.728Z</time>
      </trkpt>
      <trkpt lat="41.29376" lon="20.62105">
        <ele>750.585836</ele>
        <time>2022-04-27T11:56:33.735Z</time>
      </trkpt>
      <trkpt lat="41.29364" lon="20.62112">
        <ele>750.348876</ele>
        <time>2022-04-27T11:56:36.733Z</time>
      </trkpt>
      <trkpt lat="41.29352" lon="20.62117">
        <ele>750.633625</ele>
        <time>2022-04-27T11:56:39.731Z</time>
      </trkpt>
      <trkpt lat="41.29344" lon="20.62119">
        <ele>750.84177</ele>
        <time>2022-04-27T11:56:41.732Z</time>
      </trkpt>
      <trkpt lat="41.29335" lon="20.62122">
        <ele>751.050301</ele>
        <time>2022-04-27T11:56:43.739Z</time>
      </trkpt>
      <trkpt lat="41.29322" lon="20.62125">
        <ele>751.332308</ele>
        <time>2022-04-27T11:56:46.738Z</time>
      </trkpt>
      <trkpt lat="41.29311" lon="20.62126">
        <ele>751.588518</ele>
        <time>2022-04-27T11:56:49.732Z</time>
      </trkpt>
      <trkpt lat="41.29301" lon="20.62126">
        <ele>751.818878</ele>
        <time>2022-04-27T11:56:52.733Z</time>
      </trkpt>
      <trkpt lat="41.29291" lon="20.62125">
        <ele>752.056768</ele>
        <time>2022-04-27T11:56:55.736Z</time>
      </trkpt>
      <trkpt lat="41.29279" lon="20.62124">
        <ele>752.328308</ele>
        <time>2022-04-27T11:56:58.750Z</time>
      </trkpt>
      <trkpt lat="41.29267" lon="20.62122">
        <ele>752.606334</ele>
        <time>2022-04-27T11:57:01.733Z</time>
      </trkpt>
      <trkpt lat="41.29256" lon="20.62118">
        <ele>752.856652</ele>
        <time>2022-04-27T11:57:04.742Z</time>
      </trkpt>
      <trkpt lat="41.29247" lon="20.62113">
        <ele>753.083485</ele>
        <time>2022-04-27T11:57:07.733Z</time>
      </trkpt>
      <trkpt lat="41.29238" lon="20.62111">
        <ele>753.296045</ele>
        <time>2022-04-27T11:57:10.754Z</time>
      </trkpt>
      <trkpt lat="41.29229" lon="20.62107">
        <ele>753.511364</ele>
        <time>2022-04-27T11:57:13.729Z</time>
      </trkpt>
      <trkpt lat="41.29219" lon="20.62102">
        <ele>753.744307</ele>
        <time>2022-04-27T11:57:16.754Z</time>
      </trkpt>
      <trkpt lat="41.29208" lon="20.62098">
        <ele>754.010929</ele>
        <time>2022-04-27T11:57:20.736Z</time>
      </trkpt>
      <trkpt lat="41.29198" lon="20.62092">
        <ele>754.262479</ele>
        <time>2022-04-27T11:57:23.734Z</time>
      </trkpt>
      <trkpt lat="41.29188" lon="20.62087">
        <ele>754.575144</ele>
        <time>2022-04-27T11:57:26.728Z</time>
      </trkpt>
      <trkpt lat="41.29177" lon="20.62082">
        <ele>754.958059</ele>
        <time>2022-04-27T11:57:29.737Z</time>
      </trkpt>
      <trkpt lat="41.29167" lon="20.62076">
        <ele>755.340974</ele>
        <time>2022-04-27T11:57:32.734Z</time>
      </trkpt>
      <trkpt lat="41.29156" lon="20.62071">
        <ele>755.743153</ele>
        <time>2022-04-27T11:57:35.725Z</time>
      </trkpt>
      <trkpt lat="41.29146" lon="20.62064">
        <ele>756.122403</ele>
        <time>2022-04-27T11:57:38.736Z</time>
      </trkpt>
      <trkpt lat="41.29136" lon="20.62058">
        <ele>756.490536</ele>
        <time>2022-04-27T11:57:41.731Z</time>
      </trkpt>
      <trkpt lat="41.29126" lon="20.62052">
        <ele>756.87066</ele>
        <time>2022-04-27T11:57:44.728Z</time>
      </trkpt>
      <trkpt lat="41.29116" lon="20.62045">
        <ele>757.233906</ele>
        <time>2022-04-27T11:57:47.732Z</time>
      </trkpt>
      <trkpt lat="41.29107" lon="20.62039">
        <ele>757.603678</ele>
        <time>2022-04-27T11:57:50.732Z</time>
      </trkpt>
      <trkpt lat="41.29097" lon="20.62032">
        <ele>757.967593</ele>
        <time>2022-04-27T11:57:53.736Z</time>
      </trkpt>
      <trkpt lat="41.29088" lon="20.62026">
        <ele>758.334168</ele>
        <time>2022-04-27T11:57:56.738Z</time>
      </trkpt>
      <trkpt lat="41.29078" lon="20.6202">
        <ele>758.700002</ele>
        <time>2022-04-27T11:57:59.761Z</time>
      </trkpt>
      <trkpt lat="41.29068" lon="20.62013">
        <ele>759.071141</ele>
        <time>2022-04-27T11:58:02.741Z</time>
      </trkpt>
      <trkpt lat="41.29059" lon="20.62005">
        <ele>759.44549</ele>
        <time>2022-04-27T11:58:05.759Z</time>
      </trkpt>
      <trkpt lat="41.29049" lon="20.61997">
        <ele>759.862893</ele>
        <time>2022-04-27T11:58:08.749Z</time>
      </trkpt>
      <trkpt lat="41.29039" lon="20.6199">
        <ele>760.230361</ele>
        <time>2022-04-27T11:58:11.766Z</time>
      </trkpt>
      <trkpt lat="41.29029" lon="20.61987">
        <ele>760.512931</ele>
        <time>2022-04-27T11:58:14.735Z</time>
      </trkpt>
      <trkpt lat="41.29019" lon="20.6198">
        <ele>760.257771</ele>
        <time>2022-04-27T11:58:17.733Z</time>
      </trkpt>
      <trkpt lat="41.29008" lon="20.61975">
        <ele>760.000777</ele>
        <time>2022-04-27T11:58:20.728Z</time>
      </trkpt>
      <trkpt lat="41.28997" lon="20.61971">
        <ele>759.750097</ele>
        <time>2022-04-27T11:58:23.752Z</time>
      </trkpt>
      <trkpt lat="41.28987" lon="20.61966">
        <ele>759.503147</ele>
        <time>2022-04-27T11:58:26.738Z</time>
      </trkpt>
      <trkpt lat="41.28976" lon="20.61961">
        <ele>759.250848</ele>
        <time>2022-04-27T11:58:29.737Z</time>
      </trkpt>
      <trkpt lat="41.28965" lon="20.61956">
        <ele>758.997558</ele>
        <time>2022-04-27T11:58:32.743Z</time>
      </trkpt>
      <trkpt lat="41.28955" lon="20.6195">
        <ele>758.755437</ele>
        <time>2022-04-27T11:58:35.737Z</time>
      </trkpt>
      <trkpt lat="41.28946" lon="20.61943">
        <ele>758.508823</ele>
        <time>2022-04-27T11:58:38.732Z</time>
      </trkpt>
      <trkpt lat="41.28936" lon="20.61937">
        <ele>758.261886</ele>
        <time>2022-04-27T11:58:41.733Z</time>
      </trkpt>
      <trkpt lat="41.28926" lon="20.6193">
        <ele>758.013276</ele>
        <time>2022-04-27T11:58:44.742Z</time>
      </trkpt>
      <trkpt lat="41.28916" lon="20.61922">
        <ele>757.760629</ele>
        <time>2022-04-27T11:58:47.735Z</time>
      </trkpt>
      <trkpt lat="41.28907" lon="20.61914">
        <ele>757.506254</ele>
        <time>2022-04-27T11:58:50.736Z</time>
      </trkpt>
      <trkpt lat="41.28897" lon="20.61905">
        <ele>757.252814</ele>
        <time>2022-04-27T11:58:53.741Z</time>
      </trkpt>
      <trkpt lat="41.28888" lon="20.61897">
        <ele>756.997483</ele>
        <time>2022-04-27T11:58:56.762Z</time>
      </trkpt>
      <trkpt lat="41.28878" lon="20.61887">
        <ele>756.714697</ele>
        <time>2022-04-27T11:58:59.728Z</time>
      </trkpt>
      <trkpt lat="41.28868" lon="20.61878">
        <ele>756.389337</ele>
        <time>2022-04-27T11:59:02.741Z</time>
      </trkpt>
      <trkpt lat="41.2886" lon="20.61867">
        <ele>755.889068</ele>
        <time>2022-04-27T11:59:05.737Z</time>
      </trkpt>
      <trkpt lat="41.28851" lon="20.61859">
        <ele>755.416448</ele>
        <time>2022-04-27T11:59:08.744Z</time>
      </trkpt>
      <trkpt lat="41.28842" lon="20.61849">
        <ele>754.913294</ele>
        <time>2022-04-27T11:59:11.739Z</time>
      </trkpt>
      <trkpt lat="41.28834" lon="20.61839">
        <ele>754.444758</ele>
        <time>2022-04-27T11:59:14.737Z</time>
      </trkpt>
      <trkpt lat="41.28826" lon="20.6183">
        <ele>753.976301</ele>
        <time>2022-04-27T11:59:17.734Z</time>
      </trkpt>
      <trkpt lat="41.28817" lon="20.6182">
        <ele>753.473944</ele>
        <time>2022-04-27T11:59:20.741Z</time>
      </trkpt>
      <trkpt lat="41.28809" lon="20.6181">
        <ele>752.97593</ele>
        <time>2022-04-27T11:59:23.737Z</time>
      </trkpt>
      <trkpt lat="41.288" lon="20.618">
        <ele>752.488586</ele>
        <time>2022-04-27T11:59:26.740Z</time>
      </trkpt>
      <trkpt lat="41.28792" lon="20.61791">
        <ele>752.015479</ele>
        <time>2022-04-27T11:59:29.731Z</time>
      </trkpt>
      <trkpt lat="41.28783" lon="20.61781">
        <ele>751.518555</ele>
        <time>2022-04-27T11:59:32.741Z</time>
      </trkpt>
      <trkpt lat="41.28775" lon="20.61771">
        <ele>751.018623</ele>
        <time>2022-04-27T11:59:35.766Z</time>
      </trkpt>
      <trkpt lat="41.28766" lon="20.61761">
        <ele>750.537103</ele>
        <time>2022-04-27T11:59:38.736Z</time>
      </trkpt>
      <trkpt lat="41.28757" lon="20.61752">
        <ele>750.014884</ele>
        <time>2022-04-27T11:59:41.735Z</time>
      </trkpt>
      <trkpt lat="41.28747" lon="20.61742">
        <ele>749.512454</ele>
        <time>2022-04-27T11:59:44.735Z</time>
      </trkpt>
      <trkpt lat="41.28737" lon="20.61735">
        <ele>749.007236</ele>
        <time>2022-04-27T11:59:47.739Z</time>
      </trkpt>
      <trkpt lat="41.28727" lon="20.61728">
        <ele>748.691362</ele>
        <time>2022-04-27T11:59:50.737Z</time>
      </trkpt>
      <trkpt lat="41.28716" lon="20.61721">
        <ele>748.67958</ele>
        <time>2022-04-27T11:59:53.737Z</time>
      </trkpt>
      <trkpt lat="41.28707" lon="20.61715">
        <ele>748.668867</ele>
        <time>2022-04-27T11:59:56.738Z</time>
      </trkpt>
      <trkpt lat="41.28698" lon="20.6171">
        <ele>748.659027</ele>
        <time>2022-04-27T11:59:59.731Z</time>
      </trkpt>
      <trkpt lat="41.28689" lon="20.61704">
        <ele>748.648407</ele>
        <time>2022-04-27T12:00:03.744Z</time>
      </trkpt>
      <trkpt lat="41.2868" lon="20.61699">
        <ele>748.638971</ele>
        <time>2022-04-27T12:00:07.745Z</time>
      </trkpt>
      <trkpt lat="41.28669" lon="20.61694">
        <ele>748.627189</ele>
        <time>2022-04-27T12:00:12.730Z</time>
      </trkpt>
      <trkpt lat="41.28659" lon="20.61689">
        <ele>748.615382</ele>
        <time>2022-04-27T12:00:16.734Z</time>
      </trkpt>
      <trkpt lat="41.2865" lon="20.61683">
        <ele>748.605998</ele>
        <time>2022-04-27T12:00:19.757Z</time>
      </trkpt>
      <trkpt lat="41.28642" lon="20.61677">
        <ele>748.596489</ele>
        <time>2022-04-27T12:00:22.735Z</time>
      </trkpt>
      <trkpt lat="41.28633" lon="20.61673">
        <ele>748.586792</ele>
        <time>2022-04-27T12:00:25.774Z</time>
      </trkpt>
      <trkpt lat="41.28623" lon="20.61669">
        <ele>748.575518</ele>
        <time>2022-04-27T12:00:28.733Z</time>
      </trkpt>
      <trkpt lat="41.28613" lon="20.61662">
        <ele>748.564458</ele>
        <time>2022-04-27T12:00:31.734Z</time>
      </trkpt>
      <trkpt lat="41.28604" lon="20.61652">
        <ele>748.552767</ele>
        <time>2022-04-27T12:00:34.745Z</time>
      </trkpt>
      <trkpt lat="41.28595" lon="20.61645">
        <ele>748.541518</ele>
        <time>2022-04-27T12:00:37.732Z</time>
      </trkpt>
      <trkpt lat="41.28585" lon="20.61639">
        <ele>748.530307</ele>
        <time>2022-04-27T12:00:40.738Z</time>
      </trkpt>
      <trkpt lat="41.28575" lon="20.61634">
        <ele>748.519649</ele>
        <time>2022-04-27T12:00:43.736Z</time>
      </trkpt>
      <trkpt lat="41.28565" lon="20.61627">
        <ele>748.292703</ele>
        <time>2022-04-27T12:00:46.738Z</time>
      </trkpt>
      <trkpt lat="41.28556" lon="20.61621">
        <ele>747.705599</ele>
        <time>2022-04-27T12:00:49.735Z</time>
      </trkpt>
      <trkpt lat="41.28546" lon="20.61615">
        <ele>747.090501</ele>
        <time>2022-04-27T12:00:52.746Z</time>
      </trkpt>
      <trkpt lat="41.28536" lon="20.61609">
        <ele>746.47619</ele>
        <time>2022-04-27T12:00:55.735Z</time>
      </trkpt>
      <trkpt lat="41.28526" lon="20.61604">
        <ele>745.873388</ele>
        <time>2022-04-27T12:00:58.759Z</time>
      </trkpt>
      <trkpt lat="41.28517" lon="20.61598">
        <ele>745.344082</ele>
        <time>2022-04-27T12:01:01.741Z</time>
      </trkpt>
      <trkpt lat="41.28508" lon="20.61594">
        <ele>744.768799</ele>
        <time>2022-04-27T12:01:04.734Z</time>
      </trkpt>
      <trkpt lat="41.28497" lon="20.61588">
        <ele>744.142071</ele>
        <time>2022-04-27T12:01:07.730Z</time>
      </trkpt>
      <trkpt lat="41.28485" lon="20.61583">
        <ele>743.448557</ele>
        <time>2022-04-27T12:01:10.740Z</time>
      </trkpt>
      <trkpt lat="41.28473" lon="20.61578">
        <ele>742.753675</ele>
        <time>2022-04-27T12:01:13.755Z</time>
      </trkpt>
      <trkpt lat="41.28461" lon="20.61576">
        <ele>742.053646</ele>
        <time>2022-04-27T12:01:16.735Z</time>
      </trkpt>
      <trkpt lat="41.28449" lon="20.61574">
        <ele>741.359172</ele>
        <time>2022-04-27T12:01:19.727Z</time>
      </trkpt>
      <trkpt lat="41.28436" lon="20.61572">
        <ele>740.665719</ele>
        <time>2022-04-27T12:01:22.746Z</time>
      </trkpt>
      <trkpt lat="41.28425" lon="20.6157">
        <ele>740.015657</ele>
        <time>2022-04-27T12:01:25.744Z</time>
      </trkpt>
      <trkpt lat="41.28413" lon="20.61568">
        <ele>739.33838</ele>
        <time>2022-04-27T12:01:28.736Z</time>
      </trkpt>
      <trkpt lat="41.28401" lon="20.61565">
        <ele>738.680425</ele>
        <time>2022-04-27T12:01:31.728Z</time>
      </trkpt>
      <trkpt lat="41.28391" lon="20.61561">
        <ele>738.50675</ele>
        <time>2022-04-27T12:01:34.744Z</time>
      </trkpt>
      <trkpt lat="41.2838" lon="20.61553">
        <ele>738.617792</ele>
        <time>2022-04-27T12:01:37.727Z</time>
      </trkpt>
      <trkpt lat="41.2837" lon="20.61545">
        <ele>738.732964</ele>
        <time>2022-04-27T12:01:40.737Z</time>
      </trkpt>
      <trkpt lat="41.28362" lon="20.61534">
        <ele>738.844915</ele>
        <time>2022-04-27T12:01:43.753Z</time>
      </trkpt>
      <trkpt lat="41.28354" lon="20.61524">
        <ele>738.946109</ele>
        <time>2022-04-27T12:01:46.748Z</time>
      </trkpt>
      <trkpt lat="41.28348" lon="20.61514">
        <ele>739.041221</ele>
        <time>2022-04-27T12:01:49.728Z</time>
      </trkpt>
      <trkpt lat="41.28342" lon="20.61505">
        <ele>739.129395</ele>
        <time>2022-04-27T12:01:52.745Z</time>
      </trkpt>
      <trkpt lat="41.28335" lon="20.61496">
        <ele>739.21958</ele>
        <time>2022-04-27T12:01:55.731Z</time>
      </trkpt>
      <trkpt lat="41.2833" lon="20.61486">
        <ele>739.305879</ele>
        <time>2022-04-27T12:01:58.737Z</time>
      </trkpt>
      <trkpt lat="41.28324" lon="20.61476">
        <ele>739.396393</ele>
        <time>2022-04-27T12:02:01.761Z</time>
      </trkpt>
      <trkpt lat="41.28316" lon="20.61465">
        <ele>739.50624</ele>
        <time>2022-04-27T12:02:04.741Z</time>
      </trkpt>
      <trkpt lat="41.28309" lon="20.61452">
        <ele>739.623067</ele>
        <time>2022-04-27T12:02:07.733Z</time>
      </trkpt>
      <trkpt lat="41.28301" lon="20.6144">
        <ele>739.737517</ele>
        <time>2022-04-27T12:02:10.733Z</time>
      </trkpt>
      <trkpt lat="41.28294" lon="20.61428">
        <ele>739.848022</ele>
        <time>2022-04-27T12:02:13.738Z</time>
      </trkpt>
      <trkpt lat="41.28285" lon="20.61416">
        <ele>739.968759</ele>
        <time>2022-04-27T12:02:16.736Z</time>
      </trkpt>
      <trkpt lat="41.28277" lon="20.61405">
        <ele>740.077007</ele>
        <time>2022-04-27T12:02:19.735Z</time>
      </trkpt>
      <trkpt lat="41.28266" lon="20.61395">
        <ele>740.381944</ele>
        <time>2022-04-27T12:02:22.732Z</time>
      </trkpt>
      <trkpt lat="41.28255" lon="20.61388">
        <ele>741.044855</ele>
        <time>2022-04-27T12:02:25.738Z</time>
      </trkpt>
      <trkpt lat="41.28241" lon="20.61384">
        <ele>741.741257</ele>
        <time>2022-04-27T12:02:28.736Z</time>
      </trkpt>
      <trkpt lat="41.2823" lon="20.61383">
        <ele>742.333464</ele>
        <time>2022-04-27T12:02:31.735Z</time>
      </trkpt>
      <trkpt lat="41.2822" lon="20.61385">
        <ele>742.829628</ele>
        <time>2022-04-27T12:02:34.761Z</time>
      </trkpt>
      <trkpt lat="41.28212" lon="20.61391">
        <ele>743.339828</ele>
        <time>2022-04-27T12:02:37.731Z</time>
      </trkpt>
      <trkpt lat="41.28203" lon="20.61402">
        <ele>743.958269</ele>
        <time>2022-04-27T12:02:40.736Z</time>
      </trkpt>
      <trkpt lat="41.28196" lon="20.61416">
        <ele>744.581738</ele>
        <time>2022-04-27T12:02:43.740Z</time>
      </trkpt>
      <trkpt lat="41.28193" lon="20.61431">
        <ele>745.194734</ele>
        <time>2022-04-27T12:02:46.743Z</time>
      </trkpt>
      <trkpt lat="41.28191" lon="20.61448">
        <ele>745.858223</ele>
        <time>2022-04-27T12:02:49.739Z</time>
      </trkpt>
      <trkpt lat="41.28191" lon="20.61463">
        <ele>746.444883</ele>
        <time>2022-04-27T12:02:52.730Z</time>
      </trkpt>
      <trkpt lat="41.28193" lon="20.61478">
        <ele>747.045065</ele>
        <time>2022-04-27T12:02:55.730Z</time>
      </trkpt>
      <trkpt lat="41.28195" lon="20.61493">
        <ele>747.622458</ele>
        <time>2022-04-27T12:02:58.737Z</time>
      </trkpt>
      <trkpt lat="41.28198" lon="20.61506">
        <ele>748.151327</ele>
        <time>2022-04-27T12:03:01.734Z</time>
      </trkpt>
      <trkpt lat="41.28202" lon="20.6152">
        <ele>748.71116</ele>
        <time>2022-04-27T12:03:04.747Z</time>
      </trkpt>
      <trkpt lat="41.28206" lon="20.61533">
        <ele>749.25261</ele>
        <time>2022-04-27T12:03:07.732Z</time>
      </trkpt>
      <trkpt lat="41.28209" lon="20.61544">
        <ele>749.259291</ele>
        <time>2022-04-27T12:03:10.732Z</time>
      </trkpt>
      <trkpt lat="41.28211" lon="20.61558">
        <ele>749.045759</ele>
        <time>2022-04-27T12:03:13.735Z</time>
      </trkpt>
      <trkpt lat="41.28213" lon="20.61572">
        <ele>748.820413</ele>
        <time>2022-04-27T12:03:16.752Z</time>
      </trkpt>
      <trkpt lat="41.28216" lon="20.61589">
        <ele>748.558305</ele>
        <time>2022-04-27T12:03:19.756Z</time>
      </trkpt>
      <trkpt lat="41.28218" lon="20.61601">
        <ele>748.369354</ele>
        <time>2022-04-27T12:03:21.738Z</time>
      </trkpt>
      <trkpt lat="41.28219" lon="20.61617">
        <ele>748.122636</ele>
        <time>2022-04-27T12:03:24.741Z</time>
      </trkpt>
      <trkpt lat="41.2822" lon="20.61633">
        <ele>747.86805</ele>
        <time>2022-04-27T12:03:27.740Z</time>
      </trkpt>
      <trkpt lat="41.28221" lon="20.6165">
        <ele>747.6186</ele>
        <time>2022-04-27T12:03:30.731Z</time>
      </trkpt>
      <trkpt lat="41.28221" lon="20.61666">
        <ele>747.369376</ele>
        <time>2022-04-27T12:03:33.730Z</time>
      </trkpt>
      <trkpt lat="41.2822" lon="20.61684">
        <ele>747.090398</ele>
        <time>2022-04-27T12:03:36.761Z</time>
      </trkpt>
      <trkpt lat="41.28219" lon="20.61696">
        <ele>746.904927</ele>
        <time>2022-04-27T12:03:38.739Z</time>
      </trkpt>
      <trkpt lat="41.28217" lon="20.61713">
        <ele>746.639966</ele>
        <time>2022-04-27T12:03:41.737Z</time>
      </trkpt>
      <trkpt lat="41.28213" lon="20.61728">
        <ele>746.396517</ele>
        <time>2022-04-27T12:03:44.736Z</time>
      </trkpt>
      <trkpt lat="41.28209" lon="20.61742">
        <ele>746.168958</ele>
        <time>2022-04-27T12:03:47.729Z</time>
      </trkpt>
      <trkpt lat="41.28203" lon="20.61754">
        <ele>745.943199</ele>
        <time>2022-04-27T12:03:50.731Z</time>
      </trkpt>
      <trkpt lat="41.28197" lon="20.61767">
        <ele>745.709529</ele>
        <time>2022-04-27T12:03:53.756Z</time>
      </trkpt>
      <trkpt lat="41.2819" lon="20.6178">
        <ele>745.770483</ele>
        <time>2022-04-27T12:03:56.734Z</time>
      </trkpt>
      <trkpt lat="41.28183" lon="20.61792">
        <ele>745.832112</ele>
        <time>2022-04-27T12:03:59.734Z</time>
      </trkpt>
      <trkpt lat="41.28175" lon="20.61804">
        <ele>745.890313</ele>
        <time>2022-04-27T12:04:02.732Z</time>
      </trkpt>
      <trkpt lat="41.28169" lon="20.61815">
        <ele>745.94514</ele>
        <time>2022-04-27T12:04:05.731Z</time>
      </trkpt>
      <trkpt lat="41.28162" lon="20.61825">
        <ele>745.998315</ele>
        <time>2022-04-27T12:04:08.726Z</time>
      </trkpt>
      <trkpt lat="41.28155" lon="20.61837">
        <ele>746.056216</ele>
        <time>2022-04-27T12:04:11.735Z</time>
      </trkpt>
      <trkpt lat="41.28147" lon="20.61848">
        <ele>746.116069</ele>
        <time>2022-04-27T12:04:14.736Z</time>
      </trkpt>
      <trkpt lat="41.28139" lon="20.61861">
        <ele>746.179319</ele>
        <time>2022-04-27T12:04:17.741Z</time>
      </trkpt>
      <trkpt lat="41.28131" lon="20.61872">
        <ele>746.240114</ele>
        <time>2022-04-27T12:04:20.745Z</time>
      </trkpt>
      <trkpt lat="41.28123" lon="20.61884">
        <ele>746.301383</ele>
        <time>2022-04-27T12:04:23.734Z</time>
      </trkpt>
      <trkpt lat="41.28117" lon="20.61895">
        <ele>746.356508</ele>
        <time>2022-04-27T12:04:26.754Z</time>
      </trkpt>
      <trkpt lat="41.28109" lon="20.61907">
        <ele>746.415035</ele>
        <time>2022-04-27T12:04:29.734Z</time>
      </trkpt>
      <trkpt lat="41.28101" lon="20.61918">
        <ele>746.478121</ele>
        <time>2022-04-27T12:04:32.736Z</time>
      </trkpt>
      <trkpt lat="41.28093" lon="20.61929">
        <ele>746.534822</ele>
        <time>2022-04-27T12:04:35.734Z</time>
      </trkpt>
      <trkpt lat="41.28084" lon="20.61938">
        <ele>746.591282</ele>
        <time>2022-04-27T12:04:38.730Z</time>
      </trkpt>
      <trkpt lat="41.28075" lon="20.61947">
        <ele>746.711199</ele>
        <time>2022-04-27T12:04:41.739Z</time>
      </trkpt>
      <trkpt lat="41.28067" lon="20.61955">
        <ele>746.991482</ele>
        <time>2022-04-27T12:04:44.737Z</time>
      </trkpt>
      <trkpt lat="41.28058" lon="20.61964">
        <ele>747.290469</ele>
        <time>2022-04-27T12:04:47.728Z</time>
      </trkpt>
      <trkpt lat="41.28049" lon="20.61973">
        <ele>747.622603</ele>
        <time>2022-04-27T12:04:50.734Z</time>
      </trkpt>
      <trkpt lat="41.28041" lon="20.61979">
        <ele>747.87562</ele>
        <time>2022-04-27T12:04:52.735Z</time>
      </trkpt>
      <trkpt lat="41.28029" lon="20.61987">
        <ele>748.230745</ele>
        <time>2022-04-27T12:04:55.731Z</time>
      </trkpt>
      <trkpt lat="41.28019" lon="20.61995">
        <ele>748.571146</ele>
        <time>2022-04-27T12:04:58.735Z</time>
      </trkpt>
      <trkpt lat="41.28008" lon="20.62002">
        <ele>748.899884</ele>
        <time>2022-04-27T12:05:01.744Z</time>
      </trkpt>
      <trkpt lat="41.27998" lon="20.62007">
        <ele>749.195492</ele>
        <time>2022-04-27T12:05:04.732Z</time>
      </trkpt>
      <trkpt lat="41.27987" lon="20.62014">
        <ele>749.533134</ele>
        <time>2022-04-27T12:05:07.740Z</time>
      </trkpt>
      <trkpt lat="41.27977" lon="20.62018">
        <ele>749.828187</ele>
        <time>2022-04-27T12:05:10.763Z</time>
      </trkpt>
      <trkpt lat="41.27966" lon="20.62021">
        <ele>750.124836</ele>
        <time>2022-04-27T12:05:13.735Z</time>
      </trkpt>
      <trkpt lat="41.27957" lon="20.62026">
        <ele>750.412706</ele>
        <time>2022-04-27T12:05:16.729Z</time>
      </trkpt>
      <trkpt lat="41.27947" lon="20.62029">
        <ele>750.702901</ele>
        <time>2022-04-27T12:05:19.737Z</time>
      </trkpt>
      <trkpt lat="41.27936" lon="20.62033">
        <ele>751.01612</ele>
        <time>2022-04-27T12:05:22.735Z</time>
      </trkpt>
      <trkpt lat="41.27924" lon="20.62038">
        <ele>751.342716</ele>
        <time>2022-04-27T12:05:25.732Z</time>
      </trkpt>
      <trkpt lat="41.27915" lon="20.62044">
        <ele>751.633952</ele>
        <time>2022-04-27T12:05:28.735Z</time>
      </trkpt>
      <trkpt lat="41.27907" lon="20.6205">
        <ele>751.875353</ele>
        <time>2022-04-27T12:05:30.742Z</time>
      </trkpt>
      <trkpt lat="41.27896" lon="20.62058">
        <ele>752.195123</ele>
        <time>2022-04-27T12:05:33.741Z</time>
      </trkpt>
      <trkpt lat="41.27886" lon="20.62064">
        <ele>752.497094</ele>
        <time>2022-04-27T12:05:36.744Z</time>
      </trkpt>
      <trkpt lat="41.27875" lon="20.6207">
        <ele>752.801516</ele>
        <time>2022-04-27T12:05:39.733Z</time>
      </trkpt>
      <trkpt lat="41.27865" lon="20.62078">
        <ele>753.115338</ele>
        <time>2022-04-27T12:05:42.746Z</time>
      </trkpt>
      <trkpt lat="41.27854" lon="20.62086">
        <ele>753.437396</ele>
        <time>2022-04-27T12:05:45.732Z</time>
      </trkpt>
      <trkpt lat="41.27844" lon="20.62094">
        <ele>753.752552</ele>
        <time>2022-04-27T12:05:48.736Z</time>
      </trkpt>
      <trkpt lat="41.27834" lon="20.62102">
        <ele>754.055639</ele>
        <time>2022-04-27T12:05:51.735Z</time>
      </trkpt>
      <trkpt lat="41.27825" lon="20.62108">
        <ele>754.328683</ele>
        <time>2022-04-27T12:05:54.740Z</time>
      </trkpt>
      <trkpt lat="41.27815" lon="20.62116">
        <ele>754.62947</ele>
        <time>2022-04-27T12:05:57.733Z</time>
      </trkpt>
      <trkpt lat="41.27804" lon="20.62125">
        <ele>754.952306</ele>
        <time>2022-04-27T12:06:00.734Z</time>
      </trkpt>
      <trkpt lat="41.27795" lon="20.62131">
        <ele>755.239599</ele>
        <time>2022-04-27T12:06:03.729Z</time>
      </trkpt>
      <trkpt lat="41.27785" lon="20.62138">
        <ele>755.524006</ele>
        <time>2022-04-27T12:06:06.729Z</time>
      </trkpt>
      <trkpt lat="41.27776" lon="20.62145">
        <ele>755.805582</ele>
        <time>2022-04-27T12:06:09.738Z</time>
      </trkpt>
      <trkpt lat="41.27766" lon="20.62152">
        <ele>756.083889</ele>
        <time>2022-04-27T12:06:12.756Z</time>
      </trkpt>
      <trkpt lat="41.27756" lon="20.6216">
        <ele>756.30994</ele>
        <time>2022-04-27T12:06:15.737Z</time>
      </trkpt>
      <trkpt lat="41.27746" lon="20.62169">
        <ele>756.074535</ele>
        <time>2022-04-27T12:06:18.758Z</time>
      </trkpt>
      <trkpt lat="41.27736" lon="20.62179">
        <ele>755.836188</ele>
        <time>2022-04-27T12:06:21.732Z</time>
      </trkpt>
      <trkpt lat="41.27727" lon="20.62188">
        <ele>755.612689</ele>
        <time>2022-04-27T12:06:24.744Z</time>
      </trkpt>
      <trkpt lat="41.27718" lon="20.62197">
        <ele>755.390754</ele>
        <time>2022-04-27T12:06:27.747Z</time>
      </trkpt>
      <trkpt lat="41.27709" lon="20.62207">
        <ele>755.171696</ele>
        <time>2022-04-27T12:06:30.740Z</time>
      </trkpt>
      <trkpt lat="41.27701" lon="20.62216">
        <ele>754.970532</ele>
        <time>2022-04-27T12:06:33.739Z</time>
      </trkpt>
      <trkpt lat="41.27694" lon="20.62225">
        <ele>754.778881</ele>
        <time>2022-04-27T12:06:36.742Z</time>
      </trkpt>
      <trkpt lat="41.27687" lon="20.62234">
        <ele>754.585395</ele>
        <time>2022-04-27T12:06:39.742Z</time>
      </trkpt>
      <trkpt lat="41.27679" lon="20.62245">
        <ele>754.37261</ele>
        <time>2022-04-27T12:06:42.733Z</time>
      </trkpt>
      <trkpt lat="41.27673" lon="20.62256">
        <ele>754.173166</ele>
        <time>2022-04-27T12:06:45.731Z</time>
      </trkpt>
      <trkpt lat="41.27666" lon="20.62267">
        <ele>753.969005</ele>
        <time>2022-04-27T12:06:48.736Z</time>
      </trkpt>
      <trkpt lat="41.2766" lon="20.6228">
        <ele>753.746361</ele>
        <time>2022-04-27T12:06:51.757Z</time>
      </trkpt>
      <trkpt lat="41.27652" lon="20.62293">
        <ele>753.508618</ele>
        <time>2022-04-27T12:06:54.735Z</time>
      </trkpt>
      <trkpt lat="41.27646" lon="20.62305">
        <ele>753.29282</ele>
        <time>2022-04-27T12:06:57.759Z</time>
      </trkpt>
      <trkpt lat="41.27639" lon="20.62319">
        <ele>753.056789</ele>
        <time>2022-04-27T12:07:00.737Z</time>
      </trkpt>
      <trkpt lat="41.27634" lon="20.62334">
        <ele>752.816981</ele>
        <time>2022-04-27T12:07:03.759Z</time>
      </trkpt>
      <trkpt lat="41.27628" lon="20.6235">
        <ele>752.588459</ele>
        <time>2022-04-27T12:07:06.733Z</time>
      </trkpt>
      <trkpt lat="41.27622" lon="20.62366">
        <ele>752.366623</ele>
        <time>2022-04-27T12:07:09.732Z</time>
      </trkpt>
      <trkpt lat="41.27616" lon="20.62379">
        <ele>752.16433</ele>
        <time>2022-04-27T12:07:12.740Z</time>
      </trkpt>
      <trkpt lat="41.27609" lon="20.62391">
        <ele>751.96566</ele>
        <time>2022-04-27T12:07:15.741Z</time>
      </trkpt>
      <trkpt lat="41.27601" lon="20.62403">
        <ele>751.763921</ele>
        <time>2022-04-27T12:07:18.735Z</time>
      </trkpt>
      <trkpt lat="41.27593" lon="20.62415">
        <ele>751.561075</ele>
        <time>2022-04-27T12:07:21.736Z</time>
      </trkpt>
      <trkpt lat="41.27585" lon="20.62426">
        <ele>751.359781</ele>
        <time>2022-04-27T12:07:24.743Z</time>
      </trkpt>
      <trkpt lat="41.27579" lon="20.62437">
        <ele>751.178831</ele>
        <time>2022-04-27T12:07:27.732Z</time>
      </trkpt>
      <trkpt lat="41.27571" lon="20.62447">
        <ele>751.003839</ele>
        <time>2022-04-27T12:07:30.755Z</time>
      </trkpt>
      <trkpt lat="41.27567" lon="20.62457">
        <ele>750.845845</ele>
        <time>2022-04-27T12:07:33.736Z</time>
      </trkpt>
      <trkpt lat="41.27561" lon="20.62469">
        <ele>750.674411</ele>
        <time>2022-04-27T12:07:36.741Z</time>
      </trkpt>
      <trkpt lat="41.27551" lon="20.6248">
        <ele>750.45165</ele>
        <time>2022-04-27T12:07:39.739Z</time>
      </trkpt>
      <trkpt lat="41.27542" lon="20.62491">
        <ele>750.242609</ele>
        <time>2022-04-27T12:07:42.736Z</time>
      </trkpt>
      <trkpt lat="41.27533" lon="20.625">
        <ele>750.048658</ele>
        <time>2022-04-27T12:07:45.729Z</time>
      </trkpt>
      <trkpt lat="41.27524" lon="20.62508">
        <ele>749.85707</ele>
        <time>2022-04-27T12:07:48.744Z</time>
      </trkpt>
      <trkpt lat="41.27514" lon="20.62516">
        <ele>750.070912</ele>
        <time>2022-04-27T12:07:51.734Z</time>
      </trkpt>
      <trkpt lat="41.27504" lon="20.62522">
        <ele>750.443095</ele>
        <time>2022-04-27T12:07:54.735Z</time>
      </trkpt>
      <trkpt lat="41.27495" lon="20.62528">
        <ele>750.772627</ele>
        <time>2022-04-27T12:07:57.728Z</time>
      </trkpt>
      <trkpt lat="41.27485" lon="20.62535">
        <ele>751.157142</ele>
        <time>2022-04-27T12:08:00.737Z</time>
      </trkpt>
      <trkpt lat="41.27474" lon="20.6254">
        <ele>751.545229</ele>
        <time>2022-04-27T12:08:03.730Z</time>
      </trkpt>
      <trkpt lat="41.27463" lon="20.62544">
        <ele>751.912619</ele>
        <time>2022-04-27T12:08:06.734Z</time>
      </trkpt>
      <trkpt lat="41.27453" lon="20.62548">
        <ele>752.284344</ele>
        <time>2022-04-27T12:08:09.739Z</time>
      </trkpt>
      <trkpt lat="41.27442" lon="20.62553">
        <ele>752.674655</ele>
        <time>2022-04-27T12:08:12.735Z</time>
      </trkpt>
      <trkpt lat="41.2743" lon="20.62557">
        <ele>753.071332</ele>
        <time>2022-04-27T12:08:15.734Z</time>
      </trkpt>
      <trkpt lat="41.27419" lon="20.62562">
        <ele>753.459792</ele>
        <time>2022-04-27T12:08:18.728Z</time>
      </trkpt>
      <trkpt lat="41.27408" lon="20.62566">
        <ele>753.852147</ele>
        <time>2022-04-27T12:08:21.733Z</time>
      </trkpt>
      <trkpt lat="41.27397" lon="20.6257">
        <ele>754.239948</ele>
        <time>2022-04-27T12:08:24.739Z</time>
      </trkpt>
      <trkpt lat="41.27386" lon="20.62572">
        <ele>754.602819</ele>
        <time>2022-04-27T12:08:27.732Z</time>
      </trkpt>
      <trkpt lat="41.27375" lon="20.62574">
        <ele>754.961585</ele>
        <time>2022-04-27T12:08:30.742Z</time>
      </trkpt>
      <trkpt lat="41.27366" lon="20.62576">
        <ele>755.274048</ele>
        <time>2022-04-27T12:08:33.735Z</time>
      </trkpt>
      <trkpt lat="41.27356" lon="20.62578">
        <ele>755.623312</ele>
        <time>2022-04-27T12:08:36.757Z</time>
      </trkpt>
      <trkpt lat="41.27345" lon="20.6258">
        <ele>756.013685</ele>
        <time>2022-04-27T12:08:39.726Z</time>
      </trkpt>
      <trkpt lat="41.27333" lon="20.62582">
        <ele>756.433977</ele>
        <time>2022-04-27T12:08:42.738Z</time>
      </trkpt>
      <trkpt lat="41.27321" lon="20.62583">
        <ele>756.876307</ele>
        <time>2022-04-27T12:08:45.729Z</time>
      </trkpt>
      <trkpt lat="41.27308" lon="20.62585">
        <ele>757.366779</ele>
        <time>2022-04-27T12:08:48.736Z</time>
      </trkpt>
      <trkpt lat="41.27295" lon="20.62588">
        <ele>757.826141</ele>
        <time>2022-04-27T12:08:51.728Z</time>
      </trkpt>
      <trkpt lat="41.27283" lon="20.62591">
        <ele>758.272911</ele>
        <time>2022-04-27T12:08:54.748Z</time>
      </trkpt>
      <trkpt lat="41.27272" lon="20.62592">
        <ele>758.694511</ele>
        <time>2022-04-27T12:08:57.734Z</time>
      </trkpt>
      <trkpt lat="41.27261" lon="20.62593">
        <ele>759.074212</ele>
        <time>2022-04-27T12:09:00.736Z</time>
      </trkpt>
      <trkpt lat="41.27251" lon="20.62593">
        <ele>759.464611</ele>
        <time>2022-04-27T12:09:03.729Z</time>
      </trkpt>
      <trkpt lat="41.27239" lon="20.62592">
        <ele>759.873336</ele>
        <time>2022-04-27T12:09:06.747Z</time>
      </trkpt>
      <trkpt lat="41.27229" lon="20.62592">
        <ele>760.26033</ele>
        <time>2022-04-27T12:09:09.755Z</time>
      </trkpt>
      <trkpt lat="41.27218" lon="20.62593">
        <ele>760.665658</ele>
        <time>2022-04-27T12:09:12.731Z</time>
      </trkpt>
      <trkpt lat="41.27206" lon="20.62593">
        <ele>761.08547</ele>
        <time>2022-04-27T12:09:15.728Z</time>
      </trkpt>
      <trkpt lat="41.27196" lon="20.62594">
        <ele>761.476831</ele>
        <time>2022-04-27T12:09:18.736Z</time>
      </trkpt>
      <trkpt lat="41.27184" lon="20.62595">
        <ele>761.88945</ele>
        <time>2022-04-27T12:09:21.727Z</time>
      </trkpt>
      <trkpt lat="41.27173" lon="20.62596">
        <ele>762.31105</ele>
        <time>2022-04-27T12:09:24.733Z</time>
      </trkpt>
      <trkpt lat="41.27162" lon="20.62597">
        <ele>762.092968</ele>
        <time>2022-04-27T12:09:27.728Z</time>
      </trkpt>
      <trkpt lat="41.2715" lon="20.62596">
        <ele>761.734269</ele>
        <time>2022-04-27T12:09:30.736Z</time>
      </trkpt>
      <trkpt lat="41.27139" lon="20.62596">
        <ele>761.391122</ele>
        <time>2022-04-27T12:09:33.732Z</time>
      </trkpt>
      <trkpt lat="41.27128" lon="20.62595">
        <ele>761.062808</ele>
        <time>2022-04-27T12:09:36.729Z</time>
      </trkpt>
      <trkpt lat="41.27117" lon="20.62596">
        <ele>760.710314</ele>
        <time>2022-04-27T12:09:39.748Z</time>
      </trkpt>
      <trkpt lat="41.27104" lon="20.62595">
        <ele>760.336449</ele>
        <time>2022-04-27T12:09:42.756Z</time>
      </trkpt>
      <trkpt lat="41.27095" lon="20.62594">
        <ele>760.056899</ele>
        <time>2022-04-27T12:09:44.740Z</time>
      </trkpt>
      <trkpt lat="41.27086" lon="20.62592">
        <ele>759.765623</ele>
        <time>2022-04-27T12:09:46.736Z</time>
      </trkpt>
      <trkpt lat="41.27077" lon="20.6259">
        <ele>759.480486</ele>
        <time>2022-04-27T12:09:48.734Z</time>
      </trkpt>
      <trkpt lat="41.27065" lon="20.62584">
        <ele>759.082812</ele>
        <time>2022-04-27T12:09:51.732Z</time>
      </trkpt>
      <trkpt lat="41.27053" lon="20.62577">
        <ele>758.687943</ele>
        <time>2022-04-27T12:09:54.730Z</time>
      </trkpt>
      <trkpt lat="41.27042" lon="20.6257">
        <ele>758.323931</ele>
        <time>2022-04-27T12:09:57.753Z</time>
      </trkpt>
      <trkpt lat="41.27033" lon="20.62561">
        <ele>757.970661</ele>
        <time>2022-04-27T12:10:00.733Z</time>
      </trkpt>
      <trkpt lat="41.27024" lon="20.62554">
        <ele>757.641314</ele>
        <time>2022-04-27T12:10:03.745Z</time>
      </trkpt>
      <trkpt lat="41.27014" lon="20.62546">
        <ele>757.306372</ele>
        <time>2022-04-27T12:10:06.736Z</time>
      </trkpt>
      <trkpt lat="41.27004" lon="20.6254">
        <ele>756.977687</ele>
        <time>2022-04-27T12:10:09.732Z</time>
      </trkpt>
      <trkpt lat="41.26994" lon="20.62536">
        <ele>756.75545</ele>
        <time>2022-04-27T12:10:12.735Z</time>
      </trkpt>
      <trkpt lat="41.26983" lon="20.62532">
        <ele>756.584834</ele>
        <time>2022-04-27T12:10:15.730Z</time>
      </trkpt>
      <trkpt lat="41.26972" lon="20.6253">
        <ele>756.422089</ele>
        <time>2022-04-27T12:10:18.737Z</time>
      </trkpt>
      <trkpt lat="41.2696" lon="20.6253">
        <ele>756.245107</ele>
        <time>2022-04-27T12:10:21.758Z</time>
      </trkpt>
      <trkpt lat="41.26949" lon="20.6253">
        <ele>756.068124</ele>
        <time>2022-04-27T12:10:24.775Z</time>
      </trkpt>
      <trkpt lat="41.26935" lon="20.62533">
        <ele>755.869935</ele>
        <time>2022-04-27T12:10:27.774Z</time>
      </trkpt>
      <trkpt lat="41.26923" lon="20.62538">
        <ele>755.673674</ele>
        <time>2022-04-27T12:10:30.788Z</time>
      </trkpt>
      <trkpt lat="41.26912" lon="20.62546">
        <ele>755.480213</ele>
        <time>2022-04-27T12:10:33.777Z</time>
      </trkpt>
      <trkpt lat="41.269" lon="20.62554">
        <ele>755.286237</ele>
        <time>2022-04-27T12:10:36.756Z</time>
      </trkpt>
      <trkpt lat="41.26889" lon="20.62563">
        <ele>755.09186</ele>
        <time>2022-04-27T12:10:39.770Z</time>
      </trkpt>
      <trkpt lat="41.26879" lon="20.6257">
        <ele>754.923856</ele>
        <time>2022-04-27T12:10:42.769Z</time>
      </trkpt>
      <trkpt lat="41.26869" lon="20.62578">
        <ele>754.739347</ele>
        <time>2022-04-27T12:10:45.753Z</time>
      </trkpt>
      <trkpt lat="41.2686" lon="20.62586">
        <ele>754.584586</ele>
        <time>2022-04-27T12:10:47.769Z</time>
      </trkpt>
      <trkpt lat="41.26851" lon="20.62593">
        <ele>754.42985</ele>
        <time>2022-04-27T12:10:49.761Z</time>
      </trkpt>
      <trkpt lat="41.26842" lon="20.626">
        <ele>754.275281</ele>
        <time>2022-04-27T12:10:51.766Z</time>
      </trkpt>
      <trkpt lat="41.26833" lon="20.62608">
        <ele>753.971716</ele>
        <time>2022-04-27T12:10:53.757Z</time>
      </trkpt>
      <trkpt lat="41.26823" lon="20.62616">
        <ele>753.374316</ele>
        <time>2022-04-27T12:10:55.767Z</time>
      </trkpt>
      <trkpt lat="41.26812" lon="20.62624">
        <ele>752.748794</ele>
        <time>2022-04-27T12:10:57.763Z</time>
      </trkpt>
      <trkpt lat="41.26801" lon="20.62632">
        <ele>752.112617</ele>
        <time>2022-04-27T12:10:59.773Z</time>
      </trkpt>
      <trkpt lat="41.26789" lon="20.6264">
        <ele>751.448907</ele>
        <time>2022-04-27T12:11:01.759Z</time>
      </trkpt>
      <trkpt lat="41.26777" lon="20.62647">
        <ele>750.784736</ele>
        <time>2022-04-27T12:11:03.743Z</time>
      </trkpt>
      <trkpt lat="41.26765" lon="20.62654">
        <ele>750.094344</ele>
        <time>2022-04-27T12:11:05.748Z</time>
      </trkpt>
      <trkpt lat="41.26752" lon="20.6266">
        <ele>749.435932</ele>
        <time>2022-04-27T12:11:07.774Z</time>
      </trkpt>
      <trkpt lat="41.26738" lon="20.62666">
        <ele>748.691469</ele>
        <time>2022-04-27T12:11:09.757Z</time>
      </trkpt>
      <trkpt lat="41.26723" lon="20.62672">
        <ele>747.906022</ele>
        <time>2022-04-27T12:11:11.755Z</time>
      </trkpt>
      <trkpt lat="41.26708" lon="20.62677">
        <ele>747.089983</ele>
        <time>2022-04-27T12:11:13.759Z</time>
      </trkpt>
      <trkpt lat="41.26692" lon="20.6268">
        <ele>746.289724</ele>
        <time>2022-04-27T12:11:15.755Z</time>
      </trkpt>
      <trkpt lat="41.26677" lon="20.62682">
        <ele>745.514764</ele>
        <time>2022-04-27T12:11:17.774Z</time>
      </trkpt>
      <trkpt lat="41.26661" lon="20.62683">
        <ele>744.704183</ele>
        <time>2022-04-27T12:11:19.756Z</time>
      </trkpt>
      <trkpt lat="41.26645" lon="20.62684">
        <ele>743.876657</ele>
        <time>2022-04-27T12:11:21.759Z</time>
      </trkpt>
      <trkpt lat="41.26629" lon="20.62689">
        <ele>743.021098</ele>
        <time>2022-04-27T12:11:23.767Z</time>
      </trkpt>
      <trkpt lat="41.26614" lon="20.62696">
        <ele>742.166409</ele>
        <time>2022-04-27T12:11:25.750Z</time>
      </trkpt>
      <trkpt lat="41.26599" lon="20.62706">
        <ele>741.283143</ele>
        <time>2022-04-27T12:11:27.748Z</time>
      </trkpt>
      <trkpt lat="41.26586" lon="20.62721">
        <ele>740.378869</ele>
        <time>2022-04-27T12:11:29.745Z</time>
      </trkpt>
      <trkpt lat="41.26575" lon="20.62738">
        <ele>739.492348</ele>
        <time>2022-04-27T12:11:31.768Z</time>
      </trkpt>
      <trkpt lat="41.26568" lon="20.62757">
        <ele>738.626709</ele>
        <time>2022-04-27T12:11:33.761Z</time>
      </trkpt>
      <trkpt lat="41.26562" lon="20.62779">
        <ele>737.720142</ele>
        <time>2022-04-27T12:11:35.761Z</time>
      </trkpt>
      <trkpt lat="41.26561" lon="20.62801">
        <ele>736.843003</ele>
        <time>2022-04-27T12:11:37.770Z</time>
      </trkpt>
      <trkpt lat="41.26563" lon="20.62822">
        <ele>735.990919</ele>
        <time>2022-04-27T12:11:39.782Z</time>
      </trkpt>
      <trkpt lat="41.26569" lon="20.62841">
        <ele>735.463171</ele>
        <time>2022-04-27T12:11:41.749Z</time>
      </trkpt>
      <trkpt lat="41.26576" lon="20.62858">
        <ele>735.225514</ele>
        <time>2022-04-27T12:11:43.750Z</time>
      </trkpt>
      <trkpt lat="41.26585" lon="20.62873">
        <ele>734.989953</ele>
        <time>2022-04-27T12:11:45.773Z</time>
      </trkpt>
      <trkpt lat="41.26596" lon="20.62885">
        <ele>734.758187</ele>
        <time>2022-04-27T12:11:47.766Z</time>
      </trkpt>
      <trkpt lat="41.26607" lon="20.62894">
        <ele>734.547923</ele>
        <time>2022-04-27T12:11:49.793Z</time>
      </trkpt>
      <trkpt lat="41.26619" lon="20.62902">
        <ele>734.34049</ele>
        <time>2022-04-27T12:11:51.773Z</time>
      </trkpt>
      <trkpt lat="41.26632" lon="20.62906">
        <ele>734.121394</ele>
        <time>2022-04-27T12:11:53.766Z</time>
      </trkpt>
      <trkpt lat="41.26644" lon="20.62908">
        <ele>733.923551</ele>
        <time>2022-04-27T12:11:55.736Z</time>
      </trkpt>
      <trkpt lat="41.26655" lon="20.62908">
        <ele>733.74483</ele>
        <time>2022-04-27T12:11:57.766Z</time>
      </trkpt>
      <trkpt lat="41.26666" lon="20.62908">
        <ele>733.564551</ele>
        <time>2022-04-27T12:11:59.748Z</time>
      </trkpt>
      <trkpt lat="41.26677" lon="20.62909">
        <ele>733.385596</ele>
        <time>2022-04-27T12:12:01.748Z</time>
      </trkpt>
      <trkpt lat="41.26688" lon="20.6291">
        <ele>733.206043</ele>
        <time>2022-04-27T12:12:03.744Z</time>
      </trkpt>
      <trkpt lat="41.267" lon="20.62913">
        <ele>733.017802</ele>
        <time>2022-04-27T12:12:05.748Z</time>
      </trkpt>
      <trkpt lat="41.26711" lon="20.62919">
        <ele>732.821996</ele>
        <time>2022-04-27T12:12:07.756Z</time>
      </trkpt>
      <trkpt lat="41.26722" lon="20.62925">
        <ele>732.711196</ele>
        <time>2022-04-27T12:12:09.769Z</time>
      </trkpt>
      <trkpt lat="41.26731" lon="20.62934">
        <ele>732.876432</ele>
        <time>2022-04-27T12:12:11.793Z</time>
      </trkpt>
      <trkpt lat="41.26738" lon="20.62945">
        <ele>733.029731</ele>
        <time>2022-04-27T12:12:13.766Z</time>
      </trkpt>
      <trkpt lat="41.26742" lon="20.62958">
        <ele>733.17938</ele>
        <time>2022-04-27T12:12:15.784Z</time>
      </trkpt>
      <trkpt lat="41.26744" lon="20.62972">
        <ele>733.329643</ele>
        <time>2022-04-27T12:12:17.804Z</time>
      </trkpt>
      <trkpt lat="41.26744" lon="20.62986">
        <ele>733.479883</ele>
        <time>2022-04-27T12:12:19.746Z</time>
      </trkpt>
      <trkpt lat="41.26741" lon="20.63">
        <ele>733.629039</ele>
        <time>2022-04-27T12:12:21.751Z</time>
      </trkpt>
      <trkpt lat="41.26738" lon="20.63012">
        <ele>733.764777</ele>
        <time>2022-04-27T12:12:23.755Z</time>
      </trkpt>
      <trkpt lat="41.26733" lon="20.63028">
        <ele>733.948608</ele>
        <time>2022-04-27T12:12:26.755Z</time>
      </trkpt>
      <trkpt lat="41.26727" lon="20.63041">
        <ele>734.112419</ele>
        <time>2022-04-27T12:12:29.760Z</time>
      </trkpt>
      <trkpt lat="41.2672" lon="20.63054">
        <ele>734.287866</ele>
        <time>2022-04-27T12:12:32.757Z</time>
      </trkpt>
      <trkpt lat="41.26712" lon="20.63068">
        <ele>734.470977</ele>
        <time>2022-04-27T12:12:35.762Z</time>
      </trkpt>
      <trkpt lat="41.26703" lon="20.63081">
        <ele>734.652594</ele>
        <time>2022-04-27T12:12:38.770Z</time>
      </trkpt>
      <trkpt lat="41.26695" lon="20.63094">
        <ele>734.839626</ele>
        <time>2022-04-27T12:12:41.749Z</time>
      </trkpt>
      <trkpt lat="41.26686" lon="20.63107">
        <ele>735.022083</ele>
        <time>2022-04-27T12:12:44.765Z</time>
      </trkpt>
      <trkpt lat="41.26677" lon="20.63118">
        <ele>735.199519</ele>
        <time>2022-04-27T12:12:47.751Z</time>
      </trkpt>
      <trkpt lat="41.26668" lon="20.63127">
        <ele>735.377048</ele>
        <time>2022-04-27T12:12:50.749Z</time>
      </trkpt>
      <trkpt lat="41.26658" lon="20.63137">
        <ele>735.573329</ele>
        <time>2022-04-27T12:12:53.747Z</time>
      </trkpt>
      <trkpt lat="41.26647" lon="20.63146">
        <ele>735.778701</ele>
        <time>2022-04-27T12:12:56.797Z</time>
      </trkpt>
      <trkpt lat="41.26636" lon="20.63155">
        <ele>735.974262</ele>
        <time>2022-04-27T12:12:59.757Z</time>
      </trkpt>
      <trkpt lat="41.26626" lon="20.63163">
        <ele>736.167073</ele>
        <time>2022-04-27T12:13:02.795Z</time>
      </trkpt>
      <trkpt lat="41.26615" lon="20.63173">
        <ele>736.375086</ele>
        <time>2022-04-27T12:13:05.754Z</time>
      </trkpt>
      <trkpt lat="41.26608" lon="20.6318">
        <ele>736.518382</ele>
        <time>2022-04-27T12:13:07.769Z</time>
      </trkpt>
      <trkpt lat="41.26598" lon="20.63189">
        <ele>736.709214</ele>
        <time>2022-04-27T12:13:10.765Z</time>
      </trkpt>
      <trkpt lat="41.26587" lon="20.63199">
        <ele>736.914295</ele>
        <time>2022-04-27T12:13:13.793Z</time>
      </trkpt>
      <trkpt lat="41.26578" lon="20.63208">
        <ele>737.088754</ele>
        <time>2022-04-27T12:13:15.761Z</time>
      </trkpt>
      <trkpt lat="41.2657" lon="20.63216">
        <ele>737.258122</ele>
        <time>2022-04-27T12:13:17.745Z</time>
      </trkpt>
      <trkpt lat="41.26561" lon="20.63225">
        <ele>737.435629</ele>
        <time>2022-04-27T12:13:19.748Z</time>
      </trkpt>
      <trkpt lat="41.26553" lon="20.63234">
        <ele>737.602721</ele>
        <time>2022-04-27T12:13:21.755Z</time>
      </trkpt>
      <trkpt lat="41.26545" lon="20.63242">
        <ele>737.753512</ele>
        <time>2022-04-27T12:13:23.768Z</time>
      </trkpt>
      <trkpt lat="41.26535" lon="20.63252">
        <ele>737.952108</ele>
        <time>2022-04-27T12:13:26.737Z</time>
      </trkpt>
      <trkpt lat="41.26526" lon="20.63261">
        <ele>738.201772</ele>
        <time>2022-04-27T12:13:29.755Z</time>
      </trkpt>
      <trkpt lat="41.26518" lon="20.6327">
        <ele>738.595949</ele>
        <time>2022-04-27T12:13:32.780Z</time>
      </trkpt>
      <trkpt lat="41.26511" lon="20.63279">
        <ele>738.95759</ele>
        <time>2022-04-27T12:13:35.757Z</time>
      </trkpt>
      <trkpt lat="41.26503" lon="20.63287">
        <ele>739.297011</ele>
        <time>2022-04-27T12:13:38.765Z</time>
      </trkpt>
      <trkpt lat="41.26495" lon="20.63296">
        <ele>739.696759</ele>
        <time>2022-04-27T12:13:42.764Z</time>
      </trkpt>
      <trkpt lat="41.26486" lon="20.63305">
        <ele>740.084817</ele>
        <time>2022-04-27T12:13:46.753Z</time>
      </trkpt>
      <trkpt lat="41.26477" lon="20.63313">
        <ele>740.478274</ele>
        <time>2022-04-27T12:13:50.770Z</time>
      </trkpt>
      <trkpt lat="41.26468" lon="20.63321">
        <ele>740.87054</ele>
        <time>2022-04-27T12:13:54.771Z</time>
      </trkpt>
      <trkpt lat="41.26459" lon="20.63327">
        <ele>741.22865</ele>
        <time>2022-04-27T12:13:58.797Z</time>
      </trkpt>
      <trkpt lat="41.2645" lon="20.63334">
        <ele>741.615889</ele>
        <time>2022-04-27T12:14:03.757Z</time>
      </trkpt>
      <trkpt lat="41.26441" lon="20.6334">
        <ele>741.963322</ele>
        <time>2022-04-27T12:14:08.752Z</time>
      </trkpt>
      <trkpt lat="41.26432" lon="20.63347">
        <ele>742.335958</ele>
        <time>2022-04-27T12:14:14.796Z</time>
      </trkpt>
      <trkpt lat="41.26424" lon="20.63352">
        <ele>742.683391</ele>
        <time>2022-04-27T12:14:20.770Z</time>
      </trkpt>
      <trkpt lat="41.26414" lon="20.63357">
        <ele>743.046563</ele>
        <time>2022-04-27T12:14:26.759Z</time>
      </trkpt>
      <trkpt lat="41.26405" lon="20.63362">
        <ele>743.396303</ele>
        <time>2022-04-27T12:14:32.752Z</time>
      </trkpt>
      <trkpt lat="41.26396" lon="20.63366">
        <ele>743.73173</ele>
        <time>2022-04-27T12:14:38.763Z</time>
      </trkpt>
      <trkpt lat="41.26387" lon="20.63371">
        <ele>744.088676</ele>
        <time>2022-04-27T12:14:44.809Z</time>
      </trkpt>
      <trkpt lat="41.26377" lon="20.63373">
        <ele>744.457828</ele>
        <time>2022-04-27T12:14:51.772Z</time>
      </trkpt>
      <trkpt lat="41.26368" lon="20.63375">
        <ele>744.899931</ele>
        <time>2022-04-27T12:14:57.768Z</time>
      </trkpt>
      <trkpt lat="41.26358" lon="20.63378">
        <ele>745.414448</ele>
        <time>2022-04-27T12:15:03.809Z</time>
      </trkpt>
      <trkpt lat="41.26348" lon="20.6338">
        <ele>745.91265</ele>
        <time>2022-04-27T12:15:08.771Z</time>
      </trkpt>
      <trkpt lat="41.26339" lon="20.63382">
        <ele>746.429431</ele>
        <time>2022-04-27T12:15:14.804Z</time>
      </trkpt>
      <trkpt lat="41.26329" lon="20.63387">
        <ele>746.932381</ele>
        <time>2022-04-27T12:15:21.765Z</time>
      </trkpt>
      <trkpt lat="41.26322" lon="20.63393">
        <ele>747.403829</ele>
        <time>2022-04-27T12:15:27.765Z</time>
      </trkpt>
      <trkpt lat="41.26313" lon="20.634">
        <ele>747.922218</ele>
        <time>2022-04-27T12:15:33.756Z</time>
      </trkpt>
      <trkpt lat="41.26306" lon="20.63409">
        <ele>748.423435</ele>
        <time>2022-04-27T12:15:38.756Z</time>
      </trkpt>
      <trkpt lat="41.26298" lon="20.63418">
        <ele>748.950437</ele>
        <time>2022-04-27T12:15:44.768Z</time>
      </trkpt>
      <trkpt lat="41.26291" lon="20.63426">
        <ele>749.454473</ele>
        <time>2022-04-27T12:15:49.768Z</time>
      </trkpt>
      <trkpt lat="41.26283" lon="20.63434">
        <ele>749.951706</ele>
        <time>2022-04-27T12:15:55.789Z</time>
      </trkpt>
      <trkpt lat="41.26275" lon="20.6344">
        <ele>750.440436</ele>
        <time>2022-04-27T12:16:00.745Z</time>
      </trkpt>
      <trkpt lat="41.26266" lon="20.63447">
        <ele>750.978631</ele>
        <time>2022-04-27T12:16:06.765Z</time>
      </trkpt>
      <trkpt lat="41.26257" lon="20.63451">
        <ele>751.446486</ele>
        <time>2022-04-27T12:16:11.748Z</time>
      </trkpt>
      <trkpt lat="41.26248" lon="20.63455">
        <ele>751.967834</ele>
        <time>2022-04-27T12:16:17.794Z</time>
      </trkpt>
      <trkpt lat="41.26237" lon="20.63458">
        <ele>752.524372</ele>
        <time>2022-04-27T12:16:23.765Z</time>
      </trkpt>
      <trkpt lat="41.26228" lon="20.6346">
        <ele>753.025261</ele>
        <time>2022-04-27T12:16:28.794Z</time>
      </trkpt>
      <trkpt lat="41.26218" lon="20.63463">
        <ele>753.544813</ele>
        <time>2022-04-27T12:16:34.792Z</time>
      </trkpt>
      <trkpt lat="41.26208" lon="20.63466">
        <ele>754.077789</ele>
        <time>2022-04-27T12:16:40.761Z</time>
      </trkpt>
      <trkpt lat="41.26198" lon="20.6347">
        <ele>754.670284</ele>
        <time>2022-04-27T12:16:46.770Z</time>
      </trkpt>
      <trkpt lat="41.26188" lon="20.63473">
        <ele>755.245268</ele>
        <time>2022-04-27T12:16:52.770Z</time>
      </trkpt>
      <trkpt lat="41.26179" lon="20.63478">
        <ele>755.767468</ele>
        <time>2022-04-27T12:16:58.755Z</time>
      </trkpt>
      <trkpt lat="41.26171" lon="20.63484">
        <ele>756.296074</ele>
        <time>2022-04-27T12:17:04.770Z</time>
      </trkpt>
      <trkpt lat="41.26164" lon="20.63493">
        <ele>756.872257</ele>
        <time>2022-04-27T12:17:11.753Z</time>
      </trkpt>
      <trkpt lat="41.26157" lon="20.63503">
        <ele>757.442721</ele>
        <time>2022-04-27T12:17:17.776Z</time>
      </trkpt>
      <trkpt lat="41.26151" lon="20.63514">
        <ele>758.019447</ele>
        <time>2022-04-27T12:17:24.796Z</time>
      </trkpt>
      <trkpt lat="41.26147" lon="20.63525">
        <ele>758.535957</ele>
        <time>2022-04-27T12:17:30.750Z</time>
      </trkpt>
      <trkpt lat="41.26142" lon="20.63536">
        <ele>759.074896</ele>
        <time>2022-04-27T12:17:36.792Z</time>
      </trkpt>
      <trkpt lat="41.26138" lon="20.63549">
        <ele>759.670959</ele>
        <time>2022-04-27T12:17:42.801Z</time>
      </trkpt>
      <trkpt lat="41.26135" lon="20.63561">
        <ele>760.222172</ele>
        <time>2022-04-27T12:17:48.761Z</time>
      </trkpt>
      <trkpt lat="41.2613" lon="20.63573">
        <ele>760.797684</ele>
        <time>2022-04-27T12:17:55.750Z</time>
      </trkpt>
      <trkpt lat="41.26127" lon="20.63585">
        <ele>761.341335</ele>
        <time>2022-04-27T12:18:01.753Z</time>
      </trkpt>
      <trkpt lat="41.26123" lon="20.63597">
        <ele>761.890619</ele>
        <time>2022-04-27T12:18:08.810Z</time>
      </trkpt>
      <trkpt lat="41.26118" lon="20.63609">
        <ele>762.471183</ele>
        <time>2022-04-27T12:18:14.757Z</time>
      </trkpt>
      <trkpt lat="41.26113" lon="20.6362">
        <ele>762.987397</ele>
        <time>2022-04-27T12:18:19.776Z</time>
      </trkpt>
      <trkpt lat="41.26108" lon="20.6363">
        <ele>763.499552</ele>
        <time>2022-04-27T12:18:24.766Z</time>
      </trkpt>
      <trkpt lat="41.261" lon="20.63639">
        <ele>763.935658</ele>
        <time>2022-04-27T12:18:30.810Z</time>
      </trkpt>
      <trkpt lat="41.26092" lon="20.63647">
        <ele>763.678282</ele>
        <time>2022-04-27T12:18:36.757Z</time>
      </trkpt>
      <trkpt lat="41.26083" lon="20.63651">
        <ele>763.450014</ele>
        <time>2022-04-27T12:18:41.780Z</time>
      </trkpt>
      <trkpt lat="41.26073" lon="20.63654">
        <ele>763.178073</ele>
        <time>2022-04-27T12:18:47.796Z</time>
      </trkpt>
      <trkpt lat="41.26062" lon="20.63655">
        <ele>762.916296</ele>
        <time>2022-04-27T12:18:53.755Z</time>
      </trkpt>
      <trkpt lat="41.26052" lon="20.63654">
        <ele>762.66957</ele>
        <time>2022-04-27T12:18:58.727Z</time>
      </trkpt>
      <trkpt lat="41.26042" lon="20.63652">
        <ele>762.395561</ele>
        <time>2022-04-27T12:19:03.735Z</time>
      </trkpt>
      <trkpt lat="41.26032" lon="20.63651">
        <ele>762.149451</ele>
        <time>2022-04-27T12:19:07.733Z</time>
      </trkpt>
      <trkpt lat="41.26022" lon="20.63649">
        <ele>761.8884</ele>
        <time>2022-04-27T12:19:11.732Z</time>
      </trkpt>
      <trkpt lat="41.26011" lon="20.63646">
        <ele>761.62068</ele>
        <time>2022-04-27T12:19:15.730Z</time>
      </trkpt>
      <trkpt lat="41.26001" lon="20.63644">
        <ele>761.354409</ele>
        <time>2022-04-27T12:19:19.742Z</time>
      </trkpt>
      <trkpt lat="41.25991" lon="20.6364">
        <ele>761.097942</ele>
        <time>2022-04-27T12:19:23.743Z</time>
      </trkpt>
      <trkpt lat="41.2598" lon="20.63637">
        <ele>760.817695</ele>
        <time>2022-04-27T12:19:27.728Z</time>
      </trkpt>
      <trkpt lat="41.25969" lon="20.63633">
        <ele>760.524522</ele>
        <time>2022-04-27T12:19:31.744Z</time>
      </trkpt>
      <trkpt lat="41.25957" lon="20.6363">
        <ele>760.222983</ele>
        <time>2022-04-27T12:19:35.734Z</time>
      </trkpt>
      <trkpt lat="41.25947" lon="20.63627">
        <ele>759.979621</ele>
        <time>2022-04-27T12:19:38.735Z</time>
      </trkpt>
      <trkpt lat="41.25938" lon="20.63624">
        <ele>759.746003</ele>
        <time>2022-04-27T12:19:41.733Z</time>
      </trkpt>
      <trkpt lat="41.25927" lon="20.63622">
        <ele>759.471888</ele>
        <time>2022-04-27T12:19:45.728Z</time>
      </trkpt>
      <trkpt lat="41.25915" lon="20.63619">
        <ele>759.554577</ele>
        <time>2022-04-27T12:19:49.729Z</time>
      </trkpt>
      <trkpt lat="41.25906" lon="20.63616">
        <ele>759.622456</ele>
        <time>2022-04-27T12:19:52.732Z</time>
      </trkpt>
      <trkpt lat="41.25897" lon="20.63612">
        <ele>759.689055</ele>
        <time>2022-04-27T12:19:55.739Z</time>
      </trkpt>
      <trkpt lat="41.25887" lon="20.6361">
        <ele>759.754862</ele>
        <time>2022-04-27T12:19:58.739Z</time>
      </trkpt>
      <trkpt lat="41.25878" lon="20.63607">
        <ele>759.822246</ele>
        <time>2022-04-27T12:20:01.733Z</time>
      </trkpt>
      <trkpt lat="41.25868" lon="20.63604">
        <ele>759.889196</ele>
        <time>2022-04-27T12:20:04.738Z</time>
      </trkpt>
      <trkpt lat="41.25859" lon="20.63602">
        <ele>759.954218</ele>
        <time>2022-04-27T12:20:07.731Z</time>
      </trkpt>
      <trkpt lat="41.2585" lon="20.63598">
        <ele>760.016762</ele>
        <time>2022-04-27T12:20:10.735Z</time>
      </trkpt>
      <trkpt lat="41.25841" lon="20.63595">
        <ele>760.083714</ele>
        <time>2022-04-27T12:20:13.732Z</time>
      </trkpt>
      <trkpt lat="41.25832" lon="20.63594">
        <ele>760.147574</ele>
        <time>2022-04-27T12:20:16.752Z</time>
      </trkpt>
      <trkpt lat="41.25822" lon="20.63591">
        <ele>760.213731</ele>
        <time>2022-04-27T12:20:19.741Z</time>
      </trkpt>
      <trkpt lat="41.25813" lon="20.63589">
        <ele>760.279034</ele>
        <time>2022-04-27T12:20:22.737Z</time>
      </trkpt>
      <trkpt lat="41.25803" lon="20.63587">
        <ele>760.348944</ele>
        <time>2022-04-27T12:20:25.741Z</time>
      </trkpt>
      <trkpt lat="41.25794" lon="20.63584">
        <ele>760.416104</ele>
        <time>2022-04-27T12:20:28.732Z</time>
      </trkpt>
      <trkpt lat="41.25784" lon="20.63583">
        <ele>760.482675</ele>
        <time>2022-04-27T12:20:31.736Z</time>
      </trkpt>
      <trkpt lat="41.25775" lon="20.63582">
        <ele>760.548698</ele>
        <time>2022-04-27T12:20:34.735Z</time>
      </trkpt>
      <trkpt lat="41.25764" lon="20.63581">
        <ele>760.621355</ele>
        <time>2022-04-27T12:20:37.735Z</time>
      </trkpt>
      <trkpt lat="41.25754" lon="20.63582">
        <ele>760.687732</ele>
        <time>2022-04-27T12:20:40.734Z</time>
      </trkpt>
      <trkpt lat="41.25744" lon="20.63582">
        <ele>760.863243</ele>
        <time>2022-04-27T12:20:43.738Z</time>
      </trkpt>
      <trkpt lat="41.25733" lon="20.63582">
        <ele>761.122413</ele>
        <time>2022-04-27T12:20:46.740Z</time>
      </trkpt>
      <trkpt lat="41.25722" lon="20.63583">
        <ele>761.377529</ele>
        <time>2022-04-27T12:20:49.734Z</time>
      </trkpt>
      <trkpt lat="41.25711" lon="20.63584">
        <ele>761.634377</ele>
        <time>2022-04-27T12:20:52.737Z</time>
      </trkpt>
      <trkpt lat="41.257" lon="20.63584">
        <ele>761.886669</ele>
        <time>2022-04-27T12:20:55.733Z</time>
      </trkpt>
      <trkpt lat="41.25689" lon="20.63584">
        <ele>762.127468</ele>
        <time>2022-04-27T12:20:58.737Z</time>
      </trkpt>
      <trkpt lat="41.2568" lon="20.63583">
        <ele>762.350064</ele>
        <time>2022-04-27T12:21:01.764Z</time>
      </trkpt>
      <trkpt lat="41.2567" lon="20.63583">
        <ele>762.572493</ele>
        <time>2022-04-27T12:21:04.740Z</time>
      </trkpt>
      <trkpt lat="41.25658" lon="20.63582">
        <ele>762.8373</ele>
        <time>2022-04-27T12:21:08.733Z</time>
      </trkpt>
      <trkpt lat="41.25648" lon="20.6358">
        <ele>763.07802</ele>
        <time>2022-04-27T12:21:12.735Z</time>
      </trkpt>
      <trkpt lat="41.25638" lon="20.63576">
        <ele>763.315133</ele>
        <time>2022-04-27T12:21:16.742Z</time>
      </trkpt>
      <trkpt lat="41.25629" lon="20.63572">
        <ele>763.54388</ele>
        <time>2022-04-27T12:21:20.736Z</time>
      </trkpt>
      <trkpt lat="41.25619" lon="20.63568">
        <ele>763.78014</ele>
        <time>2022-04-27T12:21:24.739Z</time>
      </trkpt>
      <trkpt lat="41.25608" lon="20.63565">
        <ele>764.035875</ele>
        <time>2022-04-27T12:21:28.726Z</time>
      </trkpt>
      <trkpt lat="41.25598" lon="20.63561">
        <ele>764.265896</ele>
        <time>2022-04-27T12:21:32.728Z</time>
      </trkpt>
      <trkpt lat="41.25588" lon="20.63558">
        <ele>764.502832</ele>
        <time>2022-04-27T12:21:36.757Z</time>
      </trkpt>
      <trkpt lat="41.25579" lon="20.63556">
        <ele>764.717815</ele>
        <time>2022-04-27T12:21:40.734Z</time>
      </trkpt>
      <trkpt lat="41.2557" lon="20.63552">
        <ele>764.873177</ele>
        <time>2022-04-27T12:21:44.728Z</time>
      </trkpt>
      <trkpt lat="41.2556" lon="20.63547">
        <ele>764.967519</ele>
        <time>2022-04-27T12:21:49.733Z</time>
      </trkpt>
      <trkpt lat="41.2555" lon="20.63544">
        <ele>765.058208</ele>
        <time>2022-04-27T12:21:53.738Z</time>
      </trkpt>
      <trkpt lat="41.2554" lon="20.63541">
        <ele>765.141909</ele>
        <time>2022-04-27T12:21:57.734Z</time>
      </trkpt>
      <trkpt lat="41.2553" lon="20.63538">
        <ele>765.22959</ele>
        <time>2022-04-27T12:22:01.735Z</time>
      </trkpt>
      <trkpt lat="41.2552" lon="20.63536">
        <ele>765.319177</ele>
        <time>2022-04-27T12:22:05.730Z</time>
      </trkpt>
      <trkpt lat="41.25511" lon="20.63532">
        <ele>765.405844</ele>
        <time>2022-04-27T12:22:09.733Z</time>
      </trkpt>
      <trkpt lat="41.25501" lon="20.63529">
        <ele>765.492377</ele>
        <time>2022-04-27T12:22:13.738Z</time>
      </trkpt>
      <trkpt lat="41.2549" lon="20.63527">
        <ele>765.584543</ele>
        <time>2022-04-27T12:22:17.728Z</time>
      </trkpt>
      <trkpt lat="41.2548" lon="20.63525">
        <ele>765.673472</ele>
        <time>2022-04-27T12:22:21.729Z</time>
      </trkpt>
      <trkpt lat="41.25469" lon="20.63523">
        <ele>765.769855</ele>
        <time>2022-04-27T12:22:25.734Z</time>
      </trkpt>
      <trkpt lat="41.2546" lon="20.63522">
        <ele>765.851108</ele>
        <time>2022-04-27T12:22:28.734Z</time>
      </trkpt>
      <trkpt lat="41.2545" lon="20.63521">
        <ele>765.937193</ele>
        <time>2022-04-27T12:22:31.749Z</time>
      </trkpt>
      <trkpt lat="41.2544" lon="20.63522">
        <ele>766.024145</ele>
        <time>2022-04-27T12:22:34.738Z</time>
      </trkpt>
      <trkpt lat="41.2543" lon="20.63523">
        <ele>766.114045</ele>
        <time>2022-04-27T12:22:37.731Z</time>
      </trkpt>
      <trkpt lat="41.25419" lon="20.63524">
        <ele>766.206483</ele>
        <time>2022-04-27T12:22:40.733Z</time>
      </trkpt>
      <trkpt lat="41.25409" lon="20.63526">
        <ele>766.298199</ele>
        <time>2022-04-27T12:22:43.732Z</time>
      </trkpt>
      <trkpt lat="41.25398" lon="20.63529">
        <ele>766.394759</ele>
        <time>2022-04-27T12:22:46.729Z</time>
      </trkpt>
      <trkpt lat="41.25388" lon="20.6353">
        <ele>766.529594</ele>
        <time>2022-04-27T12:22:49.728Z</time>
      </trkpt>
      <trkpt lat="41.25378" lon="20.63532">
        <ele>766.666488</ele>
        <time>2022-04-27T12:22:52.732Z</time>
      </trkpt>
      <trkpt lat="41.25368" lon="20.63536">
        <ele>766.815728</ele>
        <time>2022-04-27T12:22:55.732Z</time>
      </trkpt>
      <trkpt lat="41.25358" lon="20.6354">
        <ele>766.966883</ele>
        <time>2022-04-27T12:22:58.730Z</time>
      </trkpt>
      <trkpt lat="41.25346" lon="20.63543">
        <ele>767.127977</ele>
        <time>2022-04-27T12:23:01.733Z</time>
      </trkpt>
      <trkpt lat="41.25334" lon="20.63547">
        <ele>767.299096</ele>
        <time>2022-04-27T12:23:04.731Z</time>
      </trkpt>
      <trkpt lat="41.25323" lon="20.6355">
        <ele>767.45609</ele>
        <time>2022-04-27T12:23:07.726Z</time>
      </trkpt>
      <trkpt lat="41.25312" lon="20.63554">
        <ele>767.619907</ele>
        <time>2022-04-27T12:23:10.740Z</time>
      </trkpt>
      <trkpt lat="41.25301" lon="20.63558">
        <ele>767.780203</ele>
        <time>2022-04-27T12:23:13.738Z</time>
      </trkpt>
      <trkpt lat="41.2529" lon="20.63561">
        <ele>767.933803</ele>
        <time>2022-04-27T12:23:16.763Z</time>
      </trkpt>
      <trkpt lat="41.25279" lon="20.63566">
        <ele>768.101936</ele>
        <time>2022-04-27T12:23:19.733Z</time>
      </trkpt>
      <trkpt lat="41.25267" lon="20.63569">
        <ele>768.268738</ele>
        <time>2022-04-27T12:23:22.729Z</time>
      </trkpt>
      <trkpt lat="41.25256" lon="20.63573">
        <ele>768.430122</ele>
        <time>2022-04-27T12:23:25.731Z</time>
      </trkpt>
      <trkpt lat="41.25245" lon="20.63576">
        <ele>768.581885</ele>
        <time>2022-04-27T12:23:28.737Z</time>
      </trkpt>
      <trkpt lat="41.25235" lon="20.6358">
        <ele>768.730067</ele>
        <time>2022-04-27T12:23:31.737Z</time>
      </trkpt>
      <trkpt lat="41.25226" lon="20.63585">
        <ele>768.87221</ele>
        <time>2022-04-27T12:23:34.730Z</time>
      </trkpt>
      <trkpt lat="41.25217" lon="20.63591">
        <ele>769.092562</ele>
        <time>2022-04-27T12:23:37.732Z</time>
      </trkpt>
      <trkpt lat="41.25208" lon="20.63598">
        <ele>769.354256</ele>
        <time>2022-04-27T12:23:40.735Z</time>
      </trkpt>
      <trkpt lat="41.25201" lon="20.63606">
        <ele>769.598974</ele>
        <time>2022-04-27T12:23:43.732Z</time>
      </trkpt>
      <trkpt lat="41.25193" lon="20.63616">
        <ele>769.865916</ele>
        <time>2022-04-27T12:23:46.743Z</time>
      </trkpt>
      <trkpt lat="41.25187" lon="20.63626">
        <ele>770.119721</ele>
        <time>2022-04-27T12:23:49.739Z</time>
      </trkpt>
      <trkpt lat="41.25181" lon="20.63635">
        <ele>770.361284</ele>
        <time>2022-04-27T12:23:52.731Z</time>
      </trkpt>
      <trkpt lat="41.25175" lon="20.63645">
        <ele>770.604219</ele>
        <time>2022-04-27T12:23:55.760Z</time>
      </trkpt>
      <trkpt lat="41.2517" lon="20.63655">
        <ele>770.840921</ele>
        <time>2022-04-27T12:23:58.731Z</time>
      </trkpt>
      <trkpt lat="41.25163" lon="20.63665">
        <ele>771.097994</ele>
        <time>2022-04-27T12:24:01.729Z</time>
      </trkpt>
      <trkpt lat="41.25156" lon="20.63675">
        <ele>771.357795</ele>
        <time>2022-04-27T12:24:04.736Z</time>
      </trkpt>
      <trkpt lat="41.2515" lon="20.63685">
        <ele>771.613585</ele>
        <time>2022-04-27T12:24:07.728Z</time>
      </trkpt>
      <trkpt lat="41.25143" lon="20.63694">
        <ele>771.867398</ele>
        <time>2022-04-27T12:24:10.734Z</time>
      </trkpt>
      <trkpt lat="41.25136" lon="20.63703">
        <ele>772.121165</ele>
        <time>2022-04-27T12:24:13.731Z</time>
      </trkpt>
      <trkpt lat="41.25129" lon="20.63712">
        <ele>772.370939</ele>
        <time>2022-04-27T12:24:16.748Z</time>
      </trkpt>
      <trkpt lat="41.25121" lon="20.63722">
        <ele>772.639364</ele>
        <time>2022-04-27T12:24:19.736Z</time>
      </trkpt>
      <trkpt lat="41.25114" lon="20.6373">
        <ele>772.891713</ele>
        <time>2022-04-27T12:24:22.755Z</time>
      </trkpt>
      <trkpt lat="41.25106" lon="20.63738">
        <ele>773.140846</ele>
        <time>2022-04-27T12:24:25.731Z</time>
      </trkpt>
      <trkpt lat="41.25099" lon="20.63746">
        <ele>773.38828</ele>
        <time>2022-04-27T12:24:28.737Z</time>
      </trkpt>
      <trkpt lat="41.2509" lon="20.63755">
        <ele>773.416244</ele>
        <time>2022-04-27T12:24:31.739Z</time>
      </trkpt>
      <trkpt lat="41.25081" lon="20.63765">
        <ele>773.148802</ele>
        <time>2022-04-27T12:24:34.734Z</time>
      </trkpt>
      <trkpt lat="41.25072" lon="20.63776">
        <ele>772.858776</ele>
        <time>2022-04-27T12:24:37.737Z</time>
      </trkpt>
      <trkpt lat="41.25062" lon="20.63786">
        <ele>772.555491</ele>
        <time>2022-04-27T12:24:40.741Z</time>
      </trkpt>
      <trkpt lat="41.25052" lon="20.63796">
        <ele>772.263149</ele>
        <time>2022-04-27T12:24:43.751Z</time>
      </trkpt>
      <trkpt lat="41.25042" lon="20.63805">
        <ele>771.965202</ele>
        <time>2022-04-27T12:24:46.739Z</time>
      </trkpt>
      <trkpt lat="41.25032" lon="20.63814">
        <ele>771.677012</ele>
        <time>2022-04-27T12:24:49.736Z</time>
      </trkpt>
      <trkpt lat="41.25022" lon="20.63821">
        <ele>771.403186</ele>
        <time>2022-04-27T12:24:52.732Z</time>
      </trkpt>
      <trkpt lat="41.25012" lon="20.63829">
        <ele>771.135529</ele>
        <time>2022-04-27T12:24:55.737Z</time>
      </trkpt>
      <trkpt lat="41.25001" lon="20.63836">
        <ele>770.860007</ele>
        <time>2022-04-27T12:24:58.735Z</time>
      </trkpt>
      <trkpt lat="41.24992" lon="20.63842">
        <ele>770.600145</ele>
        <time>2022-04-27T12:25:01.732Z</time>
      </trkpt>
      <trkpt lat="41.24982" lon="20.63849">
        <ele>770.344494</ele>
        <time>2022-04-27T12:25:04.761Z</time>
      </trkpt>
      <trkpt lat="41.24973" lon="20.63855">
        <ele>770.095037</ele>
        <time>2022-04-27T12:25:07.734Z</time>
      </trkpt>
      <trkpt lat="41.24963" lon="20.63862">
        <ele>769.839776</ele>
        <time>2022-04-27T12:25:10.734Z</time>
      </trkpt>
      <trkpt lat="41.24954" lon="20.63869">
        <ele>769.575307</ele>
        <time>2022-04-27T12:25:13.729Z</time>
      </trkpt>
      <trkpt lat="41.24943" lon="20.63875">
        <ele>769.305071</ele>
        <time>2022-04-27T12:25:16.738Z</time>
      </trkpt>
      <trkpt lat="41.24933" lon="20.63881">
        <ele>769.116843</ele>
        <time>2022-04-27T12:25:19.727Z</time>
      </trkpt>
      <trkpt lat="41.24925" lon="20.63887">
        <ele>768.970197</ele>
        <time>2022-04-27T12:25:22.740Z</time>
      </trkpt>
      <trkpt lat="41.24916" lon="20.63893">
        <ele>768.802541</ele>
        <time>2022-04-27T12:25:26.732Z</time>
      </trkpt>
      <trkpt lat="41.24899" lon="20.63905">
        <ele>768.498901</ele>
        <time>2022-04-27T12:28:18.741Z</time>
      </trkpt>
      <trkpt lat="41.24891" lon="20.63912">
        <ele>768.337202</ele>
        <time>2022-04-27T12:28:21.735Z</time>
      </trkpt>
      <trkpt lat="41.2488" lon="20.63919">
        <ele>768.147985</ele>
        <time>2022-04-27T12:28:24.740Z</time>
      </trkpt>
      <trkpt lat="41.24869" lon="20.63927">
        <ele>767.952555</ele>
        <time>2022-04-27T12:28:27.729Z</time>
      </trkpt>
      <trkpt lat="41.24858" lon="20.63935">
        <ele>767.742946</ele>
        <time>2022-04-27T12:28:30.738Z</time>
      </trkpt>
      <trkpt lat="41.24846" lon="20.63943">
        <ele>767.530196</ele>
        <time>2022-04-27T12:28:33.727Z</time>
      </trkpt>
      <trkpt lat="41.24838" lon="20.63949">
        <ele>767.386082</ele>
        <time>2022-04-27T12:28:35.755Z</time>
      </trkpt>
      <trkpt lat="41.2483" lon="20.63954">
        <ele>767.234238</ele>
        <time>2022-04-27T12:28:37.743Z</time>
      </trkpt>
      <trkpt lat="41.24822" lon="20.6396">
        <ele>767.082486</ele>
        <time>2022-04-27T12:28:39.732Z</time>
      </trkpt>
      <trkpt lat="41.24813" lon="20.63966">
        <ele>766.929889</ele>
        <time>2022-04-27T12:28:41.737Z</time>
      </trkpt>
      <trkpt lat="41.24804" lon="20.63973">
        <ele>766.770761</ele>
        <time>2022-04-27T12:28:43.725Z</time>
      </trkpt>
      <trkpt lat="41.24796" lon="20.63979">
        <ele>766.609925</ele>
        <time>2022-04-27T12:28:45.732Z</time>
      </trkpt>
      <trkpt lat="41.24786" lon="20.63985">
        <ele>766.440289</ele>
        <time>2022-04-27T12:28:47.729Z</time>
      </trkpt>
      <trkpt lat="41.24776" lon="20.6399">
        <ele>766.150481</ele>
        <time>2022-04-27T12:28:49.735Z</time>
      </trkpt>
      <trkpt lat="41.24765" lon="20.63994">
        <ele>765.789445</ele>
        <time>2022-04-27T12:28:51.732Z</time>
      </trkpt>
      <trkpt lat="41.24752" lon="20.63998">
        <ele>765.396689</ele>
        <time>2022-04-27T12:28:53.745Z</time>
      </trkpt>
      <trkpt lat="41.2474" lon="20.64">
        <ele>765.005164</ele>
        <time>2022-04-27T12:28:55.732Z</time>
      </trkpt>
      <trkpt lat="41.24728" lon="20.64002">
        <ele>764.60586</ele>
        <time>2022-04-27T12:28:57.755Z</time>
      </trkpt>
      <trkpt lat="41.24715" lon="20.64003">
        <ele>764.206557</ele>
        <time>2022-04-27T12:28:59.730Z</time>
      </trkpt>
      <trkpt lat="41.24702" lon="20.64005">
        <ele>763.803638</ele>
        <time>2022-04-27T12:29:01.736Z</time>
      </trkpt>
      <trkpt lat="41.2469" lon="20.64008">
        <ele>763.403743</ele>
        <time>2022-04-27T12:29:03.728Z</time>
      </trkpt>
      <trkpt lat="41.24677" lon="20.64012">
        <ele>763.001767</ele>
        <time>2022-04-27T12:29:05.740Z</time>
      </trkpt>
      <trkpt lat="41.24665" lon="20.64018">
        <ele>762.588284</ele>
        <time>2022-04-27T12:29:07.741Z</time>
      </trkpt>
      <trkpt lat="41.24653" lon="20.64026">
        <ele>762.155673</ele>
        <time>2022-04-27T12:29:09.734Z</time>
      </trkpt>
      <trkpt lat="41.2464" lon="20.64035">
        <ele>761.706575</ele>
        <time>2022-04-27T12:29:11.734Z</time>
      </trkpt>
      <trkpt lat="41.24628" lon="20.64044">
        <ele>761.274275</ele>
        <time>2022-04-27T12:29:13.732Z</time>
      </trkpt>
      <trkpt lat="41.24616" lon="20.64053">
        <ele>760.838681</ele>
        <time>2022-04-27T12:29:15.733Z</time>
      </trkpt>
      <trkpt lat="41.24604" lon="20.64061">
        <ele>760.935087</ele>
        <time>2022-04-27T12:29:17.735Z</time>
      </trkpt>
      <trkpt lat="41.24593" lon="20.64069">
        <ele>761.263008</ele>
        <time>2022-04-27T12:29:19.759Z</time>
      </trkpt>
      <trkpt lat="41.24583" lon="20.64076">
        <ele>761.574218</ele>
        <time>2022-04-27T12:29:21.728Z</time>
      </trkpt>
      <trkpt lat="41.24573" lon="20.64083">
        <ele>761.860337</ele>
        <time>2022-04-27T12:29:23.734Z</time>
      </trkpt>
      <trkpt lat="41.24565" lon="20.64089">
        <ele>762.116729</ele>
        <time>2022-04-27T12:29:25.727Z</time>
      </trkpt>
      <trkpt lat="41.24554" lon="20.64097">
        <ele>762.438658</ele>
        <time>2022-04-27T12:29:28.769Z</time>
      </trkpt>
      <trkpt lat="41.24545" lon="20.64103">
        <ele>762.709967</ele>
        <time>2022-04-27T12:29:31.735Z</time>
      </trkpt>
      <trkpt lat="41.24536" lon="20.64111">
        <ele>763.002407</ele>
        <time>2022-04-27T12:29:34.734Z</time>
      </trkpt>
      <trkpt lat="41.24526" lon="20.64119">
        <ele>763.297047</ele>
        <time>2022-04-27T12:29:37.736Z</time>
      </trkpt>
      <trkpt lat="41.24517" lon="20.64126">
        <ele>763.571597</ele>
        <time>2022-04-27T12:29:40.734Z</time>
      </trkpt>
      <trkpt lat="41.24509" lon="20.64132">
        <ele>763.818755</ele>
        <time>2022-04-27T12:29:43.735Z</time>
      </trkpt>
      <trkpt lat="41.24499" lon="20.64138">
        <ele>764.108942</ele>
        <time>2022-04-27T12:29:47.751Z</time>
      </trkpt>
      <trkpt lat="41.24487" lon="20.64142">
        <ele>764.417061</ele>
        <time>2022-04-27T12:29:52.732Z</time>
      </trkpt>
      <trkpt lat="41.24476" lon="20.64146">
        <ele>764.727929</ele>
        <time>2022-04-27T12:29:56.733Z</time>
      </trkpt>
      <trkpt lat="41.24465" lon="20.6415">
        <ele>765.023855</ele>
        <time>2022-04-27T12:29:59.741Z</time>
      </trkpt>
      <trkpt lat="41.24455" lon="20.64153">
        <ele>765.284962</ele>
        <time>2022-04-27T12:30:02.733Z</time>
      </trkpt>
      <trkpt lat="41.24446" lon="20.64156">
        <ele>765.572323</ele>
        <time>2022-04-27T12:30:07.735Z</time>
      </trkpt>
      <trkpt lat="41.24437" lon="20.6416">
        <ele>765.887992</ele>
        <time>2022-04-27T12:30:11.731Z</time>
      </trkpt>
      <trkpt lat="41.24428" lon="20.64163">
        <ele>766.206894</ele>
        <time>2022-04-27T12:30:14.745Z</time>
      </trkpt>
      <trkpt lat="41.24417" lon="20.64167">
        <ele>766.586173</ele>
        <time>2022-04-27T12:30:17.731Z</time>
      </trkpt>
      <trkpt lat="41.24405" lon="20.6417">
        <ele>766.980959</ele>
        <time>2022-04-27T12:30:20.756Z</time>
      </trkpt>
      <trkpt lat="41.24393" lon="20.64173">
        <ele>767.39985</ele>
        <time>2022-04-27T12:30:23.732Z</time>
      </trkpt>
      <trkpt lat="41.24384" lon="20.64175">
        <ele>767.714634</ele>
        <time>2022-04-27T12:30:25.736Z</time>
      </trkpt>
      <trkpt lat="41.24372" lon="20.64179">
        <ele>768.128333</ele>
        <time>2022-04-27T12:30:28.736Z</time>
      </trkpt>
      <trkpt lat="41.24361" lon="20.64181">
        <ele>768.497403</ele>
        <time>2022-04-27T12:30:31.737Z</time>
      </trkpt>
      <trkpt lat="41.24351" lon="20.64183">
        <ele>768.827232</ele>
        <time>2022-04-27T12:30:35.737Z</time>
      </trkpt>
      <trkpt lat="41.2434" lon="20.64186">
        <ele>769.200746</ele>
        <time>2022-04-27T12:30:39.725Z</time>
      </trkpt>
      <trkpt lat="41.24329" lon="20.64186">
        <ele>769.571062</ele>
        <time>2022-04-27T12:30:43.729Z</time>
      </trkpt>
      <trkpt lat="41.24319" lon="20.64188">
        <ele>769.912276</ele>
        <time>2022-04-27T12:30:46.733Z</time>
      </trkpt>
      <trkpt lat="41.24309" lon="20.64191">
        <ele>770.279202</ele>
        <time>2022-04-27T12:30:49.733Z</time>
      </trkpt>
      <trkpt lat="41.243" lon="20.64196">
        <ele>770.595603</ele>
        <time>2022-04-27T12:30:51.737Z</time>
      </trkpt>
      <trkpt lat="41.24292" lon="20.64202">
        <ele>770.915079</ele>
        <time>2022-04-27T12:30:54.738Z</time>
      </trkpt>
      <trkpt lat="41.24281" lon="20.64208">
        <ele>771.308633</ele>
        <time>2022-04-27T12:30:58.728Z</time>
      </trkpt>
      <trkpt lat="41.24271" lon="20.64215">
        <ele>771.367741</ele>
        <time>2022-04-27T12:31:01.742Z</time>
      </trkpt>
      <trkpt lat="41.24261" lon="20.64223">
        <ele>771.157861</ele>
        <time>2022-04-27T12:31:04.736Z</time>
      </trkpt>
      <trkpt lat="41.24251" lon="20.64232">
        <ele>770.948783</ele>
        <time>2022-04-27T12:31:07.746Z</time>
      </trkpt>
      <trkpt lat="41.24239" lon="20.64235">
        <ele>770.735748</ele>
        <time>2022-04-27T12:31:10.742Z</time>
      </trkpt>
      <trkpt lat="41.24228" lon="20.64234">
        <ele>770.547461</ele>
        <time>2022-04-27T12:31:12.739Z</time>
      </trkpt>
      <trkpt lat="41.24217" lon="20.64234">
        <ele>770.366219</ele>
        <time>2022-04-27T12:31:14.737Z</time>
      </trkpt>
      <trkpt lat="41.24208" lon="20.64234">
        <ele>770.20064</ele>
        <time>2022-04-27T12:31:16.731Z</time>
      </trkpt>
      <trkpt lat="41.24195" lon="20.64233">
        <ele>769.966935</ele>
        <time>2022-04-27T12:31:19.736Z</time>
      </trkpt>
      <trkpt lat="41.24186" lon="20.64232">
        <ele>769.80943</ele>
        <time>2022-04-27T12:31:21.731Z</time>
      </trkpt>
      <trkpt lat="41.24174" lon="20.64228">
        <ele>769.607578</ele>
        <time>2022-04-27T12:31:24.740Z</time>
      </trkpt>
      <trkpt lat="41.24164" lon="20.64222">
        <ele>769.414176</ele>
        <time>2022-04-27T12:31:27.732Z</time>
      </trkpt>
      <trkpt lat="41.24156" lon="20.64213">
        <ele>769.228343</ele>
        <time>2022-04-27T12:31:30.734Z</time>
      </trkpt>
      <trkpt lat="41.24148" lon="20.64201">
        <ele>769.017694</ele>
        <time>2022-04-27T12:31:33.733Z</time>
      </trkpt>
      <trkpt lat="41.24141" lon="20.64189">
        <ele>768.821693</ele>
        <time>2022-04-27T12:31:36.732Z</time>
      </trkpt>
      <trkpt lat="41.24132" lon="20.64181">
        <ele>768.626508</ele>
        <time>2022-04-27T12:31:40.758Z</time>
      </trkpt>
      <trkpt lat="41.24123" lon="20.64176">
        <ele>768.453901</ele>
        <time>2022-04-27T12:31:43.756Z</time>
      </trkpt>
      <trkpt lat="41.2411" lon="20.64167">
        <ele>769.039985</ele>
        <time>2022-04-27T12:31:46.741Z</time>
      </trkpt>
      <trkpt lat="41.241" lon="20.6416">
        <ele>770.1569</ele>
        <time>2022-04-27T12:31:49.734Z</time>
      </trkpt>
      <trkpt lat="41.24091" lon="20.64152">
        <ele>771.15383</ele>
        <time>2022-04-27T12:31:53.727Z</time>
      </trkpt>
      <trkpt lat="41.24082" lon="20.64143">
        <ele>772.253377</ele>
        <time>2022-04-27T12:31:57.735Z</time>
      </trkpt>
      <trkpt lat="41.24071" lon="20.64137">
        <ele>773.290945</ele>
        <time>2022-04-27T12:32:01.732Z</time>
      </trkpt>
      <trkpt lat="41.24061" lon="20.64133">
        <ele>774.351011</ele>
        <time>2022-04-27T12:32:05.732Z</time>
      </trkpt>
      <trkpt lat="41.24049" lon="20.6413">
        <ele>775.476311</ele>
        <time>2022-04-27T12:32:09.728Z</time>
      </trkpt>
      <trkpt lat="41.24038" lon="20.64126">
        <ele>776.571387</ele>
        <time>2022-04-27T12:32:14.732Z</time>
      </trkpt>
      <trkpt lat="41.24027" lon="20.64125">
        <ele>777.619708</ele>
        <time>2022-04-27T12:32:18.752Z</time>
      </trkpt>
      <trkpt lat="41.24016" lon="20.64129">
        <ele>778.649292</ele>
        <time>2022-04-27T12:32:25.732Z</time>
      </trkpt>
      <trkpt lat="41.24003" lon="20.64127">
        <ele>779.851212</ele>
        <time>2022-04-27T12:32:28.739Z</time>
      </trkpt>
      <trkpt lat="41.23993" lon="20.64129">
        <ele>780.830523</ele>
        <time>2022-04-27T12:32:30.737Z</time>
      </trkpt>
      <trkpt lat="41.23979" lon="20.6413">
        <ele>782.113278</ele>
        <time>2022-04-27T12:32:33.761Z</time>
      </trkpt>
      <trkpt lat="41.23969" lon="20.64131">
        <ele>783.116762</ele>
        <time>2022-04-27T12:32:35.725Z</time>
      </trkpt>
      <trkpt lat="41.23959" lon="20.64134">
        <ele>784.068033</ele>
        <time>2022-04-27T12:32:38.727Z</time>
      </trkpt>
      <trkpt lat="41.23947" lon="20.64135">
        <ele>785.209472</ele>
        <time>2022-04-27T12:32:42.741Z</time>
      </trkpt>
      <trkpt lat="41.23938" lon="20.64135">
        <ele>784.923057</ele>
        <time>2022-04-27T12:32:45.742Z</time>
      </trkpt>
      <trkpt lat="41.23929" lon="20.64136">
        <ele>784.518344</ele>
        <time>2022-04-27T12:32:48.735Z</time>
      </trkpt>
      <trkpt lat="41.23918" lon="20.64138">
        <ele>784.033456</ele>
        <time>2022-04-27T12:32:51.733Z</time>
      </trkpt>
      <trkpt lat="41.23907" lon="20.64142">
        <ele>783.551096</ele>
        <time>2022-04-27T12:32:54.747Z</time>
      </trkpt>
      <trkpt lat="41.23898" lon="20.64145">
        <ele>783.13253</ele>
        <time>2022-04-27T12:32:57.738Z</time>
      </trkpt>
      <trkpt lat="41.23887" lon="20.64147">
        <ele>782.623674</ele>
        <time>2022-04-27T12:33:01.761Z</time>
      </trkpt>
      <trkpt lat="41.23878" lon="20.64151">
        <ele>782.210007</ele>
        <time>2022-04-27T12:33:04.735Z</time>
      </trkpt>
      <trkpt lat="41.23866" lon="20.64153">
        <ele>781.653718</ele>
        <time>2022-04-27T12:33:08.737Z</time>
      </trkpt>
      <trkpt lat="41.23853" lon="20.64155">
        <ele>781.103817</ele>
        <time>2022-04-27T12:33:11.730Z</time>
      </trkpt>
      <trkpt lat="41.23842" lon="20.64156">
        <ele>780.618378</ele>
        <time>2022-04-27T12:33:14.732Z</time>
      </trkpt>
      <trkpt lat="41.23833" lon="20.64156">
        <ele>780.20461</ele>
        <time>2022-04-27T12:33:17.734Z</time>
      </trkpt>
      <trkpt lat="41.23823" lon="20.64156">
        <ele>779.759918</ele>
        <time>2022-04-27T12:33:20.740Z</time>
      </trkpt>
      <trkpt lat="41.23813" lon="20.64156">
        <ele>779.288451</ele>
        <time>2022-04-27T12:33:24.739Z</time>
      </trkpt>
      <trkpt lat="41.238" lon="20.64158">
        <ele>778.706119</ele>
        <time>2022-04-27T12:33:27.730Z</time>
      </trkpt>
      <trkpt lat="41.23788" lon="20.64164">
        <ele>778.145533</ele>
        <time>2022-04-27T12:33:30.735Z</time>
      </trkpt>
      <trkpt lat="41.23779" lon="20.64168">
        <ele>777.738329</ele>
        <time>2022-04-27T12:33:32.750Z</time>
      </trkpt>
      <trkpt lat="41.2377" lon="20.64172">
        <ele>777.333188</ele>
        <time>2022-04-27T12:33:34.758Z</time>
      </trkpt>
      <trkpt lat="41.23759" lon="20.64179">
        <ele>776.928739</ele>
        <time>2022-04-27T12:33:37.727Z</time>
      </trkpt>
      <trkpt lat="41.23748" lon="20.64185">
        <ele>776.5492</ele>
        <time>2022-04-27T12:33:40.733Z</time>
      </trkpt>
      <trkpt lat="41.23738" lon="20.64194">
        <ele>776.163431</ele>
        <time>2022-04-27T12:33:43.738Z</time>
      </trkpt>
      <trkpt lat="41.23727" lon="20.64201">
        <ele>775.801545</ele>
        <time>2022-04-27T12:33:46.731Z</time>
      </trkpt>
      <trkpt lat="41.23719" lon="20.64206">
        <ele>775.512399</ele>
        <time>2022-04-27T12:33:48.732Z</time>
      </trkpt>
      <trkpt lat="41.2371" lon="20.64212">
        <ele>775.210902</ele>
        <time>2022-04-27T12:33:50.739Z</time>
      </trkpt>
      <trkpt lat="41.23702" lon="20.64218">
        <ele>774.917819</ele>
        <time>2022-04-27T12:33:52.749Z</time>
      </trkpt>
      <trkpt lat="41.23693" lon="20.64223">
        <ele>774.61735</ele>
        <time>2022-04-27T12:33:54.738Z</time>
      </trkpt>
      <trkpt lat="41.23683" lon="20.6423">
        <ele>774.272397</ele>
        <time>2022-04-27T12:33:56.778Z</time>
      </trkpt>
      <trkpt lat="41.23675" lon="20.64237">
        <ele>773.957876</ele>
        <time>2022-04-27T12:33:58.729Z</time>
      </trkpt>
      <trkpt lat="41.23668" lon="20.64246">
        <ele>773.65672</ele>
        <time>2022-04-27T12:34:00.745Z</time>
      </trkpt>
      <trkpt lat="41.23659" lon="20.64252">
        <ele>773.356259</ele>
        <time>2022-04-27T12:34:02.732Z</time>
      </trkpt>
      <trkpt lat="41.23651" lon="20.64258">
        <ele>773.072039</ele>
        <time>2022-04-27T12:34:04.731Z</time>
      </trkpt>
      <trkpt lat="41.23643" lon="20.64265">
        <ele>772.770598</ele>
        <time>2022-04-27T12:34:06.735Z</time>
      </trkpt>
      <trkpt lat="41.23633" lon="20.64274">
        <ele>772.383451</ele>
        <time>2022-04-27T12:34:09.740Z</time>
      </trkpt>
      <trkpt lat="41.23625" lon="20.64281">
        <ele>772.084574</ele>
        <time>2022-04-27T12:34:12.737Z</time>
      </trkpt>
      <trkpt lat="41.23614" lon="20.64289">
        <ele>771.713276</ele>
        <time>2022-04-27T12:34:16.728Z</time>
      </trkpt>
      <trkpt lat="41.23607" lon="20.64295">
        <ele>771.667734</ele>
        <time>2022-04-27T12:34:19.755Z</time>
      </trkpt>
      <trkpt lat="41.23598" lon="20.64301">
        <ele>771.644652</ele>
        <time>2022-04-27T12:34:22.734Z</time>
      </trkpt>
      <trkpt lat="41.23589" lon="20.64308">
        <ele>771.619736</ele>
        <time>2022-04-27T12:34:26.738Z</time>
      </trkpt>
      <trkpt lat="41.23579" lon="20.64315">
        <ele>771.592851</ele>
        <time>2022-04-27T12:34:31.730Z</time>
      </trkpt>
      <trkpt lat="41.23571" lon="20.64323">
        <ele>771.567636</ele>
        <time>2022-04-27T12:34:34.731Z</time>
      </trkpt>
      <trkpt lat="41.23562" lon="20.64331">
        <ele>771.541521</ele>
        <time>2022-04-27T12:34:37.733Z</time>
      </trkpt>
      <trkpt lat="41.23552" lon="20.64341">
        <ele>771.511881</ele>
        <time>2022-04-27T12:34:40.737Z</time>
      </trkpt>
      <trkpt lat="41.23541" lon="20.64351">
        <ele>771.479889</ele>
        <time>2022-04-27T12:34:43.737Z</time>
      </trkpt>
      <trkpt lat="41.2353" lon="20.64361">
        <ele>771.448095</ele>
        <time>2022-04-27T12:34:46.732Z</time>
      </trkpt>
      <trkpt lat="41.23519" lon="20.64371">
        <ele>771.415901</ele>
        <time>2022-04-27T12:34:49.728Z</time>
      </trkpt>
      <trkpt lat="41.23507" lon="20.6438">
        <ele>771.383663</ele>
        <time>2022-04-27T12:34:52.731Z</time>
      </trkpt>
      <trkpt lat="41.23499" lon="20.64387">
        <ele>771.360435</ele>
        <time>2022-04-27T12:34:54.735Z</time>
      </trkpt>
      <trkpt lat="41.23491" lon="20.64394">
        <ele>771.338293</ele>
        <time>2022-04-27T12:34:56.743Z</time>
      </trkpt>
      <trkpt lat="41.23483" lon="20.64401">
        <ele>771.315349</ele>
        <time>2022-04-27T12:34:58.728Z</time>
      </trkpt>
      <trkpt lat="41.23472" lon="20.6441">
        <ele>771.284323</ele>
        <time>2022-04-27T12:35:01.731Z</time>
      </trkpt>
      <trkpt lat="41.23462" lon="20.64419">
        <ele>771.21981</ele>
        <time>2022-04-27T12:35:04.739Z</time>
      </trkpt>
      <trkpt lat="41.23454" lon="20.64426">
        <ele>770.916576</ele>
        <time>2022-04-27T12:35:06.735Z</time>
      </trkpt>
      <trkpt lat="41.23446" lon="20.64432">
        <ele>770.596418</ele>
        <time>2022-04-27T12:35:08.748Z</time>
      </trkpt>
      <trkpt lat="41.23438" lon="20.64438">
        <ele>770.289933</ele>
        <time>2022-04-27T12:35:10.734Z</time>
      </trkpt>
      <trkpt lat="41.2343" lon="20.64445">
        <ele>769.987038</ele>
        <time>2022-04-27T12:35:12.725Z</time>
      </trkpt>
      <trkpt lat="41.23419" lon="20.64452">
        <ele>769.581624</ele>
        <time>2022-04-27T12:35:15.728Z</time>
      </trkpt>
      <trkpt lat="41.23408" lon="20.64462">
        <ele>769.134226</ele>
        <time>2022-04-27T12:35:18.726Z</time>
      </trkpt>
      <trkpt lat="41.23398" lon="20.64472">
        <ele>768.693442</ele>
        <time>2022-04-27T12:35:21.733Z</time>
      </trkpt>
      <trkpt lat="41.23386" lon="20.64481">
        <ele>768.259748</ele>
        <time>2022-04-27T12:35:24.736Z</time>
      </trkpt>
      <trkpt lat="41.23375" lon="20.64489">
        <ele>767.84722</ele>
        <time>2022-04-27T12:35:27.726Z</time>
      </trkpt>
      <trkpt lat="41.23364" lon="20.64496">
        <ele>767.434175</ele>
        <time>2022-04-27T12:35:30.725Z</time>
      </trkpt>
      <trkpt lat="41.23353" lon="20.64505">
        <ele>767.011671</ele>
        <time>2022-04-27T12:35:33.755Z</time>
      </trkpt>
      <trkpt lat="41.23343" lon="20.64512">
        <ele>766.622709</ele>
        <time>2022-04-27T12:35:36.727Z</time>
      </trkpt>
      <trkpt lat="41.23334" lon="20.6452">
        <ele>766.261467</ele>
        <time>2022-04-27T12:35:39.749Z</time>
      </trkpt>
      <trkpt lat="41.23324" lon="20.64528">
        <ele>765.877745</ele>
        <time>2022-04-27T12:35:42.735Z</time>
      </trkpt>
      <trkpt lat="41.23313" lon="20.64537">
        <ele>765.453916</ele>
        <time>2022-04-27T12:35:45.729Z</time>
      </trkpt>
      <trkpt lat="41.23302" lon="20.64545">
        <ele>765.035472</ele>
        <time>2022-04-27T12:35:48.811Z</time>
      </trkpt>
      <trkpt lat="41.23291" lon="20.64554">
        <ele>764.655757</ele>
        <time>2022-04-27T12:35:51.737Z</time>
      </trkpt>
      <trkpt lat="41.23281" lon="20.64564">
        <ele>764.28042</ele>
        <time>2022-04-27T12:35:54.736Z</time>
      </trkpt>
      <trkpt lat="41.2327" lon="20.64573">
        <ele>763.901821</ele>
        <time>2022-04-27T12:35:57.729Z</time>
      </trkpt>
      <trkpt lat="41.23263" lon="20.64579">
        <ele>763.630371</ele>
        <time>2022-04-27T12:35:59.733Z</time>
      </trkpt>
      <trkpt lat="41.23251" lon="20.64587">
        <ele>763.235219</ele>
        <time>2022-04-27T12:36:02.735Z</time>
      </trkpt>
      <trkpt lat="41.23243" lon="20.64594">
        <ele>762.957886</ele>
        <time>2022-04-27T12:36:04.736Z</time>
      </trkpt>
      <trkpt lat="41.23234" lon="20.64602">
        <ele>762.64301</ele>
        <time>2022-04-27T12:36:06.754Z</time>
      </trkpt>
      <trkpt lat="41.23227" lon="20.64609">
        <ele>762.354425</ele>
        <time>2022-04-27T12:36:08.737Z</time>
      </trkpt>
      <trkpt lat="41.23215" lon="20.64617">
        <ele>761.967165</ele>
        <time>2022-04-27T12:36:11.729Z</time>
      </trkpt>
      <trkpt lat="41.23205" lon="20.64625">
        <ele>761.60588</ele>
        <time>2022-04-27T12:36:14.732Z</time>
      </trkpt>
      <trkpt lat="41.23195" lon="20.64633">
        <ele>761.254802</ele>
        <time>2022-04-27T12:36:17.764Z</time>
      </trkpt>
      <trkpt lat="41.23184" lon="20.64641">
        <ele>760.896622</ele>
        <time>2022-04-27T12:36:20.732Z</time>
      </trkpt>
      <trkpt lat="41.23174" lon="20.64649">
        <ele>760.529495</ele>
        <time>2022-04-27T12:36:23.731Z</time>
      </trkpt>
      <trkpt lat="41.23162" lon="20.64657">
        <ele>760.133801</ele>
        <time>2022-04-27T12:36:26.732Z</time>
      </trkpt>
      <trkpt lat="41.2315" lon="20.64665">
        <ele>759.690201</ele>
        <time>2022-04-27T12:36:29.736Z</time>
      </trkpt>
      <trkpt lat="41.23138" lon="20.64673">
        <ele>759.136084</ele>
        <time>2022-04-27T12:36:32.735Z</time>
      </trkpt>
      <trkpt lat="41.23127" lon="20.64681">
        <ele>758.590792</ele>
        <time>2022-04-27T12:36:35.756Z</time>
      </trkpt>
      <trkpt lat="41.23115" lon="20.64688">
        <ele>758.063769</ele>
        <time>2022-04-27T12:36:38.740Z</time>
      </trkpt>
      <trkpt lat="41.23104" lon="20.64696">
        <ele>757.536745</ele>
        <time>2022-04-27T12:36:41.737Z</time>
      </trkpt>
      <trkpt lat="41.23093" lon="20.64704">
        <ele>757.02306</ele>
        <time>2022-04-27T12:36:44.733Z</time>
      </trkpt>
      <trkpt lat="41.23083" lon="20.64711">
        <ele>756.543127</ele>
        <time>2022-04-27T12:36:47.730Z</time>
      </trkpt>
      <trkpt lat="41.23074" lon="20.64719">
        <ele>756.10122</ele>
        <time>2022-04-27T12:36:50.743Z</time>
      </trkpt>
      <trkpt lat="41.23065" lon="20.64725">
        <ele>755.666159</ele>
        <time>2022-04-27T12:36:53.726Z</time>
      </trkpt>
      <trkpt lat="41.23055" lon="20.64733">
        <ele>755.182063</ele>
        <time>2022-04-27T12:36:56.732Z</time>
      </trkpt>
      <trkpt lat="41.23044" lon="20.64742">
        <ele>754.656164</ele>
        <time>2022-04-27T12:36:59.735Z</time>
      </trkpt>
      <trkpt lat="41.23032" lon="20.64751">
        <ele>754.085826</ele>
        <time>2022-04-27T12:37:02.741Z</time>
      </trkpt>
      <trkpt lat="41.23024" lon="20.64756">
        <ele>753.69334</ele>
        <time>2022-04-27T12:37:04.735Z</time>
      </trkpt>
      <trkpt lat="41.23015" lon="20.64762">
        <ele>753.300159</ele>
        <time>2022-04-27T12:37:06.735Z</time>
      </trkpt>
      <trkpt lat="41.23007" lon="20.64768">
        <ele>752.906978</ele>
        <time>2022-04-27T12:37:08.733Z</time>
      </trkpt>
      <trkpt lat="41.22999" lon="20.64775">
        <ele>752.510768</ele>
        <time>2022-04-27T12:37:10.733Z</time>
      </trkpt>
      <trkpt lat="41.2299" lon="20.64781">
        <ele>752.296585</ele>
        <time>2022-04-27T12:37:12.741Z</time>
      </trkpt>
      <trkpt lat="41.22981" lon="20.64788">
        <ele>752.179018</ele>
        <time>2022-04-27T12:37:14.732Z</time>
      </trkpt>
      <trkpt lat="41.22972" lon="20.64795">
        <ele>752.059709</ele>
        <time>2022-04-27T12:37:16.738Z</time>
      </trkpt>
      <trkpt lat="41.22963" lon="20.64802">
        <ele>751.934435</ele>
        <time>2022-04-27T12:37:18.734Z</time>
      </trkpt>
      <trkpt lat="41.22953" lon="20.6481">
        <ele>751.805012</ele>
        <time>2022-04-27T12:37:20.737Z</time>
      </trkpt>
      <trkpt lat="41.22943" lon="20.64817">
        <ele>751.674288</ele>
        <time>2022-04-27T12:37:22.738Z</time>
      </trkpt>
      <trkpt lat="41.22933" lon="20.64825">
        <ele>751.539457</ele>
        <time>2022-04-27T12:37:24.733Z</time>
      </trkpt>
      <trkpt lat="41.22922" lon="20.64833">
        <ele>751.399913</ele>
        <time>2022-04-27T12:37:26.762Z</time>
      </trkpt>
      <trkpt lat="41.22911" lon="20.64841">
        <ele>751.255091</ele>
        <time>2022-04-27T12:37:28.741Z</time>
      </trkpt>
      <trkpt lat="41.229" lon="20.6485">
        <ele>751.104209</ele>
        <time>2022-04-27T12:37:30.736Z</time>
      </trkpt>
      <trkpt lat="41.22889" lon="20.64859">
        <ele>750.949386</ele>
        <time>2022-04-27T12:37:32.735Z</time>
      </trkpt>
      <trkpt lat="41.22876" lon="20.64868">
        <ele>750.789422</ele>
        <time>2022-04-27T12:37:34.734Z</time>
      </trkpt>
      <trkpt lat="41.22864" lon="20.64877">
        <ele>750.62661</ele>
        <time>2022-04-27T12:37:36.735Z</time>
      </trkpt>
      <trkpt lat="41.22851" lon="20.64886">
        <ele>750.460164</ele>
        <time>2022-04-27T12:37:38.728Z</time>
      </trkpt>
      <trkpt lat="41.22839" lon="20.64896">
        <ele>750.287899</ele>
        <time>2022-04-27T12:37:40.733Z</time>
      </trkpt>
      <trkpt lat="41.22826" lon="20.64905">
        <ele>750.050539</ele>
        <time>2022-04-27T12:37:42.726Z</time>
      </trkpt>
      <trkpt lat="41.22814" lon="20.64914">
        <ele>749.81793</ele>
        <time>2022-04-27T12:37:44.740Z</time>
      </trkpt>
      <trkpt lat="41.22802" lon="20.64922">
        <ele>749.594462</ele>
        <time>2022-04-27T12:37:46.729Z</time>
      </trkpt>
      <trkpt lat="41.22791" lon="20.64931">
        <ele>749.380131</ele>
        <time>2022-04-27T12:37:48.739Z</time>
      </trkpt>
      <trkpt lat="41.2278" lon="20.64939">
        <ele>749.170269</ele>
        <time>2022-04-27T12:37:50.727Z</time>
      </trkpt>
      <trkpt lat="41.22769" lon="20.64946">
        <ele>748.968363</ele>
        <time>2022-04-27T12:37:52.734Z</time>
      </trkpt>
      <trkpt lat="41.22759" lon="20.64954">
        <ele>748.774733</ele>
        <time>2022-04-27T12:37:54.737Z</time>
      </trkpt>
      <trkpt lat="41.22749" lon="20.64961">
        <ele>748.58136</ele>
        <time>2022-04-27T12:37:56.735Z</time>
      </trkpt>
      <trkpt lat="41.22739" lon="20.64968">
        <ele>748.394806</ele>
        <time>2022-04-27T12:37:58.736Z</time>
      </trkpt>
      <trkpt lat="41.2273" lon="20.64975">
        <ele>748.213859</ele>
        <time>2022-04-27T12:38:00.736Z</time>
      </trkpt>
      <trkpt lat="41.2272" lon="20.64982">
        <ele>748.0267</ele>
        <time>2022-04-27T12:38:02.739Z</time>
      </trkpt>
      <trkpt lat="41.22711" lon="20.64989">
        <ele>747.845147</ele>
        <time>2022-04-27T12:38:04.728Z</time>
      </trkpt>
      <trkpt lat="41.22702" lon="20.64996">
        <ele>747.670218</ele>
        <time>2022-04-27T12:38:06.737Z</time>
      </trkpt>
      <trkpt lat="41.22693" lon="20.65003">
        <ele>747.499258</ele>
        <time>2022-04-27T12:38:08.732Z</time>
      </trkpt>
      <trkpt lat="41.22684" lon="20.6501">
        <ele>747.332445</ele>
        <time>2022-04-27T12:38:10.752Z</time>
      </trkpt>
      <trkpt lat="41.22675" lon="20.65016">
        <ele>747.249271</ele>
        <time>2022-04-27T12:38:12.733Z</time>
      </trkpt>
      <trkpt lat="41.22667" lon="20.65023">
        <ele>747.185744</ele>
        <time>2022-04-27T12:38:14.728Z</time>
      </trkpt>
      <trkpt lat="41.22658" lon="20.65029">
        <ele>747.12345</ele>
        <time>2022-04-27T12:38:16.741Z</time>
      </trkpt>
      <trkpt lat="41.22649" lon="20.65035">
        <ele>747.061031</ele>
        <time>2022-04-27T12:38:18.744Z</time>
      </trkpt>
      <trkpt lat="41.22641" lon="20.65041">
        <ele>746.998288</ele>
        <time>2022-04-27T12:38:20.729Z</time>
      </trkpt>
      <trkpt lat="41.22632" lon="20.65048">
        <ele>746.93708</ele>
        <time>2022-04-27T12:38:22.739Z</time>
      </trkpt>
      <trkpt lat="41.22624" lon="20.65054">
        <ele>746.876231</ele>
        <time>2022-04-27T12:38:24.729Z</time>
      </trkpt>
      <trkpt lat="41.22615" lon="20.65061">
        <ele>746.814597</ele>
        <time>2022-04-27T12:38:26.742Z</time>
      </trkpt>
      <trkpt lat="41.22607" lon="20.65067">
        <ele>746.751624</ele>
        <time>2022-04-27T12:38:28.740Z</time>
      </trkpt>
      <trkpt lat="41.22598" lon="20.65074">
        <ele>746.687634</ele>
        <time>2022-04-27T12:38:30.732Z</time>
      </trkpt>
      <trkpt lat="41.22589" lon="20.6508">
        <ele>746.622622</ele>
        <time>2022-04-27T12:38:32.753Z</time>
      </trkpt>
      <trkpt lat="41.2258" lon="20.65087">
        <ele>746.557674</ele>
        <time>2022-04-27T12:38:34.732Z</time>
      </trkpt>
      <trkpt lat="41.22571" lon="20.65094">
        <ele>746.492182</ele>
        <time>2022-04-27T12:38:36.737Z</time>
      </trkpt>
      <trkpt lat="41.22562" lon="20.65101">
        <ele>746.42653</ele>
        <time>2022-04-27T12:38:38.744Z</time>
      </trkpt>
      <trkpt lat="41.22553" lon="20.65107">
        <ele>746.361985</ele>
        <time>2022-04-27T12:38:40.730Z</time>
      </trkpt>
      <trkpt lat="41.22544" lon="20.65114">
        <ele>746.298457</ele>
        <time>2022-04-27T12:38:42.733Z</time>
      </trkpt>
      <trkpt lat="41.22535" lon="20.6512">
        <ele>746.234821</ele>
        <time>2022-04-27T12:38:44.731Z</time>
      </trkpt>
      <trkpt lat="41.22527" lon="20.65126">
        <ele>746.173417</ele>
        <time>2022-04-27T12:38:46.740Z</time>
      </trkpt>
      <trkpt lat="41.22519" lon="20.65132">
        <ele>746.166608</ele>
        <time>2022-04-27T12:38:48.729Z</time>
      </trkpt>
      <trkpt lat="41.22511" lon="20.65139">
        <ele>746.174194</ele>
        <time>2022-04-27T12:38:50.738Z</time>
      </trkpt>
      <trkpt lat="41.22502" lon="20.65145">
        <ele>746.182236</ele>
        <time>2022-04-27T12:38:52.734Z</time>
      </trkpt>
      <trkpt lat="41.22494" lon="20.65152">
        <ele>746.190279</ele>
        <time>2022-04-27T12:38:54.759Z</time>
      </trkpt>
      <trkpt lat="41.22485" lon="20.65158">
        <ele>746.198362</ele>
        <time>2022-04-27T12:38:56.734Z</time>
      </trkpt>
      <trkpt lat="41.22476" lon="20.65165">
        <ele>746.206546</ele>
        <time>2022-04-27T12:38:58.734Z</time>
      </trkpt>
      <trkpt lat="41.22467" lon="20.65171">
        <ele>746.214731</ele>
        <time>2022-04-27T12:39:00.747Z</time>
      </trkpt>
      <trkpt lat="41.22459" lon="20.65178">
        <ele>746.222885</ele>
        <time>2022-04-27T12:39:02.733Z</time>
      </trkpt>
      <trkpt lat="41.2245" lon="20.65184">
        <ele>746.23104</ele>
        <time>2022-04-27T12:39:04.731Z</time>
      </trkpt>
      <trkpt lat="41.22441" lon="20.6519">
        <ele>746.238893</ele>
        <time>2022-04-27T12:39:06.735Z</time>
      </trkpt>
      <trkpt lat="41.22433" lon="20.65196">
        <ele>746.246431</ele>
        <time>2022-04-27T12:39:08.745Z</time>
      </trkpt>
      <trkpt lat="41.22425" lon="20.65202">
        <ele>746.25397</ele>
        <time>2022-04-27T12:39:10.754Z</time>
      </trkpt>
      <trkpt lat="41.22417" lon="20.65209">
        <ele>746.261731</ele>
        <time>2022-04-27T12:39:12.731Z</time>
      </trkpt>
      <trkpt lat="41.22409" lon="20.65215">
        <ele>746.269663</ele>
        <time>2022-04-27T12:39:14.734Z</time>
      </trkpt>
      <trkpt lat="41.224" lon="20.65221">
        <ele>746.277333</ele>
        <time>2022-04-27T12:39:16.731Z</time>
      </trkpt>
      <trkpt lat="41.22392" lon="20.65228">
        <ele>746.285133</ele>
        <time>2022-04-27T12:39:18.736Z</time>
      </trkpt>
      <trkpt lat="41.22383" lon="20.65234">
        <ele>746.293116</ele>
        <time>2022-04-27T12:39:20.750Z</time>
      </trkpt>
      <trkpt lat="41.22375" lon="20.65241">
        <ele>746.300917</ele>
        <time>2022-04-27T12:39:22.738Z</time>
      </trkpt>
      <trkpt lat="41.22367" lon="20.65247">
        <ele>746.355005</ele>
        <time>2022-04-27T12:39:24.732Z</time>
      </trkpt>
      <trkpt lat="41.22358" lon="20.65252">
        <ele>746.549188</ele>
        <time>2022-04-27T12:39:26.735Z</time>
      </trkpt>
      <trkpt lat="41.22349" lon="20.65259">
        <ele>746.751168</ele>
        <time>2022-04-27T12:39:28.731Z</time>
      </trkpt>
      <trkpt lat="41.22341" lon="20.65265">
        <ele>746.943798</ele>
        <time>2022-04-27T12:39:30.741Z</time>
      </trkpt>
      <trkpt lat="41.22332" lon="20.65271">
        <ele>747.140689</ele>
        <time>2022-04-27T12:39:32.758Z</time>
      </trkpt>
      <trkpt lat="41.22323" lon="20.65278">
        <ele>747.341917</ele>
        <time>2022-04-27T12:39:34.733Z</time>
      </trkpt>
      <trkpt lat="41.22315" lon="20.65284">
        <ele>747.544891</ele>
        <time>2022-04-27T12:39:36.733Z</time>
      </trkpt>
      <trkpt lat="41.22306" lon="20.65291">
        <ele>747.742883</ele>
        <time>2022-04-27T12:39:38.734Z</time>
      </trkpt>
      <trkpt lat="41.22297" lon="20.65297">
        <ele>747.945858</ele>
        <time>2022-04-27T12:39:40.735Z</time>
      </trkpt>
      <trkpt lat="41.22288" lon="20.65304">
        <ele>748.154831</ele>
        <time>2022-04-27T12:39:42.735Z</time>
      </trkpt>
      <trkpt lat="41.22279" lon="20.65311">
        <ele>748.36454</ele>
        <time>2022-04-27T12:39:44.740Z</time>
      </trkpt>
      <trkpt lat="41.2227" lon="20.65318">
        <ele>748.579629</ele>
        <time>2022-04-27T12:39:46.738Z</time>
      </trkpt>
      <trkpt lat="41.22261" lon="20.65325">
        <ele>748.783625</ele>
        <time>2022-04-27T12:39:48.732Z</time>
      </trkpt>
      <trkpt lat="41.22252" lon="20.65331">
        <ele>748.984411</ele>
        <time>2022-04-27T12:39:50.736Z</time>
      </trkpt>
      <trkpt lat="41.22243" lon="20.65338">
        <ele>749.189139</ele>
        <time>2022-04-27T12:39:52.733Z</time>
      </trkpt>
      <trkpt lat="41.22234" lon="20.65345">
        <ele>749.402087</ele>
        <time>2022-04-27T12:39:54.758Z</time>
      </trkpt>
      <trkpt lat="41.22225" lon="20.65352">
        <ele>749.617322</ele>
        <time>2022-04-27T12:39:56.739Z</time>
      </trkpt>
      <trkpt lat="41.22215" lon="20.65359">
        <ele>749.837002</ele>
        <time>2022-04-27T12:39:58.738Z</time>
      </trkpt>
      <trkpt lat="41.22206" lon="20.65366">
        <ele>749.831326</ele>
        <time>2022-04-27T12:40:00.729Z</time>
      </trkpt>
      <trkpt lat="41.22197" lon="20.65373">
        <ele>749.684358</ele>
        <time>2022-04-27T12:40:02.739Z</time>
      </trkpt>
      <trkpt lat="41.22188" lon="20.6538">
        <ele>749.537669</ele>
        <time>2022-04-27T12:40:04.728Z</time>
      </trkpt>
      <trkpt lat="41.22179" lon="20.65386">
        <ele>749.394959</ele>
        <time>2022-04-27T12:40:06.752Z</time>
      </trkpt>
      <trkpt lat="41.2217" lon="20.65394">
        <ele>749.241966</ele>
        <time>2022-04-27T12:40:08.734Z</time>
      </trkpt>
      <trkpt lat="41.22161" lon="20.65401">
        <ele>749.092466</ele>
        <time>2022-04-27T12:40:10.747Z</time>
      </trkpt>
      <trkpt lat="41.22151" lon="20.65408">
        <ele>748.941749</ele>
        <time>2022-04-27T12:40:12.744Z</time>
      </trkpt>
      <trkpt lat="41.22142" lon="20.65415">
        <ele>748.791176</ele>
        <time>2022-04-27T12:40:14.730Z</time>
      </trkpt>
      <trkpt lat="41.22133" lon="20.65423">
        <ele>748.641898</ele>
        <time>2022-04-27T12:40:16.737Z</time>
      </trkpt>
      <trkpt lat="41.22124" lon="20.65429">
        <ele>748.490009</ele>
        <time>2022-04-27T12:40:18.731Z</time>
      </trkpt>
      <trkpt lat="41.22114" lon="20.65437">
        <ele>748.335939</ele>
        <time>2022-04-27T12:40:20.739Z</time>
      </trkpt>
      <trkpt lat="41.22105" lon="20.65444">
        <ele>748.183716</ele>
        <time>2022-04-27T12:40:22.732Z</time>
      </trkpt>
      <trkpt lat="41.22096" lon="20.65452">
        <ele>748.0338</ele>
        <time>2022-04-27T12:40:24.731Z</time>
      </trkpt>
      <trkpt lat="41.22087" lon="20.65459">
        <ele>747.885513</ele>
        <time>2022-04-27T12:40:26.738Z</time>
      </trkpt>
      <trkpt lat="41.22078" lon="20.65466">
        <ele>747.740184</ele>
        <time>2022-04-27T12:40:28.734Z</time>
      </trkpt>
      <trkpt lat="41.22069" lon="20.65473">
        <ele>747.589611</ele>
        <time>2022-04-27T12:40:30.734Z</time>
      </trkpt>
      <trkpt lat="41.2206" lon="20.65481">
        <ele>747.441555</ele>
        <time>2022-04-27T12:40:32.732Z</time>
      </trkpt>
      <trkpt lat="41.22051" lon="20.65489">
        <ele>747.408579</ele>
        <time>2022-04-27T12:40:34.730Z</time>
      </trkpt>
      <trkpt lat="41.22041" lon="20.65496">
        <ele>747.432612</ele>
        <time>2022-04-27T12:40:36.760Z</time>
      </trkpt>
      <trkpt lat="41.22031" lon="20.65503">
        <ele>747.456598</ele>
        <time>2022-04-27T12:40:38.731Z</time>
      </trkpt>
      <trkpt lat="41.22022" lon="20.6551">
        <ele>747.480256</ele>
        <time>2022-04-27T12:40:40.728Z</time>
      </trkpt>
      <trkpt lat="41.22012" lon="20.65518">
        <ele>747.504078</ele>
        <time>2022-04-27T12:40:42.735Z</time>
      </trkpt>
      <trkpt lat="41.22003" lon="20.65525">
        <ele>747.527388</ele>
        <time>2022-04-27T12:40:44.742Z</time>
      </trkpt>
      <trkpt lat="41.21993" lon="20.65532">
        <ele>747.550698</ele>
        <time>2022-04-27T12:40:46.737Z</time>
      </trkpt>
      <trkpt lat="41.21984" lon="20.65539">
        <ele>747.574266</ele>
        <time>2022-04-27T12:40:48.741Z</time>
      </trkpt>
      <trkpt lat="41.21974" lon="20.65545">
        <ele>747.598292</ele>
        <time>2022-04-27T12:40:50.733Z</time>
      </trkpt>
      <trkpt lat="41.21964" lon="20.65553">
        <ele>747.622754</ele>
        <time>2022-04-27T12:40:52.739Z</time>
      </trkpt>
      <trkpt lat="41.21954" lon="20.6556">
        <ele>747.646145</ele>
        <time>2022-04-27T12:40:54.733Z</time>
      </trkpt>
      <trkpt lat="41.21945" lon="20.65567">
        <ele>747.669375</ele>
        <time>2022-04-27T12:40:56.734Z</time>
      </trkpt>
      <trkpt lat="41.21936" lon="20.65574">
        <ele>747.692579</ele>
        <time>2022-04-27T12:40:58.739Z</time>
      </trkpt>
      <trkpt lat="41.21927" lon="20.65582">
        <ele>747.715932</ele>
        <time>2022-04-27T12:41:00.733Z</time>
      </trkpt>
      <trkpt lat="41.21918" lon="20.65589">
        <ele>747.738065</ele>
        <time>2022-04-27T12:41:02.733Z</time>
      </trkpt>
      <trkpt lat="41.21909" lon="20.65595">
        <ele>747.759207</ele>
        <time>2022-04-27T12:41:04.739Z</time>
      </trkpt>
      <trkpt lat="41.219" lon="20.65602">
        <ele>747.774332</ele>
        <time>2022-04-27T12:41:06.735Z</time>
      </trkpt>
      <trkpt lat="41.21892" lon="20.65609">
        <ele>747.638059</ele>
        <time>2022-04-27T12:41:08.736Z</time>
      </trkpt>
      <trkpt lat="41.21884" lon="20.65616">
        <ele>747.508069</ele>
        <time>2022-04-27T12:41:10.736Z</time>
      </trkpt>
      <trkpt lat="41.21875" lon="20.65623">
        <ele>747.372195</ele>
        <time>2022-04-27T12:41:12.742Z</time>
      </trkpt>
      <trkpt lat="41.21867" lon="20.6563">
        <ele>747.236534</ele>
        <time>2022-04-27T12:41:14.751Z</time>
      </trkpt>
      <trkpt lat="41.21858" lon="20.65637">
        <ele>747.101827</ele>
        <time>2022-04-27T12:41:16.727Z</time>
      </trkpt>
      <trkpt lat="41.21849" lon="20.65644">
        <ele>746.963241</ele>
        <time>2022-04-27T12:41:18.736Z</time>
      </trkpt>
      <trkpt lat="41.2184" lon="20.65651">
        <ele>746.8236</ele>
        <time>2022-04-27T12:41:20.733Z</time>
      </trkpt>
      <trkpt lat="41.21832" lon="20.65658">
        <ele>746.688477</ele>
        <time>2022-04-27T12:41:22.732Z</time>
      </trkpt>
      <trkpt lat="41.21823" lon="20.65665">
        <ele>746.549985</ele>
        <time>2022-04-27T12:41:24.727Z</time>
      </trkpt>
      <trkpt lat="41.21814" lon="20.65672">
        <ele>746.409191</ele>
        <time>2022-04-27T12:41:26.729Z</time>
      </trkpt>
      <trkpt lat="41.21805" lon="20.6568">
        <ele>746.268473</ele>
        <time>2022-04-27T12:41:28.736Z</time>
      </trkpt>
      <trkpt lat="41.21797" lon="20.65687">
        <ele>746.129887</ele>
        <time>2022-04-27T12:41:30.736Z</time>
      </trkpt>
      <trkpt lat="41.21787" lon="20.65694">
        <ele>745.984957</ele>
        <time>2022-04-27T12:41:32.729Z</time>
      </trkpt>
      <trkpt lat="41.21778" lon="20.657">
        <ele>745.845559</ele>
        <time>2022-04-27T12:41:34.729Z</time>
      </trkpt>
      <trkpt lat="41.21769" lon="20.65707">
        <ele>745.707339</ele>
        <time>2022-04-27T12:41:36.734Z</time>
      </trkpt>
      <trkpt lat="41.21761" lon="20.65714">
        <ele>745.571464</ele>
        <time>2022-04-27T12:41:38.731Z</time>
      </trkpt>
      <trkpt lat="41.21752" lon="20.65721">
        <ele>745.432877</ele>
        <time>2022-04-27T12:41:40.738Z</time>
      </trkpt>
      <trkpt lat="41.21743" lon="20.65729">
        <ele>745.192172</ele>
        <time>2022-04-27T12:41:42.738Z</time>
      </trkpt>
      <trkpt lat="41.21734" lon="20.65736">
        <ele>744.848222</ele>
        <time>2022-04-27T12:41:44.735Z</time>
      </trkpt>
      <trkpt lat="41.21725" lon="20.65743">
        <ele>744.519502</ele>
        <time>2022-04-27T12:41:46.734Z</time>
      </trkpt>
      <trkpt lat="41.21717" lon="20.65751">
        <ele>744.188074</ele>
        <time>2022-04-27T12:41:48.737Z</time>
      </trkpt>
      <trkpt lat="41.21709" lon="20.65758">
        <ele>743.860513</ele>
        <time>2022-04-27T12:41:50.764Z</time>
      </trkpt>
      <trkpt lat="41.217" lon="20.65764">
        <ele>743.530141</ele>
        <time>2022-04-27T12:41:52.731Z</time>
      </trkpt>
      <trkpt lat="41.21691" lon="20.65771">
        <ele>743.192855</ele>
        <time>2022-04-27T12:41:54.733Z</time>
      </trkpt>
      <trkpt lat="41.21682" lon="20.65779">
        <ele>742.838893</ele>
        <time>2022-04-27T12:41:56.736Z</time>
      </trkpt>
      <trkpt lat="41.21672" lon="20.65786">
        <ele>742.479589</ele>
        <time>2022-04-27T12:41:58.730Z</time>
      </trkpt>
      <trkpt lat="41.21663" lon="20.65793">
        <ele>742.112513</ele>
        <time>2022-04-27T12:42:00.742Z</time>
      </trkpt>
      <trkpt lat="41.21653" lon="20.65801">
        <ele>741.734884</ele>
        <time>2022-04-27T12:42:02.735Z</time>
      </trkpt>
      <trkpt lat="41.21643" lon="20.65808">
        <ele>741.359213</ele>
        <time>2022-04-27T12:42:04.749Z</time>
      </trkpt>
      <trkpt lat="41.21633" lon="20.65816">
        <ele>740.987299</ele>
        <time>2022-04-27T12:42:06.757Z</time>
      </trkpt>
      <trkpt lat="41.21623" lon="20.65823">
        <ele>740.61088</ele>
        <time>2022-04-27T12:42:08.743Z</time>
      </trkpt>
      <trkpt lat="41.21613" lon="20.65831">
        <ele>740.234881</ele>
        <time>2022-04-27T12:42:10.730Z</time>
      </trkpt>
      <trkpt lat="41.21604" lon="20.65838">
        <ele>739.876437</ele>
        <time>2022-04-27T12:42:12.736Z</time>
      </trkpt>
      <trkpt lat="41.21593" lon="20.65846">
        <ele>739.491862</ele>
        <time>2022-04-27T12:42:14.737Z</time>
      </trkpt>
      <trkpt lat="41.21583" lon="20.65854">
        <ele>739.328888</ele>
        <time>2022-04-27T12:42:16.738Z</time>
      </trkpt>
      <trkpt lat="41.21573" lon="20.65862">
        <ele>739.204837</ele>
        <time>2022-04-27T12:42:18.745Z</time>
      </trkpt>
      <trkpt lat="41.21564" lon="20.6587">
        <ele>739.081269</ele>
        <time>2022-04-27T12:42:20.726Z</time>
      </trkpt>
      <trkpt lat="41.21554" lon="20.65878">
        <ele>738.956851</ele>
        <time>2022-04-27T12:42:22.739Z</time>
      </trkpt>
      <trkpt lat="41.21544" lon="20.65886">
        <ele>738.837661</ele>
        <time>2022-04-27T12:42:24.741Z</time>
      </trkpt>
      <trkpt lat="41.21534" lon="20.65894">
        <ele>738.717066</ele>
        <time>2022-04-27T12:42:26.747Z</time>
      </trkpt>
      <trkpt lat="41.21524" lon="20.65902">
        <ele>738.593725</ele>
        <time>2022-04-27T12:42:28.733Z</time>
      </trkpt>
      <trkpt lat="41.21514" lon="20.65909">
        <ele>738.466303</ele>
        <time>2022-04-27T12:42:30.759Z</time>
      </trkpt>
      <trkpt lat="41.21504" lon="20.65917">
        <ele>738.342664</ele>
        <time>2022-04-27T12:42:32.746Z</time>
      </trkpt>
      <trkpt lat="41.21493" lon="20.65926">
        <ele>738.216387</ele>
        <time>2022-04-27T12:42:34.742Z</time>
      </trkpt>
      <trkpt lat="41.21483" lon="20.65934">
        <ele>738.09011</ele>
        <time>2022-04-27T12:42:36.728Z</time>
      </trkpt>
      <trkpt lat="41.21473" lon="20.65942">
        <ele>737.96437</ele>
        <time>2022-04-27T12:42:38.724Z</time>
      </trkpt>
      <trkpt lat="41.21463" lon="20.65951">
        <ele>737.835115</ele>
        <time>2022-04-27T12:42:40.734Z</time>
      </trkpt>
      <trkpt lat="41.21453" lon="20.65961">
        <ele>737.704504</ele>
        <time>2022-04-27T12:42:42.732Z</time>
      </trkpt>
      <trkpt lat="41.21443" lon="20.65971">
        <ele>737.572786</ele>
        <time>2022-04-27T12:42:44.738Z</time>
      </trkpt>
      <trkpt lat="41.21434" lon="20.65981">
        <ele>737.552198</ele>
        <time>2022-04-27T12:42:46.736Z</time>
      </trkpt>
      <trkpt lat="41.21424" lon="20.65992">
        <ele>737.589302</ele>
        <time>2022-04-27T12:42:48.730Z</time>
      </trkpt>
      <trkpt lat="41.21414" lon="20.66003">
        <ele>737.627102</ele>
        <time>2022-04-27T12:42:50.736Z</time>
      </trkpt>
      <trkpt lat="41.21405" lon="20.66015">
        <ele>737.665564</ele>
        <time>2022-04-27T12:42:52.729Z</time>
      </trkpt>
      <trkpt lat="41.21395" lon="20.66026">
        <ele>737.70432</ele>
        <time>2022-04-27T12:42:54.743Z</time>
      </trkpt>
      <trkpt lat="41.21385" lon="20.66037">
        <ele>737.742642</ele>
        <time>2022-04-27T12:42:56.733Z</time>
      </trkpt>
      <trkpt lat="41.21375" lon="20.66049">
        <ele>737.781869</ele>
        <time>2022-04-27T12:42:58.771Z</time>
      </trkpt>
      <trkpt lat="41.21364" lon="20.66059">
        <ele>737.82054</ele>
        <time>2022-04-27T12:43:00.729Z</time>
      </trkpt>
      <trkpt lat="41.21354" lon="20.6607">
        <ele>737.859677</ele>
        <time>2022-04-27T12:43:02.740Z</time>
      </trkpt>
      <trkpt lat="41.21343" lon="20.66081">
        <ele>737.898855</ele>
        <time>2022-04-27T12:43:04.736Z</time>
      </trkpt>
      <trkpt lat="41.21334" lon="20.66092">
        <ele>737.936891</ele>
        <time>2022-04-27T12:43:06.749Z</time>
      </trkpt>
      <trkpt lat="41.21324" lon="20.66103">
        <ele>737.974135</ele>
        <time>2022-04-27T12:43:08.736Z</time>
      </trkpt>
      <trkpt lat="41.21314" lon="20.66113">
        <ele>738.010321</ele>
        <time>2022-04-27T12:43:10.737Z</time>
      </trkpt>
      <trkpt lat="41.21304" lon="20.66123">
        <ele>738.047947</ele>
        <time>2022-04-27T12:43:12.737Z</time>
      </trkpt>
      <trkpt lat="41.21294" lon="20.66134">
        <ele>738.024982</ele>
        <time>2022-04-27T12:43:14.731Z</time>
      </trkpt>
      <trkpt lat="41.21284" lon="20.66145">
        <ele>737.978117</ele>
        <time>2022-04-27T12:43:16.743Z</time>
      </trkpt>
      <trkpt lat="41.21273" lon="20.66155">
        <ele>737.931251</ele>
        <time>2022-04-27T12:43:18.734Z</time>
      </trkpt>
      <trkpt lat="41.21263" lon="20.66166">
        <ele>737.883982</ele>
        <time>2022-04-27T12:43:20.730Z</time>
      </trkpt>
      <trkpt lat="41.21253" lon="20.66176">
        <ele>737.837781</ele>
        <time>2022-04-27T12:43:22.733Z</time>
      </trkpt>
      <trkpt lat="41.21243" lon="20.66186">
        <ele>737.793385</ele>
        <time>2022-04-27T12:43:24.734Z</time>
      </trkpt>
      <trkpt lat="41.21232" lon="20.66196">
        <ele>737.746478</ele>
        <time>2022-04-27T12:43:26.741Z</time>
      </trkpt>
      <trkpt lat="41.21222" lon="20.66207">
        <ele>737.698922</ele>
        <time>2022-04-27T12:43:28.727Z</time>
      </trkpt>
      <trkpt lat="41.21211" lon="20.66217">
        <ele>737.651564</ele>
        <time>2022-04-27T12:43:30.736Z</time>
      </trkpt>
      <trkpt lat="41.21201" lon="20.66227">
        <ele>737.605289</ele>
        <time>2022-04-27T12:43:32.744Z</time>
      </trkpt>
      <trkpt lat="41.21191" lon="20.66237">
        <ele>737.559603</ele>
        <time>2022-04-27T12:43:34.732Z</time>
      </trkpt>
      <trkpt lat="41.2118" lon="20.66247">
        <ele>737.512535</ele>
        <time>2022-04-27T12:43:36.731Z</time>
      </trkpt>
      <trkpt lat="41.2117" lon="20.66257">
        <ele>737.465306</ele>
        <time>2022-04-27T12:43:38.732Z</time>
      </trkpt>
      <trkpt lat="41.21159" lon="20.66268">
        <ele>737.417462</ele>
        <time>2022-04-27T12:43:40.730Z</time>
      </trkpt>
      <trkpt lat="41.21149" lon="20.66278">
        <ele>737.252748</ele>
        <time>2022-04-27T12:43:42.727Z</time>
      </trkpt>
      <trkpt lat="41.21139" lon="20.66288">
        <ele>737.067157</ele>
        <time>2022-04-27T12:43:44.755Z</time>
      </trkpt>
      <trkpt lat="41.21129" lon="20.66298">
        <ele>736.879684</ele>
        <time>2022-04-27T12:43:46.734Z</time>
      </trkpt>
      <trkpt lat="41.21121" lon="20.66307">
        <ele>736.716755</ele>
        <time>2022-04-27T12:43:48.731Z</time>
      </trkpt>
      <trkpt lat="41.21112" lon="20.66316">
        <ele>736.547239</ele>
        <time>2022-04-27T12:43:51.736Z</time>
      </trkpt>
      <trkpt lat="41.21103" lon="20.66325">
        <ele>736.382429</ele>
        <time>2022-04-27T12:43:54.747Z</time>
      </trkpt>
      <trkpt lat="41.21093" lon="20.66335">
        <ele>736.190515</ele>
        <time>2022-04-27T12:43:57.729Z</time>
      </trkpt>
      <trkpt lat="41.21086" lon="20.66343">
        <ele>736.051099</ele>
        <time>2022-04-27T12:43:59.729Z</time>
      </trkpt>
      <trkpt lat="41.21078" lon="20.66351">
        <ele>735.908125</ele>
        <time>2022-04-27T12:44:01.756Z</time>
      </trkpt>
      <trkpt lat="41.21071" lon="20.66359">
        <ele>735.761878</ele>
        <time>2022-04-27T12:44:03.738Z</time>
      </trkpt>
      <trkpt lat="41.21063" lon="20.66367">
        <ele>735.618699</ele>
        <time>2022-04-27T12:44:05.732Z</time>
      </trkpt>
      <trkpt lat="41.21056" lon="20.66374">
        <ele>735.478784</ele>
        <time>2022-04-27T12:44:07.754Z</time>
      </trkpt>
      <trkpt lat="41.21048" lon="20.66381">
        <ele>735.342781</ele>
        <time>2022-04-27T12:44:09.732Z</time>
      </trkpt>
      <trkpt lat="41.21041" lon="20.66388">
        <ele>735.202522</ele>
        <time>2022-04-27T12:44:11.731Z</time>
      </trkpt>
      <trkpt lat="41.21033" lon="20.66396">
        <ele>735.054016</ele>
        <time>2022-04-27T12:44:13.753Z</time>
      </trkpt>
      <trkpt lat="41.21025" lon="20.66404">
        <ele>734.910487</ele>
        <time>2022-04-27T12:44:15.727Z</time>
      </trkpt>
      <trkpt lat="41.21018" lon="20.66411">
        <ele>734.771255</ele>
        <time>2022-04-27T12:44:17.737Z</time>
      </trkpt>
      <trkpt lat="41.21008" lon="20.6642">
        <ele>734.684353</ele>
        <time>2022-04-27T12:44:20.741Z</time>
      </trkpt>
      <trkpt lat="41.20998" lon="20.66431">
        <ele>734.648288</ele>
        <time>2022-04-27T12:44:23.731Z</time>
      </trkpt>
      <trkpt lat="41.20991" lon="20.66438">
        <ele>734.62123</ele>
        <time>2022-04-27T12:44:25.733Z</time>
      </trkpt>
      <trkpt lat="41.20984" lon="20.66445">
        <ele>734.595317</ele>
        <time>2022-04-27T12:44:27.731Z</time>
      </trkpt>
      <trkpt lat="41.20977" lon="20.66453">
        <ele>734.569358</ele>
        <time>2022-04-27T12:44:29.728Z</time>
      </trkpt>
      <trkpt lat="41.20969" lon="20.66461">
        <ele>734.542952</ele>
        <time>2022-04-27T12:44:31.741Z</time>
      </trkpt>
      <trkpt lat="41.20962" lon="20.66468">
        <ele>734.515734</ele>
        <time>2022-04-27T12:44:33.742Z</time>
      </trkpt>
      <trkpt lat="41.20954" lon="20.66477">
        <ele>734.485543</ele>
        <time>2022-04-27T12:44:35.750Z</time>
      </trkpt>
      <trkpt lat="41.20945" lon="20.66486">
        <ele>734.454642</ele>
        <time>2022-04-27T12:44:37.734Z</time>
      </trkpt>
      <trkpt lat="41.20937" lon="20.66495">
        <ele>734.425038</ele>
        <time>2022-04-27T12:44:39.731Z</time>
      </trkpt>
      <trkpt lat="41.20929" lon="20.66502">
        <ele>734.396796</ele>
        <time>2022-04-27T12:44:41.729Z</time>
      </trkpt>
      <trkpt lat="41.20921" lon="20.6651">
        <ele>734.368403</ele>
        <time>2022-04-27T12:44:43.733Z</time>
      </trkpt>
      <trkpt lat="41.20914" lon="20.66518">
        <ele>734.339615</ele>
        <time>2022-04-27T12:44:45.729Z</time>
      </trkpt>
      <trkpt lat="41.20906" lon="20.66526">
        <ele>734.31213</ele>
        <time>2022-04-27T12:44:47.734Z</time>
      </trkpt>
      <trkpt lat="41.20898" lon="20.66534">
        <ele>734.283737</ele>
        <time>2022-04-27T12:44:49.752Z</time>
      </trkpt>
      <trkpt lat="41.2089" lon="20.66542">
        <ele>734.25423</ele>
        <time>2022-04-27T12:44:51.734Z</time>
      </trkpt>
      <trkpt lat="41.20882" lon="20.66551">
        <ele>734.225123</ele>
        <time>2022-04-27T12:44:53.729Z</time>
      </trkpt>
      <trkpt lat="41.20874" lon="20.6656">
        <ele>734.19552</ele>
        <time>2022-04-27T12:44:55.727Z</time>
      </trkpt>
      <trkpt lat="41.20867" lon="20.66569">
        <ele>734.165183</ele>
        <time>2022-04-27T12:44:57.727Z</time>
      </trkpt>
      <trkpt lat="41.20858" lon="20.66578">
        <ele>734.132012</ele>
        <time>2022-04-27T12:44:59.734Z</time>
      </trkpt>
      <trkpt lat="41.20849" lon="20.66588">
        <ele>734.097765</ele>
        <time>2022-04-27T12:45:01.744Z</time>
      </trkpt>
      <trkpt lat="41.20841" lon="20.66597">
        <ele>734.063839</ele>
        <time>2022-04-27T12:45:03.732Z</time>
      </trkpt>
      <trkpt lat="41.20833" lon="20.66607">
        <ele>734.031571</ele>
        <time>2022-04-27T12:45:05.738Z</time>
      </trkpt>
      <trkpt lat="41.20825" lon="20.66616">
        <ele>733.999834</ele>
        <time>2022-04-27T12:45:07.728Z</time>
      </trkpt>
      <trkpt lat="41.20817" lon="20.66626">
        <ele>733.966893</ele>
        <time>2022-04-27T12:45:09.727Z</time>
      </trkpt>
      <trkpt lat="41.20809" lon="20.66635">
        <ele>733.934033</ele>
        <time>2022-04-27T12:45:11.734Z</time>
      </trkpt>
      <trkpt lat="41.20801" lon="20.66644">
        <ele>733.901908</ele>
        <time>2022-04-27T12:45:13.757Z</time>
      </trkpt>
      <trkpt lat="41.20793" lon="20.66654">
        <ele>733.870701</ele>
        <time>2022-04-27T12:45:15.744Z</time>
      </trkpt>
      <trkpt lat="41.20786" lon="20.66664">
        <ele>733.838822</ele>
        <time>2022-04-27T12:45:17.742Z</time>
      </trkpt>
      <trkpt lat="41.20778" lon="20.66674">
        <ele>733.806868</ele>
        <time>2022-04-27T12:45:19.754Z</time>
      </trkpt>
      <trkpt lat="41.20772" lon="20.66684">
        <ele>733.775353</ele>
        <time>2022-04-27T12:45:21.746Z</time>
      </trkpt>
      <trkpt lat="41.20765" lon="20.66695">
        <ele>733.743668</ele>
        <time>2022-04-27T12:45:23.733Z</time>
      </trkpt>
      <trkpt lat="41.20758" lon="20.66705">
        <ele>733.712396</ele>
        <time>2022-04-27T12:45:25.748Z</time>
      </trkpt>
      <trkpt lat="41.20751" lon="20.66716">
        <ele>733.680367</ele>
        <time>2022-04-27T12:45:27.742Z</time>
      </trkpt>
      <trkpt lat="41.20743" lon="20.66727">
        <ele>733.646052</ele>
        <time>2022-04-27T12:45:29.733Z</time>
      </trkpt>
      <trkpt lat="41.20736" lon="20.66738">
        <ele>733.557668</ele>
        <time>2022-04-27T12:45:31.753Z</time>
      </trkpt>
      <trkpt lat="41.20729" lon="20.66748">
        <ele>733.473875</ele>
        <time>2022-04-27T12:45:33.733Z</time>
      </trkpt>
      <trkpt lat="41.20723" lon="20.66759">
        <ele>733.387939</ele>
        <time>2022-04-27T12:45:35.733Z</time>
      </trkpt>
      <trkpt lat="41.20716" lon="20.66771">
        <ele>733.29763</ele>
        <time>2022-04-27T12:45:37.727Z</time>
      </trkpt>
      <trkpt lat="41.2071" lon="20.66783">
        <ele>733.206785</ele>
        <time>2022-04-27T12:45:39.728Z</time>
      </trkpt>
      <trkpt lat="41.20703" lon="20.66795">
        <ele>733.112951</ele>
        <time>2022-04-27T12:45:41.732Z</time>
      </trkpt>
      <trkpt lat="41.20697" lon="20.66808">
        <ele>733.019577</ele>
        <time>2022-04-27T12:45:43.737Z</time>
      </trkpt>
      <trkpt lat="41.2069" lon="20.6682">
        <ele>732.926249</ele>
        <time>2022-04-27T12:45:45.732Z</time>
      </trkpt>
      <trkpt lat="41.20684" lon="20.66833">
        <ele>732.834431</ele>
        <time>2022-04-27T12:45:47.729Z</time>
      </trkpt>
      <trkpt lat="41.20677" lon="20.66845">
        <ele>732.74304</ele>
        <time>2022-04-27T12:45:49.739Z</time>
      </trkpt>
      <trkpt lat="41.20671" lon="20.66857">
        <ele>732.653695</ele>
        <time>2022-04-27T12:45:51.728Z</time>
      </trkpt>
      <trkpt lat="41.20665" lon="20.66869">
        <ele>732.563282</ele>
        <time>2022-04-27T12:45:53.729Z</time>
      </trkpt>
      <trkpt lat="41.20659" lon="20.66881">
        <ele>732.473911</ele>
        <time>2022-04-27T12:45:55.730Z</time>
      </trkpt>
      <trkpt lat="41.20653" lon="20.66893">
        <ele>732.385007</ele>
        <time>2022-04-27T12:45:57.730Z</time>
      </trkpt>
      <trkpt lat="41.20646" lon="20.66905">
        <ele>732.294686</ele>
        <time>2022-04-27T12:45:59.758Z</time>
      </trkpt>
      <trkpt lat="41.20639" lon="20.66917">
        <ele>732.197919</ele>
        <time>2022-04-27T12:46:01.737Z</time>
      </trkpt>
      <trkpt lat="41.20632" lon="20.6693">
        <ele>732.137577</ele>
        <time>2022-04-27T12:46:03.730Z</time>
      </trkpt>
      <trkpt lat="41.20625" lon="20.66942">
        <ele>732.088024</ele>
        <time>2022-04-27T12:46:05.756Z</time>
      </trkpt>
      <trkpt lat="41.20618" lon="20.66954">
        <ele>732.037962</ele>
        <time>2022-04-27T12:46:07.737Z</time>
      </trkpt>
      <trkpt lat="41.20612" lon="20.66966">
        <ele>731.991524</ele>
        <time>2022-04-27T12:46:09.742Z</time>
      </trkpt>
      <trkpt lat="41.20606" lon="20.66977">
        <ele>731.948144</ele>
        <time>2022-04-27T12:46:11.731Z</time>
      </trkpt>
      <trkpt lat="41.206" lon="20.66988">
        <ele>731.90378</ele>
        <time>2022-04-27T12:46:13.734Z</time>
      </trkpt>
      <trkpt lat="41.20594" lon="20.66999">
        <ele>731.859162</ele>
        <time>2022-04-27T12:46:15.731Z</time>
      </trkpt>
      <trkpt lat="41.20588" lon="20.67011">
        <ele>731.814516</ele>
        <time>2022-04-27T12:46:17.735Z</time>
      </trkpt>
      <trkpt lat="41.20582" lon="20.67021">
        <ele>731.771446</ele>
        <time>2022-04-27T12:46:19.747Z</time>
      </trkpt>
      <trkpt lat="41.20576" lon="20.67033">
        <ele>731.725773</ele>
        <time>2022-04-27T12:46:21.744Z</time>
      </trkpt>
      <trkpt lat="41.2057" lon="20.67045">
        <ele>731.678557</ele>
        <time>2022-04-27T12:46:23.733Z</time>
      </trkpt>
      <trkpt lat="41.20563" lon="20.67057">
        <ele>731.631326</ele>
        <time>2022-04-27T12:46:25.742Z</time>
      </trkpt>
      <trkpt lat="41.20557" lon="20.67068">
        <ele>731.58334</ele>
        <time>2022-04-27T12:46:27.753Z</time>
      </trkpt>
      <trkpt lat="41.2055" lon="20.6708">
        <ele>731.534058</ele>
        <time>2022-04-27T12:46:29.744Z</time>
      </trkpt>
      <trkpt lat="41.20543" lon="20.67092">
        <ele>731.486591</ele>
        <time>2022-04-27T12:46:31.737Z</time>
      </trkpt>
      <trkpt lat="41.20537" lon="20.67104">
        <ele>731.440669</ele>
        <time>2022-04-27T12:46:33.729Z</time>
      </trkpt>
      <trkpt lat="41.20532" lon="20.67114">
        <ele>731.404594</ele>
        <time>2022-04-27T12:46:35.737Z</time>
      </trkpt>
      <trkpt lat="41.20526" lon="20.67125">
        <ele>731.479992</ele>
        <time>2022-04-27T12:46:37.734Z</time>
      </trkpt>
      <trkpt lat="41.2052" lon="20.67135">
        <ele>731.555389</ele>
        <time>2022-04-27T12:46:39.746Z</time>
      </trkpt>
      <trkpt lat="41.20515" lon="20.67145">
        <ele>731.630803</ele>
        <time>2022-04-27T12:46:41.729Z</time>
      </trkpt>
      <trkpt lat="41.20509" lon="20.67156">
        <ele>731.709529</ele>
        <time>2022-04-27T12:46:43.741Z</time>
      </trkpt>
      <trkpt lat="41.20503" lon="20.67167">
        <ele>731.790577</ele>
        <time>2022-04-27T12:46:45.732Z</time>
      </trkpt>
      <trkpt lat="41.20496" lon="20.67178">
        <ele>731.871711</ele>
        <time>2022-04-27T12:46:47.727Z</time>
      </trkpt>
      <trkpt lat="41.20489" lon="20.67188">
        <ele>731.952449</ele>
        <time>2022-04-27T12:46:49.753Z</time>
      </trkpt>
      <trkpt lat="41.20483" lon="20.67199">
        <ele>732.035102</ele>
        <time>2022-04-27T12:46:51.731Z</time>
      </trkpt>
      <trkpt lat="41.20475" lon="20.67209">
        <ele>732.117534</ele>
        <time>2022-04-27T12:46:53.738Z</time>
      </trkpt>
      <trkpt lat="41.20467" lon="20.67216">
        <ele>732.196566</ele>
        <time>2022-04-27T12:46:55.729Z</time>
      </trkpt>
      <trkpt lat="41.20458" lon="20.67224">
        <ele>732.276862</ele>
        <time>2022-04-27T12:46:57.735Z</time>
      </trkpt>
      <trkpt lat="41.20449" lon="20.6723">
        <ele>732.358397</ele>
        <time>2022-04-27T12:46:59.742Z</time>
      </trkpt>
      <trkpt lat="41.2044" lon="20.67236">
        <ele>732.439623</ele>
        <time>2022-04-27T12:47:01.729Z</time>
      </trkpt>
      <trkpt lat="41.2043" lon="20.67241">
        <ele>732.521897</ele>
        <time>2022-04-27T12:47:03.733Z</time>
      </trkpt>
      <trkpt lat="41.2042" lon="20.67246">
        <ele>732.606371</ele>
        <time>2022-04-27T12:47:05.730Z</time>
      </trkpt>
      <trkpt lat="41.2041" lon="20.6725">
        <ele>732.6873</ele>
        <time>2022-04-27T12:47:07.732Z</time>
      </trkpt>
      <trkpt lat="41.204" lon="20.67253">
        <ele>732.766756</ele>
        <time>2022-04-27T12:47:09.729Z</time>
      </trkpt>
      <trkpt lat="41.2039" lon="20.67255">
        <ele>732.779975</ele>
        <time>2022-04-27T12:47:11.728Z</time>
      </trkpt>
      <trkpt lat="41.2038" lon="20.67257">
        <ele>732.712824</ele>
        <time>2022-04-27T12:47:13.737Z</time>
      </trkpt>
      <trkpt lat="41.20371" lon="20.67259">
        <ele>732.647881</ele>
        <time>2022-04-27T12:47:15.733Z</time>
      </trkpt>
      <trkpt lat="41.20362" lon="20.67261">
        <ele>732.580812</ele>
        <time>2022-04-27T12:47:17.757Z</time>
      </trkpt>
      <trkpt lat="41.20352" lon="20.67263">
        <ele>732.511014</ele>
        <time>2022-04-27T12:47:19.731Z</time>
      </trkpt>
      <trkpt lat="41.20342" lon="20.67265">
        <ele>732.443945</ele>
        <time>2022-04-27T12:47:21.741Z</time>
      </trkpt>
      <trkpt lat="41.20332" lon="20.67267">
        <ele>732.376543</ele>
        <time>2022-04-27T12:47:23.751Z</time>
      </trkpt>
      <trkpt lat="41.20323" lon="20.67268">
        <ele>732.311066</ele>
        <time>2022-04-27T12:47:25.728Z</time>
      </trkpt>
      <trkpt lat="41.20313" lon="20.6727">
        <ele>732.241951</ele>
        <time>2022-04-27T12:47:27.732Z</time>
      </trkpt>
      <trkpt lat="41.20303" lon="20.67273">
        <ele>732.169863</ele>
        <time>2022-04-27T12:47:29.759Z</time>
      </trkpt>
      <trkpt lat="41.20293" lon="20.67275">
        <ele>732.099222</ele>
        <time>2022-04-27T12:47:31.732Z</time>
      </trkpt>
      <trkpt lat="41.20282" lon="20.67277">
        <ele>732.02553</ele>
        <time>2022-04-27T12:47:33.735Z</time>
      </trkpt>
      <trkpt lat="41.20271" lon="20.67279">
        <ele>731.950951</ele>
        <time>2022-04-27T12:47:35.764Z</time>
      </trkpt>
      <trkpt lat="41.20261" lon="20.6728">
        <ele>731.877943</ele>
        <time>2022-04-27T12:47:37.738Z</time>
      </trkpt>
      <trkpt lat="41.2025" lon="20.67282">
        <ele>731.806306</ele>
        <time>2022-04-27T12:47:39.737Z</time>
      </trkpt>
      <trkpt lat="41.2024" lon="20.67284">
        <ele>731.735143</ele>
        <time>2022-04-27T12:47:41.740Z</time>
      </trkpt>
      <trkpt lat="41.20231" lon="20.67287">
        <ele>731.667416</ele>
        <time>2022-04-27T12:47:43.737Z</time>
      </trkpt>
      <trkpt lat="41.20218" lon="20.67291">
        <ele>731.577611</ele>
        <time>2022-04-27T12:47:46.752Z</time>
      </trkpt>
      <trkpt lat="41.20206" lon="20.67298">
        <ele>731.422416</ele>
        <time>2022-04-27T12:47:49.732Z</time>
      </trkpt>
      <trkpt lat="41.20197" lon="20.67303">
        <ele>731.309553</ele>
        <time>2022-04-27T12:47:51.729Z</time>
      </trkpt>
      <trkpt lat="41.20188" lon="20.67308">
        <ele>731.190381</ele>
        <time>2022-04-27T12:47:53.740Z</time>
      </trkpt>
      <trkpt lat="41.20179" lon="20.67313">
        <ele>731.070864</ele>
        <time>2022-04-27T12:47:55.728Z</time>
      </trkpt>
      <trkpt lat="41.2017" lon="20.67318">
        <ele>730.945092</ele>
        <time>2022-04-27T12:47:57.751Z</time>
      </trkpt>
      <trkpt lat="41.2016" lon="20.67324">
        <ele>730.817843</ele>
        <time>2022-04-27T12:47:59.738Z</time>
      </trkpt>
      <trkpt lat="41.2015" lon="20.6733">
        <ele>730.689849</ele>
        <time>2022-04-27T12:48:01.733Z</time>
      </trkpt>
      <trkpt lat="41.20141" lon="20.67335">
        <ele>730.562204</ele>
        <time>2022-04-27T12:48:03.753Z</time>
      </trkpt>
      <trkpt lat="41.20131" lon="20.6734">
        <ele>730.434909</ele>
        <time>2022-04-27T12:48:05.733Z</time>
      </trkpt>
      <trkpt lat="41.20121" lon="20.67346">
        <ele>730.305704</ele>
        <time>2022-04-27T12:48:07.727Z</time>
      </trkpt>
      <trkpt lat="41.20111" lon="20.67351">
        <ele>730.17244</ele>
        <time>2022-04-27T12:48:09.732Z</time>
      </trkpt>
      <trkpt lat="41.20101" lon="20.67356">
        <ele>730.045145</ele>
        <time>2022-04-27T12:48:11.732Z</time>
      </trkpt>
      <trkpt lat="41.20091" lon="20.67361">
        <ele>729.918195</ele>
        <time>2022-04-27T12:48:13.730Z</time>
      </trkpt>
      <trkpt lat="41.20082" lon="20.67367">
        <ele>729.789429</ele>
        <time>2022-04-27T12:48:15.767Z</time>
      </trkpt>
      <trkpt lat="41.20072" lon="20.67372">
        <ele>729.661688</ele>
        <time>2022-04-27T12:48:17.737Z</time>
      </trkpt>
      <trkpt lat="41.20062" lon="20.67377">
        <ele>729.536985</ele>
        <time>2022-04-27T12:48:19.727Z</time>
      </trkpt>
      <trkpt lat="41.20052" lon="20.67382">
        <ele>729.409131</ele>
        <time>2022-04-27T12:48:21.738Z</time>
      </trkpt>
      <trkpt lat="41.20042" lon="20.67387">
        <ele>729.585079</ele>
        <time>2022-04-27T12:48:23.736Z</time>
      </trkpt>
      <trkpt lat="41.20033" lon="20.67392">
        <ele>729.825145</ele>
        <time>2022-04-27T12:48:25.741Z</time>
      </trkpt>
      <trkpt lat="41.20023" lon="20.67398">
        <ele>730.058346</ele>
        <time>2022-04-27T12:48:27.731Z</time>
      </trkpt>
      <trkpt lat="41.20013" lon="20.67403">
        <ele>730.291548</ele>
        <time>2022-04-27T12:48:29.734Z</time>
      </trkpt>
      <trkpt lat="41.20004" lon="20.67409">
        <ele>730.523332</ele>
        <time>2022-04-27T12:48:31.731Z</time>
      </trkpt>
      <trkpt lat="41.19995" lon="20.67415">
        <ele>730.755823</ele>
        <time>2022-04-27T12:48:33.730Z</time>
      </trkpt>
      <trkpt lat="41.19985" lon="20.6742">
        <ele>730.98628</ele>
        <time>2022-04-27T12:48:35.729Z</time>
      </trkpt>
      <trkpt lat="41.19976" lon="20.67426">
        <ele>731.213282</ele>
        <time>2022-04-27T12:48:37.756Z</time>
      </trkpt>
      <trkpt lat="41.19967" lon="20.67431">
        <ele>731.440953</ele>
        <time>2022-04-27T12:48:39.728Z</time>
      </trkpt>
      <trkpt lat="41.19958" lon="20.67436">
        <ele>731.659051</ele>
        <time>2022-04-27T12:48:41.726Z</time>
      </trkpt>
      <trkpt lat="41.19949" lon="20.67441">
        <ele>731.878537</ele>
        <time>2022-04-27T12:48:43.739Z</time>
      </trkpt>
      <trkpt lat="41.1994" lon="20.67446">
        <ele>732.099438</ele>
        <time>2022-04-27T12:48:45.727Z</time>
      </trkpt>
      <trkpt lat="41.1993" lon="20.67451">
        <ele>732.335538</ele>
        <time>2022-04-27T12:48:47.728Z</time>
      </trkpt>
      <trkpt lat="41.1992" lon="20.67457">
        <ele>732.580015</ele>
        <time>2022-04-27T12:48:49.736Z</time>
      </trkpt>
      <trkpt lat="41.1991" lon="20.67461">
        <ele>732.817006</ele>
        <time>2022-04-27T12:48:51.733Z</time>
      </trkpt>
      <trkpt lat="41.19901" lon="20.67466">
        <ele>733.027054</ele>
        <time>2022-04-27T12:48:53.737Z</time>
      </trkpt>
      <trkpt lat="41.1989" lon="20.67472">
        <ele>733.298487</ele>
        <time>2022-04-27T12:48:56.742Z</time>
      </trkpt>
      <trkpt lat="41.19879" lon="20.67478">
        <ele>733.499298</ele>
        <time>2022-04-27T12:48:59.756Z</time>
      </trkpt>
      <trkpt lat="41.19868" lon="20.67483">
        <ele>733.641125</ele>
        <time>2022-04-27T12:49:03.728Z</time>
      </trkpt>
      <trkpt lat="41.19859" lon="20.67488">
        <ele>733.763428</ele>
        <time>2022-04-27T12:49:06.728Z</time>
      </trkpt>
      <trkpt lat="41.19849" lon="20.67493">
        <ele>733.895643</ele>
        <time>2022-04-27T12:49:09.737Z</time>
      </trkpt>
      <trkpt lat="41.1984" lon="20.67499">
        <ele>734.024363</ele>
        <time>2022-04-27T12:49:12.730Z</time>
      </trkpt>
      <trkpt lat="41.1983" lon="20.67505">
        <ele>734.161391</ele>
        <time>2022-04-27T12:49:15.733Z</time>
      </trkpt>
      <trkpt lat="41.1982" lon="20.67511">
        <ele>734.300699</ele>
        <time>2022-04-27T12:49:18.738Z</time>
      </trkpt>
      <trkpt lat="41.19808" lon="20.67519">
        <ele>734.462037</ele>
        <time>2022-04-27T12:49:21.737Z</time>
      </trkpt>
      <trkpt lat="41.19799" lon="20.67525">
        <ele>734.581834</ele>
        <time>2022-04-27T12:49:23.761Z</time>
      </trkpt>
      <trkpt lat="41.19791" lon="20.67532">
        <ele>734.705452</ele>
        <time>2022-04-27T12:49:25.733Z</time>
      </trkpt>
      <trkpt lat="41.19781" lon="20.67543">
        <ele>734.862442</ele>
        <time>2022-04-27T12:49:28.732Z</time>
      </trkpt>
      <trkpt lat="41.19771" lon="20.67552">
        <ele>735.009375</ele>
        <time>2022-04-27T12:49:31.732Z</time>
      </trkpt>
      <trkpt lat="41.19762" lon="20.6756">
        <ele>735.149705</ele>
        <time>2022-04-27T12:49:34.760Z</time>
      </trkpt>
      <trkpt lat="41.19753" lon="20.6757">
        <ele>735.290323</ele>
        <time>2022-04-27T12:49:37.728Z</time>
      </trkpt>
      <trkpt lat="41.19743" lon="20.67578">
        <ele>735.443024</ele>
        <time>2022-04-27T12:49:40.735Z</time>
      </trkpt>
      <trkpt lat="41.19731" lon="20.67588">
        <ele>735.611655</ele>
        <time>2022-04-27T12:49:43.730Z</time>
      </trkpt>
      <trkpt lat="41.19725" lon="20.67597">
        <ele>735.539893</ele>
        <time>2022-04-27T12:49:45.729Z</time>
      </trkpt>
      <trkpt lat="41.19719" lon="20.67606">
        <ele>735.360292</ele>
        <time>2022-04-27T12:49:47.737Z</time>
      </trkpt>
      <trkpt lat="41.19712" lon="20.67614">
        <ele>735.177831</ele>
        <time>2022-04-27T12:49:49.733Z</time>
      </trkpt>
      <trkpt lat="41.19701" lon="20.67625">
        <ele>734.912473</ele>
        <time>2022-04-27T12:49:52.755Z</time>
      </trkpt>
      <trkpt lat="41.19689" lon="20.67633">
        <ele>734.653041</ele>
        <time>2022-04-27T12:49:55.735Z</time>
      </trkpt>
      <trkpt lat="41.19681" lon="20.67638">
        <ele>734.474984</ele>
        <time>2022-04-27T12:49:57.738Z</time>
      </trkpt>
      <trkpt lat="41.19672" lon="20.67643">
        <ele>734.290126</ele>
        <time>2022-04-27T12:49:59.731Z</time>
      </trkpt>
      <trkpt lat="41.19663" lon="20.67646">
        <ele>734.106279</ele>
        <time>2022-04-27T12:50:01.732Z</time>
      </trkpt>
      <trkpt lat="41.19654" lon="20.67649">
        <ele>733.924365</ele>
        <time>2022-04-27T12:50:03.738Z</time>
      </trkpt>
      <trkpt lat="41.19645" lon="20.67652">
        <ele>733.743796</ele>
        <time>2022-04-27T12:50:05.733Z</time>
      </trkpt>
      <trkpt lat="41.19636" lon="20.67654">
        <ele>733.55667</ele>
        <time>2022-04-27T12:50:07.727Z</time>
      </trkpt>
      <trkpt lat="41.19627" lon="20.67655">
        <ele>733.379018</ele>
        <time>2022-04-27T12:50:09.726Z</time>
      </trkpt>
      <trkpt lat="41.19618" lon="20.67657">
        <ele>733.199242</ele>
        <time>2022-04-27T12:50:11.734Z</time>
      </trkpt>
      <trkpt lat="41.19604" lon="20.67658">
        <ele>732.937986</ele>
        <time>2022-04-27T12:50:14.737Z</time>
      </trkpt>
      <trkpt lat="41.19591" lon="20.6766">
        <ele>732.681737</ele>
        <time>2022-04-27T12:50:17.734Z</time>
      </trkpt>
      <trkpt lat="41.19579" lon="20.67661">
        <ele>732.432395</ele>
        <time>2022-04-27T12:50:20.737Z</time>
      </trkpt>
      <trkpt lat="41.1957" lon="20.67661">
        <ele>732.255725</ele>
        <time>2022-04-27T12:50:22.737Z</time>
      </trkpt>
      <trkpt lat="41.19556" lon="20.67663">
        <ele>732.198954</ele>
        <time>2022-04-27T12:50:25.728Z</time>
      </trkpt>
      <trkpt lat="41.19543" lon="20.67664">
        <ele>732.330497</ele>
        <time>2022-04-27T12:50:28.733Z</time>
      </trkpt>
      <trkpt lat="41.19533" lon="20.67666">
        <ele>732.426367</ele>
        <time>2022-04-27T12:50:30.764Z</time>
      </trkpt>
      <trkpt lat="41.19523" lon="20.67667">
        <ele>732.523202</ele>
        <time>2022-04-27T12:50:32.736Z</time>
      </trkpt>
      <trkpt lat="41.19513" lon="20.67669">
        <ele>732.62085</ele>
        <time>2022-04-27T12:50:34.738Z</time>
      </trkpt>
      <trkpt lat="41.19503" lon="20.6767">
        <ele>732.719538</ele>
        <time>2022-04-27T12:50:36.735Z</time>
      </trkpt>
      <trkpt lat="41.19493" lon="20.67671">
        <ele>732.813247</ele>
        <time>2022-04-27T12:50:38.765Z</time>
      </trkpt>
      <trkpt lat="41.19483" lon="20.67672">
        <ele>732.907923</ele>
        <time>2022-04-27T12:50:40.743Z</time>
      </trkpt>
      <trkpt lat="41.19473" lon="20.67673">
        <ele>733.006299</ele>
        <time>2022-04-27T12:50:42.732Z</time>
      </trkpt>
      <trkpt lat="41.19463" lon="20.67674">
        <ele>733.103815</ele>
        <time>2022-04-27T12:50:44.732Z</time>
      </trkpt>
      <trkpt lat="41.19454" lon="20.67676">
        <ele>733.198492</ele>
        <time>2022-04-27T12:50:46.759Z</time>
      </trkpt>
      <trkpt lat="41.19444" lon="20.67677">
        <ele>733.294071</ele>
        <time>2022-04-27T12:50:48.742Z</time>
      </trkpt>
      <trkpt lat="41.19434" lon="20.67678">
        <ele>733.389941</ele>
        <time>2022-04-27T12:50:50.735Z</time>
      </trkpt>
      <trkpt lat="41.19424" lon="20.67679">
        <ele>733.484688</ele>
        <time>2022-04-27T12:50:52.764Z</time>
      </trkpt>
      <trkpt lat="41.19414" lon="20.67681">
        <ele>733.581236</ele>
        <time>2022-04-27T12:50:54.730Z</time>
      </trkpt>
      <trkpt lat="41.19405" lon="20.67682">
        <ele>733.677916</ele>
        <time>2022-04-27T12:50:56.731Z</time>
      </trkpt>
      <trkpt lat="41.19395" lon="20.67683">
        <ele>733.772527</ele>
        <time>2022-04-27T12:50:58.739Z</time>
      </trkpt>
      <trkpt lat="41.19386" lon="20.67684">
        <ele>733.861267</ele>
        <time>2022-04-27T12:51:00.733Z</time>
      </trkpt>
      <trkpt lat="41.19372" lon="20.67685">
        <ele>733.963848</ele>
        <time>2022-04-27T12:51:03.756Z</time>
      </trkpt>
      <trkpt lat="41.19359" lon="20.67685">
        <ele>734.063315</ele>
        <time>2022-04-27T12:51:06.734Z</time>
      </trkpt>
      <trkpt lat="41.1935" lon="20.67685">
        <ele>734.131828</ele>
        <time>2022-04-27T12:51:08.727Z</time>
      </trkpt>
      <trkpt lat="41.1934" lon="20.67684">
        <ele>734.201156</ele>
        <time>2022-04-27T12:51:10.733Z</time>
      </trkpt>
      <trkpt lat="41.19331" lon="20.67683">
        <ele>734.270585</ele>
        <time>2022-04-27T12:51:12.733Z</time>
      </trkpt>
      <trkpt lat="41.19322" lon="20.67682">
        <ele>734.337167</ele>
        <time>2022-04-27T12:51:14.735Z</time>
      </trkpt>
      <trkpt lat="41.19308" lon="20.67681">
        <ele>734.436233</ele>
        <time>2022-04-27T12:51:17.726Z</time>
      </trkpt>
      <trkpt lat="41.19295" lon="20.67679">
        <ele>734.533313</ele>
        <time>2022-04-27T12:51:20.732Z</time>
      </trkpt>
      <trkpt lat="41.19282" lon="20.67677">
        <ele>734.632714</ele>
        <time>2022-04-27T12:51:23.735Z</time>
      </trkpt>
      <trkpt lat="41.19273" lon="20.67675">
        <ele>734.700872</ele>
        <time>2022-04-27T12:51:25.732Z</time>
      </trkpt>
      <trkpt lat="41.19263" lon="20.67674">
        <ele>734.769225</ele>
        <time>2022-04-27T12:51:27.731Z</time>
      </trkpt>
      <trkpt lat="41.19254" lon="20.67672">
        <ele>734.836778</ele>
        <time>2022-04-27T12:51:29.734Z</time>
      </trkpt>
      <trkpt lat="41.19245" lon="20.67671">
        <ele>734.9036</ele>
        <time>2022-04-27T12:51:31.729Z</time>
      </trkpt>
      <trkpt lat="41.19236" lon="20.6767">
        <ele>734.971025</ele>
        <time>2022-04-27T12:51:33.735Z</time>
      </trkpt>
      <trkpt lat="41.19227" lon="20.67668">
        <ele>735.039859</ele>
        <time>2022-04-27T12:51:35.733Z</time>
      </trkpt>
      <trkpt lat="41.19218" lon="20.67667">
        <ele>735.107285</ele>
        <time>2022-04-27T12:51:37.729Z</time>
      </trkpt>
      <trkpt lat="41.19209" lon="20.67666">
        <ele>735.17404</ele>
        <time>2022-04-27T12:51:39.735Z</time>
      </trkpt>
      <trkpt lat="41.19196" lon="20.67664">
        <ele>735.161932</ele>
        <time>2022-04-27T12:51:42.740Z</time>
      </trkpt>
      <trkpt lat="41.19183" lon="20.67661">
        <ele>735.106418</ele>
        <time>2022-04-27T12:51:45.738Z</time>
      </trkpt>
      <trkpt lat="41.1917" lon="20.67659">
        <ele>735.051751</ele>
        <time>2022-04-27T12:51:48.737Z</time>
      </trkpt>
      <trkpt lat="41.19157" lon="20.67658">
        <ele>734.997195</ele>
        <time>2022-04-27T12:51:51.733Z</time>
      </trkpt>
      <trkpt lat="41.19144" lon="20.67656">
        <ele>734.940446</ele>
        <time>2022-04-27T12:51:54.729Z</time>
      </trkpt>
      <trkpt lat="41.19131" lon="20.67653">
        <ele>734.883659</ele>
        <time>2022-04-27T12:51:57.728Z</time>
      </trkpt>
      <trkpt lat="41.19118" lon="20.67651">
        <ele>734.82691</ele>
        <time>2022-04-27T12:52:00.742Z</time>
      </trkpt>
      <trkpt lat="41.19105" lon="20.67649">
        <ele>734.770547</ele>
        <time>2022-04-27T12:52:03.763Z</time>
      </trkpt>
      <trkpt lat="41.19091" lon="20.67647">
        <ele>734.713215</ele>
        <time>2022-04-27T12:52:06.751Z</time>
      </trkpt>
      <trkpt lat="41.19082" lon="20.67646">
        <ele>734.67366</ele>
        <time>2022-04-27T12:52:08.736Z</time>
      </trkpt>
      <trkpt lat="41.19073" lon="20.67644">
        <ele>734.63368</ele>
        <time>2022-04-27T12:52:10.748Z</time>
      </trkpt>
      <trkpt lat="41.19064" lon="20.67643">
        <ele>734.593736</ele>
        <time>2022-04-27T12:52:12.741Z</time>
      </trkpt>
      <trkpt lat="41.19055" lon="20.67641">
        <ele>734.55503</ele>
        <time>2022-04-27T12:52:14.763Z</time>
      </trkpt>
      <trkpt lat="41.19046" lon="20.6764">
        <ele>734.516667</ele>
        <time>2022-04-27T12:52:16.727Z</time>
      </trkpt>
      <trkpt lat="41.19032" lon="20.67638">
        <ele>734.459417</ele>
        <time>2022-04-27T12:52:19.739Z</time>
      </trkpt>
      <trkpt lat="41.19024" lon="20.67636">
        <ele>734.456375</ele>
        <time>2022-04-27T12:52:21.743Z</time>
      </trkpt>
      <trkpt lat="41.1901" lon="20.67634">
        <ele>734.556721</ele>
        <time>2022-04-27T12:52:24.736Z</time>
      </trkpt>
      <trkpt lat="41.18997" lon="20.67632">
        <ele>734.659961</ele>
        <time>2022-04-27T12:52:27.727Z</time>
      </trkpt>
      <trkpt lat="41.18987" lon="20.67631">
        <ele>734.73259</ele>
        <time>2022-04-27T12:52:29.727Z</time>
      </trkpt>
      <trkpt lat="41.18978" lon="20.67629">
        <ele>734.803834</ele>
        <time>2022-04-27T12:52:31.742Z</time>
      </trkpt>
      <trkpt lat="41.18968" lon="20.67628">
        <ele>734.87792</ele>
        <time>2022-04-27T12:52:33.734Z</time>
      </trkpt>
      <trkpt lat="41.18959" lon="20.67627">
        <ele>734.948168</ele>
        <time>2022-04-27T12:52:35.730Z</time>
      </trkpt>
      <trkpt lat="41.18946" lon="20.67625">
        <ele>735.048211</ele>
        <time>2022-04-27T12:52:38.745Z</time>
      </trkpt>
      <trkpt lat="41.18934" lon="20.67623">
        <ele>735.141615</ele>
        <time>2022-04-27T12:52:41.752Z</time>
      </trkpt>
      <trkpt lat="41.18921" lon="20.6762">
        <ele>735.243688</ele>
        <time>2022-04-27T12:52:44.739Z</time>
      </trkpt>
      <trkpt lat="41.18908" lon="20.67618">
        <ele>735.343581</ele>
        <time>2022-04-27T12:52:47.729Z</time>
      </trkpt>
      <trkpt lat="41.18895" lon="20.67615">
        <ele>735.442426</ele>
        <time>2022-04-27T12:52:50.746Z</time>
      </trkpt>
      <trkpt lat="41.18882" lon="20.67612">
        <ele>735.544578</ele>
        <time>2022-04-27T12:52:53.734Z</time>
      </trkpt>
      <trkpt lat="41.18872" lon="20.67611">
        <ele>735.615756</ele>
        <time>2022-04-27T12:52:55.733Z</time>
      </trkpt>
      <trkpt lat="41.18863" lon="20.6761">
        <ele>735.683731</ele>
        <time>2022-04-27T12:52:57.728Z</time>
      </trkpt>
      <trkpt lat="41.1885" lon="20.67607">
        <ele>735.785656</ele>
        <time>2022-04-27T12:53:00.733Z</time>
      </trkpt>
      <trkpt lat="41.18837" lon="20.67606">
        <ele>736.015762</ele>
        <time>2022-04-27T12:53:03.753Z</time>
      </trkpt>
      <trkpt lat="41.18828" lon="20.67604">
        <ele>736.19343</ele>
        <time>2022-04-27T12:53:05.740Z</time>
      </trkpt>
      <trkpt lat="41.18818" lon="20.67603">
        <ele>736.367649</ele>
        <time>2022-04-27T12:53:07.741Z</time>
      </trkpt>
      <trkpt lat="41.18809" lon="20.67601">
        <ele>736.541698</ele>
        <time>2022-04-27T12:53:09.749Z</time>
      </trkpt>
      <trkpt lat="41.18796" lon="20.67599">
        <ele>736.79428</ele>
        <time>2022-04-27T12:53:12.744Z</time>
      </trkpt>
      <trkpt lat="41.18783" lon="20.67597">
        <ele>737.050806</ele>
        <time>2022-04-27T12:53:15.728Z</time>
      </trkpt>
      <trkpt lat="41.18769" lon="20.67595">
        <ele>737.308886</ele>
        <time>2022-04-27T12:53:18.735Z</time>
      </trkpt>
      <trkpt lat="41.1876" lon="20.67594">
        <ele>737.488939</ele>
        <time>2022-04-27T12:53:20.754Z</time>
      </trkpt>
      <trkpt lat="41.18747" lon="20.67592">
        <ele>737.737419</ele>
        <time>2022-04-27T12:53:23.734Z</time>
      </trkpt>
      <trkpt lat="41.18734" lon="20.6759">
        <ele>737.988115</ele>
        <time>2022-04-27T12:53:26.736Z</time>
      </trkpt>
      <trkpt lat="41.18721" lon="20.67587">
        <ele>738.235038</ele>
        <time>2022-04-27T12:53:29.731Z</time>
      </trkpt>
      <trkpt lat="41.18709" lon="20.67586">
        <ele>738.464478</ele>
        <time>2022-04-27T12:53:32.745Z</time>
      </trkpt>
      <trkpt lat="41.18697" lon="20.67584">
        <ele>738.691872</ele>
        <time>2022-04-27T12:53:35.738Z</time>
      </trkpt>
      <trkpt lat="41.18688" lon="20.67582">
        <ele>738.868348</ele>
        <time>2022-04-27T12:53:37.732Z</time>
      </trkpt>
      <trkpt lat="41.18678" lon="20.6758">
        <ele>739.05443</ele>
        <time>2022-04-27T12:53:39.731Z</time>
      </trkpt>
      <trkpt lat="41.18665" lon="20.67578">
        <ele>739.206131</ele>
        <time>2022-04-27T12:53:42.757Z</time>
      </trkpt>
      <trkpt lat="41.18653" lon="20.67575">
        <ele>739.167337</ele>
        <time>2022-04-27T12:53:45.736Z</time>
      </trkpt>
      <trkpt lat="41.1864" lon="20.67573">
        <ele>739.129375</ele>
        <time>2022-04-27T12:53:48.763Z</time>
      </trkpt>
      <trkpt lat="41.18627" lon="20.6757">
        <ele>739.087957</ele>
        <time>2022-04-27T12:53:51.729Z</time>
      </trkpt>
      <trkpt lat="41.18617" lon="20.67569">
        <ele>739.05827</ele>
        <time>2022-04-27T12:53:53.732Z</time>
      </trkpt>
      <trkpt lat="41.18608" lon="20.67568">
        <ele>739.028582</ele>
        <time>2022-04-27T12:53:55.733Z</time>
      </trkpt>
      <trkpt lat="41.18594" lon="20.67566">
        <ele>738.988072</ele>
        <time>2022-04-27T12:53:58.736Z</time>
      </trkpt>
      <trkpt lat="41.18581" lon="20.67564">
        <ele>738.947616</ele>
        <time>2022-04-27T12:54:01.733Z</time>
      </trkpt>
      <trkpt lat="41.18572" lon="20.67562">
        <ele>738.920072</ele>
        <time>2022-04-27T12:54:03.739Z</time>
      </trkpt>
      <trkpt lat="41.18559" lon="20.6756">
        <ele>738.881129</ele>
        <time>2022-04-27T12:54:06.733Z</time>
      </trkpt>
      <trkpt lat="41.1855" lon="20.67559">
        <ele>738.852676</ele>
        <time>2022-04-27T12:54:08.735Z</time>
      </trkpt>
      <trkpt lat="41.18541" lon="20.67558">
        <ele>738.824148</ele>
        <time>2022-04-27T12:54:10.751Z</time>
      </trkpt>
      <trkpt lat="41.18531" lon="20.67556">
        <ele>738.795042</ele>
        <time>2022-04-27T12:54:12.730Z</time>
      </trkpt>
      <trkpt lat="41.18522" lon="20.67555">
        <ele>738.766893</ele>
        <time>2022-04-27T12:54:14.735Z</time>
      </trkpt>
      <trkpt lat="41.18513" lon="20.67554">
        <ele>738.737834</ele>
        <time>2022-04-27T12:54:16.730Z</time>
      </trkpt>
      <trkpt lat="41.18503" lon="20.67553">
        <ele>738.709759</ele>
        <time>2022-04-27T12:54:18.751Z</time>
      </trkpt>
      <trkpt lat="41.1849" lon="20.67552">
        <ele>738.674047</ele>
        <time>2022-04-27T12:54:21.748Z</time>
      </trkpt>
      <trkpt lat="41.18477" lon="20.6755">
        <ele>738.723126</ele>
        <time>2022-04-27T12:54:24.730Z</time>
      </trkpt>
      <trkpt lat="41.18464" lon="20.67549">
        <ele>738.769186</ele>
        <time>2022-04-27T12:54:27.730Z</time>
      </trkpt>
      <trkpt lat="41.18453" lon="20.67548">
        <ele>738.813377</ele>
        <time>2022-04-27T12:54:30.733Z</time>
      </trkpt>
      <trkpt lat="41.1844" lon="20.67547">
        <ele>738.858644</ele>
        <time>2022-04-27T12:54:33.728Z</time>
      </trkpt>
      <trkpt lat="41.1843" lon="20.67545">
        <ele>738.897749</ele>
        <time>2022-04-27T12:54:36.752Z</time>
      </trkpt>
      <trkpt lat="41.18418" lon="20.67539">
        <ele>738.944263</ele>
        <time>2022-04-27T12:54:39.737Z</time>
      </trkpt>
      <trkpt lat="41.18409" lon="20.67534">
        <ele>738.97964</ele>
        <time>2022-04-27T12:54:41.736Z</time>
      </trkpt>
      <trkpt lat="41.18398" lon="20.67537">
        <ele>739.02305</ele>
        <time>2022-04-27T12:54:44.779Z</time>
      </trkpt>
      <trkpt lat="41.18387" lon="20.67547">
        <ele>739.073719</ele>
        <time>2022-04-27T12:54:47.734Z</time>
      </trkpt>
      <trkpt lat="41.18378" lon="20.67552">
        <ele>739.107514</ele>
        <time>2022-04-27T12:54:49.751Z</time>
      </trkpt>
      <trkpt lat="41.18366" lon="20.67553">
        <ele>739.153963</ele>
        <time>2022-04-27T12:54:52.729Z</time>
      </trkpt>
      <trkpt lat="41.18353" lon="20.67556">
        <ele>739.200925</ele>
        <time>2022-04-27T12:54:55.813Z</time>
      </trkpt>
      <trkpt lat="41.18341" lon="20.67559">
        <ele>739.248347</ele>
        <time>2022-04-27T12:54:58.725Z</time>
      </trkpt>
      <trkpt lat="41.18328" lon="20.67562">
        <ele>739.294585</ele>
        <time>2022-04-27T12:55:01.735Z</time>
      </trkpt>
      <trkpt lat="41.18319" lon="20.67565">
        <ele>739.329532</ele>
        <time>2022-04-27T12:55:03.734Z</time>
      </trkpt>
      <trkpt lat="41.1831" lon="20.67567">
        <ele>739.480906</ele>
        <time>2022-04-27T12:55:05.748Z</time>
      </trkpt>
      <trkpt lat="41.183" lon="20.67569">
        <ele>739.678471</ele>
        <time>2022-04-27T12:55:07.739Z</time>
      </trkpt>
      <trkpt lat="41.1829" lon="20.67571">
        <ele>739.877982</ele>
        <time>2022-04-27T12:55:09.733Z</time>
      </trkpt>
      <trkpt lat="41.1828" lon="20.67573">
        <ele>740.070791</ele>
        <time>2022-04-27T12:55:11.752Z</time>
      </trkpt>
      <trkpt lat="41.18271" lon="20.67574">
        <ele>740.251001</ele>
        <time>2022-04-27T12:55:13.734Z</time>
      </trkpt>
      <trkpt lat="41.18262" lon="20.67575">
        <ele>740.439361</ele>
        <time>2022-04-27T12:55:15.738Z</time>
      </trkpt>
      <trkpt lat="41.18251" lon="20.67577">
        <ele>740.641942</ele>
        <time>2022-04-27T12:55:17.741Z</time>
      </trkpt>
      <trkpt lat="41.18241" lon="20.67579">
        <ele>740.848622</ele>
        <time>2022-04-27T12:55:19.727Z</time>
      </trkpt>
      <trkpt lat="41.18232" lon="20.67581">
        <ele>741.033383</ele>
        <time>2022-04-27T12:55:21.738Z</time>
      </trkpt>
      <trkpt lat="41.18222" lon="20.67583">
        <ele>741.222704</ele>
        <time>2022-04-27T12:55:23.727Z</time>
      </trkpt>
      <trkpt lat="41.18213" lon="20.67585">
        <ele>741.406916</ele>
        <time>2022-04-27T12:55:25.735Z</time>
      </trkpt>
      <trkpt lat="41.18204" lon="20.67587">
        <ele>741.588446</ele>
        <time>2022-04-27T12:55:27.734Z</time>
      </trkpt>
      <trkpt lat="41.18195" lon="20.67589">
        <ele>741.771106</ele>
        <time>2022-04-27T12:55:29.733Z</time>
      </trkpt>
      <trkpt lat="41.18186" lon="20.6759">
        <ele>741.954583</ele>
        <time>2022-04-27T12:55:31.733Z</time>
      </trkpt>
      <trkpt lat="41.18173" lon="20.67592">
        <ele>742.206437</ele>
        <time>2022-04-27T12:55:34.733Z</time>
      </trkpt>
      <trkpt lat="41.1816" lon="20.67595">
        <ele>742.461611</ele>
        <time>2022-04-27T12:55:37.735Z</time>
      </trkpt>
      <trkpt lat="41.18148" lon="20.67598">
        <ele>742.710943</ele>
        <time>2022-04-27T12:55:40.728Z</time>
      </trkpt>
      <trkpt lat="41.18135" lon="20.67601">
        <ele>743.146777</ele>
        <time>2022-04-27T12:55:43.745Z</time>
      </trkpt>
      <trkpt lat="41.18124" lon="20.67603">
        <ele>743.905341</ele>
        <time>2022-04-27T12:55:46.732Z</time>
      </trkpt>
      <trkpt lat="41.18112" lon="20.67605">
        <ele>744.685252</ele>
        <time>2022-04-27T12:55:49.727Z</time>
      </trkpt>
      <trkpt lat="41.181" lon="20.67605">
        <ele>745.428176</ele>
        <time>2022-04-27T12:55:52.728Z</time>
      </trkpt>
      <trkpt lat="41.18088" lon="20.67607">
        <ele>746.256944</ele>
        <time>2022-04-27T12:55:55.732Z</time>
      </trkpt>
      <trkpt lat="41.18076" lon="20.6761">
        <ele>747.020628</ele>
        <time>2022-04-27T12:55:58.725Z</time>
      </trkpt>
      <trkpt lat="41.18064" lon="20.67614">
        <ele>747.802122</ele>
        <time>2022-04-27T12:56:01.733Z</time>
      </trkpt>
      <trkpt lat="41.18052" lon="20.67617">
        <ele>748.628986</ele>
        <time>2022-04-27T12:56:04.735Z</time>
      </trkpt>
      <trkpt lat="41.18038" lon="20.67617">
        <ele>749.534873</ele>
        <time>2022-04-27T12:56:07.736Z</time>
      </trkpt>
      <trkpt lat="41.18028" lon="20.67619">
        <ele>750.175291</ele>
        <time>2022-04-27T12:56:09.732Z</time>
      </trkpt>
      <trkpt lat="41.18015" lon="20.67621">
        <ele>751.059413</ele>
        <time>2022-04-27T12:56:12.749Z</time>
      </trkpt>
      <trkpt lat="41.18001" lon="20.67621">
        <ele>751.972026</ele>
        <time>2022-04-27T12:56:15.737Z</time>
      </trkpt>
      <trkpt lat="41.17988" lon="20.67621">
        <ele>752.839584</ele>
        <time>2022-04-27T12:56:18.754Z</time>
      </trkpt>
      <trkpt lat="41.17975" lon="20.67624">
        <ele>753.667305</ele>
        <time>2022-04-27T12:56:21.744Z</time>
      </trkpt>
      <trkpt lat="41.17965" lon="20.67629">
        <ele>754.361473</ele>
        <time>2022-04-27T12:56:25.734Z</time>
      </trkpt>
      <trkpt lat="41.17954" lon="20.67631">
        <ele>754.765807</ele>
        <time>2022-04-27T12:56:28.729Z</time>
      </trkpt>
      <trkpt lat="41.17942" lon="20.67631">
        <ele>755.011884</ele>
        <time>2022-04-27T12:56:31.732Z</time>
      </trkpt>
      <trkpt lat="41.17932" lon="20.67633">
        <ele>755.20781</ele>
        <time>2022-04-27T12:56:33.735Z</time>
      </trkpt>
      <trkpt lat="41.17919" lon="20.67632">
        <ele>755.480981</ele>
        <time>2022-04-27T12:56:36.730Z</time>
      </trkpt>
      <trkpt lat="41.17909" lon="20.67632">
        <ele>755.691632</ele>
        <time>2022-04-27T12:56:38.725Z</time>
      </trkpt>
      <trkpt lat="41.17898" lon="20.67632">
        <ele>755.925142</ele>
        <time>2022-04-27T12:56:40.733Z</time>
      </trkpt>
      <trkpt lat="41.17888" lon="20.6763">
        <ele>756.138025</ele>
        <time>2022-04-27T12:56:42.734Z</time>
      </trkpt>
      <trkpt lat="41.17876" lon="20.67627">
        <ele>756.395856</ele>
        <time>2022-04-27T12:56:45.732Z</time>
      </trkpt>
      <trkpt lat="41.17863" lon="20.67624">
        <ele>756.663507</ele>
        <time>2022-04-27T12:56:48.732Z</time>
      </trkpt>
      <trkpt lat="41.17853" lon="20.67621">
        <ele>756.890473</ele>
        <time>2022-04-27T12:56:51.740Z</time>
      </trkpt>
      <trkpt lat="41.17842" lon="20.67617">
        <ele>757.124208</ele>
        <time>2022-04-27T12:56:54.728Z</time>
      </trkpt>
      <trkpt lat="41.1783" lon="20.67614">
        <ele>757.364439</ele>
        <time>2022-04-27T12:56:57.734Z</time>
      </trkpt>
      <trkpt lat="41.17819" lon="20.67612">
        <ele>757.594664</ele>
        <time>2022-04-27T12:57:00.729Z</time>
      </trkpt>
      <trkpt lat="41.17809" lon="20.6761">
        <ele>757.807547</ele>
        <time>2022-04-27T12:57:03.725Z</time>
      </trkpt>
      <trkpt lat="41.17798" lon="20.6761">
        <ele>758.043455</ele>
        <time>2022-04-27T12:57:07.738Z</time>
      </trkpt>
      <trkpt lat="41.17789" lon="20.67607">
        <ele>758.238186</ele>
        <time>2022-04-27T12:57:11.733Z</time>
      </trkpt>
      <trkpt lat="41.17778" lon="20.67606">
        <ele>758.352226</ele>
        <time>2022-04-27T12:57:16.735Z</time>
      </trkpt>
      <trkpt lat="41.17767" lon="20.67605">
        <ele>758.352226</ele>
        <time>2022-04-27T12:57:21.733Z</time>
      </trkpt>
      <trkpt lat="41.17757" lon="20.67604">
        <ele>758.352226</ele>
        <time>2022-04-27T12:57:24.737Z</time>
      </trkpt>
      <trkpt lat="41.17745" lon="20.67606">
        <ele>758.352226</ele>
        <time>2022-04-27T12:57:27.734Z</time>
      </trkpt>
      <trkpt lat="41.17736" lon="20.67608">
        <ele>758.352226</ele>
        <time>2022-04-27T12:57:29.746Z</time>
      </trkpt>
      <trkpt lat="41.17727" lon="20.67608">
        <ele>758.352226</ele>
        <time>2022-04-27T12:57:31.752Z</time>
      </trkpt>
      <trkpt lat="41.17716" lon="20.6761">
        <ele>758.352226</ele>
        <time>2022-04-27T12:57:33.728Z</time>
      </trkpt>
      <trkpt lat="41.17706" lon="20.67612">
        <ele>758.352226</ele>
        <time>2022-04-27T12:57:35.736Z</time>
      </trkpt>
      <trkpt lat="41.17696" lon="20.67615">
        <ele>758.352226</ele>
        <time>2022-04-27T12:57:37.737Z</time>
      </trkpt>
      <trkpt lat="41.17685" lon="20.67616">
        <ele>758.352226</ele>
        <time>2022-04-27T12:57:40.733Z</time>
      </trkpt>
      <trkpt lat="41.17676" lon="20.67616">
        <ele>758.352226</ele>
        <time>2022-04-27T12:57:43.732Z</time>
      </trkpt>
      <trkpt lat="41.17665" lon="20.67617">
        <ele>758.352226</ele>
        <time>2022-04-27T12:57:46.726Z</time>
      </trkpt>
      <trkpt lat="41.17656" lon="20.67616">
        <ele>758.352226</ele>
        <time>2022-04-27T12:57:49.733Z</time>
      </trkpt>
      <trkpt lat="41.17644" lon="20.67615">
        <ele>758.352226</ele>
        <time>2022-04-27T12:57:53.758Z</time>
      </trkpt>
      <trkpt lat="41.17634" lon="20.67616">
        <ele>758.352226</ele>
        <time>2022-04-27T12:57:57.731Z</time>
      </trkpt>
      <trkpt lat="41.17626" lon="20.67621">
        <ele>758.352226</ele>
        <time>2022-04-27T12:59:11.107Z</time>
      </trkpt>
    </trkseg>
  </trk>
  <trk>
    <name><![CDATA[Tour d'Europe: étape 668]]></name>
    <extensions>
      <line xmlns="http://www.topografix.com/GPX/gpx_style/0/2">
        <color>FF0000</color>
        <width>4</width>
      </line>
    </extensions>
    <trkseg>
      <trkpt lat="41.51496" lon="20.53273">
        <ele>709.729914</ele>
        <time>2022-04-27T08:26:40.761Z</time>
      </trkpt>
      <trkpt lat="41.51607" lon="20.53324">
        <ele>712.454487</ele>
        <time>2022-04-27T08:36:02.769Z</time>
      </trkpt>
      <trkpt lat="41.51611" lon="20.53313">
        <ele>713.401359</ele>
        <time>2022-04-27T08:36:07.772Z</time>
      </trkpt>
      <trkpt lat="41.51615" lon="20.53301">
        <ele>714.364886</ele>
        <time>2022-04-27T08:36:14.752Z</time>
      </trkpt>
      <trkpt lat="41.51618" lon="20.5329">
        <ele>715.256189</ele>
        <time>2022-04-27T08:36:20.765Z</time>
      </trkpt>
      <trkpt lat="41.51622" lon="20.53278">
        <ele>716.194913</ele>
        <time>2022-04-27T08:36:25.753Z</time>
      </trkpt>
      <trkpt lat="41.51625" lon="20.53266">
        <ele>717.137881</ele>
        <time>2022-04-27T08:36:30.750Z</time>
      </trkpt>
      <trkpt lat="41.51629" lon="20.53254">
        <ele>718.130724</ele>
        <time>2022-04-27T08:36:36.766Z</time>
      </trkpt>
      <trkpt lat="41.51634" lon="20.53241">
        <ele>719.154725</ele>
        <time>2022-04-27T08:36:43.764Z</time>
      </trkpt>
      <trkpt lat="41.51637" lon="20.53228">
        <ele>720.187289</ele>
        <time>2022-04-27T08:36:50.753Z</time>
      </trkpt>
      <trkpt lat="41.5164" lon="20.53217">
        <ele>721.101743</ele>
        <time>2022-04-27T08:36:56.773Z</time>
      </trkpt>
      <trkpt lat="41.51644" lon="20.53205">
        <ele>722.027178</ele>
        <time>2022-04-27T08:37:01.751Z</time>
      </trkpt>
      <trkpt lat="41.51648" lon="20.53193">
        <ele>723.059402</ele>
        <time>2022-04-27T08:37:06.775Z</time>
      </trkpt>
      <trkpt lat="41.51654" lon="20.5318">
        <ele>724.124427</ele>
        <time>2022-04-27T08:37:11.764Z</time>
      </trkpt>
      <trkpt lat="41.51658" lon="20.5317">
        <ele>725.032679</ele>
        <time>2022-04-27T08:37:16.770Z</time>
      </trkpt>
      <trkpt lat="41.51665" lon="20.53157">
        <ele>726.177023</ele>
        <time>2022-04-27T08:37:20.772Z</time>
      </trkpt>
      <trkpt lat="41.51671" lon="20.53143">
        <ele>727.351767</ele>
        <time>2022-04-27T08:37:24.795Z</time>
      </trkpt>
      <trkpt lat="41.51678" lon="20.53132">
        <ele>727.393998</ele>
        <time>2022-04-27T08:37:28.774Z</time>
      </trkpt>
      <trkpt lat="41.51685" lon="20.53123">
        <ele>727.218281</ele>
        <time>2022-04-27T08:37:31.781Z</time>
      </trkpt>
      <trkpt lat="41.51692" lon="20.53113">
        <ele>727.011492</ele>
        <time>2022-04-27T08:37:34.774Z</time>
      </trkpt>
      <trkpt lat="41.51699" lon="20.53103">
        <ele>726.81626</ele>
        <time>2022-04-27T08:37:37.760Z</time>
      </trkpt>
      <trkpt lat="41.51706" lon="20.53094">
        <ele>726.63046</ele>
        <time>2022-04-27T08:37:40.817Z</time>
      </trkpt>
      <trkpt lat="41.51715" lon="20.53086">
        <ele>726.4284</ele>
        <time>2022-04-27T08:37:43.789Z</time>
      </trkpt>
      <trkpt lat="41.51723" lon="20.53076">
        <ele>726.222029</ele>
        <time>2022-04-27T08:37:46.780Z</time>
      </trkpt>
      <trkpt lat="41.51732" lon="20.53067">
        <ele>726.014105</ele>
        <time>2022-04-27T08:37:49.785Z</time>
      </trkpt>
      <trkpt lat="41.51739" lon="20.5306">
        <ele>725.84117</ele>
        <time>2022-04-27T08:37:51.780Z</time>
      </trkpt>
      <trkpt lat="41.51747" lon="20.53053">
        <ele>725.662882</ele>
        <time>2022-04-27T08:37:53.783Z</time>
      </trkpt>
      <trkpt lat="41.51756" lon="20.53046">
        <ele>725.460398</ele>
        <time>2022-04-27T08:37:55.772Z</time>
      </trkpt>
      <trkpt lat="41.51765" lon="20.5304">
        <ele>725.272916</ele>
        <time>2022-04-27T08:37:57.768Z</time>
      </trkpt>
      <trkpt lat="41.51773" lon="20.53036">
        <ele>725.098806</ele>
        <time>2022-04-27T08:37:59.768Z</time>
      </trkpt>
      <trkpt lat="41.51783" lon="20.53029">
        <ele>724.894492</ele>
        <time>2022-04-27T08:38:01.856Z</time>
      </trkpt>
      <trkpt lat="41.51792" lon="20.53024">
        <ele>724.707614</ele>
        <time>2022-04-27T08:38:03.800Z</time>
      </trkpt>
      <trkpt lat="41.51801" lon="20.5302">
        <ele>724.524103</ele>
        <time>2022-04-27T08:38:05.785Z</time>
      </trkpt>
      <trkpt lat="41.5181" lon="20.53017">
        <ele>724.350671</ele>
        <time>2022-04-27T08:38:07.808Z</time>
      </trkpt>
      <trkpt lat="41.51819" lon="20.53013">
        <ele>724.173043</ele>
        <time>2022-04-27T08:38:09.750Z</time>
      </trkpt>
      <trkpt lat="41.51828" lon="20.53009">
        <ele>723.772118</ele>
        <time>2022-04-27T08:38:11.758Z</time>
      </trkpt>
      <trkpt lat="41.51837" lon="20.53005">
        <ele>723.325922</ele>
        <time>2022-04-27T08:38:13.757Z</time>
      </trkpt>
      <trkpt lat="41.51848" lon="20.53">
        <ele>722.767955</ele>
        <time>2022-04-27T08:38:16.801Z</time>
      </trkpt>
      <trkpt lat="41.5186" lon="20.52995">
        <ele>722.168681</ele>
        <time>2022-04-27T08:38:19.777Z</time>
      </trkpt>
      <trkpt lat="41.51871" lon="20.52989">
        <ele>721.624273</ele>
        <time>2022-04-27T08:38:22.799Z</time>
      </trkpt>
      <trkpt lat="41.51881" lon="20.52984">
        <ele>721.119627</ele>
        <time>2022-04-27T08:38:25.812Z</time>
      </trkpt>
      <trkpt lat="41.51889" lon="20.52979">
        <ele>720.671491</ele>
        <time>2022-04-27T08:38:27.778Z</time>
      </trkpt>
      <trkpt lat="41.51899" lon="20.52975">
        <ele>720.213125</ele>
        <time>2022-04-27T08:38:29.774Z</time>
      </trkpt>
      <trkpt lat="41.51908" lon="20.52971">
        <ele>719.763631</ele>
        <time>2022-04-27T08:38:31.801Z</time>
      </trkpt>
      <trkpt lat="41.51917" lon="20.52965">
        <ele>719.296761</ele>
        <time>2022-04-27T08:38:33.770Z</time>
      </trkpt>
      <trkpt lat="41.51922" lon="20.52954">
        <ele>718.854535</ele>
        <time>2022-04-27T08:38:35.769Z</time>
      </trkpt>
      <trkpt lat="41.51923" lon="20.5294">
        <ele>718.347569</ele>
        <time>2022-04-27T08:38:37.763Z</time>
      </trkpt>
      <trkpt lat="41.51921" lon="20.52925">
        <ele>717.815851</ele>
        <time>2022-04-27T08:38:39.781Z</time>
      </trkpt>
      <trkpt lat="41.5192" lon="20.5291">
        <ele>717.277638</ele>
        <time>2022-04-27T08:38:41.771Z</time>
      </trkpt>
      <trkpt lat="41.5192" lon="20.52896">
        <ele>716.782896</ele>
        <time>2022-04-27T08:38:43.780Z</time>
      </trkpt>
      <trkpt lat="41.5192" lon="20.52882">
        <ele>716.292155</ele>
        <time>2022-04-27T08:38:45.802Z</time>
      </trkpt>
      <trkpt lat="41.5192" lon="20.52868">
        <ele>715.805012</ele>
        <time>2022-04-27T08:38:47.811Z</time>
      </trkpt>
      <trkpt lat="41.51921" lon="20.52854">
        <ele>715.224431</ele>
        <time>2022-04-27T08:38:49.789Z</time>
      </trkpt>
      <trkpt lat="41.51921" lon="20.52838">
        <ele>714.572756</ele>
        <time>2022-04-27T08:38:51.794Z</time>
      </trkpt>
      <trkpt lat="41.51921" lon="20.52821">
        <ele>713.896308</ele>
        <time>2022-04-27T08:38:53.765Z</time>
      </trkpt>
      <trkpt lat="41.51921" lon="20.52804">
        <ele>713.204099</ele>
        <time>2022-04-27T08:38:55.760Z</time>
      </trkpt>
      <trkpt lat="41.51921" lon="20.52786">
        <ele>712.486966</ele>
        <time>2022-04-27T08:38:57.777Z</time>
      </trkpt>
      <trkpt lat="41.51921" lon="20.52768">
        <ele>711.745838</ele>
        <time>2022-04-27T08:38:59.780Z</time>
      </trkpt>
      <trkpt lat="41.5192" lon="20.5275">
        <ele>711.016925</ele>
        <time>2022-04-27T08:39:01.773Z</time>
      </trkpt>
      <trkpt lat="41.5192" lon="20.52733">
        <ele>710.296215</ele>
        <time>2022-04-27T08:39:03.771Z</time>
      </trkpt>
      <trkpt lat="41.5192" lon="20.52714">
        <ele>709.555087</ele>
        <time>2022-04-27T08:39:05.770Z</time>
      </trkpt>
      <trkpt lat="41.5192" lon="20.52696">
        <ele>708.797733</ele>
        <time>2022-04-27T08:39:07.775Z</time>
      </trkpt>
      <trkpt lat="41.5192" lon="20.52677">
        <ele>708.028183</ele>
        <time>2022-04-27T08:39:09.767Z</time>
      </trkpt>
      <trkpt lat="41.51921" lon="20.52659">
        <ele>707.306489</ele>
        <time>2022-04-27T08:39:11.779Z</time>
      </trkpt>
      <trkpt lat="41.51921" lon="20.52643">
        <ele>706.654451</ele>
        <time>2022-04-27T08:39:13.768Z</time>
      </trkpt>
      <trkpt lat="41.51922" lon="20.52628">
        <ele>706.023128</ele>
        <time>2022-04-27T08:39:15.758Z</time>
      </trkpt>
      <trkpt lat="41.51922" lon="20.52611">
        <ele>705.274271</ele>
        <time>2022-04-27T08:39:17.762Z</time>
      </trkpt>
      <trkpt lat="41.51922" lon="20.52595">
        <ele>704.550703</ele>
        <time>2022-04-27T08:39:19.770Z</time>
      </trkpt>
      <trkpt lat="41.51923" lon="20.52579">
        <ele>703.831453</ele>
        <time>2022-04-27T08:39:21.808Z</time>
      </trkpt>
      <trkpt lat="41.51922" lon="20.52562">
        <ele>703.08068</ele>
        <time>2022-04-27T08:39:23.786Z</time>
      </trkpt>
      <trkpt lat="41.51922" lon="20.52546">
        <ele>702.325095</ele>
        <time>2022-04-27T08:39:25.783Z</time>
      </trkpt>
      <trkpt lat="41.51922" lon="20.52528">
        <ele>701.54239</ele>
        <time>2022-04-27T08:39:27.777Z</time>
      </trkpt>
      <trkpt lat="41.51921" lon="20.52511">
        <ele>700.767948</ele>
        <time>2022-04-27T08:39:29.768Z</time>
      </trkpt>
      <trkpt lat="41.5192" lon="20.52494">
        <ele>699.98026</ele>
        <time>2022-04-27T08:39:31.794Z</time>
      </trkpt>
      <trkpt lat="41.5192" lon="20.52477">
        <ele>699.197719</ele>
        <time>2022-04-27T08:39:33.767Z</time>
      </trkpt>
      <trkpt lat="41.5192" lon="20.52459">
        <ele>698.424337</ele>
        <time>2022-04-27T08:39:35.771Z</time>
      </trkpt>
      <trkpt lat="41.51921" lon="20.52442">
        <ele>697.650461</ele>
        <time>2022-04-27T08:39:37.760Z</time>
      </trkpt>
      <trkpt lat="41.51921" lon="20.52426">
        <ele>696.913128</ele>
        <time>2022-04-27T08:39:39.786Z</time>
      </trkpt>
      <trkpt lat="41.51918" lon="20.52411">
        <ele>696.193532</ele>
        <time>2022-04-27T08:39:41.787Z</time>
      </trkpt>
      <trkpt lat="41.51911" lon="20.52399">
        <ele>695.541459</ele>
        <time>2022-04-27T08:39:43.810Z</time>
      </trkpt>
      <trkpt lat="41.51902" lon="20.52394">
        <ele>695.003756</ele>
        <time>2022-04-27T08:39:45.780Z</time>
      </trkpt>
      <trkpt lat="41.51894" lon="20.52389">
        <ele>694.929602</ele>
        <time>2022-04-27T08:39:47.780Z</time>
      </trkpt>
      <trkpt lat="41.51884" lon="20.52379">
        <ele>694.831267</ele>
        <time>2022-04-27T08:39:50.774Z</time>
      </trkpt>
      <trkpt lat="41.51876" lon="20.52368">
        <ele>694.739032</ele>
        <time>2022-04-27T08:39:53.762Z</time>
      </trkpt>
      <trkpt lat="41.51868" lon="20.52358">
        <ele>694.650975</ele>
        <time>2022-04-27T08:39:56.779Z</time>
      </trkpt>
      <trkpt lat="41.51858" lon="20.52347">
        <ele>694.550716</ele>
        <time>2022-04-27T08:39:59.765Z</time>
      </trkpt>
      <trkpt lat="41.51851" lon="20.52339">
        <ele>694.471681</ele>
        <time>2022-04-27T08:40:01.776Z</time>
      </trkpt>
      <trkpt lat="41.51843" lon="20.52331">
        <ele>694.393165</ele>
        <time>2022-04-27T08:40:03.777Z</time>
      </trkpt>
      <trkpt lat="41.51836" lon="20.52323">
        <ele>694.316654</ele>
        <time>2022-04-27T08:40:05.775Z</time>
      </trkpt>
      <trkpt lat="41.51828" lon="20.52315">
        <ele>694.237993</ele>
        <time>2022-04-27T08:40:07.788Z</time>
      </trkpt>
      <trkpt lat="41.5182" lon="20.52306">
        <ele>694.157551</ele>
        <time>2022-04-27T08:40:09.784Z</time>
      </trkpt>
      <trkpt lat="41.51812" lon="20.52297">
        <ele>694.073014</ele>
        <time>2022-04-27T08:40:11.784Z</time>
      </trkpt>
      <trkpt lat="41.51804" lon="20.52289">
        <ele>693.989724</ele>
        <time>2022-04-27T08:40:13.753Z</time>
      </trkpt>
      <trkpt lat="41.51796" lon="20.5228">
        <ele>693.907053</ele>
        <time>2022-04-27T08:40:15.774Z</time>
      </trkpt>
      <trkpt lat="41.51789" lon="20.52271">
        <ele>693.825999</ele>
        <time>2022-04-27T08:40:17.803Z</time>
      </trkpt>
      <trkpt lat="41.51781" lon="20.52263">
        <ele>693.74834</ele>
        <time>2022-04-27T08:40:19.781Z</time>
      </trkpt>
      <trkpt lat="41.51774" lon="20.52255">
        <ele>693.675842</ele>
        <time>2022-04-27T08:40:21.790Z</time>
      </trkpt>
      <trkpt lat="41.51764" lon="20.52244">
        <ele>693.572186</ele>
        <time>2022-04-27T08:40:24.761Z</time>
      </trkpt>
      <trkpt lat="41.51755" lon="20.52234">
        <ele>693.610991</ele>
        <time>2022-04-27T08:40:27.789Z</time>
      </trkpt>
      <trkpt lat="41.51747" lon="20.52223">
        <ele>693.654869</ele>
        <time>2022-04-27T08:40:30.787Z</time>
      </trkpt>
      <trkpt lat="41.51738" lon="20.52213">
        <ele>693.699594</ele>
        <time>2022-04-27T08:40:33.775Z</time>
      </trkpt>
      <trkpt lat="41.51729" lon="20.52203">
        <ele>693.742776</ele>
        <time>2022-04-27T08:40:36.766Z</time>
      </trkpt>
      <trkpt lat="41.51719" lon="20.52193">
        <ele>693.791414</ele>
        <time>2022-04-27T08:40:39.765Z</time>
      </trkpt>
      <trkpt lat="41.51709" lon="20.52182">
        <ele>693.839211</ele>
        <time>2022-04-27T08:40:42.773Z</time>
      </trkpt>
      <trkpt lat="41.517" lon="20.52172">
        <ele>693.885263</ele>
        <time>2022-04-27T08:40:45.767Z</time>
      </trkpt>
      <trkpt lat="41.5169" lon="20.52161">
        <ele>693.934839</ele>
        <time>2022-04-27T08:40:48.766Z</time>
      </trkpt>
      <trkpt lat="41.51683" lon="20.52153">
        <ele>693.969471</ele>
        <time>2022-04-27T08:40:50.773Z</time>
      </trkpt>
      <trkpt lat="41.51676" lon="20.52144">
        <ele>694.004195</ele>
        <time>2022-04-27T08:40:52.766Z</time>
      </trkpt>
      <trkpt lat="41.51669" lon="20.52136">
        <ele>694.038258</ele>
        <time>2022-04-27T08:40:54.778Z</time>
      </trkpt>
      <trkpt lat="41.51662" lon="20.52128">
        <ele>694.07289</ele>
        <time>2022-04-27T08:40:56.820Z</time>
      </trkpt>
      <trkpt lat="41.51653" lon="20.52117">
        <ele>694.121296</ele>
        <time>2022-04-27T08:40:59.778Z</time>
      </trkpt>
      <trkpt lat="41.51643" lon="20.52106">
        <ele>694.168109</ele>
        <time>2022-04-27T08:41:02.811Z</time>
      </trkpt>
      <trkpt lat="41.51633" lon="20.52095">
        <ele>694.219358</ele>
        <time>2022-04-27T08:41:05.771Z</time>
      </trkpt>
      <trkpt lat="41.51626" lon="20.52086">
        <ele>694.236562</ele>
        <time>2022-04-27T08:41:07.783Z</time>
      </trkpt>
      <trkpt lat="41.51618" lon="20.52077">
        <ele>694.164016</ele>
        <time>2022-04-27T08:41:09.784Z</time>
      </trkpt>
      <trkpt lat="41.51611" lon="20.52067">
        <ele>694.090237</ele>
        <time>2022-04-27T08:41:11.770Z</time>
      </trkpt>
      <trkpt lat="41.51603" lon="20.52057">
        <ele>694.017329</ele>
        <time>2022-04-27T08:41:13.786Z</time>
      </trkpt>
      <trkpt lat="41.51596" lon="20.52048">
        <ele>693.949396</ele>
        <time>2022-04-27T08:41:15.785Z</time>
      </trkpt>
      <trkpt lat="41.51589" lon="20.52038">
        <ele>693.876256</ele>
        <time>2022-04-27T08:41:17.774Z</time>
      </trkpt>
      <trkpt lat="41.51581" lon="20.52028">
        <ele>693.799502</ele>
        <time>2022-04-27T08:41:19.784Z</time>
      </trkpt>
      <trkpt lat="41.51573" lon="20.52018">
        <ele>693.722888</ele>
        <time>2022-04-27T08:41:21.768Z</time>
      </trkpt>
      <trkpt lat="41.51567" lon="20.52008">
        <ele>693.653923</ele>
        <time>2022-04-27T08:41:23.783Z</time>
      </trkpt>
      <trkpt lat="41.5156" lon="20.51999">
        <ele>693.585723</ele>
        <time>2022-04-27T08:41:25.748Z</time>
      </trkpt>
      <trkpt lat="41.51553" lon="20.5199">
        <ele>693.519269</ele>
        <time>2022-04-27T08:41:27.803Z</time>
      </trkpt>
      <trkpt lat="41.51546" lon="20.51982">
        <ele>693.45405</ele>
        <time>2022-04-27T08:41:29.765Z</time>
      </trkpt>
      <trkpt lat="41.51539" lon="20.51973">
        <ele>693.388877</ele>
        <time>2022-04-27T08:41:31.771Z</time>
      </trkpt>
      <trkpt lat="41.5153" lon="20.51961">
        <ele>693.295874</ele>
        <time>2022-04-27T08:41:34.773Z</time>
      </trkpt>
      <trkpt lat="41.5152" lon="20.51949">
        <ele>693.203619</ele>
        <time>2022-04-27T08:41:37.776Z</time>
      </trkpt>
      <trkpt lat="41.51511" lon="20.51939">
        <ele>693.117469</ele>
        <time>2022-04-27T08:41:41.179Z</time>
      </trkpt>
      <trkpt lat="41.51502" lon="20.51929">
        <ele>693.035502</ele>
        <time>2022-04-27T08:41:43.787Z</time>
      </trkpt>
      <trkpt lat="41.51495" lon="20.5192">
        <ele>692.970681</ele>
        <time>2022-04-27T08:41:46.765Z</time>
      </trkpt>
      <trkpt lat="41.51486" lon="20.51908">
        <ele>692.889332</ele>
        <time>2022-04-27T08:41:49.801Z</time>
      </trkpt>
      <trkpt lat="41.51476" lon="20.51896">
        <ele>692.806242</ele>
        <time>2022-04-27T08:41:52.777Z</time>
      </trkpt>
      <trkpt lat="41.51467" lon="20.51885">
        <ele>692.727158</ele>
        <time>2022-04-27T08:41:55.754Z</time>
      </trkpt>
      <trkpt lat="41.51459" lon="20.51874">
        <ele>692.65299</ele>
        <time>2022-04-27T08:41:58.820Z</time>
      </trkpt>
      <trkpt lat="41.5145" lon="20.51862">
        <ele>692.575022</ele>
        <time>2022-04-27T08:42:01.785Z</time>
      </trkpt>
      <trkpt lat="41.51443" lon="20.51853">
        <ele>692.513485</ele>
        <time>2022-04-27T08:42:03.784Z</time>
      </trkpt>
      <trkpt lat="41.51436" lon="20.51843">
        <ele>692.445922</ele>
        <time>2022-04-27T08:42:05.760Z</time>
      </trkpt>
      <trkpt lat="41.51428" lon="20.51833">
        <ele>692.379538</ele>
        <time>2022-04-27T08:42:07.768Z</time>
      </trkpt>
      <trkpt lat="41.5142" lon="20.51824">
        <ele>692.312045</ele>
        <time>2022-04-27T08:42:09.769Z</time>
      </trkpt>
      <trkpt lat="41.51412" lon="20.51814">
        <ele>692.243698</ele>
        <time>2022-04-27T08:42:11.802Z</time>
      </trkpt>
      <trkpt lat="41.51404" lon="20.51803">
        <ele>692.171999</ele>
        <time>2022-04-27T08:42:13.784Z</time>
      </trkpt>
      <trkpt lat="41.51396" lon="20.51792">
        <ele>692.095477</ele>
        <time>2022-04-27T08:42:15.773Z</time>
      </trkpt>
      <trkpt lat="41.51386" lon="20.5178">
        <ele>692.015856</ele>
        <time>2022-04-27T08:42:17.769Z</time>
      </trkpt>
      <trkpt lat="41.51377" lon="20.51769">
        <ele>691.934161</ele>
        <time>2022-04-27T08:42:19.759Z</time>
      </trkpt>
      <trkpt lat="41.51367" lon="20.51757">
        <ele>691.851354</ele>
        <time>2022-04-27T08:42:21.768Z</time>
      </trkpt>
      <trkpt lat="41.51357" lon="20.51744">
        <ele>691.50899</ele>
        <time>2022-04-27T08:42:23.765Z</time>
      </trkpt>
      <trkpt lat="41.51347" lon="20.51732">
        <ele>691.155848</ele>
        <time>2022-04-27T08:42:25.781Z</time>
      </trkpt>
      <trkpt lat="41.51337" lon="20.5172">
        <ele>690.79873</ele>
        <time>2022-04-27T08:42:27.768Z</time>
      </trkpt>
      <trkpt lat="41.51327" lon="20.51707">
        <ele>690.427326</ele>
        <time>2022-04-27T08:42:29.783Z</time>
      </trkpt>
      <trkpt lat="41.51317" lon="20.51694">
        <ele>690.076382</ele>
        <time>2022-04-27T08:42:31.789Z</time>
      </trkpt>
      <trkpt lat="41.51308" lon="20.51681">
        <ele>689.718981</ele>
        <time>2022-04-27T08:42:33.804Z</time>
      </trkpt>
      <trkpt lat="41.51298" lon="20.5167">
        <ele>689.386457</ele>
        <time>2022-04-27T08:42:35.765Z</time>
      </trkpt>
      <trkpt lat="41.51289" lon="20.5166">
        <ele>689.0747</ele>
        <time>2022-04-27T08:42:37.788Z</time>
      </trkpt>
      <trkpt lat="41.51279" lon="20.51651">
        <ele>688.769422</ele>
        <time>2022-04-27T08:42:39.763Z</time>
      </trkpt>
      <trkpt lat="41.51271" lon="20.51642">
        <ele>688.492686</ele>
        <time>2022-04-27T08:42:41.777Z</time>
      </trkpt>
      <trkpt lat="41.51263" lon="20.51634">
        <ele>688.234584</ele>
        <time>2022-04-27T08:42:43.792Z</time>
      </trkpt>
      <trkpt lat="41.51255" lon="20.51627">
        <ele>687.994977</ele>
        <time>2022-04-27T08:42:45.785Z</time>
      </trkpt>
      <trkpt lat="41.51244" lon="20.51618">
        <ele>687.656406</ele>
        <time>2022-04-27T08:42:48.768Z</time>
      </trkpt>
      <trkpt lat="41.51234" lon="20.51609">
        <ele>687.3214</ele>
        <time>2022-04-27T08:42:51.765Z</time>
      </trkpt>
      <trkpt lat="41.51224" lon="20.516">
        <ele>687.091656</ele>
        <time>2022-04-27T08:42:54.775Z</time>
      </trkpt>
      <trkpt lat="41.51215" lon="20.51591">
        <ele>686.950046</ele>
        <time>2022-04-27T08:42:57.777Z</time>
      </trkpt>
      <trkpt lat="41.51206" lon="20.51583">
        <ele>686.807401</ele>
        <time>2022-04-27T08:43:00.781Z</time>
      </trkpt>
      <trkpt lat="41.51196" lon="20.51574">
        <ele>686.658428</ele>
        <time>2022-04-27T08:43:03.764Z</time>
      </trkpt>
      <trkpt lat="41.51186" lon="20.51565">
        <ele>686.503135</ele>
        <time>2022-04-27T08:43:06.766Z</time>
      </trkpt>
      <trkpt lat="41.51175" lon="20.51556">
        <ele>686.345218</ele>
        <time>2022-04-27T08:43:09.784Z</time>
      </trkpt>
      <trkpt lat="41.51165" lon="20.51547">
        <ele>686.192572</ele>
        <time>2022-04-27T08:43:12.812Z</time>
      </trkpt>
      <trkpt lat="41.51155" lon="20.51538">
        <ele>686.036215</ele>
        <time>2022-04-27T08:43:15.774Z</time>
      </trkpt>
      <trkpt lat="41.51144" lon="20.51528">
        <ele>685.873569</ele>
        <time>2022-04-27T08:43:18.801Z</time>
      </trkpt>
      <trkpt lat="41.51133" lon="20.51519">
        <ele>685.70723</ele>
        <time>2022-04-27T08:43:21.781Z</time>
      </trkpt>
      <trkpt lat="41.51126" lon="20.51512">
        <ele>685.591431</ele>
        <time>2022-04-27T08:43:23.778Z</time>
      </trkpt>
      <trkpt lat="41.51118" lon="20.51505">
        <ele>685.471391</ele>
        <time>2022-04-27T08:43:25.779Z</time>
      </trkpt>
      <trkpt lat="41.51109" lon="20.51498">
        <ele>685.343902</ele>
        <time>2022-04-27T08:43:27.777Z</time>
      </trkpt>
      <trkpt lat="41.51101" lon="20.51491">
        <ele>685.215996</ele>
        <time>2022-04-27T08:43:29.788Z</time>
      </trkpt>
      <trkpt lat="41.51092" lon="20.51483">
        <ele>685.082286</ele>
        <time>2022-04-27T08:43:31.781Z</time>
      </trkpt>
      <trkpt lat="41.51084" lon="20.51475">
        <ele>684.955424</ele>
        <time>2022-04-27T08:43:33.761Z</time>
      </trkpt>
      <trkpt lat="41.51075" lon="20.51468">
        <ele>684.734524</ele>
        <time>2022-04-27T08:43:35.815Z</time>
      </trkpt>
      <trkpt lat="41.51066" lon="20.5146">
        <ele>684.390487</ele>
        <time>2022-04-27T08:43:37.776Z</time>
      </trkpt>
      <trkpt lat="41.51058" lon="20.51452">
        <ele>684.062621</ele>
        <time>2022-04-27T08:43:39.775Z</time>
      </trkpt>
      <trkpt lat="41.51049" lon="20.51444">
        <ele>683.71172</ele>
        <time>2022-04-27T08:43:41.785Z</time>
      </trkpt>
      <trkpt lat="41.51041" lon="20.51436">
        <ele>683.367617</ele>
        <time>2022-04-27T08:43:43.752Z</time>
      </trkpt>
      <trkpt lat="41.51033" lon="20.51428">
        <ele>683.038004</ele>
        <time>2022-04-27T08:43:45.806Z</time>
      </trkpt>
      <trkpt lat="41.51025" lon="20.51419">
        <ele>682.696724</ele>
        <time>2022-04-27T08:43:47.781Z</time>
      </trkpt>
      <trkpt lat="41.51017" lon="20.51411">
        <ele>682.365574</ele>
        <time>2022-04-27T08:43:49.780Z</time>
      </trkpt>
      <trkpt lat="41.5101" lon="20.51401">
        <ele>682.038404</ele>
        <time>2022-04-27T08:43:51.763Z</time>
      </trkpt>
      <trkpt lat="41.51003" lon="20.51392">
        <ele>681.717004</ele>
        <time>2022-04-27T08:43:53.767Z</time>
      </trkpt>
      <trkpt lat="41.50995" lon="20.51384">
        <ele>681.396538</ele>
        <time>2022-04-27T08:43:55.771Z</time>
      </trkpt>
      <trkpt lat="41.50988" lon="20.51375">
        <ele>681.065387</ele>
        <time>2022-04-27T08:43:57.779Z</time>
      </trkpt>
      <trkpt lat="41.5098" lon="20.51366">
        <ele>680.733515</ele>
        <time>2022-04-27T08:43:59.797Z</time>
      </trkpt>
      <trkpt lat="41.50973" lon="20.51357">
        <ele>680.413388</ele>
        <time>2022-04-27T08:44:01.773Z</time>
      </trkpt>
      <trkpt lat="41.50966" lon="20.51347">
        <ele>680.067158</ele>
        <time>2022-04-27T08:44:03.773Z</time>
      </trkpt>
      <trkpt lat="41.50958" lon="20.51338">
        <ele>679.731133</ele>
        <time>2022-04-27T08:44:05.788Z</time>
      </trkpt>
      <trkpt lat="41.50951" lon="20.51328">
        <ele>679.392409</ele>
        <time>2022-04-27T08:44:07.814Z</time>
      </trkpt>
      <trkpt lat="41.50943" lon="20.51318">
        <ele>679.048505</ele>
        <time>2022-04-27T08:44:09.761Z</time>
      </trkpt>
      <trkpt lat="41.50936" lon="20.51308">
        <ele>678.996485</ele>
        <time>2022-04-27T08:44:11.769Z</time>
      </trkpt>
      <trkpt lat="41.50928" lon="20.51298">
        <ele>679.021817</ele>
        <time>2022-04-27T08:44:13.823Z</time>
      </trkpt>
      <trkpt lat="41.50921" lon="20.51288">
        <ele>679.046496</ele>
        <time>2022-04-27T08:44:15.765Z</time>
      </trkpt>
      <trkpt lat="41.50914" lon="20.51278">
        <ele>679.070882</ele>
        <time>2022-04-27T08:44:17.774Z</time>
      </trkpt>
      <trkpt lat="41.50908" lon="20.51268">
        <ele>679.095269</ele>
        <time>2022-04-27T08:44:19.796Z</time>
      </trkpt>
      <trkpt lat="41.50901" lon="20.51257">
        <ele>679.119471</ele>
        <time>2022-04-27T08:44:21.788Z</time>
      </trkpt>
      <trkpt lat="41.50895" lon="20.51247">
        <ele>679.143193</ele>
        <time>2022-04-27T08:44:23.774Z</time>
      </trkpt>
      <trkpt lat="41.50888" lon="20.51236">
        <ele>679.167467</ele>
        <time>2022-04-27T08:44:25.795Z</time>
      </trkpt>
      <trkpt lat="41.50882" lon="20.51226">
        <ele>679.192094</ele>
        <time>2022-04-27T08:44:27.772Z</time>
      </trkpt>
      <trkpt lat="41.50875" lon="20.51215">
        <ele>679.216855</ele>
        <time>2022-04-27T08:44:29.769Z</time>
      </trkpt>
      <trkpt lat="41.50868" lon="20.51205">
        <ele>679.240729</ele>
        <time>2022-04-27T08:44:31.777Z</time>
      </trkpt>
      <trkpt lat="41.50861" lon="20.51194">
        <ele>679.266342</ele>
        <time>2022-04-27T08:44:33.766Z</time>
      </trkpt>
      <trkpt lat="41.50854" lon="20.51183">
        <ele>679.292963</ele>
        <time>2022-04-27T08:44:35.780Z</time>
      </trkpt>
      <trkpt lat="41.50847" lon="20.51173">
        <ele>679.31813</ele>
        <time>2022-04-27T08:44:37.759Z</time>
      </trkpt>
      <trkpt lat="41.50839" lon="20.51162">
        <ele>679.344534</ele>
        <time>2022-04-27T08:44:39.778Z</time>
      </trkpt>
      <trkpt lat="41.50831" lon="20.5115">
        <ele>679.372565</ele>
        <time>2022-04-27T08:44:41.781Z</time>
      </trkpt>
      <trkpt lat="41.50823" lon="20.51138">
        <ele>679.401066</ele>
        <time>2022-04-27T08:44:43.764Z</time>
      </trkpt>
      <trkpt lat="41.50815" lon="20.51126">
        <ele>679.292345</ele>
        <time>2022-04-27T08:44:45.767Z</time>
      </trkpt>
      <trkpt lat="41.50807" lon="20.51113">
        <ele>679.158395</ele>
        <time>2022-04-27T08:44:47.781Z</time>
      </trkpt>
      <trkpt lat="41.508" lon="20.51099">
        <ele>679.021375</ele>
        <time>2022-04-27T08:44:49.758Z</time>
      </trkpt>
      <trkpt lat="41.50791" lon="20.51086">
        <ele>678.881609</ele>
        <time>2022-04-27T08:44:51.771Z</time>
      </trkpt>
      <trkpt lat="41.50782" lon="20.51072">
        <ele>678.74116</ele>
        <time>2022-04-27T08:44:53.801Z</time>
      </trkpt>
      <trkpt lat="41.50774" lon="20.51059">
        <ele>678.601999</ele>
        <time>2022-04-27T08:44:55.765Z</time>
      </trkpt>
      <trkpt lat="41.50766" lon="20.51045">
        <ele>678.461818</ele>
        <time>2022-04-27T08:44:57.767Z</time>
      </trkpt>
      <trkpt lat="41.50757" lon="20.5103">
        <ele>678.315272</ele>
        <time>2022-04-27T08:44:59.785Z</time>
      </trkpt>
      <trkpt lat="41.5075" lon="20.51015">
        <ele>678.168601</ele>
        <time>2022-04-27T08:45:01.780Z</time>
      </trkpt>
      <trkpt lat="41.50742" lon="20.51">
        <ele>678.023889</ele>
        <time>2022-04-27T08:45:03.775Z</time>
      </trkpt>
      <trkpt lat="41.50735" lon="20.50983">
        <ele>677.873385</ele>
        <time>2022-04-27T08:45:05.764Z</time>
      </trkpt>
      <trkpt lat="41.50728" lon="20.50967">
        <ele>677.724486</ele>
        <time>2022-04-27T08:45:07.768Z</time>
      </trkpt>
      <trkpt lat="41.50721" lon="20.50951">
        <ele>677.578527</ele>
        <time>2022-04-27T08:45:09.775Z</time>
      </trkpt>
      <trkpt lat="41.50714" lon="20.50935">
        <ele>677.508203</ele>
        <time>2022-04-27T08:45:11.763Z</time>
      </trkpt>
      <trkpt lat="41.50708" lon="20.50919">
        <ele>677.521971</ele>
        <time>2022-04-27T08:45:13.781Z</time>
      </trkpt>
      <trkpt lat="41.50703" lon="20.50904">
        <ele>677.535201</ele>
        <time>2022-04-27T08:45:15.810Z</time>
      </trkpt>
      <trkpt lat="41.50698" lon="20.5089">
        <ele>677.547656</ele>
        <time>2022-04-27T08:45:17.769Z</time>
      </trkpt>
      <trkpt lat="41.50691" lon="20.50877">
        <ele>677.560168</ele>
        <time>2022-04-27T08:45:19.778Z</time>
      </trkpt>
      <trkpt lat="41.50684" lon="20.50864">
        <ele>677.572519</ele>
        <time>2022-04-27T08:45:21.783Z</time>
      </trkpt>
      <trkpt lat="41.50679" lon="20.50851">
        <ele>677.584869</ele>
        <time>2022-04-27T08:45:23.781Z</time>
      </trkpt>
      <trkpt lat="41.50673" lon="20.50837">
        <ele>677.597188</ele>
        <time>2022-04-27T08:45:25.780Z</time>
      </trkpt>
      <trkpt lat="41.50667" lon="20.50825">
        <ele>677.608961</ele>
        <time>2022-04-27T08:45:27.761Z</time>
      </trkpt>
      <trkpt lat="41.5066" lon="20.50813">
        <ele>677.620583</ele>
        <time>2022-04-27T08:45:29.768Z</time>
      </trkpt>
      <trkpt lat="41.50654" lon="20.50802">
        <ele>677.631511</ele>
        <time>2022-04-27T08:45:31.777Z</time>
      </trkpt>
      <trkpt lat="41.50647" lon="20.50791">
        <ele>677.642207</ele>
        <time>2022-04-27T08:45:33.781Z</time>
      </trkpt>
      <trkpt lat="41.5064" lon="20.50781">
        <ele>677.653008</ele>
        <time>2022-04-27T08:45:35.776Z</time>
      </trkpt>
      <trkpt lat="41.50633" lon="20.50772">
        <ele>677.663543</ele>
        <time>2022-04-27T08:45:37.781Z</time>
      </trkpt>
      <trkpt lat="41.50626" lon="20.50763">
        <ele>677.674059</ele>
        <time>2022-04-27T08:45:39.774Z</time>
      </trkpt>
      <trkpt lat="41.50619" lon="20.50754">
        <ele>677.683951</ele>
        <time>2022-04-27T08:45:41.778Z</time>
      </trkpt>
      <trkpt lat="41.50612" lon="20.50745">
        <ele>677.560888</ele>
        <time>2022-04-27T08:45:43.845Z</time>
      </trkpt>
      <trkpt lat="41.50604" lon="20.50737">
        <ele>677.17172</ele>
        <time>2022-04-27T08:45:45.753Z</time>
      </trkpt>
      <trkpt lat="41.50596" lon="20.50729">
        <ele>676.813353</ele>
        <time>2022-04-27T08:45:47.751Z</time>
      </trkpt>
      <trkpt lat="41.50589" lon="20.50722">
        <ele>676.452589</ele>
        <time>2022-04-27T08:45:49.798Z</time>
      </trkpt>
      <trkpt lat="41.50582" lon="20.50715">
        <ele>676.097266</ele>
        <time>2022-04-27T08:45:51.782Z</time>
      </trkpt>
      <trkpt lat="41.5057" lon="20.50704">
        <ele>675.573956</ele>
        <time>2022-04-27T08:45:54.771Z</time>
      </trkpt>
      <trkpt lat="41.5056" lon="20.50695">
        <ele>675.073174</ele>
        <time>2022-04-27T08:45:57.777Z</time>
      </trkpt>
      <trkpt lat="41.50549" lon="20.50686">
        <ele>674.596288</ele>
        <time>2022-04-27T08:46:00.772Z</time>
      </trkpt>
      <trkpt lat="41.50539" lon="20.50679">
        <ele>674.147454</ele>
        <time>2022-04-27T08:46:03.775Z</time>
      </trkpt>
      <trkpt lat="41.50528" lon="20.50671">
        <ele>673.679599</ele>
        <time>2022-04-27T08:46:06.773Z</time>
      </trkpt>
      <trkpt lat="41.50516" lon="20.50664">
        <ele>673.176114</ele>
        <time>2022-04-27T08:46:09.780Z</time>
      </trkpt>
      <trkpt lat="41.50504" lon="20.50657">
        <ele>672.661821</ele>
        <time>2022-04-27T08:46:12.825Z</time>
      </trkpt>
      <trkpt lat="41.50496" lon="20.50653">
        <ele>672.311116</ele>
        <time>2022-04-27T08:46:14.791Z</time>
      </trkpt>
      <trkpt lat="41.50487" lon="20.5065">
        <ele>671.960167</ele>
        <time>2022-04-27T08:46:16.781Z</time>
      </trkpt>
      <trkpt lat="41.50478" lon="20.50647">
        <ele>671.593536</ele>
        <time>2022-04-27T08:46:18.788Z</time>
      </trkpt>
      <trkpt lat="41.50469" lon="20.50643">
        <ele>671.236354</ele>
        <time>2022-04-27T08:46:20.779Z</time>
      </trkpt>
      <trkpt lat="41.5046" lon="20.5064">
        <ele>670.877226</ele>
        <time>2022-04-27T08:46:22.789Z</time>
      </trkpt>
      <trkpt lat="41.50451" lon="20.50637">
        <ele>670.682898</ele>
        <time>2022-04-27T08:46:24.778Z</time>
      </trkpt>
      <trkpt lat="41.50442" lon="20.50634">
        <ele>670.603583</ele>
        <time>2022-04-27T08:46:26.772Z</time>
      </trkpt>
      <trkpt lat="41.50432" lon="20.50632">
        <ele>670.522618</ele>
        <time>2022-04-27T08:46:28.777Z</time>
      </trkpt>
      <trkpt lat="41.50423" lon="20.5063">
        <ele>670.442234</ele>
        <time>2022-04-27T08:46:30.784Z</time>
      </trkpt>
      <trkpt lat="41.50414" lon="20.50628">
        <ele>670.362975</ele>
        <time>2022-04-27T08:46:32.781Z</time>
      </trkpt>
      <trkpt lat="41.504" lon="20.50627">
        <ele>670.248095</ele>
        <time>2022-04-27T08:46:35.775Z</time>
      </trkpt>
      <trkpt lat="41.5039" lon="20.50626">
        <ele>670.162759</ele>
        <time>2022-04-27T08:46:37.790Z</time>
      </trkpt>
      <trkpt lat="41.5038" lon="20.50625">
        <ele>670.077488</ele>
        <time>2022-04-27T08:46:39.796Z</time>
      </trkpt>
      <trkpt lat="41.5037" lon="20.50625">
        <ele>669.994794</ele>
        <time>2022-04-27T08:46:41.806Z</time>
      </trkpt>
      <trkpt lat="41.5036" lon="20.50625">
        <ele>669.911256</ele>
        <time>2022-04-27T08:46:43.755Z</time>
      </trkpt>
      <trkpt lat="41.5035" lon="20.50626">
        <ele>669.826854</ele>
        <time>2022-04-27T08:46:45.765Z</time>
      </trkpt>
      <trkpt lat="41.50339" lon="20.50626">
        <ele>669.73318</ele>
        <time>2022-04-27T08:46:47.780Z</time>
      </trkpt>
      <trkpt lat="41.50328" lon="20.50626">
        <ele>669.637873</ele>
        <time>2022-04-27T08:46:49.790Z</time>
      </trkpt>
      <trkpt lat="41.50316" lon="20.50626">
        <ele>669.535786</ele>
        <time>2022-04-27T08:46:51.818Z</time>
      </trkpt>
      <trkpt lat="41.50303" lon="20.50625">
        <ele>669.42858</ele>
        <time>2022-04-27T08:46:53.775Z</time>
      </trkpt>
      <trkpt lat="41.5029" lon="20.50624">
        <ele>669.315164</ele>
        <time>2022-04-27T08:46:55.784Z</time>
      </trkpt>
      <trkpt lat="41.50275" lon="20.50622">
        <ele>669.111125</ele>
        <time>2022-04-27T08:46:57.793Z</time>
      </trkpt>
      <trkpt lat="41.50261" lon="20.50617">
        <ele>668.43374</ele>
        <time>2022-04-27T08:46:59.780Z</time>
      </trkpt>
      <trkpt lat="41.50246" lon="20.50609">
        <ele>667.730445</ele>
        <time>2022-04-27T08:47:01.779Z</time>
      </trkpt>
      <trkpt lat="41.50233" lon="20.50597">
        <ele>667.001952</ele>
        <time>2022-04-27T08:47:03.805Z</time>
      </trkpt>
      <trkpt lat="41.50221" lon="20.50582">
        <ele>666.235528</ele>
        <time>2022-04-27T08:47:05.769Z</time>
      </trkpt>
      <trkpt lat="41.50208" lon="20.50564">
        <ele>665.426994</ele>
        <time>2022-04-27T08:47:07.778Z</time>
      </trkpt>
      <trkpt lat="41.50196" lon="20.50548">
        <ele>664.641091</ele>
        <time>2022-04-27T08:47:09.782Z</time>
      </trkpt>
      <trkpt lat="41.50184" lon="20.50533">
        <ele>663.89715</ele>
        <time>2022-04-27T08:47:11.769Z</time>
      </trkpt>
      <trkpt lat="41.5017" lon="20.5052">
        <ele>663.119734</ele>
        <time>2022-04-27T08:47:13.806Z</time>
      </trkpt>
      <trkpt lat="41.50154" lon="20.50509">
        <ele>662.318874</ele>
        <time>2022-04-27T08:47:15.776Z</time>
      </trkpt>
      <trkpt lat="41.50138" lon="20.50501">
        <ele>661.539486</ele>
        <time>2022-04-27T08:47:17.769Z</time>
      </trkpt>
      <trkpt lat="41.50122" lon="20.50495">
        <ele>660.863247</ele>
        <time>2022-04-27T08:47:19.811Z</time>
      </trkpt>
      <trkpt lat="41.50106" lon="20.5049">
        <ele>660.328095</ele>
        <time>2022-04-27T08:47:21.769Z</time>
      </trkpt>
      <trkpt lat="41.50091" lon="20.50483">
        <ele>659.79032</ele>
        <time>2022-04-27T08:47:23.780Z</time>
      </trkpt>
      <trkpt lat="41.50075" lon="20.50472">
        <ele>659.20848</ele>
        <time>2022-04-27T08:47:25.770Z</time>
      </trkpt>
      <trkpt lat="41.50061" lon="20.50459">
        <ele>658.630586</ele>
        <time>2022-04-27T08:47:27.774Z</time>
      </trkpt>
      <trkpt lat="41.50046" lon="20.50445">
        <ele>658.037257</ele>
        <time>2022-04-27T08:47:29.767Z</time>
      </trkpt>
      <trkpt lat="41.50039" lon="20.50437">
        <ele>657.73276</ele>
        <time>2022-04-27T08:47:30.824Z</time>
      </trkpt>
      <trkpt lat="41.50031" lon="20.50429">
        <ele>657.420018</ele>
        <time>2022-04-27T08:47:31.784Z</time>
      </trkpt>
      <trkpt lat="41.50024" lon="20.50421">
        <ele>657.100569</ele>
        <time>2022-04-27T08:47:32.806Z</time>
      </trkpt>
      <trkpt lat="41.50016" lon="20.50413">
        <ele>656.776996</ele>
        <time>2022-04-27T08:47:33.754Z</time>
      </trkpt>
      <trkpt lat="41.50009" lon="20.50406">
        <ele>656.469915</ele>
        <time>2022-04-27T08:47:34.773Z</time>
      </trkpt>
      <trkpt lat="41.50002" lon="20.50398">
        <ele>656.170755</ele>
        <time>2022-04-27T08:47:35.773Z</time>
      </trkpt>
      <trkpt lat="41.49989" lon="20.50382">
        <ele>655.597881</ele>
        <time>2022-04-27T08:47:37.768Z</time>
      </trkpt>
      <trkpt lat="41.49976" lon="20.50368">
        <ele>654.960692</ele>
        <time>2022-04-27T08:47:39.816Z</time>
      </trkpt>
      <trkpt lat="41.49961" lon="20.50356">
        <ele>653.880334</ele>
        <time>2022-04-27T08:47:41.810Z</time>
      </trkpt>
      <trkpt lat="41.49946" lon="20.50344">
        <ele>652.764396</ele>
        <time>2022-04-27T08:47:43.771Z</time>
      </trkpt>
      <trkpt lat="41.49937" lon="20.5034">
        <ele>652.188868</ele>
        <time>2022-04-27T08:47:44.771Z</time>
      </trkpt>
      <trkpt lat="41.49928" lon="20.50335">
        <ele>651.594948</ele>
        <time>2022-04-27T08:47:45.776Z</time>
      </trkpt>
      <trkpt lat="41.49919" lon="20.50332">
        <ele>650.987336</ele>
        <time>2022-04-27T08:47:46.778Z</time>
      </trkpt>
      <trkpt lat="41.4991" lon="20.50329">
        <ele>650.376854</ele>
        <time>2022-04-27T08:47:47.792Z</time>
      </trkpt>
      <trkpt lat="41.499" lon="20.50328">
        <ele>649.770337</ele>
        <time>2022-04-27T08:47:48.784Z</time>
      </trkpt>
      <trkpt lat="41.4989" lon="20.50327">
        <ele>649.148236</ele>
        <time>2022-04-27T08:47:49.773Z</time>
      </trkpt>
      <trkpt lat="41.4988" lon="20.50326">
        <ele>648.538087</ele>
        <time>2022-04-27T08:47:50.768Z</time>
      </trkpt>
      <trkpt lat="41.49871" lon="20.50325">
        <ele>647.94129</ele>
        <time>2022-04-27T08:47:51.764Z</time>
      </trkpt>
      <trkpt lat="41.49862" lon="20.50325">
        <ele>647.369313</ele>
        <time>2022-04-27T08:47:52.830Z</time>
      </trkpt>
      <trkpt lat="41.49852" lon="20.50324">
        <ele>646.772516</ele>
        <time>2022-04-27T08:47:53.753Z</time>
      </trkpt>
      <trkpt lat="41.49843" lon="20.50323">
        <ele>646.175719</ele>
        <time>2022-04-27T08:47:54.765Z</time>
      </trkpt>
      <trkpt lat="41.49834" lon="20.50323">
        <ele>645.591458</ele>
        <time>2022-04-27T08:47:55.790Z</time>
      </trkpt>
      <trkpt lat="41.49824" lon="20.50322">
        <ele>645.020118</ele>
        <time>2022-04-27T08:47:56.795Z</time>
      </trkpt>
      <trkpt lat="41.49808" lon="20.50323">
        <ele>643.984563</ele>
        <time>2022-04-27T08:47:58.770Z</time>
      </trkpt>
      <trkpt lat="41.49793" lon="20.50327">
        <ele>642.921898</ele>
        <time>2022-04-27T08:48:00.783Z</time>
      </trkpt>
      <trkpt lat="41.49778" lon="20.50336">
        <ele>641.819707</ele>
        <time>2022-04-27T08:48:02.762Z</time>
      </trkpt>
      <trkpt lat="41.49765" lon="20.5035">
        <ele>640.672371</ele>
        <time>2022-04-27T08:48:04.777Z</time>
      </trkpt>
      <trkpt lat="41.49755" lon="20.50369">
        <ele>639.480548</ele>
        <time>2022-04-27T08:48:06.784Z</time>
      </trkpt>
      <trkpt lat="41.49746" lon="20.50388">
        <ele>638.334373</ele>
        <time>2022-04-27T08:48:08.779Z</time>
      </trkpt>
      <trkpt lat="41.49739" lon="20.50405">
        <ele>637.318276</ele>
        <time>2022-04-27T08:48:10.765Z</time>
      </trkpt>
      <trkpt lat="41.49732" lon="20.50421">
        <ele>636.386113</ele>
        <time>2022-04-27T08:48:12.779Z</time>
      </trkpt>
      <trkpt lat="41.49725" lon="20.50436">
        <ele>635.453313</ele>
        <time>2022-04-27T08:48:14.824Z</time>
      </trkpt>
      <trkpt lat="41.49717" lon="20.50451">
        <ele>634.507349</ele>
        <time>2022-04-27T08:48:16.786Z</time>
      </trkpt>
      <trkpt lat="41.4971" lon="20.50465">
        <ele>633.6444</ele>
        <time>2022-04-27T08:48:18.772Z</time>
      </trkpt>
      <trkpt lat="41.49701" lon="20.50478">
        <ele>632.750501</ele>
        <time>2022-04-27T08:48:20.759Z</time>
      </trkpt>
      <trkpt lat="41.49691" lon="20.50488">
        <ele>631.905617</ele>
        <time>2022-04-27T08:48:22.763Z</time>
      </trkpt>
      <trkpt lat="41.49682" lon="20.50498">
        <ele>631.396936</ele>
        <time>2022-04-27T08:48:24.774Z</time>
      </trkpt>
      <trkpt lat="41.49673" lon="20.50506">
        <ele>631.169673</ele>
        <time>2022-04-27T08:48:26.773Z</time>
      </trkpt>
      <trkpt lat="41.49663" lon="20.50515">
        <ele>630.938259</ele>
        <time>2022-04-27T08:48:28.786Z</time>
      </trkpt>
      <trkpt lat="41.49653" lon="20.50523">
        <ele>630.6993</ele>
        <time>2022-04-27T08:48:30.783Z</time>
      </trkpt>
      <trkpt lat="41.49644" lon="20.50532">
        <ele>630.462852</ele>
        <time>2022-04-27T08:48:32.767Z</time>
      </trkpt>
      <trkpt lat="41.49634" lon="20.50541">
        <ele>630.223893</ele>
        <time>2022-04-27T08:48:34.784Z</time>
      </trkpt>
      <trkpt lat="41.49623" lon="20.5055">
        <ele>629.963897</ele>
        <time>2022-04-27T08:48:36.787Z</time>
      </trkpt>
      <trkpt lat="41.49611" lon="20.50559">
        <ele>629.692501</ele>
        <time>2022-04-27T08:48:38.770Z</time>
      </trkpt>
      <trkpt lat="41.496" lon="20.50566">
        <ele>629.438742</ele>
        <time>2022-04-27T08:48:40.761Z</time>
      </trkpt>
      <trkpt lat="41.49588" lon="20.50573">
        <ele>629.191298</ele>
        <time>2022-04-27T08:48:42.811Z</time>
      </trkpt>
      <trkpt lat="41.49578" lon="20.50577">
        <ele>628.971344</ele>
        <time>2022-04-27T08:48:44.817Z</time>
      </trkpt>
      <trkpt lat="41.49568" lon="20.50581">
        <ele>628.764016</ele>
        <time>2022-04-27T08:48:46.773Z</time>
      </trkpt>
      <trkpt lat="41.49558" lon="20.50584">
        <ele>628.547523</ele>
        <time>2022-04-27T08:48:48.769Z</time>
      </trkpt>
      <trkpt lat="41.49548" lon="20.50587">
        <ele>628.348738</ele>
        <time>2022-04-27T08:48:50.769Z</time>
      </trkpt>
      <trkpt lat="41.49539" lon="20.50589">
        <ele>628.154881</ele>
        <time>2022-04-27T08:48:52.774Z</time>
      </trkpt>
      <trkpt lat="41.49529" lon="20.50592">
        <ele>627.954132</ele>
        <time>2022-04-27T08:48:54.792Z</time>
      </trkpt>
      <trkpt lat="41.49519" lon="20.50596">
        <ele>627.683523</ele>
        <time>2022-04-27T08:48:56.781Z</time>
      </trkpt>
      <trkpt lat="41.49509" lon="20.50599">
        <ele>627.406803</ele>
        <time>2022-04-27T08:48:58.754Z</time>
      </trkpt>
      <trkpt lat="41.49498" lon="20.50601">
        <ele>627.066976</ele>
        <time>2022-04-27T08:49:01.769Z</time>
      </trkpt>
      <trkpt lat="41.49486" lon="20.50602">
        <ele>626.727935</ele>
        <time>2022-04-27T08:49:04.800Z</time>
      </trkpt>
      <trkpt lat="41.49475" lon="20.50604">
        <ele>626.427055</ele>
        <time>2022-04-27T08:49:07.768Z</time>
      </trkpt>
      <trkpt lat="41.49465" lon="20.50605">
        <ele>626.129239</ele>
        <time>2022-04-27T08:49:10.814Z</time>
      </trkpt>
      <trkpt lat="41.49453" lon="20.50607">
        <ele>625.801302</ele>
        <time>2022-04-27T08:49:14.784Z</time>
      </trkpt>
      <trkpt lat="41.49442" lon="20.50605">
        <ele>625.482415</ele>
        <time>2022-04-27T08:49:18.776Z</time>
      </trkpt>
      <trkpt lat="41.49433" lon="20.50603">
        <ele>625.220185</ele>
        <time>2022-04-27T08:49:21.812Z</time>
      </trkpt>
      <trkpt lat="41.49424" lon="20.50605">
        <ele>624.953731</ele>
        <time>2022-04-27T08:49:24.786Z</time>
      </trkpt>
      <trkpt lat="41.49414" lon="20.50606">
        <ele>624.679883</ele>
        <time>2022-04-27T08:49:27.812Z</time>
      </trkpt>
      <trkpt lat="41.49405" lon="20.50607">
        <ele>624.407997</ele>
        <time>2022-04-27T08:49:30.780Z</time>
      </trkpt>
      <trkpt lat="41.49396" lon="20.50607">
        <ele>624.151682</ele>
        <time>2022-04-27T08:49:33.776Z</time>
      </trkpt>
      <trkpt lat="41.49386" lon="20.50607">
        <ele>623.875486</ele>
        <time>2022-04-27T08:49:36.787Z</time>
      </trkpt>
      <trkpt lat="41.49376" lon="20.50608">
        <ele>623.58765</ele>
        <time>2022-04-27T08:49:39.774Z</time>
      </trkpt>
      <trkpt lat="41.49366" lon="20.50609">
        <ele>623.30319</ele>
        <time>2022-04-27T08:49:42.772Z</time>
      </trkpt>
      <trkpt lat="41.49355" lon="20.50611">
        <ele>622.993322</ele>
        <time>2022-04-27T08:49:45.768Z</time>
      </trkpt>
      <trkpt lat="41.49344" lon="20.50613">
        <ele>622.807626</ele>
        <time>2022-04-27T08:49:48.774Z</time>
      </trkpt>
      <trkpt lat="41.49332" lon="20.50614">
        <ele>622.934385</ele>
        <time>2022-04-27T08:49:51.774Z</time>
      </trkpt>
      <trkpt lat="41.4932" lon="20.50615">
        <ele>623.066435</ele>
        <time>2022-04-27T08:49:54.774Z</time>
      </trkpt>
      <trkpt lat="41.49307" lon="20.50616">
        <ele>623.197174</ele>
        <time>2022-04-27T08:49:57.783Z</time>
      </trkpt>
      <trkpt lat="41.49295" lon="20.50617">
        <ele>623.330169</ele>
        <time>2022-04-27T08:50:00.809Z</time>
      </trkpt>
      <trkpt lat="41.49282" lon="20.50619">
        <ele>623.46764</ele>
        <time>2022-04-27T08:50:03.792Z</time>
      </trkpt>
      <trkpt lat="41.49269" lon="20.5062">
        <ele>623.606944</ele>
        <time>2022-04-27T08:50:06.812Z</time>
      </trkpt>
      <trkpt lat="41.49256" lon="20.50621">
        <ele>623.748415</ele>
        <time>2022-04-27T08:50:09.777Z</time>
      </trkpt>
      <trkpt lat="41.49243" lon="20.50622">
        <ele>623.884901</ele>
        <time>2022-04-27T08:50:12.762Z</time>
      </trkpt>
      <trkpt lat="41.49231" lon="20.50626">
        <ele>624.014099</ele>
        <time>2022-04-27T08:50:15.776Z</time>
      </trkpt>
      <trkpt lat="41.4922" lon="20.50632">
        <ele>624.137311</ele>
        <time>2022-04-27T08:50:18.774Z</time>
      </trkpt>
      <trkpt lat="41.49211" lon="20.50643">
        <ele>624.267942</ele>
        <time>2022-04-27T08:50:21.784Z</time>
      </trkpt>
      <trkpt lat="41.49205" lon="20.50655">
        <ele>624.382016</ele>
        <time>2022-04-27T08:50:24.768Z</time>
      </trkpt>
      <trkpt lat="41.49201" lon="20.50669">
        <ele>624.503405</ele>
        <time>2022-04-27T08:50:28.806Z</time>
      </trkpt>
      <trkpt lat="41.492" lon="20.50682">
        <ele>624.604862</ele>
        <time>2022-04-27T08:50:32.769Z</time>
      </trkpt>
      <trkpt lat="41.49199" lon="20.50695">
        <ele>624.831789</ele>
        <time>2022-04-27T08:50:37.782Z</time>
      </trkpt>
      <trkpt lat="41.49199" lon="20.50708">
        <ele>625.374418</ele>
        <time>2022-04-27T08:50:42.772Z</time>
      </trkpt>
      <trkpt lat="41.49198" lon="20.50721">
        <ele>625.883302</ele>
        <time>2022-04-27T08:50:47.773Z</time>
      </trkpt>
      <trkpt lat="41.49197" lon="20.50733">
        <ele>626.374156</ele>
        <time>2022-04-27T08:50:52.758Z</time>
      </trkpt>
      <trkpt lat="41.49195" lon="20.50746">
        <ele>626.885188</ele>
        <time>2022-04-27T08:50:57.828Z</time>
      </trkpt>
      <trkpt lat="41.49189" lon="20.50756">
        <ele>627.396044</ele>
        <time>2022-04-27T08:51:02.766Z</time>
      </trkpt>
      <trkpt lat="41.49184" lon="20.50766">
        <ele>627.878158</ele>
        <time>2022-04-27T08:51:07.799Z</time>
      </trkpt>
      <trkpt lat="41.49177" lon="20.50776">
        <ele>628.433619</ele>
        <time>2022-04-27T08:51:13.773Z</time>
      </trkpt>
      <trkpt lat="41.4917" lon="20.50786">
        <ele>628.938857</ele>
        <time>2022-04-27T08:51:19.784Z</time>
      </trkpt>
      <trkpt lat="41.49163" lon="20.50795">
        <ele>629.496064</ele>
        <time>2022-04-27T08:51:25.769Z</time>
      </trkpt>
      <trkpt lat="41.49158" lon="20.50805">
        <ele>629.978666</ele>
        <time>2022-04-27T08:51:31.787Z</time>
      </trkpt>
      <trkpt lat="41.49151" lon="20.50816">
        <ele>630.537453</ele>
        <time>2022-04-27T08:51:38.790Z</time>
      </trkpt>
      <trkpt lat="41.49145" lon="20.50826">
        <ele>631.045754</ele>
        <time>2022-04-27T08:51:44.774Z</time>
      </trkpt>
      <trkpt lat="41.49138" lon="20.50835">
        <ele>631.571045</ele>
        <time>2022-04-27T08:51:50.761Z</time>
      </trkpt>
      <trkpt lat="41.49132" lon="20.50845">
        <ele>632.078457</ele>
        <time>2022-04-27T08:51:56.774Z</time>
      </trkpt>
      <trkpt lat="41.49125" lon="20.50854">
        <ele>632.579322</ele>
        <time>2022-04-27T08:52:02.780Z</time>
      </trkpt>
      <trkpt lat="41.49117" lon="20.50862">
        <ele>633.128839</ele>
        <time>2022-04-27T08:52:09.800Z</time>
      </trkpt>
      <trkpt lat="41.49109" lon="20.50871">
        <ele>633.67014</ele>
        <time>2022-04-27T08:52:15.820Z</time>
      </trkpt>
      <trkpt lat="41.49103" lon="20.5088">
        <ele>634.167397</ele>
        <time>2022-04-27T08:52:21.753Z</time>
      </trkpt>
      <trkpt lat="41.49096" lon="20.50889">
        <ele>635.075544</ele>
        <time>2022-04-27T08:52:27.771Z</time>
      </trkpt>
      <trkpt lat="41.49089" lon="20.50898">
        <ele>636.196571</ele>
        <time>2022-04-27T08:52:34.765Z</time>
      </trkpt>
      <trkpt lat="41.49082" lon="20.50906">
        <ele>637.180135</ele>
        <time>2022-04-27T08:52:40.780Z</time>
      </trkpt>
      <trkpt lat="41.49075" lon="20.50915">
        <ele>638.166749</ele>
        <time>2022-04-27T08:52:46.790Z</time>
      </trkpt>
      <trkpt lat="41.49068" lon="20.50925">
        <ele>639.29849</ele>
        <time>2022-04-27T08:52:53.850Z</time>
      </trkpt>
      <trkpt lat="41.49062" lon="20.50935">
        <ele>640.390091</ele>
        <time>2022-04-27T08:53:00.800Z</time>
      </trkpt>
      <trkpt lat="41.49054" lon="20.50944">
        <ele>641.529769</ele>
        <time>2022-04-27T08:53:07.785Z</time>
      </trkpt>
      <trkpt lat="41.49046" lon="20.50952">
        <ele>642.592955</ele>
        <time>2022-04-27T08:53:13.782Z</time>
      </trkpt>
      <trkpt lat="41.49038" lon="20.50958">
        <ele>643.587513</ele>
        <time>2022-04-27T08:53:19.758Z</time>
      </trkpt>
      <trkpt lat="41.49029" lon="20.50964">
        <ele>644.642346</ele>
        <time>2022-04-27T08:53:25.774Z</time>
      </trkpt>
      <trkpt lat="41.49021" lon="20.50971">
        <ele>645.695502</ele>
        <time>2022-04-27T08:53:31.797Z</time>
      </trkpt>
      <trkpt lat="41.49013" lon="20.50976">
        <ele>646.674332</ele>
        <time>2022-04-27T08:53:37.762Z</time>
      </trkpt>
      <trkpt lat="41.49003" lon="20.50981">
        <ele>647.805363</ele>
        <time>2022-04-27T08:53:43.809Z</time>
      </trkpt>
      <trkpt lat="41.48994" lon="20.50987">
        <ele>648.872461</ele>
        <time>2022-04-27T08:53:49.809Z</time>
      </trkpt>
      <trkpt lat="41.48986" lon="20.50993">
        <ele>649.852113</ele>
        <time>2022-04-27T08:53:55.822Z</time>
      </trkpt>
      <trkpt lat="41.48978" lon="20.50998">
        <ele>650.85838</ele>
        <time>2022-04-27T08:54:01.781Z</time>
      </trkpt>
      <trkpt lat="41.48969" lon="20.51004">
        <ele>651.890195</ele>
        <time>2022-04-27T08:54:08.793Z</time>
      </trkpt>
      <trkpt lat="41.48961" lon="20.5101">
        <ele>652.898124</ele>
        <time>2022-04-27T08:54:14.769Z</time>
      </trkpt>
      <trkpt lat="41.48953" lon="20.51015">
        <ele>653.850816</ele>
        <time>2022-04-27T08:54:20.781Z</time>
      </trkpt>
      <trkpt lat="41.48944" lon="20.51022">
        <ele>654.662029</ele>
        <time>2022-04-27T08:54:26.769Z</time>
      </trkpt>
      <trkpt lat="41.48935" lon="20.51028">
        <ele>655.424934</ele>
        <time>2022-04-27T08:54:32.787Z</time>
      </trkpt>
      <trkpt lat="41.48926" lon="20.51035">
        <ele>656.254045</ele>
        <time>2022-04-27T08:54:38.772Z</time>
      </trkpt>
      <trkpt lat="41.48918" lon="20.51042">
        <ele>657.057646</ele>
        <time>2022-04-27T08:54:45.770Z</time>
      </trkpt>
      <trkpt lat="41.4891" lon="20.51048">
        <ele>657.817874</ele>
        <time>2022-04-27T08:54:52.774Z</time>
      </trkpt>
      <trkpt lat="41.48902" lon="20.51057">
        <ele>658.576833</ele>
        <time>2022-04-27T08:54:59.777Z</time>
      </trkpt>
      <trkpt lat="41.48894" lon="20.51065">
        <ele>659.407802</ele>
        <time>2022-04-27T08:55:06.760Z</time>
      </trkpt>
      <trkpt lat="41.48886" lon="20.51073">
        <ele>660.205269</ele>
        <time>2022-04-27T08:55:13.757Z</time>
      </trkpt>
      <trkpt lat="41.48878" lon="20.51081">
        <ele>660.997363</ele>
        <time>2022-04-27T08:55:20.789Z</time>
      </trkpt>
      <trkpt lat="41.4887" lon="20.51088">
        <ele>661.777454</ele>
        <time>2022-04-27T08:55:26.767Z</time>
      </trkpt>
      <trkpt lat="41.48862" lon="20.51096">
        <ele>662.58384</ele>
        <time>2022-04-27T08:55:32.800Z</time>
      </trkpt>
      <trkpt lat="41.48853" lon="20.51103">
        <ele>663.418792</ele>
        <time>2022-04-27T08:55:39.752Z</time>
      </trkpt>
      <trkpt lat="41.48844" lon="20.51109">
        <ele>664.231196</ele>
        <time>2022-04-27T08:55:45.814Z</time>
      </trkpt>
      <trkpt lat="41.48836" lon="20.51116">
        <ele>664.988792</ele>
        <time>2022-04-27T08:55:51.776Z</time>
      </trkpt>
      <trkpt lat="41.48828" lon="20.51124">
        <ele>665.789121</ele>
        <time>2022-04-27T08:55:57.774Z</time>
      </trkpt>
      <trkpt lat="41.48819" lon="20.51129">
        <ele>666.518104</ele>
        <time>2022-04-27T08:56:03.771Z</time>
      </trkpt>
      <trkpt lat="41.48811" lon="20.51134">
        <ele>667.24022</ele>
        <time>2022-04-27T08:56:09.784Z</time>
      </trkpt>
      <trkpt lat="41.48803" lon="20.5114">
        <ele>668.015877</ele>
        <time>2022-04-27T08:56:16.789Z</time>
      </trkpt>
      <trkpt lat="41.48793" lon="20.51145">
        <ele>668.632693</ele>
        <time>2022-04-27T08:56:23.809Z</time>
      </trkpt>
      <trkpt lat="41.48783" lon="20.5115">
        <ele>669.227803</ele>
        <time>2022-04-27T08:56:30.803Z</time>
      </trkpt>
      <trkpt lat="41.48774" lon="20.51154">
        <ele>669.779572</ele>
        <time>2022-04-27T08:56:36.778Z</time>
      </trkpt>
      <trkpt lat="41.48764" lon="20.51158">
        <ele>670.35092</ele>
        <time>2022-04-27T08:56:42.764Z</time>
      </trkpt>
      <trkpt lat="41.48755" lon="20.51161">
        <ele>670.886772</ele>
        <time>2022-04-27T08:56:48.768Z</time>
      </trkpt>
      <trkpt lat="41.48745" lon="20.51162">
        <ele>671.470709</ele>
        <time>2022-04-27T08:56:55.780Z</time>
      </trkpt>
      <trkpt lat="41.48735" lon="20.51164">
        <ele>672.06768</ele>
        <time>2022-04-27T08:57:02.812Z</time>
      </trkpt>
      <trkpt lat="41.48725" lon="20.51166">
        <ele>672.638404</ele>
        <time>2022-04-27T08:57:08.779Z</time>
      </trkpt>
      <trkpt lat="41.48716" lon="20.51168">
        <ele>673.180155</ele>
        <time>2022-04-27T08:57:14.786Z</time>
      </trkpt>
      <trkpt lat="41.48706" lon="20.5117">
        <ele>673.763141</ele>
        <time>2022-04-27T08:57:21.801Z</time>
      </trkpt>
      <trkpt lat="41.48695" lon="20.5117">
        <ele>674.366036</ele>
        <time>2022-04-27T08:57:29.761Z</time>
      </trkpt>
      <trkpt lat="41.48686" lon="20.51169">
        <ele>674.91161</ele>
        <time>2022-04-27T08:57:36.764Z</time>
      </trkpt>
      <trkpt lat="41.48677" lon="20.51169">
        <ele>675.434137</ele>
        <time>2022-04-27T08:57:43.769Z</time>
      </trkpt>
      <trkpt lat="41.48666" lon="20.5117">
        <ele>676.037952</ele>
        <time>2022-04-27T08:57:51.785Z</time>
      </trkpt>
      <trkpt lat="41.48657" lon="20.5117">
        <ele>676.560478</ele>
        <time>2022-04-27T08:57:57.783Z</time>
      </trkpt>
      <trkpt lat="41.48648" lon="20.51169">
        <ele>677.089306</ele>
        <time>2022-04-27T08:58:04.783Z</time>
      </trkpt>
      <trkpt lat="41.48637" lon="20.51169">
        <ele>677.693381</ele>
        <time>2022-04-27T08:58:11.781Z</time>
      </trkpt>
      <trkpt lat="41.48628" lon="20.51168">
        <ele>678.262174</ele>
        <time>2022-04-27T08:58:18.759Z</time>
      </trkpt>
      <trkpt lat="41.48617" lon="20.51167">
        <ele>678.870366</ele>
        <time>2022-04-27T08:58:26.785Z</time>
      </trkpt>
      <trkpt lat="41.48608" lon="20.51167">
        <ele>679.391297</ele>
        <time>2022-04-27T08:58:33.770Z</time>
      </trkpt>
      <trkpt lat="41.48598" lon="20.51167">
        <ele>679.912435</ele>
        <time>2022-04-27T08:58:39.773Z</time>
      </trkpt>
      <trkpt lat="41.48589" lon="20.51165">
        <ele>680.436017</ele>
        <time>2022-04-27T08:58:45.765Z</time>
      </trkpt>
      <trkpt lat="41.4858" lon="20.51164">
        <ele>680.986821</ele>
        <time>2022-04-27T08:58:52.775Z</time>
      </trkpt>
      <trkpt lat="41.48571" lon="20.51162">
        <ele>681.495248</ele>
        <time>2022-04-27T08:58:59.766Z</time>
      </trkpt>
      <trkpt lat="41.4856" lon="20.51161">
        <ele>682.096584</ele>
        <time>2022-04-27T08:59:06.792Z</time>
      </trkpt>
      <trkpt lat="41.4855" lon="20.51159">
        <ele>682.659925</ele>
        <time>2022-04-27T08:59:12.772Z</time>
      </trkpt>
      <trkpt lat="41.48541" lon="20.51158">
        <ele>683.187063</ele>
        <time>2022-04-27T08:59:18.805Z</time>
      </trkpt>
      <trkpt lat="41.48531" lon="20.51156">
        <ele>683.742504</ele>
        <time>2022-04-27T08:59:24.781Z</time>
      </trkpt>
      <trkpt lat="41.48521" lon="20.51154">
        <ele>684.322219</ele>
        <time>2022-04-27T08:59:31.791Z</time>
      </trkpt>
      <trkpt lat="41.48511" lon="20.51153">
        <ele>684.890293</ele>
        <time>2022-04-27T08:59:38.775Z</time>
      </trkpt>
      <trkpt lat="41.48502" lon="20.51152">
        <ele>685.401963</ele>
        <time>2022-04-27T08:59:44.771Z</time>
      </trkpt>
      <trkpt lat="41.48492" lon="20.51149">
        <ele>685.978653</ele>
        <time>2022-04-27T08:59:52.764Z</time>
      </trkpt>
      <trkpt lat="41.48483" lon="20.5115">
        <ele>686.517318</ele>
        <time>2022-04-27T08:59:58.770Z</time>
      </trkpt>
      <trkpt lat="41.48474" lon="20.51148">
        <ele>687.032545</ele>
        <time>2022-04-27T09:00:05.774Z</time>
      </trkpt>
      <trkpt lat="41.48465" lon="20.51147">
        <ele>687.538986</ele>
        <time>2022-04-27T09:00:11.773Z</time>
      </trkpt>
      <trkpt lat="41.48455" lon="20.51146">
        <ele>688.123988</ele>
        <time>2022-04-27T09:00:18.769Z</time>
      </trkpt>
      <trkpt lat="41.48445" lon="20.51144">
        <ele>688.701762</ele>
        <time>2022-04-27T09:00:25.768Z</time>
      </trkpt>
      <trkpt lat="41.48435" lon="20.51141">
        <ele>689.510035</ele>
        <time>2022-04-27T09:00:32.755Z</time>
      </trkpt>
      <trkpt lat="41.48426" lon="20.51138">
        <ele>690.23912</ele>
        <time>2022-04-27T09:00:38.780Z</time>
      </trkpt>
      <trkpt lat="41.48417" lon="20.51134">
        <ele>691.048668</ele>
        <time>2022-04-27T09:00:45.808Z</time>
      </trkpt>
      <trkpt lat="41.48407" lon="20.51131">
        <ele>691.843677</ele>
        <time>2022-04-27T09:00:52.765Z</time>
      </trkpt>
      <trkpt lat="41.48398" lon="20.51126">
        <ele>692.654275</ele>
        <time>2022-04-27T09:00:59.779Z</time>
      </trkpt>
      <trkpt lat="41.48389" lon="20.51121">
        <ele>693.442598</ele>
        <time>2022-04-27T09:01:07.781Z</time>
      </trkpt>
      <trkpt lat="41.4838" lon="20.51117">
        <ele>694.196823</ele>
        <time>2022-04-27T09:01:13.804Z</time>
      </trkpt>
      <trkpt lat="41.4837" lon="20.51111">
        <ele>695.041067</ele>
        <time>2022-04-27T09:01:19.813Z</time>
      </trkpt>
      <trkpt lat="41.48361" lon="20.51106">
        <ele>695.868771</ele>
        <time>2022-04-27T09:01:26.785Z</time>
      </trkpt>
      <trkpt lat="41.48351" lon="20.51106">
        <ele>696.613872</ele>
        <time>2022-04-27T09:01:32.793Z</time>
      </trkpt>
      <trkpt lat="41.48341" lon="20.51105">
        <ele>697.401222</ele>
        <time>2022-04-27T09:01:39.786Z</time>
      </trkpt>
      <trkpt lat="41.48331" lon="20.51104">
        <ele>698.22688</ele>
        <time>2022-04-27T09:01:46.776Z</time>
      </trkpt>
      <trkpt lat="41.48322" lon="20.51106">
        <ele>699.001168</ele>
        <time>2022-04-27T09:01:53.774Z</time>
      </trkpt>
      <trkpt lat="41.48312" lon="20.51108">
        <ele>699.792828</ele>
        <time>2022-04-27T09:02:00.770Z</time>
      </trkpt>
      <trkpt lat="41.48302" lon="20.51111">
        <ele>700.59963</ele>
        <time>2022-04-27T09:02:06.781Z</time>
      </trkpt>
      <trkpt lat="41.48293" lon="20.51115">
        <ele>701.336753</ele>
        <time>2022-04-27T09:02:12.779Z</time>
      </trkpt>
      <trkpt lat="41.48285" lon="20.5112">
        <ele>702.077371</ele>
        <time>2022-04-27T09:02:18.776Z</time>
      </trkpt>
      <trkpt lat="41.48275" lon="20.51125">
        <ele>702.90001</ele>
        <time>2022-04-27T09:02:25.775Z</time>
      </trkpt>
      <trkpt lat="41.48265" lon="20.51129">
        <ele>703.56071</ele>
        <time>2022-04-27T09:02:31.770Z</time>
      </trkpt>
      <trkpt lat="41.48256" lon="20.5113">
        <ele>704.12748</ele>
        <time>2022-04-27T09:02:37.777Z</time>
      </trkpt>
      <trkpt lat="41.48246" lon="20.51133">
        <ele>704.756175</ele>
        <time>2022-04-27T09:02:43.771Z</time>
      </trkpt>
      <trkpt lat="41.48237" lon="20.51134">
        <ele>705.350854</ele>
        <time>2022-04-27T09:02:50.786Z</time>
      </trkpt>
      <trkpt lat="41.48227" lon="20.51133">
        <ele>705.963966</ele>
        <time>2022-04-27T09:02:57.780Z</time>
      </trkpt>
      <trkpt lat="41.48218" lon="20.51132">
        <ele>706.531249</ele>
        <time>2022-04-27T09:03:03.782Z</time>
      </trkpt>
      <trkpt lat="41.48209" lon="20.51129">
        <ele>707.107566</ele>
        <time>2022-04-27T09:03:09.820Z</time>
      </trkpt>
      <trkpt lat="41.48199" lon="20.51127">
        <ele>707.727261</ele>
        <time>2022-04-27T09:03:15.765Z</time>
      </trkpt>
      <trkpt lat="41.48189" lon="20.51124">
        <ele>708.348898</ele>
        <time>2022-04-27T09:03:21.786Z</time>
      </trkpt>
      <trkpt lat="41.4818" lon="20.51121">
        <ele>708.911199</ele>
        <time>2022-04-27T09:03:27.778Z</time>
      </trkpt>
      <trkpt lat="41.4817" lon="20.51117">
        <ele>709.548615</ele>
        <time>2022-04-27T09:03:34.789Z</time>
      </trkpt>
      <trkpt lat="41.4816" lon="20.51117">
        <ele>710.168337</ele>
        <time>2022-04-27T09:03:40.780Z</time>
      </trkpt>
      <trkpt lat="41.4815" lon="20.51117">
        <ele>710.812397</ele>
        <time>2022-04-27T09:03:46.775Z</time>
      </trkpt>
      <trkpt lat="41.48141" lon="20.51115">
        <ele>711.408733</ele>
        <time>2022-04-27T09:03:51.769Z</time>
      </trkpt>
      <trkpt lat="41.48132" lon="20.51114">
        <ele>711.967326</ele>
        <time>2022-04-27T09:03:56.780Z</time>
      </trkpt>
      <trkpt lat="41.48122" lon="20.51113">
        <ele>712.58086</ele>
        <time>2022-04-27T09:04:02.770Z</time>
      </trkpt>
      <trkpt lat="41.48112" lon="20.51115">
        <ele>713.192285</ele>
        <time>2022-04-27T09:04:08.777Z</time>
      </trkpt>
      <trkpt lat="41.48103" lon="20.51117">
        <ele>713.755523</ele>
        <time>2022-04-27T09:04:13.773Z</time>
      </trkpt>
      <trkpt lat="41.48094" lon="20.51121">
        <ele>714.302292</ele>
        <time>2022-04-27T09:04:18.784Z</time>
      </trkpt>
      <trkpt lat="41.48085" lon="20.51124">
        <ele>714.775855</ele>
        <time>2022-04-27T09:04:23.771Z</time>
      </trkpt>
      <trkpt lat="41.48076" lon="20.51127">
        <ele>715.27858</ele>
        <time>2022-04-27T09:04:28.765Z</time>
      </trkpt>
      <trkpt lat="41.48068" lon="20.51133">
        <ele>715.766779</ele>
        <time>2022-04-27T09:04:33.824Z</time>
      </trkpt>
      <trkpt lat="41.4806" lon="20.51141">
        <ele>716.302784</ele>
        <time>2022-04-27T09:04:39.752Z</time>
      </trkpt>
      <trkpt lat="41.48052" lon="20.51149">
        <ele>716.817524</ele>
        <time>2022-04-27T09:04:45.769Z</time>
      </trkpt>
      <trkpt lat="41.48046" lon="20.51158">
        <ele>717.301974</ele>
        <time>2022-04-27T09:04:51.774Z</time>
      </trkpt>
      <trkpt lat="41.48038" lon="20.51167">
        <ele>717.851066</ele>
        <time>2022-04-27T09:04:56.786Z</time>
      </trkpt>
      <trkpt lat="41.4803" lon="20.51174">
        <ele>718.340168</ele>
        <time>2022-04-27T09:05:01.813Z</time>
      </trkpt>
      <trkpt lat="41.48024" lon="20.51183">
        <ele>718.837637</ele>
        <time>2022-04-27T09:05:06.776Z</time>
      </trkpt>
      <trkpt lat="41.48016" lon="20.51192">
        <ele>719.357726</ele>
        <time>2022-04-27T09:05:11.777Z</time>
      </trkpt>
      <trkpt lat="41.48008" lon="20.51201">
        <ele>719.914148</ele>
        <time>2022-04-27T09:05:16.772Z</time>
      </trkpt>
      <trkpt lat="41.48001" lon="20.51208">
        <ele>720.394649</ele>
        <time>2022-04-27T09:05:20.776Z</time>
      </trkpt>
      <trkpt lat="41.47993" lon="20.51215">
        <ele>720.882162</ele>
        <time>2022-04-27T09:05:24.772Z</time>
      </trkpt>
      <trkpt lat="41.47984" lon="20.51223">
        <ele>721.461056</ele>
        <time>2022-04-27T09:05:29.776Z</time>
      </trkpt>
      <trkpt lat="41.47976" lon="20.51229">
        <ele>721.953195</ele>
        <time>2022-04-27T09:05:33.795Z</time>
      </trkpt>
      <trkpt lat="41.47967" lon="20.51234">
        <ele>722.449365</ele>
        <time>2022-04-27T09:05:37.774Z</time>
      </trkpt>
      <trkpt lat="41.47957" lon="20.51239">
        <ele>723.013342</ele>
        <time>2022-04-27T09:05:41.822Z</time>
      </trkpt>
      <trkpt lat="41.47947" lon="20.51243">
        <ele>723.55483</ele>
        <time>2022-04-27T09:05:45.804Z</time>
      </trkpt>
      <trkpt lat="41.47936" lon="20.51245">
        <ele>723.389475</ele>
        <time>2022-04-27T09:05:49.810Z</time>
      </trkpt>
      <trkpt lat="41.47925" lon="20.51248">
        <ele>723.139543</ele>
        <time>2022-04-27T09:05:54.777Z</time>
      </trkpt>
      <trkpt lat="41.47915" lon="20.51247">
        <ele>722.92075</ele>
        <time>2022-04-27T09:05:58.813Z</time>
      </trkpt>
      <trkpt lat="41.47904" lon="20.51247">
        <ele>722.680013</ele>
        <time>2022-04-27T09:06:02.795Z</time>
      </trkpt>
      <trkpt lat="41.47894" lon="20.51246">
        <ele>722.449811</ele>
        <time>2022-04-27T09:06:06.773Z</time>
      </trkpt>
      <trkpt lat="41.47884" lon="20.51243">
        <ele>722.217074</ele>
        <time>2022-04-27T09:06:10.768Z</time>
      </trkpt>
      <trkpt lat="41.47873" lon="20.51241">
        <ele>721.9778</ele>
        <time>2022-04-27T09:06:14.776Z</time>
      </trkpt>
      <trkpt lat="41.47863" lon="20.51238">
        <ele>721.763699</ele>
        <time>2022-04-27T09:06:18.783Z</time>
      </trkpt>
      <trkpt lat="41.47854" lon="20.51235">
        <ele>721.538419</ele>
        <time>2022-04-27T09:06:22.791Z</time>
      </trkpt>
      <trkpt lat="41.47844" lon="20.51232">
        <ele>721.312314</ele>
        <time>2022-04-27T09:06:26.778Z</time>
      </trkpt>
      <trkpt lat="41.47834" lon="20.51227">
        <ele>721.085574</ele>
        <time>2022-04-27T09:06:30.800Z</time>
      </trkpt>
      <trkpt lat="41.47823" lon="20.51224">
        <ele>720.841685</ele>
        <time>2022-04-27T09:06:34.781Z</time>
      </trkpt>
      <trkpt lat="41.47813" lon="20.5122">
        <ele>720.609557</ele>
        <time>2022-04-27T09:06:38.760Z</time>
      </trkpt>
      <trkpt lat="41.47802" lon="20.51216">
        <ele>720.349322</ele>
        <time>2022-04-27T09:06:42.785Z</time>
      </trkpt>
      <trkpt lat="41.47791" lon="20.51212">
        <ele>720.098849</ele>
        <time>2022-04-27T09:06:46.773Z</time>
      </trkpt>
      <trkpt lat="41.47781" lon="20.51208">
        <ele>719.871581</ele>
        <time>2022-04-27T09:06:50.780Z</time>
      </trkpt>
      <trkpt lat="41.47771" lon="20.51203">
        <ele>719.645399</ele>
        <time>2022-04-27T09:06:54.781Z</time>
      </trkpt>
      <trkpt lat="41.47761" lon="20.51199">
        <ele>719.622124</ele>
        <time>2022-04-27T09:06:58.786Z</time>
      </trkpt>
      <trkpt lat="41.47751" lon="20.51195">
        <ele>719.604458</ele>
        <time>2022-04-27T09:07:02.769Z</time>
      </trkpt>
      <trkpt lat="41.47742" lon="20.5119">
        <ele>719.588525</ele>
        <time>2022-04-27T09:07:06.798Z</time>
      </trkpt>
      <trkpt lat="41.47732" lon="20.51186">
        <ele>719.572476</ele>
        <time>2022-04-27T09:07:10.775Z</time>
      </trkpt>
      <trkpt lat="41.47722" lon="20.51183">
        <ele>719.555697</ele>
        <time>2022-04-27T09:07:14.762Z</time>
      </trkpt>
      <trkpt lat="41.47712" lon="20.51179">
        <ele>719.537969</ele>
        <time>2022-04-27T09:07:18.778Z</time>
      </trkpt>
      <trkpt lat="41.47702" lon="20.51175">
        <ele>719.520369</ele>
        <time>2022-04-27T09:07:22.774Z</time>
      </trkpt>
      <trkpt lat="41.47691" lon="20.51173">
        <ele>719.50285</ele>
        <time>2022-04-27T09:07:26.780Z</time>
      </trkpt>
      <trkpt lat="41.47679" lon="20.51173">
        <ele>719.482701</ele>
        <time>2022-04-27T09:07:30.815Z</time>
      </trkpt>
      <trkpt lat="41.47667" lon="20.51172">
        <ele>719.463546</ele>
        <time>2022-04-27T09:07:34.775Z</time>
      </trkpt>
      <trkpt lat="41.47657" lon="20.51173">
        <ele>719.446521</ele>
        <time>2022-04-27T09:07:37.777Z</time>
      </trkpt>
      <trkpt lat="41.47646" lon="20.51174">
        <ele>719.427784</ele>
        <time>2022-04-27T09:07:41.805Z</time>
      </trkpt>
      <trkpt lat="41.47634" lon="20.51177">
        <ele>719.408333</ele>
        <time>2022-04-27T09:07:45.773Z</time>
      </trkpt>
      <trkpt lat="41.47624" lon="20.51179">
        <ele>719.390958</ele>
        <time>2022-04-27T09:07:49.773Z</time>
      </trkpt>
      <trkpt lat="41.47615" lon="20.51182">
        <ele>719.375652</ele>
        <time>2022-04-27T09:07:53.771Z</time>
      </trkpt>
      <trkpt lat="41.47606" lon="20.51184">
        <ele>719.360251</ele>
        <time>2022-04-27T09:07:57.767Z</time>
      </trkpt>
      <trkpt lat="41.47596" lon="20.51185">
        <ele>719.344316</ele>
        <time>2022-04-27T09:08:01.782Z</time>
      </trkpt>
      <trkpt lat="41.47585" lon="20.51186">
        <ele>719.187094</ele>
        <time>2022-04-27T09:08:05.753Z</time>
      </trkpt>
      <trkpt lat="41.47574" lon="20.51187">
        <ele>719.013443</ele>
        <time>2022-04-27T09:08:10.775Z</time>
      </trkpt>
      <trkpt lat="41.47563" lon="20.51187">
        <ele>718.836785</ele>
        <time>2022-04-27T09:08:14.765Z</time>
      </trkpt>
      <trkpt lat="41.47553" lon="20.51188">
        <ele>718.68302</ele>
        <time>2022-04-27T09:08:18.769Z</time>
      </trkpt>
      <trkpt lat="41.47543" lon="20.51188">
        <ele>718.534145</ele>
        <time>2022-04-27T09:08:21.784Z</time>
      </trkpt>
      <trkpt lat="41.47534" lon="20.51188">
        <ele>718.386769</ele>
        <time>2022-04-27T09:08:24.785Z</time>
      </trkpt>
      <trkpt lat="41.47524" lon="20.51186">
        <ele>718.240442</ele>
        <time>2022-04-27T09:08:27.773Z</time>
      </trkpt>
      <trkpt lat="41.47513" lon="20.51185">
        <ele>718.071138</ele>
        <time>2022-04-27T09:08:31.792Z</time>
      </trkpt>
      <trkpt lat="41.47504" lon="20.51184">
        <ele>717.929053</ele>
        <time>2022-04-27T09:08:35.760Z</time>
      </trkpt>
      <trkpt lat="41.47494" lon="20.51182">
        <ele>717.776197</ele>
        <time>2022-04-27T09:08:39.781Z</time>
      </trkpt>
      <trkpt lat="41.47484" lon="20.51182">
        <ele>717.608515</ele>
        <time>2022-04-27T09:08:43.777Z</time>
      </trkpt>
      <trkpt lat="41.47472" lon="20.51181">
        <ele>717.436506</ele>
        <time>2022-04-27T09:08:47.766Z</time>
      </trkpt>
      <trkpt lat="41.47461" lon="20.51182">
        <ele>717.258242</ele>
        <time>2022-04-27T09:08:51.783Z</time>
      </trkpt>
      <trkpt lat="41.47449" lon="20.51183">
        <ele>717.07302</ele>
        <time>2022-04-27T09:08:55.782Z</time>
      </trkpt>
      <trkpt lat="41.47438" lon="20.51186">
        <ele>716.899042</ele>
        <time>2022-04-27T09:08:59.802Z</time>
      </trkpt>
      <trkpt lat="41.47427" lon="20.5119">
        <ele>716.725584</ele>
        <time>2022-04-27T09:09:03.793Z</time>
      </trkpt>
      <trkpt lat="41.47418" lon="20.51192">
        <ele>716.581129</ele>
        <time>2022-04-27T09:09:06.786Z</time>
      </trkpt>
      <trkpt lat="41.47409" lon="20.51196">
        <ele>716.613212</ele>
        <time>2022-04-27T09:09:10.762Z</time>
      </trkpt>
      <trkpt lat="41.474" lon="20.51199">
        <ele>716.684809</ele>
        <time>2022-04-27T09:09:14.792Z</time>
      </trkpt>
      <trkpt lat="41.47389" lon="20.51203">
        <ele>716.76848</ele>
        <time>2022-04-27T09:09:18.782Z</time>
      </trkpt>
      <trkpt lat="41.47378" lon="20.51207">
        <ele>716.847606</ele>
        <time>2022-04-27T09:09:22.765Z</time>
      </trkpt>
      <trkpt lat="41.47367" lon="20.51208">
        <ele>716.930474</ele>
        <time>2022-04-27T09:09:26.779Z</time>
      </trkpt>
      <trkpt lat="41.47355" lon="20.51208">
        <ele>717.015839</ele>
        <time>2022-04-27T09:09:30.773Z</time>
      </trkpt>
      <trkpt lat="41.47345" lon="20.51206">
        <ele>717.094619</ele>
        <time>2022-04-27T09:09:34.790Z</time>
      </trkpt>
      <trkpt lat="41.47333" lon="20.51202">
        <ele>717.180869</ele>
        <time>2022-04-27T09:09:38.813Z</time>
      </trkpt>
      <trkpt lat="41.47323" lon="20.51196">
        <ele>717.263946</ele>
        <time>2022-04-27T09:09:42.802Z</time>
      </trkpt>
      <trkpt lat="41.47312" lon="20.51191">
        <ele>717.345362</ele>
        <time>2022-04-27T09:09:46.773Z</time>
      </trkpt>
      <trkpt lat="41.47302" lon="20.51187">
        <ele>717.423641</ele>
        <time>2022-04-27T09:09:50.785Z</time>
      </trkpt>
      <trkpt lat="41.47291" lon="20.51182">
        <ele>717.509591</ele>
        <time>2022-04-27T09:09:54.782Z</time>
      </trkpt>
      <trkpt lat="41.4728" lon="20.51177">
        <ele>717.594875</ele>
        <time>2022-04-27T09:09:58.776Z</time>
      </trkpt>
      <trkpt lat="41.47269" lon="20.51171">
        <ele>717.680159</ele>
        <time>2022-04-27T09:10:02.764Z</time>
      </trkpt>
      <trkpt lat="41.47258" lon="20.51167">
        <ele>717.766104</ele>
        <time>2022-04-27T09:10:06.784Z</time>
      </trkpt>
      <trkpt lat="41.47249" lon="20.51164">
        <ele>717.836314</ele>
        <time>2022-04-27T09:10:09.780Z</time>
      </trkpt>
      <trkpt lat="41.4724" lon="20.51162">
        <ele>718.050078</ele>
        <time>2022-04-27T09:10:12.783Z</time>
      </trkpt>
      <trkpt lat="41.4723" lon="20.51161">
        <ele>718.492713</ele>
        <time>2022-04-27T09:10:15.786Z</time>
      </trkpt>
      <trkpt lat="41.4722" lon="20.5116">
        <ele>718.92886</ele>
        <time>2022-04-27T09:10:18.781Z</time>
      </trkpt>
      <trkpt lat="41.47211" lon="20.51159">
        <ele>719.378293</ele>
        <time>2022-04-27T09:10:21.769Z</time>
      </trkpt>
      <trkpt lat="41.47201" lon="20.51159">
        <ele>719.799622</ele>
        <time>2022-04-27T09:10:24.784Z</time>
      </trkpt>
      <trkpt lat="41.47192" lon="20.51161">
        <ele>720.228614</ele>
        <time>2022-04-27T09:10:27.790Z</time>
      </trkpt>
      <trkpt lat="41.47182" lon="20.51163">
        <ele>720.682622</ele>
        <time>2022-04-27T09:10:30.772Z</time>
      </trkpt>
      <trkpt lat="41.47173" lon="20.51164">
        <ele>721.093435</ele>
        <time>2022-04-27T09:10:33.767Z</time>
      </trkpt>
      <trkpt lat="41.47162" lon="20.51166">
        <ele>721.607334</ele>
        <time>2022-04-27T09:10:37.768Z</time>
      </trkpt>
      <trkpt lat="41.47151" lon="20.5117">
        <ele>722.123249</ele>
        <time>2022-04-27T09:10:41.752Z</time>
      </trkpt>
      <trkpt lat="41.47141" lon="20.51175">
        <ele>722.635988</ele>
        <time>2022-04-27T09:10:45.782Z</time>
      </trkpt>
      <trkpt lat="41.4713" lon="20.51179">
        <ele>723.129202</ele>
        <time>2022-04-27T09:10:49.759Z</time>
      </trkpt>
      <trkpt lat="41.4712" lon="20.51181">
        <ele>723.595396</ele>
        <time>2022-04-27T09:10:53.756Z</time>
      </trkpt>
      <trkpt lat="41.47109" lon="20.51185">
        <ele>724.138459</ele>
        <time>2022-04-27T09:10:57.771Z</time>
      </trkpt>
      <trkpt lat="41.47098" lon="20.51191">
        <ele>724.665422</ele>
        <time>2022-04-27T09:11:01.791Z</time>
      </trkpt>
      <trkpt lat="41.4709" lon="20.51196">
        <ele>725.092891</ele>
        <time>2022-04-27T09:11:04.764Z</time>
      </trkpt>
      <trkpt lat="41.47081" lon="20.51203">
        <ele>725.544551</ele>
        <time>2022-04-27T09:11:07.791Z</time>
      </trkpt>
      <trkpt lat="41.47072" lon="20.51207">
        <ele>725.981624</ele>
        <time>2022-04-27T09:11:10.780Z</time>
      </trkpt>
      <trkpt lat="41.47064" lon="20.51211">
        <ele>726.310654</ele>
        <time>2022-04-27T09:11:13.781Z</time>
      </trkpt>
      <trkpt lat="41.47055" lon="20.51216">
        <ele>726.584654</ele>
        <time>2022-04-27T09:11:16.806Z</time>
      </trkpt>
      <trkpt lat="41.47046" lon="20.51221">
        <ele>726.87823</ele>
        <time>2022-04-27T09:11:19.771Z</time>
      </trkpt>
      <trkpt lat="41.47037" lon="20.51225">
        <ele>727.164937</ele>
        <time>2022-04-27T09:11:22.758Z</time>
      </trkpt>
      <trkpt lat="41.47027" lon="20.51229">
        <ele>727.501519</ele>
        <time>2022-04-27T09:11:25.766Z</time>
      </trkpt>
      <trkpt lat="41.47017" lon="20.51234">
        <ele>727.809211</ele>
        <time>2022-04-27T09:11:28.768Z</time>
      </trkpt>
      <trkpt lat="41.47008" lon="20.51239">
        <ele>728.097171</ele>
        <time>2022-04-27T09:11:31.788Z</time>
      </trkpt>
      <trkpt lat="41.46997" lon="20.51243">
        <ele>728.443723</ele>
        <time>2022-04-27T09:11:34.780Z</time>
      </trkpt>
      <trkpt lat="41.46986" lon="20.51245">
        <ele>728.797813</ele>
        <time>2022-04-27T09:11:37.767Z</time>
      </trkpt>
      <trkpt lat="41.46974" lon="20.51247">
        <ele>729.141566</ele>
        <time>2022-04-27T09:11:40.766Z</time>
      </trkpt>
      <trkpt lat="41.46965" lon="20.51246">
        <ele>729.442479</ele>
        <time>2022-04-27T09:11:43.779Z</time>
      </trkpt>
      <trkpt lat="41.46955" lon="20.51245">
        <ele>729.722479</ele>
        <time>2022-04-27T09:11:46.773Z</time>
      </trkpt>
      <trkpt lat="41.46943" lon="20.51244">
        <ele>730.083649</ele>
        <time>2022-04-27T09:11:50.787Z</time>
      </trkpt>
      <trkpt lat="41.46932" lon="20.51245">
        <ele>730.445503</ele>
        <time>2022-04-27T09:11:54.787Z</time>
      </trkpt>
      <trkpt lat="41.4692" lon="20.51249">
        <ele>730.803298</ele>
        <time>2022-04-27T09:11:58.776Z</time>
      </trkpt>
      <trkpt lat="41.46911" lon="20.51252">
        <ele>731.082096</ele>
        <time>2022-04-27T09:12:01.767Z</time>
      </trkpt>
      <trkpt lat="41.46902" lon="20.51256">
        <ele>731.363791</ele>
        <time>2022-04-27T09:12:04.770Z</time>
      </trkpt>
      <trkpt lat="41.46894" lon="20.51265">
        <ele>731.729391</ele>
        <time>2022-04-27T09:12:08.760Z</time>
      </trkpt>
      <trkpt lat="41.46886" lon="20.51276">
        <ele>732.129744</ele>
        <time>2022-04-27T09:12:12.809Z</time>
      </trkpt>
      <trkpt lat="41.46879" lon="20.51288">
        <ele>732.543925</ele>
        <time>2022-04-27T09:12:17.779Z</time>
      </trkpt>
      <trkpt lat="41.46873" lon="20.51297">
        <ele>732.885349</ele>
        <time>2022-04-27T09:12:21.770Z</time>
      </trkpt>
      <trkpt lat="41.46865" lon="20.51307">
        <ele>733.27118</ele>
        <time>2022-04-27T09:12:25.790Z</time>
      </trkpt>
      <trkpt lat="41.46857" lon="20.51315">
        <ele>733.648203</ele>
        <time>2022-04-27T09:12:29.790Z</time>
      </trkpt>
      <trkpt lat="41.46849" lon="20.51321">
        <ele>733.982491</ele>
        <time>2022-04-27T09:12:33.811Z</time>
      </trkpt>
      <trkpt lat="41.46838" lon="20.51326">
        <ele>734.393754</ele>
        <time>2022-04-27T09:12:38.785Z</time>
      </trkpt>
      <trkpt lat="41.46829" lon="20.51329">
        <ele>734.758021</ele>
        <time>2022-04-27T09:12:42.772Z</time>
      </trkpt>
      <trkpt lat="41.46818" lon="20.5133">
        <ele>735.153682</ele>
        <time>2022-04-27T09:12:47.780Z</time>
      </trkpt>
      <trkpt lat="41.46808" lon="20.51329">
        <ele>735.512974</ele>
        <time>2022-04-27T09:12:52.788Z</time>
      </trkpt>
      <trkpt lat="41.46799" lon="20.51327">
        <ele>735.860493</ele>
        <time>2022-04-27T09:12:57.777Z</time>
      </trkpt>
      <trkpt lat="41.46789" lon="20.51324">
        <ele>736.225827</ele>
        <time>2022-04-27T09:13:02.776Z</time>
      </trkpt>
      <trkpt lat="41.46779" lon="20.51321">
        <ele>736.600637</ele>
        <time>2022-04-27T09:13:07.768Z</time>
      </trkpt>
      <trkpt lat="41.46769" lon="20.51319">
        <ele>736.954567</ele>
        <time>2022-04-27T09:13:12.808Z</time>
      </trkpt>
      <trkpt lat="41.4676" lon="20.51319">
        <ele>737.294145</ele>
        <time>2022-04-27T09:13:17.781Z</time>
      </trkpt>
      <trkpt lat="41.4675" lon="20.51322">
        <ele>737.674436</ele>
        <time>2022-04-27T09:13:23.762Z</time>
      </trkpt>
      <trkpt lat="41.46741" lon="20.51327">
        <ele>738.015088</ele>
        <time>2022-04-27T09:13:29.792Z</time>
      </trkpt>
      <trkpt lat="41.46732" lon="20.51333">
        <ele>738.149773</ele>
        <time>2022-04-27T09:13:36.818Z</time>
      </trkpt>
      <trkpt lat="41.46726" lon="20.51343">
        <ele>738.179244</ele>
        <time>2022-04-27T09:13:43.773Z</time>
      </trkpt>
      <trkpt lat="41.46721" lon="20.51356">
        <ele>738.210474</ele>
        <time>2022-04-27T09:13:49.768Z</time>
      </trkpt>
      <trkpt lat="41.46717" lon="20.51368">
        <ele>738.240187</ele>
        <time>2022-04-27T09:13:53.781Z</time>
      </trkpt>
      <trkpt lat="41.46716" lon="20.51381">
        <ele>738.267068</ele>
        <time>2022-04-27T09:13:58.812Z</time>
      </trkpt>
      <trkpt lat="41.46715" lon="20.51394">
        <ele>738.296018</ele>
        <time>2022-04-27T09:14:04.781Z</time>
      </trkpt>
      <trkpt lat="41.46715" lon="20.51407">
        <ele>738.324317</ele>
        <time>2022-04-27T09:14:10.769Z</time>
      </trkpt>
      <trkpt lat="41.46712" lon="20.5142">
        <ele>738.353627</ele>
        <time>2022-04-27T09:14:15.757Z</time>
      </trkpt>
      <trkpt lat="41.46709" lon="20.51434">
        <ele>738.385474</ele>
        <time>2022-04-27T09:14:20.766Z</time>
      </trkpt>
      <trkpt lat="41.46704" lon="20.51446">
        <ele>738.414181</ele>
        <time>2022-04-27T09:14:25.803Z</time>
      </trkpt>
      <trkpt lat="41.46701" lon="20.51457">
        <ele>738.440499</ele>
        <time>2022-04-27T09:14:30.763Z</time>
      </trkpt>
      <trkpt lat="41.46696" lon="20.51467">
        <ele>738.467375</ele>
        <time>2022-04-27T09:14:35.774Z</time>
      </trkpt>
      <trkpt lat="41.46689" lon="20.51478">
        <ele>738.496771</ele>
        <time>2022-04-27T09:14:41.758Z</time>
      </trkpt>
      <trkpt lat="41.46684" lon="20.51489">
        <ele>738.525805</ele>
        <time>2022-04-27T09:14:47.768Z</time>
      </trkpt>
      <trkpt lat="41.46679" lon="20.515">
        <ele>738.554015</ele>
        <time>2022-04-27T09:14:53.803Z</time>
      </trkpt>
      <trkpt lat="41.46672" lon="20.51509">
        <ele>738.58129</ele>
        <time>2022-04-27T09:14:58.771Z</time>
      </trkpt>
      <trkpt lat="41.46669" lon="20.51523">
        <ele>738.611918</ele>
        <time>2022-04-27T09:15:05.804Z</time>
      </trkpt>
      <trkpt lat="41.46667" lon="20.51536">
        <ele>738.641925</ele>
        <time>2022-04-27T09:15:11.781Z</time>
      </trkpt>
      <trkpt lat="41.46665" lon="20.51548">
        <ele>738.732755</ele>
        <time>2022-04-27T09:15:17.771Z</time>
      </trkpt>
      <trkpt lat="41.46661" lon="20.5156">
        <ele>738.867133</ele>
        <time>2022-04-27T09:15:23.780Z</time>
      </trkpt>
      <trkpt lat="41.46658" lon="20.51574">
        <ele>739.009763</ele>
        <time>2022-04-27T09:15:29.766Z</time>
      </trkpt>
      <trkpt lat="41.46655" lon="20.51587">
        <ele>739.14862</ele>
        <time>2022-04-27T09:15:35.794Z</time>
      </trkpt>
      <trkpt lat="41.4665" lon="20.51597">
        <ele>739.272404</ele>
        <time>2022-04-27T09:15:40.780Z</time>
      </trkpt>
      <trkpt lat="41.46644" lon="20.51607">
        <ele>739.407319</ele>
        <time>2022-04-27T09:15:45.774Z</time>
      </trkpt>
      <trkpt lat="41.46636" lon="20.51616">
        <ele>739.548737</ele>
        <time>2022-04-27T09:15:50.776Z</time>
      </trkpt>
      <trkpt lat="41.46628" lon="20.51623">
        <ele>739.678642</ele>
        <time>2022-04-27T09:15:55.825Z</time>
      </trkpt>
      <trkpt lat="41.46619" lon="20.51627">
        <ele>739.802083</ele>
        <time>2022-04-27T09:15:59.768Z</time>
      </trkpt>
      <trkpt lat="41.46609" lon="20.51627">
        <ele>739.948619</ele>
        <time>2022-04-27T09:16:03.800Z</time>
      </trkpt>
      <trkpt lat="41.46599" lon="20.51625">
        <ele>740.085901</ele>
        <time>2022-04-27T09:16:07.807Z</time>
      </trkpt>
      <trkpt lat="41.46589" lon="20.51622">
        <ele>740.219391</ele>
        <time>2022-04-27T09:16:11.768Z</time>
      </trkpt>
      <trkpt lat="41.46579" lon="20.51616">
        <ele>740.373683</ele>
        <time>2022-04-27T09:16:15.785Z</time>
      </trkpt>
      <trkpt lat="41.46569" lon="20.51608">
        <ele>740.529043</ele>
        <time>2022-04-27T09:16:19.778Z</time>
      </trkpt>
      <trkpt lat="41.46562" lon="20.51602">
        <ele>740.652055</ele>
        <time>2022-04-27T09:16:22.851Z</time>
      </trkpt>
      <trkpt lat="41.46554" lon="20.51594">
        <ele>740.778542</ele>
        <time>2022-04-27T09:16:25.761Z</time>
      </trkpt>
      <trkpt lat="41.46544" lon="20.51587">
        <ele>740.941933</ele>
        <time>2022-04-27T09:16:29.760Z</time>
      </trkpt>
      <trkpt lat="41.46534" lon="20.51584">
        <ele>741.074187</ele>
        <time>2022-04-27T09:16:32.784Z</time>
      </trkpt>
      <trkpt lat="41.46525" lon="20.51584">
        <ele>741.095276</ele>
        <time>2022-04-27T09:16:35.780Z</time>
      </trkpt>
      <trkpt lat="41.46516" lon="20.51585">
        <ele>741.072129</ele>
        <time>2022-04-27T09:16:38.764Z</time>
      </trkpt>
      <trkpt lat="41.46506" lon="20.51589">
        <ele>741.047301</ele>
        <time>2022-04-27T09:16:41.779Z</time>
      </trkpt>
      <trkpt lat="41.46497" lon="20.51593">
        <ele>741.021853</ele>
        <time>2022-04-27T09:16:44.805Z</time>
      </trkpt>
      <trkpt lat="41.46486" lon="20.51597">
        <ele>740.993551</ele>
        <time>2022-04-27T09:16:47.766Z</time>
      </trkpt>
      <trkpt lat="41.46473" lon="20.51601">
        <ele>740.960091</ele>
        <time>2022-04-27T09:16:50.771Z</time>
      </trkpt>
      <trkpt lat="41.4646" lon="20.51605">
        <ele>740.928021</ele>
        <time>2022-04-27T09:16:53.776Z</time>
      </trkpt>
      <trkpt lat="41.46448" lon="20.51608">
        <ele>740.897841</ele>
        <time>2022-04-27T09:16:56.762Z</time>
      </trkpt>
      <trkpt lat="41.46438" lon="20.51612">
        <ele>740.870885</ele>
        <time>2022-04-27T09:16:59.775Z</time>
      </trkpt>
      <trkpt lat="41.46428" lon="20.51617">
        <ele>740.844503</ele>
        <time>2022-04-27T09:17:02.780Z</time>
      </trkpt>
      <trkpt lat="41.46417" lon="20.51625">
        <ele>740.813557</ele>
        <time>2022-04-27T09:17:05.782Z</time>
      </trkpt>
      <trkpt lat="41.46409" lon="20.51635">
        <ele>740.786154</ele>
        <time>2022-04-27T09:17:08.785Z</time>
      </trkpt>
      <trkpt lat="41.46402" lon="20.51647">
        <ele>740.757268</ele>
        <time>2022-04-27T09:17:11.787Z</time>
      </trkpt>
      <trkpt lat="41.46397" lon="20.5166">
        <ele>740.729169</ele>
        <time>2022-04-27T09:17:14.777Z</time>
      </trkpt>
      <trkpt lat="41.46392" lon="20.51674">
        <ele>740.701415</ele>
        <time>2022-04-27T09:17:17.769Z</time>
      </trkpt>
      <trkpt lat="41.46389" lon="20.51688">
        <ele>740.674096</ele>
        <time>2022-04-27T09:17:20.764Z</time>
      </trkpt>
      <trkpt lat="41.46384" lon="20.51701">
        <ele>740.707861</ele>
        <time>2022-04-27T09:17:23.771Z</time>
      </trkpt>
      <trkpt lat="41.46378" lon="20.51715">
        <ele>740.782287</ele>
        <time>2022-04-27T09:17:26.774Z</time>
      </trkpt>
      <trkpt lat="41.4637" lon="20.51725">
        <ele>740.858671</ele>
        <time>2022-04-27T09:17:29.753Z</time>
      </trkpt>
      <trkpt lat="41.46362" lon="20.51734">
        <ele>740.922959</ele>
        <time>2022-04-27T09:17:32.807Z</time>
      </trkpt>
      <trkpt lat="41.46352" lon="20.5174">
        <ele>740.997949</ele>
        <time>2022-04-27T09:17:36.774Z</time>
      </trkpt>
      <trkpt lat="41.46341" lon="20.51746">
        <ele>741.075178</ele>
        <time>2022-04-27T09:17:40.760Z</time>
      </trkpt>
      <trkpt lat="41.4633" lon="20.51751">
        <ele>741.148885</ele>
        <time>2022-04-27T09:17:44.828Z</time>
      </trkpt>
      <trkpt lat="41.46323" lon="20.51759">
        <ele>741.210947</ele>
        <time>2022-04-27T09:17:47.775Z</time>
      </trkpt>
      <trkpt lat="41.46314" lon="20.51768">
        <ele>741.283744</ele>
        <time>2022-04-27T09:17:50.763Z</time>
      </trkpt>
      <trkpt lat="41.46307" lon="20.51778">
        <ele>741.350919</ele>
        <time>2022-04-27T09:17:53.778Z</time>
      </trkpt>
      <trkpt lat="41.46302" lon="20.51791">
        <ele>741.424167</ele>
        <time>2022-04-27T09:17:56.780Z</time>
      </trkpt>
      <trkpt lat="41.46299" lon="20.51805">
        <ele>741.495439</ele>
        <time>2022-04-27T09:17:59.783Z</time>
      </trkpt>
      <trkpt lat="41.46298" lon="20.51818">
        <ele>741.558965</ele>
        <time>2022-04-27T09:18:02.774Z</time>
      </trkpt>
      <trkpt lat="41.46297" lon="20.51832">
        <ele>741.628048</ele>
        <time>2022-04-27T09:18:05.779Z</time>
      </trkpt>
      <trkpt lat="41.46295" lon="20.51847">
        <ele>741.704344</ele>
        <time>2022-04-27T09:18:08.754Z</time>
      </trkpt>
      <trkpt lat="41.46288" lon="20.5186">
        <ele>741.785848</ele>
        <time>2022-04-27T09:18:11.761Z</time>
      </trkpt>
      <trkpt lat="41.4628" lon="20.51874">
        <ele>741.762042</ele>
        <time>2022-04-27T09:18:14.783Z</time>
      </trkpt>
      <trkpt lat="41.46271" lon="20.51887">
        <ele>741.517382</ele>
        <time>2022-04-27T09:18:17.773Z</time>
      </trkpt>
      <trkpt lat="41.46262" lon="20.51897">
        <ele>741.283091</ele>
        <time>2022-04-27T09:18:20.774Z</time>
      </trkpt>
      <trkpt lat="41.46252" lon="20.51904">
        <ele>741.063977</ele>
        <time>2022-04-27T09:18:23.779Z</time>
      </trkpt>
      <trkpt lat="41.4624" lon="20.51905">
        <ele>740.831485</ele>
        <time>2022-04-27T09:18:26.758Z</time>
      </trkpt>
      <trkpt lat="41.46229" lon="20.51903">
        <ele>740.623223</ele>
        <time>2022-04-27T09:18:29.805Z</time>
      </trkpt>
      <trkpt lat="41.46219" lon="20.51899">
        <ele>740.428798</ele>
        <time>2022-04-27T09:18:32.788Z</time>
      </trkpt>
      <trkpt lat="41.4621" lon="20.51892">
        <ele>740.217102</ele>
        <time>2022-04-27T09:18:36.753Z</time>
      </trkpt>
      <trkpt lat="41.46201" lon="20.51882">
        <ele>739.995825</ele>
        <time>2022-04-27T09:18:40.767Z</time>
      </trkpt>
      <trkpt lat="41.46193" lon="20.51871">
        <ele>739.764492</ele>
        <time>2022-04-27T09:18:44.772Z</time>
      </trkpt>
      <trkpt lat="41.46184" lon="20.51862">
        <ele>739.557197</ele>
        <time>2022-04-27T09:18:47.760Z</time>
      </trkpt>
      <trkpt lat="41.46176" lon="20.51853">
        <ele>739.351388</ele>
        <time>2022-04-27T09:18:50.778Z</time>
      </trkpt>
      <trkpt lat="41.46168" lon="20.51845">
        <ele>739.154173</ele>
        <time>2022-04-27T09:18:53.773Z</time>
      </trkpt>
      <trkpt lat="41.46159" lon="20.51834">
        <ele>738.919452</ele>
        <time>2022-04-27T09:18:56.768Z</time>
      </trkpt>
      <trkpt lat="41.4615" lon="20.51825">
        <ele>738.707758</ele>
        <time>2022-04-27T09:18:59.765Z</time>
      </trkpt>
      <trkpt lat="41.4614" lon="20.51817">
        <ele>738.483505</ele>
        <time>2022-04-27T09:19:02.775Z</time>
      </trkpt>
      <trkpt lat="41.4613" lon="20.51808">
        <ele>738.724758</ele>
        <time>2022-04-27T09:19:05.764Z</time>
      </trkpt>
      <trkpt lat="41.4612" lon="20.51802">
        <ele>739.372606</ele>
        <time>2022-04-27T09:19:08.815Z</time>
      </trkpt>
      <trkpt lat="41.46111" lon="20.51793">
        <ele>740.043</ele>
        <time>2022-04-27T09:19:11.776Z</time>
      </trkpt>
      <trkpt lat="41.46102" lon="20.51783">
        <ele>740.705458</ele>
        <time>2022-04-27T09:19:14.808Z</time>
      </trkpt>
      <trkpt lat="41.46095" lon="20.51772">
        <ele>741.347019</ele>
        <time>2022-04-27T09:19:17.774Z</time>
      </trkpt>
      <trkpt lat="41.46088" lon="20.51762">
        <ele>741.929369</ele>
        <time>2022-04-27T09:19:20.821Z</time>
      </trkpt>
      <trkpt lat="41.4608" lon="20.51751">
        <ele>742.570669</ele>
        <time>2022-04-27T09:19:23.770Z</time>
      </trkpt>
      <trkpt lat="41.46072" lon="20.5174">
        <ele>743.266823</ele>
        <time>2022-04-27T09:19:26.769Z</time>
      </trkpt>
      <trkpt lat="41.46063" lon="20.5173">
        <ele>743.962396</ele>
        <time>2022-04-27T09:19:29.759Z</time>
      </trkpt>
      <trkpt lat="41.46053" lon="20.51722">
        <ele>744.625876</ele>
        <time>2022-04-27T09:19:32.782Z</time>
      </trkpt>
      <trkpt lat="41.46043" lon="20.51716">
        <ele>745.233744</ele>
        <time>2022-04-27T09:19:35.804Z</time>
      </trkpt>
      <trkpt lat="41.46033" lon="20.51713">
        <ele>745.863443</ele>
        <time>2022-04-27T09:19:38.779Z</time>
      </trkpt>
      <trkpt lat="41.46022" lon="20.5171">
        <ele>746.529193</ele>
        <time>2022-04-27T09:19:41.775Z</time>
      </trkpt>
      <trkpt lat="41.46012" lon="20.5171">
        <ele>747.088026</ele>
        <time>2022-04-27T09:19:44.778Z</time>
      </trkpt>
      <trkpt lat="41.46001" lon="20.51712">
        <ele>747.70921</ele>
        <time>2022-04-27T09:19:47.762Z</time>
      </trkpt>
      <trkpt lat="41.45992" lon="20.51715">
        <ele>748.269121</ele>
        <time>2022-04-27T09:19:50.773Z</time>
      </trkpt>
      <trkpt lat="41.45983" lon="20.51722">
        <ele>748.834185</ele>
        <time>2022-04-27T09:19:53.801Z</time>
      </trkpt>
      <trkpt lat="41.45975" lon="20.5173">
        <ele>748.803339</ele>
        <time>2022-04-27T09:19:56.778Z</time>
      </trkpt>
      <trkpt lat="41.45967" lon="20.51741">
        <ele>748.76948</ele>
        <time>2022-04-27T09:19:59.789Z</time>
      </trkpt>
      <trkpt lat="41.45961" lon="20.51754">
        <ele>748.735455</ele>
        <time>2022-04-27T09:20:02.771Z</time>
      </trkpt>
      <trkpt lat="41.45957" lon="20.51768">
        <ele>748.702017</ele>
        <time>2022-04-27T09:20:05.778Z</time>
      </trkpt>
      <trkpt lat="41.45953" lon="20.51781">
        <ele>748.67085</ele>
        <time>2022-04-27T09:20:08.769Z</time>
      </trkpt>
      <trkpt lat="41.45951" lon="20.51794">
        <ele>748.639396</ele>
        <time>2022-04-27T09:20:11.788Z</time>
      </trkpt>
      <trkpt lat="41.45948" lon="20.51809">
        <ele>748.605111</ele>
        <time>2022-04-27T09:20:14.764Z</time>
      </trkpt>
      <trkpt lat="41.45943" lon="20.51823">
        <ele>748.569491</ele>
        <time>2022-04-27T09:20:17.779Z</time>
      </trkpt>
      <trkpt lat="41.45937" lon="20.51837">
        <ele>748.533927</ele>
        <time>2022-04-27T09:20:20.782Z</time>
      </trkpt>
      <trkpt lat="41.4593" lon="20.51851">
        <ele>748.496983</ele>
        <time>2022-04-27T09:20:23.769Z</time>
      </trkpt>
      <trkpt lat="41.4592" lon="20.51861">
        <ele>748.459722</ele>
        <time>2022-04-27T09:20:26.764Z</time>
      </trkpt>
      <trkpt lat="41.45911" lon="20.51868">
        <ele>748.427792</ele>
        <time>2022-04-27T09:20:29.759Z</time>
      </trkpt>
      <trkpt lat="41.45901" lon="20.51874">
        <ele>748.396644</ele>
        <time>2022-04-27T09:20:32.785Z</time>
      </trkpt>
      <trkpt lat="41.4589" lon="20.51878">
        <ele>748.361888</ele>
        <time>2022-04-27T09:20:35.756Z</time>
      </trkpt>
      <trkpt lat="41.45879" lon="20.51884">
        <ele>748.327679</ele>
        <time>2022-04-27T09:20:38.784Z</time>
      </trkpt>
      <trkpt lat="41.45869" lon="20.5189">
        <ele>748.283439</ele>
        <time>2022-04-27T09:20:41.793Z</time>
      </trkpt>
      <trkpt lat="41.45859" lon="20.51899">
        <ele>748.166794</ele>
        <time>2022-04-27T09:20:44.782Z</time>
      </trkpt>
      <trkpt lat="41.45853" lon="20.51908">
        <ele>748.077161</ele>
        <time>2022-04-27T09:20:46.778Z</time>
      </trkpt>
      <trkpt lat="41.45849" lon="20.51919">
        <ele>747.986269</ele>
        <time>2022-04-27T09:20:48.810Z</time>
      </trkpt>
      <trkpt lat="41.45845" lon="20.51936">
        <ele>747.86064</ele>
        <time>2022-04-27T09:20:51.787Z</time>
      </trkpt>
      <trkpt lat="41.45845" lon="20.5195">
        <ele>747.75417</ele>
        <time>2022-04-27T09:20:54.811Z</time>
      </trkpt>
      <trkpt lat="41.45848" lon="20.51965">
        <ele>747.643737</ele>
        <time>2022-04-27T09:20:57.766Z</time>
      </trkpt>
      <trkpt lat="41.45853" lon="20.51975">
        <ele>747.554068</ele>
        <time>2022-04-27T09:20:59.791Z</time>
      </trkpt>
      <trkpt lat="41.45859" lon="20.51985">
        <ele>747.462226</ele>
        <time>2022-04-27T09:21:01.762Z</time>
      </trkpt>
      <trkpt lat="41.45868" lon="20.51996">
        <ele>747.343162</ele>
        <time>2022-04-27T09:21:04.779Z</time>
      </trkpt>
      <trkpt lat="41.45877" lon="20.52007">
        <ele>747.225793</ele>
        <time>2022-04-27T09:21:07.778Z</time>
      </trkpt>
      <trkpt lat="41.45885" lon="20.52019">
        <ele>747.102159</ele>
        <time>2022-04-27T09:21:10.785Z</time>
      </trkpt>
      <trkpt lat="41.45892" lon="20.52033">
        <ele>746.976293</ele>
        <time>2022-04-27T09:21:13.780Z</time>
      </trkpt>
      <trkpt lat="41.45898" lon="20.52049">
        <ele>746.849761</ele>
        <time>2022-04-27T09:21:16.802Z</time>
      </trkpt>
      <trkpt lat="41.45902" lon="20.5206">
        <ele>746.759504</ele>
        <time>2022-04-27T09:21:18.767Z</time>
      </trkpt>
      <trkpt lat="41.45905" lon="20.52077">
        <ele>746.633669</ele>
        <time>2022-04-27T09:21:21.768Z</time>
      </trkpt>
      <trkpt lat="41.45906" lon="20.52093">
        <ele>746.428696</ele>
        <time>2022-04-27T09:21:24.781Z</time>
      </trkpt>
      <trkpt lat="41.45906" lon="20.52109">
        <ele>745.891556</ele>
        <time>2022-04-27T09:21:27.773Z</time>
      </trkpt>
      <trkpt lat="41.45906" lon="20.52126">
        <ele>745.344525</ele>
        <time>2022-04-27T09:21:30.769Z</time>
      </trkpt>
      <trkpt lat="41.45906" lon="20.52142">
        <ele>744.793326</ele>
        <time>2022-04-27T09:21:33.815Z</time>
      </trkpt>
      <trkpt lat="41.45904" lon="20.52157">
        <ele>744.29103</ele>
        <time>2022-04-27T09:21:36.771Z</time>
      </trkpt>
      <trkpt lat="41.45901" lon="20.52173">
        <ele>743.767033</ele>
        <time>2022-04-27T09:21:39.771Z</time>
      </trkpt>
      <trkpt lat="41.45895" lon="20.52187">
        <ele>743.237114</ele>
        <time>2022-04-27T09:21:42.770Z</time>
      </trkpt>
      <trkpt lat="41.45889" lon="20.52201">
        <ele>742.693379</ele>
        <time>2022-04-27T09:21:45.781Z</time>
      </trkpt>
      <trkpt lat="41.45885" lon="20.52213">
        <ele>742.272077</ele>
        <time>2022-04-27T09:21:47.776Z</time>
      </trkpt>
      <trkpt lat="41.4588" lon="20.52224">
        <ele>741.837032</ele>
        <time>2022-04-27T09:21:49.778Z</time>
      </trkpt>
      <trkpt lat="41.45872" lon="20.52237">
        <ele>741.268625</ele>
        <time>2022-04-27T09:21:52.766Z</time>
      </trkpt>
      <trkpt lat="41.45863" lon="20.52246">
        <ele>740.79519</ele>
        <time>2022-04-27T09:21:54.783Z</time>
      </trkpt>
      <trkpt lat="41.45855" lon="20.52252">
        <ele>740.370079</ele>
        <time>2022-04-27T09:21:56.777Z</time>
      </trkpt>
      <trkpt lat="41.45844" lon="20.52261">
        <ele>739.824709</ele>
        <time>2022-04-27T09:21:59.786Z</time>
      </trkpt>
      <trkpt lat="41.45833" lon="20.52265">
        <ele>739.297856</ele>
        <time>2022-04-27T09:22:02.771Z</time>
      </trkpt>
      <trkpt lat="41.45821" lon="20.52269">
        <ele>738.742191</ele>
        <time>2022-04-27T09:22:05.765Z</time>
      </trkpt>
      <trkpt lat="41.45812" lon="20.52271">
        <ele>738.502151</ele>
        <time>2022-04-27T09:22:07.798Z</time>
      </trkpt>
      <trkpt lat="41.45799" lon="20.52275">
        <ele>738.317384</ele>
        <time>2022-04-27T09:22:10.758Z</time>
      </trkpt>
      <trkpt lat="41.45786" lon="20.52282">
        <ele>738.126649</ele>
        <time>2022-04-27T09:22:13.793Z</time>
      </trkpt>
      <trkpt lat="41.45778" lon="20.5229">
        <ele>737.980715</ele>
        <time>2022-04-27T09:22:15.783Z</time>
      </trkpt>
      <trkpt lat="41.45769" lon="20.52299">
        <ele>737.82922</ele>
        <time>2022-04-27T09:22:17.788Z</time>
      </trkpt>
      <trkpt lat="41.4576" lon="20.52309">
        <ele>737.667499</ele>
        <time>2022-04-27T09:22:19.807Z</time>
      </trkpt>
      <trkpt lat="41.45751" lon="20.52319">
        <ele>737.498354</ele>
        <time>2022-04-27T09:22:21.767Z</time>
      </trkpt>
      <trkpt lat="41.45741" lon="20.52327">
        <ele>737.33439</ele>
        <time>2022-04-27T09:22:23.783Z</time>
      </trkpt>
      <trkpt lat="41.4573" lon="20.52335">
        <ele>737.166585</ele>
        <time>2022-04-27T09:22:25.779Z</time>
      </trkpt>
      <trkpt lat="41.4572" lon="20.52343">
        <ele>736.996571</ele>
        <time>2022-04-27T09:22:27.771Z</time>
      </trkpt>
      <trkpt lat="41.45707" lon="20.52348">
        <ele>736.815177</ele>
        <time>2022-04-27T09:22:29.773Z</time>
      </trkpt>
      <trkpt lat="41.45695" lon="20.52355">
        <ele>736.628947</ele>
        <time>2022-04-27T09:22:31.771Z</time>
      </trkpt>
      <trkpt lat="41.45684" lon="20.52362">
        <ele>736.455235</ele>
        <time>2022-04-27T09:22:33.790Z</time>
      </trkpt>
      <trkpt lat="41.45672" lon="20.52371">
        <ele>736.265052</ele>
        <time>2022-04-27T09:22:35.772Z</time>
      </trkpt>
      <trkpt lat="41.45661" lon="20.52381">
        <ele>736.073107</ele>
        <time>2022-04-27T09:22:37.760Z</time>
      </trkpt>
      <trkpt lat="41.4565" lon="20.52393">
        <ele>735.407188</ele>
        <time>2022-04-27T09:22:39.744Z</time>
      </trkpt>
      <trkpt lat="41.45639" lon="20.52403">
        <ele>734.728389</ele>
        <time>2022-04-27T09:22:41.830Z</time>
      </trkpt>
      <trkpt lat="41.45626" lon="20.52411">
        <ele>734.028645</ele>
        <time>2022-04-27T09:22:43.794Z</time>
      </trkpt>
      <trkpt lat="41.45612" lon="20.52417">
        <ele>733.291754</ele>
        <time>2022-04-27T09:22:45.767Z</time>
      </trkpt>
      <trkpt lat="41.45598" lon="20.52417">
        <ele>732.59446</ele>
        <time>2022-04-27T09:22:47.772Z</time>
      </trkpt>
      <trkpt lat="41.45584" lon="20.52409">
        <ele>731.81236</ele>
        <time>2022-04-27T09:22:49.739Z</time>
      </trkpt>
      <trkpt lat="41.45571" lon="20.52396">
        <ele>731.021312</ele>
        <time>2022-04-27T09:22:51.752Z</time>
      </trkpt>
      <trkpt lat="41.45563" lon="20.52381">
        <ele>730.325909</ele>
        <time>2022-04-27T09:22:53.741Z</time>
      </trkpt>
      <trkpt lat="41.4556" lon="20.52362">
        <ele>729.578514</ele>
        <time>2022-04-27T09:22:55.756Z</time>
      </trkpt>
      <trkpt lat="41.45561" lon="20.5234">
        <ele>728.751288</ele>
        <time>2022-04-27T09:22:57.746Z</time>
      </trkpt>
      <trkpt lat="41.45563" lon="20.52318">
        <ele>727.91619</ele>
        <time>2022-04-27T09:22:59.746Z</time>
      </trkpt>
      <trkpt lat="41.45566" lon="20.52296">
        <ele>727.096631</ele>
        <time>2022-04-27T09:23:01.758Z</time>
      </trkpt>
      <trkpt lat="41.45569" lon="20.52275">
        <ele>725.073786</ele>
        <time>2022-04-27T09:23:03.748Z</time>
      </trkpt>
      <trkpt lat="41.45573" lon="20.52254">
        <ele>723.093022</ele>
        <time>2022-04-27T09:23:05.753Z</time>
      </trkpt>
      <trkpt lat="41.45576" lon="20.52234">
        <ele>721.111173</ele>
        <time>2022-04-27T09:23:07.751Z</time>
      </trkpt>
      <trkpt lat="41.45578" lon="20.52215">
        <ele>719.230545</ele>
        <time>2022-04-27T09:23:09.745Z</time>
      </trkpt>
      <trkpt lat="41.4558" lon="20.52196">
        <ele>717.431552</ele>
        <time>2022-04-27T09:23:11.748Z</time>
      </trkpt>
      <trkpt lat="41.45582" lon="20.52177">
        <ele>715.611372</ele>
        <time>2022-04-27T09:23:13.786Z</time>
      </trkpt>
      <trkpt lat="41.45583" lon="20.52158">
        <ele>713.751642</ele>
        <time>2022-04-27T09:23:15.749Z</time>
      </trkpt>
      <trkpt lat="41.45583" lon="20.52138">
        <ele>711.869509</ele>
        <time>2022-04-27T09:23:17.757Z</time>
      </trkpt>
      <trkpt lat="41.45581" lon="20.52119">
        <ele>710.052474</ele>
        <time>2022-04-27T09:23:19.742Z</time>
      </trkpt>
      <trkpt lat="41.45576" lon="20.52101">
        <ele>708.221511</ele>
        <time>2022-04-27T09:23:21.760Z</time>
      </trkpt>
      <trkpt lat="41.45562" lon="20.52082">
        <ele>705.707433</ele>
        <time>2022-04-27T09:23:24.774Z</time>
      </trkpt>
      <trkpt lat="41.45551" lon="20.52076">
        <ele>704.091269</ele>
        <time>2022-04-27T09:23:26.756Z</time>
      </trkpt>
      <trkpt lat="41.45536" lon="20.52073">
        <ele>703.290349</ele>
        <time>2022-04-27T09:23:28.739Z</time>
      </trkpt>
      <trkpt lat="41.45522" lon="20.52077">
        <ele>702.461529</ele>
        <time>2022-04-27T09:23:30.745Z</time>
      </trkpt>
      <trkpt lat="41.45508" lon="20.52086">
        <ele>701.610983</ele>
        <time>2022-04-27T09:23:32.751Z</time>
      </trkpt>
      <trkpt lat="41.45497" lon="20.52098">
        <ele>700.803896</ele>
        <time>2022-04-27T09:23:34.740Z</time>
      </trkpt>
      <trkpt lat="41.45486" lon="20.52113">
        <ele>699.976566</ele>
        <time>2022-04-27T09:23:36.757Z</time>
      </trkpt>
      <trkpt lat="41.45476" lon="20.52127">
        <ele>699.16745</ele>
        <time>2022-04-27T09:23:38.752Z</time>
      </trkpt>
      <trkpt lat="41.45467" lon="20.52141">
        <ele>698.400352</ele>
        <time>2022-04-27T09:23:40.756Z</time>
      </trkpt>
      <trkpt lat="41.45459" lon="20.52154">
        <ele>697.659849</ele>
        <time>2022-04-27T09:23:42.740Z</time>
      </trkpt>
      <trkpt lat="41.45449" lon="20.52166">
        <ele>696.926282</ele>
        <time>2022-04-27T09:23:44.749Z</time>
      </trkpt>
      <trkpt lat="41.45439" lon="20.52177">
        <ele>696.225706</ele>
        <time>2022-04-27T09:23:46.772Z</time>
      </trkpt>
      <trkpt lat="41.45427" lon="20.52186">
        <ele>695.453385</ele>
        <time>2022-04-27T09:23:48.757Z</time>
      </trkpt>
      <trkpt lat="41.45413" lon="20.52192">
        <ele>694.664287</ele>
        <time>2022-04-27T09:23:50.744Z</time>
      </trkpt>
      <trkpt lat="41.45399" lon="20.52195">
        <ele>693.727051</ele>
        <time>2022-04-27T09:23:52.785Z</time>
      </trkpt>
      <trkpt lat="41.45386" lon="20.52194">
        <ele>692.470761</ele>
        <time>2022-04-27T09:23:54.746Z</time>
      </trkpt>
      <trkpt lat="41.45372" lon="20.52189">
        <ele>691.211312</ele>
        <time>2022-04-27T09:23:56.750Z</time>
      </trkpt>
      <trkpt lat="41.4536" lon="20.52181">
        <ele>689.895514</ele>
        <time>2022-04-27T09:23:58.749Z</time>
      </trkpt>
      <trkpt lat="41.45349" lon="20.5217">
        <ele>688.66325</ele>
        <time>2022-04-27T09:24:00.791Z</time>
      </trkpt>
      <trkpt lat="41.45341" lon="20.52156">
        <ele>687.470047</ele>
        <time>2022-04-27T09:24:02.770Z</time>
      </trkpt>
      <trkpt lat="41.45337" lon="20.52142">
        <ele>686.417847</ele>
        <time>2022-04-27T09:24:04.751Z</time>
      </trkpt>
      <trkpt lat="41.45334" lon="20.52126">
        <ele>685.313605</ele>
        <time>2022-04-27T09:24:06.793Z</time>
      </trkpt>
      <trkpt lat="41.45332" lon="20.52109">
        <ele>684.110987</ele>
        <time>2022-04-27T09:24:08.771Z</time>
      </trkpt>
      <trkpt lat="41.45332" lon="20.52091">
        <ele>682.879974</ele>
        <time>2022-04-27T09:24:10.764Z</time>
      </trkpt>
      <trkpt lat="41.45332" lon="20.52075">
        <ele>681.77977</ele>
        <time>2022-04-27T09:24:12.758Z</time>
      </trkpt>
      <trkpt lat="41.45332" lon="20.52058">
        <ele>680.597758</ele>
        <time>2022-04-27T09:24:14.775Z</time>
      </trkpt>
      <trkpt lat="41.45333" lon="20.5204">
        <ele>679.415924</ele>
        <time>2022-04-27T09:24:16.765Z</time>
      </trkpt>
      <trkpt lat="41.45332" lon="20.52023">
        <ele>678.254264</ele>
        <time>2022-04-27T09:24:18.770Z</time>
      </trkpt>
      <trkpt lat="41.45332" lon="20.52007">
        <ele>677.32738</ele>
        <time>2022-04-27T09:24:20.750Z</time>
      </trkpt>
      <trkpt lat="41.45333" lon="20.51989">
        <ele>676.623252</ele>
        <time>2022-04-27T09:24:22.773Z</time>
      </trkpt>
      <trkpt lat="41.45333" lon="20.51971">
        <ele>675.892462</ele>
        <time>2022-04-27T09:24:24.764Z</time>
      </trkpt>
      <trkpt lat="41.45333" lon="20.51953">
        <ele>675.184909</ele>
        <time>2022-04-27T09:24:26.757Z</time>
      </trkpt>
      <trkpt lat="41.4533" lon="20.51936">
        <ele>674.50484</ele>
        <time>2022-04-27T09:24:28.754Z</time>
      </trkpt>
      <trkpt lat="41.45325" lon="20.51922">
        <ele>673.848732</ele>
        <time>2022-04-27T09:24:30.760Z</time>
      </trkpt>
      <trkpt lat="41.45318" lon="20.51908">
        <ele>673.196464</ele>
        <time>2022-04-27T09:24:32.752Z</time>
      </trkpt>
      <trkpt lat="41.45309" lon="20.51897">
        <ele>672.55669</ele>
        <time>2022-04-27T09:24:34.755Z</time>
      </trkpt>
      <trkpt lat="41.45298" lon="20.51888">
        <ele>671.871837</ele>
        <time>2022-04-27T09:24:36.754Z</time>
      </trkpt>
      <trkpt lat="41.45286" lon="20.5188">
        <ele>671.154086</ele>
        <time>2022-04-27T09:24:38.752Z</time>
      </trkpt>
      <trkpt lat="41.45273" lon="20.51877">
        <ele>670.456397</ele>
        <time>2022-04-27T09:24:40.756Z</time>
      </trkpt>
      <trkpt lat="41.45259" lon="20.51879">
        <ele>669.669104</ele>
        <time>2022-04-27T09:24:42.947Z</time>
      </trkpt>
      <trkpt lat="41.45244" lon="20.51885">
        <ele>668.835097</ele>
        <time>2022-04-27T09:24:44.772Z</time>
      </trkpt>
      <trkpt lat="41.45232" lon="20.51896">
        <ele>668.069007</ele>
        <time>2022-04-27T09:24:46.768Z</time>
      </trkpt>
      <trkpt lat="41.45224" lon="20.51908">
        <ele>668.050191</ele>
        <time>2022-04-27T09:24:48.779Z</time>
      </trkpt>
      <trkpt lat="41.45218" lon="20.51922">
        <ele>668.031143</ele>
        <time>2022-04-27T09:24:50.781Z</time>
      </trkpt>
      <trkpt lat="41.45211" lon="20.51935">
        <ele>668.011601</ele>
        <time>2022-04-27T09:24:52.801Z</time>
      </trkpt>
      <trkpt lat="41.45205" lon="20.5195">
        <ele>667.99176</ele>
        <time>2022-04-27T09:24:54.770Z</time>
      </trkpt>
      <trkpt lat="41.452" lon="20.51965">
        <ele>667.971148</ele>
        <time>2022-04-27T09:24:56.787Z</time>
      </trkpt>
      <trkpt lat="41.45195" lon="20.5198">
        <ele>667.951159</ele>
        <time>2022-04-27T09:24:58.774Z</time>
      </trkpt>
      <trkpt lat="41.4519" lon="20.51995">
        <ele>667.931874</ele>
        <time>2022-04-27T09:25:00.772Z</time>
      </trkpt>
      <trkpt lat="41.45186" lon="20.5201">
        <ele>667.91264</ele>
        <time>2022-04-27T09:25:02.776Z</time>
      </trkpt>
      <trkpt lat="41.45182" lon="20.52025">
        <ele>667.894091</ele>
        <time>2022-04-27T09:25:04.779Z</time>
      </trkpt>
      <trkpt lat="41.45176" lon="20.52038">
        <ele>667.875615</ele>
        <time>2022-04-27T09:25:06.780Z</time>
      </trkpt>
      <trkpt lat="41.45169" lon="20.52048">
        <ele>667.858347</ele>
        <time>2022-04-27T09:25:08.790Z</time>
      </trkpt>
      <trkpt lat="41.4516" lon="20.52056">
        <ele>667.841037</ele>
        <time>2022-04-27T09:25:10.764Z</time>
      </trkpt>
      <trkpt lat="41.4515" lon="20.52062">
        <ele>667.82347</ele>
        <time>2022-04-27T09:25:12.808Z</time>
      </trkpt>
      <trkpt lat="41.45139" lon="20.52065">
        <ele>667.804846</ele>
        <time>2022-04-27T09:25:14.738Z</time>
      </trkpt>
      <trkpt lat="41.45126" lon="20.52064">
        <ele>667.785066</ele>
        <time>2022-04-27T09:25:16.751Z</time>
      </trkpt>
      <trkpt lat="41.45114" lon="20.52061">
        <ele>667.63374</ele>
        <time>2022-04-27T09:25:18.742Z</time>
      </trkpt>
      <trkpt lat="41.45104" lon="20.52055">
        <ele>667.446022</ele>
        <time>2022-04-27T09:25:20.776Z</time>
      </trkpt>
      <trkpt lat="41.45095" lon="20.52046">
        <ele>667.268273</ele>
        <time>2022-04-27T09:25:22.785Z</time>
      </trkpt>
      <trkpt lat="41.45088" lon="20.52037">
        <ele>667.112019</ele>
        <time>2022-04-27T09:25:24.769Z</time>
      </trkpt>
      <trkpt lat="41.45081" lon="20.52027">
        <ele>666.94807</ele>
        <time>2022-04-27T09:25:26.774Z</time>
      </trkpt>
      <trkpt lat="41.45074" lon="20.52018">
        <ele>666.792063</ele>
        <time>2022-04-27T09:25:28.772Z</time>
      </trkpt>
      <trkpt lat="41.45067" lon="20.52008">
        <ele>666.630002</ele>
        <time>2022-04-27T09:25:30.791Z</time>
      </trkpt>
      <trkpt lat="41.45058" lon="20.52">
        <ele>666.459139</ele>
        <time>2022-04-27T09:25:32.806Z</time>
      </trkpt>
      <trkpt lat="41.45049" lon="20.51994">
        <ele>666.283531</ele>
        <time>2022-04-27T09:25:34.765Z</time>
      </trkpt>
      <trkpt lat="41.45037" lon="20.51989">
        <ele>666.090668</ele>
        <time>2022-04-27T09:25:36.755Z</time>
      </trkpt>
      <trkpt lat="41.45026" lon="20.51985">
        <ele>665.902766</ele>
        <time>2022-04-27T09:25:38.774Z</time>
      </trkpt>
      <trkpt lat="41.45015" lon="20.5198">
        <ele>665.726186</ele>
        <time>2022-04-27T09:25:40.776Z</time>
      </trkpt>
      <trkpt lat="41.45005" lon="20.51974">
        <ele>665.546334</ele>
        <time>2022-04-27T09:25:42.778Z</time>
      </trkpt>
      <trkpt lat="41.44997" lon="20.51966">
        <ele>665.377891</ele>
        <time>2022-04-27T09:25:44.758Z</time>
      </trkpt>
      <trkpt lat="41.4499" lon="20.51956">
        <ele>665.215829</ele>
        <time>2022-04-27T09:25:46.757Z</time>
      </trkpt>
      <trkpt lat="41.44985" lon="20.51945">
        <ele>665.057544</ele>
        <time>2022-04-27T09:25:48.770Z</time>
      </trkpt>
      <trkpt lat="41.44981" lon="20.51932">
        <ele>664.893142</ele>
        <time>2022-04-27T09:25:50.812Z</time>
      </trkpt>
      <trkpt lat="41.44977" lon="20.51918">
        <ele>664.775509</ele>
        <time>2022-04-27T09:25:52.788Z</time>
      </trkpt>
      <trkpt lat="41.44973" lon="20.51903">
        <ele>664.65197</ele>
        <time>2022-04-27T09:25:54.764Z</time>
      </trkpt>
      <trkpt lat="41.44967" lon="20.5189">
        <ele>664.527978</ele>
        <time>2022-04-27T09:25:56.764Z</time>
      </trkpt>
      <trkpt lat="41.44957" lon="20.5188">
        <ele>664.401068</ele>
        <time>2022-04-27T09:25:58.772Z</time>
      </trkpt>
      <trkpt lat="41.44947" lon="20.51871">
        <ele>664.275991</ele>
        <time>2022-04-27T09:26:00.777Z</time>
      </trkpt>
      <trkpt lat="41.44937" lon="20.51866">
        <ele>664.162699</ele>
        <time>2022-04-27T09:26:02.808Z</time>
      </trkpt>
      <trkpt lat="41.44927" lon="20.51863">
        <ele>664.052902</ele>
        <time>2022-04-27T09:26:04.767Z</time>
      </trkpt>
      <trkpt lat="41.44916" lon="20.51862">
        <ele>663.941478</ele>
        <time>2022-04-27T09:26:06.780Z</time>
      </trkpt>
      <trkpt lat="41.44905" lon="20.51862">
        <ele>663.822063</ele>
        <time>2022-04-27T09:26:08.776Z</time>
      </trkpt>
      <trkpt lat="41.44893" lon="20.51861">
        <ele>663.701447</ele>
        <time>2022-04-27T09:26:10.787Z</time>
      </trkpt>
      <trkpt lat="41.44881" lon="20.51858">
        <ele>663.574111</ele>
        <time>2022-04-27T09:26:12.782Z</time>
      </trkpt>
      <trkpt lat="41.44869" lon="20.51855">
        <ele>663.438591</ele>
        <time>2022-04-27T09:26:14.776Z</time>
      </trkpt>
      <trkpt lat="41.44857" lon="20.51849">
        <ele>663.305892</ele>
        <time>2022-04-27T09:26:16.777Z</time>
      </trkpt>
      <trkpt lat="41.44846" lon="20.51843">
        <ele>663.184979</ele>
        <time>2022-04-27T09:26:18.782Z</time>
      </trkpt>
      <trkpt lat="41.44836" lon="20.51836">
        <ele>663.066501</ele>
        <time>2022-04-27T09:26:20.771Z</time>
      </trkpt>
      <trkpt lat="41.44826" lon="20.51829">
        <ele>663.369064</ele>
        <time>2022-04-27T09:26:22.753Z</time>
      </trkpt>
      <trkpt lat="41.44816" lon="20.51823">
        <ele>664.03929</ele>
        <time>2022-04-27T09:26:24.747Z</time>
      </trkpt>
      <trkpt lat="41.44806" lon="20.51818">
        <ele>664.698546</ele>
        <time>2022-04-27T09:26:26.763Z</time>
      </trkpt>
      <trkpt lat="41.44796" lon="20.51816">
        <ele>665.283681</ele>
        <time>2022-04-27T09:26:28.747Z</time>
      </trkpt>
      <trkpt lat="41.44784" lon="20.51816">
        <ele>666.03971</ele>
        <time>2022-04-27T09:26:31.744Z</time>
      </trkpt>
      <trkpt lat="41.44775" lon="20.51819">
        <ele>666.622901</ele>
        <time>2022-04-27T09:26:34.746Z</time>
      </trkpt>
      <trkpt lat="41.44766" lon="20.51827">
        <ele>667.272173</ele>
        <time>2022-04-27T09:26:38.773Z</time>
      </trkpt>
      <trkpt lat="41.4476" lon="20.51839">
        <ele>667.937617</ele>
        <time>2022-04-27T09:26:43.760Z</time>
      </trkpt>
      <trkpt lat="41.44755" lon="20.5185">
        <ele>668.518305</ele>
        <time>2022-04-27T09:26:48.752Z</time>
      </trkpt>
      <trkpt lat="41.4475" lon="20.51863">
        <ele>669.164049</ele>
        <time>2022-04-27T09:26:53.759Z</time>
      </trkpt>
      <trkpt lat="41.44747" lon="20.51876">
        <ele>669.796032</ele>
        <time>2022-04-27T09:26:58.760Z</time>
      </trkpt>
      <trkpt lat="41.44747" lon="20.51889">
        <ele>670.413567</ele>
        <time>2022-04-27T09:27:03.753Z</time>
      </trkpt>
      <trkpt lat="41.44745" lon="20.51902">
        <ele>671.012212</ele>
        <time>2022-04-27T09:27:08.748Z</time>
      </trkpt>
      <trkpt lat="41.44746" lon="20.51914">
        <ele>671.556747</ele>
        <time>2022-04-27T09:27:13.747Z</time>
      </trkpt>
      <trkpt lat="41.44746" lon="20.51926">
        <ele>672.118737</ele>
        <time>2022-04-27T09:27:18.742Z</time>
      </trkpt>
      <trkpt lat="41.44748" lon="20.51938">
        <ele>672.686169</ele>
        <time>2022-04-27T09:27:24.747Z</time>
      </trkpt>
      <trkpt lat="41.44748" lon="20.51953">
        <ele>673.335189</ele>
        <time>2022-04-27T09:27:31.745Z</time>
      </trkpt>
      <trkpt lat="41.44749" lon="20.51965">
        <ele>673.92258</ele>
        <time>2022-04-27T09:27:36.748Z</time>
      </trkpt>
      <trkpt lat="41.44748" lon="20.51979">
        <ele>674.693288</ele>
        <time>2022-04-27T09:27:42.745Z</time>
      </trkpt>
      <trkpt lat="41.44744" lon="20.5199">
        <ele>675.386291</ele>
        <time>2022-04-27T09:27:48.749Z</time>
      </trkpt>
      <trkpt lat="41.44739" lon="20.52001">
        <ele>676.13191</ele>
        <time>2022-04-27T09:27:55.756Z</time>
      </trkpt>
      <trkpt lat="41.44735" lon="20.52013">
        <ele>676.8962</ele>
        <time>2022-04-27T09:28:02.741Z</time>
      </trkpt>
      <trkpt lat="41.44731" lon="20.52025">
        <ele>677.630954</ele>
        <time>2022-04-27T09:28:08.757Z</time>
      </trkpt>
      <trkpt lat="41.44726" lon="20.52035">
        <ele>678.352993</ele>
        <time>2022-04-27T09:28:14.749Z</time>
      </trkpt>
      <trkpt lat="41.44721" lon="20.52047">
        <ele>679.156586</ele>
        <time>2022-04-27T09:28:21.746Z</time>
      </trkpt>
      <trkpt lat="41.44718" lon="20.52058">
        <ele>679.849303</ele>
        <time>2022-04-27T09:28:28.742Z</time>
      </trkpt>
      <trkpt lat="41.44713" lon="20.52071">
        <ele>680.663168</ele>
        <time>2022-04-27T09:28:35.774Z</time>
      </trkpt>
      <trkpt lat="41.44712" lon="20.52083">
        <ele>681.383946</ele>
        <time>2022-04-27T09:28:41.748Z</time>
      </trkpt>
      <trkpt lat="41.44712" lon="20.52096">
        <ele>682.155073</ele>
        <time>2022-04-27T09:28:47.745Z</time>
      </trkpt>
      <trkpt lat="41.44715" lon="20.52108">
        <ele>682.865313</ele>
        <time>2022-04-27T09:28:52.749Z</time>
      </trkpt>
      <trkpt lat="41.44719" lon="20.52121">
        <ele>683.670698</ele>
        <time>2022-04-27T09:28:58.754Z</time>
      </trkpt>
      <trkpt lat="41.44725" lon="20.52132">
        <ele>684.429352</ele>
        <time>2022-04-27T09:29:04.746Z</time>
      </trkpt>
      <trkpt lat="41.4473" lon="20.52142">
        <ele>685.173889</ele>
        <time>2022-04-27T09:29:11.748Z</time>
      </trkpt>
      <trkpt lat="41.44736" lon="20.52154">
        <ele>685.977842</ele>
        <time>2022-04-27T09:29:18.752Z</time>
      </trkpt>
      <trkpt lat="41.4474" lon="20.52165">
        <ele>686.708602</ele>
        <time>2022-04-27T09:29:25.770Z</time>
      </trkpt>
      <trkpt lat="41.44745" lon="20.52177">
        <ele>687.527436</ele>
        <time>2022-04-27T09:29:32.741Z</time>
      </trkpt>
      <trkpt lat="41.4475" lon="20.52188">
        <ele>688.114059</ele>
        <time>2022-04-27T09:29:38.752Z</time>
      </trkpt>
      <trkpt lat="41.4475" lon="20.522">
        <ele>688.566226</ele>
        <time>2022-04-27T09:29:45.747Z</time>
      </trkpt>
      <trkpt lat="41.44747" lon="20.52214">
        <ele>689.078838</ele>
        <time>2022-04-27T09:29:52.750Z</time>
      </trkpt>
      <trkpt lat="41.44745" lon="20.52227">
        <ele>689.591206</ele>
        <time>2022-04-27T09:30:00.744Z</time>
      </trkpt>
      <trkpt lat="41.4474" lon="20.52238">
        <ele>690.044871</ele>
        <time>2022-04-27T09:30:06.744Z</time>
      </trkpt>
      <trkpt lat="41.44735" lon="20.52249">
        <ele>690.553139</ele>
        <time>2022-04-27T09:30:13.745Z</time>
      </trkpt>
      <trkpt lat="41.44732" lon="20.52261">
        <ele>691.022766</ele>
        <time>2022-04-27T09:30:19.747Z</time>
      </trkpt>
      <trkpt lat="41.44731" lon="20.52274">
        <ele>691.506873</ele>
        <time>2022-04-27T09:30:26.750Z</time>
      </trkpt>
      <trkpt lat="41.44729" lon="20.52287">
        <ele>691.994672</ele>
        <time>2022-04-27T09:30:33.761Z</time>
      </trkpt>
      <trkpt lat="41.44729" lon="20.523">
        <ele>692.477967</ele>
        <time>2022-04-27T09:30:40.752Z</time>
      </trkpt>
      <trkpt lat="41.44729" lon="20.52314">
        <ele>692.991083</ele>
        <time>2022-04-27T09:30:46.761Z</time>
      </trkpt>
      <trkpt lat="41.44731" lon="20.52326">
        <ele>693.459374</ele>
        <time>2022-04-27T09:30:52.747Z</time>
      </trkpt>
      <trkpt lat="41.44734" lon="20.52338">
        <ele>693.916817</ele>
        <time>2022-04-27T09:30:58.746Z</time>
      </trkpt>
      <trkpt lat="41.44738" lon="20.5235">
        <ele>694.405133</ele>
        <time>2022-04-27T09:31:04.774Z</time>
      </trkpt>
      <trkpt lat="41.44741" lon="20.52363">
        <ele>694.910931</ele>
        <time>2022-04-27T09:31:10.780Z</time>
      </trkpt>
      <trkpt lat="41.44744" lon="20.52376">
        <ele>695.451774</ele>
        <time>2022-04-27T09:31:16.750Z</time>
      </trkpt>
      <trkpt lat="41.44744" lon="20.52389">
        <ele>695.911819</ele>
        <time>2022-04-27T09:31:23.747Z</time>
      </trkpt>
      <trkpt lat="41.44742" lon="20.52401">
        <ele>696.393035</ele>
        <time>2022-04-27T09:31:30.749Z</time>
      </trkpt>
      <trkpt lat="41.44739" lon="20.52413">
        <ele>696.882965</ele>
        <time>2022-04-27T09:31:37.792Z</time>
      </trkpt>
      <trkpt lat="41.44735" lon="20.52425">
        <ele>697.445526</ele>
        <time>2022-04-27T09:31:44.751Z</time>
      </trkpt>
      <trkpt lat="41.44729" lon="20.52436">
        <ele>698.05537</ele>
        <time>2022-04-27T09:31:52.753Z</time>
      </trkpt>
      <trkpt lat="41.44723" lon="20.52447">
        <ele>698.654518</ele>
        <time>2022-04-27T09:32:00.757Z</time>
      </trkpt>
      <trkpt lat="41.44718" lon="20.52456">
        <ele>699.203731</ele>
        <time>2022-04-27T09:32:07.749Z</time>
      </trkpt>
      <trkpt lat="41.4471" lon="20.52465">
        <ele>699.796288</ele>
        <time>2022-04-27T09:32:15.745Z</time>
      </trkpt>
      <trkpt lat="41.44704" lon="20.52475">
        <ele>700.393481</ele>
        <time>2022-04-27T09:32:23.740Z</time>
      </trkpt>
      <trkpt lat="41.44697" lon="20.52484">
        <ele>700.937586</ele>
        <time>2022-04-27T09:32:31.749Z</time>
      </trkpt>
      <trkpt lat="41.44691" lon="20.52492">
        <ele>701.478211</ele>
        <time>2022-04-27T09:32:38.755Z</time>
      </trkpt>
      <trkpt lat="41.44684" lon="20.52502">
        <ele>702.046886</ele>
        <time>2022-04-27T09:32:45.744Z</time>
      </trkpt>
      <trkpt lat="41.44679" lon="20.52512">
        <ele>702.592528</ele>
        <time>2022-04-27T09:32:52.756Z</time>
      </trkpt>
      <trkpt lat="41.44671" lon="20.52521">
        <ele>703.208751</ele>
        <time>2022-04-27T09:32:59.771Z</time>
      </trkpt>
      <trkpt lat="41.44665" lon="20.52531">
        <ele>703.755186</ele>
        <time>2022-04-27T09:33:06.755Z</time>
      </trkpt>
      <trkpt lat="41.44658" lon="20.52539">
        <ele>704.356863</ele>
        <time>2022-04-27T09:33:13.742Z</time>
      </trkpt>
      <trkpt lat="41.44651" lon="20.52548">
        <ele>704.920167</ele>
        <time>2022-04-27T09:33:20.750Z</time>
      </trkpt>
      <trkpt lat="41.44645" lon="20.52557">
        <ele>705.452937</ele>
        <time>2022-04-27T09:33:27.798Z</time>
      </trkpt>
      <trkpt lat="41.44638" lon="20.52565">
        <ele>706.000412</ele>
        <time>2022-04-27T09:33:34.748Z</time>
      </trkpt>
      <trkpt lat="41.44631" lon="20.52574">
        <ele>706.559463</ele>
        <time>2022-04-27T09:33:41.747Z</time>
      </trkpt>
      <trkpt lat="41.44625" lon="20.52584">
        <ele>707.131026</ele>
        <time>2022-04-27T09:33:48.767Z</time>
      </trkpt>
      <trkpt lat="41.44619" lon="20.52594">
        <ele>707.81768</ele>
        <time>2022-04-27T09:33:56.750Z</time>
      </trkpt>
      <trkpt lat="41.44613" lon="20.52605">
        <ele>708.788006</ele>
        <time>2022-04-27T09:34:04.750Z</time>
      </trkpt>
      <trkpt lat="41.44608" lon="20.52617">
        <ele>709.727735</ele>
        <time>2022-04-27T09:34:11.745Z</time>
      </trkpt>
      <trkpt lat="41.44604" lon="20.52629">
        <ele>710.575202</ele>
        <time>2022-04-27T09:34:18.762Z</time>
      </trkpt>
      <trkpt lat="41.44602" lon="20.52641">
        <ele>711.410715</ele>
        <time>2022-04-27T09:34:26.752Z</time>
      </trkpt>
      <trkpt lat="41.44602" lon="20.52653">
        <ele>712.276067</ele>
        <time>2022-04-27T09:34:33.741Z</time>
      </trkpt>
      <trkpt lat="41.44603" lon="20.52667">
        <ele>713.189772</ele>
        <time>2022-04-27T09:34:40.743Z</time>
      </trkpt>
      <trkpt lat="41.44607" lon="20.52679">
        <ele>714.047746</ele>
        <time>2022-04-27T09:34:47.740Z</time>
      </trkpt>
      <trkpt lat="41.44612" lon="20.52689">
        <ele>714.892684</ele>
        <time>2022-04-27T09:34:54.753Z</time>
      </trkpt>
      <trkpt lat="41.44618" lon="20.52699">
        <ele>715.781194</ele>
        <time>2022-04-27T09:35:02.745Z</time>
      </trkpt>
      <trkpt lat="41.44627" lon="20.52705">
        <ele>716.69054</ele>
        <time>2022-04-27T09:35:09.751Z</time>
      </trkpt>
      <trkpt lat="41.44634" lon="20.52714">
        <ele>717.60278</ele>
        <time>2022-04-27T09:35:16.749Z</time>
      </trkpt>
      <trkpt lat="41.44642" lon="20.52722">
        <ele>718.51141</ele>
        <time>2022-04-27T09:35:24.749Z</time>
      </trkpt>
      <trkpt lat="41.44649" lon="20.5273">
        <ele>719.353542</ele>
        <time>2022-04-27T09:35:31.742Z</time>
      </trkpt>
      <trkpt lat="41.44656" lon="20.5274">
        <ele>720.234816</ele>
        <time>2022-04-27T09:35:38.749Z</time>
      </trkpt>
      <trkpt lat="41.44662" lon="20.52751">
        <ele>721.172458</ele>
        <time>2022-04-27T09:35:46.749Z</time>
      </trkpt>
      <trkpt lat="41.44667" lon="20.52761">
        <ele>722.023185</ele>
        <time>2022-04-27T09:35:53.740Z</time>
      </trkpt>
      <trkpt lat="41.44671" lon="20.52773">
        <ele>722.882405</ele>
        <time>2022-04-27T09:36:00.754Z</time>
      </trkpt>
      <trkpt lat="41.44675" lon="20.52785">
        <ele>723.788477</ele>
        <time>2022-04-27T09:36:08.749Z</time>
      </trkpt>
      <trkpt lat="41.44677" lon="20.52798">
        <ele>724.228333</ele>
        <time>2022-04-27T09:36:16.749Z</time>
      </trkpt>
      <trkpt lat="41.44677" lon="20.52811">
        <ele>724.583284</ele>
        <time>2022-04-27T09:36:24.771Z</time>
      </trkpt>
      <trkpt lat="41.44676" lon="20.52824">
        <ele>724.982325</ele>
        <time>2022-04-27T09:36:33.747Z</time>
      </trkpt>
      <trkpt lat="41.44673" lon="20.52836">
        <ele>725.356922</ele>
        <time>2022-04-27T09:36:42.744Z</time>
      </trkpt>
      <trkpt lat="41.44671" lon="20.52848">
        <ele>725.712628</ele>
        <time>2022-04-27T09:36:49.747Z</time>
      </trkpt>
      <trkpt lat="41.44668" lon="20.52861">
        <ele>726.106738</ele>
        <time>2022-04-27T09:36:56.752Z</time>
      </trkpt>
      <trkpt lat="41.44662" lon="20.52873">
        <ele>726.501964</ele>
        <time>2022-04-27T09:37:03.743Z</time>
      </trkpt>
      <trkpt lat="41.44656" lon="20.52882">
        <ele>726.856423</ele>
        <time>2022-04-27T09:37:10.757Z</time>
      </trkpt>
      <trkpt lat="41.44647" lon="20.52886">
        <ele>727.243068</ele>
        <time>2022-04-27T09:37:16.741Z</time>
      </trkpt>
      <trkpt lat="41.44639" lon="20.52893">
        <ele>727.603309</ele>
        <time>2022-04-27T09:37:22.757Z</time>
      </trkpt>
      <trkpt lat="41.44631" lon="20.52898">
        <ele>727.958233</ele>
        <time>2022-04-27T09:37:29.757Z</time>
      </trkpt>
      <trkpt lat="41.44621" lon="20.52903">
        <ele>728.354314</ele>
        <time>2022-04-27T09:37:36.746Z</time>
      </trkpt>
      <trkpt lat="41.44613" lon="20.52908">
        <ele>728.711433</ele>
        <time>2022-04-27T09:37:43.750Z</time>
      </trkpt>
      <trkpt lat="41.44604" lon="20.52915">
        <ele>729.110039</ele>
        <time>2022-04-27T09:37:51.740Z</time>
      </trkpt>
      <trkpt lat="41.44596" lon="20.52922">
        <ele>729.48469</ele>
        <time>2022-04-27T09:37:59.740Z</time>
      </trkpt>
      <trkpt lat="41.44588" lon="20.5293">
        <ele>729.868907</ele>
        <time>2022-04-27T09:38:07.757Z</time>
      </trkpt>
      <trkpt lat="41.44582" lon="20.5294">
        <ele>730.24268</ele>
        <time>2022-04-27T09:38:14.743Z</time>
      </trkpt>
      <trkpt lat="41.44575" lon="20.5295">
        <ele>730.631727</ele>
        <time>2022-04-27T09:38:21.766Z</time>
      </trkpt>
      <trkpt lat="41.44571" lon="20.5296">
        <ele>731.144953</ele>
        <time>2022-04-27T09:38:28.751Z</time>
      </trkpt>
      <trkpt lat="41.44565" lon="20.52971">
        <ele>731.936029</ele>
        <time>2022-04-27T09:38:36.749Z</time>
      </trkpt>
      <trkpt lat="41.44559" lon="20.5298">
        <ele>732.663104</ele>
        <time>2022-04-27T09:38:43.740Z</time>
      </trkpt>
      <trkpt lat="41.44551" lon="20.52987">
        <ele>733.405912</ele>
        <time>2022-04-27T09:38:49.740Z</time>
      </trkpt>
      <trkpt lat="41.44543" lon="20.52994">
        <ele>734.164821</ele>
        <time>2022-04-27T09:38:55.770Z</time>
      </trkpt>
      <trkpt lat="41.44533" lon="20.52999">
        <ele>734.970173</ele>
        <time>2022-04-27T09:39:02.752Z</time>
      </trkpt>
      <trkpt lat="41.44524" lon="20.53002">
        <ele>735.733443</ele>
        <time>2022-04-27T09:39:09.745Z</time>
      </trkpt>
      <trkpt lat="41.44514" lon="20.53001">
        <ele>736.499549</ele>
        <time>2022-04-27T09:39:16.752Z</time>
      </trkpt>
      <trkpt lat="41.44504" lon="20.53">
        <ele>737.303475</ele>
        <time>2022-04-27T09:39:22.740Z</time>
      </trkpt>
      <trkpt lat="41.44495" lon="20.52996">
        <ele>738.041433</ele>
        <time>2022-04-27T09:39:27.754Z</time>
      </trkpt>
      <trkpt lat="41.44486" lon="20.52992">
        <ele>738.85613</ele>
        <time>2022-04-27T09:39:33.752Z</time>
      </trkpt>
      <trkpt lat="41.44478" lon="20.52983">
        <ele>739.605958</ele>
        <time>2022-04-27T09:39:39.749Z</time>
      </trkpt>
      <trkpt lat="41.44473" lon="20.52973">
        <ele>740.369531</ele>
        <time>2022-04-27T09:39:45.776Z</time>
      </trkpt>
      <trkpt lat="41.44468" lon="20.52962">
        <ele>741.096679</ele>
        <time>2022-04-27T09:39:51.750Z</time>
      </trkpt>
      <trkpt lat="41.44463" lon="20.5295">
        <ele>741.931701</ele>
        <time>2022-04-27T09:39:59.752Z</time>
      </trkpt>
      <trkpt lat="41.4446" lon="20.52937">
        <ele>742.735948</ele>
        <time>2022-04-27T09:40:05.751Z</time>
      </trkpt>
      <trkpt lat="41.44458" lon="20.52925">
        <ele>743.463647</ele>
        <time>2022-04-27T09:40:11.748Z</time>
      </trkpt>
      <trkpt lat="41.44454" lon="20.52912">
        <ele>744.279177</ele>
        <time>2022-04-27T09:40:17.742Z</time>
      </trkpt>
      <trkpt lat="41.44448" lon="20.52903">
        <ele>745.014541</ele>
        <time>2022-04-27T09:40:23.751Z</time>
      </trkpt>
      <trkpt lat="41.44441" lon="20.52894">
        <ele>745.73676</ele>
        <time>2022-04-27T09:40:29.769Z</time>
      </trkpt>
      <trkpt lat="41.44432" lon="20.52888">
        <ele>746.55168</ele>
        <time>2022-04-27T09:40:35.770Z</time>
      </trkpt>
      <trkpt lat="41.44424" lon="20.5288">
        <ele>747.326766</ele>
        <time>2022-04-27T09:40:40.746Z</time>
      </trkpt>
      <trkpt lat="41.44414" lon="20.52876">
        <ele>748.155596</ele>
        <time>2022-04-27T09:40:46.743Z</time>
      </trkpt>
      <trkpt lat="41.44404" lon="20.52873">
        <ele>748.954659</ele>
        <time>2022-04-27T09:40:52.761Z</time>
      </trkpt>
      <trkpt lat="41.44394" lon="20.52871">
        <ele>749.67782</ele>
        <time>2022-04-27T09:40:57.745Z</time>
      </trkpt>
      <trkpt lat="41.44385" lon="20.52867">
        <ele>750.426618</ele>
        <time>2022-04-27T09:41:03.746Z</time>
      </trkpt>
      <trkpt lat="41.44376" lon="20.52866">
        <ele>751.161762</ele>
        <time>2022-04-27T09:41:09.744Z</time>
      </trkpt>
      <trkpt lat="41.44367" lon="20.52868">
        <ele>751.871237</ele>
        <time>2022-04-27T09:41:14.747Z</time>
      </trkpt>
      <trkpt lat="41.44358" lon="20.5287">
        <ele>752.611566</ele>
        <time>2022-04-27T09:41:20.752Z</time>
      </trkpt>
      <trkpt lat="41.44348" lon="20.52872">
        <ele>753.377665</ele>
        <time>2022-04-27T09:41:26.740Z</time>
      </trkpt>
      <trkpt lat="41.44339" lon="20.52876">
        <ele>754.086365</ele>
        <time>2022-04-27T09:41:33.741Z</time>
      </trkpt>
      <trkpt lat="41.44331" lon="20.52882">
        <ele>754.790687</ele>
        <time>2022-04-27T09:41:40.751Z</time>
      </trkpt>
      <trkpt lat="41.44324" lon="20.5289">
        <ele>755.538931</ele>
        <time>2022-04-27T09:41:48.741Z</time>
      </trkpt>
      <trkpt lat="41.44318" lon="20.52901">
        <ele>756.319826</ele>
        <time>2022-04-27T09:41:55.746Z</time>
      </trkpt>
      <trkpt lat="41.44313" lon="20.52911">
        <ele>757.072664</ele>
        <time>2022-04-27T09:42:01.739Z</time>
      </trkpt>
      <trkpt lat="41.44309" lon="20.52923">
        <ele>757.818845</ele>
        <time>2022-04-27T09:42:09.744Z</time>
      </trkpt>
      <trkpt lat="41.44305" lon="20.52935">
        <ele>758.552166</ele>
        <time>2022-04-27T09:42:15.742Z</time>
      </trkpt>
      <trkpt lat="41.44303" lon="20.52948">
        <ele>759.077126</ele>
        <time>2022-04-27T09:42:21.745Z</time>
      </trkpt>
      <trkpt lat="41.44301" lon="20.52962">
        <ele>759.133815</ele>
        <time>2022-04-27T09:42:27.741Z</time>
      </trkpt>
      <trkpt lat="41.44301" lon="20.52976">
        <ele>759.188677</ele>
        <time>2022-04-27T09:42:33.759Z</time>
      </trkpt>
      <trkpt lat="41.44302" lon="20.52989">
        <ele>759.240126</ele>
        <time>2022-04-27T09:42:39.746Z</time>
      </trkpt>
      <trkpt lat="41.44304" lon="20.53002">
        <ele>759.294539</ele>
        <time>2022-04-27T09:42:45.740Z</time>
      </trkpt>
      <trkpt lat="41.44305" lon="20.53015">
        <ele>759.343911</ele>
        <time>2022-04-27T09:42:50.763Z</time>
      </trkpt>
      <trkpt lat="41.44305" lon="20.53027">
        <ele>759.39162</ele>
        <time>2022-04-27T09:42:55.755Z</time>
      </trkpt>
      <trkpt lat="41.44302" lon="20.5304">
        <ele>759.448586</ele>
        <time>2022-04-27T09:43:01.744Z</time>
      </trkpt>
      <trkpt lat="41.44299" lon="20.53053">
        <ele>759.500918</ele>
        <time>2022-04-27T09:43:06.742Z</time>
      </trkpt>
      <trkpt lat="41.44295" lon="20.53066">
        <ele>759.558424</ele>
        <time>2022-04-27T09:43:12.748Z</time>
      </trkpt>
      <trkpt lat="41.44292" lon="20.53078">
        <ele>759.608111</ele>
        <time>2022-04-27T09:43:17.752Z</time>
      </trkpt>
      <trkpt lat="41.44288" lon="20.53092">
        <ele>759.665264</ele>
        <time>2022-04-27T09:43:23.735Z</time>
      </trkpt>
      <trkpt lat="41.44284" lon="20.53103">
        <ele>759.714983</ele>
        <time>2022-04-27T09:43:28.744Z</time>
      </trkpt>
      <trkpt lat="41.4428" lon="20.53114">
        <ele>759.764685</ele>
        <time>2022-04-27T09:43:34.755Z</time>
      </trkpt>
      <trkpt lat="41.44276" lon="20.53126">
        <ele>759.81638</ele>
        <time>2022-04-27T09:43:40.751Z</time>
      </trkpt>
      <trkpt lat="41.44271" lon="20.53137">
        <ele>759.868407</ele>
        <time>2022-04-27T09:43:46.739Z</time>
      </trkpt>
      <trkpt lat="41.44264" lon="20.53147">
        <ele>759.921583</ele>
        <time>2022-04-27T09:43:51.743Z</time>
      </trkpt>
      <trkpt lat="41.4426" lon="20.5316">
        <ele>759.975996</ele>
        <time>2022-04-27T09:43:57.745Z</time>
      </trkpt>
      <trkpt lat="41.44256" lon="20.53172">
        <ele>760.091853</ele>
        <time>2022-04-27T09:44:03.751Z</time>
      </trkpt>
      <trkpt lat="41.44253" lon="20.53185">
        <ele>760.322644</ele>
        <time>2022-04-27T09:44:09.762Z</time>
      </trkpt>
      <trkpt lat="41.4425" lon="20.53197">
        <ele>760.549128</ele>
        <time>2022-04-27T09:44:15.754Z</time>
      </trkpt>
      <trkpt lat="41.44248" lon="20.53209">
        <ele>760.756235</ele>
        <time>2022-04-27T09:44:20.746Z</time>
      </trkpt>
      <trkpt lat="41.44247" lon="20.53222">
        <ele>760.991095</ele>
        <time>2022-04-27T09:44:26.750Z</time>
      </trkpt>
      <trkpt lat="41.44246" lon="20.53235">
        <ele>761.213235</ele>
        <time>2022-04-27T09:44:31.751Z</time>
      </trkpt>
      <trkpt lat="41.44244" lon="20.53248">
        <ele>761.436017</ele>
        <time>2022-04-27T09:44:36.764Z</time>
      </trkpt>
      <trkpt lat="41.44243" lon="20.53261">
        <ele>761.661456</ele>
        <time>2022-04-27T09:44:41.745Z</time>
      </trkpt>
      <trkpt lat="41.44242" lon="20.53274">
        <ele>761.902755</ele>
        <time>2022-04-27T09:44:47.747Z</time>
      </trkpt>
      <trkpt lat="41.4424" lon="20.53289">
        <ele>762.150321</ele>
        <time>2022-04-27T09:44:53.745Z</time>
      </trkpt>
      <trkpt lat="41.44237" lon="20.53301">
        <ele>762.375676</ele>
        <time>2022-04-27T09:44:58.743Z</time>
      </trkpt>
      <trkpt lat="41.44235" lon="20.53313">
        <ele>762.583386</ele>
        <time>2022-04-27T09:45:03.743Z</time>
      </trkpt>
      <trkpt lat="41.44232" lon="20.53324">
        <ele>762.799996</ele>
        <time>2022-04-27T09:45:08.757Z</time>
      </trkpt>
      <trkpt lat="41.44228" lon="20.53336">
        <ele>763.015706</ele>
        <time>2022-04-27T09:45:13.746Z</time>
      </trkpt>
      <trkpt lat="41.44225" lon="20.53347">
        <ele>763.229738</ele>
        <time>2022-04-27T09:45:18.760Z</time>
      </trkpt>
      <trkpt lat="41.44221" lon="20.53358">
        <ele>763.438244</ele>
        <time>2022-04-27T09:45:23.740Z</time>
      </trkpt>
      <trkpt lat="41.44214" lon="20.53369">
        <ele>763.690808</ele>
        <time>2022-04-27T09:45:28.748Z</time>
      </trkpt>
      <trkpt lat="41.44208" lon="20.53379">
        <ele>763.91518</ele>
        <time>2022-04-27T09:45:33.740Z</time>
      </trkpt>
      <trkpt lat="41.44202" lon="20.5339">
        <ele>764.138158</ele>
        <time>2022-04-27T09:45:38.776Z</time>
      </trkpt>
      <trkpt lat="41.44196" lon="20.534">
        <ele>764.162786</ele>
        <time>2022-04-27T09:45:43.742Z</time>
      </trkpt>
      <trkpt lat="41.44189" lon="20.5341">
        <ele>764.162674</ele>
        <time>2022-04-27T09:45:48.742Z</time>
      </trkpt>
      <trkpt lat="41.44183" lon="20.5342">
        <ele>764.162562</ele>
        <time>2022-04-27T09:45:53.746Z</time>
      </trkpt>
      <trkpt lat="41.44175" lon="20.5343">
        <ele>764.162442</ele>
        <time>2022-04-27T09:45:57.742Z</time>
      </trkpt>
      <trkpt lat="41.44167" lon="20.53438">
        <ele>764.162335</ele>
        <time>2022-04-27T09:46:01.777Z</time>
      </trkpt>
      <trkpt lat="41.4416" lon="20.53447">
        <ele>764.162224</ele>
        <time>2022-04-27T09:46:05.754Z</time>
      </trkpt>
      <trkpt lat="41.44151" lon="20.53456">
        <ele>764.162104</ele>
        <time>2022-04-27T09:46:09.757Z</time>
      </trkpt>
      <trkpt lat="41.44145" lon="20.53468">
        <ele>764.161983</ele>
        <time>2022-04-27T09:46:14.741Z</time>
      </trkpt>
      <trkpt lat="41.44139" lon="20.53479">
        <ele>764.161872</ele>
        <time>2022-04-27T09:46:18.765Z</time>
      </trkpt>
      <trkpt lat="41.44133" lon="20.53488">
        <ele>764.161772</ele>
        <time>2022-04-27T09:46:21.747Z</time>
      </trkpt>
      <trkpt lat="41.44128" lon="20.535">
        <ele>764.161657</ele>
        <time>2022-04-27T09:46:24.754Z</time>
      </trkpt>
      <trkpt lat="41.44123" lon="20.53513">
        <ele>764.161535</ele>
        <time>2022-04-27T09:46:27.741Z</time>
      </trkpt>
      <trkpt lat="41.44119" lon="20.53528">
        <ele>764.161406</ele>
        <time>2022-04-27T09:46:30.751Z</time>
      </trkpt>
      <trkpt lat="41.44118" lon="20.53541">
        <ele>764.161301</ele>
        <time>2022-04-27T09:46:32.756Z</time>
      </trkpt>
      <trkpt lat="41.4412" lon="20.53556">
        <ele>764.161174</ele>
        <time>2022-04-27T09:46:34.768Z</time>
      </trkpt>
      <trkpt lat="41.44127" lon="20.53571">
        <ele>764.161028</ele>
        <time>2022-04-27T09:46:36.749Z</time>
      </trkpt>
      <trkpt lat="41.44134" lon="20.53583">
        <ele>764.160908</ele>
        <time>2022-04-27T09:46:38.763Z</time>
      </trkpt>
      <trkpt lat="41.44144" lon="20.53592">
        <ele>763.69793</ele>
        <time>2022-04-27T09:46:40.764Z</time>
      </trkpt>
      <trkpt lat="41.44155" lon="20.53602">
        <ele>763.11765</ele>
        <time>2022-04-27T09:46:42.746Z</time>
      </trkpt>
      <trkpt lat="41.44165" lon="20.53612">
        <ele>762.603944</ele>
        <time>2022-04-27T09:46:44.748Z</time>
      </trkpt>
      <trkpt lat="41.44172" lon="20.5362">
        <ele>762.195692</ele>
        <time>2022-04-27T09:46:46.750Z</time>
      </trkpt>
      <trkpt lat="41.44178" lon="20.5363">
        <ele>761.801336</ele>
        <time>2022-04-27T09:46:49.741Z</time>
      </trkpt>
      <trkpt lat="41.44187" lon="20.53636">
        <ele>761.406854</ele>
        <time>2022-04-27T09:46:52.752Z</time>
      </trkpt>
      <trkpt lat="41.44196" lon="20.53642">
        <ele>760.976845</ele>
        <time>2022-04-27T09:46:56.750Z</time>
      </trkpt>
      <trkpt lat="41.44213" lon="20.5368">
        <ele>759.578433</ele>
        <time>2022-04-27T09:48:53.747Z</time>
      </trkpt>
      <trkpt lat="41.44223" lon="20.53688">
        <ele>759.087145</ele>
        <time>2022-04-27T09:48:55.740Z</time>
      </trkpt>
      <trkpt lat="41.44234" lon="20.53696">
        <ele>758.568554</ele>
        <time>2022-04-27T09:48:57.747Z</time>
      </trkpt>
      <trkpt lat="41.44246" lon="20.53699">
        <ele>758.070207</ele>
        <time>2022-04-27T09:48:59.771Z</time>
      </trkpt>
      <trkpt lat="41.44259" lon="20.53699">
        <ele>757.536592</ele>
        <time>2022-04-27T09:49:01.748Z</time>
      </trkpt>
      <trkpt lat="41.44272" lon="20.53696">
        <ele>756.968095</ele>
        <time>2022-04-27T09:49:03.746Z</time>
      </trkpt>
      <trkpt lat="41.44285" lon="20.53694">
        <ele>756.220485</ele>
        <time>2022-04-27T09:49:05.771Z</time>
      </trkpt>
      <trkpt lat="41.44297" lon="20.53695">
        <ele>755.121442</ele>
        <time>2022-04-27T09:49:07.739Z</time>
      </trkpt>
      <trkpt lat="41.44308" lon="20.53697">
        <ele>754.044444</ele>
        <time>2022-04-27T09:49:09.745Z</time>
      </trkpt>
      <trkpt lat="41.44318" lon="20.53702">
        <ele>753.068212</ele>
        <time>2022-04-27T09:49:11.741Z</time>
      </trkpt>
      <trkpt lat="41.44328" lon="20.53708">
        <ele>752.058487</ele>
        <time>2022-04-27T09:49:13.750Z</time>
      </trkpt>
      <trkpt lat="41.44339" lon="20.53717">
        <ele>750.838219</ele>
        <time>2022-04-27T09:49:15.750Z</time>
      </trkpt>
      <trkpt lat="41.44348" lon="20.53731">
        <ele>749.534201</ele>
        <time>2022-04-27T09:49:17.743Z</time>
      </trkpt>
      <trkpt lat="41.44356" lon="20.53746">
        <ele>748.286534</ele>
        <time>2022-04-27T09:49:19.750Z</time>
      </trkpt>
      <trkpt lat="41.44366" lon="20.53762">
        <ele>746.832921</ele>
        <time>2022-04-27T09:49:21.749Z</time>
      </trkpt>
      <trkpt lat="41.44374" lon="20.5378">
        <ele>745.382926</ele>
        <time>2022-04-27T09:49:23.748Z</time>
      </trkpt>
      <trkpt lat="41.44377" lon="20.53799">
        <ele>743.974111</ele>
        <time>2022-04-27T09:49:25.743Z</time>
      </trkpt>
      <trkpt lat="41.44381" lon="20.53819">
        <ele>742.574437</ele>
        <time>2022-04-27T09:49:27.739Z</time>
      </trkpt>
      <trkpt lat="41.44385" lon="20.53839">
        <ele>741.09575</ele>
        <time>2022-04-27T09:49:29.747Z</time>
      </trkpt>
      <trkpt lat="41.44389" lon="20.53861">
        <ele>739.527814</ele>
        <time>2022-04-27T09:49:31.740Z</time>
      </trkpt>
      <trkpt lat="41.44392" lon="20.53882">
        <ele>738.08666</ele>
        <time>2022-04-27T09:49:33.776Z</time>
      </trkpt>
      <trkpt lat="41.44393" lon="20.53905">
        <ele>736.567689</ele>
        <time>2022-04-27T09:49:35.745Z</time>
      </trkpt>
      <trkpt lat="41.44394" lon="20.53926">
        <ele>735.139116</ele>
        <time>2022-04-27T09:49:37.744Z</time>
      </trkpt>
      <trkpt lat="41.44394" lon="20.53946">
        <ele>733.786342</ele>
        <time>2022-04-27T09:49:39.751Z</time>
      </trkpt>
      <trkpt lat="41.44394" lon="20.53966">
        <ele>732.440061</ele>
        <time>2022-04-27T09:49:41.739Z</time>
      </trkpt>
      <trkpt lat="41.44392" lon="20.53986">
        <ele>731.059426</ele>
        <time>2022-04-27T09:49:43.746Z</time>
      </trkpt>
      <trkpt lat="41.44388" lon="20.54007">
        <ele>729.589325</ele>
        <time>2022-04-27T09:49:45.741Z</time>
      </trkpt>
      <trkpt lat="41.44382" lon="20.54027">
        <ele>728.097726</ele>
        <time>2022-04-27T09:49:47.746Z</time>
      </trkpt>
      <trkpt lat="41.44375" lon="20.54049">
        <ele>726.51358</ele>
        <time>2022-04-27T09:49:49.735Z</time>
      </trkpt>
      <trkpt lat="41.44368" lon="20.5407">
        <ele>724.97608</ele>
        <time>2022-04-27T09:49:51.753Z</time>
      </trkpt>
      <trkpt lat="41.44362" lon="20.5409">
        <ele>723.546946</ele>
        <time>2022-04-27T09:49:53.741Z</time>
      </trkpt>
      <trkpt lat="41.44355" lon="20.5411">
        <ele>722.571471</ele>
        <time>2022-04-27T09:49:55.782Z</time>
      </trkpt>
      <trkpt lat="41.44348" lon="20.54132">
        <ele>721.543867</ele>
        <time>2022-04-27T09:49:57.742Z</time>
      </trkpt>
      <trkpt lat="41.4434" lon="20.54153">
        <ele>720.53317</ele>
        <time>2022-04-27T09:49:59.741Z</time>
      </trkpt>
      <trkpt lat="41.44331" lon="20.54173">
        <ele>719.537995</ele>
        <time>2022-04-27T09:50:01.776Z</time>
      </trkpt>
      <trkpt lat="41.44326" lon="20.54183">
        <ele>719.001113</ele>
        <time>2022-04-27T09:50:02.740Z</time>
      </trkpt>
      <trkpt lat="41.44321" lon="20.54194">
        <ele>718.460987</ele>
        <time>2022-04-27T09:50:03.751Z</time>
      </trkpt>
      <trkpt lat="41.44312" lon="20.54212">
        <ele>717.523523</ele>
        <time>2022-04-27T09:50:05.745Z</time>
      </trkpt>
      <trkpt lat="41.44304" lon="20.54229">
        <ele>716.664029</ele>
        <time>2022-04-27T09:50:07.743Z</time>
      </trkpt>
      <trkpt lat="41.44296" lon="20.54244">
        <ele>715.857252</ele>
        <time>2022-04-27T09:50:09.738Z</time>
      </trkpt>
      <trkpt lat="41.44288" lon="20.5426">
        <ele>715.022861</ele>
        <time>2022-04-27T09:50:11.739Z</time>
      </trkpt>
      <trkpt lat="41.44283" lon="20.54278">
        <ele>714.198472</ele>
        <time>2022-04-27T09:50:13.756Z</time>
      </trkpt>
      <trkpt lat="41.44279" lon="20.54294">
        <ele>713.46126</ele>
        <time>2022-04-27T09:50:15.741Z</time>
      </trkpt>
      <trkpt lat="41.44278" lon="20.54308">
        <ele>713.5435</ele>
        <time>2022-04-27T09:50:17.750Z</time>
      </trkpt>
      <trkpt lat="41.44278" lon="20.54321">
        <ele>713.980896</ele>
        <time>2022-04-27T09:50:19.742Z</time>
      </trkpt>
      <trkpt lat="41.44281" lon="20.54335">
        <ele>714.47913</ele>
        <time>2022-04-27T09:50:21.746Z</time>
      </trkpt>
      <trkpt lat="41.44282" lon="20.54351">
        <ele>715.00076</ele>
        <time>2022-04-27T09:50:23.773Z</time>
      </trkpt>
      <trkpt lat="41.44283" lon="20.54364">
        <ele>715.444092</ele>
        <time>2022-04-27T09:50:25.747Z</time>
      </trkpt>
      <trkpt lat="41.44288" lon="20.54376">
        <ele>715.873984</ele>
        <time>2022-04-27T09:50:27.745Z</time>
      </trkpt>
      <trkpt lat="41.44292" lon="20.54388">
        <ele>716.313613</ele>
        <time>2022-04-27T09:50:29.766Z</time>
      </trkpt>
      <trkpt lat="41.44298" lon="20.54399">
        <ele>716.771409</ele>
        <time>2022-04-27T09:50:31.746Z</time>
      </trkpt>
      <trkpt lat="41.44305" lon="20.54407">
        <ele>717.189857</ele>
        <time>2022-04-27T09:50:33.744Z</time>
      </trkpt>
      <trkpt lat="41.44314" lon="20.54417">
        <ele>717.661085</ele>
        <time>2022-04-27T09:50:36.761Z</time>
      </trkpt>
      <trkpt lat="41.44323" lon="20.54425">
        <ele>718.165512</ele>
        <time>2022-04-27T09:50:39.744Z</time>
      </trkpt>
      <trkpt lat="41.44332" lon="20.54432">
        <ele>718.637988</ele>
        <time>2022-04-27T09:50:42.749Z</time>
      </trkpt>
      <trkpt lat="41.4434" lon="20.54439">
        <ele>719.041594</ele>
        <time>2022-04-27T09:50:45.742Z</time>
      </trkpt>
      <trkpt lat="41.44349" lon="20.54448">
        <ele>719.531429</ele>
        <time>2022-04-27T09:50:49.745Z</time>
      </trkpt>
      <trkpt lat="41.44357" lon="20.54457">
        <ele>720.013652</ele>
        <time>2022-04-27T09:50:54.746Z</time>
      </trkpt>
      <trkpt lat="41.44365" lon="20.54466">
        <ele>720.458587</ele>
        <time>2022-04-27T09:50:59.737Z</time>
      </trkpt>
      <trkpt lat="41.44373" lon="20.54475">
        <ele>720.915571</ele>
        <time>2022-04-27T09:51:04.738Z</time>
      </trkpt>
      <trkpt lat="41.44377" lon="20.54486">
        <ele>721.574649</ele>
        <time>2022-04-27T09:51:09.748Z</time>
      </trkpt>
      <trkpt lat="41.44381" lon="20.54497">
        <ele>722.617193</ele>
        <time>2022-04-27T09:51:14.762Z</time>
      </trkpt>
      <trkpt lat="41.44388" lon="20.54506">
        <ele>723.745244</ele>
        <time>2022-04-27T09:51:19.740Z</time>
      </trkpt>
      <trkpt lat="41.44394" lon="20.54517">
        <ele>724.914831</ele>
        <time>2022-04-27T09:51:25.743Z</time>
      </trkpt>
      <trkpt lat="41.444" lon="20.54528">
        <ele>726.132688</ele>
        <time>2022-04-27T09:51:31.740Z</time>
      </trkpt>
      <trkpt lat="41.44406" lon="20.54541">
        <ele>727.370776</ele>
        <time>2022-04-27T09:51:37.747Z</time>
      </trkpt>
      <trkpt lat="41.44414" lon="20.54547">
        <ele>728.510709</ele>
        <time>2022-04-27T09:51:41.744Z</time>
      </trkpt>
      <trkpt lat="41.44421" lon="20.54557">
        <ele>729.63247</ele>
        <time>2022-04-27T09:51:46.775Z</time>
      </trkpt>
      <trkpt lat="41.44429" lon="20.54566">
        <ele>730.840377</ele>
        <time>2022-04-27T09:51:52.742Z</time>
      </trkpt>
      <trkpt lat="41.44436" lon="20.54573">
        <ele>731.926876</ele>
        <time>2022-04-27T09:51:57.769Z</time>
      </trkpt>
      <trkpt lat="41.44444" lon="20.54581">
        <ele>733.055439</ele>
        <time>2022-04-27T09:52:03.784Z</time>
      </trkpt>
      <trkpt lat="41.44452" lon="20.54588">
        <ele>734.150954</ele>
        <time>2022-04-27T09:52:08.754Z</time>
      </trkpt>
      <trkpt lat="41.4446" lon="20.54597">
        <ele>735.363697</ele>
        <time>2022-04-27T09:52:14.768Z</time>
      </trkpt>
      <trkpt lat="41.44468" lon="20.54605">
        <ele>736.547441</ele>
        <time>2022-04-27T09:52:20.753Z</time>
      </trkpt>
      <trkpt lat="41.44476" lon="20.54614">
        <ele>737.697546</ele>
        <time>2022-04-27T09:52:26.747Z</time>
      </trkpt>
      <trkpt lat="41.44483" lon="20.54623">
        <ele>738.825435</ele>
        <time>2022-04-27T09:52:32.742Z</time>
      </trkpt>
      <trkpt lat="41.44489" lon="20.54632">
        <ele>739.994696</ele>
        <time>2022-04-27T09:52:38.739Z</time>
      </trkpt>
      <trkpt lat="41.44496" lon="20.54642">
        <ele>741.126488</ele>
        <time>2022-04-27T09:52:43.743Z</time>
      </trkpt>
      <trkpt lat="41.44504" lon="20.54652">
        <ele>741.912034</ele>
        <time>2022-04-27T09:52:49.751Z</time>
      </trkpt>
      <trkpt lat="41.44509" lon="20.54664">
        <ele>741.369021</ele>
        <time>2022-04-27T09:52:55.746Z</time>
      </trkpt>
      <trkpt lat="41.44514" lon="20.54676">
        <ele>740.807383</ele>
        <time>2022-04-27T09:53:01.741Z</time>
      </trkpt>
      <trkpt lat="41.44518" lon="20.54687">
        <ele>740.331668</ele>
        <time>2022-04-27T09:53:06.746Z</time>
      </trkpt>
      <trkpt lat="41.44521" lon="20.547">
        <ele>739.763605</ele>
        <time>2022-04-27T09:53:12.765Z</time>
      </trkpt>
      <trkpt lat="41.44524" lon="20.54713">
        <ele>739.24445</ele>
        <time>2022-04-27T09:53:17.740Z</time>
      </trkpt>
      <trkpt lat="41.44525" lon="20.54728">
        <ele>738.640414</ele>
        <time>2022-04-27T09:53:22.756Z</time>
      </trkpt>
      <trkpt lat="41.44526" lon="20.54741">
        <ele>738.131477</ele>
        <time>2022-04-27T09:53:26.755Z</time>
      </trkpt>
      <trkpt lat="41.44525" lon="20.54754">
        <ele>737.611169</ele>
        <time>2022-04-27T09:53:30.749Z</time>
      </trkpt>
      <trkpt lat="41.44524" lon="20.54769">
        <ele>737.016751</ele>
        <time>2022-04-27T09:53:34.746Z</time>
      </trkpt>
      <trkpt lat="41.44523" lon="20.54783">
        <ele>736.442351</ele>
        <time>2022-04-27T09:53:38.741Z</time>
      </trkpt>
      <trkpt lat="41.4452" lon="20.54797">
        <ele>735.867361</ele>
        <time>2022-04-27T09:53:42.753Z</time>
      </trkpt>
      <trkpt lat="41.44516" lon="20.54808">
        <ele>735.375136</ele>
        <time>2022-04-27T09:53:45.740Z</time>
      </trkpt>
      <trkpt lat="41.4451" lon="20.54821">
        <ele>734.782126</ele>
        <time>2022-04-27T09:53:48.770Z</time>
      </trkpt>
      <trkpt lat="41.44502" lon="20.54836">
        <ele>734.048461</ele>
        <time>2022-04-27T09:53:51.747Z</time>
      </trkpt>
      <trkpt lat="41.44498" lon="20.54848">
        <ele>733.531399</ele>
        <time>2022-04-27T09:53:53.744Z</time>
      </trkpt>
      <trkpt lat="41.44493" lon="20.54863">
        <ele>732.888124</ele>
        <time>2022-04-27T09:53:56.742Z</time>
      </trkpt>
      <trkpt lat="41.44491" lon="20.54878">
        <ele>732.172965</ele>
        <time>2022-04-27T09:53:59.770Z</time>
      </trkpt>
      <trkpt lat="41.44487" lon="20.54895">
        <ele>731.190005</ele>
        <time>2022-04-27T09:54:02.753Z</time>
      </trkpt>
      <trkpt lat="41.44485" lon="20.54908">
        <ele>730.480385</ele>
        <time>2022-04-27T09:54:04.751Z</time>
      </trkpt>
      <trkpt lat="41.44483" lon="20.54923">
        <ele>729.627127</ele>
        <time>2022-04-27T09:54:06.745Z</time>
      </trkpt>
      <trkpt lat="41.4448" lon="20.54938">
        <ele>728.761406</ele>
        <time>2022-04-27T09:54:08.754Z</time>
      </trkpt>
      <trkpt lat="41.44477" lon="20.54951">
        <ele>728.010334</ele>
        <time>2022-04-27T09:54:10.744Z</time>
      </trkpt>
      <trkpt lat="41.44473" lon="20.54962">
        <ele>727.304388</ele>
        <time>2022-04-27T09:54:12.749Z</time>
      </trkpt>
      <trkpt lat="41.44469" lon="20.54975">
        <ele>726.53583</ele>
        <time>2022-04-27T09:54:14.749Z</time>
      </trkpt>
      <trkpt lat="41.44464" lon="20.54986">
        <ele>725.783158</ele>
        <time>2022-04-27T09:54:16.746Z</time>
      </trkpt>
      <trkpt lat="41.44457" lon="20.54998">
        <ele>724.956514</ele>
        <time>2022-04-27T09:54:18.747Z</time>
      </trkpt>
      <trkpt lat="41.44449" lon="20.5501">
        <ele>724.08779</ele>
        <time>2022-04-27T09:54:20.745Z</time>
      </trkpt>
      <trkpt lat="41.44439" lon="20.55022">
        <ele>723.130018</ele>
        <time>2022-04-27T09:54:22.740Z</time>
      </trkpt>
      <trkpt lat="41.4443" lon="20.55034">
        <ele>722.146273</ele>
        <time>2022-04-27T09:54:24.750Z</time>
      </trkpt>
      <trkpt lat="41.44421" lon="20.55045">
        <ele>721.256729</ele>
        <time>2022-04-27T09:54:26.752Z</time>
      </trkpt>
      <trkpt lat="41.44412" lon="20.55055">
        <ele>720.359994</ele>
        <time>2022-04-27T09:54:28.754Z</time>
      </trkpt>
      <trkpt lat="41.44403" lon="20.55065">
        <ele>719.495882</ele>
        <time>2022-04-27T09:54:30.750Z</time>
      </trkpt>
      <trkpt lat="41.44395" lon="20.55075">
        <ele>718.890104</ele>
        <time>2022-04-27T09:54:32.740Z</time>
      </trkpt>
      <trkpt lat="41.44387" lon="20.55086">
        <ele>718.366322</ele>
        <time>2022-04-27T09:54:34.749Z</time>
      </trkpt>
      <trkpt lat="41.4438" lon="20.55097">
        <ele>717.885742</ele>
        <time>2022-04-27T09:54:36.741Z</time>
      </trkpt>
      <trkpt lat="41.44374" lon="20.55108">
        <ele>717.416776</ele>
        <time>2022-04-27T09:54:38.757Z</time>
      </trkpt>
      <trkpt lat="41.44368" lon="20.55119">
        <ele>716.957702</ele>
        <time>2022-04-27T09:54:40.755Z</time>
      </trkpt>
      <trkpt lat="41.44363" lon="20.55131">
        <ele>716.493614</ele>
        <time>2022-04-27T09:54:42.776Z</time>
      </trkpt>
      <trkpt lat="41.44357" lon="20.55142">
        <ele>716.032048</ele>
        <time>2022-04-27T09:54:44.747Z</time>
      </trkpt>
      <trkpt lat="41.4435" lon="20.55153">
        <ele>715.534006</ele>
        <time>2022-04-27T09:54:46.743Z</time>
      </trkpt>
      <trkpt lat="41.44339" lon="20.55163">
        <ele>714.954955</ele>
        <time>2022-04-27T09:54:48.749Z</time>
      </trkpt>
      <trkpt lat="41.44326" lon="20.5517">
        <ele>714.312492</ele>
        <time>2022-04-27T09:54:50.792Z</time>
      </trkpt>
      <trkpt lat="41.44312" lon="20.55174">
        <ele>713.665661</ele>
        <time>2022-04-27T09:54:52.755Z</time>
      </trkpt>
      <trkpt lat="41.44297" lon="20.55173">
        <ele>712.951496</ele>
        <time>2022-04-27T09:54:54.744Z</time>
      </trkpt>
      <trkpt lat="41.44283" lon="20.55167">
        <ele>712.301173</ele>
        <time>2022-04-27T09:54:56.767Z</time>
      </trkpt>
      <trkpt lat="41.44272" lon="20.55156">
        <ele>711.66931</ele>
        <time>2022-04-27T09:54:58.749Z</time>
      </trkpt>
      <trkpt lat="41.44264" lon="20.55143">
        <ele>711.110393</ele>
        <time>2022-04-27T09:55:00.761Z</time>
      </trkpt>
      <trkpt lat="41.44258" lon="20.5513">
        <ele>711.038986</ele>
        <time>2022-04-27T09:55:02.780Z</time>
      </trkpt>
      <trkpt lat="41.44254" lon="20.55117">
        <ele>711.026766</ele>
        <time>2022-04-27T09:55:04.749Z</time>
      </trkpt>
      <trkpt lat="41.4425" lon="20.55104">
        <ele>711.014945</ele>
        <time>2022-04-27T09:55:06.760Z</time>
      </trkpt>
      <trkpt lat="41.44246" lon="20.5509">
        <ele>711.002509</ele>
        <time>2022-04-27T09:55:08.740Z</time>
      </trkpt>
      <trkpt lat="41.44239" lon="20.55078">
        <ele>710.989862</ele>
        <time>2022-04-27T09:55:10.743Z</time>
      </trkpt>
      <trkpt lat="41.44232" lon="20.55067">
        <ele>710.977193</ele>
        <time>2022-04-27T09:55:12.749Z</time>
      </trkpt>
      <trkpt lat="41.44224" lon="20.55056">
        <ele>710.964778</ele>
        <time>2022-04-27T09:55:14.744Z</time>
      </trkpt>
      <trkpt lat="41.44214" lon="20.55046">
        <ele>710.950535</ele>
        <time>2022-04-27T09:55:16.753Z</time>
      </trkpt>
      <trkpt lat="41.442" lon="20.55039">
        <ele>710.934117</ele>
        <time>2022-04-27T09:55:18.737Z</time>
      </trkpt>
      <trkpt lat="41.44188" lon="20.55033">
        <ele>710.918837</ele>
        <time>2022-04-27T09:55:20.745Z</time>
      </trkpt>
      <trkpt lat="41.44175" lon="20.55028">
        <ele>710.903611</ele>
        <time>2022-04-27T09:55:22.752Z</time>
      </trkpt>
      <trkpt lat="41.44161" lon="20.55024">
        <ele>710.888293</ele>
        <time>2022-04-27T09:55:24.741Z</time>
      </trkpt>
      <trkpt lat="41.4415" lon="20.55026">
        <ele>710.87542</ele>
        <time>2022-04-27T09:55:26.741Z</time>
      </trkpt>
      <trkpt lat="41.44141" lon="20.5503">
        <ele>710.864535</ele>
        <time>2022-04-27T09:55:28.750Z</time>
      </trkpt>
      <trkpt lat="41.44132" lon="20.55037">
        <ele>710.852688</ele>
        <time>2022-04-27T09:55:30.739Z</time>
      </trkpt>
      <trkpt lat="41.44123" lon="20.55045">
        <ele>710.920474</ele>
        <time>2022-04-27T09:55:32.753Z</time>
      </trkpt>
      <trkpt lat="41.44116" lon="20.55055">
        <ele>711.033927</ele>
        <time>2022-04-27T09:55:34.751Z</time>
      </trkpt>
      <trkpt lat="41.44111" lon="20.55065">
        <ele>711.137428</ele>
        <time>2022-04-27T09:55:36.746Z</time>
      </trkpt>
      <trkpt lat="41.44107" lon="20.55077">
        <ele>711.244989</ele>
        <time>2022-04-27T09:55:38.743Z</time>
      </trkpt>
      <trkpt lat="41.44105" lon="20.55093">
        <ele>711.385792</ele>
        <time>2022-04-27T09:55:41.748Z</time>
      </trkpt>
      <trkpt lat="41.44104" lon="20.55105">
        <ele>711.490204</ele>
        <time>2022-04-27T09:55:44.749Z</time>
      </trkpt>
      <trkpt lat="41.44104" lon="20.5512">
        <ele>711.619568</ele>
        <time>2022-04-27T09:55:48.760Z</time>
      </trkpt>
      <trkpt lat="41.44103" lon="20.55135">
        <ele>711.74708</ele>
        <time>2022-04-27T09:55:52.747Z</time>
      </trkpt>
      <trkpt lat="41.44101" lon="20.5515">
        <ele>711.874261</ele>
        <time>2022-04-27T09:55:56.747Z</time>
      </trkpt>
      <trkpt lat="41.44097" lon="20.55164">
        <ele>711.995815</ele>
        <time>2022-04-27T09:56:00.743Z</time>
      </trkpt>
      <trkpt lat="41.44094" lon="20.55176">
        <ele>712.10394</ele>
        <time>2022-04-27T09:56:04.748Z</time>
      </trkpt>
      <trkpt lat="41.4409" lon="20.55189">
        <ele>712.227609</ele>
        <time>2022-04-27T09:56:09.747Z</time>
      </trkpt>
      <trkpt lat="41.44085" lon="20.552">
        <ele>712.337068</ele>
        <time>2022-04-27T09:56:14.766Z</time>
      </trkpt>
      <trkpt lat="41.44082" lon="20.55212">
        <ele>712.439959</ele>
        <time>2022-04-27T09:56:19.738Z</time>
      </trkpt>
      <trkpt lat="41.44074" lon="20.55219">
        <ele>712.553425</ele>
        <time>2022-04-27T09:56:26.745Z</time>
      </trkpt>
      <trkpt lat="41.44065" lon="20.55223">
        <ele>712.658112</ele>
        <time>2022-04-27T09:56:31.747Z</time>
      </trkpt>
      <trkpt lat="41.44056" lon="20.55226">
        <ele>712.76266</ele>
        <time>2022-04-27T09:56:37.746Z</time>
      </trkpt>
      <trkpt lat="41.44047" lon="20.55229">
        <ele>712.867066</ele>
        <time>2022-04-27T09:56:42.767Z</time>
      </trkpt>
      <trkpt lat="41.44038" lon="20.55233">
        <ele>713.057668</ele>
        <time>2022-04-27T09:56:47.743Z</time>
      </trkpt>
      <trkpt lat="41.4403" lon="20.5524">
        <ele>713.269328</ele>
        <time>2022-04-27T09:56:54.744Z</time>
      </trkpt>
      <trkpt lat="41.44022" lon="20.55246">
        <ele>713.4746</ele>
        <time>2022-04-27T09:57:01.749Z</time>
      </trkpt>
      <trkpt lat="41.44013" lon="20.55252">
        <ele>713.704324</ele>
        <time>2022-04-27T09:57:08.748Z</time>
      </trkpt>
      <trkpt lat="41.44003" lon="20.55255">
        <ele>713.909643</ele>
        <time>2022-04-27T09:57:13.777Z</time>
      </trkpt>
      <trkpt lat="41.43993" lon="20.55258">
        <ele>714.142196</ele>
        <time>2022-04-27T09:57:19.741Z</time>
      </trkpt>
      <trkpt lat="41.43984" lon="20.55262">
        <ele>714.35033</ele>
        <time>2022-04-27T09:57:25.747Z</time>
      </trkpt>
      <trkpt lat="41.43974" lon="20.55263">
        <ele>714.571321</ele>
        <time>2022-04-27T09:57:32.779Z</time>
      </trkpt>
      <trkpt lat="41.43964" lon="20.55264">
        <ele>714.79646</ele>
        <time>2022-04-27T09:57:38.744Z</time>
      </trkpt>
      <trkpt lat="41.43954" lon="20.55266">
        <ele>715.011277</ele>
        <time>2022-04-27T09:57:44.749Z</time>
      </trkpt>
      <trkpt lat="41.43944" lon="20.55266">
        <ele>715.238133</ele>
        <time>2022-04-27T09:57:51.742Z</time>
      </trkpt>
      <trkpt lat="41.43935" lon="20.55267">
        <ele>715.439104</ele>
        <time>2022-04-27T09:57:56.743Z</time>
      </trkpt>
      <trkpt lat="41.43926" lon="20.5527">
        <ele>715.636657</ele>
        <time>2022-04-27T09:58:01.748Z</time>
      </trkpt>
      <trkpt lat="41.43916" lon="20.55274">
        <ele>715.871165</ele>
        <time>2022-04-27T09:58:07.748Z</time>
      </trkpt>
      <trkpt lat="41.43906" lon="20.55278">
        <ele>716.098901</ele>
        <time>2022-04-27T09:58:12.738Z</time>
      </trkpt>
      <trkpt lat="41.43898" lon="20.55282">
        <ele>716.300606</ele>
        <time>2022-04-27T09:58:16.744Z</time>
      </trkpt>
      <trkpt lat="41.43888" lon="20.55287">
        <ele>716.523195</ele>
        <time>2022-04-27T09:58:20.744Z</time>
      </trkpt>
      <trkpt lat="41.43879" lon="20.55291">
        <ele>716.734307</ele>
        <time>2022-04-27T09:58:23.741Z</time>
      </trkpt>
      <trkpt lat="41.43869" lon="20.55296">
        <ele>716.511829</ele>
        <time>2022-04-27T09:58:26.749Z</time>
      </trkpt>
      <trkpt lat="41.43857" lon="20.55303">
        <ele>715.785673</ele>
        <time>2022-04-27T09:58:29.745Z</time>
      </trkpt>
      <trkpt lat="41.43848" lon="20.5531">
        <ele>715.211075</ele>
        <time>2022-04-27T09:58:31.757Z</time>
      </trkpt>
      <trkpt lat="41.43839" lon="20.55317">
        <ele>714.578281</ele>
        <time>2022-04-27T09:58:33.771Z</time>
      </trkpt>
      <trkpt lat="41.43829" lon="20.55325">
        <ele>713.951376</ele>
        <time>2022-04-27T09:58:35.749Z</time>
      </trkpt>
      <trkpt lat="41.4382" lon="20.55333">
        <ele>713.33152</ele>
        <time>2022-04-27T09:58:37.743Z</time>
      </trkpt>
      <trkpt lat="41.4381" lon="20.55341">
        <ele>712.69303</ele>
        <time>2022-04-27T09:58:39.741Z</time>
      </trkpt>
      <trkpt lat="41.43801" lon="20.55349">
        <ele>712.0358</ele>
        <time>2022-04-27T09:58:41.745Z</time>
      </trkpt>
      <trkpt lat="41.4379" lon="20.55358">
        <ele>711.354727</ele>
        <time>2022-04-27T09:58:43.738Z</time>
      </trkpt>
      <trkpt lat="41.43781" lon="20.55367">
        <ele>710.68533</ele>
        <time>2022-04-27T09:58:45.748Z</time>
      </trkpt>
      <trkpt lat="41.43771" lon="20.55377">
        <ele>709.978062</ele>
        <time>2022-04-27T09:58:47.743Z</time>
      </trkpt>
      <trkpt lat="41.43761" lon="20.55389">
        <ele>709.220531</ele>
        <time>2022-04-27T09:58:49.739Z</time>
      </trkpt>
      <trkpt lat="41.4375" lon="20.55401">
        <ele>708.406621</ele>
        <time>2022-04-27T09:58:51.747Z</time>
      </trkpt>
      <trkpt lat="41.4374" lon="20.55415">
        <ele>707.572904</ele>
        <time>2022-04-27T09:58:53.746Z</time>
      </trkpt>
      <trkpt lat="41.43731" lon="20.55429">
        <ele>706.811053</ele>
        <time>2022-04-27T09:58:55.767Z</time>
      </trkpt>
      <trkpt lat="41.43722" lon="20.55444">
        <ele>705.610168</ele>
        <time>2022-04-27T09:58:57.749Z</time>
      </trkpt>
      <trkpt lat="41.43712" lon="20.55459">
        <ele>704.291358</ele>
        <time>2022-04-27T09:58:59.739Z</time>
      </trkpt>
      <trkpt lat="41.43703" lon="20.55473">
        <ele>702.982123</ele>
        <time>2022-04-27T09:59:01.747Z</time>
      </trkpt>
      <trkpt lat="41.43695" lon="20.55488">
        <ele>701.768247</ele>
        <time>2022-04-27T09:59:03.744Z</time>
      </trkpt>
      <trkpt lat="41.43687" lon="20.55502">
        <ele>700.591891</ele>
        <time>2022-04-27T09:59:05.738Z</time>
      </trkpt>
      <trkpt lat="41.43678" lon="20.55518">
        <ele>699.242558</ele>
        <time>2022-04-27T09:59:07.751Z</time>
      </trkpt>
      <trkpt lat="41.43669" lon="20.55535">
        <ele>697.779324</ele>
        <time>2022-04-27T09:59:09.740Z</time>
      </trkpt>
      <trkpt lat="41.4366" lon="20.55553">
        <ele>696.306953</ele>
        <time>2022-04-27T09:59:11.750Z</time>
      </trkpt>
      <trkpt lat="41.43652" lon="20.55572">
        <ele>694.896087</ele>
        <time>2022-04-27T09:59:13.743Z</time>
      </trkpt>
      <trkpt lat="41.43646" lon="20.55588">
        <ele>693.625272</ele>
        <time>2022-04-27T09:59:15.748Z</time>
      </trkpt>
      <trkpt lat="41.43639" lon="20.55605">
        <ele>692.330572</ele>
        <time>2022-04-27T09:59:17.743Z</time>
      </trkpt>
      <trkpt lat="41.43631" lon="20.55622">
        <ele>690.962325</ele>
        <time>2022-04-27T09:59:19.751Z</time>
      </trkpt>
      <trkpt lat="41.43621" lon="20.55638">
        <ele>689.568378</ele>
        <time>2022-04-27T09:59:21.741Z</time>
      </trkpt>
      <trkpt lat="41.4361" lon="20.55654">
        <ele>688.124912</ele>
        <time>2022-04-27T09:59:23.776Z</time>
      </trkpt>
      <trkpt lat="41.43597" lon="20.5567">
        <ele>686.592805</ele>
        <time>2022-04-27T09:59:25.747Z</time>
      </trkpt>
      <trkpt lat="41.43585" lon="20.55683">
        <ele>685.150012</ele>
        <time>2022-04-27T09:59:27.751Z</time>
      </trkpt>
      <trkpt lat="41.43572" lon="20.55696">
        <ele>683.758368</ele>
        <time>2022-04-27T09:59:29.749Z</time>
      </trkpt>
      <trkpt lat="41.4356" lon="20.55707">
        <ele>682.432932</ele>
        <time>2022-04-27T09:59:31.743Z</time>
      </trkpt>
      <trkpt lat="41.43546" lon="20.55718">
        <ele>681.063572</ele>
        <time>2022-04-27T09:59:33.741Z</time>
      </trkpt>
      <trkpt lat="41.43533" lon="20.55726">
        <ele>679.756775</ele>
        <time>2022-04-27T09:59:35.743Z</time>
      </trkpt>
      <trkpt lat="41.43519" lon="20.55734">
        <ele>678.410156</ele>
        <time>2022-04-27T09:59:37.746Z</time>
      </trkpt>
      <trkpt lat="41.43504" lon="20.55741">
        <ele>677.00584</ele>
        <time>2022-04-27T09:59:39.780Z</time>
      </trkpt>
      <trkpt lat="41.43489" lon="20.55747">
        <ele>675.58556</ele>
        <time>2022-04-27T09:59:41.753Z</time>
      </trkpt>
      <trkpt lat="41.43472" lon="20.55751">
        <ele>674.173963</ele>
        <time>2022-04-27T09:59:43.742Z</time>
      </trkpt>
      <trkpt lat="41.43455" lon="20.55755">
        <ele>673.098879</ele>
        <time>2022-04-27T09:59:45.743Z</time>
      </trkpt>
      <trkpt lat="41.43438" lon="20.5576">
        <ele>672.01277</ele>
        <time>2022-04-27T09:59:47.742Z</time>
      </trkpt>
      <trkpt lat="41.43421" lon="20.55763">
        <ele>670.937686</ele>
        <time>2022-04-27T09:59:49.767Z</time>
      </trkpt>
      <trkpt lat="41.43405" lon="20.55767">
        <ele>669.929003</ele>
        <time>2022-04-27T09:59:51.764Z</time>
      </trkpt>
      <trkpt lat="41.4339" lon="20.55772">
        <ele>668.971463</ele>
        <time>2022-04-27T09:59:53.746Z</time>
      </trkpt>
      <trkpt lat="41.43375" lon="20.55777">
        <ele>668.053486</ele>
        <time>2022-04-27T09:59:55.744Z</time>
      </trkpt>
      <trkpt lat="41.43362" lon="20.55782">
        <ele>667.173496</ele>
        <time>2022-04-27T09:59:57.743Z</time>
      </trkpt>
      <trkpt lat="41.43347" lon="20.55788">
        <ele>666.227765</ele>
        <time>2022-04-27T09:59:59.743Z</time>
      </trkpt>
      <trkpt lat="41.43332" lon="20.55795">
        <ele>665.239396</ele>
        <time>2022-04-27T10:00:01.747Z</time>
      </trkpt>
      <trkpt lat="41.43317" lon="20.55802">
        <ele>664.22455</ele>
        <time>2022-04-27T10:00:03.738Z</time>
      </trkpt>
      <trkpt lat="41.43301" lon="20.5581">
        <ele>663.148544</ele>
        <time>2022-04-27T10:00:05.774Z</time>
      </trkpt>
      <trkpt lat="41.43285" lon="20.55818">
        <ele>661.697042</ele>
        <time>2022-04-27T10:00:07.745Z</time>
      </trkpt>
      <trkpt lat="41.4327" lon="20.55827">
        <ele>660.3023</ele>
        <time>2022-04-27T10:00:09.751Z</time>
      </trkpt>
      <trkpt lat="41.43255" lon="20.55837">
        <ele>658.903784</ele>
        <time>2022-04-27T10:00:11.739Z</time>
      </trkpt>
      <trkpt lat="41.43241" lon="20.55848">
        <ele>657.506459</ele>
        <time>2022-04-27T10:00:13.761Z</time>
      </trkpt>
      <trkpt lat="41.43228" lon="20.55861">
        <ele>656.096189</ele>
        <time>2022-04-27T10:00:15.751Z</time>
      </trkpt>
      <trkpt lat="41.43215" lon="20.55875">
        <ele>654.674217</ele>
        <time>2022-04-27T10:00:17.746Z</time>
      </trkpt>
      <trkpt lat="41.43202" lon="20.5589">
        <ele>653.275539</ele>
        <time>2022-04-27T10:00:19.743Z</time>
      </trkpt>
      <trkpt lat="41.43191" lon="20.55906">
        <ele>651.865158</ele>
        <time>2022-04-27T10:00:21.745Z</time>
      </trkpt>
      <trkpt lat="41.43179" lon="20.55921">
        <ele>650.488271</ele>
        <time>2022-04-27T10:00:23.748Z</time>
      </trkpt>
      <trkpt lat="41.43169" lon="20.55935">
        <ele>649.235821</ele>
        <time>2022-04-27T10:00:25.741Z</time>
      </trkpt>
      <trkpt lat="41.43159" lon="20.5595">
        <ele>648.00144</ele>
        <time>2022-04-27T10:00:27.767Z</time>
      </trkpt>
      <trkpt lat="41.43151" lon="20.55966">
        <ele>647.020269</ele>
        <time>2022-04-27T10:00:29.749Z</time>
      </trkpt>
      <trkpt lat="41.43143" lon="20.55983">
        <ele>645.99293</ele>
        <time>2022-04-27T10:00:31.741Z</time>
      </trkpt>
      <trkpt lat="41.43136" lon="20.56">
        <ele>645.00333</ele>
        <time>2022-04-27T10:00:33.740Z</time>
      </trkpt>
      <trkpt lat="41.43131" lon="20.56019">
        <ele>643.967987</ele>
        <time>2022-04-27T10:00:35.748Z</time>
      </trkpt>
      <trkpt lat="41.43125" lon="20.56038">
        <ele>642.897085</ele>
        <time>2022-04-27T10:00:37.743Z</time>
      </trkpt>
      <trkpt lat="41.4312" lon="20.56057">
        <ele>641.895326</ele>
        <time>2022-04-27T10:00:39.748Z</time>
      </trkpt>
      <trkpt lat="41.43115" lon="20.56075">
        <ele>640.914984</ele>
        <time>2022-04-27T10:00:41.743Z</time>
      </trkpt>
      <trkpt lat="41.43107" lon="20.56092">
        <ele>639.897198</ele>
        <time>2022-04-27T10:00:43.749Z</time>
      </trkpt>
      <trkpt lat="41.43096" lon="20.56108">
        <ele>638.807843</ele>
        <time>2022-04-27T10:00:45.738Z</time>
      </trkpt>
      <trkpt lat="41.43082" lon="20.5612">
        <ele>637.63423</ele>
        <time>2022-04-27T10:00:47.740Z</time>
      </trkpt>
      <trkpt lat="41.43067" lon="20.56128">
        <ele>636.552882</ele>
        <time>2022-04-27T10:00:49.770Z</time>
      </trkpt>
      <trkpt lat="41.43052" lon="20.56132">
        <ele>635.669234</ele>
        <time>2022-04-27T10:00:51.742Z</time>
      </trkpt>
      <trkpt lat="41.43037" lon="20.56134">
        <ele>635.108523</ele>
        <time>2022-04-27T10:00:53.743Z</time>
      </trkpt>
      <trkpt lat="41.43022" lon="20.56135">
        <ele>634.556839</ele>
        <time>2022-04-27T10:00:55.770Z</time>
      </trkpt>
      <trkpt lat="41.43008" lon="20.56135">
        <ele>634.010067</ele>
        <time>2022-04-27T10:00:57.738Z</time>
      </trkpt>
      <trkpt lat="41.42992" lon="20.56135">
        <ele>633.429819</ele>
        <time>2022-04-27T10:00:59.744Z</time>
      </trkpt>
      <trkpt lat="41.42975" lon="20.56134">
        <ele>632.797277</ele>
        <time>2022-04-27T10:01:01.738Z</time>
      </trkpt>
      <trkpt lat="41.42957" lon="20.56133">
        <ele>632.112314</ele>
        <time>2022-04-27T10:01:03.743Z</time>
      </trkpt>
      <trkpt lat="41.42947" lon="20.56133">
        <ele>631.769833</ele>
        <time>2022-04-27T10:01:04.753Z</time>
      </trkpt>
      <trkpt lat="41.42938" lon="20.56133">
        <ele>631.431252</ele>
        <time>2022-04-27T10:01:05.741Z</time>
      </trkpt>
      <trkpt lat="41.42921" lon="20.56132">
        <ele>630.780237</ele>
        <time>2022-04-27T10:01:07.741Z</time>
      </trkpt>
      <trkpt lat="41.42903" lon="20.56132">
        <ele>630.099511</ele>
        <time>2022-04-27T10:01:09.746Z</time>
      </trkpt>
      <trkpt lat="41.42893" lon="20.56132">
        <ele>629.753549</ele>
        <time>2022-04-27T10:01:10.749Z</time>
      </trkpt>
      <trkpt lat="41.42884" lon="20.56131">
        <ele>629.407587</ele>
        <time>2022-04-27T10:01:11.743Z</time>
      </trkpt>
      <trkpt lat="41.42875" lon="20.56131">
        <ele>629.07947</ele>
        <time>2022-04-27T10:01:12.753Z</time>
      </trkpt>
      <trkpt lat="41.42866" lon="20.56131">
        <ele>628.810338</ele>
        <time>2022-04-27T10:01:13.740Z</time>
      </trkpt>
      <trkpt lat="41.42856" lon="20.5613">
        <ele>628.54413</ele>
        <time>2022-04-27T10:01:14.749Z</time>
      </trkpt>
      <trkpt lat="41.4284" lon="20.56129">
        <ele>628.063535</ele>
        <time>2022-04-27T10:01:16.743Z</time>
      </trkpt>
      <trkpt lat="41.42825" lon="20.56129">
        <ele>627.621934</ele>
        <time>2022-04-27T10:01:18.747Z</time>
      </trkpt>
      <trkpt lat="41.42811" lon="20.56129">
        <ele>627.20081</ele>
        <time>2022-04-27T10:01:20.762Z</time>
      </trkpt>
      <trkpt lat="41.42796" lon="20.56129">
        <ele>626.785511</ele>
        <time>2022-04-27T10:01:22.748Z</time>
      </trkpt>
      <trkpt lat="41.42783" lon="20.56129">
        <ele>626.402349</ele>
        <time>2022-04-27T10:01:24.739Z</time>
      </trkpt>
      <trkpt lat="41.42771" lon="20.56131">
        <ele>626.033901</ele>
        <time>2022-04-27T10:01:26.753Z</time>
      </trkpt>
      <trkpt lat="41.42759" lon="20.56136">
        <ele>625.689639</ele>
        <time>2022-04-27T10:01:28.765Z</time>
      </trkpt>
      <trkpt lat="41.42749" lon="20.56143">
        <ele>625.332527</ele>
        <time>2022-04-27T10:01:30.753Z</time>
      </trkpt>
      <trkpt lat="41.42739" lon="20.56152">
        <ele>624.985736</ele>
        <time>2022-04-27T10:01:32.744Z</time>
      </trkpt>
      <trkpt lat="41.4273" lon="20.56162">
        <ele>624.647634</ele>
        <time>2022-04-27T10:01:34.748Z</time>
      </trkpt>
      <trkpt lat="41.42721" lon="20.56172">
        <ele>624.302321</ele>
        <time>2022-04-27T10:01:36.746Z</time>
      </trkpt>
      <trkpt lat="41.42713" lon="20.56183">
        <ele>623.967501</ele>
        <time>2022-04-27T10:01:38.736Z</time>
      </trkpt>
      <trkpt lat="41.42707" lon="20.56195">
        <ele>623.722226</ele>
        <time>2022-04-27T10:01:40.746Z</time>
      </trkpt>
      <trkpt lat="41.42702" lon="20.56207">
        <ele>623.507949</ele>
        <time>2022-04-27T10:01:42.759Z</time>
      </trkpt>
      <trkpt lat="41.42696" lon="20.5622">
        <ele>623.287733</ele>
        <time>2022-04-27T10:01:44.739Z</time>
      </trkpt>
      <trkpt lat="41.4269" lon="20.56233">
        <ele>623.062255</ele>
        <time>2022-04-27T10:01:46.751Z</time>
      </trkpt>
      <trkpt lat="41.42685" lon="20.56246">
        <ele>622.83542</ele>
        <time>2022-04-27T10:01:48.749Z</time>
      </trkpt>
      <trkpt lat="41.42678" lon="20.56257">
        <ele>622.61447</ele>
        <time>2022-04-27T10:01:50.742Z</time>
      </trkpt>
      <trkpt lat="41.42671" lon="20.56268">
        <ele>622.412598</ele>
        <time>2022-04-27T10:01:52.750Z</time>
      </trkpt>
      <trkpt lat="41.42664" lon="20.56277">
        <ele>622.213475</ele>
        <time>2022-04-27T10:01:54.752Z</time>
      </trkpt>
      <trkpt lat="41.42657" lon="20.56286">
        <ele>622.021176</ele>
        <time>2022-04-27T10:01:56.746Z</time>
      </trkpt>
      <trkpt lat="41.42649" lon="20.56294">
        <ele>621.815306</ele>
        <time>2022-04-27T10:01:58.742Z</time>
      </trkpt>
      <trkpt lat="41.42641" lon="20.56302">
        <ele>621.616472</ele>
        <time>2022-04-27T10:02:00.758Z</time>
      </trkpt>
      <trkpt lat="41.42632" lon="20.56308">
        <ele>621.421264</ele>
        <time>2022-04-27T10:02:02.765Z</time>
      </trkpt>
      <trkpt lat="41.42623" lon="20.56314">
        <ele>621.217198</ele>
        <time>2022-04-27T10:02:04.741Z</time>
      </trkpt>
      <trkpt lat="41.42614" lon="20.56318">
        <ele>621.020705</ele>
        <time>2022-04-27T10:02:06.763Z</time>
      </trkpt>
      <trkpt lat="41.42604" lon="20.56322">
        <ele>620.822919</ele>
        <time>2022-04-27T10:02:08.765Z</time>
      </trkpt>
      <trkpt lat="41.42595" lon="20.56327">
        <ele>620.619754</ele>
        <time>2022-04-27T10:02:10.741Z</time>
      </trkpt>
      <trkpt lat="41.42585" lon="20.56332">
        <ele>620.420325</ele>
        <time>2022-04-27T10:02:12.754Z</time>
      </trkpt>
      <trkpt lat="41.42577" lon="20.56336">
        <ele>620.282977</ele>
        <time>2022-04-27T10:02:14.740Z</time>
      </trkpt>
      <trkpt lat="41.42568" lon="20.56341">
        <ele>620.326519</ele>
        <time>2022-04-27T10:02:16.741Z</time>
      </trkpt>
      <trkpt lat="41.42558" lon="20.56346">
        <ele>620.370415</ele>
        <time>2022-04-27T10:02:18.748Z</time>
      </trkpt>
      <trkpt lat="41.42549" lon="20.56351">
        <ele>620.415632</ele>
        <time>2022-04-27T10:02:20.757Z</time>
      </trkpt>
      <trkpt lat="41.4254" lon="20.56357">
        <ele>620.460165</ele>
        <time>2022-04-27T10:02:22.761Z</time>
      </trkpt>
      <trkpt lat="41.42531" lon="20.56362">
        <ele>620.503526</ele>
        <time>2022-04-27T10:02:24.751Z</time>
      </trkpt>
      <trkpt lat="41.42523" lon="20.56367">
        <ele>620.544266</ele>
        <time>2022-04-27T10:02:26.754Z</time>
      </trkpt>
      <trkpt lat="41.42514" lon="20.56371">
        <ele>620.585691</ele>
        <time>2022-04-27T10:02:28.739Z</time>
      </trkpt>
      <trkpt lat="41.42505" lon="20.56376">
        <ele>620.627378</ele>
        <time>2022-04-27T10:02:30.760Z</time>
      </trkpt>
      <trkpt lat="41.42497" lon="20.56381">
        <ele>620.668524</ele>
        <time>2022-04-27T10:02:32.747Z</time>
      </trkpt>
      <trkpt lat="41.42488" lon="20.56386">
        <ele>620.710771</ele>
        <time>2022-04-27T10:02:34.769Z</time>
      </trkpt>
      <trkpt lat="41.42479" lon="20.56391">
        <ele>620.754667</ele>
        <time>2022-04-27T10:02:36.753Z</time>
      </trkpt>
      <trkpt lat="41.4247" lon="20.56396">
        <ele>620.798687</ele>
        <time>2022-04-27T10:02:38.747Z</time>
      </trkpt>
      <trkpt lat="41.42461" lon="20.56401">
        <ele>620.841049</ele>
        <time>2022-04-27T10:02:40.743Z</time>
      </trkpt>
      <trkpt lat="41.42453" lon="20.56407">
        <ele>620.881446</ele>
        <time>2022-04-27T10:02:42.738Z</time>
      </trkpt>
      <trkpt lat="41.42445" lon="20.56414">
        <ele>620.923814</ele>
        <time>2022-04-27T10:02:44.744Z</time>
      </trkpt>
      <trkpt lat="41.42438" lon="20.56422">
        <ele>620.966348</ele>
        <time>2022-04-27T10:02:46.754Z</time>
      </trkpt>
      <trkpt lat="41.4243" lon="20.56429">
        <ele>621.007771</ele>
        <time>2022-04-27T10:02:48.774Z</time>
      </trkpt>
      <trkpt lat="41.42423" lon="20.56437">
        <ele>621.048573</ele>
        <time>2022-04-27T10:02:50.784Z</time>
      </trkpt>
      <trkpt lat="41.42415" lon="20.56444">
        <ele>621.121776</ele>
        <time>2022-04-27T10:02:52.779Z</time>
      </trkpt>
      <trkpt lat="41.42408" lon="20.5645">
        <ele>621.254691</ele>
        <time>2022-04-27T10:02:54.776Z</time>
      </trkpt>
      <trkpt lat="41.424" lon="20.56456">
        <ele>621.387602</ele>
        <time>2022-04-27T10:02:56.794Z</time>
      </trkpt>
      <trkpt lat="41.42391" lon="20.56462">
        <ele>621.529869</ele>
        <time>2022-04-27T10:02:58.802Z</time>
      </trkpt>
      <trkpt lat="41.42378" lon="20.56467">
        <ele>621.717417</ele>
        <time>2022-04-27T10:03:01.761Z</time>
      </trkpt>
      <trkpt lat="41.42367" lon="20.56473">
        <ele>621.891318</ele>
        <time>2022-04-27T10:03:04.753Z</time>
      </trkpt>
      <trkpt lat="41.42356" lon="20.56476">
        <ele>622.063498</ele>
        <time>2022-04-27T10:03:07.783Z</time>
      </trkpt>
      <trkpt lat="41.42344" lon="20.56479">
        <ele>622.226615</ele>
        <time>2022-04-27T10:03:10.797Z</time>
      </trkpt>
      <trkpt lat="41.42332" lon="20.56482">
        <ele>622.403968</ele>
        <time>2022-04-27T10:03:13.768Z</time>
      </trkpt>
      <trkpt lat="41.42321" lon="20.56485">
        <ele>622.577238</ele>
        <time>2022-04-27T10:03:16.778Z</time>
      </trkpt>
      <trkpt lat="41.42309" lon="20.56488">
        <ele>622.744086</ele>
        <time>2022-04-27T10:03:19.781Z</time>
      </trkpt>
      <trkpt lat="41.42297" lon="20.56491">
        <ele>622.922419</ele>
        <time>2022-04-27T10:03:22.768Z</time>
      </trkpt>
      <trkpt lat="41.42286" lon="20.56494">
        <ele>623.093039</ele>
        <time>2022-04-27T10:03:25.764Z</time>
      </trkpt>
      <trkpt lat="41.42274" lon="20.56497">
        <ele>623.261237</ele>
        <time>2022-04-27T10:03:28.762Z</time>
      </trkpt>
      <trkpt lat="41.42263" lon="20.565">
        <ele>623.426827</ele>
        <time>2022-04-27T10:03:31.775Z</time>
      </trkpt>
      <trkpt lat="41.42252" lon="20.56504">
        <ele>623.591975</ele>
        <time>2022-04-27T10:03:34.773Z</time>
      </trkpt>
      <trkpt lat="41.42241" lon="20.56508">
        <ele>623.867309</ele>
        <time>2022-04-27T10:03:37.778Z</time>
      </trkpt>
      <trkpt lat="41.42232" lon="20.56512">
        <ele>624.185802</ele>
        <time>2022-04-27T10:03:40.766Z</time>
      </trkpt>
      <trkpt lat="41.42222" lon="20.5652">
        <ele>624.583403</ele>
        <time>2022-04-27T10:03:44.784Z</time>
      </trkpt>
      <trkpt lat="41.42215" lon="20.56528">
        <ele>624.91718</ele>
        <time>2022-04-27T10:03:47.768Z</time>
      </trkpt>
      <trkpt lat="41.42205" lon="20.56535">
        <ele>625.310065</ele>
        <time>2022-04-27T10:03:50.782Z</time>
      </trkpt>
      <trkpt lat="41.42195" lon="20.56542">
        <ele>625.689595</ele>
        <time>2022-04-27T10:03:53.773Z</time>
      </trkpt>
      <trkpt lat="41.42184" lon="20.56548">
        <ele>626.087695</ele>
        <time>2022-04-27T10:03:56.778Z</time>
      </trkpt>
      <trkpt lat="41.42175" lon="20.56554">
        <ele>626.447051</ele>
        <time>2022-04-27T10:03:59.769Z</time>
      </trkpt>
      <trkpt lat="41.42164" lon="20.56559">
        <ele>626.824502</ele>
        <time>2022-04-27T10:04:02.764Z</time>
      </trkpt>
      <trkpt lat="41.42154" lon="20.56566">
        <ele>627.218446</ele>
        <time>2022-04-27T10:04:05.763Z</time>
      </trkpt>
      <trkpt lat="41.42145" lon="20.56571">
        <ele>627.575768</ele>
        <time>2022-04-27T10:04:08.780Z</time>
      </trkpt>
      <trkpt lat="41.42135" lon="20.56578">
        <ele>627.950852</ele>
        <time>2022-04-27T10:04:11.813Z</time>
      </trkpt>
      <trkpt lat="41.42126" lon="20.56585">
        <ele>628.295602</ele>
        <time>2022-04-27T10:04:14.771Z</time>
      </trkpt>
      <trkpt lat="41.42118" lon="20.56592">
        <ele>628.654732</ele>
        <time>2022-04-27T10:04:17.765Z</time>
      </trkpt>
      <trkpt lat="41.4211" lon="20.56601">
        <ele>628.997465</ele>
        <time>2022-04-27T10:04:20.772Z</time>
      </trkpt>
      <trkpt lat="41.42105" lon="20.56613">
        <ele>629.351428</ele>
        <time>2022-04-27T10:04:23.766Z</time>
      </trkpt>
      <trkpt lat="41.42099" lon="20.56625">
        <ele>629.714584</ele>
        <time>2022-04-27T10:04:26.775Z</time>
      </trkpt>
      <trkpt lat="41.42094" lon="20.56638">
        <ele>629.635162</ele>
        <time>2022-04-27T10:04:29.768Z</time>
      </trkpt>
      <trkpt lat="41.42088" lon="20.56651">
        <ele>629.255814</ele>
        <time>2022-04-27T10:04:32.754Z</time>
      </trkpt>
      <trkpt lat="41.4208" lon="20.56664">
        <ele>628.843042</ele>
        <time>2022-04-27T10:04:35.770Z</time>
      </trkpt>
      <trkpt lat="41.4207" lon="20.56677">
        <ele>628.406328</ele>
        <time>2022-04-27T10:04:38.765Z</time>
      </trkpt>
      <trkpt lat="41.42064" lon="20.56685">
        <ele>628.109774</ele>
        <time>2022-04-27T10:04:40.770Z</time>
      </trkpt>
      <trkpt lat="41.42055" lon="20.56696">
        <ele>627.694752</ele>
        <time>2022-04-27T10:04:43.769Z</time>
      </trkpt>
      <trkpt lat="41.42045" lon="20.56707">
        <ele>627.282376</ele>
        <time>2022-04-27T10:04:46.778Z</time>
      </trkpt>
      <trkpt lat="41.42036" lon="20.56717">
        <ele>626.899688</ele>
        <time>2022-04-27T10:04:49.756Z</time>
      </trkpt>
      <trkpt lat="41.42028" lon="20.56726">
        <ele>626.565467</ele>
        <time>2022-04-27T10:04:52.773Z</time>
      </trkpt>
      <trkpt lat="41.42021" lon="20.56735">
        <ele>626.224681</ele>
        <time>2022-04-27T10:04:55.822Z</time>
      </trkpt>
      <trkpt lat="41.42013" lon="20.56744">
        <ele>625.873212</ele>
        <time>2022-04-27T10:04:58.757Z</time>
      </trkpt>
      <trkpt lat="41.42006" lon="20.56755">
        <ele>625.54147</ele>
        <time>2022-04-27T10:05:01.753Z</time>
      </trkpt>
      <trkpt lat="41.41999" lon="20.56765">
        <ele>625.183899</ele>
        <time>2022-04-27T10:05:04.824Z</time>
      </trkpt>
      <trkpt lat="41.41992" lon="20.56777">
        <ele>624.828685</ele>
        <time>2022-04-27T10:05:07.774Z</time>
      </trkpt>
      <trkpt lat="41.41986" lon="20.56789">
        <ele>624.465454</ele>
        <time>2022-04-27T10:05:10.762Z</time>
      </trkpt>
      <trkpt lat="41.4198" lon="20.56801">
        <ele>624.113101</ele>
        <time>2022-04-27T10:05:13.779Z</time>
      </trkpt>
      <trkpt lat="41.41974" lon="20.56813">
        <ele>623.857505</ele>
        <time>2022-04-27T10:05:16.822Z</time>
      </trkpt>
      <trkpt lat="41.41967" lon="20.56823">
        <ele>623.695429</ele>
        <time>2022-04-27T10:05:19.764Z</time>
      </trkpt>
      <trkpt lat="41.41962" lon="20.56835">
        <ele>623.534811</ele>
        <time>2022-04-27T10:05:22.781Z</time>
      </trkpt>
      <trkpt lat="41.41955" lon="20.56848">
        <ele>623.344843</ele>
        <time>2022-04-27T10:05:25.762Z</time>
      </trkpt>
      <trkpt lat="41.41946" lon="20.5686">
        <ele>623.147778</ele>
        <time>2022-04-27T10:05:28.771Z</time>
      </trkpt>
      <trkpt lat="41.41938" lon="20.56872">
        <ele>622.962015</ele>
        <time>2022-04-27T10:05:31.774Z</time>
      </trkpt>
      <trkpt lat="41.4193" lon="20.56883">
        <ele>622.781218</ele>
        <time>2022-04-27T10:05:34.764Z</time>
      </trkpt>
      <trkpt lat="41.41921" lon="20.56892">
        <ele>622.613042</ele>
        <time>2022-04-27T10:05:37.767Z</time>
      </trkpt>
      <trkpt lat="41.41912" lon="20.56902">
        <ele>622.420656</ele>
        <time>2022-04-27T10:05:40.769Z</time>
      </trkpt>
      <trkpt lat="41.41904" lon="20.5691">
        <ele>622.269355</ele>
        <time>2022-04-27T10:05:42.760Z</time>
      </trkpt>
      <trkpt lat="41.41894" lon="20.5692">
        <ele>622.071408</ele>
        <time>2022-04-27T10:05:45.806Z</time>
      </trkpt>
      <trkpt lat="41.41884" lon="20.5693">
        <ele>621.877362</ele>
        <time>2022-04-27T10:05:48.752Z</time>
      </trkpt>
      <trkpt lat="41.41874" lon="20.5694">
        <ele>621.69277</ele>
        <time>2022-04-27T10:05:51.763Z</time>
      </trkpt>
      <trkpt lat="41.41865" lon="20.56949">
        <ele>621.513488</ele>
        <time>2022-04-27T10:05:54.779Z</time>
      </trkpt>
      <trkpt lat="41.41855" lon="20.56958">
        <ele>621.323334</ele>
        <time>2022-04-27T10:05:57.768Z</time>
      </trkpt>
      <trkpt lat="41.41846" lon="20.56967">
        <ele>621.14296</ele>
        <time>2022-04-27T10:06:00.774Z</time>
      </trkpt>
      <trkpt lat="41.41836" lon="20.56975">
        <ele>620.835395</ele>
        <time>2022-04-27T10:06:03.765Z</time>
      </trkpt>
      <trkpt lat="41.41826" lon="20.56983">
        <ele>620.528379</ele>
        <time>2022-04-27T10:06:06.755Z</time>
      </trkpt>
      <trkpt lat="41.41816" lon="20.56992">
        <ele>620.222475</ele>
        <time>2022-04-27T10:06:09.765Z</time>
      </trkpt>
      <trkpt lat="41.41807" lon="20.57001">
        <ele>619.931701</ele>
        <time>2022-04-27T10:06:12.778Z</time>
      </trkpt>
      <trkpt lat="41.41797" lon="20.5701">
        <ele>619.623518</ele>
        <time>2022-04-27T10:06:15.770Z</time>
      </trkpt>
      <trkpt lat="41.41788" lon="20.57019">
        <ele>619.317569</ele>
        <time>2022-04-27T10:06:18.761Z</time>
      </trkpt>
      <trkpt lat="41.41779" lon="20.57029">
        <ele>619.010385</ele>
        <time>2022-04-27T10:06:21.773Z</time>
      </trkpt>
      <trkpt lat="41.41771" lon="20.5704">
        <ele>618.700147</ele>
        <time>2022-04-27T10:06:24.784Z</time>
      </trkpt>
      <trkpt lat="41.41764" lon="20.57051">
        <ele>618.422836</ele>
        <time>2022-04-27T10:06:27.770Z</time>
      </trkpt>
      <trkpt lat="41.41756" lon="20.57064">
        <ele>618.085266</ele>
        <time>2022-04-27T10:06:30.756Z</time>
      </trkpt>
      <trkpt lat="41.41749" lon="20.57078">
        <ele>617.760619</ele>
        <time>2022-04-27T10:06:33.772Z</time>
      </trkpt>
      <trkpt lat="41.41742" lon="20.57092">
        <ele>617.414838</ele>
        <time>2022-04-27T10:06:36.769Z</time>
      </trkpt>
      <trkpt lat="41.41734" lon="20.57107">
        <ele>617.06597</ele>
        <time>2022-04-27T10:06:39.760Z</time>
      </trkpt>
      <trkpt lat="41.41727" lon="20.57122">
        <ele>616.713804</ele>
        <time>2022-04-27T10:06:42.779Z</time>
      </trkpt>
      <trkpt lat="41.41722" lon="20.57133">
        <ele>616.46126</ele>
        <time>2022-04-27T10:06:44.781Z</time>
      </trkpt>
      <trkpt lat="41.41715" lon="20.57147">
        <ele>616.033228</ele>
        <time>2022-04-27T10:06:47.804Z</time>
      </trkpt>
      <trkpt lat="41.41708" lon="20.57162">
        <ele>615.571427</ele>
        <time>2022-04-27T10:06:50.777Z</time>
      </trkpt>
      <trkpt lat="41.41702" lon="20.57173">
        <ele>615.247089</ele>
        <time>2022-04-27T10:06:52.771Z</time>
      </trkpt>
      <trkpt lat="41.41695" lon="20.57187">
        <ele>614.80914</ele>
        <time>2022-04-27T10:06:55.750Z</time>
      </trkpt>
      <trkpt lat="41.41688" lon="20.57195">
        <ele>614.478064</ele>
        <time>2022-04-27T10:06:57.831Z</time>
      </trkpt>
      <trkpt lat="41.41682" lon="20.57204">
        <ele>614.161123</ele>
        <time>2022-04-27T10:06:59.763Z</time>
      </trkpt>
      <trkpt lat="41.41675" lon="20.57213">
        <ele>613.836255</ele>
        <time>2022-04-27T10:07:01.770Z</time>
      </trkpt>
      <trkpt lat="41.41667" lon="20.57222">
        <ele>613.494155</ele>
        <time>2022-04-27T10:07:03.768Z</time>
      </trkpt>
      <trkpt lat="41.4166" lon="20.5723">
        <ele>613.151126</ele>
        <time>2022-04-27T10:07:05.766Z</time>
      </trkpt>
      <trkpt lat="41.41652" lon="20.57239">
        <ele>612.815006</ele>
        <time>2022-04-27T10:07:07.768Z</time>
      </trkpt>
      <trkpt lat="41.41645" lon="20.57247">
        <ele>612.488184</ele>
        <time>2022-04-27T10:07:09.765Z</time>
      </trkpt>
      <trkpt lat="41.41638" lon="20.57255">
        <ele>612.175897</ele>
        <time>2022-04-27T10:07:11.762Z</time>
      </trkpt>
      <trkpt lat="41.41627" lon="20.57266">
        <ele>611.71407</ele>
        <time>2022-04-27T10:07:14.757Z</time>
      </trkpt>
      <trkpt lat="41.41618" lon="20.57276">
        <ele>611.287821</ele>
        <time>2022-04-27T10:07:17.763Z</time>
      </trkpt>
      <trkpt lat="41.41607" lon="20.57286">
        <ele>610.845266</ele>
        <time>2022-04-27T10:07:20.790Z</time>
      </trkpt>
      <trkpt lat="41.41596" lon="20.57296">
        <ele>610.394112</ele>
        <time>2022-04-27T10:07:23.781Z</time>
      </trkpt>
      <trkpt lat="41.41585" lon="20.57304">
        <ele>610.533741</ele>
        <time>2022-04-27T10:07:26.769Z</time>
      </trkpt>
      <trkpt lat="41.41574" lon="20.57312">
        <ele>611.039169</ele>
        <time>2022-04-27T10:07:29.753Z</time>
      </trkpt>
      <trkpt lat="41.41562" lon="20.57321">
        <ele>611.545982</ele>
        <time>2022-04-27T10:07:32.754Z</time>
      </trkpt>
      <trkpt lat="41.41552" lon="20.57329">
        <ele>612.022755</ele>
        <time>2022-04-27T10:07:35.740Z</time>
      </trkpt>
      <trkpt lat="41.41541" lon="20.57334">
        <ele>612.478899</ele>
        <time>2022-04-27T10:07:38.749Z</time>
      </trkpt>
      <trkpt lat="41.4153" lon="20.5734">
        <ele>612.93359</ele>
        <time>2022-04-27T10:07:41.745Z</time>
      </trkpt>
      <trkpt lat="41.41519" lon="20.57345">
        <ele>613.379126</ele>
        <time>2022-04-27T10:07:44.752Z</time>
      </trkpt>
      <trkpt lat="41.41507" lon="20.57351">
        <ele>613.844078</ele>
        <time>2022-04-27T10:07:47.736Z</time>
      </trkpt>
      <trkpt lat="41.41496" lon="20.57355">
        <ele>614.307316</ele>
        <time>2022-04-27T10:07:50.737Z</time>
      </trkpt>
      <trkpt lat="41.41484" lon="20.57358">
        <ele>614.785318</ele>
        <time>2022-04-27T10:07:53.743Z</time>
      </trkpt>
      <trkpt lat="41.4147" lon="20.57362">
        <ele>615.311055</ele>
        <time>2022-04-27T10:07:56.772Z</time>
      </trkpt>
      <trkpt lat="41.41461" lon="20.57363">
        <ele>615.685369</ele>
        <time>2022-04-27T10:07:58.740Z</time>
      </trkpt>
      <trkpt lat="41.41451" lon="20.57364">
        <ele>616.069118</ele>
        <time>2022-04-27T10:08:00.739Z</time>
      </trkpt>
      <trkpt lat="41.41442" lon="20.57366">
        <ele>616.434704</ele>
        <time>2022-04-27T10:08:02.748Z</time>
      </trkpt>
      <trkpt lat="41.41432" lon="20.57368">
        <ele>616.795973</ele>
        <time>2022-04-27T10:08:04.741Z</time>
      </trkpt>
      <trkpt lat="41.41423" lon="20.5737">
        <ele>617.156741</ele>
        <time>2022-04-27T10:08:06.750Z</time>
      </trkpt>
      <trkpt lat="41.41411" lon="20.57372">
        <ele>617.745065</ele>
        <time>2022-04-27T10:08:09.742Z</time>
      </trkpt>
      <trkpt lat="41.41399" lon="20.57374">
        <ele>618.350571</ele>
        <time>2022-04-27T10:08:12.745Z</time>
      </trkpt>
      <trkpt lat="41.41386" lon="20.57377">
        <ele>618.992276</ele>
        <time>2022-04-27T10:08:15.739Z</time>
      </trkpt>
      <trkpt lat="41.41373" lon="20.57378">
        <ele>619.64763</ele>
        <time>2022-04-27T10:08:18.762Z</time>
      </trkpt>
      <trkpt lat="41.41363" lon="20.57379">
        <ele>620.106143</ele>
        <time>2022-04-27T10:08:20.745Z</time>
      </trkpt>
      <trkpt lat="41.41354" lon="20.57379">
        <ele>620.553343</ele>
        <time>2022-04-27T10:08:22.738Z</time>
      </trkpt>
      <trkpt lat="41.41342" lon="20.57381">
        <ele>621.168966</ele>
        <time>2022-04-27T10:08:25.743Z</time>
      </trkpt>
      <trkpt lat="41.41329" lon="20.57381">
        <ele>621.798038</ele>
        <time>2022-04-27T10:08:28.740Z</time>
      </trkpt>
      <trkpt lat="41.41319" lon="20.57382">
        <ele>622.270974</ele>
        <time>2022-04-27T10:08:30.741Z</time>
      </trkpt>
      <trkpt lat="41.41307" lon="20.57383">
        <ele>622.87867</ele>
        <time>2022-04-27T10:08:33.746Z</time>
      </trkpt>
      <trkpt lat="41.41293" lon="20.57384">
        <ele>623.556933</ele>
        <time>2022-04-27T10:08:36.748Z</time>
      </trkpt>
      <trkpt lat="41.41283" lon="20.57384">
        <ele>624.063225</ele>
        <time>2022-04-27T10:08:38.746Z</time>
      </trkpt>
      <trkpt lat="41.41273" lon="20.57384">
        <ele>624.54484</ele>
        <time>2022-04-27T10:08:40.739Z</time>
      </trkpt>
      <trkpt lat="41.41264" lon="20.57384">
        <ele>624.992283</ele>
        <time>2022-04-27T10:08:42.742Z</time>
      </trkpt>
      <trkpt lat="41.41252" lon="20.57385">
        <ele>625.601755</ele>
        <time>2022-04-27T10:08:45.742Z</time>
      </trkpt>
      <trkpt lat="41.41239" lon="20.57386">
        <ele>625.977269</ele>
        <time>2022-04-27T10:08:48.745Z</time>
      </trkpt>
      <trkpt lat="41.41226" lon="20.57389">
        <ele>625.853231</ele>
        <time>2022-04-27T10:08:51.751Z</time>
      </trkpt>
      <trkpt lat="41.41214" lon="20.57393">
        <ele>625.729518</ele>
        <time>2022-04-27T10:08:54.744Z</time>
      </trkpt>
      <trkpt lat="41.41202" lon="20.57398">
        <ele>625.606071</ele>
        <time>2022-04-27T10:08:57.737Z</time>
      </trkpt>
      <trkpt lat="41.41189" lon="20.57404">
        <ele>625.472919</ele>
        <time>2022-04-27T10:09:00.738Z</time>
      </trkpt>
      <trkpt lat="41.4118" lon="20.57409">
        <ele>625.382305</ele>
        <time>2022-04-27T10:09:02.762Z</time>
      </trkpt>
      <trkpt lat="41.41169" lon="20.57416">
        <ele>625.261623</ele>
        <time>2022-04-27T10:09:05.756Z</time>
      </trkpt>
      <trkpt lat="41.41158" lon="20.57422">
        <ele>625.142407</ele>
        <time>2022-04-27T10:09:08.761Z</time>
      </trkpt>
      <trkpt lat="41.41145" lon="20.57428">
        <ele>625.014976</ele>
        <time>2022-04-27T10:09:11.743Z</time>
      </trkpt>
      <trkpt lat="41.41133" lon="20.57434">
        <ele>624.892857</ele>
        <time>2022-04-27T10:09:14.743Z</time>
      </trkpt>
      <trkpt lat="41.41121" lon="20.57438">
        <ele>624.76881</ele>
        <time>2022-04-27T10:09:17.739Z</time>
      </trkpt>
      <trkpt lat="41.41109" lon="20.57443">
        <ele>624.644211</ele>
        <time>2022-04-27T10:09:20.745Z</time>
      </trkpt>
      <trkpt lat="41.41096" lon="20.57445">
        <ele>624.516565</ele>
        <time>2022-04-27T10:09:23.742Z</time>
      </trkpt>
      <trkpt lat="41.41087" lon="20.57448">
        <ele>624.427715</ele>
        <time>2022-04-27T10:09:25.744Z</time>
      </trkpt>
      <trkpt lat="41.41074" lon="20.57451">
        <ele>624.298259</ele>
        <time>2022-04-27T10:09:28.744Z</time>
      </trkpt>
      <trkpt lat="41.41061" lon="20.57454">
        <ele>624.102656</ele>
        <time>2022-04-27T10:09:31.741Z</time>
      </trkpt>
      <trkpt lat="41.41052" lon="20.57456">
        <ele>623.943825</ele>
        <time>2022-04-27T10:09:33.739Z</time>
      </trkpt>
      <trkpt lat="41.41039" lon="20.57459">
        <ele>623.72477</ele>
        <time>2022-04-27T10:09:36.747Z</time>
      </trkpt>
      <trkpt lat="41.41026" lon="20.57463">
        <ele>623.507781</ele>
        <time>2022-04-27T10:09:39.744Z</time>
      </trkpt>
      <trkpt lat="41.41013" lon="20.57468">
        <ele>623.285091</ele>
        <time>2022-04-27T10:09:42.767Z</time>
      </trkpt>
      <trkpt lat="41.41005" lon="20.57473">
        <ele>623.131993</ele>
        <time>2022-04-27T10:09:44.756Z</time>
      </trkpt>
      <trkpt lat="41.40992" lon="20.57481">
        <ele>622.90685</ele>
        <time>2022-04-27T10:09:47.743Z</time>
      </trkpt>
      <trkpt lat="41.40981" lon="20.57489">
        <ele>622.687272</ele>
        <time>2022-04-27T10:09:50.748Z</time>
      </trkpt>
      <trkpt lat="41.4097" lon="20.57498">
        <ele>622.473065</ele>
        <time>2022-04-27T10:09:53.748Z</time>
      </trkpt>
      <trkpt lat="41.40958" lon="20.57505">
        <ele>622.265327</ele>
        <time>2022-04-27T10:09:56.743Z</time>
      </trkpt>
      <trkpt lat="41.40947" lon="20.57511">
        <ele>622.06225</ele>
        <time>2022-04-27T10:09:59.741Z</time>
      </trkpt>
      <trkpt lat="41.40936" lon="20.57515">
        <ele>621.872763</ele>
        <time>2022-04-27T10:10:02.747Z</time>
      </trkpt>
      <trkpt lat="41.40925" lon="20.57516">
        <ele>621.69087</ele>
        <time>2022-04-27T10:10:05.759Z</time>
      </trkpt>
      <trkpt lat="41.40913" lon="20.57517">
        <ele>621.501187</ele>
        <time>2022-04-27T10:10:08.747Z</time>
      </trkpt>
      <trkpt lat="41.40901" lon="20.57519">
        <ele>621.296071</ele>
        <time>2022-04-27T10:10:11.740Z</time>
      </trkpt>
      <trkpt lat="41.4089" lon="20.5752">
        <ele>621.266503</ele>
        <time>2022-04-27T10:10:14.742Z</time>
      </trkpt>
      <trkpt lat="41.40876" lon="20.57521">
        <ele>621.238208</ele>
        <time>2022-04-27T10:10:17.745Z</time>
      </trkpt>
      <trkpt lat="41.40862" lon="20.57521">
        <ele>621.210205</ele>
        <time>2022-04-27T10:10:20.757Z</time>
      </trkpt>
      <trkpt lat="41.40849" lon="20.57522">
        <ele>621.182956</ele>
        <time>2022-04-27T10:10:23.743Z</time>
      </trkpt>
      <trkpt lat="41.40836" lon="20.57525">
        <ele>621.154387</ele>
        <time>2022-04-27T10:10:26.759Z</time>
      </trkpt>
      <trkpt lat="41.40823" lon="20.57529">
        <ele>621.127252</ele>
        <time>2022-04-27T10:10:29.743Z</time>
      </trkpt>
      <trkpt lat="41.40811" lon="20.57534">
        <ele>621.100734</ele>
        <time>2022-04-27T10:10:32.755Z</time>
      </trkpt>
      <trkpt lat="41.40799" lon="20.5754">
        <ele>621.073867</ele>
        <time>2022-04-27T10:10:35.748Z</time>
      </trkpt>
      <trkpt lat="41.4079" lon="20.57545">
        <ele>621.054719</ele>
        <time>2022-04-27T10:10:37.734Z</time>
      </trkpt>
      <trkpt lat="41.40782" lon="20.57551">
        <ele>621.035573</ele>
        <time>2022-04-27T10:10:39.748Z</time>
      </trkpt>
      <trkpt lat="41.40771" lon="20.57561">
        <ele>621.008128</ele>
        <time>2022-04-27T10:10:42.739Z</time>
      </trkpt>
      <trkpt lat="41.40763" lon="20.57572">
        <ele>620.983229</ele>
        <time>2022-04-27T10:10:45.736Z</time>
      </trkpt>
      <trkpt lat="41.40755" lon="20.57584">
        <ele>620.957997</ele>
        <time>2022-04-27T10:10:48.748Z</time>
      </trkpt>
      <trkpt lat="41.40747" lon="20.57597">
        <ele>620.933221</ele>
        <time>2022-04-27T10:10:51.748Z</time>
      </trkpt>
      <trkpt lat="41.40739" lon="20.57611">
        <ele>620.816282</ele>
        <time>2022-04-27T10:10:54.739Z</time>
      </trkpt>
      <trkpt lat="41.40733" lon="20.5762">
        <ele>620.640966</ele>
        <time>2022-04-27T10:10:56.751Z</time>
      </trkpt>
      <trkpt lat="41.40727" lon="20.5763">
        <ele>620.461781</ele>
        <time>2022-04-27T10:10:58.743Z</time>
      </trkpt>
      <trkpt lat="41.4072" lon="20.57639">
        <ele>620.263722</ele>
        <time>2022-04-27T10:11:00.740Z</time>
      </trkpt>
      <trkpt lat="41.40714" lon="20.57648">
        <ele>620.085626</ele>
        <time>2022-04-27T10:11:02.743Z</time>
      </trkpt>
      <trkpt lat="41.40707" lon="20.57658">
        <ele>619.901708</ele>
        <time>2022-04-27T10:11:04.753Z</time>
      </trkpt>
      <trkpt lat="41.40702" lon="20.57668">
        <ele>619.719542</ele>
        <time>2022-04-27T10:11:06.748Z</time>
      </trkpt>
      <trkpt lat="41.40695" lon="20.57677">
        <ele>619.535413</ele>
        <time>2022-04-27T10:11:08.743Z</time>
      </trkpt>
      <trkpt lat="41.40688" lon="20.57686">
        <ele>619.346714</ele>
        <time>2022-04-27T10:11:10.737Z</time>
      </trkpt>
      <trkpt lat="41.40682" lon="20.57696">
        <ele>619.16102</ele>
        <time>2022-04-27T10:11:12.741Z</time>
      </trkpt>
      <trkpt lat="41.40675" lon="20.57705">
        <ele>618.973444</ele>
        <time>2022-04-27T10:11:14.750Z</time>
      </trkpt>
      <trkpt lat="41.40669" lon="20.57715">
        <ele>618.78801</ele>
        <time>2022-04-27T10:11:16.776Z</time>
      </trkpt>
      <trkpt lat="41.40662" lon="20.57724">
        <ele>618.606798</ele>
        <time>2022-04-27T10:11:18.750Z</time>
      </trkpt>
      <trkpt lat="41.40656" lon="20.57732">
        <ele>618.425556</ele>
        <time>2022-04-27T10:11:20.743Z</time>
      </trkpt>
      <trkpt lat="41.40649" lon="20.5774">
        <ele>618.248735</ele>
        <time>2022-04-27T10:11:22.754Z</time>
      </trkpt>
      <trkpt lat="41.40639" lon="20.57751">
        <ele>618.010245</ele>
        <time>2022-04-27T10:11:25.743Z</time>
      </trkpt>
      <trkpt lat="41.40629" lon="20.57761">
        <ele>617.758855</ele>
        <time>2022-04-27T10:11:28.743Z</time>
      </trkpt>
      <trkpt lat="41.40621" lon="20.57768">
        <ele>617.581865</ele>
        <time>2022-04-27T10:11:30.763Z</time>
      </trkpt>
      <trkpt lat="41.40612" lon="20.5778">
        <ele>617.119871</ele>
        <time>2022-04-27T10:11:33.753Z</time>
      </trkpt>
      <trkpt lat="41.40602" lon="20.57791">
        <ele>616.38904</ele>
        <time>2022-04-27T10:11:36.736Z</time>
      </trkpt>
      <trkpt lat="41.40591" lon="20.57801">
        <ele>615.665601</ele>
        <time>2022-04-27T10:11:39.749Z</time>
      </trkpt>
      <trkpt lat="41.40581" lon="20.57812">
        <ele>614.941194</ele>
        <time>2022-04-27T10:11:42.739Z</time>
      </trkpt>
      <trkpt lat="41.4057" lon="20.57823">
        <ele>614.202014</ele>
        <time>2022-04-27T10:11:45.745Z</time>
      </trkpt>
      <trkpt lat="41.40563" lon="20.5783">
        <ele>613.701431</ele>
        <time>2022-04-27T10:11:47.740Z</time>
      </trkpt>
      <trkpt lat="41.40556" lon="20.57838">
        <ele>613.197351</ele>
        <time>2022-04-27T10:11:49.761Z</time>
      </trkpt>
      <trkpt lat="41.40549" lon="20.57845">
        <ele>612.683995</ele>
        <time>2022-04-27T10:11:51.742Z</time>
      </trkpt>
      <trkpt lat="41.40538" lon="20.57855">
        <ele>611.992868</ele>
        <time>2022-04-27T10:11:54.759Z</time>
      </trkpt>
      <trkpt lat="41.4053" lon="20.57866">
        <ele>611.304429</ele>
        <time>2022-04-27T10:11:57.743Z</time>
      </trkpt>
      <trkpt lat="41.40523" lon="20.57875">
        <ele>610.796731</ele>
        <time>2022-04-27T10:11:59.741Z</time>
      </trkpt>
      <trkpt lat="41.40517" lon="20.57884">
        <ele>610.296748</ele>
        <time>2022-04-27T10:12:01.738Z</time>
      </trkpt>
      <trkpt lat="41.40511" lon="20.57893">
        <ele>609.787631</ele>
        <time>2022-04-27T10:12:03.749Z</time>
      </trkpt>
      <trkpt lat="41.40504" lon="20.57905">
        <ele>609.131044</ele>
        <time>2022-04-27T10:12:06.750Z</time>
      </trkpt>
      <trkpt lat="41.40498" lon="20.57918">
        <ele>608.525543</ele>
        <time>2022-04-27T10:12:09.737Z</time>
      </trkpt>
      <trkpt lat="41.40493" lon="20.57932">
        <ele>607.873361</ele>
        <time>2022-04-27T10:12:12.753Z</time>
      </trkpt>
      <trkpt lat="41.40488" lon="20.57947">
        <ele>607.497049</ele>
        <time>2022-04-27T10:12:15.743Z</time>
      </trkpt>
      <trkpt lat="41.40482" lon="20.57962">
        <ele>607.633596</ele>
        <time>2022-04-27T10:12:18.744Z</time>
      </trkpt>
      <trkpt lat="41.40478" lon="20.57974">
        <ele>607.73238</ele>
        <time>2022-04-27T10:12:20.752Z</time>
      </trkpt>
      <trkpt lat="41.40475" lon="20.57985">
        <ele>607.833786</ele>
        <time>2022-04-27T10:12:22.743Z</time>
      </trkpt>
      <trkpt lat="41.40472" lon="20.57997">
        <ele>607.929972</ele>
        <time>2022-04-27T10:12:24.758Z</time>
      </trkpt>
      <trkpt lat="41.40468" lon="20.58012">
        <ele>608.057901</ele>
        <time>2022-04-27T10:12:27.765Z</time>
      </trkpt>
      <trkpt lat="41.40462" lon="20.58028">
        <ele>608.198782</ele>
        <time>2022-04-27T10:12:30.754Z</time>
      </trkpt>
      <trkpt lat="41.40457" lon="20.58044">
        <ele>608.335454</ele>
        <time>2022-04-27T10:12:33.764Z</time>
      </trkpt>
      <trkpt lat="41.40453" lon="20.58055">
        <ele>608.433984</ele>
        <time>2022-04-27T10:12:35.740Z</time>
      </trkpt>
      <trkpt lat="41.40448" lon="20.58066">
        <ele>608.532368</ele>
        <time>2022-04-27T10:12:37.742Z</time>
      </trkpt>
      <trkpt lat="41.40444" lon="20.58076">
        <ele>608.628933</ele>
        <time>2022-04-27T10:12:39.766Z</time>
      </trkpt>
      <trkpt lat="41.40437" lon="20.5809">
        <ele>608.762088</ele>
        <time>2022-04-27T10:12:42.763Z</time>
      </trkpt>
      <trkpt lat="41.4043" lon="20.58104">
        <ele>608.89465</ele>
        <time>2022-04-27T10:12:45.741Z</time>
      </trkpt>
      <trkpt lat="41.40421" lon="20.58117">
        <ele>609.033885</ele>
        <time>2022-04-27T10:12:48.741Z</time>
      </trkpt>
      <trkpt lat="41.40412" lon="20.58128">
        <ele>609.166156</ele>
        <time>2022-04-27T10:12:51.746Z</time>
      </trkpt>
      <trkpt lat="41.40403" lon="20.58139">
        <ele>609.297679</ele>
        <time>2022-04-27T10:12:54.738Z</time>
      </trkpt>
      <trkpt lat="41.40393" lon="20.58148">
        <ele>609.728108</ele>
        <time>2022-04-27T10:12:57.752Z</time>
      </trkpt>
      <trkpt lat="41.40383" lon="20.58156">
        <ele>610.427181</ele>
        <time>2022-04-27T10:13:00.748Z</time>
      </trkpt>
      <trkpt lat="41.40372" lon="20.58164">
        <ele>611.19435</ele>
        <time>2022-04-27T10:13:03.743Z</time>
      </trkpt>
      <trkpt lat="41.40361" lon="20.58173">
        <ele>611.924953</ele>
        <time>2022-04-27T10:13:06.752Z</time>
      </trkpt>
      <trkpt lat="41.40351" lon="20.58181">
        <ele>612.611465</ele>
        <time>2022-04-27T10:13:09.747Z</time>
      </trkpt>
      <trkpt lat="41.40342" lon="20.58187">
        <ele>613.239458</ele>
        <time>2022-04-27T10:13:12.773Z</time>
      </trkpt>
      <trkpt lat="41.40334" lon="20.58193">
        <ele>613.804195</ele>
        <time>2022-04-27T10:13:15.744Z</time>
      </trkpt>
      <trkpt lat="41.40325" lon="20.58198">
        <ele>614.391569</ele>
        <time>2022-04-27T10:13:18.744Z</time>
      </trkpt>
      <trkpt lat="41.40314" lon="20.58203">
        <ele>615.050072</ele>
        <time>2022-04-27T10:13:21.749Z</time>
      </trkpt>
      <trkpt lat="41.40304" lon="20.5821">
        <ele>615.71961</ele>
        <time>2022-04-27T10:13:24.737Z</time>
      </trkpt>
      <trkpt lat="41.40293" lon="20.58218">
        <ele>616.462422</ele>
        <time>2022-04-27T10:13:27.736Z</time>
      </trkpt>
      <trkpt lat="41.40282" lon="20.58226">
        <ele>617.209594</ele>
        <time>2022-04-27T10:13:30.741Z</time>
      </trkpt>
      <trkpt lat="41.40271" lon="20.58234">
        <ele>617.971569</ele>
        <time>2022-04-27T10:13:33.744Z</time>
      </trkpt>
      <trkpt lat="41.4026" lon="20.58243">
        <ele>618.739732</ele>
        <time>2022-04-27T10:13:36.735Z</time>
      </trkpt>
      <trkpt lat="41.40249" lon="20.58252">
        <ele>619.491346</ele>
        <time>2022-04-27T10:13:39.742Z</time>
      </trkpt>
      <trkpt lat="41.40241" lon="20.58258">
        <ele>620.037146</ele>
        <time>2022-04-27T10:13:41.746Z</time>
      </trkpt>
      <trkpt lat="41.4023" lon="20.58265">
        <ele>620.480337</ele>
        <time>2022-04-27T10:13:44.751Z</time>
      </trkpt>
      <trkpt lat="41.40218" lon="20.58272">
        <ele>620.912999</ele>
        <time>2022-04-27T10:13:47.738Z</time>
      </trkpt>
      <trkpt lat="41.40205" lon="20.58277">
        <ele>621.361592</ele>
        <time>2022-04-27T10:13:50.740Z</time>
      </trkpt>
      <trkpt lat="41.40193" lon="20.58282">
        <ele>621.795776</ele>
        <time>2022-04-27T10:13:53.738Z</time>
      </trkpt>
      <trkpt lat="41.40184" lon="20.58285">
        <ele>622.09911</ele>
        <time>2022-04-27T10:13:55.736Z</time>
      </trkpt>
      <trkpt lat="41.40175" lon="20.58288">
        <ele>622.405217</ele>
        <time>2022-04-27T10:13:57.762Z</time>
      </trkpt>
      <trkpt lat="41.40165" lon="20.5829">
        <ele>622.729785</ele>
        <time>2022-04-27T10:13:59.750Z</time>
      </trkpt>
      <trkpt lat="41.40156" lon="20.58293">
        <ele>623.043377</ele>
        <time>2022-04-27T10:14:01.732Z</time>
      </trkpt>
      <trkpt lat="41.40147" lon="20.58297">
        <ele>623.346711</ele>
        <time>2022-04-27T10:14:03.771Z</time>
      </trkpt>
      <trkpt lat="41.40134" lon="20.583">
        <ele>623.786786</ele>
        <time>2022-04-27T10:14:06.738Z</time>
      </trkpt>
      <trkpt lat="41.40121" lon="20.58304">
        <ele>624.236149</ele>
        <time>2022-04-27T10:14:09.739Z</time>
      </trkpt>
      <trkpt lat="41.40108" lon="20.58308">
        <ele>624.68478</ele>
        <time>2022-04-27T10:14:12.743Z</time>
      </trkpt>
      <trkpt lat="41.40098" lon="20.5831">
        <ele>625.003334</ele>
        <time>2022-04-27T10:14:14.773Z</time>
      </trkpt>
      <trkpt lat="41.40089" lon="20.58313">
        <ele>625.320833</ele>
        <time>2022-04-27T10:14:16.739Z</time>
      </trkpt>
      <trkpt lat="41.4008" lon="20.58316">
        <ele>625.628665</ele>
        <time>2022-04-27T10:14:18.740Z</time>
      </trkpt>
      <trkpt lat="41.40067" lon="20.5832">
        <ele>626.072657</ele>
        <time>2022-04-27T10:14:21.740Z</time>
      </trkpt>
      <trkpt lat="41.40058" lon="20.58324">
        <ele>626.381647</ele>
        <time>2022-04-27T10:14:23.735Z</time>
      </trkpt>
      <trkpt lat="41.40049" lon="20.58328">
        <ele>626.68276</ele>
        <time>2022-04-27T10:14:25.734Z</time>
      </trkpt>
      <trkpt lat="41.4004" lon="20.58332">
        <ele>626.975702</ele>
        <time>2022-04-27T10:14:27.736Z</time>
      </trkpt>
      <trkpt lat="41.40031" lon="20.58337">
        <ele>627.282594</ele>
        <time>2022-04-27T10:14:29.745Z</time>
      </trkpt>
      <trkpt lat="41.40022" lon="20.58343">
        <ele>627.585993</ele>
        <time>2022-04-27T10:14:31.760Z</time>
      </trkpt>
      <trkpt lat="41.40014" lon="20.58349">
        <ele>627.873173</ele>
        <time>2022-04-27T10:14:33.741Z</time>
      </trkpt>
      <trkpt lat="41.40002" lon="20.58355">
        <ele>628.28273</ele>
        <time>2022-04-27T10:14:36.741Z</time>
      </trkpt>
      <trkpt lat="41.3999" lon="20.58361">
        <ele>628.686844</ele>
        <time>2022-04-27T10:14:39.745Z</time>
      </trkpt>
      <trkpt lat="41.39982" lon="20.58365">
        <ele>628.983156</ele>
        <time>2022-04-27T10:14:41.739Z</time>
      </trkpt>
      <trkpt lat="41.39973" lon="20.58369">
        <ele>629.273749</ele>
        <time>2022-04-27T10:14:43.763Z</time>
      </trkpt>
      <trkpt lat="41.39962" lon="20.58375">
        <ele>629.659219</ele>
        <time>2022-04-27T10:14:46.738Z</time>
      </trkpt>
      <trkpt lat="41.3995" lon="20.58379">
        <ele>630.041047</ele>
        <time>2022-04-27T10:14:49.766Z</time>
      </trkpt>
      <trkpt lat="41.39938" lon="20.58383">
        <ele>630.426857</ele>
        <time>2022-04-27T10:14:52.755Z</time>
      </trkpt>
      <trkpt lat="41.39927" lon="20.58384">
        <ele>630.78059</ele>
        <time>2022-04-27T10:14:55.745Z</time>
      </trkpt>
      <trkpt lat="41.39916" lon="20.58385">
        <ele>631.12351</ele>
        <time>2022-04-27T10:14:58.740Z</time>
      </trkpt>
      <trkpt lat="41.39906" lon="20.58386">
        <ele>631.430838</ele>
        <time>2022-04-27T10:15:01.741Z</time>
      </trkpt>
      <trkpt lat="41.39897" lon="20.58385">
        <ele>631.726048</ele>
        <time>2022-04-27T10:15:04.754Z</time>
      </trkpt>
      <trkpt lat="41.39887" lon="20.58384">
        <ele>632.235252</ele>
        <time>2022-04-27T10:15:07.737Z</time>
      </trkpt>
      <trkpt lat="41.39876" lon="20.58381">
        <ele>632.830054</ele>
        <time>2022-04-27T10:15:11.765Z</time>
      </trkpt>
      <trkpt lat="41.39866" lon="20.58378">
        <ele>633.38601</ele>
        <time>2022-04-27T10:15:15.780Z</time>
      </trkpt>
      <trkpt lat="41.39856" lon="20.58373">
        <ele>633.940118</ele>
        <time>2022-04-27T10:15:19.738Z</time>
      </trkpt>
      <trkpt lat="41.39848" lon="20.58368">
        <ele>634.431142</ele>
        <time>2022-04-27T10:15:22.767Z</time>
      </trkpt>
      <trkpt lat="41.39837" lon="20.58362">
        <ele>635.023158</ele>
        <time>2022-04-27T10:15:26.745Z</time>
      </trkpt>
      <trkpt lat="41.39828" lon="20.58358">
        <ele>635.542074</ele>
        <time>2022-04-27T10:15:30.762Z</time>
      </trkpt>
      <trkpt lat="41.39818" lon="20.58355">
        <ele>636.080808</ele>
        <time>2022-04-27T10:15:34.756Z</time>
      </trkpt>
      <trkpt lat="41.39808" lon="20.58353">
        <ele>636.646568</ele>
        <time>2022-04-27T10:15:38.759Z</time>
      </trkpt>
      <trkpt lat="41.39798" lon="20.58351">
        <ele>637.164351</ele>
        <time>2022-04-27T10:15:42.745Z</time>
      </trkpt>
      <trkpt lat="41.39788" lon="20.58348">
        <ele>637.714493</ele>
        <time>2022-04-27T10:15:46.756Z</time>
      </trkpt>
      <trkpt lat="41.39779" lon="20.58345">
        <ele>638.212064</ele>
        <time>2022-04-27T10:15:50.757Z</time>
      </trkpt>
      <trkpt lat="41.39769" lon="20.58343">
        <ele>638.754214</ele>
        <time>2022-04-27T10:15:55.739Z</time>
      </trkpt>
      <trkpt lat="41.39758" lon="20.58343">
        <ele>639.336961</ele>
        <time>2022-04-27T10:16:00.740Z</time>
      </trkpt>
      <trkpt lat="41.39748" lon="20.58344">
        <ele>639.841797</ele>
        <time>2022-04-27T10:16:05.739Z</time>
      </trkpt>
      <trkpt lat="41.39739" lon="20.58347">
        <ele>640.321079</ele>
        <time>2022-04-27T10:16:09.744Z</time>
      </trkpt>
      <trkpt lat="41.39729" lon="20.58349">
        <ele>640.875683</ele>
        <time>2022-04-27T10:16:14.744Z</time>
      </trkpt>
      <trkpt lat="41.39719" lon="20.5835">
        <ele>641.255749</ele>
        <time>2022-04-27T10:16:18.759Z</time>
      </trkpt>
      <trkpt lat="41.39708" lon="20.58353">
        <ele>641.11294</ele>
        <time>2022-04-27T10:16:22.747Z</time>
      </trkpt>
      <trkpt lat="41.39699" lon="20.58356">
        <ele>640.992764</ele>
        <time>2022-04-27T10:16:26.776Z</time>
      </trkpt>
      <trkpt lat="41.3969" lon="20.58358">
        <ele>640.876002</ele>
        <time>2022-04-27T10:16:30.744Z</time>
      </trkpt>
      <trkpt lat="41.3968" lon="20.58361">
        <ele>640.743635</ele>
        <time>2022-04-27T10:16:35.742Z</time>
      </trkpt>
      <trkpt lat="41.3967" lon="20.58366">
        <ele>640.60338</ele>
        <time>2022-04-27T10:16:40.742Z</time>
      </trkpt>
      <trkpt lat="41.39661" lon="20.58372">
        <ele>640.471168</ele>
        <time>2022-04-27T10:16:45.739Z</time>
      </trkpt>
      <trkpt lat="41.39651" lon="20.58376">
        <ele>640.337518</ele>
        <time>2022-04-27T10:16:50.755Z</time>
      </trkpt>
      <trkpt lat="41.39641" lon="20.58379">
        <ele>640.211347</ele>
        <time>2022-04-27T10:16:54.772Z</time>
      </trkpt>
      <trkpt lat="41.39632" lon="20.58382">
        <ele>640.091403</ele>
        <time>2022-04-27T10:16:58.740Z</time>
      </trkpt>
      <trkpt lat="41.39622" lon="20.58386">
        <ele>639.948207</ele>
        <time>2022-04-27T10:17:03.739Z</time>
      </trkpt>
      <trkpt lat="41.39612" lon="20.58389">
        <ele>639.816781</ele>
        <time>2022-04-27T10:17:07.741Z</time>
      </trkpt>
      <trkpt lat="41.39601" lon="20.58394">
        <ele>639.663568</ele>
        <time>2022-04-27T10:17:11.739Z</time>
      </trkpt>
      <trkpt lat="41.39592" lon="20.58398">
        <ele>639.543127</ele>
        <time>2022-04-27T10:17:14.755Z</time>
      </trkpt>
      <trkpt lat="41.39581" lon="20.58401">
        <ele>639.401428</ele>
        <time>2022-04-27T10:17:17.741Z</time>
      </trkpt>
      <trkpt lat="41.39568" lon="20.58404">
        <ele>639.230135</ele>
        <time>2022-04-27T10:17:20.740Z</time>
      </trkpt>
      <trkpt lat="41.39557" lon="20.58405">
        <ele>639.087856</ele>
        <time>2022-04-27T10:17:22.754Z</time>
      </trkpt>
      <trkpt lat="41.39548" lon="20.58408">
        <ele>638.966228</ele>
        <time>2022-04-27T10:17:24.755Z</time>
      </trkpt>
      <trkpt lat="41.39538" lon="20.5841">
        <ele>638.803818</ele>
        <time>2022-04-27T10:17:26.742Z</time>
      </trkpt>
      <trkpt lat="41.39528" lon="20.58413">
        <ele>638.622061</ele>
        <time>2022-04-27T10:17:28.740Z</time>
      </trkpt>
      <trkpt lat="41.39516" lon="20.58416">
        <ele>638.417871</ele>
        <time>2022-04-27T10:17:30.744Z</time>
      </trkpt>
      <trkpt lat="41.39504" lon="20.58418">
        <ele>638.203145</ele>
        <time>2022-04-27T10:17:32.743Z</time>
      </trkpt>
      <trkpt lat="41.39485" lon="20.58422">
        <ele>637.879165</ele>
        <time>2022-04-27T10:17:35.739Z</time>
      </trkpt>
      <trkpt lat="41.39473" lon="20.58426">
        <ele>637.662074</ele>
        <time>2022-04-27T10:17:37.743Z</time>
      </trkpt>
      <trkpt lat="41.39461" lon="20.5843">
        <ele>637.450785</ele>
        <time>2022-04-27T10:17:39.746Z</time>
      </trkpt>
      <trkpt lat="41.39447" lon="20.58432">
        <ele>637.21611</ele>
        <time>2022-04-27T10:17:41.770Z</time>
      </trkpt>
      <trkpt lat="41.39432" lon="20.58433">
        <ele>636.959053</ele>
        <time>2022-04-27T10:17:43.786Z</time>
      </trkpt>
      <trkpt lat="41.39416" lon="20.58432">
        <ele>636.684989</ele>
        <time>2022-04-27T10:17:45.784Z</time>
      </trkpt>
      <trkpt lat="41.39401" lon="20.58429">
        <ele>636.422323</ele>
        <time>2022-04-27T10:17:47.763Z</time>
      </trkpt>
      <trkpt lat="41.39384" lon="20.58424">
        <ele>636.131064</ele>
        <time>2022-04-27T10:17:49.751Z</time>
      </trkpt>
      <trkpt lat="41.39368" lon="20.58416">
        <ele>635.863975</ele>
        <time>2022-04-27T10:17:51.772Z</time>
      </trkpt>
      <trkpt lat="41.39355" lon="20.58408">
        <ele>635.784918</ele>
        <time>2022-04-27T10:17:53.768Z</time>
      </trkpt>
      <trkpt lat="41.39343" lon="20.58401">
        <ele>635.712014</ele>
        <time>2022-04-27T10:17:55.783Z</time>
      </trkpt>
      <trkpt lat="41.3933" lon="20.58394">
        <ele>635.636943</ele>
        <time>2022-04-27T10:17:57.776Z</time>
      </trkpt>
      <trkpt lat="41.39317" lon="20.58386">
        <ele>635.558714</ele>
        <time>2022-04-27T10:17:59.765Z</time>
      </trkpt>
      <trkpt lat="41.39305" lon="20.58377">
        <ele>635.481473</ele>
        <time>2022-04-27T10:18:01.818Z</time>
      </trkpt>
      <trkpt lat="41.39292" lon="20.58367">
        <ele>635.400037</ele>
        <time>2022-04-27T10:18:03.790Z</time>
      </trkpt>
      <trkpt lat="41.39278" lon="20.58356">
        <ele>635.311628</ele>
        <time>2022-04-27T10:18:05.776Z</time>
      </trkpt>
      <trkpt lat="41.39263" lon="20.58345">
        <ele>635.216242</ele>
        <time>2022-04-27T10:18:07.778Z</time>
      </trkpt>
      <trkpt lat="41.39249" lon="20.58334">
        <ele>635.124837</ele>
        <time>2022-04-27T10:18:09.769Z</time>
      </trkpt>
      <trkpt lat="41.39233" lon="20.58324">
        <ele>635.032033</ele>
        <time>2022-04-27T10:18:11.778Z</time>
      </trkpt>
      <trkpt lat="41.39224" lon="20.5832">
        <ele>634.978825</ele>
        <time>2022-04-27T10:18:12.772Z</time>
      </trkpt>
      <trkpt lat="41.39215" lon="20.58316">
        <ele>634.92653</ele>
        <time>2022-04-27T10:18:13.773Z</time>
      </trkpt>
      <trkpt lat="41.39207" lon="20.58313">
        <ele>634.818621</ele>
        <time>2022-04-27T10:18:14.784Z</time>
      </trkpt>
      <trkpt lat="41.3919" lon="20.58309">
        <ele>634.329866</ele>
        <time>2022-04-27T10:18:16.763Z</time>
      </trkpt>
      <trkpt lat="41.39173" lon="20.58308">
        <ele>633.82482</ele>
        <time>2022-04-27T10:18:18.753Z</time>
      </trkpt>
      <trkpt lat="41.39156" lon="20.58311">
        <ele>633.345644</ele>
        <time>2022-04-27T10:18:20.780Z</time>
      </trkpt>
      <trkpt lat="41.39142" lon="20.58314">
        <ele>632.906726</ele>
        <time>2022-04-27T10:18:22.772Z</time>
      </trkpt>
      <trkpt lat="41.39128" lon="20.58317">
        <ele>632.496691</ele>
        <time>2022-04-27T10:18:24.761Z</time>
      </trkpt>
      <trkpt lat="41.39115" lon="20.58319">
        <ele>632.120997</ele>
        <time>2022-04-27T10:18:26.781Z</time>
      </trkpt>
      <trkpt lat="41.39103" lon="20.58323">
        <ele>631.763303</ele>
        <time>2022-04-27T10:18:28.774Z</time>
      </trkpt>
      <trkpt lat="41.39092" lon="20.58326">
        <ele>631.426988</ele>
        <time>2022-04-27T10:18:30.769Z</time>
      </trkpt>
      <trkpt lat="41.39081" lon="20.58329">
        <ele>631.09437</ele>
        <time>2022-04-27T10:18:32.769Z</time>
      </trkpt>
      <trkpt lat="41.39071" lon="20.58331">
        <ele>630.822249</ele>
        <time>2022-04-27T10:18:34.789Z</time>
      </trkpt>
      <trkpt lat="41.3906" lon="20.58334">
        <ele>630.485934</ele>
        <time>2022-04-27T10:18:37.802Z</time>
      </trkpt>
      <trkpt lat="41.39051" lon="20.58336">
        <ele>630.205534</ele>
        <time>2022-04-27T10:18:40.759Z</time>
      </trkpt>
      <trkpt lat="41.39042" lon="20.58336">
        <ele>629.942604</ele>
        <time>2022-04-27T10:18:43.769Z</time>
      </trkpt>
      <trkpt lat="41.39032" lon="20.58335">
        <ele>629.670713</ele>
        <time>2022-04-27T10:18:46.773Z</time>
      </trkpt>
      <trkpt lat="41.39023" lon="20.58333">
        <ele>629.756598</ele>
        <time>2022-04-27T10:18:49.773Z</time>
      </trkpt>
      <trkpt lat="41.39013" lon="20.58331">
        <ele>629.888369</ele>
        <time>2022-04-27T10:18:53.761Z</time>
      </trkpt>
      <trkpt lat="41.39004" lon="20.58328">
        <ele>630.021999</ele>
        <time>2022-04-27T10:18:56.805Z</time>
      </trkpt>
      <trkpt lat="41.3899" lon="20.58325">
        <ele>630.2041</ele>
        <time>2022-04-27T10:18:59.805Z</time>
      </trkpt>
      <trkpt lat="41.38981" lon="20.58324">
        <ele>630.327961</ele>
        <time>2022-04-27T10:19:01.792Z</time>
      </trkpt>
      <trkpt lat="41.38972" lon="20.58324">
        <ele>630.458029</ele>
        <time>2022-04-27T10:19:03.750Z</time>
      </trkpt>
      <trkpt lat="41.38962" lon="20.58325">
        <ele>630.584198</ele>
        <time>2022-04-27T10:19:05.739Z</time>
      </trkpt>
      <trkpt lat="41.38953" lon="20.58326">
        <ele>630.709225</ele>
        <time>2022-04-27T10:19:07.766Z</time>
      </trkpt>
      <trkpt lat="41.38942" lon="20.58328">
        <ele>630.862422</ele>
        <time>2022-04-27T10:19:10.775Z</time>
      </trkpt>
      <trkpt lat="41.38929" lon="20.58331">
        <ele>631.047377</ele>
        <time>2022-04-27T10:19:13.808Z</time>
      </trkpt>
      <trkpt lat="41.38919" lon="20.58334">
        <ele>631.178538</ele>
        <time>2022-04-27T10:19:15.766Z</time>
      </trkpt>
      <trkpt lat="41.3891" lon="20.58336">
        <ele>631.30932</ele>
        <time>2022-04-27T10:19:17.760Z</time>
      </trkpt>
      <trkpt lat="41.389" lon="20.58339">
        <ele>631.436298</ele>
        <time>2022-04-27T10:19:19.809Z</time>
      </trkpt>
      <trkpt lat="41.38891" lon="20.58342">
        <ele>631.561714</ele>
        <time>2022-04-27T10:19:21.760Z</time>
      </trkpt>
      <trkpt lat="41.38879" lon="20.58346">
        <ele>631.738951</ele>
        <time>2022-04-27T10:19:24.765Z</time>
      </trkpt>
      <trkpt lat="41.38866" lon="20.5835">
        <ele>631.910685</ele>
        <time>2022-04-27T10:19:27.772Z</time>
      </trkpt>
      <trkpt lat="41.38854" lon="20.58354">
        <ele>632.082136</ele>
        <time>2022-04-27T10:19:30.749Z</time>
      </trkpt>
      <trkpt lat="41.38845" lon="20.58356">
        <ele>632.145167</ele>
        <time>2022-04-27T10:19:32.741Z</time>
      </trkpt>
      <trkpt lat="41.38832" lon="20.58359">
        <ele>632.233567</ele>
        <time>2022-04-27T10:19:35.746Z</time>
      </trkpt>
      <trkpt lat="41.38822" lon="20.58362">
        <ele>632.306759</ele>
        <time>2022-04-27T10:19:38.738Z</time>
      </trkpt>
      <trkpt lat="41.38812" lon="20.58365">
        <ele>632.37771</ele>
        <time>2022-04-27T10:19:41.746Z</time>
      </trkpt>
      <trkpt lat="41.38802" lon="20.58368">
        <ele>632.445525</ele>
        <time>2022-04-27T10:19:44.743Z</time>
      </trkpt>
      <trkpt lat="41.38792" lon="20.5837">
        <ele>632.517044</ele>
        <time>2022-04-27T10:19:47.741Z</time>
      </trkpt>
      <trkpt lat="41.38781" lon="20.58373">
        <ele>632.595401</ele>
        <time>2022-04-27T10:19:50.748Z</time>
      </trkpt>
      <trkpt lat="41.38769" lon="20.58376">
        <ele>632.681486</ele>
        <time>2022-04-27T10:19:53.736Z</time>
      </trkpt>
      <trkpt lat="41.38756" lon="20.5838">
        <ele>632.774247</ele>
        <time>2022-04-27T10:19:56.741Z</time>
      </trkpt>
      <trkpt lat="41.38744" lon="20.58385">
        <ele>632.864807</ele>
        <time>2022-04-27T10:19:59.737Z</time>
      </trkpt>
      <trkpt lat="41.38733" lon="20.58388">
        <ele>632.941961</ele>
        <time>2022-04-27T10:20:02.750Z</time>
      </trkpt>
      <trkpt lat="41.38723" lon="20.5839">
        <ele>633.011502</ele>
        <time>2022-04-27T10:20:05.768Z</time>
      </trkpt>
      <trkpt lat="41.38712" lon="20.58393">
        <ele>633.091714</ele>
        <time>2022-04-27T10:20:09.740Z</time>
      </trkpt>
      <trkpt lat="41.38701" lon="20.58397">
        <ele>633.16857</ele>
        <time>2022-04-27T10:20:13.733Z</time>
      </trkpt>
      <trkpt lat="41.38692" lon="20.584">
        <ele>633.23092</ele>
        <time>2022-04-27T10:20:17.762Z</time>
      </trkpt>
      <trkpt lat="41.38682" lon="20.58402">
        <ele>633.301474</ele>
        <time>2022-04-27T10:20:21.749Z</time>
      </trkpt>
      <trkpt lat="41.38672" lon="20.58405">
        <ele>633.366952</ele>
        <time>2022-04-27T10:20:25.739Z</time>
      </trkpt>
      <trkpt lat="41.38662" lon="20.58406">
        <ele>633.435415</ele>
        <time>2022-04-27T10:20:29.742Z</time>
      </trkpt>
      <trkpt lat="41.38652" lon="20.58408">
        <ele>633.500101</ele>
        <time>2022-04-27T10:20:33.739Z</time>
      </trkpt>
      <trkpt lat="41.38642" lon="20.58411">
        <ele>633.56455</ele>
        <time>2022-04-27T10:20:37.740Z</time>
      </trkpt>
      <trkpt lat="41.38632" lon="20.58415">
        <ele>633.631042</ele>
        <time>2022-04-27T10:20:41.740Z</time>
      </trkpt>
      <trkpt lat="41.38622" lon="20.58417">
        <ele>633.692096</ele>
        <time>2022-04-27T10:20:44.753Z</time>
      </trkpt>
      <trkpt lat="41.3861" lon="20.58419">
        <ele>633.768808</ele>
        <time>2022-04-27T10:20:48.744Z</time>
      </trkpt>
      <trkpt lat="41.38598" lon="20.5842">
        <ele>633.847034</ele>
        <time>2022-04-27T10:20:52.742Z</time>
      </trkpt>
      <trkpt lat="41.38587" lon="20.5842">
        <ele>633.915593</ele>
        <time>2022-04-27T10:20:55.752Z</time>
      </trkpt>
      <trkpt lat="41.38577" lon="20.58419">
        <ele>633.975929</ele>
        <time>2022-04-27T10:20:58.737Z</time>
      </trkpt>
      <trkpt lat="41.38567" lon="20.58419">
        <ele>634.041357</ele>
        <time>2022-04-27T10:21:01.762Z</time>
      </trkpt>
      <trkpt lat="41.38556" lon="20.58417">
        <ele>634.110239</ele>
        <time>2022-04-27T10:21:04.743Z</time>
      </trkpt>
      <trkpt lat="41.38546" lon="20.58415">
        <ele>634.175832</ele>
        <time>2022-04-27T10:21:07.758Z</time>
      </trkpt>
      <trkpt lat="41.38535" lon="20.58415">
        <ele>634.247579</ele>
        <time>2022-04-27T10:21:10.756Z</time>
      </trkpt>
      <trkpt lat="41.38522" lon="20.58414">
        <ele>634.329536</ele>
        <time>2022-04-27T10:21:13.735Z</time>
      </trkpt>
      <trkpt lat="41.38512" lon="20.58412">
        <ele>634.392704</ele>
        <time>2022-04-27T10:21:16.738Z</time>
      </trkpt>
      <trkpt lat="41.38501" lon="20.5841">
        <ele>634.466103</ele>
        <time>2022-04-27T10:21:19.765Z</time>
      </trkpt>
      <trkpt lat="41.38488" lon="20.58409">
        <ele>634.883003</ele>
        <time>2022-04-27T10:21:22.740Z</time>
      </trkpt>
      <trkpt lat="41.38478" lon="20.58409">
        <ele>635.249307</ele>
        <time>2022-04-27T10:21:25.740Z</time>
      </trkpt>
      <trkpt lat="41.38467" lon="20.5841">
        <ele>635.612463</ele>
        <time>2022-04-27T10:21:28.748Z</time>
      </trkpt>
      <trkpt lat="41.38456" lon="20.5841">
        <ele>636.0068</ele>
        <time>2022-04-27T10:21:31.739Z</time>
      </trkpt>
      <trkpt lat="41.38443" lon="20.58412">
        <ele>636.441387</ele>
        <time>2022-04-27T10:21:34.746Z</time>
      </trkpt>
      <trkpt lat="41.38433" lon="20.58414">
        <ele>636.796159</ele>
        <time>2022-04-27T10:21:36.741Z</time>
      </trkpt>
      <trkpt lat="41.38422" lon="20.58415">
        <ele>637.174423</ele>
        <time>2022-04-27T10:21:38.740Z</time>
      </trkpt>
      <trkpt lat="41.38411" lon="20.58417">
        <ele>637.560679</ele>
        <time>2022-04-27T10:21:40.770Z</time>
      </trkpt>
      <trkpt lat="41.384" lon="20.58419">
        <ele>637.941889</ele>
        <time>2022-04-27T10:21:42.757Z</time>
      </trkpt>
      <trkpt lat="41.3839" lon="20.58423">
        <ele>638.317725</ele>
        <time>2022-04-27T10:21:44.745Z</time>
      </trkpt>
      <trkpt lat="41.38379" lon="20.58427">
        <ele>638.689798</ele>
        <time>2022-04-27T10:21:46.748Z</time>
      </trkpt>
      <trkpt lat="41.3837" lon="20.58431">
        <ele>639.038319</ele>
        <time>2022-04-27T10:21:48.738Z</time>
      </trkpt>
      <trkpt lat="41.38358" lon="20.58437">
        <ele>639.472554</ele>
        <time>2022-04-27T10:21:51.767Z</time>
      </trkpt>
      <trkpt lat="41.38346" lon="20.58444">
        <ele>639.917112</ele>
        <time>2022-04-27T10:21:54.744Z</time>
      </trkpt>
      <trkpt lat="41.38338" lon="20.58449">
        <ele>640.235962</ele>
        <time>2022-04-27T10:21:56.748Z</time>
      </trkpt>
      <trkpt lat="41.38327" lon="20.58457">
        <ele>640.652467</ele>
        <time>2022-04-27T10:21:59.741Z</time>
      </trkpt>
      <trkpt lat="41.38317" lon="20.58465">
        <ele>640.793659</ele>
        <time>2022-04-27T10:22:02.779Z</time>
      </trkpt>
      <trkpt lat="41.38306" lon="20.58473">
        <ele>640.909816</ele>
        <time>2022-04-27T10:22:05.739Z</time>
      </trkpt>
      <trkpt lat="41.38298" lon="20.58479">
        <ele>641.000838</ele>
        <time>2022-04-27T10:22:07.740Z</time>
      </trkpt>
      <trkpt lat="41.38288" lon="20.58487">
        <ele>641.118741</ele>
        <time>2022-04-27T10:22:10.742Z</time>
      </trkpt>
      <trkpt lat="41.38277" lon="20.58499">
        <ele>641.252916</ele>
        <time>2022-04-27T10:22:13.743Z</time>
      </trkpt>
      <trkpt lat="41.38268" lon="20.58507">
        <ele>641.365116</ele>
        <time>2022-04-27T10:22:15.748Z</time>
      </trkpt>
      <trkpt lat="41.38259" lon="20.58515">
        <ele>641.465888</ele>
        <time>2022-04-27T10:22:17.745Z</time>
      </trkpt>
      <trkpt lat="41.3825" lon="20.58523">
        <ele>641.572884</ele>
        <time>2022-04-27T10:22:19.749Z</time>
      </trkpt>
      <trkpt lat="41.38242" lon="20.58532">
        <ele>641.679489</ele>
        <time>2022-04-27T10:22:21.747Z</time>
      </trkpt>
      <trkpt lat="41.38233" lon="20.58543">
        <ele>641.7953</ele>
        <time>2022-04-27T10:22:23.776Z</time>
      </trkpt>
      <trkpt lat="41.38225" lon="20.58554">
        <ele>641.910448</ele>
        <time>2022-04-27T10:22:25.753Z</time>
      </trkpt>
      <trkpt lat="41.38217" lon="20.58565">
        <ele>642.023681</ele>
        <time>2022-04-27T10:22:27.745Z</time>
      </trkpt>
      <trkpt lat="41.38209" lon="20.58576">
        <ele>642.135224</ele>
        <time>2022-04-27T10:22:29.736Z</time>
      </trkpt>
      <trkpt lat="41.38202" lon="20.58587">
        <ele>642.242948</ele>
        <time>2022-04-27T10:22:31.743Z</time>
      </trkpt>
      <trkpt lat="41.38195" lon="20.58598">
        <ele>642.350187</ele>
        <time>2022-04-27T10:22:33.734Z</time>
      </trkpt>
      <trkpt lat="41.38188" lon="20.58609">
        <ele>642.416339</ele>
        <time>2022-04-27T10:22:35.741Z</time>
      </trkpt>
      <trkpt lat="41.38182" lon="20.58621">
        <ele>642.090347</ele>
        <time>2022-04-27T10:22:37.737Z</time>
      </trkpt>
      <trkpt lat="41.38175" lon="20.58632">
        <ele>641.77347</ele>
        <time>2022-04-27T10:22:39.735Z</time>
      </trkpt>
      <trkpt lat="41.38168" lon="20.58643">
        <ele>641.445122</ele>
        <time>2022-04-27T10:22:41.748Z</time>
      </trkpt>
      <trkpt lat="41.38161" lon="20.58654">
        <ele>641.11714</ele>
        <time>2022-04-27T10:22:43.735Z</time>
      </trkpt>
      <trkpt lat="41.38155" lon="20.58665">
        <ele>640.792684</ele>
        <time>2022-04-27T10:22:45.765Z</time>
      </trkpt>
      <trkpt lat="41.38148" lon="20.58675">
        <ele>640.482602</ele>
        <time>2022-04-27T10:22:47.738Z</time>
      </trkpt>
      <trkpt lat="41.38143" lon="20.58686">
        <ele>640.188556</ele>
        <time>2022-04-27T10:22:49.731Z</time>
      </trkpt>
      <trkpt lat="41.38137" lon="20.58697">
        <ele>639.898765</ele>
        <time>2022-04-27T10:22:51.757Z</time>
      </trkpt>
      <trkpt lat="41.38132" lon="20.58707">
        <ele>639.623049</ele>
        <time>2022-04-27T10:22:53.734Z</time>
      </trkpt>
      <trkpt lat="41.38126" lon="20.58716">
        <ele>639.343833</ele>
        <time>2022-04-27T10:22:55.776Z</time>
      </trkpt>
      <trkpt lat="41.3812" lon="20.58725">
        <ele>639.067734</ele>
        <time>2022-04-27T10:22:57.748Z</time>
      </trkpt>
      <trkpt lat="41.38114" lon="20.58734">
        <ele>638.789593</ele>
        <time>2022-04-27T10:22:59.822Z</time>
      </trkpt>
      <trkpt lat="41.38108" lon="20.58744">
        <ele>638.503704</ele>
        <time>2022-04-27T10:23:01.764Z</time>
      </trkpt>
      <trkpt lat="41.38102" lon="20.58754">
        <ele>638.214746</ele>
        <time>2022-04-27T10:23:03.756Z</time>
      </trkpt>
      <trkpt lat="41.38093" lon="20.58767">
        <ele>637.818188</ele>
        <time>2022-04-27T10:23:06.770Z</time>
      </trkpt>
      <trkpt lat="41.38084" lon="20.58779">
        <ele>637.41851</ele>
        <time>2022-04-27T10:23:09.781Z</time>
      </trkpt>
      <trkpt lat="41.38075" lon="20.5879">
        <ele>637.044917</ele>
        <time>2022-04-27T10:23:12.781Z</time>
      </trkpt>
      <trkpt lat="41.38066" lon="20.58801">
        <ele>637.438669</ele>
        <time>2022-04-27T10:23:15.780Z</time>
      </trkpt>
      <trkpt lat="41.38058" lon="20.58812">
        <ele>637.920255</ele>
        <time>2022-04-27T10:23:18.768Z</time>
      </trkpt>
      <trkpt lat="41.3805" lon="20.5882">
        <ele>638.358491</ele>
        <time>2022-04-27T10:23:21.771Z</time>
      </trkpt>
      <trkpt lat="41.38043" lon="20.58828">
        <ele>638.758222</ele>
        <time>2022-04-27T10:23:24.748Z</time>
      </trkpt>
      <trkpt lat="41.38035" lon="20.58836">
        <ele>639.174241</ele>
        <time>2022-04-27T10:23:27.770Z</time>
      </trkpt>
      <trkpt lat="41.38026" lon="20.58846">
        <ele>639.675507</ele>
        <time>2022-04-27T10:23:31.780Z</time>
      </trkpt>
      <trkpt lat="41.38017" lon="20.58856">
        <ele>640.171958</ele>
        <time>2022-04-27T10:23:35.763Z</time>
      </trkpt>
      <trkpt lat="41.38007" lon="20.58865">
        <ele>640.684256</ele>
        <time>2022-04-27T10:23:39.763Z</time>
      </trkpt>
      <trkpt lat="41.37999" lon="20.58872">
        <ele>641.118484</ele>
        <time>2022-04-27T10:23:42.771Z</time>
      </trkpt>
      <trkpt lat="41.37991" lon="20.58879">
        <ele>641.53638</ele>
        <time>2022-04-27T10:23:45.764Z</time>
      </trkpt>
      <trkpt lat="41.37982" lon="20.58886">
        <ele>641.983328</ele>
        <time>2022-04-27T10:23:48.758Z</time>
      </trkpt>
      <trkpt lat="41.37972" lon="20.58894">
        <ele>642.44626</ele>
        <time>2022-04-27T10:23:51.774Z</time>
      </trkpt>
      <trkpt lat="41.37963" lon="20.589">
        <ele>642.901237</ele>
        <time>2022-04-27T10:23:54.777Z</time>
      </trkpt>
      <trkpt lat="41.37953" lon="20.58908">
        <ele>643.383852</ele>
        <time>2022-04-27T10:23:57.765Z</time>
      </trkpt>
      <trkpt lat="41.37945" lon="20.58915">
        <ele>643.80325</ele>
        <time>2022-04-27T10:24:00.770Z</time>
      </trkpt>
      <trkpt lat="41.37935" lon="20.58923">
        <ele>644.303613</ele>
        <time>2022-04-27T10:24:03.760Z</time>
      </trkpt>
      <trkpt lat="41.37926" lon="20.58931">
        <ele>644.740544</ele>
        <time>2022-04-27T10:24:06.774Z</time>
      </trkpt>
      <trkpt lat="41.37917" lon="20.58938">
        <ele>645.009803</ele>
        <time>2022-04-27T10:24:09.765Z</time>
      </trkpt>
      <trkpt lat="41.37909" lon="20.58946">
        <ele>645.271585</ele>
        <time>2022-04-27T10:24:12.809Z</time>
      </trkpt>
      <trkpt lat="41.379" lon="20.58954">
        <ele>645.534247</ele>
        <time>2022-04-27T10:24:15.789Z</time>
      </trkpt>
      <trkpt lat="41.37891" lon="20.58961">
        <ele>645.809727</ele>
        <time>2022-04-27T10:24:18.771Z</time>
      </trkpt>
      <trkpt lat="41.37881" lon="20.5897">
        <ele>646.12878</ele>
        <time>2022-04-27T10:24:21.774Z</time>
      </trkpt>
      <trkpt lat="41.37871" lon="20.58981">
        <ele>646.454972</ele>
        <time>2022-04-27T10:24:24.776Z</time>
      </trkpt>
      <trkpt lat="41.37863" lon="20.58989">
        <ele>646.699703</ele>
        <time>2022-04-27T10:24:26.766Z</time>
      </trkpt>
      <trkpt lat="41.37855" lon="20.59">
        <ele>647.004311</ele>
        <time>2022-04-27T10:24:29.804Z</time>
      </trkpt>
      <trkpt lat="41.37847" lon="20.59012">
        <ele>647.29875</ele>
        <time>2022-04-27T10:24:32.762Z</time>
      </trkpt>
      <trkpt lat="41.3784" lon="20.59025">
        <ele>647.611662</ele>
        <time>2022-04-27T10:24:35.766Z</time>
      </trkpt>
      <trkpt lat="41.37833" lon="20.59038">
        <ele>647.917021</ele>
        <time>2022-04-27T10:24:38.768Z</time>
      </trkpt>
      <trkpt lat="41.37826" lon="20.5905">
        <ele>648.213167</ele>
        <time>2022-04-27T10:24:41.758Z</time>
      </trkpt>
      <trkpt lat="41.37819" lon="20.59062">
        <ele>648.503909</ele>
        <time>2022-04-27T10:24:44.756Z</time>
      </trkpt>
      <trkpt lat="41.37813" lon="20.59074">
        <ele>648.777189</ele>
        <time>2022-04-27T10:24:47.783Z</time>
      </trkpt>
      <trkpt lat="41.37809" lon="20.59087">
        <ele>649.059771</ele>
        <time>2022-04-27T10:24:50.758Z</time>
      </trkpt>
      <trkpt lat="41.37804" lon="20.591">
        <ele>649.264003</ele>
        <time>2022-04-27T10:24:53.752Z</time>
      </trkpt>
      <trkpt lat="41.37799" lon="20.59114">
        <ele>648.965122</ele>
        <time>2022-04-27T10:24:56.791Z</time>
      </trkpt>
      <trkpt lat="41.37794" lon="20.59128">
        <ele>648.665489</ele>
        <time>2022-04-27T10:24:59.781Z</time>
      </trkpt>
      <trkpt lat="41.37791" lon="20.59142">
        <ele>648.387897</ele>
        <time>2022-04-27T10:25:02.781Z</time>
      </trkpt>
      <trkpt lat="41.37788" lon="20.59157">
        <ele>648.084452</ele>
        <time>2022-04-27T10:25:05.780Z</time>
      </trkpt>
      <trkpt lat="41.37782" lon="20.59172">
        <ele>647.763269</ele>
        <time>2022-04-27T10:25:08.760Z</time>
      </trkpt>
      <trkpt lat="41.37776" lon="20.59184">
        <ele>647.457463</ele>
        <time>2022-04-27T10:25:11.746Z</time>
      </trkpt>
      <trkpt lat="41.37767" lon="20.59196">
        <ele>647.13703</ele>
        <time>2022-04-27T10:25:14.759Z</time>
      </trkpt>
      <trkpt lat="41.37757" lon="20.59208">
        <ele>646.801519</ele>
        <time>2022-04-27T10:25:17.747Z</time>
      </trkpt>
      <trkpt lat="41.37749" lon="20.59219">
        <ele>646.482533</ele>
        <time>2022-04-27T10:25:20.767Z</time>
      </trkpt>
      <trkpt lat="41.3774" lon="20.59232">
        <ele>646.140045</ele>
        <time>2022-04-27T10:25:23.746Z</time>
      </trkpt>
      <trkpt lat="41.37732" lon="20.59241">
        <ele>645.875759</ele>
        <time>2022-04-27T10:25:25.749Z</time>
      </trkpt>
      <trkpt lat="41.37726" lon="20.5925">
        <ele>645.640907</ele>
        <time>2022-04-27T10:25:27.735Z</time>
      </trkpt>
      <trkpt lat="41.37717" lon="20.59262">
        <ele>645.310855</ele>
        <time>2022-04-27T10:25:30.745Z</time>
      </trkpt>
      <trkpt lat="41.37707" lon="20.59273">
        <ele>644.972585</ele>
        <time>2022-04-27T10:25:33.740Z</time>
      </trkpt>
      <trkpt lat="41.37698" lon="20.59283">
        <ele>644.663209</ele>
        <time>2022-04-27T10:25:36.752Z</time>
      </trkpt>
      <trkpt lat="41.37689" lon="20.59293">
        <ele>644.726353</ele>
        <time>2022-04-27T10:25:39.747Z</time>
      </trkpt>
      <trkpt lat="41.37682" lon="20.593">
        <ele>644.816008</ele>
        <time>2022-04-27T10:25:41.741Z</time>
      </trkpt>
      <trkpt lat="41.37673" lon="20.59307">
        <ele>644.912316</ele>
        <time>2022-04-27T10:25:43.733Z</time>
      </trkpt>
      <trkpt lat="41.37665" lon="20.59314">
        <ele>645.004559</ele>
        <time>2022-04-27T10:25:45.757Z</time>
      </trkpt>
      <trkpt lat="41.37655" lon="20.59323">
        <ele>645.127879</ele>
        <time>2022-04-27T10:25:48.754Z</time>
      </trkpt>
      <trkpt lat="41.37645" lon="20.59334">
        <ele>645.252522</ele>
        <time>2022-04-27T10:25:51.738Z</time>
      </trkpt>
      <trkpt lat="41.37635" lon="20.59344">
        <ele>645.376317</ele>
        <time>2022-04-27T10:25:54.763Z</time>
      </trkpt>
      <trkpt lat="41.37627" lon="20.59351">
        <ele>645.476699</ele>
        <time>2022-04-27T10:25:57.740Z</time>
      </trkpt>
      <trkpt lat="41.37617" lon="20.5936">
        <ele>645.586529</ele>
        <time>2022-04-27T10:26:01.744Z</time>
      </trkpt>
      <trkpt lat="41.37608" lon="20.59368">
        <ele>645.693035</ele>
        <time>2022-04-27T10:26:04.758Z</time>
      </trkpt>
      <trkpt lat="41.37598" lon="20.59376">
        <ele>645.809468</ele>
        <time>2022-04-27T10:26:07.773Z</time>
      </trkpt>
      <trkpt lat="41.37588" lon="20.59384">
        <ele>645.926956</ele>
        <time>2022-04-27T10:26:10.743Z</time>
      </trkpt>
      <trkpt lat="41.3758" lon="20.59391">
        <ele>646.025269</ele>
        <time>2022-04-27T10:26:13.736Z</time>
      </trkpt>
      <trkpt lat="41.37571" lon="20.594">
        <ele>646.130561</ele>
        <time>2022-04-27T10:26:16.736Z</time>
      </trkpt>
      <trkpt lat="41.37561" lon="20.59409">
        <ele>646.250192</ele>
        <time>2022-04-27T10:26:19.740Z</time>
      </trkpt>
      <trkpt lat="41.3755" lon="20.59418">
        <ele>646.376883</ele>
        <time>2022-04-27T10:26:22.755Z</time>
      </trkpt>
      <trkpt lat="41.3754" lon="20.59424">
        <ele>646.722033</ele>
        <time>2022-04-27T10:26:24.737Z</time>
      </trkpt>
      <trkpt lat="41.3753" lon="20.59429">
        <ele>647.108973</ele>
        <time>2022-04-27T10:26:26.751Z</time>
      </trkpt>
      <trkpt lat="41.37519" lon="20.59433">
        <ele>647.520995</ele>
        <time>2022-04-27T10:26:28.743Z</time>
      </trkpt>
      <trkpt lat="41.3751" lon="20.59439">
        <ele>647.860047</ele>
        <time>2022-04-27T10:26:30.745Z</time>
      </trkpt>
      <trkpt lat="41.37501" lon="20.59454">
        <ele>648.370335</ele>
        <time>2022-04-27T10:26:33.737Z</time>
      </trkpt>
      <trkpt lat="41.37497" lon="20.59464">
        <ele>648.694905</ele>
        <time>2022-04-27T10:26:35.735Z</time>
      </trkpt>
      <trkpt lat="41.37488" lon="20.59473">
        <ele>649.073199</ele>
        <time>2022-04-27T10:26:38.750Z</time>
      </trkpt>
      <trkpt lat="41.3748" lon="20.59479">
        <ele>649.413121</ele>
        <time>2022-04-27T10:26:41.740Z</time>
      </trkpt>
      <trkpt lat="41.37472" lon="20.59485">
        <ele>649.746462</ele>
        <time>2022-04-27T10:26:44.760Z</time>
      </trkpt>
      <trkpt lat="41.37462" lon="20.59493">
        <ele>650.148653</ele>
        <time>2022-04-27T10:26:48.750Z</time>
      </trkpt>
      <trkpt lat="41.37454" lon="20.59503">
        <ele>650.539085</ele>
        <time>2022-04-27T10:26:53.740Z</time>
      </trkpt>
      <trkpt lat="41.37446" lon="20.59511">
        <ele>650.919221</ele>
        <time>2022-04-27T10:26:58.739Z</time>
      </trkpt>
      <trkpt lat="41.37437" lon="20.59519">
        <ele>651.288384</ele>
        <time>2022-04-27T10:27:03.736Z</time>
      </trkpt>
      <trkpt lat="41.37429" lon="20.59528">
        <ele>651.662211</ele>
        <time>2022-04-27T10:27:08.772Z</time>
      </trkpt>
      <trkpt lat="41.37422" lon="20.59538">
        <ele>652.045534</ele>
        <time>2022-04-27T10:27:13.747Z</time>
      </trkpt>
      <trkpt lat="41.37413" lon="20.59547">
        <ele>652.431416</ele>
        <time>2022-04-27T10:27:18.749Z</time>
      </trkpt>
      <trkpt lat="41.37404" lon="20.59554">
        <ele>652.807987</ele>
        <time>2022-04-27T10:27:23.743Z</time>
      </trkpt>
      <trkpt lat="41.37395" lon="20.59562">
        <ele>652.624639</ele>
        <time>2022-04-27T10:27:28.753Z</time>
      </trkpt>
      <trkpt lat="41.37386" lon="20.5957">
        <ele>652.404407</ele>
        <time>2022-04-27T10:27:33.745Z</time>
      </trkpt>
      <trkpt lat="41.37377" lon="20.59577">
        <ele>652.181242</ele>
        <time>2022-04-27T10:27:38.737Z</time>
      </trkpt>
      <trkpt lat="41.37367" lon="20.59582">
        <ele>651.958929</ele>
        <time>2022-04-27T10:27:42.738Z</time>
      </trkpt>
      <trkpt lat="41.37357" lon="20.59585">
        <ele>651.745596</ele>
        <time>2022-04-27T10:27:46.738Z</time>
      </trkpt>
      <trkpt lat="41.37347" lon="20.59589">
        <ele>651.545115</ele>
        <time>2022-04-27T10:27:50.744Z</time>
      </trkpt>
      <trkpt lat="41.37337" lon="20.59593">
        <ele>651.315952</ele>
        <time>2022-04-27T10:27:54.751Z</time>
      </trkpt>
      <trkpt lat="41.37326" lon="20.59596">
        <ele>651.099905</ele>
        <time>2022-04-27T10:27:58.743Z</time>
      </trkpt>
      <trkpt lat="41.37315" lon="20.59599">
        <ele>650.867084</ele>
        <time>2022-04-27T10:28:02.737Z</time>
      </trkpt>
      <trkpt lat="41.37304" lon="20.59601">
        <ele>650.625691</ele>
        <time>2022-04-27T10:28:06.753Z</time>
      </trkpt>
      <trkpt lat="41.37294" lon="20.59603">
        <ele>650.420932</ele>
        <time>2022-04-27T10:28:09.740Z</time>
      </trkpt>
      <trkpt lat="41.37283" lon="20.59604">
        <ele>650.198746</ele>
        <time>2022-04-27T10:28:12.740Z</time>
      </trkpt>
      <trkpt lat="41.37274" lon="20.59608">
        <ele>650.00336</ele>
        <time>2022-04-27T10:28:15.742Z</time>
      </trkpt>
      <trkpt lat="41.37266" lon="20.59615">
        <ele>649.795217</ele>
        <time>2022-04-27T10:28:18.751Z</time>
      </trkpt>
      <trkpt lat="41.37258" lon="20.59622">
        <ele>649.605717</ele>
        <time>2022-04-27T10:28:20.740Z</time>
      </trkpt>
      <trkpt lat="41.37249" lon="20.59628">
        <ele>649.390972</ele>
        <time>2022-04-27T10:28:22.738Z</time>
      </trkpt>
      <trkpt lat="41.37239" lon="20.59637">
        <ele>649.15286</ele>
        <time>2022-04-27T10:28:24.748Z</time>
      </trkpt>
      <trkpt lat="41.37231" lon="20.59646">
        <ele>648.876103</ele>
        <time>2022-04-27T10:28:26.738Z</time>
      </trkpt>
      <trkpt lat="41.37224" lon="20.59654">
        <ele>648.623695</ele>
        <time>2022-04-27T10:28:28.745Z</time>
      </trkpt>
      <trkpt lat="41.37216" lon="20.59663">
        <ele>648.34128</ele>
        <time>2022-04-27T10:28:30.747Z</time>
      </trkpt>
      <trkpt lat="41.37208" lon="20.59671">
        <ele>648.069951</ele>
        <time>2022-04-27T10:28:32.746Z</time>
      </trkpt>
      <trkpt lat="41.372" lon="20.5968">
        <ele>647.765945</ele>
        <time>2022-04-27T10:28:35.738Z</time>
      </trkpt>
      <trkpt lat="41.37189" lon="20.59688">
        <ele>647.428376</ele>
        <time>2022-04-27T10:28:38.737Z</time>
      </trkpt>
      <trkpt lat="41.37179" lon="20.59696">
        <ele>647.120772</ele>
        <time>2022-04-27T10:28:41.745Z</time>
      </trkpt>
      <trkpt lat="41.3717" lon="20.59703">
        <ele>646.820216</ele>
        <time>2022-04-27T10:28:44.743Z</time>
      </trkpt>
      <trkpt lat="41.37161" lon="20.59709">
        <ele>646.551685</ele>
        <time>2022-04-27T10:28:47.761Z</time>
      </trkpt>
      <trkpt lat="41.37152" lon="20.59712">
        <ele>646.299718</ele>
        <time>2022-04-27T10:28:50.755Z</time>
      </trkpt>
      <trkpt lat="41.37143" lon="20.59716">
        <ele>646.041284</ele>
        <time>2022-04-27T10:28:53.765Z</time>
      </trkpt>
      <trkpt lat="41.37133" lon="20.59722">
        <ele>645.731715</ele>
        <time>2022-04-27T10:28:57.743Z</time>
      </trkpt>
      <trkpt lat="41.37123" lon="20.59729">
        <ele>645.438839</ele>
        <time>2022-04-27T10:29:01.745Z</time>
      </trkpt>
      <trkpt lat="41.37114" lon="20.59736">
        <ele>645.160015</ele>
        <time>2022-04-27T10:29:05.734Z</time>
      </trkpt>
      <trkpt lat="41.37105" lon="20.59742">
        <ele>644.874725</ele>
        <time>2022-04-27T10:29:09.741Z</time>
      </trkpt>
      <trkpt lat="41.37096" lon="20.59747">
        <ele>644.595383</ele>
        <time>2022-04-27T10:29:12.743Z</time>
      </trkpt>
      <trkpt lat="41.37086" lon="20.59753">
        <ele>644.309356</ele>
        <time>2022-04-27T10:29:15.762Z</time>
      </trkpt>
      <trkpt lat="41.37077" lon="20.59758">
        <ele>644.053743</ele>
        <time>2022-04-27T10:29:18.739Z</time>
      </trkpt>
      <trkpt lat="41.37069" lon="20.59766">
        <ele>643.815543</ele>
        <time>2022-04-27T10:29:21.743Z</time>
      </trkpt>
      <trkpt lat="41.37061" lon="20.59773">
        <ele>643.572149</ele>
        <time>2022-04-27T10:29:24.747Z</time>
      </trkpt>
      <trkpt lat="41.37051" lon="20.59781">
        <ele>643.284897</ele>
        <time>2022-04-27T10:29:27.734Z</time>
      </trkpt>
      <trkpt lat="41.37043" lon="20.59792">
        <ele>643.003395</ele>
        <time>2022-04-27T10:29:30.739Z</time>
      </trkpt>
      <trkpt lat="41.37036" lon="20.598">
        <ele>642.779906</ele>
        <time>2022-04-27T10:29:32.745Z</time>
      </trkpt>
      <trkpt lat="41.37026" lon="20.59812">
        <ele>642.449914</ele>
        <time>2022-04-27T10:29:35.736Z</time>
      </trkpt>
      <trkpt lat="41.37019" lon="20.5982">
        <ele>642.219596</ele>
        <time>2022-04-27T10:29:37.740Z</time>
      </trkpt>
      <trkpt lat="41.37011" lon="20.59829">
        <ele>641.971582</ele>
        <time>2022-04-27T10:29:39.746Z</time>
      </trkpt>
      <trkpt lat="41.37003" lon="20.59839">
        <ele>641.702803</ele>
        <time>2022-04-27T10:29:41.741Z</time>
      </trkpt>
      <trkpt lat="41.36995" lon="20.59849">
        <ele>641.433328</ele>
        <time>2022-04-27T10:29:43.735Z</time>
      </trkpt>
      <trkpt lat="41.36989" lon="20.59859">
        <ele>641.192937</ele>
        <time>2022-04-27T10:29:45.743Z</time>
      </trkpt>
      <trkpt lat="41.36985" lon="20.59871">
        <ele>640.94942</ele>
        <time>2022-04-27T10:29:47.739Z</time>
      </trkpt>
      <trkpt lat="41.3698" lon="20.59883">
        <ele>640.701966</ele>
        <time>2022-04-27T10:29:49.742Z</time>
      </trkpt>
      <trkpt lat="41.36975" lon="20.59893">
        <ele>640.471374</ele>
        <time>2022-04-27T10:29:51.743Z</time>
      </trkpt>
      <trkpt lat="41.3697" lon="20.59904">
        <ele>640.242328</ele>
        <time>2022-04-27T10:29:53.732Z</time>
      </trkpt>
      <trkpt lat="41.36964" lon="20.59917">
        <ele>639.964374</ele>
        <time>2022-04-27T10:29:56.739Z</time>
      </trkpt>
      <trkpt lat="41.3696" lon="20.59931">
        <ele>639.656586</ele>
        <time>2022-04-27T10:29:59.773Z</time>
      </trkpt>
      <trkpt lat="41.36957" lon="20.59946">
        <ele>639.295814</ele>
        <time>2022-04-27T10:30:02.736Z</time>
      </trkpt>
      <trkpt lat="41.36954" lon="20.59959">
        <ele>638.993884</ele>
        <time>2022-04-27T10:30:05.737Z</time>
      </trkpt>
      <trkpt lat="41.36951" lon="20.59971">
        <ele>638.695718</ele>
        <time>2022-04-27T10:30:08.740Z</time>
      </trkpt>
      <trkpt lat="41.36948" lon="20.59986">
        <ele>638.351392</ele>
        <time>2022-04-27T10:30:11.740Z</time>
      </trkpt>
      <trkpt lat="41.36947" lon="20.60002">
        <ele>637.977119</ele>
        <time>2022-04-27T10:30:14.744Z</time>
      </trkpt>
      <trkpt lat="41.36944" lon="20.60017">
        <ele>637.612589</ele>
        <time>2022-04-27T10:30:17.740Z</time>
      </trkpt>
      <trkpt lat="41.36942" lon="20.60032">
        <ele>637.263778</ele>
        <time>2022-04-27T10:30:20.741Z</time>
      </trkpt>
      <trkpt lat="41.36942" lon="20.60046">
        <ele>636.938868</ele>
        <time>2022-04-27T10:30:23.746Z</time>
      </trkpt>
      <trkpt lat="41.36943" lon="20.6006">
        <ele>636.624665</ele>
        <time>2022-04-27T10:30:26.743Z</time>
      </trkpt>
      <trkpt lat="41.36942" lon="20.60073">
        <ele>636.323861</ele>
        <time>2022-04-27T10:30:29.738Z</time>
      </trkpt>
      <trkpt lat="41.36941" lon="20.60088">
        <ele>635.959011</ele>
        <time>2022-04-27T10:30:33.753Z</time>
      </trkpt>
      <trkpt lat="41.36939" lon="20.60102">
        <ele>635.643194</ele>
        <time>2022-04-27T10:30:36.738Z</time>
      </trkpt>
      <trkpt lat="41.36937" lon="20.60117">
        <ele>635.29854</ele>
        <time>2022-04-27T10:30:39.737Z</time>
      </trkpt>
      <trkpt lat="41.36937" lon="20.60131">
        <ele>634.976579</ele>
        <time>2022-04-27T10:30:42.742Z</time>
      </trkpt>
      <trkpt lat="41.36937" lon="20.60144">
        <ele>634.658743</ele>
        <time>2022-04-27T10:30:45.738Z</time>
      </trkpt>
      <trkpt lat="41.36934" lon="20.60157">
        <ele>634.3623</ele>
        <time>2022-04-27T10:30:48.763Z</time>
      </trkpt>
      <trkpt lat="41.36927" lon="20.6017">
        <ele>634.458329</ele>
        <time>2022-04-27T10:30:51.741Z</time>
      </trkpt>
      <trkpt lat="41.36919" lon="20.60182">
        <ele>634.700286</ele>
        <time>2022-04-27T10:30:54.756Z</time>
      </trkpt>
      <trkpt lat="41.36912" lon="20.60196">
        <ele>634.939999</ele>
        <time>2022-04-27T10:30:57.734Z</time>
      </trkpt>
      <trkpt lat="41.36903" lon="20.60208">
        <ele>635.184605</ele>
        <time>2022-04-27T10:31:00.741Z</time>
      </trkpt>
      <trkpt lat="41.36897" lon="20.60218">
        <ele>635.371169</ele>
        <time>2022-04-27T10:31:03.737Z</time>
      </trkpt>
      <trkpt lat="41.36891" lon="20.60226">
        <ele>635.548631</ele>
        <time>2022-04-27T10:31:06.739Z</time>
      </trkpt>
      <trkpt lat="41.36886" lon="20.60238">
        <ele>635.743841</ele>
        <time>2022-04-27T10:31:09.739Z</time>
      </trkpt>
      <trkpt lat="41.3688" lon="20.60249">
        <ele>635.939817</ele>
        <time>2022-04-27T10:31:12.739Z</time>
      </trkpt>
      <trkpt lat="41.36876" lon="20.60262">
        <ele>636.141122</ele>
        <time>2022-04-27T10:31:15.742Z</time>
      </trkpt>
      <trkpt lat="41.36872" lon="20.60276">
        <ele>636.360042</ele>
        <time>2022-04-27T10:31:18.745Z</time>
      </trkpt>
      <trkpt lat="41.36867" lon="20.60288">
        <ele>636.567431</ele>
        <time>2022-04-27T10:31:21.740Z</time>
      </trkpt>
      <trkpt lat="41.36862" lon="20.60301">
        <ele>636.782211</ele>
        <time>2022-04-27T10:31:24.737Z</time>
      </trkpt>
      <trkpt lat="41.36854" lon="20.60315">
        <ele>637.032397</ele>
        <time>2022-04-27T10:31:27.736Z</time>
      </trkpt>
      <trkpt lat="41.36848" lon="20.60325">
        <ele>637.218252</ele>
        <time>2022-04-27T10:31:29.740Z</time>
      </trkpt>
      <trkpt lat="41.36841" lon="20.60341">
        <ele>637.480365</ele>
        <time>2022-04-27T10:31:32.743Z</time>
      </trkpt>
      <trkpt lat="41.36836" lon="20.60352">
        <ele>637.684065</ele>
        <time>2022-04-27T10:31:35.735Z</time>
      </trkpt>
      <trkpt lat="41.36828" lon="20.60364">
        <ele>638.091623</ele>
        <time>2022-04-27T10:31:38.753Z</time>
      </trkpt>
      <trkpt lat="41.3682" lon="20.60375">
        <ele>638.688205</ele>
        <time>2022-04-27T10:31:41.739Z</time>
      </trkpt>
      <trkpt lat="41.36811" lon="20.60386">
        <ele>639.251507</ele>
        <time>2022-04-27T10:31:44.773Z</time>
      </trkpt>
      <trkpt lat="41.36801" lon="20.60394">
        <ele>639.833514</ele>
        <time>2022-04-27T10:31:47.737Z</time>
      </trkpt>
      <trkpt lat="41.36793" lon="20.60402">
        <ele>640.288963</ele>
        <time>2022-04-27T10:31:50.744Z</time>
      </trkpt>
      <trkpt lat="41.36784" lon="20.60409">
        <ele>640.792652</ele>
        <time>2022-04-27T10:31:53.739Z</time>
      </trkpt>
      <trkpt lat="41.36776" lon="20.60415">
        <ele>641.247749</ele>
        <time>2022-04-27T10:31:56.739Z</time>
      </trkpt>
      <trkpt lat="41.36766" lon="20.6042">
        <ele>641.779433</ele>
        <time>2022-04-27T10:32:00.744Z</time>
      </trkpt>
      <trkpt lat="41.36754" lon="20.60423">
        <ele>642.355859</ele>
        <time>2022-04-27T10:32:04.745Z</time>
      </trkpt>
      <trkpt lat="41.36742" lon="20.60426">
        <ele>642.918025</ele>
        <time>2022-04-27T10:32:08.751Z</time>
      </trkpt>
      <trkpt lat="41.36731" lon="20.60429">
        <ele>643.449723</ele>
        <time>2022-04-27T10:32:12.736Z</time>
      </trkpt>
      <trkpt lat="41.36721" lon="20.6043">
        <ele>643.958673</ele>
        <time>2022-04-27T10:32:15.736Z</time>
      </trkpt>
      <trkpt lat="41.3671" lon="20.60432">
        <ele>644.497162</ele>
        <time>2022-04-27T10:32:19.740Z</time>
      </trkpt>
      <trkpt lat="41.36698" lon="20.60434">
        <ele>645.078763</ele>
        <time>2022-04-27T10:32:23.744Z</time>
      </trkpt>
      <trkpt lat="41.36686" lon="20.60437">
        <ele>645.666092</ele>
        <time>2022-04-27T10:32:26.743Z</time>
      </trkpt>
      <trkpt lat="41.36674" lon="20.60442">
        <ele>646.272525</ele>
        <time>2022-04-27T10:32:29.745Z</time>
      </trkpt>
      <trkpt lat="41.36663" lon="20.60449">
        <ele>646.61467</ele>
        <time>2022-04-27T10:32:32.771Z</time>
      </trkpt>
      <trkpt lat="41.36654" lon="20.60454">
        <ele>646.789801</ele>
        <time>2022-04-27T10:32:34.740Z</time>
      </trkpt>
      <trkpt lat="41.36646" lon="20.60459">
        <ele>646.959397</ele>
        <time>2022-04-27T10:32:36.738Z</time>
      </trkpt>
      <trkpt lat="41.36634" lon="20.60468">
        <ele>647.200786</ele>
        <time>2022-04-27T10:32:39.735Z</time>
      </trkpt>
      <trkpt lat="41.36626" lon="20.60472">
        <ele>647.378368</ele>
        <time>2022-04-27T10:32:41.748Z</time>
      </trkpt>
      <trkpt lat="41.36615" lon="20.60481">
        <ele>647.607023</ele>
        <time>2022-04-27T10:32:44.741Z</time>
      </trkpt>
      <trkpt lat="41.36603" lon="20.60488">
        <ele>647.858214</ele>
        <time>2022-04-27T10:32:47.739Z</time>
      </trkpt>
      <trkpt lat="41.36593" lon="20.60492">
        <ele>648.050258</ele>
        <time>2022-04-27T10:32:50.739Z</time>
      </trkpt>
      <trkpt lat="41.36584" lon="20.60496">
        <ele>648.225114</ele>
        <time>2022-04-27T10:32:54.739Z</time>
      </trkpt>
      <trkpt lat="41.36573" lon="20.60503">
        <ele>648.45699</ele>
        <time>2022-04-27T10:32:58.742Z</time>
      </trkpt>
      <trkpt lat="41.36563" lon="20.60506">
        <ele>648.648066</ele>
        <time>2022-04-27T10:33:01.745Z</time>
      </trkpt>
      <trkpt lat="41.36554" lon="20.60508">
        <ele>648.81828</ele>
        <time>2022-04-27T10:33:04.767Z</time>
      </trkpt>
      <trkpt lat="41.36544" lon="20.60509">
        <ele>648.993996</ele>
        <time>2022-04-27T10:33:08.742Z</time>
      </trkpt>
      <trkpt lat="41.36534" lon="20.60509">
        <ele>649.180804</ele>
        <time>2022-04-27T10:33:12.735Z</time>
      </trkpt>
      <trkpt lat="41.36525" lon="20.60507">
        <ele>649.349405</ele>
        <time>2022-04-27T10:33:15.734Z</time>
      </trkpt>
      <trkpt lat="41.36513" lon="20.60506">
        <ele>649.579953</ele>
        <time>2022-04-27T10:33:18.755Z</time>
      </trkpt>
      <trkpt lat="41.36501" lon="20.60503">
        <ele>649.803279</ele>
        <time>2022-04-27T10:33:21.765Z</time>
      </trkpt>
      <trkpt lat="41.3649" lon="20.60501">
        <ele>649.849329</ele>
        <time>2022-04-27T10:33:23.749Z</time>
      </trkpt>
      <trkpt lat="41.3648" lon="20.60499">
        <ele>649.896866</ele>
        <time>2022-04-27T10:33:25.735Z</time>
      </trkpt>
      <trkpt lat="41.36468" lon="20.60497">
        <ele>649.949075</ele>
        <time>2022-04-27T10:33:27.731Z</time>
      </trkpt>
      <trkpt lat="41.36457" lon="20.60494">
        <ele>649.997736</ele>
        <time>2022-04-27T10:33:29.738Z</time>
      </trkpt>
      <trkpt lat="41.36447" lon="20.60489">
        <ele>650.044681</ele>
        <time>2022-04-27T10:33:32.746Z</time>
      </trkpt>
      <trkpt lat="41.36439" lon="20.60481">
        <ele>650.088121</ele>
        <time>2022-04-27T10:33:35.734Z</time>
      </trkpt>
      <trkpt lat="41.3643" lon="20.60474">
        <ele>650.13371</ele>
        <time>2022-04-27T10:33:38.744Z</time>
      </trkpt>
      <trkpt lat="41.36421" lon="20.60471">
        <ele>650.174525</ele>
        <time>2022-04-27T10:33:40.738Z</time>
      </trkpt>
      <trkpt lat="41.36412" lon="20.60467">
        <ele>650.218242</ele>
        <time>2022-04-27T10:33:42.747Z</time>
      </trkpt>
      <trkpt lat="41.364" lon="20.6046">
        <ele>650.273462</ele>
        <time>2022-04-27T10:33:45.737Z</time>
      </trkpt>
      <trkpt lat="41.3639" lon="20.60455">
        <ele>650.322168</ele>
        <time>2022-04-27T10:33:48.737Z</time>
      </trkpt>
      <trkpt lat="41.3638" lon="20.60458">
        <ele>650.363702</ele>
        <time>2022-04-27T10:33:50.743Z</time>
      </trkpt>
      <trkpt lat="41.36368" lon="20.60453">
        <ele>650.420653</ele>
        <time>2022-04-27T10:33:53.747Z</time>
      </trkpt>
      <trkpt lat="41.36357" lon="20.60446">
        <ele>650.474307</ele>
        <time>2022-04-27T10:33:56.750Z</time>
      </trkpt>
      <trkpt lat="41.36347" lon="20.6044">
        <ele>650.519919</ele>
        <time>2022-04-27T10:33:59.744Z</time>
      </trkpt>
      <trkpt lat="41.36339" lon="20.60432">
        <ele>650.564413</ele>
        <time>2022-04-27T10:34:02.740Z</time>
      </trkpt>
      <trkpt lat="41.36331" lon="20.60424">
        <ele>650.568134</ele>
        <time>2022-04-27T10:34:05.733Z</time>
      </trkpt>
      <trkpt lat="41.36323" lon="20.60416">
        <ele>650.521854</ele>
        <time>2022-04-27T10:34:08.747Z</time>
      </trkpt>
      <trkpt lat="41.36312" lon="20.60413">
        <ele>650.472835</ele>
        <time>2022-04-27T10:34:11.737Z</time>
      </trkpt>
      <trkpt lat="41.36299" lon="20.6041">
        <ele>650.414976</ele>
        <time>2022-04-27T10:34:14.741Z</time>
      </trkpt>
      <trkpt lat="41.36288" lon="20.60408">
        <ele>650.363701</ele>
        <time>2022-04-27T10:34:17.759Z</time>
      </trkpt>
      <trkpt lat="41.36276" lon="20.60408">
        <ele>650.313648</ele>
        <time>2022-04-27T10:34:20.739Z</time>
      </trkpt>
      <trkpt lat="41.36266" lon="20.60406">
        <ele>650.268621</ele>
        <time>2022-04-27T10:34:23.738Z</time>
      </trkpt>
      <trkpt lat="41.36255" lon="20.60403">
        <ele>650.216344</ele>
        <time>2022-04-27T10:34:27.735Z</time>
      </trkpt>
      <trkpt lat="41.36245" lon="20.60399">
        <ele>650.169127</ele>
        <time>2022-04-27T10:34:30.744Z</time>
      </trkpt>
      <trkpt lat="41.36235" lon="20.60392">
        <ele>650.118425</ele>
        <time>2022-04-27T10:34:33.746Z</time>
      </trkpt>
      <trkpt lat="41.36228" lon="20.60382">
        <ele>650.07294</ele>
        <time>2022-04-27T10:34:36.755Z</time>
      </trkpt>
      <trkpt lat="41.36221" lon="20.60374">
        <ele>650.032181</ele>
        <time>2022-04-27T10:34:39.767Z</time>
      </trkpt>
      <trkpt lat="41.36215" lon="20.6036">
        <ele>649.977605</ele>
        <time>2022-04-27T10:34:43.733Z</time>
      </trkpt>
      <trkpt lat="41.3621" lon="20.60349">
        <ele>649.932518</ele>
        <time>2022-04-27T10:34:46.745Z</time>
      </trkpt>
      <trkpt lat="41.36203" lon="20.60339">
        <ele>649.88733</ele>
        <time>2022-04-27T10:34:49.734Z</time>
      </trkpt>
      <trkpt lat="41.36196" lon="20.60329">
        <ele>649.842284</ele>
        <time>2022-04-27T10:34:52.744Z</time>
      </trkpt>
      <trkpt lat="41.36189" lon="20.6032">
        <ele>649.79887</ele>
        <time>2022-04-27T10:34:55.734Z</time>
      </trkpt>
      <trkpt lat="41.36181" lon="20.60312">
        <ele>649.625516</ele>
        <time>2022-04-27T10:34:58.745Z</time>
      </trkpt>
      <trkpt lat="41.36174" lon="20.60305">
        <ele>649.395997</ele>
        <time>2022-04-27T10:35:01.769Z</time>
      </trkpt>
      <trkpt lat="41.36164" lon="20.60299">
        <ele>649.148803</ele>
        <time>2022-04-27T10:35:04.738Z</time>
      </trkpt>
      <trkpt lat="41.36153" lon="20.60296">
        <ele>648.867855</ele>
        <time>2022-04-27T10:35:08.743Z</time>
      </trkpt>
      <trkpt lat="41.36141" lon="20.60296">
        <ele>648.575927</ele>
        <time>2022-04-27T10:35:12.772Z</time>
      </trkpt>
      <trkpt lat="41.36132" lon="20.60296">
        <ele>648.338138</ele>
        <time>2022-04-27T10:35:15.742Z</time>
      </trkpt>
      <trkpt lat="41.3612" lon="20.60297">
        <ele>648.043272</ele>
        <time>2022-04-27T10:35:19.739Z</time>
      </trkpt>
      <trkpt lat="41.36109" lon="20.60298">
        <ele>647.768558</ele>
        <time>2022-04-27T10:35:22.739Z</time>
      </trkpt>
      <trkpt lat="41.36099" lon="20.60298">
        <ele>647.540568</ele>
        <time>2022-04-27T10:35:25.744Z</time>
      </trkpt>
      <trkpt lat="41.36088" lon="20.60297">
        <ele>647.255911</ele>
        <time>2022-04-27T10:35:29.744Z</time>
      </trkpt>
      <trkpt lat="41.36075" lon="20.60296">
        <ele>646.949035</ele>
        <time>2022-04-27T10:35:32.760Z</time>
      </trkpt>
      <trkpt lat="41.36063" lon="20.60298">
        <ele>646.643808</ele>
        <time>2022-04-27T10:35:34.757Z</time>
      </trkpt>
      <trkpt lat="41.36052" lon="20.60301">
        <ele>646.378022</ele>
        <time>2022-04-27T10:35:36.742Z</time>
      </trkpt>
      <trkpt lat="41.36039" lon="20.60303">
        <ele>646.060741</ele>
        <time>2022-04-27T10:35:39.742Z</time>
      </trkpt>
      <trkpt lat="41.36026" lon="20.60302">
        <ele>645.744459</ele>
        <time>2022-04-27T10:35:42.739Z</time>
      </trkpt>
      <trkpt lat="41.36014" lon="20.60302">
        <ele>645.440459</ele>
        <time>2022-04-27T10:35:45.737Z</time>
      </trkpt>
      <trkpt lat="41.36002" lon="20.60305">
        <ele>645.49158</ele>
        <time>2022-04-27T10:35:48.745Z</time>
      </trkpt>
      <trkpt lat="41.35993" lon="20.60307">
        <ele>645.600321</ele>
        <time>2022-04-27T10:35:50.749Z</time>
      </trkpt>
      <trkpt lat="41.3598" lon="20.60311">
        <ele>645.752164</ele>
        <time>2022-04-27T10:35:53.743Z</time>
      </trkpt>
      <trkpt lat="41.35972" lon="20.60314">
        <ele>645.859492</ele>
        <time>2022-04-27T10:35:55.742Z</time>
      </trkpt>
      <trkpt lat="41.3596" lon="20.60319">
        <ele>646.00848</ele>
        <time>2022-04-27T10:35:58.736Z</time>
      </trkpt>
      <trkpt lat="41.35948" lon="20.60327">
        <ele>646.16424</ele>
        <time>2022-04-27T10:36:01.738Z</time>
      </trkpt>
      <trkpt lat="41.35939" lon="20.60332">
        <ele>646.278715</ele>
        <time>2022-04-27T10:36:03.745Z</time>
      </trkpt>
      <trkpt lat="41.35932" lon="20.60339">
        <ele>646.390796</ele>
        <time>2022-04-27T10:36:05.733Z</time>
      </trkpt>
      <trkpt lat="41.35924" lon="20.60348">
        <ele>646.509312</ele>
        <time>2022-04-27T10:36:07.744Z</time>
      </trkpt>
      <trkpt lat="41.35917" lon="20.60362">
        <ele>646.660982</ele>
        <time>2022-04-27T10:36:10.742Z</time>
      </trkpt>
      <trkpt lat="41.35911" lon="20.60375">
        <ele>646.792197</ele>
        <time>2022-04-27T10:36:13.736Z</time>
      </trkpt>
      <trkpt lat="41.35906" lon="20.60389">
        <ele>646.940727</ele>
        <time>2022-04-27T10:36:16.745Z</time>
      </trkpt>
      <trkpt lat="41.35901" lon="20.60403">
        <ele>647.07408</ele>
        <time>2022-04-27T10:36:19.763Z</time>
      </trkpt>
      <trkpt lat="41.35897" lon="20.60414">
        <ele>647.185276</ele>
        <time>2022-04-27T10:36:22.755Z</time>
      </trkpt>
      <trkpt lat="41.35892" lon="20.60425">
        <ele>647.301845</ele>
        <time>2022-04-27T10:36:25.745Z</time>
      </trkpt>
      <trkpt lat="41.35886" lon="20.60436">
        <ele>647.422319</ele>
        <time>2022-04-27T10:36:28.748Z</time>
      </trkpt>
      <trkpt lat="41.3588" lon="20.60447">
        <ele>647.508974</ele>
        <time>2022-04-27T10:36:31.739Z</time>
      </trkpt>
      <trkpt lat="41.35873" lon="20.60458">
        <ele>647.447622</ele>
        <time>2022-04-27T10:36:35.734Z</time>
      </trkpt>
      <trkpt lat="41.35867" lon="20.60468">
        <ele>647.39362</ele>
        <time>2022-04-27T10:36:38.773Z</time>
      </trkpt>
      <trkpt lat="41.35862" lon="20.60479">
        <ele>647.337302</ele>
        <time>2022-04-27T10:36:41.759Z</time>
      </trkpt>
      <trkpt lat="41.35854" lon="20.60491">
        <ele>647.270784</ele>
        <time>2022-04-27T10:36:44.763Z</time>
      </trkpt>
      <trkpt lat="41.35847" lon="20.60505">
        <ele>647.200338</ele>
        <time>2022-04-27T10:36:47.735Z</time>
      </trkpt>
      <trkpt lat="41.3584" lon="20.60514">
        <ele>647.149178</ele>
        <time>2022-04-27T10:36:49.737Z</time>
      </trkpt>
      <trkpt lat="41.35832" lon="20.60527">
        <ele>647.078674</ele>
        <time>2022-04-27T10:36:52.772Z</time>
      </trkpt>
      <trkpt lat="41.35825" lon="20.6054">
        <ele>647.006224</ele>
        <time>2022-04-27T10:36:55.738Z</time>
      </trkpt>
      <trkpt lat="41.35816" lon="20.60554">
        <ele>646.931386</ele>
        <time>2022-04-27T10:36:58.737Z</time>
      </trkpt>
      <trkpt lat="41.35811" lon="20.60564">
        <ele>646.879151</ele>
        <time>2022-04-27T10:37:00.748Z</time>
      </trkpt>
      <trkpt lat="41.35804" lon="20.60579">
        <ele>646.807702</ele>
        <time>2022-04-27T10:37:03.764Z</time>
      </trkpt>
      <trkpt lat="41.358" lon="20.60593">
        <ele>646.744081</ele>
        <time>2022-04-27T10:37:06.738Z</time>
      </trkpt>
      <trkpt lat="41.35794" lon="20.60607">
        <ele>646.677755</ele>
        <time>2022-04-27T10:37:09.732Z</time>
      </trkpt>
      <trkpt lat="41.35788" lon="20.60619">
        <ele>646.613923</ele>
        <time>2022-04-27T10:37:12.735Z</time>
      </trkpt>
      <trkpt lat="41.35781" lon="20.60631">
        <ele>646.549542</ele>
        <time>2022-04-27T10:37:15.741Z</time>
      </trkpt>
      <trkpt lat="41.35775" lon="20.60643">
        <ele>646.712052</ele>
        <time>2022-04-27T10:37:18.740Z</time>
      </trkpt>
      <trkpt lat="41.35768" lon="20.60654">
        <ele>647.278567</ele>
        <time>2022-04-27T10:37:21.749Z</time>
      </trkpt>
      <trkpt lat="41.35761" lon="20.60664">
        <ele>647.816276</ele>
        <time>2022-04-27T10:37:24.737Z</time>
      </trkpt>
      <trkpt lat="41.35754" lon="20.60675">
        <ele>648.408568</ele>
        <time>2022-04-27T10:37:27.733Z</time>
      </trkpt>
      <trkpt lat="41.35745" lon="20.60688">
        <ele>649.072599</ele>
        <time>2022-04-27T10:37:30.761Z</time>
      </trkpt>
      <trkpt lat="41.35736" lon="20.60699">
        <ele>649.735344</ele>
        <time>2022-04-27T10:37:33.744Z</time>
      </trkpt>
      <trkpt lat="41.35726" lon="20.6071">
        <ele>650.433884</ele>
        <time>2022-04-27T10:37:36.765Z</time>
      </trkpt>
      <trkpt lat="41.35716" lon="20.60721">
        <ele>651.087647</ele>
        <time>2022-04-27T10:37:39.752Z</time>
      </trkpt>
      <trkpt lat="41.35707" lon="20.60731">
        <ele>651.746309</ele>
        <time>2022-04-27T10:37:42.737Z</time>
      </trkpt>
      <trkpt lat="41.35698" lon="20.60741">
        <ele>652.374708</ele>
        <time>2022-04-27T10:37:45.733Z</time>
      </trkpt>
      <trkpt lat="41.35688" lon="20.60751">
        <ele>653.024308</ele>
        <time>2022-04-27T10:37:48.750Z</time>
      </trkpt>
      <trkpt lat="41.35678" lon="20.60761">
        <ele>653.648694</ele>
        <time>2022-04-27T10:37:51.736Z</time>
      </trkpt>
      <trkpt lat="41.35669" lon="20.6077">
        <ele>654.254388</ele>
        <time>2022-04-27T10:37:54.748Z</time>
      </trkpt>
      <trkpt lat="41.35662" lon="20.60779">
        <ele>654.804921</ele>
        <time>2022-04-27T10:37:57.739Z</time>
      </trkpt>
      <trkpt lat="41.35653" lon="20.60788">
        <ele>655.376842</ele>
        <time>2022-04-27T10:38:00.747Z</time>
      </trkpt>
      <trkpt lat="41.35645" lon="20.60796">
        <ele>655.883227</ele>
        <time>2022-04-27T10:38:03.736Z</time>
      </trkpt>
      <trkpt lat="41.35636" lon="20.60806">
        <ele>655.765513</ele>
        <time>2022-04-27T10:38:07.737Z</time>
      </trkpt>
      <trkpt lat="41.3563" lon="20.60814">
        <ele>655.483963</ele>
        <time>2022-04-27T10:38:10.742Z</time>
      </trkpt>
      <trkpt lat="41.3562" lon="20.60824">
        <ele>655.124148</ele>
        <time>2022-04-27T10:38:14.743Z</time>
      </trkpt>
      <trkpt lat="41.35611" lon="20.60833">
        <ele>654.773287</ele>
        <time>2022-04-27T10:38:18.739Z</time>
      </trkpt>
      <trkpt lat="41.35604" lon="20.60841">
        <ele>654.487237</ele>
        <time>2022-04-27T10:38:21.738Z</time>
      </trkpt>
      <trkpt lat="41.35595" lon="20.60849">
        <ele>654.157231</ele>
        <time>2022-04-27T10:38:24.740Z</time>
      </trkpt>
      <trkpt lat="41.35586" lon="20.60858">
        <ele>653.818042</ele>
        <time>2022-04-27T10:38:27.734Z</time>
      </trkpt>
      <trkpt lat="41.35578" lon="20.60867">
        <ele>653.510741</ele>
        <time>2022-04-27T10:38:30.741Z</time>
      </trkpt>
      <trkpt lat="41.3557" lon="20.60875">
        <ele>653.211905</ele>
        <time>2022-04-27T10:38:33.741Z</time>
      </trkpt>
      <trkpt lat="41.35562" lon="20.60883">
        <ele>652.903212</ele>
        <time>2022-04-27T10:38:36.739Z</time>
      </trkpt>
      <trkpt lat="41.35554" lon="20.6089">
        <ele>652.622126</ele>
        <time>2022-04-27T10:38:39.734Z</time>
      </trkpt>
      <trkpt lat="41.35546" lon="20.60901">
        <ele>652.285449</ele>
        <time>2022-04-27T10:38:43.744Z</time>
      </trkpt>
      <trkpt lat="41.35543" lon="20.60912">
        <ele>651.993782</ele>
        <time>2022-04-27T10:38:46.744Z</time>
      </trkpt>
      <trkpt lat="41.35539" lon="20.60924">
        <ele>651.704507</ele>
        <time>2022-04-27T10:38:50.744Z</time>
      </trkpt>
      <trkpt lat="41.35527" lon="20.6093">
        <ele>651.321207</ele>
        <time>2022-04-27T10:40:06.753Z</time>
      </trkpt>
      <trkpt lat="41.35521" lon="20.60949">
        <ele>650.85716</ele>
        <time>2022-04-27T10:40:48.753Z</time>
      </trkpt>
      <trkpt lat="41.35523" lon="20.60937">
        <ele>650.606894</ele>
        <time>2022-04-27T11:04:28.757Z</time>
      </trkpt>
      <trkpt lat="41.35516" lon="20.60954">
        <ele>651.51331</ele>
        <time>2022-04-27T11:07:38.739Z</time>
      </trkpt>
      <trkpt lat="41.35511" lon="20.60969">
        <ele>652.239473</ele>
        <time>2022-04-27T11:07:42.747Z</time>
      </trkpt>
      <trkpt lat="41.35507" lon="20.60982">
        <ele>652.918824</ele>
        <time>2022-04-27T11:07:46.739Z</time>
      </trkpt>
      <trkpt lat="41.35503" lon="20.60997">
        <ele>653.622998</ele>
        <time>2022-04-27T11:07:51.742Z</time>
      </trkpt>
      <trkpt lat="41.35498" lon="20.6101">
        <ele>654.308695</ele>
        <time>2022-04-27T11:07:55.743Z</time>
      </trkpt>
      <trkpt lat="41.35493" lon="20.61024">
        <ele>654.989045</ele>
        <time>2022-04-27T11:07:59.740Z</time>
      </trkpt>
      <trkpt lat="41.35488" lon="20.61034">
        <ele>655.553171</ele>
        <time>2022-04-27T11:08:02.744Z</time>
      </trkpt>
      <trkpt lat="41.35484" lon="20.61048">
        <ele>656.259459</ele>
        <time>2022-04-27T11:08:06.742Z</time>
      </trkpt>
      <trkpt lat="41.3548" lon="20.61059">
        <ele>656.809329</ele>
        <time>2022-04-27T11:08:09.738Z</time>
      </trkpt>
      <trkpt lat="41.35476" lon="20.61072">
        <ele>657.457366</ele>
        <time>2022-04-27T11:08:13.738Z</time>
      </trkpt>
      <trkpt lat="41.35473" lon="20.61084">
        <ele>658.015071</ele>
        <time>2022-04-27T11:08:16.768Z</time>
      </trkpt>
      <trkpt lat="41.3547" lon="20.61096">
        <ele>658.615499</ele>
        <time>2022-04-27T11:08:19.737Z</time>
      </trkpt>
      <trkpt lat="41.35467" lon="20.61108">
        <ele>659.201108</ele>
        <time>2022-04-27T11:08:22.738Z</time>
      </trkpt>
      <trkpt lat="41.35465" lon="20.61121">
        <ele>659.780598</ele>
        <time>2022-04-27T11:08:25.749Z</time>
      </trkpt>
      <trkpt lat="41.35463" lon="20.61135">
        <ele>660.466279</ele>
        <time>2022-04-27T11:08:29.740Z</time>
      </trkpt>
      <trkpt lat="41.3546" lon="20.6115">
        <ele>661.164576</ele>
        <time>2022-04-27T11:08:33.739Z</time>
      </trkpt>
      <trkpt lat="41.3546" lon="20.61163">
        <ele>661.633461</ele>
        <time>2022-04-27T11:08:36.738Z</time>
      </trkpt>
      <trkpt lat="41.35459" lon="20.61177">
        <ele>661.899838</ele>
        <time>2022-04-27T11:08:40.739Z</time>
      </trkpt>
      <trkpt lat="41.35459" lon="20.6119">
        <ele>662.127507</ele>
        <time>2022-04-27T11:08:43.735Z</time>
      </trkpt>
      <trkpt lat="41.35458" lon="20.61203">
        <ele>662.365132</ele>
        <time>2022-04-27T11:08:46.733Z</time>
      </trkpt>
      <trkpt lat="41.35456" lon="20.61216">
        <ele>662.60207</ele>
        <time>2022-04-27T11:08:49.744Z</time>
      </trkpt>
      <trkpt lat="41.35454" lon="20.61229">
        <ele>662.82749</ele>
        <time>2022-04-27T11:08:52.748Z</time>
      </trkpt>
      <trkpt lat="41.35453" lon="20.6124">
        <ele>663.043159</ele>
        <time>2022-04-27T11:08:55.768Z</time>
      </trkpt>
      <trkpt lat="41.35452" lon="20.61253">
        <ele>663.262724</ele>
        <time>2022-04-27T11:08:58.743Z</time>
      </trkpt>
      <trkpt lat="41.3545" lon="20.61266">
        <ele>663.498652</ele>
        <time>2022-04-27T11:09:01.732Z</time>
      </trkpt>
      <trkpt lat="41.35449" lon="20.61281">
        <ele>663.774986</ele>
        <time>2022-04-27T11:09:04.729Z</time>
      </trkpt>
      <trkpt lat="41.35447" lon="20.61297">
        <ele>664.065009</ele>
        <time>2022-04-27T11:09:07.738Z</time>
      </trkpt>
      <trkpt lat="41.35446" lon="20.61312">
        <ele>664.345071</ele>
        <time>2022-04-27T11:09:10.734Z</time>
      </trkpt>
      <trkpt lat="41.35443" lon="20.61327">
        <ele>664.620804</ele>
        <time>2022-04-27T11:09:13.741Z</time>
      </trkpt>
      <trkpt lat="41.35443" lon="20.61343">
        <ele>664.897293</ele>
        <time>2022-04-27T11:09:16.732Z</time>
      </trkpt>
      <trkpt lat="41.35439" lon="20.61357">
        <ele>665.167271</ele>
        <time>2022-04-27T11:09:19.739Z</time>
      </trkpt>
      <trkpt lat="41.35436" lon="20.61372">
        <ele>665.445293</ele>
        <time>2022-04-27T11:09:22.736Z</time>
      </trkpt>
      <trkpt lat="41.35433" lon="20.61388">
        <ele>665.738364</ele>
        <time>2022-04-27T11:09:25.761Z</time>
      </trkpt>
      <trkpt lat="41.35429" lon="20.61403">
        <ele>665.899458</ele>
        <time>2022-04-27T11:09:28.769Z</time>
      </trkpt>
      <trkpt lat="41.35424" lon="20.61417">
        <ele>665.962499</ele>
        <time>2022-04-27T11:09:31.737Z</time>
      </trkpt>
      <trkpt lat="41.3542" lon="20.6143">
        <ele>666.018414</ele>
        <time>2022-04-27T11:09:34.729Z</time>
      </trkpt>
      <trkpt lat="41.35414" lon="20.61443">
        <ele>666.076391</ele>
        <time>2022-04-27T11:09:37.741Z</time>
      </trkpt>
      <trkpt lat="41.35408" lon="20.61455">
        <ele>666.133299</ele>
        <time>2022-04-27T11:09:40.742Z</time>
      </trkpt>
      <trkpt lat="41.35403" lon="20.61466">
        <ele>666.185191</ele>
        <time>2022-04-27T11:09:43.736Z</time>
      </trkpt>
      <trkpt lat="41.35398" lon="20.61477">
        <ele>666.236404</ele>
        <time>2022-04-27T11:09:46.737Z</time>
      </trkpt>
      <trkpt lat="41.35393" lon="20.61487">
        <ele>666.285523</ele>
        <time>2022-04-27T11:09:49.752Z</time>
      </trkpt>
      <trkpt lat="41.35386" lon="20.615">
        <ele>666.3481</ele>
        <time>2022-04-27T11:09:53.738Z</time>
      </trkpt>
      <trkpt lat="41.35381" lon="20.61512">
        <ele>666.405606</ele>
        <time>2022-04-27T11:09:57.742Z</time>
      </trkpt>
      <trkpt lat="41.35376" lon="20.61525">
        <ele>666.463609</ele>
        <time>2022-04-27T11:10:01.741Z</time>
      </trkpt>
      <trkpt lat="41.3537" lon="20.61539">
        <ele>666.528288</ele>
        <time>2022-04-27T11:10:05.735Z</time>
      </trkpt>
      <trkpt lat="41.35366" lon="20.6155">
        <ele>666.576294</ele>
        <time>2022-04-27T11:10:08.732Z</time>
      </trkpt>
      <trkpt lat="41.35362" lon="20.61561">
        <ele>666.627165</ele>
        <time>2022-04-27T11:10:11.743Z</time>
      </trkpt>
      <trkpt lat="41.35357" lon="20.61574">
        <ele>666.683884</ele>
        <time>2022-04-27T11:10:14.739Z</time>
      </trkpt>
      <trkpt lat="41.35355" lon="20.61589">
        <ele>666.742276</ele>
        <time>2022-04-27T11:10:17.754Z</time>
      </trkpt>
      <trkpt lat="41.35352" lon="20.61606">
        <ele>666.814482</ele>
        <time>2022-04-27T11:10:20.737Z</time>
      </trkpt>
      <trkpt lat="41.3535" lon="20.61623">
        <ele>666.025839</ele>
        <time>2022-04-27T11:10:23.745Z</time>
      </trkpt>
      <trkpt lat="41.35344" lon="20.61638">
        <ele>665.192203</ele>
        <time>2022-04-27T11:10:26.736Z</time>
      </trkpt>
      <trkpt lat="41.35339" lon="20.61651">
        <ele>664.4213</ele>
        <time>2022-04-27T11:10:29.739Z</time>
      </trkpt>
      <trkpt lat="41.35335" lon="20.61665">
        <ele>663.654499</ele>
        <time>2022-04-27T11:10:32.748Z</time>
      </trkpt>
      <trkpt lat="41.35332" lon="20.61679">
        <ele>662.932898</ele>
        <time>2022-04-27T11:10:35.735Z</time>
      </trkpt>
      <trkpt lat="41.35328" lon="20.61691">
        <ele>662.279766</ele>
        <time>2022-04-27T11:10:38.740Z</time>
      </trkpt>
      <trkpt lat="41.35324" lon="20.61703">
        <ele>661.586152</ele>
        <time>2022-04-27T11:10:41.742Z</time>
      </trkpt>
      <trkpt lat="41.35318" lon="20.61717">
        <ele>660.758676</ele>
        <time>2022-04-27T11:10:44.740Z</time>
      </trkpt>
      <trkpt lat="41.35311" lon="20.6173">
        <ele>659.957357</ele>
        <time>2022-04-27T11:10:47.734Z</time>
      </trkpt>
      <trkpt lat="41.35305" lon="20.61739">
        <ele>659.319284</ele>
        <time>2022-04-27T11:10:49.736Z</time>
      </trkpt>
      <trkpt lat="41.35299" lon="20.61748">
        <ele>658.694405</ele>
        <time>2022-04-27T11:10:51.741Z</time>
      </trkpt>
      <trkpt lat="41.35292" lon="20.61761">
        <ele>657.883611</ele>
        <time>2022-04-27T11:10:54.738Z</time>
      </trkpt>
      <trkpt lat="41.35287" lon="20.61776">
        <ele>657.08618</ele>
        <time>2022-04-27T11:10:57.755Z</time>
      </trkpt>
      <trkpt lat="41.35286" lon="20.61788">
        <ele>656.462934</ele>
        <time>2022-04-27T11:10:59.745Z</time>
      </trkpt>
      <trkpt lat="41.35284" lon="20.61805">
        <ele>655.597012</ele>
        <time>2022-04-27T11:11:02.738Z</time>
      </trkpt>
      <trkpt lat="41.3528" lon="20.61819">
        <ele>654.827625</ele>
        <time>2022-04-27T11:11:05.740Z</time>
      </trkpt>
      <trkpt lat="41.35278" lon="20.61832">
        <ele>654.408669</ele>
        <time>2022-04-27T11:11:08.741Z</time>
      </trkpt>
      <trkpt lat="41.35275" lon="20.61844">
        <ele>654.145205</ele>
        <time>2022-04-27T11:11:11.745Z</time>
      </trkpt>
      <trkpt lat="41.35272" lon="20.61856">
        <ele>653.867998</ele>
        <time>2022-04-27T11:11:14.737Z</time>
      </trkpt>
      <trkpt lat="41.35269" lon="20.61868">
        <ele>653.59156</ele>
        <time>2022-04-27T11:11:17.749Z</time>
      </trkpt>
      <trkpt lat="41.35264" lon="20.6188">
        <ele>653.309237</ele>
        <time>2022-04-27T11:11:20.733Z</time>
      </trkpt>
      <trkpt lat="41.35258" lon="20.61891">
        <ele>652.99</ele>
        <time>2022-04-27T11:11:23.740Z</time>
      </trkpt>
      <trkpt lat="41.35251" lon="20.61903">
        <ele>652.681084</ele>
        <time>2022-04-27T11:11:26.732Z</time>
      </trkpt>
      <trkpt lat="41.35245" lon="20.61913">
        <ele>652.394766</ele>
        <time>2022-04-27T11:11:29.731Z</time>
      </trkpt>
      <trkpt lat="41.3524" lon="20.61924">
        <ele>652.114594</ele>
        <time>2022-04-27T11:11:32.741Z</time>
      </trkpt>
      <trkpt lat="41.35233" lon="20.61933">
        <ele>651.840619</ele>
        <time>2022-04-27T11:11:35.750Z</time>
      </trkpt>
      <trkpt lat="41.35224" lon="20.61944">
        <ele>651.494833</ele>
        <time>2022-04-27T11:11:38.732Z</time>
      </trkpt>
      <trkpt lat="41.35214" lon="20.61954">
        <ele>651.134775</ele>
        <time>2022-04-27T11:11:41.737Z</time>
      </trkpt>
      <trkpt lat="41.35205" lon="20.61963">
        <ele>650.797406</ele>
        <time>2022-04-27T11:11:44.732Z</time>
      </trkpt>
      <trkpt lat="41.35198" lon="20.61974">
        <ele>650.496568</ele>
        <time>2022-04-27T11:11:47.741Z</time>
      </trkpt>
      <trkpt lat="41.35191" lon="20.61984">
        <ele>650.187859</ele>
        <time>2022-04-27T11:11:50.750Z</time>
      </trkpt>
      <trkpt lat="41.35183" lon="20.61995">
        <ele>649.839377</ele>
        <time>2022-04-27T11:11:53.736Z</time>
      </trkpt>
      <trkpt lat="41.35174" lon="20.62005">
        <ele>649.500687</ele>
        <time>2022-04-27T11:11:56.732Z</time>
      </trkpt>
      <trkpt lat="41.35167" lon="20.62016">
        <ele>649.519122</ele>
        <time>2022-04-27T11:11:59.745Z</time>
      </trkpt>
      <trkpt lat="41.3516" lon="20.62025">
        <ele>649.639846</ele>
        <time>2022-04-27T11:12:02.740Z</time>
      </trkpt>
      <trkpt lat="41.35152" lon="20.62036">
        <ele>649.782865</ele>
        <time>2022-04-27T11:12:06.739Z</time>
      </trkpt>
      <trkpt lat="41.35145" lon="20.62044">
        <ele>649.896655</ele>
        <time>2022-04-27T11:12:09.740Z</time>
      </trkpt>
      <trkpt lat="41.35137" lon="20.62055">
        <ele>650.041361</ele>
        <time>2022-04-27T11:12:12.739Z</time>
      </trkpt>
      <trkpt lat="41.35127" lon="20.62066">
        <ele>650.196956</ele>
        <time>2022-04-27T11:12:15.735Z</time>
      </trkpt>
      <trkpt lat="41.35118" lon="20.62078">
        <ele>650.35351</ele>
        <time>2022-04-27T11:12:18.728Z</time>
      </trkpt>
      <trkpt lat="41.35108" lon="20.62086">
        <ele>650.493711</ele>
        <time>2022-04-27T11:12:21.746Z</time>
      </trkpt>
      <trkpt lat="41.351" lon="20.62094">
        <ele>650.622314</ele>
        <time>2022-04-27T11:12:24.748Z</time>
      </trkpt>
      <trkpt lat="41.35091" lon="20.62101">
        <ele>650.745605</ele>
        <time>2022-04-27T11:12:27.737Z</time>
      </trkpt>
      <trkpt lat="41.35083" lon="20.6211">
        <ele>650.879185</ele>
        <time>2022-04-27T11:12:31.735Z</time>
      </trkpt>
      <trkpt lat="41.35075" lon="20.62118">
        <ele>651.006047</ele>
        <time>2022-04-27T11:12:35.735Z</time>
      </trkpt>
      <trkpt lat="41.35066" lon="20.62127">
        <ele>651.143348</ele>
        <time>2022-04-27T11:12:39.741Z</time>
      </trkpt>
      <trkpt lat="41.35059" lon="20.62135">
        <ele>651.259284</ele>
        <time>2022-04-27T11:12:42.740Z</time>
      </trkpt>
      <trkpt lat="41.35049" lon="20.62145">
        <ele>651.406961</ele>
        <time>2022-04-27T11:12:45.737Z</time>
      </trkpt>
      <trkpt lat="41.3504" lon="20.62155">
        <ele>651.55335</ele>
        <time>2022-04-27T11:12:48.740Z</time>
      </trkpt>
      <trkpt lat="41.35033" lon="20.62164">
        <ele>651.740087</ele>
        <time>2022-04-27T11:12:51.737Z</time>
      </trkpt>
      <trkpt lat="41.35024" lon="20.62173">
        <ele>652.112575</ele>
        <time>2022-04-27T11:12:54.733Z</time>
      </trkpt>
      <trkpt lat="41.35014" lon="20.6218">
        <ele>652.511487</ele>
        <time>2022-04-27T11:12:57.738Z</time>
      </trkpt>
      <trkpt lat="41.35003" lon="20.62186">
        <ele>652.899933</ele>
        <time>2022-04-27T11:13:00.734Z</time>
      </trkpt>
      <trkpt lat="41.34995" lon="20.62192">
        <ele>653.212874</ele>
        <time>2022-04-27T11:13:03.736Z</time>
      </trkpt>
      <trkpt lat="41.34985" lon="20.62198">
        <ele>653.612777</ele>
        <time>2022-04-27T11:13:07.746Z</time>
      </trkpt>
      <trkpt lat="41.34973" lon="20.62201">
        <ele>654.039299</ele>
        <time>2022-04-27T11:13:10.731Z</time>
      </trkpt>
      <trkpt lat="41.34964" lon="20.62204">
        <ele>654.351626</ele>
        <time>2022-04-27T11:13:12.746Z</time>
      </trkpt>
      <trkpt lat="41.34954" lon="20.62211">
        <ele>654.741482</ele>
        <time>2022-04-27T11:13:15.738Z</time>
      </trkpt>
      <trkpt lat="41.34945" lon="20.6222">
        <ele>655.111976</ele>
        <time>2022-04-27T11:13:18.738Z</time>
      </trkpt>
      <trkpt lat="41.34938" lon="20.62231">
        <ele>655.494398</ele>
        <time>2022-04-27T11:13:21.742Z</time>
      </trkpt>
      <trkpt lat="41.34931" lon="20.62243">
        <ele>655.883274</ele>
        <time>2022-04-27T11:13:24.730Z</time>
      </trkpt>
      <trkpt lat="41.34926" lon="20.62258">
        <ele>656.321196</ele>
        <time>2022-04-27T11:13:27.747Z</time>
      </trkpt>
      <trkpt lat="41.3492" lon="20.62273">
        <ele>656.751808</ele>
        <time>2022-04-27T11:13:30.737Z</time>
      </trkpt>
      <trkpt lat="41.34916" lon="20.62287">
        <ele>657.152843</ele>
        <time>2022-04-27T11:13:33.738Z</time>
      </trkpt>
      <trkpt lat="41.34911" lon="20.62302">
        <ele>657.557985</ele>
        <time>2022-04-27T11:13:36.733Z</time>
      </trkpt>
      <trkpt lat="41.34907" lon="20.62315">
        <ele>658.115092</ele>
        <time>2022-04-27T11:13:39.736Z</time>
      </trkpt>
      <trkpt lat="41.34902" lon="20.62329">
        <ele>659.18076</ele>
        <time>2022-04-27T11:13:42.732Z</time>
      </trkpt>
      <trkpt lat="41.34896" lon="20.62342">
        <ele>660.146235</ele>
        <time>2022-04-27T11:13:45.737Z</time>
      </trkpt>
      <trkpt lat="41.34889" lon="20.62353">
        <ele>661.140527</ele>
        <time>2022-04-27T11:13:48.761Z</time>
      </trkpt>
      <trkpt lat="41.34882" lon="20.62362">
        <ele>662.050281</ele>
        <time>2022-04-27T11:13:51.746Z</time>
      </trkpt>
      <trkpt lat="41.34872" lon="20.6237">
        <ele>663.118716</ele>
        <time>2022-04-27T11:13:55.735Z</time>
      </trkpt>
      <trkpt lat="41.34862" lon="20.62377">
        <ele>664.198928</ele>
        <time>2022-04-27T11:13:59.771Z</time>
      </trkpt>
      <trkpt lat="41.34852" lon="20.62381">
        <ele>665.148194</ele>
        <time>2022-04-27T11:14:02.734Z</time>
      </trkpt>
      <trkpt lat="41.34842" lon="20.62386">
        <ele>666.075516</ele>
        <time>2022-04-27T11:14:05.737Z</time>
      </trkpt>
      <trkpt lat="41.34834" lon="20.62391">
        <ele>666.918658</ele>
        <time>2022-04-27T11:14:08.735Z</time>
      </trkpt>
      <trkpt lat="41.34824" lon="20.62395">
        <ele>667.821378</ele>
        <time>2022-04-27T11:14:11.738Z</time>
      </trkpt>
      <trkpt lat="41.34816" lon="20.624">
        <ele>668.675428</ele>
        <time>2022-04-27T11:14:14.732Z</time>
      </trkpt>
      <trkpt lat="41.34805" lon="20.62405">
        <ele>669.716605</ele>
        <time>2022-04-27T11:14:18.739Z</time>
      </trkpt>
      <trkpt lat="41.34797" lon="20.62411">
        <ele>670.545503</ele>
        <time>2022-04-27T11:14:21.774Z</time>
      </trkpt>
      <trkpt lat="41.34788" lon="20.62417">
        <ele>671.442537</ele>
        <time>2022-04-27T11:14:24.734Z</time>
      </trkpt>
      <trkpt lat="41.34778" lon="20.62423">
        <ele>672.501385</ele>
        <time>2022-04-27T11:14:28.737Z</time>
      </trkpt>
      <trkpt lat="41.34769" lon="20.62427">
        <ele>673.333796</ele>
        <time>2022-04-27T11:14:31.735Z</time>
      </trkpt>
      <trkpt lat="41.34761" lon="20.62432">
        <ele>674.15779</ele>
        <time>2022-04-27T11:14:34.732Z</time>
      </trkpt>
      <trkpt lat="41.3475" lon="20.62438">
        <ele>675.336385</ele>
        <time>2022-04-27T11:14:38.737Z</time>
      </trkpt>
      <trkpt lat="41.34741" lon="20.62441">
        <ele>676.330553</ele>
        <time>2022-04-27T11:14:42.730Z</time>
      </trkpt>
      <trkpt lat="41.34732" lon="20.62447">
        <ele>677.40495</ele>
        <time>2022-04-27T11:14:46.744Z</time>
      </trkpt>
      <trkpt lat="41.34723" lon="20.62453">
        <ele>678.46975</ele>
        <time>2022-04-27T11:14:50.749Z</time>
      </trkpt>
      <trkpt lat="41.34715" lon="20.62457">
        <ele>679.449913</ele>
        <time>2022-04-27T11:14:53.740Z</time>
      </trkpt>
      <trkpt lat="41.34705" lon="20.62463">
        <ele>680.598559</ele>
        <time>2022-04-27T11:14:56.742Z</time>
      </trkpt>
      <trkpt lat="41.34696" lon="20.62469">
        <ele>681.676433</ele>
        <time>2022-04-27T11:14:59.735Z</time>
      </trkpt>
      <trkpt lat="41.34686" lon="20.62474">
        <ele>682.826796</ele>
        <time>2022-04-27T11:15:02.745Z</time>
      </trkpt>
      <trkpt lat="41.34676" lon="20.6248">
        <ele>683.989203</ele>
        <time>2022-04-27T11:15:05.742Z</time>
      </trkpt>
      <trkpt lat="41.34668" lon="20.62486">
        <ele>684.964851</ele>
        <time>2022-04-27T11:15:08.738Z</time>
      </trkpt>
      <trkpt lat="41.34659" lon="20.62493">
        <ele>686.073964</ele>
        <time>2022-04-27T11:15:12.733Z</time>
      </trkpt>
      <trkpt lat="41.3465" lon="20.62498">
        <ele>687.144937</ele>
        <time>2022-04-27T11:15:16.741Z</time>
      </trkpt>
      <trkpt lat="41.34641" lon="20.62504">
        <ele>688.151359</ele>
        <time>2022-04-27T11:15:21.747Z</time>
      </trkpt>
      <trkpt lat="41.34634" lon="20.62511">
        <ele>689.117985</ele>
        <time>2022-04-27T11:15:26.729Z</time>
      </trkpt>
      <trkpt lat="41.34624" lon="20.62517">
        <ele>690.227099</ele>
        <time>2022-04-27T11:15:33.744Z</time>
      </trkpt>
      <trkpt lat="41.34615" lon="20.62522">
        <ele>691.271903</ele>
        <time>2022-04-27T11:15:39.758Z</time>
      </trkpt>
      <trkpt lat="41.34607" lon="20.62529">
        <ele>692.313898</ele>
        <time>2022-04-27T11:15:47.750Z</time>
      </trkpt>
      <trkpt lat="41.34599" lon="20.62538">
        <ele>693.373888</ele>
        <time>2022-04-27T11:15:54.745Z</time>
      </trkpt>
      <trkpt lat="41.34592" lon="20.62544">
        <ele>693.587188</ele>
        <time>2022-04-27T11:16:00.740Z</time>
      </trkpt>
      <trkpt lat="41.34585" lon="20.62553">
        <ele>693.769475</ele>
        <time>2022-04-27T11:16:08.772Z</time>
      </trkpt>
      <trkpt lat="41.3458" lon="20.62564">
        <ele>693.938689</ele>
        <time>2022-04-27T11:16:15.746Z</time>
      </trkpt>
      <trkpt lat="41.34574" lon="20.62573">
        <ele>694.117632</ele>
        <time>2022-04-27T11:16:21.735Z</time>
      </trkpt>
      <trkpt lat="41.34567" lon="20.62581">
        <ele>694.285015</ele>
        <time>2022-04-27T11:16:28.736Z</time>
      </trkpt>
      <trkpt lat="41.34558" lon="20.62589">
        <ele>694.474725</ele>
        <time>2022-04-27T11:16:35.740Z</time>
      </trkpt>
      <trkpt lat="41.34552" lon="20.626">
        <ele>694.665122</ele>
        <time>2022-04-27T11:16:44.728Z</time>
      </trkpt>
      <trkpt lat="41.34547" lon="20.6261">
        <ele>694.831316</ele>
        <time>2022-04-27T11:16:49.737Z</time>
      </trkpt>
      <trkpt lat="41.3454" lon="20.6262">
        <ele>695.023714</ele>
        <time>2022-04-27T11:16:54.735Z</time>
      </trkpt>
      <trkpt lat="41.34531" lon="20.62626">
        <ele>695.206958</ele>
        <time>2022-04-27T11:16:59.748Z</time>
      </trkpt>
      <trkpt lat="41.34521" lon="20.62634">
        <ele>695.410772</ele>
        <time>2022-04-27T11:17:05.740Z</time>
      </trkpt>
      <trkpt lat="41.34513" lon="20.62641">
        <ele>695.606443</ele>
        <time>2022-04-27T11:17:11.736Z</time>
      </trkpt>
      <trkpt lat="41.34505" lon="20.62649">
        <ele>695.778991</ele>
        <time>2022-04-27T11:17:17.736Z</time>
      </trkpt>
      <trkpt lat="41.345" lon="20.62659">
        <ele>695.950625</ele>
        <time>2022-04-27T11:17:24.768Z</time>
      </trkpt>
      <trkpt lat="41.34493" lon="20.62668">
        <ele>696.124468</ele>
        <time>2022-04-27T11:17:30.733Z</time>
      </trkpt>
      <trkpt lat="41.34485" lon="20.62675">
        <ele>696.307157</ele>
        <time>2022-04-27T11:17:34.735Z</time>
      </trkpt>
      <trkpt lat="41.34477" lon="20.62685">
        <ele>696.504854</ele>
        <time>2022-04-27T11:17:38.748Z</time>
      </trkpt>
      <trkpt lat="41.34469" lon="20.62691">
        <ele>696.671623</ele>
        <time>2022-04-27T11:17:43.745Z</time>
      </trkpt>
      <trkpt lat="41.3446" lon="20.62697">
        <ele>696.685226</ele>
        <time>2022-04-27T11:17:49.745Z</time>
      </trkpt>
      <trkpt lat="41.34451" lon="20.62704">
        <ele>696.584468</ele>
        <time>2022-04-27T11:17:55.744Z</time>
      </trkpt>
      <trkpt lat="41.34442" lon="20.62711">
        <ele>696.486043</ele>
        <time>2022-04-27T11:18:02.731Z</time>
      </trkpt>
      <trkpt lat="41.34433" lon="20.62716">
        <ele>696.392938</ele>
        <time>2022-04-27T11:18:08.735Z</time>
      </trkpt>
      <trkpt lat="41.34424" lon="20.62723">
        <ele>696.289801</ele>
        <time>2022-04-27T11:18:14.736Z</time>
      </trkpt>
      <trkpt lat="41.34414" lon="20.62728">
        <ele>696.193384</ele>
        <time>2022-04-27T11:18:20.736Z</time>
      </trkpt>
      <trkpt lat="41.34405" lon="20.62732">
        <ele>696.097197</ele>
        <time>2022-04-27T11:18:25.740Z</time>
      </trkpt>
      <trkpt lat="41.34396" lon="20.62736">
        <ele>696.005558</ele>
        <time>2022-04-27T11:18:31.736Z</time>
      </trkpt>
      <trkpt lat="41.34386" lon="20.62737">
        <ele>695.910031</ele>
        <time>2022-04-27T11:18:36.741Z</time>
      </trkpt>
      <trkpt lat="41.34377" lon="20.62736">
        <ele>695.819414</ele>
        <time>2022-04-27T11:18:41.741Z</time>
      </trkpt>
      <trkpt lat="41.34367" lon="20.62736">
        <ele>695.728121</ele>
        <time>2022-04-27T11:18:46.736Z</time>
      </trkpt>
      <trkpt lat="41.34357" lon="20.62738">
        <ele>695.628098</ele>
        <time>2022-04-27T11:18:52.734Z</time>
      </trkpt>
      <trkpt lat="41.34346" lon="20.62737">
        <ele>695.523955</ele>
        <time>2022-04-27T11:18:58.735Z</time>
      </trkpt>
      <trkpt lat="41.34337" lon="20.62735">
        <ele>695.435892</ele>
        <time>2022-04-27T11:19:03.746Z</time>
      </trkpt>
      <trkpt lat="41.34327" lon="20.62731">
        <ele>695.338527</ele>
        <time>2022-04-27T11:19:09.748Z</time>
      </trkpt>
      <trkpt lat="41.34318" lon="20.62726">
        <ele>695.243196</ele>
        <time>2022-04-27T11:19:15.743Z</time>
      </trkpt>
      <trkpt lat="41.34308" lon="20.62722">
        <ele>695.144492</ele>
        <time>2022-04-27T11:19:21.739Z</time>
      </trkpt>
      <trkpt lat="41.34299" lon="20.62718">
        <ele>695.049219</ele>
        <time>2022-04-27T11:19:27.737Z</time>
      </trkpt>
      <trkpt lat="41.3429" lon="20.62714">
        <ele>694.811909</ele>
        <time>2022-04-27T11:19:33.762Z</time>
      </trkpt>
      <trkpt lat="41.3428" lon="20.62712">
        <ele>694.445055</ele>
        <time>2022-04-27T11:19:41.736Z</time>
      </trkpt>
      <trkpt lat="41.34271" lon="20.62709">
        <ele>694.119159</ele>
        <time>2022-04-27T11:19:47.734Z</time>
      </trkpt>
      <trkpt lat="41.34261" lon="20.62706">
        <ele>693.742048</ele>
        <time>2022-04-27T11:19:54.737Z</time>
      </trkpt>
      <trkpt lat="41.34252" lon="20.62702">
        <ele>693.417434</ele>
        <time>2022-04-27T11:20:00.740Z</time>
      </trkpt>
      <trkpt lat="41.34243" lon="20.62697">
        <ele>693.054206</ele>
        <time>2022-04-27T11:20:07.742Z</time>
      </trkpt>
      <trkpt lat="41.34234" lon="20.62693">
        <ele>692.706011</ele>
        <time>2022-04-27T11:20:13.760Z</time>
      </trkpt>
      <trkpt lat="41.34225" lon="20.62689">
        <ele>692.370565</ele>
        <time>2022-04-27T11:20:19.734Z</time>
      </trkpt>
      <trkpt lat="41.34215" lon="20.62687">
        <ele>692.022255</ele>
        <time>2022-04-27T11:20:25.740Z</time>
      </trkpt>
      <trkpt lat="41.34206" lon="20.62685">
        <ele>691.682249</ele>
        <time>2022-04-27T11:20:31.737Z</time>
      </trkpt>
      <trkpt lat="41.34196" lon="20.62681">
        <ele>691.329754</ele>
        <time>2022-04-27T11:20:39.732Z</time>
      </trkpt>
      <trkpt lat="41.34187" lon="20.62679">
        <ele>690.994023</ele>
        <time>2022-04-27T11:20:46.731Z</time>
      </trkpt>
      <trkpt lat="41.34178" lon="20.62678">
        <ele>690.663063</ele>
        <time>2022-04-27T11:20:52.754Z</time>
      </trkpt>
      <trkpt lat="41.34169" lon="20.62673">
        <ele>690.295477</ele>
        <time>2022-04-27T11:20:59.736Z</time>
      </trkpt>
      <trkpt lat="41.34159" lon="20.62667">
        <ele>689.923436</ele>
        <time>2022-04-27T11:21:05.734Z</time>
      </trkpt>
      <trkpt lat="41.3415" lon="20.62663">
        <ele>689.576102</ele>
        <time>2022-04-27T11:21:11.734Z</time>
      </trkpt>
      <trkpt lat="41.3414" lon="20.6266">
        <ele>689.221314</ele>
        <time>2022-04-27T11:21:17.735Z</time>
      </trkpt>
      <trkpt lat="41.34131" lon="20.62658">
        <ele>688.900455</ele>
        <time>2022-04-27T11:21:22.733Z</time>
      </trkpt>
      <trkpt lat="41.34121" lon="20.62656">
        <ele>688.595537</ele>
        <time>2022-04-27T11:21:28.739Z</time>
      </trkpt>
      <trkpt lat="41.34111" lon="20.62654">
        <ele>688.715048</ele>
        <time>2022-04-27T11:21:33.738Z</time>
      </trkpt>
      <trkpt lat="41.34102" lon="20.62653">
        <ele>688.830423</ele>
        <time>2022-04-27T11:21:38.730Z</time>
      </trkpt>
      <trkpt lat="41.34093" lon="20.62654">
        <ele>688.94195</ele>
        <time>2022-04-27T11:21:43.776Z</time>
      </trkpt>
      <trkpt lat="41.34083" lon="20.62654">
        <ele>689.068128</ele>
        <time>2022-04-27T11:21:49.742Z</time>
      </trkpt>
      <trkpt lat="41.34074" lon="20.62658">
        <ele>689.180647</ele>
        <time>2022-04-27T11:21:55.746Z</time>
      </trkpt>
      <trkpt lat="41.34064" lon="20.62659">
        <ele>689.30226</ele>
        <time>2022-04-27T11:22:02.732Z</time>
      </trkpt>
      <trkpt lat="41.34055" lon="20.62664">
        <ele>689.426077</ele>
        <time>2022-04-27T11:22:08.730Z</time>
      </trkpt>
      <trkpt lat="41.34046" lon="20.62671">
        <ele>689.552368</ele>
        <time>2022-04-27T11:22:14.734Z</time>
      </trkpt>
      <trkpt lat="41.34036" lon="20.62676">
        <ele>689.681114</ele>
        <time>2022-04-27T11:22:20.729Z</time>
      </trkpt>
      <trkpt lat="41.34027" lon="20.6268">
        <ele>689.796882</ele>
        <time>2022-04-27T11:22:26.731Z</time>
      </trkpt>
      <trkpt lat="41.34017" lon="20.6268">
        <ele>689.912056</ele>
        <time>2022-04-27T11:22:33.769Z</time>
      </trkpt>
      <trkpt lat="41.34009" lon="20.62687">
        <ele>690.030863</ele>
        <time>2022-04-27T11:22:39.743Z</time>
      </trkpt>
      <trkpt lat="41.34001" lon="20.62693">
        <ele>690.146338</ele>
        <time>2022-04-27T11:22:46.741Z</time>
      </trkpt>
      <trkpt lat="41.33992" lon="20.62699">
        <ele>690.265686</ele>
        <time>2022-04-27T11:22:52.738Z</time>
      </trkpt>
      <trkpt lat="41.33983" lon="20.62705">
        <ele>690.388154</ele>
        <time>2022-04-27T11:22:58.732Z</time>
      </trkpt>
      <trkpt lat="41.33974" lon="20.62712">
        <ele>690.516752</ele>
        <time>2022-04-27T11:23:05.732Z</time>
      </trkpt>
      <trkpt lat="41.33966" lon="20.62718">
        <ele>690.634588</ele>
        <time>2022-04-27T11:23:12.755Z</time>
      </trkpt>
      <trkpt lat="41.33957" lon="20.62723">
        <ele>690.756909</ele>
        <time>2022-04-27T11:23:19.739Z</time>
      </trkpt>
      <trkpt lat="41.33947" lon="20.62727">
        <ele>691.412996</ele>
        <time>2022-04-27T11:23:26.734Z</time>
      </trkpt>
      <trkpt lat="41.33938" lon="20.62732">
        <ele>692.154447</ele>
        <time>2022-04-27T11:23:32.739Z</time>
      </trkpt>
      <trkpt lat="41.33929" lon="20.62738">
        <ele>692.986168</ele>
        <time>2022-04-27T11:23:38.737Z</time>
      </trkpt>
      <trkpt lat="41.3392" lon="20.62745">
        <ele>693.802885</ele>
        <time>2022-04-27T11:23:43.732Z</time>
      </trkpt>
      <trkpt lat="41.3391" lon="20.62751">
        <ele>694.635235</ele>
        <time>2022-04-27T11:23:49.738Z</time>
      </trkpt>
      <trkpt lat="41.33901" lon="20.62757">
        <ele>695.464472</ele>
        <time>2022-04-27T11:23:55.734Z</time>
      </trkpt>
      <trkpt lat="41.33892" lon="20.62764">
        <ele>696.232403</ele>
        <time>2022-04-27T11:24:01.738Z</time>
      </trkpt>
      <trkpt lat="41.33884" lon="20.6277">
        <ele>696.999387</ele>
        <time>2022-04-27T11:24:08.770Z</time>
      </trkpt>
      <trkpt lat="41.33875" lon="20.62778">
        <ele>697.813433</ele>
        <time>2022-04-27T11:24:15.737Z</time>
      </trkpt>
      <trkpt lat="41.33868" lon="20.62786">
        <ele>698.54284</ele>
        <time>2022-04-27T11:24:21.733Z</time>
      </trkpt>
      <trkpt lat="41.33861" lon="20.62795">
        <ele>699.288058</ele>
        <time>2022-04-27T11:24:27.739Z</time>
      </trkpt>
      <trkpt lat="41.33856" lon="20.62805">
        <ele>700.01368</ele>
        <time>2022-04-27T11:24:33.738Z</time>
      </trkpt>
      <trkpt lat="41.33852" lon="20.62816">
        <ele>700.779357</ele>
        <time>2022-04-27T11:24:39.737Z</time>
      </trkpt>
      <trkpt lat="41.33848" lon="20.62828">
        <ele>701.512664</ele>
        <time>2022-04-27T11:24:45.739Z</time>
      </trkpt>
      <trkpt lat="41.33846" lon="20.6284">
        <ele>702.256397</ele>
        <time>2022-04-27T11:24:51.739Z</time>
      </trkpt>
      <trkpt lat="41.33845" lon="20.62852">
        <ele>702.982793</ele>
        <time>2022-04-27T11:24:57.740Z</time>
      </trkpt>
      <trkpt lat="41.33844" lon="20.62866">
        <ele>703.761538</ele>
        <time>2022-04-27T11:25:05.732Z</time>
      </trkpt>
      <trkpt lat="41.33845" lon="20.62878">
        <ele>704.487939</ele>
        <time>2022-04-27T11:25:13.738Z</time>
      </trkpt>
      <trkpt lat="41.33847" lon="20.6289">
        <ele>705.202021</ele>
        <time>2022-04-27T11:25:20.730Z</time>
      </trkpt>
      <trkpt lat="41.33848" lon="20.62903">
        <ele>706.005597</ele>
        <time>2022-04-27T11:25:27.744Z</time>
      </trkpt>
      <trkpt lat="41.33851" lon="20.62916">
        <ele>706.776824</ele>
        <time>2022-04-27T11:25:34.729Z</time>
      </trkpt>
      <trkpt lat="41.33852" lon="20.62929">
        <ele>707.582508</ele>
        <time>2022-04-27T11:25:42.730Z</time>
      </trkpt>
      <trkpt lat="41.33854" lon="20.62942">
        <ele>708.324946</ele>
        <time>2022-04-27T11:25:48.732Z</time>
      </trkpt>
      <trkpt lat="41.33857" lon="20.62954">
        <ele>709.06928</ele>
        <time>2022-04-27T11:25:54.746Z</time>
      </trkpt>
      <trkpt lat="41.33858" lon="20.62966">
        <ele>709.775981</ele>
        <time>2022-04-27T11:25:59.736Z</time>
      </trkpt>
      <trkpt lat="41.3386" lon="20.62979">
        <ele>710.562969</ele>
        <time>2022-04-27T11:26:04.738Z</time>
      </trkpt>
      <trkpt lat="41.33859" lon="20.62991">
        <ele>711.275843</ele>
        <time>2022-04-27T11:26:09.736Z</time>
      </trkpt>
      <trkpt lat="41.33859" lon="20.63004">
        <ele>712.037094</ele>
        <time>2022-04-27T11:26:15.736Z</time>
      </trkpt>
      <trkpt lat="41.33856" lon="20.63017">
        <ele>712.856761</ele>
        <time>2022-04-27T11:26:22.743Z</time>
      </trkpt>
      <trkpt lat="41.33852" lon="20.63029">
        <ele>713.581674</ele>
        <time>2022-04-27T11:26:28.733Z</time>
      </trkpt>
      <trkpt lat="41.33848" lon="20.63041">
        <ele>714.361573</ele>
        <time>2022-04-27T11:26:35.747Z</time>
      </trkpt>
      <trkpt lat="41.33843" lon="20.63052">
        <ele>715.138947</ele>
        <time>2022-04-27T11:26:42.747Z</time>
      </trkpt>
      <trkpt lat="41.33835" lon="20.63061">
        <ele>715.934328</ele>
        <time>2022-04-27T11:26:51.763Z</time>
      </trkpt>
      <trkpt lat="41.33828" lon="20.63069">
        <ele>716.696534</ele>
        <time>2022-04-27T11:26:57.754Z</time>
      </trkpt>
      <trkpt lat="41.33819" lon="20.63075">
        <ele>717.436848</ele>
        <time>2022-04-27T11:27:03.741Z</time>
      </trkpt>
      <trkpt lat="41.3381" lon="20.63082">
        <ele>718.244131</ele>
        <time>2022-04-27T11:27:10.741Z</time>
      </trkpt>
      <trkpt lat="41.33802" lon="20.63089">
        <ele>719.031393</ele>
        <time>2022-04-27T11:27:15.741Z</time>
      </trkpt>
      <trkpt lat="41.33793" lon="20.63098">
        <ele>719.720322</ele>
        <time>2022-04-27T11:27:22.737Z</time>
      </trkpt>
      <trkpt lat="41.33787" lon="20.63108">
        <ele>720.385138</ele>
        <time>2022-04-27T11:27:29.732Z</time>
      </trkpt>
      <trkpt lat="41.33779" lon="20.63116">
        <ele>721.014185</ele>
        <time>2022-04-27T11:27:35.732Z</time>
      </trkpt>
      <trkpt lat="41.33772" lon="20.63124">
        <ele>721.634952</ele>
        <time>2022-04-27T11:27:41.739Z</time>
      </trkpt>
      <trkpt lat="41.33765" lon="20.63133">
        <ele>722.247619</ele>
        <time>2022-04-27T11:27:47.737Z</time>
      </trkpt>
      <trkpt lat="41.33756" lon="20.63142">
        <ele>722.955036</ele>
        <time>2022-04-27T11:27:53.755Z</time>
      </trkpt>
      <trkpt lat="41.33749" lon="20.63149">
        <ele>723.562659</ele>
        <time>2022-04-27T11:27:58.736Z</time>
      </trkpt>
      <trkpt lat="41.3374" lon="20.63156">
        <ele>724.215494</ele>
        <time>2022-04-27T11:28:03.732Z</time>
      </trkpt>
      <trkpt lat="41.33731" lon="20.63161">
        <ele>724.893593</ele>
        <time>2022-04-27T11:28:09.738Z</time>
      </trkpt>
      <trkpt lat="41.33721" lon="20.63166">
        <ele>725.569916</ele>
        <time>2022-04-27T11:28:15.736Z</time>
      </trkpt>
      <trkpt lat="41.33712" lon="20.63172">
        <ele>726.20579</ele>
        <time>2022-04-27T11:28:21.774Z</time>
      </trkpt>
      <trkpt lat="41.33704" lon="20.6318">
        <ele>726.828239</ele>
        <time>2022-04-27T11:28:28.739Z</time>
      </trkpt>
      <trkpt lat="41.33699" lon="20.63191">
        <ele>727.469884</ele>
        <time>2022-04-27T11:28:35.745Z</time>
      </trkpt>
      <trkpt lat="41.33691" lon="20.632">
        <ele>728.152384</ele>
        <time>2022-04-27T11:28:42.738Z</time>
      </trkpt>
      <trkpt lat="41.33684" lon="20.6321">
        <ele>728.819461</ele>
        <time>2022-04-27T11:28:49.744Z</time>
      </trkpt>
      <trkpt lat="41.33678" lon="20.6322">
        <ele>729.452621</ele>
        <time>2022-04-27T11:28:56.730Z</time>
      </trkpt>
      <trkpt lat="41.33673" lon="20.6323">
        <ele>730.036909</ele>
        <time>2022-04-27T11:29:02.739Z</time>
      </trkpt>
      <trkpt lat="41.33668" lon="20.63241">
        <ele>730.671871</ele>
        <time>2022-04-27T11:29:09.754Z</time>
      </trkpt>
      <trkpt lat="41.33665" lon="20.63254">
        <ele>730.856544</ele>
        <time>2022-04-27T11:29:16.737Z</time>
      </trkpt>
      <trkpt lat="41.33663" lon="20.63265">
        <ele>731.015257</ele>
        <time>2022-04-27T11:29:22.737Z</time>
      </trkpt>
      <trkpt lat="41.33659" lon="20.63277">
        <ele>731.175222</ele>
        <time>2022-04-27T11:29:28.761Z</time>
      </trkpt>
      <trkpt lat="41.33656" lon="20.63288">
        <ele>731.338338</ele>
        <time>2022-04-27T11:29:34.733Z</time>
      </trkpt>
      <trkpt lat="41.33654" lon="20.633">
        <ele>731.496048</ele>
        <time>2022-04-27T11:29:40.744Z</time>
      </trkpt>
      <trkpt lat="41.33649" lon="20.63311">
        <ele>731.671127</ele>
        <time>2022-04-27T11:29:47.742Z</time>
      </trkpt>
      <trkpt lat="41.33645" lon="20.63324">
        <ele>731.850853</ele>
        <time>2022-04-27T11:29:54.740Z</time>
      </trkpt>
      <trkpt lat="41.33642" lon="20.63336">
        <ele>732.017395</ele>
        <time>2022-04-27T11:30:01.737Z</time>
      </trkpt>
      <trkpt lat="41.3364" lon="20.63349">
        <ele>732.188967</ele>
        <time>2022-04-27T11:30:08.732Z</time>
      </trkpt>
      <trkpt lat="41.33638" lon="20.63361">
        <ele>732.356637</ele>
        <time>2022-04-27T11:30:14.744Z</time>
      </trkpt>
      <trkpt lat="41.33634" lon="20.63373">
        <ele>732.527788</ele>
        <time>2022-04-27T11:30:20.744Z</time>
      </trkpt>
      <trkpt lat="41.3363" lon="20.63386">
        <ele>732.716934</ele>
        <time>2022-04-27T11:30:26.733Z</time>
      </trkpt>
      <trkpt lat="41.33627" lon="20.63399">
        <ele>732.888285</ele>
        <time>2022-04-27T11:30:32.731Z</time>
      </trkpt>
      <trkpt lat="41.33622" lon="20.63409">
        <ele>733.049858</ele>
        <time>2022-04-27T11:30:36.732Z</time>
      </trkpt>
      <trkpt lat="41.33617" lon="20.63419">
        <ele>733.208369</ele>
        <time>2022-04-27T11:30:40.728Z</time>
      </trkpt>
      <trkpt lat="41.33611" lon="20.63428">
        <ele>733.37147</ele>
        <time>2022-04-27T11:30:44.740Z</time>
      </trkpt>
      <trkpt lat="41.33602" lon="20.63437">
        <ele>733.558709</ele>
        <time>2022-04-27T11:30:48.738Z</time>
      </trkpt>
      <trkpt lat="41.33593" lon="20.63445">
        <ele>733.754121</ele>
        <time>2022-04-27T11:30:52.748Z</time>
      </trkpt>
      <trkpt lat="41.33582" lon="20.63453">
        <ele>733.979895</ele>
        <time>2022-04-27T11:30:56.755Z</time>
      </trkpt>
      <trkpt lat="41.33575" lon="20.63459">
        <ele>734.152347</ele>
        <time>2022-04-27T11:30:59.756Z</time>
      </trkpt>
      <trkpt lat="41.33564" lon="20.63465">
        <ele>734.376953</ele>
        <time>2022-04-27T11:31:03.755Z</time>
      </trkpt>
      <trkpt lat="41.33553" lon="20.63472">
        <ele>734.604691</ele>
        <time>2022-04-27T11:31:07.759Z</time>
      </trkpt>
      <trkpt lat="41.33545" lon="20.63477">
        <ele>734.782022</ele>
        <time>2022-04-27T11:31:10.746Z</time>
      </trkpt>
      <trkpt lat="41.33536" lon="20.63482">
        <ele>734.972112</ele>
        <time>2022-04-27T11:31:13.730Z</time>
      </trkpt>
      <trkpt lat="41.33526" lon="20.6349">
        <ele>735.195005</ele>
        <time>2022-04-27T11:31:17.733Z</time>
      </trkpt>
      <trkpt lat="41.33516" lon="20.63495">
        <ele>735.393198</ele>
        <time>2022-04-27T11:31:20.740Z</time>
      </trkpt>
      <trkpt lat="41.33507" lon="20.63499">
        <ele>735.589527</ele>
        <time>2022-04-27T11:31:23.734Z</time>
      </trkpt>
      <trkpt lat="41.33497" lon="20.63504">
        <ele>735.795943</ele>
        <time>2022-04-27T11:31:26.732Z</time>
      </trkpt>
      <trkpt lat="41.33487" lon="20.63509">
        <ele>735.99152</ele>
        <time>2022-04-27T11:31:29.757Z</time>
      </trkpt>
      <trkpt lat="41.33478" lon="20.63514">
        <ele>736.184463</ele>
        <time>2022-04-27T11:31:32.735Z</time>
      </trkpt>
      <trkpt lat="41.33469" lon="20.63519">
        <ele>736.369288</ele>
        <time>2022-04-27T11:31:35.736Z</time>
      </trkpt>
      <trkpt lat="41.3346" lon="20.63523">
        <ele>736.550558</ele>
        <time>2022-04-27T11:31:38.733Z</time>
      </trkpt>
      <trkpt lat="41.3345" lon="20.63528">
        <ele>736.763385</ele>
        <time>2022-04-27T11:31:41.732Z</time>
      </trkpt>
      <trkpt lat="41.3344" lon="20.63532">
        <ele>736.950212</ele>
        <time>2022-04-27T11:31:44.742Z</time>
      </trkpt>
      <trkpt lat="41.33428" lon="20.63535">
        <ele>737.185103</ele>
        <time>2022-04-27T11:31:48.740Z</time>
      </trkpt>
      <trkpt lat="41.33418" lon="20.63539">
        <ele>737.47196</ele>
        <time>2022-04-27T11:31:52.732Z</time>
      </trkpt>
      <trkpt lat="41.33407" lon="20.63543">
        <ele>737.814472</ele>
        <time>2022-04-27T11:31:56.731Z</time>
      </trkpt>
      <trkpt lat="41.33396" lon="20.63545">
        <ele>738.20053</ele>
        <time>2022-04-27T11:32:00.733Z</time>
      </trkpt>
      <trkpt lat="41.33387" lon="20.63546">
        <ele>738.497144</ele>
        <time>2022-04-27T11:32:03.736Z</time>
      </trkpt>
      <trkpt lat="41.33376" lon="20.63546">
        <ele>738.841756</ele>
        <time>2022-04-27T11:32:06.731Z</time>
      </trkpt>
      <trkpt lat="41.33365" lon="20.63547">
        <ele>739.20307</ele>
        <time>2022-04-27T11:32:09.741Z</time>
      </trkpt>
      <trkpt lat="41.33356" lon="20.63549">
        <ele>739.515484</ele>
        <time>2022-04-27T11:32:12.756Z</time>
      </trkpt>
      <trkpt lat="41.33346" lon="20.63551">
        <ele>739.844887</ele>
        <time>2022-04-27T11:32:15.741Z</time>
      </trkpt>
      <trkpt lat="41.33336" lon="20.63555">
        <ele>740.179871</ele>
        <time>2022-04-27T11:32:18.731Z</time>
      </trkpt>
      <trkpt lat="41.33327" lon="20.63559">
        <ele>740.51698</ele>
        <time>2022-04-27T11:32:21.733Z</time>
      </trkpt>
      <trkpt lat="41.33317" lon="20.63566">
        <ele>740.854269</ele>
        <time>2022-04-27T11:32:24.730Z</time>
      </trkpt>
      <trkpt lat="41.33308" lon="20.63572">
        <ele>741.187522</ele>
        <time>2022-04-27T11:32:27.746Z</time>
      </trkpt>
      <trkpt lat="41.33299" lon="20.63577">
        <ele>741.507566</ele>
        <time>2022-04-27T11:32:30.762Z</time>
      </trkpt>
      <trkpt lat="41.33292" lon="20.63583">
        <ele>741.806733</ele>
        <time>2022-04-27T11:32:33.739Z</time>
      </trkpt>
      <trkpt lat="41.33282" lon="20.63592">
        <ele>742.191927</ele>
        <time>2022-04-27T11:32:37.735Z</time>
      </trkpt>
      <trkpt lat="41.33273" lon="20.63602">
        <ele>742.558631</ele>
        <time>2022-04-27T11:32:40.739Z</time>
      </trkpt>
      <trkpt lat="41.33265" lon="20.6361">
        <ele>742.904547</ele>
        <time>2022-04-27T11:32:43.733Z</time>
      </trkpt>
      <trkpt lat="41.33257" lon="20.63616">
        <ele>743.203829</ele>
        <time>2022-04-27T11:32:46.745Z</time>
      </trkpt>
      <trkpt lat="41.33247" lon="20.63623">
        <ele>743.068308</ele>
        <time>2022-04-27T11:32:50.733Z</time>
      </trkpt>
      <trkpt lat="41.33237" lon="20.63633">
        <ele>742.922156</ele>
        <time>2022-04-27T11:32:54.745Z</time>
      </trkpt>
      <trkpt lat="41.33228" lon="20.63643">
        <ele>742.770962</ele>
        <time>2022-04-27T11:32:58.758Z</time>
      </trkpt>
      <trkpt lat="41.3322" lon="20.63654">
        <ele>742.62973</ele>
        <time>2022-04-27T11:33:02.734Z</time>
      </trkpt>
      <trkpt lat="41.33213" lon="20.63664">
        <ele>742.504596</ele>
        <time>2022-04-27T11:33:05.738Z</time>
      </trkpt>
      <trkpt lat="41.33205" lon="20.63673">
        <ele>742.376209</ele>
        <time>2022-04-27T11:33:08.739Z</time>
      </trkpt>
      <trkpt lat="41.33195" lon="20.63683">
        <ele>742.223118</ele>
        <time>2022-04-27T11:33:11.736Z</time>
      </trkpt>
      <trkpt lat="41.33185" lon="20.63691">
        <ele>742.0838</ele>
        <time>2022-04-27T11:33:14.737Z</time>
      </trkpt>
      <trkpt lat="41.33174" lon="20.63698">
        <ele>741.925239</ele>
        <time>2022-04-27T11:33:17.728Z</time>
      </trkpt>
      <trkpt lat="41.33165" lon="20.63704">
        <ele>741.806639</ele>
        <time>2022-04-27T11:33:19.739Z</time>
      </trkpt>
      <trkpt lat="41.33157" lon="20.63712">
        <ele>741.68426</ele>
        <time>2022-04-27T11:33:21.741Z</time>
      </trkpt>
      <trkpt lat="41.3315" lon="20.63719">
        <ele>741.570519</ele>
        <time>2022-04-27T11:33:23.735Z</time>
      </trkpt>
      <trkpt lat="41.33138" lon="20.63727">
        <ele>741.41193</ele>
        <time>2022-04-27T11:33:26.758Z</time>
      </trkpt>
      <trkpt lat="41.33128" lon="20.63733">
        <ele>741.274268</ele>
        <time>2022-04-27T11:33:29.753Z</time>
      </trkpt>
      <trkpt lat="41.33118" lon="20.63735">
        <ele>741.147563</ele>
        <time>2022-04-27T11:33:32.729Z</time>
      </trkpt>
      <trkpt lat="41.33106" lon="20.63736">
        <ele>741.004496</ele>
        <time>2022-04-27T11:33:35.731Z</time>
      </trkpt>
      <trkpt lat="41.33094" lon="20.63736">
        <ele>741.13377</ele>
        <time>2022-04-27T11:33:38.768Z</time>
      </trkpt>
      <trkpt lat="41.33082" lon="20.63734">
        <ele>741.287338</ele>
        <time>2022-04-27T11:33:41.738Z</time>
      </trkpt>
      <trkpt lat="41.3307" lon="20.63732">
        <ele>741.436385</ele>
        <time>2022-04-27T11:33:44.736Z</time>
      </trkpt>
      <trkpt lat="41.33058" lon="20.63731">
        <ele>741.579818</ele>
        <time>2022-04-27T11:33:47.734Z</time>
      </trkpt>
      <trkpt lat="41.33047" lon="20.63729">
        <ele>741.715933</ele>
        <time>2022-04-27T11:33:50.748Z</time>
      </trkpt>
      <trkpt lat="41.33036" lon="20.63726">
        <ele>741.852676</ele>
        <time>2022-04-27T11:33:53.737Z</time>
      </trkpt>
      <trkpt lat="41.33026" lon="20.63724">
        <ele>741.978001</ele>
        <time>2022-04-27T11:33:56.735Z</time>
      </trkpt>
      <trkpt lat="41.33018" lon="20.6372">
        <ele>742.092995</ele>
        <time>2022-04-27T11:33:59.746Z</time>
      </trkpt>
      <trkpt lat="41.33009" lon="20.63715">
        <ele>742.205352</ele>
        <time>2022-04-27T11:34:02.744Z</time>
      </trkpt>
      <trkpt lat="41.33001" lon="20.6371">
        <ele>742.321212</ele>
        <time>2022-04-27T11:34:05.737Z</time>
      </trkpt>
      <trkpt lat="41.32992" lon="20.63702">
        <ele>742.446973</ele>
        <time>2022-04-27T11:34:08.733Z</time>
      </trkpt>
      <trkpt lat="41.32985" lon="20.63695">
        <ele>742.56069</ele>
        <time>2022-04-27T11:34:11.748Z</time>
      </trkpt>
      <trkpt lat="41.32977" lon="20.63688">
        <ele>742.672727</ele>
        <time>2022-04-27T11:34:14.739Z</time>
      </trkpt>
      <trkpt lat="41.32968" lon="20.63682">
        <ele>742.801614</ele>
        <time>2022-04-27T11:34:17.761Z</time>
      </trkpt>
      <trkpt lat="41.32958" lon="20.63674">
        <ele>742.943962</ele>
        <time>2022-04-27T11:34:20.738Z</time>
      </trkpt>
      <trkpt lat="41.3295" lon="20.63667">
        <ele>743.068709</ele>
        <time>2022-04-27T11:34:23.737Z</time>
      </trkpt>
      <trkpt lat="41.32941" lon="20.6366">
        <ele>743.1915</ele>
        <time>2022-04-27T11:34:26.742Z</time>
      </trkpt>
      <trkpt lat="41.32931" lon="20.63653">
        <ele>743.280974</ele>
        <time>2022-04-27T11:34:29.759Z</time>
      </trkpt>
      <trkpt lat="41.32921" lon="20.63646">
        <ele>743.370255</ele>
        <time>2022-04-27T11:34:32.733Z</time>
      </trkpt>
      <trkpt lat="41.32911" lon="20.63638">
        <ele>743.453976</ele>
        <time>2022-04-27T11:34:35.745Z</time>
      </trkpt>
      <trkpt lat="41.32901" lon="20.63632">
        <ele>743.541985</ele>
        <time>2022-04-27T11:34:38.732Z</time>
      </trkpt>
      <trkpt lat="41.32891" lon="20.63628">
        <ele>743.618188</ele>
        <time>2022-04-27T11:34:41.744Z</time>
      </trkpt>
      <trkpt lat="41.32881" lon="20.63625">
        <ele>743.691197</ele>
        <time>2022-04-27T11:34:44.738Z</time>
      </trkpt>
      <trkpt lat="41.32871" lon="20.63622">
        <ele>743.768854</ele>
        <time>2022-04-27T11:34:47.738Z</time>
      </trkpt>
      <trkpt lat="41.32861" lon="20.63619">
        <ele>743.850154</ele>
        <time>2022-04-27T11:34:50.729Z</time>
      </trkpt>
      <trkpt lat="41.32849" lon="20.63616">
        <ele>743.936318</ele>
        <time>2022-04-27T11:34:53.739Z</time>
      </trkpt>
      <trkpt lat="41.32839" lon="20.63614">
        <ele>744.015469</ele>
        <time>2022-04-27T11:34:56.735Z</time>
      </trkpt>
      <trkpt lat="41.3283" lon="20.63609">
        <ele>744.087696</ele>
        <time>2022-04-27T11:34:59.735Z</time>
      </trkpt>
      <trkpt lat="41.3282" lon="20.63606">
        <ele>744.163641</ele>
        <time>2022-04-27T11:35:02.735Z</time>
      </trkpt>
      <trkpt lat="41.32808" lon="20.63602">
        <ele>744.252692</ele>
        <time>2022-04-27T11:35:05.740Z</time>
      </trkpt>
      <trkpt lat="41.32798" lon="20.63597">
        <ele>744.335653</ele>
        <time>2022-04-27T11:35:08.738Z</time>
      </trkpt>
      <trkpt lat="41.32787" lon="20.6359">
        <ele>744.424538</ele>
        <time>2022-04-27T11:35:11.737Z</time>
      </trkpt>
      <trkpt lat="41.32777" lon="20.63583">
        <ele>744.513802</ele>
        <time>2022-04-27T11:35:14.745Z</time>
      </trkpt>
      <trkpt lat="41.32766" lon="20.63575">
        <ele>744.620641</ele>
        <time>2022-04-27T11:35:17.737Z</time>
      </trkpt>
      <trkpt lat="41.32756" lon="20.63564">
        <ele>744.752289</ele>
        <time>2022-04-27T11:35:20.732Z</time>
      </trkpt>
      <trkpt lat="41.32746" lon="20.63554">
        <ele>744.878253</ele>
        <time>2022-04-27T11:35:23.737Z</time>
      </trkpt>
      <trkpt lat="41.32736" lon="20.63548">
        <ele>744.994153</ele>
        <time>2022-04-27T11:35:26.738Z</time>
      </trkpt>
      <trkpt lat="41.32724" lon="20.63545">
        <ele>745.115546</ele>
        <time>2022-04-27T11:35:29.739Z</time>
      </trkpt>
      <trkpt lat="41.32712" lon="20.63541">
        <ele>745.238313</ele>
        <time>2022-04-27T11:35:32.737Z</time>
      </trkpt>
      <trkpt lat="41.32701" lon="20.63537">
        <ele>745.36152</ele>
        <time>2022-04-27T11:35:35.737Z</time>
      </trkpt>
      <trkpt lat="41.3269" lon="20.63533">
        <ele>745.471908</ele>
        <time>2022-04-27T11:35:38.736Z</time>
      </trkpt>
      <trkpt lat="41.3268" lon="20.6353">
        <ele>745.574107</ele>
        <time>2022-04-27T11:35:41.739Z</time>
      </trkpt>
      <trkpt lat="41.32671" lon="20.63527">
        <ele>745.668781</ele>
        <time>2022-04-27T11:35:44.735Z</time>
      </trkpt>
      <trkpt lat="41.32661" lon="20.63524">
        <ele>745.778919</ele>
        <time>2022-04-27T11:35:47.746Z</time>
      </trkpt>
      <trkpt lat="41.3265" lon="20.6352">
        <ele>745.898039</ele>
        <time>2022-04-27T11:35:50.737Z</time>
      </trkpt>
      <trkpt lat="41.32638" lon="20.63515">
        <ele>746.015964</ele>
        <time>2022-04-27T11:35:53.740Z</time>
      </trkpt>
      <trkpt lat="41.32629" lon="20.63509">
        <ele>746.120021</ele>
        <time>2022-04-27T11:35:56.742Z</time>
      </trkpt>
      <trkpt lat="41.32621" lon="20.63499">
        <ele>746.233729</ele>
        <time>2022-04-27T11:35:59.767Z</time>
      </trkpt>
      <trkpt lat="41.32613" lon="20.63491">
        <ele>746.331571</ele>
        <time>2022-04-27T11:36:02.748Z</time>
      </trkpt>
      <trkpt lat="41.32607" lon="20.63481">
        <ele>746.285866</ele>
        <time>2022-04-27T11:36:05.737Z</time>
      </trkpt>
      <trkpt lat="41.326" lon="20.63471">
        <ele>746.044656</ele>
        <time>2022-04-27T11:36:08.737Z</time>
      </trkpt>
      <trkpt lat="41.32592" lon="20.63459">
        <ele>745.764949</ele>
        <time>2022-04-27T11:36:11.770Z</time>
      </trkpt>
      <trkpt lat="41.32584" lon="20.63447">
        <ele>745.480576</ele>
        <time>2022-04-27T11:36:14.736Z</time>
      </trkpt>
      <trkpt lat="41.32576" lon="20.63436">
        <ele>745.222164</ele>
        <time>2022-04-27T11:36:17.740Z</time>
      </trkpt>
      <trkpt lat="41.32569" lon="20.63426">
        <ele>744.980607</ele>
        <time>2022-04-27T11:36:20.734Z</time>
      </trkpt>
      <trkpt lat="41.32562" lon="20.63414">
        <ele>744.70306</ele>
        <time>2022-04-27T11:36:23.743Z</time>
      </trkpt>
      <trkpt lat="41.32554" lon="20.63402">
        <ele>744.427917</ele>
        <time>2022-04-27T11:36:26.739Z</time>
      </trkpt>
      <trkpt lat="41.32547" lon="20.6339">
        <ele>744.155759</ele>
        <time>2022-04-27T11:36:29.730Z</time>
      </trkpt>
      <trkpt lat="41.32539" lon="20.63379">
        <ele>743.900601</ele>
        <time>2022-04-27T11:36:32.735Z</time>
      </trkpt>
      <trkpt lat="41.32531" lon="20.6337">
        <ele>743.641594</ele>
        <time>2022-04-27T11:36:35.743Z</time>
      </trkpt>
      <trkpt lat="41.32521" lon="20.63362">
        <ele>743.387975</ele>
        <time>2022-04-27T11:36:38.737Z</time>
      </trkpt>
      <trkpt lat="41.32513" lon="20.63356">
        <ele>743.171263</ele>
        <time>2022-04-27T11:36:41.741Z</time>
      </trkpt>
      <trkpt lat="41.32505" lon="20.63351">
        <ele>742.95864</ele>
        <time>2022-04-27T11:36:44.731Z</time>
      </trkpt>
      <trkpt lat="41.32495" lon="20.63347">
        <ele>742.721486</ele>
        <time>2022-04-27T11:36:47.754Z</time>
      </trkpt>
      <trkpt lat="41.32486" lon="20.63343">
        <ele>742.485983</ele>
        <time>2022-04-27T11:36:50.739Z</time>
      </trkpt>
      <trkpt lat="41.32475" lon="20.6334">
        <ele>742.227528</ele>
        <time>2022-04-27T11:36:53.740Z</time>
      </trkpt>
      <trkpt lat="41.32464" lon="20.63338">
        <ele>742.474251</ele>
        <time>2022-04-27T11:36:56.756Z</time>
      </trkpt>
      <trkpt lat="41.32454" lon="20.63335">
        <ele>742.804071</ele>
        <time>2022-04-27T11:36:59.737Z</time>
      </trkpt>
      <trkpt lat="41.32443" lon="20.63332">
        <ele>743.149816</ele>
        <time>2022-04-27T11:37:02.737Z</time>
      </trkpt>
      <trkpt lat="41.32433" lon="20.63334">
        <ele>743.468556</ele>
        <time>2022-04-27T11:37:05.733Z</time>
      </trkpt>
      <trkpt lat="41.32423" lon="20.63336">
        <ele>743.781166</ele>
        <time>2022-04-27T11:37:08.744Z</time>
      </trkpt>
      <trkpt lat="41.32412" lon="20.63338">
        <ele>744.116981</ele>
        <time>2022-04-27T11:37:11.739Z</time>
      </trkpt>
      <trkpt lat="41.32401" lon="20.63338">
        <ele>744.442138</ele>
        <time>2022-04-27T11:37:14.743Z</time>
      </trkpt>
      <trkpt lat="41.32391" lon="20.63339">
        <ele>744.762327</ele>
        <time>2022-04-27T11:37:17.756Z</time>
      </trkpt>
      <trkpt lat="41.32381" lon="20.63342">
        <ele>745.080253</ele>
        <time>2022-04-27T11:37:20.735Z</time>
      </trkpt>
      <trkpt lat="41.32371" lon="20.63345">
        <ele>745.40165</ele>
        <time>2022-04-27T11:37:23.764Z</time>
      </trkpt>
      <trkpt lat="41.32359" lon="20.63348">
        <ele>745.764239</ele>
        <time>2022-04-27T11:37:26.734Z</time>
      </trkpt>
      <trkpt lat="41.32349" lon="20.6335">
        <ele>746.099302</ele>
        <time>2022-04-27T11:37:29.753Z</time>
      </trkpt>
      <trkpt lat="41.32338" lon="20.63352">
        <ele>746.427897</ele>
        <time>2022-04-27T11:37:32.731Z</time>
      </trkpt>
      <trkpt lat="41.32328" lon="20.63355">
        <ele>746.75455</ele>
        <time>2022-04-27T11:37:35.746Z</time>
      </trkpt>
      <trkpt lat="41.32316" lon="20.63358">
        <ele>747.108107</ele>
        <time>2022-04-27T11:37:38.736Z</time>
      </trkpt>
      <trkpt lat="41.32305" lon="20.6336">
        <ele>747.467658</ele>
        <time>2022-04-27T11:37:41.734Z</time>
      </trkpt>
      <trkpt lat="41.32293" lon="20.63362">
        <ele>747.721391</ele>
        <time>2022-04-27T11:37:44.739Z</time>
      </trkpt>
      <trkpt lat="41.32281" lon="20.63367">
        <ele>747.556</ele>
        <time>2022-04-27T11:37:47.736Z</time>
      </trkpt>
      <trkpt lat="41.3227" lon="20.63373">
        <ele>747.397599</ele>
        <time>2022-04-27T11:37:50.732Z</time>
      </trkpt>
      <trkpt lat="41.3226" lon="20.6338">
        <ele>747.254742</ele>
        <time>2022-04-27T11:37:53.741Z</time>
      </trkpt>
      <trkpt lat="41.32252" lon="20.63387">
        <ele>747.119889</ele>
        <time>2022-04-27T11:37:56.745Z</time>
      </trkpt>
      <trkpt lat="41.32243" lon="20.63397">
        <ele>746.96591</ele>
        <time>2022-04-27T11:37:59.749Z</time>
      </trkpt>
      <trkpt lat="41.32236" lon="20.63405">
        <ele>746.843569</ele>
        <time>2022-04-27T11:38:01.746Z</time>
      </trkpt>
      <trkpt lat="41.32229" lon="20.63413">
        <ele>746.71981</ele>
        <time>2022-04-27T11:38:03.735Z</time>
      </trkpt>
      <trkpt lat="41.32219" lon="20.63422">
        <ele>746.562835</ele>
        <time>2022-04-27T11:38:06.739Z</time>
      </trkpt>
      <trkpt lat="41.3221" lon="20.63431">
        <ele>746.417317</ele>
        <time>2022-04-27T11:38:09.738Z</time>
      </trkpt>
      <trkpt lat="41.32201" lon="20.6344">
        <ele>746.263649</ele>
        <time>2022-04-27T11:38:12.741Z</time>
      </trkpt>
      <trkpt lat="41.32192" lon="20.63449">
        <ele>746.113765</ele>
        <time>2022-04-27T11:38:15.736Z</time>
      </trkpt>
      <trkpt lat="41.32183" lon="20.63455">
        <ele>745.976749</ele>
        <time>2022-04-27T11:38:18.743Z</time>
      </trkpt>
      <trkpt lat="41.32174" lon="20.63461">
        <ele>745.854439</ele>
        <time>2022-04-27T11:38:21.747Z</time>
      </trkpt>
      <trkpt lat="41.32163" lon="20.63467">
        <ele>745.700662</ele>
        <time>2022-04-27T11:38:24.741Z</time>
      </trkpt>
      <trkpt lat="41.32152" lon="20.63471">
        <ele>745.545266</ele>
        <time>2022-04-27T11:38:27.739Z</time>
      </trkpt>
      <trkpt lat="41.32141" lon="20.63475">
        <ele>745.389635</ele>
        <time>2022-04-27T11:38:30.733Z</time>
      </trkpt>
      <trkpt lat="41.3213" lon="20.63475">
        <ele>745.33182</ele>
        <time>2022-04-27T11:38:33.748Z</time>
      </trkpt>
      <trkpt lat="41.32119" lon="20.63475">
        <ele>745.278413</ele>
        <time>2022-04-27T11:38:36.733Z</time>
      </trkpt>
      <trkpt lat="41.32108" lon="20.63477">
        <ele>745.228864</ele>
        <time>2022-04-27T11:38:39.753Z</time>
      </trkpt>
      <trkpt lat="41.32096" lon="20.6348">
        <ele>745.170839</ele>
        <time>2022-04-27T11:38:42.736Z</time>
      </trkpt>
      <trkpt lat="41.32085" lon="20.6348">
        <ele>745.115561</ele>
        <time>2022-04-27T11:38:45.740Z</time>
      </trkpt>
      <trkpt lat="41.32073" lon="20.63479">
        <ele>745.060754</ele>
        <time>2022-04-27T11:38:48.740Z</time>
      </trkpt>
      <trkpt lat="41.32062" lon="20.63481">
        <ele>745.009883</ele>
        <time>2022-04-27T11:38:51.736Z</time>
      </trkpt>
      <trkpt lat="41.32052" lon="20.63482">
        <ele>744.958616</ele>
        <time>2022-04-27T11:38:54.729Z</time>
      </trkpt>
      <trkpt lat="41.32041" lon="20.63484">
        <ele>744.908503</ele>
        <time>2022-04-27T11:38:57.748Z</time>
      </trkpt>
      <trkpt lat="41.3203" lon="20.63489">
        <ele>744.852256</ele>
        <time>2022-04-27T11:39:00.736Z</time>
      </trkpt>
      <trkpt lat="41.32019" lon="20.63492">
        <ele>744.798739</ele>
        <time>2022-04-27T11:39:03.736Z</time>
      </trkpt>
      <trkpt lat="41.32009" lon="20.63497">
        <ele>744.751173</ele>
        <time>2022-04-27T11:39:06.749Z</time>
      </trkpt>
      <trkpt lat="41.32" lon="20.63504">
        <ele>744.702283</ele>
        <time>2022-04-27T11:39:09.741Z</time>
      </trkpt>
      <trkpt lat="41.3199" lon="20.63511">
        <ele>744.648487</ele>
        <time>2022-04-27T11:39:12.756Z</time>
      </trkpt>
      <trkpt lat="41.31981" lon="20.6352">
        <ele>744.59455</ele>
        <time>2022-04-27T11:39:15.736Z</time>
      </trkpt>
      <trkpt lat="41.31972" lon="20.6353">
        <ele>744.536711</ele>
        <time>2022-04-27T11:39:18.767Z</time>
      </trkpt>
      <trkpt lat="41.31962" lon="20.63541">
        <ele>744.106564</ele>
        <time>2022-04-27T11:39:21.733Z</time>
      </trkpt>
      <trkpt lat="41.31953" lon="20.63551">
        <ele>743.622597</ele>
        <time>2022-04-27T11:39:24.740Z</time>
      </trkpt>
      <trkpt lat="41.31944" lon="20.63561">
        <ele>743.131629</ele>
        <time>2022-04-27T11:39:27.737Z</time>
      </trkpt>
      <trkpt lat="41.31935" lon="20.63572">
        <ele>742.662903</ele>
        <time>2022-04-27T11:39:30.743Z</time>
      </trkpt>
      <trkpt lat="41.31927" lon="20.63582">
        <ele>742.215926</ele>
        <time>2022-04-27T11:39:33.745Z</time>
      </trkpt>
      <trkpt lat="41.3192" lon="20.63591">
        <ele>741.818307</ele>
        <time>2022-04-27T11:39:36.733Z</time>
      </trkpt>
      <trkpt lat="41.31914" lon="20.63602">
        <ele>741.407735</ele>
        <time>2022-04-27T11:39:39.736Z</time>
      </trkpt>
      <trkpt lat="41.31906" lon="20.63613">
        <ele>740.963363</ele>
        <time>2022-04-27T11:39:42.750Z</time>
      </trkpt>
      <trkpt lat="41.31898" lon="20.63623">
        <ele>740.507847</ele>
        <time>2022-04-27T11:39:45.731Z</time>
      </trkpt>
      <trkpt lat="41.3189" lon="20.63634">
        <ele>740.032283</ele>
        <time>2022-04-27T11:39:48.736Z</time>
      </trkpt>
      <trkpt lat="41.31882" lon="20.63644">
        <ele>739.607281</ele>
        <time>2022-04-27T11:39:51.741Z</time>
      </trkpt>
      <trkpt lat="41.31874" lon="20.63654">
        <ele>739.138553</ele>
        <time>2022-04-27T11:39:54.736Z</time>
      </trkpt>
      <trkpt lat="41.31866" lon="20.63666">
        <ele>738.662628</ele>
        <time>2022-04-27T11:39:57.735Z</time>
      </trkpt>
      <trkpt lat="41.31857" lon="20.63677">
        <ele>738.15752</ele>
        <time>2022-04-27T11:40:00.737Z</time>
      </trkpt>
      <trkpt lat="41.31848" lon="20.63688">
        <ele>737.680788</ele>
        <time>2022-04-27T11:40:03.741Z</time>
      </trkpt>
      <trkpt lat="41.3184" lon="20.63698">
        <ele>737.250845</ele>
        <time>2022-04-27T11:40:06.743Z</time>
      </trkpt>
      <trkpt lat="41.31832" lon="20.63708">
        <ele>737.146684</ele>
        <time>2022-04-27T11:40:09.746Z</time>
      </trkpt>
      <trkpt lat="41.31823" lon="20.6372">
        <ele>737.030392</ele>
        <time>2022-04-27T11:40:12.743Z</time>
      </trkpt>
      <trkpt lat="41.31814" lon="20.63732">
        <ele>736.909705</ele>
        <time>2022-04-27T11:40:15.739Z</time>
      </trkpt>
      <trkpt lat="41.31804" lon="20.63742">
        <ele>736.794582</ele>
        <time>2022-04-27T11:40:18.732Z</time>
      </trkpt>
      <trkpt lat="41.31794" lon="20.63753">
        <ele>736.66984</ele>
        <time>2022-04-27T11:40:21.745Z</time>
      </trkpt>
      <trkpt lat="41.31784" lon="20.63761">
        <ele>736.560876</ele>
        <time>2022-04-27T11:40:24.732Z</time>
      </trkpt>
      <trkpt lat="41.31774" lon="20.63768">
        <ele>736.457485</ele>
        <time>2022-04-27T11:40:27.740Z</time>
      </trkpt>
      <trkpt lat="41.31764" lon="20.63774">
        <ele>736.35041</ele>
        <time>2022-04-27T11:40:30.739Z</time>
      </trkpt>
      <trkpt lat="41.31753" lon="20.63781">
        <ele>736.237651</ele>
        <time>2022-04-27T11:40:33.735Z</time>
      </trkpt>
      <trkpt lat="41.31743" lon="20.63787">
        <ele>736.13426</ele>
        <time>2022-04-27T11:40:36.730Z</time>
      </trkpt>
      <trkpt lat="41.31733" lon="20.63795">
        <ele>736.0304</ele>
        <time>2022-04-27T11:40:39.732Z</time>
      </trkpt>
      <trkpt lat="41.31724" lon="20.63807">
        <ele>735.913897</ele>
        <time>2022-04-27T11:40:42.744Z</time>
      </trkpt>
      <trkpt lat="41.31718" lon="20.63815">
        <ele>735.828567</ele>
        <time>2022-04-27T11:40:44.735Z</time>
      </trkpt>
      <trkpt lat="41.31708" lon="20.63827">
        <ele>735.706245</ele>
        <time>2022-04-27T11:40:47.751Z</time>
      </trkpt>
      <trkpt lat="41.31698" lon="20.63838">
        <ele>735.587877</ele>
        <time>2022-04-27T11:40:50.734Z</time>
      </trkpt>
      <trkpt lat="41.31689" lon="20.63848">
        <ele>735.855809</ele>
        <time>2022-04-27T11:40:53.741Z</time>
      </trkpt>
      <trkpt lat="41.31679" lon="20.63856">
        <ele>736.157427</ele>
        <time>2022-04-27T11:40:56.736Z</time>
      </trkpt>
      <trkpt lat="41.31669" lon="20.63864">
        <ele>736.479771</ele>
        <time>2022-04-27T11:40:59.731Z</time>
      </trkpt>
      <trkpt lat="41.31658" lon="20.6387">
        <ele>736.778086</ele>
        <time>2022-04-27T11:41:02.733Z</time>
      </trkpt>
      <trkpt lat="41.31648" lon="20.63874">
        <ele>737.04064</ele>
        <time>2022-04-27T11:41:05.746Z</time>
      </trkpt>
      <trkpt lat="41.31638" lon="20.63877">
        <ele>737.313158</ele>
        <time>2022-04-27T11:41:08.740Z</time>
      </trkpt>
      <trkpt lat="41.31627" lon="20.63879">
        <ele>737.604134</ele>
        <time>2022-04-27T11:41:11.740Z</time>
      </trkpt>
      <trkpt lat="41.31617" lon="20.63882">
        <ele>737.890887</ele>
        <time>2022-04-27T11:41:14.735Z</time>
      </trkpt>
      <trkpt lat="41.31605" lon="20.63886">
        <ele>738.19529</ele>
        <time>2022-04-27T11:41:17.736Z</time>
      </trkpt>
      <trkpt lat="41.31592" lon="20.63889">
        <ele>738.542632</ele>
        <time>2022-04-27T11:41:20.731Z</time>
      </trkpt>
      <trkpt lat="41.31583" lon="20.63892">
        <ele>738.789501</ele>
        <time>2022-04-27T11:41:22.738Z</time>
      </trkpt>
      <trkpt lat="41.31573" lon="20.63895">
        <ele>739.052546</ele>
        <time>2022-04-27T11:41:24.736Z</time>
      </trkpt>
      <trkpt lat="41.31561" lon="20.639">
        <ele>739.373633</ele>
        <time>2022-04-27T11:41:27.761Z</time>
      </trkpt>
      <trkpt lat="41.3155" lon="20.63904">
        <ele>739.697777</ele>
        <time>2022-04-27T11:41:30.736Z</time>
      </trkpt>
      <trkpt lat="41.31538" lon="20.63908">
        <ele>740.006677</ele>
        <time>2022-04-27T11:41:33.736Z</time>
      </trkpt>
      <trkpt lat="41.31527" lon="20.63912">
        <ele>740.29556</ele>
        <time>2022-04-27T11:41:36.733Z</time>
      </trkpt>
      <trkpt lat="41.31516" lon="20.63917">
        <ele>740.473353</ele>
        <time>2022-04-27T11:41:40.739Z</time>
      </trkpt>
      <trkpt lat="41.31506" lon="20.6392">
        <ele>740.633753</ele>
        <time>2022-04-27T11:41:44.735Z</time>
      </trkpt>
      <trkpt lat="41.31495" lon="20.63923">
        <ele>740.804851</ele>
        <time>2022-04-27T11:41:48.737Z</time>
      </trkpt>
      <trkpt lat="41.31485" lon="20.63928">
        <ele>740.962849</ele>
        <time>2022-04-27T11:41:51.749Z</time>
      </trkpt>
      <trkpt lat="41.31475" lon="20.63935">
        <ele>741.138528</ele>
        <time>2022-04-27T11:41:54.732Z</time>
      </trkpt>
      <trkpt lat="41.31465" lon="20.63943">
        <ele>741.313178</ele>
        <time>2022-04-27T11:41:57.740Z</time>
      </trkpt>
      <trkpt lat="41.31456" lon="20.6395">
        <ele>741.474802</ele>
        <time>2022-04-27T11:42:00.741Z</time>
      </trkpt>
      <trkpt lat="41.31447" lon="20.63959">
        <ele>741.652603</ele>
        <time>2022-04-27T11:42:03.738Z</time>
      </trkpt>
      <trkpt lat="41.31438" lon="20.63967">
        <ele>741.820838</ele>
        <time>2022-04-27T11:42:06.727Z</time>
      </trkpt>
      <trkpt lat="41.31429" lon="20.63974">
        <ele>741.969188</ele>
        <time>2022-04-27T11:42:09.741Z</time>
      </trkpt>
      <trkpt lat="41.3142" lon="20.63979">
        <ele>742.118018</ele>
        <time>2022-04-27T11:42:12.761Z</time>
      </trkpt>
      <trkpt lat="41.31411" lon="20.63981">
        <ele>742.263472</ele>
        <time>2022-04-27T11:42:15.739Z</time>
      </trkpt>
      <trkpt lat="41.31401" lon="20.63982">
        <ele>742.415283</ele>
        <time>2022-04-27T11:42:18.754Z</time>
      </trkpt>
      <trkpt lat="41.31389" lon="20.63983">
        <ele>742.59297</ele>
        <time>2022-04-27T11:42:21.745Z</time>
      </trkpt>
      <trkpt lat="41.31378" lon="20.6398">
        <ele>742.775681</ele>
        <time>2022-04-27T11:42:24.735Z</time>
      </trkpt>
      <trkpt lat="41.31367" lon="20.63976">
        <ele>742.942229</ele>
        <time>2022-04-27T11:42:27.732Z</time>
      </trkpt>
      <trkpt lat="41.31356" lon="20.63975">
        <ele>742.873084</ele>
        <time>2022-04-27T11:42:30.730Z</time>
      </trkpt>
      <trkpt lat="41.31345" lon="20.63971">
        <ele>742.543062</ele>
        <time>2022-04-27T11:42:33.740Z</time>
      </trkpt>
      <trkpt lat="41.31334" lon="20.63968">
        <ele>742.227805</ele>
        <time>2022-04-27T11:42:36.738Z</time>
      </trkpt>
      <trkpt lat="41.31324" lon="20.63966">
        <ele>741.911265</ele>
        <time>2022-04-27T11:42:39.740Z</time>
      </trkpt>
      <trkpt lat="41.31313" lon="20.63964">
        <ele>741.594519</ele>
        <time>2022-04-27T11:42:42.732Z</time>
      </trkpt>
      <trkpt lat="41.31302" lon="20.63962">
        <ele>741.252793</ele>
        <time>2022-04-27T11:42:45.744Z</time>
      </trkpt>
      <trkpt lat="41.3129" lon="20.63959">
        <ele>740.889176</ele>
        <time>2022-04-27T11:42:48.734Z</time>
      </trkpt>
      <trkpt lat="41.31277" lon="20.63955">
        <ele>740.515067</ele>
        <time>2022-04-27T11:42:51.768Z</time>
      </trkpt>
      <trkpt lat="41.31266" lon="20.63952">
        <ele>740.182618</ele>
        <time>2022-04-27T11:42:54.731Z</time>
      </trkpt>
      <trkpt lat="41.31256" lon="20.6395">
        <ele>739.889284</ele>
        <time>2022-04-27T11:42:57.738Z</time>
      </trkpt>
      <trkpt lat="41.31247" lon="20.63948">
        <ele>739.603306</ele>
        <time>2022-04-27T11:43:00.730Z</time>
      </trkpt>
      <trkpt lat="41.31236" lon="20.63944">
        <ele>739.281252</ele>
        <time>2022-04-27T11:43:03.733Z</time>
      </trkpt>
      <trkpt lat="41.31225" lon="20.63941">
        <ele>738.948239</ele>
        <time>2022-04-27T11:43:06.756Z</time>
      </trkpt>
      <trkpt lat="41.31215" lon="20.63937">
        <ele>738.626978</ele>
        <time>2022-04-27T11:43:09.727Z</time>
      </trkpt>
      <trkpt lat="41.31205" lon="20.63933">
        <ele>738.322399</ele>
        <time>2022-04-27T11:43:12.746Z</time>
      </trkpt>
      <trkpt lat="41.31195" lon="20.63928">
        <ele>738.010925</ele>
        <time>2022-04-27T11:43:15.734Z</time>
      </trkpt>
      <trkpt lat="41.31185" lon="20.63923">
        <ele>737.706585</ele>
        <time>2022-04-27T11:43:18.743Z</time>
      </trkpt>
      <trkpt lat="41.31175" lon="20.63918">
        <ele>737.435431</ele>
        <time>2022-04-27T11:43:21.733Z</time>
      </trkpt>
      <trkpt lat="41.31163" lon="20.63913">
        <ele>737.137571</ele>
        <time>2022-04-27T11:43:24.738Z</time>
      </trkpt>
      <trkpt lat="41.31151" lon="20.63908">
        <ele>736.818342</ele>
        <time>2022-04-27T11:43:27.727Z</time>
      </trkpt>
      <trkpt lat="41.3114" lon="20.63903">
        <ele>736.528156</ele>
        <time>2022-04-27T11:43:30.729Z</time>
      </trkpt>
      <trkpt lat="41.3113" lon="20.63898">
        <ele>736.263202</ele>
        <time>2022-04-27T11:43:33.733Z</time>
      </trkpt>
      <trkpt lat="41.3112" lon="20.63892">
        <ele>735.988423</ele>
        <time>2022-04-27T11:43:36.737Z</time>
      </trkpt>
      <trkpt lat="41.3111" lon="20.63882">
        <ele>735.685061</ele>
        <time>2022-04-27T11:43:39.731Z</time>
      </trkpt>
      <trkpt lat="41.31102" lon="20.63872">
        <ele>735.388801</ele>
        <time>2022-04-27T11:43:42.762Z</time>
      </trkpt>
      <trkpt lat="41.31094" lon="20.63859">
        <ele>735.081669</ele>
        <time>2022-04-27T11:43:45.731Z</time>
      </trkpt>
      <trkpt lat="41.31087" lon="20.63848">
        <ele>734.815328</ele>
        <time>2022-04-27T11:43:48.742Z</time>
      </trkpt>
      <trkpt lat="41.3108" lon="20.63837">
        <ele>734.551763</ele>
        <time>2022-04-27T11:43:51.741Z</time>
      </trkpt>
      <trkpt lat="41.31075" lon="20.63823">
        <ele>734.257867</ele>
        <time>2022-04-27T11:43:54.729Z</time>
      </trkpt>
      <trkpt lat="41.3107" lon="20.63808">
        <ele>733.961747</ele>
        <time>2022-04-27T11:43:57.745Z</time>
      </trkpt>
      <trkpt lat="41.31066" lon="20.63795">
        <ele>733.693485</ele>
        <time>2022-04-27T11:44:00.742Z</time>
      </trkpt>
      <trkpt lat="41.31062" lon="20.63782">
        <ele>733.421069</ele>
        <time>2022-04-27T11:44:03.733Z</time>
      </trkpt>
      <trkpt lat="41.31058" lon="20.63768">
        <ele>733.63699</ele>
        <time>2022-04-27T11:44:06.734Z</time>
      </trkpt>
      <trkpt lat="41.31055" lon="20.63755">
        <ele>734.655525</ele>
        <time>2022-04-27T11:44:09.733Z</time>
      </trkpt>
      <trkpt lat="41.31051" lon="20.6374">
        <ele>735.684902</ele>
        <time>2022-04-27T11:44:12.759Z</time>
      </trkpt>
      <trkpt lat="41.31047" lon="20.63725">
        <ele>736.82063</ele>
        <time>2022-04-27T11:44:15.729Z</time>
      </trkpt>
      <trkpt lat="41.31044" lon="20.63709">
        <ele>737.937725</ele>
        <time>2022-04-27T11:44:18.730Z</time>
      </trkpt>
      <trkpt lat="41.31043" lon="20.63694">
        <ele>739.027777</ele>
        <time>2022-04-27T11:44:21.732Z</time>
      </trkpt>
      <trkpt lat="41.31043" lon="20.63679">
        <ele>740.091464</ele>
        <time>2022-04-27T11:44:24.734Z</time>
      </trkpt>
      <trkpt lat="41.31042" lon="20.63665">
        <ele>741.050226</ele>
        <time>2022-04-27T11:44:27.740Z</time>
      </trkpt>
      <trkpt lat="41.31041" lon="20.63653">
        <ele>741.891774</ele>
        <time>2022-04-27T11:44:30.748Z</time>
      </trkpt>
      <trkpt lat="41.31042" lon="20.63638">
        <ele>742.907022</ele>
        <time>2022-04-27T11:44:34.737Z</time>
      </trkpt>
      <trkpt lat="41.31042" lon="20.63625">
        <ele>743.845839</ele>
        <time>2022-04-27T11:44:37.735Z</time>
      </trkpt>
      <trkpt lat="41.31042" lon="20.63611">
        <ele>744.777294</ele>
        <time>2022-04-27T11:44:40.741Z</time>
      </trkpt>
      <trkpt lat="41.31043" lon="20.63598">
        <ele>745.69713</ele>
        <time>2022-04-27T11:44:43.742Z</time>
      </trkpt>
      <trkpt lat="41.31043" lon="20.63586">
        <ele>746.567797</ele>
        <time>2022-04-27T11:44:46.765Z</time>
      </trkpt>
      <trkpt lat="41.31044" lon="20.63572">
        <ele>747.518619</ele>
        <time>2022-04-27T11:44:49.732Z</time>
      </trkpt>
      <trkpt lat="41.31044" lon="20.6356">
        <ele>748.36913</ele>
        <time>2022-04-27T11:44:52.734Z</time>
      </trkpt>
      <trkpt lat="41.31044" lon="20.63548">
        <ele>749.217625</ele>
        <time>2022-04-27T11:44:55.741Z</time>
      </trkpt>
      <trkpt lat="41.31045" lon="20.63535">
        <ele>749.892035</ele>
        <time>2022-04-27T11:44:58.741Z</time>
      </trkpt>
      <trkpt lat="41.31044" lon="20.63521">
        <ele>749.846996</ele>
        <time>2022-04-27T11:45:01.735Z</time>
      </trkpt>
      <trkpt lat="41.31044" lon="20.63509">
        <ele>749.80422</ele>
        <time>2022-04-27T11:45:04.735Z</time>
      </trkpt>
      <trkpt lat="41.31043" lon="20.63495">
        <ele>749.756998</ele>
        <time>2022-04-27T11:45:07.731Z</time>
      </trkpt>
      <trkpt lat="41.31043" lon="20.6348">
        <ele>749.704701</ele>
        <time>2022-04-27T11:45:10.735Z</time>
      </trkpt>
      <trkpt lat="41.31042" lon="20.63466">
        <ele>749.658424</ele>
        <time>2022-04-27T11:45:13.739Z</time>
      </trkpt>
      <trkpt lat="41.31041" lon="20.6345">
        <ele>749.605527</ele>
        <time>2022-04-27T11:45:16.737Z</time>
      </trkpt>
      <trkpt lat="41.31039" lon="20.63437">
        <ele>749.55754</ele>
        <time>2022-04-27T11:45:19.734Z</time>
      </trkpt>
      <trkpt lat="41.31035" lon="20.63423">
        <ele>749.509228</ele>
        <time>2022-04-27T11:45:22.737Z</time>
      </trkpt>
      <trkpt lat="41.31031" lon="20.63411">
        <ele>749.462477</ele>
        <time>2022-04-27T11:45:25.762Z</time>
      </trkpt>
      <trkpt lat="41.31026" lon="20.63398">
        <ele>749.414633</ele>
        <time>2022-04-27T11:45:28.737Z</time>
      </trkpt>
      <trkpt lat="41.31021" lon="20.63385">
        <ele>749.36394</ele>
        <time>2022-04-27T11:45:31.728Z</time>
      </trkpt>
      <trkpt lat="41.31017" lon="20.63371">
        <ele>749.313221</ele>
        <time>2022-04-27T11:45:34.737Z</time>
      </trkpt>
      <trkpt lat="41.31013" lon="20.63358">
        <ele>749.266595</ele>
        <time>2022-04-27T11:45:37.759Z</time>
      </trkpt>
      <trkpt lat="41.31011" lon="20.63345">
        <ele>749.220125</ele>
        <time>2022-04-27T11:45:40.737Z</time>
      </trkpt>
      <trkpt lat="41.31008" lon="20.63332">
        <ele>749.174651</ele>
        <time>2022-04-27T11:45:43.739Z</time>
      </trkpt>
      <trkpt lat="41.31007" lon="20.63319">
        <ele>749.130403</ele>
        <time>2022-04-27T11:45:46.743Z</time>
      </trkpt>
      <trkpt lat="41.31007" lon="20.63305">
        <ele>749.009709</ele>
        <time>2022-04-27T11:45:49.731Z</time>
      </trkpt>
      <trkpt lat="41.31007" lon="20.63291">
        <ele>748.491126</ele>
        <time>2022-04-27T11:45:52.736Z</time>
      </trkpt>
      <trkpt lat="41.31006" lon="20.63276">
        <ele>747.975896</ele>
        <time>2022-04-27T11:45:55.738Z</time>
      </trkpt>
      <trkpt lat="41.31005" lon="20.63263">
        <ele>747.473649</ele>
        <time>2022-04-27T11:45:58.753Z</time>
      </trkpt>
      <trkpt lat="41.31004" lon="20.63249">
        <ele>746.95796</ele>
        <time>2022-04-27T11:46:01.742Z</time>
      </trkpt>
      <trkpt lat="41.31002" lon="20.63233">
        <ele>746.378884</ele>
        <time>2022-04-27T11:46:04.736Z</time>
      </trkpt>
      <trkpt lat="41.31" lon="20.63221">
        <ele>745.930674</ele>
        <time>2022-04-27T11:46:06.743Z</time>
      </trkpt>
      <trkpt lat="41.30996" lon="20.63205">
        <ele>745.336427</ele>
        <time>2022-04-27T11:46:09.737Z</time>
      </trkpt>
      <trkpt lat="41.30991" lon="20.63191">
        <ele>744.767147</ele>
        <time>2022-04-27T11:46:12.738Z</time>
      </trkpt>
      <trkpt lat="41.30984" lon="20.63179">
        <ele>744.230644</ele>
        <time>2022-04-27T11:46:15.737Z</time>
      </trkpt>
      <trkpt lat="41.30976" lon="20.63171">
        <ele>743.736283</ele>
        <time>2022-04-27T11:46:18.730Z</time>
      </trkpt>
      <trkpt lat="41.30967" lon="20.63165">
        <ele>743.243756</ele>
        <time>2022-04-27T11:46:21.732Z</time>
      </trkpt>
      <trkpt lat="41.30957" lon="20.6316">
        <ele>742.734516</ele>
        <time>2022-04-27T11:46:24.738Z</time>
      </trkpt>
      <trkpt lat="41.30947" lon="20.63155">
        <ele>742.200937</ele>
        <time>2022-04-27T11:46:27.761Z</time>
      </trkpt>
      <trkpt lat="41.30935" lon="20.63151">
        <ele>741.617711</ele>
        <time>2022-04-27T11:46:30.727Z</time>
      </trkpt>
      <trkpt lat="41.30923" lon="20.63148">
        <ele>741.020729</ele>
        <time>2022-04-27T11:46:33.735Z</time>
      </trkpt>
      <trkpt lat="41.30911" lon="20.63149">
        <ele>740.426604</ele>
        <time>2022-04-27T11:46:36.733Z</time>
      </trkpt>
      <trkpt lat="41.30901" lon="20.63151">
        <ele>739.960508</ele>
        <time>2022-04-27T11:46:39.735Z</time>
      </trkpt>
      <trkpt lat="41.30892" lon="20.63154">
        <ele>739.541989</ele>
        <time>2022-04-27T11:46:42.735Z</time>
      </trkpt>
      <trkpt lat="41.30882" lon="20.63157">
        <ele>739.065275</ele>
        <time>2022-04-27T11:46:45.732Z</time>
      </trkpt>
      <trkpt lat="41.30871" lon="20.6316">
        <ele>738.532845</ele>
        <time>2022-04-27T11:46:48.737Z</time>
      </trkpt>
      <trkpt lat="41.30859" lon="20.6316">
        <ele>737.989577</ele>
        <time>2022-04-27T11:46:51.735Z</time>
      </trkpt>
      <trkpt lat="41.30847" lon="20.63158">
        <ele>737.442328</ele>
        <time>2022-04-27T11:46:54.733Z</time>
      </trkpt>
      <trkpt lat="41.30837" lon="20.63155">
        <ele>736.936028</ele>
        <time>2022-04-27T11:46:57.728Z</time>
      </trkpt>
      <trkpt lat="41.30827" lon="20.63151">
        <ele>736.465572</ele>
        <time>2022-04-27T11:47:00.775Z</time>
      </trkpt>
      <trkpt lat="41.30818" lon="20.63146">
        <ele>735.998747</ele>
        <time>2022-04-27T11:47:03.736Z</time>
      </trkpt>
      <trkpt lat="41.30808" lon="20.63141">
        <ele>735.528194</ele>
        <time>2022-04-27T11:47:06.754Z</time>
      </trkpt>
      <trkpt lat="41.30797" lon="20.63134">
        <ele>734.966569</ele>
        <time>2022-04-27T11:47:09.747Z</time>
      </trkpt>
      <trkpt lat="41.30786" lon="20.63126">
        <ele>734.384602</ele>
        <time>2022-04-27T11:47:12.732Z</time>
      </trkpt>
      <trkpt lat="41.30776" lon="20.63119">
        <ele>733.834617</ele>
        <time>2022-04-27T11:47:15.734Z</time>
      </trkpt>
      <trkpt lat="41.30766" lon="20.63112">
        <ele>733.336232</ele>
        <time>2022-04-27T11:47:18.737Z</time>
      </trkpt>
      <trkpt lat="41.30757" lon="20.63106">
        <ele>732.845305</ele>
        <time>2022-04-27T11:47:21.732Z</time>
      </trkpt>
      <trkpt lat="41.30748" lon="20.631">
        <ele>732.378049</ele>
        <time>2022-04-27T11:47:24.735Z</time>
      </trkpt>
      <trkpt lat="41.30739" lon="20.63093">
        <ele>732.128521</ele>
        <time>2022-04-27T11:47:27.731Z</time>
      </trkpt>
      <trkpt lat="41.30731" lon="20.63087">
        <ele>732.323051</ele>
        <time>2022-04-27T11:47:30.732Z</time>
      </trkpt>
      <trkpt lat="41.30722" lon="20.6308">
        <ele>732.531308</ele>
        <time>2022-04-27T11:47:33.764Z</time>
      </trkpt>
      <trkpt lat="41.30714" lon="20.63074">
        <ele>732.737212</ele>
        <time>2022-04-27T11:47:36.755Z</time>
      </trkpt>
      <trkpt lat="41.30705" lon="20.63068">
        <ele>732.949446</ele>
        <time>2022-04-27T11:47:39.732Z</time>
      </trkpt>
      <trkpt lat="41.30696" lon="20.63061">
        <ele>733.155228</ele>
        <time>2022-04-27T11:47:42.736Z</time>
      </trkpt>
      <trkpt lat="41.30688" lon="20.63054">
        <ele>733.367059</ele>
        <time>2022-04-27T11:47:45.740Z</time>
      </trkpt>
      <trkpt lat="41.30678" lon="20.63047">
        <ele>733.586679</ele>
        <time>2022-04-27T11:47:48.730Z</time>
      </trkpt>
      <trkpt lat="41.3067" lon="20.63041">
        <ele>733.79591</ele>
        <time>2022-04-27T11:47:51.736Z</time>
      </trkpt>
      <trkpt lat="41.30661" lon="20.63036">
        <ele>734.006587</ele>
        <time>2022-04-27T11:47:54.734Z</time>
      </trkpt>
      <trkpt lat="41.3065" lon="20.6303">
        <ele>734.24093</ele>
        <time>2022-04-27T11:47:57.733Z</time>
      </trkpt>
      <trkpt lat="41.30639" lon="20.63024">
        <ele>734.501159</ele>
        <time>2022-04-27T11:48:00.736Z</time>
      </trkpt>
      <trkpt lat="41.30627" lon="20.6302">
        <ele>734.760281</ele>
        <time>2022-04-27T11:48:03.732Z</time>
      </trkpt>
      <trkpt lat="41.30615" lon="20.63017">
        <ele>735.019924</ele>
        <time>2022-04-27T11:48:06.725Z</time>
      </trkpt>
      <trkpt lat="41.30604" lon="20.63019">
        <ele>735.233861</ele>
        <time>2022-04-27T11:48:09.744Z</time>
      </trkpt>
      <trkpt lat="41.30594" lon="20.63022">
        <ele>735.450368</ele>
        <time>2022-04-27T11:48:12.744Z</time>
      </trkpt>
      <trkpt lat="41.30583" lon="20.63027">
        <ele>735.699629</ele>
        <time>2022-04-27T11:48:15.738Z</time>
      </trkpt>
      <trkpt lat="41.30573" lon="20.63031">
        <ele>735.80584</ele>
        <time>2022-04-27T11:48:18.745Z</time>
      </trkpt>
      <trkpt lat="41.30564" lon="20.63037">
        <ele>735.735547</ele>
        <time>2022-04-27T11:48:21.743Z</time>
      </trkpt>
      <trkpt lat="41.30553" lon="20.63043">
        <ele>735.656094</ele>
        <time>2022-04-27T11:48:24.736Z</time>
      </trkpt>
      <trkpt lat="41.30542" lon="20.63047">
        <ele>735.578395</ele>
        <time>2022-04-27T11:48:27.763Z</time>
      </trkpt>
      <trkpt lat="41.30531" lon="20.63049">
        <ele>735.494541</ele>
        <time>2022-04-27T11:48:30.733Z</time>
      </trkpt>
      <trkpt lat="41.30522" lon="20.63049">
        <ele>735.431601</ele>
        <time>2022-04-27T11:48:32.735Z</time>
      </trkpt>
      <trkpt lat="41.30509" lon="20.63046">
        <ele>735.34496</ele>
        <time>2022-04-27T11:48:35.732Z</time>
      </trkpt>
      <trkpt lat="41.30498" lon="20.63042">
        <ele>735.263215</ele>
        <time>2022-04-27T11:48:38.737Z</time>
      </trkpt>
      <trkpt lat="41.30487" lon="20.63037">
        <ele>735.184594</ele>
        <time>2022-04-27T11:48:41.738Z</time>
      </trkpt>
      <trkpt lat="41.30478" lon="20.6303">
        <ele>735.110393</ele>
        <time>2022-04-27T11:48:44.742Z</time>
      </trkpt>
      <trkpt lat="41.30468" lon="20.63024">
        <ele>735.037105</ele>
        <time>2022-04-27T11:48:47.733Z</time>
      </trkpt>
      <trkpt lat="41.30459" lon="20.63018">
        <ele>734.963996</ele>
        <time>2022-04-27T11:48:50.729Z</time>
      </trkpt>
      <trkpt lat="41.30449" lon="20.63012">
        <ele>734.886424</ele>
        <time>2022-04-27T11:48:53.743Z</time>
      </trkpt>
      <trkpt lat="41.3044" lon="20.63006">
        <ele>734.814333</ele>
        <time>2022-04-27T11:48:56.745Z</time>
      </trkpt>
      <trkpt lat="41.30431" lon="20.62999">
        <ele>734.741795</ele>
        <time>2022-04-27T11:48:59.733Z</time>
      </trkpt>
      <trkpt lat="41.30421" lon="20.6299">
        <ele>734.656531</ele>
        <time>2022-04-27T11:49:02.736Z</time>
      </trkpt>
      <trkpt lat="41.30412" lon="20.6298">
        <ele>734.59005</ele>
        <time>2022-04-27T11:49:05.740Z</time>
      </trkpt>
      <trkpt lat="41.30404" lon="20.62968">
        <ele>734.940357</ele>
        <time>2022-04-27T11:49:08.733Z</time>
      </trkpt>
      <trkpt lat="41.30397" lon="20.62958">
        <ele>735.224883</ele>
        <time>2022-04-27T11:49:11.735Z</time>
      </trkpt>
      <trkpt lat="41.30389" lon="20.62948">
        <ele>735.545651</ele>
        <time>2022-04-27T11:49:14.736Z</time>
      </trkpt>
      <trkpt lat="41.30383" lon="20.62937">
        <ele>735.841247</ele>
        <time>2022-04-27T11:49:17.731Z</time>
      </trkpt>
      <trkpt lat="41.30376" lon="20.62926">
        <ele>736.140543</ele>
        <time>2022-04-27T11:49:20.735Z</time>
      </trkpt>
      <trkpt lat="41.3037" lon="20.62917">
        <ele>736.412869</ele>
        <time>2022-04-27T11:49:23.726Z</time>
      </trkpt>
      <trkpt lat="41.30363" lon="20.62907">
        <ele>736.703229</ele>
        <time>2022-04-27T11:49:26.743Z</time>
      </trkpt>
      <trkpt lat="41.30355" lon="20.62898">
        <ele>736.997462</ele>
        <time>2022-04-27T11:49:29.740Z</time>
      </trkpt>
      <trkpt lat="41.30347" lon="20.62891">
        <ele>737.287789</ele>
        <time>2022-04-27T11:49:32.736Z</time>
      </trkpt>
      <trkpt lat="41.30337" lon="20.62885">
        <ele>737.588724</ele>
        <time>2022-04-27T11:49:35.747Z</time>
      </trkpt>
      <trkpt lat="41.30328" lon="20.6288">
        <ele>737.882493</ele>
        <time>2022-04-27T11:49:38.742Z</time>
      </trkpt>
      <trkpt lat="41.30318" lon="20.62874">
        <ele>738.190253</ele>
        <time>2022-04-27T11:49:41.731Z</time>
      </trkpt>
      <trkpt lat="41.30309" lon="20.62866">
        <ele>738.511454</ele>
        <time>2022-04-27T11:49:44.728Z</time>
      </trkpt>
      <trkpt lat="41.303" lon="20.62857">
        <ele>738.832125</ele>
        <time>2022-04-27T11:49:47.733Z</time>
      </trkpt>
      <trkpt lat="41.30291" lon="20.62847">
        <ele>739.169406</ele>
        <time>2022-04-27T11:49:50.744Z</time>
      </trkpt>
      <trkpt lat="41.30284" lon="20.62836">
        <ele>739.482925</ele>
        <time>2022-04-27T11:49:53.736Z</time>
      </trkpt>
      <trkpt lat="41.3028" lon="20.62823">
        <ele>739.797523</ele>
        <time>2022-04-27T11:49:56.758Z</time>
      </trkpt>
      <trkpt lat="41.30276" lon="20.6281">
        <ele>740.156418</ele>
        <time>2022-04-27T11:49:59.744Z</time>
      </trkpt>
      <trkpt lat="41.30273" lon="20.62799">
        <ele>740.48421</ele>
        <time>2022-04-27T11:50:02.738Z</time>
      </trkpt>
      <trkpt lat="41.30271" lon="20.62786">
        <ele>740.854512</ele>
        <time>2022-04-27T11:50:05.740Z</time>
      </trkpt>
      <trkpt lat="41.30269" lon="20.62772">
        <ele>741.235266</ele>
        <time>2022-04-27T11:50:08.769Z</time>
      </trkpt>
      <trkpt lat="41.30268" lon="20.62759">
        <ele>741.605074</ele>
        <time>2022-04-27T11:50:11.728Z</time>
      </trkpt>
      <trkpt lat="41.30267" lon="20.62744">
        <ele>742.033808</ele>
        <time>2022-04-27T11:50:14.736Z</time>
      </trkpt>
      <trkpt lat="41.30266" lon="20.62729">
        <ele>742.448477</ele>
        <time>2022-04-27T11:50:17.735Z</time>
      </trkpt>
      <trkpt lat="41.30265" lon="20.62714">
        <ele>742.83778</ele>
        <time>2022-04-27T11:50:20.740Z</time>
      </trkpt>
      <trkpt lat="41.30265" lon="20.627">
        <ele>743.230493</ele>
        <time>2022-04-27T11:50:23.738Z</time>
      </trkpt>
      <trkpt lat="41.30266" lon="20.62684">
        <ele>743.668828</ele>
        <time>2022-04-27T11:50:26.735Z</time>
      </trkpt>
      <trkpt lat="41.30267" lon="20.62671">
        <ele>744.035247</ele>
        <time>2022-04-27T11:50:29.735Z</time>
      </trkpt>
      <trkpt lat="41.30268" lon="20.62655">
        <ele>744.465901</ele>
        <time>2022-04-27T11:50:32.762Z</time>
      </trkpt>
      <trkpt lat="41.3027" lon="20.62642">
        <ele>744.850637</ele>
        <time>2022-04-27T11:50:35.733Z</time>
      </trkpt>
      <trkpt lat="41.30272" lon="20.62628">
        <ele>745.225965</ele>
        <time>2022-04-27T11:50:38.732Z</time>
      </trkpt>
      <trkpt lat="41.30273" lon="20.62616">
        <ele>745.568865</ele>
        <time>2022-04-27T11:50:41.764Z</time>
      </trkpt>
      <trkpt lat="41.30274" lon="20.62601">
        <ele>745.987077</ele>
        <time>2022-04-27T11:50:45.736Z</time>
      </trkpt>
      <trkpt lat="41.30276" lon="20.62586">
        <ele>746.399723</ele>
        <time>2022-04-27T11:50:49.729Z</time>
      </trkpt>
      <trkpt lat="41.30278" lon="20.6257">
        <ele>746.784278</ele>
        <time>2022-04-27T11:50:53.727Z</time>
      </trkpt>
      <trkpt lat="41.30281" lon="20.62557">
        <ele>747.137556</ele>
        <time>2022-04-27T11:50:57.736Z</time>
      </trkpt>
      <trkpt lat="41.30283" lon="20.62543">
        <ele>747.493981</ele>
        <time>2022-04-27T11:51:00.734Z</time>
      </trkpt>
      <trkpt lat="41.30285" lon="20.62528">
        <ele>747.854758</ele>
        <time>2022-04-27T11:51:03.744Z</time>
      </trkpt>
      <trkpt lat="41.30285" lon="20.62515">
        <ele>748.195791</ele>
        <time>2022-04-27T11:51:06.731Z</time>
      </trkpt>
      <trkpt lat="41.30284" lon="20.62502">
        <ele>748.512905</ele>
        <time>2022-04-27T11:51:09.756Z</time>
      </trkpt>
      <trkpt lat="41.30283" lon="20.62488">
        <ele>748.854467</ele>
        <time>2022-04-27T11:51:12.743Z</time>
      </trkpt>
      <trkpt lat="41.30282" lon="20.62474">
        <ele>749.211823</ele>
        <time>2022-04-27T11:51:15.736Z</time>
      </trkpt>
      <trkpt lat="41.30281" lon="20.62459">
        <ele>749.587168</ele>
        <time>2022-04-27T11:51:18.759Z</time>
      </trkpt>
      <trkpt lat="41.3028" lon="20.62446">
        <ele>749.913396</ele>
        <time>2022-04-27T11:51:21.731Z</time>
      </trkpt>
      <trkpt lat="41.30283" lon="20.62434">
        <ele>750.235175</ele>
        <time>2022-04-27T11:51:24.734Z</time>
      </trkpt>
      <trkpt lat="41.30284" lon="20.62421">
        <ele>750.544852</ele>
        <time>2022-04-27T11:51:27.732Z</time>
      </trkpt>
      <trkpt lat="41.30284" lon="20.62408">
        <ele>750.885756</ele>
        <time>2022-04-27T11:51:30.744Z</time>
      </trkpt>
      <trkpt lat="41.30285" lon="20.62395">
        <ele>751.209836</ele>
        <time>2022-04-27T11:51:33.737Z</time>
      </trkpt>
      <trkpt lat="41.30284" lon="20.62382">
        <ele>751.519813</ele>
        <time>2022-04-27T11:51:36.734Z</time>
      </trkpt>
      <trkpt lat="41.30283" lon="20.62367">
        <ele>751.893283</ele>
        <time>2022-04-27T11:51:40.746Z</time>
      </trkpt>
      <trkpt lat="41.30284" lon="20.62352">
        <ele>752.271509</ele>
        <time>2022-04-27T11:51:44.735Z</time>
      </trkpt>
      <trkpt lat="41.30283" lon="20.62339">
        <ele>752.005679</ele>
        <time>2022-04-27T11:51:47.730Z</time>
      </trkpt>
      <trkpt lat="41.30281" lon="20.62326">
        <ele>751.695254</ele>
        <time>2022-04-27T11:51:50.744Z</time>
      </trkpt>
      <trkpt lat="41.30279" lon="20.62312">
        <ele>751.385366</ele>
        <time>2022-04-27T11:51:53.729Z</time>
      </trkpt>
      <trkpt lat="41.30276" lon="20.62299">
        <ele>751.076204</ele>
        <time>2022-04-27T11:51:56.735Z</time>
      </trkpt>
      <trkpt lat="41.30274" lon="20.62287">
        <ele>750.779512</ele>
        <time>2022-04-27T11:51:59.758Z</time>
      </trkpt>
      <trkpt lat="41.30271" lon="20.62275">
        <ele>750.500417</ele>
        <time>2022-04-27T11:52:02.741Z</time>
      </trkpt>
      <trkpt lat="41.30268" lon="20.62263">
        <ele>750.222306</ele>
        <time>2022-04-27T11:52:05.735Z</time>
      </trkpt>
      <trkpt lat="41.30263" lon="20.62252">
        <ele>749.932722</ele>
        <time>2022-04-27T11:52:08.737Z</time>
      </trkpt>
      <trkpt lat="41.30259" lon="20.62241">
        <ele>749.644368</ele>
        <time>2022-04-27T11:52:11.728Z</time>
      </trkpt>
      <trkpt lat="41.30254" lon="20.6223">
        <ele>749.33918</ele>
        <time>2022-04-27T11:52:14.730Z</time>
      </trkpt>
      <trkpt lat="41.30247" lon="20.62219">
        <ele>749.014702</ele>
        <time>2022-04-27T11:52:17.743Z</time>
      </trkpt>
      <trkpt lat="41.30241" lon="20.62207">
        <ele>748.68845</ele>
        <time>2022-04-27T11:52:20.730Z</time>
      </trkpt>
      <trkpt lat="41.30234" lon="20.62194">
        <ele>748.337038</ele>
        <time>2022-04-27T11:52:23.729Z</time>
      </trkpt>
      <trkpt lat="41.30227" lon="20.62181">
        <ele>747.953005</ele>
        <time>2022-04-27T11:52:26.733Z</time>
      </trkpt>
      <trkpt lat="41.3022" lon="20.6217">
        <ele>747.637422</ele>
        <time>2022-04-27T11:52:29.735Z</time>
      </trkpt>
      <trkpt lat="41.30212" lon="20.62158">
        <ele>747.272735</ele>
        <time>2022-04-27T11:52:32.741Z</time>
      </trkpt>
      <trkpt lat="41.30203" lon="20.62147">
        <ele>746.907099</ele>
        <time>2022-04-27T11:52:35.734Z</time>
      </trkpt>
      <trkpt lat="41.30196" lon="20.62134">
        <ele>746.78763</ele>
        <time>2022-04-27T11:52:38.736Z</time>
      </trkpt>
      <trkpt lat="41.30189" lon="20.62121">
        <ele>746.727049</ele>
        <time>2022-04-27T11:52:41.745Z</time>
      </trkpt>
      <trkpt lat="41.30181" lon="20.6211">
        <ele>746.670379</ele>
        <time>2022-04-27T11:52:44.761Z</time>
      </trkpt>
      <trkpt lat="41.30173" lon="20.62097">
        <ele>746.607067</ele>
        <time>2022-04-27T11:52:47.733Z</time>
      </trkpt>
      <trkpt lat="41.30164" lon="20.62084">
        <ele>746.541284</ele>
        <time>2022-04-27T11:52:50.738Z</time>
      </trkpt>
      <trkpt lat="41.30155" lon="20.62075">
        <ele>746.483441</ele>
        <time>2022-04-27T11:52:53.735Z</time>
      </trkpt>
      <trkpt lat="41.30146" lon="20.62068">
        <ele>746.43064</ele>
        <time>2022-04-27T11:52:56.736Z</time>
      </trkpt>
      <trkpt lat="41.30136" lon="20.62062">
        <ele>746.374242</ele>
        <time>2022-04-27T11:52:59.740Z</time>
      </trkpt>
      <trkpt lat="41.30127" lon="20.62056">
        <ele>746.322309</ele>
        <time>2022-04-27T11:53:02.757Z</time>
      </trkpt>
      <trkpt lat="41.30117" lon="20.62051">
        <ele>746.270539</ele>
        <time>2022-04-27T11:53:05.735Z</time>
      </trkpt>
      <trkpt lat="41.30107" lon="20.62044">
        <ele>746.21482</ele>
        <time>2022-04-27T11:53:08.737Z</time>
      </trkpt>
      <trkpt lat="41.30098" lon="20.62038">
        <ele>746.163333</ele>
        <time>2022-04-27T11:53:11.749Z</time>
      </trkpt>
      <trkpt lat="41.30089" lon="20.62032">
        <ele>746.111513</ele>
        <time>2022-04-27T11:53:14.750Z</time>
      </trkpt>
      <trkpt lat="41.3008" lon="20.62026">
        <ele>746.059692</ele>
        <time>2022-04-27T11:53:17.741Z</time>
      </trkpt>
      <trkpt lat="41.3007" lon="20.6202">
        <ele>746.004846</ele>
        <time>2022-04-27T11:53:20.737Z</time>
      </trkpt>
      <trkpt lat="41.30059" lon="20.62016">
        <ele>745.945044</ele>
        <time>2022-04-27T11:53:23.764Z</time>
      </trkpt>
      <trkpt lat="41.30047" lon="20.6201">
        <ele>746.187868</ele>
        <time>2022-04-27T11:53:26.732Z</time>
      </trkpt>
      <trkpt lat="41.30036" lon="20.62004">
        <ele>746.5129</ele>
        <time>2022-04-27T11:53:29.744Z</time>
      </trkpt>
      <trkpt lat="41.30024" lon="20.61999">
        <ele>746.845869</ele>
        <time>2022-04-27T11:53:32.750Z</time>
      </trkpt>
      <trkpt lat="41.30012" lon="20.61994">
        <ele>747.169898</ele>
        <time>2022-04-27T11:53:35.736Z</time>
      </trkpt>
      <trkpt lat="41.3" lon="20.6199">
        <ele>747.507846</ele>
        <time>2022-04-27T11:53:38.731Z</time>
      </trkpt>
      <trkpt lat="41.29988" lon="20.61985">
        <ele>747.841118</ele>
        <time>2022-04-27T11:53:41.733Z</time>
      </trkpt>
      <trkpt lat="41.29978" lon="20.61983">
        <ele>748.141066</ele>
        <time>2022-04-27T11:53:44.732Z</time>
      </trkpt>
      <trkpt lat="41.29968" lon="20.6198">
        <ele>748.406935</ele>
        <time>2022-04-27T11:53:47.739Z</time>
      </trkpt>
      <trkpt lat="41.29957" lon="20.61976">
        <ele>748.725799</ele>
        <time>2022-04-27T11:53:51.755Z</time>
      </trkpt>
      <trkpt lat="41.29946" lon="20.61975">
        <ele>749.006905</ele>
        <time>2022-04-27T11:53:54.736Z</time>
      </trkpt>
      <trkpt lat="41.29936" lon="20.61974">
        <ele>749.27498</ele>
        <time>2022-04-27T11:53:57.755Z</time>
      </trkpt>
      <trkpt lat="41.29925" lon="20.61974">
        <ele>749.566418</ele>
        <time>2022-04-27T11:54:00.735Z</time>
      </trkpt>
      <trkpt lat="41.29915" lon="20.61973">
        <ele>749.855499</ele>
        <time>2022-04-27T11:54:03.731Z</time>
      </trkpt>
      <trkpt lat="41.29904" lon="20.61973">
        <ele>750.146994</ele>
        <time>2022-04-27T11:54:06.733Z</time>
      </trkpt>
      <trkpt lat="41.29893" lon="20.61973">
        <ele>750.441131</ele>
        <time>2022-04-27T11:54:09.754Z</time>
      </trkpt>
      <trkpt lat="41.29883" lon="20.61972">
        <ele>750.719963</ele>
        <time>2022-04-27T11:54:12.752Z</time>
      </trkpt>
      <trkpt lat="41.29872" lon="20.61972">
        <ele>750.786396</ele>
        <time>2022-04-27T11:54:15.726Z</time>
      </trkpt>
      <trkpt lat="41.2986" lon="20.6197">
        <ele>750.789748</ele>
        <time>2022-04-27T11:54:18.744Z</time>
      </trkpt>
      <trkpt lat="41.29848" lon="20.6197">
        <ele>750.792982</ele>
        <time>2022-04-27T11:54:21.732Z</time>
      </trkpt>
      <trkpt lat="41.29836" lon="20.61972">
        <ele>750.796437</ele>
        <time>2022-04-27T11:54:24.740Z</time>
      </trkpt>
      <trkpt lat="41.29825" lon="20.61975">
        <ele>750.799825</ele>
        <time>2022-04-27T11:54:27.743Z</time>
      </trkpt>
      <trkpt lat="41.29814" lon="20.61978">
        <ele>750.802831</ele>
        <time>2022-04-27T11:54:30.741Z</time>
      </trkpt>
      <trkpt lat="41.29803" lon="20.61978">
        <ele>750.806008</ele>
        <time>2022-04-27T11:54:33.733Z</time>
      </trkpt>
      <trkpt lat="41.29792" lon="20.61983">
        <ele>750.809299</ele>
        <time>2022-04-27T11:54:36.764Z</time>
      </trkpt>
      <trkpt lat="41.29781" lon="20.61986">
        <ele>750.812521</ele>
        <time>2022-04-27T11:54:39.729Z</time>
      </trkpt>
      <trkpt lat="41.29768" lon="20.6199">
        <ele>750.816186</ele>
        <time>2022-04-27T11:54:42.753Z</time>
      </trkpt>
      <trkpt lat="41.29756" lon="20.61992">
        <ele>750.81968</ele>
        <time>2022-04-27T11:54:45.736Z</time>
      </trkpt>
      <trkpt lat="41.29744" lon="20.61993">
        <ele>750.823081</ele>
        <time>2022-04-27T11:54:48.742Z</time>
      </trkpt>
      <trkpt lat="41.29733" lon="20.61991">
        <ele>750.826127</ele>
        <time>2022-04-27T11:54:51.732Z</time>
      </trkpt>
      <trkpt lat="41.29723" lon="20.61989">
        <ele>750.829173</ele>
        <time>2022-04-27T11:54:54.735Z</time>
      </trkpt>
      <trkpt lat="41.29711" lon="20.61988">
        <ele>750.832379</ele>
        <time>2022-04-27T11:54:57.755Z</time>
      </trkpt>
      <trkpt lat="41.297" lon="20.61988">
        <ele>750.903683</ele>
        <time>2022-04-27T11:55:00.734Z</time>
      </trkpt>
      <trkpt lat="41.29688" lon="20.61989">
        <ele>751.21699</ele>
        <time>2022-04-27T11:55:03.748Z</time>
      </trkpt>
      <trkpt lat="41.29676" lon="20.6199">
        <ele>751.52043</ele>
        <time>2022-04-27T11:55:06.741Z</time>
      </trkpt>
      <trkpt lat="41.29664" lon="20.61989">
        <ele>751.821109</ele>
        <time>2022-04-27T11:55:09.733Z</time>
      </trkpt>
      <trkpt lat="41.29653" lon="20.61986">
        <ele>752.102216</ele>
        <time>2022-04-27T11:55:12.739Z</time>
      </trkpt>
      <trkpt lat="41.29643" lon="20.61985">
        <ele>752.36547</ele>
        <time>2022-04-27T11:55:15.732Z</time>
      </trkpt>
      <trkpt lat="41.29633" lon="20.61983">
        <ele>752.626834</ele>
        <time>2022-04-27T11:55:18.733Z</time>
      </trkpt>
      <trkpt lat="41.29623" lon="20.61983">
        <ele>752.891717</ele>
        <time>2022-04-27T11:55:21.746Z</time>
      </trkpt>
      <trkpt lat="41.29613" lon="20.61981">
        <ele>753.155395</ele>
        <time>2022-04-27T11:55:24.734Z</time>
      </trkpt>
      <trkpt lat="41.29602" lon="20.6198">
        <ele>753.420277</ele>
        <time>2022-04-27T11:55:27.735Z</time>
      </trkpt>
      <trkpt lat="41.29592" lon="20.6198">
        <ele>753.684774</ele>
        <time>2022-04-27T11:55:30.737Z</time>
      </trkpt>
      <trkpt lat="41.29582" lon="20.6198">
        <ele>753.936377</ele>
        <time>2022-04-27T11:55:33.737Z</time>
      </trkpt>
      <trkpt lat="41.29572" lon="20.61981">
        <ele>754.185884</ele>
        <time>2022-04-27T11:55:36.735Z</time>
      </trkpt>
      <trkpt lat="41.29562" lon="20.61983">
        <ele>754.46302</ele>
        <time>2022-04-27T11:55:39.736Z</time>
      </trkpt>
      <trkpt lat="41.29551" lon="20.61987">
        <ele>754.757267</ele>
        <time>2022-04-27T11:55:42.729Z</time>
      </trkpt>
      <trkpt lat="41.2954" lon="20.61991">
        <ele>755.045943</ele>
        <time>2022-04-27T11:55:45.733Z</time>
      </trkpt>
      <trkpt lat="41.29528" lon="20.61997">
        <ele>755.363057</ele>
        <time>2022-04-27T11:55:48.744Z</time>
      </trkpt>
      <trkpt lat="41.29517" lon="20.62003">
        <ele>755.204777</ele>
        <time>2022-04-27T11:55:51.730Z</time>
      </trkpt>
      <trkpt lat="41.29505" lon="20.6201">
        <ele>754.828258</ele>
        <time>2022-04-27T11:55:54.737Z</time>
      </trkpt>
      <trkpt lat="41.29494" lon="20.62017">
        <ele>754.477913</ele>
        <time>2022-04-27T11:55:57.737Z</time>
      </trkpt>
      <trkpt lat="41.29483" lon="20.62024">
        <ele>754.115199</ele>
        <time>2022-04-27T11:56:00.737Z</time>
      </trkpt>
      <trkpt lat="41.29472" lon="20.62031">
        <ele>753.770129</ele>
        <time>2022-04-27T11:56:03.740Z</time>
      </trkpt>
      <trkpt lat="41.29462" lon="20.62037">
        <ele>753.455507</ele>
        <time>2022-04-27T11:56:06.736Z</time>
      </trkpt>
      <trkpt lat="41.29452" lon="20.62045">
        <ele>753.136765</ele>
        <time>2022-04-27T11:56:09.760Z</time>
      </trkpt>
      <trkpt lat="41.29442" lon="20.62053">
        <ele>752.800881</ele>
        <time>2022-04-27T11:56:12.732Z</time>
      </trkpt>
      <trkpt lat="41.29432" lon="20.6206">
        <ele>752.480323</ele>
        <time>2022-04-27T11:56:15.732Z</time>
      </trkpt>
      <trkpt lat="41.29424" lon="20.62068">
        <ele>752.184296</ele>
        <time>2022-04-27T11:56:18.732Z</time>
      </trkpt>
      <trkpt lat="41.29416" lon="20.62075">
        <ele>751.904972</ele>
        <time>2022-04-27T11:56:21.746Z</time>
      </trkpt>
      <trkpt lat="41.29407" lon="20.62083">
        <ele>751.593391</ele>
        <time>2022-04-27T11:56:24.737Z</time>
      </trkpt>
      <trkpt lat="41.29397" lon="20.62091">
        <ele>751.273898</ele>
        <time>2022-04-27T11:56:27.729Z</time>
      </trkpt>
      <trkpt lat="41.29387" lon="20.62098">
        <ele>750.95044</ele>
        <time>2022-04-27T11:56:30.728Z</time>
      </trkpt>
      <trkpt lat="41.29376" lon="20.62105">
        <ele>750.585836</ele>
        <time>2022-04-27T11:56:33.735Z</time>
      </trkpt>
      <trkpt lat="41.29364" lon="20.62112">
        <ele>750.348876</ele>
        <time>2022-04-27T11:56:36.733Z</time>
      </trkpt>
      <trkpt lat="41.29352" lon="20.62117">
        <ele>750.633625</ele>
        <time>2022-04-27T11:56:39.731Z</time>
      </trkpt>
      <trkpt lat="41.29344" lon="20.62119">
        <ele>750.84177</ele>
        <time>2022-04-27T11:56:41.732Z</time>
      </trkpt>
      <trkpt lat="41.29335" lon="20.62122">
        <ele>751.050301</ele>
        <time>2022-04-27T11:56:43.739Z</time>
      </trkpt>
      <trkpt lat="41.29322" lon="20.62125">
        <ele>751.332308</ele>
        <time>2022-04-27T11:56:46.738Z</time>
      </trkpt>
      <trkpt lat="41.29311" lon="20.62126">
        <ele>751.588518</ele>
        <time>2022-04-27T11:56:49.732Z</time>
      </trkpt>
      <trkpt lat="41.29301" lon="20.62126">
        <ele>751.818878</ele>
        <time>2022-04-27T11:56:52.733Z</time>
      </trkpt>
      <trkpt lat="41.29291" lon="20.62125">
        <ele>752.056768</ele>
        <time>2022-04-27T11:56:55.736Z</time>
      </trkpt>
      <trkpt lat="41.29279" lon="20.62124">
        <ele>752.328308</ele>
        <time>2022-04-27T11:56:58.750Z</time>
      </trkpt>
      <trkpt lat="41.29267" lon="20.62122">
        <ele>752.606334</ele>
        <time>2022-04-27T11:57:01.733Z</time>
      </trkpt>
      <trkpt lat="41.29256" lon="20.62118">
        <ele>752.856652</ele>
        <time>2022-04-27T11:57:04.742Z</time>
      </trkpt>
      <trkpt lat="41.29247" lon="20.62113">
        <ele>753.083485</ele>
        <time>2022-04-27T11:57:07.733Z</time>
      </trkpt>
      <trkpt lat="41.29238" lon="20.62111">
        <ele>753.296045</ele>
        <time>2022-04-27T11:57:10.754Z</time>
      </trkpt>
      <trkpt lat="41.29229" lon="20.62107">
        <ele>753.511364</ele>
        <time>2022-04-27T11:57:13.729Z</time>
      </trkpt>
      <trkpt lat="41.29219" lon="20.62102">
        <ele>753.744307</ele>
        <time>2022-04-27T11:57:16.754Z</time>
      </trkpt>
      <trkpt lat="41.29208" lon="20.62098">
        <ele>754.010929</ele>
        <time>2022-04-27T11:57:20.736Z</time>
      </trkpt>
      <trkpt lat="41.29198" lon="20.62092">
        <ele>754.262479</ele>
        <time>2022-04-27T11:57:23.734Z</time>
      </trkpt>
      <trkpt lat="41.29188" lon="20.62087">
        <ele>754.575144</ele>
        <time>2022-04-27T11:57:26.728Z</time>
      </trkpt>
      <trkpt lat="41.29177" lon="20.62082">
        <ele>754.958059</ele>
        <time>2022-04-27T11:57:29.737Z</time>
      </trkpt>
      <trkpt lat="41.29167" lon="20.62076">
        <ele>755.340974</ele>
        <time>2022-04-27T11:57:32.734Z</time>
      </trkpt>
      <trkpt lat="41.29156" lon="20.62071">
        <ele>755.743153</ele>
        <time>2022-04-27T11:57:35.725Z</time>
      </trkpt>
      <trkpt lat="41.29146" lon="20.62064">
        <ele>756.122403</ele>
        <time>2022-04-27T11:57:38.736Z</time>
      </trkpt>
      <trkpt lat="41.29136" lon="20.62058">
        <ele>756.490536</ele>
        <time>2022-04-27T11:57:41.731Z</time>
      </trkpt>
      <trkpt lat="41.29126" lon="20.62052">
        <ele>756.87066</ele>
        <time>2022-04-27T11:57:44.728Z</time>
      </trkpt>
      <trkpt lat="41.29116" lon="20.62045">
        <ele>757.233906</ele>
        <time>2022-04-27T11:57:47.732Z</time>
      </trkpt>
      <trkpt lat="41.29107" lon="20.62039">
        <ele>757.603678</ele>
        <time>2022-04-27T11:57:50.732Z</time>
      </trkpt>
      <trkpt lat="41.29097" lon="20.62032">
        <ele>757.967593</ele>
        <time>2022-04-27T11:57:53.736Z</time>
      </trkpt>
      <trkpt lat="41.29088" lon="20.62026">
        <ele>758.334168</ele>
        <time>2022-04-27T11:57:56.738Z</time>
      </trkpt>
      <trkpt lat="41.29078" lon="20.6202">
        <ele>758.700002</ele>
        <time>2022-04-27T11:57:59.761Z</time>
      </trkpt>
      <trkpt lat="41.29068" lon="20.62013">
        <ele>759.071141</ele>
        <time>2022-04-27T11:58:02.741Z</time>
      </trkpt>
      <trkpt lat="41.29059" lon="20.62005">
        <ele>759.44549</ele>
        <time>2022-04-27T11:58:05.759Z</time>
      </trkpt>
      <trkpt lat="41.29049" lon="20.61997">
        <ele>759.862893</ele>
        <time>2022-04-27T11:58:08.749Z</time>
      </trkpt>
      <trkpt lat="41.29039" lon="20.6199">
        <ele>760.230361</ele>
        <time>2022-04-27T11:58:11.766Z</time>
      </trkpt>
      <trkpt lat="41.29029" lon="20.61987">
        <ele>760.512931</ele>
        <time>2022-04-27T11:58:14.735Z</time>
      </trkpt>
      <trkpt lat="41.29019" lon="20.6198">
        <ele>760.257771</ele>
        <time>2022-04-27T11:58:17.733Z</time>
      </trkpt>
      <trkpt lat="41.29008" lon="20.61975">
        <ele>760.000777</ele>
        <time>2022-04-27T11:58:20.728Z</time>
      </trkpt>
      <trkpt lat="41.28997" lon="20.61971">
        <ele>759.750097</ele>
        <time>2022-04-27T11:58:23.752Z</time>
      </trkpt>
      <trkpt lat="41.28987" lon="20.61966">
        <ele>759.503147</ele>
        <time>2022-04-27T11:58:26.738Z</time>
      </trkpt>
      <trkpt lat="41.28976" lon="20.61961">
        <ele>759.250848</ele>
        <time>2022-04-27T11:58:29.737Z</time>
      </trkpt>
      <trkpt lat="41.28965" lon="20.61956">
        <ele>758.997558</ele>
        <time>2022-04-27T11:58:32.743Z</time>
      </trkpt>
      <trkpt lat="41.28955" lon="20.6195">
        <ele>758.755437</ele>
        <time>2022-04-27T11:58:35.737Z</time>
      </trkpt>
      <trkpt lat="41.28946" lon="20.61943">
        <ele>758.508823</ele>
        <time>2022-04-27T11:58:38.732Z</time>
      </trkpt>
      <trkpt lat="41.28936" lon="20.61937">
        <ele>758.261886</ele>
        <time>2022-04-27T11:58:41.733Z</time>
      </trkpt>
      <trkpt lat="41.28926" lon="20.6193">
        <ele>758.013276</ele>
        <time>2022-04-27T11:58:44.742Z</time>
      </trkpt>
      <trkpt lat="41.28916" lon="20.61922">
        <ele>757.760629</ele>
        <time>2022-04-27T11:58:47.735Z</time>
      </trkpt>
      <trkpt lat="41.28907" lon="20.61914">
        <ele>757.506254</ele>
        <time>2022-04-27T11:58:50.736Z</time>
      </trkpt>
      <trkpt lat="41.28897" lon="20.61905">
        <ele>757.252814</ele>
        <time>2022-04-27T11:58:53.741Z</time>
      </trkpt>
      <trkpt lat="41.28888" lon="20.61897">
        <ele>756.997483</ele>
        <time>2022-04-27T11:58:56.762Z</time>
      </trkpt>
      <trkpt lat="41.28878" lon="20.61887">
        <ele>756.714697</ele>
        <time>2022-04-27T11:58:59.728Z</time>
      </trkpt>
      <trkpt lat="41.28868" lon="20.61878">
        <ele>756.389337</ele>
        <time>2022-04-27T11:59:02.741Z</time>
      </trkpt>
      <trkpt lat="41.2886" lon="20.61867">
        <ele>755.889068</ele>
        <time>2022-04-27T11:59:05.737Z</time>
      </trkpt>
      <trkpt lat="41.28851" lon="20.61859">
        <ele>755.416448</ele>
        <time>2022-04-27T11:59:08.744Z</time>
      </trkpt>
      <trkpt lat="41.28842" lon="20.61849">
        <ele>754.913294</ele>
        <time>2022-04-27T11:59:11.739Z</time>
      </trkpt>
      <trkpt lat="41.28834" lon="20.61839">
        <ele>754.444758</ele>
        <time>2022-04-27T11:59:14.737Z</time>
      </trkpt>
      <trkpt lat="41.28826" lon="20.6183">
        <ele>753.976301</ele>
        <time>2022-04-27T11:59:17.734Z</time>
      </trkpt>
      <trkpt lat="41.28817" lon="20.6182">
        <ele>753.473944</ele>
        <time>2022-04-27T11:59:20.741Z</time>
      </trkpt>
      <trkpt lat="41.28809" lon="20.6181">
        <ele>752.97593</ele>
        <time>2022-04-27T11:59:23.737Z</time>
      </trkpt>
      <trkpt lat="41.288" lon="20.618">
        <ele>752.488586</ele>
        <time>2022-04-27T11:59:26.740Z</time>
      </trkpt>
      <trkpt lat="41.28792" lon="20.61791">
        <ele>752.015479</ele>
        <time>2022-04-27T11:59:29.731Z</time>
      </trkpt>
      <trkpt lat="41.28783" lon="20.61781">
        <ele>751.518555</ele>
        <time>2022-04-27T11:59:32.741Z</time>
      </trkpt>
      <trkpt lat="41.28775" lon="20.61771">
        <ele>751.018623</ele>
        <time>2022-04-27T11:59:35.766Z</time>
      </trkpt>
      <trkpt lat="41.28766" lon="20.61761">
        <ele>750.537103</ele>
        <time>2022-04-27T11:59:38.736Z</time>
      </trkpt>
      <trkpt lat="41.28757" lon="20.61752">
        <ele>750.014884</ele>
        <time>2022-04-27T11:59:41.735Z</time>
      </trkpt>
      <trkpt lat="41.28747" lon="20.61742">
        <ele>749.512454</ele>
        <time>2022-04-27T11:59:44.735Z</time>
      </trkpt>
      <trkpt lat="41.28737" lon="20.61735">
        <ele>749.007236</ele>
        <time>2022-04-27T11:59:47.739Z</time>
      </trkpt>
      <trkpt lat="41.28727" lon="20.61728">
        <ele>748.691362</ele>
        <time>2022-04-27T11:59:50.737Z</time>
      </trkpt>
      <trkpt lat="41.28716" lon="20.61721">
        <ele>748.67958</ele>
        <time>2022-04-27T11:59:53.737Z</time>
      </trkpt>
      <trkpt lat="41.28707" lon="20.61715">
        <ele>748.668867</ele>
        <time>2022-04-27T11:59:56.738Z</time>
      </trkpt>
      <trkpt lat="41.28698" lon="20.6171">
        <ele>748.659027</ele>
        <time>2022-04-27T11:59:59.731Z</time>
      </trkpt>
      <trkpt lat="41.28689" lon="20.61704">
        <ele>748.648407</ele>
        <time>2022-04-27T12:00:03.744Z</time>
      </trkpt>
      <trkpt lat="41.2868" lon="20.61699">
        <ele>748.638971</ele>
        <time>2022-04-27T12:00:07.745Z</time>
      </trkpt>
      <trkpt lat="41.28669" lon="20.61694">
        <ele>748.627189</ele>
        <time>2022-04-27T12:00:12.730Z</time>
      </trkpt>
      <trkpt lat="41.28659" lon="20.61689">
        <ele>748.615382</ele>
        <time>2022-04-27T12:00:16.734Z</time>
      </trkpt>
      <trkpt lat="41.2865" lon="20.61683">
        <ele>748.605998</ele>
        <time>2022-04-27T12:00:19.757Z</time>
      </trkpt>
      <trkpt lat="41.28642" lon="20.61677">
        <ele>748.596489</ele>
        <time>2022-04-27T12:00:22.735Z</time>
      </trkpt>
      <trkpt lat="41.28633" lon="20.61673">
        <ele>748.586792</ele>
        <time>2022-04-27T12:00:25.774Z</time>
      </trkpt>
      <trkpt lat="41.28623" lon="20.61669">
        <ele>748.575518</ele>
        <time>2022-04-27T12:00:28.733Z</time>
      </trkpt>
      <trkpt lat="41.28613" lon="20.61662">
        <ele>748.564458</ele>
        <time>2022-04-27T12:00:31.734Z</time>
      </trkpt>
      <trkpt lat="41.28604" lon="20.61652">
        <ele>748.552767</ele>
        <time>2022-04-27T12:00:34.745Z</time>
      </trkpt>
      <trkpt lat="41.28595" lon="20.61645">
        <ele>748.541518</ele>
        <time>2022-04-27T12:00:37.732Z</time>
      </trkpt>
      <trkpt lat="41.28585" lon="20.61639">
        <ele>748.530307</ele>
        <time>2022-04-27T12:00:40.738Z</time>
      </trkpt>
      <trkpt lat="41.28575" lon="20.61634">
        <ele>748.519649</ele>
        <time>2022-04-27T12:00:43.736Z</time>
      </trkpt>
      <trkpt lat="41.28565" lon="20.61627">
        <ele>748.292703</ele>
        <time>2022-04-27T12:00:46.738Z</time>
      </trkpt>
      <trkpt lat="41.28556" lon="20.61621">
        <ele>747.705599</ele>
        <time>2022-04-27T12:00:49.735Z</time>
      </trkpt>
      <trkpt lat="41.28546" lon="20.61615">
        <ele>747.090501</ele>
        <time>2022-04-27T12:00:52.746Z</time>
      </trkpt>
      <trkpt lat="41.28536" lon="20.61609">
        <ele>746.47619</ele>
        <time>2022-04-27T12:00:55.735Z</time>
      </trkpt>
      <trkpt lat="41.28526" lon="20.61604">
        <ele>745.873388</ele>
        <time>2022-04-27T12:00:58.759Z</time>
      </trkpt>
      <trkpt lat="41.28517" lon="20.61598">
        <ele>745.344082</ele>
        <time>2022-04-27T12:01:01.741Z</time>
      </trkpt>
      <trkpt lat="41.28508" lon="20.61594">
        <ele>744.768799</ele>
        <time>2022-04-27T12:01:04.734Z</time>
      </trkpt>
      <trkpt lat="41.28497" lon="20.61588">
        <ele>744.142071</ele>
        <time>2022-04-27T12:01:07.730Z</time>
      </trkpt>
      <trkpt lat="41.28485" lon="20.61583">
        <ele>743.448557</ele>
        <time>2022-04-27T12:01:10.740Z</time>
      </trkpt>
      <trkpt lat="41.28473" lon="20.61578">
        <ele>742.753675</ele>
        <time>2022-04-27T12:01:13.755Z</time>
      </trkpt>
      <trkpt lat="41.28461" lon="20.61576">
        <ele>742.053646</ele>
        <time>2022-04-27T12:01:16.735Z</time>
      </trkpt>
      <trkpt lat="41.28449" lon="20.61574">
        <ele>741.359172</ele>
        <time>2022-04-27T12:01:19.727Z</time>
      </trkpt>
      <trkpt lat="41.28436" lon="20.61572">
        <ele>740.665719</ele>
        <time>2022-04-27T12:01:22.746Z</time>
      </trkpt>
      <trkpt lat="41.28425" lon="20.6157">
        <ele>740.015657</ele>
        <time>2022-04-27T12:01:25.744Z</time>
      </trkpt>
      <trkpt lat="41.28413" lon="20.61568">
        <ele>739.33838</ele>
        <time>2022-04-27T12:01:28.736Z</time>
      </trkpt>
      <trkpt lat="41.28401" lon="20.61565">
        <ele>738.680425</ele>
        <time>2022-04-27T12:01:31.728Z</time>
      </trkpt>
      <trkpt lat="41.28391" lon="20.61561">
        <ele>738.50675</ele>
        <time>2022-04-27T12:01:34.744Z</time>
      </trkpt>
      <trkpt lat="41.2838" lon="20.61553">
        <ele>738.617792</ele>
        <time>2022-04-27T12:01:37.727Z</time>
      </trkpt>
      <trkpt lat="41.2837" lon="20.61545">
        <ele>738.732964</ele>
        <time>2022-04-27T12:01:40.737Z</time>
      </trkpt>
      <trkpt lat="41.28362" lon="20.61534">
        <ele>738.844915</ele>
        <time>2022-04-27T12:01:43.753Z</time>
      </trkpt>
      <trkpt lat="41.28354" lon="20.61524">
        <ele>738.946109</ele>
        <time>2022-04-27T12:01:46.748Z</time>
      </trkpt>
      <trkpt lat="41.28348" lon="20.61514">
        <ele>739.041221</ele>
        <time>2022-04-27T12:01:49.728Z</time>
      </trkpt>
      <trkpt lat="41.28342" lon="20.61505">
        <ele>739.129395</ele>
        <time>2022-04-27T12:01:52.745Z</time>
      </trkpt>
      <trkpt lat="41.28335" lon="20.61496">
        <ele>739.21958</ele>
        <time>2022-04-27T12:01:55.731Z</time>
      </trkpt>
      <trkpt lat="41.2833" lon="20.61486">
        <ele>739.305879</ele>
        <time>2022-04-27T12:01:58.737Z</time>
      </trkpt>
      <trkpt lat="41.28324" lon="20.61476">
        <ele>739.396393</ele>
        <time>2022-04-27T12:02:01.761Z</time>
      </trkpt>
      <trkpt lat="41.28316" lon="20.61465">
        <ele>739.50624</ele>
        <time>2022-04-27T12:02:04.741Z</time>
      </trkpt>
      <trkpt lat="41.28309" lon="20.61452">
        <ele>739.623067</ele>
        <time>2022-04-27T12:02:07.733Z</time>
      </trkpt>
      <trkpt lat="41.28301" lon="20.6144">
        <ele>739.737517</ele>
        <time>2022-04-27T12:02:10.733Z</time>
      </trkpt>
      <trkpt lat="41.28294" lon="20.61428">
        <ele>739.848022</ele>
        <time>2022-04-27T12:02:13.738Z</time>
      </trkpt>
      <trkpt lat="41.28285" lon="20.61416">
        <ele>739.968759</ele>
        <time>2022-04-27T12:02:16.736Z</time>
      </trkpt>
      <trkpt lat="41.28277" lon="20.61405">
        <ele>740.077007</ele>
        <time>2022-04-27T12:02:19.735Z</time>
      </trkpt>
      <trkpt lat="41.28266" lon="20.61395">
        <ele>740.381944</ele>
        <time>2022-04-27T12:02:22.732Z</time>
      </trkpt>
      <trkpt lat="41.28255" lon="20.61388">
        <ele>741.044855</ele>
        <time>2022-04-27T12:02:25.738Z</time>
      </trkpt>
      <trkpt lat="41.28241" lon="20.61384">
        <ele>741.741257</ele>
        <time>2022-04-27T12:02:28.736Z</time>
      </trkpt>
      <trkpt lat="41.2823" lon="20.61383">
        <ele>742.333464</ele>
        <time>2022-04-27T12:02:31.735Z</time>
      </trkpt>
      <trkpt lat="41.2822" lon="20.61385">
        <ele>742.829628</ele>
        <time>2022-04-27T12:02:34.761Z</time>
      </trkpt>
      <trkpt lat="41.28212" lon="20.61391">
        <ele>743.339828</ele>
        <time>2022-04-27T12:02:37.731Z</time>
      </trkpt>
      <trkpt lat="41.28203" lon="20.61402">
        <ele>743.958269</ele>
        <time>2022-04-27T12:02:40.736Z</time>
      </trkpt>
      <trkpt lat="41.28196" lon="20.61416">
        <ele>744.581738</ele>
        <time>2022-04-27T12:02:43.740Z</time>
      </trkpt>
      <trkpt lat="41.28193" lon="20.61431">
        <ele>745.194734</ele>
        <time>2022-04-27T12:02:46.743Z</time>
      </trkpt>
      <trkpt lat="41.28191" lon="20.61448">
        <ele>745.858223</ele>
        <time>2022-04-27T12:02:49.739Z</time>
      </trkpt>
      <trkpt lat="41.28191" lon="20.61463">
        <ele>746.444883</ele>
        <time>2022-04-27T12:02:52.730Z</time>
      </trkpt>
      <trkpt lat="41.28193" lon="20.61478">
        <ele>747.045065</ele>
        <time>2022-04-27T12:02:55.730Z</time>
      </trkpt>
      <trkpt lat="41.28195" lon="20.61493">
        <ele>747.622458</ele>
        <time>2022-04-27T12:02:58.737Z</time>
      </trkpt>
      <trkpt lat="41.28198" lon="20.61506">
        <ele>748.151327</ele>
        <time>2022-04-27T12:03:01.734Z</time>
      </trkpt>
      <trkpt lat="41.28202" lon="20.6152">
        <ele>748.71116</ele>
        <time>2022-04-27T12:03:04.747Z</time>
      </trkpt>
      <trkpt lat="41.28206" lon="20.61533">
        <ele>749.25261</ele>
        <time>2022-04-27T12:03:07.732Z</time>
      </trkpt>
      <trkpt lat="41.28209" lon="20.61544">
        <ele>749.259291</ele>
        <time>2022-04-27T12:03:10.732Z</time>
      </trkpt>
      <trkpt lat="41.28211" lon="20.61558">
        <ele>749.045759</ele>
        <time>2022-04-27T12:03:13.735Z</time>
      </trkpt>
      <trkpt lat="41.28213" lon="20.61572">
        <ele>748.820413</ele>
        <time>2022-04-27T12:03:16.752Z</time>
      </trkpt>
      <trkpt lat="41.28216" lon="20.61589">
        <ele>748.558305</ele>
        <time>2022-04-27T12:03:19.756Z</time>
      </trkpt>
      <trkpt lat="41.28218" lon="20.61601">
        <ele>748.369354</ele>
        <time>2022-04-27T12:03:21.738Z</time>
      </trkpt>
      <trkpt lat="41.28219" lon="20.61617">
        <ele>748.122636</ele>
        <time>2022-04-27T12:03:24.741Z</time>
      </trkpt>
      <trkpt lat="41.2822" lon="20.61633">
        <ele>747.86805</ele>
        <time>2022-04-27T12:03:27.740Z</time>
      </trkpt>
      <trkpt lat="41.28221" lon="20.6165">
        <ele>747.6186</ele>
        <time>2022-04-27T12:03:30.731Z</time>
      </trkpt>
      <trkpt lat="41.28221" lon="20.61666">
        <ele>747.369376</ele>
        <time>2022-04-27T12:03:33.730Z</time>
      </trkpt>
      <trkpt lat="41.2822" lon="20.61684">
        <ele>747.090398</ele>
        <time>2022-04-27T12:03:36.761Z</time>
      </trkpt>
      <trkpt lat="41.28219" lon="20.61696">
        <ele>746.904927</ele>
        <time>2022-04-27T12:03:38.739Z</time>
      </trkpt>
      <trkpt lat="41.28217" lon="20.61713">
        <ele>746.639966</ele>
        <time>2022-04-27T12:03:41.737Z</time>
      </trkpt>
      <trkpt lat="41.28213" lon="20.61728">
        <ele>746.396517</ele>
        <time>2022-04-27T12:03:44.736Z</time>
      </trkpt>
      <trkpt lat="41.28209" lon="20.61742">
        <ele>746.168958</ele>
        <time>2022-04-27T12:03:47.729Z</time>
      </trkpt>
      <trkpt lat="41.28203" lon="20.61754">
        <ele>745.943199</ele>
        <time>2022-04-27T12:03:50.731Z</time>
      </trkpt>
      <trkpt lat="41.28197" lon="20.61767">
        <ele>745.709529</ele>
        <time>2022-04-27T12:03:53.756Z</time>
      </trkpt>
      <trkpt lat="41.2819" lon="20.6178">
        <ele>745.770483</ele>
        <time>2022-04-27T12:03:56.734Z</time>
      </trkpt>
      <trkpt lat="41.28183" lon="20.61792">
        <ele>745.832112</ele>
        <time>2022-04-27T12:03:59.734Z</time>
      </trkpt>
      <trkpt lat="41.28175" lon="20.61804">
        <ele>745.890313</ele>
        <time>2022-04-27T12:04:02.732Z</time>
      </trkpt>
      <trkpt lat="41.28169" lon="20.61815">
        <ele>745.94514</ele>
        <time>2022-04-27T12:04:05.731Z</time>
      </trkpt>
      <trkpt lat="41.28162" lon="20.61825">
        <ele>745.998315</ele>
        <time>2022-04-27T12:04:08.726Z</time>
      </trkpt>
      <trkpt lat="41.28155" lon="20.61837">
        <ele>746.056216</ele>
        <time>2022-04-27T12:04:11.735Z</time>
      </trkpt>
      <trkpt lat="41.28147" lon="20.61848">
        <ele>746.116069</ele>
        <time>2022-04-27T12:04:14.736Z</time>
      </trkpt>
      <trkpt lat="41.28139" lon="20.61861">
        <ele>746.179319</ele>
        <time>2022-04-27T12:04:17.741Z</time>
      </trkpt>
      <trkpt lat="41.28131" lon="20.61872">
        <ele>746.240114</ele>
        <time>2022-04-27T12:04:20.745Z</time>
      </trkpt>
      <trkpt lat="41.28123" lon="20.61884">
        <ele>746.301383</ele>
        <time>2022-04-27T12:04:23.734Z</time>
      </trkpt>
      <trkpt lat="41.28117" lon="20.61895">
        <ele>746.356508</ele>
        <time>2022-04-27T12:04:26.754Z</time>
      </trkpt>
      <trkpt lat="41.28109" lon="20.61907">
        <ele>746.415035</ele>
        <time>2022-04-27T12:04:29.734Z</time>
      </trkpt>
      <trkpt lat="41.28101" lon="20.61918">
        <ele>746.478121</ele>
        <time>2022-04-27T12:04:32.736Z</time>
      </trkpt>
      <trkpt lat="41.28093" lon="20.61929">
        <ele>746.534822</ele>
        <time>2022-04-27T12:04:35.734Z</time>
      </trkpt>
      <trkpt lat="41.28084" lon="20.61938">
        <ele>746.591282</ele>
        <time>2022-04-27T12:04:38.730Z</time>
      </trkpt>
      <trkpt lat="41.28075" lon="20.61947">
        <ele>746.711199</ele>
        <time>2022-04-27T12:04:41.739Z</time>
      </trkpt>
      <trkpt lat="41.28067" lon="20.61955">
        <ele>746.991482</ele>
        <time>2022-04-27T12:04:44.737Z</time>
      </trkpt>
      <trkpt lat="41.28058" lon="20.61964">
        <ele>747.290469</ele>
        <time>2022-04-27T12:04:47.728Z</time>
      </trkpt>
      <trkpt lat="41.28049" lon="20.61973">
        <ele>747.622603</ele>
        <time>2022-04-27T12:04:50.734Z</time>
      </trkpt>
      <trkpt lat="41.28041" lon="20.61979">
        <ele>747.87562</ele>
        <time>2022-04-27T12:04:52.735Z</time>
      </trkpt>
      <trkpt lat="41.28029" lon="20.61987">
        <ele>748.230745</ele>
        <time>2022-04-27T12:04:55.731Z</time>
      </trkpt>
      <trkpt lat="41.28019" lon="20.61995">
        <ele>748.571146</ele>
        <time>2022-04-27T12:04:58.735Z</time>
      </trkpt>
      <trkpt lat="41.28008" lon="20.62002">
        <ele>748.899884</ele>
        <time>2022-04-27T12:05:01.744Z</time>
      </trkpt>
      <trkpt lat="41.27998" lon="20.62007">
        <ele>749.195492</ele>
        <time>2022-04-27T12:05:04.732Z</time>
      </trkpt>
      <trkpt lat="41.27987" lon="20.62014">
        <ele>749.533134</ele>
        <time>2022-04-27T12:05:07.740Z</time>
      </trkpt>
      <trkpt lat="41.27977" lon="20.62018">
        <ele>749.828187</ele>
        <time>2022-04-27T12:05:10.763Z</time>
      </trkpt>
      <trkpt lat="41.27966" lon="20.62021">
        <ele>750.124836</ele>
        <time>2022-04-27T12:05:13.735Z</time>
      </trkpt>
      <trkpt lat="41.27957" lon="20.62026">
        <ele>750.412706</ele>
        <time>2022-04-27T12:05:16.729Z</time>
      </trkpt>
      <trkpt lat="41.27947" lon="20.62029">
        <ele>750.702901</ele>
        <time>2022-04-27T12:05:19.737Z</time>
      </trkpt>
      <trkpt lat="41.27936" lon="20.62033">
        <ele>751.01612</ele>
        <time>2022-04-27T12:05:22.735Z</time>
      </trkpt>
      <trkpt lat="41.27924" lon="20.62038">
        <ele>751.342716</ele>
        <time>2022-04-27T12:05:25.732Z</time>
      </trkpt>
      <trkpt lat="41.27915" lon="20.62044">
        <ele>751.633952</ele>
        <time>2022-04-27T12:05:28.735Z</time>
      </trkpt>
      <trkpt lat="41.27907" lon="20.6205">
        <ele>751.875353</ele>
        <time>2022-04-27T12:05:30.742Z</time>
      </trkpt>
      <trkpt lat="41.27896" lon="20.62058">
        <ele>752.195123</ele>
        <time>2022-04-27T12:05:33.741Z</time>
      </trkpt>
      <trkpt lat="41.27886" lon="20.62064">
        <ele>752.497094</ele>
        <time>2022-04-27T12:05:36.744Z</time>
      </trkpt>
      <trkpt lat="41.27875" lon="20.6207">
        <ele>752.801516</ele>
        <time>2022-04-27T12:05:39.733Z</time>
      </trkpt>
      <trkpt lat="41.27865" lon="20.62078">
        <ele>753.115338</ele>
        <time>2022-04-27T12:05:42.746Z</time>
      </trkpt>
      <trkpt lat="41.27854" lon="20.62086">
        <ele>753.437396</ele>
        <time>2022-04-27T12:05:45.732Z</time>
      </trkpt>
      <trkpt lat="41.27844" lon="20.62094">
        <ele>753.752552</ele>
        <time>2022-04-27T12:05:48.736Z</time>
      </trkpt>
      <trkpt lat="41.27834" lon="20.62102">
        <ele>754.055639</ele>
        <time>2022-04-27T12:05:51.735Z</time>
      </trkpt>
      <trkpt lat="41.27825" lon="20.62108">
        <ele>754.328683</ele>
        <time>2022-04-27T12:05:54.740Z</time>
      </trkpt>
      <trkpt lat="41.27815" lon="20.62116">
        <ele>754.62947</ele>
        <time>2022-04-27T12:05:57.733Z</time>
      </trkpt>
      <trkpt lat="41.27804" lon="20.62125">
        <ele>754.952306</ele>
        <time>2022-04-27T12:06:00.734Z</time>
      </trkpt>
      <trkpt lat="41.27795" lon="20.62131">
        <ele>755.239599</ele>
        <time>2022-04-27T12:06:03.729Z</time>
      </trkpt>
      <trkpt lat="41.27785" lon="20.62138">
        <ele>755.524006</ele>
        <time>2022-04-27T12:06:06.729Z</time>
      </trkpt>
      <trkpt lat="41.27776" lon="20.62145">
        <ele>755.805582</ele>
        <time>2022-04-27T12:06:09.738Z</time>
      </trkpt>
      <trkpt lat="41.27766" lon="20.62152">
        <ele>756.083889</ele>
        <time>2022-04-27T12:06:12.756Z</time>
      </trkpt>
      <trkpt lat="41.27756" lon="20.6216">
        <ele>756.30994</ele>
        <time>2022-04-27T12:06:15.737Z</time>
      </trkpt>
      <trkpt lat="41.27746" lon="20.62169">
        <ele>756.074535</ele>
        <time>2022-04-27T12:06:18.758Z</time>
      </trkpt>
      <trkpt lat="41.27736" lon="20.62179">
        <ele>755.836188</ele>
        <time>2022-04-27T12:06:21.732Z</time>
      </trkpt>
      <trkpt lat="41.27727" lon="20.62188">
        <ele>755.612689</ele>
        <time>2022-04-27T12:06:24.744Z</time>
      </trkpt>
      <trkpt lat="41.27718" lon="20.62197">
        <ele>755.390754</ele>
        <time>2022-04-27T12:06:27.747Z</time>
      </trkpt>
      <trkpt lat="41.27709" lon="20.62207">
        <ele>755.171696</ele>
        <time>2022-04-27T12:06:30.740Z</time>
      </trkpt>
      <trkpt lat="41.27701" lon="20.62216">
        <ele>754.970532</ele>
        <time>2022-04-27T12:06:33.739Z</time>
      </trkpt>
      <trkpt lat="41.27694" lon="20.62225">
        <ele>754.778881</ele>
        <time>2022-04-27T12:06:36.742Z</time>
      </trkpt>
      <trkpt lat="41.27687" lon="20.62234">
        <ele>754.585395</ele>
        <time>2022-04-27T12:06:39.742Z</time>
      </trkpt>
      <trkpt lat="41.27679" lon="20.62245">
        <ele>754.37261</ele>
        <time>2022-04-27T12:06:42.733Z</time>
      </trkpt>
      <trkpt lat="41.27673" lon="20.62256">
        <ele>754.173166</ele>
        <time>2022-04-27T12:06:45.731Z</time>
      </trkpt>
      <trkpt lat="41.27666" lon="20.62267">
        <ele>753.969005</ele>
        <time>2022-04-27T12:06:48.736Z</time>
      </trkpt>
      <trkpt lat="41.2766" lon="20.6228">
        <ele>753.746361</ele>
        <time>2022-04-27T12:06:51.757Z</time>
      </trkpt>
      <trkpt lat="41.27652" lon="20.62293">
        <ele>753.508618</ele>
        <time>2022-04-27T12:06:54.735Z</time>
      </trkpt>
      <trkpt lat="41.27646" lon="20.62305">
        <ele>753.29282</ele>
        <time>2022-04-27T12:06:57.759Z</time>
      </trkpt>
      <trkpt lat="41.27639" lon="20.62319">
        <ele>753.056789</ele>
        <time>2022-04-27T12:07:00.737Z</time>
      </trkpt>
      <trkpt lat="41.27634" lon="20.62334">
        <ele>752.816981</ele>
        <time>2022-04-27T12:07:03.759Z</time>
      </trkpt>
      <trkpt lat="41.27628" lon="20.6235">
        <ele>752.588459</ele>
        <time>2022-04-27T12:07:06.733Z</time>
      </trkpt>
      <trkpt lat="41.27622" lon="20.62366">
        <ele>752.366623</ele>
        <time>2022-04-27T12:07:09.732Z</time>
      </trkpt>
      <trkpt lat="41.27616" lon="20.62379">
        <ele>752.16433</ele>
        <time>2022-04-27T12:07:12.740Z</time>
      </trkpt>
      <trkpt lat="41.27609" lon="20.62391">
        <ele>751.96566</ele>
        <time>2022-04-27T12:07:15.741Z</time>
      </trkpt>
      <trkpt lat="41.27601" lon="20.62403">
        <ele>751.763921</ele>
        <time>2022-04-27T12:07:18.735Z</time>
      </trkpt>
      <trkpt lat="41.27593" lon="20.62415">
        <ele>751.561075</ele>
        <time>2022-04-27T12:07:21.736Z</time>
      </trkpt>
      <trkpt lat="41.27585" lon="20.62426">
        <ele>751.359781</ele>
        <time>2022-04-27T12:07:24.743Z</time>
      </trkpt>
      <trkpt lat="41.27579" lon="20.62437">
        <ele>751.178831</ele>
        <time>2022-04-27T12:07:27.732Z</time>
      </trkpt>
      <trkpt lat="41.27571" lon="20.62447">
        <ele>751.003839</ele>
        <time>2022-04-27T12:07:30.755Z</time>
      </trkpt>
      <trkpt lat="41.27567" lon="20.62457">
        <ele>750.845845</ele>
        <time>2022-04-27T12:07:33.736Z</time>
      </trkpt>
      <trkpt lat="41.27561" lon="20.62469">
        <ele>750.674411</ele>
        <time>2022-04-27T12:07:36.741Z</time>
      </trkpt>
      <trkpt lat="41.27551" lon="20.6248">
        <ele>750.45165</ele>
        <time>2022-04-27T12:07:39.739Z</time>
      </trkpt>
      <trkpt lat="41.27542" lon="20.62491">
        <ele>750.242609</ele>
        <time>2022-04-27T12:07:42.736Z</time>
      </trkpt>
      <trkpt lat="41.27533" lon="20.625">
        <ele>750.048658</ele>
        <time>2022-04-27T12:07:45.729Z</time>
      </trkpt>
      <trkpt lat="41.27524" lon="20.62508">
        <ele>749.85707</ele>
        <time>2022-04-27T12:07:48.744Z</time>
      </trkpt>
      <trkpt lat="41.27514" lon="20.62516">
        <ele>750.070912</ele>
        <time>2022-04-27T12:07:51.734Z</time>
      </trkpt>
      <trkpt lat="41.27504" lon="20.62522">
        <ele>750.443095</ele>
        <time>2022-04-27T12:07:54.735Z</time>
      </trkpt>
      <trkpt lat="41.27495" lon="20.62528">
        <ele>750.772627</ele>
        <time>2022-04-27T12:07:57.728Z</time>
      </trkpt>
      <trkpt lat="41.27485" lon="20.62535">
        <ele>751.157142</ele>
        <time>2022-04-27T12:08:00.737Z</time>
      </trkpt>
      <trkpt lat="41.27474" lon="20.6254">
        <ele>751.545229</ele>
        <time>2022-04-27T12:08:03.730Z</time>
      </trkpt>
      <trkpt lat="41.27463" lon="20.62544">
        <ele>751.912619</ele>
        <time>2022-04-27T12:08:06.734Z</time>
      </trkpt>
      <trkpt lat="41.27453" lon="20.62548">
        <ele>752.284344</ele>
        <time>2022-04-27T12:08:09.739Z</time>
      </trkpt>
      <trkpt lat="41.27442" lon="20.62553">
        <ele>752.674655</ele>
        <time>2022-04-27T12:08:12.735Z</time>
      </trkpt>
      <trkpt lat="41.2743" lon="20.62557">
        <ele>753.071332</ele>
        <time>2022-04-27T12:08:15.734Z</time>
      </trkpt>
      <trkpt lat="41.27419" lon="20.62562">
        <ele>753.459792</ele>
        <time>2022-04-27T12:08:18.728Z</time>
      </trkpt>
      <trkpt lat="41.27408" lon="20.62566">
        <ele>753.852147</ele>
        <time>2022-04-27T12:08:21.733Z</time>
      </trkpt>
      <trkpt lat="41.27397" lon="20.6257">
        <ele>754.239948</ele>
        <time>2022-04-27T12:08:24.739Z</time>
      </trkpt>
      <trkpt lat="41.27386" lon="20.62572">
        <ele>754.602819</ele>
        <time>2022-04-27T12:08:27.732Z</time>
      </trkpt>
      <trkpt lat="41.27375" lon="20.62574">
        <ele>754.961585</ele>
        <time>2022-04-27T12:08:30.742Z</time>
      </trkpt>
      <trkpt lat="41.27366" lon="20.62576">
        <ele>755.274048</ele>
        <time>2022-04-27T12:08:33.735Z</time>
      </trkpt>
      <trkpt lat="41.27356" lon="20.62578">
        <ele>755.623312</ele>
        <time>2022-04-27T12:08:36.757Z</time>
      </trkpt>
      <trkpt lat="41.27345" lon="20.6258">
        <ele>756.013685</ele>
        <time>2022-04-27T12:08:39.726Z</time>
      </trkpt>
      <trkpt lat="41.27333" lon="20.62582">
        <ele>756.433977</ele>
        <time>2022-04-27T12:08:42.738Z</time>
      </trkpt>
      <trkpt lat="41.27321" lon="20.62583">
        <ele>756.876307</ele>
        <time>2022-04-27T12:08:45.729Z</time>
      </trkpt>
      <trkpt lat="41.27308" lon="20.62585">
        <ele>757.366779</ele>
        <time>2022-04-27T12:08:48.736Z</time>
      </trkpt>
      <trkpt lat="41.27295" lon="20.62588">
        <ele>757.826141</ele>
        <time>2022-04-27T12:08:51.728Z</time>
      </trkpt>
      <trkpt lat="41.27283" lon="20.62591">
        <ele>758.272911</ele>
        <time>2022-04-27T12:08:54.748Z</time>
      </trkpt>
      <trkpt lat="41.27272" lon="20.62592">
        <ele>758.694511</ele>
        <time>2022-04-27T12:08:57.734Z</time>
      </trkpt>
      <trkpt lat="41.27261" lon="20.62593">
        <ele>759.074212</ele>
        <time>2022-04-27T12:09:00.736Z</time>
      </trkpt>
      <trkpt lat="41.27251" lon="20.62593">
        <ele>759.464611</ele>
        <time>2022-04-27T12:09:03.729Z</time>
      </trkpt>
      <trkpt lat="41.27239" lon="20.62592">
        <ele>759.873336</ele>
        <time>2022-04-27T12:09:06.747Z</time>
      </trkpt>
      <trkpt lat="41.27229" lon="20.62592">
        <ele>760.26033</ele>
        <time>2022-04-27T12:09:09.755Z</time>
      </trkpt>
      <trkpt lat="41.27218" lon="20.62593">
        <ele>760.665658</ele>
        <time>2022-04-27T12:09:12.731Z</time>
      </trkpt>
      <trkpt lat="41.27206" lon="20.62593">
        <ele>761.08547</ele>
        <time>2022-04-27T12:09:15.728Z</time>
      </trkpt>
      <trkpt lat="41.27196" lon="20.62594">
        <ele>761.476831</ele>
        <time>2022-04-27T12:09:18.736Z</time>
      </trkpt>
      <trkpt lat="41.27184" lon="20.62595">
        <ele>761.88945</ele>
        <time>2022-04-27T12:09:21.727Z</time>
      </trkpt>
      <trkpt lat="41.27173" lon="20.62596">
        <ele>762.31105</ele>
        <time>2022-04-27T12:09:24.733Z</time>
      </trkpt>
      <trkpt lat="41.27162" lon="20.62597">
        <ele>762.092968</ele>
        <time>2022-04-27T12:09:27.728Z</time>
      </trkpt>
      <trkpt lat="41.2715" lon="20.62596">
        <ele>761.734269</ele>
        <time>2022-04-27T12:09:30.736Z</time>
      </trkpt>
      <trkpt lat="41.27139" lon="20.62596">
        <ele>761.391122</ele>
        <time>2022-04-27T12:09:33.732Z</time>
      </trkpt>
      <trkpt lat="41.27128" lon="20.62595">
        <ele>761.062808</ele>
        <time>2022-04-27T12:09:36.729Z</time>
      </trkpt>
      <trkpt lat="41.27117" lon="20.62596">
        <ele>760.710314</ele>
        <time>2022-04-27T12:09:39.748Z</time>
      </trkpt>
      <trkpt lat="41.27104" lon="20.62595">
        <ele>760.336449</ele>
        <time>2022-04-27T12:09:42.756Z</time>
      </trkpt>
      <trkpt lat="41.27095" lon="20.62594">
        <ele>760.056899</ele>
        <time>2022-04-27T12:09:44.740Z</time>
      </trkpt>
      <trkpt lat="41.27086" lon="20.62592">
        <ele>759.765623</ele>
        <time>2022-04-27T12:09:46.736Z</time>
      </trkpt>
      <trkpt lat="41.27077" lon="20.6259">
        <ele>759.480486</ele>
        <time>2022-04-27T12:09:48.734Z</time>
      </trkpt>
      <trkpt lat="41.27065" lon="20.62584">
        <ele>759.082812</ele>
        <time>2022-04-27T12:09:51.732Z</time>
      </trkpt>
      <trkpt lat="41.27053" lon="20.62577">
        <ele>758.687943</ele>
        <time>2022-04-27T12:09:54.730Z</time>
      </trkpt>
      <trkpt lat="41.27042" lon="20.6257">
        <ele>758.323931</ele>
        <time>2022-04-27T12:09:57.753Z</time>
      </trkpt>
      <trkpt lat="41.27033" lon="20.62561">
        <ele>757.970661</ele>
        <time>2022-04-27T12:10:00.733Z</time>
      </trkpt>
      <trkpt lat="41.27024" lon="20.62554">
        <ele>757.641314</ele>
        <time>2022-04-27T12:10:03.745Z</time>
      </trkpt>
      <trkpt lat="41.27014" lon="20.62546">
        <ele>757.306372</ele>
        <time>2022-04-27T12:10:06.736Z</time>
      </trkpt>
      <trkpt lat="41.27004" lon="20.6254">
        <ele>756.977687</ele>
        <time>2022-04-27T12:10:09.732Z</time>
      </trkpt>
      <trkpt lat="41.26994" lon="20.62536">
        <ele>756.75545</ele>
        <time>2022-04-27T12:10:12.735Z</time>
      </trkpt>
      <trkpt lat="41.26983" lon="20.62532">
        <ele>756.584834</ele>
        <time>2022-04-27T12:10:15.730Z</time>
      </trkpt>
      <trkpt lat="41.26972" lon="20.6253">
        <ele>756.422089</ele>
        <time>2022-04-27T12:10:18.737Z</time>
      </trkpt>
      <trkpt lat="41.2696" lon="20.6253">
        <ele>756.245107</ele>
        <time>2022-04-27T12:10:21.758Z</time>
      </trkpt>
      <trkpt lat="41.26949" lon="20.6253">
        <ele>756.068124</ele>
        <time>2022-04-27T12:10:24.775Z</time>
      </trkpt>
      <trkpt lat="41.26935" lon="20.62533">
        <ele>755.869935</ele>
        <time>2022-04-27T12:10:27.774Z</time>
      </trkpt>
      <trkpt lat="41.26923" lon="20.62538">
        <ele>755.673674</ele>
        <time>2022-04-27T12:10:30.788Z</time>
      </trkpt>
      <trkpt lat="41.26912" lon="20.62546">
        <ele>755.480213</ele>
        <time>2022-04-27T12:10:33.777Z</time>
      </trkpt>
      <trkpt lat="41.269" lon="20.62554">
        <ele>755.286237</ele>
        <time>2022-04-27T12:10:36.756Z</time>
      </trkpt>
      <trkpt lat="41.26889" lon="20.62563">
        <ele>755.09186</ele>
        <time>2022-04-27T12:10:39.770Z</time>
      </trkpt>
      <trkpt lat="41.26879" lon="20.6257">
        <ele>754.923856</ele>
        <time>2022-04-27T12:10:42.769Z</time>
      </trkpt>
      <trkpt lat="41.26869" lon="20.62578">
        <ele>754.739347</ele>
        <time>2022-04-27T12:10:45.753Z</time>
      </trkpt>
      <trkpt lat="41.2686" lon="20.62586">
        <ele>754.584586</ele>
        <time>2022-04-27T12:10:47.769Z</time>
      </trkpt>
      <trkpt lat="41.26851" lon="20.62593">
        <ele>754.42985</ele>
        <time>2022-04-27T12:10:49.761Z</time>
      </trkpt>
      <trkpt lat="41.26842" lon="20.626">
        <ele>754.275281</ele>
        <time>2022-04-27T12:10:51.766Z</time>
      </trkpt>
      <trkpt lat="41.26833" lon="20.62608">
        <ele>753.971716</ele>
        <time>2022-04-27T12:10:53.757Z</time>
      </trkpt>
      <trkpt lat="41.26823" lon="20.62616">
        <ele>753.374316</ele>
        <time>2022-04-27T12:10:55.767Z</time>
      </trkpt>
      <trkpt lat="41.26812" lon="20.62624">
        <ele>752.748794</ele>
        <time>2022-04-27T12:10:57.763Z</time>
      </trkpt>
      <trkpt lat="41.26801" lon="20.62632">
        <ele>752.112617</ele>
        <time>2022-04-27T12:10:59.773Z</time>
      </trkpt>
      <trkpt lat="41.26789" lon="20.6264">
        <ele>751.448907</ele>
        <time>2022-04-27T12:11:01.759Z</time>
      </trkpt>
      <trkpt lat="41.26777" lon="20.62647">
        <ele>750.784736</ele>
        <time>2022-04-27T12:11:03.743Z</time>
      </trkpt>
      <trkpt lat="41.26765" lon="20.62654">
        <ele>750.094344</ele>
        <time>2022-04-27T12:11:05.748Z</time>
      </trkpt>
      <trkpt lat="41.26752" lon="20.6266">
        <ele>749.435932</ele>
        <time>2022-04-27T12:11:07.774Z</time>
      </trkpt>
      <trkpt lat="41.26738" lon="20.62666">
        <ele>748.691469</ele>
        <time>2022-04-27T12:11:09.757Z</time>
      </trkpt>
      <trkpt lat="41.26723" lon="20.62672">
        <ele>747.906022</ele>
        <time>2022-04-27T12:11:11.755Z</time>
      </trkpt>
      <trkpt lat="41.26708" lon="20.62677">
        <ele>747.089983</ele>
        <time>2022-04-27T12:11:13.759Z</time>
      </trkpt>
      <trkpt lat="41.26692" lon="20.6268">
        <ele>746.289724</ele>
        <time>2022-04-27T12:11:15.755Z</time>
      </trkpt>
      <trkpt lat="41.26677" lon="20.62682">
        <ele>745.514764</ele>
        <time>2022-04-27T12:11:17.774Z</time>
      </trkpt>
      <trkpt lat="41.26661" lon="20.62683">
        <ele>744.704183</ele>
        <time>2022-04-27T12:11:19.756Z</time>
      </trkpt>
      <trkpt lat="41.26645" lon="20.62684">
        <ele>743.876657</ele>
        <time>2022-04-27T12:11:21.759Z</time>
      </trkpt>
      <trkpt lat="41.26629" lon="20.62689">
        <ele>743.021098</ele>
        <time>2022-04-27T12:11:23.767Z</time>
      </trkpt>
      <trkpt lat="41.26614" lon="20.62696">
        <ele>742.166409</ele>
        <time>2022-04-27T12:11:25.750Z</time>
      </trkpt>
      <trkpt lat="41.26599" lon="20.62706">
        <ele>741.283143</ele>
        <time>2022-04-27T12:11:27.748Z</time>
      </trkpt>
      <trkpt lat="41.26586" lon="20.62721">
        <ele>740.378869</ele>
        <time>2022-04-27T12:11:29.745Z</time>
      </trkpt>
      <trkpt lat="41.26575" lon="20.62738">
        <ele>739.492348</ele>
        <time>2022-04-27T12:11:31.768Z</time>
      </trkpt>
      <trkpt lat="41.26568" lon="20.62757">
        <ele>738.626709</ele>
        <time>2022-04-27T12:11:33.761Z</time>
      </trkpt>
      <trkpt lat="41.26562" lon="20.62779">
        <ele>737.720142</ele>
        <time>2022-04-27T12:11:35.761Z</time>
      </trkpt>
      <trkpt lat="41.26561" lon="20.62801">
        <ele>736.843003</ele>
        <time>2022-04-27T12:11:37.770Z</time>
      </trkpt>
      <trkpt lat="41.26563" lon="20.62822">
        <ele>735.990919</ele>
        <time>2022-04-27T12:11:39.782Z</time>
      </trkpt>
      <trkpt lat="41.26569" lon="20.62841">
        <ele>735.463171</ele>
        <time>2022-04-27T12:11:41.749Z</time>
      </trkpt>
      <trkpt lat="41.26576" lon="20.62858">
        <ele>735.225514</ele>
        <time>2022-04-27T12:11:43.750Z</time>
      </trkpt>
      <trkpt lat="41.26585" lon="20.62873">
        <ele>734.989953</ele>
        <time>2022-04-27T12:11:45.773Z</time>
      </trkpt>
      <trkpt lat="41.26596" lon="20.62885">
        <ele>734.758187</ele>
        <time>2022-04-27T12:11:47.766Z</time>
      </trkpt>
      <trkpt lat="41.26607" lon="20.62894">
        <ele>734.547923</ele>
        <time>2022-04-27T12:11:49.793Z</time>
      </trkpt>
      <trkpt lat="41.26619" lon="20.62902">
        <ele>734.34049</ele>
        <time>2022-04-27T12:11:51.773Z</time>
      </trkpt>
      <trkpt lat="41.26632" lon="20.62906">
        <ele>734.121394</ele>
        <time>2022-04-27T12:11:53.766Z</time>
      </trkpt>
      <trkpt lat="41.26644" lon="20.62908">
        <ele>733.923551</ele>
        <time>2022-04-27T12:11:55.736Z</time>
      </trkpt>
      <trkpt lat="41.26655" lon="20.62908">
        <ele>733.74483</ele>
        <time>2022-04-27T12:11:57.766Z</time>
      </trkpt>
      <trkpt lat="41.26666" lon="20.62908">
        <ele>733.564551</ele>
        <time>2022-04-27T12:11:59.748Z</time>
      </trkpt>
      <trkpt lat="41.26677" lon="20.62909">
        <ele>733.385596</ele>
        <time>2022-04-27T12:12:01.748Z</time>
      </trkpt>
      <trkpt lat="41.26688" lon="20.6291">
        <ele>733.206043</ele>
        <time>2022-04-27T12:12:03.744Z</time>
      </trkpt>
      <trkpt lat="41.267" lon="20.62913">
        <ele>733.017802</ele>
        <time>2022-04-27T12:12:05.748Z</time>
      </trkpt>
      <trkpt lat="41.26711" lon="20.62919">
        <ele>732.821996</ele>
        <time>2022-04-27T12:12:07.756Z</time>
      </trkpt>
      <trkpt lat="41.26722" lon="20.62925">
        <ele>732.711196</ele>
        <time>2022-04-27T12:12:09.769Z</time>
      </trkpt>
      <trkpt lat="41.26731" lon="20.62934">
        <ele>732.876432</ele>
        <time>2022-04-27T12:12:11.793Z</time>
      </trkpt>
      <trkpt lat="41.26738" lon="20.62945">
        <ele>733.029731</ele>
        <time>2022-04-27T12:12:13.766Z</time>
      </trkpt>
      <trkpt lat="41.26742" lon="20.62958">
        <ele>733.17938</ele>
        <time>2022-04-27T12:12:15.784Z</time>
      </trkpt>
      <trkpt lat="41.26744" lon="20.62972">
        <ele>733.329643</ele>
        <time>2022-04-27T12:12:17.804Z</time>
      </trkpt>
      <trkpt lat="41.26744" lon="20.62986">
        <ele>733.479883</ele>
        <time>2022-04-27T12:12:19.746Z</time>
      </trkpt>
      <trkpt lat="41.26741" lon="20.63">
        <ele>733.629039</ele>
        <time>2022-04-27T12:12:21.751Z</time>
      </trkpt>
      <trkpt lat="41.26738" lon="20.63012">
        <ele>733.764777</ele>
        <time>2022-04-27T12:12:23.755Z</time>
      </trkpt>
      <trkpt lat="41.26733" lon="20.63028">
        <ele>733.948608</ele>
        <time>2022-04-27T12:12:26.755Z</time>
      </trkpt>
      <trkpt lat="41.26727" lon="20.63041">
        <ele>734.112419</ele>
        <time>2022-04-27T12:12:29.760Z</time>
      </trkpt>
      <trkpt lat="41.2672" lon="20.63054">
        <ele>734.287866</ele>
        <time>2022-04-27T12:12:32.757Z</time>
      </trkpt>
      <trkpt lat="41.26712" lon="20.63068">
        <ele>734.470977</ele>
        <time>2022-04-27T12:12:35.762Z</time>
      </trkpt>
      <trkpt lat="41.26703" lon="20.63081">
        <ele>734.652594</ele>
        <time>2022-04-27T12:12:38.770Z</time>
      </trkpt>
      <trkpt lat="41.26695" lon="20.63094">
        <ele>734.839626</ele>
        <time>2022-04-27T12:12:41.749Z</time>
      </trkpt>
      <trkpt lat="41.26686" lon="20.63107">
        <ele>735.022083</ele>
        <time>2022-04-27T12:12:44.765Z</time>
      </trkpt>
      <trkpt lat="41.26677" lon="20.63118">
        <ele>735.199519</ele>
        <time>2022-04-27T12:12:47.751Z</time>
      </trkpt>
      <trkpt lat="41.26668" lon="20.63127">
        <ele>735.377048</ele>
        <time>2022-04-27T12:12:50.749Z</time>
      </trkpt>
      <trkpt lat="41.26658" lon="20.63137">
        <ele>735.573329</ele>
        <time>2022-04-27T12:12:53.747Z</time>
      </trkpt>
      <trkpt lat="41.26647" lon="20.63146">
        <ele>735.778701</ele>
        <time>2022-04-27T12:12:56.797Z</time>
      </trkpt>
      <trkpt lat="41.26636" lon="20.63155">
        <ele>735.974262</ele>
        <time>2022-04-27T12:12:59.757Z</time>
      </trkpt>
      <trkpt lat="41.26626" lon="20.63163">
        <ele>736.167073</ele>
        <time>2022-04-27T12:13:02.795Z</time>
      </trkpt>
      <trkpt lat="41.26615" lon="20.63173">
        <ele>736.375086</ele>
        <time>2022-04-27T12:13:05.754Z</time>
      </trkpt>
      <trkpt lat="41.26608" lon="20.6318">
        <ele>736.518382</ele>
        <time>2022-04-27T12:13:07.769Z</time>
      </trkpt>
      <trkpt lat="41.26598" lon="20.63189">
        <ele>736.709214</ele>
        <time>2022-04-27T12:13:10.765Z</time>
      </trkpt>
      <trkpt lat="41.26587" lon="20.63199">
        <ele>736.914295</ele>
        <time>2022-04-27T12:13:13.793Z</time>
      </trkpt>
      <trkpt lat="41.26578" lon="20.63208">
        <ele>737.088754</ele>
        <time>2022-04-27T12:13:15.761Z</time>
      </trkpt>
      <trkpt lat="41.2657" lon="20.63216">
        <ele>737.258122</ele>
        <time>2022-04-27T12:13:17.745Z</time>
      </trkpt>
      <trkpt lat="41.26561" lon="20.63225">
        <ele>737.435629</ele>
        <time>2022-04-27T12:13:19.748Z</time>
      </trkpt>
      <trkpt lat="41.26553" lon="20.63234">
        <ele>737.602721</ele>
        <time>2022-04-27T12:13:21.755Z</time>
      </trkpt>
      <trkpt lat="41.26545" lon="20.63242">
        <ele>737.753512</ele>
        <time>2022-04-27T12:13:23.768Z</time>
      </trkpt>
      <trkpt lat="41.26535" lon="20.63252">
        <ele>737.952108</ele>
        <time>2022-04-27T12:13:26.737Z</time>
      </trkpt>
      <trkpt lat="41.26526" lon="20.63261">
        <ele>738.201772</ele>
        <time>2022-04-27T12:13:29.755Z</time>
      </trkpt>
      <trkpt lat="41.26518" lon="20.6327">
        <ele>738.595949</ele>
        <time>2022-04-27T12:13:32.780Z</time>
      </trkpt>
      <trkpt lat="41.26511" lon="20.63279">
        <ele>738.95759</ele>
        <time>2022-04-27T12:13:35.757Z</time>
      </trkpt>
      <trkpt lat="41.26503" lon="20.63287">
        <ele>739.297011</ele>
        <time>2022-04-27T12:13:38.765Z</time>
      </trkpt>
      <trkpt lat="41.26495" lon="20.63296">
        <ele>739.696759</ele>
        <time>2022-04-27T12:13:42.764Z</time>
      </trkpt>
      <trkpt lat="41.26486" lon="20.63305">
        <ele>740.084817</ele>
        <time>2022-04-27T12:13:46.753Z</time>
      </trkpt>
      <trkpt lat="41.26477" lon="20.63313">
        <ele>740.478274</ele>
        <time>2022-04-27T12:13:50.770Z</time>
      </trkpt>
      <trkpt lat="41.26468" lon="20.63321">
        <ele>740.87054</ele>
        <time>2022-04-27T12:13:54.771Z</time>
      </trkpt>
      <trkpt lat="41.26459" lon="20.63327">
        <ele>741.22865</ele>
        <time>2022-04-27T12:13:58.797Z</time>
      </trkpt>
      <trkpt lat="41.2645" lon="20.63334">
        <ele>741.615889</ele>
        <time>2022-04-27T12:14:03.757Z</time>
      </trkpt>
      <trkpt lat="41.26441" lon="20.6334">
        <ele>741.963322</ele>
        <time>2022-04-27T12:14:08.752Z</time>
      </trkpt>
      <trkpt lat="41.26432" lon="20.63347">
        <ele>742.335958</ele>
        <time>2022-04-27T12:14:14.796Z</time>
      </trkpt>
      <trkpt lat="41.26424" lon="20.63352">
        <ele>742.683391</ele>
        <time>2022-04-27T12:14:20.770Z</time>
      </trkpt>
      <trkpt lat="41.26414" lon="20.63357">
        <ele>743.046563</ele>
        <time>2022-04-27T12:14:26.759Z</time>
      </trkpt>
      <trkpt lat="41.26405" lon="20.63362">
        <ele>743.396303</ele>
        <time>2022-04-27T12:14:32.752Z</time>
      </trkpt>
      <trkpt lat="41.26396" lon="20.63366">
        <ele>743.73173</ele>
        <time>2022-04-27T12:14:38.763Z</time>
      </trkpt>
      <trkpt lat="41.26387" lon="20.63371">
        <ele>744.088676</ele>
        <time>2022-04-27T12:14:44.809Z</time>
      </trkpt>
      <trkpt lat="41.26377" lon="20.63373">
        <ele>744.457828</ele>
        <time>2022-04-27T12:14:51.772Z</time>
      </trkpt>
      <trkpt lat="41.26368" lon="20.63375">
        <ele>744.899931</ele>
        <time>2022-04-27T12:14:57.768Z</time>
      </trkpt>
      <trkpt lat="41.26358" lon="20.63378">
        <ele>745.414448</ele>
        <time>2022-04-27T12:15:03.809Z</time>
      </trkpt>
      <trkpt lat="41.26348" lon="20.6338">
        <ele>745.91265</ele>
        <time>2022-04-27T12:15:08.771Z</time>
      </trkpt>
      <trkpt lat="41.26339" lon="20.63382">
        <ele>746.429431</ele>
        <time>2022-04-27T12:15:14.804Z</time>
      </trkpt>
      <trkpt lat="41.26329" lon="20.63387">
        <ele>746.932381</ele>
        <time>2022-04-27T12:15:21.765Z</time>
      </trkpt>
      <trkpt lat="41.26322" lon="20.63393">
        <ele>747.403829</ele>
        <time>2022-04-27T12:15:27.765Z</time>
      </trkpt>
      <trkpt lat="41.26313" lon="20.634">
        <ele>747.922218</ele>
        <time>2022-04-27T12:15:33.756Z</time>
      </trkpt>
      <trkpt lat="41.26306" lon="20.63409">
        <ele>748.423435</ele>
        <time>2022-04-27T12:15:38.756Z</time>
      </trkpt>
      <trkpt lat="41.26298" lon="20.63418">
        <ele>748.950437</ele>
        <time>2022-04-27T12:15:44.768Z</time>
      </trkpt>
      <trkpt lat="41.26291" lon="20.63426">
        <ele>749.454473</ele>
        <time>2022-04-27T12:15:49.768Z</time>
      </trkpt>
      <trkpt lat="41.26283" lon="20.63434">
        <ele>749.951706</ele>
        <time>2022-04-27T12:15:55.789Z</time>
      </trkpt>
      <trkpt lat="41.26275" lon="20.6344">
        <ele>750.440436</ele>
        <time>2022-04-27T12:16:00.745Z</time>
      </trkpt>
      <trkpt lat="41.26266" lon="20.63447">
        <ele>750.978631</ele>
        <time>2022-04-27T12:16:06.765Z</time>
      </trkpt>
      <trkpt lat="41.26257" lon="20.63451">
        <ele>751.446486</ele>
        <time>2022-04-27T12:16:11.748Z</time>
      </trkpt>
      <trkpt lat="41.26248" lon="20.63455">
        <ele>751.967834</ele>
        <time>2022-04-27T12:16:17.794Z</time>
      </trkpt>
      <trkpt lat="41.26237" lon="20.63458">
        <ele>752.524372</ele>
        <time>2022-04-27T12:16:23.765Z</time>
      </trkpt>
      <trkpt lat="41.26228" lon="20.6346">
        <ele>753.025261</ele>
        <time>2022-04-27T12:16:28.794Z</time>
      </trkpt>
      <trkpt lat="41.26218" lon="20.63463">
        <ele>753.544813</ele>
        <time>2022-04-27T12:16:34.792Z</time>
      </trkpt>
      <trkpt lat="41.26208" lon="20.63466">
        <ele>754.077789</ele>
        <time>2022-04-27T12:16:40.761Z</time>
      </trkpt>
      <trkpt lat="41.26198" lon="20.6347">
        <ele>754.670284</ele>
        <time>2022-04-27T12:16:46.770Z</time>
      </trkpt>
      <trkpt lat="41.26188" lon="20.63473">
        <ele>755.245268</ele>
        <time>2022-04-27T12:16:52.770Z</time>
      </trkpt>
      <trkpt lat="41.26179" lon="20.63478">
        <ele>755.767468</ele>
        <time>2022-04-27T12:16:58.755Z</time>
      </trkpt>
      <trkpt lat="41.26171" lon="20.63484">
        <ele>756.296074</ele>
        <time>2022-04-27T12:17:04.770Z</time>
      </trkpt>
      <trkpt lat="41.26164" lon="20.63493">
        <ele>756.872257</ele>
        <time>2022-04-27T12:17:11.753Z</time>
      </trkpt>
      <trkpt lat="41.26157" lon="20.63503">
        <ele>757.442721</ele>
        <time>2022-04-27T12:17:17.776Z</time>
      </trkpt>
      <trkpt lat="41.26151" lon="20.63514">
        <ele>758.019447</ele>
        <time>2022-04-27T12:17:24.796Z</time>
      </trkpt>
      <trkpt lat="41.26147" lon="20.63525">
        <ele>758.535957</ele>
        <time>2022-04-27T12:17:30.750Z</time>
      </trkpt>
      <trkpt lat="41.26142" lon="20.63536">
        <ele>759.074896</ele>
        <time>2022-04-27T12:17:36.792Z</time>
      </trkpt>
      <trkpt lat="41.26138" lon="20.63549">
        <ele>759.670959</ele>
        <time>2022-04-27T12:17:42.801Z</time>
      </trkpt>
      <trkpt lat="41.26135" lon="20.63561">
        <ele>760.222172</ele>
        <time>2022-04-27T12:17:48.761Z</time>
      </trkpt>
      <trkpt lat="41.2613" lon="20.63573">
        <ele>760.797684</ele>
        <time>2022-04-27T12:17:55.750Z</time>
      </trkpt>
      <trkpt lat="41.26127" lon="20.63585">
        <ele>761.341335</ele>
        <time>2022-04-27T12:18:01.753Z</time>
      </trkpt>
      <trkpt lat="41.26123" lon="20.63597">
        <ele>761.890619</ele>
        <time>2022-04-27T12:18:08.810Z</time>
      </trkpt>
      <trkpt lat="41.26118" lon="20.63609">
        <ele>762.471183</ele>
        <time>2022-04-27T12:18:14.757Z</time>
      </trkpt>
      <trkpt lat="41.26113" lon="20.6362">
        <ele>762.987397</ele>
        <time>2022-04-27T12:18:19.776Z</time>
      </trkpt>
      <trkpt lat="41.26108" lon="20.6363">
        <ele>763.499552</ele>
        <time>2022-04-27T12:18:24.766Z</time>
      </trkpt>
      <trkpt lat="41.261" lon="20.63639">
        <ele>763.935658</ele>
        <time>2022-04-27T12:18:30.810Z</time>
      </trkpt>
      <trkpt lat="41.26092" lon="20.63647">
        <ele>763.678282</ele>
        <time>2022-04-27T12:18:36.757Z</time>
      </trkpt>
      <trkpt lat="41.26083" lon="20.63651">
        <ele>763.450014</ele>
        <time>2022-04-27T12:18:41.780Z</time>
      </trkpt>
      <trkpt lat="41.26073" lon="20.63654">
        <ele>763.178073</ele>
        <time>2022-04-27T12:18:47.796Z</time>
      </trkpt>
      <trkpt lat="41.26062" lon="20.63655">
        <ele>762.916296</ele>
        <time>2022-04-27T12:18:53.755Z</time>
      </trkpt>
      <trkpt lat="41.26052" lon="20.63654">
        <ele>762.66957</ele>
        <time>2022-04-27T12:18:58.727Z</time>
      </trkpt>
      <trkpt lat="41.26042" lon="20.63652">
        <ele>762.395561</ele>
        <time>2022-04-27T12:19:03.735Z</time>
      </trkpt>
      <trkpt lat="41.26032" lon="20.63651">
        <ele>762.149451</ele>
        <time>2022-04-27T12:19:07.733Z</time>
      </trkpt>
      <trkpt lat="41.26022" lon="20.63649">
        <ele>761.8884</ele>
        <time>2022-04-27T12:19:11.732Z</time>
      </trkpt>
      <trkpt lat="41.26011" lon="20.63646">
        <ele>761.62068</ele>
        <time>2022-04-27T12:19:15.730Z</time>
      </trkpt>
      <trkpt lat="41.26001" lon="20.63644">
        <ele>761.354409</ele>
        <time>2022-04-27T12:19:19.742Z</time>
      </trkpt>
      <trkpt lat="41.25991" lon="20.6364">
        <ele>761.097942</ele>
        <time>2022-04-27T12:19:23.743Z</time>
      </trkpt>
      <trkpt lat="41.2598" lon="20.63637">
        <ele>760.817695</ele>
        <time>2022-04-27T12:19:27.728Z</time>
      </trkpt>
      <trkpt lat="41.25969" lon="20.63633">
        <ele>760.524522</ele>
        <time>2022-04-27T12:19:31.744Z</time>
      </trkpt>
      <trkpt lat="41.25957" lon="20.6363">
        <ele>760.222983</ele>
        <time>2022-04-27T12:19:35.734Z</time>
      </trkpt>
      <trkpt lat="41.25947" lon="20.63627">
        <ele>759.979621</ele>
        <time>2022-04-27T12:19:38.735Z</time>
      </trkpt>
      <trkpt lat="41.25938" lon="20.63624">
        <ele>759.746003</ele>
        <time>2022-04-27T12:19:41.733Z</time>
      </trkpt>
      <trkpt lat="41.25927" lon="20.63622">
        <ele>759.471888</ele>
        <time>2022-04-27T12:19:45.728Z</time>
      </trkpt>
      <trkpt lat="41.25915" lon="20.63619">
        <ele>759.554577</ele>
        <time>2022-04-27T12:19:49.729Z</time>
      </trkpt>
      <trkpt lat="41.25906" lon="20.63616">
        <ele>759.622456</ele>
        <time>2022-04-27T12:19:52.732Z</time>
      </trkpt>
      <trkpt lat="41.25897" lon="20.63612">
        <ele>759.689055</ele>
        <time>2022-04-27T12:19:55.739Z</time>
      </trkpt>
      <trkpt lat="41.25887" lon="20.6361">
        <ele>759.754862</ele>
        <time>2022-04-27T12:19:58.739Z</time>
      </trkpt>
      <trkpt lat="41.25878" lon="20.63607">
        <ele>759.822246</ele>
        <time>2022-04-27T12:20:01.733Z</time>
      </trkpt>
      <trkpt lat="41.25868" lon="20.63604">
        <ele>759.889196</ele>
        <time>2022-04-27T12:20:04.738Z</time>
      </trkpt>
      <trkpt lat="41.25859" lon="20.63602">
        <ele>759.954218</ele>
        <time>2022-04-27T12:20:07.731Z</time>
      </trkpt>
      <trkpt lat="41.2585" lon="20.63598">
        <ele>760.016762</ele>
        <time>2022-04-27T12:20:10.735Z</time>
      </trkpt>
      <trkpt lat="41.25841" lon="20.63595">
        <ele>760.083714</ele>
        <time>2022-04-27T12:20:13.732Z</time>
      </trkpt>
      <trkpt lat="41.25832" lon="20.63594">
        <ele>760.147574</ele>
        <time>2022-04-27T12:20:16.752Z</time>
      </trkpt>
      <trkpt lat="41.25822" lon="20.63591">
        <ele>760.213731</ele>
        <time>2022-04-27T12:20:19.741Z</time>
      </trkpt>
      <trkpt lat="41.25813" lon="20.63589">
        <ele>760.279034</ele>
        <time>2022-04-27T12:20:22.737Z</time>
      </trkpt>
      <trkpt lat="41.25803" lon="20.63587">
        <ele>760.348944</ele>
        <time>2022-04-27T12:20:25.741Z</time>
      </trkpt>
      <trkpt lat="41.25794" lon="20.63584">
        <ele>760.416104</ele>
        <time>2022-04-27T12:20:28.732Z</time>
      </trkpt>
      <trkpt lat="41.25784" lon="20.63583">
        <ele>760.482675</ele>
        <time>2022-04-27T12:20:31.736Z</time>
      </trkpt>
      <trkpt lat="41.25775" lon="20.63582">
        <ele>760.548698</ele>
        <time>2022-04-27T12:20:34.735Z</time>
      </trkpt>
      <trkpt lat="41.25764" lon="20.63581">
        <ele>760.621355</ele>
        <time>2022-04-27T12:20:37.735Z</time>
      </trkpt>
      <trkpt lat="41.25754" lon="20.63582">
        <ele>760.687732</ele>
        <time>2022-04-27T12:20:40.734Z</time>
      </trkpt>
      <trkpt lat="41.25744" lon="20.63582">
        <ele>760.863243</ele>
        <time>2022-04-27T12:20:43.738Z</time>
      </trkpt>
      <trkpt lat="41.25733" lon="20.63582">
        <ele>761.122413</ele>
        <time>2022-04-27T12:20:46.740Z</time>
      </trkpt>
      <trkpt lat="41.25722" lon="20.63583">
        <ele>761.377529</ele>
        <time>2022-04-27T12:20:49.734Z</time>
      </trkpt>
      <trkpt lat="41.25711" lon="20.63584">
        <ele>761.634377</ele>
        <time>2022-04-27T12:20:52.737Z</time>
      </trkpt>
      <trkpt lat="41.257" lon="20.63584">
        <ele>761.886669</ele>
        <time>2022-04-27T12:20:55.733Z</time>
      </trkpt>
      <trkpt lat="41.25689" lon="20.63584">
        <ele>762.127468</ele>
        <time>2022-04-27T12:20:58.737Z</time>
      </trkpt>
      <trkpt lat="41.2568" lon="20.63583">
        <ele>762.350064</ele>
        <time>2022-04-27T12:21:01.764Z</time>
      </trkpt>
      <trkpt lat="41.2567" lon="20.63583">
        <ele>762.572493</ele>
        <time>2022-04-27T12:21:04.740Z</time>
      </trkpt>
      <trkpt lat="41.25658" lon="20.63582">
        <ele>762.8373</ele>
        <time>2022-04-27T12:21:08.733Z</time>
      </trkpt>
      <trkpt lat="41.25648" lon="20.6358">
        <ele>763.07802</ele>
        <time>2022-04-27T12:21:12.735Z</time>
      </trkpt>
      <trkpt lat="41.25638" lon="20.63576">
        <ele>763.315133</ele>
        <time>2022-04-27T12:21:16.742Z</time>
      </trkpt>
      <trkpt lat="41.25629" lon="20.63572">
        <ele>763.54388</ele>
        <time>2022-04-27T12:21:20.736Z</time>
      </trkpt>
      <trkpt lat="41.25619" lon="20.63568">
        <ele>763.78014</ele>
        <time>2022-04-27T12:21:24.739Z</time>
      </trkpt>
      <trkpt lat="41.25608" lon="20.63565">
        <ele>764.035875</ele>
        <time>2022-04-27T12:21:28.726Z</time>
      </trkpt>
      <trkpt lat="41.25598" lon="20.63561">
        <ele>764.265896</ele>
        <time>2022-04-27T12:21:32.728Z</time>
      </trkpt>
      <trkpt lat="41.25588" lon="20.63558">
        <ele>764.502832</ele>
        <time>2022-04-27T12:21:36.757Z</time>
      </trkpt>
      <trkpt lat="41.25579" lon="20.63556">
        <ele>764.717815</ele>
        <time>2022-04-27T12:21:40.734Z</time>
      </trkpt>
      <trkpt lat="41.2557" lon="20.63552">
        <ele>764.873177</ele>
        <time>2022-04-27T12:21:44.728Z</time>
      </trkpt>
      <trkpt lat="41.2556" lon="20.63547">
        <ele>764.967519</ele>
        <time>2022-04-27T12:21:49.733Z</time>
      </trkpt>
      <trkpt lat="41.2555" lon="20.63544">
        <ele>765.058208</ele>
        <time>2022-04-27T12:21:53.738Z</time>
      </trkpt>
      <trkpt lat="41.2554" lon="20.63541">
        <ele>765.141909</ele>
        <time>2022-04-27T12:21:57.734Z</time>
      </trkpt>
      <trkpt lat="41.2553" lon="20.63538">
        <ele>765.22959</ele>
        <time>2022-04-27T12:22:01.735Z</time>
      </trkpt>
      <trkpt lat="41.2552" lon="20.63536">
        <ele>765.319177</ele>
        <time>2022-04-27T12:22:05.730Z</time>
      </trkpt>
      <trkpt lat="41.25511" lon="20.63532">
        <ele>765.405844</ele>
        <time>2022-04-27T12:22:09.733Z</time>
      </trkpt>
      <trkpt lat="41.25501" lon="20.63529">
        <ele>765.492377</ele>
        <time>2022-04-27T12:22:13.738Z</time>
      </trkpt>
      <trkpt lat="41.2549" lon="20.63527">
        <ele>765.584543</ele>
        <time>2022-04-27T12:22:17.728Z</time>
      </trkpt>
      <trkpt lat="41.2548" lon="20.63525">
        <ele>765.673472</ele>
        <time>2022-04-27T12:22:21.729Z</time>
      </trkpt>
      <trkpt lat="41.25469" lon="20.63523">
        <ele>765.769855</ele>
        <time>2022-04-27T12:22:25.734Z</time>
      </trkpt>
      <trkpt lat="41.2546" lon="20.63522">
        <ele>765.851108</ele>
        <time>2022-04-27T12:22:28.734Z</time>
      </trkpt>
      <trkpt lat="41.2545" lon="20.63521">
        <ele>765.937193</ele>
        <time>2022-04-27T12:22:31.749Z</time>
      </trkpt>
      <trkpt lat="41.2544" lon="20.63522">
        <ele>766.024145</ele>
        <time>2022-04-27T12:22:34.738Z</time>
      </trkpt>
      <trkpt lat="41.2543" lon="20.63523">
        <ele>766.114045</ele>
        <time>2022-04-27T12:22:37.731Z</time>
      </trkpt>
      <trkpt lat="41.25419" lon="20.63524">
        <ele>766.206483</ele>
        <time>2022-04-27T12:22:40.733Z</time>
      </trkpt>
      <trkpt lat="41.25409" lon="20.63526">
        <ele>766.298199</ele>
        <time>2022-04-27T12:22:43.732Z</time>
      </trkpt>
      <trkpt lat="41.25398" lon="20.63529">
        <ele>766.394759</ele>
        <time>2022-04-27T12:22:46.729Z</time>
      </trkpt>
      <trkpt lat="41.25388" lon="20.6353">
        <ele>766.529594</ele>
        <time>2022-04-27T12:22:49.728Z</time>
      </trkpt>
      <trkpt lat="41.25378" lon="20.63532">
        <ele>766.666488</ele>
        <time>2022-04-27T12:22:52.732Z</time>
      </trkpt>
      <trkpt lat="41.25368" lon="20.63536">
        <ele>766.815728</ele>
        <time>2022-04-27T12:22:55.732Z</time>
      </trkpt>
      <trkpt lat="41.25358" lon="20.6354">
        <ele>766.966883</ele>
        <time>2022-04-27T12:22:58.730Z</time>
      </trkpt>
      <trkpt lat="41.25346" lon="20.63543">
        <ele>767.127977</ele>
        <time>2022-04-27T12:23:01.733Z</time>
      </trkpt>
      <trkpt lat="41.25334" lon="20.63547">
        <ele>767.299096</ele>
        <time>2022-04-27T12:23:04.731Z</time>
      </trkpt>
      <trkpt lat="41.25323" lon="20.6355">
        <ele>767.45609</ele>
        <time>2022-04-27T12:23:07.726Z</time>
      </trkpt>
      <trkpt lat="41.25312" lon="20.63554">
        <ele>767.619907</ele>
        <time>2022-04-27T12:23:10.740Z</time>
      </trkpt>
      <trkpt lat="41.25301" lon="20.63558">
        <ele>767.780203</ele>
        <time>2022-04-27T12:23:13.738Z</time>
      </trkpt>
      <trkpt lat="41.2529" lon="20.63561">
        <ele>767.933803</ele>
        <time>2022-04-27T12:23:16.763Z</time>
      </trkpt>
      <trkpt lat="41.25279" lon="20.63566">
        <ele>768.101936</ele>
        <time>2022-04-27T12:23:19.733Z</time>
      </trkpt>
      <trkpt lat="41.25267" lon="20.63569">
        <ele>768.268738</ele>
        <time>2022-04-27T12:23:22.729Z</time>
      </trkpt>
      <trkpt lat="41.25256" lon="20.63573">
        <ele>768.430122</ele>
        <time>2022-04-27T12:23:25.731Z</time>
      </trkpt>
      <trkpt lat="41.25245" lon="20.63576">
        <ele>768.581885</ele>
        <time>2022-04-27T12:23:28.737Z</time>
      </trkpt>
      <trkpt lat="41.25235" lon="20.6358">
        <ele>768.730067</ele>
        <time>2022-04-27T12:23:31.737Z</time>
      </trkpt>
      <trkpt lat="41.25226" lon="20.63585">
        <ele>768.87221</ele>
        <time>2022-04-27T12:23:34.730Z</time>
      </trkpt>
      <trkpt lat="41.25217" lon="20.63591">
        <ele>769.092562</ele>
        <time>2022-04-27T12:23:37.732Z</time>
      </trkpt>
      <trkpt lat="41.25208" lon="20.63598">
        <ele>769.354256</ele>
        <time>2022-04-27T12:23:40.735Z</time>
      </trkpt>
      <trkpt lat="41.25201" lon="20.63606">
        <ele>769.598974</ele>
        <time>2022-04-27T12:23:43.732Z</time>
      </trkpt>
      <trkpt lat="41.25193" lon="20.63616">
        <ele>769.865916</ele>
        <time>2022-04-27T12:23:46.743Z</time>
      </trkpt>
      <trkpt lat="41.25187" lon="20.63626">
        <ele>770.119721</ele>
        <time>2022-04-27T12:23:49.739Z</time>
      </trkpt>
      <trkpt lat="41.25181" lon="20.63635">
        <ele>770.361284</ele>
        <time>2022-04-27T12:23:52.731Z</time>
      </trkpt>
      <trkpt lat="41.25175" lon="20.63645">
        <ele>770.604219</ele>
        <time>2022-04-27T12:23:55.760Z</time>
      </trkpt>
      <trkpt lat="41.2517" lon="20.63655">
        <ele>770.840921</ele>
        <time>2022-04-27T12:23:58.731Z</time>
      </trkpt>
      <trkpt lat="41.25163" lon="20.63665">
        <ele>771.097994</ele>
        <time>2022-04-27T12:24:01.729Z</time>
      </trkpt>
      <trkpt lat="41.25156" lon="20.63675">
        <ele>771.357795</ele>
        <time>2022-04-27T12:24:04.736Z</time>
      </trkpt>
      <trkpt lat="41.2515" lon="20.63685">
        <ele>771.613585</ele>
        <time>2022-04-27T12:24:07.728Z</time>
      </trkpt>
      <trkpt lat="41.25143" lon="20.63694">
        <ele>771.867398</ele>
        <time>2022-04-27T12:24:10.734Z</time>
      </trkpt>
      <trkpt lat="41.25136" lon="20.63703">
        <ele>772.121165</ele>
        <time>2022-04-27T12:24:13.731Z</time>
      </trkpt>
      <trkpt lat="41.25129" lon="20.63712">
        <ele>772.370939</ele>
        <time>2022-04-27T12:24:16.748Z</time>
      </trkpt>
      <trkpt lat="41.25121" lon="20.63722">
        <ele>772.639364</ele>
        <time>2022-04-27T12:24:19.736Z</time>
      </trkpt>
      <trkpt lat="41.25114" lon="20.6373">
        <ele>772.891713</ele>
        <time>2022-04-27T12:24:22.755Z</time>
      </trkpt>
      <trkpt lat="41.25106" lon="20.63738">
        <ele>773.140846</ele>
        <time>2022-04-27T12:24:25.731Z</time>
      </trkpt>
      <trkpt lat="41.25099" lon="20.63746">
        <ele>773.38828</ele>
        <time>2022-04-27T12:24:28.737Z</time>
      </trkpt>
      <trkpt lat="41.2509" lon="20.63755">
        <ele>773.416244</ele>
        <time>2022-04-27T12:24:31.739Z</time>
      </trkpt>
      <trkpt lat="41.25081" lon="20.63765">
        <ele>773.148802</ele>
        <time>2022-04-27T12:24:34.734Z</time>
      </trkpt>
      <trkpt lat="41.25072" lon="20.63776">
        <ele>772.858776</ele>
        <time>2022-04-27T12:24:37.737Z</time>
      </trkpt>
      <trkpt lat="41.25062" lon="20.63786">
        <ele>772.555491</ele>
        <time>2022-04-27T12:24:40.741Z</time>
      </trkpt>
      <trkpt lat="41.25052" lon="20.63796">
        <ele>772.263149</ele>
        <time>2022-04-27T12:24:43.751Z</time>
      </trkpt>
      <trkpt lat="41.25042" lon="20.63805">
        <ele>771.965202</ele>
        <time>2022-04-27T12:24:46.739Z</time>
      </trkpt>
      <trkpt lat="41.25032" lon="20.63814">
        <ele>771.677012</ele>
        <time>2022-04-27T12:24:49.736Z</time>
      </trkpt>
      <trkpt lat="41.25022" lon="20.63821">
        <ele>771.403186</ele>
        <time>2022-04-27T12:24:52.732Z</time>
      </trkpt>
      <trkpt lat="41.25012" lon="20.63829">
        <ele>771.135529</ele>
        <time>2022-04-27T12:24:55.737Z</time>
      </trkpt>
      <trkpt lat="41.25001" lon="20.63836">
        <ele>770.860007</ele>
        <time>2022-04-27T12:24:58.735Z</time>
      </trkpt>
      <trkpt lat="41.24992" lon="20.63842">
        <ele>770.600145</ele>
        <time>2022-04-27T12:25:01.732Z</time>
      </trkpt>
      <trkpt lat="41.24982" lon="20.63849">
        <ele>770.344494</ele>
        <time>2022-04-27T12:25:04.761Z</time>
      </trkpt>
      <trkpt lat="41.24973" lon="20.63855">
        <ele>770.095037</ele>
        <time>2022-04-27T12:25:07.734Z</time>
      </trkpt>
      <trkpt lat="41.24963" lon="20.63862">
        <ele>769.839776</ele>
        <time>2022-04-27T12:25:10.734Z</time>
      </trkpt>
      <trkpt lat="41.24954" lon="20.63869">
        <ele>769.575307</ele>
        <time>2022-04-27T12:25:13.729Z</time>
      </trkpt>
      <trkpt lat="41.24943" lon="20.63875">
        <ele>769.305071</ele>
        <time>2022-04-27T12:25:16.738Z</time>
      </trkpt>
      <trkpt lat="41.24933" lon="20.63881">
        <ele>769.116843</ele>
        <time>2022-04-27T12:25:19.727Z</time>
      </trkpt>
      <trkpt lat="41.24925" lon="20.63887">
        <ele>768.970197</ele>
        <time>2022-04-27T12:25:22.740Z</time>
      </trkpt>
      <trkpt lat="41.24916" lon="20.63893">
        <ele>768.802541</ele>
        <time>2022-04-27T12:25:26.732Z</time>
      </trkpt>
      <trkpt lat="41.24899" lon="20.63905">
        <ele>768.498901</ele>
        <time>2022-04-27T12:28:18.741Z</time>
      </trkpt>
      <trkpt lat="41.24891" lon="20.63912">
        <ele>768.337202</ele>
        <time>2022-04-27T12:28:21.735Z</time>
      </trkpt>
      <trkpt lat="41.2488" lon="20.63919">
        <ele>768.147985</ele>
        <time>2022-04-27T12:28:24.740Z</time>
      </trkpt>
      <trkpt lat="41.24869" lon="20.63927">
        <ele>767.952555</ele>
        <time>2022-04-27T12:28:27.729Z</time>
      </trkpt>
      <trkpt lat="41.24858" lon="20.63935">
        <ele>767.742946</ele>
        <time>2022-04-27T12:28:30.738Z</time>
      </trkpt>
      <trkpt lat="41.24846" lon="20.63943">
        <ele>767.530196</ele>
        <time>2022-04-27T12:28:33.727Z</time>
      </trkpt>
      <trkpt lat="41.24838" lon="20.63949">
        <ele>767.386082</ele>
        <time>2022-04-27T12:28:35.755Z</time>
      </trkpt>
      <trkpt lat="41.2483" lon="20.63954">
        <ele>767.234238</ele>
        <time>2022-04-27T12:28:37.743Z</time>
      </trkpt>
      <trkpt lat="41.24822" lon="20.6396">
        <ele>767.082486</ele>
        <time>2022-04-27T12:28:39.732Z</time>
      </trkpt>
      <trkpt lat="41.24813" lon="20.63966">
        <ele>766.929889</ele>
        <time>2022-04-27T12:28:41.737Z</time>
      </trkpt>
      <trkpt lat="41.24804" lon="20.63973">
        <ele>766.770761</ele>
        <time>2022-04-27T12:28:43.725Z</time>
      </trkpt>
      <trkpt lat="41.24796" lon="20.63979">
        <ele>766.609925</ele>
        <time>2022-04-27T12:28:45.732Z</time>
      </trkpt>
      <trkpt lat="41.24786" lon="20.63985">
        <ele>766.440289</ele>
        <time>2022-04-27T12:28:47.729Z</time>
      </trkpt>
      <trkpt lat="41.24776" lon="20.6399">
        <ele>766.150481</ele>
        <time>2022-04-27T12:28:49.735Z</time>
      </trkpt>
      <trkpt lat="41.24765" lon="20.63994">
        <ele>765.789445</ele>
        <time>2022-04-27T12:28:51.732Z</time>
      </trkpt>
      <trkpt lat="41.24752" lon="20.63998">
        <ele>765.396689</ele>
        <time>2022-04-27T12:28:53.745Z</time>
      </trkpt>
      <trkpt lat="41.2474" lon="20.64">
        <ele>765.005164</ele>
        <time>2022-04-27T12:28:55.732Z</time>
      </trkpt>
      <trkpt lat="41.24728" lon="20.64002">
        <ele>764.60586</ele>
        <time>2022-04-27T12:28:57.755Z</time>
      </trkpt>
      <trkpt lat="41.24715" lon="20.64003">
        <ele>764.206557</ele>
        <time>2022-04-27T12:28:59.730Z</time>
      </trkpt>
      <trkpt lat="41.24702" lon="20.64005">
        <ele>763.803638</ele>
        <time>2022-04-27T12:29:01.736Z</time>
      </trkpt>
      <trkpt lat="41.2469" lon="20.64008">
        <ele>763.403743</ele>
        <time>2022-04-27T12:29:03.728Z</time>
      </trkpt>
      <trkpt lat="41.24677" lon="20.64012">
        <ele>763.001767</ele>
        <time>2022-04-27T12:29:05.740Z</time>
      </trkpt>
      <trkpt lat="41.24665" lon="20.64018">
        <ele>762.588284</ele>
        <time>2022-04-27T12:29:07.741Z</time>
      </trkpt>
      <trkpt lat="41.24653" lon="20.64026">
        <ele>762.155673</ele>
        <time>2022-04-27T12:29:09.734Z</time>
      </trkpt>
      <trkpt lat="41.2464" lon="20.64035">
        <ele>761.706575</ele>
        <time>2022-04-27T12:29:11.734Z</time>
      </trkpt>
      <trkpt lat="41.24628" lon="20.64044">
        <ele>761.274275</ele>
        <time>2022-04-27T12:29:13.732Z</time>
      </trkpt>
      <trkpt lat="41.24616" lon="20.64053">
        <ele>760.838681</ele>
        <time>2022-04-27T12:29:15.733Z</time>
      </trkpt>
      <trkpt lat="41.24604" lon="20.64061">
        <ele>760.935087</ele>
        <time>2022-04-27T12:29:17.735Z</time>
      </trkpt>
      <trkpt lat="41.24593" lon="20.64069">
        <ele>761.263008</ele>
        <time>2022-04-27T12:29:19.759Z</time>
      </trkpt>
      <trkpt lat="41.24583" lon="20.64076">
        <ele>761.574218</ele>
        <time>2022-04-27T12:29:21.728Z</time>
      </trkpt>
      <trkpt lat="41.24573" lon="20.64083">
        <ele>761.860337</ele>
        <time>2022-04-27T12:29:23.734Z</time>
      </trkpt>
      <trkpt lat="41.24565" lon="20.64089">
        <ele>762.116729</ele>
        <time>2022-04-27T12:29:25.727Z</time>
      </trkpt>
      <trkpt lat="41.24554" lon="20.64097">
        <ele>762.438658</ele>
        <time>2022-04-27T12:29:28.769Z</time>
      </trkpt>
      <trkpt lat="41.24545" lon="20.64103">
        <ele>762.709967</ele>
        <time>2022-04-27T12:29:31.735Z</time>
      </trkpt>
      <trkpt lat="41.24536" lon="20.64111">
        <ele>763.002407</ele>
        <time>2022-04-27T12:29:34.734Z</time>
      </trkpt>
      <trkpt lat="41.24526" lon="20.64119">
        <ele>763.297047</ele>
        <time>2022-04-27T12:29:37.736Z</time>
      </trkpt>
      <trkpt lat="41.24517" lon="20.64126">
        <ele>763.571597</ele>
        <time>2022-04-27T12:29:40.734Z</time>
      </trkpt>
      <trkpt lat="41.24509" lon="20.64132">
        <ele>763.818755</ele>
        <time>2022-04-27T12:29:43.735Z</time>
      </trkpt>
      <trkpt lat="41.24499" lon="20.64138">
        <ele>764.108942</ele>
        <time>2022-04-27T12:29:47.751Z</time>
      </trkpt>
      <trkpt lat="41.24487" lon="20.64142">
        <ele>764.417061</ele>
        <time>2022-04-27T12:29:52.732Z</time>
      </trkpt>
      <trkpt lat="41.24476" lon="20.64146">
        <ele>764.727929</ele>
        <time>2022-04-27T12:29:56.733Z</time>
      </trkpt>
      <trkpt lat="41.24465" lon="20.6415">
        <ele>765.023855</ele>
        <time>2022-04-27T12:29:59.741Z</time>
      </trkpt>
      <trkpt lat="41.24455" lon="20.64153">
        <ele>765.284962</ele>
        <time>2022-04-27T12:30:02.733Z</time>
      </trkpt>
      <trkpt lat="41.24446" lon="20.64156">
        <ele>765.572323</ele>
        <time>2022-04-27T12:30:07.735Z</time>
      </trkpt>
      <trkpt lat="41.24437" lon="20.6416">
        <ele>765.887992</ele>
        <time>2022-04-27T12:30:11.731Z</time>
      </trkpt>
      <trkpt lat="41.24428" lon="20.64163">
        <ele>766.206894</ele>
        <time>2022-04-27T12:30:14.745Z</time>
      </trkpt>
      <trkpt lat="41.24417" lon="20.64167">
        <ele>766.586173</ele>
        <time>2022-04-27T12:30:17.731Z</time>
      </trkpt>
      <trkpt lat="41.24405" lon="20.6417">
        <ele>766.980959</ele>
        <time>2022-04-27T12:30:20.756Z</time>
      </trkpt>
      <trkpt lat="41.24393" lon="20.64173">
        <ele>767.39985</ele>
        <time>2022-04-27T12:30:23.732Z</time>
      </trkpt>
      <trkpt lat="41.24384" lon="20.64175">
        <ele>767.714634</ele>
        <time>2022-04-27T12:30:25.736Z</time>
      </trkpt>
      <trkpt lat="41.24372" lon="20.64179">
        <ele>768.128333</ele>
        <time>2022-04-27T12:30:28.736Z</time>
      </trkpt>
      <trkpt lat="41.24361" lon="20.64181">
        <ele>768.497403</ele>
        <time>2022-04-27T12:30:31.737Z</time>
      </trkpt>
      <trkpt lat="41.24351" lon="20.64183">
        <ele>768.827232</ele>
        <time>2022-04-27T12:30:35.737Z</time>
      </trkpt>
      <trkpt lat="41.2434" lon="20.64186">
        <ele>769.200746</ele>
        <time>2022-04-27T12:30:39.725Z</time>
      </trkpt>
      <trkpt lat="41.24329" lon="20.64186">
        <ele>769.571062</ele>
        <time>2022-04-27T12:30:43.729Z</time>
      </trkpt>
      <trkpt lat="41.24319" lon="20.64188">
        <ele>769.912276</ele>
        <time>2022-04-27T12:30:46.733Z</time>
      </trkpt>
      <trkpt lat="41.24309" lon="20.64191">
        <ele>770.279202</ele>
        <time>2022-04-27T12:30:49.733Z</time>
      </trkpt>
      <trkpt lat="41.243" lon="20.64196">
        <ele>770.595603</ele>
        <time>2022-04-27T12:30:51.737Z</time>
      </trkpt>
      <trkpt lat="41.24292" lon="20.64202">
        <ele>770.915079</ele>
        <time>2022-04-27T12:30:54.738Z</time>
      </trkpt>
      <trkpt lat="41.24281" lon="20.64208">
        <ele>771.308633</ele>
        <time>2022-04-27T12:30:58.728Z</time>
      </trkpt>
      <trkpt lat="41.24271" lon="20.64215">
        <ele>771.367741</ele>
        <time>2022-04-27T12:31:01.742Z</time>
      </trkpt>
      <trkpt lat="41.24261" lon="20.64223">
        <ele>771.157861</ele>
        <time>2022-04-27T12:31:04.736Z</time>
      </trkpt>
      <trkpt lat="41.24251" lon="20.64232">
        <ele>770.948783</ele>
        <time>2022-04-27T12:31:07.746Z</time>
      </trkpt>
      <trkpt lat="41.24239" lon="20.64235">
        <ele>770.735748</ele>
        <time>2022-04-27T12:31:10.742Z</time>
      </trkpt>
      <trkpt lat="41.24228" lon="20.64234">
        <ele>770.547461</ele>
        <time>2022-04-27T12:31:12.739Z</time>
      </trkpt>
      <trkpt lat="41.24217" lon="20.64234">
        <ele>770.366219</ele>
        <time>2022-04-27T12:31:14.737Z</time>
      </trkpt>
      <trkpt lat="41.24208" lon="20.64234">
        <ele>770.20064</ele>
        <time>2022-04-27T12:31:16.731Z</time>
      </trkpt>
      <trkpt lat="41.24195" lon="20.64233">
        <ele>769.966935</ele>
        <time>2022-04-27T12:31:19.736Z</time>
      </trkpt>
      <trkpt lat="41.24186" lon="20.64232">
        <ele>769.80943</ele>
        <time>2022-04-27T12:31:21.731Z</time>
      </trkpt>
      <trkpt lat="41.24174" lon="20.64228">
        <ele>769.607578</ele>
        <time>2022-04-27T12:31:24.740Z</time>
      </trkpt>
      <trkpt lat="41.24164" lon="20.64222">
        <ele>769.414176</ele>
        <time>2022-04-27T12:31:27.732Z</time>
      </trkpt>
      <trkpt lat="41.24156" lon="20.64213">
        <ele>769.228343</ele>
        <time>2022-04-27T12:31:30.734Z</time>
      </trkpt>
      <trkpt lat="41.24148" lon="20.64201">
        <ele>769.017694</ele>
        <time>2022-04-27T12:31:33.733Z</time>
      </trkpt>
      <trkpt lat="41.24141" lon="20.64189">
        <ele>768.821693</ele>
        <time>2022-04-27T12:31:36.732Z</time>
      </trkpt>
      <trkpt lat="41.24132" lon="20.64181">
        <ele>768.626508</ele>
        <time>2022-04-27T12:31:40.758Z</time>
      </trkpt>
      <trkpt lat="41.24123" lon="20.64176">
        <ele>768.453901</ele>
        <time>2022-04-27T12:31:43.756Z</time>
      </trkpt>
      <trkpt lat="41.2411" lon="20.64167">
        <ele>769.039985</ele>
        <time>2022-04-27T12:31:46.741Z</time>
      </trkpt>
      <trkpt lat="41.241" lon="20.6416">
        <ele>770.1569</ele>
        <time>2022-04-27T12:31:49.734Z</time>
      </trkpt>
      <trkpt lat="41.24091" lon="20.64152">
        <ele>771.15383</ele>
        <time>2022-04-27T12:31:53.727Z</time>
      </trkpt>
      <trkpt lat="41.24082" lon="20.64143">
        <ele>772.253377</ele>
        <time>2022-04-27T12:31:57.735Z</time>
      </trkpt>
      <trkpt lat="41.24071" lon="20.64137">
        <ele>773.290945</ele>
        <time>2022-04-27T12:32:01.732Z</time>
      </trkpt>
      <trkpt lat="41.24061" lon="20.64133">
        <ele>774.351011</ele>
        <time>2022-04-27T12:32:05.732Z</time>
      </trkpt>
      <trkpt lat="41.24049" lon="20.6413">
        <ele>775.476311</ele>
        <time>2022-04-27T12:32:09.728Z</time>
      </trkpt>
      <trkpt lat="41.24038" lon="20.64126">
        <ele>776.571387</ele>
        <time>2022-04-27T12:32:14.732Z</time>
      </trkpt>
      <trkpt lat="41.24027" lon="20.64125">
        <ele>777.619708</ele>
        <time>2022-04-27T12:32:18.752Z</time>
      </trkpt>
      <trkpt lat="41.24016" lon="20.64129">
        <ele>778.649292</ele>
        <time>2022-04-27T12:32:25.732Z</time>
      </trkpt>
      <trkpt lat="41.24003" lon="20.64127">
        <ele>779.851212</ele>
        <time>2022-04-27T12:32:28.739Z</time>
      </trkpt>
      <trkpt lat="41.23993" lon="20.64129">
        <ele>780.830523</ele>
        <time>2022-04-27T12:32:30.737Z</time>
      </trkpt>
      <trkpt lat="41.23979" lon="20.6413">
        <ele>782.113278</ele>
        <time>2022-04-27T12:32:33.761Z</time>
      </trkpt>
      <trkpt lat="41.23969" lon="20.64131">
        <ele>783.116762</ele>
        <time>2022-04-27T12:32:35.725Z</time>
      </trkpt>
      <trkpt lat="41.23959" lon="20.64134">
        <ele>784.068033</ele>
        <time>2022-04-27T12:32:38.727Z</time>
      </trkpt>
      <trkpt lat="41.23947" lon="20.64135">
        <ele>785.209472</ele>
        <time>2022-04-27T12:32:42.741Z</time>
      </trkpt>
      <trkpt lat="41.23938" lon="20.64135">
        <ele>784.923057</ele>
        <time>2022-04-27T12:32:45.742Z</time>
      </trkpt>
      <trkpt lat="41.23929" lon="20.64136">
        <ele>784.518344</ele>
        <time>2022-04-27T12:32:48.735Z</time>
      </trkpt>
      <trkpt lat="41.23918" lon="20.64138">
        <ele>784.033456</ele>
        <time>2022-04-27T12:32:51.733Z</time>
      </trkpt>
      <trkpt lat="41.23907" lon="20.64142">
        <ele>783.551096</ele>
        <time>2022-04-27T12:32:54.747Z</time>
      </trkpt>
      <trkpt lat="41.23898" lon="20.64145">
        <ele>783.13253</ele>
        <time>2022-04-27T12:32:57.738Z</time>
      </trkpt>
      <trkpt lat="41.23887" lon="20.64147">
        <ele>782.623674</ele>
        <time>2022-04-27T12:33:01.761Z</time>
      </trkpt>
      <trkpt lat="41.23878" lon="20.64151">
        <ele>782.210007</ele>
        <time>2022-04-27T12:33:04.735Z</time>
      </trkpt>
      <trkpt lat="41.23866" lon="20.64153">
        <ele>781.653718</ele>
        <time>2022-04-27T12:33:08.737Z</time>
      </trkpt>
      <trkpt lat="41.23853" lon="20.64155">
        <ele>781.103817</ele>
        <time>2022-04-27T12:33:11.730Z</time>
      </trkpt>
      <trkpt lat="41.23842" lon="20.64156">
        <ele>780.618378</ele>
        <time>2022-04-27T12:33:14.732Z</time>
      </trkpt>
      <trkpt lat="41.23833" lon="20.64156">
        <ele>780.20461</ele>
        <time>2022-04-27T12:33:17.734Z</time>
      </trkpt>
      <trkpt lat="41.23823" lon="20.64156">
        <ele>779.759918</ele>
        <time>2022-04-27T12:33:20.740Z</time>
      </trkpt>
      <trkpt lat="41.23813" lon="20.64156">
        <ele>779.288451</ele>
        <time>2022-04-27T12:33:24.739Z</time>
      </trkpt>
      <trkpt lat="41.238" lon="20.64158">
        <ele>778.706119</ele>
        <time>2022-04-27T12:33:27.730Z</time>
      </trkpt>
      <trkpt lat="41.23788" lon="20.64164">
        <ele>778.145533</ele>
        <time>2022-04-27T12:33:30.735Z</time>
      </trkpt>
      <trkpt lat="41.23779" lon="20.64168">
        <ele>777.738329</ele>
        <time>2022-04-27T12:33:32.750Z</time>
      </trkpt>
      <trkpt lat="41.2377" lon="20.64172">
        <ele>777.333188</ele>
        <time>2022-04-27T12:33:34.758Z</time>
      </trkpt>
      <trkpt lat="41.23759" lon="20.64179">
        <ele>776.928739</ele>
        <time>2022-04-27T12:33:37.727Z</time>
      </trkpt>
      <trkpt lat="41.23748" lon="20.64185">
        <ele>776.5492</ele>
        <time>2022-04-27T12:33:40.733Z</time>
      </trkpt>
      <trkpt lat="41.23738" lon="20.64194">
        <ele>776.163431</ele>
        <time>2022-04-27T12:33:43.738Z</time>
      </trkpt>
      <trkpt lat="41.23727" lon="20.64201">
        <ele>775.801545</ele>
        <time>2022-04-27T12:33:46.731Z</time>
      </trkpt>
      <trkpt lat="41.23719" lon="20.64206">
        <ele>775.512399</ele>
        <time>2022-04-27T12:33:48.732Z</time>
      </trkpt>
      <trkpt lat="41.2371" lon="20.64212">
        <ele>775.210902</ele>
        <time>2022-04-27T12:33:50.739Z</time>
      </trkpt>
      <trkpt lat="41.23702" lon="20.64218">
        <ele>774.917819</ele>
        <time>2022-04-27T12:33:52.749Z</time>
      </trkpt>
      <trkpt lat="41.23693" lon="20.64223">
        <ele>774.61735</ele>
        <time>2022-04-27T12:33:54.738Z</time>
      </trkpt>
      <trkpt lat="41.23683" lon="20.6423">
        <ele>774.272397</ele>
        <time>2022-04-27T12:33:56.778Z</time>
      </trkpt>
      <trkpt lat="41.23675" lon="20.64237">
        <ele>773.957876</ele>
        <time>2022-04-27T12:33:58.729Z</time>
      </trkpt>
      <trkpt lat="41.23668" lon="20.64246">
        <ele>773.65672</ele>
        <time>2022-04-27T12:34:00.745Z</time>
      </trkpt>
      <trkpt lat="41.23659" lon="20.64252">
        <ele>773.356259</ele>
        <time>2022-04-27T12:34:02.732Z</time>
      </trkpt>
      <trkpt lat="41.23651" lon="20.64258">
        <ele>773.072039</ele>
        <time>2022-04-27T12:34:04.731Z</time>
      </trkpt>
      <trkpt lat="41.23643" lon="20.64265">
        <ele>772.770598</ele>
        <time>2022-04-27T12:34:06.735Z</time>
      </trkpt>
      <trkpt lat="41.23633" lon="20.64274">
        <ele>772.383451</ele>
        <time>2022-04-27T12:34:09.740Z</time>
      </trkpt>
      <trkpt lat="41.23625" lon="20.64281">
        <ele>772.084574</ele>
        <time>2022-04-27T12:34:12.737Z</time>
      </trkpt>
      <trkpt lat="41.23614" lon="20.64289">
        <ele>771.713276</ele>
        <time>2022-04-27T12:34:16.728Z</time>
      </trkpt>
      <trkpt lat="41.23607" lon="20.64295">
        <ele>771.667734</ele>
        <time>2022-04-27T12:34:19.755Z</time>
      </trkpt>
      <trkpt lat="41.23598" lon="20.64301">
        <ele>771.644652</ele>
        <time>2022-04-27T12:34:22.734Z</time>
      </trkpt>
      <trkpt lat="41.23589" lon="20.64308">
        <ele>771.619736</ele>
        <time>2022-04-27T12:34:26.738Z</time>
      </trkpt>
      <trkpt lat="41.23579" lon="20.64315">
        <ele>771.592851</ele>
        <time>2022-04-27T12:34:31.730Z</time>
      </trkpt>
      <trkpt lat="41.23571" lon="20.64323">
        <ele>771.567636</ele>
        <time>2022-04-27T12:34:34.731Z</time>
      </trkpt>
      <trkpt lat="41.23562" lon="20.64331">
        <ele>771.541521</ele>
        <time>2022-04-27T12:34:37.733Z</time>
      </trkpt>
      <trkpt lat="41.23552" lon="20.64341">
        <ele>771.511881</ele>
        <time>2022-04-27T12:34:40.737Z</time>
      </trkpt>
      <trkpt lat="41.23541" lon="20.64351">
        <ele>771.479889</ele>
        <time>2022-04-27T12:34:43.737Z</time>
      </trkpt>
      <trkpt lat="41.2353" lon="20.64361">
        <ele>771.448095</ele>
        <time>2022-04-27T12:34:46.732Z</time>
      </trkpt>
      <trkpt lat="41.23519" lon="20.64371">
        <ele>771.415901</ele>
        <time>2022-04-27T12:34:49.728Z</time>
      </trkpt>
      <trkpt lat="41.23507" lon="20.6438">
        <ele>771.383663</ele>
        <time>2022-04-27T12:34:52.731Z</time>
      </trkpt>
      <trkpt lat="41.23499" lon="20.64387">
        <ele>771.360435</ele>
        <time>2022-04-27T12:34:54.735Z</time>
      </trkpt>
      <trkpt lat="41.23491" lon="20.64394">
        <ele>771.338293</ele>
        <time>2022-04-27T12:34:56.743Z</time>
      </trkpt>
      <trkpt lat="41.23483" lon="20.64401">
        <ele>771.315349</ele>
        <time>2022-04-27T12:34:58.728Z</time>
      </trkpt>
      <trkpt lat="41.23472" lon="20.6441">
        <ele>771.284323</ele>
        <time>2022-04-27T12:35:01.731Z</time>
      </trkpt>
      <trkpt lat="41.23462" lon="20.64419">
        <ele>771.21981</ele>
        <time>2022-04-27T12:35:04.739Z</time>
      </trkpt>
      <trkpt lat="41.23454" lon="20.64426">
        <ele>770.916576</ele>
        <time>2022-04-27T12:35:06.735Z</time>
      </trkpt>
      <trkpt lat="41.23446" lon="20.64432">
        <ele>770.596418</ele>
        <time>2022-04-27T12:35:08.748Z</time>
      </trkpt>
      <trkpt lat="41.23438" lon="20.64438">
        <ele>770.289933</ele>
        <time>2022-04-27T12:35:10.734Z</time>
      </trkpt>
      <trkpt lat="41.2343" lon="20.64445">
        <ele>769.987038</ele>
        <time>2022-04-27T12:35:12.725Z</time>
      </trkpt>
      <trkpt lat="41.23419" lon="20.64452">
        <ele>769.581624</ele>
        <time>2022-04-27T12:35:15.728Z</time>
      </trkpt>
      <trkpt lat="41.23408" lon="20.64462">
        <ele>769.134226</ele>
        <time>2022-04-27T12:35:18.726Z</time>
      </trkpt>
      <trkpt lat="41.23398" lon="20.64472">
        <ele>768.693442</ele>
        <time>2022-04-27T12:35:21.733Z</time>
      </trkpt>
      <trkpt lat="41.23386" lon="20.64481">
        <ele>768.259748</ele>
        <time>2022-04-27T12:35:24.736Z</time>
      </trkpt>
      <trkpt lat="41.23375" lon="20.64489">
        <ele>767.84722</ele>
        <time>2022-04-27T12:35:27.726Z</time>
      </trkpt>
      <trkpt lat="41.23364" lon="20.64496">
        <ele>767.434175</ele>
        <time>2022-04-27T12:35:30.725Z</time>
      </trkpt>
      <trkpt lat="41.23353" lon="20.64505">
        <ele>767.011671</ele>
        <time>2022-04-27T12:35:33.755Z</time>
      </trkpt>
      <trkpt lat="41.23343" lon="20.64512">
        <ele>766.622709</ele>
        <time>2022-04-27T12:35:36.727Z</time>
      </trkpt>
      <trkpt lat="41.23334" lon="20.6452">
        <ele>766.261467</ele>
        <time>2022-04-27T12:35:39.749Z</time>
      </trkpt>
      <trkpt lat="41.23324" lon="20.64528">
        <ele>765.877745</ele>
        <time>2022-04-27T12:35:42.735Z</time>
      </trkpt>
      <trkpt lat="41.23313" lon="20.64537">
        <ele>765.453916</ele>
        <time>2022-04-27T12:35:45.729Z</time>
      </trkpt>
      <trkpt lat="41.23302" lon="20.64545">
        <ele>765.035472</ele>
        <time>2022-04-27T12:35:48.811Z</time>
      </trkpt>
      <trkpt lat="41.23291" lon="20.64554">
        <ele>764.655757</ele>
        <time>2022-04-27T12:35:51.737Z</time>
      </trkpt>
      <trkpt lat="41.23281" lon="20.64564">
        <ele>764.28042</ele>
        <time>2022-04-27T12:35:54.736Z</time>
      </trkpt>
      <trkpt lat="41.2327" lon="20.64573">
        <ele>763.901821</ele>
        <time>2022-04-27T12:35:57.729Z</time>
      </trkpt>
      <trkpt lat="41.23263" lon="20.64579">
        <ele>763.630371</ele>
        <time>2022-04-27T12:35:59.733Z</time>
      </trkpt>
      <trkpt lat="41.23251" lon="20.64587">
        <ele>763.235219</ele>
        <time>2022-04-27T12:36:02.735Z</time>
      </trkpt>
      <trkpt lat="41.23243" lon="20.64594">
        <ele>762.957886</ele>
        <time>2022-04-27T12:36:04.736Z</time>
      </trkpt>
      <trkpt lat="41.23234" lon="20.64602">
        <ele>762.64301</ele>
        <time>2022-04-27T12:36:06.754Z</time>
      </trkpt>
      <trkpt lat="41.23227" lon="20.64609">
        <ele>762.354425</ele>
        <time>2022-04-27T12:36:08.737Z</time>
      </trkpt>
      <trkpt lat="41.23215" lon="20.64617">
        <ele>761.967165</ele>
        <time>2022-04-27T12:36:11.729Z</time>
      </trkpt>
      <trkpt lat="41.23205" lon="20.64625">
        <ele>761.60588</ele>
        <time>2022-04-27T12:36:14.732Z</time>
      </trkpt>
      <trkpt lat="41.23195" lon="20.64633">
        <ele>761.254802</ele>
        <time>2022-04-27T12:36:17.764Z</time>
      </trkpt>
      <trkpt lat="41.23184" lon="20.64641">
        <ele>760.896622</ele>
        <time>2022-04-27T12:36:20.732Z</time>
      </trkpt>
      <trkpt lat="41.23174" lon="20.64649">
        <ele>760.529495</ele>
        <time>2022-04-27T12:36:23.731Z</time>
      </trkpt>
      <trkpt lat="41.23162" lon="20.64657">
        <ele>760.133801</ele>
        <time>2022-04-27T12:36:26.732Z</time>
      </trkpt>
      <trkpt lat="41.2315" lon="20.64665">
        <ele>759.690201</ele>
        <time>2022-04-27T12:36:29.736Z</time>
      </trkpt>
      <trkpt lat="41.23138" lon="20.64673">
        <ele>759.136084</ele>
        <time>2022-04-27T12:36:32.735Z</time>
      </trkpt>
      <trkpt lat="41.23127" lon="20.64681">
        <ele>758.590792</ele>
        <time>2022-04-27T12:36:35.756Z</time>
      </trkpt>
      <trkpt lat="41.23115" lon="20.64688">
        <ele>758.063769</ele>
        <time>2022-04-27T12:36:38.740Z</time>
      </trkpt>
      <trkpt lat="41.23104" lon="20.64696">
        <ele>757.536745</ele>
        <time>2022-04-27T12:36:41.737Z</time>
      </trkpt>
      <trkpt lat="41.23093" lon="20.64704">
        <ele>757.02306</ele>
        <time>2022-04-27T12:36:44.733Z</time>
      </trkpt>
      <trkpt lat="41.23083" lon="20.64711">
        <ele>756.543127</ele>
        <time>2022-04-27T12:36:47.730Z</time>
      </trkpt>
      <trkpt lat="41.23074" lon="20.64719">
        <ele>756.10122</ele>
        <time>2022-04-27T12:36:50.743Z</time>
      </trkpt>
      <trkpt lat="41.23065" lon="20.64725">
        <ele>755.666159</ele>
        <time>2022-04-27T12:36:53.726Z</time>
      </trkpt>
      <trkpt lat="41.23055" lon="20.64733">
        <ele>755.182063</ele>
        <time>2022-04-27T12:36:56.732Z</time>
      </trkpt>
      <trkpt lat="41.23044" lon="20.64742">
        <ele>754.656164</ele>
        <time>2022-04-27T12:36:59.735Z</time>
      </trkpt>
      <trkpt lat="41.23032" lon="20.64751">
        <ele>754.085826</ele>
        <time>2022-04-27T12:37:02.741Z</time>
      </trkpt>
      <trkpt lat="41.23024" lon="20.64756">
        <ele>753.69334</ele>
        <time>2022-04-27T12:37:04.735Z</time>
      </trkpt>
      <trkpt lat="41.23015" lon="20.64762">
        <ele>753.300159</ele>
        <time>2022-04-27T12:37:06.735Z</time>
      </trkpt>
      <trkpt lat="41.23007" lon="20.64768">
        <ele>752.906978</ele>
        <time>2022-04-27T12:37:08.733Z</time>
      </trkpt>
      <trkpt lat="41.22999" lon="20.64775">
        <ele>752.510768</ele>
        <time>2022-04-27T12:37:10.733Z</time>
      </trkpt>
      <trkpt lat="41.2299" lon="20.64781">
        <ele>752.296585</ele>
        <time>2022-04-27T12:37:12.741Z</time>
      </trkpt>
      <trkpt lat="41.22981" lon="20.64788">
        <ele>752.179018</ele>
        <time>2022-04-27T12:37:14.732Z</time>
      </trkpt>
      <trkpt lat="41.22972" lon="20.64795">
        <ele>752.059709</ele>
        <time>2022-04-27T12:37:16.738Z</time>
      </trkpt>
      <trkpt lat="41.22963" lon="20.64802">
        <ele>751.934435</ele>
        <time>2022-04-27T12:37:18.734Z</time>
      </trkpt>
      <trkpt lat="41.22953" lon="20.6481">
        <ele>751.805012</ele>
        <time>2022-04-27T12:37:20.737Z</time>
      </trkpt>
      <trkpt lat="41.22943" lon="20.64817">
        <ele>751.674288</ele>
        <time>2022-04-27T12:37:22.738Z</time>
      </trkpt>
      <trkpt lat="41.22933" lon="20.64825">
        <ele>751.539457</ele>
        <time>2022-04-27T12:37:24.733Z</time>
      </trkpt>
      <trkpt lat="41.22922" lon="20.64833">
        <ele>751.399913</ele>
        <time>2022-04-27T12:37:26.762Z</time>
      </trkpt>
      <trkpt lat="41.22911" lon="20.64841">
        <ele>751.255091</ele>
        <time>2022-04-27T12:37:28.741Z</time>
      </trkpt>
      <trkpt lat="41.229" lon="20.6485">
        <ele>751.104209</ele>
        <time>2022-04-27T12:37:30.736Z</time>
      </trkpt>
      <trkpt lat="41.22889" lon="20.64859">
        <ele>750.949386</ele>
        <time>2022-04-27T12:37:32.735Z</time>
      </trkpt>
      <trkpt lat="41.22876" lon="20.64868">
        <ele>750.789422</ele>
        <time>2022-04-27T12:37:34.734Z</time>
      </trkpt>
      <trkpt lat="41.22864" lon="20.64877">
        <ele>750.62661</ele>
        <time>2022-04-27T12:37:36.735Z</time>
      </trkpt>
      <trkpt lat="41.22851" lon="20.64886">
        <ele>750.460164</ele>
        <time>2022-04-27T12:37:38.728Z</time>
      </trkpt>
      <trkpt lat="41.22839" lon="20.64896">
        <ele>750.287899</ele>
        <time>2022-04-27T12:37:40.733Z</time>
      </trkpt>
      <trkpt lat="41.22826" lon="20.64905">
        <ele>750.050539</ele>
        <time>2022-04-27T12:37:42.726Z</time>
      </trkpt>
      <trkpt lat="41.22814" lon="20.64914">
        <ele>749.81793</ele>
        <time>2022-04-27T12:37:44.740Z</time>
      </trkpt>
      <trkpt lat="41.22802" lon="20.64922">
        <ele>749.594462</ele>
        <time>2022-04-27T12:37:46.729Z</time>
      </trkpt>
      <trkpt lat="41.22791" lon="20.64931">
        <ele>749.380131</ele>
        <time>2022-04-27T12:37:48.739Z</time>
      </trkpt>
      <trkpt lat="41.2278" lon="20.64939">
        <ele>749.170269</ele>
        <time>2022-04-27T12:37:50.727Z</time>
      </trkpt>
      <trkpt lat="41.22769" lon="20.64946">
        <ele>748.968363</ele>
        <time>2022-04-27T12:37:52.734Z</time>
      </trkpt>
      <trkpt lat="41.22759" lon="20.64954">
        <ele>748.774733</ele>
        <time>2022-04-27T12:37:54.737Z</time>
      </trkpt>
      <trkpt lat="41.22749" lon="20.64961">
        <ele>748.58136</ele>
        <time>2022-04-27T12:37:56.735Z</time>
      </trkpt>
      <trkpt lat="41.22739" lon="20.64968">
        <ele>748.394806</ele>
        <time>2022-04-27T12:37:58.736Z</time>
      </trkpt>
      <trkpt lat="41.2273" lon="20.64975">
        <ele>748.213859</ele>
        <time>2022-04-27T12:38:00.736Z</time>
      </trkpt>
      <trkpt lat="41.2272" lon="20.64982">
        <ele>748.0267</ele>
        <time>2022-04-27T12:38:02.739Z</time>
      </trkpt>
      <trkpt lat="41.22711" lon="20.64989">
        <ele>747.845147</ele>
        <time>2022-04-27T12:38:04.728Z</time>
      </trkpt>
      <trkpt lat="41.22702" lon="20.64996">
        <ele>747.670218</ele>
        <time>2022-04-27T12:38:06.737Z</time>
      </trkpt>
      <trkpt lat="41.22693" lon="20.65003">
        <ele>747.499258</ele>
        <time>2022-04-27T12:38:08.732Z</time>
      </trkpt>
      <trkpt lat="41.22684" lon="20.6501">
        <ele>747.332445</ele>
        <time>2022-04-27T12:38:10.752Z</time>
      </trkpt>
      <trkpt lat="41.22675" lon="20.65016">
        <ele>747.249271</ele>
        <time>2022-04-27T12:38:12.733Z</time>
      </trkpt>
      <trkpt lat="41.22667" lon="20.65023">
        <ele>747.185744</ele>
        <time>2022-04-27T12:38:14.728Z</time>
      </trkpt>
      <trkpt lat="41.22658" lon="20.65029">
        <ele>747.12345</ele>
        <time>2022-04-27T12:38:16.741Z</time>
      </trkpt>
      <trkpt lat="41.22649" lon="20.65035">
        <ele>747.061031</ele>
        <time>2022-04-27T12:38:18.744Z</time>
      </trkpt>
      <trkpt lat="41.22641" lon="20.65041">
        <ele>746.998288</ele>
        <time>2022-04-27T12:38:20.729Z</time>
      </trkpt>
      <trkpt lat="41.22632" lon="20.65048">
        <ele>746.93708</ele>
        <time>2022-04-27T12:38:22.739Z</time>
      </trkpt>
      <trkpt lat="41.22624" lon="20.65054">
        <ele>746.876231</ele>
        <time>2022-04-27T12:38:24.729Z</time>
      </trkpt>
      <trkpt lat="41.22615" lon="20.65061">
        <ele>746.814597</ele>
        <time>2022-04-27T12:38:26.742Z</time>
      </trkpt>
      <trkpt lat="41.22607" lon="20.65067">
        <ele>746.751624</ele>
        <time>2022-04-27T12:38:28.740Z</time>
      </trkpt>
      <trkpt lat="41.22598" lon="20.65074">
        <ele>746.687634</ele>
        <time>2022-04-27T12:38:30.732Z</time>
      </trkpt>
      <trkpt lat="41.22589" lon="20.6508">
        <ele>746.622622</ele>
        <time>2022-04-27T12:38:32.753Z</time>
      </trkpt>
      <trkpt lat="41.2258" lon="20.65087">
        <ele>746.557674</ele>
        <time>2022-04-27T12:38:34.732Z</time>
      </trkpt>
      <trkpt lat="41.22571" lon="20.65094">
        <ele>746.492182</ele>
        <time>2022-04-27T12:38:36.737Z</time>
      </trkpt>
      <trkpt lat="41.22562" lon="20.65101">
        <ele>746.42653</ele>
        <time>2022-04-27T12:38:38.744Z</time>
      </trkpt>
      <trkpt lat="41.22553" lon="20.65107">
        <ele>746.361985</ele>
        <time>2022-04-27T12:38:40.730Z</time>
      </trkpt>
      <trkpt lat="41.22544" lon="20.65114">
        <ele>746.298457</ele>
        <time>2022-04-27T12:38:42.733Z</time>
      </trkpt>
      <trkpt lat="41.22535" lon="20.6512">
        <ele>746.234821</ele>
        <time>2022-04-27T12:38:44.731Z</time>
      </trkpt>
      <trkpt lat="41.22527" lon="20.65126">
        <ele>746.173417</ele>
        <time>2022-04-27T12:38:46.740Z</time>
      </trkpt>
      <trkpt lat="41.22519" lon="20.65132">
        <ele>746.166608</ele>
        <time>2022-04-27T12:38:48.729Z</time>
      </trkpt>
      <trkpt lat="41.22511" lon="20.65139">
        <ele>746.174194</ele>
        <time>2022-04-27T12:38:50.738Z</time>
      </trkpt>
      <trkpt lat="41.22502" lon="20.65145">
        <ele>746.182236</ele>
        <time>2022-04-27T12:38:52.734Z</time>
      </trkpt>
      <trkpt lat="41.22494" lon="20.65152">
        <ele>746.190279</ele>
        <time>2022-04-27T12:38:54.759Z</time>
      </trkpt>
      <trkpt lat="41.22485" lon="20.65158">
        <ele>746.198362</ele>
        <time>2022-04-27T12:38:56.734Z</time>
      </trkpt>
      <trkpt lat="41.22476" lon="20.65165">
        <ele>746.206546</ele>
        <time>2022-04-27T12:38:58.734Z</time>
      </trkpt>
      <trkpt lat="41.22467" lon="20.65171">
        <ele>746.214731</ele>
        <time>2022-04-27T12:39:00.747Z</time>
      </trkpt>
      <trkpt lat="41.22459" lon="20.65178">
        <ele>746.222885</ele>
        <time>2022-04-27T12:39:02.733Z</time>
      </trkpt>
      <trkpt lat="41.2245" lon="20.65184">
        <ele>746.23104</ele>
        <time>2022-04-27T12:39:04.731Z</time>
      </trkpt>
      <trkpt lat="41.22441" lon="20.6519">
        <ele>746.238893</ele>
        <time>2022-04-27T12:39:06.735Z</time>
      </trkpt>
      <trkpt lat="41.22433" lon="20.65196">
        <ele>746.246431</ele>
        <time>2022-04-27T12:39:08.745Z</time>
      </trkpt>
      <trkpt lat="41.22425" lon="20.65202">
        <ele>746.25397</ele>
        <time>2022-04-27T12:39:10.754Z</time>
      </trkpt>
      <trkpt lat="41.22417" lon="20.65209">
        <ele>746.261731</ele>
        <time>2022-04-27T12:39:12.731Z</time>
      </trkpt>
      <trkpt lat="41.22409" lon="20.65215">
        <ele>746.269663</ele>
        <time>2022-04-27T12:39:14.734Z</time>
      </trkpt>
      <trkpt lat="41.224" lon="20.65221">
        <ele>746.277333</ele>
        <time>2022-04-27T12:39:16.731Z</time>
      </trkpt>
      <trkpt lat="41.22392" lon="20.65228">
        <ele>746.285133</ele>
        <time>2022-04-27T12:39:18.736Z</time>
      </trkpt>
      <trkpt lat="41.22383" lon="20.65234">
        <ele>746.293116</ele>
        <time>2022-04-27T12:39:20.750Z</time>
      </trkpt>
      <trkpt lat="41.22375" lon="20.65241">
        <ele>746.300917</ele>
        <time>2022-04-27T12:39:22.738Z</time>
      </trkpt>
      <trkpt lat="41.22367" lon="20.65247">
        <ele>746.355005</ele>
        <time>2022-04-27T12:39:24.732Z</time>
      </trkpt>
      <trkpt lat="41.22358" lon="20.65252">
        <ele>746.549188</ele>
        <time>2022-04-27T12:39:26.735Z</time>
      </trkpt>
      <trkpt lat="41.22349" lon="20.65259">
        <ele>746.751168</ele>
        <time>2022-04-27T12:39:28.731Z</time>
      </trkpt>
      <trkpt lat="41.22341" lon="20.65265">
        <ele>746.943798</ele>
        <time>2022-04-27T12:39:30.741Z</time>
      </trkpt>
      <trkpt lat="41.22332" lon="20.65271">
        <ele>747.140689</ele>
        <time>2022-04-27T12:39:32.758Z</time>
      </trkpt>
      <trkpt lat="41.22323" lon="20.65278">
        <ele>747.341917</ele>
        <time>2022-04-27T12:39:34.733Z</time>
      </trkpt>
      <trkpt lat="41.22315" lon="20.65284">
        <ele>747.544891</ele>
        <time>2022-04-27T12:39:36.733Z</time>
      </trkpt>
      <trkpt lat="41.22306" lon="20.65291">
        <ele>747.742883</ele>
        <time>2022-04-27T12:39:38.734Z</time>
      </trkpt>
      <trkpt lat="41.22297" lon="20.65297">
        <ele>747.945858</ele>
        <time>2022-04-27T12:39:40.735Z</time>
      </trkpt>
      <trkpt lat="41.22288" lon="20.65304">
        <ele>748.154831</ele>
        <time>2022-04-27T12:39:42.735Z</time>
      </trkpt>
      <trkpt lat="41.22279" lon="20.65311">
        <ele>748.36454</ele>
        <time>2022-04-27T12:39:44.740Z</time>
      </trkpt>
      <trkpt lat="41.2227" lon="20.65318">
        <ele>748.579629</ele>
        <time>2022-04-27T12:39:46.738Z</time>
      </trkpt>
      <trkpt lat="41.22261" lon="20.65325">
        <ele>748.783625</ele>
        <time>2022-04-27T12:39:48.732Z</time>
      </trkpt>
      <trkpt lat="41.22252" lon="20.65331">
        <ele>748.984411</ele>
        <time>2022-04-27T12:39:50.736Z</time>
      </trkpt>
      <trkpt lat="41.22243" lon="20.65338">
        <ele>749.189139</ele>
        <time>2022-04-27T12:39:52.733Z</time>
      </trkpt>
      <trkpt lat="41.22234" lon="20.65345">
        <ele>749.402087</ele>
        <time>2022-04-27T12:39:54.758Z</time>
      </trkpt>
      <trkpt lat="41.22225" lon="20.65352">
        <ele>749.617322</ele>
        <time>2022-04-27T12:39:56.739Z</time>
      </trkpt>
      <trkpt lat="41.22215" lon="20.65359">
        <ele>749.837002</ele>
        <time>2022-04-27T12:39:58.738Z</time>
      </trkpt>
      <trkpt lat="41.22206" lon="20.65366">
        <ele>749.831326</ele>
        <time>2022-04-27T12:40:00.729Z</time>
      </trkpt>
      <trkpt lat="41.22197" lon="20.65373">
        <ele>749.684358</ele>
        <time>2022-04-27T12:40:02.739Z</time>
      </trkpt>
      <trkpt lat="41.22188" lon="20.6538">
        <ele>749.537669</ele>
        <time>2022-04-27T12:40:04.728Z</time>
      </trkpt>
      <trkpt lat="41.22179" lon="20.65386">
        <ele>749.394959</ele>
        <time>2022-04-27T12:40:06.752Z</time>
      </trkpt>
      <trkpt lat="41.2217" lon="20.65394">
        <ele>749.241966</ele>
        <time>2022-04-27T12:40:08.734Z</time>
      </trkpt>
      <trkpt lat="41.22161" lon="20.65401">
        <ele>749.092466</ele>
        <time>2022-04-27T12:40:10.747Z</time>
      </trkpt>
      <trkpt lat="41.22151" lon="20.65408">
        <ele>748.941749</ele>
        <time>2022-04-27T12:40:12.744Z</time>
      </trkpt>
      <trkpt lat="41.22142" lon="20.65415">
        <ele>748.791176</ele>
        <time>2022-04-27T12:40:14.730Z</time>
      </trkpt>
      <trkpt lat="41.22133" lon="20.65423">
        <ele>748.641898</ele>
        <time>2022-04-27T12:40:16.737Z</time>
      </trkpt>
      <trkpt lat="41.22124" lon="20.65429">
        <ele>748.490009</ele>
        <time>2022-04-27T12:40:18.731Z</time>
      </trkpt>
      <trkpt lat="41.22114" lon="20.65437">
        <ele>748.335939</ele>
        <time>2022-04-27T12:40:20.739Z</time>
      </trkpt>
      <trkpt lat="41.22105" lon="20.65444">
        <ele>748.183716</ele>
        <time>2022-04-27T12:40:22.732Z</time>
      </trkpt>
      <trkpt lat="41.22096" lon="20.65452">
        <ele>748.0338</ele>
        <time>2022-04-27T12:40:24.731Z</time>
      </trkpt>
      <trkpt lat="41.22087" lon="20.65459">
        <ele>747.885513</ele>
        <time>2022-04-27T12:40:26.738Z</time>
      </trkpt>
      <trkpt lat="41.22078" lon="20.65466">
        <ele>747.740184</ele>
        <time>2022-04-27T12:40:28.734Z</time>
      </trkpt>
      <trkpt lat="41.22069" lon="20.65473">
        <ele>747.589611</ele>
        <time>2022-04-27T12:40:30.734Z</time>
      </trkpt>
      <trkpt lat="41.2206" lon="20.65481">
        <ele>747.441555</ele>
        <time>2022-04-27T12:40:32.732Z</time>
      </trkpt>
      <trkpt lat="41.22051" lon="20.65489">
        <ele>747.408579</ele>
        <time>2022-04-27T12:40:34.730Z</time>
      </trkpt>
      <trkpt lat="41.22041" lon="20.65496">
        <ele>747.432612</ele>
        <time>2022-04-27T12:40:36.760Z</time>
      </trkpt>
      <trkpt lat="41.22031" lon="20.65503">
        <ele>747.456598</ele>
        <time>2022-04-27T12:40:38.731Z</time>
      </trkpt>
      <trkpt lat="41.22022" lon="20.6551">
        <ele>747.480256</ele>
        <time>2022-04-27T12:40:40.728Z</time>
      </trkpt>
      <trkpt lat="41.22012" lon="20.65518">
        <ele>747.504078</ele>
        <time>2022-04-27T12:40:42.735Z</time>
      </trkpt>
      <trkpt lat="41.22003" lon="20.65525">
        <ele>747.527388</ele>
        <time>2022-04-27T12:40:44.742Z</time>
      </trkpt>
      <trkpt lat="41.21993" lon="20.65532">
        <ele>747.550698</ele>
        <time>2022-04-27T12:40:46.737Z</time>
      </trkpt>
      <trkpt lat="41.21984" lon="20.65539">
        <ele>747.574266</ele>
        <time>2022-04-27T12:40:48.741Z</time>
      </trkpt>
      <trkpt lat="41.21974" lon="20.65545">
        <ele>747.598292</ele>
        <time>2022-04-27T12:40:50.733Z</time>
      </trkpt>
      <trkpt lat="41.21964" lon="20.65553">
        <ele>747.622754</ele>
        <time>2022-04-27T12:40:52.739Z</time>
      </trkpt>
      <trkpt lat="41.21954" lon="20.6556">
        <ele>747.646145</ele>
        <time>2022-04-27T12:40:54.733Z</time>
      </trkpt>
      <trkpt lat="41.21945" lon="20.65567">
        <ele>747.669375</ele>
        <time>2022-04-27T12:40:56.734Z</time>
      </trkpt>
      <trkpt lat="41.21936" lon="20.65574">
        <ele>747.692579</ele>
        <time>2022-04-27T12:40:58.739Z</time>
      </trkpt>
      <trkpt lat="41.21927" lon="20.65582">
        <ele>747.715932</ele>
        <time>2022-04-27T12:41:00.733Z</time>
      </trkpt>
      <trkpt lat="41.21918" lon="20.65589">
        <ele>747.738065</ele>
        <time>2022-04-27T12:41:02.733Z</time>
      </trkpt>
      <trkpt lat="41.21909" lon="20.65595">
        <ele>747.759207</ele>
        <time>2022-04-27T12:41:04.739Z</time>
      </trkpt>
      <trkpt lat="41.219" lon="20.65602">
        <ele>747.774332</ele>
        <time>2022-04-27T12:41:06.735Z</time>
      </trkpt>
      <trkpt lat="41.21892" lon="20.65609">
        <ele>747.638059</ele>
        <time>2022-04-27T12:41:08.736Z</time>
      </trkpt>
      <trkpt lat="41.21884" lon="20.65616">
        <ele>747.508069</ele>
        <time>2022-04-27T12:41:10.736Z</time>
      </trkpt>
      <trkpt lat="41.21875" lon="20.65623">
        <ele>747.372195</ele>
        <time>2022-04-27T12:41:12.742Z</time>
      </trkpt>
      <trkpt lat="41.21867" lon="20.6563">
        <ele>747.236534</ele>
        <time>2022-04-27T12:41:14.751Z</time>
      </trkpt>
      <trkpt lat="41.21858" lon="20.65637">
        <ele>747.101827</ele>
        <time>2022-04-27T12:41:16.727Z</time>
      </trkpt>
      <trkpt lat="41.21849" lon="20.65644">
        <ele>746.963241</ele>
        <time>2022-04-27T12:41:18.736Z</time>
      </trkpt>
      <trkpt lat="41.2184" lon="20.65651">
        <ele>746.8236</ele>
        <time>2022-04-27T12:41:20.733Z</time>
      </trkpt>
      <trkpt lat="41.21832" lon="20.65658">
        <ele>746.688477</ele>
        <time>2022-04-27T12:41:22.732Z</time>
      </trkpt>
      <trkpt lat="41.21823" lon="20.65665">
        <ele>746.549985</ele>
        <time>2022-04-27T12:41:24.727Z</time>
      </trkpt>
      <trkpt lat="41.21814" lon="20.65672">
        <ele>746.409191</ele>
        <time>2022-04-27T12:41:26.729Z</time>
      </trkpt>
      <trkpt lat="41.21805" lon="20.6568">
        <ele>746.268473</ele>
        <time>2022-04-27T12:41:28.736Z</time>
      </trkpt>
      <trkpt lat="41.21797" lon="20.65687">
        <ele>746.129887</ele>
        <time>2022-04-27T12:41:30.736Z</time>
      </trkpt>
      <trkpt lat="41.21787" lon="20.65694">
        <ele>745.984957</ele>
        <time>2022-04-27T12:41:32.729Z</time>
      </trkpt>
      <trkpt lat="41.21778" lon="20.657">
        <ele>745.845559</ele>
        <time>2022-04-27T12:41:34.729Z</time>
      </trkpt>
      <trkpt lat="41.21769" lon="20.65707">
        <ele>745.707339</ele>
        <time>2022-04-27T12:41:36.734Z</time>
      </trkpt>
      <trkpt lat="41.21761" lon="20.65714">
        <ele>745.571464</ele>
        <time>2022-04-27T12:41:38.731Z</time>
      </trkpt>
      <trkpt lat="41.21752" lon="20.65721">
        <ele>745.432877</ele>
        <time>2022-04-27T12:41:40.738Z</time>
      </trkpt>
      <trkpt lat="41.21743" lon="20.65729">
        <ele>745.192172</ele>
        <time>2022-04-27T12:41:42.738Z</time>
      </trkpt>
      <trkpt lat="41.21734" lon="20.65736">
        <ele>744.848222</ele>
        <time>2022-04-27T12:41:44.735Z</time>
      </trkpt>
      <trkpt lat="41.21725" lon="20.65743">
        <ele>744.519502</ele>
        <time>2022-04-27T12:41:46.734Z</time>
      </trkpt>
      <trkpt lat="41.21717" lon="20.65751">
        <ele>744.188074</ele>
        <time>2022-04-27T12:41:48.737Z</time>
      </trkpt>
      <trkpt lat="41.21709" lon="20.65758">
        <ele>743.860513</ele>
        <time>2022-04-27T12:41:50.764Z</time>
      </trkpt>
      <trkpt lat="41.217" lon="20.65764">
        <ele>743.530141</ele>
        <time>2022-04-27T12:41:52.731Z</time>
      </trkpt>
      <trkpt lat="41.21691" lon="20.65771">
        <ele>743.192855</ele>
        <time>2022-04-27T12:41:54.733Z</time>
      </trkpt>
      <trkpt lat="41.21682" lon="20.65779">
        <ele>742.838893</ele>
        <time>2022-04-27T12:41:56.736Z</time>
      </trkpt>
      <trkpt lat="41.21672" lon="20.65786">
        <ele>742.479589</ele>
        <time>2022-04-27T12:41:58.730Z</time>
      </trkpt>
      <trkpt lat="41.21663" lon="20.65793">
        <ele>742.112513</ele>
        <time>2022-04-27T12:42:00.742Z</time>
      </trkpt>
      <trkpt lat="41.21653" lon="20.65801">
        <ele>741.734884</ele>
        <time>2022-04-27T12:42:02.735Z</time>
      </trkpt>
      <trkpt lat="41.21643" lon="20.65808">
        <ele>741.359213</ele>
        <time>2022-04-27T12:42:04.749Z</time>
      </trkpt>
      <trkpt lat="41.21633" lon="20.65816">
        <ele>740.987299</ele>
        <time>2022-04-27T12:42:06.757Z</time>
      </trkpt>
      <trkpt lat="41.21623" lon="20.65823">
        <ele>740.61088</ele>
        <time>2022-04-27T12:42:08.743Z</time>
      </trkpt>
      <trkpt lat="41.21613" lon="20.65831">
        <ele>740.234881</ele>
        <time>2022-04-27T12:42:10.730Z</time>
      </trkpt>
      <trkpt lat="41.21604" lon="20.65838">
        <ele>739.876437</ele>
        <time>2022-04-27T12:42:12.736Z</time>
      </trkpt>
      <trkpt lat="41.21593" lon="20.65846">
        <ele>739.491862</ele>
        <time>2022-04-27T12:42:14.737Z</time>
      </trkpt>
      <trkpt lat="41.21583" lon="20.65854">
        <ele>739.328888</ele>
        <time>2022-04-27T12:42:16.738Z</time>
      </trkpt>
      <trkpt lat="41.21573" lon="20.65862">
        <ele>739.204837</ele>
        <time>2022-04-27T12:42:18.745Z</time>
      </trkpt>
      <trkpt lat="41.21564" lon="20.6587">
        <ele>739.081269</ele>
        <time>2022-04-27T12:42:20.726Z</time>
      </trkpt>
      <trkpt lat="41.21554" lon="20.65878">
        <ele>738.956851</ele>
        <time>2022-04-27T12:42:22.739Z</time>
      </trkpt>
      <trkpt lat="41.21544" lon="20.65886">
        <ele>738.837661</ele>
        <time>2022-04-27T12:42:24.741Z</time>
      </trkpt>
      <trkpt lat="41.21534" lon="20.65894">
        <ele>738.717066</ele>
        <time>2022-04-27T12:42:26.747Z</time>
      </trkpt>
      <trkpt lat="41.21524" lon="20.65902">
        <ele>738.593725</ele>
        <time>2022-04-27T12:42:28.733Z</time>
      </trkpt>
      <trkpt lat="41.21514" lon="20.65909">
        <ele>738.466303</ele>
        <time>2022-04-27T12:42:30.759Z</time>
      </trkpt>
      <trkpt lat="41.21504" lon="20.65917">
        <ele>738.342664</ele>
        <time>2022-04-27T12:42:32.746Z</time>
      </trkpt>
      <trkpt lat="41.21493" lon="20.65926">
        <ele>738.216387</ele>
        <time>2022-04-27T12:42:34.742Z</time>
      </trkpt>
      <trkpt lat="41.21483" lon="20.65934">
        <ele>738.09011</ele>
        <time>2022-04-27T12:42:36.728Z</time>
      </trkpt>
      <trkpt lat="41.21473" lon="20.65942">
        <ele>737.96437</ele>
        <time>2022-04-27T12:42:38.724Z</time>
      </trkpt>
      <trkpt lat="41.21463" lon="20.65951">
        <ele>737.835115</ele>
        <time>2022-04-27T12:42:40.734Z</time>
      </trkpt>
      <trkpt lat="41.21453" lon="20.65961">
        <ele>737.704504</ele>
        <time>2022-04-27T12:42:42.732Z</time>
      </trkpt>
      <trkpt lat="41.21443" lon="20.65971">
        <ele>737.572786</ele>
        <time>2022-04-27T12:42:44.738Z</time>
      </trkpt>
      <trkpt lat="41.21434" lon="20.65981">
        <ele>737.552198</ele>
        <time>2022-04-27T12:42:46.736Z</time>
      </trkpt>
      <trkpt lat="41.21424" lon="20.65992">
        <ele>737.589302</ele>
        <time>2022-04-27T12:42:48.730Z</time>
      </trkpt>
      <trkpt lat="41.21414" lon="20.66003">
        <ele>737.627102</ele>
        <time>2022-04-27T12:42:50.736Z</time>
      </trkpt>
      <trkpt lat="41.21405" lon="20.66015">
        <ele>737.665564</ele>
        <time>2022-04-27T12:42:52.729Z</time>
      </trkpt>
      <trkpt lat="41.21395" lon="20.66026">
        <ele>737.70432</ele>
        <time>2022-04-27T12:42:54.743Z</time>
      </trkpt>
      <trkpt lat="41.21385" lon="20.66037">
        <ele>737.742642</ele>
        <time>2022-04-27T12:42:56.733Z</time>
      </trkpt>
      <trkpt lat="41.21375" lon="20.66049">
        <ele>737.781869</ele>
        <time>2022-04-27T12:42:58.771Z</time>
      </trkpt>
      <trkpt lat="41.21364" lon="20.66059">
        <ele>737.82054</ele>
        <time>2022-04-27T12:43:00.729Z</time>
      </trkpt>
      <trkpt lat="41.21354" lon="20.6607">
        <ele>737.859677</ele>
        <time>2022-04-27T12:43:02.740Z</time>
      </trkpt>
      <trkpt lat="41.21343" lon="20.66081">
        <ele>737.898855</ele>
        <time>2022-04-27T12:43:04.736Z</time>
      </trkpt>
      <trkpt lat="41.21334" lon="20.66092">
        <ele>737.936891</ele>
        <time>2022-04-27T12:43:06.749Z</time>
      </trkpt>
      <trkpt lat="41.21324" lon="20.66103">
        <ele>737.974135</ele>
        <time>2022-04-27T12:43:08.736Z</time>
      </trkpt>
      <trkpt lat="41.21314" lon="20.66113">
        <ele>738.010321</ele>
        <time>2022-04-27T12:43:10.737Z</time>
      </trkpt>
      <trkpt lat="41.21304" lon="20.66123">
        <ele>738.047947</ele>
        <time>2022-04-27T12:43:12.737Z</time>
      </trkpt>
      <trkpt lat="41.21294" lon="20.66134">
        <ele>738.024982</ele>
        <time>2022-04-27T12:43:14.731Z</time>
      </trkpt>
      <trkpt lat="41.21284" lon="20.66145">
        <ele>737.978117</ele>
        <time>2022-04-27T12:43:16.743Z</time>
      </trkpt>
      <trkpt lat="41.21273" lon="20.66155">
        <ele>737.931251</ele>
        <time>2022-04-27T12:43:18.734Z</time>
      </trkpt>
      <trkpt lat="41.21263" lon="20.66166">
        <ele>737.883982</ele>
        <time>2022-04-27T12:43:20.730Z</time>
      </trkpt>
      <trkpt lat="41.21253" lon="20.66176">
        <ele>737.837781</ele>
        <time>2022-04-27T12:43:22.733Z</time>
      </trkpt>
      <trkpt lat="41.21243" lon="20.66186">
        <ele>737.793385</ele>
        <time>2022-04-27T12:43:24.734Z</time>
      </trkpt>
      <trkpt lat="41.21232" lon="20.66196">
        <ele>737.746478</ele>
        <time>2022-04-27T12:43:26.741Z</time>
      </trkpt>
      <trkpt lat="41.21222" lon="20.66207">
        <ele>737.698922</ele>
        <time>2022-04-27T12:43:28.727Z</time>
      </trkpt>
      <trkpt lat="41.21211" lon="20.66217">
        <ele>737.651564</ele>
        <time>2022-04-27T12:43:30.736Z</time>
      </trkpt>
      <trkpt lat="41.21201" lon="20.66227">
        <ele>737.605289</ele>
        <time>2022-04-27T12:43:32.744Z</time>
      </trkpt>
      <trkpt lat="41.21191" lon="20.66237">
        <ele>737.559603</ele>
        <time>2022-04-27T12:43:34.732Z</time>
      </trkpt>
      <trkpt lat="41.2118" lon="20.66247">
        <ele>737.512535</ele>
        <time>2022-04-27T12:43:36.731Z</time>
      </trkpt>
      <trkpt lat="41.2117" lon="20.66257">
        <ele>737.465306</ele>
        <time>2022-04-27T12:43:38.732Z</time>
      </trkpt>
      <trkpt lat="41.21159" lon="20.66268">
        <ele>737.417462</ele>
        <time>2022-04-27T12:43:40.730Z</time>
      </trkpt>
      <trkpt lat="41.21149" lon="20.66278">
        <ele>737.252748</ele>
        <time>2022-04-27T12:43:42.727Z</time>
      </trkpt>
      <trkpt lat="41.21139" lon="20.66288">
        <ele>737.067157</ele>
        <time>2022-04-27T12:43:44.755Z</time>
      </trkpt>
      <trkpt lat="41.21129" lon="20.66298">
        <ele>736.879684</ele>
        <time>2022-04-27T12:43:46.734Z</time>
      </trkpt>
      <trkpt lat="41.21121" lon="20.66307">
        <ele>736.716755</ele>
        <time>2022-04-27T12:43:48.731Z</time>
      </trkpt>
      <trkpt lat="41.21112" lon="20.66316">
        <ele>736.547239</ele>
        <time>2022-04-27T12:43:51.736Z</time>
      </trkpt>
      <trkpt lat="41.21103" lon="20.66325">
        <ele>736.382429</ele>
        <time>2022-04-27T12:43:54.747Z</time>
      </trkpt>
      <trkpt lat="41.21093" lon="20.66335">
        <ele>736.190515</ele>
        <time>2022-04-27T12:43:57.729Z</time>
      </trkpt>
      <trkpt lat="41.21086" lon="20.66343">
        <ele>736.051099</ele>
        <time>2022-04-27T12:43:59.729Z</time>
      </trkpt>
      <trkpt lat="41.21078" lon="20.66351">
        <ele>735.908125</ele>
        <time>2022-04-27T12:44:01.756Z</time>
      </trkpt>
      <trkpt lat="41.21071" lon="20.66359">
        <ele>735.761878</ele>
        <time>2022-04-27T12:44:03.738Z</time>
      </trkpt>
      <trkpt lat="41.21063" lon="20.66367">
        <ele>735.618699</ele>
        <time>2022-04-27T12:44:05.732Z</time>
      </trkpt>
      <trkpt lat="41.21056" lon="20.66374">
        <ele>735.478784</ele>
        <time>2022-04-27T12:44:07.754Z</time>
      </trkpt>
      <trkpt lat="41.21048" lon="20.66381">
        <ele>735.342781</ele>
        <time>2022-04-27T12:44:09.732Z</time>
      </trkpt>
      <trkpt lat="41.21041" lon="20.66388">
        <ele>735.202522</ele>
        <time>2022-04-27T12:44:11.731Z</time>
      </trkpt>
      <trkpt lat="41.21033" lon="20.66396">
        <ele>735.054016</ele>
        <time>2022-04-27T12:44:13.753Z</time>
      </trkpt>
      <trkpt lat="41.21025" lon="20.66404">
        <ele>734.910487</ele>
        <time>2022-04-27T12:44:15.727Z</time>
      </trkpt>
      <trkpt lat="41.21018" lon="20.66411">
        <ele>734.771255</ele>
        <time>2022-04-27T12:44:17.737Z</time>
      </trkpt>
      <trkpt lat="41.21008" lon="20.6642">
        <ele>734.684353</ele>
        <time>2022-04-27T12:44:20.741Z</time>
      </trkpt>
      <trkpt lat="41.20998" lon="20.66431">
        <ele>734.648288</ele>
        <time>2022-04-27T12:44:23.731Z</time>
      </trkpt>
      <trkpt lat="41.20991" lon="20.66438">
        <ele>734.62123</ele>
        <time>2022-04-27T12:44:25.733Z</time>
      </trkpt>
      <trkpt lat="41.20984" lon="20.66445">
        <ele>734.595317</ele>
        <time>2022-04-27T12:44:27.731Z</time>
      </trkpt>
      <trkpt lat="41.20977" lon="20.66453">
        <ele>734.569358</ele>
        <time>2022-04-27T12:44:29.728Z</time>
      </trkpt>
      <trkpt lat="41.20969" lon="20.66461">
        <ele>734.542952</ele>
        <time>2022-04-27T12:44:31.741Z</time>
      </trkpt>
      <trkpt lat="41.20962" lon="20.66468">
        <ele>734.515734</ele>
        <time>2022-04-27T12:44:33.742Z</time>
      </trkpt>
      <trkpt lat="41.20954" lon="20.66477">
        <ele>734.485543</ele>
        <time>2022-04-27T12:44:35.750Z</time>
      </trkpt>
      <trkpt lat="41.20945" lon="20.66486">
        <ele>734.454642</ele>
        <time>2022-04-27T12:44:37.734Z</time>
      </trkpt>
      <trkpt lat="41.20937" lon="20.66495">
        <ele>734.425038</ele>
        <time>2022-04-27T12:44:39.731Z</time>
      </trkpt>
      <trkpt lat="41.20929" lon="20.66502">
        <ele>734.396796</ele>
        <time>2022-04-27T12:44:41.729Z</time>
      </trkpt>
      <trkpt lat="41.20921" lon="20.6651">
        <ele>734.368403</ele>
        <time>2022-04-27T12:44:43.733Z</time>
      </trkpt>
      <trkpt lat="41.20914" lon="20.66518">
        <ele>734.339615</ele>
        <time>2022-04-27T12:44:45.729Z</time>
      </trkpt>
      <trkpt lat="41.20906" lon="20.66526">
        <ele>734.31213</ele>
        <time>2022-04-27T12:44:47.734Z</time>
      </trkpt>
      <trkpt lat="41.20898" lon="20.66534">
        <ele>734.283737</ele>
        <time>2022-04-27T12:44:49.752Z</time>
      </trkpt>
      <trkpt lat="41.2089" lon="20.66542">
        <ele>734.25423</ele>
        <time>2022-04-27T12:44:51.734Z</time>
      </trkpt>
      <trkpt lat="41.20882" lon="20.66551">
        <ele>734.225123</ele>
        <time>2022-04-27T12:44:53.729Z</time>
      </trkpt>
      <trkpt lat="41.20874" lon="20.6656">
        <ele>734.19552</ele>
        <time>2022-04-27T12:44:55.727Z</time>
      </trkpt>
      <trkpt lat="41.20867" lon="20.66569">
        <ele>734.165183</ele>
        <time>2022-04-27T12:44:57.727Z</time>
      </trkpt>
      <trkpt lat="41.20858" lon="20.66578">
        <ele>734.132012</ele>
        <time>2022-04-27T12:44:59.734Z</time>
      </trkpt>
      <trkpt lat="41.20849" lon="20.66588">
        <ele>734.097765</ele>
        <time>2022-04-27T12:45:01.744Z</time>
      </trkpt>
      <trkpt lat="41.20841" lon="20.66597">
        <ele>734.063839</ele>
        <time>2022-04-27T12:45:03.732Z</time>
      </trkpt>
      <trkpt lat="41.20833" lon="20.66607">
        <ele>734.031571</ele>
        <time>2022-04-27T12:45:05.738Z</time>
      </trkpt>
      <trkpt lat="41.20825" lon="20.66616">
        <ele>733.999834</ele>
        <time>2022-04-27T12:45:07.728Z</time>
      </trkpt>
      <trkpt lat="41.20817" lon="20.66626">
        <ele>733.966893</ele>
        <time>2022-04-27T12:45:09.727Z</time>
      </trkpt>
      <trkpt lat="41.20809" lon="20.66635">
        <ele>733.934033</ele>
        <time>2022-04-27T12:45:11.734Z</time>
      </trkpt>
      <trkpt lat="41.20801" lon="20.66644">
        <ele>733.901908</ele>
        <time>2022-04-27T12:45:13.757Z</time>
      </trkpt>
      <trkpt lat="41.20793" lon="20.66654">
        <ele>733.870701</ele>
        <time>2022-04-27T12:45:15.744Z</time>
      </trkpt>
      <trkpt lat="41.20786" lon="20.66664">
        <ele>733.838822</ele>
        <time>2022-04-27T12:45:17.742Z</time>
      </trkpt>
      <trkpt lat="41.20778" lon="20.66674">
        <ele>733.806868</ele>
        <time>2022-04-27T12:45:19.754Z</time>
      </trkpt>
      <trkpt lat="41.20772" lon="20.66684">
        <ele>733.775353</ele>
        <time>2022-04-27T12:45:21.746Z</time>
      </trkpt>
      <trkpt lat="41.20765" lon="20.66695">
        <ele>733.743668</ele>
        <time>2022-04-27T12:45:23.733Z</time>
      </trkpt>
      <trkpt lat="41.20758" lon="20.66705">
        <ele>733.712396</ele>
        <time>2022-04-27T12:45:25.748Z</time>
      </trkpt>
      <trkpt lat="41.20751" lon="20.66716">
        <ele>733.680367</ele>
        <time>2022-04-27T12:45:27.742Z</time>
      </trkpt>
      <trkpt lat="41.20743" lon="20.66727">
        <ele>733.646052</ele>
        <time>2022-04-27T12:45:29.733Z</time>
      </trkpt>
      <trkpt lat="41.20736" lon="20.66738">
        <ele>733.557668</ele>
        <time>2022-04-27T12:45:31.753Z</time>
      </trkpt>
      <trkpt lat="41.20729" lon="20.66748">
        <ele>733.473875</ele>
        <time>2022-04-27T12:45:33.733Z</time>
      </trkpt>
      <trkpt lat="41.20723" lon="20.66759">
        <ele>733.387939</ele>
        <time>2022-04-27T12:45:35.733Z</time>
      </trkpt>
      <trkpt lat="41.20716" lon="20.66771">
        <ele>733.29763</ele>
        <time>2022-04-27T12:45:37.727Z</time>
      </trkpt>
      <trkpt lat="41.2071" lon="20.66783">
        <ele>733.206785</ele>
        <time>2022-04-27T12:45:39.728Z</time>
      </trkpt>
      <trkpt lat="41.20703" lon="20.66795">
        <ele>733.112951</ele>
        <time>2022-04-27T12:45:41.732Z</time>
      </trkpt>
      <trkpt lat="41.20697" lon="20.66808">
        <ele>733.019577</ele>
        <time>2022-04-27T12:45:43.737Z</time>
      </trkpt>
      <trkpt lat="41.2069" lon="20.6682">
        <ele>732.926249</ele>
        <time>2022-04-27T12:45:45.732Z</time>
      </trkpt>
      <trkpt lat="41.20684" lon="20.66833">
        <ele>732.834431</ele>
        <time>2022-04-27T12:45:47.729Z</time>
      </trkpt>
      <trkpt lat="41.20677" lon="20.66845">
        <ele>732.74304</ele>
        <time>2022-04-27T12:45:49.739Z</time>
      </trkpt>
      <trkpt lat="41.20671" lon="20.66857">
        <ele>732.653695</ele>
        <time>2022-04-27T12:45:51.728Z</time>
      </trkpt>
      <trkpt lat="41.20665" lon="20.66869">
        <ele>732.563282</ele>
        <time>2022-04-27T12:45:53.729Z</time>
      </trkpt>
      <trkpt lat="41.20659" lon="20.66881">
        <ele>732.473911</ele>
        <time>2022-04-27T12:45:55.730Z</time>
      </trkpt>
      <trkpt lat="41.20653" lon="20.66893">
        <ele>732.385007</ele>
        <time>2022-04-27T12:45:57.730Z</time>
      </trkpt>
      <trkpt lat="41.20646" lon="20.66905">
        <ele>732.294686</ele>
        <time>2022-04-27T12:45:59.758Z</time>
      </trkpt>
      <trkpt lat="41.20639" lon="20.66917">
        <ele>732.197919</ele>
        <time>2022-04-27T12:46:01.737Z</time>
      </trkpt>
      <trkpt lat="41.20632" lon="20.6693">
        <ele>732.137577</ele>
        <time>2022-04-27T12:46:03.730Z</time>
      </trkpt>
      <trkpt lat="41.20625" lon="20.66942">
        <ele>732.088024</ele>
        <time>2022-04-27T12:46:05.756Z</time>
      </trkpt>
      <trkpt lat="41.20618" lon="20.66954">
        <ele>732.037962</ele>
        <time>2022-04-27T12:46:07.737Z</time>
      </trkpt>
      <trkpt lat="41.20612" lon="20.66966">
        <ele>731.991524</ele>
        <time>2022-04-27T12:46:09.742Z</time>
      </trkpt>
      <trkpt lat="41.20606" lon="20.66977">
        <ele>731.948144</ele>
        <time>2022-04-27T12:46:11.731Z</time>
      </trkpt>
      <trkpt lat="41.206" lon="20.66988">
        <ele>731.90378</ele>
        <time>2022-04-27T12:46:13.734Z</time>
      </trkpt>
      <trkpt lat="41.20594" lon="20.66999">
        <ele>731.859162</ele>
        <time>2022-04-27T12:46:15.731Z</time>
      </trkpt>
      <trkpt lat="41.20588" lon="20.67011">
        <ele>731.814516</ele>
        <time>2022-04-27T12:46:17.735Z</time>
      </trkpt>
      <trkpt lat="41.20582" lon="20.67021">
        <ele>731.771446</ele>
        <time>2022-04-27T12:46:19.747Z</time>
      </trkpt>
      <trkpt lat="41.20576" lon="20.67033">
        <ele>731.725773</ele>
        <time>2022-04-27T12:46:21.744Z</time>
      </trkpt>
      <trkpt lat="41.2057" lon="20.67045">
        <ele>731.678557</ele>
        <time>2022-04-27T12:46:23.733Z</time>
      </trkpt>
      <trkpt lat="41.20563" lon="20.67057">
        <ele>731.631326</ele>
        <time>2022-04-27T12:46:25.742Z</time>
      </trkpt>
      <trkpt lat="41.20557" lon="20.67068">
        <ele>731.58334</ele>
        <time>2022-04-27T12:46:27.753Z</time>
      </trkpt>
      <trkpt lat="41.2055" lon="20.6708">
        <ele>731.534058</ele>
        <time>2022-04-27T12:46:29.744Z</time>
      </trkpt>
      <trkpt lat="41.20543" lon="20.67092">
        <ele>731.486591</ele>
        <time>2022-04-27T12:46:31.737Z</time>
      </trkpt>
      <trkpt lat="41.20537" lon="20.67104">
        <ele>731.440669</ele>
        <time>2022-04-27T12:46:33.729Z</time>
      </trkpt>
      <trkpt lat="41.20532" lon="20.67114">
        <ele>731.404594</ele>
        <time>2022-04-27T12:46:35.737Z</time>
      </trkpt>
      <trkpt lat="41.20526" lon="20.67125">
        <ele>731.479992</ele>
        <time>2022-04-27T12:46:37.734Z</time>
      </trkpt>
      <trkpt lat="41.2052" lon="20.67135">
        <ele>731.555389</ele>
        <time>2022-04-27T12:46:39.746Z</time>
      </trkpt>
      <trkpt lat="41.20515" lon="20.67145">
        <ele>731.630803</ele>
        <time>2022-04-27T12:46:41.729Z</time>
      </trkpt>
      <trkpt lat="41.20509" lon="20.67156">
        <ele>731.709529</ele>
        <time>2022-04-27T12:46:43.741Z</time>
      </trkpt>
      <trkpt lat="41.20503" lon="20.67167">
        <ele>731.790577</ele>
        <time>2022-04-27T12:46:45.732Z</time>
      </trkpt>
      <trkpt lat="41.20496" lon="20.67178">
        <ele>731.871711</ele>
        <time>2022-04-27T12:46:47.727Z</time>
      </trkpt>
      <trkpt lat="41.20489" lon="20.67188">
        <ele>731.952449</ele>
        <time>2022-04-27T12:46:49.753Z</time>
      </trkpt>
      <trkpt lat="41.20483" lon="20.67199">
        <ele>732.035102</ele>
        <time>2022-04-27T12:46:51.731Z</time>
      </trkpt>
      <trkpt lat="41.20475" lon="20.67209">
        <ele>732.117534</ele>
        <time>2022-04-27T12:46:53.738Z</time>
      </trkpt>
      <trkpt lat="41.20467" lon="20.67216">
        <ele>732.196566</ele>
        <time>2022-04-27T12:46:55.729Z</time>
      </trkpt>
      <trkpt lat="41.20458" lon="20.67224">
        <ele>732.276862</ele>
        <time>2022-04-27T12:46:57.735Z</time>
      </trkpt>
      <trkpt lat="41.20449" lon="20.6723">
        <ele>732.358397</ele>
        <time>2022-04-27T12:46:59.742Z</time>
      </trkpt>
      <trkpt lat="41.2044" lon="20.67236">
        <ele>732.439623</ele>
        <time>2022-04-27T12:47:01.729Z</time>
      </trkpt>
      <trkpt lat="41.2043" lon="20.67241">
        <ele>732.521897</ele>
        <time>2022-04-27T12:47:03.733Z</time>
      </trkpt>
      <trkpt lat="41.2042" lon="20.67246">
        <ele>732.606371</ele>
        <time>2022-04-27T12:47:05.730Z</time>
      </trkpt>
      <trkpt lat="41.2041" lon="20.6725">
        <ele>732.6873</ele>
        <time>2022-04-27T12:47:07.732Z</time>
      </trkpt>
      <trkpt lat="41.204" lon="20.67253">
        <ele>732.766756</ele>
        <time>2022-04-27T12:47:09.729Z</time>
      </trkpt>
      <trkpt lat="41.2039" lon="20.67255">
        <ele>732.779975</ele>
        <time>2022-04-27T12:47:11.728Z</time>
      </trkpt>
      <trkpt lat="41.2038" lon="20.67257">
        <ele>732.712824</ele>
        <time>2022-04-27T12:47:13.737Z</time>
      </trkpt>
      <trkpt lat="41.20371" lon="20.67259">
        <ele>732.647881</ele>
        <time>2022-04-27T12:47:15.733Z</time>
      </trkpt>
      <trkpt lat="41.20362" lon="20.67261">
        <ele>732.580812</ele>
        <time>2022-04-27T12:47:17.757Z</time>
      </trkpt>
      <trkpt lat="41.20352" lon="20.67263">
        <ele>732.511014</ele>
        <time>2022-04-27T12:47:19.731Z</time>
      </trkpt>
      <trkpt lat="41.20342" lon="20.67265">
        <ele>732.443945</ele>
        <time>2022-04-27T12:47:21.741Z</time>
      </trkpt>
      <trkpt lat="41.20332" lon="20.67267">
        <ele>732.376543</ele>
        <time>2022-04-27T12:47:23.751Z</time>
      </trkpt>
      <trkpt lat="41.20323" lon="20.67268">
        <ele>732.311066</ele>
        <time>2022-04-27T12:47:25.728Z</time>
      </trkpt>
      <trkpt lat="41.20313" lon="20.6727">
        <ele>732.241951</ele>
        <time>2022-04-27T12:47:27.732Z</time>
      </trkpt>
      <trkpt lat="41.20303" lon="20.67273">
        <ele>732.169863</ele>
        <time>2022-04-27T12:47:29.759Z</time>
      </trkpt>
      <trkpt lat="41.20293" lon="20.67275">
        <ele>732.099222</ele>
        <time>2022-04-27T12:47:31.732Z</time>
      </trkpt>
      <trkpt lat="41.20282" lon="20.67277">
        <ele>732.02553</ele>
        <time>2022-04-27T12:47:33.735Z</time>
      </trkpt>
      <trkpt lat="41.20271" lon="20.67279">
        <ele>731.950951</ele>
        <time>2022-04-27T12:47:35.764Z</time>
      </trkpt>
      <trkpt lat="41.20261" lon="20.6728">
        <ele>731.877943</ele>
        <time>2022-04-27T12:47:37.738Z</time>
      </trkpt>
      <trkpt lat="41.2025" lon="20.67282">
        <ele>731.806306</ele>
        <time>2022-04-27T12:47:39.737Z</time>
      </trkpt>
      <trkpt lat="41.2024" lon="20.67284">
        <ele>731.735143</ele>
        <time>2022-04-27T12:47:41.740Z</time>
      </trkpt>
      <trkpt lat="41.20231" lon="20.67287">
        <ele>731.667416</ele>
        <time>2022-04-27T12:47:43.737Z</time>
      </trkpt>
      <trkpt lat="41.20218" lon="20.67291">
        <ele>731.577611</ele>
        <time>2022-04-27T12:47:46.752Z</time>
      </trkpt>
      <trkpt lat="41.20206" lon="20.67298">
        <ele>731.422416</ele>
        <time>2022-04-27T12:47:49.732Z</time>
      </trkpt>
      <trkpt lat="41.20197" lon="20.67303">
        <ele>731.309553</ele>
        <time>2022-04-27T12:47:51.729Z</time>
      </trkpt>
      <trkpt lat="41.20188" lon="20.67308">
        <ele>731.190381</ele>
        <time>2022-04-27T12:47:53.740Z</time>
      </trkpt>
      <trkpt lat="41.20179" lon="20.67313">
        <ele>731.070864</ele>
        <time>2022-04-27T12:47:55.728Z</time>
      </trkpt>
      <trkpt lat="41.2017" lon="20.67318">
        <ele>730.945092</ele>
        <time>2022-04-27T12:47:57.751Z</time>
      </trkpt>
      <trkpt lat="41.2016" lon="20.67324">
        <ele>730.817843</ele>
        <time>2022-04-27T12:47:59.738Z</time>
      </trkpt>
      <trkpt lat="41.2015" lon="20.6733">
        <ele>730.689849</ele>
        <time>2022-04-27T12:48:01.733Z</time>
      </trkpt>
      <trkpt lat="41.20141" lon="20.67335">
        <ele>730.562204</ele>
        <time>2022-04-27T12:48:03.753Z</time>
      </trkpt>
      <trkpt lat="41.20131" lon="20.6734">
        <ele>730.434909</ele>
        <time>2022-04-27T12:48:05.733Z</time>
      </trkpt>
      <trkpt lat="41.20121" lon="20.67346">
        <ele>730.305704</ele>
        <time>2022-04-27T12:48:07.727Z</time>
      </trkpt>
      <trkpt lat="41.20111" lon="20.67351">
        <ele>730.17244</ele>
        <time>2022-04-27T12:48:09.732Z</time>
      </trkpt>
      <trkpt lat="41.20101" lon="20.67356">
        <ele>730.045145</ele>
        <time>2022-04-27T12:48:11.732Z</time>
      </trkpt>
      <trkpt lat="41.20091" lon="20.67361">
        <ele>729.918195</ele>
        <time>2022-04-27T12:48:13.730Z</time>
      </trkpt>
      <trkpt lat="41.20082" lon="20.67367">
        <ele>729.789429</ele>
        <time>2022-04-27T12:48:15.767Z</time>
      </trkpt>
      <trkpt lat="41.20072" lon="20.67372">
        <ele>729.661688</ele>
        <time>2022-04-27T12:48:17.737Z</time>
      </trkpt>
      <trkpt lat="41.20062" lon="20.67377">
        <ele>729.536985</ele>
        <time>2022-04-27T12:48:19.727Z</time>
      </trkpt>
      <trkpt lat="41.20052" lon="20.67382">
        <ele>729.409131</ele>
        <time>2022-04-27T12:48:21.738Z</time>
      </trkpt>
      <trkpt lat="41.20042" lon="20.67387">
        <ele>729.585079</ele>
        <time>2022-04-27T12:48:23.736Z</time>
      </trkpt>
      <trkpt lat="41.20033" lon="20.67392">
        <ele>729.825145</ele>
        <time>2022-04-27T12:48:25.741Z</time>
      </trkpt>
      <trkpt lat="41.20023" lon="20.67398">
        <ele>730.058346</ele>
        <time>2022-04-27T12:48:27.731Z</time>
      </trkpt>
      <trkpt lat="41.20013" lon="20.67403">
        <ele>730.291548</ele>
        <time>2022-04-27T12:48:29.734Z</time>
      </trkpt>
      <trkpt lat="41.20004" lon="20.67409">
        <ele>730.523332</ele>
        <time>2022-04-27T12:48:31.731Z</time>
      </trkpt>
      <trkpt lat="41.19995" lon="20.67415">
        <ele>730.755823</ele>
        <time>2022-04-27T12:48:33.730Z</time>
      </trkpt>
      <trkpt lat="41.19985" lon="20.6742">
        <ele>730.98628</ele>
        <time>2022-04-27T12:48:35.729Z</time>
      </trkpt>
      <trkpt lat="41.19976" lon="20.67426">
        <ele>731.213282</ele>
        <time>2022-04-27T12:48:37.756Z</time>
      </trkpt>
      <trkpt lat="41.19967" lon="20.67431">
        <ele>731.440953</ele>
        <time>2022-04-27T12:48:39.728Z</time>
      </trkpt>
      <trkpt lat="41.19958" lon="20.67436">
        <ele>731.659051</ele>
        <time>2022-04-27T12:48:41.726Z</time>
      </trkpt>
      <trkpt lat="41.19949" lon="20.67441">
        <ele>731.878537</ele>
        <time>2022-04-27T12:48:43.739Z</time>
      </trkpt>
      <trkpt lat="41.1994" lon="20.67446">
        <ele>732.099438</ele>
        <time>2022-04-27T12:48:45.727Z</time>
      </trkpt>
      <trkpt lat="41.1993" lon="20.67451">
        <ele>732.335538</ele>
        <time>2022-04-27T12:48:47.728Z</time>
      </trkpt>
      <trkpt lat="41.1992" lon="20.67457">
        <ele>732.580015</ele>
        <time>2022-04-27T12:48:49.736Z</time>
      </trkpt>
      <trkpt lat="41.1991" lon="20.67461">
        <ele>732.817006</ele>
        <time>2022-04-27T12:48:51.733Z</time>
      </trkpt>
      <trkpt lat="41.19901" lon="20.67466">
        <ele>733.027054</ele>
        <time>2022-04-27T12:48:53.737Z</time>
      </trkpt>
      <trkpt lat="41.1989" lon="20.67472">
        <ele>733.298487</ele>
        <time>2022-04-27T12:48:56.742Z</time>
      </trkpt>
      <trkpt lat="41.19879" lon="20.67478">
        <ele>733.499298</ele>
        <time>2022-04-27T12:48:59.756Z</time>
      </trkpt>
      <trkpt lat="41.19868" lon="20.67483">
        <ele>733.641125</ele>
        <time>2022-04-27T12:49:03.728Z</time>
      </trkpt>
      <trkpt lat="41.19859" lon="20.67488">
        <ele>733.763428</ele>
        <time>2022-04-27T12:49:06.728Z</time>
      </trkpt>
      <trkpt lat="41.19849" lon="20.67493">
        <ele>733.895643</ele>
        <time>2022-04-27T12:49:09.737Z</time>
      </trkpt>
      <trkpt lat="41.1984" lon="20.67499">
        <ele>734.024363</ele>
        <time>2022-04-27T12:49:12.730Z</time>
      </trkpt>
      <trkpt lat="41.1983" lon="20.67505">
        <ele>734.161391</ele>
        <time>2022-04-27T12:49:15.733Z</time>
      </trkpt>
      <trkpt lat="41.1982" lon="20.67511">
        <ele>734.300699</ele>
        <time>2022-04-27T12:49:18.738Z</time>
      </trkpt>
      <trkpt lat="41.19808" lon="20.67519">
        <ele>734.462037</ele>
        <time>2022-04-27T12:49:21.737Z</time>
      </trkpt>
      <trkpt lat="41.19799" lon="20.67525">
        <ele>734.581834</ele>
        <time>2022-04-27T12:49:23.761Z</time>
      </trkpt>
      <trkpt lat="41.19791" lon="20.67532">
        <ele>734.705452</ele>
        <time>2022-04-27T12:49:25.733Z</time>
      </trkpt>
      <trkpt lat="41.19781" lon="20.67543">
        <ele>734.862442</ele>
        <time>2022-04-27T12:49:28.732Z</time>
      </trkpt>
      <trkpt lat="41.19771" lon="20.67552">
        <ele>735.009375</ele>
        <time>2022-04-27T12:49:31.732Z</time>
      </trkpt>
      <trkpt lat="41.19762" lon="20.6756">
        <ele>735.149705</ele>
        <time>2022-04-27T12:49:34.760Z</time>
      </trkpt>
      <trkpt lat="41.19753" lon="20.6757">
        <ele>735.290323</ele>
        <time>2022-04-27T12:49:37.728Z</time>
      </trkpt>
      <trkpt lat="41.19743" lon="20.67578">
        <ele>735.443024</ele>
        <time>2022-04-27T12:49:40.735Z</time>
      </trkpt>
      <trkpt lat="41.19731" lon="20.67588">
        <ele>735.611655</ele>
        <time>2022-04-27T12:49:43.730Z</time>
      </trkpt>
      <trkpt lat="41.19725" lon="20.67597">
        <ele>735.539893</ele>
        <time>2022-04-27T12:49:45.729Z</time>
      </trkpt>
      <trkpt lat="41.19719" lon="20.67606">
        <ele>735.360292</ele>
        <time>2022-04-27T12:49:47.737Z</time>
      </trkpt>
      <trkpt lat="41.19712" lon="20.67614">
        <ele>735.177831</ele>
        <time>2022-04-27T12:49:49.733Z</time>
      </trkpt>
      <trkpt lat="41.19701" lon="20.67625">
        <ele>734.912473</ele>
        <time>2022-04-27T12:49:52.755Z</time>
      </trkpt>
      <trkpt lat="41.19689" lon="20.67633">
        <ele>734.653041</ele>
        <time>2022-04-27T12:49:55.735Z</time>
      </trkpt>
      <trkpt lat="41.19681" lon="20.67638">
        <ele>734.474984</ele>
        <time>2022-04-27T12:49:57.738Z</time>
      </trkpt>
      <trkpt lat="41.19672" lon="20.67643">
        <ele>734.290126</ele>
        <time>2022-04-27T12:49:59.731Z</time>
      </trkpt>
      <trkpt lat="41.19663" lon="20.67646">
        <ele>734.106279</ele>
        <time>2022-04-27T12:50:01.732Z</time>
      </trkpt>
      <trkpt lat="41.19654" lon="20.67649">
        <ele>733.924365</ele>
        <time>2022-04-27T12:50:03.738Z</time>
      </trkpt>
      <trkpt lat="41.19645" lon="20.67652">
        <ele>733.743796</ele>
        <time>2022-04-27T12:50:05.733Z</time>
      </trkpt>
      <trkpt lat="41.19636" lon="20.67654">
        <ele>733.55667</ele>
        <time>2022-04-27T12:50:07.727Z</time>
      </trkpt>
      <trkpt lat="41.19627" lon="20.67655">
        <ele>733.379018</ele>
        <time>2022-04-27T12:50:09.726Z</time>
      </trkpt>
      <trkpt lat="41.19618" lon="20.67657">
        <ele>733.199242</ele>
        <time>2022-04-27T12:50:11.734Z</time>
      </trkpt>
      <trkpt lat="41.19604" lon="20.67658">
        <ele>732.937986</ele>
        <time>2022-04-27T12:50:14.737Z</time>
      </trkpt>
      <trkpt lat="41.19591" lon="20.6766">
        <ele>732.681737</ele>
        <time>2022-04-27T12:50:17.734Z</time>
      </trkpt>
      <trkpt lat="41.19579" lon="20.67661">
        <ele>732.432395</ele>
        <time>2022-04-27T12:50:20.737Z</time>
      </trkpt>
      <trkpt lat="41.1957" lon="20.67661">
        <ele>732.255725</ele>
        <time>2022-04-27T12:50:22.737Z</time>
      </trkpt>
      <trkpt lat="41.19556" lon="20.67663">
        <ele>732.198954</ele>
        <time>2022-04-27T12:50:25.728Z</time>
      </trkpt>
      <trkpt lat="41.19543" lon="20.67664">
        <ele>732.330497</ele>
        <time>2022-04-27T12:50:28.733Z</time>
      </trkpt>
      <trkpt lat="41.19533" lon="20.67666">
        <ele>732.426367</ele>
        <time>2022-04-27T12:50:30.764Z</time>
      </trkpt>
      <trkpt lat="41.19523" lon="20.67667">
        <ele>732.523202</ele>
        <time>2022-04-27T12:50:32.736Z</time>
      </trkpt>
      <trkpt lat="41.19513" lon="20.67669">
        <ele>732.62085</ele>
        <time>2022-04-27T12:50:34.738Z</time>
      </trkpt>
      <trkpt lat="41.19503" lon="20.6767">
        <ele>732.719538</ele>
        <time>2022-04-27T12:50:36.735Z</time>
      </trkpt>
      <trkpt lat="41.19493" lon="20.67671">
        <ele>732.813247</ele>
        <time>2022-04-27T12:50:38.765Z</time>
      </trkpt>
      <trkpt lat="41.19483" lon="20.67672">
        <ele>732.907923</ele>
        <time>2022-04-27T12:50:40.743Z</time>
      </trkpt>
      <trkpt lat="41.19473" lon="20.67673">
        <ele>733.006299</ele>
        <time>2022-04-27T12:50:42.732Z</time>
      </trkpt>
      <trkpt lat="41.19463" lon="20.67674">
        <ele>733.103815</ele>
        <time>2022-04-27T12:50:44.732Z</time>
      </trkpt>
      <trkpt lat="41.19454" lon="20.67676">
        <ele>733.198492</ele>
        <time>2022-04-27T12:50:46.759Z</time>
      </trkpt>
      <trkpt lat="41.19444" lon="20.67677">
        <ele>733.294071</ele>
        <time>2022-04-27T12:50:48.742Z</time>
      </trkpt>
      <trkpt lat="41.19434" lon="20.67678">
        <ele>733.389941</ele>
        <time>2022-04-27T12:50:50.735Z</time>
      </trkpt>
      <trkpt lat="41.19424" lon="20.67679">
        <ele>733.484688</ele>
        <time>2022-04-27T12:50:52.764Z</time>
      </trkpt>
      <trkpt lat="41.19414" lon="20.67681">
        <ele>733.581236</ele>
        <time>2022-04-27T12:50:54.730Z</time>
      </trkpt>
      <trkpt lat="41.19405" lon="20.67682">
        <ele>733.677916</ele>
        <time>2022-04-27T12:50:56.731Z</time>
      </trkpt>
      <trkpt lat="41.19395" lon="20.67683">
        <ele>733.772527</ele>
        <time>2022-04-27T12:50:58.739Z</time>
      </trkpt>
      <trkpt lat="41.19386" lon="20.67684">
        <ele>733.861267</ele>
        <time>2022-04-27T12:51:00.733Z</time>
      </trkpt>
      <trkpt lat="41.19372" lon="20.67685">
        <ele>733.963848</ele>
        <time>2022-04-27T12:51:03.756Z</time>
      </trkpt>
      <trkpt lat="41.19359" lon="20.67685">
        <ele>734.063315</ele>
        <time>2022-04-27T12:51:06.734Z</time>
      </trkpt>
      <trkpt lat="41.1935" lon="20.67685">
        <ele>734.131828</ele>
        <time>2022-04-27T12:51:08.727Z</time>
      </trkpt>
      <trkpt lat="41.1934" lon="20.67684">
        <ele>734.201156</ele>
        <time>2022-04-27T12:51:10.733Z</time>
      </trkpt>
      <trkpt lat="41.19331" lon="20.67683">
        <ele>734.270585</ele>
        <time>2022-04-27T12:51:12.733Z</time>
      </trkpt>
      <trkpt lat="41.19322" lon="20.67682">
        <ele>734.337167</ele>
        <time>2022-04-27T12:51:14.735Z</time>
      </trkpt>
      <trkpt lat="41.19308" lon="20.67681">
        <ele>734.436233</ele>
        <time>2022-04-27T12:51:17.726Z</time>
      </trkpt>
      <trkpt lat="41.19295" lon="20.67679">
        <ele>734.533313</ele>
        <time>2022-04-27T12:51:20.732Z</time>
      </trkpt>
      <trkpt lat="41.19282" lon="20.67677">
        <ele>734.632714</ele>
        <time>2022-04-27T12:51:23.735Z</time>
      </trkpt>
      <trkpt lat="41.19273" lon="20.67675">
        <ele>734.700872</ele>
        <time>2022-04-27T12:51:25.732Z</time>
      </trkpt>
      <trkpt lat="41.19263" lon="20.67674">
        <ele>734.769225</ele>
        <time>2022-04-27T12:51:27.731Z</time>
      </trkpt>
      <trkpt lat="41.19254" lon="20.67672">
        <ele>734.836778</ele>
        <time>2022-04-27T12:51:29.734Z</time>
      </trkpt>
      <trkpt lat="41.19245" lon="20.67671">
        <ele>734.9036</ele>
        <time>2022-04-27T12:51:31.729Z</time>
      </trkpt>
      <trkpt lat="41.19236" lon="20.6767">
        <ele>734.971025</ele>
        <time>2022-04-27T12:51:33.735Z</time>
      </trkpt>
      <trkpt lat="41.19227" lon="20.67668">
        <ele>735.039859</ele>
        <time>2022-04-27T12:51:35.733Z</time>
      </trkpt>
      <trkpt lat="41.19218" lon="20.67667">
        <ele>735.107285</ele>
        <time>2022-04-27T12:51:37.729Z</time>
      </trkpt>
      <trkpt lat="41.19209" lon="20.67666">
        <ele>735.17404</ele>
        <time>2022-04-27T12:51:39.735Z</time>
      </trkpt>
      <trkpt lat="41.19196" lon="20.67664">
        <ele>735.161932</ele>
        <time>2022-04-27T12:51:42.740Z</time>
      </trkpt>
      <trkpt lat="41.19183" lon="20.67661">
        <ele>735.106418</ele>
        <time>2022-04-27T12:51:45.738Z</time>
      </trkpt>
      <trkpt lat="41.1917" lon="20.67659">
        <ele>735.051751</ele>
        <time>2022-04-27T12:51:48.737Z</time>
      </trkpt>
      <trkpt lat="41.19157" lon="20.67658">
        <ele>734.997195</ele>
        <time>2022-04-27T12:51:51.733Z</time>
      </trkpt>
      <trkpt lat="41.19144" lon="20.67656">
        <ele>734.940446</ele>
        <time>2022-04-27T12:51:54.729Z</time>
      </trkpt>
      <trkpt lat="41.19131" lon="20.67653">
        <ele>734.883659</ele>
        <time>2022-04-27T12:51:57.728Z</time>
      </trkpt>
      <trkpt lat="41.19118" lon="20.67651">
        <ele>734.82691</ele>
        <time>2022-04-27T12:52:00.742Z</time>
      </trkpt>
      <trkpt lat="41.19105" lon="20.67649">
        <ele>734.770547</ele>
        <time>2022-04-27T12:52:03.763Z</time>
      </trkpt>
      <trkpt lat="41.19091" lon="20.67647">
        <ele>734.713215</ele>
        <time>2022-04-27T12:52:06.751Z</time>
      </trkpt>
      <trkpt lat="41.19082" lon="20.67646">
        <ele>734.67366</ele>
        <time>2022-04-27T12:52:08.736Z</time>
      </trkpt>
      <trkpt lat="41.19073" lon="20.67644">
        <ele>734.63368</ele>
        <time>2022-04-27T12:52:10.748Z</time>
      </trkpt>
      <trkpt lat="41.19064" lon="20.67643">
        <ele>734.593736</ele>
        <time>2022-04-27T12:52:12.741Z</time>
      </trkpt>
      <trkpt lat="41.19055" lon="20.67641">
        <ele>734.55503</ele>
        <time>2022-04-27T12:52:14.763Z</time>
      </trkpt>
      <trkpt lat="41.19046" lon="20.6764">
        <ele>734.516667</ele>
        <time>2022-04-27T12:52:16.727Z</time>
      </trkpt>
      <trkpt lat="41.19032" lon="20.67638">
        <ele>734.459417</ele>
        <time>2022-04-27T12:52:19.739Z</time>
      </trkpt>
      <trkpt lat="41.19024" lon="20.67636">
        <ele>734.456375</ele>
        <time>2022-04-27T12:52:21.743Z</time>
      </trkpt>
      <trkpt lat="41.1901" lon="20.67634">
        <ele>734.556721</ele>
        <time>2022-04-27T12:52:24.736Z</time>
      </trkpt>
      <trkpt lat="41.18997" lon="20.67632">
        <ele>734.659961</ele>
        <time>2022-04-27T12:52:27.727Z</time>
      </trkpt>
      <trkpt lat="41.18987" lon="20.67631">
        <ele>734.73259</ele>
        <time>2022-04-27T12:52:29.727Z</time>
      </trkpt>
      <trkpt lat="41.18978" lon="20.67629">
        <ele>734.803834</ele>
        <time>2022-04-27T12:52:31.742Z</time>
      </trkpt>
      <trkpt lat="41.18968" lon="20.67628">
        <ele>734.87792</ele>
        <time>2022-04-27T12:52:33.734Z</time>
      </trkpt>
      <trkpt lat="41.18959" lon="20.67627">
        <ele>734.948168</ele>
        <time>2022-04-27T12:52:35.730Z</time>
      </trkpt>
      <trkpt lat="41.18946" lon="20.67625">
        <ele>735.048211</ele>
        <time>2022-04-27T12:52:38.745Z</time>
      </trkpt>
      <trkpt lat="41.18934" lon="20.67623">
        <ele>735.141615</ele>
        <time>2022-04-27T12:52:41.752Z</time>
      </trkpt>
      <trkpt lat="41.18921" lon="20.6762">
        <ele>735.243688</ele>
        <time>2022-04-27T12:52:44.739Z</time>
      </trkpt>
      <trkpt lat="41.18908" lon="20.67618">
        <ele>735.343581</ele>
        <time>2022-04-27T12:52:47.729Z</time>
      </trkpt>
      <trkpt lat="41.18895" lon="20.67615">
        <ele>735.442426</ele>
        <time>2022-04-27T12:52:50.746Z</time>
      </trkpt>
      <trkpt lat="41.18882" lon="20.67612">
        <ele>735.544578</ele>
        <time>2022-04-27T12:52:53.734Z</time>
      </trkpt>
      <trkpt lat="41.18872" lon="20.67611">
        <ele>735.615756</ele>
        <time>2022-04-27T12:52:55.733Z</time>
      </trkpt>
      <trkpt lat="41.18863" lon="20.6761">
        <ele>735.683731</ele>
        <time>2022-04-27T12:52:57.728Z</time>
      </trkpt>
      <trkpt lat="41.1885" lon="20.67607">
        <ele>735.785656</ele>
        <time>2022-04-27T12:53:00.733Z</time>
      </trkpt>
      <trkpt lat="41.18837" lon="20.67606">
        <ele>736.015762</ele>
        <time>2022-04-27T12:53:03.753Z</time>
      </trkpt>
      <trkpt lat="41.18828" lon="20.67604">
        <ele>736.19343</ele>
        <time>2022-04-27T12:53:05.740Z</time>
      </trkpt>
      <trkpt lat="41.18818" lon="20.67603">
        <ele>736.367649</ele>
        <time>2022-04-27T12:53:07.741Z</time>
      </trkpt>
      <trkpt lat="41.18809" lon="20.67601">
        <ele>736.541698</ele>
        <time>2022-04-27T12:53:09.749Z</time>
      </trkpt>
      <trkpt lat="41.18796" lon="20.67599">
        <ele>736.79428</ele>
        <time>2022-04-27T12:53:12.744Z</time>
      </trkpt>
      <trkpt lat="41.18783" lon="20.67597">
        <ele>737.050806</ele>
        <time>2022-04-27T12:53:15.728Z</time>
      </trkpt>
      <trkpt lat="41.18769" lon="20.67595">
        <ele>737.308886</ele>
        <time>2022-04-27T12:53:18.735Z</time>
      </trkpt>
      <trkpt lat="41.1876" lon="20.67594">
        <ele>737.488939</ele>
        <time>2022-04-27T12:53:20.754Z</time>
      </trkpt>
      <trkpt lat="41.18747" lon="20.67592">
        <ele>737.737419</ele>
        <time>2022-04-27T12:53:23.734Z</time>
      </trkpt>
      <trkpt lat="41.18734" lon="20.6759">
        <ele>737.988115</ele>
        <time>2022-04-27T12:53:26.736Z</time>
      </trkpt>
      <trkpt lat="41.18721" lon="20.67587">
        <ele>738.235038</ele>
        <time>2022-04-27T12:53:29.731Z</time>
      </trkpt>
      <trkpt lat="41.18709" lon="20.67586">
        <ele>738.464478</ele>
        <time>2022-04-27T12:53:32.745Z</time>
      </trkpt>
      <trkpt lat="41.18697" lon="20.67584">
        <ele>738.691872</ele>
        <time>2022-04-27T12:53:35.738Z</time>
      </trkpt>
      <trkpt lat="41.18688" lon="20.67582">
        <ele>738.868348</ele>
        <time>2022-04-27T12:53:37.732Z</time>
      </trkpt>
      <trkpt lat="41.18678" lon="20.6758">
        <ele>739.05443</ele>
        <time>2022-04-27T12:53:39.731Z</time>
      </trkpt>
      <trkpt lat="41.18665" lon="20.67578">
        <ele>739.206131</ele>
        <time>2022-04-27T12:53:42.757Z</time>
      </trkpt>
      <trkpt lat="41.18653" lon="20.67575">
        <ele>739.167337</ele>
        <time>2022-04-27T12:53:45.736Z</time>
      </trkpt>
      <trkpt lat="41.1864" lon="20.67573">
        <ele>739.129375</ele>
        <time>2022-04-27T12:53:48.763Z</time>
      </trkpt>
      <trkpt lat="41.18627" lon="20.6757">
        <ele>739.087957</ele>
        <time>2022-04-27T12:53:51.729Z</time>
      </trkpt>
      <trkpt lat="41.18617" lon="20.67569">
        <ele>739.05827</ele>
        <time>2022-04-27T12:53:53.732Z</time>
      </trkpt>
      <trkpt lat="41.18608" lon="20.67568">
        <ele>739.028582</ele>
        <time>2022-04-27T12:53:55.733Z</time>
      </trkpt>
      <trkpt lat="41.18594" lon="20.67566">
        <ele>738.988072</ele>
        <time>2022-04-27T12:53:58.736Z</time>
      </trkpt>
      <trkpt lat="41.18581" lon="20.67564">
        <ele>738.947616</ele>
        <time>2022-04-27T12:54:01.733Z</time>
      </trkpt>
      <trkpt lat="41.18572" lon="20.67562">
        <ele>738.920072</ele>
        <time>2022-04-27T12:54:03.739Z</time>
      </trkpt>
      <trkpt lat="41.18559" lon="20.6756">
        <ele>738.881129</ele>
        <time>2022-04-27T12:54:06.733Z</time>
      </trkpt>
      <trkpt lat="41.1855" lon="20.67559">
        <ele>738.852676</ele>
        <time>2022-04-27T12:54:08.735Z</time>
      </trkpt>
      <trkpt lat="41.18541" lon="20.67558">
        <ele>738.824148</ele>
        <time>2022-04-27T12:54:10.751Z</time>
      </trkpt>
      <trkpt lat="41.18531" lon="20.67556">
        <ele>738.795042</ele>
        <time>2022-04-27T12:54:12.730Z</time>
      </trkpt>
      <trkpt lat="41.18522" lon="20.67555">
        <ele>738.766893</ele>
        <time>2022-04-27T12:54:14.735Z</time>
      </trkpt>
      <trkpt lat="41.18513" lon="20.67554">
        <ele>738.737834</ele>
        <time>2022-04-27T12:54:16.730Z</time>
      </trkpt>
      <trkpt lat="41.18503" lon="20.67553">
        <ele>738.709759</ele>
        <time>2022-04-27T12:54:18.751Z</time>
      </trkpt>
      <trkpt lat="41.1849" lon="20.67552">
        <ele>738.674047</ele>
        <time>2022-04-27T12:54:21.748Z</time>
      </trkpt>
      <trkpt lat="41.18477" lon="20.6755">
        <ele>738.723126</ele>
        <time>2022-04-27T12:54:24.730Z</time>
      </trkpt>
      <trkpt lat="41.18464" lon="20.67549">
        <ele>738.769186</ele>
        <time>2022-04-27T12:54:27.730Z</time>
      </trkpt>
      <trkpt lat="41.18453" lon="20.67548">
        <ele>738.813377</ele>
        <time>2022-04-27T12:54:30.733Z</time>
      </trkpt>
      <trkpt lat="41.1844" lon="20.67547">
        <ele>738.858644</ele>
        <time>2022-04-27T12:54:33.728Z</time>
      </trkpt>
      <trkpt lat="41.1843" lon="20.67545">
        <ele>738.897749</ele>
        <time>2022-04-27T12:54:36.752Z</time>
      </trkpt>
      <trkpt lat="41.18418" lon="20.67539">
        <ele>738.944263</ele>
        <time>2022-04-27T12:54:39.737Z</time>
      </trkpt>
      <trkpt lat="41.18409" lon="20.67534">
        <ele>738.97964</ele>
        <time>2022-04-27T12:54:41.736Z</time>
      </trkpt>
      <trkpt lat="41.18398" lon="20.67537">
        <ele>739.02305</ele>
        <time>2022-04-27T12:54:44.779Z</time>
      </trkpt>
      <trkpt lat="41.18387" lon="20.67547">
        <ele>739.073719</ele>
        <time>2022-04-27T12:54:47.734Z</time>
      </trkpt>
      <trkpt lat="41.18378" lon="20.67552">
        <ele>739.107514</ele>
        <time>2022-04-27T12:54:49.751Z</time>
      </trkpt>
      <trkpt lat="41.18366" lon="20.67553">
        <ele>739.153963</ele>
        <time>2022-04-27T12:54:52.729Z</time>
      </trkpt>
      <trkpt lat="41.18353" lon="20.67556">
        <ele>739.200925</ele>
        <time>2022-04-27T12:54:55.813Z</time>
      </trkpt>
      <trkpt lat="41.18341" lon="20.67559">
        <ele>739.248347</ele>
        <time>2022-04-27T12:54:58.725Z</time>
      </trkpt>
      <trkpt lat="41.18328" lon="20.67562">
        <ele>739.294585</ele>
        <time>2022-04-27T12:55:01.735Z</time>
      </trkpt>
      <trkpt lat="41.18319" lon="20.67565">
        <ele>739.329532</ele>
        <time>2022-04-27T12:55:03.734Z</time>
      </trkpt>
      <trkpt lat="41.1831" lon="20.67567">
        <ele>739.480906</ele>
        <time>2022-04-27T12:55:05.748Z</time>
      </trkpt>
      <trkpt lat="41.183" lon="20.67569">
        <ele>739.678471</ele>
        <time>2022-04-27T12:55:07.739Z</time>
      </trkpt>
      <trkpt lat="41.1829" lon="20.67571">
        <ele>739.877982</ele>
        <time>2022-04-27T12:55:09.733Z</time>
      </trkpt>
      <trkpt lat="41.1828" lon="20.67573">
        <ele>740.070791</ele>
        <time>2022-04-27T12:55:11.752Z</time>
      </trkpt>
      <trkpt lat="41.18271" lon="20.67574">
        <ele>740.251001</ele>
        <time>2022-04-27T12:55:13.734Z</time>
      </trkpt>
      <trkpt lat="41.18262" lon="20.67575">
        <ele>740.439361</ele>
        <time>2022-04-27T12:55:15.738Z</time>
      </trkpt>
      <trkpt lat="41.18251" lon="20.67577">
        <ele>740.641942</ele>
        <time>2022-04-27T12:55:17.741Z</time>
      </trkpt>
      <trkpt lat="41.18241" lon="20.67579">
        <ele>740.848622</ele>
        <time>2022-04-27T12:55:19.727Z</time>
      </trkpt>
      <trkpt lat="41.18232" lon="20.67581">
        <ele>741.033383</ele>
        <time>2022-04-27T12:55:21.738Z</time>
      </trkpt>
      <trkpt lat="41.18222" lon="20.67583">
        <ele>741.222704</ele>
        <time>2022-04-27T12:55:23.727Z</time>
      </trkpt>
      <trkpt lat="41.18213" lon="20.67585">
        <ele>741.406916</ele>
        <time>2022-04-27T12:55:25.735Z</time>
      </trkpt>
      <trkpt lat="41.18204" lon="20.67587">
        <ele>741.588446</ele>
        <time>2022-04-27T12:55:27.734Z</time>
      </trkpt>
      <trkpt lat="41.18195" lon="20.67589">
        <ele>741.771106</ele>
        <time>2022-04-27T12:55:29.733Z</time>
      </trkpt>
      <trkpt lat="41.18186" lon="20.6759">
        <ele>741.954583</ele>
        <time>2022-04-27T12:55:31.733Z</time>
      </trkpt>
      <trkpt lat="41.18173" lon="20.67592">
        <ele>742.206437</ele>
        <time>2022-04-27T12:55:34.733Z</time>
      </trkpt>
      <trkpt lat="41.1816" lon="20.67595">
        <ele>742.461611</ele>
        <time>2022-04-27T12:55:37.735Z</time>
      </trkpt>
      <trkpt lat="41.18148" lon="20.67598">
        <ele>742.710943</ele>
        <time>2022-04-27T12:55:40.728Z</time>
      </trkpt>
      <trkpt lat="41.18135" lon="20.67601">
        <ele>743.146777</ele>
        <time>2022-04-27T12:55:43.745Z</time>
      </trkpt>
      <trkpt lat="41.18124" lon="20.67603">
        <ele>743.905341</ele>
        <time>2022-04-27T12:55:46.732Z</time>
      </trkpt>
      <trkpt lat="41.18112" lon="20.67605">
        <ele>744.685252</ele>
        <time>2022-04-27T12:55:49.727Z</time>
      </trkpt>
      <trkpt lat="41.181" lon="20.67605">
        <ele>745.428176</ele>
        <time>2022-04-27T12:55:52.728Z</time>
      </trkpt>
      <trkpt lat="41.18088" lon="20.67607">
        <ele>746.256944</ele>
        <time>2022-04-27T12:55:55.732Z</time>
      </trkpt>
      <trkpt lat="41.18076" lon="20.6761">
        <ele>747.020628</ele>
        <time>2022-04-27T12:55:58.725Z</time>
      </trkpt>
      <trkpt lat="41.18064" lon="20.67614">
        <ele>747.802122</ele>
        <time>2022-04-27T12:56:01.733Z</time>
      </trkpt>
      <trkpt lat="41.18052" lon="20.67617">
        <ele>748.628986</ele>
        <time>2022-04-27T12:56:04.735Z</time>
      </trkpt>
      <trkpt lat="41.18038" lon="20.67617">
        <ele>749.534873</ele>
        <time>2022-04-27T12:56:07.736Z</time>
      </trkpt>
      <trkpt lat="41.18028" lon="20.67619">
        <ele>750.175291</ele>
        <time>2022-04-27T12:56:09.732Z</time>
      </trkpt>
      <trkpt lat="41.18015" lon="20.67621">
        <ele>751.059413</ele>
        <time>2022-04-27T12:56:12.749Z</time>
      </trkpt>
      <trkpt lat="41.18001" lon="20.67621">
        <ele>751.972026</ele>
        <time>2022-04-27T12:56:15.737Z</time>
      </trkpt>
      <trkpt lat="41.17988" lon="20.67621">
        <ele>752.839584</ele>
        <time>2022-04-27T12:56:18.754Z</time>
      </trkpt>
      <trkpt lat="41.17975" lon="20.67624">
        <ele>753.667305</ele>
        <time>2022-04-27T12:56:21.744Z</time>
      </trkpt>
      <trkpt lat="41.17965" lon="20.67629">
        <ele>754.361473</ele>
        <time>2022-04-27T12:56:25.734Z</time>
      </trkpt>
      <trkpt lat="41.17954" lon="20.67631">
        <ele>754.765807</ele>
        <time>2022-04-27T12:56:28.729Z</time>
      </trkpt>
      <trkpt lat="41.17942" lon="20.67631">
        <ele>755.011884</ele>
        <time>2022-04-27T12:56:31.732Z</time>
      </trkpt>
      <trkpt lat="41.17932" lon="20.67633">
        <ele>755.20781</ele>
        <time>2022-04-27T12:56:33.735Z</time>
      </trkpt>
      <trkpt lat="41.17919" lon="20.67632">
        <ele>755.480981</ele>
        <time>2022-04-27T12:56:36.730Z</time>
      </trkpt>
      <trkpt lat="41.17909" lon="20.67632">
        <ele>755.691632</ele>
        <time>2022-04-27T12:56:38.725Z</time>
      </trkpt>
      <trkpt lat="41.17898" lon="20.67632">
        <ele>755.925142</ele>
        <time>2022-04-27T12:56:40.733Z</time>
      </trkpt>
      <trkpt lat="41.17888" lon="20.6763">
        <ele>756.138025</ele>
        <time>2022-04-27T12:56:42.734Z</time>
      </trkpt>
      <trkpt lat="41.17876" lon="20.67627">
        <ele>756.395856</ele>
        <time>2022-04-27T12:56:45.732Z</time>
      </trkpt>
      <trkpt lat="41.17863" lon="20.67624">
        <ele>756.663507</ele>
        <time>2022-04-27T12:56:48.732Z</time>
      </trkpt>
      <trkpt lat="41.17853" lon="20.67621">
        <ele>756.890473</ele>
        <time>2022-04-27T12:56:51.740Z</time>
      </trkpt>
      <trkpt lat="41.17842" lon="20.67617">
        <ele>757.124208</ele>
        <time>2022-04-27T12:56:54.728Z</time>
      </trkpt>
      <trkpt lat="41.1783" lon="20.67614">
        <ele>757.364439</ele>
        <time>2022-04-27T12:56:57.734Z</time>
      </trkpt>
      <trkpt lat="41.17819" lon="20.67612">
        <ele>757.594664</ele>
        <time>2022-04-27T12:57:00.729Z</time>
      </trkpt>
      <trkpt lat="41.17809" lon="20.6761">
        <ele>757.807547</ele>
        <time>2022-04-27T12:57:03.725Z</time>
      </trkpt>
      <trkpt lat="41.17798" lon="20.6761">
        <ele>758.043455</ele>
        <time>2022-04-27T12:57:07.738Z</time>
      </trkpt>
      <trkpt lat="41.17789" lon="20.67607">
        <ele>758.238186</ele>
        <time>2022-04-27T12:57:11.733Z</time>
      </trkpt>
      <trkpt lat="41.17778" lon="20.67606">
        <ele>758.352226</ele>
        <time>2022-04-27T12:57:16.735Z</time>
      </trkpt>
      <trkpt lat="41.17767" lon="20.67605">
        <ele>758.352226</ele>
        <time>2022-04-27T12:57:21.733Z</time>
      </trkpt>
      <trkpt lat="41.17757" lon="20.67604">
        <ele>758.352226</ele>
        <time>2022-04-27T12:57:24.737Z</time>
      </trkpt>
      <trkpt lat="41.17745" lon="20.67606">
        <ele>758.352226</ele>
        <time>2022-04-27T12:57:27.734Z</time>
      </trkpt>
      <trkpt lat="41.17736" lon="20.67608">
        <ele>758.352226</ele>
        <time>2022-04-27T12:57:29.746Z</time>
      </trkpt>
      <trkpt lat="41.17727" lon="20.67608">
        <ele>758.352226</ele>
        <time>2022-04-27T12:57:31.752Z</time>
      </trkpt>
      <trkpt lat="41.17716" lon="20.6761">
        <ele>758.352226</ele>
        <time>2022-04-27T12:57:33.728Z</time>
      </trkpt>
      <trkpt lat="41.17706" lon="20.67612">
        <ele>758.352226</ele>
        <time>2022-04-27T12:57:35.736Z</time>
      </trkpt>
      <trkpt lat="41.17696" lon="20.67615">
        <ele>758.352226</ele>
        <time>2022-04-27T12:57:37.737Z</time>
      </trkpt>
      <trkpt lat="41.17685" lon="20.67616">
        <ele>758.352226</ele>
        <time>2022-04-27T12:57:40.733Z</time>
      </trkpt>
      <trkpt lat="41.17676" lon="20.67616">
        <ele>758.352226</ele>
        <time>2022-04-27T12:57:43.732Z</time>
      </trkpt>
      <trkpt lat="41.17665" lon="20.67617">
        <ele>758.352226</ele>
        <time>2022-04-27T12:57:46.726Z</time>
      </trkpt>
      <trkpt lat="41.17656" lon="20.67616">
        <ele>758.352226</ele>
        <time>2022-04-27T12:57:49.733Z</time>
      </trkpt>
      <trkpt lat="41.17644" lon="20.67615">
        <ele>758.352226</ele>
        <time>2022-04-27T12:57:53.758Z</time>
      </trkpt>
      <trkpt lat="41.17634" lon="20.67616">
        <ele>758.352226</ele>
        <time>2022-04-27T12:57:57.731Z</time>
      </trkpt>
      <trkpt lat="41.17626" lon="20.67621">
        <ele>758.352226</ele>
        <time>2022-04-27T12:59:11.107Z</time>
      </trkpt>
    </trkseg>
  </trk>
  <trk>
    <name><![CDATA[Tour d'Europe: étape 667]]></name>
    <extensions>
      <line xmlns="http://www.topografix.com/GPX/gpx_style/0/2">
        <color>00FFFF</color>
        <width>4</width>
      </line>
    </extensions>
    <trkseg>
      <trkpt lat="41.62242" lon="20.60691">
        <ele>745.165181</ele>
        <time>2022-04-26T09:02:44.230Z</time>
      </trkpt>
      <trkpt lat="41.62265" lon="20.60719">
        <ele>745.165181</ele>
        <time>2022-04-26T09:14:13.465Z</time>
      </trkpt>
      <trkpt lat="41.62269" lon="20.60707">
        <ele>745.165181</ele>
        <time>2022-04-26T09:14:21.463Z</time>
      </trkpt>
      <trkpt lat="41.62278" lon="20.60701">
        <ele>745.165181</ele>
        <time>2022-04-26T09:14:27.460Z</time>
      </trkpt>
      <trkpt lat="41.62295" lon="20.60695">
        <ele>745.165181</ele>
        <time>2022-04-26T09:14:33.518Z</time>
      </trkpt>
      <trkpt lat="41.62302" lon="20.60689">
        <ele>745.165181</ele>
        <time>2022-04-26T09:14:38.450Z</time>
      </trkpt>
      <trkpt lat="41.62325" lon="20.6067">
        <ele>744.579379</ele>
        <time>2022-04-26T09:15:05.458Z</time>
      </trkpt>
      <trkpt lat="41.62319" lon="20.6066">
        <ele>744.18355</ele>
        <time>2022-04-26T09:15:12.477Z</time>
      </trkpt>
      <trkpt lat="41.62309" lon="20.60664">
        <ele>743.7741</ele>
        <time>2022-04-26T09:15:15.458Z</time>
      </trkpt>
      <trkpt lat="41.623" lon="20.60667">
        <ele>743.369317</ele>
        <time>2022-04-26T09:15:18.449Z</time>
      </trkpt>
      <trkpt lat="41.62289" lon="20.60669">
        <ele>742.919535</ele>
        <time>2022-04-26T09:15:21.455Z</time>
      </trkpt>
      <trkpt lat="41.62277" lon="20.60674">
        <ele>742.428717</ele>
        <time>2022-04-26T09:15:24.450Z</time>
      </trkpt>
      <trkpt lat="41.62266" lon="20.60678">
        <ele>741.97432</ele>
        <time>2022-04-26T09:15:27.448Z</time>
      </trkpt>
      <trkpt lat="41.62257" lon="20.60684">
        <ele>741.541326</ele>
        <time>2022-04-26T09:15:30.460Z</time>
      </trkpt>
      <trkpt lat="41.62246" lon="20.60693">
        <ele>741.053736</ele>
        <time>2022-04-26T09:15:33.446Z</time>
      </trkpt>
      <trkpt lat="41.62236" lon="20.60704">
        <ele>740.506448</ele>
        <time>2022-04-26T09:15:36.474Z</time>
      </trkpt>
      <trkpt lat="41.62228" lon="20.60713">
        <ele>740.082069</ele>
        <time>2022-04-26T09:15:38.450Z</time>
      </trkpt>
      <trkpt lat="41.62221" lon="20.60722">
        <ele>739.678051</ele>
        <time>2022-04-26T09:15:40.452Z</time>
      </trkpt>
      <trkpt lat="41.62213" lon="20.60733">
        <ele>739.241117</ele>
        <time>2022-04-26T09:15:42.462Z</time>
      </trkpt>
      <trkpt lat="41.62204" lon="20.60742">
        <ele>738.784845</ele>
        <time>2022-04-26T09:15:44.449Z</time>
      </trkpt>
      <trkpt lat="41.62194" lon="20.60751">
        <ele>738.274619</ele>
        <time>2022-04-26T09:15:46.458Z</time>
      </trkpt>
      <trkpt lat="41.62182" lon="20.60759">
        <ele>737.896817</ele>
        <time>2022-04-26T09:15:48.447Z</time>
      </trkpt>
      <trkpt lat="41.62172" lon="20.60764">
        <ele>737.968269</ele>
        <time>2022-04-26T09:15:50.450Z</time>
      </trkpt>
      <trkpt lat="41.62162" lon="20.60769">
        <ele>738.034913</ele>
        <time>2022-04-26T09:15:52.482Z</time>
      </trkpt>
      <trkpt lat="41.62153" lon="20.60774">
        <ele>738.101206</ele>
        <time>2022-04-26T09:15:54.446Z</time>
      </trkpt>
      <trkpt lat="41.62144" lon="20.60778">
        <ele>738.164444</ele>
        <time>2022-04-26T09:15:56.454Z</time>
      </trkpt>
      <trkpt lat="41.62135" lon="20.60782">
        <ele>738.227517</ele>
        <time>2022-04-26T09:15:58.445Z</time>
      </trkpt>
      <trkpt lat="41.62126" lon="20.60786">
        <ele>738.28718</ele>
        <time>2022-04-26T09:16:00.446Z</time>
      </trkpt>
      <trkpt lat="41.62113" lon="20.6079">
        <ele>738.373085</ele>
        <time>2022-04-26T09:16:03.452Z</time>
      </trkpt>
      <trkpt lat="41.62105" lon="20.60793">
        <ele>738.432459</ele>
        <time>2022-04-26T09:16:05.453Z</time>
      </trkpt>
      <trkpt lat="41.62096" lon="20.60796">
        <ele>738.492563</ele>
        <time>2022-04-26T09:16:07.447Z</time>
      </trkpt>
      <trkpt lat="41.62083" lon="20.608">
        <ele>738.577756</ele>
        <time>2022-04-26T09:16:10.480Z</time>
      </trkpt>
      <trkpt lat="41.6207" lon="20.60802">
        <ele>738.659271</ele>
        <time>2022-04-26T09:16:13.452Z</time>
      </trkpt>
      <trkpt lat="41.62058" lon="20.60805">
        <ele>738.744928</ele>
        <time>2022-04-26T09:16:16.468Z</time>
      </trkpt>
      <trkpt lat="41.62046" lon="20.60808">
        <ele>738.824068</ele>
        <time>2022-04-26T09:16:19.446Z</time>
      </trkpt>
      <trkpt lat="41.62035" lon="20.60807">
        <ele>738.894657</ele>
        <time>2022-04-26T09:16:22.453Z</time>
      </trkpt>
      <trkpt lat="41.62023" lon="20.60804">
        <ele>738.97123</ele>
        <time>2022-04-26T09:16:25.457Z</time>
      </trkpt>
      <trkpt lat="41.62013" lon="20.60799">
        <ele>739.047472</ele>
        <time>2022-04-26T09:16:28.446Z</time>
      </trkpt>
      <trkpt lat="41.62002" lon="20.6079">
        <ele>738.717284</ele>
        <time>2022-04-26T09:16:31.468Z</time>
      </trkpt>
      <trkpt lat="41.61992" lon="20.60782">
        <ele>738.363746</ele>
        <time>2022-04-26T09:16:34.451Z</time>
      </trkpt>
      <trkpt lat="41.61984" lon="20.60775">
        <ele>738.07832</ele>
        <time>2022-04-26T09:16:37.445Z</time>
      </trkpt>
      <trkpt lat="41.61976" lon="20.60767">
        <ele>737.779125</ele>
        <time>2022-04-26T09:16:40.449Z</time>
      </trkpt>
      <trkpt lat="41.61967" lon="20.6076">
        <ele>737.468398</ele>
        <time>2022-04-26T09:16:43.446Z</time>
      </trkpt>
      <trkpt lat="41.61955" lon="20.60753">
        <ele>737.074925</ele>
        <time>2022-04-26T09:16:46.448Z</time>
      </trkpt>
      <trkpt lat="41.61946" lon="20.60749">
        <ele>736.792494</ele>
        <time>2022-04-26T09:16:48.450Z</time>
      </trkpt>
      <trkpt lat="41.61934" lon="20.60743">
        <ele>736.413844</ele>
        <time>2022-04-26T09:16:51.451Z</time>
      </trkpt>
      <trkpt lat="41.61924" lon="20.60738">
        <ele>736.086806</ele>
        <time>2022-04-26T09:16:54.453Z</time>
      </trkpt>
      <trkpt lat="41.61912" lon="20.60734">
        <ele>735.732259</ele>
        <time>2022-04-26T09:16:57.451Z</time>
      </trkpt>
      <trkpt lat="41.619" lon="20.60727">
        <ele>735.334757</ele>
        <time>2022-04-26T09:17:00.446Z</time>
      </trkpt>
      <trkpt lat="41.6189" lon="20.60722">
        <ele>735.023268</ele>
        <time>2022-04-26T09:17:02.447Z</time>
      </trkpt>
      <trkpt lat="41.6188" lon="20.60718">
        <ele>734.696332</ele>
        <time>2022-04-26T09:17:04.449Z</time>
      </trkpt>
      <trkpt lat="41.61869" lon="20.60714">
        <ele>734.355954</ele>
        <time>2022-04-26T09:17:06.449Z</time>
      </trkpt>
      <trkpt lat="41.61857" lon="20.60712">
        <ele>734.016674</ele>
        <time>2022-04-26T09:17:08.454Z</time>
      </trkpt>
      <trkpt lat="41.61847" lon="20.60709">
        <ele>733.696214</ele>
        <time>2022-04-26T09:17:10.453Z</time>
      </trkpt>
      <trkpt lat="41.61835" lon="20.60706">
        <ele>733.348907</ele>
        <time>2022-04-26T09:17:12.450Z</time>
      </trkpt>
      <trkpt lat="41.61823" lon="20.60705">
        <ele>733.007526</ele>
        <time>2022-04-26T09:17:14.452Z</time>
      </trkpt>
      <trkpt lat="41.61809" lon="20.60705">
        <ele>732.633168</ele>
        <time>2022-04-26T09:17:16.479Z</time>
      </trkpt>
      <trkpt lat="41.61795" lon="20.60706">
        <ele>732.238702</ele>
        <time>2022-04-26T09:17:18.935Z</time>
      </trkpt>
      <trkpt lat="41.61782" lon="20.60709">
        <ele>731.848107</ele>
        <time>2022-04-26T09:17:20.461Z</time>
      </trkpt>
      <trkpt lat="41.61768" lon="20.60714">
        <ele>731.437684</ele>
        <time>2022-04-26T09:17:22.478Z</time>
      </trkpt>
      <trkpt lat="41.61754" lon="20.60719">
        <ele>731.039708</ele>
        <time>2022-04-26T09:17:24.457Z</time>
      </trkpt>
      <trkpt lat="41.6174" lon="20.60723">
        <ele>730.646992</ele>
        <time>2022-04-26T09:17:26.460Z</time>
      </trkpt>
      <trkpt lat="41.61726" lon="20.60727">
        <ele>730.220868</ele>
        <time>2022-04-26T09:17:28.446Z</time>
      </trkpt>
      <trkpt lat="41.61712" lon="20.60731">
        <ele>729.822108</ele>
        <time>2022-04-26T09:17:30.443Z</time>
      </trkpt>
      <trkpt lat="41.61698" lon="20.60733">
        <ele>729.440175</ele>
        <time>2022-04-26T09:17:32.449Z</time>
      </trkpt>
      <trkpt lat="41.61686" lon="20.60732">
        <ele>729.085155</ele>
        <time>2022-04-26T09:17:34.459Z</time>
      </trkpt>
      <trkpt lat="41.61674" lon="20.60729">
        <ele>728.744045</ele>
        <time>2022-04-26T09:17:36.456Z</time>
      </trkpt>
      <trkpt lat="41.61661" lon="20.60724">
        <ele>728.626301</ele>
        <time>2022-04-26T09:17:38.453Z</time>
      </trkpt>
      <trkpt lat="41.61648" lon="20.60719">
        <ele>728.629477</ele>
        <time>2022-04-26T09:17:40.450Z</time>
      </trkpt>
      <trkpt lat="41.61635" lon="20.60713">
        <ele>728.632596</ele>
        <time>2022-04-26T09:17:42.451Z</time>
      </trkpt>
      <trkpt lat="41.61623" lon="20.60707">
        <ele>728.635679</ele>
        <time>2022-04-26T09:17:44.445Z</time>
      </trkpt>
      <trkpt lat="41.61611" lon="20.60702">
        <ele>728.638495</ele>
        <time>2022-04-26T09:17:46.454Z</time>
      </trkpt>
      <trkpt lat="41.616" lon="20.60697">
        <ele>728.641434</ele>
        <time>2022-04-26T09:17:48.449Z</time>
      </trkpt>
      <trkpt lat="41.61588" lon="20.60693">
        <ele>728.644288</ele>
        <time>2022-04-26T09:17:50.476Z</time>
      </trkpt>
      <trkpt lat="41.61578" lon="20.6069">
        <ele>728.646587</ele>
        <time>2022-04-26T09:17:52.449Z</time>
      </trkpt>
      <trkpt lat="41.61569" lon="20.60686">
        <ele>728.648851</ele>
        <time>2022-04-26T09:17:54.449Z</time>
      </trkpt>
      <trkpt lat="41.6156" lon="20.60683">
        <ele>728.651119</ele>
        <time>2022-04-26T09:17:56.478Z</time>
      </trkpt>
      <trkpt lat="41.61548" lon="20.6068">
        <ele>728.653807</ele>
        <time>2022-04-26T09:17:59.452Z</time>
      </trkpt>
      <trkpt lat="41.61539" lon="20.6068">
        <ele>728.656137</ele>
        <time>2022-04-26T09:18:02.461Z</time>
      </trkpt>
      <trkpt lat="41.61529" lon="20.60681">
        <ele>728.658401</ele>
        <time>2022-04-26T09:18:05.451Z</time>
      </trkpt>
      <trkpt lat="41.61518" lon="20.60684">
        <ele>728.66111</ele>
        <time>2022-04-26T09:18:08.448Z</time>
      </trkpt>
      <trkpt lat="41.61505" lon="20.60687">
        <ele>728.664143</ele>
        <time>2022-04-26T09:18:11.445Z</time>
      </trkpt>
      <trkpt lat="41.61493" lon="20.60692">
        <ele>728.724755</ele>
        <time>2022-04-26T09:18:14.451Z</time>
      </trkpt>
      <trkpt lat="41.61482" lon="20.60699">
        <ele>728.955078</ele>
        <time>2022-04-26T09:18:17.451Z</time>
      </trkpt>
      <trkpt lat="41.61472" lon="20.60708">
        <ele>729.172279</ele>
        <time>2022-04-26T09:18:20.454Z</time>
      </trkpt>
      <trkpt lat="41.61465" lon="20.60718">
        <ele>729.367812</ele>
        <time>2022-04-26T09:18:23.456Z</time>
      </trkpt>
      <trkpt lat="41.61459" lon="20.60727">
        <ele>729.551758</ele>
        <time>2022-04-26T09:18:26.453Z</time>
      </trkpt>
      <trkpt lat="41.61451" lon="20.60737">
        <ele>729.745258</ele>
        <time>2022-04-26T09:18:29.472Z</time>
      </trkpt>
      <trkpt lat="41.61444" lon="20.60745">
        <ele>729.917979</ele>
        <time>2022-04-26T09:18:32.442Z</time>
      </trkpt>
      <trkpt lat="41.61437" lon="20.60754">
        <ele>730.103118</ele>
        <time>2022-04-26T09:18:35.482Z</time>
      </trkpt>
      <trkpt lat="41.61429" lon="20.60762">
        <ele>730.296118</ele>
        <time>2022-04-26T09:18:38.466Z</time>
      </trkpt>
      <trkpt lat="41.61421" lon="20.60769">
        <ele>730.479005</ele>
        <time>2022-04-26T09:18:41.451Z</time>
      </trkpt>
      <trkpt lat="41.61412" lon="20.60775">
        <ele>730.658653</ele>
        <time>2022-04-26T09:18:44.456Z</time>
      </trkpt>
      <trkpt lat="41.61404" lon="20.60782">
        <ele>730.839928</ele>
        <time>2022-04-26T09:18:47.458Z</time>
      </trkpt>
      <trkpt lat="41.61396" lon="20.60788">
        <ele>731.022577</ele>
        <time>2022-04-26T09:18:50.451Z</time>
      </trkpt>
      <trkpt lat="41.61388" lon="20.60794">
        <ele>731.200777</ele>
        <time>2022-04-26T09:18:53.452Z</time>
      </trkpt>
      <trkpt lat="41.61379" lon="20.608">
        <ele>731.374774</ele>
        <time>2022-04-26T09:18:56.452Z</time>
      </trkpt>
      <trkpt lat="41.6137" lon="20.60807">
        <ele>731.569088</ele>
        <time>2022-04-26T09:18:59.448Z</time>
      </trkpt>
      <trkpt lat="41.61361" lon="20.60814">
        <ele>731.764091</ele>
        <time>2022-04-26T09:19:02.452Z</time>
      </trkpt>
      <trkpt lat="41.61353" lon="20.6082">
        <ele>731.946069</ele>
        <time>2022-04-26T09:19:05.471Z</time>
      </trkpt>
      <trkpt lat="41.61344" lon="20.60825">
        <ele>732.093353</ele>
        <time>2022-04-26T09:19:08.452Z</time>
      </trkpt>
      <trkpt lat="41.61336" lon="20.60829">
        <ele>732.186279</ele>
        <time>2022-04-26T09:19:11.471Z</time>
      </trkpt>
      <trkpt lat="41.61326" lon="20.60833">
        <ele>732.298746</ele>
        <time>2022-04-26T09:19:14.450Z</time>
      </trkpt>
      <trkpt lat="41.61316" lon="20.60836">
        <ele>732.404304</ele>
        <time>2022-04-26T09:19:17.453Z</time>
      </trkpt>
      <trkpt lat="41.61306" lon="20.60837">
        <ele>732.499669</ele>
        <time>2022-04-26T09:19:20.458Z</time>
      </trkpt>
      <trkpt lat="41.61297" lon="20.60838">
        <ele>732.594835</ele>
        <time>2022-04-26T09:19:23.474Z</time>
      </trkpt>
      <trkpt lat="41.61288" lon="20.60838">
        <ele>732.694023</ele>
        <time>2022-04-26T09:19:26.473Z</time>
      </trkpt>
      <trkpt lat="41.61278" lon="20.60838">
        <ele>732.798376</ele>
        <time>2022-04-26T09:19:29.473Z</time>
      </trkpt>
      <trkpt lat="41.61266" lon="20.60838">
        <ele>732.920448</ele>
        <time>2022-04-26T09:19:32.483Z</time>
      </trkpt>
      <trkpt lat="41.61253" lon="20.60837">
        <ele>733.055972</ele>
        <time>2022-04-26T09:19:35.469Z</time>
      </trkpt>
      <trkpt lat="41.61243" lon="20.60836">
        <ele>733.151554</ele>
        <time>2022-04-26T09:19:37.487Z</time>
      </trkpt>
      <trkpt lat="41.61234" lon="20.60834">
        <ele>733.251037</ele>
        <time>2022-04-26T09:19:39.457Z</time>
      </trkpt>
      <trkpt lat="41.61222" lon="20.60829">
        <ele>733.375275</ele>
        <time>2022-04-26T09:19:42.452Z</time>
      </trkpt>
      <trkpt lat="41.61213" lon="20.60822">
        <ele>733.49117</ele>
        <time>2022-04-26T09:19:45.468Z</time>
      </trkpt>
      <trkpt lat="41.61205" lon="20.60815">
        <ele>733.591228</ele>
        <time>2022-04-26T09:19:48.450Z</time>
      </trkpt>
      <trkpt lat="41.61196" lon="20.60806">
        <ele>733.704047</ele>
        <time>2022-04-26T09:19:52.450Z</time>
      </trkpt>
      <trkpt lat="41.61186" lon="20.60797">
        <ele>733.822136</ele>
        <time>2022-04-26T09:19:56.448Z</time>
      </trkpt>
      <trkpt lat="41.61177" lon="20.60789">
        <ele>733.828419</ele>
        <time>2022-04-26T09:20:00.473Z</time>
      </trkpt>
      <trkpt lat="41.61168" lon="20.60782">
        <ele>733.449438</ele>
        <time>2022-04-26T09:20:03.458Z</time>
      </trkpt>
      <trkpt lat="41.61159" lon="20.60776">
        <ele>733.047346</ele>
        <time>2022-04-26T09:20:06.478Z</time>
      </trkpt>
      <trkpt lat="41.61149" lon="20.60771">
        <ele>732.625172</ele>
        <time>2022-04-26T09:20:09.454Z</time>
      </trkpt>
      <trkpt lat="41.61136" lon="20.60771">
        <ele>732.159664</ele>
        <time>2022-04-26T09:20:12.468Z</time>
      </trkpt>
      <trkpt lat="41.61127" lon="20.60773">
        <ele>731.794594</ele>
        <time>2022-04-26T09:20:14.460Z</time>
      </trkpt>
      <trkpt lat="41.61117" lon="20.60776">
        <ele>731.391226</ele>
        <time>2022-04-26T09:20:16.454Z</time>
      </trkpt>
      <trkpt lat="41.61106" lon="20.60782">
        <ele>730.958737</ele>
        <time>2022-04-26T09:20:18.461Z</time>
      </trkpt>
      <trkpt lat="41.61095" lon="20.60788">
        <ele>730.486227</ele>
        <time>2022-04-26T09:20:20.454Z</time>
      </trkpt>
      <trkpt lat="41.61082" lon="20.60792">
        <ele>729.976472</ele>
        <time>2022-04-26T09:20:22.473Z</time>
      </trkpt>
      <trkpt lat="41.61067" lon="20.60794">
        <ele>729.406776</ele>
        <time>2022-04-26T09:20:24.446Z</time>
      </trkpt>
      <trkpt lat="41.61052" lon="20.60797">
        <ele>728.827487</ele>
        <time>2022-04-26T09:20:26.450Z</time>
      </trkpt>
      <trkpt lat="41.61037" lon="20.60802">
        <ele>728.223587</ele>
        <time>2022-04-26T09:20:28.447Z</time>
      </trkpt>
      <trkpt lat="41.61023" lon="20.60811">
        <ele>727.614804</ele>
        <time>2022-04-26T09:20:30.459Z</time>
      </trkpt>
      <trkpt lat="41.61007" lon="20.60821">
        <ele>726.972665</ele>
        <time>2022-04-26T09:20:32.454Z</time>
      </trkpt>
      <trkpt lat="41.60992" lon="20.60831">
        <ele>726.461601</ele>
        <time>2022-04-26T09:20:34.488Z</time>
      </trkpt>
      <trkpt lat="41.60977" lon="20.60841">
        <ele>725.953757</ele>
        <time>2022-04-26T09:20:36.450Z</time>
      </trkpt>
      <trkpt lat="41.60962" lon="20.60849">
        <ele>725.482853</ele>
        <time>2022-04-26T09:20:38.461Z</time>
      </trkpt>
      <trkpt lat="41.60946" lon="20.60853">
        <ele>725.013639</ele>
        <time>2022-04-26T09:20:40.477Z</time>
      </trkpt>
      <trkpt lat="41.60931" lon="20.60852">
        <ele>724.572753</ele>
        <time>2022-04-26T09:20:42.454Z</time>
      </trkpt>
      <trkpt lat="41.60917" lon="20.60853">
        <ele>724.155589</ele>
        <time>2022-04-26T09:20:44.449Z</time>
      </trkpt>
      <trkpt lat="41.60903" lon="20.60857">
        <ele>723.720756</ele>
        <time>2022-04-26T09:20:46.477Z</time>
      </trkpt>
      <trkpt lat="41.60889" lon="20.60862">
        <ele>723.284309</ele>
        <time>2022-04-26T09:20:48.452Z</time>
      </trkpt>
      <trkpt lat="41.60874" lon="20.60867">
        <ele>722.850063</ele>
        <time>2022-04-26T09:20:50.450Z</time>
      </trkpt>
      <trkpt lat="41.6086" lon="20.60874">
        <ele>722.404925</ele>
        <time>2022-04-26T09:20:52.456Z</time>
      </trkpt>
      <trkpt lat="41.60846" lon="20.60881">
        <ele>721.956711</ele>
        <time>2022-04-26T09:20:54.450Z</time>
      </trkpt>
      <trkpt lat="41.60832" lon="20.6088">
        <ele>721.5869</ele>
        <time>2022-04-26T09:20:56.457Z</time>
      </trkpt>
      <trkpt lat="41.60819" lon="20.60867">
        <ele>721.282567</ele>
        <time>2022-04-26T09:20:58.455Z</time>
      </trkpt>
      <trkpt lat="41.60814" lon="20.60847">
        <ele>720.993024</ele>
        <time>2022-04-26T09:21:00.452Z</time>
      </trkpt>
      <trkpt lat="41.60811" lon="20.60829">
        <ele>720.728886</ele>
        <time>2022-04-26T09:21:02.485Z</time>
      </trkpt>
      <trkpt lat="41.60807" lon="20.60811">
        <ele>720.467967</ele>
        <time>2022-04-26T09:21:04.454Z</time>
      </trkpt>
      <trkpt lat="41.60802" lon="20.60797">
        <ele>720.243726</ele>
        <time>2022-04-26T09:21:06.448Z</time>
      </trkpt>
      <trkpt lat="41.60793" lon="20.60788">
        <ele>720.0368</ele>
        <time>2022-04-26T09:21:08.480Z</time>
      </trkpt>
      <trkpt lat="41.60781" lon="20.60784">
        <ele>719.810336</ele>
        <time>2022-04-26T09:21:10.453Z</time>
      </trkpt>
      <trkpt lat="41.60768" lon="20.60783">
        <ele>719.563395</ele>
        <time>2022-04-26T09:21:12.448Z</time>
      </trkpt>
      <trkpt lat="41.60755" lon="20.60782">
        <ele>719.316742</ele>
        <time>2022-04-26T09:21:14.458Z</time>
      </trkpt>
      <trkpt lat="41.60742" lon="20.60782">
        <ele>719.060875</ele>
        <time>2022-04-26T09:21:16.451Z</time>
      </trkpt>
      <trkpt lat="41.60728" lon="20.60782">
        <ele>718.801215</ele>
        <time>2022-04-26T09:21:18.447Z</time>
      </trkpt>
      <trkpt lat="41.60714" lon="20.60782">
        <ele>718.53593</ele>
        <time>2022-04-26T09:21:20.447Z</time>
      </trkpt>
      <trkpt lat="41.607" lon="20.60781">
        <ele>718.309349</ele>
        <time>2022-04-26T09:21:22.455Z</time>
      </trkpt>
      <trkpt lat="41.60686" lon="20.60781">
        <ele>718.380229</ele>
        <time>2022-04-26T09:21:24.450Z</time>
      </trkpt>
      <trkpt lat="41.60674" lon="20.60782">
        <ele>718.446407</ele>
        <time>2022-04-26T09:21:26.455Z</time>
      </trkpt>
      <trkpt lat="41.60661" lon="20.60782">
        <ele>718.513595</ele>
        <time>2022-04-26T09:21:28.449Z</time>
      </trkpt>
      <trkpt lat="41.60649" lon="20.60781">
        <ele>718.577131</ele>
        <time>2022-04-26T09:21:30.479Z</time>
      </trkpt>
      <trkpt lat="41.60638" lon="20.6078">
        <ele>718.635893</ele>
        <time>2022-04-26T09:21:32.450Z</time>
      </trkpt>
      <trkpt lat="41.60628" lon="20.6078">
        <ele>718.688802</ele>
        <time>2022-04-26T09:21:34.462Z</time>
      </trkpt>
      <trkpt lat="41.60619" lon="20.6078">
        <ele>718.736938</ele>
        <time>2022-04-26T09:21:36.490Z</time>
      </trkpt>
      <trkpt lat="41.60607" lon="20.6078">
        <ele>718.798857</ele>
        <time>2022-04-26T09:21:39.461Z</time>
      </trkpt>
      <trkpt lat="41.60597" lon="20.60779">
        <ele>718.855491</ele>
        <time>2022-04-26T09:21:42.482Z</time>
      </trkpt>
      <trkpt lat="41.60586" lon="20.60779">
        <ele>718.910538</ele>
        <time>2022-04-26T09:21:45.473Z</time>
      </trkpt>
      <trkpt lat="41.60576" lon="20.60779">
        <ele>718.963471</ele>
        <time>2022-04-26T09:21:48.454Z</time>
      </trkpt>
      <trkpt lat="41.60567" lon="20.6078">
        <ele>719.01171</ele>
        <time>2022-04-26T09:21:51.461Z</time>
      </trkpt>
      <trkpt lat="41.60555" lon="20.6078">
        <ele>719.073081</ele>
        <time>2022-04-26T09:21:55.450Z</time>
      </trkpt>
      <trkpt lat="41.60546" lon="20.6078">
        <ele>719.12228</ele>
        <time>2022-04-26T09:21:58.449Z</time>
      </trkpt>
      <trkpt lat="41.60537" lon="20.6078">
        <ele>719.173066</ele>
        <time>2022-04-26T09:22:01.470Z</time>
      </trkpt>
      <trkpt lat="41.60527" lon="20.6078">
        <ele>719.225986</ele>
        <time>2022-04-26T09:22:04.458Z</time>
      </trkpt>
      <trkpt lat="41.60516" lon="20.60779">
        <ele>719.266478</ele>
        <time>2022-04-26T09:22:07.454Z</time>
      </trkpt>
      <trkpt lat="41.60506" lon="20.60779">
        <ele>719.292987</ele>
        <time>2022-04-26T09:22:10.450Z</time>
      </trkpt>
      <trkpt lat="41.60496" lon="20.6078">
        <ele>719.320043</ele>
        <time>2022-04-26T09:22:13.457Z</time>
      </trkpt>
      <trkpt lat="41.60485" lon="20.6078">
        <ele>719.350841</ele>
        <time>2022-04-26T09:22:17.447Z</time>
      </trkpt>
      <trkpt lat="41.60473" lon="20.6078">
        <ele>719.382171</ele>
        <time>2022-04-26T09:22:21.450Z</time>
      </trkpt>
      <trkpt lat="41.60461" lon="20.6078">
        <ele>719.414308</ele>
        <time>2022-04-26T09:22:25.455Z</time>
      </trkpt>
      <trkpt lat="41.60452" lon="20.6078">
        <ele>719.439774</ele>
        <time>2022-04-26T09:22:28.477Z</time>
      </trkpt>
      <trkpt lat="41.60442" lon="20.60779">
        <ele>719.466319</ele>
        <time>2022-04-26T09:22:31.461Z</time>
      </trkpt>
      <trkpt lat="41.60432" lon="20.60779">
        <ele>719.492828</ele>
        <time>2022-04-26T09:22:34.451Z</time>
      </trkpt>
      <trkpt lat="41.60422" lon="20.6078">
        <ele>719.519883</ele>
        <time>2022-04-26T09:22:37.451Z</time>
      </trkpt>
      <trkpt lat="41.60412" lon="20.60781">
        <ele>719.547034</ele>
        <time>2022-04-26T09:22:40.446Z</time>
      </trkpt>
      <trkpt lat="41.60402" lon="20.60784">
        <ele>719.57452</ele>
        <time>2022-04-26T09:22:43.448Z</time>
      </trkpt>
      <trkpt lat="41.60392" lon="20.60789">
        <ele>719.601503</ele>
        <time>2022-04-26T09:22:46.448Z</time>
      </trkpt>
      <trkpt lat="41.60383" lon="20.60799">
        <ele>719.633294</ele>
        <time>2022-04-26T09:22:50.475Z</time>
      </trkpt>
      <trkpt lat="41.60377" lon="20.60808">
        <ele>719.657763</ele>
        <time>2022-04-26T09:22:53.472Z</time>
      </trkpt>
      <trkpt lat="41.60373" lon="20.60819">
        <ele>719.682136</ele>
        <time>2022-04-26T09:22:56.516Z</time>
      </trkpt>
      <trkpt lat="41.60368" lon="20.6083">
        <ele>719.707196</ele>
        <time>2022-04-26T09:22:59.453Z</time>
      </trkpt>
      <trkpt lat="41.60365" lon="20.60844">
        <ele>719.746896</ele>
        <time>2022-04-26T09:23:03.452Z</time>
      </trkpt>
      <trkpt lat="41.60364" lon="20.60857">
        <ele>719.860478</ele>
        <time>2022-04-26T09:23:07.484Z</time>
      </trkpt>
      <trkpt lat="41.60365" lon="20.60871">
        <ele>719.981576</ele>
        <time>2022-04-26T09:23:11.458Z</time>
      </trkpt>
      <trkpt lat="41.60367" lon="20.60885">
        <ele>720.102435</ele>
        <time>2022-04-26T09:23:15.455Z</time>
      </trkpt>
      <trkpt lat="41.6037" lon="20.609">
        <ele>720.235363</ele>
        <time>2022-04-26T09:23:19.450Z</time>
      </trkpt>
      <trkpt lat="41.60373" lon="20.60913">
        <ele>720.348001</ele>
        <time>2022-04-26T09:23:22.453Z</time>
      </trkpt>
      <trkpt lat="41.60375" lon="20.60926">
        <ele>720.465313</ele>
        <time>2022-04-26T09:23:25.472Z</time>
      </trkpt>
      <trkpt lat="41.60377" lon="20.60939">
        <ele>720.583157</ele>
        <time>2022-04-26T09:23:28.454Z</time>
      </trkpt>
      <trkpt lat="41.60377" lon="20.60953">
        <ele>720.696593</ele>
        <time>2022-04-26T09:23:31.469Z</time>
      </trkpt>
      <trkpt lat="41.60375" lon="20.60965">
        <ele>720.804299</ele>
        <time>2022-04-26T09:23:34.449Z</time>
      </trkpt>
      <trkpt lat="41.60369" lon="20.60977">
        <ele>720.933842</ele>
        <time>2022-04-26T09:23:38.450Z</time>
      </trkpt>
      <trkpt lat="41.6036" lon="20.60985">
        <ele>721.060978</ele>
        <time>2022-04-26T09:23:42.480Z</time>
      </trkpt>
      <trkpt lat="41.60351" lon="20.60988">
        <ele>721.167575</ele>
        <time>2022-04-26T09:23:45.473Z</time>
      </trkpt>
      <trkpt lat="41.60341" lon="20.60987">
        <ele>721.280529</ele>
        <time>2022-04-26T09:23:48.484Z</time>
      </trkpt>
      <trkpt lat="41.6033" lon="20.60983">
        <ele>721.412151</ele>
        <time>2022-04-26T09:23:51.458Z</time>
      </trkpt>
      <trkpt lat="41.60318" lon="20.60978">
        <ele>721.548977</ele>
        <time>2022-04-26T09:23:54.448Z</time>
      </trkpt>
      <trkpt lat="41.60308" lon="20.60971">
        <ele>721.688315</ele>
        <time>2022-04-26T09:23:57.458Z</time>
      </trkpt>
      <trkpt lat="41.60297" lon="20.60964">
        <ele>721.793216</ele>
        <time>2022-04-26T09:24:00.451Z</time>
      </trkpt>
      <trkpt lat="41.60286" lon="20.60957">
        <ele>721.745532</ele>
        <time>2022-04-26T09:24:03.453Z</time>
      </trkpt>
      <trkpt lat="41.60274" lon="20.60951">
        <ele>721.695877</ele>
        <time>2022-04-26T09:24:06.461Z</time>
      </trkpt>
      <trkpt lat="41.60265" lon="20.60948">
        <ele>721.660088</ele>
        <time>2022-04-26T09:24:08.453Z</time>
      </trkpt>
      <trkpt lat="41.60255" lon="20.60947">
        <ele>721.621265</ele>
        <time>2022-04-26T09:24:10.456Z</time>
      </trkpt>
      <trkpt lat="41.60244" lon="20.60948">
        <ele>721.57898</ele>
        <time>2022-04-26T09:24:12.448Z</time>
      </trkpt>
      <trkpt lat="41.60233" lon="20.60948">
        <ele>721.535115</ele>
        <time>2022-04-26T09:24:14.457Z</time>
      </trkpt>
      <trkpt lat="41.60222" lon="20.6095">
        <ele>721.489939</ele>
        <time>2022-04-26T09:24:16.452Z</time>
      </trkpt>
      <trkpt lat="41.6021" lon="20.60951">
        <ele>721.444348</ele>
        <time>2022-04-26T09:24:18.449Z</time>
      </trkpt>
      <trkpt lat="41.60198" lon="20.60951">
        <ele>721.398135</ele>
        <time>2022-04-26T09:24:20.449Z</time>
      </trkpt>
      <trkpt lat="41.60187" lon="20.60952">
        <ele>721.354285</ele>
        <time>2022-04-26T09:24:22.448Z</time>
      </trkpt>
      <trkpt lat="41.60176" lon="20.60953">
        <ele>721.310347</ele>
        <time>2022-04-26T09:24:24.449Z</time>
      </trkpt>
      <trkpt lat="41.60166" lon="20.60953">
        <ele>721.270807</ele>
        <time>2022-04-26T09:24:26.474Z</time>
      </trkpt>
      <trkpt lat="41.60155" lon="20.60953">
        <ele>721.230097</ele>
        <time>2022-04-26T09:24:28.455Z</time>
      </trkpt>
      <trkpt lat="41.60145" lon="20.60954">
        <ele>721.188538</ele>
        <time>2022-04-26T09:24:30.457Z</time>
      </trkpt>
      <trkpt lat="41.60134" lon="20.60955">
        <ele>721.145702</ele>
        <time>2022-04-26T09:24:32.487Z</time>
      </trkpt>
      <trkpt lat="41.60123" lon="20.60956">
        <ele>721.102173</ele>
        <time>2022-04-26T09:24:34.450Z</time>
      </trkpt>
      <trkpt lat="41.60112" lon="20.60955">
        <ele>721.031264</ele>
        <time>2022-04-26T09:24:36.448Z</time>
      </trkpt>
      <trkpt lat="41.60101" lon="20.60953">
        <ele>720.952179</ele>
        <time>2022-04-26T09:24:38.473Z</time>
      </trkpt>
      <trkpt lat="41.60089" lon="20.60948">
        <ele>720.865332</ele>
        <time>2022-04-26T09:24:40.514Z</time>
      </trkpt>
      <trkpt lat="41.60078" lon="20.60943">
        <ele>720.7792</ele>
        <time>2022-04-26T09:24:42.454Z</time>
      </trkpt>
      <trkpt lat="41.60066" lon="20.60938">
        <ele>720.692397</ele>
        <time>2022-04-26T09:24:44.480Z</time>
      </trkpt>
      <trkpt lat="41.60054" lon="20.60935">
        <ele>720.604992</ele>
        <time>2022-04-26T09:24:46.451Z</time>
      </trkpt>
      <trkpt lat="41.60041" lon="20.60936">
        <ele>720.51531</ele>
        <time>2022-04-26T09:24:48.451Z</time>
      </trkpt>
      <trkpt lat="41.60028" lon="20.60939">
        <ele>720.419955</ele>
        <time>2022-04-26T09:24:50.481Z</time>
      </trkpt>
      <trkpt lat="41.60015" lon="20.60944">
        <ele>720.327006</ele>
        <time>2022-04-26T09:24:52.450Z</time>
      </trkpt>
      <trkpt lat="41.60003" lon="20.6095">
        <ele>720.234853</ele>
        <time>2022-04-26T09:24:54.455Z</time>
      </trkpt>
      <trkpt lat="41.59991" lon="20.60955">
        <ele>720.146213</ele>
        <time>2022-04-26T09:24:56.470Z</time>
      </trkpt>
      <trkpt lat="41.5998" lon="20.60961">
        <ele>720.062214</ele>
        <time>2022-04-26T09:24:58.452Z</time>
      </trkpt>
      <trkpt lat="41.5997" lon="20.60967">
        <ele>719.987041</ele>
        <time>2022-04-26T09:25:00.450Z</time>
      </trkpt>
      <trkpt lat="41.5996" lon="20.60972">
        <ele>719.912927</ele>
        <time>2022-04-26T09:25:02.482Z</time>
      </trkpt>
      <trkpt lat="41.59952" lon="20.60978">
        <ele>719.84687</ele>
        <time>2022-04-26T09:25:04.460Z</time>
      </trkpt>
      <trkpt lat="41.59943" lon="20.60986">
        <ele>719.159041</ele>
        <time>2022-04-26T09:25:07.470Z</time>
      </trkpt>
      <trkpt lat="41.59934" lon="20.60995">
        <ele>718.383859</ele>
        <time>2022-04-26T09:25:10.457Z</time>
      </trkpt>
      <trkpt lat="41.59927" lon="20.61004">
        <ele>717.603533</ele>
        <time>2022-04-26T09:25:13.481Z</time>
      </trkpt>
      <trkpt lat="41.59919" lon="20.61013">
        <ele>716.810194</ele>
        <time>2022-04-26T09:25:16.458Z</time>
      </trkpt>
      <trkpt lat="41.59911" lon="20.61023">
        <ele>715.994361</ele>
        <time>2022-04-26T09:25:19.465Z</time>
      </trkpt>
      <trkpt lat="41.59902" lon="20.61033">
        <ele>715.131155</ele>
        <time>2022-04-26T09:25:22.451Z</time>
      </trkpt>
      <trkpt lat="41.59892" lon="20.61043">
        <ele>714.179717</ele>
        <time>2022-04-26T09:25:25.466Z</time>
      </trkpt>
      <trkpt lat="41.59884" lon="20.6105">
        <ele>713.480908</ele>
        <time>2022-04-26T09:25:27.457Z</time>
      </trkpt>
      <trkpt lat="41.59875" lon="20.61058">
        <ele>712.638125</ele>
        <time>2022-04-26T09:25:29.458Z</time>
      </trkpt>
      <trkpt lat="41.59865" lon="20.61067">
        <ele>711.747986</ele>
        <time>2022-04-26T09:25:31.450Z</time>
      </trkpt>
      <trkpt lat="41.59854" lon="20.61075">
        <ele>710.803391</ele>
        <time>2022-04-26T09:25:33.484Z</time>
      </trkpt>
      <trkpt lat="41.59842" lon="20.61084">
        <ele>709.759742</ele>
        <time>2022-04-26T09:25:35.497Z</time>
      </trkpt>
      <trkpt lat="41.5983" lon="20.61094">
        <ele>708.684254</ele>
        <time>2022-04-26T09:25:37.478Z</time>
      </trkpt>
      <trkpt lat="41.59816" lon="20.61103">
        <ele>707.547693</ele>
        <time>2022-04-26T09:25:39.484Z</time>
      </trkpt>
      <trkpt lat="41.59802" lon="20.61113">
        <ele>706.34711</ele>
        <time>2022-04-26T09:25:41.480Z</time>
      </trkpt>
      <trkpt lat="41.59788" lon="20.61124">
        <ele>705.359736</ele>
        <time>2022-04-26T09:25:43.483Z</time>
      </trkpt>
      <trkpt lat="41.59772" lon="20.61136">
        <ele>704.347946</ele>
        <time>2022-04-26T09:25:45.538Z</time>
      </trkpt>
      <trkpt lat="41.59764" lon="20.61142">
        <ele>703.816787</ele>
        <time>2022-04-26T09:25:46.479Z</time>
      </trkpt>
      <trkpt lat="41.59756" lon="20.61148">
        <ele>703.292722</ele>
        <time>2022-04-26T09:25:47.476Z</time>
      </trkpt>
      <trkpt lat="41.59748" lon="20.61154">
        <ele>702.766573</ele>
        <time>2022-04-26T09:25:48.482Z</time>
      </trkpt>
      <trkpt lat="41.5974" lon="20.6116">
        <ele>702.220295</ele>
        <time>2022-04-26T09:25:49.472Z</time>
      </trkpt>
      <trkpt lat="41.59731" lon="20.61166">
        <ele>701.670941</ele>
        <time>2022-04-26T09:25:50.492Z</time>
      </trkpt>
      <trkpt lat="41.59723" lon="20.61172">
        <ele>701.140541</ele>
        <time>2022-04-26T09:25:51.487Z</time>
      </trkpt>
      <trkpt lat="41.59715" lon="20.61178">
        <ele>700.6156</ele>
        <time>2022-04-26T09:25:52.491Z</time>
      </trkpt>
      <trkpt lat="41.59708" lon="20.61185">
        <ele>700.083814</ele>
        <time>2022-04-26T09:25:53.506Z</time>
      </trkpt>
      <trkpt lat="41.597" lon="20.61192">
        <ele>699.544965</ele>
        <time>2022-04-26T09:25:54.466Z</time>
      </trkpt>
      <trkpt lat="41.59692" lon="20.61199">
        <ele>699.012846</ele>
        <time>2022-04-26T09:25:55.493Z</time>
      </trkpt>
      <trkpt lat="41.59685" lon="20.61207">
        <ele>698.481307</ele>
        <time>2022-04-26T09:25:56.503Z</time>
      </trkpt>
      <trkpt lat="41.59678" lon="20.61216">
        <ele>697.94146</ele>
        <time>2022-04-26T09:25:57.482Z</time>
      </trkpt>
      <trkpt lat="41.59672" lon="20.61225">
        <ele>697.394573</ele>
        <time>2022-04-26T09:25:58.470Z</time>
      </trkpt>
      <trkpt lat="41.59661" lon="20.61243">
        <ele>696.401703</ele>
        <time>2022-04-26T09:26:00.497Z</time>
      </trkpt>
      <trkpt lat="41.59653" lon="20.61262">
        <ele>696.301628</ele>
        <time>2022-04-26T09:26:02.523Z</time>
      </trkpt>
      <trkpt lat="41.59646" lon="20.61281">
        <ele>696.9758</ele>
        <time>2022-04-26T09:26:04.492Z</time>
      </trkpt>
      <trkpt lat="41.5964" lon="20.61299">
        <ele>697.576031</ele>
        <time>2022-04-26T09:26:06.471Z</time>
      </trkpt>
      <trkpt lat="41.59636" lon="20.61313">
        <ele>698.082128</ele>
        <time>2022-04-26T09:26:08.478Z</time>
      </trkpt>
      <trkpt lat="41.5963" lon="20.61329">
        <ele>698.605377</ele>
        <time>2022-04-26T09:26:10.495Z</time>
      </trkpt>
      <trkpt lat="41.59623" lon="20.61343">
        <ele>699.156175</ele>
        <time>2022-04-26T09:26:12.476Z</time>
      </trkpt>
      <trkpt lat="41.59617" lon="20.61357">
        <ele>699.679746</ele>
        <time>2022-04-26T09:26:14.477Z</time>
      </trkpt>
      <trkpt lat="41.59611" lon="20.61369">
        <ele>700.122744</ele>
        <time>2022-04-26T09:26:16.494Z</time>
      </trkpt>
      <trkpt lat="41.59606" lon="20.61381">
        <ele>700.551134</ele>
        <time>2022-04-26T09:26:18.478Z</time>
      </trkpt>
      <trkpt lat="41.596" lon="20.61393">
        <ele>700.985717</ele>
        <time>2022-04-26T09:26:20.479Z</time>
      </trkpt>
      <trkpt lat="41.59594" lon="20.61404">
        <ele>701.429492</ele>
        <time>2022-04-26T09:26:22.484Z</time>
      </trkpt>
      <trkpt lat="41.59589" lon="20.61414">
        <ele>701.827759</ele>
        <time>2022-04-26T09:26:24.517Z</time>
      </trkpt>
      <trkpt lat="41.59582" lon="20.61423">
        <ele>702.220394</ele>
        <time>2022-04-26T09:26:26.470Z</time>
      </trkpt>
      <trkpt lat="41.59575" lon="20.61433">
        <ele>702.64876</ele>
        <time>2022-04-26T09:26:28.518Z</time>
      </trkpt>
      <trkpt lat="41.59567" lon="20.61439">
        <ele>703.030171</ele>
        <time>2022-04-26T09:26:30.484Z</time>
      </trkpt>
      <trkpt lat="41.59558" lon="20.61444">
        <ele>703.444681</ele>
        <time>2022-04-26T09:26:32.476Z</time>
      </trkpt>
      <trkpt lat="41.59545" lon="20.61449">
        <ele>703.611079</ele>
        <time>2022-04-26T09:26:35.523Z</time>
      </trkpt>
      <trkpt lat="41.59534" lon="20.61455">
        <ele>703.700389</ele>
        <time>2022-04-26T09:26:38.474Z</time>
      </trkpt>
      <trkpt lat="41.59525" lon="20.6146">
        <ele>703.77691</ele>
        <time>2022-04-26T09:26:41.511Z</time>
      </trkpt>
      <trkpt lat="41.59516" lon="20.61465">
        <ele>703.850107</ele>
        <time>2022-04-26T09:26:44.470Z</time>
      </trkpt>
      <trkpt lat="41.59506" lon="20.61471">
        <ele>703.935848</ele>
        <time>2022-04-26T09:26:48.488Z</time>
      </trkpt>
      <trkpt lat="41.59497" lon="20.61478">
        <ele>704.011362</ele>
        <time>2022-04-26T09:26:52.519Z</time>
      </trkpt>
      <trkpt lat="41.59487" lon="20.61485">
        <ele>704.102831</ele>
        <time>2022-04-26T09:26:57.475Z</time>
      </trkpt>
      <trkpt lat="41.59478" lon="20.61492">
        <ele>704.180701</ele>
        <time>2022-04-26T09:27:01.471Z</time>
      </trkpt>
      <trkpt lat="41.5947" lon="20.61498">
        <ele>704.250723</ele>
        <time>2022-04-26T09:27:04.488Z</time>
      </trkpt>
      <trkpt lat="41.59459" lon="20.61506">
        <ele>704.345282</ele>
        <time>2022-04-26T09:27:08.485Z</time>
      </trkpt>
      <trkpt lat="41.59451" lon="20.61513">
        <ele>704.418014</ele>
        <time>2022-04-26T09:27:11.495Z</time>
      </trkpt>
      <trkpt lat="41.59442" lon="20.61522">
        <ele>704.503046</ele>
        <time>2022-04-26T09:27:14.511Z</time>
      </trkpt>
      <trkpt lat="41.59432" lon="20.61531">
        <ele>704.593817</ele>
        <time>2022-04-26T09:27:17.490Z</time>
      </trkpt>
      <trkpt lat="41.59421" lon="20.61541">
        <ele>704.695617</ele>
        <time>2022-04-26T09:27:20.464Z</time>
      </trkpt>
      <trkpt lat="41.59412" lon="20.61549">
        <ele>704.774666</ele>
        <time>2022-04-26T09:27:22.486Z</time>
      </trkpt>
      <trkpt lat="41.59403" lon="20.61559">
        <ele>704.866863</ele>
        <time>2022-04-26T09:27:24.474Z</time>
      </trkpt>
      <trkpt lat="41.59392" lon="20.6157">
        <ele>704.65621</ele>
        <time>2022-04-26T09:27:26.475Z</time>
      </trkpt>
      <trkpt lat="41.59381" lon="20.61581">
        <ele>704.315192</ele>
        <time>2022-04-26T09:27:28.484Z</time>
      </trkpt>
      <trkpt lat="41.5937" lon="20.61592">
        <ele>703.986619</ele>
        <time>2022-04-26T09:27:30.467Z</time>
      </trkpt>
      <trkpt lat="41.59359" lon="20.616">
        <ele>703.703429</ele>
        <time>2022-04-26T09:27:32.487Z</time>
      </trkpt>
      <trkpt lat="41.5935" lon="20.61608">
        <ele>703.439297</ele>
        <time>2022-04-26T09:27:34.470Z</time>
      </trkpt>
      <trkpt lat="41.59341" lon="20.61613">
        <ele>703.214589</ele>
        <time>2022-04-26T09:27:36.517Z</time>
      </trkpt>
      <trkpt lat="41.59331" lon="20.61619">
        <ele>702.939325</ele>
        <time>2022-04-26T09:27:39.458Z</time>
      </trkpt>
      <trkpt lat="41.59321" lon="20.61625">
        <ele>702.698729</ele>
        <time>2022-04-26T09:27:42.508Z</time>
      </trkpt>
      <trkpt lat="41.59313" lon="20.6163">
        <ele>702.482605</ele>
        <time>2022-04-26T09:27:45.469Z</time>
      </trkpt>
      <trkpt lat="41.59303" lon="20.61635">
        <ele>702.218499</ele>
        <time>2022-04-26T09:27:48.521Z</time>
      </trkpt>
      <trkpt lat="41.59291" lon="20.6164">
        <ele>701.927026</ele>
        <time>2022-04-26T09:27:51.483Z</time>
      </trkpt>
      <trkpt lat="41.59278" lon="20.61647">
        <ele>701.608764</ele>
        <time>2022-04-26T09:27:54.522Z</time>
      </trkpt>
      <trkpt lat="41.5927" lon="20.61651">
        <ele>701.389619</ele>
        <time>2022-04-26T09:27:56.479Z</time>
      </trkpt>
      <trkpt lat="41.59259" lon="20.61657">
        <ele>701.113595</ele>
        <time>2022-04-26T09:27:58.477Z</time>
      </trkpt>
      <trkpt lat="41.59248" lon="20.61666">
        <ele>700.812999</ele>
        <time>2022-04-26T09:28:01.472Z</time>
      </trkpt>
      <trkpt lat="41.59239" lon="20.61674">
        <ele>700.763611</ele>
        <time>2022-04-26T09:28:04.476Z</time>
      </trkpt>
      <trkpt lat="41.59232" lon="20.61683">
        <ele>701.161674</ele>
        <time>2022-04-26T09:28:07.484Z</time>
      </trkpt>
      <trkpt lat="41.59222" lon="20.61692">
        <ele>701.68312</ele>
        <time>2022-04-26T09:28:11.526Z</time>
      </trkpt>
      <trkpt lat="41.59213" lon="20.61698">
        <ele>702.087878</ele>
        <time>2022-04-26T09:28:14.475Z</time>
      </trkpt>
      <trkpt lat="41.59205" lon="20.61704">
        <ele>702.485909</ele>
        <time>2022-04-26T09:28:17.511Z</time>
      </trkpt>
      <trkpt lat="41.59197" lon="20.61709">
        <ele>702.885408</ele>
        <time>2022-04-26T09:28:20.478Z</time>
      </trkpt>
      <trkpt lat="41.59187" lon="20.61717">
        <ele>703.354413</ele>
        <time>2022-04-26T09:28:24.482Z</time>
      </trkpt>
      <trkpt lat="41.59179" lon="20.61725">
        <ele>703.806645</ele>
        <time>2022-04-26T09:28:28.456Z</time>
      </trkpt>
      <trkpt lat="41.59171" lon="20.61734">
        <ele>704.260012</ele>
        <time>2022-04-26T09:28:32.473Z</time>
      </trkpt>
      <trkpt lat="41.59163" lon="20.61744">
        <ele>704.700715</ele>
        <time>2022-04-26T09:28:36.494Z</time>
      </trkpt>
      <trkpt lat="41.59156" lon="20.61751">
        <ele>705.086701</ele>
        <time>2022-04-26T09:28:39.479Z</time>
      </trkpt>
      <trkpt lat="41.59149" lon="20.6176">
        <ele>705.493237</ele>
        <time>2022-04-26T09:28:43.500Z</time>
      </trkpt>
      <trkpt lat="41.59142" lon="20.61769">
        <ele>705.901673</ele>
        <time>2022-04-26T09:28:48.482Z</time>
      </trkpt>
      <trkpt lat="41.59135" lon="20.6178">
        <ele>706.36374</ele>
        <time>2022-04-26T09:28:53.479Z</time>
      </trkpt>
      <trkpt lat="41.59129" lon="20.61789">
        <ele>706.768816</ele>
        <time>2022-04-26T09:28:58.483Z</time>
      </trkpt>
      <trkpt lat="41.59122" lon="20.61798">
        <ele>707.181798</ele>
        <time>2022-04-26T09:29:03.477Z</time>
      </trkpt>
      <trkpt lat="41.59115" lon="20.61807">
        <ele>707.599029</ele>
        <time>2022-04-26T09:29:08.513Z</time>
      </trkpt>
      <trkpt lat="41.59107" lon="20.61818">
        <ele>708.069723</ele>
        <time>2022-04-26T09:29:13.481Z</time>
      </trkpt>
      <trkpt lat="41.59099" lon="20.61827">
        <ele>708.321636</ele>
        <time>2022-04-26T09:29:18.499Z</time>
      </trkpt>
      <trkpt lat="41.59092" lon="20.61836">
        <ele>708.368292</ele>
        <time>2022-04-26T09:29:22.484Z</time>
      </trkpt>
      <trkpt lat="41.59083" lon="20.61846">
        <ele>708.421994</ele>
        <time>2022-04-26T09:29:26.476Z</time>
      </trkpt>
      <trkpt lat="41.59074" lon="20.61852">
        <ele>708.466936</ele>
        <time>2022-04-26T09:29:29.512Z</time>
      </trkpt>
      <trkpt lat="41.59065" lon="20.61859">
        <ele>708.519291</ele>
        <time>2022-04-26T09:29:32.482Z</time>
      </trkpt>
      <trkpt lat="41.59055" lon="20.61867">
        <ele>708.574274</ele>
        <time>2022-04-26T09:29:35.478Z</time>
      </trkpt>
      <trkpt lat="41.59042" lon="20.61875">
        <ele>708.63793</ele>
        <time>2022-04-26T09:29:38.482Z</time>
      </trkpt>
      <trkpt lat="41.59034" lon="20.6188">
        <ele>708.682661</ele>
        <time>2022-04-26T09:29:40.494Z</time>
      </trkpt>
      <trkpt lat="41.59024" lon="20.61885">
        <ele>708.730982</ele>
        <time>2022-04-26T09:29:42.480Z</time>
      </trkpt>
      <trkpt lat="41.59015" lon="20.61892">
        <ele>708.779074</ele>
        <time>2022-04-26T09:29:44.474Z</time>
      </trkpt>
      <trkpt lat="41.59007" lon="20.61899">
        <ele>708.824681</ele>
        <time>2022-04-26T09:29:46.465Z</time>
      </trkpt>
      <trkpt lat="41.58998" lon="20.61908">
        <ele>708.880966</ele>
        <time>2022-04-26T09:29:49.494Z</time>
      </trkpt>
      <trkpt lat="41.58991" lon="20.61918">
        <ele>708.926939</ele>
        <time>2022-04-26T09:29:52.477Z</time>
      </trkpt>
      <trkpt lat="41.58982" lon="20.61929">
        <ele>708.982969</ele>
        <time>2022-04-26T09:29:56.476Z</time>
      </trkpt>
      <trkpt lat="41.58975" lon="20.61939">
        <ele>709.033093</ele>
        <time>2022-04-26T09:30:00.517Z</time>
      </trkpt>
      <trkpt lat="41.58968" lon="20.61948">
        <ele>709.078315</ele>
        <time>2022-04-26T09:30:04.480Z</time>
      </trkpt>
      <trkpt lat="41.58962" lon="20.61958">
        <ele>709.122947</ele>
        <time>2022-04-26T09:30:08.479Z</time>
      </trkpt>
      <trkpt lat="41.58954" lon="20.61969">
        <ele>708.808999</ele>
        <time>2022-04-26T09:30:12.475Z</time>
      </trkpt>
      <trkpt lat="41.58945" lon="20.6198">
        <ele>708.300139</ele>
        <time>2022-04-26T09:30:15.496Z</time>
      </trkpt>
      <trkpt lat="41.58939" lon="20.61988">
        <ele>707.899531</ele>
        <time>2022-04-26T09:30:17.474Z</time>
      </trkpt>
      <trkpt lat="41.58931" lon="20.61997">
        <ele>707.466176</ele>
        <time>2022-04-26T09:30:19.484Z</time>
      </trkpt>
      <trkpt lat="41.58923" lon="20.62006">
        <ele>707.005608</ele>
        <time>2022-04-26T09:30:21.475Z</time>
      </trkpt>
      <trkpt lat="41.58915" lon="20.62015">
        <ele>706.532739</ele>
        <time>2022-04-26T09:30:23.455Z</time>
      </trkpt>
      <trkpt lat="41.58906" lon="20.62025">
        <ele>706.028851</ele>
        <time>2022-04-26T09:30:25.522Z</time>
      </trkpt>
      <trkpt lat="41.58896" lon="20.62034">
        <ele>705.488902</ele>
        <time>2022-04-26T09:30:27.481Z</time>
      </trkpt>
      <trkpt lat="41.58885" lon="20.62044">
        <ele>704.927049</ele>
        <time>2022-04-26T09:30:29.476Z</time>
      </trkpt>
      <trkpt lat="41.58874" lon="20.62055">
        <ele>704.332338</ele>
        <time>2022-04-26T09:30:31.518Z</time>
      </trkpt>
      <trkpt lat="41.58863" lon="20.62066">
        <ele>703.717637</ele>
        <time>2022-04-26T09:30:33.470Z</time>
      </trkpt>
      <trkpt lat="41.58851" lon="20.62076">
        <ele>703.086822</ele>
        <time>2022-04-26T09:30:35.491Z</time>
      </trkpt>
      <trkpt lat="41.58838" lon="20.62085">
        <ele>702.457493</ele>
        <time>2022-04-26T09:30:37.481Z</time>
      </trkpt>
      <trkpt lat="41.58825" lon="20.62091">
        <ele>701.833395</ele>
        <time>2022-04-26T09:30:39.480Z</time>
      </trkpt>
      <trkpt lat="41.5881" lon="20.62095">
        <ele>701.20337</ele>
        <time>2022-04-26T09:30:41.484Z</time>
      </trkpt>
      <trkpt lat="41.58795" lon="20.62097">
        <ele>700.652694</ele>
        <time>2022-04-26T09:30:43.481Z</time>
      </trkpt>
      <trkpt lat="41.58779" lon="20.62096">
        <ele>700.092961</ele>
        <time>2022-04-26T09:30:45.497Z</time>
      </trkpt>
      <trkpt lat="41.58764" lon="20.62093">
        <ele>699.517762</ele>
        <time>2022-04-26T09:30:47.467Z</time>
      </trkpt>
      <trkpt lat="41.58748" lon="20.62089">
        <ele>698.936135</ele>
        <time>2022-04-26T09:30:49.493Z</time>
      </trkpt>
      <trkpt lat="41.58732" lon="20.62084">
        <ele>698.352055</ele>
        <time>2022-04-26T09:30:51.461Z</time>
      </trkpt>
      <trkpt lat="41.58715" lon="20.62082">
        <ele>697.757223</ele>
        <time>2022-04-26T09:30:53.476Z</time>
      </trkpt>
      <trkpt lat="41.58699" lon="20.62084">
        <ele>697.167994</ele>
        <time>2022-04-26T09:30:55.478Z</time>
      </trkpt>
      <trkpt lat="41.58683" lon="20.62092">
        <ele>696.562794</ele>
        <time>2022-04-26T09:30:57.483Z</time>
      </trkpt>
      <trkpt lat="41.58668" lon="20.62105">
        <ele>695.926781</ele>
        <time>2022-04-26T09:30:59.473Z</time>
      </trkpt>
      <trkpt lat="41.58662" lon="20.62114">
        <ele>695.60234</ele>
        <time>2022-04-26T09:31:00.496Z</time>
      </trkpt>
      <trkpt lat="41.58656" lon="20.62123">
        <ele>695.278122</ele>
        <time>2022-04-26T09:31:01.471Z</time>
      </trkpt>
      <trkpt lat="41.58648" lon="20.62144">
        <ele>694.694449</ele>
        <time>2022-04-26T09:31:03.486Z</time>
      </trkpt>
      <trkpt lat="41.58643" lon="20.62165">
        <ele>694.219767</ele>
        <time>2022-04-26T09:31:05.488Z</time>
      </trkpt>
      <trkpt lat="41.58639" lon="20.62184">
        <ele>693.786165</ele>
        <time>2022-04-26T09:31:07.505Z</time>
      </trkpt>
      <trkpt lat="41.58634" lon="20.62201">
        <ele>693.407626</ele>
        <time>2022-04-26T09:31:09.529Z</time>
      </trkpt>
      <trkpt lat="41.5863" lon="20.62216">
        <ele>693.073018</ele>
        <time>2022-04-26T09:31:11.473Z</time>
      </trkpt>
      <trkpt lat="41.58626" lon="20.62229">
        <ele>692.780187</ele>
        <time>2022-04-26T09:31:13.455Z</time>
      </trkpt>
      <trkpt lat="41.58623" lon="20.62241">
        <ele>692.502234</ele>
        <time>2022-04-26T09:31:15.482Z</time>
      </trkpt>
      <trkpt lat="41.5862" lon="20.62258">
        <ele>692.127332</ele>
        <time>2022-04-26T09:31:18.487Z</time>
      </trkpt>
      <trkpt lat="41.58617" lon="20.62275">
        <ele>691.746206</ele>
        <time>2022-04-26T09:31:21.484Z</time>
      </trkpt>
      <trkpt lat="41.58614" lon="20.62287">
        <ele>691.481317</ele>
        <time>2022-04-26T09:31:23.474Z</time>
      </trkpt>
      <trkpt lat="41.58607" lon="20.62303">
        <ele>691.107569</ele>
        <time>2022-04-26T09:31:26.485Z</time>
      </trkpt>
      <trkpt lat="41.586" lon="20.62316">
        <ele>690.754917</ele>
        <time>2022-04-26T09:31:29.472Z</time>
      </trkpt>
      <trkpt lat="41.58593" lon="20.62329">
        <ele>690.409082</ele>
        <time>2022-04-26T09:31:32.484Z</time>
      </trkpt>
      <trkpt lat="41.58585" lon="20.62341">
        <ele>690.078386</ele>
        <time>2022-04-26T09:31:35.495Z</time>
      </trkpt>
      <trkpt lat="41.58578" lon="20.62352">
        <ele>689.761129</ele>
        <time>2022-04-26T09:31:38.492Z</time>
      </trkpt>
      <trkpt lat="41.5857" lon="20.62361">
        <ele>690.247729</ele>
        <time>2022-04-26T09:31:41.474Z</time>
      </trkpt>
      <trkpt lat="41.58562" lon="20.62368">
        <ele>690.87918</ele>
        <time>2022-04-26T09:31:44.478Z</time>
      </trkpt>
      <trkpt lat="41.58554" lon="20.62376">
        <ele>691.488651</ele>
        <time>2022-04-26T09:31:47.485Z</time>
      </trkpt>
      <trkpt lat="41.58546" lon="20.62382">
        <ele>692.121637</ele>
        <time>2022-04-26T09:31:50.482Z</time>
      </trkpt>
      <trkpt lat="41.58538" lon="20.62388">
        <ele>692.733837</ele>
        <time>2022-04-26T09:31:53.494Z</time>
      </trkpt>
      <trkpt lat="41.5853" lon="20.62395">
        <ele>693.410422</ele>
        <time>2022-04-26T09:31:57.479Z</time>
      </trkpt>
      <trkpt lat="41.58522" lon="20.62406">
        <ele>694.149205</ele>
        <time>2022-04-26T09:32:01.482Z</time>
      </trkpt>
      <trkpt lat="41.58515" lon="20.62414">
        <ele>694.754924</ele>
        <time>2022-04-26T09:32:04.514Z</time>
      </trkpt>
      <trkpt lat="41.58508" lon="20.62423">
        <ele>695.402454</ele>
        <time>2022-04-26T09:32:07.488Z</time>
      </trkpt>
      <trkpt lat="41.585" lon="20.62432">
        <ele>696.08765</ele>
        <time>2022-04-26T09:32:10.472Z</time>
      </trkpt>
      <trkpt lat="41.5849" lon="20.62443">
        <ele>696.938208</ele>
        <time>2022-04-26T09:32:13.475Z</time>
      </trkpt>
      <trkpt lat="41.5848" lon="20.62454">
        <ele>697.813139</ele>
        <time>2022-04-26T09:32:16.458Z</time>
      </trkpt>
      <trkpt lat="41.58469" lon="20.62464">
        <ele>698.684685</ele>
        <time>2022-04-26T09:32:19.490Z</time>
      </trkpt>
      <trkpt lat="41.58456" lon="20.62474">
        <ele>699.681261</ele>
        <time>2022-04-26T09:32:22.475Z</time>
      </trkpt>
      <trkpt lat="41.58446" lon="20.62479">
        <ele>700.359789</ele>
        <time>2022-04-26T09:32:24.502Z</time>
      </trkpt>
      <trkpt lat="41.58438" lon="20.62484">
        <ele>700.967947</ele>
        <time>2022-04-26T09:32:26.519Z</time>
      </trkpt>
      <trkpt lat="41.58428" lon="20.62489">
        <ele>701.627522</ele>
        <time>2022-04-26T09:32:29.493Z</time>
      </trkpt>
      <trkpt lat="41.58419" lon="20.62491">
        <ele>701.634</ele>
        <time>2022-04-26T09:32:32.510Z</time>
      </trkpt>
      <trkpt lat="41.58408" lon="20.62493">
        <ele>701.641378</ele>
        <time>2022-04-26T09:32:36.473Z</time>
      </trkpt>
      <trkpt lat="41.58399" lon="20.62494">
        <ele>701.647834</ele>
        <time>2022-04-26T09:32:40.496Z</time>
      </trkpt>
      <trkpt lat="41.58389" lon="20.62498">
        <ele>701.65501</ele>
        <time>2022-04-26T09:32:44.496Z</time>
      </trkpt>
      <trkpt lat="41.5838" lon="20.62503">
        <ele>701.662457</ele>
        <time>2022-04-26T09:32:48.478Z</time>
      </trkpt>
      <trkpt lat="41.5837" lon="20.6251">
        <ele>701.669804</ele>
        <time>2022-04-26T09:32:52.482Z</time>
      </trkpt>
      <trkpt lat="41.5836" lon="20.62515">
        <ele>701.677752</ele>
        <time>2022-04-26T09:32:56.469Z</time>
      </trkpt>
      <trkpt lat="41.58351" lon="20.62518">
        <ele>701.684528</ele>
        <time>2022-04-26T09:32:59.502Z</time>
      </trkpt>
      <trkpt lat="41.5834" lon="20.62521">
        <ele>701.691877</ele>
        <time>2022-04-26T09:33:02.483Z</time>
      </trkpt>
      <trkpt lat="41.58331" lon="20.62524">
        <ele>701.698722</ele>
        <time>2022-04-26T09:33:05.528Z</time>
      </trkpt>
      <trkpt lat="41.58317" lon="20.62526">
        <ele>701.708599</ele>
        <time>2022-04-26T09:33:08.477Z</time>
      </trkpt>
      <trkpt lat="41.58306" lon="20.62527">
        <ele>701.716662</ele>
        <time>2022-04-26T09:33:10.483Z</time>
      </trkpt>
      <trkpt lat="41.58292" lon="20.62528">
        <ele>701.726043</ele>
        <time>2022-04-26T09:33:12.458Z</time>
      </trkpt>
      <trkpt lat="41.58277" lon="20.62527">
        <ele>701.736622</ele>
        <time>2022-04-26T09:33:14.480Z</time>
      </trkpt>
      <trkpt lat="41.58262" lon="20.62526">
        <ele>701.747075</ele>
        <time>2022-04-26T09:33:16.495Z</time>
      </trkpt>
      <trkpt lat="41.58247" lon="20.62525">
        <ele>701.412032</ele>
        <time>2022-04-26T09:33:18.474Z</time>
      </trkpt>
      <trkpt lat="41.58231" lon="20.62524">
        <ele>700.509582</ele>
        <time>2022-04-26T09:33:20.462Z</time>
      </trkpt>
      <trkpt lat="41.58216" lon="20.62523">
        <ele>699.668952</ele>
        <time>2022-04-26T09:33:22.483Z</time>
      </trkpt>
      <trkpt lat="41.58203" lon="20.62519">
        <ele>698.882928</ele>
        <time>2022-04-26T09:33:24.500Z</time>
      </trkpt>
      <trkpt lat="41.5819" lon="20.62513">
        <ele>698.126018</ele>
        <time>2022-04-26T09:33:26.481Z</time>
      </trkpt>
      <trkpt lat="41.58179" lon="20.62504">
        <ele>697.401896</ele>
        <time>2022-04-26T09:33:28.521Z</time>
      </trkpt>
      <trkpt lat="41.58169" lon="20.62493">
        <ele>696.639774</ele>
        <time>2022-04-26T09:33:30.472Z</time>
      </trkpt>
      <trkpt lat="41.58158" lon="20.62482">
        <ele>695.86484</ele>
        <time>2022-04-26T09:33:32.488Z</time>
      </trkpt>
      <trkpt lat="41.58147" lon="20.62472">
        <ele>695.096358</ele>
        <time>2022-04-26T09:33:34.482Z</time>
      </trkpt>
      <trkpt lat="41.58138" lon="20.62461">
        <ele>694.39635</ele>
        <time>2022-04-26T09:33:36.484Z</time>
      </trkpt>
      <trkpt lat="41.5813" lon="20.62447">
        <ele>693.682733</ele>
        <time>2022-04-26T09:33:38.478Z</time>
      </trkpt>
      <trkpt lat="41.58121" lon="20.62433">
        <ele>692.904803</ele>
        <time>2022-04-26T09:33:40.481Z</time>
      </trkpt>
      <trkpt lat="41.58112" lon="20.62418">
        <ele>692.082169</ele>
        <time>2022-04-26T09:33:42.489Z</time>
      </trkpt>
      <trkpt lat="41.58103" lon="20.62402">
        <ele>691.500738</ele>
        <time>2022-04-26T09:33:44.492Z</time>
      </trkpt>
      <trkpt lat="41.58093" lon="20.62387">
        <ele>691.354716</ele>
        <time>2022-04-26T09:33:46.465Z</time>
      </trkpt>
      <trkpt lat="41.58083" lon="20.62372">
        <ele>691.21122</ele>
        <time>2022-04-26T09:33:48.476Z</time>
      </trkpt>
      <trkpt lat="41.58073" lon="20.62357">
        <ele>691.063762</ele>
        <time>2022-04-26T09:33:50.465Z</time>
      </trkpt>
      <trkpt lat="41.58062" lon="20.6234">
        <ele>690.908991</ele>
        <time>2022-04-26T09:33:52.479Z</time>
      </trkpt>
      <trkpt lat="41.58052" lon="20.62323">
        <ele>690.747669</ele>
        <time>2022-04-26T09:33:54.489Z</time>
      </trkpt>
      <trkpt lat="41.58044" lon="20.62301">
        <ele>690.574869</ele>
        <time>2022-04-26T09:33:56.481Z</time>
      </trkpt>
      <trkpt lat="41.5804" lon="20.62289">
        <ele>690.480732</ele>
        <time>2022-04-26T09:33:57.468Z</time>
      </trkpt>
      <trkpt lat="41.58037" lon="20.62277">
        <ele>690.386036</ele>
        <time>2022-04-26T09:33:58.470Z</time>
      </trkpt>
      <trkpt lat="41.58034" lon="20.62264">
        <ele>690.290211</ele>
        <time>2022-04-26T09:33:59.490Z</time>
      </trkpt>
      <trkpt lat="41.58031" lon="20.62252">
        <ele>690.197811</ele>
        <time>2022-04-26T09:34:00.497Z</time>
      </trkpt>
      <trkpt lat="41.58028" lon="20.6224">
        <ele>690.106392</ele>
        <time>2022-04-26T09:34:01.488Z</time>
      </trkpt>
      <trkpt lat="41.58025" lon="20.62228">
        <ele>690.018656</ele>
        <time>2022-04-26T09:34:02.477Z</time>
      </trkpt>
      <trkpt lat="41.58023" lon="20.62216">
        <ele>689.932304</ele>
        <time>2022-04-26T09:34:03.486Z</time>
      </trkpt>
      <trkpt lat="41.58021" lon="20.62205">
        <ele>689.845504</ele>
        <time>2022-04-26T09:34:04.462Z</time>
      </trkpt>
      <trkpt lat="41.58017" lon="20.62183">
        <ele>689.370573</ele>
        <time>2022-04-26T09:34:06.463Z</time>
      </trkpt>
      <trkpt lat="41.58012" lon="20.62162">
        <ele>688.88504</ele>
        <time>2022-04-26T09:34:08.464Z</time>
      </trkpt>
      <trkpt lat="41.58008" lon="20.62142">
        <ele>688.397333</ele>
        <time>2022-04-26T09:34:10.479Z</time>
      </trkpt>
      <trkpt lat="41.58003" lon="20.62121">
        <ele>687.916794</ele>
        <time>2022-04-26T09:34:12.484Z</time>
      </trkpt>
      <trkpt lat="41.57997" lon="20.62102">
        <ele>687.444744</ele>
        <time>2022-04-26T09:34:14.486Z</time>
      </trkpt>
      <trkpt lat="41.5799" lon="20.62083">
        <ele>686.974094</ele>
        <time>2022-04-26T09:34:16.484Z</time>
      </trkpt>
      <trkpt lat="41.57986" lon="20.62062">
        <ele>686.476346</ele>
        <time>2022-04-26T09:34:18.484Z</time>
      </trkpt>
      <trkpt lat="41.57983" lon="20.62041">
        <ele>685.984075</ele>
        <time>2022-04-26T09:34:20.484Z</time>
      </trkpt>
      <trkpt lat="41.57984" lon="20.62018">
        <ele>685.463497</ele>
        <time>2022-04-26T09:34:22.492Z</time>
      </trkpt>
      <trkpt lat="41.57988" lon="20.61995">
        <ele>684.913186</ele>
        <time>2022-04-26T09:34:24.473Z</time>
      </trkpt>
      <trkpt lat="41.57991" lon="20.61983">
        <ele>684.635417</ele>
        <time>2022-04-26T09:34:25.492Z</time>
      </trkpt>
      <trkpt lat="41.57993" lon="20.61971">
        <ele>684.368189</ele>
        <time>2022-04-26T09:34:26.497Z</time>
      </trkpt>
      <trkpt lat="41.57998" lon="20.61949">
        <ele>684.148483</ele>
        <time>2022-04-26T09:34:28.521Z</time>
      </trkpt>
      <trkpt lat="41.58003" lon="20.61927">
        <ele>683.940356</ele>
        <time>2022-04-26T09:34:30.478Z</time>
      </trkpt>
      <trkpt lat="41.58005" lon="20.61906">
        <ele>683.741608</ele>
        <time>2022-04-26T09:34:32.472Z</time>
      </trkpt>
      <trkpt lat="41.58005" lon="20.61886">
        <ele>683.555798</ele>
        <time>2022-04-26T09:34:34.518Z</time>
      </trkpt>
      <trkpt lat="41.58004" lon="20.61868">
        <ele>683.381585</ele>
        <time>2022-04-26T09:34:36.495Z</time>
      </trkpt>
      <trkpt lat="41.58002" lon="20.61851">
        <ele>683.219421</ele>
        <time>2022-04-26T09:34:38.460Z</time>
      </trkpt>
      <trkpt lat="41.57999" lon="20.61835">
        <ele>683.071736</ele>
        <time>2022-04-26T09:34:40.501Z</time>
      </trkpt>
      <trkpt lat="41.57995" lon="20.61822">
        <ele>682.935591</ele>
        <time>2022-04-26T09:34:42.473Z</time>
      </trkpt>
      <trkpt lat="41.5799" lon="20.61811">
        <ele>682.814867</ele>
        <time>2022-04-26T09:34:44.458Z</time>
      </trkpt>
      <trkpt lat="41.57983" lon="20.61797">
        <ele>682.65635</ele>
        <time>2022-04-26T09:34:47.482Z</time>
      </trkpt>
      <trkpt lat="41.57978" lon="20.61786">
        <ele>682.533392</ele>
        <time>2022-04-26T09:34:49.489Z</time>
      </trkpt>
      <trkpt lat="41.57971" lon="20.61776">
        <ele>682.417075</ele>
        <time>2022-04-26T09:34:51.513Z</time>
      </trkpt>
      <trkpt lat="41.5796" lon="20.61766">
        <ele>682.246716</ele>
        <time>2022-04-26T09:34:54.481Z</time>
      </trkpt>
      <trkpt lat="41.57953" lon="20.61758">
        <ele>682.129354</ele>
        <time>2022-04-26T09:34:56.466Z</time>
      </trkpt>
      <trkpt lat="41.57942" lon="20.61749">
        <ele>682.437399</ele>
        <time>2022-04-26T09:34:59.487Z</time>
      </trkpt>
      <trkpt lat="41.57931" lon="20.61742">
        <ele>682.76165</ele>
        <time>2022-04-26T09:35:02.473Z</time>
      </trkpt>
      <trkpt lat="41.57919" lon="20.61737">
        <ele>683.084233</ele>
        <time>2022-04-26T09:35:05.473Z</time>
      </trkpt>
      <trkpt lat="41.57907" lon="20.61733">
        <ele>683.389689</ele>
        <time>2022-04-26T09:35:08.466Z</time>
      </trkpt>
      <trkpt lat="41.57896" lon="20.6173">
        <ele>683.687692</ele>
        <time>2022-04-26T09:35:11.462Z</time>
      </trkpt>
      <trkpt lat="41.57884" lon="20.61727">
        <ele>684.001577</ele>
        <time>2022-04-26T09:35:14.470Z</time>
      </trkpt>
      <trkpt lat="41.57871" lon="20.61724">
        <ele>684.325832</ele>
        <time>2022-04-26T09:35:17.485Z</time>
      </trkpt>
      <trkpt lat="41.57858" lon="20.61722">
        <ele>684.654626</ele>
        <time>2022-04-26T09:35:20.478Z</time>
      </trkpt>
      <trkpt lat="41.57849" lon="20.6172">
        <ele>684.901101</ele>
        <time>2022-04-26T09:35:22.466Z</time>
      </trkpt>
      <trkpt lat="41.57839" lon="20.61718">
        <ele>685.135755</ele>
        <time>2022-04-26T09:35:24.478Z</time>
      </trkpt>
      <trkpt lat="41.57827" lon="20.61716">
        <ele>685.455536</ele>
        <time>2022-04-26T09:35:27.496Z</time>
      </trkpt>
      <trkpt lat="41.57815" lon="20.61715">
        <ele>685.766942</ele>
        <time>2022-04-26T09:35:30.515Z</time>
      </trkpt>
      <trkpt lat="41.57802" lon="20.61716">
        <ele>686.103506</ele>
        <time>2022-04-26T09:35:33.460Z</time>
      </trkpt>
      <trkpt lat="41.57793" lon="20.61716">
        <ele>686.335475</ele>
        <time>2022-04-26T09:35:35.483Z</time>
      </trkpt>
      <trkpt lat="41.57779" lon="20.61717">
        <ele>686.674665</ele>
        <time>2022-04-26T09:35:38.459Z</time>
      </trkpt>
      <trkpt lat="41.57767" lon="20.61717">
        <ele>686.078</ele>
        <time>2022-04-26T09:35:41.463Z</time>
      </trkpt>
      <trkpt lat="41.57754" lon="20.61717">
        <ele>685.28938</ele>
        <time>2022-04-26T09:35:44.472Z</time>
      </trkpt>
      <trkpt lat="41.57742" lon="20.6172">
        <ele>684.523834</ele>
        <time>2022-04-26T09:35:47.498Z</time>
      </trkpt>
      <trkpt lat="41.57728" lon="20.61722">
        <ele>683.673561</ele>
        <time>2022-04-26T09:35:50.461Z</time>
      </trkpt>
      <trkpt lat="41.57718" lon="20.61724">
        <ele>683.084032</ele>
        <time>2022-04-26T09:35:52.476Z</time>
      </trkpt>
      <trkpt lat="41.57709" lon="20.61726">
        <ele>682.502018</ele>
        <time>2022-04-26T09:35:54.476Z</time>
      </trkpt>
      <trkpt lat="41.57699" lon="20.61729">
        <ele>681.929117</ele>
        <time>2022-04-26T09:35:56.510Z</time>
      </trkpt>
      <trkpt lat="41.5769" lon="20.61732">
        <ele>681.369857</ele>
        <time>2022-04-26T09:35:58.473Z</time>
      </trkpt>
      <trkpt lat="41.57681" lon="20.61734">
        <ele>680.823293</ele>
        <time>2022-04-26T09:36:00.470Z</time>
      </trkpt>
      <trkpt lat="41.57669" lon="20.61737">
        <ele>680.055386</ele>
        <time>2022-04-26T09:36:03.458Z</time>
      </trkpt>
      <trkpt lat="41.57657" lon="20.61741">
        <ele>679.322555</ele>
        <time>2022-04-26T09:36:06.494Z</time>
      </trkpt>
      <trkpt lat="41.57646" lon="20.61746">
        <ele>678.60949</ele>
        <time>2022-04-26T09:36:09.469Z</time>
      </trkpt>
      <trkpt lat="41.57633" lon="20.61749">
        <ele>677.844162</ele>
        <time>2022-04-26T09:36:12.481Z</time>
      </trkpt>
      <trkpt lat="41.5762" lon="20.61753">
        <ele>677.043084</ele>
        <time>2022-04-26T09:36:15.482Z</time>
      </trkpt>
      <trkpt lat="41.57608" lon="20.61755">
        <ele>676.300746</ele>
        <time>2022-04-26T09:36:18.495Z</time>
      </trkpt>
      <trkpt lat="41.57595" lon="20.61757">
        <ele>675.939214</ele>
        <time>2022-04-26T09:36:21.482Z</time>
      </trkpt>
      <trkpt lat="41.57583" lon="20.61758">
        <ele>676.049904</ele>
        <time>2022-04-26T09:36:24.486Z</time>
      </trkpt>
      <trkpt lat="41.57571" lon="20.61759">
        <ele>676.16483</ele>
        <time>2022-04-26T09:36:27.504Z</time>
      </trkpt>
      <trkpt lat="41.5756" lon="20.6176">
        <ele>676.268417</ele>
        <time>2022-04-26T09:36:30.494Z</time>
      </trkpt>
      <trkpt lat="41.57549" lon="20.6176">
        <ele>676.368269</ele>
        <time>2022-04-26T09:36:33.478Z</time>
      </trkpt>
      <trkpt lat="41.57539" lon="20.6176">
        <ele>676.461443</ele>
        <time>2022-04-26T09:36:36.485Z</time>
      </trkpt>
      <trkpt lat="41.5753" lon="20.61758">
        <ele>676.552583</ele>
        <time>2022-04-26T09:36:39.482Z</time>
      </trkpt>
      <trkpt lat="41.57519" lon="20.61754">
        <ele>676.654833</ele>
        <time>2022-04-26T09:36:43.493Z</time>
      </trkpt>
      <trkpt lat="41.57508" lon="20.61749">
        <ele>676.763994</ele>
        <time>2022-04-26T09:36:47.483Z</time>
      </trkpt>
      <trkpt lat="41.57499" lon="20.61744">
        <ele>676.854933</ele>
        <time>2022-04-26T09:36:50.461Z</time>
      </trkpt>
      <trkpt lat="41.57491" lon="20.6174">
        <ele>676.942411</ele>
        <time>2022-04-26T09:36:53.478Z</time>
      </trkpt>
      <trkpt lat="41.5748" lon="20.61735">
        <ele>677.048043</ele>
        <time>2022-04-26T09:36:57.467Z</time>
      </trkpt>
      <trkpt lat="41.57472" lon="20.6173">
        <ele>677.13573</ele>
        <time>2022-04-26T09:37:00.480Z</time>
      </trkpt>
      <trkpt lat="41.57463" lon="20.61725">
        <ele>677.227731</ele>
        <time>2022-04-26T09:37:03.467Z</time>
      </trkpt>
      <trkpt lat="41.57454" lon="20.6172">
        <ele>677.312641</ele>
        <time>2022-04-26T09:37:06.514Z</time>
      </trkpt>
      <trkpt lat="41.57444" lon="20.61714">
        <ele>677.42182</ele>
        <time>2022-04-26T09:37:10.500Z</time>
      </trkpt>
      <trkpt lat="41.57433" lon="20.61709">
        <ele>677.528269</ele>
        <time>2022-04-26T09:37:14.505Z</time>
      </trkpt>
      <trkpt lat="41.57424" lon="20.61706">
        <ele>677.58089</ele>
        <time>2022-04-26T09:37:17.561Z</time>
      </trkpt>
      <trkpt lat="41.57413" lon="20.61702">
        <ele>677.598805</ele>
        <time>2022-04-26T09:37:21.478Z</time>
      </trkpt>
      <trkpt lat="41.57404" lon="20.61698">
        <ele>677.613576</ele>
        <time>2022-04-26T09:37:24.490Z</time>
      </trkpt>
      <trkpt lat="41.57393" lon="20.61694">
        <ele>677.631459</ele>
        <time>2022-04-26T09:37:28.519Z</time>
      </trkpt>
      <trkpt lat="41.57382" lon="20.61691">
        <ele>677.649048</ele>
        <time>2022-04-26T09:37:32.478Z</time>
      </trkpt>
      <trkpt lat="41.5737" lon="20.6169">
        <ele>677.666978</ele>
        <time>2022-04-26T09:37:36.469Z</time>
      </trkpt>
      <trkpt lat="41.5736" lon="20.61689">
        <ele>677.68411</ele>
        <time>2022-04-26T09:37:40.480Z</time>
      </trkpt>
      <trkpt lat="41.57349" lon="20.61688">
        <ele>677.700006</ele>
        <time>2022-04-26T09:37:44.483Z</time>
      </trkpt>
      <trkpt lat="41.57338" lon="20.61691">
        <ele>677.718231</ele>
        <time>2022-04-26T09:37:48.484Z</time>
      </trkpt>
      <trkpt lat="41.57327" lon="20.61694">
        <ele>677.736401</ele>
        <time>2022-04-26T09:37:51.481Z</time>
      </trkpt>
      <trkpt lat="41.57313" lon="20.61698">
        <ele>677.75789</ele>
        <time>2022-04-26T09:37:54.484Z</time>
      </trkpt>
      <trkpt lat="41.57303" lon="20.61701">
        <ele>677.774743</ele>
        <time>2022-04-26T09:37:56.515Z</time>
      </trkpt>
      <trkpt lat="41.57291" lon="20.61705">
        <ele>677.793272</ele>
        <time>2022-04-26T09:37:58.474Z</time>
      </trkpt>
      <trkpt lat="41.57279" lon="20.61709">
        <ele>677.813064</ele>
        <time>2022-04-26T09:38:00.477Z</time>
      </trkpt>
      <trkpt lat="41.57268" lon="20.61714">
        <ele>677.831895</ele>
        <time>2022-04-26T09:38:02.484Z</time>
      </trkpt>
      <trkpt lat="41.57256" lon="20.61717">
        <ele>677.85055</ele>
        <time>2022-04-26T09:38:04.492Z</time>
      </trkpt>
      <trkpt lat="41.57243" lon="20.61721">
        <ele>677.646382</ele>
        <time>2022-04-26T09:38:06.493Z</time>
      </trkpt>
      <trkpt lat="41.57229" lon="20.61726">
        <ele>677.370413</ele>
        <time>2022-04-26T09:38:08.486Z</time>
      </trkpt>
      <trkpt lat="41.57217" lon="20.6173">
        <ele>677.109335</ele>
        <time>2022-04-26T09:38:10.495Z</time>
      </trkpt>
      <trkpt lat="41.57205" lon="20.61733">
        <ele>676.869073</ele>
        <time>2022-04-26T09:38:12.498Z</time>
      </trkpt>
      <trkpt lat="41.57194" lon="20.61736">
        <ele>676.640429</ele>
        <time>2022-04-26T09:38:14.475Z</time>
      </trkpt>
      <trkpt lat="41.57184" lon="20.61738">
        <ele>676.429016</ele>
        <time>2022-04-26T09:38:16.462Z</time>
      </trkpt>
      <trkpt lat="41.57174" lon="20.6174">
        <ele>676.216645</ele>
        <time>2022-04-26T09:38:18.508Z</time>
      </trkpt>
      <trkpt lat="41.57162" lon="20.61745">
        <ele>675.973869</ele>
        <time>2022-04-26T09:38:21.483Z</time>
      </trkpt>
      <trkpt lat="41.57152" lon="20.61749">
        <ele>675.758787</ele>
        <time>2022-04-26T09:38:24.519Z</time>
      </trkpt>
      <trkpt lat="41.57142" lon="20.61752">
        <ele>675.552923</ele>
        <time>2022-04-26T09:38:27.492Z</time>
      </trkpt>
      <trkpt lat="41.57133" lon="20.61753">
        <ele>675.357211</ele>
        <time>2022-04-26T09:38:30.485Z</time>
      </trkpt>
      <trkpt lat="41.57122" lon="20.61751">
        <ele>675.134305</ele>
        <time>2022-04-26T09:38:33.473Z</time>
      </trkpt>
      <trkpt lat="41.57111" lon="20.61746">
        <ele>674.890876</ele>
        <time>2022-04-26T09:38:36.496Z</time>
      </trkpt>
      <trkpt lat="41.57099" lon="20.61739">
        <ele>674.642181</ele>
        <time>2022-04-26T09:38:39.490Z</time>
      </trkpt>
      <trkpt lat="41.57087" lon="20.61734">
        <ele>674.377585</ele>
        <time>2022-04-26T09:38:42.490Z</time>
      </trkpt>
      <trkpt lat="41.57078" lon="20.6173">
        <ele>674.236271</ele>
        <time>2022-04-26T09:38:44.490Z</time>
      </trkpt>
      <trkpt lat="41.57068" lon="20.61726">
        <ele>674.528497</ele>
        <time>2022-04-26T09:38:46.505Z</time>
      </trkpt>
      <trkpt lat="41.57058" lon="20.61723">
        <ele>674.824248</ele>
        <time>2022-04-26T09:38:48.495Z</time>
      </trkpt>
      <trkpt lat="41.57047" lon="20.6172">
        <ele>675.151983</ele>
        <time>2022-04-26T09:38:50.492Z</time>
      </trkpt>
      <trkpt lat="41.57035" lon="20.61716">
        <ele>675.511807</ele>
        <time>2022-04-26T09:38:52.508Z</time>
      </trkpt>
      <trkpt lat="41.57024" lon="20.61712">
        <ele>675.848308</ele>
        <time>2022-04-26T09:38:54.474Z</time>
      </trkpt>
      <trkpt lat="41.57013" lon="20.61708">
        <ele>676.204921</ele>
        <time>2022-04-26T09:38:56.465Z</time>
      </trkpt>
      <trkpt lat="41.57" lon="20.61702">
        <ele>676.593506</ele>
        <time>2022-04-26T09:38:58.487Z</time>
      </trkpt>
      <trkpt lat="41.56987" lon="20.61696">
        <ele>677.008524</ele>
        <time>2022-04-26T09:39:00.477Z</time>
      </trkpt>
      <trkpt lat="41.56974" lon="20.6169">
        <ele>677.397832</ele>
        <time>2022-04-26T09:39:02.479Z</time>
      </trkpt>
      <trkpt lat="41.56962" lon="20.61684">
        <ele>677.76782</ele>
        <time>2022-04-26T09:39:04.482Z</time>
      </trkpt>
      <trkpt lat="41.56951" lon="20.6168">
        <ele>678.128794</ele>
        <time>2022-04-26T09:39:06.477Z</time>
      </trkpt>
      <trkpt lat="41.56939" lon="20.61676">
        <ele>678.478028</ele>
        <time>2022-04-26T09:39:08.482Z</time>
      </trkpt>
      <trkpt lat="41.56928" lon="20.61675">
        <ele>678.805455</ele>
        <time>2022-04-26T09:39:10.500Z</time>
      </trkpt>
      <trkpt lat="41.56918" lon="20.61675">
        <ele>679.099137</ele>
        <time>2022-04-26T09:39:12.476Z</time>
      </trkpt>
      <trkpt lat="41.56909" lon="20.61675">
        <ele>679.363773</ele>
        <time>2022-04-26T09:39:14.476Z</time>
      </trkpt>
      <trkpt lat="41.56897" lon="20.61677">
        <ele>679.287765</ele>
        <time>2022-04-26T09:39:17.495Z</time>
      </trkpt>
      <trkpt lat="41.56888" lon="20.61681">
        <ele>679.032603</ele>
        <time>2022-04-26T09:39:20.514Z</time>
      </trkpt>
      <trkpt lat="41.56878" lon="20.61685">
        <ele>678.76393</ele>
        <time>2022-04-26T09:39:23.474Z</time>
      </trkpt>
      <trkpt lat="41.56869" lon="20.6169">
        <ele>678.496005</ele>
        <time>2022-04-26T09:39:26.513Z</time>
      </trkpt>
      <trkpt lat="41.5686" lon="20.61694">
        <ele>678.234249</ele>
        <time>2022-04-26T09:39:29.490Z</time>
      </trkpt>
      <trkpt lat="41.56849" lon="20.617">
        <ele>677.929254</ele>
        <time>2022-04-26T09:39:32.516Z</time>
      </trkpt>
      <trkpt lat="41.56838" lon="20.61706">
        <ele>677.626048</ele>
        <time>2022-04-26T09:39:35.503Z</time>
      </trkpt>
      <trkpt lat="41.5683" lon="20.61713">
        <ele>677.364748</ele>
        <time>2022-04-26T09:39:38.479Z</time>
      </trkpt>
      <trkpt lat="41.56823" lon="20.61721">
        <ele>677.117581</ele>
        <time>2022-04-26T09:39:41.494Z</time>
      </trkpt>
      <trkpt lat="41.56815" lon="20.61729">
        <ele>676.867461</ele>
        <time>2022-04-26T09:39:44.478Z</time>
      </trkpt>
      <trkpt lat="41.56809" lon="20.61739">
        <ele>676.596868</ele>
        <time>2022-04-26T09:39:48.494Z</time>
      </trkpt>
      <trkpt lat="41.56803" lon="20.61751">
        <ele>676.322428</ele>
        <time>2022-04-26T09:39:52.458Z</time>
      </trkpt>
      <trkpt lat="41.56798" lon="20.61761">
        <ele>676.083497</ele>
        <time>2022-04-26T09:39:56.505Z</time>
      </trkpt>
      <trkpt lat="41.56791" lon="20.61773">
        <ele>675.792316</ele>
        <time>2022-04-26T09:40:01.462Z</time>
      </trkpt>
      <trkpt lat="41.56785" lon="20.61784">
        <ele>675.50753</ele>
        <time>2022-04-26T09:40:06.480Z</time>
      </trkpt>
      <trkpt lat="41.56778" lon="20.61793">
        <ele>675.261099</ele>
        <time>2022-04-26T09:40:10.461Z</time>
      </trkpt>
      <trkpt lat="41.56771" lon="20.61804">
        <ele>674.969576</ele>
        <time>2022-04-26T09:40:15.516Z</time>
      </trkpt>
      <trkpt lat="41.56764" lon="20.61814">
        <ele>674.784104</ele>
        <time>2022-04-26T09:40:20.475Z</time>
      </trkpt>
      <trkpt lat="41.56757" lon="20.61824">
        <ele>675.216194</ele>
        <time>2022-04-26T09:40:26.490Z</time>
      </trkpt>
      <trkpt lat="41.56751" lon="20.61834">
        <ele>675.583742</ele>
        <time>2022-04-26T09:40:31.481Z</time>
      </trkpt>
      <trkpt lat="41.56746" lon="20.61845">
        <ele>675.997936</ele>
        <time>2022-04-26T09:40:37.461Z</time>
      </trkpt>
      <trkpt lat="41.56742" lon="20.61858">
        <ele>676.422666</ele>
        <time>2022-04-26T09:40:42.478Z</time>
      </trkpt>
      <trkpt lat="41.56739" lon="20.6187">
        <ele>676.808101</ele>
        <time>2022-04-26T09:40:47.478Z</time>
      </trkpt>
      <trkpt lat="41.56736" lon="20.61882">
        <ele>677.189679</ele>
        <time>2022-04-26T09:40:52.476Z</time>
      </trkpt>
      <trkpt lat="41.56734" lon="20.61896">
        <ele>677.624194</ele>
        <time>2022-04-26T09:40:58.478Z</time>
      </trkpt>
      <trkpt lat="41.56732" lon="20.6191">
        <ele>678.05641</ele>
        <time>2022-04-26T09:41:03.473Z</time>
      </trkpt>
      <trkpt lat="41.56731" lon="20.61922">
        <ele>678.427973</ele>
        <time>2022-04-26T09:41:08.473Z</time>
      </trkpt>
      <trkpt lat="41.56731" lon="20.61934">
        <ele>678.804299</ele>
        <time>2022-04-26T09:41:13.496Z</time>
      </trkpt>
      <trkpt lat="41.56729" lon="20.61948">
        <ele>679.245546</ele>
        <time>2022-04-26T09:41:19.476Z</time>
      </trkpt>
      <trkpt lat="41.56728" lon="20.6196">
        <ele>679.618388</ele>
        <time>2022-04-26T09:41:24.482Z</time>
      </trkpt>
      <trkpt lat="41.56727" lon="20.61972">
        <ele>679.988194</ele>
        <time>2022-04-26T09:41:29.542Z</time>
      </trkpt>
      <trkpt lat="41.56728" lon="20.61985">
        <ele>680.361932</ele>
        <time>2022-04-26T09:41:34.493Z</time>
      </trkpt>
      <trkpt lat="41.56726" lon="20.61997">
        <ele>680.7546</ele>
        <time>2022-04-26T09:41:40.511Z</time>
      </trkpt>
      <trkpt lat="41.56719" lon="20.62007">
        <ele>681.16344</ele>
        <time>2022-04-26T09:41:46.471Z</time>
      </trkpt>
      <trkpt lat="41.56711" lon="20.62014">
        <ele>681.575108</ele>
        <time>2022-04-26T09:41:52.480Z</time>
      </trkpt>
      <trkpt lat="41.567" lon="20.62018">
        <ele>682.038117</ele>
        <time>2022-04-26T09:41:57.474Z</time>
      </trkpt>
      <trkpt lat="41.56689" lon="20.6202">
        <ele>682.551104</ele>
        <time>2022-04-26T09:42:02.493Z</time>
      </trkpt>
      <trkpt lat="41.56679" lon="20.62022">
        <ele>683.006645</ele>
        <time>2022-04-26T09:42:06.467Z</time>
      </trkpt>
      <trkpt lat="41.56669" lon="20.62023">
        <ele>683.424839</ele>
        <time>2022-04-26T09:42:10.472Z</time>
      </trkpt>
      <trkpt lat="41.56658" lon="20.62024">
        <ele>683.922432</ele>
        <time>2022-04-26T09:42:15.478Z</time>
      </trkpt>
      <trkpt lat="41.56649" lon="20.62028">
        <ele>684.36714</ele>
        <time>2022-04-26T09:42:20.489Z</time>
      </trkpt>
      <trkpt lat="41.56639" lon="20.62031">
        <ele>684.815402</ele>
        <time>2022-04-26T09:42:25.478Z</time>
      </trkpt>
      <trkpt lat="41.56629" lon="20.62031">
        <ele>685.2866</ele>
        <time>2022-04-26T09:42:30.476Z</time>
      </trkpt>
      <trkpt lat="41.56619" lon="20.62029">
        <ele>685.729832</ele>
        <time>2022-04-26T09:42:36.482Z</time>
      </trkpt>
      <trkpt lat="41.56609" lon="20.62027">
        <ele>686.178481</ele>
        <time>2022-04-26T09:42:42.483Z</time>
      </trkpt>
      <trkpt lat="41.56599" lon="20.62025">
        <ele>686.653176</ele>
        <time>2022-04-26T09:42:47.489Z</time>
      </trkpt>
      <trkpt lat="41.56589" lon="20.62024">
        <ele>687.112024</ele>
        <time>2022-04-26T09:42:53.474Z</time>
      </trkpt>
      <trkpt lat="41.56579" lon="20.62026">
        <ele>687.58632</ele>
        <time>2022-04-26T09:42:59.478Z</time>
      </trkpt>
      <trkpt lat="41.56569" lon="20.62027">
        <ele>688.030955</ele>
        <time>2022-04-26T09:43:04.477Z</time>
      </trkpt>
      <trkpt lat="41.56558" lon="20.62027">
        <ele>688.529335</ele>
        <time>2022-04-26T09:43:09.492Z</time>
      </trkpt>
      <trkpt lat="41.56548" lon="20.62026">
        <ele>688.987543</ele>
        <time>2022-04-26T09:43:13.469Z</time>
      </trkpt>
      <trkpt lat="41.56539" lon="20.62024">
        <ele>689.395145</ele>
        <time>2022-04-26T09:43:17.470Z</time>
      </trkpt>
      <trkpt lat="41.5653" lon="20.62019">
        <ele>689.820291</ele>
        <time>2022-04-26T09:43:21.480Z</time>
      </trkpt>
      <trkpt lat="41.5652" lon="20.62013">
        <ele>690.217512</ele>
        <time>2022-04-26T09:43:25.496Z</time>
      </trkpt>
      <trkpt lat="41.5651" lon="20.62006">
        <ele>690.086321</ele>
        <time>2022-04-26T09:43:29.485Z</time>
      </trkpt>
      <trkpt lat="41.56501" lon="20.61998">
        <ele>689.959439</ele>
        <time>2022-04-26T09:43:33.484Z</time>
      </trkpt>
      <trkpt lat="41.56491" lon="20.61991">
        <ele>689.829203</ele>
        <time>2022-04-26T09:43:37.497Z</time>
      </trkpt>
      <trkpt lat="41.56481" lon="20.61983">
        <ele>689.69573</ele>
        <time>2022-04-26T09:43:41.514Z</time>
      </trkpt>
      <trkpt lat="41.56471" lon="20.61976">
        <ele>689.564333</ele>
        <time>2022-04-26T09:43:45.493Z</time>
      </trkpt>
      <trkpt lat="41.56462" lon="20.61968">
        <ele>689.433107</ele>
        <time>2022-04-26T09:43:49.478Z</time>
      </trkpt>
      <trkpt lat="41.56452" lon="20.6196">
        <ele>689.295099</ele>
        <time>2022-04-26T09:43:53.521Z</time>
      </trkpt>
      <trkpt lat="41.56444" lon="20.61953">
        <ele>689.188042</ele>
        <time>2022-04-26T09:43:56.488Z</time>
      </trkpt>
      <trkpt lat="41.56436" lon="20.61944">
        <ele>689.062728</ele>
        <time>2022-04-26T09:43:59.491Z</time>
      </trkpt>
      <trkpt lat="41.56428" lon="20.61934">
        <ele>688.938108</ele>
        <time>2022-04-26T09:44:02.480Z</time>
      </trkpt>
      <trkpt lat="41.5642" lon="20.61926">
        <ele>688.818772</ele>
        <time>2022-04-26T09:44:05.508Z</time>
      </trkpt>
      <trkpt lat="41.5641" lon="20.61917">
        <ele>688.687136</ele>
        <time>2022-04-26T09:44:08.479Z</time>
      </trkpt>
      <trkpt lat="41.564" lon="20.61908">
        <ele>688.544373</ele>
        <time>2022-04-26T09:44:11.480Z</time>
      </trkpt>
      <trkpt lat="41.56389" lon="20.61898">
        <ele>688.388519</ele>
        <time>2022-04-26T09:44:14.494Z</time>
      </trkpt>
      <trkpt lat="41.56381" lon="20.61892">
        <ele>688.281438</ele>
        <time>2022-04-26T09:44:16.511Z</time>
      </trkpt>
      <trkpt lat="41.5637" lon="20.61885">
        <ele>688.14407</ele>
        <time>2022-04-26T09:44:19.490Z</time>
      </trkpt>
      <trkpt lat="41.56359" lon="20.61879">
        <ele>688.167724</ele>
        <time>2022-04-26T09:44:22.491Z</time>
      </trkpt>
      <trkpt lat="41.56348" lon="20.61872">
        <ele>688.191948</ele>
        <time>2022-04-26T09:44:25.509Z</time>
      </trkpt>
      <trkpt lat="41.56338" lon="20.61868">
        <ele>688.210559</ele>
        <time>2022-04-26T09:44:27.483Z</time>
      </trkpt>
      <trkpt lat="41.56329" lon="20.61865">
        <ele>688.228919</ele>
        <time>2022-04-26T09:44:29.475Z</time>
      </trkpt>
      <trkpt lat="41.56317" lon="20.61859">
        <ele>688.254445</ele>
        <time>2022-04-26T09:44:32.474Z</time>
      </trkpt>
      <trkpt lat="41.56306" lon="20.61855">
        <ele>688.277105</ele>
        <time>2022-04-26T09:44:35.511Z</time>
      </trkpt>
      <trkpt lat="41.56294" lon="20.6185">
        <ele>688.300824</ele>
        <time>2022-04-26T09:44:38.492Z</time>
      </trkpt>
      <trkpt lat="41.56285" lon="20.61845">
        <ele>688.320369</ele>
        <time>2022-04-26T09:44:40.473Z</time>
      </trkpt>
      <trkpt lat="41.56274" lon="20.61839">
        <ele>688.343686</ele>
        <time>2022-04-26T09:44:42.494Z</time>
      </trkpt>
      <trkpt lat="41.56264" lon="20.61832">
        <ele>688.365563</ele>
        <time>2022-04-26T09:44:44.472Z</time>
      </trkpt>
      <trkpt lat="41.56255" lon="20.61826">
        <ele>688.385338</ele>
        <time>2022-04-26T09:44:46.485Z</time>
      </trkpt>
      <trkpt lat="41.56246" lon="20.61819">
        <ele>688.405044</ele>
        <time>2022-04-26T09:44:48.469Z</time>
      </trkpt>
      <trkpt lat="41.56237" lon="20.61813">
        <ele>688.42455</ele>
        <time>2022-04-26T09:44:50.469Z</time>
      </trkpt>
      <trkpt lat="41.56227" lon="20.61807">
        <ele>688.445344</ele>
        <time>2022-04-26T09:44:52.473Z</time>
      </trkpt>
      <trkpt lat="41.56217" lon="20.61803">
        <ele>688.467305</ele>
        <time>2022-04-26T09:44:54.479Z</time>
      </trkpt>
      <trkpt lat="41.56207" lon="20.61797">
        <ele>688.488227</ele>
        <time>2022-04-26T09:44:56.484Z</time>
      </trkpt>
      <trkpt lat="41.56197" lon="20.61792">
        <ele>688.367325</ele>
        <time>2022-04-26T09:44:58.524Z</time>
      </trkpt>
      <trkpt lat="41.56188" lon="20.61785">
        <ele>688.192061</ele>
        <time>2022-04-26T09:45:00.491Z</time>
      </trkpt>
      <trkpt lat="41.5618" lon="20.61778">
        <ele>688.028446</ele>
        <time>2022-04-26T09:45:02.485Z</time>
      </trkpt>
      <trkpt lat="41.56171" lon="20.61772">
        <ele>687.853776</ele>
        <time>2022-04-26T09:45:04.491Z</time>
      </trkpt>
      <trkpt lat="41.56161" lon="20.61765">
        <ele>687.665531</ele>
        <time>2022-04-26T09:45:06.495Z</time>
      </trkpt>
      <trkpt lat="41.56151" lon="20.61757">
        <ele>687.460886</ele>
        <time>2022-04-26T09:45:08.485Z</time>
      </trkpt>
      <trkpt lat="41.56139" lon="20.61748">
        <ele>687.240355</ele>
        <time>2022-04-26T09:45:10.482Z</time>
      </trkpt>
      <trkpt lat="41.56127" lon="20.61737">
        <ele>686.980489</ele>
        <time>2022-04-26T09:45:12.483Z</time>
      </trkpt>
      <trkpt lat="41.56114" lon="20.61725">
        <ele>686.71482</ele>
        <time>2022-04-26T09:45:14.494Z</time>
      </trkpt>
      <trkpt lat="41.56102" lon="20.61713">
        <ele>686.46335</ele>
        <time>2022-04-26T09:45:16.465Z</time>
      </trkpt>
      <trkpt lat="41.56087" lon="20.61705">
        <ele>686.194344</ele>
        <time>2022-04-26T09:45:18.488Z</time>
      </trkpt>
      <trkpt lat="41.56071" lon="20.61701">
        <ele>685.914039</ele>
        <time>2022-04-26T09:45:20.508Z</time>
      </trkpt>
      <trkpt lat="41.56055" lon="20.61702">
        <ele>685.640374</ele>
        <time>2022-04-26T09:45:22.485Z</time>
      </trkpt>
      <trkpt lat="41.56041" lon="20.61703">
        <ele>685.389103</ele>
        <time>2022-04-26T09:45:24.493Z</time>
      </trkpt>
      <trkpt lat="41.56027" lon="20.61703">
        <ele>685.061401</ele>
        <time>2022-04-26T09:45:26.491Z</time>
      </trkpt>
      <trkpt lat="41.56013" lon="20.61701">
        <ele>684.706935</ele>
        <time>2022-04-26T09:45:28.504Z</time>
      </trkpt>
      <trkpt lat="41.55998" lon="20.61695">
        <ele>684.343472</ele>
        <time>2022-04-26T09:45:30.479Z</time>
      </trkpt>
      <trkpt lat="41.55983" lon="20.61687">
        <ele>683.964371</ele>
        <time>2022-04-26T09:45:32.518Z</time>
      </trkpt>
      <trkpt lat="41.5597" lon="20.61678">
        <ele>683.612485</ele>
        <time>2022-04-26T09:45:34.491Z</time>
      </trkpt>
      <trkpt lat="41.55957" lon="20.61671">
        <ele>683.279003</ele>
        <time>2022-04-26T09:45:36.458Z</time>
      </trkpt>
      <trkpt lat="41.55943" lon="20.61668">
        <ele>682.939682</ele>
        <time>2022-04-26T09:45:38.518Z</time>
      </trkpt>
      <trkpt lat="41.55927" lon="20.61667">
        <ele>682.566525</ele>
        <time>2022-04-26T09:45:40.461Z</time>
      </trkpt>
      <trkpt lat="41.55912" lon="20.61669">
        <ele>682.204994</ele>
        <time>2022-04-26T09:45:42.517Z</time>
      </trkpt>
      <trkpt lat="41.55897" lon="20.61672">
        <ele>681.840879</ele>
        <time>2022-04-26T09:45:44.512Z</time>
      </trkpt>
      <trkpt lat="41.55882" lon="20.61674">
        <ele>681.480556</ele>
        <time>2022-04-26T09:45:46.490Z</time>
      </trkpt>
      <trkpt lat="41.55866" lon="20.61676">
        <ele>681.037712</ele>
        <time>2022-04-26T09:45:48.479Z</time>
      </trkpt>
      <trkpt lat="41.55851" lon="20.61679">
        <ele>680.167077</ele>
        <time>2022-04-26T09:45:50.554Z</time>
      </trkpt>
      <trkpt lat="41.55835" lon="20.61682">
        <ele>679.29166</ele>
        <time>2022-04-26T09:45:52.477Z</time>
      </trkpt>
      <trkpt lat="41.5582" lon="20.61686">
        <ele>678.423577</ele>
        <time>2022-04-26T09:45:54.478Z</time>
      </trkpt>
      <trkpt lat="41.55805" lon="20.61691">
        <ele>677.571289</ele>
        <time>2022-04-26T09:45:56.468Z</time>
      </trkpt>
      <trkpt lat="41.5579" lon="20.61695">
        <ele>676.714493</ele>
        <time>2022-04-26T09:45:58.478Z</time>
      </trkpt>
      <trkpt lat="41.55775" lon="20.617">
        <ele>675.855831</ele>
        <time>2022-04-26T09:46:00.510Z</time>
      </trkpt>
      <trkpt lat="41.5576" lon="20.61705">
        <ele>675.01584</ele>
        <time>2022-04-26T09:46:02.472Z</time>
      </trkpt>
      <trkpt lat="41.55747" lon="20.61711">
        <ele>674.218593</ele>
        <time>2022-04-26T09:46:04.473Z</time>
      </trkpt>
      <trkpt lat="41.55736" lon="20.61715">
        <ele>673.571391</ele>
        <time>2022-04-26T09:46:06.491Z</time>
      </trkpt>
      <trkpt lat="41.55726" lon="20.61718">
        <ele>673.045521</ele>
        <time>2022-04-26T09:46:08.493Z</time>
      </trkpt>
      <trkpt lat="41.55714" lon="20.6172">
        <ele>672.355628</ele>
        <time>2022-04-26T09:46:11.486Z</time>
      </trkpt>
      <trkpt lat="41.55702" lon="20.61722">
        <ele>671.648459</ele>
        <time>2022-04-26T09:46:14.484Z</time>
      </trkpt>
      <trkpt lat="41.55692" lon="20.61723">
        <ele>671.109765</ele>
        <time>2022-04-26T09:46:16.475Z</time>
      </trkpt>
      <trkpt lat="41.5568" lon="20.61725">
        <ele>670.237412</ele>
        <time>2022-04-26T09:46:18.514Z</time>
      </trkpt>
      <trkpt lat="41.55667" lon="20.61726">
        <ele>669.267783</ele>
        <time>2022-04-26T09:46:20.471Z</time>
      </trkpt>
      <trkpt lat="41.55653" lon="20.61728">
        <ele>668.23776</ele>
        <time>2022-04-26T09:46:22.487Z</time>
      </trkpt>
      <trkpt lat="41.55638" lon="20.6173">
        <ele>667.136774</ele>
        <time>2022-04-26T09:46:24.474Z</time>
      </trkpt>
      <trkpt lat="41.55622" lon="20.61733">
        <ele>665.949113</ele>
        <time>2022-04-26T09:46:26.479Z</time>
      </trkpt>
      <trkpt lat="41.55605" lon="20.61734">
        <ele>664.710928</ele>
        <time>2022-04-26T09:46:28.482Z</time>
      </trkpt>
      <trkpt lat="41.55595" lon="20.61733">
        <ele>664.039474</ele>
        <time>2022-04-26T09:46:29.474Z</time>
      </trkpt>
      <trkpt lat="41.55585" lon="20.61731">
        <ele>663.310672</ele>
        <time>2022-04-26T09:46:30.504Z</time>
      </trkpt>
      <trkpt lat="41.55576" lon="20.61727">
        <ele>662.583413</ele>
        <time>2022-04-26T09:46:31.468Z</time>
      </trkpt>
      <trkpt lat="41.55566" lon="20.61722">
        <ele>661.818675</ele>
        <time>2022-04-26T09:46:32.483Z</time>
      </trkpt>
      <trkpt lat="41.55556" lon="20.61717">
        <ele>661.022996</ele>
        <time>2022-04-26T09:46:33.487Z</time>
      </trkpt>
      <trkpt lat="41.55547" lon="20.61708">
        <ele>660.202907</ele>
        <time>2022-04-26T09:46:34.491Z</time>
      </trkpt>
      <trkpt lat="41.55538" lon="20.61699">
        <ele>659.373787</ele>
        <time>2022-04-26T09:46:35.543Z</time>
      </trkpt>
      <trkpt lat="41.5553" lon="20.61688">
        <ele>658.55513</ele>
        <time>2022-04-26T09:46:36.475Z</time>
      </trkpt>
      <trkpt lat="41.55523" lon="20.61676">
        <ele>657.901466</ele>
        <time>2022-04-26T09:46:37.476Z</time>
      </trkpt>
      <trkpt lat="41.55517" lon="20.61665">
        <ele>657.518649</ele>
        <time>2022-04-26T09:46:38.479Z</time>
      </trkpt>
      <trkpt lat="41.55511" lon="20.61655">
        <ele>657.156203</ele>
        <time>2022-04-26T09:46:39.482Z</time>
      </trkpt>
      <trkpt lat="41.55505" lon="20.61646">
        <ele>656.806665</ele>
        <time>2022-04-26T09:46:40.480Z</time>
      </trkpt>
      <trkpt lat="41.55499" lon="20.61637">
        <ele>656.465292</ele>
        <time>2022-04-26T09:46:41.490Z</time>
      </trkpt>
      <trkpt lat="41.55483" lon="20.61627">
        <ele>655.803846</ele>
        <time>2022-04-26T09:46:43.459Z</time>
      </trkpt>
      <trkpt lat="41.55467" lon="20.61621">
        <ele>655.182138</ele>
        <time>2022-04-26T09:46:45.473Z</time>
      </trkpt>
      <trkpt lat="41.55451" lon="20.61622">
        <ele>654.592057</ele>
        <time>2022-04-26T09:46:47.506Z</time>
      </trkpt>
      <trkpt lat="41.55436" lon="20.61627">
        <ele>653.993825</ele>
        <time>2022-04-26T09:46:49.486Z</time>
      </trkpt>
      <trkpt lat="41.55421" lon="20.61637">
        <ele>653.367913</ele>
        <time>2022-04-26T09:46:51.484Z</time>
      </trkpt>
      <trkpt lat="41.55406" lon="20.61644">
        <ele>652.770642</ele>
        <time>2022-04-26T09:46:53.478Z</time>
      </trkpt>
      <trkpt lat="41.55392" lon="20.61651">
        <ele>652.22178</ele>
        <time>2022-04-26T09:46:55.508Z</time>
      </trkpt>
      <trkpt lat="41.55379" lon="20.61657">
        <ele>651.697694</ele>
        <time>2022-04-26T09:46:57.505Z</time>
      </trkpt>
      <trkpt lat="41.55366" lon="20.61662">
        <ele>651.206196</ele>
        <time>2022-04-26T09:46:59.486Z</time>
      </trkpt>
      <trkpt lat="41.55354" lon="20.61665">
        <ele>650.795048</ele>
        <time>2022-04-26T09:47:01.464Z</time>
      </trkpt>
      <trkpt lat="41.55343" lon="20.61666">
        <ele>650.397006</ele>
        <time>2022-04-26T09:47:03.476Z</time>
      </trkpt>
      <trkpt lat="41.55332" lon="20.61666">
        <ele>650.023119</ele>
        <time>2022-04-26T09:47:05.482Z</time>
      </trkpt>
      <trkpt lat="41.55322" lon="20.61663">
        <ele>649.678614</ele>
        <time>2022-04-26T09:47:07.482Z</time>
      </trkpt>
      <trkpt lat="41.55313" lon="20.6166">
        <ele>649.370865</ele>
        <time>2022-04-26T09:47:09.481Z</time>
      </trkpt>
      <trkpt lat="41.55301" lon="20.61653">
        <ele>648.95006</ele>
        <time>2022-04-26T09:47:12.476Z</time>
      </trkpt>
      <trkpt lat="41.55291" lon="20.61646">
        <ele>648.539219</ele>
        <time>2022-04-26T09:47:15.484Z</time>
      </trkpt>
      <trkpt lat="41.55282" lon="20.61637">
        <ele>648.149368</ele>
        <time>2022-04-26T09:47:18.479Z</time>
      </trkpt>
      <trkpt lat="41.55271" lon="20.61627">
        <ele>647.721681</ele>
        <time>2022-04-26T09:47:21.468Z</time>
      </trkpt>
      <trkpt lat="41.55261" lon="20.6162">
        <ele>647.328561</ele>
        <time>2022-04-26T09:47:24.480Z</time>
      </trkpt>
      <trkpt lat="41.55251" lon="20.61612">
        <ele>646.933293</ele>
        <time>2022-04-26T09:47:27.484Z</time>
      </trkpt>
      <trkpt lat="41.55241" lon="20.61605">
        <ele>646.540966</ele>
        <time>2022-04-26T09:47:30.525Z</time>
      </trkpt>
      <trkpt lat="41.55231" lon="20.61597">
        <ele>646.153964</ele>
        <time>2022-04-26T09:47:33.486Z</time>
      </trkpt>
      <trkpt lat="41.55221" lon="20.61589">
        <ele>645.776731</ele>
        <time>2022-04-26T09:47:36.482Z</time>
      </trkpt>
      <trkpt lat="41.55211" lon="20.61583">
        <ele>645.39085</ele>
        <time>2022-04-26T09:47:39.492Z</time>
      </trkpt>
      <trkpt lat="41.55202" lon="20.61576">
        <ele>645.233909</ele>
        <time>2022-04-26T09:47:42.497Z</time>
      </trkpt>
      <trkpt lat="41.55193" lon="20.61569">
        <ele>645.349446</ele>
        <time>2022-04-26T09:47:45.501Z</time>
      </trkpt>
      <trkpt lat="41.55185" lon="20.61561">
        <ele>645.462236</ele>
        <time>2022-04-26T09:47:48.492Z</time>
      </trkpt>
      <trkpt lat="41.55176" lon="20.61553">
        <ele>645.583897</ele>
        <time>2022-04-26T09:47:51.487Z</time>
      </trkpt>
      <trkpt lat="41.55168" lon="20.61545">
        <ele>645.701073</ele>
        <time>2022-04-26T09:47:54.479Z</time>
      </trkpt>
      <trkpt lat="41.5516" lon="20.61536">
        <ele>645.818907</ele>
        <time>2022-04-26T09:47:57.518Z</time>
      </trkpt>
      <trkpt lat="41.55151" lon="20.61527">
        <ele>645.941351</ele>
        <time>2022-04-26T09:48:00.474Z</time>
      </trkpt>
      <trkpt lat="41.55143" lon="20.61518">
        <ele>646.062362</ele>
        <time>2022-04-26T09:48:03.493Z</time>
      </trkpt>
      <trkpt lat="41.55136" lon="20.61509">
        <ele>646.174715</ele>
        <time>2022-04-26T09:48:06.495Z</time>
      </trkpt>
      <trkpt lat="41.55128" lon="20.61498">
        <ele>646.301306</ele>
        <time>2022-04-26T09:48:09.473Z</time>
      </trkpt>
      <trkpt lat="41.55118" lon="20.61486">
        <ele>646.44959</ele>
        <time>2022-04-26T09:48:12.475Z</time>
      </trkpt>
      <trkpt lat="41.55109" lon="20.61474">
        <ele>646.596052</ele>
        <time>2022-04-26T09:48:15.514Z</time>
      </trkpt>
      <trkpt lat="41.55099" lon="20.61463">
        <ele>646.744283</ele>
        <time>2022-04-26T09:48:18.464Z</time>
      </trkpt>
      <trkpt lat="41.5509" lon="20.61452">
        <ele>646.877617</ele>
        <time>2022-04-26T09:48:21.515Z</time>
      </trkpt>
      <trkpt lat="41.55081" lon="20.61441">
        <ele>647.018574</ele>
        <time>2022-04-26T09:48:24.498Z</time>
      </trkpt>
      <trkpt lat="41.55071" lon="20.6143">
        <ele>647.156998</ele>
        <time>2022-04-26T09:48:27.499Z</time>
      </trkpt>
      <trkpt lat="41.55064" lon="20.6142">
        <ele>647.262662</ele>
        <time>2022-04-26T09:48:30.457Z</time>
      </trkpt>
      <trkpt lat="41.55056" lon="20.6141">
        <ele>647.361936</ele>
        <time>2022-04-26T09:48:33.477Z</time>
      </trkpt>
      <trkpt lat="41.55048" lon="20.614">
        <ele>647.454789</ele>
        <time>2022-04-26T09:48:36.494Z</time>
      </trkpt>
      <trkpt lat="41.5504" lon="20.6139">
        <ele>647.553669</ele>
        <time>2022-04-26T09:48:39.470Z</time>
      </trkpt>
      <trkpt lat="41.55031" lon="20.6138">
        <ele>647.658144</ele>
        <time>2022-04-26T09:48:42.490Z</time>
      </trkpt>
      <trkpt lat="41.55022" lon="20.61371">
        <ele>647.752792</ele>
        <time>2022-04-26T09:48:45.495Z</time>
      </trkpt>
      <trkpt lat="41.55015" lon="20.61362">
        <ele>647.845279</ele>
        <time>2022-04-26T09:48:48.456Z</time>
      </trkpt>
      <trkpt lat="41.55006" lon="20.61353">
        <ele>647.940062</ele>
        <time>2022-04-26T09:48:51.494Z</time>
      </trkpt>
      <trkpt lat="41.54997" lon="20.61343">
        <ele>648.045913</ele>
        <time>2022-04-26T09:48:54.482Z</time>
      </trkpt>
      <trkpt lat="41.54987" lon="20.61332">
        <ele>648.158051</ele>
        <time>2022-04-26T09:48:57.489Z</time>
      </trkpt>
      <trkpt lat="41.54978" lon="20.6132">
        <ele>648.269393</ele>
        <time>2022-04-26T09:49:00.479Z</time>
      </trkpt>
      <trkpt lat="41.5497" lon="20.61308">
        <ele>648.376537</ele>
        <time>2022-04-26T09:49:03.470Z</time>
      </trkpt>
      <trkpt lat="41.54963" lon="20.61295">
        <ele>648.486517</ele>
        <time>2022-04-26T09:49:06.488Z</time>
      </trkpt>
      <trkpt lat="41.54956" lon="20.61282">
        <ele>648.590127</ele>
        <time>2022-04-26T09:49:09.481Z</time>
      </trkpt>
      <trkpt lat="41.5495" lon="20.61268">
        <ele>648.695891</ele>
        <time>2022-04-26T09:49:12.516Z</time>
      </trkpt>
      <trkpt lat="41.54945" lon="20.61255">
        <ele>648.798027</ele>
        <time>2022-04-26T09:49:15.490Z</time>
      </trkpt>
      <trkpt lat="41.54941" lon="20.61241">
        <ele>648.809395</ele>
        <time>2022-04-26T09:49:18.468Z</time>
      </trkpt>
      <trkpt lat="41.54937" lon="20.61228">
        <ele>648.81307</ele>
        <time>2022-04-26T09:49:21.493Z</time>
      </trkpt>
      <trkpt lat="41.54934" lon="20.61215">
        <ele>648.816923</ele>
        <time>2022-04-26T09:49:24.497Z</time>
      </trkpt>
      <trkpt lat="41.54931" lon="20.61199">
        <ele>648.821364</ele>
        <time>2022-04-26T09:49:27.485Z</time>
      </trkpt>
      <trkpt lat="41.5493" lon="20.61183">
        <ele>648.825868</ele>
        <time>2022-04-26T09:49:30.469Z</time>
      </trkpt>
      <trkpt lat="41.54929" lon="20.61165">
        <ele>648.830811</ele>
        <time>2022-04-26T09:49:33.497Z</time>
      </trkpt>
      <trkpt lat="41.54926" lon="20.61148">
        <ele>648.835657</ele>
        <time>2022-04-26T09:49:36.483Z</time>
      </trkpt>
      <trkpt lat="41.54923" lon="20.61131">
        <ele>648.840499</ele>
        <time>2022-04-26T09:49:39.489Z</time>
      </trkpt>
      <trkpt lat="41.54921" lon="20.61119">
        <ele>648.843994</ele>
        <time>2022-04-26T09:49:41.495Z</time>
      </trkpt>
      <trkpt lat="41.54919" lon="20.61106">
        <ele>648.847442</ele>
        <time>2022-04-26T09:49:43.481Z</time>
      </trkpt>
      <trkpt lat="41.54918" lon="20.61095">
        <ele>648.850761</ele>
        <time>2022-04-26T09:49:45.544Z</time>
      </trkpt>
      <trkpt lat="41.54915" lon="20.61077">
        <ele>648.855635</ele>
        <time>2022-04-26T09:49:48.499Z</time>
      </trkpt>
      <trkpt lat="41.54913" lon="20.6106">
        <ele>648.860386</ele>
        <time>2022-04-26T09:49:51.500Z</time>
      </trkpt>
      <trkpt lat="41.5491" lon="20.61043">
        <ele>648.865375</ele>
        <time>2022-04-26T09:49:54.481Z</time>
      </trkpt>
      <trkpt lat="41.54906" lon="20.61026">
        <ele>648.870165</ele>
        <time>2022-04-26T09:49:57.467Z</time>
      </trkpt>
      <trkpt lat="41.54901" lon="20.6101">
        <ele>648.665816</ele>
        <time>2022-04-26T09:50:00.494Z</time>
      </trkpt>
      <trkpt lat="41.54897" lon="20.60998">
        <ele>648.441028</ele>
        <time>2022-04-26T09:50:02.482Z</time>
      </trkpt>
      <trkpt lat="41.54891" lon="20.60982">
        <ele>648.12558</ele>
        <time>2022-04-26T09:50:05.492Z</time>
      </trkpt>
      <trkpt lat="41.54886" lon="20.60967">
        <ele>647.823436</ele>
        <time>2022-04-26T09:50:08.486Z</time>
      </trkpt>
      <trkpt lat="41.5488" lon="20.60952">
        <ele>647.523756</ele>
        <time>2022-04-26T09:50:11.492Z</time>
      </trkpt>
      <trkpt lat="41.54874" lon="20.60943">
        <ele>647.303584</ele>
        <time>2022-04-26T09:50:13.492Z</time>
      </trkpt>
      <trkpt lat="41.54865" lon="20.6093">
        <ele>646.991206</ele>
        <time>2022-04-26T09:50:16.470Z</time>
      </trkpt>
      <trkpt lat="41.54858" lon="20.60922">
        <ele>646.777446</ele>
        <time>2022-04-26T09:50:18.534Z</time>
      </trkpt>
      <trkpt lat="41.54851" lon="20.60913">
        <ele>646.543484</ele>
        <time>2022-04-26T09:50:20.489Z</time>
      </trkpt>
      <trkpt lat="41.54843" lon="20.60905">
        <ele>646.304697</ele>
        <time>2022-04-26T09:50:22.494Z</time>
      </trkpt>
      <trkpt lat="41.54835" lon="20.60898">
        <ele>646.072205</ele>
        <time>2022-04-26T09:50:24.465Z</time>
      </trkpt>
      <trkpt lat="41.54828" lon="20.6089">
        <ele>645.85338</ele>
        <time>2022-04-26T09:50:26.469Z</time>
      </trkpt>
      <trkpt lat="41.5482" lon="20.60883">
        <ele>645.62728</ele>
        <time>2022-04-26T09:50:28.477Z</time>
      </trkpt>
      <trkpt lat="41.54812" lon="20.60875">
        <ele>645.401637</ele>
        <time>2022-04-26T09:50:30.494Z</time>
      </trkpt>
      <trkpt lat="41.54805" lon="20.60868">
        <ele>645.186835</ele>
        <time>2022-04-26T09:50:32.487Z</time>
      </trkpt>
      <trkpt lat="41.54795" lon="20.60858">
        <ele>644.881599</ele>
        <time>2022-04-26T09:50:35.480Z</time>
      </trkpt>
      <trkpt lat="41.54784" lon="20.60847">
        <ele>644.594495</ele>
        <time>2022-04-26T09:50:38.490Z</time>
      </trkpt>
      <trkpt lat="41.54774" lon="20.60836">
        <ele>644.612026</ele>
        <time>2022-04-26T09:50:41.495Z</time>
      </trkpt>
      <trkpt lat="41.54765" lon="20.60827">
        <ele>644.628061</ele>
        <time>2022-04-26T09:50:44.488Z</time>
      </trkpt>
      <trkpt lat="41.54755" lon="20.60817">
        <ele>644.644709</ele>
        <time>2022-04-26T09:50:47.478Z</time>
      </trkpt>
      <trkpt lat="41.54745" lon="20.60807">
        <ele>644.661935</ele>
        <time>2022-04-26T09:50:50.485Z</time>
      </trkpt>
      <trkpt lat="41.54735" lon="20.60798">
        <ele>644.678602</ele>
        <time>2022-04-26T09:50:53.488Z</time>
      </trkpt>
      <trkpt lat="41.54724" lon="20.60787">
        <ele>644.696498</ele>
        <time>2022-04-26T09:50:56.485Z</time>
      </trkpt>
      <trkpt lat="41.54713" lon="20.60777">
        <ele>644.714514</ele>
        <time>2022-04-26T09:50:59.479Z</time>
      </trkpt>
      <trkpt lat="41.54704" lon="20.60767">
        <ele>644.730753</ele>
        <time>2022-04-26T09:51:02.486Z</time>
      </trkpt>
      <trkpt lat="41.54695" lon="20.60756">
        <ele>644.7478</ele>
        <time>2022-04-26T09:51:05.489Z</time>
      </trkpt>
      <trkpt lat="41.54686" lon="20.60744">
        <ele>644.764944</ele>
        <time>2022-04-26T09:51:08.512Z</time>
      </trkpt>
      <trkpt lat="41.54677" lon="20.60731">
        <ele>644.782097</ele>
        <time>2022-04-26T09:51:11.476Z</time>
      </trkpt>
      <trkpt lat="41.54667" lon="20.60719">
        <ele>644.800534</ele>
        <time>2022-04-26T09:51:14.489Z</time>
      </trkpt>
      <trkpt lat="41.5466" lon="20.60711">
        <ele>644.814134</ele>
        <time>2022-04-26T09:51:16.490Z</time>
      </trkpt>
      <trkpt lat="41.54652" lon="20.60703">
        <ele>644.827182</ele>
        <time>2022-04-26T09:51:18.497Z</time>
      </trkpt>
      <trkpt lat="41.54645" lon="20.60695">
        <ele>644.800397</ele>
        <time>2022-04-26T09:51:20.488Z</time>
      </trkpt>
      <trkpt lat="41.54638" lon="20.60687">
        <ele>644.577992</ele>
        <time>2022-04-26T09:51:22.471Z</time>
      </trkpt>
      <trkpt lat="41.5463" lon="20.60678">
        <ele>644.347348</ele>
        <time>2022-04-26T09:51:24.477Z</time>
      </trkpt>
      <trkpt lat="41.54623" lon="20.6067">
        <ele>644.135383</ele>
        <time>2022-04-26T09:51:26.476Z</time>
      </trkpt>
      <trkpt lat="41.54614" lon="20.6066">
        <ele>643.842192</ele>
        <time>2022-04-26T09:51:29.485Z</time>
      </trkpt>
      <trkpt lat="41.54604" lon="20.60649">
        <ele>643.545601</ele>
        <time>2022-04-26T09:51:32.485Z</time>
      </trkpt>
      <trkpt lat="41.54595" lon="20.60637">
        <ele>643.250142</ele>
        <time>2022-04-26T09:51:35.553Z</time>
      </trkpt>
      <trkpt lat="41.54586" lon="20.60624">
        <ele>642.94219</ele>
        <time>2022-04-26T09:51:38.489Z</time>
      </trkpt>
      <trkpt lat="41.54579" lon="20.60616">
        <ele>642.717983</ele>
        <time>2022-04-26T09:51:40.476Z</time>
      </trkpt>
      <trkpt lat="41.54572" lon="20.60606">
        <ele>642.483707</ele>
        <time>2022-04-26T09:51:42.474Z</time>
      </trkpt>
      <trkpt lat="41.54565" lon="20.60591">
        <ele>642.178887</ele>
        <time>2022-04-26T09:51:45.493Z</time>
      </trkpt>
      <trkpt lat="41.5456" lon="20.60576">
        <ele>641.897224</ele>
        <time>2022-04-26T09:51:48.479Z</time>
      </trkpt>
      <trkpt lat="41.54555" lon="20.60562">
        <ele>641.606138</ele>
        <time>2022-04-26T09:51:51.460Z</time>
      </trkpt>
      <trkpt lat="41.5455" lon="20.60547">
        <ele>641.318867</ele>
        <time>2022-04-26T09:51:54.518Z</time>
      </trkpt>
      <trkpt lat="41.54545" lon="20.60531">
        <ele>641.020497</ele>
        <time>2022-04-26T09:51:57.508Z</time>
      </trkpt>
      <trkpt lat="41.54541" lon="20.60515">
        <ele>640.725403</ele>
        <time>2022-04-26T09:52:00.467Z</time>
      </trkpt>
      <trkpt lat="41.54536" lon="20.60498">
        <ele>640.345528</ele>
        <time>2022-04-26T09:52:03.476Z</time>
      </trkpt>
      <trkpt lat="41.54532" lon="20.60483">
        <ele>639.964263</ele>
        <time>2022-04-26T09:52:06.490Z</time>
      </trkpt>
      <trkpt lat="41.54527" lon="20.60468">
        <ele>639.606711</ele>
        <time>2022-04-26T09:52:09.477Z</time>
      </trkpt>
      <trkpt lat="41.54523" lon="20.60452">
        <ele>639.207851</ele>
        <time>2022-04-26T09:52:12.482Z</time>
      </trkpt>
      <trkpt lat="41.54519" lon="20.60435">
        <ele>638.813865</ele>
        <time>2022-04-26T09:52:15.482Z</time>
      </trkpt>
      <trkpt lat="41.54515" lon="20.60418">
        <ele>638.403459</ele>
        <time>2022-04-26T09:52:18.498Z</time>
      </trkpt>
      <trkpt lat="41.5451" lon="20.60402">
        <ele>637.996558</ele>
        <time>2022-04-26T09:52:21.486Z</time>
      </trkpt>
      <trkpt lat="41.54507" lon="20.6039">
        <ele>637.713141</ele>
        <time>2022-04-26T09:52:23.485Z</time>
      </trkpt>
      <trkpt lat="41.54504" lon="20.60378">
        <ele>637.411825</ele>
        <time>2022-04-26T09:52:25.486Z</time>
      </trkpt>
      <trkpt lat="41.54502" lon="20.60365">
        <ele>637.115896</ele>
        <time>2022-04-26T09:52:27.477Z</time>
      </trkpt>
      <trkpt lat="41.54499" lon="20.60349">
        <ele>636.728124</ele>
        <time>2022-04-26T09:52:30.484Z</time>
      </trkpt>
      <trkpt lat="41.54495" lon="20.60332">
        <ele>636.323587</ele>
        <time>2022-04-26T09:52:33.473Z</time>
      </trkpt>
      <trkpt lat="41.54492" lon="20.6032">
        <ele>636.034503</ele>
        <time>2022-04-26T09:52:35.480Z</time>
      </trkpt>
      <trkpt lat="41.54488" lon="20.60308">
        <ele>635.744217</ele>
        <time>2022-04-26T09:52:37.471Z</time>
      </trkpt>
      <trkpt lat="41.54484" lon="20.60297">
        <ele>635.460448</ele>
        <time>2022-04-26T09:52:39.462Z</time>
      </trkpt>
      <trkpt lat="41.54481" lon="20.60286">
        <ele>635.184543</ele>
        <time>2022-04-26T09:52:41.478Z</time>
      </trkpt>
      <trkpt lat="41.54478" lon="20.60273">
        <ele>635.067104</ele>
        <time>2022-04-26T09:52:43.467Z</time>
      </trkpt>
      <trkpt lat="41.54474" lon="20.60261">
        <ele>635.00583</ele>
        <time>2022-04-26T09:52:45.494Z</time>
      </trkpt>
      <trkpt lat="41.5447" lon="20.60248">
        <ele>634.945414</ele>
        <time>2022-04-26T09:52:47.470Z</time>
      </trkpt>
      <trkpt lat="41.54467" lon="20.60235">
        <ele>634.886163</ele>
        <time>2022-04-26T09:52:49.478Z</time>
      </trkpt>
      <trkpt lat="41.54464" lon="20.60222">
        <ele>634.825744</ele>
        <time>2022-04-26T09:52:51.465Z</time>
      </trkpt>
      <trkpt lat="41.54461" lon="20.60209">
        <ele>634.766071</ele>
        <time>2022-04-26T09:52:53.486Z</time>
      </trkpt>
      <trkpt lat="41.54458" lon="20.60197">
        <ele>634.709525</ele>
        <time>2022-04-26T09:52:55.485Z</time>
      </trkpt>
      <trkpt lat="41.54454" lon="20.60185">
        <ele>634.652636</ele>
        <time>2022-04-26T09:52:57.511Z</time>
      </trkpt>
      <trkpt lat="41.54451" lon="20.60172">
        <ele>634.593205</ele>
        <time>2022-04-26T09:52:59.482Z</time>
      </trkpt>
      <trkpt lat="41.54448" lon="20.60159">
        <ele>634.53051</ele>
        <time>2022-04-26T09:53:01.476Z</time>
      </trkpt>
      <trkpt lat="41.54445" lon="20.60145">
        <ele>634.468376</ele>
        <time>2022-04-26T09:53:03.485Z</time>
      </trkpt>
      <trkpt lat="41.54442" lon="20.60132">
        <ele>634.407262</ele>
        <time>2022-04-26T09:53:05.485Z</time>
      </trkpt>
      <trkpt lat="41.54439" lon="20.6012">
        <ele>634.350954</ele>
        <time>2022-04-26T09:53:07.473Z</time>
      </trkpt>
      <trkpt lat="41.54435" lon="20.60108">
        <ele>634.295709</ele>
        <time>2022-04-26T09:53:09.503Z</time>
      </trkpt>
      <trkpt lat="41.54433" lon="20.60096">
        <ele>634.240258</ele>
        <time>2022-04-26T09:53:11.474Z</time>
      </trkpt>
      <trkpt lat="41.5443" lon="20.60084">
        <ele>634.185394</ele>
        <time>2022-04-26T09:53:13.497Z</time>
      </trkpt>
      <trkpt lat="41.54427" lon="20.60072">
        <ele>634.127057</ele>
        <time>2022-04-26T09:53:15.489Z</time>
      </trkpt>
      <trkpt lat="41.54423" lon="20.60059">
        <ele>634.066857</ele>
        <time>2022-04-26T09:53:17.491Z</time>
      </trkpt>
      <trkpt lat="41.5442" lon="20.60047">
        <ele>633.94819</ele>
        <time>2022-04-26T09:53:19.517Z</time>
      </trkpt>
      <trkpt lat="41.54416" lon="20.60034">
        <ele>633.79334</ele>
        <time>2022-04-26T09:53:21.462Z</time>
      </trkpt>
      <trkpt lat="41.54413" lon="20.60021">
        <ele>633.645259</ele>
        <time>2022-04-26T09:53:23.496Z</time>
      </trkpt>
      <trkpt lat="41.5441" lon="20.60008">
        <ele>633.492818</ele>
        <time>2022-04-26T09:53:25.533Z</time>
      </trkpt>
      <trkpt lat="41.54405" lon="20.59995">
        <ele>633.334904</ele>
        <time>2022-04-26T09:53:27.463Z</time>
      </trkpt>
      <trkpt lat="41.54402" lon="20.59983">
        <ele>633.188367</ele>
        <time>2022-04-26T09:53:29.501Z</time>
      </trkpt>
      <trkpt lat="41.54397" lon="20.59971">
        <ele>633.037351</ele>
        <time>2022-04-26T09:53:31.483Z</time>
      </trkpt>
      <trkpt lat="41.54393" lon="20.59958">
        <ele>632.880154</ele>
        <time>2022-04-26T09:53:33.472Z</time>
      </trkpt>
      <trkpt lat="41.54387" lon="20.59946">
        <ele>632.721659</ele>
        <time>2022-04-26T09:53:35.501Z</time>
      </trkpt>
      <trkpt lat="41.5438" lon="20.59934">
        <ele>632.561764</ele>
        <time>2022-04-26T09:53:37.494Z</time>
      </trkpt>
      <trkpt lat="41.54374" lon="20.59923">
        <ele>632.405417</ele>
        <time>2022-04-26T09:53:39.483Z</time>
      </trkpt>
      <trkpt lat="41.54368" lon="20.59912">
        <ele>632.250829</ele>
        <time>2022-04-26T09:53:41.500Z</time>
      </trkpt>
      <trkpt lat="41.54361" lon="20.59901">
        <ele>632.094235</ele>
        <time>2022-04-26T09:53:43.475Z</time>
      </trkpt>
      <trkpt lat="41.54354" lon="20.59891">
        <ele>631.944325</ele>
        <time>2022-04-26T09:53:45.475Z</time>
      </trkpt>
      <trkpt lat="41.54347" lon="20.59881">
        <ele>631.795038</ele>
        <time>2022-04-26T09:53:47.460Z</time>
      </trkpt>
      <trkpt lat="41.5434" lon="20.59871">
        <ele>631.642905</ele>
        <time>2022-04-26T09:53:49.481Z</time>
      </trkpt>
      <trkpt lat="41.54333" lon="20.59861">
        <ele>631.484487</ele>
        <time>2022-04-26T09:53:51.489Z</time>
      </trkpt>
      <trkpt lat="41.54326" lon="20.59852">
        <ele>631.383123</ele>
        <time>2022-04-26T09:53:53.508Z</time>
      </trkpt>
      <trkpt lat="41.5432" lon="20.59841">
        <ele>631.385919</ele>
        <time>2022-04-26T09:53:55.498Z</time>
      </trkpt>
      <trkpt lat="41.54313" lon="20.59831">
        <ele>631.388766</ele>
        <time>2022-04-26T09:53:57.489Z</time>
      </trkpt>
      <trkpt lat="41.54306" lon="20.59821">
        <ele>631.391683</ele>
        <time>2022-04-26T09:53:59.490Z</time>
      </trkpt>
      <trkpt lat="41.54299" lon="20.5981">
        <ele>631.394745</ele>
        <time>2022-04-26T09:54:01.485Z</time>
      </trkpt>
      <trkpt lat="41.54291" lon="20.598">
        <ele>631.397612</ele>
        <time>2022-04-26T09:54:03.489Z</time>
      </trkpt>
      <trkpt lat="41.54284" lon="20.59791">
        <ele>631.40036</ele>
        <time>2022-04-26T09:54:05.472Z</time>
      </trkpt>
      <trkpt lat="41.54278" lon="20.59782">
        <ele>631.403015</ele>
        <time>2022-04-26T09:54:07.497Z</time>
      </trkpt>
      <trkpt lat="41.5427" lon="20.59768">
        <ele>631.406615</ele>
        <time>2022-04-26T09:54:10.499Z</time>
      </trkpt>
      <trkpt lat="41.54262" lon="20.59761">
        <ele>631.409305</ele>
        <time>2022-04-26T09:54:12.484Z</time>
      </trkpt>
      <trkpt lat="41.54255" lon="20.59751">
        <ele>631.41215</ele>
        <time>2022-04-26T09:54:14.477Z</time>
      </trkpt>
      <trkpt lat="41.54248" lon="20.59741">
        <ele>631.415001</ele>
        <time>2022-04-26T09:54:16.472Z</time>
      </trkpt>
      <trkpt lat="41.54242" lon="20.5973">
        <ele>631.417897</ele>
        <time>2022-04-26T09:54:18.481Z</time>
      </trkpt>
      <trkpt lat="41.54237" lon="20.5972">
        <ele>631.420412</ele>
        <time>2022-04-26T09:54:20.472Z</time>
      </trkpt>
      <trkpt lat="41.5423" lon="20.59705">
        <ele>631.424097</ele>
        <time>2022-04-26T09:54:23.480Z</time>
      </trkpt>
      <trkpt lat="41.54224" lon="20.59691">
        <ele>631.427438</ele>
        <time>2022-04-26T09:54:26.523Z</time>
      </trkpt>
      <trkpt lat="41.54218" lon="20.59678">
        <ele>631.430528</ele>
        <time>2022-04-26T09:54:29.505Z</time>
      </trkpt>
      <trkpt lat="41.54211" lon="20.59665">
        <ele>631.451353</ele>
        <time>2022-04-26T09:54:32.517Z</time>
      </trkpt>
      <trkpt lat="41.54204" lon="20.59652">
        <ele>631.498191</ele>
        <time>2022-04-26T09:54:35.496Z</time>
      </trkpt>
      <trkpt lat="41.54196" lon="20.59637">
        <ele>631.549382</ele>
        <time>2022-04-26T09:54:38.511Z</time>
      </trkpt>
      <trkpt lat="41.54191" lon="20.59627">
        <ele>631.583746</ele>
        <time>2022-04-26T09:54:40.487Z</time>
      </trkpt>
      <trkpt lat="41.54186" lon="20.59617">
        <ele>631.618279</ele>
        <time>2022-04-26T09:54:42.486Z</time>
      </trkpt>
      <trkpt lat="41.54179" lon="20.59603">
        <ele>631.666976</ele>
        <time>2022-04-26T09:54:45.482Z</time>
      </trkpt>
      <trkpt lat="41.54173" lon="20.59588">
        <ele>631.713994</ele>
        <time>2022-04-26T09:54:48.480Z</time>
      </trkpt>
      <trkpt lat="41.54168" lon="20.59578">
        <ele>631.748535</ele>
        <time>2022-04-26T09:54:50.485Z</time>
      </trkpt>
      <trkpt lat="41.54162" lon="20.59568">
        <ele>631.784904</ele>
        <time>2022-04-26T09:54:52.480Z</time>
      </trkpt>
      <trkpt lat="41.54157" lon="20.59557">
        <ele>631.819714</ele>
        <time>2022-04-26T09:54:54.474Z</time>
      </trkpt>
      <trkpt lat="41.5415" lon="20.59542">
        <ele>631.870282</ele>
        <time>2022-04-26T09:54:57.481Z</time>
      </trkpt>
      <trkpt lat="41.54143" lon="20.59527">
        <ele>631.921076</ele>
        <time>2022-04-26T09:55:00.484Z</time>
      </trkpt>
      <trkpt lat="41.54136" lon="20.59512">
        <ele>631.971524</ele>
        <time>2022-04-26T09:55:03.466Z</time>
      </trkpt>
      <trkpt lat="41.54129" lon="20.59497">
        <ele>632.020727</ele>
        <time>2022-04-26T09:55:06.487Z</time>
      </trkpt>
      <trkpt lat="41.54123" lon="20.59483">
        <ele>632.06689</ele>
        <time>2022-04-26T09:55:09.481Z</time>
      </trkpt>
      <trkpt lat="41.54116" lon="20.59468">
        <ele>632.094681</ele>
        <time>2022-04-26T09:55:12.469Z</time>
      </trkpt>
      <trkpt lat="41.54111" lon="20.59457">
        <ele>631.900668</ele>
        <time>2022-04-26T09:55:14.477Z</time>
      </trkpt>
      <trkpt lat="41.54105" lon="20.59447">
        <ele>631.703305</ele>
        <time>2022-04-26T09:55:16.466Z</time>
      </trkpt>
      <trkpt lat="41.541" lon="20.59436">
        <ele>631.505657</ele>
        <time>2022-04-26T09:55:18.472Z</time>
      </trkpt>
      <trkpt lat="41.54095" lon="20.59426">
        <ele>631.306719</ele>
        <time>2022-04-26T09:55:20.492Z</time>
      </trkpt>
      <trkpt lat="41.54089" lon="20.59415">
        <ele>631.110214</ele>
        <time>2022-04-26T09:55:22.472Z</time>
      </trkpt>
      <trkpt lat="41.54084" lon="20.59405">
        <ele>630.920025</ele>
        <time>2022-04-26T09:55:24.484Z</time>
      </trkpt>
      <trkpt lat="41.54079" lon="20.59395">
        <ele>630.727504</ele>
        <time>2022-04-26T09:55:26.478Z</time>
      </trkpt>
      <trkpt lat="41.54074" lon="20.59384">
        <ele>630.538278</ele>
        <time>2022-04-26T09:55:28.489Z</time>
      </trkpt>
      <trkpt lat="41.5407" lon="20.59374">
        <ele>630.346958</ele>
        <time>2022-04-26T09:55:30.474Z</time>
      </trkpt>
      <trkpt lat="41.54064" lon="20.59363">
        <ele>630.150275</ele>
        <time>2022-04-26T09:55:32.502Z</time>
      </trkpt>
      <trkpt lat="41.5406" lon="20.59353">
        <ele>629.964308</ele>
        <time>2022-04-26T09:55:34.488Z</time>
      </trkpt>
      <trkpt lat="41.54052" lon="20.59338">
        <ele>629.684617</ele>
        <time>2022-04-26T09:55:37.476Z</time>
      </trkpt>
      <trkpt lat="41.54047" lon="20.59327">
        <ele>629.49557</ele>
        <time>2022-04-26T09:55:39.481Z</time>
      </trkpt>
      <trkpt lat="41.5404" lon="20.59313">
        <ele>629.222811</ele>
        <time>2022-04-26T09:55:42.475Z</time>
      </trkpt>
      <trkpt lat="41.54034" lon="20.59298">
        <ele>628.955958</ele>
        <time>2022-04-26T09:55:45.491Z</time>
      </trkpt>
      <trkpt lat="41.54027" lon="20.59283">
        <ele>628.684054</ele>
        <time>2022-04-26T09:55:48.529Z</time>
      </trkpt>
      <trkpt lat="41.5402" lon="20.59269">
        <ele>628.421372</ele>
        <time>2022-04-26T09:55:51.486Z</time>
      </trkpt>
      <trkpt lat="41.54012" lon="20.59255">
        <ele>628.257906</ele>
        <time>2022-04-26T09:55:54.474Z</time>
      </trkpt>
      <trkpt lat="41.54005" lon="20.59242">
        <ele>628.1164</ele>
        <time>2022-04-26T09:55:57.478Z</time>
      </trkpt>
      <trkpt lat="41.53998" lon="20.59228">
        <ele>627.973473</ele>
        <time>2022-04-26T09:56:00.467Z</time>
      </trkpt>
      <trkpt lat="41.53991" lon="20.59215">
        <ele>627.828344</ele>
        <time>2022-04-26T09:56:03.479Z</time>
      </trkpt>
      <trkpt lat="41.53984" lon="20.59201">
        <ele>627.68125</ele>
        <time>2022-04-26T09:56:06.503Z</time>
      </trkpt>
      <trkpt lat="41.53975" lon="20.59189">
        <ele>627.531571</ele>
        <time>2022-04-26T09:56:09.464Z</time>
      </trkpt>
      <trkpt lat="41.53968" lon="20.59181">
        <ele>627.423896</ele>
        <time>2022-04-26T09:56:11.485Z</time>
      </trkpt>
      <trkpt lat="41.53958" lon="20.5917">
        <ele>627.2754</ele>
        <time>2022-04-26T09:56:14.470Z</time>
      </trkpt>
      <trkpt lat="41.53948" lon="20.59159">
        <ele>627.12035</ele>
        <time>2022-04-26T09:56:17.473Z</time>
      </trkpt>
      <trkpt lat="41.53937" lon="20.59148">
        <ele>626.963067</ele>
        <time>2022-04-26T09:56:20.493Z</time>
      </trkpt>
      <trkpt lat="41.53926" lon="20.59137">
        <ele>626.806558</ele>
        <time>2022-04-26T09:56:23.474Z</time>
      </trkpt>
      <trkpt lat="41.53919" lon="20.5913">
        <ele>626.699839</ele>
        <time>2022-04-26T09:56:25.494Z</time>
      </trkpt>
      <trkpt lat="41.5391" lon="20.59118">
        <ele>626.551159</ele>
        <time>2022-04-26T09:56:28.501Z</time>
      </trkpt>
      <trkpt lat="41.539" lon="20.59108">
        <ele>626.403027</ele>
        <time>2022-04-26T09:56:31.490Z</time>
      </trkpt>
      <trkpt lat="41.53889" lon="20.59097">
        <ele>626.254694</ele>
        <time>2022-04-26T09:56:34.494Z</time>
      </trkpt>
      <trkpt lat="41.53879" lon="20.59086">
        <ele>626.12171</ele>
        <time>2022-04-26T09:56:37.493Z</time>
      </trkpt>
      <trkpt lat="41.53871" lon="20.59078">
        <ele>626.02744</ele>
        <time>2022-04-26T09:56:39.505Z</time>
      </trkpt>
      <trkpt lat="41.53864" lon="20.59071">
        <ele>625.931582</ele>
        <time>2022-04-26T09:56:41.473Z</time>
      </trkpt>
      <trkpt lat="41.53856" lon="20.59063">
        <ele>625.838659</ele>
        <time>2022-04-26T09:56:43.475Z</time>
      </trkpt>
      <trkpt lat="41.53849" lon="20.59056">
        <ele>625.747048</ele>
        <time>2022-04-26T09:56:45.481Z</time>
      </trkpt>
      <trkpt lat="41.53838" lon="20.59045">
        <ele>625.611798</ele>
        <time>2022-04-26T09:56:48.476Z</time>
      </trkpt>
      <trkpt lat="41.5383" lon="20.59038">
        <ele>625.51843</ele>
        <time>2022-04-26T09:56:50.460Z</time>
      </trkpt>
      <trkpt lat="41.53822" lon="20.59031">
        <ele>625.423538</ele>
        <time>2022-04-26T09:56:52.483Z</time>
      </trkpt>
      <trkpt lat="41.53814" lon="20.59023">
        <ele>625.323252</ele>
        <time>2022-04-26T09:56:54.514Z</time>
      </trkpt>
      <trkpt lat="41.53806" lon="20.59015">
        <ele>625.219125</ele>
        <time>2022-04-26T09:56:56.469Z</time>
      </trkpt>
      <trkpt lat="41.53797" lon="20.59007">
        <ele>625.116684</ele>
        <time>2022-04-26T09:56:58.504Z</time>
      </trkpt>
      <trkpt lat="41.53789" lon="20.58999">
        <ele>625.011411</ele>
        <time>2022-04-26T09:57:00.475Z</time>
      </trkpt>
      <trkpt lat="41.53781" lon="20.58991">
        <ele>624.914388</ele>
        <time>2022-04-26T09:57:02.485Z</time>
      </trkpt>
      <trkpt lat="41.53771" lon="20.5898">
        <ele>624.78682</ele>
        <time>2022-04-26T09:57:05.493Z</time>
      </trkpt>
      <trkpt lat="41.5376" lon="20.5897">
        <ele>624.652714</ele>
        <time>2022-04-26T09:57:08.477Z</time>
      </trkpt>
      <trkpt lat="41.53753" lon="20.58963">
        <ele>624.563201</ele>
        <time>2022-04-26T09:57:10.478Z</time>
      </trkpt>
      <trkpt lat="41.53743" lon="20.58954">
        <ele>624.631052</ele>
        <time>2022-04-26T09:57:13.519Z</time>
      </trkpt>
      <trkpt lat="41.53734" lon="20.58946">
        <ele>624.9372</ele>
        <time>2022-04-26T09:57:16.481Z</time>
      </trkpt>
      <trkpt lat="41.53726" lon="20.58938">
        <ele>625.225829</ele>
        <time>2022-04-26T09:57:19.535Z</time>
      </trkpt>
      <trkpt lat="41.53718" lon="20.5893">
        <ele>625.515471</ele>
        <time>2022-04-26T09:57:22.463Z</time>
      </trkpt>
      <trkpt lat="41.53711" lon="20.58919">
        <ele>625.827846</ele>
        <time>2022-04-26T09:57:25.483Z</time>
      </trkpt>
      <trkpt lat="41.53703" lon="20.58905">
        <ele>626.198481</ele>
        <time>2022-04-26T09:57:28.463Z</time>
      </trkpt>
      <trkpt lat="41.53696" lon="20.58891">
        <ele>626.577707</ele>
        <time>2022-04-26T09:57:31.480Z</time>
      </trkpt>
      <trkpt lat="41.53689" lon="20.58876">
        <ele>626.951188</ele>
        <time>2022-04-26T09:57:34.491Z</time>
      </trkpt>
      <trkpt lat="41.53684" lon="20.58861">
        <ele>627.306977</ele>
        <time>2022-04-26T09:57:37.479Z</time>
      </trkpt>
      <trkpt lat="41.5368" lon="20.5885">
        <ele>627.566535</ele>
        <time>2022-04-26T09:57:39.482Z</time>
      </trkpt>
      <trkpt lat="41.53675" lon="20.58834">
        <ele>627.938229</ele>
        <time>2022-04-26T09:57:42.474Z</time>
      </trkpt>
      <trkpt lat="41.53669" lon="20.5882">
        <ele>628.291064</ele>
        <time>2022-04-26T09:57:45.489Z</time>
      </trkpt>
      <trkpt lat="41.53663" lon="20.58804">
        <ele>628.683293</ele>
        <time>2022-04-26T09:57:48.494Z</time>
      </trkpt>
      <trkpt lat="41.53658" lon="20.58791">
        <ele>628.977429</ele>
        <time>2022-04-26T09:57:50.477Z</time>
      </trkpt>
      <trkpt lat="41.53654" lon="20.58779">
        <ele>629.275476</ele>
        <time>2022-04-26T09:57:52.471Z</time>
      </trkpt>
      <trkpt lat="41.53649" lon="20.58766">
        <ele>629.588748</ele>
        <time>2022-04-26T09:57:54.483Z</time>
      </trkpt>
      <trkpt lat="41.53644" lon="20.58752">
        <ele>629.680275</ele>
        <time>2022-04-26T09:57:56.474Z</time>
      </trkpt>
      <trkpt lat="41.53639" lon="20.58739">
        <ele>629.69991</ele>
        <time>2022-04-26T09:57:58.504Z</time>
      </trkpt>
      <trkpt lat="41.53635" lon="20.58725">
        <ele>629.719114</ele>
        <time>2022-04-26T09:58:00.496Z</time>
      </trkpt>
      <trkpt lat="41.5363" lon="20.58712">
        <ele>629.739257</ele>
        <time>2022-04-26T09:58:02.471Z</time>
      </trkpt>
      <trkpt lat="41.53625" lon="20.58699">
        <ele>629.757961</ele>
        <time>2022-04-26T09:58:04.473Z</time>
      </trkpt>
      <trkpt lat="41.5362" lon="20.58687">
        <ele>629.776301</ele>
        <time>2022-04-26T09:58:06.477Z</time>
      </trkpt>
      <trkpt lat="41.53616" lon="20.58676">
        <ele>629.792218</ele>
        <time>2022-04-26T09:58:08.472Z</time>
      </trkpt>
      <trkpt lat="41.53612" lon="20.58665">
        <ele>629.808111</ele>
        <time>2022-04-26T09:58:10.484Z</time>
      </trkpt>
      <trkpt lat="41.53608" lon="20.58652">
        <ele>629.826647</ele>
        <time>2022-04-26T09:58:12.489Z</time>
      </trkpt>
      <trkpt lat="41.53603" lon="20.5864">
        <ele>629.844477</ele>
        <time>2022-04-26T09:58:14.479Z</time>
      </trkpt>
      <trkpt lat="41.53598" lon="20.58628">
        <ele>629.862492</ele>
        <time>2022-04-26T09:58:16.490Z</time>
      </trkpt>
      <trkpt lat="41.53593" lon="20.58615">
        <ele>629.881311</ele>
        <time>2022-04-26T09:58:18.469Z</time>
      </trkpt>
      <trkpt lat="41.53588" lon="20.58602">
        <ele>629.900084</ele>
        <time>2022-04-26T09:58:20.484Z</time>
      </trkpt>
      <trkpt lat="41.53583" lon="20.5859">
        <ele>629.919417</ele>
        <time>2022-04-26T09:58:22.480Z</time>
      </trkpt>
      <trkpt lat="41.53577" lon="20.58577">
        <ele>629.939098</ele>
        <time>2022-04-26T09:58:24.460Z</time>
      </trkpt>
      <trkpt lat="41.53571" lon="20.58563">
        <ele>629.959725</ele>
        <time>2022-04-26T09:58:26.487Z</time>
      </trkpt>
      <trkpt lat="41.53566" lon="20.5855">
        <ele>629.979603</ele>
        <time>2022-04-26T09:58:28.476Z</time>
      </trkpt>
      <trkpt lat="41.53561" lon="20.58536">
        <ele>629.670079</ele>
        <time>2022-04-26T09:58:30.483Z</time>
      </trkpt>
      <trkpt lat="41.53556" lon="20.58523">
        <ele>629.358637</ele>
        <time>2022-04-26T09:58:32.471Z</time>
      </trkpt>
      <trkpt lat="41.53551" lon="20.5851">
        <ele>629.042625</ele>
        <time>2022-04-26T09:58:34.482Z</time>
      </trkpt>
      <trkpt lat="41.53546" lon="20.58497">
        <ele>628.729245</ele>
        <time>2022-04-26T09:58:36.476Z</time>
      </trkpt>
      <trkpt lat="41.53541" lon="20.58484">
        <ele>628.408722</ele>
        <time>2022-04-26T09:58:38.541Z</time>
      </trkpt>
      <trkpt lat="41.53535" lon="20.5847">
        <ele>628.057609</ele>
        <time>2022-04-26T09:58:40.473Z</time>
      </trkpt>
      <trkpt lat="41.53529" lon="20.58457">
        <ele>627.727219</ele>
        <time>2022-04-26T09:58:42.465Z</time>
      </trkpt>
      <trkpt lat="41.53524" lon="20.58444">
        <ele>627.414265</ele>
        <time>2022-04-26T09:58:44.470Z</time>
      </trkpt>
      <trkpt lat="41.53519" lon="20.58431">
        <ele>627.087156</ele>
        <time>2022-04-26T09:58:46.479Z</time>
      </trkpt>
      <trkpt lat="41.53513" lon="20.58417">
        <ele>626.740676</ele>
        <time>2022-04-26T09:58:48.482Z</time>
      </trkpt>
      <trkpt lat="41.53507" lon="20.58403">
        <ele>626.395701</ele>
        <time>2022-04-26T09:58:50.478Z</time>
      </trkpt>
      <trkpt lat="41.53501" lon="20.58387">
        <ele>626.020934</ele>
        <time>2022-04-26T09:58:52.479Z</time>
      </trkpt>
      <trkpt lat="41.53494" lon="20.58372">
        <ele>625.622152</ele>
        <time>2022-04-26T09:58:54.476Z</time>
      </trkpt>
      <trkpt lat="41.53487" lon="20.58357">
        <ele>625.240797</ele>
        <time>2022-04-26T09:58:56.481Z</time>
      </trkpt>
      <trkpt lat="41.5348" lon="20.58342">
        <ele>624.863162</ele>
        <time>2022-04-26T09:58:58.487Z</time>
      </trkpt>
      <trkpt lat="41.53474" lon="20.58327">
        <ele>624.619598</ele>
        <time>2022-04-26T09:59:00.525Z</time>
      </trkpt>
      <trkpt lat="41.53467" lon="20.58313">
        <ele>624.408308</ele>
        <time>2022-04-26T09:59:02.468Z</time>
      </trkpt>
      <trkpt lat="41.53462" lon="20.58299">
        <ele>624.203918</ele>
        <time>2022-04-26T09:59:04.470Z</time>
      </trkpt>
      <trkpt lat="41.53456" lon="20.58285">
        <ele>624.003862</ele>
        <time>2022-04-26T09:59:06.489Z</time>
      </trkpt>
      <trkpt lat="41.53451" lon="20.58271">
        <ele>623.813876</ele>
        <time>2022-04-26T09:59:08.478Z</time>
      </trkpt>
      <trkpt lat="41.53447" lon="20.58258">
        <ele>623.636548</ele>
        <time>2022-04-26T09:59:10.500Z</time>
      </trkpt>
      <trkpt lat="41.53444" lon="20.58245">
        <ele>623.464719</ele>
        <time>2022-04-26T09:59:12.475Z</time>
      </trkpt>
      <trkpt lat="41.5344" lon="20.58233">
        <ele>623.2982</ele>
        <time>2022-04-26T09:59:14.470Z</time>
      </trkpt>
      <trkpt lat="41.53437" lon="20.58222">
        <ele>623.14281</ele>
        <time>2022-04-26T09:59:16.469Z</time>
      </trkpt>
      <trkpt lat="41.53432" lon="20.58205">
        <ele>622.921793</ele>
        <time>2022-04-26T09:59:19.485Z</time>
      </trkpt>
      <trkpt lat="41.53429" lon="20.5819">
        <ele>622.72154</ele>
        <time>2022-04-26T09:59:22.460Z</time>
      </trkpt>
      <trkpt lat="41.53426" lon="20.58175">
        <ele>622.523864</ele>
        <time>2022-04-26T09:59:25.500Z</time>
      </trkpt>
      <trkpt lat="41.53422" lon="20.58159">
        <ele>622.304545</ele>
        <time>2022-04-26T09:59:28.503Z</time>
      </trkpt>
      <trkpt lat="41.53417" lon="20.58144">
        <ele>622.10072</ele>
        <time>2022-04-26T09:59:31.467Z</time>
      </trkpt>
      <trkpt lat="41.53411" lon="20.5813">
        <ele>621.899237</ele>
        <time>2022-04-26T09:59:34.490Z</time>
      </trkpt>
      <trkpt lat="41.53404" lon="20.58118">
        <ele>621.77884</ele>
        <time>2022-04-26T09:59:37.477Z</time>
      </trkpt>
      <trkpt lat="41.53394" lon="20.58107">
        <ele>621.920853</ele>
        <time>2022-04-26T09:59:40.473Z</time>
      </trkpt>
      <trkpt lat="41.53383" lon="20.58099">
        <ele>622.059585</ele>
        <time>2022-04-26T09:59:43.485Z</time>
      </trkpt>
      <trkpt lat="41.53371" lon="20.58092">
        <ele>622.203939</ele>
        <time>2022-04-26T09:59:46.481Z</time>
      </trkpt>
      <trkpt lat="41.53359" lon="20.58087">
        <ele>622.346837</ele>
        <time>2022-04-26T09:59:49.494Z</time>
      </trkpt>
      <trkpt lat="41.53347" lon="20.58083">
        <ele>622.488684</ele>
        <time>2022-04-26T09:59:52.473Z</time>
      </trkpt>
      <trkpt lat="41.53335" lon="20.58081">
        <ele>622.620646</ele>
        <time>2022-04-26T09:59:55.490Z</time>
      </trkpt>
      <trkpt lat="41.53322" lon="20.5808">
        <ele>622.759381</ele>
        <time>2022-04-26T09:59:58.516Z</time>
      </trkpt>
      <trkpt lat="41.5331" lon="20.5808">
        <ele>622.903582</ele>
        <time>2022-04-26T10:00:01.455Z</time>
      </trkpt>
      <trkpt lat="41.53297" lon="20.5808">
        <ele>623.047939</ele>
        <time>2022-04-26T10:00:04.489Z</time>
      </trkpt>
      <trkpt lat="41.53284" lon="20.58078">
        <ele>623.194719</ele>
        <time>2022-04-26T10:00:07.493Z</time>
      </trkpt>
      <trkpt lat="41.53271" lon="20.58076">
        <ele>623.333331</ele>
        <time>2022-04-26T10:00:10.474Z</time>
      </trkpt>
      <trkpt lat="41.53259" lon="20.58075">
        <ele>623.47251</ele>
        <time>2022-04-26T10:00:13.477Z</time>
      </trkpt>
      <trkpt lat="41.53246" lon="20.58072">
        <ele>623.620433</ele>
        <time>2022-04-26T10:00:16.490Z</time>
      </trkpt>
      <trkpt lat="41.53233" lon="20.58068">
        <ele>623.720531</ele>
        <time>2022-04-26T10:00:19.491Z</time>
      </trkpt>
      <trkpt lat="41.53221" lon="20.58062">
        <ele>623.256361</ele>
        <time>2022-04-26T10:00:22.494Z</time>
      </trkpt>
      <trkpt lat="41.53211" lon="20.58055">
        <ele>622.83858</ele>
        <time>2022-04-26T10:00:25.507Z</time>
      </trkpt>
      <trkpt lat="41.53201" lon="20.58049">
        <ele>622.442851</ele>
        <time>2022-04-26T10:00:28.482Z</time>
      </trkpt>
      <trkpt lat="41.53192" lon="20.58044">
        <ele>622.074767</ele>
        <time>2022-04-26T10:00:31.481Z</time>
      </trkpt>
      <trkpt lat="41.53182" lon="20.5804">
        <ele>621.706556</ele>
        <time>2022-04-26T10:00:34.485Z</time>
      </trkpt>
      <trkpt lat="41.53172" lon="20.58038">
        <ele>621.333985</ele>
        <time>2022-04-26T10:00:37.469Z</time>
      </trkpt>
      <trkpt lat="41.53162" lon="20.58036">
        <ele>620.952925</ele>
        <time>2022-04-26T10:00:40.523Z</time>
      </trkpt>
      <trkpt lat="41.53151" lon="20.58034">
        <ele>620.547311</ele>
        <time>2022-04-26T10:00:43.478Z</time>
      </trkpt>
      <trkpt lat="41.5314" lon="20.58032">
        <ele>620.14405</ele>
        <time>2022-04-26T10:00:46.471Z</time>
      </trkpt>
      <trkpt lat="41.53131" lon="20.5803">
        <ele>619.781328</ele>
        <time>2022-04-26T10:00:49.480Z</time>
      </trkpt>
      <trkpt lat="41.53121" lon="20.58026">
        <ele>619.42447</ele>
        <time>2022-04-26T10:00:52.481Z</time>
      </trkpt>
      <trkpt lat="41.53111" lon="20.58021">
        <ele>619.036274</ele>
        <time>2022-04-26T10:00:55.480Z</time>
      </trkpt>
      <trkpt lat="41.53101" lon="20.58014">
        <ele>618.616532</ele>
        <time>2022-04-26T10:00:58.468Z</time>
      </trkpt>
      <trkpt lat="41.53091" lon="20.58007">
        <ele>618.206993</ele>
        <time>2022-04-26T10:01:01.478Z</time>
      </trkpt>
      <trkpt lat="41.53082" lon="20.58001">
        <ele>617.837674</ele>
        <time>2022-04-26T10:01:04.492Z</time>
      </trkpt>
      <trkpt lat="41.53073" lon="20.57995">
        <ele>617.4646</ele>
        <time>2022-04-26T10:01:07.471Z</time>
      </trkpt>
      <trkpt lat="41.53063" lon="20.57985">
        <ele>617.204325</ele>
        <time>2022-04-26T10:01:10.473Z</time>
      </trkpt>
      <trkpt lat="41.53053" lon="20.5798">
        <ele>617.355094</ele>
        <time>2022-04-26T10:01:13.482Z</time>
      </trkpt>
      <trkpt lat="41.53043" lon="20.57978">
        <ele>617.48659</ele>
        <time>2022-04-26T10:01:16.461Z</time>
      </trkpt>
      <trkpt lat="41.53034" lon="20.57976">
        <ele>617.612828</ele>
        <time>2022-04-26T10:01:19.514Z</time>
      </trkpt>
      <trkpt lat="41.53024" lon="20.57976">
        <ele>617.75296</ele>
        <time>2022-04-26T10:01:22.484Z</time>
      </trkpt>
      <trkpt lat="41.53013" lon="20.57975">
        <ele>617.89998</ele>
        <time>2022-04-26T10:01:25.477Z</time>
      </trkpt>
      <trkpt lat="41.53002" lon="20.57973">
        <ele>618.058709</ele>
        <time>2022-04-26T10:01:28.475Z</time>
      </trkpt>
      <trkpt lat="41.52991" lon="20.57971">
        <ele>618.202869</ele>
        <time>2022-04-26T10:01:31.486Z</time>
      </trkpt>
      <trkpt lat="41.52981" lon="20.5797">
        <ele>618.343932</ele>
        <time>2022-04-26T10:01:34.490Z</time>
      </trkpt>
      <trkpt lat="41.5297" lon="20.57966">
        <ele>618.492749</ele>
        <time>2022-04-26T10:01:37.459Z</time>
      </trkpt>
      <trkpt lat="41.5296" lon="20.57963">
        <ele>618.63304</ele>
        <time>2022-04-26T10:01:40.478Z</time>
      </trkpt>
      <trkpt lat="41.52952" lon="20.57957">
        <ele>618.762639</ele>
        <time>2022-04-26T10:01:43.485Z</time>
      </trkpt>
      <trkpt lat="41.52942" lon="20.5795">
        <ele>618.909859</ele>
        <time>2022-04-26T10:01:46.521Z</time>
      </trkpt>
      <trkpt lat="41.52932" lon="20.57943">
        <ele>619.06037</ele>
        <time>2022-04-26T10:01:49.483Z</time>
      </trkpt>
      <trkpt lat="41.52923" lon="20.57934">
        <ele>619.211883</ele>
        <time>2022-04-26T10:01:52.478Z</time>
      </trkpt>
      <trkpt lat="41.52916" lon="20.57925">
        <ele>619.344856</ele>
        <time>2022-04-26T10:01:55.488Z</time>
      </trkpt>
      <trkpt lat="41.52908" lon="20.57915">
        <ele>619.500934</ele>
        <time>2022-04-26T10:01:58.484Z</time>
      </trkpt>
      <trkpt lat="41.529" lon="20.57903">
        <ele>619.671525</ele>
        <time>2022-04-26T10:02:01.482Z</time>
      </trkpt>
      <trkpt lat="41.52894" lon="20.5789">
        <ele>619.834853</ele>
        <time>2022-04-26T10:02:04.514Z</time>
      </trkpt>
      <trkpt lat="41.52887" lon="20.57877">
        <ele>620.014498</ele>
        <time>2022-04-26T10:02:07.483Z</time>
      </trkpt>
      <trkpt lat="41.5288" lon="20.57864">
        <ele>620.192485</ele>
        <time>2022-04-26T10:02:10.477Z</time>
      </trkpt>
      <trkpt lat="41.52873" lon="20.57851">
        <ele>620.357323</ele>
        <time>2022-04-26T10:02:13.483Z</time>
      </trkpt>
      <trkpt lat="41.52867" lon="20.57839">
        <ele>620.525635</ele>
        <time>2022-04-26T10:02:16.502Z</time>
      </trkpt>
      <trkpt lat="41.5286" lon="20.57827">
        <ele>620.686779</ele>
        <time>2022-04-26T10:02:19.539Z</time>
      </trkpt>
      <trkpt lat="41.52854" lon="20.57815">
        <ele>620.846167</ele>
        <time>2022-04-26T10:02:22.503Z</time>
      </trkpt>
      <trkpt lat="41.52847" lon="20.57804">
        <ele>621.005555</ele>
        <time>2022-04-26T10:02:25.479Z</time>
      </trkpt>
      <trkpt lat="41.52841" lon="20.57792">
        <ele>621.164391</ele>
        <time>2022-04-26T10:02:28.476Z</time>
      </trkpt>
      <trkpt lat="41.52835" lon="20.57779">
        <ele>621.32772</ele>
        <time>2022-04-26T10:02:31.491Z</time>
      </trkpt>
      <trkpt lat="41.5283" lon="20.57767">
        <ele>621.489845</ele>
        <time>2022-04-26T10:02:34.470Z</time>
      </trkpt>
      <trkpt lat="41.52823" lon="20.57755">
        <ele>621.65454</ele>
        <time>2022-04-26T10:02:37.474Z</time>
      </trkpt>
      <trkpt lat="41.52817" lon="20.57744">
        <ele>621.796584</ele>
        <time>2022-04-26T10:02:40.486Z</time>
      </trkpt>
      <trkpt lat="41.52813" lon="20.57733">
        <ele>621.938325</ele>
        <time>2022-04-26T10:02:43.462Z</time>
      </trkpt>
      <trkpt lat="41.52807" lon="20.57722">
        <ele>622.08314</ele>
        <time>2022-04-26T10:02:46.489Z</time>
      </trkpt>
      <trkpt lat="41.52802" lon="20.57712">
        <ele>622.215237</ele>
        <time>2022-04-26T10:02:49.483Z</time>
      </trkpt>
      <trkpt lat="41.52796" lon="20.57703">
        <ele>622.902159</ele>
        <time>2022-04-26T10:02:52.502Z</time>
      </trkpt>
      <trkpt lat="41.52789" lon="20.57691">
        <ele>623.856231</ele>
        <time>2022-04-26T10:02:56.481Z</time>
      </trkpt>
      <trkpt lat="41.52782" lon="20.57682">
        <ele>624.621589</ele>
        <time>2022-04-26T10:02:59.492Z</time>
      </trkpt>
      <trkpt lat="41.52775" lon="20.5767">
        <ele>625.62426</ele>
        <time>2022-04-26T10:03:03.474Z</time>
      </trkpt>
      <trkpt lat="41.52768" lon="20.5766">
        <ele>626.458445</ele>
        <time>2022-04-26T10:03:06.478Z</time>
      </trkpt>
      <trkpt lat="41.52763" lon="20.5765">
        <ele>627.225545</ele>
        <time>2022-04-26T10:03:09.478Z</time>
      </trkpt>
      <trkpt lat="41.52755" lon="20.57639">
        <ele>628.161001</ele>
        <time>2022-04-26T10:03:13.526Z</time>
      </trkpt>
      <trkpt lat="41.52749" lon="20.57629">
        <ele>629.017335</ele>
        <time>2022-04-26T10:03:17.468Z</time>
      </trkpt>
      <trkpt lat="41.52741" lon="20.5762">
        <ele>629.858509</ele>
        <time>2022-04-26T10:03:21.472Z</time>
      </trkpt>
      <trkpt lat="41.52731" lon="20.57614">
        <ele>630.781948</ele>
        <time>2022-04-26T10:03:25.528Z</time>
      </trkpt>
      <trkpt lat="41.52721" lon="20.57609">
        <ele>631.665344</ele>
        <time>2022-04-26T10:03:29.477Z</time>
      </trkpt>
      <trkpt lat="41.52711" lon="20.57606">
        <ele>632.527048</ele>
        <time>2022-04-26T10:03:33.481Z</time>
      </trkpt>
      <trkpt lat="41.527" lon="20.57605">
        <ele>633.448575</ele>
        <time>2022-04-26T10:03:37.494Z</time>
      </trkpt>
      <trkpt lat="41.52689" lon="20.57605">
        <ele>634.400468</ele>
        <time>2022-04-26T10:03:41.469Z</time>
      </trkpt>
      <trkpt lat="41.5268" lon="20.57607">
        <ele>635.181562</ele>
        <time>2022-04-26T10:03:44.480Z</time>
      </trkpt>
      <trkpt lat="41.5267" lon="20.57609">
        <ele>636.007122</ele>
        <time>2022-04-26T10:03:47.479Z</time>
      </trkpt>
      <trkpt lat="41.52659" lon="20.57612">
        <ele>636.985555</ele>
        <time>2022-04-26T10:03:51.488Z</time>
      </trkpt>
      <trkpt lat="41.5265" lon="20.57614">
        <ele>637.452338</ele>
        <time>2022-04-26T10:03:54.483Z</time>
      </trkpt>
      <trkpt lat="41.5264" lon="20.57616">
        <ele>637.591014</ele>
        <time>2022-04-26T10:03:57.481Z</time>
      </trkpt>
      <trkpt lat="41.52631" lon="20.57617">
        <ele>637.732557</ele>
        <time>2022-04-26T10:04:00.473Z</time>
      </trkpt>
      <trkpt lat="41.5262" lon="20.57616">
        <ele>637.897737</ele>
        <time>2022-04-26T10:04:04.516Z</time>
      </trkpt>
      <trkpt lat="41.52609" lon="20.57613">
        <ele>638.061143</ele>
        <time>2022-04-26T10:04:08.488Z</time>
      </trkpt>
      <trkpt lat="41.526" lon="20.57611">
        <ele>638.197354</ele>
        <time>2022-04-26T10:04:11.481Z</time>
      </trkpt>
      <trkpt lat="41.52588" lon="20.57606">
        <ele>638.374217</ele>
        <time>2022-04-26T10:04:15.529Z</time>
      </trkpt>
      <trkpt lat="41.52578" lon="20.57601">
        <ele>638.543064</ele>
        <time>2022-04-26T10:04:19.473Z</time>
      </trkpt>
      <trkpt lat="41.52569" lon="20.57595">
        <ele>638.688494</ele>
        <time>2022-04-26T10:04:22.471Z</time>
      </trkpt>
      <trkpt lat="41.5256" lon="20.5759">
        <ele>638.821376</ele>
        <time>2022-04-26T10:04:25.485Z</time>
      </trkpt>
      <trkpt lat="41.52551" lon="20.57584">
        <ele>638.981338</ele>
        <time>2022-04-26T10:04:29.475Z</time>
      </trkpt>
      <trkpt lat="41.52541" lon="20.57578">
        <ele>639.132734</ele>
        <time>2022-04-26T10:04:33.480Z</time>
      </trkpt>
      <trkpt lat="41.52532" lon="20.57572">
        <ele>639.283643</ele>
        <time>2022-04-26T10:04:37.524Z</time>
      </trkpt>
      <trkpt lat="41.52523" lon="20.57567">
        <ele>639.431829</ele>
        <time>2022-04-26T10:04:41.479Z</time>
      </trkpt>
      <trkpt lat="41.52512" lon="20.57561">
        <ele>639.598813</ele>
        <time>2022-04-26T10:04:45.488Z</time>
      </trkpt>
      <trkpt lat="41.52502" lon="20.57555">
        <ele>639.763575</ele>
        <time>2022-04-26T10:04:49.497Z</time>
      </trkpt>
      <trkpt lat="41.52492" lon="20.57549">
        <ele>639.926548</ele>
        <time>2022-04-26T10:04:53.516Z</time>
      </trkpt>
      <trkpt lat="41.52483" lon="20.57543">
        <ele>640.024016</ele>
        <time>2022-04-26T10:04:57.468Z</time>
      </trkpt>
      <trkpt lat="41.52475" lon="20.57536">
        <ele>639.972041</ele>
        <time>2022-04-26T10:05:01.479Z</time>
      </trkpt>
      <trkpt lat="41.52467" lon="20.57529">
        <ele>639.918041</ele>
        <time>2022-04-26T10:05:05.479Z</time>
      </trkpt>
      <trkpt lat="41.52459" lon="20.57521">
        <ele>639.866437</ele>
        <time>2022-04-26T10:05:09.488Z</time>
      </trkpt>
      <trkpt lat="41.52452" lon="20.57512">
        <ele>639.809261</ele>
        <time>2022-04-26T10:05:13.481Z</time>
      </trkpt>
      <trkpt lat="41.52443" lon="20.57503">
        <ele>639.752637</ele>
        <time>2022-04-26T10:05:17.474Z</time>
      </trkpt>
      <trkpt lat="41.52435" lon="20.57493">
        <ele>639.690552</ele>
        <time>2022-04-26T10:05:21.481Z</time>
      </trkpt>
      <trkpt lat="41.52428" lon="20.57482">
        <ele>639.630719</ele>
        <time>2022-04-26T10:05:25.498Z</time>
      </trkpt>
      <trkpt lat="41.52423" lon="20.57469">
        <ele>639.571224</ele>
        <time>2022-04-26T10:05:29.488Z</time>
      </trkpt>
      <trkpt lat="41.52417" lon="20.57456">
        <ele>639.508988</ele>
        <time>2022-04-26T10:05:33.480Z</time>
      </trkpt>
      <trkpt lat="41.52411" lon="20.57441">
        <ele>639.442844</ele>
        <time>2022-04-26T10:05:37.490Z</time>
      </trkpt>
      <trkpt lat="41.52407" lon="20.57427">
        <ele>639.379158</ele>
        <time>2022-04-26T10:05:41.530Z</time>
      </trkpt>
      <trkpt lat="41.52403" lon="20.57412">
        <ele>639.316428</ele>
        <time>2022-04-26T10:05:45.492Z</time>
      </trkpt>
      <trkpt lat="41.52399" lon="20.57398">
        <ele>639.251519</ele>
        <time>2022-04-26T10:05:49.470Z</time>
      </trkpt>
      <trkpt lat="41.52394" lon="20.57387">
        <ele>639.198185</ele>
        <time>2022-04-26T10:05:52.500Z</time>
      </trkpt>
      <trkpt lat="41.52388" lon="20.57373">
        <ele>639.134887</ele>
        <time>2022-04-26T10:05:56.479Z</time>
      </trkpt>
      <trkpt lat="41.52381" lon="20.57363">
        <ele>639.076939</ele>
        <time>2022-04-26T10:06:00.489Z</time>
      </trkpt>
      <trkpt lat="41.52373" lon="20.57352">
        <ele>638.841409</ele>
        <time>2022-04-26T10:06:04.472Z</time>
      </trkpt>
      <trkpt lat="41.52366" lon="20.57341">
        <ele>638.510276</ele>
        <time>2022-04-26T10:06:08.474Z</time>
      </trkpt>
      <trkpt lat="41.52359" lon="20.57331">
        <ele>638.215907</ele>
        <time>2022-04-26T10:06:11.527Z</time>
      </trkpt>
      <trkpt lat="41.52351" lon="20.57323">
        <ele>637.924771</ele>
        <time>2022-04-26T10:06:14.519Z</time>
      </trkpt>
      <trkpt lat="41.52343" lon="20.57314">
        <ele>637.609818</ele>
        <time>2022-04-26T10:06:17.482Z</time>
      </trkpt>
      <trkpt lat="41.52333" lon="20.57304">
        <ele>637.23539</ele>
        <time>2022-04-26T10:06:20.529Z</time>
      </trkpt>
      <trkpt lat="41.52323" lon="20.57296">
        <ele>636.893781</ele>
        <time>2022-04-26T10:06:23.472Z</time>
      </trkpt>
      <trkpt lat="41.52314" lon="20.57288">
        <ele>636.55839</ele>
        <time>2022-04-26T10:06:27.485Z</time>
      </trkpt>
      <trkpt lat="41.52304" lon="20.5728">
        <ele>636.22374</ele>
        <time>2022-04-26T10:06:31.498Z</time>
      </trkpt>
      <trkpt lat="41.52295" lon="20.57273">
        <ele>635.916806</ele>
        <time>2022-04-26T10:06:34.482Z</time>
      </trkpt>
      <trkpt lat="41.52286" lon="20.57264">
        <ele>635.567866</ele>
        <time>2022-04-26T10:06:37.522Z</time>
      </trkpt>
      <trkpt lat="41.52276" lon="20.57256">
        <ele>635.237373</ele>
        <time>2022-04-26T10:06:40.491Z</time>
      </trkpt>
      <trkpt lat="41.52267" lon="20.57248">
        <ele>634.911786</ele>
        <time>2022-04-26T10:06:43.476Z</time>
      </trkpt>
      <trkpt lat="41.52259" lon="20.57239">
        <ele>634.597135</ele>
        <time>2022-04-26T10:06:46.485Z</time>
      </trkpt>
      <trkpt lat="41.5225" lon="20.57231">
        <ele>634.272653</ele>
        <time>2022-04-26T10:06:49.524Z</time>
      </trkpt>
      <trkpt lat="41.52242" lon="20.5722">
        <ele>633.926271</ele>
        <time>2022-04-26T10:06:52.493Z</time>
      </trkpt>
      <trkpt lat="41.52233" lon="20.57207">
        <ele>633.676448</ele>
        <time>2022-04-26T10:06:55.495Z</time>
      </trkpt>
      <trkpt lat="41.52227" lon="20.57198">
        <ele>633.630024</ele>
        <time>2022-04-26T10:06:57.477Z</time>
      </trkpt>
      <trkpt lat="41.52218" lon="20.57185">
        <ele>633.56357</ele>
        <time>2022-04-26T10:07:00.507Z</time>
      </trkpt>
      <trkpt lat="41.52212" lon="20.57175">
        <ele>633.511199</ele>
        <time>2022-04-26T10:07:03.503Z</time>
      </trkpt>
      <trkpt lat="41.52206" lon="20.57165">
        <ele>633.464057</ele>
        <time>2022-04-26T10:07:06.470Z</time>
      </trkpt>
      <trkpt lat="41.522" lon="20.57154">
        <ele>633.411403</ele>
        <time>2022-04-26T10:07:09.476Z</time>
      </trkpt>
      <trkpt lat="41.52194" lon="20.57141">
        <ele>633.353236</ele>
        <time>2022-04-26T10:07:12.468Z</time>
      </trkpt>
      <trkpt lat="41.52187" lon="20.57128">
        <ele>633.292906</ele>
        <time>2022-04-26T10:07:15.492Z</time>
      </trkpt>
      <trkpt lat="41.52179" lon="20.57114">
        <ele>633.227087</ele>
        <time>2022-04-26T10:07:18.504Z</time>
      </trkpt>
      <trkpt lat="41.52175" lon="20.57103">
        <ele>633.179058</ele>
        <time>2022-04-26T10:07:20.488Z</time>
      </trkpt>
      <trkpt lat="41.52172" lon="20.57091">
        <ele>633.12834</ele>
        <time>2022-04-26T10:07:22.497Z</time>
      </trkpt>
      <trkpt lat="41.5217" lon="20.57078">
        <ele>633.077874</ele>
        <time>2022-04-26T10:07:24.483Z</time>
      </trkpt>
      <trkpt lat="41.52169" lon="20.57065">
        <ele>633.029137</ele>
        <time>2022-04-26T10:07:26.478Z</time>
      </trkpt>
      <trkpt lat="41.52169" lon="20.5705">
        <ele>632.971003</ele>
        <time>2022-04-26T10:07:29.478Z</time>
      </trkpt>
      <trkpt lat="41.52169" lon="20.57036">
        <ele>632.918613</ele>
        <time>2022-04-26T10:07:32.483Z</time>
      </trkpt>
      <trkpt lat="41.52171" lon="20.57023">
        <ele>632.868988</ele>
        <time>2022-04-26T10:07:35.483Z</time>
      </trkpt>
      <trkpt lat="41.52171" lon="20.57008">
        <ele>632.810719</ele>
        <time>2022-04-26T10:07:39.464Z</time>
      </trkpt>
      <trkpt lat="41.5217" lon="20.56993">
        <ele>632.984485</ele>
        <time>2022-04-26T10:07:43.484Z</time>
      </trkpt>
      <trkpt lat="41.52174" lon="20.56979">
        <ele>633.314804</ele>
        <time>2022-04-26T10:07:46.480Z</time>
      </trkpt>
      <trkpt lat="41.52176" lon="20.56964">
        <ele>633.652691</ele>
        <time>2022-04-26T10:07:49.478Z</time>
      </trkpt>
      <trkpt lat="41.52177" lon="20.5695">
        <ele>633.975068</ele>
        <time>2022-04-26T10:07:52.475Z</time>
      </trkpt>
      <trkpt lat="41.52179" lon="20.56937">
        <ele>634.273706</ele>
        <time>2022-04-26T10:07:55.493Z</time>
      </trkpt>
      <trkpt lat="41.5218" lon="20.56923">
        <ele>634.577482</ele>
        <time>2022-04-26T10:07:58.494Z</time>
      </trkpt>
      <trkpt lat="41.52181" lon="20.56909">
        <ele>634.903111</ele>
        <time>2022-04-26T10:08:01.508Z</time>
      </trkpt>
      <trkpt lat="41.52182" lon="20.56895">
        <ele>635.230336</ele>
        <time>2022-04-26T10:08:04.491Z</time>
      </trkpt>
      <trkpt lat="41.52184" lon="20.56879">
        <ele>635.593173</ele>
        <time>2022-04-26T10:08:07.500Z</time>
      </trkpt>
      <trkpt lat="41.52185" lon="20.56863">
        <ele>635.952738</ele>
        <time>2022-04-26T10:08:10.479Z</time>
      </trkpt>
      <trkpt lat="41.52186" lon="20.56848">
        <ele>636.293761</ele>
        <time>2022-04-26T10:08:13.496Z</time>
      </trkpt>
      <trkpt lat="41.52188" lon="20.56832">
        <ele>636.643345</ele>
        <time>2022-04-26T10:08:16.490Z</time>
      </trkpt>
      <trkpt lat="41.5219" lon="20.56818">
        <ele>636.971166</ele>
        <time>2022-04-26T10:08:19.492Z</time>
      </trkpt>
      <trkpt lat="41.52191" lon="20.56804">
        <ele>637.291306</ele>
        <time>2022-04-26T10:08:22.469Z</time>
      </trkpt>
      <trkpt lat="41.52193" lon="20.56789">
        <ele>637.628722</ele>
        <time>2022-04-26T10:08:25.497Z</time>
      </trkpt>
      <trkpt lat="41.52195" lon="20.56775">
        <ele>637.945114</ele>
        <time>2022-04-26T10:08:28.473Z</time>
      </trkpt>
      <trkpt lat="41.52197" lon="20.56762">
        <ele>638.280932</ele>
        <time>2022-04-26T10:08:31.482Z</time>
      </trkpt>
      <trkpt lat="41.52198" lon="20.5675">
        <ele>638.761872</ele>
        <time>2022-04-26T10:08:34.466Z</time>
      </trkpt>
      <trkpt lat="41.52199" lon="20.56738">
        <ele>639.22301</ele>
        <time>2022-04-26T10:08:37.520Z</time>
      </trkpt>
      <trkpt lat="41.52201" lon="20.56722">
        <ele>639.80942</ele>
        <time>2022-04-26T10:08:41.483Z</time>
      </trkpt>
      <trkpt lat="41.52202" lon="20.56708">
        <ele>640.361851</ele>
        <time>2022-04-26T10:08:45.503Z</time>
      </trkpt>
      <trkpt lat="41.52203" lon="20.56695">
        <ele>640.857138</ele>
        <time>2022-04-26T10:08:49.476Z</time>
      </trkpt>
      <trkpt lat="41.52204" lon="20.5668">
        <ele>641.416274</ele>
        <time>2022-04-26T10:08:54.466Z</time>
      </trkpt>
      <trkpt lat="41.52204" lon="20.56668">
        <ele>641.872947</ele>
        <time>2022-04-26T10:08:59.476Z</time>
      </trkpt>
      <trkpt lat="41.52202" lon="20.56655">
        <ele>642.37351</ele>
        <time>2022-04-26T10:09:04.473Z</time>
      </trkpt>
      <trkpt lat="41.52198" lon="20.56645">
        <ele>642.836524</ele>
        <time>2022-04-26T10:09:09.473Z</time>
      </trkpt>
      <trkpt lat="41.52192" lon="20.56635">
        <ele>643.296151</ele>
        <time>2022-04-26T10:09:14.509Z</time>
      </trkpt>
      <trkpt lat="41.52186" lon="20.56627">
        <ele>643.762515</ele>
        <time>2022-04-26T10:09:19.488Z</time>
      </trkpt>
      <trkpt lat="41.52176" lon="20.56622">
        <ele>644.30053</ele>
        <time>2022-04-26T10:09:24.478Z</time>
      </trkpt>
      <trkpt lat="41.52167" lon="20.56617">
        <ele>644.806037</ele>
        <time>2022-04-26T10:09:29.482Z</time>
      </trkpt>
      <trkpt lat="41.52158" lon="20.56612">
        <ele>645.297863</ele>
        <time>2022-04-26T10:09:35.499Z</time>
      </trkpt>
      <trkpt lat="41.52148" lon="20.56608">
        <ele>645.781742</ele>
        <time>2022-04-26T10:09:41.494Z</time>
      </trkpt>
      <trkpt lat="41.52139" lon="20.56605">
        <ele>646.254834</ele>
        <time>2022-04-26T10:09:47.468Z</time>
      </trkpt>
      <trkpt lat="41.5213" lon="20.56602">
        <ele>646.761014</ele>
        <time>2022-04-26T10:09:54.481Z</time>
      </trkpt>
      <trkpt lat="41.52122" lon="20.56595">
        <ele>647.255122</ele>
        <time>2022-04-26T10:10:01.487Z</time>
      </trkpt>
      <trkpt lat="41.52115" lon="20.56584">
        <ele>648.252596</ele>
        <time>2022-04-26T10:10:08.478Z</time>
      </trkpt>
      <trkpt lat="41.52112" lon="20.56572">
        <ele>649.21623</ele>
        <time>2022-04-26T10:10:14.484Z</time>
      </trkpt>
      <trkpt lat="41.52107" lon="20.56561">
        <ele>650.235673</ele>
        <time>2022-04-26T10:10:20.477Z</time>
      </trkpt>
      <trkpt lat="41.52103" lon="20.56549">
        <ele>651.199308</ele>
        <time>2022-04-26T10:10:26.482Z</time>
      </trkpt>
      <trkpt lat="41.521" lon="20.56538">
        <ele>652.188923</ele>
        <time>2022-04-26T10:10:33.506Z</time>
      </trkpt>
      <trkpt lat="41.52096" lon="20.56526">
        <ele>653.168381</ele>
        <time>2022-04-26T10:10:39.520Z</time>
      </trkpt>
      <trkpt lat="41.52092" lon="20.56514">
        <ele>654.153664</ele>
        <time>2022-04-26T10:10:46.486Z</time>
      </trkpt>
      <trkpt lat="41.52087" lon="20.56503">
        <ele>655.180951</ele>
        <time>2022-04-26T10:10:53.488Z</time>
      </trkpt>
      <trkpt lat="41.52082" lon="20.56491">
        <ele>656.219772</ele>
        <time>2022-04-26T10:11:00.493Z</time>
      </trkpt>
      <trkpt lat="41.52077" lon="20.5648">
        <ele>657.280194</ele>
        <time>2022-04-26T10:11:07.486Z</time>
      </trkpt>
      <trkpt lat="41.5207" lon="20.56471">
        <ele>658.278166</ele>
        <time>2022-04-26T10:11:14.491Z</time>
      </trkpt>
      <trkpt lat="41.52062" lon="20.56464">
        <ele>659.257787</ele>
        <time>2022-04-26T10:11:20.482Z</time>
      </trkpt>
      <trkpt lat="41.52053" lon="20.56457">
        <ele>660.302369</ele>
        <time>2022-04-26T10:11:27.481Z</time>
      </trkpt>
      <trkpt lat="41.52044" lon="20.5645">
        <ele>661.339957</ele>
        <time>2022-04-26T10:11:34.491Z</time>
      </trkpt>
      <trkpt lat="41.52037" lon="20.56442">
        <ele>662.302681</ele>
        <time>2022-04-26T10:11:41.515Z</time>
      </trkpt>
      <trkpt lat="41.52029" lon="20.56436">
        <ele>663.30514</ele>
        <time>2022-04-26T10:11:48.473Z</time>
      </trkpt>
      <trkpt lat="41.52019" lon="20.56432">
        <ele>664.356309</ele>
        <time>2022-04-26T10:11:56.484Z</time>
      </trkpt>
      <trkpt lat="41.5201" lon="20.56426">
        <ele>665.404044</ele>
        <time>2022-04-26T10:12:03.511Z</time>
      </trkpt>
      <trkpt lat="41.52001" lon="20.5642">
        <ele>666.254196</ele>
        <time>2022-04-26T10:12:09.488Z</time>
      </trkpt>
      <trkpt lat="41.51992" lon="20.56416">
        <ele>666.884712</ele>
        <time>2022-04-26T10:12:14.473Z</time>
      </trkpt>
      <trkpt lat="41.51983" lon="20.56409">
        <ele>667.593191</ele>
        <time>2022-04-26T10:12:20.518Z</time>
      </trkpt>
      <trkpt lat="41.51974" lon="20.56404">
        <ele>668.298704</ele>
        <time>2022-04-26T10:12:26.522Z</time>
      </trkpt>
      <trkpt lat="41.51964" lon="20.56399">
        <ele>669.006212</ele>
        <time>2022-04-26T10:12:32.486Z</time>
      </trkpt>
      <trkpt lat="41.51956" lon="20.56393">
        <ele>669.672536</ele>
        <time>2022-04-26T10:12:39.473Z</time>
      </trkpt>
      <trkpt lat="41.51947" lon="20.56386">
        <ele>670.348887</ele>
        <time>2022-04-26T10:12:47.486Z</time>
      </trkpt>
      <trkpt lat="41.51938" lon="20.56379">
        <ele>671.057472</ele>
        <time>2022-04-26T10:12:55.495Z</time>
      </trkpt>
      <trkpt lat="41.51932" lon="20.5637">
        <ele>671.672773</ele>
        <time>2022-04-26T10:13:02.476Z</time>
      </trkpt>
      <trkpt lat="41.51928" lon="20.5636">
        <ele>672.290144</ele>
        <time>2022-04-26T10:13:09.485Z</time>
      </trkpt>
      <trkpt lat="41.51921" lon="20.5635">
        <ele>672.961879</ele>
        <time>2022-04-26T10:13:17.465Z</time>
      </trkpt>
      <trkpt lat="41.51917" lon="20.56339">
        <ele>673.609525</ele>
        <time>2022-04-26T10:13:25.518Z</time>
      </trkpt>
      <trkpt lat="41.51913" lon="20.56327">
        <ele>674.248678</ele>
        <time>2022-04-26T10:13:33.479Z</time>
      </trkpt>
      <trkpt lat="41.5191" lon="20.56315">
        <ele>674.930988</ele>
        <time>2022-04-26T10:13:41.484Z</time>
      </trkpt>
      <trkpt lat="41.51907" lon="20.56302">
        <ele>675.599599</ele>
        <time>2022-04-26T10:13:49.480Z</time>
      </trkpt>
      <trkpt lat="41.51907" lon="20.56289">
        <ele>676.262042</ele>
        <time>2022-04-26T10:13:56.480Z</time>
      </trkpt>
      <trkpt lat="41.51906" lon="20.56277">
        <ele>676.906514</ele>
        <time>2022-04-26T10:14:04.494Z</time>
      </trkpt>
      <trkpt lat="41.51904" lon="20.56264">
        <ele>677.603844</ele>
        <time>2022-04-26T10:14:12.489Z</time>
      </trkpt>
      <trkpt lat="41.519" lon="20.56251">
        <ele>678.315182</ele>
        <time>2022-04-26T10:14:20.483Z</time>
      </trkpt>
      <trkpt lat="41.51896" lon="20.5624">
        <ele>679.017672</ele>
        <time>2022-04-26T10:14:28.491Z</time>
      </trkpt>
      <trkpt lat="41.51891" lon="20.56228">
        <ele>679.784241</ele>
        <time>2022-04-26T10:14:36.463Z</time>
      </trkpt>
      <trkpt lat="41.51886" lon="20.56218">
        <ele>680.474183</ele>
        <time>2022-04-26T10:14:43.468Z</time>
      </trkpt>
      <trkpt lat="41.5188" lon="20.56206">
        <ele>681.242485</ele>
        <time>2022-04-26T10:14:51.458Z</time>
      </trkpt>
      <trkpt lat="41.51875" lon="20.56196">
        <ele>681.971175</ele>
        <time>2022-04-26T10:14:59.446Z</time>
      </trkpt>
      <trkpt lat="41.5187" lon="20.56185">
        <ele>682.674712</ele>
        <time>2022-04-26T10:15:07.449Z</time>
      </trkpt>
      <trkpt lat="41.51866" lon="20.56173">
        <ele>683.435122</ele>
        <time>2022-04-26T10:15:15.456Z</time>
      </trkpt>
      <trkpt lat="41.51861" lon="20.56161">
        <ele>684.223908</ele>
        <time>2022-04-26T10:15:23.463Z</time>
      </trkpt>
      <trkpt lat="41.51857" lon="20.56148">
        <ele>684.997151</ele>
        <time>2022-04-26T10:15:31.458Z</time>
      </trkpt>
      <trkpt lat="41.51853" lon="20.56137">
        <ele>685.704825</ele>
        <time>2022-04-26T10:15:38.465Z</time>
      </trkpt>
      <trkpt lat="41.51849" lon="20.56126">
        <ele>686.401394</ele>
        <time>2022-04-26T10:15:45.455Z</time>
      </trkpt>
      <trkpt lat="41.51845" lon="20.56114">
        <ele>687.106121</ele>
        <time>2022-04-26T10:15:52.456Z</time>
      </trkpt>
      <trkpt lat="41.51843" lon="20.56102">
        <ele>687.80837</ele>
        <time>2022-04-26T10:16:00.452Z</time>
      </trkpt>
      <trkpt lat="41.5184" lon="20.5609">
        <ele>688.518286</ele>
        <time>2022-04-26T10:16:07.463Z</time>
      </trkpt>
      <trkpt lat="41.51837" lon="20.56078">
        <ele>689.23599</ele>
        <time>2022-04-26T10:16:14.453Z</time>
      </trkpt>
      <trkpt lat="41.51834" lon="20.56066">
        <ele>689.965072</ele>
        <time>2022-04-26T10:16:21.477Z</time>
      </trkpt>
      <trkpt lat="41.51832" lon="20.56054">
        <ele>690.676367</ele>
        <time>2022-04-26T10:16:28.480Z</time>
      </trkpt>
      <trkpt lat="41.51828" lon="20.56042">
        <ele>691.401777</ele>
        <time>2022-04-26T10:16:36.479Z</time>
      </trkpt>
      <trkpt lat="41.51827" lon="20.5603">
        <ele>692.080317</ele>
        <time>2022-04-26T10:16:43.468Z</time>
      </trkpt>
      <trkpt lat="41.51824" lon="20.56017">
        <ele>692.785404</ele>
        <time>2022-04-26T10:16:51.486Z</time>
      </trkpt>
      <trkpt lat="41.51822" lon="20.56005">
        <ele>693.462136</ele>
        <time>2022-04-26T10:16:58.455Z</time>
      </trkpt>
      <trkpt lat="41.51819" lon="20.55993">
        <ele>694.149576</ele>
        <time>2022-04-26T10:17:06.477Z</time>
      </trkpt>
      <trkpt lat="41.51816" lon="20.55981">
        <ele>694.846895</ele>
        <time>2022-04-26T10:17:15.491Z</time>
      </trkpt>
      <trkpt lat="41.51815" lon="20.55968">
        <ele>695.538162</ele>
        <time>2022-04-26T10:17:22.478Z</time>
      </trkpt>
      <trkpt lat="41.51812" lon="20.55957">
        <ele>696.196251</ele>
        <time>2022-04-26T10:17:29.469Z</time>
      </trkpt>
      <trkpt lat="41.51809" lon="20.55945">
        <ele>696.898841</ele>
        <time>2022-04-26T10:17:36.471Z</time>
      </trkpt>
      <trkpt lat="41.51806" lon="20.55933">
        <ele>697.552739</ele>
        <time>2022-04-26T10:17:43.472Z</time>
      </trkpt>
      <trkpt lat="41.51803" lon="20.55921">
        <ele>698.250639</ele>
        <time>2022-04-26T10:17:51.485Z</time>
      </trkpt>
      <trkpt lat="41.518" lon="20.55909">
        <ele>698.953046</ele>
        <time>2022-04-26T10:17:59.470Z</time>
      </trkpt>
      <trkpt lat="41.51798" lon="20.55897">
        <ele>699.614316</ele>
        <time>2022-04-26T10:18:07.470Z</time>
      </trkpt>
      <trkpt lat="41.51794" lon="20.55885">
        <ele>700.325293</ele>
        <time>2022-04-26T10:18:15.482Z</time>
      </trkpt>
      <trkpt lat="41.51789" lon="20.55874">
        <ele>701.023853</ele>
        <time>2022-04-26T10:18:23.461Z</time>
      </trkpt>
      <trkpt lat="41.51785" lon="20.55862">
        <ele>701.736448</ele>
        <time>2022-04-26T10:18:30.496Z</time>
      </trkpt>
      <trkpt lat="41.51781" lon="20.5585">
        <ele>702.461007</ele>
        <time>2022-04-26T10:18:37.447Z</time>
      </trkpt>
      <trkpt lat="41.51777" lon="20.55838">
        <ele>703.166008</ele>
        <time>2022-04-26T10:18:44.454Z</time>
      </trkpt>
      <trkpt lat="41.51773" lon="20.55828">
        <ele>703.820768</ele>
        <time>2022-04-26T10:18:51.454Z</time>
      </trkpt>
      <trkpt lat="41.51767" lon="20.55817">
        <ele>704.53064</ele>
        <time>2022-04-26T10:18:59.465Z</time>
      </trkpt>
      <trkpt lat="41.51762" lon="20.55806">
        <ele>705.315307</ele>
        <time>2022-04-26T10:19:07.454Z</time>
      </trkpt>
      <trkpt lat="41.51758" lon="20.55794">
        <ele>706.247107</ele>
        <time>2022-04-26T10:19:15.460Z</time>
      </trkpt>
      <trkpt lat="41.51755" lon="20.55782">
        <ele>707.108096</ele>
        <time>2022-04-26T10:19:22.448Z</time>
      </trkpt>
      <trkpt lat="41.51753" lon="20.55769">
        <ele>708.09693</ele>
        <time>2022-04-26T10:19:30.450Z</time>
      </trkpt>
      <trkpt lat="41.51753" lon="20.55756">
        <ele>709.011376</ele>
        <time>2022-04-26T10:19:37.464Z</time>
      </trkpt>
      <trkpt lat="41.51749" lon="20.55743">
        <ele>709.941768</ele>
        <time>2022-04-26T10:19:45.460Z</time>
      </trkpt>
      <trkpt lat="41.51745" lon="20.55732">
        <ele>710.859007</ele>
        <time>2022-04-26T10:19:53.448Z</time>
      </trkpt>
      <trkpt lat="41.51741" lon="20.5572">
        <ele>711.777456</ele>
        <time>2022-04-26T10:20:01.453Z</time>
      </trkpt>
      <trkpt lat="41.51734" lon="20.55709">
        <ele>712.711788</ele>
        <time>2022-04-26T10:20:09.453Z</time>
      </trkpt>
      <trkpt lat="41.51728" lon="20.557">
        <ele>713.616524</ele>
        <time>2022-04-26T10:20:16.489Z</time>
      </trkpt>
      <trkpt lat="41.51721" lon="20.55692">
        <ele>714.471397</ele>
        <time>2022-04-26T10:20:23.454Z</time>
      </trkpt>
      <trkpt lat="41.51713" lon="20.55684">
        <ele>715.396799</ele>
        <time>2022-04-26T10:20:31.453Z</time>
      </trkpt>
      <trkpt lat="41.51706" lon="20.55676">
        <ele>716.302999</ele>
        <time>2022-04-26T10:20:39.447Z</time>
      </trkpt>
      <trkpt lat="41.51699" lon="20.55667">
        <ele>717.185404</ele>
        <time>2022-04-26T10:20:47.455Z</time>
      </trkpt>
      <trkpt lat="41.51691" lon="20.55658">
        <ele>718.166214</ele>
        <time>2022-04-26T10:20:55.460Z</time>
      </trkpt>
      <trkpt lat="41.51683" lon="20.5565">
        <ele>719.083627</ele>
        <time>2022-04-26T10:21:02.466Z</time>
      </trkpt>
      <trkpt lat="41.51675" lon="20.55643">
        <ele>719.988285</ele>
        <time>2022-04-26T10:21:09.453Z</time>
      </trkpt>
      <trkpt lat="41.51668" lon="20.55634">
        <ele>720.929043</ele>
        <time>2022-04-26T10:21:16.447Z</time>
      </trkpt>
      <trkpt lat="41.51661" lon="20.55625">
        <ele>721.799899</ele>
        <time>2022-04-26T10:21:23.455Z</time>
      </trkpt>
      <trkpt lat="41.51653" lon="20.55617">
        <ele>722.405114</ele>
        <time>2022-04-26T10:21:32.452Z</time>
      </trkpt>
      <trkpt lat="41.51644" lon="20.55609">
        <ele>723.066492</ele>
        <time>2022-04-26T10:21:40.452Z</time>
      </trkpt>
      <trkpt lat="41.51637" lon="20.55601">
        <ele>723.651773</ele>
        <time>2022-04-26T10:21:47.456Z</time>
      </trkpt>
      <trkpt lat="41.51629" lon="20.55595">
        <ele>724.25688</ele>
        <time>2022-04-26T10:21:54.452Z</time>
      </trkpt>
      <trkpt lat="41.51619" lon="20.55592">
        <ele>724.874629</ele>
        <time>2022-04-26T10:22:00.469Z</time>
      </trkpt>
      <trkpt lat="41.51611" lon="20.55585">
        <ele>725.4887</ele>
        <time>2022-04-26T10:22:08.460Z</time>
      </trkpt>
      <trkpt lat="41.51604" lon="20.55577">
        <ele>726.068057</ele>
        <time>2022-04-26T10:22:16.450Z</time>
      </trkpt>
      <trkpt lat="41.51597" lon="20.55567">
        <ele>726.701637</ele>
        <time>2022-04-26T10:22:25.461Z</time>
      </trkpt>
      <trkpt lat="41.51589" lon="20.55559">
        <ele>727.344777</ele>
        <time>2022-04-26T10:22:33.457Z</time>
      </trkpt>
      <trkpt lat="41.51583" lon="20.5555">
        <ele>727.920783</ele>
        <time>2022-04-26T10:22:40.480Z</time>
      </trkpt>
      <trkpt lat="41.51575" lon="20.55543">
        <ele>728.511179</ele>
        <time>2022-04-26T10:22:47.454Z</time>
      </trkpt>
      <trkpt lat="41.51568" lon="20.55534">
        <ele>729.105416</ele>
        <time>2022-04-26T10:22:55.454Z</time>
      </trkpt>
      <trkpt lat="41.5156" lon="20.55526">
        <ele>729.723989</ele>
        <time>2022-04-26T10:23:02.450Z</time>
      </trkpt>
      <trkpt lat="41.51553" lon="20.55519">
        <ele>730.299625</ele>
        <time>2022-04-26T10:23:11.447Z</time>
      </trkpt>
      <trkpt lat="41.51544" lon="20.55512">
        <ele>730.907949</ele>
        <time>2022-04-26T10:23:20.449Z</time>
      </trkpt>
      <trkpt lat="41.51536" lon="20.55506">
        <ele>731.520838</ele>
        <time>2022-04-26T10:23:28.447Z</time>
      </trkpt>
      <trkpt lat="41.51526" lon="20.55504">
        <ele>732.159667</ele>
        <time>2022-04-26T10:23:35.454Z</time>
      </trkpt>
      <trkpt lat="41.51516" lon="20.55503">
        <ele>732.799672</ele>
        <time>2022-04-26T10:23:43.475Z</time>
      </trkpt>
      <trkpt lat="41.51506" lon="20.55502">
        <ele>733.413328</ele>
        <time>2022-04-26T10:23:51.453Z</time>
      </trkpt>
      <trkpt lat="41.51497" lon="20.55501">
        <ele>734.01975</ele>
        <time>2022-04-26T10:23:58.457Z</time>
      </trkpt>
      <trkpt lat="41.51487" lon="20.555">
        <ele>734.684227</ele>
        <time>2022-04-26T10:24:05.452Z</time>
      </trkpt>
      <trkpt lat="41.51478" lon="20.55499">
        <ele>735.291249</ele>
        <time>2022-04-26T10:24:13.453Z</time>
      </trkpt>
      <trkpt lat="41.51469" lon="20.55495">
        <ele>735.968911</ele>
        <time>2022-04-26T10:24:20.462Z</time>
      </trkpt>
      <trkpt lat="41.51459" lon="20.5549">
        <ele>736.653767</ele>
        <time>2022-04-26T10:24:27.456Z</time>
      </trkpt>
      <trkpt lat="41.5145" lon="20.55484">
        <ele>737.312784</ele>
        <time>2022-04-26T10:24:35.451Z</time>
      </trkpt>
      <trkpt lat="41.51445" lon="20.55474">
        <ele>737.919561</ele>
        <time>2022-04-26T10:24:44.541Z</time>
      </trkpt>
      <trkpt lat="41.51442" lon="20.55462">
        <ele>738.560212</ele>
        <time>2022-04-26T10:24:52.454Z</time>
      </trkpt>
      <trkpt lat="41.51438" lon="20.55449">
        <ele>739.259931</ele>
        <time>2022-04-26T10:25:00.447Z</time>
      </trkpt>
      <trkpt lat="41.51436" lon="20.55436">
        <ele>739.90683</ele>
        <time>2022-04-26T10:25:07.442Z</time>
      </trkpt>
      <trkpt lat="41.51434" lon="20.55423">
        <ele>740.589177</ele>
        <time>2022-04-26T10:25:14.453Z</time>
      </trkpt>
      <trkpt lat="41.51433" lon="20.5541">
        <ele>741.266554</ele>
        <time>2022-04-26T10:25:21.449Z</time>
      </trkpt>
      <trkpt lat="41.51432" lon="20.55397">
        <ele>741.905856</ele>
        <time>2022-04-26T10:25:30.497Z</time>
      </trkpt>
      <trkpt lat="41.51434" lon="20.55384">
        <ele>742.567209</ele>
        <time>2022-04-26T10:25:38.503Z</time>
      </trkpt>
      <trkpt lat="41.51439" lon="20.55373">
        <ele>743.201905</ele>
        <time>2022-04-26T10:25:45.486Z</time>
      </trkpt>
      <trkpt lat="41.51446" lon="20.55364">
        <ele>743.862741</ele>
        <time>2022-04-26T10:25:51.471Z</time>
      </trkpt>
      <trkpt lat="41.51452" lon="20.55354">
        <ele>744.503963</ele>
        <time>2022-04-26T10:25:59.468Z</time>
      </trkpt>
      <trkpt lat="41.51459" lon="20.55344">
        <ele>745.238783</ele>
        <time>2022-04-26T10:26:07.469Z</time>
      </trkpt>
      <trkpt lat="41.51466" lon="20.55334">
        <ele>746.23643</ele>
        <time>2022-04-26T10:26:15.533Z</time>
      </trkpt>
      <trkpt lat="41.51473" lon="20.55325">
        <ele>747.204354</ele>
        <time>2022-04-26T10:26:23.493Z</time>
      </trkpt>
      <trkpt lat="41.51479" lon="20.55315">
        <ele>748.147559</ele>
        <time>2022-04-26T10:26:31.484Z</time>
      </trkpt>
      <trkpt lat="41.51486" lon="20.55307">
        <ele>749.063668</ele>
        <time>2022-04-26T10:26:39.521Z</time>
      </trkpt>
      <trkpt lat="41.51491" lon="20.55297">
        <ele>749.966341</ele>
        <time>2022-04-26T10:26:47.476Z</time>
      </trkpt>
      <trkpt lat="41.51496" lon="20.55287">
        <ele>750.88337</ele>
        <time>2022-04-26T10:26:55.477Z</time>
      </trkpt>
      <trkpt lat="41.51501" lon="20.55276">
        <ele>751.787066</ele>
        <time>2022-04-26T10:27:03.461Z</time>
      </trkpt>
      <trkpt lat="41.51507" lon="20.55267">
        <ele>752.679448</ele>
        <time>2022-04-26T10:27:10.491Z</time>
      </trkpt>
      <trkpt lat="41.51511" lon="20.55256">
        <ele>753.611537</ele>
        <time>2022-04-26T10:27:18.482Z</time>
      </trkpt>
      <trkpt lat="41.5151" lon="20.55243">
        <ele>754.547979</ele>
        <time>2022-04-26T10:27:26.462Z</time>
      </trkpt>
      <trkpt lat="41.51511" lon="20.55231">
        <ele>755.50375</ele>
        <time>2022-04-26T10:27:34.475Z</time>
      </trkpt>
      <trkpt lat="41.5151" lon="20.55218">
        <ele>756.403303</ele>
        <time>2022-04-26T10:27:42.485Z</time>
      </trkpt>
      <trkpt lat="41.51509" lon="20.55206">
        <ele>757.359892</ele>
        <time>2022-04-26T10:27:49.475Z</time>
      </trkpt>
      <trkpt lat="41.5151" lon="20.55192">
        <ele>758.354642</ele>
        <time>2022-04-26T10:27:57.491Z</time>
      </trkpt>
      <trkpt lat="41.51513" lon="20.55179">
        <ele>759.358264</ele>
        <time>2022-04-26T10:28:05.514Z</time>
      </trkpt>
      <trkpt lat="41.51516" lon="20.55167">
        <ele>760.306683</ele>
        <time>2022-04-26T10:28:12.501Z</time>
      </trkpt>
      <trkpt lat="41.51519" lon="20.55154">
        <ele>761.318313</ele>
        <time>2022-04-26T10:28:19.492Z</time>
      </trkpt>
      <trkpt lat="41.51523" lon="20.55143">
        <ele>762.245235</ele>
        <time>2022-04-26T10:28:27.491Z</time>
      </trkpt>
      <trkpt lat="41.51526" lon="20.55131">
        <ele>762.871564</ele>
        <time>2022-04-26T10:28:34.480Z</time>
      </trkpt>
      <trkpt lat="41.51531" lon="20.55119">
        <ele>762.904205</ele>
        <time>2022-04-26T10:28:41.495Z</time>
      </trkpt>
      <trkpt lat="41.51534" lon="20.55108">
        <ele>762.933068</ele>
        <time>2022-04-26T10:28:49.479Z</time>
      </trkpt>
      <trkpt lat="41.51536" lon="20.55096">
        <ele>762.962967</ele>
        <time>2022-04-26T10:28:56.468Z</time>
      </trkpt>
      <trkpt lat="41.51539" lon="20.55083">
        <ele>762.993314</ele>
        <time>2022-04-26T10:29:04.468Z</time>
      </trkpt>
      <trkpt lat="41.51541" lon="20.55072">
        <ele>763.02198</ele>
        <time>2022-04-26T10:29:12.471Z</time>
      </trkpt>
      <trkpt lat="41.5154" lon="20.55059">
        <ele>763.052518</ele>
        <time>2022-04-26T10:29:19.484Z</time>
      </trkpt>
      <trkpt lat="41.51539" lon="20.55047">
        <ele>763.082038</ele>
        <time>2022-04-26T10:29:27.465Z</time>
      </trkpt>
      <trkpt lat="41.51537" lon="20.55035">
        <ele>763.111316</ele>
        <time>2022-04-26T10:29:35.478Z</time>
      </trkpt>
      <trkpt lat="41.51535" lon="20.55023">
        <ele>763.14145</ele>
        <time>2022-04-26T10:29:43.458Z</time>
      </trkpt>
      <trkpt lat="41.51532" lon="20.5501">
        <ele>763.172024</ele>
        <time>2022-04-26T10:29:51.485Z</time>
      </trkpt>
      <trkpt lat="41.5153" lon="20.54997">
        <ele>763.204778</ele>
        <time>2022-04-26T10:29:59.462Z</time>
      </trkpt>
      <trkpt lat="41.51529" lon="20.54983">
        <ele>763.236977</ele>
        <time>2022-04-26T10:30:07.476Z</time>
      </trkpt>
      <trkpt lat="41.51517" lon="20.54984">
        <ele>763.274942</ele>
        <time>2022-04-26T10:32:11.467Z</time>
      </trkpt>
      <trkpt lat="41.51508" lon="20.54985">
        <ele>763.305043</ele>
        <time>2022-04-26T10:32:34.473Z</time>
      </trkpt>
      <trkpt lat="41.51523" lon="20.54981">
        <ele>763.355985</ele>
        <time>2022-04-26T10:45:47.476Z</time>
      </trkpt>
      <trkpt lat="41.51526" lon="20.54951">
        <ele>763.42828</ele>
        <time>2022-04-26T10:50:51.453Z</time>
      </trkpt>
      <trkpt lat="41.51525" lon="20.54927">
        <ele>763.297247</ele>
        <time>2022-04-26T10:50:57.595Z</time>
      </trkpt>
      <trkpt lat="41.51526" lon="20.54914">
        <ele>763.212927</ele>
        <time>2022-04-26T10:51:01.476Z</time>
      </trkpt>
      <trkpt lat="41.51526" lon="20.54898">
        <ele>763.104523</ele>
        <time>2022-04-26T10:51:05.523Z</time>
      </trkpt>
      <trkpt lat="41.51524" lon="20.54883">
        <ele>763.006218</ele>
        <time>2022-04-26T10:51:08.484Z</time>
      </trkpt>
      <trkpt lat="41.51521" lon="20.54866">
        <ele>762.890728</ele>
        <time>2022-04-26T10:51:11.513Z</time>
      </trkpt>
      <trkpt lat="41.51518" lon="20.54854">
        <ele>762.805763</ele>
        <time>2022-04-26T10:51:13.488Z</time>
      </trkpt>
      <trkpt lat="41.51516" lon="20.5484">
        <ele>762.713805</ele>
        <time>2022-04-26T10:51:15.495Z</time>
      </trkpt>
      <trkpt lat="41.51514" lon="20.54825">
        <ele>762.609857</ele>
        <time>2022-04-26T10:51:17.475Z</time>
      </trkpt>
      <trkpt lat="41.51513" lon="20.54809">
        <ele>762.504402</ele>
        <time>2022-04-26T10:51:19.484Z</time>
      </trkpt>
      <trkpt lat="41.51513" lon="20.54792">
        <ele>762.392016</ele>
        <time>2022-04-26T10:51:21.466Z</time>
      </trkpt>
      <trkpt lat="41.51512" lon="20.54773">
        <ele>762.266134</ele>
        <time>2022-04-26T10:51:23.486Z</time>
      </trkpt>
      <trkpt lat="41.51509" lon="20.54754">
        <ele>762.140431</ele>
        <time>2022-04-26T10:51:25.504Z</time>
      </trkpt>
      <trkpt lat="41.51504" lon="20.54737">
        <ele>762.017838</ele>
        <time>2022-04-26T10:51:27.474Z</time>
      </trkpt>
      <trkpt lat="41.51497" lon="20.54722">
        <ele>761.899436</ele>
        <time>2022-04-26T10:51:29.464Z</time>
      </trkpt>
      <trkpt lat="41.51487" lon="20.54709">
        <ele>761.453993</ele>
        <time>2022-04-26T10:51:31.474Z</time>
      </trkpt>
      <trkpt lat="41.51475" lon="20.54697">
        <ele>760.710173</ele>
        <time>2022-04-26T10:51:33.493Z</time>
      </trkpt>
      <trkpt lat="41.51463" lon="20.54687">
        <ele>760.00984</ele>
        <time>2022-04-26T10:51:35.482Z</time>
      </trkpt>
      <trkpt lat="41.51451" lon="20.54677">
        <ele>759.317337</ele>
        <time>2022-04-26T10:51:37.475Z</time>
      </trkpt>
      <trkpt lat="41.51439" lon="20.54668">
        <ele>758.599087</ele>
        <time>2022-04-26T10:51:39.510Z</time>
      </trkpt>
      <trkpt lat="41.51426" lon="20.54658">
        <ele>757.867843</ele>
        <time>2022-04-26T10:51:41.467Z</time>
      </trkpt>
      <trkpt lat="41.51414" lon="20.54647">
        <ele>757.134617</ele>
        <time>2022-04-26T10:51:43.485Z</time>
      </trkpt>
      <trkpt lat="41.51403" lon="20.54634">
        <ele>756.397912</ele>
        <time>2022-04-26T10:51:45.490Z</time>
      </trkpt>
      <trkpt lat="41.51393" lon="20.54617">
        <ele>755.609717</ele>
        <time>2022-04-26T10:51:47.472Z</time>
      </trkpt>
      <trkpt lat="41.51386" lon="20.54597">
        <ele>754.762562</ele>
        <time>2022-04-26T10:51:49.501Z</time>
      </trkpt>
      <trkpt lat="41.51382" lon="20.54575">
        <ele>753.919318</ele>
        <time>2022-04-26T10:51:51.462Z</time>
      </trkpt>
      <trkpt lat="41.51381" lon="20.54553">
        <ele>753.12181</ele>
        <time>2022-04-26T10:51:53.470Z</time>
      </trkpt>
      <trkpt lat="41.51382" lon="20.54533">
        <ele>752.198791</ele>
        <time>2022-04-26T10:51:55.471Z</time>
      </trkpt>
      <trkpt lat="41.51383" lon="20.54511">
        <ele>751.10296</ele>
        <time>2022-04-26T10:51:57.473Z</time>
      </trkpt>
      <trkpt lat="41.51385" lon="20.54489">
        <ele>750.028686</ele>
        <time>2022-04-26T10:51:59.489Z</time>
      </trkpt>
      <trkpt lat="41.51389" lon="20.54466">
        <ele>748.913841</ele>
        <time>2022-04-26T10:52:01.491Z</time>
      </trkpt>
      <trkpt lat="41.51395" lon="20.54444">
        <ele>747.752332</ele>
        <time>2022-04-26T10:52:03.487Z</time>
      </trkpt>
      <trkpt lat="41.51399" lon="20.54433">
        <ele>747.155292</ele>
        <time>2022-04-26T10:52:04.499Z</time>
      </trkpt>
      <trkpt lat="41.51403" lon="20.54421">
        <ele>746.544167</ele>
        <time>2022-04-26T10:52:05.480Z</time>
      </trkpt>
      <trkpt lat="41.51406" lon="20.5441">
        <ele>745.946357</ele>
        <time>2022-04-26T10:52:06.485Z</time>
      </trkpt>
      <trkpt lat="41.51409" lon="20.54398">
        <ele>745.337935</ele>
        <time>2022-04-26T10:52:07.460Z</time>
      </trkpt>
      <trkpt lat="41.51412" lon="20.54386">
        <ele>744.72778</ele>
        <time>2022-04-26T10:52:08.468Z</time>
      </trkpt>
      <trkpt lat="41.51416" lon="20.54375">
        <ele>744.131667</ele>
        <time>2022-04-26T10:52:09.474Z</time>
      </trkpt>
      <trkpt lat="41.51421" lon="20.54364">
        <ele>743.535685</ele>
        <time>2022-04-26T10:52:10.471Z</time>
      </trkpt>
      <trkpt lat="41.5143" lon="20.54344">
        <ele>742.401249</ele>
        <time>2022-04-26T10:52:12.475Z</time>
      </trkpt>
      <trkpt lat="41.51435" lon="20.54334">
        <ele>741.809572</ele>
        <time>2022-04-26T10:52:13.468Z</time>
      </trkpt>
      <trkpt lat="41.5144" lon="20.54324">
        <ele>741.221842</ele>
        <time>2022-04-26T10:52:14.466Z</time>
      </trkpt>
      <trkpt lat="41.5145" lon="20.54306">
        <ele>739.86748</ele>
        <time>2022-04-26T10:52:16.471Z</time>
      </trkpt>
      <trkpt lat="41.51456" lon="20.54287">
        <ele>738.642893</ele>
        <time>2022-04-26T10:52:18.507Z</time>
      </trkpt>
      <trkpt lat="41.5146" lon="20.54265">
        <ele>737.283044</ele>
        <time>2022-04-26T10:52:20.480Z</time>
      </trkpt>
      <trkpt lat="41.51464" lon="20.54243">
        <ele>735.916157</ele>
        <time>2022-04-26T10:52:22.494Z</time>
      </trkpt>
      <trkpt lat="41.5147" lon="20.54221">
        <ele>734.543915</ele>
        <time>2022-04-26T10:52:24.479Z</time>
      </trkpt>
      <trkpt lat="41.51476" lon="20.54198">
        <ele>733.101559</ele>
        <time>2022-04-26T10:52:26.491Z</time>
      </trkpt>
      <trkpt lat="41.51479" lon="20.54175">
        <ele>731.698024</ele>
        <time>2022-04-26T10:52:28.476Z</time>
      </trkpt>
      <trkpt lat="41.5148" lon="20.54152">
        <ele>730.288703</ele>
        <time>2022-04-26T10:52:30.481Z</time>
      </trkpt>
      <trkpt lat="41.51479" lon="20.5414">
        <ele>729.571404</ele>
        <time>2022-04-26T10:52:31.484Z</time>
      </trkpt>
      <trkpt lat="41.51477" lon="20.54117">
        <ele>728.21609</ele>
        <time>2022-04-26T10:52:33.470Z</time>
      </trkpt>
      <trkpt lat="41.51473" lon="20.54097">
        <ele>726.969712</ele>
        <time>2022-04-26T10:52:35.465Z</time>
      </trkpt>
      <trkpt lat="41.51467" lon="20.54079">
        <ele>725.250374</ele>
        <time>2022-04-26T10:52:37.485Z</time>
      </trkpt>
      <trkpt lat="41.51462" lon="20.54064">
        <ele>723.679977</ele>
        <time>2022-04-26T10:52:39.471Z</time>
      </trkpt>
      <trkpt lat="41.51457" lon="20.54049">
        <ele>722.155588</ele>
        <time>2022-04-26T10:52:41.477Z</time>
      </trkpt>
      <trkpt lat="41.51454" lon="20.54034">
        <ele>720.777769</ele>
        <time>2022-04-26T10:52:43.473Z</time>
      </trkpt>
      <trkpt lat="41.51453" lon="20.54019">
        <ele>719.406302</ele>
        <time>2022-04-26T10:52:45.482Z</time>
      </trkpt>
      <trkpt lat="41.51454" lon="20.54004">
        <ele>717.943043</ele>
        <time>2022-04-26T10:52:47.466Z</time>
      </trkpt>
      <trkpt lat="41.51457" lon="20.53988">
        <ele>716.462917</ele>
        <time>2022-04-26T10:52:49.483Z</time>
      </trkpt>
      <trkpt lat="41.5146" lon="20.53972">
        <ele>714.943524</ele>
        <time>2022-04-26T10:52:51.473Z</time>
      </trkpt>
      <trkpt lat="41.51463" lon="20.53956">
        <ele>713.434462</ele>
        <time>2022-04-26T10:52:53.529Z</time>
      </trkpt>
      <trkpt lat="41.51466" lon="20.53939">
        <ele>711.777795</ele>
        <time>2022-04-26T10:52:55.470Z</time>
      </trkpt>
      <trkpt lat="41.51467" lon="20.53921">
        <ele>710.145707</ele>
        <time>2022-04-26T10:52:57.466Z</time>
      </trkpt>
      <trkpt lat="41.51467" lon="20.53904">
        <ele>708.583365</ele>
        <time>2022-04-26T10:52:59.456Z</time>
      </trkpt>
      <trkpt lat="41.51465" lon="20.53888">
        <ele>707.060241</ele>
        <time>2022-04-26T10:53:01.509Z</time>
      </trkpt>
      <trkpt lat="41.51463" lon="20.53871">
        <ele>705.53949</ele>
        <time>2022-04-26T10:53:03.516Z</time>
      </trkpt>
      <trkpt lat="41.51464" lon="20.53856">
        <ele>704.459087</ele>
        <time>2022-04-26T10:53:05.475Z</time>
      </trkpt>
      <trkpt lat="41.51468" lon="20.53841">
        <ele>703.813464</ele>
        <time>2022-04-26T10:53:07.489Z</time>
      </trkpt>
      <trkpt lat="41.51474" lon="20.53827">
        <ele>703.112539</ele>
        <time>2022-04-26T10:53:09.513Z</time>
      </trkpt>
      <trkpt lat="41.51484" lon="20.53814">
        <ele>702.352779</ele>
        <time>2022-04-26T10:53:11.495Z</time>
      </trkpt>
      <trkpt lat="41.51495" lon="20.53804">
        <ele>701.632924</ele>
        <time>2022-04-26T10:53:13.511Z</time>
      </trkpt>
      <trkpt lat="41.51506" lon="20.53793">
        <ele>700.865688</ele>
        <time>2022-04-26T10:53:15.505Z</time>
      </trkpt>
      <trkpt lat="41.51517" lon="20.53781">
        <ele>700.088154</ele>
        <time>2022-04-26T10:53:17.468Z</time>
      </trkpt>
      <trkpt lat="41.51528" lon="20.53768">
        <ele>699.284482</ele>
        <time>2022-04-26T10:53:19.474Z</time>
      </trkpt>
      <trkpt lat="41.51537" lon="20.53752">
        <ele>698.466528</ele>
        <time>2022-04-26T10:53:21.474Z</time>
      </trkpt>
      <trkpt lat="41.51547" lon="20.53737">
        <ele>697.603541</ele>
        <time>2022-04-26T10:53:23.478Z</time>
      </trkpt>
      <trkpt lat="41.51559" lon="20.53722">
        <ele>696.720974</ele>
        <time>2022-04-26T10:53:25.473Z</time>
      </trkpt>
      <trkpt lat="41.51572" lon="20.5371">
        <ele>695.857654</ele>
        <time>2022-04-26T10:53:27.515Z</time>
      </trkpt>
      <trkpt lat="41.51586" lon="20.53701">
        <ele>695.001488</ele>
        <time>2022-04-26T10:53:29.481Z</time>
      </trkpt>
      <trkpt lat="41.516" lon="20.5369">
        <ele>694.596351</ele>
        <time>2022-04-26T10:53:31.455Z</time>
      </trkpt>
      <trkpt lat="41.51613" lon="20.5368">
        <ele>694.34719</ele>
        <time>2022-04-26T10:53:33.473Z</time>
      </trkpt>
      <trkpt lat="41.51626" lon="20.53667">
        <ele>694.09674</ele>
        <time>2022-04-26T10:53:35.486Z</time>
      </trkpt>
      <trkpt lat="41.51636" lon="20.53652">
        <ele>693.863973</ele>
        <time>2022-04-26T10:53:37.522Z</time>
      </trkpt>
      <trkpt lat="41.51644" lon="20.53635">
        <ele>693.623122</ele>
        <time>2022-04-26T10:53:39.468Z</time>
      </trkpt>
      <trkpt lat="41.51649" lon="20.53614">
        <ele>693.359491</ele>
        <time>2022-04-26T10:53:41.469Z</time>
      </trkpt>
      <trkpt lat="41.51653" lon="20.53593">
        <ele>693.103206</ele>
        <time>2022-04-26T10:53:43.474Z</time>
      </trkpt>
      <trkpt lat="41.51653" lon="20.53573">
        <ele>692.864311</ele>
        <time>2022-04-26T10:53:45.474Z</time>
      </trkpt>
      <trkpt lat="41.51651" lon="20.53555">
        <ele>692.648675</ele>
        <time>2022-04-26T10:53:47.512Z</time>
      </trkpt>
      <trkpt lat="41.51646" lon="20.53539">
        <ele>692.455381</ele>
        <time>2022-04-26T10:53:49.467Z</time>
      </trkpt>
      <trkpt lat="41.51642" lon="20.53527">
        <ele>692.291623</ele>
        <time>2022-04-26T10:53:51.470Z</time>
      </trkpt>
      <trkpt lat="41.51637" lon="20.53511">
        <ele>692.087299</ele>
        <time>2022-04-26T10:53:54.466Z</time>
      </trkpt>
      <trkpt lat="41.51632" lon="20.535">
        <ele>691.952621</ele>
        <time>2022-04-26T10:53:57.474Z</time>
      </trkpt>
      <trkpt lat="41.51629" lon="20.53488">
        <ele>691.952621</ele>
        <time>2022-04-26T10:54:02.494Z</time>
      </trkpt>
      <trkpt lat="41.51625" lon="20.53476">
        <ele>691.952621</ele>
        <time>2022-04-26T10:54:09.486Z</time>
      </trkpt>
      <trkpt lat="41.5162" lon="20.53466">
        <ele>691.952621</ele>
        <time>2022-04-26T10:54:15.478Z</time>
      </trkpt>
      <trkpt lat="41.51616" lon="20.53454">
        <ele>691.952621</ele>
        <time>2022-04-26T10:54:21.511Z</time>
      </trkpt>
      <trkpt lat="41.51613" lon="20.53442">
        <ele>691.952621</ele>
        <time>2022-04-26T10:54:27.510Z</time>
      </trkpt>
      <trkpt lat="41.51609" lon="20.5343">
        <ele>691.952621</ele>
        <time>2022-04-26T10:54:33.465Z</time>
      </trkpt>
      <trkpt lat="41.51606" lon="20.53418">
        <ele>691.952621</ele>
        <time>2022-04-26T10:54:39.491Z</time>
      </trkpt>
      <trkpt lat="41.51605" lon="20.53406">
        <ele>691.952621</ele>
        <time>2022-04-26T10:54:46.504Z</time>
      </trkpt>
      <trkpt lat="41.51603" lon="20.53393">
        <ele>691.952621</ele>
        <time>2022-04-26T10:54:52.488Z</time>
      </trkpt>
      <trkpt lat="41.51603" lon="20.53381">
        <ele>691.952621</ele>
        <time>2022-04-26T10:54:59.488Z</time>
      </trkpt>
      <trkpt lat="41.51604" lon="20.53369">
        <ele>691.952621</ele>
        <time>2022-04-26T10:55:07.453Z</time>
      </trkpt>
      <trkpt lat="41.51606" lon="20.53357">
        <ele>691.952621</ele>
        <time>2022-04-26T10:55:15.482Z</time>
      </trkpt>
      <trkpt lat="41.51606" lon="20.53345">
        <ele>691.952621</ele>
        <time>2022-04-26T10:55:22.477Z</time>
      </trkpt>
      <trkpt lat="41.51605" lon="20.53332">
        <ele>691.952621</ele>
        <time>2022-04-26T10:55:29.475Z</time>
      </trkpt>
      <trkpt lat="41.51595" lon="20.53328">
        <ele>691.952621</ele>
        <time>2022-04-26T10:55:38.463Z</time>
      </trkpt>
      <trkpt lat="41.51589" lon="20.53327">
        <ele>691.952621</ele>
        <time>2022-04-26T10:57:25.569Z</time>
      </trkpt>
    </trkseg>
  </trk>
  <trk>
    <name><![CDATA[Tour d'Europe: étape 666]]></name>
    <extensions>
      <line xmlns="http://www.topografix.com/GPX/gpx_style/0/2">
        <color>FFFF00</color>
        <width>4</width>
      </line>
    </extensions>
    <trkseg>
      <trkpt lat="41.79015" lon="20.90829">
        <ele>580.190296</ele>
        <time>2022-04-25T08:00:54.991Z</time>
      </trkpt>
      <trkpt lat="41.78978" lon="20.90829">
        <ele>580.190296</ele>
        <time>2022-04-25T08:00:55.889Z</time>
      </trkpt>
      <trkpt lat="41.78941" lon="20.90825">
        <ele>580.190296</ele>
        <time>2022-04-25T08:01:01.915Z</time>
      </trkpt>
      <trkpt lat="41.78941" lon="20.90805">
        <ele>580.190296</ele>
        <time>2022-04-25T08:04:52.972Z</time>
      </trkpt>
      <trkpt lat="41.7895" lon="20.908">
        <ele>580.60668</ele>
        <time>2022-04-25T08:04:55.893Z</time>
      </trkpt>
      <trkpt lat="41.78962" lon="20.908">
        <ele>581.186556</ele>
        <time>2022-04-25T08:04:58.888Z</time>
      </trkpt>
      <trkpt lat="41.7897" lon="20.9079">
        <ele>581.673932</ele>
        <time>2022-04-25T08:05:03.968Z</time>
      </trkpt>
      <trkpt lat="41.78976" lon="20.90782">
        <ele>582.108921</ele>
        <time>2022-04-25T08:05:08.899Z</time>
      </trkpt>
      <trkpt lat="41.78981" lon="20.9077">
        <ele>582.603553</ele>
        <time>2022-04-25T08:05:13.904Z</time>
      </trkpt>
      <trkpt lat="41.78984" lon="20.90756">
        <ele>583.123726</ele>
        <time>2022-04-25T08:05:18.904Z</time>
      </trkpt>
      <trkpt lat="41.78988" lon="20.90745">
        <ele>583.558874</ele>
        <time>2022-04-25T08:05:22.899Z</time>
      </trkpt>
      <trkpt lat="41.78991" lon="20.90733">
        <ele>584.020831</ele>
        <time>2022-04-25T08:05:26.897Z</time>
      </trkpt>
      <trkpt lat="41.78995" lon="20.90721">
        <ele>584.459476</ele>
        <time>2022-04-25T08:05:30.890Z</time>
      </trkpt>
      <trkpt lat="41.78999" lon="20.90709">
        <ele>584.956541</ele>
        <time>2022-04-25T08:05:35.882Z</time>
      </trkpt>
      <trkpt lat="41.79005" lon="20.90687">
        <ele>585.786753</ele>
        <time>2022-04-25T08:06:16.911Z</time>
      </trkpt>
      <trkpt lat="41.79009" lon="20.90673">
        <ele>586.312442</ele>
        <time>2022-04-25T08:06:20.930Z</time>
      </trkpt>
      <trkpt lat="41.79012" lon="20.90658">
        <ele>586.873496</ele>
        <time>2022-04-25T08:06:24.879Z</time>
      </trkpt>
      <trkpt lat="41.79015" lon="20.90644">
        <ele>587.401195</ele>
        <time>2022-04-25T08:06:28.888Z</time>
      </trkpt>
      <trkpt lat="41.79016" lon="20.9063">
        <ele>587.887621</ele>
        <time>2022-04-25T08:06:32.891Z</time>
      </trkpt>
      <trkpt lat="41.79019" lon="20.90615">
        <ele>588.456259</ele>
        <time>2022-04-25T08:06:36.897Z</time>
      </trkpt>
      <trkpt lat="41.79021" lon="20.90602">
        <ele>588.812675</ele>
        <time>2022-04-25T08:06:39.886Z</time>
      </trkpt>
      <trkpt lat="41.79022" lon="20.9059">
        <ele>588.829743</ele>
        <time>2022-04-25T08:06:42.929Z</time>
      </trkpt>
      <trkpt lat="41.79024" lon="20.90575">
        <ele>588.85109</ele>
        <time>2022-04-25T08:06:46.891Z</time>
      </trkpt>
      <trkpt lat="41.79024" lon="20.90559">
        <ele>588.87389</ele>
        <time>2022-04-25T08:06:50.886Z</time>
      </trkpt>
      <trkpt lat="41.79025" lon="20.90544">
        <ele>588.894435</ele>
        <time>2022-04-25T08:06:53.944Z</time>
      </trkpt>
      <trkpt lat="41.79027" lon="20.90531">
        <ele>588.913619</ele>
        <time>2022-04-25T08:06:56.884Z</time>
      </trkpt>
      <trkpt lat="41.79029" lon="20.90518">
        <ele>588.933076</ele>
        <time>2022-04-25T08:06:59.882Z</time>
      </trkpt>
      <trkpt lat="41.79032" lon="20.90506">
        <ele>588.950395</ele>
        <time>2022-04-25T08:07:02.899Z</time>
      </trkpt>
      <trkpt lat="41.79034" lon="20.9049">
        <ele>588.972775</ele>
        <time>2022-04-25T08:07:06.877Z</time>
      </trkpt>
      <trkpt lat="41.79033" lon="20.90475">
        <ele>588.994273</ele>
        <time>2022-04-25T08:07:09.890Z</time>
      </trkpt>
      <trkpt lat="41.79034" lon="20.90459">
        <ele>589.015497</ele>
        <time>2022-04-25T08:07:12.898Z</time>
      </trkpt>
      <trkpt lat="41.79034" lon="20.90444">
        <ele>589.036895</ele>
        <time>2022-04-25T08:07:15.884Z</time>
      </trkpt>
      <trkpt lat="41.79035" lon="20.9043">
        <ele>589.05685</ele>
        <time>2022-04-25T08:07:18.900Z</time>
      </trkpt>
      <trkpt lat="41.79036" lon="20.90415">
        <ele>589.078753</ele>
        <time>2022-04-25T08:07:22.893Z</time>
      </trkpt>
      <trkpt lat="41.79039" lon="20.90403">
        <ele>589.096041</ele>
        <time>2022-04-25T08:07:25.917Z</time>
      </trkpt>
      <trkpt lat="41.79041" lon="20.9039">
        <ele>589.115183</ele>
        <time>2022-04-25T08:07:28.930Z</time>
      </trkpt>
      <trkpt lat="41.79042" lon="20.90377">
        <ele>589.132891</ele>
        <time>2022-04-25T08:07:31.910Z</time>
      </trkpt>
      <trkpt lat="41.79042" lon="20.90364">
        <ele>589.135347</ele>
        <time>2022-04-25T08:07:34.935Z</time>
      </trkpt>
      <trkpt lat="41.79043" lon="20.90352">
        <ele>589.073491</ele>
        <time>2022-04-25T08:07:37.891Z</time>
      </trkpt>
      <trkpt lat="41.79043" lon="20.90338">
        <ele>589.008628</ele>
        <time>2022-04-25T08:07:40.921Z</time>
      </trkpt>
      <trkpt lat="41.79044" lon="20.90326">
        <ele>588.945503</ele>
        <time>2022-04-25T08:07:43.900Z</time>
      </trkpt>
      <trkpt lat="41.79046" lon="20.90313">
        <ele>588.881254</ele>
        <time>2022-04-25T08:07:46.903Z</time>
      </trkpt>
      <trkpt lat="41.79047" lon="20.903">
        <ele>588.820014</ele>
        <time>2022-04-25T08:07:49.901Z</time>
      </trkpt>
      <trkpt lat="41.79051" lon="20.90285">
        <ele>588.74105</ele>
        <time>2022-04-25T08:07:53.885Z</time>
      </trkpt>
      <trkpt lat="41.79053" lon="20.90273">
        <ele>588.68004</ele>
        <time>2022-04-25T08:07:56.896Z</time>
      </trkpt>
      <trkpt lat="41.79055" lon="20.90258">
        <ele>588.605324</ele>
        <time>2022-04-25T08:08:00.912Z</time>
      </trkpt>
      <trkpt lat="41.79056" lon="20.90246">
        <ele>588.546016</ele>
        <time>2022-04-25T08:08:03.906Z</time>
      </trkpt>
      <trkpt lat="41.79057" lon="20.90234">
        <ele>588.48514</ele>
        <time>2022-04-25T08:08:06.907Z</time>
      </trkpt>
      <trkpt lat="41.79058" lon="20.90221">
        <ele>588.425179</ele>
        <time>2022-04-25T08:08:09.918Z</time>
      </trkpt>
      <trkpt lat="41.79059" lon="20.90209">
        <ele>588.362719</ele>
        <time>2022-04-25T08:08:12.938Z</time>
      </trkpt>
      <trkpt lat="41.7906" lon="20.90196">
        <ele>588.298198</ele>
        <time>2022-04-25T08:08:15.889Z</time>
      </trkpt>
      <trkpt lat="41.79062" lon="20.90182">
        <ele>588.230668</ele>
        <time>2022-04-25T08:08:18.900Z</time>
      </trkpt>
      <trkpt lat="41.79063" lon="20.90169">
        <ele>588.163816</ele>
        <time>2022-04-25T08:08:21.901Z</time>
      </trkpt>
      <trkpt lat="41.79064" lon="20.90156">
        <ele>588.102155</ele>
        <time>2022-04-25T08:08:24.889Z</time>
      </trkpt>
      <trkpt lat="41.79065" lon="20.90144">
        <ele>588.040981</ele>
        <time>2022-04-25T08:08:27.887Z</time>
      </trkpt>
      <trkpt lat="41.79066" lon="20.90132">
        <ele>587.981543</ele>
        <time>2022-04-25T08:08:30.904Z</time>
      </trkpt>
      <trkpt lat="41.79067" lon="20.90119">
        <ele>587.778042</ele>
        <time>2022-04-25T08:08:33.900Z</time>
      </trkpt>
      <trkpt lat="41.79069" lon="20.90107">
        <ele>587.506307</ele>
        <time>2022-04-25T08:08:36.922Z</time>
      </trkpt>
      <trkpt lat="41.79071" lon="20.90094">
        <ele>587.236623</ele>
        <time>2022-04-25T08:08:39.905Z</time>
      </trkpt>
      <trkpt lat="41.79073" lon="20.90081">
        <ele>586.970492</ele>
        <time>2022-04-25T08:08:42.883Z</time>
      </trkpt>
      <trkpt lat="41.79075" lon="20.90069">
        <ele>586.704361</ele>
        <time>2022-04-25T08:08:45.904Z</time>
      </trkpt>
      <trkpt lat="41.79076" lon="20.90057">
        <ele>586.444793</ele>
        <time>2022-04-25T08:08:48.929Z</time>
      </trkpt>
      <trkpt lat="41.79077" lon="20.90041">
        <ele>586.117628</ele>
        <time>2022-04-25T08:08:52.909Z</time>
      </trkpt>
      <trkpt lat="41.79079" lon="20.90026">
        <ele>585.802803</ele>
        <time>2022-04-25T08:08:56.918Z</time>
      </trkpt>
      <trkpt lat="41.79083" lon="20.90013">
        <ele>585.50466</ele>
        <time>2022-04-25T08:09:00.901Z</time>
      </trkpt>
      <trkpt lat="41.79091" lon="20.90003">
        <ele>585.197842</ele>
        <time>2022-04-25T08:09:04.910Z</time>
      </trkpt>
      <trkpt lat="41.791" lon="20.89998">
        <ele>584.927885</ele>
        <time>2022-04-25T08:09:07.909Z</time>
      </trkpt>
      <trkpt lat="41.7911" lon="20.89995">
        <ele>584.660876</ele>
        <time>2022-04-25T08:09:10.887Z</time>
      </trkpt>
      <trkpt lat="41.79119" lon="20.89992">
        <ele>584.395462</ele>
        <time>2022-04-25T08:09:13.903Z</time>
      </trkpt>
      <trkpt lat="41.79128" lon="20.89989">
        <ele>584.125107</ele>
        <time>2022-04-25T08:09:16.906Z</time>
      </trkpt>
      <trkpt lat="41.79138" lon="20.89986">
        <ele>583.848736</ele>
        <time>2022-04-25T08:09:19.902Z</time>
      </trkpt>
      <trkpt lat="41.79147" lon="20.89984">
        <ele>583.575112</ele>
        <time>2022-04-25T08:09:22.899Z</time>
      </trkpt>
      <trkpt lat="41.79158" lon="20.89981">
        <ele>583.284212</ele>
        <time>2022-04-25T08:09:25.908Z</time>
      </trkpt>
      <trkpt lat="41.79168" lon="20.89979">
        <ele>582.996622</ele>
        <time>2022-04-25T08:09:28.901Z</time>
      </trkpt>
      <trkpt lat="41.79177" lon="20.89978">
        <ele>583.186835</ele>
        <time>2022-04-25T08:09:31.884Z</time>
      </trkpt>
      <trkpt lat="41.79188" lon="20.89976">
        <ele>583.563885</ele>
        <time>2022-04-25T08:09:35.904Z</time>
      </trkpt>
      <trkpt lat="41.79199" lon="20.89974">
        <ele>583.945502</ele>
        <time>2022-04-25T08:09:39.899Z</time>
      </trkpt>
      <trkpt lat="41.7921" lon="20.89972">
        <ele>584.358687</ele>
        <time>2022-04-25T08:09:43.904Z</time>
      </trkpt>
      <trkpt lat="41.7922" lon="20.8997">
        <ele>584.694048</ele>
        <time>2022-04-25T08:09:46.903Z</time>
      </trkpt>
      <trkpt lat="41.7923" lon="20.89967">
        <ele>585.073623</ele>
        <time>2022-04-25T08:09:49.908Z</time>
      </trkpt>
      <trkpt lat="41.79241" lon="20.89964">
        <ele>585.469901</ele>
        <time>2022-04-25T08:09:52.897Z</time>
      </trkpt>
      <trkpt lat="41.79253" lon="20.8996">
        <ele>585.898134</ele>
        <time>2022-04-25T08:09:55.900Z</time>
      </trkpt>
      <trkpt lat="41.79265" lon="20.89956">
        <ele>586.341127</ele>
        <time>2022-04-25T08:09:58.885Z</time>
      </trkpt>
      <trkpt lat="41.79275" lon="20.89955">
        <ele>586.690856</ele>
        <time>2022-04-25T08:10:00.899Z</time>
      </trkpt>
      <trkpt lat="41.79286" lon="20.89949">
        <ele>587.124813</ele>
        <time>2022-04-25T08:10:02.890Z</time>
      </trkpt>
      <trkpt lat="41.79299" lon="20.89943">
        <ele>587.617593</ele>
        <time>2022-04-25T08:10:05.893Z</time>
      </trkpt>
      <trkpt lat="41.79308" lon="20.89939">
        <ele>587.956176</ele>
        <time>2022-04-25T08:10:07.879Z</time>
      </trkpt>
      <trkpt lat="41.7932" lon="20.89937">
        <ele>588.362343</ele>
        <time>2022-04-25T08:10:10.932Z</time>
      </trkpt>
      <trkpt lat="41.79332" lon="20.89933">
        <ele>588.809833</ele>
        <time>2022-04-25T08:10:13.886Z</time>
      </trkpt>
      <trkpt lat="41.79343" lon="20.89933">
        <ele>589.181116</ele>
        <time>2022-04-25T08:10:16.887Z</time>
      </trkpt>
      <trkpt lat="41.79354" lon="20.89932">
        <ele>589.544953</ele>
        <time>2022-04-25T08:10:19.888Z</time>
      </trkpt>
      <trkpt lat="41.79365" lon="20.8993">
        <ele>589.890901</ele>
        <time>2022-04-25T08:10:23.892Z</time>
      </trkpt>
      <trkpt lat="41.79375" lon="20.89929">
        <ele>590.211753</ele>
        <time>2022-04-25T08:10:27.978Z</time>
      </trkpt>
      <trkpt lat="41.79386" lon="20.89925">
        <ele>590.566472</ele>
        <time>2022-04-25T08:10:31.904Z</time>
      </trkpt>
      <trkpt lat="41.79396" lon="20.89925">
        <ele>590.878982</ele>
        <time>2022-04-25T08:10:34.909Z</time>
      </trkpt>
      <trkpt lat="41.79408" lon="20.89922">
        <ele>591.251591</ele>
        <time>2022-04-25T08:10:38.907Z</time>
      </trkpt>
      <trkpt lat="41.79417" lon="20.8992">
        <ele>591.536241</ele>
        <time>2022-04-25T08:10:41.887Z</time>
      </trkpt>
      <trkpt lat="41.79426" lon="20.8992">
        <ele>591.817439</ele>
        <time>2022-04-25T08:10:43.975Z</time>
      </trkpt>
      <trkpt lat="41.79435" lon="20.89918">
        <ele>592.104496</ele>
        <time>2022-04-25T08:10:46.971Z</time>
      </trkpt>
      <trkpt lat="41.79445" lon="20.89917">
        <ele>592.427512</ele>
        <time>2022-04-25T08:10:50.901Z</time>
      </trkpt>
      <trkpt lat="41.79455" lon="20.89915">
        <ele>592.731409</ele>
        <time>2022-04-25T08:10:54.925Z</time>
      </trkpt>
      <trkpt lat="41.79463" lon="20.8991">
        <ele>593.016675</ele>
        <time>2022-04-25T08:10:59.909Z</time>
      </trkpt>
      <trkpt lat="41.79473" lon="20.89907">
        <ele>593.321466</ele>
        <time>2022-04-25T08:11:09.981Z</time>
      </trkpt>
      <trkpt lat="41.79483" lon="20.89905">
        <ele>593.638258</ele>
        <time>2022-04-25T08:11:14.888Z</time>
      </trkpt>
      <trkpt lat="41.79494" lon="20.89903">
        <ele>593.989912</ele>
        <time>2022-04-25T08:11:18.904Z</time>
      </trkpt>
      <trkpt lat="41.79503" lon="20.89901">
        <ele>594.280391</ele>
        <time>2022-04-25T08:11:21.909Z</time>
      </trkpt>
      <trkpt lat="41.79512" lon="20.89897">
        <ele>594.582551</ele>
        <time>2022-04-25T08:11:24.897Z</time>
      </trkpt>
      <trkpt lat="41.79514" lon="20.89884">
        <ele>594.896938</ele>
        <time>2022-04-25T08:11:28.887Z</time>
      </trkpt>
      <trkpt lat="41.79512" lon="20.89872">
        <ele>595.11243</ele>
        <time>2022-04-25T08:11:31.921Z</time>
      </trkpt>
      <trkpt lat="41.79508" lon="20.89858">
        <ele>595.37656</ele>
        <time>2022-04-25T08:11:35.907Z</time>
      </trkpt>
      <trkpt lat="41.79506" lon="20.89844">
        <ele>595.626202</ele>
        <time>2022-04-25T08:11:39.893Z</time>
      </trkpt>
      <trkpt lat="41.79504" lon="20.89828">
        <ele>595.901685</ele>
        <time>2022-04-25T08:11:43.885Z</time>
      </trkpt>
      <trkpt lat="41.79501" lon="20.89814">
        <ele>596.140036</ele>
        <time>2022-04-25T08:11:46.882Z</time>
      </trkpt>
      <trkpt lat="41.79497" lon="20.89802">
        <ele>596.364579</ele>
        <time>2022-04-25T08:11:49.870Z</time>
      </trkpt>
      <trkpt lat="41.79495" lon="20.89788">
        <ele>596.613633</ele>
        <time>2022-04-25T08:11:52.895Z</time>
      </trkpt>
      <trkpt lat="41.79493" lon="20.89775">
        <ele>596.851939</ele>
        <time>2022-04-25T08:11:55.946Z</time>
      </trkpt>
      <trkpt lat="41.7949" lon="20.89761">
        <ele>597.090411</ele>
        <time>2022-04-25T08:11:58.909Z</time>
      </trkpt>
      <trkpt lat="41.79488" lon="20.89748">
        <ele>597.322815</ele>
        <time>2022-04-25T08:12:01.887Z</time>
      </trkpt>
      <trkpt lat="41.79486" lon="20.89734">
        <ele>597.56963</ele>
        <time>2022-04-25T08:12:04.899Z</time>
      </trkpt>
      <trkpt lat="41.79484" lon="20.89721">
        <ele>597.799221</ele>
        <time>2022-04-25T08:12:07.896Z</time>
      </trkpt>
      <trkpt lat="41.79483" lon="20.89709">
        <ele>598.017013</ele>
        <time>2022-04-25T08:12:10.909Z</time>
      </trkpt>
      <trkpt lat="41.79481" lon="20.89696">
        <ele>598.237144</ele>
        <time>2022-04-25T08:12:13.907Z</time>
      </trkpt>
      <trkpt lat="41.79479" lon="20.89683">
        <ele>598.466562</ele>
        <time>2022-04-25T08:12:16.892Z</time>
      </trkpt>
      <trkpt lat="41.79478" lon="20.8967">
        <ele>598.683931</ele>
        <time>2022-04-25T08:12:19.887Z</time>
      </trkpt>
      <trkpt lat="41.79477" lon="20.89657">
        <ele>598.91565</ele>
        <time>2022-04-25T08:12:22.900Z</time>
      </trkpt>
      <trkpt lat="41.79477" lon="20.89643">
        <ele>598.992265</ele>
        <time>2022-04-25T08:12:25.892Z</time>
      </trkpt>
      <trkpt lat="41.79475" lon="20.89631">
        <ele>598.815117</ele>
        <time>2022-04-25T08:12:28.927Z</time>
      </trkpt>
      <trkpt lat="41.79474" lon="20.89618">
        <ele>598.62203</ele>
        <time>2022-04-25T08:12:31.898Z</time>
      </trkpt>
      <trkpt lat="41.79474" lon="20.89604">
        <ele>598.425077</ele>
        <time>2022-04-25T08:12:34.893Z</time>
      </trkpt>
      <trkpt lat="41.79472" lon="20.89588">
        <ele>598.199342</ele>
        <time>2022-04-25T08:12:38.903Z</time>
      </trkpt>
      <trkpt lat="41.79471" lon="20.89575">
        <ele>598.010857</ele>
        <time>2022-04-25T08:12:41.895Z</time>
      </trkpt>
      <trkpt lat="41.79472" lon="20.89561">
        <ele>597.811336</ele>
        <time>2022-04-25T08:12:44.882Z</time>
      </trkpt>
      <trkpt lat="41.79472" lon="20.89547">
        <ele>597.603019</ele>
        <time>2022-04-25T08:12:47.878Z</time>
      </trkpt>
      <trkpt lat="41.7947" lon="20.89531">
        <ele>597.375826</ele>
        <time>2022-04-25T08:12:50.882Z</time>
      </trkpt>
      <trkpt lat="41.79469" lon="20.89517">
        <ele>597.164545</ele>
        <time>2022-04-25T08:12:53.906Z</time>
      </trkpt>
      <trkpt lat="41.79469" lon="20.89503">
        <ele>596.964829</ele>
        <time>2022-04-25T08:12:56.889Z</time>
      </trkpt>
      <trkpt lat="41.79467" lon="20.8949">
        <ele>596.773987</ele>
        <time>2022-04-25T08:12:59.889Z</time>
      </trkpt>
      <trkpt lat="41.79467" lon="20.89475">
        <ele>596.56103</ele>
        <time>2022-04-25T08:13:02.918Z</time>
      </trkpt>
      <trkpt lat="41.79467" lon="20.8946">
        <ele>596.355661</ele>
        <time>2022-04-25T08:13:05.887Z</time>
      </trkpt>
      <trkpt lat="41.79467" lon="20.89446">
        <ele>596.154705</ele>
        <time>2022-04-25T08:13:08.882Z</time>
      </trkpt>
      <trkpt lat="41.79468" lon="20.89433">
        <ele>595.962309</ele>
        <time>2022-04-25T08:13:11.914Z</time>
      </trkpt>
      <trkpt lat="41.79468" lon="20.8942">
        <ele>595.771349</ele>
        <time>2022-04-25T08:13:14.903Z</time>
      </trkpt>
      <trkpt lat="41.79468" lon="20.89407">
        <ele>595.633252</ele>
        <time>2022-04-25T08:13:17.900Z</time>
      </trkpt>
      <trkpt lat="41.79467" lon="20.89395">
        <ele>596.102084</ele>
        <time>2022-04-25T08:13:20.895Z</time>
      </trkpt>
      <trkpt lat="41.79467" lon="20.89382">
        <ele>596.573988</ele>
        <time>2022-04-25T08:13:23.936Z</time>
      </trkpt>
      <trkpt lat="41.79468" lon="20.89367">
        <ele>597.150957</ele>
        <time>2022-04-25T08:13:27.893Z</time>
      </trkpt>
      <trkpt lat="41.79469" lon="20.89353">
        <ele>597.684703</ele>
        <time>2022-04-25T08:13:31.892Z</time>
      </trkpt>
      <trkpt lat="41.79466" lon="20.89338">
        <ele>598.235229</ele>
        <time>2022-04-25T08:13:35.885Z</time>
      </trkpt>
      <trkpt lat="41.79463" lon="20.89326">
        <ele>598.714668</ele>
        <time>2022-04-25T08:13:39.913Z</time>
      </trkpt>
      <trkpt lat="41.79459" lon="20.89315">
        <ele>599.18335</ele>
        <time>2022-04-25T08:13:42.898Z</time>
      </trkpt>
      <trkpt lat="41.79458" lon="20.89298">
        <ele>599.797313</ele>
        <time>2022-04-25T08:13:46.908Z</time>
      </trkpt>
      <trkpt lat="41.79459" lon="20.89283">
        <ele>600.363941</ele>
        <time>2022-04-25T08:13:49.897Z</time>
      </trkpt>
      <trkpt lat="41.79459" lon="20.89271">
        <ele>600.829333</ele>
        <time>2022-04-25T08:13:52.900Z</time>
      </trkpt>
      <trkpt lat="41.7946" lon="20.89258">
        <ele>601.300742</ele>
        <time>2022-04-25T08:13:55.954Z</time>
      </trkpt>
      <trkpt lat="41.7946" lon="20.89243">
        <ele>601.870046</ele>
        <time>2022-04-25T08:13:59.921Z</time>
      </trkpt>
      <trkpt lat="41.79461" lon="20.89227">
        <ele>602.477113</ele>
        <time>2022-04-25T08:14:02.945Z</time>
      </trkpt>
      <trkpt lat="41.79459" lon="20.89211">
        <ele>603.068331</ele>
        <time>2022-04-25T08:14:06.906Z</time>
      </trkpt>
      <trkpt lat="41.79457" lon="20.89198">
        <ele>603.595093</ele>
        <time>2022-04-25T08:14:10.892Z</time>
      </trkpt>
      <trkpt lat="41.79455" lon="20.89183">
        <ele>604.144634</ele>
        <time>2022-04-25T08:14:14.910Z</time>
      </trkpt>
      <trkpt lat="41.79453" lon="20.89168">
        <ele>604.634794</ele>
        <time>2022-04-25T08:14:18.911Z</time>
      </trkpt>
      <trkpt lat="41.79451" lon="20.89151">
        <ele>604.601448</ele>
        <time>2022-04-25T08:14:22.904Z</time>
      </trkpt>
      <trkpt lat="41.79451" lon="20.89135">
        <ele>604.569579</ele>
        <time>2022-04-25T08:14:25.952Z</time>
      </trkpt>
      <trkpt lat="41.7945" lon="20.8912">
        <ele>604.540744</ele>
        <time>2022-04-25T08:14:28.885Z</time>
      </trkpt>
      <trkpt lat="41.79448" lon="20.89104">
        <ele>604.508257</ele>
        <time>2022-04-25T08:14:31.895Z</time>
      </trkpt>
      <trkpt lat="41.79446" lon="20.8909">
        <ele>604.480041</ele>
        <time>2022-04-25T08:14:34.935Z</time>
      </trkpt>
      <trkpt lat="41.79443" lon="20.89076">
        <ele>604.451635</ele>
        <time>2022-04-25T08:14:38.900Z</time>
      </trkpt>
      <trkpt lat="41.79441" lon="20.8906">
        <ele>604.420076</ele>
        <time>2022-04-25T08:14:42.911Z</time>
      </trkpt>
      <trkpt lat="41.7944" lon="20.89048">
        <ele>604.396244</ele>
        <time>2022-04-25T08:14:45.897Z</time>
      </trkpt>
      <trkpt lat="41.79437" lon="20.89036">
        <ele>604.371698</ele>
        <time>2022-04-25T08:14:48.885Z</time>
      </trkpt>
      <trkpt lat="41.79435" lon="20.89023">
        <ele>604.346528</ele>
        <time>2022-04-25T08:14:51.912Z</time>
      </trkpt>
      <trkpt lat="41.79432" lon="20.8901">
        <ele>604.319813</ele>
        <time>2022-04-25T08:14:54.898Z</time>
      </trkpt>
      <trkpt lat="41.79428" lon="20.88998">
        <ele>604.294258</ele>
        <time>2022-04-25T08:14:57.878Z</time>
      </trkpt>
      <trkpt lat="41.79427" lon="20.88985">
        <ele>604.269463</ele>
        <time>2022-04-25T08:15:00.907Z</time>
      </trkpt>
      <trkpt lat="41.79424" lon="20.88972">
        <ele>604.242749</ele>
        <time>2022-04-25T08:15:03.949Z</time>
      </trkpt>
      <trkpt lat="41.79422" lon="20.8896">
        <ele>604.218957</ele>
        <time>2022-04-25T08:15:06.884Z</time>
      </trkpt>
      <trkpt lat="41.79421" lon="20.88948">
        <ele>604.194157</ele>
        <time>2022-04-25T08:15:09.893Z</time>
      </trkpt>
      <trkpt lat="41.7942" lon="20.88935">
        <ele>604.169744</ele>
        <time>2022-04-25T08:15:12.908Z</time>
      </trkpt>
      <trkpt lat="41.79418" lon="20.8892">
        <ele>604.030728</ele>
        <time>2022-04-25T08:15:16.900Z</time>
      </trkpt>
      <trkpt lat="41.79416" lon="20.88907">
        <ele>603.901592</ele>
        <time>2022-04-25T08:15:19.897Z</time>
      </trkpt>
      <trkpt lat="41.79412" lon="20.88892">
        <ele>603.748996</ele>
        <time>2022-04-25T08:15:23.916Z</time>
      </trkpt>
      <trkpt lat="41.7941" lon="20.88877">
        <ele>603.604516</ele>
        <time>2022-04-25T08:15:26.984Z</time>
      </trkpt>
      <trkpt lat="41.79408" lon="20.88862">
        <ele>603.453629</ele>
        <time>2022-04-25T08:15:29.901Z</time>
      </trkpt>
      <trkpt lat="41.79406" lon="20.88848">
        <ele>603.319057</ele>
        <time>2022-04-25T08:15:32.909Z</time>
      </trkpt>
      <trkpt lat="41.79405" lon="20.88833">
        <ele>603.179055</ele>
        <time>2022-04-25T08:15:35.890Z</time>
      </trkpt>
      <trkpt lat="41.79404" lon="20.88821">
        <ele>603.061802</ele>
        <time>2022-04-25T08:15:38.900Z</time>
      </trkpt>
      <trkpt lat="41.79403" lon="20.88806">
        <ele>602.916476</ele>
        <time>2022-04-25T08:15:42.891Z</time>
      </trkpt>
      <trkpt lat="41.79404" lon="20.88793">
        <ele>602.79022</ele>
        <time>2022-04-25T08:15:45.890Z</time>
      </trkpt>
      <trkpt lat="41.79405" lon="20.8878">
        <ele>602.667895</ele>
        <time>2022-04-25T08:15:48.902Z</time>
      </trkpt>
      <trkpt lat="41.79405" lon="20.88766">
        <ele>602.533261</ele>
        <time>2022-04-25T08:15:51.908Z</time>
      </trkpt>
      <trkpt lat="41.79407" lon="20.88753">
        <ele>602.408221</ele>
        <time>2022-04-25T08:15:54.937Z</time>
      </trkpt>
      <trkpt lat="41.7941" lon="20.88741">
        <ele>602.27681</ele>
        <time>2022-04-25T08:15:57.877Z</time>
      </trkpt>
      <trkpt lat="41.79414" lon="20.88729">
        <ele>602.154364</ele>
        <time>2022-04-25T08:16:00.931Z</time>
      </trkpt>
      <trkpt lat="41.7942" lon="20.88718">
        <ele>602.022314</ele>
        <time>2022-04-25T08:16:03.914Z</time>
      </trkpt>
      <trkpt lat="41.79426" lon="20.88706">
        <ele>601.889799</ele>
        <time>2022-04-25T08:16:06.900Z</time>
      </trkpt>
      <trkpt lat="41.79432" lon="20.88695">
        <ele>601.512515</ele>
        <time>2022-04-25T08:16:09.918Z</time>
      </trkpt>
      <trkpt lat="41.79437" lon="20.88684">
        <ele>601.070004</ele>
        <time>2022-04-25T08:16:12.906Z</time>
      </trkpt>
      <trkpt lat="41.79444" lon="20.88673">
        <ele>600.571532</ele>
        <time>2022-04-25T08:16:15.892Z</time>
      </trkpt>
      <trkpt lat="41.79451" lon="20.88663">
        <ele>600.120753</ele>
        <time>2022-04-25T08:16:18.915Z</time>
      </trkpt>
      <trkpt lat="41.79458" lon="20.8865">
        <ele>599.575861</ele>
        <time>2022-04-25T08:16:22.927Z</time>
      </trkpt>
      <trkpt lat="41.79462" lon="20.88639">
        <ele>599.156745</ele>
        <time>2022-04-25T08:16:25.904Z</time>
      </trkpt>
      <trkpt lat="41.79468" lon="20.88626">
        <ele>598.657238</ele>
        <time>2022-04-25T08:16:29.911Z</time>
      </trkpt>
      <trkpt lat="41.79472" lon="20.88614">
        <ele>598.189285</ele>
        <time>2022-04-25T08:16:34.041Z</time>
      </trkpt>
      <trkpt lat="41.79473" lon="20.886">
        <ele>597.722582</ele>
        <time>2022-04-25T08:16:36.892Z</time>
      </trkpt>
      <trkpt lat="41.79468" lon="20.88586">
        <ele>597.23108</ele>
        <time>2022-04-25T08:16:39.907Z</time>
      </trkpt>
      <trkpt lat="41.79463" lon="20.88575">
        <ele>596.770509</ele>
        <time>2022-04-25T08:16:42.907Z</time>
      </trkpt>
      <trkpt lat="41.79457" lon="20.88563">
        <ele>596.30127</ele>
        <time>2022-04-25T08:16:45.903Z</time>
      </trkpt>
      <trkpt lat="41.79452" lon="20.88552">
        <ele>595.858759</ele>
        <time>2022-04-25T08:16:48.898Z</time>
      </trkpt>
      <trkpt lat="41.79447" lon="20.88541">
        <ele>595.413063</ele>
        <time>2022-04-25T08:16:51.890Z</time>
      </trkpt>
      <trkpt lat="41.79442" lon="20.88531">
        <ele>594.991341</ele>
        <time>2022-04-25T08:16:54.901Z</time>
      </trkpt>
      <trkpt lat="41.79437" lon="20.8852">
        <ele>594.577351</ele>
        <time>2022-04-25T08:16:57.898Z</time>
      </trkpt>
      <trkpt lat="41.79433" lon="20.88509">
        <ele>594.157383</ele>
        <time>2022-04-25T08:17:00.917Z</time>
      </trkpt>
      <trkpt lat="41.79428" lon="20.88498">
        <ele>593.73514</ele>
        <time>2022-04-25T08:17:03.908Z</time>
      </trkpt>
      <trkpt lat="41.79424" lon="20.88487">
        <ele>593.871539</ele>
        <time>2022-04-25T08:17:06.907Z</time>
      </trkpt>
      <trkpt lat="41.79419" lon="20.88476">
        <ele>594.072939</ele>
        <time>2022-04-25T08:17:09.910Z</time>
      </trkpt>
      <trkpt lat="41.79414" lon="20.88465">
        <ele>594.266594</ele>
        <time>2022-04-25T08:17:12.902Z</time>
      </trkpt>
      <trkpt lat="41.7941" lon="20.88454">
        <ele>594.452222</ele>
        <time>2022-04-25T08:17:15.890Z</time>
      </trkpt>
      <trkpt lat="41.79405" lon="20.88443">
        <ele>594.643947</ele>
        <time>2022-04-25T08:17:18.922Z</time>
      </trkpt>
      <trkpt lat="41.79401" lon="20.88431">
        <ele>594.84022</ele>
        <time>2022-04-25T08:17:21.905Z</time>
      </trkpt>
      <trkpt lat="41.79397" lon="20.8842">
        <ele>595.044732</ele>
        <time>2022-04-25T08:17:24.901Z</time>
      </trkpt>
      <trkpt lat="41.79392" lon="20.88409">
        <ele>595.231131</ele>
        <time>2022-04-25T08:17:27.885Z</time>
      </trkpt>
      <trkpt lat="41.79387" lon="20.88396">
        <ele>595.459001</ele>
        <time>2022-04-25T08:17:31.897Z</time>
      </trkpt>
      <trkpt lat="41.79381" lon="20.88382">
        <ele>595.700192</ele>
        <time>2022-04-25T08:17:35.930Z</time>
      </trkpt>
      <trkpt lat="41.79375" lon="20.88368">
        <ele>595.948728</ele>
        <time>2022-04-25T08:17:39.903Z</time>
      </trkpt>
      <trkpt lat="41.79371" lon="20.88356">
        <ele>596.146876</ele>
        <time>2022-04-25T08:17:42.901Z</time>
      </trkpt>
      <trkpt lat="41.79367" lon="20.88345">
        <ele>596.341327</ele>
        <time>2022-04-25T08:17:45.894Z</time>
      </trkpt>
      <trkpt lat="41.79361" lon="20.88331">
        <ele>596.585649</ele>
        <time>2022-04-25T08:17:49.887Z</time>
      </trkpt>
      <trkpt lat="41.79357" lon="20.8832">
        <ele>596.770482</ele>
        <time>2022-04-25T08:17:52.900Z</time>
      </trkpt>
      <trkpt lat="41.79353" lon="20.88309">
        <ele>596.96747</ele>
        <time>2022-04-25T08:17:55.906Z</time>
      </trkpt>
      <trkpt lat="41.79348" lon="20.88297">
        <ele>597.16885</ele>
        <time>2022-04-25T08:17:58.906Z</time>
      </trkpt>
      <trkpt lat="41.79343" lon="20.88286">
        <ele>597.361844</ele>
        <time>2022-04-25T08:18:01.904Z</time>
      </trkpt>
      <trkpt lat="41.79337" lon="20.88272">
        <ele>597.500896</ele>
        <time>2022-04-25T08:18:05.919Z</time>
      </trkpt>
      <trkpt lat="41.79333" lon="20.88262">
        <ele>597.598834</ele>
        <time>2022-04-25T08:18:08.970Z</time>
      </trkpt>
      <trkpt lat="41.79328" lon="20.88251">
        <ele>597.697859</ele>
        <time>2022-04-25T08:18:11.906Z</time>
      </trkpt>
      <trkpt lat="41.79323" lon="20.8824">
        <ele>597.798876</ele>
        <time>2022-04-25T08:18:14.930Z</time>
      </trkpt>
      <trkpt lat="41.79317" lon="20.88229">
        <ele>597.897064</ele>
        <time>2022-04-25T08:18:17.889Z</time>
      </trkpt>
      <trkpt lat="41.79311" lon="20.88216">
        <ele>598.022001</ele>
        <time>2022-04-25T08:18:21.892Z</time>
      </trkpt>
      <trkpt lat="41.79305" lon="20.88206">
        <ele>598.116331</ele>
        <time>2022-04-25T08:18:24.898Z</time>
      </trkpt>
      <trkpt lat="41.79298" lon="20.88193">
        <ele>598.239367</ele>
        <time>2022-04-25T08:18:28.914Z</time>
      </trkpt>
      <trkpt lat="41.79292" lon="20.88181">
        <ele>598.359918</ele>
        <time>2022-04-25T08:18:32.912Z</time>
      </trkpt>
      <trkpt lat="41.79285" lon="20.88168">
        <ele>598.483566</ele>
        <time>2022-04-25T08:18:36.886Z</time>
      </trkpt>
      <trkpt lat="41.79278" lon="20.88159">
        <ele>598.580165</ele>
        <time>2022-04-25T08:18:39.904Z</time>
      </trkpt>
      <trkpt lat="41.79272" lon="20.88151">
        <ele>598.675223</ele>
        <time>2022-04-25T08:18:42.931Z</time>
      </trkpt>
      <trkpt lat="41.79265" lon="20.88142">
        <ele>598.769746</ele>
        <time>2022-04-25T08:18:45.909Z</time>
      </trkpt>
      <trkpt lat="41.79258" lon="20.88134">
        <ele>598.865547</ele>
        <time>2022-04-25T08:18:48.944Z</time>
      </trkpt>
      <trkpt lat="41.7925" lon="20.88125">
        <ele>598.982265</ele>
        <time>2022-04-25T08:18:52.898Z</time>
      </trkpt>
      <trkpt lat="41.79241" lon="20.88115">
        <ele>599.101269</ele>
        <time>2022-04-25T08:18:56.892Z</time>
      </trkpt>
      <trkpt lat="41.79231" lon="20.88105">
        <ele>599.226959</ele>
        <time>2022-04-25T08:19:00.912Z</time>
      </trkpt>
      <trkpt lat="41.79222" lon="20.88096">
        <ele>599.418582</ele>
        <time>2022-04-25T08:19:04.899Z</time>
      </trkpt>
      <trkpt lat="41.79212" lon="20.88087">
        <ele>599.651173</ele>
        <time>2022-04-25T08:19:08.901Z</time>
      </trkpt>
      <trkpt lat="41.79202" lon="20.88078">
        <ele>599.887359</ele>
        <time>2022-04-25T08:19:12.929Z</time>
      </trkpt>
      <trkpt lat="41.79192" lon="20.88071">
        <ele>600.110258</ele>
        <time>2022-04-25T08:19:16.891Z</time>
      </trkpt>
      <trkpt lat="41.79182" lon="20.88064">
        <ele>600.336321</ele>
        <time>2022-04-25T08:19:20.904Z</time>
      </trkpt>
      <trkpt lat="41.79173" lon="20.88059">
        <ele>600.51684</ele>
        <time>2022-04-25T08:19:23.916Z</time>
      </trkpt>
      <trkpt lat="41.79162" lon="20.88054">
        <ele>600.74801</ele>
        <time>2022-04-25T08:19:27.888Z</time>
      </trkpt>
      <trkpt lat="41.79153" lon="20.8805">
        <ele>600.936475</ele>
        <time>2022-04-25T08:19:30.901Z</time>
      </trkpt>
      <trkpt lat="41.79142" lon="20.88046">
        <ele>601.162673</ele>
        <time>2022-04-25T08:19:34.898Z</time>
      </trkpt>
      <trkpt lat="41.79133" lon="20.88042">
        <ele>601.340803</ele>
        <time>2022-04-25T08:19:37.884Z</time>
      </trkpt>
      <trkpt lat="41.79123" lon="20.88039">
        <ele>601.539353</ele>
        <time>2022-04-25T08:19:40.893Z</time>
      </trkpt>
      <trkpt lat="41.79114" lon="20.88036">
        <ele>601.727559</ele>
        <time>2022-04-25T08:19:43.920Z</time>
      </trkpt>
      <trkpt lat="41.79104" lon="20.88033">
        <ele>601.917987</ele>
        <time>2022-04-25T08:19:46.891Z</time>
      </trkpt>
      <trkpt lat="41.79095" lon="20.8803">
        <ele>602.10822</ele>
        <time>2022-04-25T08:19:49.894Z</time>
      </trkpt>
      <trkpt lat="41.79085" lon="20.88026">
        <ele>602.300015</ele>
        <time>2022-04-25T08:19:52.901Z</time>
      </trkpt>
      <trkpt lat="41.79076" lon="20.88023">
        <ele>602.485355</ele>
        <time>2022-04-25T08:19:55.900Z</time>
      </trkpt>
      <trkpt lat="41.79067" lon="20.88019">
        <ele>602.681652</ele>
        <time>2022-04-25T08:19:58.894Z</time>
      </trkpt>
      <trkpt lat="41.79058" lon="20.88014">
        <ele>602.797267</ele>
        <time>2022-04-25T08:20:01.914Z</time>
      </trkpt>
      <trkpt lat="41.79048" lon="20.88009">
        <ele>602.812081</ele>
        <time>2022-04-25T08:20:04.895Z</time>
      </trkpt>
      <trkpt lat="41.79039" lon="20.88003">
        <ele>602.827895</ele>
        <time>2022-04-25T08:20:07.892Z</time>
      </trkpt>
      <trkpt lat="41.7903" lon="20.87995">
        <ele>602.843714</ele>
        <time>2022-04-25T08:20:10.903Z</time>
      </trkpt>
      <trkpt lat="41.79022" lon="20.87988">
        <ele>602.858524</ele>
        <time>2022-04-25T08:20:13.908Z</time>
      </trkpt>
      <trkpt lat="41.79015" lon="20.87979">
        <ele>602.87339</ele>
        <time>2022-04-25T08:20:16.893Z</time>
      </trkpt>
      <trkpt lat="41.79006" lon="20.87968">
        <ele>602.891233</ele>
        <time>2022-04-25T08:20:20.910Z</time>
      </trkpt>
      <trkpt lat="41.79" lon="20.87959">
        <ele>602.904999</ele>
        <time>2022-04-25T08:20:23.901Z</time>
      </trkpt>
      <trkpt lat="41.78995" lon="20.87949">
        <ele>602.919086</ele>
        <time>2022-04-25T08:20:26.903Z</time>
      </trkpt>
      <trkpt lat="41.78988" lon="20.87936">
        <ele>602.936644</ele>
        <time>2022-04-25T08:20:30.890Z</time>
      </trkpt>
      <trkpt lat="41.78983" lon="20.87923">
        <ele>602.953389</ele>
        <time>2022-04-25T08:20:34.878Z</time>
      </trkpt>
      <trkpt lat="41.78979" lon="20.87908">
        <ele>602.970605</ele>
        <time>2022-04-25T08:20:38.916Z</time>
      </trkpt>
      <trkpt lat="41.78976" lon="20.87895">
        <ele>602.986279</ele>
        <time>2022-04-25T08:20:42.921Z</time>
      </trkpt>
      <trkpt lat="41.78972" lon="20.87883">
        <ele>603.001321</ele>
        <time>2022-04-25T08:20:46.893Z</time>
      </trkpt>
      <trkpt lat="41.78969" lon="20.8787">
        <ele>603.01652</ele>
        <time>2022-04-25T08:20:50.927Z</time>
      </trkpt>
      <trkpt lat="41.78965" lon="20.87857">
        <ele>603.032685</ele>
        <time>2022-04-25T08:20:54.907Z</time>
      </trkpt>
      <trkpt lat="41.78962" lon="20.87845">
        <ele>603.046679</ele>
        <time>2022-04-25T08:20:58.909Z</time>
      </trkpt>
      <trkpt lat="41.78957" lon="20.87833">
        <ele>603.062195</ele>
        <time>2022-04-25T08:21:02.903Z</time>
      </trkpt>
      <trkpt lat="41.78953" lon="20.8782">
        <ele>603.544199</ele>
        <time>2022-04-25T08:21:06.905Z</time>
      </trkpt>
      <trkpt lat="41.78945" lon="20.87809">
        <ele>604.047985</ele>
        <time>2022-04-25T08:21:10.908Z</time>
      </trkpt>
      <trkpt lat="41.78936" lon="20.87799">
        <ele>604.583362</ele>
        <time>2022-04-25T08:21:14.896Z</time>
      </trkpt>
      <trkpt lat="41.78927" lon="20.87789">
        <ele>605.089591</ele>
        <time>2022-04-25T08:21:18.957Z</time>
      </trkpt>
      <trkpt lat="41.78918" lon="20.87781">
        <ele>605.599122</ele>
        <time>2022-04-25T08:21:22.901Z</time>
      </trkpt>
      <trkpt lat="41.78909" lon="20.87772">
        <ele>606.095558</ele>
        <time>2022-04-25T08:21:26.895Z</time>
      </trkpt>
      <trkpt lat="41.789" lon="20.87765">
        <ele>606.576994</ele>
        <time>2022-04-25T08:21:30.890Z</time>
      </trkpt>
      <trkpt lat="41.7889" lon="20.87757">
        <ele>607.095932</ele>
        <time>2022-04-25T08:21:34.901Z</time>
      </trkpt>
      <trkpt lat="41.78882" lon="20.8775">
        <ele>607.553017</ele>
        <time>2022-04-25T08:21:38.914Z</time>
      </trkpt>
      <trkpt lat="41.78872" lon="20.87743">
        <ele>608.03924</ele>
        <time>2022-04-25T08:21:42.886Z</time>
      </trkpt>
      <trkpt lat="41.78864" lon="20.87737">
        <ele>608.468124</ele>
        <time>2022-04-25T08:21:45.902Z</time>
      </trkpt>
      <trkpt lat="41.78856" lon="20.8773">
        <ele>608.883332</ele>
        <time>2022-04-25T08:21:48.924Z</time>
      </trkpt>
      <trkpt lat="41.78847" lon="20.87722">
        <ele>609.411662</ele>
        <time>2022-04-25T08:21:52.891Z</time>
      </trkpt>
      <trkpt lat="41.78838" lon="20.87713">
        <ele>609.910072</ele>
        <time>2022-04-25T08:21:56.899Z</time>
      </trkpt>
      <trkpt lat="41.78829" lon="20.87704">
        <ele>610.414158</ele>
        <time>2022-04-25T08:22:00.896Z</time>
      </trkpt>
      <trkpt lat="41.78821" lon="20.87695">
        <ele>610.890716</ele>
        <time>2022-04-25T08:22:04.912Z</time>
      </trkpt>
      <trkpt lat="41.78813" lon="20.87687">
        <ele>611.254597</ele>
        <time>2022-04-25T08:22:08.890Z</time>
      </trkpt>
      <trkpt lat="41.78805" lon="20.87678">
        <ele>611.353252</ele>
        <time>2022-04-25T08:22:12.904Z</time>
      </trkpt>
      <trkpt lat="41.78797" lon="20.87668">
        <ele>611.447587</ele>
        <time>2022-04-25T08:22:16.905Z</time>
      </trkpt>
      <trkpt lat="41.7879" lon="20.87659">
        <ele>611.540162</ele>
        <time>2022-04-25T08:22:20.880Z</time>
      </trkpt>
      <trkpt lat="41.78782" lon="20.87649">
        <ele>611.637738</ele>
        <time>2022-04-25T08:22:24.907Z</time>
      </trkpt>
      <trkpt lat="41.78776" lon="20.8764">
        <ele>611.723251</ele>
        <time>2022-04-25T08:22:28.882Z</time>
      </trkpt>
      <trkpt lat="41.7877" lon="20.87627">
        <ele>611.826059</ele>
        <time>2022-04-25T08:22:33.906Z</time>
      </trkpt>
      <trkpt lat="41.78763" lon="20.87615">
        <ele>611.928312</ele>
        <time>2022-04-25T08:22:37.876Z</time>
      </trkpt>
      <trkpt lat="41.78756" lon="20.87604">
        <ele>612.027408</ele>
        <time>2022-04-25T08:22:41.926Z</time>
      </trkpt>
      <trkpt lat="41.78749" lon="20.87593">
        <ele>612.128665</ele>
        <time>2022-04-25T08:22:45.897Z</time>
      </trkpt>
      <trkpt lat="41.78743" lon="20.87584">
        <ele>612.211623</ele>
        <time>2022-04-25T08:22:48.924Z</time>
      </trkpt>
      <trkpt lat="41.78737" lon="20.87573">
        <ele>612.300776</ele>
        <time>2022-04-25T08:22:51.903Z</time>
      </trkpt>
      <trkpt lat="41.78729" lon="20.87562">
        <ele>612.408649</ele>
        <time>2022-04-25T08:22:55.903Z</time>
      </trkpt>
      <trkpt lat="41.78721" lon="20.87551">
        <ele>612.513566</ele>
        <time>2022-04-25T08:22:59.902Z</time>
      </trkpt>
      <trkpt lat="41.78714" lon="20.87539">
        <ele>612.611452</ele>
        <time>2022-04-25T08:23:03.891Z</time>
      </trkpt>
      <trkpt lat="41.78708" lon="20.87528">
        <ele>612.710548</ele>
        <time>2022-04-25T08:23:07.901Z</time>
      </trkpt>
      <trkpt lat="41.78701" lon="20.87517">
        <ele>612.805698</ele>
        <time>2022-04-25T08:23:11.891Z</time>
      </trkpt>
      <trkpt lat="41.78695" lon="20.87507">
        <ele>612.925529</ele>
        <time>2022-04-25T08:23:15.896Z</time>
      </trkpt>
      <trkpt lat="41.78688" lon="20.87496">
        <ele>613.291539</ele>
        <time>2022-04-25T08:23:19.891Z</time>
      </trkpt>
      <trkpt lat="41.7868" lon="20.87487">
        <ele>613.633481</ele>
        <time>2022-04-25T08:23:23.895Z</time>
      </trkpt>
      <trkpt lat="41.78673" lon="20.87476">
        <ele>614.003179</ele>
        <time>2022-04-25T08:23:27.889Z</time>
      </trkpt>
      <trkpt lat="41.78666" lon="20.87464">
        <ele>614.377857</ele>
        <time>2022-04-25T08:23:31.942Z</time>
      </trkpt>
      <trkpt lat="41.78658" lon="20.87453">
        <ele>614.748848</ele>
        <time>2022-04-25T08:23:35.905Z</time>
      </trkpt>
      <trkpt lat="41.78651" lon="20.87443">
        <ele>615.106646</ele>
        <time>2022-04-25T08:23:39.899Z</time>
      </trkpt>
      <trkpt lat="41.78643" lon="20.87434">
        <ele>615.459176</ele>
        <time>2022-04-25T08:23:43.905Z</time>
      </trkpt>
      <trkpt lat="41.78635" lon="20.87425">
        <ele>615.793095</ele>
        <time>2022-04-25T08:23:47.888Z</time>
      </trkpt>
      <trkpt lat="41.78627" lon="20.87417">
        <ele>616.130364</ele>
        <time>2022-04-25T08:23:51.892Z</time>
      </trkpt>
      <trkpt lat="41.78619" lon="20.87409">
        <ele>616.478428</ele>
        <time>2022-04-25T08:23:55.902Z</time>
      </trkpt>
      <trkpt lat="41.78609" lon="20.87402">
        <ele>616.840251</ele>
        <time>2022-04-25T08:23:59.898Z</time>
      </trkpt>
      <trkpt lat="41.78601" lon="20.87396">
        <ele>617.161575</ele>
        <time>2022-04-25T08:24:03.887Z</time>
      </trkpt>
      <trkpt lat="41.78592" lon="20.8739">
        <ele>617.480804</ele>
        <time>2022-04-25T08:24:07.889Z</time>
      </trkpt>
      <trkpt lat="41.78584" lon="20.87384">
        <ele>617.782748</ele>
        <time>2022-04-25T08:24:11.890Z</time>
      </trkpt>
      <trkpt lat="41.78576" lon="20.87379">
        <ele>618.094606</ele>
        <time>2022-04-25T08:24:15.938Z</time>
      </trkpt>
      <trkpt lat="41.78565" lon="20.87374">
        <ele>618.472024</ele>
        <time>2022-04-25T08:24:20.895Z</time>
      </trkpt>
      <trkpt lat="41.78556" lon="20.8737">
        <ele>618.797283</ele>
        <time>2022-04-25T08:24:24.917Z</time>
      </trkpt>
      <trkpt lat="41.78546" lon="20.87366">
        <ele>619.013601</ele>
        <time>2022-04-25T08:24:28.915Z</time>
      </trkpt>
      <trkpt lat="41.78536" lon="20.87362">
        <ele>619.187523</ele>
        <time>2022-04-25T08:24:32.896Z</time>
      </trkpt>
      <trkpt lat="41.78525" lon="20.87357">
        <ele>619.36737</ele>
        <time>2022-04-25T08:24:36.886Z</time>
      </trkpt>
      <trkpt lat="41.78517" lon="20.87353">
        <ele>619.519923</ele>
        <time>2022-04-25T08:24:40.906Z</time>
      </trkpt>
      <trkpt lat="41.78508" lon="20.87349">
        <ele>619.67049</ele>
        <time>2022-04-25T08:24:44.920Z</time>
      </trkpt>
      <trkpt lat="41.785" lon="20.87343">
        <ele>619.826386</ele>
        <time>2022-04-25T08:24:48.878Z</time>
      </trkpt>
      <trkpt lat="41.7849" lon="20.87337">
        <ele>619.996401</ele>
        <time>2022-04-25T08:24:52.884Z</time>
      </trkpt>
      <trkpt lat="41.78481" lon="20.87331">
        <ele>620.166782</ele>
        <time>2022-04-25T08:24:56.905Z</time>
      </trkpt>
      <trkpt lat="41.78473" lon="20.87324">
        <ele>620.333813</ele>
        <time>2022-04-25T08:25:00.947Z</time>
      </trkpt>
      <trkpt lat="41.78464" lon="20.87316">
        <ele>620.503778</ele>
        <time>2022-04-25T08:25:04.907Z</time>
      </trkpt>
      <trkpt lat="41.78456" lon="20.87307">
        <ele>620.672985</ele>
        <time>2022-04-25T08:25:08.912Z</time>
      </trkpt>
      <trkpt lat="41.78448" lon="20.87299">
        <ele>620.841133</ele>
        <time>2022-04-25T08:25:12.897Z</time>
      </trkpt>
      <trkpt lat="41.78441" lon="20.87289">
        <ele>621.012792</ele>
        <time>2022-04-25T08:25:16.909Z</time>
      </trkpt>
      <trkpt lat="41.78434" lon="20.87281">
        <ele>621.172557</ele>
        <time>2022-04-25T08:25:20.904Z</time>
      </trkpt>
      <trkpt lat="41.78426" lon="20.87272">
        <ele>621.334766</ele>
        <time>2022-04-25T08:25:24.900Z</time>
      </trkpt>
      <trkpt lat="41.78418" lon="20.87262">
        <ele>621.508479</ele>
        <time>2022-04-25T08:25:28.908Z</time>
      </trkpt>
      <trkpt lat="41.78411" lon="20.87254">
        <ele>621.676133</ele>
        <time>2022-04-25T08:25:32.912Z</time>
      </trkpt>
      <trkpt lat="41.78403" lon="20.87245">
        <ele>621.837581</ele>
        <time>2022-04-25T08:25:36.926Z</time>
      </trkpt>
      <trkpt lat="41.78396" lon="20.87236">
        <ele>622.302567</ele>
        <time>2022-04-25T08:25:40.902Z</time>
      </trkpt>
      <trkpt lat="41.78389" lon="20.87227">
        <ele>622.80268</ele>
        <time>2022-04-25T08:25:44.889Z</time>
      </trkpt>
      <trkpt lat="41.78381" lon="20.87218">
        <ele>623.289068</ele>
        <time>2022-04-25T08:25:48.904Z</time>
      </trkpt>
      <trkpt lat="41.78373" lon="20.8721">
        <ele>623.81857</ele>
        <time>2022-04-25T08:25:52.921Z</time>
      </trkpt>
      <trkpt lat="41.78366" lon="20.87201">
        <ele>624.314912</ele>
        <time>2022-04-25T08:25:56.943Z</time>
      </trkpt>
      <trkpt lat="41.78359" lon="20.87193">
        <ele>624.776635</ele>
        <time>2022-04-25T08:26:00.899Z</time>
      </trkpt>
      <trkpt lat="41.78351" lon="20.87186">
        <ele>625.278541</ele>
        <time>2022-04-25T08:26:04.892Z</time>
      </trkpt>
      <trkpt lat="41.78342" lon="20.87178">
        <ele>625.824554</ele>
        <time>2022-04-25T08:26:08.896Z</time>
      </trkpt>
      <trkpt lat="41.78333" lon="20.87168">
        <ele>626.378487</ele>
        <time>2022-04-25T08:26:12.925Z</time>
      </trkpt>
      <trkpt lat="41.78324" lon="20.87161">
        <ele>626.918176</ele>
        <time>2022-04-25T08:26:16.920Z</time>
      </trkpt>
      <trkpt lat="41.78316" lon="20.87155">
        <ele>627.376839</ele>
        <time>2022-04-25T08:26:19.908Z</time>
      </trkpt>
      <trkpt lat="41.78307" lon="20.87152">
        <ele>627.835063</ele>
        <time>2022-04-25T08:26:22.901Z</time>
      </trkpt>
      <trkpt lat="41.78297" lon="20.87146">
        <ele>628.432118</ele>
        <time>2022-04-25T08:26:26.901Z</time>
      </trkpt>
      <trkpt lat="41.78287" lon="20.87138">
        <ele>628.97512</ele>
        <time>2022-04-25T08:26:30.915Z</time>
      </trkpt>
      <trkpt lat="41.78277" lon="20.87131">
        <ele>629.550079</ele>
        <time>2022-04-25T08:26:34.901Z</time>
      </trkpt>
      <trkpt lat="41.78268" lon="20.87124">
        <ele>630.075899</ele>
        <time>2022-04-25T08:26:38.930Z</time>
      </trkpt>
      <trkpt lat="41.78259" lon="20.87117">
        <ele>630.600114</ele>
        <time>2022-04-25T08:26:42.910Z</time>
      </trkpt>
      <trkpt lat="41.7825" lon="20.87111">
        <ele>631.04355</ele>
        <time>2022-04-25T08:26:46.945Z</time>
      </trkpt>
      <trkpt lat="41.78241" lon="20.87104">
        <ele>631.316594</ele>
        <time>2022-04-25T08:26:50.903Z</time>
      </trkpt>
      <trkpt lat="41.78231" lon="20.87097">
        <ele>631.600759</ele>
        <time>2022-04-25T08:26:54.918Z</time>
      </trkpt>
      <trkpt lat="41.78221" lon="20.87091">
        <ele>631.886121</ele>
        <time>2022-04-25T08:26:58.882Z</time>
      </trkpt>
      <trkpt lat="41.78211" lon="20.87084">
        <ele>632.18697</ele>
        <time>2022-04-25T08:27:02.891Z</time>
      </trkpt>
      <trkpt lat="41.78201" lon="20.87076">
        <ele>632.487819</ele>
        <time>2022-04-25T08:27:06.890Z</time>
      </trkpt>
      <trkpt lat="41.78191" lon="20.87069">
        <ele>632.786777</ele>
        <time>2022-04-25T08:27:10.898Z</time>
      </trkpt>
      <trkpt lat="41.78183" lon="20.87062">
        <ele>633.05444</ele>
        <time>2022-04-25T08:27:14.898Z</time>
      </trkpt>
      <trkpt lat="41.78174" lon="20.87055">
        <ele>633.310402</ele>
        <time>2022-04-25T08:27:18.896Z</time>
      </trkpt>
      <trkpt lat="41.78166" lon="20.87049">
        <ele>633.571557</ele>
        <time>2022-04-25T08:27:22.908Z</time>
      </trkpt>
      <trkpt lat="41.78156" lon="20.87041">
        <ele>633.858345</ele>
        <time>2022-04-25T08:27:26.882Z</time>
      </trkpt>
      <trkpt lat="41.78147" lon="20.87034">
        <ele>634.139278</ele>
        <time>2022-04-25T08:27:30.892Z</time>
      </trkpt>
      <trkpt lat="41.78137" lon="20.87027">
        <ele>634.435472</ele>
        <time>2022-04-25T08:27:34.932Z</time>
      </trkpt>
      <trkpt lat="41.78127" lon="20.8702">
        <ele>634.726106</ele>
        <time>2022-04-25T08:27:38.900Z</time>
      </trkpt>
      <trkpt lat="41.78118" lon="20.87013">
        <ele>634.999294</ele>
        <time>2022-04-25T08:27:42.881Z</time>
      </trkpt>
      <trkpt lat="41.78109" lon="20.87004">
        <ele>635.299192</ele>
        <time>2022-04-25T08:27:46.898Z</time>
      </trkpt>
      <trkpt lat="41.781" lon="20.86996">
        <ele>635.578411</ele>
        <time>2022-04-25T08:27:50.902Z</time>
      </trkpt>
      <trkpt lat="41.78091" lon="20.86988">
        <ele>635.630099</ele>
        <time>2022-04-25T08:27:54.911Z</time>
      </trkpt>
      <trkpt lat="41.78082" lon="20.86979">
        <ele>635.559859</ele>
        <time>2022-04-25T08:27:58.944Z</time>
      </trkpt>
      <trkpt lat="41.78074" lon="20.8697">
        <ele>635.494539</ele>
        <time>2022-04-25T08:28:02.898Z</time>
      </trkpt>
      <trkpt lat="41.78066" lon="20.86961">
        <ele>635.430055</ele>
        <time>2022-04-25T08:28:06.885Z</time>
      </trkpt>
      <trkpt lat="41.78058" lon="20.86953">
        <ele>635.369366</ele>
        <time>2022-04-25T08:28:10.934Z</time>
      </trkpt>
      <trkpt lat="41.7805" lon="20.86945">
        <ele>635.306737</ele>
        <time>2022-04-25T08:28:14.895Z</time>
      </trkpt>
      <trkpt lat="41.78042" lon="20.86935">
        <ele>635.242253</ele>
        <time>2022-04-25T08:28:18.905Z</time>
      </trkpt>
      <trkpt lat="41.78035" lon="20.86926">
        <ele>635.176838</ele>
        <time>2022-04-25T08:28:22.901Z</time>
      </trkpt>
      <trkpt lat="41.78027" lon="20.86916">
        <ele>635.108978</ele>
        <time>2022-04-25T08:28:26.916Z</time>
      </trkpt>
      <trkpt lat="41.7802" lon="20.86906">
        <ele>635.046319</ele>
        <time>2022-04-25T08:28:30.900Z</time>
      </trkpt>
      <trkpt lat="41.78012" lon="20.86896">
        <ele>634.982136</ele>
        <time>2022-04-25T08:28:34.918Z</time>
      </trkpt>
      <trkpt lat="41.78006" lon="20.86886">
        <ele>634.922264</ele>
        <time>2022-04-25T08:28:38.927Z</time>
      </trkpt>
      <trkpt lat="41.77999" lon="20.86876">
        <ele>634.861012</ele>
        <time>2022-04-25T08:28:42.929Z</time>
      </trkpt>
      <trkpt lat="41.77993" lon="20.86866">
        <ele>634.800213</ele>
        <time>2022-04-25T08:28:46.905Z</time>
      </trkpt>
      <trkpt lat="41.77986" lon="20.86857">
        <ele>634.739502</ele>
        <time>2022-04-25T08:28:50.906Z</time>
      </trkpt>
      <trkpt lat="41.77979" lon="20.86847">
        <ele>634.676255</ele>
        <time>2022-04-25T08:28:54.912Z</time>
      </trkpt>
      <trkpt lat="41.77974" lon="20.86837">
        <ele>634.619876</ele>
        <time>2022-04-25T08:28:58.878Z</time>
      </trkpt>
      <trkpt lat="41.77968" lon="20.86828">
        <ele>634.562869</ele>
        <time>2022-04-25T08:29:02.890Z</time>
      </trkpt>
      <trkpt lat="41.77962" lon="20.86818">
        <ele>634.906821</ele>
        <time>2022-04-25T08:29:06.907Z</time>
      </trkpt>
      <trkpt lat="41.77955" lon="20.86807">
        <ele>635.328491</ele>
        <time>2022-04-25T08:29:11.894Z</time>
      </trkpt>
      <trkpt lat="41.77949" lon="20.86796">
        <ele>635.772614</ele>
        <time>2022-04-25T08:29:16.911Z</time>
      </trkpt>
      <trkpt lat="41.77943" lon="20.86786">
        <ele>636.145218</ele>
        <time>2022-04-25T08:29:20.895Z</time>
      </trkpt>
      <trkpt lat="41.77937" lon="20.86775">
        <ele>636.544595</ele>
        <time>2022-04-25T08:29:24.885Z</time>
      </trkpt>
      <trkpt lat="41.77931" lon="20.86765">
        <ele>636.922645</ele>
        <time>2022-04-25T08:29:28.910Z</time>
      </trkpt>
      <trkpt lat="41.77924" lon="20.86756">
        <ele>637.332355</ele>
        <time>2022-04-25T08:29:33.878Z</time>
      </trkpt>
      <trkpt lat="41.77916" lon="20.86746">
        <ele>637.735021</ele>
        <time>2022-04-25T08:29:38.898Z</time>
      </trkpt>
      <trkpt lat="41.77911" lon="20.86735">
        <ele>638.146258</ele>
        <time>2022-04-25T08:29:43.930Z</time>
      </trkpt>
      <trkpt lat="41.77905" lon="20.86724">
        <ele>638.516499</ele>
        <time>2022-04-25T08:29:47.885Z</time>
      </trkpt>
      <trkpt lat="41.779" lon="20.86713">
        <ele>638.902249</ele>
        <time>2022-04-25T08:29:51.901Z</time>
      </trkpt>
      <trkpt lat="41.77894" lon="20.86703">
        <ele>639.293847</ele>
        <time>2022-04-25T08:29:55.891Z</time>
      </trkpt>
      <trkpt lat="41.77888" lon="20.86691">
        <ele>639.733175</ele>
        <time>2022-04-25T08:30:00.949Z</time>
      </trkpt>
      <trkpt lat="41.77881" lon="20.8668">
        <ele>640.161258</ele>
        <time>2022-04-25T08:30:05.901Z</time>
      </trkpt>
      <trkpt lat="41.77875" lon="20.86669">
        <ele>640.569531</ele>
        <time>2022-04-25T08:30:10.936Z</time>
      </trkpt>
      <trkpt lat="41.77867" lon="20.86659">
        <ele>640.994345</ele>
        <time>2022-04-25T08:30:15.901Z</time>
      </trkpt>
      <trkpt lat="41.77861" lon="20.8665">
        <ele>641.374537</ele>
        <time>2022-04-25T08:30:19.913Z</time>
      </trkpt>
      <trkpt lat="41.77854" lon="20.86641">
        <ele>641.747538</ele>
        <time>2022-04-25T08:30:23.886Z</time>
      </trkpt>
      <trkpt lat="41.77848" lon="20.86632">
        <ele>642.320257</ele>
        <time>2022-04-25T08:30:27.894Z</time>
      </trkpt>
      <trkpt lat="41.77841" lon="20.86623">
        <ele>642.884516</ele>
        <time>2022-04-25T08:30:31.901Z</time>
      </trkpt>
      <trkpt lat="41.77834" lon="20.86613">
        <ele>643.535255</ele>
        <time>2022-04-25T08:30:36.896Z</time>
      </trkpt>
      <trkpt lat="41.77826" lon="20.86605">
        <ele>644.140838</ele>
        <time>2022-04-25T08:30:41.897Z</time>
      </trkpt>
      <trkpt lat="41.77818" lon="20.86596">
        <ele>644.763669</ele>
        <time>2022-04-25T08:30:46.900Z</time>
      </trkpt>
      <trkpt lat="41.77809" lon="20.86588">
        <ele>645.431666</ele>
        <time>2022-04-25T08:30:51.910Z</time>
      </trkpt>
      <trkpt lat="41.778" lon="20.86579">
        <ele>646.101183</ele>
        <time>2022-04-25T08:30:56.915Z</time>
      </trkpt>
      <trkpt lat="41.77791" lon="20.86572">
        <ele>646.745287</ele>
        <time>2022-04-25T08:31:01.940Z</time>
      </trkpt>
      <trkpt lat="41.77783" lon="20.86563">
        <ele>647.40478</ele>
        <time>2022-04-25T08:31:06.909Z</time>
      </trkpt>
      <trkpt lat="41.77775" lon="20.86555">
        <ele>648.023285</ele>
        <time>2022-04-25T08:31:11.903Z</time>
      </trkpt>
      <trkpt lat="41.77766" lon="20.86546">
        <ele>648.672517</ele>
        <time>2022-04-25T08:31:17.890Z</time>
      </trkpt>
      <trkpt lat="41.77759" lon="20.86539">
        <ele>649.228587</ele>
        <time>2022-04-25T08:31:22.893Z</time>
      </trkpt>
      <trkpt lat="41.77751" lon="20.86532">
        <ele>649.837245</ele>
        <time>2022-04-25T08:31:27.879Z</time>
      </trkpt>
      <trkpt lat="41.77743" lon="20.86525">
        <ele>650.397378</ele>
        <time>2022-04-25T08:31:32.915Z</time>
      </trkpt>
      <trkpt lat="41.77735" lon="20.86518">
        <ele>651.023741</ele>
        <time>2022-04-25T08:31:38.910Z</time>
      </trkpt>
      <trkpt lat="41.77727" lon="20.86509">
        <ele>651.635097</ele>
        <time>2022-04-25T08:31:44.905Z</time>
      </trkpt>
      <trkpt lat="41.7772" lon="20.86501">
        <ele>652.19423</ele>
        <time>2022-04-25T08:31:49.917Z</time>
      </trkpt>
      <trkpt lat="41.77712" lon="20.86493">
        <ele>652.769358</ele>
        <time>2022-04-25T08:31:54.901Z</time>
      </trkpt>
      <trkpt lat="41.77703" lon="20.86486">
        <ele>652.801162</ele>
        <time>2022-04-25T08:32:00.905Z</time>
      </trkpt>
      <trkpt lat="41.77696" lon="20.86478">
        <ele>652.828591</ele>
        <time>2022-04-25T08:32:05.911Z</time>
      </trkpt>
      <trkpt lat="41.77689" lon="20.86471">
        <ele>652.855586</ele>
        <time>2022-04-25T08:32:10.903Z</time>
      </trkpt>
      <trkpt lat="41.7768" lon="20.86464">
        <ele>652.885415</ele>
        <time>2022-04-25T08:32:15.901Z</time>
      </trkpt>
      <trkpt lat="41.77673" lon="20.86457">
        <ele>652.912051</ele>
        <time>2022-04-25T08:32:20.911Z</time>
      </trkpt>
      <trkpt lat="41.77665" lon="20.86448">
        <ele>652.941372</ele>
        <time>2022-04-25T08:32:25.893Z</time>
      </trkpt>
      <trkpt lat="41.77658" lon="20.86441">
        <ele>652.968122</ele>
        <time>2022-04-25T08:32:30.904Z</time>
      </trkpt>
      <trkpt lat="41.7765" lon="20.86435">
        <ele>652.996737</ele>
        <time>2022-04-25T08:32:35.910Z</time>
      </trkpt>
      <trkpt lat="41.77642" lon="20.86427">
        <ele>653.025224</ele>
        <time>2022-04-25T08:32:40.922Z</time>
      </trkpt>
      <trkpt lat="41.77634" lon="20.86419">
        <ele>653.053667</ele>
        <time>2022-04-25T08:32:45.890Z</time>
      </trkpt>
      <trkpt lat="41.77627" lon="20.86412">
        <ele>653.082282</ele>
        <time>2022-04-25T08:32:50.908Z</time>
      </trkpt>
      <trkpt lat="41.77619" lon="20.86405">
        <ele>653.108907</ele>
        <time>2022-04-25T08:32:55.909Z</time>
      </trkpt>
      <trkpt lat="41.77611" lon="20.86398">
        <ele>653.137628</ele>
        <time>2022-04-25T08:33:00.915Z</time>
      </trkpt>
      <trkpt lat="41.77604" lon="20.86391">
        <ele>653.164893</ele>
        <time>2022-04-25T08:33:05.890Z</time>
      </trkpt>
      <trkpt lat="41.77596" lon="20.86383">
        <ele>653.191899</ele>
        <time>2022-04-25T08:33:10.926Z</time>
      </trkpt>
      <trkpt lat="41.77588" lon="20.86375">
        <ele>653.222848</ele>
        <time>2022-04-25T08:33:16.890Z</time>
      </trkpt>
      <trkpt lat="41.77581" lon="20.86367">
        <ele>653.250372</ele>
        <time>2022-04-25T08:33:21.890Z</time>
      </trkpt>
      <trkpt lat="41.77573" lon="20.8636">
        <ele>653.277982</ele>
        <time>2022-04-25T08:33:26.909Z</time>
      </trkpt>
      <trkpt lat="41.77565" lon="20.86353">
        <ele>653.346877</ele>
        <time>2022-04-25T08:33:31.911Z</time>
      </trkpt>
      <trkpt lat="41.77557" lon="20.86347">
        <ele>653.746672</ele>
        <time>2022-04-25T08:33:36.901Z</time>
      </trkpt>
      <trkpt lat="41.77549" lon="20.86341">
        <ele>654.125512</ele>
        <time>2022-04-25T08:33:41.930Z</time>
      </trkpt>
      <trkpt lat="41.77541" lon="20.86332">
        <ele>654.549784</ele>
        <time>2022-04-25T08:33:47.891Z</time>
      </trkpt>
      <trkpt lat="41.77532" lon="20.86326">
        <ele>654.959587</ele>
        <time>2022-04-25T08:33:52.923Z</time>
      </trkpt>
      <trkpt lat="41.77525" lon="20.86319">
        <ele>655.343438</ele>
        <time>2022-04-25T08:33:57.904Z</time>
      </trkpt>
      <trkpt lat="41.77517" lon="20.86311">
        <ele>655.767502</ele>
        <time>2022-04-25T08:34:03.956Z</time>
      </trkpt>
      <trkpt lat="41.77508" lon="20.86303">
        <ele>656.193808</ele>
        <time>2022-04-25T08:34:09.902Z</time>
      </trkpt>
      <trkpt lat="41.77501" lon="20.86295">
        <ele>656.60968</ele>
        <time>2022-04-25T08:34:15.906Z</time>
      </trkpt>
      <trkpt lat="41.77492" lon="20.86288">
        <ele>657.038855</ele>
        <time>2022-04-25T08:34:21.897Z</time>
      </trkpt>
      <trkpt lat="41.77483" lon="20.86279">
        <ele>657.486984</ele>
        <time>2022-04-25T08:34:27.886Z</time>
      </trkpt>
      <trkpt lat="41.77476" lon="20.86272">
        <ele>657.867342</ele>
        <time>2022-04-25T08:34:32.898Z</time>
      </trkpt>
      <trkpt lat="41.77467" lon="20.86268">
        <ele>658.269672</ele>
        <time>2022-04-25T08:34:37.887Z</time>
      </trkpt>
      <trkpt lat="41.77457" lon="20.86261">
        <ele>658.714263</ele>
        <time>2022-04-25T08:34:43.899Z</time>
      </trkpt>
      <trkpt lat="41.77449" lon="20.86255">
        <ele>659.114202</ele>
        <time>2022-04-25T08:34:49.913Z</time>
      </trkpt>
      <trkpt lat="41.7744" lon="20.86248">
        <ele>659.558673</ele>
        <time>2022-04-25T08:34:55.903Z</time>
      </trkpt>
      <trkpt lat="41.77431" lon="20.86243">
        <ele>659.940469</ele>
        <time>2022-04-25T08:35:00.900Z</time>
      </trkpt>
      <trkpt lat="41.77423" lon="20.86238">
        <ele>660.325392</ele>
        <time>2022-04-25T08:35:05.898Z</time>
      </trkpt>
      <trkpt lat="41.77413" lon="20.86233">
        <ele>660.761953</ele>
        <time>2022-04-25T08:35:11.918Z</time>
      </trkpt>
      <trkpt lat="41.77403" lon="20.86227">
        <ele>661.243979</ele>
        <time>2022-04-25T08:35:17.886Z</time>
      </trkpt>
      <trkpt lat="41.77393" lon="20.86222">
        <ele>661.737957</ele>
        <time>2022-04-25T08:35:23.905Z</time>
      </trkpt>
      <trkpt lat="41.77384" lon="20.86218">
        <ele>662.161232</ele>
        <time>2022-04-25T08:35:28.905Z</time>
      </trkpt>
      <trkpt lat="41.77375" lon="20.86213">
        <ele>662.601922</ele>
        <time>2022-04-25T08:35:34.911Z</time>
      </trkpt>
      <trkpt lat="41.77366" lon="20.86209">
        <ele>663.02416</ele>
        <time>2022-04-25T08:35:40.908Z</time>
      </trkpt>
      <trkpt lat="41.77357" lon="20.86206">
        <ele>663.462794</ele>
        <time>2022-04-25T08:35:46.909Z</time>
      </trkpt>
      <trkpt lat="41.77348" lon="20.86203">
        <ele>663.897718</ele>
        <time>2022-04-25T08:35:52.901Z</time>
      </trkpt>
      <trkpt lat="41.77338" lon="20.862">
        <ele>664.354777</ele>
        <time>2022-04-25T08:35:58.909Z</time>
      </trkpt>
      <trkpt lat="41.77328" lon="20.86196">
        <ele>664.827655</ele>
        <time>2022-04-25T08:36:05.909Z</time>
      </trkpt>
      <trkpt lat="41.77318" lon="20.86194">
        <ele>665.264515</ele>
        <time>2022-04-25T08:36:11.924Z</time>
      </trkpt>
      <trkpt lat="41.77308" lon="20.86191">
        <ele>665.73438</ele>
        <time>2022-04-25T08:36:18.903Z</time>
      </trkpt>
      <trkpt lat="41.77299" lon="20.86188">
        <ele>666.176645</ele>
        <time>2022-04-25T08:36:24.888Z</time>
      </trkpt>
      <trkpt lat="41.77289" lon="20.86186">
        <ele>666.602697</ele>
        <time>2022-04-25T08:36:30.904Z</time>
      </trkpt>
      <trkpt lat="41.7728" lon="20.86184">
        <ele>667.038995</ele>
        <time>2022-04-25T08:36:36.908Z</time>
      </trkpt>
      <trkpt lat="41.7727" lon="20.86181">
        <ele>667.507766</ele>
        <time>2022-04-25T08:36:42.884Z</time>
      </trkpt>
      <trkpt lat="41.7726" lon="20.86179">
        <ele>667.947017</ele>
        <time>2022-04-25T08:36:48.910Z</time>
      </trkpt>
      <trkpt lat="41.77251" lon="20.86177">
        <ele>668.382778</ele>
        <time>2022-04-25T08:36:55.918Z</time>
      </trkpt>
      <trkpt lat="41.77241" lon="20.86177">
        <ele>668.840466</ele>
        <time>2022-04-25T08:37:01.926Z</time>
      </trkpt>
      <trkpt lat="41.77231" lon="20.86175">
        <ele>669.235096</ele>
        <time>2022-04-25T08:37:07.940Z</time>
      </trkpt>
      <trkpt lat="41.77222" lon="20.86171">
        <ele>669.632312</ele>
        <time>2022-04-25T08:37:13.904Z</time>
      </trkpt>
      <trkpt lat="41.77212" lon="20.86167">
        <ele>670.038424</ele>
        <time>2022-04-25T08:37:19.916Z</time>
      </trkpt>
      <trkpt lat="41.77203" lon="20.86165">
        <ele>670.406399</ele>
        <time>2022-04-25T08:37:25.920Z</time>
      </trkpt>
      <trkpt lat="41.77194" lon="20.86163">
        <ele>670.779947</ele>
        <time>2022-04-25T08:37:31.912Z</time>
      </trkpt>
      <trkpt lat="41.77185" lon="20.86159">
        <ele>671.184313</ele>
        <time>2022-04-25T08:37:37.881Z</time>
      </trkpt>
      <trkpt lat="41.77175" lon="20.86154">
        <ele>671.605799</ele>
        <time>2022-04-25T08:37:43.905Z</time>
      </trkpt>
      <trkpt lat="41.77166" lon="20.8615">
        <ele>671.989</ele>
        <time>2022-04-25T08:37:49.907Z</time>
      </trkpt>
      <trkpt lat="41.77157" lon="20.86144">
        <ele>672.376288</ele>
        <time>2022-04-25T08:37:55.908Z</time>
      </trkpt>
      <trkpt lat="41.77149" lon="20.86139">
        <ele>672.753011</ele>
        <time>2022-04-25T08:38:01.898Z</time>
      </trkpt>
      <trkpt lat="41.77141" lon="20.86132">
        <ele>673.144103</ele>
        <time>2022-04-25T08:38:07.888Z</time>
      </trkpt>
      <trkpt lat="41.77132" lon="20.86123">
        <ele>673.57411</ele>
        <time>2022-04-25T08:38:13.876Z</time>
      </trkpt>
      <trkpt lat="41.77126" lon="20.86113">
        <ele>673.965862</ele>
        <time>2022-04-25T08:38:19.901Z</time>
      </trkpt>
      <trkpt lat="41.77119" lon="20.86104">
        <ele>674.343327</ele>
        <time>2022-04-25T08:38:25.903Z</time>
      </trkpt>
      <trkpt lat="41.77114" lon="20.86094">
        <ele>674.719534</ele>
        <time>2022-04-25T08:38:31.903Z</time>
      </trkpt>
      <trkpt lat="41.7711" lon="20.86081">
        <ele>675.124379</ele>
        <time>2022-04-25T08:38:38.941Z</time>
      </trkpt>
      <trkpt lat="41.77107" lon="20.86068">
        <ele>675.540798</ele>
        <time>2022-04-25T08:38:45.899Z</time>
      </trkpt>
      <trkpt lat="41.77104" lon="20.86057">
        <ele>675.904341</ele>
        <time>2022-04-25T08:38:51.889Z</time>
      </trkpt>
      <trkpt lat="41.77102" lon="20.86044">
        <ele>676.298509</ele>
        <time>2022-04-25T08:38:57.905Z</time>
      </trkpt>
      <trkpt lat="41.771" lon="20.86032">
        <ele>676.774536</ele>
        <time>2022-04-25T08:39:03.900Z</time>
      </trkpt>
      <trkpt lat="41.77099" lon="20.86019">
        <ele>677.272521</ele>
        <time>2022-04-25T08:39:10.882Z</time>
      </trkpt>
      <trkpt lat="41.77098" lon="20.86007">
        <ele>677.728012</ele>
        <time>2022-04-25T08:39:16.888Z</time>
      </trkpt>
      <trkpt lat="41.77098" lon="20.85994">
        <ele>678.194692</ele>
        <time>2022-04-25T08:39:22.882Z</time>
      </trkpt>
      <trkpt lat="41.77097" lon="20.85981">
        <ele>678.700925</ele>
        <time>2022-04-25T08:39:29.912Z</time>
      </trkpt>
      <trkpt lat="41.77096" lon="20.85968">
        <ele>679.154208</ele>
        <time>2022-04-25T08:39:35.892Z</time>
      </trkpt>
      <trkpt lat="41.77095" lon="20.85955">
        <ele>679.666505</ele>
        <time>2022-04-25T08:39:42.902Z</time>
      </trkpt>
      <trkpt lat="41.77094" lon="20.85941">
        <ele>680.176966</ele>
        <time>2022-04-25T08:39:49.915Z</time>
      </trkpt>
      <trkpt lat="41.77091" lon="20.8593">
        <ele>680.632521</ele>
        <time>2022-04-25T08:39:55.902Z</time>
      </trkpt>
      <trkpt lat="41.77088" lon="20.85918">
        <ele>681.090662</ele>
        <time>2022-04-25T08:40:01.909Z</time>
      </trkpt>
      <trkpt lat="41.77083" lon="20.85906">
        <ele>681.611982</ele>
        <time>2022-04-25T08:40:08.914Z</time>
      </trkpt>
      <trkpt lat="41.77079" lon="20.85893">
        <ele>682.122261</ele>
        <time>2022-04-25T08:40:15.904Z</time>
      </trkpt>
      <trkpt lat="41.77073" lon="20.85882">
        <ele>682.61616</ele>
        <time>2022-04-25T08:40:21.897Z</time>
      </trkpt>
      <trkpt lat="41.77067" lon="20.85872">
        <ele>683.121935</ele>
        <time>2022-04-25T08:40:28.907Z</time>
      </trkpt>
      <trkpt lat="41.7706" lon="20.85862">
        <ele>683.619436</ele>
        <time>2022-04-25T08:40:34.942Z</time>
      </trkpt>
      <trkpt lat="41.77053" lon="20.85854">
        <ele>684.09591</ele>
        <time>2022-04-25T08:40:40.891Z</time>
      </trkpt>
      <trkpt lat="41.77046" lon="20.85845">
        <ele>684.596111</ele>
        <time>2022-04-25T08:40:47.893Z</time>
      </trkpt>
      <trkpt lat="41.77038" lon="20.85836">
        <ele>685.099006</ele>
        <time>2022-04-25T08:40:54.904Z</time>
      </trkpt>
      <trkpt lat="41.77031" lon="20.85827">
        <ele>685.532146</ele>
        <time>2022-04-25T08:41:02.939Z</time>
      </trkpt>
      <trkpt lat="41.77023" lon="20.85821">
        <ele>685.937238</ele>
        <time>2022-04-25T08:41:08.899Z</time>
      </trkpt>
      <trkpt lat="41.77015" lon="20.85814">
        <ele>686.389068</ele>
        <time>2022-04-25T08:41:14.887Z</time>
      </trkpt>
      <trkpt lat="41.77007" lon="20.85808">
        <ele>686.791372</ele>
        <time>2022-04-25T08:41:20.929Z</time>
      </trkpt>
      <trkpt lat="41.76999" lon="20.858">
        <ele>687.228001</ele>
        <time>2022-04-25T08:41:27.891Z</time>
      </trkpt>
      <trkpt lat="41.7699" lon="20.85794">
        <ele>687.683008</ele>
        <time>2022-04-25T08:41:34.902Z</time>
      </trkpt>
      <trkpt lat="41.76981" lon="20.85787">
        <ele>688.140344</ele>
        <time>2022-04-25T08:41:41.950Z</time>
      </trkpt>
      <trkpt lat="41.76972" lon="20.85782">
        <ele>688.589642</ele>
        <time>2022-04-25T08:41:48.885Z</time>
      </trkpt>
      <trkpt lat="41.76962" lon="20.85778">
        <ele>689.031868</ele>
        <time>2022-04-25T08:41:54.899Z</time>
      </trkpt>
      <trkpt lat="41.76953" lon="20.85775">
        <ele>689.484518</ele>
        <time>2022-04-25T08:42:00.905Z</time>
      </trkpt>
      <trkpt lat="41.76943" lon="20.85772">
        <ele>689.927726</ele>
        <time>2022-04-25T08:42:06.916Z</time>
      </trkpt>
      <trkpt lat="41.76934" lon="20.8577">
        <ele>690.349057</ele>
        <time>2022-04-25T08:42:13.919Z</time>
      </trkpt>
      <trkpt lat="41.76925" lon="20.85768">
        <ele>690.750356</ele>
        <time>2022-04-25T08:42:20.903Z</time>
      </trkpt>
      <trkpt lat="41.76915" lon="20.85769">
        <ele>691.204283</ele>
        <time>2022-04-25T08:42:27.887Z</time>
      </trkpt>
      <trkpt lat="41.76904" lon="20.8577">
        <ele>691.669603</ele>
        <time>2022-04-25T08:42:33.886Z</time>
      </trkpt>
      <trkpt lat="41.76895" lon="20.8577">
        <ele>692.099201</ele>
        <time>2022-04-25T08:42:39.904Z</time>
      </trkpt>
      <trkpt lat="41.76884" lon="20.8577">
        <ele>692.573526</ele>
        <time>2022-04-25T08:42:46.911Z</time>
      </trkpt>
      <trkpt lat="41.76875" lon="20.8577">
        <ele>692.98964</ele>
        <time>2022-04-25T08:42:52.899Z</time>
      </trkpt>
      <trkpt lat="41.76865" lon="20.85771">
        <ele>693.490982</ele>
        <time>2022-04-25T08:42:58.914Z</time>
      </trkpt>
      <trkpt lat="41.76856" lon="20.85773">
        <ele>694.147807</ele>
        <time>2022-04-25T08:43:04.902Z</time>
      </trkpt>
      <trkpt lat="41.76845" lon="20.85772">
        <ele>694.884955</ele>
        <time>2022-04-25T08:43:11.916Z</time>
      </trkpt>
      <trkpt lat="41.76835" lon="20.8577">
        <ele>695.55187</ele>
        <time>2022-04-25T08:43:17.894Z</time>
      </trkpt>
      <trkpt lat="41.76826" lon="20.85767">
        <ele>696.216252</ele>
        <time>2022-04-25T08:43:23.905Z</time>
      </trkpt>
      <trkpt lat="41.76816" lon="20.85765">
        <ele>696.876931</ele>
        <time>2022-04-25T08:43:29.908Z</time>
      </trkpt>
      <trkpt lat="41.76808" lon="20.8576">
        <ele>697.506891</ele>
        <time>2022-04-25T08:43:35.925Z</time>
      </trkpt>
      <trkpt lat="41.76799" lon="20.85754">
        <ele>698.184749</ele>
        <time>2022-04-25T08:43:42.906Z</time>
      </trkpt>
      <trkpt lat="41.76791" lon="20.85746">
        <ele>698.908803</ele>
        <time>2022-04-25T08:43:49.903Z</time>
      </trkpt>
      <trkpt lat="41.76784" lon="20.85737">
        <ele>699.560609</ele>
        <time>2022-04-25T08:43:55.902Z</time>
      </trkpt>
      <trkpt lat="41.76778" lon="20.85726">
        <ele>700.255146</ele>
        <time>2022-04-25T08:44:01.931Z</time>
      </trkpt>
      <trkpt lat="41.76773" lon="20.85714">
        <ele>700.96121</ele>
        <time>2022-04-25T08:44:07.897Z</time>
      </trkpt>
      <trkpt lat="41.76767" lon="20.85703">
        <ele>701.650558</ele>
        <time>2022-04-25T08:44:14.892Z</time>
      </trkpt>
      <trkpt lat="41.76762" lon="20.85692">
        <ele>702.284806</ele>
        <time>2022-04-25T08:44:20.914Z</time>
      </trkpt>
      <trkpt lat="41.76754" lon="20.85665">
        <ele>703.777009</ele>
        <time>2022-04-25T08:50:03.906Z</time>
      </trkpt>
      <trkpt lat="41.76749" lon="20.85653">
        <ele>704.506813</ele>
        <time>2022-04-25T08:50:08.886Z</time>
      </trkpt>
      <trkpt lat="41.76745" lon="20.8564">
        <ele>705.20612</ele>
        <time>2022-04-25T08:50:14.946Z</time>
      </trkpt>
      <trkpt lat="41.76741" lon="20.85629">
        <ele>705.789142</ele>
        <time>2022-04-25T08:50:20.894Z</time>
      </trkpt>
      <trkpt lat="41.76736" lon="20.85618">
        <ele>706.210979</ele>
        <time>2022-04-25T08:50:25.898Z</time>
      </trkpt>
      <trkpt lat="41.76731" lon="20.85606">
        <ele>706.680166</ele>
        <time>2022-04-25T08:50:31.909Z</time>
      </trkpt>
      <trkpt lat="41.76726" lon="20.85595">
        <ele>707.124343</ele>
        <time>2022-04-25T08:50:37.886Z</time>
      </trkpt>
      <trkpt lat="41.7672" lon="20.85584">
        <ele>707.574698</ele>
        <time>2022-04-25T08:50:43.891Z</time>
      </trkpt>
      <trkpt lat="41.76716" lon="20.85571">
        <ele>708.042544</ele>
        <time>2022-04-25T08:50:50.902Z</time>
      </trkpt>
      <trkpt lat="41.7671" lon="20.85562">
        <ele>708.453132</ele>
        <time>2022-04-25T08:50:56.903Z</time>
      </trkpt>
      <trkpt lat="41.76704" lon="20.85551">
        <ele>708.896308</ele>
        <time>2022-04-25T08:51:02.901Z</time>
      </trkpt>
      <trkpt lat="41.76697" lon="20.85542">
        <ele>709.359684</ele>
        <time>2022-04-25T08:51:08.914Z</time>
      </trkpt>
      <trkpt lat="41.76691" lon="20.85533">
        <ele>709.770591</ele>
        <time>2022-04-25T08:51:14.888Z</time>
      </trkpt>
      <trkpt lat="41.76684" lon="20.85523">
        <ele>710.250067</ele>
        <time>2022-04-25T08:51:21.896Z</time>
      </trkpt>
      <trkpt lat="41.76677" lon="20.85515">
        <ele>710.667128</ele>
        <time>2022-04-25T08:51:27.885Z</time>
      </trkpt>
      <trkpt lat="41.76669" lon="20.85505">
        <ele>711.131703</ele>
        <time>2022-04-25T08:51:34.894Z</time>
      </trkpt>
      <trkpt lat="41.76663" lon="20.85497">
        <ele>711.554487</ele>
        <time>2022-04-25T08:51:40.895Z</time>
      </trkpt>
      <trkpt lat="41.76656" lon="20.85487">
        <ele>711.98678</ele>
        <time>2022-04-25T08:51:46.898Z</time>
      </trkpt>
      <trkpt lat="41.76648" lon="20.85479">
        <ele>712.447417</ele>
        <time>2022-04-25T08:51:52.900Z</time>
      </trkpt>
      <trkpt lat="41.7664" lon="20.8547">
        <ele>712.921058</ele>
        <time>2022-04-25T08:51:59.882Z</time>
      </trkpt>
      <trkpt lat="41.76633" lon="20.85462">
        <ele>713.364051</ele>
        <time>2022-04-25T08:52:06.898Z</time>
      </trkpt>
      <trkpt lat="41.76626" lon="20.85454">
        <ele>713.771015</ele>
        <time>2022-04-25T08:52:12.901Z</time>
      </trkpt>
      <trkpt lat="41.76618" lon="20.85445">
        <ele>714.408135</ele>
        <time>2022-04-25T08:52:19.891Z</time>
      </trkpt>
      <trkpt lat="41.7661" lon="20.85436">
        <ele>715.067298</ele>
        <time>2022-04-25T08:52:26.903Z</time>
      </trkpt>
      <trkpt lat="41.76603" lon="20.85429">
        <ele>715.690134</ele>
        <time>2022-04-25T08:52:33.926Z</time>
      </trkpt>
      <trkpt lat="41.76596" lon="20.85421">
        <ele>716.280593</ele>
        <time>2022-04-25T08:52:39.886Z</time>
      </trkpt>
      <trkpt lat="41.76589" lon="20.85412">
        <ele>716.877158</ele>
        <time>2022-04-25T08:52:45.898Z</time>
      </trkpt>
      <trkpt lat="41.76581" lon="20.85404">
        <ele>717.537093</ele>
        <time>2022-04-25T08:52:52.929Z</time>
      </trkpt>
      <trkpt lat="41.76573" lon="20.85397">
        <ele>718.174955</ele>
        <time>2022-04-25T08:52:58.930Z</time>
      </trkpt>
      <trkpt lat="41.76565" lon="20.8539">
        <ele>718.761963</ele>
        <time>2022-04-25T08:53:04.907Z</time>
      </trkpt>
      <trkpt lat="41.76557" lon="20.85384">
        <ele>719.384347</ele>
        <time>2022-04-25T08:53:10.896Z</time>
      </trkpt>
      <trkpt lat="41.76548" lon="20.85376">
        <ele>720.073523</ele>
        <time>2022-04-25T08:53:17.885Z</time>
      </trkpt>
      <trkpt lat="41.76539" lon="20.8537">
        <ele>720.715167</ele>
        <time>2022-04-25T08:53:23.904Z</time>
      </trkpt>
      <trkpt lat="41.7653" lon="20.85365">
        <ele>721.368785</ele>
        <time>2022-04-25T08:53:30.900Z</time>
      </trkpt>
      <trkpt lat="41.76521" lon="20.85361">
        <ele>722.003636</ele>
        <time>2022-04-25T08:53:38.893Z</time>
      </trkpt>
      <trkpt lat="41.76511" lon="20.85359">
        <ele>722.635847</ele>
        <time>2022-04-25T08:53:45.920Z</time>
      </trkpt>
      <trkpt lat="41.76501" lon="20.85359">
        <ele>723.299677</ele>
        <time>2022-04-25T08:53:52.908Z</time>
      </trkpt>
      <trkpt lat="41.76491" lon="20.85359">
        <ele>723.931197</ele>
        <time>2022-04-25T08:53:58.890Z</time>
      </trkpt>
      <trkpt lat="41.76482" lon="20.85359">
        <ele>724.555911</ele>
        <time>2022-04-25T08:54:04.899Z</time>
      </trkpt>
      <trkpt lat="41.76472" lon="20.85359">
        <ele>725.220113</ele>
        <time>2022-04-25T08:54:10.895Z</time>
      </trkpt>
      <trkpt lat="41.76462" lon="20.8536">
        <ele>725.793717</ele>
        <time>2022-04-25T08:54:17.885Z</time>
      </trkpt>
      <trkpt lat="41.76452" lon="20.85361">
        <ele>726.306849</ele>
        <time>2022-04-25T08:54:23.880Z</time>
      </trkpt>
      <trkpt lat="41.76443" lon="20.85362">
        <ele>726.785519</ele>
        <time>2022-04-25T08:54:29.873Z</time>
      </trkpt>
      <trkpt lat="41.76434" lon="20.85362">
        <ele>727.264267</ele>
        <time>2022-04-25T08:54:35.897Z</time>
      </trkpt>
      <trkpt lat="41.76424" lon="20.85362">
        <ele>727.779422</ele>
        <time>2022-04-25T08:54:41.870Z</time>
      </trkpt>
      <trkpt lat="41.76413" lon="20.85362">
        <ele>728.310051</ele>
        <time>2022-04-25T08:54:48.873Z</time>
      </trkpt>
      <trkpt lat="41.76404" lon="20.85362">
        <ele>728.783519</ele>
        <time>2022-04-25T08:54:54.886Z</time>
      </trkpt>
      <trkpt lat="41.76394" lon="20.85361">
        <ele>729.305824</ele>
        <time>2022-04-25T08:55:01.867Z</time>
      </trkpt>
      <trkpt lat="41.76385" lon="20.85357">
        <ele>729.823377</ele>
        <time>2022-04-25T08:55:07.871Z</time>
      </trkpt>
      <trkpt lat="41.76375" lon="20.85353">
        <ele>730.343947</ele>
        <time>2022-04-25T08:55:13.874Z</time>
      </trkpt>
      <trkpt lat="41.76366" lon="20.85347">
        <ele>730.863943</ele>
        <time>2022-04-25T08:55:20.875Z</time>
      </trkpt>
      <trkpt lat="41.76359" lon="20.85339">
        <ele>731.358722</ele>
        <time>2022-04-25T08:55:26.871Z</time>
      </trkpt>
      <trkpt lat="41.76352" lon="20.85329">
        <ele>731.880315</ele>
        <time>2022-04-25T08:55:33.871Z</time>
      </trkpt>
      <trkpt lat="41.76345" lon="20.85321">
        <ele>732.359995</ele>
        <time>2022-04-25T08:55:38.870Z</time>
      </trkpt>
      <trkpt lat="41.76338" lon="20.85312">
        <ele>732.858109</ele>
        <time>2022-04-25T08:55:44.877Z</time>
      </trkpt>
      <trkpt lat="41.76333" lon="20.85303">
        <ele>733.32778</ele>
        <time>2022-04-25T08:55:50.870Z</time>
      </trkpt>
      <trkpt lat="41.76326" lon="20.85292">
        <ele>733.859798</ele>
        <time>2022-04-25T08:55:57.879Z</time>
      </trkpt>
      <trkpt lat="41.76321" lon="20.85282">
        <ele>734.332823</ele>
        <time>2022-04-25T08:56:04.868Z</time>
      </trkpt>
      <trkpt lat="41.76316" lon="20.8527">
        <ele>734.86131</ele>
        <time>2022-04-25T08:56:11.885Z</time>
      </trkpt>
      <trkpt lat="41.76311" lon="20.85258">
        <ele>735.329334</ele>
        <time>2022-04-25T08:56:18.886Z</time>
      </trkpt>
      <trkpt lat="41.76306" lon="20.85247">
        <ele>735.7784</ele>
        <time>2022-04-25T08:56:24.882Z</time>
      </trkpt>
      <trkpt lat="41.763" lon="20.85237">
        <ele>736.240745</ele>
        <time>2022-04-25T08:56:30.877Z</time>
      </trkpt>
      <trkpt lat="41.76293" lon="20.85226">
        <ele>736.708088</ele>
        <time>2022-04-25T08:56:36.884Z</time>
      </trkpt>
      <trkpt lat="41.76288" lon="20.85214">
        <ele>737.196928</ele>
        <time>2022-04-25T08:56:43.870Z</time>
      </trkpt>
      <trkpt lat="41.76282" lon="20.85202">
        <ele>737.678187</ele>
        <time>2022-04-25T08:56:50.877Z</time>
      </trkpt>
      <trkpt lat="41.76277" lon="20.85191">
        <ele>738.118998</ele>
        <time>2022-04-25T08:56:56.880Z</time>
      </trkpt>
      <trkpt lat="41.76271" lon="20.85181">
        <ele>738.553537</ele>
        <time>2022-04-25T08:57:02.880Z</time>
      </trkpt>
      <trkpt lat="41.76266" lon="20.85171">
        <ele>738.974103</ele>
        <time>2022-04-25T08:57:08.882Z</time>
      </trkpt>
      <trkpt lat="41.76261" lon="20.85161">
        <ele>739.386524</ele>
        <time>2022-04-25T08:57:14.878Z</time>
      </trkpt>
      <trkpt lat="41.76255" lon="20.85151">
        <ele>739.826329</ele>
        <time>2022-04-25T08:57:21.895Z</time>
      </trkpt>
      <trkpt lat="41.7625" lon="20.85141">
        <ele>740.252838</ele>
        <time>2022-04-25T08:57:27.895Z</time>
      </trkpt>
      <trkpt lat="41.76244" lon="20.8513">
        <ele>740.709333</ele>
        <time>2022-04-25T08:57:34.881Z</time>
      </trkpt>
      <trkpt lat="41.76239" lon="20.8512">
        <ele>741.136144</ele>
        <time>2022-04-25T08:57:40.877Z</time>
      </trkpt>
      <trkpt lat="41.76234" lon="20.85107">
        <ele>741.623261</ele>
        <time>2022-04-25T08:57:47.873Z</time>
      </trkpt>
      <trkpt lat="41.76229" lon="20.85097">
        <ele>742.036102</ele>
        <time>2022-04-25T08:57:53.869Z</time>
      </trkpt>
      <trkpt lat="41.76223" lon="20.85086">
        <ele>742.496754</ele>
        <time>2022-04-25T08:58:00.887Z</time>
      </trkpt>
      <trkpt lat="41.76217" lon="20.85074">
        <ele>742.978225</ele>
        <time>2022-04-25T08:58:07.870Z</time>
      </trkpt>
      <trkpt lat="41.76213" lon="20.85063">
        <ele>743.665786</ele>
        <time>2022-04-25T08:58:13.872Z</time>
      </trkpt>
      <trkpt lat="41.76207" lon="20.85052">
        <ele>744.591892</ele>
        <time>2022-04-25T08:58:20.868Z</time>
      </trkpt>
      <trkpt lat="41.76202" lon="20.85041">
        <ele>745.517107</ele>
        <time>2022-04-25T08:58:27.871Z</time>
      </trkpt>
      <trkpt lat="41.76197" lon="20.85031">
        <ele>746.357525</ele>
        <time>2022-04-25T08:58:33.866Z</time>
      </trkpt>
      <trkpt lat="41.76191" lon="20.8502">
        <ele>747.270525</ele>
        <time>2022-04-25T08:58:40.889Z</time>
      </trkpt>
      <trkpt lat="41.76183" lon="20.8501">
        <ele>748.223784</ele>
        <time>2022-04-25T08:58:47.880Z</time>
      </trkpt>
      <trkpt lat="41.76176" lon="20.85001">
        <ele>749.139522</ele>
        <time>2022-04-25T08:58:54.878Z</time>
      </trkpt>
      <trkpt lat="41.76169" lon="20.84992">
        <ele>750.017093</ele>
        <time>2022-04-25T08:59:00.866Z</time>
      </trkpt>
      <trkpt lat="41.76161" lon="20.84984">
        <ele>750.984981</ele>
        <time>2022-04-25T08:59:07.878Z</time>
      </trkpt>
      <trkpt lat="41.76152" lon="20.84979">
        <ele>751.896599</ele>
        <time>2022-04-25T08:59:14.898Z</time>
      </trkpt>
      <trkpt lat="41.76143" lon="20.84974">
        <ele>752.729366</ele>
        <time>2022-04-25T08:59:21.867Z</time>
      </trkpt>
      <trkpt lat="41.76134" lon="20.8497">
        <ele>753.644338</ele>
        <time>2022-04-25T08:59:29.880Z</time>
      </trkpt>
      <trkpt lat="41.76125" lon="20.84967">
        <ele>754.501541</ele>
        <time>2022-04-25T08:59:36.870Z</time>
      </trkpt>
      <trkpt lat="41.76115" lon="20.84966">
        <ele>755.447337</ele>
        <time>2022-04-25T08:59:43.867Z</time>
      </trkpt>
      <trkpt lat="41.76105" lon="20.84967">
        <ele>756.390717</ele>
        <time>2022-04-25T08:59:50.866Z</time>
      </trkpt>
      <trkpt lat="41.76095" lon="20.84968">
        <ele>757.314116</ele>
        <time>2022-04-25T08:59:57.870Z</time>
      </trkpt>
      <trkpt lat="41.76085" lon="20.84974">
        <ele>758.273434</ele>
        <time>2022-04-25T09:00:03.874Z</time>
      </trkpt>
      <trkpt lat="41.76076" lon="20.84981">
        <ele>759.25101</ele>
        <time>2022-04-25T09:00:09.882Z</time>
      </trkpt>
      <trkpt lat="41.76068" lon="20.84988">
        <ele>760.03034</ele>
        <time>2022-04-25T09:00:15.903Z</time>
      </trkpt>
      <trkpt lat="41.7606" lon="20.84995">
        <ele>760.626871</ele>
        <time>2022-04-25T09:00:21.869Z</time>
      </trkpt>
      <trkpt lat="41.76052" lon="20.85002">
        <ele>761.18787</ele>
        <time>2022-04-25T09:00:27.874Z</time>
      </trkpt>
      <trkpt lat="41.76044" lon="20.8501">
        <ele>761.815333</ele>
        <time>2022-04-25T09:00:34.881Z</time>
      </trkpt>
      <trkpt lat="41.76035" lon="20.85017">
        <ele>762.419559</ele>
        <time>2022-04-25T09:00:41.872Z</time>
      </trkpt>
      <trkpt lat="41.76028" lon="20.85023">
        <ele>762.968536</ele>
        <time>2022-04-25T09:00:47.868Z</time>
      </trkpt>
      <trkpt lat="41.76019" lon="20.85028">
        <ele>763.524685</ele>
        <time>2022-04-25T09:00:54.874Z</time>
      </trkpt>
      <trkpt lat="41.76011" lon="20.85031">
        <ele>764.077003</ele>
        <time>2022-04-25T09:01:00.876Z</time>
      </trkpt>
      <trkpt lat="41.76001" lon="20.85032">
        <ele>764.690634</ele>
        <time>2022-04-25T09:01:07.871Z</time>
      </trkpt>
      <trkpt lat="41.75991" lon="20.85032">
        <ele>765.29655</ele>
        <time>2022-04-25T09:01:14.877Z</time>
      </trkpt>
      <trkpt lat="41.7598" lon="20.85031">
        <ele>765.922358</ele>
        <time>2022-04-25T09:01:20.882Z</time>
      </trkpt>
      <trkpt lat="41.75971" lon="20.85028">
        <ele>766.538833</ele>
        <time>2022-04-25T09:01:27.899Z</time>
      </trkpt>
      <trkpt lat="41.75962" lon="20.85023">
        <ele>767.134265</ele>
        <time>2022-04-25T09:01:34.890Z</time>
      </trkpt>
      <trkpt lat="41.75953" lon="20.85017">
        <ele>767.74263</ele>
        <time>2022-04-25T09:01:41.887Z</time>
      </trkpt>
      <trkpt lat="41.75944" lon="20.85009">
        <ele>768.367424</ele>
        <time>2022-04-25T09:01:48.878Z</time>
      </trkpt>
      <trkpt lat="41.75937" lon="20.85001">
        <ele>768.924986</ele>
        <time>2022-04-25T09:01:54.870Z</time>
      </trkpt>
      <trkpt lat="41.7593" lon="20.84992">
        <ele>769.532605</ele>
        <time>2022-04-25T09:02:01.895Z</time>
      </trkpt>
      <trkpt lat="41.75923" lon="20.84984">
        <ele>770.120593</ele>
        <time>2022-04-25T09:02:08.879Z</time>
      </trkpt>
      <trkpt lat="41.75916" lon="20.84976">
        <ele>770.667488</ele>
        <time>2022-04-25T09:02:14.888Z</time>
      </trkpt>
      <trkpt lat="41.75908" lon="20.84968">
        <ele>771.143988</ele>
        <time>2022-04-25T09:02:21.882Z</time>
      </trkpt>
      <trkpt lat="41.75901" lon="20.8496">
        <ele>771.5667</ele>
        <time>2022-04-25T09:02:27.868Z</time>
      </trkpt>
      <trkpt lat="41.75894" lon="20.84952">
        <ele>771.97823</ele>
        <time>2022-04-25T09:02:33.871Z</time>
      </trkpt>
      <trkpt lat="41.75888" lon="20.84943">
        <ele>772.404471</ele>
        <time>2022-04-25T09:02:39.866Z</time>
      </trkpt>
      <trkpt lat="41.75879" lon="20.84936">
        <ele>772.851263</ele>
        <time>2022-04-25T09:02:46.876Z</time>
      </trkpt>
      <trkpt lat="41.75872" lon="20.84928">
        <ele>773.278885</ele>
        <time>2022-04-25T09:02:52.908Z</time>
      </trkpt>
      <trkpt lat="41.75864" lon="20.8492">
        <ele>773.732016</ele>
        <time>2022-04-25T09:02:59.880Z</time>
      </trkpt>
      <trkpt lat="41.75856" lon="20.84912">
        <ele>774.178481</ele>
        <time>2022-04-25T09:03:06.885Z</time>
      </trkpt>
      <trkpt lat="41.75848" lon="20.84906">
        <ele>774.593234</ele>
        <time>2022-04-25T09:03:13.868Z</time>
      </trkpt>
      <trkpt lat="41.7584" lon="20.84898">
        <ele>775.067972</ele>
        <time>2022-04-25T09:03:21.893Z</time>
      </trkpt>
      <trkpt lat="41.75831" lon="20.84891">
        <ele>775.535537</ele>
        <time>2022-04-25T09:03:28.872Z</time>
      </trkpt>
      <trkpt lat="41.75822" lon="20.84884">
        <ele>776.003519</ele>
        <time>2022-04-25T09:03:35.871Z</time>
      </trkpt>
      <trkpt lat="41.75814" lon="20.84878">
        <ele>776.415312</ele>
        <time>2022-04-25T09:03:41.872Z</time>
      </trkpt>
      <trkpt lat="41.75805" lon="20.84874">
        <ele>776.852909</ele>
        <time>2022-04-25T09:03:48.872Z</time>
      </trkpt>
      <trkpt lat="41.75796" lon="20.84868">
        <ele>777.291838</ele>
        <time>2022-04-25T09:03:55.895Z</time>
      </trkpt>
      <trkpt lat="41.75788" lon="20.84864">
        <ele>777.707563</ele>
        <time>2022-04-25T09:04:02.875Z</time>
      </trkpt>
      <trkpt lat="41.75779" lon="20.84859">
        <ele>778.129277</ele>
        <time>2022-04-25T09:04:09.867Z</time>
      </trkpt>
      <trkpt lat="41.7577" lon="20.84854">
        <ele>778.583713</ele>
        <time>2022-04-25T09:04:16.890Z</time>
      </trkpt>
      <trkpt lat="41.75761" lon="20.8485">
        <ele>778.997523</ele>
        <time>2022-04-25T09:04:23.894Z</time>
      </trkpt>
      <trkpt lat="41.75751" lon="20.84847">
        <ele>779.469804</ele>
        <time>2022-04-25T09:04:30.882Z</time>
      </trkpt>
      <trkpt lat="41.75742" lon="20.84844">
        <ele>779.897636</ele>
        <time>2022-04-25T09:04:37.876Z</time>
      </trkpt>
      <trkpt lat="41.75733" lon="20.84841">
        <ele>780.32381</ele>
        <time>2022-04-25T09:04:43.878Z</time>
      </trkpt>
      <trkpt lat="41.75724" lon="20.84838">
        <ele>780.74273</ele>
        <time>2022-04-25T09:04:49.866Z</time>
      </trkpt>
      <trkpt lat="41.75715" lon="20.84835">
        <ele>781.15915</ele>
        <time>2022-04-25T09:04:55.872Z</time>
      </trkpt>
      <trkpt lat="41.75706" lon="20.84832">
        <ele>781.600373</ele>
        <time>2022-04-25T09:05:01.882Z</time>
      </trkpt>
      <trkpt lat="41.75697" lon="20.8483">
        <ele>782.024401</ele>
        <time>2022-04-25T09:05:07.897Z</time>
      </trkpt>
      <trkpt lat="41.75688" lon="20.84825">
        <ele>782.482815</ele>
        <time>2022-04-25T09:05:14.878Z</time>
      </trkpt>
      <trkpt lat="41.75679" lon="20.84822">
        <ele>782.90744</ele>
        <time>2022-04-25T09:05:21.868Z</time>
      </trkpt>
      <trkpt lat="41.7567" lon="20.84818">
        <ele>783.337952</ele>
        <time>2022-04-25T09:05:28.878Z</time>
      </trkpt>
      <trkpt lat="41.7566" lon="20.84814">
        <ele>783.800715</ele>
        <time>2022-04-25T09:05:35.885Z</time>
      </trkpt>
      <trkpt lat="41.75651" lon="20.84809">
        <ele>784.265767</ele>
        <time>2022-04-25T09:05:43.863Z</time>
      </trkpt>
      <trkpt lat="41.75642" lon="20.84804">
        <ele>784.721167</ele>
        <time>2022-04-25T09:05:50.899Z</time>
      </trkpt>
      <trkpt lat="41.75632" lon="20.84799">
        <ele>785.192908</ele>
        <time>2022-04-25T09:05:57.868Z</time>
      </trkpt>
      <trkpt lat="41.75623" lon="20.84794">
        <ele>785.641456</ele>
        <time>2022-04-25T09:06:04.890Z</time>
      </trkpt>
      <trkpt lat="41.75614" lon="20.84789">
        <ele>786.076334</ele>
        <time>2022-04-25T09:06:10.886Z</time>
      </trkpt>
      <trkpt lat="41.75606" lon="20.84784">
        <ele>786.50675</ele>
        <time>2022-04-25T09:06:16.881Z</time>
      </trkpt>
      <trkpt lat="41.75598" lon="20.84778">
        <ele>786.935687</ele>
        <time>2022-04-25T09:06:22.883Z</time>
      </trkpt>
      <trkpt lat="41.75591" lon="20.8477">
        <ele>787.377555</ele>
        <time>2022-04-25T09:06:28.878Z</time>
      </trkpt>
      <trkpt lat="41.75584" lon="20.84761">
        <ele>787.887034</ele>
        <time>2022-04-25T09:06:34.902Z</time>
      </trkpt>
      <trkpt lat="41.75578" lon="20.84752">
        <ele>788.391063</ele>
        <time>2022-04-25T09:06:40.887Z</time>
      </trkpt>
      <trkpt lat="41.75571" lon="20.84741">
        <ele>788.947479</ele>
        <time>2022-04-25T09:06:47.872Z</time>
      </trkpt>
      <trkpt lat="41.75566" lon="20.84729">
        <ele>789.505979</ele>
        <time>2022-04-25T09:06:54.872Z</time>
      </trkpt>
      <trkpt lat="41.75563" lon="20.84716">
        <ele>790.054914</ele>
        <time>2022-04-25T09:07:01.867Z</time>
      </trkpt>
      <trkpt lat="41.7556" lon="20.84703">
        <ele>790.604079</ele>
        <time>2022-04-25T09:07:09.870Z</time>
      </trkpt>
      <trkpt lat="41.75557" lon="20.8469">
        <ele>791.132479</ele>
        <time>2022-04-25T09:07:16.888Z</time>
      </trkpt>
      <trkpt lat="41.75553" lon="20.8468">
        <ele>791.619866</ele>
        <time>2022-04-25T09:07:23.875Z</time>
      </trkpt>
      <trkpt lat="41.75551" lon="20.84667">
        <ele>792.144579</ele>
        <time>2022-04-25T09:07:30.889Z</time>
      </trkpt>
      <trkpt lat="41.75549" lon="20.84653">
        <ele>792.699391</ele>
        <time>2022-04-25T09:07:37.867Z</time>
      </trkpt>
      <trkpt lat="41.75548" lon="20.8464">
        <ele>793.227742</ele>
        <time>2022-04-25T09:07:44.888Z</time>
      </trkpt>
      <trkpt lat="41.75547" lon="20.84627">
        <ele>793.73341</ele>
        <time>2022-04-25T09:07:51.884Z</time>
      </trkpt>
      <trkpt lat="41.75546" lon="20.84615">
        <ele>794.245351</ele>
        <time>2022-04-25T09:07:58.863Z</time>
      </trkpt>
      <trkpt lat="41.75543" lon="20.84602">
        <ele>794.755531</ele>
        <time>2022-04-25T09:08:05.901Z</time>
      </trkpt>
      <trkpt lat="41.75542" lon="20.84589">
        <ele>795.307131</ele>
        <time>2022-04-25T09:08:12.876Z</time>
      </trkpt>
      <trkpt lat="41.7554" lon="20.84577">
        <ele>795.787359</ele>
        <time>2022-04-25T09:08:18.880Z</time>
      </trkpt>
      <trkpt lat="41.75537" lon="20.84564">
        <ele>796.34717</ele>
        <time>2022-04-25T09:08:25.870Z</time>
      </trkpt>
      <trkpt lat="41.75534" lon="20.84551">
        <ele>796.909395</ele>
        <time>2022-04-25T09:08:32.866Z</time>
      </trkpt>
      <trkpt lat="41.7553" lon="20.84539">
        <ele>797.443564</ele>
        <time>2022-04-25T09:08:38.900Z</time>
      </trkpt>
      <trkpt lat="41.75525" lon="20.84527">
        <ele>798.055418</ele>
        <time>2022-04-25T09:08:45.871Z</time>
      </trkpt>
      <trkpt lat="41.75519" lon="20.84516">
        <ele>798.610042</ele>
        <time>2022-04-25T09:08:51.863Z</time>
      </trkpt>
      <trkpt lat="41.75515" lon="20.84505">
        <ele>799.149961</ele>
        <time>2022-04-25T09:08:57.880Z</time>
      </trkpt>
      <trkpt lat="41.75509" lon="20.84495">
        <ele>799.711116</ele>
        <time>2022-04-25T09:09:04.875Z</time>
      </trkpt>
      <trkpt lat="41.75503" lon="20.84485">
        <ele>800.261482</ele>
        <time>2022-04-25T09:09:11.874Z</time>
      </trkpt>
      <trkpt lat="41.75497" lon="20.84475">
        <ele>800.815642</ele>
        <time>2022-04-25T09:09:18.867Z</time>
      </trkpt>
      <trkpt lat="41.75491" lon="20.84465">
        <ele>801.390325</ele>
        <time>2022-04-25T09:09:25.874Z</time>
      </trkpt>
      <trkpt lat="41.75485" lon="20.84455">
        <ele>801.91709</ele>
        <time>2022-04-25T09:09:31.872Z</time>
      </trkpt>
      <trkpt lat="41.75479" lon="20.84446">
        <ele>802.44471</ele>
        <time>2022-04-25T09:09:37.870Z</time>
      </trkpt>
      <trkpt lat="41.75471" lon="20.84438">
        <ele>803.02932</ele>
        <time>2022-04-25T09:09:45.867Z</time>
      </trkpt>
      <trkpt lat="41.75463" lon="20.8443">
        <ele>803.588673</ele>
        <time>2022-04-25T09:09:53.872Z</time>
      </trkpt>
      <trkpt lat="41.75456" lon="20.84423">
        <ele>804.122438</ele>
        <time>2022-04-25T09:09:59.880Z</time>
      </trkpt>
      <trkpt lat="41.75447" lon="20.84416">
        <ele>804.726406</ele>
        <time>2022-04-25T09:10:06.866Z</time>
      </trkpt>
      <trkpt lat="41.75438" lon="20.84409">
        <ele>805.306574</ele>
        <time>2022-04-25T09:10:13.894Z</time>
      </trkpt>
      <trkpt lat="41.7543" lon="20.84402">
        <ele>805.881022</ele>
        <time>2022-04-25T09:10:20.885Z</time>
      </trkpt>
      <trkpt lat="41.75421" lon="20.84395">
        <ele>806.471154</ele>
        <time>2022-04-25T09:10:27.868Z</time>
      </trkpt>
      <trkpt lat="41.75412" lon="20.84389">
        <ele>807.067067</ele>
        <time>2022-04-25T09:10:34.877Z</time>
      </trkpt>
      <trkpt lat="41.75403" lon="20.84383">
        <ele>807.635873</ele>
        <time>2022-04-25T09:10:41.906Z</time>
      </trkpt>
      <trkpt lat="41.75393" lon="20.84379">
        <ele>808.23604</ele>
        <time>2022-04-25T09:10:48.877Z</time>
      </trkpt>
      <trkpt lat="41.75383" lon="20.84375">
        <ele>808.831243</ele>
        <time>2022-04-25T09:10:55.877Z</time>
      </trkpt>
      <trkpt lat="41.75375" lon="20.84372">
        <ele>809.367535</ele>
        <time>2022-04-25T09:11:01.872Z</time>
      </trkpt>
      <trkpt lat="41.75365" lon="20.84368">
        <ele>809.923182</ele>
        <time>2022-04-25T09:11:08.873Z</time>
      </trkpt>
      <trkpt lat="41.75356" lon="20.84367">
        <ele>810.462782</ele>
        <time>2022-04-25T09:11:15.870Z</time>
      </trkpt>
      <trkpt lat="41.75346" lon="20.84366">
        <ele>811.078843</ele>
        <time>2022-04-25T09:11:22.874Z</time>
      </trkpt>
      <trkpt lat="41.75335" lon="20.84364">
        <ele>811.684256</ele>
        <time>2022-04-25T09:11:29.875Z</time>
      </trkpt>
      <trkpt lat="41.75327" lon="20.84361">
        <ele>812.219705</ele>
        <time>2022-04-25T09:11:35.867Z</time>
      </trkpt>
      <trkpt lat="41.75317" lon="20.84358">
        <ele>812.807851</ele>
        <time>2022-04-25T09:11:42.872Z</time>
      </trkpt>
      <trkpt lat="41.75308" lon="20.84357">
        <ele>813.346255</ele>
        <time>2022-04-25T09:11:49.866Z</time>
      </trkpt>
      <trkpt lat="41.75298" lon="20.84355">
        <ele>813.899164</ele>
        <time>2022-04-25T09:11:55.867Z</time>
      </trkpt>
      <trkpt lat="41.75288" lon="20.84353">
        <ele>814.500605</ele>
        <time>2022-04-25T09:12:02.874Z</time>
      </trkpt>
      <trkpt lat="41.75278" lon="20.84352">
        <ele>815.084663</ele>
        <time>2022-04-25T09:12:09.908Z</time>
      </trkpt>
      <trkpt lat="41.75269" lon="20.8435">
        <ele>815.63807</ele>
        <time>2022-04-25T09:12:15.872Z</time>
      </trkpt>
      <trkpt lat="41.75259" lon="20.84348">
        <ele>816.204166</ele>
        <time>2022-04-25T09:12:22.881Z</time>
      </trkpt>
      <trkpt lat="41.7525" lon="20.84345">
        <ele>816.755794</ele>
        <time>2022-04-25T09:12:29.870Z</time>
      </trkpt>
      <trkpt lat="41.7524" lon="20.84341">
        <ele>817.337402</ele>
        <time>2022-04-25T09:12:36.875Z</time>
      </trkpt>
      <trkpt lat="41.75231" lon="20.84338">
        <ele>817.914661</ele>
        <time>2022-04-25T09:12:43.867Z</time>
      </trkpt>
      <trkpt lat="41.75221" lon="20.84334">
        <ele>818.426667</ele>
        <time>2022-04-25T09:12:49.875Z</time>
      </trkpt>
      <trkpt lat="41.75212" lon="20.8433">
        <ele>818.931442</ele>
        <time>2022-04-25T09:12:55.875Z</time>
      </trkpt>
      <trkpt lat="41.75204" lon="20.84324">
        <ele>819.416788</ele>
        <time>2022-04-25T09:13:01.867Z</time>
      </trkpt>
      <trkpt lat="41.75196" lon="20.84317">
        <ele>819.911696</ele>
        <time>2022-04-25T09:13:07.867Z</time>
      </trkpt>
      <trkpt lat="41.75188" lon="20.8431">
        <ele>820.389321</ele>
        <time>2022-04-25T09:13:14.883Z</time>
      </trkpt>
      <trkpt lat="41.75181" lon="20.843">
        <ele>820.944412</ele>
        <time>2022-04-25T09:13:21.869Z</time>
      </trkpt>
      <trkpt lat="41.75175" lon="20.84289">
        <ele>821.476599</ele>
        <time>2022-04-25T09:13:28.873Z</time>
      </trkpt>
      <trkpt lat="41.75169" lon="20.84279">
        <ele>821.95592</ele>
        <time>2022-04-25T09:13:34.882Z</time>
      </trkpt>
      <trkpt lat="41.75165" lon="20.84268">
        <ele>822.427292</ele>
        <time>2022-04-25T09:13:41.870Z</time>
      </trkpt>
      <trkpt lat="41.75161" lon="20.84257">
        <ele>822.910432</ele>
        <time>2022-04-25T09:13:47.880Z</time>
      </trkpt>
      <trkpt lat="41.75159" lon="20.84244">
        <ele>823.434267</ele>
        <time>2022-04-25T09:13:54.869Z</time>
      </trkpt>
      <trkpt lat="41.75157" lon="20.84231">
        <ele>823.952315</ele>
        <time>2022-04-25T09:14:01.906Z</time>
      </trkpt>
      <trkpt lat="41.75155" lon="20.84218">
        <ele>824.457946</ele>
        <time>2022-04-25T09:14:08.876Z</time>
      </trkpt>
      <trkpt lat="41.75154" lon="20.84205">
        <ele>824.980714</ele>
        <time>2022-04-25T09:14:15.872Z</time>
      </trkpt>
      <trkpt lat="41.75151" lon="20.84192">
        <ele>825.500812</ele>
        <time>2022-04-25T09:14:22.878Z</time>
      </trkpt>
      <trkpt lat="41.75149" lon="20.84178">
        <ele>826.042047</ele>
        <time>2022-04-25T09:14:29.868Z</time>
      </trkpt>
      <trkpt lat="41.75148" lon="20.84166">
        <ele>826.520228</ele>
        <time>2022-04-25T09:14:36.892Z</time>
      </trkpt>
      <trkpt lat="41.75147" lon="20.84152">
        <ele>827.056331</ele>
        <time>2022-04-25T09:14:43.880Z</time>
      </trkpt>
      <trkpt lat="41.75146" lon="20.8414">
        <ele>827.633771</ele>
        <time>2022-04-25T09:14:50.873Z</time>
      </trkpt>
      <trkpt lat="41.75146" lon="20.84127">
        <ele>828.317087</ele>
        <time>2022-04-25T09:14:57.905Z</time>
      </trkpt>
      <trkpt lat="41.75145" lon="20.84114">
        <ele>829.000507</ele>
        <time>2022-04-25T09:15:04.878Z</time>
      </trkpt>
      <trkpt lat="41.75144" lon="20.84101">
        <ele>829.669257</ele>
        <time>2022-04-25T09:15:11.887Z</time>
      </trkpt>
      <trkpt lat="41.75143" lon="20.84087">
        <ele>830.380363</ele>
        <time>2022-04-25T09:15:18.885Z</time>
      </trkpt>
      <trkpt lat="41.75141" lon="20.84075">
        <ele>831.025182</ele>
        <time>2022-04-25T09:15:25.869Z</time>
      </trkpt>
      <trkpt lat="41.75137" lon="20.84064">
        <ele>831.647732</ele>
        <time>2022-04-25T09:15:31.868Z</time>
      </trkpt>
      <trkpt lat="41.75131" lon="20.84052">
        <ele>832.377994</ele>
        <time>2022-04-25T09:15:37.907Z</time>
      </trkpt>
      <trkpt lat="41.75126" lon="20.84042">
        <ele>833.02055</ele>
        <time>2022-04-25T09:15:43.872Z</time>
      </trkpt>
      <trkpt lat="41.7512" lon="20.84031">
        <ele>833.716473</ele>
        <time>2022-04-25T09:15:50.882Z</time>
      </trkpt>
      <trkpt lat="41.75113" lon="20.84021">
        <ele>834.405129</ele>
        <time>2022-04-25T09:15:57.875Z</time>
      </trkpt>
      <trkpt lat="41.75107" lon="20.84011">
        <ele>835.048526</ele>
        <time>2022-04-25T09:16:03.877Z</time>
      </trkpt>
      <trkpt lat="41.751" lon="20.84003">
        <ele>835.68354</ele>
        <time>2022-04-25T09:16:10.886Z</time>
      </trkpt>
      <trkpt lat="41.75093" lon="20.83995">
        <ele>836.327552</ele>
        <time>2022-04-25T09:16:17.874Z</time>
      </trkpt>
      <trkpt lat="41.75086" lon="20.83986">
        <ele>837.025903</ele>
        <time>2022-04-25T09:16:24.872Z</time>
      </trkpt>
      <trkpt lat="41.75078" lon="20.83978">
        <ele>837.716312</ele>
        <time>2022-04-25T09:16:31.877Z</time>
      </trkpt>
      <trkpt lat="41.7507" lon="20.8397">
        <ele>838.361422</ele>
        <time>2022-04-25T09:16:38.879Z</time>
      </trkpt>
      <trkpt lat="41.75063" lon="20.83962">
        <ele>839.039253</ele>
        <time>2022-04-25T09:16:45.868Z</time>
      </trkpt>
      <trkpt lat="41.75056" lon="20.83952">
        <ele>839.722056</ele>
        <time>2022-04-25T09:16:52.883Z</time>
      </trkpt>
      <trkpt lat="41.75049" lon="20.83944">
        <ele>840.513711</ele>
        <time>2022-04-25T09:16:59.865Z</time>
      </trkpt>
      <trkpt lat="41.75041" lon="20.83936">
        <ele>841.333688</ele>
        <time>2022-04-25T09:17:06.900Z</time>
      </trkpt>
      <trkpt lat="41.75034" lon="20.83928">
        <ele>842.102192</ele>
        <time>2022-04-25T09:17:12.886Z</time>
      </trkpt>
      <trkpt lat="41.75026" lon="20.83919">
        <ele>842.962137</ele>
        <time>2022-04-25T09:17:19.869Z</time>
      </trkpt>
      <trkpt lat="41.75017" lon="20.83914">
        <ele>843.722242</ele>
        <time>2022-04-25T09:17:26.879Z</time>
      </trkpt>
      <trkpt lat="41.75009" lon="20.83908">
        <ele>844.507032</ele>
        <time>2022-04-25T09:17:33.870Z</time>
      </trkpt>
      <trkpt lat="41.75001" lon="20.83902">
        <ele>845.252456</ele>
        <time>2022-04-25T09:17:39.889Z</time>
      </trkpt>
      <trkpt lat="41.74992" lon="20.83898">
        <ele>846.051461</ele>
        <time>2022-04-25T09:17:46.865Z</time>
      </trkpt>
      <trkpt lat="41.74982" lon="20.83894">
        <ele>846.886133</ele>
        <time>2022-04-25T09:17:53.871Z</time>
      </trkpt>
      <trkpt lat="41.74973" lon="20.83892">
        <ele>847.663121</ele>
        <time>2022-04-25T09:17:59.864Z</time>
      </trkpt>
      <trkpt lat="41.74964" lon="20.8389">
        <ele>848.455557</ele>
        <time>2022-04-25T09:18:06.864Z</time>
      </trkpt>
      <trkpt lat="41.74954" lon="20.83891">
        <ele>849.224292</ele>
        <time>2022-04-25T09:18:13.881Z</time>
      </trkpt>
      <trkpt lat="41.74945" lon="20.83892">
        <ele>850.010885</ele>
        <time>2022-04-25T09:18:20.874Z</time>
      </trkpt>
      <trkpt lat="41.74935" lon="20.83893">
        <ele>850.784543</ele>
        <time>2022-04-25T09:18:27.865Z</time>
      </trkpt>
      <trkpt lat="41.74926" lon="20.83897">
        <ele>851.582363</ele>
        <time>2022-04-25T09:18:34.877Z</time>
      </trkpt>
      <trkpt lat="41.74917" lon="20.83899">
        <ele>852.34502</ele>
        <time>2022-04-25T09:18:41.867Z</time>
      </trkpt>
      <trkpt lat="41.74908" lon="20.83902">
        <ele>853.152467</ele>
        <time>2022-04-25T09:18:48.865Z</time>
      </trkpt>
      <trkpt lat="41.74899" lon="20.83906">
        <ele>853.939696</ele>
        <time>2022-04-25T09:18:55.873Z</time>
      </trkpt>
      <trkpt lat="41.74889" lon="20.83909">
        <ele>854.543232</ele>
        <time>2022-04-25T09:19:01.866Z</time>
      </trkpt>
      <trkpt lat="41.7488" lon="20.83912">
        <ele>854.889004</ele>
        <time>2022-04-25T09:19:08.884Z</time>
      </trkpt>
      <trkpt lat="41.74871" lon="20.83913">
        <ele>855.230818</ele>
        <time>2022-04-25T09:19:15.866Z</time>
      </trkpt>
      <trkpt lat="41.74861" lon="20.83914">
        <ele>855.565062</ele>
        <time>2022-04-25T09:19:22.881Z</time>
      </trkpt>
      <trkpt lat="41.74851" lon="20.83913">
        <ele>855.927274</ele>
        <time>2022-04-25T09:19:29.869Z</time>
      </trkpt>
      <trkpt lat="41.74842" lon="20.83912">
        <ele>856.268868</ele>
        <time>2022-04-25T09:19:35.865Z</time>
      </trkpt>
      <trkpt lat="41.74831" lon="20.8391">
        <ele>856.640098</ele>
        <time>2022-04-25T09:19:42.876Z</time>
      </trkpt>
      <trkpt lat="41.74822" lon="20.83906">
        <ele>856.985991</ele>
        <time>2022-04-25T09:19:49.866Z</time>
      </trkpt>
      <trkpt lat="41.74813" lon="20.83899">
        <ele>857.368336</ele>
        <time>2022-04-25T09:19:56.878Z</time>
      </trkpt>
      <trkpt lat="41.74805" lon="20.83892">
        <ele>857.719739</ele>
        <time>2022-04-25T09:20:03.869Z</time>
      </trkpt>
      <trkpt lat="41.74798" lon="20.83883">
        <ele>858.052261</ele>
        <time>2022-04-25T09:20:09.870Z</time>
      </trkpt>
      <trkpt lat="41.74791" lon="20.83874">
        <ele>858.408805</ele>
        <time>2022-04-25T09:20:16.883Z</time>
      </trkpt>
      <trkpt lat="41.74783" lon="20.83867">
        <ele>858.74554</ele>
        <time>2022-04-25T09:20:23.877Z</time>
      </trkpt>
      <trkpt lat="41.74775" lon="20.83858">
        <ele>859.118777</ele>
        <time>2022-04-25T09:20:30.890Z</time>
      </trkpt>
      <trkpt lat="41.74768" lon="20.83849">
        <ele>859.467252</ele>
        <time>2022-04-25T09:20:37.867Z</time>
      </trkpt>
      <trkpt lat="41.7476" lon="20.8384">
        <ele>859.849506</ele>
        <time>2022-04-25T09:20:45.865Z</time>
      </trkpt>
      <trkpt lat="41.74753" lon="20.8383">
        <ele>860.216822</ele>
        <time>2022-04-25T09:20:52.873Z</time>
      </trkpt>
      <trkpt lat="41.74746" lon="20.8382">
        <ele>860.560218</ele>
        <time>2022-04-25T09:20:58.870Z</time>
      </trkpt>
      <trkpt lat="41.74739" lon="20.83812">
        <ele>860.894402</ele>
        <time>2022-04-25T09:21:05.877Z</time>
      </trkpt>
      <trkpt lat="41.74733" lon="20.83802">
        <ele>861.126531</ele>
        <time>2022-04-25T09:21:12.871Z</time>
      </trkpt>
      <trkpt lat="41.74727" lon="20.83792">
        <ele>861.36023</ele>
        <time>2022-04-25T09:21:19.865Z</time>
      </trkpt>
      <trkpt lat="41.74721" lon="20.83782">
        <ele>861.597992</ele>
        <time>2022-04-25T09:21:27.867Z</time>
      </trkpt>
      <trkpt lat="41.74715" lon="20.83771">
        <ele>861.832744</ele>
        <time>2022-04-25T09:21:35.866Z</time>
      </trkpt>
      <trkpt lat="41.74709" lon="20.83761">
        <ele>862.074788</ele>
        <time>2022-04-25T09:21:42.874Z</time>
      </trkpt>
      <trkpt lat="41.74703" lon="20.8375">
        <ele>862.315343</ele>
        <time>2022-04-25T09:21:49.868Z</time>
      </trkpt>
      <trkpt lat="41.74698" lon="20.83738">
        <ele>862.56148</ele>
        <time>2022-04-25T09:21:57.872Z</time>
      </trkpt>
      <trkpt lat="41.74694" lon="20.83727">
        <ele>862.789652</ele>
        <time>2022-04-25T09:22:04.888Z</time>
      </trkpt>
      <trkpt lat="41.74688" lon="20.83717">
        <ele>863.021603</ele>
        <time>2022-04-25T09:22:12.882Z</time>
      </trkpt>
      <trkpt lat="41.74683" lon="20.83707">
        <ele>863.246444</ele>
        <time>2022-04-25T09:22:19.900Z</time>
      </trkpt>
      <trkpt lat="41.74678" lon="20.83695">
        <ele>863.490892</ele>
        <time>2022-04-25T09:22:26.888Z</time>
      </trkpt>
      <trkpt lat="41.74672" lon="20.83684">
        <ele>863.743174</ele>
        <time>2022-04-25T09:22:33.899Z</time>
      </trkpt>
      <trkpt lat="41.74665" lon="20.83674">
        <ele>863.98854</ele>
        <time>2022-04-25T09:22:40.891Z</time>
      </trkpt>
      <trkpt lat="41.74659" lon="20.83663">
        <ele>864.235715</ele>
        <time>2022-04-25T09:22:47.909Z</time>
      </trkpt>
      <trkpt lat="41.74652" lon="20.83654">
        <ele>864.472165</ele>
        <time>2022-04-25T09:22:54.905Z</time>
      </trkpt>
      <trkpt lat="41.74645" lon="20.83646">
        <ele>864.696972</ele>
        <time>2022-04-25T09:23:01.904Z</time>
      </trkpt>
      <trkpt lat="41.74637" lon="20.83639">
        <ele>864.933974</ele>
        <time>2022-04-25T09:23:08.902Z</time>
      </trkpt>
      <trkpt lat="41.74629" lon="20.83631">
        <ele>865.165394</ele>
        <time>2022-04-25T09:23:14.898Z</time>
      </trkpt>
      <trkpt lat="41.74621" lon="20.83625">
        <ele>865.622719</ele>
        <time>2022-04-25T09:23:20.946Z</time>
      </trkpt>
      <trkpt lat="41.74613" lon="20.8362">
        <ele>866.245403</ele>
        <time>2022-04-25T09:23:27.892Z</time>
      </trkpt>
      <trkpt lat="41.74604" lon="20.83615">
        <ele>866.83851</ele>
        <time>2022-04-25T09:23:33.899Z</time>
      </trkpt>
      <trkpt lat="41.74596" lon="20.8361">
        <ele>867.459393</ele>
        <time>2022-04-25T09:23:40.910Z</time>
      </trkpt>
      <trkpt lat="41.74586" lon="20.83605">
        <ele>868.110503</ele>
        <time>2022-04-25T09:23:47.884Z</time>
      </trkpt>
      <trkpt lat="41.74578" lon="20.83601">
        <ele>868.702069</ele>
        <time>2022-04-25T09:23:53.905Z</time>
      </trkpt>
      <trkpt lat="41.74568" lon="20.83599">
        <ele>869.323824</ele>
        <time>2022-04-25T09:24:00.918Z</time>
      </trkpt>
      <trkpt lat="41.74559" lon="20.83595">
        <ele>869.938657</ele>
        <time>2022-04-25T09:24:06.905Z</time>
      </trkpt>
      <trkpt lat="41.74549" lon="20.83594">
        <ele>870.611543</ele>
        <time>2022-04-25T09:24:12.891Z</time>
      </trkpt>
      <trkpt lat="41.7454" lon="20.83592">
        <ele>871.19731</ele>
        <time>2022-04-25T09:24:18.901Z</time>
      </trkpt>
      <trkpt lat="41.74531" lon="20.8359">
        <ele>871.827212</ele>
        <time>2022-04-25T09:24:25.892Z</time>
      </trkpt>
      <trkpt lat="41.74521" lon="20.83588">
        <ele>872.487513</ele>
        <time>2022-04-25T09:24:32.894Z</time>
      </trkpt>
      <trkpt lat="41.74511" lon="20.83585">
        <ele>873.109668</ele>
        <time>2022-04-25T09:24:39.897Z</time>
      </trkpt>
      <trkpt lat="41.74502" lon="20.83583">
        <ele>873.699356</ele>
        <time>2022-04-25T09:24:45.902Z</time>
      </trkpt>
      <trkpt lat="41.74493" lon="20.83581">
        <ele>874.293009</ele>
        <time>2022-04-25T09:24:51.884Z</time>
      </trkpt>
      <trkpt lat="41.74484" lon="20.83579">
        <ele>874.895516</ele>
        <time>2022-04-25T09:24:57.928Z</time>
      </trkpt>
      <trkpt lat="41.74474" lon="20.83577">
        <ele>875.560757</ele>
        <time>2022-04-25T09:25:04.905Z</time>
      </trkpt>
      <trkpt lat="41.74465" lon="20.83574">
        <ele>876.156854</ele>
        <time>2022-04-25T09:25:10.892Z</time>
      </trkpt>
      <trkpt lat="41.74455" lon="20.83572">
        <ele>876.814187</ele>
        <time>2022-04-25T09:25:17.898Z</time>
      </trkpt>
      <trkpt lat="41.74446" lon="20.83569">
        <ele>877.430256</ele>
        <time>2022-04-25T09:25:25.907Z</time>
      </trkpt>
      <trkpt lat="41.74437" lon="20.83566">
        <ele>877.996102</ele>
        <time>2022-04-25T09:25:31.891Z</time>
      </trkpt>
      <trkpt lat="41.74427" lon="20.83563">
        <ele>878.607464</ele>
        <time>2022-04-25T09:25:37.891Z</time>
      </trkpt>
      <trkpt lat="41.74417" lon="20.83559">
        <ele>879.242901</ele>
        <time>2022-04-25T09:25:43.985Z</time>
      </trkpt>
      <trkpt lat="41.74408" lon="20.83556">
        <ele>879.805616</ele>
        <time>2022-04-25T09:25:49.892Z</time>
      </trkpt>
      <trkpt lat="41.74399" lon="20.83551">
        <ele>880.388581</ele>
        <time>2022-04-25T09:25:56.907Z</time>
      </trkpt>
      <trkpt lat="41.74391" lon="20.83546">
        <ele>880.955042</ele>
        <time>2022-04-25T09:26:02.892Z</time>
      </trkpt>
      <trkpt lat="41.74381" lon="20.83543">
        <ele>881.532737</ele>
        <time>2022-04-25T09:26:08.893Z</time>
      </trkpt>
      <trkpt lat="41.74373" lon="20.83536">
        <ele>882.154786</ele>
        <time>2022-04-25T09:26:15.892Z</time>
      </trkpt>
      <trkpt lat="41.74364" lon="20.83528">
        <ele>882.781742</ele>
        <time>2022-04-25T09:26:22.886Z</time>
      </trkpt>
      <trkpt lat="41.74356" lon="20.83522">
        <ele>883.350761</ele>
        <time>2022-04-25T09:26:29.889Z</time>
      </trkpt>
      <trkpt lat="41.74347" lon="20.83516">
        <ele>883.962749</ele>
        <time>2022-04-25T09:26:36.890Z</time>
      </trkpt>
      <trkpt lat="41.74339" lon="20.8351">
        <ele>884.531166</ele>
        <time>2022-04-25T09:26:43.913Z</time>
      </trkpt>
      <trkpt lat="41.74331" lon="20.83503">
        <ele>885.099393</ele>
        <time>2022-04-25T09:26:51.906Z</time>
      </trkpt>
      <trkpt lat="41.74323" lon="20.83497">
        <ele>885.702731</ele>
        <time>2022-04-25T09:26:59.892Z</time>
      </trkpt>
      <trkpt lat="41.74313" lon="20.83491">
        <ele>886.321127</ele>
        <time>2022-04-25T09:27:06.908Z</time>
      </trkpt>
      <trkpt lat="41.74305" lon="20.83485">
        <ele>886.912926</ele>
        <time>2022-04-25T09:27:13.876Z</time>
      </trkpt>
      <trkpt lat="41.74297" lon="20.83478">
        <ele>887.500226</ele>
        <time>2022-04-25T09:27:20.907Z</time>
      </trkpt>
      <trkpt lat="41.74289" lon="20.83472">
        <ele>888.07713</ele>
        <time>2022-04-25T09:27:28.939Z</time>
      </trkpt>
      <trkpt lat="41.7428" lon="20.83465">
        <ele>888.828488</ele>
        <time>2022-04-25T09:27:35.892Z</time>
      </trkpt>
      <trkpt lat="41.74273" lon="20.83457">
        <ele>889.510053</ele>
        <time>2022-04-25T09:27:41.907Z</time>
      </trkpt>
      <trkpt lat="41.74265" lon="20.83451">
        <ele>890.20498</ele>
        <time>2022-04-25T09:27:47.906Z</time>
      </trkpt>
      <trkpt lat="41.74256" lon="20.83445">
        <ele>890.924984</ele>
        <time>2022-04-25T09:27:53.889Z</time>
      </trkpt>
      <trkpt lat="41.74246" lon="20.8344">
        <ele>891.710123</ele>
        <time>2022-04-25T09:27:59.891Z</time>
      </trkpt>
      <trkpt lat="41.74237" lon="20.83437">
        <ele>892.454986</ele>
        <time>2022-04-25T09:28:05.903Z</time>
      </trkpt>
      <trkpt lat="41.74227" lon="20.83435">
        <ele>893.183956</ele>
        <time>2022-04-25T09:28:11.883Z</time>
      </trkpt>
      <trkpt lat="41.74217" lon="20.83433">
        <ele>893.884765</ele>
        <time>2022-04-25T09:28:17.930Z</time>
      </trkpt>
      <trkpt lat="41.74208" lon="20.83432">
        <ele>894.569688</ele>
        <time>2022-04-25T09:28:23.910Z</time>
      </trkpt>
      <trkpt lat="41.74198" lon="20.83432">
        <ele>895.340486</ele>
        <time>2022-04-25T09:28:30.897Z</time>
      </trkpt>
      <trkpt lat="41.74188" lon="20.83433">
        <ele>896.06136</ele>
        <time>2022-04-25T09:28:36.886Z</time>
      </trkpt>
      <trkpt lat="41.74179" lon="20.83436">
        <ele>896.754821</ele>
        <time>2022-04-25T09:28:42.898Z</time>
      </trkpt>
      <trkpt lat="41.74169" lon="20.83437">
        <ele>897.500428</ele>
        <time>2022-04-25T09:28:49.890Z</time>
      </trkpt>
      <trkpt lat="41.7416" lon="20.8344">
        <ele>898.180384</ele>
        <time>2022-04-25T09:28:56.894Z</time>
      </trkpt>
      <trkpt lat="41.74151" lon="20.83444">
        <ele>898.885228</ele>
        <time>2022-04-25T09:29:03.901Z</time>
      </trkpt>
      <trkpt lat="41.74142" lon="20.83448">
        <ele>899.624758</ele>
        <time>2022-04-25T09:29:11.899Z</time>
      </trkpt>
      <trkpt lat="41.74132" lon="20.83453">
        <ele>900.357784</ele>
        <time>2022-04-25T09:29:19.901Z</time>
      </trkpt>
      <trkpt lat="41.74125" lon="20.8346">
        <ele>901.044245</ele>
        <time>2022-04-25T09:29:26.905Z</time>
      </trkpt>
      <trkpt lat="41.74117" lon="20.83468">
        <ele>901.808343</ele>
        <time>2022-04-25T09:29:35.897Z</time>
      </trkpt>
      <trkpt lat="41.74109" lon="20.83476">
        <ele>902.66994</ele>
        <time>2022-04-25T09:29:43.904Z</time>
      </trkpt>
      <trkpt lat="41.74101" lon="20.83483">
        <ele>903.471557</ele>
        <time>2022-04-25T09:29:50.944Z</time>
      </trkpt>
      <trkpt lat="41.74092" lon="20.83489">
        <ele>904.310987</ele>
        <time>2022-04-25T09:29:56.891Z</time>
      </trkpt>
      <trkpt lat="41.74084" lon="20.83495">
        <ele>905.109203</ele>
        <time>2022-04-25T09:30:02.889Z</time>
      </trkpt>
      <trkpt lat="41.74076" lon="20.83502">
        <ele>905.882827</ele>
        <time>2022-04-25T09:30:08.896Z</time>
      </trkpt>
      <trkpt lat="41.74067" lon="20.8351">
        <ele>906.764957</ele>
        <time>2022-04-25T09:30:14.895Z</time>
      </trkpt>
      <trkpt lat="41.7406" lon="20.83518">
        <ele>907.55896</ele>
        <time>2022-04-25T09:30:20.901Z</time>
      </trkpt>
      <trkpt lat="41.74053" lon="20.83526">
        <ele>908.351189</ele>
        <time>2022-04-25T09:30:27.881Z</time>
      </trkpt>
      <trkpt lat="41.74046" lon="20.83535">
        <ele>909.176649</ele>
        <time>2022-04-25T09:30:35.946Z</time>
      </trkpt>
      <trkpt lat="41.74039" lon="20.83544">
        <ele>909.948086</ele>
        <time>2022-04-25T09:30:43.906Z</time>
      </trkpt>
      <trkpt lat="41.74032" lon="20.83553">
        <ele>910.788289</ele>
        <time>2022-04-25T09:30:51.906Z</time>
      </trkpt>
      <trkpt lat="41.74024" lon="20.83562">
        <ele>911.663961</ele>
        <time>2022-04-25T09:30:59.912Z</time>
      </trkpt>
      <trkpt lat="41.74016" lon="20.83569">
        <ele>912.48675</ele>
        <time>2022-04-25T09:31:06.902Z</time>
      </trkpt>
      <trkpt lat="41.74009" lon="20.83578">
        <ele>913.301726</ele>
        <time>2022-04-25T09:31:13.903Z</time>
      </trkpt>
      <trkpt lat="41.74001" lon="20.83586">
        <ele>914.159672</ele>
        <time>2022-04-25T09:31:21.898Z</time>
      </trkpt>
      <trkpt lat="41.73993" lon="20.83594">
        <ele>914.997946</ele>
        <time>2022-04-25T09:31:28.884Z</time>
      </trkpt>
      <trkpt lat="41.73985" lon="20.83602">
        <ele>915.847816</ele>
        <time>2022-04-25T09:31:35.899Z</time>
      </trkpt>
      <trkpt lat="41.73977" lon="20.83609">
        <ele>916.580962</ele>
        <time>2022-04-25T09:31:42.898Z</time>
      </trkpt>
      <trkpt lat="41.73968" lon="20.83615">
        <ele>917.145555</ele>
        <time>2022-04-25T09:31:50.912Z</time>
      </trkpt>
      <trkpt lat="41.73959" lon="20.83619">
        <ele>917.707861</ele>
        <time>2022-04-25T09:31:58.902Z</time>
      </trkpt>
      <trkpt lat="41.73951" lon="20.83625">
        <ele>918.242943</ele>
        <time>2022-04-25T09:32:07.898Z</time>
      </trkpt>
      <trkpt lat="41.73942" lon="20.83628">
        <ele>918.788393</ele>
        <time>2022-04-25T09:32:15.880Z</time>
      </trkpt>
      <trkpt lat="41.73932" lon="20.83631">
        <ele>919.374283</ele>
        <time>2022-04-25T09:32:23.932Z</time>
      </trkpt>
      <trkpt lat="41.73923" lon="20.83633">
        <ele>919.90321</ele>
        <time>2022-04-25T09:32:30.898Z</time>
      </trkpt>
      <trkpt lat="41.73914" lon="20.83635">
        <ele>920.434421</ele>
        <time>2022-04-25T09:32:37.872Z</time>
      </trkpt>
      <trkpt lat="41.73904" lon="20.83635">
        <ele>920.978043</ele>
        <time>2022-04-25T09:32:44.900Z</time>
      </trkpt>
      <trkpt lat="41.73895" lon="20.83635">
        <ele>921.510805</ele>
        <time>2022-04-25T09:32:53.899Z</time>
      </trkpt>
      <trkpt lat="41.73885" lon="20.83634">
        <ele>922.077417</ele>
        <time>2022-04-25T09:33:03.890Z</time>
      </trkpt>
      <trkpt lat="41.73876" lon="20.83636">
        <ele>922.640234</ele>
        <time>2022-04-25T09:33:11.893Z</time>
      </trkpt>
      <trkpt lat="41.73866" lon="20.83635">
        <ele>923.172157</ele>
        <time>2022-04-25T09:33:20.905Z</time>
      </trkpt>
      <trkpt lat="41.73857" lon="20.83635">
        <ele>923.704919</ele>
        <time>2022-04-25T09:33:30.889Z</time>
      </trkpt>
      <trkpt lat="41.73847" lon="20.83635">
        <ele>924.277361</ele>
        <time>2022-04-25T09:33:37.900Z</time>
      </trkpt>
      <trkpt lat="41.73837" lon="20.83634">
        <ele>924.873629</ele>
        <time>2022-04-25T09:33:45.906Z</time>
      </trkpt>
      <trkpt lat="41.73827" lon="20.83634">
        <ele>925.440634</ele>
        <time>2022-04-25T09:33:54.882Z</time>
      </trkpt>
      <trkpt lat="41.73818" lon="20.83633">
        <ele>925.9672</ele>
        <time>2022-04-25T09:34:03.893Z</time>
      </trkpt>
      <trkpt lat="41.73809" lon="20.83633">
        <ele>926.516518</ele>
        <time>2022-04-25T09:34:12.893Z</time>
      </trkpt>
      <trkpt lat="41.73798" lon="20.83636">
        <ele>927.107627</ele>
        <time>2022-04-25T09:34:21.881Z</time>
      </trkpt>
      <trkpt lat="41.7379" lon="20.83641">
        <ele>927.643009</ele>
        <time>2022-04-25T09:34:28.941Z</time>
      </trkpt>
      <trkpt lat="41.73781" lon="20.83645">
        <ele>928.162933</ele>
        <time>2022-04-25T09:34:35.891Z</time>
      </trkpt>
      <trkpt lat="41.73773" lon="20.8365">
        <ele>928.7103</ele>
        <time>2022-04-25T09:34:42.879Z</time>
      </trkpt>
      <trkpt lat="41.73763" lon="20.83655">
        <ele>929.294783</ele>
        <time>2022-04-25T09:34:52.884Z</time>
      </trkpt>
      <trkpt lat="41.73754" lon="20.83659">
        <ele>929.854179</ele>
        <time>2022-04-25T09:34:59.898Z</time>
      </trkpt>
      <trkpt lat="41.73745" lon="20.83666">
        <ele>930.422523</ele>
        <time>2022-04-25T09:35:08.894Z</time>
      </trkpt>
      <trkpt lat="41.73736" lon="20.8367">
        <ele>930.961909</ele>
        <time>2022-04-25T09:35:17.888Z</time>
      </trkpt>
      <trkpt lat="41.73728" lon="20.83676">
        <ele>931.488421</ele>
        <time>2022-04-25T09:35:25.906Z</time>
      </trkpt>
      <trkpt lat="41.7372" lon="20.83682">
        <ele>932.037594</ele>
        <time>2022-04-25T09:35:35.923Z</time>
      </trkpt>
      <trkpt lat="41.73711" lon="20.83687">
        <ele>932.560486</ele>
        <time>2022-04-25T09:35:45.872Z</time>
      </trkpt>
      <trkpt lat="41.73702" lon="20.83693">
        <ele>933.153434</ele>
        <time>2022-04-25T09:35:54.903Z</time>
      </trkpt>
      <trkpt lat="41.73694" lon="20.83698">
        <ele>933.673084</ele>
        <time>2022-04-25T09:36:01.898Z</time>
      </trkpt>
      <trkpt lat="41.73684" lon="20.83702">
        <ele>934.237878</ele>
        <time>2022-04-25T09:36:10.903Z</time>
      </trkpt>
      <trkpt lat="41.73675" lon="20.83707">
        <ele>934.830506</ele>
        <time>2022-04-25T09:36:18.895Z</time>
      </trkpt>
      <trkpt lat="41.73665" lon="20.8371">
        <ele>935.395013</ele>
        <time>2022-04-25T09:36:26.900Z</time>
      </trkpt>
      <trkpt lat="41.73656" lon="20.83712">
        <ele>935.952858</ele>
        <time>2022-04-25T09:36:34.897Z</time>
      </trkpt>
      <trkpt lat="41.73646" lon="20.83712">
        <ele>936.479778</ele>
        <time>2022-04-25T09:36:42.887Z</time>
      </trkpt>
      <trkpt lat="41.73636" lon="20.83711">
        <ele>937.053016</ele>
        <time>2022-04-25T09:36:49.930Z</time>
      </trkpt>
      <trkpt lat="41.73628" lon="20.83715">
        <ele>937.087774</ele>
        <time>2022-04-25T09:36:58.901Z</time>
      </trkpt>
      <trkpt lat="41.73619" lon="20.83721">
        <ele>937.044078</ele>
        <time>2022-04-25T09:37:07.906Z</time>
      </trkpt>
      <trkpt lat="41.73599" lon="20.83702">
        <ele>936.927908</ele>
        <time>2022-04-25T09:47:56.929Z</time>
      </trkpt>
      <trkpt lat="41.73591" lon="20.83696">
        <ele>936.885573</ele>
        <time>2022-04-25T09:48:01.894Z</time>
      </trkpt>
      <trkpt lat="41.73583" lon="20.83687">
        <ele>936.834786</ele>
        <time>2022-04-25T09:48:06.890Z</time>
      </trkpt>
      <trkpt lat="41.73574" lon="20.83678">
        <ele>936.786856</ele>
        <time>2022-04-25T09:48:10.869Z</time>
      </trkpt>
      <trkpt lat="41.73569" lon="20.83668">
        <ele>936.743857</ele>
        <time>2022-04-25T09:48:13.893Z</time>
      </trkpt>
      <trkpt lat="41.73564" lon="20.83657">
        <ele>936.69899</ele>
        <time>2022-04-25T09:48:16.942Z</time>
      </trkpt>
      <trkpt lat="41.7356" lon="20.83645">
        <ele>936.649962</ele>
        <time>2022-04-25T09:48:19.890Z</time>
      </trkpt>
      <trkpt lat="41.73556" lon="20.83629">
        <ele>936.592831</ele>
        <time>2022-04-25T09:48:22.919Z</time>
      </trkpt>
      <trkpt lat="41.73553" lon="20.83617">
        <ele>936.549076</ele>
        <time>2022-04-25T09:48:24.901Z</time>
      </trkpt>
      <trkpt lat="41.7355" lon="20.83605">
        <ele>936.503537</ele>
        <time>2022-04-25T09:48:26.898Z</time>
      </trkpt>
      <trkpt lat="41.73548" lon="20.83591">
        <ele>936.454889</ele>
        <time>2022-04-25T09:48:28.900Z</time>
      </trkpt>
      <trkpt lat="41.73547" lon="20.83576">
        <ele>936.402726</ele>
        <time>2022-04-25T09:48:30.901Z</time>
      </trkpt>
      <trkpt lat="41.73545" lon="20.8356">
        <ele>936.347079</ele>
        <time>2022-04-25T09:48:32.901Z</time>
      </trkpt>
      <trkpt lat="41.73542" lon="20.83544">
        <ele>936.289357</ele>
        <time>2022-04-25T09:48:34.885Z</time>
      </trkpt>
      <trkpt lat="41.73539" lon="20.83527">
        <ele>935.675354</ele>
        <time>2022-04-25T09:48:36.870Z</time>
      </trkpt>
      <trkpt lat="41.73535" lon="20.83509">
        <ele>934.995354</ele>
        <time>2022-04-25T09:48:38.869Z</time>
      </trkpt>
      <trkpt lat="41.73529" lon="20.83492">
        <ele>934.289354</ele>
        <time>2022-04-25T09:48:40.874Z</time>
      </trkpt>
      <trkpt lat="41.7352" lon="20.83476">
        <ele>933.55153</ele>
        <time>2022-04-25T09:48:42.980Z</time>
      </trkpt>
      <trkpt lat="41.7351" lon="20.8346">
        <ele>932.768115</ele>
        <time>2022-04-25T09:48:44.872Z</time>
      </trkpt>
      <trkpt lat="41.73499" lon="20.83442">
        <ele>931.917717</ele>
        <time>2022-04-25T09:48:46.873Z</time>
      </trkpt>
      <trkpt lat="41.73488" lon="20.83425">
        <ele>931.077827</ele>
        <time>2022-04-25T09:48:48.866Z</time>
      </trkpt>
      <trkpt lat="41.73476" lon="20.83408">
        <ele>930.223069</ele>
        <time>2022-04-25T09:48:50.871Z</time>
      </trkpt>
      <trkpt lat="41.73465" lon="20.8339">
        <ele>929.362513</ele>
        <time>2022-04-25T09:48:52.876Z</time>
      </trkpt>
      <trkpt lat="41.73455" lon="20.83372">
        <ele>928.53553</ele>
        <time>2022-04-25T09:48:54.874Z</time>
      </trkpt>
      <trkpt lat="41.73448" lon="20.83357">
        <ele>927.87455</ele>
        <time>2022-04-25T09:48:56.877Z</time>
      </trkpt>
      <trkpt lat="41.73441" lon="20.83344">
        <ele>927.311913</ele>
        <time>2022-04-25T09:48:58.870Z</time>
      </trkpt>
      <trkpt lat="41.73433" lon="20.83331">
        <ele>926.840709</ele>
        <time>2022-04-25T09:49:00.886Z</time>
      </trkpt>
      <trkpt lat="41.73426" lon="20.83319">
        <ele>926.388171</ele>
        <time>2022-04-25T09:49:02.870Z</time>
      </trkpt>
      <trkpt lat="41.73421" lon="20.83307">
        <ele>925.976638</ele>
        <time>2022-04-25T09:49:04.879Z</time>
      </trkpt>
      <trkpt lat="41.73414" lon="20.83297">
        <ele>925.595907</ele>
        <time>2022-04-25T09:49:06.871Z</time>
      </trkpt>
      <trkpt lat="41.73408" lon="20.83286">
        <ele>925.201402</ele>
        <time>2022-04-25T09:49:08.863Z</time>
      </trkpt>
      <trkpt lat="41.73401" lon="20.83274">
        <ele>924.766762</ele>
        <time>2022-04-25T09:49:10.869Z</time>
      </trkpt>
      <trkpt lat="41.73392" lon="20.83263">
        <ele>924.297856</ele>
        <time>2022-04-25T09:49:12.904Z</time>
      </trkpt>
      <trkpt lat="41.73382" lon="20.83255">
        <ele>923.82189</ele>
        <time>2022-04-25T09:49:14.869Z</time>
      </trkpt>
      <trkpt lat="41.73371" lon="20.8325">
        <ele>923.382194</ele>
        <time>2022-04-25T09:49:16.863Z</time>
      </trkpt>
      <trkpt lat="41.7336" lon="20.83247">
        <ele>922.947303</ele>
        <time>2022-04-25T09:49:18.872Z</time>
      </trkpt>
      <trkpt lat="41.7335" lon="20.83244">
        <ele>922.548796</ele>
        <time>2022-04-25T09:49:20.862Z</time>
      </trkpt>
      <trkpt lat="41.73341" lon="20.83245">
        <ele>922.194958</ele>
        <time>2022-04-25T09:49:22.938Z</time>
      </trkpt>
      <trkpt lat="41.7333" lon="20.83249">
        <ele>921.766914</ele>
        <time>2022-04-25T09:49:25.865Z</time>
      </trkpt>
      <trkpt lat="41.7332" lon="20.83254">
        <ele>921.339419</ele>
        <time>2022-04-25T09:49:29.888Z</time>
      </trkpt>
      <trkpt lat="41.73313" lon="20.83263">
        <ele>920.96983</ele>
        <time>2022-04-25T09:49:33.862Z</time>
      </trkpt>
      <trkpt lat="41.73305" lon="20.83273">
        <ele>920.548178</ele>
        <time>2022-04-25T09:49:38.869Z</time>
      </trkpt>
      <trkpt lat="41.73299" lon="20.83282">
        <ele>920.88996</ele>
        <time>2022-04-25T09:49:42.865Z</time>
      </trkpt>
      <trkpt lat="41.73293" lon="20.83291">
        <ele>921.740989</ele>
        <time>2022-04-25T09:49:46.872Z</time>
      </trkpt>
      <trkpt lat="41.73287" lon="20.83301">
        <ele>922.597785</ele>
        <time>2022-04-25T09:49:50.866Z</time>
      </trkpt>
      <trkpt lat="41.73284" lon="20.83313">
        <ele>923.434959</ele>
        <time>2022-04-25T09:49:55.862Z</time>
      </trkpt>
      <trkpt lat="41.73282" lon="20.83326">
        <ele>924.352348</ele>
        <time>2022-04-25T09:50:01.861Z</time>
      </trkpt>
      <trkpt lat="41.73282" lon="20.83338">
        <ele>925.182635</ele>
        <time>2022-04-25T09:50:07.867Z</time>
      </trkpt>
      <trkpt lat="41.73285" lon="20.83349">
        <ele>926.021136</ele>
        <time>2022-04-25T09:50:12.878Z</time>
      </trkpt>
      <trkpt lat="41.73287" lon="20.83363">
        <ele>926.93827</ele>
        <time>2022-04-25T09:50:19.860Z</time>
      </trkpt>
      <trkpt lat="41.73288" lon="20.83375">
        <ele>927.768496</ele>
        <time>2022-04-25T09:50:26.875Z</time>
      </trkpt>
      <trkpt lat="41.7329" lon="20.83387">
        <ele>928.6345</ele>
        <time>2022-04-25T09:50:33.862Z</time>
      </trkpt>
      <trkpt lat="41.73294" lon="20.834">
        <ele>929.584625</ele>
        <time>2022-04-25T09:50:40.864Z</time>
      </trkpt>
      <trkpt lat="41.73297" lon="20.83411">
        <ele>930.416585</ele>
        <time>2022-04-25T09:50:47.864Z</time>
      </trkpt>
      <trkpt lat="41.73299" lon="20.83423">
        <ele>931.267192</ele>
        <time>2022-04-25T09:50:54.866Z</time>
      </trkpt>
      <trkpt lat="41.73303" lon="20.83436">
        <ele>932.178114</ele>
        <time>2022-04-25T09:51:01.869Z</time>
      </trkpt>
      <trkpt lat="41.73305" lon="20.83449">
        <ele>933.103903</ele>
        <time>2022-04-25T09:51:08.887Z</time>
      </trkpt>
      <trkpt lat="41.73307" lon="20.83462">
        <ele>934.036114</ele>
        <time>2022-04-25T09:51:16.886Z</time>
      </trkpt>
      <trkpt lat="41.73309" lon="20.83476">
        <ele>934.969992</ele>
        <time>2022-04-25T09:51:24.866Z</time>
      </trkpt>
      <trkpt lat="41.7331" lon="20.83489">
        <ele>935.896532</ele>
        <time>2022-04-25T09:51:31.870Z</time>
      </trkpt>
      <trkpt lat="41.7331" lon="20.83502">
        <ele>936.786799</ele>
        <time>2022-04-25T09:51:37.867Z</time>
      </trkpt>
      <trkpt lat="41.7331" lon="20.83516">
        <ele>937.639754</ele>
        <time>2022-04-25T09:51:44.879Z</time>
      </trkpt>
      <trkpt lat="41.7331" lon="20.83529">
        <ele>938.470239</ele>
        <time>2022-04-25T09:51:52.894Z</time>
      </trkpt>
      <trkpt lat="41.73308" lon="20.83541">
        <ele>939.272247</ele>
        <time>2022-04-25T09:51:59.863Z</time>
      </trkpt>
      <trkpt lat="41.73305" lon="20.83554">
        <ele>940.098563</ele>
        <time>2022-04-25T09:52:06.885Z</time>
      </trkpt>
      <trkpt lat="41.73302" lon="20.83567">
        <ele>940.946156</ele>
        <time>2022-04-25T09:52:14.865Z</time>
      </trkpt>
      <trkpt lat="41.73297" lon="20.83577">
        <ele>941.762966</ele>
        <time>2022-04-25T09:52:22.865Z</time>
      </trkpt>
      <trkpt lat="41.73292" lon="20.83588">
        <ele>942.530193</ele>
        <time>2022-04-25T09:52:29.860Z</time>
      </trkpt>
      <trkpt lat="41.73286" lon="20.83598">
        <ele>943.36213</ele>
        <time>2022-04-25T09:52:37.887Z</time>
      </trkpt>
      <trkpt lat="41.73281" lon="20.8361">
        <ele>944.217193</ele>
        <time>2022-04-25T09:52:44.871Z</time>
      </trkpt>
      <trkpt lat="41.73273" lon="20.83619">
        <ele>945.113366</ele>
        <time>2022-04-25T09:52:50.870Z</time>
      </trkpt>
      <trkpt lat="41.73267" lon="20.83628">
        <ele>945.881303</ele>
        <time>2022-04-25T09:52:56.877Z</time>
      </trkpt>
      <trkpt lat="41.73264" lon="20.83641">
        <ele>946.692111</ele>
        <time>2022-04-25T09:53:03.866Z</time>
      </trkpt>
      <trkpt lat="41.73263" lon="20.83654">
        <ele>947.518448</ele>
        <time>2022-04-25T09:53:11.882Z</time>
      </trkpt>
      <trkpt lat="41.73265" lon="20.83666">
        <ele>948.339519</ele>
        <time>2022-04-25T09:53:20.877Z</time>
      </trkpt>
      <trkpt lat="41.73269" lon="20.83678">
        <ele>949.132305</ele>
        <time>2022-04-25T09:53:28.873Z</time>
      </trkpt>
      <trkpt lat="41.73272" lon="20.8369">
        <ele>949.95751</ele>
        <time>2022-04-25T09:53:35.876Z</time>
      </trkpt>
      <trkpt lat="41.73274" lon="20.83704">
        <ele>950.853546</ele>
        <time>2022-04-25T09:53:42.870Z</time>
      </trkpt>
      <trkpt lat="41.73274" lon="20.83718">
        <ele>951.702866</ele>
        <time>2022-04-25T09:53:48.870Z</time>
      </trkpt>
      <trkpt lat="41.73272" lon="20.83731">
        <ele>952.328084</ele>
        <time>2022-04-25T09:53:56.869Z</time>
      </trkpt>
      <trkpt lat="41.7327" lon="20.83743">
        <ele>952.785657</ele>
        <time>2022-04-25T09:54:03.863Z</time>
      </trkpt>
      <trkpt lat="41.7327" lon="20.83756">
        <ele>953.254537</ele>
        <time>2022-04-25T09:54:10.880Z</time>
      </trkpt>
      <trkpt lat="41.73269" lon="20.8377">
        <ele>953.736722</ele>
        <time>2022-04-25T09:54:17.869Z</time>
      </trkpt>
      <trkpt lat="41.73264" lon="20.83782">
        <ele>954.228166</ele>
        <time>2022-04-25T09:54:24.867Z</time>
      </trkpt>
      <trkpt lat="41.73257" lon="20.83791">
        <ele>954.682432</ele>
        <time>2022-04-25T09:54:30.863Z</time>
      </trkpt>
      <trkpt lat="41.7325" lon="20.838">
        <ele>955.167285</ele>
        <time>2022-04-25T09:54:38.872Z</time>
      </trkpt>
      <trkpt lat="41.73243" lon="20.83809">
        <ele>955.626462</ele>
        <time>2022-04-25T09:54:45.873Z</time>
      </trkpt>
      <trkpt lat="41.73235" lon="20.83817">
        <ele>956.105876</ele>
        <time>2022-04-25T09:54:53.865Z</time>
      </trkpt>
      <trkpt lat="41.73229" lon="20.83827">
        <ele>956.577844</ele>
        <time>2022-04-25T09:55:01.867Z</time>
      </trkpt>
      <trkpt lat="41.73224" lon="20.83838">
        <ele>957.019162</ele>
        <time>2022-04-25T09:55:09.863Z</time>
      </trkpt>
      <trkpt lat="41.73219" lon="20.83848">
        <ele>957.45248</ele>
        <time>2022-04-25T09:55:15.871Z</time>
      </trkpt>
      <trkpt lat="41.73214" lon="20.83858">
        <ele>957.885869</ele>
        <time>2022-04-25T09:55:21.866Z</time>
      </trkpt>
      <trkpt lat="41.7321" lon="20.83869">
        <ele>958.321667</ele>
        <time>2022-04-25T09:55:27.862Z</time>
      </trkpt>
      <trkpt lat="41.73204" lon="20.83879">
        <ele>958.783602</ele>
        <time>2022-04-25T09:55:34.878Z</time>
      </trkpt>
      <trkpt lat="41.73201" lon="20.83892">
        <ele>959.244893</ele>
        <time>2022-04-25T09:55:41.865Z</time>
      </trkpt>
      <trkpt lat="41.732" lon="20.83904">
        <ele>959.704394</ele>
        <time>2022-04-25T09:55:49.878Z</time>
      </trkpt>
      <trkpt lat="41.73198" lon="20.83917">
        <ele>960.157551</ele>
        <time>2022-04-25T09:55:56.863Z</time>
      </trkpt>
      <trkpt lat="41.73197" lon="20.83929">
        <ele>960.593048</ele>
        <time>2022-04-25T09:56:02.864Z</time>
      </trkpt>
      <trkpt lat="41.73193" lon="20.83942">
        <ele>961.01353</ele>
        <time>2022-04-25T09:56:09.862Z</time>
      </trkpt>
      <trkpt lat="41.73186" lon="20.83951">
        <ele>961.419093</ele>
        <time>2022-04-25T09:56:16.870Z</time>
      </trkpt>
      <trkpt lat="41.73181" lon="20.83963">
        <ele>961.82466</ele>
        <time>2022-04-25T09:56:23.873Z</time>
      </trkpt>
      <trkpt lat="41.73174" lon="20.83972">
        <ele>962.216479</ele>
        <time>2022-04-25T09:56:30.878Z</time>
      </trkpt>
      <trkpt lat="41.73167" lon="20.83981">
        <ele>962.596335</ele>
        <time>2022-04-25T09:56:37.862Z</time>
      </trkpt>
      <trkpt lat="41.7316" lon="20.83989">
        <ele>962.96129</ele>
        <time>2022-04-25T09:56:44.872Z</time>
      </trkpt>
      <trkpt lat="41.73152" lon="20.83996">
        <ele>963.367606</ele>
        <time>2022-04-25T09:56:51.870Z</time>
      </trkpt>
      <trkpt lat="41.73142" lon="20.84002">
        <ele>963.774281</ele>
        <time>2022-04-25T09:56:58.888Z</time>
      </trkpt>
      <trkpt lat="41.73133" lon="20.84006">
        <ele>964.168769</ele>
        <time>2022-04-25T09:57:07.872Z</time>
      </trkpt>
      <trkpt lat="41.73123" lon="20.84006">
        <ele>964.564762</ele>
        <time>2022-04-25T09:57:15.870Z</time>
      </trkpt>
      <trkpt lat="41.73114" lon="20.84004">
        <ele>964.956447</ele>
        <time>2022-04-25T09:57:21.867Z</time>
      </trkpt>
      <trkpt lat="41.73104" lon="20.83999">
        <ele>965.361861</ele>
        <time>2022-04-25T09:57:28.863Z</time>
      </trkpt>
      <trkpt lat="41.73096" lon="20.83991">
        <ele>965.75567</ele>
        <time>2022-04-25T09:57:36.867Z</time>
      </trkpt>
      <trkpt lat="41.73089" lon="20.83982">
        <ele>966.133793</ele>
        <time>2022-04-25T09:57:43.873Z</time>
      </trkpt>
      <trkpt lat="41.73084" lon="20.83972">
        <ele>966.506986</ele>
        <time>2022-04-25T09:57:51.866Z</time>
      </trkpt>
      <trkpt lat="41.73078" lon="20.83963">
        <ele>966.866014</ele>
        <time>2022-04-25T09:57:59.894Z</time>
      </trkpt>
      <trkpt lat="41.73072" lon="20.83952">
        <ele>967.280166</ele>
        <time>2022-04-25T09:58:07.866Z</time>
      </trkpt>
      <trkpt lat="41.73066" lon="20.83942">
        <ele>967.677363</ele>
        <time>2022-04-25T09:58:15.865Z</time>
      </trkpt>
      <trkpt lat="41.7306" lon="20.83932">
        <ele>968.258488</ele>
        <time>2022-04-25T09:58:23.867Z</time>
      </trkpt>
      <trkpt lat="41.73055" lon="20.8392">
        <ele>969.162559</ele>
        <time>2022-04-25T09:58:31.866Z</time>
      </trkpt>
      <trkpt lat="41.73052" lon="20.83909">
        <ele>969.997434</ele>
        <time>2022-04-25T09:58:38.866Z</time>
      </trkpt>
      <trkpt lat="41.73046" lon="20.83899">
        <ele>970.879964</ele>
        <time>2022-04-25T09:58:47.876Z</time>
      </trkpt>
      <trkpt lat="41.7304" lon="20.83888">
        <ele>971.790838</ele>
        <time>2022-04-25T09:58:55.895Z</time>
      </trkpt>
      <trkpt lat="41.73033" lon="20.8388">
        <ele>972.61978</ele>
        <time>2022-04-25T09:59:02.867Z</time>
      </trkpt>
      <trkpt lat="41.73024" lon="20.83873">
        <ele>973.578985</ele>
        <time>2022-04-25T09:59:10.865Z</time>
      </trkpt>
      <trkpt lat="41.73015" lon="20.8387">
        <ele>974.483579</ele>
        <time>2022-04-25T09:59:17.892Z</time>
      </trkpt>
      <trkpt lat="41.73005" lon="20.83869">
        <ele>975.339456</ele>
        <time>2022-04-25T09:59:25.876Z</time>
      </trkpt>
      <trkpt lat="41.72996" lon="20.83868">
        <ele>976.219538</ele>
        <time>2022-04-25T09:59:32.877Z</time>
      </trkpt>
      <trkpt lat="41.72986" lon="20.83868">
        <ele>977.136007</ele>
        <time>2022-04-25T09:59:41.877Z</time>
      </trkpt>
      <trkpt lat="41.72976" lon="20.83873">
        <ele>978.079522</ele>
        <time>2022-04-25T09:59:48.883Z</time>
      </trkpt>
      <trkpt lat="41.72967" lon="20.83878">
        <ele>978.957846</ele>
        <time>2022-04-25T09:59:54.865Z</time>
      </trkpt>
      <trkpt lat="41.72958" lon="20.83884">
        <ele>979.884877</ele>
        <time>2022-04-25T10:00:01.890Z</time>
      </trkpt>
      <trkpt lat="41.72953" lon="20.83894">
        <ele>980.750714</ele>
        <time>2022-04-25T10:00:09.865Z</time>
      </trkpt>
      <trkpt lat="41.72946" lon="20.83905">
        <ele>981.666993</ele>
        <time>2022-04-25T10:00:17.862Z</time>
      </trkpt>
      <trkpt lat="41.72941" lon="20.83916">
        <ele>982.561841</ele>
        <time>2022-04-25T10:00:24.885Z</time>
      </trkpt>
      <trkpt lat="41.72937" lon="20.83928">
        <ele>983.467964</ele>
        <time>2022-04-25T10:00:32.863Z</time>
      </trkpt>
      <trkpt lat="41.72936" lon="20.83941">
        <ele>984.367886</ele>
        <time>2022-04-25T10:00:40.876Z</time>
      </trkpt>
      <trkpt lat="41.72936" lon="20.83954">
        <ele>985.075872</ele>
        <time>2022-04-25T10:00:47.884Z</time>
      </trkpt>
      <trkpt lat="41.72937" lon="20.83966">
        <ele>985.762423</ele>
        <time>2022-04-25T10:00:54.868Z</time>
      </trkpt>
      <trkpt lat="41.7294" lon="20.83979">
        <ele>986.527708</ele>
        <time>2022-04-25T10:01:01.876Z</time>
      </trkpt>
      <trkpt lat="41.72941" lon="20.83993">
        <ele>987.299463</ele>
        <time>2022-04-25T10:01:09.861Z</time>
      </trkpt>
      <trkpt lat="41.72941" lon="20.84005">
        <ele>987.97905</ele>
        <time>2022-04-25T10:01:16.866Z</time>
      </trkpt>
      <trkpt lat="41.72944" lon="20.84017">
        <ele>988.697522</ele>
        <time>2022-04-25T10:01:23.861Z</time>
      </trkpt>
      <trkpt lat="41.72943" lon="20.8403">
        <ele>989.449899</ele>
        <time>2022-04-25T10:01:30.874Z</time>
      </trkpt>
      <trkpt lat="41.72941" lon="20.84042">
        <ele>990.134949</ele>
        <time>2022-04-25T10:01:36.864Z</time>
      </trkpt>
      <trkpt lat="41.72939" lon="20.84055">
        <ele>990.887229</ele>
        <time>2022-04-25T10:01:43.863Z</time>
      </trkpt>
      <trkpt lat="41.72939" lon="20.84068">
        <ele>991.622974</ele>
        <time>2022-04-25T10:01:50.866Z</time>
      </trkpt>
      <trkpt lat="41.72936" lon="20.84081">
        <ele>992.335524</ele>
        <time>2022-04-25T10:01:57.863Z</time>
      </trkpt>
      <trkpt lat="41.72932" lon="20.84091">
        <ele>993.018338</ele>
        <time>2022-04-25T10:02:04.866Z</time>
      </trkpt>
      <trkpt lat="41.72925" lon="20.84101">
        <ele>993.740507</ele>
        <time>2022-04-25T10:02:10.887Z</time>
      </trkpt>
      <trkpt lat="41.72918" lon="20.84109">
        <ele>994.477648</ele>
        <time>2022-04-25T10:02:16.895Z</time>
      </trkpt>
      <trkpt lat="41.72911" lon="20.84117">
        <ele>995.172136</ele>
        <time>2022-04-25T10:02:24.886Z</time>
      </trkpt>
      <trkpt lat="41.72903" lon="20.84125">
        <ele>995.881811</ele>
        <time>2022-04-25T10:02:32.864Z</time>
      </trkpt>
      <trkpt lat="41.72895" lon="20.8413">
        <ele>996.584972</ele>
        <time>2022-04-25T10:02:39.870Z</time>
      </trkpt>
      <trkpt lat="41.72886" lon="20.84136">
        <ele>997.361409</ele>
        <time>2022-04-25T10:02:48.867Z</time>
      </trkpt>
      <trkpt lat="41.72875" lon="20.84137">
        <ele>998.153876</ele>
        <time>2022-04-25T10:02:55.861Z</time>
      </trkpt>
      <trkpt lat="41.72865" lon="20.84136">
        <ele>998.847848</ele>
        <time>2022-04-25T10:03:02.868Z</time>
      </trkpt>
      <trkpt lat="41.72856" lon="20.84138">
        <ele>999.511254</ele>
        <time>2022-04-25T10:03:09.885Z</time>
      </trkpt>
      <trkpt lat="41.72846" lon="20.84137">
        <ele>1000.257268</ele>
        <time>2022-04-25T10:03:16.862Z</time>
      </trkpt>
      <trkpt lat="41.72837" lon="20.84134">
        <ele>1000.907936</ele>
        <time>2022-04-25T10:03:24.863Z</time>
      </trkpt>
      <trkpt lat="41.72829" lon="20.84127">
        <ele>1001.583868</ele>
        <time>2022-04-25T10:03:31.867Z</time>
      </trkpt>
      <trkpt lat="41.7282" lon="20.84122">
        <ele>1002.233224</ele>
        <time>2022-04-25T10:03:38.894Z</time>
      </trkpt>
      <trkpt lat="41.72812" lon="20.84117">
        <ele>1002.881957</ele>
        <time>2022-04-25T10:03:45.861Z</time>
      </trkpt>
      <trkpt lat="41.72803" lon="20.84113">
        <ele>1003.550634</ele>
        <time>2022-04-25T10:03:52.866Z</time>
      </trkpt>
      <trkpt lat="41.72795" lon="20.84108">
        <ele>1004.232743</ele>
        <time>2022-04-25T10:03:59.869Z</time>
      </trkpt>
      <trkpt lat="41.72785" lon="20.84105">
        <ele>1004.913214</ele>
        <time>2022-04-25T10:04:08.873Z</time>
      </trkpt>
      <trkpt lat="41.72776" lon="20.84102">
        <ele>1005.602992</ele>
        <time>2022-04-25T10:04:14.877Z</time>
      </trkpt>
      <trkpt lat="41.72766" lon="20.84099">
        <ele>1006.311444</ele>
        <time>2022-04-25T10:04:21.866Z</time>
      </trkpt>
      <trkpt lat="41.72757" lon="20.84099">
        <ele>1007.005272</ele>
        <time>2022-04-25T10:04:30.918Z</time>
      </trkpt>
      <trkpt lat="41.72747" lon="20.84097">
        <ele>1007.718348</ele>
        <time>2022-04-25T10:04:38.863Z</time>
      </trkpt>
      <trkpt lat="41.72737" lon="20.84101">
        <ele>1008.421506</ele>
        <time>2022-04-25T10:04:46.881Z</time>
      </trkpt>
      <trkpt lat="41.72728" lon="20.84105">
        <ele>1009.086014</ele>
        <time>2022-04-25T10:04:52.883Z</time>
      </trkpt>
      <trkpt lat="41.72719" lon="20.84106">
        <ele>1009.774578</ele>
        <time>2022-04-25T10:04:58.881Z</time>
      </trkpt>
      <trkpt lat="41.7271" lon="20.84099">
        <ele>1010.494139</ele>
        <time>2022-04-25T10:05:05.860Z</time>
      </trkpt>
      <trkpt lat="41.72706" lon="20.84087">
        <ele>1011.350915</ele>
        <time>2022-04-25T10:05:12.906Z</time>
      </trkpt>
      <trkpt lat="41.72708" lon="20.84075">
        <ele>1012.275364</ele>
        <time>2022-04-25T10:05:18.874Z</time>
      </trkpt>
      <trkpt lat="41.72716" lon="20.84069">
        <ele>1013.202879</ele>
        <time>2022-04-25T10:05:24.859Z</time>
      </trkpt>
      <trkpt lat="41.72726" lon="20.84068">
        <ele>1014.202753</ele>
        <time>2022-04-25T10:05:29.872Z</time>
      </trkpt>
      <trkpt lat="41.72735" lon="20.84074">
        <ele>1015.150658</ele>
        <time>2022-04-25T10:05:37.863Z</time>
      </trkpt>
      <trkpt lat="41.72744" lon="20.84076">
        <ele>1016.067597</ele>
        <time>2022-04-25T10:05:44.864Z</time>
      </trkpt>
      <trkpt lat="41.72753" lon="20.84077">
        <ele>1017.032404</ele>
        <time>2022-04-25T10:05:53.860Z</time>
      </trkpt>
      <trkpt lat="41.72763" lon="20.84079">
        <ele>1018.058136</ele>
        <time>2022-04-25T10:06:01.857Z</time>
      </trkpt>
      <trkpt lat="41.72772" lon="20.84081">
        <ele>1018.999828</ele>
        <time>2022-04-25T10:06:08.874Z</time>
      </trkpt>
      <trkpt lat="41.72782" lon="20.84082">
        <ele>1020.020919</ele>
        <time>2022-04-25T10:06:14.865Z</time>
      </trkpt>
      <trkpt lat="41.72792" lon="20.84081">
        <ele>1020.960481</ele>
        <time>2022-04-25T10:06:21.860Z</time>
      </trkpt>
      <trkpt lat="41.72801" lon="20.84078">
        <ele>1021.932462</ele>
        <time>2022-04-25T10:06:31.870Z</time>
      </trkpt>
      <trkpt lat="41.7281" lon="20.84075">
        <ele>1022.86925</ele>
        <time>2022-04-25T10:06:39.871Z</time>
      </trkpt>
      <trkpt lat="41.72818" lon="20.84067">
        <ele>1023.890801</ele>
        <time>2022-04-25T10:06:48.882Z</time>
      </trkpt>
      <trkpt lat="41.72825" lon="20.84057">
        <ele>1024.916384</ele>
        <time>2022-04-25T10:06:56.873Z</time>
      </trkpt>
      <trkpt lat="41.72827" lon="20.84044">
        <ele>1025.945968</ele>
        <time>2022-04-25T10:07:04.882Z</time>
      </trkpt>
      <trkpt lat="41.72829" lon="20.84031">
        <ele>1026.906847</ele>
        <time>2022-04-25T10:07:11.866Z</time>
      </trkpt>
      <trkpt lat="41.72829" lon="20.84019">
        <ele>1027.863246</ele>
        <time>2022-04-25T10:07:18.862Z</time>
      </trkpt>
      <trkpt lat="41.7283" lon="20.84006">
        <ele>1028.83612</ele>
        <time>2022-04-25T10:07:26.863Z</time>
      </trkpt>
      <trkpt lat="41.72829" lon="20.83993">
        <ele>1029.643425</ele>
        <time>2022-04-25T10:07:34.864Z</time>
      </trkpt>
      <trkpt lat="41.7283" lon="20.8398">
        <ele>1030.433846</ele>
        <time>2022-04-25T10:07:41.892Z</time>
      </trkpt>
      <trkpt lat="41.7283" lon="20.83968">
        <ele>1031.217995</ele>
        <time>2022-04-25T10:07:47.923Z</time>
      </trkpt>
      <trkpt lat="41.72829" lon="20.83954">
        <ele>1032.076095</ele>
        <time>2022-04-25T10:07:54.882Z</time>
      </trkpt>
      <trkpt lat="41.72827" lon="20.83942">
        <ele>1032.864007</ele>
        <time>2022-04-25T10:08:01.884Z</time>
      </trkpt>
      <trkpt lat="41.72822" lon="20.83932">
        <ele>1033.618097</ele>
        <time>2022-04-25T10:08:08.878Z</time>
      </trkpt>
      <trkpt lat="41.72816" lon="20.83923">
        <ele>1034.394753</ele>
        <time>2022-04-25T10:08:16.904Z</time>
      </trkpt>
      <trkpt lat="41.72808" lon="20.83914">
        <ele>1035.245183</ele>
        <time>2022-04-25T10:08:23.903Z</time>
      </trkpt>
      <trkpt lat="41.72802" lon="20.83904">
        <ele>1036.019626</ele>
        <time>2022-04-25T10:08:30.903Z</time>
      </trkpt>
      <trkpt lat="41.72795" lon="20.83896">
        <ele>1036.830957</ele>
        <time>2022-04-25T10:08:38.877Z</time>
      </trkpt>
      <trkpt lat="41.72788" lon="20.83888">
        <ele>1037.589736</ele>
        <time>2022-04-25T10:08:45.931Z</time>
      </trkpt>
      <trkpt lat="41.7278" lon="20.8388">
        <ele>1038.436314</ele>
        <time>2022-04-25T10:08:53.920Z</time>
      </trkpt>
      <trkpt lat="41.72774" lon="20.8387">
        <ele>1039.247672</ele>
        <time>2022-04-25T10:09:01.892Z</time>
      </trkpt>
      <trkpt lat="41.72767" lon="20.83861">
        <ele>1040.071028</ele>
        <time>2022-04-25T10:09:09.900Z</time>
      </trkpt>
      <trkpt lat="41.7276" lon="20.83853">
        <ele>1040.846725</ele>
        <time>2022-04-25T10:09:16.934Z</time>
      </trkpt>
      <trkpt lat="41.72753" lon="20.83844">
        <ele>1041.618688</ele>
        <time>2022-04-25T10:09:23.889Z</time>
      </trkpt>
      <trkpt lat="41.72746" lon="20.83835">
        <ele>1042.440185</ele>
        <time>2022-04-25T10:09:31.897Z</time>
      </trkpt>
      <trkpt lat="41.72742" lon="20.83823">
        <ele>1043.275204</ele>
        <time>2022-04-25T10:09:39.928Z</time>
      </trkpt>
      <trkpt lat="41.72738" lon="20.83811">
        <ele>1044.053605</ele>
        <time>2022-04-25T10:09:47.872Z</time>
      </trkpt>
      <trkpt lat="41.72733" lon="20.838">
        <ele>1044.382632</ele>
        <time>2022-04-25T10:09:54.892Z</time>
      </trkpt>
      <trkpt lat="41.72728" lon="20.83789">
        <ele>1044.716146</ele>
        <time>2022-04-25T10:10:01.873Z</time>
      </trkpt>
      <trkpt lat="41.72724" lon="20.83777">
        <ele>1045.054105</ele>
        <time>2022-04-25T10:10:09.883Z</time>
      </trkpt>
      <trkpt lat="41.72722" lon="20.83764">
        <ele>1045.398898</ele>
        <time>2022-04-25T10:10:17.876Z</time>
      </trkpt>
      <trkpt lat="41.72719" lon="20.83752">
        <ele>1045.721154</ele>
        <time>2022-04-25T10:10:24.886Z</time>
      </trkpt>
      <trkpt lat="41.72719" lon="20.83738">
        <ele>1046.086967</ele>
        <time>2022-04-25T10:10:32.929Z</time>
      </trkpt>
      <trkpt lat="41.72721" lon="20.83726">
        <ele>1046.423973</ele>
        <time>2022-04-25T10:10:39.894Z</time>
      </trkpt>
      <trkpt lat="41.72727" lon="20.83716">
        <ele>1046.769674</ele>
        <time>2022-04-25T10:10:47.882Z</time>
      </trkpt>
      <trkpt lat="41.72734" lon="20.83708">
        <ele>1047.088899</ele>
        <time>2022-04-25T10:10:54.912Z</time>
      </trkpt>
      <trkpt lat="41.72741" lon="20.83698">
        <ele>1047.422095</ele>
        <time>2022-04-25T10:11:01.925Z</time>
      </trkpt>
      <trkpt lat="41.72749" lon="20.83691">
        <ele>1047.768233</ele>
        <time>2022-04-25T10:11:10.909Z</time>
      </trkpt>
      <trkpt lat="41.72758" lon="20.83684">
        <ele>1048.112977</ele>
        <time>2022-04-25T10:11:19.917Z</time>
      </trkpt>
      <trkpt lat="41.72767" lon="20.8368">
        <ele>1048.448149</ele>
        <time>2022-04-25T10:11:25.922Z</time>
      </trkpt>
      <trkpt lat="41.72776" lon="20.83676">
        <ele>1048.807272</ele>
        <time>2022-04-25T10:11:32.894Z</time>
      </trkpt>
      <trkpt lat="41.72786" lon="20.83675">
        <ele>1049.139724</ele>
        <time>2022-04-25T10:11:40.939Z</time>
      </trkpt>
      <trkpt lat="41.72794" lon="20.83669">
        <ele>1049.489494</ele>
        <time>2022-04-25T10:11:48.902Z</time>
      </trkpt>
      <trkpt lat="41.72803" lon="20.83663">
        <ele>1049.815443</ele>
        <time>2022-04-25T10:11:55.900Z</time>
      </trkpt>
      <trkpt lat="41.72811" lon="20.83657">
        <ele>1050.146136</ele>
        <time>2022-04-25T10:12:03.913Z</time>
      </trkpt>
      <trkpt lat="41.72818" lon="20.83648">
        <ele>1050.798858</ele>
        <time>2022-04-25T10:12:12.870Z</time>
      </trkpt>
      <trkpt lat="41.72823" lon="20.83638">
        <ele>1051.731406</ele>
        <time>2022-04-25T10:12:22.880Z</time>
      </trkpt>
      <trkpt lat="41.72828" lon="20.83627">
        <ele>1052.671447</ele>
        <time>2022-04-25T10:12:30.894Z</time>
      </trkpt>
      <trkpt lat="41.72831" lon="20.83616">
        <ele>1053.580019</ele>
        <time>2022-04-25T10:12:38.913Z</time>
      </trkpt>
      <trkpt lat="41.72834" lon="20.83604">
        <ele>1054.548375</ele>
        <time>2022-04-25T10:12:46.890Z</time>
      </trkpt>
      <trkpt lat="41.72836" lon="20.83592">
        <ele>1055.478746</ele>
        <time>2022-04-25T10:12:54.900Z</time>
      </trkpt>
      <trkpt lat="41.72836" lon="20.83578">
        <ele>1056.493451</ele>
        <time>2022-04-25T10:13:03.876Z</time>
      </trkpt>
      <trkpt lat="41.72838" lon="20.83565">
        <ele>1057.484638</ele>
        <time>2022-04-25T10:13:11.892Z</time>
      </trkpt>
      <trkpt lat="41.72837" lon="20.83552">
        <ele>1058.496656</ele>
        <time>2022-04-25T10:13:20.886Z</time>
      </trkpt>
      <trkpt lat="41.72836" lon="20.83539">
        <ele>1059.46695</ele>
        <time>2022-04-25T10:13:27.881Z</time>
      </trkpt>
      <trkpt lat="41.72834" lon="20.83527">
        <ele>1060.394585</ele>
        <time>2022-04-25T10:13:36.938Z</time>
      </trkpt>
      <trkpt lat="41.72831" lon="20.83516">
        <ele>1061.293782</ele>
        <time>2022-04-25T10:13:44.889Z</time>
      </trkpt>
      <trkpt lat="41.72827" lon="20.83504">
        <ele>1062.266717</ele>
        <time>2022-04-25T10:13:52.930Z</time>
      </trkpt>
      <trkpt lat="41.72823" lon="20.83492">
        <ele>1063.227864</ele>
        <time>2022-04-25T10:14:00.894Z</time>
      </trkpt>
      <trkpt lat="41.72818" lon="20.83482">
        <ele>1064.152234</ele>
        <time>2022-04-25T10:14:08.878Z</time>
      </trkpt>
      <trkpt lat="41.72815" lon="20.8347">
        <ele>1065.070142</ele>
        <time>2022-04-25T10:14:15.900Z</time>
      </trkpt>
      <trkpt lat="41.72809" lon="20.8346">
        <ele>1066.083597</ele>
        <time>2022-04-25T10:14:23.897Z</time>
      </trkpt>
      <trkpt lat="41.72803" lon="20.83449">
        <ele>1067.094405</ele>
        <time>2022-04-25T10:14:31.931Z</time>
      </trkpt>
      <trkpt lat="41.72795" lon="20.83442">
        <ele>1068.014314</ele>
        <time>2022-04-25T10:14:39.880Z</time>
      </trkpt>
      <trkpt lat="41.72788" lon="20.83435">
        <ele>1068.64474</ele>
        <time>2022-04-25T10:14:48.886Z</time>
      </trkpt>
      <trkpt lat="41.72778" lon="20.83429">
        <ele>1069.116244</ele>
        <time>2022-04-25T10:14:56.890Z</time>
      </trkpt>
      <trkpt lat="41.72771" lon="20.83422">
        <ele>1069.557883</ele>
        <time>2022-04-25T10:15:03.894Z</time>
      </trkpt>
      <trkpt lat="41.72764" lon="20.83413">
        <ele>1069.996869</ele>
        <time>2022-04-25T10:15:11.897Z</time>
      </trkpt>
      <trkpt lat="41.72757" lon="20.83403">
        <ele>1070.477083</ele>
        <time>2022-04-25T10:15:21.903Z</time>
      </trkpt>
      <trkpt lat="41.7275" lon="20.83395">
        <ele>1070.905415</ele>
        <time>2022-04-25T10:15:28.899Z</time>
      </trkpt>
      <trkpt lat="41.72742" lon="20.83389">
        <ele>1071.330307</ele>
        <time>2022-04-25T10:15:35.893Z</time>
      </trkpt>
      <trkpt lat="41.72735" lon="20.83381">
        <ele>1071.766563</ele>
        <time>2022-04-25T10:15:43.939Z</time>
      </trkpt>
      <trkpt lat="41.72728" lon="20.83373">
        <ele>1072.223936</ele>
        <time>2022-04-25T10:15:52.892Z</time>
      </trkpt>
      <trkpt lat="41.72719" lon="20.83367">
        <ele>1072.687524</ele>
        <time>2022-04-25T10:15:59.877Z</time>
      </trkpt>
      <trkpt lat="41.7271" lon="20.83361">
        <ele>1073.123918</ele>
        <time>2022-04-25T10:16:06.885Z</time>
      </trkpt>
      <trkpt lat="41.72704" lon="20.83351">
        <ele>1073.591859</ele>
        <time>2022-04-25T10:16:14.898Z</time>
      </trkpt>
      <trkpt lat="41.72698" lon="20.83342">
        <ele>1074.018097</ele>
        <time>2022-04-25T10:16:21.896Z</time>
      </trkpt>
      <trkpt lat="41.72692" lon="20.83332">
        <ele>1074.452687</ele>
        <time>2022-04-25T10:16:29.905Z</time>
      </trkpt>
      <trkpt lat="41.72684" lon="20.83324">
        <ele>1074.897097</ele>
        <time>2022-04-25T10:16:38.935Z</time>
      </trkpt>
      <trkpt lat="41.72678" lon="20.83314">
        <ele>1075.358633</ele>
        <time>2022-04-25T10:16:46.882Z</time>
      </trkpt>
      <trkpt lat="41.72673" lon="20.83303">
        <ele>1075.806811</ele>
        <time>2022-04-25T10:16:54.894Z</time>
      </trkpt>
      <trkpt lat="41.72669" lon="20.83291">
        <ele>1076.266445</ele>
        <time>2022-04-25T10:17:01.875Z</time>
      </trkpt>
      <trkpt lat="41.72665" lon="20.8328">
        <ele>1076.700555</ele>
        <time>2022-04-25T10:17:09.899Z</time>
      </trkpt>
      <trkpt lat="41.7266" lon="20.83268">
        <ele>1077.131113</ele>
        <time>2022-04-25T10:17:18.889Z</time>
      </trkpt>
      <trkpt lat="41.72655" lon="20.83258">
        <ele>1077.515518</ele>
        <time>2022-04-25T10:17:25.893Z</time>
      </trkpt>
      <trkpt lat="41.72651" lon="20.83245">
        <ele>1077.934427</ele>
        <time>2022-04-25T10:17:33.932Z</time>
      </trkpt>
      <trkpt lat="41.7265" lon="20.83233">
        <ele>1078.328195</ele>
        <time>2022-04-25T10:17:41.898Z</time>
      </trkpt>
      <trkpt lat="41.72647" lon="20.83221">
        <ele>1078.707672</ele>
        <time>2022-04-25T10:17:49.913Z</time>
      </trkpt>
      <trkpt lat="41.72644" lon="20.8321">
        <ele>1079.090948</ele>
        <time>2022-04-25T10:17:57.883Z</time>
      </trkpt>
      <trkpt lat="41.72642" lon="20.83198">
        <ele>1079.467134</ele>
        <time>2022-04-25T10:18:05.895Z</time>
      </trkpt>
      <trkpt lat="41.72641" lon="20.83185">
        <ele>1079.862987</ele>
        <time>2022-04-25T10:18:14.918Z</time>
      </trkpt>
      <trkpt lat="41.7264" lon="20.83173">
        <ele>1080.251585</ele>
        <time>2022-04-25T10:18:22.903Z</time>
      </trkpt>
      <trkpt lat="41.7264" lon="20.8316">
        <ele>1080.639056</ele>
        <time>2022-04-25T10:18:31.891Z</time>
      </trkpt>
      <trkpt lat="41.72636" lon="20.83148">
        <ele>1081.034687</ele>
        <time>2022-04-25T10:18:39.891Z</time>
      </trkpt>
      <trkpt lat="41.72633" lon="20.83137">
        <ele>1081.407335</ele>
        <time>2022-04-25T10:18:46.882Z</time>
      </trkpt>
      <trkpt lat="41.72634" lon="20.83124">
        <ele>1081.809943</ele>
        <time>2022-04-25T10:18:54.901Z</time>
      </trkpt>
      <trkpt lat="41.72634" lon="20.83111">
        <ele>1082.211869</ele>
        <time>2022-04-25T10:19:03.900Z</time>
      </trkpt>
      <trkpt lat="41.72635" lon="20.83097">
        <ele>1082.623733</ele>
        <time>2022-04-25T10:19:11.924Z</time>
      </trkpt>
      <trkpt lat="41.72633" lon="20.83085">
        <ele>1083.028651</ele>
        <time>2022-04-25T10:19:19.904Z</time>
      </trkpt>
      <trkpt lat="41.72634" lon="20.83072">
        <ele>1083.413896</ele>
        <time>2022-04-25T10:19:28.891Z</time>
      </trkpt>
      <trkpt lat="41.72635" lon="20.83059">
        <ele>1083.828287</ele>
        <time>2022-04-25T10:19:36.889Z</time>
      </trkpt>
      <trkpt lat="41.72637" lon="20.83047">
        <ele>1084.207472</ele>
        <time>2022-04-25T10:19:44.888Z</time>
      </trkpt>
      <trkpt lat="41.72638" lon="20.83035">
        <ele>1084.874197</ele>
        <time>2022-04-25T10:19:52.913Z</time>
      </trkpt>
      <trkpt lat="41.7264" lon="20.83023">
        <ele>1085.589259</ele>
        <time>2022-04-25T10:20:00.913Z</time>
      </trkpt>
      <trkpt lat="41.72641" lon="20.83011">
        <ele>1086.327149</ele>
        <time>2022-04-25T10:20:07.884Z</time>
      </trkpt>
      <trkpt lat="41.72645" lon="20.82999">
        <ele>1087.065213</ele>
        <time>2022-04-25T10:20:16.931Z</time>
      </trkpt>
      <trkpt lat="41.72652" lon="20.8299">
        <ele>1087.811301</ele>
        <time>2022-04-25T10:20:24.901Z</time>
      </trkpt>
      <trkpt lat="41.7266" lon="20.82983">
        <ele>1088.585787</ele>
        <time>2022-04-25T10:20:31.889Z</time>
      </trkpt>
      <trkpt lat="41.72666" lon="20.82972">
        <ele>1089.331319</ele>
        <time>2022-04-25T10:20:39.920Z</time>
      </trkpt>
      <trkpt lat="41.7267" lon="20.8296">
        <ele>1090.087023</ele>
        <time>2022-04-25T10:20:47.885Z</time>
      </trkpt>
      <trkpt lat="41.72676" lon="20.8295">
        <ele>1090.87902</ele>
        <time>2022-04-25T10:20:56.899Z</time>
      </trkpt>
      <trkpt lat="41.72683" lon="20.82941">
        <ele>1091.613286</ele>
        <time>2022-04-25T10:21:04.897Z</time>
      </trkpt>
      <trkpt lat="41.72689" lon="20.82932">
        <ele>1092.351121</ele>
        <time>2022-04-25T10:21:12.883Z</time>
      </trkpt>
      <trkpt lat="41.72695" lon="20.82923">
        <ele>1093.077925</ele>
        <time>2022-04-25T10:21:21.878Z</time>
      </trkpt>
      <trkpt lat="41.72703" lon="20.82915">
        <ele>1093.825275</ele>
        <time>2022-04-25T10:21:31.890Z</time>
      </trkpt>
      <trkpt lat="41.72711" lon="20.82907">
        <ele>1094.616031</ele>
        <time>2022-04-25T10:21:39.883Z</time>
      </trkpt>
      <trkpt lat="41.72717" lon="20.82898">
        <ele>1095.320792</ele>
        <time>2022-04-25T10:21:49.908Z</time>
      </trkpt>
      <trkpt lat="41.72723" lon="20.82888">
        <ele>1096.056635</ele>
        <time>2022-04-25T10:21:58.885Z</time>
      </trkpt>
      <trkpt lat="41.72727" lon="20.82876">
        <ele>1096.847455</ele>
        <time>2022-04-25T10:22:06.921Z</time>
      </trkpt>
      <trkpt lat="41.72732" lon="20.82866">
        <ele>1097.551755</ele>
        <time>2022-04-25T10:22:14.886Z</time>
      </trkpt>
      <trkpt lat="41.72734" lon="20.82854">
        <ele>1098.26888</ele>
        <time>2022-04-25T10:22:23.871Z</time>
      </trkpt>
      <trkpt lat="41.72736" lon="20.82842">
        <ele>1099.129972</ele>
        <time>2022-04-25T10:22:32.930Z</time>
      </trkpt>
      <trkpt lat="41.72737" lon="20.82829">
        <ele>1100.007163</ele>
        <time>2022-04-25T10:22:41.901Z</time>
      </trkpt>
      <trkpt lat="41.72737" lon="20.82816">
        <ele>1100.918112</ele>
        <time>2022-04-25T10:22:51.882Z</time>
      </trkpt>
      <trkpt lat="41.72736" lon="20.82802">
        <ele>1101.85336</ele>
        <time>2022-04-25T10:22:59.889Z</time>
      </trkpt>
      <trkpt lat="41.72734" lon="20.82789">
        <ele>1102.752282</ele>
        <time>2022-04-25T10:23:07.892Z</time>
      </trkpt>
      <trkpt lat="41.72732" lon="20.82777">
        <ele>1103.609114</ele>
        <time>2022-04-25T10:23:15.881Z</time>
      </trkpt>
      <trkpt lat="41.72727" lon="20.82766">
        <ele>1104.478893</ele>
        <time>2022-04-25T10:23:22.910Z</time>
      </trkpt>
      <trkpt lat="41.72722" lon="20.82756">
        <ele>1105.329926</ele>
        <time>2022-04-25T10:23:30.899Z</time>
      </trkpt>
      <trkpt lat="41.72715" lon="20.82747">
        <ele>1106.194068</ele>
        <time>2022-04-25T10:23:38.886Z</time>
      </trkpt>
      <trkpt lat="41.72707" lon="20.8274">
        <ele>1107.07046</ele>
        <time>2022-04-25T10:23:45.892Z</time>
      </trkpt>
      <trkpt lat="41.72699" lon="20.82732">
        <ele>1107.96394</ele>
        <time>2022-04-25T10:23:55.885Z</time>
      </trkpt>
      <trkpt lat="41.72692" lon="20.82724">
        <ele>1108.840157</ele>
        <time>2022-04-25T10:24:05.905Z</time>
      </trkpt>
      <trkpt lat="41.72684" lon="20.82717">
        <ele>1109.693673</ele>
        <time>2022-04-25T10:24:13.882Z</time>
      </trkpt>
      <trkpt lat="41.72676" lon="20.82709">
        <ele>1110.577566</ele>
        <time>2022-04-25T10:24:22.894Z</time>
      </trkpt>
      <trkpt lat="41.72669" lon="20.82701">
        <ele>1111.448168</ele>
        <time>2022-04-25T10:24:30.889Z</time>
      </trkpt>
      <trkpt lat="41.72662" lon="20.82692">
        <ele>1112.331421</ele>
        <time>2022-04-25T10:24:39.892Z</time>
      </trkpt>
      <trkpt lat="41.72655" lon="20.82682">
        <ele>1113.243556</ele>
        <time>2022-04-25T10:24:47.943Z</time>
      </trkpt>
      <trkpt lat="41.72649" lon="20.82674">
        <ele>1114.084466</ele>
        <time>2022-04-25T10:24:55.914Z</time>
      </trkpt>
      <trkpt lat="41.72643" lon="20.82664">
        <ele>1114.906781</ele>
        <time>2022-04-25T10:25:03.899Z</time>
      </trkpt>
      <trkpt lat="41.72636" lon="20.82655">
        <ele>1115.565514</ele>
        <time>2022-04-25T10:25:12.890Z</time>
      </trkpt>
      <trkpt lat="41.7263" lon="20.82646">
        <ele>1116.202404</ele>
        <time>2022-04-25T10:25:20.888Z</time>
      </trkpt>
      <trkpt lat="41.72625" lon="20.82636">
        <ele>1116.842912</ele>
        <time>2022-04-25T10:25:27.905Z</time>
      </trkpt>
      <trkpt lat="41.72624" lon="20.82624">
        <ele>1117.477704</ele>
        <time>2022-04-25T10:25:34.888Z</time>
      </trkpt>
      <trkpt lat="41.72622" lon="20.82612">
        <ele>1118.10482</ele>
        <time>2022-04-25T10:25:43.889Z</time>
      </trkpt>
      <trkpt lat="41.7262" lon="20.82599">
        <ele>1118.766648</ele>
        <time>2022-04-25T10:25:53.901Z</time>
      </trkpt>
      <trkpt lat="41.72621" lon="20.82587">
        <ele>1119.406826</ele>
        <time>2022-04-25T10:26:02.918Z</time>
      </trkpt>
      <trkpt lat="41.72622" lon="20.82574">
        <ele>1120.077321</ele>
        <time>2022-04-25T10:26:10.902Z</time>
      </trkpt>
      <trkpt lat="41.72623" lon="20.82561">
        <ele>1120.746418</ele>
        <time>2022-04-25T10:26:19.931Z</time>
      </trkpt>
      <trkpt lat="41.72625" lon="20.82548">
        <ele>1121.430429</ele>
        <time>2022-04-25T10:26:28.887Z</time>
      </trkpt>
      <trkpt lat="41.72627" lon="20.82536">
        <ele>1122.071381</ele>
        <time>2022-04-25T10:26:37.918Z</time>
      </trkpt>
      <trkpt lat="41.72627" lon="20.82523">
        <ele>1122.741626</ele>
        <time>2022-04-25T10:26:45.881Z</time>
      </trkpt>
      <trkpt lat="41.72629" lon="20.8251">
        <ele>1123.411962</ele>
        <time>2022-04-25T10:26:53.887Z</time>
      </trkpt>
      <trkpt lat="41.72634" lon="20.82499">
        <ele>1124.078618</ele>
        <time>2022-04-25T10:27:00.893Z</time>
      </trkpt>
      <trkpt lat="41.72638" lon="20.82487">
        <ele>1124.781355</ele>
        <time>2022-04-25T10:27:08.880Z</time>
      </trkpt>
      <trkpt lat="41.72639" lon="20.82473">
        <ele>1125.475336</ele>
        <time>2022-04-25T10:27:17.910Z</time>
      </trkpt>
      <trkpt lat="41.72642" lon="20.8246">
        <ele>1126.179485</ele>
        <time>2022-04-25T10:27:28.886Z</time>
      </trkpt>
      <trkpt lat="41.72646" lon="20.82447">
        <ele>1126.88984</ele>
        <time>2022-04-25T10:27:35.887Z</time>
      </trkpt>
      <trkpt lat="41.72651" lon="20.82437">
        <ele>1127.56138</ele>
        <time>2022-04-25T10:27:43.899Z</time>
      </trkpt>
      <trkpt lat="41.72657" lon="20.82427">
        <ele>1128.226857</ele>
        <time>2022-04-25T10:27:51.888Z</time>
      </trkpt>
      <trkpt lat="41.72662" lon="20.82416">
        <ele>1128.907975</ele>
        <time>2022-04-25T10:28:00.903Z</time>
      </trkpt>
      <trkpt lat="41.72667" lon="20.82405">
        <ele>1129.541356</ele>
        <time>2022-04-25T10:28:07.874Z</time>
      </trkpt>
      <trkpt lat="41.72669" lon="20.82392">
        <ele>1130.246646</ele>
        <time>2022-04-25T10:28:16.878Z</time>
      </trkpt>
      <trkpt lat="41.72671" lon="20.82381">
        <ele>1130.882083</ele>
        <time>2022-04-25T10:28:24.884Z</time>
      </trkpt>
      <trkpt lat="41.72673" lon="20.82369">
        <ele>1131.514116</ele>
        <time>2022-04-25T10:28:32.879Z</time>
      </trkpt>
      <trkpt lat="41.72672" lon="20.82355">
        <ele>1132.206786</ele>
        <time>2022-04-25T10:28:41.922Z</time>
      </trkpt>
      <trkpt lat="41.72672" lon="20.82342">
        <ele>1132.889725</ele>
        <time>2022-04-25T10:28:50.890Z</time>
      </trkpt>
      <trkpt lat="41.72672" lon="20.8233">
        <ele>1133.525164</ele>
        <time>2022-04-25T10:28:58.884Z</time>
      </trkpt>
      <trkpt lat="41.72674" lon="20.82318">
        <ele>1134.195713</ele>
        <time>2022-04-25T10:29:07.886Z</time>
      </trkpt>
      <trkpt lat="41.72673" lon="20.82305">
        <ele>1134.891124</ele>
        <time>2022-04-25T10:29:17.903Z</time>
      </trkpt>
      <trkpt lat="41.72668" lon="20.82286">
        <ele>1135.920888</ele>
        <time>2022-04-25T10:56:01.903Z</time>
      </trkpt>
      <trkpt lat="41.72662" lon="20.82275">
        <ele>1136.624851</ele>
        <time>2022-04-25T10:56:11.896Z</time>
      </trkpt>
      <trkpt lat="41.72657" lon="20.82264">
        <ele>1137.323863</ele>
        <time>2022-04-25T10:56:19.886Z</time>
      </trkpt>
      <trkpt lat="41.72653" lon="20.82253">
        <ele>1137.967443</ele>
        <time>2022-04-25T10:56:28.872Z</time>
      </trkpt>
      <trkpt lat="41.72647" lon="20.82242">
        <ele>1138.632479</ele>
        <time>2022-04-25T10:56:35.880Z</time>
      </trkpt>
      <trkpt lat="41.72642" lon="20.82233">
        <ele>1139.284927</ele>
        <time>2022-04-25T10:56:43.880Z</time>
      </trkpt>
      <trkpt lat="41.72634" lon="20.82223">
        <ele>1140.031636</ele>
        <time>2022-04-25T10:56:52.869Z</time>
      </trkpt>
      <trkpt lat="41.72628" lon="20.82214">
        <ele>1140.889601</ele>
        <time>2022-04-25T10:56:59.890Z</time>
      </trkpt>
      <trkpt lat="41.72621" lon="20.82206">
        <ele>1141.780999</ele>
        <time>2022-04-25T10:57:06.885Z</time>
      </trkpt>
      <trkpt lat="41.72615" lon="20.82197">
        <ele>1142.636715</ele>
        <time>2022-04-25T10:57:13.876Z</time>
      </trkpt>
      <trkpt lat="41.72611" lon="20.82185">
        <ele>1143.56551</ele>
        <time>2022-04-25T10:57:21.883Z</time>
      </trkpt>
      <trkpt lat="41.72607" lon="20.82174">
        <ele>1144.418589</ele>
        <time>2022-04-25T10:57:28.890Z</time>
      </trkpt>
      <trkpt lat="41.72605" lon="20.82161">
        <ele>1145.295638</ele>
        <time>2022-04-25T10:57:37.877Z</time>
      </trkpt>
      <trkpt lat="41.72605" lon="20.82149">
        <ele>1146.144545</ele>
        <time>2022-04-25T10:57:46.870Z</time>
      </trkpt>
      <trkpt lat="41.72606" lon="20.82136">
        <ele>1147.082875</ele>
        <time>2022-04-25T10:57:55.885Z</time>
      </trkpt>
      <trkpt lat="41.7261" lon="20.82123">
        <ele>1148.064048</ele>
        <time>2022-04-25T10:58:04.880Z</time>
      </trkpt>
      <trkpt lat="41.72613" lon="20.82111">
        <ele>1148.983132</ele>
        <time>2022-04-25T10:58:12.887Z</time>
      </trkpt>
      <trkpt lat="41.72617" lon="20.82099">
        <ele>1149.887149</ele>
        <time>2022-04-25T10:58:19.885Z</time>
      </trkpt>
      <trkpt lat="41.72622" lon="20.82088">
        <ele>1150.776498</ele>
        <time>2022-04-25T10:58:27.898Z</time>
      </trkpt>
      <trkpt lat="41.72628" lon="20.82078">
        <ele>1151.629959</ele>
        <time>2022-04-25T10:58:34.948Z</time>
      </trkpt>
      <trkpt lat="41.72633" lon="20.82068">
        <ele>1152.50836</ele>
        <time>2022-04-25T10:58:42.891Z</time>
      </trkpt>
      <trkpt lat="41.72637" lon="20.82056">
        <ele>1153.449754</ele>
        <time>2022-04-25T10:58:50.902Z</time>
      </trkpt>
      <trkpt lat="41.7264" lon="20.82044">
        <ele>1154.321018</ele>
        <time>2022-04-25T10:58:58.874Z</time>
      </trkpt>
      <trkpt lat="41.72645" lon="20.82033">
        <ele>1155.244083</ele>
        <time>2022-04-25T10:59:07.878Z</time>
      </trkpt>
      <trkpt lat="41.7265" lon="20.82021">
        <ele>1156.176385</ele>
        <time>2022-04-25T10:59:16.883Z</time>
      </trkpt>
      <trkpt lat="41.72656" lon="20.82011">
        <ele>1156.960361</ele>
        <time>2022-04-25T10:59:24.932Z</time>
      </trkpt>
      <trkpt lat="41.72662" lon="20.82002">
        <ele>1157.497976</ele>
        <time>2022-04-25T10:59:31.889Z</time>
      </trkpt>
      <trkpt lat="41.72666" lon="20.8199">
        <ele>1158.076398</ele>
        <time>2022-04-25T10:59:39.889Z</time>
      </trkpt>
      <trkpt lat="41.72672" lon="20.81979">
        <ele>1158.679868</ele>
        <time>2022-04-25T10:59:48.884Z</time>
      </trkpt>
      <trkpt lat="41.72677" lon="20.81969">
        <ele>1159.230113</ele>
        <time>2022-04-25T10:59:55.897Z</time>
      </trkpt>
      <trkpt lat="41.72684" lon="20.81959">
        <ele>1159.827187</ele>
        <time>2022-04-25T11:00:03.888Z</time>
      </trkpt>
      <trkpt lat="41.72689" lon="20.81949">
        <ele>1160.377188</ele>
        <time>2022-04-25T11:00:10.890Z</time>
      </trkpt>
      <trkpt lat="41.72694" lon="20.81939">
        <ele>1160.914662</ele>
        <time>2022-04-25T11:00:19.886Z</time>
      </trkpt>
      <trkpt lat="41.72697" lon="20.81927">
        <ele>1161.463545</ele>
        <time>2022-04-25T11:00:27.889Z</time>
      </trkpt>
      <trkpt lat="41.72701" lon="20.81916">
        <ele>1162.006805</ele>
        <time>2022-04-25T11:00:35.890Z</time>
      </trkpt>
      <trkpt lat="41.72704" lon="20.81904">
        <ele>1162.587102</ele>
        <time>2022-04-25T11:00:43.887Z</time>
      </trkpt>
      <trkpt lat="41.72706" lon="20.81891">
        <ele>1163.173779</ele>
        <time>2022-04-25T11:00:51.893Z</time>
      </trkpt>
      <trkpt lat="41.72708" lon="20.81878">
        <ele>1163.763328</ele>
        <time>2022-04-25T11:00:59.878Z</time>
      </trkpt>
      <trkpt lat="41.7271" lon="20.81866">
        <ele>1164.319787</ele>
        <time>2022-04-25T11:01:07.889Z</time>
      </trkpt>
      <trkpt lat="41.72713" lon="20.81854">
        <ele>1164.894437</ele>
        <time>2022-04-25T11:01:16.877Z</time>
      </trkpt>
      <trkpt lat="41.72715" lon="20.8184">
        <ele>1165.49681</ele>
        <time>2022-04-25T11:01:24.882Z</time>
      </trkpt>
      <trkpt lat="41.72718" lon="20.81828">
        <ele>1166.055168</ele>
        <time>2022-04-25T11:01:31.887Z</time>
      </trkpt>
      <trkpt lat="41.7272" lon="20.81816">
        <ele>1166.627832</ele>
        <time>2022-04-25T11:01:39.897Z</time>
      </trkpt>
      <trkpt lat="41.72723" lon="20.81804">
        <ele>1167.216418</ele>
        <time>2022-04-25T11:01:46.915Z</time>
      </trkpt>
      <trkpt lat="41.72725" lon="20.81791">
        <ele>1167.808786</ele>
        <time>2022-04-25T11:01:53.886Z</time>
      </trkpt>
      <trkpt lat="41.72725" lon="20.81778">
        <ele>1168.389936</ele>
        <time>2022-04-25T11:02:02.881Z</time>
      </trkpt>
      <trkpt lat="41.72725" lon="20.81766">
        <ele>1168.961214</ele>
        <time>2022-04-25T11:02:10.916Z</time>
      </trkpt>
      <trkpt lat="41.72725" lon="20.81754">
        <ele>1169.551319</ele>
        <time>2022-04-25T11:02:18.892Z</time>
      </trkpt>
      <trkpt lat="41.72726" lon="20.8174">
        <ele>1170.176087</ele>
        <time>2022-04-25T11:02:27.895Z</time>
      </trkpt>
      <trkpt lat="41.72727" lon="20.81727">
        <ele>1170.780135</ele>
        <time>2022-04-25T11:02:35.898Z</time>
      </trkpt>
      <trkpt lat="41.72727" lon="20.81715">
        <ele>1171.346695</ele>
        <time>2022-04-25T11:02:42.884Z</time>
      </trkpt>
      <trkpt lat="41.72728" lon="20.81703">
        <ele>1171.930683</ele>
        <time>2022-04-25T11:02:49.880Z</time>
      </trkpt>
      <trkpt lat="41.72726" lon="20.81691">
        <ele>1172.527471</ele>
        <time>2022-04-25T11:02:57.872Z</time>
      </trkpt>
      <trkpt lat="41.72725" lon="20.81678">
        <ele>1173.132332</ele>
        <time>2022-04-25T11:03:06.875Z</time>
      </trkpt>
      <trkpt lat="41.72725" lon="20.81666">
        <ele>1173.703575</ele>
        <time>2022-04-25T11:03:15.872Z</time>
      </trkpt>
      <trkpt lat="41.72725" lon="20.81653">
        <ele>1174.272355</ele>
        <time>2022-04-25T11:03:24.883Z</time>
      </trkpt>
      <trkpt lat="41.72727" lon="20.81641">
        <ele>1174.862678</ele>
        <time>2022-04-25T11:03:32.892Z</time>
      </trkpt>
      <trkpt lat="41.72727" lon="20.81629">
        <ele>1175.448808</ele>
        <time>2022-04-25T11:03:40.889Z</time>
      </trkpt>
      <trkpt lat="41.72727" lon="20.81615">
        <ele>1176.076364</ele>
        <time>2022-04-25T11:03:47.871Z</time>
      </trkpt>
      <trkpt lat="41.72726" lon="20.81603">
        <ele>1176.655697</ele>
        <time>2022-04-25T11:03:54.881Z</time>
      </trkpt>
      <trkpt lat="41.72724" lon="20.81589">
        <ele>1177.294777</ele>
        <time>2022-04-25T11:04:03.892Z</time>
      </trkpt>
      <trkpt lat="41.7272" lon="20.81577">
        <ele>1177.934098</ele>
        <time>2022-04-25T11:04:10.883Z</time>
      </trkpt>
      <trkpt lat="41.72717" lon="20.81564">
        <ele>1178.573117</ele>
        <time>2022-04-25T11:04:18.884Z</time>
      </trkpt>
      <trkpt lat="41.72715" lon="20.81552">
        <ele>1178.907191</ele>
        <time>2022-04-25T11:04:25.886Z</time>
      </trkpt>
      <trkpt lat="41.72714" lon="20.81539">
        <ele>1179.093392</ele>
        <time>2022-04-25T11:04:34.930Z</time>
      </trkpt>
      <trkpt lat="41.72715" lon="20.81526">
        <ele>1179.264881</ele>
        <time>2022-04-25T11:04:42.873Z</time>
      </trkpt>
      <trkpt lat="41.72718" lon="20.81515">
        <ele>1179.445589</ele>
        <time>2022-04-25T11:04:50.891Z</time>
      </trkpt>
      <trkpt lat="41.7272" lon="20.81503">
        <ele>1179.617759</ele>
        <time>2022-04-25T11:04:57.879Z</time>
      </trkpt>
      <trkpt lat="41.72724" lon="20.8149">
        <ele>1179.80537</ele>
        <time>2022-04-25T11:05:04.889Z</time>
      </trkpt>
      <trkpt lat="41.72729" lon="20.81479">
        <ele>1179.982143</ele>
        <time>2022-04-25T11:05:12.894Z</time>
      </trkpt>
      <trkpt lat="41.72735" lon="20.8147">
        <ele>1180.156279</ele>
        <time>2022-04-25T11:05:19.927Z</time>
      </trkpt>
      <trkpt lat="41.72742" lon="20.8146">
        <ele>1180.348535</ele>
        <time>2022-04-25T11:05:27.896Z</time>
      </trkpt>
      <trkpt lat="41.72747" lon="20.8145">
        <ele>1180.520276</ele>
        <time>2022-04-25T11:05:34.886Z</time>
      </trkpt>
      <trkpt lat="41.72753" lon="20.8144">
        <ele>1180.696511</ele>
        <time>2022-04-25T11:05:41.859Z</time>
      </trkpt>
      <trkpt lat="41.7276" lon="20.81432">
        <ele>1180.875236</ele>
        <time>2022-04-25T11:05:49.884Z</time>
      </trkpt>
      <trkpt lat="41.72766" lon="20.81422">
        <ele>1181.046315</ele>
        <time>2022-04-25T11:05:57.885Z</time>
      </trkpt>
      <trkpt lat="41.72773" lon="20.81414">
        <ele>1181.219044</ele>
        <time>2022-04-25T11:06:04.887Z</time>
      </trkpt>
      <trkpt lat="41.72779" lon="20.81406">
        <ele>1181.38887</ele>
        <time>2022-04-25T11:06:11.871Z</time>
      </trkpt>
      <trkpt lat="41.72788" lon="20.81398">
        <ele>1181.576698</ele>
        <time>2022-04-25T11:06:19.891Z</time>
      </trkpt>
      <trkpt lat="41.72796" lon="20.81391">
        <ele>1181.767821</ele>
        <time>2022-04-25T11:06:26.936Z</time>
      </trkpt>
      <trkpt lat="41.72804" lon="20.81381">
        <ele>1181.960379</ele>
        <time>2022-04-25T11:06:34.892Z</time>
      </trkpt>
      <trkpt lat="41.72809" lon="20.81371">
        <ele>1182.133459</ele>
        <time>2022-04-25T11:06:41.869Z</time>
      </trkpt>
      <trkpt lat="41.7281" lon="20.81359">
        <ele>1182.644473</ele>
        <time>2022-04-25T11:06:48.916Z</time>
      </trkpt>
      <trkpt lat="41.72812" lon="20.81347">
        <ele>1183.261665</ele>
        <time>2022-04-25T11:06:55.873Z</time>
      </trkpt>
      <trkpt lat="41.72815" lon="20.81334">
        <ele>1183.945169</ele>
        <time>2022-04-25T11:07:03.903Z</time>
      </trkpt>
      <trkpt lat="41.72819" lon="20.81323">
        <ele>1184.604684</ele>
        <time>2022-04-25T11:07:11.895Z</time>
      </trkpt>
      <trkpt lat="41.72823" lon="20.8131">
        <ele>1185.307808</ele>
        <time>2022-04-25T11:07:19.874Z</time>
      </trkpt>
      <trkpt lat="41.72827" lon="20.81298">
        <ele>1185.968986</ele>
        <time>2022-04-25T11:07:26.886Z</time>
      </trkpt>
      <trkpt lat="41.7283" lon="20.81287">
        <ele>1186.582495</ele>
        <time>2022-04-25T11:07:33.920Z</time>
      </trkpt>
      <trkpt lat="41.72833" lon="20.81274">
        <ele>1187.263898</ele>
        <time>2022-04-25T11:07:41.896Z</time>
      </trkpt>
      <trkpt lat="41.72837" lon="20.81263">
        <ele>1187.897893</ele>
        <time>2022-04-25T11:07:49.871Z</time>
      </trkpt>
      <trkpt lat="41.72843" lon="20.81253">
        <ele>1188.554232</ele>
        <time>2022-04-25T11:07:57.887Z</time>
      </trkpt>
      <trkpt lat="41.7285" lon="20.81245">
        <ele>1189.200044</ele>
        <time>2022-04-25T11:08:05.884Z</time>
      </trkpt>
      <trkpt lat="41.72858" lon="20.81237">
        <ele>1189.871989</ele>
        <time>2022-04-25T11:08:13.898Z</time>
      </trkpt>
      <trkpt lat="41.72867" lon="20.8123">
        <ele>1190.566692</ele>
        <time>2022-04-25T11:08:21.887Z</time>
      </trkpt>
      <trkpt lat="41.72876" lon="20.81224">
        <ele>1191.249562</ele>
        <time>2022-04-25T11:08:28.907Z</time>
      </trkpt>
      <trkpt lat="41.72884" lon="20.81218">
        <ele>1191.90493</ele>
        <time>2022-04-25T11:08:36.886Z</time>
      </trkpt>
      <trkpt lat="41.72893" lon="20.81213">
        <ele>1192.555803</ele>
        <time>2022-04-25T11:08:43.882Z</time>
      </trkpt>
      <trkpt lat="41.72902" lon="20.81208">
        <ele>1193.254802</ele>
        <time>2022-04-25T11:08:50.921Z</time>
      </trkpt>
      <trkpt lat="41.72911" lon="20.812">
        <ele>1193.946733</ele>
        <time>2022-04-25T11:08:59.895Z</time>
      </trkpt>
      <trkpt lat="41.72918" lon="20.81191">
        <ele>1194.582555</ele>
        <time>2022-04-25T11:09:06.885Z</time>
      </trkpt>
      <trkpt lat="41.72926" lon="20.81183">
        <ele>1194.978689</ele>
        <time>2022-04-25T11:09:14.882Z</time>
      </trkpt>
      <trkpt lat="41.72933" lon="20.81174">
        <ele>1195.394228</ele>
        <time>2022-04-25T11:09:24.883Z</time>
      </trkpt>
      <trkpt lat="41.72938" lon="20.81164">
        <ele>1195.765767</ele>
        <time>2022-04-25T11:09:31.886Z</time>
      </trkpt>
      <trkpt lat="41.72945" lon="20.81153">
        <ele>1196.191311</ele>
        <time>2022-04-25T11:09:39.884Z</time>
      </trkpt>
      <trkpt lat="41.72951" lon="20.81143">
        <ele>1196.595608</ele>
        <time>2022-04-25T11:09:46.907Z</time>
      </trkpt>
      <trkpt lat="41.72958" lon="20.81133">
        <ele>1197.00761</ele>
        <time>2022-04-25T11:09:53.926Z</time>
      </trkpt>
      <trkpt lat="41.72964" lon="20.81123">
        <ele>1197.414449</ele>
        <time>2022-04-25T11:10:01.880Z</time>
      </trkpt>
      <trkpt lat="41.72971" lon="20.81113">
        <ele>1197.806092</ele>
        <time>2022-04-25T11:10:09.879Z</time>
      </trkpt>
      <trkpt lat="41.72979" lon="20.81106">
        <ele>1198.211153</ele>
        <time>2022-04-25T11:10:16.866Z</time>
      </trkpt>
      <trkpt lat="41.72986" lon="20.81099">
        <ele>1198.598948</ele>
        <time>2022-04-25T11:10:23.889Z</time>
      </trkpt>
      <trkpt lat="41.72995" lon="20.81092">
        <ele>1199.016263</ele>
        <time>2022-04-25T11:10:30.879Z</time>
      </trkpt>
      <trkpt lat="41.73003" lon="20.81086">
        <ele>1199.404088</ele>
        <time>2022-04-25T11:10:37.880Z</time>
      </trkpt>
      <trkpt lat="41.73012" lon="20.81079">
        <ele>1199.815838</ele>
        <time>2022-04-25T11:10:44.904Z</time>
      </trkpt>
      <trkpt lat="41.7302" lon="20.81073">
        <ele>1200.196847</ele>
        <time>2022-04-25T11:10:50.890Z</time>
      </trkpt>
      <trkpt lat="41.73029" lon="20.81068">
        <ele>1200.592532</ele>
        <time>2022-04-25T11:10:57.867Z</time>
      </trkpt>
      <trkpt lat="41.73038" lon="20.81064">
        <ele>1200.99322</ele>
        <time>2022-04-25T11:11:05.889Z</time>
      </trkpt>
      <trkpt lat="41.73047" lon="20.81061">
        <ele>1201.382595</ele>
        <time>2022-04-25T11:11:13.890Z</time>
      </trkpt>
      <trkpt lat="41.73057" lon="20.81059">
        <ele>1201.764101</ele>
        <time>2022-04-25T11:11:20.887Z</time>
      </trkpt>
      <trkpt lat="41.73066" lon="20.81058">
        <ele>1202.357814</ele>
        <time>2022-04-25T11:11:28.879Z</time>
      </trkpt>
      <trkpt lat="41.73075" lon="20.81057">
        <ele>1202.989372</ele>
        <time>2022-04-25T11:11:35.864Z</time>
      </trkpt>
      <trkpt lat="41.73085" lon="20.81057">
        <ele>1203.655672</ele>
        <time>2022-04-25T11:11:42.912Z</time>
      </trkpt>
      <trkpt lat="41.73095" lon="20.81056">
        <ele>1204.353331</ele>
        <time>2022-04-25T11:11:51.893Z</time>
      </trkpt>
      <trkpt lat="41.73104" lon="20.81052">
        <ele>1205.015107</ele>
        <time>2022-04-25T11:12:00.912Z</time>
      </trkpt>
      <trkpt lat="41.73114" lon="20.81052">
        <ele>1205.716532</ele>
        <time>2022-04-25T11:12:09.883Z</time>
      </trkpt>
      <trkpt lat="41.73123" lon="20.81047">
        <ele>1206.380064</ele>
        <time>2022-04-25T11:12:17.864Z</time>
      </trkpt>
      <trkpt lat="41.73132" lon="20.81045">
        <ele>1207.07187</ele>
        <time>2022-04-25T11:12:24.867Z</time>
      </trkpt>
      <trkpt lat="41.73141" lon="20.81041">
        <ele>1207.728597</ele>
        <time>2022-04-25T11:12:31.900Z</time>
      </trkpt>
      <trkpt lat="41.7315" lon="20.81037">
        <ele>1208.383716</ele>
        <time>2022-04-25T11:12:37.886Z</time>
      </trkpt>
      <trkpt lat="41.73159" lon="20.81035">
        <ele>1209.023711</ele>
        <time>2022-04-25T11:12:44.964Z</time>
      </trkpt>
      <trkpt lat="41.73168" lon="20.81032">
        <ele>1209.671712</ele>
        <time>2022-04-25T11:12:52.895Z</time>
      </trkpt>
      <trkpt lat="41.73178" lon="20.81031">
        <ele>1210.374308</ele>
        <time>2022-04-25T11:13:00.909Z</time>
      </trkpt>
      <trkpt lat="41.73187" lon="20.81031">
        <ele>1211.027084</ele>
        <time>2022-04-25T11:13:08.894Z</time>
      </trkpt>
      <trkpt lat="41.73196" lon="20.81035">
        <ele>1211.680139</ele>
        <time>2022-04-25T11:13:16.879Z</time>
      </trkpt>
      <trkpt lat="41.73205" lon="20.81039">
        <ele>1212.317351</ele>
        <time>2022-04-25T11:13:26.900Z</time>
      </trkpt>
      <trkpt lat="41.73212" lon="20.81046">
        <ele>1212.961818</ele>
        <time>2022-04-25T11:13:34.882Z</time>
      </trkpt>
      <trkpt lat="41.7322" lon="20.81056">
        <ele>1213.694331</ele>
        <time>2022-04-25T11:13:42.885Z</time>
      </trkpt>
      <trkpt lat="41.73226" lon="20.81065">
        <ele>1214.348795</ele>
        <time>2022-04-25T11:13:51.879Z</time>
      </trkpt>
      <trkpt lat="41.73231" lon="20.81075">
        <ele>1214.728431</ele>
        <time>2022-04-25T11:13:59.888Z</time>
      </trkpt>
      <trkpt lat="41.73237" lon="20.81086">
        <ele>1215.02425</ele>
        <time>2022-04-25T11:14:06.892Z</time>
      </trkpt>
      <trkpt lat="41.73243" lon="20.81096">
        <ele>1215.324082</ele>
        <time>2022-04-25T11:14:14.886Z</time>
      </trkpt>
      <trkpt lat="41.7325" lon="20.81105">
        <ele>1215.637267</ele>
        <time>2022-04-25T11:14:22.887Z</time>
      </trkpt>
      <trkpt lat="41.73258" lon="20.81112">
        <ele>1215.933389</ele>
        <time>2022-04-25T11:14:30.929Z</time>
      </trkpt>
      <trkpt lat="41.73266" lon="20.81118">
        <ele>1216.222428</ele>
        <time>2022-04-25T11:14:37.877Z</time>
      </trkpt>
      <trkpt lat="41.73276" lon="20.81121">
        <ele>1216.538691</ele>
        <time>2022-04-25T11:14:44.883Z</time>
      </trkpt>
      <trkpt lat="41.73285" lon="20.81121">
        <ele>1216.827993</ele>
        <time>2022-04-25T11:14:50.888Z</time>
      </trkpt>
      <trkpt lat="41.73296" lon="20.81118">
        <ele>1217.164538</ele>
        <time>2022-04-25T11:14:58.925Z</time>
      </trkpt>
      <trkpt lat="41.73305" lon="20.81118">
        <ele>1217.454175</ele>
        <time>2022-04-25T11:15:04.912Z</time>
      </trkpt>
      <trkpt lat="41.73315" lon="20.81117">
        <ele>1217.768441</ele>
        <time>2022-04-25T11:15:12.887Z</time>
      </trkpt>
      <trkpt lat="41.73325" lon="20.81117">
        <ele>1218.051531</ele>
        <time>2022-04-25T11:15:18.870Z</time>
      </trkpt>
      <trkpt lat="41.73333" lon="20.81113">
        <ele>1218.343334</ele>
        <time>2022-04-25T11:15:26.886Z</time>
      </trkpt>
      <trkpt lat="41.73341" lon="20.81106">
        <ele>1218.63666</ele>
        <time>2022-04-25T11:15:34.879Z</time>
      </trkpt>
      <trkpt lat="41.73348" lon="20.81097">
        <ele>1218.930732</ele>
        <time>2022-04-25T11:15:42.895Z</time>
      </trkpt>
      <trkpt lat="41.73353" lon="20.81086">
        <ele>1219.238328</ele>
        <time>2022-04-25T11:15:50.902Z</time>
      </trkpt>
      <trkpt lat="41.73358" lon="20.81074">
        <ele>1219.541085</ele>
        <time>2022-04-25T11:15:57.879Z</time>
      </trkpt>
      <trkpt lat="41.73361" lon="20.81061">
        <ele>1219.867447</ele>
        <time>2022-04-25T11:16:04.887Z</time>
      </trkpt>
      <trkpt lat="41.73364" lon="20.81048">
        <ele>1220.188275</ele>
        <time>2022-04-25T11:16:11.913Z</time>
      </trkpt>
      <trkpt lat="41.73366" lon="20.81035">
        <ele>1220.51044</ele>
        <time>2022-04-25T11:16:18.928Z</time>
      </trkpt>
      <trkpt lat="41.73367" lon="20.81022">
        <ele>1220.814502</ele>
        <time>2022-04-25T11:16:25.872Z</time>
      </trkpt>
      <trkpt lat="41.73368" lon="20.81009">
        <ele>1221.148082</ele>
        <time>2022-04-25T11:16:33.869Z</time>
      </trkpt>
      <trkpt lat="41.73368" lon="20.80996">
        <ele>1221.468653</ele>
        <time>2022-04-25T11:16:42.884Z</time>
      </trkpt>
      <trkpt lat="41.73368" lon="20.80982">
        <ele>1221.795436</ele>
        <time>2022-04-25T11:16:50.886Z</time>
      </trkpt>
      <trkpt lat="41.7337" lon="20.80969">
        <ele>1222.129825</ele>
        <time>2022-04-25T11:16:59.893Z</time>
      </trkpt>
      <trkpt lat="41.73372" lon="20.80956">
        <ele>1222.461814</ele>
        <time>2022-04-25T11:17:06.924Z</time>
      </trkpt>
      <trkpt lat="41.73375" lon="20.80944">
        <ele>1222.762226</ele>
        <time>2022-04-25T11:17:13.897Z</time>
      </trkpt>
      <trkpt lat="41.73378" lon="20.80932">
        <ele>1223.075753</ele>
        <time>2022-04-25T11:17:21.883Z</time>
      </trkpt>
      <trkpt lat="41.73381" lon="20.8092">
        <ele>1223.379949</ele>
        <time>2022-04-25T11:17:28.884Z</time>
      </trkpt>
      <trkpt lat="41.73384" lon="20.80908">
        <ele>1223.691891</ele>
        <time>2022-04-25T11:17:36.915Z</time>
      </trkpt>
      <trkpt lat="41.73386" lon="20.80895">
        <ele>1224.004713</ele>
        <time>2022-04-25T11:17:42.910Z</time>
      </trkpt>
      <trkpt lat="41.73387" lon="20.80883">
        <ele>1224.318388</ele>
        <time>2022-04-25T11:17:49.896Z</time>
      </trkpt>
      <trkpt lat="41.73389" lon="20.80871">
        <ele>1224.621494</ele>
        <time>2022-04-25T11:17:56.889Z</time>
      </trkpt>
      <trkpt lat="41.73391" lon="20.80858">
        <ele>1224.952584</ele>
        <time>2022-04-25T11:18:05.886Z</time>
      </trkpt>
      <trkpt lat="41.73395" lon="20.80845">
        <ele>1225.276419</ele>
        <time>2022-04-25T11:18:12.886Z</time>
      </trkpt>
      <trkpt lat="41.73399" lon="20.80834">
        <ele>1225.575625</ele>
        <time>2022-04-25T11:18:19.880Z</time>
      </trkpt>
      <trkpt lat="41.73401" lon="20.80821">
        <ele>1225.908864</ele>
        <time>2022-04-25T11:18:28.878Z</time>
      </trkpt>
      <trkpt lat="41.73402" lon="20.80809">
        <ele>1226.618264</ele>
        <time>2022-04-25T11:18:35.888Z</time>
      </trkpt>
      <trkpt lat="41.73402" lon="20.80797">
        <ele>1227.553804</ele>
        <time>2022-04-25T11:18:42.900Z</time>
      </trkpt>
      <trkpt lat="41.73402" lon="20.80784">
        <ele>1228.482021</ele>
        <time>2022-04-25T11:18:50.885Z</time>
      </trkpt>
      <trkpt lat="41.73402" lon="20.80771">
        <ele>1229.493432</ele>
        <time>2022-04-25T11:18:59.876Z</time>
      </trkpt>
      <trkpt lat="41.73403" lon="20.80758">
        <ele>1230.488313</ele>
        <time>2022-04-25T11:19:07.883Z</time>
      </trkpt>
      <trkpt lat="41.73404" lon="20.80745">
        <ele>1231.454531</ele>
        <time>2022-04-25T11:19:15.870Z</time>
      </trkpt>
      <trkpt lat="41.73404" lon="20.80732">
        <ele>1232.438855</ele>
        <time>2022-04-25T11:19:24.881Z</time>
      </trkpt>
      <trkpt lat="41.73404" lon="20.8072">
        <ele>1233.369307</ele>
        <time>2022-04-25T11:19:32.916Z</time>
      </trkpt>
      <trkpt lat="41.73401" lon="20.80708">
        <ele>1234.315109</ele>
        <time>2022-04-25T11:19:41.883Z</time>
      </trkpt>
      <trkpt lat="41.73399" lon="20.80696">
        <ele>1235.288773</ele>
        <time>2022-04-25T11:19:50.870Z</time>
      </trkpt>
      <trkpt lat="41.73399" lon="20.80684">
        <ele>1236.208939</ele>
        <time>2022-04-25T11:19:59.876Z</time>
      </trkpt>
      <trkpt lat="41.73402" lon="20.80671">
        <ele>1237.173174</ele>
        <time>2022-04-25T11:20:07.920Z</time>
      </trkpt>
      <trkpt lat="41.73403" lon="20.80659">
        <ele>1238.091351</ele>
        <time>2022-04-25T11:20:15.889Z</time>
      </trkpt>
      <trkpt lat="41.73402" lon="20.80647">
        <ele>1239.06517</ele>
        <time>2022-04-25T11:20:23.886Z</time>
      </trkpt>
      <trkpt lat="41.73402" lon="20.80633">
        <ele>1240.06179</ele>
        <time>2022-04-25T11:20:30.924Z</time>
      </trkpt>
      <trkpt lat="41.73402" lon="20.8062">
        <ele>1241.073612</ele>
        <time>2022-04-25T11:20:37.865Z</time>
      </trkpt>
      <trkpt lat="41.73401" lon="20.80608">
        <ele>1242.016889</ele>
        <time>2022-04-25T11:20:43.911Z</time>
      </trkpt>
      <trkpt lat="41.73402" lon="20.80595">
        <ele>1243.001213</ele>
        <time>2022-04-25T11:20:50.879Z</time>
      </trkpt>
      <trkpt lat="41.73403" lon="20.80583">
        <ele>1243.930809</ele>
        <time>2022-04-25T11:21:00.881Z</time>
      </trkpt>
      <trkpt lat="41.73401" lon="20.80571">
        <ele>1244.402484</ele>
        <time>2022-04-25T11:21:08.899Z</time>
      </trkpt>
      <trkpt lat="41.73401" lon="20.80558">
        <ele>1244.522372</ele>
        <time>2022-04-25T11:21:16.912Z</time>
      </trkpt>
      <trkpt lat="41.73401" lon="20.80546">
        <ele>1244.638457</ele>
        <time>2022-04-25T11:21:23.882Z</time>
      </trkpt>
      <trkpt lat="41.734" lon="20.80533">
        <ele>1244.759639</ele>
        <time>2022-04-25T11:21:32.886Z</time>
      </trkpt>
      <trkpt lat="41.734" lon="20.8052">
        <ele>1244.877596</ele>
        <time>2022-04-25T11:21:40.866Z</time>
      </trkpt>
      <trkpt lat="41.73402" lon="20.80508">
        <ele>1244.996917</ele>
        <time>2022-04-25T11:21:49.883Z</time>
      </trkpt>
      <trkpt lat="41.73404" lon="20.80491">
        <ele>1245.153615</ele>
        <time>2022-04-25T11:34:57.880Z</time>
      </trkpt>
      <trkpt lat="41.73405" lon="20.80478">
        <ele>1245.277195</ele>
        <time>2022-04-25T11:35:04.893Z</time>
      </trkpt>
      <trkpt lat="41.73403" lon="20.80466">
        <ele>1245.392566</ele>
        <time>2022-04-25T11:35:12.886Z</time>
      </trkpt>
      <trkpt lat="41.73403" lon="20.80453">
        <ele>1245.513338</ele>
        <time>2022-04-25T11:35:20.880Z</time>
      </trkpt>
      <trkpt lat="41.73406" lon="20.80441">
        <ele>1245.62603</ele>
        <time>2022-04-25T11:35:26.872Z</time>
      </trkpt>
      <trkpt lat="41.73408" lon="20.80429">
        <ele>1245.749654</ele>
        <time>2022-04-25T11:35:32.880Z</time>
      </trkpt>
      <trkpt lat="41.7341" lon="20.80416">
        <ele>1245.868834</ele>
        <time>2022-04-25T11:35:38.872Z</time>
      </trkpt>
      <trkpt lat="41.73411" lon="20.80402">
        <ele>1245.999179</ele>
        <time>2022-04-25T11:35:45.890Z</time>
      </trkpt>
      <trkpt lat="41.73412" lon="20.8039">
        <ele>1246.117908</ele>
        <time>2022-04-25T11:35:53.893Z</time>
      </trkpt>
      <trkpt lat="41.73416" lon="20.80377">
        <ele>1246.243772</ele>
        <time>2022-04-25T11:36:01.878Z</time>
      </trkpt>
      <trkpt lat="41.73419" lon="20.80366">
        <ele>1246.359117</ele>
        <time>2022-04-25T11:36:08.885Z</time>
      </trkpt>
      <trkpt lat="41.73424" lon="20.80354">
        <ele>1246.485753</ele>
        <time>2022-04-25T11:36:15.903Z</time>
      </trkpt>
      <trkpt lat="41.73428" lon="20.80342">
        <ele>1246.665855</ele>
        <time>2022-04-25T11:36:21.880Z</time>
      </trkpt>
      <trkpt lat="41.73432" lon="20.8033">
        <ele>1247.491415</ele>
        <time>2022-04-25T11:36:29.884Z</time>
      </trkpt>
      <trkpt lat="41.73435" lon="20.80318">
        <ele>1248.296289</ele>
        <time>2022-04-25T11:36:37.869Z</time>
      </trkpt>
      <trkpt lat="41.73436" lon="20.80305">
        <ele>1249.046979</ele>
        <time>2022-04-25T11:36:44.876Z</time>
      </trkpt>
      <trkpt lat="41.73437" lon="20.80292">
        <ele>1249.86495</ele>
        <time>2022-04-25T11:36:52.885Z</time>
      </trkpt>
      <trkpt lat="41.7344" lon="20.8028">
        <ele>1250.664824</ele>
        <time>2022-04-25T11:36:59.891Z</time>
      </trkpt>
      <trkpt lat="41.73439" lon="20.80266">
        <ele>1251.491885</ele>
        <time>2022-04-25T11:37:07.863Z</time>
      </trkpt>
      <trkpt lat="41.73439" lon="20.80254">
        <ele>1252.240547</ele>
        <time>2022-04-25T11:37:14.882Z</time>
      </trkpt>
      <trkpt lat="41.73436" lon="20.80242">
        <ele>1252.982841</ele>
        <time>2022-04-25T11:37:21.890Z</time>
      </trkpt>
      <trkpt lat="41.73436" lon="20.80229">
        <ele>1253.79534</ele>
        <time>2022-04-25T11:37:28.897Z</time>
      </trkpt>
      <trkpt lat="41.73434" lon="20.80216">
        <ele>1254.614508</ele>
        <time>2022-04-25T11:37:36.859Z</time>
      </trkpt>
      <trkpt lat="41.73431" lon="20.80204">
        <ele>1255.399386</ele>
        <time>2022-04-25T11:37:43.877Z</time>
      </trkpt>
      <trkpt lat="41.73428" lon="20.80192">
        <ele>1256.161017</ele>
        <time>2022-04-25T11:37:51.860Z</time>
      </trkpt>
      <trkpt lat="41.73426" lon="20.80179">
        <ele>1256.996334</ele>
        <time>2022-04-25T11:38:00.867Z</time>
      </trkpt>
      <trkpt lat="41.73424" lon="20.80166">
        <ele>1257.804072</ele>
        <time>2022-04-25T11:38:09.869Z</time>
      </trkpt>
      <trkpt lat="41.73422" lon="20.80153">
        <ele>1258.611113</ele>
        <time>2022-04-25T11:38:17.865Z</time>
      </trkpt>
      <trkpt lat="41.73419" lon="20.80142">
        <ele>1259.349867</ele>
        <time>2022-04-25T11:38:25.893Z</time>
      </trkpt>
      <trkpt lat="41.73418" lon="20.80129">
        <ele>1260.156253</ele>
        <time>2022-04-25T11:38:33.882Z</time>
      </trkpt>
      <trkpt lat="41.73419" lon="20.80115">
        <ele>1260.993216</ele>
        <time>2022-04-25T11:38:41.878Z</time>
      </trkpt>
      <trkpt lat="41.73419" lon="20.80102">
        <ele>1261.505054</ele>
        <time>2022-04-25T11:38:49.882Z</time>
      </trkpt>
      <trkpt lat="41.73417" lon="20.8009">
        <ele>1261.754781</ele>
        <time>2022-04-25T11:38:59.902Z</time>
      </trkpt>
      <trkpt lat="41.73414" lon="20.80078">
        <ele>1261.995115</ele>
        <time>2022-04-25T11:39:10.890Z</time>
      </trkpt>
      <trkpt lat="41.73414" lon="20.80065">
        <ele>1262.263424</ele>
        <time>2022-04-25T11:39:19.871Z</time>
      </trkpt>
      <trkpt lat="41.73415" lon="20.80052">
        <ele>1262.50434</ele>
        <time>2022-04-25T11:39:26.892Z</time>
      </trkpt>
      <trkpt lat="41.73417" lon="20.80039">
        <ele>1262.776216</ele>
        <time>2022-04-25T11:39:33.881Z</time>
      </trkpt>
      <trkpt lat="41.73418" lon="20.80026">
        <ele>1263.034589</ele>
        <time>2022-04-25T11:39:41.888Z</time>
      </trkpt>
      <trkpt lat="41.73418" lon="20.80014">
        <ele>1263.269737</ele>
        <time>2022-04-25T11:39:48.893Z</time>
      </trkpt>
      <trkpt lat="41.73418" lon="20.8">
        <ele>1263.535986</ele>
        <time>2022-04-25T11:39:56.880Z</time>
      </trkpt>
      <trkpt lat="41.73418" lon="20.79987">
        <ele>1263.796402</ele>
        <time>2022-04-25T11:40:04.924Z</time>
      </trkpt>
      <trkpt lat="41.73416" lon="20.79973">
        <ele>1264.066361</ele>
        <time>2022-04-25T11:40:12.884Z</time>
      </trkpt>
      <trkpt lat="41.73413" lon="20.79961">
        <ele>1264.306489</ele>
        <time>2022-04-25T11:40:18.889Z</time>
      </trkpt>
      <trkpt lat="41.73408" lon="20.7995">
        <ele>1264.564437</ele>
        <time>2022-04-25T11:40:26.906Z</time>
      </trkpt>
      <trkpt lat="41.73401" lon="20.79941">
        <ele>1264.81682</ele>
        <time>2022-04-25T11:40:34.861Z</time>
      </trkpt>
      <trkpt lat="41.73393" lon="20.79935">
        <ele>1265.060241</ele>
        <time>2022-04-25T11:40:41.872Z</time>
      </trkpt>
      <trkpt lat="41.73386" lon="20.79928">
        <ele>1265.301083</ele>
        <time>2022-04-25T11:40:48.886Z</time>
      </trkpt>
      <trkpt lat="41.73377" lon="20.79923">
        <ele>1265.538228</ele>
        <time>2022-04-25T11:40:55.889Z</time>
      </trkpt>
      <trkpt lat="41.73368" lon="20.79918">
        <ele>1265.790639</ele>
        <time>2022-04-25T11:41:02.882Z</time>
      </trkpt>
      <trkpt lat="41.73359" lon="20.79916">
        <ele>1266.05014</ele>
        <time>2022-04-25T11:41:10.879Z</time>
      </trkpt>
      <trkpt lat="41.73349" lon="20.79914">
        <ele>1266.930819</ele>
        <time>2022-04-25T11:41:17.886Z</time>
      </trkpt>
      <trkpt lat="41.7334" lon="20.79909">
        <ele>1268.010573</ele>
        <time>2022-04-25T11:41:24.876Z</time>
      </trkpt>
      <trkpt lat="41.73332" lon="20.79902">
        <ele>1268.962368</ele>
        <time>2022-04-25T11:41:31.882Z</time>
      </trkpt>
      <trkpt lat="41.73324" lon="20.79894">
        <ele>1270.019322</ele>
        <time>2022-04-25T11:41:38.882Z</time>
      </trkpt>
      <trkpt lat="41.73317" lon="20.79885">
        <ele>1271.011607</ele>
        <time>2022-04-25T11:41:45.881Z</time>
      </trkpt>
      <trkpt lat="41.73312" lon="20.79875">
        <ele>1272.011122</ele>
        <time>2022-04-25T11:41:52.919Z</time>
      </trkpt>
      <trkpt lat="41.73307" lon="20.79864">
        <ele>1273.010609</ele>
        <time>2022-04-25T11:42:00.886Z</time>
      </trkpt>
      <trkpt lat="41.73303" lon="20.79851">
        <ele>1274.052954</ele>
        <time>2022-04-25T11:42:08.868Z</time>
      </trkpt>
      <trkpt lat="41.733" lon="20.7984">
        <ele>1275.00509</ele>
        <time>2022-04-25T11:42:17.873Z</time>
      </trkpt>
      <trkpt lat="41.73297" lon="20.79827">
        <ele>1276.031844</ele>
        <time>2022-04-25T11:42:26.890Z</time>
      </trkpt>
      <trkpt lat="41.733" lon="20.79815">
        <ele>1277.01196</ele>
        <time>2022-04-25T11:42:34.858Z</time>
      </trkpt>
      <trkpt lat="41.73303" lon="20.79804">
        <ele>1277.989369</ele>
        <time>2022-04-25T11:42:42.878Z</time>
      </trkpt>
      <trkpt lat="41.73305" lon="20.79791">
        <ele>1278.98658</ele>
        <time>2022-04-25T11:42:51.868Z</time>
      </trkpt>
      <trkpt lat="41.73308" lon="20.79779">
        <ele>1279.987746</ele>
        <time>2022-04-25T11:42:59.884Z</time>
      </trkpt>
      <trkpt lat="41.73311" lon="20.79768">
        <ele>1280.939445</ele>
        <time>2022-04-25T11:43:08.874Z</time>
      </trkpt>
      <trkpt lat="41.73314" lon="20.79756">
        <ele>1281.885061</ele>
        <time>2022-04-25T11:43:16.912Z</time>
      </trkpt>
      <trkpt lat="41.73316" lon="20.79744">
        <ele>1282.874683</ele>
        <time>2022-04-25T11:43:23.881Z</time>
      </trkpt>
      <trkpt lat="41.73319" lon="20.79733">
        <ele>1283.830965</ele>
        <time>2022-04-25T11:43:30.893Z</time>
      </trkpt>
      <trkpt lat="41.7332" lon="20.7972">
        <ele>1284.822841</ele>
        <time>2022-04-25T11:43:38.875Z</time>
      </trkpt>
      <trkpt lat="41.73321" lon="20.79707">
        <ele>1285.825636</ele>
        <time>2022-04-25T11:43:46.872Z</time>
      </trkpt>
      <trkpt lat="41.73321" lon="20.79695">
        <ele>1286.792411</ele>
        <time>2022-04-25T11:43:53.909Z</time>
      </trkpt>
      <trkpt lat="41.7332" lon="20.79683">
        <ele>1287.774644</ele>
        <time>2022-04-25T11:44:01.876Z</time>
      </trkpt>
      <trkpt lat="41.73318" lon="20.79671">
        <ele>1288.737734</ele>
        <time>2022-04-25T11:44:08.901Z</time>
      </trkpt>
      <trkpt lat="41.73315" lon="20.79659">
        <ele>1289.79785</ele>
        <time>2022-04-25T11:44:16.874Z</time>
      </trkpt>
      <trkpt lat="41.73311" lon="20.79647">
        <ele>1290.854201</ele>
        <time>2022-04-25T11:44:26.908Z</time>
      </trkpt>
      <trkpt lat="41.73308" lon="20.79635">
        <ele>1291.875178</ele>
        <time>2022-04-25T11:44:35.883Z</time>
      </trkpt>
      <trkpt lat="41.73305" lon="20.79622">
        <ele>1292.884779</ele>
        <time>2022-04-25T11:44:42.886Z</time>
      </trkpt>
      <trkpt lat="41.73302" lon="20.79611">
        <ele>1293.849909</ele>
        <time>2022-04-25T11:44:50.875Z</time>
      </trkpt>
      <trkpt lat="41.73298" lon="20.79599">
        <ele>1294.884414</ele>
        <time>2022-04-25T11:44:58.882Z</time>
      </trkpt>
      <trkpt lat="41.73295" lon="20.79588">
        <ele>1295.875757</ele>
        <time>2022-04-25T11:45:07.893Z</time>
      </trkpt>
      <trkpt lat="41.7329" lon="20.79577">
        <ele>1296.873697</ele>
        <time>2022-04-25T11:45:15.891Z</time>
      </trkpt>
      <trkpt lat="41.73286" lon="20.79565">
        <ele>1297.887996</ele>
        <time>2022-04-25T11:45:23.874Z</time>
      </trkpt>
      <trkpt lat="41.73282" lon="20.79555">
        <ele>1298.844022</ele>
        <time>2022-04-25T11:45:30.867Z</time>
      </trkpt>
      <trkpt lat="41.73279" lon="20.79543">
        <ele>1299.878121</ele>
        <time>2022-04-25T11:45:38.871Z</time>
      </trkpt>
      <trkpt lat="41.73276" lon="20.79531">
        <ele>1300.835866</ele>
        <time>2022-04-25T11:45:46.892Z</time>
      </trkpt>
      <trkpt lat="41.73272" lon="20.7952">
        <ele>1301.877646</ele>
        <time>2022-04-25T11:45:56.888Z</time>
      </trkpt>
      <trkpt lat="41.7327" lon="20.79507">
        <ele>1302.877033</ele>
        <time>2022-04-25T11:46:05.880Z</time>
      </trkpt>
      <trkpt lat="41.73267" lon="20.79495">
        <ele>1303.86869</ele>
        <time>2022-04-25T11:46:12.883Z</time>
      </trkpt>
      <trkpt lat="41.73264" lon="20.79484">
        <ele>1304.719192</ele>
        <time>2022-04-25T11:46:19.879Z</time>
      </trkpt>
      <trkpt lat="41.73261" lon="20.79471">
        <ele>1305.548367</ele>
        <time>2022-04-25T11:46:28.886Z</time>
      </trkpt>
      <trkpt lat="41.73259" lon="20.79459">
        <ele>1306.319256</ele>
        <time>2022-04-25T11:46:37.879Z</time>
      </trkpt>
      <trkpt lat="41.73259" lon="20.79446">
        <ele>1307.083242</ele>
        <time>2022-04-25T11:46:44.874Z</time>
      </trkpt>
      <trkpt lat="41.73258" lon="20.79434">
        <ele>1307.840695</ele>
        <time>2022-04-25T11:46:52.875Z</time>
      </trkpt>
      <trkpt lat="41.73256" lon="20.79421">
        <ele>1308.672021</ele>
        <time>2022-04-25T11:47:01.904Z</time>
      </trkpt>
      <trkpt lat="41.73257" lon="20.79409">
        <ele>1309.443686</ele>
        <time>2022-04-25T11:47:10.890Z</time>
      </trkpt>
      <trkpt lat="41.73257" lon="20.79396">
        <ele>1310.250557</ele>
        <time>2022-04-25T11:47:19.891Z</time>
      </trkpt>
      <trkpt lat="41.73256" lon="20.79383">
        <ele>1311.023656</ele>
        <time>2022-04-25T11:47:28.890Z</time>
      </trkpt>
      <trkpt lat="41.73257" lon="20.7937">
        <ele>1311.826909</ele>
        <time>2022-04-25T11:47:35.877Z</time>
      </trkpt>
      <trkpt lat="41.73258" lon="20.79358">
        <ele>1312.607956</ele>
        <time>2022-04-25T11:47:45.892Z</time>
      </trkpt>
      <trkpt lat="41.7326" lon="20.79345">
        <ele>1313.399555</ele>
        <time>2022-04-25T11:47:55.884Z</time>
      </trkpt>
      <trkpt lat="41.73263" lon="20.79333">
        <ele>1314.225145</ele>
        <time>2022-04-25T11:48:05.877Z</time>
      </trkpt>
      <trkpt lat="41.73267" lon="20.7932">
        <ele>1315.047924</ele>
        <time>2022-04-25T11:48:13.890Z</time>
      </trkpt>
      <trkpt lat="41.73268" lon="20.79307">
        <ele>1315.888747</ele>
        <time>2022-04-25T11:48:23.885Z</time>
      </trkpt>
      <trkpt lat="41.73269" lon="20.79294">
        <ele>1316.671914</ele>
        <time>2022-04-25T11:48:31.890Z</time>
      </trkpt>
      <trkpt lat="41.73269" lon="20.7928">
        <ele>1317.565526</ele>
        <time>2022-04-25T11:48:40.935Z</time>
      </trkpt>
      <trkpt lat="41.73269" lon="20.79267">
        <ele>1318.403251</ele>
        <time>2022-04-25T11:48:47.866Z</time>
      </trkpt>
      <trkpt lat="41.7327" lon="20.79253">
        <ele>1319.217291</ele>
        <time>2022-04-25T11:48:55.881Z</time>
      </trkpt>
      <trkpt lat="41.73271" lon="20.79239">
        <ele>1319.4995</ele>
        <time>2022-04-25T11:49:01.879Z</time>
      </trkpt>
      <trkpt lat="41.73271" lon="20.79227">
        <ele>1319.767692</ele>
        <time>2022-04-25T11:49:08.872Z</time>
      </trkpt>
      <trkpt lat="41.7327" lon="20.79213">
        <ele>1320.045442</ele>
        <time>2022-04-25T11:49:15.870Z</time>
      </trkpt>
      <trkpt lat="41.73269" lon="20.79201">
        <ele>1320.313927</ele>
        <time>2022-04-25T11:49:22.893Z</time>
      </trkpt>
      <trkpt lat="41.73264" lon="20.79189">
        <ele>1320.588409</ele>
        <time>2022-04-25T11:49:30.888Z</time>
      </trkpt>
      <trkpt lat="41.73262" lon="20.79178">
        <ele>1320.842525</ele>
        <time>2022-04-25T11:49:37.876Z</time>
      </trkpt>
      <trkpt lat="41.7326" lon="20.79165">
        <ele>1321.11628</ele>
        <time>2022-04-25T11:49:46.878Z</time>
      </trkpt>
      <trkpt lat="41.73258" lon="20.79152">
        <ele>1321.383099</ele>
        <time>2022-04-25T11:49:54.870Z</time>
      </trkpt>
      <trkpt lat="41.73253" lon="20.7914">
        <ele>1321.676313</ele>
        <time>2022-04-25T11:50:02.898Z</time>
      </trkpt>
      <trkpt lat="41.7325" lon="20.79128">
        <ele>1321.944353</ele>
        <time>2022-04-25T11:50:09.888Z</time>
      </trkpt>
      <trkpt lat="41.73245" lon="20.79116">
        <ele>1322.218041</ele>
        <time>2022-04-25T11:50:18.910Z</time>
      </trkpt>
      <trkpt lat="41.73241" lon="20.79105">
        <ele>1322.472984</ele>
        <time>2022-04-25T11:50:26.871Z</time>
      </trkpt>
      <trkpt lat="41.73236" lon="20.79095">
        <ele>1322.735499</ele>
        <time>2022-04-25T11:50:34.874Z</time>
      </trkpt>
      <trkpt lat="41.73231" lon="20.79085">
        <ele>1322.997228</ele>
        <time>2022-04-25T11:50:41.891Z</time>
      </trkpt>
      <trkpt lat="41.73225" lon="20.79075">
        <ele>1323.260977</ele>
        <time>2022-04-25T11:50:47.908Z</time>
      </trkpt>
      <trkpt lat="41.73219" lon="20.79064">
        <ele>1323.547972</ele>
        <time>2022-04-25T11:50:55.878Z</time>
      </trkpt>
      <trkpt lat="41.73214" lon="20.79054">
        <ele>1323.803035</ele>
        <time>2022-04-25T11:51:03.873Z</time>
      </trkpt>
      <trkpt lat="41.73206" lon="20.79047">
        <ele>1324.064073</ele>
        <time>2022-04-25T11:51:11.873Z</time>
      </trkpt>
      <trkpt lat="41.73199" lon="20.79037">
        <ele>1324.591356</ele>
        <time>2022-04-25T11:51:21.874Z</time>
      </trkpt>
      <trkpt lat="41.73181" lon="20.79032">
        <ele>1326.342241</ele>
        <time>2022-04-25T11:58:33.918Z</time>
      </trkpt>
      <trkpt lat="41.73173" lon="20.79029">
        <ele>1327.215365</ele>
        <time>2022-04-25T11:58:42.859Z</time>
      </trkpt>
      <trkpt lat="41.73164" lon="20.79026">
        <ele>1328.131255</ele>
        <time>2022-04-25T11:58:52.882Z</time>
      </trkpt>
      <trkpt lat="41.73155" lon="20.7902">
        <ele>1329.067703</ele>
        <time>2022-04-25T11:59:00.861Z</time>
      </trkpt>
      <trkpt lat="41.73145" lon="20.79015">
        <ele>1330.072741</ele>
        <time>2022-04-25T11:59:07.850Z</time>
      </trkpt>
      <trkpt lat="41.73139" lon="20.79006">
        <ele>1330.979763</ele>
        <time>2022-04-25T11:59:12.864Z</time>
      </trkpt>
      <trkpt lat="41.73133" lon="20.78997">
        <ele>1331.87148</ele>
        <time>2022-04-25T11:59:18.847Z</time>
      </trkpt>
      <trkpt lat="41.73127" lon="20.78987">
        <ele>1332.777469</ele>
        <time>2022-04-25T11:59:27.848Z</time>
      </trkpt>
      <trkpt lat="41.73121" lon="20.78977">
        <ele>1333.742742</ele>
        <time>2022-04-25T11:59:37.881Z</time>
      </trkpt>
      <trkpt lat="41.73114" lon="20.78967">
        <ele>1334.695202</ele>
        <time>2022-04-25T11:59:46.849Z</time>
      </trkpt>
      <trkpt lat="41.73108" lon="20.78957">
        <ele>1335.681715</ele>
        <time>2022-04-25T11:59:54.863Z</time>
      </trkpt>
      <trkpt lat="41.73101" lon="20.78947">
        <ele>1336.615286</ele>
        <time>2022-04-25T12:00:01.851Z</time>
      </trkpt>
      <trkpt lat="41.73097" lon="20.78936">
        <ele>1337.511254</ele>
        <time>2022-04-25T12:00:09.856Z</time>
      </trkpt>
      <trkpt lat="41.73094" lon="20.78925">
        <ele>1338.386847</ele>
        <time>2022-04-25T12:00:18.861Z</time>
      </trkpt>
      <trkpt lat="41.7309" lon="20.78913">
        <ele>1339.328277</ele>
        <time>2022-04-25T12:00:27.852Z</time>
      </trkpt>
      <trkpt lat="41.73086" lon="20.789">
        <ele>1340.313442</ele>
        <time>2022-04-25T12:00:35.850Z</time>
      </trkpt>
      <trkpt lat="41.73079" lon="20.7889">
        <ele>1341.283288</ele>
        <time>2022-04-25T12:00:43.851Z</time>
      </trkpt>
      <trkpt lat="41.73073" lon="20.78879">
        <ele>1341.831576</ele>
        <time>2022-04-25T12:00:51.850Z</time>
      </trkpt>
      <trkpt lat="41.73068" lon="20.78869">
        <ele>1342.056691</ele>
        <time>2022-04-25T12:00:58.855Z</time>
      </trkpt>
      <trkpt lat="41.73064" lon="20.78856">
        <ele>1342.292073</ele>
        <time>2022-04-25T12:01:04.871Z</time>
      </trkpt>
      <trkpt lat="41.73062" lon="20.78843">
        <ele>1342.531936</ele>
        <time>2022-04-25T12:01:09.847Z</time>
      </trkpt>
      <trkpt lat="41.73059" lon="20.7883">
        <ele>1342.772523</ele>
        <time>2022-04-25T12:01:13.852Z</time>
      </trkpt>
      <trkpt lat="41.73056" lon="20.78816">
        <ele>1343.016596</ele>
        <time>2022-04-25T12:01:18.855Z</time>
      </trkpt>
      <trkpt lat="41.73051" lon="20.78805">
        <ele>1343.257305</ele>
        <time>2022-04-25T12:01:25.887Z</time>
      </trkpt>
      <trkpt lat="41.73045" lon="20.78793">
        <ele>1343.50299</ele>
        <time>2022-04-25T12:01:31.879Z</time>
      </trkpt>
      <trkpt lat="41.73041" lon="20.78781">
        <ele>1343.728809</ele>
        <time>2022-04-25T12:01:36.854Z</time>
      </trkpt>
      <trkpt lat="41.73039" lon="20.78768">
        <ele>1343.958207</ele>
        <time>2022-04-25T12:01:41.850Z</time>
      </trkpt>
      <trkpt lat="41.73037" lon="20.78756">
        <ele>1344.181698</ele>
        <time>2022-04-25T12:01:46.866Z</time>
      </trkpt>
      <trkpt lat="41.73037" lon="20.78742">
        <ele>1344.419152</ele>
        <time>2022-04-25T12:01:51.849Z</time>
      </trkpt>
      <trkpt lat="41.73037" lon="20.78729">
        <ele>1344.646063</ele>
        <time>2022-04-25T12:01:56.856Z</time>
      </trkpt>
      <trkpt lat="41.73037" lon="20.78714">
        <ele>1344.902523</ele>
        <time>2022-04-25T12:02:01.853Z</time>
      </trkpt>
      <trkpt lat="41.73039" lon="20.78701">
        <ele>1345.135346</ele>
        <time>2022-04-25T12:02:05.889Z</time>
      </trkpt>
      <trkpt lat="41.7304" lon="20.78687">
        <ele>1345.380944</ele>
        <time>2022-04-25T12:02:09.847Z</time>
      </trkpt>
      <trkpt lat="41.73042" lon="20.78673">
        <ele>1345.628367</ele>
        <time>2022-04-25T12:02:13.848Z</time>
      </trkpt>
      <trkpt lat="41.73043" lon="20.78661">
        <ele>1345.848637</ele>
        <time>2022-04-25T12:02:17.849Z</time>
      </trkpt>
      <trkpt lat="41.73044" lon="20.78646">
        <ele>1345.945874</ele>
        <time>2022-04-25T12:02:22.889Z</time>
      </trkpt>
      <trkpt lat="41.73045" lon="20.78633">
        <ele>1345.987986</ele>
        <time>2022-04-25T12:02:26.852Z</time>
      </trkpt>
      <trkpt lat="41.73047" lon="20.78621">
        <ele>1346.029176</ele>
        <time>2022-04-25T12:02:30.855Z</time>
      </trkpt>
      <trkpt lat="41.73048" lon="20.78609">
        <ele>1346.071081</ele>
        <time>2022-04-25T12:02:34.872Z</time>
      </trkpt>
      <trkpt lat="41.73049" lon="20.78597">
        <ele>1346.113308</ele>
        <time>2022-04-25T12:02:38.872Z</time>
      </trkpt>
      <trkpt lat="41.7305" lon="20.78582">
        <ele>1346.161673</ele>
        <time>2022-04-25T12:02:43.850Z</time>
      </trkpt>
      <trkpt lat="41.73052" lon="20.78569">
        <ele>1346.208035</ele>
        <time>2022-04-25T12:02:48.850Z</time>
      </trkpt>
      <trkpt lat="41.73052" lon="20.78556">
        <ele>1346.252551</ele>
        <time>2022-04-25T12:02:53.852Z</time>
      </trkpt>
      <trkpt lat="41.73051" lon="20.78543">
        <ele>1346.29407</ele>
        <time>2022-04-25T12:02:58.850Z</time>
      </trkpt>
      <trkpt lat="41.73051" lon="20.7853">
        <ele>1346.339943</ele>
        <time>2022-04-25T12:03:03.851Z</time>
      </trkpt>
      <trkpt lat="41.73051" lon="20.78516">
        <ele>1346.387175</ele>
        <time>2022-04-25T12:03:08.859Z</time>
      </trkpt>
      <trkpt lat="41.73051" lon="20.78501">
        <ele>1346.437762</ele>
        <time>2022-04-25T12:03:13.879Z</time>
      </trkpt>
      <trkpt lat="41.73052" lon="20.78489">
        <ele>1346.47926</ele>
        <time>2022-04-25T12:03:17.852Z</time>
      </trkpt>
      <trkpt lat="41.73054" lon="20.78474">
        <ele>1346.528655</ele>
        <time>2022-04-25T12:03:22.861Z</time>
      </trkpt>
      <trkpt lat="41.73056" lon="20.78461">
        <ele>1346.572499</ele>
        <time>2022-04-25T12:03:26.854Z</time>
      </trkpt>
      <trkpt lat="41.73056" lon="20.78447">
        <ele>1346.622091</ele>
        <time>2022-04-25T12:03:31.844Z</time>
      </trkpt>
      <trkpt lat="41.73055" lon="20.78433">
        <ele>1346.669854</ele>
        <time>2022-04-25T12:03:36.847Z</time>
      </trkpt>
      <trkpt lat="41.73053" lon="20.78418">
        <ele>1346.718427</ele>
        <time>2022-04-25T12:03:41.847Z</time>
      </trkpt>
      <trkpt lat="41.73049" lon="20.78407">
        <ele>1346.647879</ele>
        <time>2022-04-25T12:03:46.848Z</time>
      </trkpt>
      <trkpt lat="41.73043" lon="20.78396">
        <ele>1346.573259</ele>
        <time>2022-04-25T12:03:51.873Z</time>
      </trkpt>
      <trkpt lat="41.73037" lon="20.78387">
        <ele>1346.505284</ele>
        <time>2022-04-25T12:03:56.854Z</time>
      </trkpt>
      <trkpt lat="41.73028" lon="20.78379">
        <ele>1346.423963</ele>
        <time>2022-04-25T12:04:02.859Z</time>
      </trkpt>
      <trkpt lat="41.73019" lon="20.78388">
        <ele>1346.339168</ele>
        <time>2022-04-25T12:04:07.850Z</time>
      </trkpt>
      <trkpt lat="41.73011" lon="20.78395">
        <ele>1346.271042</ele>
        <time>2022-04-25T12:04:12.863Z</time>
      </trkpt>
      <trkpt lat="41.73002" lon="20.78399">
        <ele>1346.195275</ele>
        <time>2022-04-25T12:04:18.860Z</time>
      </trkpt>
      <trkpt lat="41.73004" lon="20.78382">
        <ele>1346.101802</ele>
        <time>2022-04-25T12:06:48.855Z</time>
      </trkpt>
      <trkpt lat="41.73004" lon="20.78369">
        <ele>1346.025373</ele>
        <time>2022-04-25T12:06:58.853Z</time>
      </trkpt>
      <trkpt lat="41.72994" lon="20.78368">
        <ele>1345.948053</ele>
        <time>2022-04-25T12:07:04.854Z</time>
      </trkpt>
      <trkpt lat="41.72984" lon="20.7837">
        <ele>1345.872133</ele>
        <time>2022-04-25T12:07:09.857Z</time>
      </trkpt>
      <trkpt lat="41.72975" lon="20.78374">
        <ele>1345.800751</ele>
        <time>2022-04-25T12:07:14.864Z</time>
      </trkpt>
      <trkpt lat="41.72965" lon="20.78379">
        <ele>1345.72025</ele>
        <time>2022-04-25T12:07:20.850Z</time>
      </trkpt>
      <trkpt lat="41.72956" lon="20.78385">
        <ele>1345.639727</ele>
        <time>2022-04-25T12:07:25.848Z</time>
      </trkpt>
      <trkpt lat="41.72947" lon="20.78392">
        <ele>1345.562111</ele>
        <time>2022-04-25T12:07:31.854Z</time>
      </trkpt>
      <trkpt lat="41.72942" lon="20.78403">
        <ele>1345.49132</ele>
        <time>2022-04-25T12:07:37.889Z</time>
      </trkpt>
      <trkpt lat="41.72939" lon="20.78416">
        <ele>1345.417277</ele>
        <time>2022-04-25T12:07:46.849Z</time>
      </trkpt>
      <trkpt lat="41.72935" lon="20.78428">
        <ele>1345.610808</ele>
        <time>2022-04-25T12:07:54.857Z</time>
      </trkpt>
      <trkpt lat="41.72932" lon="20.78439">
        <ele>1346.506104</ele>
        <time>2022-04-25T12:08:01.852Z</time>
      </trkpt>
      <trkpt lat="41.72929" lon="20.78452">
        <ele>1347.44489</ele>
        <time>2022-04-25T12:08:08.865Z</time>
      </trkpt>
      <trkpt lat="41.72923" lon="20.78462">
        <ele>1348.458052</ele>
        <time>2022-04-25T12:08:16.846Z</time>
      </trkpt>
      <trkpt lat="41.72917" lon="20.78473">
        <ele>1349.405737</ele>
        <time>2022-04-25T12:08:23.850Z</time>
      </trkpt>
      <trkpt lat="41.7291" lon="20.78482">
        <ele>1350.327109</ele>
        <time>2022-04-25T12:08:32.849Z</time>
      </trkpt>
      <trkpt lat="41.72903" lon="20.7849">
        <ele>1351.254255</ele>
        <time>2022-04-25T12:08:39.845Z</time>
      </trkpt>
      <trkpt lat="41.72895" lon="20.78497">
        <ele>1352.276189</ele>
        <time>2022-04-25T12:08:49.848Z</time>
      </trkpt>
      <trkpt lat="41.72885" lon="20.78504">
        <ele>1353.324822</ele>
        <time>2022-04-25T12:08:54.849Z</time>
      </trkpt>
      <trkpt lat="41.72877" lon="20.78508">
        <ele>1354.20864</ele>
        <time>2022-04-25T12:08:59.847Z</time>
      </trkpt>
      <trkpt lat="41.72867" lon="20.7851">
        <ele>1355.182996</ele>
        <time>2022-04-25T12:09:06.854Z</time>
      </trkpt>
      <trkpt lat="41.72857" lon="20.78514">
        <ele>1356.16007</ele>
        <time>2022-04-25T12:09:13.849Z</time>
      </trkpt>
      <trkpt lat="41.72848" lon="20.78516">
        <ele>1357.051963</ele>
        <time>2022-04-25T12:09:20.882Z</time>
      </trkpt>
      <trkpt lat="41.72838" lon="20.78515">
        <ele>1358.049696</ele>
        <time>2022-04-25T12:09:29.847Z</time>
      </trkpt>
      <trkpt lat="41.72831" lon="20.78507">
        <ele>1358.951599</ele>
        <time>2022-04-25T12:09:37.889Z</time>
      </trkpt>
      <trkpt lat="41.72823" lon="20.78498">
        <ele>1359.937972</ele>
        <time>2022-04-25T12:09:45.845Z</time>
      </trkpt>
      <trkpt lat="41.72815" lon="20.78494">
        <ele>1360.863777</ele>
        <time>2022-04-25T12:09:57.858Z</time>
      </trkpt>
      <trkpt lat="41.72807" lon="20.78484">
        <ele>1361.903725</ele>
        <time>2022-04-25T12:10:10.857Z</time>
      </trkpt>
      <trkpt lat="41.72798" lon="20.78475">
        <ele>1362.985248</ele>
        <time>2022-04-25T12:10:18.856Z</time>
      </trkpt>
      <trkpt lat="41.72791" lon="20.78467">
        <ele>1363.391057</ele>
        <time>2022-04-25T12:10:24.869Z</time>
      </trkpt>
      <trkpt lat="41.72785" lon="20.78457">
        <ele>1363.767601</ele>
        <time>2022-04-25T12:10:30.851Z</time>
      </trkpt>
      <trkpt lat="41.72778" lon="20.78448">
        <ele>1364.148882</ele>
        <time>2022-04-25T12:10:37.848Z</time>
      </trkpt>
      <trkpt lat="41.7277" lon="20.7844">
        <ele>1364.530812</ele>
        <time>2022-04-25T12:10:45.880Z</time>
      </trkpt>
      <trkpt lat="41.72762" lon="20.78431">
        <ele>1364.92457</ele>
        <time>2022-04-25T12:10:53.851Z</time>
      </trkpt>
      <trkpt lat="41.72755" lon="20.78424">
        <ele>1365.29394</ele>
        <time>2022-04-25T12:11:01.841Z</time>
      </trkpt>
      <trkpt lat="41.72746" lon="20.78417">
        <ele>1365.693693</ele>
        <time>2022-04-25T12:11:10.869Z</time>
      </trkpt>
      <trkpt lat="41.72739" lon="20.78409">
        <ele>1366.05154</ele>
        <time>2022-04-25T12:11:17.858Z</time>
      </trkpt>
      <trkpt lat="41.72731" lon="20.78402">
        <ele>1366.427003</ele>
        <time>2022-04-25T12:11:25.856Z</time>
      </trkpt>
      <trkpt lat="41.72721" lon="20.78398">
        <ele>1366.83476</ele>
        <time>2022-04-25T12:11:31.853Z</time>
      </trkpt>
      <trkpt lat="41.72711" lon="20.78395">
        <ele>1367.243638</ele>
        <time>2022-04-25T12:11:38.850Z</time>
      </trkpt>
      <trkpt lat="41.72702" lon="20.78393">
        <ele>1367.599815</ele>
        <time>2022-04-25T12:11:46.846Z</time>
      </trkpt>
      <trkpt lat="41.72693" lon="20.78391">
        <ele>1367.958553</ele>
        <time>2022-04-25T12:11:54.860Z</time>
      </trkpt>
      <trkpt lat="41.72683" lon="20.78389">
        <ele>1368.350394</ele>
        <time>2022-04-25T12:12:02.855Z</time>
      </trkpt>
      <trkpt lat="41.72673" lon="20.78386">
        <ele>1368.719869</ele>
        <time>2022-04-25T12:12:09.868Z</time>
      </trkpt>
      <trkpt lat="41.72666" lon="20.7838">
        <ele>1369.070634</ele>
        <time>2022-04-25T12:12:17.853Z</time>
      </trkpt>
      <trkpt lat="41.72658" lon="20.78372">
        <ele>1369.453929</ele>
        <time>2022-04-25T12:12:25.848Z</time>
      </trkpt>
      <trkpt lat="41.72652" lon="20.78362">
        <ele>1369.822131</ele>
        <time>2022-04-25T12:12:32.853Z</time>
      </trkpt>
      <trkpt lat="41.72646" lon="20.78353">
        <ele>1369.988584</ele>
        <time>2022-04-25T12:12:38.857Z</time>
      </trkpt>
      <trkpt lat="41.7264" lon="20.78343">
        <ele>1369.56316</ele>
        <time>2022-04-25T12:12:44.865Z</time>
      </trkpt>
      <trkpt lat="41.72635" lon="20.78332">
        <ele>1369.127644</ele>
        <time>2022-04-25T12:12:49.846Z</time>
      </trkpt>
      <trkpt lat="41.72631" lon="20.7832">
        <ele>1368.698402</ele>
        <time>2022-04-25T12:12:54.858Z</time>
      </trkpt>
      <trkpt lat="41.72627" lon="20.78307">
        <ele>1368.240437</ele>
        <time>2022-04-25T12:12:59.880Z</time>
      </trkpt>
      <trkpt lat="41.72625" lon="20.78295">
        <ele>1367.809761</ele>
        <time>2022-04-25T12:13:03.849Z</time>
      </trkpt>
      <trkpt lat="41.72622" lon="20.78279">
        <ele>1367.259703</ele>
        <time>2022-04-25T12:13:07.857Z</time>
      </trkpt>
      <trkpt lat="41.72619" lon="20.78262">
        <ele>1366.680466</ele>
        <time>2022-04-25T12:13:10.878Z</time>
      </trkpt>
      <trkpt lat="41.72617" lon="20.7825">
        <ele>1366.252242</ele>
        <time>2022-04-25T12:13:12.864Z</time>
      </trkpt>
      <trkpt lat="41.72613" lon="20.78236">
        <ele>1365.756276</ele>
        <time>2022-04-25T12:13:14.867Z</time>
      </trkpt>
      <trkpt lat="41.72606" lon="20.78222">
        <ele>1365.194783</ele>
        <time>2022-04-25T12:13:16.870Z</time>
      </trkpt>
      <trkpt lat="41.72597" lon="20.78208">
        <ele>1364.569652</ele>
        <time>2022-04-25T12:13:18.852Z</time>
      </trkpt>
      <trkpt lat="41.72587" lon="20.78195">
        <ele>1363.92114</ele>
        <time>2022-04-25T12:13:20.849Z</time>
      </trkpt>
      <trkpt lat="41.72577" lon="20.78181">
        <ele>1363.283044</ele>
        <time>2022-04-25T12:13:22.878Z</time>
      </trkpt>
      <trkpt lat="41.72569" lon="20.78166">
        <ele>1362.655745</ele>
        <time>2022-04-25T12:13:24.862Z</time>
      </trkpt>
      <trkpt lat="41.72563" lon="20.78146">
        <ele>1361.941082</ele>
        <time>2022-04-25T12:13:26.860Z</time>
      </trkpt>
      <trkpt lat="41.72562" lon="20.78124">
        <ele>1361.261344</ele>
        <time>2022-04-25T12:13:28.858Z</time>
      </trkpt>
      <trkpt lat="41.72564" lon="20.78104">
        <ele>1360.641337</ele>
        <time>2022-04-25T12:13:30.860Z</time>
      </trkpt>
      <trkpt lat="41.7257" lon="20.78087">
        <ele>1360.057492</ele>
        <time>2022-04-25T12:13:32.856Z</time>
      </trkpt>
      <trkpt lat="41.72578" lon="20.7807">
        <ele>1359.439039</ele>
        <time>2022-04-25T12:13:34.866Z</time>
      </trkpt>
      <trkpt lat="41.72589" lon="20.78056">
        <ele>1358.825714</ele>
        <time>2022-04-25T12:13:36.848Z</time>
      </trkpt>
      <trkpt lat="41.72601" lon="20.78045">
        <ele>1358.199091</ele>
        <time>2022-04-25T12:13:38.858Z</time>
      </trkpt>
      <trkpt lat="41.72613" lon="20.78033">
        <ele>1357.592859</ele>
        <time>2022-04-25T12:13:40.858Z</time>
      </trkpt>
      <trkpt lat="41.72623" lon="20.78019">
        <ele>1356.993138</ele>
        <time>2022-04-25T12:13:42.860Z</time>
      </trkpt>
      <trkpt lat="41.72632" lon="20.78004">
        <ele>1356.399265</ele>
        <time>2022-04-25T12:13:44.874Z</time>
      </trkpt>
      <trkpt lat="41.7264" lon="20.77985">
        <ele>1355.733326</ele>
        <time>2022-04-25T12:13:46.850Z</time>
      </trkpt>
      <trkpt lat="41.72645" lon="20.77965">
        <ele>1355.071273</ele>
        <time>2022-04-25T12:13:48.862Z</time>
      </trkpt>
      <trkpt lat="41.72647" lon="20.77947">
        <ele>1354.470922</ele>
        <time>2022-04-25T12:13:50.854Z</time>
      </trkpt>
      <trkpt lat="41.72648" lon="20.77931">
        <ele>1353.827802</ele>
        <time>2022-04-25T12:13:52.844Z</time>
      </trkpt>
      <trkpt lat="41.72647" lon="20.77915">
        <ele>1353.198412</ele>
        <time>2022-04-25T12:13:54.853Z</time>
      </trkpt>
      <trkpt lat="41.72643" lon="20.77901">
        <ele>1352.564915</ele>
        <time>2022-04-25T12:13:56.857Z</time>
      </trkpt>
      <trkpt lat="41.72637" lon="20.77888">
        <ele>1351.970621</ele>
        <time>2022-04-25T12:13:58.854Z</time>
      </trkpt>
      <trkpt lat="41.72631" lon="20.77879">
        <ele>1351.449264</ele>
        <time>2022-04-25T12:14:00.851Z</time>
      </trkpt>
      <trkpt lat="41.72622" lon="20.77866">
        <ele>1350.751426</ele>
        <time>2022-04-25T12:14:03.852Z</time>
      </trkpt>
      <trkpt lat="41.72612" lon="20.77856">
        <ele>1350.069401</ele>
        <time>2022-04-25T12:14:06.847Z</time>
      </trkpt>
      <trkpt lat="41.72602" lon="20.77847">
        <ele>1349.422914</ele>
        <time>2022-04-25T12:14:09.854Z</time>
      </trkpt>
      <trkpt lat="41.72592" lon="20.77839">
        <ele>1348.800589</ele>
        <time>2022-04-25T12:14:12.881Z</time>
      </trkpt>
      <trkpt lat="41.72583" lon="20.77832">
        <ele>1348.212597</ele>
        <time>2022-04-25T12:14:15.849Z</time>
      </trkpt>
      <trkpt lat="41.72573" lon="20.77825">
        <ele>1347.595746</ele>
        <time>2022-04-25T12:14:18.882Z</time>
      </trkpt>
      <trkpt lat="41.72564" lon="20.77817">
        <ele>1347.025798</ele>
        <time>2022-04-25T12:14:21.846Z</time>
      </trkpt>
      <trkpt lat="41.72555" lon="20.7781">
        <ele>1346.434606</ele>
        <time>2022-04-25T12:14:24.883Z</time>
      </trkpt>
      <trkpt lat="41.72544" lon="20.77802">
        <ele>1345.783287</ele>
        <time>2022-04-25T12:14:27.848Z</time>
      </trkpt>
      <trkpt lat="41.72534" lon="20.77793">
        <ele>1345.132171</ele>
        <time>2022-04-25T12:14:30.853Z</time>
      </trkpt>
      <trkpt lat="41.72525" lon="20.77782">
        <ele>1344.752808</ele>
        <time>2022-04-25T12:14:33.844Z</time>
      </trkpt>
      <trkpt lat="41.72518" lon="20.77769">
        <ele>1344.788135</ele>
        <time>2022-04-25T12:14:36.857Z</time>
      </trkpt>
      <trkpt lat="41.72512" lon="20.77755">
        <ele>1344.820682</ele>
        <time>2022-04-25T12:14:39.852Z</time>
      </trkpt>
      <trkpt lat="41.72509" lon="20.77743">
        <ele>1344.848488</ele>
        <time>2022-04-25T12:14:42.856Z</time>
      </trkpt>
      <trkpt lat="41.72507" lon="20.77731">
        <ele>1344.87495</ele>
        <time>2022-04-25T12:14:45.845Z</time>
      </trkpt>
      <trkpt lat="41.72506" lon="20.77718">
        <ele>1344.901239</ele>
        <time>2022-04-25T12:14:48.849Z</time>
      </trkpt>
      <trkpt lat="41.72507" lon="20.77704">
        <ele>1344.932189</ele>
        <time>2022-04-25T12:14:51.852Z</time>
      </trkpt>
      <trkpt lat="41.7251" lon="20.77689">
        <ele>1344.964968</ele>
        <time>2022-04-25T12:14:54.846Z</time>
      </trkpt>
      <trkpt lat="41.72512" lon="20.77676">
        <ele>1344.992954</ele>
        <time>2022-04-25T12:14:57.856Z</time>
      </trkpt>
      <trkpt lat="41.72518" lon="20.77663">
        <ele>1345.02472</ele>
        <time>2022-04-25T12:15:00.859Z</time>
      </trkpt>
      <trkpt lat="41.72523" lon="20.7765">
        <ele>1345.056347</ele>
        <time>2022-04-25T12:15:03.879Z</time>
      </trkpt>
      <trkpt lat="41.72529" lon="20.77637">
        <ele>1345.087691</ele>
        <time>2022-04-25T12:15:06.862Z</time>
      </trkpt>
      <trkpt lat="41.72536" lon="20.77624">
        <ele>1345.121716</ele>
        <time>2022-04-25T12:15:09.876Z</time>
      </trkpt>
      <trkpt lat="41.72541" lon="20.77611">
        <ele>1345.154728</ele>
        <time>2022-04-25T12:15:12.858Z</time>
      </trkpt>
      <trkpt lat="41.72547" lon="20.77596">
        <ele>1345.190022</ele>
        <time>2022-04-25T12:15:15.878Z</time>
      </trkpt>
      <trkpt lat="41.72551" lon="20.77579">
        <ele>1345.226499</ele>
        <time>2022-04-25T12:15:18.852Z</time>
      </trkpt>
      <trkpt lat="41.72553" lon="20.77562">
        <ele>1345.408579</ele>
        <time>2022-04-25T12:15:21.856Z</time>
      </trkpt>
      <trkpt lat="41.72552" lon="20.77544">
        <ele>1345.85438</ele>
        <time>2022-04-25T12:15:24.852Z</time>
      </trkpt>
      <trkpt lat="41.72551" lon="20.77532">
        <ele>1346.162974</ele>
        <time>2022-04-25T12:15:26.851Z</time>
      </trkpt>
      <trkpt lat="41.72547" lon="20.77515">
        <ele>1346.597635</ele>
        <time>2022-04-25T12:15:29.851Z</time>
      </trkpt>
      <trkpt lat="41.72541" lon="20.77501">
        <ele>1347.0003</ele>
        <time>2022-04-25T12:15:32.855Z</time>
      </trkpt>
      <trkpt lat="41.72533" lon="20.77489">
        <ele>1347.397422</ele>
        <time>2022-04-25T12:15:35.849Z</time>
      </trkpt>
      <trkpt lat="41.72524" lon="20.77478">
        <ele>1347.812361</ele>
        <time>2022-04-25T12:15:38.848Z</time>
      </trkpt>
      <trkpt lat="41.72516" lon="20.77472">
        <ele>1348.114857</ele>
        <time>2022-04-25T12:15:40.866Z</time>
      </trkpt>
      <trkpt lat="41.72505" lon="20.77464">
        <ele>1348.516943</ele>
        <time>2022-04-25T12:15:43.845Z</time>
      </trkpt>
      <trkpt lat="41.72493" lon="20.77461">
        <ele>1348.915205</ele>
        <time>2022-04-25T12:15:46.864Z</time>
      </trkpt>
      <trkpt lat="41.72481" lon="20.77459">
        <ele>1349.336756</ele>
        <time>2022-04-25T12:15:49.853Z</time>
      </trkpt>
      <trkpt lat="41.72467" lon="20.77458">
        <ele>1349.791508</ele>
        <time>2022-04-25T12:15:52.857Z</time>
      </trkpt>
      <trkpt lat="41.72457" lon="20.77458">
        <ele>1350.103401</ele>
        <time>2022-04-25T12:15:54.856Z</time>
      </trkpt>
      <trkpt lat="41.72448" lon="20.77457">
        <ele>1350.415412</ele>
        <time>2022-04-25T12:15:56.857Z</time>
      </trkpt>
      <trkpt lat="41.72439" lon="20.77458">
        <ele>1350.727511</ele>
        <time>2022-04-25T12:15:58.850Z</time>
      </trkpt>
      <trkpt lat="41.72427" lon="20.77462">
        <ele>1351.120465</ele>
        <time>2022-04-25T12:16:01.848Z</time>
      </trkpt>
      <trkpt lat="41.72418" lon="20.77461">
        <ele>1351.00448</ele>
        <time>2022-04-25T12:16:03.870Z</time>
      </trkpt>
      <trkpt lat="41.72409" lon="20.77459">
        <ele>1350.718734</ele>
        <time>2022-04-25T12:16:05.849Z</time>
      </trkpt>
      <trkpt lat="41.724" lon="20.77455">
        <ele>1350.422846</ele>
        <time>2022-04-25T12:16:07.853Z</time>
      </trkpt>
      <trkpt lat="41.7239" lon="20.77451">
        <ele>1350.115862</ele>
        <time>2022-04-25T12:16:09.853Z</time>
      </trkpt>
      <trkpt lat="41.7238" lon="20.77445">
        <ele>1349.769821</ele>
        <time>2022-04-25T12:16:11.856Z</time>
      </trkpt>
      <trkpt lat="41.7237" lon="20.77438">
        <ele>1349.391342</ele>
        <time>2022-04-25T12:16:13.850Z</time>
      </trkpt>
      <trkpt lat="41.72361" lon="20.7743">
        <ele>1349.051523</ele>
        <time>2022-04-25T12:16:15.846Z</time>
      </trkpt>
      <trkpt lat="41.72353" lon="20.77422">
        <ele>1348.733498</ele>
        <time>2022-04-25T12:16:17.855Z</time>
      </trkpt>
      <trkpt lat="41.72344" lon="20.77413">
        <ele>1348.385654</ele>
        <time>2022-04-25T12:16:19.878Z</time>
      </trkpt>
      <trkpt lat="41.72335" lon="20.77404">
        <ele>1348.036627</ele>
        <time>2022-04-25T12:16:21.847Z</time>
      </trkpt>
      <trkpt lat="41.72326" lon="20.77397">
        <ele>1347.706868</ele>
        <time>2022-04-25T12:16:23.849Z</time>
      </trkpt>
      <trkpt lat="41.72317" lon="20.77391">
        <ele>1347.392949</ele>
        <time>2022-04-25T12:16:25.859Z</time>
      </trkpt>
      <trkpt lat="41.72308" lon="20.77385">
        <ele>1347.081491</ele>
        <time>2022-04-25T12:16:27.855Z</time>
      </trkpt>
      <trkpt lat="41.72299" lon="20.77381">
        <ele>1346.781968</ele>
        <time>2022-04-25T12:16:29.848Z</time>
      </trkpt>
      <trkpt lat="41.7229" lon="20.77376">
        <ele>1346.465185</ele>
        <time>2022-04-25T12:16:31.850Z</time>
      </trkpt>
      <trkpt lat="41.72281" lon="20.77372">
        <ele>1346.163997</ele>
        <time>2022-04-25T12:16:33.846Z</time>
      </trkpt>
      <trkpt lat="41.72271" lon="20.77368">
        <ele>1345.839844</ele>
        <time>2022-04-25T12:16:35.849Z</time>
      </trkpt>
      <trkpt lat="41.72261" lon="20.77363">
        <ele>1345.485527</ele>
        <time>2022-04-25T12:16:37.846Z</time>
      </trkpt>
      <trkpt lat="41.72252" lon="20.77358">
        <ele>1344.983429</ele>
        <time>2022-04-25T12:16:39.850Z</time>
      </trkpt>
      <trkpt lat="41.72242" lon="20.77353">
        <ele>1344.430796</ele>
        <time>2022-04-25T12:16:41.872Z</time>
      </trkpt>
      <trkpt lat="41.72232" lon="20.77348">
        <ele>1343.842995</ele>
        <time>2022-04-25T12:16:43.865Z</time>
      </trkpt>
      <trkpt lat="41.72221" lon="20.77342">
        <ele>1343.219203</ele>
        <time>2022-04-25T12:16:45.850Z</time>
      </trkpt>
      <trkpt lat="41.7221" lon="20.77335">
        <ele>1342.605077</ele>
        <time>2022-04-25T12:16:47.874Z</time>
      </trkpt>
      <trkpt lat="41.722" lon="20.7733">
        <ele>1342.056896</ele>
        <time>2022-04-25T12:16:49.862Z</time>
      </trkpt>
      <trkpt lat="41.7219" lon="20.77325">
        <ele>1341.514972</ele>
        <time>2022-04-25T12:16:51.846Z</time>
      </trkpt>
      <trkpt lat="41.72181" lon="20.77318">
        <ele>1340.96685</ele>
        <time>2022-04-25T12:16:53.852Z</time>
      </trkpt>
      <trkpt lat="41.72171" lon="20.77313">
        <ele>1340.409036</ele>
        <time>2022-04-25T12:16:55.854Z</time>
      </trkpt>
      <trkpt lat="41.72161" lon="20.77307">
        <ele>1339.875425</ele>
        <time>2022-04-25T12:16:57.854Z</time>
      </trkpt>
      <trkpt lat="41.72153" lon="20.77302">
        <ele>1339.387472</ele>
        <time>2022-04-25T12:16:59.848Z</time>
      </trkpt>
      <trkpt lat="41.72141" lon="20.77295">
        <ele>1338.713301</ele>
        <time>2022-04-25T12:17:02.864Z</time>
      </trkpt>
      <trkpt lat="41.7213" lon="20.77288">
        <ele>1338.07365</ele>
        <time>2022-04-25T12:17:05.853Z</time>
      </trkpt>
      <trkpt lat="41.72118" lon="20.77281">
        <ele>1337.430953</ele>
        <time>2022-04-25T12:17:08.861Z</time>
      </trkpt>
      <trkpt lat="41.72108" lon="20.77276">
        <ele>1336.838493</ele>
        <time>2022-04-25T12:17:11.842Z</time>
      </trkpt>
      <trkpt lat="41.72099" lon="20.7727">
        <ele>1336.338034</ele>
        <time>2022-04-25T12:17:14.846Z</time>
      </trkpt>
      <trkpt lat="41.72087" lon="20.77267">
        <ele>1336.365881</ele>
        <time>2022-04-25T12:17:17.862Z</time>
      </trkpt>
      <trkpt lat="41.72076" lon="20.77263">
        <ele>1336.541922</ele>
        <time>2022-04-25T12:17:20.864Z</time>
      </trkpt>
      <trkpt lat="41.72067" lon="20.77256">
        <ele>1336.714403</ele>
        <time>2022-04-25T12:17:24.854Z</time>
      </trkpt>
      <trkpt lat="41.72058" lon="20.7725">
        <ele>1336.865236</ele>
        <time>2022-04-25T12:17:30.861Z</time>
      </trkpt>
      <trkpt lat="41.72049" lon="20.7723">
        <ele>1337.15368</ele>
        <time>2022-04-25T12:35:20.872Z</time>
      </trkpt>
      <trkpt lat="41.72046" lon="20.77217">
        <ele>1337.303442</ele>
        <time>2022-04-25T12:35:23.854Z</time>
      </trkpt>
      <trkpt lat="41.72042" lon="20.77203">
        <ele>1337.483756</ele>
        <time>2022-04-25T12:35:26.874Z</time>
      </trkpt>
      <trkpt lat="41.72036" lon="20.7719">
        <ele>1337.66688</ele>
        <time>2022-04-25T12:35:29.868Z</time>
      </trkpt>
      <trkpt lat="41.72029" lon="20.77179">
        <ele>1337.844951</ele>
        <time>2022-04-25T12:35:32.886Z</time>
      </trkpt>
      <trkpt lat="41.72021" lon="20.77167">
        <ele>1338.027896</ele>
        <time>2022-04-25T12:35:35.909Z</time>
      </trkpt>
      <trkpt lat="41.72013" lon="20.77156">
        <ele>1338.215838</ele>
        <time>2022-04-25T12:35:38.890Z</time>
      </trkpt>
      <trkpt lat="41.72004" lon="20.77145">
        <ele>1338.413968</ele>
        <time>2022-04-25T12:35:41.871Z</time>
      </trkpt>
      <trkpt lat="41.71994" lon="20.77136">
        <ele>1338.604893</ele>
        <time>2022-04-25T12:35:44.880Z</time>
      </trkpt>
      <trkpt lat="41.71982" lon="20.77129">
        <ele>1338.800506</ele>
        <time>2022-04-25T12:35:47.874Z</time>
      </trkpt>
      <trkpt lat="41.71971" lon="20.77124">
        <ele>1338.999202</ele>
        <time>2022-04-25T12:35:50.872Z</time>
      </trkpt>
      <trkpt lat="41.7196" lon="20.77119">
        <ele>1339.213062</ele>
        <time>2022-04-25T12:35:53.873Z</time>
      </trkpt>
      <trkpt lat="41.7195" lon="20.77117">
        <ele>1339.412631</ele>
        <time>2022-04-25T12:35:56.869Z</time>
      </trkpt>
      <trkpt lat="41.71941" lon="20.77116">
        <ele>1339.603839</ele>
        <time>2022-04-25T12:35:59.878Z</time>
      </trkpt>
      <trkpt lat="41.71931" lon="20.77117">
        <ele>1339.821946</ele>
        <time>2022-04-25T12:36:02.894Z</time>
      </trkpt>
      <trkpt lat="41.71919" lon="20.77118">
        <ele>1340.055189</ele>
        <time>2022-04-25T12:36:05.984Z</time>
      </trkpt>
      <trkpt lat="41.71907" lon="20.77121">
        <ele>1340.32374</ele>
        <time>2022-04-25T12:36:08.866Z</time>
      </trkpt>
      <trkpt lat="41.71893" lon="20.77124">
        <ele>1340.606867</ele>
        <time>2022-04-25T12:36:11.892Z</time>
      </trkpt>
      <trkpt lat="41.71884" lon="20.77126">
        <ele>1340.80604</ele>
        <time>2022-04-25T12:36:13.885Z</time>
      </trkpt>
      <trkpt lat="41.71874" lon="20.77126">
        <ele>1340.997047</ele>
        <time>2022-04-25T12:36:15.871Z</time>
      </trkpt>
      <trkpt lat="41.71861" lon="20.77123">
        <ele>1341.277558</ele>
        <time>2022-04-25T12:36:18.876Z</time>
      </trkpt>
      <trkpt lat="41.71852" lon="20.77118">
        <ele>1341.487687</ele>
        <time>2022-04-25T12:36:20.863Z</time>
      </trkpt>
      <trkpt lat="41.71842" lon="20.77113">
        <ele>1341.706341</ele>
        <time>2022-04-25T12:36:22.887Z</time>
      </trkpt>
      <trkpt lat="41.71833" lon="20.77107">
        <ele>1341.914223</ele>
        <time>2022-04-25T12:36:24.892Z</time>
      </trkpt>
      <trkpt lat="41.71823" lon="20.77103">
        <ele>1342.126814</ele>
        <time>2022-04-25T12:36:26.868Z</time>
      </trkpt>
      <trkpt lat="41.71814" lon="20.77097">
        <ele>1342.342302</ele>
        <time>2022-04-25T12:36:28.881Z</time>
      </trkpt>
      <trkpt lat="41.71805" lon="20.77091">
        <ele>1342.5483</ele>
        <time>2022-04-25T12:36:30.902Z</time>
      </trkpt>
      <trkpt lat="41.71796" lon="20.77086">
        <ele>1342.751119</ele>
        <time>2022-04-25T12:36:32.873Z</time>
      </trkpt>
      <trkpt lat="41.71787" lon="20.77081">
        <ele>1342.611502</ele>
        <time>2022-04-25T12:36:34.877Z</time>
      </trkpt>
      <trkpt lat="41.71775" lon="20.77074">
        <ele>1342.225234</ele>
        <time>2022-04-25T12:36:37.892Z</time>
      </trkpt>
      <trkpt lat="41.71764" lon="20.77065">
        <ele>1341.856461</ele>
        <time>2022-04-25T12:36:40.891Z</time>
      </trkpt>
      <trkpt lat="41.71753" lon="20.77056">
        <ele>1341.463868</ele>
        <time>2022-04-25T12:36:43.875Z</time>
      </trkpt>
      <trkpt lat="41.71745" lon="20.77049">
        <ele>1341.196866</ele>
        <time>2022-04-25T12:36:45.877Z</time>
      </trkpt>
      <trkpt lat="41.71736" lon="20.77042">
        <ele>1340.910028</ele>
        <time>2022-04-25T12:36:47.878Z</time>
      </trkpt>
      <trkpt lat="41.71728" lon="20.77032">
        <ele>1340.592458</ele>
        <time>2022-04-25T12:36:49.896Z</time>
      </trkpt>
      <trkpt lat="41.71721" lon="20.77021">
        <ele>1340.273012</ele>
        <time>2022-04-25T12:36:51.878Z</time>
      </trkpt>
      <trkpt lat="41.71713" lon="20.7701">
        <ele>1339.952375</ele>
        <time>2022-04-25T12:36:53.895Z</time>
      </trkpt>
      <trkpt lat="41.71707" lon="20.76998">
        <ele>1339.641198</ele>
        <time>2022-04-25T12:36:55.870Z</time>
      </trkpt>
      <trkpt lat="41.71702" lon="20.76986">
        <ele>1339.336016</ele>
        <time>2022-04-25T12:36:57.866Z</time>
      </trkpt>
      <trkpt lat="41.71696" lon="20.76974">
        <ele>1339.027168</ele>
        <time>2022-04-25T12:36:59.906Z</time>
      </trkpt>
      <trkpt lat="41.71692" lon="20.76958">
        <ele>1338.647301</ele>
        <time>2022-04-25T12:37:02.874Z</time>
      </trkpt>
      <trkpt lat="41.7169" lon="20.7694">
        <ele>1338.266742</ele>
        <time>2022-04-25T12:37:05.873Z</time>
      </trkpt>
      <trkpt lat="41.71691" lon="20.76928">
        <ele>1338.005996</ele>
        <time>2022-04-25T12:37:07.886Z</time>
      </trkpt>
      <trkpt lat="41.71692" lon="20.76913">
        <ele>1337.685539</ele>
        <time>2022-04-25T12:37:09.872Z</time>
      </trkpt>
      <trkpt lat="41.71694" lon="20.76899">
        <ele>1337.349454</ele>
        <time>2022-04-25T12:37:11.875Z</time>
      </trkpt>
      <trkpt lat="41.71695" lon="20.76884">
        <ele>1337.00514</ele>
        <time>2022-04-25T12:37:13.857Z</time>
      </trkpt>
      <trkpt lat="41.71697" lon="20.7687">
        <ele>1336.696888</ele>
        <time>2022-04-25T12:37:15.878Z</time>
      </trkpt>
      <trkpt lat="41.71698" lon="20.76856">
        <ele>1336.371059</ele>
        <time>2022-04-25T12:37:17.910Z</time>
      </trkpt>
      <trkpt lat="41.71697" lon="20.76842">
        <ele>1336.050873</ele>
        <time>2022-04-25T12:37:19.860Z</time>
      </trkpt>
      <trkpt lat="41.71696" lon="20.76829">
        <ele>1335.758036</ele>
        <time>2022-04-25T12:37:21.909Z</time>
      </trkpt>
      <trkpt lat="41.71695" lon="20.76817">
        <ele>1335.475041</ele>
        <time>2022-04-25T12:37:23.869Z</time>
      </trkpt>
      <trkpt lat="41.71691" lon="20.768">
        <ele>1335.062707</ele>
        <time>2022-04-25T12:37:26.871Z</time>
      </trkpt>
      <trkpt lat="41.71687" lon="20.76783">
        <ele>1334.672079</ele>
        <time>2022-04-25T12:37:29.877Z</time>
      </trkpt>
      <trkpt lat="41.71682" lon="20.76768">
        <ele>1334.279253</ele>
        <time>2022-04-25T12:37:32.877Z</time>
      </trkpt>
      <trkpt lat="41.71678" lon="20.76757">
        <ele>1334.003082</ele>
        <time>2022-04-25T12:37:34.885Z</time>
      </trkpt>
      <trkpt lat="41.71672" lon="20.76747">
        <ele>1333.721138</ele>
        <time>2022-04-25T12:37:36.868Z</time>
      </trkpt>
      <trkpt lat="41.71666" lon="20.76738">
        <ele>1333.445476</ele>
        <time>2022-04-25T12:37:38.894Z</time>
      </trkpt>
      <trkpt lat="41.71656" lon="20.76727">
        <ele>1333.037478</ele>
        <time>2022-04-25T12:37:41.878Z</time>
      </trkpt>
      <trkpt lat="41.71646" lon="20.76715">
        <ele>1332.642574</ele>
        <time>2022-04-25T12:37:44.872Z</time>
      </trkpt>
      <trkpt lat="41.71636" lon="20.76705">
        <ele>1332.2571</ele>
        <time>2022-04-25T12:37:47.867Z</time>
      </trkpt>
      <trkpt lat="41.71625" lon="20.76696">
        <ele>1332.141673</ele>
        <time>2022-04-25T12:37:50.888Z</time>
      </trkpt>
      <trkpt lat="41.71615" lon="20.76687">
        <ele>1332.20872</ele>
        <time>2022-04-25T12:37:53.871Z</time>
      </trkpt>
      <trkpt lat="41.71604" lon="20.76678">
        <ele>1332.272462</ele>
        <time>2022-04-25T12:37:56.874Z</time>
      </trkpt>
      <trkpt lat="41.71594" lon="20.7667">
        <ele>1332.335979</ele>
        <time>2022-04-25T12:37:59.878Z</time>
      </trkpt>
      <trkpt lat="41.71583" lon="20.76661">
        <ele>1332.403123</ele>
        <time>2022-04-25T12:38:02.876Z</time>
      </trkpt>
      <trkpt lat="41.71572" lon="20.76653">
        <ele>1332.469311</ele>
        <time>2022-04-25T12:38:05.870Z</time>
      </trkpt>
      <trkpt lat="41.71561" lon="20.76646">
        <ele>1332.530433</ele>
        <time>2022-04-25T12:38:08.871Z</time>
      </trkpt>
      <trkpt lat="41.7155" lon="20.76638">
        <ele>1332.595328</ele>
        <time>2022-04-25T12:38:11.907Z</time>
      </trkpt>
      <trkpt lat="41.7154" lon="20.76633">
        <ele>1332.655138</ele>
        <time>2022-04-25T12:38:14.878Z</time>
      </trkpt>
      <trkpt lat="41.71528" lon="20.76627">
        <ele>1332.717738</ele>
        <time>2022-04-25T12:38:17.901Z</time>
      </trkpt>
      <trkpt lat="41.71518" lon="20.7662">
        <ele>1332.779795</ele>
        <time>2022-04-25T12:38:20.878Z</time>
      </trkpt>
      <trkpt lat="41.71506" lon="20.76614">
        <ele>1332.84834</ele>
        <time>2022-04-25T12:38:23.874Z</time>
      </trkpt>
      <trkpt lat="41.71493" lon="20.7661">
        <ele>1332.915411</ele>
        <time>2022-04-25T12:38:26.875Z</time>
      </trkpt>
      <trkpt lat="41.7148" lon="20.76606">
        <ele>1332.983819</ele>
        <time>2022-04-25T12:38:29.869Z</time>
      </trkpt>
      <trkpt lat="41.71468" lon="20.76605">
        <ele>1333.065663</ele>
        <time>2022-04-25T12:38:32.888Z</time>
      </trkpt>
      <trkpt lat="41.71456" lon="20.76608">
        <ele>1333.582631</ele>
        <time>2022-04-25T12:38:35.881Z</time>
      </trkpt>
      <trkpt lat="41.71444" lon="20.76614">
        <ele>1334.102704</ele>
        <time>2022-04-25T12:38:38.902Z</time>
      </trkpt>
      <trkpt lat="41.71435" lon="20.76619">
        <ele>1334.482295</ele>
        <time>2022-04-25T12:38:40.872Z</time>
      </trkpt>
      <trkpt lat="41.71427" lon="20.76625">
        <ele>1334.879023</ele>
        <time>2022-04-25T12:38:42.882Z</time>
      </trkpt>
      <trkpt lat="41.71417" lon="20.76633">
        <ele>1335.328511</ele>
        <time>2022-04-25T12:38:44.875Z</time>
      </trkpt>
      <trkpt lat="41.71409" lon="20.76641">
        <ele>1335.737705</ele>
        <time>2022-04-25T12:38:46.882Z</time>
      </trkpt>
      <trkpt lat="41.714" lon="20.76653">
        <ele>1336.254333</ele>
        <time>2022-04-25T12:38:49.862Z</time>
      </trkpt>
      <trkpt lat="41.71395" lon="20.76663">
        <ele>1336.631062</ele>
        <time>2022-04-25T12:38:51.893Z</time>
      </trkpt>
      <trkpt lat="41.71389" lon="20.76673">
        <ele>1337.022296</ele>
        <time>2022-04-25T12:38:53.880Z</time>
      </trkpt>
      <trkpt lat="41.71383" lon="20.76683">
        <ele>1337.404945</ele>
        <time>2022-04-25T12:38:55.948Z</time>
      </trkpt>
      <trkpt lat="41.71375" lon="20.76693">
        <ele>1337.821906</ele>
        <time>2022-04-25T12:38:57.896Z</time>
      </trkpt>
      <trkpt lat="41.71368" lon="20.76703">
        <ele>1338.276115</ele>
        <time>2022-04-25T12:38:59.888Z</time>
      </trkpt>
      <trkpt lat="41.71358" lon="20.76712">
        <ele>1338.747238</ele>
        <time>2022-04-25T12:39:01.874Z</time>
      </trkpt>
      <trkpt lat="41.71348" lon="20.7672">
        <ele>1339.218475</ele>
        <time>2022-04-25T12:39:03.880Z</time>
      </trkpt>
      <trkpt lat="41.71338" lon="20.76728">
        <ele>1339.703289</ele>
        <time>2022-04-25T12:39:05.877Z</time>
      </trkpt>
      <trkpt lat="41.71328" lon="20.76734">
        <ele>1340.152107</ele>
        <time>2022-04-25T12:39:07.864Z</time>
      </trkpt>
      <trkpt lat="41.71318" lon="20.76739">
        <ele>1339.858086</ele>
        <time>2022-04-25T12:39:09.871Z</time>
      </trkpt>
      <trkpt lat="41.71306" lon="20.76741">
        <ele>1338.615982</ele>
        <time>2022-04-25T12:39:12.862Z</time>
      </trkpt>
      <trkpt lat="41.71297" lon="20.7674">
        <ele>1337.701316</ele>
        <time>2022-04-25T12:39:14.899Z</time>
      </trkpt>
      <trkpt lat="41.71287" lon="20.76739">
        <ele>1336.686235</ele>
        <time>2022-04-25T12:39:16.871Z</time>
      </trkpt>
      <trkpt lat="41.71276" lon="20.7674">
        <ele>1335.662746</ele>
        <time>2022-04-25T12:39:18.884Z</time>
      </trkpt>
      <trkpt lat="41.71265" lon="20.76738">
        <ele>1334.548489</ele>
        <time>2022-04-25T12:39:21.880Z</time>
      </trkpt>
      <trkpt lat="41.71253" lon="20.76733">
        <ele>1333.289821</ele>
        <time>2022-04-25T12:39:24.893Z</time>
      </trkpt>
      <trkpt lat="41.71242" lon="20.7673">
        <ele>1332.152138</ele>
        <time>2022-04-25T12:39:26.884Z</time>
      </trkpt>
      <trkpt lat="41.7123" lon="20.76724">
        <ele>1330.899644</ele>
        <time>2022-04-25T12:39:28.868Z</time>
      </trkpt>
      <trkpt lat="41.7122" lon="20.76718">
        <ele>1329.799107</ele>
        <time>2022-04-25T12:39:30.872Z</time>
      </trkpt>
      <trkpt lat="41.71213" lon="20.7671">
        <ele>1328.904352</ele>
        <time>2022-04-25T12:39:32.871Z</time>
      </trkpt>
      <trkpt lat="41.71204" lon="20.76697">
        <ele>1327.565655</ele>
        <time>2022-04-25T12:39:35.882Z</time>
      </trkpt>
      <trkpt lat="41.71198" lon="20.76687">
        <ele>1326.662715</ele>
        <time>2022-04-25T12:39:37.881Z</time>
      </trkpt>
      <trkpt lat="41.71194" lon="20.76676">
        <ele>1325.690829</ele>
        <time>2022-04-25T12:39:39.868Z</time>
      </trkpt>
      <trkpt lat="41.71189" lon="20.76664">
        <ele>1324.763796</ele>
        <time>2022-04-25T12:39:41.888Z</time>
      </trkpt>
      <trkpt lat="41.71186" lon="20.76652">
        <ele>1323.77061</ele>
        <time>2022-04-25T12:39:43.893Z</time>
      </trkpt>
      <trkpt lat="41.71182" lon="20.7664">
        <ele>1322.850383</ele>
        <time>2022-04-25T12:39:45.859Z</time>
      </trkpt>
      <trkpt lat="41.71178" lon="20.76624">
        <ele>1322.189583</ele>
        <time>2022-04-25T12:39:48.917Z</time>
      </trkpt>
      <trkpt lat="41.71175" lon="20.76612">
        <ele>1321.905423</ele>
        <time>2022-04-25T12:39:50.872Z</time>
      </trkpt>
      <trkpt lat="41.71172" lon="20.766">
        <ele>1321.609307</ele>
        <time>2022-04-25T12:39:52.900Z</time>
      </trkpt>
      <trkpt lat="41.71168" lon="20.76588">
        <ele>1321.306454</ele>
        <time>2022-04-25T12:39:54.858Z</time>
      </trkpt>
      <trkpt lat="41.71164" lon="20.76576">
        <ele>1320.999021</ele>
        <time>2022-04-25T12:39:56.867Z</time>
      </trkpt>
      <trkpt lat="41.7116" lon="20.76561">
        <ele>1320.626308</ele>
        <time>2022-04-25T12:39:59.892Z</time>
      </trkpt>
      <trkpt lat="41.71156" lon="20.76549">
        <ele>1320.321015</ele>
        <time>2022-04-25T12:40:01.874Z</time>
      </trkpt>
      <trkpt lat="41.71152" lon="20.76538">
        <ele>1320.0314</ele>
        <time>2022-04-25T12:40:03.874Z</time>
      </trkpt>
      <trkpt lat="41.71148" lon="20.76522">
        <ele>1319.636802</ele>
        <time>2022-04-25T12:40:06.905Z</time>
      </trkpt>
      <trkpt lat="41.71143" lon="20.76506">
        <ele>1319.227891</ele>
        <time>2022-04-25T12:40:09.873Z</time>
      </trkpt>
      <trkpt lat="41.71139" lon="20.76495">
        <ele>1318.943446</ele>
        <time>2022-04-25T12:40:11.878Z</time>
      </trkpt>
      <trkpt lat="41.71134" lon="20.76479">
        <ele>1318.552114</ele>
        <time>2022-04-25T12:40:14.865Z</time>
      </trkpt>
      <trkpt lat="41.71128" lon="20.76464">
        <ele>1318.148972</ele>
        <time>2022-04-25T12:40:17.889Z</time>
      </trkpt>
      <trkpt lat="41.7112" lon="20.7645">
        <ele>1317.733961</ele>
        <time>2022-04-25T12:40:20.867Z</time>
      </trkpt>
      <trkpt lat="41.71114" lon="20.7644">
        <ele>1317.432869</ele>
        <time>2022-04-25T12:40:22.872Z</time>
      </trkpt>
      <trkpt lat="41.71107" lon="20.7643">
        <ele>1317.116481</ele>
        <time>2022-04-25T12:40:24.883Z</time>
      </trkpt>
      <trkpt lat="41.711" lon="20.76422">
        <ele>1316.899692</ele>
        <time>2022-04-25T12:40:26.890Z</time>
      </trkpt>
      <trkpt lat="41.71089" lon="20.76413">
        <ele>1317.196785</ele>
        <time>2022-04-25T12:40:29.908Z</time>
      </trkpt>
      <trkpt lat="41.71081" lon="20.76407">
        <ele>1317.408328</ele>
        <time>2022-04-25T12:40:31.889Z</time>
      </trkpt>
      <trkpt lat="41.71072" lon="20.76402">
        <ele>1317.626516</ele>
        <time>2022-04-25T12:40:33.886Z</time>
      </trkpt>
      <trkpt lat="41.7106" lon="20.76396">
        <ele>1317.915246</ele>
        <time>2022-04-25T12:40:36.869Z</time>
      </trkpt>
      <trkpt lat="41.71047" lon="20.76392">
        <ele>1318.209253</ele>
        <time>2022-04-25T12:40:39.897Z</time>
      </trkpt>
      <trkpt lat="41.71039" lon="20.76388">
        <ele>1318.414797</ele>
        <time>2022-04-25T12:40:41.902Z</time>
      </trkpt>
      <trkpt lat="41.7103" lon="20.76386">
        <ele>1318.620701</ele>
        <time>2022-04-25T12:40:43.879Z</time>
      </trkpt>
      <trkpt lat="41.7102" lon="20.76383">
        <ele>1318.840615</ele>
        <time>2022-04-25T12:40:45.898Z</time>
      </trkpt>
      <trkpt lat="41.71011" lon="20.76381">
        <ele>1319.063745</ele>
        <time>2022-04-25T12:40:47.931Z</time>
      </trkpt>
      <trkpt lat="41.71001" lon="20.76379">
        <ele>1319.286335</ele>
        <time>2022-04-25T12:40:49.872Z</time>
      </trkpt>
      <trkpt lat="41.7099" lon="20.76376">
        <ele>1319.538054</ele>
        <time>2022-04-25T12:40:51.876Z</time>
      </trkpt>
      <trkpt lat="41.70978" lon="20.76374">
        <ele>1319.806015</ele>
        <time>2022-04-25T12:40:53.879Z</time>
      </trkpt>
      <trkpt lat="41.70967" lon="20.76373">
        <ele>1320.052107</ele>
        <time>2022-04-25T12:40:55.880Z</time>
      </trkpt>
      <trkpt lat="41.70958" lon="20.76371">
        <ele>1320.275634</ele>
        <time>2022-04-25T12:40:57.887Z</time>
      </trkpt>
      <trkpt lat="41.70948" lon="20.7637">
        <ele>1320.5032</ele>
        <time>2022-04-25T12:40:59.888Z</time>
      </trkpt>
      <trkpt lat="41.70936" lon="20.76369">
        <ele>1320.767514</ele>
        <time>2022-04-25T12:41:01.872Z</time>
      </trkpt>
      <trkpt lat="41.70924" lon="20.76366">
        <ele>1320.797299</ele>
        <time>2022-04-25T12:41:03.872Z</time>
      </trkpt>
      <trkpt lat="41.70913" lon="20.76363">
        <ele>1320.376806</ele>
        <time>2022-04-25T12:41:05.880Z</time>
      </trkpt>
      <trkpt lat="41.70902" lon="20.76359">
        <ele>1319.950021</ele>
        <time>2022-04-25T12:41:07.875Z</time>
      </trkpt>
      <trkpt lat="41.70891" lon="20.76354">
        <ele>1319.484016</ele>
        <time>2022-04-25T12:41:09.904Z</time>
      </trkpt>
      <trkpt lat="41.70878" lon="20.76347">
        <ele>1318.969973</ele>
        <time>2022-04-25T12:41:11.879Z</time>
      </trkpt>
      <trkpt lat="41.70864" lon="20.7634">
        <ele>1318.416507</ele>
        <time>2022-04-25T12:41:13.876Z</time>
      </trkpt>
      <trkpt lat="41.70851" lon="20.76332">
        <ele>1317.888158</ele>
        <time>2022-04-25T12:41:15.863Z</time>
      </trkpt>
      <trkpt lat="41.70839" lon="20.76322">
        <ele>1317.369567</ele>
        <time>2022-04-25T12:41:17.868Z</time>
      </trkpt>
      <trkpt lat="41.70828" lon="20.76312">
        <ele>1316.870858</ele>
        <time>2022-04-25T12:41:19.895Z</time>
      </trkpt>
      <trkpt lat="41.70818" lon="20.76302">
        <ele>1316.392318</ele>
        <time>2022-04-25T12:41:21.894Z</time>
      </trkpt>
      <trkpt lat="41.70808" lon="20.76293">
        <ele>1315.927815</ele>
        <time>2022-04-25T12:41:23.859Z</time>
      </trkpt>
      <trkpt lat="41.70799" lon="20.76283">
        <ele>1315.499226</ele>
        <time>2022-04-25T12:41:25.881Z</time>
      </trkpt>
      <trkpt lat="41.70791" lon="20.76275">
        <ele>1315.116719</ele>
        <time>2022-04-25T12:41:27.872Z</time>
      </trkpt>
      <trkpt lat="41.70783" lon="20.76268">
        <ele>1314.756748</ele>
        <time>2022-04-25T12:41:29.878Z</time>
      </trkpt>
      <trkpt lat="41.70775" lon="20.7626">
        <ele>1314.381228</ele>
        <time>2022-04-25T12:41:31.885Z</time>
      </trkpt>
      <trkpt lat="41.70767" lon="20.76253">
        <ele>1314.148731</ele>
        <time>2022-04-25T12:41:33.898Z</time>
      </trkpt>
      <trkpt lat="41.70756" lon="20.76242">
        <ele>1313.994007</ele>
        <time>2022-04-25T12:41:36.880Z</time>
      </trkpt>
      <trkpt lat="41.70748" lon="20.76234">
        <ele>1313.880397</ele>
        <time>2022-04-25T12:41:38.875Z</time>
      </trkpt>
      <trkpt lat="41.7074" lon="20.76227">
        <ele>1313.769138</ele>
        <time>2022-04-25T12:41:40.913Z</time>
      </trkpt>
      <trkpt lat="41.70732" lon="20.7622">
        <ele>1313.660695</ele>
        <time>2022-04-25T12:41:42.875Z</time>
      </trkpt>
      <trkpt lat="41.70723" lon="20.76213">
        <ele>1313.553996</ele>
        <time>2022-04-25T12:41:44.856Z</time>
      </trkpt>
      <trkpt lat="41.70715" lon="20.76208">
        <ele>1313.450992</ele>
        <time>2022-04-25T12:41:46.866Z</time>
      </trkpt>
      <trkpt lat="41.70704" lon="20.76201">
        <ele>1313.309945</ele>
        <time>2022-04-25T12:41:49.877Z</time>
      </trkpt>
      <trkpt lat="41.70692" lon="20.76196">
        <ele>1313.169264</ele>
        <time>2022-04-25T12:41:52.874Z</time>
      </trkpt>
      <trkpt lat="41.70679" lon="20.76193">
        <ele>1313.024022</ele>
        <time>2022-04-25T12:41:55.903Z</time>
      </trkpt>
      <trkpt lat="41.7067" lon="20.76192">
        <ele>1312.912961</ele>
        <time>2022-04-25T12:41:57.872Z</time>
      </trkpt>
      <trkpt lat="41.70659" lon="20.76191">
        <ele>1312.793105</ele>
        <time>2022-04-25T12:41:59.913Z</time>
      </trkpt>
      <trkpt lat="41.70649" lon="20.76192">
        <ele>1312.676702</ele>
        <time>2022-04-25T12:42:01.892Z</time>
      </trkpt>
      <trkpt lat="41.70637" lon="20.76191">
        <ele>1312.549913</ele>
        <time>2022-04-25T12:42:03.878Z</time>
      </trkpt>
      <trkpt lat="41.70625" lon="20.76189">
        <ele>1312.408019</ele>
        <time>2022-04-25T12:42:05.904Z</time>
      </trkpt>
      <trkpt lat="41.70612" lon="20.76186">
        <ele>1312.258343</ele>
        <time>2022-04-25T12:42:07.958Z</time>
      </trkpt>
      <trkpt lat="41.706" lon="20.76181">
        <ele>1312.125705</ele>
        <time>2022-04-25T12:42:09.870Z</time>
      </trkpt>
      <trkpt lat="41.70588" lon="20.76175">
        <ele>1312.002222</ele>
        <time>2022-04-25T12:42:11.923Z</time>
      </trkpt>
      <trkpt lat="41.70577" lon="20.76166">
        <ele>1311.879101</ele>
        <time>2022-04-25T12:42:13.874Z</time>
      </trkpt>
      <trkpt lat="41.70567" lon="20.76158">
        <ele>1311.763801</ele>
        <time>2022-04-25T12:42:15.867Z</time>
      </trkpt>
      <trkpt lat="41.70556" lon="20.76149">
        <ele>1311.643901</ele>
        <time>2022-04-25T12:42:17.887Z</time>
      </trkpt>
      <trkpt lat="41.70546" lon="20.7614">
        <ele>1311.523861</ele>
        <time>2022-04-25T12:42:19.883Z</time>
      </trkpt>
      <trkpt lat="41.70535" lon="20.76132">
        <ele>1311.410871</ele>
        <time>2022-04-25T12:42:21.882Z</time>
      </trkpt>
      <trkpt lat="41.70525" lon="20.76126">
        <ele>1311.303585</ele>
        <time>2022-04-25T12:42:23.859Z</time>
      </trkpt>
      <trkpt lat="41.70515" lon="20.76121">
        <ele>1311.194925</ele>
        <time>2022-04-25T12:42:25.956Z</time>
      </trkpt>
      <trkpt lat="41.70503" lon="20.76118">
        <ele>1311.077376</ele>
        <time>2022-04-25T12:42:27.873Z</time>
      </trkpt>
      <trkpt lat="41.70491" lon="20.76116">
        <ele>1310.961974</ele>
        <time>2022-04-25T12:42:29.886Z</time>
      </trkpt>
      <trkpt lat="41.70479" lon="20.76116">
        <ele>1310.852047</ele>
        <time>2022-04-25T12:42:31.886Z</time>
      </trkpt>
      <trkpt lat="41.70469" lon="20.76116">
        <ele>1310.750915</ele>
        <time>2022-04-25T12:42:33.904Z</time>
      </trkpt>
      <trkpt lat="41.70459" lon="20.76115">
        <ele>1310.659364</ele>
        <time>2022-04-25T12:42:35.892Z</time>
      </trkpt>
      <trkpt lat="41.70449" lon="20.76115">
        <ele>1310.562011</ele>
        <time>2022-04-25T12:42:37.866Z</time>
      </trkpt>
      <trkpt lat="41.70439" lon="20.76114">
        <ele>1310.46081</ele>
        <time>2022-04-25T12:42:39.866Z</time>
      </trkpt>
      <trkpt lat="41.70429" lon="20.76112">
        <ele>1310.220981</ele>
        <time>2022-04-25T12:42:41.938Z</time>
      </trkpt>
      <trkpt lat="41.70419" lon="20.76109">
        <ele>1309.949927</ele>
        <time>2022-04-25T12:42:43.885Z</time>
      </trkpt>
      <trkpt lat="41.7041" lon="20.76105">
        <ele>1309.68602</ele>
        <time>2022-04-25T12:42:45.861Z</time>
      </trkpt>
      <trkpt lat="41.70401" lon="20.761">
        <ele>1309.413973</ele>
        <time>2022-04-25T12:42:47.870Z</time>
      </trkpt>
      <trkpt lat="41.70393" lon="20.76094">
        <ele>1309.14597</ele>
        <time>2022-04-25T12:42:49.878Z</time>
      </trkpt>
      <trkpt lat="41.70382" lon="20.76084">
        <ele>1308.786425</ele>
        <time>2022-04-25T12:42:52.869Z</time>
      </trkpt>
      <trkpt lat="41.70373" lon="20.76073">
        <ele>1308.437235</ele>
        <time>2022-04-25T12:42:55.870Z</time>
      </trkpt>
      <trkpt lat="41.70364" lon="20.76062">
        <ele>1308.11446</ele>
        <time>2022-04-25T12:42:58.890Z</time>
      </trkpt>
      <trkpt lat="41.70356" lon="20.76051">
        <ele>1307.783698</ele>
        <time>2022-04-25T12:43:01.872Z</time>
      </trkpt>
      <trkpt lat="41.7035" lon="20.7604">
        <ele>1307.501635</ele>
        <time>2022-04-25T12:43:04.897Z</time>
      </trkpt>
      <trkpt lat="41.70346" lon="20.76029">
        <ele>1307.236302</ele>
        <time>2022-04-25T12:43:07.923Z</time>
      </trkpt>
      <trkpt lat="41.70341" lon="20.76015">
        <ele>1306.912416</ele>
        <time>2022-04-25T12:43:11.888Z</time>
      </trkpt>
      <trkpt lat="41.70338" lon="20.76">
        <ele>1306.603121</ele>
        <time>2022-04-25T12:43:15.871Z</time>
      </trkpt>
      <trkpt lat="41.70335" lon="20.75988">
        <ele>1306.333337</ele>
        <time>2022-04-25T12:43:18.906Z</time>
      </trkpt>
      <trkpt lat="41.70334" lon="20.75973">
        <ele>1306.025939</ele>
        <time>2022-04-25T12:43:22.889Z</time>
      </trkpt>
      <trkpt lat="41.70333" lon="20.75958">
        <ele>1305.704021</ele>
        <time>2022-04-25T12:43:26.860Z</time>
      </trkpt>
      <trkpt lat="41.70332" lon="20.75943">
        <ele>1305.406663</ele>
        <time>2022-04-25T12:43:30.859Z</time>
      </trkpt>
      <trkpt lat="41.70333" lon="20.75931">
        <ele>1305.209669</ele>
        <time>2022-04-25T12:43:34.885Z</time>
      </trkpt>
      <trkpt lat="41.70331" lon="20.7592">
        <ele>1305.014568</ele>
        <time>2022-04-25T12:43:39.861Z</time>
      </trkpt>
      <trkpt lat="41.70328" lon="20.75905">
        <ele>1304.776897</ele>
        <time>2022-04-25T12:43:43.885Z</time>
      </trkpt>
      <trkpt lat="41.70325" lon="20.75892">
        <ele>1304.550613</ele>
        <time>2022-04-25T12:43:46.869Z</time>
      </trkpt>
      <trkpt lat="41.70319" lon="20.75879">
        <ele>1304.301231</ele>
        <time>2022-04-25T12:43:49.878Z</time>
      </trkpt>
      <trkpt lat="41.70313" lon="20.75863">
        <ele>1304.011879</ele>
        <time>2022-04-25T12:43:52.900Z</time>
      </trkpt>
      <trkpt lat="41.70308" lon="20.75853">
        <ele>1303.813881</ele>
        <time>2022-04-25T12:43:54.869Z</time>
      </trkpt>
      <trkpt lat="41.70299" lon="20.75841">
        <ele>1303.543162</ele>
        <time>2022-04-25T12:43:57.866Z</time>
      </trkpt>
      <trkpt lat="41.70291" lon="20.75831">
        <ele>1303.293593</ele>
        <time>2022-04-25T12:44:00.877Z</time>
      </trkpt>
      <trkpt lat="41.70283" lon="20.75822">
        <ele>1303.073976</ele>
        <time>2022-04-25T12:44:03.914Z</time>
      </trkpt>
      <trkpt lat="41.70275" lon="20.75815">
        <ele>1302.87035</ele>
        <time>2022-04-25T12:44:06.878Z</time>
      </trkpt>
      <trkpt lat="41.70266" lon="20.7581">
        <ele>1302.652159</ele>
        <time>2022-04-25T12:44:10.887Z</time>
      </trkpt>
      <trkpt lat="41.70257" lon="20.75802">
        <ele>1302.413336</ele>
        <time>2022-04-25T12:44:14.896Z</time>
      </trkpt>
      <trkpt lat="41.70248" lon="20.75797">
        <ele>1302.204171</ele>
        <time>2022-04-25T12:44:17.880Z</time>
      </trkpt>
      <trkpt lat="41.70238" lon="20.75792">
        <ele>1301.976414</ele>
        <time>2022-04-25T12:44:20.899Z</time>
      </trkpt>
      <trkpt lat="41.70227" lon="20.75787">
        <ele>1301.727716</ele>
        <time>2022-04-25T12:44:23.896Z</time>
      </trkpt>
      <trkpt lat="41.70216" lon="20.75779">
        <ele>1301.475064</ele>
        <time>2022-04-25T12:44:26.881Z</time>
      </trkpt>
      <trkpt lat="41.70206" lon="20.7577">
        <ele>1301.29528</ele>
        <time>2022-04-25T12:44:29.886Z</time>
      </trkpt>
      <trkpt lat="41.70196" lon="20.7576">
        <ele>1301.112204</ele>
        <time>2022-04-25T12:44:32.851Z</time>
      </trkpt>
      <trkpt lat="41.70187" lon="20.75748">
        <ele>1300.929637</ele>
        <time>2022-04-25T12:44:35.873Z</time>
      </trkpt>
      <trkpt lat="41.70178" lon="20.75736">
        <ele>1300.742736</ele>
        <time>2022-04-25T12:44:38.872Z</time>
      </trkpt>
      <trkpt lat="41.70169" lon="20.75724">
        <ele>1300.562212</ele>
        <time>2022-04-25T12:44:41.909Z</time>
      </trkpt>
      <trkpt lat="41.7016" lon="20.75713">
        <ele>1300.380391</ele>
        <time>2022-04-25T12:44:44.884Z</time>
      </trkpt>
      <trkpt lat="41.70151" lon="20.757">
        <ele>1300.191734</ele>
        <time>2022-04-25T12:44:47.912Z</time>
      </trkpt>
      <trkpt lat="41.70144" lon="20.75692">
        <ele>1300.056781</ele>
        <time>2022-04-25T12:44:49.886Z</time>
      </trkpt>
      <trkpt lat="41.70136" lon="20.75683">
        <ele>1299.916388</ele>
        <time>2022-04-25T12:44:51.870Z</time>
      </trkpt>
      <trkpt lat="41.70128" lon="20.75675">
        <ele>1299.76603</ele>
        <time>2022-04-25T12:44:53.876Z</time>
      </trkpt>
      <trkpt lat="41.70119" lon="20.75668">
        <ele>1299.616867</ele>
        <time>2022-04-25T12:44:55.873Z</time>
      </trkpt>
      <trkpt lat="41.7011" lon="20.75662">
        <ele>1299.472451</ele>
        <time>2022-04-25T12:44:57.869Z</time>
      </trkpt>
      <trkpt lat="41.70102" lon="20.75656">
        <ele>1299.33452</ele>
        <time>2022-04-25T12:44:59.872Z</time>
      </trkpt>
      <trkpt lat="41.70093" lon="20.75651">
        <ele>1299.196588</ele>
        <time>2022-04-25T12:45:01.876Z</time>
      </trkpt>
      <trkpt lat="41.70084" lon="20.75644">
        <ele>1299.050601</ele>
        <time>2022-04-25T12:45:03.911Z</time>
      </trkpt>
      <trkpt lat="41.70075" lon="20.75639">
        <ele>1298.90782</ele>
        <time>2022-04-25T12:45:05.880Z</time>
      </trkpt>
      <trkpt lat="41.70066" lon="20.75633">
        <ele>1298.623506</ele>
        <time>2022-04-25T12:45:07.867Z</time>
      </trkpt>
      <trkpt lat="41.70058" lon="20.75627">
        <ele>1298.348796</ele>
        <time>2022-04-25T12:45:09.880Z</time>
      </trkpt>
      <trkpt lat="41.70049" lon="20.75621">
        <ele>1298.061446</ele>
        <time>2022-04-25T12:45:11.872Z</time>
      </trkpt>
      <trkpt lat="41.7004" lon="20.75614">
        <ele>1297.768472</ele>
        <time>2022-04-25T12:45:13.871Z</time>
      </trkpt>
      <trkpt lat="41.70034" lon="20.75606">
        <ele>1297.506141</ele>
        <time>2022-04-25T12:45:15.860Z</time>
      </trkpt>
      <trkpt lat="41.70024" lon="20.75592">
        <ele>1297.105864</ele>
        <time>2022-04-25T12:45:18.870Z</time>
      </trkpt>
      <trkpt lat="41.70018" lon="20.75582">
        <ele>1296.820502</ele>
        <time>2022-04-25T12:45:20.900Z</time>
      </trkpt>
      <trkpt lat="41.70013" lon="20.75571">
        <ele>1296.541642</ele>
        <time>2022-04-25T12:45:22.869Z</time>
      </trkpt>
      <trkpt lat="41.70008" lon="20.7556">
        <ele>1296.272301</ele>
        <time>2022-04-25T12:45:24.859Z</time>
      </trkpt>
      <trkpt lat="41.70002" lon="20.75545">
        <ele>1295.898579</ele>
        <time>2022-04-25T12:45:27.890Z</time>
      </trkpt>
      <trkpt lat="41.69995" lon="20.7553">
        <ele>1295.518732</ele>
        <time>2022-04-25T12:45:30.871Z</time>
      </trkpt>
      <trkpt lat="41.6999" lon="20.7552">
        <ele>1295.257253</ele>
        <time>2022-04-25T12:45:32.885Z</time>
      </trkpt>
      <trkpt lat="41.69984" lon="20.75509">
        <ele>1294.978152</ele>
        <time>2022-04-25T12:45:34.879Z</time>
      </trkpt>
      <trkpt lat="41.69979" lon="20.75498">
        <ele>1294.689346</ele>
        <time>2022-04-25T12:45:36.885Z</time>
      </trkpt>
      <trkpt lat="41.69972" lon="20.75487">
        <ele>1294.382863</ele>
        <time>2022-04-25T12:45:38.888Z</time>
      </trkpt>
      <trkpt lat="41.69964" lon="20.75477">
        <ele>1294.070403</ele>
        <time>2022-04-25T12:45:40.868Z</time>
      </trkpt>
      <trkpt lat="41.69955" lon="20.75468">
        <ele>1293.747789</ele>
        <time>2022-04-25T12:45:42.882Z</time>
      </trkpt>
      <trkpt lat="41.69946" lon="20.75459">
        <ele>1293.443955</ele>
        <time>2022-04-25T12:45:44.865Z</time>
      </trkpt>
      <trkpt lat="41.69936" lon="20.75452">
        <ele>1293.155585</ele>
        <time>2022-04-25T12:45:46.879Z</time>
      </trkpt>
      <trkpt lat="41.69928" lon="20.75445">
        <ele>1292.891166</ele>
        <time>2022-04-25T12:45:48.904Z</time>
      </trkpt>
      <trkpt lat="41.69919" lon="20.75439">
        <ele>1292.629014</ele>
        <time>2022-04-25T12:45:50.888Z</time>
      </trkpt>
      <trkpt lat="41.6991" lon="20.75432">
        <ele>1292.372361</ele>
        <time>2022-04-25T12:45:52.878Z</time>
      </trkpt>
      <trkpt lat="41.69902" lon="20.75424">
        <ele>1292.107561</ele>
        <time>2022-04-25T12:45:54.898Z</time>
      </trkpt>
      <trkpt lat="41.69894" lon="20.75415">
        <ele>1291.836062</ele>
        <time>2022-04-25T12:45:56.889Z</time>
      </trkpt>
      <trkpt lat="41.69887" lon="20.75405">
        <ele>1291.567906</ele>
        <time>2022-04-25T12:45:58.855Z</time>
      </trkpt>
      <trkpt lat="41.6988" lon="20.75395">
        <ele>1291.297351</ele>
        <time>2022-04-25T12:46:00.863Z</time>
      </trkpt>
      <trkpt lat="41.69875" lon="20.75383">
        <ele>1291.033113</ele>
        <time>2022-04-25T12:46:02.885Z</time>
      </trkpt>
      <trkpt lat="41.69871" lon="20.75371">
        <ele>1290.783208</ele>
        <time>2022-04-25T12:46:04.890Z</time>
      </trkpt>
      <trkpt lat="41.69868" lon="20.75359">
        <ele>1290.524617</ele>
        <time>2022-04-25T12:46:06.868Z</time>
      </trkpt>
      <trkpt lat="41.69865" lon="20.75345">
        <ele>1290.24005</ele>
        <time>2022-04-25T12:46:08.879Z</time>
      </trkpt>
      <trkpt lat="41.69863" lon="20.75331">
        <ele>1289.976817</ele>
        <time>2022-04-25T12:46:10.876Z</time>
      </trkpt>
      <trkpt lat="41.69861" lon="20.75318">
        <ele>1289.716538</ele>
        <time>2022-04-25T12:46:12.883Z</time>
      </trkpt>
      <trkpt lat="41.69859" lon="20.75305">
        <ele>1289.455748</ele>
        <time>2022-04-25T12:46:14.892Z</time>
      </trkpt>
      <trkpt lat="41.69858" lon="20.75292">
        <ele>1289.198336</ele>
        <time>2022-04-25T12:46:16.894Z</time>
      </trkpt>
      <trkpt lat="41.69856" lon="20.75279">
        <ele>1288.948952</ele>
        <time>2022-04-25T12:46:18.884Z</time>
      </trkpt>
      <trkpt lat="41.69854" lon="20.75267">
        <ele>1288.725616</ele>
        <time>2022-04-25T12:46:20.868Z</time>
      </trkpt>
      <trkpt lat="41.69852" lon="20.75254">
        <ele>1288.506529</ele>
        <time>2022-04-25T12:46:22.908Z</time>
      </trkpt>
      <trkpt lat="41.6985" lon="20.75242">
        <ele>1288.278428</ele>
        <time>2022-04-25T12:46:24.878Z</time>
      </trkpt>
      <trkpt lat="41.69848" lon="20.75228">
        <ele>1288.038601</ele>
        <time>2022-04-25T12:46:26.878Z</time>
      </trkpt>
      <trkpt lat="41.69846" lon="20.75214">
        <ele>1287.792944</ele>
        <time>2022-04-25T12:46:28.878Z</time>
      </trkpt>
      <trkpt lat="41.69843" lon="20.752">
        <ele>1287.536226</ele>
        <time>2022-04-25T12:46:30.867Z</time>
      </trkpt>
      <trkpt lat="41.6984" lon="20.75185">
        <ele>1287.266811</ele>
        <time>2022-04-25T12:46:32.861Z</time>
      </trkpt>
      <trkpt lat="41.69837" lon="20.75171">
        <ele>1287.006043</ele>
        <time>2022-04-25T12:46:34.886Z</time>
      </trkpt>
      <trkpt lat="41.69835" lon="20.75157">
        <ele>1286.762814</ele>
        <time>2022-04-25T12:46:36.890Z</time>
      </trkpt>
      <trkpt lat="41.69833" lon="20.75144">
        <ele>1286.527835</ele>
        <time>2022-04-25T12:46:38.875Z</time>
      </trkpt>
      <trkpt lat="41.69831" lon="20.75132">
        <ele>1286.313372</ele>
        <time>2022-04-25T12:46:40.875Z</time>
      </trkpt>
      <trkpt lat="41.69828" lon="20.75115">
        <ele>1286.010951</ele>
        <time>2022-04-25T12:46:43.906Z</time>
      </trkpt>
      <trkpt lat="41.69825" lon="20.75103">
        <ele>1285.792575</ele>
        <time>2022-04-25T12:46:45.866Z</time>
      </trkpt>
      <trkpt lat="41.69823" lon="20.75091">
        <ele>1285.569137</ele>
        <time>2022-04-25T12:46:47.876Z</time>
      </trkpt>
      <trkpt lat="41.6982" lon="20.75079">
        <ele>1285.350528</ele>
        <time>2022-04-25T12:46:49.878Z</time>
      </trkpt>
      <trkpt lat="41.69818" lon="20.75067">
        <ele>1285.142249</ele>
        <time>2022-04-25T12:46:51.881Z</time>
      </trkpt>
      <trkpt lat="41.69814" lon="20.75051">
        <ele>1284.847428</ele>
        <time>2022-04-25T12:46:54.876Z</time>
      </trkpt>
      <trkpt lat="41.6981" lon="20.75035">
        <ele>1284.896708</ele>
        <time>2022-04-25T12:46:57.878Z</time>
      </trkpt>
      <trkpt lat="41.69804" lon="20.75019">
        <ele>1285.012151</ele>
        <time>2022-04-25T12:47:00.887Z</time>
      </trkpt>
      <trkpt lat="41.69799" lon="20.75008">
        <ele>1285.101528</ele>
        <time>2022-04-25T12:47:02.898Z</time>
      </trkpt>
      <trkpt lat="41.69794" lon="20.74994">
        <ele>1285.20047</ele>
        <time>2022-04-25T12:47:04.875Z</time>
      </trkpt>
      <trkpt lat="41.69788" lon="20.74981">
        <ele>1285.298141</ele>
        <time>2022-04-25T12:47:06.905Z</time>
      </trkpt>
      <trkpt lat="41.69782" lon="20.74969">
        <ele>1285.39549</ele>
        <time>2022-04-25T12:47:08.886Z</time>
      </trkpt>
      <trkpt lat="41.69777" lon="20.74957">
        <ele>1285.486873</ele>
        <time>2022-04-25T12:47:10.907Z</time>
      </trkpt>
      <trkpt lat="41.69771" lon="20.74945">
        <ele>1285.577167</ele>
        <time>2022-04-25T12:47:12.892Z</time>
      </trkpt>
      <trkpt lat="41.69766" lon="20.74934">
        <ele>1285.664155</ele>
        <time>2022-04-25T12:47:14.878Z</time>
      </trkpt>
      <trkpt lat="41.6976" lon="20.74922">
        <ele>1285.755673</ele>
        <time>2022-04-25T12:47:16.871Z</time>
      </trkpt>
      <trkpt lat="41.69755" lon="20.74911">
        <ele>1285.840981</ele>
        <time>2022-04-25T12:47:18.870Z</time>
      </trkpt>
      <trkpt lat="41.6975" lon="20.749">
        <ele>1285.928982</ele>
        <time>2022-04-25T12:47:20.918Z</time>
      </trkpt>
      <trkpt lat="41.69745" lon="20.74883">
        <ele>1286.048962</ele>
        <time>2022-04-25T12:47:23.925Z</time>
      </trkpt>
      <trkpt lat="41.69742" lon="20.74869">
        <ele>1286.14343</ele>
        <time>2022-04-25T12:47:25.890Z</time>
      </trkpt>
      <trkpt lat="41.69741" lon="20.74856">
        <ele>1286.228633</ele>
        <time>2022-04-25T12:47:27.877Z</time>
      </trkpt>
      <trkpt lat="41.6974" lon="20.74844">
        <ele>1286.309315</ele>
        <time>2022-04-25T12:47:29.881Z</time>
      </trkpt>
      <trkpt lat="41.6974" lon="20.74826">
        <ele>1286.358322</ele>
        <time>2022-04-25T12:47:32.890Z</time>
      </trkpt>
      <trkpt lat="41.69741" lon="20.74808">
        <ele>1286.306385</ele>
        <time>2022-04-25T12:47:35.912Z</time>
      </trkpt>
      <trkpt lat="41.69742" lon="20.7479">
        <ele>1286.253566</ele>
        <time>2022-04-25T12:47:38.889Z</time>
      </trkpt>
      <trkpt lat="41.69744" lon="20.74774">
        <ele>1286.204613</ele>
        <time>2022-04-25T12:47:41.889Z</time>
      </trkpt>
      <trkpt lat="41.69746" lon="20.74762">
        <ele>1286.168296</ele>
        <time>2022-04-25T12:47:43.909Z</time>
      </trkpt>
      <trkpt lat="41.69749" lon="20.74748">
        <ele>1286.126554</ele>
        <time>2022-04-25T12:47:46.875Z</time>
      </trkpt>
      <trkpt lat="41.69752" lon="20.74735">
        <ele>1286.083762</ele>
        <time>2022-04-25T12:47:49.889Z</time>
      </trkpt>
      <trkpt lat="41.69756" lon="20.74721">
        <ele>1286.041953</ele>
        <time>2022-04-25T12:47:52.883Z</time>
      </trkpt>
      <trkpt lat="41.6976" lon="20.74709">
        <ele>1286.001645</ele>
        <time>2022-04-25T12:47:55.875Z</time>
      </trkpt>
      <trkpt lat="41.69765" lon="20.74696">
        <ele>1285.95949</ele>
        <time>2022-04-25T12:47:58.877Z</time>
      </trkpt>
      <trkpt lat="41.6977" lon="20.74682">
        <ele>1285.913183</ele>
        <time>2022-04-25T12:48:01.889Z</time>
      </trkpt>
      <trkpt lat="41.69775" lon="20.74668">
        <ele>1285.865911</ele>
        <time>2022-04-25T12:48:04.882Z</time>
      </trkpt>
      <trkpt lat="41.6978" lon="20.74655">
        <ele>1285.825562</ele>
        <time>2022-04-25T12:48:07.877Z</time>
      </trkpt>
      <trkpt lat="41.69785" lon="20.74643">
        <ele>1285.782607</ele>
        <time>2022-04-25T12:48:11.874Z</time>
      </trkpt>
      <trkpt lat="41.69788" lon="20.74631">
        <ele>1285.745228</ele>
        <time>2022-04-25T12:48:15.886Z</time>
      </trkpt>
      <trkpt lat="41.69785" lon="20.74619">
        <ele>1285.709511</ele>
        <time>2022-04-25T12:48:19.887Z</time>
      </trkpt>
      <trkpt lat="41.69783" lon="20.74632">
        <ele>1285.672971</ele>
        <time>2022-04-25T12:48:25.915Z</time>
      </trkpt>
      <trkpt lat="41.69778" lon="20.74643">
        <ele>1285.449305</ele>
        <time>2022-04-25T12:48:28.878Z</time>
      </trkpt>
      <trkpt lat="41.69772" lon="20.74655">
        <ele>1285.193683</ele>
        <time>2022-04-25T12:48:31.863Z</time>
      </trkpt>
      <trkpt lat="41.69767" lon="20.74665">
        <ele>1284.953835</ele>
        <time>2022-04-25T12:48:34.885Z</time>
      </trkpt>
      <trkpt lat="41.6976" lon="20.74674">
        <ele>1284.709983</ele>
        <time>2022-04-25T12:48:38.904Z</time>
      </trkpt>
      <trkpt lat="41.6975" lon="20.7468">
        <ele>1284.441946</ele>
        <time>2022-04-25T12:48:43.869Z</time>
      </trkpt>
      <trkpt lat="41.69741" lon="20.74673">
        <ele>1284.188342</ele>
        <time>2022-04-25T12:48:47.867Z</time>
      </trkpt>
      <trkpt lat="41.69733" lon="20.74667">
        <ele>1283.944706</ele>
        <time>2022-04-25T12:48:50.873Z</time>
      </trkpt>
      <trkpt lat="41.69724" lon="20.7466">
        <ele>1283.689835</ele>
        <time>2022-04-25T12:48:54.881Z</time>
      </trkpt>
      <trkpt lat="41.69717" lon="20.74652">
        <ele>1283.459333</ele>
        <time>2022-04-25T12:48:59.906Z</time>
      </trkpt>
      <trkpt lat="41.69705" lon="20.74649">
        <ele>1283.161864</ele>
        <time>2022-04-25T12:55:01.933Z</time>
      </trkpt>
      <trkpt lat="41.69714" lon="20.74655">
        <ele>1282.907287</ele>
        <time>2022-04-25T12:55:09.894Z</time>
      </trkpt>
      <trkpt lat="41.69723" lon="20.74663">
        <ele>1282.638977</ele>
        <time>2022-04-25T12:55:13.885Z</time>
      </trkpt>
      <trkpt lat="41.69732" lon="20.7467">
        <ele>1282.391285</ele>
        <time>2022-04-25T12:55:16.930Z</time>
      </trkpt>
      <trkpt lat="41.69741" lon="20.74676">
        <ele>1282.138943</ele>
        <time>2022-04-25T12:55:19.955Z</time>
      </trkpt>
      <trkpt lat="41.6975" lon="20.74681">
        <ele>1281.884932</ele>
        <time>2022-04-25T12:55:22.933Z</time>
      </trkpt>
      <trkpt lat="41.69759" lon="20.74678">
        <ele>1281.642749</ele>
        <time>2022-04-25T12:55:25.879Z</time>
      </trkpt>
      <trkpt lat="41.69767" lon="20.74669">
        <ele>1281.389517</ele>
        <time>2022-04-25T12:55:28.866Z</time>
      </trkpt>
      <trkpt lat="41.69772" lon="20.74658">
        <ele>1281.163624</ele>
        <time>2022-04-25T12:55:31.889Z</time>
      </trkpt>
      <trkpt lat="41.69776" lon="20.74646">
        <ele>1281.083829</ele>
        <time>2022-04-25T12:55:35.872Z</time>
      </trkpt>
      <trkpt lat="41.69782" lon="20.74635">
        <ele>1281.009061</ele>
        <time>2022-04-25T12:55:39.883Z</time>
      </trkpt>
      <trkpt lat="41.69786" lon="20.74624">
        <ele>1280.935109</ele>
        <time>2022-04-25T12:55:43.884Z</time>
      </trkpt>
      <trkpt lat="41.69793" lon="20.7461">
        <ele>1280.841092</ele>
        <time>2022-04-25T12:55:47.872Z</time>
      </trkpt>
      <trkpt lat="41.69799" lon="20.74598">
        <ele>1280.756232</ele>
        <time>2022-04-25T12:55:50.910Z</time>
      </trkpt>
      <trkpt lat="41.69803" lon="20.74582">
        <ele>1280.655456</ele>
        <time>2022-04-25T12:55:53.894Z</time>
      </trkpt>
      <trkpt lat="41.69805" lon="20.74569">
        <ele>1280.578998</ele>
        <time>2022-04-25T12:55:55.880Z</time>
      </trkpt>
      <trkpt lat="41.69806" lon="20.74555">
        <ele>1280.497752</ele>
        <time>2022-04-25T12:55:57.912Z</time>
      </trkpt>
      <trkpt lat="41.69806" lon="20.74539">
        <ele>1280.409317</ele>
        <time>2022-04-25T12:55:59.908Z</time>
      </trkpt>
      <trkpt lat="41.69806" lon="20.74523">
        <ele>1280.313399</ele>
        <time>2022-04-25T12:56:01.885Z</time>
      </trkpt>
      <trkpt lat="41.69807" lon="20.74506">
        <ele>1280.215954</ele>
        <time>2022-04-25T12:56:03.873Z</time>
      </trkpt>
      <trkpt lat="41.69809" lon="20.7449">
        <ele>1280.120587</ele>
        <time>2022-04-25T12:56:05.864Z</time>
      </trkpt>
      <trkpt lat="41.69811" lon="20.74472">
        <ele>1280.013296</ele>
        <time>2022-04-25T12:56:07.873Z</time>
      </trkpt>
      <trkpt lat="41.69815" lon="20.74455">
        <ele>1279.913596</ele>
        <time>2022-04-25T12:56:09.895Z</time>
      </trkpt>
      <trkpt lat="41.69822" lon="20.7444">
        <ele>1279.805327</ele>
        <time>2022-04-25T12:56:11.878Z</time>
      </trkpt>
      <trkpt lat="41.69831" lon="20.74425">
        <ele>1279.015442</ele>
        <time>2022-04-25T12:56:13.877Z</time>
      </trkpt>
      <trkpt lat="41.69841" lon="20.7441">
        <ele>1277.782199</ele>
        <time>2022-04-25T12:56:15.882Z</time>
      </trkpt>
      <trkpt lat="41.69852" lon="20.74396">
        <ele>1276.587015</ele>
        <time>2022-04-25T12:56:17.878Z</time>
      </trkpt>
      <trkpt lat="41.69864" lon="20.74384">
        <ele>1275.376176</ele>
        <time>2022-04-25T12:56:19.874Z</time>
      </trkpt>
      <trkpt lat="41.69875" lon="20.74372">
        <ele>1274.211438</ele>
        <time>2022-04-25T12:56:21.914Z</time>
      </trkpt>
      <trkpt lat="41.69887" lon="20.74362">
        <ele>1273.08521</ele>
        <time>2022-04-25T12:56:23.858Z</time>
      </trkpt>
      <trkpt lat="41.69899" lon="20.74351">
        <ele>1271.928934</ele>
        <time>2022-04-25T12:56:25.873Z</time>
      </trkpt>
      <trkpt lat="41.69909" lon="20.74337">
        <ele>1270.719593</ele>
        <time>2022-04-25T12:56:27.875Z</time>
      </trkpt>
      <trkpt lat="41.69919" lon="20.74321">
        <ele>1269.480021</ele>
        <time>2022-04-25T12:56:29.885Z</time>
      </trkpt>
      <trkpt lat="41.69928" lon="20.74302">
        <ele>1268.131012</ele>
        <time>2022-04-25T12:56:31.873Z</time>
      </trkpt>
      <trkpt lat="41.69937" lon="20.74284">
        <ele>1266.830698</ele>
        <time>2022-04-25T12:56:33.887Z</time>
      </trkpt>
      <trkpt lat="41.69945" lon="20.74266">
        <ele>1265.541485</ele>
        <time>2022-04-25T12:56:35.885Z</time>
      </trkpt>
      <trkpt lat="41.69953" lon="20.74247">
        <ele>1264.529142</ele>
        <time>2022-04-25T12:56:37.865Z</time>
      </trkpt>
      <trkpt lat="41.69961" lon="20.74228">
        <ele>1263.559832</ele>
        <time>2022-04-25T12:56:39.884Z</time>
      </trkpt>
      <trkpt lat="41.69971" lon="20.74208">
        <ele>1262.560456</ele>
        <time>2022-04-25T12:56:41.878Z</time>
      </trkpt>
      <trkpt lat="41.6998" lon="20.74189">
        <ele>1261.566704</ele>
        <time>2022-04-25T12:56:43.904Z</time>
      </trkpt>
      <trkpt lat="41.69989" lon="20.7417">
        <ele>1260.615519</ele>
        <time>2022-04-25T12:56:45.888Z</time>
      </trkpt>
      <trkpt lat="41.69998" lon="20.74153">
        <ele>1259.703114</ele>
        <time>2022-04-25T12:56:47.869Z</time>
      </trkpt>
      <trkpt lat="41.70006" lon="20.74134">
        <ele>1258.778201</ele>
        <time>2022-04-25T12:56:49.919Z</time>
      </trkpt>
      <trkpt lat="41.70016" lon="20.74116">
        <ele>1257.815643</ele>
        <time>2022-04-25T12:56:51.878Z</time>
      </trkpt>
      <trkpt lat="41.70027" lon="20.74099">
        <ele>1256.828103</ele>
        <time>2022-04-25T12:56:53.879Z</time>
      </trkpt>
      <trkpt lat="41.70037" lon="20.74081">
        <ele>1255.854219</ele>
        <time>2022-04-25T12:56:55.921Z</time>
      </trkpt>
      <trkpt lat="41.70048" lon="20.74064">
        <ele>1254.880336</ele>
        <time>2022-04-25T12:56:57.877Z</time>
      </trkpt>
      <trkpt lat="41.70059" lon="20.74045">
        <ele>1254.101395</ele>
        <time>2022-04-25T12:56:59.896Z</time>
      </trkpt>
      <trkpt lat="41.70064" lon="20.74035">
        <ele>1253.696308</ele>
        <time>2022-04-25T12:57:00.908Z</time>
      </trkpt>
      <trkpt lat="41.70068" lon="20.74024">
        <ele>1253.287524</ele>
        <time>2022-04-25T12:57:01.867Z</time>
      </trkpt>
      <trkpt lat="41.70072" lon="20.74013">
        <ele>1252.885751</ele>
        <time>2022-04-25T12:57:02.869Z</time>
      </trkpt>
      <trkpt lat="41.70076" lon="20.7399">
        <ele>1252.077663</ele>
        <time>2022-04-25T12:57:04.876Z</time>
      </trkpt>
      <trkpt lat="41.70077" lon="20.73978">
        <ele>1251.665987</ele>
        <time>2022-04-25T12:57:05.875Z</time>
      </trkpt>
      <trkpt lat="41.70076" lon="20.73965">
        <ele>1251.251751</ele>
        <time>2022-04-25T12:57:06.910Z</time>
      </trkpt>
      <trkpt lat="41.70075" lon="20.73953">
        <ele>1250.837459</ele>
        <time>2022-04-25T12:57:07.879Z</time>
      </trkpt>
      <trkpt lat="41.70073" lon="20.73941">
        <ele>1250.411709</ele>
        <time>2022-04-25T12:57:08.910Z</time>
      </trkpt>
      <trkpt lat="41.7007" lon="20.73929">
        <ele>1250.004544</ele>
        <time>2022-04-25T12:57:09.884Z</time>
      </trkpt>
      <trkpt lat="41.70067" lon="20.73918">
        <ele>1249.60373</ele>
        <time>2022-04-25T12:57:10.880Z</time>
      </trkpt>
      <trkpt lat="41.70062" lon="20.73895">
        <ele>1248.826087</ele>
        <time>2022-04-25T12:57:12.870Z</time>
      </trkpt>
      <trkpt lat="41.70059" lon="20.73874">
        <ele>1248.098662</ele>
        <time>2022-04-25T12:57:14.867Z</time>
      </trkpt>
      <trkpt lat="41.7006" lon="20.73853">
        <ele>1247.389923</ele>
        <time>2022-04-25T12:57:16.865Z</time>
      </trkpt>
      <trkpt lat="41.70063" lon="20.7383">
        <ele>1246.563696</ele>
        <time>2022-04-25T12:57:18.882Z</time>
      </trkpt>
      <trkpt lat="41.70069" lon="20.73809">
        <ele>1245.548694</ele>
        <time>2022-04-25T12:57:20.885Z</time>
      </trkpt>
      <trkpt lat="41.70078" lon="20.7379">
        <ele>1244.556433</ele>
        <time>2022-04-25T12:57:22.892Z</time>
      </trkpt>
      <trkpt lat="41.70088" lon="20.73772">
        <ele>1243.559298</ele>
        <time>2022-04-25T12:57:24.881Z</time>
      </trkpt>
      <trkpt lat="41.70097" lon="20.73757">
        <ele>1242.657421</ele>
        <time>2022-04-25T12:57:26.930Z</time>
      </trkpt>
      <trkpt lat="41.70106" lon="20.73739">
        <ele>1241.713589</ele>
        <time>2022-04-25T12:57:28.917Z</time>
      </trkpt>
      <trkpt lat="41.70114" lon="20.73718">
        <ele>1240.689843</ele>
        <time>2022-04-25T12:57:30.860Z</time>
      </trkpt>
      <trkpt lat="41.70118" lon="20.73697">
        <ele>1239.704901</ele>
        <time>2022-04-25T12:57:32.862Z</time>
      </trkpt>
      <trkpt lat="41.7012" lon="20.73673">
        <ele>1238.631427</ele>
        <time>2022-04-25T12:57:34.909Z</time>
      </trkpt>
      <trkpt lat="41.7012" lon="20.73661">
        <ele>1238.067391</ele>
        <time>2022-04-25T12:57:35.879Z</time>
      </trkpt>
      <trkpt lat="41.70119" lon="20.73647">
        <ele>1237.466111</ele>
        <time>2022-04-25T12:57:36.885Z</time>
      </trkpt>
      <trkpt lat="41.70118" lon="20.73634">
        <ele>1236.845412</ele>
        <time>2022-04-25T12:57:37.888Z</time>
      </trkpt>
      <trkpt lat="41.70116" lon="20.73621">
        <ele>1236.252458</ele>
        <time>2022-04-25T12:57:38.893Z</time>
      </trkpt>
      <trkpt lat="41.70113" lon="20.73608">
        <ele>1235.50049</ele>
        <time>2022-04-25T12:57:39.882Z</time>
      </trkpt>
      <trkpt lat="41.70109" lon="20.73586">
        <ele>1233.94189</ele>
        <time>2022-04-25T12:57:41.865Z</time>
      </trkpt>
      <trkpt lat="41.70106" lon="20.73564">
        <ele>1232.486762</ele>
        <time>2022-04-25T12:57:43.877Z</time>
      </trkpt>
      <trkpt lat="41.70105" lon="20.73544">
        <ele>1231.145876</ele>
        <time>2022-04-25T12:57:45.915Z</time>
      </trkpt>
      <trkpt lat="41.70104" lon="20.73524">
        <ele>1229.806305</ele>
        <time>2022-04-25T12:57:47.860Z</time>
      </trkpt>
      <trkpt lat="41.70104" lon="20.73503">
        <ele>1228.409552</ele>
        <time>2022-04-25T12:57:49.869Z</time>
      </trkpt>
      <trkpt lat="41.70105" lon="20.73482">
        <ele>1226.958013</ele>
        <time>2022-04-25T12:57:51.870Z</time>
      </trkpt>
      <trkpt lat="41.7011" lon="20.7346">
        <ele>1225.472236</ele>
        <time>2022-04-25T12:57:53.880Z</time>
      </trkpt>
      <trkpt lat="41.70114" lon="20.73446">
        <ele>1224.42284</ele>
        <time>2022-04-25T12:57:55.903Z</time>
      </trkpt>
      <trkpt lat="41.70119" lon="20.73432">
        <ele>1223.391733</ele>
        <time>2022-04-25T12:57:57.869Z</time>
      </trkpt>
      <trkpt lat="41.70125" lon="20.73415">
        <ele>1222.191343</ele>
        <time>2022-04-25T12:57:59.871Z</time>
      </trkpt>
      <trkpt lat="41.70129" lon="20.73399">
        <ele>1221.020565</ele>
        <time>2022-04-25T12:58:02.878Z</time>
      </trkpt>
      <trkpt lat="41.70132" lon="20.73385">
        <ele>1220.057493</ele>
        <time>2022-04-25T12:58:04.898Z</time>
      </trkpt>
      <trkpt lat="41.70137" lon="20.73373">
        <ele>1219.528774</ele>
        <time>2022-04-25T12:58:06.877Z</time>
      </trkpt>
      <trkpt lat="41.70144" lon="20.73362">
        <ele>1219.092712</ele>
        <time>2022-04-25T12:58:08.902Z</time>
      </trkpt>
      <trkpt lat="41.70152" lon="20.73351">
        <ele>1218.597685</ele>
        <time>2022-04-25T12:58:10.862Z</time>
      </trkpt>
      <trkpt lat="41.70163" lon="20.7334">
        <ele>1218.042269</ele>
        <time>2022-04-25T12:58:12.874Z</time>
      </trkpt>
      <trkpt lat="41.7017" lon="20.73328">
        <ele>1217.527066</ele>
        <time>2022-04-25T12:58:14.880Z</time>
      </trkpt>
      <trkpt lat="41.70178" lon="20.73316">
        <ele>1217.028179</ele>
        <time>2022-04-25T12:58:16.870Z</time>
      </trkpt>
      <trkpt lat="41.70184" lon="20.73306">
        <ele>1216.604815</ele>
        <time>2022-04-25T12:58:18.884Z</time>
      </trkpt>
      <trkpt lat="41.70192" lon="20.73297">
        <ele>1216.197203</ele>
        <time>2022-04-25T12:58:20.893Z</time>
      </trkpt>
      <trkpt lat="41.70201" lon="20.73289">
        <ele>1215.736138</ele>
        <time>2022-04-25T12:58:22.877Z</time>
      </trkpt>
      <trkpt lat="41.7021" lon="20.73282">
        <ele>1215.294066</ele>
        <time>2022-04-25T12:58:24.889Z</time>
      </trkpt>
      <trkpt lat="41.70218" lon="20.73277">
        <ele>1214.89692</ele>
        <time>2022-04-25T12:58:26.882Z</time>
      </trkpt>
      <trkpt lat="41.7023" lon="20.73268">
        <ele>1214.333121</ele>
        <time>2022-04-25T12:58:29.870Z</time>
      </trkpt>
      <trkpt lat="41.7024" lon="20.73262">
        <ele>1213.876699</ele>
        <time>2022-04-25T12:58:31.874Z</time>
      </trkpt>
      <trkpt lat="41.70249" lon="20.73257">
        <ele>1213.445491</ele>
        <time>2022-04-25T12:58:33.887Z</time>
      </trkpt>
      <trkpt lat="41.70258" lon="20.73254">
        <ele>1213.049814</ele>
        <time>2022-04-25T12:58:35.877Z</time>
      </trkpt>
      <trkpt lat="41.70267" lon="20.73249">
        <ele>1212.667134</ele>
        <time>2022-04-25T12:58:37.873Z</time>
      </trkpt>
      <trkpt lat="41.70279" lon="20.73244">
        <ele>1212.567124</ele>
        <time>2022-04-25T12:58:40.878Z</time>
      </trkpt>
      <trkpt lat="41.70291" lon="20.73239">
        <ele>1213.3686</ele>
        <time>2022-04-25T12:58:43.892Z</time>
      </trkpt>
      <trkpt lat="41.70301" lon="20.73234">
        <ele>1214.029533</ele>
        <time>2022-04-25T12:58:46.884Z</time>
      </trkpt>
      <trkpt lat="41.70311" lon="20.73229">
        <ele>1214.681899</ele>
        <time>2022-04-25T12:58:49.877Z</time>
      </trkpt>
      <trkpt lat="41.70322" lon="20.73224">
        <ele>1215.429101</ele>
        <time>2022-04-25T12:58:52.880Z</time>
      </trkpt>
      <trkpt lat="41.70334" lon="20.73218">
        <ele>1216.177969</ele>
        <time>2022-04-25T12:58:55.892Z</time>
      </trkpt>
      <trkpt lat="41.70345" lon="20.73212">
        <ele>1216.933753</ele>
        <time>2022-04-25T12:58:58.881Z</time>
      </trkpt>
      <trkpt lat="41.70355" lon="20.73208">
        <ele>1217.598806</ele>
        <time>2022-04-25T12:59:01.903Z</time>
      </trkpt>
      <trkpt lat="41.70367" lon="20.73205">
        <ele>1218.33649</ele>
        <time>2022-04-25T12:59:04.886Z</time>
      </trkpt>
      <trkpt lat="41.70378" lon="20.73203">
        <ele>1219.075695</ele>
        <time>2022-04-25T12:59:07.865Z</time>
      </trkpt>
      <trkpt lat="41.7039" lon="20.73202">
        <ele>1219.825514</ele>
        <time>2022-04-25T12:59:10.899Z</time>
      </trkpt>
      <trkpt lat="41.70403" lon="20.73202">
        <ele>1220.630228</ele>
        <time>2022-04-25T12:59:13.928Z</time>
      </trkpt>
      <trkpt lat="41.70412" lon="20.73202">
        <ele>1221.191526</ele>
        <time>2022-04-25T12:59:15.880Z</time>
      </trkpt>
      <trkpt lat="41.70426" lon="20.73199">
        <ele>1222.023588</ele>
        <time>2022-04-25T12:59:18.872Z</time>
      </trkpt>
      <trkpt lat="41.70439" lon="20.73196">
        <ele>1222.863687</ele>
        <time>2022-04-25T12:59:21.876Z</time>
      </trkpt>
      <trkpt lat="41.70448" lon="20.73192">
        <ele>1223.488991</ele>
        <time>2022-04-25T12:59:23.891Z</time>
      </trkpt>
      <trkpt lat="41.70458" lon="20.73189">
        <ele>1223.123399</ele>
        <time>2022-04-25T12:59:25.882Z</time>
      </trkpt>
      <trkpt lat="41.70468" lon="20.73185">
        <ele>1222.713333</ele>
        <time>2022-04-25T12:59:27.867Z</time>
      </trkpt>
      <trkpt lat="41.70478" lon="20.73181">
        <ele>1222.292656</ele>
        <time>2022-04-25T12:59:29.892Z</time>
      </trkpt>
      <trkpt lat="41.70487" lon="20.73178">
        <ele>1221.903245</ele>
        <time>2022-04-25T12:59:31.918Z</time>
      </trkpt>
      <trkpt lat="41.70496" lon="20.73175">
        <ele>1221.530129</ele>
        <time>2022-04-25T12:59:33.893Z</time>
      </trkpt>
      <trkpt lat="41.70504" lon="20.73169">
        <ele>1221.162771</ele>
        <time>2022-04-25T12:59:35.871Z</time>
      </trkpt>
      <trkpt lat="41.70516" lon="20.7316">
        <ele>1220.627988</ele>
        <time>2022-04-25T12:59:38.883Z</time>
      </trkpt>
      <trkpt lat="41.70527" lon="20.73151">
        <ele>1220.099493</ele>
        <time>2022-04-25T12:59:41.869Z</time>
      </trkpt>
      <trkpt lat="41.70538" lon="20.73142">
        <ele>1219.594657</ele>
        <time>2022-04-25T12:59:44.890Z</time>
      </trkpt>
      <trkpt lat="41.70548" lon="20.73132">
        <ele>1219.081571</ele>
        <time>2022-04-25T12:59:47.861Z</time>
      </trkpt>
      <trkpt lat="41.70558" lon="20.73123">
        <ele>1218.586672</ele>
        <time>2022-04-25T12:59:50.897Z</time>
      </trkpt>
      <trkpt lat="41.70567" lon="20.73113">
        <ele>1218.120514</ele>
        <time>2022-04-25T12:59:53.876Z</time>
      </trkpt>
      <trkpt lat="41.70577" lon="20.73104">
        <ele>1217.650931</ele>
        <time>2022-04-25T12:59:56.890Z</time>
      </trkpt>
      <trkpt lat="41.70587" lon="20.73094">
        <ele>1217.157178</ele>
        <time>2022-04-25T12:59:59.884Z</time>
      </trkpt>
      <trkpt lat="41.70597" lon="20.73082">
        <ele>1216.621042</ele>
        <time>2022-04-25T13:00:02.876Z</time>
      </trkpt>
      <trkpt lat="41.70603" lon="20.73073">
        <ele>1216.255594</ele>
        <time>2022-04-25T13:00:04.882Z</time>
      </trkpt>
      <trkpt lat="41.70609" lon="20.73063">
        <ele>1216.039731</ele>
        <time>2022-04-25T13:00:06.862Z</time>
      </trkpt>
      <trkpt lat="41.70614" lon="20.73053">
        <ele>1215.82099</ele>
        <time>2022-04-25T13:00:08.897Z</time>
      </trkpt>
      <trkpt lat="41.7062" lon="20.73037">
        <ele>1215.509636</ele>
        <time>2022-04-25T13:00:10.878Z</time>
      </trkpt>
      <trkpt lat="41.70625" lon="20.73025">
        <ele>1215.283559</ele>
        <time>2022-04-25T13:00:12.882Z</time>
      </trkpt>
      <trkpt lat="41.70631" lon="20.73016">
        <ele>1215.071525</ele>
        <time>2022-04-25T13:00:14.874Z</time>
      </trkpt>
      <trkpt lat="41.70637" lon="20.73005">
        <ele>1214.839073</ele>
        <time>2022-04-25T13:00:16.872Z</time>
      </trkpt>
      <trkpt lat="41.70644" lon="20.72996">
        <ele>1214.607103</ele>
        <time>2022-04-25T13:00:18.889Z</time>
      </trkpt>
      <trkpt lat="41.70651" lon="20.72988">
        <ele>1214.381564</ele>
        <time>2022-04-25T13:00:20.871Z</time>
      </trkpt>
      <trkpt lat="41.70663" lon="20.7298">
        <ele>1214.085459</ele>
        <time>2022-04-25T13:00:23.869Z</time>
      </trkpt>
      <trkpt lat="41.70673" lon="20.72978">
        <ele>1213.841386</ele>
        <time>2022-04-25T13:00:25.890Z</time>
      </trkpt>
      <trkpt lat="41.70686" lon="20.72977">
        <ele>1213.5294</ele>
        <time>2022-04-25T13:00:27.870Z</time>
      </trkpt>
      <trkpt lat="41.70699" lon="20.72977">
        <ele>1213.243379</ele>
        <time>2022-04-25T13:00:30.861Z</time>
      </trkpt>
      <trkpt lat="41.70711" lon="20.72975">
        <ele>1212.948338</ele>
        <time>2022-04-25T13:00:33.890Z</time>
      </trkpt>
      <trkpt lat="41.70721" lon="20.72972">
        <ele>1212.726415</ele>
        <time>2022-04-25T13:00:35.891Z</time>
      </trkpt>
      <trkpt lat="41.7073" lon="20.72965">
        <ele>1212.472599</ele>
        <time>2022-04-25T13:00:37.869Z</time>
      </trkpt>
      <trkpt lat="41.70739" lon="20.72957">
        <ele>1212.217544</ele>
        <time>2022-04-25T13:00:39.877Z</time>
      </trkpt>
      <trkpt lat="41.70748" lon="20.72948">
        <ele>1211.774024</ele>
        <time>2022-04-25T13:00:41.865Z</time>
      </trkpt>
      <trkpt lat="41.70755" lon="20.72938">
        <ele>1211.118916</ele>
        <time>2022-04-25T13:00:43.875Z</time>
      </trkpt>
      <trkpt lat="41.7076" lon="20.72926">
        <ele>1210.446027</ele>
        <time>2022-04-25T13:00:45.897Z</time>
      </trkpt>
      <trkpt lat="41.70766" lon="20.72915">
        <ele>1209.82263</ele>
        <time>2022-04-25T13:00:47.871Z</time>
      </trkpt>
      <trkpt lat="41.70771" lon="20.72903">
        <ele>1209.206585</ele>
        <time>2022-04-25T13:00:49.884Z</time>
      </trkpt>
      <trkpt lat="41.70777" lon="20.7289">
        <ele>1208.487952</ele>
        <time>2022-04-25T13:00:51.875Z</time>
      </trkpt>
      <trkpt lat="41.70782" lon="20.72872">
        <ele>1207.613627</ele>
        <time>2022-04-25T13:00:53.889Z</time>
      </trkpt>
      <trkpt lat="41.70786" lon="20.72855">
        <ele>1206.770845</ele>
        <time>2022-04-25T13:00:55.871Z</time>
      </trkpt>
      <trkpt lat="41.7079" lon="20.72837">
        <ele>1205.937534</ele>
        <time>2022-04-25T13:00:57.910Z</time>
      </trkpt>
      <trkpt lat="41.70794" lon="20.72821">
        <ele>1205.145191</ele>
        <time>2022-04-25T13:00:59.865Z</time>
      </trkpt>
      <trkpt lat="41.70798" lon="20.72806">
        <ele>1204.420237</ele>
        <time>2022-04-25T13:01:01.870Z</time>
      </trkpt>
      <trkpt lat="41.70801" lon="20.72791">
        <ele>1203.696355</ele>
        <time>2022-04-25T13:01:03.878Z</time>
      </trkpt>
      <trkpt lat="41.70803" lon="20.72775">
        <ele>1202.935125</ele>
        <time>2022-04-25T13:01:05.877Z</time>
      </trkpt>
      <trkpt lat="41.70808" lon="20.72758">
        <ele>1202.097922</ele>
        <time>2022-04-25T13:01:07.858Z</time>
      </trkpt>
      <trkpt lat="41.70815" lon="20.72742">
        <ele>1201.220341</ele>
        <time>2022-04-25T13:01:09.881Z</time>
      </trkpt>
      <trkpt lat="41.70824" lon="20.72723">
        <ele>1200.567352</ele>
        <time>2022-04-25T13:01:11.878Z</time>
      </trkpt>
      <trkpt lat="41.70833" lon="20.72705">
        <ele>1200.027505</ele>
        <time>2022-04-25T13:01:13.879Z</time>
      </trkpt>
      <trkpt lat="41.70842" lon="20.72689">
        <ele>1199.538305</ele>
        <time>2022-04-25T13:01:15.880Z</time>
      </trkpt>
      <trkpt lat="41.70851" lon="20.72674">
        <ele>1199.062611</ele>
        <time>2022-04-25T13:01:17.879Z</time>
      </trkpt>
      <trkpt lat="41.7086" lon="20.72657">
        <ele>1198.567573</ele>
        <time>2022-04-25T13:01:19.864Z</time>
      </trkpt>
      <trkpt lat="41.70869" lon="20.7264">
        <ele>1198.058236</ele>
        <time>2022-04-25T13:01:21.873Z</time>
      </trkpt>
      <trkpt lat="41.70876" lon="20.72623">
        <ele>1197.581041</ele>
        <time>2022-04-25T13:01:23.870Z</time>
      </trkpt>
      <trkpt lat="41.70884" lon="20.72606">
        <ele>1197.101415</ele>
        <time>2022-04-25T13:01:25.897Z</time>
      </trkpt>
      <trkpt lat="41.70891" lon="20.72588">
        <ele>1196.632238</ele>
        <time>2022-04-25T13:01:27.864Z</time>
      </trkpt>
      <trkpt lat="41.70896" lon="20.72571">
        <ele>1196.186913</ele>
        <time>2022-04-25T13:01:29.878Z</time>
      </trkpt>
      <trkpt lat="41.709" lon="20.72554">
        <ele>1195.755119</ele>
        <time>2022-04-25T13:01:31.936Z</time>
      </trkpt>
      <trkpt lat="41.70904" lon="20.72536">
        <ele>1195.288814</ele>
        <time>2022-04-25T13:01:33.887Z</time>
      </trkpt>
      <trkpt lat="41.70907" lon="20.72518">
        <ele>1194.414007</ele>
        <time>2022-04-25T13:01:35.886Z</time>
      </trkpt>
      <trkpt lat="41.70913" lon="20.72501">
        <ele>1193.32151</ele>
        <time>2022-04-25T13:01:37.854Z</time>
      </trkpt>
      <trkpt lat="41.70921" lon="20.72489">
        <ele>1192.329972</ele>
        <time>2022-04-25T13:01:39.871Z</time>
      </trkpt>
      <trkpt lat="41.70932" lon="20.7248">
        <ele>1191.306887</ele>
        <time>2022-04-25T13:01:41.864Z</time>
      </trkpt>
      <trkpt lat="41.70944" lon="20.72472">
        <ele>1190.269514</ele>
        <time>2022-04-25T13:01:43.920Z</time>
      </trkpt>
      <trkpt lat="41.70959" lon="20.72467">
        <ele>1189.020027</ele>
        <time>2022-04-25T13:01:45.875Z</time>
      </trkpt>
      <trkpt lat="41.70972" lon="20.7246">
        <ele>1187.871392</ele>
        <time>2022-04-25T13:01:47.874Z</time>
      </trkpt>
      <trkpt lat="41.70984" lon="20.72451">
        <ele>1186.748028</ele>
        <time>2022-04-25T13:01:49.926Z</time>
      </trkpt>
      <trkpt lat="41.70994" lon="20.72438">
        <ele>1185.635897</ele>
        <time>2022-04-25T13:01:51.882Z</time>
      </trkpt>
      <trkpt lat="41.71001" lon="20.72422">
        <ele>1184.529495</ele>
        <time>2022-04-25T13:01:53.898Z</time>
      </trkpt>
      <trkpt lat="41.71005" lon="20.72405">
        <ele>1183.429717</ele>
        <time>2022-04-25T13:01:55.918Z</time>
      </trkpt>
      <trkpt lat="41.71008" lon="20.72388">
        <ele>1182.364426</ele>
        <time>2022-04-25T13:01:57.868Z</time>
      </trkpt>
      <trkpt lat="41.71008" lon="20.72371">
        <ele>1181.381655</ele>
        <time>2022-04-25T13:01:59.867Z</time>
      </trkpt>
      <trkpt lat="41.71004" lon="20.72356">
        <ele>1180.549492</ele>
        <time>2022-04-25T13:02:01.899Z</time>
      </trkpt>
      <trkpt lat="41.70998" lon="20.72341">
        <ele>1180.364353</ele>
        <time>2022-04-25T13:02:03.903Z</time>
      </trkpt>
      <trkpt lat="41.70994" lon="20.72325">
        <ele>1180.177532</ele>
        <time>2022-04-25T13:02:05.880Z</time>
      </trkpt>
      <trkpt lat="41.70989" lon="20.72309">
        <ele>1179.977571</ele>
        <time>2022-04-25T13:02:07.888Z</time>
      </trkpt>
      <trkpt lat="41.70985" lon="20.72292">
        <ele>1179.7791</ele>
        <time>2022-04-25T13:02:09.877Z</time>
      </trkpt>
      <trkpt lat="41.70986" lon="20.72272">
        <ele>1179.562985</ele>
        <time>2022-04-25T13:02:11.890Z</time>
      </trkpt>
      <trkpt lat="41.70991" lon="20.72255">
        <ele>1179.35838</ele>
        <time>2022-04-25T13:02:13.873Z</time>
      </trkpt>
      <trkpt lat="41.70998" lon="20.72241">
        <ele>1179.169481</ele>
        <time>2022-04-25T13:02:15.889Z</time>
      </trkpt>
      <trkpt lat="41.71005" lon="20.72228">
        <ele>1178.990247</ele>
        <time>2022-04-25T13:02:17.916Z</time>
      </trkpt>
      <trkpt lat="41.7101" lon="20.72213">
        <ele>1178.807888</ele>
        <time>2022-04-25T13:02:19.875Z</time>
      </trkpt>
      <trkpt lat="41.71017" lon="20.72197">
        <ele>1178.606202</ele>
        <time>2022-04-25T13:02:21.869Z</time>
      </trkpt>
      <trkpt lat="41.71021" lon="20.7218">
        <ele>1178.40055</ele>
        <time>2022-04-25T13:02:23.884Z</time>
      </trkpt>
      <trkpt lat="41.71023" lon="20.72161">
        <ele>1178.179765</ele>
        <time>2022-04-25T13:02:25.876Z</time>
      </trkpt>
      <trkpt lat="41.71021" lon="20.7214">
        <ele>1177.943987</ele>
        <time>2022-04-25T13:02:27.882Z</time>
      </trkpt>
      <trkpt lat="41.71019" lon="20.7212">
        <ele>1177.321461</ele>
        <time>2022-04-25T13:02:29.895Z</time>
      </trkpt>
      <trkpt lat="41.71019" lon="20.72103">
        <ele>1176.696033</ele>
        <time>2022-04-25T13:02:31.879Z</time>
      </trkpt>
      <trkpt lat="41.71024" lon="20.72084">
        <ele>1175.978507</ele>
        <time>2022-04-25T13:02:33.888Z</time>
      </trkpt>
      <trkpt lat="41.7103" lon="20.72064">
        <ele>1175.202541</ele>
        <time>2022-04-25T13:02:35.881Z</time>
      </trkpt>
      <trkpt lat="41.71039" lon="20.72046">
        <ele>1174.404045</ele>
        <time>2022-04-25T13:02:37.864Z</time>
      </trkpt>
      <trkpt lat="41.71049" lon="20.72029">
        <ele>1173.616755</ele>
        <time>2022-04-25T13:02:39.924Z</time>
      </trkpt>
      <trkpt lat="41.71058" lon="20.72013">
        <ele>1172.873192</ele>
        <time>2022-04-25T13:02:41.897Z</time>
      </trkpt>
      <trkpt lat="41.71066" lon="20.71998">
        <ele>1172.217533</ele>
        <time>2022-04-25T13:02:43.879Z</time>
      </trkpt>
      <trkpt lat="41.71074" lon="20.71983">
        <ele>1171.523925</ele>
        <time>2022-04-25T13:02:45.903Z</time>
      </trkpt>
      <trkpt lat="41.71083" lon="20.71967">
        <ele>1170.80399</ele>
        <time>2022-04-25T13:02:47.873Z</time>
      </trkpt>
      <trkpt lat="41.71089" lon="20.71951">
        <ele>1170.123922</ele>
        <time>2022-04-25T13:02:49.884Z</time>
      </trkpt>
      <trkpt lat="41.71093" lon="20.71933">
        <ele>1169.456961</ele>
        <time>2022-04-25T13:02:51.902Z</time>
      </trkpt>
      <trkpt lat="41.71097" lon="20.71912">
        <ele>1168.83871</ele>
        <time>2022-04-25T13:02:53.872Z</time>
      </trkpt>
      <trkpt lat="41.71098" lon="20.71889">
        <ele>1168.313041</ele>
        <time>2022-04-25T13:02:55.873Z</time>
      </trkpt>
      <trkpt lat="41.71096" lon="20.71877">
        <ele>1168.039431</ele>
        <time>2022-04-25T13:02:56.866Z</time>
      </trkpt>
      <trkpt lat="41.71095" lon="20.71865">
        <ele>1167.769676</ele>
        <time>2022-04-25T13:02:57.878Z</time>
      </trkpt>
      <trkpt lat="41.71093" lon="20.71853">
        <ele>1167.490531</ele>
        <time>2022-04-25T13:02:58.892Z</time>
      </trkpt>
      <trkpt lat="41.71091" lon="20.7184">
        <ele>1167.205772</ele>
        <time>2022-04-25T13:02:59.884Z</time>
      </trkpt>
      <trkpt lat="41.7109" lon="20.71828">
        <ele>1166.922481</ele>
        <time>2022-04-25T13:03:00.886Z</time>
      </trkpt>
      <trkpt lat="41.71088" lon="20.71816">
        <ele>1166.642729</ele>
        <time>2022-04-25T13:03:01.893Z</time>
      </trkpt>
      <trkpt lat="41.71088" lon="20.71793">
        <ele>1166.139603</ele>
        <time>2022-04-25T13:03:03.893Z</time>
      </trkpt>
      <trkpt lat="41.71093" lon="20.71772">
        <ele>1165.644142</ele>
        <time>2022-04-25T13:03:05.878Z</time>
      </trkpt>
      <trkpt lat="41.71098" lon="20.71762">
        <ele>1165.363174</ele>
        <time>2022-04-25T13:03:06.885Z</time>
      </trkpt>
      <trkpt lat="41.71105" lon="20.71752">
        <ele>1165.060433</ele>
        <time>2022-04-25T13:03:07.886Z</time>
      </trkpt>
      <trkpt lat="41.71111" lon="20.71742">
        <ele>1164.766175</ele>
        <time>2022-04-25T13:03:08.874Z</time>
      </trkpt>
      <trkpt lat="41.71123" lon="20.71725">
        <ele>1164.236377</ele>
        <time>2022-04-25T13:03:10.891Z</time>
      </trkpt>
      <trkpt lat="41.71135" lon="20.71708">
        <ele>1163.729682</ele>
        <time>2022-04-25T13:03:12.891Z</time>
      </trkpt>
      <trkpt lat="41.71145" lon="20.71692">
        <ele>1163.102384</ele>
        <time>2022-04-25T13:03:14.880Z</time>
      </trkpt>
      <trkpt lat="41.71153" lon="20.71674">
        <ele>1162.463502</ele>
        <time>2022-04-25T13:03:16.882Z</time>
      </trkpt>
      <trkpt lat="41.71158" lon="20.71654">
        <ele>1161.839025</ele>
        <time>2022-04-25T13:03:18.885Z</time>
      </trkpt>
      <trkpt lat="41.7116" lon="20.71633">
        <ele>1161.205208</ele>
        <time>2022-04-25T13:03:20.897Z</time>
      </trkpt>
      <trkpt lat="41.7116" lon="20.71614">
        <ele>1160.604272</ele>
        <time>2022-04-25T13:03:22.869Z</time>
      </trkpt>
      <trkpt lat="41.71157" lon="20.71593">
        <ele>1159.97289</ele>
        <time>2022-04-25T13:03:24.873Z</time>
      </trkpt>
      <trkpt lat="41.71151" lon="20.71575">
        <ele>1159.36552</ele>
        <time>2022-04-25T13:03:26.871Z</time>
      </trkpt>
      <trkpt lat="41.71142" lon="20.71559">
        <ele>1158.765339</ele>
        <time>2022-04-25T13:03:28.877Z</time>
      </trkpt>
      <trkpt lat="41.71134" lon="20.71542">
        <ele>1158.164883</ele>
        <time>2022-04-25T13:03:30.855Z</time>
      </trkpt>
      <trkpt lat="41.71124" lon="20.71525">
        <ele>1157.49627</ele>
        <time>2022-04-25T13:03:32.871Z</time>
      </trkpt>
      <trkpt lat="41.71112" lon="20.71507">
        <ele>1156.797555</ele>
        <time>2022-04-25T13:03:34.876Z</time>
      </trkpt>
      <trkpt lat="41.71102" lon="20.71494">
        <ele>1156.339921</ele>
        <time>2022-04-25T13:03:36.877Z</time>
      </trkpt>
      <trkpt lat="41.71093" lon="20.71482">
        <ele>1156.142947</ele>
        <time>2022-04-25T13:03:38.882Z</time>
      </trkpt>
      <trkpt lat="41.71083" lon="20.71469">
        <ele>1155.941276</ele>
        <time>2022-04-25T13:03:40.883Z</time>
      </trkpt>
      <trkpt lat="41.71075" lon="20.71455">
        <ele>1155.744305</ele>
        <time>2022-04-25T13:03:42.876Z</time>
      </trkpt>
      <trkpt lat="41.71071" lon="20.71438">
        <ele>1155.541311</ele>
        <time>2022-04-25T13:03:44.859Z</time>
      </trkpt>
      <trkpt lat="41.71075" lon="20.71422">
        <ele>1155.355109</ele>
        <time>2022-04-25T13:03:46.878Z</time>
      </trkpt>
      <trkpt lat="41.71084" lon="20.71408">
        <ele>1155.143058</ele>
        <time>2022-04-25T13:03:48.890Z</time>
      </trkpt>
      <trkpt lat="41.71096" lon="20.71397">
        <ele>1154.932063</ele>
        <time>2022-04-25T13:03:50.884Z</time>
      </trkpt>
      <trkpt lat="41.7111" lon="20.71391">
        <ele>1154.712628</ele>
        <time>2022-04-25T13:03:52.878Z</time>
      </trkpt>
      <trkpt lat="41.71124" lon="20.71385">
        <ele>1154.48139</ele>
        <time>2022-04-25T13:03:54.886Z</time>
      </trkpt>
      <trkpt lat="41.71136" lon="20.71373">
        <ele>1154.259586</ele>
        <time>2022-04-25T13:03:56.885Z</time>
      </trkpt>
      <trkpt lat="41.71143" lon="20.71357">
        <ele>1154.053805</ele>
        <time>2022-04-25T13:03:58.885Z</time>
      </trkpt>
      <trkpt lat="41.71148" lon="20.7134">
        <ele>1153.83875</ele>
        <time>2022-04-25T13:04:00.869Z</time>
      </trkpt>
      <trkpt lat="41.71154" lon="20.71323">
        <ele>1153.586915</ele>
        <time>2022-04-25T13:04:02.874Z</time>
      </trkpt>
      <trkpt lat="41.71158" lon="20.71308">
        <ele>1153.276322</ele>
        <time>2022-04-25T13:04:04.867Z</time>
      </trkpt>
      <trkpt lat="41.71161" lon="20.71292">
        <ele>1152.94573</ele>
        <time>2022-04-25T13:04:06.944Z</time>
      </trkpt>
      <trkpt lat="41.71165" lon="20.71273">
        <ele>1152.56456</ele>
        <time>2022-04-25T13:04:08.879Z</time>
      </trkpt>
      <trkpt lat="41.71169" lon="20.71256">
        <ele>1152.207721</ele>
        <time>2022-04-25T13:04:10.893Z</time>
      </trkpt>
      <trkpt lat="41.71173" lon="20.71238">
        <ele>1151.845982</ele>
        <time>2022-04-25T13:04:12.871Z</time>
      </trkpt>
      <trkpt lat="41.71176" lon="20.71222">
        <ele>1151.512869</ele>
        <time>2022-04-25T13:04:14.849Z</time>
      </trkpt>
      <trkpt lat="41.71179" lon="20.71208">
        <ele>1151.235035</ele>
        <time>2022-04-25T13:04:16.885Z</time>
      </trkpt>
      <trkpt lat="41.71182" lon="20.71195">
        <ele>1150.962803</ele>
        <time>2022-04-25T13:04:18.862Z</time>
      </trkpt>
      <trkpt lat="41.71186" lon="20.71182">
        <ele>1150.688066</ele>
        <time>2022-04-25T13:04:20.855Z</time>
      </trkpt>
      <trkpt lat="41.71189" lon="20.71169">
        <ele>1150.419763</ele>
        <time>2022-04-25T13:04:22.916Z</time>
      </trkpt>
      <trkpt lat="41.71194" lon="20.71156">
        <ele>1150.135465</ele>
        <time>2022-04-25T13:04:24.898Z</time>
      </trkpt>
      <trkpt lat="41.71198" lon="20.71142">
        <ele>1149.840385</ele>
        <time>2022-04-25T13:04:26.869Z</time>
      </trkpt>
      <trkpt lat="41.71203" lon="20.71128">
        <ele>1149.537132</ele>
        <time>2022-04-25T13:04:28.930Z</time>
      </trkpt>
      <trkpt lat="41.71205" lon="20.71113">
        <ele>1149.24653</ele>
        <time>2022-04-25T13:04:30.862Z</time>
      </trkpt>
      <trkpt lat="41.71208" lon="20.71099">
        <ele>1148.918375</ele>
        <time>2022-04-25T13:04:32.888Z</time>
      </trkpt>
      <trkpt lat="41.71212" lon="20.71086">
        <ele>1148.251574</ele>
        <time>2022-04-25T13:04:34.932Z</time>
      </trkpt>
      <trkpt lat="41.71216" lon="20.7107">
        <ele>1147.395941</ele>
        <time>2022-04-25T13:04:37.880Z</time>
      </trkpt>
      <trkpt lat="41.71219" lon="20.71056">
        <ele>1146.681125</ele>
        <time>2022-04-25T13:04:39.866Z</time>
      </trkpt>
      <trkpt lat="41.71222" lon="20.71042">
        <ele>1145.978802</ele>
        <time>2022-04-25T13:04:41.879Z</time>
      </trkpt>
      <trkpt lat="41.71223" lon="20.7103">
        <ele>1145.371353</ele>
        <time>2022-04-25T13:04:43.876Z</time>
      </trkpt>
      <trkpt lat="41.71224" lon="20.71017">
        <ele>1144.774216</ele>
        <time>2022-04-25T13:04:45.911Z</time>
      </trkpt>
      <trkpt lat="41.71224" lon="20.71004">
        <ele>1144.122253</ele>
        <time>2022-04-25T13:04:47.912Z</time>
      </trkpt>
      <trkpt lat="41.71226" lon="20.7099">
        <ele>1143.444195</ele>
        <time>2022-04-25T13:04:49.878Z</time>
      </trkpt>
      <trkpt lat="41.71225" lon="20.70974">
        <ele>1142.622284</ele>
        <time>2022-04-25T13:04:52.891Z</time>
      </trkpt>
      <trkpt lat="41.71225" lon="20.70961">
        <ele>1141.989829</ele>
        <time>2022-04-25T13:04:54.903Z</time>
      </trkpt>
      <trkpt lat="41.71222" lon="20.70946">
        <ele>1141.236249</ele>
        <time>2022-04-25T13:04:56.911Z</time>
      </trkpt>
      <trkpt lat="41.7122" lon="20.7093">
        <ele>1140.443668</ele>
        <time>2022-04-25T13:04:58.903Z</time>
      </trkpt>
      <trkpt lat="41.71216" lon="20.70915">
        <ele>1139.663899</ele>
        <time>2022-04-25T13:05:00.880Z</time>
      </trkpt>
      <trkpt lat="41.71213" lon="20.70899">
        <ele>1138.876735</ele>
        <time>2022-04-25T13:05:02.896Z</time>
      </trkpt>
      <trkpt lat="41.71208" lon="20.70885">
        <ele>1138.129448</ele>
        <time>2022-04-25T13:05:04.874Z</time>
      </trkpt>
      <trkpt lat="41.71203" lon="20.70872">
        <ele>1137.369968</ele>
        <time>2022-04-25T13:05:06.894Z</time>
      </trkpt>
      <trkpt lat="41.71196" lon="20.70857">
        <ele>1135.877164</ele>
        <time>2022-04-25T13:05:08.882Z</time>
      </trkpt>
      <trkpt lat="41.71188" lon="20.7084">
        <ele>1133.929195</ele>
        <time>2022-04-25T13:05:10.888Z</time>
      </trkpt>
      <trkpt lat="41.71181" lon="20.70823">
        <ele>1132.020795</ele>
        <time>2022-04-25T13:05:12.884Z</time>
      </trkpt>
      <trkpt lat="41.71173" lon="20.70806">
        <ele>1130.095455</ele>
        <time>2022-04-25T13:05:14.893Z</time>
      </trkpt>
      <trkpt lat="41.71166" lon="20.7079">
        <ele>1128.246321</ele>
        <time>2022-04-25T13:05:16.898Z</time>
      </trkpt>
      <trkpt lat="41.7116" lon="20.70771">
        <ele>1126.275094</ele>
        <time>2022-04-25T13:05:18.880Z</time>
      </trkpt>
      <trkpt lat="41.71155" lon="20.7075">
        <ele>1124.157018</ele>
        <time>2022-04-25T13:05:20.883Z</time>
      </trkpt>
      <trkpt lat="41.71151" lon="20.7073">
        <ele>1122.143202</ele>
        <time>2022-04-25T13:05:22.883Z</time>
      </trkpt>
      <trkpt lat="41.71148" lon="20.7071">
        <ele>1120.142655</ele>
        <time>2022-04-25T13:05:24.883Z</time>
      </trkpt>
      <trkpt lat="41.71145" lon="20.70691">
        <ele>1118.247996</ele>
        <time>2022-04-25T13:05:26.884Z</time>
      </trkpt>
      <trkpt lat="41.71141" lon="20.70672">
        <ele>1116.345669</ele>
        <time>2022-04-25T13:05:28.889Z</time>
      </trkpt>
      <trkpt lat="41.71138" lon="20.70654">
        <ele>1114.499701</ele>
        <time>2022-04-25T13:05:30.872Z</time>
      </trkpt>
      <trkpt lat="41.71134" lon="20.70636">
        <ele>1112.929761</ele>
        <time>2022-04-25T13:05:32.869Z</time>
      </trkpt>
      <trkpt lat="41.71131" lon="20.70617">
        <ele>1111.451172</ele>
        <time>2022-04-25T13:05:34.890Z</time>
      </trkpt>
      <trkpt lat="41.71128" lon="20.70598">
        <ele>1109.962916</ele>
        <time>2022-04-25T13:05:36.871Z</time>
      </trkpt>
      <trkpt lat="41.71125" lon="20.7058">
        <ele>1108.594697</ele>
        <time>2022-04-25T13:05:38.870Z</time>
      </trkpt>
      <trkpt lat="41.71122" lon="20.70562">
        <ele>1107.22195</ele>
        <time>2022-04-25T13:05:40.904Z</time>
      </trkpt>
      <trkpt lat="41.71119" lon="20.70546">
        <ele>1105.981028</ele>
        <time>2022-04-25T13:05:42.933Z</time>
      </trkpt>
      <trkpt lat="41.71117" lon="20.70532">
        <ele>1104.834219</ele>
        <time>2022-04-25T13:05:44.880Z</time>
      </trkpt>
      <trkpt lat="41.71115" lon="20.70517">
        <ele>1103.746899</ele>
        <time>2022-04-25T13:05:46.881Z</time>
      </trkpt>
      <trkpt lat="41.71114" lon="20.70503">
        <ele>1102.599417</ele>
        <time>2022-04-25T13:05:48.892Z</time>
      </trkpt>
      <trkpt lat="41.7111" lon="20.70486">
        <ele>1101.27833</ele>
        <time>2022-04-25T13:05:50.891Z</time>
      </trkpt>
      <trkpt lat="41.71108" lon="20.70469">
        <ele>1099.949362</ele>
        <time>2022-04-25T13:05:52.883Z</time>
      </trkpt>
      <trkpt lat="41.71105" lon="20.7045">
        <ele>1098.538716</ele>
        <time>2022-04-25T13:05:54.906Z</time>
      </trkpt>
      <trkpt lat="41.71103" lon="20.70434">
        <ele>1097.258859</ele>
        <time>2022-04-25T13:05:56.875Z</time>
      </trkpt>
      <trkpt lat="41.711" lon="20.70419">
        <ele>1096.124397</ele>
        <time>2022-04-25T13:05:58.886Z</time>
      </trkpt>
      <trkpt lat="41.71097" lon="20.70404">
        <ele>1095.425743</ele>
        <time>2022-04-25T13:06:00.869Z</time>
      </trkpt>
      <trkpt lat="41.71093" lon="20.7039">
        <ele>1095.292041</ele>
        <time>2022-04-25T13:06:02.878Z</time>
      </trkpt>
      <trkpt lat="41.71092" lon="20.70378">
        <ele>1095.184772</ele>
        <time>2022-04-25T13:06:04.882Z</time>
      </trkpt>
      <trkpt lat="41.71094" lon="20.70365">
        <ele>1095.063442</ele>
        <time>2022-04-25T13:06:06.879Z</time>
      </trkpt>
      <trkpt lat="41.71097" lon="20.70351">
        <ele>1094.936825</ele>
        <time>2022-04-25T13:06:08.892Z</time>
      </trkpt>
      <trkpt lat="41.71102" lon="20.70337">
        <ele>1094.801349</ele>
        <time>2022-04-25T13:06:10.877Z</time>
      </trkpt>
      <trkpt lat="41.7111" lon="20.70323">
        <ele>1094.645612</ele>
        <time>2022-04-25T13:06:12.893Z</time>
      </trkpt>
      <trkpt lat="41.71117" lon="20.7031">
        <ele>1094.499104</ele>
        <time>2022-04-25T13:06:14.875Z</time>
      </trkpt>
      <trkpt lat="41.71122" lon="20.70297">
        <ele>1094.371515</ele>
        <time>2022-04-25T13:06:16.877Z</time>
      </trkpt>
      <trkpt lat="41.71126" lon="20.70285">
        <ele>1094.257058</ele>
        <time>2022-04-25T13:06:18.866Z</time>
      </trkpt>
      <trkpt lat="41.7113" lon="20.70274">
        <ele>1094.146307</ele>
        <time>2022-04-25T13:06:20.874Z</time>
      </trkpt>
      <trkpt lat="41.71136" lon="20.70258">
        <ele>1093.98817</ele>
        <time>2022-04-25T13:06:23.889Z</time>
      </trkpt>
      <trkpt lat="41.7114" lon="20.70243">
        <ele>1093.850325</ele>
        <time>2022-04-25T13:06:26.890Z</time>
      </trkpt>
      <trkpt lat="41.71142" lon="20.70229">
        <ele>1093.722601</ele>
        <time>2022-04-25T13:06:29.891Z</time>
      </trkpt>
      <trkpt lat="41.71143" lon="20.70213">
        <ele>1093.578157</ele>
        <time>2022-04-25T13:06:32.890Z</time>
      </trkpt>
      <trkpt lat="41.71142" lon="20.70194">
        <ele>1093.414341</ele>
        <time>2022-04-25T13:06:35.890Z</time>
      </trkpt>
      <trkpt lat="41.71141" lon="20.7018">
        <ele>1093.360694</ele>
        <time>2022-04-25T13:06:37.922Z</time>
      </trkpt>
      <trkpt lat="41.71138" lon="20.70167">
        <ele>1093.361173</ele>
        <time>2022-04-25T13:06:39.890Z</time>
      </trkpt>
      <trkpt lat="41.71133" lon="20.70155">
        <ele>1093.361677</ele>
        <time>2022-04-25T13:06:41.873Z</time>
      </trkpt>
      <trkpt lat="41.71128" lon="20.70142">
        <ele>1093.362239</ele>
        <time>2022-04-25T13:06:43.878Z</time>
      </trkpt>
      <trkpt lat="41.71122" lon="20.70127">
        <ele>1093.362837</ele>
        <time>2022-04-25T13:06:45.874Z</time>
      </trkpt>
      <trkpt lat="41.71119" lon="20.7011">
        <ele>1093.36347</ele>
        <time>2022-04-25T13:06:47.878Z</time>
      </trkpt>
      <trkpt lat="41.71119" lon="20.70091">
        <ele>1093.364169</ele>
        <time>2022-04-25T13:06:49.896Z</time>
      </trkpt>
      <trkpt lat="41.71121" lon="20.70071">
        <ele>1093.364876</ele>
        <time>2022-04-25T13:06:51.890Z</time>
      </trkpt>
      <trkpt lat="41.71125" lon="20.70054">
        <ele>1093.365526</ele>
        <time>2022-04-25T13:06:53.900Z</time>
      </trkpt>
      <trkpt lat="41.71127" lon="20.70037">
        <ele>1093.366164</ele>
        <time>2022-04-25T13:06:55.877Z</time>
      </trkpt>
      <trkpt lat="41.71129" lon="20.70019">
        <ele>1093.366815</ele>
        <time>2022-04-25T13:06:57.874Z</time>
      </trkpt>
      <trkpt lat="41.7113" lon="20.70001">
        <ele>1093.367468</ele>
        <time>2022-04-25T13:06:59.933Z</time>
      </trkpt>
      <trkpt lat="41.71131" lon="20.69984">
        <ele>1093.368093</ele>
        <time>2022-04-25T13:07:01.897Z</time>
      </trkpt>
      <trkpt lat="41.71134" lon="20.69968">
        <ele>1093.368689</ele>
        <time>2022-04-25T13:07:03.874Z</time>
      </trkpt>
      <trkpt lat="41.71138" lon="20.69952">
        <ele>1093.190689</ele>
        <time>2022-04-25T13:07:05.867Z</time>
      </trkpt>
      <trkpt lat="41.71142" lon="20.69936">
        <ele>1092.570968</ele>
        <time>2022-04-25T13:07:07.860Z</time>
      </trkpt>
      <trkpt lat="41.71145" lon="20.6992">
        <ele>1091.956441</ele>
        <time>2022-04-25T13:07:09.922Z</time>
      </trkpt>
      <trkpt lat="41.71147" lon="20.69904">
        <ele>1091.33826</ele>
        <time>2022-04-25T13:07:11.873Z</time>
      </trkpt>
      <trkpt lat="41.71149" lon="20.69887">
        <ele>1090.695442</ele>
        <time>2022-04-25T13:07:13.873Z</time>
      </trkpt>
      <trkpt lat="41.71151" lon="20.6987">
        <ele>1090.042375</ele>
        <time>2022-04-25T13:07:15.883Z</time>
      </trkpt>
      <trkpt lat="41.71153" lon="20.69852">
        <ele>1089.372855</ele>
        <time>2022-04-25T13:07:17.865Z</time>
      </trkpt>
      <trkpt lat="41.71155" lon="20.69836">
        <ele>1088.7586</ele>
        <time>2022-04-25T13:07:19.894Z</time>
      </trkpt>
      <trkpt lat="41.71154" lon="20.69822">
        <ele>1088.223653</ele>
        <time>2022-04-25T13:07:21.915Z</time>
      </trkpt>
      <trkpt lat="41.71151" lon="20.69807">
        <ele>1087.65547</ele>
        <time>2022-04-25T13:07:23.873Z</time>
      </trkpt>
      <trkpt lat="41.71149" lon="20.69791">
        <ele>1087.044918</ele>
        <time>2022-04-25T13:07:25.869Z</time>
      </trkpt>
      <trkpt lat="41.71146" lon="20.69773">
        <ele>1086.368575</ele>
        <time>2022-04-25T13:07:27.873Z</time>
      </trkpt>
      <trkpt lat="41.71139" lon="20.69756">
        <ele>1085.649533</ele>
        <time>2022-04-25T13:07:29.887Z</time>
      </trkpt>
      <trkpt lat="41.7113" lon="20.6974">
        <ele>1084.883798</ele>
        <time>2022-04-25T13:07:31.879Z</time>
      </trkpt>
      <trkpt lat="41.71121" lon="20.69722">
        <ele>1084.295013</ele>
        <time>2022-04-25T13:07:33.882Z</time>
      </trkpt>
      <trkpt lat="41.71114" lon="20.69702">
        <ele>1084.15293</ele>
        <time>2022-04-25T13:07:35.866Z</time>
      </trkpt>
      <trkpt lat="41.7111" lon="20.6968">
        <ele>1084.005281</ele>
        <time>2022-04-25T13:07:37.872Z</time>
      </trkpt>
      <trkpt lat="41.7111" lon="20.69661">
        <ele>1083.884379</ele>
        <time>2022-04-25T13:07:39.899Z</time>
      </trkpt>
      <trkpt lat="41.71114" lon="20.69645">
        <ele>1083.775413</ele>
        <time>2022-04-25T13:07:41.880Z</time>
      </trkpt>
      <trkpt lat="41.71114" lon="20.69632">
        <ele>1083.691724</ele>
        <time>2022-04-25T13:07:43.917Z</time>
      </trkpt>
      <trkpt lat="41.71115" lon="20.69619">
        <ele>1083.611537</ele>
        <time>2022-04-25T13:07:49.914Z</time>
      </trkpt>
      <trkpt lat="41.71095" lon="20.69574">
        <ele>1083.27475</ele>
        <time>2022-04-25T13:09:20.888Z</time>
      </trkpt>
      <trkpt lat="41.71094" lon="20.69562">
        <ele>1083.195075</ele>
        <time>2022-04-25T13:09:24.898Z</time>
      </trkpt>
      <trkpt lat="41.71092" lon="20.69549">
        <ele>1083.106188</ele>
        <time>2022-04-25T13:09:29.881Z</time>
      </trkpt>
      <trkpt lat="41.71089" lon="20.69536">
        <ele>1083.02209</ele>
        <time>2022-04-25T13:09:35.918Z</time>
      </trkpt>
      <trkpt lat="41.71088" lon="20.69523">
        <ele>1082.936861</ele>
        <time>2022-04-25T13:09:39.873Z</time>
      </trkpt>
      <trkpt lat="41.71086" lon="20.69509">
        <ele>1082.846076</ele>
        <time>2022-04-25T13:09:42.900Z</time>
      </trkpt>
      <trkpt lat="41.71085" lon="20.69491">
        <ele>1082.235687</ele>
        <time>2022-04-25T13:09:45.891Z</time>
      </trkpt>
      <trkpt lat="41.71087" lon="20.69474">
        <ele>1081.150993</ele>
        <time>2022-04-25T13:09:47.869Z</time>
      </trkpt>
      <trkpt lat="41.71091" lon="20.69457">
        <ele>1080.005989</ele>
        <time>2022-04-25T13:09:49.876Z</time>
      </trkpt>
      <trkpt lat="41.71095" lon="20.69442">
        <ele>1079.02836</ele>
        <time>2022-04-25T13:09:51.878Z</time>
      </trkpt>
      <trkpt lat="41.71099" lon="20.69428">
        <ele>1078.077757</ele>
        <time>2022-04-25T13:09:53.914Z</time>
      </trkpt>
      <trkpt lat="41.71102" lon="20.69414">
        <ele>1077.136228</ele>
        <time>2022-04-25T13:09:55.890Z</time>
      </trkpt>
      <trkpt lat="41.71103" lon="20.694">
        <ele>1076.223693</ele>
        <time>2022-04-25T13:09:57.870Z</time>
      </trkpt>
      <trkpt lat="41.71102" lon="20.69384">
        <ele>1075.21568</ele>
        <time>2022-04-25T13:09:59.864Z</time>
      </trkpt>
      <trkpt lat="41.71099" lon="20.69366">
        <ele>1074.060337</ele>
        <time>2022-04-25T13:10:01.894Z</time>
      </trkpt>
      <trkpt lat="41.71095" lon="20.69346">
        <ele>1072.773821</ele>
        <time>2022-04-25T13:10:03.874Z</time>
      </trkpt>
      <trkpt lat="41.71094" lon="20.69327">
        <ele>1071.541434</ele>
        <time>2022-04-25T13:10:05.880Z</time>
      </trkpt>
      <trkpt lat="41.71094" lon="20.69309">
        <ele>1070.373097</ele>
        <time>2022-04-25T13:10:07.885Z</time>
      </trkpt>
      <trkpt lat="41.71097" lon="20.69292">
        <ele>1069.33197</ele>
        <time>2022-04-25T13:10:09.881Z</time>
      </trkpt>
      <trkpt lat="41.711" lon="20.69277">
        <ele>1068.300183</ele>
        <time>2022-04-25T13:10:11.876Z</time>
      </trkpt>
      <trkpt lat="41.71104" lon="20.6926">
        <ele>1067.217109</ele>
        <time>2022-04-25T13:10:13.923Z</time>
      </trkpt>
      <trkpt lat="41.71106" lon="20.69243">
        <ele>1066.113579</ele>
        <time>2022-04-25T13:10:15.904Z</time>
      </trkpt>
      <trkpt lat="41.71108" lon="20.69226">
        <ele>1065.068593</ele>
        <time>2022-04-25T13:10:17.882Z</time>
      </trkpt>
      <trkpt lat="41.71109" lon="20.69212">
        <ele>1064.198665</ele>
        <time>2022-04-25T13:10:19.879Z</time>
      </trkpt>
      <trkpt lat="41.71113" lon="20.69198">
        <ele>1063.255513</ele>
        <time>2022-04-25T13:10:21.880Z</time>
      </trkpt>
      <trkpt lat="41.71118" lon="20.69182">
        <ele>1062.205304</ele>
        <time>2022-04-25T13:10:23.860Z</time>
      </trkpt>
      <trkpt lat="41.71123" lon="20.69166">
        <ele>1061.146741</ele>
        <time>2022-04-25T13:10:25.882Z</time>
      </trkpt>
      <trkpt lat="41.71129" lon="20.69153">
        <ele>1060.17107</ele>
        <time>2022-04-25T13:10:27.884Z</time>
      </trkpt>
      <trkpt lat="41.71135" lon="20.6914">
        <ele>1059.218308</ele>
        <time>2022-04-25T13:10:29.884Z</time>
      </trkpt>
      <trkpt lat="41.71141" lon="20.69127">
        <ele>1058.269094</ele>
        <time>2022-04-25T13:10:31.884Z</time>
      </trkpt>
      <trkpt lat="41.71147" lon="20.69111">
        <ele>1057.205521</ele>
        <time>2022-04-25T13:10:33.889Z</time>
      </trkpt>
      <trkpt lat="41.71153" lon="20.69095">
        <ele>1056.114422</ele>
        <time>2022-04-25T13:10:35.877Z</time>
      </trkpt>
      <trkpt lat="41.71159" lon="20.69079">
        <ele>1054.98079</ele>
        <time>2022-04-25T13:10:37.874Z</time>
      </trkpt>
      <trkpt lat="41.71165" lon="20.69062">
        <ele>1053.845437</ele>
        <time>2022-04-25T13:10:39.890Z</time>
      </trkpt>
      <trkpt lat="41.71168" lon="20.69044">
        <ele>1052.702653</ele>
        <time>2022-04-25T13:10:41.892Z</time>
      </trkpt>
      <trkpt lat="41.71168" lon="20.69028">
        <ele>1051.939101</ele>
        <time>2022-04-25T13:10:43.881Z</time>
      </trkpt>
      <trkpt lat="41.71166" lon="20.69014">
        <ele>1051.29945</ele>
        <time>2022-04-25T13:10:45.878Z</time>
      </trkpt>
      <trkpt lat="41.71162" lon="20.69002">
        <ele>1050.684874</ele>
        <time>2022-04-25T13:10:47.873Z</time>
      </trkpt>
      <trkpt lat="41.71155" lon="20.68989">
        <ele>1049.94163</ele>
        <time>2022-04-25T13:10:50.903Z</time>
      </trkpt>
      <trkpt lat="41.71147" lon="20.68974">
        <ele>1049.110291</ele>
        <time>2022-04-25T13:10:53.869Z</time>
      </trkpt>
      <trkpt lat="41.71139" lon="20.68966">
        <ele>1048.47895</ele>
        <time>2022-04-25T13:10:55.874Z</time>
      </trkpt>
      <trkpt lat="41.71132" lon="20.68956">
        <ele>1047.851481</ele>
        <time>2022-04-25T13:10:57.868Z</time>
      </trkpt>
      <trkpt lat="41.71126" lon="20.68945">
        <ele>1047.240359</ele>
        <time>2022-04-25T13:10:59.910Z</time>
      </trkpt>
      <trkpt lat="41.71121" lon="20.68933">
        <ele>1046.598962</ele>
        <time>2022-04-25T13:11:01.888Z</time>
      </trkpt>
      <trkpt lat="41.71116" lon="20.68921">
        <ele>1045.998586</ele>
        <time>2022-04-25T13:11:03.908Z</time>
      </trkpt>
      <trkpt lat="41.71114" lon="20.68907">
        <ele>1045.339746</ele>
        <time>2022-04-25T13:11:05.906Z</time>
      </trkpt>
      <trkpt lat="41.71111" lon="20.68893">
        <ele>1044.672023</ele>
        <time>2022-04-25T13:11:07.868Z</time>
      </trkpt>
      <trkpt lat="41.71107" lon="20.68881">
        <ele>1044.089582</ele>
        <time>2022-04-25T13:11:09.880Z</time>
      </trkpt>
      <trkpt lat="41.71099" lon="20.68874">
        <ele>1043.445917</ele>
        <time>2022-04-25T13:11:11.883Z</time>
      </trkpt>
      <trkpt lat="41.71085" lon="20.6887">
        <ele>1042.620307</ele>
        <time>2022-04-25T13:11:13.878Z</time>
      </trkpt>
      <trkpt lat="41.71071" lon="20.68868">
        <ele>1041.749053</ele>
        <time>2022-04-25T13:11:15.873Z</time>
      </trkpt>
      <trkpt lat="41.7106" lon="20.68866">
        <ele>1040.894165</ele>
        <time>2022-04-25T13:11:17.891Z</time>
      </trkpt>
      <trkpt lat="41.71049" lon="20.68862">
        <ele>1040.071283</ele>
        <time>2022-04-25T13:11:19.877Z</time>
      </trkpt>
      <trkpt lat="41.71039" lon="20.68856">
        <ele>1039.220488</ele>
        <time>2022-04-25T13:11:21.912Z</time>
      </trkpt>
      <trkpt lat="41.7103" lon="20.68847">
        <ele>1038.342218</ele>
        <time>2022-04-25T13:11:23.872Z</time>
      </trkpt>
      <trkpt lat="41.71023" lon="20.68834">
        <ele>1037.460725</ele>
        <time>2022-04-25T13:11:25.883Z</time>
      </trkpt>
      <trkpt lat="41.7102" lon="20.68819">
        <ele>1036.586261</ele>
        <time>2022-04-25T13:11:27.875Z</time>
      </trkpt>
      <trkpt lat="41.71019" lon="20.68802">
        <ele>1035.591738</ele>
        <time>2022-04-25T13:11:29.904Z</time>
      </trkpt>
      <trkpt lat="41.71021" lon="20.68786">
        <ele>1034.728568</ele>
        <time>2022-04-25T13:11:31.896Z</time>
      </trkpt>
      <trkpt lat="41.71027" lon="20.68772">
        <ele>1033.776695</ele>
        <time>2022-04-25T13:11:34.890Z</time>
      </trkpt>
      <trkpt lat="41.71035" lon="20.68761">
        <ele>1032.932544</ele>
        <time>2022-04-25T13:11:37.883Z</time>
      </trkpt>
      <trkpt lat="41.71043" lon="20.68754">
        <ele>1032.203754</ele>
        <time>2022-04-25T13:11:40.892Z</time>
      </trkpt>
      <trkpt lat="41.71051" lon="20.68748">
        <ele>1031.454965</ele>
        <time>2022-04-25T13:11:43.883Z</time>
      </trkpt>
      <trkpt lat="41.71062" lon="20.68744">
        <ele>1030.598602</ele>
        <time>2022-04-25T13:11:46.879Z</time>
      </trkpt>
      <trkpt lat="41.71074" lon="20.6874">
        <ele>1029.677412</ele>
        <time>2022-04-25T13:11:49.894Z</time>
      </trkpt>
      <trkpt lat="41.71087" lon="20.68737">
        <ele>1028.662356</ele>
        <time>2022-04-25T13:11:52.880Z</time>
      </trkpt>
      <trkpt lat="41.71097" lon="20.68734">
        <ele>1027.883924</ele>
        <time>2022-04-25T13:11:54.883Z</time>
      </trkpt>
      <trkpt lat="41.71109" lon="20.68729">
        <ele>1027.161693</ele>
        <time>2022-04-25T13:11:56.880Z</time>
      </trkpt>
      <trkpt lat="41.71121" lon="20.68723">
        <ele>1026.36289</ele>
        <time>2022-04-25T13:11:58.894Z</time>
      </trkpt>
      <trkpt lat="41.71135" lon="20.68714">
        <ele>1025.475588</ele>
        <time>2022-04-25T13:12:00.862Z</time>
      </trkpt>
      <trkpt lat="41.71148" lon="20.68703">
        <ele>1024.571948</ele>
        <time>2022-04-25T13:12:02.874Z</time>
      </trkpt>
      <trkpt lat="41.7116" lon="20.68691">
        <ele>1023.668619</ele>
        <time>2022-04-25T13:12:04.872Z</time>
      </trkpt>
      <trkpt lat="41.71171" lon="20.68678">
        <ele>1022.784636</ele>
        <time>2022-04-25T13:12:06.889Z</time>
      </trkpt>
      <trkpt lat="41.71182" lon="20.68666">
        <ele>1021.956743</ele>
        <time>2022-04-25T13:12:08.877Z</time>
      </trkpt>
      <trkpt lat="41.71192" lon="20.68655">
        <ele>1021.13814</ele>
        <time>2022-04-25T13:12:10.885Z</time>
      </trkpt>
      <trkpt lat="41.71204" lon="20.68643">
        <ele>1020.286978</ele>
        <time>2022-04-25T13:12:12.870Z</time>
      </trkpt>
      <trkpt lat="41.71215" lon="20.68631">
        <ele>1019.415373</ele>
        <time>2022-04-25T13:12:14.878Z</time>
      </trkpt>
      <trkpt lat="41.71227" lon="20.68619">
        <ele>1018.542602</ele>
        <time>2022-04-25T13:12:16.878Z</time>
      </trkpt>
      <trkpt lat="41.71238" lon="20.68607">
        <ele>1017.664379</ele>
        <time>2022-04-25T13:12:18.884Z</time>
      </trkpt>
      <trkpt lat="41.71249" lon="20.68595">
        <ele>1016.943058</ele>
        <time>2022-04-25T13:12:20.885Z</time>
      </trkpt>
      <trkpt lat="41.71259" lon="20.68583">
        <ele>1016.413362</ele>
        <time>2022-04-25T13:12:22.891Z</time>
      </trkpt>
      <trkpt lat="41.71268" lon="20.6857">
        <ele>1015.886971</ele>
        <time>2022-04-25T13:12:24.877Z</time>
      </trkpt>
      <trkpt lat="41.71277" lon="20.68553">
        <ele>1015.302877</ele>
        <time>2022-04-25T13:12:26.921Z</time>
      </trkpt>
      <trkpt lat="41.71284" lon="20.68532">
        <ele>1014.629272</ele>
        <time>2022-04-25T13:12:28.877Z</time>
      </trkpt>
      <trkpt lat="41.71291" lon="20.6851">
        <ele>1013.927756</ele>
        <time>2022-04-25T13:12:30.872Z</time>
      </trkpt>
      <trkpt lat="41.71294" lon="20.68498">
        <ele>1013.556556</ele>
        <time>2022-04-25T13:12:31.864Z</time>
      </trkpt>
      <trkpt lat="41.71298" lon="20.68487">
        <ele>1013.180348</ele>
        <time>2022-04-25T13:12:32.882Z</time>
      </trkpt>
      <trkpt lat="41.71303" lon="20.68475">
        <ele>1012.811316</ele>
        <time>2022-04-25T13:12:33.876Z</time>
      </trkpt>
      <trkpt lat="41.71307" lon="20.68464">
        <ele>1012.443902</ele>
        <time>2022-04-25T13:12:34.879Z</time>
      </trkpt>
      <trkpt lat="41.71312" lon="20.68453">
        <ele>1012.074634</ele>
        <time>2022-04-25T13:12:35.892Z</time>
      </trkpt>
      <trkpt lat="41.71316" lon="20.68442">
        <ele>1011.69902</ele>
        <time>2022-04-25T13:12:36.884Z</time>
      </trkpt>
      <trkpt lat="41.71321" lon="20.68431">
        <ele>1011.327868</ele>
        <time>2022-04-25T13:12:37.916Z</time>
      </trkpt>
      <trkpt lat="41.71326" lon="20.6842">
        <ele>1010.952254</ele>
        <time>2022-04-25T13:12:38.882Z</time>
      </trkpt>
      <trkpt lat="41.7133" lon="20.68408">
        <ele>1010.581461</ele>
        <time>2022-04-25T13:12:39.893Z</time>
      </trkpt>
      <trkpt lat="41.71333" lon="20.68397">
        <ele>1010.221104</ele>
        <time>2022-04-25T13:12:40.882Z</time>
      </trkpt>
      <trkpt lat="41.71336" lon="20.68386">
        <ele>1009.844877</ele>
        <time>2022-04-25T13:12:41.879Z</time>
      </trkpt>
      <trkpt lat="41.71343" lon="20.68364">
        <ele>1009.108987</ele>
        <time>2022-04-25T13:12:43.888Z</time>
      </trkpt>
      <trkpt lat="41.71351" lon="20.68342">
        <ele>1008.346949</ele>
        <time>2022-04-25T13:12:45.884Z</time>
      </trkpt>
      <trkpt lat="41.71355" lon="20.68331">
        <ele>1007.961133</ele>
        <time>2022-04-25T13:12:46.886Z</time>
      </trkpt>
      <trkpt lat="41.7136" lon="20.68321">
        <ele>1007.576649</ele>
        <time>2022-04-25T13:12:47.891Z</time>
      </trkpt>
      <trkpt lat="41.7137" lon="20.683">
        <ele>1006.828626</ele>
        <time>2022-04-25T13:12:49.882Z</time>
      </trkpt>
      <trkpt lat="41.71373" lon="20.68289">
        <ele>1006.451065</ele>
        <time>2022-04-25T13:12:50.890Z</time>
      </trkpt>
      <trkpt lat="41.71377" lon="20.68267">
        <ele>1005.722756</ele>
        <time>2022-04-25T13:12:52.893Z</time>
      </trkpt>
      <trkpt lat="41.71377" lon="20.68243">
        <ele>1004.992643</ele>
        <time>2022-04-25T13:12:54.876Z</time>
      </trkpt>
      <trkpt lat="41.71378" lon="20.6822">
        <ele>1004.259943</ele>
        <time>2022-04-25T13:12:56.892Z</time>
      </trkpt>
      <trkpt lat="41.7138" lon="20.68196">
        <ele>1003.521863</ele>
        <time>2022-04-25T13:12:58.888Z</time>
      </trkpt>
      <trkpt lat="41.71382" lon="20.68173">
        <ele>1002.788329</ele>
        <time>2022-04-25T13:13:00.859Z</time>
      </trkpt>
      <trkpt lat="41.71387" lon="20.6815">
        <ele>1002.119719</ele>
        <time>2022-04-25T13:13:02.889Z</time>
      </trkpt>
      <trkpt lat="41.7139" lon="20.68138">
        <ele>1001.795993</ele>
        <time>2022-04-25T13:13:03.878Z</time>
      </trkpt>
      <trkpt lat="41.71394" lon="20.68127">
        <ele>1001.472677</ele>
        <time>2022-04-25T13:13:04.881Z</time>
      </trkpt>
      <trkpt lat="41.71403" lon="20.68108">
        <ele>1000.861173</ele>
        <time>2022-04-25T13:13:06.892Z</time>
      </trkpt>
      <trkpt lat="41.71414" lon="20.68091">
        <ele>1000.27782</ele>
        <time>2022-04-25T13:13:08.884Z</time>
      </trkpt>
      <trkpt lat="41.71428" lon="20.68077">
        <ele>999.661019</ele>
        <time>2022-04-25T13:13:10.922Z</time>
      </trkpt>
      <trkpt lat="41.71436" lon="20.68072">
        <ele>999.340874</ele>
        <time>2022-04-25T13:13:11.891Z</time>
      </trkpt>
      <trkpt lat="41.71444" lon="20.68066">
        <ele>999.011552</ele>
        <time>2022-04-25T13:13:12.884Z</time>
      </trkpt>
      <trkpt lat="41.71453" lon="20.68062">
        <ele>998.669304</ele>
        <time>2022-04-25T13:13:13.876Z</time>
      </trkpt>
      <trkpt lat="41.71463" lon="20.68059">
        <ele>998.313683</ele>
        <time>2022-04-25T13:13:14.875Z</time>
      </trkpt>
      <trkpt lat="41.71473" lon="20.68055">
        <ele>997.94432</ele>
        <time>2022-04-25T13:13:15.884Z</time>
      </trkpt>
      <trkpt lat="41.71483" lon="20.68052">
        <ele>997.569305</ele>
        <time>2022-04-25T13:13:16.884Z</time>
      </trkpt>
      <trkpt lat="41.71493" lon="20.68049">
        <ele>997.207466</ele>
        <time>2022-04-25T13:13:17.875Z</time>
      </trkpt>
      <trkpt lat="41.71503" lon="20.68045">
        <ele>996.856591</ele>
        <time>2022-04-25T13:13:18.890Z</time>
      </trkpt>
      <trkpt lat="41.71512" lon="20.68042">
        <ele>996.522899</ele>
        <time>2022-04-25T13:13:19.897Z</time>
      </trkpt>
      <trkpt lat="41.71529" lon="20.68036">
        <ele>995.766342</ele>
        <time>2022-04-25T13:13:21.921Z</time>
      </trkpt>
      <trkpt lat="41.71544" lon="20.68027">
        <ele>994.941823</ele>
        <time>2022-04-25T13:13:23.890Z</time>
      </trkpt>
      <trkpt lat="41.71556" lon="20.68016">
        <ele>994.193112</ele>
        <time>2022-04-25T13:13:25.886Z</time>
      </trkpt>
      <trkpt lat="41.71567" lon="20.68002">
        <ele>993.474393</ele>
        <time>2022-04-25T13:13:27.915Z</time>
      </trkpt>
      <trkpt lat="41.71573" lon="20.6799">
        <ele>992.898366</ele>
        <time>2022-04-25T13:13:29.857Z</time>
      </trkpt>
      <trkpt lat="41.71577" lon="20.67977">
        <ele>992.395904</ele>
        <time>2022-04-25T13:13:31.874Z</time>
      </trkpt>
      <trkpt lat="41.7158" lon="20.6796">
        <ele>991.746385</ele>
        <time>2022-04-25T13:13:34.902Z</time>
      </trkpt>
      <trkpt lat="41.71584" lon="20.67949">
        <ele>991.281884</ele>
        <time>2022-04-25T13:13:36.894Z</time>
      </trkpt>
      <trkpt lat="41.71588" lon="20.67936">
        <ele>990.749554</ele>
        <time>2022-04-25T13:13:38.876Z</time>
      </trkpt>
      <trkpt lat="41.71593" lon="20.67922">
        <ele>990.16839</ele>
        <time>2022-04-25T13:13:40.895Z</time>
      </trkpt>
      <trkpt lat="41.71596" lon="20.67907">
        <ele>989.609611</ele>
        <time>2022-04-25T13:13:42.920Z</time>
      </trkpt>
      <trkpt lat="41.716" lon="20.67892">
        <ele>988.998665</ele>
        <time>2022-04-25T13:13:44.884Z</time>
      </trkpt>
      <trkpt lat="41.71605" lon="20.67876">
        <ele>988.370061</ele>
        <time>2022-04-25T13:13:46.881Z</time>
      </trkpt>
      <trkpt lat="41.7161" lon="20.67861">
        <ele>987.732876</ele>
        <time>2022-04-25T13:13:48.895Z</time>
      </trkpt>
      <trkpt lat="41.71615" lon="20.67845">
        <ele>987.149678</ele>
        <time>2022-04-25T13:13:50.854Z</time>
      </trkpt>
      <trkpt lat="41.71622" lon="20.6783">
        <ele>986.793229</ele>
        <time>2022-04-25T13:13:52.902Z</time>
      </trkpt>
      <trkpt lat="41.71629" lon="20.67814">
        <ele>986.430581</ele>
        <time>2022-04-25T13:13:54.885Z</time>
      </trkpt>
      <trkpt lat="41.71637" lon="20.67798">
        <ele>986.055571</ele>
        <time>2022-04-25T13:13:56.876Z</time>
      </trkpt>
      <trkpt lat="41.71645" lon="20.67783">
        <ele>985.689115</ele>
        <time>2022-04-25T13:13:58.868Z</time>
      </trkpt>
      <trkpt lat="41.71654" lon="20.67768">
        <ele>985.308451</ele>
        <time>2022-04-25T13:14:00.862Z</time>
      </trkpt>
      <trkpt lat="41.71662" lon="20.67755">
        <ele>984.973322</ele>
        <time>2022-04-25T13:14:02.875Z</time>
      </trkpt>
      <trkpt lat="41.7167" lon="20.67741">
        <ele>984.629935</ele>
        <time>2022-04-25T13:14:04.875Z</time>
      </trkpt>
      <trkpt lat="41.7168" lon="20.67729">
        <ele>984.281083</ele>
        <time>2022-04-25T13:14:06.893Z</time>
      </trkpt>
      <trkpt lat="41.7169" lon="20.67717">
        <ele>983.931113</ele>
        <time>2022-04-25T13:14:08.888Z</time>
      </trkpt>
      <trkpt lat="41.71698" lon="20.67704">
        <ele>983.583435</ele>
        <time>2022-04-25T13:14:10.887Z</time>
      </trkpt>
      <trkpt lat="41.71708" lon="20.6769">
        <ele>983.206581</ele>
        <time>2022-04-25T13:14:12.876Z</time>
      </trkpt>
      <trkpt lat="41.71718" lon="20.67676">
        <ele>982.826592</ele>
        <time>2022-04-25T13:14:14.872Z</time>
      </trkpt>
      <trkpt lat="41.71729" lon="20.67663">
        <ele>982.442171</ele>
        <time>2022-04-25T13:14:16.869Z</time>
      </trkpt>
      <trkpt lat="41.7174" lon="20.67648">
        <ele>982.112917</ele>
        <time>2022-04-25T13:14:18.864Z</time>
      </trkpt>
      <trkpt lat="41.71751" lon="20.67634">
        <ele>981.789198</ele>
        <time>2022-04-25T13:14:20.878Z</time>
      </trkpt>
      <trkpt lat="41.71764" lon="20.6762">
        <ele>981.438292</ele>
        <time>2022-04-25T13:14:22.886Z</time>
      </trkpt>
      <trkpt lat="41.71775" lon="20.67605">
        <ele>981.096821</ele>
        <time>2022-04-25T13:14:24.877Z</time>
      </trkpt>
      <trkpt lat="41.71783" lon="20.67587">
        <ele>980.761962</ele>
        <time>2022-04-25T13:14:26.878Z</time>
      </trkpt>
      <trkpt lat="41.71789" lon="20.67569">
        <ele>980.457439</ele>
        <time>2022-04-25T13:14:28.872Z</time>
      </trkpt>
      <trkpt lat="41.71791" lon="20.67555">
        <ele>980.216847</ele>
        <time>2022-04-25T13:14:30.862Z</time>
      </trkpt>
      <trkpt lat="41.71793" lon="20.67542">
        <ele>980.017122</ele>
        <time>2022-04-25T13:14:32.884Z</time>
      </trkpt>
      <trkpt lat="41.71795" lon="20.67531">
        <ele>979.824234</ele>
        <time>2022-04-25T13:14:34.872Z</time>
      </trkpt>
      <trkpt lat="41.71799" lon="20.67517">
        <ele>979.59814</ele>
        <time>2022-04-25T13:14:36.891Z</time>
      </trkpt>
      <trkpt lat="41.71803" lon="20.67503">
        <ele>979.351139</ele>
        <time>2022-04-25T13:14:38.870Z</time>
      </trkpt>
      <trkpt lat="41.71807" lon="20.67489">
        <ele>979.114495</ele>
        <time>2022-04-25T13:14:40.913Z</time>
      </trkpt>
      <trkpt lat="41.7181" lon="20.67474">
        <ele>978.872643</ele>
        <time>2022-04-25T13:14:42.876Z</time>
      </trkpt>
      <trkpt lat="41.71813" lon="20.67459">
        <ele>978.623812</ele>
        <time>2022-04-25T13:14:44.877Z</time>
      </trkpt>
      <trkpt lat="41.71816" lon="20.67442">
        <ele>978.347038</ele>
        <time>2022-04-25T13:14:46.922Z</time>
      </trkpt>
      <trkpt lat="41.71818" lon="20.67426">
        <ele>978.074705</ele>
        <time>2022-04-25T13:14:48.879Z</time>
      </trkpt>
      <trkpt lat="41.7182" lon="20.67411">
        <ele>977.835497</ele>
        <time>2022-04-25T13:14:50.885Z</time>
      </trkpt>
      <trkpt lat="41.71821" lon="20.67394">
        <ele>977.56315</ele>
        <time>2022-04-25T13:14:52.896Z</time>
      </trkpt>
      <trkpt lat="41.71823" lon="20.67374">
        <ele>977.239916</ele>
        <time>2022-04-25T13:14:54.866Z</time>
      </trkpt>
      <trkpt lat="41.71827" lon="20.67352">
        <ele>976.878919</ele>
        <time>2022-04-25T13:14:56.874Z</time>
      </trkpt>
      <trkpt lat="41.71831" lon="20.67333">
        <ele>976.550404</ele>
        <time>2022-04-25T13:14:58.888Z</time>
      </trkpt>
      <trkpt lat="41.71834" lon="20.67314">
        <ele>976.241255</ele>
        <time>2022-04-25T13:15:00.877Z</time>
      </trkpt>
      <trkpt lat="41.71837" lon="20.67294">
        <ele>975.906875</ele>
        <time>2022-04-25T13:15:02.888Z</time>
      </trkpt>
      <trkpt lat="41.7184" lon="20.67271">
        <ele>975.539704</ele>
        <time>2022-04-25T13:15:04.875Z</time>
      </trkpt>
      <trkpt lat="41.71841" lon="20.6725">
        <ele>975.194997</ele>
        <time>2022-04-25T13:15:06.878Z</time>
      </trkpt>
      <trkpt lat="41.71846" lon="20.67233">
        <ele>974.901951</ele>
        <time>2022-04-25T13:15:08.890Z</time>
      </trkpt>
      <trkpt lat="41.71854" lon="20.67214">
        <ele>974.316737</ele>
        <time>2022-04-25T13:15:10.898Z</time>
      </trkpt>
      <trkpt lat="41.71863" lon="20.67195">
        <ele>973.45889</ele>
        <time>2022-04-25T13:15:12.881Z</time>
      </trkpt>
      <trkpt lat="41.71873" lon="20.67177">
        <ele>972.640776</ele>
        <time>2022-04-25T13:15:14.867Z</time>
      </trkpt>
      <trkpt lat="41.71881" lon="20.67158">
        <ele>971.8291</ele>
        <time>2022-04-25T13:15:16.867Z</time>
      </trkpt>
      <trkpt lat="41.71887" lon="20.67137">
        <ele>970.984818</ele>
        <time>2022-04-25T13:15:18.870Z</time>
      </trkpt>
      <trkpt lat="41.71892" lon="20.67114">
        <ele>970.090862</ele>
        <time>2022-04-25T13:15:20.921Z</time>
      </trkpt>
      <trkpt lat="41.71897" lon="20.67092">
        <ele>969.200867</ele>
        <time>2022-04-25T13:15:22.888Z</time>
      </trkpt>
      <trkpt lat="41.71901" lon="20.6707">
        <ele>968.380119</ele>
        <time>2022-04-25T13:15:24.887Z</time>
      </trkpt>
      <trkpt lat="41.71907" lon="20.6705">
        <ele>967.556132</ele>
        <time>2022-04-25T13:15:26.883Z</time>
      </trkpt>
      <trkpt lat="41.71914" lon="20.67032">
        <ele>966.804064</ele>
        <time>2022-04-25T13:15:28.883Z</time>
      </trkpt>
      <trkpt lat="41.71925" lon="20.67016">
        <ele>965.993691</ele>
        <time>2022-04-25T13:15:30.885Z</time>
      </trkpt>
      <trkpt lat="41.71935" lon="20.66999">
        <ele>964.72649</ele>
        <time>2022-04-25T13:15:32.878Z</time>
      </trkpt>
      <trkpt lat="41.71944" lon="20.66983">
        <ele>963.366528</ele>
        <time>2022-04-25T13:15:34.872Z</time>
      </trkpt>
      <trkpt lat="41.71955" lon="20.66964">
        <ele>961.71247</ele>
        <time>2022-04-25T13:15:36.883Z</time>
      </trkpt>
      <trkpt lat="41.7196" lon="20.66954">
        <ele>960.835592</ele>
        <time>2022-04-25T13:15:37.926Z</time>
      </trkpt>
      <trkpt lat="41.71966" lon="20.66944">
        <ele>959.969576</ele>
        <time>2022-04-25T13:15:38.893Z</time>
      </trkpt>
      <trkpt lat="41.71971" lon="20.66934">
        <ele>959.080821</ele>
        <time>2022-04-25T13:15:39.926Z</time>
      </trkpt>
      <trkpt lat="41.71976" lon="20.66923">
        <ele>958.234807</ele>
        <time>2022-04-25T13:15:40.879Z</time>
      </trkpt>
      <trkpt lat="41.7198" lon="20.66912">
        <ele>957.385307</ele>
        <time>2022-04-25T13:15:41.874Z</time>
      </trkpt>
      <trkpt lat="41.71984" lon="20.66901">
        <ele>956.510539</ele>
        <time>2022-04-25T13:15:42.882Z</time>
      </trkpt>
      <trkpt lat="41.71989" lon="20.6689">
        <ele>955.655418</ele>
        <time>2022-04-25T13:15:43.918Z</time>
      </trkpt>
      <trkpt lat="41.71997" lon="20.66871">
        <ele>954.158135</ele>
        <time>2022-04-25T13:15:45.882Z</time>
      </trkpt>
      <trkpt lat="41.72004" lon="20.66856">
        <ele>952.922235</ele>
        <time>2022-04-25T13:15:47.886Z</time>
      </trkpt>
      <trkpt lat="41.72011" lon="20.66844">
        <ele>951.856581</ele>
        <time>2022-04-25T13:15:49.857Z</time>
      </trkpt>
      <trkpt lat="41.72018" lon="20.6683">
        <ele>950.699046</ele>
        <time>2022-04-25T13:15:51.952Z</time>
      </trkpt>
      <trkpt lat="41.72022" lon="20.66814">
        <ele>949.547403</ele>
        <time>2022-04-25T13:15:53.888Z</time>
      </trkpt>
      <trkpt lat="41.72026" lon="20.66796">
        <ele>948.366272</ele>
        <time>2022-04-25T13:15:55.907Z</time>
      </trkpt>
      <trkpt lat="41.72027" lon="20.66777">
        <ele>947.306286</ele>
        <time>2022-04-25T13:15:57.877Z</time>
      </trkpt>
      <trkpt lat="41.72027" lon="20.6676">
        <ele>946.362662</ele>
        <time>2022-04-25T13:15:59.934Z</time>
      </trkpt>
      <trkpt lat="41.72024" lon="20.66746">
        <ele>945.516267</ele>
        <time>2022-04-25T13:16:01.896Z</time>
      </trkpt>
      <trkpt lat="41.72024" lon="20.66731">
        <ele>944.669103</ele>
        <time>2022-04-25T13:16:03.881Z</time>
      </trkpt>
      <trkpt lat="41.72025" lon="20.66716">
        <ele>943.840372</ele>
        <time>2022-04-25T13:16:05.924Z</time>
      </trkpt>
      <trkpt lat="41.72026" lon="20.66703">
        <ele>943.086815</ele>
        <time>2022-04-25T13:16:07.883Z</time>
      </trkpt>
      <trkpt lat="41.72027" lon="20.66688">
        <ele>942.255386</ele>
        <time>2022-04-25T13:16:09.871Z</time>
      </trkpt>
      <trkpt lat="41.72026" lon="20.66672">
        <ele>941.349218</ele>
        <time>2022-04-25T13:16:12.863Z</time>
      </trkpt>
      <trkpt lat="41.72024" lon="20.66659">
        <ele>940.578399</ele>
        <time>2022-04-25T13:16:15.890Z</time>
      </trkpt>
      <trkpt lat="41.72027" lon="20.66645">
        <ele>939.767159</ele>
        <time>2022-04-25T13:16:18.892Z</time>
      </trkpt>
      <trkpt lat="41.72028" lon="20.6663">
        <ele>938.906036</ele>
        <time>2022-04-25T13:16:21.901Z</time>
      </trkpt>
      <trkpt lat="41.72027" lon="20.66613">
        <ele>937.945926</ele>
        <time>2022-04-25T13:16:24.879Z</time>
      </trkpt>
      <trkpt lat="41.72027" lon="20.66597">
        <ele>937.042193</ele>
        <time>2022-04-25T13:16:27.915Z</time>
      </trkpt>
      <trkpt lat="41.72027" lon="20.66584">
        <ele>936.34553</ele>
        <time>2022-04-25T13:16:29.901Z</time>
      </trkpt>
      <trkpt lat="41.72026" lon="20.66566">
        <ele>935.504687</ele>
        <time>2022-04-25T13:16:32.872Z</time>
      </trkpt>
      <trkpt lat="41.72025" lon="20.66548">
        <ele>936.165061</ele>
        <time>2022-04-25T13:16:35.888Z</time>
      </trkpt>
      <trkpt lat="41.72025" lon="20.66536">
        <ele>936.623045</ele>
        <time>2022-04-25T13:16:37.873Z</time>
      </trkpt>
      <trkpt lat="41.72024" lon="20.66523">
        <ele>937.11122</ele>
        <time>2022-04-25T13:16:39.900Z</time>
      </trkpt>
      <trkpt lat="41.72023" lon="20.6651">
        <ele>937.584098</ele>
        <time>2022-04-25T13:16:41.866Z</time>
      </trkpt>
      <trkpt lat="41.72022" lon="20.66496">
        <ele>938.07787</ele>
        <time>2022-04-25T13:16:43.878Z</time>
      </trkpt>
      <trkpt lat="41.72021" lon="20.66484">
        <ele>938.541071</ele>
        <time>2022-04-25T13:16:45.893Z</time>
      </trkpt>
      <trkpt lat="41.72019" lon="20.66471">
        <ele>939.006832</ele>
        <time>2022-04-25T13:16:47.883Z</time>
      </trkpt>
      <trkpt lat="41.72018" lon="20.66458">
        <ele>939.483078</ele>
        <time>2022-04-25T13:16:49.885Z</time>
      </trkpt>
      <trkpt lat="41.72015" lon="20.66446">
        <ele>939.949556</ele>
        <time>2022-04-25T13:16:51.881Z</time>
      </trkpt>
      <trkpt lat="41.72014" lon="20.66429">
        <ele>940.583428</ele>
        <time>2022-04-25T13:16:54.890Z</time>
      </trkpt>
      <trkpt lat="41.72013" lon="20.66416">
        <ele>941.070643</ele>
        <time>2022-04-25T13:16:56.880Z</time>
      </trkpt>
      <trkpt lat="41.72012" lon="20.66402">
        <ele>941.579582</ele>
        <time>2022-04-25T13:16:58.872Z</time>
      </trkpt>
      <trkpt lat="41.7201" lon="20.66389">
        <ele>942.070335</ele>
        <time>2022-04-25T13:17:00.878Z</time>
      </trkpt>
      <trkpt lat="41.72009" lon="20.66376">
        <ele>942.545161</ele>
        <time>2022-04-25T13:17:02.856Z</time>
      </trkpt>
      <trkpt lat="41.72005" lon="20.66365">
        <ele>942.987342</ele>
        <time>2022-04-25T13:17:04.890Z</time>
      </trkpt>
      <trkpt lat="41.71998" lon="20.66355">
        <ele>943.481791</ele>
        <time>2022-04-25T13:17:06.914Z</time>
      </trkpt>
      <trkpt lat="41.71992" lon="20.66344">
        <ele>943.980276</ele>
        <time>2022-04-25T13:17:08.916Z</time>
      </trkpt>
      <trkpt lat="41.71985" lon="20.66333">
        <ele>944.575309</ele>
        <time>2022-04-25T13:17:10.871Z</time>
      </trkpt>
      <trkpt lat="41.71977" lon="20.66324">
        <ele>945.234351</ele>
        <time>2022-04-25T13:17:12.898Z</time>
      </trkpt>
      <trkpt lat="41.71969" lon="20.66317">
        <ele>945.83688</ele>
        <time>2022-04-25T13:17:14.882Z</time>
      </trkpt>
      <trkpt lat="41.71961" lon="20.66309">
        <ele>946.477175</ele>
        <time>2022-04-25T13:17:16.942Z</time>
      </trkpt>
      <trkpt lat="41.71952" lon="20.663">
        <ele>947.178718</ele>
        <time>2022-04-25T13:17:18.891Z</time>
      </trkpt>
      <trkpt lat="41.71942" lon="20.66292">
        <ele>947.898181</ele>
        <time>2022-04-25T13:17:20.892Z</time>
      </trkpt>
      <trkpt lat="41.71932" lon="20.66283">
        <ele>948.640851</ele>
        <time>2022-04-25T13:17:22.927Z</time>
      </trkpt>
      <trkpt lat="41.71923" lon="20.66277">
        <ele>949.297238</ele>
        <time>2022-04-25T13:17:24.898Z</time>
      </trkpt>
      <trkpt lat="41.71914" lon="20.6627">
        <ele>949.923384</ele>
        <time>2022-04-25T13:17:26.873Z</time>
      </trkpt>
      <trkpt lat="41.71906" lon="20.66263">
        <ele>950.513594</ele>
        <time>2022-04-25T13:17:28.882Z</time>
      </trkpt>
      <trkpt lat="41.71899" lon="20.66257">
        <ele>951.079745</ele>
        <time>2022-04-25T13:17:30.876Z</time>
      </trkpt>
      <trkpt lat="41.71889" lon="20.66247">
        <ele>951.815775</ele>
        <time>2022-04-25T13:17:33.906Z</time>
      </trkpt>
      <trkpt lat="41.71881" lon="20.66239">
        <ele>952.481063</ele>
        <time>2022-04-25T13:17:36.884Z</time>
      </trkpt>
      <trkpt lat="41.71874" lon="20.6623">
        <ele>953.053366</ele>
        <time>2022-04-25T13:17:39.873Z</time>
      </trkpt>
      <trkpt lat="41.71867" lon="20.66218">
        <ele>953.787661</ele>
        <time>2022-04-25T13:17:42.886Z</time>
      </trkpt>
      <trkpt lat="41.7186" lon="20.66205">
        <ele>954.499622</ele>
        <time>2022-04-25T13:17:45.922Z</time>
      </trkpt>
      <trkpt lat="41.71855" lon="20.66193">
        <ele>955.190328</ele>
        <time>2022-04-25T13:17:48.876Z</time>
      </trkpt>
      <trkpt lat="41.71847" lon="20.66182">
        <ele>955.127824</ele>
        <time>2022-04-25T13:17:51.924Z</time>
      </trkpt>
      <trkpt lat="41.71842" lon="20.66171">
        <ele>954.541631</ele>
        <time>2022-04-25T13:17:54.889Z</time>
      </trkpt>
      <trkpt lat="41.71838" lon="20.6616">
        <ele>953.984975</ele>
        <time>2022-04-25T13:17:57.867Z</time>
      </trkpt>
      <trkpt lat="41.71832" lon="20.6615">
        <ele>953.429042</ele>
        <time>2022-04-25T13:18:00.885Z</time>
      </trkpt>
      <trkpt lat="41.71825" lon="20.6614">
        <ele>952.814539</ele>
        <time>2022-04-25T13:18:03.882Z</time>
      </trkpt>
      <trkpt lat="41.71816" lon="20.6613">
        <ele>952.119529</ele>
        <time>2022-04-25T13:18:06.877Z</time>
      </trkpt>
      <trkpt lat="41.71807" lon="20.6612">
        <ele>951.406962</ele>
        <time>2022-04-25T13:18:09.889Z</time>
      </trkpt>
      <trkpt lat="41.71796" lon="20.6611">
        <ele>950.619997</ele>
        <time>2022-04-25T13:18:12.886Z</time>
      </trkpt>
      <trkpt lat="41.71788" lon="20.66103">
        <ele>950.067309</ele>
        <time>2022-04-25T13:18:14.873Z</time>
      </trkpt>
      <trkpt lat="41.71781" lon="20.66095">
        <ele>949.505811</ele>
        <time>2022-04-25T13:18:16.890Z</time>
      </trkpt>
      <trkpt lat="41.71773" lon="20.66088">
        <ele>948.944964</ele>
        <time>2022-04-25T13:18:18.870Z</time>
      </trkpt>
      <trkpt lat="41.71765" lon="20.66081">
        <ele>948.382255</ele>
        <time>2022-04-25T13:18:20.879Z</time>
      </trkpt>
      <trkpt lat="41.71757" lon="20.66075">
        <ele>947.828409</ele>
        <time>2022-04-25T13:18:22.894Z</time>
      </trkpt>
      <trkpt lat="41.71745" lon="20.66068">
        <ele>947.009458</ele>
        <time>2022-04-25T13:18:25.921Z</time>
      </trkpt>
      <trkpt lat="41.71736" lon="20.66062">
        <ele>946.423968</ele>
        <time>2022-04-25T13:18:27.872Z</time>
      </trkpt>
      <trkpt lat="41.71724" lon="20.66054">
        <ele>945.61999</ele>
        <time>2022-04-25T13:18:30.886Z</time>
      </trkpt>
      <trkpt lat="41.71716" lon="20.66047">
        <ele>945.067141</ele>
        <time>2022-04-25T13:18:32.888Z</time>
      </trkpt>
      <trkpt lat="41.71709" lon="20.66039">
        <ele>944.699842</ele>
        <time>2022-04-25T13:18:34.878Z</time>
      </trkpt>
      <trkpt lat="41.71702" lon="20.6603">
        <ele>944.646783</ele>
        <time>2022-04-25T13:18:36.869Z</time>
      </trkpt>
      <trkpt lat="41.71695" lon="20.6602">
        <ele>944.592532</ele>
        <time>2022-04-25T13:18:38.876Z</time>
      </trkpt>
      <trkpt lat="41.71688" lon="20.66009">
        <ele>944.538684</ele>
        <time>2022-04-25T13:18:40.888Z</time>
      </trkpt>
      <trkpt lat="41.71681" lon="20.65998">
        <ele>944.484623</ele>
        <time>2022-04-25T13:18:42.890Z</time>
      </trkpt>
      <trkpt lat="41.71675" lon="20.65987">
        <ele>944.429994</ele>
        <time>2022-04-25T13:18:44.885Z</time>
      </trkpt>
      <trkpt lat="41.71668" lon="20.65978">
        <ele>944.3777</ele>
        <time>2022-04-25T13:18:46.874Z</time>
      </trkpt>
      <trkpt lat="41.71665" lon="20.65964">
        <ele>944.320877</ele>
        <time>2022-04-25T13:18:48.882Z</time>
      </trkpt>
      <trkpt lat="41.71664" lon="20.65947">
        <ele>944.256697</ele>
        <time>2022-04-25T13:18:50.887Z</time>
      </trkpt>
      <trkpt lat="41.71661" lon="20.65933">
        <ele>944.198181</ele>
        <time>2022-04-25T13:18:52.870Z</time>
      </trkpt>
      <trkpt lat="41.71658" lon="20.6592">
        <ele>944.144497</ele>
        <time>2022-04-25T13:18:54.877Z</time>
      </trkpt>
      <trkpt lat="41.71653" lon="20.65907">
        <ele>944.089055</ele>
        <time>2022-04-25T13:18:56.887Z</time>
      </trkpt>
      <trkpt lat="41.71648" lon="20.65894">
        <ele>944.032386</ele>
        <time>2022-04-25T13:18:58.872Z</time>
      </trkpt>
      <trkpt lat="41.71638" lon="20.65884">
        <ele>943.968277</ele>
        <time>2022-04-25T13:19:00.907Z</time>
      </trkpt>
      <trkpt lat="41.71627" lon="20.65873">
        <ele>943.898679</ele>
        <time>2022-04-25T13:19:02.883Z</time>
      </trkpt>
      <trkpt lat="41.71616" lon="20.65863">
        <ele>943.82729</ele>
        <time>2022-04-25T13:19:04.895Z</time>
      </trkpt>
      <trkpt lat="41.71605" lon="20.65851">
        <ele>943.343272</ele>
        <time>2022-04-25T13:19:06.861Z</time>
      </trkpt>
      <trkpt lat="41.71593" lon="20.65839">
        <ele>941.986301</ele>
        <time>2022-04-25T13:19:08.866Z</time>
      </trkpt>
      <trkpt lat="41.7158" lon="20.65826">
        <ele>940.574298</ele>
        <time>2022-04-25T13:19:10.880Z</time>
      </trkpt>
      <trkpt lat="41.71565" lon="20.65816">
        <ele>939.101432</ele>
        <time>2022-04-25T13:19:12.891Z</time>
      </trkpt>
      <trkpt lat="41.7155" lon="20.65809">
        <ele>937.660596</ele>
        <time>2022-04-25T13:19:14.881Z</time>
      </trkpt>
      <trkpt lat="41.71534" lon="20.65807">
        <ele>936.227846</ele>
        <time>2022-04-25T13:19:16.891Z</time>
      </trkpt>
      <trkpt lat="41.71517" lon="20.65808">
        <ele>934.778803</ele>
        <time>2022-04-25T13:19:18.923Z</time>
      </trkpt>
      <trkpt lat="41.71503" lon="20.65809">
        <ele>933.559836</ele>
        <time>2022-04-25T13:19:20.882Z</time>
      </trkpt>
      <trkpt lat="41.71489" lon="20.65809">
        <ele>932.263116</ele>
        <time>2022-04-25T13:19:22.901Z</time>
      </trkpt>
      <trkpt lat="41.71471" lon="20.65808">
        <ele>930.744314</ele>
        <time>2022-04-25T13:19:24.891Z</time>
      </trkpt>
      <trkpt lat="41.71462" lon="20.65808">
        <ele>929.879709</ele>
        <time>2022-04-25T13:19:25.884Z</time>
      </trkpt>
      <trkpt lat="41.71453" lon="20.65807">
        <ele>929.085454</ele>
        <time>2022-04-25T13:19:26.877Z</time>
      </trkpt>
      <trkpt lat="41.71437" lon="20.65806">
        <ele>927.692412</ele>
        <time>2022-04-25T13:19:28.878Z</time>
      </trkpt>
      <trkpt lat="41.71422" lon="20.65803">
        <ele>926.443906</ele>
        <time>2022-04-25T13:19:30.900Z</time>
      </trkpt>
      <trkpt lat="41.71408" lon="20.658">
        <ele>925.237289</ele>
        <time>2022-04-25T13:19:32.882Z</time>
      </trkpt>
      <trkpt lat="41.71394" lon="20.65796">
        <ele>924.097138</ele>
        <time>2022-04-25T13:19:34.880Z</time>
      </trkpt>
      <trkpt lat="41.71381" lon="20.65792">
        <ele>922.983971</ele>
        <time>2022-04-25T13:19:36.888Z</time>
      </trkpt>
      <trkpt lat="41.71367" lon="20.65788">
        <ele>921.804572</ele>
        <time>2022-04-25T13:19:38.883Z</time>
      </trkpt>
      <trkpt lat="41.71354" lon="20.65784">
        <ele>920.641217</ele>
        <time>2022-04-25T13:19:40.886Z</time>
      </trkpt>
      <trkpt lat="41.7134" lon="20.65781">
        <ele>919.516389</ele>
        <time>2022-04-25T13:19:42.893Z</time>
      </trkpt>
      <trkpt lat="41.71326" lon="20.65776">
        <ele>918.237888</ele>
        <time>2022-04-25T13:19:44.887Z</time>
      </trkpt>
      <trkpt lat="41.71312" lon="20.65773">
        <ele>917.119049</ele>
        <time>2022-04-25T13:19:46.891Z</time>
      </trkpt>
      <trkpt lat="41.71299" lon="20.65771">
        <ele>916.005658</ele>
        <time>2022-04-25T13:19:48.867Z</time>
      </trkpt>
      <trkpt lat="41.71286" lon="20.65771">
        <ele>914.906588</ele>
        <time>2022-04-25T13:19:50.901Z</time>
      </trkpt>
      <trkpt lat="41.71273" lon="20.6577">
        <ele>913.824376</ele>
        <time>2022-04-25T13:19:52.889Z</time>
      </trkpt>
      <trkpt lat="41.7126" lon="20.65772">
        <ele>912.965322</ele>
        <time>2022-04-25T13:19:54.890Z</time>
      </trkpt>
      <trkpt lat="41.71248" lon="20.65774">
        <ele>913.106238</ele>
        <time>2022-04-25T13:19:56.897Z</time>
      </trkpt>
      <trkpt lat="41.71237" lon="20.65775">
        <ele>913.236257</ele>
        <time>2022-04-25T13:19:58.884Z</time>
      </trkpt>
      <trkpt lat="41.71225" lon="20.65776">
        <ele>913.369661</ele>
        <time>2022-04-25T13:20:00.863Z</time>
      </trkpt>
      <trkpt lat="41.71213" lon="20.65777">
        <ele>913.512607</ele>
        <time>2022-04-25T13:20:02.880Z</time>
      </trkpt>
      <trkpt lat="41.71202" lon="20.65779">
        <ele>913.640175</ele>
        <time>2022-04-25T13:20:04.869Z</time>
      </trkpt>
      <trkpt lat="41.7119" lon="20.65781">
        <ele>913.775292</ele>
        <time>2022-04-25T13:20:06.884Z</time>
      </trkpt>
      <trkpt lat="41.71179" lon="20.65783">
        <ele>913.909363</ele>
        <time>2022-04-25T13:20:08.912Z</time>
      </trkpt>
      <trkpt lat="41.71168" lon="20.65784">
        <ele>914.035946</ele>
        <time>2022-04-25T13:20:10.910Z</time>
      </trkpt>
      <trkpt lat="41.71157" lon="20.65784">
        <ele>914.160048</ele>
        <time>2022-04-25T13:20:12.885Z</time>
      </trkpt>
      <trkpt lat="41.71146" lon="20.65782">
        <ele>914.286735</ele>
        <time>2022-04-25T13:20:14.885Z</time>
      </trkpt>
      <trkpt lat="41.71135" lon="20.65781">
        <ele>914.415965</ele>
        <time>2022-04-25T13:20:16.887Z</time>
      </trkpt>
      <trkpt lat="41.71124" lon="20.65777">
        <ele>914.543952</ele>
        <time>2022-04-25T13:20:18.890Z</time>
      </trkpt>
      <trkpt lat="41.71113" lon="20.65771">
        <ele>914.682282</ele>
        <time>2022-04-25T13:20:20.896Z</time>
      </trkpt>
      <trkpt lat="41.71102" lon="20.65762">
        <ele>914.830196</ele>
        <time>2022-04-25T13:20:22.890Z</time>
      </trkpt>
      <trkpt lat="41.71091" lon="20.6575">
        <ele>914.993505</ele>
        <time>2022-04-25T13:20:24.861Z</time>
      </trkpt>
      <trkpt lat="41.71081" lon="20.65735">
        <ele>914.837444</ele>
        <time>2022-04-25T13:20:26.886Z</time>
      </trkpt>
      <trkpt lat="41.71072" lon="20.65718">
        <ele>914.64185</ele>
        <time>2022-04-25T13:20:28.875Z</time>
      </trkpt>
      <trkpt lat="41.71064" lon="20.65701">
        <ele>914.451722</ele>
        <time>2022-04-25T13:20:30.884Z</time>
      </trkpt>
      <trkpt lat="41.71057" lon="20.65684">
        <ele>914.264278</ele>
        <time>2022-04-25T13:20:32.887Z</time>
      </trkpt>
      <trkpt lat="41.71051" lon="20.65667">
        <ele>914.084074</ele>
        <time>2022-04-25T13:20:34.890Z</time>
      </trkpt>
      <trkpt lat="41.71046" lon="20.65651">
        <ele>913.922559</ele>
        <time>2022-04-25T13:20:36.879Z</time>
      </trkpt>
      <trkpt lat="41.71043" lon="20.65637">
        <ele>913.777963</ele>
        <time>2022-04-25T13:20:38.901Z</time>
      </trkpt>
      <trkpt lat="41.71039" lon="20.65622">
        <ele>913.632081</ele>
        <time>2022-04-25T13:20:40.891Z</time>
      </trkpt>
      <trkpt lat="41.71028" lon="20.65612">
        <ele>913.462474</ele>
        <time>2022-04-25T13:20:43.895Z</time>
      </trkpt>
      <trkpt lat="41.71019" lon="20.65608">
        <ele>913.340799</ele>
        <time>2022-04-25T13:20:45.860Z</time>
      </trkpt>
      <trkpt lat="41.71009" lon="20.65603">
        <ele>913.20601</ele>
        <time>2022-04-25T13:20:47.886Z</time>
      </trkpt>
      <trkpt lat="41.70999" lon="20.65598">
        <ele>913.071105</ele>
        <time>2022-04-25T13:20:49.870Z</time>
      </trkpt>
      <trkpt lat="41.70987" lon="20.65594">
        <ele>912.910343</ele>
        <time>2022-04-25T13:20:51.909Z</time>
      </trkpt>
      <trkpt lat="41.70976" lon="20.65589">
        <ele>912.77284</ele>
        <time>2022-04-25T13:20:53.869Z</time>
      </trkpt>
      <trkpt lat="41.70967" lon="20.65585">
        <ele>912.647887</ele>
        <time>2022-04-25T13:20:55.865Z</time>
      </trkpt>
      <trkpt lat="41.70958" lon="20.6558">
        <ele>912.525641</ele>
        <time>2022-04-25T13:20:57.872Z</time>
      </trkpt>
      <trkpt lat="41.70948" lon="20.65576">
        <ele>912.398704</ele>
        <time>2022-04-25T13:20:59.869Z</time>
      </trkpt>
      <trkpt lat="41.70939" lon="20.6557">
        <ele>912.27128</ele>
        <time>2022-04-25T13:21:01.880Z</time>
      </trkpt>
      <trkpt lat="41.7093" lon="20.65564">
        <ele>912.144618</ele>
        <time>2022-04-25T13:21:03.918Z</time>
      </trkpt>
      <trkpt lat="41.70921" lon="20.65559">
        <ele>912.019837</ele>
        <time>2022-04-25T13:21:05.861Z</time>
      </trkpt>
      <trkpt lat="41.70912" lon="20.65554">
        <ele>911.89423</ele>
        <time>2022-04-25T13:21:07.872Z</time>
      </trkpt>
      <trkpt lat="41.70902" lon="20.65549">
        <ele>911.762786</ele>
        <time>2022-04-25T13:21:09.873Z</time>
      </trkpt>
      <trkpt lat="41.70892" lon="20.65544">
        <ele>911.638198</ele>
        <time>2022-04-25T13:21:11.869Z</time>
      </trkpt>
      <trkpt lat="41.70884" lon="20.65539">
        <ele>911.515344</ele>
        <time>2022-04-25T13:21:13.915Z</time>
      </trkpt>
      <trkpt lat="41.70875" lon="20.65531">
        <ele>911.389328</ele>
        <time>2022-04-25T13:21:15.890Z</time>
      </trkpt>
      <trkpt lat="41.70868" lon="20.65524">
        <ele>911.276974</ele>
        <time>2022-04-25T13:21:17.874Z</time>
      </trkpt>
      <trkpt lat="41.7086" lon="20.6551">
        <ele>911.11042</ele>
        <time>2022-04-25T13:21:20.887Z</time>
      </trkpt>
      <trkpt lat="41.70856" lon="20.65498">
        <ele>910.992302</ele>
        <time>2022-04-25T13:21:22.895Z</time>
      </trkpt>
      <trkpt lat="41.70851" lon="20.65483">
        <ele>910.831817</ele>
        <time>2022-04-25T13:21:25.919Z</time>
      </trkpt>
      <trkpt lat="41.70848" lon="20.6547">
        <ele>910.71163</ele>
        <time>2022-04-25T13:21:27.871Z</time>
      </trkpt>
      <trkpt lat="41.70847" lon="20.65457">
        <ele>910.584444</ele>
        <time>2022-04-25T13:21:29.894Z</time>
      </trkpt>
      <trkpt lat="41.70846" lon="20.65443">
        <ele>910.462685</ele>
        <time>2022-04-25T13:21:31.872Z</time>
      </trkpt>
      <trkpt lat="41.70844" lon="20.6543">
        <ele>910.393388</ele>
        <time>2022-04-25T13:21:33.861Z</time>
      </trkpt>
      <trkpt lat="41.70843" lon="20.65417">
        <ele>910.325291</ele>
        <time>2022-04-25T13:21:35.898Z</time>
      </trkpt>
      <trkpt lat="41.70842" lon="20.65404">
        <ele>910.256895</ele>
        <time>2022-04-25T13:21:37.874Z</time>
      </trkpt>
      <trkpt lat="41.70842" lon="20.65391">
        <ele>910.193718</ele>
        <time>2022-04-25T13:21:39.898Z</time>
      </trkpt>
      <trkpt lat="41.70844" lon="20.65378">
        <ele>910.12714</ele>
        <time>2022-04-25T13:21:41.873Z</time>
      </trkpt>
      <trkpt lat="41.70844" lon="20.65364">
        <ele>910.051776</ele>
        <time>2022-04-25T13:21:44.876Z</time>
      </trkpt>
      <trkpt lat="41.70842" lon="20.6535">
        <ele>909.977502</ele>
        <time>2022-04-25T13:21:47.866Z</time>
      </trkpt>
      <trkpt lat="41.70839" lon="20.65336">
        <ele>909.904261</ele>
        <time>2022-04-25T13:21:50.891Z</time>
      </trkpt>
      <trkpt lat="41.70835" lon="20.65322">
        <ele>909.827462</ele>
        <time>2022-04-25T13:21:53.905Z</time>
      </trkpt>
      <trkpt lat="41.7083" lon="20.65306">
        <ele>909.739965</ele>
        <time>2022-04-25T13:21:56.896Z</time>
      </trkpt>
      <trkpt lat="41.70824" lon="20.65291">
        <ele>909.649634</ele>
        <time>2022-04-25T13:21:59.924Z</time>
      </trkpt>
      <trkpt lat="41.70819" lon="20.6528">
        <ele>909.587965</ele>
        <time>2022-04-25T13:22:01.891Z</time>
      </trkpt>
      <trkpt lat="41.70814" lon="20.65263">
        <ele>909.495228</ele>
        <time>2022-04-25T13:22:04.878Z</time>
      </trkpt>
      <trkpt lat="41.70811" lon="20.65252">
        <ele>909.433084</ele>
        <time>2022-04-25T13:22:06.873Z</time>
      </trkpt>
      <trkpt lat="41.70806" lon="20.65241">
        <ele>909.367943</ele>
        <time>2022-04-25T13:22:08.878Z</time>
      </trkpt>
      <trkpt lat="41.70802" lon="20.6523">
        <ele>909.305433</ele>
        <time>2022-04-25T13:22:10.882Z</time>
      </trkpt>
      <trkpt lat="41.70796" lon="20.6522">
        <ele>909.238943</ele>
        <time>2022-04-25T13:22:12.874Z</time>
      </trkpt>
      <trkpt lat="41.70789" lon="20.65209">
        <ele>908.67085</ele>
        <time>2022-04-25T13:22:14.904Z</time>
      </trkpt>
      <trkpt lat="41.70784" lon="20.65198">
        <ele>908.103774</ele>
        <time>2022-04-25T13:22:16.903Z</time>
      </trkpt>
      <trkpt lat="41.70779" lon="20.65186">
        <ele>907.543548</ele>
        <time>2022-04-25T13:22:18.873Z</time>
      </trkpt>
      <trkpt lat="41.70776" lon="20.65174">
        <ele>907.007064</ele>
        <time>2022-04-25T13:22:20.866Z</time>
      </trkpt>
      <trkpt lat="41.70773" lon="20.65162">
        <ele>906.487451</ele>
        <time>2022-04-25T13:22:22.911Z</time>
      </trkpt>
      <trkpt lat="41.70769" lon="20.65147">
        <ele>905.797195</ele>
        <time>2022-04-25T13:22:25.890Z</time>
      </trkpt>
      <trkpt lat="41.70764" lon="20.65132">
        <ele>905.099057</ele>
        <time>2022-04-25T13:22:28.899Z</time>
      </trkpt>
      <trkpt lat="41.70759" lon="20.65118">
        <ele>904.422988</ele>
        <time>2022-04-25T13:22:31.906Z</time>
      </trkpt>
      <trkpt lat="41.7075" lon="20.65108">
        <ele>903.772057</ele>
        <time>2022-04-25T13:22:34.899Z</time>
      </trkpt>
      <trkpt lat="41.70742" lon="20.65099">
        <ele>903.145303</ele>
        <time>2022-04-25T13:22:37.877Z</time>
      </trkpt>
      <trkpt lat="41.70733" lon="20.65091">
        <ele>902.555426</ele>
        <time>2022-04-25T13:22:40.885Z</time>
      </trkpt>
      <trkpt lat="41.70723" lon="20.65082">
        <ele>901.89219</ele>
        <time>2022-04-25T13:22:44.882Z</time>
      </trkpt>
      <trkpt lat="41.70714" lon="20.65074">
        <ele>901.24316</ele>
        <time>2022-04-25T13:22:48.890Z</time>
      </trkpt>
      <trkpt lat="41.70704" lon="20.65065">
        <ele>900.589279</ele>
        <time>2022-04-25T13:22:52.930Z</time>
      </trkpt>
      <trkpt lat="41.70696" lon="20.65059">
        <ele>900.057358</ele>
        <time>2022-04-25T13:22:55.878Z</time>
      </trkpt>
      <trkpt lat="41.70687" lon="20.6505">
        <ele>899.410588</ele>
        <time>2022-04-25T13:22:59.901Z</time>
      </trkpt>
      <trkpt lat="41.70679" lon="20.65042">
        <ele>898.961221</ele>
        <time>2022-04-25T13:23:03.913Z</time>
      </trkpt>
      <trkpt lat="41.7067" lon="20.65034">
        <ele>898.886505</ele>
        <time>2022-04-25T13:23:08.892Z</time>
      </trkpt>
      <trkpt lat="41.70662" lon="20.65027">
        <ele>898.817744</ele>
        <time>2022-04-25T13:23:13.873Z</time>
      </trkpt>
      <trkpt lat="41.70655" lon="20.65019">
        <ele>898.749177</ele>
        <time>2022-04-25T13:23:17.872Z</time>
      </trkpt>
      <trkpt lat="41.70647" lon="20.65011">
        <ele>898.679727</ele>
        <time>2022-04-25T13:23:21.890Z</time>
      </trkpt>
      <trkpt lat="41.70636" lon="20.65006">
        <ele>898.598612</ele>
        <time>2022-04-25T13:23:25.870Z</time>
      </trkpt>
      <trkpt lat="41.70624" lon="20.65005">
        <ele>898.513502</ele>
        <time>2022-04-25T13:23:29.880Z</time>
      </trkpt>
      <trkpt lat="41.70614" lon="20.65004">
        <ele>898.439859</ele>
        <time>2022-04-25T13:23:33.879Z</time>
      </trkpt>
      <trkpt lat="41.70604" lon="20.65003">
        <ele>898.372492</ele>
        <time>2022-04-25T13:23:36.864Z</time>
      </trkpt>
      <trkpt lat="41.70592" lon="20.65003">
        <ele>898.289753</ele>
        <time>2022-04-25T13:23:39.881Z</time>
      </trkpt>
      <trkpt lat="41.70582" lon="20.65004">
        <ele>898.217722</ele>
        <time>2022-04-25T13:23:41.903Z</time>
      </trkpt>
      <trkpt lat="41.7057" lon="20.65009">
        <ele>898.126354</ele>
        <time>2022-04-25T13:23:43.913Z</time>
      </trkpt>
      <trkpt lat="41.70557" lon="20.65014">
        <ele>898.032922</ele>
        <time>2022-04-25T13:23:45.876Z</time>
      </trkpt>
      <trkpt lat="41.70543" lon="20.6502">
        <ele>897.926167</ele>
        <time>2022-04-25T13:23:47.896Z</time>
      </trkpt>
      <trkpt lat="41.70527" lon="20.65028">
        <ele>897.806996</ele>
        <time>2022-04-25T13:23:49.897Z</time>
      </trkpt>
      <trkpt lat="41.7051" lon="20.65035">
        <ele>897.72552</ele>
        <time>2022-04-25T13:23:51.872Z</time>
      </trkpt>
      <trkpt lat="41.70501" lon="20.65037">
        <ele>897.778591</ele>
        <time>2022-04-25T13:23:52.881Z</time>
      </trkpt>
      <trkpt lat="41.70492" lon="20.65039">
        <ele>897.831789</ele>
        <time>2022-04-25T13:23:53.868Z</time>
      </trkpt>
      <trkpt lat="41.70483" lon="20.6504">
        <ele>897.886015</ele>
        <time>2022-04-25T13:23:54.883Z</time>
      </trkpt>
      <trkpt lat="41.70473" lon="20.65042">
        <ele>897.940762</ele>
        <time>2022-04-25T13:23:55.875Z</time>
      </trkpt>
      <trkpt lat="41.70464" lon="20.65043">
        <ele>897.997184</ele>
        <time>2022-04-25T13:23:56.894Z</time>
      </trkpt>
      <trkpt lat="41.70454" lon="20.65045">
        <ele>898.055723</ele>
        <time>2022-04-25T13:23:57.870Z</time>
      </trkpt>
      <trkpt lat="41.70443" lon="20.65048">
        <ele>898.116043</ele>
        <time>2022-04-25T13:23:58.912Z</time>
      </trkpt>
      <trkpt lat="41.70433" lon="20.65049">
        <ele>898.174812</ele>
        <time>2022-04-25T13:23:59.910Z</time>
      </trkpt>
      <trkpt lat="41.70423" lon="20.6505">
        <ele>898.234643</ele>
        <time>2022-04-25T13:24:00.878Z</time>
      </trkpt>
      <trkpt lat="41.70412" lon="20.65051">
        <ele>898.294845</ele>
        <time>2022-04-25T13:24:01.904Z</time>
      </trkpt>
      <trkpt lat="41.70402" lon="20.65051">
        <ele>898.353257</ele>
        <time>2022-04-25T13:24:02.880Z</time>
      </trkpt>
      <trkpt lat="41.70393" lon="20.65049">
        <ele>898.409778</ele>
        <time>2022-04-25T13:24:03.893Z</time>
      </trkpt>
      <trkpt lat="41.70384" lon="20.65046">
        <ele>898.463185</ele>
        <time>2022-04-25T13:24:04.877Z</time>
      </trkpt>
      <trkpt lat="41.70375" lon="20.65041">
        <ele>898.518637</ele>
        <time>2022-04-25T13:24:05.882Z</time>
      </trkpt>
      <trkpt lat="41.70359" lon="20.6503">
        <ele>898.621918</ele>
        <time>2022-04-25T13:24:07.876Z</time>
      </trkpt>
      <trkpt lat="41.70346" lon="20.65016">
        <ele>898.720332</ele>
        <time>2022-04-25T13:24:09.895Z</time>
      </trkpt>
      <trkpt lat="41.70333" lon="20.65001">
        <ele>899.230341</ele>
        <time>2022-04-25T13:24:11.895Z</time>
      </trkpt>
      <trkpt lat="41.70318" lon="20.64987">
        <ele>899.92574</ele>
        <time>2022-04-25T13:24:13.879Z</time>
      </trkpt>
      <trkpt lat="41.70311" lon="20.6498">
        <ele>900.285474</ele>
        <time>2022-04-25T13:24:14.892Z</time>
      </trkpt>
      <trkpt lat="41.70304" lon="20.64973">
        <ele>900.640634</ele>
        <time>2022-04-25T13:24:15.883Z</time>
      </trkpt>
      <trkpt lat="41.70296" lon="20.64966">
        <ele>900.995503</ele>
        <time>2022-04-25T13:24:16.881Z</time>
      </trkpt>
      <trkpt lat="41.70282" lon="20.64952">
        <ele>901.671766</ele>
        <time>2022-04-25T13:24:18.877Z</time>
      </trkpt>
      <trkpt lat="41.70268" lon="20.64939">
        <ele>902.330956</ele>
        <time>2022-04-25T13:24:20.910Z</time>
      </trkpt>
      <trkpt lat="41.70255" lon="20.64927">
        <ele>902.972325</ele>
        <time>2022-04-25T13:24:22.879Z</time>
      </trkpt>
      <trkpt lat="41.70242" lon="20.64914">
        <ele>903.568054</ele>
        <time>2022-04-25T13:24:24.929Z</time>
      </trkpt>
      <trkpt lat="41.70231" lon="20.649">
        <ele>904.17783</ele>
        <time>2022-04-25T13:24:26.900Z</time>
      </trkpt>
      <trkpt lat="41.7022" lon="20.64886">
        <ele>904.760567</ele>
        <time>2022-04-25T13:24:28.895Z</time>
      </trkpt>
      <trkpt lat="41.7021" lon="20.64873">
        <ele>905.32578</ele>
        <time>2022-04-25T13:24:30.861Z</time>
      </trkpt>
      <trkpt lat="41.70202" lon="20.64858">
        <ele>905.719298</ele>
        <time>2022-04-25T13:24:32.904Z</time>
      </trkpt>
      <trkpt lat="41.70191" lon="20.64848">
        <ele>905.508905</ele>
        <time>2022-04-25T13:24:34.882Z</time>
      </trkpt>
      <trkpt lat="41.70178" lon="20.64837">
        <ele>905.26367</ele>
        <time>2022-04-25T13:24:36.881Z</time>
      </trkpt>
      <trkpt lat="41.70165" lon="20.64829">
        <ele>905.039679</ele>
        <time>2022-04-25T13:24:38.884Z</time>
      </trkpt>
      <trkpt lat="41.70151" lon="20.64822">
        <ele>904.795645</ele>
        <time>2022-04-25T13:24:40.894Z</time>
      </trkpt>
      <trkpt lat="41.70138" lon="20.64814">
        <ele>904.572023</ele>
        <time>2022-04-25T13:24:42.878Z</time>
      </trkpt>
      <trkpt lat="41.70126" lon="20.64809">
        <ele>904.361115</ele>
        <time>2022-04-25T13:24:44.871Z</time>
      </trkpt>
      <trkpt lat="41.70114" lon="20.64805">
        <ele>904.169447</ele>
        <time>2022-04-25T13:24:46.890Z</time>
      </trkpt>
      <trkpt lat="41.70101" lon="20.64801">
        <ele>903.95522</ele>
        <time>2022-04-25T13:24:48.878Z</time>
      </trkpt>
      <trkpt lat="41.70089" lon="20.64798">
        <ele>903.761831</ele>
        <time>2022-04-25T13:24:50.873Z</time>
      </trkpt>
      <trkpt lat="41.70078" lon="20.64795">
        <ele>903.57679</ele>
        <time>2022-04-25T13:24:52.883Z</time>
      </trkpt>
      <trkpt lat="41.70067" lon="20.64794">
        <ele>903.403643</ele>
        <time>2022-04-25T13:24:54.902Z</time>
      </trkpt>
      <trkpt lat="41.70056" lon="20.64794">
        <ele>903.229192</ele>
        <time>2022-04-25T13:24:56.883Z</time>
      </trkpt>
      <trkpt lat="41.70046" lon="20.64792">
        <ele>903.073081</ele>
        <time>2022-04-25T13:24:58.893Z</time>
      </trkpt>
      <trkpt lat="41.70037" lon="20.64792">
        <ele>902.922669</ele>
        <time>2022-04-25T13:25:00.924Z</time>
      </trkpt>
      <trkpt lat="41.70024" lon="20.64793">
        <ele>902.943073</ele>
        <time>2022-04-25T13:25:03.894Z</time>
      </trkpt>
      <trkpt lat="41.70014" lon="20.64793">
        <ele>902.999721</ele>
        <time>2022-04-25T13:25:05.879Z</time>
      </trkpt>
      <trkpt lat="41.70002" lon="20.64794">
        <ele>903.076376</ele>
        <time>2022-04-25T13:25:08.902Z</time>
      </trkpt>
      <trkpt lat="41.6999" lon="20.64796">
        <ele>903.150211</ele>
        <time>2022-04-25T13:25:11.908Z</time>
      </trkpt>
      <trkpt lat="41.69977" lon="20.64795">
        <ele>903.228669</ele>
        <time>2022-04-25T13:25:14.894Z</time>
      </trkpt>
      <trkpt lat="41.69965" lon="20.6479">
        <ele>903.302068</ele>
        <time>2022-04-25T13:25:17.924Z</time>
      </trkpt>
      <trkpt lat="41.69954" lon="20.64783">
        <ele>903.374119</ele>
        <time>2022-04-25T13:25:20.886Z</time>
      </trkpt>
      <trkpt lat="41.69943" lon="20.64777">
        <ele>903.444887</ele>
        <time>2022-04-25T13:25:23.889Z</time>
      </trkpt>
      <trkpt lat="41.69936" lon="20.64768">
        <ele>903.503606</ele>
        <time>2022-04-25T13:25:25.885Z</time>
      </trkpt>
      <trkpt lat="41.69928" lon="20.6476">
        <ele>903.563368</ele>
        <time>2022-04-25T13:25:27.874Z</time>
      </trkpt>
      <trkpt lat="41.69921" lon="20.64752">
        <ele>903.61906</ele>
        <time>2022-04-25T13:25:29.878Z</time>
      </trkpt>
      <trkpt lat="41.69913" lon="20.64746">
        <ele>903.677048</ele>
        <time>2022-04-25T13:25:31.882Z</time>
      </trkpt>
      <trkpt lat="41.69904" lon="20.64742">
        <ele>903.731511</ele>
        <time>2022-04-25T13:25:33.873Z</time>
      </trkpt>
      <trkpt lat="41.69895" lon="20.64741">
        <ele>903.78758</ele>
        <time>2022-04-25T13:25:35.879Z</time>
      </trkpt>
      <trkpt lat="41.69883" lon="20.6474">
        <ele>903.860483</ele>
        <time>2022-04-25T13:25:38.881Z</time>
      </trkpt>
      <trkpt lat="41.69871" lon="20.64738">
        <ele>903.934515</ele>
        <time>2022-04-25T13:25:41.881Z</time>
      </trkpt>
      <trkpt lat="41.69857" lon="20.64737">
        <ele>904.691578</ele>
        <time>2022-04-25T13:25:44.883Z</time>
      </trkpt>
      <trkpt lat="41.69848" lon="20.64736">
        <ele>905.550209</ele>
        <time>2022-04-25T13:25:46.865Z</time>
      </trkpt>
      <trkpt lat="41.69837" lon="20.64733">
        <ele>906.456754</ele>
        <time>2022-04-25T13:25:48.879Z</time>
      </trkpt>
      <trkpt lat="41.69827" lon="20.6473">
        <ele>907.385033</ele>
        <time>2022-04-25T13:25:50.899Z</time>
      </trkpt>
      <trkpt lat="41.69816" lon="20.64726">
        <ele>908.331621</ele>
        <time>2022-04-25T13:25:52.875Z</time>
      </trkpt>
      <trkpt lat="41.69806" lon="20.64723">
        <ele>909.222239</ele>
        <time>2022-04-25T13:25:54.893Z</time>
      </trkpt>
      <trkpt lat="41.69796" lon="20.64723">
        <ele>910.116213</ele>
        <time>2022-04-25T13:25:56.895Z</time>
      </trkpt>
      <trkpt lat="41.69785" lon="20.6472">
        <ele>911.074058</ele>
        <time>2022-04-25T13:25:58.882Z</time>
      </trkpt>
      <trkpt lat="41.69774" lon="20.64717">
        <ele>912.081239</ele>
        <time>2022-04-25T13:26:00.864Z</time>
      </trkpt>
      <trkpt lat="41.69763" lon="20.64713">
        <ele>913.06859</ele>
        <time>2022-04-25T13:26:02.915Z</time>
      </trkpt>
      <trkpt lat="41.69752" lon="20.64709">
        <ele>914.069782</ele>
        <time>2022-04-25T13:26:04.881Z</time>
      </trkpt>
      <trkpt lat="41.69742" lon="20.64706">
        <ele>914.962846</ele>
        <time>2022-04-25T13:26:06.879Z</time>
      </trkpt>
      <trkpt lat="41.69732" lon="20.64704">
        <ele>915.833027</ele>
        <time>2022-04-25T13:26:08.925Z</time>
      </trkpt>
      <trkpt lat="41.69719" lon="20.64703">
        <ele>916.97013</ele>
        <time>2022-04-25T13:26:11.878Z</time>
      </trkpt>
      <trkpt lat="41.69707" lon="20.64701">
        <ele>917.99923</ele>
        <time>2022-04-25T13:26:14.892Z</time>
      </trkpt>
      <trkpt lat="41.69695" lon="20.64699">
        <ele>919.031421</ele>
        <time>2022-04-25T13:26:17.871Z</time>
      </trkpt>
      <trkpt lat="41.69684" lon="20.64697">
        <ele>919.251504</ele>
        <time>2022-04-25T13:26:20.862Z</time>
      </trkpt>
      <trkpt lat="41.69672" lon="20.64697">
        <ele>918.479004</ele>
        <time>2022-04-25T13:26:23.874Z</time>
      </trkpt>
      <trkpt lat="41.69661" lon="20.64699">
        <ele>917.71558</ele>
        <time>2022-04-25T13:26:26.895Z</time>
      </trkpt>
      <trkpt lat="41.6965" lon="20.64703">
        <ele>916.973053</ele>
        <time>2022-04-25T13:26:29.877Z</time>
      </trkpt>
      <trkpt lat="41.69638" lon="20.64707">
        <ele>916.190082</ele>
        <time>2022-04-25T13:26:32.886Z</time>
      </trkpt>
      <trkpt lat="41.69629" lon="20.64709">
        <ele>915.583825</ele>
        <time>2022-04-25T13:26:34.883Z</time>
      </trkpt>
      <trkpt lat="41.69617" lon="20.64714">
        <ele>914.74277</ele>
        <time>2022-04-25T13:26:37.870Z</time>
      </trkpt>
      <trkpt lat="41.69608" lon="20.64715">
        <ele>914.149614</ele>
        <time>2022-04-25T13:26:39.889Z</time>
      </trkpt>
      <trkpt lat="41.69598" lon="20.64715">
        <ele>913.533747</ele>
        <time>2022-04-25T13:26:41.920Z</time>
      </trkpt>
      <trkpt lat="41.69587" lon="20.64715">
        <ele>912.754562</ele>
        <time>2022-04-25T13:26:44.876Z</time>
      </trkpt>
      <trkpt lat="41.69578" lon="20.64711">
        <ele>912.158567</ele>
        <time>2022-04-25T13:26:46.878Z</time>
      </trkpt>
      <trkpt lat="41.69569" lon="20.64706">
        <ele>911.554659</ele>
        <time>2022-04-25T13:26:48.882Z</time>
      </trkpt>
      <trkpt lat="41.6956" lon="20.64705">
        <ele>910.907732</ele>
        <time>2022-04-25T13:26:50.878Z</time>
      </trkpt>
      <trkpt lat="41.69549" lon="20.64706">
        <ele>910.222407</ele>
        <time>2022-04-25T13:26:52.935Z</time>
      </trkpt>
      <trkpt lat="41.69537" lon="20.64709">
        <ele>909.379796</ele>
        <time>2022-04-25T13:26:54.877Z</time>
      </trkpt>
      <trkpt lat="41.69525" lon="20.64711">
        <ele>908.615309</ele>
        <time>2022-04-25T13:26:56.899Z</time>
      </trkpt>
      <trkpt lat="41.69513" lon="20.64712">
        <ele>907.846724</ele>
        <time>2022-04-25T13:26:58.868Z</time>
      </trkpt>
      <trkpt lat="41.69502" lon="20.64712">
        <ele>907.192905</ele>
        <time>2022-04-25T13:27:00.879Z</time>
      </trkpt>
      <trkpt lat="41.6949" lon="20.64714">
        <ele>906.484096</ele>
        <time>2022-04-25T13:27:02.871Z</time>
      </trkpt>
      <trkpt lat="41.69477" lon="20.64719">
        <ele>905.736304</ele>
        <time>2022-04-25T13:27:04.874Z</time>
      </trkpt>
      <trkpt lat="41.69464" lon="20.64721">
        <ele>905.014447</ele>
        <time>2022-04-25T13:27:06.868Z</time>
      </trkpt>
      <trkpt lat="41.69451" lon="20.64723">
        <ele>904.228327</ele>
        <time>2022-04-25T13:27:08.883Z</time>
      </trkpt>
      <trkpt lat="41.69437" lon="20.64723">
        <ele>903.445167</ele>
        <time>2022-04-25T13:27:10.889Z</time>
      </trkpt>
      <trkpt lat="41.69425" lon="20.64724">
        <ele>902.727753</ele>
        <time>2022-04-25T13:27:12.883Z</time>
      </trkpt>
      <trkpt lat="41.69412" lon="20.64726">
        <ele>901.98718</ele>
        <time>2022-04-25T13:27:14.920Z</time>
      </trkpt>
      <trkpt lat="41.69398" lon="20.64728">
        <ele>901.201253</ele>
        <time>2022-04-25T13:27:16.872Z</time>
      </trkpt>
      <trkpt lat="41.69382" lon="20.64737">
        <ele>900.20509</ele>
        <time>2022-04-25T13:27:18.864Z</time>
      </trkpt>
      <trkpt lat="41.69373" lon="20.64741">
        <ele>899.68181</ele>
        <time>2022-04-25T13:27:19.889Z</time>
      </trkpt>
      <trkpt lat="41.69359" lon="20.64747">
        <ele>898.817096</ele>
        <time>2022-04-25T13:27:21.877Z</time>
      </trkpt>
      <trkpt lat="41.69347" lon="20.64753">
        <ele>898.092501</ele>
        <time>2022-04-25T13:27:23.884Z</time>
      </trkpt>
      <trkpt lat="41.69335" lon="20.64761">
        <ele>897.423525</ele>
        <time>2022-04-25T13:27:25.873Z</time>
      </trkpt>
      <trkpt lat="41.69324" lon="20.6477">
        <ele>897.112281</ele>
        <time>2022-04-25T13:27:27.871Z</time>
      </trkpt>
      <trkpt lat="41.69313" lon="20.64778">
        <ele>896.811613</ele>
        <time>2022-04-25T13:27:29.881Z</time>
      </trkpt>
      <trkpt lat="41.69304" lon="20.64786">
        <ele>896.544895</ele>
        <time>2022-04-25T13:27:31.915Z</time>
      </trkpt>
      <trkpt lat="41.69295" lon="20.64795">
        <ele>896.283486</ele>
        <time>2022-04-25T13:27:33.887Z</time>
      </trkpt>
      <trkpt lat="41.69287" lon="20.64804">
        <ele>896.028224</ele>
        <time>2022-04-25T13:27:35.881Z</time>
      </trkpt>
      <trkpt lat="41.6928" lon="20.64812">
        <ele>895.801164</ele>
        <time>2022-04-25T13:27:37.901Z</time>
      </trkpt>
      <trkpt lat="41.69271" lon="20.64825">
        <ele>895.492457</ele>
        <time>2022-04-25T13:27:40.884Z</time>
      </trkpt>
      <trkpt lat="41.69262" lon="20.64837">
        <ele>895.174176</ele>
        <time>2022-04-25T13:27:43.893Z</time>
      </trkpt>
      <trkpt lat="41.69254" lon="20.64846">
        <ele>894.925731</ele>
        <time>2022-04-25T13:27:45.882Z</time>
      </trkpt>
      <trkpt lat="41.69245" lon="20.64853">
        <ele>894.67276</ele>
        <time>2022-04-25T13:27:47.877Z</time>
      </trkpt>
      <trkpt lat="41.69233" lon="20.64859">
        <ele>894.360608</ele>
        <time>2022-04-25T13:27:50.877Z</time>
      </trkpt>
      <trkpt lat="41.69222" lon="20.64858">
        <ele>894.083805</ele>
        <time>2022-04-25T13:27:53.874Z</time>
      </trkpt>
      <trkpt lat="41.69212" lon="20.6486">
        <ele>893.8368</ele>
        <time>2022-04-25T13:27:56.891Z</time>
      </trkpt>
      <trkpt lat="41.69202" lon="20.64864">
        <ele>893.600514</ele>
        <time>2022-04-25T13:27:59.910Z</time>
      </trkpt>
      <trkpt lat="41.69193" lon="20.64867">
        <ele>893.359077</ele>
        <time>2022-04-25T13:28:02.881Z</time>
      </trkpt>
      <trkpt lat="41.69183" lon="20.64872">
        <ele>893.118819</ele>
        <time>2022-04-25T13:28:05.915Z</time>
      </trkpt>
      <trkpt lat="41.69171" lon="20.64878">
        <ele>892.947388</ele>
        <time>2022-04-25T13:28:08.896Z</time>
      </trkpt>
      <trkpt lat="41.69162" lon="20.64881">
        <ele>892.807195</ele>
        <time>2022-04-25T13:28:10.873Z</time>
      </trkpt>
      <trkpt lat="41.69152" lon="20.64884">
        <ele>892.676454</ele>
        <time>2022-04-25T13:28:12.883Z</time>
      </trkpt>
      <trkpt lat="41.69143" lon="20.64884">
        <ele>892.546359</ele>
        <time>2022-04-25T13:28:14.860Z</time>
      </trkpt>
      <trkpt lat="41.69131" lon="20.64887">
        <ele>892.364815</ele>
        <time>2022-04-25T13:28:17.868Z</time>
      </trkpt>
      <trkpt lat="41.69118" lon="20.6489">
        <ele>892.185145</ele>
        <time>2022-04-25T13:28:20.881Z</time>
      </trkpt>
      <trkpt lat="41.69109" lon="20.64895">
        <ele>892.045894</ele>
        <time>2022-04-25T13:28:22.898Z</time>
      </trkpt>
      <trkpt lat="41.69099" lon="20.64897">
        <ele>891.900489</ele>
        <time>2022-04-25T13:28:24.865Z</time>
      </trkpt>
      <trkpt lat="41.69088" lon="20.649">
        <ele>891.74477</ele>
        <time>2022-04-25T13:28:26.875Z</time>
      </trkpt>
      <trkpt lat="41.69078" lon="20.64904">
        <ele>891.596114</ele>
        <time>2022-04-25T13:28:28.920Z</time>
      </trkpt>
      <trkpt lat="41.69067" lon="20.64905">
        <ele>891.442051</ele>
        <time>2022-04-25T13:28:30.882Z</time>
      </trkpt>
      <trkpt lat="41.69056" lon="20.64905">
        <ele>891.29522</ele>
        <time>2022-04-25T13:28:32.883Z</time>
      </trkpt>
      <trkpt lat="41.69043" lon="20.64904">
        <ele>891.104625</ele>
        <time>2022-04-25T13:28:35.880Z</time>
      </trkpt>
      <trkpt lat="41.69032" lon="20.64906">
        <ele>890.952942</ele>
        <time>2022-04-25T13:28:37.882Z</time>
      </trkpt>
      <trkpt lat="41.69023" lon="20.64906">
        <ele>890.824257</ele>
        <time>2022-04-25T13:28:39.902Z</time>
      </trkpt>
      <trkpt lat="41.69014" lon="20.6491">
        <ele>890.687327</ele>
        <time>2022-04-25T13:28:41.882Z</time>
      </trkpt>
      <trkpt lat="41.69004" lon="20.64911">
        <ele>890.593068</ele>
        <time>2022-04-25T13:28:43.895Z</time>
      </trkpt>
      <trkpt lat="41.68993" lon="20.64913">
        <ele>890.548078</ele>
        <time>2022-04-25T13:28:45.921Z</time>
      </trkpt>
      <trkpt lat="41.68981" lon="20.64916">
        <ele>890.501943</ele>
        <time>2022-04-25T13:28:47.878Z</time>
      </trkpt>
      <trkpt lat="41.6897" lon="20.64916">
        <ele>890.458689</ele>
        <time>2022-04-25T13:28:49.875Z</time>
      </trkpt>
      <trkpt lat="41.68959" lon="20.64915">
        <ele>890.416947</ele>
        <time>2022-04-25T13:28:51.881Z</time>
      </trkpt>
      <trkpt lat="41.68949" lon="20.64915">
        <ele>890.377162</ele>
        <time>2022-04-25T13:28:53.883Z</time>
      </trkpt>
      <trkpt lat="41.68938" lon="20.64915">
        <ele>890.336589</ele>
        <time>2022-04-25T13:28:55.879Z</time>
      </trkpt>
      <trkpt lat="41.68928" lon="20.64916">
        <ele>890.296994</ele>
        <time>2022-04-25T13:28:57.874Z</time>
      </trkpt>
      <trkpt lat="41.68918" lon="20.64916">
        <ele>890.260304</ele>
        <time>2022-04-25T13:28:59.878Z</time>
      </trkpt>
      <trkpt lat="41.68908" lon="20.64915">
        <ele>890.220059</ele>
        <time>2022-04-25T13:29:01.890Z</time>
      </trkpt>
      <trkpt lat="41.68896" lon="20.64915">
        <ele>890.174101</ele>
        <time>2022-04-25T13:29:03.867Z</time>
      </trkpt>
      <trkpt lat="41.68883" lon="20.64913">
        <ele>890.124842</ele>
        <time>2022-04-25T13:29:05.887Z</time>
      </trkpt>
      <trkpt lat="41.6887" lon="20.64913">
        <ele>890.073082</ele>
        <time>2022-04-25T13:29:07.860Z</time>
      </trkpt>
      <trkpt lat="41.68858" lon="20.64915">
        <ele>890.025772</ele>
        <time>2022-04-25T13:29:09.887Z</time>
      </trkpt>
      <trkpt lat="41.68846" lon="20.64916">
        <ele>889.979774</ele>
        <time>2022-04-25T13:29:11.890Z</time>
      </trkpt>
      <trkpt lat="41.68835" lon="20.64916">
        <ele>889.936885</ele>
        <time>2022-04-25T13:29:13.906Z</time>
      </trkpt>
      <trkpt lat="41.68823" lon="20.64911">
        <ele>889.959954</ele>
        <time>2022-04-25T13:29:15.887Z</time>
      </trkpt>
      <trkpt lat="41.68813" lon="20.64908">
        <ele>890.036139</ele>
        <time>2022-04-25T13:29:17.879Z</time>
      </trkpt>
      <trkpt lat="41.68802" lon="20.64909">
        <ele>890.121203</ele>
        <time>2022-04-25T13:29:19.889Z</time>
      </trkpt>
      <trkpt lat="41.68789" lon="20.64911">
        <ele>890.214516</ele>
        <time>2022-04-25T13:29:21.879Z</time>
      </trkpt>
      <trkpt lat="41.68776" lon="20.64911">
        <ele>890.312096</ele>
        <time>2022-04-25T13:29:23.887Z</time>
      </trkpt>
      <trkpt lat="41.68763" lon="20.64912">
        <ele>890.407636</ele>
        <time>2022-04-25T13:29:25.893Z</time>
      </trkpt>
      <trkpt lat="41.6875" lon="20.64912">
        <ele>890.508157</ele>
        <time>2022-04-25T13:29:27.888Z</time>
      </trkpt>
      <trkpt lat="41.68736" lon="20.64911">
        <ele>890.609173</ele>
        <time>2022-04-25T13:29:29.888Z</time>
      </trkpt>
      <trkpt lat="41.68723" lon="20.64907">
        <ele>890.708249</ele>
        <time>2022-04-25T13:29:31.879Z</time>
      </trkpt>
      <trkpt lat="41.6871" lon="20.64901">
        <ele>890.812059</ele>
        <time>2022-04-25T13:29:33.884Z</time>
      </trkpt>
      <trkpt lat="41.68696" lon="20.64895">
        <ele>890.919069</ele>
        <time>2022-04-25T13:29:35.876Z</time>
      </trkpt>
      <trkpt lat="41.68682" lon="20.6489">
        <ele>891.025895</ele>
        <time>2022-04-25T13:29:37.873Z</time>
      </trkpt>
      <trkpt lat="41.68668" lon="20.64889">
        <ele>891.130516</ele>
        <time>2022-04-25T13:29:39.874Z</time>
      </trkpt>
      <trkpt lat="41.68655" lon="20.64889">
        <ele>891.231049</ele>
        <time>2022-04-25T13:29:41.929Z</time>
      </trkpt>
      <trkpt lat="41.68642" lon="20.64889">
        <ele>891.028021</ele>
        <time>2022-04-25T13:29:43.882Z</time>
      </trkpt>
      <trkpt lat="41.68629" lon="20.6489">
        <ele>890.72994</ele>
        <time>2022-04-25T13:29:45.893Z</time>
      </trkpt>
      <trkpt lat="41.68616" lon="20.64889">
        <ele>890.425488</ele>
        <time>2022-04-25T13:29:47.893Z</time>
      </trkpt>
      <trkpt lat="41.68603" lon="20.64885">
        <ele>890.134416</ele>
        <time>2022-04-25T13:29:49.914Z</time>
      </trkpt>
      <trkpt lat="41.68591" lon="20.6488">
        <ele>889.847615</ele>
        <time>2022-04-25T13:29:51.877Z</time>
      </trkpt>
      <trkpt lat="41.68579" lon="20.64875">
        <ele>889.547224</ele>
        <time>2022-04-25T13:29:53.881Z</time>
      </trkpt>
      <trkpt lat="41.68565" lon="20.6487">
        <ele>889.220973</ele>
        <time>2022-04-25T13:29:55.870Z</time>
      </trkpt>
      <trkpt lat="41.6855" lon="20.64865">
        <ele>888.868215</ele>
        <time>2022-04-25T13:29:57.876Z</time>
      </trkpt>
      <trkpt lat="41.68536" lon="20.64862">
        <ele>888.551689</ele>
        <time>2022-04-25T13:29:59.883Z</time>
      </trkpt>
      <trkpt lat="41.68524" lon="20.64856">
        <ele>888.242616</ele>
        <time>2022-04-25T13:30:01.874Z</time>
      </trkpt>
      <trkpt lat="41.6851" lon="20.64848">
        <ele>887.910364</ele>
        <time>2022-04-25T13:30:03.903Z</time>
      </trkpt>
      <trkpt lat="41.68496" lon="20.64844">
        <ele>887.584016</ele>
        <time>2022-04-25T13:30:05.914Z</time>
      </trkpt>
      <trkpt lat="41.68482" lon="20.64842">
        <ele>887.261918</ele>
        <time>2022-04-25T13:30:07.873Z</time>
      </trkpt>
      <trkpt lat="41.68469" lon="20.6484">
        <ele>887.082884</ele>
        <time>2022-04-25T13:30:09.893Z</time>
      </trkpt>
      <trkpt lat="41.68456" lon="20.64839">
        <ele>886.987464</ele>
        <time>2022-04-25T13:30:11.865Z</time>
      </trkpt>
      <trkpt lat="41.68443" lon="20.64838">
        <ele>886.895758</ele>
        <time>2022-04-25T13:30:13.875Z</time>
      </trkpt>
      <trkpt lat="41.68431" lon="20.64836">
        <ele>886.803236</ele>
        <time>2022-04-25T13:30:15.871Z</time>
      </trkpt>
      <trkpt lat="41.68418" lon="20.64833">
        <ele>886.707725</ele>
        <time>2022-04-25T13:30:17.877Z</time>
      </trkpt>
      <trkpt lat="41.68408" lon="20.64831">
        <ele>886.628609</ele>
        <time>2022-04-25T13:30:19.876Z</time>
      </trkpt>
      <trkpt lat="41.68398" lon="20.6483">
        <ele>886.559732</ele>
        <time>2022-04-25T13:30:21.876Z</time>
      </trkpt>
      <trkpt lat="41.68389" lon="20.64828">
        <ele>886.492014</ele>
        <time>2022-04-25T13:30:23.914Z</time>
      </trkpt>
      <trkpt lat="41.68377" lon="20.64823">
        <ele>886.400472</ele>
        <time>2022-04-25T13:30:26.881Z</time>
      </trkpt>
      <trkpt lat="41.68365" lon="20.64817">
        <ele>886.303831</ele>
        <time>2022-04-25T13:30:29.888Z</time>
      </trkpt>
      <trkpt lat="41.68353" lon="20.64811">
        <ele>886.211303</ele>
        <time>2022-04-25T13:30:32.887Z</time>
      </trkpt>
      <trkpt lat="41.68343" lon="20.64806">
        <ele>886.128777</ele>
        <time>2022-04-25T13:30:35.874Z</time>
      </trkpt>
      <trkpt lat="41.68333" lon="20.64804">
        <ele>886.056971</ele>
        <time>2022-04-25T13:30:38.882Z</time>
      </trkpt>
      <trkpt lat="41.68324" lon="20.64803">
        <ele>885.990225</ele>
        <time>2022-04-25T13:30:41.935Z</time>
      </trkpt>
      <trkpt lat="41.68313" lon="20.64803">
        <ele>885.904447</ele>
        <time>2022-04-25T13:30:45.903Z</time>
      </trkpt>
      <trkpt lat="41.68304" lon="20.64801">
        <ele>885.837749</ele>
        <time>2022-04-25T13:30:48.883Z</time>
      </trkpt>
      <trkpt lat="41.68293" lon="20.648">
        <ele>885.840491</ele>
        <time>2022-04-25T13:30:52.882Z</time>
      </trkpt>
      <trkpt lat="41.68282" lon="20.64798">
        <ele>885.868015</ele>
        <time>2022-04-25T13:30:56.906Z</time>
      </trkpt>
      <trkpt lat="41.68272" lon="20.64797">
        <ele>885.894447</ele>
        <time>2022-04-25T13:31:00.898Z</time>
      </trkpt>
      <trkpt lat="41.68261" lon="20.64797">
        <ele>885.923159</ele>
        <time>2022-04-25T13:31:04.875Z</time>
      </trkpt>
      <trkpt lat="41.68251" lon="20.64794">
        <ele>885.947555</ele>
        <time>2022-04-25T13:31:07.871Z</time>
      </trkpt>
      <trkpt lat="41.68238" lon="20.64791">
        <ele>885.982277</ele>
        <time>2022-04-25T13:31:10.882Z</time>
      </trkpt>
      <trkpt lat="41.68229" lon="20.64788">
        <ele>886.005856</ele>
        <time>2022-04-25T13:31:12.887Z</time>
      </trkpt>
      <trkpt lat="41.68217" lon="20.64782">
        <ele>886.039088</ele>
        <time>2022-04-25T13:31:15.880Z</time>
      </trkpt>
      <trkpt lat="41.68208" lon="20.64778">
        <ele>886.063322</ele>
        <time>2022-04-25T13:31:17.917Z</time>
      </trkpt>
      <trkpt lat="41.68199" lon="20.64775">
        <ele>886.088857</ele>
        <time>2022-04-25T13:31:19.864Z</time>
      </trkpt>
      <trkpt lat="41.68188" lon="20.64773">
        <ele>886.117421</ele>
        <time>2022-04-25T13:31:21.912Z</time>
      </trkpt>
      <trkpt lat="41.68175" lon="20.64771">
        <ele>886.150113</ele>
        <time>2022-04-25T13:31:23.878Z</time>
      </trkpt>
      <trkpt lat="41.68162" lon="20.64773">
        <ele>886.184312</ele>
        <time>2022-04-25T13:31:25.874Z</time>
      </trkpt>
      <trkpt lat="41.68147" lon="20.64774">
        <ele>886.222464</ele>
        <time>2022-04-25T13:31:27.879Z</time>
      </trkpt>
      <trkpt lat="41.68132" lon="20.64776">
        <ele>886.262436</ele>
        <time>2022-04-25T13:31:29.883Z</time>
      </trkpt>
      <trkpt lat="41.68116" lon="20.64776">
        <ele>886.242895</ele>
        <time>2022-04-25T13:31:31.868Z</time>
      </trkpt>
      <trkpt lat="41.68107" lon="20.64774">
        <ele>886.19488</ele>
        <time>2022-04-25T13:31:32.872Z</time>
      </trkpt>
      <trkpt lat="41.68098" lon="20.6477">
        <ele>886.145542</ele>
        <time>2022-04-25T13:31:33.869Z</time>
      </trkpt>
      <trkpt lat="41.68089" lon="20.64765">
        <ele>886.091626</ele>
        <time>2022-04-25T13:31:34.886Z</time>
      </trkpt>
      <trkpt lat="41.6808" lon="20.64757">
        <ele>886.036974</ele>
        <time>2022-04-25T13:31:35.898Z</time>
      </trkpt>
      <trkpt lat="41.68072" lon="20.64748">
        <ele>885.984456</ele>
        <time>2022-04-25T13:31:36.915Z</time>
      </trkpt>
      <trkpt lat="41.68066" lon="20.64739">
        <ele>885.936888</ele>
        <time>2022-04-25T13:31:37.896Z</time>
      </trkpt>
      <trkpt lat="41.68055" lon="20.64722">
        <ele>885.848214</ele>
        <time>2022-04-25T13:31:39.881Z</time>
      </trkpt>
      <trkpt lat="41.68045" lon="20.64707">
        <ele>885.769248</ele>
        <time>2022-04-25T13:31:41.866Z</time>
      </trkpt>
      <trkpt lat="41.68034" lon="20.64692">
        <ele>885.685637</ele>
        <time>2022-04-25T13:31:43.862Z</time>
      </trkpt>
      <trkpt lat="41.68023" lon="20.64677">
        <ele>885.603774</ele>
        <time>2022-04-25T13:31:45.903Z</time>
      </trkpt>
      <trkpt lat="41.68011" lon="20.64667">
        <ele>885.532326</ele>
        <time>2022-04-25T13:31:47.901Z</time>
      </trkpt>
      <trkpt lat="41.68" lon="20.64658">
        <ele>885.46146</ele>
        <time>2022-04-25T13:31:49.869Z</time>
      </trkpt>
      <trkpt lat="41.67988" lon="20.64652">
        <ele>885.394333</ele>
        <time>2022-04-25T13:31:51.861Z</time>
      </trkpt>
      <trkpt lat="41.67976" lon="20.64649">
        <ele>885.291199</ele>
        <time>2022-04-25T13:31:53.863Z</time>
      </trkpt>
      <trkpt lat="41.67965" lon="20.64648">
        <ele>884.906094</ele>
        <time>2022-04-25T13:31:55.879Z</time>
      </trkpt>
      <trkpt lat="41.67956" lon="20.64646">
        <ele>884.562471</ele>
        <time>2022-04-25T13:31:57.862Z</time>
      </trkpt>
      <trkpt lat="41.67947" lon="20.64644">
        <ele>884.23737</ele>
        <time>2022-04-25T13:31:59.884Z</time>
      </trkpt>
      <trkpt lat="41.67938" lon="20.64641">
        <ele>883.914954</ele>
        <time>2022-04-25T13:32:01.873Z</time>
      </trkpt>
      <trkpt lat="41.67927" lon="20.64636">
        <ele>883.502148</ele>
        <time>2022-04-25T13:32:04.866Z</time>
      </trkpt>
      <trkpt lat="41.67917" lon="20.64632">
        <ele>883.128328</ele>
        <time>2022-04-25T13:32:07.880Z</time>
      </trkpt>
      <trkpt lat="41.67906" lon="20.6463">
        <ele>882.749344</ele>
        <time>2022-04-25T13:32:10.914Z</time>
      </trkpt>
      <trkpt lat="41.67895" lon="20.64627">
        <ele>882.353292</ele>
        <time>2022-04-25T13:32:13.868Z</time>
      </trkpt>
      <trkpt lat="41.67883" lon="20.64622">
        <ele>881.899312</ele>
        <time>2022-04-25T13:32:16.906Z</time>
      </trkpt>
      <trkpt lat="41.67875" lon="20.64615">
        <ele>881.545394</ele>
        <time>2022-04-25T13:32:18.870Z</time>
      </trkpt>
      <trkpt lat="41.67867" lon="20.64604">
        <ele>881.150941</ele>
        <time>2022-04-25T13:32:20.868Z</time>
      </trkpt>
      <trkpt lat="41.67859" lon="20.64594">
        <ele>880.76347</ele>
        <time>2022-04-25T13:32:22.868Z</time>
      </trkpt>
      <trkpt lat="41.6785" lon="20.64584">
        <ele>880.362765</ele>
        <time>2022-04-25T13:32:24.887Z</time>
      </trkpt>
      <trkpt lat="41.67839" lon="20.64576">
        <ele>879.888966</ele>
        <time>2022-04-25T13:32:26.889Z</time>
      </trkpt>
      <trkpt lat="41.67824" lon="20.64572">
        <ele>879.35951</ele>
        <time>2022-04-25T13:32:28.878Z</time>
      </trkpt>
      <trkpt lat="41.6781" lon="20.64568">
        <ele>878.893486</ele>
        <time>2022-04-25T13:32:30.893Z</time>
      </trkpt>
      <trkpt lat="41.67794" lon="20.64565">
        <ele>878.556609</ele>
        <time>2022-04-25T13:32:32.894Z</time>
      </trkpt>
      <trkpt lat="41.67778" lon="20.64557">
        <ele>878.215815</ele>
        <time>2022-04-25T13:32:34.868Z</time>
      </trkpt>
      <trkpt lat="41.67765" lon="20.64546">
        <ele>877.889311</ele>
        <time>2022-04-25T13:32:36.897Z</time>
      </trkpt>
      <trkpt lat="41.67751" lon="20.64532">
        <ele>877.528362</ele>
        <time>2022-04-25T13:32:38.909Z</time>
      </trkpt>
      <trkpt lat="41.67743" lon="20.64525">
        <ele>877.336412</ele>
        <time>2022-04-25T13:32:39.900Z</time>
      </trkpt>
      <trkpt lat="41.67734" lon="20.64519">
        <ele>877.136054</ele>
        <time>2022-04-25T13:32:40.892Z</time>
      </trkpt>
      <trkpt lat="41.67725" lon="20.64514">
        <ele>876.936423</ele>
        <time>2022-04-25T13:32:41.888Z</time>
      </trkpt>
      <trkpt lat="41.67716" lon="20.64509">
        <ele>876.730877</ele>
        <time>2022-04-25T13:32:42.877Z</time>
      </trkpt>
      <trkpt lat="41.67707" lon="20.64505">
        <ele>876.52443</ele>
        <time>2022-04-25T13:32:43.873Z</time>
      </trkpt>
      <trkpt lat="41.67697" lon="20.64502">
        <ele>876.32203</ele>
        <time>2022-04-25T13:32:44.887Z</time>
      </trkpt>
      <trkpt lat="41.67688" lon="20.64499">
        <ele>876.12362</ele>
        <time>2022-04-25T13:32:45.871Z</time>
      </trkpt>
      <trkpt lat="41.67678" lon="20.64494">
        <ele>875.920208</ele>
        <time>2022-04-25T13:32:46.882Z</time>
      </trkpt>
      <trkpt lat="41.67669" lon="20.64488">
        <ele>875.711697</ele>
        <time>2022-04-25T13:32:47.872Z</time>
      </trkpt>
      <trkpt lat="41.6766" lon="20.64482">
        <ele>875.498129</ele>
        <time>2022-04-25T13:32:48.886Z</time>
      </trkpt>
      <trkpt lat="41.6765" lon="20.64476">
        <ele>875.279645</ele>
        <time>2022-04-25T13:32:49.873Z</time>
      </trkpt>
      <trkpt lat="41.67641" lon="20.64471">
        <ele>875.330085</ele>
        <time>2022-04-25T13:32:50.865Z</time>
      </trkpt>
      <trkpt lat="41.67631" lon="20.64467">
        <ele>875.428805</ele>
        <time>2022-04-25T13:32:51.850Z</time>
      </trkpt>
      <trkpt lat="41.67621" lon="20.64464">
        <ele>875.528487</ele>
        <time>2022-04-25T13:32:52.852Z</time>
      </trkpt>
      <trkpt lat="41.67611" lon="20.64462">
        <ele>875.627238</ele>
        <time>2022-04-25T13:32:53.863Z</time>
      </trkpt>
      <trkpt lat="41.67601" lon="20.6446">
        <ele>875.725417</ele>
        <time>2022-04-25T13:32:54.863Z</time>
      </trkpt>
      <trkpt lat="41.67591" lon="20.64458">
        <ele>875.821193</ele>
        <time>2022-04-25T13:32:55.847Z</time>
      </trkpt>
      <trkpt lat="41.67582" lon="20.64456">
        <ele>875.91663</ele>
        <time>2022-04-25T13:32:56.862Z</time>
      </trkpt>
      <trkpt lat="41.67572" lon="20.64453">
        <ele>876.011119</ele>
        <time>2022-04-25T13:32:57.867Z</time>
      </trkpt>
      <trkpt lat="41.67563" lon="20.64451">
        <ele>876.100728</ele>
        <time>2022-04-25T13:32:58.897Z</time>
      </trkpt>
      <trkpt lat="41.67554" lon="20.64448">
        <ele>876.187795</ele>
        <time>2022-04-25T13:32:59.882Z</time>
      </trkpt>
      <trkpt lat="41.67545" lon="20.64445">
        <ele>876.278171</ele>
        <time>2022-04-25T13:33:00.881Z</time>
      </trkpt>
      <trkpt lat="41.67536" lon="20.64443">
        <ele>876.365483</ele>
        <time>2022-04-25T13:33:01.874Z</time>
      </trkpt>
      <trkpt lat="41.6752" lon="20.64441">
        <ele>876.523837</ele>
        <time>2022-04-25T13:33:03.902Z</time>
      </trkpt>
      <trkpt lat="41.67504" lon="20.64437">
        <ele>876.681913</ele>
        <time>2022-04-25T13:33:05.868Z</time>
      </trkpt>
      <trkpt lat="41.67488" lon="20.64436">
        <ele>876.836781</ele>
        <time>2022-04-25T13:33:07.894Z</time>
      </trkpt>
      <trkpt lat="41.67473" lon="20.64432">
        <ele>876.98455</ele>
        <time>2022-04-25T13:33:09.882Z</time>
      </trkpt>
      <trkpt lat="41.6746" lon="20.64422">
        <ele>875.702295</ele>
        <time>2022-04-25T13:33:11.885Z</time>
      </trkpt>
      <trkpt lat="41.67446" lon="20.64408">
        <ele>874.222015</ele>
        <time>2022-04-25T13:33:13.870Z</time>
      </trkpt>
      <trkpt lat="41.67433" lon="20.64394">
        <ele>872.856541</ele>
        <time>2022-04-25T13:33:15.881Z</time>
      </trkpt>
      <trkpt lat="41.67422" lon="20.64382">
        <ele>871.618483</ele>
        <time>2022-04-25T13:33:17.860Z</time>
      </trkpt>
      <trkpt lat="41.67411" lon="20.64368">
        <ele>870.351128</ele>
        <time>2022-04-25T13:33:19.869Z</time>
      </trkpt>
      <trkpt lat="41.67402" lon="20.6435">
        <ele>868.970997</ele>
        <time>2022-04-25T13:33:21.867Z</time>
      </trkpt>
      <trkpt lat="41.67393" lon="20.64332">
        <ele>867.592617</ele>
        <time>2022-04-25T13:33:23.857Z</time>
      </trkpt>
      <trkpt lat="41.67389" lon="20.64321">
        <ele>866.82432</ele>
        <time>2022-04-25T13:33:24.873Z</time>
      </trkpt>
      <trkpt lat="41.6738" lon="20.64301">
        <ele>865.348822</ele>
        <time>2022-04-25T13:33:26.875Z</time>
      </trkpt>
      <trkpt lat="41.67373" lon="20.64283">
        <ele>864.072286</ele>
        <time>2022-04-25T13:33:28.863Z</time>
      </trkpt>
      <trkpt lat="41.67367" lon="20.64268">
        <ele>862.947357</ele>
        <time>2022-04-25T13:33:30.884Z</time>
      </trkpt>
      <trkpt lat="41.67361" lon="20.64255">
        <ele>862.023499</ele>
        <time>2022-04-25T13:33:32.880Z</time>
      </trkpt>
      <trkpt lat="41.67355" lon="20.64244">
        <ele>861.734853</ele>
        <time>2022-04-25T13:33:34.871Z</time>
      </trkpt>
      <trkpt lat="41.67348" lon="20.64232">
        <ele>861.83294</ele>
        <time>2022-04-25T13:33:36.855Z</time>
      </trkpt>
      <trkpt lat="41.67341" lon="20.64222">
        <ele>861.9194</ele>
        <time>2022-04-25T13:33:38.937Z</time>
      </trkpt>
      <trkpt lat="41.67331" lon="20.64212">
        <ele>862.031128</ele>
        <time>2022-04-25T13:33:41.884Z</time>
      </trkpt>
      <trkpt lat="41.67321" lon="20.64204">
        <ele>862.122093</ele>
        <time>2022-04-25T13:33:43.873Z</time>
      </trkpt>
      <trkpt lat="41.6731" lon="20.64197">
        <ele>862.228146</ele>
        <time>2022-04-25T13:33:45.864Z</time>
      </trkpt>
      <trkpt lat="41.67297" lon="20.64192">
        <ele>862.345072</ele>
        <time>2022-04-25T13:33:47.873Z</time>
      </trkpt>
      <trkpt lat="41.67283" lon="20.64188">
        <ele>862.464141</ele>
        <time>2022-04-25T13:33:49.910Z</time>
      </trkpt>
      <trkpt lat="41.6727" lon="20.64183">
        <ele>862.582895</ele>
        <time>2022-04-25T13:33:51.870Z</time>
      </trkpt>
      <trkpt lat="41.67257" lon="20.64181">
        <ele>862.696289</ele>
        <time>2022-04-25T13:33:53.863Z</time>
      </trkpt>
      <trkpt lat="41.67244" lon="20.6418">
        <ele>862.806553</ele>
        <time>2022-04-25T13:33:55.863Z</time>
      </trkpt>
      <trkpt lat="41.67231" lon="20.64179">
        <ele>862.917879</ele>
        <time>2022-04-25T13:33:57.882Z</time>
      </trkpt>
      <trkpt lat="41.67217" lon="20.64174">
        <ele>863.038971</ele>
        <time>2022-04-25T13:33:59.863Z</time>
      </trkpt>
      <trkpt lat="41.67204" lon="20.64172">
        <ele>863.149579</ele>
        <time>2022-04-25T13:34:01.878Z</time>
      </trkpt>
      <trkpt lat="41.67192" lon="20.6417">
        <ele>863.291442</ele>
        <time>2022-04-25T13:34:03.860Z</time>
      </trkpt>
      <trkpt lat="41.67181" lon="20.64168">
        <ele>863.464669</ele>
        <time>2022-04-25T13:34:05.871Z</time>
      </trkpt>
      <trkpt lat="41.67171" lon="20.64171">
        <ele>863.614557</ele>
        <time>2022-04-25T13:34:07.870Z</time>
      </trkpt>
      <trkpt lat="41.6716" lon="20.6417">
        <ele>863.782518</ele>
        <time>2022-04-25T13:34:09.887Z</time>
      </trkpt>
      <trkpt lat="41.67148" lon="20.64168">
        <ele>863.976482</ele>
        <time>2022-04-25T13:34:11.943Z</time>
      </trkpt>
      <trkpt lat="41.67135" lon="20.64167">
        <ele>864.169372</ele>
        <time>2022-04-25T13:34:13.867Z</time>
      </trkpt>
      <trkpt lat="41.67124" lon="20.64166">
        <ele>864.337649</ele>
        <time>2022-04-25T13:34:15.878Z</time>
      </trkpt>
      <trkpt lat="41.67113" lon="20.64162">
        <ele>864.516113</ele>
        <time>2022-04-25T13:34:17.863Z</time>
      </trkpt>
      <trkpt lat="41.67101" lon="20.64157">
        <ele>864.708298</ele>
        <time>2022-04-25T13:34:19.866Z</time>
      </trkpt>
      <trkpt lat="41.6709" lon="20.64155">
        <ele>864.876294</ele>
        <time>2022-04-25T13:34:21.862Z</time>
      </trkpt>
      <trkpt lat="41.67081" lon="20.64149">
        <ele>865.02639</ele>
        <time>2022-04-25T13:34:23.877Z</time>
      </trkpt>
      <trkpt lat="41.67073" lon="20.6414">
        <ele>865.196274</ele>
        <time>2022-04-25T13:34:25.874Z</time>
      </trkpt>
      <trkpt lat="41.67065" lon="20.6413">
        <ele>865.369538</ele>
        <time>2022-04-25T13:34:27.870Z</time>
      </trkpt>
      <trkpt lat="41.67056" lon="20.64115">
        <ele>865.582568</ele>
        <time>2022-04-25T13:34:29.858Z</time>
      </trkpt>
      <trkpt lat="41.6705" lon="20.64096">
        <ele>865.818857</ele>
        <time>2022-04-25T13:34:31.892Z</time>
      </trkpt>
      <trkpt lat="41.67043" lon="20.64077">
        <ele>866.112944</ele>
        <time>2022-04-25T13:34:33.925Z</time>
      </trkpt>
      <trkpt lat="41.67037" lon="20.64058">
        <ele>866.513246</ele>
        <time>2022-04-25T13:34:35.880Z</time>
      </trkpt>
      <trkpt lat="41.67035" lon="20.64043">
        <ele>866.805204</ele>
        <time>2022-04-25T13:34:37.872Z</time>
      </trkpt>
      <trkpt lat="41.67033" lon="20.64029">
        <ele>867.073697</ele>
        <time>2022-04-25T13:34:39.865Z</time>
      </trkpt>
      <trkpt lat="41.67031" lon="20.64015">
        <ele>867.334281</ele>
        <time>2022-04-25T13:34:41.858Z</time>
      </trkpt>
      <trkpt lat="41.67028" lon="20.64001">
        <ele>867.624236</ele>
        <time>2022-04-25T13:34:43.876Z</time>
      </trkpt>
      <trkpt lat="41.67025" lon="20.63986">
        <ele>867.902577</ele>
        <time>2022-04-25T13:34:45.868Z</time>
      </trkpt>
      <trkpt lat="41.67022" lon="20.63971">
        <ele>868.197467</ele>
        <time>2022-04-25T13:34:47.881Z</time>
      </trkpt>
      <trkpt lat="41.67021" lon="20.63956">
        <ele>868.490779</ele>
        <time>2022-04-25T13:34:49.896Z</time>
      </trkpt>
      <trkpt lat="41.67018" lon="20.63942">
        <ele>868.77344</ele>
        <time>2022-04-25T13:34:51.864Z</time>
      </trkpt>
      <trkpt lat="41.67014" lon="20.63928">
        <ele>869.051577</ele>
        <time>2022-04-25T13:34:53.865Z</time>
      </trkpt>
      <trkpt lat="41.67007" lon="20.63911">
        <ele>869.414378</ele>
        <time>2022-04-25T13:34:55.916Z</time>
      </trkpt>
      <trkpt lat="41.66998" lon="20.63897">
        <ele>869.782296</ele>
        <time>2022-04-25T13:34:57.877Z</time>
      </trkpt>
      <trkpt lat="41.66989" lon="20.63884">
        <ele>870.122567</ele>
        <time>2022-04-25T13:34:59.889Z</time>
      </trkpt>
      <trkpt lat="41.66977" lon="20.6387">
        <ele>870.520498</ele>
        <time>2022-04-25T13:35:01.933Z</time>
      </trkpt>
      <trkpt lat="41.66967" lon="20.63857">
        <ele>870.150092</ele>
        <time>2022-04-25T13:35:03.867Z</time>
      </trkpt>
      <trkpt lat="41.66958" lon="20.63845">
        <ele>869.724013</ele>
        <time>2022-04-25T13:35:05.886Z</time>
      </trkpt>
      <trkpt lat="41.6695" lon="20.63835">
        <ele>869.342121</ele>
        <time>2022-04-25T13:35:07.869Z</time>
      </trkpt>
      <trkpt lat="41.66943" lon="20.63825">
        <ele>868.992729</ele>
        <time>2022-04-25T13:35:09.869Z</time>
      </trkpt>
      <trkpt lat="41.66937" lon="20.63815">
        <ele>868.658079</ele>
        <time>2022-04-25T13:35:11.880Z</time>
      </trkpt>
      <trkpt lat="41.66929" lon="20.63806">
        <ele>868.312279</ele>
        <time>2022-04-25T13:35:13.890Z</time>
      </trkpt>
      <trkpt lat="41.66922" lon="20.63796">
        <ele>867.965402</ele>
        <time>2022-04-25T13:35:15.868Z</time>
      </trkpt>
      <trkpt lat="41.66915" lon="20.63787">
        <ele>867.614282</ele>
        <time>2022-04-25T13:35:17.869Z</time>
      </trkpt>
      <trkpt lat="41.66908" lon="20.63776">
        <ele>867.261269</ele>
        <time>2022-04-25T13:35:19.870Z</time>
      </trkpt>
      <trkpt lat="41.66901" lon="20.63766">
        <ele>866.905431</ele>
        <time>2022-04-25T13:35:21.862Z</time>
      </trkpt>
      <trkpt lat="41.66893" lon="20.63756">
        <ele>866.545825</ele>
        <time>2022-04-25T13:35:23.933Z</time>
      </trkpt>
      <trkpt lat="41.66887" lon="20.63746">
        <ele>866.188652</ele>
        <time>2022-04-25T13:35:25.866Z</time>
      </trkpt>
      <trkpt lat="41.6688" lon="20.63734">
        <ele>865.817658</ele>
        <time>2022-04-25T13:35:27.856Z</time>
      </trkpt>
      <trkpt lat="41.66873" lon="20.63722">
        <ele>865.428164</ele>
        <time>2022-04-25T13:35:29.874Z</time>
      </trkpt>
      <trkpt lat="41.66865" lon="20.63711">
        <ele>865.034099</ele>
        <time>2022-04-25T13:35:31.858Z</time>
      </trkpt>
      <trkpt lat="41.66858" lon="20.63699">
        <ele>864.65476</ele>
        <time>2022-04-25T13:35:33.873Z</time>
      </trkpt>
      <trkpt lat="41.66851" lon="20.63688">
        <ele>863.924464</ele>
        <time>2022-04-25T13:35:35.873Z</time>
      </trkpt>
      <trkpt lat="41.66843" lon="20.63678">
        <ele>862.679046</ele>
        <time>2022-04-25T13:35:37.874Z</time>
      </trkpt>
      <trkpt lat="41.66835" lon="20.63668">
        <ele>861.389856</ele>
        <time>2022-04-25T13:35:39.877Z</time>
      </trkpt>
      <trkpt lat="41.66828" lon="20.63658">
        <ele>860.203902</ele>
        <time>2022-04-25T13:35:41.869Z</time>
      </trkpt>
      <trkpt lat="41.6682" lon="20.63647">
        <ele>858.915774</ele>
        <time>2022-04-25T13:35:43.859Z</time>
      </trkpt>
      <trkpt lat="41.66813" lon="20.63637">
        <ele>857.699091</ele>
        <time>2022-04-25T13:35:45.932Z</time>
      </trkpt>
      <trkpt lat="41.66806" lon="20.63627">
        <ele>856.52723</ele>
        <time>2022-04-25T13:35:47.873Z</time>
      </trkpt>
      <trkpt lat="41.66798" lon="20.63618">
        <ele>855.278501</ele>
        <time>2022-04-25T13:35:49.874Z</time>
      </trkpt>
      <trkpt lat="41.66791" lon="20.63608">
        <ele>854.080348</ele>
        <time>2022-04-25T13:35:51.918Z</time>
      </trkpt>
      <trkpt lat="41.66784" lon="20.63599">
        <ele>852.909832</ele>
        <time>2022-04-25T13:35:53.862Z</time>
      </trkpt>
      <trkpt lat="41.66777" lon="20.63589">
        <ele>851.709313</ele>
        <time>2022-04-25T13:35:55.888Z</time>
      </trkpt>
      <trkpt lat="41.66771" lon="20.63578">
        <ele>850.600029</ele>
        <time>2022-04-25T13:35:57.885Z</time>
      </trkpt>
      <trkpt lat="41.66767" lon="20.63567">
        <ele>849.493097</ele>
        <time>2022-04-25T13:35:59.870Z</time>
      </trkpt>
      <trkpt lat="41.66765" lon="20.63551">
        <ele>848.132919</ele>
        <time>2022-04-25T13:36:01.872Z</time>
      </trkpt>
      <trkpt lat="41.66764" lon="20.63535">
        <ele>846.703802</ele>
        <time>2022-04-25T13:36:03.872Z</time>
      </trkpt>
      <trkpt lat="41.66764" lon="20.63519">
        <ele>845.328867</ele>
        <time>2022-04-25T13:36:05.866Z</time>
      </trkpt>
      <trkpt lat="41.66764" lon="20.63504">
        <ele>843.961442</ele>
        <time>2022-04-25T13:36:07.880Z</time>
      </trkpt>
      <trkpt lat="41.66765" lon="20.63487">
        <ele>843.128004</ele>
        <time>2022-04-25T13:36:09.873Z</time>
      </trkpt>
      <trkpt lat="41.66766" lon="20.63472">
        <ele>842.651725</ele>
        <time>2022-04-25T13:36:11.859Z</time>
      </trkpt>
      <trkpt lat="41.66764" lon="20.6346">
        <ele>842.24089</ele>
        <time>2022-04-25T13:36:13.918Z</time>
      </trkpt>
      <trkpt lat="41.66759" lon="20.63446">
        <ele>841.76915</ele>
        <time>2022-04-25T13:36:15.885Z</time>
      </trkpt>
      <trkpt lat="41.66753" lon="20.63433">
        <ele>841.282717</ele>
        <time>2022-04-25T13:36:17.910Z</time>
      </trkpt>
      <trkpt lat="41.66744" lon="20.6342">
        <ele>840.728763</ele>
        <time>2022-04-25T13:36:19.876Z</time>
      </trkpt>
      <trkpt lat="41.66733" lon="20.63407">
        <ele>840.11981</ele>
        <time>2022-04-25T13:36:21.911Z</time>
      </trkpt>
      <trkpt lat="41.66723" lon="20.63392">
        <ele>839.470367</ele>
        <time>2022-04-25T13:36:23.874Z</time>
      </trkpt>
      <trkpt lat="41.66713" lon="20.63377">
        <ele>838.840243</ele>
        <time>2022-04-25T13:36:25.867Z</time>
      </trkpt>
      <trkpt lat="41.66705" lon="20.63358">
        <ele>838.140583</ele>
        <time>2022-04-25T13:36:27.940Z</time>
      </trkpt>
      <trkpt lat="41.66702" lon="20.63345">
        <ele>837.723721</ele>
        <time>2022-04-25T13:36:28.881Z</time>
      </trkpt>
      <trkpt lat="41.66699" lon="20.63331">
        <ele>837.254284</ele>
        <time>2022-04-25T13:36:29.889Z</time>
      </trkpt>
      <trkpt lat="41.66695" lon="20.63315">
        <ele>836.738921</ele>
        <time>2022-04-25T13:36:30.872Z</time>
      </trkpt>
      <trkpt lat="41.66693" lon="20.63299">
        <ele>836.232159</ele>
        <time>2022-04-25T13:36:31.871Z</time>
      </trkpt>
      <trkpt lat="41.66692" lon="20.63284">
        <ele>835.647316</ele>
        <time>2022-04-25T13:36:32.861Z</time>
      </trkpt>
      <trkpt lat="41.66692" lon="20.63269">
        <ele>834.800156</ele>
        <time>2022-04-25T13:36:33.861Z</time>
      </trkpt>
      <trkpt lat="41.66692" lon="20.63253">
        <ele>833.952996</ele>
        <time>2022-04-25T13:36:34.881Z</time>
      </trkpt>
      <trkpt lat="41.66692" lon="20.63238">
        <ele>833.094741</ele>
        <time>2022-04-25T13:36:35.869Z</time>
      </trkpt>
      <trkpt lat="41.66693" lon="20.63222">
        <ele>832.23954</ele>
        <time>2022-04-25T13:36:36.872Z</time>
      </trkpt>
      <trkpt lat="41.66694" lon="20.63208">
        <ele>831.439748</ele>
        <time>2022-04-25T13:36:37.874Z</time>
      </trkpt>
      <trkpt lat="41.66694" lon="20.63194">
        <ele>830.70249</ele>
        <time>2022-04-25T13:36:38.932Z</time>
      </trkpt>
      <trkpt lat="41.66694" lon="20.63181">
        <ele>829.981731</ele>
        <time>2022-04-25T13:36:39.861Z</time>
      </trkpt>
      <trkpt lat="41.66694" lon="20.63168">
        <ele>829.250083</ele>
        <time>2022-04-25T13:36:40.859Z</time>
      </trkpt>
      <trkpt lat="41.66694" lon="20.63154">
        <ele>828.501826</ele>
        <time>2022-04-25T13:36:41.861Z</time>
      </trkpt>
      <trkpt lat="41.66694" lon="20.63141">
        <ele>827.759214</ele>
        <time>2022-04-25T13:36:42.895Z</time>
      </trkpt>
      <trkpt lat="41.66695" lon="20.63128">
        <ele>827.043765</ele>
        <time>2022-04-25T13:36:43.873Z</time>
      </trkpt>
      <trkpt lat="41.66695" lon="20.63115">
        <ele>826.339505</ele>
        <time>2022-04-25T13:36:44.916Z</time>
      </trkpt>
      <trkpt lat="41.66695" lon="20.63103">
        <ele>825.657402</ele>
        <time>2022-04-25T13:36:45.859Z</time>
      </trkpt>
      <trkpt lat="41.66693" lon="20.6308">
        <ele>824.388019</ele>
        <time>2022-04-25T13:36:47.879Z</time>
      </trkpt>
      <trkpt lat="41.66689" lon="20.63058">
        <ele>823.140745</ele>
        <time>2022-04-25T13:36:49.914Z</time>
      </trkpt>
      <trkpt lat="41.66683" lon="20.63035">
        <ele>822.318338</ele>
        <time>2022-04-25T13:36:51.874Z</time>
      </trkpt>
      <trkpt lat="41.66677" lon="20.63015">
        <ele>821.835638</ele>
        <time>2022-04-25T13:36:53.875Z</time>
      </trkpt>
      <trkpt lat="41.66673" lon="20.62997">
        <ele>821.423501</ele>
        <time>2022-04-25T13:36:55.890Z</time>
      </trkpt>
      <trkpt lat="41.66672" lon="20.62977">
        <ele>820.980128</ele>
        <time>2022-04-25T13:36:57.870Z</time>
      </trkpt>
      <trkpt lat="41.66672" lon="20.62955">
        <ele>820.510093</ele>
        <time>2022-04-25T13:36:59.865Z</time>
      </trkpt>
      <trkpt lat="41.66671" lon="20.62933">
        <ele>820.028956</ele>
        <time>2022-04-25T13:37:01.877Z</time>
      </trkpt>
      <trkpt lat="41.6667" lon="20.6291">
        <ele>819.521701</ele>
        <time>2022-04-25T13:37:03.865Z</time>
      </trkpt>
      <trkpt lat="41.6667" lon="20.62886">
        <ele>818.996513</ele>
        <time>2022-04-25T13:37:05.877Z</time>
      </trkpt>
      <trkpt lat="41.66669" lon="20.62874">
        <ele>818.727549</ele>
        <time>2022-04-25T13:37:06.870Z</time>
      </trkpt>
      <trkpt lat="41.66669" lon="20.62861">
        <ele>818.458331</ele>
        <time>2022-04-25T13:37:07.881Z</time>
      </trkpt>
      <trkpt lat="41.66668" lon="20.62849">
        <ele>818.192848</ele>
        <time>2022-04-25T13:37:08.879Z</time>
      </trkpt>
      <trkpt lat="41.66666" lon="20.62826">
        <ele>817.678097</ele>
        <time>2022-04-25T13:37:10.861Z</time>
      </trkpt>
      <trkpt lat="41.66665" lon="20.62805">
        <ele>817.262482</ele>
        <time>2022-04-25T13:37:12.861Z</time>
      </trkpt>
      <trkpt lat="41.66661" lon="20.62786">
        <ele>816.972198</ele>
        <time>2022-04-25T13:37:14.875Z</time>
      </trkpt>
      <trkpt lat="41.66654" lon="20.62764">
        <ele>816.604902</ele>
        <time>2022-04-25T13:37:16.858Z</time>
      </trkpt>
      <trkpt lat="41.6665" lon="20.62743">
        <ele>816.267679</ele>
        <time>2022-04-25T13:37:18.861Z</time>
      </trkpt>
      <trkpt lat="41.66648" lon="20.62723">
        <ele>815.94943</ele>
        <time>2022-04-25T13:37:20.863Z</time>
      </trkpt>
      <trkpt lat="41.66647" lon="20.62703">
        <ele>815.650617</ele>
        <time>2022-04-25T13:37:22.873Z</time>
      </trkpt>
      <trkpt lat="41.66647" lon="20.62683">
        <ele>815.342572</ele>
        <time>2022-04-25T13:37:24.883Z</time>
      </trkpt>
      <trkpt lat="41.66644" lon="20.62664">
        <ele>815.033106</ele>
        <time>2022-04-25T13:37:26.880Z</time>
      </trkpt>
      <trkpt lat="41.66638" lon="20.62644">
        <ele>814.706253</ele>
        <time>2022-04-25T13:37:28.923Z</time>
      </trkpt>
      <trkpt lat="41.66634" lon="20.62626">
        <ele>814.424802</ele>
        <time>2022-04-25T13:37:30.909Z</time>
      </trkpt>
      <trkpt lat="41.66632" lon="20.62609">
        <ele>814.144354</ele>
        <time>2022-04-25T13:37:32.877Z</time>
      </trkpt>
      <trkpt lat="41.66629" lon="20.62592">
        <ele>813.881433</ele>
        <time>2022-04-25T13:37:34.925Z</time>
      </trkpt>
      <trkpt lat="41.66629" lon="20.62576">
        <ele>813.726891</ele>
        <time>2022-04-25T13:37:36.890Z</time>
      </trkpt>
      <trkpt lat="41.66627" lon="20.62561">
        <ele>814.367984</ele>
        <time>2022-04-25T13:37:38.890Z</time>
      </trkpt>
      <trkpt lat="41.66625" lon="20.62547">
        <ele>815.007338</ele>
        <time>2022-04-25T13:37:40.894Z</time>
      </trkpt>
      <trkpt lat="41.66625" lon="20.62532">
        <ele>815.620034</ele>
        <time>2022-04-25T13:37:42.897Z</time>
      </trkpt>
      <trkpt lat="41.66623" lon="20.6252">
        <ele>816.168086</ele>
        <time>2022-04-25T13:37:44.891Z</time>
      </trkpt>
      <trkpt lat="41.66622" lon="20.62507">
        <ele>816.69419</ele>
        <time>2022-04-25T13:37:46.883Z</time>
      </trkpt>
      <trkpt lat="41.66621" lon="20.62495">
        <ele>817.218591</ele>
        <time>2022-04-25T13:37:48.874Z</time>
      </trkpt>
      <trkpt lat="41.66619" lon="20.6248">
        <ele>817.895308</ele>
        <time>2022-04-25T13:37:51.887Z</time>
      </trkpt>
      <trkpt lat="41.66616" lon="20.62466">
        <ele>818.520573</ele>
        <time>2022-04-25T13:37:54.894Z</time>
      </trkpt>
      <trkpt lat="41.66612" lon="20.62452">
        <ele>819.151391</ele>
        <time>2022-04-25T13:37:57.865Z</time>
      </trkpt>
      <trkpt lat="41.66608" lon="20.6244">
        <ele>819.721836</ele>
        <time>2022-04-25T13:38:00.913Z</time>
      </trkpt>
      <trkpt lat="41.66604" lon="20.62424">
        <ele>820.415029</ele>
        <time>2022-04-25T13:38:04.938Z</time>
      </trkpt>
      <trkpt lat="41.666" lon="20.62409">
        <ele>821.116559</ele>
        <time>2022-04-25T13:38:07.885Z</time>
      </trkpt>
      <trkpt lat="41.66595" lon="20.62394">
        <ele>821.827126</ele>
        <time>2022-04-25T13:38:10.890Z</time>
      </trkpt>
      <trkpt lat="41.66591" lon="20.62383">
        <ele>822.357923</ele>
        <time>2022-04-25T13:38:12.921Z</time>
      </trkpt>
      <trkpt lat="41.66585" lon="20.6237">
        <ele>822.97677</ele>
        <time>2022-04-25T13:38:14.880Z</time>
      </trkpt>
      <trkpt lat="41.66579" lon="20.62358">
        <ele>823.610865</ele>
        <time>2022-04-25T13:38:16.887Z</time>
      </trkpt>
      <trkpt lat="41.66573" lon="20.62348">
        <ele>823.95411</ele>
        <time>2022-04-25T13:38:18.878Z</time>
      </trkpt>
      <trkpt lat="41.66568" lon="20.62337">
        <ele>823.945497</ele>
        <time>2022-04-25T13:38:20.907Z</time>
      </trkpt>
      <trkpt lat="41.66563" lon="20.62327">
        <ele>823.936591</ele>
        <time>2022-04-25T13:38:22.875Z</time>
      </trkpt>
      <trkpt lat="41.66558" lon="20.62316">
        <ele>823.92747</ele>
        <time>2022-04-25T13:38:24.921Z</time>
      </trkpt>
      <trkpt lat="41.66552" lon="20.623">
        <ele>823.914529</ele>
        <time>2022-04-25T13:38:27.876Z</time>
      </trkpt>
      <trkpt lat="41.66548" lon="20.62287">
        <ele>823.904922</ele>
        <time>2022-04-25T13:38:29.914Z</time>
      </trkpt>
      <trkpt lat="41.66545" lon="20.62275">
        <ele>823.895512</ele>
        <time>2022-04-25T13:38:31.879Z</time>
      </trkpt>
      <trkpt lat="41.66541" lon="20.62261">
        <ele>823.885271</ele>
        <time>2022-04-25T13:38:33.870Z</time>
      </trkpt>
      <trkpt lat="41.66537" lon="20.62249">
        <ele>823.87572</ele>
        <time>2022-04-25T13:38:35.873Z</time>
      </trkpt>
      <trkpt lat="41.66532" lon="20.62237">
        <ele>823.865778</ele>
        <time>2022-04-25T13:38:37.872Z</time>
      </trkpt>
      <trkpt lat="41.66527" lon="20.62224">
        <ele>823.855523</ele>
        <time>2022-04-25T13:38:39.890Z</time>
      </trkpt>
      <trkpt lat="41.66521" lon="20.62212">
        <ele>823.84469</ele>
        <time>2022-04-25T13:38:41.893Z</time>
      </trkpt>
      <trkpt lat="41.66512" lon="20.62198">
        <ele>823.831835</ele>
        <time>2022-04-25T13:38:43.881Z</time>
      </trkpt>
      <trkpt lat="41.66504" lon="20.62184">
        <ele>823.819005</ele>
        <time>2022-04-25T13:38:45.886Z</time>
      </trkpt>
      <trkpt lat="41.66496" lon="20.62169">
        <ele>823.805593</ele>
        <time>2022-04-25T13:38:47.872Z</time>
      </trkpt>
      <trkpt lat="41.6649" lon="20.62152">
        <ele>823.792305</ele>
        <time>2022-04-25T13:38:49.888Z</time>
      </trkpt>
      <trkpt lat="41.66485" lon="20.62134">
        <ele>823.444535</ele>
        <time>2022-04-25T13:38:51.885Z</time>
      </trkpt>
      <trkpt lat="41.6648" lon="20.62116">
        <ele>822.789169</ele>
        <time>2022-04-25T13:38:53.863Z</time>
      </trkpt>
      <trkpt lat="41.66476" lon="20.62098">
        <ele>822.108632</ele>
        <time>2022-04-25T13:38:55.879Z</time>
      </trkpt>
      <trkpt lat="41.66476" lon="20.62076">
        <ele>821.340762</ele>
        <time>2022-04-25T13:38:57.869Z</time>
      </trkpt>
      <trkpt lat="41.66479" lon="20.62054">
        <ele>820.557662</ele>
        <time>2022-04-25T13:38:59.892Z</time>
      </trkpt>
      <trkpt lat="41.66485" lon="20.62036">
        <ele>819.879232</ele>
        <time>2022-04-25T13:39:01.882Z</time>
      </trkpt>
      <trkpt lat="41.6649" lon="20.6202">
        <ele>819.272566</ele>
        <time>2022-04-25T13:39:03.918Z</time>
      </trkpt>
      <trkpt lat="41.66496" lon="20.62006">
        <ele>818.711905</ele>
        <time>2022-04-25T13:39:05.879Z</time>
      </trkpt>
      <trkpt lat="41.66502" lon="20.61994">
        <ele>818.205021</ele>
        <time>2022-04-25T13:39:07.873Z</time>
      </trkpt>
      <trkpt lat="41.66507" lon="20.6198">
        <ele>817.66424</ele>
        <time>2022-04-25T13:39:09.872Z</time>
      </trkpt>
      <trkpt lat="41.66512" lon="20.61967">
        <ele>817.159085</ele>
        <time>2022-04-25T13:39:11.873Z</time>
      </trkpt>
      <trkpt lat="41.66516" lon="20.61955">
        <ele>816.669555</ele>
        <time>2022-04-25T13:39:13.910Z</time>
      </trkpt>
      <trkpt lat="41.6652" lon="20.61943">
        <ele>816.209474</ele>
        <time>2022-04-25T13:39:15.889Z</time>
      </trkpt>
      <trkpt lat="41.66523" lon="20.61929">
        <ele>815.695322</ele>
        <time>2022-04-25T13:39:17.873Z</time>
      </trkpt>
      <trkpt lat="41.66528" lon="20.61917">
        <ele>815.416783</ele>
        <time>2022-04-25T13:39:19.882Z</time>
      </trkpt>
      <trkpt lat="41.66533" lon="20.61905">
        <ele>815.661381</ele>
        <time>2022-04-25T13:39:21.874Z</time>
      </trkpt>
      <trkpt lat="41.66535" lon="20.61892">
        <ele>815.903373</ele>
        <time>2022-04-25T13:39:23.886Z</time>
      </trkpt>
      <trkpt lat="41.66539" lon="20.61878">
        <ele>816.183128</ele>
        <time>2022-04-25T13:39:26.894Z</time>
      </trkpt>
      <trkpt lat="41.66545" lon="20.61867">
        <ele>816.423672</ele>
        <time>2022-04-25T13:39:29.885Z</time>
      </trkpt>
      <trkpt lat="41.66551" lon="20.61855">
        <ele>816.69056</ele>
        <time>2022-04-25T13:39:32.898Z</time>
      </trkpt>
      <trkpt lat="41.66555" lon="20.61843">
        <ele>816.938421</ele>
        <time>2022-04-25T13:39:35.914Z</time>
      </trkpt>
      <trkpt lat="41.6656" lon="20.61827">
        <ele>817.241504</ele>
        <time>2022-04-25T13:39:38.874Z</time>
      </trkpt>
      <trkpt lat="41.66564" lon="20.61816">
        <ele>817.477959</ele>
        <time>2022-04-25T13:39:40.887Z</time>
      </trkpt>
      <trkpt lat="41.66568" lon="20.61804">
        <ele>817.716526</ele>
        <time>2022-04-25T13:39:42.882Z</time>
      </trkpt>
      <trkpt lat="41.66571" lon="20.61792">
        <ele>817.949862</ele>
        <time>2022-04-25T13:39:44.920Z</time>
      </trkpt>
      <trkpt lat="41.66574" lon="20.61779">
        <ele>818.190156</ele>
        <time>2022-04-25T13:39:46.881Z</time>
      </trkpt>
      <trkpt lat="41.66577" lon="20.61768">
        <ele>818.411565</ele>
        <time>2022-04-25T13:39:48.884Z</time>
      </trkpt>
      <trkpt lat="41.66583" lon="20.61753">
        <ele>818.723589</ele>
        <time>2022-04-25T13:39:51.891Z</time>
      </trkpt>
      <trkpt lat="41.66586" lon="20.61741">
        <ele>818.945864</ele>
        <time>2022-04-25T13:39:53.885Z</time>
      </trkpt>
      <trkpt lat="41.66588" lon="20.6173">
        <ele>819.169495</ele>
        <time>2022-04-25T13:39:55.884Z</time>
      </trkpt>
      <trkpt lat="41.6659" lon="20.61717">
        <ele>819.411426</ele>
        <time>2022-04-25T13:39:57.869Z</time>
      </trkpt>
      <trkpt lat="41.66594" lon="20.61702">
        <ele>819.710133</ele>
        <time>2022-04-25T13:40:00.899Z</time>
      </trkpt>
      <trkpt lat="41.66599" lon="20.61687">
        <ele>819.933437</ele>
        <time>2022-04-25T13:40:03.867Z</time>
      </trkpt>
      <trkpt lat="41.66604" lon="20.6167">
        <ele>820.167416</ele>
        <time>2022-04-25T13:40:06.871Z</time>
      </trkpt>
      <trkpt lat="41.66608" lon="20.61659">
        <ele>820.326319</ele>
        <time>2022-04-25T13:40:08.901Z</time>
      </trkpt>
      <trkpt lat="41.66612" lon="20.61648">
        <ele>820.489984</ele>
        <time>2022-04-25T13:40:10.892Z</time>
      </trkpt>
      <trkpt lat="41.66616" lon="20.61637">
        <ele>820.650658</ele>
        <time>2022-04-25T13:40:12.886Z</time>
      </trkpt>
      <trkpt lat="41.6662" lon="20.61625">
        <ele>820.816437</ele>
        <time>2022-04-25T13:40:14.875Z</time>
      </trkpt>
      <trkpt lat="41.66626" lon="20.6161">
        <ele>821.043443</ele>
        <time>2022-04-25T13:40:17.890Z</time>
      </trkpt>
      <trkpt lat="41.66632" lon="20.61595">
        <ele>821.2611</ele>
        <time>2022-04-25T13:40:20.918Z</time>
      </trkpt>
      <trkpt lat="41.66636" lon="20.61578">
        <ele>821.485366</ele>
        <time>2022-04-25T13:40:23.873Z</time>
      </trkpt>
      <trkpt lat="41.66641" lon="20.61567">
        <ele>821.662018</ele>
        <time>2022-04-25T13:40:25.878Z</time>
      </trkpt>
      <trkpt lat="41.66648" lon="20.61556">
        <ele>821.837859</ele>
        <time>2022-04-25T13:40:27.859Z</time>
      </trkpt>
      <trkpt lat="41.66655" lon="20.61546">
        <ele>822.020814</ele>
        <time>2022-04-25T13:40:29.900Z</time>
      </trkpt>
      <trkpt lat="41.66664" lon="20.61537">
        <ele>822.210985</ele>
        <time>2022-04-25T13:40:31.931Z</time>
      </trkpt>
      <trkpt lat="41.66672" lon="20.61526">
        <ele>822.412766</ele>
        <time>2022-04-25T13:40:33.892Z</time>
      </trkpt>
      <trkpt lat="41.66681" lon="20.61516">
        <ele>822.613762</ele>
        <time>2022-04-25T13:40:35.867Z</time>
      </trkpt>
      <trkpt lat="41.66691" lon="20.61505">
        <ele>822.839745</ele>
        <time>2022-04-25T13:40:37.885Z</time>
      </trkpt>
      <trkpt lat="41.667" lon="20.61492">
        <ele>822.474893</ele>
        <time>2022-04-25T13:40:39.900Z</time>
      </trkpt>
      <trkpt lat="41.6671" lon="20.61481">
        <ele>821.927669</ele>
        <time>2022-04-25T13:40:41.873Z</time>
      </trkpt>
      <trkpt lat="41.66721" lon="20.61471">
        <ele>821.379438</ele>
        <time>2022-04-25T13:40:43.889Z</time>
      </trkpt>
      <trkpt lat="41.66732" lon="20.6146">
        <ele>820.792967</ele>
        <time>2022-04-25T13:40:45.898Z</time>
      </trkpt>
      <trkpt lat="41.66742" lon="20.61446">
        <ele>820.196572</ele>
        <time>2022-04-25T13:40:47.918Z</time>
      </trkpt>
      <trkpt lat="41.66749" lon="20.6143">
        <ele>819.626359</ele>
        <time>2022-04-25T13:40:49.888Z</time>
      </trkpt>
      <trkpt lat="41.66754" lon="20.61413">
        <ele>819.055474</ele>
        <time>2022-04-25T13:40:51.879Z</time>
      </trkpt>
      <trkpt lat="41.66759" lon="20.61395">
        <ele>818.443328</ele>
        <time>2022-04-25T13:40:53.880Z</time>
      </trkpt>
      <trkpt lat="41.66765" lon="20.61376">
        <ele>817.826798</ele>
        <time>2022-04-25T13:40:55.884Z</time>
      </trkpt>
      <trkpt lat="41.66769" lon="20.61358">
        <ele>817.235183</ele>
        <time>2022-04-25T13:40:57.878Z</time>
      </trkpt>
      <trkpt lat="41.66774" lon="20.61342">
        <ele>816.677145</ele>
        <time>2022-04-25T13:40:59.892Z</time>
      </trkpt>
      <trkpt lat="41.66778" lon="20.61325">
        <ele>816.123746</ele>
        <time>2022-04-25T13:41:01.877Z</time>
      </trkpt>
      <trkpt lat="41.66781" lon="20.61309">
        <ele>815.601964</ele>
        <time>2022-04-25T13:41:03.866Z</time>
      </trkpt>
      <trkpt lat="41.66783" lon="20.61292">
        <ele>815.023252</ele>
        <time>2022-04-25T13:41:05.894Z</time>
      </trkpt>
      <trkpt lat="41.66785" lon="20.61276">
        <ele>814.387</ele>
        <time>2022-04-25T13:41:07.873Z</time>
      </trkpt>
      <trkpt lat="41.66785" lon="20.61259">
        <ele>813.769312</ele>
        <time>2022-04-25T13:41:09.918Z</time>
      </trkpt>
      <trkpt lat="41.66784" lon="20.61243">
        <ele>813.162482</ele>
        <time>2022-04-25T13:41:11.869Z</time>
      </trkpt>
      <trkpt lat="41.66785" lon="20.61226">
        <ele>812.498644</ele>
        <time>2022-04-25T13:41:13.885Z</time>
      </trkpt>
      <trkpt lat="41.66785" lon="20.6121">
        <ele>811.884577</ele>
        <time>2022-04-25T13:41:15.888Z</time>
      </trkpt>
      <trkpt lat="41.66785" lon="20.61194">
        <ele>811.29324</ele>
        <time>2022-04-25T13:41:17.881Z</time>
      </trkpt>
      <trkpt lat="41.66786" lon="20.61177">
        <ele>810.662896</ele>
        <time>2022-04-25T13:41:19.914Z</time>
      </trkpt>
      <trkpt lat="41.66787" lon="20.61162">
        <ele>810.069582</ele>
        <time>2022-04-25T13:41:21.870Z</time>
      </trkpt>
      <trkpt lat="41.66788" lon="20.61148">
        <ele>809.530321</ele>
        <time>2022-04-25T13:41:23.876Z</time>
      </trkpt>
      <trkpt lat="41.66789" lon="20.61134">
        <ele>808.99826</ele>
        <time>2022-04-25T13:41:25.883Z</time>
      </trkpt>
      <trkpt lat="41.6679" lon="20.6112">
        <ele>808.490611</ele>
        <time>2022-04-25T13:41:27.875Z</time>
      </trkpt>
      <trkpt lat="41.66791" lon="20.61106">
        <ele>807.959122</ele>
        <time>2022-04-25T13:41:29.892Z</time>
      </trkpt>
      <trkpt lat="41.66793" lon="20.61092">
        <ele>807.419927</ele>
        <time>2022-04-25T13:41:31.891Z</time>
      </trkpt>
      <trkpt lat="41.66795" lon="20.6108">
        <ele>806.955143</ele>
        <time>2022-04-25T13:41:33.876Z</time>
      </trkpt>
      <trkpt lat="41.66797" lon="20.61063">
        <ele>806.299267</ele>
        <time>2022-04-25T13:41:36.878Z</time>
      </trkpt>
      <trkpt lat="41.66798" lon="20.61047">
        <ele>807.305054</ele>
        <time>2022-04-25T13:41:39.881Z</time>
      </trkpt>
      <trkpt lat="41.66797" lon="20.61032">
        <ele>808.317344</ele>
        <time>2022-04-25T13:41:42.882Z</time>
      </trkpt>
      <trkpt lat="41.66796" lon="20.61017">
        <ele>809.303178</ele>
        <time>2022-04-25T13:41:45.889Z</time>
      </trkpt>
      <trkpt lat="41.66794" lon="20.61004">
        <ele>810.193749</ele>
        <time>2022-04-25T13:41:48.876Z</time>
      </trkpt>
      <trkpt lat="41.66792" lon="20.60989">
        <ele>811.196099</ele>
        <time>2022-04-25T13:41:52.907Z</time>
      </trkpt>
      <trkpt lat="41.6679" lon="20.60973">
        <ele>812.274184</ele>
        <time>2022-04-25T13:41:56.871Z</time>
      </trkpt>
      <trkpt lat="41.66788" lon="20.6096">
        <ele>813.190551</ele>
        <time>2022-04-25T13:42:00.943Z</time>
      </trkpt>
      <trkpt lat="41.66784" lon="20.60947">
        <ele>814.09087</ele>
        <time>2022-04-25T13:42:03.885Z</time>
      </trkpt>
      <trkpt lat="41.66779" lon="20.60934">
        <ele>815.120252</ele>
        <time>2022-04-25T13:42:06.891Z</time>
      </trkpt>
      <trkpt lat="41.66774" lon="20.6092">
        <ele>816.147588</ele>
        <time>2022-04-25T13:42:09.890Z</time>
      </trkpt>
      <trkpt lat="41.66768" lon="20.60907">
        <ele>817.168613</ele>
        <time>2022-04-25T13:42:12.900Z</time>
      </trkpt>
      <trkpt lat="41.66762" lon="20.60893">
        <ele>818.237736</ele>
        <time>2022-04-25T13:42:16.880Z</time>
      </trkpt>
      <trkpt lat="41.66757" lon="20.60881">
        <ele>819.16357</ele>
        <time>2022-04-25T13:42:19.872Z</time>
      </trkpt>
      <trkpt lat="41.66751" lon="20.6087">
        <ele>820.129515</ele>
        <time>2022-04-25T13:42:22.899Z</time>
      </trkpt>
      <trkpt lat="41.66744" lon="20.60858">
        <ele>821.09546</ele>
        <time>2022-04-25T13:42:25.878Z</time>
      </trkpt>
      <trkpt lat="41.66738" lon="20.60847">
        <ele>822.013082</ele>
        <time>2022-04-25T13:42:28.872Z</time>
      </trkpt>
      <trkpt lat="41.66733" lon="20.60834">
        <ele>821.977537</ele>
        <time>2022-04-25T13:42:31.880Z</time>
      </trkpt>
      <trkpt lat="41.66726" lon="20.60821">
        <ele>821.291142</ele>
        <time>2022-04-25T13:42:34.888Z</time>
      </trkpt>
      <trkpt lat="41.6672" lon="20.60807">
        <ele>820.575816</ele>
        <time>2022-04-25T13:42:37.872Z</time>
      </trkpt>
      <trkpt lat="41.66715" lon="20.60794">
        <ele>819.901043</ele>
        <time>2022-04-25T13:42:40.922Z</time>
      </trkpt>
      <trkpt lat="41.6671" lon="20.60779">
        <ele>819.184671</ele>
        <time>2022-04-25T13:42:43.882Z</time>
      </trkpt>
      <trkpt lat="41.66705" lon="20.60766">
        <ele>818.512707</ele>
        <time>2022-04-25T13:42:46.894Z</time>
      </trkpt>
      <trkpt lat="41.66699" lon="20.60752">
        <ele>817.80895</ele>
        <time>2022-04-25T13:42:49.865Z</time>
      </trkpt>
      <trkpt lat="41.66693" lon="20.60737">
        <ele>817.056026</ele>
        <time>2022-04-25T13:42:52.879Z</time>
      </trkpt>
      <trkpt lat="41.66689" lon="20.60722">
        <ele>816.3198</ele>
        <time>2022-04-25T13:42:55.926Z</time>
      </trkpt>
      <trkpt lat="41.66684" lon="20.60705">
        <ele>815.52972</ele>
        <time>2022-04-25T13:42:58.878Z</time>
      </trkpt>
      <trkpt lat="41.6668" lon="20.60694">
        <ele>814.998437</ele>
        <time>2022-04-25T13:43:00.892Z</time>
      </trkpt>
      <trkpt lat="41.66677" lon="20.6068">
        <ele>814.346876</ele>
        <time>2022-04-25T13:43:03.883Z</time>
      </trkpt>
      <trkpt lat="41.66673" lon="20.60666">
        <ele>813.67109</ele>
        <time>2022-04-25T13:43:06.896Z</time>
      </trkpt>
      <trkpt lat="41.6667" lon="20.60649">
        <ele>812.918229</ele>
        <time>2022-04-25T13:43:09.875Z</time>
      </trkpt>
      <trkpt lat="41.66667" lon="20.60633">
        <ele>812.18382</ele>
        <time>2022-04-25T13:43:12.893Z</time>
      </trkpt>
      <trkpt lat="41.66664" lon="20.60618">
        <ele>811.444425</ele>
        <time>2022-04-25T13:43:15.927Z</time>
      </trkpt>
      <trkpt lat="41.6666" lon="20.60603">
        <ele>810.571804</ele>
        <time>2022-04-25T13:43:18.881Z</time>
      </trkpt>
      <trkpt lat="41.66658" lon="20.60585">
        <ele>809.610245</ele>
        <time>2022-04-25T13:43:21.892Z</time>
      </trkpt>
      <trkpt lat="41.66656" lon="20.60571">
        <ele>808.883357</ele>
        <time>2022-04-25T13:43:23.872Z</time>
      </trkpt>
      <trkpt lat="41.66655" lon="20.60559">
        <ele>808.214394</ele>
        <time>2022-04-25T13:43:25.870Z</time>
      </trkpt>
      <trkpt lat="41.66653" lon="20.60542">
        <ele>807.29904</ele>
        <time>2022-04-25T13:43:28.886Z</time>
      </trkpt>
      <trkpt lat="41.66652" lon="20.60529">
        <ele>806.622136</ele>
        <time>2022-04-25T13:43:30.917Z</time>
      </trkpt>
      <trkpt lat="41.66651" lon="20.60511">
        <ele>805.684684</ele>
        <time>2022-04-25T13:43:33.889Z</time>
      </trkpt>
      <trkpt lat="41.66649" lon="20.60499">
        <ele>805.02552</ele>
        <time>2022-04-25T13:43:35.884Z</time>
      </trkpt>
      <trkpt lat="41.66646" lon="20.60482">
        <ele>804.07735</ele>
        <time>2022-04-25T13:43:38.893Z</time>
      </trkpt>
      <trkpt lat="41.66643" lon="20.6047">
        <ele>803.428264</ele>
        <time>2022-04-25T13:43:40.881Z</time>
      </trkpt>
      <trkpt lat="41.6664" lon="20.60458">
        <ele>802.764778</ele>
        <time>2022-04-25T13:43:42.894Z</time>
      </trkpt>
      <trkpt lat="41.66637" lon="20.60446">
        <ele>802.062045</ele>
        <time>2022-04-25T13:43:44.892Z</time>
      </trkpt>
      <trkpt lat="41.66634" lon="20.60434">
        <ele>801.40636</ele>
        <time>2022-04-25T13:43:46.894Z</time>
      </trkpt>
      <trkpt lat="41.66631" lon="20.60422">
        <ele>800.743457</ele>
        <time>2022-04-25T13:43:48.894Z</time>
      </trkpt>
      <trkpt lat="41.66626" lon="20.6041">
        <ele>799.996544</ele>
        <time>2022-04-25T13:43:50.893Z</time>
      </trkpt>
      <trkpt lat="41.66619" lon="20.60398">
        <ele>799.232157</ele>
        <time>2022-04-25T13:43:52.918Z</time>
      </trkpt>
      <trkpt lat="41.66613" lon="20.60387">
        <ele>798.786942</ele>
        <time>2022-04-25T13:43:54.878Z</time>
      </trkpt>
      <trkpt lat="41.66606" lon="20.60378">
        <ele>798.576828</ele>
        <time>2022-04-25T13:43:56.867Z</time>
      </trkpt>
      <trkpt lat="41.666" lon="20.60368">
        <ele>798.37153</ele>
        <time>2022-04-25T13:43:58.920Z</time>
      </trkpt>
      <trkpt lat="41.66594" lon="20.60358">
        <ele>798.156821</ele>
        <time>2022-04-25T13:44:00.906Z</time>
      </trkpt>
      <trkpt lat="41.66589" lon="20.60346">
        <ele>797.942588</ele>
        <time>2022-04-25T13:44:02.884Z</time>
      </trkpt>
      <trkpt lat="41.66585" lon="20.60334">
        <ele>797.724748</ele>
        <time>2022-04-25T13:44:04.880Z</time>
      </trkpt>
      <trkpt lat="41.66582" lon="20.60321">
        <ele>797.509223</ele>
        <time>2022-04-25T13:44:06.884Z</time>
      </trkpt>
      <trkpt lat="41.66578" lon="20.6031">
        <ele>797.305918</ele>
        <time>2022-04-25T13:44:08.901Z</time>
      </trkpt>
      <trkpt lat="41.66573" lon="20.60295">
        <ele>797.046955</ele>
        <time>2022-04-25T13:44:10.893Z</time>
      </trkpt>
      <trkpt lat="41.66568" lon="20.60278">
        <ele>796.739146</ele>
        <time>2022-04-25T13:44:12.869Z</time>
      </trkpt>
      <trkpt lat="41.66565" lon="20.6026">
        <ele>796.446173</ele>
        <time>2022-04-25T13:44:14.889Z</time>
      </trkpt>
      <trkpt lat="41.66562" lon="20.60243">
        <ele>796.173648</ele>
        <time>2022-04-25T13:44:16.883Z</time>
      </trkpt>
      <trkpt lat="41.6656" lon="20.60227">
        <ele>795.898286</ele>
        <time>2022-04-25T13:44:18.894Z</time>
      </trkpt>
      <trkpt lat="41.66557" lon="20.6021">
        <ele>795.620897</ele>
        <time>2022-04-25T13:44:20.896Z</time>
      </trkpt>
      <trkpt lat="41.66555" lon="20.60193">
        <ele>795.342758</ele>
        <time>2022-04-25T13:44:22.885Z</time>
      </trkpt>
      <trkpt lat="41.66553" lon="20.60177">
        <ele>795.078692</ele>
        <time>2022-04-25T13:44:24.886Z</time>
      </trkpt>
      <trkpt lat="41.66551" lon="20.60161">
        <ele>795.378879</ele>
        <time>2022-04-25T13:44:26.886Z</time>
      </trkpt>
      <trkpt lat="41.66548" lon="20.60145">
        <ele>795.843562</ele>
        <time>2022-04-25T13:44:28.882Z</time>
      </trkpt>
      <trkpt lat="41.66546" lon="20.60129">
        <ele>796.307377</ele>
        <time>2022-04-25T13:44:30.893Z</time>
      </trkpt>
      <trkpt lat="41.66542" lon="20.60112">
        <ele>796.820912</ele>
        <time>2022-04-25T13:44:33.913Z</time>
      </trkpt>
      <trkpt lat="41.66533" lon="20.60101">
        <ele>797.276532</ele>
        <time>2022-04-25T13:44:35.880Z</time>
      </trkpt>
      <trkpt lat="41.66522" lon="20.6009">
        <ele>797.78006</ele>
        <time>2022-04-25T13:44:37.902Z</time>
      </trkpt>
      <trkpt lat="41.66512" lon="20.60078">
        <ele>798.305609</ele>
        <time>2022-04-25T13:44:39.914Z</time>
      </trkpt>
      <trkpt lat="41.66502" lon="20.60066">
        <ele>798.811742</ele>
        <time>2022-04-25T13:44:41.866Z</time>
      </trkpt>
      <trkpt lat="41.66495" lon="20.60052">
        <ele>799.284697</ele>
        <time>2022-04-25T13:44:43.905Z</time>
      </trkpt>
      <trkpt lat="41.66489" lon="20.60037">
        <ele>799.761912</ele>
        <time>2022-04-25T13:44:45.881Z</time>
      </trkpt>
      <trkpt lat="41.66484" lon="20.60021">
        <ele>800.263429</ele>
        <time>2022-04-25T13:44:47.872Z</time>
      </trkpt>
      <trkpt lat="41.66476" lon="20.60009">
        <ele>800.721032</ele>
        <time>2022-04-25T13:44:49.883Z</time>
      </trkpt>
      <trkpt lat="41.66468" lon="20.59996">
        <ele>801.204941</ele>
        <time>2022-04-25T13:44:51.902Z</time>
      </trkpt>
      <trkpt lat="41.66459" lon="20.59988">
        <ele>801.618522</ele>
        <time>2022-04-25T13:44:53.890Z</time>
      </trkpt>
      <trkpt lat="41.66447" lon="20.59986">
        <ele>801.840495</ele>
        <time>2022-04-25T13:44:56.924Z</time>
      </trkpt>
      <trkpt lat="41.66435" lon="20.59986">
        <ele>801.809015</ele>
        <time>2022-04-25T13:44:59.873Z</time>
      </trkpt>
      <trkpt lat="41.66422" lon="20.59985">
        <ele>801.774799</ele>
        <time>2022-04-25T13:45:02.886Z</time>
      </trkpt>
      <trkpt lat="41.66408" lon="20.59985">
        <ele>801.739092</ele>
        <time>2022-04-25T13:45:05.885Z</time>
      </trkpt>
      <trkpt lat="41.66396" lon="20.59984">
        <ele>801.707831</ele>
        <time>2022-04-25T13:45:08.898Z</time>
      </trkpt>
      <trkpt lat="41.66384" lon="20.59983">
        <ele>801.673929</ele>
        <time>2022-04-25T13:45:11.882Z</time>
      </trkpt>
      <trkpt lat="41.66374" lon="20.59982">
        <ele>801.649303</ele>
        <time>2022-04-25T13:45:13.925Z</time>
      </trkpt>
      <trkpt lat="41.66362" lon="20.59982">
        <ele>801.615433</ele>
        <time>2022-04-25T13:45:16.903Z</time>
      </trkpt>
      <trkpt lat="41.66348" lon="20.59982">
        <ele>801.580519</ele>
        <time>2022-04-25T13:45:19.882Z</time>
      </trkpt>
      <trkpt lat="41.66336" lon="20.59981">
        <ele>801.547122</ele>
        <time>2022-04-25T13:45:22.877Z</time>
      </trkpt>
      <trkpt lat="41.66326" lon="20.59982">
        <ele>801.521055</ele>
        <time>2022-04-25T13:45:24.909Z</time>
      </trkpt>
      <trkpt lat="41.66315" lon="20.59985">
        <ele>801.491346</ele>
        <time>2022-04-25T13:45:26.896Z</time>
      </trkpt>
      <trkpt lat="41.66304" lon="20.59986">
        <ele>801.463348</ele>
        <time>2022-04-25T13:45:28.867Z</time>
      </trkpt>
      <trkpt lat="41.66294" lon="20.59987">
        <ele>801.437073</ele>
        <time>2022-04-25T13:45:30.868Z</time>
      </trkpt>
      <trkpt lat="41.66285" lon="20.59989">
        <ele>801.410721</ele>
        <time>2022-04-25T13:45:32.884Z</time>
      </trkpt>
      <trkpt lat="41.66275" lon="20.59991">
        <ele>801.385133</ele>
        <time>2022-04-25T13:45:34.903Z</time>
      </trkpt>
      <trkpt lat="41.66266" lon="20.59993">
        <ele>801.324073</ele>
        <time>2022-04-25T13:45:36.883Z</time>
      </trkpt>
      <trkpt lat="41.66256" lon="20.59995">
        <ele>801.248038</ele>
        <time>2022-04-25T13:45:38.909Z</time>
      </trkpt>
      <trkpt lat="41.66245" lon="20.59997">
        <ele>801.165651</ele>
        <time>2022-04-25T13:45:40.906Z</time>
      </trkpt>
      <trkpt lat="41.66233" lon="20.59999">
        <ele>801.080188</ele>
        <time>2022-04-25T13:45:42.889Z</time>
      </trkpt>
      <trkpt lat="41.6622" lon="20.60002">
        <ele>800.98551</ele>
        <time>2022-04-25T13:45:44.888Z</time>
      </trkpt>
      <trkpt lat="41.66207" lon="20.60005">
        <ele>800.888429</ele>
        <time>2022-04-25T13:45:46.904Z</time>
      </trkpt>
      <trkpt lat="41.66195" lon="20.60008">
        <ele>800.795679</ele>
        <time>2022-04-25T13:45:48.888Z</time>
      </trkpt>
      <trkpt lat="41.66182" lon="20.6001">
        <ele>800.698705</ele>
        <time>2022-04-25T13:45:50.870Z</time>
      </trkpt>
      <trkpt lat="41.66169" lon="20.60009">
        <ele>800.600585</ele>
        <time>2022-04-25T13:45:52.893Z</time>
      </trkpt>
      <trkpt lat="41.66156" lon="20.60007">
        <ele>800.504006</ele>
        <time>2022-04-25T13:45:54.889Z</time>
      </trkpt>
      <trkpt lat="41.6614" lon="20.60006">
        <ele>800.391787</ele>
        <time>2022-04-25T13:45:56.898Z</time>
      </trkpt>
      <trkpt lat="41.66125" lon="20.60003">
        <ele>800.276113</ele>
        <time>2022-04-25T13:45:58.888Z</time>
      </trkpt>
      <trkpt lat="41.66109" lon="20.59999">
        <ele>800.160082</ele>
        <time>2022-04-25T13:46:00.889Z</time>
      </trkpt>
      <trkpt lat="41.66095" lon="20.59994">
        <ele>800.030866</ele>
        <time>2022-04-25T13:46:02.897Z</time>
      </trkpt>
      <trkpt lat="41.6608" lon="20.5999">
        <ele>799.669553</ele>
        <time>2022-04-25T13:46:04.893Z</time>
      </trkpt>
      <trkpt lat="41.66068" lon="20.59986">
        <ele>799.346588</ele>
        <time>2022-04-25T13:46:06.869Z</time>
      </trkpt>
      <trkpt lat="41.66056" lon="20.59981">
        <ele>799.032692</ele>
        <time>2022-04-25T13:46:08.877Z</time>
      </trkpt>
      <trkpt lat="41.66043" lon="20.59976">
        <ele>798.70496</ele>
        <time>2022-04-25T13:46:10.893Z</time>
      </trkpt>
      <trkpt lat="41.6603" lon="20.59972">
        <ele>798.375317</ele>
        <time>2022-04-25T13:46:12.877Z</time>
      </trkpt>
      <trkpt lat="41.66017" lon="20.59966">
        <ele>798.040946</ele>
        <time>2022-04-25T13:46:14.905Z</time>
      </trkpt>
      <trkpt lat="41.66004" lon="20.59963">
        <ele>797.697811</ele>
        <time>2022-04-25T13:46:16.883Z</time>
      </trkpt>
      <trkpt lat="41.65991" lon="20.59959">
        <ele>797.367239</ele>
        <time>2022-04-25T13:46:18.887Z</time>
      </trkpt>
      <trkpt lat="41.65978" lon="20.59955">
        <ele>797.04031</ele>
        <time>2022-04-25T13:46:20.897Z</time>
      </trkpt>
      <trkpt lat="41.65965" lon="20.59953">
        <ele>796.710054</ele>
        <time>2022-04-25T13:46:22.899Z</time>
      </trkpt>
      <trkpt lat="41.65952" lon="20.59951">
        <ele>796.375599</ele>
        <time>2022-04-25T13:46:24.883Z</time>
      </trkpt>
      <trkpt lat="41.65938" lon="20.59952">
        <ele>796.031951</ele>
        <time>2022-04-25T13:46:26.858Z</time>
      </trkpt>
      <trkpt lat="41.65925" lon="20.59953">
        <ele>795.702878</ele>
        <time>2022-04-25T13:46:28.867Z</time>
      </trkpt>
      <trkpt lat="41.65911" lon="20.59956">
        <ele>795.169875</ele>
        <time>2022-04-25T13:46:30.874Z</time>
      </trkpt>
      <trkpt lat="41.65899" lon="20.59959">
        <ele>794.549835</ele>
        <time>2022-04-25T13:46:32.884Z</time>
      </trkpt>
      <trkpt lat="41.65888" lon="20.59962">
        <ele>794.004616</ele>
        <time>2022-04-25T13:46:34.884Z</time>
      </trkpt>
      <trkpt lat="41.65878" lon="20.59967">
        <ele>793.479955</ele>
        <time>2022-04-25T13:46:36.885Z</time>
      </trkpt>
      <trkpt lat="41.65868" lon="20.59971">
        <ele>792.95559</ele>
        <time>2022-04-25T13:46:38.885Z</time>
      </trkpt>
      <trkpt lat="41.65857" lon="20.59976">
        <ele>792.414808</ele>
        <time>2022-04-25T13:46:40.873Z</time>
      </trkpt>
      <trkpt lat="41.65847" lon="20.5998">
        <ele>791.884682</ele>
        <time>2022-04-25T13:46:42.901Z</time>
      </trkpt>
      <trkpt lat="41.65836" lon="20.59982">
        <ele>791.356132</ele>
        <time>2022-04-25T13:46:44.890Z</time>
      </trkpt>
      <trkpt lat="41.65825" lon="20.59984">
        <ele>790.825996</ele>
        <time>2022-04-25T13:46:46.892Z</time>
      </trkpt>
      <trkpt lat="41.65815" lon="20.59985">
        <ele>790.350701</ele>
        <time>2022-04-25T13:46:48.880Z</time>
      </trkpt>
      <trkpt lat="41.65806" lon="20.59985">
        <ele>789.885951</ele>
        <time>2022-04-25T13:46:50.885Z</time>
      </trkpt>
      <trkpt lat="41.65796" lon="20.59986">
        <ele>789.401214</ele>
        <time>2022-04-25T13:46:52.893Z</time>
      </trkpt>
      <trkpt lat="41.65786" lon="20.59986">
        <ele>788.917852</ele>
        <time>2022-04-25T13:46:54.890Z</time>
      </trkpt>
      <trkpt lat="41.65776" lon="20.59987">
        <ele>788.408768</ele>
        <time>2022-04-25T13:46:56.884Z</time>
      </trkpt>
      <trkpt lat="41.65766" lon="20.5999">
        <ele>787.927796</ele>
        <time>2022-04-25T13:46:58.884Z</time>
      </trkpt>
      <trkpt lat="41.65756" lon="20.59991">
        <ele>787.427866</ele>
        <time>2022-04-25T13:47:00.913Z</time>
      </trkpt>
      <trkpt lat="41.65745" lon="20.59991">
        <ele>786.895666</ele>
        <time>2022-04-25T13:47:02.895Z</time>
      </trkpt>
      <trkpt lat="41.65732" lon="20.59992">
        <ele>786.378121</ele>
        <time>2022-04-25T13:47:04.882Z</time>
      </trkpt>
      <trkpt lat="41.65719" lon="20.59994">
        <ele>785.857112</ele>
        <time>2022-04-25T13:47:06.874Z</time>
      </trkpt>
      <trkpt lat="41.65705" lon="20.59993">
        <ele>785.318636</ele>
        <time>2022-04-25T13:47:08.873Z</time>
      </trkpt>
      <trkpt lat="41.6569" lon="20.59992">
        <ele>784.771834</ele>
        <time>2022-04-25T13:47:10.885Z</time>
      </trkpt>
      <trkpt lat="41.65675" lon="20.59993">
        <ele>784.187157</ele>
        <time>2022-04-25T13:47:12.903Z</time>
      </trkpt>
      <trkpt lat="41.6566" lon="20.59993">
        <ele>783.617942</ele>
        <time>2022-04-25T13:47:14.885Z</time>
      </trkpt>
      <trkpt lat="41.65645" lon="20.59993">
        <ele>783.025915</ele>
        <time>2022-04-25T13:47:16.860Z</time>
      </trkpt>
      <trkpt lat="41.65629" lon="20.59993">
        <ele>782.403081</ele>
        <time>2022-04-25T13:47:18.862Z</time>
      </trkpt>
      <trkpt lat="41.65613" lon="20.59995">
        <ele>781.80828</ele>
        <time>2022-04-25T13:47:20.900Z</time>
      </trkpt>
      <trkpt lat="41.65597" lon="20.59996">
        <ele>781.192651</ele>
        <time>2022-04-25T13:47:22.915Z</time>
      </trkpt>
      <trkpt lat="41.65581" lon="20.59995">
        <ele>780.558026</ele>
        <time>2022-04-25T13:47:24.893Z</time>
      </trkpt>
      <trkpt lat="41.65564" lon="20.59995">
        <ele>779.900427</ele>
        <time>2022-04-25T13:47:26.909Z</time>
      </trkpt>
      <trkpt lat="41.65547" lon="20.59994">
        <ele>779.208982</ele>
        <time>2022-04-25T13:47:28.879Z</time>
      </trkpt>
      <trkpt lat="41.6553" lon="20.59994">
        <ele>778.537034</ele>
        <time>2022-04-25T13:47:30.883Z</time>
      </trkpt>
      <trkpt lat="41.65514" lon="20.59996">
        <ele>777.892091</ele>
        <time>2022-04-25T13:47:32.918Z</time>
      </trkpt>
      <trkpt lat="41.65498" lon="20.59996">
        <ele>777.240224</ele>
        <time>2022-04-25T13:47:34.911Z</time>
      </trkpt>
      <trkpt lat="41.65482" lon="20.59996">
        <ele>776.620491</ele>
        <time>2022-04-25T13:47:36.875Z</time>
      </trkpt>
      <trkpt lat="41.65468" lon="20.59996">
        <ele>776.029008</ele>
        <time>2022-04-25T13:47:38.916Z</time>
      </trkpt>
      <trkpt lat="41.65453" lon="20.59997">
        <ele>775.461187</ele>
        <time>2022-04-25T13:47:40.891Z</time>
      </trkpt>
      <trkpt lat="41.6544" lon="20.59999">
        <ele>774.924638</ele>
        <time>2022-04-25T13:47:42.917Z</time>
      </trkpt>
      <trkpt lat="41.65427" lon="20.6">
        <ele>774.407391</ele>
        <time>2022-04-25T13:47:44.889Z</time>
      </trkpt>
      <trkpt lat="41.65416" lon="20.60003">
        <ele>773.935123</ele>
        <time>2022-04-25T13:47:46.873Z</time>
      </trkpt>
      <trkpt lat="41.65404" lon="20.60004">
        <ele>773.464916</ele>
        <time>2022-04-25T13:47:48.913Z</time>
      </trkpt>
      <trkpt lat="41.65392" lon="20.60005">
        <ele>772.989679</ele>
        <time>2022-04-25T13:47:50.902Z</time>
      </trkpt>
      <trkpt lat="41.6538" lon="20.60006">
        <ele>772.551382</ele>
        <time>2022-04-25T13:47:52.897Z</time>
      </trkpt>
      <trkpt lat="41.6537" lon="20.60007">
        <ele>772.254551</ele>
        <time>2022-04-25T13:47:54.875Z</time>
      </trkpt>
      <trkpt lat="41.6536" lon="20.60006">
        <ele>771.983527</ele>
        <time>2022-04-25T13:47:56.873Z</time>
      </trkpt>
      <trkpt lat="41.6535" lon="20.60006">
        <ele>771.701255</ele>
        <time>2022-04-25T13:47:58.879Z</time>
      </trkpt>
      <trkpt lat="41.65341" lon="20.60007">
        <ele>771.4301</ele>
        <time>2022-04-25T13:48:00.891Z</time>
      </trkpt>
      <trkpt lat="41.65331" lon="20.60006">
        <ele>771.158854</ele>
        <time>2022-04-25T13:48:02.872Z</time>
      </trkpt>
      <trkpt lat="41.65321" lon="20.60006">
        <ele>770.879405</ele>
        <time>2022-04-25T13:48:04.885Z</time>
      </trkpt>
      <trkpt lat="41.65312" lon="20.60005">
        <ele>770.60793</ele>
        <time>2022-04-25T13:48:06.891Z</time>
      </trkpt>
      <trkpt lat="41.65299" lon="20.60003">
        <ele>770.241157</ele>
        <time>2022-04-25T13:48:09.892Z</time>
      </trkpt>
      <trkpt lat="41.65285" lon="20.60003">
        <ele>769.840371</ele>
        <time>2022-04-25T13:48:12.869Z</time>
      </trkpt>
      <trkpt lat="41.65274" lon="20.60004">
        <ele>769.542336</ele>
        <time>2022-04-25T13:48:14.882Z</time>
      </trkpt>
      <trkpt lat="41.65264" lon="20.60006">
        <ele>769.24888</ele>
        <time>2022-04-25T13:48:16.877Z</time>
      </trkpt>
      <trkpt lat="41.65254" lon="20.60009">
        <ele>768.965142</ele>
        <time>2022-04-25T13:48:18.901Z</time>
      </trkpt>
      <trkpt lat="41.65244" lon="20.60013">
        <ele>768.664685</ele>
        <time>2022-04-25T13:48:20.875Z</time>
      </trkpt>
      <trkpt lat="41.65234" lon="20.60018">
        <ele>768.379194</ele>
        <time>2022-04-25T13:48:22.878Z</time>
      </trkpt>
      <trkpt lat="41.65225" lon="20.60022">
        <ele>768.090683</ele>
        <time>2022-04-25T13:48:24.887Z</time>
      </trkpt>
      <trkpt lat="41.65215" lon="20.60028">
        <ele>767.783951</ele>
        <time>2022-04-25T13:48:26.867Z</time>
      </trkpt>
      <trkpt lat="41.65205" lon="20.60034">
        <ele>767.590431</ele>
        <time>2022-04-25T13:48:28.888Z</time>
      </trkpt>
      <trkpt lat="41.65195" lon="20.60041">
        <ele>767.65989</ele>
        <time>2022-04-25T13:48:30.924Z</time>
      </trkpt>
      <trkpt lat="41.65185" lon="20.60047">
        <ele>767.724143</ele>
        <time>2022-04-25T13:48:32.880Z</time>
      </trkpt>
      <trkpt lat="41.65176" lon="20.60052">
        <ele>767.786565</ele>
        <time>2022-04-25T13:48:34.849Z</time>
      </trkpt>
      <trkpt lat="41.65167" lon="20.60057">
        <ele>767.841936</ele>
        <time>2022-04-25T13:48:36.850Z</time>
      </trkpt>
      <trkpt lat="41.65157" lon="20.60061">
        <ele>767.903058</ele>
        <time>2022-04-25T13:48:38.857Z</time>
      </trkpt>
      <trkpt lat="41.65147" lon="20.60067">
        <ele>767.969755</ele>
        <time>2022-04-25T13:48:40.847Z</time>
      </trkpt>
      <trkpt lat="41.65136" lon="20.60073">
        <ele>768.041766</ele>
        <time>2022-04-25T13:48:42.857Z</time>
      </trkpt>
      <trkpt lat="41.65125" lon="20.60078">
        <ele>768.11467</ele>
        <time>2022-04-25T13:48:44.873Z</time>
      </trkpt>
      <trkpt lat="41.65114" lon="20.60083">
        <ele>768.186303</ele>
        <time>2022-04-25T13:48:46.886Z</time>
      </trkpt>
      <trkpt lat="41.65104" lon="20.60088">
        <ele>768.252603</ele>
        <time>2022-04-25T13:48:48.902Z</time>
      </trkpt>
      <trkpt lat="41.65092" lon="20.60093">
        <ele>768.325272</ele>
        <time>2022-04-25T13:48:50.873Z</time>
      </trkpt>
      <trkpt lat="41.6508" lon="20.60099">
        <ele>768.403127</ele>
        <time>2022-04-25T13:48:52.883Z</time>
      </trkpt>
      <trkpt lat="41.65066" lon="20.60106">
        <ele>768.491667</ele>
        <time>2022-04-25T13:48:54.872Z</time>
      </trkpt>
      <trkpt lat="41.65052" lon="20.60113">
        <ele>768.585951</ele>
        <time>2022-04-25T13:48:56.898Z</time>
      </trkpt>
      <trkpt lat="41.65039" lon="20.60119">
        <ele>768.670734</ele>
        <time>2022-04-25T13:48:58.899Z</time>
      </trkpt>
      <trkpt lat="41.65027" lon="20.60124">
        <ele>768.83485</ele>
        <time>2022-04-25T13:49:00.898Z</time>
      </trkpt>
      <trkpt lat="41.65016" lon="20.60128">
        <ele>768.975762</ele>
        <time>2022-04-25T13:49:02.879Z</time>
      </trkpt>
      <trkpt lat="41.65006" lon="20.6013">
        <ele>769.110135</ele>
        <time>2022-04-25T13:49:04.858Z</time>
      </trkpt>
      <trkpt lat="41.64996" lon="20.60133">
        <ele>769.244014</ele>
        <time>2022-04-25T13:49:06.888Z</time>
      </trkpt>
      <trkpt lat="41.64986" lon="20.60136">
        <ele>769.37398</ele>
        <time>2022-04-25T13:49:08.887Z</time>
      </trkpt>
      <trkpt lat="41.64972" lon="20.60138">
        <ele>769.541785</ele>
        <time>2022-04-25T13:49:11.896Z</time>
      </trkpt>
      <trkpt lat="41.6496" lon="20.6014">
        <ele>769.705942</ele>
        <time>2022-04-25T13:49:14.880Z</time>
      </trkpt>
      <trkpt lat="41.64947" lon="20.60142">
        <ele>769.871585</ele>
        <time>2022-04-25T13:49:17.884Z</time>
      </trkpt>
      <trkpt lat="41.64937" lon="20.60143">
        <ele>769.989081</ele>
        <time>2022-04-25T13:49:19.880Z</time>
      </trkpt>
      <trkpt lat="41.64928" lon="20.60145">
        <ele>770.104392</ele>
        <time>2022-04-25T13:49:21.885Z</time>
      </trkpt>
      <trkpt lat="41.64916" lon="20.60145">
        <ele>770.267061</ele>
        <time>2022-04-25T13:49:24.885Z</time>
      </trkpt>
      <trkpt lat="41.64902" lon="20.60145">
        <ele>770.435983</ele>
        <time>2022-04-25T13:49:27.872Z</time>
      </trkpt>
      <trkpt lat="41.64889" lon="20.60144">
        <ele>770.601789</ele>
        <time>2022-04-25T13:49:30.874Z</time>
      </trkpt>
      <trkpt lat="41.6488" lon="20.60141">
        <ele>770.725654</ele>
        <time>2022-04-25T13:49:32.875Z</time>
      </trkpt>
      <trkpt lat="41.64869" lon="20.60139">
        <ele>770.858779</ele>
        <time>2022-04-25T13:49:34.878Z</time>
      </trkpt>
      <trkpt lat="41.6486" lon="20.60137">
        <ele>771.00797</ele>
        <time>2022-04-25T13:49:36.890Z</time>
      </trkpt>
      <trkpt lat="41.6485" lon="20.60137">
        <ele>771.204172</ele>
        <time>2022-04-25T13:49:38.883Z</time>
      </trkpt>
      <trkpt lat="41.64839" lon="20.60137">
        <ele>771.422414</ele>
        <time>2022-04-25T13:49:40.901Z</time>
      </trkpt>
      <trkpt lat="41.64827" lon="20.60138">
        <ele>771.652634</ele>
        <time>2022-04-25T13:49:42.869Z</time>
      </trkpt>
      <trkpt lat="41.64815" lon="20.60139">
        <ele>771.899086</ele>
        <time>2022-04-25T13:49:44.894Z</time>
      </trkpt>
      <trkpt lat="41.64803" lon="20.60141">
        <ele>772.142169</ele>
        <time>2022-04-25T13:49:46.889Z</time>
      </trkpt>
      <trkpt lat="41.64792" lon="20.60143">
        <ele>772.36326</ele>
        <time>2022-04-25T13:49:48.864Z</time>
      </trkpt>
      <trkpt lat="41.64781" lon="20.60145">
        <ele>772.583421</ele>
        <time>2022-04-25T13:49:50.879Z</time>
      </trkpt>
      <trkpt lat="41.6477" lon="20.60148">
        <ele>772.805561</ele>
        <time>2022-04-25T13:49:52.862Z</time>
      </trkpt>
      <trkpt lat="41.64759" lon="20.60149">
        <ele>773.029098</ele>
        <time>2022-04-25T13:49:54.905Z</time>
      </trkpt>
      <trkpt lat="41.64748" lon="20.6015">
        <ele>773.249057</ele>
        <time>2022-04-25T13:49:56.886Z</time>
      </trkpt>
      <trkpt lat="41.64737" lon="20.60148">
        <ele>773.461862</ele>
        <time>2022-04-25T13:49:58.881Z</time>
      </trkpt>
      <trkpt lat="41.64727" lon="20.60146">
        <ele>773.676088</ele>
        <time>2022-04-25T13:50:00.873Z</time>
      </trkpt>
      <trkpt lat="41.64716" lon="20.60145">
        <ele>773.892746</ele>
        <time>2022-04-25T13:50:02.881Z</time>
      </trkpt>
      <trkpt lat="41.64705" lon="20.60145">
        <ele>774.120676</ele>
        <time>2022-04-25T13:50:04.892Z</time>
      </trkpt>
      <trkpt lat="41.64692" lon="20.60146">
        <ele>774.367232</ele>
        <time>2022-04-25T13:50:06.864Z</time>
      </trkpt>
      <trkpt lat="41.6468" lon="20.60148">
        <ele>774.643648</ele>
        <time>2022-04-25T13:50:08.867Z</time>
      </trkpt>
      <trkpt lat="41.64668" lon="20.60148">
        <ele>775.032208</ele>
        <time>2022-04-25T13:50:10.896Z</time>
      </trkpt>
      <trkpt lat="41.64655" lon="20.60149">
        <ele>775.422043</ele>
        <time>2022-04-25T13:50:12.886Z</time>
      </trkpt>
      <trkpt lat="41.64643" lon="20.60149">
        <ele>775.795238</ele>
        <time>2022-04-25T13:50:14.881Z</time>
      </trkpt>
      <trkpt lat="41.64631" lon="20.60147">
        <ele>776.161694</ele>
        <time>2022-04-25T13:50:16.900Z</time>
      </trkpt>
      <trkpt lat="41.6462" lon="20.60144">
        <ele>776.529005</ele>
        <time>2022-04-25T13:50:18.900Z</time>
      </trkpt>
      <trkpt lat="41.64609" lon="20.6014">
        <ele>776.873321</ele>
        <time>2022-04-25T13:50:20.886Z</time>
      </trkpt>
      <trkpt lat="41.64599" lon="20.60137">
        <ele>777.181917</ele>
        <time>2022-04-25T13:50:22.890Z</time>
      </trkpt>
      <trkpt lat="41.64589" lon="20.60134">
        <ele>777.492409</ele>
        <time>2022-04-25T13:50:24.879Z</time>
      </trkpt>
      <trkpt lat="41.6458" lon="20.60131">
        <ele>777.775967</ele>
        <time>2022-04-25T13:50:26.881Z</time>
      </trkpt>
      <trkpt lat="41.64571" lon="20.60128">
        <ele>778.072893</ele>
        <time>2022-04-25T13:50:28.922Z</time>
      </trkpt>
      <trkpt lat="41.64562" lon="20.60125">
        <ele>778.361321</ele>
        <time>2022-04-25T13:50:30.900Z</time>
      </trkpt>
      <trkpt lat="41.64553" lon="20.60121">
        <ele>778.641298</ele>
        <time>2022-04-25T13:50:32.894Z</time>
      </trkpt>
      <trkpt lat="41.64542" lon="20.60115">
        <ele>779.019855</ele>
        <time>2022-04-25T13:50:35.879Z</time>
      </trkpt>
      <trkpt lat="41.64532" lon="20.60109">
        <ele>779.351191</ele>
        <time>2022-04-25T13:50:38.874Z</time>
      </trkpt>
      <trkpt lat="41.64524" lon="20.60103">
        <ele>779.633572</ele>
        <time>2022-04-25T13:50:41.893Z</time>
      </trkpt>
      <trkpt lat="41.64516" lon="20.60098">
        <ele>779.916386</ele>
        <time>2022-04-25T13:50:44.883Z</time>
      </trkpt>
      <trkpt lat="41.64505" lon="20.60091">
        <ele>780.272563</ele>
        <time>2022-04-25T13:50:48.870Z</time>
      </trkpt>
      <trkpt lat="41.64495" lon="20.60086">
        <ele>780.595022</ele>
        <time>2022-04-25T13:50:52.915Z</time>
      </trkpt>
      <trkpt lat="41.64486" lon="20.60081">
        <ele>780.885315</ele>
        <time>2022-04-25T13:50:56.892Z</time>
      </trkpt>
      <trkpt lat="41.64477" lon="20.60078">
        <ele>781.166131</ele>
        <time>2022-04-25T13:51:00.882Z</time>
      </trkpt>
      <trkpt lat="41.64469" lon="20.60075">
        <ele>781.4372</ele>
        <time>2022-04-25T13:51:04.870Z</time>
      </trkpt>
      <trkpt lat="41.64459" lon="20.60073">
        <ele>781.724738</ele>
        <time>2022-04-25T13:51:09.903Z</time>
      </trkpt>
      <trkpt lat="41.64449" lon="20.60074">
        <ele>782.023586</ele>
        <time>2022-04-25T13:51:14.874Z</time>
      </trkpt>
      <trkpt lat="41.6444" lon="20.60077">
        <ele>782.314081</ele>
        <time>2022-04-25T13:51:19.873Z</time>
      </trkpt>
      <trkpt lat="41.64429" lon="20.60082">
        <ele>782.651998</ele>
        <time>2022-04-25T13:51:24.934Z</time>
      </trkpt>
      <trkpt lat="41.6442" lon="20.60085">
        <ele>782.935325</ele>
        <time>2022-04-25T13:51:28.912Z</time>
      </trkpt>
      <trkpt lat="41.6441" lon="20.60089">
        <ele>783.27196</ele>
        <time>2022-04-25T13:51:32.881Z</time>
      </trkpt>
      <trkpt lat="41.64401" lon="20.60094">
        <ele>783.560032</ele>
        <time>2022-04-25T13:51:35.891Z</time>
      </trkpt>
      <trkpt lat="41.64391" lon="20.601">
        <ele>783.87193</ele>
        <time>2022-04-25T13:51:38.858Z</time>
      </trkpt>
      <trkpt lat="41.64381" lon="20.60106">
        <ele>784.228851</ele>
        <time>2022-04-25T13:51:41.895Z</time>
      </trkpt>
      <trkpt lat="41.64369" lon="20.60114">
        <ele>784.63282</ele>
        <time>2022-04-25T13:51:44.892Z</time>
      </trkpt>
      <trkpt lat="41.6436" lon="20.60121">
        <ele>784.931544</ele>
        <time>2022-04-25T13:51:46.871Z</time>
      </trkpt>
      <trkpt lat="41.6435" lon="20.60128">
        <ele>785.262049</ele>
        <time>2022-04-25T13:51:48.909Z</time>
      </trkpt>
      <trkpt lat="41.6434" lon="20.60135">
        <ele>785.404419</ele>
        <time>2022-04-25T13:51:50.893Z</time>
      </trkpt>
      <trkpt lat="41.6433" lon="20.60143">
        <ele>785.01677</ele>
        <time>2022-04-25T13:51:52.883Z</time>
      </trkpt>
      <trkpt lat="41.64318" lon="20.60151">
        <ele>784.605864</ele>
        <time>2022-04-25T13:51:54.878Z</time>
      </trkpt>
      <trkpt lat="41.64307" lon="20.60158">
        <ele>784.199988</ele>
        <time>2022-04-25T13:51:56.882Z</time>
      </trkpt>
      <trkpt lat="41.64296" lon="20.60166">
        <ele>783.798056</ele>
        <time>2022-04-25T13:51:58.899Z</time>
      </trkpt>
      <trkpt lat="41.64285" lon="20.60173">
        <ele>783.40866</ele>
        <time>2022-04-25T13:52:00.894Z</time>
      </trkpt>
      <trkpt lat="41.64274" lon="20.60181">
        <ele>783.015933</ele>
        <time>2022-04-25T13:52:02.873Z</time>
      </trkpt>
      <trkpt lat="41.64264" lon="20.60187">
        <ele>782.640728</ele>
        <time>2022-04-25T13:52:04.910Z</time>
      </trkpt>
      <trkpt lat="41.64254" lon="20.60194">
        <ele>782.283107</ele>
        <time>2022-04-25T13:52:06.875Z</time>
      </trkpt>
      <trkpt lat="41.64242" lon="20.60202">
        <ele>781.875666</ele>
        <time>2022-04-25T13:52:08.877Z</time>
      </trkpt>
      <trkpt lat="41.6423" lon="20.60211">
        <ele>781.438162</ele>
        <time>2022-04-25T13:52:10.871Z</time>
      </trkpt>
      <trkpt lat="41.64218" lon="20.6022">
        <ele>780.980916</ele>
        <time>2022-04-25T13:52:12.904Z</time>
      </trkpt>
      <trkpt lat="41.64204" lon="20.60226">
        <ele>780.512192</ele>
        <time>2022-04-25T13:52:14.862Z</time>
      </trkpt>
      <trkpt lat="41.64189" lon="20.6023">
        <ele>780.010062</ele>
        <time>2022-04-25T13:52:16.925Z</time>
      </trkpt>
      <trkpt lat="41.64173" lon="20.60233">
        <ele>779.43711</ele>
        <time>2022-04-25T13:52:18.892Z</time>
      </trkpt>
      <trkpt lat="41.64158" lon="20.60236">
        <ele>778.835872</ele>
        <time>2022-04-25T13:52:20.884Z</time>
      </trkpt>
      <trkpt lat="41.64145" lon="20.6024">
        <ele>778.303058</ele>
        <time>2022-04-25T13:52:22.874Z</time>
      </trkpt>
      <trkpt lat="41.64132" lon="20.60245">
        <ele>777.779773</ele>
        <time>2022-04-25T13:52:24.890Z</time>
      </trkpt>
      <trkpt lat="41.64121" lon="20.60251">
        <ele>777.305168</ele>
        <time>2022-04-25T13:52:26.923Z</time>
      </trkpt>
      <trkpt lat="41.6411" lon="20.60258">
        <ele>776.853645</ele>
        <time>2022-04-25T13:52:28.877Z</time>
      </trkpt>
      <trkpt lat="41.641" lon="20.60263">
        <ele>776.399225</ele>
        <time>2022-04-25T13:52:30.877Z</time>
      </trkpt>
      <trkpt lat="41.64089" lon="20.60269">
        <ele>775.942179</ele>
        <time>2022-04-25T13:52:32.917Z</time>
      </trkpt>
      <trkpt lat="41.64077" lon="20.60272">
        <ele>775.476366</ele>
        <time>2022-04-25T13:52:34.886Z</time>
      </trkpt>
      <trkpt lat="41.64064" lon="20.60275">
        <ele>774.939952</ele>
        <time>2022-04-25T13:52:36.882Z</time>
      </trkpt>
      <trkpt lat="41.64049" lon="20.60277">
        <ele>774.344298</ele>
        <time>2022-04-25T13:52:38.891Z</time>
      </trkpt>
      <trkpt lat="41.64033" lon="20.60277">
        <ele>773.727117</ele>
        <time>2022-04-25T13:52:40.869Z</time>
      </trkpt>
      <trkpt lat="41.64019" lon="20.60278">
        <ele>773.145589</ele>
        <time>2022-04-25T13:52:42.894Z</time>
      </trkpt>
      <trkpt lat="41.64005" lon="20.60279">
        <ele>772.612659</ele>
        <time>2022-04-25T13:52:44.893Z</time>
      </trkpt>
      <trkpt lat="41.63992" lon="20.6028">
        <ele>772.188255</ele>
        <time>2022-04-25T13:52:46.889Z</time>
      </trkpt>
      <trkpt lat="41.6398" lon="20.60281">
        <ele>771.786584</ele>
        <time>2022-04-25T13:52:48.904Z</time>
      </trkpt>
      <trkpt lat="41.63968" lon="20.60283">
        <ele>771.406193</ele>
        <time>2022-04-25T13:52:50.908Z</time>
      </trkpt>
      <trkpt lat="41.63957" lon="20.60285">
        <ele>771.051552</ele>
        <time>2022-04-25T13:52:52.879Z</time>
      </trkpt>
      <trkpt lat="41.63947" lon="20.60286">
        <ele>770.726102</ele>
        <time>2022-04-25T13:52:54.914Z</time>
      </trkpt>
      <trkpt lat="41.63937" lon="20.60287">
        <ele>770.420027</ele>
        <time>2022-04-25T13:52:56.897Z</time>
      </trkpt>
      <trkpt lat="41.63924" lon="20.60289">
        <ele>770.004068</ele>
        <time>2022-04-25T13:52:59.878Z</time>
      </trkpt>
      <trkpt lat="41.63912" lon="20.60291">
        <ele>769.61838</ele>
        <time>2022-04-25T13:53:02.906Z</time>
      </trkpt>
      <trkpt lat="41.63899" lon="20.6029">
        <ele>769.188886</ele>
        <time>2022-04-25T13:53:05.883Z</time>
      </trkpt>
      <trkpt lat="41.63885" lon="20.60289">
        <ele>768.755531</ele>
        <time>2022-04-25T13:53:08.878Z</time>
      </trkpt>
      <trkpt lat="41.63876" lon="20.60288">
        <ele>768.462677</ele>
        <time>2022-04-25T13:53:10.913Z</time>
      </trkpt>
      <trkpt lat="41.63867" lon="20.60288">
        <ele>768.167329</ele>
        <time>2022-04-25T13:53:12.885Z</time>
      </trkpt>
      <trkpt lat="41.63858" lon="20.60287">
        <ele>767.862239</ele>
        <time>2022-04-25T13:53:14.891Z</time>
      </trkpt>
      <trkpt lat="41.63848" lon="20.60285">
        <ele>767.552169</ele>
        <time>2022-04-25T13:53:16.880Z</time>
      </trkpt>
      <trkpt lat="41.63838" lon="20.60284">
        <ele>767.229649</ele>
        <time>2022-04-25T13:53:18.887Z</time>
      </trkpt>
      <trkpt lat="41.63828" lon="20.60283">
        <ele>766.902016</ele>
        <time>2022-04-25T13:53:20.883Z</time>
      </trkpt>
      <trkpt lat="41.63818" lon="20.60282">
        <ele>766.766281</ele>
        <time>2022-04-25T13:53:22.885Z</time>
      </trkpt>
      <trkpt lat="41.63808" lon="20.6028">
        <ele>766.663044</ele>
        <time>2022-04-25T13:53:24.907Z</time>
      </trkpt>
      <trkpt lat="41.63797" lon="20.60278">
        <ele>766.558689</ele>
        <time>2022-04-25T13:53:26.876Z</time>
      </trkpt>
      <trkpt lat="41.63787" lon="20.60276">
        <ele>766.454536</ele>
        <time>2022-04-25T13:53:28.890Z</time>
      </trkpt>
      <trkpt lat="41.63778" lon="20.60275">
        <ele>766.357992</ele>
        <time>2022-04-25T13:53:30.864Z</time>
      </trkpt>
      <trkpt lat="41.63769" lon="20.60275">
        <ele>766.262789</ele>
        <time>2022-04-25T13:53:32.902Z</time>
      </trkpt>
      <trkpt lat="41.63759" lon="20.60275">
        <ele>766.167586</ele>
        <time>2022-04-25T13:53:34.887Z</time>
      </trkpt>
      <trkpt lat="41.6375" lon="20.60275">
        <ele>766.07243</ele>
        <time>2022-04-25T13:53:36.881Z</time>
      </trkpt>
      <trkpt lat="41.63741" lon="20.60277">
        <ele>765.977948</ele>
        <time>2022-04-25T13:53:38.871Z</time>
      </trkpt>
      <trkpt lat="41.63732" lon="20.6028">
        <ele>765.880068</ele>
        <time>2022-04-25T13:53:40.899Z</time>
      </trkpt>
      <trkpt lat="41.63722" lon="20.60286">
        <ele>765.773509</ele>
        <time>2022-04-25T13:53:42.899Z</time>
      </trkpt>
      <trkpt lat="41.63714" lon="20.60294">
        <ele>765.666776</ele>
        <time>2022-04-25T13:53:44.909Z</time>
      </trkpt>
      <trkpt lat="41.63706" lon="20.60302">
        <ele>765.564669</ele>
        <time>2022-04-25T13:53:46.874Z</time>
      </trkpt>
      <trkpt lat="41.63698" lon="20.6031">
        <ele>765.464924</ele>
        <time>2022-04-25T13:53:48.917Z</time>
      </trkpt>
      <trkpt lat="41.6369" lon="20.60318">
        <ele>765.369124</ele>
        <time>2022-04-25T13:53:50.881Z</time>
      </trkpt>
      <trkpt lat="41.63683" lon="20.60325">
        <ele>765.272264</ele>
        <time>2022-04-25T13:53:52.869Z</time>
      </trkpt>
      <trkpt lat="41.63676" lon="20.60334">
        <ele>765.174787</ele>
        <time>2022-04-25T13:53:54.899Z</time>
      </trkpt>
      <trkpt lat="41.63669" lon="20.60344">
        <ele>765.07527</ele>
        <time>2022-04-25T13:53:56.881Z</time>
      </trkpt>
      <trkpt lat="41.63663" lon="20.60354">
        <ele>764.909678</ele>
        <time>2022-04-25T13:53:58.880Z</time>
      </trkpt>
      <trkpt lat="41.63656" lon="20.60364">
        <ele>764.655316</ele>
        <time>2022-04-25T13:54:00.913Z</time>
      </trkpt>
      <trkpt lat="41.63648" lon="20.60374">
        <ele>764.38522</ele>
        <time>2022-04-25T13:54:02.892Z</time>
      </trkpt>
      <trkpt lat="41.6364" lon="20.60383">
        <ele>764.116245</ele>
        <time>2022-04-25T13:54:04.859Z</time>
      </trkpt>
      <trkpt lat="41.6363" lon="20.60392">
        <ele>763.834162</ele>
        <time>2022-04-25T13:54:06.869Z</time>
      </trkpt>
      <trkpt lat="41.63621" lon="20.60399">
        <ele>763.56313</ele>
        <time>2022-04-25T13:54:08.884Z</time>
      </trkpt>
      <trkpt lat="41.63612" lon="20.60408">
        <ele>763.289347</ele>
        <time>2022-04-25T13:54:10.932Z</time>
      </trkpt>
      <trkpt lat="41.63602" lon="20.60418">
        <ele>762.984614</ele>
        <time>2022-04-25T13:54:12.894Z</time>
      </trkpt>
      <trkpt lat="41.63592" lon="20.6043">
        <ele>762.655632</ele>
        <time>2022-04-25T13:54:14.894Z</time>
      </trkpt>
      <trkpt lat="41.63583" lon="20.60444">
        <ele>762.316395</ele>
        <time>2022-04-25T13:54:16.878Z</time>
      </trkpt>
      <trkpt lat="41.63574" lon="20.60459">
        <ele>761.951583</ele>
        <time>2022-04-25T13:54:18.881Z</time>
      </trkpt>
      <trkpt lat="41.63564" lon="20.60476">
        <ele>761.559956</ele>
        <time>2022-04-25T13:54:20.873Z</time>
      </trkpt>
      <trkpt lat="41.63554" lon="20.60493">
        <ele>761.149129</ele>
        <time>2022-04-25T13:54:22.881Z</time>
      </trkpt>
      <trkpt lat="41.63544" lon="20.60511">
        <ele>760.733934</ele>
        <time>2022-04-25T13:54:24.895Z</time>
      </trkpt>
      <trkpt lat="41.63533" lon="20.60529">
        <ele>760.500517</ele>
        <time>2022-04-25T13:54:26.860Z</time>
      </trkpt>
      <trkpt lat="41.63522" lon="20.60545">
        <ele>760.39959</ele>
        <time>2022-04-25T13:54:28.885Z</time>
      </trkpt>
      <trkpt lat="41.63511" lon="20.60559">
        <ele>760.301612</ele>
        <time>2022-04-25T13:54:30.891Z</time>
      </trkpt>
      <trkpt lat="41.63498" lon="20.60571">
        <ele>760.203274</ele>
        <time>2022-04-25T13:54:32.932Z</time>
      </trkpt>
      <trkpt lat="41.63486" lon="20.60583">
        <ele>760.10764</ele>
        <time>2022-04-25T13:54:34.897Z</time>
      </trkpt>
      <trkpt lat="41.63474" lon="20.60595">
        <ele>760.016282</ele>
        <time>2022-04-25T13:54:36.874Z</time>
      </trkpt>
      <trkpt lat="41.6346" lon="20.60604">
        <ele>759.923249</ele>
        <time>2022-04-25T13:54:38.882Z</time>
      </trkpt>
      <trkpt lat="41.63447" lon="20.6061">
        <ele>759.833713</ele>
        <time>2022-04-25T13:54:40.894Z</time>
      </trkpt>
      <trkpt lat="41.63434" lon="20.60615">
        <ele>759.748206</ele>
        <time>2022-04-25T13:54:42.884Z</time>
      </trkpt>
      <trkpt lat="41.6342" lon="20.60619">
        <ele>759.663403</ele>
        <time>2022-04-25T13:54:44.889Z</time>
      </trkpt>
      <trkpt lat="41.63407" lon="20.60624">
        <ele>759.578743</ele>
        <time>2022-04-25T13:54:46.905Z</time>
      </trkpt>
      <trkpt lat="41.63394" lon="20.60628">
        <ele>759.494686</ele>
        <time>2022-04-25T13:54:48.903Z</time>
      </trkpt>
      <trkpt lat="41.63382" lon="20.60632">
        <ele>759.441004</ele>
        <time>2022-04-25T13:54:50.893Z</time>
      </trkpt>
      <trkpt lat="41.6337" lon="20.60635">
        <ele>759.446896</ele>
        <time>2022-04-25T13:54:52.895Z</time>
      </trkpt>
      <trkpt lat="41.63358" lon="20.60637">
        <ele>759.452752</ele>
        <time>2022-04-25T13:54:54.880Z</time>
      </trkpt>
      <trkpt lat="41.63347" lon="20.6064">
        <ele>759.458271</ele>
        <time>2022-04-25T13:54:56.864Z</time>
      </trkpt>
      <trkpt lat="41.63336" lon="20.60643">
        <ele>759.463777</ele>
        <time>2022-04-25T13:54:58.872Z</time>
      </trkpt>
      <trkpt lat="41.63326" lon="20.60645">
        <ele>759.468849</ele>
        <time>2022-04-25T13:55:00.879Z</time>
      </trkpt>
      <trkpt lat="41.63316" lon="20.60647">
        <ele>759.473517</ele>
        <time>2022-04-25T13:55:02.882Z</time>
      </trkpt>
      <trkpt lat="41.63307" lon="20.60648">
        <ele>759.478027</ele>
        <time>2022-04-25T13:55:04.874Z</time>
      </trkpt>
      <trkpt lat="41.63298" lon="20.6065">
        <ele>759.48249</ele>
        <time>2022-04-25T13:55:06.890Z</time>
      </trkpt>
      <trkpt lat="41.63289" lon="20.60653">
        <ele>759.486998</ele>
        <time>2022-04-25T13:55:08.884Z</time>
      </trkpt>
      <trkpt lat="41.63281" lon="20.60657">
        <ele>759.491417</ele>
        <time>2022-04-25T13:55:10.897Z</time>
      </trkpt>
      <trkpt lat="41.63272" lon="20.60662">
        <ele>759.496093</ele>
        <time>2022-04-25T13:55:12.888Z</time>
      </trkpt>
      <trkpt lat="41.63262" lon="20.60668">
        <ele>759.501186</ele>
        <time>2022-04-25T13:55:14.891Z</time>
      </trkpt>
      <trkpt lat="41.63252" lon="20.60675">
        <ele>759.50675</ele>
        <time>2022-04-25T13:55:16.871Z</time>
      </trkpt>
      <trkpt lat="41.63241" lon="20.60681">
        <ele>759.512461</ele>
        <time>2022-04-25T13:55:18.892Z</time>
      </trkpt>
      <trkpt lat="41.6323" lon="20.60687">
        <ele>759.518389</ele>
        <time>2022-04-25T13:55:20.890Z</time>
      </trkpt>
      <trkpt lat="41.63218" lon="20.60695">
        <ele>759.524881</ele>
        <time>2022-04-25T13:55:22.910Z</time>
      </trkpt>
      <trkpt lat="41.63206" lon="20.60702">
        <ele>759.198711</ele>
        <time>2022-04-25T13:55:24.879Z</time>
      </trkpt>
      <trkpt lat="41.63193" lon="20.60709">
        <ele>758.697817</ele>
        <time>2022-04-25T13:55:26.886Z</time>
      </trkpt>
      <trkpt lat="41.6318" lon="20.60716">
        <ele>758.175526</ele>
        <time>2022-04-25T13:55:28.886Z</time>
      </trkpt>
      <trkpt lat="41.63166" lon="20.60722">
        <ele>757.65546</ele>
        <time>2022-04-25T13:55:30.862Z</time>
      </trkpt>
      <trkpt lat="41.63152" lon="20.60727">
        <ele>757.136227</ele>
        <time>2022-04-25T13:55:32.877Z</time>
      </trkpt>
      <trkpt lat="41.63138" lon="20.6073">
        <ele>756.638469</ele>
        <time>2022-04-25T13:55:34.880Z</time>
      </trkpt>
      <trkpt lat="41.63126" lon="20.60731">
        <ele>756.183141</ele>
        <time>2022-04-25T13:55:36.872Z</time>
      </trkpt>
      <trkpt lat="41.63115" lon="20.60731">
        <ele>755.78264</ele>
        <time>2022-04-25T13:55:38.899Z</time>
      </trkpt>
      <trkpt lat="41.63104" lon="20.6073">
        <ele>755.391702</ele>
        <time>2022-04-25T13:55:40.886Z</time>
      </trkpt>
      <trkpt lat="41.63093" lon="20.60727">
        <ele>754.982091</ele>
        <time>2022-04-25T13:55:42.920Z</time>
      </trkpt>
      <trkpt lat="41.63083" lon="20.60726">
        <ele>754.634013</ele>
        <time>2022-04-25T13:55:44.883Z</time>
      </trkpt>
      <trkpt lat="41.63074" lon="20.60723">
        <ele>754.302923</ele>
        <time>2022-04-25T13:55:46.894Z</time>
      </trkpt>
      <trkpt lat="41.63066" lon="20.60719">
        <ele>753.971732</ele>
        <time>2022-04-25T13:55:48.890Z</time>
      </trkpt>
      <trkpt lat="41.63055" lon="20.60712">
        <ele>753.550017</ele>
        <time>2022-04-25T13:55:51.889Z</time>
      </trkpt>
      <trkpt lat="41.63044" lon="20.60705">
        <ele>753.131253</ele>
        <time>2022-04-25T13:55:54.863Z</time>
      </trkpt>
      <trkpt lat="41.63036" lon="20.60699">
        <ele>752.815946</ele>
        <time>2022-04-25T13:55:57.863Z</time>
      </trkpt>
      <trkpt lat="41.63027" lon="20.60691">
        <ele>752.517012</ele>
        <time>2022-04-25T13:56:00.922Z</time>
      </trkpt>
      <trkpt lat="41.63018" lon="20.60686">
        <ele>752.211119</ele>
        <time>2022-04-25T13:56:04.895Z</time>
      </trkpt>
      <trkpt lat="41.6301" lon="20.60679">
        <ele>751.939174</ele>
        <time>2022-04-25T13:56:07.871Z</time>
      </trkpt>
      <trkpt lat="41.63001" lon="20.60674">
        <ele>751.670958</ele>
        <time>2022-04-25T13:56:10.882Z</time>
      </trkpt>
      <trkpt lat="41.62991" lon="20.60668">
        <ele>751.330073</ele>
        <time>2022-04-25T13:56:14.879Z</time>
      </trkpt>
      <trkpt lat="41.62982" lon="20.60664">
        <ele>751.063885</ele>
        <time>2022-04-25T13:56:17.869Z</time>
      </trkpt>
      <trkpt lat="41.62971" lon="20.60663">
        <ele>750.737604</ele>
        <time>2022-04-25T13:56:21.872Z</time>
      </trkpt>
      <trkpt lat="41.6296" lon="20.60662">
        <ele>750.410465</ele>
        <time>2022-04-25T13:56:25.872Z</time>
      </trkpt>
      <trkpt lat="41.62948" lon="20.60663">
        <ele>750.062591</ele>
        <time>2022-04-25T13:56:29.884Z</time>
      </trkpt>
      <trkpt lat="41.62938" lon="20.60664">
        <ele>749.758294</ele>
        <time>2022-04-25T13:56:32.863Z</time>
      </trkpt>
      <trkpt lat="41.62926" lon="20.60665">
        <ele>749.40923</ele>
        <time>2022-04-25T13:56:35.895Z</time>
      </trkpt>
      <trkpt lat="41.62914" lon="20.60667">
        <ele>749.036076</ele>
        <time>2022-04-25T13:56:38.893Z</time>
      </trkpt>
      <trkpt lat="41.629" lon="20.60669">
        <ele>748.640917</ele>
        <time>2022-04-25T13:56:41.870Z</time>
      </trkpt>
      <trkpt lat="41.62891" lon="20.60672">
        <ele>748.345639</ele>
        <time>2022-04-25T13:56:43.886Z</time>
      </trkpt>
      <trkpt lat="41.62881" lon="20.60675">
        <ele>748.041612</ele>
        <time>2022-04-25T13:56:45.894Z</time>
      </trkpt>
      <trkpt lat="41.62871" lon="20.60679">
        <ele>747.736411</ele>
        <time>2022-04-25T13:56:47.884Z</time>
      </trkpt>
      <trkpt lat="41.6286" lon="20.60683">
        <ele>747.523142</ele>
        <time>2022-04-25T13:56:49.882Z</time>
      </trkpt>
      <trkpt lat="41.6285" lon="20.60688">
        <ele>747.296704</ele>
        <time>2022-04-25T13:56:51.901Z</time>
      </trkpt>
      <trkpt lat="41.62839" lon="20.60692">
        <ele>747.077848</ele>
        <time>2022-04-25T13:56:53.878Z</time>
      </trkpt>
      <trkpt lat="41.62829" lon="20.60696">
        <ele>746.86347</ele>
        <time>2022-04-25T13:56:55.886Z</time>
      </trkpt>
      <trkpt lat="41.62819" lon="20.60699">
        <ele>746.655671</ele>
        <time>2022-04-25T13:56:57.899Z</time>
      </trkpt>
      <trkpt lat="41.62809" lon="20.60702">
        <ele>746.449428</ele>
        <time>2022-04-25T13:56:59.879Z</time>
      </trkpt>
      <trkpt lat="41.62798" lon="20.60707">
        <ele>746.223911</ele>
        <time>2022-04-25T13:57:01.883Z</time>
      </trkpt>
      <trkpt lat="41.62788" lon="20.60714">
        <ele>745.991427</ele>
        <time>2022-04-25T13:57:03.871Z</time>
      </trkpt>
      <trkpt lat="41.62778" lon="20.60723">
        <ele>745.743718</ele>
        <time>2022-04-25T13:57:05.880Z</time>
      </trkpt>
      <trkpt lat="41.62767" lon="20.60734">
        <ele>745.475092</ele>
        <time>2022-04-25T13:57:07.912Z</time>
      </trkpt>
      <trkpt lat="41.62755" lon="20.60744">
        <ele>745.18991</ele>
        <time>2022-04-25T13:57:09.882Z</time>
      </trkpt>
      <trkpt lat="41.62742" lon="20.60757">
        <ele>744.880182</ele>
        <time>2022-04-25T13:57:11.875Z</time>
      </trkpt>
      <trkpt lat="41.62729" lon="20.60768">
        <ele>744.569121</ele>
        <time>2022-04-25T13:57:13.877Z</time>
      </trkpt>
      <trkpt lat="41.62715" lon="20.60778">
        <ele>744.240064</ele>
        <time>2022-04-25T13:57:15.897Z</time>
      </trkpt>
      <trkpt lat="41.62699" lon="20.60787">
        <ele>743.820457</ele>
        <time>2022-04-25T13:57:17.882Z</time>
      </trkpt>
      <trkpt lat="41.62681" lon="20.60789">
        <ele>743.349665</ele>
        <time>2022-04-25T13:57:19.873Z</time>
      </trkpt>
      <trkpt lat="41.62671" lon="20.60788">
        <ele>743.09682</ele>
        <time>2022-04-25T13:57:20.890Z</time>
      </trkpt>
      <trkpt lat="41.62662" lon="20.60785">
        <ele>742.846586</ele>
        <time>2022-04-25T13:57:21.876Z</time>
      </trkpt>
      <trkpt lat="41.62652" lon="20.60781">
        <ele>742.597444</ele>
        <time>2022-04-25T13:57:22.890Z</time>
      </trkpt>
      <trkpt lat="41.62643" lon="20.60778">
        <ele>742.346754</ele>
        <time>2022-04-25T13:57:23.892Z</time>
      </trkpt>
      <trkpt lat="41.62633" lon="20.60776">
        <ele>742.097424</ele>
        <time>2022-04-25T13:57:24.910Z</time>
      </trkpt>
      <trkpt lat="41.62624" lon="20.60776">
        <ele>741.843545</ele>
        <time>2022-04-25T13:57:25.913Z</time>
      </trkpt>
      <trkpt lat="41.62613" lon="20.60776">
        <ele>741.566451</ele>
        <time>2022-04-25T13:57:26.972Z</time>
      </trkpt>
      <trkpt lat="41.62602" lon="20.60777">
        <ele>741.276121</ele>
        <time>2022-04-25T13:57:27.874Z</time>
      </trkpt>
      <trkpt lat="41.6259" lon="20.60777">
        <ele>740.985875</ele>
        <time>2022-04-25T13:57:28.871Z</time>
      </trkpt>
      <trkpt lat="41.62579" lon="20.60778">
        <ele>740.69317</ele>
        <time>2022-04-25T13:57:29.874Z</time>
      </trkpt>
      <trkpt lat="41.62568" lon="20.60778">
        <ele>740.395332</ele>
        <time>2022-04-25T13:57:30.876Z</time>
      </trkpt>
      <trkpt lat="41.62556" lon="20.60778">
        <ele>740.097525</ele>
        <time>2022-04-25T13:57:31.893Z</time>
      </trkpt>
      <trkpt lat="41.62545" lon="20.60777">
        <ele>739.80735</ele>
        <time>2022-04-25T13:57:32.868Z</time>
      </trkpt>
      <trkpt lat="41.62534" lon="20.60776">
        <ele>739.521229</ele>
        <time>2022-04-25T13:57:33.878Z</time>
      </trkpt>
      <trkpt lat="41.62523" lon="20.60774">
        <ele>739.086937</ele>
        <time>2022-04-25T13:57:34.884Z</time>
      </trkpt>
      <trkpt lat="41.62512" lon="20.60771">
        <ele>738.632944</ele>
        <time>2022-04-25T13:57:35.898Z</time>
      </trkpt>
      <trkpt lat="41.62502" lon="20.60768">
        <ele>738.190216</ele>
        <time>2022-04-25T13:57:36.933Z</time>
      </trkpt>
      <trkpt lat="41.62492" lon="20.60764">
        <ele>737.761855</ele>
        <time>2022-04-25T13:57:37.883Z</time>
      </trkpt>
      <trkpt lat="41.62483" lon="20.60759">
        <ele>737.346952</ele>
        <time>2022-04-25T13:57:38.877Z</time>
      </trkpt>
      <trkpt lat="41.62474" lon="20.60752">
        <ele>736.955272</ele>
        <time>2022-04-25T13:57:39.868Z</time>
      </trkpt>
      <trkpt lat="41.62467" lon="20.60745">
        <ele>736.576481</ele>
        <time>2022-04-25T13:57:40.881Z</time>
      </trkpt>
      <trkpt lat="41.62453" lon="20.6073">
        <ele>735.844751</ele>
        <time>2022-04-25T13:57:42.955Z</time>
      </trkpt>
      <trkpt lat="41.62443" lon="20.60714">
        <ele>735.190961</ele>
        <time>2022-04-25T13:57:44.884Z</time>
      </trkpt>
      <trkpt lat="41.62436" lon="20.60699">
        <ele>734.628957</ele>
        <time>2022-04-25T13:57:46.893Z</time>
      </trkpt>
      <trkpt lat="41.62428" lon="20.60685">
        <ele>734.087741</ele>
        <time>2022-04-25T13:57:48.870Z</time>
      </trkpt>
      <trkpt lat="41.62418" lon="20.60674">
        <ele>733.572499</ele>
        <time>2022-04-25T13:57:50.884Z</time>
      </trkpt>
      <trkpt lat="41.62407" lon="20.60666">
        <ele>733.045778</ele>
        <time>2022-04-25T13:57:52.882Z</time>
      </trkpt>
      <trkpt lat="41.62396" lon="20.60661">
        <ele>732.540971</ele>
        <time>2022-04-25T13:57:54.874Z</time>
      </trkpt>
      <trkpt lat="41.62385" lon="20.60659">
        <ele>732.07886</ele>
        <time>2022-04-25T13:57:56.896Z</time>
      </trkpt>
      <trkpt lat="41.62372" lon="20.6066">
        <ele>732.022357</ele>
        <time>2022-04-25T13:57:58.877Z</time>
      </trkpt>
      <trkpt lat="41.6236" lon="20.60662">
        <ele>732.022357</ele>
        <time>2022-04-25T13:58:00.887Z</time>
      </trkpt>
      <trkpt lat="41.62348" lon="20.60664">
        <ele>732.022357</ele>
        <time>2022-04-25T13:58:02.907Z</time>
      </trkpt>
      <trkpt lat="41.62339" lon="20.60664">
        <ele>732.022357</ele>
        <time>2022-04-25T13:58:04.954Z</time>
      </trkpt>
      <trkpt lat="41.62331" lon="20.60673">
        <ele>732.022357</ele>
        <time>2022-04-25T13:58:08.858Z</time>
      </trkpt>
      <trkpt lat="41.62322" lon="20.60684">
        <ele>732.022357</ele>
        <time>2022-04-25T13:58:31.903Z</time>
      </trkpt>
      <trkpt lat="41.62313" lon="20.60689">
        <ele>732.022357</ele>
        <time>2022-04-25T13:58:43.876Z</time>
      </trkpt>
      <trkpt lat="41.62304" lon="20.60694">
        <ele>732.022357</ele>
        <time>2022-04-25T13:58:52.885Z</time>
      </trkpt>
      <trkpt lat="41.62294" lon="20.60696">
        <ele>732.022357</ele>
        <time>2022-04-25T13:59:01.868Z</time>
      </trkpt>
      <trkpt lat="41.62285" lon="20.60699">
        <ele>732.022357</ele>
        <time>2022-04-25T13:59:11.904Z</time>
      </trkpt>
      <trkpt lat="41.62276" lon="20.60702">
        <ele>732.022357</ele>
        <time>2022-04-25T13:59:20.894Z</time>
      </trkpt>
      <trkpt lat="41.62267" lon="20.60706">
        <ele>732.022357</ele>
        <time>2022-04-25T13:59:30.864Z</time>
      </trkpt>
      <trkpt lat="41.6226" lon="20.60716">
        <ele>732.022357</ele>
        <time>2022-04-25T13:59:40.922Z</time>
      </trkpt>
      <trkpt lat="41.62256" lon="20.60719">
        <ele>732.022357</ele>
        <time>2022-04-25T14:01:29.802Z</time>
      </trkpt>
    </trkseg>
  </trk>
  <trk>
    <name><![CDATA[Tour d'Europe: étape 665]]></name>
    <extensions>
      <line xmlns="http://www.topografix.com/GPX/gpx_style/0/2">
        <color>FF00FF</color>
        <width>4</width>
      </line>
    </extensions>
    <trkseg>
      <trkpt lat="41.97965" lon="20.96911">
        <ele>487.194285</ele>
        <time>2022-04-24T09:28:05.712Z</time>
      </trkpt>
      <trkpt lat="41.97954" lon="20.96884">
        <ele>487.194285</ele>
        <time>2022-04-24T09:29:45.703Z</time>
      </trkpt>
      <trkpt lat="41.97945" lon="20.96884">
        <ele>487.194285</ele>
        <time>2022-04-24T09:29:48.709Z</time>
      </trkpt>
      <trkpt lat="41.97935" lon="20.96887">
        <ele>487.194285</ele>
        <time>2022-04-24T09:29:51.687Z</time>
      </trkpt>
      <trkpt lat="41.97925" lon="20.96891">
        <ele>487.194285</ele>
        <time>2022-04-24T09:29:54.768Z</time>
      </trkpt>
      <trkpt lat="41.97914" lon="20.96897">
        <ele>487.194285</ele>
        <time>2022-04-24T09:29:57.718Z</time>
      </trkpt>
      <trkpt lat="41.97903" lon="20.96902">
        <ele>487.194285</ele>
        <time>2022-04-24T09:30:00.718Z</time>
      </trkpt>
      <trkpt lat="41.97891" lon="20.96908">
        <ele>487.194285</ele>
        <time>2022-04-24T09:30:03.716Z</time>
      </trkpt>
      <trkpt lat="41.9788" lon="20.96914">
        <ele>486.995014</ele>
        <time>2022-04-24T09:30:06.709Z</time>
      </trkpt>
      <trkpt lat="41.97868" lon="20.96921">
        <ele>486.758369</ele>
        <time>2022-04-24T09:30:09.712Z</time>
      </trkpt>
      <trkpt lat="41.97859" lon="20.96925">
        <ele>486.592092</ele>
        <time>2022-04-24T09:30:11.706Z</time>
      </trkpt>
      <trkpt lat="41.9785" lon="20.9693">
        <ele>486.415183</ele>
        <time>2022-04-24T09:30:13.719Z</time>
      </trkpt>
      <trkpt lat="41.97841" lon="20.96934">
        <ele>486.241901</ele>
        <time>2022-04-24T09:30:15.690Z</time>
      </trkpt>
      <trkpt lat="41.97832" lon="20.96939">
        <ele>486.064056</ele>
        <time>2022-04-24T09:30:17.785Z</time>
      </trkpt>
      <trkpt lat="41.97822" lon="20.96944">
        <ele>485.867928</ele>
        <time>2022-04-24T09:30:19.722Z</time>
      </trkpt>
      <trkpt lat="41.97812" lon="20.96949">
        <ele>485.67269</ele>
        <time>2022-04-24T09:30:21.733Z</time>
      </trkpt>
      <trkpt lat="41.97802" lon="20.96954">
        <ele>485.483988</ele>
        <time>2022-04-24T09:30:23.698Z</time>
      </trkpt>
      <trkpt lat="41.97793" lon="20.9696">
        <ele>485.297083</ele>
        <time>2022-04-24T09:30:25.704Z</time>
      </trkpt>
      <trkpt lat="41.97783" lon="20.96965">
        <ele>485.111045</ele>
        <time>2022-04-24T09:30:27.705Z</time>
      </trkpt>
      <trkpt lat="41.97773" lon="20.9697">
        <ele>484.918488</ele>
        <time>2022-04-24T09:30:29.719Z</time>
      </trkpt>
      <trkpt lat="41.97763" lon="20.96975">
        <ele>484.726424</ele>
        <time>2022-04-24T09:30:31.729Z</time>
      </trkpt>
      <trkpt lat="41.97753" lon="20.96981">
        <ele>484.525658</ele>
        <time>2022-04-24T09:30:33.720Z</time>
      </trkpt>
      <trkpt lat="41.97742" lon="20.96987">
        <ele>484.323215</ele>
        <time>2022-04-24T09:30:35.721Z</time>
      </trkpt>
      <trkpt lat="41.97733" lon="20.96992">
        <ele>484.128607</ele>
        <time>2022-04-24T09:30:37.716Z</time>
      </trkpt>
      <trkpt lat="41.97722" lon="20.96998">
        <ele>483.927308</ele>
        <time>2022-04-24T09:30:39.721Z</time>
      </trkpt>
      <trkpt lat="41.97712" lon="20.97004">
        <ele>483.695172</ele>
        <time>2022-04-24T09:30:41.725Z</time>
      </trkpt>
      <trkpt lat="41.97702" lon="20.97009">
        <ele>483.470478</ele>
        <time>2022-04-24T09:30:43.736Z</time>
      </trkpt>
      <trkpt lat="41.97692" lon="20.97015">
        <ele>483.238823</ele>
        <time>2022-04-24T09:30:45.702Z</time>
      </trkpt>
      <trkpt lat="41.97681" lon="20.97021">
        <ele>483.002859</ele>
        <time>2022-04-24T09:30:47.712Z</time>
      </trkpt>
      <trkpt lat="41.97671" lon="20.97027">
        <ele>482.764978</ele>
        <time>2022-04-24T09:30:49.732Z</time>
      </trkpt>
      <trkpt lat="41.97661" lon="20.97032">
        <ele>482.53777</ele>
        <time>2022-04-24T09:30:51.710Z</time>
      </trkpt>
      <trkpt lat="41.97651" lon="20.97038">
        <ele>482.313076</ele>
        <time>2022-04-24T09:30:53.716Z</time>
      </trkpt>
      <trkpt lat="41.97641" lon="20.97043">
        <ele>482.087573</ele>
        <time>2022-04-24T09:30:55.731Z</time>
      </trkpt>
      <trkpt lat="41.97631" lon="20.97049">
        <ele>481.862296</ele>
        <time>2022-04-24T09:30:57.718Z</time>
      </trkpt>
      <trkpt lat="41.97621" lon="20.97054">
        <ele>481.631983</ele>
        <time>2022-04-24T09:30:59.739Z</time>
      </trkpt>
      <trkpt lat="41.9761" lon="20.9706">
        <ele>481.40107</ele>
        <time>2022-04-24T09:31:01.738Z</time>
      </trkpt>
      <trkpt lat="41.976" lon="20.97065">
        <ele>481.168615</ele>
        <time>2022-04-24T09:31:03.697Z</time>
      </trkpt>
      <trkpt lat="41.9759" lon="20.97072">
        <ele>480.935852</ele>
        <time>2022-04-24T09:31:05.717Z</time>
      </trkpt>
      <trkpt lat="41.97579" lon="20.97078">
        <ele>480.699916</ele>
        <time>2022-04-24T09:31:07.717Z</time>
      </trkpt>
      <trkpt lat="41.9757" lon="20.97084">
        <ele>480.473496</ele>
        <time>2022-04-24T09:31:09.726Z</time>
      </trkpt>
      <trkpt lat="41.9756" lon="20.9709">
        <ele>480.250242</ele>
        <time>2022-04-24T09:31:11.691Z</time>
      </trkpt>
      <trkpt lat="41.9755" lon="20.97096">
        <ele>480.19016</ele>
        <time>2022-04-24T09:31:13.718Z</time>
      </trkpt>
      <trkpt lat="41.9754" lon="20.97102">
        <ele>480.185953</ele>
        <time>2022-04-24T09:31:15.714Z</time>
      </trkpt>
      <trkpt lat="41.97531" lon="20.97109">
        <ele>480.181818</ele>
        <time>2022-04-24T09:31:17.709Z</time>
      </trkpt>
      <trkpt lat="41.97523" lon="20.97116">
        <ele>480.177648</ele>
        <time>2022-04-24T09:31:19.706Z</time>
      </trkpt>
      <trkpt lat="41.97515" lon="20.97123">
        <ele>480.173907</ele>
        <time>2022-04-24T09:31:21.693Z</time>
      </trkpt>
      <trkpt lat="41.97506" lon="20.9713">
        <ele>480.169914</ele>
        <time>2022-04-24T09:31:23.709Z</time>
      </trkpt>
      <trkpt lat="41.97497" lon="20.97138">
        <ele>480.16576</ele>
        <time>2022-04-24T09:31:25.709Z</time>
      </trkpt>
      <trkpt lat="41.97489" lon="20.97145">
        <ele>480.161767</ele>
        <time>2022-04-24T09:31:27.714Z</time>
      </trkpt>
      <trkpt lat="41.97481" lon="20.97152">
        <ele>480.158191</ele>
        <time>2022-04-24T09:31:29.694Z</time>
      </trkpt>
      <trkpt lat="41.97473" lon="20.97159">
        <ele>480.154318</ele>
        <time>2022-04-24T09:31:31.712Z</time>
      </trkpt>
      <trkpt lat="41.97464" lon="20.97167">
        <ele>480.149908</ele>
        <time>2022-04-24T09:31:33.693Z</time>
      </trkpt>
      <trkpt lat="41.97453" lon="20.97175">
        <ele>480.145066</ele>
        <time>2022-04-24T09:31:35.751Z</time>
      </trkpt>
      <trkpt lat="41.97443" lon="20.97184">
        <ele>480.140203</ele>
        <time>2022-04-24T09:31:37.742Z</time>
      </trkpt>
      <trkpt lat="41.97433" lon="20.97192">
        <ele>480.135539</ele>
        <time>2022-04-24T09:31:39.719Z</time>
      </trkpt>
      <trkpt lat="41.97424" lon="20.97201">
        <ele>480.13127</ele>
        <time>2022-04-24T09:31:41.698Z</time>
      </trkpt>
      <trkpt lat="41.97414" lon="20.97209">
        <ele>480.126785</ele>
        <time>2022-04-24T09:31:43.736Z</time>
      </trkpt>
      <trkpt lat="41.97405" lon="20.97217">
        <ele>480.122284</ele>
        <time>2022-04-24T09:31:45.721Z</time>
      </trkpt>
      <trkpt lat="41.97395" lon="20.97224">
        <ele>480.142765</ele>
        <time>2022-04-24T09:31:47.728Z</time>
      </trkpt>
      <trkpt lat="41.97386" lon="20.97231">
        <ele>480.165278</ele>
        <time>2022-04-24T09:31:49.708Z</time>
      </trkpt>
      <trkpt lat="41.97377" lon="20.97238">
        <ele>480.186612</ele>
        <time>2022-04-24T09:31:51.714Z</time>
      </trkpt>
      <trkpt lat="41.97369" lon="20.97245">
        <ele>480.206082</ele>
        <time>2022-04-24T09:31:53.709Z</time>
      </trkpt>
      <trkpt lat="41.9736" lon="20.97251">
        <ele>480.225628</ele>
        <time>2022-04-24T09:31:55.730Z</time>
      </trkpt>
      <trkpt lat="41.97352" lon="20.97258">
        <ele>480.245139</ele>
        <time>2022-04-24T09:31:57.718Z</time>
      </trkpt>
      <trkpt lat="41.97344" lon="20.97265">
        <ele>480.264664</ele>
        <time>2022-04-24T09:31:59.718Z</time>
      </trkpt>
      <trkpt lat="41.97336" lon="20.97271">
        <ele>480.285003</ele>
        <time>2022-04-24T09:32:01.701Z</time>
      </trkpt>
      <trkpt lat="41.97327" lon="20.97277">
        <ele>480.305992</ele>
        <time>2022-04-24T09:32:03.739Z</time>
      </trkpt>
      <trkpt lat="41.97318" lon="20.97284">
        <ele>480.327307</ele>
        <time>2022-04-24T09:32:05.708Z</time>
      </trkpt>
      <trkpt lat="41.97308" lon="20.9729">
        <ele>480.349213</ele>
        <time>2022-04-24T09:32:07.755Z</time>
      </trkpt>
      <trkpt lat="41.97299" lon="20.97297">
        <ele>480.370856</ele>
        <time>2022-04-24T09:32:09.737Z</time>
      </trkpt>
      <trkpt lat="41.9729" lon="20.97304">
        <ele>480.392828</ele>
        <time>2022-04-24T09:32:11.710Z</time>
      </trkpt>
      <trkpt lat="41.97281" lon="20.97312">
        <ele>480.414129</ele>
        <time>2022-04-24T09:32:13.691Z</time>
      </trkpt>
      <trkpt lat="41.97273" lon="20.97321">
        <ele>480.435567</ele>
        <time>2022-04-24T09:32:15.721Z</time>
      </trkpt>
      <trkpt lat="41.97265" lon="20.97331">
        <ele>480.457783</ele>
        <time>2022-04-24T09:32:17.722Z</time>
      </trkpt>
      <trkpt lat="41.97258" lon="20.97342">
        <ele>480.480316</ele>
        <time>2022-04-24T09:32:19.702Z</time>
      </trkpt>
      <trkpt lat="41.97252" lon="20.97354">
        <ele>480.469317</ele>
        <time>2022-04-24T09:32:21.693Z</time>
      </trkpt>
      <trkpt lat="41.97245" lon="20.97364">
        <ele>480.417183</ele>
        <time>2022-04-24T09:32:23.710Z</time>
      </trkpt>
      <trkpt lat="41.97238" lon="20.97375">
        <ele>480.36445</ele>
        <time>2022-04-24T09:32:25.712Z</time>
      </trkpt>
      <trkpt lat="41.97232" lon="20.97387">
        <ele>480.312977</ele>
        <time>2022-04-24T09:32:27.709Z</time>
      </trkpt>
      <trkpt lat="41.97225" lon="20.97398">
        <ele>480.256674</ele>
        <time>2022-04-24T09:32:29.727Z</time>
      </trkpt>
      <trkpt lat="41.97219" lon="20.97409">
        <ele>480.20727</ele>
        <time>2022-04-24T09:32:31.717Z</time>
      </trkpt>
      <trkpt lat="41.97213" lon="20.9742">
        <ele>480.158458</ele>
        <time>2022-04-24T09:32:33.725Z</time>
      </trkpt>
      <trkpt lat="41.97207" lon="20.97431">
        <ele>480.106982</ele>
        <time>2022-04-24T09:32:35.709Z</time>
      </trkpt>
      <trkpt lat="41.97201" lon="20.97442">
        <ele>480.05695</ele>
        <time>2022-04-24T09:32:37.720Z</time>
      </trkpt>
      <trkpt lat="41.97195" lon="20.97452">
        <ele>480.010179</ele>
        <time>2022-04-24T09:32:39.704Z</time>
      </trkpt>
      <trkpt lat="41.97188" lon="20.97463">
        <ele>479.959173</ele>
        <time>2022-04-24T09:32:41.724Z</time>
      </trkpt>
      <trkpt lat="41.97182" lon="20.97475">
        <ele>479.903555</ele>
        <time>2022-04-24T09:32:43.768Z</time>
      </trkpt>
      <trkpt lat="41.97175" lon="20.97486">
        <ele>479.850304</ele>
        <time>2022-04-24T09:32:45.707Z</time>
      </trkpt>
      <trkpt lat="41.97169" lon="20.97498">
        <ele>479.796464</ele>
        <time>2022-04-24T09:32:47.715Z</time>
      </trkpt>
      <trkpt lat="41.97162" lon="20.97509">
        <ele>479.743216</ele>
        <time>2022-04-24T09:32:49.714Z</time>
      </trkpt>
      <trkpt lat="41.97156" lon="20.97521">
        <ele>479.690253</ele>
        <time>2022-04-24T09:32:51.708Z</time>
      </trkpt>
      <trkpt lat="41.9715" lon="20.97532">
        <ele>479.638765</ele>
        <time>2022-04-24T09:32:53.728Z</time>
      </trkpt>
      <trkpt lat="41.97143" lon="20.97544">
        <ele>479.584998</ele>
        <time>2022-04-24T09:32:55.706Z</time>
      </trkpt>
      <trkpt lat="41.97137" lon="20.97555">
        <ele>479.53169</ele>
        <time>2022-04-24T09:32:57.709Z</time>
      </trkpt>
      <trkpt lat="41.97132" lon="20.97564">
        <ele>479.48429</ele>
        <time>2022-04-24T09:32:59.711Z</time>
      </trkpt>
      <trkpt lat="41.97124" lon="20.97579">
        <ele>479.415583</ele>
        <time>2022-04-24T09:33:02.718Z</time>
      </trkpt>
      <trkpt lat="41.97117" lon="20.97593">
        <ele>479.348815</ele>
        <time>2022-04-24T09:33:05.708Z</time>
      </trkpt>
      <trkpt lat="41.97108" lon="20.97607">
        <ele>479.277935</ele>
        <time>2022-04-24T09:33:08.716Z</time>
      </trkpt>
      <trkpt lat="41.97101" lon="20.97622">
        <ele>479.208411</ele>
        <time>2022-04-24T09:33:11.711Z</time>
      </trkpt>
      <trkpt lat="41.97093" lon="20.97636">
        <ele>479.141963</ele>
        <time>2022-04-24T09:33:14.706Z</time>
      </trkpt>
      <trkpt lat="41.97086" lon="20.97651">
        <ele>479.07241</ele>
        <time>2022-04-24T09:33:17.726Z</time>
      </trkpt>
      <trkpt lat="41.9708" lon="20.97661">
        <ele>479.020018</ele>
        <time>2022-04-24T09:33:19.730Z</time>
      </trkpt>
      <trkpt lat="41.97074" lon="20.97672">
        <ele>478.966398</ele>
        <time>2022-04-24T09:33:21.707Z</time>
      </trkpt>
      <trkpt lat="41.97068" lon="20.97683">
        <ele>478.91463</ele>
        <time>2022-04-24T09:33:23.730Z</time>
      </trkpt>
      <trkpt lat="41.97062" lon="20.97693">
        <ele>478.864409</ele>
        <time>2022-04-24T09:33:25.692Z</time>
      </trkpt>
      <trkpt lat="41.97055" lon="20.97704">
        <ele>478.809432</ele>
        <time>2022-04-24T09:33:27.707Z</time>
      </trkpt>
      <trkpt lat="41.97049" lon="20.97716">
        <ele>478.752999</ele>
        <time>2022-04-24T09:33:29.748Z</time>
      </trkpt>
      <trkpt lat="41.97042" lon="20.97728">
        <ele>478.694378</ele>
        <time>2022-04-24T09:33:31.727Z</time>
      </trkpt>
      <trkpt lat="41.97035" lon="20.9774">
        <ele>478.68648</ele>
        <time>2022-04-24T09:33:33.708Z</time>
      </trkpt>
      <trkpt lat="41.97028" lon="20.97752">
        <ele>478.742426</ele>
        <time>2022-04-24T09:33:35.716Z</time>
      </trkpt>
      <trkpt lat="41.97022" lon="20.97764">
        <ele>478.796302</ele>
        <time>2022-04-24T09:33:37.710Z</time>
      </trkpt>
      <trkpt lat="41.97016" lon="20.97776">
        <ele>478.850801</ele>
        <time>2022-04-24T09:33:39.719Z</time>
      </trkpt>
      <trkpt lat="41.9701" lon="20.97788">
        <ele>478.901412</ele>
        <time>2022-04-24T09:33:41.695Z</time>
      </trkpt>
      <trkpt lat="41.97002" lon="20.97798">
        <ele>478.955576</ele>
        <time>2022-04-24T09:33:43.717Z</time>
      </trkpt>
      <trkpt lat="41.96994" lon="20.97808">
        <ele>479.012247</ele>
        <time>2022-04-24T09:33:45.702Z</time>
      </trkpt>
      <trkpt lat="41.96984" lon="20.97817">
        <ele>479.069675</ele>
        <time>2022-04-24T09:33:47.708Z</time>
      </trkpt>
      <trkpt lat="41.96974" lon="20.97825">
        <ele>479.127769</ele>
        <time>2022-04-24T09:33:49.712Z</time>
      </trkpt>
      <trkpt lat="41.96964" lon="20.97834">
        <ele>479.185195</ele>
        <time>2022-04-24T09:33:51.726Z</time>
      </trkpt>
      <trkpt lat="41.96954" lon="20.97842">
        <ele>479.243289</ele>
        <time>2022-04-24T09:33:53.715Z</time>
      </trkpt>
      <trkpt lat="41.96945" lon="20.9785">
        <ele>479.300769</ele>
        <time>2022-04-24T09:33:55.712Z</time>
      </trkpt>
      <trkpt lat="41.96935" lon="20.97858">
        <ele>479.357825</ele>
        <time>2022-04-24T09:33:57.733Z</time>
      </trkpt>
      <trkpt lat="41.96925" lon="20.97866">
        <ele>479.415075</ele>
        <time>2022-04-24T09:33:59.710Z</time>
      </trkpt>
      <trkpt lat="41.96916" lon="20.97874">
        <ele>479.468799</ele>
        <time>2022-04-24T09:34:01.699Z</time>
      </trkpt>
      <trkpt lat="41.96907" lon="20.97881">
        <ele>479.517622</ele>
        <time>2022-04-24T09:34:03.744Z</time>
      </trkpt>
      <trkpt lat="41.96899" lon="20.97888">
        <ele>479.553691</ele>
        <time>2022-04-24T09:34:05.705Z</time>
      </trkpt>
      <trkpt lat="41.96891" lon="20.97895">
        <ele>479.554831</ele>
        <time>2022-04-24T09:34:07.736Z</time>
      </trkpt>
      <trkpt lat="41.96882" lon="20.97902">
        <ele>479.556066</ele>
        <time>2022-04-24T09:34:09.739Z</time>
      </trkpt>
      <trkpt lat="41.96871" lon="20.97909">
        <ele>479.557463</ele>
        <time>2022-04-24T09:34:11.699Z</time>
      </trkpt>
      <trkpt lat="41.96861" lon="20.97916">
        <ele>479.558862</ele>
        <time>2022-04-24T09:34:13.711Z</time>
      </trkpt>
      <trkpt lat="41.96851" lon="20.97924">
        <ele>479.560252</ele>
        <time>2022-04-24T09:34:15.722Z</time>
      </trkpt>
      <trkpt lat="41.96841" lon="20.97933">
        <ele>479.561666</ele>
        <time>2022-04-24T09:34:17.715Z</time>
      </trkpt>
      <trkpt lat="41.96832" lon="20.97944">
        <ele>479.563189</ele>
        <time>2022-04-24T09:34:19.738Z</time>
      </trkpt>
      <trkpt lat="41.96822" lon="20.97954">
        <ele>479.564669</ele>
        <time>2022-04-24T09:34:21.726Z</time>
      </trkpt>
      <trkpt lat="41.96813" lon="20.97965">
        <ele>479.56614</ele>
        <time>2022-04-24T09:34:23.717Z</time>
      </trkpt>
      <trkpt lat="41.96804" lon="20.97975">
        <ele>479.567557</ele>
        <time>2022-04-24T09:34:25.718Z</time>
      </trkpt>
      <trkpt lat="41.96795" lon="20.97985">
        <ele>479.568941</ele>
        <time>2022-04-24T09:34:27.703Z</time>
      </trkpt>
      <trkpt lat="41.96786" lon="20.97995">
        <ele>479.570304</ele>
        <time>2022-04-24T09:34:29.703Z</time>
      </trkpt>
      <trkpt lat="41.96778" lon="20.98005">
        <ele>479.571682</ele>
        <time>2022-04-24T09:34:31.721Z</time>
      </trkpt>
      <trkpt lat="41.96769" lon="20.98016">
        <ele>479.573042</ele>
        <time>2022-04-24T09:34:33.698Z</time>
      </trkpt>
      <trkpt lat="41.96761" lon="20.98026">
        <ele>479.574364</ele>
        <time>2022-04-24T09:34:35.707Z</time>
      </trkpt>
      <trkpt lat="41.96753" lon="20.98036">
        <ele>479.573249</ele>
        <time>2022-04-24T09:34:37.719Z</time>
      </trkpt>
      <trkpt lat="41.96745" lon="20.98045">
        <ele>479.570248</ele>
        <time>2022-04-24T09:34:39.707Z</time>
      </trkpt>
      <trkpt lat="41.96736" lon="20.98055">
        <ele>479.567259</ele>
        <time>2022-04-24T09:34:41.718Z</time>
      </trkpt>
      <trkpt lat="41.96728" lon="20.98065">
        <ele>479.564263</ele>
        <time>2022-04-24T09:34:43.746Z</time>
      </trkpt>
      <trkpt lat="41.96719" lon="20.98076">
        <ele>479.561144</ele>
        <time>2022-04-24T09:34:45.719Z</time>
      </trkpt>
      <trkpt lat="41.9671" lon="20.98086">
        <ele>479.558064</ele>
        <time>2022-04-24T09:34:47.718Z</time>
      </trkpt>
      <trkpt lat="41.96701" lon="20.98095">
        <ele>479.555009</ele>
        <time>2022-04-24T09:34:49.727Z</time>
      </trkpt>
      <trkpt lat="41.96692" lon="20.98104">
        <ele>479.552026</ele>
        <time>2022-04-24T09:34:51.710Z</time>
      </trkpt>
      <trkpt lat="41.96682" lon="20.9811">
        <ele>479.549244</ele>
        <time>2022-04-24T09:34:53.721Z</time>
      </trkpt>
      <trkpt lat="41.96674" lon="20.98113">
        <ele>479.546842</ele>
        <time>2022-04-24T09:34:55.711Z</time>
      </trkpt>
      <trkpt lat="41.96664" lon="20.98115">
        <ele>479.54434</ele>
        <time>2022-04-24T09:34:57.706Z</time>
      </trkpt>
      <trkpt lat="41.96653" lon="20.98116">
        <ele>479.541245</ele>
        <time>2022-04-24T09:35:00.689Z</time>
      </trkpt>
      <trkpt lat="41.96643" lon="20.98112">
        <ele>479.538668</ele>
        <time>2022-04-24T09:35:03.712Z</time>
      </trkpt>
      <trkpt lat="41.96633" lon="20.98113">
        <ele>479.535949</ele>
        <time>2022-04-24T09:35:06.740Z</time>
      </trkpt>
      <trkpt lat="41.96623" lon="20.98114">
        <ele>479.533124</ele>
        <time>2022-04-24T09:35:09.706Z</time>
      </trkpt>
      <trkpt lat="41.96599" lon="20.98111">
        <ele>479.537555</ele>
        <time>2022-04-24T09:36:23.713Z</time>
      </trkpt>
      <trkpt lat="41.96588" lon="20.98109">
        <ele>479.717168</ele>
        <time>2022-04-24T09:36:26.721Z</time>
      </trkpt>
      <trkpt lat="41.96575" lon="20.98109">
        <ele>479.919813</ele>
        <time>2022-04-24T09:36:29.714Z</time>
      </trkpt>
      <trkpt lat="41.96562" lon="20.98107">
        <ele>480.133958</ele>
        <time>2022-04-24T09:36:32.719Z</time>
      </trkpt>
      <trkpt lat="41.96549" lon="20.98106">
        <ele>480.338876</ele>
        <time>2022-04-24T09:36:35.728Z</time>
      </trkpt>
      <trkpt lat="41.96537" lon="20.98105">
        <ele>480.541647</ele>
        <time>2022-04-24T09:36:38.707Z</time>
      </trkpt>
      <trkpt lat="41.96524" lon="20.98103">
        <ele>480.753076</ele>
        <time>2022-04-24T09:36:41.703Z</time>
      </trkpt>
      <trkpt lat="41.96514" lon="20.98102">
        <ele>480.902786</ele>
        <time>2022-04-24T09:36:43.755Z</time>
      </trkpt>
      <trkpt lat="41.96505" lon="20.98103">
        <ele>481.052234</ele>
        <time>2022-04-24T09:36:45.745Z</time>
      </trkpt>
      <trkpt lat="41.96492" lon="20.98103">
        <ele>481.267587</ele>
        <time>2022-04-24T09:36:48.718Z</time>
      </trkpt>
      <trkpt lat="41.96483" lon="20.98103">
        <ele>481.413784</ele>
        <time>2022-04-24T09:36:50.721Z</time>
      </trkpt>
      <trkpt lat="41.96473" lon="20.98103">
        <ele>481.572899</ele>
        <time>2022-04-24T09:36:52.711Z</time>
      </trkpt>
      <trkpt lat="41.96463" lon="20.98104">
        <ele>481.733709</ele>
        <time>2022-04-24T09:36:54.726Z</time>
      </trkpt>
      <trkpt lat="41.96453" lon="20.98105">
        <ele>481.893629</ele>
        <time>2022-04-24T09:36:56.702Z</time>
      </trkpt>
      <trkpt lat="41.96443" lon="20.98107">
        <ele>482.058746</ele>
        <time>2022-04-24T09:36:58.709Z</time>
      </trkpt>
      <trkpt lat="41.96433" lon="20.98109">
        <ele>482.2194</ele>
        <time>2022-04-24T09:37:00.702Z</time>
      </trkpt>
      <trkpt lat="41.96423" lon="20.9811">
        <ele>482.375601</ele>
        <time>2022-04-24T09:37:02.713Z</time>
      </trkpt>
      <trkpt lat="41.96413" lon="20.98111">
        <ele>482.298564</ele>
        <time>2022-04-24T09:37:04.714Z</time>
      </trkpt>
      <trkpt lat="41.96404" lon="20.98112">
        <ele>482.149373</ele>
        <time>2022-04-24T09:37:06.715Z</time>
      </trkpt>
      <trkpt lat="41.96395" lon="20.98114">
        <ele>481.992137</ele>
        <time>2022-04-24T09:37:08.704Z</time>
      </trkpt>
      <trkpt lat="41.96385" lon="20.98115">
        <ele>481.839017</ele>
        <time>2022-04-24T09:37:10.699Z</time>
      </trkpt>
      <trkpt lat="41.96376" lon="20.98114">
        <ele>481.689446</ele>
        <time>2022-04-24T09:37:12.712Z</time>
      </trkpt>
      <trkpt lat="41.96366" lon="20.98113">
        <ele>481.527378</ele>
        <time>2022-04-24T09:37:14.718Z</time>
      </trkpt>
      <trkpt lat="41.96356" lon="20.98112">
        <ele>481.364544</ele>
        <time>2022-04-24T09:37:16.725Z</time>
      </trkpt>
      <trkpt lat="41.96346" lon="20.98109">
        <ele>481.195961</ele>
        <time>2022-04-24T09:37:18.702Z</time>
      </trkpt>
      <trkpt lat="41.96336" lon="20.98107">
        <ele>481.027378</ele>
        <time>2022-04-24T09:37:20.711Z</time>
      </trkpt>
      <trkpt lat="41.96326" lon="20.98104">
        <ele>480.861</ele>
        <time>2022-04-24T09:37:22.712Z</time>
      </trkpt>
      <trkpt lat="41.96315" lon="20.981">
        <ele>480.690354</ele>
        <time>2022-04-24T09:37:24.707Z</time>
      </trkpt>
      <trkpt lat="41.96306" lon="20.98095">
        <ele>480.517914</ele>
        <time>2022-04-24T09:37:26.713Z</time>
      </trkpt>
      <trkpt lat="41.96295" lon="20.98089">
        <ele>480.33469</ele>
        <time>2022-04-24T09:37:28.714Z</time>
      </trkpt>
      <trkpt lat="41.96284" lon="20.98084">
        <ele>480.15228</ele>
        <time>2022-04-24T09:37:30.711Z</time>
      </trkpt>
      <trkpt lat="41.96274" lon="20.98079">
        <ele>479.96753</ele>
        <time>2022-04-24T09:37:32.709Z</time>
      </trkpt>
      <trkpt lat="41.96263" lon="20.98074">
        <ele>479.788584</ele>
        <time>2022-04-24T09:37:34.722Z</time>
      </trkpt>
      <trkpt lat="41.96253" lon="20.98069">
        <ele>479.613394</ele>
        <time>2022-04-24T09:37:36.750Z</time>
      </trkpt>
      <trkpt lat="41.96243" lon="20.98065">
        <ele>479.485177</ele>
        <time>2022-04-24T09:37:38.706Z</time>
      </trkpt>
      <trkpt lat="41.96234" lon="20.98061">
        <ele>479.453498</ele>
        <time>2022-04-24T09:37:40.712Z</time>
      </trkpt>
      <trkpt lat="41.96225" lon="20.98057">
        <ele>479.421577</ele>
        <time>2022-04-24T09:37:42.692Z</time>
      </trkpt>
      <trkpt lat="41.96215" lon="20.98053">
        <ele>479.388713</ele>
        <time>2022-04-24T09:37:44.707Z</time>
      </trkpt>
      <trkpt lat="41.96205" lon="20.9805">
        <ele>479.355538</ele>
        <time>2022-04-24T09:37:46.717Z</time>
      </trkpt>
      <trkpt lat="41.96195" lon="20.98048">
        <ele>479.322263</ele>
        <time>2022-04-24T09:37:48.721Z</time>
      </trkpt>
      <trkpt lat="41.96186" lon="20.98044">
        <ele>479.289915</ele>
        <time>2022-04-24T09:37:50.714Z</time>
      </trkpt>
      <trkpt lat="41.96176" lon="20.98041">
        <ele>479.256319</ele>
        <time>2022-04-24T09:37:52.729Z</time>
      </trkpt>
      <trkpt lat="41.96165" lon="20.98039">
        <ele>479.220254</ele>
        <time>2022-04-24T09:37:54.757Z</time>
      </trkpt>
      <trkpt lat="41.96155" lon="20.98038">
        <ele>479.185952</ele>
        <time>2022-04-24T09:37:56.700Z</time>
      </trkpt>
      <trkpt lat="41.96145" lon="20.98037">
        <ele>479.153938</ele>
        <time>2022-04-24T09:37:58.704Z</time>
      </trkpt>
      <trkpt lat="41.96135" lon="20.98035">
        <ele>479.120291</ele>
        <time>2022-04-24T09:38:00.710Z</time>
      </trkpt>
      <trkpt lat="41.96124" lon="20.98034">
        <ele>479.086148</ele>
        <time>2022-04-24T09:38:02.714Z</time>
      </trkpt>
      <trkpt lat="41.96115" lon="20.98032">
        <ele>479.053756</ele>
        <time>2022-04-24T09:38:04.705Z</time>
      </trkpt>
      <trkpt lat="41.96105" lon="20.98031">
        <ele>479.02237</ele>
        <time>2022-04-24T09:38:06.723Z</time>
      </trkpt>
      <trkpt lat="41.96095" lon="20.98029">
        <ele>478.989853</ele>
        <time>2022-04-24T09:38:08.702Z</time>
      </trkpt>
      <trkpt lat="41.96086" lon="20.98027">
        <ele>478.95882</ele>
        <time>2022-04-24T09:38:10.735Z</time>
      </trkpt>
      <trkpt lat="41.96077" lon="20.98027">
        <ele>478.927888</ele>
        <time>2022-04-24T09:38:12.715Z</time>
      </trkpt>
      <trkpt lat="41.96068" lon="20.98026">
        <ele>478.888987</ele>
        <time>2022-04-24T09:38:14.706Z</time>
      </trkpt>
      <trkpt lat="41.96055" lon="20.98024">
        <ele>478.787179</ele>
        <time>2022-04-24T09:38:17.740Z</time>
      </trkpt>
      <trkpt lat="41.96045" lon="20.98023">
        <ele>478.713978</ele>
        <time>2022-04-24T09:38:19.717Z</time>
      </trkpt>
      <trkpt lat="41.96035" lon="20.98023">
        <ele>478.636966</ele>
        <time>2022-04-24T09:38:21.721Z</time>
      </trkpt>
      <trkpt lat="41.96025" lon="20.98024">
        <ele>478.558997</ele>
        <time>2022-04-24T09:38:23.724Z</time>
      </trkpt>
      <trkpt lat="41.96015" lon="20.98026">
        <ele>478.480976</ele>
        <time>2022-04-24T09:38:25.711Z</time>
      </trkpt>
      <trkpt lat="41.96006" lon="20.98029">
        <ele>478.404538</ele>
        <time>2022-04-24T09:38:27.719Z</time>
      </trkpt>
      <trkpt lat="41.95996" lon="20.98033">
        <ele>478.326141</ele>
        <time>2022-04-24T09:38:29.711Z</time>
      </trkpt>
      <trkpt lat="41.95987" lon="20.98038">
        <ele>478.248477</ele>
        <time>2022-04-24T09:38:31.709Z</time>
      </trkpt>
      <trkpt lat="41.95978" lon="20.98043">
        <ele>478.175627</ele>
        <time>2022-04-24T09:38:33.710Z</time>
      </trkpt>
      <trkpt lat="41.95966" lon="20.98051">
        <ele>478.07235</ele>
        <time>2022-04-24T09:38:36.699Z</time>
      </trkpt>
      <trkpt lat="41.95954" lon="20.98058">
        <ele>477.966617</ele>
        <time>2022-04-24T09:38:39.735Z</time>
      </trkpt>
      <trkpt lat="41.95943" lon="20.98062">
        <ele>477.881609</ele>
        <time>2022-04-24T09:38:41.717Z</time>
      </trkpt>
      <trkpt lat="41.95932" lon="20.98066">
        <ele>477.788912</ele>
        <time>2022-04-24T09:38:43.696Z</time>
      </trkpt>
      <trkpt lat="41.95921" lon="20.98069">
        <ele>477.699992</ele>
        <time>2022-04-24T09:38:45.699Z</time>
      </trkpt>
      <trkpt lat="41.95909" lon="20.98073">
        <ele>477.610587</ele>
        <time>2022-04-24T09:38:47.712Z</time>
      </trkpt>
      <trkpt lat="41.95898" lon="20.98076">
        <ele>477.523078</ele>
        <time>2022-04-24T09:38:49.715Z</time>
      </trkpt>
      <trkpt lat="41.95888" lon="20.9808">
        <ele>477.342517</ele>
        <time>2022-04-24T09:38:51.700Z</time>
      </trkpt>
      <trkpt lat="41.95877" lon="20.98083">
        <ele>477.146778</ele>
        <time>2022-04-24T09:38:53.736Z</time>
      </trkpt>
      <trkpt lat="41.95867" lon="20.98087">
        <ele>476.959807</ele>
        <time>2022-04-24T09:38:55.718Z</time>
      </trkpt>
      <trkpt lat="41.95857" lon="20.9809">
        <ele>476.775258</ele>
        <time>2022-04-24T09:38:57.730Z</time>
      </trkpt>
      <trkpt lat="41.95848" lon="20.98094">
        <ele>476.594214</ele>
        <time>2022-04-24T09:38:59.741Z</time>
      </trkpt>
      <trkpt lat="41.95838" lon="20.98097">
        <ele>476.417642</ele>
        <time>2022-04-24T09:39:01.693Z</time>
      </trkpt>
      <trkpt lat="41.95828" lon="20.981">
        <ele>476.234843</ele>
        <time>2022-04-24T09:39:03.715Z</time>
      </trkpt>
      <trkpt lat="41.95819" lon="20.98103">
        <ele>476.059717</ele>
        <time>2022-04-24T09:39:05.731Z</time>
      </trkpt>
      <trkpt lat="41.95809" lon="20.98106">
        <ele>475.884265</ele>
        <time>2022-04-24T09:39:07.724Z</time>
      </trkpt>
      <trkpt lat="41.958" lon="20.9811">
        <ele>475.699382</ele>
        <time>2022-04-24T09:39:09.723Z</time>
      </trkpt>
      <trkpt lat="41.95789" lon="20.98113">
        <ele>475.5084</ele>
        <time>2022-04-24T09:39:11.709Z</time>
      </trkpt>
      <trkpt lat="41.95779" lon="20.98116">
        <ele>475.318882</ele>
        <time>2022-04-24T09:39:13.750Z</time>
      </trkpt>
      <trkpt lat="41.95769" lon="20.98119">
        <ele>475.135411</ele>
        <time>2022-04-24T09:39:15.701Z</time>
      </trkpt>
      <trkpt lat="41.9576" lon="20.98123">
        <ele>474.955783</ele>
        <time>2022-04-24T09:39:17.743Z</time>
      </trkpt>
      <trkpt lat="41.9575" lon="20.98126">
        <ele>474.778038</ele>
        <time>2022-04-24T09:39:19.703Z</time>
      </trkpt>
      <trkpt lat="41.9574" lon="20.98128">
        <ele>474.600294</ele>
        <time>2022-04-24T09:39:21.714Z</time>
      </trkpt>
      <trkpt lat="41.95726" lon="20.98134">
        <ele>474.330851</ele>
        <time>2022-04-24T09:39:24.734Z</time>
      </trkpt>
      <trkpt lat="41.95716" lon="20.98137">
        <ele>474.234362</ele>
        <time>2022-04-24T09:39:26.715Z</time>
      </trkpt>
      <trkpt lat="41.95707" lon="20.9814">
        <ele>474.202833</ele>
        <time>2022-04-24T09:39:28.721Z</time>
      </trkpt>
      <trkpt lat="41.95697" lon="20.98143">
        <ele>474.172028</ele>
        <time>2022-04-24T09:39:30.698Z</time>
      </trkpt>
      <trkpt lat="41.95688" lon="20.98146">
        <ele>474.141278</ele>
        <time>2022-04-24T09:39:32.711Z</time>
      </trkpt>
      <trkpt lat="41.95678" lon="20.98149">
        <ele>474.10986</ele>
        <time>2022-04-24T09:39:34.717Z</time>
      </trkpt>
      <trkpt lat="41.95668" lon="20.98153">
        <ele>474.078273</ele>
        <time>2022-04-24T09:39:36.726Z</time>
      </trkpt>
      <trkpt lat="41.95658" lon="20.98156">
        <ele>474.046438</ele>
        <time>2022-04-24T09:39:38.710Z</time>
      </trkpt>
      <trkpt lat="41.95649" lon="20.98159">
        <ele>474.015633</ele>
        <time>2022-04-24T09:39:40.715Z</time>
      </trkpt>
      <trkpt lat="41.95639" lon="20.98162">
        <ele>473.983397</ele>
        <time>2022-04-24T09:39:42.706Z</time>
      </trkpt>
      <trkpt lat="41.95629" lon="20.98165">
        <ele>473.951006</ele>
        <time>2022-04-24T09:39:44.714Z</time>
      </trkpt>
      <trkpt lat="41.95619" lon="20.98168">
        <ele>473.917947</ele>
        <time>2022-04-24T09:39:46.721Z</time>
      </trkpt>
      <trkpt lat="41.95609" lon="20.98171">
        <ele>473.887658</ele>
        <time>2022-04-24T09:39:48.711Z</time>
      </trkpt>
      <trkpt lat="41.95601" lon="20.98174">
        <ele>473.859107</ele>
        <time>2022-04-24T09:39:50.723Z</time>
      </trkpt>
      <trkpt lat="41.95587" lon="20.98178">
        <ele>473.81652</ele>
        <time>2022-04-24T09:39:53.721Z</time>
      </trkpt>
      <trkpt lat="41.95575" lon="20.98182">
        <ele>473.775557</ele>
        <time>2022-04-24T09:39:56.710Z</time>
      </trkpt>
      <trkpt lat="41.95562" lon="20.98186">
        <ele>473.733426</ele>
        <time>2022-04-24T09:39:59.694Z</time>
      </trkpt>
      <trkpt lat="41.95553" lon="20.9819">
        <ele>473.70403</ele>
        <time>2022-04-24T09:40:01.719Z</time>
      </trkpt>
      <trkpt lat="41.95543" lon="20.98193">
        <ele>473.687644</ele>
        <time>2022-04-24T09:40:03.718Z</time>
      </trkpt>
      <trkpt lat="41.95534" lon="20.98196">
        <ele>473.693749</ele>
        <time>2022-04-24T09:40:05.711Z</time>
      </trkpt>
      <trkpt lat="41.95524" lon="20.982">
        <ele>473.699865</ele>
        <time>2022-04-24T09:40:07.706Z</time>
      </trkpt>
      <trkpt lat="41.95515" lon="20.98203">
        <ele>473.705998</ele>
        <time>2022-04-24T09:40:09.704Z</time>
      </trkpt>
      <trkpt lat="41.95505" lon="20.98206">
        <ele>473.712355</ele>
        <time>2022-04-24T09:40:11.690Z</time>
      </trkpt>
      <trkpt lat="41.95495" lon="20.9821">
        <ele>473.718808</ele>
        <time>2022-04-24T09:40:13.741Z</time>
      </trkpt>
      <trkpt lat="41.95485" lon="20.98214">
        <ele>473.725227</ele>
        <time>2022-04-24T09:40:15.734Z</time>
      </trkpt>
      <trkpt lat="41.95475" lon="20.98217">
        <ele>473.731633</ele>
        <time>2022-04-24T09:40:17.707Z</time>
      </trkpt>
      <trkpt lat="41.95466" lon="20.9822">
        <ele>473.737678</ele>
        <time>2022-04-24T09:40:19.699Z</time>
      </trkpt>
      <trkpt lat="41.95455" lon="20.98224">
        <ele>473.744145</ele>
        <time>2022-04-24T09:40:21.718Z</time>
      </trkpt>
      <trkpt lat="41.95446" lon="20.98227">
        <ele>473.750491</ele>
        <time>2022-04-24T09:40:23.707Z</time>
      </trkpt>
      <trkpt lat="41.95436" lon="20.98231">
        <ele>473.756513</ele>
        <time>2022-04-24T09:40:25.709Z</time>
      </trkpt>
      <trkpt lat="41.95427" lon="20.98234">
        <ele>473.762738</ele>
        <time>2022-04-24T09:40:27.685Z</time>
      </trkpt>
      <trkpt lat="41.95417" lon="20.98237">
        <ele>473.769156</ele>
        <time>2022-04-24T09:40:29.707Z</time>
      </trkpt>
      <trkpt lat="41.95407" lon="20.98241">
        <ele>473.775321</ele>
        <time>2022-04-24T09:40:31.712Z</time>
      </trkpt>
      <trkpt lat="41.95397" lon="20.98244">
        <ele>473.781727</ele>
        <time>2022-04-24T09:40:33.704Z</time>
      </trkpt>
      <trkpt lat="41.95387" lon="20.98247">
        <ele>473.787849</ele>
        <time>2022-04-24T09:40:35.730Z</time>
      </trkpt>
      <trkpt lat="41.95377" lon="20.9825">
        <ele>473.794224</ele>
        <time>2022-04-24T09:40:37.702Z</time>
      </trkpt>
      <trkpt lat="41.95367" lon="20.98253">
        <ele>473.824167</ele>
        <time>2022-04-24T09:40:39.728Z</time>
      </trkpt>
      <trkpt lat="41.95357" lon="20.98256">
        <ele>473.869599</ele>
        <time>2022-04-24T09:40:41.712Z</time>
      </trkpt>
      <trkpt lat="41.95348" lon="20.98259">
        <ele>473.912673</ele>
        <time>2022-04-24T09:40:43.727Z</time>
      </trkpt>
      <trkpt lat="41.95339" lon="20.98262">
        <ele>473.956728</ele>
        <time>2022-04-24T09:40:45.708Z</time>
      </trkpt>
      <trkpt lat="41.9533" lon="20.98266">
        <ele>474.002121</ele>
        <time>2022-04-24T09:40:47.714Z</time>
      </trkpt>
      <trkpt lat="41.9532" lon="20.98269">
        <ele>474.048407</ele>
        <time>2022-04-24T09:40:49.757Z</time>
      </trkpt>
      <trkpt lat="41.9531" lon="20.98273">
        <ele>474.095673</ele>
        <time>2022-04-24T09:40:51.736Z</time>
      </trkpt>
      <trkpt lat="41.953" lon="20.98276">
        <ele>474.143508</ele>
        <time>2022-04-24T09:40:53.721Z</time>
      </trkpt>
      <trkpt lat="41.9529" lon="20.98279">
        <ele>474.191195</ele>
        <time>2022-04-24T09:40:55.713Z</time>
      </trkpt>
      <trkpt lat="41.9528" lon="20.98282">
        <ele>474.237232</ele>
        <time>2022-04-24T09:40:57.695Z</time>
      </trkpt>
      <trkpt lat="41.95271" lon="20.98285">
        <ele>474.282005</ele>
        <time>2022-04-24T09:40:59.711Z</time>
      </trkpt>
      <trkpt lat="41.95261" lon="20.98288">
        <ele>474.327674</ele>
        <time>2022-04-24T09:41:01.717Z</time>
      </trkpt>
      <trkpt lat="41.95252" lon="20.98292">
        <ele>474.373248</ele>
        <time>2022-04-24T09:41:03.714Z</time>
      </trkpt>
      <trkpt lat="41.95242" lon="20.98295">
        <ele>474.417938</ele>
        <time>2022-04-24T09:41:05.726Z</time>
      </trkpt>
      <trkpt lat="41.95233" lon="20.98299">
        <ele>474.463361</ele>
        <time>2022-04-24T09:41:07.717Z</time>
      </trkpt>
      <trkpt lat="41.95223" lon="20.98302">
        <ele>474.509569</ele>
        <time>2022-04-24T09:41:09.726Z</time>
      </trkpt>
      <trkpt lat="41.95213" lon="20.98306">
        <ele>474.556217</ele>
        <time>2022-04-24T09:41:11.734Z</time>
      </trkpt>
      <trkpt lat="41.95204" lon="20.98309">
        <ele>474.602865</ele>
        <time>2022-04-24T09:41:13.716Z</time>
      </trkpt>
      <trkpt lat="41.95193" lon="20.98312">
        <ele>474.61397</ele>
        <time>2022-04-24T09:41:15.699Z</time>
      </trkpt>
      <trkpt lat="41.95184" lon="20.98315">
        <ele>474.588862</ele>
        <time>2022-04-24T09:41:17.708Z</time>
      </trkpt>
      <trkpt lat="41.95175" lon="20.98318">
        <ele>474.564021</ele>
        <time>2022-04-24T09:41:19.707Z</time>
      </trkpt>
      <trkpt lat="41.95166" lon="20.98321">
        <ele>474.538263</ele>
        <time>2022-04-24T09:41:21.706Z</time>
      </trkpt>
      <trkpt lat="41.95157" lon="20.98324">
        <ele>474.51358</ele>
        <time>2022-04-24T09:41:23.721Z</time>
      </trkpt>
      <trkpt lat="41.95148" lon="20.98327">
        <ele>474.489088</ele>
        <time>2022-04-24T09:41:25.719Z</time>
      </trkpt>
      <trkpt lat="41.95138" lon="20.9833">
        <ele>474.464246</ele>
        <time>2022-04-24T09:41:27.714Z</time>
      </trkpt>
      <trkpt lat="41.95129" lon="20.98333">
        <ele>474.439404</ele>
        <time>2022-04-24T09:41:29.710Z</time>
      </trkpt>
      <trkpt lat="41.9512" lon="20.98336">
        <ele>474.414047</ele>
        <time>2022-04-24T09:41:31.694Z</time>
      </trkpt>
      <trkpt lat="41.95111" lon="20.98339">
        <ele>474.389463</ele>
        <time>2022-04-24T09:41:33.750Z</time>
      </trkpt>
      <trkpt lat="41.95102" lon="20.98342">
        <ele>474.363892</ele>
        <time>2022-04-24T09:41:35.702Z</time>
      </trkpt>
      <trkpt lat="41.95092" lon="20.98344">
        <ele>474.338926</ele>
        <time>2022-04-24T09:41:37.707Z</time>
      </trkpt>
      <trkpt lat="41.95083" lon="20.98347">
        <ele>474.31413</ele>
        <time>2022-04-24T09:41:39.728Z</time>
      </trkpt>
      <trkpt lat="41.95075" lon="20.9835">
        <ele>474.290011</ele>
        <time>2022-04-24T09:41:41.709Z</time>
      </trkpt>
      <trkpt lat="41.95066" lon="20.98354">
        <ele>474.265818</ele>
        <time>2022-04-24T09:41:43.719Z</time>
      </trkpt>
      <trkpt lat="41.95056" lon="20.98358">
        <ele>474.238776</ele>
        <time>2022-04-24T09:41:45.731Z</time>
      </trkpt>
      <trkpt lat="41.95046" lon="20.98361">
        <ele>474.210445</ele>
        <time>2022-04-24T09:41:47.717Z</time>
      </trkpt>
      <trkpt lat="41.95036" lon="20.98365">
        <ele>474.183097</ele>
        <time>2022-04-24T09:41:49.736Z</time>
      </trkpt>
      <trkpt lat="41.95026" lon="20.98368">
        <ele>474.156616</ele>
        <time>2022-04-24T09:41:51.742Z</time>
      </trkpt>
      <trkpt lat="41.95017" lon="20.98371">
        <ele>474.194945</ele>
        <time>2022-04-24T09:41:53.703Z</time>
      </trkpt>
      <trkpt lat="41.95007" lon="20.98374">
        <ele>474.253436</ele>
        <time>2022-04-24T09:41:55.715Z</time>
      </trkpt>
      <trkpt lat="41.94998" lon="20.98377">
        <ele>474.312833</ele>
        <time>2022-04-24T09:41:57.702Z</time>
      </trkpt>
      <trkpt lat="41.94988" lon="20.98381">
        <ele>474.372592</ele>
        <time>2022-04-24T09:41:59.723Z</time>
      </trkpt>
      <trkpt lat="41.94978" lon="20.98384">
        <ele>474.431298</ele>
        <time>2022-04-24T09:42:01.708Z</time>
      </trkpt>
      <trkpt lat="41.94969" lon="20.98387">
        <ele>474.488735</ele>
        <time>2022-04-24T09:42:03.718Z</time>
      </trkpt>
      <trkpt lat="41.9496" lon="20.9839">
        <ele>474.546751</ele>
        <time>2022-04-24T09:42:05.712Z</time>
      </trkpt>
      <trkpt lat="41.9495" lon="20.98393">
        <ele>474.603392</ele>
        <time>2022-04-24T09:42:07.711Z</time>
      </trkpt>
      <trkpt lat="41.94941" lon="20.98396">
        <ele>474.660513</ele>
        <time>2022-04-24T09:42:09.710Z</time>
      </trkpt>
      <trkpt lat="41.94932" lon="20.98399">
        <ele>474.719585</ele>
        <time>2022-04-24T09:42:11.695Z</time>
      </trkpt>
      <trkpt lat="41.94922" lon="20.98402">
        <ele>474.777494</ele>
        <time>2022-04-24T09:42:13.714Z</time>
      </trkpt>
      <trkpt lat="41.94913" lon="20.98406">
        <ele>474.836548</ele>
        <time>2022-04-24T09:42:15.706Z</time>
      </trkpt>
      <trkpt lat="41.94903" lon="20.98409">
        <ele>474.895518</ele>
        <time>2022-04-24T09:42:17.716Z</time>
      </trkpt>
      <trkpt lat="41.94893" lon="20.98412">
        <ele>474.956725</ele>
        <time>2022-04-24T09:42:19.721Z</time>
      </trkpt>
      <trkpt lat="41.94883" lon="20.98415">
        <ele>475.016011</ele>
        <time>2022-04-24T09:42:21.716Z</time>
      </trkpt>
      <trkpt lat="41.94874" lon="20.98418">
        <ele>475.073816</ele>
        <time>2022-04-24T09:42:23.709Z</time>
      </trkpt>
      <trkpt lat="41.94865" lon="20.98422">
        <ele>475.130447</ele>
        <time>2022-04-24T09:42:25.739Z</time>
      </trkpt>
      <trkpt lat="41.94856" lon="20.98425">
        <ele>475.187653</ele>
        <time>2022-04-24T09:42:27.727Z</time>
      </trkpt>
      <trkpt lat="41.94846" lon="20.98429">
        <ele>475.240922</ele>
        <time>2022-04-24T09:42:29.783Z</time>
      </trkpt>
      <trkpt lat="41.94836" lon="20.98432">
        <ele>475.281097</ele>
        <time>2022-04-24T09:42:31.725Z</time>
      </trkpt>
      <trkpt lat="41.94826" lon="20.98435">
        <ele>475.320239</ele>
        <time>2022-04-24T09:42:33.693Z</time>
      </trkpt>
      <trkpt lat="41.94816" lon="20.98439">
        <ele>475.362592</ele>
        <time>2022-04-24T09:42:35.711Z</time>
      </trkpt>
      <trkpt lat="41.94807" lon="20.98442">
        <ele>475.398703</ele>
        <time>2022-04-24T09:42:37.729Z</time>
      </trkpt>
      <trkpt lat="41.94797" lon="20.98445">
        <ele>475.436851</ele>
        <time>2022-04-24T09:42:39.716Z</time>
      </trkpt>
      <trkpt lat="41.94788" lon="20.98448">
        <ele>475.472902</ele>
        <time>2022-04-24T09:42:41.685Z</time>
      </trkpt>
      <trkpt lat="41.94779" lon="20.98451">
        <ele>475.508312</ele>
        <time>2022-04-24T09:42:43.732Z</time>
      </trkpt>
      <trkpt lat="41.94767" lon="20.98454">
        <ele>475.556937</ele>
        <time>2022-04-24T09:42:46.693Z</time>
      </trkpt>
      <trkpt lat="41.94758" lon="20.98457">
        <ele>475.592233</ele>
        <time>2022-04-24T09:42:48.703Z</time>
      </trkpt>
      <trkpt lat="41.94749" lon="20.9846">
        <ele>475.627226</ele>
        <time>2022-04-24T09:42:50.707Z</time>
      </trkpt>
      <trkpt lat="41.94736" lon="20.98465">
        <ele>475.679794</ele>
        <time>2022-04-24T09:42:53.715Z</time>
      </trkpt>
      <trkpt lat="41.94727" lon="20.98468">
        <ele>475.716292</ele>
        <time>2022-04-24T09:42:55.741Z</time>
      </trkpt>
      <trkpt lat="41.94715" lon="20.98473">
        <ele>475.767131</ele>
        <time>2022-04-24T09:42:58.734Z</time>
      </trkpt>
      <trkpt lat="41.94702" lon="20.98477">
        <ele>475.819424</ele>
        <time>2022-04-24T09:43:01.729Z</time>
      </trkpt>
      <trkpt lat="41.94693" lon="20.98478">
        <ele>475.854513</ele>
        <time>2022-04-24T09:43:03.701Z</time>
      </trkpt>
      <trkpt lat="41.94683" lon="20.98476">
        <ele>475.892088</ele>
        <time>2022-04-24T09:43:05.702Z</time>
      </trkpt>
      <trkpt lat="41.94674" lon="20.98473">
        <ele>475.933385</ele>
        <time>2022-04-24T09:43:07.722Z</time>
      </trkpt>
      <trkpt lat="41.94665" lon="20.98469">
        <ele>476.042887</ele>
        <time>2022-04-24T09:43:09.759Z</time>
      </trkpt>
      <trkpt lat="41.94656" lon="20.98466">
        <ele>476.154321</ele>
        <time>2022-04-24T09:43:11.717Z</time>
      </trkpt>
      <trkpt lat="41.94646" lon="20.98463">
        <ele>476.265075</ele>
        <time>2022-04-24T09:43:13.731Z</time>
      </trkpt>
      <trkpt lat="41.94637" lon="20.98459">
        <ele>476.374711</ele>
        <time>2022-04-24T09:43:15.703Z</time>
      </trkpt>
      <trkpt lat="41.94628" lon="20.98455">
        <ele>476.486431</ele>
        <time>2022-04-24T09:43:17.722Z</time>
      </trkpt>
      <trkpt lat="41.94619" lon="20.98452">
        <ele>476.59696</ele>
        <time>2022-04-24T09:43:19.705Z</time>
      </trkpt>
      <trkpt lat="41.94609" lon="20.98449">
        <ele>476.713321</ele>
        <time>2022-04-24T09:43:21.711Z</time>
      </trkpt>
      <trkpt lat="41.946" lon="20.98445">
        <ele>476.823678</ele>
        <time>2022-04-24T09:43:23.745Z</time>
      </trkpt>
      <trkpt lat="41.94591" lon="20.98441">
        <ele>476.934813</ele>
        <time>2022-04-24T09:43:25.727Z</time>
      </trkpt>
      <trkpt lat="41.94582" lon="20.98438">
        <ele>477.0458</ele>
        <time>2022-04-24T09:43:27.699Z</time>
      </trkpt>
      <trkpt lat="41.94573" lon="20.98434">
        <ele>477.155436</ele>
        <time>2022-04-24T09:43:29.706Z</time>
      </trkpt>
      <trkpt lat="41.94564" lon="20.9843">
        <ele>477.266842</ele>
        <time>2022-04-24T09:43:31.696Z</time>
      </trkpt>
      <trkpt lat="41.94554" lon="20.98426">
        <ele>477.378818</ele>
        <time>2022-04-24T09:43:33.725Z</time>
      </trkpt>
      <trkpt lat="41.94544" lon="20.98423">
        <ele>477.497867</ele>
        <time>2022-04-24T09:43:35.703Z</time>
      </trkpt>
      <trkpt lat="41.94534" lon="20.98419">
        <ele>477.61852</ele>
        <time>2022-04-24T09:43:37.719Z</time>
      </trkpt>
      <trkpt lat="41.94525" lon="20.98416">
        <ele>477.734255</ele>
        <time>2022-04-24T09:43:39.705Z</time>
      </trkpt>
      <trkpt lat="41.94515" lon="20.98413">
        <ele>477.854424</ele>
        <time>2022-04-24T09:43:41.710Z</time>
      </trkpt>
      <trkpt lat="41.94505" lon="20.98409">
        <ele>477.973935</ele>
        <time>2022-04-24T09:43:43.719Z</time>
      </trkpt>
      <trkpt lat="41.94495" lon="20.98405">
        <ele>478.035125</ele>
        <time>2022-04-24T09:43:45.739Z</time>
      </trkpt>
      <trkpt lat="41.94486" lon="20.98402">
        <ele>478.067157</ele>
        <time>2022-04-24T09:43:47.690Z</time>
      </trkpt>
      <trkpt lat="41.94476" lon="20.98398">
        <ele>478.098685</ele>
        <time>2022-04-24T09:43:49.699Z</time>
      </trkpt>
      <trkpt lat="41.94467" lon="20.98395">
        <ele>478.129339</ele>
        <time>2022-04-24T09:43:51.713Z</time>
      </trkpt>
      <trkpt lat="41.94458" lon="20.98391">
        <ele>478.16238</ele>
        <time>2022-04-24T09:43:53.721Z</time>
      </trkpt>
      <trkpt lat="41.94448" lon="20.98388">
        <ele>478.19624</ele>
        <time>2022-04-24T09:43:55.720Z</time>
      </trkpt>
      <trkpt lat="41.94438" lon="20.98384">
        <ele>478.229471</ele>
        <time>2022-04-24T09:43:57.727Z</time>
      </trkpt>
      <trkpt lat="41.94428" lon="20.9838">
        <ele>478.261658</ele>
        <time>2022-04-24T09:43:59.704Z</time>
      </trkpt>
      <trkpt lat="41.94419" lon="20.98375">
        <ele>478.294705</ele>
        <time>2022-04-24T09:44:01.712Z</time>
      </trkpt>
      <trkpt lat="41.94409" lon="20.9837">
        <ele>478.329597</ele>
        <time>2022-04-24T09:44:03.724Z</time>
      </trkpt>
      <trkpt lat="41.94398" lon="20.98367">
        <ele>478.365474</ele>
        <time>2022-04-24T09:44:05.696Z</time>
      </trkpt>
      <trkpt lat="41.94388" lon="20.98363">
        <ele>478.40025</ele>
        <time>2022-04-24T09:44:07.734Z</time>
      </trkpt>
      <trkpt lat="41.94378" lon="20.9836">
        <ele>478.433669</ele>
        <time>2022-04-24T09:44:09.719Z</time>
      </trkpt>
      <trkpt lat="41.94368" lon="20.98356">
        <ele>478.466026</ele>
        <time>2022-04-24T09:44:11.714Z</time>
      </trkpt>
      <trkpt lat="41.94359" lon="20.98352">
        <ele>478.498943</ele>
        <time>2022-04-24T09:44:13.722Z</time>
      </trkpt>
      <trkpt lat="41.9435" lon="20.98349">
        <ele>478.529739</ele>
        <time>2022-04-24T09:44:15.723Z</time>
      </trkpt>
      <trkpt lat="41.94341" lon="20.98345">
        <ele>478.561305</ele>
        <time>2022-04-24T09:44:17.734Z</time>
      </trkpt>
      <trkpt lat="41.94331" lon="20.98341">
        <ele>478.593147</ele>
        <time>2022-04-24T09:44:19.728Z</time>
      </trkpt>
      <trkpt lat="41.94322" lon="20.98338">
        <ele>478.66303</ele>
        <time>2022-04-24T09:44:21.713Z</time>
      </trkpt>
      <trkpt lat="41.94313" lon="20.98334">
        <ele>478.74426</ele>
        <time>2022-04-24T09:44:23.710Z</time>
      </trkpt>
      <trkpt lat="41.94303" lon="20.98331">
        <ele>478.825683</ele>
        <time>2022-04-24T09:44:25.700Z</time>
      </trkpt>
      <trkpt lat="41.94294" lon="20.98328">
        <ele>478.905605</ele>
        <time>2022-04-24T09:44:27.711Z</time>
      </trkpt>
      <trkpt lat="41.94284" lon="20.98325">
        <ele>478.991316</ele>
        <time>2022-04-24T09:44:29.709Z</time>
      </trkpt>
      <trkpt lat="41.94274" lon="20.98322">
        <ele>479.078466</ele>
        <time>2022-04-24T09:44:31.735Z</time>
      </trkpt>
      <trkpt lat="41.94265" lon="20.98318">
        <ele>479.160354</ele>
        <time>2022-04-24T09:44:33.721Z</time>
      </trkpt>
      <trkpt lat="41.94256" lon="20.98315">
        <ele>479.240478</ele>
        <time>2022-04-24T09:44:35.724Z</time>
      </trkpt>
      <trkpt lat="41.94247" lon="20.98311">
        <ele>479.318976</ele>
        <time>2022-04-24T09:44:37.742Z</time>
      </trkpt>
      <trkpt lat="41.94238" lon="20.98307">
        <ele>479.400551</ele>
        <time>2022-04-24T09:44:39.730Z</time>
      </trkpt>
      <trkpt lat="41.94229" lon="20.98303">
        <ele>479.485117</ele>
        <time>2022-04-24T09:44:41.730Z</time>
      </trkpt>
      <trkpt lat="41.94219" lon="20.983">
        <ele>479.566347</ele>
        <time>2022-04-24T09:44:43.713Z</time>
      </trkpt>
      <trkpt lat="41.9421" lon="20.98297">
        <ele>479.649574</ele>
        <time>2022-04-24T09:44:45.697Z</time>
      </trkpt>
      <trkpt lat="41.94201" lon="20.98294">
        <ele>479.731682</ele>
        <time>2022-04-24T09:44:47.710Z</time>
      </trkpt>
      <trkpt lat="41.94191" lon="20.98291">
        <ele>479.812585</ele>
        <time>2022-04-24T09:44:49.711Z</time>
      </trkpt>
      <trkpt lat="41.94182" lon="20.98287">
        <ele>479.895715</ele>
        <time>2022-04-24T09:44:51.704Z</time>
      </trkpt>
      <trkpt lat="41.94173" lon="20.98283">
        <ele>479.976839</ele>
        <time>2022-04-24T09:44:53.715Z</time>
      </trkpt>
      <trkpt lat="41.94163" lon="20.98279">
        <ele>480.061522</ele>
        <time>2022-04-24T09:44:55.714Z</time>
      </trkpt>
      <trkpt lat="41.94154" lon="20.98276">
        <ele>480.136041</ele>
        <time>2022-04-24T09:44:57.745Z</time>
      </trkpt>
      <trkpt lat="41.94145" lon="20.98273">
        <ele>480.160856</ele>
        <time>2022-04-24T09:44:59.723Z</time>
      </trkpt>
      <trkpt lat="41.94136" lon="20.98269">
        <ele>480.184576</ele>
        <time>2022-04-24T09:45:01.727Z</time>
      </trkpt>
      <trkpt lat="41.94127" lon="20.98266">
        <ele>480.207846</ele>
        <time>2022-04-24T09:45:03.714Z</time>
      </trkpt>
      <trkpt lat="41.94118" lon="20.98263">
        <ele>480.231965</ele>
        <time>2022-04-24T09:45:05.710Z</time>
      </trkpt>
      <trkpt lat="41.94109" lon="20.9826">
        <ele>480.255296</ele>
        <time>2022-04-24T09:45:07.708Z</time>
      </trkpt>
      <trkpt lat="41.94097" lon="20.98255">
        <ele>480.289739</ele>
        <time>2022-04-24T09:45:10.710Z</time>
      </trkpt>
      <trkpt lat="41.94084" lon="20.9825">
        <ele>480.323744</ele>
        <time>2022-04-24T09:45:13.722Z</time>
      </trkpt>
      <trkpt lat="41.94075" lon="20.98246">
        <ele>480.347286</ele>
        <time>2022-04-24T09:45:15.702Z</time>
      </trkpt>
      <trkpt lat="41.94066" lon="20.98243">
        <ele>480.371706</ele>
        <time>2022-04-24T09:45:17.711Z</time>
      </trkpt>
      <trkpt lat="41.94057" lon="20.98239">
        <ele>480.395248</ele>
        <time>2022-04-24T09:45:19.712Z</time>
      </trkpt>
      <trkpt lat="41.94049" lon="20.98235">
        <ele>480.419282</ele>
        <time>2022-04-24T09:45:21.706Z</time>
      </trkpt>
      <trkpt lat="41.9404" lon="20.98232">
        <ele>480.443454</ele>
        <time>2022-04-24T09:45:23.712Z</time>
      </trkpt>
      <trkpt lat="41.94031" lon="20.98228">
        <ele>480.467324</ele>
        <time>2022-04-24T09:45:25.704Z</time>
      </trkpt>
      <trkpt lat="41.94021" lon="20.98225">
        <ele>480.492293</ele>
        <time>2022-04-24T09:45:27.740Z</time>
      </trkpt>
      <trkpt lat="41.94012" lon="20.98221">
        <ele>480.517068</ele>
        <time>2022-04-24T09:45:29.711Z</time>
      </trkpt>
      <trkpt lat="41.94003" lon="20.98217">
        <ele>480.541984</ele>
        <time>2022-04-24T09:45:31.705Z</time>
      </trkpt>
      <trkpt lat="41.93993" lon="20.98214">
        <ele>480.567397</ele>
        <time>2022-04-24T09:45:33.752Z</time>
      </trkpt>
      <trkpt lat="41.93984" lon="20.98211">
        <ele>480.592164</ele>
        <time>2022-04-24T09:45:35.729Z</time>
      </trkpt>
      <trkpt lat="41.93975" lon="20.98208">
        <ele>480.684544</ele>
        <time>2022-04-24T09:45:37.719Z</time>
      </trkpt>
      <trkpt lat="41.93965" lon="20.98205">
        <ele>480.804126</ele>
        <time>2022-04-24T09:45:39.727Z</time>
      </trkpt>
      <trkpt lat="41.93955" lon="20.98202">
        <ele>480.921242</ele>
        <time>2022-04-24T09:45:41.733Z</time>
      </trkpt>
      <trkpt lat="41.93946" lon="20.98199">
        <ele>481.038021</ele>
        <time>2022-04-24T09:45:43.704Z</time>
      </trkpt>
      <trkpt lat="41.93937" lon="20.98195">
        <ele>481.146495</ele>
        <time>2022-04-24T09:45:45.733Z</time>
      </trkpt>
      <trkpt lat="41.93928" lon="20.98191">
        <ele>481.25353</ele>
        <time>2022-04-24T09:45:47.694Z</time>
      </trkpt>
      <trkpt lat="41.93919" lon="20.98187">
        <ele>481.35974</ele>
        <time>2022-04-24T09:45:49.712Z</time>
      </trkpt>
      <trkpt lat="41.9391" lon="20.98184">
        <ele>481.468849</ele>
        <time>2022-04-24T09:45:51.702Z</time>
      </trkpt>
      <trkpt lat="41.93898" lon="20.98179">
        <ele>481.615476</ele>
        <time>2022-04-24T09:45:54.710Z</time>
      </trkpt>
      <trkpt lat="41.9389" lon="20.98175">
        <ele>481.721219</ele>
        <time>2022-04-24T09:45:56.710Z</time>
      </trkpt>
      <trkpt lat="41.93881" lon="20.98171">
        <ele>481.830471</ele>
        <time>2022-04-24T09:45:58.707Z</time>
      </trkpt>
      <trkpt lat="41.93871" lon="20.98167">
        <ele>481.950259</ele>
        <time>2022-04-24T09:46:00.713Z</time>
      </trkpt>
      <trkpt lat="41.93861" lon="20.98163">
        <ele>482.072904</ele>
        <time>2022-04-24T09:46:02.718Z</time>
      </trkpt>
      <trkpt lat="41.93851" lon="20.98159">
        <ele>482.198033</ele>
        <time>2022-04-24T09:46:04.707Z</time>
      </trkpt>
      <trkpt lat="41.9384" lon="20.98155">
        <ele>482.324047</ele>
        <time>2022-04-24T09:46:06.741Z</time>
      </trkpt>
      <trkpt lat="41.9383" lon="20.98152">
        <ele>482.449387</ele>
        <time>2022-04-24T09:46:08.726Z</time>
      </trkpt>
      <trkpt lat="41.9382" lon="20.98148">
        <ele>482.572919</ele>
        <time>2022-04-24T09:46:10.695Z</time>
      </trkpt>
      <trkpt lat="41.9381" lon="20.98144">
        <ele>482.688116</ele>
        <time>2022-04-24T09:46:12.707Z</time>
      </trkpt>
      <trkpt lat="41.938" lon="20.98141">
        <ele>482.648653</ele>
        <time>2022-04-24T09:46:14.713Z</time>
      </trkpt>
      <trkpt lat="41.93791" lon="20.98137">
        <ele>482.598833</ele>
        <time>2022-04-24T09:46:16.699Z</time>
      </trkpt>
      <trkpt lat="41.93781" lon="20.98133">
        <ele>482.5488</ele>
        <time>2022-04-24T09:46:18.706Z</time>
      </trkpt>
      <trkpt lat="41.93772" lon="20.9813">
        <ele>482.499183</ele>
        <time>2022-04-24T09:46:20.711Z</time>
      </trkpt>
      <trkpt lat="41.93762" lon="20.98126">
        <ele>482.448982</ele>
        <time>2022-04-24T09:46:22.711Z</time>
      </trkpt>
      <trkpt lat="41.93753" lon="20.98123">
        <ele>482.39878</ele>
        <time>2022-04-24T09:46:24.729Z</time>
      </trkpt>
      <trkpt lat="41.93744" lon="20.98119">
        <ele>482.350782</ele>
        <time>2022-04-24T09:46:26.728Z</time>
      </trkpt>
      <trkpt lat="41.93734" lon="20.98115">
        <ele>482.300857</ele>
        <time>2022-04-24T09:46:28.694Z</time>
      </trkpt>
      <trkpt lat="41.93725" lon="20.98111">
        <ele>482.252378</ele>
        <time>2022-04-24T09:46:30.694Z</time>
      </trkpt>
      <trkpt lat="41.93712" lon="20.98106">
        <ele>482.185825</ele>
        <time>2022-04-24T09:46:33.710Z</time>
      </trkpt>
      <trkpt lat="41.93703" lon="20.98103">
        <ele>482.139705</ele>
        <time>2022-04-24T09:46:35.727Z</time>
      </trkpt>
      <trkpt lat="41.93694" lon="20.98099">
        <ele>482.09106</ele>
        <time>2022-04-24T09:46:37.721Z</time>
      </trkpt>
      <trkpt lat="41.93684" lon="20.98096">
        <ele>482.039683</ele>
        <time>2022-04-24T09:46:39.703Z</time>
      </trkpt>
      <trkpt lat="41.93674" lon="20.98093">
        <ele>481.988121</ele>
        <time>2022-04-24T09:46:41.711Z</time>
      </trkpt>
      <trkpt lat="41.93664" lon="20.98089">
        <ele>481.936261</ele>
        <time>2022-04-24T09:46:43.705Z</time>
      </trkpt>
      <trkpt lat="41.93655" lon="20.98085">
        <ele>481.884885</ele>
        <time>2022-04-24T09:46:45.710Z</time>
      </trkpt>
      <trkpt lat="41.93645" lon="20.98081">
        <ele>481.834684</ele>
        <time>2022-04-24T09:46:47.731Z</time>
      </trkpt>
      <trkpt lat="41.93636" lon="20.98078">
        <ele>481.790157</ele>
        <time>2022-04-24T09:46:49.710Z</time>
      </trkpt>
      <trkpt lat="41.93626" lon="20.98074">
        <ele>481.793377</ele>
        <time>2022-04-24T09:46:51.715Z</time>
      </trkpt>
      <trkpt lat="41.93616" lon="20.9807">
        <ele>481.796506</ele>
        <time>2022-04-24T09:46:53.728Z</time>
      </trkpt>
      <trkpt lat="41.93606" lon="20.98067">
        <ele>481.799653</ele>
        <time>2022-04-24T09:46:55.723Z</time>
      </trkpt>
      <trkpt lat="41.93597" lon="20.98063">
        <ele>481.802849</ele>
        <time>2022-04-24T09:46:57.715Z</time>
      </trkpt>
      <trkpt lat="41.93587" lon="20.98059">
        <ele>481.805899</ele>
        <time>2022-04-24T09:46:59.703Z</time>
      </trkpt>
      <trkpt lat="41.93575" lon="20.98054">
        <ele>481.809954</ele>
        <time>2022-04-24T09:47:02.705Z</time>
      </trkpt>
      <trkpt lat="41.93566" lon="20.98051">
        <ele>481.81281</ele>
        <time>2022-04-24T09:47:04.723Z</time>
      </trkpt>
      <trkpt lat="41.93557" lon="20.98047">
        <ele>481.815897</ele>
        <time>2022-04-24T09:47:06.710Z</time>
      </trkpt>
      <trkpt lat="41.93547" lon="20.98044">
        <ele>481.819037</ele>
        <time>2022-04-24T09:47:08.721Z</time>
      </trkpt>
      <trkpt lat="41.93537" lon="20.9804">
        <ele>481.822094</ele>
        <time>2022-04-24T09:47:10.710Z</time>
      </trkpt>
      <trkpt lat="41.93528" lon="20.98036">
        <ele>481.825296</ele>
        <time>2022-04-24T09:47:12.711Z</time>
      </trkpt>
      <trkpt lat="41.93518" lon="20.98032">
        <ele>481.828396</ele>
        <time>2022-04-24T09:47:14.722Z</time>
      </trkpt>
      <trkpt lat="41.93508" lon="20.98028">
        <ele>481.831748</ele>
        <time>2022-04-24T09:47:16.722Z</time>
      </trkpt>
      <trkpt lat="41.93498" lon="20.98025">
        <ele>481.834961</ele>
        <time>2022-04-24T09:47:18.718Z</time>
      </trkpt>
      <trkpt lat="41.93488" lon="20.98021">
        <ele>481.838072</ele>
        <time>2022-04-24T09:47:20.711Z</time>
      </trkpt>
      <trkpt lat="41.93479" lon="20.98017">
        <ele>481.841165</ele>
        <time>2022-04-24T09:47:22.707Z</time>
      </trkpt>
      <trkpt lat="41.93469" lon="20.98014">
        <ele>481.844245</ele>
        <time>2022-04-24T09:47:24.702Z</time>
      </trkpt>
      <trkpt lat="41.9346" lon="20.98011">
        <ele>481.850325</ele>
        <time>2022-04-24T09:47:26.731Z</time>
      </trkpt>
      <trkpt lat="41.9345" lon="20.98007">
        <ele>481.860768</ele>
        <time>2022-04-24T09:47:28.731Z</time>
      </trkpt>
      <trkpt lat="41.93441" lon="20.98004">
        <ele>481.871501</ele>
        <time>2022-04-24T09:47:30.718Z</time>
      </trkpt>
      <trkpt lat="41.93431" lon="20.98">
        <ele>481.88215</ele>
        <time>2022-04-24T09:47:32.718Z</time>
      </trkpt>
      <trkpt lat="41.93422" lon="20.97997">
        <ele>481.892387</ele>
        <time>2022-04-24T09:47:34.704Z</time>
      </trkpt>
      <trkpt lat="41.9341" lon="20.97991">
        <ele>481.906037</ele>
        <time>2022-04-24T09:47:37.733Z</time>
      </trkpt>
      <trkpt lat="41.93397" lon="20.97986">
        <ele>481.920322</ele>
        <time>2022-04-24T09:47:40.711Z</time>
      </trkpt>
      <trkpt lat="41.93386" lon="20.97982">
        <ele>481.932007</ele>
        <time>2022-04-24T09:47:42.698Z</time>
      </trkpt>
      <trkpt lat="41.93376" lon="20.97978">
        <ele>481.943778</ele>
        <time>2022-04-24T09:47:44.722Z</time>
      </trkpt>
      <trkpt lat="41.93365" lon="20.97975">
        <ele>481.955201</ele>
        <time>2022-04-24T09:47:46.700Z</time>
      </trkpt>
      <trkpt lat="41.93356" lon="20.97972">
        <ele>481.965975</ele>
        <time>2022-04-24T09:47:48.694Z</time>
      </trkpt>
      <trkpt lat="41.93346" lon="20.97968">
        <ele>481.977038</ele>
        <time>2022-04-24T09:47:50.720Z</time>
      </trkpt>
      <trkpt lat="41.93336" lon="20.97965">
        <ele>481.987895</ele>
        <time>2022-04-24T09:47:52.713Z</time>
      </trkpt>
      <trkpt lat="41.93326" lon="20.97961">
        <ele>481.998668</ele>
        <time>2022-04-24T09:47:54.710Z</time>
      </trkpt>
      <trkpt lat="41.93316" lon="20.97957">
        <ele>482.009464</ele>
        <time>2022-04-24T09:47:56.705Z</time>
      </trkpt>
      <trkpt lat="41.93307" lon="20.97953">
        <ele>482.020406</ele>
        <time>2022-04-24T09:47:58.705Z</time>
      </trkpt>
      <trkpt lat="41.93297" lon="20.9795">
        <ele>482.031035</ele>
        <time>2022-04-24T09:48:00.714Z</time>
      </trkpt>
      <trkpt lat="41.93288" lon="20.97946">
        <ele>482.0535</ele>
        <time>2022-04-24T09:48:02.698Z</time>
      </trkpt>
      <trkpt lat="41.93279" lon="20.97943">
        <ele>482.104752</ele>
        <time>2022-04-24T09:48:04.699Z</time>
      </trkpt>
      <trkpt lat="41.93266" lon="20.97937">
        <ele>482.178329</ele>
        <time>2022-04-24T09:48:07.706Z</time>
      </trkpt>
      <trkpt lat="41.93253" lon="20.97933">
        <ele>482.250062</ele>
        <time>2022-04-24T09:48:10.713Z</time>
      </trkpt>
      <trkpt lat="41.93241" lon="20.97929">
        <ele>482.315706</ele>
        <time>2022-04-24T09:48:13.715Z</time>
      </trkpt>
      <trkpt lat="41.93229" lon="20.97924">
        <ele>482.387249</ele>
        <time>2022-04-24T09:48:16.723Z</time>
      </trkpt>
      <trkpt lat="41.9322" lon="20.97921">
        <ele>482.436161</ele>
        <time>2022-04-24T09:48:18.697Z</time>
      </trkpt>
      <trkpt lat="41.93211" lon="20.97917">
        <ele>482.488753</ele>
        <time>2022-04-24T09:48:20.695Z</time>
      </trkpt>
      <trkpt lat="41.93201" lon="20.97914">
        <ele>482.54198</ele>
        <time>2022-04-24T09:48:22.701Z</time>
      </trkpt>
      <trkpt lat="41.93189" lon="20.97909">
        <ele>482.612364</ele>
        <time>2022-04-24T09:48:25.706Z</time>
      </trkpt>
      <trkpt lat="41.93177" lon="20.97905">
        <ele>482.678735</ele>
        <time>2022-04-24T09:48:28.710Z</time>
      </trkpt>
      <trkpt lat="41.93168" lon="20.97901">
        <ele>482.729431</ele>
        <time>2022-04-24T09:48:30.714Z</time>
      </trkpt>
      <trkpt lat="41.93159" lon="20.97898">
        <ele>482.781391</ele>
        <time>2022-04-24T09:48:32.706Z</time>
      </trkpt>
      <trkpt lat="41.93149" lon="20.97894">
        <ele>482.835558</ele>
        <time>2022-04-24T09:48:34.712Z</time>
      </trkpt>
      <trkpt lat="41.9314" lon="20.97891">
        <ele>482.88815</ele>
        <time>2022-04-24T09:48:36.703Z</time>
      </trkpt>
      <trkpt lat="41.9313" lon="20.97888">
        <ele>482.941293</ele>
        <time>2022-04-24T09:48:38.710Z</time>
      </trkpt>
      <trkpt lat="41.93121" lon="20.97884">
        <ele>482.992314</ele>
        <time>2022-04-24T09:48:40.730Z</time>
      </trkpt>
      <trkpt lat="41.93112" lon="20.97881">
        <ele>483.040888</ele>
        <time>2022-04-24T09:48:42.702Z</time>
      </trkpt>
      <trkpt lat="41.93103" lon="20.97877">
        <ele>483.086627</ele>
        <time>2022-04-24T09:48:44.702Z</time>
      </trkpt>
      <trkpt lat="41.93094" lon="20.97874">
        <ele>483.131102</ele>
        <time>2022-04-24T09:48:46.715Z</time>
      </trkpt>
      <trkpt lat="41.93085" lon="20.9787">
        <ele>483.175324</ele>
        <time>2022-04-24T09:48:48.730Z</time>
      </trkpt>
      <trkpt lat="41.93075" lon="20.97867">
        <ele>483.221155</ele>
        <time>2022-04-24T09:48:50.701Z</time>
      </trkpt>
      <trkpt lat="41.93066" lon="20.97863">
        <ele>483.265988</ele>
        <time>2022-04-24T09:48:52.718Z</time>
      </trkpt>
      <trkpt lat="41.93057" lon="20.9786">
        <ele>483.309643</ele>
        <time>2022-04-24T09:48:54.707Z</time>
      </trkpt>
      <trkpt lat="41.93048" lon="20.97857">
        <ele>483.353669</ele>
        <time>2022-04-24T09:48:56.704Z</time>
      </trkpt>
      <trkpt lat="41.93039" lon="20.97854">
        <ele>483.395872</ele>
        <time>2022-04-24T09:48:58.709Z</time>
      </trkpt>
      <trkpt lat="41.93031" lon="20.97851">
        <ele>483.438443</ele>
        <time>2022-04-24T09:49:00.730Z</time>
      </trkpt>
      <trkpt lat="41.93022" lon="20.97847">
        <ele>483.483015</ele>
        <time>2022-04-24T09:49:02.698Z</time>
      </trkpt>
      <trkpt lat="41.93012" lon="20.97844">
        <ele>483.527587</ele>
        <time>2022-04-24T09:49:04.720Z</time>
      </trkpt>
      <trkpt lat="41.93003" lon="20.9784">
        <ele>483.573965</ele>
        <time>2022-04-24T09:49:06.708Z</time>
      </trkpt>
      <trkpt lat="41.9299" lon="20.97835">
        <ele>483.635501</ele>
        <time>2022-04-24T09:49:09.733Z</time>
      </trkpt>
      <trkpt lat="41.92979" lon="20.97831">
        <ele>483.692429</ele>
        <time>2022-04-24T09:49:12.709Z</time>
      </trkpt>
      <trkpt lat="41.9297" lon="20.97827">
        <ele>483.735904</ele>
        <time>2022-04-24T09:49:14.706Z</time>
      </trkpt>
      <trkpt lat="41.92957" lon="20.97822">
        <ele>483.801086</ele>
        <time>2022-04-24T09:49:17.697Z</time>
      </trkpt>
      <trkpt lat="41.92947" lon="20.97818">
        <ele>483.84737</ele>
        <time>2022-04-24T09:49:19.716Z</time>
      </trkpt>
      <trkpt lat="41.92937" lon="20.97815">
        <ele>483.939485</ele>
        <time>2022-04-24T09:49:21.709Z</time>
      </trkpt>
      <trkpt lat="41.92927" lon="20.97811">
        <ele>484.056536</ele>
        <time>2022-04-24T09:49:23.735Z</time>
      </trkpt>
      <trkpt lat="41.92918" lon="20.97808">
        <ele>484.170515</ele>
        <time>2022-04-24T09:49:25.716Z</time>
      </trkpt>
      <trkpt lat="41.92908" lon="20.97804">
        <ele>484.281625</ele>
        <time>2022-04-24T09:49:27.713Z</time>
      </trkpt>
      <trkpt lat="41.92899" lon="20.97801">
        <ele>484.390774</ele>
        <time>2022-04-24T09:49:29.720Z</time>
      </trkpt>
      <trkpt lat="41.9289" lon="20.97797">
        <ele>484.498234</ele>
        <time>2022-04-24T09:49:31.713Z</time>
      </trkpt>
      <trkpt lat="41.92881" lon="20.97793">
        <ele>484.606922</ele>
        <time>2022-04-24T09:49:33.710Z</time>
      </trkpt>
      <trkpt lat="41.92872" lon="20.9779">
        <ele>484.714742</ele>
        <time>2022-04-24T09:49:35.697Z</time>
      </trkpt>
      <trkpt lat="41.92863" lon="20.97786">
        <ele>484.820139</ele>
        <time>2022-04-24T09:49:37.706Z</time>
      </trkpt>
      <trkpt lat="41.9285" lon="20.97781">
        <ele>484.973216</ele>
        <time>2022-04-24T09:49:40.710Z</time>
      </trkpt>
      <trkpt lat="41.92841" lon="20.97778">
        <ele>485.076423</ele>
        <time>2022-04-24T09:49:42.694Z</time>
      </trkpt>
      <trkpt lat="41.92832" lon="20.97774">
        <ele>485.18247</ele>
        <time>2022-04-24T09:49:44.716Z</time>
      </trkpt>
      <trkpt lat="41.92823" lon="20.97771">
        <ele>485.288517</ele>
        <time>2022-04-24T09:49:46.709Z</time>
      </trkpt>
      <trkpt lat="41.92815" lon="20.97768">
        <ele>485.391264</ele>
        <time>2022-04-24T09:49:48.716Z</time>
      </trkpt>
      <trkpt lat="41.92802" lon="20.97763">
        <ele>485.542251</ele>
        <time>2022-04-24T09:49:51.727Z</time>
      </trkpt>
      <trkpt lat="41.9279" lon="20.97758">
        <ele>485.688631</ele>
        <time>2022-04-24T09:49:54.696Z</time>
      </trkpt>
      <trkpt lat="41.92777" lon="20.97753">
        <ele>485.84266</ele>
        <time>2022-04-24T09:49:57.755Z</time>
      </trkpt>
      <trkpt lat="41.92768" lon="20.9775">
        <ele>485.928066</ele>
        <time>2022-04-24T09:49:59.718Z</time>
      </trkpt>
      <trkpt lat="41.92755" lon="20.97745">
        <ele>485.999358</ele>
        <time>2022-04-24T09:50:02.694Z</time>
      </trkpt>
      <trkpt lat="41.92747" lon="20.97741">
        <ele>486.048033</ele>
        <time>2022-04-24T09:50:04.723Z</time>
      </trkpt>
      <trkpt lat="41.92737" lon="20.97738">
        <ele>486.101265</ele>
        <time>2022-04-24T09:50:06.720Z</time>
      </trkpt>
      <trkpt lat="41.92727" lon="20.97734">
        <ele>486.156383</ele>
        <time>2022-04-24T09:50:08.706Z</time>
      </trkpt>
      <trkpt lat="41.92718" lon="20.9773">
        <ele>486.211392</ele>
        <time>2022-04-24T09:50:10.719Z</time>
      </trkpt>
      <trkpt lat="41.92708" lon="20.97726">
        <ele>486.266623</ele>
        <time>2022-04-24T09:50:12.699Z</time>
      </trkpt>
      <trkpt lat="41.92698" lon="20.97723">
        <ele>486.320483</ele>
        <time>2022-04-24T09:50:14.709Z</time>
      </trkpt>
      <trkpt lat="41.92689" lon="20.97719">
        <ele>486.373193</ele>
        <time>2022-04-24T09:50:16.712Z</time>
      </trkpt>
      <trkpt lat="41.9268" lon="20.97716">
        <ele>486.423305</ele>
        <time>2022-04-24T09:50:18.712Z</time>
      </trkpt>
      <trkpt lat="41.92671" lon="20.97712">
        <ele>486.474454</ele>
        <time>2022-04-24T09:50:20.732Z</time>
      </trkpt>
      <trkpt lat="41.92662" lon="20.97709">
        <ele>486.523826</ele>
        <time>2022-04-24T09:50:22.730Z</time>
      </trkpt>
      <trkpt lat="41.92649" lon="20.97703">
        <ele>486.596309</ele>
        <time>2022-04-24T09:50:25.706Z</time>
      </trkpt>
      <trkpt lat="41.9264" lon="20.97699">
        <ele>486.648321</ele>
        <time>2022-04-24T09:50:27.714Z</time>
      </trkpt>
      <trkpt lat="41.92631" lon="20.97695">
        <ele>486.701603</ele>
        <time>2022-04-24T09:50:29.700Z</time>
      </trkpt>
      <trkpt lat="41.92621" lon="20.97691">
        <ele>486.758503</ele>
        <time>2022-04-24T09:50:31.707Z</time>
      </trkpt>
      <trkpt lat="41.92611" lon="20.97688">
        <ele>486.814553</ele>
        <time>2022-04-24T09:50:33.721Z</time>
      </trkpt>
      <trkpt lat="41.926" lon="20.97684">
        <ele>486.87301</ele>
        <time>2022-04-24T09:50:35.712Z</time>
      </trkpt>
      <trkpt lat="41.9259" lon="20.97679">
        <ele>486.844805</ele>
        <time>2022-04-24T09:50:37.742Z</time>
      </trkpt>
      <trkpt lat="41.92579" lon="20.97675">
        <ele>486.795894</ele>
        <time>2022-04-24T09:50:39.717Z</time>
      </trkpt>
      <trkpt lat="41.92569" lon="20.97671">
        <ele>486.749773</ele>
        <time>2022-04-24T09:50:41.711Z</time>
      </trkpt>
      <trkpt lat="41.9256" lon="20.97667">
        <ele>486.704698</ele>
        <time>2022-04-24T09:50:43.729Z</time>
      </trkpt>
      <trkpt lat="41.9255" lon="20.97663">
        <ele>486.660058</ele>
        <time>2022-04-24T09:50:45.719Z</time>
      </trkpt>
      <trkpt lat="41.9254" lon="20.97659">
        <ele>486.613208</ele>
        <time>2022-04-24T09:50:47.701Z</time>
      </trkpt>
      <trkpt lat="41.92529" lon="20.97656">
        <ele>486.563422</ele>
        <time>2022-04-24T09:50:49.712Z</time>
      </trkpt>
      <trkpt lat="41.92518" lon="20.97652">
        <ele>486.514169</ele>
        <time>2022-04-24T09:50:51.714Z</time>
      </trkpt>
      <trkpt lat="41.92508" lon="20.97648">
        <ele>486.465346</ele>
        <time>2022-04-24T09:50:53.699Z</time>
      </trkpt>
      <trkpt lat="41.92498" lon="20.97644">
        <ele>486.419865</ele>
        <time>2022-04-24T09:50:55.718Z</time>
      </trkpt>
      <trkpt lat="41.92488" lon="20.9764">
        <ele>486.373514</ele>
        <time>2022-04-24T09:50:57.732Z</time>
      </trkpt>
      <trkpt lat="41.92478" lon="20.97636">
        <ele>486.327007</ele>
        <time>2022-04-24T09:50:59.748Z</time>
      </trkpt>
      <trkpt lat="41.92468" lon="20.97632">
        <ele>486.279468</ele>
        <time>2022-04-24T09:51:01.719Z</time>
      </trkpt>
      <trkpt lat="41.92458" lon="20.97628">
        <ele>486.233021</ele>
        <time>2022-04-24T09:51:03.720Z</time>
      </trkpt>
      <trkpt lat="41.92448" lon="20.97624">
        <ele>486.187616</ele>
        <time>2022-04-24T09:51:05.699Z</time>
      </trkpt>
      <trkpt lat="41.92438" lon="20.9762">
        <ele>486.141358</ele>
        <time>2022-04-24T09:51:07.709Z</time>
      </trkpt>
      <trkpt lat="41.92428" lon="20.97616">
        <ele>486.095708</ele>
        <time>2022-04-24T09:51:09.696Z</time>
      </trkpt>
      <trkpt lat="41.92418" lon="20.97613">
        <ele>486.123354</ele>
        <time>2022-04-24T09:51:11.703Z</time>
      </trkpt>
      <trkpt lat="41.92409" lon="20.97609">
        <ele>486.172907</ele>
        <time>2022-04-24T09:51:13.718Z</time>
      </trkpt>
      <trkpt lat="41.92399" lon="20.97605">
        <ele>486.222262</ele>
        <time>2022-04-24T09:51:15.708Z</time>
      </trkpt>
      <trkpt lat="41.92389" lon="20.97602">
        <ele>486.271918</ele>
        <time>2022-04-24T09:51:17.702Z</time>
      </trkpt>
      <trkpt lat="41.92379" lon="20.97598">
        <ele>486.322711</ele>
        <time>2022-04-24T09:51:19.704Z</time>
      </trkpt>
      <trkpt lat="41.9237" lon="20.97594">
        <ele>486.373219</ele>
        <time>2022-04-24T09:51:21.736Z</time>
      </trkpt>
      <trkpt lat="41.9236" lon="20.97591">
        <ele>486.422875</ele>
        <time>2022-04-24T09:51:23.717Z</time>
      </trkpt>
      <trkpt lat="41.92351" lon="20.97587">
        <ele>486.471214</ele>
        <time>2022-04-24T09:51:25.715Z</time>
      </trkpt>
      <trkpt lat="41.92341" lon="20.97583">
        <ele>486.521084</ele>
        <time>2022-04-24T09:51:27.718Z</time>
      </trkpt>
      <trkpt lat="41.92331" lon="20.97579">
        <ele>486.571797</ele>
        <time>2022-04-24T09:51:29.703Z</time>
      </trkpt>
      <trkpt lat="41.92322" lon="20.97575">
        <ele>486.622034</ele>
        <time>2022-04-24T09:51:31.727Z</time>
      </trkpt>
      <trkpt lat="41.92312" lon="20.97571">
        <ele>486.673222</ele>
        <time>2022-04-24T09:51:33.723Z</time>
      </trkpt>
      <trkpt lat="41.92302" lon="20.97567">
        <ele>486.72373</ele>
        <time>2022-04-24T09:51:35.703Z</time>
      </trkpt>
      <trkpt lat="41.92292" lon="20.97564">
        <ele>486.773761</ele>
        <time>2022-04-24T09:51:37.722Z</time>
      </trkpt>
      <trkpt lat="41.92283" lon="20.9756">
        <ele>486.823692</ele>
        <time>2022-04-24T09:51:39.690Z</time>
      </trkpt>
      <trkpt lat="41.92273" lon="20.97556">
        <ele>486.872768</ele>
        <time>2022-04-24T09:51:41.715Z</time>
      </trkpt>
      <trkpt lat="41.92263" lon="20.97552">
        <ele>486.92253</ele>
        <time>2022-04-24T09:51:43.713Z</time>
      </trkpt>
      <trkpt lat="41.92254" lon="20.97549">
        <ele>486.972083</ele>
        <time>2022-04-24T09:51:45.729Z</time>
      </trkpt>
      <trkpt lat="41.92245" lon="20.97545">
        <ele>487.056113</ele>
        <time>2022-04-24T09:51:47.703Z</time>
      </trkpt>
      <trkpt lat="41.92235" lon="20.97542">
        <ele>487.145283</ele>
        <time>2022-04-24T09:51:49.714Z</time>
      </trkpt>
      <trkpt lat="41.92226" lon="20.97538">
        <ele>487.233758</ele>
        <time>2022-04-24T09:51:51.719Z</time>
      </trkpt>
      <trkpt lat="41.92217" lon="20.97534">
        <ele>487.321168</ele>
        <time>2022-04-24T09:51:53.737Z</time>
      </trkpt>
      <trkpt lat="41.92207" lon="20.97531">
        <ele>487.4091</ele>
        <time>2022-04-24T09:51:55.713Z</time>
      </trkpt>
      <trkpt lat="41.92198" lon="20.97527">
        <ele>487.494678</ele>
        <time>2022-04-24T09:51:57.694Z</time>
      </trkpt>
      <trkpt lat="41.9219" lon="20.97523">
        <ele>487.578307</ele>
        <time>2022-04-24T09:51:59.697Z</time>
      </trkpt>
      <trkpt lat="41.92181" lon="20.97519">
        <ele>487.664966</ele>
        <time>2022-04-24T09:52:01.728Z</time>
      </trkpt>
      <trkpt lat="41.92171" lon="20.97516">
        <ele>487.756265</ele>
        <time>2022-04-24T09:52:03.703Z</time>
      </trkpt>
      <trkpt lat="41.92162" lon="20.97512">
        <ele>487.847379</ele>
        <time>2022-04-24T09:52:05.713Z</time>
      </trkpt>
      <trkpt lat="41.92152" lon="20.97508">
        <ele>487.939746</ele>
        <time>2022-04-24T09:52:07.722Z</time>
      </trkpt>
      <trkpt lat="41.92142" lon="20.97504">
        <ele>488.033181</ele>
        <time>2022-04-24T09:52:09.702Z</time>
      </trkpt>
      <trkpt lat="41.92133" lon="20.97501">
        <ele>488.12399</ele>
        <time>2022-04-24T09:52:11.709Z</time>
      </trkpt>
      <trkpt lat="41.92123" lon="20.97497">
        <ele>488.212465</ele>
        <time>2022-04-24T09:52:13.720Z</time>
      </trkpt>
      <trkpt lat="41.92113" lon="20.97493">
        <ele>488.3059</ele>
        <time>2022-04-24T09:52:15.748Z</time>
      </trkpt>
      <trkpt lat="41.92104" lon="20.9749">
        <ele>488.397543</ele>
        <time>2022-04-24T09:52:17.711Z</time>
      </trkpt>
      <trkpt lat="41.92094" lon="20.97486">
        <ele>488.486018</ele>
        <time>2022-04-24T09:52:19.710Z</time>
      </trkpt>
      <trkpt lat="41.92085" lon="20.97482">
        <ele>488.573808</ele>
        <time>2022-04-24T09:52:21.722Z</time>
      </trkpt>
      <trkpt lat="41.92076" lon="20.97479">
        <ele>488.630378</ele>
        <time>2022-04-24T09:52:23.737Z</time>
      </trkpt>
      <trkpt lat="41.92067" lon="20.97476">
        <ele>488.649902</ele>
        <time>2022-04-24T09:52:25.718Z</time>
      </trkpt>
      <trkpt lat="41.92058" lon="20.97472">
        <ele>488.669034</ele>
        <time>2022-04-24T09:52:27.715Z</time>
      </trkpt>
      <trkpt lat="41.92049" lon="20.97469">
        <ele>488.68857</ele>
        <time>2022-04-24T09:52:29.702Z</time>
      </trkpt>
      <trkpt lat="41.92039" lon="20.97465">
        <ele>488.708605</ele>
        <time>2022-04-24T09:52:31.702Z</time>
      </trkpt>
      <trkpt lat="41.9203" lon="20.97461">
        <ele>488.728335</ele>
        <time>2022-04-24T09:52:33.715Z</time>
      </trkpt>
      <trkpt lat="41.9202" lon="20.97457">
        <ele>488.749193</ele>
        <time>2022-04-24T09:52:35.709Z</time>
      </trkpt>
      <trkpt lat="41.92011" lon="20.97454">
        <ele>488.76856</ele>
        <time>2022-04-24T09:52:37.719Z</time>
      </trkpt>
      <trkpt lat="41.92002" lon="20.97451">
        <ele>488.787578</ele>
        <time>2022-04-24T09:52:39.699Z</time>
      </trkpt>
      <trkpt lat="41.91992" lon="20.97447">
        <ele>488.807591</ele>
        <time>2022-04-24T09:52:41.697Z</time>
      </trkpt>
      <trkpt lat="41.91983" lon="20.97443">
        <ele>488.827668</ele>
        <time>2022-04-24T09:52:43.754Z</time>
      </trkpt>
      <trkpt lat="41.91974" lon="20.97439">
        <ele>488.847076</ele>
        <time>2022-04-24T09:52:45.713Z</time>
      </trkpt>
      <trkpt lat="41.91964" lon="20.97436">
        <ele>488.866568</ele>
        <time>2022-04-24T09:52:47.714Z</time>
      </trkpt>
      <trkpt lat="41.91955" lon="20.97432">
        <ele>488.88645</ele>
        <time>2022-04-24T09:52:49.713Z</time>
      </trkpt>
      <trkpt lat="41.91946" lon="20.97428">
        <ele>488.905359</ele>
        <time>2022-04-24T09:52:51.711Z</time>
      </trkpt>
      <trkpt lat="41.91934" lon="20.97423">
        <ele>488.93192</ele>
        <time>2022-04-24T09:52:54.704Z</time>
      </trkpt>
      <trkpt lat="41.91921" lon="20.97418">
        <ele>488.959285</ele>
        <time>2022-04-24T09:52:57.712Z</time>
      </trkpt>
      <trkpt lat="41.91908" lon="20.97414">
        <ele>488.986179</ele>
        <time>2022-04-24T09:53:00.709Z</time>
      </trkpt>
      <trkpt lat="41.91896" lon="20.97409">
        <ele>489.073649</ele>
        <time>2022-04-24T09:53:03.715Z</time>
      </trkpt>
      <trkpt lat="41.91885" lon="20.97404">
        <ele>489.159003</ele>
        <time>2022-04-24T09:53:06.715Z</time>
      </trkpt>
      <trkpt lat="41.91876" lon="20.974">
        <ele>489.233196</ele>
        <time>2022-04-24T09:53:09.711Z</time>
      </trkpt>
      <trkpt lat="41.91866" lon="20.97396">
        <ele>489.311788</ele>
        <time>2022-04-24T09:53:13.746Z</time>
      </trkpt>
      <trkpt lat="41.91854" lon="20.97393">
        <ele>489.4036</ele>
        <time>2022-04-24T09:54:24.725Z</time>
      </trkpt>
      <trkpt lat="41.91843" lon="20.97391">
        <ele>489.483622</ele>
        <time>2022-04-24T09:54:29.720Z</time>
      </trkpt>
      <trkpt lat="41.91832" lon="20.97387">
        <ele>489.569791</ele>
        <time>2022-04-24T09:54:33.719Z</time>
      </trkpt>
      <trkpt lat="41.91823" lon="20.97382">
        <ele>489.646247</ele>
        <time>2022-04-24T09:54:36.720Z</time>
      </trkpt>
      <trkpt lat="41.91812" lon="20.97378">
        <ele>489.728511</ele>
        <time>2022-04-24T09:54:39.735Z</time>
      </trkpt>
      <trkpt lat="41.91802" lon="20.97374">
        <ele>489.810125</ele>
        <time>2022-04-24T09:54:42.709Z</time>
      </trkpt>
      <trkpt lat="41.9179" lon="20.9737">
        <ele>489.897016</ele>
        <time>2022-04-24T09:54:45.730Z</time>
      </trkpt>
      <trkpt lat="41.91779" lon="20.97366">
        <ele>489.984345</ele>
        <time>2022-04-24T09:54:48.723Z</time>
      </trkpt>
      <trkpt lat="41.91768" lon="20.97363">
        <ele>490.069688</ele>
        <time>2022-04-24T09:54:51.706Z</time>
      </trkpt>
      <trkpt lat="41.91757" lon="20.97358">
        <ele>490.155921</ele>
        <time>2022-04-24T09:54:54.712Z</time>
      </trkpt>
      <trkpt lat="41.91746" lon="20.97354">
        <ele>490.24209</ele>
        <time>2022-04-24T09:54:57.704Z</time>
      </trkpt>
      <trkpt lat="41.91735" lon="20.9735">
        <ele>490.328836</ele>
        <time>2022-04-24T09:55:00.709Z</time>
      </trkpt>
      <trkpt lat="41.91724" lon="20.97346">
        <ele>490.386362</ele>
        <time>2022-04-24T09:55:03.719Z</time>
      </trkpt>
      <trkpt lat="41.91713" lon="20.97341">
        <ele>490.444254</ele>
        <time>2022-04-24T09:55:06.714Z</time>
      </trkpt>
      <trkpt lat="41.91702" lon="20.97337">
        <ele>490.500803</ele>
        <time>2022-04-24T09:55:09.709Z</time>
      </trkpt>
      <trkpt lat="41.91691" lon="20.97332">
        <ele>490.557425</ele>
        <time>2022-04-24T09:55:12.694Z</time>
      </trkpt>
      <trkpt lat="41.9168" lon="20.97328">
        <ele>490.616758</ele>
        <time>2022-04-24T09:55:15.715Z</time>
      </trkpt>
      <trkpt lat="41.91668" lon="20.97324">
        <ele>490.67879</ele>
        <time>2022-04-24T09:55:18.725Z</time>
      </trkpt>
      <trkpt lat="41.91655" lon="20.97321">
        <ele>490.742445</ele>
        <time>2022-04-24T09:55:21.704Z</time>
      </trkpt>
      <trkpt lat="41.91643" lon="20.97315">
        <ele>490.807061</ele>
        <time>2022-04-24T09:55:24.735Z</time>
      </trkpt>
      <trkpt lat="41.9163" lon="20.9731">
        <ele>490.874541</ele>
        <time>2022-04-24T09:55:27.708Z</time>
      </trkpt>
      <trkpt lat="41.91621" lon="20.97307">
        <ele>490.92005</ele>
        <time>2022-04-24T09:55:29.715Z</time>
      </trkpt>
      <trkpt lat="41.91612" lon="20.97303">
        <ele>490.966439</ele>
        <time>2022-04-24T09:55:31.709Z</time>
      </trkpt>
      <trkpt lat="41.91604" lon="20.973">
        <ele>491.012677</ele>
        <time>2022-04-24T09:55:33.730Z</time>
      </trkpt>
      <trkpt lat="41.91595" lon="20.97297">
        <ele>491.059064</ele>
        <time>2022-04-24T09:55:35.734Z</time>
      </trkpt>
      <trkpt lat="41.91586" lon="20.97293">
        <ele>491.104973</ele>
        <time>2022-04-24T09:55:37.707Z</time>
      </trkpt>
      <trkpt lat="41.91577" lon="20.9729">
        <ele>491.150402</ele>
        <time>2022-04-24T09:55:39.716Z</time>
      </trkpt>
      <trkpt lat="41.91565" lon="20.97285">
        <ele>491.214853</ele>
        <time>2022-04-24T09:55:42.711Z</time>
      </trkpt>
      <trkpt lat="41.91556" lon="20.97282">
        <ele>491.246988</ele>
        <time>2022-04-24T09:55:44.709Z</time>
      </trkpt>
      <trkpt lat="41.91547" lon="20.97279">
        <ele>491.271159</ele>
        <time>2022-04-24T09:55:46.757Z</time>
      </trkpt>
      <trkpt lat="41.91538" lon="20.97275">
        <ele>491.294936</ele>
        <time>2022-04-24T09:55:48.719Z</time>
      </trkpt>
      <trkpt lat="41.91525" lon="20.9727">
        <ele>491.329103</ele>
        <time>2022-04-24T09:55:51.712Z</time>
      </trkpt>
      <trkpt lat="41.91516" lon="20.97267">
        <ele>491.352271</ele>
        <time>2022-04-24T09:55:53.707Z</time>
      </trkpt>
      <trkpt lat="41.91504" lon="20.97261">
        <ele>491.386548</ele>
        <time>2022-04-24T09:55:56.726Z</time>
      </trkpt>
      <trkpt lat="41.91495" lon="20.97257">
        <ele>491.410446</ele>
        <time>2022-04-24T09:55:58.722Z</time>
      </trkpt>
      <trkpt lat="41.91485" lon="20.97254">
        <ele>491.434719</ele>
        <time>2022-04-24T09:56:00.708Z</time>
      </trkpt>
      <trkpt lat="41.91476" lon="20.97251">
        <ele>491.458792</ele>
        <time>2022-04-24T09:56:02.687Z</time>
      </trkpt>
      <trkpt lat="41.91467" lon="20.97248">
        <ele>491.482683</ele>
        <time>2022-04-24T09:56:04.740Z</time>
      </trkpt>
      <trkpt lat="41.91459" lon="20.97245">
        <ele>491.505817</ele>
        <time>2022-04-24T09:56:06.714Z</time>
      </trkpt>
      <trkpt lat="41.91445" lon="20.9724">
        <ele>491.540884</ele>
        <time>2022-04-24T09:56:09.718Z</time>
      </trkpt>
      <trkpt lat="41.91436" lon="20.97236">
        <ele>491.5655</ele>
        <time>2022-04-24T09:56:11.720Z</time>
      </trkpt>
      <trkpt lat="41.91426" lon="20.97233">
        <ele>491.5915</ele>
        <time>2022-04-24T09:56:13.707Z</time>
      </trkpt>
      <trkpt lat="41.91417" lon="20.97229">
        <ele>491.617154</ele>
        <time>2022-04-24T09:56:15.718Z</time>
      </trkpt>
      <trkpt lat="41.91407" lon="20.97226">
        <ele>491.642513</ele>
        <time>2022-04-24T09:56:17.710Z</time>
      </trkpt>
      <trkpt lat="41.91398" lon="20.97222">
        <ele>491.666544</ele>
        <time>2022-04-24T09:56:19.699Z</time>
      </trkpt>
      <trkpt lat="41.91389" lon="20.97219">
        <ele>491.691066</ele>
        <time>2022-04-24T09:56:21.707Z</time>
      </trkpt>
      <trkpt lat="41.9138" lon="20.97215">
        <ele>491.690549</ele>
        <time>2022-04-24T09:56:23.719Z</time>
      </trkpt>
      <trkpt lat="41.91371" lon="20.97212">
        <ele>491.687432</ele>
        <time>2022-04-24T09:56:25.719Z</time>
      </trkpt>
      <trkpt lat="41.91362" lon="20.97209">
        <ele>491.684393</ele>
        <time>2022-04-24T09:56:27.751Z</time>
      </trkpt>
      <trkpt lat="41.91349" lon="20.97204">
        <ele>491.67992</ele>
        <time>2022-04-24T09:56:30.721Z</time>
      </trkpt>
      <trkpt lat="41.91337" lon="20.97199">
        <ele>491.675556</ele>
        <time>2022-04-24T09:56:33.719Z</time>
      </trkpt>
      <trkpt lat="41.91324" lon="20.97194">
        <ele>491.671045</ele>
        <time>2022-04-24T09:56:36.728Z</time>
      </trkpt>
      <trkpt lat="41.91315" lon="20.97191">
        <ele>491.66796</ele>
        <time>2022-04-24T09:56:38.721Z</time>
      </trkpt>
      <trkpt lat="41.91306" lon="20.97188">
        <ele>491.664876</ele>
        <time>2022-04-24T09:56:40.709Z</time>
      </trkpt>
      <trkpt lat="41.91297" lon="20.97184">
        <ele>491.661848</ele>
        <time>2022-04-24T09:56:42.721Z</time>
      </trkpt>
      <trkpt lat="41.91288" lon="20.97181">
        <ele>491.658821</ele>
        <time>2022-04-24T09:56:44.710Z</time>
      </trkpt>
      <trkpt lat="41.91276" lon="20.97175">
        <ele>491.654315</ele>
        <time>2022-04-24T09:56:47.706Z</time>
      </trkpt>
      <trkpt lat="41.91267" lon="20.9717">
        <ele>491.651256</ele>
        <time>2022-04-24T09:56:49.709Z</time>
      </trkpt>
      <trkpt lat="41.91259" lon="20.97164">
        <ele>491.648141</ele>
        <time>2022-04-24T09:56:51.743Z</time>
      </trkpt>
      <trkpt lat="41.91252" lon="20.97156">
        <ele>491.645071</ele>
        <time>2022-04-24T09:56:53.705Z</time>
      </trkpt>
      <trkpt lat="41.91245" lon="20.97147">
        <ele>491.641893</ele>
        <time>2022-04-24T09:56:55.703Z</time>
      </trkpt>
      <trkpt lat="41.91239" lon="20.97138">
        <ele>491.638816</ele>
        <time>2022-04-24T09:56:57.715Z</time>
      </trkpt>
      <trkpt lat="41.91233" lon="20.97127">
        <ele>491.635605</ele>
        <time>2022-04-24T09:56:59.712Z</time>
      </trkpt>
      <trkpt lat="41.91228" lon="20.97118">
        <ele>491.662371</ele>
        <time>2022-04-24T09:57:01.712Z</time>
      </trkpt>
      <trkpt lat="41.9122" lon="20.97103">
        <ele>491.828593</ele>
        <time>2022-04-24T09:57:04.722Z</time>
      </trkpt>
      <trkpt lat="41.91215" lon="20.97094">
        <ele>491.945304</ele>
        <time>2022-04-24T09:57:06.710Z</time>
      </trkpt>
      <trkpt lat="41.91207" lon="20.9708">
        <ele>492.112371</ele>
        <time>2022-04-24T09:57:09.705Z</time>
      </trkpt>
      <trkpt lat="41.912" lon="20.97067">
        <ele>492.266304</ele>
        <time>2022-04-24T09:57:12.700Z</time>
      </trkpt>
      <trkpt lat="41.91193" lon="20.97053">
        <ele>492.426405</ele>
        <time>2022-04-24T09:57:15.740Z</time>
      </trkpt>
      <trkpt lat="41.91188" lon="20.97044">
        <ele>492.546283</ele>
        <time>2022-04-24T09:57:17.710Z</time>
      </trkpt>
      <trkpt lat="41.9118" lon="20.97031">
        <ele>492.699363</ele>
        <time>2022-04-24T09:57:20.713Z</time>
      </trkpt>
      <trkpt lat="41.91174" lon="20.97019">
        <ele>492.842424</ele>
        <time>2022-04-24T09:57:23.713Z</time>
      </trkpt>
      <trkpt lat="41.91166" lon="20.97006">
        <ele>493.008289</ele>
        <time>2022-04-24T09:57:26.784Z</time>
      </trkpt>
      <trkpt lat="41.9116" lon="20.96996">
        <ele>493.128102</ele>
        <time>2022-04-24T09:57:28.704Z</time>
      </trkpt>
      <trkpt lat="41.91155" lon="20.96986">
        <ele>493.244058</ele>
        <time>2022-04-24T09:57:30.705Z</time>
      </trkpt>
      <trkpt lat="41.91149" lon="20.96976">
        <ele>493.363855</ele>
        <time>2022-04-24T09:57:32.721Z</time>
      </trkpt>
      <trkpt lat="41.91144" lon="20.96966">
        <ele>493.481369</ele>
        <time>2022-04-24T09:57:34.705Z</time>
      </trkpt>
      <trkpt lat="41.91135" lon="20.96953">
        <ele>493.651389</ele>
        <time>2022-04-24T09:57:37.706Z</time>
      </trkpt>
      <trkpt lat="41.91127" lon="20.96941">
        <ele>493.80772</ele>
        <time>2022-04-24T09:57:40.723Z</time>
      </trkpt>
      <trkpt lat="41.91118" lon="20.96929">
        <ele>493.960692</ele>
        <time>2022-04-24T09:57:43.737Z</time>
      </trkpt>
      <trkpt lat="41.91108" lon="20.96921">
        <ele>493.939138</ele>
        <time>2022-04-24T09:57:46.786Z</time>
      </trkpt>
      <trkpt lat="41.91097" lon="20.96913">
        <ele>493.915975</ele>
        <time>2022-04-24T09:57:49.711Z</time>
      </trkpt>
      <trkpt lat="41.91089" lon="20.96906">
        <ele>493.898743</ele>
        <time>2022-04-24T09:57:51.725Z</time>
      </trkpt>
      <trkpt lat="41.91082" lon="20.96897">
        <ele>493.880941</ele>
        <time>2022-04-24T09:57:53.714Z</time>
      </trkpt>
      <trkpt lat="41.91072" lon="20.96885">
        <ele>493.856738</ele>
        <time>2022-04-24T09:57:56.707Z</time>
      </trkpt>
      <trkpt lat="41.91064" lon="20.96873">
        <ele>493.834133</ele>
        <time>2022-04-24T09:57:59.709Z</time>
      </trkpt>
      <trkpt lat="41.91055" lon="20.96861">
        <ele>493.811067</ele>
        <time>2022-04-24T09:58:02.741Z</time>
      </trkpt>
      <trkpt lat="41.91046" lon="20.96849">
        <ele>493.788559</ele>
        <time>2022-04-24T09:58:05.704Z</time>
      </trkpt>
      <trkpt lat="41.91038" lon="20.96836">
        <ele>493.764888</ele>
        <time>2022-04-24T09:58:08.724Z</time>
      </trkpt>
      <trkpt lat="41.91029" lon="20.96824">
        <ele>493.742314</ele>
        <time>2022-04-24T09:58:11.715Z</time>
      </trkpt>
      <trkpt lat="41.91022" lon="20.96811">
        <ele>493.720115</ele>
        <time>2022-04-24T09:58:14.719Z</time>
      </trkpt>
      <trkpt lat="41.91014" lon="20.968">
        <ele>493.698791</ele>
        <time>2022-04-24T09:58:17.740Z</time>
      </trkpt>
      <trkpt lat="41.91004" lon="20.96788">
        <ele>493.674402</ele>
        <time>2022-04-24T09:58:20.718Z</time>
      </trkpt>
      <trkpt lat="41.90998" lon="20.96778">
        <ele>493.657207</ele>
        <time>2022-04-24T09:58:22.715Z</time>
      </trkpt>
      <trkpt lat="41.90989" lon="20.96764">
        <ele>493.63305</ele>
        <time>2022-04-24T09:58:25.703Z</time>
      </trkpt>
      <trkpt lat="41.90982" lon="20.96749">
        <ele>494.013694</ele>
        <time>2022-04-24T09:58:28.713Z</time>
      </trkpt>
      <trkpt lat="41.90976" lon="20.96735">
        <ele>494.368583</ele>
        <time>2022-04-24T09:58:31.707Z</time>
      </trkpt>
      <trkpt lat="41.90969" lon="20.9672">
        <ele>494.731532</ele>
        <time>2022-04-24T09:58:34.707Z</time>
      </trkpt>
      <trkpt lat="41.90964" lon="20.96706">
        <ele>495.057283</ele>
        <time>2022-04-24T09:58:37.721Z</time>
      </trkpt>
      <trkpt lat="41.90961" lon="20.96693">
        <ele>495.351122</ele>
        <time>2022-04-24T09:58:40.742Z</time>
      </trkpt>
      <trkpt lat="41.90955" lon="20.96679">
        <ele>495.704207</ele>
        <time>2022-04-24T09:58:43.724Z</time>
      </trkpt>
      <trkpt lat="41.90947" lon="20.96663">
        <ele>496.093805</ele>
        <time>2022-04-24T09:58:46.713Z</time>
      </trkpt>
      <trkpt lat="41.90942" lon="20.96653">
        <ele>496.362695</ele>
        <time>2022-04-24T09:58:48.716Z</time>
      </trkpt>
      <trkpt lat="41.90936" lon="20.9664">
        <ele>496.693289</ele>
        <time>2022-04-24T09:58:51.735Z</time>
      </trkpt>
      <trkpt lat="41.90927" lon="20.96628">
        <ele>497.035223</ele>
        <time>2022-04-24T09:58:54.721Z</time>
      </trkpt>
      <trkpt lat="41.90916" lon="20.96618">
        <ele>497.41216</ele>
        <time>2022-04-24T09:58:57.715Z</time>
      </trkpt>
      <trkpt lat="41.90905" lon="20.96608">
        <ele>497.799574</ele>
        <time>2022-04-24T09:59:00.705Z</time>
      </trkpt>
      <trkpt lat="41.90897" lon="20.966">
        <ele>498.076961</ele>
        <time>2022-04-24T09:59:02.746Z</time>
      </trkpt>
      <trkpt lat="41.9089" lon="20.96593">
        <ele>498.335647</ele>
        <time>2022-04-24T09:59:04.719Z</time>
      </trkpt>
      <trkpt lat="41.90881" lon="20.96587">
        <ele>498.605524</ele>
        <time>2022-04-24T09:59:06.719Z</time>
      </trkpt>
      <trkpt lat="41.90871" lon="20.96577">
        <ele>498.909692</ele>
        <time>2022-04-24T09:59:09.708Z</time>
      </trkpt>
      <trkpt lat="41.9086" lon="20.96567">
        <ele>499.213095</ele>
        <time>2022-04-24T09:59:12.707Z</time>
      </trkpt>
      <trkpt lat="41.90851" lon="20.96561">
        <ele>499.429827</ele>
        <time>2022-04-24T09:59:14.713Z</time>
      </trkpt>
      <trkpt lat="41.90843" lon="20.96556">
        <ele>499.630052</ele>
        <time>2022-04-24T09:59:16.702Z</time>
      </trkpt>
      <trkpt lat="41.90834" lon="20.96552">
        <ele>499.833673</ele>
        <time>2022-04-24T09:59:18.701Z</time>
      </trkpt>
      <trkpt lat="41.90822" lon="20.96546">
        <ele>500.116158</ele>
        <time>2022-04-24T09:59:21.710Z</time>
      </trkpt>
      <trkpt lat="41.90811" lon="20.96538">
        <ele>500.396362</ele>
        <time>2022-04-24T09:59:24.717Z</time>
      </trkpt>
      <trkpt lat="41.90803" lon="20.96532">
        <ele>500.604731</ele>
        <time>2022-04-24T09:59:26.735Z</time>
      </trkpt>
      <trkpt lat="41.90795" lon="20.96525">
        <ele>500.805567</ele>
        <time>2022-04-24T09:59:28.707Z</time>
      </trkpt>
      <trkpt lat="41.90785" lon="20.96516">
        <ele>501.085139</ele>
        <time>2022-04-24T09:59:31.714Z</time>
      </trkpt>
      <trkpt lat="41.90774" lon="20.96506">
        <ele>501.375712</ele>
        <time>2022-04-24T09:59:34.711Z</time>
      </trkpt>
      <trkpt lat="41.90762" lon="20.96497">
        <ele>501.667519</ele>
        <time>2022-04-24T09:59:37.702Z</time>
      </trkpt>
      <trkpt lat="41.90751" lon="20.96488">
        <ele>501.946147</ele>
        <time>2022-04-24T09:59:40.708Z</time>
      </trkpt>
      <trkpt lat="41.90741" lon="20.96479">
        <ele>502.215652</ele>
        <time>2022-04-24T09:59:43.711Z</time>
      </trkpt>
      <trkpt lat="41.90732" lon="20.96468">
        <ele>502.497528</ele>
        <time>2022-04-24T09:59:46.711Z</time>
      </trkpt>
      <trkpt lat="41.90721" lon="20.96456">
        <ele>502.710596</ele>
        <time>2022-04-24T09:59:49.718Z</time>
      </trkpt>
      <trkpt lat="41.90714" lon="20.96447">
        <ele>502.671986</ele>
        <time>2022-04-24T09:59:51.730Z</time>
      </trkpt>
      <trkpt lat="41.90706" lon="20.96438">
        <ele>502.632256</ele>
        <time>2022-04-24T09:59:53.733Z</time>
      </trkpt>
      <trkpt lat="41.90699" lon="20.96429">
        <ele>502.595397</ele>
        <time>2022-04-24T09:59:55.715Z</time>
      </trkpt>
      <trkpt lat="41.9069" lon="20.96419">
        <ele>502.55093</ele>
        <time>2022-04-24T09:59:58.703Z</time>
      </trkpt>
      <trkpt lat="41.90681" lon="20.96412">
        <ele>502.509344</ele>
        <time>2022-04-24T10:00:01.722Z</time>
      </trkpt>
      <trkpt lat="41.90674" lon="20.96403">
        <ele>502.470284</ele>
        <time>2022-04-24T10:00:03.717Z</time>
      </trkpt>
      <trkpt lat="41.90667" lon="20.96393">
        <ele>502.430432</ele>
        <time>2022-04-24T10:00:05.711Z</time>
      </trkpt>
      <trkpt lat="41.9066" lon="20.96384">
        <ele>502.394215</ele>
        <time>2022-04-24T10:00:07.701Z</time>
      </trkpt>
      <trkpt lat="41.90654" lon="20.96374">
        <ele>502.358315</ele>
        <time>2022-04-24T10:00:09.705Z</time>
      </trkpt>
      <trkpt lat="41.90648" lon="20.96366">
        <ele>502.323449</ele>
        <time>2022-04-24T10:00:11.723Z</time>
      </trkpt>
      <trkpt lat="41.90641" lon="20.96357">
        <ele>502.285804</ele>
        <time>2022-04-24T10:00:13.718Z</time>
      </trkpt>
      <trkpt lat="41.90633" lon="20.9635">
        <ele>502.250813</ele>
        <time>2022-04-24T10:00:15.732Z</time>
      </trkpt>
      <trkpt lat="41.90622" lon="20.9634">
        <ele>502.199677</ele>
        <time>2022-04-24T10:00:18.720Z</time>
      </trkpt>
      <trkpt lat="41.90615" lon="20.96333">
        <ele>502.16429</ele>
        <time>2022-04-24T10:00:20.721Z</time>
      </trkpt>
      <trkpt lat="41.90605" lon="20.96326">
        <ele>502.122225</ele>
        <time>2022-04-24T10:00:22.691Z</time>
      </trkpt>
      <trkpt lat="41.90597" lon="20.9632">
        <ele>502.084597</ele>
        <time>2022-04-24T10:00:24.713Z</time>
      </trkpt>
      <trkpt lat="41.90586" lon="20.96315">
        <ele>502.040049</ele>
        <time>2022-04-24T10:00:27.698Z</time>
      </trkpt>
      <trkpt lat="41.90573" lon="20.9631">
        <ele>501.8795</ele>
        <time>2022-04-24T10:00:30.712Z</time>
      </trkpt>
      <trkpt lat="41.90564" lon="20.96308">
        <ele>501.733624</ele>
        <time>2022-04-24T10:00:32.732Z</time>
      </trkpt>
      <trkpt lat="41.90554" lon="20.96305">
        <ele>501.584149</ele>
        <time>2022-04-24T10:00:34.712Z</time>
      </trkpt>
      <trkpt lat="41.90545" lon="20.96302">
        <ele>501.438497</ele>
        <time>2022-04-24T10:00:36.710Z</time>
      </trkpt>
      <trkpt lat="41.90535" lon="20.96299">
        <ele>501.291956</ele>
        <time>2022-04-24T10:00:38.698Z</time>
      </trkpt>
      <trkpt lat="41.90525" lon="20.96296">
        <ele>501.138444</ele>
        <time>2022-04-24T10:00:40.715Z</time>
      </trkpt>
      <trkpt lat="41.90515" lon="20.96294">
        <ele>500.984324</ele>
        <time>2022-04-24T10:00:42.715Z</time>
      </trkpt>
      <trkpt lat="41.90506" lon="20.96293">
        <ele>500.837994</ele>
        <time>2022-04-24T10:00:44.716Z</time>
      </trkpt>
      <trkpt lat="41.90496" lon="20.96291">
        <ele>500.691664</ele>
        <time>2022-04-24T10:00:46.711Z</time>
      </trkpt>
      <trkpt lat="41.90486" lon="20.96289">
        <ele>500.540202</ele>
        <time>2022-04-24T10:00:48.716Z</time>
      </trkpt>
      <trkpt lat="41.90477" lon="20.96287">
        <ele>500.399705</ele>
        <time>2022-04-24T10:00:50.726Z</time>
      </trkpt>
      <trkpt lat="41.90468" lon="20.96286">
        <ele>500.257114</ele>
        <time>2022-04-24T10:00:52.708Z</time>
      </trkpt>
      <trkpt lat="41.90458" lon="20.96285">
        <ele>500.105576</ele>
        <time>2022-04-24T10:00:54.701Z</time>
      </trkpt>
      <trkpt lat="41.90447" lon="20.96284">
        <ele>499.952134</ele>
        <time>2022-04-24T10:00:56.714Z</time>
      </trkpt>
      <trkpt lat="41.90437" lon="20.96282">
        <ele>499.800075</ele>
        <time>2022-04-24T10:00:58.699Z</time>
      </trkpt>
      <trkpt lat="41.90428" lon="20.96281">
        <ele>499.657577</ele>
        <time>2022-04-24T10:01:00.702Z</time>
      </trkpt>
      <trkpt lat="41.90419" lon="20.9628">
        <ele>499.518324</ele>
        <time>2022-04-24T10:01:02.709Z</time>
      </trkpt>
      <trkpt lat="41.90405" lon="20.96281">
        <ele>499.314284</ele>
        <time>2022-04-24T10:01:05.692Z</time>
      </trkpt>
      <trkpt lat="41.90396" lon="20.96282">
        <ele>499.42627</ele>
        <time>2022-04-24T10:01:07.714Z</time>
      </trkpt>
      <trkpt lat="41.90387" lon="20.96282">
        <ele>499.5572</ele>
        <time>2022-04-24T10:01:09.691Z</time>
      </trkpt>
      <trkpt lat="41.90376" lon="20.96283">
        <ele>499.694947</ele>
        <time>2022-04-24T10:01:11.754Z</time>
      </trkpt>
      <trkpt lat="41.90366" lon="20.96284">
        <ele>499.830494</ele>
        <time>2022-04-24T10:01:13.731Z</time>
      </trkpt>
      <trkpt lat="41.90357" lon="20.96285">
        <ele>499.957796</ele>
        <time>2022-04-24T10:01:15.713Z</time>
      </trkpt>
      <trkpt lat="41.90344" lon="20.96286">
        <ele>500.13106</ele>
        <time>2022-04-24T10:01:18.703Z</time>
      </trkpt>
      <trkpt lat="41.90332" lon="20.96289">
        <ele>500.295383</ele>
        <time>2022-04-24T10:01:21.729Z</time>
      </trkpt>
      <trkpt lat="41.9032" lon="20.96292">
        <ele>500.459118</ele>
        <time>2022-04-24T10:01:24.721Z</time>
      </trkpt>
      <trkpt lat="41.90308" lon="20.96297">
        <ele>500.632495</ele>
        <time>2022-04-24T10:01:27.694Z</time>
      </trkpt>
      <trkpt lat="41.90299" lon="20.96301">
        <ele>500.75446</ele>
        <time>2022-04-24T10:01:29.696Z</time>
      </trkpt>
      <trkpt lat="41.9029" lon="20.96304">
        <ele>500.878257</ele>
        <time>2022-04-24T10:01:31.721Z</time>
      </trkpt>
      <trkpt lat="41.90278" lon="20.96309">
        <ele>501.060255</ele>
        <time>2022-04-24T10:01:34.702Z</time>
      </trkpt>
      <trkpt lat="41.90269" lon="20.96313">
        <ele>501.1821</ele>
        <time>2022-04-24T10:01:36.728Z</time>
      </trkpt>
      <trkpt lat="41.90258" lon="20.9632">
        <ele>501.345867</ele>
        <time>2022-04-24T10:01:39.703Z</time>
      </trkpt>
      <trkpt lat="41.90247" lon="20.96328">
        <ele>501.515103</ele>
        <time>2022-04-24T10:01:42.717Z</time>
      </trkpt>
      <trkpt lat="41.90237" lon="20.96337">
        <ele>501.683653</ele>
        <time>2022-04-24T10:01:45.719Z</time>
      </trkpt>
      <trkpt lat="41.90226" lon="20.96346">
        <ele>501.638103</ele>
        <time>2022-04-24T10:01:48.727Z</time>
      </trkpt>
      <trkpt lat="41.90218" lon="20.96352">
        <ele>501.529203</ele>
        <time>2022-04-24T10:01:50.715Z</time>
      </trkpt>
      <trkpt lat="41.90209" lon="20.96359">
        <ele>501.414668</ele>
        <time>2022-04-24T10:01:52.715Z</time>
      </trkpt>
      <trkpt lat="41.902" lon="20.96366">
        <ele>501.295343</ele>
        <time>2022-04-24T10:01:54.718Z</time>
      </trkpt>
      <trkpt lat="41.9019" lon="20.96373">
        <ele>501.17084</ele>
        <time>2022-04-24T10:01:56.702Z</time>
      </trkpt>
      <trkpt lat="41.90181" lon="20.9638">
        <ele>501.051548</ele>
        <time>2022-04-24T10:01:58.695Z</time>
      </trkpt>
      <trkpt lat="41.90172" lon="20.96386">
        <ele>500.933655</ele>
        <time>2022-04-24T10:02:00.731Z</time>
      </trkpt>
      <trkpt lat="41.90163" lon="20.96393">
        <ele>500.818259</ele>
        <time>2022-04-24T10:02:02.715Z</time>
      </trkpt>
      <trkpt lat="41.90154" lon="20.964">
        <ele>500.704147</ele>
        <time>2022-04-24T10:02:04.730Z</time>
      </trkpt>
      <trkpt lat="41.90145" lon="20.96407">
        <ele>500.58524</ele>
        <time>2022-04-24T10:02:06.706Z</time>
      </trkpt>
      <trkpt lat="41.90137" lon="20.96413">
        <ele>500.472114</ele>
        <time>2022-04-24T10:02:08.709Z</time>
      </trkpt>
      <trkpt lat="41.90128" lon="20.9642">
        <ele>500.356805</ele>
        <time>2022-04-24T10:02:10.723Z</time>
      </trkpt>
      <trkpt lat="41.90118" lon="20.96428">
        <ele>500.230435</ele>
        <time>2022-04-24T10:02:12.720Z</time>
      </trkpt>
      <trkpt lat="41.90108" lon="20.96436">
        <ele>500.095605</ele>
        <time>2022-04-24T10:02:14.717Z</time>
      </trkpt>
      <trkpt lat="41.90098" lon="20.96443">
        <ele>499.964881</ele>
        <time>2022-04-24T10:02:16.713Z</time>
      </trkpt>
      <trkpt lat="41.90089" lon="20.96451">
        <ele>499.842049</ele>
        <time>2022-04-24T10:02:18.706Z</time>
      </trkpt>
      <trkpt lat="41.9008" lon="20.96458">
        <ele>499.718919</ele>
        <time>2022-04-24T10:02:20.730Z</time>
      </trkpt>
      <trkpt lat="41.90071" lon="20.96465">
        <ele>499.622059</ele>
        <time>2022-04-24T10:02:22.717Z</time>
      </trkpt>
      <trkpt lat="41.90062" lon="20.96472">
        <ele>499.53423</ele>
        <time>2022-04-24T10:02:24.730Z</time>
      </trkpt>
      <trkpt lat="41.90055" lon="20.96478">
        <ele>499.454336</ele>
        <time>2022-04-24T10:02:26.713Z</time>
      </trkpt>
      <trkpt lat="41.90043" lon="20.96488">
        <ele>499.334705</ele>
        <time>2022-04-24T10:02:29.726Z</time>
      </trkpt>
      <trkpt lat="41.90032" lon="20.96499">
        <ele>499.216149</ele>
        <time>2022-04-24T10:02:32.715Z</time>
      </trkpt>
      <trkpt lat="41.90023" lon="20.96509">
        <ele>499.105684</ele>
        <time>2022-04-24T10:02:35.750Z</time>
      </trkpt>
      <trkpt lat="41.90014" lon="20.9652">
        <ele>498.998009</ele>
        <time>2022-04-24T10:02:38.715Z</time>
      </trkpt>
      <trkpt lat="41.90006" lon="20.96532">
        <ele>498.893628</ele>
        <time>2022-04-24T10:02:41.746Z</time>
      </trkpt>
      <trkpt lat="41.89997" lon="20.96544">
        <ele>498.780553</ele>
        <time>2022-04-24T10:02:44.710Z</time>
      </trkpt>
      <trkpt lat="41.89987" lon="20.96556">
        <ele>498.663267</ele>
        <time>2022-04-24T10:02:47.733Z</time>
      </trkpt>
      <trkpt lat="41.89978" lon="20.96568">
        <ele>498.550927</ele>
        <time>2022-04-24T10:02:50.712Z</time>
      </trkpt>
      <trkpt lat="41.89969" lon="20.9658">
        <ele>498.437852</ele>
        <time>2022-04-24T10:02:53.730Z</time>
      </trkpt>
      <trkpt lat="41.89962" lon="20.96588">
        <ele>498.357414</ele>
        <time>2022-04-24T10:02:55.728Z</time>
      </trkpt>
      <trkpt lat="41.89955" lon="20.96597">
        <ele>498.27285</ele>
        <time>2022-04-24T10:02:57.708Z</time>
      </trkpt>
      <trkpt lat="41.89948" lon="20.96605">
        <ele>498.190829</ele>
        <time>2022-04-24T10:02:59.722Z</time>
      </trkpt>
      <trkpt lat="41.89938" lon="20.96615">
        <ele>498.120512</ele>
        <time>2022-04-24T10:03:02.701Z</time>
      </trkpt>
      <trkpt lat="41.89927" lon="20.96624">
        <ele>498.30262</ele>
        <time>2022-04-24T10:03:05.701Z</time>
      </trkpt>
      <trkpt lat="41.89916" lon="20.96632">
        <ele>498.486252</ele>
        <time>2022-04-24T10:03:08.719Z</time>
      </trkpt>
      <trkpt lat="41.89904" lon="20.9664">
        <ele>498.676636</ele>
        <time>2022-04-24T10:03:11.715Z</time>
      </trkpt>
      <trkpt lat="41.89892" lon="20.96647">
        <ele>498.872183</ele>
        <time>2022-04-24T10:03:14.740Z</time>
      </trkpt>
      <trkpt lat="41.89884" lon="20.96652">
        <ele>499.003089</ele>
        <time>2022-04-24T10:03:16.727Z</time>
      </trkpt>
      <trkpt lat="41.89875" lon="20.96658">
        <ele>499.142263</ele>
        <time>2022-04-24T10:03:18.721Z</time>
      </trkpt>
      <trkpt lat="41.89863" lon="20.96664">
        <ele>499.322996</ele>
        <time>2022-04-24T10:03:21.697Z</time>
      </trkpt>
      <trkpt lat="41.89852" lon="20.96671">
        <ele>499.50582</ele>
        <time>2022-04-24T10:03:24.716Z</time>
      </trkpt>
      <trkpt lat="41.89841" lon="20.96679">
        <ele>499.686507</ele>
        <time>2022-04-24T10:03:27.719Z</time>
      </trkpt>
      <trkpt lat="41.89829" lon="20.96686">
        <ele>499.873493</ele>
        <time>2022-04-24T10:03:30.715Z</time>
      </trkpt>
      <trkpt lat="41.89817" lon="20.96694">
        <ele>500.061561</ele>
        <time>2022-04-24T10:03:33.713Z</time>
      </trkpt>
      <trkpt lat="41.89806" lon="20.967">
        <ele>500.236855</ele>
        <time>2022-04-24T10:03:36.705Z</time>
      </trkpt>
      <trkpt lat="41.89795" lon="20.96707">
        <ele>500.420529</ele>
        <time>2022-04-24T10:03:39.722Z</time>
      </trkpt>
      <trkpt lat="41.89786" lon="20.96712">
        <ele>500.551849</ele>
        <time>2022-04-24T10:03:41.712Z</time>
      </trkpt>
      <trkpt lat="41.89778" lon="20.96717">
        <ele>500.685331</ele>
        <time>2022-04-24T10:03:43.703Z</time>
      </trkpt>
      <trkpt lat="41.8977" lon="20.96722">
        <ele>500.779911</ele>
        <time>2022-04-24T10:03:45.714Z</time>
      </trkpt>
      <trkpt lat="41.89758" lon="20.96729">
        <ele>500.909929</ele>
        <time>2022-04-24T10:03:48.714Z</time>
      </trkpt>
      <trkpt lat="41.89749" lon="20.96734">
        <ele>500.999394</ele>
        <time>2022-04-24T10:03:50.721Z</time>
      </trkpt>
      <trkpt lat="41.89737" lon="20.96741">
        <ele>501.130019</ele>
        <time>2022-04-24T10:03:53.739Z</time>
      </trkpt>
      <trkpt lat="41.89725" lon="20.96748">
        <ele>501.259747</ele>
        <time>2022-04-24T10:03:56.714Z</time>
      </trkpt>
      <trkpt lat="41.89714" lon="20.96756">
        <ele>501.38565</ele>
        <time>2022-04-24T10:03:59.719Z</time>
      </trkpt>
      <trkpt lat="41.89702" lon="20.96763">
        <ele>501.516872</ele>
        <time>2022-04-24T10:04:02.708Z</time>
      </trkpt>
      <trkpt lat="41.8969" lon="20.9677">
        <ele>501.64208</ele>
        <time>2022-04-24T10:04:05.718Z</time>
      </trkpt>
      <trkpt lat="41.89678" lon="20.96778">
        <ele>501.774206</ele>
        <time>2022-04-24T10:04:08.707Z</time>
      </trkpt>
      <trkpt lat="41.89666" lon="20.96784">
        <ele>501.903681</ele>
        <time>2022-04-24T10:04:11.701Z</time>
      </trkpt>
      <trkpt lat="41.89657" lon="20.96788">
        <ele>501.998901</ele>
        <time>2022-04-24T10:04:13.712Z</time>
      </trkpt>
      <trkpt lat="41.89648" lon="20.96791">
        <ele>502.092224</ele>
        <time>2022-04-24T10:04:15.730Z</time>
      </trkpt>
      <trkpt lat="41.89639" lon="20.96793">
        <ele>502.182998</ele>
        <time>2022-04-24T10:04:17.711Z</time>
      </trkpt>
      <trkpt lat="41.89629" lon="20.96795">
        <ele>502.276061</ele>
        <time>2022-04-24T10:04:19.715Z</time>
      </trkpt>
      <trkpt lat="41.89616" lon="20.96798">
        <ele>502.405839</ele>
        <time>2022-04-24T10:04:22.698Z</time>
      </trkpt>
      <trkpt lat="41.89604" lon="20.96801">
        <ele>502.527525</ele>
        <time>2022-04-24T10:04:25.714Z</time>
      </trkpt>
      <trkpt lat="41.89591" lon="20.96804">
        <ele>502.643949</ele>
        <time>2022-04-24T10:04:28.724Z</time>
      </trkpt>
      <trkpt lat="41.89579" lon="20.96807">
        <ele>502.760599</ele>
        <time>2022-04-24T10:04:31.718Z</time>
      </trkpt>
      <trkpt lat="41.89566" lon="20.96809">
        <ele>502.880453</ele>
        <time>2022-04-24T10:04:34.723Z</time>
      </trkpt>
      <trkpt lat="41.89553" lon="20.96813">
        <ele>503.001989</ele>
        <time>2022-04-24T10:04:37.722Z</time>
      </trkpt>
      <trkpt lat="41.8954" lon="20.96815">
        <ele>503.119114</ele>
        <time>2022-04-24T10:04:40.720Z</time>
      </trkpt>
      <trkpt lat="41.89528" lon="20.96818">
        <ele>503.2351</ele>
        <time>2022-04-24T10:04:43.734Z</time>
      </trkpt>
      <trkpt lat="41.89515" lon="20.96821">
        <ele>503.353149</ele>
        <time>2022-04-24T10:04:46.714Z</time>
      </trkpt>
      <trkpt lat="41.89503" lon="20.96824">
        <ele>503.468777</ele>
        <time>2022-04-24T10:04:49.735Z</time>
      </trkpt>
      <trkpt lat="41.89491" lon="20.96828">
        <ele>503.585157</ele>
        <time>2022-04-24T10:04:52.707Z</time>
      </trkpt>
      <trkpt lat="41.89478" lon="20.96831">
        <ele>503.699598</ele>
        <time>2022-04-24T10:04:55.719Z</time>
      </trkpt>
      <trkpt lat="41.89466" lon="20.96835">
        <ele>503.818426</ele>
        <time>2022-04-24T10:04:58.717Z</time>
      </trkpt>
      <trkpt lat="41.89454" lon="20.9684">
        <ele>503.932995</ele>
        <time>2022-04-24T10:05:01.728Z</time>
      </trkpt>
      <trkpt lat="41.89442" lon="20.96845">
        <ele>504.049014</ele>
        <time>2022-04-24T10:05:04.695Z</time>
      </trkpt>
      <trkpt lat="41.8943" lon="20.9685">
        <ele>504.114008</ele>
        <time>2022-04-24T10:05:07.719Z</time>
      </trkpt>
      <trkpt lat="41.89418" lon="20.96855">
        <ele>504.057354</ele>
        <time>2022-04-24T10:05:10.701Z</time>
      </trkpt>
      <trkpt lat="41.89405" lon="20.9686">
        <ele>503.999463</ele>
        <time>2022-04-24T10:05:13.705Z</time>
      </trkpt>
      <trkpt lat="41.89393" lon="20.96865">
        <ele>503.94344</ele>
        <time>2022-04-24T10:05:16.746Z</time>
      </trkpt>
      <trkpt lat="41.89381" lon="20.96869">
        <ele>503.888233</ele>
        <time>2022-04-24T10:05:19.708Z</time>
      </trkpt>
      <trkpt lat="41.8937" lon="20.96874">
        <ele>503.834074</ele>
        <time>2022-04-24T10:05:22.710Z</time>
      </trkpt>
      <trkpt lat="41.89359" lon="20.96879">
        <ele>503.781149</ele>
        <time>2022-04-24T10:05:25.710Z</time>
      </trkpt>
      <trkpt lat="41.89347" lon="20.96884">
        <ele>503.726307</ele>
        <time>2022-04-24T10:05:28.731Z</time>
      </trkpt>
      <trkpt lat="41.89335" lon="20.96889">
        <ele>503.669755</ele>
        <time>2022-04-24T10:05:31.715Z</time>
      </trkpt>
      <trkpt lat="41.89323" lon="20.96895">
        <ele>503.611293</ele>
        <time>2022-04-24T10:05:34.721Z</time>
      </trkpt>
      <trkpt lat="41.8931" lon="20.96899">
        <ele>503.553492</ele>
        <time>2022-04-24T10:05:37.713Z</time>
      </trkpt>
      <trkpt lat="41.89298" lon="20.96904">
        <ele>503.495779</ele>
        <time>2022-04-24T10:05:40.718Z</time>
      </trkpt>
      <trkpt lat="41.89285" lon="20.96908">
        <ele>503.436575</ele>
        <time>2022-04-24T10:05:43.720Z</time>
      </trkpt>
      <trkpt lat="41.89276" lon="20.96911">
        <ele>503.394828</ele>
        <time>2022-04-24T10:05:45.722Z</time>
      </trkpt>
      <trkpt lat="41.89267" lon="20.96914">
        <ele>503.352646</ele>
        <time>2022-04-24T10:05:47.703Z</time>
      </trkpt>
      <trkpt lat="41.89258" lon="20.96917">
        <ele>503.319893</ele>
        <time>2022-04-24T10:05:49.737Z</time>
      </trkpt>
      <trkpt lat="41.89249" lon="20.96922">
        <ele>503.309275</ele>
        <time>2022-04-24T10:05:51.708Z</time>
      </trkpt>
      <trkpt lat="41.8924" lon="20.96926">
        <ele>503.298683</ele>
        <time>2022-04-24T10:05:53.718Z</time>
      </trkpt>
      <trkpt lat="41.89231" lon="20.9693">
        <ele>503.287922</ele>
        <time>2022-04-24T10:05:55.689Z</time>
      </trkpt>
      <trkpt lat="41.89222" lon="20.96936">
        <ele>503.276452</ele>
        <time>2022-04-24T10:05:57.756Z</time>
      </trkpt>
      <trkpt lat="41.89213" lon="20.96943">
        <ele>503.26498</ele>
        <time>2022-04-24T10:05:59.722Z</time>
      </trkpt>
      <trkpt lat="41.89205" lon="20.9695">
        <ele>503.253878</ele>
        <time>2022-04-24T10:06:01.718Z</time>
      </trkpt>
      <trkpt lat="41.89197" lon="20.96957">
        <ele>503.243057</ele>
        <time>2022-04-24T10:06:03.710Z</time>
      </trkpt>
      <trkpt lat="41.8919" lon="20.96965">
        <ele>503.232544</ele>
        <time>2022-04-24T10:06:05.719Z</time>
      </trkpt>
      <trkpt lat="41.89182" lon="20.96972">
        <ele>503.222262</ele>
        <time>2022-04-24T10:06:07.734Z</time>
      </trkpt>
      <trkpt lat="41.89175" lon="20.9698">
        <ele>503.211609</ele>
        <time>2022-04-24T10:06:09.730Z</time>
      </trkpt>
      <trkpt lat="41.89168" lon="20.96988">
        <ele>503.201399</ele>
        <time>2022-04-24T10:06:11.702Z</time>
      </trkpt>
      <trkpt lat="41.89158" lon="20.96999">
        <ele>503.186769</ele>
        <time>2022-04-24T10:06:14.709Z</time>
      </trkpt>
      <trkpt lat="41.89148" lon="20.9701">
        <ele>503.172095</ele>
        <time>2022-04-24T10:06:17.718Z</time>
      </trkpt>
      <trkpt lat="41.89138" lon="20.97021">
        <ele>503.157963</ele>
        <time>2022-04-24T10:06:20.727Z</time>
      </trkpt>
      <trkpt lat="41.89129" lon="20.97032">
        <ele>503.143278</ele>
        <time>2022-04-24T10:06:23.710Z</time>
      </trkpt>
      <trkpt lat="41.89118" lon="20.97044">
        <ele>503.128058</ele>
        <time>2022-04-24T10:06:26.705Z</time>
      </trkpt>
      <trkpt lat="41.89111" lon="20.97051">
        <ele>503.12868</ele>
        <time>2022-04-24T10:06:28.710Z</time>
      </trkpt>
      <trkpt lat="41.89103" lon="20.97059">
        <ele>503.16373</ele>
        <time>2022-04-24T10:06:30.685Z</time>
      </trkpt>
      <trkpt lat="41.89096" lon="20.97067">
        <ele>503.196664</ele>
        <time>2022-04-24T10:06:32.681Z</time>
      </trkpt>
      <trkpt lat="41.89088" lon="20.97073">
        <ele>503.230511</ele>
        <time>2022-04-24T10:06:34.729Z</time>
      </trkpt>
      <trkpt lat="41.89079" lon="20.97079">
        <ele>503.265777</ele>
        <time>2022-04-24T10:06:36.695Z</time>
      </trkpt>
      <trkpt lat="41.89071" lon="20.97084">
        <ele>503.300716</ele>
        <time>2022-04-24T10:06:38.706Z</time>
      </trkpt>
      <trkpt lat="41.89063" lon="20.9709">
        <ele>503.335083</ele>
        <time>2022-04-24T10:06:40.708Z</time>
      </trkpt>
      <trkpt lat="41.89054" lon="20.97095">
        <ele>503.369093</ele>
        <time>2022-04-24T10:06:42.726Z</time>
      </trkpt>
      <trkpt lat="41.89046" lon="20.97101">
        <ele>503.402355</ele>
        <time>2022-04-24T10:06:44.702Z</time>
      </trkpt>
      <trkpt lat="41.89038" lon="20.97106">
        <ele>503.435944</ele>
        <time>2022-04-24T10:06:46.699Z</time>
      </trkpt>
      <trkpt lat="41.89029" lon="20.97112">
        <ele>503.470883</ele>
        <time>2022-04-24T10:06:48.728Z</time>
      </trkpt>
      <trkpt lat="41.89021" lon="20.97118">
        <ele>503.506652</ele>
        <time>2022-04-24T10:06:50.716Z</time>
      </trkpt>
      <trkpt lat="41.89012" lon="20.97124">
        <ele>503.541517</ele>
        <time>2022-04-24T10:06:52.740Z</time>
      </trkpt>
      <trkpt lat="41.89004" lon="20.9713">
        <ele>503.576906</ele>
        <time>2022-04-24T10:06:54.715Z</time>
      </trkpt>
      <trkpt lat="41.88995" lon="20.97136">
        <ele>503.613648</ele>
        <time>2022-04-24T10:06:56.722Z</time>
      </trkpt>
      <trkpt lat="41.88986" lon="20.97142">
        <ele>503.649939</ele>
        <time>2022-04-24T10:06:58.710Z</time>
      </trkpt>
      <trkpt lat="41.88977" lon="20.97149">
        <ele>503.686612</ele>
        <time>2022-04-24T10:07:00.727Z</time>
      </trkpt>
      <trkpt lat="41.88969" lon="20.97155">
        <ele>503.722138</ele>
        <time>2022-04-24T10:07:02.736Z</time>
      </trkpt>
      <trkpt lat="41.8896" lon="20.97162">
        <ele>503.75888</ele>
        <time>2022-04-24T10:07:04.690Z</time>
      </trkpt>
      <trkpt lat="41.88951" lon="20.97168">
        <ele>503.804594</ele>
        <time>2022-04-24T10:07:06.718Z</time>
      </trkpt>
      <trkpt lat="41.88942" lon="20.97174">
        <ele>503.862324</ele>
        <time>2022-04-24T10:07:08.724Z</time>
      </trkpt>
      <trkpt lat="41.88933" lon="20.9718">
        <ele>503.920572</ele>
        <time>2022-04-24T10:07:10.723Z</time>
      </trkpt>
      <trkpt lat="41.88924" lon="20.97185">
        <ele>503.977903</ele>
        <time>2022-04-24T10:07:12.715Z</time>
      </trkpt>
      <trkpt lat="41.88915" lon="20.97189">
        <ele>504.034097</ele>
        <time>2022-04-24T10:07:14.711Z</time>
      </trkpt>
      <trkpt lat="41.88906" lon="20.97192">
        <ele>504.090011</ele>
        <time>2022-04-24T10:07:16.719Z</time>
      </trkpt>
      <trkpt lat="41.88896" lon="20.97194">
        <ele>504.146147</ele>
        <time>2022-04-24T10:07:18.715Z</time>
      </trkpt>
      <trkpt lat="41.88886" lon="20.97195">
        <ele>504.202283</ele>
        <time>2022-04-24T10:07:20.720Z</time>
      </trkpt>
      <trkpt lat="41.88877" lon="20.97197">
        <ele>504.259051</ele>
        <time>2022-04-24T10:07:22.713Z</time>
      </trkpt>
      <trkpt lat="41.88867" lon="20.97199">
        <ele>504.316968</ele>
        <time>2022-04-24T10:07:24.717Z</time>
      </trkpt>
      <trkpt lat="41.88856" lon="20.97201">
        <ele>504.377365</ele>
        <time>2022-04-24T10:07:26.717Z</time>
      </trkpt>
      <trkpt lat="41.88846" lon="20.97203">
        <ele>504.437527</ele>
        <time>2022-04-24T10:07:28.709Z</time>
      </trkpt>
      <trkpt lat="41.88835" lon="20.97205">
        <ele>504.50073</ele>
        <time>2022-04-24T10:07:30.719Z</time>
      </trkpt>
      <trkpt lat="41.88824" lon="20.97206">
        <ele>504.564922</ele>
        <time>2022-04-24T10:07:32.753Z</time>
      </trkpt>
      <trkpt lat="41.88814" lon="20.97208">
        <ele>504.626234</ele>
        <time>2022-04-24T10:07:34.713Z</time>
      </trkpt>
      <trkpt lat="41.88804" lon="20.9721">
        <ele>504.68645</ele>
        <time>2022-04-24T10:07:36.705Z</time>
      </trkpt>
      <trkpt lat="41.88793" lon="20.97212">
        <ele>504.74621</ele>
        <time>2022-04-24T10:07:38.753Z</time>
      </trkpt>
      <trkpt lat="41.88783" lon="20.97214">
        <ele>504.805221</ele>
        <time>2022-04-24T10:07:40.714Z</time>
      </trkpt>
      <trkpt lat="41.88774" lon="20.97215">
        <ele>504.847423</ele>
        <time>2022-04-24T10:07:42.707Z</time>
      </trkpt>
      <trkpt lat="41.88764" lon="20.97216">
        <ele>504.883773</ele>
        <time>2022-04-24T10:07:44.705Z</time>
      </trkpt>
      <trkpt lat="41.88754" lon="20.97218">
        <ele>504.922023</ele>
        <time>2022-04-24T10:07:46.710Z</time>
      </trkpt>
      <trkpt lat="41.88744" lon="20.9722">
        <ele>504.960273</ele>
        <time>2022-04-24T10:07:48.719Z</time>
      </trkpt>
      <trkpt lat="41.88734" lon="20.97221">
        <ele>504.99822</ele>
        <time>2022-04-24T10:07:50.718Z</time>
      </trkpt>
      <trkpt lat="41.88724" lon="20.97223">
        <ele>505.036065</ele>
        <time>2022-04-24T10:07:52.713Z</time>
      </trkpt>
      <trkpt lat="41.88714" lon="20.97225">
        <ele>505.073568</ele>
        <time>2022-04-24T10:07:54.723Z</time>
      </trkpt>
      <trkpt lat="41.88704" lon="20.97226">
        <ele>505.111106</ele>
        <time>2022-04-24T10:07:56.710Z</time>
      </trkpt>
      <trkpt lat="41.88694" lon="20.97228">
        <ele>505.147395</ele>
        <time>2022-04-24T10:07:58.709Z</time>
      </trkpt>
      <trkpt lat="41.88685" lon="20.97229">
        <ele>505.183405</ele>
        <time>2022-04-24T10:08:00.730Z</time>
      </trkpt>
      <trkpt lat="41.88676" lon="20.97231">
        <ele>505.218333</ele>
        <time>2022-04-24T10:08:02.731Z</time>
      </trkpt>
      <trkpt lat="41.88666" lon="20.97232">
        <ele>505.254248</ele>
        <time>2022-04-24T10:08:04.719Z</time>
      </trkpt>
      <trkpt lat="41.88657" lon="20.97234">
        <ele>505.290667</ele>
        <time>2022-04-24T10:08:06.702Z</time>
      </trkpt>
      <trkpt lat="41.88647" lon="20.97235">
        <ele>505.328138</ele>
        <time>2022-04-24T10:08:08.714Z</time>
      </trkpt>
      <trkpt lat="41.88637" lon="20.97237">
        <ele>505.365235</ele>
        <time>2022-04-24T10:08:10.718Z</time>
      </trkpt>
      <trkpt lat="41.88627" lon="20.97239">
        <ele>505.402773</ele>
        <time>2022-04-24T10:08:12.724Z</time>
      </trkpt>
      <trkpt lat="41.88617" lon="20.9724">
        <ele>505.439496</ele>
        <time>2022-04-24T10:08:14.716Z</time>
      </trkpt>
      <trkpt lat="41.88608" lon="20.97242">
        <ele>505.475208</ele>
        <time>2022-04-24T10:08:16.727Z</time>
      </trkpt>
      <trkpt lat="41.88598" lon="20.97244">
        <ele>505.538628</ele>
        <time>2022-04-24T10:08:18.723Z</time>
      </trkpt>
      <trkpt lat="41.88589" lon="20.97247">
        <ele>505.646</ele>
        <time>2022-04-24T10:08:20.723Z</time>
      </trkpt>
      <trkpt lat="41.8858" lon="20.9725">
        <ele>505.757553</ele>
        <time>2022-04-24T10:08:22.715Z</time>
      </trkpt>
      <trkpt lat="41.8857" lon="20.97254">
        <ele>505.870393</ele>
        <time>2022-04-24T10:08:24.730Z</time>
      </trkpt>
      <trkpt lat="41.8856" lon="20.97258">
        <ele>505.982147</ele>
        <time>2022-04-24T10:08:26.709Z</time>
      </trkpt>
      <trkpt lat="41.88551" lon="20.97262">
        <ele>506.090649</ele>
        <time>2022-04-24T10:08:28.707Z</time>
      </trkpt>
      <trkpt lat="41.88542" lon="20.97266">
        <ele>506.196163</ele>
        <time>2022-04-24T10:08:30.723Z</time>
      </trkpt>
      <trkpt lat="41.88533" lon="20.9727">
        <ele>506.303831</ele>
        <time>2022-04-24T10:08:32.711Z</time>
      </trkpt>
      <trkpt lat="41.88524" lon="20.97274">
        <ele>506.412009</ele>
        <time>2022-04-24T10:08:34.722Z</time>
      </trkpt>
      <trkpt lat="41.88515" lon="20.97277">
        <ele>506.523763</ele>
        <time>2022-04-24T10:08:36.718Z</time>
      </trkpt>
      <trkpt lat="41.88505" lon="20.9728">
        <ele>506.636415</ele>
        <time>2022-04-24T10:08:38.731Z</time>
      </trkpt>
      <trkpt lat="41.88496" lon="20.97284">
        <ele>506.747493</ele>
        <time>2022-04-24T10:08:40.730Z</time>
      </trkpt>
      <trkpt lat="41.88486" lon="20.97288">
        <ele>506.857568</ele>
        <time>2022-04-24T10:08:42.710Z</time>
      </trkpt>
      <trkpt lat="41.88477" lon="20.97291">
        <ele>506.969559</ele>
        <time>2022-04-24T10:08:44.729Z</time>
      </trkpt>
      <trkpt lat="41.88467" lon="20.97295">
        <ele>507.085281</ele>
        <time>2022-04-24T10:08:46.738Z</time>
      </trkpt>
      <trkpt lat="41.88457" lon="20.973">
        <ele>507.202835</ele>
        <time>2022-04-24T10:08:48.721Z</time>
      </trkpt>
      <trkpt lat="41.88447" lon="20.97304">
        <ele>507.318079</ele>
        <time>2022-04-24T10:08:50.719Z</time>
      </trkpt>
      <trkpt lat="41.88438" lon="20.97307">
        <ele>507.428515</ele>
        <time>2022-04-24T10:08:52.738Z</time>
      </trkpt>
      <trkpt lat="41.88429" lon="20.97311">
        <ele>507.531813</ele>
        <time>2022-04-24T10:08:54.727Z</time>
      </trkpt>
      <trkpt lat="41.8842" lon="20.97314">
        <ele>507.557488</ele>
        <time>2022-04-24T10:08:56.713Z</time>
      </trkpt>
      <trkpt lat="41.8841" lon="20.97318">
        <ele>507.582947</ele>
        <time>2022-04-24T10:08:58.715Z</time>
      </trkpt>
      <trkpt lat="41.88401" lon="20.97321">
        <ele>507.60851</ele>
        <time>2022-04-24T10:09:00.716Z</time>
      </trkpt>
      <trkpt lat="41.88392" lon="20.97325">
        <ele>507.6349</ele>
        <time>2022-04-24T10:09:02.718Z</time>
      </trkpt>
      <trkpt lat="41.88382" lon="20.97328">
        <ele>507.660464</ele>
        <time>2022-04-24T10:09:04.710Z</time>
      </trkpt>
      <trkpt lat="41.88373" lon="20.97332">
        <ele>507.686543</ele>
        <time>2022-04-24T10:09:06.714Z</time>
      </trkpt>
      <trkpt lat="41.88363" lon="20.97335">
        <ele>507.714016</ele>
        <time>2022-04-24T10:09:08.702Z</time>
      </trkpt>
      <trkpt lat="41.88353" lon="20.97339">
        <ele>507.741489</ele>
        <time>2022-04-24T10:09:10.729Z</time>
      </trkpt>
      <trkpt lat="41.88343" lon="20.97343">
        <ele>507.768963</ele>
        <time>2022-04-24T10:09:12.725Z</time>
      </trkpt>
      <trkpt lat="41.88334" lon="20.97346">
        <ele>507.795353</ele>
        <time>2022-04-24T10:09:14.715Z</time>
      </trkpt>
      <trkpt lat="41.88324" lon="20.9735">
        <ele>507.821853</ele>
        <time>2022-04-24T10:09:16.710Z</time>
      </trkpt>
      <trkpt lat="41.88315" lon="20.97354">
        <ele>507.847417</ele>
        <time>2022-04-24T10:09:18.712Z</time>
      </trkpt>
      <trkpt lat="41.88306" lon="20.97357">
        <ele>507.872267</ele>
        <time>2022-04-24T10:09:20.722Z</time>
      </trkpt>
      <trkpt lat="41.88293" lon="20.97363">
        <ele>507.908275</ele>
        <time>2022-04-24T10:09:23.729Z</time>
      </trkpt>
      <trkpt lat="41.88285" lon="20.97366">
        <ele>507.932756</ele>
        <time>2022-04-24T10:09:25.723Z</time>
      </trkpt>
      <trkpt lat="41.88276" lon="20.9737">
        <ele>507.95735</ele>
        <time>2022-04-24T10:09:27.710Z</time>
      </trkpt>
      <trkpt lat="41.88266" lon="20.97373">
        <ele>507.983225</ele>
        <time>2022-04-24T10:09:29.703Z</time>
      </trkpt>
      <trkpt lat="41.88257" lon="20.97377">
        <ele>508.008901</ele>
        <time>2022-04-24T10:09:31.743Z</time>
      </trkpt>
      <trkpt lat="41.88248" lon="20.97381">
        <ele>507.971574</ele>
        <time>2022-04-24T10:09:33.727Z</time>
      </trkpt>
      <trkpt lat="41.88238" lon="20.97385">
        <ele>507.925556</ele>
        <time>2022-04-24T10:09:35.721Z</time>
      </trkpt>
      <trkpt lat="41.88229" lon="20.97388">
        <ele>507.880785</ele>
        <time>2022-04-24T10:09:37.707Z</time>
      </trkpt>
      <trkpt lat="41.88219" lon="20.97392">
        <ele>507.836072</ele>
        <time>2022-04-24T10:09:39.717Z</time>
      </trkpt>
      <trkpt lat="41.8821" lon="20.97396">
        <ele>507.791691</ele>
        <time>2022-04-24T10:09:41.699Z</time>
      </trkpt>
      <trkpt lat="41.88201" lon="20.974">
        <ele>507.748044</ele>
        <time>2022-04-24T10:09:43.721Z</time>
      </trkpt>
      <trkpt lat="41.88192" lon="20.97404">
        <ele>507.704397</ele>
        <time>2022-04-24T10:09:45.710Z</time>
      </trkpt>
      <trkpt lat="41.88182" lon="20.97407">
        <ele>507.658131</ele>
        <time>2022-04-24T10:09:47.705Z</time>
      </trkpt>
      <trkpt lat="41.88172" lon="20.97411">
        <ele>507.611915</ele>
        <time>2022-04-24T10:09:49.721Z</time>
      </trkpt>
      <trkpt lat="41.88162" lon="20.97415">
        <ele>507.565739</ele>
        <time>2022-04-24T10:09:51.714Z</time>
      </trkpt>
      <trkpt lat="41.88152" lon="20.97419">
        <ele>507.517721</ele>
        <time>2022-04-24T10:09:53.719Z</time>
      </trkpt>
      <trkpt lat="41.88142" lon="20.97423">
        <ele>507.469332</ele>
        <time>2022-04-24T10:09:55.715Z</time>
      </trkpt>
      <trkpt lat="41.88132" lon="20.97427">
        <ele>507.421713</ele>
        <time>2022-04-24T10:09:57.712Z</time>
      </trkpt>
      <trkpt lat="41.88122" lon="20.97431">
        <ele>507.37356</ele>
        <time>2022-04-24T10:09:59.717Z</time>
      </trkpt>
      <trkpt lat="41.88112" lon="20.97436">
        <ele>507.325197</ele>
        <time>2022-04-24T10:10:01.771Z</time>
      </trkpt>
      <trkpt lat="41.88102" lon="20.9744">
        <ele>507.277043</ele>
        <time>2022-04-24T10:10:03.716Z</time>
      </trkpt>
      <trkpt lat="41.88092" lon="20.97444">
        <ele>507.229551</ele>
        <time>2022-04-24T10:10:05.699Z</time>
      </trkpt>
      <trkpt lat="41.88081" lon="20.97447">
        <ele>507.193365</ele>
        <time>2022-04-24T10:10:07.774Z</time>
      </trkpt>
      <trkpt lat="41.88072" lon="20.97451">
        <ele>507.190605</ele>
        <time>2022-04-24T10:10:09.723Z</time>
      </trkpt>
      <trkpt lat="41.88062" lon="20.97455">
        <ele>507.187885</ele>
        <time>2022-04-24T10:10:11.711Z</time>
      </trkpt>
      <trkpt lat="41.88052" lon="20.97459">
        <ele>507.185002</ele>
        <time>2022-04-24T10:10:13.710Z</time>
      </trkpt>
      <trkpt lat="41.88042" lon="20.97463">
        <ele>507.182216</ele>
        <time>2022-04-24T10:10:15.718Z</time>
      </trkpt>
      <trkpt lat="41.88032" lon="20.97466">
        <ele>507.179413</ele>
        <time>2022-04-24T10:10:17.710Z</time>
      </trkpt>
      <trkpt lat="41.88022" lon="20.97469">
        <ele>507.176545</ele>
        <time>2022-04-24T10:10:19.716Z</time>
      </trkpt>
      <trkpt lat="41.88012" lon="20.97472">
        <ele>507.173749</ele>
        <time>2022-04-24T10:10:21.719Z</time>
      </trkpt>
      <trkpt lat="41.88003" lon="20.97474">
        <ele>507.171092</ele>
        <time>2022-04-24T10:10:23.715Z</time>
      </trkpt>
      <trkpt lat="41.87993" lon="20.97476">
        <ele>507.168528</ele>
        <time>2022-04-24T10:10:25.717Z</time>
      </trkpt>
      <trkpt lat="41.87984" lon="20.97477">
        <ele>507.165968</ele>
        <time>2022-04-24T10:10:27.715Z</time>
      </trkpt>
      <trkpt lat="41.87975" lon="20.97478">
        <ele>507.163445</ele>
        <time>2022-04-24T10:10:29.725Z</time>
      </trkpt>
      <trkpt lat="41.87965" lon="20.97479">
        <ele>507.160646</ele>
        <time>2022-04-24T10:10:31.693Z</time>
      </trkpt>
      <trkpt lat="41.87955" lon="20.9748">
        <ele>507.157871</ele>
        <time>2022-04-24T10:10:33.711Z</time>
      </trkpt>
      <trkpt lat="41.87945" lon="20.97481">
        <ele>507.155173</ele>
        <time>2022-04-24T10:10:35.728Z</time>
      </trkpt>
      <trkpt lat="41.87935" lon="20.97482">
        <ele>507.152598</ele>
        <time>2022-04-24T10:10:37.718Z</time>
      </trkpt>
      <trkpt lat="41.87926" lon="20.97482">
        <ele>507.149912</ele>
        <time>2022-04-24T10:10:39.719Z</time>
      </trkpt>
      <trkpt lat="41.87916" lon="20.97483">
        <ele>507.147253</ele>
        <time>2022-04-24T10:10:41.722Z</time>
      </trkpt>
      <trkpt lat="41.87906" lon="20.97484">
        <ele>507.154932</ele>
        <time>2022-04-24T10:10:43.721Z</time>
      </trkpt>
      <trkpt lat="41.87896" lon="20.97485">
        <ele>507.257841</ele>
        <time>2022-04-24T10:10:45.715Z</time>
      </trkpt>
      <trkpt lat="41.87886" lon="20.97486">
        <ele>507.364832</ele>
        <time>2022-04-24T10:10:47.702Z</time>
      </trkpt>
      <trkpt lat="41.87877" lon="20.97487">
        <ele>507.468606</ele>
        <time>2022-04-24T10:10:49.724Z</time>
      </trkpt>
      <trkpt lat="41.87863" lon="20.97488">
        <ele>507.607143</ele>
        <time>2022-04-24T10:10:52.706Z</time>
      </trkpt>
      <trkpt lat="41.8785" lon="20.97488">
        <ele>507.749902</ele>
        <time>2022-04-24T10:10:55.713Z</time>
      </trkpt>
      <trkpt lat="41.87836" lon="20.97489">
        <ele>507.893794</ele>
        <time>2022-04-24T10:10:58.723Z</time>
      </trkpt>
      <trkpt lat="41.87827" lon="20.9749">
        <ele>507.993253</ele>
        <time>2022-04-24T10:11:00.710Z</time>
      </trkpt>
      <trkpt lat="41.87817" lon="20.97491">
        <ele>508.094058</ele>
        <time>2022-04-24T10:11:02.711Z</time>
      </trkpt>
      <trkpt lat="41.87808" lon="20.97493">
        <ele>508.199309</ele>
        <time>2022-04-24T10:11:04.710Z</time>
      </trkpt>
      <trkpt lat="41.87798" lon="20.97494">
        <ele>508.303032</ele>
        <time>2022-04-24T10:11:06.710Z</time>
      </trkpt>
      <trkpt lat="41.87788" lon="20.97494">
        <ele>508.408914</ele>
        <time>2022-04-24T10:11:08.718Z</time>
      </trkpt>
      <trkpt lat="41.87779" lon="20.97495">
        <ele>508.506425</ele>
        <time>2022-04-24T10:11:10.721Z</time>
      </trkpt>
      <trkpt lat="41.87769" lon="20.97496">
        <ele>508.611308</ele>
        <time>2022-04-24T10:11:12.703Z</time>
      </trkpt>
      <trkpt lat="41.87759" lon="20.97498">
        <ele>508.71836</ele>
        <time>2022-04-24T10:11:14.729Z</time>
      </trkpt>
      <trkpt lat="41.87748" lon="20.97498">
        <ele>508.825246</ele>
        <time>2022-04-24T10:11:16.729Z</time>
      </trkpt>
      <trkpt lat="41.87738" lon="20.97499">
        <ele>508.933291</ele>
        <time>2022-04-24T10:11:18.727Z</time>
      </trkpt>
      <trkpt lat="41.87728" lon="20.975">
        <ele>509.037121</ele>
        <time>2022-04-24T10:11:20.722Z</time>
      </trkpt>
      <trkpt lat="41.87719" lon="20.97501">
        <ele>509.062792</ele>
        <time>2022-04-24T10:11:22.702Z</time>
      </trkpt>
      <trkpt lat="41.8771" lon="20.97503">
        <ele>509.081381</ele>
        <time>2022-04-24T10:11:24.723Z</time>
      </trkpt>
      <trkpt lat="41.877" lon="20.97506">
        <ele>509.101029</ele>
        <time>2022-04-24T10:11:26.724Z</time>
      </trkpt>
      <trkpt lat="41.87691" lon="20.97509">
        <ele>509.120313</ele>
        <time>2022-04-24T10:11:28.722Z</time>
      </trkpt>
      <trkpt lat="41.87681" lon="20.97512">
        <ele>509.140521</ele>
        <time>2022-04-24T10:11:30.726Z</time>
      </trkpt>
      <trkpt lat="41.87672" lon="20.97517">
        <ele>509.160903</ele>
        <time>2022-04-24T10:11:32.731Z</time>
      </trkpt>
      <trkpt lat="41.87662" lon="20.97521">
        <ele>509.181187</ele>
        <time>2022-04-24T10:11:34.709Z</time>
      </trkpt>
      <trkpt lat="41.87653" lon="20.97524">
        <ele>509.201275</ele>
        <time>2022-04-24T10:11:36.708Z</time>
      </trkpt>
      <trkpt lat="41.87643" lon="20.97527">
        <ele>509.221021</ele>
        <time>2022-04-24T10:11:38.726Z</time>
      </trkpt>
      <trkpt lat="41.87634" lon="20.97531">
        <ele>509.240258</ele>
        <time>2022-04-24T10:11:40.718Z</time>
      </trkpt>
      <trkpt lat="41.87625" lon="20.97535">
        <ele>509.259995</ele>
        <time>2022-04-24T10:11:42.742Z</time>
      </trkpt>
      <trkpt lat="41.87616" lon="20.97538">
        <ele>509.279426</ele>
        <time>2022-04-24T10:11:44.688Z</time>
      </trkpt>
      <trkpt lat="41.87607" lon="20.97542">
        <ele>509.298655</ele>
        <time>2022-04-24T10:11:46.699Z</time>
      </trkpt>
      <trkpt lat="41.87598" lon="20.97547">
        <ele>509.317742</ele>
        <time>2022-04-24T10:11:48.726Z</time>
      </trkpt>
      <trkpt lat="41.87588" lon="20.9755">
        <ele>509.337411</ele>
        <time>2022-04-24T10:11:50.721Z</time>
      </trkpt>
      <trkpt lat="41.87579" lon="20.97554">
        <ele>509.3568</ele>
        <time>2022-04-24T10:11:52.719Z</time>
      </trkpt>
      <trkpt lat="41.8757" lon="20.97558">
        <ele>509.375994</ele>
        <time>2022-04-24T10:11:54.714Z</time>
      </trkpt>
      <trkpt lat="41.87561" lon="20.97561">
        <ele>509.396008</ele>
        <time>2022-04-24T10:11:56.708Z</time>
      </trkpt>
      <trkpt lat="41.87551" lon="20.97565">
        <ele>509.38939</ele>
        <time>2022-04-24T10:11:58.712Z</time>
      </trkpt>
      <trkpt lat="41.87541" lon="20.97569">
        <ele>509.338928</ele>
        <time>2022-04-24T10:12:00.699Z</time>
      </trkpt>
      <trkpt lat="41.87531" lon="20.97574">
        <ele>509.287295</ele>
        <time>2022-04-24T10:12:02.699Z</time>
      </trkpt>
      <trkpt lat="41.87521" lon="20.97578">
        <ele>509.236247</ele>
        <time>2022-04-24T10:12:04.705Z</time>
      </trkpt>
      <trkpt lat="41.87512" lon="20.97583">
        <ele>509.185076</ele>
        <time>2022-04-24T10:12:06.714Z</time>
      </trkpt>
      <trkpt lat="41.87502" lon="20.97589">
        <ele>509.133429</ele>
        <time>2022-04-24T10:12:08.723Z</time>
      </trkpt>
      <trkpt lat="41.87494" lon="20.97597">
        <ele>509.083351</ele>
        <time>2022-04-24T10:12:10.708Z</time>
      </trkpt>
      <trkpt lat="41.87487" lon="20.97607">
        <ele>509.033783</ele>
        <time>2022-04-24T10:12:12.715Z</time>
      </trkpt>
      <trkpt lat="41.87481" lon="20.97617">
        <ele>508.982443</ele>
        <time>2022-04-24T10:12:14.705Z</time>
      </trkpt>
      <trkpt lat="41.87475" lon="20.97629">
        <ele>508.931979</ele>
        <time>2022-04-24T10:12:16.725Z</time>
      </trkpt>
      <trkpt lat="41.87469" lon="20.9764">
        <ele>508.881207</ele>
        <time>2022-04-24T10:12:18.715Z</time>
      </trkpt>
      <trkpt lat="41.87464" lon="20.97652">
        <ele>508.827455</ele>
        <time>2022-04-24T10:12:20.714Z</time>
      </trkpt>
      <trkpt lat="41.87458" lon="20.97665">
        <ele>508.774236</ele>
        <time>2022-04-24T10:12:22.712Z</time>
      </trkpt>
      <trkpt lat="41.87452" lon="20.97677">
        <ele>508.721064</ele>
        <time>2022-04-24T10:12:24.717Z</time>
      </trkpt>
      <trkpt lat="41.87446" lon="20.97689">
        <ele>508.668108</ele>
        <time>2022-04-24T10:12:26.715Z</time>
      </trkpt>
      <trkpt lat="41.87441" lon="20.97701">
        <ele>508.61541</ele>
        <time>2022-04-24T10:12:28.720Z</time>
      </trkpt>
      <trkpt lat="41.87435" lon="20.97713">
        <ele>508.562713</ele>
        <time>2022-04-24T10:12:30.717Z</time>
      </trkpt>
      <trkpt lat="41.8743" lon="20.97726">
        <ele>508.516175</ele>
        <time>2022-04-24T10:12:32.707Z</time>
      </trkpt>
      <trkpt lat="41.87424" lon="20.97739">
        <ele>508.514501</ele>
        <time>2022-04-24T10:12:34.715Z</time>
      </trkpt>
      <trkpt lat="41.87417" lon="20.97751">
        <ele>508.512829</ele>
        <time>2022-04-24T10:12:36.711Z</time>
      </trkpt>
      <trkpt lat="41.8741" lon="20.97762">
        <ele>508.51118</ele>
        <time>2022-04-24T10:12:38.756Z</time>
      </trkpt>
      <trkpt lat="41.87401" lon="20.97772">
        <ele>508.509573</ele>
        <time>2022-04-24T10:12:40.717Z</time>
      </trkpt>
      <trkpt lat="41.8739" lon="20.97778">
        <ele>508.507797</ele>
        <time>2022-04-24T10:12:42.718Z</time>
      </trkpt>
      <trkpt lat="41.87379" lon="20.9778">
        <ele>508.506093</ele>
        <time>2022-04-24T10:12:44.696Z</time>
      </trkpt>
      <trkpt lat="41.87368" lon="20.9778">
        <ele>508.504434</ele>
        <time>2022-04-24T10:12:46.736Z</time>
      </trkpt>
      <trkpt lat="41.87357" lon="20.97781">
        <ele>508.502831</ele>
        <time>2022-04-24T10:12:48.721Z</time>
      </trkpt>
      <trkpt lat="41.87347" lon="20.97783">
        <ele>508.501314</ele>
        <time>2022-04-24T10:12:50.714Z</time>
      </trkpt>
      <trkpt lat="41.87336" lon="20.97784">
        <ele>508.499785</ele>
        <time>2022-04-24T10:12:52.735Z</time>
      </trkpt>
      <trkpt lat="41.87326" lon="20.97785">
        <ele>508.49827</ele>
        <time>2022-04-24T10:12:54.732Z</time>
      </trkpt>
      <trkpt lat="41.87316" lon="20.97786">
        <ele>508.49678</ele>
        <time>2022-04-24T10:12:56.709Z</time>
      </trkpt>
      <trkpt lat="41.87306" lon="20.97788">
        <ele>508.495274</ele>
        <time>2022-04-24T10:12:58.719Z</time>
      </trkpt>
      <trkpt lat="41.87297" lon="20.97789">
        <ele>508.49385</ele>
        <time>2022-04-24T10:13:00.734Z</time>
      </trkpt>
      <trkpt lat="41.87287" lon="20.9779">
        <ele>508.492378</ele>
        <time>2022-04-24T10:13:02.719Z</time>
      </trkpt>
      <trkpt lat="41.87277" lon="20.97791">
        <ele>508.490919</ele>
        <time>2022-04-24T10:13:04.702Z</time>
      </trkpt>
      <trkpt lat="41.87267" lon="20.97793">
        <ele>508.493108</ele>
        <time>2022-04-24T10:13:06.707Z</time>
      </trkpt>
      <trkpt lat="41.87254" lon="20.97795">
        <ele>508.518935</ele>
        <time>2022-04-24T10:13:09.715Z</time>
      </trkpt>
      <trkpt lat="41.87241" lon="20.97797">
        <ele>508.545117</ele>
        <time>2022-04-24T10:13:12.714Z</time>
      </trkpt>
      <trkpt lat="41.87231" lon="20.97798">
        <ele>508.564056</ele>
        <time>2022-04-24T10:13:14.718Z</time>
      </trkpt>
      <trkpt lat="41.87221" lon="20.97799">
        <ele>508.583347</ele>
        <time>2022-04-24T10:13:16.726Z</time>
      </trkpt>
      <trkpt lat="41.87211" lon="20.978">
        <ele>508.603813</ele>
        <time>2022-04-24T10:13:18.718Z</time>
      </trkpt>
      <trkpt lat="41.872" lon="20.97801">
        <ele>508.624714</ele>
        <time>2022-04-24T10:13:20.709Z</time>
      </trkpt>
      <trkpt lat="41.87189" lon="20.97803">
        <ele>508.645437</ele>
        <time>2022-04-24T10:13:22.715Z</time>
      </trkpt>
      <trkpt lat="41.87178" lon="20.97804">
        <ele>508.6671</ele>
        <time>2022-04-24T10:13:24.711Z</time>
      </trkpt>
      <trkpt lat="41.87168" lon="20.97805">
        <ele>508.688157</ele>
        <time>2022-04-24T10:13:26.710Z</time>
      </trkpt>
      <trkpt lat="41.87157" lon="20.97806">
        <ele>508.708285</ele>
        <time>2022-04-24T10:13:28.754Z</time>
      </trkpt>
      <trkpt lat="41.87147" lon="20.97808">
        <ele>508.728251</ele>
        <time>2022-04-24T10:13:30.725Z</time>
      </trkpt>
      <trkpt lat="41.87137" lon="20.97809">
        <ele>508.747784</ele>
        <time>2022-04-24T10:13:32.714Z</time>
      </trkpt>
      <trkpt lat="41.87127" lon="20.97811">
        <ele>508.766784</ele>
        <time>2022-04-24T10:13:34.705Z</time>
      </trkpt>
      <trkpt lat="41.87118" lon="20.97813">
        <ele>508.786078</ele>
        <time>2022-04-24T10:13:36.700Z</time>
      </trkpt>
      <trkpt lat="41.87108" lon="20.97814">
        <ele>508.805418</ele>
        <time>2022-04-24T10:13:38.711Z</time>
      </trkpt>
      <trkpt lat="41.87098" lon="20.97815">
        <ele>508.824332</ele>
        <time>2022-04-24T10:13:40.727Z</time>
      </trkpt>
      <trkpt lat="41.87088" lon="20.97816">
        <ele>508.843921</ele>
        <time>2022-04-24T10:13:42.726Z</time>
      </trkpt>
      <trkpt lat="41.87079" lon="20.97817">
        <ele>508.865052</ele>
        <time>2022-04-24T10:13:44.711Z</time>
      </trkpt>
      <trkpt lat="41.87069" lon="20.97819">
        <ele>508.88553</ele>
        <time>2022-04-24T10:13:46.699Z</time>
      </trkpt>
      <trkpt lat="41.8706" lon="20.9782">
        <ele>508.905951</ele>
        <time>2022-04-24T10:13:48.729Z</time>
      </trkpt>
      <trkpt lat="41.87051" lon="20.97821">
        <ele>508.926724</ele>
        <time>2022-04-24T10:13:50.733Z</time>
      </trkpt>
      <trkpt lat="41.8704" lon="20.97822">
        <ele>508.949959</ele>
        <time>2022-04-24T10:13:53.719Z</time>
      </trkpt>
      <trkpt lat="41.87028" lon="20.97824">
        <ele>508.975498</ele>
        <time>2022-04-24T10:13:56.708Z</time>
      </trkpt>
      <trkpt lat="41.87016" lon="20.97824">
        <ele>509.002673</ele>
        <time>2022-04-24T10:13:59.725Z</time>
      </trkpt>
      <trkpt lat="41.87003" lon="20.97827">
        <ele>509.032085</ele>
        <time>2022-04-24T10:14:02.714Z</time>
      </trkpt>
      <trkpt lat="41.86993" lon="20.97828">
        <ele>509.053469</ele>
        <time>2022-04-24T10:14:04.698Z</time>
      </trkpt>
      <trkpt lat="41.86982" lon="20.97831">
        <ele>509.077444</ele>
        <time>2022-04-24T10:14:06.714Z</time>
      </trkpt>
      <trkpt lat="41.86972" lon="20.97834">
        <ele>509.100925</ele>
        <time>2022-04-24T10:14:08.722Z</time>
      </trkpt>
      <trkpt lat="41.86963" lon="20.97839">
        <ele>509.121525</ele>
        <time>2022-04-24T10:14:10.722Z</time>
      </trkpt>
      <trkpt lat="41.86954" lon="20.97845">
        <ele>509.143329</ele>
        <time>2022-04-24T10:14:12.719Z</time>
      </trkpt>
      <trkpt lat="41.86945" lon="20.97854">
        <ele>509.167421</ele>
        <time>2022-04-24T10:14:14.712Z</time>
      </trkpt>
      <trkpt lat="41.86937" lon="20.97863">
        <ele>509.191374</ele>
        <time>2022-04-24T10:14:16.702Z</time>
      </trkpt>
      <trkpt lat="41.86928" lon="20.97872">
        <ele>509.215727</ele>
        <time>2022-04-24T10:14:18.723Z</time>
      </trkpt>
      <trkpt lat="41.86919" lon="20.97881">
        <ele>509.266423</ele>
        <time>2022-04-24T10:14:20.708Z</time>
      </trkpt>
      <trkpt lat="41.86909" lon="20.97891">
        <ele>509.385565</ele>
        <time>2022-04-24T10:14:22.711Z</time>
      </trkpt>
      <trkpt lat="41.869" lon="20.97902">
        <ele>509.502826</ele>
        <time>2022-04-24T10:14:24.712Z</time>
      </trkpt>
      <trkpt lat="41.86892" lon="20.97912">
        <ele>509.611098</ele>
        <time>2022-04-24T10:14:26.712Z</time>
      </trkpt>
      <trkpt lat="41.86884" lon="20.97922">
        <ele>509.717894</ele>
        <time>2022-04-24T10:14:28.707Z</time>
      </trkpt>
      <trkpt lat="41.86876" lon="20.97931">
        <ele>509.820121</ele>
        <time>2022-04-24T10:14:30.714Z</time>
      </trkpt>
      <trkpt lat="41.86868" lon="20.9794">
        <ele>509.925839</ele>
        <time>2022-04-24T10:14:32.706Z</time>
      </trkpt>
      <trkpt lat="41.86858" lon="20.97949">
        <ele>510.038635</ele>
        <time>2022-04-24T10:14:34.711Z</time>
      </trkpt>
      <trkpt lat="41.86848" lon="20.97959">
        <ele>510.160266</ele>
        <time>2022-04-24T10:14:36.712Z</time>
      </trkpt>
      <trkpt lat="41.86839" lon="20.97969">
        <ele>510.276968</ele>
        <time>2022-04-24T10:14:38.721Z</time>
      </trkpt>
      <trkpt lat="41.8683" lon="20.97979">
        <ele>510.38698</ele>
        <time>2022-04-24T10:14:40.711Z</time>
      </trkpt>
      <trkpt lat="41.86822" lon="20.97988">
        <ele>510.492324</ele>
        <time>2022-04-24T10:14:42.710Z</time>
      </trkpt>
      <trkpt lat="41.86815" lon="20.97998">
        <ele>510.592435</ele>
        <time>2022-04-24T10:14:44.698Z</time>
      </trkpt>
      <trkpt lat="41.86811" lon="20.98009">
        <ele>510.681729</ele>
        <time>2022-04-24T10:14:46.713Z</time>
      </trkpt>
      <trkpt lat="41.86808" lon="20.98022">
        <ele>510.780535</ele>
        <time>2022-04-24T10:14:48.715Z</time>
      </trkpt>
      <trkpt lat="41.86807" lon="20.98035">
        <ele>510.876337</ele>
        <time>2022-04-24T10:14:50.711Z</time>
      </trkpt>
      <trkpt lat="41.86807" lon="20.98048">
        <ele>510.974088</ele>
        <time>2022-04-24T10:14:52.714Z</time>
      </trkpt>
      <trkpt lat="41.86808" lon="20.98062">
        <ele>510.948454</ele>
        <time>2022-04-24T10:14:54.702Z</time>
      </trkpt>
      <trkpt lat="41.86808" lon="20.98075">
        <ele>510.89171</ele>
        <time>2022-04-24T10:14:56.710Z</time>
      </trkpt>
      <trkpt lat="41.86808" lon="20.98088">
        <ele>510.833722</ele>
        <time>2022-04-24T10:14:58.714Z</time>
      </trkpt>
      <trkpt lat="41.86809" lon="20.98103">
        <ele>510.768642</ele>
        <time>2022-04-24T10:15:00.719Z</time>
      </trkpt>
      <trkpt lat="41.86811" lon="20.98118">
        <ele>510.702842</ele>
        <time>2022-04-24T10:15:02.705Z</time>
      </trkpt>
      <trkpt lat="41.86813" lon="20.98131">
        <ele>510.643576</ele>
        <time>2022-04-24T10:15:04.713Z</time>
      </trkpt>
      <trkpt lat="41.86815" lon="20.98144">
        <ele>510.58533</ele>
        <time>2022-04-24T10:15:06.711Z</time>
      </trkpt>
      <trkpt lat="41.86819" lon="20.98156">
        <ele>510.531579</ele>
        <time>2022-04-24T10:15:08.717Z</time>
      </trkpt>
      <trkpt lat="41.86827" lon="20.9817">
        <ele>510.453264</ele>
        <time>2022-04-24T10:15:11.703Z</time>
      </trkpt>
      <trkpt lat="41.86834" lon="20.98178">
        <ele>510.397379</ele>
        <time>2022-04-24T10:15:13.719Z</time>
      </trkpt>
      <trkpt lat="41.86842" lon="20.98186">
        <ele>510.340515</ele>
        <time>2022-04-24T10:15:15.703Z</time>
      </trkpt>
      <trkpt lat="41.8685" lon="20.98193">
        <ele>510.281467</ele>
        <time>2022-04-24T10:15:17.714Z</time>
      </trkpt>
      <trkpt lat="41.86858" lon="20.982">
        <ele>510.226232</ele>
        <time>2022-04-24T10:15:19.731Z</time>
      </trkpt>
      <trkpt lat="41.86866" lon="20.98208">
        <ele>510.168889</ele>
        <time>2022-04-24T10:15:21.746Z</time>
      </trkpt>
      <trkpt lat="41.86873" lon="20.98219">
        <ele>510.105763</ele>
        <time>2022-04-24T10:15:23.698Z</time>
      </trkpt>
      <trkpt lat="41.86878" lon="20.98233">
        <ele>510.039924</ele>
        <time>2022-04-24T10:15:25.706Z</time>
      </trkpt>
      <trkpt lat="41.86878" lon="20.98247">
        <ele>509.976585</ele>
        <time>2022-04-24T10:15:27.713Z</time>
      </trkpt>
      <trkpt lat="41.86877" lon="20.98263">
        <ele>509.97268</ele>
        <time>2022-04-24T10:15:29.694Z</time>
      </trkpt>
      <trkpt lat="41.86877" lon="20.98278">
        <ele>510.033106</ele>
        <time>2022-04-24T10:15:31.710Z</time>
      </trkpt>
      <trkpt lat="41.86877" lon="20.98292">
        <ele>510.089855</ele>
        <time>2022-04-24T10:15:33.704Z</time>
      </trkpt>
      <trkpt lat="41.86878" lon="20.98305">
        <ele>510.144592</ele>
        <time>2022-04-24T10:15:35.720Z</time>
      </trkpt>
      <trkpt lat="41.86878" lon="20.98318">
        <ele>510.198113</ele>
        <time>2022-04-24T10:15:37.718Z</time>
      </trkpt>
      <trkpt lat="41.86879" lon="20.98332">
        <ele>510.253152</ele>
        <time>2022-04-24T10:15:39.759Z</time>
      </trkpt>
      <trkpt lat="41.86879" lon="20.98346">
        <ele>510.309901</ele>
        <time>2022-04-24T10:15:41.716Z</time>
      </trkpt>
      <trkpt lat="41.86878" lon="20.9836">
        <ele>510.367079</ele>
        <time>2022-04-24T10:15:43.729Z</time>
      </trkpt>
      <trkpt lat="41.86876" lon="20.98373">
        <ele>510.421672</ele>
        <time>2022-04-24T10:15:45.713Z</time>
      </trkpt>
      <trkpt lat="41.86872" lon="20.98386">
        <ele>510.479045</ele>
        <time>2022-04-24T10:15:47.708Z</time>
      </trkpt>
      <trkpt lat="41.86868" lon="20.984">
        <ele>510.538342</ele>
        <time>2022-04-24T10:15:49.735Z</time>
      </trkpt>
      <trkpt lat="41.86863" lon="20.98412">
        <ele>510.593041</ele>
        <time>2022-04-24T10:15:51.730Z</time>
      </trkpt>
      <trkpt lat="41.86859" lon="20.98423">
        <ele>510.644348</ele>
        <time>2022-04-24T10:15:53.729Z</time>
      </trkpt>
      <trkpt lat="41.86855" lon="20.98434">
        <ele>510.695895</ele>
        <time>2022-04-24T10:15:55.721Z</time>
      </trkpt>
      <trkpt lat="41.86851" lon="20.98446">
        <ele>510.7483</ele>
        <time>2022-04-24T10:15:57.718Z</time>
      </trkpt>
      <trkpt lat="41.86846" lon="20.98458">
        <ele>510.801563</ele>
        <time>2022-04-24T10:15:59.715Z</time>
      </trkpt>
      <trkpt lat="41.86842" lon="20.98469">
        <ele>510.852506</ele>
        <time>2022-04-24T10:16:01.711Z</time>
      </trkpt>
      <trkpt lat="41.86838" lon="20.9848">
        <ele>510.902482</ele>
        <time>2022-04-24T10:16:03.715Z</time>
      </trkpt>
      <trkpt lat="41.86833" lon="20.98495">
        <ele>511.079815</ele>
        <time>2022-04-24T10:16:06.713Z</time>
      </trkpt>
      <trkpt lat="41.86829" lon="20.9851">
        <ele>511.277044</ele>
        <time>2022-04-24T10:16:09.712Z</time>
      </trkpt>
      <trkpt lat="41.86824" lon="20.98524">
        <ele>511.468603</ele>
        <time>2022-04-24T10:16:12.707Z</time>
      </trkpt>
      <trkpt lat="41.8682" lon="20.98537">
        <ele>511.648719</ele>
        <time>2022-04-24T10:16:15.715Z</time>
      </trkpt>
      <trkpt lat="41.86816" lon="20.98549">
        <ele>511.822102</ele>
        <time>2022-04-24T10:16:18.720Z</time>
      </trkpt>
      <trkpt lat="41.86813" lon="20.98561">
        <ele>511.991751</ele>
        <time>2022-04-24T10:16:21.700Z</time>
      </trkpt>
      <trkpt lat="41.86809" lon="20.98572">
        <ele>512.147611</ele>
        <time>2022-04-24T10:16:24.712Z</time>
      </trkpt>
      <trkpt lat="41.86805" lon="20.98584">
        <ele>512.305369</ele>
        <time>2022-04-24T10:16:27.716Z</time>
      </trkpt>
      <trkpt lat="41.868" lon="20.98595">
        <ele>512.474973</ele>
        <time>2022-04-24T10:16:30.697Z</time>
      </trkpt>
      <trkpt lat="41.86797" lon="20.98607">
        <ele>512.629759</ele>
        <time>2022-04-24T10:16:33.722Z</time>
      </trkpt>
      <trkpt lat="41.86795" lon="20.98619">
        <ele>512.78794</ele>
        <time>2022-04-24T10:16:36.727Z</time>
      </trkpt>
      <trkpt lat="41.86791" lon="20.98631">
        <ele>512.962505</ele>
        <time>2022-04-24T10:16:39.742Z</time>
      </trkpt>
      <trkpt lat="41.86787" lon="20.98643">
        <ele>513.119256</ele>
        <time>2022-04-24T10:16:42.719Z</time>
      </trkpt>
      <trkpt lat="41.86783" lon="20.98655">
        <ele>513.289623</ele>
        <time>2022-04-24T10:16:45.746Z</time>
      </trkpt>
      <trkpt lat="41.86778" lon="20.98667">
        <ele>513.467497</ele>
        <time>2022-04-24T10:16:48.720Z</time>
      </trkpt>
      <trkpt lat="41.86771" lon="20.98677">
        <ele>513.647055</ele>
        <time>2022-04-24T10:16:51.719Z</time>
      </trkpt>
      <trkpt lat="41.86761" lon="20.98685">
        <ele>513.8502</ele>
        <time>2022-04-24T10:16:54.716Z</time>
      </trkpt>
      <trkpt lat="41.8675" lon="20.9869">
        <ele>514.036667</ele>
        <time>2022-04-24T10:16:57.747Z</time>
      </trkpt>
      <trkpt lat="41.8674" lon="20.98691">
        <ele>514.184698</ele>
        <time>2022-04-24T10:17:00.722Z</time>
      </trkpt>
      <trkpt lat="41.86729" lon="20.98691">
        <ele>514.361155</ele>
        <time>2022-04-24T10:17:04.738Z</time>
      </trkpt>
      <trkpt lat="41.86719" lon="20.98692">
        <ele>514.516599</ele>
        <time>2022-04-24T10:17:07.719Z</time>
      </trkpt>
      <trkpt lat="41.86707" lon="20.98694">
        <ele>514.693709</ele>
        <time>2022-04-24T10:17:10.763Z</time>
      </trkpt>
      <trkpt lat="41.86694" lon="20.98695">
        <ele>514.89179</ele>
        <time>2022-04-24T10:17:13.722Z</time>
      </trkpt>
      <trkpt lat="41.86685" lon="20.98695">
        <ele>515.030176</ele>
        <time>2022-04-24T10:17:15.731Z</time>
      </trkpt>
      <trkpt lat="41.86675" lon="20.98695">
        <ele>515.17922</ele>
        <time>2022-04-24T10:17:17.730Z</time>
      </trkpt>
      <trkpt lat="41.86665" lon="20.98695">
        <ele>515.331293</ele>
        <time>2022-04-24T10:17:19.724Z</time>
      </trkpt>
      <trkpt lat="41.86655" lon="20.98695">
        <ele>515.49098</ele>
        <time>2022-04-24T10:17:21.710Z</time>
      </trkpt>
      <trkpt lat="41.86645" lon="20.98696">
        <ele>515.640282</ele>
        <time>2022-04-24T10:17:23.718Z</time>
      </trkpt>
      <trkpt lat="41.86635" lon="20.98696">
        <ele>515.783388</ele>
        <time>2022-04-24T10:17:25.753Z</time>
      </trkpt>
      <trkpt lat="41.86622" lon="20.98696">
        <ele>515.987162</ele>
        <time>2022-04-24T10:17:28.740Z</time>
      </trkpt>
      <trkpt lat="41.86613" lon="20.98697">
        <ele>516.127179</ele>
        <time>2022-04-24T10:17:30.699Z</time>
      </trkpt>
      <trkpt lat="41.86604" lon="20.98697">
        <ele>516.26558</ele>
        <time>2022-04-24T10:17:32.713Z</time>
      </trkpt>
      <trkpt lat="41.86594" lon="20.98697">
        <ele>516.408685</ele>
        <time>2022-04-24T10:17:34.706Z</time>
      </trkpt>
      <trkpt lat="41.86585" lon="20.98698">
        <ele>516.55033</ele>
        <time>2022-04-24T10:17:36.749Z</time>
      </trkpt>
      <trkpt lat="41.86576" lon="20.98699">
        <ele>516.687309</ele>
        <time>2022-04-24T10:17:38.707Z</time>
      </trkpt>
      <trkpt lat="41.86564" lon="20.98699">
        <ele>516.857396</ele>
        <time>2022-04-24T10:17:41.709Z</time>
      </trkpt>
      <trkpt lat="41.86553" lon="20.98698">
        <ele>517.022387</ele>
        <time>2022-04-24T10:17:44.723Z</time>
      </trkpt>
      <trkpt lat="41.86541" lon="20.98695">
        <ele>517.196252</ele>
        <time>2022-04-24T10:17:47.734Z</time>
      </trkpt>
      <trkpt lat="41.86529" lon="20.98689">
        <ele>517.367837</ele>
        <time>2022-04-24T10:17:50.722Z</time>
      </trkpt>
      <trkpt lat="41.86518" lon="20.98684">
        <ele>517.53465</ele>
        <time>2022-04-24T10:17:53.724Z</time>
      </trkpt>
      <trkpt lat="41.86508" lon="20.98679">
        <ele>517.687081</ele>
        <time>2022-04-24T10:17:56.703Z</time>
      </trkpt>
      <trkpt lat="41.86499" lon="20.98673">
        <ele>517.839095</ele>
        <time>2022-04-24T10:17:59.730Z</time>
      </trkpt>
      <trkpt lat="41.86488" lon="20.98668">
        <ele>517.992257</ele>
        <time>2022-04-24T10:18:02.705Z</time>
      </trkpt>
      <trkpt lat="41.86479" lon="20.98663">
        <ele>518.130914</ele>
        <time>2022-04-24T10:18:05.709Z</time>
      </trkpt>
      <trkpt lat="41.86471" lon="20.98657">
        <ele>518.260087</ele>
        <time>2022-04-24T10:18:08.698Z</time>
      </trkpt>
      <trkpt lat="41.8646" lon="20.98651">
        <ele>518.425585</ele>
        <time>2022-04-24T10:18:12.716Z</time>
      </trkpt>
      <trkpt lat="41.8645" lon="20.98645">
        <ele>518.590583</ele>
        <time>2022-04-24T10:18:16.710Z</time>
      </trkpt>
      <trkpt lat="41.86439" lon="20.9864">
        <ele>518.749118</ele>
        <time>2022-04-24T10:18:20.717Z</time>
      </trkpt>
      <trkpt lat="41.86428" lon="20.98634">
        <ele>518.922534</ele>
        <time>2022-04-24T10:18:24.725Z</time>
      </trkpt>
      <trkpt lat="41.86419" lon="20.98629">
        <ele>519.059068</ele>
        <time>2022-04-24T10:18:27.713Z</time>
      </trkpt>
      <trkpt lat="41.86411" lon="20.98624">
        <ele>519.189064</ele>
        <time>2022-04-24T10:18:30.721Z</time>
      </trkpt>
      <trkpt lat="41.86403" lon="20.98618">
        <ele>519.323175</ele>
        <time>2022-04-24T10:18:33.727Z</time>
      </trkpt>
      <trkpt lat="41.86393" lon="20.9861">
        <ele>519.540204</ele>
        <time>2022-04-24T10:18:37.726Z</time>
      </trkpt>
      <trkpt lat="41.86383" lon="20.98603">
        <ele>519.756126</ele>
        <time>2022-04-24T10:18:41.731Z</time>
      </trkpt>
      <trkpt lat="41.86373" lon="20.98595">
        <ele>519.965489</ele>
        <time>2022-04-24T10:18:45.730Z</time>
      </trkpt>
      <trkpt lat="41.86364" lon="20.98588">
        <ele>520.165567</ele>
        <time>2022-04-24T10:18:49.713Z</time>
      </trkpt>
      <trkpt lat="41.86353" lon="20.98581">
        <ele>520.389119</ele>
        <time>2022-04-24T10:18:53.731Z</time>
      </trkpt>
      <trkpt lat="41.86344" lon="20.98572">
        <ele>520.603484</ele>
        <time>2022-04-24T10:18:57.716Z</time>
      </trkpt>
      <trkpt lat="41.86334" lon="20.98565">
        <ele>520.808204</ele>
        <time>2022-04-24T10:19:01.708Z</time>
      </trkpt>
      <trkpt lat="41.86325" lon="20.98557">
        <ele>521.019504</ele>
        <time>2022-04-24T10:19:05.726Z</time>
      </trkpt>
      <trkpt lat="41.86316" lon="20.98552">
        <ele>521.194885</ele>
        <time>2022-04-24T10:19:08.717Z</time>
      </trkpt>
      <trkpt lat="41.86308" lon="20.98546">
        <ele>521.362662</ele>
        <time>2022-04-24T10:19:11.755Z</time>
      </trkpt>
      <trkpt lat="41.86299" lon="20.98538">
        <ele>521.577027</ele>
        <time>2022-04-24T10:19:15.698Z</time>
      </trkpt>
      <trkpt lat="41.86288" lon="20.9853">
        <ele>521.794947</ele>
        <time>2022-04-24T10:19:19.722Z</time>
      </trkpt>
      <trkpt lat="41.86279" lon="20.98523">
        <ele>522.003056</ele>
        <time>2022-04-24T10:19:23.719Z</time>
      </trkpt>
      <trkpt lat="41.86269" lon="20.98515">
        <ele>522.218011</ele>
        <time>2022-04-24T10:19:27.695Z</time>
      </trkpt>
      <trkpt lat="41.86261" lon="20.98509">
        <ele>522.387319</ele>
        <time>2022-04-24T10:19:30.714Z</time>
      </trkpt>
      <trkpt lat="41.86251" lon="20.98503">
        <ele>522.6067</ele>
        <time>2022-04-24T10:19:34.717Z</time>
      </trkpt>
      <trkpt lat="41.8624" lon="20.98496">
        <ele>522.748027</ele>
        <time>2022-04-24T10:19:38.717Z</time>
      </trkpt>
      <trkpt lat="41.86232" lon="20.98491">
        <ele>522.828228</ele>
        <time>2022-04-24T10:19:41.702Z</time>
      </trkpt>
      <trkpt lat="41.86221" lon="20.98483">
        <ele>522.934756</ele>
        <time>2022-04-24T10:19:45.742Z</time>
      </trkpt>
      <trkpt lat="41.86213" lon="20.98478">
        <ele>523.019259</ele>
        <time>2022-04-24T10:19:48.707Z</time>
      </trkpt>
      <trkpt lat="41.86204" lon="20.98473">
        <ele>523.10056</ele>
        <time>2022-04-24T10:19:51.707Z</time>
      </trkpt>
      <trkpt lat="41.86195" lon="20.98467">
        <ele>523.192407</ele>
        <time>2022-04-24T10:19:54.711Z</time>
      </trkpt>
      <trkpt lat="41.86186" lon="20.98462">
        <ele>523.28099</ele>
        <time>2022-04-24T10:19:57.710Z</time>
      </trkpt>
      <trkpt lat="41.86175" lon="20.98455">
        <ele>523.388407</ele>
        <time>2022-04-24T10:20:01.710Z</time>
      </trkpt>
      <trkpt lat="41.86166" lon="20.98448">
        <ele>523.479153</ele>
        <time>2022-04-24T10:20:04.707Z</time>
      </trkpt>
      <trkpt lat="41.86158" lon="20.98444">
        <ele>523.563982</ele>
        <time>2022-04-24T10:20:07.743Z</time>
      </trkpt>
      <trkpt lat="41.86149" lon="20.98439">
        <ele>523.651222</ele>
        <time>2022-04-24T10:20:10.711Z</time>
      </trkpt>
      <trkpt lat="41.86139" lon="20.98434">
        <ele>523.741906</ele>
        <time>2022-04-24T10:20:13.753Z</time>
      </trkpt>
      <trkpt lat="41.8613" lon="20.98428">
        <ele>523.834324</ele>
        <time>2022-04-24T10:20:16.727Z</time>
      </trkpt>
      <trkpt lat="41.86121" lon="20.98422">
        <ele>523.924549</ele>
        <time>2022-04-24T10:20:19.715Z</time>
      </trkpt>
      <trkpt lat="41.86112" lon="20.98417">
        <ele>524.00775</ele>
        <time>2022-04-24T10:20:22.730Z</time>
      </trkpt>
      <trkpt lat="41.86102" lon="20.98409">
        <ele>524.113354</ele>
        <time>2022-04-24T10:20:26.695Z</time>
      </trkpt>
      <trkpt lat="41.86094" lon="20.98403">
        <ele>524.195893</ele>
        <time>2022-04-24T10:20:29.700Z</time>
      </trkpt>
      <trkpt lat="41.86085" lon="20.98398">
        <ele>524.280195</ele>
        <time>2022-04-24T10:20:32.705Z</time>
      </trkpt>
      <trkpt lat="41.86078" lon="20.98391">
        <ele>524.226681</ele>
        <time>2022-04-24T10:20:35.737Z</time>
      </trkpt>
      <trkpt lat="41.86069" lon="20.98386">
        <ele>524.163656</ele>
        <time>2022-04-24T10:20:38.711Z</time>
      </trkpt>
      <trkpt lat="41.86061" lon="20.98379">
        <ele>524.095521</ele>
        <time>2022-04-24T10:20:41.730Z</time>
      </trkpt>
      <trkpt lat="41.86052" lon="20.98373">
        <ele>524.025793</ele>
        <time>2022-04-24T10:20:44.702Z</time>
      </trkpt>
      <trkpt lat="41.86043" lon="20.98368">
        <ele>523.957233</ele>
        <time>2022-04-24T10:20:47.719Z</time>
      </trkpt>
      <trkpt lat="41.86033" lon="20.98363">
        <ele>523.886935</ele>
        <time>2022-04-24T10:20:50.710Z</time>
      </trkpt>
      <trkpt lat="41.86024" lon="20.98357">
        <ele>523.815585</ele>
        <time>2022-04-24T10:20:53.693Z</time>
      </trkpt>
      <trkpt lat="41.86014" lon="20.98351">
        <ele>523.740862</ele>
        <time>2022-04-24T10:20:56.717Z</time>
      </trkpt>
      <trkpt lat="41.86003" lon="20.98345">
        <ele>523.658565</ele>
        <time>2022-04-24T10:20:59.716Z</time>
      </trkpt>
      <trkpt lat="41.85992" lon="20.98338">
        <ele>523.576474</ele>
        <time>2022-04-24T10:21:02.706Z</time>
      </trkpt>
      <trkpt lat="41.85981" lon="20.98332">
        <ele>523.49434</ele>
        <time>2022-04-24T10:21:05.723Z</time>
      </trkpt>
      <trkpt lat="41.8597" lon="20.98326">
        <ele>523.410976</ele>
        <time>2022-04-24T10:21:08.752Z</time>
      </trkpt>
      <trkpt lat="41.85959" lon="20.9832">
        <ele>523.327367</ele>
        <time>2022-04-24T10:21:11.725Z</time>
      </trkpt>
      <trkpt lat="41.85948" lon="20.98313">
        <ele>523.242326</ele>
        <time>2022-04-24T10:21:14.717Z</time>
      </trkpt>
      <trkpt lat="41.85936" lon="20.98307">
        <ele>523.153455</ele>
        <time>2022-04-24T10:21:17.715Z</time>
      </trkpt>
      <trkpt lat="41.85924" lon="20.98301">
        <ele>523.065402</ele>
        <time>2022-04-24T10:21:20.712Z</time>
      </trkpt>
      <trkpt lat="41.85912" lon="20.98295">
        <ele>523.006146</ele>
        <time>2022-04-24T10:21:23.725Z</time>
      </trkpt>
      <trkpt lat="41.85903" lon="20.98291">
        <ele>522.970692</ele>
        <time>2022-04-24T10:21:25.724Z</time>
      </trkpt>
      <trkpt lat="41.85895" lon="20.98287">
        <ele>522.935598</ele>
        <time>2022-04-24T10:21:27.715Z</time>
      </trkpt>
      <trkpt lat="41.85886" lon="20.98282">
        <ele>522.899882</ele>
        <time>2022-04-24T10:21:29.723Z</time>
      </trkpt>
      <trkpt lat="41.85877" lon="20.98278">
        <ele>522.863174</ele>
        <time>2022-04-24T10:21:31.711Z</time>
      </trkpt>
      <trkpt lat="41.85868" lon="20.98274">
        <ele>522.826089</ele>
        <time>2022-04-24T10:21:33.713Z</time>
      </trkpt>
      <trkpt lat="41.85858" lon="20.98269">
        <ele>522.788545</ele>
        <time>2022-04-24T10:21:35.721Z</time>
      </trkpt>
      <trkpt lat="41.85849" lon="20.98264">
        <ele>522.750186</ele>
        <time>2022-04-24T10:21:37.712Z</time>
      </trkpt>
      <trkpt lat="41.8584" lon="20.98259">
        <ele>522.711769</ele>
        <time>2022-04-24T10:21:39.720Z</time>
      </trkpt>
      <trkpt lat="41.8583" lon="20.98255">
        <ele>522.673964</ele>
        <time>2022-04-24T10:21:41.693Z</time>
      </trkpt>
      <trkpt lat="41.85821" lon="20.9825">
        <ele>522.635862</ele>
        <time>2022-04-24T10:21:43.730Z</time>
      </trkpt>
      <trkpt lat="41.85812" lon="20.98245">
        <ele>522.597577</ele>
        <time>2022-04-24T10:21:45.716Z</time>
      </trkpt>
      <trkpt lat="41.85803" lon="20.9824">
        <ele>522.559267</ele>
        <time>2022-04-24T10:21:47.719Z</time>
      </trkpt>
      <trkpt lat="41.85793" lon="20.98235">
        <ele>522.520387</ele>
        <time>2022-04-24T10:21:49.717Z</time>
      </trkpt>
      <trkpt lat="41.85783" lon="20.98229">
        <ele>522.479061</ele>
        <time>2022-04-24T10:21:51.708Z</time>
      </trkpt>
      <trkpt lat="41.85774" lon="20.98224">
        <ele>522.440081</ele>
        <time>2022-04-24T10:21:53.711Z</time>
      </trkpt>
      <trkpt lat="41.85764" lon="20.9822">
        <ele>522.400653</ele>
        <time>2022-04-24T10:21:55.701Z</time>
      </trkpt>
      <trkpt lat="41.85754" lon="20.98216">
        <ele>522.360133</ele>
        <time>2022-04-24T10:21:57.721Z</time>
      </trkpt>
      <trkpt lat="41.85744" lon="20.98212">
        <ele>522.266424</ele>
        <time>2022-04-24T10:21:59.721Z</time>
      </trkpt>
      <trkpt lat="41.85734" lon="20.98208">
        <ele>522.15796</ele>
        <time>2022-04-24T10:22:01.702Z</time>
      </trkpt>
      <trkpt lat="41.85723" lon="20.98204">
        <ele>522.049711</ele>
        <time>2022-04-24T10:22:03.723Z</time>
      </trkpt>
      <trkpt lat="41.85713" lon="20.98201">
        <ele>521.940339</ele>
        <time>2022-04-24T10:22:05.721Z</time>
      </trkpt>
      <trkpt lat="41.85702" lon="20.98198">
        <ele>521.835075</ele>
        <time>2022-04-24T10:22:07.718Z</time>
      </trkpt>
      <trkpt lat="41.85692" lon="20.98196">
        <ele>521.73194</ele>
        <time>2022-04-24T10:22:09.719Z</time>
      </trkpt>
      <trkpt lat="41.85682" lon="20.98193">
        <ele>521.626829</ele>
        <time>2022-04-24T10:22:11.698Z</time>
      </trkpt>
      <trkpt lat="41.85671" lon="20.98191">
        <ele>521.516858</ele>
        <time>2022-04-24T10:22:13.754Z</time>
      </trkpt>
      <trkpt lat="41.85661" lon="20.98189">
        <ele>521.408567</ele>
        <time>2022-04-24T10:22:15.715Z</time>
      </trkpt>
      <trkpt lat="41.8565" lon="20.98186">
        <ele>521.301622</ele>
        <time>2022-04-24T10:22:17.719Z</time>
      </trkpt>
      <trkpt lat="41.8564" lon="20.98183">
        <ele>521.192693</ele>
        <time>2022-04-24T10:22:19.691Z</time>
      </trkpt>
      <trkpt lat="41.85629" lon="20.98181">
        <ele>521.08164</ele>
        <time>2022-04-24T10:22:21.707Z</time>
      </trkpt>
      <trkpt lat="41.85619" lon="20.98177">
        <ele>520.973391</ele>
        <time>2022-04-24T10:22:23.739Z</time>
      </trkpt>
      <trkpt lat="41.85608" lon="20.98172">
        <ele>520.860448</ele>
        <time>2022-04-24T10:22:25.714Z</time>
      </trkpt>
      <trkpt lat="41.85597" lon="20.98168">
        <ele>520.743438</ele>
        <time>2022-04-24T10:22:27.707Z</time>
      </trkpt>
      <trkpt lat="41.85585" lon="20.98164">
        <ele>520.623256</ele>
        <time>2022-04-24T10:22:29.724Z</time>
      </trkpt>
      <trkpt lat="41.85574" lon="20.98159">
        <ele>520.519989</ele>
        <time>2022-04-24T10:22:31.698Z</time>
      </trkpt>
      <trkpt lat="41.85561" lon="20.98154">
        <ele>520.461468</ele>
        <time>2022-04-24T10:22:33.710Z</time>
      </trkpt>
      <trkpt lat="41.85548" lon="20.98149">
        <ele>520.398417</ele>
        <time>2022-04-24T10:22:35.717Z</time>
      </trkpt>
      <trkpt lat="41.85534" lon="20.98144">
        <ele>520.33033</ele>
        <time>2022-04-24T10:22:37.711Z</time>
      </trkpt>
      <trkpt lat="41.85519" lon="20.98139">
        <ele>520.262487</ele>
        <time>2022-04-24T10:22:39.710Z</time>
      </trkpt>
      <trkpt lat="41.85504" lon="20.98135">
        <ele>520.192936</ele>
        <time>2022-04-24T10:22:41.707Z</time>
      </trkpt>
      <trkpt lat="41.8549" lon="20.98131">
        <ele>520.125673</ele>
        <time>2022-04-24T10:22:43.754Z</time>
      </trkpt>
      <trkpt lat="41.85476" lon="20.98128">
        <ele>520.062558</ele>
        <time>2022-04-24T10:22:45.732Z</time>
      </trkpt>
      <trkpt lat="41.85464" lon="20.98126">
        <ele>520.005087</ele>
        <time>2022-04-24T10:22:47.729Z</time>
      </trkpt>
      <trkpt lat="41.85453" lon="20.98123">
        <ele>519.952992</ele>
        <time>2022-04-24T10:22:49.711Z</time>
      </trkpt>
      <trkpt lat="41.85443" lon="20.98121">
        <ele>519.907721</ele>
        <time>2022-04-24T10:22:51.705Z</time>
      </trkpt>
      <trkpt lat="41.85434" lon="20.98118">
        <ele>519.864932</ele>
        <time>2022-04-24T10:22:53.715Z</time>
      </trkpt>
      <trkpt lat="41.85425" lon="20.98115">
        <ele>519.823318</ele>
        <time>2022-04-24T10:22:55.713Z</time>
      </trkpt>
      <trkpt lat="41.85414" lon="20.9811">
        <ele>519.769296</ele>
        <time>2022-04-24T10:22:58.702Z</time>
      </trkpt>
      <trkpt lat="41.85404" lon="20.98106">
        <ele>519.719805</ele>
        <time>2022-04-24T10:23:01.709Z</time>
      </trkpt>
      <trkpt lat="41.85394" lon="20.98104">
        <ele>519.918788</ele>
        <time>2022-04-24T10:23:04.723Z</time>
      </trkpt>
      <trkpt lat="41.85384" lon="20.98104">
        <ele>520.16959</ele>
        <time>2022-04-24T10:23:07.713Z</time>
      </trkpt>
      <trkpt lat="41.85373" lon="20.98105">
        <ele>520.418467</ele>
        <time>2022-04-24T10:23:10.719Z</time>
      </trkpt>
      <trkpt lat="41.85363" lon="20.98106">
        <ele>520.682042</ele>
        <time>2022-04-24T10:23:13.730Z</time>
      </trkpt>
      <trkpt lat="41.85352" lon="20.98106">
        <ele>520.928009</ele>
        <time>2022-04-24T10:23:16.699Z</time>
      </trkpt>
      <trkpt lat="41.85342" lon="20.98107">
        <ele>521.181278</ele>
        <time>2022-04-24T10:23:19.714Z</time>
      </trkpt>
      <trkpt lat="41.85332" lon="20.98107">
        <ele>521.434489</ele>
        <time>2022-04-24T10:23:22.709Z</time>
      </trkpt>
      <trkpt lat="41.85321" lon="20.98107">
        <ele>521.685271</ele>
        <time>2022-04-24T10:23:25.731Z</time>
      </trkpt>
      <trkpt lat="41.85311" lon="20.98106">
        <ele>521.946014</ele>
        <time>2022-04-24T10:23:28.748Z</time>
      </trkpt>
      <trkpt lat="41.85299" lon="20.98106">
        <ele>522.223785</ele>
        <time>2022-04-24T10:23:31.720Z</time>
      </trkpt>
      <trkpt lat="41.85288" lon="20.98105">
        <ele>522.491825</ele>
        <time>2022-04-24T10:23:34.710Z</time>
      </trkpt>
      <trkpt lat="41.85278" lon="20.98104">
        <ele>522.752567</ele>
        <time>2022-04-24T10:23:37.719Z</time>
      </trkpt>
      <trkpt lat="41.85267" lon="20.98104">
        <ele>522.998534</ele>
        <time>2022-04-24T10:23:40.731Z</time>
      </trkpt>
      <trkpt lat="41.85257" lon="20.98104">
        <ele>523.251803</ele>
        <time>2022-04-24T10:23:43.716Z</time>
      </trkpt>
      <trkpt lat="41.85246" lon="20.98104">
        <ele>523.512343</ele>
        <time>2022-04-24T10:23:46.714Z</time>
      </trkpt>
      <trkpt lat="41.85236" lon="20.98104">
        <ele>523.758257</ele>
        <time>2022-04-24T10:23:49.714Z</time>
      </trkpt>
      <trkpt lat="41.85226" lon="20.98104">
        <ele>523.999301</ele>
        <time>2022-04-24T10:23:52.710Z</time>
      </trkpt>
      <trkpt lat="41.85217" lon="20.98103">
        <ele>524.280845</ele>
        <time>2022-04-24T10:23:55.778Z</time>
      </trkpt>
      <trkpt lat="41.85207" lon="20.98103">
        <ele>524.60984</ele>
        <time>2022-04-24T10:23:58.695Z</time>
      </trkpt>
      <trkpt lat="41.85197" lon="20.98102">
        <ele>524.938836</ele>
        <time>2022-04-24T10:24:01.698Z</time>
      </trkpt>
      <trkpt lat="41.85187" lon="20.98102">
        <ele>525.271147</ele>
        <time>2022-04-24T10:24:04.695Z</time>
      </trkpt>
      <trkpt lat="41.85177" lon="20.98101">
        <ele>525.61398</ele>
        <time>2022-04-24T10:24:07.751Z</time>
      </trkpt>
      <trkpt lat="41.85167" lon="20.981">
        <ele>525.949363</ele>
        <time>2022-04-24T10:24:10.750Z</time>
      </trkpt>
      <trkpt lat="41.85157" lon="20.981">
        <ele>526.271725</ele>
        <time>2022-04-24T10:24:13.713Z</time>
      </trkpt>
      <trkpt lat="41.85146" lon="20.98099">
        <ele>526.650385</ele>
        <time>2022-04-24T10:24:17.710Z</time>
      </trkpt>
      <trkpt lat="41.85135" lon="20.98098">
        <ele>526.992897</ele>
        <time>2022-04-24T10:24:21.717Z</time>
      </trkpt>
      <trkpt lat="41.85124" lon="20.98098">
        <ele>527.352126</ele>
        <time>2022-04-24T10:24:25.692Z</time>
      </trkpt>
      <trkpt lat="41.85114" lon="20.98097">
        <ele>527.694146</ele>
        <time>2022-04-24T10:24:29.737Z</time>
      </trkpt>
      <trkpt lat="41.85105" lon="20.98096">
        <ele>528.004084</ele>
        <time>2022-04-24T10:24:33.717Z</time>
      </trkpt>
      <trkpt lat="41.85095" lon="20.98096">
        <ele>528.336295</ele>
        <time>2022-04-24T10:24:37.695Z</time>
      </trkpt>
      <trkpt lat="41.85085" lon="20.98095">
        <ele>528.668358</ele>
        <time>2022-04-24T10:24:41.715Z</time>
      </trkpt>
      <trkpt lat="41.85074" lon="20.98094">
        <ele>529.015349</ele>
        <time>2022-04-24T10:24:45.718Z</time>
      </trkpt>
      <trkpt lat="41.85065" lon="20.98094">
        <ele>529.337455</ele>
        <time>2022-04-24T10:24:49.725Z</time>
      </trkpt>
      <trkpt lat="41.85055" lon="20.98094">
        <ele>529.659714</ele>
        <time>2022-04-24T10:24:53.705Z</time>
      </trkpt>
      <trkpt lat="41.85045" lon="20.98093">
        <ele>529.978885</ele>
        <time>2022-04-24T10:24:57.718Z</time>
      </trkpt>
      <trkpt lat="41.85036" lon="20.98092">
        <ele>530.446996</ele>
        <time>2022-04-24T10:25:01.722Z</time>
      </trkpt>
      <trkpt lat="41.85025" lon="20.98092">
        <ele>530.998455</ele>
        <time>2022-04-24T10:25:05.697Z</time>
      </trkpt>
      <trkpt lat="41.85014" lon="20.98091">
        <ele>531.580317</ele>
        <time>2022-04-24T10:25:09.713Z</time>
      </trkpt>
      <trkpt lat="41.85004" lon="20.98086">
        <ele>532.155604</ele>
        <time>2022-04-24T10:25:13.718Z</time>
      </trkpt>
      <trkpt lat="41.84993" lon="20.98083">
        <ele>532.728776</ele>
        <time>2022-04-24T10:25:17.708Z</time>
      </trkpt>
      <trkpt lat="41.84983" lon="20.9808">
        <ele>533.271933</ele>
        <time>2022-04-24T10:25:21.730Z</time>
      </trkpt>
      <trkpt lat="41.84972" lon="20.98076">
        <ele>533.866311</ele>
        <time>2022-04-24T10:25:25.715Z</time>
      </trkpt>
      <trkpt lat="41.84961" lon="20.98073">
        <ele>534.471143</ele>
        <time>2022-04-24T10:25:29.715Z</time>
      </trkpt>
      <trkpt lat="41.84951" lon="20.9807">
        <ele>534.968407</ele>
        <time>2022-04-24T10:25:32.714Z</time>
      </trkpt>
      <trkpt lat="41.84942" lon="20.98067">
        <ele>535.486726</ele>
        <time>2022-04-24T10:25:35.707Z</time>
      </trkpt>
      <trkpt lat="41.8493" lon="20.98064">
        <ele>536.127654</ele>
        <time>2022-04-24T10:25:38.721Z</time>
      </trkpt>
      <trkpt lat="41.84917" lon="20.9806">
        <ele>536.804073</ele>
        <time>2022-04-24T10:25:41.713Z</time>
      </trkpt>
      <trkpt lat="41.84905" lon="20.98055">
        <ele>537.500862</ele>
        <time>2022-04-24T10:25:44.714Z</time>
      </trkpt>
      <trkpt lat="41.84895" lon="20.98052">
        <ele>538.026395</ele>
        <time>2022-04-24T10:25:46.723Z</time>
      </trkpt>
      <trkpt lat="41.84884" lon="20.98047">
        <ele>538.62002</ele>
        <time>2022-04-24T10:25:48.718Z</time>
      </trkpt>
      <trkpt lat="41.84873" lon="20.98042">
        <ele>539.22664</ele>
        <time>2022-04-24T10:25:50.704Z</time>
      </trkpt>
      <trkpt lat="41.84864" lon="20.98039">
        <ele>539.465869</ele>
        <time>2022-04-24T10:25:52.691Z</time>
      </trkpt>
      <trkpt lat="41.84855" lon="20.98036">
        <ele>539.375246</ele>
        <time>2022-04-24T10:25:54.711Z</time>
      </trkpt>
      <trkpt lat="41.84845" lon="20.98032">
        <ele>539.277893</ele>
        <time>2022-04-24T10:25:56.722Z</time>
      </trkpt>
      <trkpt lat="41.84836" lon="20.98029">
        <ele>539.190608</ele>
        <time>2022-04-24T10:25:58.726Z</time>
      </trkpt>
      <trkpt lat="41.84827" lon="20.98025">
        <ele>539.101007</ele>
        <time>2022-04-24T10:26:00.718Z</time>
      </trkpt>
      <trkpt lat="41.84818" lon="20.98022">
        <ele>539.014463</ele>
        <time>2022-04-24T10:26:02.739Z</time>
      </trkpt>
      <trkpt lat="41.84808" lon="20.98019">
        <ele>538.916157</ele>
        <time>2022-04-24T10:26:04.718Z</time>
      </trkpt>
      <trkpt lat="41.848" lon="20.98015">
        <ele>538.826979</ele>
        <time>2022-04-24T10:26:06.726Z</time>
      </trkpt>
      <trkpt lat="41.84788" lon="20.98011">
        <ele>538.708172</ele>
        <time>2022-04-24T10:26:09.709Z</time>
      </trkpt>
      <trkpt lat="41.84776" lon="20.98006">
        <ele>538.59325</ele>
        <time>2022-04-24T10:26:12.706Z</time>
      </trkpt>
      <trkpt lat="41.84765" lon="20.98002">
        <ele>538.484969</ele>
        <time>2022-04-24T10:26:15.706Z</time>
      </trkpt>
      <trkpt lat="41.84756" lon="20.97999">
        <ele>538.39007</ele>
        <time>2022-04-24T10:26:18.710Z</time>
      </trkpt>
      <trkpt lat="41.84745" lon="20.97996">
        <ele>538.28158</ele>
        <time>2022-04-24T10:26:21.707Z</time>
      </trkpt>
      <trkpt lat="41.84733" lon="20.97991">
        <ele>538.163561</ele>
        <time>2022-04-24T10:26:24.722Z</time>
      </trkpt>
      <trkpt lat="41.84721" lon="20.97987">
        <ele>538.04162</ele>
        <time>2022-04-24T10:26:27.720Z</time>
      </trkpt>
      <trkpt lat="41.84709" lon="20.97983">
        <ele>537.926353</ele>
        <time>2022-04-24T10:26:30.742Z</time>
      </trkpt>
      <trkpt lat="41.84699" lon="20.97979">
        <ele>537.823826</ele>
        <time>2022-04-24T10:26:33.710Z</time>
      </trkpt>
      <trkpt lat="41.84689" lon="20.97975">
        <ele>537.893522</ele>
        <time>2022-04-24T10:26:36.732Z</time>
      </trkpt>
      <trkpt lat="41.84677" lon="20.97971">
        <ele>538.129688</ele>
        <time>2022-04-24T10:26:39.697Z</time>
      </trkpt>
      <trkpt lat="41.84664" lon="20.97966">
        <ele>538.380311</ele>
        <time>2022-04-24T10:26:42.729Z</time>
      </trkpt>
      <trkpt lat="41.84656" lon="20.97964">
        <ele>538.55357</ele>
        <time>2022-04-24T10:26:44.710Z</time>
      </trkpt>
      <trkpt lat="41.84643" lon="20.97959">
        <ele>538.809391</ele>
        <time>2022-04-24T10:26:47.712Z</time>
      </trkpt>
      <trkpt lat="41.84634" lon="20.97957">
        <ele>538.985792</ele>
        <time>2022-04-24T10:26:49.704Z</time>
      </trkpt>
      <trkpt lat="41.84621" lon="20.97952">
        <ele>539.243111</ele>
        <time>2022-04-24T10:26:52.714Z</time>
      </trkpt>
      <trkpt lat="41.84612" lon="20.97948">
        <ele>539.422366</ele>
        <time>2022-04-24T10:26:54.711Z</time>
      </trkpt>
      <trkpt lat="41.846" lon="20.97942">
        <ele>539.66276</ele>
        <time>2022-04-24T10:26:57.706Z</time>
      </trkpt>
      <trkpt lat="41.84589" lon="20.97934">
        <ele>539.907622</ele>
        <time>2022-04-24T10:27:00.711Z</time>
      </trkpt>
      <trkpt lat="41.84581" lon="20.97928">
        <ele>540.082928</ele>
        <time>2022-04-24T10:27:02.723Z</time>
      </trkpt>
      <trkpt lat="41.84573" lon="20.97922">
        <ele>540.258569</ele>
        <time>2022-04-24T10:27:04.740Z</time>
      </trkpt>
      <trkpt lat="41.84561" lon="20.97913">
        <ele>540.518494</ele>
        <time>2022-04-24T10:27:07.710Z</time>
      </trkpt>
      <trkpt lat="41.84554" lon="20.97906">
        <ele>540.692229</ele>
        <time>2022-04-24T10:27:09.714Z</time>
      </trkpt>
      <trkpt lat="41.84546" lon="20.97899">
        <ele>540.871585</ele>
        <time>2022-04-24T10:27:11.725Z</time>
      </trkpt>
      <trkpt lat="41.84538" lon="20.97893">
        <ele>541.055835</ele>
        <time>2022-04-24T10:27:13.719Z</time>
      </trkpt>
      <trkpt lat="41.8453" lon="20.97886">
        <ele>541.234093</ele>
        <time>2022-04-24T10:27:15.726Z</time>
      </trkpt>
      <trkpt lat="41.84522" lon="20.9788">
        <ele>541.094489</ele>
        <time>2022-04-24T10:27:17.726Z</time>
      </trkpt>
      <trkpt lat="41.8451" lon="20.9787">
        <ele>540.900307</ele>
        <time>2022-04-24T10:27:20.701Z</time>
      </trkpt>
      <trkpt lat="41.84502" lon="20.97863">
        <ele>540.75334</ele>
        <time>2022-04-24T10:27:22.710Z</time>
      </trkpt>
      <trkpt lat="41.84494" lon="20.97855">
        <ele>540.608929</ele>
        <time>2022-04-24T10:27:24.706Z</time>
      </trkpt>
      <trkpt lat="41.84485" lon="20.97848">
        <ele>540.458743</ele>
        <time>2022-04-24T10:27:26.736Z</time>
      </trkpt>
      <trkpt lat="41.84475" lon="20.9784">
        <ele>540.288074</ele>
        <time>2022-04-24T10:27:28.705Z</time>
      </trkpt>
      <trkpt lat="41.84465" lon="20.97832">
        <ele>540.121142</ele>
        <time>2022-04-24T10:27:30.711Z</time>
      </trkpt>
      <trkpt lat="41.84454" lon="20.97824">
        <ele>539.938555</ele>
        <time>2022-04-24T10:27:32.734Z</time>
      </trkpt>
      <trkpt lat="41.84443" lon="20.97815">
        <ele>539.743313</ele>
        <time>2022-04-24T10:27:34.705Z</time>
      </trkpt>
      <trkpt lat="41.84431" lon="20.97805">
        <ele>539.541211</ele>
        <time>2022-04-24T10:27:36.718Z</time>
      </trkpt>
      <trkpt lat="41.8442" lon="20.97796">
        <ele>539.345796</ele>
        <time>2022-04-24T10:27:38.728Z</time>
      </trkpt>
      <trkpt lat="41.84408" lon="20.97788">
        <ele>539.154416</ele>
        <time>2022-04-24T10:27:40.695Z</time>
      </trkpt>
      <trkpt lat="41.84397" lon="20.9778">
        <ele>538.969234</ele>
        <time>2022-04-24T10:27:42.720Z</time>
      </trkpt>
      <trkpt lat="41.84388" lon="20.97774">
        <ele>538.827553</ele>
        <time>2022-04-24T10:27:44.730Z</time>
      </trkpt>
      <trkpt lat="41.8438" lon="20.97767">
        <ele>538.689278</ele>
        <time>2022-04-24T10:27:46.696Z</time>
      </trkpt>
      <trkpt lat="41.84372" lon="20.9776">
        <ele>538.384853</ele>
        <time>2022-04-24T10:27:48.715Z</time>
      </trkpt>
      <trkpt lat="41.84363" lon="20.97751">
        <ele>537.795275</ele>
        <time>2022-04-24T10:27:50.714Z</time>
      </trkpt>
      <trkpt lat="41.84352" lon="20.97742">
        <ele>537.15606</ele>
        <time>2022-04-24T10:27:52.709Z</time>
      </trkpt>
      <trkpt lat="41.84341" lon="20.97732">
        <ele>536.486594</ele>
        <time>2022-04-24T10:27:54.695Z</time>
      </trkpt>
      <trkpt lat="41.8433" lon="20.97724">
        <ele>535.798311</ele>
        <time>2022-04-24T10:27:56.705Z</time>
      </trkpt>
      <trkpt lat="41.84316" lon="20.97717">
        <ele>535.035052</ele>
        <time>2022-04-24T10:27:58.706Z</time>
      </trkpt>
      <trkpt lat="41.84302" lon="20.97712">
        <ele>534.280559</ele>
        <time>2022-04-24T10:28:00.717Z</time>
      </trkpt>
      <trkpt lat="41.84288" lon="20.97708">
        <ele>533.509776</ele>
        <time>2022-04-24T10:28:02.714Z</time>
      </trkpt>
      <trkpt lat="41.84272" lon="20.97705">
        <ele>532.701491</ele>
        <time>2022-04-24T10:28:04.704Z</time>
      </trkpt>
      <trkpt lat="41.84255" lon="20.97703">
        <ele>531.823172</ele>
        <time>2022-04-24T10:28:06.740Z</time>
      </trkpt>
      <trkpt lat="41.84239" lon="20.97701">
        <ele>530.973127</ele>
        <time>2022-04-24T10:28:08.717Z</time>
      </trkpt>
      <trkpt lat="41.84223" lon="20.97702">
        <ele>530.124912</ele>
        <time>2022-04-24T10:28:10.703Z</time>
      </trkpt>
      <trkpt lat="41.84207" lon="20.97702">
        <ele>529.297899</ele>
        <time>2022-04-24T10:28:12.701Z</time>
      </trkpt>
      <trkpt lat="41.84193" lon="20.97702">
        <ele>529.498043</ele>
        <time>2022-04-24T10:28:14.769Z</time>
      </trkpt>
      <trkpt lat="41.84179" lon="20.97703">
        <ele>529.752339</ele>
        <time>2022-04-24T10:28:16.694Z</time>
      </trkpt>
      <trkpt lat="41.84165" lon="20.97705">
        <ele>530.020306</ele>
        <time>2022-04-24T10:28:18.703Z</time>
      </trkpt>
      <trkpt lat="41.8415" lon="20.97707">
        <ele>530.290117</ele>
        <time>2022-04-24T10:28:20.722Z</time>
      </trkpt>
      <trkpt lat="41.84135" lon="20.97709">
        <ele>530.570014</ele>
        <time>2022-04-24T10:28:22.731Z</time>
      </trkpt>
      <trkpt lat="41.8412" lon="20.97711">
        <ele>530.841548</ele>
        <time>2022-04-24T10:28:24.708Z</time>
      </trkpt>
      <trkpt lat="41.84109" lon="20.97706">
        <ele>531.066392</ele>
        <time>2022-04-24T10:28:26.727Z</time>
      </trkpt>
      <trkpt lat="41.841" lon="20.97699">
        <ele>531.259122</ele>
        <time>2022-04-24T10:28:28.736Z</time>
      </trkpt>
      <trkpt lat="41.8409" lon="20.97692">
        <ele>531.46221</ele>
        <time>2022-04-24T10:28:31.717Z</time>
      </trkpt>
      <trkpt lat="41.84082" lon="20.97685">
        <ele>531.643085</ele>
        <time>2022-04-24T10:28:35.715Z</time>
      </trkpt>
      <trkpt lat="41.84072" lon="20.9768">
        <ele>531.847178</ele>
        <time>2022-04-24T10:28:39.723Z</time>
      </trkpt>
      <trkpt lat="41.84063" lon="20.97675">
        <ele>532.024236</ele>
        <time>2022-04-24T10:28:43.728Z</time>
      </trkpt>
      <trkpt lat="41.84054" lon="20.97672">
        <ele>532.196059</ele>
        <time>2022-04-24T10:28:47.713Z</time>
      </trkpt>
      <trkpt lat="41.84044" lon="20.97668">
        <ele>532.385401</ele>
        <time>2022-04-24T10:28:51.721Z</time>
      </trkpt>
      <trkpt lat="41.84034" lon="20.97665">
        <ele>532.570478</ele>
        <time>2022-04-24T10:28:55.714Z</time>
      </trkpt>
      <trkpt lat="41.84025" lon="20.9766">
        <ele>533.019593</ele>
        <time>2022-04-24T10:28:59.690Z</time>
      </trkpt>
      <trkpt lat="41.84014" lon="20.97655">
        <ele>533.559927</ele>
        <time>2022-04-24T10:29:03.706Z</time>
      </trkpt>
      <trkpt lat="41.84004" lon="20.9765">
        <ele>534.093482</ele>
        <time>2022-04-24T10:29:07.711Z</time>
      </trkpt>
      <trkpt lat="41.83994" lon="20.97644">
        <ele>534.569204</ele>
        <time>2022-04-24T10:29:11.727Z</time>
      </trkpt>
      <trkpt lat="41.83984" lon="20.97639">
        <ele>535.081795</ele>
        <time>2022-04-24T10:29:15.732Z</time>
      </trkpt>
      <trkpt lat="41.83975" lon="20.97633">
        <ele>535.563256</ele>
        <time>2022-04-24T10:29:19.709Z</time>
      </trkpt>
      <trkpt lat="41.83966" lon="20.97625">
        <ele>536.054013</ele>
        <time>2022-04-24T10:29:23.718Z</time>
      </trkpt>
      <trkpt lat="41.83958" lon="20.9762">
        <ele>536.486745</ele>
        <time>2022-04-24T10:29:26.704Z</time>
      </trkpt>
      <trkpt lat="41.83946" lon="20.97615">
        <ele>537.062128</ele>
        <time>2022-04-24T10:29:30.731Z</time>
      </trkpt>
      <trkpt lat="41.83937" lon="20.9761">
        <ele>537.551044</ele>
        <time>2022-04-24T10:29:33.734Z</time>
      </trkpt>
      <trkpt lat="41.83926" lon="20.97606">
        <ele>538.044078</ele>
        <time>2022-04-24T10:29:36.703Z</time>
      </trkpt>
      <trkpt lat="41.83918" lon="20.97601">
        <ele>538.484214</ele>
        <time>2022-04-24T10:29:39.690Z</time>
      </trkpt>
      <trkpt lat="41.8391" lon="20.97593">
        <ele>538.977165</ele>
        <time>2022-04-24T10:29:42.698Z</time>
      </trkpt>
      <trkpt lat="41.83902" lon="20.97581">
        <ele>539.516509</ele>
        <time>2022-04-24T10:29:45.686Z</time>
      </trkpt>
      <trkpt lat="41.83894" lon="20.97571">
        <ele>540.026864</ele>
        <time>2022-04-24T10:29:48.715Z</time>
      </trkpt>
      <trkpt lat="41.83887" lon="20.97561">
        <ele>540.518334</ele>
        <time>2022-04-24T10:29:51.710Z</time>
      </trkpt>
      <trkpt lat="41.83878" lon="20.9755">
        <ele>541.051007</ele>
        <time>2022-04-24T10:29:54.686Z</time>
      </trkpt>
      <trkpt lat="41.83869" lon="20.9754">
        <ele>540.990551</ele>
        <time>2022-04-24T10:29:57.702Z</time>
      </trkpt>
      <trkpt lat="41.8386" lon="20.97528">
        <ele>540.925609</ele>
        <time>2022-04-24T10:30:00.696Z</time>
      </trkpt>
      <trkpt lat="41.83851" lon="20.97518">
        <ele>540.865153</ele>
        <time>2022-04-24T10:30:03.692Z</time>
      </trkpt>
      <trkpt lat="41.83841" lon="20.97507">
        <ele>540.802093</ele>
        <time>2022-04-24T10:30:06.699Z</time>
      </trkpt>
      <trkpt lat="41.83832" lon="20.97496">
        <ele>540.739842</ele>
        <time>2022-04-24T10:30:09.708Z</time>
      </trkpt>
      <trkpt lat="41.83824" lon="20.97484">
        <ele>540.677791</ele>
        <time>2022-04-24T10:30:12.701Z</time>
      </trkpt>
      <trkpt lat="41.83816" lon="20.97476">
        <ele>540.624763</ele>
        <time>2022-04-24T10:30:15.710Z</time>
      </trkpt>
      <trkpt lat="41.83794" lon="20.97457">
        <ele>540.492292</ele>
        <time>2022-04-24T10:31:52.727Z</time>
      </trkpt>
      <trkpt lat="41.83786" lon="20.9745">
        <ele>540.442205</ele>
        <time>2022-04-24T10:31:56.749Z</time>
      </trkpt>
      <trkpt lat="41.83778" lon="20.97442">
        <ele>540.391025</ele>
        <time>2022-04-24T10:32:00.703Z</time>
      </trkpt>
      <trkpt lat="41.83771" lon="20.97432">
        <ele>540.339398</ele>
        <time>2022-04-24T10:32:04.690Z</time>
      </trkpt>
      <trkpt lat="41.83765" lon="20.97421">
        <ele>540.289141</ele>
        <time>2022-04-24T10:32:08.873Z</time>
      </trkpt>
      <trkpt lat="41.83759" lon="20.9741">
        <ele>540.236915</ele>
        <time>2022-04-24T10:32:12.716Z</time>
      </trkpt>
      <trkpt lat="41.83754" lon="20.97397">
        <ele>540.182284</ele>
        <time>2022-04-24T10:32:16.714Z</time>
      </trkpt>
      <trkpt lat="41.83747" lon="20.97385">
        <ele>540.236364</ele>
        <time>2022-04-24T10:32:21.711Z</time>
      </trkpt>
      <trkpt lat="41.83742" lon="20.97374">
        <ele>540.786351</ele>
        <time>2022-04-24T10:32:25.716Z</time>
      </trkpt>
      <trkpt lat="41.83735" lon="20.97363">
        <ele>541.33276</ele>
        <time>2022-04-24T10:32:29.801Z</time>
      </trkpt>
      <trkpt lat="41.8373" lon="20.97349">
        <ele>541.944661</ele>
        <time>2022-04-24T10:32:33.710Z</time>
      </trkpt>
      <trkpt lat="41.83726" lon="20.97335">
        <ele>542.520908</ele>
        <time>2022-04-24T10:32:37.718Z</time>
      </trkpt>
      <trkpt lat="41.83723" lon="20.97323">
        <ele>543.016554</ele>
        <time>2022-04-24T10:32:40.709Z</time>
      </trkpt>
      <trkpt lat="41.83719" lon="20.97309">
        <ele>543.610017</ele>
        <time>2022-04-24T10:32:44.702Z</time>
      </trkpt>
      <trkpt lat="41.83715" lon="20.97297">
        <ele>544.111338</ele>
        <time>2022-04-24T10:32:47.730Z</time>
      </trkpt>
      <trkpt lat="41.83709" lon="20.97285">
        <ele>544.680537</ele>
        <time>2022-04-24T10:32:51.710Z</time>
      </trkpt>
      <trkpt lat="41.83703" lon="20.97275">
        <ele>545.178031</ele>
        <time>2022-04-24T10:32:54.726Z</time>
      </trkpt>
      <trkpt lat="41.83697" lon="20.97266">
        <ele>545.65737</ele>
        <time>2022-04-24T10:32:57.721Z</time>
      </trkpt>
      <trkpt lat="41.8369" lon="20.97255">
        <ele>546.246491</ele>
        <time>2022-04-24T10:33:01.704Z</time>
      </trkpt>
      <trkpt lat="41.83682" lon="20.97242">
        <ele>546.875241</ele>
        <time>2022-04-24T10:33:05.707Z</time>
      </trkpt>
      <trkpt lat="41.83674" lon="20.97231">
        <ele>547.476346</ele>
        <time>2022-04-24T10:33:09.711Z</time>
      </trkpt>
      <trkpt lat="41.83667" lon="20.97222">
        <ele>547.975537</ele>
        <time>2022-04-24T10:33:13.703Z</time>
      </trkpt>
      <trkpt lat="41.8366" lon="20.97213">
        <ele>548.501534</ele>
        <time>2022-04-24T10:33:17.709Z</time>
      </trkpt>
      <trkpt lat="41.83652" lon="20.97201">
        <ele>549.123384</ele>
        <time>2022-04-24T10:33:21.714Z</time>
      </trkpt>
      <trkpt lat="41.83644" lon="20.97191">
        <ele>549.584532</ele>
        <time>2022-04-24T10:33:25.717Z</time>
      </trkpt>
      <trkpt lat="41.83636" lon="20.97181">
        <ele>549.564331</ele>
        <time>2022-04-24T10:33:30.700Z</time>
      </trkpt>
      <trkpt lat="41.8363" lon="20.9717">
        <ele>549.546464</ele>
        <time>2022-04-24T10:33:34.741Z</time>
      </trkpt>
      <trkpt lat="41.83623" lon="20.97157">
        <ele>549.525944</ele>
        <time>2022-04-24T10:33:38.717Z</time>
      </trkpt>
      <trkpt lat="41.83616" lon="20.97145">
        <ele>549.504999</ele>
        <time>2022-04-24T10:33:42.714Z</time>
      </trkpt>
      <trkpt lat="41.83611" lon="20.97133">
        <ele>549.487002</ele>
        <time>2022-04-24T10:33:45.703Z</time>
      </trkpt>
      <trkpt lat="41.83605" lon="20.97121">
        <ele>549.467542</ele>
        <time>2022-04-24T10:33:49.703Z</time>
      </trkpt>
      <trkpt lat="41.83597" lon="20.9711">
        <ele>549.447724</ele>
        <time>2022-04-24T10:33:53.722Z</time>
      </trkpt>
      <trkpt lat="41.83588" lon="20.971">
        <ele>549.426416</ele>
        <time>2022-04-24T10:33:57.712Z</time>
      </trkpt>
      <trkpt lat="41.83581" lon="20.97092">
        <ele>549.410227</ele>
        <time>2022-04-24T10:34:00.717Z</time>
      </trkpt>
      <trkpt lat="41.83574" lon="20.9708">
        <ele>549.389488</ele>
        <time>2022-04-24T10:34:04.701Z</time>
      </trkpt>
      <trkpt lat="41.83567" lon="20.97071">
        <ele>549.373339</ele>
        <time>2022-04-24T10:34:07.719Z</time>
      </trkpt>
      <trkpt lat="41.83559" lon="20.97061">
        <ele>549.353004</ele>
        <time>2022-04-24T10:34:11.703Z</time>
      </trkpt>
      <trkpt lat="41.83552" lon="20.97052">
        <ele>549.335442</ele>
        <time>2022-04-24T10:34:14.720Z</time>
      </trkpt>
      <trkpt lat="41.83545" lon="20.97042">
        <ele>549.317319</ele>
        <time>2022-04-24T10:34:17.710Z</time>
      </trkpt>
      <trkpt lat="41.83537" lon="20.97034">
        <ele>549.301101</ele>
        <time>2022-04-24T10:34:20.731Z</time>
      </trkpt>
      <trkpt lat="41.83529" lon="20.97029">
        <ele>549.284887</ele>
        <time>2022-04-24T10:34:23.710Z</time>
      </trkpt>
      <trkpt lat="41.83521" lon="20.97022">
        <ele>549.267765</ele>
        <time>2022-04-24T10:34:26.741Z</time>
      </trkpt>
      <trkpt lat="41.83514" lon="20.97015">
        <ele>549.229982</ele>
        <time>2022-04-24T10:34:29.710Z</time>
      </trkpt>
      <trkpt lat="41.83504" lon="20.97007">
        <ele>549.182589</ele>
        <time>2022-04-24T10:34:33.711Z</time>
      </trkpt>
      <trkpt lat="41.83494" lon="20.97002">
        <ele>549.137288</ele>
        <time>2022-04-24T10:34:37.743Z</time>
      </trkpt>
      <trkpt lat="41.83484" lon="20.96993">
        <ele>549.088678</ele>
        <time>2022-04-24T10:34:41.699Z</time>
      </trkpt>
      <trkpt lat="41.83476" lon="20.96986">
        <ele>549.047193</ele>
        <time>2022-04-24T10:34:44.726Z</time>
      </trkpt>
      <trkpt lat="41.83467" lon="20.96978">
        <ele>549.003576</ele>
        <time>2022-04-24T10:34:47.708Z</time>
      </trkpt>
      <trkpt lat="41.83459" lon="20.96971">
        <ele>548.964377</ele>
        <time>2022-04-24T10:34:50.714Z</time>
      </trkpt>
      <trkpt lat="41.83451" lon="20.96963">
        <ele>548.922306</ele>
        <time>2022-04-24T10:34:53.719Z</time>
      </trkpt>
      <trkpt lat="41.83442" lon="20.96955">
        <ele>548.879028</ele>
        <time>2022-04-24T10:34:56.703Z</time>
      </trkpt>
      <trkpt lat="41.83433" lon="20.96945">
        <ele>548.831206</ele>
        <time>2022-04-24T10:34:59.702Z</time>
      </trkpt>
      <trkpt lat="41.83423" lon="20.96936">
        <ele>548.778826</ele>
        <time>2022-04-24T10:35:02.697Z</time>
      </trkpt>
      <trkpt lat="41.83413" lon="20.96925">
        <ele>548.727478</ele>
        <time>2022-04-24T10:35:05.750Z</time>
      </trkpt>
      <trkpt lat="41.83403" lon="20.96914">
        <ele>548.673942</ele>
        <time>2022-04-24T10:35:08.717Z</time>
      </trkpt>
      <trkpt lat="41.83393" lon="20.96902">
        <ele>548.619181</ele>
        <time>2022-04-24T10:35:11.729Z</time>
      </trkpt>
      <trkpt lat="41.83387" lon="20.96893">
        <ele>548.580444</ele>
        <time>2022-04-24T10:35:13.693Z</time>
      </trkpt>
      <trkpt lat="41.83377" lon="20.96883">
        <ele>548.528867</ele>
        <time>2022-04-24T10:35:16.721Z</time>
      </trkpt>
      <trkpt lat="41.83369" lon="20.96875">
        <ele>548.4155</ele>
        <time>2022-04-24T10:35:18.704Z</time>
      </trkpt>
      <trkpt lat="41.83361" lon="20.96867">
        <ele>548.292001</ele>
        <time>2022-04-24T10:35:20.714Z</time>
      </trkpt>
      <trkpt lat="41.83354" lon="20.9686">
        <ele>548.175433</ele>
        <time>2022-04-24T10:35:22.713Z</time>
      </trkpt>
      <trkpt lat="41.83343" lon="20.96851">
        <ele>548.01286</ele>
        <time>2022-04-24T10:35:25.715Z</time>
      </trkpt>
      <trkpt lat="41.83333" lon="20.96844">
        <ele>547.868984</ele>
        <time>2022-04-24T10:35:28.725Z</time>
      </trkpt>
      <trkpt lat="41.83322" lon="20.96838">
        <ele>547.711954</ele>
        <time>2022-04-24T10:35:31.723Z</time>
      </trkpt>
      <trkpt lat="41.83313" lon="20.96835">
        <ele>547.594016</ele>
        <time>2022-04-24T10:35:33.710Z</time>
      </trkpt>
      <trkpt lat="41.83301" lon="20.9683">
        <ele>547.435761</ele>
        <time>2022-04-24T10:35:36.704Z</time>
      </trkpt>
      <trkpt lat="41.83288" lon="20.96824">
        <ele>547.267223</ele>
        <time>2022-04-24T10:35:39.718Z</time>
      </trkpt>
      <trkpt lat="41.83276" lon="20.96819">
        <ele>547.100749</ele>
        <time>2022-04-24T10:35:42.701Z</time>
      </trkpt>
      <trkpt lat="41.83264" lon="20.96815">
        <ele>546.946623</ele>
        <time>2022-04-24T10:35:45.696Z</time>
      </trkpt>
      <trkpt lat="41.83252" lon="20.9681">
        <ele>546.779986</ele>
        <time>2022-04-24T10:35:48.701Z</time>
      </trkpt>
      <trkpt lat="41.83239" lon="20.96805">
        <ele>546.617165</ele>
        <time>2022-04-24T10:35:51.703Z</time>
      </trkpt>
      <trkpt lat="41.83227" lon="20.96799">
        <ele>546.452871</ele>
        <time>2022-04-24T10:35:54.697Z</time>
      </trkpt>
      <trkpt lat="41.83216" lon="20.96792">
        <ele>546.295364</ele>
        <time>2022-04-24T10:35:57.733Z</time>
      </trkpt>
      <trkpt lat="41.83205" lon="20.96786">
        <ele>546.108737</ele>
        <time>2022-04-24T10:36:00.699Z</time>
      </trkpt>
      <trkpt lat="41.83194" lon="20.96779">
        <ele>545.919362</ele>
        <time>2022-04-24T10:36:03.698Z</time>
      </trkpt>
      <trkpt lat="41.83183" lon="20.96772">
        <ele>545.721449</ele>
        <time>2022-04-24T10:36:06.702Z</time>
      </trkpt>
      <trkpt lat="41.83172" lon="20.96767">
        <ele>545.527739</ele>
        <time>2022-04-24T10:36:09.740Z</time>
      </trkpt>
      <trkpt lat="41.83162" lon="20.96759">
        <ele>545.331577</ele>
        <time>2022-04-24T10:36:12.702Z</time>
      </trkpt>
      <trkpt lat="41.8315" lon="20.96753">
        <ele>545.1304</ele>
        <time>2022-04-24T10:36:15.700Z</time>
      </trkpt>
      <trkpt lat="41.83139" lon="20.96747">
        <ele>544.922371</ele>
        <time>2022-04-24T10:36:18.707Z</time>
      </trkpt>
      <trkpt lat="41.83127" lon="20.96741">
        <ele>544.71768</ele>
        <time>2022-04-24T10:36:21.706Z</time>
      </trkpt>
      <trkpt lat="41.83116" lon="20.96733">
        <ele>544.504717</ele>
        <time>2022-04-24T10:36:24.690Z</time>
      </trkpt>
      <trkpt lat="41.83104" lon="20.96725">
        <ele>544.295674</ele>
        <time>2022-04-24T10:36:27.726Z</time>
      </trkpt>
      <trkpt lat="41.83096" lon="20.9672">
        <ele>544.147819</ele>
        <time>2022-04-24T10:36:29.721Z</time>
      </trkpt>
      <trkpt lat="41.83083" lon="20.96714">
        <ele>543.926196</ele>
        <time>2022-04-24T10:36:32.708Z</time>
      </trkpt>
      <trkpt lat="41.83071" lon="20.96708">
        <ele>543.704914</ele>
        <time>2022-04-24T10:36:35.712Z</time>
      </trkpt>
      <trkpt lat="41.83062" lon="20.96703">
        <ele>543.547088</ele>
        <time>2022-04-24T10:36:37.714Z</time>
      </trkpt>
      <trkpt lat="41.8305" lon="20.96696">
        <ele>543.335667</ele>
        <time>2022-04-24T10:36:40.709Z</time>
      </trkpt>
      <trkpt lat="41.83039" lon="20.96689">
        <ele>543.314055</ele>
        <time>2022-04-24T10:36:43.731Z</time>
      </trkpt>
      <trkpt lat="41.83028" lon="20.96683">
        <ele>543.375119</ele>
        <time>2022-04-24T10:36:46.686Z</time>
      </trkpt>
      <trkpt lat="41.83016" lon="20.96677">
        <ele>543.436594</ele>
        <time>2022-04-24T10:36:49.723Z</time>
      </trkpt>
      <trkpt lat="41.83005" lon="20.9667">
        <ele>543.502385</ele>
        <time>2022-04-24T10:36:52.700Z</time>
      </trkpt>
      <trkpt lat="41.82993" lon="20.96664">
        <ele>543.565334</ele>
        <time>2022-04-24T10:36:55.704Z</time>
      </trkpt>
      <trkpt lat="41.82982" lon="20.96657">
        <ele>543.626043</ele>
        <time>2022-04-24T10:36:58.714Z</time>
      </trkpt>
      <trkpt lat="41.8297" lon="20.96651">
        <ele>543.68852</ele>
        <time>2022-04-24T10:37:01.707Z</time>
      </trkpt>
      <trkpt lat="41.82959" lon="20.96646">
        <ele>543.750466</ele>
        <time>2022-04-24T10:37:04.705Z</time>
      </trkpt>
      <trkpt lat="41.82947" lon="20.96639">
        <ele>543.813362</ele>
        <time>2022-04-24T10:37:07.713Z</time>
      </trkpt>
      <trkpt lat="41.82937" lon="20.96632">
        <ele>543.875465</ele>
        <time>2022-04-24T10:37:10.722Z</time>
      </trkpt>
      <trkpt lat="41.82926" lon="20.96624">
        <ele>543.938735</ele>
        <time>2022-04-24T10:37:13.720Z</time>
      </trkpt>
      <trkpt lat="41.82915" lon="20.96617">
        <ele>544.000873</ele>
        <time>2022-04-24T10:37:16.722Z</time>
      </trkpt>
      <trkpt lat="41.82903" lon="20.96609">
        <ele>544.065045</ele>
        <time>2022-04-24T10:37:19.723Z</time>
      </trkpt>
      <trkpt lat="41.82892" lon="20.96603">
        <ele>544.128269</ele>
        <time>2022-04-24T10:37:22.712Z</time>
      </trkpt>
      <trkpt lat="41.82881" lon="20.96597">
        <ele>544.179325</ele>
        <time>2022-04-24T10:37:25.699Z</time>
      </trkpt>
      <trkpt lat="41.8287" lon="20.96592">
        <ele>544.155388</ele>
        <time>2022-04-24T10:37:28.708Z</time>
      </trkpt>
      <trkpt lat="41.8286" lon="20.96586">
        <ele>544.133025</ele>
        <time>2022-04-24T10:37:31.699Z</time>
      </trkpt>
      <trkpt lat="41.82851" lon="20.96582">
        <ele>544.113594</ele>
        <time>2022-04-24T10:37:34.735Z</time>
      </trkpt>
      <trkpt lat="41.82842" lon="20.96577">
        <ele>544.093472</ele>
        <time>2022-04-24T10:37:37.727Z</time>
      </trkpt>
      <trkpt lat="41.82832" lon="20.96572">
        <ele>544.071934</ele>
        <time>2022-04-24T10:37:40.693Z</time>
      </trkpt>
      <trkpt lat="41.82822" lon="20.96567">
        <ele>544.048418</ele>
        <time>2022-04-24T10:37:43.695Z</time>
      </trkpt>
      <trkpt lat="41.82812" lon="20.96561">
        <ele>544.026066</ele>
        <time>2022-04-24T10:37:46.713Z</time>
      </trkpt>
      <trkpt lat="41.82802" lon="20.96555">
        <ele>544.004908</ele>
        <time>2022-04-24T10:37:49.709Z</time>
      </trkpt>
      <trkpt lat="41.82793" lon="20.96551">
        <ele>543.984113</ele>
        <time>2022-04-24T10:37:52.717Z</time>
      </trkpt>
      <trkpt lat="41.82784" lon="20.96547">
        <ele>543.963708</ele>
        <time>2022-04-24T10:37:55.714Z</time>
      </trkpt>
      <trkpt lat="41.82773" lon="20.9654">
        <ele>543.939837</ele>
        <time>2022-04-24T10:37:59.705Z</time>
      </trkpt>
      <trkpt lat="41.82765" lon="20.96534">
        <ele>543.920693</ele>
        <time>2022-04-24T10:38:02.718Z</time>
      </trkpt>
      <trkpt lat="41.82755" lon="20.96527">
        <ele>543.897019</ele>
        <time>2022-04-24T10:38:05.693Z</time>
      </trkpt>
      <trkpt lat="41.82743" lon="20.9652">
        <ele>543.870629</ele>
        <time>2022-04-24T10:38:08.714Z</time>
      </trkpt>
      <trkpt lat="41.82731" lon="20.96513">
        <ele>543.843366</ele>
        <time>2022-04-24T10:38:11.723Z</time>
      </trkpt>
      <trkpt lat="41.82723" lon="20.96509">
        <ele>543.824429</ele>
        <time>2022-04-24T10:38:13.710Z</time>
      </trkpt>
      <trkpt lat="41.8271" lon="20.96502">
        <ele>543.769945</ele>
        <time>2022-04-24T10:38:16.704Z</time>
      </trkpt>
      <trkpt lat="41.82698" lon="20.96496">
        <ele>543.682494</ele>
        <time>2022-04-24T10:38:19.697Z</time>
      </trkpt>
      <trkpt lat="41.82689" lon="20.96492">
        <ele>543.619875</ele>
        <time>2022-04-24T10:38:21.710Z</time>
      </trkpt>
      <trkpt lat="41.82681" lon="20.96488">
        <ele>543.558253</ele>
        <time>2022-04-24T10:38:23.702Z</time>
      </trkpt>
      <trkpt lat="41.82672" lon="20.96484">
        <ele>543.495654</ele>
        <time>2022-04-24T10:38:25.694Z</time>
      </trkpt>
      <trkpt lat="41.82663" lon="20.9648">
        <ele>543.430015</ele>
        <time>2022-04-24T10:38:27.715Z</time>
      </trkpt>
      <trkpt lat="41.82653" lon="20.96475">
        <ele>543.360844</ele>
        <time>2022-04-24T10:38:29.712Z</time>
      </trkpt>
      <trkpt lat="41.82644" lon="20.96472">
        <ele>543.293153</ele>
        <time>2022-04-24T10:38:31.714Z</time>
      </trkpt>
      <trkpt lat="41.82635" lon="20.96468">
        <ele>543.232328</ele>
        <time>2022-04-24T10:38:33.706Z</time>
      </trkpt>
      <trkpt lat="41.82624" lon="20.96461">
        <ele>543.148477</ele>
        <time>2022-04-24T10:38:36.737Z</time>
      </trkpt>
      <trkpt lat="41.82612" lon="20.96455">
        <ele>543.062286</ele>
        <time>2022-04-24T10:38:39.715Z</time>
      </trkpt>
      <trkpt lat="41.826" lon="20.9645">
        <ele>542.977786</ele>
        <time>2022-04-24T10:38:42.726Z</time>
      </trkpt>
      <trkpt lat="41.82589" lon="20.96446">
        <ele>542.90409</ele>
        <time>2022-04-24T10:38:45.691Z</time>
      </trkpt>
      <trkpt lat="41.82578" lon="20.96441">
        <ele>542.821124</ele>
        <time>2022-04-24T10:38:48.704Z</time>
      </trkpt>
      <trkpt lat="41.82568" lon="20.96438">
        <ele>542.756878</ele>
        <time>2022-04-24T10:38:50.707Z</time>
      </trkpt>
      <trkpt lat="41.82559" lon="20.96435">
        <ele>542.68814</ele>
        <time>2022-04-24T10:38:52.717Z</time>
      </trkpt>
      <trkpt lat="41.82549" lon="20.9643">
        <ele>542.616087</ele>
        <time>2022-04-24T10:38:54.742Z</time>
      </trkpt>
      <trkpt lat="41.82538" lon="20.96426">
        <ele>542.730739</ele>
        <time>2022-04-24T10:38:56.699Z</time>
      </trkpt>
      <trkpt lat="41.82528" lon="20.96423">
        <ele>542.918601</ele>
        <time>2022-04-24T10:38:58.718Z</time>
      </trkpt>
      <trkpt lat="41.82519" lon="20.96419">
        <ele>543.093783</ele>
        <time>2022-04-24T10:39:00.725Z</time>
      </trkpt>
      <trkpt lat="41.82509" lon="20.96415">
        <ele>543.281646</ele>
        <time>2022-04-24T10:39:02.718Z</time>
      </trkpt>
      <trkpt lat="41.825" lon="20.96411">
        <ele>543.468896</ele>
        <time>2022-04-24T10:39:04.730Z</time>
      </trkpt>
      <trkpt lat="41.82489" lon="20.96406">
        <ele>543.666165</ele>
        <time>2022-04-24T10:39:06.727Z</time>
      </trkpt>
      <trkpt lat="41.82479" lon="20.96402">
        <ele>543.874239</ele>
        <time>2022-04-24T10:39:08.708Z</time>
      </trkpt>
      <trkpt lat="41.82467" lon="20.96397">
        <ele>544.086208</ele>
        <time>2022-04-24T10:39:10.737Z</time>
      </trkpt>
      <trkpt lat="41.82457" lon="20.96394">
        <ele>544.291088</ele>
        <time>2022-04-24T10:39:12.702Z</time>
      </trkpt>
      <trkpt lat="41.82446" lon="20.96391">
        <ele>544.481408</ele>
        <time>2022-04-24T10:39:14.704Z</time>
      </trkpt>
      <trkpt lat="41.82436" lon="20.96388">
        <ele>544.674372</ele>
        <time>2022-04-24T10:39:16.700Z</time>
      </trkpt>
      <trkpt lat="41.82426" lon="20.96386">
        <ele>544.866627</ele>
        <time>2022-04-24T10:39:18.709Z</time>
      </trkpt>
      <trkpt lat="41.82414" lon="20.96383">
        <ele>545.07396</ele>
        <time>2022-04-24T10:39:20.728Z</time>
      </trkpt>
      <trkpt lat="41.82405" lon="20.96378">
        <ele>545.267108</ele>
        <time>2022-04-24T10:39:22.728Z</time>
      </trkpt>
      <trkpt lat="41.82398" lon="20.9637">
        <ele>545.436063</ele>
        <time>2022-04-24T10:39:24.722Z</time>
      </trkpt>
      <trkpt lat="41.82388" lon="20.9636">
        <ele>545.660828</ele>
        <time>2022-04-24T10:39:26.717Z</time>
      </trkpt>
      <trkpt lat="41.82377" lon="20.96349">
        <ele>545.826433</ele>
        <time>2022-04-24T10:39:28.713Z</time>
      </trkpt>
      <trkpt lat="41.82367" lon="20.9634">
        <ele>545.384329</ele>
        <time>2022-04-24T10:39:30.710Z</time>
      </trkpt>
      <trkpt lat="41.82355" lon="20.96332">
        <ele>544.93023</ele>
        <time>2022-04-24T10:39:32.718Z</time>
      </trkpt>
      <trkpt lat="41.82345" lon="20.96321">
        <ele>544.44202</ele>
        <time>2022-04-24T10:39:34.711Z</time>
      </trkpt>
      <trkpt lat="41.82337" lon="20.96305">
        <ele>543.925743</ele>
        <time>2022-04-24T10:39:36.727Z</time>
      </trkpt>
      <trkpt lat="41.82333" lon="20.96285">
        <ele>543.392394</ele>
        <time>2022-04-24T10:39:38.730Z</time>
      </trkpt>
      <trkpt lat="41.8233" lon="20.96266">
        <ele>542.870382</ele>
        <time>2022-04-24T10:39:40.721Z</time>
      </trkpt>
      <trkpt lat="41.82329" lon="20.9625">
        <ele>542.432632</ele>
        <time>2022-04-24T10:39:42.714Z</time>
      </trkpt>
      <trkpt lat="41.82329" lon="20.96233">
        <ele>541.987522</ele>
        <time>2022-04-24T10:39:44.693Z</time>
      </trkpt>
      <trkpt lat="41.8233" lon="20.96219">
        <ele>541.594128</ele>
        <time>2022-04-24T10:39:46.699Z</time>
      </trkpt>
      <trkpt lat="41.82332" lon="20.96206">
        <ele>541.246694</ele>
        <time>2022-04-24T10:39:48.703Z</time>
      </trkpt>
      <trkpt lat="41.82335" lon="20.96194">
        <ele>540.902244</ele>
        <time>2022-04-24T10:39:50.718Z</time>
      </trkpt>
      <trkpt lat="41.82338" lon="20.9618">
        <ele>540.522381</ele>
        <time>2022-04-24T10:39:52.711Z</time>
      </trkpt>
      <trkpt lat="41.82339" lon="20.96167">
        <ele>540.16578</ele>
        <time>2022-04-24T10:39:54.711Z</time>
      </trkpt>
      <trkpt lat="41.82342" lon="20.96155">
        <ele>539.815152</ele>
        <time>2022-04-24T10:39:56.700Z</time>
      </trkpt>
      <trkpt lat="41.82345" lon="20.96142">
        <ele>539.46344</ele>
        <time>2022-04-24T10:39:58.699Z</time>
      </trkpt>
      <trkpt lat="41.82349" lon="20.96126">
        <ele>539.339493</ele>
        <time>2022-04-24T10:40:01.701Z</time>
      </trkpt>
      <trkpt lat="41.82354" lon="20.96111">
        <ele>539.260006</ele>
        <time>2022-04-24T10:40:04.755Z</time>
      </trkpt>
      <trkpt lat="41.82357" lon="20.96096">
        <ele>539.175389</ele>
        <time>2022-04-24T10:40:07.713Z</time>
      </trkpt>
      <trkpt lat="41.82361" lon="20.9608">
        <ele>539.091067</ele>
        <time>2022-04-24T10:40:10.707Z</time>
      </trkpt>
      <trkpt lat="41.82365" lon="20.96065">
        <ele>539.007036</ele>
        <time>2022-04-24T10:40:13.711Z</time>
      </trkpt>
      <trkpt lat="41.82365" lon="20.9605">
        <ele>538.92893</ele>
        <time>2022-04-24T10:40:16.716Z</time>
      </trkpt>
      <trkpt lat="41.82363" lon="20.96033">
        <ele>538.845181</ele>
        <time>2022-04-24T10:40:19.736Z</time>
      </trkpt>
      <trkpt lat="41.82362" lon="20.96021">
        <ele>538.777992</ele>
        <time>2022-04-24T10:40:21.709Z</time>
      </trkpt>
      <trkpt lat="41.82361" lon="20.96009">
        <ele>538.71615</ele>
        <time>2022-04-24T10:40:23.714Z</time>
      </trkpt>
      <trkpt lat="41.82359" lon="20.95997">
        <ele>538.653121</ele>
        <time>2022-04-24T10:40:25.797Z</time>
      </trkpt>
      <trkpt lat="41.82356" lon="20.95979">
        <ele>538.560862</ele>
        <time>2022-04-24T10:40:28.696Z</time>
      </trkpt>
      <trkpt lat="41.82357" lon="20.95962">
        <ele>538.472787</ele>
        <time>2022-04-24T10:40:31.713Z</time>
      </trkpt>
      <trkpt lat="41.82358" lon="20.95945">
        <ele>538.385377</ele>
        <time>2022-04-24T10:40:34.712Z</time>
      </trkpt>
      <trkpt lat="41.82352" lon="20.9593">
        <ele>538.298863</ele>
        <time>2022-04-24T10:40:37.698Z</time>
      </trkpt>
      <trkpt lat="41.82344" lon="20.95918">
        <ele>538.220194</ele>
        <time>2022-04-24T10:40:40.705Z</time>
      </trkpt>
      <trkpt lat="41.82334" lon="20.95909">
        <ele>538.231312</ele>
        <time>2022-04-24T10:40:43.709Z</time>
      </trkpt>
      <trkpt lat="41.82326" lon="20.95902">
        <ele>538.302784</ele>
        <time>2022-04-24T10:40:45.711Z</time>
      </trkpt>
      <trkpt lat="41.82318" lon="20.95895">
        <ele>538.378795</ele>
        <time>2022-04-24T10:40:47.728Z</time>
      </trkpt>
      <trkpt lat="41.82307" lon="20.95885">
        <ele>538.482867</ele>
        <time>2022-04-24T10:40:50.714Z</time>
      </trkpt>
      <trkpt lat="41.82296" lon="20.95876">
        <ele>538.584215</ele>
        <time>2022-04-24T10:40:53.727Z</time>
      </trkpt>
      <trkpt lat="41.82285" lon="20.95866">
        <ele>538.686871</ele>
        <time>2022-04-24T10:40:56.721Z</time>
      </trkpt>
      <trkpt lat="41.82273" lon="20.95857">
        <ele>538.795921</ele>
        <time>2022-04-24T10:40:59.707Z</time>
      </trkpt>
      <trkpt lat="41.82265" lon="20.95852">
        <ele>538.868169</ele>
        <time>2022-04-24T10:41:01.707Z</time>
      </trkpt>
      <trkpt lat="41.82256" lon="20.95847">
        <ele>538.941264</ele>
        <time>2022-04-24T10:41:03.729Z</time>
      </trkpt>
      <trkpt lat="41.82244" lon="20.95838">
        <ele>539.050867</ele>
        <time>2022-04-24T10:41:06.715Z</time>
      </trkpt>
      <trkpt lat="41.82235" lon="20.95831">
        <ele>539.131199</ele>
        <time>2022-04-24T10:41:08.740Z</time>
      </trkpt>
      <trkpt lat="41.82226" lon="20.95824">
        <ele>539.210261</ele>
        <time>2022-04-24T10:41:10.729Z</time>
      </trkpt>
      <trkpt lat="41.82218" lon="20.95818">
        <ele>539.286637</ele>
        <time>2022-04-24T10:41:12.704Z</time>
      </trkpt>
      <trkpt lat="41.82209" lon="20.95812">
        <ele>539.361359</ele>
        <time>2022-04-24T10:41:14.710Z</time>
      </trkpt>
      <trkpt lat="41.82201" lon="20.95806">
        <ele>539.432222</ele>
        <time>2022-04-24T10:41:16.715Z</time>
      </trkpt>
      <trkpt lat="41.82194" lon="20.95799">
        <ele>539.503446</ele>
        <time>2022-04-24T10:41:18.714Z</time>
      </trkpt>
      <trkpt lat="41.82184" lon="20.95786">
        <ele>539.61267</ele>
        <time>2022-04-24T10:41:21.733Z</time>
      </trkpt>
      <trkpt lat="41.82177" lon="20.95777">
        <ele>539.693569</ele>
        <time>2022-04-24T10:41:23.708Z</time>
      </trkpt>
      <trkpt lat="41.82168" lon="20.95764">
        <ele>539.806079</ele>
        <time>2022-04-24T10:41:26.706Z</time>
      </trkpt>
      <trkpt lat="41.8216" lon="20.95751">
        <ele>539.914459</ele>
        <time>2022-04-24T10:41:29.704Z</time>
      </trkpt>
      <trkpt lat="41.82152" lon="20.95739">
        <ele>540.016333</ele>
        <time>2022-04-24T10:41:32.723Z</time>
      </trkpt>
      <trkpt lat="41.82145" lon="20.95727">
        <ele>540.114518</ele>
        <time>2022-04-24T10:41:35.712Z</time>
      </trkpt>
      <trkpt lat="41.82137" lon="20.95715">
        <ele>540.21308</ele>
        <time>2022-04-24T10:41:38.697Z</time>
      </trkpt>
      <trkpt lat="41.8213" lon="20.95702">
        <ele>540.31471</ele>
        <time>2022-04-24T10:41:41.728Z</time>
      </trkpt>
      <trkpt lat="41.82122" lon="20.9569">
        <ele>540.418428</ele>
        <time>2022-04-24T10:41:44.721Z</time>
      </trkpt>
      <trkpt lat="41.82115" lon="20.95678">
        <ele>540.517231</ele>
        <time>2022-04-24T10:41:47.721Z</time>
      </trkpt>
      <trkpt lat="41.82107" lon="20.95666">
        <ele>540.614447</ele>
        <time>2022-04-24T10:41:50.724Z</time>
      </trkpt>
      <trkpt lat="41.82098" lon="20.95655">
        <ele>540.717508</ele>
        <time>2022-04-24T10:41:53.718Z</time>
      </trkpt>
      <trkpt lat="41.82088" lon="20.95645">
        <ele>540.830194</ele>
        <time>2022-04-24T10:41:56.716Z</time>
      </trkpt>
      <trkpt lat="41.82077" lon="20.95636">
        <ele>540.933993</ele>
        <time>2022-04-24T10:41:59.715Z</time>
      </trkpt>
      <trkpt lat="41.82067" lon="20.95627">
        <ele>541.040288</ele>
        <time>2022-04-24T10:42:02.708Z</time>
      </trkpt>
      <trkpt lat="41.82055" lon="20.95619">
        <ele>541.043183</ele>
        <time>2022-04-24T10:42:05.714Z</time>
      </trkpt>
      <trkpt lat="41.82045" lon="20.9561">
        <ele>540.837149</ele>
        <time>2022-04-24T10:42:08.718Z</time>
      </trkpt>
      <trkpt lat="41.82035" lon="20.95602">
        <ele>540.627404</ele>
        <time>2022-04-24T10:42:11.813Z</time>
      </trkpt>
      <trkpt lat="41.82024" lon="20.95593">
        <ele>540.412572</ele>
        <time>2022-04-24T10:42:14.703Z</time>
      </trkpt>
      <trkpt lat="41.82013" lon="20.95584">
        <ele>540.19641</ele>
        <time>2022-04-24T10:42:17.709Z</time>
      </trkpt>
      <trkpt lat="41.82002" lon="20.95577">
        <ele>539.979652</ele>
        <time>2022-04-24T10:42:20.707Z</time>
      </trkpt>
      <trkpt lat="41.81995" lon="20.9557">
        <ele>539.825782</ele>
        <time>2022-04-24T10:42:22.714Z</time>
      </trkpt>
      <trkpt lat="41.81983" lon="20.95563">
        <ele>539.598643</ele>
        <time>2022-04-24T10:42:25.697Z</time>
      </trkpt>
      <trkpt lat="41.81971" lon="20.95553">
        <ele>539.368962</ele>
        <time>2022-04-24T10:42:28.714Z</time>
      </trkpt>
      <trkpt lat="41.81961" lon="20.95544">
        <ele>539.151329</ele>
        <time>2022-04-24T10:42:31.773Z</time>
      </trkpt>
      <trkpt lat="41.8195" lon="20.95534">
        <ele>538.928055</ele>
        <time>2022-04-24T10:42:34.715Z</time>
      </trkpt>
      <trkpt lat="41.8194" lon="20.95522">
        <ele>538.694294</ele>
        <time>2022-04-24T10:42:37.712Z</time>
      </trkpt>
      <trkpt lat="41.81933" lon="20.95513">
        <ele>538.530091</ele>
        <time>2022-04-24T10:42:39.723Z</time>
      </trkpt>
      <trkpt lat="41.81925" lon="20.95499">
        <ele>538.30674</ele>
        <time>2022-04-24T10:42:42.677Z</time>
      </trkpt>
      <trkpt lat="41.81921" lon="20.95482">
        <ele>538.073989</ele>
        <time>2022-04-24T10:42:45.668Z</time>
      </trkpt>
      <trkpt lat="41.81918" lon="20.95468">
        <ele>537.90228</ele>
        <time>2022-04-24T10:42:47.745Z</time>
      </trkpt>
      <trkpt lat="41.81916" lon="20.95456">
        <ele>537.759345</ele>
        <time>2022-04-24T10:42:49.685Z</time>
      </trkpt>
      <trkpt lat="41.81913" lon="20.95439">
        <ele>537.557635</ele>
        <time>2022-04-24T10:42:52.680Z</time>
      </trkpt>
      <trkpt lat="41.81911" lon="20.95423">
        <ele>537.365691</ele>
        <time>2022-04-24T10:42:55.683Z</time>
      </trkpt>
      <trkpt lat="41.81908" lon="20.95407">
        <ele>537.169644</ele>
        <time>2022-04-24T10:42:58.686Z</time>
      </trkpt>
      <trkpt lat="41.81906" lon="20.95391">
        <ele>536.980725</ele>
        <time>2022-04-24T10:43:01.682Z</time>
      </trkpt>
      <trkpt lat="41.81904" lon="20.95374">
        <ele>536.783312</ele>
        <time>2022-04-24T10:43:04.681Z</time>
      </trkpt>
      <trkpt lat="41.81903" lon="20.95358">
        <ele>536.595747</ele>
        <time>2022-04-24T10:43:07.688Z</time>
      </trkpt>
      <trkpt lat="41.81901" lon="20.95342">
        <ele>536.408449</ele>
        <time>2022-04-24T10:43:10.701Z</time>
      </trkpt>
      <trkpt lat="41.81899" lon="20.95326">
        <ele>536.22264</ele>
        <time>2022-04-24T10:43:13.686Z</time>
      </trkpt>
      <trkpt lat="41.81897" lon="20.9531">
        <ele>536.031112</ele>
        <time>2022-04-24T10:43:16.691Z</time>
      </trkpt>
      <trkpt lat="41.81895" lon="20.95294">
        <ele>535.839285</ele>
        <time>2022-04-24T10:43:19.687Z</time>
      </trkpt>
      <trkpt lat="41.81893" lon="20.95278">
        <ele>535.653135</ele>
        <time>2022-04-24T10:43:22.683Z</time>
      </trkpt>
      <trkpt lat="41.81893" lon="20.95258">
        <ele>535.419093</ele>
        <time>2022-04-24T10:43:26.678Z</time>
      </trkpt>
      <trkpt lat="41.81893" lon="20.95245">
        <ele>535.268848</ele>
        <time>2022-04-24T10:43:29.682Z</time>
      </trkpt>
      <trkpt lat="41.81894" lon="20.95232">
        <ele>535.152098</ele>
        <time>2022-04-24T10:43:32.684Z</time>
      </trkpt>
      <trkpt lat="41.81896" lon="20.95219">
        <ele>535.051346</ele>
        <time>2022-04-24T10:43:35.678Z</time>
      </trkpt>
      <trkpt lat="41.81897" lon="20.95206">
        <ele>534.950308</ele>
        <time>2022-04-24T10:43:38.688Z</time>
      </trkpt>
      <trkpt lat="41.819" lon="20.95192">
        <ele>534.841361</ele>
        <time>2022-04-24T10:43:41.693Z</time>
      </trkpt>
      <trkpt lat="41.81903" lon="20.95174">
        <ele>534.702962</ele>
        <time>2022-04-24T10:43:44.678Z</time>
      </trkpt>
      <trkpt lat="41.81906" lon="20.9516">
        <ele>534.586173</ele>
        <time>2022-04-24T10:43:46.686Z</time>
      </trkpt>
      <trkpt lat="41.81909" lon="20.95144">
        <ele>534.468429</ele>
        <time>2022-04-24T10:43:48.686Z</time>
      </trkpt>
      <trkpt lat="41.8191" lon="20.9513">
        <ele>534.358409</ele>
        <time>2022-04-24T10:43:50.699Z</time>
      </trkpt>
      <trkpt lat="41.8191" lon="20.95116">
        <ele>534.250839</ele>
        <time>2022-04-24T10:43:52.691Z</time>
      </trkpt>
      <trkpt lat="41.8191" lon="20.95102">
        <ele>534.144141</ele>
        <time>2022-04-24T10:43:54.688Z</time>
      </trkpt>
      <trkpt lat="41.81911" lon="20.95088">
        <ele>534.039226</ele>
        <time>2022-04-24T10:43:56.687Z</time>
      </trkpt>
      <trkpt lat="41.81912" lon="20.95074">
        <ele>533.93675</ele>
        <time>2022-04-24T10:43:58.698Z</time>
      </trkpt>
      <trkpt lat="41.81913" lon="20.95062">
        <ele>533.841213</ele>
        <time>2022-04-24T10:44:00.702Z</time>
      </trkpt>
      <trkpt lat="41.81914" lon="20.95049">
        <ele>533.747115</ele>
        <time>2022-04-24T10:44:02.679Z</time>
      </trkpt>
      <trkpt lat="41.81914" lon="20.95037">
        <ele>533.653771</ele>
        <time>2022-04-24T10:44:04.683Z</time>
      </trkpt>
      <trkpt lat="41.81915" lon="20.95025">
        <ele>533.559098</ele>
        <time>2022-04-24T10:44:06.679Z</time>
      </trkpt>
      <trkpt lat="41.81915" lon="20.95012">
        <ele>533.466781</ele>
        <time>2022-04-24T10:44:08.683Z</time>
      </trkpt>
      <trkpt lat="41.81914" lon="20.95">
        <ele>533.3836</ele>
        <time>2022-04-24T10:44:10.681Z</time>
      </trkpt>
      <trkpt lat="41.81914" lon="20.94988">
        <ele>533.384056</ele>
        <time>2022-04-24T10:44:12.692Z</time>
      </trkpt>
      <trkpt lat="41.81914" lon="20.9497">
        <ele>533.384701</ele>
        <time>2022-04-24T10:44:15.680Z</time>
      </trkpt>
      <trkpt lat="41.81914" lon="20.94953">
        <ele>533.385325</ele>
        <time>2022-04-24T10:44:18.702Z</time>
      </trkpt>
      <trkpt lat="41.81915" lon="20.94935">
        <ele>533.385978</ele>
        <time>2022-04-24T10:44:21.679Z</time>
      </trkpt>
      <trkpt lat="41.81916" lon="20.94922">
        <ele>533.386438</ele>
        <time>2022-04-24T10:44:23.682Z</time>
      </trkpt>
      <trkpt lat="41.81916" lon="20.9491">
        <ele>533.386887</ele>
        <time>2022-04-24T10:44:25.710Z</time>
      </trkpt>
      <trkpt lat="41.81917" lon="20.94897">
        <ele>533.387354</ele>
        <time>2022-04-24T10:44:27.684Z</time>
      </trkpt>
      <trkpt lat="41.81917" lon="20.94884">
        <ele>533.387832</ele>
        <time>2022-04-24T10:44:29.685Z</time>
      </trkpt>
      <trkpt lat="41.81917" lon="20.94872">
        <ele>533.388291</ele>
        <time>2022-04-24T10:44:31.702Z</time>
      </trkpt>
      <trkpt lat="41.81917" lon="20.9486">
        <ele>533.388732</ele>
        <time>2022-04-24T10:44:33.696Z</time>
      </trkpt>
      <trkpt lat="41.81915" lon="20.94842">
        <ele>533.389383</ele>
        <time>2022-04-24T10:44:36.694Z</time>
      </trkpt>
      <trkpt lat="41.81914" lon="20.9483">
        <ele>533.389825</ele>
        <time>2022-04-24T10:44:38.681Z</time>
      </trkpt>
      <trkpt lat="41.81912" lon="20.94818">
        <ele>533.390271</ele>
        <time>2022-04-24T10:44:40.679Z</time>
      </trkpt>
      <trkpt lat="41.8191" lon="20.94802">
        <ele>533.390866</ele>
        <time>2022-04-24T10:44:43.696Z</time>
      </trkpt>
      <trkpt lat="41.81907" lon="20.94784">
        <ele>533.391507</ele>
        <time>2022-04-24T10:44:46.686Z</time>
      </trkpt>
      <trkpt lat="41.81906" lon="20.94771">
        <ele>533.392</ele>
        <time>2022-04-24T10:44:48.686Z</time>
      </trkpt>
      <trkpt lat="41.81904" lon="20.94758">
        <ele>533.358614</ele>
        <time>2022-04-24T10:44:50.682Z</time>
      </trkpt>
      <trkpt lat="41.81902" lon="20.94746">
        <ele>533.225432</ele>
        <time>2022-04-24T10:44:52.698Z</time>
      </trkpt>
      <trkpt lat="41.819" lon="20.94735">
        <ele>533.096018</ele>
        <time>2022-04-24T10:44:54.688Z</time>
      </trkpt>
      <trkpt lat="41.81898" lon="20.94722">
        <ele>532.959806</ele>
        <time>2022-04-24T10:44:56.690Z</time>
      </trkpt>
      <trkpt lat="41.81897" lon="20.9471">
        <ele>532.82781</ele>
        <time>2022-04-24T10:44:58.683Z</time>
      </trkpt>
      <trkpt lat="41.81894" lon="20.94692">
        <ele>532.634148</ele>
        <time>2022-04-24T10:45:01.687Z</time>
      </trkpt>
      <trkpt lat="41.81892" lon="20.94676">
        <ele>532.452008</ele>
        <time>2022-04-24T10:45:04.686Z</time>
      </trkpt>
      <trkpt lat="41.81891" lon="20.94664">
        <ele>532.322567</ele>
        <time>2022-04-24T10:45:06.693Z</time>
      </trkpt>
      <trkpt lat="41.8189" lon="20.94651">
        <ele>532.185665</ele>
        <time>2022-04-24T10:45:08.685Z</time>
      </trkpt>
      <trkpt lat="41.81888" lon="20.94638">
        <ele>532.050368</ele>
        <time>2022-04-24T10:45:10.695Z</time>
      </trkpt>
      <trkpt lat="41.81886" lon="20.94626">
        <ele>531.913315</ele>
        <time>2022-04-24T10:45:12.699Z</time>
      </trkpt>
      <trkpt lat="41.81884" lon="20.94614">
        <ele>531.781804</ele>
        <time>2022-04-24T10:45:14.693Z</time>
      </trkpt>
      <trkpt lat="41.81882" lon="20.94597">
        <ele>531.59843</ele>
        <time>2022-04-24T10:45:17.677Z</time>
      </trkpt>
      <trkpt lat="41.81879" lon="20.9458">
        <ele>531.407902</ele>
        <time>2022-04-24T10:45:20.695Z</time>
      </trkpt>
      <trkpt lat="41.81877" lon="20.94563">
        <ele>531.225013</ele>
        <time>2022-04-24T10:45:23.706Z</time>
      </trkpt>
      <trkpt lat="41.81874" lon="20.94546">
        <ele>531.037685</ele>
        <time>2022-04-24T10:45:26.706Z</time>
      </trkpt>
      <trkpt lat="41.81872" lon="20.94528">
        <ele>530.841403</ele>
        <time>2022-04-24T10:45:29.686Z</time>
      </trkpt>
      <trkpt lat="41.8187" lon="20.94515">
        <ele>530.90468</ele>
        <time>2022-04-24T10:45:31.692Z</time>
      </trkpt>
      <trkpt lat="41.81868" lon="20.94502">
        <ele>531.04168</ele>
        <time>2022-04-24T10:45:33.683Z</time>
      </trkpt>
      <trkpt lat="41.81867" lon="20.9449">
        <ele>531.171171</ele>
        <time>2022-04-24T10:45:35.686Z</time>
      </trkpt>
      <trkpt lat="41.81865" lon="20.94478">
        <ele>531.299881</ele>
        <time>2022-04-24T10:45:37.694Z</time>
      </trkpt>
      <trkpt lat="41.81864" lon="20.94466">
        <ele>531.429132</ele>
        <time>2022-04-24T10:45:39.681Z</time>
      </trkpt>
      <trkpt lat="41.81861" lon="20.94454">
        <ele>531.560713</ele>
        <time>2022-04-24T10:45:41.677Z</time>
      </trkpt>
      <trkpt lat="41.81858" lon="20.94442">
        <ele>531.692087</ele>
        <time>2022-04-24T10:45:43.702Z</time>
      </trkpt>
      <trkpt lat="41.81855" lon="20.94431">
        <ele>531.819479</ele>
        <time>2022-04-24T10:45:45.685Z</time>
      </trkpt>
      <trkpt lat="41.8185" lon="20.94414">
        <ele>532.010903</ele>
        <time>2022-04-24T10:45:48.683Z</time>
      </trkpt>
      <trkpt lat="41.81843" lon="20.94398">
        <ele>532.200393</ele>
        <time>2022-04-24T10:45:51.687Z</time>
      </trkpt>
      <trkpt lat="41.81836" lon="20.94384">
        <ele>532.386289</ele>
        <time>2022-04-24T10:45:54.681Z</time>
      </trkpt>
      <trkpt lat="41.81826" lon="20.94372">
        <ele>532.574149</ele>
        <time>2022-04-24T10:45:57.680Z</time>
      </trkpt>
      <trkpt lat="41.81815" lon="20.94362">
        <ele>532.756781</ele>
        <time>2022-04-24T10:46:00.702Z</time>
      </trkpt>
      <trkpt lat="41.81803" lon="20.94355">
        <ele>532.943972</ele>
        <time>2022-04-24T10:46:03.700Z</time>
      </trkpt>
      <trkpt lat="41.81794" lon="20.94351">
        <ele>533.07534</ele>
        <time>2022-04-24T10:46:05.690Z</time>
      </trkpt>
      <trkpt lat="41.81785" lon="20.94347">
        <ele>533.212404</ele>
        <time>2022-04-24T10:46:07.688Z</time>
      </trkpt>
      <trkpt lat="41.81776" lon="20.94343">
        <ele>533.346126</ele>
        <time>2022-04-24T10:46:09.680Z</time>
      </trkpt>
      <trkpt lat="41.81764" lon="20.94338">
        <ele>533.546074</ele>
        <time>2022-04-24T10:46:12.686Z</time>
      </trkpt>
      <trkpt lat="41.81752" lon="20.94332">
        <ele>533.742941</ele>
        <time>2022-04-24T10:46:15.701Z</time>
      </trkpt>
      <trkpt lat="41.8174" lon="20.94327">
        <ele>533.929196</ele>
        <time>2022-04-24T10:46:18.693Z</time>
      </trkpt>
      <trkpt lat="41.8173" lon="20.94322">
        <ele>534.104421</ele>
        <time>2022-04-24T10:46:21.683Z</time>
      </trkpt>
      <trkpt lat="41.81719" lon="20.94318">
        <ele>534.277494</ele>
        <time>2022-04-24T10:46:24.679Z</time>
      </trkpt>
      <trkpt lat="41.81708" lon="20.94314">
        <ele>534.455009</ele>
        <time>2022-04-24T10:46:27.693Z</time>
      </trkpt>
      <trkpt lat="41.81697" lon="20.94309">
        <ele>534.629858</ele>
        <time>2022-04-24T10:46:30.691Z</time>
      </trkpt>
      <trkpt lat="41.81687" lon="20.94304">
        <ele>534.805806</ele>
        <time>2022-04-24T10:46:33.697Z</time>
      </trkpt>
      <trkpt lat="41.81676" lon="20.94299">
        <ele>534.980697</ele>
        <time>2022-04-24T10:46:36.683Z</time>
      </trkpt>
      <trkpt lat="41.81666" lon="20.94294">
        <ele>535.151136</ele>
        <time>2022-04-24T10:46:39.683Z</time>
      </trkpt>
      <trkpt lat="41.81656" lon="20.94287">
        <ele>535.322098</ele>
        <time>2022-04-24T10:46:42.689Z</time>
      </trkpt>
      <trkpt lat="41.81647" lon="20.94278">
        <ele>535.494123</ele>
        <time>2022-04-24T10:46:45.709Z</time>
      </trkpt>
      <trkpt lat="41.81641" lon="20.94266">
        <ele>535.664249</ele>
        <time>2022-04-24T10:46:48.695Z</time>
      </trkpt>
      <trkpt lat="41.81635" lon="20.94253">
        <ele>535.837066</ele>
        <time>2022-04-24T10:46:51.690Z</time>
      </trkpt>
      <trkpt lat="41.8163" lon="20.94239">
        <ele>536.012219</ele>
        <time>2022-04-24T10:46:54.676Z</time>
      </trkpt>
      <trkpt lat="41.81625" lon="20.94226">
        <ele>536.150534</ele>
        <time>2022-04-24T10:46:57.681Z</time>
      </trkpt>
      <trkpt lat="41.8162" lon="20.94213">
        <ele>536.220736</ele>
        <time>2022-04-24T10:47:00.705Z</time>
      </trkpt>
      <trkpt lat="41.81615" lon="20.942">
        <ele>536.287671</ele>
        <time>2022-04-24T10:47:03.687Z</time>
      </trkpt>
      <trkpt lat="41.81611" lon="20.94187">
        <ele>536.354835</ele>
        <time>2022-04-24T10:47:06.697Z</time>
      </trkpt>
      <trkpt lat="41.81607" lon="20.94175">
        <ele>536.418657</ele>
        <time>2022-04-24T10:47:09.688Z</time>
      </trkpt>
      <trkpt lat="41.81603" lon="20.94161">
        <ele>536.486443</ele>
        <time>2022-04-24T10:47:12.686Z</time>
      </trkpt>
      <trkpt lat="41.81598" lon="20.94148">
        <ele>536.556889</ele>
        <time>2022-04-24T10:47:15.677Z</time>
      </trkpt>
      <trkpt lat="41.81594" lon="20.94134">
        <ele>536.62654</ele>
        <time>2022-04-24T10:47:18.695Z</time>
      </trkpt>
      <trkpt lat="41.81589" lon="20.94121">
        <ele>536.696621</ele>
        <time>2022-04-24T10:47:21.686Z</time>
      </trkpt>
      <trkpt lat="41.81585" lon="20.94107">
        <ele>536.766533</ele>
        <time>2022-04-24T10:47:24.682Z</time>
      </trkpt>
      <trkpt lat="41.8158" lon="20.94093">
        <ele>536.838421</ele>
        <time>2022-04-24T10:47:27.678Z</time>
      </trkpt>
      <trkpt lat="41.81576" lon="20.9408">
        <ele>536.908432</ele>
        <time>2022-04-24T10:47:30.696Z</time>
      </trkpt>
      <trkpt lat="41.81571" lon="20.94067">
        <ele>536.977183</ele>
        <time>2022-04-24T10:47:33.686Z</time>
      </trkpt>
      <trkpt lat="41.81566" lon="20.94053">
        <ele>537.046405</ele>
        <time>2022-04-24T10:47:36.701Z</time>
      </trkpt>
      <trkpt lat="41.81562" lon="20.94041">
        <ele>537.109793</ele>
        <time>2022-04-24T10:47:39.691Z</time>
      </trkpt>
      <trkpt lat="41.81558" lon="20.94027">
        <ele>537.180674</ele>
        <time>2022-04-24T10:47:42.681Z</time>
      </trkpt>
      <trkpt lat="41.81553" lon="20.94013">
        <ele>537.254801</ele>
        <time>2022-04-24T10:47:45.691Z</time>
      </trkpt>
      <trkpt lat="41.81549" lon="20.93999">
        <ele>537.430877</ele>
        <time>2022-04-24T10:47:48.700Z</time>
      </trkpt>
      <trkpt lat="41.81544" lon="20.93986">
        <ele>537.616591</ele>
        <time>2022-04-24T10:47:51.685Z</time>
      </trkpt>
      <trkpt lat="41.81539" lon="20.93973">
        <ele>537.80297</ele>
        <time>2022-04-24T10:47:54.691Z</time>
      </trkpt>
      <trkpt lat="41.81534" lon="20.93961">
        <ele>537.985776</ele>
        <time>2022-04-24T10:47:57.680Z</time>
      </trkpt>
      <trkpt lat="41.81529" lon="20.93948">
        <ele>538.174104</ele>
        <time>2022-04-24T10:48:00.697Z</time>
      </trkpt>
      <trkpt lat="41.81525" lon="20.93934">
        <ele>538.364927</ele>
        <time>2022-04-24T10:48:03.684Z</time>
      </trkpt>
      <trkpt lat="41.81521" lon="20.93921">
        <ele>538.556956</ele>
        <time>2022-04-24T10:48:06.688Z</time>
      </trkpt>
      <trkpt lat="41.81517" lon="20.93908">
        <ele>538.741096</ele>
        <time>2022-04-24T10:48:09.705Z</time>
      </trkpt>
      <trkpt lat="41.81513" lon="20.93894">
        <ele>538.927784</ele>
        <time>2022-04-24T10:48:12.699Z</time>
      </trkpt>
      <trkpt lat="41.81508" lon="20.93881">
        <ele>539.122341</ele>
        <time>2022-04-24T10:48:15.685Z</time>
      </trkpt>
      <trkpt lat="41.81503" lon="20.93868">
        <ele>539.305244</ele>
        <time>2022-04-24T10:48:18.682Z</time>
      </trkpt>
      <trkpt lat="41.81498" lon="20.93857">
        <ele>539.484447</ele>
        <time>2022-04-24T10:48:21.695Z</time>
      </trkpt>
      <trkpt lat="41.81492" lon="20.93844">
        <ele>539.678671</ele>
        <time>2022-04-24T10:48:24.684Z</time>
      </trkpt>
      <trkpt lat="41.81485" lon="20.93833">
        <ele>539.868685</ele>
        <time>2022-04-24T10:48:27.678Z</time>
      </trkpt>
      <trkpt lat="41.81478" lon="20.93822">
        <ele>540.052729</ele>
        <time>2022-04-24T10:48:30.698Z</time>
      </trkpt>
      <trkpt lat="41.8147" lon="20.93811">
        <ele>540.244988</ele>
        <time>2022-04-24T10:48:33.710Z</time>
      </trkpt>
      <trkpt lat="41.81463" lon="20.93801">
        <ele>540.421472</ele>
        <time>2022-04-24T10:48:36.695Z</time>
      </trkpt>
      <trkpt lat="41.81455" lon="20.93791">
        <ele>540.522043</ele>
        <time>2022-04-24T10:48:39.684Z</time>
      </trkpt>
      <trkpt lat="41.81447" lon="20.93783">
        <ele>540.61996</ele>
        <time>2022-04-24T10:48:42.680Z</time>
      </trkpt>
      <trkpt lat="41.81438" lon="20.93777">
        <ele>540.715865</ele>
        <time>2022-04-24T10:48:45.682Z</time>
      </trkpt>
      <trkpt lat="41.81427" lon="20.93772">
        <ele>540.829552</ele>
        <time>2022-04-24T10:48:48.677Z</time>
      </trkpt>
      <trkpt lat="41.81414" lon="20.93765">
        <ele>540.952633</ele>
        <time>2022-04-24T10:48:51.682Z</time>
      </trkpt>
      <trkpt lat="41.81402" lon="20.9376">
        <ele>541.074745</ele>
        <time>2022-04-24T10:48:54.685Z</time>
      </trkpt>
      <trkpt lat="41.81391" lon="20.93755">
        <ele>541.191203</ele>
        <time>2022-04-24T10:48:57.691Z</time>
      </trkpt>
      <trkpt lat="41.81379" lon="20.9375">
        <ele>541.307295</ele>
        <time>2022-04-24T10:49:00.676Z</time>
      </trkpt>
      <trkpt lat="41.81367" lon="20.93745">
        <ele>541.422677</ele>
        <time>2022-04-24T10:49:03.679Z</time>
      </trkpt>
      <trkpt lat="41.81357" lon="20.93739">
        <ele>541.533447</ele>
        <time>2022-04-24T10:49:06.705Z</time>
      </trkpt>
      <trkpt lat="41.81346" lon="20.93734">
        <ele>541.640437</ele>
        <time>2022-04-24T10:49:09.679Z</time>
      </trkpt>
      <trkpt lat="41.81335" lon="20.93729">
        <ele>541.754864</ele>
        <time>2022-04-24T10:49:12.686Z</time>
      </trkpt>
      <trkpt lat="41.81323" lon="20.93724">
        <ele>541.871356</ele>
        <time>2022-04-24T10:49:15.682Z</time>
      </trkpt>
      <trkpt lat="41.81312" lon="20.93719">
        <ele>541.985108</ele>
        <time>2022-04-24T10:49:18.683Z</time>
      </trkpt>
      <trkpt lat="41.813" lon="20.93713">
        <ele>542.103374</ele>
        <time>2022-04-24T10:49:21.692Z</time>
      </trkpt>
      <trkpt lat="41.81288" lon="20.93708">
        <ele>542.424377</ele>
        <time>2022-04-24T10:49:24.690Z</time>
      </trkpt>
      <trkpt lat="41.81277" lon="20.93703">
        <ele>542.763096</ele>
        <time>2022-04-24T10:49:27.680Z</time>
      </trkpt>
      <trkpt lat="41.81265" lon="20.93699">
        <ele>543.097454</ele>
        <time>2022-04-24T10:49:30.688Z</time>
      </trkpt>
      <trkpt lat="41.81255" lon="20.93694">
        <ele>543.420813</ele>
        <time>2022-04-24T10:49:33.689Z</time>
      </trkpt>
      <trkpt lat="41.81244" lon="20.93689">
        <ele>543.736149</ele>
        <time>2022-04-24T10:49:36.690Z</time>
      </trkpt>
      <trkpt lat="41.81233" lon="20.93684">
        <ele>544.062227</ele>
        <time>2022-04-24T10:49:39.685Z</time>
      </trkpt>
      <trkpt lat="41.81222" lon="20.93679">
        <ele>544.392261</ele>
        <time>2022-04-24T10:49:42.681Z</time>
      </trkpt>
      <trkpt lat="41.81211" lon="20.93674">
        <ele>544.711626</ele>
        <time>2022-04-24T10:49:45.686Z</time>
      </trkpt>
      <trkpt lat="41.81202" lon="20.93669">
        <ele>545.001137</ele>
        <time>2022-04-24T10:49:48.689Z</time>
      </trkpt>
      <trkpt lat="41.81192" lon="20.93665">
        <ele>545.276104</ele>
        <time>2022-04-24T10:49:51.691Z</time>
      </trkpt>
      <trkpt lat="41.81182" lon="20.93661">
        <ele>545.577466</ele>
        <time>2022-04-24T10:49:54.715Z</time>
      </trkpt>
      <trkpt lat="41.81172" lon="20.93656">
        <ele>545.871525</ele>
        <time>2022-04-24T10:49:57.694Z</time>
      </trkpt>
      <trkpt lat="41.81161" lon="20.93651">
        <ele>546.207287</ele>
        <time>2022-04-24T10:50:00.679Z</time>
      </trkpt>
      <trkpt lat="41.8115" lon="20.93645">
        <ele>546.541344</ele>
        <time>2022-04-24T10:50:03.717Z</time>
      </trkpt>
      <trkpt lat="41.81139" lon="20.9364">
        <ele>546.876727</ele>
        <time>2022-04-24T10:50:06.690Z</time>
      </trkpt>
      <trkpt lat="41.81127" lon="20.93635">
        <ele>547.184894</ele>
        <time>2022-04-24T10:50:09.690Z</time>
      </trkpt>
      <trkpt lat="41.81116" lon="20.9363">
        <ele>547.146743</ele>
        <time>2022-04-24T10:50:12.681Z</time>
      </trkpt>
      <trkpt lat="41.81105" lon="20.93626">
        <ele>547.108592</ele>
        <time>2022-04-24T10:50:15.678Z</time>
      </trkpt>
      <trkpt lat="41.81094" lon="20.93621">
        <ele>547.068095</ele>
        <time>2022-04-24T10:50:18.686Z</time>
      </trkpt>
      <trkpt lat="41.81082" lon="20.93616">
        <ele>547.029203</ele>
        <time>2022-04-24T10:50:21.678Z</time>
      </trkpt>
      <trkpt lat="41.81071" lon="20.93611">
        <ele>546.990433</ele>
        <time>2022-04-24T10:50:24.685Z</time>
      </trkpt>
      <trkpt lat="41.8106" lon="20.93607">
        <ele>546.95087</ele>
        <time>2022-04-24T10:50:27.689Z</time>
      </trkpt>
      <trkpt lat="41.81049" lon="20.93602">
        <ele>546.911381</ele>
        <time>2022-04-24T10:50:30.689Z</time>
      </trkpt>
      <trkpt lat="41.81037" lon="20.93597">
        <ele>546.872138</ele>
        <time>2022-04-24T10:50:33.677Z</time>
      </trkpt>
      <trkpt lat="41.81026" lon="20.93591">
        <ele>546.832813</ele>
        <time>2022-04-24T10:50:36.689Z</time>
      </trkpt>
      <trkpt lat="41.81015" lon="20.93587">
        <ele>546.794588</ele>
        <time>2022-04-24T10:50:39.687Z</time>
      </trkpt>
      <trkpt lat="41.81004" lon="20.93581">
        <ele>546.756821</ele>
        <time>2022-04-24T10:50:42.692Z</time>
      </trkpt>
      <trkpt lat="41.80993" lon="20.93576">
        <ele>546.717951</ele>
        <time>2022-04-24T10:50:45.682Z</time>
      </trkpt>
      <trkpt lat="41.80983" lon="20.93571">
        <ele>546.680041</ele>
        <time>2022-04-24T10:50:48.709Z</time>
      </trkpt>
      <trkpt lat="41.80971" lon="20.93567">
        <ele>546.641467</ele>
        <time>2022-04-24T10:50:51.682Z</time>
      </trkpt>
      <trkpt lat="41.8096" lon="20.93562">
        <ele>546.603324</ele>
        <time>2022-04-24T10:50:54.692Z</time>
      </trkpt>
      <trkpt lat="41.80949" lon="20.93557">
        <ele>546.984307</ele>
        <time>2022-04-24T10:50:57.689Z</time>
      </trkpt>
      <trkpt lat="41.80938" lon="20.93553">
        <ele>547.536079</ele>
        <time>2022-04-24T10:51:00.691Z</time>
      </trkpt>
      <trkpt lat="41.80927" lon="20.93549">
        <ele>548.056293</ele>
        <time>2022-04-24T10:51:03.683Z</time>
      </trkpt>
      <trkpt lat="41.80918" lon="20.93545">
        <ele>548.527258</ele>
        <time>2022-04-24T10:51:06.700Z</time>
      </trkpt>
      <trkpt lat="41.80907" lon="20.9354">
        <ele>549.048637</ele>
        <time>2022-04-24T10:51:09.702Z</time>
      </trkpt>
      <trkpt lat="41.80897" lon="20.93535">
        <ele>549.582063</ele>
        <time>2022-04-24T10:51:12.679Z</time>
      </trkpt>
      <trkpt lat="41.80887" lon="20.93532">
        <ele>550.048161</ele>
        <time>2022-04-24T10:51:15.685Z</time>
      </trkpt>
      <trkpt lat="41.80877" lon="20.93527">
        <ele>550.531461</ele>
        <time>2022-04-24T10:51:18.683Z</time>
      </trkpt>
      <trkpt lat="41.80869" lon="20.93521">
        <ele>550.986818</ele>
        <time>2022-04-24T10:51:21.692Z</time>
      </trkpt>
      <trkpt lat="41.80859" lon="20.93514">
        <ele>551.527421</ele>
        <time>2022-04-24T10:51:25.682Z</time>
      </trkpt>
      <trkpt lat="41.8085" lon="20.93507">
        <ele>552.00513</ele>
        <time>2022-04-24T10:51:28.687Z</time>
      </trkpt>
      <trkpt lat="41.80839" lon="20.93501">
        <ele>552.569824</ele>
        <time>2022-04-24T10:51:31.682Z</time>
      </trkpt>
      <trkpt lat="41.8083" lon="20.93495">
        <ele>553.008677</ele>
        <time>2022-04-24T10:51:33.697Z</time>
      </trkpt>
      <trkpt lat="41.80819" lon="20.93488">
        <ele>553.597846</ele>
        <time>2022-04-24T10:51:36.688Z</time>
      </trkpt>
      <trkpt lat="41.80808" lon="20.9348">
        <ele>554.166827</ele>
        <time>2022-04-24T10:51:39.682Z</time>
      </trkpt>
      <trkpt lat="41.80798" lon="20.93473">
        <ele>554.698319</ele>
        <time>2022-04-24T10:51:42.692Z</time>
      </trkpt>
      <trkpt lat="41.80788" lon="20.93466">
        <ele>555.135897</ele>
        <time>2022-04-24T10:51:45.691Z</time>
      </trkpt>
      <trkpt lat="41.80778" lon="20.93459">
        <ele>555.352001</ele>
        <time>2022-04-24T10:51:48.699Z</time>
      </trkpt>
      <trkpt lat="41.80768" lon="20.93453">
        <ele>555.561325</ele>
        <time>2022-04-24T10:51:51.683Z</time>
      </trkpt>
      <trkpt lat="41.80759" lon="20.93447">
        <ele>555.758604</ele>
        <time>2022-04-24T10:51:54.678Z</time>
      </trkpt>
      <trkpt lat="41.80749" lon="20.93438">
        <ele>555.994463</ele>
        <time>2022-04-24T10:51:57.684Z</time>
      </trkpt>
      <trkpt lat="41.80738" lon="20.93429">
        <ele>556.246067</ele>
        <time>2022-04-24T10:52:00.688Z</time>
      </trkpt>
      <trkpt lat="41.80728" lon="20.93422">
        <ele>556.476029</ele>
        <time>2022-04-24T10:52:03.696Z</time>
      </trkpt>
      <trkpt lat="41.80718" lon="20.93414">
        <ele>556.70599</ele>
        <time>2022-04-24T10:52:06.677Z</time>
      </trkpt>
      <trkpt lat="41.80708" lon="20.93405">
        <ele>556.926405</ele>
        <time>2022-04-24T10:52:09.683Z</time>
      </trkpt>
      <trkpt lat="41.80699" lon="20.93395">
        <ele>557.159851</ele>
        <time>2022-04-24T10:52:12.702Z</time>
      </trkpt>
      <trkpt lat="41.8069" lon="20.93384">
        <ele>557.398862</ele>
        <time>2022-04-24T10:52:15.682Z</time>
      </trkpt>
      <trkpt lat="41.80682" lon="20.93374">
        <ele>557.613032</ele>
        <time>2022-04-24T10:52:18.686Z</time>
      </trkpt>
      <trkpt lat="41.80673" lon="20.93365">
        <ele>557.826034</ele>
        <time>2022-04-24T10:52:21.684Z</time>
      </trkpt>
      <trkpt lat="41.80664" lon="20.93357">
        <ele>558.046446</ele>
        <time>2022-04-24T10:52:24.691Z</time>
      </trkpt>
      <trkpt lat="41.80656" lon="20.93348">
        <ele>558.256099</ele>
        <time>2022-04-24T10:52:27.701Z</time>
      </trkpt>
      <trkpt lat="41.80648" lon="20.93338">
        <ele>558.459033</ele>
        <time>2022-04-24T10:52:30.677Z</time>
      </trkpt>
      <trkpt lat="41.8064" lon="20.9333">
        <ele>558.565641</ele>
        <time>2022-04-24T10:52:33.693Z</time>
      </trkpt>
      <trkpt lat="41.80631" lon="20.93321">
        <ele>558.567774</ele>
        <time>2022-04-24T10:52:36.689Z</time>
      </trkpt>
      <trkpt lat="41.80622" lon="20.93313">
        <ele>558.569881</ele>
        <time>2022-04-24T10:52:39.681Z</time>
      </trkpt>
      <trkpt lat="41.80614" lon="20.93303">
        <ele>558.57212</ele>
        <time>2022-04-24T10:52:42.685Z</time>
      </trkpt>
      <trkpt lat="41.80605" lon="20.93293">
        <ele>558.574248</ele>
        <time>2022-04-24T10:52:45.678Z</time>
      </trkpt>
      <trkpt lat="41.80596" lon="20.93283">
        <ele>558.576534</ele>
        <time>2022-04-24T10:52:48.682Z</time>
      </trkpt>
      <trkpt lat="41.80586" lon="20.93275">
        <ele>558.578761</ele>
        <time>2022-04-24T10:52:51.704Z</time>
      </trkpt>
      <trkpt lat="41.80575" lon="20.93266">
        <ele>558.581268</ele>
        <time>2022-04-24T10:52:54.683Z</time>
      </trkpt>
      <trkpt lat="41.80566" lon="20.93258">
        <ele>558.583399</ele>
        <time>2022-04-24T10:52:57.692Z</time>
      </trkpt>
      <trkpt lat="41.80556" lon="20.93249">
        <ele>558.585739</ele>
        <time>2022-04-24T10:53:00.684Z</time>
      </trkpt>
      <trkpt lat="41.80546" lon="20.93241">
        <ele>558.587995</ele>
        <time>2022-04-24T10:53:03.698Z</time>
      </trkpt>
      <trkpt lat="41.80535" lon="20.93233">
        <ele>558.590262</ele>
        <time>2022-04-24T10:53:06.691Z</time>
      </trkpt>
      <trkpt lat="41.80526" lon="20.93225">
        <ele>558.592297</ele>
        <time>2022-04-24T10:53:09.694Z</time>
      </trkpt>
      <trkpt lat="41.80517" lon="20.93219">
        <ele>558.594324</ele>
        <time>2022-04-24T10:53:12.682Z</time>
      </trkpt>
      <trkpt lat="41.80507" lon="20.93213">
        <ele>558.596451</ele>
        <time>2022-04-24T10:53:15.694Z</time>
      </trkpt>
      <trkpt lat="41.80498" lon="20.93206">
        <ele>558.598535</ele>
        <time>2022-04-24T10:53:18.701Z</time>
      </trkpt>
      <trkpt lat="41.80489" lon="20.93198">
        <ele>558.608868</ele>
        <time>2022-04-24T10:53:21.703Z</time>
      </trkpt>
      <trkpt lat="41.80479" lon="20.93191">
        <ele>558.625647</ele>
        <time>2022-04-24T10:53:24.685Z</time>
      </trkpt>
      <trkpt lat="41.80471" lon="20.93184">
        <ele>558.641534</ele>
        <time>2022-04-24T10:53:27.683Z</time>
      </trkpt>
      <trkpt lat="41.80462" lon="20.93174">
        <ele>558.659887</ele>
        <time>2022-04-24T10:53:30.681Z</time>
      </trkpt>
      <trkpt lat="41.80452" lon="20.93163">
        <ele>558.680042</ele>
        <time>2022-04-24T10:53:33.683Z</time>
      </trkpt>
      <trkpt lat="41.80442" lon="20.93152">
        <ele>558.700585</ele>
        <time>2022-04-24T10:53:36.677Z</time>
      </trkpt>
      <trkpt lat="41.80434" lon="20.93141">
        <ele>558.718425</ele>
        <time>2022-04-24T10:53:39.680Z</time>
      </trkpt>
      <trkpt lat="41.80426" lon="20.93131">
        <ele>558.735254</ele>
        <time>2022-04-24T10:53:42.680Z</time>
      </trkpt>
      <trkpt lat="41.80419" lon="20.93122">
        <ele>558.751274</ele>
        <time>2022-04-24T10:53:45.682Z</time>
      </trkpt>
      <trkpt lat="41.80412" lon="20.93112">
        <ele>558.768186</ele>
        <time>2022-04-24T10:53:48.676Z</time>
      </trkpt>
      <trkpt lat="41.80405" lon="20.931">
        <ele>558.785577</ele>
        <time>2022-04-24T10:53:51.706Z</time>
      </trkpt>
      <trkpt lat="41.80399" lon="20.93091">
        <ele>558.800579</ele>
        <time>2022-04-24T10:53:54.701Z</time>
      </trkpt>
      <trkpt lat="41.80391" lon="20.9308">
        <ele>558.817632</ele>
        <time>2022-04-24T10:53:57.678Z</time>
      </trkpt>
      <trkpt lat="41.80385" lon="20.93067">
        <ele>558.835367</ele>
        <time>2022-04-24T10:54:00.679Z</time>
      </trkpt>
      <trkpt lat="41.80378" lon="20.93055">
        <ele>558.853697</ele>
        <time>2022-04-24T10:54:03.688Z</time>
      </trkpt>
      <trkpt lat="41.80372" lon="20.93043">
        <ele>558.870798</ele>
        <time>2022-04-24T10:54:06.686Z</time>
      </trkpt>
      <trkpt lat="41.80366" lon="20.93031">
        <ele>558.8971</ele>
        <time>2022-04-24T10:54:09.693Z</time>
      </trkpt>
      <trkpt lat="41.8036" lon="20.9302">
        <ele>558.951129</ele>
        <time>2022-04-24T10:54:12.685Z</time>
      </trkpt>
      <trkpt lat="41.80353" lon="20.93008">
        <ele>559.005472</ele>
        <time>2022-04-24T10:54:15.681Z</time>
      </trkpt>
      <trkpt lat="41.80347" lon="20.92997">
        <ele>559.058281</ele>
        <time>2022-04-24T10:54:18.697Z</time>
      </trkpt>
      <trkpt lat="41.80341" lon="20.92986">
        <ele>559.110781</ele>
        <time>2022-04-24T10:54:21.715Z</time>
      </trkpt>
      <trkpt lat="41.80335" lon="20.92974">
        <ele>559.165706</ele>
        <time>2022-04-24T10:54:24.677Z</time>
      </trkpt>
      <trkpt lat="41.80328" lon="20.92962">
        <ele>559.221869</ele>
        <time>2022-04-24T10:54:27.687Z</time>
      </trkpt>
      <trkpt lat="41.80321" lon="20.9295">
        <ele>559.27712</ele>
        <time>2022-04-24T10:54:30.678Z</time>
      </trkpt>
      <trkpt lat="41.80316" lon="20.92936">
        <ele>559.338818</ele>
        <time>2022-04-24T10:54:33.682Z</time>
      </trkpt>
      <trkpt lat="41.8031" lon="20.92923">
        <ele>559.395888</ele>
        <time>2022-04-24T10:54:36.693Z</time>
      </trkpt>
      <trkpt lat="41.80305" lon="20.92909">
        <ele>559.454293</ele>
        <time>2022-04-24T10:54:39.702Z</time>
      </trkpt>
      <trkpt lat="41.80301" lon="20.92895">
        <ele>559.510464</ele>
        <time>2022-04-24T10:54:42.679Z</time>
      </trkpt>
      <trkpt lat="41.80296" lon="20.92882">
        <ele>559.567191</ele>
        <time>2022-04-24T10:54:45.698Z</time>
      </trkpt>
      <trkpt lat="41.80291" lon="20.92867">
        <ele>559.627521</ele>
        <time>2022-04-24T10:54:48.678Z</time>
      </trkpt>
      <trkpt lat="41.80287" lon="20.92853">
        <ele>559.685215</ele>
        <time>2022-04-24T10:54:51.699Z</time>
      </trkpt>
      <trkpt lat="41.80282" lon="20.9284">
        <ele>559.740013</ele>
        <time>2022-04-24T10:54:54.687Z</time>
      </trkpt>
      <trkpt lat="41.80278" lon="20.92826">
        <ele>559.793022</ele>
        <time>2022-04-24T10:54:57.709Z</time>
      </trkpt>
      <trkpt lat="41.80273" lon="20.92812">
        <ele>559.580591</ele>
        <time>2022-04-24T10:55:00.691Z</time>
      </trkpt>
      <trkpt lat="41.8027" lon="20.92801">
        <ele>559.40257</ele>
        <time>2022-04-24T10:55:03.686Z</time>
      </trkpt>
      <trkpt lat="41.80267" lon="20.92788">
        <ele>559.214976</ele>
        <time>2022-04-24T10:55:06.679Z</time>
      </trkpt>
      <trkpt lat="41.80264" lon="20.92774">
        <ele>558.99762</ele>
        <time>2022-04-24T10:55:09.699Z</time>
      </trkpt>
      <trkpt lat="41.8026" lon="20.92759">
        <ele>558.767325</ele>
        <time>2022-04-24T10:55:12.685Z</time>
      </trkpt>
      <trkpt lat="41.80257" lon="20.92745">
        <ele>558.560475</ele>
        <time>2022-04-24T10:55:15.679Z</time>
      </trkpt>
      <trkpt lat="41.80253" lon="20.92732">
        <ele>558.364266</ele>
        <time>2022-04-24T10:55:18.690Z</time>
      </trkpt>
      <trkpt lat="41.8025" lon="20.92719">
        <ele>558.166715</ele>
        <time>2022-04-24T10:55:21.682Z</time>
      </trkpt>
      <trkpt lat="41.80247" lon="20.92706">
        <ele>557.967946</ele>
        <time>2022-04-24T10:55:24.678Z</time>
      </trkpt>
      <trkpt lat="41.80243" lon="20.92692">
        <ele>557.746134</ele>
        <time>2022-04-24T10:55:27.683Z</time>
      </trkpt>
      <trkpt lat="41.80239" lon="20.92678">
        <ele>557.536456</ele>
        <time>2022-04-24T10:55:30.683Z</time>
      </trkpt>
      <trkpt lat="41.80236" lon="20.92665">
        <ele>557.332847</ele>
        <time>2022-04-24T10:55:33.682Z</time>
      </trkpt>
      <trkpt lat="41.80232" lon="20.92651">
        <ele>557.115062</ele>
        <time>2022-04-24T10:55:36.718Z</time>
      </trkpt>
      <trkpt lat="41.80228" lon="20.92637">
        <ele>556.903341</ele>
        <time>2022-04-24T10:55:39.679Z</time>
      </trkpt>
      <trkpt lat="41.80224" lon="20.92623">
        <ele>556.690908</ele>
        <time>2022-04-24T10:55:42.682Z</time>
      </trkpt>
      <trkpt lat="41.80219" lon="20.92611">
        <ele>556.497536</ele>
        <time>2022-04-24T10:55:45.699Z</time>
      </trkpt>
      <trkpt lat="41.80216" lon="20.92597">
        <ele>556.39466</ele>
        <time>2022-04-24T10:55:48.686Z</time>
      </trkpt>
      <trkpt lat="41.80213" lon="20.92583">
        <ele>556.815255</ele>
        <time>2022-04-24T10:55:51.687Z</time>
      </trkpt>
      <trkpt lat="41.80209" lon="20.92568">
        <ele>557.239556</ele>
        <time>2022-04-24T10:55:54.677Z</time>
      </trkpt>
      <trkpt lat="41.80207" lon="20.92554">
        <ele>557.621977</ele>
        <time>2022-04-24T10:55:57.690Z</time>
      </trkpt>
      <trkpt lat="41.80206" lon="20.92542">
        <ele>557.976797</ele>
        <time>2022-04-24T10:56:00.696Z</time>
      </trkpt>
      <trkpt lat="41.80204" lon="20.92529">
        <ele>558.332089</ele>
        <time>2022-04-24T10:56:03.683Z</time>
      </trkpt>
      <trkpt lat="41.80201" lon="20.92516">
        <ele>558.719502</ele>
        <time>2022-04-24T10:56:06.677Z</time>
      </trkpt>
      <trkpt lat="41.80198" lon="20.92503">
        <ele>559.104294</ele>
        <time>2022-04-24T10:56:09.693Z</time>
      </trkpt>
      <trkpt lat="41.80195" lon="20.92489">
        <ele>559.497692</ele>
        <time>2022-04-24T10:56:14.687Z</time>
      </trkpt>
      <trkpt lat="41.80191" lon="20.92476">
        <ele>559.883569</ele>
        <time>2022-04-24T10:56:19.681Z</time>
      </trkpt>
      <trkpt lat="41.80189" lon="20.92462">
        <ele>560.260097</ele>
        <time>2022-04-24T10:56:23.690Z</time>
      </trkpt>
      <trkpt lat="41.80187" lon="20.92451">
        <ele>560.59719</ele>
        <time>2022-04-24T10:56:26.686Z</time>
      </trkpt>
      <trkpt lat="41.80184" lon="20.92436">
        <ele>561.013846</ele>
        <time>2022-04-24T10:56:30.679Z</time>
      </trkpt>
      <trkpt lat="41.80181" lon="20.92424">
        <ele>561.374156</ele>
        <time>2022-04-24T10:56:33.686Z</time>
      </trkpt>
      <trkpt lat="41.80178" lon="20.92411">
        <ele>561.733009</ele>
        <time>2022-04-24T10:56:36.683Z</time>
      </trkpt>
      <trkpt lat="41.80176" lon="20.92399">
        <ele>562.072778</ele>
        <time>2022-04-24T10:56:39.691Z</time>
      </trkpt>
      <trkpt lat="41.80174" lon="20.92385">
        <ele>562.484503</ele>
        <time>2022-04-24T10:56:43.691Z</time>
      </trkpt>
      <trkpt lat="41.80172" lon="20.9237">
        <ele>562.886625</ele>
        <time>2022-04-24T10:56:47.683Z</time>
      </trkpt>
      <trkpt lat="41.80169" lon="20.92358">
        <ele>563.038263</ele>
        <time>2022-04-24T10:56:50.690Z</time>
      </trkpt>
      <trkpt lat="41.80165" lon="20.92343">
        <ele>563.11885</ele>
        <time>2022-04-24T10:56:54.684Z</time>
      </trkpt>
      <trkpt lat="41.80162" lon="20.92331">
        <ele>563.183676</ele>
        <time>2022-04-24T10:56:57.682Z</time>
      </trkpt>
      <trkpt lat="41.8016" lon="20.92319">
        <ele>563.249346</ele>
        <time>2022-04-24T10:57:00.676Z</time>
      </trkpt>
      <trkpt lat="41.80159" lon="20.92305">
        <ele>563.320453</ele>
        <time>2022-04-24T10:57:03.694Z</time>
      </trkpt>
      <trkpt lat="41.8016" lon="20.92291">
        <ele>563.389076</ele>
        <time>2022-04-24T10:57:06.680Z</time>
      </trkpt>
      <trkpt lat="41.80162" lon="20.92276">
        <ele>563.470556</ele>
        <time>2022-04-24T10:57:09.686Z</time>
      </trkpt>
      <trkpt lat="41.80165" lon="20.92264">
        <ele>563.533513</ele>
        <time>2022-04-24T10:57:11.723Z</time>
      </trkpt>
      <trkpt lat="41.80169" lon="20.92251">
        <ele>563.602627</ele>
        <time>2022-04-24T10:57:13.683Z</time>
      </trkpt>
      <trkpt lat="41.80173" lon="20.92239">
        <ele>563.671451</ele>
        <time>2022-04-24T10:57:15.682Z</time>
      </trkpt>
      <trkpt lat="41.80178" lon="20.92228">
        <ele>563.736009</ele>
        <time>2022-04-24T10:57:17.686Z</time>
      </trkpt>
      <trkpt lat="41.80182" lon="20.92217">
        <ele>563.802345</ele>
        <time>2022-04-24T10:57:19.679Z</time>
      </trkpt>
      <trkpt lat="41.80187" lon="20.92205">
        <ele>563.868878</ele>
        <time>2022-04-24T10:57:21.688Z</time>
      </trkpt>
      <trkpt lat="41.80191" lon="20.92193">
        <ele>563.936206</ele>
        <time>2022-04-24T10:57:23.684Z</time>
      </trkpt>
      <trkpt lat="41.80195" lon="20.92181">
        <ele>564.001575</ele>
        <time>2022-04-24T10:57:25.678Z</time>
      </trkpt>
      <trkpt lat="41.80199" lon="20.9217">
        <ele>564.068414</ele>
        <time>2022-04-24T10:57:27.680Z</time>
      </trkpt>
      <trkpt lat="41.80206" lon="20.92155">
        <ele>564.159838</ele>
        <time>2022-04-24T10:57:30.678Z</time>
      </trkpt>
      <trkpt lat="41.80212" lon="20.92138">
        <ele>564.165614</ele>
        <time>2022-04-24T10:57:33.708Z</time>
      </trkpt>
      <trkpt lat="41.80218" lon="20.92122">
        <ele>563.967149</ele>
        <time>2022-04-24T10:57:36.680Z</time>
      </trkpt>
      <trkpt lat="41.80223" lon="20.92106">
        <ele>563.770447</ele>
        <time>2022-04-24T10:57:39.685Z</time>
      </trkpt>
      <trkpt lat="41.80227" lon="20.92094">
        <ele>563.634015</ele>
        <time>2022-04-24T10:57:41.685Z</time>
      </trkpt>
      <trkpt lat="41.80231" lon="20.92077">
        <ele>563.441718</ele>
        <time>2022-04-24T10:57:44.686Z</time>
      </trkpt>
      <trkpt lat="41.80233" lon="20.9206">
        <ele>563.247827</ele>
        <time>2022-04-24T10:57:47.681Z</time>
      </trkpt>
      <trkpt lat="41.80234" lon="20.92043">
        <ele>563.070106</ele>
        <time>2022-04-24T10:57:50.678Z</time>
      </trkpt>
      <trkpt lat="41.80234" lon="20.92029">
        <ele>562.907294</ele>
        <time>2022-04-24T10:57:53.689Z</time>
      </trkpt>
      <trkpt lat="41.80234" lon="20.92012">
        <ele>562.724749</ele>
        <time>2022-04-24T10:57:56.689Z</time>
      </trkpt>
      <trkpt lat="41.80234" lon="20.91995">
        <ele>562.53572</ele>
        <time>2022-04-24T10:57:59.676Z</time>
      </trkpt>
      <trkpt lat="41.80234" lon="20.91977">
        <ele>562.345621</ele>
        <time>2022-04-24T10:58:02.688Z</time>
      </trkpt>
      <trkpt lat="41.80233" lon="20.91961">
        <ele>562.168988</ele>
        <time>2022-04-24T10:58:05.686Z</time>
      </trkpt>
      <trkpt lat="41.80233" lon="20.91946">
        <ele>562.006176</ele>
        <time>2022-04-24T10:58:08.689Z</time>
      </trkpt>
      <trkpt lat="41.80232" lon="20.91932">
        <ele>561.851435</ele>
        <time>2022-04-24T10:58:11.677Z</time>
      </trkpt>
      <trkpt lat="41.80231" lon="20.91916">
        <ele>561.677224</ele>
        <time>2022-04-24T10:58:14.686Z</time>
      </trkpt>
      <trkpt lat="41.8023" lon="20.919">
        <ele>561.8669</ele>
        <time>2022-04-24T10:58:17.681Z</time>
      </trkpt>
      <trkpt lat="41.80229" lon="20.91885">
        <ele>562.365818</ele>
        <time>2022-04-24T10:58:20.712Z</time>
      </trkpt>
      <trkpt lat="41.80227" lon="20.9187">
        <ele>562.873784</ele>
        <time>2022-04-24T10:58:23.746Z</time>
      </trkpt>
      <trkpt lat="41.80226" lon="20.91856">
        <ele>563.373783</ele>
        <time>2022-04-24T10:58:26.693Z</time>
      </trkpt>
      <trkpt lat="41.80224" lon="20.91841">
        <ele>563.868306</ele>
        <time>2022-04-24T10:58:29.695Z</time>
      </trkpt>
      <trkpt lat="41.80224" lon="20.91828">
        <ele>564.340993</ele>
        <time>2022-04-24T10:58:32.695Z</time>
      </trkpt>
      <trkpt lat="41.80222" lon="20.91814">
        <ele>564.802691</ele>
        <time>2022-04-24T10:58:35.706Z</time>
      </trkpt>
      <trkpt lat="41.80221" lon="20.918">
        <ele>565.268592</ele>
        <time>2022-04-24T10:58:38.688Z</time>
      </trkpt>
      <trkpt lat="41.8022" lon="20.91788">
        <ele>565.684362</ele>
        <time>2022-04-24T10:58:41.704Z</time>
      </trkpt>
      <trkpt lat="41.80218" lon="20.91776">
        <ele>566.101775</ele>
        <time>2022-04-24T10:58:44.691Z</time>
      </trkpt>
      <trkpt lat="41.80217" lon="20.91761">
        <ele>566.641227</ele>
        <time>2022-04-24T10:58:48.691Z</time>
      </trkpt>
      <trkpt lat="41.80216" lon="20.91748">
        <ele>567.08563</ele>
        <time>2022-04-24T10:58:51.687Z</time>
      </trkpt>
      <trkpt lat="41.80214" lon="20.91734">
        <ele>567.535144</ele>
        <time>2022-04-24T10:58:54.681Z</time>
      </trkpt>
      <trkpt lat="41.80212" lon="20.91722">
        <ele>567.960441</ele>
        <time>2022-04-24T10:58:57.682Z</time>
      </trkpt>
      <trkpt lat="41.80211" lon="20.91708">
        <ele>568.459361</ele>
        <time>2022-04-24T10:59:00.675Z</time>
      </trkpt>
      <trkpt lat="41.8021" lon="20.91692">
        <ele>568.9976</ele>
        <time>2022-04-24T10:59:04.738Z</time>
      </trkpt>
      <trkpt lat="41.80209" lon="20.9168">
        <ele>569.419009</ele>
        <time>2022-04-24T10:59:07.684Z</time>
      </trkpt>
      <trkpt lat="41.80208" lon="20.91667">
        <ele>569.733773</ele>
        <time>2022-04-24T10:59:10.682Z</time>
      </trkpt>
      <trkpt lat="41.802" lon="20.91658">
        <ele>569.384533</ele>
        <time>2022-04-24T10:59:14.679Z</time>
      </trkpt>
      <trkpt lat="41.8019" lon="20.91659">
        <ele>569.051855</ele>
        <time>2022-04-24T10:59:17.705Z</time>
      </trkpt>
      <trkpt lat="41.8018" lon="20.91659">
        <ele>568.685533</ele>
        <time>2022-04-24T10:59:20.723Z</time>
      </trkpt>
      <trkpt lat="41.8017" lon="20.91659">
        <ele>568.349809</ele>
        <time>2022-04-24T10:59:23.724Z</time>
      </trkpt>
      <trkpt lat="41.80158" lon="20.91659">
        <ele>567.952972</ele>
        <time>2022-04-24T10:59:27.687Z</time>
      </trkpt>
      <trkpt lat="41.80147" lon="20.91659">
        <ele>567.586729</ele>
        <time>2022-04-24T10:59:30.682Z</time>
      </trkpt>
      <trkpt lat="41.80136" lon="20.9166">
        <ele>567.203229</ele>
        <time>2022-04-24T10:59:33.734Z</time>
      </trkpt>
      <trkpt lat="41.80124" lon="20.91664">
        <ele>566.795113</ele>
        <time>2022-04-24T10:59:36.735Z</time>
      </trkpt>
      <trkpt lat="41.80113" lon="20.91664">
        <ele>566.408514</ele>
        <time>2022-04-24T10:59:39.692Z</time>
      </trkpt>
      <trkpt lat="41.80101" lon="20.91664">
        <ele>566.001074</ele>
        <time>2022-04-24T10:59:42.686Z</time>
      </trkpt>
      <trkpt lat="41.80089" lon="20.91664">
        <ele>565.597243</ele>
        <time>2022-04-24T10:59:45.724Z</time>
      </trkpt>
      <trkpt lat="41.80078" lon="20.91665">
        <ele>565.227184</ele>
        <time>2022-04-24T10:59:48.689Z</time>
      </trkpt>
      <trkpt lat="41.80067" lon="20.91664">
        <ele>564.852927</ele>
        <time>2022-04-24T10:59:51.693Z</time>
      </trkpt>
      <trkpt lat="41.80056" lon="20.91664">
        <ele>564.459546</ele>
        <time>2022-04-24T10:59:54.686Z</time>
      </trkpt>
      <trkpt lat="41.80044" lon="20.91664">
        <ele>564.069163</ele>
        <time>2022-04-24T10:59:57.692Z</time>
      </trkpt>
      <trkpt lat="41.80033" lon="20.91665">
        <ele>563.689959</ele>
        <time>2022-04-24T11:00:00.693Z</time>
      </trkpt>
      <trkpt lat="41.80021" lon="20.91666">
        <ele>564.132044</ele>
        <time>2022-04-24T11:00:03.705Z</time>
      </trkpt>
      <trkpt lat="41.80012" lon="20.91666">
        <ele>564.521924</ele>
        <time>2022-04-24T11:00:06.696Z</time>
      </trkpt>
      <trkpt lat="41.80002" lon="20.91667">
        <ele>564.903859</ele>
        <time>2022-04-24T11:00:09.699Z</time>
      </trkpt>
      <trkpt lat="41.79991" lon="20.91666">
        <ele>565.357539</ele>
        <time>2022-04-24T11:00:13.743Z</time>
      </trkpt>
      <trkpt lat="41.79981" lon="20.91666">
        <ele>565.735222</ele>
        <time>2022-04-24T11:00:16.702Z</time>
      </trkpt>
      <trkpt lat="41.79971" lon="20.91666">
        <ele>566.133169</ele>
        <time>2022-04-24T11:00:19.705Z</time>
      </trkpt>
      <trkpt lat="41.79961" lon="20.91667">
        <ele>566.523173</ele>
        <time>2022-04-24T11:00:22.699Z</time>
      </trkpt>
      <trkpt lat="41.7995" lon="20.91666">
        <ele>566.968674</ele>
        <time>2022-04-24T11:00:26.713Z</time>
      </trkpt>
      <trkpt lat="41.79939" lon="20.91665">
        <ele>567.401704</ele>
        <time>2022-04-24T11:00:30.708Z</time>
      </trkpt>
      <trkpt lat="41.79929" lon="20.91666">
        <ele>567.813586</ele>
        <time>2022-04-24T11:00:34.730Z</time>
      </trkpt>
      <trkpt lat="41.79919" lon="20.91666">
        <ele>568.195336</ele>
        <time>2022-04-24T11:00:37.687Z</time>
      </trkpt>
      <trkpt lat="41.7991" lon="20.91666">
        <ele>568.588955</ele>
        <time>2022-04-24T11:00:40.684Z</time>
      </trkpt>
      <trkpt lat="41.79902" lon="20.91658">
        <ele>568.968056</ele>
        <time>2022-04-24T11:00:44.713Z</time>
      </trkpt>
      <trkpt lat="41.79898" lon="20.91647">
        <ele>569.325708</ele>
        <time>2022-04-24T11:00:47.701Z</time>
      </trkpt>
      <trkpt lat="41.79897" lon="20.91635">
        <ele>569.691384</ele>
        <time>2022-04-24T11:00:53.706Z</time>
      </trkpt>
      <trkpt lat="41.79895" lon="20.91623">
        <ele>570.059966</ele>
        <time>2022-04-24T11:00:59.701Z</time>
      </trkpt>
      <trkpt lat="41.79892" lon="20.9161">
        <ele>570.454988</ele>
        <time>2022-04-24T11:01:05.692Z</time>
      </trkpt>
      <trkpt lat="41.79882" lon="20.91606">
        <ele>570.852188</ele>
        <time>2022-04-24T11:01:11.715Z</time>
      </trkpt>
      <trkpt lat="41.79871" lon="20.91605">
        <ele>571.008901</ele>
        <time>2022-04-24T11:01:15.716Z</time>
      </trkpt>
      <trkpt lat="41.7986" lon="20.91606">
        <ele>571.174262</ele>
        <time>2022-04-24T11:01:20.726Z</time>
      </trkpt>
      <trkpt lat="41.79848" lon="20.91607">
        <ele>571.339402</ele>
        <time>2022-04-24T11:01:23.727Z</time>
      </trkpt>
      <trkpt lat="41.79838" lon="20.91607">
        <ele>571.492687</ele>
        <time>2022-04-24T11:01:26.708Z</time>
      </trkpt>
      <trkpt lat="41.79828" lon="20.91609">
        <ele>571.641459</ele>
        <time>2022-04-24T11:01:29.700Z</time>
      </trkpt>
      <trkpt lat="41.79818" lon="20.91608">
        <ele>571.784768</ele>
        <time>2022-04-24T11:01:32.704Z</time>
      </trkpt>
      <trkpt lat="41.79808" lon="20.91609">
        <ele>571.924299</ele>
        <time>2022-04-24T11:01:35.706Z</time>
      </trkpt>
      <trkpt lat="41.79798" lon="20.91609">
        <ele>572.064569</ele>
        <time>2022-04-24T11:01:38.723Z</time>
      </trkpt>
      <trkpt lat="41.79789" lon="20.9161">
        <ele>572.20237</ele>
        <time>2022-04-24T11:01:41.747Z</time>
      </trkpt>
      <trkpt lat="41.79779" lon="20.9161">
        <ele>572.338371</ele>
        <time>2022-04-24T11:01:44.731Z</time>
      </trkpt>
      <trkpt lat="41.79768" lon="20.91609">
        <ele>572.503398</ele>
        <time>2022-04-24T11:01:48.720Z</time>
      </trkpt>
      <trkpt lat="41.79759" lon="20.91604">
        <ele>572.639434</ele>
        <time>2022-04-24T11:01:53.703Z</time>
      </trkpt>
      <trkpt lat="41.79757" lon="20.91591">
        <ele>572.792885</ele>
        <time>2022-04-24T11:01:57.703Z</time>
      </trkpt>
      <trkpt lat="41.79754" lon="20.91576">
        <ele>572.958542</ele>
        <time>2022-04-24T11:02:01.706Z</time>
      </trkpt>
      <trkpt lat="41.79753" lon="20.91563">
        <ele>573.099946</ele>
        <time>2022-04-24T11:02:04.699Z</time>
      </trkpt>
      <trkpt lat="41.7975" lon="20.9155">
        <ele>573.242722</ele>
        <time>2022-04-24T11:02:07.718Z</time>
      </trkpt>
      <trkpt lat="41.79744" lon="20.9154">
        <ele>573.378463</ele>
        <time>2022-04-24T11:02:11.736Z</time>
      </trkpt>
      <trkpt lat="41.79732" lon="20.91538">
        <ele>573.699253</ele>
        <time>2022-04-24T11:02:15.692Z</time>
      </trkpt>
      <trkpt lat="41.79723" lon="20.91537">
        <ele>574.00317</ele>
        <time>2022-04-24T11:02:18.699Z</time>
      </trkpt>
      <trkpt lat="41.79713" lon="20.91534">
        <ele>574.350221</ele>
        <time>2022-04-24T11:02:22.691Z</time>
      </trkpt>
      <trkpt lat="41.79704" lon="20.91532">
        <ele>574.649024</ele>
        <time>2022-04-24T11:02:26.684Z</time>
      </trkpt>
      <trkpt lat="41.79693" lon="20.91532">
        <ele>574.98275</ele>
        <time>2022-04-24T11:02:30.698Z</time>
      </trkpt>
      <trkpt lat="41.79683" lon="20.91533">
        <ele>575.316228</ele>
        <time>2022-04-24T11:02:35.705Z</time>
      </trkpt>
      <trkpt lat="41.79672" lon="20.91538">
        <ele>575.701066</ele>
        <time>2022-04-24T11:02:39.682Z</time>
      </trkpt>
      <trkpt lat="41.79662" lon="20.91538">
        <ele>576.021242</ele>
        <time>2022-04-24T11:02:43.709Z</time>
      </trkpt>
      <trkpt lat="41.79654" lon="20.91528">
        <ele>576.398668</ele>
        <time>2022-04-24T11:02:46.693Z</time>
      </trkpt>
      <trkpt lat="41.79648" lon="20.91516">
        <ele>576.735477</ele>
        <time>2022-04-24T11:02:49.702Z</time>
      </trkpt>
      <trkpt lat="41.7965" lon="20.91501">
        <ele>577.093921</ele>
        <time>2022-04-24T11:02:54.696Z</time>
      </trkpt>
      <trkpt lat="41.79653" lon="20.91488">
        <ele>577.433241</ele>
        <time>2022-04-24T11:02:58.712Z</time>
      </trkpt>
      <trkpt lat="41.7965" lon="20.91475">
        <ele>577.759358</ele>
        <time>2022-04-24T11:03:01.698Z</time>
      </trkpt>
      <trkpt lat="41.79647" lon="20.91462">
        <ele>578.094033</ele>
        <time>2022-04-24T11:03:04.698Z</time>
      </trkpt>
      <trkpt lat="41.79647" lon="20.9145">
        <ele>578.39118</ele>
        <time>2022-04-24T11:03:07.728Z</time>
      </trkpt>
      <trkpt lat="41.79648" lon="20.91436">
        <ele>578.73472</ele>
        <time>2022-04-24T11:03:11.692Z</time>
      </trkpt>
      <trkpt lat="41.79645" lon="20.91424">
        <ele>579.040499</ele>
        <time>2022-04-24T11:03:14.689Z</time>
      </trkpt>
      <trkpt lat="41.79641" lon="20.91408">
        <ele>579.258211</ele>
        <time>2022-04-24T11:03:17.694Z</time>
      </trkpt>
      <trkpt lat="41.79639" lon="20.91391">
        <ele>579.09979</ele>
        <time>2022-04-24T11:03:20.700Z</time>
      </trkpt>
      <trkpt lat="41.79637" lon="20.91378">
        <ele>578.981936</ele>
        <time>2022-04-24T11:03:23.698Z</time>
      </trkpt>
      <trkpt lat="41.79626" lon="20.91375">
        <ele>578.839535</ele>
        <time>2022-04-24T11:03:27.713Z</time>
      </trkpt>
      <trkpt lat="41.79617" lon="20.91376">
        <ele>578.728629</ele>
        <time>2022-04-24T11:03:31.687Z</time>
      </trkpt>
      <trkpt lat="41.79604" lon="20.91392">
        <ele>578.517717</ele>
        <time>2022-04-24T11:07:20.695Z</time>
      </trkpt>
      <trkpt lat="41.79613" lon="20.91389">
        <ele>578.404671</ele>
        <time>2022-04-24T11:07:36.709Z</time>
      </trkpt>
      <trkpt lat="41.79604" lon="20.91382">
        <ele>578.287942</ele>
        <time>2022-04-24T11:07:51.698Z</time>
      </trkpt>
      <trkpt lat="41.79593" lon="20.91387">
        <ele>578.147021</ele>
        <time>2022-04-24T11:07:56.699Z</time>
      </trkpt>
      <trkpt lat="41.79584" lon="20.91391">
        <ele>578.032777</ele>
        <time>2022-04-24T11:08:00.735Z</time>
      </trkpt>
      <trkpt lat="41.79574" lon="20.91391">
        <ele>577.911682</ele>
        <time>2022-04-24T11:08:05.732Z</time>
      </trkpt>
      <trkpt lat="41.79565" lon="20.91394">
        <ele>577.796838</ele>
        <time>2022-04-24T11:08:11.695Z</time>
      </trkpt>
      <trkpt lat="41.79576" lon="20.91392">
        <ele>577.663374</ele>
        <time>2022-04-24T11:08:19.700Z</time>
      </trkpt>
      <trkpt lat="41.79587" lon="20.91389">
        <ele>577.532734</ele>
        <time>2022-04-24T11:08:23.693Z</time>
      </trkpt>
      <trkpt lat="41.79596" lon="20.91387">
        <ele>577.413304</ele>
        <time>2022-04-24T11:08:26.692Z</time>
      </trkpt>
      <trkpt lat="41.79607" lon="20.91384">
        <ele>577.276548</ele>
        <time>2022-04-24T11:08:30.696Z</time>
      </trkpt>
      <trkpt lat="41.79617" lon="20.91383">
        <ele>577.161167</ele>
        <time>2022-04-24T11:08:33.701Z</time>
      </trkpt>
      <trkpt lat="41.79626" lon="20.91382">
        <ele>577.267271</ele>
        <time>2022-04-24T11:08:36.696Z</time>
      </trkpt>
      <trkpt lat="41.79635" lon="20.91383">
        <ele>577.444279</ele>
        <time>2022-04-24T11:08:39.692Z</time>
      </trkpt>
      <trkpt lat="41.79643" lon="20.91373">
        <ele>577.658678</ele>
        <time>2022-04-24T11:08:43.696Z</time>
      </trkpt>
      <trkpt lat="41.79641" lon="20.91358">
        <ele>577.880824</ele>
        <time>2022-04-24T11:08:47.683Z</time>
      </trkpt>
      <trkpt lat="41.7964" lon="20.91345">
        <ele>578.065397</ele>
        <time>2022-04-24T11:08:50.693Z</time>
      </trkpt>
      <trkpt lat="41.7964" lon="20.91332">
        <ele>578.256334</ele>
        <time>2022-04-24T11:08:53.696Z</time>
      </trkpt>
      <trkpt lat="41.7964" lon="20.91318">
        <ele>578.458907</ele>
        <time>2022-04-24T11:08:56.695Z</time>
      </trkpt>
      <trkpt lat="41.7964" lon="20.91306">
        <ele>578.6425</ele>
        <time>2022-04-24T11:08:59.686Z</time>
      </trkpt>
      <trkpt lat="41.7964" lon="20.91291">
        <ele>578.859303</ele>
        <time>2022-04-24T11:09:03.719Z</time>
      </trkpt>
      <trkpt lat="41.79636" lon="20.91278">
        <ele>579.066457</ele>
        <time>2022-04-24T11:09:07.705Z</time>
      </trkpt>
      <trkpt lat="41.7963" lon="20.91265">
        <ele>579.288286</ele>
        <time>2022-04-24T11:09:11.690Z</time>
      </trkpt>
      <trkpt lat="41.79626" lon="20.91252">
        <ele>579.479383</ele>
        <time>2022-04-24T11:09:14.703Z</time>
      </trkpt>
      <trkpt lat="41.79619" lon="20.91242">
        <ele>579.681118</ele>
        <time>2022-04-24T11:09:18.695Z</time>
      </trkpt>
      <trkpt lat="41.79613" lon="20.91232">
        <ele>579.858873</ele>
        <time>2022-04-24T11:09:22.705Z</time>
      </trkpt>
      <trkpt lat="41.79605" lon="20.91226">
        <ele>580.045197</ele>
        <time>2022-04-24T11:09:25.711Z</time>
      </trkpt>
      <trkpt lat="41.79596" lon="20.91219">
        <ele>580.241876</ele>
        <time>2022-04-24T11:09:28.713Z</time>
      </trkpt>
      <trkpt lat="41.79586" lon="20.91211">
        <ele>580.464462</ele>
        <time>2022-04-24T11:09:31.699Z</time>
      </trkpt>
      <trkpt lat="41.79578" lon="20.91205">
        <ele>580.674768</ele>
        <time>2022-04-24T11:09:34.691Z</time>
      </trkpt>
      <trkpt lat="41.79569" lon="20.912">
        <ele>580.97081</ele>
        <time>2022-04-24T11:09:37.718Z</time>
      </trkpt>
      <trkpt lat="41.79561" lon="20.91193">
        <ele>581.27159</ele>
        <time>2022-04-24T11:09:41.697Z</time>
      </trkpt>
      <trkpt lat="41.79553" lon="20.91185">
        <ele>581.561355</ele>
        <time>2022-04-24T11:09:44.691Z</time>
      </trkpt>
      <trkpt lat="41.79546" lon="20.91175">
        <ele>581.877705</ele>
        <time>2022-04-24T11:09:48.699Z</time>
      </trkpt>
      <trkpt lat="41.79537" lon="20.91166">
        <ele>582.232877</ele>
        <time>2022-04-24T11:09:52.711Z</time>
      </trkpt>
      <trkpt lat="41.79529" lon="20.91158">
        <ele>582.52507</ele>
        <time>2022-04-24T11:09:55.700Z</time>
      </trkpt>
      <trkpt lat="41.79521" lon="20.9115">
        <ele>582.845431</ele>
        <time>2022-04-24T11:09:58.714Z</time>
      </trkpt>
      <trkpt lat="41.79514" lon="20.91142">
        <ele>583.124614</ele>
        <time>2022-04-24T11:10:01.697Z</time>
      </trkpt>
      <trkpt lat="41.79507" lon="20.91134">
        <ele>583.402101</ele>
        <time>2022-04-24T11:10:04.718Z</time>
      </trkpt>
      <trkpt lat="41.795" lon="20.91124">
        <ele>583.715166</ele>
        <time>2022-04-24T11:10:07.721Z</time>
      </trkpt>
      <trkpt lat="41.79493" lon="20.91115">
        <ele>584.016435</ele>
        <time>2022-04-24T11:10:10.695Z</time>
      </trkpt>
      <trkpt lat="41.79486" lon="20.91106">
        <ele>584.293833</ele>
        <time>2022-04-24T11:10:13.718Z</time>
      </trkpt>
      <trkpt lat="41.79478" lon="20.91096">
        <ele>584.641622</ele>
        <time>2022-04-24T11:10:17.704Z</time>
      </trkpt>
      <trkpt lat="41.79467" lon="20.91093">
        <ele>584.986548</ele>
        <time>2022-04-24T11:10:21.700Z</time>
      </trkpt>
      <trkpt lat="41.79443" lon="20.91091">
        <ele>585.708938</ele>
        <time>2022-04-24T11:12:19.693Z</time>
      </trkpt>
      <trkpt lat="41.79434" lon="20.9109">
        <ele>586.004948</ele>
        <time>2022-04-24T11:12:23.713Z</time>
      </trkpt>
      <trkpt lat="41.79423" lon="20.91089">
        <ele>586.040392</ele>
        <time>2022-04-24T11:12:27.690Z</time>
      </trkpt>
      <trkpt lat="41.79412" lon="20.91088">
        <ele>585.873521</ele>
        <time>2022-04-24T11:12:31.693Z</time>
      </trkpt>
      <trkpt lat="41.79402" lon="20.91085">
        <ele>585.723716</ele>
        <time>2022-04-24T11:12:35.704Z</time>
      </trkpt>
      <trkpt lat="41.79392" lon="20.91081">
        <ele>585.565914</ele>
        <time>2022-04-24T11:12:38.698Z</time>
      </trkpt>
      <trkpt lat="41.7938" lon="20.91075">
        <ele>585.371012</ele>
        <time>2022-04-24T11:12:41.696Z</time>
      </trkpt>
      <trkpt lat="41.79367" lon="20.91069">
        <ele>585.177044</ele>
        <time>2022-04-24T11:12:44.688Z</time>
      </trkpt>
      <trkpt lat="41.79354" lon="20.91066">
        <ele>584.979504</ele>
        <time>2022-04-24T11:12:47.699Z</time>
      </trkpt>
      <trkpt lat="41.79342" lon="20.91063">
        <ele>584.800607</ele>
        <time>2022-04-24T11:12:50.747Z</time>
      </trkpt>
      <trkpt lat="41.79332" lon="20.91062">
        <ele>584.640655</ele>
        <time>2022-04-24T11:12:53.692Z</time>
      </trkpt>
      <trkpt lat="41.79323" lon="20.9106">
        <ele>584.505272</ele>
        <time>2022-04-24T11:12:56.700Z</time>
      </trkpt>
      <trkpt lat="41.79315" lon="20.91053">
        <ele>584.362542</ele>
        <time>2022-04-24T11:13:02.690Z</time>
      </trkpt>
      <trkpt lat="41.79316" lon="20.91038">
        <ele>584.196864</ele>
        <time>2022-04-24T11:13:07.679Z</time>
      </trkpt>
      <trkpt lat="41.79316" lon="20.91024">
        <ele>584.04705</ele>
        <time>2022-04-24T11:13:11.679Z</time>
      </trkpt>
      <trkpt lat="41.79317" lon="20.91012">
        <ele>583.903186</ele>
        <time>2022-04-24T11:13:15.715Z</time>
      </trkpt>
      <trkpt lat="41.79321" lon="20.91001">
        <ele>583.765693</ele>
        <time>2022-04-24T11:13:21.682Z</time>
      </trkpt>
      <trkpt lat="41.79329" lon="20.91019">
        <ele>583.528009</ele>
        <time>2022-04-24T11:19:31.700Z</time>
      </trkpt>
      <trkpt lat="41.79332" lon="20.91031">
        <ele>583.400187</ele>
        <time>2022-04-24T11:19:43.712Z</time>
      </trkpt>
      <trkpt lat="41.79332" lon="20.91044">
        <ele>583.271179</ele>
        <time>2022-04-24T11:19:52.703Z</time>
      </trkpt>
      <trkpt lat="41.79334" lon="20.91056">
        <ele>583.145245</ele>
        <time>2022-04-24T11:20:10.706Z</time>
      </trkpt>
      <trkpt lat="41.79342" lon="20.91063">
        <ele>583.02155</ele>
        <time>2022-04-24T11:20:28.724Z</time>
      </trkpt>
      <trkpt lat="41.79355" lon="20.91072">
        <ele>582.820214</ele>
        <time>2022-04-24T11:20:49.758Z</time>
      </trkpt>
      <trkpt lat="41.79364" lon="20.91078">
        <ele>582.68774</ele>
        <time>2022-04-24T11:20:58.736Z</time>
      </trkpt>
      <trkpt lat="41.79384" lon="20.91089">
        <ele>582.405867</ele>
        <time>2022-04-24T11:24:01.692Z</time>
      </trkpt>
      <trkpt lat="41.79374" lon="20.9109">
        <ele>582.272399</ele>
        <time>2022-04-24T12:10:52.705Z</time>
      </trkpt>
      <trkpt lat="41.79354" lon="20.91084">
        <ele>581.997106</ele>
        <time>2022-04-24T12:11:34.778Z</time>
      </trkpt>
      <trkpt lat="41.79344" lon="20.91084">
        <ele>581.872914</ele>
        <time>2022-04-24T12:11:46.694Z</time>
      </trkpt>
      <trkpt lat="41.79335" lon="20.91084">
        <ele>581.750134</ele>
        <time>2022-04-24T12:12:04.711Z</time>
      </trkpt>
      <trkpt lat="41.79326" lon="20.91079">
        <ele>581.620863</ele>
        <time>2022-04-24T12:12:14.692Z</time>
      </trkpt>
      <trkpt lat="41.79319" lon="20.91066">
        <ele>581.471019</ele>
        <time>2022-04-24T12:12:21.692Z</time>
      </trkpt>
      <trkpt lat="41.79316" lon="20.91053">
        <ele>581.337178</ele>
        <time>2022-04-24T12:12:28.706Z</time>
      </trkpt>
      <trkpt lat="41.79314" lon="20.91041">
        <ele>581.216272</ele>
        <time>2022-04-24T12:12:36.704Z</time>
      </trkpt>
      <trkpt lat="41.79312" lon="20.91029">
        <ele>581.087093</ele>
        <time>2022-04-24T12:12:44.749Z</time>
      </trkpt>
      <trkpt lat="41.79315" lon="20.91016">
        <ele>580.958157</ele>
        <time>2022-04-24T12:12:54.701Z</time>
      </trkpt>
      <trkpt lat="41.79314" lon="20.91004">
        <ele>580.837064</ele>
        <time>2022-04-24T12:13:04.685Z</time>
      </trkpt>
      <trkpt lat="41.79306" lon="20.90997">
        <ele>580.717693</ele>
        <time>2022-04-24T12:13:13.705Z</time>
      </trkpt>
      <trkpt lat="41.79302" lon="20.90986">
        <ele>580.596445</ele>
        <time>2022-04-24T12:13:28.697Z</time>
      </trkpt>
      <trkpt lat="41.79294" lon="20.9098">
        <ele>580.466439</ele>
        <time>2022-04-24T12:13:39.700Z</time>
      </trkpt>
      <trkpt lat="41.79285" lon="20.90975">
        <ele>580.342425</ele>
        <time>2022-04-24T12:13:47.689Z</time>
      </trkpt>
      <trkpt lat="41.79277" lon="20.90969">
        <ele>580.222397</ele>
        <time>2022-04-24T12:13:56.692Z</time>
      </trkpt>
      <trkpt lat="41.79268" lon="20.90966">
        <ele>580.102038</ele>
        <time>2022-04-24T12:14:04.704Z</time>
      </trkpt>
      <trkpt lat="41.79262" lon="20.90956">
        <ele>579.979876</ele>
        <time>2022-04-24T12:14:13.707Z</time>
      </trkpt>
      <trkpt lat="41.79259" lon="20.90944">
        <ele>579.850196</ele>
        <time>2022-04-24T12:14:25.691Z</time>
      </trkpt>
      <trkpt lat="41.79254" lon="20.90934">
        <ele>579.731188</ele>
        <time>2022-04-24T12:14:34.698Z</time>
      </trkpt>
      <trkpt lat="41.79246" lon="20.90928">
        <ele>579.610417</ele>
        <time>2022-04-24T12:14:44.699Z</time>
      </trkpt>
      <trkpt lat="41.79239" lon="20.9092">
        <ele>579.488986</ele>
        <time>2022-04-24T12:14:54.720Z</time>
      </trkpt>
      <trkpt lat="41.79232" lon="20.90911">
        <ele>579.365007</ele>
        <time>2022-04-24T12:15:06.697Z</time>
      </trkpt>
      <trkpt lat="41.79223" lon="20.90905">
        <ele>579.237522</ele>
        <time>2022-04-24T12:15:18.716Z</time>
      </trkpt>
      <trkpt lat="41.79215" lon="20.90897">
        <ele>579.112992</ele>
        <time>2022-04-24T12:15:30.689Z</time>
      </trkpt>
      <trkpt lat="41.79206" lon="20.90894">
        <ele>578.986932</ele>
        <time>2022-04-24T12:15:40.683Z</time>
      </trkpt>
      <trkpt lat="41.79197" lon="20.90892">
        <ele>578.866013</ele>
        <time>2022-04-24T12:15:49.689Z</time>
      </trkpt>
      <trkpt lat="41.79188" lon="20.90888">
        <ele>578.744558</ele>
        <time>2022-04-24T12:15:57.703Z</time>
      </trkpt>
      <trkpt lat="41.79179" lon="20.90884">
        <ele>578.523391</ele>
        <time>2022-04-24T12:16:06.689Z</time>
      </trkpt>
      <trkpt lat="41.7917" lon="20.9088">
        <ele>578.316082</ele>
        <time>2022-04-24T12:16:19.731Z</time>
      </trkpt>
      <trkpt lat="41.79161" lon="20.90876">
        <ele>578.10817</ele>
        <time>2022-04-24T12:16:31.701Z</time>
      </trkpt>
      <trkpt lat="41.79153" lon="20.9087">
        <ele>577.886715</ele>
        <time>2022-04-24T12:16:41.698Z</time>
      </trkpt>
      <trkpt lat="41.79144" lon="20.90865">
        <ele>577.665235</ele>
        <time>2022-04-24T12:16:47.722Z</time>
      </trkpt>
      <trkpt lat="41.79135" lon="20.90864">
        <ele>577.456428</ele>
        <time>2022-04-24T12:16:52.688Z</time>
      </trkpt>
      <trkpt lat="41.79125" lon="20.90864">
        <ele>577.227968</ele>
        <time>2022-04-24T12:17:00.704Z</time>
      </trkpt>
      <trkpt lat="41.79116" lon="20.90871">
        <ele>577.002138</ele>
        <time>2022-04-24T12:17:10.703Z</time>
      </trkpt>
      <trkpt lat="41.79092" lon="20.90864">
        <ele>576.421517</ele>
        <time>2022-04-24T12:24:11.715Z</time>
      </trkpt>
      <trkpt lat="41.79065" lon="20.90855">
        <ele>575.796888</ele>
        <time>2022-04-24T12:24:52.705Z</time>
      </trkpt>
      <trkpt lat="41.79057" lon="20.90851">
        <ele>575.588463</ele>
        <time>2022-04-24T12:25:07.690Z</time>
      </trkpt>
      <trkpt lat="41.79047" lon="20.90846">
        <ele>575.367566</ele>
        <time>2022-04-24T12:25:19.686Z</time>
      </trkpt>
      <trkpt lat="41.79038" lon="20.90844">
        <ele>575.147679</ele>
        <time>2022-04-24T12:25:30.694Z</time>
      </trkpt>
      <trkpt lat="41.79028" lon="20.90841">
        <ele>574.922584</ele>
        <time>2022-04-24T12:25:37.694Z</time>
      </trkpt>
      <trkpt lat="41.79022" lon="20.9083">
        <ele>574.689348</ele>
        <time>2022-04-24T12:25:44.708Z</time>
      </trkpt>
      <trkpt lat="41.79021" lon="20.90818">
        <ele>574.665377</ele>
        <time>2022-04-24T12:25:52.697Z</time>
      </trkpt>
      <trkpt lat="41.79026" lon="20.90807">
        <ele>574.722927</ele>
        <time>2022-04-24T12:26:01.693Z</time>
      </trkpt>
      <trkpt lat="41.79032" lon="20.90796">
        <ele>574.781843</ele>
        <time>2022-04-24T12:26:09.694Z</time>
      </trkpt>
      <trkpt lat="41.79036" lon="20.90785">
        <ele>574.838402</ele>
        <time>2022-04-24T12:26:17.700Z</time>
      </trkpt>
      <trkpt lat="41.7904" lon="20.90774">
        <ele>574.893821</ele>
        <time>2022-04-24T12:26:26.721Z</time>
      </trkpt>
      <trkpt lat="41.79043" lon="20.90762">
        <ele>574.949009</ele>
        <time>2022-04-24T12:26:36.732Z</time>
      </trkpt>
      <trkpt lat="41.79034" lon="20.90757">
        <ele>575.009164</ele>
        <time>2022-04-24T12:26:46.729Z</time>
      </trkpt>
      <trkpt lat="41.79025" lon="20.90756">
        <ele>575.065998</ele>
        <time>2022-04-24T12:26:55.701Z</time>
      </trkpt>
      <trkpt lat="41.79015" lon="20.90754">
        <ele>575.12164</ele>
        <time>2022-04-24T12:27:06.694Z</time>
      </trkpt>
      <trkpt lat="41.79006" lon="20.90753">
        <ele>575.179182</ele>
        <time>2022-04-24T12:27:17.681Z</time>
      </trkpt>
      <trkpt lat="41.78997" lon="20.90752">
        <ele>575.235732</ele>
        <time>2022-04-24T12:27:26.685Z</time>
      </trkpt>
      <trkpt lat="41.78999" lon="20.90725">
        <ele>575.35509</ele>
        <time>2022-04-24T12:28:32.717Z</time>
      </trkpt>
      <trkpt lat="41.78999" lon="20.90713">
        <ele>575.411573</ele>
        <time>2022-04-24T12:28:39.703Z</time>
      </trkpt>
      <trkpt lat="41.78993" lon="20.90703">
        <ele>575.469362</ele>
        <time>2022-04-24T12:28:48.698Z</time>
      </trkpt>
      <trkpt lat="41.78991" lon="20.9069">
        <ele>575.526855</ele>
        <time>2022-04-24T12:28:55.753Z</time>
      </trkpt>
      <trkpt lat="41.78994" lon="20.90679">
        <ele>575.581383</ele>
        <time>2022-04-24T12:29:06.687Z</time>
      </trkpt>
      <trkpt lat="41.78999" lon="20.90668">
        <ele>575.638051</ele>
        <time>2022-04-24T12:29:16.685Z</time>
      </trkpt>
      <trkpt lat="41.79001" lon="20.90656">
        <ele>575.69209</ele>
        <time>2022-04-24T12:29:28.695Z</time>
      </trkpt>
      <trkpt lat="41.79003" lon="20.90644">
        <ele>575.812669</ele>
        <time>2022-04-24T12:29:42.697Z</time>
      </trkpt>
      <trkpt lat="41.79003" lon="20.90632">
        <ele>575.961354</ele>
        <time>2022-04-24T12:30:11.688Z</time>
      </trkpt>
      <trkpt lat="41.79006" lon="20.90618">
        <ele>576.121648</ele>
        <time>2022-04-24T12:30:19.702Z</time>
      </trkpt>
      <trkpt lat="41.7901" lon="20.90607">
        <ele>576.268178</ele>
        <time>2022-04-24T12:30:26.696Z</time>
      </trkpt>
      <trkpt lat="41.79024" lon="20.90584">
        <ele>576.617396</ele>
        <time>2022-04-24T12:44:00.722Z</time>
      </trkpt>
      <trkpt lat="41.7902" lon="20.90595">
        <ele>576.760801</ele>
        <time>2022-04-24T12:44:26.704Z</time>
      </trkpt>
      <trkpt lat="41.79033" lon="20.90609">
        <ele>577.030036</ele>
        <time>2022-04-24T12:45:49.737Z</time>
      </trkpt>
      <trkpt lat="41.7902" lon="20.90614">
        <ele>577.244358</ele>
        <time>2022-04-24T12:46:22.691Z</time>
      </trkpt>
      <trkpt lat="41.79007" lon="20.9059">
        <ele>577.599088</ele>
        <time>2022-04-24T12:47:50.734Z</time>
      </trkpt>
      <trkpt lat="41.79016" lon="20.90598">
        <ele>577.773876</ele>
        <time>2022-04-24T12:50:14.734Z</time>
      </trkpt>
      <trkpt lat="41.79029" lon="20.90598">
        <ele>577.974919</ele>
        <time>2022-04-24T12:51:55.706Z</time>
      </trkpt>
      <trkpt lat="41.79018" lon="20.90599">
        <ele>578.146851</ele>
        <time>2022-04-24T12:53:54.724Z</time>
      </trkpt>
      <trkpt lat="41.79038" lon="20.90596">
        <ele>578.474857</ele>
        <time>2022-04-24T13:09:01.698Z</time>
      </trkpt>
      <trkpt lat="41.79036" lon="20.90619">
        <ele>578.050433</ele>
        <time>2022-04-24T13:11:45.691Z</time>
      </trkpt>
      <trkpt lat="41.79006" lon="20.9062">
        <ele>576.831511</ele>
        <time>2022-04-24T13:13:53.683Z</time>
      </trkpt>
      <trkpt lat="41.79019" lon="20.90617">
        <ele>576.26654</ele>
        <time>2022-04-24T13:14:32.714Z</time>
      </trkpt>
      <trkpt lat="41.79032" lon="20.906">
        <ele>575.55108</ele>
        <time>2022-04-24T13:16:56.677Z</time>
      </trkpt>
      <trkpt lat="41.79028" lon="20.90589">
        <ele>575.17258</ele>
        <time>2022-04-24T13:17:03.683Z</time>
      </trkpt>
      <trkpt lat="41.7903" lon="20.90602">
        <ele>574.770309</ele>
        <time>2022-04-24T13:17:44.675Z</time>
      </trkpt>
      <trkpt lat="41.79033" lon="20.90614">
        <ele>574.395792</ele>
        <time>2022-04-24T13:17:52.671Z</time>
      </trkpt>
      <trkpt lat="41.79037" lon="20.90625">
        <ele>574.021263</ele>
        <time>2022-04-24T13:17:59.677Z</time>
      </trkpt>
      <trkpt lat="41.7904" lon="20.90636">
        <ele>573.64987</ele>
        <time>2022-04-24T13:18:05.674Z</time>
      </trkpt>
      <trkpt lat="41.79046" lon="20.90646">
        <ele>573.273446</ele>
        <time>2022-04-24T13:18:12.674Z</time>
      </trkpt>
      <trkpt lat="41.79044" lon="20.90659">
        <ele>572.886298</ele>
        <time>2022-04-24T13:18:23.697Z</time>
      </trkpt>
      <trkpt lat="41.79038" lon="20.90668">
        <ele>572.50833</ele>
        <time>2022-04-24T13:18:32.685Z</time>
      </trkpt>
      <trkpt lat="41.79028" lon="20.90683">
        <ele>571.865039</ele>
        <time>2022-04-24T13:21:07.681Z</time>
      </trkpt>
      <trkpt lat="41.79019" lon="20.90689">
        <ele>571.48685</ele>
        <time>2022-04-24T13:21:19.677Z</time>
      </trkpt>
      <trkpt lat="41.79012" lon="20.90697">
        <ele>571.25889</ele>
        <time>2022-04-24T13:21:29.684Z</time>
      </trkpt>
      <trkpt lat="41.79003" lon="20.90697">
        <ele>571.458885</ele>
        <time>2022-04-24T13:21:39.678Z</time>
      </trkpt>
      <trkpt lat="41.78998" lon="20.90708">
        <ele>571.674893</ele>
        <time>2022-04-24T13:21:47.688Z</time>
      </trkpt>
      <trkpt lat="41.7899" lon="20.90715">
        <ele>571.887362</ele>
        <time>2022-04-24T13:22:01.685Z</time>
      </trkpt>
      <trkpt lat="41.78985" lon="20.90725">
        <ele>572.086973</ele>
        <time>2022-04-24T13:22:10.674Z</time>
      </trkpt>
      <trkpt lat="41.78979" lon="20.90735">
        <ele>572.304952</ele>
        <time>2022-04-24T13:22:20.678Z</time>
      </trkpt>
      <trkpt lat="41.78977" lon="20.90748">
        <ele>572.517871</ele>
        <time>2022-04-24T13:22:28.673Z</time>
      </trkpt>
      <trkpt lat="41.78975" lon="20.90761">
        <ele>572.727187</ele>
        <time>2022-04-24T13:22:37.682Z</time>
      </trkpt>
      <trkpt lat="41.78972" lon="20.90773">
        <ele>572.935876</ele>
        <time>2022-04-24T13:22:46.671Z</time>
      </trkpt>
      <trkpt lat="41.78969" lon="20.90784">
        <ele>573.140082</ele>
        <time>2022-04-24T13:22:55.678Z</time>
      </trkpt>
      <trkpt lat="41.78967" lon="20.90797">
        <ele>573.354664</ele>
        <time>2022-04-24T13:23:05.676Z</time>
      </trkpt>
      <trkpt lat="41.78963" lon="20.90809">
        <ele>573.555856</ele>
        <time>2022-04-24T13:23:13.674Z</time>
      </trkpt>
      <trkpt lat="41.7894" lon="20.90805">
        <ele>574.0707</ele>
        <time>2022-04-24T13:25:04.673Z</time>
      </trkpt>
      <trkpt lat="41.7893" lon="20.90806">
        <ele>574.28898</ele>
        <time>2022-04-24T13:25:13.669Z</time>
      </trkpt>
      <trkpt lat="41.7892" lon="20.90807">
        <ele>574.499844</ele>
        <time>2022-04-24T13:25:22.675Z</time>
      </trkpt>
      <trkpt lat="41.78925" lon="20.90826">
        <ele>574.832952</ele>
        <time>2022-04-24T13:33:23.672Z</time>
      </trkpt>
      <trkpt lat="41.78924" lon="20.90863">
        <ele>575.149017</ele>
        <time>2022-04-24T13:37:06.695Z</time>
      </trkpt>
      <trkpt lat="41.78928" lon="20.90852">
        <ele>575.149017</ele>
        <time>2022-04-24T13:37:14.698Z</time>
      </trkpt>
      <trkpt lat="41.78929" lon="20.90839">
        <ele>575.149017</ele>
        <time>2022-04-24T13:37:38.696Z</time>
      </trkpt>
      <trkpt lat="41.78922" lon="20.90833">
        <ele>575.149017</ele>
        <time>2022-04-24T13:38:24.703Z</time>
      </trkpt>
      <trkpt lat="41.78915" lon="20.90824">
        <ele>575.149017</ele>
        <time>2022-04-24T13:38:54.703Z</time>
      </trkpt>
      <trkpt lat="41.78896" lon="20.90808">
        <ele>575.149017</ele>
        <time>2022-04-24T13:39:14.703Z</time>
      </trkpt>
      <trkpt lat="41.78887" lon="20.90812">
        <ele>575.149017</ele>
        <time>2022-04-24T13:39:35.686Z</time>
      </trkpt>
      <trkpt lat="41.78887" lon="20.90824">
        <ele>575.149017</ele>
        <time>2022-04-24T13:40:41.686Z</time>
      </trkpt>
      <trkpt lat="41.78896" lon="20.90824">
        <ele>575.149017</ele>
        <time>2022-04-24T13:49:34.720Z</time>
      </trkpt>
    </trkseg>
  </trk>
  <trk>
    <name><![CDATA[Tour d'Europe: étape 664]]></name>
    <extensions>
      <line xmlns="http://www.topografix.com/GPX/gpx_style/0/2">
        <color>000088</color>
        <width>4</width>
      </line>
    </extensions>
    <trkseg>
      <trkpt lat="41.99589" lon="21.42541">
        <ele>321.714643</ele>
        <time>2022-04-23T07:24:37.605Z</time>
      </trkpt>
      <trkpt lat="41.99598" lon="21.42587">
        <ele>321.714643</ele>
        <time>2022-04-23T07:48:27.519Z</time>
      </trkpt>
      <trkpt lat="41.99599" lon="21.426">
        <ele>321.714643</ele>
        <time>2022-04-23T07:48:31.507Z</time>
      </trkpt>
      <trkpt lat="41.99594" lon="21.42611">
        <ele>321.714643</ele>
        <time>2022-04-23T07:48:37.497Z</time>
      </trkpt>
      <trkpt lat="41.99585" lon="21.42613">
        <ele>321.714643</ele>
        <time>2022-04-23T07:48:42.567Z</time>
      </trkpt>
      <trkpt lat="41.99575" lon="21.42612">
        <ele>321.714643</ele>
        <time>2022-04-23T07:48:46.569Z</time>
      </trkpt>
      <trkpt lat="41.99565" lon="21.42617">
        <ele>321.714643</ele>
        <time>2022-04-23T07:48:51.524Z</time>
      </trkpt>
      <trkpt lat="41.99556" lon="21.42613">
        <ele>321.585602</ele>
        <time>2022-04-23T07:48:55.523Z</time>
      </trkpt>
      <trkpt lat="41.9955" lon="21.42602">
        <ele>321.303545</ele>
        <time>2022-04-23T07:48:58.509Z</time>
      </trkpt>
      <trkpt lat="41.9955" lon="21.42588">
        <ele>320.989337</ele>
        <time>2022-04-23T07:49:02.590Z</time>
      </trkpt>
      <trkpt lat="41.99552" lon="21.42576">
        <ele>320.718866</ele>
        <time>2022-04-23T07:49:05.512Z</time>
      </trkpt>
      <trkpt lat="41.99553" lon="21.42561">
        <ele>320.376465</ele>
        <time>2022-04-23T07:49:09.516Z</time>
      </trkpt>
      <trkpt lat="41.99554" lon="21.42546">
        <ele>320.04653</ele>
        <time>2022-04-23T07:49:13.538Z</time>
      </trkpt>
      <trkpt lat="41.9955" lon="21.42509">
        <ele>319.242698</ele>
        <time>2022-04-23T07:49:48.512Z</time>
      </trkpt>
      <trkpt lat="41.99547" lon="21.42495">
        <ele>318.920566</ele>
        <time>2022-04-23T07:49:51.503Z</time>
      </trkpt>
      <trkpt lat="41.99542" lon="21.42481">
        <ele>318.570712</ele>
        <time>2022-04-23T07:49:54.531Z</time>
      </trkpt>
      <trkpt lat="41.9954" lon="21.42469">
        <ele>318.296311</ele>
        <time>2022-04-23T07:49:57.501Z</time>
      </trkpt>
      <trkpt lat="41.99539" lon="21.42455">
        <ele>317.986044</ele>
        <time>2022-04-23T07:50:00.506Z</time>
      </trkpt>
      <trkpt lat="41.99537" lon="21.42441">
        <ele>317.689599</ele>
        <time>2022-04-23T07:50:03.560Z</time>
      </trkpt>
      <trkpt lat="41.99536" lon="21.42427">
        <ele>317.374978</ele>
        <time>2022-04-23T07:50:06.538Z</time>
      </trkpt>
      <trkpt lat="41.99533" lon="21.42411">
        <ele>317.010755</ele>
        <time>2022-04-23T07:50:09.552Z</time>
      </trkpt>
      <trkpt lat="41.99531" lon="21.42399">
        <ele>316.743421</ele>
        <time>2022-04-23T07:50:11.509Z</time>
      </trkpt>
      <trkpt lat="41.99529" lon="21.42384">
        <ele>316.399292</ele>
        <time>2022-04-23T07:50:14.506Z</time>
      </trkpt>
      <trkpt lat="41.99528" lon="21.42367">
        <ele>315.813837</ele>
        <time>2022-04-23T07:50:17.523Z</time>
      </trkpt>
      <trkpt lat="41.99527" lon="21.42351">
        <ele>315.210827</ele>
        <time>2022-04-23T07:50:20.525Z</time>
      </trkpt>
      <trkpt lat="41.99525" lon="21.42336">
        <ele>314.670725</ele>
        <time>2022-04-23T07:50:23.499Z</time>
      </trkpt>
      <trkpt lat="41.99521" lon="21.42318">
        <ele>314.024498</ele>
        <time>2022-04-23T07:50:26.517Z</time>
      </trkpt>
      <trkpt lat="41.99518" lon="21.42302">
        <ele>313.422509</ele>
        <time>2022-04-23T07:50:29.576Z</time>
      </trkpt>
      <trkpt lat="41.99516" lon="21.42285">
        <ele>312.804271</ele>
        <time>2022-04-23T07:50:32.510Z</time>
      </trkpt>
      <trkpt lat="41.99514" lon="21.42273">
        <ele>312.355102</ele>
        <time>2022-04-23T07:50:34.521Z</time>
      </trkpt>
      <trkpt lat="41.99512" lon="21.42259">
        <ele>311.847555</ele>
        <time>2022-04-23T07:50:36.514Z</time>
      </trkpt>
      <trkpt lat="41.99511" lon="21.42246">
        <ele>311.377271</ele>
        <time>2022-04-23T07:50:38.507Z</time>
      </trkpt>
      <trkpt lat="41.99511" lon="21.42233">
        <ele>310.937189</ele>
        <time>2022-04-23T07:50:40.555Z</time>
      </trkpt>
      <trkpt lat="41.99509" lon="21.42219">
        <ele>310.392705</ele>
        <time>2022-04-23T07:50:43.503Z</time>
      </trkpt>
      <trkpt lat="41.99505" lon="21.42201">
        <ele>309.733534</ele>
        <time>2022-04-23T07:50:46.552Z</time>
      </trkpt>
      <trkpt lat="41.99501" lon="21.42184">
        <ele>309.104522</ele>
        <time>2022-04-23T07:50:49.505Z</time>
      </trkpt>
      <trkpt lat="41.995" lon="21.42168">
        <ele>308.525089</ele>
        <time>2022-04-23T07:50:52.511Z</time>
      </trkpt>
      <trkpt lat="41.99499" lon="21.42154">
        <ele>308.021874</ele>
        <time>2022-04-23T07:50:54.518Z</time>
      </trkpt>
      <trkpt lat="41.99497" lon="21.42137">
        <ele>307.884856</ele>
        <time>2022-04-23T07:50:57.578Z</time>
      </trkpt>
      <trkpt lat="41.99495" lon="21.42123">
        <ele>308.09517</ele>
        <time>2022-04-23T07:50:59.521Z</time>
      </trkpt>
      <trkpt lat="41.99493" lon="21.42111">
        <ele>308.2752</ele>
        <time>2022-04-23T07:51:01.518Z</time>
      </trkpt>
      <trkpt lat="41.99492" lon="21.42098">
        <ele>308.460555</ele>
        <time>2022-04-23T07:51:03.514Z</time>
      </trkpt>
      <trkpt lat="41.99491" lon="21.42086">
        <ele>308.642043</ele>
        <time>2022-04-23T07:51:05.505Z</time>
      </trkpt>
      <trkpt lat="41.99488" lon="21.42071">
        <ele>308.866004</ele>
        <time>2022-04-23T07:51:08.503Z</time>
      </trkpt>
      <trkpt lat="41.99483" lon="21.42054">
        <ele>309.128969</ele>
        <time>2022-04-23T07:51:11.497Z</time>
      </trkpt>
      <trkpt lat="41.99479" lon="21.42042">
        <ele>309.332171</ele>
        <time>2022-04-23T07:51:13.546Z</time>
      </trkpt>
      <trkpt lat="41.99475" lon="21.4203">
        <ele>309.518054</ele>
        <time>2022-04-23T07:51:15.500Z</time>
      </trkpt>
      <trkpt lat="41.99472" lon="21.42016">
        <ele>309.739693</ele>
        <time>2022-04-23T07:51:18.546Z</time>
      </trkpt>
      <trkpt lat="41.9947" lon="21.41999">
        <ele>309.987274</ele>
        <time>2022-04-23T07:51:21.500Z</time>
      </trkpt>
      <trkpt lat="41.99467" lon="21.41984">
        <ele>310.211778</ele>
        <time>2022-04-23T07:51:24.525Z</time>
      </trkpt>
      <trkpt lat="41.99464" lon="21.41967">
        <ele>310.471018</ele>
        <time>2022-04-23T07:51:27.500Z</time>
      </trkpt>
      <trkpt lat="41.99462" lon="21.41956">
        <ele>310.649692</ele>
        <time>2022-04-23T07:51:29.506Z</time>
      </trkpt>
      <trkpt lat="41.99458" lon="21.41944">
        <ele>310.840891</ele>
        <time>2022-04-23T07:51:31.517Z</time>
      </trkpt>
      <trkpt lat="41.99454" lon="21.41928">
        <ele>311.082451</ele>
        <time>2022-04-23T07:51:34.502Z</time>
      </trkpt>
      <trkpt lat="41.99449" lon="21.41916">
        <ele>311.295357</ele>
        <time>2022-04-23T07:51:37.536Z</time>
      </trkpt>
      <trkpt lat="41.99447" lon="21.419">
        <ele>310.862058</ele>
        <time>2022-04-23T07:51:40.512Z</time>
      </trkpt>
      <trkpt lat="41.9945" lon="21.41882">
        <ele>310.296151</ele>
        <time>2022-04-23T07:51:43.513Z</time>
      </trkpt>
      <trkpt lat="41.99453" lon="21.41867">
        <ele>309.835889</ele>
        <time>2022-04-23T07:51:45.514Z</time>
      </trkpt>
      <trkpt lat="41.99454" lon="21.41852">
        <ele>309.391327</ele>
        <time>2022-04-23T07:51:47.538Z</time>
      </trkpt>
      <trkpt lat="41.99451" lon="21.41838">
        <ele>308.941078</ele>
        <time>2022-04-23T07:51:49.515Z</time>
      </trkpt>
      <trkpt lat="41.9945" lon="21.41824">
        <ele>308.535084</ele>
        <time>2022-04-23T07:51:51.533Z</time>
      </trkpt>
      <trkpt lat="41.99451" lon="21.41811">
        <ele>308.131462</ele>
        <time>2022-04-23T07:51:53.512Z</time>
      </trkpt>
      <trkpt lat="41.99453" lon="21.41798">
        <ele>307.74386</ele>
        <time>2022-04-23T07:51:55.641Z</time>
      </trkpt>
      <trkpt lat="41.99455" lon="21.41786">
        <ele>307.36992</ele>
        <time>2022-04-23T07:51:57.525Z</time>
      </trkpt>
      <trkpt lat="41.99457" lon="21.41773">
        <ele>306.976423</ele>
        <time>2022-04-23T07:51:59.551Z</time>
      </trkpt>
      <trkpt lat="41.9946" lon="21.41758">
        <ele>306.50392</ele>
        <time>2022-04-23T07:52:02.523Z</time>
      </trkpt>
      <trkpt lat="41.99463" lon="21.41741">
        <ele>305.978954</ele>
        <time>2022-04-23T07:52:05.515Z</time>
      </trkpt>
      <trkpt lat="41.99466" lon="21.41729">
        <ele>305.606008</ele>
        <time>2022-04-23T07:52:07.561Z</time>
      </trkpt>
      <trkpt lat="41.99468" lon="21.41716">
        <ele>305.224197</ele>
        <time>2022-04-23T07:52:09.578Z</time>
      </trkpt>
      <trkpt lat="41.9947" lon="21.41703">
        <ele>304.826113</ele>
        <time>2022-04-23T07:52:11.535Z</time>
      </trkpt>
      <trkpt lat="41.99473" lon="21.41686">
        <ele>304.304098</ele>
        <time>2022-04-23T07:52:14.518Z</time>
      </trkpt>
      <trkpt lat="41.99475" lon="21.4167">
        <ele>304.064213</ele>
        <time>2022-04-23T07:52:17.519Z</time>
      </trkpt>
      <trkpt lat="41.99477" lon="21.41657">
        <ele>304.04641</ele>
        <time>2022-04-23T07:52:19.544Z</time>
      </trkpt>
      <trkpt lat="41.99478" lon="21.41644">
        <ele>304.027522</ele>
        <time>2022-04-23T07:52:21.517Z</time>
      </trkpt>
      <trkpt lat="41.99478" lon="21.4163">
        <ele>304.007609</ele>
        <time>2022-04-23T07:52:23.506Z</time>
      </trkpt>
      <trkpt lat="41.99481" lon="21.41617">
        <ele>303.988245</ele>
        <time>2022-04-23T07:52:25.511Z</time>
      </trkpt>
      <trkpt lat="41.99483" lon="21.41605">
        <ele>303.970529</ele>
        <time>2022-04-23T07:52:27.542Z</time>
      </trkpt>
      <trkpt lat="41.99487" lon="21.4159">
        <ele>303.947031</ele>
        <time>2022-04-23T07:52:30.573Z</time>
      </trkpt>
      <trkpt lat="41.99491" lon="21.41572">
        <ele>303.921568</ele>
        <time>2022-04-23T07:52:33.528Z</time>
      </trkpt>
      <trkpt lat="41.99493" lon="21.41561">
        <ele>303.904099</ele>
        <time>2022-04-23T07:52:35.527Z</time>
      </trkpt>
      <trkpt lat="41.99496" lon="21.41546">
        <ele>303.881757</ele>
        <time>2022-04-23T07:52:38.536Z</time>
      </trkpt>
      <trkpt lat="41.995" lon="21.41533">
        <ele>303.86207</ele>
        <time>2022-04-23T07:52:41.504Z</time>
      </trkpt>
      <trkpt lat="41.99501" lon="21.41515">
        <ele>303.836037</ele>
        <time>2022-04-23T07:52:44.523Z</time>
      </trkpt>
      <trkpt lat="41.99503" lon="21.41502">
        <ele>303.818233</ele>
        <time>2022-04-23T07:52:46.558Z</time>
      </trkpt>
      <trkpt lat="41.99505" lon="21.4149">
        <ele>303.80001</ele>
        <time>2022-04-23T07:52:48.521Z</time>
      </trkpt>
      <trkpt lat="41.99509" lon="21.41473">
        <ele>303.774314</ele>
        <time>2022-04-23T07:52:51.516Z</time>
      </trkpt>
      <trkpt lat="41.99512" lon="21.41456">
        <ele>303.750283</ele>
        <time>2022-04-23T07:52:54.510Z</time>
      </trkpt>
      <trkpt lat="41.99513" lon="21.41438">
        <ele>303.765435</ele>
        <time>2022-04-23T07:52:57.557Z</time>
      </trkpt>
      <trkpt lat="41.99514" lon="21.41425">
        <ele>303.844393</ele>
        <time>2022-04-23T07:52:59.518Z</time>
      </trkpt>
      <trkpt lat="41.99515" lon="21.41412">
        <ele>303.919732</ele>
        <time>2022-04-23T07:53:01.503Z</time>
      </trkpt>
      <trkpt lat="41.99515" lon="21.41399">
        <ele>303.997365</ele>
        <time>2022-04-23T07:53:03.527Z</time>
      </trkpt>
      <trkpt lat="41.99516" lon="21.41387">
        <ele>304.072354</ele>
        <time>2022-04-23T07:53:05.523Z</time>
      </trkpt>
      <trkpt lat="41.99518" lon="21.4137">
        <ele>304.179182</ele>
        <time>2022-04-23T07:53:08.520Z</time>
      </trkpt>
      <trkpt lat="41.99519" lon="21.41357">
        <ele>304.254873</ele>
        <time>2022-04-23T07:53:10.522Z</time>
      </trkpt>
      <trkpt lat="41.99521" lon="21.41339">
        <ele>304.364604</ele>
        <time>2022-04-23T07:53:13.535Z</time>
      </trkpt>
      <trkpt lat="41.99523" lon="21.41327">
        <ele>304.440054</ele>
        <time>2022-04-23T07:53:15.518Z</time>
      </trkpt>
      <trkpt lat="41.99526" lon="21.41311">
        <ele>304.54173</ele>
        <time>2022-04-23T07:53:18.561Z</time>
      </trkpt>
      <trkpt lat="41.99528" lon="21.41295">
        <ele>304.638436</ele>
        <time>2022-04-23T07:53:21.523Z</time>
      </trkpt>
      <trkpt lat="41.9953" lon="21.41279">
        <ele>304.735033</ele>
        <time>2022-04-23T07:53:24.486Z</time>
      </trkpt>
      <trkpt lat="41.99532" lon="21.41263">
        <ele>304.83412</ele>
        <time>2022-04-23T07:53:27.529Z</time>
      </trkpt>
      <trkpt lat="41.99535" lon="21.41248">
        <ele>304.925917</ele>
        <time>2022-04-23T07:53:30.506Z</time>
      </trkpt>
      <trkpt lat="41.99537" lon="21.41233">
        <ele>305.017565</ele>
        <time>2022-04-23T07:53:34.557Z</time>
      </trkpt>
      <trkpt lat="41.99538" lon="21.41221">
        <ele>305.093965</ele>
        <time>2022-04-23T07:53:39.526Z</time>
      </trkpt>
      <trkpt lat="41.99541" lon="21.41202">
        <ele>305.214539</ele>
        <time>2022-04-23T07:54:16.515Z</time>
      </trkpt>
      <trkpt lat="41.99543" lon="21.41188">
        <ele>305.303042</ele>
        <time>2022-04-23T07:54:19.563Z</time>
      </trkpt>
      <trkpt lat="41.99545" lon="21.41174">
        <ele>305.398928</ele>
        <time>2022-04-23T07:54:22.516Z</time>
      </trkpt>
      <trkpt lat="41.99546" lon="21.41157">
        <ele>305.509425</ele>
        <time>2022-04-23T07:54:25.501Z</time>
      </trkpt>
      <trkpt lat="41.99548" lon="21.41141">
        <ele>305.616749</ele>
        <time>2022-04-23T07:54:28.509Z</time>
      </trkpt>
      <trkpt lat="41.9955" lon="21.41124">
        <ele>305.727945</ele>
        <time>2022-04-23T07:54:31.511Z</time>
      </trkpt>
      <trkpt lat="41.99553" lon="21.41109">
        <ele>305.832102</ele>
        <time>2022-04-23T07:54:34.525Z</time>
      </trkpt>
      <trkpt lat="41.99556" lon="21.41094">
        <ele>305.932248</ele>
        <time>2022-04-23T07:54:37.523Z</time>
      </trkpt>
      <trkpt lat="41.99559" lon="21.41078">
        <ele>306.041112</ele>
        <time>2022-04-23T07:54:40.556Z</time>
      </trkpt>
      <trkpt lat="41.99561" lon="21.4106">
        <ele>306.159402</ele>
        <time>2022-04-23T07:54:43.506Z</time>
      </trkpt>
      <trkpt lat="41.99563" lon="21.41047">
        <ele>306.246265</ele>
        <time>2022-04-23T07:54:45.551Z</time>
      </trkpt>
      <trkpt lat="41.99565" lon="21.41034">
        <ele>306.333607</ele>
        <time>2022-04-23T07:54:47.533Z</time>
      </trkpt>
      <trkpt lat="41.99567" lon="21.41021">
        <ele>306.420304</ele>
        <time>2022-04-23T07:54:49.525Z</time>
      </trkpt>
      <trkpt lat="41.99569" lon="21.41008">
        <ele>306.5067</ele>
        <time>2022-04-23T07:54:51.513Z</time>
      </trkpt>
      <trkpt lat="41.9957" lon="21.40995">
        <ele>306.593038</ele>
        <time>2022-04-23T07:54:53.504Z</time>
      </trkpt>
      <trkpt lat="41.9957" lon="21.40982">
        <ele>306.681586</ele>
        <time>2022-04-23T07:54:55.513Z</time>
      </trkpt>
      <trkpt lat="41.99571" lon="21.40968">
        <ele>306.77249</ele>
        <time>2022-04-23T07:54:57.540Z</time>
      </trkpt>
      <trkpt lat="41.99572" lon="21.40955">
        <ele>306.778406</ele>
        <time>2022-04-23T07:54:59.514Z</time>
      </trkpt>
      <trkpt lat="41.99573" lon="21.40942">
        <ele>306.773072</ele>
        <time>2022-04-23T07:55:01.515Z</time>
      </trkpt>
      <trkpt lat="41.99574" lon="21.40929">
        <ele>306.767719</ele>
        <time>2022-04-23T07:55:03.550Z</time>
      </trkpt>
      <trkpt lat="41.99576" lon="21.40917">
        <ele>306.762417</ele>
        <time>2022-04-23T07:55:05.539Z</time>
      </trkpt>
      <trkpt lat="41.99579" lon="21.40905">
        <ele>306.757427</ele>
        <time>2022-04-23T07:55:07.566Z</time>
      </trkpt>
      <trkpt lat="41.99582" lon="21.40888">
        <ele>306.750188</ele>
        <time>2022-04-23T07:55:10.521Z</time>
      </trkpt>
      <trkpt lat="41.99584" lon="21.40876">
        <ele>306.745207</ele>
        <time>2022-04-23T07:55:12.518Z</time>
      </trkpt>
      <trkpt lat="41.99586" lon="21.40859">
        <ele>306.737859</ele>
        <time>2022-04-23T07:55:15.525Z</time>
      </trkpt>
      <trkpt lat="41.99588" lon="21.40842">
        <ele>306.730837</ele>
        <time>2022-04-23T07:55:18.542Z</time>
      </trkpt>
      <trkpt lat="41.99592" lon="21.40826">
        <ele>306.723967</ele>
        <time>2022-04-23T07:55:21.506Z</time>
      </trkpt>
      <trkpt lat="41.99594" lon="21.40808">
        <ele>306.716316</ele>
        <time>2022-04-23T07:55:24.535Z</time>
      </trkpt>
      <trkpt lat="41.99596" lon="21.40795">
        <ele>306.710841</ele>
        <time>2022-04-23T07:55:26.525Z</time>
      </trkpt>
      <trkpt lat="41.99598" lon="21.40782">
        <ele>306.705403</ele>
        <time>2022-04-23T07:55:28.501Z</time>
      </trkpt>
      <trkpt lat="41.996" lon="21.40769">
        <ele>306.699752</ele>
        <time>2022-04-23T07:55:30.529Z</time>
      </trkpt>
      <trkpt lat="41.99601" lon="21.40757">
        <ele>306.694721</ele>
        <time>2022-04-23T07:55:32.535Z</time>
      </trkpt>
      <trkpt lat="41.99604" lon="21.40745">
        <ele>306.68958</ele>
        <time>2022-04-23T07:55:34.504Z</time>
      </trkpt>
      <trkpt lat="41.99606" lon="21.40731">
        <ele>306.684072</ele>
        <time>2022-04-23T07:55:36.541Z</time>
      </trkpt>
      <trkpt lat="41.99607" lon="21.40719">
        <ele>306.75121</ele>
        <time>2022-04-23T07:55:38.547Z</time>
      </trkpt>
      <trkpt lat="41.99608" lon="21.40701">
        <ele>306.860403</ele>
        <time>2022-04-23T07:55:41.522Z</time>
      </trkpt>
      <trkpt lat="41.99609" lon="21.40685">
        <ele>306.962281</ele>
        <time>2022-04-23T07:55:44.518Z</time>
      </trkpt>
      <trkpt lat="41.99611" lon="21.40669">
        <ele>307.061327</ele>
        <time>2022-04-23T07:55:47.538Z</time>
      </trkpt>
      <trkpt lat="41.99614" lon="21.40653">
        <ele>307.162793</ele>
        <time>2022-04-23T07:55:50.502Z</time>
      </trkpt>
      <trkpt lat="41.99618" lon="21.40636">
        <ele>307.272535</ele>
        <time>2022-04-23T07:55:53.525Z</time>
      </trkpt>
      <trkpt lat="41.99621" lon="21.4062">
        <ele>307.378243</ele>
        <time>2022-04-23T07:55:56.537Z</time>
      </trkpt>
      <trkpt lat="41.99623" lon="21.40602">
        <ele>307.488423</ele>
        <time>2022-04-23T07:55:59.533Z</time>
      </trkpt>
      <trkpt lat="41.99625" lon="21.40584">
        <ele>307.600328</ele>
        <time>2022-04-23T07:56:02.553Z</time>
      </trkpt>
      <trkpt lat="41.99627" lon="21.40572">
        <ele>307.677726</ele>
        <time>2022-04-23T07:56:04.502Z</time>
      </trkpt>
      <trkpt lat="41.9963" lon="21.4056">
        <ele>307.757182</ele>
        <time>2022-04-23T07:56:06.506Z</time>
      </trkpt>
      <trkpt lat="41.99632" lon="21.40548">
        <ele>307.833571</ele>
        <time>2022-04-23T07:56:08.504Z</time>
      </trkpt>
      <trkpt lat="41.99635" lon="21.40536">
        <ele>307.90982</ele>
        <time>2022-04-23T07:56:10.497Z</time>
      </trkpt>
      <trkpt lat="41.99638" lon="21.40519">
        <ele>308.021119</ele>
        <time>2022-04-23T07:56:13.534Z</time>
      </trkpt>
      <trkpt lat="41.99641" lon="21.40501">
        <ele>308.132895</ele>
        <time>2022-04-23T07:56:16.523Z</time>
      </trkpt>
      <trkpt lat="41.99644" lon="21.40484">
        <ele>308.03029</ele>
        <time>2022-04-23T07:56:19.509Z</time>
      </trkpt>
      <trkpt lat="41.99646" lon="21.40472">
        <ele>307.835616</ele>
        <time>2022-04-23T07:56:21.554Z</time>
      </trkpt>
      <trkpt lat="41.99648" lon="21.40459">
        <ele>307.638375</ele>
        <time>2022-04-23T07:56:23.524Z</time>
      </trkpt>
      <trkpt lat="41.99651" lon="21.40442">
        <ele>307.359412</ele>
        <time>2022-04-23T07:56:26.553Z</time>
      </trkpt>
      <trkpt lat="41.99652" lon="21.40429">
        <ele>307.158035</ele>
        <time>2022-04-23T07:56:28.503Z</time>
      </trkpt>
      <trkpt lat="41.99654" lon="21.40415">
        <ele>306.938448</ele>
        <time>2022-04-23T07:56:30.553Z</time>
      </trkpt>
      <trkpt lat="41.99656" lon="21.40399">
        <ele>306.693901</ele>
        <time>2022-04-23T07:56:32.517Z</time>
      </trkpt>
      <trkpt lat="41.99658" lon="21.40383">
        <ele>306.438627</ele>
        <time>2022-04-23T07:56:34.514Z</time>
      </trkpt>
      <trkpt lat="41.9966" lon="21.40366">
        <ele>306.159688</ele>
        <time>2022-04-23T07:56:36.506Z</time>
      </trkpt>
      <trkpt lat="41.99663" lon="21.40349">
        <ele>305.896402</ele>
        <time>2022-04-23T07:56:38.531Z</time>
      </trkpt>
      <trkpt lat="41.99664" lon="21.40333">
        <ele>305.651064</ele>
        <time>2022-04-23T07:56:40.505Z</time>
      </trkpt>
      <trkpt lat="41.99665" lon="21.40318">
        <ele>305.415215</ele>
        <time>2022-04-23T07:56:42.513Z</time>
      </trkpt>
      <trkpt lat="41.99667" lon="21.40304">
        <ele>305.185968</ele>
        <time>2022-04-23T07:56:44.483Z</time>
      </trkpt>
      <trkpt lat="41.99669" lon="21.40289">
        <ele>304.958398</ele>
        <time>2022-04-23T07:56:46.530Z</time>
      </trkpt>
      <trkpt lat="41.9967" lon="21.40276">
        <ele>304.755432</ele>
        <time>2022-04-23T07:56:48.535Z</time>
      </trkpt>
      <trkpt lat="41.9967" lon="21.40263">
        <ele>304.548647</ele>
        <time>2022-04-23T07:56:50.518Z</time>
      </trkpt>
      <trkpt lat="41.99672" lon="21.40249">
        <ele>304.331944</ele>
        <time>2022-04-23T07:56:52.505Z</time>
      </trkpt>
      <trkpt lat="41.99674" lon="21.40235">
        <ele>304.119746</ele>
        <time>2022-04-23T07:56:54.504Z</time>
      </trkpt>
      <trkpt lat="41.99676" lon="21.40222">
        <ele>303.911265</ele>
        <time>2022-04-23T07:56:56.517Z</time>
      </trkpt>
      <trkpt lat="41.99677" lon="21.40209">
        <ele>303.708245</ele>
        <time>2022-04-23T07:56:58.496Z</time>
      </trkpt>
      <trkpt lat="41.99679" lon="21.40196">
        <ele>303.50643</ele>
        <time>2022-04-23T07:57:00.507Z</time>
      </trkpt>
      <trkpt lat="41.9968" lon="21.40183">
        <ele>303.313956</ele>
        <time>2022-04-23T07:57:02.499Z</time>
      </trkpt>
      <trkpt lat="41.99682" lon="21.4017">
        <ele>303.115605</ele>
        <time>2022-04-23T07:57:04.499Z</time>
      </trkpt>
      <trkpt lat="41.99684" lon="21.40158">
        <ele>302.918304</ele>
        <time>2022-04-23T07:57:06.514Z</time>
      </trkpt>
      <trkpt lat="41.99686" lon="21.40145">
        <ele>302.718718</ele>
        <time>2022-04-23T07:57:08.512Z</time>
      </trkpt>
      <trkpt lat="41.99688" lon="21.40132">
        <ele>302.515249</ele>
        <time>2022-04-23T07:57:10.498Z</time>
      </trkpt>
      <trkpt lat="41.99691" lon="21.40114">
        <ele>302.244177</ele>
        <time>2022-04-23T07:57:13.509Z</time>
      </trkpt>
      <trkpt lat="41.99693" lon="21.40097">
        <ele>301.977277</ele>
        <time>2022-04-23T07:57:16.523Z</time>
      </trkpt>
      <trkpt lat="41.99696" lon="21.4008">
        <ele>301.705764</ele>
        <time>2022-04-23T07:57:19.518Z</time>
      </trkpt>
      <trkpt lat="41.99698" lon="21.40062">
        <ele>301.440027</ele>
        <time>2022-04-23T07:57:22.511Z</time>
      </trkpt>
      <trkpt lat="41.997" lon="21.40045">
        <ele>301.164107</ele>
        <time>2022-04-23T07:57:25.516Z</time>
      </trkpt>
      <trkpt lat="41.99702" lon="21.40032">
        <ele>300.972825</ele>
        <time>2022-04-23T07:57:27.516Z</time>
      </trkpt>
      <trkpt lat="41.99704" lon="21.4002">
        <ele>300.787197</ele>
        <time>2022-04-23T07:57:29.540Z</time>
      </trkpt>
      <trkpt lat="41.99706" lon="21.40008">
        <ele>300.913552</ele>
        <time>2022-04-23T07:57:31.504Z</time>
      </trkpt>
      <trkpt lat="41.99708" lon="21.3999">
        <ele>301.269454</ele>
        <time>2022-04-23T07:57:34.509Z</time>
      </trkpt>
      <trkpt lat="41.9971" lon="21.39978">
        <ele>301.512979</ele>
        <time>2022-04-23T07:57:36.520Z</time>
      </trkpt>
      <trkpt lat="41.99712" lon="21.39966">
        <ele>301.756757</ele>
        <time>2022-04-23T07:57:38.504Z</time>
      </trkpt>
      <trkpt lat="41.99714" lon="21.39948">
        <ele>302.118951</ele>
        <time>2022-04-23T07:57:41.522Z</time>
      </trkpt>
      <trkpt lat="41.99716" lon="21.39935">
        <ele>302.373647</ele>
        <time>2022-04-23T07:57:43.505Z</time>
      </trkpt>
      <trkpt lat="41.99718" lon="21.39923">
        <ele>302.609979</ele>
        <time>2022-04-23T07:57:45.515Z</time>
      </trkpt>
      <trkpt lat="41.9972" lon="21.39911">
        <ele>302.855432</ele>
        <time>2022-04-23T07:57:47.502Z</time>
      </trkpt>
      <trkpt lat="41.99721" lon="21.39899">
        <ele>303.096103</ele>
        <time>2022-04-23T07:57:49.515Z</time>
      </trkpt>
      <trkpt lat="41.99723" lon="21.39887">
        <ele>303.336775</ele>
        <time>2022-04-23T07:57:51.533Z</time>
      </trkpt>
      <trkpt lat="41.99725" lon="21.39874">
        <ele>303.582724</ele>
        <time>2022-04-23T07:57:53.507Z</time>
      </trkpt>
      <trkpt lat="41.99728" lon="21.39858">
        <ele>303.926493</ele>
        <time>2022-04-23T07:57:56.506Z</time>
      </trkpt>
      <trkpt lat="41.9973" lon="21.39845">
        <ele>304.171035</ele>
        <time>2022-04-23T07:57:58.506Z</time>
      </trkpt>
      <trkpt lat="41.99732" lon="21.39833">
        <ele>304.413136</ele>
        <time>2022-04-23T07:58:00.520Z</time>
      </trkpt>
      <trkpt lat="41.99732" lon="21.39821">
        <ele>304.655617</ele>
        <time>2022-04-23T07:58:02.557Z</time>
      </trkpt>
      <trkpt lat="41.99734" lon="21.39809">
        <ele>304.895794</ele>
        <time>2022-04-23T07:58:04.528Z</time>
      </trkpt>
      <trkpt lat="41.99738" lon="21.39791">
        <ele>305.254464</ele>
        <time>2022-04-23T07:58:07.505Z</time>
      </trkpt>
      <trkpt lat="41.9974" lon="21.39779">
        <ele>305.48423</ele>
        <time>2022-04-23T07:58:09.513Z</time>
      </trkpt>
      <trkpt lat="41.99741" lon="21.3976">
        <ele>305.495163</ele>
        <time>2022-04-23T07:58:12.505Z</time>
      </trkpt>
      <trkpt lat="41.99741" lon="21.39748">
        <ele>305.502584</ele>
        <time>2022-04-23T07:58:14.516Z</time>
      </trkpt>
      <trkpt lat="41.99744" lon="21.39731">
        <ele>305.512767</ele>
        <time>2022-04-23T07:58:17.524Z</time>
      </trkpt>
      <trkpt lat="41.99746" lon="21.39719">
        <ele>305.519931</ele>
        <time>2022-04-23T07:58:19.533Z</time>
      </trkpt>
      <trkpt lat="41.99748" lon="21.39707">
        <ele>305.527243</ele>
        <time>2022-04-23T07:58:21.498Z</time>
      </trkpt>
      <trkpt lat="41.99751" lon="21.39694">
        <ele>305.534667</ele>
        <time>2022-04-23T07:58:23.489Z</time>
      </trkpt>
      <trkpt lat="41.99753" lon="21.39676">
        <ele>305.545248</ele>
        <time>2022-04-23T07:58:26.511Z</time>
      </trkpt>
      <trkpt lat="41.99754" lon="21.39664">
        <ele>305.552839</ele>
        <time>2022-04-23T07:58:28.513Z</time>
      </trkpt>
      <trkpt lat="41.99756" lon="21.39646">
        <ele>305.56343</ele>
        <time>2022-04-23T07:58:31.535Z</time>
      </trkpt>
      <trkpt lat="41.99757" lon="21.39633">
        <ele>305.571099</ele>
        <time>2022-04-23T07:58:33.519Z</time>
      </trkpt>
      <trkpt lat="41.9976" lon="21.39616">
        <ele>305.581357</ele>
        <time>2022-04-23T07:58:36.483Z</time>
      </trkpt>
      <trkpt lat="41.99763" lon="21.39604">
        <ele>305.5885</ele>
        <time>2022-04-23T07:58:38.512Z</time>
      </trkpt>
      <trkpt lat="41.99764" lon="21.3959">
        <ele>305.596355</ele>
        <time>2022-04-23T07:58:40.504Z</time>
      </trkpt>
      <trkpt lat="41.99766" lon="21.39578">
        <ele>305.603947</ele>
        <time>2022-04-23T07:58:42.511Z</time>
      </trkpt>
      <trkpt lat="41.99767" lon="21.39564">
        <ele>305.611992</ele>
        <time>2022-04-23T07:58:44.518Z</time>
      </trkpt>
      <trkpt lat="41.99768" lon="21.39551">
        <ele>305.619699</ele>
        <time>2022-04-23T07:58:46.520Z</time>
      </trkpt>
      <trkpt lat="41.99769" lon="21.39537">
        <ele>305.74932</ele>
        <time>2022-04-23T07:58:48.516Z</time>
      </trkpt>
      <trkpt lat="41.99771" lon="21.39524">
        <ele>306.130929</ele>
        <time>2022-04-23T07:58:50.520Z</time>
      </trkpt>
      <trkpt lat="41.99772" lon="21.39512">
        <ele>306.499773</ele>
        <time>2022-04-23T07:58:52.516Z</time>
      </trkpt>
      <trkpt lat="41.99774" lon="21.39495">
        <ele>306.997965</ele>
        <time>2022-04-23T07:58:55.502Z</time>
      </trkpt>
      <trkpt lat="41.99777" lon="21.39477">
        <ele>307.513523</ele>
        <time>2022-04-23T07:58:58.556Z</time>
      </trkpt>
      <trkpt lat="41.99778" lon="21.39464">
        <ele>307.891803</ele>
        <time>2022-04-23T07:59:00.518Z</time>
      </trkpt>
      <trkpt lat="41.99779" lon="21.39452">
        <ele>308.262998</ele>
        <time>2022-04-23T07:59:02.487Z</time>
      </trkpt>
      <trkpt lat="41.99782" lon="21.39434">
        <ele>308.769797</ele>
        <time>2022-04-23T07:59:05.490Z</time>
      </trkpt>
      <trkpt lat="41.99786" lon="21.39417">
        <ele>309.29914</ele>
        <time>2022-04-23T07:59:08.514Z</time>
      </trkpt>
      <trkpt lat="41.9979" lon="21.394">
        <ele>309.820198</ele>
        <time>2022-04-23T07:59:11.523Z</time>
      </trkpt>
      <trkpt lat="41.99791" lon="21.39382">
        <ele>310.337244</ele>
        <time>2022-04-23T07:59:14.501Z</time>
      </trkpt>
      <trkpt lat="41.99792" lon="21.39369">
        <ele>310.706476</ele>
        <time>2022-04-23T07:59:16.496Z</time>
      </trkpt>
      <trkpt lat="41.99794" lon="21.39357">
        <ele>311.077119</ele>
        <time>2022-04-23T07:59:18.509Z</time>
      </trkpt>
      <trkpt lat="41.99795" lon="21.39344">
        <ele>311.447763</ele>
        <time>2022-04-23T07:59:20.503Z</time>
      </trkpt>
      <trkpt lat="41.99796" lon="21.39332">
        <ele>311.79895</ele>
        <time>2022-04-23T07:59:22.522Z</time>
      </trkpt>
      <trkpt lat="41.99798" lon="21.39319">
        <ele>312.163502</ele>
        <time>2022-04-23T07:59:24.496Z</time>
      </trkpt>
      <trkpt lat="41.998" lon="21.39307">
        <ele>312.521056</ele>
        <time>2022-04-23T07:59:26.550Z</time>
      </trkpt>
      <trkpt lat="41.99803" lon="21.3929">
        <ele>312.493075</ele>
        <time>2022-04-23T07:59:29.503Z</time>
      </trkpt>
      <trkpt lat="41.99806" lon="21.39277">
        <ele>312.373951</ele>
        <time>2022-04-23T07:59:31.529Z</time>
      </trkpt>
      <trkpt lat="41.99808" lon="21.39264">
        <ele>312.262574</ele>
        <time>2022-04-23T07:59:33.503Z</time>
      </trkpt>
      <trkpt lat="41.99809" lon="21.39251">
        <ele>312.146284</ele>
        <time>2022-04-23T07:59:35.500Z</time>
      </trkpt>
      <trkpt lat="41.99812" lon="21.39239">
        <ele>312.034635</ele>
        <time>2022-04-23T07:59:37.500Z</time>
      </trkpt>
      <trkpt lat="41.99814" lon="21.39227">
        <ele>311.926103</ele>
        <time>2022-04-23T07:59:39.534Z</time>
      </trkpt>
      <trkpt lat="41.99816" lon="21.39209">
        <ele>311.767319</ele>
        <time>2022-04-23T07:59:42.543Z</time>
      </trkpt>
      <trkpt lat="41.99818" lon="21.39194">
        <ele>311.625863</ele>
        <time>2022-04-23T07:59:45.513Z</time>
      </trkpt>
      <trkpt lat="41.9982" lon="21.3918">
        <ele>311.502072</ele>
        <time>2022-04-23T07:59:49.520Z</time>
      </trkpt>
      <trkpt lat="41.99823" lon="21.39167">
        <ele>311.384187</ele>
        <time>2022-04-23T07:59:55.514Z</time>
      </trkpt>
      <trkpt lat="41.99826" lon="21.39152">
        <ele>311.249886</ele>
        <time>2022-04-23T08:00:03.504Z</time>
      </trkpt>
      <trkpt lat="41.99828" lon="21.39139">
        <ele>311.127301</ele>
        <time>2022-04-23T08:00:06.516Z</time>
      </trkpt>
      <trkpt lat="41.99831" lon="21.39121">
        <ele>310.970185</ele>
        <time>2022-04-23T08:00:09.510Z</time>
      </trkpt>
      <trkpt lat="41.99831" lon="21.39109">
        <ele>310.860232</ele>
        <time>2022-04-23T08:00:11.491Z</time>
      </trkpt>
      <trkpt lat="41.99833" lon="21.39097">
        <ele>310.753508</ele>
        <time>2022-04-23T08:00:13.495Z</time>
      </trkpt>
      <trkpt lat="41.99836" lon="21.3908">
        <ele>310.593878</ele>
        <time>2022-04-23T08:00:16.514Z</time>
      </trkpt>
      <trkpt lat="41.99839" lon="21.39067">
        <ele>310.477209</ele>
        <time>2022-04-23T08:00:18.507Z</time>
      </trkpt>
      <trkpt lat="41.9984" lon="21.39054">
        <ele>310.317994</ele>
        <time>2022-04-23T08:00:20.542Z</time>
      </trkpt>
      <trkpt lat="41.99842" lon="21.3904">
        <ele>310.15452</ele>
        <time>2022-04-23T08:00:22.516Z</time>
      </trkpt>
      <trkpt lat="41.99843" lon="21.39026">
        <ele>309.984883</ele>
        <time>2022-04-23T08:00:24.504Z</time>
      </trkpt>
      <trkpt lat="41.99845" lon="21.39013">
        <ele>309.818305</ele>
        <time>2022-04-23T08:00:26.545Z</time>
      </trkpt>
      <trkpt lat="41.99846" lon="21.39">
        <ele>309.660528</ele>
        <time>2022-04-23T08:00:28.523Z</time>
      </trkpt>
      <trkpt lat="41.99847" lon="21.38987">
        <ele>309.511951</ele>
        <time>2022-04-23T08:00:30.512Z</time>
      </trkpt>
      <trkpt lat="41.99848" lon="21.38975">
        <ele>309.362365</ele>
        <time>2022-04-23T08:00:32.505Z</time>
      </trkpt>
      <trkpt lat="41.99849" lon="21.38959">
        <ele>309.166341</ele>
        <time>2022-04-23T08:00:35.508Z</time>
      </trkpt>
      <trkpt lat="41.99848" lon="21.38944">
        <ele>308.983637</ele>
        <time>2022-04-23T08:00:38.504Z</time>
      </trkpt>
      <trkpt lat="41.99847" lon="21.38931">
        <ele>308.832265</ele>
        <time>2022-04-23T08:00:42.540Z</time>
      </trkpt>
      <trkpt lat="41.99848" lon="21.38915">
        <ele>308.64314</ele>
        <time>2022-04-23T08:01:33.549Z</time>
      </trkpt>
      <trkpt lat="41.99847" lon="21.38899">
        <ele>308.452282</ele>
        <time>2022-04-23T08:01:37.524Z</time>
      </trkpt>
      <trkpt lat="41.99847" lon="21.38883">
        <ele>308.255571</ele>
        <time>2022-04-23T08:01:40.510Z</time>
      </trkpt>
      <trkpt lat="41.99847" lon="21.38868">
        <ele>308.080288</ele>
        <time>2022-04-23T08:01:43.522Z</time>
      </trkpt>
      <trkpt lat="41.99848" lon="21.38856">
        <ele>307.931357</ele>
        <time>2022-04-23T08:01:45.505Z</time>
      </trkpt>
      <trkpt lat="41.9985" lon="21.38839">
        <ele>307.726828</ele>
        <time>2022-04-23T08:01:48.542Z</time>
      </trkpt>
      <trkpt lat="41.99851" lon="21.38822">
        <ele>307.614583</ele>
        <time>2022-04-23T08:01:51.517Z</time>
      </trkpt>
      <trkpt lat="41.99852" lon="21.38806">
        <ele>307.714152</ele>
        <time>2022-04-23T08:01:54.516Z</time>
      </trkpt>
      <trkpt lat="41.99854" lon="21.3879">
        <ele>307.813721</ele>
        <time>2022-04-23T08:01:57.534Z</time>
      </trkpt>
      <trkpt lat="41.99856" lon="21.38775">
        <ele>307.910682</ele>
        <time>2022-04-23T08:02:00.514Z</time>
      </trkpt>
      <trkpt lat="41.99859" lon="21.38759">
        <ele>308.009751</ele>
        <time>2022-04-23T08:02:03.521Z</time>
      </trkpt>
      <trkpt lat="41.99862" lon="21.38743">
        <ele>308.110284</ele>
        <time>2022-04-23T08:02:06.553Z</time>
      </trkpt>
      <trkpt lat="41.99865" lon="21.38728">
        <ele>308.207132</ele>
        <time>2022-04-23T08:02:09.514Z</time>
      </trkpt>
      <trkpt lat="41.99868" lon="21.38712">
        <ele>308.30548</ele>
        <time>2022-04-23T08:02:12.534Z</time>
      </trkpt>
      <trkpt lat="41.99871" lon="21.38697">
        <ele>308.400691</ele>
        <time>2022-04-23T08:02:15.502Z</time>
      </trkpt>
      <trkpt lat="41.99873" lon="21.38683">
        <ele>308.487441</ele>
        <time>2022-04-23T08:02:18.508Z</time>
      </trkpt>
      <trkpt lat="41.99875" lon="21.38668">
        <ele>308.579915</ele>
        <time>2022-04-23T08:02:21.505Z</time>
      </trkpt>
      <trkpt lat="41.99878" lon="21.38653">
        <ele>308.676314</ele>
        <time>2022-04-23T08:02:24.513Z</time>
      </trkpt>
      <trkpt lat="41.99882" lon="21.38638">
        <ele>308.770973</ele>
        <time>2022-04-23T08:02:27.502Z</time>
      </trkpt>
      <trkpt lat="41.99884" lon="21.38623">
        <ele>308.865364</ele>
        <time>2022-04-23T08:02:30.510Z</time>
      </trkpt>
      <trkpt lat="41.99887" lon="21.38608">
        <ele>308.959205</ele>
        <time>2022-04-23T08:02:33.520Z</time>
      </trkpt>
      <trkpt lat="41.99889" lon="21.38593">
        <ele>309.054513</ele>
        <time>2022-04-23T08:02:36.514Z</time>
      </trkpt>
      <trkpt lat="41.99891" lon="21.38578">
        <ele>309.341714</ele>
        <time>2022-04-23T08:02:39.505Z</time>
      </trkpt>
      <trkpt lat="41.99894" lon="21.38563">
        <ele>309.669087</ele>
        <time>2022-04-23T08:02:42.513Z</time>
      </trkpt>
      <trkpt lat="41.99897" lon="21.38547">
        <ele>309.999121</ele>
        <time>2022-04-23T08:02:45.497Z</time>
      </trkpt>
      <trkpt lat="41.999" lon="21.38532">
        <ele>310.330728</ele>
        <time>2022-04-23T08:02:48.502Z</time>
      </trkpt>
      <trkpt lat="41.99903" lon="21.38517">
        <ele>310.644022</ele>
        <time>2022-04-23T08:02:51.548Z</time>
      </trkpt>
      <trkpt lat="41.99906" lon="21.38503">
        <ele>310.943495</ele>
        <time>2022-04-23T08:02:54.516Z</time>
      </trkpt>
      <trkpt lat="41.99909" lon="21.38489">
        <ele>311.258433</ele>
        <time>2022-04-23T08:02:57.516Z</time>
      </trkpt>
      <trkpt lat="41.99912" lon="21.38473">
        <ele>311.601186</ele>
        <time>2022-04-23T08:03:00.514Z</time>
      </trkpt>
      <trkpt lat="41.99914" lon="21.38457">
        <ele>311.938042</ele>
        <time>2022-04-23T08:03:03.509Z</time>
      </trkpt>
      <trkpt lat="41.99916" lon="21.3844">
        <ele>312.276734</ele>
        <time>2022-04-23T08:03:06.491Z</time>
      </trkpt>
      <trkpt lat="41.99918" lon="21.38425">
        <ele>312.602714</ele>
        <time>2022-04-23T08:03:09.518Z</time>
      </trkpt>
      <trkpt lat="41.99921" lon="21.38411">
        <ele>312.906163</ele>
        <time>2022-04-23T08:03:12.498Z</time>
      </trkpt>
      <trkpt lat="41.99924" lon="21.38396">
        <ele>313.221465</ele>
        <time>2022-04-23T08:03:15.505Z</time>
      </trkpt>
      <trkpt lat="41.99926" lon="21.38382">
        <ele>313.524059</ele>
        <time>2022-04-23T08:03:18.502Z</time>
      </trkpt>
      <trkpt lat="41.99928" lon="21.38367">
        <ele>313.839496</ele>
        <time>2022-04-23T08:03:21.509Z</time>
      </trkpt>
      <trkpt lat="41.99932" lon="21.3835">
        <ele>314.284669</ele>
        <time>2022-04-23T08:03:24.570Z</time>
      </trkpt>
      <trkpt lat="41.99935" lon="21.38334">
        <ele>314.907525</ele>
        <time>2022-04-23T08:03:27.514Z</time>
      </trkpt>
      <trkpt lat="41.99936" lon="21.38318">
        <ele>315.527091</ele>
        <time>2022-04-23T08:03:30.506Z</time>
      </trkpt>
      <trkpt lat="41.99938" lon="21.38302">
        <ele>316.116764</ele>
        <time>2022-04-23T08:03:33.501Z</time>
      </trkpt>
      <trkpt lat="41.9994" lon="21.38289">
        <ele>316.613081</ele>
        <time>2022-04-23T08:03:36.516Z</time>
      </trkpt>
      <trkpt lat="41.99943" lon="21.38277">
        <ele>317.10322</ele>
        <time>2022-04-23T08:03:39.487Z</time>
      </trkpt>
      <trkpt lat="41.99945" lon="21.38264">
        <ele>317.597501</ele>
        <time>2022-04-23T08:03:42.518Z</time>
      </trkpt>
      <trkpt lat="41.99947" lon="21.38251">
        <ele>318.096147</ele>
        <time>2022-04-23T08:03:45.508Z</time>
      </trkpt>
      <trkpt lat="41.9995" lon="21.38236">
        <ele>318.65557</ele>
        <time>2022-04-23T08:03:48.500Z</time>
      </trkpt>
      <trkpt lat="41.99953" lon="21.38222">
        <ele>319.211294</ele>
        <time>2022-04-23T08:03:51.526Z</time>
      </trkpt>
      <trkpt lat="41.99956" lon="21.38208">
        <ele>319.742728</ele>
        <time>2022-04-23T08:03:54.496Z</time>
      </trkpt>
      <trkpt lat="41.99958" lon="21.38195">
        <ele>320.242711</ele>
        <time>2022-04-23T08:03:57.514Z</time>
      </trkpt>
      <trkpt lat="41.99961" lon="21.38181">
        <ele>320.775089</ele>
        <time>2022-04-23T08:04:00.500Z</time>
      </trkpt>
      <trkpt lat="41.99962" lon="21.38168">
        <ele>321.254833</ele>
        <time>2022-04-23T08:04:03.506Z</time>
      </trkpt>
      <trkpt lat="41.99964" lon="21.38155">
        <ele>321.757007</ele>
        <time>2022-04-23T08:04:06.519Z</time>
      </trkpt>
      <trkpt lat="41.99966" lon="21.38143">
        <ele>322.241243</ele>
        <time>2022-04-23T08:04:09.515Z</time>
      </trkpt>
      <trkpt lat="41.99968" lon="21.3813">
        <ele>322.720479</ele>
        <time>2022-04-23T08:04:12.492Z</time>
      </trkpt>
      <trkpt lat="41.99969" lon="21.38117">
        <ele>323.058439</ele>
        <time>2022-04-23T08:04:16.515Z</time>
      </trkpt>
      <trkpt lat="41.99974" lon="21.38104">
        <ele>322.814279</ele>
        <time>2022-04-23T08:04:22.546Z</time>
      </trkpt>
      <trkpt lat="41.99979" lon="21.3809">
        <ele>322.57491</ele>
        <time>2022-04-23T08:04:25.530Z</time>
      </trkpt>
      <trkpt lat="41.99982" lon="21.38077">
        <ele>322.343935</ele>
        <time>2022-04-23T08:04:28.515Z</time>
      </trkpt>
      <trkpt lat="41.99986" lon="21.38064">
        <ele>322.116638</ele>
        <time>2022-04-23T08:04:31.515Z</time>
      </trkpt>
      <trkpt lat="41.99989" lon="21.3805">
        <ele>321.886654</ele>
        <time>2022-04-23T08:04:34.506Z</time>
      </trkpt>
      <trkpt lat="41.99992" lon="21.38035">
        <ele>321.635491</ele>
        <time>2022-04-23T08:04:37.518Z</time>
      </trkpt>
      <trkpt lat="41.99995" lon="21.38021">
        <ele>321.394011</ele>
        <time>2022-04-23T08:04:40.519Z</time>
      </trkpt>
      <trkpt lat="41.99997" lon="21.38008">
        <ele>321.184415</ele>
        <time>2022-04-23T08:04:43.515Z</time>
      </trkpt>
      <trkpt lat="42" lon="21.37996">
        <ele>320.986505</ele>
        <time>2022-04-23T08:04:46.503Z</time>
      </trkpt>
      <trkpt lat="42.00004" lon="21.37983">
        <ele>320.754724</ele>
        <time>2022-04-23T08:04:49.534Z</time>
      </trkpt>
      <trkpt lat="42.00008" lon="21.37969">
        <ele>320.511682</ele>
        <time>2022-04-23T08:04:52.509Z</time>
      </trkpt>
      <trkpt lat="42.00013" lon="21.37954">
        <ele>320.250521</ele>
        <time>2022-04-23T08:04:55.513Z</time>
      </trkpt>
      <trkpt lat="42.00018" lon="21.37939">
        <ele>319.983669</ele>
        <time>2022-04-23T08:04:58.510Z</time>
      </trkpt>
      <trkpt lat="42.00025" lon="21.37925">
        <ele>319.713486</ele>
        <time>2022-04-23T08:05:01.497Z</time>
      </trkpt>
      <trkpt lat="42.00031" lon="21.37912">
        <ele>319.455488</ele>
        <time>2022-04-23T08:05:04.520Z</time>
      </trkpt>
      <trkpt lat="42.00039" lon="21.37899">
        <ele>319.189781</ele>
        <time>2022-04-23T08:05:07.516Z</time>
      </trkpt>
      <trkpt lat="42.00046" lon="21.37886">
        <ele>318.958316</ele>
        <time>2022-04-23T08:05:10.520Z</time>
      </trkpt>
      <trkpt lat="42.00054" lon="21.37872">
        <ele>318.698877</ele>
        <time>2022-04-23T08:05:13.604Z</time>
      </trkpt>
      <trkpt lat="42.0006" lon="21.37862">
        <ele>318.518594</ele>
        <time>2022-04-23T08:05:15.505Z</time>
      </trkpt>
      <trkpt lat="42.00066" lon="21.37852">
        <ele>318.332439</ele>
        <time>2022-04-23T08:05:17.520Z</time>
      </trkpt>
      <trkpt lat="42.00072" lon="21.37841">
        <ele>318.139316</ele>
        <time>2022-04-23T08:05:19.515Z</time>
      </trkpt>
      <trkpt lat="42.00078" lon="21.37831">
        <ele>317.947131</ele>
        <time>2022-04-23T08:05:21.514Z</time>
      </trkpt>
      <trkpt lat="42.00084" lon="21.37821">
        <ele>317.757555</ele>
        <time>2022-04-23T08:05:23.512Z</time>
      </trkpt>
      <trkpt lat="42.0009" lon="21.37811">
        <ele>317.569056</ele>
        <time>2022-04-23T08:05:25.524Z</time>
      </trkpt>
      <trkpt lat="42.00096" lon="21.37801">
        <ele>317.388651</ele>
        <time>2022-04-23T08:05:27.515Z</time>
      </trkpt>
      <trkpt lat="42.00102" lon="21.37792">
        <ele>317.209494</ele>
        <time>2022-04-23T08:05:29.513Z</time>
      </trkpt>
      <trkpt lat="42.00109" lon="21.37783">
        <ele>317.024901</ele>
        <time>2022-04-23T08:05:31.555Z</time>
      </trkpt>
      <trkpt lat="42.00114" lon="21.37774">
        <ele>316.849909</ele>
        <time>2022-04-23T08:05:33.513Z</time>
      </trkpt>
      <trkpt lat="42.00123" lon="21.3776">
        <ele>316.588785</ele>
        <time>2022-04-23T08:05:36.509Z</time>
      </trkpt>
      <trkpt lat="42.00129" lon="21.37751">
        <ele>316.41142</ele>
        <time>2022-04-23T08:05:38.514Z</time>
      </trkpt>
      <trkpt lat="42.00136" lon="21.37742">
        <ele>316.22987</ele>
        <time>2022-04-23T08:05:40.501Z</time>
      </trkpt>
      <trkpt lat="42.00142" lon="21.37733">
        <ele>316.053591</ele>
        <time>2022-04-23T08:05:42.513Z</time>
      </trkpt>
      <trkpt lat="42.00148" lon="21.37723">
        <ele>315.863767</ele>
        <time>2022-04-23T08:05:44.514Z</time>
      </trkpt>
      <trkpt lat="42.00154" lon="21.37713">
        <ele>315.686922</ele>
        <time>2022-04-23T08:05:46.524Z</time>
      </trkpt>
      <trkpt lat="42.0016" lon="21.37703">
        <ele>315.808288</ele>
        <time>2022-04-23T08:05:48.514Z</time>
      </trkpt>
      <trkpt lat="42.00166" lon="21.37694">
        <ele>315.931247</ele>
        <time>2022-04-23T08:05:50.507Z</time>
      </trkpt>
      <trkpt lat="42.00172" lon="21.37684">
        <ele>316.049991</ele>
        <time>2022-04-23T08:05:52.497Z</time>
      </trkpt>
      <trkpt lat="42.00178" lon="21.37675">
        <ele>316.168811</ele>
        <time>2022-04-23T08:05:54.493Z</time>
      </trkpt>
      <trkpt lat="42.00183" lon="21.37666">
        <ele>316.286737</ele>
        <time>2022-04-23T08:05:56.503Z</time>
      </trkpt>
      <trkpt lat="42.00189" lon="21.37655">
        <ele>316.411629</ele>
        <time>2022-04-23T08:05:58.520Z</time>
      </trkpt>
      <trkpt lat="42.00195" lon="21.37645">
        <ele>316.531854</ele>
        <time>2022-04-23T08:06:00.501Z</time>
      </trkpt>
      <trkpt lat="42.00201" lon="21.37635">
        <ele>316.657673</ele>
        <time>2022-04-23T08:06:02.515Z</time>
      </trkpt>
      <trkpt lat="42.00208" lon="21.37626">
        <ele>316.786405</ele>
        <time>2022-04-23T08:06:04.513Z</time>
      </trkpt>
      <trkpt lat="42.00214" lon="21.37617">
        <ele>316.911466</ele>
        <time>2022-04-23T08:06:06.521Z</time>
      </trkpt>
      <trkpt lat="42.00221" lon="21.37608">
        <ele>317.03493</ele>
        <time>2022-04-23T08:06:08.532Z</time>
      </trkpt>
      <trkpt lat="42.00228" lon="21.37598">
        <ele>317.167574</ele>
        <time>2022-04-23T08:06:10.523Z</time>
      </trkpt>
      <trkpt lat="42.00235" lon="21.37588">
        <ele>317.302782</ele>
        <time>2022-04-23T08:06:12.510Z</time>
      </trkpt>
      <trkpt lat="42.00242" lon="21.37577">
        <ele>317.443368</ele>
        <time>2022-04-23T08:06:14.488Z</time>
      </trkpt>
      <trkpt lat="42.00249" lon="21.37565">
        <ele>317.591694</ele>
        <time>2022-04-23T08:06:16.531Z</time>
      </trkpt>
      <trkpt lat="42.00256" lon="21.37552">
        <ele>317.746249</ele>
        <time>2022-04-23T08:06:18.496Z</time>
      </trkpt>
      <trkpt lat="42.00263" lon="21.3754">
        <ele>317.890699</ele>
        <time>2022-04-23T08:06:20.523Z</time>
      </trkpt>
      <trkpt lat="42.00269" lon="21.3753">
        <ele>318.02108</ele>
        <time>2022-04-23T08:06:22.493Z</time>
      </trkpt>
      <trkpt lat="42.00275" lon="21.37519">
        <ele>318.181254</ele>
        <time>2022-04-23T08:06:24.517Z</time>
      </trkpt>
      <trkpt lat="42.00282" lon="21.37509">
        <ele>318.338582</ele>
        <time>2022-04-23T08:06:26.494Z</time>
      </trkpt>
      <trkpt lat="42.00289" lon="21.375">
        <ele>318.503315</ele>
        <time>2022-04-23T08:06:28.514Z</time>
      </trkpt>
      <trkpt lat="42.00296" lon="21.3749">
        <ele>318.667103</ele>
        <time>2022-04-23T08:06:30.511Z</time>
      </trkpt>
      <trkpt lat="42.00303" lon="21.3748">
        <ele>318.833745</ele>
        <time>2022-04-23T08:06:32.501Z</time>
      </trkpt>
      <trkpt lat="42.0031" lon="21.37471">
        <ele>318.99214</ele>
        <time>2022-04-23T08:06:34.503Z</time>
      </trkpt>
      <trkpt lat="42.00317" lon="21.37461">
        <ele>319.155008</ele>
        <time>2022-04-23T08:06:36.525Z</time>
      </trkpt>
      <trkpt lat="42.00323" lon="21.3745">
        <ele>319.320748</ele>
        <time>2022-04-23T08:06:38.542Z</time>
      </trkpt>
      <trkpt lat="42.00329" lon="21.37437">
        <ele>319.496234</ele>
        <time>2022-04-23T08:06:40.513Z</time>
      </trkpt>
      <trkpt lat="42.00334" lon="21.37425">
        <ele>319.674344</ele>
        <time>2022-04-23T08:06:42.506Z</time>
      </trkpt>
      <trkpt lat="42.0034" lon="21.37413">
        <ele>319.848155</ele>
        <time>2022-04-23T08:06:44.513Z</time>
      </trkpt>
      <trkpt lat="42.00348" lon="21.37402">
        <ele>320.031058</ele>
        <time>2022-04-23T08:06:46.523Z</time>
      </trkpt>
      <trkpt lat="42.00356" lon="21.37391">
        <ele>320.211653</ele>
        <time>2022-04-23T08:06:48.521Z</time>
      </trkpt>
      <trkpt lat="42.00363" lon="21.37381">
        <ele>320.379427</ele>
        <time>2022-04-23T08:06:50.499Z</time>
      </trkpt>
      <trkpt lat="42.0037" lon="21.37371">
        <ele>320.547141</ele>
        <time>2022-04-23T08:06:52.497Z</time>
      </trkpt>
      <trkpt lat="42.00377" lon="21.3736">
        <ele>320.716658</ele>
        <time>2022-04-23T08:06:54.546Z</time>
      </trkpt>
      <trkpt lat="42.00384" lon="21.37351">
        <ele>320.870216</ele>
        <time>2022-04-23T08:06:56.536Z</time>
      </trkpt>
      <trkpt lat="42.00391" lon="21.37343">
        <ele>321.137879</ele>
        <time>2022-04-23T08:06:58.508Z</time>
      </trkpt>
      <trkpt lat="42.00397" lon="21.37334">
        <ele>321.512216</ele>
        <time>2022-04-23T08:07:00.489Z</time>
      </trkpt>
      <trkpt lat="42.00404" lon="21.37325">
        <ele>321.885799</ele>
        <time>2022-04-23T08:07:02.522Z</time>
      </trkpt>
      <trkpt lat="42.0041" lon="21.37316">
        <ele>322.260311</ele>
        <time>2022-04-23T08:07:04.510Z</time>
      </trkpt>
      <trkpt lat="42.00416" lon="21.37307">
        <ele>322.635798</ele>
        <time>2022-04-23T08:07:06.513Z</time>
      </trkpt>
      <trkpt lat="42.00421" lon="21.37297">
        <ele>323.013117</ele>
        <time>2022-04-23T08:07:08.506Z</time>
      </trkpt>
      <trkpt lat="42.00426" lon="21.37286">
        <ele>323.395916</ele>
        <time>2022-04-23T08:07:10.496Z</time>
      </trkpt>
      <trkpt lat="42.0043" lon="21.37275">
        <ele>323.79064</ele>
        <time>2022-04-23T08:07:12.499Z</time>
      </trkpt>
      <trkpt lat="42.00435" lon="21.37264">
        <ele>324.189359</ele>
        <time>2022-04-23T08:07:14.503Z</time>
      </trkpt>
      <trkpt lat="42.0044" lon="21.37253">
        <ele>324.56736</ele>
        <time>2022-04-23T08:07:16.497Z</time>
      </trkpt>
      <trkpt lat="42.00447" lon="21.37243">
        <ele>324.965498</ele>
        <time>2022-04-23T08:07:18.511Z</time>
      </trkpt>
      <trkpt lat="42.00452" lon="21.37233">
        <ele>325.367378</ele>
        <time>2022-04-23T08:07:20.599Z</time>
      </trkpt>
      <trkpt lat="42.00458" lon="21.37222">
        <ele>325.752209</ele>
        <time>2022-04-23T08:07:22.508Z</time>
      </trkpt>
      <trkpt lat="42.00463" lon="21.37212">
        <ele>326.136789</ele>
        <time>2022-04-23T08:07:24.544Z</time>
      </trkpt>
      <trkpt lat="42.0047" lon="21.37203">
        <ele>326.516193</ele>
        <time>2022-04-23T08:07:26.505Z</time>
      </trkpt>
      <trkpt lat="42.00476" lon="21.37194">
        <ele>326.896661</ele>
        <time>2022-04-23T08:07:28.506Z</time>
      </trkpt>
      <trkpt lat="42.00482" lon="21.37184">
        <ele>327.281801</ele>
        <time>2022-04-23T08:07:30.492Z</time>
      </trkpt>
      <trkpt lat="42.0049" lon="21.37177">
        <ele>327.675344</ele>
        <time>2022-04-23T08:07:32.501Z</time>
      </trkpt>
      <trkpt lat="42.00497" lon="21.3717">
        <ele>328.05368</ele>
        <time>2022-04-23T08:07:34.510Z</time>
      </trkpt>
      <trkpt lat="42.00504" lon="21.3716">
        <ele>328.417465</ele>
        <time>2022-04-23T08:07:36.523Z</time>
      </trkpt>
      <trkpt lat="42.0051" lon="21.3715">
        <ele>328.689998</ele>
        <time>2022-04-23T08:07:38.502Z</time>
      </trkpt>
      <trkpt lat="42.00517" lon="21.3714">
        <ele>328.971438</ele>
        <time>2022-04-23T08:07:40.516Z</time>
      </trkpt>
      <trkpt lat="42.00523" lon="21.3713">
        <ele>329.235649</ele>
        <time>2022-04-23T08:07:42.516Z</time>
      </trkpt>
      <trkpt lat="42.00533" lon="21.37118">
        <ele>329.610058</ele>
        <time>2022-04-23T08:07:45.506Z</time>
      </trkpt>
      <trkpt lat="42.00542" lon="21.37104">
        <ele>329.995709</ele>
        <time>2022-04-23T08:07:48.513Z</time>
      </trkpt>
      <trkpt lat="42.00548" lon="21.37093">
        <ele>330.257995</ele>
        <time>2022-04-23T08:07:50.509Z</time>
      </trkpt>
      <trkpt lat="42.00553" lon="21.37082">
        <ele>330.530237</ele>
        <time>2022-04-23T08:07:52.505Z</time>
      </trkpt>
      <trkpt lat="42.00558" lon="21.3707">
        <ele>330.816728</ele>
        <time>2022-04-23T08:07:54.505Z</time>
      </trkpt>
      <trkpt lat="42.00564" lon="21.37059">
        <ele>331.100326</ele>
        <time>2022-04-23T08:07:56.522Z</time>
      </trkpt>
      <trkpt lat="42.00569" lon="21.37048">
        <ele>331.371574</ele>
        <time>2022-04-23T08:07:58.513Z</time>
      </trkpt>
      <trkpt lat="42.00578" lon="21.37035">
        <ele>331.730155</ele>
        <time>2022-04-23T08:08:01.518Z</time>
      </trkpt>
      <trkpt lat="42.00587" lon="21.37022">
        <ele>332.102365</ele>
        <time>2022-04-23T08:08:04.508Z</time>
      </trkpt>
      <trkpt lat="42.00593" lon="21.37013">
        <ele>332.35174</ele>
        <time>2022-04-23T08:08:06.495Z</time>
      </trkpt>
      <trkpt lat="42.00602" lon="21.37">
        <ele>332.718274</ele>
        <time>2022-04-23T08:08:09.513Z</time>
      </trkpt>
      <trkpt lat="42.0061" lon="21.36987">
        <ele>333.071491</ele>
        <time>2022-04-23T08:08:12.529Z</time>
      </trkpt>
      <trkpt lat="42.00619" lon="21.36973">
        <ele>333.159899</ele>
        <time>2022-04-23T08:08:15.525Z</time>
      </trkpt>
      <trkpt lat="42.00624" lon="21.36964">
        <ele>332.734572</ele>
        <time>2022-04-23T08:08:17.505Z</time>
      </trkpt>
      <trkpt lat="42.00632" lon="21.36949">
        <ele>332.10593</ele>
        <time>2022-04-23T08:08:20.508Z</time>
      </trkpt>
      <trkpt lat="42.00636" lon="21.36938">
        <ele>331.672862</ele>
        <time>2022-04-23T08:08:22.529Z</time>
      </trkpt>
      <trkpt lat="42.00641" lon="21.36928">
        <ele>331.246212</ele>
        <time>2022-04-23T08:08:24.553Z</time>
      </trkpt>
      <trkpt lat="42.00648" lon="21.36912">
        <ele>330.612702</ele>
        <time>2022-04-23T08:08:27.504Z</time>
      </trkpt>
      <trkpt lat="42.00652" lon="21.36902">
        <ele>330.181249</ele>
        <time>2022-04-23T08:08:29.514Z</time>
      </trkpt>
      <trkpt lat="42.00659" lon="21.36887">
        <ele>329.576581</ele>
        <time>2022-04-23T08:08:32.512Z</time>
      </trkpt>
      <trkpt lat="42.00665" lon="21.36872">
        <ele>328.961078</ele>
        <time>2022-04-23T08:08:35.555Z</time>
      </trkpt>
      <trkpt lat="42.0067" lon="21.36856">
        <ele>328.351465</ele>
        <time>2022-04-23T08:08:38.498Z</time>
      </trkpt>
      <trkpt lat="42.00675" lon="21.36841">
        <ele>327.780946</ele>
        <time>2022-04-23T08:08:41.558Z</time>
      </trkpt>
      <trkpt lat="42.0068" lon="21.36824">
        <ele>327.169075</ele>
        <time>2022-04-23T08:08:44.498Z</time>
      </trkpt>
      <trkpt lat="42.00685" lon="21.3681">
        <ele>326.593631</ele>
        <time>2022-04-23T08:08:47.528Z</time>
      </trkpt>
      <trkpt lat="42.0069" lon="21.36798">
        <ele>326.115219</ele>
        <time>2022-04-23T08:08:50.509Z</time>
      </trkpt>
      <trkpt lat="42.00694" lon="21.36784">
        <ele>325.59868</ele>
        <time>2022-04-23T08:08:55.530Z</time>
      </trkpt>
      <trkpt lat="42.00712" lon="21.36754">
        <ele>324.396636</ele>
        <time>2022-04-23T08:09:34.489Z</time>
      </trkpt>
      <trkpt lat="42.00721" lon="21.36746">
        <ele>323.984581</ele>
        <time>2022-04-23T08:09:37.544Z</time>
      </trkpt>
      <trkpt lat="42.00727" lon="21.36733">
        <ele>323.57947</ele>
        <time>2022-04-23T08:09:40.522Z</time>
      </trkpt>
      <trkpt lat="42.00726" lon="21.36717">
        <ele>323.151764</ele>
        <time>2022-04-23T08:09:43.507Z</time>
      </trkpt>
      <trkpt lat="42.00726" lon="21.36701">
        <ele>322.719426</ele>
        <time>2022-04-23T08:09:46.492Z</time>
      </trkpt>
      <trkpt lat="42.00726" lon="21.36688">
        <ele>322.378579</ele>
        <time>2022-04-23T08:09:48.609Z</time>
      </trkpt>
      <trkpt lat="42.00726" lon="21.36676">
        <ele>322.04829</ele>
        <time>2022-04-23T08:09:50.519Z</time>
      </trkpt>
      <trkpt lat="42.00726" lon="21.36658">
        <ele>321.573239</ele>
        <time>2022-04-23T08:09:53.535Z</time>
      </trkpt>
      <trkpt lat="42.00727" lon="21.36642">
        <ele>321.137724</ele>
        <time>2022-04-23T08:09:56.509Z</time>
      </trkpt>
      <trkpt lat="42.00728" lon="21.36626">
        <ele>320.701984</ele>
        <time>2022-04-23T08:09:59.516Z</time>
      </trkpt>
      <trkpt lat="42.00728" lon="21.3661">
        <ele>320.274278</ele>
        <time>2022-04-23T08:10:02.506Z</time>
      </trkpt>
      <trkpt lat="42.00729" lon="21.36596">
        <ele>319.908635</ele>
        <time>2022-04-23T08:10:05.517Z</time>
      </trkpt>
      <trkpt lat="42.00731" lon="21.36584">
        <ele>319.564688</ele>
        <time>2022-04-23T08:10:08.511Z</time>
      </trkpt>
      <trkpt lat="42.00736" lon="21.3657">
        <ele>319.164655</ele>
        <time>2022-04-23T08:10:11.566Z</time>
      </trkpt>
      <trkpt lat="42.00739" lon="21.36555">
        <ele>318.752175</ele>
        <time>2022-04-23T08:10:14.505Z</time>
      </trkpt>
      <trkpt lat="42.00736" lon="21.36543">
        <ele>318.395959</ele>
        <time>2022-04-23T08:10:16.512Z</time>
      </trkpt>
      <trkpt lat="42.00731" lon="21.36531">
        <ele>318.384662</ele>
        <time>2022-04-23T08:10:18.533Z</time>
      </trkpt>
      <trkpt lat="42.00725" lon="21.36517">
        <ele>318.440489</ele>
        <time>2022-04-23T08:10:21.509Z</time>
      </trkpt>
      <trkpt lat="42.00724" lon="21.36502">
        <ele>318.494064</ele>
        <time>2022-04-23T08:10:24.504Z</time>
      </trkpt>
      <trkpt lat="42.00722" lon="21.36487">
        <ele>318.547725</ele>
        <time>2022-04-23T08:10:27.507Z</time>
      </trkpt>
      <trkpt lat="42.0072" lon="21.36473">
        <ele>318.600378</ele>
        <time>2022-04-23T08:10:30.503Z</time>
      </trkpt>
      <trkpt lat="42.00715" lon="21.36458">
        <ele>318.65636</ele>
        <time>2022-04-23T08:10:33.511Z</time>
      </trkpt>
      <trkpt lat="42.0071" lon="21.36444">
        <ele>318.71117</ele>
        <time>2022-04-23T08:10:36.547Z</time>
      </trkpt>
      <trkpt lat="42.00705" lon="21.36427">
        <ele>318.775014</ele>
        <time>2022-04-23T08:10:39.518Z</time>
      </trkpt>
      <trkpt lat="42.007" lon="21.36416">
        <ele>318.82</ele>
        <time>2022-04-23T08:10:41.518Z</time>
      </trkpt>
      <trkpt lat="42.00696" lon="21.36404">
        <ele>318.867665</ele>
        <time>2022-04-23T08:10:43.507Z</time>
      </trkpt>
      <trkpt lat="42.00692" lon="21.36391">
        <ele>318.916053</ele>
        <time>2022-04-23T08:10:45.527Z</time>
      </trkpt>
      <trkpt lat="42.00689" lon="21.36378">
        <ele>318.963941</ele>
        <time>2022-04-23T08:10:47.545Z</time>
      </trkpt>
      <trkpt lat="42.00687" lon="21.36365">
        <ele>319.010593</ele>
        <time>2022-04-23T08:10:49.507Z</time>
      </trkpt>
      <trkpt lat="42.00685" lon="21.36353">
        <ele>319.055604</ele>
        <time>2022-04-23T08:10:51.498Z</time>
      </trkpt>
      <trkpt lat="42.00686" lon="21.36341">
        <ele>319.099008</ele>
        <time>2022-04-23T08:10:53.522Z</time>
      </trkpt>
      <trkpt lat="42.00685" lon="21.36324">
        <ele>319.157178</ele>
        <time>2022-04-23T08:10:56.501Z</time>
      </trkpt>
      <trkpt lat="42.00684" lon="21.36309">
        <ele>319.113507</ele>
        <time>2022-04-23T08:10:59.498Z</time>
      </trkpt>
      <trkpt lat="42.00683" lon="21.36293">
        <ele>318.819726</ele>
        <time>2022-04-23T08:11:02.503Z</time>
      </trkpt>
      <trkpt lat="42.00682" lon="21.36277">
        <ele>318.523764</ele>
        <time>2022-04-23T08:11:05.498Z</time>
      </trkpt>
      <trkpt lat="42.00681" lon="21.36261">
        <ele>318.219453</ele>
        <time>2022-04-23T08:11:08.486Z</time>
      </trkpt>
      <trkpt lat="42.00681" lon="21.36246">
        <ele>317.937349</ele>
        <time>2022-04-23T08:11:11.501Z</time>
      </trkpt>
      <trkpt lat="42.00685" lon="21.36232">
        <ele>317.649958</ele>
        <time>2022-04-23T08:11:14.545Z</time>
      </trkpt>
      <trkpt lat="42.00695" lon="21.36221">
        <ele>317.316768</ele>
        <time>2022-04-23T08:11:17.506Z</time>
      </trkpt>
      <trkpt lat="42.00706" lon="21.36216">
        <ele>317.034297</ele>
        <time>2022-04-23T08:11:19.519Z</time>
      </trkpt>
      <trkpt lat="42.00716" lon="21.36214">
        <ele>316.76284</ele>
        <time>2022-04-23T08:11:21.523Z</time>
      </trkpt>
      <trkpt lat="42.00727" lon="21.36211">
        <ele>316.493279</ele>
        <time>2022-04-23T08:11:23.513Z</time>
      </trkpt>
      <trkpt lat="42.00737" lon="21.3621">
        <ele>316.236097</ele>
        <time>2022-04-23T08:11:25.531Z</time>
      </trkpt>
      <trkpt lat="42.00746" lon="21.36208">
        <ele>316.009079</ele>
        <time>2022-04-23T08:11:27.533Z</time>
      </trkpt>
      <trkpt lat="42.00759" lon="21.36207">
        <ele>315.686566</ele>
        <time>2022-04-23T08:11:30.514Z</time>
      </trkpt>
      <trkpt lat="42.00768" lon="21.36205">
        <ele>315.455693</ele>
        <time>2022-04-23T08:11:32.524Z</time>
      </trkpt>
      <trkpt lat="42.0078" lon="21.36202">
        <ele>315.132921</ele>
        <time>2022-04-23T08:11:35.532Z</time>
      </trkpt>
      <trkpt lat="42.00793" lon="21.36199">
        <ele>314.797206</ele>
        <time>2022-04-23T08:11:38.508Z</time>
      </trkpt>
      <trkpt lat="42.00806" lon="21.36196">
        <ele>314.64873</ele>
        <time>2022-04-23T08:11:41.508Z</time>
      </trkpt>
      <trkpt lat="42.00815" lon="21.36192">
        <ele>314.655441</ele>
        <time>2022-04-23T08:11:43.519Z</time>
      </trkpt>
      <trkpt lat="42.00824" lon="21.36188">
        <ele>314.662548</ele>
        <time>2022-04-23T08:11:45.509Z</time>
      </trkpt>
      <trkpt lat="42.00833" lon="21.36183">
        <ele>314.669398</ele>
        <time>2022-04-23T08:11:47.514Z</time>
      </trkpt>
      <trkpt lat="42.00841" lon="21.36177">
        <ele>314.676045</ele>
        <time>2022-04-23T08:11:49.514Z</time>
      </trkpt>
      <trkpt lat="42.00849" lon="21.36171">
        <ele>314.683187</ele>
        <time>2022-04-23T08:11:51.549Z</time>
      </trkpt>
      <trkpt lat="42.00859" lon="21.36166">
        <ele>314.690364</ele>
        <time>2022-04-23T08:11:53.531Z</time>
      </trkpt>
      <trkpt lat="42.00871" lon="21.36161">
        <ele>314.699964</ele>
        <time>2022-04-23T08:11:56.509Z</time>
      </trkpt>
      <trkpt lat="42.00883" lon="21.36157">
        <ele>314.709088</ele>
        <time>2022-04-23T08:11:59.523Z</time>
      </trkpt>
      <trkpt lat="42.00893" lon="21.36156">
        <ele>314.716648</ele>
        <time>2022-04-23T08:12:02.516Z</time>
      </trkpt>
      <trkpt lat="42.00905" lon="21.36153">
        <ele>314.725383</ele>
        <time>2022-04-23T08:12:06.513Z</time>
      </trkpt>
      <trkpt lat="42.00917" lon="21.36151">
        <ele>314.733733</ele>
        <time>2022-04-23T08:12:10.503Z</time>
      </trkpt>
      <trkpt lat="42.00928" lon="21.36149">
        <ele>314.741969</ele>
        <time>2022-04-23T08:12:14.495Z</time>
      </trkpt>
      <trkpt lat="42.0094" lon="21.36148">
        <ele>314.750726</ele>
        <time>2022-04-23T08:12:18.560Z</time>
      </trkpt>
      <trkpt lat="42.00949" lon="21.36149">
        <ele>314.757771</ele>
        <time>2022-04-23T08:12:21.590Z</time>
      </trkpt>
      <trkpt lat="42.00958" lon="21.36145">
        <ele>314.764824</ele>
        <time>2022-04-23T08:12:25.521Z</time>
      </trkpt>
      <trkpt lat="42.00949" lon="21.36139">
        <ele>314.772218</ele>
        <time>2022-04-23T08:12:30.526Z</time>
      </trkpt>
      <trkpt lat="42.00941" lon="21.36142">
        <ele>315.228443</ele>
        <time>2022-04-23T08:12:33.541Z</time>
      </trkpt>
      <trkpt lat="42.00931" lon="21.36143">
        <ele>316.076452</ele>
        <time>2022-04-23T08:12:36.512Z</time>
      </trkpt>
      <trkpt lat="42.00921" lon="21.36145">
        <ele>316.974268</ele>
        <time>2022-04-23T08:12:39.520Z</time>
      </trkpt>
      <trkpt lat="42.00911" lon="21.36147">
        <ele>317.909192</ele>
        <time>2022-04-23T08:12:42.513Z</time>
      </trkpt>
      <trkpt lat="42.00899" lon="21.36151">
        <ele>318.956253</ele>
        <time>2022-04-23T08:12:45.520Z</time>
      </trkpt>
      <trkpt lat="42.00887" lon="21.36152">
        <ele>320.049547</ele>
        <time>2022-04-23T08:12:48.538Z</time>
      </trkpt>
      <trkpt lat="42.0088" lon="21.36142">
        <ele>320.929527</ele>
        <time>2022-04-23T08:12:51.522Z</time>
      </trkpt>
      <trkpt lat="42.0088" lon="21.36129">
        <ele>321.756701</ele>
        <time>2022-04-23T08:12:55.517Z</time>
      </trkpt>
      <trkpt lat="42.0088" lon="21.36116">
        <ele>322.615265</ele>
        <time>2022-04-23T08:13:00.519Z</time>
      </trkpt>
      <trkpt lat="42.00884" lon="21.36105">
        <ele>323.427718</ele>
        <time>2022-04-23T08:13:05.521Z</time>
      </trkpt>
      <trkpt lat="42.00886" lon="21.36091">
        <ele>324.391279</ele>
        <time>2022-04-23T08:13:11.516Z</time>
      </trkpt>
      <trkpt lat="42.00886" lon="21.36078">
        <ele>325.256435</ele>
        <time>2022-04-23T08:13:15.545Z</time>
      </trkpt>
      <trkpt lat="42.00888" lon="21.36063">
        <ele>326.228349</ele>
        <time>2022-04-23T08:13:20.497Z</time>
      </trkpt>
      <trkpt lat="42.00892" lon="21.3605">
        <ele>327.206289</ele>
        <time>2022-04-23T08:13:25.508Z</time>
      </trkpt>
      <trkpt lat="42.00894" lon="21.36037">
        <ele>328.087028</ele>
        <time>2022-04-23T08:13:30.517Z</time>
      </trkpt>
      <trkpt lat="42.00897" lon="21.36023">
        <ele>328.994233</ele>
        <time>2022-04-23T08:13:34.519Z</time>
      </trkpt>
      <trkpt lat="42.009" lon="21.36011">
        <ele>329.836797</ele>
        <time>2022-04-23T08:13:37.505Z</time>
      </trkpt>
      <trkpt lat="42.009" lon="21.35994">
        <ele>330.605956</ele>
        <time>2022-04-23T08:13:40.515Z</time>
      </trkpt>
      <trkpt lat="42.00903" lon="21.3598">
        <ele>329.885039</ele>
        <time>2022-04-23T08:13:43.483Z</time>
      </trkpt>
      <trkpt lat="42.00905" lon="21.35968">
        <ele>329.293696</ele>
        <time>2022-04-23T08:13:46.502Z</time>
      </trkpt>
      <trkpt lat="42.00907" lon="21.35953">
        <ele>328.582076</ele>
        <time>2022-04-23T08:13:50.506Z</time>
      </trkpt>
      <trkpt lat="42.00909" lon="21.35941">
        <ele>328.005379</ele>
        <time>2022-04-23T08:13:53.510Z</time>
      </trkpt>
      <trkpt lat="42.0091" lon="21.35929">
        <ele>327.421922</ele>
        <time>2022-04-23T08:13:57.519Z</time>
      </trkpt>
      <trkpt lat="42.00915" lon="21.35916">
        <ele>326.734904</ele>
        <time>2022-04-23T08:14:03.492Z</time>
      </trkpt>
      <trkpt lat="42.00919" lon="21.35903">
        <ele>326.085709</ele>
        <time>2022-04-23T08:14:07.503Z</time>
      </trkpt>
      <trkpt lat="42.00917" lon="21.3589">
        <ele>325.434658</ele>
        <time>2022-04-23T08:14:10.496Z</time>
      </trkpt>
      <trkpt lat="42.00915" lon="21.35875">
        <ele>324.70703</ele>
        <time>2022-04-23T08:14:13.517Z</time>
      </trkpt>
      <trkpt lat="42.00913" lon="21.35862">
        <ele>324.069253</ele>
        <time>2022-04-23T08:14:16.515Z</time>
      </trkpt>
      <trkpt lat="42.00911" lon="21.35849">
        <ele>323.425451</ele>
        <time>2022-04-23T08:14:19.504Z</time>
      </trkpt>
      <trkpt lat="42.0091" lon="21.35835">
        <ele>322.767581</ele>
        <time>2022-04-23T08:14:22.523Z</time>
      </trkpt>
      <trkpt lat="42.00908" lon="21.3582">
        <ele>322.066873</ele>
        <time>2022-04-23T08:14:25.518Z</time>
      </trkpt>
      <trkpt lat="42.00907" lon="21.35805">
        <ele>321.353624</ele>
        <time>2022-04-23T08:14:28.529Z</time>
      </trkpt>
      <trkpt lat="42.00905" lon="21.3579">
        <ele>320.594445</ele>
        <time>2022-04-23T08:14:31.533Z</time>
      </trkpt>
      <trkpt lat="42.00902" lon="21.35774">
        <ele>319.824535</ele>
        <time>2022-04-23T08:14:34.564Z</time>
      </trkpt>
      <trkpt lat="42.009" lon="21.35759">
        <ele>319.209577</ele>
        <time>2022-04-23T08:14:37.498Z</time>
      </trkpt>
      <trkpt lat="42.00899" lon="21.35743">
        <ele>319.111089</ele>
        <time>2022-04-23T08:14:40.577Z</time>
      </trkpt>
      <trkpt lat="42.00896" lon="21.35728">
        <ele>319.010436</ele>
        <time>2022-04-23T08:14:43.519Z</time>
      </trkpt>
      <trkpt lat="42.00893" lon="21.35712">
        <ele>318.911048</ele>
        <time>2022-04-23T08:14:46.507Z</time>
      </trkpt>
      <trkpt lat="42.00891" lon="21.35696">
        <ele>318.808182</ele>
        <time>2022-04-23T08:14:49.522Z</time>
      </trkpt>
      <trkpt lat="42.00891" lon="21.3568">
        <ele>318.707472</ele>
        <time>2022-04-23T08:14:52.515Z</time>
      </trkpt>
      <trkpt lat="42.00892" lon="21.35663">
        <ele>318.601509</ele>
        <time>2022-04-23T08:14:55.512Z</time>
      </trkpt>
      <trkpt lat="42.00892" lon="21.35646">
        <ele>318.490086</ele>
        <time>2022-04-23T08:14:58.713Z</time>
      </trkpt>
      <trkpt lat="42.00892" lon="21.35628">
        <ele>318.378045</ele>
        <time>2022-04-23T08:15:01.521Z</time>
      </trkpt>
      <trkpt lat="42.00892" lon="21.35615">
        <ele>318.297437</ele>
        <time>2022-04-23T08:15:03.503Z</time>
      </trkpt>
      <trkpt lat="42.00893" lon="21.35603">
        <ele>318.220894</ele>
        <time>2022-04-23T08:15:05.501Z</time>
      </trkpt>
      <trkpt lat="42.00894" lon="21.35586">
        <ele>318.111562</ele>
        <time>2022-04-23T08:15:08.489Z</time>
      </trkpt>
      <trkpt lat="42.00894" lon="21.35574">
        <ele>318.0354</ele>
        <time>2022-04-23T08:15:10.530Z</time>
      </trkpt>
      <trkpt lat="42.00894" lon="21.35557">
        <ele>317.927766</ele>
        <time>2022-04-23T08:15:13.493Z</time>
      </trkpt>
      <trkpt lat="42.00894" lon="21.35539">
        <ele>317.816342</ele>
        <time>2022-04-23T08:15:16.491Z</time>
      </trkpt>
      <trkpt lat="42.00895" lon="21.35521">
        <ele>317.708036</ele>
        <time>2022-04-23T08:15:19.499Z</time>
      </trkpt>
      <trkpt lat="42.00896" lon="21.35504">
        <ele>317.881677</ele>
        <time>2022-04-23T08:15:22.520Z</time>
      </trkpt>
      <trkpt lat="42.00896" lon="21.35487">
        <ele>318.055902</ele>
        <time>2022-04-23T08:15:25.502Z</time>
      </trkpt>
      <trkpt lat="42.00896" lon="21.35469">
        <ele>318.235186</ele>
        <time>2022-04-23T08:15:28.511Z</time>
      </trkpt>
      <trkpt lat="42.00897" lon="21.35452">
        <ele>318.407427</ele>
        <time>2022-04-23T08:15:31.513Z</time>
      </trkpt>
      <trkpt lat="42.00898" lon="21.35435">
        <ele>318.580896</ele>
        <time>2022-04-23T08:15:34.518Z</time>
      </trkpt>
      <trkpt lat="42.00898" lon="21.35419">
        <ele>318.743242</ele>
        <time>2022-04-23T08:15:37.567Z</time>
      </trkpt>
      <trkpt lat="42.00898" lon="21.35401">
        <ele>318.923559</ele>
        <time>2022-04-23T08:15:40.545Z</time>
      </trkpt>
      <trkpt lat="42.00898" lon="21.35384">
        <ele>319.095753</ele>
        <time>2022-04-23T08:15:43.506Z</time>
      </trkpt>
      <trkpt lat="42.00905" lon="21.35373">
        <ele>319.241339</ele>
        <time>2022-04-23T08:15:47.512Z</time>
      </trkpt>
      <trkpt lat="42.00916" lon="21.35369">
        <ele>319.404948</ele>
        <time>2022-04-23T08:15:51.523Z</time>
      </trkpt>
      <trkpt lat="42.00926" lon="21.35364">
        <ele>319.547659</ele>
        <time>2022-04-23T08:15:54.507Z</time>
      </trkpt>
      <trkpt lat="42.00938" lon="21.3536">
        <ele>319.717508</ele>
        <time>2022-04-23T08:15:57.510Z</time>
      </trkpt>
      <trkpt lat="42.00949" lon="21.35356">
        <ele>319.868107</ele>
        <time>2022-04-23T08:16:00.517Z</time>
      </trkpt>
      <trkpt lat="42.00958" lon="21.35352">
        <ele>319.996079</ele>
        <time>2022-04-23T08:16:03.521Z</time>
      </trkpt>
      <trkpt lat="42.00968" lon="21.3535">
        <ele>320.137666</ele>
        <time>2022-04-23T08:16:06.513Z</time>
      </trkpt>
      <trkpt lat="42.00977" lon="21.35349">
        <ele>320.293024</ele>
        <time>2022-04-23T08:16:09.525Z</time>
      </trkpt>
      <trkpt lat="42.00988" lon="21.35349">
        <ele>320.479956</ele>
        <time>2022-04-23T08:16:12.512Z</time>
      </trkpt>
      <trkpt lat="42.00999" lon="21.35348">
        <ele>320.672819</ele>
        <time>2022-04-23T08:16:15.493Z</time>
      </trkpt>
      <trkpt lat="42.01011" lon="21.35345">
        <ele>320.872234</ele>
        <time>2022-04-23T08:16:19.490Z</time>
      </trkpt>
      <trkpt lat="42.01016" lon="21.35334">
        <ele>321.033876</ele>
        <time>2022-04-23T08:16:22.512Z</time>
      </trkpt>
      <trkpt lat="42.01019" lon="21.35321">
        <ele>321.205844</ele>
        <time>2022-04-23T08:16:25.518Z</time>
      </trkpt>
      <trkpt lat="42.0102" lon="21.35308">
        <ele>321.371934</ele>
        <time>2022-04-23T08:16:28.618Z</time>
      </trkpt>
      <trkpt lat="42.01023" lon="21.35294">
        <ele>321.558323</ele>
        <time>2022-04-23T08:16:31.498Z</time>
      </trkpt>
      <trkpt lat="42.01026" lon="21.35278">
        <ele>321.771855</ele>
        <time>2022-04-23T08:16:34.491Z</time>
      </trkpt>
      <trkpt lat="42.01029" lon="21.35262">
        <ele>321.979616</ele>
        <time>2022-04-23T08:16:37.519Z</time>
      </trkpt>
      <trkpt lat="42.01032" lon="21.35246">
        <ele>322.184908</ele>
        <time>2022-04-23T08:16:40.528Z</time>
      </trkpt>
      <trkpt lat="42.01036" lon="21.3523">
        <ele>322.40294</ele>
        <time>2022-04-23T08:16:43.516Z</time>
      </trkpt>
      <trkpt lat="42.01039" lon="21.35213">
        <ele>322.632245</ele>
        <time>2022-04-23T08:16:46.514Z</time>
      </trkpt>
      <trkpt lat="42.01041" lon="21.35197">
        <ele>322.838614</ele>
        <time>2022-04-23T08:16:49.513Z</time>
      </trkpt>
      <trkpt lat="42.01044" lon="21.35182">
        <ele>323.031528</ele>
        <time>2022-04-23T08:16:52.517Z</time>
      </trkpt>
      <trkpt lat="42.01047" lon="21.35165">
        <ele>323.221769</ele>
        <time>2022-04-23T08:16:55.492Z</time>
      </trkpt>
      <trkpt lat="42.01049" lon="21.35153">
        <ele>322.960182</ele>
        <time>2022-04-23T08:16:57.562Z</time>
      </trkpt>
      <trkpt lat="42.01051" lon="21.3514">
        <ele>322.709054</ele>
        <time>2022-04-23T08:16:59.516Z</time>
      </trkpt>
      <trkpt lat="42.01052" lon="21.35124">
        <ele>322.379743</ele>
        <time>2022-04-23T08:17:02.513Z</time>
      </trkpt>
      <trkpt lat="42.01055" lon="21.35108">
        <ele>322.054349</ele>
        <time>2022-04-23T08:17:05.497Z</time>
      </trkpt>
      <trkpt lat="42.01056" lon="21.35091">
        <ele>321.691349</ele>
        <time>2022-04-23T08:17:08.537Z</time>
      </trkpt>
      <trkpt lat="42.01057" lon="21.35078">
        <ele>321.442974</ele>
        <time>2022-04-23T08:17:10.536Z</time>
      </trkpt>
      <trkpt lat="42.01058" lon="21.35065">
        <ele>321.181566</ele>
        <time>2022-04-23T08:17:12.539Z</time>
      </trkpt>
      <trkpt lat="42.0106" lon="21.35048">
        <ele>320.819312</ele>
        <time>2022-04-23T08:17:15.506Z</time>
      </trkpt>
      <trkpt lat="42.01061" lon="21.35036">
        <ele>320.572223</ele>
        <time>2022-04-23T08:17:17.505Z</time>
      </trkpt>
      <trkpt lat="42.01062" lon="21.35023">
        <ele>320.318739</ele>
        <time>2022-04-23T08:17:19.477Z</time>
      </trkpt>
      <trkpt lat="42.01064" lon="21.35011">
        <ele>320.063647</ele>
        <time>2022-04-23T08:17:21.493Z</time>
      </trkpt>
      <trkpt lat="42.01065" lon="21.34994">
        <ele>319.715322</ele>
        <time>2022-04-23T08:17:24.511Z</time>
      </trkpt>
      <trkpt lat="42.01066" lon="21.34977">
        <ele>319.38297</ele>
        <time>2022-04-23T08:17:27.533Z</time>
      </trkpt>
      <trkpt lat="42.01067" lon="21.3496">
        <ele>319.04274</ele>
        <time>2022-04-23T08:17:30.543Z</time>
      </trkpt>
      <trkpt lat="42.01067" lon="21.34948">
        <ele>318.786012</ele>
        <time>2022-04-23T08:17:32.515Z</time>
      </trkpt>
      <trkpt lat="42.01068" lon="21.34936">
        <ele>318.538488</ele>
        <time>2022-04-23T08:17:34.518Z</time>
      </trkpt>
      <trkpt lat="42.0107" lon="21.34924">
        <ele>318.333787</ele>
        <time>2022-04-23T08:17:36.525Z</time>
      </trkpt>
      <trkpt lat="42.01071" lon="21.34907">
        <ele>318.244635</ele>
        <time>2022-04-23T08:17:39.519Z</time>
      </trkpt>
      <trkpt lat="42.01073" lon="21.34895">
        <ele>318.18157</ele>
        <time>2022-04-23T08:17:41.512Z</time>
      </trkpt>
      <trkpt lat="42.01074" lon="21.34882">
        <ele>318.115205</ele>
        <time>2022-04-23T08:17:43.506Z</time>
      </trkpt>
      <trkpt lat="42.01076" lon="21.34869">
        <ele>318.049467</ele>
        <time>2022-04-23T08:17:45.514Z</time>
      </trkpt>
      <trkpt lat="42.01077" lon="21.34853">
        <ele>317.963322</ele>
        <time>2022-04-23T08:17:48.542Z</time>
      </trkpt>
      <trkpt lat="42.01079" lon="21.34837">
        <ele>317.87899</ele>
        <time>2022-04-23T08:17:51.510Z</time>
      </trkpt>
      <trkpt lat="42.0108" lon="21.34821">
        <ele>317.795591</ele>
        <time>2022-04-23T08:17:54.540Z</time>
      </trkpt>
      <trkpt lat="42.01082" lon="21.34803">
        <ele>317.702932</ele>
        <time>2022-04-23T08:17:57.528Z</time>
      </trkpt>
      <trkpt lat="42.01083" lon="21.34791">
        <ele>317.638247</ele>
        <time>2022-04-23T08:17:59.520Z</time>
      </trkpt>
      <trkpt lat="42.01084" lon="21.34779">
        <ele>317.574661</ele>
        <time>2022-04-23T08:18:01.517Z</time>
      </trkpt>
      <trkpt lat="42.01084" lon="21.34762">
        <ele>317.485783</ele>
        <time>2022-04-23T08:18:04.552Z</time>
      </trkpt>
      <trkpt lat="42.01086" lon="21.34744">
        <ele>317.396154</ele>
        <time>2022-04-23T08:18:07.536Z</time>
      </trkpt>
      <trkpt lat="42.01086" lon="21.34727">
        <ele>317.308369</ele>
        <time>2022-04-23T08:18:10.573Z</time>
      </trkpt>
      <trkpt lat="42.01086" lon="21.3471">
        <ele>317.21854</ele>
        <time>2022-04-23T08:18:13.505Z</time>
      </trkpt>
      <trkpt lat="42.01087" lon="21.34693">
        <ele>317.131249</ele>
        <time>2022-04-23T08:18:16.513Z</time>
      </trkpt>
      <trkpt lat="42.01087" lon="21.34677">
        <ele>317.226991</ele>
        <time>2022-04-23T08:18:19.501Z</time>
      </trkpt>
      <trkpt lat="42.01088" lon="21.3466">
        <ele>317.473892</ele>
        <time>2022-04-23T08:18:22.514Z</time>
      </trkpt>
      <trkpt lat="42.01088" lon="21.34643">
        <ele>317.719176</ele>
        <time>2022-04-23T08:18:25.512Z</time>
      </trkpt>
      <trkpt lat="42.01087" lon="21.34628">
        <ele>317.955845</ele>
        <time>2022-04-23T08:18:28.544Z</time>
      </trkpt>
      <trkpt lat="42.01087" lon="21.34611">
        <ele>318.199848</ele>
        <time>2022-04-23T08:18:31.507Z</time>
      </trkpt>
      <trkpt lat="42.01086" lon="21.34594">
        <ele>318.45115</ele>
        <time>2022-04-23T08:18:34.504Z</time>
      </trkpt>
      <trkpt lat="42.01086" lon="21.34576">
        <ele>318.717254</ele>
        <time>2022-04-23T08:18:37.502Z</time>
      </trkpt>
      <trkpt lat="42.01086" lon="21.34559">
        <ele>318.977412</ele>
        <time>2022-04-23T08:18:40.498Z</time>
      </trkpt>
      <trkpt lat="42.01086" lon="21.34541">
        <ele>319.237754</ele>
        <time>2022-04-23T08:18:43.521Z</time>
      </trkpt>
      <trkpt lat="42.01085" lon="21.34525">
        <ele>319.484922</ele>
        <time>2022-04-23T08:18:46.513Z</time>
      </trkpt>
      <trkpt lat="42.01084" lon="21.34508">
        <ele>319.740257</ele>
        <time>2022-04-23T08:18:49.521Z</time>
      </trkpt>
      <trkpt lat="42.01083" lon="21.34496">
        <ele>319.920677</ele>
        <time>2022-04-23T08:18:51.518Z</time>
      </trkpt>
      <trkpt lat="42.01082" lon="21.34479">
        <ele>320.163656</ele>
        <time>2022-04-23T08:18:54.485Z</time>
      </trkpt>
      <trkpt lat="42.01081" lon="21.34463">
        <ele>320.410113</ele>
        <time>2022-04-23T08:18:57.511Z</time>
      </trkpt>
      <trkpt lat="42.0108" lon="21.3445">
        <ele>320.598103</ele>
        <time>2022-04-23T08:18:59.511Z</time>
      </trkpt>
      <trkpt lat="42.01079" lon="21.34432">
        <ele>320.909622</ele>
        <time>2022-04-23T08:19:02.496Z</time>
      </trkpt>
      <trkpt lat="42.01078" lon="21.34414">
        <ele>321.259272</ele>
        <time>2022-04-23T08:19:05.497Z</time>
      </trkpt>
      <trkpt lat="42.01077" lon="21.34401">
        <ele>321.506617</ele>
        <time>2022-04-23T08:19:07.504Z</time>
      </trkpt>
      <trkpt lat="42.01076" lon="21.34388">
        <ele>321.756896</ele>
        <time>2022-04-23T08:19:09.513Z</time>
      </trkpt>
      <trkpt lat="42.01075" lon="21.34375">
        <ele>321.999277</ele>
        <time>2022-04-23T08:19:11.520Z</time>
      </trkpt>
      <trkpt lat="42.01073" lon="21.34358">
        <ele>322.334271</ele>
        <time>2022-04-23T08:19:14.506Z</time>
      </trkpt>
      <trkpt lat="42.01071" lon="21.3434">
        <ele>322.670184</ele>
        <time>2022-04-23T08:19:17.556Z</time>
      </trkpt>
      <trkpt lat="42.0107" lon="21.34324">
        <ele>322.986406</ele>
        <time>2022-04-23T08:19:20.509Z</time>
      </trkpt>
      <trkpt lat="42.01067" lon="21.34309">
        <ele>323.279564</ele>
        <time>2022-04-23T08:19:23.504Z</time>
      </trkpt>
      <trkpt lat="42.01066" lon="21.34293">
        <ele>323.586409</ele>
        <time>2022-04-23T08:19:26.557Z</time>
      </trkpt>
      <trkpt lat="42.01063" lon="21.34275">
        <ele>323.931768</ele>
        <time>2022-04-23T08:19:29.503Z</time>
      </trkpt>
      <trkpt lat="42.01061" lon="21.34262">
        <ele>324.174592</ele>
        <time>2022-04-23T08:19:31.513Z</time>
      </trkpt>
      <trkpt lat="42.0106" lon="21.3425">
        <ele>324.415105</ele>
        <time>2022-04-23T08:19:33.510Z</time>
      </trkpt>
      <trkpt lat="42.01059" lon="21.34237">
        <ele>324.645689</ele>
        <time>2022-04-23T08:19:35.508Z</time>
      </trkpt>
      <trkpt lat="42.01057" lon="21.34221">
        <ele>324.970592</ele>
        <time>2022-04-23T08:19:38.540Z</time>
      </trkpt>
      <trkpt lat="42.01056" lon="21.34204">
        <ele>325.279559</ele>
        <time>2022-04-23T08:19:41.522Z</time>
      </trkpt>
      <trkpt lat="42.01054" lon="21.34187">
        <ele>324.780272</ele>
        <time>2022-04-23T08:19:44.496Z</time>
      </trkpt>
      <trkpt lat="42.01052" lon="21.34175">
        <ele>324.425609</ele>
        <time>2022-04-23T08:19:46.515Z</time>
      </trkpt>
      <trkpt lat="42.0105" lon="21.34158">
        <ele>323.913435</ele>
        <time>2022-04-23T08:19:49.525Z</time>
      </trkpt>
      <trkpt lat="42.01047" lon="21.3414">
        <ele>323.405571</ele>
        <time>2022-04-23T08:19:52.517Z</time>
      </trkpt>
      <trkpt lat="42.01045" lon="21.34123">
        <ele>322.900266</ele>
        <time>2022-04-23T08:19:55.497Z</time>
      </trkpt>
      <trkpt lat="42.01043" lon="21.34111">
        <ele>322.548486</ele>
        <time>2022-04-23T08:19:57.503Z</time>
      </trkpt>
      <trkpt lat="42.01042" lon="21.34099">
        <ele>322.197241</ele>
        <time>2022-04-23T08:19:59.502Z</time>
      </trkpt>
      <trkpt lat="42.0104" lon="21.34087">
        <ele>321.836385</ele>
        <time>2022-04-23T08:20:01.502Z</time>
      </trkpt>
      <trkpt lat="42.01039" lon="21.34075">
        <ele>321.485054</ele>
        <time>2022-04-23T08:20:03.500Z</time>
      </trkpt>
      <trkpt lat="42.01037" lon="21.34057">
        <ele>320.977889</ele>
        <time>2022-04-23T08:20:06.496Z</time>
      </trkpt>
      <trkpt lat="42.01035" lon="21.34041">
        <ele>320.497647</ele>
        <time>2022-04-23T08:20:09.514Z</time>
      </trkpt>
      <trkpt lat="42.01033" lon="21.34026">
        <ele>320.059776</ele>
        <time>2022-04-23T08:20:12.496Z</time>
      </trkpt>
      <trkpt lat="42.01031" lon="21.34011">
        <ele>319.605107</ele>
        <time>2022-04-23T08:20:15.510Z</time>
      </trkpt>
      <trkpt lat="42.01029" lon="21.33994">
        <ele>319.127637</ele>
        <time>2022-04-23T08:20:18.514Z</time>
      </trkpt>
      <trkpt lat="42.01026" lon="21.33979">
        <ele>318.672919</ele>
        <time>2022-04-23T08:20:21.504Z</time>
      </trkpt>
      <trkpt lat="42.01025" lon="21.33965">
        <ele>318.29603</ele>
        <time>2022-04-23T08:20:24.496Z</time>
      </trkpt>
      <trkpt lat="42.01035" lon="21.33956">
        <ele>318.322627</ele>
        <time>2022-04-23T08:20:28.510Z</time>
      </trkpt>
      <trkpt lat="42.01046" lon="21.33955">
        <ele>318.347636</ele>
        <time>2022-04-23T08:20:31.504Z</time>
      </trkpt>
      <trkpt lat="42.01058" lon="21.33953">
        <ele>318.373431</ele>
        <time>2022-04-23T08:20:34.516Z</time>
      </trkpt>
      <trkpt lat="42.01066" lon="21.33951">
        <ele>318.393659</ele>
        <time>2022-04-23T08:20:37.521Z</time>
      </trkpt>
      <trkpt lat="42.01077" lon="21.33951">
        <ele>318.417879</ele>
        <time>2022-04-23T08:20:41.509Z</time>
      </trkpt>
      <trkpt lat="42.01087" lon="21.33947">
        <ele>318.4412</ele>
        <time>2022-04-23T08:20:45.512Z</time>
      </trkpt>
      <trkpt lat="42.01093" lon="21.33936">
        <ele>318.464063</ele>
        <time>2022-04-23T08:20:49.510Z</time>
      </trkpt>
      <trkpt lat="42.01093" lon="21.33923">
        <ele>318.485237</ele>
        <time>2022-04-23T08:20:52.490Z</time>
      </trkpt>
      <trkpt lat="42.01091" lon="21.33909">
        <ele>318.507973</ele>
        <time>2022-04-23T08:20:55.591Z</time>
      </trkpt>
      <trkpt lat="42.0109" lon="21.33894">
        <ele>318.533269</ele>
        <time>2022-04-23T08:20:58.521Z</time>
      </trkpt>
      <trkpt lat="42.01089" lon="21.33881">
        <ele>318.555875</ele>
        <time>2022-04-23T08:21:01.501Z</time>
      </trkpt>
      <trkpt lat="42.01087" lon="21.33868">
        <ele>318.578152</ele>
        <time>2022-04-23T08:21:04.520Z</time>
      </trkpt>
      <trkpt lat="42.01085" lon="21.33856">
        <ele>318.598651</ele>
        <time>2022-04-23T08:21:07.501Z</time>
      </trkpt>
      <trkpt lat="42.01085" lon="21.33843">
        <ele>318.620315</ele>
        <time>2022-04-23T08:21:10.503Z</time>
      </trkpt>
      <trkpt lat="42.01083" lon="21.33831">
        <ele>318.640637</ele>
        <time>2022-04-23T08:21:13.514Z</time>
      </trkpt>
      <trkpt lat="42.01081" lon="21.33818">
        <ele>318.661727</ele>
        <time>2022-04-23T08:21:16.505Z</time>
      </trkpt>
      <trkpt lat="42.0108" lon="21.33803">
        <ele>318.688122</ele>
        <time>2022-04-23T08:21:19.493Z</time>
      </trkpt>
      <trkpt lat="42.01079" lon="21.33787">
        <ele>318.806816</ele>
        <time>2022-04-23T08:21:22.513Z</time>
      </trkpt>
      <trkpt lat="42.01078" lon="21.33771">
        <ele>318.973631</ele>
        <time>2022-04-23T08:21:25.502Z</time>
      </trkpt>
      <trkpt lat="42.01077" lon="21.33755">
        <ele>319.1413</ele>
        <time>2022-04-23T08:21:28.533Z</time>
      </trkpt>
      <trkpt lat="42.01076" lon="21.33739">
        <ele>319.303439</ele>
        <time>2022-04-23T08:21:31.511Z</time>
      </trkpt>
      <trkpt lat="42.01074" lon="21.33723">
        <ele>319.471603</ele>
        <time>2022-04-23T08:21:34.511Z</time>
      </trkpt>
      <trkpt lat="42.01072" lon="21.33708">
        <ele>319.63463</ele>
        <time>2022-04-23T08:21:37.587Z</time>
      </trkpt>
      <trkpt lat="42.0107" lon="21.33694">
        <ele>319.788658</ele>
        <time>2022-04-23T08:21:40.516Z</time>
      </trkpt>
      <trkpt lat="42.01069" lon="21.3368">
        <ele>319.933578</ele>
        <time>2022-04-23T08:21:43.487Z</time>
      </trkpt>
      <trkpt lat="42.01067" lon="21.33666">
        <ele>320.080319</ele>
        <time>2022-04-23T08:21:46.537Z</time>
      </trkpt>
      <trkpt lat="42.01065" lon="21.33654">
        <ele>320.212668</ele>
        <time>2022-04-23T08:21:49.532Z</time>
      </trkpt>
      <trkpt lat="42.01065" lon="21.3364">
        <ele>320.351916</ele>
        <time>2022-04-23T08:21:52.507Z</time>
      </trkpt>
      <trkpt lat="42.01064" lon="21.33625">
        <ele>320.512196</ele>
        <time>2022-04-23T08:21:55.519Z</time>
      </trkpt>
      <trkpt lat="42.01063" lon="21.33611">
        <ele>320.664203</ele>
        <time>2022-04-23T08:21:58.511Z</time>
      </trkpt>
      <trkpt lat="42.01062" lon="21.33597">
        <ele>320.80613</ele>
        <time>2022-04-23T08:22:01.509Z</time>
      </trkpt>
      <trkpt lat="42.01061" lon="21.33583">
        <ele>320.957566</ele>
        <time>2022-04-23T08:22:04.516Z</time>
      </trkpt>
      <trkpt lat="42.01061" lon="21.33569">
        <ele>321.102178</ele>
        <time>2022-04-23T08:22:07.537Z</time>
      </trkpt>
      <trkpt lat="42.0106" lon="21.33557">
        <ele>321.229259</ele>
        <time>2022-04-23T08:22:10.530Z</time>
      </trkpt>
      <trkpt lat="42.0106" lon="21.33541">
        <ele>321.425655</ele>
        <time>2022-04-23T08:22:14.558Z</time>
      </trkpt>
      <trkpt lat="42.01058" lon="21.33527">
        <ele>321.606797</ele>
        <time>2022-04-23T08:22:18.512Z</time>
      </trkpt>
      <trkpt lat="42.01056" lon="21.33511">
        <ele>321.807408</ele>
        <time>2022-04-23T08:22:22.505Z</time>
      </trkpt>
      <trkpt lat="42.01055" lon="21.33499">
        <ele>321.964683</ele>
        <time>2022-04-23T08:22:25.555Z</time>
      </trkpt>
      <trkpt lat="42.01053" lon="21.33484">
        <ele>322.151655</ele>
        <time>2022-04-23T08:22:30.513Z</time>
      </trkpt>
      <trkpt lat="42.01051" lon="21.33471">
        <ele>322.316385</ele>
        <time>2022-04-23T08:22:33.533Z</time>
      </trkpt>
      <trkpt lat="42.01049" lon="21.33457">
        <ele>322.497019</ele>
        <time>2022-04-23T08:22:36.500Z</time>
      </trkpt>
      <trkpt lat="42.01048" lon="21.33443">
        <ele>322.683458</ele>
        <time>2022-04-23T08:22:39.507Z</time>
      </trkpt>
      <trkpt lat="42.01046" lon="21.33428">
        <ele>322.870187</ele>
        <time>2022-04-23T08:22:42.521Z</time>
      </trkpt>
      <trkpt lat="42.01043" lon="21.33415">
        <ele>323.039305</ele>
        <time>2022-04-23T08:22:45.509Z</time>
      </trkpt>
      <trkpt lat="42.0104" lon="21.33403">
        <ele>323.198697</ele>
        <time>2022-04-23T08:22:48.507Z</time>
      </trkpt>
      <trkpt lat="42.01038" lon="21.33389">
        <ele>323.381083</ele>
        <time>2022-04-23T08:22:51.502Z</time>
      </trkpt>
      <trkpt lat="42.01037" lon="21.33375">
        <ele>323.562141</ele>
        <time>2022-04-23T08:22:54.496Z</time>
      </trkpt>
      <trkpt lat="42.01034" lon="21.3336">
        <ele>323.750954</ele>
        <time>2022-04-23T08:22:59.503Z</time>
      </trkpt>
      <trkpt lat="42.0103" lon="21.33347">
        <ele>323.934116</ele>
        <time>2022-04-23T08:23:03.504Z</time>
      </trkpt>
      <trkpt lat="42.01027" lon="21.33331">
        <ele>324.140753</ele>
        <time>2022-04-23T08:23:07.522Z</time>
      </trkpt>
      <trkpt lat="42.01025" lon="21.33316">
        <ele>324.298767</ele>
        <time>2022-04-23T08:23:11.501Z</time>
      </trkpt>
      <trkpt lat="42.0102" lon="21.33289">
        <ele>324.446257</ele>
        <time>2022-04-23T08:23:37.543Z</time>
      </trkpt>
      <trkpt lat="42.01017" lon="21.33277">
        <ele>324.512128</ele>
        <time>2022-04-23T08:23:40.525Z</time>
      </trkpt>
      <trkpt lat="42.01013" lon="21.33263">
        <ele>324.587478</ele>
        <time>2022-04-23T08:23:43.512Z</time>
      </trkpt>
      <trkpt lat="42.0101" lon="21.3325">
        <ele>324.656196</ele>
        <time>2022-04-23T08:23:46.504Z</time>
      </trkpt>
      <trkpt lat="42.01009" lon="21.33237">
        <ele>324.724471</ele>
        <time>2022-04-23T08:23:50.511Z</time>
      </trkpt>
      <trkpt lat="42.01007" lon="21.33224">
        <ele>324.794804</ele>
        <time>2022-04-23T08:23:54.543Z</time>
      </trkpt>
      <trkpt lat="42.01004" lon="21.33209">
        <ele>324.87794</ele>
        <time>2022-04-23T08:23:58.494Z</time>
      </trkpt>
      <trkpt lat="42.01001" lon="21.33193">
        <ele>324.962779</ele>
        <time>2022-04-23T08:24:02.506Z</time>
      </trkpt>
      <trkpt lat="42.00999" lon="21.33179">
        <ele>325.036607</ele>
        <time>2022-04-23T08:24:05.488Z</time>
      </trkpt>
      <trkpt lat="42.00996" lon="21.33165">
        <ele>325.109775</ele>
        <time>2022-04-23T08:24:08.517Z</time>
      </trkpt>
      <trkpt lat="42.00991" lon="21.33154">
        <ele>325.177084</ele>
        <time>2022-04-23T08:24:12.491Z</time>
      </trkpt>
      <trkpt lat="42.00988" lon="21.33141">
        <ele>325.250681</ele>
        <time>2022-04-23T08:24:16.552Z</time>
      </trkpt>
      <trkpt lat="42.00988" lon="21.33128">
        <ele>325.314616</ele>
        <time>2022-04-23T08:24:19.521Z</time>
      </trkpt>
      <trkpt lat="42.00985" lon="21.33113">
        <ele>325.39762</ele>
        <time>2022-04-23T08:24:23.496Z</time>
      </trkpt>
      <trkpt lat="42.00982" lon="21.331">
        <ele>325.467243</ele>
        <time>2022-04-23T08:24:26.510Z</time>
      </trkpt>
      <trkpt lat="42.00979" lon="21.33085">
        <ele>325.516688</ele>
        <time>2022-04-23T08:24:29.508Z</time>
      </trkpt>
      <trkpt lat="42.00977" lon="21.33068">
        <ele>325.376427</ele>
        <time>2022-04-23T08:24:32.511Z</time>
      </trkpt>
      <trkpt lat="42.00974" lon="21.33056">
        <ele>325.267629</ele>
        <time>2022-04-23T08:24:35.498Z</time>
      </trkpt>
      <trkpt lat="42.00974" lon="21.33044">
        <ele>325.162127</ele>
        <time>2022-04-23T08:24:39.536Z</time>
      </trkpt>
      <trkpt lat="42.00972" lon="21.33028">
        <ele>325.022509</ele>
        <time>2022-04-23T08:24:43.497Z</time>
      </trkpt>
      <trkpt lat="42.00969" lon="21.33013">
        <ele>324.897276</ele>
        <time>2022-04-23T08:24:46.504Z</time>
      </trkpt>
      <trkpt lat="42.00966" lon="21.32998">
        <ele>324.76702</ele>
        <time>2022-04-23T08:24:49.491Z</time>
      </trkpt>
      <trkpt lat="42.00962" lon="21.32986">
        <ele>324.656154</ele>
        <time>2022-04-23T08:24:52.506Z</time>
      </trkpt>
      <trkpt lat="42.0096" lon="21.32974">
        <ele>324.548474</ele>
        <time>2022-04-23T08:24:55.524Z</time>
      </trkpt>
      <trkpt lat="42.00959" lon="21.32958">
        <ele>324.415567</ele>
        <time>2022-04-23T08:24:59.517Z</time>
      </trkpt>
      <trkpt lat="42.00956" lon="21.32946">
        <ele>324.309615</ele>
        <time>2022-04-23T08:25:02.509Z</time>
      </trkpt>
      <trkpt lat="42.00954" lon="21.32934">
        <ele>324.202571</ele>
        <time>2022-04-23T08:25:05.492Z</time>
      </trkpt>
      <trkpt lat="42.00952" lon="21.32921">
        <ele>324.093889</ele>
        <time>2022-04-23T08:25:08.500Z</time>
      </trkpt>
      <trkpt lat="42.00949" lon="21.32907">
        <ele>323.971729</ele>
        <time>2022-04-23T08:25:12.504Z</time>
      </trkpt>
      <trkpt lat="42.00947" lon="21.32894">
        <ele>323.857304</ele>
        <time>2022-04-23T08:25:16.517Z</time>
      </trkpt>
      <trkpt lat="42.00945" lon="21.3288">
        <ele>323.739247</ele>
        <time>2022-04-23T08:25:21.531Z</time>
      </trkpt>
      <trkpt lat="42.00944" lon="21.32868">
        <ele>323.632176</ele>
        <time>2022-04-23T08:25:26.511Z</time>
      </trkpt>
      <trkpt lat="42.00946" lon="21.32854">
        <ele>323.518081</ele>
        <time>2022-04-23T08:25:30.517Z</time>
      </trkpt>
      <trkpt lat="42.00946" lon="21.32839">
        <ele>323.512417</ele>
        <time>2022-04-23T08:25:35.522Z</time>
      </trkpt>
      <trkpt lat="42.00945" lon="21.32825">
        <ele>323.53439</ele>
        <time>2022-04-23T08:25:39.491Z</time>
      </trkpt>
      <trkpt lat="42.00942" lon="21.32813">
        <ele>323.553464</ele>
        <time>2022-04-23T08:25:42.501Z</time>
      </trkpt>
      <trkpt lat="42.0094" lon="21.32801">
        <ele>323.572895</ele>
        <time>2022-04-23T08:25:45.579Z</time>
      </trkpt>
      <trkpt lat="42.00937" lon="21.32788">
        <ele>323.592805</ele>
        <time>2022-04-23T08:25:48.503Z</time>
      </trkpt>
      <trkpt lat="42.00936" lon="21.32775">
        <ele>323.612434</ele>
        <time>2022-04-23T08:25:51.535Z</time>
      </trkpt>
      <trkpt lat="42.00936" lon="21.32761">
        <ele>323.634166</ele>
        <time>2022-04-23T08:25:54.525Z</time>
      </trkpt>
      <trkpt lat="42.00935" lon="21.32747">
        <ele>323.655605</ele>
        <time>2022-04-23T08:25:57.537Z</time>
      </trkpt>
      <trkpt lat="42.00935" lon="21.3273">
        <ele>323.680412</ele>
        <time>2022-04-23T08:26:00.495Z</time>
      </trkpt>
      <trkpt lat="42.00936" lon="21.32714">
        <ele>323.705081</ele>
        <time>2022-04-23T08:26:03.520Z</time>
      </trkpt>
      <trkpt lat="42.00935" lon="21.32699">
        <ele>323.727875</ele>
        <time>2022-04-23T08:26:06.510Z</time>
      </trkpt>
      <trkpt lat="42.00936" lon="21.32684">
        <ele>323.75067</ele>
        <time>2022-04-23T08:26:09.501Z</time>
      </trkpt>
      <trkpt lat="42.00935" lon="21.3267">
        <ele>323.771814</ele>
        <time>2022-04-23T08:26:12.540Z</time>
      </trkpt>
      <trkpt lat="42.00934" lon="21.32656">
        <ele>323.793033</ele>
        <time>2022-04-23T08:26:15.505Z</time>
      </trkpt>
      <trkpt lat="42.00934" lon="21.32641">
        <ele>323.816891</ele>
        <time>2022-04-23T08:26:18.492Z</time>
      </trkpt>
      <trkpt lat="42.00933" lon="21.32626">
        <ele>323.839401</ele>
        <time>2022-04-23T08:26:21.499Z</time>
      </trkpt>
      <trkpt lat="42.00933" lon="21.32611">
        <ele>323.864346</ele>
        <time>2022-04-23T08:26:24.505Z</time>
      </trkpt>
      <trkpt lat="42.00933" lon="21.32596">
        <ele>323.934035</ele>
        <time>2022-04-23T08:26:27.500Z</time>
      </trkpt>
      <trkpt lat="42.00935" lon="21.32581">
        <ele>324.004166</ele>
        <time>2022-04-23T08:26:30.562Z</time>
      </trkpt>
      <trkpt lat="42.00938" lon="21.32567">
        <ele>324.073322</ele>
        <time>2022-04-23T08:26:33.518Z</time>
      </trkpt>
      <trkpt lat="42.00941" lon="21.32551">
        <ele>324.148068</ele>
        <time>2022-04-23T08:26:36.498Z</time>
      </trkpt>
      <trkpt lat="42.00943" lon="21.32536">
        <ele>324.222567</ele>
        <time>2022-04-23T08:26:39.616Z</time>
      </trkpt>
      <trkpt lat="42.00946" lon="21.32521">
        <ele>324.294752</ele>
        <time>2022-04-23T08:26:42.495Z</time>
      </trkpt>
      <trkpt lat="42.0095" lon="21.32506">
        <ele>324.366116</ele>
        <time>2022-04-23T08:26:45.512Z</time>
      </trkpt>
      <trkpt lat="42.00953" lon="21.32492">
        <ele>324.438112</ele>
        <time>2022-04-23T08:26:48.511Z</time>
      </trkpt>
      <trkpt lat="42.00957" lon="21.32476">
        <ele>324.512869</ele>
        <time>2022-04-23T08:26:51.518Z</time>
      </trkpt>
      <trkpt lat="42.00961" lon="21.32462">
        <ele>324.585422</ele>
        <time>2022-04-23T08:26:54.504Z</time>
      </trkpt>
      <trkpt lat="42.00965" lon="21.32449">
        <ele>324.650376</ele>
        <time>2022-04-23T08:26:57.518Z</time>
      </trkpt>
      <trkpt lat="42.00969" lon="21.32438">
        <ele>324.707195</ele>
        <time>2022-04-23T08:27:00.572Z</time>
      </trkpt>
      <trkpt lat="42.00973" lon="21.32425">
        <ele>324.772295</ele>
        <time>2022-04-23T08:27:03.513Z</time>
      </trkpt>
      <trkpt lat="42.00977" lon="21.32411">
        <ele>324.842089</ele>
        <time>2022-04-23T08:27:06.515Z</time>
      </trkpt>
      <trkpt lat="42.00981" lon="21.32396">
        <ele>324.916615</ele>
        <time>2022-04-23T08:27:09.492Z</time>
      </trkpt>
      <trkpt lat="42.00982" lon="21.32383">
        <ele>324.978663</ele>
        <time>2022-04-23T08:27:11.488Z</time>
      </trkpt>
      <trkpt lat="42.00984" lon="21.32366">
        <ele>325.122353</ele>
        <time>2022-04-23T08:27:14.510Z</time>
      </trkpt>
      <trkpt lat="42.00987" lon="21.32348">
        <ele>325.282139</ele>
        <time>2022-04-23T08:27:17.528Z</time>
      </trkpt>
      <trkpt lat="42.00989" lon="21.32331">
        <ele>325.436607</ele>
        <time>2022-04-23T08:27:20.554Z</time>
      </trkpt>
      <trkpt lat="42.00991" lon="21.32318">
        <ele>325.562361</ele>
        <time>2022-04-23T08:27:23.513Z</time>
      </trkpt>
      <trkpt lat="42.00994" lon="21.32305">
        <ele>325.680462</ele>
        <time>2022-04-23T08:27:26.498Z</time>
      </trkpt>
      <trkpt lat="42.00997" lon="21.32291">
        <ele>325.80834</ele>
        <time>2022-04-23T08:27:29.509Z</time>
      </trkpt>
      <trkpt lat="42.00999" lon="21.32276">
        <ele>325.947225</ele>
        <time>2022-04-23T08:27:32.526Z</time>
      </trkpt>
      <trkpt lat="42.01002" lon="21.32263">
        <ele>326.073579</ele>
        <time>2022-04-23T08:27:35.511Z</time>
      </trkpt>
      <trkpt lat="42.01003" lon="21.3225">
        <ele>326.185911</ele>
        <time>2022-04-23T08:27:38.505Z</time>
      </trkpt>
      <trkpt lat="42.01005" lon="21.32235">
        <ele>326.321696</ele>
        <time>2022-04-23T08:27:41.521Z</time>
      </trkpt>
      <trkpt lat="42.01005" lon="21.32221">
        <ele>326.452421</ele>
        <time>2022-04-23T08:27:44.477Z</time>
      </trkpt>
      <trkpt lat="42.01006" lon="21.32205">
        <ele>326.594887</ele>
        <time>2022-04-23T08:27:47.524Z</time>
      </trkpt>
      <trkpt lat="42.01007" lon="21.32187">
        <ele>326.750248</ele>
        <time>2022-04-23T08:27:50.498Z</time>
      </trkpt>
      <trkpt lat="42.01009" lon="21.3217">
        <ele>326.907082</ele>
        <time>2022-04-23T08:27:53.532Z</time>
      </trkpt>
      <trkpt lat="42.0101" lon="21.32158">
        <ele>327.015846</ele>
        <time>2022-04-23T08:27:55.491Z</time>
      </trkpt>
      <trkpt lat="42.01012" lon="21.3214">
        <ele>327.164604</ele>
        <time>2022-04-23T08:27:58.494Z</time>
      </trkpt>
      <trkpt lat="42.01016" lon="21.32123">
        <ele>327.200476</ele>
        <time>2022-04-23T08:28:01.510Z</time>
      </trkpt>
      <trkpt lat="42.01019" lon="21.32106">
        <ele>327.236862</ele>
        <time>2022-04-23T08:28:04.486Z</time>
      </trkpt>
      <trkpt lat="42.01021" lon="21.32094">
        <ele>327.262639</ele>
        <time>2022-04-23T08:28:06.505Z</time>
      </trkpt>
      <trkpt lat="42.01024" lon="21.32082">
        <ele>327.287744</ele>
        <time>2022-04-23T08:28:08.513Z</time>
      </trkpt>
      <trkpt lat="42.01026" lon="21.3207">
        <ele>327.312521</ele>
        <time>2022-04-23T08:28:10.517Z</time>
      </trkpt>
      <trkpt lat="42.01028" lon="21.32055">
        <ele>327.34448</ele>
        <time>2022-04-23T08:28:13.512Z</time>
      </trkpt>
      <trkpt lat="42.01029" lon="21.3204">
        <ele>327.375569</ele>
        <time>2022-04-23T08:28:17.563Z</time>
      </trkpt>
      <trkpt lat="42.01031" lon="21.32028">
        <ele>327.400742</ele>
        <time>2022-04-23T08:28:20.540Z</time>
      </trkpt>
      <trkpt lat="42.01034" lon="21.32015">
        <ele>327.428035</ele>
        <time>2022-04-23T08:28:23.501Z</time>
      </trkpt>
      <trkpt lat="42.01037" lon="21.31999">
        <ele>327.462104</ele>
        <time>2022-04-23T08:28:26.527Z</time>
      </trkpt>
      <trkpt lat="42.01039" lon="21.31987">
        <ele>327.487081</ele>
        <time>2022-04-23T08:28:28.507Z</time>
      </trkpt>
      <trkpt lat="42.01042" lon="21.31971">
        <ele>327.521812</ele>
        <time>2022-04-23T08:28:31.676Z</time>
      </trkpt>
      <trkpt lat="42.01044" lon="21.31953">
        <ele>327.557372</ele>
        <time>2022-04-23T08:28:34.527Z</time>
      </trkpt>
      <trkpt lat="42.01045" lon="21.31941">
        <ele>327.583092</ele>
        <time>2022-04-23T08:28:36.504Z</time>
      </trkpt>
      <trkpt lat="42.01048" lon="21.31929">
        <ele>327.608329</ele>
        <time>2022-04-23T08:28:38.512Z</time>
      </trkpt>
      <trkpt lat="42.01052" lon="21.31918">
        <ele>327.633288</ele>
        <time>2022-04-23T08:28:40.505Z</time>
      </trkpt>
      <trkpt lat="42.01054" lon="21.31907">
        <ele>327.659829</ele>
        <time>2022-04-23T08:28:42.550Z</time>
      </trkpt>
      <trkpt lat="42.01059" lon="21.3189">
        <ele>327.733774</ele>
        <time>2022-04-23T08:28:45.518Z</time>
      </trkpt>
      <trkpt lat="42.01063" lon="21.31875">
        <ele>327.805901</ele>
        <time>2022-04-23T08:28:48.519Z</time>
      </trkpt>
      <trkpt lat="42.01065" lon="21.31863">
        <ele>327.85813</ele>
        <time>2022-04-23T08:28:50.501Z</time>
      </trkpt>
      <trkpt lat="42.01071" lon="21.31847">
        <ele>327.934825</ele>
        <time>2022-04-23T08:28:53.497Z</time>
      </trkpt>
      <trkpt lat="42.01077" lon="21.31835">
        <ele>327.997855</ele>
        <time>2022-04-23T08:28:56.497Z</time>
      </trkpt>
      <trkpt lat="42.01083" lon="21.31825">
        <ele>328.052305</ele>
        <time>2022-04-23T08:28:59.533Z</time>
      </trkpt>
      <trkpt lat="42.0109" lon="21.31814">
        <ele>328.11672</ele>
        <time>2022-04-23T08:29:02.509Z</time>
      </trkpt>
      <trkpt lat="42.01094" lon="21.31801">
        <ele>328.178059</ele>
        <time>2022-04-23T08:29:05.510Z</time>
      </trkpt>
      <trkpt lat="42.011" lon="21.31786">
        <ele>328.24801</ele>
        <time>2022-04-23T08:29:08.506Z</time>
      </trkpt>
      <trkpt lat="42.01106" lon="21.31771">
        <ele>328.323511</ele>
        <time>2022-04-23T08:29:11.510Z</time>
      </trkpt>
      <trkpt lat="42.01111" lon="21.31756">
        <ele>328.393061</ele>
        <time>2022-04-23T08:29:14.519Z</time>
      </trkpt>
      <trkpt lat="42.01115" lon="21.31739">
        <ele>328.467523</ele>
        <time>2022-04-23T08:29:17.503Z</time>
      </trkpt>
      <trkpt lat="42.01117" lon="21.31722">
        <ele>328.543723</ele>
        <time>2022-04-23T08:29:20.585Z</time>
      </trkpt>
      <trkpt lat="42.01118" lon="21.31705">
        <ele>328.616902</ele>
        <time>2022-04-23T08:29:23.514Z</time>
      </trkpt>
      <trkpt lat="42.01118" lon="21.31689">
        <ele>328.687281</ele>
        <time>2022-04-23T08:29:26.540Z</time>
      </trkpt>
      <trkpt lat="42.01116" lon="21.31674">
        <ele>329.01366</ele>
        <time>2022-04-23T08:29:29.512Z</time>
      </trkpt>
      <trkpt lat="42.01115" lon="21.31657">
        <ele>329.420846</ele>
        <time>2022-04-23T08:29:32.501Z</time>
      </trkpt>
      <trkpt lat="42.01114" lon="21.3164">
        <ele>329.850886</ele>
        <time>2022-04-23T08:29:35.514Z</time>
      </trkpt>
      <trkpt lat="42.01112" lon="21.31623">
        <ele>330.282185</ele>
        <time>2022-04-23T08:29:38.518Z</time>
      </trkpt>
      <trkpt lat="42.01111" lon="21.31606">
        <ele>330.715288</ele>
        <time>2022-04-23T08:29:41.508Z</time>
      </trkpt>
      <trkpt lat="42.01113" lon="21.31588">
        <ele>331.154393</ele>
        <time>2022-04-23T08:29:44.503Z</time>
      </trkpt>
      <trkpt lat="42.01115" lon="21.31571">
        <ele>331.579704</ele>
        <time>2022-04-23T08:29:47.518Z</time>
      </trkpt>
      <trkpt lat="42.01115" lon="21.31558">
        <ele>331.903817</ele>
        <time>2022-04-23T08:29:49.533Z</time>
      </trkpt>
      <trkpt lat="42.01115" lon="21.31542">
        <ele>332.325127</ele>
        <time>2022-04-23T08:29:52.514Z</time>
      </trkpt>
      <trkpt lat="42.01116" lon="21.31525">
        <ele>332.749354</ele>
        <time>2022-04-23T08:29:55.505Z</time>
      </trkpt>
      <trkpt lat="42.01115" lon="21.31512">
        <ele>333.053918</ele>
        <time>2022-04-23T08:29:57.508Z</time>
      </trkpt>
      <trkpt lat="42.01115" lon="21.31495">
        <ele>333.485615</ele>
        <time>2022-04-23T08:30:00.523Z</time>
      </trkpt>
      <trkpt lat="42.01113" lon="21.31478">
        <ele>333.913645</ele>
        <time>2022-04-23T08:30:03.509Z</time>
      </trkpt>
      <trkpt lat="42.01113" lon="21.31461">
        <ele>334.345081</ele>
        <time>2022-04-23T08:30:06.504Z</time>
      </trkpt>
      <trkpt lat="42.01113" lon="21.31445">
        <ele>334.73835</ele>
        <time>2022-04-23T08:30:09.505Z</time>
      </trkpt>
      <trkpt lat="42.01111" lon="21.31431">
        <ele>334.857678</ele>
        <time>2022-04-23T08:30:12.511Z</time>
      </trkpt>
      <trkpt lat="42.01111" lon="21.31418">
        <ele>334.967889</ele>
        <time>2022-04-23T08:30:15.498Z</time>
      </trkpt>
      <trkpt lat="42.0111" lon="21.31403">
        <ele>335.100123</ele>
        <time>2022-04-23T08:30:19.511Z</time>
      </trkpt>
      <trkpt lat="42.01111" lon="21.31389">
        <ele>335.228013</ele>
        <time>2022-04-23T08:30:23.492Z</time>
      </trkpt>
      <trkpt lat="42.01111" lon="21.31376">
        <ele>335.342303</ele>
        <time>2022-04-23T08:30:27.514Z</time>
      </trkpt>
      <trkpt lat="42.0111" lon="21.31361">
        <ele>335.468259</ele>
        <time>2022-04-23T08:30:31.534Z</time>
      </trkpt>
      <trkpt lat="42.0111" lon="21.31349">
        <ele>335.573802</ele>
        <time>2022-04-23T08:30:34.515Z</time>
      </trkpt>
      <trkpt lat="42.01109" lon="21.31335">
        <ele>335.697752</ele>
        <time>2022-04-23T08:30:38.491Z</time>
      </trkpt>
      <trkpt lat="42.01109" lon="21.31321">
        <ele>335.820072</ele>
        <time>2022-04-23T08:30:42.503Z</time>
      </trkpt>
      <trkpt lat="42.01107" lon="21.31308">
        <ele>335.932632</ele>
        <time>2022-04-23T08:30:46.499Z</time>
      </trkpt>
      <trkpt lat="42.01106" lon="21.31296">
        <ele>336.041021</ele>
        <time>2022-04-23T08:30:50.498Z</time>
      </trkpt>
      <trkpt lat="42.01107" lon="21.31281">
        <ele>336.167847</ele>
        <time>2022-04-23T08:30:55.520Z</time>
      </trkpt>
      <trkpt lat="42.01109" lon="21.31267">
        <ele>336.296254</ele>
        <time>2022-04-23T08:31:00.513Z</time>
      </trkpt>
      <trkpt lat="42.01111" lon="21.31252">
        <ele>336.42984</ele>
        <time>2022-04-23T08:31:04.504Z</time>
      </trkpt>
      <trkpt lat="42.01111" lon="21.31236">
        <ele>336.563714</ele>
        <time>2022-04-23T08:31:07.504Z</time>
      </trkpt>
      <trkpt lat="42.01113" lon="21.3122">
        <ele>336.709192</ele>
        <time>2022-04-23T08:31:10.540Z</time>
      </trkpt>
      <trkpt lat="42.01114" lon="21.31202">
        <ele>336.807669</ele>
        <time>2022-04-23T08:31:13.500Z</time>
      </trkpt>
      <trkpt lat="42.01115" lon="21.31189">
        <ele>336.598465</ele>
        <time>2022-04-23T08:31:15.516Z</time>
      </trkpt>
      <trkpt lat="42.01116" lon="21.31176">
        <ele>336.394943</ele>
        <time>2022-04-23T08:31:17.580Z</time>
      </trkpt>
      <trkpt lat="42.01116" lon="21.31162">
        <ele>336.179799</ele>
        <time>2022-04-23T08:31:19.505Z</time>
      </trkpt>
      <trkpt lat="42.01117" lon="21.31149">
        <ele>335.962692</ele>
        <time>2022-04-23T08:31:21.513Z</time>
      </trkpt>
      <trkpt lat="42.01118" lon="21.31132">
        <ele>335.693366</ele>
        <time>2022-04-23T08:31:24.500Z</time>
      </trkpt>
      <trkpt lat="42.01119" lon="21.31116">
        <ele>335.434104</ele>
        <time>2022-04-23T08:31:27.509Z</time>
      </trkpt>
      <trkpt lat="42.0112" lon="21.31103">
        <ele>335.231713</ele>
        <time>2022-04-23T08:31:29.496Z</time>
      </trkpt>
      <trkpt lat="42.01124" lon="21.3109">
        <ele>335.011316</ele>
        <time>2022-04-23T08:31:31.513Z</time>
      </trkpt>
      <trkpt lat="42.01129" lon="21.31076">
        <ele>334.761139</ele>
        <time>2022-04-23T08:31:33.505Z</time>
      </trkpt>
      <trkpt lat="42.01135" lon="21.31061">
        <ele>334.48918</ele>
        <time>2022-04-23T08:31:35.500Z</time>
      </trkpt>
      <trkpt lat="42.01141" lon="21.31047">
        <ele>334.245267</ele>
        <time>2022-04-23T08:31:37.516Z</time>
      </trkpt>
      <trkpt lat="42.01146" lon="21.31035">
        <ele>334.017328</ele>
        <time>2022-04-23T08:31:39.516Z</time>
      </trkpt>
      <trkpt lat="42.0115" lon="21.31023">
        <ele>333.80282</ele>
        <time>2022-04-23T08:31:41.493Z</time>
      </trkpt>
      <trkpt lat="42.01155" lon="21.31006">
        <ele>333.52358</ele>
        <time>2022-04-23T08:31:44.495Z</time>
      </trkpt>
      <trkpt lat="42.01156" lon="21.3099">
        <ele>333.2566</ele>
        <time>2022-04-23T08:31:47.558Z</time>
      </trkpt>
      <trkpt lat="42.01156" lon="21.30975">
        <ele>333.029419</ele>
        <time>2022-04-23T08:31:50.501Z</time>
      </trkpt>
      <trkpt lat="42.01155" lon="21.30962">
        <ele>332.887078</ele>
        <time>2022-04-23T08:31:53.590Z</time>
      </trkpt>
      <trkpt lat="42.01154" lon="21.30947">
        <ele>332.746758</ele>
        <time>2022-04-23T08:31:56.487Z</time>
      </trkpt>
      <trkpt lat="42.01152" lon="21.30933">
        <ele>332.61124</ele>
        <time>2022-04-23T08:31:59.499Z</time>
      </trkpt>
      <trkpt lat="42.0115" lon="21.30917">
        <ele>332.459163</ele>
        <time>2022-04-23T08:32:02.492Z</time>
      </trkpt>
      <trkpt lat="42.01149" lon="21.309">
        <ele>332.292718</ele>
        <time>2022-04-23T08:32:05.536Z</time>
      </trkpt>
      <trkpt lat="42.01148" lon="21.30887">
        <ele>332.174618</ele>
        <time>2022-04-23T08:32:07.515Z</time>
      </trkpt>
      <trkpt lat="42.01148" lon="21.3087">
        <ele>332.0095</ele>
        <time>2022-04-23T08:32:10.511Z</time>
      </trkpt>
      <trkpt lat="42.0115" lon="21.30853">
        <ele>331.851442</ele>
        <time>2022-04-23T08:32:13.489Z</time>
      </trkpt>
      <trkpt lat="42.01153" lon="21.30837">
        <ele>331.692329</ele>
        <time>2022-04-23T08:32:16.506Z</time>
      </trkpt>
      <trkpt lat="42.01155" lon="21.3082">
        <ele>331.527896</ele>
        <time>2022-04-23T08:32:19.504Z</time>
      </trkpt>
      <trkpt lat="42.01157" lon="21.30803">
        <ele>331.367902</ele>
        <time>2022-04-23T08:32:22.497Z</time>
      </trkpt>
      <trkpt lat="42.01159" lon="21.30791">
        <ele>331.252138</ele>
        <time>2022-04-23T08:32:24.502Z</time>
      </trkpt>
      <trkpt lat="42.01161" lon="21.30776">
        <ele>331.10027</ele>
        <time>2022-04-23T08:32:27.531Z</time>
      </trkpt>
      <trkpt lat="42.01164" lon="21.30761">
        <ele>330.95352</ele>
        <time>2022-04-23T08:32:30.509Z</time>
      </trkpt>
      <trkpt lat="42.01167" lon="21.30744">
        <ele>330.792551</ele>
        <time>2022-04-23T08:32:33.492Z</time>
      </trkpt>
      <trkpt lat="42.01168" lon="21.30731">
        <ele>330.78723</ele>
        <time>2022-04-23T08:32:35.512Z</time>
      </trkpt>
      <trkpt lat="42.01169" lon="21.30719">
        <ele>331.069886</ele>
        <time>2022-04-23T08:32:37.509Z</time>
      </trkpt>
      <trkpt lat="42.01171" lon="21.30703">
        <ele>331.439752</ele>
        <time>2022-04-23T08:32:40.494Z</time>
      </trkpt>
      <trkpt lat="42.01172" lon="21.30691">
        <ele>331.727774</ele>
        <time>2022-04-23T08:32:43.517Z</time>
      </trkpt>
      <trkpt lat="42.01173" lon="21.30677">
        <ele>332.037174</ele>
        <time>2022-04-23T08:32:46.505Z</time>
      </trkpt>
      <trkpt lat="42.01176" lon="21.30664">
        <ele>332.360944</ele>
        <time>2022-04-23T08:32:49.510Z</time>
      </trkpt>
      <trkpt lat="42.01179" lon="21.30651">
        <ele>332.659494</ele>
        <time>2022-04-23T08:32:52.507Z</time>
      </trkpt>
      <trkpt lat="42.0118" lon="21.30637">
        <ele>332.977993</ele>
        <time>2022-04-23T08:32:56.557Z</time>
      </trkpt>
      <trkpt lat="42.01182" lon="21.30625">
        <ele>333.262436</ele>
        <time>2022-04-23T08:33:00.491Z</time>
      </trkpt>
      <trkpt lat="42.01184" lon="21.30613">
        <ele>333.545106</ele>
        <time>2022-04-23T08:33:04.521Z</time>
      </trkpt>
      <trkpt lat="42.01185" lon="21.30601">
        <ele>333.837273</ele>
        <time>2022-04-23T08:33:08.503Z</time>
      </trkpt>
      <trkpt lat="42.01187" lon="21.30586">
        <ele>334.17766</ele>
        <time>2022-04-23T08:33:13.506Z</time>
      </trkpt>
      <trkpt lat="42.01186" lon="21.30571">
        <ele>334.513684</ele>
        <time>2022-04-23T08:33:19.499Z</time>
      </trkpt>
      <trkpt lat="42.01188" lon="21.30558">
        <ele>334.82258</ele>
        <time>2022-04-23T08:33:24.512Z</time>
      </trkpt>
      <trkpt lat="42.01191" lon="21.30546">
        <ele>335.116529</ele>
        <time>2022-04-23T08:33:28.500Z</time>
      </trkpt>
      <trkpt lat="42.01193" lon="21.30532">
        <ele>335.44894</ele>
        <time>2022-04-23T08:33:32.516Z</time>
      </trkpt>
      <trkpt lat="42.01195" lon="21.3052">
        <ele>335.735015</ele>
        <time>2022-04-23T08:33:35.526Z</time>
      </trkpt>
      <trkpt lat="42.01197" lon="21.30507">
        <ele>336.036502</ele>
        <time>2022-04-23T08:33:38.506Z</time>
      </trkpt>
      <trkpt lat="42.01202" lon="21.30494">
        <ele>336.270079</ele>
        <time>2022-04-23T08:33:41.517Z</time>
      </trkpt>
      <trkpt lat="42.01209" lon="21.30479">
        <ele>336.267478</ele>
        <time>2022-04-23T08:33:44.516Z</time>
      </trkpt>
      <trkpt lat="42.01215" lon="21.30469">
        <ele>336.265736</ele>
        <time>2022-04-23T08:33:46.504Z</time>
      </trkpt>
      <trkpt lat="42.01222" lon="21.30456">
        <ele>336.263458</ele>
        <time>2022-04-23T08:33:49.506Z</time>
      </trkpt>
      <trkpt lat="42.01227" lon="21.30442">
        <ele>336.261164</ele>
        <time>2022-04-23T08:33:52.506Z</time>
      </trkpt>
      <trkpt lat="42.0123" lon="21.30428">
        <ele>336.259124</ele>
        <time>2022-04-23T08:33:55.503Z</time>
      </trkpt>
      <trkpt lat="42.01232" lon="21.30415">
        <ele>336.257318</ele>
        <time>2022-04-23T08:33:58.495Z</time>
      </trkpt>
      <trkpt lat="42.01234" lon="21.30403">
        <ele>336.255466</ele>
        <time>2022-04-23T08:34:01.504Z</time>
      </trkpt>
      <trkpt lat="42.01236" lon="21.30389">
        <ele>336.253523</ele>
        <time>2022-04-23T08:34:04.512Z</time>
      </trkpt>
      <trkpt lat="42.01238" lon="21.30377">
        <ele>336.251746</ele>
        <time>2022-04-23T08:34:07.522Z</time>
      </trkpt>
      <trkpt lat="42.0124" lon="21.30362">
        <ele>336.249596</ele>
        <time>2022-04-23T08:34:11.508Z</time>
      </trkpt>
      <trkpt lat="42.01243" lon="21.30347">
        <ele>336.247424</ele>
        <time>2022-04-23T08:34:15.512Z</time>
      </trkpt>
      <trkpt lat="42.01245" lon="21.30334">
        <ele>336.245449</ele>
        <time>2022-04-23T08:34:19.517Z</time>
      </trkpt>
      <trkpt lat="42.01249" lon="21.30322">
        <ele>336.243646</ele>
        <time>2022-04-23T08:34:23.515Z</time>
      </trkpt>
      <trkpt lat="42.01252" lon="21.30307">
        <ele>336.241402</ele>
        <time>2022-04-23T08:34:27.522Z</time>
      </trkpt>
      <trkpt lat="42.01256" lon="21.3029">
        <ele>336.238941</ele>
        <time>2022-04-23T08:34:30.549Z</time>
      </trkpt>
      <trkpt lat="42.0126" lon="21.30274">
        <ele>336.236498</ele>
        <time>2022-04-23T08:34:33.526Z</time>
      </trkpt>
      <trkpt lat="42.01262" lon="21.3026">
        <ele>336.169958</ele>
        <time>2022-04-23T08:34:36.546Z</time>
      </trkpt>
      <trkpt lat="42.01267" lon="21.30245">
        <ele>336.086676</ele>
        <time>2022-04-23T08:34:39.503Z</time>
      </trkpt>
      <trkpt lat="42.0127" lon="21.30229">
        <ele>336.003587</ele>
        <time>2022-04-23T08:34:42.549Z</time>
      </trkpt>
      <trkpt lat="42.01273" lon="21.30213">
        <ele>335.917929</ele>
        <time>2022-04-23T08:34:45.520Z</time>
      </trkpt>
      <trkpt lat="42.01277" lon="21.30198">
        <ele>335.835861</ele>
        <time>2022-04-23T08:34:48.552Z</time>
      </trkpt>
      <trkpt lat="42.0128" lon="21.30183">
        <ele>335.754379</ele>
        <time>2022-04-23T08:34:51.513Z</time>
      </trkpt>
      <trkpt lat="42.01284" lon="21.30168">
        <ele>335.678258</ele>
        <time>2022-04-23T08:34:54.509Z</time>
      </trkpt>
      <trkpt lat="42.01287" lon="21.30155">
        <ele>335.604438</ele>
        <time>2022-04-23T08:34:57.516Z</time>
      </trkpt>
      <trkpt lat="42.01289" lon="21.30142">
        <ele>335.535513</ele>
        <time>2022-04-23T08:35:00.509Z</time>
      </trkpt>
      <trkpt lat="42.01292" lon="21.3013">
        <ele>335.471312</ele>
        <time>2022-04-23T08:35:03.510Z</time>
      </trkpt>
      <trkpt lat="42.01295" lon="21.30116">
        <ele>335.397132</ele>
        <time>2022-04-23T08:35:06.507Z</time>
      </trkpt>
      <trkpt lat="42.01298" lon="21.30104">
        <ele>335.332562</ele>
        <time>2022-04-23T08:35:08.503Z</time>
      </trkpt>
      <trkpt lat="42.01302" lon="21.30091">
        <ele>335.26438</ele>
        <time>2022-04-23T08:35:10.532Z</time>
      </trkpt>
      <trkpt lat="42.01304" lon="21.30078">
        <ele>335.191625</ele>
        <time>2022-04-23T08:35:12.506Z</time>
      </trkpt>
      <trkpt lat="42.01308" lon="21.30063">
        <ele>335.114047</ele>
        <time>2022-04-23T08:35:14.494Z</time>
      </trkpt>
      <trkpt lat="42.01312" lon="21.30049">
        <ele>335.035808</ele>
        <time>2022-04-23T08:35:16.504Z</time>
      </trkpt>
      <trkpt lat="42.01316" lon="21.30036">
        <ele>335.192366</ele>
        <time>2022-04-23T08:35:18.510Z</time>
      </trkpt>
      <trkpt lat="42.01318" lon="21.30024">
        <ele>335.560746</ele>
        <time>2022-04-23T08:35:20.514Z</time>
      </trkpt>
      <trkpt lat="42.0132" lon="21.30007">
        <ele>336.051006</ele>
        <time>2022-04-23T08:35:23.513Z</time>
      </trkpt>
      <trkpt lat="42.01322" lon="21.29995">
        <ele>336.429136</ele>
        <time>2022-04-23T08:35:26.517Z</time>
      </trkpt>
      <trkpt lat="42.01322" lon="21.29982">
        <ele>336.81872</ele>
        <time>2022-04-23T08:35:29.508Z</time>
      </trkpt>
      <trkpt lat="42.01322" lon="21.29969">
        <ele>337.191059</ele>
        <time>2022-04-23T08:35:32.541Z</time>
      </trkpt>
      <trkpt lat="42.01324" lon="21.29956">
        <ele>337.576244</ele>
        <time>2022-04-23T08:35:36.503Z</time>
      </trkpt>
      <trkpt lat="42.01326" lon="21.29944">
        <ele>337.964245</ele>
        <time>2022-04-23T08:35:42.506Z</time>
      </trkpt>
      <trkpt lat="42.01329" lon="21.29932">
        <ele>338.333481</ele>
        <time>2022-04-23T08:35:48.520Z</time>
      </trkpt>
      <trkpt lat="42.01334" lon="21.29919">
        <ele>338.751735</ele>
        <time>2022-04-23T08:35:54.489Z</time>
      </trkpt>
      <trkpt lat="42.01339" lon="21.29909">
        <ele>339.114974</ele>
        <time>2022-04-23T08:36:00.490Z</time>
      </trkpt>
      <trkpt lat="42.01345" lon="21.29899">
        <ele>339.494418</ele>
        <time>2022-04-23T08:36:06.522Z</time>
      </trkpt>
      <trkpt lat="42.01352" lon="21.2989">
        <ele>339.898401</ele>
        <time>2022-04-23T08:36:12.510Z</time>
      </trkpt>
      <trkpt lat="42.01359" lon="21.29883">
        <ele>340.264024</ele>
        <time>2022-04-23T08:36:17.530Z</time>
      </trkpt>
      <trkpt lat="42.01367" lon="21.29875">
        <ele>340.656006</ele>
        <time>2022-04-23T08:36:24.500Z</time>
      </trkpt>
      <trkpt lat="42.01375" lon="21.29868">
        <ele>341.036092</ele>
        <time>2022-04-23T08:36:30.498Z</time>
      </trkpt>
      <trkpt lat="42.01383" lon="21.29862">
        <ele>341.408088</ele>
        <time>2022-04-23T08:36:34.500Z</time>
      </trkpt>
      <trkpt lat="42.01391" lon="21.29855">
        <ele>341.778907</ele>
        <time>2022-04-23T08:36:37.514Z</time>
      </trkpt>
      <trkpt lat="42.01399" lon="21.29848">
        <ele>342.151803</ele>
        <time>2022-04-23T08:36:39.525Z</time>
      </trkpt>
      <trkpt lat="42.01409" lon="21.29839">
        <ele>342.371921</ele>
        <time>2022-04-23T08:36:41.493Z</time>
      </trkpt>
      <trkpt lat="42.01419" lon="21.29829">
        <ele>342.580723</ele>
        <time>2022-04-23T08:36:43.504Z</time>
      </trkpt>
      <trkpt lat="42.01427" lon="21.29816">
        <ele>342.787727</ele>
        <time>2022-04-23T08:36:45.516Z</time>
      </trkpt>
      <trkpt lat="42.01433" lon="21.29802">
        <ele>342.994901</ele>
        <time>2022-04-23T08:36:47.524Z</time>
      </trkpt>
      <trkpt lat="42.01439" lon="21.2979">
        <ele>343.171262</ele>
        <time>2022-04-23T08:36:49.513Z</time>
      </trkpt>
      <trkpt lat="42.01447" lon="21.29777">
        <ele>343.36535</ele>
        <time>2022-04-23T08:36:52.503Z</time>
      </trkpt>
      <trkpt lat="42.01455" lon="21.29766">
        <ele>343.55721</ele>
        <time>2022-04-23T08:36:55.521Z</time>
      </trkpt>
      <trkpt lat="42.01462" lon="21.29755">
        <ele>343.742544</ele>
        <time>2022-04-23T08:36:57.508Z</time>
      </trkpt>
      <trkpt lat="42.01472" lon="21.2974">
        <ele>343.983136</ele>
        <time>2022-04-23T08:36:59.501Z</time>
      </trkpt>
      <trkpt lat="42.01483" lon="21.29725">
        <ele>344.240164</ele>
        <time>2022-04-23T08:37:01.486Z</time>
      </trkpt>
      <trkpt lat="42.01494" lon="21.2971">
        <ele>344.497464</ele>
        <time>2022-04-23T08:37:03.498Z</time>
      </trkpt>
      <trkpt lat="42.01504" lon="21.29696">
        <ele>344.736798</ele>
        <time>2022-04-23T08:37:05.512Z</time>
      </trkpt>
      <trkpt lat="42.01512" lon="21.29684">
        <ele>344.940046</ele>
        <time>2022-04-23T08:37:07.495Z</time>
      </trkpt>
      <trkpt lat="42.01518" lon="21.2967">
        <ele>345.140418</ele>
        <time>2022-04-23T08:37:09.510Z</time>
      </trkpt>
      <trkpt lat="42.01523" lon="21.29656">
        <ele>345.037174</ele>
        <time>2022-04-23T08:37:11.493Z</time>
      </trkpt>
      <trkpt lat="42.01528" lon="21.29645">
        <ele>344.916486</ele>
        <time>2022-04-23T08:37:13.513Z</time>
      </trkpt>
      <trkpt lat="42.01533" lon="21.29631">
        <ele>344.777007</ele>
        <time>2022-04-23T08:37:16.527Z</time>
      </trkpt>
      <trkpt lat="42.01536" lon="21.29618">
        <ele>344.642697</ele>
        <time>2022-04-23T08:37:19.510Z</time>
      </trkpt>
      <trkpt lat="42.01539" lon="21.29605">
        <ele>344.519161</ele>
        <time>2022-04-23T08:37:22.499Z</time>
      </trkpt>
      <trkpt lat="42.01542" lon="21.29593">
        <ele>344.403216</ele>
        <time>2022-04-23T08:37:25.518Z</time>
      </trkpt>
      <trkpt lat="42.01545" lon="21.29582">
        <ele>344.28809</ele>
        <time>2022-04-23T08:37:28.506Z</time>
      </trkpt>
      <trkpt lat="42.01549" lon="21.29568">
        <ele>344.148042</ele>
        <time>2022-04-23T08:37:31.511Z</time>
      </trkpt>
      <trkpt lat="42.01552" lon="21.29553">
        <ele>344.001881</ele>
        <time>2022-04-23T08:37:34.493Z</time>
      </trkpt>
      <trkpt lat="42.01557" lon="21.29538">
        <ele>343.85051</ele>
        <time>2022-04-23T08:37:37.542Z</time>
      </trkpt>
      <trkpt lat="42.01561" lon="21.29523">
        <ele>343.7022</ele>
        <time>2022-04-23T08:37:40.550Z</time>
      </trkpt>
      <trkpt lat="42.01565" lon="21.29507">
        <ele>343.543341</ele>
        <time>2022-04-23T08:37:43.521Z</time>
      </trkpt>
      <trkpt lat="42.0157" lon="21.2949">
        <ele>343.376219</ele>
        <time>2022-04-23T08:37:46.503Z</time>
      </trkpt>
      <trkpt lat="42.01575" lon="21.29474">
        <ele>343.210822</ele>
        <time>2022-04-23T08:37:49.524Z</time>
      </trkpt>
      <trkpt lat="42.01579" lon="21.29458">
        <ele>343.059006</ele>
        <time>2022-04-23T08:37:52.534Z</time>
      </trkpt>
      <trkpt lat="42.01583" lon="21.29443">
        <ele>342.909806</ele>
        <time>2022-04-23T08:37:55.517Z</time>
      </trkpt>
      <trkpt lat="42.01587" lon="21.29429">
        <ele>343.110305</ele>
        <time>2022-04-23T08:37:58.505Z</time>
      </trkpt>
      <trkpt lat="42.0159" lon="21.29417">
        <ele>343.301846</ele>
        <time>2022-04-23T08:38:01.493Z</time>
      </trkpt>
      <trkpt lat="42.01592" lon="21.29403">
        <ele>343.51436</ele>
        <time>2022-04-23T08:38:04.498Z</time>
      </trkpt>
      <trkpt lat="42.01594" lon="21.29389">
        <ele>343.724373</ele>
        <time>2022-04-23T08:38:07.546Z</time>
      </trkpt>
      <trkpt lat="42.01596" lon="21.29375">
        <ele>343.93731</ele>
        <time>2022-04-23T08:38:10.514Z</time>
      </trkpt>
      <trkpt lat="42.01596" lon="21.29362">
        <ele>344.128662</ele>
        <time>2022-04-23T08:38:13.520Z</time>
      </trkpt>
      <trkpt lat="42.01596" lon="21.29349">
        <ele>344.324082</ele>
        <time>2022-04-23T08:38:16.535Z</time>
      </trkpt>
      <trkpt lat="42.01597" lon="21.29335">
        <ele>344.521797</ele>
        <time>2022-04-23T08:38:19.500Z</time>
      </trkpt>
      <trkpt lat="42.01598" lon="21.2932">
        <ele>344.747389</ele>
        <time>2022-04-23T08:38:22.514Z</time>
      </trkpt>
      <trkpt lat="42.01599" lon="21.29306">
        <ele>344.958969</ele>
        <time>2022-04-23T08:38:25.495Z</time>
      </trkpt>
      <trkpt lat="42.01601" lon="21.29293">
        <ele>345.150588</ele>
        <time>2022-04-23T08:38:28.493Z</time>
      </trkpt>
      <trkpt lat="42.01604" lon="21.29282">
        <ele>345.331156</ele>
        <time>2022-04-23T08:38:31.511Z</time>
      </trkpt>
      <trkpt lat="42.01608" lon="21.29267">
        <ele>345.565779</ele>
        <time>2022-04-23T08:38:35.518Z</time>
      </trkpt>
      <trkpt lat="42.01611" lon="21.29255">
        <ele>345.746573</ele>
        <time>2022-04-23T08:38:38.525Z</time>
      </trkpt>
      <trkpt lat="42.01615" lon="21.29241">
        <ele>345.972114</ele>
        <time>2022-04-23T08:38:42.514Z</time>
      </trkpt>
      <trkpt lat="42.01617" lon="21.29229">
        <ele>346.158953</ele>
        <time>2022-04-23T08:38:45.524Z</time>
      </trkpt>
      <trkpt lat="42.01619" lon="21.29216">
        <ele>346.355827</ele>
        <time>2022-04-23T08:38:48.503Z</time>
      </trkpt>
      <trkpt lat="42.01621" lon="21.29201">
        <ele>346.482823</ele>
        <time>2022-04-23T08:38:52.500Z</time>
      </trkpt>
      <trkpt lat="42.01623" lon="21.29185">
        <ele>346.475179</ele>
        <time>2022-04-23T08:38:56.513Z</time>
      </trkpt>
      <trkpt lat="42.01624" lon="21.29169">
        <ele>346.467731</ele>
        <time>2022-04-23T08:39:00.518Z</time>
      </trkpt>
      <trkpt lat="42.01625" lon="21.29153">
        <ele>346.460248</ele>
        <time>2022-04-23T08:39:04.510Z</time>
      </trkpt>
      <trkpt lat="42.01627" lon="21.2914">
        <ele>346.453775</ele>
        <time>2022-04-23T08:39:07.533Z</time>
      </trkpt>
      <trkpt lat="42.01629" lon="21.29126">
        <ele>346.447112</ele>
        <time>2022-04-23T08:39:10.510Z</time>
      </trkpt>
      <trkpt lat="42.01633" lon="21.29112">
        <ele>346.439974</ele>
        <time>2022-04-23T08:39:13.510Z</time>
      </trkpt>
      <trkpt lat="42.01637" lon="21.29099">
        <ele>346.433204</ele>
        <time>2022-04-23T08:39:16.525Z</time>
      </trkpt>
      <trkpt lat="42.01642" lon="21.29087">
        <ele>346.427097</ele>
        <time>2022-04-23T08:39:19.531Z</time>
      </trkpt>
      <trkpt lat="42.01646" lon="21.29076">
        <ele>346.420944</ele>
        <time>2022-04-23T08:39:22.492Z</time>
      </trkpt>
      <trkpt lat="42.01651" lon="21.29065">
        <ele>346.41514</ele>
        <time>2022-04-23T08:39:25.515Z</time>
      </trkpt>
      <trkpt lat="42.01657" lon="21.29052">
        <ele>346.407749</ele>
        <time>2022-04-23T08:39:29.525Z</time>
      </trkpt>
      <trkpt lat="42.01664" lon="21.2904">
        <ele>346.400628</ele>
        <time>2022-04-23T08:39:33.508Z</time>
      </trkpt>
      <trkpt lat="42.01672" lon="21.29032">
        <ele>346.394342</ele>
        <time>2022-04-23T08:39:36.503Z</time>
      </trkpt>
      <trkpt lat="42.01679" lon="21.29023">
        <ele>346.388185</ele>
        <time>2022-04-23T08:39:39.515Z</time>
      </trkpt>
      <trkpt lat="42.01687" lon="21.29015">
        <ele>346.382125</ele>
        <time>2022-04-23T08:39:42.494Z</time>
      </trkpt>
      <trkpt lat="42.01694" lon="21.29008">
        <ele>346.376228</ele>
        <time>2022-04-23T08:39:45.511Z</time>
      </trkpt>
      <trkpt lat="42.01701" lon="21.28999">
        <ele>346.389654</ele>
        <time>2022-04-23T08:39:48.490Z</time>
      </trkpt>
      <trkpt lat="42.01708" lon="21.2899">
        <ele>346.455503</ele>
        <time>2022-04-23T08:39:51.525Z</time>
      </trkpt>
      <trkpt lat="42.01717" lon="21.28978">
        <ele>346.539897</ele>
        <time>2022-04-23T08:39:55.505Z</time>
      </trkpt>
      <trkpt lat="42.01725" lon="21.28968">
        <ele>346.616545</ele>
        <time>2022-04-23T08:39:59.545Z</time>
      </trkpt>
      <trkpt lat="42.01734" lon="21.28958">
        <ele>346.69872</ele>
        <time>2022-04-23T08:40:03.512Z</time>
      </trkpt>
      <trkpt lat="42.01743" lon="21.28951">
        <ele>346.769109</ele>
        <time>2022-04-23T08:40:06.519Z</time>
      </trkpt>
      <trkpt lat="42.01752" lon="21.28945">
        <ele>346.837706</ele>
        <time>2022-04-23T08:40:09.513Z</time>
      </trkpt>
      <trkpt lat="42.01761" lon="21.28939">
        <ele>346.907038</ele>
        <time>2022-04-23T08:40:12.515Z</time>
      </trkpt>
      <trkpt lat="42.01769" lon="21.28932">
        <ele>346.976115</ele>
        <time>2022-04-23T08:40:15.540Z</time>
      </trkpt>
      <trkpt lat="42.01779" lon="21.28926">
        <ele>347.047794</ele>
        <time>2022-04-23T08:40:18.533Z</time>
      </trkpt>
      <trkpt lat="42.01788" lon="21.28922">
        <ele>347.110988</ele>
        <time>2022-04-23T08:40:21.533Z</time>
      </trkpt>
      <trkpt lat="42.01799" lon="21.2892">
        <ele>347.191188</ele>
        <time>2022-04-23T08:40:25.502Z</time>
      </trkpt>
      <trkpt lat="42.01809" lon="21.2892">
        <ele>347.256665</ele>
        <time>2022-04-23T08:40:28.519Z</time>
      </trkpt>
      <trkpt lat="42.01818" lon="21.2892">
        <ele>347.322167</ele>
        <time>2022-04-23T08:40:31.536Z</time>
      </trkpt>
      <trkpt lat="42.01828" lon="21.2892">
        <ele>347.392477</ele>
        <time>2022-04-23T08:40:34.516Z</time>
      </trkpt>
      <trkpt lat="42.01839" lon="21.28921">
        <ele>347.468369</ele>
        <time>2022-04-23T08:40:37.511Z</time>
      </trkpt>
      <trkpt lat="42.0185" lon="21.28921">
        <ele>347.541435</ele>
        <time>2022-04-23T08:40:40.509Z</time>
      </trkpt>
      <trkpt lat="42.0186" lon="21.28922">
        <ele>347.611087</ele>
        <time>2022-04-23T08:40:43.507Z</time>
      </trkpt>
      <trkpt lat="42.0187" lon="21.28923">
        <ele>348.042301</ele>
        <time>2022-04-23T08:40:46.495Z</time>
      </trkpt>
      <trkpt lat="42.01879" lon="21.28923">
        <ele>348.464287</ele>
        <time>2022-04-23T08:40:49.508Z</time>
      </trkpt>
      <trkpt lat="42.01888" lon="21.28923">
        <ele>348.864825</ele>
        <time>2022-04-23T08:40:52.513Z</time>
      </trkpt>
      <trkpt lat="42.01897" lon="21.28921">
        <ele>349.274982</ele>
        <time>2022-04-23T08:40:55.501Z</time>
      </trkpt>
      <trkpt lat="42.01907" lon="21.2892">
        <ele>349.707549</ele>
        <time>2022-04-23T08:40:58.514Z</time>
      </trkpt>
      <trkpt lat="42.01916" lon="21.2892">
        <ele>350.107883</ele>
        <time>2022-04-23T08:41:01.502Z</time>
      </trkpt>
      <trkpt lat="42.01927" lon="21.28917">
        <ele>350.601253</ele>
        <time>2022-04-23T08:41:05.527Z</time>
      </trkpt>
      <trkpt lat="42.01937" lon="21.28915">
        <ele>351.067885</ele>
        <time>2022-04-23T08:41:09.503Z</time>
      </trkpt>
      <trkpt lat="42.01947" lon="21.28913">
        <ele>351.491025</ele>
        <time>2022-04-23T08:41:13.522Z</time>
      </trkpt>
      <trkpt lat="42.01957" lon="21.28909">
        <ele>351.977313</ele>
        <time>2022-04-23T08:41:18.524Z</time>
      </trkpt>
      <trkpt lat="42.01968" lon="21.28906">
        <ele>352.437137</ele>
        <time>2022-04-23T08:41:23.552Z</time>
      </trkpt>
      <trkpt lat="42.01978" lon="21.28902">
        <ele>352.914115</ele>
        <time>2022-04-23T08:41:28.505Z</time>
      </trkpt>
      <trkpt lat="42.01988" lon="21.289">
        <ele>353.361418</ele>
        <time>2022-04-23T08:41:32.534Z</time>
      </trkpt>
      <trkpt lat="42.01997" lon="21.28898">
        <ele>353.765971</ele>
        <time>2022-04-23T08:41:35.514Z</time>
      </trkpt>
      <trkpt lat="42.02008" lon="21.28893">
        <ele>354.295429</ele>
        <time>2022-04-23T08:41:38.510Z</time>
      </trkpt>
      <trkpt lat="42.0202" lon="21.28888">
        <ele>354.862569</ele>
        <time>2022-04-23T08:41:41.508Z</time>
      </trkpt>
      <trkpt lat="42.02031" lon="21.28883">
        <ele>355.365606</ele>
        <time>2022-04-23T08:41:44.504Z</time>
      </trkpt>
      <trkpt lat="42.0204" lon="21.28879">
        <ele>355.562726</ele>
        <time>2022-04-23T08:41:47.515Z</time>
      </trkpt>
      <trkpt lat="42.02049" lon="21.28875">
        <ele>355.487572</ele>
        <time>2022-04-23T08:41:50.520Z</time>
      </trkpt>
      <trkpt lat="42.02058" lon="21.2887">
        <ele>355.409921</ele>
        <time>2022-04-23T08:41:53.526Z</time>
      </trkpt>
      <trkpt lat="42.02067" lon="21.28864">
        <ele>355.33178</ele>
        <time>2022-04-23T08:41:56.536Z</time>
      </trkpt>
      <trkpt lat="42.02077" lon="21.28859">
        <ele>355.246185</ele>
        <time>2022-04-23T08:41:59.512Z</time>
      </trkpt>
      <trkpt lat="42.02086" lon="21.28855">
        <ele>355.166439</ele>
        <time>2022-04-23T08:42:02.508Z</time>
      </trkpt>
      <trkpt lat="42.02096" lon="21.28849">
        <ele>355.083918</ele>
        <time>2022-04-23T08:42:05.506Z</time>
      </trkpt>
      <trkpt lat="42.02105" lon="21.28843">
        <ele>355.004324</ele>
        <time>2022-04-23T08:42:08.514Z</time>
      </trkpt>
      <trkpt lat="42.02113" lon="21.28839">
        <ele>354.931216</ele>
        <time>2022-04-23T08:42:11.514Z</time>
      </trkpt>
      <trkpt lat="42.02124" lon="21.28833">
        <ele>354.836223</ele>
        <time>2022-04-23T08:42:15.504Z</time>
      </trkpt>
      <trkpt lat="42.02133" lon="21.28828">
        <ele>354.755381</ele>
        <time>2022-04-23T08:42:18.509Z</time>
      </trkpt>
      <trkpt lat="42.02143" lon="21.28823">
        <ele>354.669753</ele>
        <time>2022-04-23T08:42:21.493Z</time>
      </trkpt>
      <trkpt lat="42.02155" lon="21.28822">
        <ele>354.580001</ele>
        <time>2022-04-23T08:42:24.509Z</time>
      </trkpt>
      <trkpt lat="42.02165" lon="21.28822">
        <ele>354.492497</ele>
        <time>2022-04-23T08:42:27.573Z</time>
      </trkpt>
      <trkpt lat="42.02178" lon="21.28822">
        <ele>354.388896</ele>
        <time>2022-04-23T08:42:30.504Z</time>
      </trkpt>
      <trkpt lat="42.02188" lon="21.28822">
        <ele>354.312624</ele>
        <time>2022-04-23T08:42:32.527Z</time>
      </trkpt>
      <trkpt lat="42.02198" lon="21.28819">
        <ele>354.225545</ele>
        <time>2022-04-23T08:42:34.514Z</time>
      </trkpt>
      <trkpt lat="42.02209" lon="21.28811">
        <ele>354.171617</ele>
        <time>2022-04-23T08:42:36.496Z</time>
      </trkpt>
      <trkpt lat="42.02217" lon="21.28799">
        <ele>354.231718</ele>
        <time>2022-04-23T08:42:38.607Z</time>
      </trkpt>
      <trkpt lat="42.02219" lon="21.28783">
        <ele>354.291581</ele>
        <time>2022-04-23T08:42:40.509Z</time>
      </trkpt>
      <trkpt lat="42.02217" lon="21.28768">
        <ele>354.351222</ele>
        <time>2022-04-23T08:42:42.506Z</time>
      </trkpt>
      <trkpt lat="42.02214" lon="21.28754">
        <ele>354.406153</ele>
        <time>2022-04-23T08:42:44.510Z</time>
      </trkpt>
      <trkpt lat="42.0221" lon="21.28742">
        <ele>354.452158</ele>
        <time>2022-04-23T08:42:46.507Z</time>
      </trkpt>
      <trkpt lat="42.02207" lon="21.28729">
        <ele>354.504527</ele>
        <time>2022-04-23T08:42:49.490Z</time>
      </trkpt>
      <trkpt lat="42.02199" lon="21.28721">
        <ele>354.556597</ele>
        <time>2022-04-23T08:42:56.524Z</time>
      </trkpt>
      <trkpt lat="42.02187" lon="21.28726">
        <ele>354.617009</ele>
        <time>2022-04-23T08:43:00.505Z</time>
      </trkpt>
      <trkpt lat="42.02177" lon="21.28728">
        <ele>354.666573</ele>
        <time>2022-04-23T08:43:03.493Z</time>
      </trkpt>
      <trkpt lat="42.02166" lon="21.2873">
        <ele>354.724125</ele>
        <time>2022-04-23T08:43:06.488Z</time>
      </trkpt>
      <trkpt lat="42.02156" lon="21.28733">
        <ele>354.779029</ele>
        <time>2022-04-23T08:43:09.505Z</time>
      </trkpt>
      <trkpt lat="42.02144" lon="21.28735">
        <ele>354.839562</ele>
        <time>2022-04-23T08:43:12.523Z</time>
      </trkpt>
      <trkpt lat="42.02134" lon="21.28736">
        <ele>354.889812</ele>
        <time>2022-04-23T08:43:14.503Z</time>
      </trkpt>
      <trkpt lat="42.02124" lon="21.28737">
        <ele>354.941605</ele>
        <time>2022-04-23T08:43:16.526Z</time>
      </trkpt>
      <trkpt lat="42.02113" lon="21.28738">
        <ele>354.996375</ele>
        <time>2022-04-23T08:43:18.506Z</time>
      </trkpt>
      <trkpt lat="42.02103" lon="21.28738">
        <ele>355.047609</ele>
        <time>2022-04-23T08:43:20.504Z</time>
      </trkpt>
      <trkpt lat="42.02093" lon="21.28738">
        <ele>354.801361</ele>
        <time>2022-04-23T08:43:22.522Z</time>
      </trkpt>
      <trkpt lat="42.02079" lon="21.2874">
        <ele>354.215644</ele>
        <time>2022-04-23T08:43:25.503Z</time>
      </trkpt>
      <trkpt lat="42.02069" lon="21.28741">
        <ele>353.772999</ele>
        <time>2022-04-23T08:43:27.503Z</time>
      </trkpt>
      <trkpt lat="42.02058" lon="21.28742">
        <ele>353.286418</ele>
        <time>2022-04-23T08:43:29.524Z</time>
      </trkpt>
      <trkpt lat="42.02045" lon="21.28743">
        <ele>352.744478</ele>
        <time>2022-04-23T08:43:31.500Z</time>
      </trkpt>
      <trkpt lat="42.02031" lon="21.28745">
        <ele>352.150478</ele>
        <time>2022-04-23T08:43:33.516Z</time>
      </trkpt>
      <trkpt lat="42.02016" lon="21.28748">
        <ele>351.500316</ele>
        <time>2022-04-23T08:43:35.511Z</time>
      </trkpt>
      <trkpt lat="42.02001" lon="21.28751">
        <ele>350.846041</ele>
        <time>2022-04-23T08:43:37.509Z</time>
      </trkpt>
      <trkpt lat="42.01986" lon="21.28754">
        <ele>350.190213</ele>
        <time>2022-04-23T08:43:39.532Z</time>
      </trkpt>
      <trkpt lat="42.0197" lon="21.28758">
        <ele>349.471468</ele>
        <time>2022-04-23T08:43:41.508Z</time>
      </trkpt>
      <trkpt lat="42.01953" lon="21.28762">
        <ele>348.752723</ele>
        <time>2022-04-23T08:43:43.495Z</time>
      </trkpt>
      <trkpt lat="42.01937" lon="21.28764">
        <ele>348.067276</ele>
        <time>2022-04-23T08:43:45.497Z</time>
      </trkpt>
      <trkpt lat="42.01922" lon="21.28766">
        <ele>347.395241</ele>
        <time>2022-04-23T08:43:47.518Z</time>
      </trkpt>
      <trkpt lat="42.01907" lon="21.2877">
        <ele>346.675729</ele>
        <time>2022-04-23T08:43:49.520Z</time>
      </trkpt>
      <trkpt lat="42.01893" lon="21.28772">
        <ele>345.974599</ele>
        <time>2022-04-23T08:43:51.515Z</time>
      </trkpt>
      <trkpt lat="42.01879" lon="21.28774">
        <ele>345.231715</ele>
        <time>2022-04-23T08:43:53.511Z</time>
      </trkpt>
      <trkpt lat="42.01864" lon="21.28777">
        <ele>344.488345</ele>
        <time>2022-04-23T08:43:55.570Z</time>
      </trkpt>
      <trkpt lat="42.01849" lon="21.28779">
        <ele>343.723919</ele>
        <time>2022-04-23T08:43:57.521Z</time>
      </trkpt>
      <trkpt lat="42.01833" lon="21.28779">
        <ele>342.971906</ele>
        <time>2022-04-23T08:43:59.524Z</time>
      </trkpt>
      <trkpt lat="42.01818" lon="21.2878">
        <ele>342.220257</ele>
        <time>2022-04-23T08:44:01.529Z</time>
      </trkpt>
      <trkpt lat="42.01804" lon="21.2878">
        <ele>341.50353</ele>
        <time>2022-04-23T08:44:03.499Z</time>
      </trkpt>
      <trkpt lat="42.0179" lon="21.28778">
        <ele>340.804792</ele>
        <time>2022-04-23T08:44:05.500Z</time>
      </trkpt>
      <trkpt lat="42.01777" lon="21.28773">
        <ele>340.137648</ele>
        <time>2022-04-23T08:44:07.516Z</time>
      </trkpt>
      <trkpt lat="42.01765" lon="21.28763">
        <ele>339.428994</ele>
        <time>2022-04-23T08:44:09.514Z</time>
      </trkpt>
      <trkpt lat="42.01755" lon="21.28747">
        <ele>338.626394</ele>
        <time>2022-04-23T08:44:11.518Z</time>
      </trkpt>
      <trkpt lat="42.01745" lon="21.28727">
        <ele>338.016504</ele>
        <time>2022-04-23T08:44:13.505Z</time>
      </trkpt>
      <trkpt lat="42.01737" lon="21.28706">
        <ele>337.511802</ele>
        <time>2022-04-23T08:44:15.510Z</time>
      </trkpt>
      <trkpt lat="42.01731" lon="21.28687">
        <ele>337.054118</ele>
        <time>2022-04-23T08:44:17.544Z</time>
      </trkpt>
      <trkpt lat="42.01726" lon="21.28667">
        <ele>336.608358</ele>
        <time>2022-04-23T08:44:19.520Z</time>
      </trkpt>
      <trkpt lat="42.01721" lon="21.28648">
        <ele>336.175055</ele>
        <time>2022-04-23T08:44:21.566Z</time>
      </trkpt>
      <trkpt lat="42.01716" lon="21.2863">
        <ele>335.755834</ele>
        <time>2022-04-23T08:44:23.491Z</time>
      </trkpt>
      <trkpt lat="42.01712" lon="21.28613">
        <ele>335.364226</ele>
        <time>2022-04-23T08:44:25.500Z</time>
      </trkpt>
      <trkpt lat="42.01708" lon="21.28598">
        <ele>335.002946</ele>
        <time>2022-04-23T08:44:27.525Z</time>
      </trkpt>
      <trkpt lat="42.01703" lon="21.28583">
        <ele>334.657034</ele>
        <time>2022-04-23T08:44:29.512Z</time>
      </trkpt>
      <trkpt lat="42.017" lon="21.28569">
        <ele>334.340612</ele>
        <time>2022-04-23T08:44:31.508Z</time>
      </trkpt>
      <trkpt lat="42.01697" lon="21.28555">
        <ele>334.031678</ele>
        <time>2022-04-23T08:44:33.510Z</time>
      </trkpt>
      <trkpt lat="42.01694" lon="21.2854">
        <ele>333.68975</ele>
        <time>2022-04-23T08:44:35.514Z</time>
      </trkpt>
      <trkpt lat="42.01692" lon="21.28524">
        <ele>333.328588</ele>
        <time>2022-04-23T08:44:37.517Z</time>
      </trkpt>
      <trkpt lat="42.01689" lon="21.28507">
        <ele>333.182547</ele>
        <time>2022-04-23T08:44:39.517Z</time>
      </trkpt>
      <trkpt lat="42.01686" lon="21.28491">
        <ele>333.265341</ele>
        <time>2022-04-23T08:44:41.506Z</time>
      </trkpt>
      <trkpt lat="42.01684" lon="21.28476">
        <ele>333.341167</ele>
        <time>2022-04-23T08:44:43.497Z</time>
      </trkpt>
      <trkpt lat="42.01681" lon="21.28462">
        <ele>333.410076</ele>
        <time>2022-04-23T08:44:45.508Z</time>
      </trkpt>
      <trkpt lat="42.01678" lon="21.28445">
        <ele>333.494488</ele>
        <time>2022-04-23T08:44:48.502Z</time>
      </trkpt>
      <trkpt lat="42.01675" lon="21.28432">
        <ele>333.563825</ele>
        <time>2022-04-23T08:44:51.523Z</time>
      </trkpt>
      <trkpt lat="42.01673" lon="21.28419">
        <ele>333.628905</ele>
        <time>2022-04-23T08:44:54.512Z</time>
      </trkpt>
      <trkpt lat="42.01671" lon="21.28406">
        <ele>333.691672</ele>
        <time>2022-04-23T08:44:57.536Z</time>
      </trkpt>
      <trkpt lat="42.0167" lon="21.28393">
        <ele>333.756325</ele>
        <time>2022-04-23T08:45:00.513Z</time>
      </trkpt>
      <trkpt lat="42.01668" lon="21.28379">
        <ele>333.826426</ele>
        <time>2022-04-23T08:45:03.494Z</time>
      </trkpt>
      <trkpt lat="42.01666" lon="21.28365">
        <ele>333.89342</ele>
        <time>2022-04-23T08:45:06.529Z</time>
      </trkpt>
      <trkpt lat="42.01664" lon="21.28352">
        <ele>333.961262</ele>
        <time>2022-04-23T08:45:09.507Z</time>
      </trkpt>
      <trkpt lat="42.01663" lon="21.28336">
        <ele>334.038007</ele>
        <time>2022-04-23T08:45:12.499Z</time>
      </trkpt>
      <trkpt lat="42.01662" lon="21.2832">
        <ele>334.118992</ele>
        <time>2022-04-23T08:45:15.519Z</time>
      </trkpt>
      <trkpt lat="42.01661" lon="21.28304">
        <ele>334.196798</ele>
        <time>2022-04-23T08:45:18.511Z</time>
      </trkpt>
      <trkpt lat="42.01664" lon="21.28288">
        <ele>334.277687</ele>
        <time>2022-04-23T08:45:21.503Z</time>
      </trkpt>
      <trkpt lat="42.01669" lon="21.28272">
        <ele>334.429089</ele>
        <time>2022-04-23T08:45:24.504Z</time>
      </trkpt>
      <trkpt lat="42.01673" lon="21.28261">
        <ele>334.617685</ele>
        <time>2022-04-23T08:45:26.519Z</time>
      </trkpt>
      <trkpt lat="42.01678" lon="21.2825">
        <ele>334.818379</ele>
        <time>2022-04-23T08:45:28.515Z</time>
      </trkpt>
      <trkpt lat="42.01683" lon="21.28238">
        <ele>335.03356</ele>
        <time>2022-04-23T08:45:30.495Z</time>
      </trkpt>
      <trkpt lat="42.01688" lon="21.28223">
        <ele>335.277954</ele>
        <time>2022-04-23T08:45:32.493Z</time>
      </trkpt>
      <trkpt lat="42.01691" lon="21.28208">
        <ele>335.521182</ele>
        <time>2022-04-23T08:45:34.549Z</time>
      </trkpt>
      <trkpt lat="42.0169" lon="21.28195">
        <ele>335.72124</ele>
        <time>2022-04-23T08:45:36.523Z</time>
      </trkpt>
      <trkpt lat="42.01687" lon="21.2818">
        <ele>335.962994</ele>
        <time>2022-04-23T08:45:39.501Z</time>
      </trkpt>
      <trkpt lat="42.01684" lon="21.28167">
        <ele>336.170735</ele>
        <time>2022-04-23T08:45:42.511Z</time>
      </trkpt>
      <trkpt lat="42.01682" lon="21.28154">
        <ele>336.376275</ele>
        <time>2022-04-23T08:45:45.511Z</time>
      </trkpt>
      <trkpt lat="42.01681" lon="21.2814">
        <ele>336.594389</ele>
        <time>2022-04-23T08:45:48.481Z</time>
      </trkpt>
      <trkpt lat="42.01681" lon="21.28125">
        <ele>336.824791</ele>
        <time>2022-04-23T08:45:51.544Z</time>
      </trkpt>
      <trkpt lat="42.01681" lon="21.28107">
        <ele>337.095126</ele>
        <time>2022-04-23T08:45:54.513Z</time>
      </trkpt>
      <trkpt lat="42.01682" lon="21.28094">
        <ele>337.290465</ele>
        <time>2022-04-23T08:45:56.510Z</time>
      </trkpt>
      <trkpt lat="42.01683" lon="21.28081">
        <ele>337.494984</ele>
        <time>2022-04-23T08:45:58.521Z</time>
      </trkpt>
      <trkpt lat="42.01685" lon="21.28065">
        <ele>337.75183</ele>
        <time>2022-04-23T08:46:01.506Z</time>
      </trkpt>
      <trkpt lat="42.01686" lon="21.2805">
        <ele>337.981851</ele>
        <time>2022-04-23T08:46:04.529Z</time>
      </trkpt>
      <trkpt lat="42.01689" lon="21.28036">
        <ele>338.206141</ele>
        <time>2022-04-23T08:46:07.503Z</time>
      </trkpt>
      <trkpt lat="42.0169" lon="21.28022">
        <ele>338.442338</ele>
        <time>2022-04-23T08:46:10.498Z</time>
      </trkpt>
      <trkpt lat="42.01693" lon="21.28007">
        <ele>338.690898</ele>
        <time>2022-04-23T08:46:13.539Z</time>
      </trkpt>
      <trkpt lat="42.01695" lon="21.27992">
        <ele>338.949958</ele>
        <time>2022-04-23T08:46:16.501Z</time>
      </trkpt>
      <trkpt lat="42.01698" lon="21.27975">
        <ele>339.220538</ele>
        <time>2022-04-23T08:46:19.526Z</time>
      </trkpt>
      <trkpt lat="42.01702" lon="21.2796">
        <ele>339.492025</ele>
        <time>2022-04-23T08:46:22.519Z</time>
      </trkpt>
      <trkpt lat="42.01704" lon="21.27946">
        <ele>339.724149</ele>
        <time>2022-04-23T08:46:25.507Z</time>
      </trkpt>
      <trkpt lat="42.01706" lon="21.27933">
        <ele>339.932374</ele>
        <time>2022-04-23T08:46:28.491Z</time>
      </trkpt>
      <trkpt lat="42.0171" lon="21.2792">
        <ele>340.170475</ele>
        <time>2022-04-23T08:46:32.513Z</time>
      </trkpt>
      <trkpt lat="42.01715" lon="21.27906">
        <ele>340.416385</ele>
        <time>2022-04-23T08:46:36.512Z</time>
      </trkpt>
      <trkpt lat="42.01721" lon="21.27895">
        <ele>340.63824</ele>
        <time>2022-04-23T08:46:39.498Z</time>
      </trkpt>
      <trkpt lat="42.01727" lon="21.27884">
        <ele>340.874295</ele>
        <time>2022-04-23T08:46:42.512Z</time>
      </trkpt>
      <trkpt lat="42.01733" lon="21.27869">
        <ele>341.142529</ele>
        <time>2022-04-23T08:46:45.504Z</time>
      </trkpt>
      <trkpt lat="42.01739" lon="21.27857">
        <ele>341.387173</ele>
        <time>2022-04-23T08:46:48.541Z</time>
      </trkpt>
      <trkpt lat="42.01745" lon="21.27844">
        <ele>341.620251</ele>
        <time>2022-04-23T08:46:51.537Z</time>
      </trkpt>
      <trkpt lat="42.01749" lon="21.27831">
        <ele>341.851786</ele>
        <time>2022-04-23T08:46:54.516Z</time>
      </trkpt>
      <trkpt lat="42.01754" lon="21.2782">
        <ele>342.018823</ele>
        <time>2022-04-23T08:46:57.558Z</time>
      </trkpt>
      <trkpt lat="42.0176" lon="21.27808">
        <ele>342.084115</ele>
        <time>2022-04-23T08:47:00.500Z</time>
      </trkpt>
      <trkpt lat="42.01768" lon="21.27796">
        <ele>342.156114</ele>
        <time>2022-04-23T08:47:03.560Z</time>
      </trkpt>
      <trkpt lat="42.01774" lon="21.27785">
        <ele>342.220675</ele>
        <time>2022-04-23T08:47:06.494Z</time>
      </trkpt>
      <trkpt lat="42.0178" lon="21.27775">
        <ele>342.278702</ele>
        <time>2022-04-23T08:47:09.512Z</time>
      </trkpt>
      <trkpt lat="42.01788" lon="21.27763">
        <ele>342.352121</ele>
        <time>2022-04-23T08:47:13.525Z</time>
      </trkpt>
      <trkpt lat="42.01795" lon="21.27755">
        <ele>342.408366</ele>
        <time>2022-04-23T08:47:16.511Z</time>
      </trkpt>
      <trkpt lat="42.01804" lon="21.27748">
        <ele>342.471042</ele>
        <time>2022-04-23T08:47:19.514Z</time>
      </trkpt>
      <trkpt lat="42.01812" lon="21.2774">
        <ele>342.531683</ele>
        <time>2022-04-23T08:47:22.484Z</time>
      </trkpt>
      <trkpt lat="42.0182" lon="21.27731">
        <ele>342.59512</ele>
        <time>2022-04-23T08:47:25.559Z</time>
      </trkpt>
      <trkpt lat="42.01827" lon="21.2772">
        <ele>342.658073</ele>
        <time>2022-04-23T08:47:28.505Z</time>
      </trkpt>
      <trkpt lat="42.01834" lon="21.2771">
        <ele>342.723199</ele>
        <time>2022-04-23T08:47:31.519Z</time>
      </trkpt>
      <trkpt lat="42.0184" lon="21.27699">
        <ele>342.784115</ele>
        <time>2022-04-23T08:47:34.485Z</time>
      </trkpt>
      <trkpt lat="42.01845" lon="21.27689">
        <ele>342.841387</ele>
        <time>2022-04-23T08:47:37.512Z</time>
      </trkpt>
      <trkpt lat="42.01851" lon="21.2768">
        <ele>342.896957</ele>
        <time>2022-04-23T08:47:40.524Z</time>
      </trkpt>
      <trkpt lat="42.01858" lon="21.27669">
        <ele>342.958321</ele>
        <time>2022-04-23T08:47:43.512Z</time>
      </trkpt>
      <trkpt lat="42.01864" lon="21.27659">
        <ele>343.018297</ele>
        <time>2022-04-23T08:47:46.508Z</time>
      </trkpt>
      <trkpt lat="42.0187" lon="21.27649">
        <ele>343.080052</ele>
        <time>2022-04-23T08:47:49.532Z</time>
      </trkpt>
      <trkpt lat="42.01878" lon="21.27638">
        <ele>343.038395</ele>
        <time>2022-04-23T08:47:52.536Z</time>
      </trkpt>
      <trkpt lat="42.01885" lon="21.27629">
        <ele>342.964505</ele>
        <time>2022-04-23T08:47:55.489Z</time>
      </trkpt>
      <trkpt lat="42.01892" lon="21.27619">
        <ele>342.889574</ele>
        <time>2022-04-23T08:47:58.507Z</time>
      </trkpt>
      <trkpt lat="42.01899" lon="21.2761">
        <ele>342.817453</ele>
        <time>2022-04-23T08:48:01.516Z</time>
      </trkpt>
      <trkpt lat="42.01908" lon="21.27603">
        <ele>342.732392</ele>
        <time>2022-04-23T08:48:04.500Z</time>
      </trkpt>
      <trkpt lat="42.01919" lon="21.27594">
        <ele>342.638931</ele>
        <time>2022-04-23T08:48:07.560Z</time>
      </trkpt>
      <trkpt lat="42.01927" lon="21.27584">
        <ele>342.55325</ele>
        <time>2022-04-23T08:48:10.518Z</time>
      </trkpt>
      <trkpt lat="42.01934" lon="21.27574">
        <ele>342.478014</ele>
        <time>2022-04-23T08:48:13.503Z</time>
      </trkpt>
      <trkpt lat="42.01941" lon="21.27563">
        <ele>342.39359</ele>
        <time>2022-04-23T08:48:17.510Z</time>
      </trkpt>
      <trkpt lat="42.01947" lon="21.27551">
        <ele>342.31544</ele>
        <time>2022-04-23T08:48:21.479Z</time>
      </trkpt>
      <trkpt lat="42.01952" lon="21.2754">
        <ele>342.238706</ele>
        <time>2022-04-23T08:48:25.521Z</time>
      </trkpt>
      <trkpt lat="42.01957" lon="21.27529">
        <ele>342.168659</ele>
        <time>2022-04-23T08:48:28.508Z</time>
      </trkpt>
      <trkpt lat="42.01964" lon="21.27516">
        <ele>342.076003</ele>
        <time>2022-04-23T08:48:31.495Z</time>
      </trkpt>
      <trkpt lat="42.01972" lon="21.27501">
        <ele>341.973519</ele>
        <time>2022-04-23T08:48:34.528Z</time>
      </trkpt>
      <trkpt lat="42.01979" lon="21.27491">
        <ele>341.895821</ele>
        <time>2022-04-23T08:48:36.516Z</time>
      </trkpt>
      <trkpt lat="42.01986" lon="21.2748">
        <ele>341.815281</ele>
        <time>2022-04-23T08:48:38.515Z</time>
      </trkpt>
      <trkpt lat="42.01993" lon="21.27467">
        <ele>341.705142</ele>
        <time>2022-04-23T08:48:41.527Z</time>
      </trkpt>
      <trkpt lat="42.01999" lon="21.27457">
        <ele>341.517615</ele>
        <time>2022-04-23T08:48:44.533Z</time>
      </trkpt>
      <trkpt lat="42.02007" lon="21.27447">
        <ele>341.314375</ele>
        <time>2022-04-23T08:48:47.525Z</time>
      </trkpt>
      <trkpt lat="42.02014" lon="21.27437">
        <ele>341.119937</ele>
        <time>2022-04-23T08:48:50.513Z</time>
      </trkpt>
      <trkpt lat="42.02021" lon="21.27428">
        <ele>340.928558</ele>
        <time>2022-04-23T08:48:53.534Z</time>
      </trkpt>
      <trkpt lat="42.0203" lon="21.27417">
        <ele>340.700751</ele>
        <time>2022-04-23T08:48:56.533Z</time>
      </trkpt>
      <trkpt lat="42.02038" lon="21.27408">
        <ele>340.495012</ele>
        <time>2022-04-23T08:48:59.549Z</time>
      </trkpt>
      <trkpt lat="42.02048" lon="21.27399">
        <ele>340.272575</ele>
        <time>2022-04-23T08:49:02.493Z</time>
      </trkpt>
      <trkpt lat="42.02058" lon="21.27389">
        <ele>340.017208</ele>
        <time>2022-04-23T08:49:05.505Z</time>
      </trkpt>
      <trkpt lat="42.0207" lon="21.2738">
        <ele>339.757325</ele>
        <time>2022-04-23T08:49:08.510Z</time>
      </trkpt>
      <trkpt lat="42.02078" lon="21.27374">
        <ele>339.582087</ele>
        <time>2022-04-23T08:49:10.506Z</time>
      </trkpt>
      <trkpt lat="42.02089" lon="21.27367">
        <ele>339.340839</ele>
        <time>2022-04-23T08:49:13.521Z</time>
      </trkpt>
      <trkpt lat="42.021" lon="21.27358">
        <ele>339.099033</ele>
        <time>2022-04-23T08:49:16.529Z</time>
      </trkpt>
      <trkpt lat="42.02112" lon="21.27354">
        <ele>338.860883</ele>
        <time>2022-04-23T08:49:19.504Z</time>
      </trkpt>
      <trkpt lat="42.02124" lon="21.27351">
        <ele>338.627657</ele>
        <time>2022-04-23T08:49:22.500Z</time>
      </trkpt>
      <trkpt lat="42.02133" lon="21.27349">
        <ele>338.452934</ele>
        <time>2022-04-23T08:49:24.497Z</time>
      </trkpt>
      <trkpt lat="42.02143" lon="21.27348">
        <ele>338.261818</ele>
        <time>2022-04-23T08:49:26.545Z</time>
      </trkpt>
      <trkpt lat="42.02154" lon="21.27347">
        <ele>338.193101</ele>
        <time>2022-04-23T08:49:28.504Z</time>
      </trkpt>
      <trkpt lat="42.02165" lon="21.27347">
        <ele>338.124615</ele>
        <time>2022-04-23T08:49:30.510Z</time>
      </trkpt>
      <trkpt lat="42.02176" lon="21.27347">
        <ele>338.054861</ele>
        <time>2022-04-23T08:49:32.509Z</time>
      </trkpt>
      <trkpt lat="42.02186" lon="21.27345">
        <ele>337.989261</ele>
        <time>2022-04-23T08:49:34.516Z</time>
      </trkpt>
      <trkpt lat="42.02196" lon="21.27342">
        <ele>337.923774</ele>
        <time>2022-04-23T08:49:36.510Z</time>
      </trkpt>
      <trkpt lat="42.02205" lon="21.27339">
        <ele>337.863962</ele>
        <time>2022-04-23T08:49:38.514Z</time>
      </trkpt>
      <trkpt lat="42.02217" lon="21.27332">
        <ele>337.780841</ele>
        <time>2022-04-23T08:49:41.525Z</time>
      </trkpt>
      <trkpt lat="42.02227" lon="21.27328">
        <ele>337.713229</ele>
        <time>2022-04-23T08:49:44.522Z</time>
      </trkpt>
      <trkpt lat="42.02238" lon="21.27323">
        <ele>337.644395</ele>
        <time>2022-04-23T08:49:48.513Z</time>
      </trkpt>
      <trkpt lat="42.02248" lon="21.27317">
        <ele>337.574776</ele>
        <time>2022-04-23T08:49:52.516Z</time>
      </trkpt>
      <trkpt lat="42.02257" lon="21.27312">
        <ele>337.514058</ele>
        <time>2022-04-23T08:49:55.508Z</time>
      </trkpt>
      <trkpt lat="42.02264" lon="21.27305">
        <ele>337.45379</ele>
        <time>2022-04-23T08:49:58.519Z</time>
      </trkpt>
      <trkpt lat="42.02274" lon="21.27297">
        <ele>337.380417</ele>
        <time>2022-04-23T08:50:01.502Z</time>
      </trkpt>
      <trkpt lat="42.02285" lon="21.2729">
        <ele>337.304771</ele>
        <time>2022-04-23T08:50:04.516Z</time>
      </trkpt>
      <trkpt lat="42.02296" lon="21.27284">
        <ele>337.227657</ele>
        <time>2022-04-23T08:50:07.494Z</time>
      </trkpt>
      <trkpt lat="42.02307" lon="21.27278">
        <ele>337.153795</ele>
        <time>2022-04-23T08:50:10.510Z</time>
      </trkpt>
      <trkpt lat="42.02318" lon="21.27273">
        <ele>337.154865</ele>
        <time>2022-04-23T08:50:13.516Z</time>
      </trkpt>
      <trkpt lat="42.02328" lon="21.27267">
        <ele>337.211958</ele>
        <time>2022-04-23T08:50:16.556Z</time>
      </trkpt>
      <trkpt lat="42.02337" lon="21.27261">
        <ele>337.265249</ele>
        <time>2022-04-23T08:50:19.514Z</time>
      </trkpt>
      <trkpt lat="42.02345" lon="21.27256">
        <ele>337.312132</ele>
        <time>2022-04-23T08:50:22.514Z</time>
      </trkpt>
      <trkpt lat="42.02354" lon="21.27251">
        <ele>337.362672</ele>
        <time>2022-04-23T08:50:25.500Z</time>
      </trkpt>
      <trkpt lat="42.02364" lon="21.27246">
        <ele>337.416054</ele>
        <time>2022-04-23T08:50:28.501Z</time>
      </trkpt>
      <trkpt lat="42.02374" lon="21.27242">
        <ele>337.474225</ele>
        <time>2022-04-23T08:50:31.516Z</time>
      </trkpt>
      <trkpt lat="42.02385" lon="21.27238">
        <ele>337.532783</ele>
        <time>2022-04-23T08:50:34.509Z</time>
      </trkpt>
      <trkpt lat="42.02396" lon="21.27232">
        <ele>337.592685</ele>
        <time>2022-04-23T08:50:37.522Z</time>
      </trkpt>
      <trkpt lat="42.02406" lon="21.27227">
        <ele>337.647756</ele>
        <time>2022-04-23T08:50:40.516Z</time>
      </trkpt>
      <trkpt lat="42.02417" lon="21.27221">
        <ele>337.709911</ele>
        <time>2022-04-23T08:50:43.525Z</time>
      </trkpt>
      <trkpt lat="42.02428" lon="21.27214">
        <ele>337.774899</ele>
        <time>2022-04-23T08:50:46.512Z</time>
      </trkpt>
      <trkpt lat="42.02439" lon="21.27207">
        <ele>337.837997</ele>
        <time>2022-04-23T08:50:49.490Z</time>
      </trkpt>
      <trkpt lat="42.02449" lon="21.27202">
        <ele>337.893461</ele>
        <time>2022-04-23T08:50:52.510Z</time>
      </trkpt>
      <trkpt lat="42.02459" lon="21.27197">
        <ele>337.948519</ele>
        <time>2022-04-23T08:50:55.510Z</time>
      </trkpt>
      <trkpt lat="42.02469" lon="21.27189">
        <ele>338.006621</ele>
        <time>2022-04-23T08:50:58.503Z</time>
      </trkpt>
      <trkpt lat="42.02479" lon="21.27183">
        <ele>338.087791</ele>
        <time>2022-04-23T08:51:01.505Z</time>
      </trkpt>
      <trkpt lat="42.02487" lon="21.27178">
        <ele>338.368743</ele>
        <time>2022-04-23T08:51:04.493Z</time>
      </trkpt>
      <trkpt lat="42.02496" lon="21.2717">
        <ele>338.703431</ele>
        <time>2022-04-23T08:51:08.513Z</time>
      </trkpt>
      <trkpt lat="42.02505" lon="21.27165">
        <ele>338.986168</ele>
        <time>2022-04-23T08:51:11.509Z</time>
      </trkpt>
      <trkpt lat="42.02515" lon="21.27158">
        <ele>339.332412</ele>
        <time>2022-04-23T08:51:15.512Z</time>
      </trkpt>
      <trkpt lat="42.02526" lon="21.27151">
        <ele>339.690499</ele>
        <time>2022-04-23T08:51:19.522Z</time>
      </trkpt>
      <trkpt lat="42.02534" lon="21.27144">
        <ele>339.976058</ele>
        <time>2022-04-23T08:51:22.551Z</time>
      </trkpt>
      <trkpt lat="42.02542" lon="21.27136">
        <ele>340.269093</ele>
        <time>2022-04-23T08:51:25.491Z</time>
      </trkpt>
      <trkpt lat="42.02549" lon="21.27124">
        <ele>340.618762</ele>
        <time>2022-04-23T08:51:28.512Z</time>
      </trkpt>
      <trkpt lat="42.02554" lon="21.27113">
        <ele>340.904789</ele>
        <time>2022-04-23T08:51:31.511Z</time>
      </trkpt>
      <trkpt lat="42.0256" lon="21.27101">
        <ele>341.234942</ele>
        <time>2022-04-23T08:51:34.499Z</time>
      </trkpt>
      <trkpt lat="42.02565" lon="21.27089">
        <ele>341.538704</ele>
        <time>2022-04-23T08:51:37.502Z</time>
      </trkpt>
      <trkpt lat="42.02571" lon="21.27078">
        <ele>341.846801</ele>
        <time>2022-04-23T08:51:40.502Z</time>
      </trkpt>
      <trkpt lat="42.02576" lon="21.27068">
        <ele>342.124096</ele>
        <time>2022-04-23T08:51:45.495Z</time>
      </trkpt>
      <trkpt lat="42.02589" lon="21.27047">
        <ele>342.729064</ele>
        <time>2022-04-23T08:56:29.511Z</time>
      </trkpt>
      <trkpt lat="42.02598" lon="21.27038">
        <ele>343.072546</ele>
        <time>2022-04-23T08:56:32.494Z</time>
      </trkpt>
      <trkpt lat="42.02608" lon="21.27028">
        <ele>343.449468</ele>
        <time>2022-04-23T08:56:35.500Z</time>
      </trkpt>
      <trkpt lat="42.02618" lon="21.27018">
        <ele>343.361533</ele>
        <time>2022-04-23T08:56:38.521Z</time>
      </trkpt>
      <trkpt lat="42.02629" lon="21.27008">
        <ele>343.215076</ele>
        <time>2022-04-23T08:56:41.511Z</time>
      </trkpt>
      <trkpt lat="42.02637" lon="21.27002">
        <ele>343.102423</ele>
        <time>2022-04-23T08:56:43.519Z</time>
      </trkpt>
      <trkpt lat="42.02646" lon="21.26995">
        <ele>342.986604</ele>
        <time>2022-04-23T08:56:45.513Z</time>
      </trkpt>
      <trkpt lat="42.02656" lon="21.26989">
        <ele>342.863841</ele>
        <time>2022-04-23T08:56:47.514Z</time>
      </trkpt>
      <trkpt lat="42.02667" lon="21.26982">
        <ele>342.728275</ele>
        <time>2022-04-23T08:56:49.516Z</time>
      </trkpt>
      <trkpt lat="42.02678" lon="21.26976">
        <ele>342.590937</ele>
        <time>2022-04-23T08:56:51.498Z</time>
      </trkpt>
      <trkpt lat="42.02688" lon="21.26971">
        <ele>342.476295</ele>
        <time>2022-04-23T08:56:53.521Z</time>
      </trkpt>
      <trkpt lat="42.02696" lon="21.26965">
        <ele>342.368027</ele>
        <time>2022-04-23T08:56:55.544Z</time>
      </trkpt>
      <trkpt lat="42.02705" lon="21.26958">
        <ele>342.251861</ele>
        <time>2022-04-23T08:56:57.520Z</time>
      </trkpt>
      <trkpt lat="42.02714" lon="21.26949">
        <ele>342.132002</ele>
        <time>2022-04-23T08:56:59.503Z</time>
      </trkpt>
      <trkpt lat="42.02722" lon="21.26941">
        <ele>342.020362</ele>
        <time>2022-04-23T08:57:01.540Z</time>
      </trkpt>
      <trkpt lat="42.02732" lon="21.26932">
        <ele>341.876188</ele>
        <time>2022-04-23T08:57:04.494Z</time>
      </trkpt>
      <trkpt lat="42.02743" lon="21.26924">
        <ele>341.737975</ele>
        <time>2022-04-23T08:57:07.526Z</time>
      </trkpt>
      <trkpt lat="42.02752" lon="21.26914">
        <ele>341.610098</ele>
        <time>2022-04-23T08:57:10.513Z</time>
      </trkpt>
      <trkpt lat="42.02762" lon="21.26903">
        <ele>341.466162</ele>
        <time>2022-04-23T08:57:13.519Z</time>
      </trkpt>
      <trkpt lat="42.02768" lon="21.26895">
        <ele>341.524351</ele>
        <time>2022-04-23T08:57:15.516Z</time>
      </trkpt>
      <trkpt lat="42.02777" lon="21.26883">
        <ele>341.630686</ele>
        <time>2022-04-23T08:57:18.537Z</time>
      </trkpt>
      <trkpt lat="42.02786" lon="21.26872">
        <ele>341.725399</ele>
        <time>2022-04-23T08:57:21.511Z</time>
      </trkpt>
      <trkpt lat="42.02795" lon="21.26864">
        <ele>341.815728</ele>
        <time>2022-04-23T08:57:24.500Z</time>
      </trkpt>
      <trkpt lat="42.02805" lon="21.26856">
        <ele>341.907123</ele>
        <time>2022-04-23T08:57:27.536Z</time>
      </trkpt>
      <trkpt lat="42.02814" lon="21.26849">
        <ele>341.996246</ele>
        <time>2022-04-23T08:57:30.513Z</time>
      </trkpt>
      <trkpt lat="42.02824" lon="21.2684">
        <ele>342.091317</ele>
        <time>2022-04-23T08:57:33.502Z</time>
      </trkpt>
      <trkpt lat="42.02833" lon="21.26832">
        <ele>342.180051</ele>
        <time>2022-04-23T08:57:36.513Z</time>
      </trkpt>
      <trkpt lat="42.02842" lon="21.26826">
        <ele>342.260235</ele>
        <time>2022-04-23T08:57:39.500Z</time>
      </trkpt>
      <trkpt lat="42.02852" lon="21.26821">
        <ele>342.343879</ele>
        <time>2022-04-23T08:57:42.507Z</time>
      </trkpt>
      <trkpt lat="42.02861" lon="21.26816">
        <ele>342.423818</ele>
        <time>2022-04-23T08:57:45.539Z</time>
      </trkpt>
      <trkpt lat="42.0287" lon="21.26812">
        <ele>342.50441</ele>
        <time>2022-04-23T08:57:48.509Z</time>
      </trkpt>
      <trkpt lat="42.02881" lon="21.26807">
        <ele>342.594854</ele>
        <time>2022-04-23T08:57:52.508Z</time>
      </trkpt>
      <trkpt lat="42.02889" lon="21.26803">
        <ele>342.670557</ele>
        <time>2022-04-23T08:57:55.511Z</time>
      </trkpt>
      <trkpt lat="42.02898" lon="21.26797">
        <ele>342.747477</ele>
        <time>2022-04-23T08:57:58.509Z</time>
      </trkpt>
      <trkpt lat="42.02908" lon="21.2679">
        <ele>342.842732</ele>
        <time>2022-04-23T08:58:02.516Z</time>
      </trkpt>
      <trkpt lat="42.02917" lon="21.26785">
        <ele>342.920371</ele>
        <time>2022-04-23T08:58:05.532Z</time>
      </trkpt>
      <trkpt lat="42.02927" lon="21.26778">
        <ele>343.220563</ele>
        <time>2022-04-23T08:58:09.505Z</time>
      </trkpt>
      <trkpt lat="42.02935" lon="21.26773">
        <ele>343.468227</ele>
        <time>2022-04-23T08:58:12.511Z</time>
      </trkpt>
      <trkpt lat="42.02945" lon="21.26767">
        <ele>343.747892</ele>
        <time>2022-04-23T08:58:15.505Z</time>
      </trkpt>
      <trkpt lat="42.02955" lon="21.26759">
        <ele>344.056848</ele>
        <time>2022-04-23T08:58:19.544Z</time>
      </trkpt>
      <trkpt lat="42.02964" lon="21.26753">
        <ele>344.325352</ele>
        <time>2022-04-23T08:58:23.556Z</time>
      </trkpt>
      <trkpt lat="42.02974" lon="21.26747">
        <ele>344.622193</ele>
        <time>2022-04-23T08:58:27.510Z</time>
      </trkpt>
      <trkpt lat="42.02983" lon="21.26741">
        <ele>344.910907</ele>
        <time>2022-04-23T08:58:31.504Z</time>
      </trkpt>
      <trkpt lat="42.02993" lon="21.26735">
        <ele>345.209557</ele>
        <time>2022-04-23T08:58:35.505Z</time>
      </trkpt>
      <trkpt lat="42.03002" lon="21.26728">
        <ele>345.488557</ele>
        <time>2022-04-23T08:58:39.519Z</time>
      </trkpt>
      <trkpt lat="42.03012" lon="21.2672">
        <ele>345.807681</ele>
        <time>2022-04-23T08:58:43.532Z</time>
      </trkpt>
      <trkpt lat="42.0302" lon="21.26713">
        <ele>346.055902</ele>
        <time>2022-04-23T08:58:46.504Z</time>
      </trkpt>
      <trkpt lat="42.0303" lon="21.26706">
        <ele>346.37168</ele>
        <time>2022-04-23T08:58:50.505Z</time>
      </trkpt>
      <trkpt lat="42.03041" lon="21.26698">
        <ele>346.693513</ele>
        <time>2022-04-23T08:58:54.499Z</time>
      </trkpt>
      <trkpt lat="42.03052" lon="21.2669">
        <ele>347.021114</ele>
        <time>2022-04-23T08:58:58.549Z</time>
      </trkpt>
      <trkpt lat="42.0306" lon="21.26685">
        <ele>347.285111</ele>
        <time>2022-04-23T08:59:01.516Z</time>
      </trkpt>
      <trkpt lat="42.03069" lon="21.2668">
        <ele>347.530929</ele>
        <time>2022-04-23T08:59:04.482Z</time>
      </trkpt>
      <trkpt lat="42.03077" lon="21.26674">
        <ele>347.789636</ele>
        <time>2022-04-23T08:59:07.505Z</time>
      </trkpt>
      <trkpt lat="42.03085" lon="21.26668">
        <ele>347.986011</ele>
        <time>2022-04-23T08:59:10.499Z</time>
      </trkpt>
      <trkpt lat="42.03096" lon="21.26663">
        <ele>348.222132</ele>
        <time>2022-04-23T08:59:14.541Z</time>
      </trkpt>
      <trkpt lat="42.03104" lon="21.26658">
        <ele>348.421086</ele>
        <time>2022-04-23T08:59:18.519Z</time>
      </trkpt>
      <trkpt lat="42.03113" lon="21.26652">
        <ele>348.632346</ele>
        <time>2022-04-23T08:59:22.510Z</time>
      </trkpt>
      <trkpt lat="42.03123" lon="21.26646">
        <ele>348.867753</ele>
        <time>2022-04-23T08:59:26.512Z</time>
      </trkpt>
      <trkpt lat="42.03133" lon="21.2664">
        <ele>349.099856</ele>
        <time>2022-04-23T08:59:30.514Z</time>
      </trkpt>
      <trkpt lat="42.03143" lon="21.26633">
        <ele>349.354859</ele>
        <time>2022-04-23T08:59:34.502Z</time>
      </trkpt>
      <trkpt lat="42.03154" lon="21.26626">
        <ele>349.604093</ele>
        <time>2022-04-23T08:59:38.505Z</time>
      </trkpt>
      <trkpt lat="42.03163" lon="21.26618">
        <ele>349.84261</ele>
        <time>2022-04-23T08:59:42.531Z</time>
      </trkpt>
      <trkpt lat="42.03173" lon="21.2661">
        <ele>350.077873</ele>
        <time>2022-04-23T08:59:46.509Z</time>
      </trkpt>
      <trkpt lat="42.03183" lon="21.26603">
        <ele>350.318738</ele>
        <time>2022-04-23T08:59:50.524Z</time>
      </trkpt>
      <trkpt lat="42.03192" lon="21.26597">
        <ele>350.542946</ele>
        <time>2022-04-23T08:59:54.533Z</time>
      </trkpt>
      <trkpt lat="42.03201" lon="21.26589">
        <ele>350.778803</ele>
        <time>2022-04-23T08:59:59.520Z</time>
      </trkpt>
      <trkpt lat="42.03211" lon="21.26581">
        <ele>351.008347</ele>
        <time>2022-04-23T09:00:03.500Z</time>
      </trkpt>
      <trkpt lat="42.03217" lon="21.26572">
        <ele>351.224496</ele>
        <time>2022-04-23T09:00:07.526Z</time>
      </trkpt>
      <trkpt lat="42.03224" lon="21.2656">
        <ele>351.452031</ele>
        <time>2022-04-23T09:00:12.499Z</time>
      </trkpt>
      <trkpt lat="42.03229" lon="21.26549">
        <ele>351.620166</ele>
        <time>2022-04-23T09:00:16.504Z</time>
      </trkpt>
      <trkpt lat="42.03234" lon="21.26538">
        <ele>351.323117</ele>
        <time>2022-04-23T09:00:20.503Z</time>
      </trkpt>
      <trkpt lat="42.0324" lon="21.26523">
        <ele>350.956283</ele>
        <time>2022-04-23T09:00:24.523Z</time>
      </trkpt>
      <trkpt lat="42.03245" lon="21.2651">
        <ele>350.631012</ele>
        <time>2022-04-23T09:00:27.549Z</time>
      </trkpt>
      <trkpt lat="42.0325" lon="21.26495">
        <ele>350.26423</ele>
        <time>2022-04-23T09:00:30.507Z</time>
      </trkpt>
      <trkpt lat="42.03254" lon="21.2648">
        <ele>349.918817</ele>
        <time>2022-04-23T09:00:33.513Z</time>
      </trkpt>
      <trkpt lat="42.03257" lon="21.26468">
        <ele>349.64373</ele>
        <time>2022-04-23T09:00:35.538Z</time>
      </trkpt>
      <trkpt lat="42.0326" lon="21.26456">
        <ele>349.355995</ele>
        <time>2022-04-23T09:00:37.554Z</time>
      </trkpt>
      <trkpt lat="42.03263" lon="21.26444">
        <ele>349.075127</ele>
        <time>2022-04-23T09:00:39.513Z</time>
      </trkpt>
      <trkpt lat="42.03265" lon="21.26431">
        <ele>348.785907</ele>
        <time>2022-04-23T09:00:41.490Z</time>
      </trkpt>
      <trkpt lat="42.03266" lon="21.26417">
        <ele>348.47749</ele>
        <time>2022-04-23T09:00:43.486Z</time>
      </trkpt>
      <trkpt lat="42.03264" lon="21.26404">
        <ele>348.180255</ele>
        <time>2022-04-23T09:00:45.489Z</time>
      </trkpt>
      <trkpt lat="42.0326" lon="21.26392">
        <ele>347.887209</ele>
        <time>2022-04-23T09:00:47.532Z</time>
      </trkpt>
      <trkpt lat="42.03257" lon="21.26379">
        <ele>347.602814</ele>
        <time>2022-04-23T09:00:49.503Z</time>
      </trkpt>
      <trkpt lat="42.03255" lon="21.26367">
        <ele>347.317901</ele>
        <time>2022-04-23T09:00:51.513Z</time>
      </trkpt>
      <trkpt lat="42.03255" lon="21.26351">
        <ele>346.975711</ele>
        <time>2022-04-23T09:00:53.512Z</time>
      </trkpt>
      <trkpt lat="42.0326" lon="21.26333">
        <ele>346.53715</ele>
        <time>2022-04-23T09:00:55.503Z</time>
      </trkpt>
      <trkpt lat="42.03269" lon="21.26314">
        <ele>346.140907</ele>
        <time>2022-04-23T09:00:57.521Z</time>
      </trkpt>
      <trkpt lat="42.03273" lon="21.26294">
        <ele>345.867163</ele>
        <time>2022-04-23T09:00:59.558Z</time>
      </trkpt>
      <trkpt lat="42.03273" lon="21.26277">
        <ele>345.632548</ele>
        <time>2022-04-23T09:01:01.488Z</time>
      </trkpt>
      <trkpt lat="42.03273" lon="21.26264">
        <ele>345.45485</ele>
        <time>2022-04-23T09:01:03.514Z</time>
      </trkpt>
      <trkpt lat="42.03278" lon="21.26252">
        <ele>345.278403</ele>
        <time>2022-04-23T09:01:05.507Z</time>
      </trkpt>
      <trkpt lat="42.03284" lon="21.2624">
        <ele>345.074657</ele>
        <time>2022-04-23T09:01:07.504Z</time>
      </trkpt>
      <trkpt lat="42.03291" lon="21.26226">
        <ele>344.847048</ele>
        <time>2022-04-23T09:01:09.516Z</time>
      </trkpt>
      <trkpt lat="42.03296" lon="21.26211">
        <ele>344.625653</ele>
        <time>2022-04-23T09:01:11.510Z</time>
      </trkpt>
      <trkpt lat="42.03301" lon="21.26197">
        <ele>344.414305</ele>
        <time>2022-04-23T09:01:13.495Z</time>
      </trkpt>
      <trkpt lat="42.03306" lon="21.26184">
        <ele>344.219038</ele>
        <time>2022-04-23T09:01:15.556Z</time>
      </trkpt>
      <trkpt lat="42.03311" lon="21.26172">
        <ele>344.03057</ele>
        <time>2022-04-23T09:01:17.511Z</time>
      </trkpt>
      <trkpt lat="42.03317" lon="21.2616">
        <ele>343.826497</ele>
        <time>2022-04-23T09:01:19.503Z</time>
      </trkpt>
      <trkpt lat="42.03324" lon="21.26146">
        <ele>343.605288</ele>
        <time>2022-04-23T09:01:21.492Z</time>
      </trkpt>
      <trkpt lat="42.03329" lon="21.26131">
        <ele>343.380578</ele>
        <time>2022-04-23T09:01:23.494Z</time>
      </trkpt>
      <trkpt lat="42.03332" lon="21.26115">
        <ele>343.16574</ele>
        <time>2022-04-23T09:01:25.503Z</time>
      </trkpt>
      <trkpt lat="42.03334" lon="21.26102">
        <ele>342.972852</ele>
        <time>2022-04-23T09:01:27.498Z</time>
      </trkpt>
      <trkpt lat="42.03337" lon="21.26088">
        <ele>342.775462</ele>
        <time>2022-04-23T09:01:29.519Z</time>
      </trkpt>
      <trkpt lat="42.03341" lon="21.26076">
        <ele>342.582016</ele>
        <time>2022-04-23T09:01:31.508Z</time>
      </trkpt>
      <trkpt lat="42.03345" lon="21.26064">
        <ele>342.397576</ele>
        <time>2022-04-23T09:01:33.511Z</time>
      </trkpt>
      <trkpt lat="42.03351" lon="21.26048">
        <ele>342.143002</ele>
        <time>2022-04-23T09:01:36.505Z</time>
      </trkpt>
      <trkpt lat="42.03354" lon="21.26035">
        <ele>341.951479</ele>
        <time>2022-04-23T09:01:38.519Z</time>
      </trkpt>
      <trkpt lat="42.03359" lon="21.2602">
        <ele>341.718829</ele>
        <time>2022-04-23T09:01:40.501Z</time>
      </trkpt>
      <trkpt lat="42.03363" lon="21.26004">
        <ele>341.477347</ele>
        <time>2022-04-23T09:01:42.522Z</time>
      </trkpt>
      <trkpt lat="42.03366" lon="21.25988">
        <ele>341.248704</ele>
        <time>2022-04-23T09:01:44.507Z</time>
      </trkpt>
      <trkpt lat="42.03369" lon="21.25974">
        <ele>341.03673</ele>
        <time>2022-04-23T09:01:46.505Z</time>
      </trkpt>
      <trkpt lat="42.03371" lon="21.2596">
        <ele>340.839439</ele>
        <time>2022-04-23T09:01:48.527Z</time>
      </trkpt>
      <trkpt lat="42.03372" lon="21.25948">
        <ele>340.662357</ele>
        <time>2022-04-23T09:01:50.496Z</time>
      </trkpt>
      <trkpt lat="42.0337" lon="21.25935">
        <ele>340.480043</ele>
        <time>2022-04-23T09:01:53.511Z</time>
      </trkpt>
      <trkpt lat="42.03366" lon="21.25923">
        <ele>340.28887</ele>
        <time>2022-04-23T09:02:01.511Z</time>
      </trkpt>
      <trkpt lat="42.03364" lon="21.2591">
        <ele>340.097543</ele>
        <time>2022-04-23T09:02:07.513Z</time>
      </trkpt>
      <trkpt lat="42.03362" lon="21.25896">
        <ele>339.895284</ele>
        <time>2022-04-23T09:02:12.514Z</time>
      </trkpt>
      <trkpt lat="42.03361" lon="21.25881">
        <ele>339.693024</ele>
        <time>2022-04-23T09:02:17.507Z</time>
      </trkpt>
      <trkpt lat="42.03361" lon="21.25868">
        <ele>339.802495</ele>
        <time>2022-04-23T09:02:21.493Z</time>
      </trkpt>
      <trkpt lat="42.03361" lon="21.25853">
        <ele>340.389364</ele>
        <time>2022-04-23T09:02:26.499Z</time>
      </trkpt>
      <trkpt lat="42.0336" lon="21.2584">
        <ele>340.914565</ele>
        <time>2022-04-23T09:02:30.507Z</time>
      </trkpt>
      <trkpt lat="42.03359" lon="21.25826">
        <ele>341.438514</ele>
        <time>2022-04-23T09:02:34.517Z</time>
      </trkpt>
      <trkpt lat="42.03358" lon="21.25812">
        <ele>341.977917</ele>
        <time>2022-04-23T09:02:38.531Z</time>
      </trkpt>
      <trkpt lat="42.03357" lon="21.25799">
        <ele>342.51876</ele>
        <time>2022-04-23T09:02:42.525Z</time>
      </trkpt>
      <trkpt lat="42.03356" lon="21.25785">
        <ele>343.044701</ele>
        <time>2022-04-23T09:02:46.509Z</time>
      </trkpt>
      <trkpt lat="42.03356" lon="21.25772">
        <ele>343.543507</ele>
        <time>2022-04-23T09:02:50.510Z</time>
      </trkpt>
      <trkpt lat="42.03355" lon="21.25759">
        <ele>344.045535</ele>
        <time>2022-04-23T09:02:54.542Z</time>
      </trkpt>
      <trkpt lat="42.03356" lon="21.25747">
        <ele>344.520137</ele>
        <time>2022-04-23T09:02:58.520Z</time>
      </trkpt>
      <trkpt lat="42.03356" lon="21.25734">
        <ele>345.015482</ele>
        <time>2022-04-23T09:03:02.518Z</time>
      </trkpt>
      <trkpt lat="42.03359" lon="21.25723">
        <ele>345.492075</ele>
        <time>2022-04-23T09:03:06.485Z</time>
      </trkpt>
      <trkpt lat="42.03361" lon="21.25709">
        <ele>346.042327</ele>
        <time>2022-04-23T09:03:11.516Z</time>
      </trkpt>
      <trkpt lat="42.03364" lon="21.25696">
        <ele>346.587013</ele>
        <time>2022-04-23T09:03:16.553Z</time>
      </trkpt>
      <trkpt lat="42.0337" lon="21.25683">
        <ele>347.146393</ele>
        <time>2022-04-23T09:03:22.514Z</time>
      </trkpt>
      <trkpt lat="42.03376" lon="21.25671">
        <ele>347.714496</ele>
        <time>2022-04-23T09:03:28.518Z</time>
      </trkpt>
      <trkpt lat="42.03381" lon="21.2566">
        <ele>348.229838</ele>
        <time>2022-04-23T09:03:33.503Z</time>
      </trkpt>
      <trkpt lat="42.03387" lon="21.2565">
        <ele>348.726169</ele>
        <time>2022-04-23T09:03:37.524Z</time>
      </trkpt>
      <trkpt lat="42.03393" lon="21.25639">
        <ele>349.153702</ele>
        <time>2022-04-23T09:03:41.518Z</time>
      </trkpt>
      <trkpt lat="42.03398" lon="21.25628">
        <ele>349.46567</ele>
        <time>2022-04-23T09:03:45.502Z</time>
      </trkpt>
      <trkpt lat="42.03403" lon="21.25614">
        <ele>349.82649</ele>
        <time>2022-04-23T09:03:49.522Z</time>
      </trkpt>
      <trkpt lat="42.03408" lon="21.25601">
        <ele>350.196446</ele>
        <time>2022-04-23T09:03:53.512Z</time>
      </trkpt>
      <trkpt lat="42.03414" lon="21.25587">
        <ele>350.568807</ele>
        <time>2022-04-23T09:03:57.522Z</time>
      </trkpt>
      <trkpt lat="42.03421" lon="21.25576">
        <ele>350.909874</ele>
        <time>2022-04-23T09:04:01.522Z</time>
      </trkpt>
      <trkpt lat="42.03428" lon="21.25569">
        <ele>351.222824</ele>
        <time>2022-04-23T09:04:05.558Z</time>
      </trkpt>
      <trkpt lat="42.03438" lon="21.25561">
        <ele>351.582156</ele>
        <time>2022-04-23T09:04:09.512Z</time>
      </trkpt>
      <trkpt lat="42.03447" lon="21.25554">
        <ele>351.913063</ele>
        <time>2022-04-23T09:04:13.514Z</time>
      </trkpt>
      <trkpt lat="42.03454" lon="21.25548">
        <ele>352.204557</ele>
        <time>2022-04-23T09:04:17.503Z</time>
      </trkpt>
      <trkpt lat="42.03462" lon="21.25541">
        <ele>352.508066</ele>
        <time>2022-04-23T09:04:21.498Z</time>
      </trkpt>
      <trkpt lat="42.0347" lon="21.25532">
        <ele>352.833967</ele>
        <time>2022-04-23T09:04:25.508Z</time>
      </trkpt>
      <trkpt lat="42.03478" lon="21.25525">
        <ele>353.145931</ele>
        <time>2022-04-23T09:04:28.518Z</time>
      </trkpt>
      <trkpt lat="42.03489" lon="21.25514">
        <ele>353.582908</ele>
        <time>2022-04-23T09:04:31.505Z</time>
      </trkpt>
      <trkpt lat="42.03498" lon="21.25505">
        <ele>353.937413</ele>
        <time>2022-04-23T09:04:33.505Z</time>
      </trkpt>
      <trkpt lat="42.03507" lon="21.25496">
        <ele>354.320164</ele>
        <time>2022-04-23T09:04:35.514Z</time>
      </trkpt>
      <trkpt lat="42.03518" lon="21.25487">
        <ele>354.729759</ele>
        <time>2022-04-23T09:04:37.516Z</time>
      </trkpt>
      <trkpt lat="42.03529" lon="21.25477">
        <ele>354.858867</ele>
        <time>2022-04-23T09:04:39.509Z</time>
      </trkpt>
      <trkpt lat="42.0354" lon="21.25467">
        <ele>354.905949</ele>
        <time>2022-04-23T09:04:41.516Z</time>
      </trkpt>
      <trkpt lat="42.03548" lon="21.25456">
        <ele>354.948141</ele>
        <time>2022-04-23T09:04:43.512Z</time>
      </trkpt>
      <trkpt lat="42.03554" lon="21.25443">
        <ele>354.989718</ele>
        <time>2022-04-23T09:04:45.505Z</time>
      </trkpt>
      <trkpt lat="42.03557" lon="21.25428">
        <ele>355.032003</ele>
        <time>2022-04-23T09:04:47.552Z</time>
      </trkpt>
      <trkpt lat="42.0356" lon="21.25415">
        <ele>355.068855</ele>
        <time>2022-04-23T09:04:49.495Z</time>
      </trkpt>
      <trkpt lat="42.03565" lon="21.25404">
        <ele>355.10438</ele>
        <time>2022-04-23T09:04:51.500Z</time>
      </trkpt>
      <trkpt lat="42.03571" lon="21.25393">
        <ele>355.141171</ele>
        <time>2022-04-23T09:04:53.501Z</time>
      </trkpt>
      <trkpt lat="42.03576" lon="21.25381">
        <ele>355.177208</ele>
        <time>2022-04-23T09:04:55.600Z</time>
      </trkpt>
      <trkpt lat="42.03581" lon="21.2537">
        <ele>355.213475</ele>
        <time>2022-04-23T09:04:57.502Z</time>
      </trkpt>
      <trkpt lat="42.03586" lon="21.25358">
        <ele>355.250539</ele>
        <time>2022-04-23T09:04:59.509Z</time>
      </trkpt>
      <trkpt lat="42.03591" lon="21.25347">
        <ele>355.286011</ele>
        <time>2022-04-23T09:05:01.487Z</time>
      </trkpt>
      <trkpt lat="42.03596" lon="21.25335">
        <ele>355.321832</ele>
        <time>2022-04-23T09:05:03.507Z</time>
      </trkpt>
      <trkpt lat="42.036" lon="21.25323">
        <ele>355.358531</ele>
        <time>2022-04-23T09:05:05.498Z</time>
      </trkpt>
      <trkpt lat="42.03604" lon="21.2531">
        <ele>355.396569</ele>
        <time>2022-04-23T09:05:07.520Z</time>
      </trkpt>
      <trkpt lat="42.03608" lon="21.25297">
        <ele>355.435606</ele>
        <time>2022-04-23T09:05:09.543Z</time>
      </trkpt>
      <trkpt lat="42.03612" lon="21.25283">
        <ele>355.474615</ele>
        <time>2022-04-23T09:05:11.495Z</time>
      </trkpt>
      <trkpt lat="42.03616" lon="21.2527">
        <ele>355.714256</ele>
        <time>2022-04-23T09:05:13.517Z</time>
      </trkpt>
      <trkpt lat="42.03621" lon="21.25258">
        <ele>355.954305</ele>
        <time>2022-04-23T09:05:15.505Z</time>
      </trkpt>
      <trkpt lat="42.03628" lon="21.25248">
        <ele>356.197838</ele>
        <time>2022-04-23T09:05:17.512Z</time>
      </trkpt>
      <trkpt lat="42.03637" lon="21.25236">
        <ele>356.512319</ele>
        <time>2022-04-23T09:05:20.508Z</time>
      </trkpt>
      <trkpt lat="42.03645" lon="21.25224">
        <ele>356.790246</ele>
        <time>2022-04-23T09:05:23.521Z</time>
      </trkpt>
      <trkpt lat="42.03653" lon="21.25215">
        <ele>357.026573</ele>
        <time>2022-04-23T09:05:26.511Z</time>
      </trkpt>
      <trkpt lat="42.0366" lon="21.25207">
        <ele>357.247972</ele>
        <time>2022-04-23T09:05:29.492Z</time>
      </trkpt>
      <trkpt lat="42.03668" lon="21.25198">
        <ele>357.505493</ele>
        <time>2022-04-23T09:05:33.534Z</time>
      </trkpt>
      <trkpt lat="42.03677" lon="21.2519">
        <ele>357.744765</ele>
        <time>2022-04-23T09:05:37.527Z</time>
      </trkpt>
      <trkpt lat="42.03686" lon="21.25183">
        <ele>358.000131</ele>
        <time>2022-04-23T09:05:42.503Z</time>
      </trkpt>
      <trkpt lat="42.03694" lon="21.25177">
        <ele>358.21284</ele>
        <time>2022-04-23T09:05:46.512Z</time>
      </trkpt>
      <trkpt lat="42.03702" lon="21.25171">
        <ele>358.429</ele>
        <time>2022-04-23T09:05:50.500Z</time>
      </trkpt>
      <trkpt lat="42.03709" lon="21.25163">
        <ele>358.648674</ele>
        <time>2022-04-23T09:05:55.546Z</time>
      </trkpt>
      <trkpt lat="42.03718" lon="21.25158">
        <ele>358.867636</ele>
        <time>2022-04-23T09:06:00.497Z</time>
      </trkpt>
      <trkpt lat="42.03725" lon="21.2515">
        <ele>359.090881</ele>
        <time>2022-04-23T09:06:07.508Z</time>
      </trkpt>
      <trkpt lat="42.03733" lon="21.25142">
        <ele>359.322276</ele>
        <time>2022-04-23T09:06:16.487Z</time>
      </trkpt>
      <trkpt lat="42.03741" lon="21.25135">
        <ele>359.558572</ele>
        <time>2022-04-23T09:06:22.494Z</time>
      </trkpt>
      <trkpt lat="42.03749" lon="21.25127">
        <ele>359.76791</ele>
        <time>2022-04-23T09:06:28.501Z</time>
      </trkpt>
      <trkpt lat="42.03757" lon="21.2512">
        <ele>359.946506</ele>
        <time>2022-04-23T09:06:37.522Z</time>
      </trkpt>
      <trkpt lat="42.03765" lon="21.25115">
        <ele>360.120571</ele>
        <time>2022-04-23T09:06:44.495Z</time>
      </trkpt>
      <trkpt lat="42.03774" lon="21.2511">
        <ele>360.307972</ele>
        <time>2022-04-23T09:06:51.537Z</time>
      </trkpt>
      <trkpt lat="42.03782" lon="21.25103">
        <ele>360.496014</ele>
        <time>2022-04-23T09:06:58.515Z</time>
      </trkpt>
      <trkpt lat="42.03792" lon="21.25098">
        <ele>360.686956</ele>
        <time>2022-04-23T09:07:05.493Z</time>
      </trkpt>
      <trkpt lat="42.038" lon="21.25094">
        <ele>360.860168</ele>
        <time>2022-04-23T09:07:12.514Z</time>
      </trkpt>
      <trkpt lat="42.03809" lon="21.2509">
        <ele>361.035643</ele>
        <time>2022-04-23T09:07:20.506Z</time>
      </trkpt>
      <trkpt lat="42.03819" lon="21.25087">
        <ele>361.234204</ele>
        <time>2022-04-23T09:07:27.494Z</time>
      </trkpt>
      <trkpt lat="42.03829" lon="21.25087">
        <ele>361.427616</ele>
        <time>2022-04-23T09:07:33.499Z</time>
      </trkpt>
      <trkpt lat="42.03838" lon="21.25084">
        <ele>361.602415</ele>
        <time>2022-04-23T09:07:37.514Z</time>
      </trkpt>
      <trkpt lat="42.0385" lon="21.25083">
        <ele>361.834597</ele>
        <time>2022-04-23T09:07:41.517Z</time>
      </trkpt>
      <trkpt lat="42.03861" lon="21.25083">
        <ele>362.03944</ele>
        <time>2022-04-23T09:07:44.512Z</time>
      </trkpt>
      <trkpt lat="42.03873" lon="21.25082">
        <ele>362.263629</ele>
        <time>2022-04-23T09:07:47.539Z</time>
      </trkpt>
      <trkpt lat="42.03884" lon="21.2508">
        <ele>362.491407</ele>
        <time>2022-04-23T09:07:50.545Z</time>
      </trkpt>
      <trkpt lat="42.03896" lon="21.25078">
        <ele>362.720568</ele>
        <time>2022-04-23T09:07:53.538Z</time>
      </trkpt>
      <trkpt lat="42.03906" lon="21.25077">
        <ele>362.911382</ele>
        <time>2022-04-23T09:07:56.507Z</time>
      </trkpt>
      <trkpt lat="42.03917" lon="21.25074">
        <ele>363.126301</ele>
        <time>2022-04-23T09:08:00.503Z</time>
      </trkpt>
      <trkpt lat="42.03927" lon="21.25073">
        <ele>363.075856</ele>
        <time>2022-04-23T09:08:04.526Z</time>
      </trkpt>
      <trkpt lat="42.03937" lon="21.25071">
        <ele>362.960874</ele>
        <time>2022-04-23T09:08:08.521Z</time>
      </trkpt>
      <trkpt lat="42.03948" lon="21.25071">
        <ele>362.826739</ele>
        <time>2022-04-23T09:08:12.508Z</time>
      </trkpt>
      <trkpt lat="42.03958" lon="21.2507">
        <ele>362.709329</ele>
        <time>2022-04-23T09:08:15.487Z</time>
      </trkpt>
      <trkpt lat="42.0397" lon="21.2507">
        <ele>362.564466</ele>
        <time>2022-04-23T09:08:18.494Z</time>
      </trkpt>
      <trkpt lat="42.03983" lon="21.25071">
        <ele>362.409986</ele>
        <time>2022-04-23T09:08:21.532Z</time>
      </trkpt>
      <trkpt lat="42.03996" lon="21.2507">
        <ele>362.257875</ele>
        <time>2022-04-23T09:08:24.489Z</time>
      </trkpt>
      <trkpt lat="42.04005" lon="21.25071">
        <ele>362.148871</ele>
        <time>2022-04-23T09:08:26.504Z</time>
      </trkpt>
      <trkpt lat="42.04014" lon="21.25071">
        <ele>362.035105</ele>
        <time>2022-04-23T09:08:28.525Z</time>
      </trkpt>
      <trkpt lat="42.04024" lon="21.25072">
        <ele>361.917614</ele>
        <time>2022-04-23T09:08:30.516Z</time>
      </trkpt>
      <trkpt lat="42.04034" lon="21.25072">
        <ele>361.794221</ele>
        <time>2022-04-23T09:08:32.511Z</time>
      </trkpt>
      <trkpt lat="42.04045" lon="21.25073">
        <ele>361.66365</ele>
        <time>2022-04-23T09:08:34.514Z</time>
      </trkpt>
      <trkpt lat="42.04055" lon="21.25073">
        <ele>361.540222</ele>
        <time>2022-04-23T09:08:36.489Z</time>
      </trkpt>
      <trkpt lat="42.04066" lon="21.25073">
        <ele>361.419222</ele>
        <time>2022-04-23T09:08:38.534Z</time>
      </trkpt>
      <trkpt lat="42.04075" lon="21.25072">
        <ele>361.305206</ele>
        <time>2022-04-23T09:08:40.500Z</time>
      </trkpt>
      <trkpt lat="42.04085" lon="21.25071">
        <ele>361.189859</ele>
        <time>2022-04-23T09:08:42.496Z</time>
      </trkpt>
      <trkpt lat="42.04094" lon="21.2507">
        <ele>361.07226</ele>
        <time>2022-04-23T09:08:44.511Z</time>
      </trkpt>
      <trkpt lat="42.04104" lon="21.25069">
        <ele>361.082228</ele>
        <time>2022-04-23T09:08:46.496Z</time>
      </trkpt>
      <trkpt lat="42.04115" lon="21.25065">
        <ele>361.245558</ele>
        <time>2022-04-23T09:08:49.537Z</time>
      </trkpt>
      <trkpt lat="42.04126" lon="21.2506">
        <ele>361.406532</ele>
        <time>2022-04-23T09:08:52.494Z</time>
      </trkpt>
      <trkpt lat="42.04136" lon="21.25057">
        <ele>361.542264</ele>
        <time>2022-04-23T09:08:55.531Z</time>
      </trkpt>
      <trkpt lat="42.04145" lon="21.25053">
        <ele>361.670182</ele>
        <time>2022-04-23T09:08:58.555Z</time>
      </trkpt>
      <trkpt lat="42.04154" lon="21.25051">
        <ele>361.801251</ele>
        <time>2022-04-23T09:09:01.497Z</time>
      </trkpt>
      <trkpt lat="42.04164" lon="21.25051">
        <ele>361.929353</ele>
        <time>2022-04-23T09:09:04.513Z</time>
      </trkpt>
      <trkpt lat="42.04173" lon="21.25052">
        <ele>362.060292</ele>
        <time>2022-04-23T09:09:07.502Z</time>
      </trkpt>
      <trkpt lat="42.04184" lon="21.25053">
        <ele>362.214154</ele>
        <time>2022-04-23T09:09:11.543Z</time>
      </trkpt>
      <trkpt lat="42.04194" lon="21.25057">
        <ele>362.349803</ele>
        <time>2022-04-23T09:09:15.498Z</time>
      </trkpt>
      <trkpt lat="42.04204" lon="21.25062">
        <ele>362.503827</ele>
        <time>2022-04-23T09:09:20.504Z</time>
      </trkpt>
      <trkpt lat="42.04215" lon="21.25067">
        <ele>362.657714</ele>
        <time>2022-04-23T09:09:25.486Z</time>
      </trkpt>
      <trkpt lat="42.04224" lon="21.25074">
        <ele>362.806484</ele>
        <time>2022-04-23T09:09:30.481Z</time>
      </trkpt>
      <trkpt lat="42.04234" lon="21.2508">
        <ele>362.958539</ele>
        <time>2022-04-23T09:09:35.474Z</time>
      </trkpt>
      <trkpt lat="42.04243" lon="21.25087">
        <ele>363.104425</ele>
        <time>2022-04-23T09:09:40.474Z</time>
      </trkpt>
      <trkpt lat="42.04251" lon="21.25096">
        <ele>363.243518</ele>
        <time>2022-04-23T09:09:45.480Z</time>
      </trkpt>
      <trkpt lat="42.04259" lon="21.25104">
        <ele>363.384505</ele>
        <time>2022-04-23T09:09:51.477Z</time>
      </trkpt>
      <trkpt lat="42.04268" lon="21.25112">
        <ele>363.633835</ele>
        <time>2022-04-23T09:09:57.478Z</time>
      </trkpt>
      <trkpt lat="42.04276" lon="21.25121">
        <ele>364.24176</ele>
        <time>2022-04-23T09:10:03.478Z</time>
      </trkpt>
      <trkpt lat="42.04283" lon="21.2513">
        <ele>364.803397</ele>
        <time>2022-04-23T09:10:09.476Z</time>
      </trkpt>
      <trkpt lat="42.0429" lon="21.25138">
        <ele>365.334812</ele>
        <time>2022-04-23T09:10:15.476Z</time>
      </trkpt>
      <trkpt lat="42.04296" lon="21.25148">
        <ele>365.899438</ele>
        <time>2022-04-23T09:10:21.473Z</time>
      </trkpt>
      <trkpt lat="42.04303" lon="21.25157">
        <ele>366.443134</ele>
        <time>2022-04-23T09:10:28.500Z</time>
      </trkpt>
      <trkpt lat="42.04309" lon="21.25165">
        <ele>366.974122</ele>
        <time>2022-04-23T09:10:34.471Z</time>
      </trkpt>
      <trkpt lat="42.04318" lon="21.25173">
        <ele>367.561899</ele>
        <time>2022-04-23T09:10:41.473Z</time>
      </trkpt>
      <trkpt lat="42.04325" lon="21.25181">
        <ele>368.133566</ele>
        <time>2022-04-23T09:10:48.473Z</time>
      </trkpt>
      <trkpt lat="42.04332" lon="21.2519">
        <ele>368.684722</ele>
        <time>2022-04-23T09:10:54.480Z</time>
      </trkpt>
      <trkpt lat="42.04339" lon="21.25198">
        <ele>369.219179</ele>
        <time>2022-04-23T09:11:00.479Z</time>
      </trkpt>
      <trkpt lat="42.04345" lon="21.25208">
        <ele>369.761687</ele>
        <time>2022-04-23T09:11:07.478Z</time>
      </trkpt>
      <trkpt lat="42.04353" lon="21.25218">
        <ele>370.380858</ele>
        <time>2022-04-23T09:11:14.471Z</time>
      </trkpt>
      <trkpt lat="42.0436" lon="21.25225">
        <ele>370.920526</ele>
        <time>2022-04-23T09:11:20.487Z</time>
      </trkpt>
      <trkpt lat="42.04369" lon="21.2523">
        <ele>371.480946</ele>
        <time>2022-04-23T09:11:28.475Z</time>
      </trkpt>
      <trkpt lat="42.04378" lon="21.25237">
        <ele>372.069332</ele>
        <time>2022-04-23T09:11:35.482Z</time>
      </trkpt>
      <trkpt lat="42.04384" lon="21.25245">
        <ele>372.599666</ele>
        <time>2022-04-23T09:11:42.473Z</time>
      </trkpt>
      <trkpt lat="42.04393" lon="21.25253">
        <ele>373.219177</ele>
        <time>2022-04-23T09:11:49.500Z</time>
      </trkpt>
      <trkpt lat="42.04401" lon="21.25261">
        <ele>373.825297</ele>
        <time>2022-04-23T09:11:55.500Z</time>
      </trkpt>
      <trkpt lat="42.0441" lon="21.2527">
        <ele>373.728348</ele>
        <time>2022-04-23T09:12:01.474Z</time>
      </trkpt>
      <trkpt lat="42.04419" lon="21.25279">
        <ele>373.379623</ele>
        <time>2022-04-23T09:12:06.505Z</time>
      </trkpt>
      <trkpt lat="42.04427" lon="21.25288">
        <ele>373.05397</ele>
        <time>2022-04-23T09:12:09.476Z</time>
      </trkpt>
      <trkpt lat="42.04434" lon="21.25297">
        <ele>372.744067</ele>
        <time>2022-04-23T09:12:11.482Z</time>
      </trkpt>
      <trkpt lat="42.04442" lon="21.25309">
        <ele>372.359837</ele>
        <time>2022-04-23T09:12:13.478Z</time>
      </trkpt>
      <trkpt lat="42.04447" lon="21.25324">
        <ele>371.96822</ele>
        <time>2022-04-23T09:12:15.485Z</time>
      </trkpt>
      <trkpt lat="42.0445" lon="21.2534">
        <ele>371.596681</ele>
        <time>2022-04-23T09:12:17.475Z</time>
      </trkpt>
      <trkpt lat="42.04461" lon="21.25349">
        <ele>371.191487</ele>
        <time>2022-04-23T09:12:20.478Z</time>
      </trkpt>
      <trkpt lat="42.0447" lon="21.25346">
        <ele>370.866655</ele>
        <time>2022-04-23T09:12:22.510Z</time>
      </trkpt>
      <trkpt lat="42.04484" lon="21.25344">
        <ele>370.441536</ele>
        <time>2022-04-23T09:12:25.482Z</time>
      </trkpt>
      <trkpt lat="42.04495" lon="21.25347">
        <ele>370.090257</ele>
        <time>2022-04-23T09:12:27.473Z</time>
      </trkpt>
      <trkpt lat="42.04508" lon="21.25353">
        <ele>369.636304</ele>
        <time>2022-04-23T09:12:29.485Z</time>
      </trkpt>
      <trkpt lat="42.04524" lon="21.25363">
        <ele>369.100759</ele>
        <time>2022-04-23T09:12:31.473Z</time>
      </trkpt>
      <trkpt lat="42.04532" lon="21.25368">
        <ele>368.805115</ele>
        <time>2022-04-23T09:12:32.472Z</time>
      </trkpt>
      <trkpt lat="42.0454" lon="21.25375">
        <ele>368.506633</ele>
        <time>2022-04-23T09:12:33.497Z</time>
      </trkpt>
      <trkpt lat="42.04548" lon="21.25381">
        <ele>368.057822</ele>
        <time>2022-04-23T09:12:34.472Z</time>
      </trkpt>
      <trkpt lat="42.04565" lon="21.25391">
        <ele>366.373071</ele>
        <time>2022-04-23T09:12:36.487Z</time>
      </trkpt>
      <trkpt lat="42.0458" lon="21.25401">
        <ele>364.745825</ele>
        <time>2022-04-23T09:12:38.476Z</time>
      </trkpt>
      <trkpt lat="42.04594" lon="21.2541">
        <ele>363.308467</ele>
        <time>2022-04-23T09:12:40.475Z</time>
      </trkpt>
      <trkpt lat="42.04608" lon="21.25419">
        <ele>361.867109</ele>
        <time>2022-04-23T09:12:42.478Z</time>
      </trkpt>
      <trkpt lat="42.04623" lon="21.25423">
        <ele>360.411197</ele>
        <time>2022-04-23T09:12:44.500Z</time>
      </trkpt>
      <trkpt lat="42.04637" lon="21.25426">
        <ele>359.051238</ele>
        <time>2022-04-23T09:12:46.476Z</time>
      </trkpt>
      <trkpt lat="42.04649" lon="21.25429">
        <ele>357.902055</ele>
        <time>2022-04-23T09:12:48.479Z</time>
      </trkpt>
      <trkpt lat="42.04663" lon="21.25429">
        <ele>356.632014</ele>
        <time>2022-04-23T09:12:50.517Z</time>
      </trkpt>
      <trkpt lat="42.04678" lon="21.25428">
        <ele>355.173015</ele>
        <time>2022-04-23T09:12:52.481Z</time>
      </trkpt>
      <trkpt lat="42.04693" lon="21.25426">
        <ele>353.820986</ele>
        <time>2022-04-23T09:12:54.483Z</time>
      </trkpt>
      <trkpt lat="42.04704" lon="21.25423">
        <ele>352.700932</ele>
        <time>2022-04-23T09:12:56.480Z</time>
      </trkpt>
      <trkpt lat="42.04713" lon="21.2542">
        <ele>351.805582</ele>
        <time>2022-04-23T09:12:58.484Z</time>
      </trkpt>
      <trkpt lat="42.04722" lon="21.25414">
        <ele>351.07789</ele>
        <time>2022-04-23T09:13:03.479Z</time>
      </trkpt>
      <trkpt lat="42.04731" lon="21.25412">
        <ele>350.410669</ele>
        <time>2022-04-23T09:13:08.472Z</time>
      </trkpt>
      <trkpt lat="42.04741" lon="21.2541">
        <ele>349.789327</ele>
        <time>2022-04-23T09:13:11.477Z</time>
      </trkpt>
      <trkpt lat="42.04753" lon="21.25407">
        <ele>348.94732</ele>
        <time>2022-04-23T09:13:14.475Z</time>
      </trkpt>
      <trkpt lat="42.04764" lon="21.25406">
        <ele>348.246295</ele>
        <time>2022-04-23T09:13:16.470Z</time>
      </trkpt>
      <trkpt lat="42.04776" lon="21.25405">
        <ele>347.43862</ele>
        <time>2022-04-23T09:13:18.472Z</time>
      </trkpt>
      <trkpt lat="42.04788" lon="21.25404">
        <ele>346.623246</ele>
        <time>2022-04-23T09:13:20.472Z</time>
      </trkpt>
      <trkpt lat="42.04801" lon="21.25402">
        <ele>345.776795</ele>
        <time>2022-04-23T09:13:22.477Z</time>
      </trkpt>
      <trkpt lat="42.04815" lon="21.25399">
        <ele>344.868737</ele>
        <time>2022-04-23T09:13:24.471Z</time>
      </trkpt>
      <trkpt lat="42.04829" lon="21.25399">
        <ele>343.95052</ele>
        <time>2022-04-23T09:13:26.474Z</time>
      </trkpt>
      <trkpt lat="42.04842" lon="21.25402">
        <ele>343.081288</ele>
        <time>2022-04-23T09:13:28.473Z</time>
      </trkpt>
      <trkpt lat="42.04854" lon="21.25407">
        <ele>342.237482</ele>
        <time>2022-04-23T09:13:30.480Z</time>
      </trkpt>
      <trkpt lat="42.04865" lon="21.25414">
        <ele>341.435981</ele>
        <time>2022-04-23T09:13:32.485Z</time>
      </trkpt>
      <trkpt lat="42.04876" lon="21.2542">
        <ele>340.668468</ele>
        <time>2022-04-23T09:13:34.472Z</time>
      </trkpt>
      <trkpt lat="42.04886" lon="21.25425">
        <ele>339.945247</ele>
        <time>2022-04-23T09:13:36.478Z</time>
      </trkpt>
      <trkpt lat="42.04895" lon="21.25428">
        <ele>339.555041</ele>
        <time>2022-04-23T09:13:38.481Z</time>
      </trkpt>
      <trkpt lat="42.04908" lon="21.25431">
        <ele>339.811099</ele>
        <time>2022-04-23T09:13:41.479Z</time>
      </trkpt>
      <trkpt lat="42.04918" lon="21.25433">
        <ele>340.015701</ele>
        <time>2022-04-23T09:13:44.476Z</time>
      </trkpt>
      <trkpt lat="42.04928" lon="21.25433">
        <ele>340.219405</ele>
        <time>2022-04-23T09:13:47.481Z</time>
      </trkpt>
      <trkpt lat="42.04939" lon="21.25433">
        <ele>340.441276</ele>
        <time>2022-04-23T09:13:50.475Z</time>
      </trkpt>
      <trkpt lat="42.04949" lon="21.25434">
        <ele>340.64966</ele>
        <time>2022-04-23T09:13:53.474Z</time>
      </trkpt>
      <trkpt lat="42.04959" lon="21.25435">
        <ele>340.843974</ele>
        <time>2022-04-23T09:13:56.472Z</time>
      </trkpt>
      <trkpt lat="42.04969" lon="21.25437">
        <ele>341.051259</ele>
        <time>2022-04-23T09:13:59.477Z</time>
      </trkpt>
      <trkpt lat="42.04979" lon="21.25441">
        <ele>341.278248</ele>
        <time>2022-04-23T09:14:02.508Z</time>
      </trkpt>
      <trkpt lat="42.04991" lon="21.25446">
        <ele>341.52627</ele>
        <time>2022-04-23T09:14:05.476Z</time>
      </trkpt>
      <trkpt lat="42.05003" lon="21.25453">
        <ele>341.789562</ele>
        <time>2022-04-23T09:14:08.514Z</time>
      </trkpt>
      <trkpt lat="42.05016" lon="21.25459">
        <ele>342.063906</ele>
        <time>2022-04-23T09:14:11.521Z</time>
      </trkpt>
      <trkpt lat="42.05025" lon="21.25462">
        <ele>342.259088</ele>
        <time>2022-04-23T09:14:13.541Z</time>
      </trkpt>
      <trkpt lat="42.05035" lon="21.25465">
        <ele>342.463948</ele>
        <time>2022-04-23T09:14:15.497Z</time>
      </trkpt>
      <trkpt lat="42.05046" lon="21.25466">
        <ele>342.682094</ele>
        <time>2022-04-23T09:14:17.518Z</time>
      </trkpt>
      <trkpt lat="42.05058" lon="21.25466">
        <ele>342.91225</ele>
        <time>2022-04-23T09:14:19.504Z</time>
      </trkpt>
      <trkpt lat="42.05071" lon="21.25467">
        <ele>343.190507</ele>
        <time>2022-04-23T09:14:21.517Z</time>
      </trkpt>
      <trkpt lat="42.05083" lon="21.25469">
        <ele>343.523795</ele>
        <time>2022-04-23T09:14:23.505Z</time>
      </trkpt>
      <trkpt lat="42.05094" lon="21.2547">
        <ele>343.824116</ele>
        <time>2022-04-23T09:14:25.496Z</time>
      </trkpt>
      <trkpt lat="42.05104" lon="21.2547">
        <ele>344.082721</ele>
        <time>2022-04-23T09:14:27.510Z</time>
      </trkpt>
      <trkpt lat="42.05114" lon="21.25471">
        <ele>344.352465</ele>
        <time>2022-04-23T09:14:29.515Z</time>
      </trkpt>
      <trkpt lat="42.05127" lon="21.25471">
        <ele>344.699971</ele>
        <time>2022-04-23T09:14:32.493Z</time>
      </trkpt>
      <trkpt lat="42.05139" lon="21.2547">
        <ele>345.039679</ele>
        <time>2022-04-23T09:14:35.494Z</time>
      </trkpt>
      <trkpt lat="42.05152" lon="21.25469">
        <ele>345.382779</ele>
        <time>2022-04-23T09:14:38.483Z</time>
      </trkpt>
      <trkpt lat="42.05164" lon="21.25468">
        <ele>345.717295</ele>
        <time>2022-04-23T09:14:41.497Z</time>
      </trkpt>
      <trkpt lat="42.05177" lon="21.25467">
        <ele>346.062681</ele>
        <time>2022-04-23T09:14:44.540Z</time>
      </trkpt>
      <trkpt lat="42.05189" lon="21.25468">
        <ele>346.394405</ele>
        <time>2022-04-23T09:14:47.519Z</time>
      </trkpt>
      <trkpt lat="42.05199" lon="21.25468">
        <ele>346.653203</ele>
        <time>2022-04-23T09:14:49.545Z</time>
      </trkpt>
      <trkpt lat="42.05209" lon="21.25469">
        <ele>346.930845</ele>
        <time>2022-04-23T09:14:51.514Z</time>
      </trkpt>
      <trkpt lat="42.0522" lon="21.2547">
        <ele>347.211714</ele>
        <time>2022-04-23T09:14:53.503Z</time>
      </trkpt>
      <trkpt lat="42.05229" lon="21.2547">
        <ele>347.467625</ele>
        <time>2022-04-23T09:14:55.502Z</time>
      </trkpt>
      <trkpt lat="42.0524" lon="21.25469">
        <ele>347.772261</ele>
        <time>2022-04-23T09:14:58.507Z</time>
      </trkpt>
      <trkpt lat="42.0525" lon="21.25469">
        <ele>348.00985</ele>
        <time>2022-04-23T09:15:01.511Z</time>
      </trkpt>
      <trkpt lat="42.0526" lon="21.2547">
        <ele>348.152736</ele>
        <time>2022-04-23T09:15:04.509Z</time>
      </trkpt>
      <trkpt lat="42.0527" lon="21.25469">
        <ele>348.309437</ele>
        <time>2022-04-23T09:15:07.522Z</time>
      </trkpt>
      <trkpt lat="42.05281" lon="21.25469">
        <ele>348.474758</ele>
        <time>2022-04-23T09:15:10.503Z</time>
      </trkpt>
      <trkpt lat="42.05292" lon="21.25469">
        <ele>348.643144</ele>
        <time>2022-04-23T09:15:13.536Z</time>
      </trkpt>
      <trkpt lat="42.05305" lon="21.25469">
        <ele>348.82653</ele>
        <time>2022-04-23T09:15:16.509Z</time>
      </trkpt>
      <trkpt lat="42.05317" lon="21.25469">
        <ele>349.018985</ele>
        <time>2022-04-23T09:15:19.531Z</time>
      </trkpt>
      <trkpt lat="42.0533" lon="21.2547">
        <ele>349.207061</ele>
        <time>2022-04-23T09:15:22.503Z</time>
      </trkpt>
      <trkpt lat="42.05342" lon="21.2547">
        <ele>349.390421</ele>
        <time>2022-04-23T09:15:25.511Z</time>
      </trkpt>
      <trkpt lat="42.05354" lon="21.2547">
        <ele>349.566319</ele>
        <time>2022-04-23T09:15:28.513Z</time>
      </trkpt>
      <trkpt lat="42.05366" lon="21.2547">
        <ele>349.746793</ele>
        <time>2022-04-23T09:15:31.529Z</time>
      </trkpt>
      <trkpt lat="42.05378" lon="21.2547">
        <ele>349.927174</ele>
        <time>2022-04-23T09:15:34.508Z</time>
      </trkpt>
      <trkpt lat="42.05389" lon="21.2547">
        <ele>350.101516</ele>
        <time>2022-04-23T09:15:37.522Z</time>
      </trkpt>
      <trkpt lat="42.05401" lon="21.25469">
        <ele>350.273081</ele>
        <time>2022-04-23T09:15:40.509Z</time>
      </trkpt>
      <trkpt lat="42.05412" lon="21.25469">
        <ele>350.444591</ele>
        <time>2022-04-23T09:15:43.504Z</time>
      </trkpt>
      <trkpt lat="42.05424" lon="21.25468">
        <ele>350.620659</ele>
        <time>2022-04-23T09:15:46.545Z</time>
      </trkpt>
      <trkpt lat="42.05436" lon="21.25466">
        <ele>350.712038</ele>
        <time>2022-04-23T09:15:49.502Z</time>
      </trkpt>
      <trkpt lat="42.05448" lon="21.25465">
        <ele>350.763848</ele>
        <time>2022-04-23T09:15:52.509Z</time>
      </trkpt>
      <trkpt lat="42.0546" lon="21.25465">
        <ele>350.814757</ele>
        <time>2022-04-23T09:15:55.523Z</time>
      </trkpt>
      <trkpt lat="42.05471" lon="21.25463">
        <ele>350.865356</ele>
        <time>2022-04-23T09:15:58.500Z</time>
      </trkpt>
      <trkpt lat="42.05483" lon="21.25462">
        <ele>350.917632</ele>
        <time>2022-04-23T09:16:01.495Z</time>
      </trkpt>
      <trkpt lat="42.05492" lon="21.25462">
        <ele>350.956506</ele>
        <time>2022-04-23T09:16:03.493Z</time>
      </trkpt>
      <trkpt lat="42.05502" lon="21.25461">
        <ele>350.998053</ele>
        <time>2022-04-23T09:16:05.517Z</time>
      </trkpt>
      <trkpt lat="42.05512" lon="21.25459">
        <ele>351.040978</ele>
        <time>2022-04-23T09:16:07.512Z</time>
      </trkpt>
      <trkpt lat="42.05522" lon="21.25456">
        <ele>351.085804</ele>
        <time>2022-04-23T09:16:09.487Z</time>
      </trkpt>
      <trkpt lat="42.05531" lon="21.25454">
        <ele>351.126154</ele>
        <time>2022-04-23T09:16:11.513Z</time>
      </trkpt>
      <trkpt lat="42.05543" lon="21.2545">
        <ele>351.176288</ele>
        <time>2022-04-23T09:16:14.493Z</time>
      </trkpt>
      <trkpt lat="42.05553" lon="21.25445">
        <ele>351.22574</ele>
        <time>2022-04-23T09:16:17.516Z</time>
      </trkpt>
      <trkpt lat="42.05564" lon="21.25439">
        <ele>351.275597</ele>
        <time>2022-04-23T09:16:20.520Z</time>
      </trkpt>
      <trkpt lat="42.05574" lon="21.25433">
        <ele>351.320981</ele>
        <time>2022-04-23T09:16:23.488Z</time>
      </trkpt>
      <trkpt lat="42.05584" lon="21.25426">
        <ele>351.369433</ele>
        <time>2022-04-23T09:16:26.513Z</time>
      </trkpt>
      <trkpt lat="42.05594" lon="21.25419">
        <ele>351.420153</ele>
        <time>2022-04-23T09:16:29.509Z</time>
      </trkpt>
      <trkpt lat="42.05605" lon="21.25411">
        <ele>351.471514</ele>
        <time>2022-04-23T09:16:32.490Z</time>
      </trkpt>
      <trkpt lat="42.05617" lon="21.25404">
        <ele>351.524642</ele>
        <time>2022-04-23T09:16:35.544Z</time>
      </trkpt>
      <trkpt lat="42.05626" lon="21.25398">
        <ele>351.565605</ele>
        <time>2022-04-23T09:16:37.577Z</time>
      </trkpt>
      <trkpt lat="42.05634" lon="21.25392">
        <ele>351.605563</ele>
        <time>2022-04-23T09:16:39.514Z</time>
      </trkpt>
      <trkpt lat="42.05642" lon="21.25386">
        <ele>351.643388</ele>
        <time>2022-04-23T09:16:41.490Z</time>
      </trkpt>
      <trkpt lat="42.05654" lon="21.25379">
        <ele>351.694156</ele>
        <time>2022-04-23T09:16:44.494Z</time>
      </trkpt>
      <trkpt lat="42.05665" lon="21.25371">
        <ele>351.746485</ele>
        <time>2022-04-23T09:16:47.552Z</time>
      </trkpt>
      <trkpt lat="42.05677" lon="21.25363">
        <ele>351.800098</ele>
        <time>2022-04-23T09:16:50.503Z</time>
      </trkpt>
      <trkpt lat="42.05685" lon="21.25357">
        <ele>351.838481</ele>
        <time>2022-04-23T09:16:52.565Z</time>
      </trkpt>
      <trkpt lat="42.05696" lon="21.25348">
        <ele>351.891364</ele>
        <time>2022-04-23T09:16:55.501Z</time>
      </trkpt>
      <trkpt lat="42.05708" lon="21.25338">
        <ele>351.947827</ele>
        <time>2022-04-23T09:16:58.494Z</time>
      </trkpt>
      <trkpt lat="42.05716" lon="21.25331">
        <ele>351.986424</ele>
        <time>2022-04-23T09:17:00.516Z</time>
      </trkpt>
      <trkpt lat="42.05724" lon="21.25324">
        <ele>352.028078</ele>
        <time>2022-04-23T09:17:02.518Z</time>
      </trkpt>
      <trkpt lat="42.05733" lon="21.25317">
        <ele>352.070347</ele>
        <time>2022-04-23T09:17:04.519Z</time>
      </trkpt>
      <trkpt lat="42.05742" lon="21.25311">
        <ele>352.108603</ele>
        <time>2022-04-23T09:17:06.512Z</time>
      </trkpt>
      <trkpt lat="42.0575" lon="21.25305">
        <ele>352.148204</ele>
        <time>2022-04-23T09:17:08.508Z</time>
      </trkpt>
      <trkpt lat="42.05759" lon="21.25298">
        <ele>352.177228</ele>
        <time>2022-04-23T09:17:10.510Z</time>
      </trkpt>
      <trkpt lat="42.05767" lon="21.25291">
        <ele>351.93891</ele>
        <time>2022-04-23T09:17:12.512Z</time>
      </trkpt>
      <trkpt lat="42.05775" lon="21.25283">
        <ele>351.691936</ele>
        <time>2022-04-23T09:17:14.539Z</time>
      </trkpt>
      <trkpt lat="42.05782" lon="21.25275">
        <ele>351.446077</ele>
        <time>2022-04-23T09:17:16.500Z</time>
      </trkpt>
      <trkpt lat="42.0579" lon="21.25267">
        <ele>351.196848</ele>
        <time>2022-04-23T09:17:18.511Z</time>
      </trkpt>
      <trkpt lat="42.058" lon="21.25258">
        <ele>350.899712</ele>
        <time>2022-04-23T09:17:21.504Z</time>
      </trkpt>
      <trkpt lat="42.05811" lon="21.25252">
        <ele>350.602195</ele>
        <time>2022-04-23T09:17:24.513Z</time>
      </trkpt>
      <trkpt lat="42.05821" lon="21.25247">
        <ele>350.356103</ele>
        <time>2022-04-23T09:17:26.499Z</time>
      </trkpt>
      <trkpt lat="42.0583" lon="21.25242">
        <ele>350.094307</ele>
        <time>2022-04-23T09:17:28.488Z</time>
      </trkpt>
      <trkpt lat="42.0584" lon="21.25236">
        <ele>349.840145</ele>
        <time>2022-04-23T09:17:30.498Z</time>
      </trkpt>
      <trkpt lat="42.0585" lon="21.25229">
        <ele>349.560901</ele>
        <time>2022-04-23T09:17:32.513Z</time>
      </trkpt>
      <trkpt lat="42.05859" lon="21.25223">
        <ele>349.299416</ele>
        <time>2022-04-23T09:17:34.489Z</time>
      </trkpt>
      <trkpt lat="42.05868" lon="21.25216">
        <ele>349.040896</ele>
        <time>2022-04-23T09:17:36.517Z</time>
      </trkpt>
      <trkpt lat="42.05877" lon="21.25209">
        <ele>348.782031</ele>
        <time>2022-04-23T09:17:38.480Z</time>
      </trkpt>
      <trkpt lat="42.05886" lon="21.25202">
        <ele>348.531068</ele>
        <time>2022-04-23T09:17:40.495Z</time>
      </trkpt>
      <trkpt lat="42.05895" lon="21.25196">
        <ele>348.289732</ele>
        <time>2022-04-23T09:17:42.545Z</time>
      </trkpt>
      <trkpt lat="42.05903" lon="21.25189">
        <ele>348.048075</ele>
        <time>2022-04-23T09:17:44.516Z</time>
      </trkpt>
      <trkpt lat="42.05914" lon="21.2518">
        <ele>347.718154</ele>
        <time>2022-04-23T09:17:47.517Z</time>
      </trkpt>
      <trkpt lat="42.05925" lon="21.25173">
        <ele>347.770108</ele>
        <time>2022-04-23T09:17:50.510Z</time>
      </trkpt>
      <trkpt lat="42.05935" lon="21.25165">
        <ele>347.824439</ele>
        <time>2022-04-23T09:17:53.513Z</time>
      </trkpt>
      <trkpt lat="42.05945" lon="21.25157">
        <ele>347.877562</ele>
        <time>2022-04-23T09:17:56.511Z</time>
      </trkpt>
      <trkpt lat="42.05954" lon="21.2515">
        <ele>347.928369</ele>
        <time>2022-04-23T09:17:59.505Z</time>
      </trkpt>
      <trkpt lat="42.05963" lon="21.25143">
        <ele>347.979984</ele>
        <time>2022-04-23T09:18:03.526Z</time>
      </trkpt>
      <trkpt lat="42.05972" lon="21.25134">
        <ele>348.031755</ele>
        <time>2022-04-23T09:18:07.525Z</time>
      </trkpt>
      <trkpt lat="42.0598" lon="21.25124">
        <ele>348.082896</ele>
        <time>2022-04-23T09:18:11.524Z</time>
      </trkpt>
      <trkpt lat="42.0599" lon="21.25115">
        <ele>348.139575</ele>
        <time>2022-04-23T09:18:15.502Z</time>
      </trkpt>
      <trkpt lat="42.05999" lon="21.25109">
        <ele>348.188881</ele>
        <time>2022-04-23T09:18:18.534Z</time>
      </trkpt>
      <trkpt lat="42.06008" lon="21.25104">
        <ele>348.234495</ele>
        <time>2022-04-23T09:18:21.532Z</time>
      </trkpt>
      <trkpt lat="42.06017" lon="21.25098">
        <ele>348.280112</ele>
        <time>2022-04-23T09:18:24.526Z</time>
      </trkpt>
      <trkpt lat="42.06027" lon="21.25092">
        <ele>348.335</ele>
        <time>2022-04-23T09:18:28.503Z</time>
      </trkpt>
      <trkpt lat="42.06038" lon="21.25087">
        <ele>348.390425</ele>
        <time>2022-04-23T09:18:32.533Z</time>
      </trkpt>
      <trkpt lat="42.06047" lon="21.25081">
        <ele>348.438353</ele>
        <time>2022-04-23T09:18:35.505Z</time>
      </trkpt>
      <trkpt lat="42.06058" lon="21.25076">
        <ele>348.49264</ele>
        <time>2022-04-23T09:18:38.507Z</time>
      </trkpt>
      <trkpt lat="42.06071" lon="21.2507">
        <ele>348.557207</ele>
        <time>2022-04-23T09:18:41.511Z</time>
      </trkpt>
      <trkpt lat="42.0608" lon="21.25064">
        <ele>348.582372</ele>
        <time>2022-04-23T09:18:43.497Z</time>
      </trkpt>
      <trkpt lat="42.06089" lon="21.25058">
        <ele>348.599215</ele>
        <time>2022-04-23T09:18:45.503Z</time>
      </trkpt>
      <trkpt lat="42.061" lon="21.25049">
        <ele>348.622136</ele>
        <time>2022-04-23T09:18:48.515Z</time>
      </trkpt>
      <trkpt lat="42.06109" lon="21.25039">
        <ele>348.643017</ele>
        <time>2022-04-23T09:18:51.557Z</time>
      </trkpt>
      <trkpt lat="42.06118" lon="21.25029">
        <ele>348.663641</ele>
        <time>2022-04-23T09:18:54.514Z</time>
      </trkpt>
      <trkpt lat="42.06126" lon="21.2502">
        <ele>348.682291</ele>
        <time>2022-04-23T09:18:57.501Z</time>
      </trkpt>
      <trkpt lat="42.06134" lon="21.2501">
        <ele>348.700941</ele>
        <time>2022-04-23T09:19:00.504Z</time>
      </trkpt>
      <trkpt lat="42.06142" lon="21.25002">
        <ele>348.718786</ele>
        <time>2022-04-23T09:19:03.526Z</time>
      </trkpt>
      <trkpt lat="42.06149" lon="21.24991">
        <ele>348.738451</ele>
        <time>2022-04-23T09:19:06.505Z</time>
      </trkpt>
      <trkpt lat="42.06158" lon="21.24979">
        <ele>348.759777</ele>
        <time>2022-04-23T09:19:09.544Z</time>
      </trkpt>
      <trkpt lat="42.06166" lon="21.24968">
        <ele>348.78058</ele>
        <time>2022-04-23T09:19:12.513Z</time>
      </trkpt>
      <trkpt lat="42.06175" lon="21.24957">
        <ele>348.80206</ele>
        <time>2022-04-23T09:19:15.505Z</time>
      </trkpt>
      <trkpt lat="42.06184" lon="21.24944">
        <ele>348.825247</ele>
        <time>2022-04-23T09:19:18.524Z</time>
      </trkpt>
      <trkpt lat="42.06194" lon="21.24931">
        <ele>348.84943</ele>
        <time>2022-04-23T09:19:21.524Z</time>
      </trkpt>
      <trkpt lat="42.06201" lon="21.24923">
        <ele>348.865456</ele>
        <time>2022-04-23T09:19:23.530Z</time>
      </trkpt>
      <trkpt lat="42.0621" lon="21.2491">
        <ele>348.899119</ele>
        <time>2022-04-23T09:19:26.504Z</time>
      </trkpt>
      <trkpt lat="42.06218" lon="21.24897">
        <ele>349.000941</ele>
        <time>2022-04-23T09:19:29.498Z</time>
      </trkpt>
      <trkpt lat="42.06227" lon="21.24885">
        <ele>349.10469</ele>
        <time>2022-04-23T09:19:32.506Z</time>
      </trkpt>
      <trkpt lat="42.06235" lon="21.24875">
        <ele>349.197701</ele>
        <time>2022-04-23T09:19:35.494Z</time>
      </trkpt>
      <trkpt lat="42.06244" lon="21.24865">
        <ele>349.288685</ele>
        <time>2022-04-23T09:19:38.500Z</time>
      </trkpt>
      <trkpt lat="42.06252" lon="21.24856">
        <ele>349.373224</ele>
        <time>2022-04-23T09:19:41.543Z</time>
      </trkpt>
      <trkpt lat="42.0626" lon="21.24848">
        <ele>349.457868</ele>
        <time>2022-04-23T09:19:44.541Z</time>
      </trkpt>
      <trkpt lat="42.06268" lon="21.2484">
        <ele>349.538851</ele>
        <time>2022-04-23T09:19:47.550Z</time>
      </trkpt>
      <trkpt lat="42.06277" lon="21.24833">
        <ele>349.620568</ele>
        <time>2022-04-23T09:19:50.515Z</time>
      </trkpt>
      <trkpt lat="42.06285" lon="21.24826">
        <ele>349.705328</ele>
        <time>2022-04-23T09:19:53.496Z</time>
      </trkpt>
      <trkpt lat="42.06295" lon="21.24818">
        <ele>349.793505</ele>
        <time>2022-04-23T09:19:56.521Z</time>
      </trkpt>
      <trkpt lat="42.06305" lon="21.2481">
        <ele>349.890557</ele>
        <time>2022-04-23T09:19:59.509Z</time>
      </trkpt>
      <trkpt lat="42.06314" lon="21.24803">
        <ele>349.976726</ele>
        <time>2022-04-23T09:20:02.501Z</time>
      </trkpt>
      <trkpt lat="42.06323" lon="21.24797">
        <ele>350.060716</ele>
        <time>2022-04-23T09:20:05.517Z</time>
      </trkpt>
      <trkpt lat="42.06332" lon="21.24792">
        <ele>350.135383</ele>
        <time>2022-04-23T09:20:08.521Z</time>
      </trkpt>
      <trkpt lat="42.0634" lon="21.24785">
        <ele>350.215079</ele>
        <time>2022-04-23T09:20:11.503Z</time>
      </trkpt>
      <trkpt lat="42.06348" lon="21.2478">
        <ele>350.290195</ele>
        <time>2022-04-23T09:20:14.508Z</time>
      </trkpt>
      <trkpt lat="42.06359" lon="21.24774">
        <ele>350.412307</ele>
        <time>2022-04-23T09:20:18.489Z</time>
      </trkpt>
      <trkpt lat="42.06368" lon="21.2477">
        <ele>350.543105</ele>
        <time>2022-04-23T09:20:21.501Z</time>
      </trkpt>
      <trkpt lat="42.06379" lon="21.24765">
        <ele>350.710347</ele>
        <time>2022-04-23T09:20:25.518Z</time>
      </trkpt>
      <trkpt lat="42.06388" lon="21.24761">
        <ele>350.850348</ele>
        <time>2022-04-23T09:20:28.506Z</time>
      </trkpt>
      <trkpt lat="42.06398" lon="21.24757">
        <ele>351.001978</ele>
        <time>2022-04-23T09:20:31.505Z</time>
      </trkpt>
      <trkpt lat="42.06409" lon="21.24753">
        <ele>351.164722</ele>
        <time>2022-04-23T09:20:34.511Z</time>
      </trkpt>
      <trkpt lat="42.06419" lon="21.24748">
        <ele>351.31396</ele>
        <time>2022-04-23T09:20:37.519Z</time>
      </trkpt>
      <trkpt lat="42.06428" lon="21.24744">
        <ele>351.448993</ele>
        <time>2022-04-23T09:20:40.533Z</time>
      </trkpt>
      <trkpt lat="42.06437" lon="21.2474">
        <ele>351.583485</ele>
        <time>2022-04-23T09:20:43.556Z</time>
      </trkpt>
      <trkpt lat="42.06446" lon="21.24735">
        <ele>351.728913</ele>
        <time>2022-04-23T09:20:46.502Z</time>
      </trkpt>
      <trkpt lat="42.06456" lon="21.24731">
        <ele>351.877806</ele>
        <time>2022-04-23T09:20:49.502Z</time>
      </trkpt>
      <trkpt lat="42.06465" lon="21.24728">
        <ele>352.010633</ele>
        <time>2022-04-23T09:20:52.485Z</time>
      </trkpt>
      <trkpt lat="42.06475" lon="21.24727">
        <ele>352.155832</ele>
        <time>2022-04-23T09:20:55.506Z</time>
      </trkpt>
      <trkpt lat="42.06484" lon="21.24724">
        <ele>352.295699</ele>
        <time>2022-04-23T09:20:58.498Z</time>
      </trkpt>
      <trkpt lat="42.06494" lon="21.24721">
        <ele>352.437666</ele>
        <time>2022-04-23T09:21:01.515Z</time>
      </trkpt>
      <trkpt lat="42.06504" lon="21.24718">
        <ele>352.579395</ele>
        <time>2022-04-23T09:21:04.518Z</time>
      </trkpt>
      <trkpt lat="42.06513" lon="21.24714">
        <ele>352.724154</ele>
        <time>2022-04-23T09:21:07.506Z</time>
      </trkpt>
      <trkpt lat="42.06523" lon="21.2471">
        <ele>352.873676</ele>
        <time>2022-04-23T09:21:10.509Z</time>
      </trkpt>
      <trkpt lat="42.06532" lon="21.24706">
        <ele>353.159434</ele>
        <time>2022-04-23T09:21:13.520Z</time>
      </trkpt>
      <trkpt lat="42.06541" lon="21.24703">
        <ele>353.651774</ele>
        <time>2022-04-23T09:21:16.522Z</time>
      </trkpt>
      <trkpt lat="42.0655" lon="21.24698">
        <ele>354.202312</ele>
        <time>2022-04-23T09:21:19.511Z</time>
      </trkpt>
      <trkpt lat="42.06559" lon="21.24693">
        <ele>354.715542</ele>
        <time>2022-04-23T09:21:22.505Z</time>
      </trkpt>
      <trkpt lat="42.06569" lon="21.24687">
        <ele>355.327208</ele>
        <time>2022-04-23T09:21:26.499Z</time>
      </trkpt>
      <trkpt lat="42.06578" lon="21.24683">
        <ele>355.827787</ele>
        <time>2022-04-23T09:21:30.512Z</time>
      </trkpt>
      <trkpt lat="42.06588" lon="21.24678">
        <ele>356.39048</ele>
        <time>2022-04-23T09:21:35.527Z</time>
      </trkpt>
      <trkpt lat="42.06596" lon="21.24673">
        <ele>356.900475</ele>
        <time>2022-04-23T09:21:39.501Z</time>
      </trkpt>
      <trkpt lat="42.06605" lon="21.24666">
        <ele>357.426165</ele>
        <time>2022-04-23T09:21:43.510Z</time>
      </trkpt>
      <trkpt lat="42.06613" lon="21.24659">
        <ele>357.931468</ele>
        <time>2022-04-23T09:21:47.518Z</time>
      </trkpt>
      <trkpt lat="42.06622" lon="21.24651">
        <ele>358.522365</ele>
        <time>2022-04-23T09:21:51.512Z</time>
      </trkpt>
      <trkpt lat="42.06632" lon="21.24642">
        <ele>359.159399</ele>
        <time>2022-04-23T09:21:55.508Z</time>
      </trkpt>
      <trkpt lat="42.06639" lon="21.24634">
        <ele>359.668719</ele>
        <time>2022-04-23T09:21:58.498Z</time>
      </trkpt>
      <trkpt lat="42.06648" lon="21.24624">
        <ele>360.311934</ele>
        <time>2022-04-23T09:22:02.535Z</time>
      </trkpt>
      <trkpt lat="42.06655" lon="21.24615">
        <ele>360.807874</ele>
        <time>2022-04-23T09:22:05.541Z</time>
      </trkpt>
      <trkpt lat="42.06662" lon="21.24607">
        <ele>361.322773</ele>
        <time>2022-04-23T09:22:08.517Z</time>
      </trkpt>
      <trkpt lat="42.0667" lon="21.24596">
        <ele>361.914298</ele>
        <time>2022-04-23T09:22:11.510Z</time>
      </trkpt>
      <trkpt lat="42.06677" lon="21.24587">
        <ele>362.462512</ele>
        <time>2022-04-23T09:22:14.504Z</time>
      </trkpt>
      <trkpt lat="42.06683" lon="21.24577">
        <ele>362.645778</ele>
        <time>2022-04-23T09:22:17.512Z</time>
      </trkpt>
      <trkpt lat="42.0669" lon="21.24567">
        <ele>362.653099</ele>
        <time>2022-04-23T09:22:20.489Z</time>
      </trkpt>
      <trkpt lat="42.06696" lon="21.24556">
        <ele>362.660668</ele>
        <time>2022-04-23T09:22:23.512Z</time>
      </trkpt>
      <trkpt lat="42.06703" lon="21.24545">
        <ele>362.668472</ele>
        <time>2022-04-23T09:22:26.519Z</time>
      </trkpt>
      <trkpt lat="42.06708" lon="21.24532">
        <ele>362.676559</ele>
        <time>2022-04-23T09:22:29.500Z</time>
      </trkpt>
      <trkpt lat="42.06714" lon="21.2452">
        <ele>362.684726</ele>
        <time>2022-04-23T09:22:32.498Z</time>
      </trkpt>
      <trkpt lat="42.0672" lon="21.24507">
        <ele>362.693097</ele>
        <time>2022-04-23T09:22:35.517Z</time>
      </trkpt>
      <trkpt lat="42.06725" lon="21.24495">
        <ele>362.701031</ele>
        <time>2022-04-23T09:22:38.492Z</time>
      </trkpt>
      <trkpt lat="42.06731" lon="21.24482">
        <ele>362.709413</ele>
        <time>2022-04-23T09:22:41.504Z</time>
      </trkpt>
      <trkpt lat="42.06736" lon="21.24467">
        <ele>362.718427</ele>
        <time>2022-04-23T09:22:44.501Z</time>
      </trkpt>
      <trkpt lat="42.06742" lon="21.24453">
        <ele>362.727422</ele>
        <time>2022-04-23T09:22:47.536Z</time>
      </trkpt>
      <trkpt lat="42.06747" lon="21.24438">
        <ele>362.736683</ele>
        <time>2022-04-23T09:22:50.509Z</time>
      </trkpt>
      <trkpt lat="42.06753" lon="21.24423">
        <ele>362.745851</ele>
        <time>2022-04-23T09:22:53.509Z</time>
      </trkpt>
      <trkpt lat="42.06759" lon="21.24409">
        <ele>362.754929</ele>
        <time>2022-04-23T09:22:56.513Z</time>
      </trkpt>
      <trkpt lat="42.06765" lon="21.24394">
        <ele>362.764231</ele>
        <time>2022-04-23T09:22:59.502Z</time>
      </trkpt>
      <trkpt lat="42.06771" lon="21.24379">
        <ele>362.773702</ele>
        <time>2022-04-23T09:23:02.495Z</time>
      </trkpt>
      <trkpt lat="42.06777" lon="21.24365">
        <ele>362.433811</ele>
        <time>2022-04-23T09:23:05.503Z</time>
      </trkpt>
      <trkpt lat="42.06783" lon="21.2435">
        <ele>362.022911</ele>
        <time>2022-04-23T09:23:08.496Z</time>
      </trkpt>
      <trkpt lat="42.06789" lon="21.24334">
        <ele>361.592639</ele>
        <time>2022-04-23T09:23:11.486Z</time>
      </trkpt>
      <trkpt lat="42.06795" lon="21.2432">
        <ele>361.183875</ele>
        <time>2022-04-23T09:23:14.501Z</time>
      </trkpt>
      <trkpt lat="42.06801" lon="21.24306">
        <ele>360.792798</ele>
        <time>2022-04-23T09:23:17.553Z</time>
      </trkpt>
      <trkpt lat="42.06806" lon="21.24292">
        <ele>360.406994</ele>
        <time>2022-04-23T09:23:20.490Z</time>
      </trkpt>
      <trkpt lat="42.0681" lon="21.24277">
        <ele>360.034493</ele>
        <time>2022-04-23T09:23:23.538Z</time>
      </trkpt>
      <trkpt lat="42.06816" lon="21.24265">
        <ele>359.670105</ele>
        <time>2022-04-23T09:23:26.514Z</time>
      </trkpt>
      <trkpt lat="42.06824" lon="21.2426">
        <ele>359.371103</ele>
        <time>2022-04-23T09:23:29.499Z</time>
      </trkpt>
      <trkpt lat="42.06834" lon="21.24253">
        <ele>358.9951</ele>
        <time>2022-04-23T09:23:34.492Z</time>
      </trkpt>
      <trkpt lat="42.06844" lon="21.24243">
        <ele>358.605376</ele>
        <time>2022-04-23T09:23:38.519Z</time>
      </trkpt>
      <trkpt lat="42.06852" lon="21.24231">
        <ele>358.216357</ele>
        <time>2022-04-23T09:23:41.503Z</time>
      </trkpt>
      <trkpt lat="42.06859" lon="21.24219">
        <ele>357.816274</ele>
        <time>2022-04-23T09:23:44.511Z</time>
      </trkpt>
      <trkpt lat="42.06867" lon="21.24206">
        <ele>357.419781</ele>
        <time>2022-04-23T09:23:47.514Z</time>
      </trkpt>
      <trkpt lat="42.06874" lon="21.24193">
        <ele>357.015868</ele>
        <time>2022-04-23T09:23:50.555Z</time>
      </trkpt>
      <trkpt lat="42.06882" lon="21.24181">
        <ele>356.807866</ele>
        <time>2022-04-23T09:23:53.505Z</time>
      </trkpt>
      <trkpt lat="42.06889" lon="21.24169">
        <ele>356.760972</ele>
        <time>2022-04-23T09:23:56.494Z</time>
      </trkpt>
      <trkpt lat="42.06896" lon="21.24157">
        <ele>356.710874</ele>
        <time>2022-04-23T09:23:59.487Z</time>
      </trkpt>
      <trkpt lat="42.06903" lon="21.24144">
        <ele>356.660529</ele>
        <time>2022-04-23T09:24:02.519Z</time>
      </trkpt>
      <trkpt lat="42.06911" lon="21.24131">
        <ele>356.611891</ele>
        <time>2022-04-23T09:24:05.518Z</time>
      </trkpt>
      <trkpt lat="42.06917" lon="21.24119">
        <ele>356.5655</ele>
        <time>2022-04-23T09:24:08.521Z</time>
      </trkpt>
      <trkpt lat="42.06924" lon="21.24107">
        <ele>356.520605</ele>
        <time>2022-04-23T09:24:11.509Z</time>
      </trkpt>
      <trkpt lat="42.06931" lon="21.24096">
        <ele>356.47351</ele>
        <time>2022-04-23T09:24:14.519Z</time>
      </trkpt>
      <trkpt lat="42.06939" lon="21.24084">
        <ele>356.423235</ele>
        <time>2022-04-23T09:24:17.537Z</time>
      </trkpt>
      <trkpt lat="42.06948" lon="21.24072">
        <ele>356.373313</ele>
        <time>2022-04-23T09:24:20.502Z</time>
      </trkpt>
      <trkpt lat="42.06956" lon="21.24061">
        <ele>356.324948</ele>
        <time>2022-04-23T09:24:23.511Z</time>
      </trkpt>
      <trkpt lat="42.06963" lon="21.2405">
        <ele>356.278476</ele>
        <time>2022-04-23T09:24:26.521Z</time>
      </trkpt>
      <trkpt lat="42.06971" lon="21.2404">
        <ele>356.231789</ele>
        <time>2022-04-23T09:24:29.511Z</time>
      </trkpt>
      <trkpt lat="42.0698" lon="21.24029">
        <ele>356.181229</ele>
        <time>2022-04-23T09:24:32.518Z</time>
      </trkpt>
      <trkpt lat="42.06991" lon="21.24018">
        <ele>356.127549</ele>
        <time>2022-04-23T09:24:35.497Z</time>
      </trkpt>
      <trkpt lat="42.07" lon="21.24007">
        <ele>356.130347</ele>
        <time>2022-04-23T09:24:38.538Z</time>
      </trkpt>
      <trkpt lat="42.0701" lon="21.23996">
        <ele>356.368688</ele>
        <time>2022-04-23T09:24:41.518Z</time>
      </trkpt>
      <trkpt lat="42.0702" lon="21.23985">
        <ele>356.611724</ele>
        <time>2022-04-23T09:24:44.526Z</time>
      </trkpt>
      <trkpt lat="42.0703" lon="21.23976">
        <ele>356.837569</ele>
        <time>2022-04-23T09:24:47.499Z</time>
      </trkpt>
      <trkpt lat="42.07039" lon="21.23967">
        <ele>357.059836</ele>
        <time>2022-04-23T09:24:50.543Z</time>
      </trkpt>
      <trkpt lat="42.07048" lon="21.23956">
        <ele>357.291864</ele>
        <time>2022-04-23T09:24:53.490Z</time>
      </trkpt>
      <trkpt lat="42.07057" lon="21.23946">
        <ele>357.514129</ele>
        <time>2022-04-23T09:24:56.475Z</time>
      </trkpt>
      <trkpt lat="42.07067" lon="21.23936">
        <ele>357.746563</ele>
        <time>2022-04-23T09:24:59.526Z</time>
      </trkpt>
      <trkpt lat="42.07077" lon="21.23926">
        <ele>357.986346</ele>
        <time>2022-04-23T09:25:02.492Z</time>
      </trkpt>
      <trkpt lat="42.07087" lon="21.23915">
        <ele>358.238892</ele>
        <time>2022-04-23T09:25:05.508Z</time>
      </trkpt>
      <trkpt lat="42.07095" lon="21.23908">
        <ele>358.413973</ele>
        <time>2022-04-23T09:25:07.501Z</time>
      </trkpt>
      <trkpt lat="42.07102" lon="21.239">
        <ele>358.590185</ele>
        <time>2022-04-23T09:25:09.525Z</time>
      </trkpt>
      <trkpt lat="42.07109" lon="21.23893">
        <ele>358.762299</ele>
        <time>2022-04-23T09:25:11.515Z</time>
      </trkpt>
      <trkpt lat="42.07116" lon="21.23885">
        <ele>358.936133</ele>
        <time>2022-04-23T09:25:13.512Z</time>
      </trkpt>
      <trkpt lat="42.07124" lon="21.23878">
        <ele>359.113492</ele>
        <time>2022-04-23T09:25:15.502Z</time>
      </trkpt>
      <trkpt lat="42.07133" lon="21.23867">
        <ele>359.344712</ele>
        <time>2022-04-23T09:25:18.486Z</time>
      </trkpt>
      <trkpt lat="42.07142" lon="21.23856">
        <ele>359.539592</ele>
        <time>2022-04-23T09:25:21.514Z</time>
      </trkpt>
      <trkpt lat="42.07152" lon="21.23847">
        <ele>359.609092</ele>
        <time>2022-04-23T09:25:24.513Z</time>
      </trkpt>
      <trkpt lat="42.07159" lon="21.23838">
        <ele>359.668989</ele>
        <time>2022-04-23T09:25:27.511Z</time>
      </trkpt>
      <trkpt lat="42.07167" lon="21.2383">
        <ele>359.727614</ele>
        <time>2022-04-23T09:25:30.486Z</time>
      </trkpt>
      <trkpt lat="42.07175" lon="21.2382">
        <ele>359.788958</ele>
        <time>2022-04-23T09:25:33.500Z</time>
      </trkpt>
      <trkpt lat="42.07184" lon="21.23811">
        <ele>359.855503</ele>
        <time>2022-04-23T09:25:36.507Z</time>
      </trkpt>
      <trkpt lat="42.07193" lon="21.23802">
        <ele>359.925208</ele>
        <time>2022-04-23T09:25:39.545Z</time>
      </trkpt>
      <trkpt lat="42.07202" lon="21.23792">
        <ele>359.9935</ele>
        <time>2022-04-23T09:25:42.486Z</time>
      </trkpt>
      <trkpt lat="42.07211" lon="21.2378">
        <ele>360.068231</ele>
        <time>2022-04-23T09:25:45.540Z</time>
      </trkpt>
      <trkpt lat="42.07219" lon="21.23773">
        <ele>360.123966</ele>
        <time>2022-04-23T09:25:47.548Z</time>
      </trkpt>
      <trkpt lat="42.07227" lon="21.23766">
        <ele>360.178839</ele>
        <time>2022-04-23T09:25:49.512Z</time>
      </trkpt>
      <trkpt lat="42.07234" lon="21.23759">
        <ele>360.232713</ele>
        <time>2022-04-23T09:25:51.512Z</time>
      </trkpt>
      <trkpt lat="42.07242" lon="21.23752">
        <ele>360.289095</ele>
        <time>2022-04-23T09:25:53.496Z</time>
      </trkpt>
      <trkpt lat="42.07254" lon="21.23744">
        <ele>360.365961</ele>
        <time>2022-04-23T09:25:56.493Z</time>
      </trkpt>
      <trkpt lat="42.07265" lon="21.23734">
        <ele>360.447182</ele>
        <time>2022-04-23T09:25:59.535Z</time>
      </trkpt>
      <trkpt lat="42.07276" lon="21.23726">
        <ele>360.521377</ele>
        <time>2022-04-23T09:26:02.506Z</time>
      </trkpt>
      <trkpt lat="42.07286" lon="21.23718">
        <ele>360.578589</ele>
        <time>2022-04-23T09:26:05.508Z</time>
      </trkpt>
      <trkpt lat="42.07296" lon="21.23711">
        <ele>360.426714</ele>
        <time>2022-04-23T09:26:08.508Z</time>
      </trkpt>
      <trkpt lat="42.07305" lon="21.23705">
        <ele>360.283721</ele>
        <time>2022-04-23T09:26:11.501Z</time>
      </trkpt>
      <trkpt lat="42.07315" lon="21.23698">
        <ele>360.123306</ele>
        <time>2022-04-23T09:26:14.515Z</time>
      </trkpt>
      <trkpt lat="42.07327" lon="21.23691">
        <ele>359.947484</ele>
        <time>2022-04-23T09:26:17.513Z</time>
      </trkpt>
      <trkpt lat="42.07337" lon="21.23683">
        <ele>359.784698</ele>
        <time>2022-04-23T09:26:20.502Z</time>
      </trkpt>
      <trkpt lat="42.07347" lon="21.23675">
        <ele>359.619924</ele>
        <time>2022-04-23T09:26:23.502Z</time>
      </trkpt>
      <trkpt lat="42.07357" lon="21.23667">
        <ele>359.454399</ele>
        <time>2022-04-23T09:26:26.519Z</time>
      </trkpt>
      <trkpt lat="42.07368" lon="21.2366">
        <ele>359.29181</ele>
        <time>2022-04-23T09:26:29.513Z</time>
      </trkpt>
      <trkpt lat="42.07379" lon="21.23652">
        <ele>359.11894</ele>
        <time>2022-04-23T09:26:32.508Z</time>
      </trkpt>
      <trkpt lat="42.0739" lon="21.23644">
        <ele>358.934256</ele>
        <time>2022-04-23T09:26:35.513Z</time>
      </trkpt>
      <trkpt lat="42.07399" lon="21.23639">
        <ele>358.807763</ele>
        <time>2022-04-23T09:26:37.521Z</time>
      </trkpt>
      <trkpt lat="42.07407" lon="21.23633">
        <ele>358.679353</ele>
        <time>2022-04-23T09:26:39.538Z</time>
      </trkpt>
      <trkpt lat="42.07416" lon="21.23626">
        <ele>358.530564</ele>
        <time>2022-04-23T09:26:41.522Z</time>
      </trkpt>
      <trkpt lat="42.07426" lon="21.23618">
        <ele>358.370452</ele>
        <time>2022-04-23T09:26:43.502Z</time>
      </trkpt>
      <trkpt lat="42.07436" lon="21.23611">
        <ele>358.211842</ele>
        <time>2022-04-23T09:26:45.509Z</time>
      </trkpt>
      <trkpt lat="42.07447" lon="21.23603">
        <ele>358.028154</ele>
        <time>2022-04-23T09:26:47.520Z</time>
      </trkpt>
      <trkpt lat="42.07458" lon="21.23595">
        <ele>357.800469</ele>
        <time>2022-04-23T09:26:49.512Z</time>
      </trkpt>
      <trkpt lat="42.07468" lon="21.23587">
        <ele>357.578263</ele>
        <time>2022-04-23T09:26:51.504Z</time>
      </trkpt>
      <trkpt lat="42.07479" lon="21.2358">
        <ele>357.357362</ele>
        <time>2022-04-23T09:26:53.498Z</time>
      </trkpt>
      <trkpt lat="42.0749" lon="21.23572">
        <ele>357.138993</ele>
        <time>2022-04-23T09:26:55.502Z</time>
      </trkpt>
      <trkpt lat="42.07499" lon="21.23565">
        <ele>356.93811</ele>
        <time>2022-04-23T09:26:57.505Z</time>
      </trkpt>
      <trkpt lat="42.07508" lon="21.23559">
        <ele>356.751758</ele>
        <time>2022-04-23T09:26:59.497Z</time>
      </trkpt>
      <trkpt lat="42.07519" lon="21.23549">
        <ele>356.512084</ele>
        <time>2022-04-23T09:27:02.512Z</time>
      </trkpt>
      <trkpt lat="42.07527" lon="21.23542">
        <ele>356.334847</ele>
        <time>2022-04-23T09:27:04.506Z</time>
      </trkpt>
      <trkpt lat="42.07538" lon="21.23531">
        <ele>356.096455</ele>
        <time>2022-04-23T09:27:07.545Z</time>
      </trkpt>
      <trkpt lat="42.07546" lon="21.23522">
        <ele>355.891034</ele>
        <time>2022-04-23T09:27:10.506Z</time>
      </trkpt>
      <trkpt lat="42.07553" lon="21.23512">
        <ele>355.711343</ele>
        <time>2022-04-23T09:27:13.505Z</time>
      </trkpt>
      <trkpt lat="42.0756" lon="21.23502">
        <ele>355.514915</ele>
        <time>2022-04-23T09:27:16.493Z</time>
      </trkpt>
      <trkpt lat="42.07567" lon="21.2349">
        <ele>355.313747</ele>
        <time>2022-04-23T09:27:19.505Z</time>
      </trkpt>
      <trkpt lat="42.07572" lon="21.23477">
        <ele>355.113791</ele>
        <time>2022-04-23T09:27:22.518Z</time>
      </trkpt>
      <trkpt lat="42.07577" lon="21.23464">
        <ele>354.91127</ele>
        <time>2022-04-23T09:27:25.509Z</time>
      </trkpt>
      <trkpt lat="42.07582" lon="21.23449">
        <ele>354.928787</ele>
        <time>2022-04-23T09:27:28.533Z</time>
      </trkpt>
      <trkpt lat="42.07586" lon="21.23435">
        <ele>355.301076</ele>
        <time>2022-04-23T09:27:31.517Z</time>
      </trkpt>
      <trkpt lat="42.0759" lon="21.23421">
        <ele>355.646206</ele>
        <time>2022-04-23T09:27:34.554Z</time>
      </trkpt>
      <trkpt lat="42.07593" lon="21.23408">
        <ele>355.995688</ele>
        <time>2022-04-23T09:27:37.515Z</time>
      </trkpt>
      <trkpt lat="42.07598" lon="21.23393">
        <ele>356.378848</ele>
        <time>2022-04-23T09:27:40.520Z</time>
      </trkpt>
      <trkpt lat="42.07602" lon="21.2338">
        <ele>356.718296</ele>
        <time>2022-04-23T09:27:43.508Z</time>
      </trkpt>
      <trkpt lat="42.07606" lon="21.23368">
        <ele>357.044761</ele>
        <time>2022-04-23T09:27:46.525Z</time>
      </trkpt>
      <trkpt lat="42.07612" lon="21.23354">
        <ele>357.425708</ele>
        <time>2022-04-23T09:27:50.525Z</time>
      </trkpt>
      <trkpt lat="42.07619" lon="21.23343">
        <ele>357.766923</ele>
        <time>2022-04-23T09:27:54.521Z</time>
      </trkpt>
      <trkpt lat="42.07625" lon="21.23332">
        <ele>358.10709</ele>
        <time>2022-04-23T09:27:58.506Z</time>
      </trkpt>
      <trkpt lat="42.07633" lon="21.23325">
        <ele>358.403091</ele>
        <time>2022-04-23T09:28:01.499Z</time>
      </trkpt>
      <trkpt lat="42.07642" lon="21.23317">
        <ele>358.743468</ele>
        <time>2022-04-23T09:28:04.510Z</time>
      </trkpt>
      <trkpt lat="42.07652" lon="21.2331">
        <ele>359.111049</ele>
        <time>2022-04-23T09:28:07.557Z</time>
      </trkpt>
      <trkpt lat="42.07662" lon="21.23302">
        <ele>359.487553</ele>
        <time>2022-04-23T09:28:10.514Z</time>
      </trkpt>
      <trkpt lat="42.07672" lon="21.23293">
        <ele>359.881236</ele>
        <time>2022-04-23T09:28:13.491Z</time>
      </trkpt>
      <trkpt lat="42.07681" lon="21.23282">
        <ele>360.299059</ele>
        <time>2022-04-23T09:28:16.503Z</time>
      </trkpt>
      <trkpt lat="42.0769" lon="21.23269">
        <ele>360.728664</ele>
        <time>2022-04-23T09:28:19.517Z</time>
      </trkpt>
      <trkpt lat="42.07697" lon="21.23256">
        <ele>361.176867</ele>
        <time>2022-04-23T09:28:22.505Z</time>
      </trkpt>
      <trkpt lat="42.07702" lon="21.23243">
        <ele>361.613049</ele>
        <time>2022-04-23T09:28:25.524Z</time>
      </trkpt>
      <trkpt lat="42.07708" lon="21.2323">
        <ele>362.075581</ele>
        <time>2022-04-23T09:28:28.485Z</time>
      </trkpt>
      <trkpt lat="42.07715" lon="21.23216">
        <ele>362.544753</ele>
        <time>2022-04-23T09:28:31.500Z</time>
      </trkpt>
      <trkpt lat="42.07723" lon="21.23202">
        <ele>363.053658</ele>
        <time>2022-04-23T09:28:34.515Z</time>
      </trkpt>
      <trkpt lat="42.0773" lon="21.23188">
        <ele>363.540278</ele>
        <time>2022-04-23T09:28:37.505Z</time>
      </trkpt>
      <trkpt lat="42.07737" lon="21.23174">
        <ele>364.032605</ele>
        <time>2022-04-23T09:28:40.536Z</time>
      </trkpt>
      <trkpt lat="42.07744" lon="21.2316">
        <ele>364.537395</ele>
        <time>2022-04-23T09:28:43.516Z</time>
      </trkpt>
      <trkpt lat="42.07752" lon="21.23146">
        <ele>365.027388</ele>
        <time>2022-04-23T09:28:46.494Z</time>
      </trkpt>
      <trkpt lat="42.07759" lon="21.23133">
        <ele>365.501636</ele>
        <time>2022-04-23T09:28:49.517Z</time>
      </trkpt>
      <trkpt lat="42.07768" lon="21.23119">
        <ele>366.028908</ele>
        <time>2022-04-23T09:28:52.505Z</time>
      </trkpt>
      <trkpt lat="42.07776" lon="21.23105">
        <ele>366.547813</ele>
        <time>2022-04-23T09:28:55.499Z</time>
      </trkpt>
      <trkpt lat="42.07785" lon="21.23092">
        <ele>367.046278</ele>
        <time>2022-04-23T09:28:58.506Z</time>
      </trkpt>
      <trkpt lat="42.07793" lon="21.2308">
        <ele>367.523902</ele>
        <time>2022-04-23T09:29:01.501Z</time>
      </trkpt>
      <trkpt lat="42.07801" lon="21.23069">
        <ele>367.326924</ele>
        <time>2022-04-23T09:29:04.534Z</time>
      </trkpt>
      <trkpt lat="42.0781" lon="21.23059">
        <ele>366.9666</ele>
        <time>2022-04-23T09:29:07.564Z</time>
      </trkpt>
      <trkpt lat="42.07819" lon="21.23048">
        <ele>366.586019</ele>
        <time>2022-04-23T09:29:10.498Z</time>
      </trkpt>
      <trkpt lat="42.07827" lon="21.23037">
        <ele>366.214928</ele>
        <time>2022-04-23T09:29:13.536Z</time>
      </trkpt>
      <trkpt lat="42.07836" lon="21.23027">
        <ele>365.857153</ele>
        <time>2022-04-23T09:29:16.506Z</time>
      </trkpt>
      <trkpt lat="42.07844" lon="21.23017">
        <ele>365.493151</ele>
        <time>2022-04-23T09:29:19.485Z</time>
      </trkpt>
      <trkpt lat="42.07853" lon="21.23006">
        <ele>365.114282</ele>
        <time>2022-04-23T09:29:22.502Z</time>
      </trkpt>
      <trkpt lat="42.07863" lon="21.22995">
        <ele>364.719515</ele>
        <time>2022-04-23T09:29:25.510Z</time>
      </trkpt>
      <trkpt lat="42.07872" lon="21.22984">
        <ele>364.321058</ele>
        <time>2022-04-23T09:29:28.502Z</time>
      </trkpt>
      <trkpt lat="42.07879" lon="21.22975">
        <ele>364.02465</ele>
        <time>2022-04-23T09:29:30.523Z</time>
      </trkpt>
      <trkpt lat="42.07888" lon="21.22962">
        <ele>363.604458</ele>
        <time>2022-04-23T09:29:33.487Z</time>
      </trkpt>
      <trkpt lat="42.07896" lon="21.2295">
        <ele>363.213937</ele>
        <time>2022-04-23T09:29:36.497Z</time>
      </trkpt>
      <trkpt lat="42.07903" lon="21.22935">
        <ele>362.821417</ele>
        <time>2022-04-23T09:29:39.488Z</time>
      </trkpt>
      <trkpt lat="42.07909" lon="21.22922">
        <ele>362.447132</ele>
        <time>2022-04-23T09:29:42.503Z</time>
      </trkpt>
      <trkpt lat="42.07915" lon="21.22907">
        <ele>362.05205</ele>
        <time>2022-04-23T09:29:45.510Z</time>
      </trkpt>
      <trkpt lat="42.0792" lon="21.22891">
        <ele>361.439552</ele>
        <time>2022-04-23T09:29:48.495Z</time>
      </trkpt>
      <trkpt lat="42.07925" lon="21.22875">
        <ele>360.755874</ele>
        <time>2022-04-23T09:29:51.536Z</time>
      </trkpt>
      <trkpt lat="42.07931" lon="21.22859">
        <ele>360.06514</ele>
        <time>2022-04-23T09:29:54.519Z</time>
      </trkpt>
      <trkpt lat="42.07936" lon="21.22842">
        <ele>359.379409</ele>
        <time>2022-04-23T09:29:57.517Z</time>
      </trkpt>
      <trkpt lat="42.07941" lon="21.22827">
        <ele>358.708061</ele>
        <time>2022-04-23T09:30:00.516Z</time>
      </trkpt>
      <trkpt lat="42.07946" lon="21.22811">
        <ele>358.033123</ele>
        <time>2022-04-23T09:30:03.498Z</time>
      </trkpt>
      <trkpt lat="42.07951" lon="21.22795">
        <ele>357.34171</ele>
        <time>2022-04-23T09:30:06.500Z</time>
      </trkpt>
      <trkpt lat="42.07956" lon="21.22779">
        <ele>356.664114</ele>
        <time>2022-04-23T09:30:09.511Z</time>
      </trkpt>
      <trkpt lat="42.0796" lon="21.22763">
        <ele>356.011846</ele>
        <time>2022-04-23T09:30:12.516Z</time>
      </trkpt>
      <trkpt lat="42.07964" lon="21.22749">
        <ele>355.407002</ele>
        <time>2022-04-23T09:30:15.515Z</time>
      </trkpt>
      <trkpt lat="42.07968" lon="21.22734">
        <ele>354.809852</ele>
        <time>2022-04-23T09:30:18.494Z</time>
      </trkpt>
      <trkpt lat="42.07973" lon="21.2272">
        <ele>354.214687</ele>
        <time>2022-04-23T09:30:21.503Z</time>
      </trkpt>
      <trkpt lat="42.07978" lon="21.22706">
        <ele>353.569811</ele>
        <time>2022-04-23T09:30:24.514Z</time>
      </trkpt>
      <trkpt lat="42.07984" lon="21.22691">
        <ele>352.927051</ele>
        <time>2022-04-23T09:30:27.516Z</time>
      </trkpt>
      <trkpt lat="42.0799" lon="21.22678">
        <ele>352.530826</ele>
        <time>2022-04-23T09:30:30.504Z</time>
      </trkpt>
      <trkpt lat="42.07997" lon="21.22666">
        <ele>352.999477</ele>
        <time>2022-04-23T09:30:33.507Z</time>
      </trkpt>
      <trkpt lat="42.08004" lon="21.22653">
        <ele>353.467855</ele>
        <time>2022-04-23T09:30:36.501Z</time>
      </trkpt>
      <trkpt lat="42.08012" lon="21.22641">
        <ele>353.935391</ele>
        <time>2022-04-23T09:30:39.561Z</time>
      </trkpt>
      <trkpt lat="42.0802" lon="21.2263">
        <ele>354.385001</ele>
        <time>2022-04-23T09:30:42.493Z</time>
      </trkpt>
      <trkpt lat="42.08028" lon="21.2262">
        <ele>354.827723</ele>
        <time>2022-04-23T09:30:45.506Z</time>
      </trkpt>
      <trkpt lat="42.08036" lon="21.22611">
        <ele>355.239042</ele>
        <time>2022-04-23T09:30:48.484Z</time>
      </trkpt>
      <trkpt lat="42.08043" lon="21.22602">
        <ele>355.60936</ele>
        <time>2022-04-23T09:30:51.496Z</time>
      </trkpt>
      <trkpt lat="42.0805" lon="21.22591">
        <ele>356.037043</ele>
        <time>2022-04-23T09:30:54.510Z</time>
      </trkpt>
      <trkpt lat="42.08058" lon="21.2258">
        <ele>356.475981</ele>
        <time>2022-04-23T09:30:57.546Z</time>
      </trkpt>
      <trkpt lat="42.08066" lon="21.22569">
        <ele>356.926006</ele>
        <time>2022-04-23T09:31:00.526Z</time>
      </trkpt>
      <trkpt lat="42.08073" lon="21.2256">
        <ele>357.322753</ele>
        <time>2022-04-23T09:31:03.537Z</time>
      </trkpt>
      <trkpt lat="42.08081" lon="21.2255">
        <ele>357.744312</ele>
        <time>2022-04-23T09:31:06.503Z</time>
      </trkpt>
      <trkpt lat="42.08088" lon="21.2254">
        <ele>358.139465</ele>
        <time>2022-04-23T09:31:09.541Z</time>
      </trkpt>
      <trkpt lat="42.08095" lon="21.2253">
        <ele>358.563295</ele>
        <time>2022-04-23T09:31:12.494Z</time>
      </trkpt>
      <trkpt lat="42.08103" lon="21.2252">
        <ele>358.984127</ele>
        <time>2022-04-23T09:31:15.535Z</time>
      </trkpt>
      <trkpt lat="42.0811" lon="21.2251">
        <ele>359.400816</ele>
        <time>2022-04-23T09:31:18.508Z</time>
      </trkpt>
      <trkpt lat="42.08118" lon="21.225">
        <ele>359.518693</ele>
        <time>2022-04-23T09:31:21.509Z</time>
      </trkpt>
      <trkpt lat="42.08125" lon="21.22491">
        <ele>359.475164</ele>
        <time>2022-04-23T09:31:24.508Z</time>
      </trkpt>
      <trkpt lat="42.08132" lon="21.22482">
        <ele>359.431322</ele>
        <time>2022-04-23T09:31:27.519Z</time>
      </trkpt>
      <trkpt lat="42.08138" lon="21.22472">
        <ele>359.387303</ele>
        <time>2022-04-23T09:31:30.490Z</time>
      </trkpt>
      <trkpt lat="42.08145" lon="21.22463">
        <ele>359.343225</ele>
        <time>2022-04-23T09:31:33.501Z</time>
      </trkpt>
      <trkpt lat="42.08153" lon="21.22453">
        <ele>359.297853</ele>
        <time>2022-04-23T09:31:36.490Z</time>
      </trkpt>
      <trkpt lat="42.08161" lon="21.22444">
        <ele>359.252375</ele>
        <time>2022-04-23T09:31:39.493Z</time>
      </trkpt>
      <trkpt lat="42.08168" lon="21.22436">
        <ele>359.20772</ele>
        <time>2022-04-23T09:31:42.496Z</time>
      </trkpt>
      <trkpt lat="42.08176" lon="21.22428">
        <ele>359.166178</ele>
        <time>2022-04-23T09:31:45.486Z</time>
      </trkpt>
      <trkpt lat="42.08183" lon="21.22421">
        <ele>359.125555</ele>
        <time>2022-04-23T09:31:48.505Z</time>
      </trkpt>
      <trkpt lat="42.08191" lon="21.22414">
        <ele>359.084753</ele>
        <time>2022-04-23T09:31:51.494Z</time>
      </trkpt>
      <trkpt lat="42.08201" lon="21.22407">
        <ele>359.034255</ele>
        <time>2022-04-23T09:31:55.499Z</time>
      </trkpt>
      <trkpt lat="42.08211" lon="21.22399">
        <ele>358.982358</ele>
        <time>2022-04-23T09:31:59.486Z</time>
      </trkpt>
      <trkpt lat="42.0822" lon="21.22393">
        <ele>358.937844</ele>
        <time>2022-04-23T09:32:03.515Z</time>
      </trkpt>
      <trkpt lat="42.08229" lon="21.22386">
        <ele>358.892396</ele>
        <time>2022-04-23T09:32:07.507Z</time>
      </trkpt>
      <trkpt lat="42.08238" lon="21.2238">
        <ele>358.844746</ele>
        <time>2022-04-23T09:32:11.517Z</time>
      </trkpt>
      <trkpt lat="42.08247" lon="21.22374">
        <ele>358.801937</ele>
        <time>2022-04-23T09:32:15.518Z</time>
      </trkpt>
      <trkpt lat="42.08256" lon="21.22365">
        <ele>358.751134</ele>
        <time>2022-04-23T09:32:20.502Z</time>
      </trkpt>
      <trkpt lat="42.08264" lon="21.22356">
        <ele>359.06544</ele>
        <time>2022-04-23T09:32:24.506Z</time>
      </trkpt>
      <trkpt lat="42.08272" lon="21.22348">
        <ele>359.419214</ele>
        <time>2022-04-23T09:32:28.501Z</time>
      </trkpt>
      <trkpt lat="42.0828" lon="21.22337">
        <ele>359.809439</ele>
        <time>2022-04-23T09:32:32.532Z</time>
      </trkpt>
      <trkpt lat="42.08286" lon="21.22328">
        <ele>360.120896</ele>
        <time>2022-04-23T09:32:35.493Z</time>
      </trkpt>
      <trkpt lat="42.08292" lon="21.22318">
        <ele>360.449753</ele>
        <time>2022-04-23T09:32:38.568Z</time>
      </trkpt>
      <trkpt lat="42.08299" lon="21.22308">
        <ele>360.776851</ele>
        <time>2022-04-23T09:32:41.526Z</time>
      </trkpt>
      <trkpt lat="42.08305" lon="21.22298">
        <ele>361.120999</ele>
        <time>2022-04-23T09:32:44.488Z</time>
      </trkpt>
      <trkpt lat="42.08311" lon="21.22287">
        <ele>361.459911</ele>
        <time>2022-04-23T09:32:47.505Z</time>
      </trkpt>
      <trkpt lat="42.08316" lon="21.22275">
        <ele>361.834754</ele>
        <time>2022-04-23T09:32:50.540Z</time>
      </trkpt>
      <trkpt lat="42.08321" lon="21.22259">
        <ele>362.266554</ele>
        <time>2022-04-23T09:32:53.500Z</time>
      </trkpt>
      <trkpt lat="42.08324" lon="21.22248">
        <ele>362.58312</ele>
        <time>2022-04-23T09:32:55.508Z</time>
      </trkpt>
      <trkpt lat="42.08327" lon="21.22235">
        <ele>362.912141</ele>
        <time>2022-04-23T09:32:57.533Z</time>
      </trkpt>
      <trkpt lat="42.0833" lon="21.22223">
        <ele>363.232818</ele>
        <time>2022-04-23T09:32:59.512Z</time>
      </trkpt>
      <trkpt lat="42.08332" lon="21.22211">
        <ele>363.545629</ele>
        <time>2022-04-23T09:33:01.545Z</time>
      </trkpt>
      <trkpt lat="42.08334" lon="21.22196">
        <ele>363.944852</ele>
        <time>2022-04-23T09:33:04.496Z</time>
      </trkpt>
      <trkpt lat="42.08336" lon="21.22183">
        <ele>364.280098</ele>
        <time>2022-04-23T09:33:07.522Z</time>
      </trkpt>
      <trkpt lat="42.08341" lon="21.22172">
        <ele>364.608676</ele>
        <time>2022-04-23T09:33:10.532Z</time>
      </trkpt>
      <trkpt lat="42.08347" lon="21.22163">
        <ele>364.928003</ele>
        <time>2022-04-23T09:33:13.490Z</time>
      </trkpt>
      <trkpt lat="42.08356" lon="21.22155">
        <ele>364.909497</ele>
        <time>2022-04-23T09:33:16.518Z</time>
      </trkpt>
      <trkpt lat="42.08366" lon="21.22145">
        <ele>364.866873</ele>
        <time>2022-04-23T09:33:19.501Z</time>
      </trkpt>
      <trkpt lat="42.08375" lon="21.22132">
        <ele>364.821004</ele>
        <time>2022-04-23T09:33:22.501Z</time>
      </trkpt>
      <trkpt lat="42.08381" lon="21.22122">
        <ele>364.788547</ele>
        <time>2022-04-23T09:33:24.535Z</time>
      </trkpt>
      <trkpt lat="42.08388" lon="21.22113">
        <ele>364.755897</ele>
        <time>2022-04-23T09:33:26.500Z</time>
      </trkpt>
      <trkpt lat="42.08395" lon="21.22099">
        <ele>364.71329</ele>
        <time>2022-04-23T09:33:29.587Z</time>
      </trkpt>
      <trkpt lat="42.084" lon="21.22086">
        <ele>364.676007</ele>
        <time>2022-04-23T09:33:32.493Z</time>
      </trkpt>
      <trkpt lat="42.08406" lon="21.22075">
        <ele>364.642344</ele>
        <time>2022-04-23T09:33:35.517Z</time>
      </trkpt>
      <trkpt lat="42.08412" lon="21.22063">
        <ele>364.604162</ele>
        <time>2022-04-23T09:33:38.499Z</time>
      </trkpt>
      <trkpt lat="42.08418" lon="21.2205">
        <ele>364.565333</ele>
        <time>2022-04-23T09:33:41.477Z</time>
      </trkpt>
      <trkpt lat="42.08424" lon="21.22038">
        <ele>364.52703</ele>
        <time>2022-04-23T09:33:44.522Z</time>
      </trkpt>
      <trkpt lat="42.08429" lon="21.22025">
        <ele>364.490588</ele>
        <time>2022-04-23T09:33:47.540Z</time>
      </trkpt>
      <trkpt lat="42.08435" lon="21.22011">
        <ele>364.449797</ele>
        <time>2022-04-23T09:33:50.512Z</time>
      </trkpt>
      <trkpt lat="42.08441" lon="21.21998">
        <ele>364.409882</ele>
        <time>2022-04-23T09:33:53.513Z</time>
      </trkpt>
      <trkpt lat="42.08446" lon="21.21984">
        <ele>364.371066</ele>
        <time>2022-04-23T09:33:56.534Z</time>
      </trkpt>
      <trkpt lat="42.0845" lon="21.21968">
        <ele>364.329082</ele>
        <time>2022-04-23T09:33:59.519Z</time>
      </trkpt>
      <trkpt lat="42.08453" lon="21.21953">
        <ele>364.074194</ele>
        <time>2022-04-23T09:34:02.545Z</time>
      </trkpt>
      <trkpt lat="42.08454" lon="21.21938">
        <ele>363.816121</ele>
        <time>2022-04-23T09:34:05.520Z</time>
      </trkpt>
      <trkpt lat="42.08457" lon="21.21922">
        <ele>363.534828</ele>
        <time>2022-04-23T09:34:08.507Z</time>
      </trkpt>
      <trkpt lat="42.0846" lon="21.21905">
        <ele>363.231922</ele>
        <time>2022-04-23T09:34:11.508Z</time>
      </trkpt>
      <trkpt lat="42.08461" lon="21.21893">
        <ele>363.02001</ele>
        <time>2022-04-23T09:34:13.530Z</time>
      </trkpt>
      <trkpt lat="42.08463" lon="21.21881">
        <ele>362.807653</ele>
        <time>2022-04-23T09:34:15.518Z</time>
      </trkpt>
      <trkpt lat="42.08466" lon="21.21869">
        <ele>362.583225</ele>
        <time>2022-04-23T09:34:17.522Z</time>
      </trkpt>
      <trkpt lat="42.08469" lon="21.21857">
        <ele>362.361396</ele>
        <time>2022-04-23T09:34:19.624Z</time>
      </trkpt>
      <trkpt lat="42.08474" lon="21.21844">
        <ele>362.126848</ele>
        <time>2022-04-23T09:34:21.496Z</time>
      </trkpt>
      <trkpt lat="42.08479" lon="21.21833">
        <ele>361.901641</ele>
        <time>2022-04-23T09:34:23.499Z</time>
      </trkpt>
      <trkpt lat="42.08483" lon="21.21822">
        <ele>361.687009</ele>
        <time>2022-04-23T09:34:25.510Z</time>
      </trkpt>
      <trkpt lat="42.08488" lon="21.21807">
        <ele>361.411879</ele>
        <time>2022-04-23T09:34:28.514Z</time>
      </trkpt>
      <trkpt lat="42.08489" lon="21.21795">
        <ele>361.199602</ele>
        <time>2022-04-23T09:34:32.521Z</time>
      </trkpt>
      <trkpt lat="42.08492" lon="21.21783">
        <ele>360.974528</ele>
        <time>2022-04-23T09:34:36.511Z</time>
      </trkpt>
      <trkpt lat="42.085" lon="21.2177">
        <ele>360.690862</ele>
        <time>2022-04-23T09:34:40.502Z</time>
      </trkpt>
      <trkpt lat="42.08506" lon="21.2176">
        <ele>360.469445</ele>
        <time>2022-04-23T09:34:43.577Z</time>
      </trkpt>
      <trkpt lat="42.08512" lon="21.2175">
        <ele>360.255247</ele>
        <time>2022-04-23T09:34:46.499Z</time>
      </trkpt>
      <trkpt lat="42.08517" lon="21.2174">
        <ele>360.217473</ele>
        <time>2022-04-23T09:34:49.511Z</time>
      </trkpt>
      <trkpt lat="42.08522" lon="21.21728">
        <ele>360.344416</ele>
        <time>2022-04-23T09:34:52.493Z</time>
      </trkpt>
      <trkpt lat="42.08527" lon="21.21715">
        <ele>360.476361</ele>
        <time>2022-04-23T09:34:55.510Z</time>
      </trkpt>
      <trkpt lat="42.08533" lon="21.21703">
        <ele>360.611471</ele>
        <time>2022-04-23T09:34:58.500Z</time>
      </trkpt>
      <trkpt lat="42.08538" lon="21.2169">
        <ele>360.746867</ele>
        <time>2022-04-23T09:35:01.489Z</time>
      </trkpt>
      <trkpt lat="42.08545" lon="21.21676">
        <ele>360.901141</ele>
        <time>2022-04-23T09:35:04.526Z</time>
      </trkpt>
      <trkpt lat="42.08552" lon="21.21663">
        <ele>361.044031</ele>
        <time>2022-04-23T09:35:07.504Z</time>
      </trkpt>
      <trkpt lat="42.08558" lon="21.2165">
        <ele>361.187786</ele>
        <time>2022-04-23T09:35:10.534Z</time>
      </trkpt>
      <trkpt lat="42.08565" lon="21.21637">
        <ele>361.331473</ele>
        <time>2022-04-23T09:35:13.518Z</time>
      </trkpt>
      <trkpt lat="42.08572" lon="21.21622">
        <ele>361.488068</ele>
        <time>2022-04-23T09:35:16.506Z</time>
      </trkpt>
      <trkpt lat="42.08579" lon="21.21608">
        <ele>361.645709</ele>
        <time>2022-04-23T09:35:19.514Z</time>
      </trkpt>
      <trkpt lat="42.08585" lon="21.21593">
        <ele>361.797362</ele>
        <time>2022-04-23T09:35:22.527Z</time>
      </trkpt>
      <trkpt lat="42.08591" lon="21.2158">
        <ele>361.941299</ele>
        <time>2022-04-23T09:35:25.514Z</time>
      </trkpt>
      <trkpt lat="42.08597" lon="21.21567">
        <ele>362.079043</ele>
        <time>2022-04-23T09:35:28.506Z</time>
      </trkpt>
      <trkpt lat="42.08602" lon="21.21554">
        <ele>362.214499</ele>
        <time>2022-04-23T09:35:31.538Z</time>
      </trkpt>
      <trkpt lat="42.08607" lon="21.21541">
        <ele>362.348815</ele>
        <time>2022-04-23T09:35:34.489Z</time>
      </trkpt>
      <trkpt lat="42.08613" lon="21.21527">
        <ele>362.144338</ele>
        <time>2022-04-23T09:35:37.512Z</time>
      </trkpt>
      <trkpt lat="42.08618" lon="21.21514">
        <ele>361.892062</ele>
        <time>2022-04-23T09:35:40.491Z</time>
      </trkpt>
      <trkpt lat="42.08624" lon="21.21502">
        <ele>361.651752</ele>
        <time>2022-04-23T09:35:43.502Z</time>
      </trkpt>
      <trkpt lat="42.0863" lon="21.2149">
        <ele>361.405342</ele>
        <time>2022-04-23T09:35:46.512Z</time>
      </trkpt>
      <trkpt lat="42.08636" lon="21.21477">
        <ele>361.16688</ele>
        <time>2022-04-23T09:35:49.512Z</time>
      </trkpt>
      <trkpt lat="42.08641" lon="21.21466">
        <ele>360.934888</ele>
        <time>2022-04-23T09:35:52.507Z</time>
      </trkpt>
      <trkpt lat="42.08647" lon="21.21454">
        <ele>360.707971</ele>
        <time>2022-04-23T09:35:55.495Z</time>
      </trkpt>
      <trkpt lat="42.08652" lon="21.21444">
        <ele>360.504156</ele>
        <time>2022-04-23T09:35:58.515Z</time>
      </trkpt>
      <trkpt lat="42.08658" lon="21.21431">
        <ele>360.246455</ele>
        <time>2022-04-23T09:36:02.560Z</time>
      </trkpt>
      <trkpt lat="42.08662" lon="21.2142">
        <ele>360.043522</ele>
        <time>2022-04-23T09:36:05.489Z</time>
      </trkpt>
      <trkpt lat="42.08658" lon="21.21405">
        <ele>359.795794</ele>
        <time>2022-04-23T09:36:09.525Z</time>
      </trkpt>
      <trkpt lat="42.08654" lon="21.21393">
        <ele>359.566331</ele>
        <time>2022-04-23T09:36:13.504Z</time>
      </trkpt>
      <trkpt lat="42.0865" lon="21.21382">
        <ele>359.361708</ele>
        <time>2022-04-23T09:36:17.510Z</time>
      </trkpt>
      <trkpt lat="42.08644" lon="21.2137">
        <ele>359.125905</ele>
        <time>2022-04-23T09:36:21.488Z</time>
      </trkpt>
      <trkpt lat="42.08639" lon="21.21359">
        <ele>358.913586</ele>
        <time>2022-04-23T09:36:25.498Z</time>
      </trkpt>
      <trkpt lat="42.08634" lon="21.21349">
        <ele>358.706967</ele>
        <time>2022-04-23T09:36:29.502Z</time>
      </trkpt>
      <trkpt lat="42.0863" lon="21.21336">
        <ele>358.470588</ele>
        <time>2022-04-23T09:36:34.486Z</time>
      </trkpt>
      <trkpt lat="42.08621" lon="21.21332">
        <ele>358.403818</ele>
        <time>2022-04-23T09:36:40.506Z</time>
      </trkpt>
      <trkpt lat="42.08624" lon="21.21344">
        <ele>358.539556</ele>
        <time>2022-04-23T09:36:45.532Z</time>
      </trkpt>
      <trkpt lat="42.0863" lon="21.21356">
        <ele>358.6828</ele>
        <time>2022-04-23T09:36:49.493Z</time>
      </trkpt>
      <trkpt lat="42.08635" lon="21.21368">
        <ele>358.825552</ele>
        <time>2022-04-23T09:36:52.511Z</time>
      </trkpt>
      <trkpt lat="42.08641" lon="21.21381">
        <ele>358.983359</ele>
        <time>2022-04-23T09:36:55.491Z</time>
      </trkpt>
      <trkpt lat="42.08647" lon="21.21394">
        <ele>359.148695</ele>
        <time>2022-04-23T09:36:58.481Z</time>
      </trkpt>
      <trkpt lat="42.08654" lon="21.21407">
        <ele>359.314345</ele>
        <time>2022-04-23T09:37:01.502Z</time>
      </trkpt>
      <trkpt lat="42.08665" lon="21.21415">
        <ele>359.482226</ele>
        <time>2022-04-23T09:37:04.494Z</time>
      </trkpt>
      <trkpt lat="42.08674" lon="21.21408">
        <ele>359.636636</ele>
        <time>2022-04-23T09:37:07.492Z</time>
      </trkpt>
      <trkpt lat="42.08683" lon="21.21395">
        <ele>359.823502</ele>
        <time>2022-04-23T09:37:10.498Z</time>
      </trkpt>
      <trkpt lat="42.08691" lon="21.21382">
        <ele>359.992681</ele>
        <time>2022-04-23T09:37:13.496Z</time>
      </trkpt>
      <trkpt lat="42.08699" lon="21.2137">
        <ele>360.165369</ele>
        <time>2022-04-23T09:37:16.477Z</time>
      </trkpt>
      <trkpt lat="42.08707" lon="21.21357">
        <ele>360.33535</ele>
        <time>2022-04-23T09:37:19.506Z</time>
      </trkpt>
      <trkpt lat="42.08713" lon="21.21346">
        <ele>360.475014</ele>
        <time>2022-04-23T09:37:22.482Z</time>
      </trkpt>
      <trkpt lat="42.08721" lon="21.21335">
        <ele>360.639166</ele>
        <time>2022-04-23T09:37:26.490Z</time>
      </trkpt>
      <trkpt lat="42.08727" lon="21.21322">
        <ele>360.796831</ele>
        <time>2022-04-23T09:37:29.526Z</time>
      </trkpt>
      <trkpt lat="42.08734" lon="21.21309">
        <ele>360.833609</ele>
        <time>2022-04-23T09:37:32.487Z</time>
      </trkpt>
      <trkpt lat="42.08742" lon="21.21296">
        <ele>360.769073</ele>
        <time>2022-04-23T09:37:35.542Z</time>
      </trkpt>
      <trkpt lat="42.08749" lon="21.21283">
        <ele>360.701009</ele>
        <time>2022-04-23T09:37:38.490Z</time>
      </trkpt>
      <trkpt lat="42.08757" lon="21.21269">
        <ele>360.63133</ele>
        <time>2022-04-23T09:37:41.480Z</time>
      </trkpt>
      <trkpt lat="42.08764" lon="21.21256">
        <ele>360.565553</ele>
        <time>2022-04-23T09:37:44.494Z</time>
      </trkpt>
      <trkpt lat="42.08771" lon="21.21244">
        <ele>360.501087</ele>
        <time>2022-04-23T09:37:47.498Z</time>
      </trkpt>
      <trkpt lat="42.08778" lon="21.21231">
        <ele>360.436955</ele>
        <time>2022-04-23T09:37:50.503Z</time>
      </trkpt>
      <trkpt lat="42.08785" lon="21.21218">
        <ele>360.370871</ele>
        <time>2022-04-23T09:37:53.500Z</time>
      </trkpt>
      <trkpt lat="42.08792" lon="21.21206">
        <ele>360.308676</ele>
        <time>2022-04-23T09:37:56.500Z</time>
      </trkpt>
      <trkpt lat="42.08799" lon="21.21194">
        <ele>360.245846</ele>
        <time>2022-04-23T09:37:59.497Z</time>
      </trkpt>
      <trkpt lat="42.08806" lon="21.21182">
        <ele>360.186272</ele>
        <time>2022-04-23T09:38:02.523Z</time>
      </trkpt>
      <trkpt lat="42.08811" lon="21.2117">
        <ele>360.130851</ele>
        <time>2022-04-23T09:38:05.493Z</time>
      </trkpt>
      <trkpt lat="42.08817" lon="21.21161">
        <ele>360.081364</ele>
        <time>2022-04-23T09:38:08.490Z</time>
      </trkpt>
      <trkpt lat="42.08824" lon="21.21148">
        <ele>360.019174</ele>
        <time>2022-04-23T09:38:12.497Z</time>
      </trkpt>
      <trkpt lat="42.0883" lon="21.21135">
        <ele>359.956823</ele>
        <time>2022-04-23T09:38:16.484Z</time>
      </trkpt>
      <trkpt lat="42.08836" lon="21.21122">
        <ele>359.891882</ele>
        <time>2022-04-23T09:38:20.537Z</time>
      </trkpt>
      <trkpt lat="42.08842" lon="21.2111">
        <ele>360.235674</ele>
        <time>2022-04-23T09:38:24.496Z</time>
      </trkpt>
      <trkpt lat="42.08847" lon="21.21098">
        <ele>360.606</ele>
        <time>2022-04-23T09:38:28.499Z</time>
      </trkpt>
      <trkpt lat="42.08851" lon="21.21087">
        <ele>360.938347</ele>
        <time>2022-04-23T09:38:32.530Z</time>
      </trkpt>
      <trkpt lat="42.08858" lon="21.21076">
        <ele>361.302008</ele>
        <time>2022-04-23T09:38:36.502Z</time>
      </trkpt>
      <trkpt lat="42.08865" lon="21.21067">
        <ele>361.641565</ele>
        <time>2022-04-23T09:38:40.484Z</time>
      </trkpt>
      <trkpt lat="42.08871" lon="21.21057">
        <ele>361.988853</ele>
        <time>2022-04-23T09:38:44.519Z</time>
      </trkpt>
      <trkpt lat="42.08877" lon="21.21046">
        <ele>362.35044</ele>
        <time>2022-04-23T09:38:49.493Z</time>
      </trkpt>
      <trkpt lat="42.08883" lon="21.21036">
        <ele>362.678534</ele>
        <time>2022-04-23T09:38:54.485Z</time>
      </trkpt>
      <trkpt lat="42.08888" lon="21.21025">
        <ele>363.030396</ele>
        <time>2022-04-23T09:38:59.542Z</time>
      </trkpt>
      <trkpt lat="42.08895" lon="21.21016">
        <ele>363.353629</ele>
        <time>2022-04-23T09:39:04.507Z</time>
      </trkpt>
      <trkpt lat="42.08901" lon="21.21005">
        <ele>363.708784</ele>
        <time>2022-04-23T09:39:10.496Z</time>
      </trkpt>
      <trkpt lat="42.08906" lon="21.20996">
        <ele>364.030194</ele>
        <time>2022-04-23T09:39:15.557Z</time>
      </trkpt>
      <trkpt lat="42.08913" lon="21.20986">
        <ele>364.374202</ele>
        <time>2022-04-23T09:39:21.506Z</time>
      </trkpt>
      <trkpt lat="42.08919" lon="21.20976">
        <ele>364.729614</ele>
        <time>2022-04-23T09:39:27.516Z</time>
      </trkpt>
      <trkpt lat="42.08925" lon="21.20966">
        <ele>365.0575</ele>
        <time>2022-04-23T09:39:32.512Z</time>
      </trkpt>
      <trkpt lat="42.08931" lon="21.20956">
        <ele>365.398475</ele>
        <time>2022-04-23T09:39:37.575Z</time>
      </trkpt>
      <trkpt lat="42.08938" lon="21.20948">
        <ele>365.716888</ele>
        <time>2022-04-23T09:39:41.498Z</time>
      </trkpt>
      <trkpt lat="42.08944" lon="21.20939">
        <ele>366.044463</ele>
        <time>2022-04-23T09:39:45.486Z</time>
      </trkpt>
      <trkpt lat="42.08952" lon="21.20928">
        <ele>366.255465</ele>
        <time>2022-04-23T09:39:49.506Z</time>
      </trkpt>
      <trkpt lat="42.08959" lon="21.20919">
        <ele>366.226082</ele>
        <time>2022-04-23T09:39:52.497Z</time>
      </trkpt>
      <trkpt lat="42.08968" lon="21.20904">
        <ele>366.185825</ele>
        <time>2022-04-23T09:39:55.502Z</time>
      </trkpt>
      <trkpt lat="42.08974" lon="21.20892">
        <ele>366.153639</ele>
        <time>2022-04-23T09:39:57.519Z</time>
      </trkpt>
      <trkpt lat="42.0898" lon="21.20877">
        <ele>366.117608</ele>
        <time>2022-04-23T09:39:59.531Z</time>
      </trkpt>
      <trkpt lat="42.08986" lon="21.20861">
        <ele>366.078992</ele>
        <time>2022-04-23T09:40:01.513Z</time>
      </trkpt>
      <trkpt lat="42.08992" lon="21.20845">
        <ele>366.039937</ele>
        <time>2022-04-23T09:40:03.496Z</time>
      </trkpt>
      <trkpt lat="42.08998" lon="21.20829">
        <ele>366.001011</ele>
        <time>2022-04-23T09:40:05.529Z</time>
      </trkpt>
      <trkpt lat="42.09004" lon="21.20812">
        <ele>365.96266</ele>
        <time>2022-04-23T09:40:07.515Z</time>
      </trkpt>
      <trkpt lat="42.09009" lon="21.20795">
        <ele>365.923629</ele>
        <time>2022-04-23T09:40:09.524Z</time>
      </trkpt>
      <trkpt lat="42.09013" lon="21.20779">
        <ele>365.886018</ele>
        <time>2022-04-23T09:40:11.492Z</time>
      </trkpt>
      <trkpt lat="42.09018" lon="21.20762">
        <ele>365.847505</ele>
        <time>2022-04-23T09:40:13.522Z</time>
      </trkpt>
      <trkpt lat="42.09022" lon="21.20746">
        <ele>365.811565</ele>
        <time>2022-04-23T09:40:15.506Z</time>
      </trkpt>
      <trkpt lat="42.09025" lon="21.2073">
        <ele>365.777295</ele>
        <time>2022-04-23T09:40:17.542Z</time>
      </trkpt>
      <trkpt lat="42.09028" lon="21.20716">
        <ele>365.798823</ele>
        <time>2022-04-23T09:40:19.531Z</time>
      </trkpt>
      <trkpt lat="42.0903" lon="21.20703">
        <ele>366.129258</ele>
        <time>2022-04-23T09:40:21.514Z</time>
      </trkpt>
      <trkpt lat="42.09034" lon="21.20686">
        <ele>366.568468</ele>
        <time>2022-04-23T09:40:24.527Z</time>
      </trkpt>
      <trkpt lat="42.09036" lon="21.20671">
        <ele>366.938117</ele>
        <time>2022-04-23T09:40:27.546Z</time>
      </trkpt>
      <trkpt lat="42.09039" lon="21.20656">
        <ele>367.328357</ele>
        <time>2022-04-23T09:40:31.491Z</time>
      </trkpt>
      <trkpt lat="42.09042" lon="21.20641">
        <ele>367.714749</ele>
        <time>2022-04-23T09:40:35.529Z</time>
      </trkpt>
      <trkpt lat="42.09044" lon="21.20625">
        <ele>368.104677</ele>
        <time>2022-04-23T09:40:39.500Z</time>
      </trkpt>
      <trkpt lat="42.09046" lon="21.2061">
        <ele>368.491727</ele>
        <time>2022-04-23T09:40:43.503Z</time>
      </trkpt>
      <trkpt lat="42.09046" lon="21.20597">
        <ele>368.809982</ele>
        <time>2022-04-23T09:40:46.504Z</time>
      </trkpt>
      <trkpt lat="42.09048" lon="21.20584">
        <ele>369.12025</ele>
        <time>2022-04-23T09:40:49.503Z</time>
      </trkpt>
      <trkpt lat="42.09051" lon="21.20568">
        <ele>369.526305</ele>
        <time>2022-04-23T09:40:53.515Z</time>
      </trkpt>
      <trkpt lat="42.09053" lon="21.20555">
        <ele>369.859121</ele>
        <time>2022-04-23T09:40:56.512Z</time>
      </trkpt>
      <trkpt lat="42.09056" lon="21.20543">
        <ele>370.177692</ele>
        <time>2022-04-23T09:40:59.493Z</time>
      </trkpt>
      <trkpt lat="42.09059" lon="21.2053">
        <ele>370.508973</ele>
        <time>2022-04-23T09:41:02.508Z</time>
      </trkpt>
      <trkpt lat="42.09062" lon="21.20516">
        <ele>370.861037</ele>
        <time>2022-04-23T09:41:05.508Z</time>
      </trkpt>
      <trkpt lat="42.09065" lon="21.20502">
        <ele>371.223298</ele>
        <time>2022-04-23T09:41:08.501Z</time>
      </trkpt>
      <trkpt lat="42.09068" lon="21.20489">
        <ele>371.557304</ele>
        <time>2022-04-23T09:41:11.509Z</time>
      </trkpt>
      <trkpt lat="42.0907" lon="21.20476">
        <ele>371.459803</ele>
        <time>2022-04-23T09:41:14.505Z</time>
      </trkpt>
      <trkpt lat="42.09073" lon="21.20463">
        <ele>370.95945</ele>
        <time>2022-04-23T09:41:17.554Z</time>
      </trkpt>
      <trkpt lat="42.09077" lon="21.20449">
        <ele>370.42669</ele>
        <time>2022-04-23T09:41:20.518Z</time>
      </trkpt>
      <trkpt lat="42.09081" lon="21.20435">
        <ele>369.859654</ele>
        <time>2022-04-23T09:41:23.502Z</time>
      </trkpt>
      <trkpt lat="42.09084" lon="21.20421">
        <ele>369.329828</ele>
        <time>2022-04-23T09:41:26.545Z</time>
      </trkpt>
      <trkpt lat="42.09087" lon="21.20408">
        <ele>368.828843</ele>
        <time>2022-04-23T09:41:29.496Z</time>
      </trkpt>
      <trkpt lat="42.09089" lon="21.20394">
        <ele>368.316842</ele>
        <time>2022-04-23T09:41:32.519Z</time>
      </trkpt>
      <trkpt lat="42.09092" lon="21.2038">
        <ele>367.775947</ele>
        <time>2022-04-23T09:41:35.520Z</time>
      </trkpt>
      <trkpt lat="42.09096" lon="21.20365">
        <ele>367.228038</ele>
        <time>2022-04-23T09:41:38.489Z</time>
      </trkpt>
      <trkpt lat="42.091" lon="21.20351">
        <ele>366.652455</ele>
        <time>2022-04-23T09:41:41.511Z</time>
      </trkpt>
      <trkpt lat="42.09104" lon="21.20337">
        <ele>366.131425</ele>
        <time>2022-04-23T09:41:44.497Z</time>
      </trkpt>
      <trkpt lat="42.09108" lon="21.20324">
        <ele>365.601829</ele>
        <time>2022-04-23T09:41:47.502Z</time>
      </trkpt>
      <trkpt lat="42.09114" lon="21.20313">
        <ele>365.087925</ele>
        <time>2022-04-23T09:41:50.509Z</time>
      </trkpt>
      <trkpt lat="42.0912" lon="21.20302">
        <ele>364.62125</ele>
        <time>2022-04-23T09:41:53.510Z</time>
      </trkpt>
      <trkpt lat="42.09125" lon="21.20291">
        <ele>364.133518</ele>
        <time>2022-04-23T09:41:56.502Z</time>
      </trkpt>
      <trkpt lat="42.0913" lon="21.2028">
        <ele>363.659017</ele>
        <time>2022-04-23T09:41:59.505Z</time>
      </trkpt>
      <trkpt lat="42.09135" lon="21.20269">
        <ele>363.161222</ele>
        <time>2022-04-23T09:42:02.482Z</time>
      </trkpt>
      <trkpt lat="42.0914" lon="21.20256">
        <ele>363.006035</ele>
        <time>2022-04-23T09:42:05.515Z</time>
      </trkpt>
      <trkpt lat="42.09145" lon="21.20243">
        <ele>363.368527</ele>
        <time>2022-04-23T09:42:08.527Z</time>
      </trkpt>
      <trkpt lat="42.0915" lon="21.2023">
        <ele>363.733302</ele>
        <time>2022-04-23T09:42:11.501Z</time>
      </trkpt>
      <trkpt lat="42.09155" lon="21.20217">
        <ele>364.081717</ele>
        <time>2022-04-23T09:42:14.512Z</time>
      </trkpt>
      <trkpt lat="42.0916" lon="21.20205">
        <ele>364.435606</ele>
        <time>2022-04-23T09:42:17.510Z</time>
      </trkpt>
      <trkpt lat="42.09166" lon="21.20193">
        <ele>364.798983</ele>
        <time>2022-04-23T09:42:20.493Z</time>
      </trkpt>
      <trkpt lat="42.09171" lon="21.20179">
        <ele>365.184835</ele>
        <time>2022-04-23T09:42:23.497Z</time>
      </trkpt>
      <trkpt lat="42.09176" lon="21.20165">
        <ele>365.568186</ele>
        <time>2022-04-23T09:42:26.521Z</time>
      </trkpt>
      <trkpt lat="42.09183" lon="21.20153">
        <ele>365.948981</ele>
        <time>2022-04-23T09:42:29.510Z</time>
      </trkpt>
      <trkpt lat="42.09188" lon="21.2014">
        <ele>366.309307</ele>
        <time>2022-04-23T09:42:32.493Z</time>
      </trkpt>
      <trkpt lat="42.09192" lon="21.20129">
        <ele>366.629422</ele>
        <time>2022-04-23T09:42:35.503Z</time>
      </trkpt>
      <trkpt lat="42.09198" lon="21.20118">
        <ele>366.945977</ele>
        <time>2022-04-23T09:42:38.493Z</time>
      </trkpt>
      <trkpt lat="42.09203" lon="21.20107">
        <ele>367.266989</ele>
        <time>2022-04-23T09:42:41.516Z</time>
      </trkpt>
      <trkpt lat="42.09209" lon="21.20096">
        <ele>367.611325</ele>
        <time>2022-04-23T09:42:44.555Z</time>
      </trkpt>
      <trkpt lat="42.09215" lon="21.20084">
        <ele>367.979437</ele>
        <time>2022-04-23T09:42:47.496Z</time>
      </trkpt>
      <trkpt lat="42.09222" lon="21.20073">
        <ele>368.333567</ele>
        <time>2022-04-23T09:42:50.511Z</time>
      </trkpt>
      <trkpt lat="42.09227" lon="21.20063">
        <ele>368.653785</ele>
        <time>2022-04-23T09:42:53.483Z</time>
      </trkpt>
      <trkpt lat="42.09233" lon="21.20051">
        <ele>368.956079</ele>
        <time>2022-04-23T09:42:56.488Z</time>
      </trkpt>
      <trkpt lat="42.09239" lon="21.20041">
        <ele>369.161576</ele>
        <time>2022-04-23T09:42:59.538Z</time>
      </trkpt>
      <trkpt lat="42.09246" lon="21.20031">
        <ele>369.3702</ele>
        <time>2022-04-23T09:43:02.496Z</time>
      </trkpt>
      <trkpt lat="42.09251" lon="21.20021">
        <ele>369.568086</ele>
        <time>2022-04-23T09:43:05.502Z</time>
      </trkpt>
      <trkpt lat="42.09257" lon="21.20012">
        <ele>369.760534</ele>
        <time>2022-04-23T09:43:08.491Z</time>
      </trkpt>
      <trkpt lat="42.09264" lon="21.2">
        <ele>369.997614</ele>
        <time>2022-04-23T09:43:12.503Z</time>
      </trkpt>
      <trkpt lat="42.09272" lon="21.19991">
        <ele>370.214717</ele>
        <time>2022-04-23T09:43:16.520Z</time>
      </trkpt>
      <trkpt lat="42.09278" lon="21.19981">
        <ele>370.415625</ele>
        <time>2022-04-23T09:43:20.509Z</time>
      </trkpt>
      <trkpt lat="42.09285" lon="21.1997">
        <ele>370.650261</ele>
        <time>2022-04-23T09:43:25.514Z</time>
      </trkpt>
      <trkpt lat="42.09291" lon="21.19957">
        <ele>370.879949</ele>
        <time>2022-04-23T09:43:29.505Z</time>
      </trkpt>
      <trkpt lat="42.09298" lon="21.19945">
        <ele>371.118276</ele>
        <time>2022-04-23T09:43:33.524Z</time>
      </trkpt>
      <trkpt lat="42.09304" lon="21.19934">
        <ele>371.344041</ele>
        <time>2022-04-23T09:43:37.523Z</time>
      </trkpt>
      <trkpt lat="42.09312" lon="21.19922">
        <ele>371.592561</ele>
        <time>2022-04-23T09:43:41.508Z</time>
      </trkpt>
      <trkpt lat="42.09319" lon="21.19914">
        <ele>371.792368</ele>
        <time>2022-04-23T09:43:44.496Z</time>
      </trkpt>
      <trkpt lat="42.09327" lon="21.19906">
        <ele>371.987245</ele>
        <time>2022-04-23T09:43:47.526Z</time>
      </trkpt>
      <trkpt lat="42.09334" lon="21.19899">
        <ele>372.18462</ele>
        <time>2022-04-23T09:43:50.502Z</time>
      </trkpt>
      <trkpt lat="42.09343" lon="21.19892">
        <ele>372.396854</ele>
        <time>2022-04-23T09:43:53.501Z</time>
      </trkpt>
      <trkpt lat="42.09351" lon="21.19883">
        <ele>372.618066</ele>
        <time>2022-04-23T09:43:56.517Z</time>
      </trkpt>
      <trkpt lat="42.0936" lon="21.19874">
        <ele>372.464277</ele>
        <time>2022-04-23T09:43:59.515Z</time>
      </trkpt>
      <trkpt lat="42.0937" lon="21.19865">
        <ele>372.112722</ele>
        <time>2022-04-23T09:44:02.514Z</time>
      </trkpt>
      <trkpt lat="42.0938" lon="21.19855">
        <ele>371.724923</ele>
        <time>2022-04-23T09:44:05.542Z</time>
      </trkpt>
      <trkpt lat="42.09387" lon="21.19848">
        <ele>371.43842</ele>
        <time>2022-04-23T09:44:07.520Z</time>
      </trkpt>
      <trkpt lat="42.09394" lon="21.1984">
        <ele>371.152573</ele>
        <time>2022-04-23T09:44:09.500Z</time>
      </trkpt>
      <trkpt lat="42.09402" lon="21.19832">
        <ele>370.859397</ele>
        <time>2022-04-23T09:44:11.554Z</time>
      </trkpt>
      <trkpt lat="42.09409" lon="21.19823">
        <ele>370.550449</ele>
        <time>2022-04-23T09:44:13.497Z</time>
      </trkpt>
      <trkpt lat="42.09417" lon="21.19815">
        <ele>370.241001</ele>
        <time>2022-04-23T09:44:15.493Z</time>
      </trkpt>
      <trkpt lat="42.09425" lon="21.19807">
        <ele>369.9279</ele>
        <time>2022-04-23T09:44:17.503Z</time>
      </trkpt>
      <trkpt lat="42.09436" lon="21.19799">
        <ele>369.560658</ele>
        <time>2022-04-23T09:44:19.512Z</time>
      </trkpt>
      <trkpt lat="42.09444" lon="21.19791">
        <ele>369.247383</ele>
        <time>2022-04-23T09:44:21.511Z</time>
      </trkpt>
      <trkpt lat="42.09452" lon="21.19784">
        <ele>368.944551</ele>
        <time>2022-04-23T09:44:23.544Z</time>
      </trkpt>
      <trkpt lat="42.0946" lon="21.19777">
        <ele>368.655861</ele>
        <time>2022-04-23T09:44:25.536Z</time>
      </trkpt>
      <trkpt lat="42.09467" lon="21.1977">
        <ele>368.370733</ele>
        <time>2022-04-23T09:44:27.504Z</time>
      </trkpt>
      <trkpt lat="42.09478" lon="21.19758">
        <ele>367.95253</ele>
        <time>2022-04-23T09:44:30.510Z</time>
      </trkpt>
      <trkpt lat="42.09485" lon="21.19751">
        <ele>367.670535</ele>
        <time>2022-04-23T09:44:32.524Z</time>
      </trkpt>
      <trkpt lat="42.09494" lon="21.1974">
        <ele>367.293007</ele>
        <time>2022-04-23T09:44:35.483Z</time>
      </trkpt>
      <trkpt lat="42.09504" lon="21.1973">
        <ele>367.156408</ele>
        <time>2022-04-23T09:44:38.544Z</time>
      </trkpt>
      <trkpt lat="42.09512" lon="21.19721">
        <ele>367.197295</ele>
        <time>2022-04-23T09:44:41.532Z</time>
      </trkpt>
      <trkpt lat="42.09521" lon="21.19713">
        <ele>367.23478</ele>
        <time>2022-04-23T09:44:44.544Z</time>
      </trkpt>
      <trkpt lat="42.0953" lon="21.19706">
        <ele>367.271255</ele>
        <time>2022-04-23T09:44:47.506Z</time>
      </trkpt>
      <trkpt lat="42.09538" lon="21.197">
        <ele>367.305344</ele>
        <time>2022-04-23T09:44:50.506Z</time>
      </trkpt>
      <trkpt lat="42.09546" lon="21.19693">
        <ele>367.341937</ele>
        <time>2022-04-23T09:44:53.511Z</time>
      </trkpt>
      <trkpt lat="42.09555" lon="21.19685">
        <ele>367.380496</ele>
        <time>2022-04-23T09:44:56.505Z</time>
      </trkpt>
      <trkpt lat="42.09564" lon="21.19677">
        <ele>367.418736</ele>
        <time>2022-04-23T09:44:59.517Z</time>
      </trkpt>
      <trkpt lat="42.09572" lon="21.1967">
        <ele>367.454734</ele>
        <time>2022-04-23T09:45:02.543Z</time>
      </trkpt>
      <trkpt lat="42.09581" lon="21.19663">
        <ele>367.491021</ele>
        <time>2022-04-23T09:45:05.527Z</time>
      </trkpt>
      <trkpt lat="42.09589" lon="21.19655">
        <ele>367.528358</ele>
        <time>2022-04-23T09:45:08.511Z</time>
      </trkpt>
      <trkpt lat="42.09598" lon="21.19648">
        <ele>367.565695</ele>
        <time>2022-04-23T09:45:11.515Z</time>
      </trkpt>
      <trkpt lat="42.09607" lon="21.1964">
        <ele>367.604092</ele>
        <time>2022-04-23T09:45:14.509Z</time>
      </trkpt>
      <trkpt lat="42.09615" lon="21.19631">
        <ele>367.640792</ele>
        <time>2022-04-23T09:45:17.561Z</time>
      </trkpt>
      <trkpt lat="42.09624" lon="21.19623">
        <ele>367.679964</ele>
        <time>2022-04-23T09:45:20.501Z</time>
      </trkpt>
      <trkpt lat="42.09632" lon="21.19614">
        <ele>367.719208</ele>
        <time>2022-04-23T09:45:23.500Z</time>
      </trkpt>
      <trkpt lat="42.09641" lon="21.19605">
        <ele>367.75993</ele>
        <time>2022-04-23T09:45:26.496Z</time>
      </trkpt>
      <trkpt lat="42.0965" lon="21.19596">
        <ele>367.835172</ele>
        <time>2022-04-23T09:45:29.500Z</time>
      </trkpt>
      <trkpt lat="42.09658" lon="21.19588">
        <ele>367.970458</ele>
        <time>2022-04-23T09:45:32.514Z</time>
      </trkpt>
      <trkpt lat="42.09665" lon="21.19578">
        <ele>368.098066</ele>
        <time>2022-04-23T09:45:35.489Z</time>
      </trkpt>
      <trkpt lat="42.09673" lon="21.19569">
        <ele>368.236676</ele>
        <time>2022-04-23T09:45:38.504Z</time>
      </trkpt>
      <trkpt lat="42.09681" lon="21.1956">
        <ele>368.373885</ele>
        <time>2022-04-23T09:45:41.506Z</time>
      </trkpt>
      <trkpt lat="42.0969" lon="21.19552">
        <ele>368.505415</ele>
        <time>2022-04-23T09:45:44.514Z</time>
      </trkpt>
      <trkpt lat="42.09697" lon="21.19544">
        <ele>368.627078</ele>
        <time>2022-04-23T09:45:47.493Z</time>
      </trkpt>
      <trkpt lat="42.09706" lon="21.19535">
        <ele>368.778671</ele>
        <time>2022-04-23T09:45:51.506Z</time>
      </trkpt>
      <trkpt lat="42.09714" lon="21.19526">
        <ele>368.912038</ele>
        <time>2022-04-23T09:45:55.511Z</time>
      </trkpt>
      <trkpt lat="42.09721" lon="21.19518">
        <ele>369.033444</ele>
        <time>2022-04-23T09:45:59.501Z</time>
      </trkpt>
      <trkpt lat="42.09728" lon="21.19509">
        <ele>369.161031</ele>
        <time>2022-04-23T09:46:04.503Z</time>
      </trkpt>
      <trkpt lat="42.09735" lon="21.195">
        <ele>369.281423</ele>
        <time>2022-04-23T09:46:08.503Z</time>
      </trkpt>
      <trkpt lat="42.09744" lon="21.19492">
        <ele>369.426454</ele>
        <time>2022-04-23T09:46:13.488Z</time>
      </trkpt>
      <trkpt lat="42.09753" lon="21.19482">
        <ele>369.572567</ele>
        <time>2022-04-23T09:46:18.563Z</time>
      </trkpt>
      <trkpt lat="42.0976" lon="21.19474">
        <ele>369.699887</ele>
        <time>2022-04-23T09:46:22.497Z</time>
      </trkpt>
      <trkpt lat="42.09768" lon="21.19467">
        <ele>369.822803</ele>
        <time>2022-04-23T09:46:26.495Z</time>
      </trkpt>
      <trkpt lat="42.09777" lon="21.1946">
        <ele>369.954217</ele>
        <time>2022-04-23T09:46:30.512Z</time>
      </trkpt>
      <trkpt lat="42.09785" lon="21.19454">
        <ele>370.084492</ele>
        <time>2022-04-23T09:46:34.532Z</time>
      </trkpt>
      <trkpt lat="42.09794" lon="21.19446">
        <ele>370.522925</ele>
        <time>2022-04-23T09:46:38.502Z</time>
      </trkpt>
      <trkpt lat="42.09803" lon="21.19439">
        <ele>371.12985</ele>
        <time>2022-04-23T09:46:42.497Z</time>
      </trkpt>
      <trkpt lat="42.09812" lon="21.19432">
        <ele>371.731805</ele>
        <time>2022-04-23T09:46:46.485Z</time>
      </trkpt>
      <trkpt lat="42.0982" lon="21.19424">
        <ele>372.326234</ele>
        <time>2022-04-23T09:46:50.518Z</time>
      </trkpt>
      <trkpt lat="42.09828" lon="21.19415">
        <ele>372.931625</ele>
        <time>2022-04-23T09:46:54.510Z</time>
      </trkpt>
      <trkpt lat="42.09836" lon="21.19404">
        <ele>373.591591</ele>
        <time>2022-04-23T09:46:58.492Z</time>
      </trkpt>
      <trkpt lat="42.09843" lon="21.19396">
        <ele>374.115224</ele>
        <time>2022-04-23T09:47:02.539Z</time>
      </trkpt>
      <trkpt lat="42.0985" lon="21.19387">
        <ele>374.677202</ele>
        <time>2022-04-23T09:47:06.490Z</time>
      </trkpt>
      <trkpt lat="42.09857" lon="21.19379">
        <ele>375.223548</ele>
        <time>2022-04-23T09:47:10.517Z</time>
      </trkpt>
      <trkpt lat="42.09863" lon="21.19369">
        <ele>375.772397</ele>
        <time>2022-04-23T09:47:14.511Z</time>
      </trkpt>
      <trkpt lat="42.09869" lon="21.19359">
        <ele>376.335015</ele>
        <time>2022-04-23T09:47:18.508Z</time>
      </trkpt>
      <trkpt lat="42.09876" lon="21.1935">
        <ele>376.894382</ele>
        <time>2022-04-23T09:47:22.506Z</time>
      </trkpt>
      <trkpt lat="42.09883" lon="21.19341">
        <ele>377.466976</ele>
        <time>2022-04-23T09:47:26.504Z</time>
      </trkpt>
      <trkpt lat="42.0989" lon="21.19332">
        <ele>378.027259</ele>
        <time>2022-04-23T09:47:30.517Z</time>
      </trkpt>
      <trkpt lat="42.09897" lon="21.19322">
        <ele>378.594703</ele>
        <time>2022-04-23T09:47:34.514Z</time>
      </trkpt>
      <trkpt lat="42.09905" lon="21.19312">
        <ele>379.242198</ele>
        <time>2022-04-23T09:47:39.517Z</time>
      </trkpt>
      <trkpt lat="42.09911" lon="21.19302">
        <ele>379.791792</ele>
        <time>2022-04-23T09:47:43.500Z</time>
      </trkpt>
      <trkpt lat="42.09917" lon="21.19291">
        <ele>380.406385</ele>
        <time>2022-04-23T09:47:47.522Z</time>
      </trkpt>
      <trkpt lat="42.09925" lon="21.1928">
        <ele>380.938138</ele>
        <time>2022-04-23T09:47:51.523Z</time>
      </trkpt>
      <trkpt lat="42.09933" lon="21.1927">
        <ele>381.430805</ele>
        <time>2022-04-23T09:47:55.495Z</time>
      </trkpt>
      <trkpt lat="42.0994" lon="21.19258">
        <ele>381.929234</ele>
        <time>2022-04-23T09:47:59.504Z</time>
      </trkpt>
      <trkpt lat="42.09947" lon="21.19247">
        <ele>382.43244</ele>
        <time>2022-04-23T09:48:03.528Z</time>
      </trkpt>
      <trkpt lat="42.09955" lon="21.19237">
        <ele>382.921143</ele>
        <time>2022-04-23T09:48:07.522Z</time>
      </trkpt>
      <trkpt lat="42.09963" lon="21.19225">
        <ele>383.45015</ele>
        <time>2022-04-23T09:48:11.489Z</time>
      </trkpt>
      <trkpt lat="42.09969" lon="21.19215">
        <ele>383.890128</ele>
        <time>2022-04-23T09:48:14.529Z</time>
      </trkpt>
      <trkpt lat="42.09977" lon="21.19204">
        <ele>384.389134</ele>
        <time>2022-04-23T09:48:18.504Z</time>
      </trkpt>
      <trkpt lat="42.09984" lon="21.19193">
        <ele>384.867377</ele>
        <time>2022-04-23T09:48:22.496Z</time>
      </trkpt>
      <trkpt lat="42.09991" lon="21.19181">
        <ele>385.38646</ele>
        <time>2022-04-23T09:48:26.512Z</time>
      </trkpt>
      <trkpt lat="42.09997" lon="21.19171">
        <ele>385.81998</ele>
        <time>2022-04-23T09:48:30.540Z</time>
      </trkpt>
      <trkpt lat="42.10003" lon="21.19159">
        <ele>386.315128</ele>
        <time>2022-04-23T09:48:34.530Z</time>
      </trkpt>
      <trkpt lat="42.1001" lon="21.19147">
        <ele>386.807434</ele>
        <time>2022-04-23T09:48:38.514Z</time>
      </trkpt>
      <trkpt lat="42.10016" lon="21.19134">
        <ele>387.32401</ele>
        <time>2022-04-23T09:48:42.497Z</time>
      </trkpt>
      <trkpt lat="42.10022" lon="21.19123">
        <ele>387.771472</ele>
        <time>2022-04-23T09:48:45.510Z</time>
      </trkpt>
      <trkpt lat="42.10027" lon="21.19112">
        <ele>388.195583</ele>
        <time>2022-04-23T09:48:48.508Z</time>
      </trkpt>
      <trkpt lat="42.10032" lon="21.19102">
        <ele>388.607725</ele>
        <time>2022-04-23T09:48:51.493Z</time>
      </trkpt>
      <trkpt lat="42.10037" lon="21.19092">
        <ele>388.524936</ele>
        <time>2022-04-23T09:48:54.525Z</time>
      </trkpt>
      <trkpt lat="42.10042" lon="21.19082">
        <ele>388.321639</ele>
        <time>2022-04-23T09:48:57.521Z</time>
      </trkpt>
      <trkpt lat="42.10048" lon="21.19071">
        <ele>388.104883</ele>
        <time>2022-04-23T09:49:00.506Z</time>
      </trkpt>
      <trkpt lat="42.10053" lon="21.19058">
        <ele>387.867727</ele>
        <time>2022-04-23T09:49:03.511Z</time>
      </trkpt>
      <trkpt lat="42.10059" lon="21.19045">
        <ele>387.608829</ele>
        <time>2022-04-23T09:49:06.501Z</time>
      </trkpt>
      <trkpt lat="42.10064" lon="21.19032">
        <ele>387.369651</ele>
        <time>2022-04-23T09:49:09.494Z</time>
      </trkpt>
      <trkpt lat="42.10069" lon="21.19021">
        <ele>387.157881</ele>
        <time>2022-04-23T09:49:12.506Z</time>
      </trkpt>
      <trkpt lat="42.10074" lon="21.1901">
        <ele>386.947506</ele>
        <time>2022-04-23T09:49:15.495Z</time>
      </trkpt>
      <trkpt lat="42.10078" lon="21.18998">
        <ele>386.727027</ele>
        <time>2022-04-23T09:49:18.504Z</time>
      </trkpt>
      <trkpt lat="42.10082" lon="21.18985">
        <ele>386.506694</ele>
        <time>2022-04-23T09:49:21.519Z</time>
      </trkpt>
      <trkpt lat="42.10085" lon="21.18973">
        <ele>386.290768</ele>
        <time>2022-04-23T09:49:24.498Z</time>
      </trkpt>
      <trkpt lat="42.10091" lon="21.1896">
        <ele>386.04484</ele>
        <time>2022-04-23T09:49:28.519Z</time>
      </trkpt>
      <trkpt lat="42.10097" lon="21.18951">
        <ele>385.845189</ele>
        <time>2022-04-23T09:49:32.500Z</time>
      </trkpt>
      <trkpt lat="42.10105" lon="21.18943">
        <ele>385.628405</ele>
        <time>2022-04-23T09:49:39.495Z</time>
      </trkpt>
      <trkpt lat="42.10111" lon="21.18933">
        <ele>385.41706</ele>
        <time>2022-04-23T09:49:43.522Z</time>
      </trkpt>
      <trkpt lat="42.10118" lon="21.18923">
        <ele>385.186121</ele>
        <time>2022-04-23T09:49:47.528Z</time>
      </trkpt>
      <trkpt lat="42.10125" lon="21.18912">
        <ele>384.952502</ele>
        <time>2022-04-23T09:49:51.490Z</time>
      </trkpt>
      <trkpt lat="42.1013" lon="21.18898">
        <ele>384.700508</ele>
        <time>2022-04-23T09:49:55.501Z</time>
      </trkpt>
      <trkpt lat="42.10136" lon="21.18888">
        <ele>384.640237</ele>
        <time>2022-04-23T09:49:58.495Z</time>
      </trkpt>
      <trkpt lat="42.10142" lon="21.18879">
        <ele>384.579965</ele>
        <time>2022-04-23T09:50:01.532Z</time>
      </trkpt>
      <trkpt lat="42.10148" lon="21.18868">
        <ele>384.51974</ele>
        <time>2022-04-23T09:50:04.513Z</time>
      </trkpt>
      <trkpt lat="42.10153" lon="21.18855">
        <ele>384.447734</ele>
        <time>2022-04-23T09:50:08.515Z</time>
      </trkpt>
      <trkpt lat="42.10159" lon="21.1884">
        <ele>384.369903</ele>
        <time>2022-04-23T09:50:12.521Z</time>
      </trkpt>
      <trkpt lat="42.10163" lon="21.18829">
        <ele>384.307729</ele>
        <time>2022-04-23T09:50:15.511Z</time>
      </trkpt>
      <trkpt lat="42.10168" lon="21.18816">
        <ele>384.238807</ele>
        <time>2022-04-23T09:50:18.503Z</time>
      </trkpt>
      <trkpt lat="42.10172" lon="21.18803">
        <ele>384.174425</ele>
        <time>2022-04-23T09:50:21.532Z</time>
      </trkpt>
      <trkpt lat="42.10174" lon="21.1879">
        <ele>384.112363</ele>
        <time>2022-04-23T09:50:24.512Z</time>
      </trkpt>
      <trkpt lat="42.10178" lon="21.18776">
        <ele>384.040433</ele>
        <time>2022-04-23T09:50:27.511Z</time>
      </trkpt>
      <trkpt lat="42.10181" lon="21.18761">
        <ele>383.968692</ele>
        <time>2022-04-23T09:50:30.505Z</time>
      </trkpt>
      <trkpt lat="42.10183" lon="21.18747">
        <ele>383.901177</ele>
        <time>2022-04-23T09:50:33.499Z</time>
      </trkpt>
      <trkpt lat="42.10185" lon="21.18734">
        <ele>383.834711</ele>
        <time>2022-04-23T09:50:36.535Z</time>
      </trkpt>
      <trkpt lat="42.10188" lon="21.18716">
        <ele>383.748675</ele>
        <time>2022-04-23T09:50:39.510Z</time>
      </trkpt>
      <trkpt lat="42.1019" lon="21.18699">
        <ele>383.668199</ele>
        <time>2022-04-23T09:50:42.508Z</time>
      </trkpt>
      <trkpt lat="42.10194" lon="21.18683">
        <ele>383.589287</ele>
        <time>2022-04-23T09:50:45.489Z</time>
      </trkpt>
      <trkpt lat="42.10199" lon="21.18667">
        <ele>383.644706</ele>
        <time>2022-04-23T09:50:48.519Z</time>
      </trkpt>
      <trkpt lat="42.10204" lon="21.18652">
        <ele>383.788954</ele>
        <time>2022-04-23T09:50:51.521Z</time>
      </trkpt>
      <trkpt lat="42.10208" lon="21.18639">
        <ele>383.917267</ele>
        <time>2022-04-23T09:50:54.503Z</time>
      </trkpt>
      <trkpt lat="42.10214" lon="21.18625">
        <ele>384.060644</ele>
        <time>2022-04-23T09:50:57.504Z</time>
      </trkpt>
      <trkpt lat="42.10221" lon="21.18611">
        <ele>384.204944</ele>
        <time>2022-04-23T09:51:00.520Z</time>
      </trkpt>
      <trkpt lat="42.10228" lon="21.186">
        <ele>384.331709</ele>
        <time>2022-04-23T09:51:03.511Z</time>
      </trkpt>
      <trkpt lat="42.10234" lon="21.1859">
        <ele>384.4482</ele>
        <time>2022-04-23T09:51:06.509Z</time>
      </trkpt>
      <trkpt lat="42.1024" lon="21.1858">
        <ele>384.56451</ele>
        <time>2022-04-23T09:51:09.506Z</time>
      </trkpt>
      <trkpt lat="42.10247" lon="21.18568">
        <ele>384.700548</ele>
        <time>2022-04-23T09:51:13.511Z</time>
      </trkpt>
      <trkpt lat="42.10253" lon="21.18557">
        <ele>384.817838</ele>
        <time>2022-04-23T09:51:17.526Z</time>
      </trkpt>
      <trkpt lat="42.10259" lon="21.18546">
        <ele>384.942694</ele>
        <time>2022-04-23T09:51:21.544Z</time>
      </trkpt>
      <trkpt lat="42.10267" lon="21.18534">
        <ele>385.07986</ele>
        <time>2022-04-23T09:51:25.507Z</time>
      </trkpt>
      <trkpt lat="42.10274" lon="21.18523">
        <ele>385.209383</ele>
        <time>2022-04-23T09:51:29.508Z</time>
      </trkpt>
      <trkpt lat="42.1028" lon="21.18512">
        <ele>385.3369</ele>
        <time>2022-04-23T09:51:33.509Z</time>
      </trkpt>
      <trkpt lat="42.10288" lon="21.18499">
        <ele>385.472975</ele>
        <time>2022-04-23T09:51:37.542Z</time>
      </trkpt>
      <trkpt lat="42.10293" lon="21.18489">
        <ele>385.586331</ele>
        <time>2022-04-23T09:51:40.504Z</time>
      </trkpt>
      <trkpt lat="42.10299" lon="21.1848">
        <ele>385.692436</ele>
        <time>2022-04-23T09:51:43.539Z</time>
      </trkpt>
      <trkpt lat="42.10306" lon="21.18468">
        <ele>385.549969</ele>
        <time>2022-04-23T09:51:46.508Z</time>
      </trkpt>
      <trkpt lat="42.10314" lon="21.18456">
        <ele>385.395256</ele>
        <time>2022-04-23T09:51:49.511Z</time>
      </trkpt>
      <trkpt lat="42.10322" lon="21.18443">
        <ele>385.233779</ele>
        <time>2022-04-23T09:51:52.493Z</time>
      </trkpt>
      <trkpt lat="42.10328" lon="21.18431">
        <ele>385.095559</ele>
        <time>2022-04-23T09:51:55.544Z</time>
      </trkpt>
      <trkpt lat="42.10333" lon="21.18417">
        <ele>384.943605</ele>
        <time>2022-04-23T09:51:58.565Z</time>
      </trkpt>
      <trkpt lat="42.10338" lon="21.18405">
        <ele>384.815786</ele>
        <time>2022-04-23T09:52:00.511Z</time>
      </trkpt>
      <trkpt lat="42.10343" lon="21.18394">
        <ele>384.689585</ele>
        <time>2022-04-23T09:52:02.526Z</time>
      </trkpt>
      <trkpt lat="42.10348" lon="21.18383">
        <ele>384.561267</ele>
        <time>2022-04-23T09:52:04.523Z</time>
      </trkpt>
      <trkpt lat="42.10354" lon="21.18372">
        <ele>384.42911</ele>
        <time>2022-04-23T09:52:06.538Z</time>
      </trkpt>
      <trkpt lat="42.10359" lon="21.18361">
        <ele>384.30311</ele>
        <time>2022-04-23T09:52:08.519Z</time>
      </trkpt>
      <trkpt lat="42.10364" lon="21.1835">
        <ele>384.182357</ele>
        <time>2022-04-23T09:52:10.494Z</time>
      </trkpt>
      <trkpt lat="42.10372" lon="21.18336">
        <ele>384.016279</ele>
        <time>2022-04-23T09:52:13.512Z</time>
      </trkpt>
      <trkpt lat="42.10378" lon="21.18323">
        <ele>383.863976</ele>
        <time>2022-04-23T09:52:16.517Z</time>
      </trkpt>
      <trkpt lat="42.10386" lon="21.18308">
        <ele>383.692323</ele>
        <time>2022-04-23T09:52:19.485Z</time>
      </trkpt>
      <trkpt lat="42.10391" lon="21.18297">
        <ele>383.567745</ele>
        <time>2022-04-23T09:52:21.525Z</time>
      </trkpt>
      <trkpt lat="42.10397" lon="21.18285">
        <ele>383.42711</ele>
        <time>2022-04-23T09:52:23.510Z</time>
      </trkpt>
      <trkpt lat="42.10403" lon="21.18272">
        <ele>383.239842</ele>
        <time>2022-04-23T09:52:25.514Z</time>
      </trkpt>
      <trkpt lat="42.1041" lon="21.1826">
        <ele>383.022953</ele>
        <time>2022-04-23T09:52:27.541Z</time>
      </trkpt>
      <trkpt lat="42.10416" lon="21.18248">
        <ele>382.816387</ele>
        <time>2022-04-23T09:52:29.506Z</time>
      </trkpt>
      <trkpt lat="42.10421" lon="21.18238">
        <ele>382.638497</ele>
        <time>2022-04-23T09:52:31.503Z</time>
      </trkpt>
      <trkpt lat="42.10423" lon="21.18222">
        <ele>382.404306</ele>
        <time>2022-04-23T09:52:34.491Z</time>
      </trkpt>
      <trkpt lat="42.10417" lon="21.18209">
        <ele>382.183538</ele>
        <time>2022-04-23T09:52:36.484Z</time>
      </trkpt>
      <trkpt lat="42.10406" lon="21.182">
        <ele>381.95025</ele>
        <time>2022-04-23T09:52:38.491Z</time>
      </trkpt>
      <trkpt lat="42.10402" lon="21.18186">
        <ele>381.73391</ele>
        <time>2022-04-23T09:52:41.500Z</time>
      </trkpt>
      <trkpt lat="42.10404" lon="21.18172">
        <ele>381.529846</ele>
        <time>2022-04-23T09:52:45.505Z</time>
      </trkpt>
      <trkpt lat="42.10404" lon="21.18159">
        <ele>381.342352</ele>
        <time>2022-04-23T09:52:49.497Z</time>
      </trkpt>
      <trkpt lat="42.10406" lon="21.18147">
        <ele>381.167697</ele>
        <time>2022-04-23T09:52:52.489Z</time>
      </trkpt>
      <trkpt lat="42.10408" lon="21.18131">
        <ele>380.933295</ele>
        <time>2022-04-23T09:52:55.525Z</time>
      </trkpt>
      <trkpt lat="42.1041" lon="21.18117">
        <ele>380.738408</ele>
        <time>2022-04-23T09:52:57.516Z</time>
      </trkpt>
      <trkpt lat="42.10413" lon="21.18103">
        <ele>380.527618</ele>
        <time>2022-04-23T09:52:59.493Z</time>
      </trkpt>
      <trkpt lat="42.10416" lon="21.18089">
        <ele>380.320978</ele>
        <time>2022-04-23T09:53:01.530Z</time>
      </trkpt>
      <trkpt lat="42.10417" lon="21.18075">
        <ele>380.114183</ele>
        <time>2022-04-23T09:53:03.491Z</time>
      </trkpt>
      <trkpt lat="42.10418" lon="21.18059">
        <ele>379.913467</ele>
        <time>2022-04-23T09:53:05.501Z</time>
      </trkpt>
      <trkpt lat="42.10417" lon="21.18042">
        <ele>380.282322</ele>
        <time>2022-04-23T09:53:07.539Z</time>
      </trkpt>
      <trkpt lat="42.10416" lon="21.18023">
        <ele>380.6671</ele>
        <time>2022-04-23T09:53:09.503Z</time>
      </trkpt>
      <trkpt lat="42.10415" lon="21.18005">
        <ele>381.050568</ele>
        <time>2022-04-23T09:53:11.501Z</time>
      </trkpt>
      <trkpt lat="42.10414" lon="21.17987">
        <ele>381.434748</ele>
        <time>2022-04-23T09:53:13.515Z</time>
      </trkpt>
      <trkpt lat="42.10413" lon="21.1797">
        <ele>381.790676</ele>
        <time>2022-04-23T09:53:15.520Z</time>
      </trkpt>
      <trkpt lat="42.1041" lon="21.17954">
        <ele>382.14141</ele>
        <time>2022-04-23T09:53:17.515Z</time>
      </trkpt>
      <trkpt lat="42.10407" lon="21.17939">
        <ele>382.473473</ele>
        <time>2022-04-23T09:53:19.494Z</time>
      </trkpt>
      <trkpt lat="42.10405" lon="21.17924">
        <ele>382.780647</ele>
        <time>2022-04-23T09:53:21.500Z</time>
      </trkpt>
      <trkpt lat="42.10403" lon="21.1791">
        <ele>383.098163</ele>
        <time>2022-04-23T09:53:23.539Z</time>
      </trkpt>
      <trkpt lat="42.104" lon="21.17897">
        <ele>383.381021</ele>
        <time>2022-04-23T09:53:25.512Z</time>
      </trkpt>
      <trkpt lat="42.10396" lon="21.17881">
        <ele>383.725789</ele>
        <time>2022-04-23T09:53:28.502Z</time>
      </trkpt>
      <trkpt lat="42.10394" lon="21.17869">
        <ele>384.002025</ele>
        <time>2022-04-23T09:53:31.527Z</time>
      </trkpt>
      <trkpt lat="42.10392" lon="21.17857">
        <ele>384.257727</ele>
        <time>2022-04-23T09:53:34.481Z</time>
      </trkpt>
      <trkpt lat="42.10388" lon="21.17842">
        <ele>384.594642</ele>
        <time>2022-04-23T09:53:38.492Z</time>
      </trkpt>
      <trkpt lat="42.10382" lon="21.17829">
        <ele>384.912838</ele>
        <time>2022-04-23T09:53:42.506Z</time>
      </trkpt>
      <trkpt lat="42.10375" lon="21.17818">
        <ele>385.326606</ele>
        <time>2022-04-23T09:53:47.497Z</time>
      </trkpt>
      <trkpt lat="42.10369" lon="21.17809">
        <ele>385.72491</ele>
        <time>2022-04-23T09:53:52.534Z</time>
      </trkpt>
      <trkpt lat="42.10361" lon="21.17799">
        <ele>386.16551</ele>
        <time>2022-04-23T09:53:58.501Z</time>
      </trkpt>
      <trkpt lat="42.10354" lon="21.17788">
        <ele>386.599717</ele>
        <time>2022-04-23T09:54:04.520Z</time>
      </trkpt>
      <trkpt lat="42.10352" lon="21.17775">
        <ele>387.022323</ele>
        <time>2022-04-23T09:54:11.483Z</time>
      </trkpt>
      <trkpt lat="42.10352" lon="21.17762">
        <ele>387.427852</ele>
        <time>2022-04-23T09:54:18.495Z</time>
      </trkpt>
      <trkpt lat="42.10353" lon="21.1775">
        <ele>387.818091</ele>
        <time>2022-04-23T09:54:24.506Z</time>
      </trkpt>
      <trkpt lat="42.1035" lon="21.17738">
        <ele>388.212051</ele>
        <time>2022-04-23T09:54:29.498Z</time>
      </trkpt>
      <trkpt lat="42.10344" lon="21.17728">
        <ele>388.620164</ele>
        <time>2022-04-23T09:54:34.496Z</time>
      </trkpt>
      <trkpt lat="42.10339" lon="21.17717">
        <ele>389.020864</ele>
        <time>2022-04-23T09:54:39.572Z</time>
      </trkpt>
      <trkpt lat="42.10337" lon="21.17705">
        <ele>389.413932</ele>
        <time>2022-04-23T09:54:45.522Z</time>
      </trkpt>
      <trkpt lat="42.10338" lon="21.17692">
        <ele>389.812777</ele>
        <time>2022-04-23T09:54:50.497Z</time>
      </trkpt>
      <trkpt lat="42.1034" lon="21.17677">
        <ele>390.277442</ele>
        <time>2022-04-23T09:54:55.506Z</time>
      </trkpt>
      <trkpt lat="42.10341" lon="21.17664">
        <ele>390.69128</ele>
        <time>2022-04-23T09:54:59.505Z</time>
      </trkpt>
      <trkpt lat="42.10343" lon="21.17651">
        <ele>391.103622</ele>
        <time>2022-04-23T09:55:03.501Z</time>
      </trkpt>
      <trkpt lat="42.10345" lon="21.17637">
        <ele>391.576928</ele>
        <time>2022-04-23T09:55:07.521Z</time>
      </trkpt>
      <trkpt lat="42.10345" lon="21.17624">
        <ele>391.966825</ele>
        <time>2022-04-23T09:55:10.500Z</time>
      </trkpt>
      <trkpt lat="42.10347" lon="21.17609">
        <ele>392.44082</ele>
        <time>2022-04-23T09:55:13.510Z</time>
      </trkpt>
      <trkpt lat="42.10348" lon="21.17593">
        <ele>392.515206</ele>
        <time>2022-04-23T09:55:16.517Z</time>
      </trkpt>
      <trkpt lat="42.1035" lon="21.17575">
        <ele>392.368434</ele>
        <time>2022-04-23T09:55:19.505Z</time>
      </trkpt>
      <trkpt lat="42.1035" lon="21.17563">
        <ele>392.264823</ele>
        <time>2022-04-23T09:55:21.490Z</time>
      </trkpt>
      <trkpt lat="42.10351" lon="21.17547">
        <ele>392.125945</ele>
        <time>2022-04-23T09:55:24.510Z</time>
      </trkpt>
      <trkpt lat="42.10351" lon="21.17533">
        <ele>392.015056</ele>
        <time>2022-04-23T09:55:27.533Z</time>
      </trkpt>
      <trkpt lat="42.10349" lon="21.17519">
        <ele>391.89531</ele>
        <time>2022-04-23T09:55:31.505Z</time>
      </trkpt>
      <trkpt lat="42.1035" lon="21.17505">
        <ele>391.775974</ele>
        <time>2022-04-23T09:55:35.506Z</time>
      </trkpt>
      <trkpt lat="42.1035" lon="21.1749">
        <ele>391.64999</ele>
        <time>2022-04-23T09:55:38.501Z</time>
      </trkpt>
      <trkpt lat="42.10351" lon="21.17478">
        <ele>391.544851</ele>
        <time>2022-04-23T09:55:40.504Z</time>
      </trkpt>
      <trkpt lat="42.10352" lon="21.17463">
        <ele>391.424405</ele>
        <time>2022-04-23T09:55:42.508Z</time>
      </trkpt>
      <trkpt lat="42.10352" lon="21.17448">
        <ele>391.29842</ele>
        <time>2022-04-23T09:55:44.552Z</time>
      </trkpt>
      <trkpt lat="42.10351" lon="21.17434">
        <ele>391.172862</ele>
        <time>2022-04-23T09:55:46.541Z</time>
      </trkpt>
      <trkpt lat="42.10349" lon="21.1742">
        <ele>391.05389</ele>
        <time>2022-04-23T09:55:48.510Z</time>
      </trkpt>
      <trkpt lat="42.10347" lon="21.17407">
        <ele>390.944868</ele>
        <time>2022-04-23T09:55:50.497Z</time>
      </trkpt>
      <trkpt lat="42.10345" lon="21.17391">
        <ele>390.811705</ele>
        <time>2022-04-23T09:55:53.503Z</time>
      </trkpt>
      <trkpt lat="42.10343" lon="21.17376">
        <ele>390.683645</ele>
        <time>2022-04-23T09:55:57.499Z</time>
      </trkpt>
      <trkpt lat="42.10341" lon="21.17363">
        <ele>390.573152</ele>
        <time>2022-04-23T09:56:01.507Z</time>
      </trkpt>
      <trkpt lat="42.1034" lon="21.17351">
        <ele>390.586612</ele>
        <time>2022-04-23T09:56:05.488Z</time>
      </trkpt>
      <trkpt lat="42.10339" lon="21.17337">
        <ele>390.60227</ele>
        <time>2022-04-23T09:56:10.505Z</time>
      </trkpt>
      <trkpt lat="42.10342" lon="21.17324">
        <ele>390.61692</ele>
        <time>2022-04-23T09:56:14.541Z</time>
      </trkpt>
      <trkpt lat="42.10344" lon="21.17311">
        <ele>390.631212</ele>
        <time>2022-04-23T09:56:18.493Z</time>
      </trkpt>
      <trkpt lat="42.10346" lon="21.17297">
        <ele>390.647213</ele>
        <time>2022-04-23T09:56:22.496Z</time>
      </trkpt>
      <trkpt lat="42.10348" lon="21.17283">
        <ele>390.663157</ele>
        <time>2022-04-23T09:56:26.486Z</time>
      </trkpt>
      <trkpt lat="42.10349" lon="21.17268">
        <ele>390.679531</ele>
        <time>2022-04-23T09:56:30.501Z</time>
      </trkpt>
      <trkpt lat="42.10349" lon="21.17255">
        <ele>390.693422</ele>
        <time>2022-04-23T09:56:33.520Z</time>
      </trkpt>
      <trkpt lat="42.1035" lon="21.17239">
        <ele>390.711046</ele>
        <time>2022-04-23T09:56:37.500Z</time>
      </trkpt>
      <trkpt lat="42.10349" lon="21.17224">
        <ele>390.727786</ele>
        <time>2022-04-23T09:56:41.501Z</time>
      </trkpt>
      <trkpt lat="42.10349" lon="21.17212">
        <ele>390.741721</ele>
        <time>2022-04-23T09:56:44.510Z</time>
      </trkpt>
      <trkpt lat="42.10347" lon="21.17199">
        <ele>390.755508</ele>
        <time>2022-04-23T09:56:47.514Z</time>
      </trkpt>
      <trkpt lat="42.10345" lon="21.17187">
        <ele>390.76919</ele>
        <time>2022-04-23T09:56:50.523Z</time>
      </trkpt>
      <trkpt lat="42.1034" lon="21.17177">
        <ele>390.782502</ele>
        <time>2022-04-23T09:56:53.499Z</time>
      </trkpt>
      <trkpt lat="42.10334" lon="21.17167">
        <ele>390.796891</ele>
        <time>2022-04-23T09:56:56.502Z</time>
      </trkpt>
      <trkpt lat="42.10327" lon="21.17159">
        <ele>390.810196</ele>
        <time>2022-04-23T09:56:59.504Z</time>
      </trkpt>
      <trkpt lat="42.1032" lon="21.17148">
        <ele>390.826527</ele>
        <time>2022-04-23T09:57:03.482Z</time>
      </trkpt>
      <trkpt lat="42.10312" lon="21.17137">
        <ele>390.860761</ele>
        <time>2022-04-23T09:57:07.504Z</time>
      </trkpt>
      <trkpt lat="42.10305" lon="21.17125">
        <ele>390.964089</ele>
        <time>2022-04-23T09:57:11.515Z</time>
      </trkpt>
      <trkpt lat="42.10298" lon="21.17113">
        <ele>391.074728</ele>
        <time>2022-04-23T09:57:15.487Z</time>
      </trkpt>
      <trkpt lat="42.10292" lon="21.17102">
        <ele>391.162553</ele>
        <time>2022-04-23T09:57:18.504Z</time>
      </trkpt>
      <trkpt lat="42.10288" lon="21.17091">
        <ele>391.255013</ele>
        <time>2022-04-23T09:57:21.520Z</time>
      </trkpt>
      <trkpt lat="42.10283" lon="21.17078">
        <ele>391.353829</ele>
        <time>2022-04-23T09:57:24.515Z</time>
      </trkpt>
      <trkpt lat="42.10279" lon="21.17064">
        <ele>391.454663</ele>
        <time>2022-04-23T09:57:27.506Z</time>
      </trkpt>
      <trkpt lat="42.10275" lon="21.1705">
        <ele>391.562363</ele>
        <time>2022-04-23T09:57:30.522Z</time>
      </trkpt>
      <trkpt lat="42.10271" lon="21.17036">
        <ele>391.662567</ele>
        <time>2022-04-23T09:57:33.500Z</time>
      </trkpt>
      <trkpt lat="42.10268" lon="21.17022">
        <ele>391.762422</ele>
        <time>2022-04-23T09:57:36.538Z</time>
      </trkpt>
      <trkpt lat="42.10264" lon="21.17007">
        <ele>391.875914</ele>
        <time>2022-04-23T09:57:39.517Z</time>
      </trkpt>
      <trkpt lat="42.10261" lon="21.16991">
        <ele>391.989148</ele>
        <time>2022-04-23T09:57:42.493Z</time>
      </trkpt>
      <trkpt lat="42.10258" lon="21.16975">
        <ele>392.103508</ele>
        <time>2022-04-23T09:57:45.503Z</time>
      </trkpt>
      <trkpt lat="42.10255" lon="21.16961">
        <ele>392.205329</ele>
        <time>2022-04-23T09:57:48.509Z</time>
      </trkpt>
      <trkpt lat="42.10252" lon="21.16945">
        <ele>392.314103</ele>
        <time>2022-04-23T09:57:52.510Z</time>
      </trkpt>
      <trkpt lat="42.1025" lon="21.16932">
        <ele>392.407093</ele>
        <time>2022-04-23T09:57:56.496Z</time>
      </trkpt>
      <trkpt lat="42.10251" lon="21.16918">
        <ele>392.505455</ele>
        <time>2022-04-23T09:58:00.505Z</time>
      </trkpt>
      <trkpt lat="42.10252" lon="21.16904">
        <ele>392.621161</ele>
        <time>2022-04-23T09:58:03.488Z</time>
      </trkpt>
      <trkpt lat="42.10255" lon="21.16889">
        <ele>392.754407</ele>
        <time>2022-04-23T09:58:06.503Z</time>
      </trkpt>
      <trkpt lat="42.10261" lon="21.16873">
        <ele>392.902352</ele>
        <time>2022-04-23T09:58:09.506Z</time>
      </trkpt>
      <trkpt lat="42.10266" lon="21.1686">
        <ele>393.030824</ele>
        <time>2022-04-23T09:58:12.514Z</time>
      </trkpt>
      <trkpt lat="42.1027" lon="21.16848">
        <ele>393.147424</ele>
        <time>2022-04-23T09:58:15.505Z</time>
      </trkpt>
      <trkpt lat="42.10271" lon="21.16834">
        <ele>393.268372</ele>
        <time>2022-04-23T09:58:18.503Z</time>
      </trkpt>
      <trkpt lat="42.10272" lon="21.16818">
        <ele>393.400373</ele>
        <time>2022-04-23T09:58:22.501Z</time>
      </trkpt>
      <trkpt lat="42.10276" lon="21.16803">
        <ele>393.531852</ele>
        <time>2022-04-23T09:58:26.496Z</time>
      </trkpt>
      <trkpt lat="42.1028" lon="21.16792">
        <ele>393.641181</ele>
        <time>2022-04-23T09:58:29.506Z</time>
      </trkpt>
      <trkpt lat="42.10284" lon="21.16779">
        <ele>393.760849</ele>
        <time>2022-04-23T09:58:32.501Z</time>
      </trkpt>
      <trkpt lat="42.10285" lon="21.16761">
        <ele>393.914419</ele>
        <time>2022-04-23T09:58:35.511Z</time>
      </trkpt>
      <trkpt lat="42.10283" lon="21.16745">
        <ele>394.052619</ele>
        <time>2022-04-23T09:58:37.516Z</time>
      </trkpt>
      <trkpt lat="42.1028" lon="21.16728">
        <ele>394.200085</ele>
        <time>2022-04-23T09:58:39.513Z</time>
      </trkpt>
      <trkpt lat="42.10275" lon="21.1671">
        <ele>394.360881</ele>
        <time>2022-04-23T09:58:41.504Z</time>
      </trkpt>
      <trkpt lat="42.10272" lon="21.16691">
        <ele>394.531624</ele>
        <time>2022-04-23T09:58:43.502Z</time>
      </trkpt>
      <trkpt lat="42.10272" lon="21.16671">
        <ele>394.421609</ele>
        <time>2022-04-23T09:58:45.516Z</time>
      </trkpt>
      <trkpt lat="42.10274" lon="21.16651">
        <ele>394.202196</ele>
        <time>2022-04-23T09:58:47.510Z</time>
      </trkpt>
      <trkpt lat="42.10272" lon="21.16632">
        <ele>393.991079</ele>
        <time>2022-04-23T09:58:49.525Z</time>
      </trkpt>
      <trkpt lat="42.10268" lon="21.16616">
        <ele>393.800493</ele>
        <time>2022-04-23T09:58:51.507Z</time>
      </trkpt>
      <trkpt lat="42.10264" lon="21.16601">
        <ele>393.63175</ele>
        <time>2022-04-23T09:58:53.489Z</time>
      </trkpt>
      <trkpt lat="42.1026" lon="21.1659">
        <ele>393.491562</ele>
        <time>2022-04-23T09:58:55.526Z</time>
      </trkpt>
      <trkpt lat="42.10256" lon="21.16576">
        <ele>393.330643</ele>
        <time>2022-04-23T09:58:58.500Z</time>
      </trkpt>
      <trkpt lat="42.10252" lon="21.16562">
        <ele>393.158274</ele>
        <time>2022-04-23T09:59:02.528Z</time>
      </trkpt>
      <trkpt lat="42.10247" lon="21.16551">
        <ele>393.01898</ele>
        <time>2022-04-23T09:59:05.499Z</time>
      </trkpt>
      <trkpt lat="42.10242" lon="21.16539">
        <ele>392.873641</ele>
        <time>2022-04-23T09:59:08.495Z</time>
      </trkpt>
      <trkpt lat="42.10238" lon="21.16527">
        <ele>392.724888</ele>
        <time>2022-04-23T09:59:11.537Z</time>
      </trkpt>
      <trkpt lat="42.10235" lon="21.16514">
        <ele>392.575884</ele>
        <time>2022-04-23T09:59:15.504Z</time>
      </trkpt>
      <trkpt lat="42.10231" lon="21.16503">
        <ele>392.438618</ele>
        <time>2022-04-23T09:59:19.506Z</time>
      </trkpt>
      <trkpt lat="42.10226" lon="21.16489">
        <ele>392.26622</ele>
        <time>2022-04-23T09:59:23.553Z</time>
      </trkpt>
      <trkpt lat="42.1022" lon="21.16476">
        <ele>392.096389</ele>
        <time>2022-04-23T09:59:26.522Z</time>
      </trkpt>
      <trkpt lat="42.10212" lon="21.16463">
        <ele>391.912975</ele>
        <time>2022-04-23T09:59:29.500Z</time>
      </trkpt>
      <trkpt lat="42.10205" lon="21.16454">
        <ele>392.091887</ele>
        <time>2022-04-23T09:59:32.510Z</time>
      </trkpt>
      <trkpt lat="42.10197" lon="21.16444">
        <ele>392.311679</ele>
        <time>2022-04-23T09:59:36.495Z</time>
      </trkpt>
      <trkpt lat="42.1019" lon="21.16434">
        <ele>392.541308</ele>
        <time>2022-04-23T09:59:40.500Z</time>
      </trkpt>
      <trkpt lat="42.10183" lon="21.16424">
        <ele>392.742144</ele>
        <time>2022-04-23T09:59:43.505Z</time>
      </trkpt>
      <trkpt lat="42.10176" lon="21.16415">
        <ele>392.949176</ele>
        <time>2022-04-23T09:59:46.492Z</time>
      </trkpt>
      <trkpt lat="42.10168" lon="21.16403">
        <ele>393.191113</ele>
        <time>2022-04-23T09:59:49.505Z</time>
      </trkpt>
      <trkpt lat="42.10159" lon="21.16391">
        <ele>393.444435</ele>
        <time>2022-04-23T09:59:52.502Z</time>
      </trkpt>
      <trkpt lat="42.10152" lon="21.16379">
        <ele>393.681933</ele>
        <time>2022-04-23T09:59:55.495Z</time>
      </trkpt>
      <trkpt lat="42.10146" lon="21.16368">
        <ele>393.898256</ele>
        <time>2022-04-23T09:59:58.503Z</time>
      </trkpt>
      <trkpt lat="42.1014" lon="21.16356">
        <ele>394.119559</ele>
        <time>2022-04-23T10:00:01.503Z</time>
      </trkpt>
      <trkpt lat="42.10132" lon="21.16344">
        <ele>394.368273</ele>
        <time>2022-04-23T10:00:04.513Z</time>
      </trkpt>
      <trkpt lat="42.10127" lon="21.16334">
        <ele>394.557278</ele>
        <time>2022-04-23T10:00:06.497Z</time>
      </trkpt>
      <trkpt lat="42.10122" lon="21.16324">
        <ele>394.747517</ele>
        <time>2022-04-23T10:00:08.496Z</time>
      </trkpt>
      <trkpt lat="42.10113" lon="21.1631">
        <ele>395.013502</ele>
        <time>2022-04-23T10:00:11.507Z</time>
      </trkpt>
      <trkpt lat="42.10104" lon="21.16298">
        <ele>395.284036</ele>
        <time>2022-04-23T10:00:14.524Z</time>
      </trkpt>
      <trkpt lat="42.10097" lon="21.1629">
        <ele>395.471655</ele>
        <time>2022-04-23T10:00:16.525Z</time>
      </trkpt>
      <trkpt lat="42.10089" lon="21.16277">
        <ele>395.561121</ele>
        <time>2022-04-23T10:00:19.506Z</time>
      </trkpt>
      <trkpt lat="42.10082" lon="21.16264">
        <ele>395.384442</ele>
        <time>2022-04-23T10:00:22.510Z</time>
      </trkpt>
      <trkpt lat="42.10077" lon="21.16251">
        <ele>395.219314</ele>
        <time>2022-04-23T10:00:25.500Z</time>
      </trkpt>
      <trkpt lat="42.10072" lon="21.16238">
        <ele>395.067223</ele>
        <time>2022-04-23T10:00:28.503Z</time>
      </trkpt>
      <trkpt lat="42.10068" lon="21.16226">
        <ele>394.916431</ele>
        <time>2022-04-23T10:00:31.520Z</time>
      </trkpt>
      <trkpt lat="42.10063" lon="21.16212">
        <ele>394.744624</ele>
        <time>2022-04-23T10:00:34.558Z</time>
      </trkpt>
      <trkpt lat="42.10058" lon="21.16195">
        <ele>394.553253</ele>
        <time>2022-04-23T10:00:37.525Z</time>
      </trkpt>
      <trkpt lat="42.10054" lon="21.1618">
        <ele>394.370682</ele>
        <time>2022-04-23T10:00:40.503Z</time>
      </trkpt>
      <trkpt lat="42.10052" lon="21.16167">
        <ele>394.226104</ele>
        <time>2022-04-23T10:00:42.519Z</time>
      </trkpt>
      <trkpt lat="42.1005" lon="21.16155">
        <ele>394.091176</ele>
        <time>2022-04-23T10:00:44.492Z</time>
      </trkpt>
      <trkpt lat="42.10048" lon="21.16139">
        <ele>393.915577</ele>
        <time>2022-04-23T10:00:47.513Z</time>
      </trkpt>
      <trkpt lat="42.10046" lon="21.16126">
        <ele>393.765014</ele>
        <time>2022-04-23T10:00:50.505Z</time>
      </trkpt>
      <trkpt lat="42.10044" lon="21.16111">
        <ele>393.596194</ele>
        <time>2022-04-23T10:00:54.501Z</time>
      </trkpt>
      <trkpt lat="42.10041" lon="21.16095">
        <ele>393.419396</ele>
        <time>2022-04-23T10:00:58.507Z</time>
      </trkpt>
      <trkpt lat="42.1004" lon="21.1608">
        <ele>393.256862</ele>
        <time>2022-04-23T10:01:02.492Z</time>
      </trkpt>
      <trkpt lat="42.1004" lon="21.16064">
        <ele>393.084622</ele>
        <time>2022-04-23T10:01:06.513Z</time>
      </trkpt>
      <trkpt lat="42.10038" lon="21.16048">
        <ele>393.378477</ele>
        <time>2022-04-23T10:01:10.502Z</time>
      </trkpt>
      <trkpt lat="42.10037" lon="21.16035">
        <ele>394.20791</ele>
        <time>2022-04-23T10:01:13.544Z</time>
      </trkpt>
      <trkpt lat="42.10036" lon="21.16019">
        <ele>395.198526</ele>
        <time>2022-04-23T10:01:17.517Z</time>
      </trkpt>
      <trkpt lat="42.10037" lon="21.16004">
        <ele>396.158911</ele>
        <time>2022-04-23T10:01:21.489Z</time>
      </trkpt>
      <trkpt lat="42.10039" lon="21.15989">
        <ele>397.131189</ele>
        <time>2022-04-23T10:01:25.502Z</time>
      </trkpt>
      <trkpt lat="42.10042" lon="21.15974">
        <ele>398.105831</ele>
        <time>2022-04-23T10:01:29.561Z</time>
      </trkpt>
      <trkpt lat="42.10046" lon="21.15962">
        <ele>398.915232</ele>
        <time>2022-04-23T10:01:32.498Z</time>
      </trkpt>
      <trkpt lat="42.10049" lon="21.15948">
        <ele>399.828464</ele>
        <time>2022-04-23T10:01:36.506Z</time>
      </trkpt>
      <trkpt lat="42.10049" lon="21.15935">
        <ele>400.685031</ele>
        <time>2022-04-23T10:01:40.506Z</time>
      </trkpt>
      <trkpt lat="42.1005" lon="21.15922">
        <ele>401.47524</ele>
        <time>2022-04-23T10:01:44.501Z</time>
      </trkpt>
      <trkpt lat="42.10052" lon="21.15908">
        <ele>402.398649</ele>
        <time>2022-04-23T10:01:49.513Z</time>
      </trkpt>
      <trkpt lat="42.10053" lon="21.15892">
        <ele>403.420699</ele>
        <time>2022-04-23T10:01:53.503Z</time>
      </trkpt>
      <trkpt lat="42.10052" lon="21.15878">
        <ele>404.266758</ele>
        <time>2022-04-23T10:01:56.513Z</time>
      </trkpt>
      <trkpt lat="42.10052" lon="21.15864">
        <ele>405.174704</ele>
        <time>2022-04-23T10:01:59.493Z</time>
      </trkpt>
      <trkpt lat="42.10051" lon="21.15848">
        <ele>406.197882</ele>
        <time>2022-04-23T10:02:02.515Z</time>
      </trkpt>
      <trkpt lat="42.10049" lon="21.15834">
        <ele>407.078943</ele>
        <time>2022-04-23T10:02:05.491Z</time>
      </trkpt>
      <trkpt lat="42.10047" lon="21.15818">
        <ele>408.068334</ele>
        <time>2022-04-23T10:02:09.556Z</time>
      </trkpt>
      <trkpt lat="42.10045" lon="21.15806">
        <ele>408.198211</ele>
        <time>2022-04-23T10:02:13.511Z</time>
      </trkpt>
      <trkpt lat="42.10044" lon="21.15791">
        <ele>408.137453</ele>
        <time>2022-04-23T10:02:19.538Z</time>
      </trkpt>
      <trkpt lat="42.10041" lon="21.15778">
        <ele>408.077796</ele>
        <time>2022-04-23T10:02:24.521Z</time>
      </trkpt>
      <trkpt lat="42.1004" lon="21.15765">
        <ele>408.023573</ele>
        <time>2022-04-23T10:02:31.523Z</time>
      </trkpt>
      <trkpt lat="42.10038" lon="21.15753">
        <ele>407.966288</ele>
        <time>2022-04-23T10:02:37.553Z</time>
      </trkpt>
      <trkpt lat="42.10035" lon="21.1574">
        <ele>407.910133</ele>
        <time>2022-04-23T10:02:43.494Z</time>
      </trkpt>
      <trkpt lat="42.10035" lon="21.15727">
        <ele>407.856269</ele>
        <time>2022-04-23T10:02:50.501Z</time>
      </trkpt>
      <trkpt lat="42.10036" lon="21.15714">
        <ele>407.801088</ele>
        <time>2022-04-23T10:02:55.529Z</time>
      </trkpt>
      <trkpt lat="42.10036" lon="21.15701">
        <ele>407.745527</ele>
        <time>2022-04-23T10:03:01.535Z</time>
      </trkpt>
      <trkpt lat="42.10033" lon="21.15689">
        <ele>407.691845</ele>
        <time>2022-04-23T10:03:07.514Z</time>
      </trkpt>
      <trkpt lat="42.10028" lon="21.15676">
        <ele>407.629903</ele>
        <time>2022-04-23T10:03:13.505Z</time>
      </trkpt>
      <trkpt lat="42.10025" lon="21.15664">
        <ele>407.576402</ele>
        <time>2022-04-23T10:03:18.510Z</time>
      </trkpt>
      <trkpt lat="42.10019" lon="21.15651">
        <ele>407.510541</ele>
        <time>2022-04-23T10:03:23.506Z</time>
      </trkpt>
      <trkpt lat="42.10015" lon="21.1564">
        <ele>407.457101</ele>
        <time>2022-04-23T10:03:26.511Z</time>
      </trkpt>
      <trkpt lat="42.10009" lon="21.15627">
        <ele>407.393224</ele>
        <time>2022-04-23T10:03:29.510Z</time>
      </trkpt>
      <trkpt lat="42.10001" lon="21.15613">
        <ele>407.315643</ele>
        <time>2022-04-23T10:03:32.497Z</time>
      </trkpt>
      <trkpt lat="42.09992" lon="21.15602">
        <ele>407.244086</ele>
        <time>2022-04-23T10:03:34.501Z</time>
      </trkpt>
      <trkpt lat="42.0998" lon="21.15591">
        <ele>407.041481</ele>
        <time>2022-04-23T10:03:36.536Z</time>
      </trkpt>
      <trkpt lat="42.09968" lon="21.15578">
        <ele>406.716639</ele>
        <time>2022-04-23T10:03:38.505Z</time>
      </trkpt>
      <trkpt lat="42.09957" lon="21.15562">
        <ele>406.365363</ele>
        <time>2022-04-23T10:03:40.507Z</time>
      </trkpt>
      <trkpt lat="42.09946" lon="21.15546">
        <ele>406.022359</ele>
        <time>2022-04-23T10:03:42.505Z</time>
      </trkpt>
      <trkpt lat="42.09937" lon="21.15532">
        <ele>405.719751</ele>
        <time>2022-04-23T10:03:44.539Z</time>
      </trkpt>
      <trkpt lat="42.09931" lon="21.15516">
        <ele>405.433359</ele>
        <time>2022-04-23T10:03:46.529Z</time>
      </trkpt>
      <trkpt lat="42.09927" lon="21.15501">
        <ele>405.178978</ele>
        <time>2022-04-23T10:03:48.510Z</time>
      </trkpt>
      <trkpt lat="42.09923" lon="21.15488">
        <ele>404.953828</ele>
        <time>2022-04-23T10:03:50.529Z</time>
      </trkpt>
      <trkpt lat="42.09921" lon="21.15475">
        <ele>404.744469</ele>
        <time>2022-04-23T10:03:52.498Z</time>
      </trkpt>
      <trkpt lat="42.09919" lon="21.15461">
        <ele>404.506814</ele>
        <time>2022-04-23T10:03:55.515Z</time>
      </trkpt>
      <trkpt lat="42.09918" lon="21.15447">
        <ele>404.294815</ele>
        <time>2022-04-23T10:03:58.490Z</time>
      </trkpt>
      <trkpt lat="42.09921" lon="21.15433">
        <ele>404.051357</ele>
        <time>2022-04-23T10:04:01.541Z</time>
      </trkpt>
      <trkpt lat="42.09927" lon="21.1542">
        <ele>403.810736</ele>
        <time>2022-04-23T10:04:04.496Z</time>
      </trkpt>
      <trkpt lat="42.09934" lon="21.15408">
        <ele>403.572489</ele>
        <time>2022-04-23T10:04:07.537Z</time>
      </trkpt>
      <trkpt lat="42.0994" lon="21.15397">
        <ele>403.352666</ele>
        <time>2022-04-23T10:04:10.520Z</time>
      </trkpt>
      <trkpt lat="42.09945" lon="21.15387">
        <ele>403.579134</ele>
        <time>2022-04-23T10:04:13.582Z</time>
      </trkpt>
      <trkpt lat="42.09951" lon="21.15377">
        <ele>403.900333</ele>
        <time>2022-04-23T10:04:16.503Z</time>
      </trkpt>
      <trkpt lat="42.09958" lon="21.15367">
        <ele>404.20747</ele>
        <time>2022-04-23T10:04:19.501Z</time>
      </trkpt>
      <trkpt lat="42.09965" lon="21.15358">
        <ele>404.532517</ele>
        <time>2022-04-23T10:04:22.518Z</time>
      </trkpt>
      <trkpt lat="42.09973" lon="21.1535">
        <ele>404.845632</ele>
        <time>2022-04-23T10:04:25.497Z</time>
      </trkpt>
      <trkpt lat="42.09981" lon="21.15343">
        <ele>405.14422</ele>
        <time>2022-04-23T10:04:28.493Z</time>
      </trkpt>
      <trkpt lat="42.09989" lon="21.15337">
        <ele>405.452068</ele>
        <time>2022-04-23T10:04:31.488Z</time>
      </trkpt>
      <trkpt lat="42.09998" lon="21.15328">
        <ele>405.813285</ele>
        <time>2022-04-23T10:04:35.540Z</time>
      </trkpt>
      <trkpt lat="42.10006" lon="21.1532">
        <ele>406.152485</ele>
        <time>2022-04-23T10:04:39.519Z</time>
      </trkpt>
      <trkpt lat="42.10016" lon="21.15311">
        <ele>406.509628</ele>
        <time>2022-04-23T10:04:43.505Z</time>
      </trkpt>
      <trkpt lat="42.10025" lon="21.15304">
        <ele>406.855617</ele>
        <time>2022-04-23T10:04:46.508Z</time>
      </trkpt>
      <trkpt lat="42.10035" lon="21.15295">
        <ele>407.251574</ele>
        <time>2022-04-23T10:04:49.522Z</time>
      </trkpt>
      <trkpt lat="42.10045" lon="21.15284">
        <ele>407.660951</ele>
        <time>2022-04-23T10:04:52.529Z</time>
      </trkpt>
      <trkpt lat="42.10053" lon="21.15271">
        <ele>408.067277</ele>
        <time>2022-04-23T10:04:55.491Z</time>
      </trkpt>
      <trkpt lat="42.10059" lon="21.15257">
        <ele>408.461565</ele>
        <time>2022-04-23T10:04:58.536Z</time>
      </trkpt>
      <trkpt lat="42.10064" lon="21.15247">
        <ele>408.752185</ele>
        <time>2022-04-23T10:05:00.493Z</time>
      </trkpt>
      <trkpt lat="42.1007" lon="21.15237">
        <ele>409.062047</ele>
        <time>2022-04-23T10:05:02.502Z</time>
      </trkpt>
      <trkpt lat="42.10077" lon="21.15226">
        <ele>409.440875</ele>
        <time>2022-04-23T10:05:04.503Z</time>
      </trkpt>
      <trkpt lat="42.10084" lon="21.15216">
        <ele>409.814816</ele>
        <time>2022-04-23T10:05:06.509Z</time>
      </trkpt>
      <trkpt lat="42.1009" lon="21.15207">
        <ele>410.176154</ele>
        <time>2022-04-23T10:05:08.509Z</time>
      </trkpt>
      <trkpt lat="42.10098" lon="21.15196">
        <ele>410.600787</ele>
        <time>2022-04-23T10:05:11.512Z</time>
      </trkpt>
      <trkpt lat="42.10104" lon="21.15184">
        <ele>411.014252</ele>
        <time>2022-04-23T10:05:14.500Z</time>
      </trkpt>
      <trkpt lat="42.1011" lon="21.15172">
        <ele>411.400633</ele>
        <time>2022-04-23T10:05:17.504Z</time>
      </trkpt>
      <trkpt lat="42.10114" lon="21.15161">
        <ele>411.756974</ele>
        <time>2022-04-23T10:05:20.487Z</time>
      </trkpt>
      <trkpt lat="42.10119" lon="21.1515">
        <ele>412.112107</ele>
        <time>2022-04-23T10:05:23.504Z</time>
      </trkpt>
      <trkpt lat="42.10123" lon="21.15135">
        <ele>412.55415</ele>
        <time>2022-04-23T10:05:27.510Z</time>
      </trkpt>
      <trkpt lat="42.10127" lon="21.15123">
        <ele>412.943757</ele>
        <time>2022-04-23T10:05:31.547Z</time>
      </trkpt>
      <trkpt lat="42.10131" lon="21.15109">
        <ele>413.357356</ele>
        <time>2022-04-23T10:05:35.527Z</time>
      </trkpt>
      <trkpt lat="42.10136" lon="21.15093">
        <ele>413.829844</ele>
        <time>2022-04-23T10:05:38.496Z</time>
      </trkpt>
      <trkpt lat="42.10138" lon="21.15081">
        <ele>414.170396</ele>
        <time>2022-04-23T10:05:40.552Z</time>
      </trkpt>
      <trkpt lat="42.10142" lon="21.15064">
        <ele>414.686969</ele>
        <time>2022-04-23T10:05:43.544Z</time>
      </trkpt>
      <trkpt lat="42.10145" lon="21.15051">
        <ele>415.05927</ele>
        <time>2022-04-23T10:05:45.498Z</time>
      </trkpt>
      <trkpt lat="42.10147" lon="21.15039">
        <ele>415.401581</ele>
        <time>2022-04-23T10:05:47.546Z</time>
      </trkpt>
      <trkpt lat="42.10149" lon="21.15023">
        <ele>415.868733</ele>
        <time>2022-04-23T10:05:50.515Z</time>
      </trkpt>
      <trkpt lat="42.10151" lon="21.15005">
        <ele>416.340908</ele>
        <time>2022-04-23T10:05:53.511Z</time>
      </trkpt>
      <trkpt lat="42.10152" lon="21.14989">
        <ele>416.764649</ele>
        <time>2022-04-23T10:05:56.514Z</time>
      </trkpt>
      <trkpt lat="42.10154" lon="21.14977">
        <ele>417.101935</ele>
        <time>2022-04-23T10:05:59.506Z</time>
      </trkpt>
      <trkpt lat="42.10153" lon="21.14964">
        <ele>417.428071</ele>
        <time>2022-04-23T10:06:02.534Z</time>
      </trkpt>
      <trkpt lat="42.10153" lon="21.14951">
        <ele>417.793976</ele>
        <time>2022-04-23T10:06:05.497Z</time>
      </trkpt>
      <trkpt lat="42.10153" lon="21.14938">
        <ele>418.138652</ele>
        <time>2022-04-23T10:06:08.533Z</time>
      </trkpt>
      <trkpt lat="42.10152" lon="21.14925">
        <ele>418.471993</ele>
        <time>2022-04-23T10:06:11.561Z</time>
      </trkpt>
      <trkpt lat="42.10151" lon="21.1491">
        <ele>418.881177</ele>
        <time>2022-04-23T10:06:15.505Z</time>
      </trkpt>
      <trkpt lat="42.1015" lon="21.14896">
        <ele>419.234458</ele>
        <time>2022-04-23T10:06:18.504Z</time>
      </trkpt>
      <trkpt lat="42.1015" lon="21.14881">
        <ele>419.640116</ele>
        <time>2022-04-23T10:06:22.546Z</time>
      </trkpt>
      <trkpt lat="42.10151" lon="21.14868">
        <ele>419.988344</ele>
        <time>2022-04-23T10:06:25.512Z</time>
      </trkpt>
      <trkpt lat="42.1015" lon="21.14855">
        <ele>420.334868</ele>
        <time>2022-04-23T10:06:28.508Z</time>
      </trkpt>
      <trkpt lat="42.10148" lon="21.14842">
        <ele>420.68877</ele>
        <time>2022-04-23T10:06:31.518Z</time>
      </trkpt>
      <trkpt lat="42.10145" lon="21.14829">
        <ele>421.04925</ele>
        <time>2022-04-23T10:06:34.494Z</time>
      </trkpt>
      <trkpt lat="42.10144" lon="21.14815">
        <ele>421.433812</ele>
        <time>2022-04-23T10:06:37.517Z</time>
      </trkpt>
      <trkpt lat="42.1014" lon="21.148">
        <ele>421.843138</ele>
        <time>2022-04-23T10:06:40.525Z</time>
      </trkpt>
      <trkpt lat="42.10137" lon="21.14785">
        <ele>422.242731</ele>
        <time>2022-04-23T10:06:43.495Z</time>
      </trkpt>
      <trkpt lat="42.10134" lon="21.14771">
        <ele>422.2053</ele>
        <time>2022-04-23T10:06:46.498Z</time>
      </trkpt>
      <trkpt lat="42.10132" lon="21.14755">
        <ele>422.015612</ele>
        <time>2022-04-23T10:06:49.506Z</time>
      </trkpt>
      <trkpt lat="42.10129" lon="21.1474">
        <ele>421.829319</ele>
        <time>2022-04-23T10:06:52.504Z</time>
      </trkpt>
      <trkpt lat="42.10123" lon="21.14727">
        <ele>421.644465</ele>
        <time>2022-04-23T10:06:55.494Z</time>
      </trkpt>
      <trkpt lat="42.10117" lon="21.14711">
        <ele>421.431144</ele>
        <time>2022-04-23T10:06:58.495Z</time>
      </trkpt>
      <trkpt lat="42.1011" lon="21.14697">
        <ele>421.235842</ele>
        <time>2022-04-23T10:07:01.545Z</time>
      </trkpt>
      <trkpt lat="42.10106" lon="21.14682">
        <ele>421.042744</ele>
        <time>2022-04-23T10:07:04.510Z</time>
      </trkpt>
      <trkpt lat="42.10104" lon="21.14667">
        <ele>420.864335</ele>
        <time>2022-04-23T10:07:07.506Z</time>
      </trkpt>
      <trkpt lat="42.101" lon="21.14656">
        <ele>420.718986</ele>
        <time>2022-04-23T10:07:10.499Z</time>
      </trkpt>
      <trkpt lat="42.10096" lon="21.14641">
        <ele>420.527994</ele>
        <time>2022-04-23T10:07:14.501Z</time>
      </trkpt>
      <trkpt lat="42.10091" lon="21.14628">
        <ele>420.36215</ele>
        <time>2022-04-23T10:07:17.547Z</time>
      </trkpt>
      <trkpt lat="42.10087" lon="21.14617">
        <ele>420.215297</ele>
        <time>2022-04-23T10:07:20.485Z</time>
      </trkpt>
      <trkpt lat="42.10083" lon="21.14606">
        <ele>420.069548</ele>
        <time>2022-04-23T10:07:23.543Z</time>
      </trkpt>
      <trkpt lat="42.1008" lon="21.14593">
        <ele>419.910198</ele>
        <time>2022-04-23T10:07:27.515Z</time>
      </trkpt>
      <trkpt lat="42.10076" lon="21.14581">
        <ele>419.755314</ele>
        <time>2022-04-23T10:07:32.508Z</time>
      </trkpt>
      <trkpt lat="42.10074" lon="21.14568">
        <ele>419.597525</ele>
        <time>2022-04-23T10:07:38.494Z</time>
      </trkpt>
      <trkpt lat="42.10069" lon="21.14557">
        <ele>419.47336</ele>
        <time>2022-04-23T10:07:44.516Z</time>
      </trkpt>
      <trkpt lat="42.10065" lon="21.14546">
        <ele>419.51208</ele>
        <time>2022-04-23T10:07:50.528Z</time>
      </trkpt>
      <trkpt lat="42.10062" lon="21.14534">
        <ele>419.548931</ele>
        <time>2022-04-23T10:07:56.493Z</time>
      </trkpt>
      <trkpt lat="42.10058" lon="21.14523">
        <ele>419.585848</ele>
        <time>2022-04-23T10:08:01.577Z</time>
      </trkpt>
      <trkpt lat="42.10053" lon="21.14509">
        <ele>419.630862</ele>
        <time>2022-04-23T10:08:06.537Z</time>
      </trkpt>
      <trkpt lat="42.10051" lon="21.14496">
        <ele>419.670336</ele>
        <time>2022-04-23T10:08:11.492Z</time>
      </trkpt>
      <trkpt lat="42.10047" lon="21.14484">
        <ele>419.709024</ele>
        <time>2022-04-23T10:08:16.499Z</time>
      </trkpt>
      <trkpt lat="42.10047" lon="21.1447">
        <ele>419.753079</ele>
        <time>2022-04-23T10:08:21.492Z</time>
      </trkpt>
      <trkpt lat="42.10046" lon="21.14455">
        <ele>419.797463</ele>
        <time>2022-04-23T10:08:26.509Z</time>
      </trkpt>
      <trkpt lat="42.10043" lon="21.14442">
        <ele>419.836553</ele>
        <time>2022-04-23T10:08:30.560Z</time>
      </trkpt>
      <trkpt lat="42.10039" lon="21.1443">
        <ele>419.874687</ele>
        <time>2022-04-23T10:08:33.510Z</time>
      </trkpt>
      <trkpt lat="42.10032" lon="21.14416">
        <ele>419.927061</ele>
        <time>2022-04-23T10:08:36.509Z</time>
      </trkpt>
      <trkpt lat="42.10025" lon="21.14404">
        <ele>419.972686</ele>
        <time>2022-04-23T10:08:38.495Z</time>
      </trkpt>
      <trkpt lat="42.10018" lon="21.14388">
        <ele>420.026506</ele>
        <time>2022-04-23T10:08:40.524Z</time>
      </trkpt>
      <trkpt lat="42.10012" lon="21.1437">
        <ele>420.088482</ele>
        <time>2022-04-23T10:08:42.497Z</time>
      </trkpt>
      <trkpt lat="42.10007" lon="21.14348">
        <ele>420.156398</ele>
        <time>2022-04-23T10:08:44.521Z</time>
      </trkpt>
      <trkpt lat="42.10005" lon="21.14326">
        <ele>419.767732</ele>
        <time>2022-04-23T10:08:46.515Z</time>
      </trkpt>
      <trkpt lat="42.10007" lon="21.14304">
        <ele>418.884562</ele>
        <time>2022-04-23T10:08:48.514Z</time>
      </trkpt>
      <trkpt lat="42.10012" lon="21.14285">
        <ele>418.02951</ele>
        <time>2022-04-23T10:08:50.503Z</time>
      </trkpt>
      <trkpt lat="42.10019" lon="21.14266">
        <ele>417.189</ele>
        <time>2022-04-23T10:08:52.557Z</time>
      </trkpt>
      <trkpt lat="42.10026" lon="21.1425">
        <ele>416.40424</ele>
        <time>2022-04-23T10:08:54.499Z</time>
      </trkpt>
      <trkpt lat="42.10034" lon="21.14233">
        <ele>415.611781</ele>
        <time>2022-04-23T10:08:56.506Z</time>
      </trkpt>
      <trkpt lat="42.1004" lon="21.14217">
        <ele>414.859987</ele>
        <time>2022-04-23T10:08:58.498Z</time>
      </trkpt>
      <trkpt lat="42.10048" lon="21.14202">
        <ele>414.106508</ele>
        <time>2022-04-23T10:09:00.493Z</time>
      </trkpt>
      <trkpt lat="42.10055" lon="21.14187">
        <ele>413.376992</ele>
        <time>2022-04-23T10:09:02.484Z</time>
      </trkpt>
      <trkpt lat="42.10061" lon="21.14172">
        <ele>412.669931</ele>
        <time>2022-04-23T10:09:04.519Z</time>
      </trkpt>
      <trkpt lat="42.10066" lon="21.14156">
        <ele>411.956957</ele>
        <time>2022-04-23T10:09:06.494Z</time>
      </trkpt>
      <trkpt lat="42.10068" lon="21.14141">
        <ele>411.319889</ele>
        <time>2022-04-23T10:09:08.505Z</time>
      </trkpt>
      <trkpt lat="42.10069" lon="21.14126">
        <ele>410.707365</ele>
        <time>2022-04-23T10:09:10.513Z</time>
      </trkpt>
      <trkpt lat="42.1007" lon="21.14109">
        <ele>410.203844</ele>
        <time>2022-04-23T10:09:12.502Z</time>
      </trkpt>
      <trkpt lat="42.10072" lon="21.14093">
        <ele>410.104022</ele>
        <time>2022-04-23T10:09:14.528Z</time>
      </trkpt>
      <trkpt lat="42.10072" lon="21.14078">
        <ele>410.016137</ele>
        <time>2022-04-23T10:09:16.517Z</time>
      </trkpt>
      <trkpt lat="42.10073" lon="21.14065">
        <ele>409.941253</ele>
        <time>2022-04-23T10:09:18.511Z</time>
      </trkpt>
      <trkpt lat="42.10072" lon="21.14049">
        <ele>409.841931</ele>
        <time>2022-04-23T10:09:21.508Z</time>
      </trkpt>
      <trkpt lat="42.10073" lon="21.14032">
        <ele>409.740783</ele>
        <time>2022-04-23T10:09:24.513Z</time>
      </trkpt>
      <trkpt lat="42.10071" lon="21.14018">
        <ele>409.654882</ele>
        <time>2022-04-23T10:09:27.513Z</time>
      </trkpt>
      <trkpt lat="42.10068" lon="21.14005">
        <ele>409.577156</ele>
        <time>2022-04-23T10:09:30.497Z</time>
      </trkpt>
      <trkpt lat="42.10064" lon="21.13994">
        <ele>409.502537</ele>
        <time>2022-04-23T10:09:33.503Z</time>
      </trkpt>
      <trkpt lat="42.10059" lon="21.13981">
        <ele>409.417329</ele>
        <time>2022-04-23T10:09:36.506Z</time>
      </trkpt>
      <trkpt lat="42.10055" lon="21.13969">
        <ele>409.335157</ele>
        <time>2022-04-23T10:09:39.508Z</time>
      </trkpt>
      <trkpt lat="42.10053" lon="21.13955">
        <ele>409.25235</ele>
        <time>2022-04-23T10:09:42.498Z</time>
      </trkpt>
      <trkpt lat="42.1005" lon="21.13942">
        <ele>409.169135</ele>
        <time>2022-04-23T10:09:45.506Z</time>
      </trkpt>
      <trkpt lat="42.10048" lon="21.13928">
        <ele>409.083437</ele>
        <time>2022-04-23T10:09:48.503Z</time>
      </trkpt>
      <trkpt lat="42.10045" lon="21.13914">
        <ele>408.99502</ele>
        <time>2022-04-23T10:09:51.496Z</time>
      </trkpt>
      <trkpt lat="42.10043" lon="21.139">
        <ele>408.913191</ele>
        <time>2022-04-23T10:09:54.506Z</time>
      </trkpt>
      <trkpt lat="42.10038" lon="21.13887">
        <ele>408.824588</ele>
        <time>2022-04-23T10:09:58.526Z</time>
      </trkpt>
      <trkpt lat="42.1003" lon="21.13878">
        <ele>409.119538</ele>
        <time>2022-04-23T10:10:02.501Z</time>
      </trkpt>
      <trkpt lat="42.10021" lon="21.13874">
        <ele>409.718629</ele>
        <time>2022-04-23T10:10:06.523Z</time>
      </trkpt>
      <trkpt lat="42.10011" lon="21.13871">
        <ele>410.362529</ele>
        <time>2022-04-23T10:10:11.499Z</time>
      </trkpt>
      <trkpt lat="42.10002" lon="21.13868">
        <ele>410.95309</ele>
        <time>2022-04-23T10:10:15.523Z</time>
      </trkpt>
      <trkpt lat="42.09992" lon="21.13864">
        <ele>411.566822</ele>
        <time>2022-04-23T10:10:19.498Z</time>
      </trkpt>
      <trkpt lat="42.09981" lon="21.1386">
        <ele>412.272273</ele>
        <time>2022-04-23T10:10:23.530Z</time>
      </trkpt>
      <trkpt lat="42.09972" lon="21.13857">
        <ele>412.862279</ele>
        <time>2022-04-23T10:10:26.525Z</time>
      </trkpt>
      <trkpt lat="42.09963" lon="21.13855">
        <ele>413.422234</ele>
        <time>2022-04-23T10:10:29.513Z</time>
      </trkpt>
      <trkpt lat="42.09953" lon="21.13853">
        <ele>414.037944</ele>
        <time>2022-04-23T10:10:32.541Z</time>
      </trkpt>
      <trkpt lat="42.09942" lon="21.13851">
        <ele>414.712939</ele>
        <time>2022-04-23T10:10:35.506Z</time>
      </trkpt>
      <trkpt lat="42.09933" lon="21.13849">
        <ele>415.289073</ele>
        <time>2022-04-23T10:10:38.498Z</time>
      </trkpt>
      <trkpt lat="42.09924" lon="21.13847">
        <ele>415.883614</ele>
        <time>2022-04-23T10:10:41.497Z</time>
      </trkpt>
      <trkpt lat="42.09915" lon="21.13849">
        <ele>416.447485</ele>
        <time>2022-04-23T10:10:44.501Z</time>
      </trkpt>
      <trkpt lat="42.09904" lon="21.13853">
        <ele>417.119948</ele>
        <time>2022-04-23T10:10:48.522Z</time>
      </trkpt>
      <trkpt lat="42.09896" lon="21.13859">
        <ele>417.719453</ele>
        <time>2022-04-23T10:10:53.494Z</time>
      </trkpt>
      <trkpt lat="42.09886" lon="21.13865">
        <ele>418.365796</ele>
        <time>2022-04-23T10:10:59.497Z</time>
      </trkpt>
      <trkpt lat="42.09876" lon="21.13869">
        <ele>419.020849</ele>
        <time>2022-04-23T10:11:05.513Z</time>
      </trkpt>
      <trkpt lat="42.09866" lon="21.13871">
        <ele>419.641942</ele>
        <time>2022-04-23T10:11:12.518Z</time>
      </trkpt>
      <trkpt lat="42.09858" lon="21.13863">
        <ele>420.119979</ele>
        <time>2022-04-23T10:11:23.521Z</time>
      </trkpt>
      <trkpt lat="42.0985" lon="21.13855">
        <ele>420.449257</ele>
        <time>2022-04-23T10:11:32.498Z</time>
      </trkpt>
      <trkpt lat="42.09845" lon="21.13843">
        <ele>420.780082</ele>
        <time>2022-04-23T10:11:40.514Z</time>
      </trkpt>
      <trkpt lat="42.0984" lon="21.13832">
        <ele>421.104517</ele>
        <time>2022-04-23T10:11:48.514Z</time>
      </trkpt>
      <trkpt lat="42.09838" lon="21.13818">
        <ele>421.446295</ele>
        <time>2022-04-23T10:11:55.486Z</time>
      </trkpt>
      <trkpt lat="42.09835" lon="21.13805">
        <ele>421.774927</ele>
        <time>2022-04-23T10:12:01.496Z</time>
      </trkpt>
      <trkpt lat="42.09833" lon="21.13793">
        <ele>422.078672</ele>
        <time>2022-04-23T10:12:07.493Z</time>
      </trkpt>
      <trkpt lat="42.09831" lon="21.13781">
        <ele>422.39135</ele>
        <time>2022-04-23T10:12:13.502Z</time>
      </trkpt>
      <trkpt lat="42.09831" lon="21.13766">
        <ele>422.741749</ele>
        <time>2022-04-23T10:12:18.520Z</time>
      </trkpt>
      <trkpt lat="42.09831" lon="21.13754">
        <ele>423.057847</ele>
        <time>2022-04-23T10:12:22.513Z</time>
      </trkpt>
      <trkpt lat="42.0983" lon="21.1374">
        <ele>423.397588</ele>
        <time>2022-04-23T10:12:26.491Z</time>
      </trkpt>
      <trkpt lat="42.09827" lon="21.13726">
        <ele>423.744839</ele>
        <time>2022-04-23T10:12:30.509Z</time>
      </trkpt>
      <trkpt lat="42.09824" lon="21.13713">
        <ele>424.090524</ele>
        <time>2022-04-23T10:12:34.524Z</time>
      </trkpt>
      <trkpt lat="42.09822" lon="21.13698">
        <ele>424.456933</ele>
        <time>2022-04-23T10:12:38.497Z</time>
      </trkpt>
      <trkpt lat="42.0982" lon="21.13683">
        <ele>424.837033</ele>
        <time>2022-04-23T10:12:42.533Z</time>
      </trkpt>
      <trkpt lat="42.09819" lon="21.13668">
        <ele>425.20063</ele>
        <time>2022-04-23T10:12:45.505Z</time>
      </trkpt>
      <trkpt lat="42.09817" lon="21.1365">
        <ele>425.640992</ele>
        <time>2022-04-23T10:12:48.502Z</time>
      </trkpt>
      <trkpt lat="42.09816" lon="21.13638">
        <ele>425.754303</ele>
        <time>2022-04-23T10:12:50.512Z</time>
      </trkpt>
      <trkpt lat="42.09815" lon="21.13625">
        <ele>425.246218</ele>
        <time>2022-04-23T10:12:52.501Z</time>
      </trkpt>
      <trkpt lat="42.09813" lon="21.13612">
        <ele>424.732895</ele>
        <time>2022-04-23T10:12:54.501Z</time>
      </trkpt>
      <trkpt lat="42.09811" lon="21.13598">
        <ele>424.183401</ele>
        <time>2022-04-23T10:12:56.505Z</time>
      </trkpt>
      <trkpt lat="42.09807" lon="21.13585">
        <ele>423.612397</ele>
        <time>2022-04-23T10:12:58.495Z</time>
      </trkpt>
      <trkpt lat="42.09803" lon="21.13571">
        <ele>423.057466</ele>
        <time>2022-04-23T10:13:00.504Z</time>
      </trkpt>
      <trkpt lat="42.09798" lon="21.13558">
        <ele>422.476868</ele>
        <time>2022-04-23T10:13:02.495Z</time>
      </trkpt>
      <trkpt lat="42.09794" lon="21.13543">
        <ele>421.863764</ele>
        <time>2022-04-23T10:13:04.490Z</time>
      </trkpt>
      <trkpt lat="42.0979" lon="21.13529">
        <ele>421.261527</ele>
        <time>2022-04-23T10:13:06.486Z</time>
      </trkpt>
      <trkpt lat="42.09785" lon="21.13514">
        <ele>420.632532</ele>
        <time>2022-04-23T10:13:08.515Z</time>
      </trkpt>
      <trkpt lat="42.09779" lon="21.13501">
        <ele>420.020275</ele>
        <time>2022-04-23T10:13:10.512Z</time>
      </trkpt>
      <trkpt lat="42.09772" lon="21.13488">
        <ele>419.390007</ele>
        <time>2022-04-23T10:13:12.502Z</time>
      </trkpt>
      <trkpt lat="42.09762" lon="21.13477">
        <ele>418.749308</ele>
        <time>2022-04-23T10:13:14.501Z</time>
      </trkpt>
      <trkpt lat="42.09753" lon="21.13466">
        <ele>418.075921</ele>
        <time>2022-04-23T10:13:16.505Z</time>
      </trkpt>
      <trkpt lat="42.09742" lon="21.13455">
        <ele>417.372719</ele>
        <time>2022-04-23T10:13:18.503Z</time>
      </trkpt>
      <trkpt lat="42.09733" lon="21.13442">
        <ele>416.667253</ele>
        <time>2022-04-23T10:13:20.502Z</time>
      </trkpt>
      <trkpt lat="42.09726" lon="21.13426">
        <ele>416.325272</ele>
        <time>2022-04-23T10:13:22.509Z</time>
      </trkpt>
      <trkpt lat="42.0972" lon="21.13408">
        <ele>416.187667</ele>
        <time>2022-04-23T10:13:24.502Z</time>
      </trkpt>
      <trkpt lat="42.09714" lon="21.13392">
        <ele>416.054424</ele>
        <time>2022-04-23T10:13:26.531Z</time>
      </trkpt>
      <trkpt lat="42.09707" lon="21.13377">
        <ele>415.927817</ele>
        <time>2022-04-23T10:13:28.492Z</time>
      </trkpt>
      <trkpt lat="42.09698" lon="21.13367">
        <ele>415.809011</ele>
        <time>2022-04-23T10:13:30.501Z</time>
      </trkpt>
      <trkpt lat="42.09688" lon="21.13359">
        <ele>415.696141</ele>
        <time>2022-04-23T10:13:32.501Z</time>
      </trkpt>
      <trkpt lat="42.09679" lon="21.13353">
        <ele>415.59707</ele>
        <time>2022-04-23T10:13:34.509Z</time>
      </trkpt>
      <trkpt lat="42.09671" lon="21.13347">
        <ele>415.507269</ele>
        <time>2022-04-23T10:13:36.500Z</time>
      </trkpt>
      <trkpt lat="42.0966" lon="21.13338">
        <ele>415.381704</ele>
        <time>2022-04-23T10:13:39.518Z</time>
      </trkpt>
      <trkpt lat="42.09649" lon="21.13331">
        <ele>415.261818</ele>
        <time>2022-04-23T10:13:42.511Z</time>
      </trkpt>
      <trkpt lat="42.0964" lon="21.13327">
        <ele>415.173625</ele>
        <time>2022-04-23T10:13:44.505Z</time>
      </trkpt>
      <trkpt lat="42.09628" lon="21.13324">
        <ele>415.049594</ele>
        <time>2022-04-23T10:13:47.530Z</time>
      </trkpt>
      <trkpt lat="42.09615" lon="21.13321">
        <ele>414.91938</ele>
        <time>2022-04-23T10:13:50.491Z</time>
      </trkpt>
      <trkpt lat="42.09602" lon="21.13319">
        <ele>414.79507</ele>
        <time>2022-04-23T10:13:53.517Z</time>
      </trkpt>
      <trkpt lat="42.09593" lon="21.13315">
        <ele>414.698555</ele>
        <time>2022-04-23T10:13:55.510Z</time>
      </trkpt>
      <trkpt lat="42.09582" lon="21.13308">
        <ele>414.698913</ele>
        <time>2022-04-23T10:13:57.499Z</time>
      </trkpt>
      <trkpt lat="42.0957" lon="21.13299">
        <ele>414.776482</ele>
        <time>2022-04-23T10:13:59.493Z</time>
      </trkpt>
      <trkpt lat="42.09554" lon="21.13293">
        <ele>414.865691</ele>
        <time>2022-04-23T10:14:01.521Z</time>
      </trkpt>
      <trkpt lat="42.09539" lon="21.13292">
        <ele>414.952191</ele>
        <time>2022-04-23T10:14:03.506Z</time>
      </trkpt>
      <trkpt lat="42.09524" lon="21.13294">
        <ele>415.038413</ele>
        <time>2022-04-23T10:14:05.541Z</time>
      </trkpt>
      <trkpt lat="42.09509" lon="21.13295">
        <ele>415.120612</ele>
        <time>2022-04-23T10:14:07.500Z</time>
      </trkpt>
      <trkpt lat="42.09496" lon="21.13295">
        <ele>415.19641</ele>
        <time>2022-04-23T10:14:09.527Z</time>
      </trkpt>
      <trkpt lat="42.09482" lon="21.13293">
        <ele>415.272066</ele>
        <time>2022-04-23T10:14:11.536Z</time>
      </trkpt>
      <trkpt lat="42.09468" lon="21.13292">
        <ele>415.350157</ele>
        <time>2022-04-23T10:14:13.499Z</time>
      </trkpt>
      <trkpt lat="42.09455" lon="21.13291">
        <ele>415.426078</ele>
        <time>2022-04-23T10:14:15.521Z</time>
      </trkpt>
      <trkpt lat="42.09442" lon="21.1329">
        <ele>415.500226</ele>
        <time>2022-04-23T10:14:17.504Z</time>
      </trkpt>
      <trkpt lat="42.09429" lon="21.13289">
        <ele>415.573235</ele>
        <time>2022-04-23T10:14:19.499Z</time>
      </trkpt>
      <trkpt lat="42.09418" lon="21.13289">
        <ele>415.634968</ele>
        <time>2022-04-23T10:14:21.518Z</time>
      </trkpt>
      <trkpt lat="42.09407" lon="21.13289">
        <ele>415.594422</ele>
        <time>2022-04-23T10:14:23.515Z</time>
      </trkpt>
      <trkpt lat="42.09397" lon="21.13289">
        <ele>415.434939</ele>
        <time>2022-04-23T10:14:25.499Z</time>
      </trkpt>
      <trkpt lat="42.09388" lon="21.13289">
        <ele>415.293643</ele>
        <time>2022-04-23T10:14:27.521Z</time>
      </trkpt>
      <trkpt lat="42.09378" lon="21.13289">
        <ele>415.146344</ele>
        <time>2022-04-23T10:14:29.505Z</time>
      </trkpt>
      <trkpt lat="42.09369" lon="21.13289">
        <ele>415.00662</ele>
        <time>2022-04-23T10:14:31.520Z</time>
      </trkpt>
      <trkpt lat="42.09357" lon="21.13291">
        <ele>414.825017</ele>
        <time>2022-04-23T10:14:34.533Z</time>
      </trkpt>
      <trkpt lat="42.09346" lon="21.13292">
        <ele>414.666891</ele>
        <time>2022-04-23T10:14:37.506Z</time>
      </trkpt>
      <trkpt lat="42.09336" lon="21.13292">
        <ele>414.504404</ele>
        <time>2022-04-23T10:14:40.507Z</time>
      </trkpt>
      <trkpt lat="42.09325" lon="21.13293">
        <ele>414.34741</ele>
        <time>2022-04-23T10:14:43.512Z</time>
      </trkpt>
      <trkpt lat="42.09315" lon="21.13296">
        <ele>414.189772</ele>
        <time>2022-04-23T10:14:46.495Z</time>
      </trkpt>
      <trkpt lat="42.09305" lon="21.13299">
        <ele>414.03316</ele>
        <time>2022-04-23T10:14:49.522Z</time>
      </trkpt>
      <trkpt lat="42.09296" lon="21.13304">
        <ele>413.877669</ele>
        <time>2022-04-23T10:14:52.507Z</time>
      </trkpt>
      <trkpt lat="42.09286" lon="21.13308">
        <ele>413.722954</ele>
        <time>2022-04-23T10:14:55.499Z</time>
      </trkpt>
      <trkpt lat="42.09276" lon="21.13312">
        <ele>413.56321</ele>
        <time>2022-04-23T10:14:58.515Z</time>
      </trkpt>
      <trkpt lat="42.09267" lon="21.13318">
        <ele>413.418655</ele>
        <time>2022-04-23T10:15:01.511Z</time>
      </trkpt>
      <trkpt lat="42.09258" lon="21.13325">
        <ele>413.252289</ele>
        <time>2022-04-23T10:15:04.507Z</time>
      </trkpt>
      <trkpt lat="42.09248" lon="21.1333">
        <ele>413.091343</ele>
        <time>2022-04-23T10:15:07.504Z</time>
      </trkpt>
      <trkpt lat="42.09237" lon="21.13336">
        <ele>412.978742</ele>
        <time>2022-04-23T10:15:10.505Z</time>
      </trkpt>
      <trkpt lat="42.09227" lon="21.13343">
        <ele>413.480753</ele>
        <time>2022-04-23T10:15:13.510Z</time>
      </trkpt>
      <trkpt lat="42.09217" lon="21.13349">
        <ele>413.983883</ele>
        <time>2022-04-23T10:15:16.544Z</time>
      </trkpt>
      <trkpt lat="42.09207" lon="21.13356">
        <ele>414.495431</ele>
        <time>2022-04-23T10:15:19.522Z</time>
      </trkpt>
      <trkpt lat="42.09198" lon="21.13361">
        <ele>414.947856</ele>
        <time>2022-04-23T10:15:22.500Z</time>
      </trkpt>
      <trkpt lat="42.0919" lon="21.13367">
        <ele>415.354642</ele>
        <time>2022-04-23T10:15:25.521Z</time>
      </trkpt>
      <trkpt lat="42.09181" lon="21.13375">
        <ele>415.833856</ele>
        <time>2022-04-23T10:15:29.513Z</time>
      </trkpt>
      <trkpt lat="42.0917" lon="21.1338">
        <ele>416.349329</ele>
        <time>2022-04-23T10:15:33.500Z</time>
      </trkpt>
      <trkpt lat="42.0916" lon="21.13384">
        <ele>416.830262</ele>
        <time>2022-04-23T10:15:38.546Z</time>
      </trkpt>
      <trkpt lat="42.0915" lon="21.13389">
        <ele>417.301831</ele>
        <time>2022-04-23T10:15:45.498Z</time>
      </trkpt>
      <trkpt lat="42.09141" lon="21.13393">
        <ele>417.717219</ele>
        <time>2022-04-23T10:15:50.490Z</time>
      </trkpt>
      <trkpt lat="42.09132" lon="21.13396">
        <ele>418.143508</ele>
        <time>2022-04-23T10:15:56.513Z</time>
      </trkpt>
      <trkpt lat="42.09122" lon="21.13397">
        <ele>418.590041</ele>
        <time>2022-04-23T10:16:04.501Z</time>
      </trkpt>
      <trkpt lat="42.09113" lon="21.13398">
        <ele>419.023136</ele>
        <time>2022-04-23T10:16:11.505Z</time>
      </trkpt>
      <trkpt lat="42.09103" lon="21.13399">
        <ele>419.464118</ele>
        <time>2022-04-23T10:16:20.513Z</time>
      </trkpt>
      <trkpt lat="42.09093" lon="21.134">
        <ele>419.883246</ele>
        <time>2022-04-23T10:16:28.498Z</time>
      </trkpt>
      <trkpt lat="42.09084" lon="21.134">
        <ele>420.324089</ele>
        <time>2022-04-23T10:16:36.510Z</time>
      </trkpt>
      <trkpt lat="42.09074" lon="21.13401">
        <ele>420.756669</ele>
        <time>2022-04-23T10:16:42.516Z</time>
      </trkpt>
      <trkpt lat="42.09065" lon="21.13402">
        <ele>421.15949</ele>
        <time>2022-04-23T10:16:49.521Z</time>
      </trkpt>
      <trkpt lat="42.09055" lon="21.13401">
        <ele>421.516221</ele>
        <time>2022-04-23T10:16:55.543Z</time>
      </trkpt>
      <trkpt lat="42.09046" lon="21.13397">
        <ele>421.86931</ele>
        <time>2022-04-23T10:17:02.535Z</time>
      </trkpt>
      <trkpt lat="42.09038" lon="21.13394">
        <ele>422.213624</ele>
        <time>2022-04-23T10:17:08.504Z</time>
      </trkpt>
      <trkpt lat="42.09028" lon="21.13391">
        <ele>422.587577</ele>
        <time>2022-04-23T10:17:13.517Z</time>
      </trkpt>
      <trkpt lat="42.09018" lon="21.13388">
        <ele>422.972937</ele>
        <time>2022-04-23T10:17:18.499Z</time>
      </trkpt>
      <trkpt lat="42.09009" lon="21.13384">
        <ele>423.341457</ele>
        <time>2022-04-23T10:17:23.504Z</time>
      </trkpt>
      <trkpt lat="42.08999" lon="21.1338">
        <ele>423.735965</ele>
        <time>2022-04-23T10:17:28.521Z</time>
      </trkpt>
      <trkpt lat="42.08988" lon="21.13376">
        <ele>424.150713</ele>
        <time>2022-04-23T10:17:33.485Z</time>
      </trkpt>
      <trkpt lat="42.0898" lon="21.13373">
        <ele>424.497913</ele>
        <time>2022-04-23T10:17:37.503Z</time>
      </trkpt>
      <trkpt lat="42.08971" lon="21.13369">
        <ele>424.846418</ele>
        <time>2022-04-23T10:17:41.495Z</time>
      </trkpt>
      <trkpt lat="42.08962" lon="21.13364">
        <ele>425.224363</ele>
        <time>2022-04-23T10:17:45.521Z</time>
      </trkpt>
      <trkpt lat="42.08953" lon="21.13359">
        <ele>425.590235</ele>
        <time>2022-04-23T10:17:49.503Z</time>
      </trkpt>
      <trkpt lat="42.08945" lon="21.13352">
        <ele>425.957475</ele>
        <time>2022-04-23T10:17:53.519Z</time>
      </trkpt>
      <trkpt lat="42.08936" lon="21.13345">
        <ele>426.319565</ele>
        <time>2022-04-23T10:17:57.521Z</time>
      </trkpt>
      <trkpt lat="42.08927" lon="21.13337">
        <ele>426.753134</ele>
        <time>2022-04-23T10:18:02.505Z</time>
      </trkpt>
      <trkpt lat="42.08919" lon="21.13328">
        <ele>427.157153</ele>
        <time>2022-04-23T10:18:06.504Z</time>
      </trkpt>
      <trkpt lat="42.08911" lon="21.1332">
        <ele>427.524926</ele>
        <time>2022-04-23T10:18:10.511Z</time>
      </trkpt>
      <trkpt lat="42.08903" lon="21.1331">
        <ele>427.852752</ele>
        <time>2022-04-23T10:18:14.495Z</time>
      </trkpt>
      <trkpt lat="42.08895" lon="21.133">
        <ele>427.831455</ele>
        <time>2022-04-23T10:18:18.523Z</time>
      </trkpt>
      <trkpt lat="42.08887" lon="21.13289">
        <ele>427.809408</ele>
        <time>2022-04-23T10:18:22.510Z</time>
      </trkpt>
      <trkpt lat="42.0888" lon="21.13279">
        <ele>427.791961</ele>
        <time>2022-04-23T10:18:25.515Z</time>
      </trkpt>
      <trkpt lat="42.08873" lon="21.1327">
        <ele>427.773169</ele>
        <time>2022-04-23T10:18:28.493Z</time>
      </trkpt>
      <trkpt lat="42.08865" lon="21.13259">
        <ele>427.752064</ele>
        <time>2022-04-23T10:18:31.521Z</time>
      </trkpt>
      <trkpt lat="42.08857" lon="21.13246">
        <ele>427.727857</ele>
        <time>2022-04-23T10:18:34.514Z</time>
      </trkpt>
      <trkpt lat="42.0885" lon="21.13235">
        <ele>427.707642</ele>
        <time>2022-04-23T10:18:36.510Z</time>
      </trkpt>
      <trkpt lat="42.08841" lon="21.13222">
        <ele>427.68322</ele>
        <time>2022-04-23T10:18:38.516Z</time>
      </trkpt>
      <trkpt lat="42.08831" lon="21.13206">
        <ele>427.65445</ele>
        <time>2022-04-23T10:18:40.501Z</time>
      </trkpt>
      <trkpt lat="42.08821" lon="21.13188">
        <ele>427.623446</ele>
        <time>2022-04-23T10:18:42.507Z</time>
      </trkpt>
      <trkpt lat="42.08812" lon="21.13169">
        <ele>427.591693</ele>
        <time>2022-04-23T10:18:44.500Z</time>
      </trkpt>
      <trkpt lat="42.08805" lon="21.13148">
        <ele>427.5585</ele>
        <time>2022-04-23T10:18:46.505Z</time>
      </trkpt>
      <trkpt lat="42.08802" lon="21.13136">
        <ele>427.541531</ele>
        <time>2022-04-23T10:18:47.544Z</time>
      </trkpt>
      <trkpt lat="42.088" lon="21.13124">
        <ele>427.524156</ele>
        <time>2022-04-23T10:18:48.504Z</time>
      </trkpt>
      <trkpt lat="42.08799" lon="21.131">
        <ele>427.363598</ele>
        <time>2022-04-23T10:18:50.511Z</time>
      </trkpt>
      <trkpt lat="42.088" lon="21.13076">
        <ele>427.166552</ele>
        <time>2022-04-23T10:18:52.517Z</time>
      </trkpt>
      <trkpt lat="42.08799" lon="21.13053">
        <ele>426.981516</ele>
        <time>2022-04-23T10:18:54.506Z</time>
      </trkpt>
      <trkpt lat="42.08799" lon="21.13032">
        <ele>426.815662</ele>
        <time>2022-04-23T10:18:56.509Z</time>
      </trkpt>
      <trkpt lat="42.08797" lon="21.13013">
        <ele>426.66037</ele>
        <time>2022-04-23T10:18:58.500Z</time>
      </trkpt>
      <trkpt lat="42.08794" lon="21.12996">
        <ele>426.522336</ele>
        <time>2022-04-23T10:19:00.505Z</time>
      </trkpt>
      <trkpt lat="42.0879" lon="21.12982">
        <ele>426.402207</ele>
        <time>2022-04-23T10:19:02.512Z</time>
      </trkpt>
      <trkpt lat="42.08787" lon="21.12969">
        <ele>426.294575</ele>
        <time>2022-04-23T10:19:04.529Z</time>
      </trkpt>
      <trkpt lat="42.08785" lon="21.12957">
        <ele>426.196596</ele>
        <time>2022-04-23T10:19:06.553Z</time>
      </trkpt>
      <trkpt lat="42.08782" lon="21.12944">
        <ele>426.089037</ele>
        <time>2022-04-23T10:19:09.500Z</time>
      </trkpt>
      <trkpt lat="42.08779" lon="21.12933">
        <ele>425.989151</ele>
        <time>2022-04-23T10:19:12.496Z</time>
      </trkpt>
      <trkpt lat="42.08775" lon="21.12919">
        <ele>425.867272</ele>
        <time>2022-04-23T10:19:16.551Z</time>
      </trkpt>
      <trkpt lat="42.0877" lon="21.12905">
        <ele>425.743316</ele>
        <time>2022-04-23T10:19:20.490Z</time>
      </trkpt>
      <trkpt lat="42.08765" lon="21.12892">
        <ele>425.6311</ele>
        <time>2022-04-23T10:19:24.522Z</time>
      </trkpt>
      <trkpt lat="42.08761" lon="21.12879">
        <ele>425.513769</ele>
        <time>2022-04-23T10:19:28.505Z</time>
      </trkpt>
      <trkpt lat="42.08755" lon="21.12867">
        <ele>425.401259</ele>
        <time>2022-04-23T10:19:32.500Z</time>
      </trkpt>
      <trkpt lat="42.08748" lon="21.12856">
        <ele>425.288479</ele>
        <time>2022-04-23T10:19:37.511Z</time>
      </trkpt>
      <trkpt lat="42.08742" lon="21.12845">
        <ele>425.182139</ele>
        <time>2022-04-23T10:19:42.533Z</time>
      </trkpt>
      <trkpt lat="42.08734" lon="21.12835">
        <ele>425.063685</ele>
        <time>2022-04-23T10:19:47.520Z</time>
      </trkpt>
      <trkpt lat="42.08728" lon="21.12826">
        <ele>424.965035</ele>
        <time>2022-04-23T10:19:51.508Z</time>
      </trkpt>
      <trkpt lat="42.08721" lon="21.12817">
        <ele>424.861175</ele>
        <time>2022-04-23T10:19:55.542Z</time>
      </trkpt>
      <trkpt lat="42.08714" lon="21.12807">
        <ele>424.752174</ele>
        <time>2022-04-23T10:19:59.511Z</time>
      </trkpt>
      <trkpt lat="42.08706" lon="21.12796">
        <ele>424.629359</ele>
        <time>2022-04-23T10:20:03.504Z</time>
      </trkpt>
      <trkpt lat="42.08697" lon="21.12784">
        <ele>424.498557</ele>
        <time>2022-04-23T10:20:07.513Z</time>
      </trkpt>
      <trkpt lat="42.08691" lon="21.12774">
        <ele>424.395036</ele>
        <time>2022-04-23T10:20:10.510Z</time>
      </trkpt>
      <trkpt lat="42.08684" lon="21.12765">
        <ele>424.295908</ele>
        <time>2022-04-23T10:20:13.508Z</time>
      </trkpt>
      <trkpt lat="42.08678" lon="21.12754">
        <ele>424.185732</ele>
        <time>2022-04-23T10:20:16.507Z</time>
      </trkpt>
      <trkpt lat="42.0867" lon="21.12742">
        <ele>424.053189</ele>
        <time>2022-04-23T10:20:19.502Z</time>
      </trkpt>
      <trkpt lat="42.08664" lon="21.12732">
        <ele>423.955703</ele>
        <time>2022-04-23T10:20:21.510Z</time>
      </trkpt>
      <trkpt lat="42.08657" lon="21.12722">
        <ele>423.845988</ele>
        <time>2022-04-23T10:20:23.552Z</time>
      </trkpt>
      <trkpt lat="42.0865" lon="21.1271">
        <ele>423.727979</ele>
        <time>2022-04-23T10:20:25.514Z</time>
      </trkpt>
      <trkpt lat="42.08643" lon="21.12698">
        <ele>423.580125</ele>
        <time>2022-04-23T10:20:27.523Z</time>
      </trkpt>
      <trkpt lat="42.08635" lon="21.12685">
        <ele>423.379403</ele>
        <time>2022-04-23T10:20:29.545Z</time>
      </trkpt>
      <trkpt lat="42.08626" lon="21.12671">
        <ele>423.158571</ele>
        <time>2022-04-23T10:20:31.521Z</time>
      </trkpt>
      <trkpt lat="42.08617" lon="21.12656">
        <ele>422.943194</ele>
        <time>2022-04-23T10:20:33.496Z</time>
      </trkpt>
      <trkpt lat="42.08609" lon="21.12641">
        <ele>422.720289</ele>
        <time>2022-04-23T10:20:35.505Z</time>
      </trkpt>
      <trkpt lat="42.086" lon="21.12626">
        <ele>422.496356</ele>
        <time>2022-04-23T10:20:37.530Z</time>
      </trkpt>
      <trkpt lat="42.0859" lon="21.12611">
        <ele>422.263159</ele>
        <time>2022-04-23T10:20:39.514Z</time>
      </trkpt>
      <trkpt lat="42.08579" lon="21.12596">
        <ele>422.020557</ele>
        <time>2022-04-23T10:20:41.498Z</time>
      </trkpt>
      <trkpt lat="42.08569" lon="21.12581">
        <ele>421.780968</ele>
        <time>2022-04-23T10:20:43.502Z</time>
      </trkpt>
      <trkpt lat="42.08559" lon="21.12567">
        <ele>421.562922</ele>
        <time>2022-04-23T10:20:45.486Z</time>
      </trkpt>
      <trkpt lat="42.08551" lon="21.12554">
        <ele>421.367661</ele>
        <time>2022-04-23T10:20:47.502Z</time>
      </trkpt>
      <trkpt lat="42.08544" lon="21.12543">
        <ele>421.196921</ele>
        <time>2022-04-23T10:20:49.511Z</time>
      </trkpt>
      <trkpt lat="42.08537" lon="21.12533">
        <ele>421.028662</ele>
        <time>2022-04-23T10:20:51.514Z</time>
      </trkpt>
      <trkpt lat="42.08529" lon="21.12522">
        <ele>420.852759</ele>
        <time>2022-04-23T10:20:53.503Z</time>
      </trkpt>
      <trkpt lat="42.08521" lon="21.12511">
        <ele>420.887859</ele>
        <time>2022-04-23T10:20:55.512Z</time>
      </trkpt>
      <trkpt lat="42.08513" lon="21.12502">
        <ele>420.946725</ele>
        <time>2022-04-23T10:20:57.520Z</time>
      </trkpt>
      <trkpt lat="42.08504" lon="21.12494">
        <ele>421.007261</ele>
        <time>2022-04-23T10:20:59.504Z</time>
      </trkpt>
      <trkpt lat="42.08494" lon="21.12488">
        <ele>421.070292</ele>
        <time>2022-04-23T10:21:01.521Z</time>
      </trkpt>
      <trkpt lat="42.08485" lon="21.12483">
        <ele>421.125938</ele>
        <time>2022-04-23T10:21:03.519Z</time>
      </trkpt>
      <trkpt lat="42.08472" lon="21.12479">
        <ele>421.198243</ele>
        <time>2022-04-23T10:21:06.510Z</time>
      </trkpt>
      <trkpt lat="42.08464" lon="21.12475">
        <ele>421.249508</ele>
        <time>2022-04-23T10:21:08.501Z</time>
      </trkpt>
      <trkpt lat="42.08454" lon="21.12471">
        <ele>421.305339</ele>
        <time>2022-04-23T10:21:10.510Z</time>
      </trkpt>
      <trkpt lat="42.08445" lon="21.12466">
        <ele>421.359998</ele>
        <time>2022-04-23T10:21:12.505Z</time>
      </trkpt>
      <trkpt lat="42.08434" lon="21.12461">
        <ele>421.429044</ele>
        <time>2022-04-23T10:21:15.516Z</time>
      </trkpt>
      <trkpt lat="42.08423" lon="21.12454">
        <ele>421.495351</ele>
        <time>2022-04-23T10:21:18.534Z</time>
      </trkpt>
      <trkpt lat="42.08412" lon="21.12449">
        <ele>421.563718</ele>
        <time>2022-04-23T10:21:21.502Z</time>
      </trkpt>
      <trkpt lat="42.08401" lon="21.12443">
        <ele>421.632466</ele>
        <time>2022-04-23T10:21:24.518Z</time>
      </trkpt>
      <trkpt lat="42.08388" lon="21.12438">
        <ele>421.705651</ele>
        <time>2022-04-23T10:21:27.524Z</time>
      </trkpt>
      <trkpt lat="42.08376" lon="21.12433">
        <ele>421.77952</ele>
        <time>2022-04-23T10:21:30.505Z</time>
      </trkpt>
      <trkpt lat="42.08365" lon="21.12428">
        <ele>421.847638</ele>
        <time>2022-04-23T10:21:33.511Z</time>
      </trkpt>
      <trkpt lat="42.08353" lon="21.12424">
        <ele>422.00511</ele>
        <time>2022-04-23T10:21:36.513Z</time>
      </trkpt>
      <trkpt lat="42.08343" lon="21.12422">
        <ele>422.130501</ele>
        <time>2022-04-23T10:21:38.516Z</time>
      </trkpt>
      <trkpt lat="42.08335" lon="21.12418">
        <ele>422.248539</ele>
        <time>2022-04-23T10:21:40.554Z</time>
      </trkpt>
      <trkpt lat="42.08323" lon="21.1241">
        <ele>422.419574</ele>
        <time>2022-04-23T10:21:43.494Z</time>
      </trkpt>
      <trkpt lat="42.08312" lon="21.12402">
        <ele>422.58797</ele>
        <time>2022-04-23T10:21:46.543Z</time>
      </trkpt>
      <trkpt lat="42.083" lon="21.12393">
        <ele>422.76362</ele>
        <time>2022-04-23T10:21:49.533Z</time>
      </trkpt>
      <trkpt lat="42.08289" lon="21.12383">
        <ele>422.937536</ele>
        <time>2022-04-23T10:21:52.510Z</time>
      </trkpt>
      <trkpt lat="42.08278" lon="21.12373">
        <ele>423.120106</ele>
        <time>2022-04-23T10:21:55.500Z</time>
      </trkpt>
      <trkpt lat="42.08269" lon="21.12366">
        <ele>423.248006</ele>
        <time>2022-04-23T10:21:57.536Z</time>
      </trkpt>
      <trkpt lat="42.0826" lon="21.12354">
        <ele>423.420309</ele>
        <time>2022-04-23T10:22:00.506Z</time>
      </trkpt>
      <trkpt lat="42.08253" lon="21.12341">
        <ele>423.579779</ele>
        <time>2022-04-23T10:22:03.540Z</time>
      </trkpt>
      <trkpt lat="42.08248" lon="21.12328">
        <ele>423.72338</ele>
        <time>2022-04-23T10:22:06.514Z</time>
      </trkpt>
      <trkpt lat="42.0824" lon="21.12315">
        <ele>423.878163</ele>
        <time>2022-04-23T10:22:09.486Z</time>
      </trkpt>
      <trkpt lat="42.08235" lon="21.12304">
        <ele>424.013366</ele>
        <time>2022-04-23T10:22:12.515Z</time>
      </trkpt>
      <trkpt lat="42.08229" lon="21.12292">
        <ele>424.152736</ele>
        <time>2022-04-23T10:22:16.500Z</time>
      </trkpt>
      <trkpt lat="42.08223" lon="21.1228">
        <ele>424.4529</ele>
        <time>2022-04-23T10:22:21.510Z</time>
      </trkpt>
      <trkpt lat="42.08216" lon="21.12269">
        <ele>424.899794</ele>
        <time>2022-04-23T10:22:27.523Z</time>
      </trkpt>
      <trkpt lat="42.0821" lon="21.12258">
        <ele>425.32403</ele>
        <time>2022-04-23T10:22:33.513Z</time>
      </trkpt>
      <trkpt lat="42.08205" lon="21.12248">
        <ele>425.718117</ele>
        <time>2022-04-23T10:22:40.512Z</time>
      </trkpt>
      <trkpt lat="42.08199" lon="21.12238">
        <ele>426.115234</ele>
        <time>2022-04-23T10:22:46.543Z</time>
      </trkpt>
      <trkpt lat="42.08193" lon="21.12228">
        <ele>426.516896</ele>
        <time>2022-04-23T10:22:52.508Z</time>
      </trkpt>
      <trkpt lat="42.08189" lon="21.12217">
        <ele>426.909148</ele>
        <time>2022-04-23T10:22:58.511Z</time>
      </trkpt>
      <trkpt lat="42.08185" lon="21.12205">
        <ele>427.312925</ele>
        <time>2022-04-23T10:23:04.508Z</time>
      </trkpt>
      <trkpt lat="42.08181" lon="21.12193">
        <ele>427.733313</ele>
        <time>2022-04-23T10:23:10.521Z</time>
      </trkpt>
      <trkpt lat="42.08179" lon="21.1218">
        <ele>428.129125</ele>
        <time>2022-04-23T10:23:16.488Z</time>
      </trkpt>
      <trkpt lat="42.08178" lon="21.12168">
        <ele>428.525234</ele>
        <time>2022-04-23T10:23:22.535Z</time>
      </trkpt>
      <trkpt lat="42.08177" lon="21.12153">
        <ele>428.97039</ele>
        <time>2022-04-23T10:23:29.521Z</time>
      </trkpt>
      <trkpt lat="42.08177" lon="21.12139">
        <ele>429.408097</ele>
        <time>2022-04-23T10:23:36.493Z</time>
      </trkpt>
      <trkpt lat="42.08174" lon="21.12128">
        <ele>429.792086</ele>
        <time>2022-04-23T10:23:41.491Z</time>
      </trkpt>
      <trkpt lat="42.0817" lon="21.12114">
        <ele>430.24487</ele>
        <time>2022-04-23T10:23:47.501Z</time>
      </trkpt>
      <trkpt lat="42.08164" lon="21.12102">
        <ele>430.706742</ele>
        <time>2022-04-23T10:23:53.496Z</time>
      </trkpt>
      <trkpt lat="42.08156" lon="21.12095">
        <ele>431.093017</ele>
        <time>2022-04-23T10:23:57.524Z</time>
      </trkpt>
      <trkpt lat="42.08149" lon="21.12086">
        <ele>431.523509</ele>
        <time>2022-04-23T10:24:01.509Z</time>
      </trkpt>
      <trkpt lat="42.08142" lon="21.12076">
        <ele>431.81926</ele>
        <time>2022-04-23T10:24:05.526Z</time>
      </trkpt>
      <trkpt lat="42.08134" lon="21.12066">
        <ele>431.887101</ele>
        <time>2022-04-23T10:24:09.491Z</time>
      </trkpt>
      <trkpt lat="42.08125" lon="21.12055">
        <ele>431.964616</ele>
        <time>2022-04-23T10:24:13.495Z</time>
      </trkpt>
      <trkpt lat="42.08118" lon="21.12047">
        <ele>432.026185</ele>
        <time>2022-04-23T10:24:16.515Z</time>
      </trkpt>
      <trkpt lat="42.08111" lon="21.12038">
        <ele>432.086414</ele>
        <time>2022-04-23T10:24:19.497Z</time>
      </trkpt>
      <trkpt lat="42.08104" lon="21.12028">
        <ele>432.1509</ele>
        <time>2022-04-23T10:24:22.517Z</time>
      </trkpt>
      <trkpt lat="42.08096" lon="21.12018">
        <ele>432.219313</ele>
        <time>2022-04-23T10:24:25.516Z</time>
      </trkpt>
      <trkpt lat="42.08088" lon="21.12008">
        <ele>432.288469</ele>
        <time>2022-04-23T10:24:28.534Z</time>
      </trkpt>
      <trkpt lat="42.08081" lon="21.11999">
        <ele>432.353039</ele>
        <time>2022-04-23T10:24:31.487Z</time>
      </trkpt>
      <trkpt lat="42.08073" lon="21.11989">
        <ele>432.420336</ele>
        <time>2022-04-23T10:24:34.502Z</time>
      </trkpt>
      <trkpt lat="42.08066" lon="21.1198">
        <ele>432.483588</ele>
        <time>2022-04-23T10:24:37.534Z</time>
      </trkpt>
      <trkpt lat="42.08059" lon="21.1197">
        <ele>432.546957</ele>
        <time>2022-04-23T10:24:40.517Z</time>
      </trkpt>
      <trkpt lat="42.08052" lon="21.11961">
        <ele>432.609483</ele>
        <time>2022-04-23T10:24:43.494Z</time>
      </trkpt>
      <trkpt lat="42.08045" lon="21.11952">
        <ele>432.670263</ele>
        <time>2022-04-23T10:24:46.514Z</time>
      </trkpt>
      <trkpt lat="42.08038" lon="21.11943">
        <ele>432.734058</ele>
        <time>2022-04-23T10:24:49.522Z</time>
      </trkpt>
      <trkpt lat="42.0803" lon="21.11934">
        <ele>432.797839</ele>
        <time>2022-04-23T10:24:52.494Z</time>
      </trkpt>
      <trkpt lat="42.08023" lon="21.11925">
        <ele>432.860536</ele>
        <time>2022-04-23T10:24:55.485Z</time>
      </trkpt>
      <trkpt lat="42.08016" lon="21.11917">
        <ele>432.918949</ele>
        <time>2022-04-23T10:24:58.496Z</time>
      </trkpt>
      <trkpt lat="42.08009" lon="21.11909">
        <ele>432.947449</ele>
        <time>2022-04-23T10:25:01.496Z</time>
      </trkpt>
      <trkpt lat="42.08002" lon="21.11901">
        <ele>432.956214</ele>
        <time>2022-04-23T10:25:04.526Z</time>
      </trkpt>
      <trkpt lat="42.07994" lon="21.11892">
        <ele>432.964682</ele>
        <time>2022-04-23T10:25:07.507Z</time>
      </trkpt>
      <trkpt lat="42.07987" lon="21.11884">
        <ele>432.973533</ele>
        <time>2022-04-23T10:25:10.527Z</time>
      </trkpt>
      <trkpt lat="42.0798" lon="21.11876">
        <ele>432.982045</ele>
        <time>2022-04-23T10:25:13.514Z</time>
      </trkpt>
      <trkpt lat="42.07973" lon="21.11868">
        <ele>432.990723</ele>
        <time>2022-04-23T10:25:16.570Z</time>
      </trkpt>
      <trkpt lat="42.07964" lon="21.1186">
        <ele>432.999971</ele>
        <time>2022-04-23T10:25:19.513Z</time>
      </trkpt>
      <trkpt lat="42.07955" lon="21.11854">
        <ele>433.009246</ele>
        <time>2022-04-23T10:25:22.499Z</time>
      </trkpt>
      <trkpt lat="42.07946" lon="21.1185">
        <ele>433.018198</ele>
        <time>2022-04-23T10:25:25.505Z</time>
      </trkpt>
      <trkpt lat="42.07934" lon="21.11846">
        <ele>433.028833</ele>
        <time>2022-04-23T10:25:28.526Z</time>
      </trkpt>
      <trkpt lat="42.07923" lon="21.11842">
        <ele>433.039699</ele>
        <time>2022-04-23T10:25:31.502Z</time>
      </trkpt>
      <trkpt lat="42.07912" lon="21.11839">
        <ele>433.050091</ele>
        <time>2022-04-23T10:25:34.501Z</time>
      </trkpt>
      <trkpt lat="42.079" lon="21.11835">
        <ele>433.060468</ele>
        <time>2022-04-23T10:25:37.536Z</time>
      </trkpt>
      <trkpt lat="42.0789" lon="21.11832">
        <ele>433.07049</ele>
        <time>2022-04-23T10:25:40.525Z</time>
      </trkpt>
      <trkpt lat="42.07878" lon="21.11828">
        <ele>433.081341</ele>
        <time>2022-04-23T10:25:43.500Z</time>
      </trkpt>
      <trkpt lat="42.07869" lon="21.11825">
        <ele>433.08955</ele>
        <time>2022-04-23T10:25:45.505Z</time>
      </trkpt>
      <trkpt lat="42.07857" lon="21.1182">
        <ele>433.101662</ele>
        <time>2022-04-23T10:25:48.531Z</time>
      </trkpt>
      <trkpt lat="42.07844" lon="21.11815">
        <ele>433.21979</ele>
        <time>2022-04-23T10:25:51.499Z</time>
      </trkpt>
      <trkpt lat="42.07835" lon="21.11813">
        <ele>433.348319</ele>
        <time>2022-04-23T10:25:53.522Z</time>
      </trkpt>
      <trkpt lat="42.07825" lon="21.1181">
        <ele>433.478405</ele>
        <time>2022-04-23T10:25:55.504Z</time>
      </trkpt>
      <trkpt lat="42.07816" lon="21.11807">
        <ele>433.604947</ele>
        <time>2022-04-23T10:25:57.520Z</time>
      </trkpt>
      <trkpt lat="42.07807" lon="21.11804">
        <ele>433.735904</ele>
        <time>2022-04-23T10:25:59.499Z</time>
      </trkpt>
      <trkpt lat="42.07798" lon="21.11801">
        <ele>433.864667</ele>
        <time>2022-04-23T10:26:01.504Z</time>
      </trkpt>
      <trkpt lat="42.07785" lon="21.11798">
        <ele>434.04462</ele>
        <time>2022-04-23T10:26:04.542Z</time>
      </trkpt>
      <trkpt lat="42.07774" lon="21.11793">
        <ele>434.191593</ele>
        <time>2022-04-23T10:26:07.526Z</time>
      </trkpt>
      <trkpt lat="42.07765" lon="21.11789">
        <ele>434.33004</ele>
        <time>2022-04-23T10:26:10.553Z</time>
      </trkpt>
      <trkpt lat="42.07755" lon="21.11786">
        <ele>434.469626</ele>
        <time>2022-04-23T10:26:13.509Z</time>
      </trkpt>
      <trkpt lat="42.07745" lon="21.11782">
        <ele>434.60762</ele>
        <time>2022-04-23T10:26:16.515Z</time>
      </trkpt>
      <trkpt lat="42.07735" lon="21.11778">
        <ele>434.753939</ele>
        <time>2022-04-23T10:26:19.505Z</time>
      </trkpt>
      <trkpt lat="42.07726" lon="21.11774">
        <ele>434.877166</ele>
        <time>2022-04-23T10:26:22.545Z</time>
      </trkpt>
      <trkpt lat="42.07716" lon="21.11772">
        <ele>435.017103</ele>
        <time>2022-04-23T10:26:25.519Z</time>
      </trkpt>
      <trkpt lat="42.07706" lon="21.11771">
        <ele>435.157656</ele>
        <time>2022-04-23T10:26:28.513Z</time>
      </trkpt>
      <trkpt lat="42.07695" lon="21.11771">
        <ele>435.299161</ele>
        <time>2022-04-23T10:26:31.516Z</time>
      </trkpt>
      <trkpt lat="42.07685" lon="21.11773">
        <ele>435.433448</ele>
        <time>2022-04-23T10:26:34.518Z</time>
      </trkpt>
      <trkpt lat="42.07676" lon="21.11774">
        <ele>435.555339</ele>
        <time>2022-04-23T10:26:37.508Z</time>
      </trkpt>
      <trkpt lat="42.07665" lon="21.11775">
        <ele>435.587339</ele>
        <time>2022-04-23T10:26:41.497Z</time>
      </trkpt>
      <trkpt lat="42.07654" lon="21.11775">
        <ele>435.617019</ele>
        <time>2022-04-23T10:26:45.504Z</time>
      </trkpt>
      <trkpt lat="42.07643" lon="21.11776">
        <ele>435.649965</ele>
        <time>2022-04-23T10:26:49.499Z</time>
      </trkpt>
      <trkpt lat="42.07632" lon="21.11777">
        <ele>435.682827</ele>
        <time>2022-04-23T10:26:53.510Z</time>
      </trkpt>
      <trkpt lat="42.0762" lon="21.11779">
        <ele>435.716653</ele>
        <time>2022-04-23T10:26:57.517Z</time>
      </trkpt>
      <trkpt lat="42.0761" lon="21.11781">
        <ele>435.74477</ele>
        <time>2022-04-23T10:27:00.517Z</time>
      </trkpt>
      <trkpt lat="42.076" lon="21.11785">
        <ele>435.774472</ele>
        <time>2022-04-23T10:27:03.516Z</time>
      </trkpt>
      <trkpt lat="42.0759" lon="21.11786">
        <ele>435.805609</ele>
        <time>2022-04-23T10:27:06.522Z</time>
      </trkpt>
      <trkpt lat="42.07579" lon="21.11787">
        <ele>435.835955</ele>
        <time>2022-04-23T10:27:09.509Z</time>
      </trkpt>
      <trkpt lat="42.07567" lon="21.11789">
        <ele>435.869659</ele>
        <time>2022-04-23T10:27:12.511Z</time>
      </trkpt>
      <trkpt lat="42.07556" lon="21.11791">
        <ele>435.903171</ele>
        <time>2022-04-23T10:27:15.523Z</time>
      </trkpt>
      <trkpt lat="42.07543" lon="21.11794">
        <ele>435.940055</ele>
        <time>2022-04-23T10:27:18.490Z</time>
      </trkpt>
      <trkpt lat="42.07534" lon="21.11796">
        <ele>435.966483</ele>
        <time>2022-04-23T10:27:20.506Z</time>
      </trkpt>
      <trkpt lat="42.07525" lon="21.11798">
        <ele>435.992625</ele>
        <time>2022-04-23T10:27:22.520Z</time>
      </trkpt>
      <trkpt lat="42.07512" lon="21.11802">
        <ele>436.031835</ele>
        <time>2022-04-23T10:27:25.550Z</time>
      </trkpt>
      <trkpt lat="42.07501" lon="21.11806">
        <ele>436.06459</ele>
        <time>2022-04-23T10:27:27.528Z</time>
      </trkpt>
      <trkpt lat="42.07489" lon="21.1181">
        <ele>436.103387</ele>
        <time>2022-04-23T10:27:29.520Z</time>
      </trkpt>
      <trkpt lat="42.07476" lon="21.11814">
        <ele>436.143268</ele>
        <time>2022-04-23T10:27:31.516Z</time>
      </trkpt>
      <trkpt lat="42.07463" lon="21.11817">
        <ele>436.18299</ele>
        <time>2022-04-23T10:27:33.516Z</time>
      </trkpt>
      <trkpt lat="42.07451" lon="21.11821">
        <ele>436.222272</ele>
        <time>2022-04-23T10:27:35.516Z</time>
      </trkpt>
      <trkpt lat="42.0744" lon="21.11826">
        <ele>436.257894</ele>
        <time>2022-04-23T10:27:37.516Z</time>
      </trkpt>
      <trkpt lat="42.0743" lon="21.1183">
        <ele>436.288851</ele>
        <time>2022-04-23T10:27:39.512Z</time>
      </trkpt>
      <trkpt lat="42.07418" lon="21.11834">
        <ele>436.327351</ele>
        <time>2022-04-23T10:27:42.522Z</time>
      </trkpt>
      <trkpt lat="42.07409" lon="21.11838">
        <ele>436.356621</ele>
        <time>2022-04-23T10:27:45.518Z</time>
      </trkpt>
      <trkpt lat="42.074" lon="21.11842">
        <ele>436.386403</ele>
        <time>2022-04-23T10:27:49.505Z</time>
      </trkpt>
      <trkpt lat="42.07391" lon="21.11849">
        <ele>436.417592</ele>
        <time>2022-04-23T10:27:53.539Z</time>
      </trkpt>
      <trkpt lat="42.07385" lon="21.11859">
        <ele>436.446076</ele>
        <time>2022-04-23T10:27:58.513Z</time>
      </trkpt>
      <trkpt lat="42.07392" lon="21.1185">
        <ele>436.474586</ele>
        <time>2022-04-23T10:28:04.537Z</time>
      </trkpt>
      <trkpt lat="42.0739" lon="21.11838">
        <ele>436.503371</ele>
        <time>2022-04-23T10:28:07.491Z</time>
      </trkpt>
      <trkpt lat="42.07387" lon="21.11823">
        <ele>436.537834</ele>
        <time>2022-04-23T10:28:11.548Z</time>
      </trkpt>
      <trkpt lat="42.07384" lon="21.11808">
        <ele>436.573797</ele>
        <time>2022-04-23T10:28:15.516Z</time>
      </trkpt>
      <trkpt lat="42.0738" lon="21.11796">
        <ele>436.604475</ele>
        <time>2022-04-23T10:28:19.593Z</time>
      </trkpt>
      <trkpt lat="42.07375" lon="21.11785">
        <ele>436.684288</ele>
        <time>2022-04-23T10:28:23.486Z</time>
      </trkpt>
      <trkpt lat="42.07368" lon="21.11775">
        <ele>436.912051</ele>
        <time>2022-04-23T10:28:28.627Z</time>
      </trkpt>
      <trkpt lat="42.0736" lon="21.11767">
        <ele>437.147898</ele>
        <time>2022-04-23T10:28:33.514Z</time>
      </trkpt>
      <trkpt lat="42.07368" lon="21.11785">
        <ele>437.500796</ele>
        <time>2022-04-23T10:36:44.507Z</time>
      </trkpt>
      <trkpt lat="42.07375" lon="21.11794">
        <ele>437.708492</ele>
        <time>2022-04-23T10:36:47.490Z</time>
      </trkpt>
      <trkpt lat="42.0738" lon="21.11804">
        <ele>437.925925</ele>
        <time>2022-04-23T10:36:50.495Z</time>
      </trkpt>
      <trkpt lat="42.07384" lon="21.11815">
        <ele>438.130859</ele>
        <time>2022-04-23T10:36:53.610Z</time>
      </trkpt>
      <trkpt lat="42.07383" lon="21.11827">
        <ele>438.335571</ele>
        <time>2022-04-23T10:36:56.513Z</time>
      </trkpt>
      <trkpt lat="42.07382" lon="21.1184">
        <ele>438.539644</ele>
        <time>2022-04-23T10:36:59.493Z</time>
      </trkpt>
      <trkpt lat="42.07381" lon="21.11853">
        <ele>438.758654</ele>
        <time>2022-04-23T10:37:02.508Z</time>
      </trkpt>
      <trkpt lat="42.07381" lon="21.11866">
        <ele>438.989024</ele>
        <time>2022-04-23T10:37:05.518Z</time>
      </trkpt>
      <trkpt lat="42.07381" lon="21.11881">
        <ele>439.232845</ele>
        <time>2022-04-23T10:37:08.567Z</time>
      </trkpt>
      <trkpt lat="42.0738" lon="21.11893">
        <ele>439.443109</ele>
        <time>2022-04-23T10:37:11.512Z</time>
      </trkpt>
      <trkpt lat="42.07378" lon="21.11907">
        <ele>439.686568</ele>
        <time>2022-04-23T10:37:15.541Z</time>
      </trkpt>
      <trkpt lat="42.07377" lon="21.1192">
        <ele>439.905731</ele>
        <time>2022-04-23T10:37:18.500Z</time>
      </trkpt>
      <trkpt lat="42.07379" lon="21.11934">
        <ele>440.146691</ele>
        <time>2022-04-23T10:37:21.498Z</time>
      </trkpt>
      <trkpt lat="42.0738" lon="21.11948">
        <ele>440.373141</ele>
        <time>2022-04-23T10:37:24.514Z</time>
      </trkpt>
      <trkpt lat="42.0738" lon="21.11961">
        <ele>440.602368</ele>
        <time>2022-04-23T10:37:27.514Z</time>
      </trkpt>
      <trkpt lat="42.07379" lon="21.11976">
        <ele>440.726197</ele>
        <time>2022-04-23T10:37:30.524Z</time>
      </trkpt>
      <trkpt lat="42.07377" lon="21.1199">
        <ele>440.769598</ele>
        <time>2022-04-23T10:37:33.556Z</time>
      </trkpt>
      <trkpt lat="42.07374" lon="21.12005">
        <ele>440.818616</ele>
        <time>2022-04-23T10:37:36.496Z</time>
      </trkpt>
      <trkpt lat="42.07372" lon="21.1202">
        <ele>440.867228</ele>
        <time>2022-04-23T10:37:39.519Z</time>
      </trkpt>
      <trkpt lat="42.0737" lon="21.12034">
        <ele>440.912818</ele>
        <time>2022-04-23T10:37:42.514Z</time>
      </trkpt>
      <trkpt lat="42.0737" lon="21.12048">
        <ele>440.956122</ele>
        <time>2022-04-23T10:37:45.503Z</time>
      </trkpt>
      <trkpt lat="42.07371" lon="21.12063">
        <ele>441.003021</ele>
        <time>2022-04-23T10:37:48.506Z</time>
      </trkpt>
      <trkpt lat="42.07367" lon="21.12077">
        <ele>441.047997</ele>
        <time>2022-04-23T10:37:51.510Z</time>
      </trkpt>
      <trkpt lat="42.07358" lon="21.12082">
        <ele>441.090785</ele>
        <time>2022-04-23T10:37:54.510Z</time>
      </trkpt>
      <trkpt lat="42.07349" lon="21.12084">
        <ele>441.129104</ele>
        <time>2022-04-23T10:37:57.513Z</time>
      </trkpt>
      <trkpt lat="42.07338" lon="21.12088">
        <ele>441.176262</ele>
        <time>2022-04-23T10:38:01.482Z</time>
      </trkpt>
      <trkpt lat="42.07329" lon="21.12089">
        <ele>441.216509</ele>
        <time>2022-04-23T10:38:04.491Z</time>
      </trkpt>
      <trkpt lat="42.07316" lon="21.12087">
        <ele>441.268563</ele>
        <time>2022-04-23T10:38:07.533Z</time>
      </trkpt>
      <trkpt lat="42.07303" lon="21.12087">
        <ele>441.324373</ele>
        <time>2022-04-23T10:38:10.512Z</time>
      </trkpt>
      <trkpt lat="42.07293" lon="21.12086">
        <ele>441.364691</ele>
        <time>2022-04-23T10:38:13.519Z</time>
      </trkpt>
      <trkpt lat="42.07284" lon="21.12085">
        <ele>441.405556</ele>
        <time>2022-04-23T10:38:16.485Z</time>
      </trkpt>
      <trkpt lat="42.07271" lon="21.12085">
        <ele>441.409296</ele>
        <time>2022-04-23T10:38:19.503Z</time>
      </trkpt>
      <trkpt lat="42.0726" lon="21.12083">
        <ele>441.102279</ele>
        <time>2022-04-23T10:38:21.501Z</time>
      </trkpt>
      <trkpt lat="42.07249" lon="21.12082">
        <ele>440.813572</ele>
        <time>2022-04-23T10:38:23.502Z</time>
      </trkpt>
      <trkpt lat="42.0724" lon="21.12081">
        <ele>440.539307</ele>
        <time>2022-04-23T10:38:25.506Z</time>
      </trkpt>
      <trkpt lat="42.07229" lon="21.12081">
        <ele>440.240099</ele>
        <time>2022-04-23T10:38:27.516Z</time>
      </trkpt>
      <trkpt lat="42.07217" lon="21.12081">
        <ele>439.918529</ele>
        <time>2022-04-23T10:38:29.503Z</time>
      </trkpt>
      <trkpt lat="42.07206" lon="21.1208">
        <ele>439.605235</ele>
        <time>2022-04-23T10:38:31.497Z</time>
      </trkpt>
      <trkpt lat="42.07195" lon="21.1208">
        <ele>439.303288</ele>
        <time>2022-04-23T10:38:33.549Z</time>
      </trkpt>
      <trkpt lat="42.07185" lon="21.1208">
        <ele>439.012532</ele>
        <time>2022-04-23T10:38:35.492Z</time>
      </trkpt>
      <trkpt lat="42.07174" lon="21.1208">
        <ele>438.718862</ele>
        <time>2022-04-23T10:38:37.502Z</time>
      </trkpt>
      <trkpt lat="42.07165" lon="21.12079">
        <ele>438.453137</ele>
        <time>2022-04-23T10:38:39.505Z</time>
      </trkpt>
      <trkpt lat="42.07155" lon="21.12079">
        <ele>438.181824</ele>
        <time>2022-04-23T10:38:41.515Z</time>
      </trkpt>
      <trkpt lat="42.07146" lon="21.12079">
        <ele>437.910606</ele>
        <time>2022-04-23T10:38:43.496Z</time>
      </trkpt>
      <trkpt lat="42.07136" lon="21.12078">
        <ele>437.642183</ele>
        <time>2022-04-23T10:38:45.509Z</time>
      </trkpt>
      <trkpt lat="42.07127" lon="21.12078">
        <ele>437.3849</ele>
        <time>2022-04-23T10:38:47.514Z</time>
      </trkpt>
      <trkpt lat="42.07117" lon="21.12078">
        <ele>437.107928</ele>
        <time>2022-04-23T10:38:49.508Z</time>
      </trkpt>
      <trkpt lat="42.07107" lon="21.12077">
        <ele>436.825071</ele>
        <time>2022-04-23T10:38:51.505Z</time>
      </trkpt>
      <trkpt lat="42.07097" lon="21.12076">
        <ele>436.54522</ele>
        <time>2022-04-23T10:38:53.501Z</time>
      </trkpt>
      <trkpt lat="42.07088" lon="21.12076">
        <ele>436.382918</ele>
        <time>2022-04-23T10:38:55.529Z</time>
      </trkpt>
      <trkpt lat="42.07078" lon="21.12076">
        <ele>436.302669</ele>
        <time>2022-04-23T10:38:57.554Z</time>
      </trkpt>
      <trkpt lat="42.07069" lon="21.12075">
        <ele>436.224063</ele>
        <time>2022-04-23T10:38:59.490Z</time>
      </trkpt>
      <trkpt lat="42.0706" lon="21.12074">
        <ele>436.141976</ele>
        <time>2022-04-23T10:39:01.551Z</time>
      </trkpt>
      <trkpt lat="42.0705" lon="21.12074">
        <ele>436.056552</ele>
        <time>2022-04-23T10:39:03.495Z</time>
      </trkpt>
      <trkpt lat="42.0704" lon="21.12074">
        <ele>435.974578</ele>
        <time>2022-04-23T10:39:05.515Z</time>
      </trkpt>
      <trkpt lat="42.07027" lon="21.12074">
        <ele>435.863272</ele>
        <time>2022-04-23T10:39:08.500Z</time>
      </trkpt>
      <trkpt lat="42.07015" lon="21.12073">
        <ele>435.760552</ele>
        <time>2022-04-23T10:39:11.508Z</time>
      </trkpt>
      <trkpt lat="42.07003" lon="21.12073">
        <ele>435.650099</ele>
        <time>2022-04-23T10:39:14.504Z</time>
      </trkpt>
      <trkpt lat="42.06994" lon="21.12073">
        <ele>435.572407</ele>
        <time>2022-04-23T10:39:16.521Z</time>
      </trkpt>
      <trkpt lat="42.06984" lon="21.12072">
        <ele>435.492146</ele>
        <time>2022-04-23T10:39:18.514Z</time>
      </trkpt>
      <trkpt lat="42.06972" lon="21.12072">
        <ele>435.382506</ele>
        <time>2022-04-23T10:39:21.545Z</time>
      </trkpt>
      <trkpt lat="42.06959" lon="21.12071">
        <ele>435.272024</ele>
        <time>2022-04-23T10:39:24.511Z</time>
      </trkpt>
      <trkpt lat="42.06946" lon="21.1207">
        <ele>435.158739</ele>
        <time>2022-04-23T10:39:27.570Z</time>
      </trkpt>
      <trkpt lat="42.06933" lon="21.1207">
        <ele>435.048287</ele>
        <time>2022-04-23T10:39:30.513Z</time>
      </trkpt>
      <trkpt lat="42.0692" lon="21.1207">
        <ele>434.933537</ele>
        <time>2022-04-23T10:39:33.501Z</time>
      </trkpt>
      <trkpt lat="42.0691" lon="21.1207">
        <ele>434.872818</ele>
        <time>2022-04-23T10:39:35.500Z</time>
      </trkpt>
      <trkpt lat="42.06901" lon="21.1207">
        <ele>434.8702</ele>
        <time>2022-04-23T10:39:37.512Z</time>
      </trkpt>
      <trkpt lat="42.06891" lon="21.1207">
        <ele>434.867605</ele>
        <time>2022-04-23T10:39:39.516Z</time>
      </trkpt>
      <trkpt lat="42.06882" lon="21.1207">
        <ele>434.865122</ele>
        <time>2022-04-23T10:39:41.534Z</time>
      </trkpt>
      <trkpt lat="42.06872" lon="21.12069">
        <ele>434.862256</ele>
        <time>2022-04-23T10:39:43.496Z</time>
      </trkpt>
      <trkpt lat="42.06861" lon="21.12069">
        <ele>434.859501</ele>
        <time>2022-04-23T10:39:45.507Z</time>
      </trkpt>
      <trkpt lat="42.06851" lon="21.12069">
        <ele>434.856637</ele>
        <time>2022-04-23T10:39:47.523Z</time>
      </trkpt>
      <trkpt lat="42.0684" lon="21.12069">
        <ele>434.853664</ele>
        <time>2022-04-23T10:39:49.505Z</time>
      </trkpt>
      <trkpt lat="42.06829" lon="21.12069">
        <ele>434.850745</ele>
        <time>2022-04-23T10:39:51.506Z</time>
      </trkpt>
      <trkpt lat="42.06819" lon="21.12069">
        <ele>434.847963</ele>
        <time>2022-04-23T10:39:53.510Z</time>
      </trkpt>
      <trkpt lat="42.06808" lon="21.12068">
        <ele>434.844987</ele>
        <time>2022-04-23T10:39:55.537Z</time>
      </trkpt>
      <trkpt lat="42.06797" lon="21.12067">
        <ele>434.841986</ele>
        <time>2022-04-23T10:39:57.518Z</time>
      </trkpt>
      <trkpt lat="42.06786" lon="21.12067">
        <ele>434.83893</ele>
        <time>2022-04-23T10:39:59.506Z</time>
      </trkpt>
      <trkpt lat="42.06775" lon="21.12066">
        <ele>434.835872</ele>
        <time>2022-04-23T10:40:01.517Z</time>
      </trkpt>
      <trkpt lat="42.06764" lon="21.12066">
        <ele>434.832953</ele>
        <time>2022-04-23T10:40:03.514Z</time>
      </trkpt>
      <trkpt lat="42.06753" lon="21.12066">
        <ele>434.829952</ele>
        <time>2022-04-23T10:40:05.492Z</time>
      </trkpt>
      <trkpt lat="42.06741" lon="21.12065">
        <ele>434.826705</ele>
        <time>2022-04-23T10:40:07.512Z</time>
      </trkpt>
      <trkpt lat="42.0673" lon="21.12065">
        <ele>434.750082</ele>
        <time>2022-04-23T10:40:09.513Z</time>
      </trkpt>
      <trkpt lat="42.06719" lon="21.12065">
        <ele>434.437181</ele>
        <time>2022-04-23T10:40:11.512Z</time>
      </trkpt>
      <trkpt lat="42.06707" lon="21.12067">
        <ele>434.134254</ele>
        <time>2022-04-23T10:40:13.514Z</time>
      </trkpt>
      <trkpt lat="42.06696" lon="21.12068">
        <ele>433.814013</ele>
        <time>2022-04-23T10:40:15.515Z</time>
      </trkpt>
      <trkpt lat="42.06683" lon="21.12072">
        <ele>433.469973</ele>
        <time>2022-04-23T10:40:17.508Z</time>
      </trkpt>
      <trkpt lat="42.06672" lon="21.12077">
        <ele>433.149288</ele>
        <time>2022-04-23T10:40:19.506Z</time>
      </trkpt>
      <trkpt lat="42.06661" lon="21.12081">
        <ele>432.847297</ele>
        <time>2022-04-23T10:40:21.518Z</time>
      </trkpt>
      <trkpt lat="42.06651" lon="21.12086">
        <ele>432.552267</ele>
        <time>2022-04-23T10:40:23.555Z</time>
      </trkpt>
      <trkpt lat="42.06641" lon="21.12092">
        <ele>432.263414</ele>
        <time>2022-04-23T10:40:25.497Z</time>
      </trkpt>
      <trkpt lat="42.0663" lon="21.12097">
        <ele>431.964102</ele>
        <time>2022-04-23T10:40:27.510Z</time>
      </trkpt>
      <trkpt lat="42.0662" lon="21.12102">
        <ele>431.672733</ele>
        <time>2022-04-23T10:40:29.511Z</time>
      </trkpt>
      <trkpt lat="42.06611" lon="21.12108">
        <ele>431.389132</ele>
        <time>2022-04-23T10:40:31.516Z</time>
      </trkpt>
      <trkpt lat="42.06601" lon="21.12114">
        <ele>431.097187</ele>
        <time>2022-04-23T10:40:33.509Z</time>
      </trkpt>
      <trkpt lat="42.06591" lon="21.1212">
        <ele>430.795577</ele>
        <time>2022-04-23T10:40:35.524Z</time>
      </trkpt>
      <trkpt lat="42.0658" lon="21.12126">
        <ele>430.483006</ele>
        <time>2022-04-23T10:40:37.523Z</time>
      </trkpt>
      <trkpt lat="42.06568" lon="21.12132">
        <ele>430.153914</ele>
        <time>2022-04-23T10:40:39.507Z</time>
      </trkpt>
      <trkpt lat="42.06558" lon="21.12138">
        <ele>430.034283</ele>
        <time>2022-04-23T10:40:41.504Z</time>
      </trkpt>
      <trkpt lat="42.06547" lon="21.12144">
        <ele>430.156754</ele>
        <time>2022-04-23T10:40:43.501Z</time>
      </trkpt>
      <trkpt lat="42.06537" lon="21.12149">
        <ele>430.277255</ele>
        <time>2022-04-23T10:40:45.509Z</time>
      </trkpt>
      <trkpt lat="42.06527" lon="21.12154">
        <ele>430.394379</ele>
        <time>2022-04-23T10:40:47.521Z</time>
      </trkpt>
      <trkpt lat="42.06518" lon="21.12158">
        <ele>430.505489</ele>
        <time>2022-04-23T10:40:49.514Z</time>
      </trkpt>
      <trkpt lat="42.06509" lon="21.12162">
        <ele>430.60884</ele>
        <time>2022-04-23T10:40:51.510Z</time>
      </trkpt>
      <trkpt lat="42.065" lon="21.12165">
        <ele>430.712399</ele>
        <time>2022-04-23T10:40:53.493Z</time>
      </trkpt>
      <trkpt lat="42.06487" lon="21.12169">
        <ele>430.857556</ele>
        <time>2022-04-23T10:40:56.495Z</time>
      </trkpt>
      <trkpt lat="42.06474" lon="21.12173">
        <ele>431.004497</ele>
        <time>2022-04-23T10:40:59.506Z</time>
      </trkpt>
      <trkpt lat="42.06462" lon="21.12175">
        <ele>431.141391</ele>
        <time>2022-04-23T10:41:02.500Z</time>
      </trkpt>
      <trkpt lat="42.06449" lon="21.12175">
        <ele>431.280413</ele>
        <time>2022-04-23T10:41:05.591Z</time>
      </trkpt>
      <trkpt lat="42.06439" lon="21.12172">
        <ele>431.387704</ele>
        <time>2022-04-23T10:41:07.520Z</time>
      </trkpt>
      <trkpt lat="42.0643" lon="21.1217">
        <ele>431.495428</ele>
        <time>2022-04-23T10:41:09.513Z</time>
      </trkpt>
      <trkpt lat="42.06421" lon="21.12168">
        <ele>431.598116</ele>
        <time>2022-04-23T10:41:11.539Z</time>
      </trkpt>
      <trkpt lat="42.06411" lon="21.12166">
        <ele>431.708686</ele>
        <time>2022-04-23T10:41:13.506Z</time>
      </trkpt>
      <trkpt lat="42.06401" lon="21.12165">
        <ele>431.814917</ele>
        <time>2022-04-23T10:41:15.490Z</time>
      </trkpt>
      <trkpt lat="42.0639" lon="21.12164">
        <ele>431.938582</ele>
        <time>2022-04-23T10:41:18.498Z</time>
      </trkpt>
      <trkpt lat="42.0638" lon="21.12165">
        <ele>432.125115</ele>
        <time>2022-04-23T10:41:21.502Z</time>
      </trkpt>
      <trkpt lat="42.0637" lon="21.12167">
        <ele>432.308899</ele>
        <time>2022-04-23T10:41:24.494Z</time>
      </trkpt>
      <trkpt lat="42.06361" lon="21.12169">
        <ele>432.500663</ele>
        <time>2022-04-23T10:41:27.536Z</time>
      </trkpt>
      <trkpt lat="42.06351" lon="21.12171">
        <ele>432.691473</ele>
        <time>2022-04-23T10:41:30.513Z</time>
      </trkpt>
      <trkpt lat="42.06342" lon="21.12172">
        <ele>432.88302</ele>
        <time>2022-04-23T10:41:33.502Z</time>
      </trkpt>
      <trkpt lat="42.06332" lon="21.1217">
        <ele>433.07283</ele>
        <time>2022-04-23T10:41:36.551Z</time>
      </trkpt>
      <trkpt lat="42.06322" lon="21.12161">
        <ele>433.312689</ele>
        <time>2022-04-23T10:41:40.521Z</time>
      </trkpt>
      <trkpt lat="42.06315" lon="21.12149">
        <ele>433.54735</ele>
        <time>2022-04-23T10:41:43.502Z</time>
      </trkpt>
      <trkpt lat="42.06309" lon="21.12136">
        <ele>433.775098</ele>
        <time>2022-04-23T10:41:46.497Z</time>
      </trkpt>
      <trkpt lat="42.06304" lon="21.12121">
        <ele>434.006907</ele>
        <time>2022-04-23T10:41:49.498Z</time>
      </trkpt>
      <trkpt lat="42.06298" lon="21.12107">
        <ele>434.24839</ele>
        <time>2022-04-23T10:41:52.516Z</time>
      </trkpt>
      <trkpt lat="42.06294" lon="21.12093">
        <ele>434.471028</ele>
        <time>2022-04-23T10:41:55.495Z</time>
      </trkpt>
      <trkpt lat="42.06291" lon="21.12078">
        <ele>434.692502</ele>
        <time>2022-04-23T10:41:58.525Z</time>
      </trkpt>
      <trkpt lat="42.06288" lon="21.12065">
        <ele>434.901572</ele>
        <time>2022-04-23T10:42:01.498Z</time>
      </trkpt>
      <trkpt lat="42.06286" lon="21.12051">
        <ele>435.107308</ele>
        <time>2022-04-23T10:42:04.536Z</time>
      </trkpt>
      <trkpt lat="42.06283" lon="21.12038">
        <ele>435.312122</ele>
        <time>2022-04-23T10:42:07.533Z</time>
      </trkpt>
      <trkpt lat="42.0628" lon="21.12024">
        <ele>435.518776</ele>
        <time>2022-04-23T10:42:10.539Z</time>
      </trkpt>
      <trkpt lat="42.06278" lon="21.1201">
        <ele>435.569916</ele>
        <time>2022-04-23T10:42:13.497Z</time>
      </trkpt>
      <trkpt lat="42.06275" lon="21.11995">
        <ele>435.607374</ele>
        <time>2022-04-23T10:42:16.537Z</time>
      </trkpt>
      <trkpt lat="42.06272" lon="21.11981">
        <ele>435.644193</ele>
        <time>2022-04-23T10:42:19.506Z</time>
      </trkpt>
      <trkpt lat="42.06269" lon="21.11967">
        <ele>435.680141</ele>
        <time>2022-04-23T10:42:22.501Z</time>
      </trkpt>
      <trkpt lat="42.06265" lon="21.11952">
        <ele>435.719633</ele>
        <time>2022-04-23T10:42:25.512Z</time>
      </trkpt>
      <trkpt lat="42.0626" lon="21.11938">
        <ele>435.758697</ele>
        <time>2022-04-23T10:42:28.511Z</time>
      </trkpt>
      <trkpt lat="42.06257" lon="21.11925">
        <ele>435.795025</ele>
        <time>2022-04-23T10:42:31.490Z</time>
      </trkpt>
      <trkpt lat="42.06251" lon="21.11912">
        <ele>435.833116</ele>
        <time>2022-04-23T10:42:34.538Z</time>
      </trkpt>
      <trkpt lat="42.06243" lon="21.11899">
        <ele>435.872523</ele>
        <time>2022-04-23T10:42:37.546Z</time>
      </trkpt>
      <trkpt lat="42.06236" lon="21.11887">
        <ele>435.911268</ele>
        <time>2022-04-23T10:42:40.497Z</time>
      </trkpt>
      <trkpt lat="42.06229" lon="21.11876">
        <ele>435.948306</ele>
        <time>2022-04-23T10:42:43.544Z</time>
      </trkpt>
      <trkpt lat="42.06221" lon="21.11863">
        <ele>435.989898</ele>
        <time>2022-04-23T10:42:46.514Z</time>
      </trkpt>
      <trkpt lat="42.06214" lon="21.11851">
        <ele>436.027647</ele>
        <time>2022-04-23T10:42:49.498Z</time>
      </trkpt>
      <trkpt lat="42.06207" lon="21.11841">
        <ele>436.063153</ele>
        <time>2022-04-23T10:42:52.520Z</time>
      </trkpt>
      <trkpt lat="42.06198" lon="21.11829">
        <ele>436.105161</ele>
        <time>2022-04-23T10:42:55.514Z</time>
      </trkpt>
      <trkpt lat="42.06188" lon="21.1182">
        <ele>436.119787</ele>
        <time>2022-04-23T10:42:58.481Z</time>
      </trkpt>
      <trkpt lat="42.06179" lon="21.11814">
        <ele>435.967795</ele>
        <time>2022-04-23T10:43:00.541Z</time>
      </trkpt>
      <trkpt lat="42.06169" lon="21.1181">
        <ele>435.812228</ele>
        <time>2022-04-23T10:43:02.500Z</time>
      </trkpt>
      <trkpt lat="42.06159" lon="21.11808">
        <ele>435.659207</ele>
        <time>2022-04-23T10:43:04.521Z</time>
      </trkpt>
      <trkpt lat="42.06149" lon="21.11805">
        <ele>435.501903</ele>
        <time>2022-04-23T10:43:06.505Z</time>
      </trkpt>
      <trkpt lat="42.06138" lon="21.11804">
        <ele>435.334244</ele>
        <time>2022-04-23T10:43:08.506Z</time>
      </trkpt>
      <trkpt lat="42.06126" lon="21.11803">
        <ele>435.156065</ele>
        <time>2022-04-23T10:43:10.504Z</time>
      </trkpt>
      <trkpt lat="42.06114" lon="21.11802">
        <ele>434.974382</ele>
        <time>2022-04-23T10:43:12.526Z</time>
      </trkpt>
      <trkpt lat="42.06103" lon="21.11799">
        <ele>434.798537</ele>
        <time>2022-04-23T10:43:14.523Z</time>
      </trkpt>
      <trkpt lat="42.06093" lon="21.11793">
        <ele>434.627789</ele>
        <time>2022-04-23T10:43:16.491Z</time>
      </trkpt>
      <trkpt lat="42.06082" lon="21.11786">
        <ele>434.45284</ele>
        <time>2022-04-23T10:43:18.513Z</time>
      </trkpt>
      <trkpt lat="42.06072" lon="21.11781">
        <ele>434.277827</ele>
        <time>2022-04-23T10:43:20.502Z</time>
      </trkpt>
      <trkpt lat="42.06062" lon="21.11776">
        <ele>434.119635</ele>
        <time>2022-04-23T10:43:22.506Z</time>
      </trkpt>
      <trkpt lat="42.06053" lon="21.11773">
        <ele>433.981159</ele>
        <time>2022-04-23T10:43:24.521Z</time>
      </trkpt>
      <trkpt lat="42.06041" lon="21.11768">
        <ele>433.797769</ele>
        <time>2022-04-23T10:43:27.540Z</time>
      </trkpt>
      <trkpt lat="42.06031" lon="21.11764">
        <ele>433.631694</ele>
        <time>2022-04-23T10:43:30.508Z</time>
      </trkpt>
      <trkpt lat="42.0602" lon="21.11762">
        <ele>433.465881</ele>
        <time>2022-04-23T10:43:33.528Z</time>
      </trkpt>
      <trkpt lat="42.06011" lon="21.11759">
        <ele>433.474549</ele>
        <time>2022-04-23T10:43:36.496Z</time>
      </trkpt>
      <trkpt lat="42.06" lon="21.11756">
        <ele>433.595146</ele>
        <time>2022-04-23T10:43:39.489Z</time>
      </trkpt>
      <trkpt lat="42.05988" lon="21.11754">
        <ele>433.726004</ele>
        <time>2022-04-23T10:43:42.506Z</time>
      </trkpt>
      <trkpt lat="42.05976" lon="21.11752">
        <ele>433.855876</ele>
        <time>2022-04-23T10:43:45.526Z</time>
      </trkpt>
      <trkpt lat="42.05965" lon="21.1175">
        <ele>433.983357</ele>
        <time>2022-04-23T10:43:48.513Z</time>
      </trkpt>
      <trkpt lat="42.05953" lon="21.11748">
        <ele>434.115208</ele>
        <time>2022-04-23T10:43:51.514Z</time>
      </trkpt>
      <trkpt lat="42.05941" lon="21.11748">
        <ele>434.247253</ele>
        <time>2022-04-23T10:43:54.505Z</time>
      </trkpt>
      <trkpt lat="42.0593" lon="21.11748">
        <ele>434.369385</ele>
        <time>2022-04-23T10:43:57.507Z</time>
      </trkpt>
      <trkpt lat="42.05919" lon="21.11747">
        <ele>434.489385</ele>
        <time>2022-04-23T10:44:00.505Z</time>
      </trkpt>
      <trkpt lat="42.05907" lon="21.11747">
        <ele>434.615942</ele>
        <time>2022-04-23T10:44:03.501Z</time>
      </trkpt>
      <trkpt lat="42.05896" lon="21.11746">
        <ele>434.743787</ele>
        <time>2022-04-23T10:44:06.512Z</time>
      </trkpt>
      <trkpt lat="42.05883" lon="21.11745">
        <ele>434.887013</ele>
        <time>2022-04-23T10:44:09.501Z</time>
      </trkpt>
      <trkpt lat="42.05871" lon="21.11745">
        <ele>435.014657</ele>
        <time>2022-04-23T10:44:12.501Z</time>
      </trkpt>
      <trkpt lat="42.05861" lon="21.11746">
        <ele>435.132526</ele>
        <time>2022-04-23T10:44:15.534Z</time>
      </trkpt>
      <trkpt lat="42.05848" lon="21.11748">
        <ele>435.274991</ele>
        <time>2022-04-23T10:44:18.491Z</time>
      </trkpt>
      <trkpt lat="42.05836" lon="21.11749">
        <ele>435.403559</ele>
        <time>2022-04-23T10:44:21.500Z</time>
      </trkpt>
      <trkpt lat="42.05822" lon="21.11751">
        <ele>435.514344</ele>
        <time>2022-04-23T10:44:24.504Z</time>
      </trkpt>
      <trkpt lat="42.05809" lon="21.11753">
        <ele>435.620812</ele>
        <time>2022-04-23T10:44:27.501Z</time>
      </trkpt>
      <trkpt lat="42.05797" lon="21.11755">
        <ele>435.726152</ele>
        <time>2022-04-23T10:44:30.530Z</time>
      </trkpt>
      <trkpt lat="42.05788" lon="21.11757">
        <ele>435.801514</ele>
        <time>2022-04-23T10:44:32.504Z</time>
      </trkpt>
      <trkpt lat="42.05779" lon="21.1176">
        <ele>435.876192</ele>
        <time>2022-04-23T10:44:34.497Z</time>
      </trkpt>
      <trkpt lat="42.05766" lon="21.11765">
        <ele>435.982958</ele>
        <time>2022-04-23T10:44:37.530Z</time>
      </trkpt>
      <trkpt lat="42.05754" lon="21.11769">
        <ele>436.087813</ele>
        <time>2022-04-23T10:44:40.500Z</time>
      </trkpt>
      <trkpt lat="42.05741" lon="21.11773">
        <ele>436.19484</ele>
        <time>2022-04-23T10:44:43.494Z</time>
      </trkpt>
      <trkpt lat="42.05729" lon="21.11777">
        <ele>436.294374</ele>
        <time>2022-04-23T10:44:46.516Z</time>
      </trkpt>
      <trkpt lat="42.05717" lon="21.1178">
        <ele>436.394671</ele>
        <time>2022-04-23T10:44:49.501Z</time>
      </trkpt>
      <trkpt lat="42.05706" lon="21.11782">
        <ele>436.490064</ele>
        <time>2022-04-23T10:44:52.494Z</time>
      </trkpt>
      <trkpt lat="42.05695" lon="21.11783">
        <ele>436.579166</ele>
        <time>2022-04-23T10:44:55.497Z</time>
      </trkpt>
      <trkpt lat="42.05686" lon="21.11783">
        <ele>436.658143</ele>
        <time>2022-04-23T10:44:58.507Z</time>
      </trkpt>
      <trkpt lat="42.05675" lon="21.11783">
        <ele>436.742913</ele>
        <time>2022-04-23T10:45:01.507Z</time>
      </trkpt>
      <trkpt lat="42.05663" lon="21.11783">
        <ele>436.845747</ele>
        <time>2022-04-23T10:45:04.505Z</time>
      </trkpt>
      <trkpt lat="42.05653" lon="21.11782">
        <ele>436.799971</ele>
        <time>2022-04-23T10:45:06.509Z</time>
      </trkpt>
      <trkpt lat="42.05641" lon="21.11779">
        <ele>436.673682</ele>
        <time>2022-04-23T10:45:09.512Z</time>
      </trkpt>
      <trkpt lat="42.05628" lon="21.11772">
        <ele>436.540156</ele>
        <time>2022-04-23T10:45:12.489Z</time>
      </trkpt>
      <trkpt lat="42.05618" lon="21.11768">
        <ele>436.438594</ele>
        <time>2022-04-23T10:45:14.495Z</time>
      </trkpt>
      <trkpt lat="42.05608" lon="21.11764">
        <ele>436.341839</ele>
        <time>2022-04-23T10:45:16.509Z</time>
      </trkpt>
      <trkpt lat="42.05599" lon="21.11759">
        <ele>436.246729</ele>
        <time>2022-04-23T10:45:18.521Z</time>
      </trkpt>
      <trkpt lat="42.0559" lon="21.11754">
        <ele>436.151519</ele>
        <time>2022-04-23T10:45:20.503Z</time>
      </trkpt>
      <trkpt lat="42.05578" lon="21.11749">
        <ele>436.028215</ele>
        <time>2022-04-23T10:45:23.496Z</time>
      </trkpt>
      <trkpt lat="42.05567" lon="21.11746">
        <ele>435.916039</ele>
        <time>2022-04-23T10:45:26.522Z</time>
      </trkpt>
      <trkpt lat="42.05555" lon="21.11742">
        <ele>435.798828</ele>
        <time>2022-04-23T10:45:29.494Z</time>
      </trkpt>
      <trkpt lat="42.05544" lon="21.11734">
        <ele>435.675657</ele>
        <time>2022-04-23T10:45:32.552Z</time>
      </trkpt>
      <trkpt lat="42.05533" lon="21.11724">
        <ele>435.550002</ele>
        <time>2022-04-23T10:45:35.525Z</time>
      </trkpt>
      <trkpt lat="42.05522" lon="21.11716">
        <ele>435.425112</ele>
        <time>2022-04-23T10:45:38.496Z</time>
      </trkpt>
      <trkpt lat="42.05513" lon="21.11712">
        <ele>435.335722</ele>
        <time>2022-04-23T10:45:40.510Z</time>
      </trkpt>
      <trkpt lat="42.05501" lon="21.11708">
        <ele>435.211669</ele>
        <time>2022-04-23T10:45:43.481Z</time>
      </trkpt>
      <trkpt lat="42.05489" lon="21.11705">
        <ele>435.120456</ele>
        <time>2022-04-23T10:45:46.516Z</time>
      </trkpt>
      <trkpt lat="42.05478" lon="21.11705">
        <ele>435.1438</ele>
        <time>2022-04-23T10:45:49.547Z</time>
      </trkpt>
      <trkpt lat="42.05467" lon="21.11705">
        <ele>435.165234</ele>
        <time>2022-04-23T10:45:52.483Z</time>
      </trkpt>
      <trkpt lat="42.05457" lon="21.11707">
        <ele>435.18697</ele>
        <time>2022-04-23T10:45:55.501Z</time>
      </trkpt>
      <trkpt lat="42.05447" lon="21.11709">
        <ele>435.209472</ele>
        <time>2022-04-23T10:45:58.503Z</time>
      </trkpt>
      <trkpt lat="42.05436" lon="21.11715">
        <ele>435.234263</ele>
        <time>2022-04-23T10:46:01.490Z</time>
      </trkpt>
      <trkpt lat="42.05425" lon="21.11722">
        <ele>435.260275</ele>
        <time>2022-04-23T10:46:04.485Z</time>
      </trkpt>
      <trkpt lat="42.05413" lon="21.11728">
        <ele>435.288173</ele>
        <time>2022-04-23T10:46:07.506Z</time>
      </trkpt>
      <trkpt lat="42.05402" lon="21.11734">
        <ele>435.312112</ele>
        <time>2022-04-23T10:46:10.505Z</time>
      </trkpt>
      <trkpt lat="42.05391" lon="21.11737">
        <ele>435.336659</ele>
        <time>2022-04-23T10:46:13.506Z</time>
      </trkpt>
      <trkpt lat="42.0538" lon="21.11741">
        <ele>435.359814</ele>
        <time>2022-04-23T10:46:16.496Z</time>
      </trkpt>
      <trkpt lat="42.05369" lon="21.11746">
        <ele>435.384164</ele>
        <time>2022-04-23T10:46:20.502Z</time>
      </trkpt>
      <trkpt lat="42.05358" lon="21.11749">
        <ele>435.40899</ele>
        <time>2022-04-23T10:46:24.506Z</time>
      </trkpt>
      <trkpt lat="42.05347" lon="21.11751">
        <ele>435.432846</ele>
        <time>2022-04-23T10:46:28.516Z</time>
      </trkpt>
      <trkpt lat="42.05335" lon="21.1175">
        <ele>435.458545</ele>
        <time>2022-04-23T10:46:32.506Z</time>
      </trkpt>
      <trkpt lat="42.05325" lon="21.11742">
        <ele>435.482219</ele>
        <time>2022-04-23T10:46:36.545Z</time>
      </trkpt>
      <trkpt lat="42.05318" lon="21.11732">
        <ele>435.485459</ele>
        <time>2022-04-23T10:46:39.497Z</time>
      </trkpt>
      <trkpt lat="42.05312" lon="21.11721">
        <ele>435.455647</ele>
        <time>2022-04-23T10:46:42.502Z</time>
      </trkpt>
      <trkpt lat="42.05308" lon="21.11707">
        <ele>435.422305</ele>
        <time>2022-04-23T10:46:45.555Z</time>
      </trkpt>
      <trkpt lat="42.05307" lon="21.11693">
        <ele>435.389479</ele>
        <time>2022-04-23T10:46:48.506Z</time>
      </trkpt>
      <trkpt lat="42.05306" lon="21.11679">
        <ele>435.358632</ele>
        <time>2022-04-23T10:46:51.513Z</time>
      </trkpt>
      <trkpt lat="42.05304" lon="21.11666">
        <ele>435.328594</ele>
        <time>2022-04-23T10:46:54.498Z</time>
      </trkpt>
      <trkpt lat="42.05299" lon="21.11651">
        <ele>435.292514</ele>
        <time>2022-04-23T10:46:58.511Z</time>
      </trkpt>
      <trkpt lat="42.05292" lon="21.11637">
        <ele>435.254673</ele>
        <time>2022-04-23T10:47:01.510Z</time>
      </trkpt>
      <trkpt lat="42.05284" lon="21.11628">
        <ele>435.223706</ele>
        <time>2022-04-23T10:47:03.493Z</time>
      </trkpt>
      <trkpt lat="42.05275" lon="21.1162">
        <ele>435.190688</ele>
        <time>2022-04-23T10:47:05.554Z</time>
      </trkpt>
      <trkpt lat="42.05264" lon="21.11614">
        <ele>435.15503</ele>
        <time>2022-04-23T10:47:07.515Z</time>
      </trkpt>
      <trkpt lat="42.05252" lon="21.11608">
        <ele>435.115141</ele>
        <time>2022-04-23T10:47:09.499Z</time>
      </trkpt>
      <trkpt lat="42.0524" lon="21.11604">
        <ele>435.079963</ele>
        <time>2022-04-23T10:47:11.497Z</time>
      </trkpt>
      <trkpt lat="42.0523" lon="21.11599">
        <ele>435.046398</ele>
        <time>2022-04-23T10:47:13.492Z</time>
      </trkpt>
      <trkpt lat="42.05219" lon="21.11595">
        <ele>435.011325</ele>
        <time>2022-04-23T10:47:15.498Z</time>
      </trkpt>
      <trkpt lat="42.05207" lon="21.11589">
        <ele>434.975469</ele>
        <time>2022-04-23T10:47:17.513Z</time>
      </trkpt>
      <trkpt lat="42.05196" lon="21.11582">
        <ele>435.121594</ele>
        <time>2022-04-23T10:47:19.509Z</time>
      </trkpt>
      <trkpt lat="42.05185" lon="21.11571">
        <ele>435.532303</ele>
        <time>2022-04-23T10:47:21.533Z</time>
      </trkpt>
      <trkpt lat="42.05176" lon="21.11558">
        <ele>435.923903</ele>
        <time>2022-04-23T10:47:23.507Z</time>
      </trkpt>
      <trkpt lat="42.0517" lon="21.11543">
        <ele>436.289352</ele>
        <time>2022-04-23T10:47:25.604Z</time>
      </trkpt>
      <trkpt lat="42.05166" lon="21.11528">
        <ele>436.653879</ele>
        <time>2022-04-23T10:47:27.497Z</time>
      </trkpt>
      <trkpt lat="42.05164" lon="21.11515">
        <ele>436.945575</ele>
        <time>2022-04-23T10:47:29.501Z</time>
      </trkpt>
      <trkpt lat="42.05161" lon="21.11502">
        <ele>437.232179</ele>
        <time>2022-04-23T10:47:31.540Z</time>
      </trkpt>
      <trkpt lat="42.05158" lon="21.11487">
        <ele>437.571979</ele>
        <time>2022-04-23T10:47:34.494Z</time>
      </trkpt>
      <trkpt lat="42.05156" lon="21.11475">
        <ele>437.841965</ele>
        <time>2022-04-23T10:47:37.514Z</time>
      </trkpt>
      <trkpt lat="42.05154" lon="21.11462">
        <ele>438.134248</ele>
        <time>2022-04-23T10:47:41.553Z</time>
      </trkpt>
      <trkpt lat="42.05152" lon="21.1145">
        <ele>438.428528</ele>
        <time>2022-04-23T10:47:45.498Z</time>
      </trkpt>
      <trkpt lat="42.05147" lon="21.11439">
        <ele>438.698117</ele>
        <time>2022-04-23T10:47:48.514Z</time>
      </trkpt>
      <trkpt lat="42.05142" lon="21.11429">
        <ele>438.970884</ele>
        <time>2022-04-23T10:47:51.507Z</time>
      </trkpt>
      <trkpt lat="42.05136" lon="21.11415">
        <ele>439.312357</ele>
        <time>2022-04-23T10:47:55.501Z</time>
      </trkpt>
      <trkpt lat="42.05131" lon="21.11403">
        <ele>439.622054</ele>
        <time>2022-04-23T10:47:59.510Z</time>
      </trkpt>
      <trkpt lat="42.05126" lon="21.11393">
        <ele>439.889777</ele>
        <time>2022-04-23T10:48:03.500Z</time>
      </trkpt>
      <trkpt lat="42.05121" lon="21.11382">
        <ele>440.179377</ele>
        <time>2022-04-23T10:48:07.491Z</time>
      </trkpt>
      <trkpt lat="42.05115" lon="21.11369">
        <ele>440.355897</ele>
        <time>2022-04-23T10:48:11.504Z</time>
      </trkpt>
      <trkpt lat="42.05109" lon="21.11359">
        <ele>440.445804</ele>
        <time>2022-04-23T10:48:14.514Z</time>
      </trkpt>
      <trkpt lat="42.05104" lon="21.11349">
        <ele>440.531153</ele>
        <time>2022-04-23T10:48:17.510Z</time>
      </trkpt>
      <trkpt lat="42.05097" lon="21.11337">
        <ele>440.636771</ele>
        <time>2022-04-23T10:48:21.532Z</time>
      </trkpt>
      <trkpt lat="42.0509" lon="21.11325">
        <ele>440.744016</ele>
        <time>2022-04-23T10:48:25.495Z</time>
      </trkpt>
      <trkpt lat="42.05083" lon="21.11313">
        <ele>440.847888</ele>
        <time>2022-04-23T10:48:29.501Z</time>
      </trkpt>
      <trkpt lat="42.05077" lon="21.11301">
        <ele>440.953152</ele>
        <time>2022-04-23T10:48:34.517Z</time>
      </trkpt>
      <trkpt lat="42.05071" lon="21.11289">
        <ele>441.04973</ele>
        <time>2022-04-23T10:48:37.509Z</time>
      </trkpt>
      <trkpt lat="42.05064" lon="21.11278">
        <ele>441.159585</ele>
        <time>2022-04-23T10:48:40.507Z</time>
      </trkpt>
      <trkpt lat="42.05058" lon="21.11267">
        <ele>441.251743</ele>
        <time>2022-04-23T10:48:43.518Z</time>
      </trkpt>
      <trkpt lat="42.05054" lon="21.11251">
        <ele>441.363902</ele>
        <time>2022-04-23T10:48:47.502Z</time>
      </trkpt>
      <trkpt lat="42.05052" lon="21.11239">
        <ele>441.451865</ele>
        <time>2022-04-23T10:48:50.502Z</time>
      </trkpt>
      <trkpt lat="42.05048" lon="21.11225">
        <ele>441.561152</ele>
        <time>2022-04-23T10:48:54.499Z</time>
      </trkpt>
      <trkpt lat="42.05044" lon="21.1121">
        <ele>441.672274</ele>
        <time>2022-04-23T10:48:58.491Z</time>
      </trkpt>
      <trkpt lat="42.05041" lon="21.11198">
        <ele>441.75957</ele>
        <time>2022-04-23T10:49:01.503Z</time>
      </trkpt>
      <trkpt lat="42.05038" lon="21.11186">
        <ele>441.847102</ele>
        <time>2022-04-23T10:49:04.486Z</time>
      </trkpt>
      <trkpt lat="42.05036" lon="21.11174">
        <ele>441.936956</ele>
        <time>2022-04-23T10:49:07.514Z</time>
      </trkpt>
      <trkpt lat="42.05031" lon="21.11161">
        <ele>441.946013</ele>
        <time>2022-04-23T10:49:10.518Z</time>
      </trkpt>
      <trkpt lat="42.05027" lon="21.11149">
        <ele>441.886419</ele>
        <time>2022-04-23T10:49:13.504Z</time>
      </trkpt>
      <trkpt lat="42.05023" lon="21.11138">
        <ele>441.829063</ele>
        <time>2022-04-23T10:49:16.509Z</time>
      </trkpt>
      <trkpt lat="42.05017" lon="21.11124">
        <ele>441.757205</ele>
        <time>2022-04-23T10:49:20.492Z</time>
      </trkpt>
      <trkpt lat="42.05011" lon="21.11113">
        <ele>441.693491</ele>
        <time>2022-04-23T10:49:23.508Z</time>
      </trkpt>
      <trkpt lat="42.05004" lon="21.11102">
        <ele>441.626345</ele>
        <time>2022-04-23T10:49:26.487Z</time>
      </trkpt>
      <trkpt lat="42.04998" lon="21.1109">
        <ele>441.557429</ele>
        <time>2022-04-23T10:49:29.513Z</time>
      </trkpt>
      <trkpt lat="42.04991" lon="21.11077">
        <ele>441.484813</ele>
        <time>2022-04-23T10:49:32.509Z</time>
      </trkpt>
      <trkpt lat="42.04984" lon="21.11065">
        <ele>441.412161</ele>
        <time>2022-04-23T10:49:35.512Z</time>
      </trkpt>
      <trkpt lat="42.04976" lon="21.11053">
        <ele>441.340846</ele>
        <time>2022-04-23T10:49:38.498Z</time>
      </trkpt>
      <trkpt lat="42.04968" lon="21.11042">
        <ele>441.267955</ele>
        <time>2022-04-23T10:49:41.552Z</time>
      </trkpt>
      <trkpt lat="42.04961" lon="21.11029">
        <ele>441.195663</ele>
        <time>2022-04-23T10:49:44.482Z</time>
      </trkpt>
      <trkpt lat="42.04953" lon="21.11017">
        <ele>441.120433</ele>
        <time>2022-04-23T10:49:47.515Z</time>
      </trkpt>
      <trkpt lat="42.04946" lon="21.11004">
        <ele>441.046642</ele>
        <time>2022-04-23T10:49:50.506Z</time>
      </trkpt>
      <trkpt lat="42.04939" lon="21.10991">
        <ele>440.969214</ele>
        <time>2022-04-23T10:49:53.513Z</time>
      </trkpt>
      <trkpt lat="42.04933" lon="21.1098">
        <ele>440.909941</ele>
        <time>2022-04-23T10:49:55.506Z</time>
      </trkpt>
      <trkpt lat="42.04926" lon="21.10967">
        <ele>440.848071</ele>
        <time>2022-04-23T10:49:58.515Z</time>
      </trkpt>
      <trkpt lat="42.04919" lon="21.10953">
        <ele>440.80342</ele>
        <time>2022-04-23T10:50:01.511Z</time>
      </trkpt>
      <trkpt lat="42.04911" lon="21.1094">
        <ele>440.76105</ele>
        <time>2022-04-23T10:50:04.488Z</time>
      </trkpt>
      <trkpt lat="42.04904" lon="21.10928">
        <ele>440.721132</ele>
        <time>2022-04-23T10:50:07.498Z</time>
      </trkpt>
      <trkpt lat="42.04897" lon="21.10916">
        <ele>440.681436</ele>
        <time>2022-04-23T10:50:10.551Z</time>
      </trkpt>
      <trkpt lat="42.04891" lon="21.10904">
        <ele>440.644664</ele>
        <time>2022-04-23T10:50:13.510Z</time>
      </trkpt>
      <trkpt lat="42.04884" lon="21.10893">
        <ele>440.606659</ele>
        <time>2022-04-23T10:50:16.513Z</time>
      </trkpt>
      <trkpt lat="42.04878" lon="21.1088">
        <ele>440.568408</ele>
        <time>2022-04-23T10:50:19.504Z</time>
      </trkpt>
      <trkpt lat="42.04872" lon="21.10868">
        <ele>440.529979</ele>
        <time>2022-04-23T10:50:22.507Z</time>
      </trkpt>
      <trkpt lat="42.04866" lon="21.10856">
        <ele>440.492327</ele>
        <time>2022-04-23T10:50:25.504Z</time>
      </trkpt>
      <trkpt lat="42.04859" lon="21.10844">
        <ele>440.452047</ele>
        <time>2022-04-23T10:50:28.501Z</time>
      </trkpt>
      <trkpt lat="42.04852" lon="21.10831">
        <ele>440.411731</ele>
        <time>2022-04-23T10:50:31.554Z</time>
      </trkpt>
      <trkpt lat="42.04845" lon="21.10818">
        <ele>440.369375</ele>
        <time>2022-04-23T10:50:34.535Z</time>
      </trkpt>
      <trkpt lat="42.04837" lon="21.10804">
        <ele>440.325147</ele>
        <time>2022-04-23T10:50:37.505Z</time>
      </trkpt>
      <trkpt lat="42.0483" lon="21.10791">
        <ele>440.282142</ele>
        <time>2022-04-23T10:50:40.502Z</time>
      </trkpt>
      <trkpt lat="42.04822" lon="21.10778">
        <ele>440.2408</ele>
        <time>2022-04-23T10:50:43.505Z</time>
      </trkpt>
      <trkpt lat="42.04815" lon="21.10765">
        <ele>440.56388</ele>
        <time>2022-04-23T10:50:46.499Z</time>
      </trkpt>
      <trkpt lat="42.04809" lon="21.10752">
        <ele>440.90662</ele>
        <time>2022-04-23T10:50:49.514Z</time>
      </trkpt>
      <trkpt lat="42.04803" lon="21.10738">
        <ele>441.242147</ele>
        <time>2022-04-23T10:50:52.508Z</time>
      </trkpt>
      <trkpt lat="42.04797" lon="21.10725">
        <ele>441.575199</ele>
        <time>2022-04-23T10:50:55.522Z</time>
      </trkpt>
      <trkpt lat="42.04792" lon="21.10709">
        <ele>441.945112</ele>
        <time>2022-04-23T10:50:58.498Z</time>
      </trkpt>
      <trkpt lat="42.04789" lon="21.10698">
        <ele>442.216214</ele>
        <time>2022-04-23T10:51:00.489Z</time>
      </trkpt>
      <trkpt lat="42.04784" lon="21.10686">
        <ele>442.50768</ele>
        <time>2022-04-23T10:51:02.509Z</time>
      </trkpt>
      <trkpt lat="42.0478" lon="21.10674">
        <ele>442.794654</ele>
        <time>2022-04-23T10:51:04.507Z</time>
      </trkpt>
      <trkpt lat="42.04776" lon="21.10662">
        <ele>443.072516</ele>
        <time>2022-04-23T10:51:06.513Z</time>
      </trkpt>
      <trkpt lat="42.04772" lon="21.1065">
        <ele>443.355617</ele>
        <time>2022-04-23T10:51:08.496Z</time>
      </trkpt>
      <trkpt lat="42.04767" lon="21.10639">
        <ele>443.624047</ele>
        <time>2022-04-23T10:51:10.523Z</time>
      </trkpt>
      <trkpt lat="42.0476" lon="21.1063">
        <ele>443.908997</ele>
        <time>2022-04-23T10:51:12.505Z</time>
      </trkpt>
      <trkpt lat="42.04753" lon="21.10621">
        <ele>444.184717</ele>
        <time>2022-04-23T10:51:14.530Z</time>
      </trkpt>
      <trkpt lat="42.04743" lon="21.1061">
        <ele>444.564731</ele>
        <time>2022-04-23T10:51:17.504Z</time>
      </trkpt>
      <trkpt lat="42.04735" lon="21.10603">
        <ele>444.834245</ele>
        <time>2022-04-23T10:51:19.496Z</time>
      </trkpt>
      <trkpt lat="42.04728" lon="21.10595">
        <ele>445.109141</ele>
        <time>2022-04-23T10:51:21.509Z</time>
      </trkpt>
      <trkpt lat="42.04719" lon="21.10581">
        <ele>445.460593</ele>
        <time>2022-04-23T10:51:24.504Z</time>
      </trkpt>
      <trkpt lat="42.04712" lon="21.10573">
        <ele>445.496435</ele>
        <time>2022-04-23T10:51:26.509Z</time>
      </trkpt>
      <trkpt lat="42.04705" lon="21.10564">
        <ele>445.533628</ele>
        <time>2022-04-23T10:51:28.494Z</time>
      </trkpt>
      <trkpt lat="42.04699" lon="21.10556">
        <ele>445.569675</ele>
        <time>2022-04-23T10:51:30.502Z</time>
      </trkpt>
      <trkpt lat="42.04689" lon="21.10544">
        <ele>445.621201</ele>
        <time>2022-04-23T10:51:33.511Z</time>
      </trkpt>
      <trkpt lat="42.0468" lon="21.10532">
        <ele>445.671939</ele>
        <time>2022-04-23T10:51:36.515Z</time>
      </trkpt>
      <trkpt lat="42.04671" lon="21.10521">
        <ele>445.72002</ele>
        <time>2022-04-23T10:51:39.497Z</time>
      </trkpt>
      <trkpt lat="42.04661" lon="21.10511">
        <ele>445.767901</ele>
        <time>2022-04-23T10:51:42.514Z</time>
      </trkpt>
      <trkpt lat="42.04652" lon="21.10501">
        <ele>445.815656</ele>
        <time>2022-04-23T10:51:45.501Z</time>
      </trkpt>
      <trkpt lat="42.04643" lon="21.10491">
        <ele>445.86257</ele>
        <time>2022-04-23T10:51:48.497Z</time>
      </trkpt>
      <trkpt lat="42.04633" lon="21.10481">
        <ele>445.911792</ele>
        <time>2022-04-23T10:51:51.497Z</time>
      </trkpt>
      <trkpt lat="42.04623" lon="21.10472">
        <ele>445.958147</ele>
        <time>2022-04-23T10:51:54.550Z</time>
      </trkpt>
      <trkpt lat="42.04614" lon="21.10463">
        <ele>446.002958</ele>
        <time>2022-04-23T10:51:57.499Z</time>
      </trkpt>
      <trkpt lat="42.04604" lon="21.10455">
        <ele>446.048141</ele>
        <time>2022-04-23T10:52:00.532Z</time>
      </trkpt>
      <trkpt lat="42.04594" lon="21.10447">
        <ele>446.0942</ele>
        <time>2022-04-23T10:52:03.509Z</time>
      </trkpt>
      <trkpt lat="42.04584" lon="21.10439">
        <ele>446.140703</ele>
        <time>2022-04-23T10:52:06.497Z</time>
      </trkpt>
      <trkpt lat="42.04574" lon="21.10431">
        <ele>446.184187</ele>
        <time>2022-04-23T10:52:09.518Z</time>
      </trkpt>
      <trkpt lat="42.04563" lon="21.10423">
        <ele>446.22667</ele>
        <time>2022-04-23T10:52:12.531Z</time>
      </trkpt>
      <trkpt lat="42.04553" lon="21.10415">
        <ele>446.266162</ele>
        <time>2022-04-23T10:52:15.511Z</time>
      </trkpt>
      <trkpt lat="42.04543" lon="21.10407">
        <ele>446.306413</ele>
        <time>2022-04-23T10:52:18.513Z</time>
      </trkpt>
      <trkpt lat="42.04532" lon="21.10399">
        <ele>446.34818</ele>
        <time>2022-04-23T10:52:21.494Z</time>
      </trkpt>
      <trkpt lat="42.04522" lon="21.10392">
        <ele>446.386004</ele>
        <time>2022-04-23T10:52:24.496Z</time>
      </trkpt>
      <trkpt lat="42.04511" lon="21.10385">
        <ele>446.426941</ele>
        <time>2022-04-23T10:52:27.515Z</time>
      </trkpt>
      <trkpt lat="42.04501" lon="21.10378">
        <ele>446.467268</ele>
        <time>2022-04-23T10:52:30.505Z</time>
      </trkpt>
      <trkpt lat="42.04489" lon="21.10371">
        <ele>446.512017</ele>
        <time>2022-04-23T10:52:33.505Z</time>
      </trkpt>
      <trkpt lat="42.04478" lon="21.10363">
        <ele>446.553484</ele>
        <time>2022-04-23T10:52:36.517Z</time>
      </trkpt>
      <trkpt lat="42.04468" lon="21.10356">
        <ele>446.590446</ele>
        <time>2022-04-23T10:52:39.490Z</time>
      </trkpt>
      <trkpt lat="42.04457" lon="21.10349">
        <ele>446.632941</ele>
        <time>2022-04-23T10:52:42.499Z</time>
      </trkpt>
      <trkpt lat="42.04446" lon="21.1034">
        <ele>446.675551</ele>
        <time>2022-04-23T10:52:45.500Z</time>
      </trkpt>
      <trkpt lat="42.04436" lon="21.10331">
        <ele>446.71836</ele>
        <time>2022-04-23T10:52:48.497Z</time>
      </trkpt>
      <trkpt lat="42.04428" lon="21.10324">
        <ele>446.750149</ele>
        <time>2022-04-23T10:52:50.526Z</time>
      </trkpt>
      <trkpt lat="42.0442" lon="21.10316">
        <ele>446.779851</ele>
        <time>2022-04-23T10:52:52.485Z</time>
      </trkpt>
      <trkpt lat="42.04412" lon="21.10307">
        <ele>446.78619</ele>
        <time>2022-04-23T10:52:54.518Z</time>
      </trkpt>
      <trkpt lat="42.04404" lon="21.10299">
        <ele>446.792112</ele>
        <time>2022-04-23T10:52:56.494Z</time>
      </trkpt>
      <trkpt lat="42.04396" lon="21.10291">
        <ele>446.798223</ele>
        <time>2022-04-23T10:52:58.506Z</time>
      </trkpt>
      <trkpt lat="42.04388" lon="21.10282">
        <ele>446.804667</ele>
        <time>2022-04-23T10:53:00.506Z</time>
      </trkpt>
      <trkpt lat="42.0438" lon="21.10273">
        <ele>446.811015</ele>
        <time>2022-04-23T10:53:02.538Z</time>
      </trkpt>
      <trkpt lat="42.04372" lon="21.10264">
        <ele>446.817259</ele>
        <time>2022-04-23T10:53:04.512Z</time>
      </trkpt>
      <trkpt lat="42.04364" lon="21.10256">
        <ele>446.823559</ele>
        <time>2022-04-23T10:53:06.504Z</time>
      </trkpt>
      <trkpt lat="42.04356" lon="21.10247">
        <ele>446.829795</ele>
        <time>2022-04-23T10:53:08.490Z</time>
      </trkpt>
      <trkpt lat="42.04349" lon="21.10238">
        <ele>446.835651</ele>
        <time>2022-04-23T10:53:10.506Z</time>
      </trkpt>
      <trkpt lat="42.04341" lon="21.10229">
        <ele>446.841923</ele>
        <time>2022-04-23T10:53:12.494Z</time>
      </trkpt>
      <trkpt lat="42.04333" lon="21.1022">
        <ele>446.848293</ele>
        <time>2022-04-23T10:53:14.579Z</time>
      </trkpt>
      <trkpt lat="42.04325" lon="21.10212">
        <ele>446.854557</ele>
        <time>2022-04-23T10:53:16.531Z</time>
      </trkpt>
      <trkpt lat="42.04317" lon="21.10203">
        <ele>446.860641</ele>
        <time>2022-04-23T10:53:18.516Z</time>
      </trkpt>
      <trkpt lat="42.04309" lon="21.10195">
        <ele>446.867153</ele>
        <time>2022-04-23T10:53:20.500Z</time>
      </trkpt>
      <trkpt lat="42.04301" lon="21.10186">
        <ele>446.873454</ele>
        <time>2022-04-23T10:53:22.507Z</time>
      </trkpt>
      <trkpt lat="42.04293" lon="21.10177">
        <ele>446.879718</ele>
        <time>2022-04-23T10:53:24.503Z</time>
      </trkpt>
      <trkpt lat="42.04285" lon="21.10169">
        <ele>446.885706</ele>
        <time>2022-04-23T10:53:26.508Z</time>
      </trkpt>
      <trkpt lat="42.04277" lon="21.10161">
        <ele>446.733376</ele>
        <time>2022-04-23T10:53:28.507Z</time>
      </trkpt>
      <trkpt lat="42.0427" lon="21.10152">
        <ele>446.474801</ele>
        <time>2022-04-23T10:53:30.512Z</time>
      </trkpt>
      <trkpt lat="42.04263" lon="21.10143">
        <ele>446.215424</ele>
        <time>2022-04-23T10:53:32.496Z</time>
      </trkpt>
      <trkpt lat="42.04256" lon="21.10134">
        <ele>445.937044</ele>
        <time>2022-04-23T10:53:34.497Z</time>
      </trkpt>
      <trkpt lat="42.04249" lon="21.10125">
        <ele>445.662263</ele>
        <time>2022-04-23T10:53:36.516Z</time>
      </trkpt>
      <trkpt lat="42.04242" lon="21.10115">
        <ele>445.386021</ele>
        <time>2022-04-23T10:53:38.489Z</time>
      </trkpt>
      <trkpt lat="42.04235" lon="21.10105">
        <ele>445.109425</ele>
        <time>2022-04-23T10:53:40.484Z</time>
      </trkpt>
      <trkpt lat="42.04229" lon="21.10096">
        <ele>444.859051</ele>
        <time>2022-04-23T10:53:42.585Z</time>
      </trkpt>
      <trkpt lat="42.04219" lon="21.10084">
        <ele>444.489963</ele>
        <time>2022-04-23T10:53:45.501Z</time>
      </trkpt>
      <trkpt lat="42.04211" lon="21.10076">
        <ele>444.213855</ele>
        <time>2022-04-23T10:53:47.505Z</time>
      </trkpt>
      <trkpt lat="42.04202" lon="21.10069">
        <ele>443.94666</ele>
        <time>2022-04-23T10:53:49.511Z</time>
      </trkpt>
      <trkpt lat="42.04194" lon="21.10063">
        <ele>443.674991</ele>
        <time>2022-04-23T10:53:51.495Z</time>
      </trkpt>
      <trkpt lat="42.04184" lon="21.10057">
        <ele>443.378879</ele>
        <time>2022-04-23T10:53:53.539Z</time>
      </trkpt>
      <trkpt lat="42.04174" lon="21.10052">
        <ele>443.096192</ele>
        <time>2022-04-23T10:53:55.504Z</time>
      </trkpt>
      <trkpt lat="42.04165" lon="21.10046">
        <ele>442.823528</ele>
        <time>2022-04-23T10:53:57.521Z</time>
      </trkpt>
      <trkpt lat="42.04156" lon="21.10041">
        <ele>442.547365</ele>
        <time>2022-04-23T10:53:59.509Z</time>
      </trkpt>
      <trkpt lat="42.04147" lon="21.10036">
        <ele>442.272306</ele>
        <time>2022-04-23T10:54:01.519Z</time>
      </trkpt>
      <trkpt lat="42.04137" lon="21.10032">
        <ele>442.004424</ele>
        <time>2022-04-23T10:54:03.499Z</time>
      </trkpt>
      <trkpt lat="42.04127" lon="21.1003">
        <ele>441.900632</ele>
        <time>2022-04-23T10:54:05.508Z</time>
      </trkpt>
      <trkpt lat="42.04117" lon="21.10027">
        <ele>441.845943</ele>
        <time>2022-04-23T10:54:07.486Z</time>
      </trkpt>
      <trkpt lat="42.04105" lon="21.10023">
        <ele>441.786468</ele>
        <time>2022-04-23T10:54:09.475Z</time>
      </trkpt>
      <trkpt lat="42.04094" lon="21.10018">
        <ele>441.725781</ele>
        <time>2022-04-23T10:54:11.473Z</time>
      </trkpt>
      <trkpt lat="42.04084" lon="21.10012">
        <ele>441.66999</ele>
        <time>2022-04-23T10:54:13.470Z</time>
      </trkpt>
      <trkpt lat="42.04074" lon="21.10005">
        <ele>441.614773</ele>
        <time>2022-04-23T10:54:15.532Z</time>
      </trkpt>
      <trkpt lat="42.04065" lon="21.09997">
        <ele>441.559487</ele>
        <time>2022-04-23T10:54:17.512Z</time>
      </trkpt>
      <trkpt lat="42.04056" lon="21.0999">
        <ele>441.506527</ele>
        <time>2022-04-23T10:54:19.517Z</time>
      </trkpt>
      <trkpt lat="42.04047" lon="21.09983">
        <ele>441.454336</ele>
        <time>2022-04-23T10:54:21.503Z</time>
      </trkpt>
      <trkpt lat="42.04039" lon="21.09976">
        <ele>441.402584</ele>
        <time>2022-04-23T10:54:23.499Z</time>
      </trkpt>
      <trkpt lat="42.0403" lon="21.09969">
        <ele>441.352627</ele>
        <time>2022-04-23T10:54:25.503Z</time>
      </trkpt>
      <trkpt lat="42.04023" lon="21.09961">
        <ele>441.304986</ele>
        <time>2022-04-23T10:54:27.514Z</time>
      </trkpt>
      <trkpt lat="42.04015" lon="21.09954">
        <ele>441.258809</ele>
        <time>2022-04-23T10:54:29.513Z</time>
      </trkpt>
      <trkpt lat="42.04007" lon="21.09948">
        <ele>441.212339</ele>
        <time>2022-04-23T10:54:31.504Z</time>
      </trkpt>
      <trkpt lat="42.03999" lon="21.09942">
        <ele>441.163741</ele>
        <time>2022-04-23T10:54:33.496Z</time>
      </trkpt>
      <trkpt lat="42.03991" lon="21.09935">
        <ele>441.11779</ele>
        <time>2022-04-23T10:54:35.501Z</time>
      </trkpt>
      <trkpt lat="42.03981" lon="21.09926">
        <ele>441.054524</ele>
        <time>2022-04-23T10:54:38.537Z</time>
      </trkpt>
      <trkpt lat="42.0397" lon="21.09916">
        <ele>441.030024</ele>
        <time>2022-04-23T10:54:41.505Z</time>
      </trkpt>
      <trkpt lat="42.0396" lon="21.09906">
        <ele>441.033572</ele>
        <time>2022-04-23T10:54:44.513Z</time>
      </trkpt>
      <trkpt lat="42.03952" lon="21.09899">
        <ele>441.036164</ele>
        <time>2022-04-23T10:54:46.502Z</time>
      </trkpt>
      <trkpt lat="42.03944" lon="21.09893">
        <ele>441.03883</ele>
        <time>2022-04-23T10:54:48.516Z</time>
      </trkpt>
      <trkpt lat="42.03935" lon="21.09886">
        <ele>441.041641</ele>
        <time>2022-04-23T10:54:50.500Z</time>
      </trkpt>
      <trkpt lat="42.03925" lon="21.09881">
        <ele>441.044599</ele>
        <time>2022-04-23T10:54:52.505Z</time>
      </trkpt>
      <trkpt lat="42.03914" lon="21.09876">
        <ele>441.047823</ele>
        <time>2022-04-23T10:54:54.504Z</time>
      </trkpt>
      <trkpt lat="42.03902" lon="21.09872">
        <ele>441.051219</ele>
        <time>2022-04-23T10:54:56.513Z</time>
      </trkpt>
      <trkpt lat="42.0389" lon="21.09869">
        <ele>441.054596</ele>
        <time>2022-04-23T10:54:58.485Z</time>
      </trkpt>
      <trkpt lat="42.03878" lon="21.09867">
        <ele>441.057968</ele>
        <time>2022-04-23T10:55:00.538Z</time>
      </trkpt>
      <trkpt lat="42.03866" lon="21.09865">
        <ele>441.06132</ele>
        <time>2022-04-23T10:55:02.498Z</time>
      </trkpt>
      <trkpt lat="42.03854" lon="21.09863">
        <ele>441.064645</ele>
        <time>2022-04-23T10:55:04.507Z</time>
      </trkpt>
      <trkpt lat="42.03842" lon="21.09862">
        <ele>441.0679</ele>
        <time>2022-04-23T10:55:06.492Z</time>
      </trkpt>
      <trkpt lat="42.03831" lon="21.09863">
        <ele>441.071207</ele>
        <time>2022-04-23T10:55:08.495Z</time>
      </trkpt>
      <trkpt lat="42.03821" lon="21.09864">
        <ele>441.073969</ele>
        <time>2022-04-23T10:55:10.503Z</time>
      </trkpt>
      <trkpt lat="42.03811" lon="21.09865">
        <ele>441.076735</ele>
        <time>2022-04-23T10:55:12.534Z</time>
      </trkpt>
      <trkpt lat="42.03801" lon="21.09869">
        <ele>441.001354</ele>
        <time>2022-04-23T10:55:14.493Z</time>
      </trkpt>
      <trkpt lat="42.03791" lon="21.09873">
        <ele>440.882039</ele>
        <time>2022-04-23T10:55:16.514Z</time>
      </trkpt>
      <trkpt lat="42.03782" lon="21.09877">
        <ele>440.769161</ele>
        <time>2022-04-23T10:55:18.534Z</time>
      </trkpt>
      <trkpt lat="42.03773" lon="21.0988">
        <ele>440.662248</ele>
        <time>2022-04-23T10:55:20.517Z</time>
      </trkpt>
      <trkpt lat="42.0376" lon="21.09883">
        <ele>440.513416</ele>
        <time>2022-04-23T10:55:23.496Z</time>
      </trkpt>
      <trkpt lat="42.03748" lon="21.09885">
        <ele>440.368655</ele>
        <time>2022-04-23T10:55:26.516Z</time>
      </trkpt>
      <trkpt lat="42.03735" lon="21.09887">
        <ele>440.220622</ele>
        <time>2022-04-23T10:55:29.510Z</time>
      </trkpt>
      <trkpt lat="42.03723" lon="21.09889">
        <ele>440.073544</ele>
        <time>2022-04-23T10:55:32.492Z</time>
      </trkpt>
      <trkpt lat="42.0371" lon="21.09891">
        <ele>439.918636</ele>
        <time>2022-04-23T10:55:35.516Z</time>
      </trkpt>
      <trkpt lat="42.03697" lon="21.09892">
        <ele>439.774813</ele>
        <time>2022-04-23T10:55:38.501Z</time>
      </trkpt>
      <trkpt lat="42.03687" lon="21.09893">
        <ele>439.648047</ele>
        <time>2022-04-23T10:55:41.519Z</time>
      </trkpt>
      <trkpt lat="42.03676" lon="21.09895">
        <ele>439.518329</ele>
        <time>2022-04-23T10:55:44.530Z</time>
      </trkpt>
      <trkpt lat="42.03662" lon="21.09897">
        <ele>439.360098</ele>
        <time>2022-04-23T10:55:47.506Z</time>
      </trkpt>
      <trkpt lat="42.03649" lon="21.09898">
        <ele>439.206732</ele>
        <time>2022-04-23T10:55:50.506Z</time>
      </trkpt>
      <trkpt lat="42.03639" lon="21.099">
        <ele>439.093893</ele>
        <time>2022-04-23T10:55:52.496Z</time>
      </trkpt>
      <trkpt lat="42.0363" lon="21.099">
        <ele>438.981793</ele>
        <time>2022-04-23T10:55:54.499Z</time>
      </trkpt>
      <trkpt lat="42.03621" lon="21.09898">
        <ele>439.062585</ele>
        <time>2022-04-23T10:55:56.517Z</time>
      </trkpt>
      <trkpt lat="42.03612" lon="21.09894">
        <ele>439.151872</ele>
        <time>2022-04-23T10:55:58.518Z</time>
      </trkpt>
      <trkpt lat="42.03603" lon="21.09888">
        <ele>439.244847</ele>
        <time>2022-04-23T10:56:00.500Z</time>
      </trkpt>
      <trkpt lat="42.03595" lon="21.09882">
        <ele>439.335486</ele>
        <time>2022-04-23T10:56:02.501Z</time>
      </trkpt>
      <trkpt lat="42.03584" lon="21.09874">
        <ele>439.451205</ele>
        <time>2022-04-23T10:56:05.515Z</time>
      </trkpt>
      <trkpt lat="42.03573" lon="21.09865">
        <ele>439.570551</ele>
        <time>2022-04-23T10:56:08.492Z</time>
      </trkpt>
      <trkpt lat="42.03565" lon="21.0986">
        <ele>439.656523</ele>
        <time>2022-04-23T10:56:10.517Z</time>
      </trkpt>
      <trkpt lat="42.03557" lon="21.09853">
        <ele>439.743498</ele>
        <time>2022-04-23T10:56:12.520Z</time>
      </trkpt>
      <trkpt lat="42.0355" lon="21.09847">
        <ele>439.832683</ele>
        <time>2022-04-23T10:56:14.493Z</time>
      </trkpt>
      <trkpt lat="42.03541" lon="21.0984">
        <ele>439.92591</ele>
        <time>2022-04-23T10:56:16.514Z</time>
      </trkpt>
      <trkpt lat="42.03533" lon="21.09833">
        <ele>440.017958</ele>
        <time>2022-04-23T10:56:18.508Z</time>
      </trkpt>
      <trkpt lat="42.03525" lon="21.09826">
        <ele>440.109507</ele>
        <time>2022-04-23T10:56:20.545Z</time>
      </trkpt>
      <trkpt lat="42.03516" lon="21.09819">
        <ele>440.206206</ele>
        <time>2022-04-23T10:56:22.512Z</time>
      </trkpt>
      <trkpt lat="42.03508" lon="21.09812">
        <ele>440.299891</ele>
        <time>2022-04-23T10:56:24.514Z</time>
      </trkpt>
      <trkpt lat="42.03495" lon="21.09805">
        <ele>440.427783</ele>
        <time>2022-04-23T10:56:27.513Z</time>
      </trkpt>
      <trkpt lat="42.03486" lon="21.09801">
        <ele>440.521084</ele>
        <time>2022-04-23T10:56:29.511Z</time>
      </trkpt>
      <trkpt lat="42.03477" lon="21.09797">
        <ele>440.611232</ele>
        <time>2022-04-23T10:56:31.545Z</time>
      </trkpt>
      <trkpt lat="42.03468" lon="21.09793">
        <ele>440.699606</ele>
        <time>2022-04-23T10:56:33.516Z</time>
      </trkpt>
      <trkpt lat="42.03457" lon="21.09791">
        <ele>440.765673</ele>
        <time>2022-04-23T10:56:35.504Z</time>
      </trkpt>
      <trkpt lat="42.03447" lon="21.09791">
        <ele>440.832828</ele>
        <time>2022-04-23T10:56:37.544Z</time>
      </trkpt>
      <trkpt lat="42.03436" lon="21.09792">
        <ele>440.899891</ele>
        <time>2022-04-23T10:56:39.512Z</time>
      </trkpt>
      <trkpt lat="42.03428" lon="21.09797">
        <ele>440.961569</ele>
        <time>2022-04-23T10:56:41.505Z</time>
      </trkpt>
      <trkpt lat="42.03419" lon="21.09804">
        <ele>441.024187</ele>
        <time>2022-04-23T10:56:43.511Z</time>
      </trkpt>
      <trkpt lat="42.0341" lon="21.0981">
        <ele>441.086277</ele>
        <time>2022-04-23T10:56:45.500Z</time>
      </trkpt>
      <trkpt lat="42.03401" lon="21.09814">
        <ele>441.149211</ele>
        <time>2022-04-23T10:56:47.501Z</time>
      </trkpt>
      <trkpt lat="42.03391" lon="21.09818">
        <ele>441.213344</ele>
        <time>2022-04-23T10:56:49.505Z</time>
      </trkpt>
      <trkpt lat="42.03382" lon="21.0982">
        <ele>441.276668</ele>
        <time>2022-04-23T10:56:51.502Z</time>
      </trkpt>
      <trkpt lat="42.03371" lon="21.09821">
        <ele>441.345874</ele>
        <time>2022-04-23T10:56:53.533Z</time>
      </trkpt>
      <trkpt lat="42.0336" lon="21.09821">
        <ele>441.413055</ele>
        <time>2022-04-23T10:56:55.513Z</time>
      </trkpt>
      <trkpt lat="42.0335" lon="21.09821">
        <ele>441.476374</ele>
        <time>2022-04-23T10:56:57.552Z</time>
      </trkpt>
      <trkpt lat="42.0334" lon="21.09822">
        <ele>441.540375</ele>
        <time>2022-04-23T10:56:59.538Z</time>
      </trkpt>
      <trkpt lat="42.03331" lon="21.09822">
        <ele>441.601164</ele>
        <time>2022-04-23T10:57:01.506Z</time>
      </trkpt>
      <trkpt lat="42.03322" lon="21.09822">
        <ele>441.661285</ele>
        <time>2022-04-23T10:57:03.506Z</time>
      </trkpt>
      <trkpt lat="42.03312" lon="21.09822">
        <ele>441.724667</ele>
        <time>2022-04-23T10:57:05.486Z</time>
      </trkpt>
      <trkpt lat="42.03302" lon="21.09821">
        <ele>441.78677</ele>
        <time>2022-04-23T10:57:07.520Z</time>
      </trkpt>
      <trkpt lat="42.03292" lon="21.0982">
        <ele>441.829834</ele>
        <time>2022-04-23T10:57:09.516Z</time>
      </trkpt>
      <trkpt lat="42.03282" lon="21.09818">
        <ele>441.766312</ele>
        <time>2022-04-23T10:57:11.502Z</time>
      </trkpt>
      <trkpt lat="42.03272" lon="21.09815">
        <ele>441.705706</ele>
        <time>2022-04-23T10:57:13.510Z</time>
      </trkpt>
      <trkpt lat="42.03263" lon="21.0981">
        <ele>441.643687</ele>
        <time>2022-04-23T10:57:15.544Z</time>
      </trkpt>
      <trkpt lat="42.03254" lon="21.09803">
        <ele>441.583615</ele>
        <time>2022-04-23T10:57:17.516Z</time>
      </trkpt>
      <trkpt lat="42.03246" lon="21.09796">
        <ele>441.523091</ele>
        <time>2022-04-23T10:57:19.541Z</time>
      </trkpt>
      <trkpt lat="42.03237" lon="21.09787">
        <ele>441.457056</ele>
        <time>2022-04-23T10:57:21.504Z</time>
      </trkpt>
      <trkpt lat="42.03229" lon="21.09777">
        <ele>441.390226</ele>
        <time>2022-04-23T10:57:23.500Z</time>
      </trkpt>
      <trkpt lat="42.03224" lon="21.09765">
        <ele>441.327533</ele>
        <time>2022-04-23T10:57:25.510Z</time>
      </trkpt>
      <trkpt lat="42.03221" lon="21.09753">
        <ele>441.269607</ele>
        <time>2022-04-23T10:57:27.498Z</time>
      </trkpt>
      <trkpt lat="42.03218" lon="21.0974">
        <ele>441.209809</ele>
        <time>2022-04-23T10:57:29.513Z</time>
      </trkpt>
      <trkpt lat="42.03217" lon="21.09728">
        <ele>441.15314</ele>
        <time>2022-04-23T10:57:31.524Z</time>
      </trkpt>
      <trkpt lat="42.03216" lon="21.0971">
        <ele>441.071411</ele>
        <time>2022-04-23T10:57:34.505Z</time>
      </trkpt>
      <trkpt lat="42.03216" lon="21.09698">
        <ele>441.017199</ele>
        <time>2022-04-23T10:57:36.555Z</time>
      </trkpt>
      <trkpt lat="42.03213" lon="21.0968">
        <ele>440.937428</ele>
        <time>2022-04-23T10:57:39.506Z</time>
      </trkpt>
      <trkpt lat="42.03212" lon="21.09668">
        <ele>440.87981</ele>
        <time>2022-04-23T10:57:41.504Z</time>
      </trkpt>
      <trkpt lat="42.0321" lon="21.09654">
        <ele>440.81997</ele>
        <time>2022-04-23T10:57:43.513Z</time>
      </trkpt>
      <trkpt lat="42.03208" lon="21.09642">
        <ele>440.760443</ele>
        <time>2022-04-23T10:57:45.501Z</time>
      </trkpt>
      <trkpt lat="42.03205" lon="21.09629">
        <ele>440.748006</ele>
        <time>2022-04-23T10:57:47.526Z</time>
      </trkpt>
      <trkpt lat="42.03202" lon="21.09617">
        <ele>440.748832</ele>
        <time>2022-04-23T10:57:49.513Z</time>
      </trkpt>
      <trkpt lat="42.03197" lon="21.09605">
        <ele>440.749694</ele>
        <time>2022-04-23T10:57:51.513Z</time>
      </trkpt>
      <trkpt lat="42.03193" lon="21.09593">
        <ele>440.750486</ele>
        <time>2022-04-23T10:57:53.553Z</time>
      </trkpt>
      <trkpt lat="42.03188" lon="21.09577">
        <ele>440.751599</ele>
        <time>2022-04-23T10:57:56.521Z</time>
      </trkpt>
      <trkpt lat="42.03183" lon="21.09566">
        <ele>440.75241</ele>
        <time>2022-04-23T10:57:58.502Z</time>
      </trkpt>
      <trkpt lat="42.03178" lon="21.09554">
        <ele>440.753273</ele>
        <time>2022-04-23T10:58:00.519Z</time>
      </trkpt>
      <trkpt lat="42.03172" lon="21.09541">
        <ele>440.754201</ele>
        <time>2022-04-23T10:58:02.502Z</time>
      </trkpt>
      <trkpt lat="42.03167" lon="21.09528">
        <ele>440.755124</ele>
        <time>2022-04-23T10:58:04.563Z</time>
      </trkpt>
      <trkpt lat="42.03162" lon="21.09515">
        <ele>440.756004</ele>
        <time>2022-04-23T10:58:06.525Z</time>
      </trkpt>
      <trkpt lat="42.03156" lon="21.09504">
        <ele>440.756891</ele>
        <time>2022-04-23T10:58:08.512Z</time>
      </trkpt>
      <trkpt lat="42.0315" lon="21.09493">
        <ele>440.757763</ele>
        <time>2022-04-23T10:58:10.524Z</time>
      </trkpt>
      <trkpt lat="42.03144" lon="21.09482">
        <ele>440.758581</ele>
        <time>2022-04-23T10:58:12.519Z</time>
      </trkpt>
      <trkpt lat="42.03136" lon="21.09468">
        <ele>440.75969</ele>
        <time>2022-04-23T10:58:15.548Z</time>
      </trkpt>
      <trkpt lat="42.03128" lon="21.09454">
        <ele>440.760822</ele>
        <time>2022-04-23T10:58:18.494Z</time>
      </trkpt>
      <trkpt lat="42.03124" lon="21.09443">
        <ele>440.761595</ele>
        <time>2022-04-23T10:58:20.509Z</time>
      </trkpt>
      <trkpt lat="42.0312" lon="21.09431">
        <ele>440.762393</ele>
        <time>2022-04-23T10:58:22.518Z</time>
      </trkpt>
      <trkpt lat="42.03116" lon="21.0942">
        <ele>440.714693</ele>
        <time>2022-04-23T10:58:24.588Z</time>
      </trkpt>
      <trkpt lat="42.03112" lon="21.09403">
        <ele>440.633639</ele>
        <time>2022-04-23T10:58:27.593Z</time>
      </trkpt>
      <trkpt lat="42.03108" lon="21.09388">
        <ele>440.55616</ele>
        <time>2022-04-23T10:58:30.510Z</time>
      </trkpt>
      <trkpt lat="42.03105" lon="21.09372">
        <ele>440.481048</ele>
        <time>2022-04-23T10:58:33.527Z</time>
      </trkpt>
      <trkpt lat="42.03101" lon="21.09355">
        <ele>440.39919</ele>
        <time>2022-04-23T10:58:36.504Z</time>
      </trkpt>
      <trkpt lat="42.03097" lon="21.09339">
        <ele>440.318289</ele>
        <time>2022-04-23T10:58:39.520Z</time>
      </trkpt>
      <trkpt lat="42.03094" lon="21.09327">
        <ele>440.261405</ele>
        <time>2022-04-23T10:58:41.500Z</time>
      </trkpt>
      <trkpt lat="42.03089" lon="21.09315">
        <ele>440.196239</ele>
        <time>2022-04-23T10:58:43.521Z</time>
      </trkpt>
      <trkpt lat="42.03086" lon="21.09301">
        <ele>440.129819</ele>
        <time>2022-04-23T10:58:45.510Z</time>
      </trkpt>
      <trkpt lat="42.03082" lon="21.09288">
        <ele>440.062083</ele>
        <time>2022-04-23T10:58:47.501Z</time>
      </trkpt>
      <trkpt lat="42.03078" lon="21.09274">
        <ele>439.992165</ele>
        <time>2022-04-23T10:58:49.513Z</time>
      </trkpt>
      <trkpt lat="42.03074" lon="21.0926">
        <ele>439.922086</ele>
        <time>2022-04-23T10:58:51.521Z</time>
      </trkpt>
      <trkpt lat="42.03068" lon="21.09248">
        <ele>439.858047</ele>
        <time>2022-04-23T10:58:53.581Z</time>
      </trkpt>
      <trkpt lat="42.03062" lon="21.09237">
        <ele>439.78914</ele>
        <time>2022-04-23T10:58:55.497Z</time>
      </trkpt>
      <trkpt lat="42.03051" lon="21.09231">
        <ele>439.719257</ele>
        <time>2022-04-23T10:58:57.512Z</time>
      </trkpt>
      <trkpt lat="42.0304" lon="21.09234">
        <ele>439.646981</ele>
        <time>2022-04-23T10:58:59.488Z</time>
      </trkpt>
      <trkpt lat="42.03031" lon="21.09241">
        <ele>439.488681</ele>
        <time>2022-04-23T10:59:01.571Z</time>
      </trkpt>
      <trkpt lat="42.03022" lon="21.09248">
        <ele>439.299843</ele>
        <time>2022-04-23T10:59:03.496Z</time>
      </trkpt>
      <trkpt lat="42.03012" lon="21.09255">
        <ele>439.105965</ele>
        <time>2022-04-23T10:59:05.518Z</time>
      </trkpt>
      <trkpt lat="42.03003" lon="21.09261">
        <ele>438.918296</ele>
        <time>2022-04-23T10:59:07.516Z</time>
      </trkpt>
      <trkpt lat="42.02993" lon="21.09265">
        <ele>438.729496</ele>
        <time>2022-04-23T10:59:09.500Z</time>
      </trkpt>
      <trkpt lat="42.02983" lon="21.09269">
        <ele>438.550391</ele>
        <time>2022-04-23T10:59:11.539Z</time>
      </trkpt>
      <trkpt lat="42.02972" lon="21.09273">
        <ele>438.349684</ele>
        <time>2022-04-23T10:59:13.524Z</time>
      </trkpt>
      <trkpt lat="42.02961" lon="21.09274">
        <ele>438.149391</ele>
        <time>2022-04-23T10:59:15.494Z</time>
      </trkpt>
      <trkpt lat="42.0295" lon="21.09275">
        <ele>437.965988</ele>
        <time>2022-04-23T10:59:17.503Z</time>
      </trkpt>
      <trkpt lat="42.02941" lon="21.09274">
        <ele>437.794757</ele>
        <time>2022-04-23T10:59:19.513Z</time>
      </trkpt>
      <trkpt lat="42.02932" lon="21.09273">
        <ele>437.630888</ele>
        <time>2022-04-23T10:59:21.505Z</time>
      </trkpt>
      <trkpt lat="42.02918" lon="21.09272">
        <ele>437.393177</ele>
        <time>2022-04-23T10:59:24.524Z</time>
      </trkpt>
      <trkpt lat="42.02909" lon="21.09271">
        <ele>437.229228</ele>
        <time>2022-04-23T10:59:26.572Z</time>
      </trkpt>
      <trkpt lat="42.02896" lon="21.09269">
        <ele>436.993652</ele>
        <time>2022-04-23T10:59:29.521Z</time>
      </trkpt>
      <trkpt lat="42.02883" lon="21.09267">
        <ele>436.753894</ele>
        <time>2022-04-23T10:59:32.502Z</time>
      </trkpt>
      <trkpt lat="42.02869" lon="21.09265">
        <ele>436.516046</ele>
        <time>2022-04-23T10:59:35.502Z</time>
      </trkpt>
      <trkpt lat="42.02856" lon="21.09261">
        <ele>436.587768</ele>
        <time>2022-04-23T10:59:38.500Z</time>
      </trkpt>
      <trkpt lat="42.02845" lon="21.09255">
        <ele>436.775173</ele>
        <time>2022-04-23T10:59:40.518Z</time>
      </trkpt>
      <trkpt lat="42.02834" lon="21.09248">
        <ele>436.97826</ele>
        <time>2022-04-23T10:59:42.527Z</time>
      </trkpt>
      <trkpt lat="42.02823" lon="21.0924">
        <ele>437.170287</ele>
        <time>2022-04-23T10:59:44.545Z</time>
      </trkpt>
      <trkpt lat="42.02813" lon="21.09234">
        <ele>437.347849</ele>
        <time>2022-04-23T10:59:46.537Z</time>
      </trkpt>
      <trkpt lat="42.02803" lon="21.09228">
        <ele>437.518049</ele>
        <time>2022-04-23T10:59:48.545Z</time>
      </trkpt>
      <trkpt lat="42.02794" lon="21.09222">
        <ele>437.687401</ele>
        <time>2022-04-23T10:59:50.542Z</time>
      </trkpt>
      <trkpt lat="42.02785" lon="21.09216">
        <ele>437.855311</ele>
        <time>2022-04-23T10:59:52.493Z</time>
      </trkpt>
      <trkpt lat="42.02775" lon="21.0921">
        <ele>438.021583</ele>
        <time>2022-04-23T10:59:54.559Z</time>
      </trkpt>
      <trkpt lat="42.02765" lon="21.09204">
        <ele>438.201649</ele>
        <time>2022-04-23T10:59:56.495Z</time>
      </trkpt>
      <trkpt lat="42.02755" lon="21.09198">
        <ele>438.377245</ele>
        <time>2022-04-23T10:59:58.511Z</time>
      </trkpt>
      <trkpt lat="42.02745" lon="21.09192">
        <ele>438.551859</ele>
        <time>2022-04-23T11:00:00.517Z</time>
      </trkpt>
      <trkpt lat="42.02735" lon="21.09187">
        <ele>438.729274</ele>
        <time>2022-04-23T11:00:02.534Z</time>
      </trkpt>
      <trkpt lat="42.02726" lon="21.09181">
        <ele>438.8931</ele>
        <time>2022-04-23T11:00:04.531Z</time>
      </trkpt>
      <trkpt lat="42.02717" lon="21.09176">
        <ele>439.039957</ele>
        <time>2022-04-23T11:00:06.507Z</time>
      </trkpt>
      <trkpt lat="42.02708" lon="21.0917">
        <ele>439.208255</ele>
        <time>2022-04-23T11:00:08.520Z</time>
      </trkpt>
      <trkpt lat="42.02699" lon="21.09162">
        <ele>439.350206</ele>
        <time>2022-04-23T11:00:10.535Z</time>
      </trkpt>
      <trkpt lat="42.02692" lon="21.09153">
        <ele>439.402721</ele>
        <time>2022-04-23T11:00:12.529Z</time>
      </trkpt>
      <trkpt lat="42.02686" lon="21.09142">
        <ele>439.453425</ele>
        <time>2022-04-23T11:00:14.543Z</time>
      </trkpt>
      <trkpt lat="42.02682" lon="21.0913">
        <ele>439.505162</ele>
        <time>2022-04-23T11:00:16.533Z</time>
      </trkpt>
      <trkpt lat="42.02679" lon="21.09118">
        <ele>439.553295</ele>
        <time>2022-04-23T11:00:18.517Z</time>
      </trkpt>
      <trkpt lat="42.02677" lon="21.09105">
        <ele>439.606071</ele>
        <time>2022-04-23T11:00:20.492Z</time>
      </trkpt>
      <trkpt lat="42.02676" lon="21.09091">
        <ele>439.660037</ele>
        <time>2022-04-23T11:00:22.510Z</time>
      </trkpt>
      <trkpt lat="42.02676" lon="21.09078">
        <ele>439.714201</ele>
        <time>2022-04-23T11:00:24.571Z</time>
      </trkpt>
      <trkpt lat="42.02677" lon="21.09063">
        <ele>439.771475</ele>
        <time>2022-04-23T11:00:26.574Z</time>
      </trkpt>
      <trkpt lat="42.02678" lon="21.09049">
        <ele>439.826514</ele>
        <time>2022-04-23T11:00:28.514Z</time>
      </trkpt>
      <trkpt lat="42.02679" lon="21.09036">
        <ele>439.876729</ele>
        <time>2022-04-23T11:00:30.547Z</time>
      </trkpt>
      <trkpt lat="42.02679" lon="21.09019">
        <ele>439.944502</ele>
        <time>2022-04-23T11:00:33.541Z</time>
      </trkpt>
      <trkpt lat="42.02681" lon="21.09003">
        <ele>440.006761</ele>
        <time>2022-04-23T11:00:36.509Z</time>
      </trkpt>
      <trkpt lat="42.0268" lon="21.08987">
        <ele>440.068399</ele>
        <time>2022-04-23T11:00:39.505Z</time>
      </trkpt>
      <trkpt lat="42.02678" lon="21.0897">
        <ele>440.133939</ele>
        <time>2022-04-23T11:00:42.523Z</time>
      </trkpt>
      <trkpt lat="42.02677" lon="21.08958">
        <ele>440.182223</ele>
        <time>2022-04-23T11:00:44.522Z</time>
      </trkpt>
      <trkpt lat="42.02675" lon="21.08946">
        <ele>440.230058</ele>
        <time>2022-04-23T11:00:46.519Z</time>
      </trkpt>
      <trkpt lat="42.02673" lon="21.08934">
        <ele>440.28108</ele>
        <time>2022-04-23T11:00:48.539Z</time>
      </trkpt>
      <trkpt lat="42.0267" lon="21.08921">
        <ele>440.419251</ele>
        <time>2022-04-23T11:00:50.517Z</time>
      </trkpt>
      <trkpt lat="42.02668" lon="21.08909">
        <ele>440.552619</ele>
        <time>2022-04-23T11:00:52.511Z</time>
      </trkpt>
      <trkpt lat="42.02666" lon="21.08897">
        <ele>440.685033</ele>
        <time>2022-04-23T11:00:54.545Z</time>
      </trkpt>
      <trkpt lat="42.02663" lon="21.08885">
        <ele>440.817713</ele>
        <time>2022-04-23T11:00:56.517Z</time>
      </trkpt>
      <trkpt lat="42.0266" lon="21.08872">
        <ele>440.959755</ele>
        <time>2022-04-23T11:00:58.502Z</time>
      </trkpt>
      <trkpt lat="42.02657" lon="21.08858">
        <ele>441.116989</ele>
        <time>2022-04-23T11:01:00.574Z</time>
      </trkpt>
      <trkpt lat="42.02654" lon="21.08846">
        <ele>441.257667</ele>
        <time>2022-04-23T11:01:02.518Z</time>
      </trkpt>
      <trkpt lat="42.02651" lon="21.08834">
        <ele>441.38876</ele>
        <time>2022-04-23T11:01:04.524Z</time>
      </trkpt>
      <trkpt lat="42.02647" lon="21.08818">
        <ele>441.567061</ele>
        <time>2022-04-23T11:01:07.549Z</time>
      </trkpt>
      <trkpt lat="42.02641" lon="21.08803">
        <ele>441.747887</ele>
        <time>2022-04-23T11:01:10.508Z</time>
      </trkpt>
      <trkpt lat="42.02637" lon="21.08792">
        <ele>441.883096</ele>
        <time>2022-04-23T11:01:12.555Z</time>
      </trkpt>
      <trkpt lat="42.02633" lon="21.0878">
        <ele>442.021488</ele>
        <time>2022-04-23T11:01:14.521Z</time>
      </trkpt>
      <trkpt lat="42.02628" lon="21.08764">
        <ele>442.20812</ele>
        <time>2022-04-23T11:01:17.516Z</time>
      </trkpt>
      <trkpt lat="42.02623" lon="21.08754">
        <ele>442.337049</ele>
        <time>2022-04-23T11:01:19.520Z</time>
      </trkpt>
      <trkpt lat="42.02619" lon="21.08742">
        <ele>442.468128</ele>
        <time>2022-04-23T11:01:21.539Z</time>
      </trkpt>
      <trkpt lat="42.02615" lon="21.08731">
        <ele>442.606219</ele>
        <time>2022-04-23T11:01:23.502Z</time>
      </trkpt>
      <trkpt lat="42.0261" lon="21.08719">
        <ele>442.747744</ele>
        <time>2022-04-23T11:01:25.501Z</time>
      </trkpt>
      <trkpt lat="42.02605" lon="21.08708">
        <ele>442.848788</ele>
        <time>2022-04-23T11:01:27.538Z</time>
      </trkpt>
      <trkpt lat="42.02601" lon="21.08696">
        <ele>442.779779</ele>
        <time>2022-04-23T11:01:29.508Z</time>
      </trkpt>
      <trkpt lat="42.02596" lon="21.08686">
        <ele>442.713057</ele>
        <time>2022-04-23T11:01:31.530Z</time>
      </trkpt>
      <trkpt lat="42.02589" lon="21.08672">
        <ele>442.619661</ele>
        <time>2022-04-23T11:01:34.545Z</time>
      </trkpt>
      <trkpt lat="42.02582" lon="21.08663">
        <ele>442.54959</ele>
        <time>2022-04-23T11:01:36.517Z</time>
      </trkpt>
      <trkpt lat="42.02577" lon="21.08653">
        <ele>442.48304</ele>
        <time>2022-04-23T11:01:38.511Z</time>
      </trkpt>
      <trkpt lat="42.02569" lon="21.08639">
        <ele>442.3848</ele>
        <time>2022-04-23T11:01:41.531Z</time>
      </trkpt>
      <trkpt lat="42.02562" lon="21.08623">
        <ele>442.280982</ele>
        <time>2022-04-23T11:01:44.506Z</time>
      </trkpt>
      <trkpt lat="42.02556" lon="21.0861">
        <ele>442.197567</ele>
        <time>2022-04-23T11:01:46.503Z</time>
      </trkpt>
      <trkpt lat="42.02551" lon="21.08597">
        <ele>442.119906</ele>
        <time>2022-04-23T11:01:48.533Z</time>
      </trkpt>
      <trkpt lat="42.02546" lon="21.08586">
        <ele>442.048921</ele>
        <time>2022-04-23T11:01:50.504Z</time>
      </trkpt>
      <trkpt lat="42.02542" lon="21.08574">
        <ele>441.976469</ele>
        <time>2022-04-23T11:01:52.517Z</time>
      </trkpt>
      <trkpt lat="42.02536" lon="21.08562">
        <ele>441.896916</ele>
        <time>2022-04-23T11:01:54.510Z</time>
      </trkpt>
      <trkpt lat="42.0253" lon="21.08551">
        <ele>441.821532</ele>
        <time>2022-04-23T11:01:56.539Z</time>
      </trkpt>
      <trkpt lat="42.02523" lon="21.08541">
        <ele>441.748265</ele>
        <time>2022-04-23T11:01:58.506Z</time>
      </trkpt>
      <trkpt lat="42.02517" lon="21.08531">
        <ele>441.67942</ele>
        <time>2022-04-23T11:02:00.529Z</time>
      </trkpt>
      <trkpt lat="42.02511" lon="21.08521">
        <ele>441.607562</ele>
        <time>2022-04-23T11:02:02.497Z</time>
      </trkpt>
      <trkpt lat="42.02507" lon="21.08511">
        <ele>441.540761</ele>
        <time>2022-04-23T11:02:04.523Z</time>
      </trkpt>
      <trkpt lat="42.025" lon="21.08495">
        <ele>441.460041</ele>
        <time>2022-04-23T11:02:07.517Z</time>
      </trkpt>
      <trkpt lat="42.02497" lon="21.08483">
        <ele>441.400955</ele>
        <time>2022-04-23T11:02:09.523Z</time>
      </trkpt>
      <trkpt lat="42.02494" lon="21.0847">
        <ele>441.339567</ele>
        <time>2022-04-23T11:02:11.513Z</time>
      </trkpt>
      <trkpt lat="42.02491" lon="21.08457">
        <ele>441.275171</ele>
        <time>2022-04-23T11:02:13.500Z</time>
      </trkpt>
      <trkpt lat="42.02487" lon="21.08443">
        <ele>441.207073</ele>
        <time>2022-04-23T11:02:15.537Z</time>
      </trkpt>
      <trkpt lat="42.02483" lon="21.08428">
        <ele>441.13488</ele>
        <time>2022-04-23T11:02:17.524Z</time>
      </trkpt>
      <trkpt lat="42.02475" lon="21.08414">
        <ele>441.057068</ele>
        <time>2022-04-23T11:02:19.506Z</time>
      </trkpt>
      <trkpt lat="42.02468" lon="21.08402">
        <ele>440.987532</ele>
        <time>2022-04-23T11:02:21.547Z</time>
      </trkpt>
      <trkpt lat="42.02461" lon="21.08393">
        <ele>440.926885</ele>
        <time>2022-04-23T11:02:23.514Z</time>
      </trkpt>
      <trkpt lat="42.02454" lon="21.08383">
        <ele>440.865117</ele>
        <time>2022-04-23T11:02:25.521Z</time>
      </trkpt>
      <trkpt lat="42.02449" lon="21.08372">
        <ele>440.804776</ele>
        <time>2022-04-23T11:02:27.525Z</time>
      </trkpt>
      <trkpt lat="42.02445" lon="21.0836">
        <ele>440.744858</ele>
        <time>2022-04-23T11:02:29.501Z</time>
      </trkpt>
      <trkpt lat="42.02438" lon="21.08344">
        <ele>440.663415</ele>
        <time>2022-04-23T11:02:32.511Z</time>
      </trkpt>
      <trkpt lat="42.02432" lon="21.08328">
        <ele>440.583266</ele>
        <time>2022-04-23T11:02:35.505Z</time>
      </trkpt>
      <trkpt lat="42.02426" lon="21.08314">
        <ele>440.506691</ele>
        <time>2022-04-23T11:02:38.495Z</time>
      </trkpt>
      <trkpt lat="42.02422" lon="21.08303">
        <ele>440.450468</ele>
        <time>2022-04-23T11:02:40.520Z</time>
      </trkpt>
      <trkpt lat="42.02416" lon="21.08291">
        <ele>440.431174</ele>
        <time>2022-04-23T11:02:42.576Z</time>
      </trkpt>
      <trkpt lat="42.02411" lon="21.08279">
        <ele>440.428184</ele>
        <time>2022-04-23T11:02:44.518Z</time>
      </trkpt>
      <trkpt lat="42.02406" lon="21.08267">
        <ele>440.425275</ele>
        <time>2022-04-23T11:02:46.501Z</time>
      </trkpt>
      <trkpt lat="42.02401" lon="21.08257">
        <ele>440.422535</ele>
        <time>2022-04-23T11:02:48.491Z</time>
      </trkpt>
      <trkpt lat="42.02395" lon="21.08242">
        <ele>440.418875</ele>
        <time>2022-04-23T11:02:51.496Z</time>
      </trkpt>
      <trkpt lat="42.02389" lon="21.08228">
        <ele>440.415431</ele>
        <time>2022-04-23T11:02:54.495Z</time>
      </trkpt>
      <trkpt lat="42.02383" lon="21.08214">
        <ele>440.411931</ele>
        <time>2022-04-23T11:02:57.535Z</time>
      </trkpt>
      <trkpt lat="42.02377" lon="21.082">
        <ele>440.408332</ele>
        <time>2022-04-23T11:03:00.493Z</time>
      </trkpt>
      <trkpt lat="42.02373" lon="21.08185">
        <ele>440.404932</ele>
        <time>2022-04-23T11:03:03.493Z</time>
      </trkpt>
      <trkpt lat="42.02369" lon="21.08171">
        <ele>440.401652</ele>
        <time>2022-04-23T11:03:06.514Z</time>
      </trkpt>
      <trkpt lat="42.02364" lon="21.08156">
        <ele>440.398282</ele>
        <time>2022-04-23T11:03:09.566Z</time>
      </trkpt>
      <trkpt lat="42.02361" lon="21.08142">
        <ele>440.395081</ele>
        <time>2022-04-23T11:03:12.501Z</time>
      </trkpt>
      <trkpt lat="42.02356" lon="21.08131">
        <ele>440.392243</ele>
        <time>2022-04-23T11:03:15.509Z</time>
      </trkpt>
      <trkpt lat="42.02351" lon="21.08118">
        <ele>440.389008</ele>
        <time>2022-04-23T11:03:19.587Z</time>
      </trkpt>
      <trkpt lat="42.0234" lon="21.08111">
        <ele>440.385577</ele>
        <time>2022-04-23T11:03:23.509Z</time>
      </trkpt>
      <trkpt lat="42.0233" lon="21.08117">
        <ele>440.382261</ele>
        <time>2022-04-23T11:03:26.499Z</time>
      </trkpt>
      <trkpt lat="42.0232" lon="21.08127">
        <ele>440.169758</ele>
        <time>2022-04-23T11:03:29.504Z</time>
      </trkpt>
      <trkpt lat="42.02312" lon="21.08133">
        <ele>439.887848</ele>
        <time>2022-04-23T11:03:31.600Z</time>
      </trkpt>
      <trkpt lat="42.02303" lon="21.08141">
        <ele>439.607942</ele>
        <time>2022-04-23T11:03:33.515Z</time>
      </trkpt>
      <trkpt lat="42.02294" lon="21.0815">
        <ele>439.294294</ele>
        <time>2022-04-23T11:03:35.533Z</time>
      </trkpt>
      <trkpt lat="42.02281" lon="21.08162">
        <ele>438.851306</ele>
        <time>2022-04-23T11:03:37.518Z</time>
      </trkpt>
      <trkpt lat="42.02267" lon="21.08173">
        <ele>438.403785</ele>
        <time>2022-04-23T11:03:39.498Z</time>
      </trkpt>
      <trkpt lat="42.02253" lon="21.08184">
        <ele>437.944293</ele>
        <time>2022-04-23T11:03:41.545Z</time>
      </trkpt>
      <trkpt lat="42.02242" lon="21.08196">
        <ele>437.544824</ele>
        <time>2022-04-23T11:03:43.500Z</time>
      </trkpt>
      <trkpt lat="42.0223" lon="21.08206">
        <ele>437.163127</ele>
        <time>2022-04-23T11:03:45.523Z</time>
      </trkpt>
      <trkpt lat="42.02219" lon="21.08217">
        <ele>436.775068</ele>
        <time>2022-04-23T11:03:47.537Z</time>
      </trkpt>
      <trkpt lat="42.02208" lon="21.08228">
        <ele>436.39644</ele>
        <time>2022-04-23T11:03:49.492Z</time>
      </trkpt>
      <trkpt lat="42.02197" lon="21.08238">
        <ele>436.029664</ele>
        <time>2022-04-23T11:03:51.508Z</time>
      </trkpt>
      <trkpt lat="42.02185" lon="21.08245">
        <ele>435.670927</ele>
        <time>2022-04-23T11:03:53.496Z</time>
      </trkpt>
      <trkpt lat="42.02173" lon="21.08247">
        <ele>435.385647</ele>
        <time>2022-04-23T11:03:55.509Z</time>
      </trkpt>
      <trkpt lat="42.02161" lon="21.08246">
        <ele>435.580011</ele>
        <time>2022-04-23T11:03:57.518Z</time>
      </trkpt>
      <trkpt lat="42.02149" lon="21.08244">
        <ele>435.781879</ele>
        <time>2022-04-23T11:03:59.502Z</time>
      </trkpt>
      <trkpt lat="42.02138" lon="21.08241">
        <ele>435.961966</ele>
        <time>2022-04-23T11:04:01.508Z</time>
      </trkpt>
      <trkpt lat="42.02129" lon="21.08237">
        <ele>436.114201</ele>
        <time>2022-04-23T11:04:03.509Z</time>
      </trkpt>
      <trkpt lat="42.02116" lon="21.0823">
        <ele>436.337718</ele>
        <time>2022-04-23T11:04:06.495Z</time>
      </trkpt>
      <trkpt lat="42.02106" lon="21.08222">
        <ele>436.532198</ele>
        <time>2022-04-23T11:04:09.526Z</time>
      </trkpt>
      <trkpt lat="42.02095" lon="21.08214">
        <ele>436.726078</ele>
        <time>2022-04-23T11:04:12.513Z</time>
      </trkpt>
      <trkpt lat="42.02086" lon="21.08205">
        <ele>436.912302</ele>
        <time>2022-04-23T11:04:15.505Z</time>
      </trkpt>
      <trkpt lat="42.02077" lon="21.08197">
        <ele>437.095806</ele>
        <time>2022-04-23T11:04:18.506Z</time>
      </trkpt>
      <trkpt lat="42.02066" lon="21.08187">
        <ele>437.299917</ele>
        <time>2022-04-23T11:04:21.502Z</time>
      </trkpt>
      <trkpt lat="42.02055" lon="21.08179">
        <ele>437.503636</ele>
        <time>2022-04-23T11:04:24.507Z</time>
      </trkpt>
      <trkpt lat="42.02045" lon="21.08171">
        <ele>437.696113</ele>
        <time>2022-04-23T11:04:27.507Z</time>
      </trkpt>
      <trkpt lat="42.02037" lon="21.08164">
        <ele>437.848342</ele>
        <time>2022-04-23T11:04:29.613Z</time>
      </trkpt>
      <trkpt lat="42.02028" lon="21.08159">
        <ele>437.998971</ele>
        <time>2022-04-23T11:04:31.498Z</time>
      </trkpt>
      <trkpt lat="42.02019" lon="21.08155">
        <ele>438.152379</ele>
        <time>2022-04-23T11:04:33.513Z</time>
      </trkpt>
      <trkpt lat="42.02009" lon="21.08151">
        <ele>438.267525</ele>
        <time>2022-04-23T11:04:35.487Z</time>
      </trkpt>
      <trkpt lat="42.01998" lon="21.08147">
        <ele>438.238137</ele>
        <time>2022-04-23T11:04:37.523Z</time>
      </trkpt>
      <trkpt lat="42.01989" lon="21.08145">
        <ele>438.210457</ele>
        <time>2022-04-23T11:04:39.497Z</time>
      </trkpt>
      <trkpt lat="42.01976" lon="21.08141">
        <ele>438.174511</ele>
        <time>2022-04-23T11:04:42.505Z</time>
      </trkpt>
      <trkpt lat="42.01963" lon="21.08135">
        <ele>438.137359</ele>
        <time>2022-04-23T11:04:45.492Z</time>
      </trkpt>
      <trkpt lat="42.01952" lon="21.08129">
        <ele>438.104177</ele>
        <time>2022-04-23T11:04:48.512Z</time>
      </trkpt>
      <trkpt lat="42.01942" lon="21.08121">
        <ele>438.071956</ele>
        <time>2022-04-23T11:04:51.510Z</time>
      </trkpt>
      <trkpt lat="42.01934" lon="21.08111">
        <ele>438.041358</ele>
        <time>2022-04-23T11:04:54.536Z</time>
      </trkpt>
      <trkpt lat="42.0193" lon="21.08095">
        <ele>438.007058</ele>
        <time>2022-04-23T11:04:57.535Z</time>
      </trkpt>
      <trkpt lat="42.01926" lon="21.08078">
        <ele>437.972027</ele>
        <time>2022-04-23T11:05:00.545Z</time>
      </trkpt>
      <trkpt lat="42.01923" lon="21.08063">
        <ele>437.938901</ele>
        <time>2022-04-23T11:05:03.513Z</time>
      </trkpt>
      <trkpt lat="42.0192" lon="21.08048">
        <ele>437.907664</ele>
        <time>2022-04-23T11:05:06.499Z</time>
      </trkpt>
      <trkpt lat="42.01914" lon="21.08032">
        <ele>437.872134</ele>
        <time>2022-04-23T11:05:09.509Z</time>
      </trkpt>
      <trkpt lat="42.0191" lon="21.08021">
        <ele>437.84663</ele>
        <time>2022-04-23T11:05:11.520Z</time>
      </trkpt>
      <trkpt lat="42.01906" lon="21.08009">
        <ele>437.818809</ele>
        <time>2022-04-23T11:05:13.506Z</time>
      </trkpt>
      <trkpt lat="42.01901" lon="21.07997">
        <ele>437.791713</ele>
        <time>2022-04-23T11:05:15.518Z</time>
      </trkpt>
      <trkpt lat="42.01895" lon="21.07981">
        <ele>437.787208</ele>
        <time>2022-04-23T11:05:18.500Z</time>
      </trkpt>
      <trkpt lat="42.01892" lon="21.0797">
        <ele>437.792828</ele>
        <time>2022-04-23T11:05:20.545Z</time>
      </trkpt>
      <trkpt lat="42.01889" lon="21.07958">
        <ele>437.798596</ele>
        <time>2022-04-23T11:05:22.513Z</time>
      </trkpt>
      <trkpt lat="42.01885" lon="21.07947">
        <ele>437.804144</ele>
        <time>2022-04-23T11:05:24.533Z</time>
      </trkpt>
      <trkpt lat="42.01879" lon="21.07932">
        <ele>437.81192</ele>
        <time>2022-04-23T11:05:27.510Z</time>
      </trkpt>
      <trkpt lat="42.01875" lon="21.07921">
        <ele>437.817522</ele>
        <time>2022-04-23T11:05:29.516Z</time>
      </trkpt>
      <trkpt lat="42.01871" lon="21.0791">
        <ele>437.823098</ele>
        <time>2022-04-23T11:05:31.505Z</time>
      </trkpt>
      <trkpt lat="42.01867" lon="21.07899">
        <ele>437.828653</ele>
        <time>2022-04-23T11:05:33.505Z</time>
      </trkpt>
      <trkpt lat="42.01861" lon="21.07885">
        <ele>437.835967</ele>
        <time>2022-04-23T11:05:36.496Z</time>
      </trkpt>
      <trkpt lat="42.01857" lon="21.07872">
        <ele>437.842623</ele>
        <time>2022-04-23T11:05:39.511Z</time>
      </trkpt>
      <trkpt lat="42.01851" lon="21.07857">
        <ele>437.850428</ele>
        <time>2022-04-23T11:05:42.516Z</time>
      </trkpt>
      <trkpt lat="42.01846" lon="21.07841">
        <ele>437.858267</ele>
        <time>2022-04-23T11:05:45.529Z</time>
      </trkpt>
      <trkpt lat="42.01843" lon="21.07829">
        <ele>437.864065</ele>
        <time>2022-04-23T11:05:47.518Z</time>
      </trkpt>
      <trkpt lat="42.0184" lon="21.07817">
        <ele>437.869941</ele>
        <time>2022-04-23T11:05:49.497Z</time>
      </trkpt>
      <trkpt lat="42.01837" lon="21.07805">
        <ele>437.875669</ele>
        <time>2022-04-23T11:05:51.509Z</time>
      </trkpt>
      <trkpt lat="42.01833" lon="21.07794">
        <ele>437.881245</ele>
        <time>2022-04-23T11:05:53.494Z</time>
      </trkpt>
      <trkpt lat="42.01829" lon="21.07783">
        <ele>437.886916</ele>
        <time>2022-04-23T11:05:55.482Z</time>
      </trkpt>
      <trkpt lat="42.01823" lon="21.07767">
        <ele>437.927277</ele>
        <time>2022-04-23T11:05:58.493Z</time>
      </trkpt>
      <trkpt lat="42.01818" lon="21.07752">
        <ele>438.016989</ele>
        <time>2022-04-23T11:06:01.507Z</time>
      </trkpt>
      <trkpt lat="42.01814" lon="21.07737">
        <ele>438.108401</ele>
        <time>2022-04-23T11:06:04.489Z</time>
      </trkpt>
      <trkpt lat="42.0181" lon="21.07726">
        <ele>438.17584</ele>
        <time>2022-04-23T11:06:06.484Z</time>
      </trkpt>
      <trkpt lat="42.01805" lon="21.07709">
        <ele>438.272591</ele>
        <time>2022-04-23T11:06:09.502Z</time>
      </trkpt>
      <trkpt lat="42.018" lon="21.07693">
        <ele>438.372815</ele>
        <time>2022-04-23T11:06:12.502Z</time>
      </trkpt>
      <trkpt lat="42.01795" lon="21.07682">
        <ele>438.440661</ele>
        <time>2022-04-23T11:06:14.517Z</time>
      </trkpt>
      <trkpt lat="42.01789" lon="21.07667">
        <ele>438.535441</ele>
        <time>2022-04-23T11:06:17.509Z</time>
      </trkpt>
      <trkpt lat="42.01785" lon="21.07653">
        <ele>438.618096</ele>
        <time>2022-04-23T11:06:20.506Z</time>
      </trkpt>
      <trkpt lat="42.01781" lon="21.07639">
        <ele>438.702411</ele>
        <time>2022-04-23T11:06:23.505Z</time>
      </trkpt>
      <trkpt lat="42.01776" lon="21.07625">
        <ele>438.787993</ele>
        <time>2022-04-23T11:06:26.524Z</time>
      </trkpt>
      <trkpt lat="42.01772" lon="21.07611">
        <ele>438.870517</ele>
        <time>2022-04-23T11:06:29.531Z</time>
      </trkpt>
      <trkpt lat="42.01767" lon="21.07597">
        <ele>438.957227</ele>
        <time>2022-04-23T11:06:32.514Z</time>
      </trkpt>
      <trkpt lat="42.01761" lon="21.07581">
        <ele>439.052508</ele>
        <time>2022-04-23T11:06:35.503Z</time>
      </trkpt>
      <trkpt lat="42.01757" lon="21.07566">
        <ele>439.144887</ele>
        <time>2022-04-23T11:06:38.501Z</time>
      </trkpt>
      <trkpt lat="42.01752" lon="21.07551">
        <ele>439.227597</ele>
        <time>2022-04-23T11:06:41.516Z</time>
      </trkpt>
      <trkpt lat="42.01748" lon="21.07535">
        <ele>439.215683</ele>
        <time>2022-04-23T11:06:44.519Z</time>
      </trkpt>
      <trkpt lat="42.01747" lon="21.07517">
        <ele>439.203291</ele>
        <time>2022-04-23T11:06:47.524Z</time>
      </trkpt>
      <trkpt lat="42.01749" lon="21.07505">
        <ele>439.194413</ele>
        <time>2022-04-23T11:06:49.553Z</time>
      </trkpt>
      <trkpt lat="42.01751" lon="21.07491">
        <ele>439.184859</ele>
        <time>2022-04-23T11:06:51.507Z</time>
      </trkpt>
      <trkpt lat="42.01754" lon="21.07478">
        <ele>439.175577</ele>
        <time>2022-04-23T11:06:53.510Z</time>
      </trkpt>
      <trkpt lat="42.01756" lon="21.07466">
        <ele>439.166296</ele>
        <time>2022-04-23T11:06:55.535Z</time>
      </trkpt>
      <trkpt lat="42.01759" lon="21.07454">
        <ele>439.157388</ele>
        <time>2022-04-23T11:06:57.558Z</time>
      </trkpt>
      <trkpt lat="42.01762" lon="21.07437">
        <ele>439.145563</ele>
        <time>2022-04-23T11:07:00.515Z</time>
      </trkpt>
      <trkpt lat="42.01763" lon="21.07422">
        <ele>439.135188</ele>
        <time>2022-04-23T11:07:03.555Z</time>
      </trkpt>
      <trkpt lat="42.01764" lon="21.07407">
        <ele>439.124467</ele>
        <time>2022-04-23T11:07:06.502Z</time>
      </trkpt>
      <trkpt lat="42.01767" lon="21.07391">
        <ele>439.112844</ele>
        <time>2022-04-23T11:07:09.504Z</time>
      </trkpt>
      <trkpt lat="42.0177" lon="21.07375">
        <ele>439.102009</ele>
        <time>2022-04-23T11:07:12.515Z</time>
      </trkpt>
      <trkpt lat="42.01772" lon="21.0736">
        <ele>439.090988</ele>
        <time>2022-04-23T11:07:15.495Z</time>
      </trkpt>
      <trkpt lat="42.01773" lon="21.07348">
        <ele>439.082556</ele>
        <time>2022-04-23T11:07:17.489Z</time>
      </trkpt>
      <trkpt lat="42.01772" lon="21.07334">
        <ele>439.073189</ele>
        <time>2022-04-23T11:07:19.505Z</time>
      </trkpt>
      <trkpt lat="42.01769" lon="21.07322">
        <ele>439.06411</ele>
        <time>2022-04-23T11:07:21.523Z</time>
      </trkpt>
      <trkpt lat="42.01765" lon="21.07311">
        <ele>439.058605</ele>
        <time>2022-04-23T11:07:23.521Z</time>
      </trkpt>
      <trkpt lat="42.01758" lon="21.07295">
        <ele>439.055898</ele>
        <time>2022-04-23T11:07:26.509Z</time>
      </trkpt>
      <trkpt lat="42.01752" lon="21.07287">
        <ele>439.054055</ele>
        <time>2022-04-23T11:07:28.499Z</time>
      </trkpt>
      <trkpt lat="42.01741" lon="21.07277">
        <ele>439.051356</ele>
        <time>2022-04-23T11:07:31.545Z</time>
      </trkpt>
      <trkpt lat="42.0173" lon="21.07268">
        <ele>439.048715</ele>
        <time>2022-04-23T11:07:34.509Z</time>
      </trkpt>
      <trkpt lat="42.0172" lon="21.07259">
        <ele>439.046293</ele>
        <time>2022-04-23T11:07:37.554Z</time>
      </trkpt>
      <trkpt lat="42.0171" lon="21.07251">
        <ele>439.043983</ele>
        <time>2022-04-23T11:07:40.502Z</time>
      </trkpt>
      <trkpt lat="42.01701" lon="21.07241">
        <ele>439.041579</ele>
        <time>2022-04-23T11:07:43.555Z</time>
      </trkpt>
      <trkpt lat="42.01691" lon="21.0723">
        <ele>439.039018</ele>
        <time>2022-04-23T11:07:46.519Z</time>
      </trkpt>
      <trkpt lat="42.01683" lon="21.07222">
        <ele>439.036881</ele>
        <time>2022-04-23T11:07:49.537Z</time>
      </trkpt>
      <trkpt lat="42.01673" lon="21.07212">
        <ele>439.034409</ele>
        <time>2022-04-23T11:07:52.514Z</time>
      </trkpt>
      <trkpt lat="42.01666" lon="21.07203">
        <ele>439.03245</ele>
        <time>2022-04-23T11:07:54.493Z</time>
      </trkpt>
      <trkpt lat="42.01659" lon="21.07195">
        <ele>439.030563</ele>
        <time>2022-04-23T11:07:56.540Z</time>
      </trkpt>
      <trkpt lat="42.01649" lon="21.07182">
        <ele>439.027694</ele>
        <time>2022-04-23T11:07:59.503Z</time>
      </trkpt>
      <trkpt lat="42.01645" lon="21.0717">
        <ele>439.025733</ele>
        <time>2022-04-23T11:08:01.509Z</time>
      </trkpt>
      <trkpt lat="42.01647" lon="21.07157">
        <ele>439.023742</ele>
        <time>2022-04-23T11:08:03.511Z</time>
      </trkpt>
      <trkpt lat="42.0165" lon="21.07146">
        <ele>439.083677</ele>
        <time>2022-04-23T11:08:05.500Z</time>
      </trkpt>
      <trkpt lat="42.01654" lon="21.0713">
        <ele>439.256388</ele>
        <time>2022-04-23T11:08:08.493Z</time>
      </trkpt>
      <trkpt lat="42.01659" lon="21.07113">
        <ele>439.439158</ele>
        <time>2022-04-23T11:08:11.522Z</time>
      </trkpt>
      <trkpt lat="42.01662" lon="21.07097">
        <ele>439.613219</ele>
        <time>2022-04-23T11:08:14.496Z</time>
      </trkpt>
      <trkpt lat="42.0166" lon="21.07081">
        <ele>439.776174</ele>
        <time>2022-04-23T11:08:17.501Z</time>
      </trkpt>
      <trkpt lat="42.01653" lon="21.07067">
        <ele>439.950035</ele>
        <time>2022-04-23T11:08:20.545Z</time>
      </trkpt>
      <trkpt lat="42.01645" lon="21.07055">
        <ele>440.1079</ele>
        <time>2022-04-23T11:08:23.518Z</time>
      </trkpt>
      <trkpt lat="42.01639" lon="21.07042">
        <ele>440.264722</ele>
        <time>2022-04-23T11:08:26.508Z</time>
      </trkpt>
      <trkpt lat="42.01632" lon="21.07029">
        <ele>440.435152</ele>
        <time>2022-04-23T11:08:29.505Z</time>
      </trkpt>
      <trkpt lat="42.01625" lon="21.07019">
        <ele>440.567728</ele>
        <time>2022-04-23T11:08:31.509Z</time>
      </trkpt>
      <trkpt lat="42.01618" lon="21.0701">
        <ele>440.703389</ele>
        <time>2022-04-23T11:08:33.534Z</time>
      </trkpt>
      <trkpt lat="42.01611" lon="21.07001">
        <ele>440.840463</ele>
        <time>2022-04-23T11:08:35.505Z</time>
      </trkpt>
      <trkpt lat="42.01605" lon="21.06991">
        <ele>440.970299</ele>
        <time>2022-04-23T11:08:37.522Z</time>
      </trkpt>
      <trkpt lat="42.016" lon="21.06977">
        <ele>441.123984</ele>
        <time>2022-04-23T11:08:40.490Z</time>
      </trkpt>
      <trkpt lat="42.01595" lon="21.06963">
        <ele>441.284974</ele>
        <time>2022-04-23T11:08:43.522Z</time>
      </trkpt>
      <trkpt lat="42.0159" lon="21.0695">
        <ele>441.430108</ele>
        <time>2022-04-23T11:08:46.484Z</time>
      </trkpt>
      <trkpt lat="42.01584" lon="21.06937">
        <ele>441.620155</ele>
        <time>2022-04-23T11:08:49.521Z</time>
      </trkpt>
      <trkpt lat="42.01578" lon="21.06927">
        <ele>441.775031</ele>
        <time>2022-04-23T11:08:51.515Z</time>
      </trkpt>
      <trkpt lat="42.01572" lon="21.06917">
        <ele>441.937272</ele>
        <time>2022-04-23T11:08:53.505Z</time>
      </trkpt>
      <trkpt lat="42.01565" lon="21.06903">
        <ele>442.148122</ele>
        <time>2022-04-23T11:08:56.539Z</time>
      </trkpt>
      <trkpt lat="42.01559" lon="21.06888">
        <ele>442.351492</ele>
        <time>2022-04-23T11:08:59.492Z</time>
      </trkpt>
      <trkpt lat="42.01554" lon="21.06873">
        <ele>442.559076</ele>
        <time>2022-04-23T11:09:02.545Z</time>
      </trkpt>
      <trkpt lat="42.01548" lon="21.0686">
        <ele>442.753176</ele>
        <time>2022-04-23T11:09:05.491Z</time>
      </trkpt>
      <trkpt lat="42.0154" lon="21.06847">
        <ele>442.95775</ele>
        <time>2022-04-23T11:09:08.483Z</time>
      </trkpt>
      <trkpt lat="42.01533" lon="21.0684">
        <ele>443.116363</ele>
        <time>2022-04-23T11:09:10.489Z</time>
      </trkpt>
      <trkpt lat="42.01525" lon="21.06832">
        <ele>443.274856</ele>
        <time>2022-04-23T11:09:12.509Z</time>
      </trkpt>
      <trkpt lat="42.01518" lon="21.06819">
        <ele>443.481015</ele>
        <time>2022-04-23T11:09:15.511Z</time>
      </trkpt>
      <trkpt lat="42.0151" lon="21.06808">
        <ele>443.665927</ele>
        <time>2022-04-23T11:09:18.537Z</time>
      </trkpt>
      <trkpt lat="42.01502" lon="21.06797">
        <ele>443.853131</ele>
        <time>2022-04-23T11:09:21.514Z</time>
      </trkpt>
      <trkpt lat="42.01493" lon="21.06785">
        <ele>444.072168</ele>
        <time>2022-04-23T11:09:24.504Z</time>
      </trkpt>
      <trkpt lat="42.01482" lon="21.06775">
        <ele>444.289021</ele>
        <time>2022-04-23T11:09:27.514Z</time>
      </trkpt>
      <trkpt lat="42.01474" lon="21.06764">
        <ele>444.481221</ele>
        <time>2022-04-23T11:09:30.506Z</time>
      </trkpt>
      <trkpt lat="42.01471" lon="21.06751">
        <ele>444.49781</ele>
        <time>2022-04-23T11:09:33.503Z</time>
      </trkpt>
      <trkpt lat="42.0147" lon="21.06738">
        <ele>444.487726</ele>
        <time>2022-04-23T11:09:36.567Z</time>
      </trkpt>
      <trkpt lat="42.01468" lon="21.06726">
        <ele>444.477851</ele>
        <time>2022-04-23T11:09:39.509Z</time>
      </trkpt>
      <trkpt lat="42.01467" lon="21.06713">
        <ele>444.467086</ele>
        <time>2022-04-23T11:09:42.491Z</time>
      </trkpt>
      <trkpt lat="42.01464" lon="21.06699">
        <ele>444.456358</ele>
        <time>2022-04-23T11:09:45.495Z</time>
      </trkpt>
      <trkpt lat="42.01463" lon="21.06685">
        <ele>444.44478</ele>
        <time>2022-04-23T11:09:48.504Z</time>
      </trkpt>
      <trkpt lat="42.01461" lon="21.06669">
        <ele>444.432334</ele>
        <time>2022-04-23T11:09:51.520Z</time>
      </trkpt>
      <trkpt lat="42.0146" lon="21.06654">
        <ele>444.420192</ele>
        <time>2022-04-23T11:09:54.497Z</time>
      </trkpt>
      <trkpt lat="42.01459" lon="21.06639">
        <ele>444.408711</ele>
        <time>2022-04-23T11:09:57.583Z</time>
      </trkpt>
      <trkpt lat="42.01456" lon="21.06624">
        <ele>444.39638</ele>
        <time>2022-04-23T11:10:00.503Z</time>
      </trkpt>
      <trkpt lat="42.01451" lon="21.06609">
        <ele>444.383219</ele>
        <time>2022-04-23T11:10:03.517Z</time>
      </trkpt>
      <trkpt lat="42.01446" lon="21.06598">
        <ele>444.373243</ele>
        <time>2022-04-23T11:10:05.523Z</time>
      </trkpt>
      <trkpt lat="42.01437" lon="21.06586">
        <ele>444.359741</ele>
        <time>2022-04-23T11:10:08.568Z</time>
      </trkpt>
      <trkpt lat="42.01427" lon="21.06578">
        <ele>444.347913</ele>
        <time>2022-04-23T11:10:11.518Z</time>
      </trkpt>
      <trkpt lat="42.01416" lon="21.06572">
        <ele>444.334714</ele>
        <time>2022-04-23T11:10:14.553Z</time>
      </trkpt>
      <trkpt lat="42.01407" lon="21.06569">
        <ele>444.325054</ele>
        <time>2022-04-23T11:10:16.496Z</time>
      </trkpt>
      <trkpt lat="42.01395" lon="21.06564">
        <ele>444.307616</ele>
        <time>2022-04-23T11:10:19.509Z</time>
      </trkpt>
      <trkpt lat="42.01384" lon="21.06556">
        <ele>444.283185</ele>
        <time>2022-04-23T11:10:22.502Z</time>
      </trkpt>
      <trkpt lat="42.01376" lon="21.0655">
        <ele>444.264817</ele>
        <time>2022-04-23T11:10:24.497Z</time>
      </trkpt>
      <trkpt lat="42.01368" lon="21.06542">
        <ele>444.246373</ele>
        <time>2022-04-23T11:10:26.510Z</time>
      </trkpt>
      <trkpt lat="42.01359" lon="21.06533">
        <ele>444.222689</ele>
        <time>2022-04-23T11:10:29.511Z</time>
      </trkpt>
      <trkpt lat="42.01348" lon="21.06523">
        <ele>444.198122</ele>
        <time>2022-04-23T11:10:32.504Z</time>
      </trkpt>
      <trkpt lat="42.01337" lon="21.06513">
        <ele>444.171269</ele>
        <time>2022-04-23T11:10:35.502Z</time>
      </trkpt>
      <trkpt lat="42.01329" lon="21.06505">
        <ele>444.152444</ele>
        <time>2022-04-23T11:10:37.533Z</time>
      </trkpt>
      <trkpt lat="42.01321" lon="21.06492">
        <ele>444.126215</ele>
        <time>2022-04-23T11:10:40.504Z</time>
      </trkpt>
      <trkpt lat="42.01314" lon="21.06482">
        <ele>444.107249</ele>
        <time>2022-04-23T11:10:42.534Z</time>
      </trkpt>
      <trkpt lat="42.01307" lon="21.06473">
        <ele>444.088143</ele>
        <time>2022-04-23T11:10:44.502Z</time>
      </trkpt>
      <trkpt lat="42.01297" lon="21.06461">
        <ele>444.062414</ele>
        <time>2022-04-23T11:10:47.525Z</time>
      </trkpt>
      <trkpt lat="42.01289" lon="21.06448">
        <ele>444.038191</ele>
        <time>2022-04-23T11:10:50.519Z</time>
      </trkpt>
      <trkpt lat="42.01281" lon="21.06435">
        <ele>444.012422</ele>
        <time>2022-04-23T11:10:53.483Z</time>
      </trkpt>
      <trkpt lat="42.01272" lon="21.06423">
        <ele>443.988264</ele>
        <time>2022-04-23T11:10:56.489Z</time>
      </trkpt>
      <trkpt lat="42.01262" lon="21.06412">
        <ele>443.962784</ele>
        <time>2022-04-23T11:10:59.505Z</time>
      </trkpt>
      <trkpt lat="42.01254" lon="21.06401">
        <ele>443.919987</ele>
        <time>2022-04-23T11:11:02.506Z</time>
      </trkpt>
      <trkpt lat="42.01244" lon="21.0639">
        <ele>443.876715</ele>
        <time>2022-04-23T11:11:05.516Z</time>
      </trkpt>
      <trkpt lat="42.01237" lon="21.06382">
        <ele>443.843922</ele>
        <time>2022-04-23T11:11:07.516Z</time>
      </trkpt>
      <trkpt lat="42.01229" lon="21.0637">
        <ele>443.798797</ele>
        <time>2022-04-23T11:11:10.494Z</time>
      </trkpt>
      <trkpt lat="42.01221" lon="21.06358">
        <ele>443.758271</ele>
        <time>2022-04-23T11:11:13.504Z</time>
      </trkpt>
      <trkpt lat="42.01215" lon="21.06345">
        <ele>443.716079</ele>
        <time>2022-04-23T11:11:16.503Z</time>
      </trkpt>
      <trkpt lat="42.01208" lon="21.06332">
        <ele>443.675811</ele>
        <time>2022-04-23T11:11:19.542Z</time>
      </trkpt>
      <trkpt lat="42.01202" lon="21.0632">
        <ele>443.636725</ele>
        <time>2022-04-23T11:11:22.502Z</time>
      </trkpt>
      <trkpt lat="42.01194" lon="21.06307">
        <ele>443.591178</ele>
        <time>2022-04-23T11:11:25.496Z</time>
      </trkpt>
      <trkpt lat="42.01187" lon="21.06298">
        <ele>443.557862</ele>
        <time>2022-04-23T11:11:27.515Z</time>
      </trkpt>
      <trkpt lat="42.01178" lon="21.06287">
        <ele>443.514399</ele>
        <time>2022-04-23T11:11:30.538Z</time>
      </trkpt>
      <trkpt lat="42.01168" lon="21.06275">
        <ele>443.467336</ele>
        <time>2022-04-23T11:11:33.504Z</time>
      </trkpt>
      <trkpt lat="42.01161" lon="21.06266">
        <ele>443.431894</ele>
        <time>2022-04-23T11:11:35.513Z</time>
      </trkpt>
      <trkpt lat="42.01151" lon="21.06255">
        <ele>443.385575</ele>
        <time>2022-04-23T11:11:38.486Z</time>
      </trkpt>
      <trkpt lat="42.01141" lon="21.06245">
        <ele>443.341447</ele>
        <time>2022-04-23T11:11:41.489Z</time>
      </trkpt>
      <trkpt lat="42.01133" lon="21.06234">
        <ele>443.410971</ele>
        <time>2022-04-23T11:11:45.511Z</time>
      </trkpt>
      <trkpt lat="42.01123" lon="21.06223">
        <ele>443.587572</ele>
        <time>2022-04-23T11:11:48.500Z</time>
      </trkpt>
      <trkpt lat="42.01116" lon="21.06216">
        <ele>443.719636</ele>
        <time>2022-04-23T11:11:50.498Z</time>
      </trkpt>
      <trkpt lat="42.01107" lon="21.06208">
        <ele>443.874148</ele>
        <time>2022-04-23T11:11:52.490Z</time>
      </trkpt>
      <trkpt lat="42.01098" lon="21.062">
        <ele>444.027359</ele>
        <time>2022-04-23T11:11:54.491Z</time>
      </trkpt>
      <trkpt lat="42.0109" lon="21.06192">
        <ele>444.161115</ele>
        <time>2022-04-23T11:11:56.496Z</time>
      </trkpt>
      <trkpt lat="42.0108" lon="21.06184">
        <ele>444.336135</ele>
        <time>2022-04-23T11:11:59.502Z</time>
      </trkpt>
      <trkpt lat="42.01071" lon="21.06175">
        <ele>444.494116</ele>
        <time>2022-04-23T11:12:02.506Z</time>
      </trkpt>
      <trkpt lat="42.01063" lon="21.06162">
        <ele>444.668997</ele>
        <time>2022-04-23T11:12:06.500Z</time>
      </trkpt>
      <trkpt lat="42.01052" lon="21.06151">
        <ele>444.861689</ele>
        <time>2022-04-23T11:12:09.530Z</time>
      </trkpt>
      <trkpt lat="42.01044" lon="21.06142">
        <ele>445.014474</ele>
        <time>2022-04-23T11:12:11.536Z</time>
      </trkpt>
      <trkpt lat="42.01035" lon="21.06132">
        <ele>445.179403</ele>
        <time>2022-04-23T11:12:14.521Z</time>
      </trkpt>
      <trkpt lat="42.01026" lon="21.06121">
        <ele>445.34117</ele>
        <time>2022-04-23T11:12:17.526Z</time>
      </trkpt>
      <trkpt lat="42.01015" lon="21.06111">
        <ele>445.532043</ele>
        <time>2022-04-23T11:12:20.538Z</time>
      </trkpt>
      <trkpt lat="42.01006" lon="21.06104">
        <ele>445.68142</ele>
        <time>2022-04-23T11:12:22.492Z</time>
      </trkpt>
      <trkpt lat="42.00997" lon="21.06094">
        <ele>445.846274</ele>
        <time>2022-04-23T11:12:25.496Z</time>
      </trkpt>
      <trkpt lat="42.00988" lon="21.06085">
        <ele>445.921005</ele>
        <time>2022-04-23T11:12:28.497Z</time>
      </trkpt>
      <trkpt lat="42.00979" lon="21.06075">
        <ele>445.971822</ele>
        <time>2022-04-23T11:12:31.514Z</time>
      </trkpt>
      <trkpt lat="42.00973" lon="21.06065">
        <ele>446.019123</ele>
        <time>2022-04-23T11:12:35.510Z</time>
      </trkpt>
      <trkpt lat="42.00967" lon="21.06054">
        <ele>446.062601</ele>
        <time>2022-04-23T11:12:39.498Z</time>
      </trkpt>
      <trkpt lat="42.00959" lon="21.06042">
        <ele>446.118277</ele>
        <time>2022-04-23T11:12:43.496Z</time>
      </trkpt>
      <trkpt lat="42.00952" lon="21.06028">
        <ele>446.174147</ele>
        <time>2022-04-23T11:12:46.515Z</time>
      </trkpt>
      <trkpt lat="42.00948" lon="21.06017">
        <ele>446.216403</ele>
        <time>2022-04-23T11:12:48.499Z</time>
      </trkpt>
      <trkpt lat="42.00943" lon="21.06004">
        <ele>446.265223</ele>
        <time>2022-04-23T11:12:50.506Z</time>
      </trkpt>
      <trkpt lat="42.00937" lon="21.05992">
        <ele>446.313711</ele>
        <time>2022-04-23T11:12:52.505Z</time>
      </trkpt>
      <trkpt lat="42.00931" lon="21.05982">
        <ele>446.359367</ele>
        <time>2022-04-23T11:12:54.496Z</time>
      </trkpt>
      <trkpt lat="42.00924" lon="21.05973">
        <ele>446.404124</ele>
        <time>2022-04-23T11:12:56.502Z</time>
      </trkpt>
      <trkpt lat="42.00916" lon="21.05964">
        <ele>446.450134</ele>
        <time>2022-04-23T11:12:58.520Z</time>
      </trkpt>
      <trkpt lat="42.00908" lon="21.05957">
        <ele>446.494541</ele>
        <time>2022-04-23T11:13:00.537Z</time>
      </trkpt>
      <trkpt lat="42.00898" lon="21.05949">
        <ele>446.545406</ele>
        <time>2022-04-23T11:13:02.505Z</time>
      </trkpt>
      <trkpt lat="42.0089" lon="21.05941">
        <ele>446.59214</ele>
        <time>2022-04-23T11:13:04.501Z</time>
      </trkpt>
      <trkpt lat="42.00881" lon="21.05933">
        <ele>446.638837</ele>
        <time>2022-04-23T11:13:06.546Z</time>
      </trkpt>
      <trkpt lat="42.00873" lon="21.05927">
        <ele>446.684493</ele>
        <time>2022-04-23T11:13:08.504Z</time>
      </trkpt>
      <trkpt lat="42.00865" lon="21.05921">
        <ele>446.767046</ele>
        <time>2022-04-23T11:13:10.501Z</time>
      </trkpt>
      <trkpt lat="42.00855" lon="21.05912">
        <ele>446.887962</ele>
        <time>2022-04-23T11:13:13.500Z</time>
      </trkpt>
      <trkpt lat="42.00847" lon="21.05905">
        <ele>447.000711</ele>
        <time>2022-04-23T11:13:16.497Z</time>
      </trkpt>
      <trkpt lat="42.00837" lon="21.05895">
        <ele>447.131745</ele>
        <time>2022-04-23T11:13:19.506Z</time>
      </trkpt>
      <trkpt lat="42.00826" lon="21.05886">
        <ele>447.26872</ele>
        <time>2022-04-23T11:13:22.521Z</time>
      </trkpt>
      <trkpt lat="42.00815" lon="21.05877">
        <ele>447.410949</ele>
        <time>2022-04-23T11:13:25.505Z</time>
      </trkpt>
      <trkpt lat="42.00805" lon="21.05868">
        <ele>447.544996</ele>
        <time>2022-04-23T11:13:28.514Z</time>
      </trkpt>
      <trkpt lat="42.00796" lon="21.05857">
        <ele>447.679325</ele>
        <time>2022-04-23T11:13:31.512Z</time>
      </trkpt>
      <trkpt lat="42.00787" lon="21.05845">
        <ele>447.816476</ele>
        <time>2022-04-23T11:13:34.497Z</time>
      </trkpt>
      <trkpt lat="42.00779" lon="21.05836">
        <ele>447.933754</ele>
        <time>2022-04-23T11:13:37.508Z</time>
      </trkpt>
      <trkpt lat="42.00772" lon="21.05827">
        <ele>448.03477</ele>
        <time>2022-04-23T11:13:39.514Z</time>
      </trkpt>
      <trkpt lat="42.00764" lon="21.05819">
        <ele>448.139401</ele>
        <time>2022-04-23T11:13:41.495Z</time>
      </trkpt>
      <trkpt lat="42.00758" lon="21.0581">
        <ele>448.241472</ele>
        <time>2022-04-23T11:13:43.500Z</time>
      </trkpt>
      <trkpt lat="42.00752" lon="21.05801">
        <ele>448.345027</ele>
        <time>2022-04-23T11:13:45.504Z</time>
      </trkpt>
      <trkpt lat="42.00744" lon="21.05787">
        <ele>448.480446</ele>
        <time>2022-04-23T11:13:48.499Z</time>
      </trkpt>
      <trkpt lat="42.00738" lon="21.05776">
        <ele>448.597022</ele>
        <time>2022-04-23T11:13:51.542Z</time>
      </trkpt>
      <trkpt lat="42.00728" lon="21.05765">
        <ele>448.601656</ele>
        <time>2022-04-23T11:13:54.482Z</time>
      </trkpt>
      <trkpt lat="42.00721" lon="21.05758">
        <ele>448.518595</ele>
        <time>2022-04-23T11:13:56.506Z</time>
      </trkpt>
      <trkpt lat="42.00714" lon="21.05751">
        <ele>448.435202</ele>
        <time>2022-04-23T11:13:58.517Z</time>
      </trkpt>
      <trkpt lat="42.00706" lon="21.05743">
        <ele>448.349198</ele>
        <time>2022-04-23T11:14:00.518Z</time>
      </trkpt>
      <trkpt lat="42.00695" lon="21.05735">
        <ele>448.229282</ele>
        <time>2022-04-23T11:14:03.511Z</time>
      </trkpt>
      <trkpt lat="42.00682" lon="21.05729">
        <ele>448.101499</ele>
        <time>2022-04-23T11:14:06.502Z</time>
      </trkpt>
      <trkpt lat="42.00673" lon="21.05724">
        <ele>448.012548</ele>
        <time>2022-04-23T11:14:08.540Z</time>
      </trkpt>
      <trkpt lat="42.00664" lon="21.0572">
        <ele>447.926091</ele>
        <time>2022-04-23T11:14:10.525Z</time>
      </trkpt>
      <trkpt lat="42.00652" lon="21.05714">
        <ele>447.806902</ele>
        <time>2022-04-23T11:14:13.493Z</time>
      </trkpt>
      <trkpt lat="42.0064" lon="21.05707">
        <ele>447.686251</ele>
        <time>2022-04-23T11:14:16.493Z</time>
      </trkpt>
      <trkpt lat="42.00631" lon="21.05702">
        <ele>447.599349</ele>
        <time>2022-04-23T11:14:18.500Z</time>
      </trkpt>
      <trkpt lat="42.00622" lon="21.05698">
        <ele>447.511069</ele>
        <time>2022-04-23T11:14:21.521Z</time>
      </trkpt>
      <trkpt lat="42.00611" lon="21.05694">
        <ele>447.406786</ele>
        <time>2022-04-23T11:14:24.515Z</time>
      </trkpt>
      <trkpt lat="42.00599" lon="21.05689">
        <ele>447.291039</ele>
        <time>2022-04-23T11:14:27.494Z</time>
      </trkpt>
      <trkpt lat="42.00587" lon="21.05685">
        <ele>447.180355</ele>
        <time>2022-04-23T11:14:30.517Z</time>
      </trkpt>
      <trkpt lat="42.00576" lon="21.05684">
        <ele>447.077137</ele>
        <time>2022-04-23T11:14:33.514Z</time>
      </trkpt>
      <trkpt lat="42.00563" lon="21.0569">
        <ele>447.174931</ele>
        <time>2022-04-23T11:14:36.504Z</time>
      </trkpt>
      <trkpt lat="42.00554" lon="21.05695">
        <ele>447.502147</ele>
        <time>2022-04-23T11:14:38.491Z</time>
      </trkpt>
      <trkpt lat="42.00543" lon="21.05699">
        <ele>447.849076</ele>
        <time>2022-04-23T11:14:40.490Z</time>
      </trkpt>
      <trkpt lat="42.00533" lon="21.05699">
        <ele>448.19096</ele>
        <time>2022-04-23T11:14:42.516Z</time>
      </trkpt>
      <trkpt lat="42.00519" lon="21.05696">
        <ele>448.62739</ele>
        <time>2022-04-23T11:14:45.505Z</time>
      </trkpt>
      <trkpt lat="42.00507" lon="21.05693">
        <ele>449.039789</ele>
        <time>2022-04-23T11:14:48.498Z</time>
      </trkpt>
      <trkpt lat="42.00495" lon="21.05688">
        <ele>449.428967</ele>
        <time>2022-04-23T11:14:51.524Z</time>
      </trkpt>
      <trkpt lat="42.00484" lon="21.05684">
        <ele>449.777635</ele>
        <time>2022-04-23T11:14:54.494Z</time>
      </trkpt>
      <trkpt lat="42.00474" lon="21.05678">
        <ele>450.134662</ele>
        <time>2022-04-23T11:14:57.522Z</time>
      </trkpt>
      <trkpt lat="42.00464" lon="21.05672">
        <ele>450.50801</ele>
        <time>2022-04-23T11:15:01.520Z</time>
      </trkpt>
      <trkpt lat="42.00455" lon="21.05665">
        <ele>450.81862</ele>
        <time>2022-04-23T11:15:04.531Z</time>
      </trkpt>
      <trkpt lat="42.00444" lon="21.0566">
        <ele>451.185111</ele>
        <time>2022-04-23T11:15:07.505Z</time>
      </trkpt>
      <trkpt lat="42.00434" lon="21.05654">
        <ele>451.530103</ele>
        <time>2022-04-23T11:15:10.496Z</time>
      </trkpt>
      <trkpt lat="42.00424" lon="21.05648">
        <ele>451.877016</ele>
        <time>2022-04-23T11:15:13.510Z</time>
      </trkpt>
      <trkpt lat="42.00414" lon="21.05652">
        <ele>452.225742</ele>
        <time>2022-04-23T11:15:16.500Z</time>
      </trkpt>
      <trkpt lat="42.00409" lon="21.05665">
        <ele>452.58246</ele>
        <time>2022-04-23T11:15:19.514Z</time>
      </trkpt>
      <trkpt lat="42.00401" lon="21.05672">
        <ele>452.613856</ele>
        <time>2022-04-23T11:15:22.487Z</time>
      </trkpt>
      <trkpt lat="42.00393" lon="21.05681">
        <ele>452.322369</ele>
        <time>2022-04-23T11:15:25.506Z</time>
      </trkpt>
      <trkpt lat="42.00384" lon="21.05693">
        <ele>451.956594</ele>
        <time>2022-04-23T11:15:28.491Z</time>
      </trkpt>
      <trkpt lat="42.00377" lon="21.05708">
        <ele>451.571983</ele>
        <time>2022-04-23T11:15:31.492Z</time>
      </trkpt>
      <trkpt lat="42.00371" lon="21.05717">
        <ele>451.302219</ele>
        <time>2022-04-23T11:15:33.512Z</time>
      </trkpt>
      <trkpt lat="42.00366" lon="21.05727">
        <ele>451.037587</ele>
        <time>2022-04-23T11:15:35.518Z</time>
      </trkpt>
      <trkpt lat="42.00359" lon="21.05737">
        <ele>450.764734</ele>
        <time>2022-04-23T11:15:37.512Z</time>
      </trkpt>
      <trkpt lat="42.00352" lon="21.05745">
        <ele>450.468254</ele>
        <time>2022-04-23T11:15:39.497Z</time>
      </trkpt>
      <trkpt lat="42.00344" lon="21.05753">
        <ele>450.189863</ele>
        <time>2022-04-23T11:15:41.513Z</time>
      </trkpt>
      <trkpt lat="42.00332" lon="21.05761">
        <ele>449.806535</ele>
        <time>2022-04-23T11:15:44.530Z</time>
      </trkpt>
      <trkpt lat="42.00322" lon="21.05763">
        <ele>449.501535</ele>
        <time>2022-04-23T11:15:46.512Z</time>
      </trkpt>
      <trkpt lat="42.00308" lon="21.05766">
        <ele>449.108412</ele>
        <time>2022-04-23T11:15:48.520Z</time>
      </trkpt>
      <trkpt lat="42.00297" lon="21.05766">
        <ele>448.77576</ele>
        <time>2022-04-23T11:15:50.544Z</time>
      </trkpt>
      <trkpt lat="42.00287" lon="21.05763">
        <ele>448.48103</ele>
        <time>2022-04-23T11:15:52.513Z</time>
      </trkpt>
      <trkpt lat="42.00278" lon="21.05761">
        <ele>448.202645</ele>
        <time>2022-04-23T11:15:54.504Z</time>
      </trkpt>
      <trkpt lat="42.00268" lon="21.05758">
        <ele>447.897538</ele>
        <time>2022-04-23T11:15:56.483Z</time>
      </trkpt>
      <trkpt lat="42.00257" lon="21.05755">
        <ele>447.579491</ele>
        <time>2022-04-23T11:15:58.510Z</time>
      </trkpt>
      <trkpt lat="42.00246" lon="21.05752">
        <ele>447.375543</ele>
        <time>2022-04-23T11:16:00.514Z</time>
      </trkpt>
      <trkpt lat="42.00237" lon="21.05749">
        <ele>447.217524</ele>
        <time>2022-04-23T11:16:02.557Z</time>
      </trkpt>
      <trkpt lat="42.00227" lon="21.05747">
        <ele>447.059152</ele>
        <time>2022-04-23T11:16:04.521Z</time>
      </trkpt>
      <trkpt lat="42.00215" lon="21.05747">
        <ele>446.878668</ele>
        <time>2022-04-23T11:16:06.494Z</time>
      </trkpt>
      <trkpt lat="42.00204" lon="21.05746">
        <ele>446.698011</ele>
        <time>2022-04-23T11:16:08.556Z</time>
      </trkpt>
      <trkpt lat="42.00193" lon="21.05745">
        <ele>446.519057</ele>
        <time>2022-04-23T11:16:10.516Z</time>
      </trkpt>
      <trkpt lat="42.00181" lon="21.05744">
        <ele>446.338466</ele>
        <time>2022-04-23T11:16:12.503Z</time>
      </trkpt>
      <trkpt lat="42.00171" lon="21.05743">
        <ele>446.17352</ele>
        <time>2022-04-23T11:16:14.540Z</time>
      </trkpt>
      <trkpt lat="42.00161" lon="21.05743">
        <ele>446.013527</ele>
        <time>2022-04-23T11:16:16.503Z</time>
      </trkpt>
      <trkpt lat="42.0015" lon="21.05742">
        <ele>445.850375</ele>
        <time>2022-04-23T11:16:18.502Z</time>
      </trkpt>
      <trkpt lat="42.0014" lon="21.05741">
        <ele>445.685509</ele>
        <time>2022-04-23T11:16:20.510Z</time>
      </trkpt>
      <trkpt lat="42.0013" lon="21.05741">
        <ele>445.532052</ele>
        <time>2022-04-23T11:16:22.503Z</time>
      </trkpt>
      <trkpt lat="42.00118" lon="21.05742">
        <ele>445.333954</ele>
        <time>2022-04-23T11:16:25.503Z</time>
      </trkpt>
      <trkpt lat="42.00107" lon="21.05742">
        <ele>445.15519</ele>
        <time>2022-04-23T11:16:28.543Z</time>
      </trkpt>
      <trkpt lat="42.00095" lon="21.0574">
        <ele>444.964422</ele>
        <time>2022-04-23T11:16:31.517Z</time>
      </trkpt>
      <trkpt lat="42.00083" lon="21.05739">
        <ele>444.785005</ele>
        <time>2022-04-23T11:16:34.501Z</time>
      </trkpt>
      <trkpt lat="42.0007" lon="21.05737">
        <ele>444.650519</ele>
        <time>2022-04-23T11:16:37.508Z</time>
      </trkpt>
      <trkpt lat="42.00061" lon="21.05737">
        <ele>444.639168</ele>
        <time>2022-04-23T11:16:39.531Z</time>
      </trkpt>
      <trkpt lat="42.00052" lon="21.05737">
        <ele>444.627818</ele>
        <time>2022-04-23T11:16:41.513Z</time>
      </trkpt>
      <trkpt lat="42.00039" lon="21.05736">
        <ele>444.611394</ele>
        <time>2022-04-23T11:16:44.517Z</time>
      </trkpt>
      <trkpt lat="42.00028" lon="21.05734">
        <ele>444.598746</ele>
        <time>2022-04-23T11:16:46.515Z</time>
      </trkpt>
      <trkpt lat="42.00017" lon="21.05733">
        <ele>444.58522</ele>
        <time>2022-04-23T11:16:48.500Z</time>
      </trkpt>
      <trkpt lat="42.00008" lon="21.05733">
        <ele>444.573001</ele>
        <time>2022-04-23T11:16:50.504Z</time>
      </trkpt>
      <trkpt lat="41.99995" lon="21.05733">
        <ele>444.556962</ele>
        <time>2022-04-23T11:16:53.494Z</time>
      </trkpt>
      <trkpt lat="41.99985" lon="21.05731">
        <ele>444.544626</ele>
        <time>2022-04-23T11:16:55.505Z</time>
      </trkpt>
      <trkpt lat="41.99974" lon="21.0573">
        <ele>444.531995</ele>
        <time>2022-04-23T11:16:57.559Z</time>
      </trkpt>
      <trkpt lat="41.99965" lon="21.05729">
        <ele>444.520232</ele>
        <time>2022-04-23T11:16:59.481Z</time>
      </trkpt>
      <trkpt lat="41.99956" lon="21.05727">
        <ele>444.5088</ele>
        <time>2022-04-23T11:17:01.520Z</time>
      </trkpt>
      <trkpt lat="41.99947" lon="21.05726">
        <ele>444.497367</ele>
        <time>2022-04-23T11:17:03.501Z</time>
      </trkpt>
      <trkpt lat="41.99936" lon="21.05724">
        <ele>444.483841</ele>
        <time>2022-04-23T11:17:06.505Z</time>
      </trkpt>
      <trkpt lat="41.99925" lon="21.05722">
        <ele>444.470624</ele>
        <time>2022-04-23T11:17:09.551Z</time>
      </trkpt>
      <trkpt lat="41.99915" lon="21.05719">
        <ele>444.45778</ele>
        <time>2022-04-23T11:17:12.508Z</time>
      </trkpt>
      <trkpt lat="41.99904" lon="21.05716">
        <ele>444.444305</ele>
        <time>2022-04-23T11:17:16.494Z</time>
      </trkpt>
      <trkpt lat="41.99892" lon="21.05715">
        <ele>444.463455</ele>
        <time>2022-04-23T11:17:19.496Z</time>
      </trkpt>
      <trkpt lat="41.99883" lon="21.05714">
        <ele>444.522446</ele>
        <time>2022-04-23T11:17:21.503Z</time>
      </trkpt>
      <trkpt lat="41.99871" lon="21.0571">
        <ele>444.602185</ele>
        <time>2022-04-23T11:17:24.530Z</time>
      </trkpt>
      <trkpt lat="41.9986" lon="21.05708">
        <ele>444.671711</ele>
        <time>2022-04-23T11:17:27.521Z</time>
      </trkpt>
      <trkpt lat="41.99851" lon="21.05705">
        <ele>444.731707</ele>
        <time>2022-04-23T11:17:29.541Z</time>
      </trkpt>
      <trkpt lat="41.9984" lon="21.05703">
        <ele>444.800194</ele>
        <time>2022-04-23T11:17:31.499Z</time>
      </trkpt>
      <trkpt lat="41.99831" lon="21.057">
        <ele>444.860529</ele>
        <time>2022-04-23T11:17:33.532Z</time>
      </trkpt>
      <trkpt lat="41.99819" lon="21.05697">
        <ele>444.935165</ele>
        <time>2022-04-23T11:17:36.554Z</time>
      </trkpt>
      <trkpt lat="41.9981" lon="21.05694">
        <ele>444.998415</ele>
        <time>2022-04-23T11:17:39.503Z</time>
      </trkpt>
      <trkpt lat="41.99798" lon="21.05691">
        <ele>445.073677</ele>
        <time>2022-04-23T11:17:43.499Z</time>
      </trkpt>
      <trkpt lat="41.99788" lon="21.05689">
        <ele>445.136202</ele>
        <time>2022-04-23T11:17:46.505Z</time>
      </trkpt>
      <trkpt lat="41.99778" lon="21.05686">
        <ele>445.201481</ele>
        <time>2022-04-23T11:17:49.521Z</time>
      </trkpt>
      <trkpt lat="41.99768" lon="21.05684">
        <ele>445.270447</ele>
        <time>2022-04-23T11:17:52.499Z</time>
      </trkpt>
      <trkpt lat="41.99757" lon="21.0568">
        <ele>445.338317</ele>
        <time>2022-04-23T11:17:55.498Z</time>
      </trkpt>
      <trkpt lat="41.99745" lon="21.05678">
        <ele>445.415837</ele>
        <time>2022-04-23T11:17:58.546Z</time>
      </trkpt>
      <trkpt lat="41.99734" lon="21.05676">
        <ele>445.487823</ele>
        <time>2022-04-23T11:18:01.508Z</time>
      </trkpt>
      <trkpt lat="41.99723" lon="21.05675">
        <ele>445.560496</ele>
        <time>2022-04-23T11:18:04.498Z</time>
      </trkpt>
      <trkpt lat="41.99711" lon="21.05675">
        <ele>445.516265</ele>
        <time>2022-04-23T11:18:07.512Z</time>
      </trkpt>
      <trkpt lat="41.99698" lon="21.05675">
        <ele>445.413867</ele>
        <time>2022-04-23T11:18:10.502Z</time>
      </trkpt>
      <trkpt lat="41.99687" lon="21.05674">
        <ele>445.325325</ele>
        <time>2022-04-23T11:18:13.511Z</time>
      </trkpt>
      <trkpt lat="41.99675" lon="21.05674">
        <ele>445.235351</ele>
        <time>2022-04-23T11:18:16.513Z</time>
      </trkpt>
      <trkpt lat="41.99662" lon="21.05672">
        <ele>445.132604</ele>
        <time>2022-04-23T11:18:19.505Z</time>
      </trkpt>
      <trkpt lat="41.99652" lon="21.05671">
        <ele>445.059039</ele>
        <time>2022-04-23T11:18:21.506Z</time>
      </trkpt>
      <trkpt lat="41.99643" lon="21.0567">
        <ele>444.986758</ele>
        <time>2022-04-23T11:18:23.541Z</time>
      </trkpt>
      <trkpt lat="41.99633" lon="21.0567">
        <ele>444.911513</ele>
        <time>2022-04-23T11:18:25.523Z</time>
      </trkpt>
      <trkpt lat="41.9962" lon="21.05669">
        <ele>444.809846</ele>
        <time>2022-04-23T11:18:28.532Z</time>
      </trkpt>
      <trkpt lat="41.99607" lon="21.05668">
        <ele>444.704203</ele>
        <time>2022-04-23T11:18:31.517Z</time>
      </trkpt>
      <trkpt lat="41.99597" lon="21.05667">
        <ele>444.628051</ele>
        <time>2022-04-23T11:18:33.513Z</time>
      </trkpt>
      <trkpt lat="41.99587" lon="21.05666">
        <ele>444.548767</ele>
        <time>2022-04-23T11:18:35.515Z</time>
      </trkpt>
      <trkpt lat="41.99577" lon="21.05666">
        <ele>444.476576</ele>
        <time>2022-04-23T11:18:37.510Z</time>
      </trkpt>
      <trkpt lat="41.99568" lon="21.05666">
        <ele>444.404433</ele>
        <time>2022-04-23T11:18:39.512Z</time>
      </trkpt>
      <trkpt lat="41.99556" lon="21.05665">
        <ele>444.310495</ele>
        <time>2022-04-23T11:18:42.514Z</time>
      </trkpt>
      <trkpt lat="41.99544" lon="21.05664">
        <ele>444.215725</ele>
        <time>2022-04-23T11:18:45.515Z</time>
      </trkpt>
      <trkpt lat="41.9953" lon="21.05662">
        <ele>444.350611</ele>
        <time>2022-04-23T11:18:48.560Z</time>
      </trkpt>
      <trkpt lat="41.9952" lon="21.05661">
        <ele>444.517982</ele>
        <time>2022-04-23T11:18:50.501Z</time>
      </trkpt>
      <trkpt lat="41.9951" lon="21.0566">
        <ele>444.680359</ele>
        <time>2022-04-23T11:18:52.509Z</time>
      </trkpt>
      <trkpt lat="41.99501" lon="21.0566">
        <ele>444.839045</ele>
        <time>2022-04-23T11:18:54.512Z</time>
      </trkpt>
      <trkpt lat="41.99488" lon="21.0566">
        <ele>445.056086</ele>
        <time>2022-04-23T11:18:57.531Z</time>
      </trkpt>
      <trkpt lat="41.99479" lon="21.0566">
        <ele>445.211312</ele>
        <time>2022-04-23T11:18:59.565Z</time>
      </trkpt>
      <trkpt lat="41.99469" lon="21.0566">
        <ele>445.369877</ele>
        <time>2022-04-23T11:19:01.511Z</time>
      </trkpt>
      <trkpt lat="41.99459" lon="21.0566">
        <ele>445.533468</ele>
        <time>2022-04-23T11:19:03.497Z</time>
      </trkpt>
      <trkpt lat="41.99449" lon="21.05659">
        <ele>445.697082</ele>
        <time>2022-04-23T11:19:05.513Z</time>
      </trkpt>
      <trkpt lat="41.9944" lon="21.05658">
        <ele>445.851359</ele>
        <time>2022-04-23T11:19:07.506Z</time>
      </trkpt>
      <trkpt lat="41.9943" lon="21.05656">
        <ele>446.026509</ele>
        <time>2022-04-23T11:19:09.513Z</time>
      </trkpt>
      <trkpt lat="41.99421" lon="21.05651">
        <ele>446.179643</ele>
        <time>2022-04-23T11:19:11.496Z</time>
      </trkpt>
      <trkpt lat="41.9941" lon="21.05643">
        <ele>446.395159</ele>
        <time>2022-04-23T11:19:14.504Z</time>
      </trkpt>
      <trkpt lat="41.99399" lon="21.05636">
        <ele>446.604527</ele>
        <time>2022-04-23T11:19:17.509Z</time>
      </trkpt>
      <trkpt lat="41.99387" lon="21.05628">
        <ele>446.826966</ele>
        <time>2022-04-23T11:19:20.511Z</time>
      </trkpt>
      <trkpt lat="41.99375" lon="21.05621">
        <ele>447.036728</ele>
        <time>2022-04-23T11:19:23.511Z</time>
      </trkpt>
      <trkpt lat="41.99367" lon="21.05615">
        <ele>447.187072</ele>
        <time>2022-04-23T11:19:25.509Z</time>
      </trkpt>
      <trkpt lat="41.99355" lon="21.05608">
        <ele>447.136893</ele>
        <time>2022-04-23T11:19:28.561Z</time>
      </trkpt>
      <trkpt lat="41.99346" lon="21.05604">
        <ele>447.101301</ele>
        <time>2022-04-23T11:19:30.499Z</time>
      </trkpt>
      <trkpt lat="41.99338" lon="21.05599">
        <ele>447.065849</ele>
        <time>2022-04-23T11:19:32.536Z</time>
      </trkpt>
      <trkpt lat="41.99326" lon="21.05592">
        <ele>447.016721</ele>
        <time>2022-04-23T11:19:35.516Z</time>
      </trkpt>
      <trkpt lat="41.99315" lon="21.05586">
        <ele>446.971229</ele>
        <time>2022-04-23T11:19:38.491Z</time>
      </trkpt>
      <trkpt lat="41.99306" lon="21.05584">
        <ele>446.935828</ele>
        <time>2022-04-23T11:19:40.498Z</time>
      </trkpt>
      <trkpt lat="41.99296" lon="21.05584">
        <ele>446.89775</ele>
        <time>2022-04-23T11:19:42.496Z</time>
      </trkpt>
      <trkpt lat="41.99284" lon="21.05592">
        <ele>446.846674</ele>
        <time>2022-04-23T11:19:45.513Z</time>
      </trkpt>
      <trkpt lat="41.99278" lon="21.05602">
        <ele>446.809888</ele>
        <time>2022-04-23T11:19:47.513Z</time>
      </trkpt>
      <trkpt lat="41.99273" lon="21.05612">
        <ele>446.774769</ele>
        <time>2022-04-23T11:19:49.524Z</time>
      </trkpt>
      <trkpt lat="41.99267" lon="21.05622">
        <ele>446.738721</ele>
        <time>2022-04-23T11:19:51.498Z</time>
      </trkpt>
      <trkpt lat="41.99261" lon="21.05632">
        <ele>446.702925</ele>
        <time>2022-04-23T11:19:53.504Z</time>
      </trkpt>
      <trkpt lat="41.99256" lon="21.05642">
        <ele>446.666906</ele>
        <time>2022-04-23T11:19:55.512Z</time>
      </trkpt>
      <trkpt lat="41.99251" lon="21.05652">
        <ele>446.631914</ele>
        <time>2022-04-23T11:19:57.521Z</time>
      </trkpt>
      <trkpt lat="41.99246" lon="21.05663">
        <ele>446.595945</ele>
        <time>2022-04-23T11:19:59.481Z</time>
      </trkpt>
      <trkpt lat="41.99241" lon="21.05674">
        <ele>446.556692</ele>
        <time>2022-04-23T11:20:01.488Z</time>
      </trkpt>
      <trkpt lat="41.99233" lon="21.05686">
        <ele>446.512367</ele>
        <time>2022-04-23T11:20:03.514Z</time>
      </trkpt>
      <trkpt lat="41.99226" lon="21.05698">
        <ele>446.402623</ele>
        <time>2022-04-23T11:20:05.503Z</time>
      </trkpt>
      <trkpt lat="41.9922" lon="21.0571">
        <ele>446.253474</ele>
        <time>2022-04-23T11:20:07.508Z</time>
      </trkpt>
      <trkpt lat="41.99214" lon="21.05722">
        <ele>446.108486</ele>
        <time>2022-04-23T11:20:09.512Z</time>
      </trkpt>
      <trkpt lat="41.99203" lon="21.05732">
        <ele>445.927236</ele>
        <time>2022-04-23T11:20:12.545Z</time>
      </trkpt>
      <trkpt lat="41.99193" lon="21.05737">
        <ele>445.781674</ele>
        <time>2022-04-23T11:20:14.502Z</time>
      </trkpt>
      <trkpt lat="41.99183" lon="21.0574">
        <ele>445.629302</ele>
        <time>2022-04-23T11:20:16.514Z</time>
      </trkpt>
      <trkpt lat="41.99171" lon="21.05744">
        <ele>445.470187</ele>
        <time>2022-04-23T11:20:18.506Z</time>
      </trkpt>
      <trkpt lat="41.99161" lon="21.05751">
        <ele>445.310965</ele>
        <time>2022-04-23T11:20:20.505Z</time>
      </trkpt>
      <trkpt lat="41.99151" lon="21.05758">
        <ele>445.154017</ele>
        <time>2022-04-23T11:20:22.492Z</time>
      </trkpt>
      <trkpt lat="41.99141" lon="21.05764">
        <ele>445.003627</ele>
        <time>2022-04-23T11:20:24.503Z</time>
      </trkpt>
      <trkpt lat="41.99132" lon="21.05767">
        <ele>444.871777</ele>
        <time>2022-04-23T11:20:26.501Z</time>
      </trkpt>
      <trkpt lat="41.99121" lon="21.05772">
        <ele>444.722759</ele>
        <time>2022-04-23T11:20:28.498Z</time>
      </trkpt>
      <trkpt lat="41.9911" lon="21.05777">
        <ele>444.560048</ele>
        <time>2022-04-23T11:20:30.508Z</time>
      </trkpt>
      <trkpt lat="41.99099" lon="21.05781">
        <ele>444.405681</ele>
        <time>2022-04-23T11:20:32.505Z</time>
      </trkpt>
      <trkpt lat="41.99089" lon="21.05785">
        <ele>444.265762</ele>
        <time>2022-04-23T11:20:34.494Z</time>
      </trkpt>
      <trkpt lat="41.99079" lon="21.0579">
        <ele>444.120647</ele>
        <time>2022-04-23T11:20:36.500Z</time>
      </trkpt>
      <trkpt lat="41.99069" lon="21.05795">
        <ele>443.977919</ele>
        <time>2022-04-23T11:20:38.489Z</time>
      </trkpt>
      <trkpt lat="41.99059" lon="21.058">
        <ele>443.843541</ele>
        <time>2022-04-23T11:20:40.497Z</time>
      </trkpt>
      <trkpt lat="41.99049" lon="21.05805">
        <ele>443.710027</ele>
        <time>2022-04-23T11:20:42.494Z</time>
      </trkpt>
      <trkpt lat="41.99039" lon="21.05809">
        <ele>443.577426</ele>
        <time>2022-04-23T11:20:44.497Z</time>
      </trkpt>
      <trkpt lat="41.99029" lon="21.05812">
        <ele>443.44597</ele>
        <time>2022-04-23T11:20:46.505Z</time>
      </trkpt>
      <trkpt lat="41.99018" lon="21.05814">
        <ele>443.311209</ele>
        <time>2022-04-23T11:20:48.488Z</time>
      </trkpt>
      <trkpt lat="41.99008" lon="21.05816">
        <ele>443.182279</ele>
        <time>2022-04-23T11:20:50.537Z</time>
      </trkpt>
      <trkpt lat="41.98998" lon="21.0582">
        <ele>443.051352</ele>
        <time>2022-04-23T11:20:52.477Z</time>
      </trkpt>
      <trkpt lat="41.98988" lon="21.05824">
        <ele>442.923328</ele>
        <time>2022-04-23T11:20:54.521Z</time>
      </trkpt>
      <trkpt lat="41.98978" lon="21.05827">
        <ele>442.802985</ele>
        <time>2022-04-23T11:20:56.554Z</time>
      </trkpt>
      <trkpt lat="41.98965" lon="21.05832">
        <ele>442.634854</ele>
        <time>2022-04-23T11:20:59.505Z</time>
      </trkpt>
      <trkpt lat="41.98956" lon="21.05835">
        <ele>442.514926</ele>
        <time>2022-04-23T11:21:01.504Z</time>
      </trkpt>
      <trkpt lat="41.98946" lon="21.05838">
        <ele>442.391478</ele>
        <time>2022-04-23T11:21:03.494Z</time>
      </trkpt>
      <trkpt lat="41.98937" lon="21.05842">
        <ele>442.271801</ele>
        <time>2022-04-23T11:21:05.516Z</time>
      </trkpt>
      <trkpt lat="41.98926" lon="21.05849">
        <ele>442.115216</ele>
        <time>2022-04-23T11:21:08.492Z</time>
      </trkpt>
      <trkpt lat="41.98914" lon="21.05858">
        <ele>441.949156</ele>
        <time>2022-04-23T11:21:11.526Z</time>
      </trkpt>
      <trkpt lat="41.98904" lon="21.05864">
        <ele>441.819424</ele>
        <time>2022-04-23T11:21:13.583Z</time>
      </trkpt>
      <trkpt lat="41.98894" lon="21.05866">
        <ele>441.907895</ele>
        <time>2022-04-23T11:21:15.508Z</time>
      </trkpt>
      <trkpt lat="41.98885" lon="21.05868">
        <ele>442.056794</ele>
        <time>2022-04-23T11:21:17.523Z</time>
      </trkpt>
      <trkpt lat="41.98872" lon="21.0587">
        <ele>442.253476</ele>
        <time>2022-04-23T11:21:20.507Z</time>
      </trkpt>
      <trkpt lat="41.98863" lon="21.05873">
        <ele>442.398374</ele>
        <time>2022-04-23T11:21:22.507Z</time>
      </trkpt>
      <trkpt lat="41.98853" lon="21.05875">
        <ele>442.546095</ele>
        <time>2022-04-23T11:21:24.499Z</time>
      </trkpt>
      <trkpt lat="41.98843" lon="21.05875">
        <ele>442.693874</ele>
        <time>2022-04-23T11:21:26.514Z</time>
      </trkpt>
      <trkpt lat="41.98833" lon="21.05874">
        <ele>442.849391</ele>
        <time>2022-04-23T11:21:28.526Z</time>
      </trkpt>
      <trkpt lat="41.98824" lon="21.05874">
        <ele>442.993856</ele>
        <time>2022-04-23T11:21:30.504Z</time>
      </trkpt>
      <trkpt lat="41.98814" lon="21.05875">
        <ele>443.135565</ele>
        <time>2022-04-23T11:21:32.509Z</time>
      </trkpt>
      <trkpt lat="41.98805" lon="21.05876">
        <ele>443.277633</ele>
        <time>2022-04-23T11:21:34.570Z</time>
      </trkpt>
      <trkpt lat="41.98792" lon="21.05878">
        <ele>443.472073</ele>
        <time>2022-04-23T11:21:37.501Z</time>
      </trkpt>
      <trkpt lat="41.98779" lon="21.05878">
        <ele>443.671281</ele>
        <time>2022-04-23T11:21:40.516Z</time>
      </trkpt>
      <trkpt lat="41.98769" lon="21.05879">
        <ele>443.819513</ele>
        <time>2022-04-23T11:21:42.487Z</time>
      </trkpt>
      <trkpt lat="41.98764" lon="21.05867">
        <ele>443.978066</ele>
        <time>2022-04-23T11:21:45.539Z</time>
      </trkpt>
      <trkpt lat="41.98763" lon="21.05853">
        <ele>444.147306</ele>
        <time>2022-04-23T11:21:51.481Z</time>
      </trkpt>
      <trkpt lat="41.98764" lon="21.0584">
        <ele>444.284483</ele>
        <time>2022-04-23T11:21:55.484Z</time>
      </trkpt>
      <trkpt lat="41.98765" lon="21.05826">
        <ele>444.452192</ele>
        <time>2022-04-23T11:21:59.521Z</time>
      </trkpt>
      <trkpt lat="41.98764" lon="21.05813">
        <ele>444.559134</ele>
        <time>2022-04-23T11:22:02.510Z</time>
      </trkpt>
      <trkpt lat="41.98764" lon="21.058">
        <ele>444.636173</ele>
        <time>2022-04-23T11:22:05.486Z</time>
      </trkpt>
      <trkpt lat="41.98764" lon="21.05785">
        <ele>444.719963</ele>
        <time>2022-04-23T11:22:08.513Z</time>
      </trkpt>
      <trkpt lat="41.98762" lon="21.0577">
        <ele>444.802758</ele>
        <time>2022-04-23T11:22:11.506Z</time>
      </trkpt>
      <trkpt lat="41.98762" lon="21.05756">
        <ele>444.88386</ele>
        <time>2022-04-23T11:22:14.500Z</time>
      </trkpt>
      <trkpt lat="41.98761" lon="21.05741">
        <ele>444.9644</ele>
        <time>2022-04-23T11:22:17.523Z</time>
      </trkpt>
      <trkpt lat="41.98761" lon="21.05726">
        <ele>445.05049</ele>
        <time>2022-04-23T11:22:20.514Z</time>
      </trkpt>
      <trkpt lat="41.98761" lon="21.05711">
        <ele>445.138242</ele>
        <time>2022-04-23T11:22:23.500Z</time>
      </trkpt>
      <trkpt lat="41.98759" lon="21.05694">
        <ele>445.232576</ele>
        <time>2022-04-23T11:22:26.510Z</time>
      </trkpt>
      <trkpt lat="41.98759" lon="21.05678">
        <ele>445.322663</ele>
        <time>2022-04-23T11:22:29.490Z</time>
      </trkpt>
      <trkpt lat="41.98759" lon="21.05662">
        <ele>445.413788</ele>
        <time>2022-04-23T11:22:32.508Z</time>
      </trkpt>
      <trkpt lat="41.98758" lon="21.05645">
        <ele>445.506821</ele>
        <time>2022-04-23T11:22:35.515Z</time>
      </trkpt>
      <trkpt lat="41.98758" lon="21.05628">
        <ele>445.603568</ele>
        <time>2022-04-23T11:22:38.488Z</time>
      </trkpt>
      <trkpt lat="41.98757" lon="21.05611">
        <ele>445.698845</ele>
        <time>2022-04-23T11:22:41.550Z</time>
      </trkpt>
      <trkpt lat="41.98756" lon="21.05595">
        <ele>445.788082</ele>
        <time>2022-04-23T11:22:44.505Z</time>
      </trkpt>
      <trkpt lat="41.98755" lon="21.05579">
        <ele>445.88019</ele>
        <time>2022-04-23T11:22:47.519Z</time>
      </trkpt>
      <trkpt lat="41.98753" lon="21.05562">
        <ele>445.918341</ele>
        <time>2022-04-23T11:22:50.519Z</time>
      </trkpt>
      <trkpt lat="41.98752" lon="21.05545">
        <ele>445.95264</ele>
        <time>2022-04-23T11:22:53.526Z</time>
      </trkpt>
      <trkpt lat="41.98752" lon="21.05529">
        <ele>445.986028</ele>
        <time>2022-04-23T11:22:56.513Z</time>
      </trkpt>
      <trkpt lat="41.98752" lon="21.05512">
        <ele>446.020425</ele>
        <time>2022-04-23T11:22:59.505Z</time>
      </trkpt>
      <trkpt lat="41.98752" lon="21.05495">
        <ele>446.055844</ele>
        <time>2022-04-23T11:23:02.521Z</time>
      </trkpt>
      <trkpt lat="41.98752" lon="21.05478">
        <ele>446.090009</ele>
        <time>2022-04-23T11:23:05.499Z</time>
      </trkpt>
      <trkpt lat="41.98752" lon="21.05462">
        <ele>446.123987</ele>
        <time>2022-04-23T11:23:08.498Z</time>
      </trkpt>
      <trkpt lat="41.98754" lon="21.05446">
        <ele>446.156323</ele>
        <time>2022-04-23T11:23:11.519Z</time>
      </trkpt>
      <trkpt lat="41.98757" lon="21.05431">
        <ele>446.187764</ele>
        <time>2022-04-23T11:23:14.513Z</time>
      </trkpt>
      <trkpt lat="41.98761" lon="21.05416">
        <ele>446.221573</ele>
        <time>2022-04-23T11:23:17.482Z</time>
      </trkpt>
      <trkpt lat="41.98765" lon="21.05399">
        <ele>446.257273</ele>
        <time>2022-04-23T11:23:20.547Z</time>
      </trkpt>
      <trkpt lat="41.98769" lon="21.05383">
        <ele>446.29084</ele>
        <time>2022-04-23T11:23:23.509Z</time>
      </trkpt>
      <trkpt lat="41.98773" lon="21.05368">
        <ele>446.324987</ele>
        <time>2022-04-23T11:23:26.526Z</time>
      </trkpt>
      <trkpt lat="41.98776" lon="21.05352">
        <ele>446.358281</ele>
        <time>2022-04-23T11:23:29.499Z</time>
      </trkpt>
      <trkpt lat="41.98779" lon="21.05336">
        <ele>446.394127</ele>
        <time>2022-04-23T11:23:32.543Z</time>
      </trkpt>
      <trkpt lat="41.98783" lon="21.0532">
        <ele>446.432555</ele>
        <time>2022-04-23T11:23:35.496Z</time>
      </trkpt>
      <trkpt lat="41.98786" lon="21.05305">
        <ele>446.469771</ele>
        <time>2022-04-23T11:23:38.526Z</time>
      </trkpt>
      <trkpt lat="41.98789" lon="21.05289">
        <ele>446.50859</ele>
        <time>2022-04-23T11:23:41.501Z</time>
      </trkpt>
      <trkpt lat="41.98791" lon="21.05274">
        <ele>446.545362</ele>
        <time>2022-04-23T11:23:44.520Z</time>
      </trkpt>
      <trkpt lat="41.98794" lon="21.05259">
        <ele>446.582577</ele>
        <time>2022-04-23T11:23:47.504Z</time>
      </trkpt>
      <trkpt lat="41.988" lon="21.05244">
        <ele>446.622985</ele>
        <time>2022-04-23T11:23:50.527Z</time>
      </trkpt>
      <trkpt lat="41.98807" lon="21.05229">
        <ele>446.664583</ele>
        <time>2022-04-23T11:23:53.512Z</time>
      </trkpt>
      <trkpt lat="41.9881" lon="21.05214">
        <ele>446.700573</ele>
        <time>2022-04-23T11:23:56.513Z</time>
      </trkpt>
      <trkpt lat="41.98813" lon="21.05199">
        <ele>446.738178</ele>
        <time>2022-04-23T11:23:59.508Z</time>
      </trkpt>
      <trkpt lat="41.98817" lon="21.05184">
        <ele>446.776351</ele>
        <time>2022-04-23T11:24:02.503Z</time>
      </trkpt>
      <trkpt lat="41.9882" lon="21.05169">
        <ele>446.812891</ele>
        <time>2022-04-23T11:24:05.534Z</time>
      </trkpt>
      <trkpt lat="41.98824" lon="21.05152">
        <ele>446.852962</ele>
        <time>2022-04-23T11:24:08.491Z</time>
      </trkpt>
      <trkpt lat="41.98828" lon="21.05136">
        <ele>446.893557</ele>
        <time>2022-04-23T11:24:11.482Z</time>
      </trkpt>
      <trkpt lat="41.98832" lon="21.05125">
        <ele>446.922777</ele>
        <time>2022-04-23T11:24:13.505Z</time>
      </trkpt>
      <trkpt lat="41.98836" lon="21.05108">
        <ele>447.013885</ele>
        <time>2022-04-23T11:24:16.505Z</time>
      </trkpt>
      <trkpt lat="41.9884" lon="21.05091">
        <ele>447.22058</ele>
        <time>2022-04-23T11:24:19.519Z</time>
      </trkpt>
      <trkpt lat="41.98844" lon="21.05074">
        <ele>447.429227</ele>
        <time>2022-04-23T11:24:22.487Z</time>
      </trkpt>
      <trkpt lat="41.98847" lon="21.05063">
        <ele>447.571925</ele>
        <time>2022-04-23T11:24:24.491Z</time>
      </trkpt>
      <trkpt lat="41.98851" lon="21.05052">
        <ele>447.716108</ele>
        <time>2022-04-23T11:24:26.541Z</time>
      </trkpt>
      <trkpt lat="41.98854" lon="21.05036">
        <ele>447.914794</ele>
        <time>2022-04-23T11:24:29.504Z</time>
      </trkpt>
      <trkpt lat="41.98857" lon="21.0502">
        <ele>448.102485</ele>
        <time>2022-04-23T11:24:32.553Z</time>
      </trkpt>
      <trkpt lat="41.98862" lon="21.05005">
        <ele>448.30297</ele>
        <time>2022-04-23T11:24:35.501Z</time>
      </trkpt>
      <trkpt lat="41.98865" lon="21.04988">
        <ele>448.50016</ele>
        <time>2022-04-23T11:24:38.542Z</time>
      </trkpt>
      <trkpt lat="41.98868" lon="21.04972">
        <ele>448.693331</ele>
        <time>2022-04-23T11:24:41.519Z</time>
      </trkpt>
      <trkpt lat="41.9887" lon="21.04956">
        <ele>448.890534</ele>
        <time>2022-04-23T11:24:44.493Z</time>
      </trkpt>
      <trkpt lat="41.98874" lon="21.04939">
        <ele>449.097347</ele>
        <time>2022-04-23T11:24:47.516Z</time>
      </trkpt>
      <trkpt lat="41.98877" lon="21.04922">
        <ele>449.303311</ele>
        <time>2022-04-23T11:24:50.523Z</time>
      </trkpt>
      <trkpt lat="41.9888" lon="21.04906">
        <ele>449.497826</ele>
        <time>2022-04-23T11:24:53.497Z</time>
      </trkpt>
      <trkpt lat="41.98883" lon="21.0489">
        <ele>449.694994</ele>
        <time>2022-04-23T11:24:56.511Z</time>
      </trkpt>
      <trkpt lat="41.98884" lon="21.04873">
        <ele>449.836814</ele>
        <time>2022-04-23T11:24:59.534Z</time>
      </trkpt>
      <trkpt lat="41.98885" lon="21.04857">
        <ele>449.914711</ele>
        <time>2022-04-23T11:25:02.541Z</time>
      </trkpt>
      <trkpt lat="41.98886" lon="21.04841">
        <ele>449.9901</ele>
        <time>2022-04-23T11:25:05.506Z</time>
      </trkpt>
      <trkpt lat="41.98886" lon="21.04825">
        <ele>450.063922</ele>
        <time>2022-04-23T11:25:08.496Z</time>
      </trkpt>
      <trkpt lat="41.98885" lon="21.04809">
        <ele>450.142042</ele>
        <time>2022-04-23T11:25:11.513Z</time>
      </trkpt>
      <trkpt lat="41.98886" lon="21.04792">
        <ele>450.219647</ele>
        <time>2022-04-23T11:25:14.502Z</time>
      </trkpt>
      <trkpt lat="41.98886" lon="21.04776">
        <ele>450.294866</ele>
        <time>2022-04-23T11:25:17.501Z</time>
      </trkpt>
      <trkpt lat="41.98886" lon="21.04761">
        <ele>450.368202</ele>
        <time>2022-04-23T11:25:20.512Z</time>
      </trkpt>
      <trkpt lat="41.98885" lon="21.04745">
        <ele>450.44201</ele>
        <time>2022-04-23T11:25:23.546Z</time>
      </trkpt>
      <trkpt lat="41.98885" lon="21.0473">
        <ele>450.512981</ele>
        <time>2022-04-23T11:25:26.514Z</time>
      </trkpt>
      <trkpt lat="41.98885" lon="21.04715">
        <ele>450.585384</ele>
        <time>2022-04-23T11:25:29.495Z</time>
      </trkpt>
      <trkpt lat="41.98885" lon="21.047">
        <ele>450.657292</ele>
        <time>2022-04-23T11:25:32.494Z</time>
      </trkpt>
      <trkpt lat="41.98885" lon="21.04685">
        <ele>450.72779</ele>
        <time>2022-04-23T11:25:35.511Z</time>
      </trkpt>
      <trkpt lat="41.98885" lon="21.0467">
        <ele>450.798276</ele>
        <time>2022-04-23T11:25:38.493Z</time>
      </trkpt>
      <trkpt lat="41.98885" lon="21.04655">
        <ele>450.868315</ele>
        <time>2022-04-23T11:25:41.521Z</time>
      </trkpt>
      <trkpt lat="41.98884" lon="21.0464">
        <ele>450.938872</ele>
        <time>2022-04-23T11:25:44.499Z</time>
      </trkpt>
      <trkpt lat="41.98884" lon="21.04625">
        <ele>451.05321</ele>
        <time>2022-04-23T11:25:47.525Z</time>
      </trkpt>
      <trkpt lat="41.98884" lon="21.04611">
        <ele>451.165809</ele>
        <time>2022-04-23T11:25:50.494Z</time>
      </trkpt>
      <trkpt lat="41.98884" lon="21.04596">
        <ele>451.283223</ele>
        <time>2022-04-23T11:25:53.501Z</time>
      </trkpt>
      <trkpt lat="41.98884" lon="21.04581">
        <ele>451.399687</ele>
        <time>2022-04-23T11:25:56.504Z</time>
      </trkpt>
      <trkpt lat="41.98883" lon="21.04567">
        <ele>451.505607</ele>
        <time>2022-04-23T11:25:59.493Z</time>
      </trkpt>
      <trkpt lat="41.98881" lon="21.04553">
        <ele>451.615886</ele>
        <time>2022-04-23T11:26:02.509Z</time>
      </trkpt>
      <trkpt lat="41.9888" lon="21.04539">
        <ele>451.730044</ele>
        <time>2022-04-23T11:26:05.510Z</time>
      </trkpt>
      <trkpt lat="41.98879" lon="21.04524">
        <ele>451.84596</ele>
        <time>2022-04-23T11:26:08.503Z</time>
      </trkpt>
      <trkpt lat="41.98879" lon="21.04509">
        <ele>451.966496</ele>
        <time>2022-04-23T11:26:11.504Z</time>
      </trkpt>
      <trkpt lat="41.98878" lon="21.04494">
        <ele>452.085866</ele>
        <time>2022-04-23T11:26:14.525Z</time>
      </trkpt>
      <trkpt lat="41.98877" lon="21.04479">
        <ele>452.196983</ele>
        <time>2022-04-23T11:26:17.499Z</time>
      </trkpt>
      <trkpt lat="41.98876" lon="21.04466">
        <ele>452.305848</ele>
        <time>2022-04-23T11:26:20.495Z</time>
      </trkpt>
      <trkpt lat="41.98875" lon="21.04451">
        <ele>452.416779</ele>
        <time>2022-04-23T11:26:23.507Z</time>
      </trkpt>
      <trkpt lat="41.98874" lon="21.04437">
        <ele>452.530291</ele>
        <time>2022-04-23T11:26:26.508Z</time>
      </trkpt>
      <trkpt lat="41.98873" lon="21.04422">
        <ele>452.648991</ele>
        <time>2022-04-23T11:26:29.535Z</time>
      </trkpt>
      <trkpt lat="41.98872" lon="21.04406">
        <ele>452.771928</ele>
        <time>2022-04-23T11:26:32.505Z</time>
      </trkpt>
      <trkpt lat="41.98871" lon="21.0439">
        <ele>452.86574</ele>
        <time>2022-04-23T11:26:35.494Z</time>
      </trkpt>
      <trkpt lat="41.9887" lon="21.04375">
        <ele>452.927051</ele>
        <time>2022-04-23T11:26:38.489Z</time>
      </trkpt>
      <trkpt lat="41.98869" lon="21.0436">
        <ele>452.987463</ele>
        <time>2022-04-23T11:26:41.497Z</time>
      </trkpt>
      <trkpt lat="41.98868" lon="21.04345">
        <ele>453.045427</ele>
        <time>2022-04-23T11:26:44.497Z</time>
      </trkpt>
      <trkpt lat="41.98867" lon="21.0433">
        <ele>453.104412</ele>
        <time>2022-04-23T11:26:47.514Z</time>
      </trkpt>
      <trkpt lat="41.98865" lon="21.04316">
        <ele>453.161841</ele>
        <time>2022-04-23T11:26:50.541Z</time>
      </trkpt>
      <trkpt lat="41.98864" lon="21.04301">
        <ele>453.219074</ele>
        <time>2022-04-23T11:26:53.503Z</time>
      </trkpt>
      <trkpt lat="41.98863" lon="21.04286">
        <ele>453.278993</ele>
        <time>2022-04-23T11:26:56.519Z</time>
      </trkpt>
      <trkpt lat="41.98862" lon="21.0427">
        <ele>453.340186</ele>
        <time>2022-04-23T11:26:59.498Z</time>
      </trkpt>
      <trkpt lat="41.9886" lon="21.04255">
        <ele>453.402732</ele>
        <time>2022-04-23T11:27:02.509Z</time>
      </trkpt>
      <trkpt lat="41.98859" lon="21.04239">
        <ele>453.465436</ele>
        <time>2022-04-23T11:27:05.517Z</time>
      </trkpt>
      <trkpt lat="41.98858" lon="21.04223">
        <ele>453.528582</ele>
        <time>2022-04-23T11:27:08.492Z</time>
      </trkpt>
      <trkpt lat="41.98856" lon="21.04206">
        <ele>453.593922</ele>
        <time>2022-04-23T11:27:11.516Z</time>
      </trkpt>
      <trkpt lat="41.98854" lon="21.04191">
        <ele>453.655114</ele>
        <time>2022-04-23T11:27:14.512Z</time>
      </trkpt>
      <trkpt lat="41.98853" lon="21.04175">
        <ele>453.718554</ele>
        <time>2022-04-23T11:27:17.514Z</time>
      </trkpt>
      <trkpt lat="41.98853" lon="21.04158">
        <ele>453.78374</ele>
        <time>2022-04-23T11:27:20.500Z</time>
      </trkpt>
      <trkpt lat="41.98852" lon="21.04142">
        <ele>453.625853</ele>
        <time>2022-04-23T11:27:23.558Z</time>
      </trkpt>
      <trkpt lat="41.98851" lon="21.04127">
        <ele>453.467382</ele>
        <time>2022-04-23T11:27:26.500Z</time>
      </trkpt>
      <trkpt lat="41.9885" lon="21.04111">
        <ele>453.306712</ele>
        <time>2022-04-23T11:27:29.535Z</time>
      </trkpt>
      <trkpt lat="41.98848" lon="21.04096">
        <ele>453.147751</ele>
        <time>2022-04-23T11:27:32.494Z</time>
      </trkpt>
      <trkpt lat="41.98847" lon="21.04081">
        <ele>452.99182</ele>
        <time>2022-04-23T11:27:35.503Z</time>
      </trkpt>
      <trkpt lat="41.98847" lon="21.04065">
        <ele>452.825614</ele>
        <time>2022-04-23T11:27:38.497Z</time>
      </trkpt>
      <trkpt lat="41.98846" lon="21.04049">
        <ele>452.663607</ele>
        <time>2022-04-23T11:27:41.482Z</time>
      </trkpt>
      <trkpt lat="41.98846" lon="21.04033">
        <ele>452.503926</ele>
        <time>2022-04-23T11:27:44.514Z</time>
      </trkpt>
      <trkpt lat="41.98847" lon="21.04018">
        <ele>452.345082</ele>
        <time>2022-04-23T11:27:47.526Z</time>
      </trkpt>
      <trkpt lat="41.98849" lon="21.04003">
        <ele>452.188348</ele>
        <time>2022-04-23T11:27:50.493Z</time>
      </trkpt>
      <trkpt lat="41.98851" lon="21.03988">
        <ele>452.028334</ele>
        <time>2022-04-23T11:27:53.512Z</time>
      </trkpt>
      <trkpt lat="41.98853" lon="21.03973">
        <ele>451.871583</ele>
        <time>2022-04-23T11:27:56.516Z</time>
      </trkpt>
      <trkpt lat="41.98855" lon="21.03958">
        <ele>451.719871</ele>
        <time>2022-04-23T11:27:59.508Z</time>
      </trkpt>
      <trkpt lat="41.98858" lon="21.03944">
        <ele>451.562833</ele>
        <time>2022-04-23T11:28:02.489Z</time>
      </trkpt>
      <trkpt lat="41.9886" lon="21.0393">
        <ele>451.415845</ele>
        <time>2022-04-23T11:28:05.524Z</time>
      </trkpt>
      <trkpt lat="41.98863" lon="21.03916">
        <ele>451.312671</ele>
        <time>2022-04-23T11:28:08.542Z</time>
      </trkpt>
      <trkpt lat="41.98866" lon="21.03902">
        <ele>451.428208</ele>
        <time>2022-04-23T11:28:11.495Z</time>
      </trkpt>
      <trkpt lat="41.98869" lon="21.03888">
        <ele>451.552446</ele>
        <time>2022-04-23T11:28:14.498Z</time>
      </trkpt>
      <trkpt lat="41.98872" lon="21.03873">
        <ele>451.675307</ele>
        <time>2022-04-23T11:28:17.515Z</time>
      </trkpt>
      <trkpt lat="41.98875" lon="21.03859">
        <ele>451.790777</ele>
        <time>2022-04-23T11:28:20.527Z</time>
      </trkpt>
      <trkpt lat="41.98878" lon="21.03846">
        <ele>451.903057</ele>
        <time>2022-04-23T11:28:23.503Z</time>
      </trkpt>
      <trkpt lat="41.98881" lon="21.03833">
        <ele>452.012689</ele>
        <time>2022-04-23T11:28:26.501Z</time>
      </trkpt>
      <trkpt lat="41.98884" lon="21.03821">
        <ele>452.121412</ele>
        <time>2022-04-23T11:28:29.506Z</time>
      </trkpt>
      <trkpt lat="41.98887" lon="21.03808">
        <ele>452.230603</ele>
        <time>2022-04-23T11:28:32.521Z</time>
      </trkpt>
      <trkpt lat="41.9889" lon="21.03795">
        <ele>452.339138</ele>
        <time>2022-04-23T11:28:35.508Z</time>
      </trkpt>
      <trkpt lat="41.98893" lon="21.03782">
        <ele>452.449103</ele>
        <time>2022-04-23T11:28:38.505Z</time>
      </trkpt>
      <trkpt lat="41.98896" lon="21.03769">
        <ele>452.562011</ele>
        <time>2022-04-23T11:28:41.495Z</time>
      </trkpt>
      <trkpt lat="41.98902" lon="21.03755">
        <ele>452.690847</ele>
        <time>2022-04-23T11:28:44.503Z</time>
      </trkpt>
      <trkpt lat="41.98907" lon="21.03742">
        <ele>452.813453</ele>
        <time>2022-04-23T11:28:47.520Z</time>
      </trkpt>
      <trkpt lat="41.9891" lon="21.03729">
        <ele>452.921987</ele>
        <time>2022-04-23T11:28:50.517Z</time>
      </trkpt>
      <trkpt lat="41.98913" lon="21.03716">
        <ele>453.033325</ele>
        <time>2022-04-23T11:28:53.590Z</time>
      </trkpt>
      <trkpt lat="41.98918" lon="21.03702">
        <ele>453.154237</ele>
        <time>2022-04-23T11:28:56.512Z</time>
      </trkpt>
      <trkpt lat="41.98922" lon="21.03688">
        <ele>453.256591</ele>
        <time>2022-04-23T11:28:59.502Z</time>
      </trkpt>
      <trkpt lat="41.98927" lon="21.03673">
        <ele>453.257199</ele>
        <time>2022-04-23T11:29:02.525Z</time>
      </trkpt>
      <trkpt lat="41.98932" lon="21.0366">
        <ele>453.257775</ele>
        <time>2022-04-23T11:29:05.501Z</time>
      </trkpt>
      <trkpt lat="41.98936" lon="21.03646">
        <ele>453.258335</ele>
        <time>2022-04-23T11:29:08.495Z</time>
      </trkpt>
      <trkpt lat="41.98939" lon="21.03633">
        <ele>453.258837</ele>
        <time>2022-04-23T11:29:11.512Z</time>
      </trkpt>
      <trkpt lat="41.98943" lon="21.03619">
        <ele>453.259408</ele>
        <time>2022-04-23T11:29:14.493Z</time>
      </trkpt>
      <trkpt lat="41.98947" lon="21.03604">
        <ele>453.259996</ele>
        <time>2022-04-23T11:29:17.511Z</time>
      </trkpt>
      <trkpt lat="41.98947" lon="21.03589">
        <ele>453.260564</ele>
        <time>2022-04-23T11:29:20.512Z</time>
      </trkpt>
      <trkpt lat="41.98934" lon="21.03582">
        <ele>453.261248</ele>
        <time>2022-04-23T11:29:23.487Z</time>
      </trkpt>
      <trkpt lat="41.98923" lon="21.0359">
        <ele>453.261862</ele>
        <time>2022-04-23T11:29:25.516Z</time>
      </trkpt>
      <trkpt lat="41.98916" lon="21.03598">
        <ele>453.262337</ele>
        <time>2022-04-23T11:29:27.513Z</time>
      </trkpt>
      <trkpt lat="41.98907" lon="21.03603">
        <ele>453.262827</ele>
        <time>2022-04-23T11:29:29.516Z</time>
      </trkpt>
      <trkpt lat="41.98898" lon="21.03607">
        <ele>453.263321</ele>
        <time>2022-04-23T11:29:31.522Z</time>
      </trkpt>
      <trkpt lat="41.98888" lon="21.03611">
        <ele>453.263828</ele>
        <time>2022-04-23T11:29:33.499Z</time>
      </trkpt>
      <trkpt lat="41.98878" lon="21.03615">
        <ele>453.264337</ele>
        <time>2022-04-23T11:29:35.502Z</time>
      </trkpt>
      <trkpt lat="41.98869" lon="21.03617">
        <ele>453.264801</ele>
        <time>2022-04-23T11:29:37.525Z</time>
      </trkpt>
      <trkpt lat="41.98858" lon="21.03619">
        <ele>453.265398</ele>
        <time>2022-04-23T11:29:40.499Z</time>
      </trkpt>
      <trkpt lat="41.98845" lon="21.03617">
        <ele>453.372447</ele>
        <time>2022-04-23T11:29:43.504Z</time>
      </trkpt>
      <trkpt lat="41.98835" lon="21.03615">
        <ele>453.480381</ele>
        <time>2022-04-23T11:29:45.488Z</time>
      </trkpt>
      <trkpt lat="41.98826" lon="21.03613">
        <ele>453.590556</ele>
        <time>2022-04-23T11:29:47.492Z</time>
      </trkpt>
      <trkpt lat="41.98813" lon="21.03609">
        <ele>453.742797</ele>
        <time>2022-04-23T11:29:50.499Z</time>
      </trkpt>
      <trkpt lat="41.988" lon="21.03604">
        <ele>453.888456</ele>
        <time>2022-04-23T11:29:53.519Z</time>
      </trkpt>
      <trkpt lat="41.98789" lon="21.03601">
        <ele>454.01978</ele>
        <time>2022-04-23T11:29:56.499Z</time>
      </trkpt>
      <trkpt lat="41.98778" lon="21.03597">
        <ele>454.147485</ele>
        <time>2022-04-23T11:29:59.495Z</time>
      </trkpt>
      <trkpt lat="41.98767" lon="21.03596">
        <ele>454.279573</ele>
        <time>2022-04-23T11:30:02.502Z</time>
      </trkpt>
      <trkpt lat="41.98756" lon="21.03599">
        <ele>454.407978</ele>
        <time>2022-04-23T11:30:05.495Z</time>
      </trkpt>
      <trkpt lat="41.98748" lon="21.03606">
        <ele>454.517139</ele>
        <time>2022-04-23T11:30:08.525Z</time>
      </trkpt>
      <trkpt lat="41.98742" lon="21.03616">
        <ele>454.625398</ele>
        <time>2022-04-23T11:30:12.511Z</time>
      </trkpt>
      <trkpt lat="41.98736" lon="21.03629">
        <ele>454.750463</ele>
        <time>2022-04-23T11:30:16.515Z</time>
      </trkpt>
      <trkpt lat="41.98733" lon="21.03643">
        <ele>454.877379</ele>
        <time>2022-04-23T11:30:20.501Z</time>
      </trkpt>
      <trkpt lat="41.9873" lon="21.03659">
        <ele>455.011085</ele>
        <time>2022-04-23T11:30:24.513Z</time>
      </trkpt>
      <trkpt lat="41.98729" lon="21.03672">
        <ele>455.118656</ele>
        <time>2022-04-23T11:30:26.523Z</time>
      </trkpt>
      <trkpt lat="41.98729" lon="21.03687">
        <ele>455.246797</ele>
        <time>2022-04-23T11:30:28.499Z</time>
      </trkpt>
      <trkpt lat="41.98731" lon="21.03703">
        <ele>455.136818</ele>
        <time>2022-04-23T11:30:30.509Z</time>
      </trkpt>
      <trkpt lat="41.98734" lon="21.03717">
        <ele>454.857108</ele>
        <time>2022-04-23T11:30:32.509Z</time>
      </trkpt>
      <trkpt lat="41.98734" lon="21.03733">
        <ele>454.558572</ele>
        <time>2022-04-23T11:30:35.528Z</time>
      </trkpt>
      <trkpt lat="41.98734" lon="21.03751">
        <ele>454.229039</ele>
        <time>2022-04-23T11:30:38.505Z</time>
      </trkpt>
      <trkpt lat="41.9873" lon="21.03768">
        <ele>453.893663</ele>
        <time>2022-04-23T11:30:41.506Z</time>
      </trkpt>
      <trkpt lat="41.98725" lon="21.03784">
        <ele>453.56964</ele>
        <time>2022-04-23T11:30:44.507Z</time>
      </trkpt>
      <trkpt lat="41.98718" lon="21.03797">
        <ele>453.285815</ele>
        <time>2022-04-23T11:30:47.507Z</time>
      </trkpt>
      <trkpt lat="41.98711" lon="21.03808">
        <ele>453.018242</ele>
        <time>2022-04-23T11:30:51.486Z</time>
      </trkpt>
      <trkpt lat="41.98704" lon="21.03816">
        <ele>452.79033</ele>
        <time>2022-04-23T11:30:54.525Z</time>
      </trkpt>
      <trkpt lat="41.98695" lon="21.03823">
        <ele>452.525804</ele>
        <time>2022-04-23T11:30:57.495Z</time>
      </trkpt>
      <trkpt lat="41.98685" lon="21.03831">
        <ele>452.249907</ele>
        <time>2022-04-23T11:31:00.467Z</time>
      </trkpt>
      <trkpt lat="41.98678" lon="21.03839">
        <ele>452.005685</ele>
        <time>2022-04-23T11:31:03.499Z</time>
      </trkpt>
      <trkpt lat="41.98671" lon="21.03847">
        <ele>451.770423</ele>
        <time>2022-04-23T11:31:06.537Z</time>
      </trkpt>
      <trkpt lat="41.98659" lon="21.03854">
        <ele>451.466678</ele>
        <time>2022-04-23T11:31:10.508Z</time>
      </trkpt>
      <trkpt lat="41.98649" lon="21.0386">
        <ele>451.191684</ele>
        <time>2022-04-23T11:31:13.518Z</time>
      </trkpt>
      <trkpt lat="41.98639" lon="21.03865">
        <ele>450.915373</ele>
        <time>2022-04-23T11:31:16.515Z</time>
      </trkpt>
      <trkpt lat="41.98628" lon="21.03871">
        <ele>450.843439</ele>
        <time>2022-04-23T11:31:19.526Z</time>
      </trkpt>
      <trkpt lat="41.98615" lon="21.03876">
        <ele>450.870816</ele>
        <time>2022-04-23T11:31:22.503Z</time>
      </trkpt>
      <trkpt lat="41.98603" lon="21.03881">
        <ele>450.897233</ele>
        <time>2022-04-23T11:31:25.484Z</time>
      </trkpt>
      <trkpt lat="41.98592" lon="21.03886">
        <ele>450.922251</ele>
        <time>2022-04-23T11:31:28.543Z</time>
      </trkpt>
      <trkpt lat="41.98581" lon="21.03892">
        <ele>450.947066</ele>
        <time>2022-04-23T11:31:31.595Z</time>
      </trkpt>
      <trkpt lat="41.98569" lon="21.03898">
        <ele>450.973083</ele>
        <time>2022-04-23T11:31:34.498Z</time>
      </trkpt>
      <trkpt lat="41.98557" lon="21.03906">
        <ele>451.001696</ele>
        <time>2022-04-23T11:31:37.574Z</time>
      </trkpt>
      <trkpt lat="41.98548" lon="21.0391">
        <ele>451.021323</ele>
        <time>2022-04-23T11:31:39.483Z</time>
      </trkpt>
      <trkpt lat="41.98536" lon="21.03916">
        <ele>451.048337</ele>
        <time>2022-04-23T11:31:42.487Z</time>
      </trkpt>
      <trkpt lat="41.98524" lon="21.03922">
        <ele>451.074744</ele>
        <time>2022-04-23T11:31:45.496Z</time>
      </trkpt>
      <trkpt lat="41.98516" lon="21.03927">
        <ele>451.094201</ele>
        <time>2022-04-23T11:31:47.560Z</time>
      </trkpt>
      <trkpt lat="41.98504" lon="21.03935">
        <ele>451.121418</ele>
        <time>2022-04-23T11:31:50.514Z</time>
      </trkpt>
      <trkpt lat="41.98493" lon="21.03941">
        <ele>451.146153</ele>
        <time>2022-04-23T11:31:53.547Z</time>
      </trkpt>
      <trkpt lat="41.98482" lon="21.03949">
        <ele>451.171928</ele>
        <time>2022-04-23T11:31:56.497Z</time>
      </trkpt>
      <trkpt lat="41.9847" lon="21.03956">
        <ele>451.199525</ele>
        <time>2022-04-23T11:31:59.516Z</time>
      </trkpt>
      <trkpt lat="41.98459" lon="21.03963">
        <ele>451.510742</ele>
        <time>2022-04-23T11:32:02.510Z</time>
      </trkpt>
      <trkpt lat="41.98448" lon="21.0397">
        <ele>451.830821</ele>
        <time>2022-04-23T11:32:05.511Z</time>
      </trkpt>
      <trkpt lat="41.98437" lon="21.03977">
        <ele>452.188249</ele>
        <time>2022-04-23T11:32:08.506Z</time>
      </trkpt>
      <trkpt lat="41.98426" lon="21.03986">
        <ele>452.543644</ele>
        <time>2022-04-23T11:32:11.506Z</time>
      </trkpt>
      <trkpt lat="41.98413" lon="21.03992">
        <ele>452.90763</ele>
        <time>2022-04-23T11:32:14.499Z</time>
      </trkpt>
      <trkpt lat="41.98401" lon="21.03996">
        <ele>453.253809</ele>
        <time>2022-04-23T11:32:17.503Z</time>
      </trkpt>
      <trkpt lat="41.98388" lon="21.03998">
        <ele>453.619501</ele>
        <time>2022-04-23T11:32:20.545Z</time>
      </trkpt>
      <trkpt lat="41.98376" lon="21.04001">
        <ele>453.966281</ele>
        <time>2022-04-23T11:32:23.502Z</time>
      </trkpt>
      <trkpt lat="41.98367" lon="21.04">
        <ele>454.217573</ele>
        <time>2022-04-23T11:32:25.582Z</time>
      </trkpt>
      <trkpt lat="41.98356" lon="21.03998">
        <ele>454.504578</ele>
        <time>2022-04-23T11:32:27.520Z</time>
      </trkpt>
      <trkpt lat="41.98346" lon="21.03998">
        <ele>454.789697</ele>
        <time>2022-04-23T11:32:29.503Z</time>
      </trkpt>
      <trkpt lat="41.98333" lon="21.03998">
        <ele>455.152313</ele>
        <time>2022-04-23T11:32:32.484Z</time>
      </trkpt>
      <trkpt lat="41.9832" lon="21.03999">
        <ele>455.503882</ele>
        <time>2022-04-23T11:32:35.517Z</time>
      </trkpt>
      <trkpt lat="41.98308" lon="21.03996">
        <ele>455.843394</ele>
        <time>2022-04-23T11:32:38.494Z</time>
      </trkpt>
      <trkpt lat="41.98299" lon="21.03994">
        <ele>456.098628</ele>
        <time>2022-04-23T11:32:40.504Z</time>
      </trkpt>
      <trkpt lat="41.98289" lon="21.03994">
        <ele>456.152222</ele>
        <time>2022-04-23T11:32:42.502Z</time>
      </trkpt>
      <trkpt lat="41.98277" lon="21.03996">
        <ele>456.103772</ele>
        <time>2022-04-23T11:32:45.522Z</time>
      </trkpt>
      <trkpt lat="41.98265" lon="21.03997">
        <ele>456.051424</ele>
        <time>2022-04-23T11:32:48.512Z</time>
      </trkpt>
      <trkpt lat="41.98256" lon="21.04003">
        <ele>456.013627</ele>
        <time>2022-04-23T11:32:51.501Z</time>
      </trkpt>
      <trkpt lat="41.98249" lon="21.04011">
        <ele>455.973934</ele>
        <time>2022-04-23T11:32:54.489Z</time>
      </trkpt>
      <trkpt lat="41.9824" lon="21.0402">
        <ele>455.92872</ele>
        <time>2022-04-23T11:32:57.512Z</time>
      </trkpt>
      <trkpt lat="41.98232" lon="21.04026">
        <ele>455.892299</ele>
        <time>2022-04-23T11:33:00.514Z</time>
      </trkpt>
      <trkpt lat="41.98221" lon="21.04022">
        <ele>455.84713</ele>
        <time>2022-04-23T11:33:04.524Z</time>
      </trkpt>
      <trkpt lat="41.98218" lon="21.04006">
        <ele>455.797592</ele>
        <time>2022-04-23T11:33:08.553Z</time>
      </trkpt>
      <trkpt lat="41.98216" lon="21.03993">
        <ele>455.756133</ele>
        <time>2022-04-23T11:33:11.512Z</time>
      </trkpt>
      <trkpt lat="41.98212" lon="21.03979">
        <ele>455.710216</ele>
        <time>2022-04-23T11:33:14.508Z</time>
      </trkpt>
      <trkpt lat="41.98206" lon="21.03965">
        <ele>455.663244</ele>
        <time>2022-04-23T11:33:17.504Z</time>
      </trkpt>
      <trkpt lat="41.982" lon="21.0395">
        <ele>455.610702</ele>
        <time>2022-04-23T11:33:20.506Z</time>
      </trkpt>
      <trkpt lat="41.98196" lon="21.03935">
        <ele>455.561075</ele>
        <time>2022-04-23T11:33:23.514Z</time>
      </trkpt>
      <trkpt lat="41.98192" lon="21.03921">
        <ele>455.516566</ele>
        <time>2022-04-23T11:33:26.509Z</time>
      </trkpt>
      <trkpt lat="41.98189" lon="21.03908">
        <ele>455.476051</ele>
        <time>2022-04-23T11:33:29.505Z</time>
      </trkpt>
      <trkpt lat="41.98187" lon="21.03896">
        <ele>455.457761</ele>
        <time>2022-04-23T11:33:32.506Z</time>
      </trkpt>
      <trkpt lat="41.98184" lon="21.03883">
        <ele>455.49737</ele>
        <time>2022-04-23T11:33:35.512Z</time>
      </trkpt>
      <trkpt lat="41.98181" lon="21.03869">
        <ele>455.541103</ele>
        <time>2022-04-23T11:33:38.485Z</time>
      </trkpt>
      <trkpt lat="41.98178" lon="21.03855">
        <ele>455.584551</ele>
        <time>2022-04-23T11:33:41.523Z</time>
      </trkpt>
      <trkpt lat="41.98175" lon="21.03841">
        <ele>455.626908</ele>
        <time>2022-04-23T11:33:44.552Z</time>
      </trkpt>
      <trkpt lat="41.98172" lon="21.03827">
        <ele>455.670878</ele>
        <time>2022-04-23T11:33:47.501Z</time>
      </trkpt>
      <trkpt lat="41.98169" lon="21.03814">
        <ele>455.711895</ele>
        <time>2022-04-23T11:33:50.492Z</time>
      </trkpt>
      <trkpt lat="41.98165" lon="21.03801">
        <ele>455.752629</ele>
        <time>2022-04-23T11:33:53.526Z</time>
      </trkpt>
      <trkpt lat="41.98163" lon="21.03786">
        <ele>455.798497</ele>
        <time>2022-04-23T11:33:57.511Z</time>
      </trkpt>
      <trkpt lat="41.98161" lon="21.03771">
        <ele>455.84335</ele>
        <time>2022-04-23T11:34:01.510Z</time>
      </trkpt>
      <trkpt lat="41.98159" lon="21.03759">
        <ele>455.879752</ele>
        <time>2022-04-23T11:34:04.496Z</time>
      </trkpt>
      <trkpt lat="41.98158" lon="21.03747">
        <ele>455.916094</ele>
        <time>2022-04-23T11:34:07.514Z</time>
      </trkpt>
      <trkpt lat="41.98156" lon="21.03735">
        <ele>455.953743</ele>
        <time>2022-04-23T11:34:10.512Z</time>
      </trkpt>
      <trkpt lat="41.98154" lon="21.03722">
        <ele>455.99385</ele>
        <time>2022-04-23T11:34:13.508Z</time>
      </trkpt>
      <trkpt lat="41.98152" lon="21.03709">
        <ele>456.034662</ele>
        <time>2022-04-23T11:34:16.497Z</time>
      </trkpt>
      <trkpt lat="41.98146" lon="21.03694">
        <ele>456.081927</ele>
        <time>2022-04-23T11:34:19.515Z</time>
      </trkpt>
      <trkpt lat="41.98145" lon="21.03682">
        <ele>456.119944</ele>
        <time>2022-04-23T11:34:22.497Z</time>
      </trkpt>
      <trkpt lat="41.98142" lon="21.0367">
        <ele>456.158125</ele>
        <time>2022-04-23T11:34:26.514Z</time>
      </trkpt>
      <trkpt lat="41.98139" lon="21.03658">
        <ele>456.310279</ele>
        <time>2022-04-23T11:34:31.515Z</time>
      </trkpt>
      <trkpt lat="41.98134" lon="21.03644">
        <ele>456.543084</ele>
        <time>2022-04-23T11:34:36.523Z</time>
      </trkpt>
      <trkpt lat="41.98129" lon="21.03633">
        <ele>456.759926</ele>
        <time>2022-04-23T11:34:40.520Z</time>
      </trkpt>
      <trkpt lat="41.98121" lon="21.03621">
        <ele>457.00664</ele>
        <time>2022-04-23T11:34:44.486Z</time>
      </trkpt>
      <trkpt lat="41.98114" lon="21.03608">
        <ele>457.252449</ele>
        <time>2022-04-23T11:34:48.512Z</time>
      </trkpt>
      <trkpt lat="41.98109" lon="21.03596">
        <ele>457.479427</ele>
        <time>2022-04-23T11:34:52.532Z</time>
      </trkpt>
      <trkpt lat="41.98106" lon="21.03584">
        <ele>457.673959</ele>
        <time>2022-04-23T11:34:56.508Z</time>
      </trkpt>
      <trkpt lat="41.98101" lon="21.03571">
        <ele>457.908605</ele>
        <time>2022-04-23T11:35:00.488Z</time>
      </trkpt>
      <trkpt lat="41.98095" lon="21.0356">
        <ele>458.124129</ele>
        <time>2022-04-23T11:35:03.495Z</time>
      </trkpt>
      <trkpt lat="41.98087" lon="21.0355">
        <ele>458.349446</ele>
        <time>2022-04-23T11:35:06.521Z</time>
      </trkpt>
      <trkpt lat="41.98079" lon="21.03538">
        <ele>458.612036</ele>
        <time>2022-04-23T11:35:09.502Z</time>
      </trkpt>
      <trkpt lat="41.98073" lon="21.03527">
        <ele>458.827333</ele>
        <time>2022-04-23T11:35:12.514Z</time>
      </trkpt>
      <trkpt lat="41.98066" lon="21.03516">
        <ele>459.057877</ele>
        <time>2022-04-23T11:35:15.504Z</time>
      </trkpt>
      <trkpt lat="41.9806" lon="21.03504">
        <ele>459.288312</ele>
        <time>2022-04-23T11:35:18.515Z</time>
      </trkpt>
      <trkpt lat="41.98053" lon="21.03491">
        <ele>459.532818</ele>
        <time>2022-04-23T11:35:22.513Z</time>
      </trkpt>
      <trkpt lat="41.98047" lon="21.03479">
        <ele>459.761942</ele>
        <time>2022-04-23T11:35:25.519Z</time>
      </trkpt>
      <trkpt lat="41.98042" lon="21.03466">
        <ele>459.985958</ele>
        <time>2022-04-23T11:35:28.503Z</time>
      </trkpt>
      <trkpt lat="41.98035" lon="21.03455">
        <ele>459.981613</ele>
        <time>2022-04-23T11:35:31.492Z</time>
      </trkpt>
      <trkpt lat="41.98029" lon="21.03443">
        <ele>459.977284</ele>
        <time>2022-04-23T11:35:35.521Z</time>
      </trkpt>
      <trkpt lat="41.98022" lon="21.03431">
        <ele>459.972809</ele>
        <time>2022-04-23T11:35:39.514Z</time>
      </trkpt>
      <trkpt lat="41.98016" lon="21.03422">
        <ele>459.969151</ele>
        <time>2022-04-23T11:35:42.502Z</time>
      </trkpt>
      <trkpt lat="41.98008" lon="21.03411">
        <ele>459.964321</ele>
        <time>2022-04-23T11:35:45.498Z</time>
      </trkpt>
      <trkpt lat="41.98" lon="21.03402">
        <ele>459.960431</ele>
        <time>2022-04-23T11:35:48.515Z</time>
      </trkpt>
      <trkpt lat="41.97993" lon="21.03394">
        <ele>459.956715</ele>
        <time>2022-04-23T11:35:52.509Z</time>
      </trkpt>
      <trkpt lat="41.97986" lon="21.03387">
        <ele>459.952836</ele>
        <time>2022-04-23T11:35:57.496Z</time>
      </trkpt>
      <trkpt lat="41.97976" lon="21.03378">
        <ele>459.948345</ele>
        <time>2022-04-23T11:36:02.509Z</time>
      </trkpt>
      <trkpt lat="41.97969" lon="21.0337">
        <ele>459.944342</ele>
        <time>2022-04-23T11:36:06.522Z</time>
      </trkpt>
      <trkpt lat="41.9796" lon="21.03361">
        <ele>459.9399</ele>
        <time>2022-04-23T11:36:10.501Z</time>
      </trkpt>
      <trkpt lat="41.97952" lon="21.03354">
        <ele>459.936024</ele>
        <time>2022-04-23T11:36:13.516Z</time>
      </trkpt>
      <trkpt lat="41.97945" lon="21.03346">
        <ele>459.932316</ele>
        <time>2022-04-23T11:36:16.504Z</time>
      </trkpt>
      <trkpt lat="41.97937" lon="21.03337">
        <ele>459.928363</ele>
        <time>2022-04-23T11:36:19.506Z</time>
      </trkpt>
      <trkpt lat="41.97927" lon="21.03331">
        <ele>459.924025</ele>
        <time>2022-04-23T11:36:23.498Z</time>
      </trkpt>
      <trkpt lat="41.97919" lon="21.03324">
        <ele>459.92002</ele>
        <time>2022-04-23T11:36:27.503Z</time>
      </trkpt>
      <trkpt lat="41.9791" lon="21.03319">
        <ele>459.916198</ele>
        <time>2022-04-23T11:36:32.502Z</time>
      </trkpt>
      <trkpt lat="41.97902" lon="21.03313">
        <ele>459.949776</ele>
        <time>2022-04-23T11:36:36.510Z</time>
      </trkpt>
      <trkpt lat="41.97893" lon="21.03307">
        <ele>460.076661</ele>
        <time>2022-04-23T11:36:40.505Z</time>
      </trkpt>
      <trkpt lat="41.97883" lon="21.03301">
        <ele>460.211913</ele>
        <time>2022-04-23T11:36:45.505Z</time>
      </trkpt>
      <trkpt lat="41.97874" lon="21.03292">
        <ele>460.348937</ele>
        <time>2022-04-23T11:36:49.511Z</time>
      </trkpt>
      <trkpt lat="41.97866" lon="21.03282">
        <ele>460.481576</ele>
        <time>2022-04-23T11:36:53.486Z</time>
      </trkpt>
      <trkpt lat="41.97859" lon="21.03274">
        <ele>460.597159</ele>
        <time>2022-04-23T11:36:57.507Z</time>
      </trkpt>
      <trkpt lat="41.97852" lon="21.03264">
        <ele>460.717691</ele>
        <time>2022-04-23T11:37:01.503Z</time>
      </trkpt>
      <trkpt lat="41.97847" lon="21.03254">
        <ele>460.832682</ele>
        <time>2022-04-23T11:37:06.515Z</time>
      </trkpt>
      <trkpt lat="41.9784" lon="21.03245">
        <ele>460.959682</ele>
        <time>2022-04-23T11:37:10.508Z</time>
      </trkpt>
      <trkpt lat="41.97833" lon="21.03235">
        <ele>461.080369</ele>
        <time>2022-04-23T11:37:14.545Z</time>
      </trkpt>
      <trkpt lat="41.97828" lon="21.03223">
        <ele>461.212385</ele>
        <time>2022-04-23T11:37:19.526Z</time>
      </trkpt>
      <trkpt lat="41.97823" lon="21.03212">
        <ele>461.329434</ele>
        <time>2022-04-23T11:37:24.504Z</time>
      </trkpt>
      <trkpt lat="41.97815" lon="21.03203">
        <ele>461.454877</ele>
        <time>2022-04-23T11:37:28.512Z</time>
      </trkpt>
      <trkpt lat="41.97805" lon="21.03197">
        <ele>461.589334</ele>
        <time>2022-04-23T11:37:32.513Z</time>
      </trkpt>
      <trkpt lat="41.97795" lon="21.03189">
        <ele>461.734389</ele>
        <time>2022-04-23T11:37:36.516Z</time>
      </trkpt>
      <trkpt lat="41.97787" lon="21.03184">
        <ele>461.848565</ele>
        <time>2022-04-23T11:37:39.555Z</time>
      </trkpt>
      <trkpt lat="41.97776" lon="21.03176">
        <ele>461.996837</ele>
        <time>2022-04-23T11:37:43.511Z</time>
      </trkpt>
      <trkpt lat="41.97767" lon="21.03169">
        <ele>462.127319</ele>
        <time>2022-04-23T11:37:46.517Z</time>
      </trkpt>
      <trkpt lat="41.97759" lon="21.03161">
        <ele>462.148884</ele>
        <time>2022-04-23T11:37:49.499Z</time>
      </trkpt>
      <trkpt lat="41.97749" lon="21.03151">
        <ele>462.152058</ele>
        <time>2022-04-23T11:37:53.496Z</time>
      </trkpt>
      <trkpt lat="41.97742" lon="21.03144">
        <ele>462.154465</ele>
        <time>2022-04-23T11:37:56.519Z</time>
      </trkpt>
      <trkpt lat="41.97733" lon="21.03136">
        <ele>462.157386</ele>
        <time>2022-04-23T11:38:00.512Z</time>
      </trkpt>
      <trkpt lat="41.97724" lon="21.03129">
        <ele>462.160048</ele>
        <time>2022-04-23T11:38:04.486Z</time>
      </trkpt>
      <trkpt lat="41.97714" lon="21.0312">
        <ele>462.163098</ele>
        <time>2022-04-23T11:38:08.503Z</time>
      </trkpt>
      <trkpt lat="41.97707" lon="21.03112">
        <ele>462.165568</ele>
        <time>2022-04-23T11:38:12.487Z</time>
      </trkpt>
      <trkpt lat="41.97699" lon="21.03102">
        <ele>462.168365</ele>
        <time>2022-04-23T11:38:16.493Z</time>
      </trkpt>
      <trkpt lat="41.97692" lon="21.03092">
        <ele>462.170989</ele>
        <time>2022-04-23T11:38:21.495Z</time>
      </trkpt>
      <trkpt lat="41.97684" lon="21.03083">
        <ele>462.173657</ele>
        <time>2022-04-23T11:38:25.500Z</time>
      </trkpt>
      <trkpt lat="41.97676" lon="21.03073">
        <ele>462.176432</ele>
        <time>2022-04-23T11:38:29.505Z</time>
      </trkpt>
      <trkpt lat="41.97668" lon="21.03063">
        <ele>462.179339</ele>
        <time>2022-04-23T11:38:33.497Z</time>
      </trkpt>
      <trkpt lat="41.97661" lon="21.03052">
        <ele>462.182067</ele>
        <time>2022-04-23T11:38:37.520Z</time>
      </trkpt>
      <trkpt lat="41.97654" lon="21.0304">
        <ele>462.185036</ele>
        <time>2022-04-23T11:38:41.512Z</time>
      </trkpt>
      <trkpt lat="41.97647" lon="21.03028">
        <ele>462.187965</ele>
        <time>2022-04-23T11:38:45.519Z</time>
      </trkpt>
      <trkpt lat="41.97641" lon="21.03019">
        <ele>462.190366</ele>
        <time>2022-04-23T11:38:48.516Z</time>
      </trkpt>
      <trkpt lat="41.97636" lon="21.03005">
        <ele>462.19336</ele>
        <time>2022-04-23T11:38:52.513Z</time>
      </trkpt>
      <trkpt lat="41.9763" lon="21.02992">
        <ele>462.056919</ele>
        <time>2022-04-23T11:38:56.512Z</time>
      </trkpt>
      <trkpt lat="41.97623" lon="21.02981">
        <ele>461.926497</ele>
        <time>2022-04-23T11:39:00.496Z</time>
      </trkpt>
      <trkpt lat="41.97617" lon="21.02969">
        <ele>461.801369</ele>
        <time>2022-04-23T11:39:04.504Z</time>
      </trkpt>
      <trkpt lat="41.97608" lon="21.02959">
        <ele>461.663769</ele>
        <time>2022-04-23T11:39:08.526Z</time>
      </trkpt>
      <trkpt lat="41.976" lon="21.02953">
        <ele>461.553649</ele>
        <time>2022-04-23T11:39:12.561Z</time>
      </trkpt>
      <trkpt lat="41.9759" lon="21.02946">
        <ele>461.421263</ele>
        <time>2022-04-23T11:39:17.530Z</time>
      </trkpt>
      <trkpt lat="41.97581" lon="21.02939">
        <ele>461.292707</ele>
        <time>2022-04-23T11:39:21.500Z</time>
      </trkpt>
      <trkpt lat="41.97572" lon="21.02931">
        <ele>461.164189</ele>
        <time>2022-04-23T11:39:25.502Z</time>
      </trkpt>
      <trkpt lat="41.97565" lon="21.02922">
        <ele>461.044873</ele>
        <time>2022-04-23T11:39:31.502Z</time>
      </trkpt>
      <trkpt lat="41.97556" lon="21.02913">
        <ele>460.914494</ele>
        <time>2022-04-23T11:39:36.504Z</time>
      </trkpt>
      <trkpt lat="41.97548" lon="21.02905">
        <ele>460.787898</ele>
        <time>2022-04-23T11:39:40.511Z</time>
      </trkpt>
      <trkpt lat="41.97539" lon="21.02895">
        <ele>460.649387</ele>
        <time>2022-04-23T11:39:45.497Z</time>
      </trkpt>
      <trkpt lat="41.9753" lon="21.02886">
        <ele>460.515187</ele>
        <time>2022-04-23T11:39:49.514Z</time>
      </trkpt>
      <trkpt lat="41.97522" lon="21.02878">
        <ele>460.39606</ele>
        <time>2022-04-23T11:39:52.502Z</time>
      </trkpt>
      <trkpt lat="41.97513" lon="21.02869">
        <ele>460.260978</ele>
        <time>2022-04-23T11:39:56.544Z</time>
      </trkpt>
      <trkpt lat="41.97505" lon="21.02859">
        <ele>460.12578</ele>
        <time>2022-04-23T11:40:00.489Z</time>
      </trkpt>
      <trkpt lat="41.97496" lon="21.02849">
        <ele>460.047227</ele>
        <time>2022-04-23T11:40:04.500Z</time>
      </trkpt>
      <trkpt lat="41.97488" lon="21.02838">
        <ele>460.130813</ele>
        <time>2022-04-23T11:40:08.499Z</time>
      </trkpt>
      <trkpt lat="41.97481" lon="21.0283">
        <ele>460.197153</ele>
        <time>2022-04-23T11:40:11.516Z</time>
      </trkpt>
      <trkpt lat="41.97475" lon="21.0282">
        <ele>460.267304</ele>
        <time>2022-04-23T11:40:14.502Z</time>
      </trkpt>
      <trkpt lat="41.97468" lon="21.02811">
        <ele>460.337314</ele>
        <time>2022-04-23T11:40:17.517Z</time>
      </trkpt>
      <trkpt lat="41.97459" lon="21.028">
        <ele>460.430277</ele>
        <time>2022-04-23T11:40:20.505Z</time>
      </trkpt>
      <trkpt lat="41.97449" lon="21.02788">
        <ele>460.52517</ele>
        <time>2022-04-23T11:40:23.495Z</time>
      </trkpt>
      <trkpt lat="41.97442" lon="21.02778">
        <ele>460.601939</ele>
        <time>2022-04-23T11:40:26.497Z</time>
      </trkpt>
      <trkpt lat="41.97435" lon="21.02768">
        <ele>460.674345</ele>
        <time>2022-04-23T11:40:29.510Z</time>
      </trkpt>
      <trkpt lat="41.97429" lon="21.02757">
        <ele>460.750095</ele>
        <time>2022-04-23T11:40:32.490Z</time>
      </trkpt>
      <trkpt lat="41.97421" lon="21.02745">
        <ele>460.834704</ele>
        <time>2022-04-23T11:40:35.497Z</time>
      </trkpt>
      <trkpt lat="41.97413" lon="21.02735">
        <ele>460.915076</ele>
        <time>2022-04-23T11:40:38.515Z</time>
      </trkpt>
      <trkpt lat="41.97405" lon="21.02726">
        <ele>460.994538</ele>
        <time>2022-04-23T11:40:41.492Z</time>
      </trkpt>
      <trkpt lat="41.97396" lon="21.02717">
        <ele>461.070034</ele>
        <time>2022-04-23T11:40:44.501Z</time>
      </trkpt>
      <trkpt lat="41.97388" lon="21.02707">
        <ele>461.150315</ele>
        <time>2022-04-23T11:40:47.513Z</time>
      </trkpt>
      <trkpt lat="41.97378" lon="21.02698">
        <ele>461.237048</ele>
        <time>2022-04-23T11:40:50.518Z</time>
      </trkpt>
      <trkpt lat="41.97371" lon="21.02688">
        <ele>461.312314</ele>
        <time>2022-04-23T11:40:53.518Z</time>
      </trkpt>
      <trkpt lat="41.97363" lon="21.02679">
        <ele>461.232082</ele>
        <time>2022-04-23T11:40:56.500Z</time>
      </trkpt>
      <trkpt lat="41.97357" lon="21.02668">
        <ele>461.082381</ele>
        <time>2022-04-23T11:40:59.508Z</time>
      </trkpt>
      <trkpt lat="41.9735" lon="21.02658">
        <ele>460.932402</ele>
        <time>2022-04-23T11:41:02.510Z</time>
      </trkpt>
      <trkpt lat="41.97344" lon="21.02646">
        <ele>460.779566</ele>
        <time>2022-04-23T11:41:05.504Z</time>
      </trkpt>
      <trkpt lat="41.97338" lon="21.02634">
        <ele>460.624734</ele>
        <time>2022-04-23T11:41:08.495Z</time>
      </trkpt>
      <trkpt lat="41.97331" lon="21.02623">
        <ele>460.473275</ele>
        <time>2022-04-23T11:41:11.504Z</time>
      </trkpt>
      <trkpt lat="41.97325" lon="21.02613">
        <ele>460.324391</ele>
        <time>2022-04-23T11:41:14.489Z</time>
      </trkpt>
      <trkpt lat="41.97317" lon="21.02602">
        <ele>460.163919</ele>
        <time>2022-04-23T11:41:17.524Z</time>
      </trkpt>
      <trkpt lat="41.9731" lon="21.02589">
        <ele>459.994458</ele>
        <time>2022-04-23T11:41:20.525Z</time>
      </trkpt>
      <trkpt lat="41.97304" lon="21.02575">
        <ele>459.821274</ele>
        <time>2022-04-23T11:41:23.504Z</time>
      </trkpt>
      <trkpt lat="41.97297" lon="21.02562">
        <ele>459.645071</ele>
        <time>2022-04-23T11:41:26.513Z</time>
      </trkpt>
      <trkpt lat="41.97291" lon="21.02551">
        <ele>459.493762</ele>
        <time>2022-04-23T11:41:29.505Z</time>
      </trkpt>
      <trkpt lat="41.97286" lon="21.0254">
        <ele>459.352596</ele>
        <time>2022-04-23T11:41:32.486Z</time>
      </trkpt>
      <trkpt lat="41.9728" lon="21.02526">
        <ele>459.178504</ele>
        <time>2022-04-23T11:41:36.512Z</time>
      </trkpt>
      <trkpt lat="41.97275" lon="21.02512">
        <ele>459.022254</ele>
        <time>2022-04-23T11:41:39.547Z</time>
      </trkpt>
      <trkpt lat="41.97275" lon="21.02497">
        <ele>458.855452</ele>
        <time>2022-04-23T11:41:42.518Z</time>
      </trkpt>
      <trkpt lat="41.97277" lon="21.0248">
        <ele>458.767439</ele>
        <time>2022-04-23T11:41:45.515Z</time>
      </trkpt>
      <trkpt lat="41.97279" lon="21.02465">
        <ele>458.860292</ele>
        <time>2022-04-23T11:41:48.487Z</time>
      </trkpt>
      <trkpt lat="41.97281" lon="21.02451">
        <ele>458.947469</ele>
        <time>2022-04-23T11:41:51.539Z</time>
      </trkpt>
      <trkpt lat="41.97283" lon="21.02437">
        <ele>459.030317</ele>
        <time>2022-04-23T11:41:54.497Z</time>
      </trkpt>
      <trkpt lat="41.97285" lon="21.02423">
        <ele>459.117942</ele>
        <time>2022-04-23T11:41:57.493Z</time>
      </trkpt>
      <trkpt lat="41.97287" lon="21.02409">
        <ele>459.204084</ele>
        <time>2022-04-23T11:42:00.504Z</time>
      </trkpt>
      <trkpt lat="41.97289" lon="21.02395">
        <ele>459.294245</ele>
        <time>2022-04-23T11:42:03.534Z</time>
      </trkpt>
      <trkpt lat="41.97292" lon="21.0238">
        <ele>459.384717</ele>
        <time>2022-04-23T11:42:06.500Z</time>
      </trkpt>
      <trkpt lat="41.97294" lon="21.02365">
        <ele>459.48041</ele>
        <time>2022-04-23T11:42:09.510Z</time>
      </trkpt>
      <trkpt lat="41.97296" lon="21.02349">
        <ele>459.574846</ele>
        <time>2022-04-23T11:42:12.514Z</time>
      </trkpt>
      <trkpt lat="41.97297" lon="21.02334">
        <ele>459.668804</ele>
        <time>2022-04-23T11:42:15.504Z</time>
      </trkpt>
      <trkpt lat="41.973" lon="21.02319">
        <ele>459.762755</ele>
        <time>2022-04-23T11:42:18.513Z</time>
      </trkpt>
      <trkpt lat="41.97302" lon="21.02304">
        <ele>459.85696</ele>
        <time>2022-04-23T11:42:21.497Z</time>
      </trkpt>
      <trkpt lat="41.97304" lon="21.02289">
        <ele>459.951504</ele>
        <time>2022-04-23T11:42:24.525Z</time>
      </trkpt>
      <trkpt lat="41.97308" lon="21.02273">
        <ele>460.048839</ele>
        <time>2022-04-23T11:42:27.519Z</time>
      </trkpt>
      <trkpt lat="41.97311" lon="21.02257">
        <ele>460.153629</ele>
        <time>2022-04-23T11:42:30.515Z</time>
      </trkpt>
      <trkpt lat="41.97315" lon="21.0224">
        <ele>460.252522</ele>
        <time>2022-04-23T11:42:33.504Z</time>
      </trkpt>
      <trkpt lat="41.97318" lon="21.02224">
        <ele>460.346242</ele>
        <time>2022-04-23T11:42:36.504Z</time>
      </trkpt>
      <trkpt lat="41.97322" lon="21.02208">
        <ele>460.440687</ele>
        <time>2022-04-23T11:42:39.490Z</time>
      </trkpt>
      <trkpt lat="41.97326" lon="21.02191">
        <ele>460.541228</ele>
        <time>2022-04-23T11:42:42.533Z</time>
      </trkpt>
      <trkpt lat="41.97328" lon="21.02179">
        <ele>460.608656</ele>
        <time>2022-04-23T11:42:44.493Z</time>
      </trkpt>
      <trkpt lat="41.97331" lon="21.02167">
        <ele>460.676861</ele>
        <time>2022-04-23T11:42:46.499Z</time>
      </trkpt>
      <trkpt lat="41.97334" lon="21.02151">
        <ele>460.769307</ele>
        <time>2022-04-23T11:42:49.516Z</time>
      </trkpt>
      <trkpt lat="41.97335" lon="21.02137">
        <ele>460.851933</ele>
        <time>2022-04-23T11:42:52.501Z</time>
      </trkpt>
      <trkpt lat="41.97337" lon="21.02121">
        <ele>460.941773</ele>
        <time>2022-04-23T11:42:55.497Z</time>
      </trkpt>
      <trkpt lat="41.97337" lon="21.02103">
        <ele>461.041321</ele>
        <time>2022-04-23T11:42:58.525Z</time>
      </trkpt>
      <trkpt lat="41.97337" lon="21.02091">
        <ele>461.110688</ele>
        <time>2022-04-23T11:43:00.498Z</time>
      </trkpt>
      <trkpt lat="41.97336" lon="21.02078">
        <ele>461.183435</ele>
        <time>2022-04-23T11:43:02.513Z</time>
      </trkpt>
      <trkpt lat="41.97335" lon="21.02061">
        <ele>461.276059</ele>
        <time>2022-04-23T11:43:05.534Z</time>
      </trkpt>
      <trkpt lat="41.97333" lon="21.02045">
        <ele>461.368087</ele>
        <time>2022-04-23T11:43:08.509Z</time>
      </trkpt>
      <trkpt lat="41.97332" lon="21.02033">
        <ele>461.438178</ele>
        <time>2022-04-23T11:43:10.505Z</time>
      </trkpt>
      <trkpt lat="41.9733" lon="21.02021">
        <ele>461.506937</ele>
        <time>2022-04-23T11:43:12.493Z</time>
      </trkpt>
      <trkpt lat="41.97328" lon="21.02008">
        <ele>461.527983</ele>
        <time>2022-04-23T11:43:14.495Z</time>
      </trkpt>
      <trkpt lat="41.97327" lon="21.01996">
        <ele>461.446487</ele>
        <time>2022-04-23T11:43:16.492Z</time>
      </trkpt>
      <trkpt lat="41.97326" lon="21.01978">
        <ele>461.330649</ele>
        <time>2022-04-23T11:43:19.498Z</time>
      </trkpt>
      <trkpt lat="41.97326" lon="21.01961">
        <ele>461.217624</ele>
        <time>2022-04-23T11:43:22.543Z</time>
      </trkpt>
      <trkpt lat="41.97326" lon="21.01944">
        <ele>461.103302</ele>
        <time>2022-04-23T11:43:25.511Z</time>
      </trkpt>
      <trkpt lat="41.97328" lon="21.01927">
        <ele>460.991145</ele>
        <time>2022-04-23T11:43:28.496Z</time>
      </trkpt>
      <trkpt lat="41.9733" lon="21.0191">
        <ele>460.880521</ele>
        <time>2022-04-23T11:43:31.517Z</time>
      </trkpt>
      <trkpt lat="41.97335" lon="21.01894">
        <ele>460.769989</ele>
        <time>2022-04-23T11:43:34.562Z</time>
      </trkpt>
      <trkpt lat="41.9734" lon="21.01881">
        <ele>460.672262</ele>
        <time>2022-04-23T11:43:37.523Z</time>
      </trkpt>
      <trkpt lat="41.97345" lon="21.01869">
        <ele>460.580768</ele>
        <time>2022-04-23T11:43:40.507Z</time>
      </trkpt>
      <trkpt lat="41.97351" lon="21.01858">
        <ele>460.488436</ele>
        <time>2022-04-23T11:43:43.510Z</time>
      </trkpt>
      <trkpt lat="41.97356" lon="21.01847">
        <ele>460.406041</ele>
        <time>2022-04-23T11:43:46.504Z</time>
      </trkpt>
      <trkpt lat="41.97361" lon="21.01837">
        <ele>460.326812</ele>
        <time>2022-04-23T11:43:49.509Z</time>
      </trkpt>
      <trkpt lat="41.97368" lon="21.01824">
        <ele>460.22239</ele>
        <time>2022-04-23T11:43:53.503Z</time>
      </trkpt>
      <trkpt lat="41.97374" lon="21.01814">
        <ele>460.139092</ele>
        <time>2022-04-23T11:43:56.542Z</time>
      </trkpt>
      <trkpt lat="41.97379" lon="21.01804">
        <ele>460.055264</ele>
        <time>2022-04-23T11:43:59.505Z</time>
      </trkpt>
      <trkpt lat="41.97385" lon="21.01792">
        <ele>459.961657</ele>
        <time>2022-04-23T11:44:02.557Z</time>
      </trkpt>
      <trkpt lat="41.97392" lon="21.01782">
        <ele>459.903607</ele>
        <time>2022-04-23T11:44:05.518Z</time>
      </trkpt>
      <trkpt lat="41.97398" lon="21.01771">
        <ele>459.844678</ele>
        <time>2022-04-23T11:44:08.514Z</time>
      </trkpt>
      <trkpt lat="41.97402" lon="21.01759">
        <ele>459.788443</ele>
        <time>2022-04-23T11:44:11.504Z</time>
      </trkpt>
      <trkpt lat="41.97408" lon="21.01746">
        <ele>459.725234</ele>
        <time>2022-04-23T11:44:14.517Z</time>
      </trkpt>
      <trkpt lat="41.97415" lon="21.01734">
        <ele>459.661085</ele>
        <time>2022-04-23T11:44:17.502Z</time>
      </trkpt>
      <trkpt lat="41.97421" lon="21.01721">
        <ele>459.594271</ele>
        <time>2022-04-23T11:44:20.509Z</time>
      </trkpt>
      <trkpt lat="41.97428" lon="21.01709">
        <ele>459.531184</ele>
        <time>2022-04-23T11:44:23.520Z</time>
      </trkpt>
      <trkpt lat="41.97434" lon="21.01698">
        <ele>459.471227</ele>
        <time>2022-04-23T11:44:26.500Z</time>
      </trkpt>
      <trkpt lat="41.97439" lon="21.01685">
        <ele>459.408925</ele>
        <time>2022-04-23T11:44:29.509Z</time>
      </trkpt>
      <trkpt lat="41.97446" lon="21.01672">
        <ele>459.342074</ele>
        <time>2022-04-23T11:44:32.519Z</time>
      </trkpt>
      <trkpt lat="41.97453" lon="21.0166">
        <ele>459.276868</ele>
        <time>2022-04-23T11:44:35.544Z</time>
      </trkpt>
      <trkpt lat="41.97459" lon="21.01647">
        <ele>459.213472</ele>
        <time>2022-04-23T11:44:38.524Z</time>
      </trkpt>
      <trkpt lat="41.97465" lon="21.01634">
        <ele>459.145427</ele>
        <time>2022-04-23T11:44:41.524Z</time>
      </trkpt>
      <trkpt lat="41.97471" lon="21.01621">
        <ele>459.079379</ele>
        <time>2022-04-23T11:44:44.508Z</time>
      </trkpt>
      <trkpt lat="41.97477" lon="21.01607">
        <ele>459.010179</ele>
        <time>2022-04-23T11:44:47.565Z</time>
      </trkpt>
      <trkpt lat="41.97484" lon="21.01594">
        <ele>458.941622</ele>
        <time>2022-04-23T11:44:50.493Z</time>
      </trkpt>
      <trkpt lat="41.97491" lon="21.01581">
        <ele>458.825327</ele>
        <time>2022-04-23T11:44:53.557Z</time>
      </trkpt>
      <trkpt lat="41.97498" lon="21.01568">
        <ele>458.695814</ele>
        <time>2022-04-23T11:44:56.532Z</time>
      </trkpt>
      <trkpt lat="41.97505" lon="21.01554">
        <ele>458.561265</ele>
        <time>2022-04-23T11:44:59.506Z</time>
      </trkpt>
      <trkpt lat="41.97512" lon="21.01541">
        <ele>458.432437</ele>
        <time>2022-04-23T11:45:02.513Z</time>
      </trkpt>
      <trkpt lat="41.97518" lon="21.01528">
        <ele>458.317379</ele>
        <time>2022-04-23T11:45:05.534Z</time>
      </trkpt>
      <trkpt lat="41.97524" lon="21.01515">
        <ele>458.195127</ele>
        <time>2022-04-23T11:45:08.512Z</time>
      </trkpt>
      <trkpt lat="41.9753" lon="21.01503">
        <ele>458.07645</ele>
        <time>2022-04-23T11:45:11.507Z</time>
      </trkpt>
      <trkpt lat="41.97537" lon="21.01491">
        <ele>457.954633</ele>
        <time>2022-04-23T11:45:14.506Z</time>
      </trkpt>
      <trkpt lat="41.97544" lon="21.01479">
        <ele>457.8334</ele>
        <time>2022-04-23T11:45:17.518Z</time>
      </trkpt>
      <trkpt lat="41.97551" lon="21.01467">
        <ele>457.713635</ele>
        <time>2022-04-23T11:45:20.508Z</time>
      </trkpt>
      <trkpt lat="41.97558" lon="21.01458">
        <ele>457.60508</ele>
        <time>2022-04-23T11:45:23.494Z</time>
      </trkpt>
      <trkpt lat="41.97566" lon="21.01448">
        <ele>457.495042</ele>
        <time>2022-04-23T11:45:26.514Z</time>
      </trkpt>
      <trkpt lat="41.97573" lon="21.01435">
        <ele>457.368789</ele>
        <time>2022-04-23T11:45:30.496Z</time>
      </trkpt>
      <trkpt lat="41.9758" lon="21.01422">
        <ele>457.243176</ele>
        <time>2022-04-23T11:45:34.505Z</time>
      </trkpt>
      <trkpt lat="41.97587" lon="21.0141">
        <ele>457.115595</ele>
        <time>2022-04-23T11:45:38.533Z</time>
      </trkpt>
      <trkpt lat="41.97593" lon="21.01399">
        <ele>457.012891</ele>
        <time>2022-04-23T11:45:41.512Z</time>
      </trkpt>
      <trkpt lat="41.97599" lon="21.01389">
        <ele>457.07998</ele>
        <time>2022-04-23T11:45:44.510Z</time>
      </trkpt>
      <trkpt lat="41.97605" lon="21.01379">
        <ele>457.157034</ele>
        <time>2022-04-23T11:45:47.520Z</time>
      </trkpt>
      <trkpt lat="41.97612" lon="21.01368">
        <ele>457.24018</ele>
        <time>2022-04-23T11:45:50.501Z</time>
      </trkpt>
      <trkpt lat="41.97617" lon="21.01357">
        <ele>457.315376</ele>
        <time>2022-04-23T11:45:53.529Z</time>
      </trkpt>
      <trkpt lat="41.97623" lon="21.01347">
        <ele>457.387808</ele>
        <time>2022-04-23T11:45:56.522Z</time>
      </trkpt>
      <trkpt lat="41.9763" lon="21.01334">
        <ele>457.479598</ele>
        <time>2022-04-23T11:46:00.562Z</time>
      </trkpt>
      <trkpt lat="41.97637" lon="21.01321">
        <ele>457.570026</ele>
        <time>2022-04-23T11:46:04.519Z</time>
      </trkpt>
      <trkpt lat="41.97643" lon="21.01308">
        <ele>457.662395</ele>
        <time>2022-04-23T11:46:08.508Z</time>
      </trkpt>
      <trkpt lat="41.97648" lon="21.01297">
        <ele>457.735553</ele>
        <time>2022-04-23T11:46:11.535Z</time>
      </trkpt>
      <trkpt lat="41.97653" lon="21.01283">
        <ele>457.827209</ele>
        <time>2022-04-23T11:46:15.525Z</time>
      </trkpt>
      <trkpt lat="41.97658" lon="21.01272">
        <ele>457.896995</ele>
        <time>2022-04-23T11:46:18.529Z</time>
      </trkpt>
      <trkpt lat="41.97663" lon="21.01261">
        <ele>457.973787</ele>
        <time>2022-04-23T11:46:21.488Z</time>
      </trkpt>
      <trkpt lat="41.97667" lon="21.01248">
        <ele>458.05335</ele>
        <time>2022-04-23T11:46:24.503Z</time>
      </trkpt>
      <trkpt lat="41.97671" lon="21.01236">
        <ele>458.131653</ele>
        <time>2022-04-23T11:46:27.522Z</time>
      </trkpt>
      <trkpt lat="41.97676" lon="21.01223">
        <ele>458.2094</ele>
        <time>2022-04-23T11:46:30.508Z</time>
      </trkpt>
      <trkpt lat="41.97681" lon="21.0121">
        <ele>458.294599</ele>
        <time>2022-04-23T11:46:33.511Z</time>
      </trkpt>
      <trkpt lat="41.97687" lon="21.01198">
        <ele>458.379047</ele>
        <time>2022-04-23T11:46:36.511Z</time>
      </trkpt>
      <trkpt lat="41.97693" lon="21.01187">
        <ele>458.60517</ele>
        <time>2022-04-23T11:46:39.511Z</time>
      </trkpt>
      <trkpt lat="41.97699" lon="21.01175">
        <ele>458.887348</ele>
        <time>2022-04-23T11:46:42.512Z</time>
      </trkpt>
      <trkpt lat="41.97705" lon="21.01164">
        <ele>459.159915</ele>
        <time>2022-04-23T11:46:45.498Z</time>
      </trkpt>
      <trkpt lat="41.97711" lon="21.01151">
        <ele>459.470204</ele>
        <time>2022-04-23T11:46:49.497Z</time>
      </trkpt>
      <trkpt lat="41.97716" lon="21.01137">
        <ele>459.788208</ele>
        <time>2022-04-23T11:46:53.496Z</time>
      </trkpt>
      <trkpt lat="41.97722" lon="21.01125">
        <ele>460.074074</ele>
        <time>2022-04-23T11:46:56.507Z</time>
      </trkpt>
      <trkpt lat="41.97728" lon="21.01112">
        <ele>460.39067</ele>
        <time>2022-04-23T11:46:59.515Z</time>
      </trkpt>
      <trkpt lat="41.97733" lon="21.01101">
        <ele>460.651745</ele>
        <time>2022-04-23T11:47:02.512Z</time>
      </trkpt>
      <trkpt lat="41.97739" lon="21.01087">
        <ele>460.97418</ele>
        <time>2022-04-23T11:47:06.496Z</time>
      </trkpt>
      <trkpt lat="41.97745" lon="21.01074">
        <ele>461.287856</ele>
        <time>2022-04-23T11:47:10.511Z</time>
      </trkpt>
      <trkpt lat="41.9775" lon="21.01062">
        <ele>461.557233</ele>
        <time>2022-04-23T11:47:13.496Z</time>
      </trkpt>
      <trkpt lat="41.97754" lon="21.0105">
        <ele>461.821431</ele>
        <time>2022-04-23T11:47:16.510Z</time>
      </trkpt>
      <trkpt lat="41.97758" lon="21.01037">
        <ele>462.095623</ele>
        <time>2022-04-23T11:47:19.519Z</time>
      </trkpt>
      <trkpt lat="41.97762" lon="21.01026">
        <ele>462.359627</ele>
        <time>2022-04-23T11:47:22.541Z</time>
      </trkpt>
      <trkpt lat="41.97766" lon="21.01011">
        <ele>462.676283</ele>
        <time>2022-04-23T11:47:26.518Z</time>
      </trkpt>
      <trkpt lat="41.97769" lon="21.00997">
        <ele>462.969746</ele>
        <time>2022-04-23T11:47:29.529Z</time>
      </trkpt>
      <trkpt lat="41.97772" lon="21.00983">
        <ele>463.254465</ele>
        <time>2022-04-23T11:47:32.524Z</time>
      </trkpt>
      <trkpt lat="41.97774" lon="21.0097">
        <ele>463.59906</ele>
        <time>2022-04-23T11:47:35.514Z</time>
      </trkpt>
      <trkpt lat="41.97775" lon="21.00956">
        <ele>463.941738</ele>
        <time>2022-04-23T11:47:38.506Z</time>
      </trkpt>
      <trkpt lat="41.97776" lon="21.00942">
        <ele>464.304678</ele>
        <time>2022-04-23T11:47:41.514Z</time>
      </trkpt>
      <trkpt lat="41.97778" lon="21.0093">
        <ele>464.627037</ele>
        <time>2022-04-23T11:47:44.549Z</time>
      </trkpt>
      <trkpt lat="41.97779" lon="21.00917">
        <ele>464.966343</ele>
        <time>2022-04-23T11:47:47.527Z</time>
      </trkpt>
      <trkpt lat="41.97781" lon="21.00903">
        <ele>465.316589</ele>
        <time>2022-04-23T11:47:50.514Z</time>
      </trkpt>
      <trkpt lat="41.97783" lon="21.0089">
        <ele>465.667979</ele>
        <time>2022-04-23T11:47:53.513Z</time>
      </trkpt>
      <trkpt lat="41.97785" lon="21.00877">
        <ele>466.007563</ele>
        <time>2022-04-23T11:47:56.519Z</time>
      </trkpt>
      <trkpt lat="41.97788" lon="21.00864">
        <ele>466.348916</ele>
        <time>2022-04-23T11:47:59.516Z</time>
      </trkpt>
      <trkpt lat="41.9779" lon="21.00851">
        <ele>466.686918</ele>
        <time>2022-04-23T11:48:02.526Z</time>
      </trkpt>
      <trkpt lat="41.97795" lon="21.00839">
        <ele>467.048767</ele>
        <time>2022-04-23T11:48:05.501Z</time>
      </trkpt>
      <trkpt lat="41.978" lon="21.00826">
        <ele>467.432572</ele>
        <time>2022-04-23T11:48:08.515Z</time>
      </trkpt>
      <trkpt lat="41.97806" lon="21.00813">
        <ele>467.824573</ele>
        <time>2022-04-23T11:48:11.490Z</time>
      </trkpt>
      <trkpt lat="41.97813" lon="21.00801">
        <ele>468.224265</ele>
        <time>2022-04-23T11:48:14.497Z</time>
      </trkpt>
      <trkpt lat="41.9782" lon="21.0079">
        <ele>468.587718</ele>
        <time>2022-04-23T11:48:17.519Z</time>
      </trkpt>
      <trkpt lat="41.97827" lon="21.0078">
        <ele>468.950025</ele>
        <time>2022-04-23T11:48:20.519Z</time>
      </trkpt>
      <trkpt lat="41.97835" lon="21.00769">
        <ele>469.332141</ele>
        <time>2022-04-23T11:48:23.538Z</time>
      </trkpt>
      <trkpt lat="41.97843" lon="21.00759">
        <ele>469.326026</ele>
        <time>2022-04-23T11:48:26.510Z</time>
      </trkpt>
      <trkpt lat="41.97851" lon="21.00747">
        <ele>469.088499</ele>
        <time>2022-04-23T11:48:29.523Z</time>
      </trkpt>
      <trkpt lat="41.97859" lon="21.00734">
        <ele>468.824703</ele>
        <time>2022-04-23T11:48:32.532Z</time>
      </trkpt>
      <trkpt lat="41.97866" lon="21.00721">
        <ele>468.569652</ele>
        <time>2022-04-23T11:48:35.520Z</time>
      </trkpt>
      <trkpt lat="41.97873" lon="21.00708">
        <ele>468.323424</ele>
        <time>2022-04-23T11:48:38.510Z</time>
      </trkpt>
      <trkpt lat="41.97879" lon="21.00695">
        <ele>468.086319</ele>
        <time>2022-04-23T11:48:41.510Z</time>
      </trkpt>
      <trkpt lat="41.97885" lon="21.00682">
        <ele>467.850056</ele>
        <time>2022-04-23T11:48:44.499Z</time>
      </trkpt>
      <trkpt lat="41.97892" lon="21.0067">
        <ele>467.611268</ele>
        <time>2022-04-23T11:48:47.519Z</time>
      </trkpt>
      <trkpt lat="41.97899" lon="21.00656">
        <ele>467.35613</ele>
        <time>2022-04-23T11:48:50.521Z</time>
      </trkpt>
      <trkpt lat="41.97905" lon="21.00643">
        <ele>467.112656</ele>
        <time>2022-04-23T11:48:53.513Z</time>
      </trkpt>
      <trkpt lat="41.9791" lon="21.00629">
        <ele>466.870736</ele>
        <time>2022-04-23T11:48:56.492Z</time>
      </trkpt>
      <trkpt lat="41.97915" lon="21.00615">
        <ele>466.628463</ele>
        <time>2022-04-23T11:48:59.516Z</time>
      </trkpt>
      <trkpt lat="41.97919" lon="21.00601">
        <ele>466.39579</ele>
        <time>2022-04-23T11:49:02.527Z</time>
      </trkpt>
      <trkpt lat="41.97923" lon="21.00589">
        <ele>466.187366</ele>
        <time>2022-04-23T11:49:05.509Z</time>
      </trkpt>
      <trkpt lat="41.97927" lon="21.00573">
        <ele>465.938977</ele>
        <time>2022-04-23T11:49:08.548Z</time>
      </trkpt>
      <trkpt lat="41.9793" lon="21.00558">
        <ele>465.723609</ele>
        <time>2022-04-23T11:49:11.517Z</time>
      </trkpt>
      <trkpt lat="41.97934" lon="21.00543">
        <ele>465.748335</ele>
        <time>2022-04-23T11:49:14.488Z</time>
      </trkpt>
      <trkpt lat="41.97937" lon="21.00528">
        <ele>465.772369</ele>
        <time>2022-04-23T11:49:17.553Z</time>
      </trkpt>
      <trkpt lat="41.97937" lon="21.00513">
        <ele>465.795953</ele>
        <time>2022-04-23T11:49:20.515Z</time>
      </trkpt>
      <trkpt lat="41.97937" lon="21.00498">
        <ele>465.818207</ele>
        <time>2022-04-23T11:49:23.521Z</time>
      </trkpt>
      <trkpt lat="41.9794" lon="21.00485">
        <ele>465.840116</ele>
        <time>2022-04-23T11:49:26.554Z</time>
      </trkpt>
      <trkpt lat="41.97944" lon="21.00471">
        <ele>465.863496</ele>
        <time>2022-04-23T11:49:29.496Z</time>
      </trkpt>
      <trkpt lat="41.97947" lon="21.00455">
        <ele>465.888822</ele>
        <time>2022-04-23T11:49:32.495Z</time>
      </trkpt>
      <trkpt lat="41.97952" lon="21.0044">
        <ele>465.914832</ele>
        <time>2022-04-23T11:49:35.525Z</time>
      </trkpt>
      <trkpt lat="41.97956" lon="21.00425">
        <ele>465.940198</ele>
        <time>2022-04-23T11:49:38.510Z</time>
      </trkpt>
      <trkpt lat="41.9796" lon="21.0041">
        <ele>465.964817</ele>
        <time>2022-04-23T11:49:41.482Z</time>
      </trkpt>
      <trkpt lat="41.97964" lon="21.00396">
        <ele>465.98766</ele>
        <time>2022-04-23T11:49:44.521Z</time>
      </trkpt>
      <trkpt lat="41.97967" lon="21.00381">
        <ele>466.012709</ele>
        <time>2022-04-23T11:49:47.498Z</time>
      </trkpt>
      <trkpt lat="41.9797" lon="21.00367">
        <ele>466.035407</ele>
        <time>2022-04-23T11:49:50.502Z</time>
      </trkpt>
      <trkpt lat="41.97974" lon="21.00355">
        <ele>466.056414</ele>
        <time>2022-04-23T11:49:53.497Z</time>
      </trkpt>
      <trkpt lat="41.97978" lon="21.00342">
        <ele>466.077937</ele>
        <time>2022-04-23T11:49:56.506Z</time>
      </trkpt>
      <trkpt lat="41.97981" lon="21.00327">
        <ele>466.098185</ele>
        <time>2022-04-23T11:50:00.498Z</time>
      </trkpt>
      <trkpt lat="41.97984" lon="21.00315">
        <ele>466.09278</ele>
        <time>2022-04-23T11:50:03.510Z</time>
      </trkpt>
      <trkpt lat="41.97988" lon="21.00304">
        <ele>466.087493</ele>
        <time>2022-04-23T11:50:06.494Z</time>
      </trkpt>
      <trkpt lat="41.97991" lon="21.00291">
        <ele>466.081907</ele>
        <time>2022-04-23T11:50:09.497Z</time>
      </trkpt>
      <trkpt lat="41.97995" lon="21.00278">
        <ele>466.075719</ele>
        <time>2022-04-23T11:50:12.513Z</time>
      </trkpt>
      <trkpt lat="41.97998" lon="21.00264">
        <ele>466.069533</ele>
        <time>2022-04-23T11:50:15.507Z</time>
      </trkpt>
      <trkpt lat="41.98002" lon="21.00251">
        <ele>466.063562</ele>
        <time>2022-04-23T11:50:18.495Z</time>
      </trkpt>
      <trkpt lat="41.98005" lon="21.00237">
        <ele>466.057295</ele>
        <time>2022-04-23T11:50:21.499Z</time>
      </trkpt>
      <trkpt lat="41.98009" lon="21.00222">
        <ele>466.050702</ele>
        <time>2022-04-23T11:50:24.512Z</time>
      </trkpt>
      <trkpt lat="41.98013" lon="21.00209">
        <ele>466.044435</ele>
        <time>2022-04-23T11:50:27.501Z</time>
      </trkpt>
      <trkpt lat="41.98016" lon="21.00196">
        <ele>466.038728</ele>
        <time>2022-04-23T11:50:30.504Z</time>
      </trkpt>
      <trkpt lat="41.9802" lon="21.00183">
        <ele>466.032813</ele>
        <time>2022-04-23T11:50:33.497Z</time>
      </trkpt>
      <trkpt lat="41.98025" lon="21.00171">
        <ele>466.02707</ele>
        <time>2022-04-23T11:50:36.506Z</time>
      </trkpt>
      <trkpt lat="41.9803" lon="21.00159">
        <ele>466.021268</ele>
        <time>2022-04-23T11:50:39.486Z</time>
      </trkpt>
      <trkpt lat="41.98034" lon="21.00148">
        <ele>466.015591</ele>
        <time>2022-04-23T11:50:42.517Z</time>
      </trkpt>
      <trkpt lat="41.98038" lon="21.00135">
        <ele>466.009911</ele>
        <time>2022-04-23T11:50:45.501Z</time>
      </trkpt>
      <trkpt lat="41.98042" lon="21.00123">
        <ele>466.004192</ele>
        <time>2022-04-23T11:50:48.504Z</time>
      </trkpt>
      <trkpt lat="41.98048" lon="21.00111">
        <ele>465.997872</ele>
        <time>2022-04-23T11:50:51.510Z</time>
      </trkpt>
      <trkpt lat="41.98054" lon="21.00098">
        <ele>466.090802</ele>
        <time>2022-04-23T11:50:54.501Z</time>
      </trkpt>
      <trkpt lat="41.98059" lon="21.00084">
        <ele>466.225159</ele>
        <time>2022-04-23T11:50:57.513Z</time>
      </trkpt>
      <trkpt lat="41.98064" lon="21.00072">
        <ele>466.353554</ele>
        <time>2022-04-23T11:51:00.495Z</time>
      </trkpt>
      <trkpt lat="41.98069" lon="21.0006">
        <ele>466.475418</ele>
        <time>2022-04-23T11:51:03.512Z</time>
      </trkpt>
      <trkpt lat="41.98074" lon="21.00048">
        <ele>466.60209</ele>
        <time>2022-04-23T11:51:06.505Z</time>
      </trkpt>
      <trkpt lat="41.9808" lon="21.00036">
        <ele>466.729287</ele>
        <time>2022-04-23T11:51:09.489Z</time>
      </trkpt>
      <trkpt lat="41.98085" lon="21.00023">
        <ele>466.863644</ele>
        <time>2022-04-23T11:51:12.507Z</time>
      </trkpt>
      <trkpt lat="41.9809" lon="21.00011">
        <ele>466.991235</ele>
        <time>2022-04-23T11:51:15.525Z</time>
      </trkpt>
      <trkpt lat="41.98094" lon="20.99999">
        <ele>467.118025</ele>
        <time>2022-04-23T11:51:18.486Z</time>
      </trkpt>
      <trkpt lat="41.981" lon="20.99985">
        <ele>467.258745</ele>
        <time>2022-04-23T11:51:21.516Z</time>
      </trkpt>
      <trkpt lat="41.98107" lon="20.99972">
        <ele>467.402692</ele>
        <time>2022-04-23T11:51:24.510Z</time>
      </trkpt>
      <trkpt lat="41.98113" lon="20.99958">
        <ele>467.550358</ele>
        <time>2022-04-23T11:51:27.498Z</time>
      </trkpt>
      <trkpt lat="41.98119" lon="20.99945">
        <ele>467.689926</ele>
        <time>2022-04-23T11:51:30.521Z</time>
      </trkpt>
      <trkpt lat="41.98126" lon="20.99932">
        <ele>467.833873</ele>
        <time>2022-04-23T11:51:33.558Z</time>
      </trkpt>
      <trkpt lat="41.98133" lon="20.99918">
        <ele>467.982109</ele>
        <time>2022-04-23T11:51:36.515Z</time>
      </trkpt>
      <trkpt lat="41.98139" lon="20.99906">
        <ele>468.124313</ele>
        <time>2022-04-23T11:51:39.512Z</time>
      </trkpt>
      <trkpt lat="41.98145" lon="20.99894">
        <ele>468.223837</ele>
        <time>2022-04-23T11:51:42.534Z</time>
      </trkpt>
      <trkpt lat="41.98151" lon="20.99883">
        <ele>468.288274</ele>
        <time>2022-04-23T11:51:45.520Z</time>
      </trkpt>
      <trkpt lat="41.98157" lon="20.99871">
        <ele>468.352143</ele>
        <time>2022-04-23T11:51:48.509Z</time>
      </trkpt>
      <trkpt lat="41.98162" lon="20.99859">
        <ele>468.413152</ele>
        <time>2022-04-23T11:51:51.492Z</time>
      </trkpt>
      <trkpt lat="41.98166" lon="20.99847">
        <ele>468.475794</ele>
        <time>2022-04-23T11:51:54.513Z</time>
      </trkpt>
      <trkpt lat="41.98171" lon="20.99836">
        <ele>468.537692</ele>
        <time>2022-04-23T11:51:57.522Z</time>
      </trkpt>
      <trkpt lat="41.98176" lon="20.99824">
        <ele>468.600843</ele>
        <time>2022-04-23T11:52:00.495Z</time>
      </trkpt>
      <trkpt lat="41.98182" lon="20.99811">
        <ele>468.669698</ele>
        <time>2022-04-23T11:52:03.487Z</time>
      </trkpt>
      <trkpt lat="41.98187" lon="20.99798">
        <ele>468.735826</ele>
        <time>2022-04-23T11:52:06.519Z</time>
      </trkpt>
      <trkpt lat="41.98193" lon="20.99786">
        <ele>468.802484</ele>
        <time>2022-04-23T11:52:09.504Z</time>
      </trkpt>
      <trkpt lat="41.982" lon="20.99774">
        <ele>468.874644</ele>
        <time>2022-04-23T11:52:12.513Z</time>
      </trkpt>
      <trkpt lat="41.98208" lon="20.99762">
        <ele>468.947551</ele>
        <time>2022-04-23T11:52:15.505Z</time>
      </trkpt>
      <trkpt lat="41.98215" lon="20.99749">
        <ele>469.021951</ele>
        <time>2022-04-23T11:52:18.502Z</time>
      </trkpt>
      <trkpt lat="41.98223" lon="20.99737">
        <ele>469.096471</ele>
        <time>2022-04-23T11:52:21.513Z</time>
      </trkpt>
      <trkpt lat="41.98229" lon="20.99724">
        <ele>469.16945</ele>
        <time>2022-04-23T11:52:24.523Z</time>
      </trkpt>
      <trkpt lat="41.98236" lon="20.99712">
        <ele>469.23458</ele>
        <time>2022-04-23T11:52:27.508Z</time>
      </trkpt>
      <trkpt lat="41.98243" lon="20.99701">
        <ele>469.303804</ele>
        <time>2022-04-23T11:52:30.514Z</time>
      </trkpt>
      <trkpt lat="41.98248" lon="20.99689">
        <ele>469.238489</ele>
        <time>2022-04-23T11:52:33.507Z</time>
      </trkpt>
      <trkpt lat="41.98253" lon="20.99676">
        <ele>469.154498</ele>
        <time>2022-04-23T11:52:36.514Z</time>
      </trkpt>
      <trkpt lat="41.98259" lon="20.99662">
        <ele>469.064686</ele>
        <time>2022-04-23T11:52:39.524Z</time>
      </trkpt>
      <trkpt lat="41.98265" lon="20.99649">
        <ele>468.972398</ele>
        <time>2022-04-23T11:52:42.502Z</time>
      </trkpt>
      <trkpt lat="41.98272" lon="20.99636">
        <ele>468.8822</ele>
        <time>2022-04-23T11:52:45.547Z</time>
      </trkpt>
      <trkpt lat="41.98279" lon="20.99623">
        <ele>468.789718</ele>
        <time>2022-04-23T11:52:48.517Z</time>
      </trkpt>
      <trkpt lat="41.98286" lon="20.9961">
        <ele>468.703205</ele>
        <time>2022-04-23T11:52:51.488Z</time>
      </trkpt>
      <trkpt lat="41.98292" lon="20.99599">
        <ele>468.621228</ele>
        <time>2022-04-23T11:52:54.507Z</time>
      </trkpt>
      <trkpt lat="41.98298" lon="20.99587">
        <ele>468.542038</ele>
        <time>2022-04-23T11:52:57.533Z</time>
      </trkpt>
      <trkpt lat="41.98305" lon="20.99576">
        <ele>468.460092</ele>
        <time>2022-04-23T11:53:00.494Z</time>
      </trkpt>
      <trkpt lat="41.98312" lon="20.99565">
        <ele>468.377003</ele>
        <time>2022-04-23T11:53:03.506Z</time>
      </trkpt>
      <trkpt lat="41.98319" lon="20.99554">
        <ele>468.292473</ele>
        <time>2022-04-23T11:53:06.517Z</time>
      </trkpt>
      <trkpt lat="41.98326" lon="20.99542">
        <ele>468.20572</ele>
        <time>2022-04-23T11:53:09.498Z</time>
      </trkpt>
      <trkpt lat="41.98334" lon="20.99531">
        <ele>468.118892</ele>
        <time>2022-04-23T11:53:12.532Z</time>
      </trkpt>
      <trkpt lat="41.98341" lon="20.9952">
        <ele>468.033572</ele>
        <time>2022-04-23T11:53:15.554Z</time>
      </trkpt>
      <trkpt lat="41.98349" lon="20.99508">
        <ele>467.94717</ele>
        <time>2022-04-23T11:53:18.506Z</time>
      </trkpt>
      <trkpt lat="41.98355" lon="20.99497">
        <ele>467.988867</ele>
        <time>2022-04-23T11:53:21.507Z</time>
      </trkpt>
      <trkpt lat="41.98362" lon="20.99485">
        <ele>468.066085</ele>
        <time>2022-04-23T11:53:24.501Z</time>
      </trkpt>
      <trkpt lat="41.98369" lon="20.99475">
        <ele>468.139155</ele>
        <time>2022-04-23T11:53:27.514Z</time>
      </trkpt>
      <trkpt lat="41.98376" lon="20.99464">
        <ele>468.216163</ele>
        <time>2022-04-23T11:53:30.543Z</time>
      </trkpt>
      <trkpt lat="41.98384" lon="20.99453">
        <ele>468.292202</ele>
        <time>2022-04-23T11:53:33.497Z</time>
      </trkpt>
      <trkpt lat="41.9839" lon="20.99443">
        <ele>468.362801</ele>
        <time>2022-04-23T11:53:36.482Z</time>
      </trkpt>
      <trkpt lat="41.98397" lon="20.99433">
        <ele>468.435481</ele>
        <time>2022-04-23T11:53:39.520Z</time>
      </trkpt>
      <trkpt lat="41.98406" lon="20.99423">
        <ele>468.515269</ele>
        <time>2022-04-23T11:53:42.495Z</time>
      </trkpt>
      <trkpt lat="41.98414" lon="20.99412">
        <ele>468.595739</ele>
        <time>2022-04-23T11:53:45.501Z</time>
      </trkpt>
      <trkpt lat="41.9842" lon="20.99402">
        <ele>468.665361</ele>
        <time>2022-04-23T11:53:48.489Z</time>
      </trkpt>
      <trkpt lat="41.98428" lon="20.99389">
        <ele>468.748872</ele>
        <time>2022-04-23T11:53:52.514Z</time>
      </trkpt>
      <trkpt lat="41.98434" lon="20.99377">
        <ele>468.828608</ele>
        <time>2022-04-23T11:53:55.498Z</time>
      </trkpt>
      <trkpt lat="41.98442" lon="20.99364">
        <ele>468.912969</ele>
        <time>2022-04-23T11:53:58.514Z</time>
      </trkpt>
      <trkpt lat="41.98448" lon="20.99352">
        <ele>468.993127</ele>
        <time>2022-04-23T11:54:01.509Z</time>
      </trkpt>
      <trkpt lat="41.98455" lon="20.9934">
        <ele>469.072026</ele>
        <time>2022-04-23T11:54:04.490Z</time>
      </trkpt>
      <trkpt lat="41.98462" lon="20.99328">
        <ele>469.149274</ele>
        <time>2022-04-23T11:54:07.510Z</time>
      </trkpt>
      <trkpt lat="41.98469" lon="20.99317">
        <ele>469.369477</ele>
        <time>2022-04-23T11:54:10.496Z</time>
      </trkpt>
      <trkpt lat="41.98476" lon="20.99307">
        <ele>469.758483</ele>
        <time>2022-04-23T11:54:13.492Z</time>
      </trkpt>
      <trkpt lat="41.98483" lon="20.99298">
        <ele>470.130243</ele>
        <time>2022-04-23T11:54:16.523Z</time>
      </trkpt>
      <trkpt lat="41.98491" lon="20.99289">
        <ele>470.520613</ele>
        <time>2022-04-23T11:54:19.496Z</time>
      </trkpt>
      <trkpt lat="41.98499" lon="20.99278">
        <ele>470.944688</ele>
        <time>2022-04-23T11:54:22.503Z</time>
      </trkpt>
      <trkpt lat="41.98508" lon="20.99268">
        <ele>471.402488</ele>
        <time>2022-04-23T11:54:26.508Z</time>
      </trkpt>
      <trkpt lat="41.98516" lon="20.99259">
        <ele>471.79189</ele>
        <time>2022-04-23T11:54:29.480Z</time>
      </trkpt>
      <trkpt lat="41.98523" lon="20.99248">
        <ele>472.200787</ele>
        <time>2022-04-23T11:54:32.494Z</time>
      </trkpt>
      <trkpt lat="41.98528" lon="20.99238">
        <ele>472.556631</ele>
        <time>2022-04-23T11:54:35.508Z</time>
      </trkpt>
      <trkpt lat="41.98531" lon="20.99225">
        <ele>472.915011</ele>
        <time>2022-04-23T11:54:39.513Z</time>
      </trkpt>
      <trkpt lat="41.98528" lon="20.99211">
        <ele>473.332586</ele>
        <time>2022-04-23T11:54:43.485Z</time>
      </trkpt>
      <trkpt lat="41.98525" lon="20.992">
        <ele>473.679745</ele>
        <time>2022-04-23T11:54:46.522Z</time>
      </trkpt>
      <trkpt lat="41.9852" lon="20.99187">
        <ele>474.075307</ele>
        <time>2022-04-23T11:54:49.480Z</time>
      </trkpt>
      <trkpt lat="41.98516" lon="20.99175">
        <ele>474.469378</ele>
        <time>2022-04-23T11:54:52.493Z</time>
      </trkpt>
      <trkpt lat="41.98511" lon="20.99162">
        <ele>474.852289</ele>
        <time>2022-04-23T11:54:55.493Z</time>
      </trkpt>
      <trkpt lat="41.98507" lon="20.9915">
        <ele>475.223655</ele>
        <time>2022-04-23T11:54:58.486Z</time>
      </trkpt>
      <trkpt lat="41.98504" lon="20.99138">
        <ele>475.600891</ele>
        <time>2022-04-23T11:55:01.506Z</time>
      </trkpt>
      <trkpt lat="41.98501" lon="20.99125">
        <ele>475.964705</ele>
        <time>2022-04-23T11:55:04.510Z</time>
      </trkpt>
      <trkpt lat="41.98498" lon="20.99113">
        <ele>476.240156</ele>
        <time>2022-04-23T11:55:07.493Z</time>
      </trkpt>
      <trkpt lat="41.98493" lon="20.99102">
        <ele>476.493687</ele>
        <time>2022-04-23T11:55:10.493Z</time>
      </trkpt>
      <trkpt lat="41.98487" lon="20.99093">
        <ele>476.73395</ele>
        <time>2022-04-23T11:55:13.497Z</time>
      </trkpt>
      <trkpt lat="41.9848" lon="20.99084">
        <ele>476.992849</ele>
        <time>2022-04-23T11:55:16.498Z</time>
      </trkpt>
      <trkpt lat="41.98473" lon="20.99074">
        <ele>477.275761</ele>
        <time>2022-04-23T11:55:19.495Z</time>
      </trkpt>
      <trkpt lat="41.98465" lon="20.99066">
        <ele>477.533536</ele>
        <time>2022-04-23T11:55:22.491Z</time>
      </trkpt>
      <trkpt lat="41.98457" lon="20.99057">
        <ele>477.80087</ele>
        <time>2022-04-23T11:55:25.481Z</time>
      </trkpt>
      <trkpt lat="41.98449" lon="20.99051">
        <ele>478.063905</ele>
        <time>2022-04-23T11:55:28.495Z</time>
      </trkpt>
      <trkpt lat="41.98441" lon="20.99044">
        <ele>478.305386</ele>
        <time>2022-04-23T11:55:31.524Z</time>
      </trkpt>
      <trkpt lat="41.98432" lon="20.99035">
        <ele>478.608903</ele>
        <time>2022-04-23T11:55:35.478Z</time>
      </trkpt>
      <trkpt lat="41.98423" lon="20.99027">
        <ele>478.902449</ele>
        <time>2022-04-23T11:55:39.515Z</time>
      </trkpt>
      <trkpt lat="41.98414" lon="20.99019">
        <ele>479.198209</ele>
        <time>2022-04-23T11:55:43.499Z</time>
      </trkpt>
      <trkpt lat="41.98406" lon="20.99012">
        <ele>479.438606</ele>
        <time>2022-04-23T11:55:46.513Z</time>
      </trkpt>
      <trkpt lat="41.98396" lon="20.99003">
        <ele>479.75542</ele>
        <time>2022-04-23T11:55:50.533Z</time>
      </trkpt>
      <trkpt lat="41.98387" lon="20.98995">
        <ele>480.061483</ele>
        <time>2022-04-23T11:55:54.531Z</time>
      </trkpt>
      <trkpt lat="41.98379" lon="20.98987">
        <ele>480.324121</ele>
        <time>2022-04-23T11:55:57.535Z</time>
      </trkpt>
      <trkpt lat="41.98371" lon="20.9898">
        <ele>480.571286</ele>
        <time>2022-04-23T11:56:00.504Z</time>
      </trkpt>
      <trkpt lat="41.98364" lon="20.98973">
        <ele>480.816293</ele>
        <time>2022-04-23T11:56:03.503Z</time>
      </trkpt>
      <trkpt lat="41.98356" lon="20.98965">
        <ele>480.936944</ele>
        <time>2022-04-23T11:56:06.496Z</time>
      </trkpt>
      <trkpt lat="41.98347" lon="20.98957">
        <ele>481.060497</ele>
        <time>2022-04-23T11:56:09.521Z</time>
      </trkpt>
      <trkpt lat="41.98339" lon="20.9895">
        <ele>481.166762</ele>
        <time>2022-04-23T11:56:12.492Z</time>
      </trkpt>
      <trkpt lat="41.98332" lon="20.98943">
        <ele>481.276863</ele>
        <time>2022-04-23T11:56:15.513Z</time>
      </trkpt>
      <trkpt lat="41.98323" lon="20.98935">
        <ele>481.391294</ele>
        <time>2022-04-23T11:56:19.516Z</time>
      </trkpt>
      <trkpt lat="41.98314" lon="20.98925">
        <ele>481.531599</ele>
        <time>2022-04-23T11:56:23.510Z</time>
      </trkpt>
      <trkpt lat="41.98306" lon="20.98919">
        <ele>481.63858</ele>
        <time>2022-04-23T11:56:26.497Z</time>
      </trkpt>
      <trkpt lat="41.98298" lon="20.98912">
        <ele>481.750135</ele>
        <time>2022-04-23T11:56:29.517Z</time>
      </trkpt>
      <trkpt lat="41.98289" lon="20.98904">
        <ele>481.866481</ele>
        <time>2022-04-23T11:56:32.510Z</time>
      </trkpt>
      <trkpt lat="41.98281" lon="20.98896">
        <ele>481.985706</ele>
        <time>2022-04-23T11:56:36.510Z</time>
      </trkpt>
      <trkpt lat="41.98272" lon="20.98888">
        <ele>482.115518</ele>
        <time>2022-04-23T11:56:40.509Z</time>
      </trkpt>
      <trkpt lat="41.98263" lon="20.98879">
        <ele>482.245379</ele>
        <time>2022-04-23T11:56:44.503Z</time>
      </trkpt>
      <trkpt lat="41.98254" lon="20.98869">
        <ele>482.378648</ele>
        <time>2022-04-23T11:56:48.515Z</time>
      </trkpt>
      <trkpt lat="41.98247" lon="20.98861">
        <ele>482.484894</ele>
        <time>2022-04-23T11:56:51.496Z</time>
      </trkpt>
      <trkpt lat="41.98241" lon="20.98852">
        <ele>482.592199</ele>
        <time>2022-04-23T11:56:54.515Z</time>
      </trkpt>
      <trkpt lat="41.98234" lon="20.98842">
        <ele>482.700981</ele>
        <time>2022-04-23T11:56:58.495Z</time>
      </trkpt>
      <trkpt lat="41.98229" lon="20.9883">
        <ele>482.824189</ele>
        <time>2022-04-23T11:57:04.513Z</time>
      </trkpt>
      <trkpt lat="41.98224" lon="20.98817">
        <ele>482.86276</ele>
        <time>2022-04-23T11:57:09.510Z</time>
      </trkpt>
      <trkpt lat="41.98218" lon="20.98807">
        <ele>482.71247</ele>
        <time>2022-04-23T11:57:13.506Z</time>
      </trkpt>
      <trkpt lat="41.98213" lon="20.98795">
        <ele>482.553369</ele>
        <time>2022-04-23T11:57:17.536Z</time>
      </trkpt>
      <trkpt lat="41.98208" lon="20.98783">
        <ele>482.389114</ele>
        <time>2022-04-23T11:57:21.505Z</time>
      </trkpt>
      <trkpt lat="41.98203" lon="20.98772">
        <ele>482.243275</ele>
        <time>2022-04-23T11:57:26.497Z</time>
      </trkpt>
      <trkpt lat="41.98197" lon="20.98759">
        <ele>482.066134</ele>
        <time>2022-04-23T11:57:32.498Z</time>
      </trkpt>
      <trkpt lat="41.98192" lon="20.98749">
        <ele>481.922521</ele>
        <time>2022-04-23T11:57:36.495Z</time>
      </trkpt>
      <trkpt lat="41.98186" lon="20.98739">
        <ele>481.770295</ele>
        <time>2022-04-23T11:57:40.532Z</time>
      </trkpt>
      <trkpt lat="41.98181" lon="20.98727">
        <ele>481.613183</ele>
        <time>2022-04-23T11:57:44.500Z</time>
      </trkpt>
      <trkpt lat="41.98175" lon="20.98717">
        <ele>481.455279</ele>
        <time>2022-04-23T11:57:48.490Z</time>
      </trkpt>
      <trkpt lat="41.98169" lon="20.98706">
        <ele>481.305635</ele>
        <time>2022-04-23T11:57:53.519Z</time>
      </trkpt>
      <trkpt lat="41.98165" lon="20.98693">
        <ele>481.139006</ele>
        <time>2022-04-23T11:57:58.514Z</time>
      </trkpt>
      <trkpt lat="41.9816" lon="20.98682">
        <ele>480.988585</ele>
        <time>2022-04-23T11:58:02.521Z</time>
      </trkpt>
      <trkpt lat="41.98154" lon="20.98671">
        <ele>480.825083</ele>
        <time>2022-04-23T11:58:06.535Z</time>
      </trkpt>
      <trkpt lat="41.98149" lon="20.98659">
        <ele>480.666832</ele>
        <time>2022-04-23T11:58:10.553Z</time>
      </trkpt>
      <trkpt lat="41.98144" lon="20.98648">
        <ele>480.512221</ele>
        <time>2022-04-23T11:58:14.515Z</time>
      </trkpt>
      <trkpt lat="41.98137" lon="20.98637">
        <ele>480.350685</ele>
        <time>2022-04-23T11:58:18.540Z</time>
      </trkpt>
      <trkpt lat="41.98131" lon="20.98624">
        <ele>480.170268</ele>
        <time>2022-04-23T11:58:22.510Z</time>
      </trkpt>
      <trkpt lat="41.98126" lon="20.98614">
        <ele>480.153902</ele>
        <time>2022-04-23T11:58:25.513Z</time>
      </trkpt>
      <trkpt lat="41.9812" lon="20.98601">
        <ele>480.354547</ele>
        <time>2022-04-23T11:58:29.512Z</time>
      </trkpt>
      <trkpt lat="41.98115" lon="20.9859">
        <ele>480.542279</ele>
        <time>2022-04-23T11:58:33.507Z</time>
      </trkpt>
      <trkpt lat="41.98109" lon="20.98577">
        <ele>480.748365</ele>
        <time>2022-04-23T11:58:38.515Z</time>
      </trkpt>
      <trkpt lat="41.98104" lon="20.98566">
        <ele>480.924046</ele>
        <time>2022-04-23T11:58:42.523Z</time>
      </trkpt>
      <trkpt lat="41.98099" lon="20.98553">
        <ele>481.12603</ele>
        <time>2022-04-23T11:58:47.578Z</time>
      </trkpt>
      <trkpt lat="41.98093" lon="20.98542">
        <ele>481.315368</ele>
        <time>2022-04-23T11:58:52.508Z</time>
      </trkpt>
      <trkpt lat="41.98087" lon="20.98531">
        <ele>481.492621</ele>
        <time>2022-04-23T11:58:56.501Z</time>
      </trkpt>
      <trkpt lat="41.98081" lon="20.9852">
        <ele>481.679846</ele>
        <time>2022-04-23T11:59:00.489Z</time>
      </trkpt>
      <trkpt lat="41.98076" lon="20.98509">
        <ele>481.862344</ele>
        <time>2022-04-23T11:59:04.506Z</time>
      </trkpt>
      <trkpt lat="41.98071" lon="20.98496">
        <ele>482.05343</ele>
        <time>2022-04-23T11:59:09.540Z</time>
      </trkpt>
      <trkpt lat="41.98066" lon="20.98484">
        <ele>482.248935</ele>
        <time>2022-04-23T11:59:14.491Z</time>
      </trkpt>
      <trkpt lat="41.9806" lon="20.98474">
        <ele>482.427462</ele>
        <time>2022-04-23T11:59:18.532Z</time>
      </trkpt>
      <trkpt lat="41.98055" lon="20.98463">
        <ele>482.600415</ele>
        <time>2022-04-23T11:59:22.504Z</time>
      </trkpt>
      <trkpt lat="41.9805" lon="20.98452">
        <ele>482.780789</ele>
        <time>2022-04-23T11:59:27.542Z</time>
      </trkpt>
      <trkpt lat="41.98046" lon="20.9844">
        <ele>482.959698</ele>
        <time>2022-04-23T11:59:32.515Z</time>
      </trkpt>
      <trkpt lat="41.98041" lon="20.98429">
        <ele>483.132754</ele>
        <time>2022-04-23T11:59:36.502Z</time>
      </trkpt>
      <trkpt lat="41.98036" lon="20.98418">
        <ele>483.319055</ele>
        <time>2022-04-23T11:59:40.508Z</time>
      </trkpt>
      <trkpt lat="41.98032" lon="20.98405">
        <ele>483.359537</ele>
        <time>2022-04-23T11:59:44.489Z</time>
      </trkpt>
      <trkpt lat="41.98027" lon="20.98393">
        <ele>483.273287</ele>
        <time>2022-04-23T11:59:48.508Z</time>
      </trkpt>
      <trkpt lat="41.98022" lon="20.98379">
        <ele>483.178655</ele>
        <time>2022-04-23T11:59:52.491Z</time>
      </trkpt>
      <trkpt lat="41.98018" lon="20.98365">
        <ele>483.091206</ele>
        <time>2022-04-23T11:59:56.502Z</time>
      </trkpt>
      <trkpt lat="41.98016" lon="20.98354">
        <ele>483.018142</ele>
        <time>2022-04-23T11:59:59.520Z</time>
      </trkpt>
      <trkpt lat="41.98012" lon="20.98338">
        <ele>482.922146</ele>
        <time>2022-04-23T12:00:03.527Z</time>
      </trkpt>
      <trkpt lat="41.98008" lon="20.98326">
        <ele>482.841407</ele>
        <time>2022-04-23T12:00:06.496Z</time>
      </trkpt>
      <trkpt lat="41.98005" lon="20.98315">
        <ele>482.766121</ele>
        <time>2022-04-23T12:00:09.551Z</time>
      </trkpt>
      <trkpt lat="41.98001" lon="20.98303">
        <ele>482.691396</ele>
        <time>2022-04-23T12:00:12.504Z</time>
      </trkpt>
      <trkpt lat="41.97997" lon="20.98288">
        <ele>482.594617</ele>
        <time>2022-04-23T12:00:16.549Z</time>
      </trkpt>
      <trkpt lat="41.97994" lon="20.98276">
        <ele>482.518747</ele>
        <time>2022-04-23T12:00:19.503Z</time>
      </trkpt>
      <trkpt lat="41.9799" lon="20.98262">
        <ele>482.428732</ele>
        <time>2022-04-23T12:00:23.506Z</time>
      </trkpt>
      <trkpt lat="41.97987" lon="20.98247">
        <ele>482.333882</ele>
        <time>2022-04-23T12:00:27.518Z</time>
      </trkpt>
      <trkpt lat="41.97982" lon="20.98232">
        <ele>482.23708</ele>
        <time>2022-04-23T12:00:31.533Z</time>
      </trkpt>
      <trkpt lat="41.9798" lon="20.9822">
        <ele>482.160088</ele>
        <time>2022-04-23T12:00:35.498Z</time>
      </trkpt>
      <trkpt lat="41.97978" lon="20.98207">
        <ele>482.081115</ele>
        <time>2022-04-23T12:00:39.507Z</time>
      </trkpt>
      <trkpt lat="41.97974" lon="20.98195">
        <ele>482.002916</ele>
        <time>2022-04-23T12:00:42.510Z</time>
      </trkpt>
      <trkpt lat="41.9797" lon="20.98183">
        <ele>481.920875</ele>
        <time>2022-04-23T12:00:45.533Z</time>
      </trkpt>
      <trkpt lat="41.97966" lon="20.98171">
        <ele>481.827719</ele>
        <time>2022-04-23T12:00:48.512Z</time>
      </trkpt>
      <trkpt lat="41.97962" lon="20.98158">
        <ele>481.737323</ele>
        <time>2022-04-23T12:00:51.508Z</time>
      </trkpt>
      <trkpt lat="41.97959" lon="20.98147">
        <ele>481.653441</ele>
        <time>2022-04-23T12:00:54.512Z</time>
      </trkpt>
      <trkpt lat="41.97956" lon="20.98133">
        <ele>481.556356</ele>
        <time>2022-04-23T12:00:58.498Z</time>
      </trkpt>
      <trkpt lat="41.97952" lon="20.98121">
        <ele>481.463358</ele>
        <time>2022-04-23T12:01:01.494Z</time>
      </trkpt>
      <trkpt lat="41.97947" lon="20.98108">
        <ele>481.369743</ele>
        <time>2022-04-23T12:01:04.488Z</time>
      </trkpt>
      <trkpt lat="41.97944" lon="20.98095">
        <ele>481.278188</ele>
        <time>2022-04-23T12:01:07.527Z</time>
      </trkpt>
      <trkpt lat="41.9794" lon="20.98084">
        <ele>481.194284</ele>
        <time>2022-04-23T12:01:10.524Z</time>
      </trkpt>
      <trkpt lat="41.97937" lon="20.98072">
        <ele>481.107216</ele>
        <time>2022-04-23T12:01:13.513Z</time>
      </trkpt>
      <trkpt lat="41.97934" lon="20.98059">
        <ele>481.01946</ele>
        <time>2022-04-23T12:01:16.518Z</time>
      </trkpt>
      <trkpt lat="41.97931" lon="20.98047">
        <ele>480.932986</ele>
        <time>2022-04-23T12:01:19.525Z</time>
      </trkpt>
      <trkpt lat="41.97928" lon="20.98035">
        <ele>480.844331</ele>
        <time>2022-04-23T12:01:22.505Z</time>
      </trkpt>
      <trkpt lat="41.97924" lon="20.98023">
        <ele>480.757858</ele>
        <time>2022-04-23T12:01:25.506Z</time>
      </trkpt>
      <trkpt lat="41.97921" lon="20.9801">
        <ele>480.665947</ele>
        <time>2022-04-23T12:01:28.499Z</time>
      </trkpt>
      <trkpt lat="41.97918" lon="20.97998">
        <ele>480.577601</ele>
        <time>2022-04-23T12:01:31.501Z</time>
      </trkpt>
      <trkpt lat="41.97915" lon="20.97985">
        <ele>480.483829</ele>
        <time>2022-04-23T12:01:34.502Z</time>
      </trkpt>
      <trkpt lat="41.9791" lon="20.97971">
        <ele>480.380058</ele>
        <time>2022-04-23T12:01:37.521Z</time>
      </trkpt>
      <trkpt lat="41.97906" lon="20.97958">
        <ele>480.320812</ele>
        <time>2022-04-23T12:01:40.484Z</time>
      </trkpt>
      <trkpt lat="41.97903" lon="20.97944">
        <ele>480.422211</ele>
        <time>2022-04-23T12:01:43.483Z</time>
      </trkpt>
      <trkpt lat="41.97899" lon="20.97933">
        <ele>480.511955</ele>
        <time>2022-04-23T12:01:46.491Z</time>
      </trkpt>
      <trkpt lat="41.97896" lon="20.97921">
        <ele>480.606241</ele>
        <time>2022-04-23T12:01:49.506Z</time>
      </trkpt>
      <trkpt lat="41.97892" lon="20.97908">
        <ele>480.703875</ele>
        <time>2022-04-23T12:01:52.533Z</time>
      </trkpt>
      <trkpt lat="41.97889" lon="20.97895">
        <ele>480.801561</ele>
        <time>2022-04-23T12:01:55.504Z</time>
      </trkpt>
      <trkpt lat="41.97885" lon="20.97882">
        <ele>480.904241</ele>
        <time>2022-04-23T12:01:58.522Z</time>
      </trkpt>
      <trkpt lat="41.97882" lon="20.97868">
        <ele>481.005049</ele>
        <time>2022-04-23T12:02:01.485Z</time>
      </trkpt>
      <trkpt lat="41.97878" lon="20.97855">
        <ele>481.106487</ele>
        <time>2022-04-23T12:02:04.489Z</time>
      </trkpt>
      <trkpt lat="41.97874" lon="20.97842">
        <ele>481.208966</ele>
        <time>2022-04-23T12:02:07.503Z</time>
      </trkpt>
      <trkpt lat="41.9787" lon="20.97829">
        <ele>481.31099</ele>
        <time>2022-04-23T12:02:10.551Z</time>
      </trkpt>
      <trkpt lat="41.97868" lon="20.97816">
        <ele>481.403537</ele>
        <time>2022-04-23T12:02:13.500Z</time>
      </trkpt>
      <trkpt lat="41.97863" lon="20.97801">
        <ele>481.51937</ele>
        <time>2022-04-23T12:02:17.501Z</time>
      </trkpt>
      <trkpt lat="41.97859" lon="20.9779">
        <ele>481.610557</ele>
        <time>2022-04-23T12:02:20.494Z</time>
      </trkpt>
      <trkpt lat="41.97853" lon="20.9778">
        <ele>481.702237</ele>
        <time>2022-04-23T12:02:23.504Z</time>
      </trkpt>
      <trkpt lat="41.97848" lon="20.97769">
        <ele>481.797966</ele>
        <time>2022-04-23T12:02:26.494Z</time>
      </trkpt>
      <trkpt lat="41.97841" lon="20.97759">
        <ele>481.894789</ele>
        <time>2022-04-23T12:02:29.492Z</time>
      </trkpt>
      <trkpt lat="41.97835" lon="20.97748">
        <ele>481.989352</ele>
        <time>2022-04-23T12:02:32.491Z</time>
      </trkpt>
      <trkpt lat="41.9783" lon="20.97739">
        <ele>482.197363</ele>
        <time>2022-04-23T12:02:35.481Z</time>
      </trkpt>
      <trkpt lat="41.97825" lon="20.97728">
        <ele>482.59737</ele>
        <time>2022-04-23T12:02:38.536Z</time>
      </trkpt>
      <trkpt lat="41.97819" lon="20.97716">
        <ele>483.014985</ele>
        <time>2022-04-23T12:02:41.494Z</time>
      </trkpt>
      <trkpt lat="41.97812" lon="20.97705">
        <ele>483.459882</ele>
        <time>2022-04-23T12:02:44.481Z</time>
      </trkpt>
      <trkpt lat="41.97807" lon="20.97695">
        <ele>483.848524</ele>
        <time>2022-04-23T12:02:47.508Z</time>
      </trkpt>
      <trkpt lat="41.97801" lon="20.97684">
        <ele>484.25646</ele>
        <time>2022-04-23T12:02:50.505Z</time>
      </trkpt>
      <trkpt lat="41.97794" lon="20.97674">
        <ele>484.677353</ele>
        <time>2022-04-23T12:02:53.486Z</time>
      </trkpt>
      <trkpt lat="41.97788" lon="20.97664">
        <ele>485.065333</ele>
        <time>2022-04-23T12:02:56.489Z</time>
      </trkpt>
      <trkpt lat="41.97783" lon="20.97653">
        <ele>485.46366</ele>
        <time>2022-04-23T12:02:59.499Z</time>
      </trkpt>
      <trkpt lat="41.97777" lon="20.97642">
        <ele>485.891087</ele>
        <time>2022-04-23T12:03:02.478Z</time>
      </trkpt>
      <trkpt lat="41.97771" lon="20.97631">
        <ele>486.325852</ele>
        <time>2022-04-23T12:03:05.494Z</time>
      </trkpt>
      <trkpt lat="41.97764" lon="20.97618">
        <ele>486.805183</ele>
        <time>2022-04-23T12:03:09.503Z</time>
      </trkpt>
      <trkpt lat="41.97757" lon="20.97606">
        <ele>487.294352</ele>
        <time>2022-04-23T12:03:13.513Z</time>
      </trkpt>
      <trkpt lat="41.97751" lon="20.97594">
        <ele>487.71009</ele>
        <time>2022-04-23T12:03:16.495Z</time>
      </trkpt>
      <trkpt lat="41.97745" lon="20.97584">
        <ele>488.125419</ele>
        <time>2022-04-23T12:03:19.500Z</time>
      </trkpt>
      <trkpt lat="41.97739" lon="20.97574">
        <ele>488.505837</ele>
        <time>2022-04-23T12:03:22.517Z</time>
      </trkpt>
      <trkpt lat="41.97734" lon="20.97564">
        <ele>488.886277</ele>
        <time>2022-04-23T12:03:25.508Z</time>
      </trkpt>
      <trkpt lat="41.97728" lon="20.97554">
        <ele>489.266696</ele>
        <time>2022-04-23T12:03:28.520Z</time>
      </trkpt>
      <trkpt lat="41.97722" lon="20.97543">
        <ele>489.434531</ele>
        <time>2022-04-23T12:03:31.504Z</time>
      </trkpt>
      <trkpt lat="41.97715" lon="20.97531">
        <ele>489.321283</ele>
        <time>2022-04-23T12:03:34.491Z</time>
      </trkpt>
      <trkpt lat="41.97709" lon="20.97521">
        <ele>489.222433</ele>
        <time>2022-04-23T12:03:37.545Z</time>
      </trkpt>
      <trkpt lat="41.97705" lon="20.97508">
        <ele>489.123071</ele>
        <time>2022-04-23T12:03:41.507Z</time>
      </trkpt>
      <trkpt lat="41.97703" lon="20.97494">
        <ele>489.010761</ele>
        <time>2022-04-23T12:03:45.494Z</time>
      </trkpt>
      <trkpt lat="41.97704" lon="20.97479">
        <ele>488.902797</ele>
        <time>2022-04-23T12:03:49.513Z</time>
      </trkpt>
      <trkpt lat="41.97706" lon="20.97467">
        <ele>488.811208</ele>
        <time>2022-04-23T12:03:52.506Z</time>
      </trkpt>
      <trkpt lat="41.97708" lon="20.97455">
        <ele>488.718896</ele>
        <time>2022-04-23T12:03:55.522Z</time>
      </trkpt>
      <trkpt lat="41.97711" lon="20.9744">
        <ele>488.600248</ele>
        <time>2022-04-23T12:03:59.539Z</time>
      </trkpt>
      <trkpt lat="41.97714" lon="20.97428">
        <ele>488.507473</ele>
        <time>2022-04-23T12:04:02.536Z</time>
      </trkpt>
      <trkpt lat="41.97717" lon="20.97417">
        <ele>488.417446</ele>
        <time>2022-04-23T12:04:05.495Z</time>
      </trkpt>
      <trkpt lat="41.9772" lon="20.97402">
        <ele>488.303328</ele>
        <time>2022-04-23T12:04:09.513Z</time>
      </trkpt>
      <trkpt lat="41.97724" lon="20.9739">
        <ele>488.209214</ele>
        <time>2022-04-23T12:04:12.506Z</time>
      </trkpt>
      <trkpt lat="41.97728" lon="20.97376">
        <ele>488.091312</ele>
        <time>2022-04-23T12:04:16.502Z</time>
      </trkpt>
      <trkpt lat="41.9773" lon="20.97363">
        <ele>487.998463</ele>
        <time>2022-04-23T12:04:19.525Z</time>
      </trkpt>
      <trkpt lat="41.97733" lon="20.9735">
        <ele>487.895588</ele>
        <time>2022-04-23T12:04:22.523Z</time>
      </trkpt>
      <trkpt lat="41.97737" lon="20.97336">
        <ele>487.780441</ele>
        <time>2022-04-23T12:04:26.508Z</time>
      </trkpt>
      <trkpt lat="41.97741" lon="20.97322">
        <ele>487.764239</ele>
        <time>2022-04-23T12:04:30.518Z</time>
      </trkpt>
      <trkpt lat="41.97744" lon="20.97307">
        <ele>488.488163</ele>
        <time>2022-04-23T12:04:34.500Z</time>
      </trkpt>
      <trkpt lat="41.97745" lon="20.97295">
        <ele>489.081626</ele>
        <time>2022-04-23T12:04:37.517Z</time>
      </trkpt>
      <trkpt lat="41.97748" lon="20.9728">
        <ele>489.808126</ele>
        <time>2022-04-23T12:04:41.505Z</time>
      </trkpt>
      <trkpt lat="41.97748" lon="20.97266">
        <ele>490.489769</ele>
        <time>2022-04-23T12:04:45.519Z</time>
      </trkpt>
      <trkpt lat="41.97745" lon="20.97253">
        <ele>491.147071</ele>
        <time>2022-04-23T12:04:49.543Z</time>
      </trkpt>
      <trkpt lat="41.97743" lon="20.9724">
        <ele>491.801754</ele>
        <time>2022-04-23T12:04:53.514Z</time>
      </trkpt>
      <trkpt lat="41.97743" lon="20.97226">
        <ele>492.468137</ele>
        <time>2022-04-23T12:04:57.526Z</time>
      </trkpt>
      <trkpt lat="41.97742" lon="20.97212">
        <ele>493.184635</ele>
        <time>2022-04-23T12:05:01.502Z</time>
      </trkpt>
      <trkpt lat="41.9774" lon="20.97197">
        <ele>493.8851</ele>
        <time>2022-04-23T12:05:05.513Z</time>
      </trkpt>
      <trkpt lat="41.9774" lon="20.97181">
        <ele>494.648751</ele>
        <time>2022-04-23T12:05:09.510Z</time>
      </trkpt>
      <trkpt lat="41.97739" lon="20.97166">
        <ele>495.388024</ele>
        <time>2022-04-23T12:05:13.504Z</time>
      </trkpt>
      <trkpt lat="41.97738" lon="20.97151">
        <ele>496.115949</ele>
        <time>2022-04-23T12:05:17.525Z</time>
      </trkpt>
      <trkpt lat="41.97736" lon="20.97136">
        <ele>496.880372</ele>
        <time>2022-04-23T12:05:21.495Z</time>
      </trkpt>
      <trkpt lat="41.97736" lon="20.97122">
        <ele>497.552087</ele>
        <time>2022-04-23T12:05:25.491Z</time>
      </trkpt>
      <trkpt lat="41.97736" lon="20.97106">
        <ele>498.330212</ele>
        <time>2022-04-23T12:05:29.524Z</time>
      </trkpt>
      <trkpt lat="41.97734" lon="20.97091">
        <ele>499.031682</ele>
        <time>2022-04-23T12:05:32.542Z</time>
      </trkpt>
      <trkpt lat="41.97733" lon="20.97076">
        <ele>499.203607</ele>
        <time>2022-04-23T12:05:36.524Z</time>
      </trkpt>
      <trkpt lat="41.97732" lon="20.97063">
        <ele>498.945878</ele>
        <time>2022-04-23T12:05:40.506Z</time>
      </trkpt>
      <trkpt lat="41.9773" lon="20.97049">
        <ele>498.659797</ele>
        <time>2022-04-23T12:05:44.489Z</time>
      </trkpt>
      <trkpt lat="41.97724" lon="20.97037">
        <ele>498.372708</ele>
        <time>2022-04-23T12:05:50.597Z</time>
      </trkpt>
      <trkpt lat="41.97717" lon="20.97026">
        <ele>498.085704</ele>
        <time>2022-04-23T12:05:55.577Z</time>
      </trkpt>
      <trkpt lat="41.97711" lon="20.97014">
        <ele>497.811095</ele>
        <time>2022-04-23T12:06:00.569Z</time>
      </trkpt>
      <trkpt lat="41.97719" lon="20.97003">
        <ele>497.510584</ele>
        <time>2022-04-23T12:06:05.534Z</time>
      </trkpt>
      <trkpt lat="41.97729" lon="20.96994">
        <ele>497.193604</ele>
        <time>2022-04-23T12:06:09.497Z</time>
      </trkpt>
      <trkpt lat="41.97737" lon="20.96988">
        <ele>496.952855</ele>
        <time>2022-04-23T12:06:12.506Z</time>
      </trkpt>
      <trkpt lat="41.97747" lon="20.96981">
        <ele>496.65132</ele>
        <time>2022-04-23T12:06:15.506Z</time>
      </trkpt>
      <trkpt lat="41.97757" lon="20.96976">
        <ele>496.377471</ele>
        <time>2022-04-23T12:06:18.526Z</time>
      </trkpt>
      <trkpt lat="41.97766" lon="20.96972">
        <ele>496.112424</ele>
        <time>2022-04-23T12:06:21.495Z</time>
      </trkpt>
      <trkpt lat="41.97775" lon="20.96967">
        <ele>495.868537</ele>
        <time>2022-04-23T12:06:24.506Z</time>
      </trkpt>
      <trkpt lat="41.97786" lon="20.96961">
        <ele>495.560157</ele>
        <time>2022-04-23T12:06:28.537Z</time>
      </trkpt>
      <trkpt lat="41.97795" lon="20.96957">
        <ele>495.31215</ele>
        <time>2022-04-23T12:06:31.532Z</time>
      </trkpt>
      <trkpt lat="41.97804" lon="20.96953">
        <ele>495.065363</ele>
        <time>2022-04-23T12:06:34.542Z</time>
      </trkpt>
      <trkpt lat="41.97812" lon="20.96949">
        <ele>494.817912</ele>
        <time>2022-04-23T12:06:37.498Z</time>
      </trkpt>
      <trkpt lat="41.97823" lon="20.96943">
        <ele>494.610146</ele>
        <time>2022-04-23T12:06:41.491Z</time>
      </trkpt>
      <trkpt lat="41.97832" lon="20.96939">
        <ele>494.610146</ele>
        <time>2022-04-23T12:06:44.530Z</time>
      </trkpt>
      <trkpt lat="41.97842" lon="20.96934">
        <ele>494.610146</ele>
        <time>2022-04-23T12:06:47.521Z</time>
      </trkpt>
      <trkpt lat="41.97851" lon="20.9693">
        <ele>494.610146</ele>
        <time>2022-04-23T12:06:50.508Z</time>
      </trkpt>
      <trkpt lat="41.97861" lon="20.96925">
        <ele>494.610146</ele>
        <time>2022-04-23T12:06:53.533Z</time>
      </trkpt>
      <trkpt lat="41.97872" lon="20.9692">
        <ele>494.610146</ele>
        <time>2022-04-23T12:06:56.504Z</time>
      </trkpt>
      <trkpt lat="41.97881" lon="20.96914">
        <ele>494.610146</ele>
        <time>2022-04-23T12:06:59.515Z</time>
      </trkpt>
      <trkpt lat="41.9789" lon="20.96908">
        <ele>494.610146</ele>
        <time>2022-04-23T12:07:02.522Z</time>
      </trkpt>
      <trkpt lat="41.97901" lon="20.96902">
        <ele>494.610146</ele>
        <time>2022-04-23T12:07:06.493Z</time>
      </trkpt>
      <trkpt lat="41.97909" lon="20.96897">
        <ele>494.610146</ele>
        <time>2022-04-23T12:07:09.564Z</time>
      </trkpt>
      <trkpt lat="41.9792" lon="20.96892">
        <ele>494.610146</ele>
        <time>2022-04-23T12:07:13.518Z</time>
      </trkpt>
      <trkpt lat="41.9793" lon="20.96886">
        <ele>494.610146</ele>
        <time>2022-04-23T12:07:17.510Z</time>
      </trkpt>
      <trkpt lat="41.9794" lon="20.9688">
        <ele>494.610146</ele>
        <time>2022-04-23T12:07:21.507Z</time>
      </trkpt>
      <trkpt lat="41.97949" lon="20.96876">
        <ele>494.610146</ele>
        <time>2022-04-23T12:07:26.493Z</time>
      </trkpt>
      <trkpt lat="41.97958" lon="20.96876">
        <ele>494.610146</ele>
        <time>2022-04-23T12:07:33.510Z</time>
      </trkpt>
      <trkpt lat="41.9796" lon="20.96888">
        <ele>494.610146</ele>
        <time>2022-04-23T12:07:40.481Z</time>
      </trkpt>
      <trkpt lat="41.97963" lon="20.96901">
        <ele>494.610146</ele>
        <time>2022-04-23T12:07:53.532Z</time>
      </trkpt>
      <trkpt lat="41.9797" lon="20.96915">
        <ele>494.610146</ele>
        <time>2022-04-23T12:08:38.166Z</time>
      </trkpt>
    </trkseg>
  </trk>
  <trk>
    <name><![CDATA[Tour d'Europe: étape 654]]></name>
    <extensions>
      <line xmlns="http://www.topografix.com/GPX/gpx_style/0/2">
        <color>008800</color>
        <width>4</width>
      </line>
    </extensions>
    <trkseg>
      <trkpt lat="42.13931" lon="21.72083">
        <ele>379.998736</ele>
        <time>2022-04-13T08:37:26.342Z</time>
      </trkpt>
      <trkpt lat="42.13947" lon="21.72071">
        <ele>379.998736</ele>
        <time>2022-04-13T08:37:34.305Z</time>
      </trkpt>
      <trkpt lat="42.13953" lon="21.72062">
        <ele>379.998736</ele>
        <time>2022-04-13T08:37:36.309Z</time>
      </trkpt>
      <trkpt lat="42.13958" lon="21.72048">
        <ele>379.998736</ele>
        <time>2022-04-13T08:37:40.328Z</time>
      </trkpt>
      <trkpt lat="42.13962" lon="21.72037">
        <ele>379.998736</ele>
        <time>2022-04-13T08:37:43.323Z</time>
      </trkpt>
      <trkpt lat="42.13967" lon="21.72025">
        <ele>379.998736</ele>
        <time>2022-04-13T08:37:47.314Z</time>
      </trkpt>
      <trkpt lat="42.13976" lon="21.72022">
        <ele>379.998736</ele>
        <time>2022-04-13T08:37:51.314Z</time>
      </trkpt>
      <trkpt lat="42.1399" lon="21.72013">
        <ele>379.998736</ele>
        <time>2022-04-13T08:37:56.354Z</time>
      </trkpt>
      <trkpt lat="42.14" lon="21.7201">
        <ele>379.932541</ele>
        <time>2022-04-13T08:37:59.306Z</time>
      </trkpt>
      <trkpt lat="42.14008" lon="21.72005">
        <ele>379.710419</ele>
        <time>2022-04-13T08:38:04.319Z</time>
      </trkpt>
      <trkpt lat="42.14012" lon="21.71992">
        <ele>379.468081</ele>
        <time>2022-04-13T08:38:09.297Z</time>
      </trkpt>
      <trkpt lat="42.14012" lon="21.71979">
        <ele>379.226544</ele>
        <time>2022-04-13T08:38:16.329Z</time>
      </trkpt>
      <trkpt lat="42.14021" lon="21.71976">
        <ele>379.00065</ele>
        <time>2022-04-13T08:38:23.289Z</time>
      </trkpt>
      <trkpt lat="42.14031" lon="21.71978">
        <ele>378.772722</ele>
        <time>2022-04-13T08:38:27.288Z</time>
      </trkpt>
      <trkpt lat="42.14041" lon="21.71984">
        <ele>378.492277</ele>
        <time>2022-04-13T08:38:31.307Z</time>
      </trkpt>
      <trkpt lat="42.14052" lon="21.71989">
        <ele>378.234676</ele>
        <time>2022-04-13T08:38:35.288Z</time>
      </trkpt>
      <trkpt lat="42.14061" lon="21.71993">
        <ele>378.000278</ele>
        <time>2022-04-13T08:38:39.311Z</time>
      </trkpt>
      <trkpt lat="42.14071" lon="21.71998">
        <ele>377.743576</ele>
        <time>2022-04-13T08:38:43.298Z</time>
      </trkpt>
      <trkpt lat="42.1408" lon="21.72004">
        <ele>377.493071</ele>
        <time>2022-04-13T08:38:46.339Z</time>
      </trkpt>
      <trkpt lat="42.1409" lon="21.72014">
        <ele>377.195057</ele>
        <time>2022-04-13T08:38:49.457Z</time>
      </trkpt>
      <trkpt lat="42.14101" lon="21.72022">
        <ele>376.914511</ele>
        <time>2022-04-13T08:38:52.348Z</time>
      </trkpt>
      <trkpt lat="42.14111" lon="21.7203">
        <ele>376.619744</ele>
        <time>2022-04-13T08:38:55.323Z</time>
      </trkpt>
      <trkpt lat="42.14122" lon="21.72036">
        <ele>376.340372</ele>
        <time>2022-04-13T08:38:59.310Z</time>
      </trkpt>
      <trkpt lat="42.14131" lon="21.72041">
        <ele>376.10806</ele>
        <time>2022-04-13T08:39:02.307Z</time>
      </trkpt>
      <trkpt lat="42.1414" lon="21.72046">
        <ele>375.872127</ele>
        <time>2022-04-13T08:39:05.303Z</time>
      </trkpt>
      <trkpt lat="42.1415" lon="21.72052">
        <ele>375.810752</ele>
        <time>2022-04-13T08:39:08.312Z</time>
      </trkpt>
      <trkpt lat="42.14161" lon="21.72057">
        <ele>376.207137</ele>
        <time>2022-04-13T08:39:11.307Z</time>
      </trkpt>
      <trkpt lat="42.14172" lon="21.72063">
        <ele>376.623415</ele>
        <time>2022-04-13T08:39:14.366Z</time>
      </trkpt>
      <trkpt lat="42.14184" lon="21.72066">
        <ele>377.030562</ele>
        <time>2022-04-13T08:39:17.312Z</time>
      </trkpt>
      <trkpt lat="42.14194" lon="21.72061">
        <ele>377.420936</ele>
        <time>2022-04-13T08:39:20.303Z</time>
      </trkpt>
      <trkpt lat="42.14202" lon="21.72052">
        <ele>377.773131</ele>
        <time>2022-04-13T08:39:23.323Z</time>
      </trkpt>
      <trkpt lat="42.1421" lon="21.72044">
        <ele>378.124118</ele>
        <time>2022-04-13T08:39:27.312Z</time>
      </trkpt>
      <trkpt lat="42.14219" lon="21.72036">
        <ele>378.497688</ele>
        <time>2022-04-13T08:39:31.299Z</time>
      </trkpt>
      <trkpt lat="42.14228" lon="21.72028">
        <ele>378.869619</ele>
        <time>2022-04-13T08:39:35.309Z</time>
      </trkpt>
      <trkpt lat="42.14234" lon="21.72016">
        <ele>379.263839</ele>
        <time>2022-04-13T08:39:39.295Z</time>
      </trkpt>
      <trkpt lat="42.14236" lon="21.72004">
        <ele>379.576991</ele>
        <time>2022-04-13T08:39:42.286Z</time>
      </trkpt>
      <trkpt lat="42.14239" lon="21.71991">
        <ele>379.922842</ele>
        <time>2022-04-13T08:39:47.302Z</time>
      </trkpt>
      <trkpt lat="42.14243" lon="21.71977">
        <ele>380.318234</ele>
        <time>2022-04-13T08:39:52.327Z</time>
      </trkpt>
      <trkpt lat="42.14246" lon="21.71962">
        <ele>380.701932</ele>
        <time>2022-04-13T08:39:56.308Z</time>
      </trkpt>
      <trkpt lat="42.1425" lon="21.71948">
        <ele>381.094886</ele>
        <time>2022-04-13T08:40:00.308Z</time>
      </trkpt>
      <trkpt lat="42.14253" lon="21.71936">
        <ele>381.416796</ele>
        <time>2022-04-13T08:40:03.327Z</time>
      </trkpt>
      <trkpt lat="42.14256" lon="21.71921">
        <ele>381.806519</ele>
        <time>2022-04-13T08:40:07.321Z</time>
      </trkpt>
      <trkpt lat="42.14259" lon="21.71907">
        <ele>381.800411</ele>
        <time>2022-04-13T08:40:11.344Z</time>
      </trkpt>
      <trkpt lat="42.14263" lon="21.71891">
        <ele>381.563203</ele>
        <time>2022-04-13T08:40:15.311Z</time>
      </trkpt>
      <trkpt lat="42.14269" lon="21.71878">
        <ele>381.333919</ele>
        <time>2022-04-13T08:40:19.311Z</time>
      </trkpt>
      <trkpt lat="42.14272" lon="21.71865">
        <ele>381.133603</ele>
        <time>2022-04-13T08:40:22.298Z</time>
      </trkpt>
      <trkpt lat="42.14276" lon="21.71852">
        <ele>380.924357</ele>
        <time>2022-04-13T08:40:25.301Z</time>
      </trkpt>
      <trkpt lat="42.14279" lon="21.71838">
        <ele>380.721009</ele>
        <time>2022-04-13T08:40:28.305Z</time>
      </trkpt>
      <trkpt lat="42.14283" lon="21.71823">
        <ele>380.482414</ele>
        <time>2022-04-13T08:40:32.323Z</time>
      </trkpt>
      <trkpt lat="42.14287" lon="21.71809">
        <ele>380.269897</ele>
        <time>2022-04-13T08:40:35.316Z</time>
      </trkpt>
      <trkpt lat="42.14291" lon="21.71798">
        <ele>380.085944</ele>
        <time>2022-04-13T08:40:38.315Z</time>
      </trkpt>
      <trkpt lat="42.14289" lon="21.71783">
        <ele>379.878152</ele>
        <time>2022-04-13T08:40:42.295Z</time>
      </trkpt>
      <trkpt lat="42.14279" lon="21.71782">
        <ele>379.670204</ele>
        <time>2022-04-13T08:40:46.352Z</time>
      </trkpt>
      <trkpt lat="42.14269" lon="21.71777">
        <ele>379.471897</ele>
        <time>2022-04-13T08:40:51.308Z</time>
      </trkpt>
      <trkpt lat="42.14284" lon="21.71779">
        <ele>379.172121</ele>
        <time>2022-04-13T08:49:53.292Z</time>
      </trkpt>
      <trkpt lat="42.14288" lon="21.71792">
        <ele>378.961062</ele>
        <time>2022-04-13T08:49:59.329Z</time>
      </trkpt>
      <trkpt lat="42.14285" lon="21.71807">
        <ele>378.730004</ele>
        <time>2022-04-13T08:50:03.315Z</time>
      </trkpt>
      <trkpt lat="42.14281" lon="21.71822">
        <ele>378.501511</ele>
        <time>2022-04-13T08:50:07.314Z</time>
      </trkpt>
      <trkpt lat="42.1428" lon="21.71836">
        <ele>378.324334</ele>
        <time>2022-04-13T08:50:10.315Z</time>
      </trkpt>
      <trkpt lat="42.14276" lon="21.71848">
        <ele>378.16293</ele>
        <time>2022-04-13T08:50:13.308Z</time>
      </trkpt>
      <trkpt lat="42.14274" lon="21.71861">
        <ele>378.008444</ele>
        <time>2022-04-13T08:50:16.310Z</time>
      </trkpt>
      <trkpt lat="42.1427" lon="21.71873">
        <ele>377.84308</ele>
        <time>2022-04-13T08:50:20.300Z</time>
      </trkpt>
      <trkpt lat="42.14266" lon="21.71885">
        <ele>377.690746</ele>
        <time>2022-04-13T08:50:23.298Z</time>
      </trkpt>
      <trkpt lat="42.14263" lon="21.71897">
        <ele>377.537238</ele>
        <time>2022-04-13T08:50:26.329Z</time>
      </trkpt>
      <trkpt lat="42.14259" lon="21.7191">
        <ele>377.369623</ele>
        <time>2022-04-13T08:50:29.323Z</time>
      </trkpt>
      <trkpt lat="42.14257" lon="21.71925">
        <ele>377.180731</ele>
        <time>2022-04-13T08:50:32.308Z</time>
      </trkpt>
      <trkpt lat="42.14253" lon="21.71939">
        <ele>377.004619</ele>
        <time>2022-04-13T08:50:35.318Z</time>
      </trkpt>
      <trkpt lat="42.1425" lon="21.71951">
        <ele>376.850029</ele>
        <time>2022-04-13T08:50:38.310Z</time>
      </trkpt>
      <trkpt lat="42.14245" lon="21.71961">
        <ele>376.700395</ele>
        <time>2022-04-13T08:50:41.349Z</time>
      </trkpt>
      <trkpt lat="42.14241" lon="21.71973">
        <ele>376.541479</ele>
        <time>2022-04-13T08:50:44.301Z</time>
      </trkpt>
      <trkpt lat="42.14238" lon="21.71987">
        <ele>376.364169</ele>
        <time>2022-04-13T08:50:47.320Z</time>
      </trkpt>
      <trkpt lat="42.14237" lon="21.72001">
        <ele>376.198044</ele>
        <time>2022-04-13T08:50:50.318Z</time>
      </trkpt>
      <trkpt lat="42.14234" lon="21.72014">
        <ele>376.03013</ele>
        <time>2022-04-13T08:50:53.326Z</time>
      </trkpt>
      <trkpt lat="42.14228" lon="21.72025">
        <ele>375.861288</ele>
        <time>2022-04-13T08:50:56.306Z</time>
      </trkpt>
      <trkpt lat="42.1422" lon="21.72036">
        <ele>375.690925</ele>
        <time>2022-04-13T08:50:59.306Z</time>
      </trkpt>
      <trkpt lat="42.14213" lon="21.72045">
        <ele>375.524497</ele>
        <time>2022-04-13T08:51:02.325Z</time>
      </trkpt>
      <trkpt lat="42.14206" lon="21.72055">
        <ele>375.307668</ele>
        <time>2022-04-13T08:51:06.326Z</time>
      </trkpt>
      <trkpt lat="42.14188" lon="21.7207">
        <ele>374.831678</ele>
        <time>2022-04-13T08:52:00.323Z</time>
      </trkpt>
      <trkpt lat="42.14178" lon="21.72069">
        <ele>374.618326</ele>
        <time>2022-04-13T08:52:04.317Z</time>
      </trkpt>
      <trkpt lat="42.14169" lon="21.72064">
        <ele>374.394991</ele>
        <time>2022-04-13T08:52:07.302Z</time>
      </trkpt>
      <trkpt lat="42.14158" lon="21.72056">
        <ele>374.122718</ele>
        <time>2022-04-13T08:52:10.335Z</time>
      </trkpt>
      <trkpt lat="42.14149" lon="21.7205">
        <ele>373.87901</ele>
        <time>2022-04-13T08:52:13.358Z</time>
      </trkpt>
      <trkpt lat="42.1414" lon="21.72044">
        <ele>373.66039</ele>
        <time>2022-04-13T08:52:16.308Z</time>
      </trkpt>
      <trkpt lat="42.1413" lon="21.72039">
        <ele>373.415912</ele>
        <time>2022-04-13T08:52:19.305Z</time>
      </trkpt>
      <trkpt lat="42.1412" lon="21.72033">
        <ele>373.168501</ele>
        <time>2022-04-13T08:52:22.324Z</time>
      </trkpt>
      <trkpt lat="42.14109" lon="21.72027">
        <ele>372.903479</ele>
        <time>2022-04-13T08:52:25.359Z</time>
      </trkpt>
      <trkpt lat="42.141" lon="21.72021">
        <ele>372.68608</ele>
        <time>2022-04-13T08:52:28.327Z</time>
      </trkpt>
      <trkpt lat="42.14092" lon="21.72014">
        <ele>372.462249</ele>
        <time>2022-04-13T08:52:31.364Z</time>
      </trkpt>
      <trkpt lat="42.14088" lon="21.72">
        <ele>372.211078</ele>
        <time>2022-04-13T08:52:35.321Z</time>
      </trkpt>
      <trkpt lat="42.14088" lon="21.71985">
        <ele>371.969899</ele>
        <time>2022-04-13T08:52:38.322Z</time>
      </trkpt>
      <trkpt lat="42.14087" lon="21.71973">
        <ele>371.762198</ele>
        <time>2022-04-13T08:52:41.337Z</time>
      </trkpt>
      <trkpt lat="42.14085" lon="21.71959">
        <ele>371.520404</ele>
        <time>2022-04-13T08:52:45.355Z</time>
      </trkpt>
      <trkpt lat="42.14088" lon="21.71944">
        <ele>371.632917</ele>
        <time>2022-04-13T08:52:49.322Z</time>
      </trkpt>
      <trkpt lat="42.1409" lon="21.71931">
        <ele>371.913798</ele>
        <time>2022-04-13T08:52:53.297Z</time>
      </trkpt>
      <trkpt lat="42.1409" lon="21.71918">
        <ele>372.19617</ele>
        <time>2022-04-13T08:52:59.327Z</time>
      </trkpt>
      <trkpt lat="42.1409" lon="21.71905">
        <ele>372.496967</ele>
        <time>2022-04-13T08:53:02.307Z</time>
      </trkpt>
      <trkpt lat="42.14091" lon="21.7189">
        <ele>372.828747</ele>
        <time>2022-04-13T08:53:05.295Z</time>
      </trkpt>
      <trkpt lat="42.14093" lon="21.71875">
        <ele>373.153455</ele>
        <time>2022-04-13T08:53:08.320Z</time>
      </trkpt>
      <trkpt lat="42.14095" lon="21.7186">
        <ele>373.494628</ele>
        <time>2022-04-13T08:53:11.338Z</time>
      </trkpt>
      <trkpt lat="42.14097" lon="21.71847">
        <ele>373.78194</ele>
        <time>2022-04-13T08:53:14.354Z</time>
      </trkpt>
      <trkpt lat="42.14099" lon="21.71835">
        <ele>374.058724</ele>
        <time>2022-04-13T08:53:17.333Z</time>
      </trkpt>
      <trkpt lat="42.14102" lon="21.7182">
        <ele>374.408814</ele>
        <time>2022-04-13T08:53:21.350Z</time>
      </trkpt>
      <trkpt lat="42.14105" lon="21.71806">
        <ele>374.729039</ele>
        <time>2022-04-13T08:53:24.324Z</time>
      </trkpt>
      <trkpt lat="42.14108" lon="21.71789">
        <ele>375.106153</ele>
        <time>2022-04-13T08:53:27.315Z</time>
      </trkpt>
      <trkpt lat="42.14111" lon="21.71772">
        <ele>375.491938</ele>
        <time>2022-04-13T08:53:30.315Z</time>
      </trkpt>
      <trkpt lat="42.14111" lon="21.71754">
        <ele>375.875302</ele>
        <time>2022-04-13T08:53:33.308Z</time>
      </trkpt>
      <trkpt lat="42.14111" lon="21.71738">
        <ele>376.232233</ele>
        <time>2022-04-13T08:53:36.316Z</time>
      </trkpt>
      <trkpt lat="42.14111" lon="21.71722">
        <ele>376.58296</ele>
        <time>2022-04-13T08:53:39.313Z</time>
      </trkpt>
      <trkpt lat="42.14112" lon="21.71706">
        <ele>376.605189</ele>
        <time>2022-04-13T08:53:42.316Z</time>
      </trkpt>
      <trkpt lat="42.14111" lon="21.71693">
        <ele>376.333248</ele>
        <time>2022-04-13T08:53:45.308Z</time>
      </trkpt>
      <trkpt lat="42.1411" lon="21.7168">
        <ele>376.051451</ele>
        <time>2022-04-13T08:53:48.358Z</time>
      </trkpt>
      <trkpt lat="42.14109" lon="21.71665">
        <ele>375.739456</ele>
        <time>2022-04-13T08:53:51.357Z</time>
      </trkpt>
      <trkpt lat="42.14107" lon="21.71652">
        <ele>375.464836</ele>
        <time>2022-04-13T08:53:54.303Z</time>
      </trkpt>
      <trkpt lat="42.14106" lon="21.71638">
        <ele>375.179944</ele>
        <time>2022-04-13T08:53:57.308Z</time>
      </trkpt>
      <trkpt lat="42.14105" lon="21.71623">
        <ele>374.869256</ele>
        <time>2022-04-13T08:54:00.341Z</time>
      </trkpt>
      <trkpt lat="42.14103" lon="21.71608">
        <ele>374.545777</ele>
        <time>2022-04-13T08:54:03.314Z</time>
      </trkpt>
      <trkpt lat="42.14099" lon="21.71592">
        <ele>374.18577</ele>
        <time>2022-04-13T08:54:06.303Z</time>
      </trkpt>
      <trkpt lat="42.14092" lon="21.71579">
        <ele>373.863533</ele>
        <time>2022-04-13T08:54:09.322Z</time>
      </trkpt>
      <trkpt lat="42.14082" lon="21.7157">
        <ele>373.517732</ele>
        <time>2022-04-13T08:54:12.308Z</time>
      </trkpt>
      <trkpt lat="42.1407" lon="21.71565">
        <ele>373.183481</ele>
        <time>2022-04-13T08:54:15.299Z</time>
      </trkpt>
      <trkpt lat="42.14059" lon="21.71561">
        <ele>372.857623</ele>
        <time>2022-04-13T08:54:18.309Z</time>
      </trkpt>
      <trkpt lat="42.14049" lon="21.71556">
        <ele>372.545199</ele>
        <time>2022-04-13T08:54:21.345Z</time>
      </trkpt>
      <trkpt lat="42.14038" lon="21.71552">
        <ele>372.242001</ele>
        <time>2022-04-13T08:54:24.299Z</time>
      </trkpt>
      <trkpt lat="42.14027" lon="21.71549">
        <ele>371.935756</ele>
        <time>2022-04-13T08:54:27.327Z</time>
      </trkpt>
      <trkpt lat="42.14016" lon="21.71546">
        <ele>371.872849</ele>
        <time>2022-04-13T08:54:30.315Z</time>
      </trkpt>
      <trkpt lat="42.14005" lon="21.71542">
        <ele>372.282545</ele>
        <time>2022-04-13T08:54:33.302Z</time>
      </trkpt>
      <trkpt lat="42.13994" lon="21.71539">
        <ele>372.677399</ele>
        <time>2022-04-13T08:54:36.311Z</time>
      </trkpt>
      <trkpt lat="42.13984" lon="21.71535">
        <ele>373.074266</ele>
        <time>2022-04-13T08:54:39.315Z</time>
      </trkpt>
      <trkpt lat="42.13973" lon="21.71531">
        <ele>373.447876</ele>
        <time>2022-04-13T08:54:42.306Z</time>
      </trkpt>
      <trkpt lat="42.13964" lon="21.71528">
        <ele>373.798289</ele>
        <time>2022-04-13T08:54:45.306Z</time>
      </trkpt>
      <trkpt lat="42.13954" lon="21.71524">
        <ele>374.150173</ele>
        <time>2022-04-13T08:54:48.325Z</time>
      </trkpt>
      <trkpt lat="42.13944" lon="21.7152">
        <ele>374.516385</ele>
        <time>2022-04-13T08:54:51.315Z</time>
      </trkpt>
      <trkpt lat="42.13934" lon="21.71516">
        <ele>374.900944</ele>
        <time>2022-04-13T08:54:54.355Z</time>
      </trkpt>
      <trkpt lat="42.13923" lon="21.71511">
        <ele>375.303966</ele>
        <time>2022-04-13T08:54:57.336Z</time>
      </trkpt>
      <trkpt lat="42.13913" lon="21.71507">
        <ele>375.689198</ele>
        <time>2022-04-13T08:55:00.311Z</time>
      </trkpt>
      <trkpt lat="42.13903" lon="21.71507">
        <ele>376.043704</ele>
        <time>2022-04-13T08:55:03.308Z</time>
      </trkpt>
      <trkpt lat="42.13891" lon="21.71504">
        <ele>376.448329</ele>
        <time>2022-04-13T08:55:06.334Z</time>
      </trkpt>
      <trkpt lat="42.13882" lon="21.71499">
        <ele>376.819613</ele>
        <time>2022-04-13T08:55:09.309Z</time>
      </trkpt>
      <trkpt lat="42.13872" lon="21.71492">
        <ele>377.197598</ele>
        <time>2022-04-13T08:55:12.307Z</time>
      </trkpt>
      <trkpt lat="42.13863" lon="21.71484">
        <ele>377.573716</ele>
        <time>2022-04-13T08:55:15.302Z</time>
      </trkpt>
      <trkpt lat="42.13855" lon="21.71477">
        <ele>377.930805</ele>
        <time>2022-04-13T08:55:18.327Z</time>
      </trkpt>
      <trkpt lat="42.13846" lon="21.71471">
        <ele>378.460771</ele>
        <time>2022-04-13T08:55:22.364Z</time>
      </trkpt>
      <trkpt lat="42.13838" lon="21.71468">
        <ele>379.200628</ele>
        <time>2022-04-13T08:55:26.344Z</time>
      </trkpt>
      <trkpt lat="42.13827" lon="21.71465">
        <ele>380.019086</ele>
        <time>2022-04-13T08:55:31.310Z</time>
      </trkpt>
      <trkpt lat="42.13818" lon="21.71463">
        <ele>380.804076</ele>
        <time>2022-04-13T08:55:35.306Z</time>
      </trkpt>
      <trkpt lat="42.13807" lon="21.71459">
        <ele>381.662833</ele>
        <time>2022-04-13T08:55:40.305Z</time>
      </trkpt>
      <trkpt lat="42.13798" lon="21.71455">
        <ele>382.412017</ele>
        <time>2022-04-13T08:55:45.351Z</time>
      </trkpt>
      <trkpt lat="42.13789" lon="21.71455">
        <ele>383.146256</ele>
        <time>2022-04-13T08:55:50.303Z</time>
      </trkpt>
      <trkpt lat="42.13779" lon="21.71453">
        <ele>384.001612</ele>
        <time>2022-04-13T08:55:55.343Z</time>
      </trkpt>
      <trkpt lat="42.1377" lon="21.71451">
        <ele>384.742688</ele>
        <time>2022-04-13T08:56:00.380Z</time>
      </trkpt>
      <trkpt lat="42.13759" lon="21.71447">
        <ele>385.599577</ele>
        <time>2022-04-13T08:56:05.338Z</time>
      </trkpt>
      <trkpt lat="42.1375" lon="21.71442">
        <ele>386.388981</ele>
        <time>2022-04-13T08:56:10.302Z</time>
      </trkpt>
      <trkpt lat="42.13741" lon="21.71438">
        <ele>387.151772</ele>
        <time>2022-04-13T08:56:15.315Z</time>
      </trkpt>
      <trkpt lat="42.13736" lon="21.71427">
        <ele>387.889176</ele>
        <time>2022-04-13T08:56:19.329Z</time>
      </trkpt>
      <trkpt lat="42.13735" lon="21.71415">
        <ele>388.640959</ele>
        <time>2022-04-13T08:56:23.327Z</time>
      </trkpt>
      <trkpt lat="42.13735" lon="21.71402">
        <ele>389.376904</ele>
        <time>2022-04-13T08:56:27.305Z</time>
      </trkpt>
      <trkpt lat="42.13738" lon="21.7139">
        <ele>390.147388</ele>
        <time>2022-04-13T08:56:32.327Z</time>
      </trkpt>
      <trkpt lat="42.13738" lon="21.71374">
        <ele>391.100474</ele>
        <time>2022-04-13T08:56:36.303Z</time>
      </trkpt>
      <trkpt lat="42.13737" lon="21.71358">
        <ele>392.048182</ele>
        <time>2022-04-13T08:56:40.308Z</time>
      </trkpt>
      <trkpt lat="42.13736" lon="21.71344">
        <ele>392.684483</ele>
        <time>2022-04-13T08:56:43.357Z</time>
      </trkpt>
      <trkpt lat="42.13735" lon="21.71332">
        <ele>393.107883</ele>
        <time>2022-04-13T08:56:46.324Z</time>
      </trkpt>
      <trkpt lat="42.13734" lon="21.71318">
        <ele>393.580399</ele>
        <time>2022-04-13T08:56:49.307Z</time>
      </trkpt>
      <trkpt lat="42.1373" lon="21.71304">
        <ele>394.072517</ele>
        <time>2022-04-13T08:56:52.317Z</time>
      </trkpt>
      <trkpt lat="42.13727" lon="21.71291">
        <ele>394.513468</ele>
        <time>2022-04-13T08:56:55.330Z</time>
      </trkpt>
      <trkpt lat="42.13723" lon="21.71277">
        <ele>395.012944</ele>
        <time>2022-04-13T08:56:59.315Z</time>
      </trkpt>
      <trkpt lat="42.1372" lon="21.71262">
        <ele>395.543966</ele>
        <time>2022-04-13T08:57:03.311Z</time>
      </trkpt>
      <trkpt lat="42.13715" lon="21.71248">
        <ele>396.064039</ele>
        <time>2022-04-13T08:57:07.311Z</time>
      </trkpt>
      <trkpt lat="42.13711" lon="21.71233">
        <ele>396.59009</ele>
        <time>2022-04-13T08:57:11.314Z</time>
      </trkpt>
      <trkpt lat="42.13708" lon="21.71221">
        <ele>397.025513</ele>
        <time>2022-04-13T08:57:15.356Z</time>
      </trkpt>
      <trkpt lat="42.13706" lon="21.71207">
        <ele>397.502956</ele>
        <time>2022-04-13T08:57:19.315Z</time>
      </trkpt>
      <trkpt lat="42.13704" lon="21.71195">
        <ele>397.920462</ele>
        <time>2022-04-13T08:57:22.318Z</time>
      </trkpt>
      <trkpt lat="42.13701" lon="21.71182">
        <ele>398.361854</ele>
        <time>2022-04-13T08:57:25.317Z</time>
      </trkpt>
      <trkpt lat="42.13698" lon="21.71167">
        <ele>398.895861</ele>
        <time>2022-04-13T08:57:28.308Z</time>
      </trkpt>
      <trkpt lat="42.13693" lon="21.71153">
        <ele>399.425645</ele>
        <time>2022-04-13T08:57:31.348Z</time>
      </trkpt>
      <trkpt lat="42.1369" lon="21.71139">
        <ele>399.91413</ele>
        <time>2022-04-13T08:57:34.303Z</time>
      </trkpt>
      <trkpt lat="42.13685" lon="21.71126">
        <ele>400.391939</ele>
        <time>2022-04-13T08:57:37.319Z</time>
      </trkpt>
      <trkpt lat="42.13679" lon="21.71114">
        <ele>400.57929</ele>
        <time>2022-04-13T08:57:40.322Z</time>
      </trkpt>
      <trkpt lat="42.13672" lon="21.71101">
        <ele>400.52724</ele>
        <time>2022-04-13T08:57:43.315Z</time>
      </trkpt>
      <trkpt lat="42.13666" lon="21.71091">
        <ele>400.484433</ele>
        <time>2022-04-13T08:57:46.312Z</time>
      </trkpt>
      <trkpt lat="42.13658" lon="21.71079">
        <ele>400.432389</ele>
        <time>2022-04-13T08:57:50.316Z</time>
      </trkpt>
      <trkpt lat="42.13653" lon="21.71069">
        <ele>400.390382</ele>
        <time>2022-04-13T08:57:53.361Z</time>
      </trkpt>
      <trkpt lat="42.13648" lon="21.71059">
        <ele>400.34934</ele>
        <time>2022-04-13T08:57:56.307Z</time>
      </trkpt>
      <trkpt lat="42.13642" lon="21.71049">
        <ele>400.309183</ele>
        <time>2022-04-13T08:57:59.357Z</time>
      </trkpt>
      <trkpt lat="42.13636" lon="21.71038">
        <ele>400.265061</ele>
        <time>2022-04-13T08:58:02.303Z</time>
      </trkpt>
      <trkpt lat="42.13629" lon="21.71025">
        <ele>400.213015</ele>
        <time>2022-04-13T08:58:05.326Z</time>
      </trkpt>
      <trkpt lat="42.13622" lon="21.71014">
        <ele>400.16329</ele>
        <time>2022-04-13T08:58:08.329Z</time>
      </trkpt>
      <trkpt lat="42.13617" lon="21.71002">
        <ele>400.118314</ele>
        <time>2022-04-13T08:58:11.307Z</time>
      </trkpt>
      <trkpt lat="42.1361" lon="21.70989">
        <ele>400.066879</ele>
        <time>2022-04-13T08:58:15.299Z</time>
      </trkpt>
      <trkpt lat="42.13605" lon="21.70977">
        <ele>400.021606</ele>
        <time>2022-04-13T08:58:18.310Z</time>
      </trkpt>
      <trkpt lat="42.136" lon="21.70965">
        <ele>399.975287</ele>
        <time>2022-04-13T08:58:21.291Z</time>
      </trkpt>
      <trkpt lat="42.13594" lon="21.70953">
        <ele>399.927977</ele>
        <time>2022-04-13T08:58:24.305Z</time>
      </trkpt>
      <trkpt lat="42.13588" lon="21.70943">
        <ele>399.884911</ele>
        <time>2022-04-13T08:58:27.358Z</time>
      </trkpt>
      <trkpt lat="42.13582" lon="21.70933">
        <ele>399.842828</ele>
        <time>2022-04-13T08:58:30.320Z</time>
      </trkpt>
      <trkpt lat="42.13576" lon="21.7092">
        <ele>400.044991</ele>
        <time>2022-04-13T08:58:34.345Z</time>
      </trkpt>
      <trkpt lat="42.13571" lon="21.70905">
        <ele>400.897602</ele>
        <time>2022-04-13T08:58:38.298Z</time>
      </trkpt>
      <trkpt lat="42.13568" lon="21.70894">
        <ele>401.562719</ele>
        <time>2022-04-13T08:58:41.316Z</time>
      </trkpt>
      <trkpt lat="42.13565" lon="21.70882">
        <ele>402.235038</ele>
        <time>2022-04-13T08:58:44.305Z</time>
      </trkpt>
      <trkpt lat="42.13562" lon="21.70869">
        <ele>402.936198</ele>
        <time>2022-04-13T08:58:47.325Z</time>
      </trkpt>
      <trkpt lat="42.13559" lon="21.70857">
        <ele>403.604444</ele>
        <time>2022-04-13T08:58:50.307Z</time>
      </trkpt>
      <trkpt lat="42.13555" lon="21.70843">
        <ele>404.390866</ele>
        <time>2022-04-13T08:58:54.326Z</time>
      </trkpt>
      <trkpt lat="42.13551" lon="21.70828">
        <ele>405.241282</ele>
        <time>2022-04-13T08:58:58.302Z</time>
      </trkpt>
      <trkpt lat="42.13547" lon="21.70814">
        <ele>406.042359</ele>
        <time>2022-04-13T08:59:02.300Z</time>
      </trkpt>
      <trkpt lat="42.13543" lon="21.70801">
        <ele>406.769008</ele>
        <time>2022-04-13T08:59:06.346Z</time>
      </trkpt>
      <trkpt lat="42.13538" lon="21.7079">
        <ele>407.416495</ele>
        <time>2022-04-13T08:59:09.336Z</time>
      </trkpt>
      <trkpt lat="42.13534" lon="21.70779">
        <ele>408.103044</ele>
        <time>2022-04-13T08:59:12.306Z</time>
      </trkpt>
      <trkpt lat="42.13533" lon="21.70764">
        <ele>408.888699</ele>
        <time>2022-04-13T08:59:16.304Z</time>
      </trkpt>
      <trkpt lat="42.13535" lon="21.70752">
        <ele>409.551067</ele>
        <time>2022-04-13T08:59:21.295Z</time>
      </trkpt>
      <trkpt lat="42.1353" lon="21.70738">
        <ele>410.365182</ele>
        <time>2022-04-13T08:59:26.322Z</time>
      </trkpt>
      <trkpt lat="42.13525" lon="21.70725">
        <ele>411.148533</ele>
        <time>2022-04-13T08:59:30.292Z</time>
      </trkpt>
      <trkpt lat="42.1352" lon="21.70712">
        <ele>411.887403</ele>
        <time>2022-04-13T08:59:34.319Z</time>
      </trkpt>
      <trkpt lat="42.13516" lon="21.70698">
        <ele>412.562594</ele>
        <time>2022-04-13T08:59:37.305Z</time>
      </trkpt>
      <trkpt lat="42.13512" lon="21.70683">
        <ele>412.280953</ele>
        <time>2022-04-13T08:59:40.335Z</time>
      </trkpt>
      <trkpt lat="42.13509" lon="21.70671">
        <ele>412.064382</ele>
        <time>2022-04-13T08:59:43.332Z</time>
      </trkpt>
      <trkpt lat="42.13506" lon="21.70658">
        <ele>411.823973</ele>
        <time>2022-04-13T08:59:46.316Z</time>
      </trkpt>
      <trkpt lat="42.13501" lon="21.70644">
        <ele>411.56907</ele>
        <time>2022-04-13T08:59:50.300Z</time>
      </trkpt>
      <trkpt lat="42.13498" lon="21.70632">
        <ele>411.33611</ele>
        <time>2022-04-13T08:59:54.301Z</time>
      </trkpt>
      <trkpt lat="42.13494" lon="21.70619">
        <ele>411.093336</ele>
        <time>2022-04-13T08:59:59.303Z</time>
      </trkpt>
      <trkpt lat="42.13492" lon="21.70604">
        <ele>410.825696</ele>
        <time>2022-04-13T09:00:03.382Z</time>
      </trkpt>
      <trkpt lat="42.13491" lon="21.70591">
        <ele>410.603688</ele>
        <time>2022-04-13T09:00:06.321Z</time>
      </trkpt>
      <trkpt lat="42.13489" lon="21.70577">
        <ele>410.360401</ele>
        <time>2022-04-13T09:00:09.359Z</time>
      </trkpt>
      <trkpt lat="42.13485" lon="21.70562">
        <ele>410.091381</ele>
        <time>2022-04-13T09:00:13.304Z</time>
      </trkpt>
      <trkpt lat="42.13481" lon="21.70551">
        <ele>409.864654</ele>
        <time>2022-04-13T09:00:17.304Z</time>
      </trkpt>
      <trkpt lat="42.13477" lon="21.70539">
        <ele>409.636217</ele>
        <time>2022-04-13T09:00:21.306Z</time>
      </trkpt>
      <trkpt lat="42.13473" lon="21.70526">
        <ele>409.402069</ele>
        <time>2022-04-13T09:00:25.303Z</time>
      </trkpt>
      <trkpt lat="42.13465" lon="21.70516">
        <ele>409.129812</ele>
        <time>2022-04-13T09:00:29.299Z</time>
      </trkpt>
      <trkpt lat="42.13458" lon="21.70502">
        <ele>408.852623</ele>
        <time>2022-04-13T09:00:33.292Z</time>
      </trkpt>
      <trkpt lat="42.13456" lon="21.70487">
        <ele>408.57839</ele>
        <time>2022-04-13T09:00:37.305Z</time>
      </trkpt>
      <trkpt lat="42.13454" lon="21.70472">
        <ele>408.286995</ele>
        <time>2022-04-13T09:00:41.303Z</time>
      </trkpt>
      <trkpt lat="42.13453" lon="21.70459">
        <ele>407.920463</ele>
        <time>2022-04-13T09:00:44.295Z</time>
      </trkpt>
      <trkpt lat="42.13451" lon="21.70444">
        <ele>407.516346</ele>
        <time>2022-04-13T09:00:48.323Z</time>
      </trkpt>
      <trkpt lat="42.13449" lon="21.70428">
        <ele>407.086872</ele>
        <time>2022-04-13T09:00:52.305Z</time>
      </trkpt>
      <trkpt lat="42.13444" lon="21.70415">
        <ele>406.678935</ele>
        <time>2022-04-13T09:00:56.321Z</time>
      </trkpt>
      <trkpt lat="42.13441" lon="21.70403">
        <ele>406.342415</ele>
        <time>2022-04-13T09:01:00.305Z</time>
      </trkpt>
      <trkpt lat="42.13438" lon="21.70389">
        <ele>405.962725</ele>
        <time>2022-04-13T09:01:05.346Z</time>
      </trkpt>
      <trkpt lat="42.13436" lon="21.70377">
        <ele>405.603362</ele>
        <time>2022-04-13T09:01:09.295Z</time>
      </trkpt>
      <trkpt lat="42.13433" lon="21.70363">
        <ele>405.210613</ele>
        <time>2022-04-13T09:01:13.310Z</time>
      </trkpt>
      <trkpt lat="42.1343" lon="21.70349">
        <ele>404.820056</ele>
        <time>2022-04-13T09:01:18.320Z</time>
      </trkpt>
      <trkpt lat="42.13428" lon="21.70336">
        <ele>404.474714</ele>
        <time>2022-04-13T09:01:23.356Z</time>
      </trkpt>
      <trkpt lat="42.13425" lon="21.70323">
        <ele>404.086212</ele>
        <time>2022-04-13T09:01:28.328Z</time>
      </trkpt>
      <trkpt lat="42.13422" lon="21.7031">
        <ele>403.726283</ele>
        <time>2022-04-13T09:01:33.296Z</time>
      </trkpt>
      <trkpt lat="42.13418" lon="21.70299">
        <ele>403.38708</ele>
        <time>2022-04-13T09:01:38.302Z</time>
      </trkpt>
      <trkpt lat="42.13414" lon="21.70286">
        <ele>403.010856</ele>
        <time>2022-04-13T09:01:44.313Z</time>
      </trkpt>
      <trkpt lat="42.1341" lon="21.70273">
        <ele>402.632451</ele>
        <time>2022-04-13T09:01:50.306Z</time>
      </trkpt>
      <trkpt lat="42.13406" lon="21.7026">
        <ele>402.265386</ele>
        <time>2022-04-13T09:01:55.320Z</time>
      </trkpt>
      <trkpt lat="42.13404" lon="21.70248">
        <ele>401.924166</ele>
        <time>2022-04-13T09:02:00.315Z</time>
      </trkpt>
      <trkpt lat="42.13401" lon="21.70236">
        <ele>401.968885</ele>
        <time>2022-04-13T09:02:05.297Z</time>
      </trkpt>
      <trkpt lat="42.13397" lon="21.70223">
        <ele>402.235108</ele>
        <time>2022-04-13T09:02:11.362Z</time>
      </trkpt>
      <trkpt lat="42.13394" lon="21.70211">
        <ele>402.462787</ele>
        <time>2022-04-13T09:02:16.309Z</time>
      </trkpt>
      <trkpt lat="42.1339" lon="21.70199">
        <ele>402.705769</ele>
        <time>2022-04-13T09:02:21.324Z</time>
      </trkpt>
      <trkpt lat="42.13387" lon="21.70187">
        <ele>402.936724</ele>
        <time>2022-04-13T09:02:25.303Z</time>
      </trkpt>
      <trkpt lat="42.13383" lon="21.70176">
        <ele>403.168757</ele>
        <time>2022-04-13T09:02:29.340Z</time>
      </trkpt>
      <trkpt lat="42.1338" lon="21.70162">
        <ele>403.436694</ele>
        <time>2022-04-13T09:02:33.323Z</time>
      </trkpt>
      <trkpt lat="42.13376" lon="21.7015">
        <ele>403.664184</ele>
        <time>2022-04-13T09:02:36.297Z</time>
      </trkpt>
      <trkpt lat="42.13372" lon="21.70136">
        <ele>403.948517</ele>
        <time>2022-04-13T09:02:40.303Z</time>
      </trkpt>
      <trkpt lat="42.13368" lon="21.70122">
        <ele>404.228661</ele>
        <time>2022-04-13T09:02:44.308Z</time>
      </trkpt>
      <trkpt lat="42.13364" lon="21.70109">
        <ele>404.475041</ele>
        <time>2022-04-13T09:02:47.319Z</time>
      </trkpt>
      <trkpt lat="42.13361" lon="21.70098">
        <ele>404.707661</ele>
        <time>2022-04-13T09:02:50.317Z</time>
      </trkpt>
      <trkpt lat="42.13357" lon="21.70085">
        <ele>404.959229</ele>
        <time>2022-04-13T09:02:54.304Z</time>
      </trkpt>
      <trkpt lat="42.13355" lon="21.70072">
        <ele>405.199554</ele>
        <time>2022-04-13T09:02:58.312Z</time>
      </trkpt>
      <trkpt lat="42.13351" lon="21.70057">
        <ele>405.481502</ele>
        <time>2022-04-13T09:03:02.315Z</time>
      </trkpt>
      <trkpt lat="42.13348" lon="21.70044">
        <ele>405.742946</ele>
        <time>2022-04-13T09:03:06.315Z</time>
      </trkpt>
      <trkpt lat="42.13344" lon="21.70029">
        <ele>406.029004</ele>
        <time>2022-04-13T09:03:10.334Z</time>
      </trkpt>
      <trkpt lat="42.13341" lon="21.70015">
        <ele>406.332015</ele>
        <time>2022-04-13T09:03:14.307Z</time>
      </trkpt>
      <trkpt lat="42.13339" lon="21.70003">
        <ele>406.787551</ele>
        <time>2022-04-13T09:03:17.321Z</time>
      </trkpt>
      <trkpt lat="42.13334" lon="21.69988">
        <ele>407.355342</ele>
        <time>2022-04-13T09:03:21.319Z</time>
      </trkpt>
      <trkpt lat="42.13331" lon="21.69976">
        <ele>407.798472</ele>
        <time>2022-04-13T09:03:24.317Z</time>
      </trkpt>
      <trkpt lat="42.13329" lon="21.69964">
        <ele>408.241674</ele>
        <time>2022-04-13T09:03:27.322Z</time>
      </trkpt>
      <trkpt lat="42.13325" lon="21.6995">
        <ele>408.81293</ele>
        <time>2022-04-13T09:03:31.382Z</time>
      </trkpt>
      <trkpt lat="42.13321" lon="21.69938">
        <ele>409.27149</ele>
        <time>2022-04-13T09:03:34.309Z</time>
      </trkpt>
      <trkpt lat="42.13317" lon="21.69926">
        <ele>409.735776</ele>
        <time>2022-04-13T09:03:37.362Z</time>
      </trkpt>
      <trkpt lat="42.13314" lon="21.69915">
        <ele>410.175881</ele>
        <time>2022-04-13T09:03:40.320Z</time>
      </trkpt>
      <trkpt lat="42.13311" lon="21.699">
        <ele>410.711308</ele>
        <time>2022-04-13T09:03:44.345Z</time>
      </trkpt>
      <trkpt lat="42.13308" lon="21.69887">
        <ele>411.200609</ele>
        <time>2022-04-13T09:03:48.319Z</time>
      </trkpt>
      <trkpt lat="42.13305" lon="21.69874">
        <ele>411.694425</ele>
        <time>2022-04-13T09:03:52.312Z</time>
      </trkpt>
      <trkpt lat="42.13301" lon="21.69861">
        <ele>412.211672</ele>
        <time>2022-04-13T09:03:56.306Z</time>
      </trkpt>
      <trkpt lat="42.13299" lon="21.69846">
        <ele>412.749114</ele>
        <time>2022-04-13T09:04:01.320Z</time>
      </trkpt>
      <trkpt lat="42.13297" lon="21.69834">
        <ele>413.18559</ele>
        <time>2022-04-13T09:04:05.373Z</time>
      </trkpt>
      <trkpt lat="42.13295" lon="21.69822">
        <ele>413.622067</ele>
        <time>2022-04-13T09:04:09.320Z</time>
      </trkpt>
      <trkpt lat="42.13292" lon="21.69809">
        <ele>414.139315</ele>
        <time>2022-04-13T09:04:14.304Z</time>
      </trkpt>
      <trkpt lat="42.13288" lon="21.69796">
        <ele>414.630529</ele>
        <time>2022-04-13T09:04:19.315Z</time>
      </trkpt>
      <trkpt lat="42.13283" lon="21.69783">
        <ele>415.22014</ele>
        <time>2022-04-13T09:04:24.320Z</time>
      </trkpt>
      <trkpt lat="42.13279" lon="21.69771">
        <ele>415.901528</ele>
        <time>2022-04-13T09:04:29.303Z</time>
      </trkpt>
      <trkpt lat="42.13275" lon="21.69759">
        <ele>416.607477</ele>
        <time>2022-04-13T09:04:33.351Z</time>
      </trkpt>
      <trkpt lat="42.1327" lon="21.69746">
        <ele>417.363463</ele>
        <time>2022-04-13T09:04:37.314Z</time>
      </trkpt>
      <trkpt lat="42.13268" lon="21.69732">
        <ele>418.121485</ele>
        <time>2022-04-13T09:04:42.320Z</time>
      </trkpt>
      <trkpt lat="42.13265" lon="21.69717">
        <ele>418.904714</ele>
        <time>2022-04-13T09:04:47.347Z</time>
      </trkpt>
      <trkpt lat="42.13262" lon="21.69703">
        <ele>419.663759</ele>
        <time>2022-04-13T09:04:52.291Z</time>
      </trkpt>
      <trkpt lat="42.13259" lon="21.6969">
        <ele>420.391753</ele>
        <time>2022-04-13T09:04:58.314Z</time>
      </trkpt>
      <trkpt lat="42.13256" lon="21.69678">
        <ele>421.059226</ele>
        <time>2022-04-13T09:05:04.320Z</time>
      </trkpt>
      <trkpt lat="42.13253" lon="21.69666">
        <ele>421.702591</ele>
        <time>2022-04-13T09:05:10.321Z</time>
      </trkpt>
      <trkpt lat="42.13251" lon="21.69653">
        <ele>422.394529</ele>
        <time>2022-04-13T09:05:16.320Z</time>
      </trkpt>
      <trkpt lat="42.13247" lon="21.69641">
        <ele>423.049785</ele>
        <time>2022-04-13T09:05:21.355Z</time>
      </trkpt>
      <trkpt lat="42.13244" lon="21.6963">
        <ele>423.705146</ele>
        <time>2022-04-13T09:05:26.319Z</time>
      </trkpt>
      <trkpt lat="42.13241" lon="21.69617">
        <ele>424.386143</ele>
        <time>2022-04-13T09:05:30.303Z</time>
      </trkpt>
      <trkpt lat="42.13238" lon="21.69605">
        <ele>425.061424</ele>
        <time>2022-04-13T09:05:34.315Z</time>
      </trkpt>
      <trkpt lat="42.13235" lon="21.69593">
        <ele>425.733918</ele>
        <time>2022-04-13T09:05:39.328Z</time>
      </trkpt>
      <trkpt lat="42.13231" lon="21.6958">
        <ele>426.46313</ele>
        <time>2022-04-13T09:05:44.311Z</time>
      </trkpt>
      <trkpt lat="42.13227" lon="21.69566">
        <ele>427.226068</ele>
        <time>2022-04-13T09:05:49.317Z</time>
      </trkpt>
      <trkpt lat="42.13226" lon="21.69553">
        <ele>427.411229</ele>
        <time>2022-04-13T09:05:53.333Z</time>
      </trkpt>
      <trkpt lat="42.13224" lon="21.6954">
        <ele>426.87484</ele>
        <time>2022-04-13T09:05:57.341Z</time>
      </trkpt>
      <trkpt lat="42.13221" lon="21.69526">
        <ele>426.282231</ele>
        <time>2022-04-13T09:06:02.314Z</time>
      </trkpt>
      <trkpt lat="42.13218" lon="21.69513">
        <ele>425.716058</ele>
        <time>2022-04-13T09:06:07.307Z</time>
      </trkpt>
      <trkpt lat="42.13214" lon="21.69501">
        <ele>425.213919</ele>
        <time>2022-04-13T09:06:11.323Z</time>
      </trkpt>
      <trkpt lat="42.1321" lon="21.69489">
        <ele>424.67065</ele>
        <time>2022-04-13T09:06:15.297Z</time>
      </trkpt>
      <trkpt lat="42.13206" lon="21.69474">
        <ele>424.020296</ele>
        <time>2022-04-13T09:06:19.358Z</time>
      </trkpt>
      <trkpt lat="42.13203" lon="21.69462">
        <ele>423.495472</ele>
        <time>2022-04-13T09:06:22.320Z</time>
      </trkpt>
      <trkpt lat="42.13199" lon="21.69449">
        <ele>422.942139</ele>
        <time>2022-04-13T09:06:25.303Z</time>
      </trkpt>
      <trkpt lat="42.13196" lon="21.69435">
        <ele>422.331671</ele>
        <time>2022-04-13T09:06:28.312Z</time>
      </trkpt>
      <trkpt lat="42.13192" lon="21.6942">
        <ele>421.684912</ele>
        <time>2022-04-13T09:06:31.327Z</time>
      </trkpt>
      <trkpt lat="42.13187" lon="21.69403">
        <ele>420.960418</ele>
        <time>2022-04-13T09:06:34.324Z</time>
      </trkpt>
      <trkpt lat="42.13184" lon="21.69391">
        <ele>420.454466</ele>
        <time>2022-04-13T09:06:36.307Z</time>
      </trkpt>
      <trkpt lat="42.13181" lon="21.69378">
        <ele>419.918107</ele>
        <time>2022-04-13T09:06:38.323Z</time>
      </trkpt>
      <trkpt lat="42.13178" lon="21.69366">
        <ele>419.369758</ele>
        <time>2022-04-13T09:06:40.321Z</time>
      </trkpt>
      <trkpt lat="42.13175" lon="21.69352">
        <ele>418.784055</ele>
        <time>2022-04-13T09:06:42.333Z</time>
      </trkpt>
      <trkpt lat="42.1317" lon="21.69337">
        <ele>418.143115</ele>
        <time>2022-04-13T09:06:44.326Z</time>
      </trkpt>
      <trkpt lat="42.13165" lon="21.69322">
        <ele>417.593485</ele>
        <time>2022-04-13T09:06:46.312Z</time>
      </trkpt>
      <trkpt lat="42.13161" lon="21.69306">
        <ele>417.148755</ele>
        <time>2022-04-13T09:06:48.334Z</time>
      </trkpt>
      <trkpt lat="42.13156" lon="21.69288">
        <ele>416.665561</ele>
        <time>2022-04-13T09:06:50.305Z</time>
      </trkpt>
      <trkpt lat="42.13151" lon="21.69271">
        <ele>416.18112</ele>
        <time>2022-04-13T09:06:52.322Z</time>
      </trkpt>
      <trkpt lat="42.13146" lon="21.69252">
        <ele>415.68231</ele>
        <time>2022-04-13T09:06:54.326Z</time>
      </trkpt>
      <trkpt lat="42.13141" lon="21.69235">
        <ele>415.196729</ele>
        <time>2022-04-13T09:06:56.296Z</time>
      </trkpt>
      <trkpt lat="42.13136" lon="21.69217">
        <ele>414.717159</ele>
        <time>2022-04-13T09:06:58.318Z</time>
      </trkpt>
      <trkpt lat="42.13131" lon="21.69199">
        <ele>414.215936</ele>
        <time>2022-04-13T09:07:00.316Z</time>
      </trkpt>
      <trkpt lat="42.13126" lon="21.6918">
        <ele>413.706185</ele>
        <time>2022-04-13T09:07:02.312Z</time>
      </trkpt>
      <trkpt lat="42.13121" lon="21.69161">
        <ele>413.188145</ele>
        <time>2022-04-13T09:07:04.350Z</time>
      </trkpt>
      <trkpt lat="42.13116" lon="21.69141">
        <ele>412.65675</ele>
        <time>2022-04-13T09:07:06.319Z</time>
      </trkpt>
      <trkpt lat="42.13111" lon="21.69122">
        <ele>412.123065</ele>
        <time>2022-04-13T09:07:08.345Z</time>
      </trkpt>
      <trkpt lat="42.13106" lon="21.69103">
        <ele>411.60023</ele>
        <time>2022-04-13T09:07:10.347Z</time>
      </trkpt>
      <trkpt lat="42.13101" lon="21.69083">
        <ele>411.406391</ele>
        <time>2022-04-13T09:07:12.327Z</time>
      </trkpt>
      <trkpt lat="42.13096" lon="21.69063">
        <ele>411.224637</ele>
        <time>2022-04-13T09:07:14.320Z</time>
      </trkpt>
      <trkpt lat="42.13091" lon="21.69043">
        <ele>411.047104</ele>
        <time>2022-04-13T09:07:16.327Z</time>
      </trkpt>
      <trkpt lat="42.13086" lon="21.69025">
        <ele>410.873291</ele>
        <time>2022-04-13T09:07:18.327Z</time>
      </trkpt>
      <trkpt lat="42.13081" lon="21.69007">
        <ele>410.709656</ele>
        <time>2022-04-13T09:07:20.347Z</time>
      </trkpt>
      <trkpt lat="42.13076" lon="21.68991">
        <ele>410.54996</ele>
        <time>2022-04-13T09:07:22.316Z</time>
      </trkpt>
      <trkpt lat="42.1307" lon="21.68976">
        <ele>410.404496</ele>
        <time>2022-04-13T09:07:24.303Z</time>
      </trkpt>
      <trkpt lat="42.13064" lon="21.68963">
        <ele>410.274183</ele>
        <time>2022-04-13T09:07:26.318Z</time>
      </trkpt>
      <trkpt lat="42.13056" lon="21.6895">
        <ele>410.126683</ele>
        <time>2022-04-13T09:07:29.306Z</time>
      </trkpt>
      <trkpt lat="42.13051" lon="21.68939">
        <ele>410.014839</ele>
        <time>2022-04-13T09:07:32.315Z</time>
      </trkpt>
      <trkpt lat="42.13043" lon="21.68927">
        <ele>409.879766</ele>
        <time>2022-04-13T09:07:36.323Z</time>
      </trkpt>
      <trkpt lat="42.13038" lon="21.68918">
        <ele>409.772061</ele>
        <time>2022-04-13T09:07:39.313Z</time>
      </trkpt>
      <trkpt lat="42.1303" lon="21.68905">
        <ele>409.631879</ele>
        <time>2022-04-13T09:07:43.315Z</time>
      </trkpt>
      <trkpt lat="42.13022" lon="21.68895">
        <ele>409.504192</ele>
        <time>2022-04-13T09:07:47.321Z</time>
      </trkpt>
      <trkpt lat="42.13015" lon="21.68886">
        <ele>410.035979</ele>
        <time>2022-04-13T09:07:51.301Z</time>
      </trkpt>
      <trkpt lat="42.13009" lon="21.68877">
        <ele>410.782097</ele>
        <time>2022-04-13T09:07:55.308Z</time>
      </trkpt>
      <trkpt lat="42.13003" lon="21.68866">
        <ele>411.612377</ele>
        <time>2022-04-13T09:08:01.310Z</time>
      </trkpt>
      <trkpt lat="42.12996" lon="21.68856">
        <ele>412.463195</ele>
        <time>2022-04-13T09:08:06.353Z</time>
      </trkpt>
      <trkpt lat="42.12988" lon="21.68846">
        <ele>413.312427</ele>
        <time>2022-04-13T09:08:10.313Z</time>
      </trkpt>
      <trkpt lat="42.12981" lon="21.68837">
        <ele>414.100384</ele>
        <time>2022-04-13T09:08:14.316Z</time>
      </trkpt>
      <trkpt lat="42.12974" lon="21.68825">
        <ele>415.010367</ele>
        <time>2022-04-13T09:08:19.316Z</time>
      </trkpt>
      <trkpt lat="42.12968" lon="21.68815">
        <ele>415.762559</ele>
        <time>2022-04-13T09:08:23.307Z</time>
      </trkpt>
      <trkpt lat="42.12962" lon="21.68804">
        <ele>416.64176</ele>
        <time>2022-04-13T09:08:28.360Z</time>
      </trkpt>
      <trkpt lat="42.12955" lon="21.68794">
        <ele>417.472756</ele>
        <time>2022-04-13T09:08:33.325Z</time>
      </trkpt>
      <trkpt lat="42.12949" lon="21.68784">
        <ele>418.243721</ele>
        <time>2022-04-13T09:08:37.304Z</time>
      </trkpt>
      <trkpt lat="42.12942" lon="21.68773">
        <ele>419.104972</ele>
        <time>2022-04-13T09:08:42.316Z</time>
      </trkpt>
      <trkpt lat="42.12936" lon="21.68764">
        <ele>419.842905</ele>
        <time>2022-04-13T09:08:47.301Z</time>
      </trkpt>
      <trkpt lat="42.12929" lon="21.68754">
        <ele>420.706439</ele>
        <time>2022-04-13T09:08:54.309Z</time>
      </trkpt>
      <trkpt lat="42.12922" lon="21.68746">
        <ele>421.433745</ele>
        <time>2022-04-13T09:09:00.358Z</time>
      </trkpt>
      <trkpt lat="42.12914" lon="21.68737">
        <ele>422.280054</ele>
        <time>2022-04-13T09:09:06.304Z</time>
      </trkpt>
      <trkpt lat="42.12908" lon="21.68727">
        <ele>423.061598</ele>
        <time>2022-04-13T09:09:11.314Z</time>
      </trkpt>
      <trkpt lat="42.12902" lon="21.68718">
        <ele>423.82081</ele>
        <time>2022-04-13T09:09:15.330Z</time>
      </trkpt>
      <trkpt lat="42.12896" lon="21.68708">
        <ele>424.266767</ele>
        <time>2022-04-13T09:09:20.298Z</time>
      </trkpt>
      <trkpt lat="42.12889" lon="21.68697">
        <ele>424.526211</ele>
        <time>2022-04-13T09:09:26.312Z</time>
      </trkpt>
      <trkpt lat="42.12882" lon="21.68685">
        <ele>424.789852</ele>
        <time>2022-04-13T09:09:32.311Z</time>
      </trkpt>
      <trkpt lat="42.12875" lon="21.68675">
        <ele>425.03671</ele>
        <time>2022-04-13T09:09:37.294Z</time>
      </trkpt>
      <trkpt lat="42.12868" lon="21.68666">
        <ele>425.282614</ele>
        <time>2022-04-13T09:09:42.319Z</time>
      </trkpt>
      <trkpt lat="42.1286" lon="21.68657">
        <ele>425.533472</ele>
        <time>2022-04-13T09:09:47.359Z</time>
      </trkpt>
      <trkpt lat="42.12852" lon="21.68649">
        <ele>425.783765</ele>
        <time>2022-04-13T09:09:53.319Z</time>
      </trkpt>
      <trkpt lat="42.12844" lon="21.68643">
        <ele>426.008112</ele>
        <time>2022-04-13T09:09:58.471Z</time>
      </trkpt>
      <trkpt lat="42.12834" lon="21.68639">
        <ele>426.265078</ele>
        <time>2022-04-13T09:10:03.313Z</time>
      </trkpt>
      <trkpt lat="42.12824" lon="21.68634">
        <ele>426.519173</ele>
        <time>2022-04-13T09:10:08.323Z</time>
      </trkpt>
      <trkpt lat="42.12815" lon="21.68629">
        <ele>426.761312</ele>
        <time>2022-04-13T09:10:13.322Z</time>
      </trkpt>
      <trkpt lat="42.12805" lon="21.68624">
        <ele>427.02292</ele>
        <time>2022-04-13T09:10:18.327Z</time>
      </trkpt>
      <trkpt lat="42.12796" lon="21.6862">
        <ele>427.256737</ele>
        <time>2022-04-13T09:10:23.305Z</time>
      </trkpt>
      <trkpt lat="42.12786" lon="21.68615">
        <ele>427.515632</ele>
        <time>2022-04-13T09:10:29.317Z</time>
      </trkpt>
      <trkpt lat="42.12777" lon="21.68611">
        <ele>427.747127</ele>
        <time>2022-04-13T09:10:34.300Z</time>
      </trkpt>
      <trkpt lat="42.12767" lon="21.68607">
        <ele>428.00516</ele>
        <time>2022-04-13T09:10:40.307Z</time>
      </trkpt>
      <trkpt lat="42.12758" lon="21.68602">
        <ele>428.239324</ele>
        <time>2022-04-13T09:10:45.303Z</time>
      </trkpt>
      <trkpt lat="42.12749" lon="21.68595">
        <ele>428.497995</ele>
        <time>2022-04-13T09:10:51.305Z</time>
      </trkpt>
      <trkpt lat="42.12741" lon="21.68587">
        <ele>429.712126</ele>
        <time>2022-04-13T09:10:57.315Z</time>
      </trkpt>
      <trkpt lat="42.12734" lon="21.68576">
        <ele>431.154559</ele>
        <time>2022-04-13T09:11:02.314Z</time>
      </trkpt>
      <trkpt lat="42.12729" lon="21.68564">
        <ele>432.472458</ele>
        <time>2022-04-13T09:11:09.319Z</time>
      </trkpt>
      <trkpt lat="42.12727" lon="21.68551">
        <ele>433.772905</ele>
        <time>2022-04-13T09:11:15.318Z</time>
      </trkpt>
      <trkpt lat="42.12725" lon="21.68539">
        <ele>435.013127</ele>
        <time>2022-04-13T09:11:19.319Z</time>
      </trkpt>
      <trkpt lat="42.12723" lon="21.68525">
        <ele>436.423353</ele>
        <time>2022-04-13T09:11:24.302Z</time>
      </trkpt>
      <trkpt lat="42.12721" lon="21.68511">
        <ele>437.837792</ele>
        <time>2022-04-13T09:11:30.323Z</time>
      </trkpt>
      <trkpt lat="42.12722" lon="21.68497">
        <ele>439.225305</ele>
        <time>2022-04-13T09:11:36.331Z</time>
      </trkpt>
      <trkpt lat="42.12721" lon="21.68484">
        <ele>440.534811</ele>
        <time>2022-04-13T09:11:41.307Z</time>
      </trkpt>
      <trkpt lat="42.12719" lon="21.6847">
        <ele>442.024916</ele>
        <time>2022-04-13T09:11:46.320Z</time>
      </trkpt>
      <trkpt lat="42.12718" lon="21.68456">
        <ele>443.441562</ele>
        <time>2022-04-13T09:11:53.318Z</time>
      </trkpt>
      <trkpt lat="42.12718" lon="21.68443">
        <ele>444.680519</ele>
        <time>2022-04-13T09:12:00.385Z</time>
      </trkpt>
      <trkpt lat="42.12719" lon="21.68431">
        <ele>445.943961</ele>
        <time>2022-04-13T09:12:07.302Z</time>
      </trkpt>
      <trkpt lat="42.1272" lon="21.68417">
        <ele>447.33219</ele>
        <time>2022-04-13T09:12:13.300Z</time>
      </trkpt>
      <trkpt lat="42.12722" lon="21.68402">
        <ele>448.770841</ele>
        <time>2022-04-13T09:12:20.322Z</time>
      </trkpt>
      <trkpt lat="42.12723" lon="21.68389">
        <ele>450.092482</ele>
        <time>2022-04-13T09:12:26.318Z</time>
      </trkpt>
      <trkpt lat="42.12723" lon="21.68376">
        <ele>451.448454</ele>
        <time>2022-04-13T09:12:33.339Z</time>
      </trkpt>
      <trkpt lat="42.12722" lon="21.68363">
        <ele>452.669586</ele>
        <time>2022-04-13T09:12:38.322Z</time>
      </trkpt>
      <trkpt lat="42.1272" lon="21.68351">
        <ele>453.536811</ele>
        <time>2022-04-13T09:12:43.296Z</time>
      </trkpt>
      <trkpt lat="42.12719" lon="21.68337">
        <ele>454.502086</ele>
        <time>2022-04-13T09:12:50.324Z</time>
      </trkpt>
      <trkpt lat="42.12718" lon="21.68324">
        <ele>455.396791</ele>
        <time>2022-04-13T09:12:56.303Z</time>
      </trkpt>
      <trkpt lat="42.12718" lon="21.68311">
        <ele>456.303697</ele>
        <time>2022-04-13T09:13:02.304Z</time>
      </trkpt>
      <trkpt lat="42.12716" lon="21.68297">
        <ele>457.251065</ele>
        <time>2022-04-13T09:13:08.362Z</time>
      </trkpt>
      <trkpt lat="42.12715" lon="21.68284">
        <ele>458.210509</ele>
        <time>2022-04-13T09:13:15.300Z</time>
      </trkpt>
      <trkpt lat="42.12712" lon="21.68271">
        <ele>459.119727</ele>
        <time>2022-04-13T09:13:22.317Z</time>
      </trkpt>
      <trkpt lat="42.12711" lon="21.68258">
        <ele>460.031162</ele>
        <time>2022-04-13T09:13:28.308Z</time>
      </trkpt>
      <trkpt lat="42.12711" lon="21.68245">
        <ele>460.890595</ele>
        <time>2022-04-13T09:13:34.299Z</time>
      </trkpt>
      <trkpt lat="42.12709" lon="21.68232">
        <ele>461.801104</ele>
        <time>2022-04-13T09:13:40.289Z</time>
      </trkpt>
      <trkpt lat="42.12709" lon="21.68218">
        <ele>462.76638</ele>
        <time>2022-04-13T09:13:46.315Z</time>
      </trkpt>
      <trkpt lat="42.12708" lon="21.68205">
        <ele>463.663242</ele>
        <time>2022-04-13T09:13:51.318Z</time>
      </trkpt>
      <trkpt lat="42.12705" lon="21.68192">
        <ele>464.570146</ele>
        <time>2022-04-13T09:13:57.335Z</time>
      </trkpt>
      <trkpt lat="42.12703" lon="21.68179">
        <ele>465.512619</ele>
        <time>2022-04-13T09:14:04.295Z</time>
      </trkpt>
      <trkpt lat="42.12701" lon="21.68166">
        <ele>466.411162</ele>
        <time>2022-04-13T09:14:10.307Z</time>
      </trkpt>
      <trkpt lat="42.12698" lon="21.68153">
        <ele>467.345113</ele>
        <time>2022-04-13T09:14:16.361Z</time>
      </trkpt>
      <trkpt lat="42.12697" lon="21.68139">
        <ele>468.331749</ele>
        <time>2022-04-13T09:14:22.295Z</time>
      </trkpt>
      <trkpt lat="42.12696" lon="21.68126">
        <ele>469.193575</ele>
        <time>2022-04-13T09:14:27.306Z</time>
      </trkpt>
      <trkpt lat="42.12695" lon="21.68114">
        <ele>469.585938</ele>
        <time>2022-04-13T09:14:34.321Z</time>
      </trkpt>
      <trkpt lat="42.12693" lon="21.681">
        <ele>469.880326</ele>
        <time>2022-04-13T09:14:40.323Z</time>
      </trkpt>
      <trkpt lat="42.12691" lon="21.68087">
        <ele>470.185319</ele>
        <time>2022-04-13T09:14:46.314Z</time>
      </trkpt>
      <trkpt lat="42.1269" lon="21.68073">
        <ele>470.475381</ele>
        <time>2022-04-13T09:14:51.306Z</time>
      </trkpt>
      <trkpt lat="42.12688" lon="21.68061">
        <ele>470.766417</ele>
        <time>2022-04-13T09:14:57.318Z</time>
      </trkpt>
      <trkpt lat="42.12687" lon="21.68047">
        <ele>471.059886</ele>
        <time>2022-04-13T09:15:02.304Z</time>
      </trkpt>
      <trkpt lat="42.12686" lon="21.68035">
        <ele>471.335342</ele>
        <time>2022-04-13T09:15:07.298Z</time>
      </trkpt>
      <trkpt lat="42.12685" lon="21.68021">
        <ele>471.639753</ele>
        <time>2022-04-13T09:15:12.304Z</time>
      </trkpt>
      <trkpt lat="42.12683" lon="21.68008">
        <ele>471.922695</ele>
        <time>2022-04-13T09:15:16.307Z</time>
      </trkpt>
      <trkpt lat="42.1268" lon="21.67996">
        <ele>472.19798</ele>
        <time>2022-04-13T09:15:20.318Z</time>
      </trkpt>
      <trkpt lat="42.12677" lon="21.67982">
        <ele>472.510571</ele>
        <time>2022-04-13T09:15:25.320Z</time>
      </trkpt>
      <trkpt lat="42.12675" lon="21.6797">
        <ele>472.797444</ele>
        <time>2022-04-13T09:15:30.309Z</time>
      </trkpt>
      <trkpt lat="42.12673" lon="21.67957">
        <ele>473.078238</ele>
        <time>2022-04-13T09:15:35.330Z</time>
      </trkpt>
      <trkpt lat="42.12673" lon="21.67944">
        <ele>473.361283</ele>
        <time>2022-04-13T09:15:40.304Z</time>
      </trkpt>
      <trkpt lat="42.12672" lon="21.67931">
        <ele>473.659608</ele>
        <time>2022-04-13T09:15:45.307Z</time>
      </trkpt>
      <trkpt lat="42.12671" lon="21.67917">
        <ele>473.956806</ele>
        <time>2022-04-13T09:15:50.327Z</time>
      </trkpt>
      <trkpt lat="42.12669" lon="21.67904">
        <ele>474.245817</ele>
        <time>2022-04-13T09:15:55.300Z</time>
      </trkpt>
      <trkpt lat="42.12666" lon="21.67891">
        <ele>474.541101</ele>
        <time>2022-04-13T09:16:01.315Z</time>
      </trkpt>
      <trkpt lat="42.12665" lon="21.67877">
        <ele>474.489044</ele>
        <time>2022-04-13T09:16:07.304Z</time>
      </trkpt>
      <trkpt lat="42.12664" lon="21.67865">
        <ele>474.229577</ele>
        <time>2022-04-13T09:16:11.318Z</time>
      </trkpt>
      <trkpt lat="42.12662" lon="21.67852">
        <ele>473.964565</ele>
        <time>2022-04-13T09:16:15.301Z</time>
      </trkpt>
      <trkpt lat="42.1266" lon="21.6784">
        <ele>473.700137</ele>
        <time>2022-04-13T09:16:19.320Z</time>
      </trkpt>
      <trkpt lat="42.12659" lon="21.67827">
        <ele>473.420334</ele>
        <time>2022-04-13T09:16:23.307Z</time>
      </trkpt>
      <trkpt lat="42.12658" lon="21.67812">
        <ele>473.115313</ele>
        <time>2022-04-13T09:16:27.299Z</time>
      </trkpt>
      <trkpt lat="42.12658" lon="21.67797">
        <ele>472.799514</ele>
        <time>2022-04-13T09:16:32.309Z</time>
      </trkpt>
      <trkpt lat="42.12657" lon="21.67784">
        <ele>472.522928</ele>
        <time>2022-04-13T09:16:37.311Z</time>
      </trkpt>
      <trkpt lat="42.12655" lon="21.67769">
        <ele>472.210293</ele>
        <time>2022-04-13T09:16:42.318Z</time>
      </trkpt>
      <trkpt lat="42.12653" lon="21.67756">
        <ele>471.930501</ele>
        <time>2022-04-13T09:16:46.318Z</time>
      </trkpt>
      <trkpt lat="42.12651" lon="21.67744">
        <ele>471.675044</ele>
        <time>2022-04-13T09:16:50.305Z</time>
      </trkpt>
      <trkpt lat="42.12649" lon="21.67729">
        <ele>471.358661</ele>
        <time>2022-04-13T09:16:55.297Z</time>
      </trkpt>
      <trkpt lat="42.12647" lon="21.67717">
        <ele>471.09914</ele>
        <time>2022-04-13T09:16:59.347Z</time>
      </trkpt>
      <trkpt lat="42.12645" lon="21.67704">
        <ele>470.827963</ele>
        <time>2022-04-13T09:17:03.316Z</time>
      </trkpt>
      <trkpt lat="42.12644" lon="21.67691">
        <ele>470.553625</ele>
        <time>2022-04-13T09:17:07.316Z</time>
      </trkpt>
      <trkpt lat="42.12642" lon="21.67679">
        <ele>470.296769</ele>
        <time>2022-04-13T09:17:11.324Z</time>
      </trkpt>
      <trkpt lat="42.1264" lon="21.67667">
        <ele>470.042145</ele>
        <time>2022-04-13T09:17:15.362Z</time>
      </trkpt>
      <trkpt lat="42.12639" lon="21.67654">
        <ele>469.75518</ele>
        <time>2022-04-13T09:17:19.308Z</time>
      </trkpt>
      <trkpt lat="42.12637" lon="21.67641">
        <ele>469.483974</ele>
        <time>2022-04-13T09:17:23.323Z</time>
      </trkpt>
      <trkpt lat="42.12634" lon="21.67626">
        <ele>469.192856</ele>
        <time>2022-04-13T09:17:27.308Z</time>
      </trkpt>
      <trkpt lat="42.12633" lon="21.67611">
        <ele>468.912972</ele>
        <time>2022-04-13T09:17:31.307Z</time>
      </trkpt>
      <trkpt lat="42.12631" lon="21.67595">
        <ele>468.603078</ele>
        <time>2022-04-13T09:17:35.313Z</time>
      </trkpt>
      <trkpt lat="42.1263" lon="21.67582">
        <ele>468.349031</ele>
        <time>2022-04-13T09:17:38.297Z</time>
      </trkpt>
      <trkpt lat="42.12628" lon="21.67569">
        <ele>468.100682</ele>
        <time>2022-04-13T09:17:41.303Z</time>
      </trkpt>
      <trkpt lat="42.12627" lon="21.67557">
        <ele>467.858151</ele>
        <time>2022-04-13T09:17:44.319Z</time>
      </trkpt>
      <trkpt lat="42.12624" lon="21.67545">
        <ele>467.614668</ele>
        <time>2022-04-13T09:17:47.318Z</time>
      </trkpt>
      <trkpt lat="42.12622" lon="21.67533">
        <ele>467.377264</ele>
        <time>2022-04-13T09:17:50.317Z</time>
      </trkpt>
      <trkpt lat="42.12621" lon="21.67517">
        <ele>467.066635</ele>
        <time>2022-04-13T09:17:54.316Z</time>
      </trkpt>
      <trkpt lat="42.12619" lon="21.67504">
        <ele>466.815585</ele>
        <time>2022-04-13T09:17:57.304Z</time>
      </trkpt>
      <trkpt lat="42.12617" lon="21.67491">
        <ele>466.576302</ele>
        <time>2022-04-13T09:18:00.315Z</time>
      </trkpt>
      <trkpt lat="42.12615" lon="21.67478">
        <ele>466.321459</ele>
        <time>2022-04-13T09:18:03.336Z</time>
      </trkpt>
      <trkpt lat="42.12613" lon="21.67465">
        <ele>466.065729</ele>
        <time>2022-04-13T09:18:06.335Z</time>
      </trkpt>
      <trkpt lat="42.12611" lon="21.67453">
        <ele>465.817045</ele>
        <time>2022-04-13T09:18:09.305Z</time>
      </trkpt>
      <trkpt lat="42.12609" lon="21.67437">
        <ele>465.515513</ele>
        <time>2022-04-13T09:18:13.320Z</time>
      </trkpt>
      <trkpt lat="42.12606" lon="21.67422">
        <ele>465.219833</ele>
        <time>2022-04-13T09:18:17.341Z</time>
      </trkpt>
      <trkpt lat="42.12605" lon="21.6741">
        <ele>464.979451</ele>
        <time>2022-04-13T09:18:20.304Z</time>
      </trkpt>
      <trkpt lat="42.12604" lon="21.67398">
        <ele>465.230311</ele>
        <time>2022-04-13T09:18:23.320Z</time>
      </trkpt>
      <trkpt lat="42.12603" lon="21.67382">
        <ele>465.666936</ele>
        <time>2022-04-13T09:18:27.308Z</time>
      </trkpt>
      <trkpt lat="42.12601" lon="21.67367">
        <ele>466.081367</ele>
        <time>2022-04-13T09:18:31.299Z</time>
      </trkpt>
      <trkpt lat="42.12599" lon="21.67353">
        <ele>466.471335</ele>
        <time>2022-04-13T09:18:35.292Z</time>
      </trkpt>
      <trkpt lat="42.12596" lon="21.67341">
        <ele>466.832933</ele>
        <time>2022-04-13T09:18:39.346Z</time>
      </trkpt>
      <trkpt lat="42.12593" lon="21.67328">
        <ele>467.187348</ele>
        <time>2022-04-13T09:18:43.324Z</time>
      </trkpt>
      <trkpt lat="42.12588" lon="21.67316">
        <ele>467.569324</ele>
        <time>2022-04-13T09:18:48.309Z</time>
      </trkpt>
      <trkpt lat="42.12582" lon="21.67305">
        <ele>467.949369</ele>
        <time>2022-04-13T09:18:53.327Z</time>
      </trkpt>
      <trkpt lat="42.12575" lon="21.67293">
        <ele>468.356828</ele>
        <time>2022-04-13T09:18:58.310Z</time>
      </trkpt>
      <trkpt lat="42.12569" lon="21.67284">
        <ele>468.706132</ele>
        <time>2022-04-13T09:19:02.315Z</time>
      </trkpt>
      <trkpt lat="42.12561" lon="21.67274">
        <ele>469.102333</ele>
        <time>2022-04-13T09:19:07.316Z</time>
      </trkpt>
      <trkpt lat="42.12554" lon="21.67264">
        <ele>469.486111</ele>
        <time>2022-04-13T09:19:12.343Z</time>
      </trkpt>
      <trkpt lat="42.12547" lon="21.67254">
        <ele>469.865327</ele>
        <time>2022-04-13T09:19:17.318Z</time>
      </trkpt>
      <trkpt lat="42.1254" lon="21.67244">
        <ele>470.236802</ele>
        <time>2022-04-13T09:19:22.305Z</time>
      </trkpt>
      <trkpt lat="42.12533" lon="21.67234">
        <ele>470.614817</ele>
        <time>2022-04-13T09:19:28.333Z</time>
      </trkpt>
      <trkpt lat="42.12525" lon="21.67224">
        <ele>471.009189</ele>
        <time>2022-04-13T09:19:34.313Z</time>
      </trkpt>
      <trkpt lat="42.1252" lon="21.67215">
        <ele>471.344817</ele>
        <time>2022-04-13T09:19:39.303Z</time>
      </trkpt>
      <trkpt lat="42.12514" lon="21.67204">
        <ele>471.795281</ele>
        <time>2022-04-13T09:19:45.304Z</time>
      </trkpt>
      <trkpt lat="42.12507" lon="21.67194">
        <ele>472.434157</ele>
        <time>2022-04-13T09:19:51.348Z</time>
      </trkpt>
      <trkpt lat="42.125" lon="21.67184">
        <ele>473.094839</ele>
        <time>2022-04-13T09:19:57.359Z</time>
      </trkpt>
      <trkpt lat="42.12493" lon="21.67174">
        <ele>473.706809</ele>
        <time>2022-04-13T09:20:02.308Z</time>
      </trkpt>
      <trkpt lat="42.12487" lon="21.67165">
        <ele>474.308515</ele>
        <time>2022-04-13T09:20:07.307Z</time>
      </trkpt>
      <trkpt lat="42.1248" lon="21.67156">
        <ele>474.887615</ele>
        <time>2022-04-13T09:20:12.315Z</time>
      </trkpt>
      <trkpt lat="42.12473" lon="21.67147">
        <ele>475.539911</ele>
        <time>2022-04-13T09:20:17.333Z</time>
      </trkpt>
      <trkpt lat="42.12466" lon="21.67138">
        <ele>476.150395</ele>
        <time>2022-04-13T09:20:22.298Z</time>
      </trkpt>
      <trkpt lat="42.1246" lon="21.67128">
        <ele>476.778878</ele>
        <time>2022-04-13T09:20:28.320Z</time>
      </trkpt>
      <trkpt lat="42.12453" lon="21.67119">
        <ele>477.405659</ele>
        <time>2022-04-13T09:20:34.323Z</time>
      </trkpt>
      <trkpt lat="42.12447" lon="21.67108">
        <ele>478.006589</ele>
        <time>2022-04-13T09:20:40.301Z</time>
      </trkpt>
      <trkpt lat="42.1244" lon="21.67098">
        <ele>478.646381</ele>
        <time>2022-04-13T09:20:46.312Z</time>
      </trkpt>
      <trkpt lat="42.12432" lon="21.67089">
        <ele>479.319012</ele>
        <time>2022-04-13T09:20:52.313Z</time>
      </trkpt>
      <trkpt lat="42.12425" lon="21.67079">
        <ele>479.959815</ele>
        <time>2022-04-13T09:20:58.304Z</time>
      </trkpt>
      <trkpt lat="42.12418" lon="21.67069">
        <ele>480.624165</ele>
        <time>2022-04-13T09:21:04.323Z</time>
      </trkpt>
      <trkpt lat="42.12412" lon="21.6706">
        <ele>481.221803</ele>
        <time>2022-04-13T09:21:10.335Z</time>
      </trkpt>
      <trkpt lat="42.12406" lon="21.67049">
        <ele>481.845526</ele>
        <time>2022-04-13T09:21:16.315Z</time>
      </trkpt>
      <trkpt lat="42.12399" lon="21.67039">
        <ele>482.507701</ele>
        <time>2022-04-13T09:21:22.320Z</time>
      </trkpt>
      <trkpt lat="42.12392" lon="21.67029">
        <ele>483.142683</ele>
        <time>2022-04-13T09:21:28.304Z</time>
      </trkpt>
      <trkpt lat="42.12386" lon="21.6702">
        <ele>483.525334</ele>
        <time>2022-04-13T09:21:34.323Z</time>
      </trkpt>
      <trkpt lat="42.12379" lon="21.67011">
        <ele>483.916323</ele>
        <time>2022-04-13T09:21:40.313Z</time>
      </trkpt>
      <trkpt lat="42.12371" lon="21.67003">
        <ele>484.321803</ele>
        <time>2022-04-13T09:21:46.323Z</time>
      </trkpt>
      <trkpt lat="42.12365" lon="21.66993">
        <ele>484.724753</ele>
        <time>2022-04-13T09:21:52.307Z</time>
      </trkpt>
      <trkpt lat="42.12359" lon="21.66983">
        <ele>485.118589</ele>
        <time>2022-04-13T09:21:58.318Z</time>
      </trkpt>
      <trkpt lat="42.12352" lon="21.66974">
        <ele>485.522136</ele>
        <time>2022-04-13T09:22:04.309Z</time>
      </trkpt>
      <trkpt lat="42.12344" lon="21.66964">
        <ele>485.953479</ele>
        <time>2022-04-13T09:22:10.321Z</time>
      </trkpt>
      <trkpt lat="42.12337" lon="21.66954">
        <ele>486.384091</ele>
        <time>2022-04-13T09:22:16.305Z</time>
      </trkpt>
      <trkpt lat="42.1233" lon="21.66945">
        <ele>486.772007</ele>
        <time>2022-04-13T09:22:21.312Z</time>
      </trkpt>
      <trkpt lat="42.12324" lon="21.66936">
        <ele>487.183523</ele>
        <time>2022-04-13T09:22:27.319Z</time>
      </trkpt>
      <trkpt lat="42.12316" lon="21.66928">
        <ele>487.56756</ele>
        <time>2022-04-13T09:22:33.306Z</time>
      </trkpt>
      <trkpt lat="42.12309" lon="21.66919">
        <ele>487.977393</ele>
        <time>2022-04-13T09:22:40.316Z</time>
      </trkpt>
      <trkpt lat="42.12302" lon="21.66909">
        <ele>488.404953</ele>
        <time>2022-04-13T09:22:46.300Z</time>
      </trkpt>
      <trkpt lat="42.12296" lon="21.669">
        <ele>488.789059</ele>
        <time>2022-04-13T09:22:52.346Z</time>
      </trkpt>
      <trkpt lat="42.12289" lon="21.66891">
        <ele>489.184677</ele>
        <time>2022-04-13T09:22:58.336Z</time>
      </trkpt>
      <trkpt lat="42.12283" lon="21.6688">
        <ele>489.58774</ele>
        <time>2022-04-13T09:23:05.315Z</time>
      </trkpt>
      <trkpt lat="42.12277" lon="21.66871">
        <ele>489.974974</ele>
        <time>2022-04-13T09:23:12.311Z</time>
      </trkpt>
      <trkpt lat="42.1227" lon="21.6686">
        <ele>490.416938</ele>
        <time>2022-04-13T09:23:19.327Z</time>
      </trkpt>
      <trkpt lat="42.12264" lon="21.6685">
        <ele>490.81901</ele>
        <time>2022-04-13T09:23:25.301Z</time>
      </trkpt>
      <trkpt lat="42.12259" lon="21.66839">
        <ele>491.201533</ele>
        <time>2022-04-13T09:23:31.336Z</time>
      </trkpt>
      <trkpt lat="42.12252" lon="21.6683">
        <ele>491.629149</ele>
        <time>2022-04-13T09:23:39.306Z</time>
      </trkpt>
      <trkpt lat="42.12244" lon="21.66821">
        <ele>492.063833</ele>
        <time>2022-04-13T09:23:46.309Z</time>
      </trkpt>
      <trkpt lat="42.12237" lon="21.66812">
        <ele>492.472143</ele>
        <time>2022-04-13T09:23:51.296Z</time>
      </trkpt>
      <trkpt lat="42.1223" lon="21.66804">
        <ele>492.857751</ele>
        <time>2022-04-13T09:23:56.313Z</time>
      </trkpt>
      <trkpt lat="42.12222" lon="21.66796">
        <ele>493.277955</ele>
        <time>2022-04-13T09:24:01.322Z</time>
      </trkpt>
      <trkpt lat="42.12215" lon="21.66788">
        <ele>493.663556</ele>
        <time>2022-04-13T09:24:06.314Z</time>
      </trkpt>
      <trkpt lat="42.12208" lon="21.66781">
        <ele>494.044766</ele>
        <time>2022-04-13T09:24:11.321Z</time>
      </trkpt>
      <trkpt lat="42.12199" lon="21.66773">
        <ele>494.488607</ele>
        <time>2022-04-13T09:24:17.322Z</time>
      </trkpt>
      <trkpt lat="42.12191" lon="21.66766">
        <ele>494.895999</ele>
        <time>2022-04-13T09:24:22.313Z</time>
      </trkpt>
      <trkpt lat="42.12182" lon="21.66759">
        <ele>495.30851</ele>
        <time>2022-04-13T09:24:27.320Z</time>
      </trkpt>
      <trkpt lat="42.12175" lon="21.66752">
        <ele>495.705165</ele>
        <time>2022-04-13T09:24:32.305Z</time>
      </trkpt>
      <trkpt lat="42.12167" lon="21.66744">
        <ele>496.114896</ele>
        <time>2022-04-13T09:24:38.313Z</time>
      </trkpt>
      <trkpt lat="42.12158" lon="21.66736">
        <ele>496.561188</ele>
        <time>2022-04-13T09:24:43.356Z</time>
      </trkpt>
      <trkpt lat="42.1215" lon="21.6673">
        <ele>496.952674</ele>
        <time>2022-04-13T09:24:47.329Z</time>
      </trkpt>
      <trkpt lat="42.12142" lon="21.66721">
        <ele>497.389766</ele>
        <time>2022-04-13T09:24:52.304Z</time>
      </trkpt>
      <trkpt lat="42.12134" lon="21.66714">
        <ele>497.797578</ele>
        <time>2022-04-13T09:24:57.293Z</time>
      </trkpt>
      <trkpt lat="42.12126" lon="21.66704">
        <ele>498.199275</ele>
        <time>2022-04-13T09:25:02.310Z</time>
      </trkpt>
      <trkpt lat="42.1212" lon="21.66695">
        <ele>498.391338</ele>
        <time>2022-04-13T09:25:07.299Z</time>
      </trkpt>
      <trkpt lat="42.12113" lon="21.66685">
        <ele>498.600917</ele>
        <time>2022-04-13T09:25:12.321Z</time>
      </trkpt>
      <trkpt lat="42.12107" lon="21.66675">
        <ele>498.798744</ele>
        <time>2022-04-13T09:25:17.286Z</time>
      </trkpt>
      <trkpt lat="42.12102" lon="21.66664">
        <ele>499.001556</ele>
        <time>2022-04-13T09:25:22.303Z</time>
      </trkpt>
      <trkpt lat="42.12097" lon="21.66654">
        <ele>499.201154</ele>
        <time>2022-04-13T09:25:27.298Z</time>
      </trkpt>
      <trkpt lat="42.1209" lon="21.66643">
        <ele>499.424193</ele>
        <time>2022-04-13T09:25:32.350Z</time>
      </trkpt>
      <trkpt lat="42.12084" lon="21.66632">
        <ele>499.636406</ele>
        <time>2022-04-13T09:25:36.341Z</time>
      </trkpt>
      <trkpt lat="42.12077" lon="21.6662">
        <ele>499.868104</ele>
        <time>2022-04-13T09:25:40.342Z</time>
      </trkpt>
      <trkpt lat="42.1207" lon="21.66608">
        <ele>500.113976</ele>
        <time>2022-04-13T09:25:44.307Z</time>
      </trkpt>
      <trkpt lat="42.12064" lon="21.66598">
        <ele>500.321945</ele>
        <time>2022-04-13T09:25:47.313Z</time>
      </trkpt>
      <trkpt lat="42.12058" lon="21.66587">
        <ele>500.52721</ele>
        <time>2022-04-13T09:25:50.294Z</time>
      </trkpt>
      <trkpt lat="42.12052" lon="21.66577">
        <ele>500.732486</ele>
        <time>2022-04-13T09:25:53.301Z</time>
      </trkpt>
      <trkpt lat="42.12046" lon="21.66567">
        <ele>500.936689</ele>
        <time>2022-04-13T09:25:56.316Z</time>
      </trkpt>
      <trkpt lat="42.12039" lon="21.66557">
        <ele>501.145151</ele>
        <time>2022-04-13T09:25:59.311Z</time>
      </trkpt>
      <trkpt lat="42.12033" lon="21.66545">
        <ele>501.386933</ele>
        <time>2022-04-13T09:26:03.363Z</time>
      </trkpt>
      <trkpt lat="42.12026" lon="21.66532">
        <ele>501.633744</ele>
        <time>2022-04-13T09:26:07.318Z</time>
      </trkpt>
      <trkpt lat="42.12018" lon="21.6652">
        <ele>501.877064</ele>
        <time>2022-04-13T09:26:11.320Z</time>
      </trkpt>
      <trkpt lat="42.1201" lon="21.66508">
        <ele>501.758529</ele>
        <time>2022-04-13T09:26:15.298Z</time>
      </trkpt>
      <trkpt lat="42.12003" lon="21.66497">
        <ele>501.534146</ele>
        <time>2022-04-13T09:26:19.288Z</time>
      </trkpt>
      <trkpt lat="42.11998" lon="21.66487">
        <ele>501.347642</ele>
        <time>2022-04-13T09:26:23.308Z</time>
      </trkpt>
      <trkpt lat="42.11991" lon="21.66474">
        <ele>501.111077</ele>
        <time>2022-04-13T09:26:27.320Z</time>
      </trkpt>
      <trkpt lat="42.11985" lon="21.66463">
        <ele>500.904017</ele>
        <time>2022-04-13T09:26:30.314Z</time>
      </trkpt>
      <trkpt lat="42.11979" lon="21.66452">
        <ele>500.691854</ele>
        <time>2022-04-13T09:26:33.304Z</time>
      </trkpt>
      <trkpt lat="42.11972" lon="21.66443">
        <ele>500.49228</ele>
        <time>2022-04-13T09:26:36.322Z</time>
      </trkpt>
      <trkpt lat="42.11965" lon="21.66432">
        <ele>500.285472</ele>
        <time>2022-04-13T09:26:39.297Z</time>
      </trkpt>
      <trkpt lat="42.11958" lon="21.66421">
        <ele>500.052635</ele>
        <time>2022-04-13T09:26:42.294Z</time>
      </trkpt>
      <trkpt lat="42.1195" lon="21.66407">
        <ele>499.789599</ele>
        <time>2022-04-13T09:26:45.297Z</time>
      </trkpt>
      <trkpt lat="42.11944" lon="21.66397">
        <ele>499.592123</ele>
        <time>2022-04-13T09:26:47.289Z</time>
      </trkpt>
      <trkpt lat="42.11938" lon="21.66387">
        <ele>499.39435</ele>
        <time>2022-04-13T09:26:49.308Z</time>
      </trkpt>
      <trkpt lat="42.11932" lon="21.66376">
        <ele>499.183674</ele>
        <time>2022-04-13T09:26:51.302Z</time>
      </trkpt>
      <trkpt lat="42.11925" lon="21.66364">
        <ele>498.961873</ele>
        <time>2022-04-13T09:26:53.310Z</time>
      </trkpt>
      <trkpt lat="42.11918" lon="21.66352">
        <ele>498.732862</ele>
        <time>2022-04-13T09:26:55.293Z</time>
      </trkpt>
      <trkpt lat="42.11911" lon="21.6634">
        <ele>498.496383</ele>
        <time>2022-04-13T09:26:57.326Z</time>
      </trkpt>
      <trkpt lat="42.11903" lon="21.66329">
        <ele>498.264084</ele>
        <time>2022-04-13T09:26:59.344Z</time>
      </trkpt>
      <trkpt lat="42.11894" lon="21.66319">
        <ele>498.2471</ele>
        <time>2022-04-13T09:27:01.314Z</time>
      </trkpt>
      <trkpt lat="42.11885" lon="21.6631">
        <ele>498.230038</ele>
        <time>2022-04-13T09:27:03.309Z</time>
      </trkpt>
      <trkpt lat="42.11875" lon="21.66305">
        <ele>498.21309</ele>
        <time>2022-04-13T09:27:05.324Z</time>
      </trkpt>
      <trkpt lat="42.11863" lon="21.66304">
        <ele>498.195696</ele>
        <time>2022-04-13T09:27:07.315Z</time>
      </trkpt>
      <trkpt lat="42.11851" lon="21.66304">
        <ele>498.17776</ele>
        <time>2022-04-13T09:27:09.318Z</time>
      </trkpt>
      <trkpt lat="42.11841" lon="21.66307">
        <ele>498.161229</ele>
        <time>2022-04-13T09:27:11.318Z</time>
      </trkpt>
      <trkpt lat="42.11831" lon="21.66309">
        <ele>498.14595</ele>
        <time>2022-04-13T09:27:13.311Z</time>
      </trkpt>
      <trkpt lat="42.11821" lon="21.6631">
        <ele>498.131319</ele>
        <time>2022-04-13T09:27:15.299Z</time>
      </trkpt>
      <trkpt lat="42.11812" lon="21.66311">
        <ele>498.117121</ele>
        <time>2022-04-13T09:27:17.312Z</time>
      </trkpt>
      <trkpt lat="42.118" lon="21.66313">
        <ele>498.09832</ele>
        <time>2022-04-13T09:27:20.327Z</time>
      </trkpt>
      <trkpt lat="42.11788" lon="21.66314">
        <ele>498.080221</ele>
        <time>2022-04-13T09:27:23.314Z</time>
      </trkpt>
      <trkpt lat="42.11777" lon="21.66314">
        <ele>498.063665</ele>
        <time>2022-04-13T09:27:26.316Z</time>
      </trkpt>
      <trkpt lat="42.11767" lon="21.6631">
        <ele>498.048483</ele>
        <time>2022-04-13T09:27:29.312Z</time>
      </trkpt>
      <trkpt lat="42.11757" lon="21.66302">
        <ele>498.030637</ele>
        <time>2022-04-13T09:27:33.312Z</time>
      </trkpt>
      <trkpt lat="42.11749" lon="21.66291">
        <ele>498.013416</ele>
        <time>2022-04-13T09:27:37.302Z</time>
      </trkpt>
      <trkpt lat="42.11742" lon="21.6628">
        <ele>497.996562</ele>
        <time>2022-04-13T09:27:41.293Z</time>
      </trkpt>
      <trkpt lat="42.11735" lon="21.66268">
        <ele>498.138488</ele>
        <time>2022-04-13T09:27:45.318Z</time>
      </trkpt>
      <trkpt lat="42.11728" lon="21.66256">
        <ele>498.351139</ele>
        <time>2022-04-13T09:27:49.335Z</time>
      </trkpt>
      <trkpt lat="42.11721" lon="21.66245">
        <ele>498.56379</ele>
        <time>2022-04-13T09:27:53.315Z</time>
      </trkpt>
      <trkpt lat="42.11713" lon="21.66233">
        <ele>498.780042</ele>
        <time>2022-04-13T09:27:57.309Z</time>
      </trkpt>
      <trkpt lat="42.11707" lon="21.66223">
        <ele>498.955392</ele>
        <time>2022-04-13T09:28:00.325Z</time>
      </trkpt>
      <trkpt lat="42.11701" lon="21.66214">
        <ele>499.136257</ele>
        <time>2022-04-13T09:28:03.299Z</time>
      </trkpt>
      <trkpt lat="42.11695" lon="21.66204">
        <ele>499.30956</ele>
        <time>2022-04-13T09:28:06.324Z</time>
      </trkpt>
      <trkpt lat="42.11688" lon="21.66192">
        <ele>499.525525</ele>
        <time>2022-04-13T09:28:10.297Z</time>
      </trkpt>
      <trkpt lat="42.11682" lon="21.66181">
        <ele>499.720075</ele>
        <time>2022-04-13T09:28:14.308Z</time>
      </trkpt>
      <trkpt lat="42.11675" lon="21.66169">
        <ele>499.937168</ele>
        <time>2022-04-13T09:28:18.314Z</time>
      </trkpt>
      <trkpt lat="42.11667" lon="21.66157">
        <ele>500.156736</ele>
        <time>2022-04-13T09:28:22.324Z</time>
      </trkpt>
      <trkpt lat="42.11659" lon="21.66148">
        <ele>500.362301</ele>
        <time>2022-04-13T09:28:25.298Z</time>
      </trkpt>
      <trkpt lat="42.11651" lon="21.66137">
        <ele>500.578458</ele>
        <time>2022-04-13T09:28:28.318Z</time>
      </trkpt>
      <trkpt lat="42.11644" lon="21.66125">
        <ele>500.795794</ele>
        <time>2022-04-13T09:28:31.344Z</time>
      </trkpt>
      <trkpt lat="42.11637" lon="21.66112">
        <ele>501.017612</ele>
        <time>2022-04-13T09:28:34.295Z</time>
      </trkpt>
      <trkpt lat="42.11632" lon="21.66098">
        <ele>501.243858</ele>
        <time>2022-04-13T09:28:37.323Z</time>
      </trkpt>
      <trkpt lat="42.1163" lon="21.66083">
        <ele>501.525465</ele>
        <time>2022-04-13T09:28:40.348Z</time>
      </trkpt>
      <trkpt lat="42.1163" lon="21.66069">
        <ele>502.11422</ele>
        <time>2022-04-13T09:28:43.301Z</time>
      </trkpt>
      <trkpt lat="42.1163" lon="21.66055">
        <ele>502.699045</ele>
        <time>2022-04-13T09:28:46.361Z</time>
      </trkpt>
      <trkpt lat="42.1163" lon="21.66042">
        <ele>503.238435</ele>
        <time>2022-04-13T09:28:49.308Z</time>
      </trkpt>
      <trkpt lat="42.1163" lon="21.66027">
        <ele>503.836448</ele>
        <time>2022-04-13T09:28:52.304Z</time>
      </trkpt>
      <trkpt lat="42.11627" lon="21.66013">
        <ele>504.438393</ele>
        <time>2022-04-13T09:28:55.299Z</time>
      </trkpt>
      <trkpt lat="42.11623" lon="21.66001">
        <ele>505.007816</ele>
        <time>2022-04-13T09:28:58.327Z</time>
      </trkpt>
      <trkpt lat="42.11618" lon="21.65989">
        <ele>505.552186</ele>
        <time>2022-04-13T09:29:01.299Z</time>
      </trkpt>
      <trkpt lat="42.11612" lon="21.65978">
        <ele>506.082563</ele>
        <time>2022-04-13T09:29:04.297Z</time>
      </trkpt>
      <trkpt lat="42.11608" lon="21.65968">
        <ele>506.586664</ele>
        <time>2022-04-13T09:29:07.309Z</time>
      </trkpt>
      <trkpt lat="42.11601" lon="21.65956">
        <ele>507.175084</ele>
        <time>2022-04-13T09:29:11.357Z</time>
      </trkpt>
      <trkpt lat="42.11595" lon="21.65947">
        <ele>507.688579</ele>
        <time>2022-04-13T09:29:15.317Z</time>
      </trkpt>
      <trkpt lat="42.11589" lon="21.65935">
        <ele>508.293507</ele>
        <time>2022-04-13T09:29:19.312Z</time>
      </trkpt>
      <trkpt lat="42.11582" lon="21.65924">
        <ele>508.870263</ele>
        <time>2022-04-13T09:29:23.307Z</time>
      </trkpt>
      <trkpt lat="42.11576" lon="21.65913">
        <ele>509.438842</ele>
        <time>2022-04-13T09:29:27.310Z</time>
      </trkpt>
      <trkpt lat="42.11571" lon="21.65901">
        <ele>510.017066</ele>
        <time>2022-04-13T09:29:31.335Z</time>
      </trkpt>
      <trkpt lat="42.11564" lon="21.65891">
        <ele>510.597531</ele>
        <time>2022-04-13T09:29:35.295Z</time>
      </trkpt>
      <trkpt lat="42.11556" lon="21.65881">
        <ele>511.176206</ele>
        <time>2022-04-13T09:29:39.304Z</time>
      </trkpt>
      <trkpt lat="42.11547" lon="21.65871">
        <ele>511.590993</ele>
        <time>2022-04-13T09:29:43.294Z</time>
      </trkpt>
      <trkpt lat="42.11539" lon="21.6586">
        <ele>511.896234</ele>
        <time>2022-04-13T09:29:47.326Z</time>
      </trkpt>
      <trkpt lat="42.11532" lon="21.65847">
        <ele>512.195982</ele>
        <time>2022-04-13T09:29:51.299Z</time>
      </trkpt>
      <trkpt lat="42.11524" lon="21.65835">
        <ele>512.501572</ele>
        <time>2022-04-13T09:29:55.297Z</time>
      </trkpt>
      <trkpt lat="42.11516" lon="21.65824">
        <ele>512.800873</ele>
        <time>2022-04-13T09:29:59.335Z</time>
      </trkpt>
      <trkpt lat="42.11509" lon="21.65814">
        <ele>513.060767</ele>
        <time>2022-04-13T09:30:03.306Z</time>
      </trkpt>
      <trkpt lat="42.11503" lon="21.65804">
        <ele>513.314056</ele>
        <time>2022-04-13T09:30:07.319Z</time>
      </trkpt>
      <trkpt lat="42.11495" lon="21.65792">
        <ele>513.618411</ele>
        <time>2022-04-13T09:30:11.307Z</time>
      </trkpt>
      <trkpt lat="42.11489" lon="21.65779">
        <ele>513.924371</ele>
        <time>2022-04-13T09:30:15.300Z</time>
      </trkpt>
      <trkpt lat="42.11482" lon="21.65769">
        <ele>514.167943</ele>
        <time>2022-04-13T09:30:18.304Z</time>
      </trkpt>
      <trkpt lat="42.11476" lon="21.65759">
        <ele>514.411515</ele>
        <time>2022-04-13T09:30:21.344Z</time>
      </trkpt>
      <trkpt lat="42.1147" lon="21.65749">
        <ele>514.65615</ele>
        <time>2022-04-13T09:30:24.314Z</time>
      </trkpt>
      <trkpt lat="42.11463" lon="21.6574">
        <ele>514.919025</ele>
        <time>2022-04-13T09:30:27.304Z</time>
      </trkpt>
      <trkpt lat="42.11455" lon="21.65729">
        <ele>515.209271</ele>
        <time>2022-04-13T09:30:30.304Z</time>
      </trkpt>
      <trkpt lat="42.11449" lon="21.65719">
        <ele>515.464588</ele>
        <time>2022-04-13T09:30:33.320Z</time>
      </trkpt>
      <trkpt lat="42.11442" lon="21.65709">
        <ele>515.731901</ele>
        <time>2022-04-13T09:30:36.299Z</time>
      </trkpt>
      <trkpt lat="42.11434" lon="21.65698">
        <ele>516.012217</ele>
        <time>2022-04-13T09:30:39.308Z</time>
      </trkpt>
      <trkpt lat="42.11426" lon="21.65688">
        <ele>516.104385</ele>
        <time>2022-04-13T09:30:42.306Z</time>
      </trkpt>
      <trkpt lat="42.11419" lon="21.65679">
        <ele>516.186653</ele>
        <time>2022-04-13T09:30:45.319Z</time>
      </trkpt>
      <trkpt lat="42.11413" lon="21.6567">
        <ele>516.26239</ele>
        <time>2022-04-13T09:30:48.309Z</time>
      </trkpt>
      <trkpt lat="42.11406" lon="21.6566">
        <ele>516.337896</ele>
        <time>2022-04-13T09:30:51.327Z</time>
      </trkpt>
      <trkpt lat="42.114" lon="21.65651">
        <ele>516.413679</ele>
        <time>2022-04-13T09:30:54.298Z</time>
      </trkpt>
      <trkpt lat="42.11393" lon="21.6564">
        <ele>516.498678</ele>
        <time>2022-04-13T09:30:58.320Z</time>
      </trkpt>
      <trkpt lat="42.11386" lon="21.65628">
        <ele>516.592144</ele>
        <time>2022-04-13T09:31:02.317Z</time>
      </trkpt>
      <trkpt lat="42.11379" lon="21.65617">
        <ele>516.67753</ele>
        <time>2022-04-13T09:31:06.314Z</time>
      </trkpt>
      <trkpt lat="42.11373" lon="21.65606">
        <ele>516.763837</ele>
        <time>2022-04-13T09:31:10.305Z</time>
      </trkpt>
      <trkpt lat="42.11367" lon="21.65596">
        <ele>516.838478</ele>
        <time>2022-04-13T09:31:14.294Z</time>
      </trkpt>
      <trkpt lat="42.11361" lon="21.65584">
        <ele>516.928522</ele>
        <time>2022-04-13T09:31:18.322Z</time>
      </trkpt>
      <trkpt lat="42.11354" lon="21.65575">
        <ele>517.002974</ele>
        <time>2022-04-13T09:31:21.304Z</time>
      </trkpt>
      <trkpt lat="42.11348" lon="21.65566">
        <ele>517.079469</ele>
        <time>2022-04-13T09:31:24.320Z</time>
      </trkpt>
      <trkpt lat="42.11342" lon="21.65556">
        <ele>517.153895</ele>
        <time>2022-04-13T09:31:27.305Z</time>
      </trkpt>
      <trkpt lat="42.11336" lon="21.65547">
        <ele>517.227337</ele>
        <time>2022-04-13T09:31:30.315Z</time>
      </trkpt>
      <trkpt lat="42.11329" lon="21.65538">
        <ele>517.302844</ele>
        <time>2022-04-13T09:31:33.348Z</time>
      </trkpt>
      <trkpt lat="42.11323" lon="21.65528">
        <ele>517.37727</ele>
        <time>2022-04-13T09:31:36.330Z</time>
      </trkpt>
      <trkpt lat="42.11315" lon="21.65517">
        <ele>517.473656</ele>
        <time>2022-04-13T09:31:40.323Z</time>
      </trkpt>
      <trkpt lat="42.11307" lon="21.65505">
        <ele>517.38559</ele>
        <time>2022-04-13T09:31:44.352Z</time>
      </trkpt>
      <trkpt lat="42.11299" lon="21.65494">
        <ele>517.286841</ele>
        <time>2022-04-13T09:31:48.334Z</time>
      </trkpt>
      <trkpt lat="42.11291" lon="21.65482">
        <ele>517.190087</ele>
        <time>2022-04-13T09:31:52.317Z</time>
      </trkpt>
      <trkpt lat="42.11284" lon="21.65473">
        <ele>517.113928</ele>
        <time>2022-04-13T09:31:55.346Z</time>
      </trkpt>
      <trkpt lat="42.11278" lon="21.65463">
        <ele>517.032719</ele>
        <time>2022-04-13T09:31:58.325Z</time>
      </trkpt>
      <trkpt lat="42.11271" lon="21.65453">
        <ele>516.950659</ele>
        <time>2022-04-13T09:32:01.341Z</time>
      </trkpt>
      <trkpt lat="42.11264" lon="21.65443">
        <ele>516.870269</ele>
        <time>2022-04-13T09:32:04.308Z</time>
      </trkpt>
      <trkpt lat="42.11257" lon="21.65433">
        <ele>516.787879</ele>
        <time>2022-04-13T09:32:07.289Z</time>
      </trkpt>
      <trkpt lat="42.1125" lon="21.65423">
        <ele>516.703369</ele>
        <time>2022-04-13T09:32:10.311Z</time>
      </trkpt>
      <trkpt lat="42.11243" lon="21.65413">
        <ele>516.618294</ele>
        <time>2022-04-13T09:32:13.312Z</time>
      </trkpt>
      <trkpt lat="42.11237" lon="21.65403">
        <ele>516.539605</ele>
        <time>2022-04-13T09:32:16.305Z</time>
      </trkpt>
      <trkpt lat="42.11231" lon="21.65393">
        <ele>516.461379</ele>
        <time>2022-04-13T09:32:19.302Z</time>
      </trkpt>
      <trkpt lat="42.11224" lon="21.65383">
        <ele>516.37772</ele>
        <time>2022-04-13T09:32:22.311Z</time>
      </trkpt>
      <trkpt lat="42.11218" lon="21.65373">
        <ele>516.294661</ele>
        <time>2022-04-13T09:32:25.292Z</time>
      </trkpt>
      <trkpt lat="42.11211" lon="21.65362">
        <ele>516.210006</ele>
        <time>2022-04-13T09:32:28.319Z</time>
      </trkpt>
      <trkpt lat="42.11204" lon="21.65352">
        <ele>516.126166</ele>
        <time>2022-04-13T09:32:31.319Z</time>
      </trkpt>
      <trkpt lat="42.11197" lon="21.65342">
        <ele>516.044497</ele>
        <time>2022-04-13T09:32:34.322Z</time>
      </trkpt>
      <trkpt lat="42.11191" lon="21.65332">
        <ele>516.0318</ele>
        <time>2022-04-13T09:32:37.315Z</time>
      </trkpt>
      <trkpt lat="42.11185" lon="21.65322">
        <ele>516.091257</ele>
        <time>2022-04-13T09:32:40.306Z</time>
      </trkpt>
      <trkpt lat="42.11178" lon="21.65313">
        <ele>516.156247</ele>
        <time>2022-04-13T09:32:43.305Z</time>
      </trkpt>
      <trkpt lat="42.11172" lon="21.65302">
        <ele>516.220766</ele>
        <time>2022-04-13T09:32:46.320Z</time>
      </trkpt>
      <trkpt lat="42.11166" lon="21.65292">
        <ele>516.281733</ele>
        <time>2022-04-13T09:32:49.296Z</time>
      </trkpt>
      <trkpt lat="42.1116" lon="21.65282">
        <ele>516.346666</ele>
        <time>2022-04-13T09:32:52.302Z</time>
      </trkpt>
      <trkpt lat="42.11153" lon="21.65272">
        <ele>516.409548</ele>
        <time>2022-04-13T09:32:55.302Z</time>
      </trkpt>
      <trkpt lat="42.11146" lon="21.65262">
        <ele>516.473705</ele>
        <time>2022-04-13T09:32:58.315Z</time>
      </trkpt>
      <trkpt lat="42.11139" lon="21.6525">
        <ele>516.544863</ele>
        <time>2022-04-13T09:33:02.322Z</time>
      </trkpt>
      <trkpt lat="42.11131" lon="21.65239">
        <ele>516.617311</ele>
        <time>2022-04-13T09:33:06.318Z</time>
      </trkpt>
      <trkpt lat="42.11124" lon="21.65228">
        <ele>516.68585</ele>
        <time>2022-04-13T09:33:10.324Z</time>
      </trkpt>
      <trkpt lat="42.11117" lon="21.65218">
        <ele>516.752645</ele>
        <time>2022-04-13T09:33:14.306Z</time>
      </trkpt>
      <trkpt lat="42.11111" lon="21.65209">
        <ele>516.812351</ele>
        <time>2022-04-13T09:33:18.304Z</time>
      </trkpt>
      <trkpt lat="42.11103" lon="21.65198">
        <ele>516.880972</ele>
        <time>2022-04-13T09:33:22.301Z</time>
      </trkpt>
      <trkpt lat="42.11097" lon="21.65189">
        <ele>516.942378</ele>
        <time>2022-04-13T09:33:26.290Z</time>
      </trkpt>
      <trkpt lat="42.11091" lon="21.6518">
        <ele>517.000141</ele>
        <time>2022-04-13T09:33:30.315Z</time>
      </trkpt>
      <trkpt lat="42.11085" lon="21.6517">
        <ele>517.059621</ele>
        <time>2022-04-13T09:33:34.318Z</time>
      </trkpt>
      <trkpt lat="42.11078" lon="21.65159">
        <ele>517.128381</ele>
        <time>2022-04-13T09:33:39.307Z</time>
      </trkpt>
      <trkpt lat="42.11072" lon="21.6515">
        <ele>517.287782</ele>
        <time>2022-04-13T09:33:43.307Z</time>
      </trkpt>
      <trkpt lat="42.11065" lon="21.6514">
        <ele>517.539309</ele>
        <time>2022-04-13T09:33:47.314Z</time>
      </trkpt>
      <trkpt lat="42.11058" lon="21.65131">
        <ele>517.790132</ele>
        <time>2022-04-13T09:33:51.311Z</time>
      </trkpt>
      <trkpt lat="42.11051" lon="21.65121">
        <ele>518.044414</ele>
        <time>2022-04-13T09:33:55.306Z</time>
      </trkpt>
      <trkpt lat="42.11044" lon="21.65111">
        <ele>518.300665</ele>
        <time>2022-04-13T09:33:59.315Z</time>
      </trkpt>
      <trkpt lat="42.11037" lon="21.65101">
        <ele>518.562503</ele>
        <time>2022-04-13T09:34:03.306Z</time>
      </trkpt>
      <trkpt lat="42.1103" lon="21.65092">
        <ele>518.809526</ele>
        <time>2022-04-13T09:34:07.310Z</time>
      </trkpt>
      <trkpt lat="42.11024" lon="21.65082">
        <ele>519.05655</ele>
        <time>2022-04-13T09:34:11.380Z</time>
      </trkpt>
      <trkpt lat="42.11018" lon="21.65073">
        <ele>519.291166</ele>
        <time>2022-04-13T09:34:15.304Z</time>
      </trkpt>
      <trkpt lat="42.11011" lon="21.65064">
        <ele>519.534597</ele>
        <time>2022-04-13T09:34:19.310Z</time>
      </trkpt>
      <trkpt lat="42.11005" lon="21.65055">
        <ele>519.770401</ele>
        <time>2022-04-13T09:34:23.303Z</time>
      </trkpt>
      <trkpt lat="42.10998" lon="21.65046">
        <ele>520.007341</ele>
        <time>2022-04-13T09:34:27.300Z</time>
      </trkpt>
      <trkpt lat="42.10993" lon="21.65036">
        <ele>520.244819</ele>
        <time>2022-04-13T09:34:31.306Z</time>
      </trkpt>
      <trkpt lat="42.10986" lon="21.65027">
        <ele>520.48244</ele>
        <time>2022-04-13T09:34:35.296Z</time>
      </trkpt>
      <trkpt lat="42.1098" lon="21.65018">
        <ele>520.728101</ele>
        <time>2022-04-13T09:34:39.320Z</time>
      </trkpt>
      <trkpt lat="42.10972" lon="21.65008">
        <ele>520.99757</ele>
        <time>2022-04-13T09:34:43.343Z</time>
      </trkpt>
      <trkpt lat="42.10964" lon="21.64997">
        <ele>521.284987</ele>
        <time>2022-04-13T09:34:47.288Z</time>
      </trkpt>
      <trkpt lat="42.10958" lon="21.64987">
        <ele>521.515053</ele>
        <time>2022-04-13T09:34:50.304Z</time>
      </trkpt>
      <trkpt lat="42.10951" lon="21.64975">
        <ele>521.748573</ele>
        <time>2022-04-13T09:34:54.293Z</time>
      </trkpt>
      <trkpt lat="42.10943" lon="21.64964">
        <ele>521.747434</ele>
        <time>2022-04-13T09:34:58.296Z</time>
      </trkpt>
      <trkpt lat="42.10935" lon="21.64953">
        <ele>521.746281</ele>
        <time>2022-04-13T09:35:02.346Z</time>
      </trkpt>
      <trkpt lat="42.10927" lon="21.64942">
        <ele>521.745188</ele>
        <time>2022-04-13T09:35:06.297Z</time>
      </trkpt>
      <trkpt lat="42.10918" lon="21.64933">
        <ele>521.744105</ele>
        <time>2022-04-13T09:35:10.321Z</time>
      </trkpt>
      <trkpt lat="42.10909" lon="21.64926">
        <ele>521.743007</ele>
        <time>2022-04-13T09:35:14.309Z</time>
      </trkpt>
      <trkpt lat="42.109" lon="21.64916">
        <ele>521.741888</ele>
        <time>2022-04-13T09:35:18.307Z</time>
      </trkpt>
      <trkpt lat="42.10894" lon="21.64904">
        <ele>521.740753</ele>
        <time>2022-04-13T09:35:22.315Z</time>
      </trkpt>
      <trkpt lat="42.10888" lon="21.64893">
        <ele>521.739842</ele>
        <time>2022-04-13T09:35:25.305Z</time>
      </trkpt>
      <trkpt lat="42.10882" lon="21.64884">
        <ele>521.738941</ele>
        <time>2022-04-13T09:35:28.323Z</time>
      </trkpt>
      <trkpt lat="42.10874" lon="21.64874">
        <ele>521.737861</ele>
        <time>2022-04-13T09:35:32.298Z</time>
      </trkpt>
      <trkpt lat="42.10868" lon="21.64865">
        <ele>521.736956</ele>
        <time>2022-04-13T09:35:35.340Z</time>
      </trkpt>
      <trkpt lat="42.1086" lon="21.64854">
        <ele>521.735786</ele>
        <time>2022-04-13T09:35:39.295Z</time>
      </trkpt>
      <trkpt lat="42.10853" lon="21.64845">
        <ele>521.734892</ele>
        <time>2022-04-13T09:35:42.321Z</time>
      </trkpt>
      <trkpt lat="42.10845" lon="21.64834">
        <ele>521.733719</ele>
        <time>2022-04-13T09:35:46.346Z</time>
      </trkpt>
      <trkpt lat="42.10837" lon="21.64823">
        <ele>521.732564</ele>
        <time>2022-04-13T09:35:50.311Z</time>
      </trkpt>
      <trkpt lat="42.10828" lon="21.64814">
        <ele>521.731459</ele>
        <time>2022-04-13T09:35:54.309Z</time>
      </trkpt>
      <trkpt lat="42.1082" lon="21.64803">
        <ele>521.931721</ele>
        <time>2022-04-13T09:35:58.344Z</time>
      </trkpt>
      <trkpt lat="42.10812" lon="21.64791">
        <ele>522.252134</ele>
        <time>2022-04-13T09:36:02.313Z</time>
      </trkpt>
      <trkpt lat="42.10805" lon="21.64779">
        <ele>522.571907</ele>
        <time>2022-04-13T09:36:06.315Z</time>
      </trkpt>
      <trkpt lat="42.10797" lon="21.64769">
        <ele>522.871442</ele>
        <time>2022-04-13T09:36:10.312Z</time>
      </trkpt>
      <trkpt lat="42.1079" lon="21.64759">
        <ele>523.176721</ele>
        <time>2022-04-13T09:36:14.338Z</time>
      </trkpt>
      <trkpt lat="42.10782" lon="21.64748">
        <ele>523.486542</ele>
        <time>2022-04-13T09:36:18.300Z</time>
      </trkpt>
      <trkpt lat="42.10775" lon="21.64737">
        <ele>523.790695</ele>
        <time>2022-04-13T09:36:22.291Z</time>
      </trkpt>
      <trkpt lat="42.10768" lon="21.64727">
        <ele>524.071218</ele>
        <time>2022-04-13T09:36:26.303Z</time>
      </trkpt>
      <trkpt lat="42.10761" lon="21.64717">
        <ele>524.371664</ele>
        <time>2022-04-13T09:36:30.317Z</time>
      </trkpt>
      <trkpt lat="42.10754" lon="21.64706">
        <ele>524.671978</ele>
        <time>2022-04-13T09:36:34.320Z</time>
      </trkpt>
      <trkpt lat="42.10746" lon="21.64695">
        <ele>524.992542</ele>
        <time>2022-04-13T09:36:38.324Z</time>
      </trkpt>
      <trkpt lat="42.1074" lon="21.64686">
        <ele>525.246595</ele>
        <time>2022-04-13T09:36:41.306Z</time>
      </trkpt>
      <trkpt lat="42.10733" lon="21.64677">
        <ele>525.511361</ele>
        <time>2022-04-13T09:36:44.308Z</time>
      </trkpt>
      <trkpt lat="42.10726" lon="21.64667">
        <ele>525.792389</ele>
        <time>2022-04-13T09:36:47.342Z</time>
      </trkpt>
      <trkpt lat="42.10719" lon="21.64656">
        <ele>526.099188</ele>
        <time>2022-04-13T09:36:50.315Z</time>
      </trkpt>
      <trkpt lat="42.10712" lon="21.64644">
        <ele>526.410579</ele>
        <time>2022-04-13T09:36:53.308Z</time>
      </trkpt>
      <trkpt lat="42.10705" lon="21.64633">
        <ele>526.709196</ele>
        <time>2022-04-13T09:36:56.312Z</time>
      </trkpt>
      <trkpt lat="42.10699" lon="21.64622">
        <ele>526.827774</ele>
        <time>2022-04-13T09:36:59.319Z</time>
      </trkpt>
      <trkpt lat="42.10693" lon="21.6461">
        <ele>526.889028</ele>
        <time>2022-04-13T09:37:02.320Z</time>
      </trkpt>
      <trkpt lat="42.10686" lon="21.64599">
        <ele>526.948921</ele>
        <time>2022-04-13T09:37:05.296Z</time>
      </trkpt>
      <trkpt lat="42.1068" lon="21.64587">
        <ele>527.008876</ele>
        <time>2022-04-13T09:37:08.319Z</time>
      </trkpt>
      <trkpt lat="42.10674" lon="21.64575">
        <ele>527.070816</ele>
        <time>2022-04-13T09:37:11.329Z</time>
      </trkpt>
      <trkpt lat="42.10668" lon="21.64563">
        <ele>527.133445</ele>
        <time>2022-04-13T09:37:14.352Z</time>
      </trkpt>
      <trkpt lat="42.10662" lon="21.64551">
        <ele>527.194713</ele>
        <time>2022-04-13T09:37:17.297Z</time>
      </trkpt>
      <trkpt lat="42.10656" lon="21.64539">
        <ele>527.254002</ele>
        <time>2022-04-13T09:37:20.288Z</time>
      </trkpt>
      <trkpt lat="42.1065" lon="21.64528">
        <ele>527.313994</ele>
        <time>2022-04-13T09:37:23.309Z</time>
      </trkpt>
      <trkpt lat="42.10645" lon="21.64515">
        <ele>527.375669</ele>
        <time>2022-04-13T09:37:26.343Z</time>
      </trkpt>
      <trkpt lat="42.10639" lon="21.64502">
        <ele>527.438505</ele>
        <time>2022-04-13T09:37:29.326Z</time>
      </trkpt>
      <trkpt lat="42.10632" lon="21.6449">
        <ele>527.502525</ele>
        <time>2022-04-13T09:37:32.301Z</time>
      </trkpt>
      <trkpt lat="42.10626" lon="21.64477">
        <ele>527.568873</ele>
        <time>2022-04-13T09:37:35.293Z</time>
      </trkpt>
      <trkpt lat="42.10619" lon="21.64463">
        <ele>527.638253</ele>
        <time>2022-04-13T09:37:38.295Z</time>
      </trkpt>
      <trkpt lat="42.10612" lon="21.6445">
        <ele>527.705934</ele>
        <time>2022-04-13T09:37:41.304Z</time>
      </trkpt>
      <trkpt lat="42.10605" lon="21.64437">
        <ele>527.773991</ele>
        <time>2022-04-13T09:37:44.307Z</time>
      </trkpt>
      <trkpt lat="42.10598" lon="21.64423">
        <ele>527.756974</ele>
        <time>2022-04-13T09:37:47.316Z</time>
      </trkpt>
      <trkpt lat="42.10591" lon="21.6441">
        <ele>527.673758</ele>
        <time>2022-04-13T09:37:50.316Z</time>
      </trkpt>
      <trkpt lat="42.10585" lon="21.64397">
        <ele>527.591508</ele>
        <time>2022-04-13T09:37:53.298Z</time>
      </trkpt>
      <trkpt lat="42.10578" lon="21.64384">
        <ele>527.509324</ele>
        <time>2022-04-13T09:37:56.315Z</time>
      </trkpt>
      <trkpt lat="42.10571" lon="21.64371">
        <ele>527.426704</ele>
        <time>2022-04-13T09:37:59.352Z</time>
      </trkpt>
      <trkpt lat="42.10564" lon="21.64359">
        <ele>527.347021</ele>
        <time>2022-04-13T09:38:02.316Z</time>
      </trkpt>
      <trkpt lat="42.10557" lon="21.64347">
        <ele>527.269821</ele>
        <time>2022-04-13T09:38:05.291Z</time>
      </trkpt>
      <trkpt lat="42.1055" lon="21.64336">
        <ele>527.194939</ele>
        <time>2022-04-13T09:38:08.324Z</time>
      </trkpt>
      <trkpt lat="42.10543" lon="21.64326">
        <ele>527.120078</ele>
        <time>2022-04-13T09:38:11.315Z</time>
      </trkpt>
      <trkpt lat="42.10537" lon="21.64315">
        <ele>527.047075</ele>
        <time>2022-04-13T09:38:14.313Z</time>
      </trkpt>
      <trkpt lat="42.10531" lon="21.64303">
        <ele>526.975302</ele>
        <time>2022-04-13T09:38:17.326Z</time>
      </trkpt>
      <trkpt lat="42.10524" lon="21.64292">
        <ele>526.902709</ele>
        <time>2022-04-13T09:38:20.324Z</time>
      </trkpt>
      <trkpt lat="42.10517" lon="21.64281">
        <ele>526.824668</ele>
        <time>2022-04-13T09:38:23.305Z</time>
      </trkpt>
      <trkpt lat="42.10511" lon="21.64269">
        <ele>526.74744</ele>
        <time>2022-04-13T09:38:26.312Z</time>
      </trkpt>
      <trkpt lat="42.10503" lon="21.64259">
        <ele>526.676662</ele>
        <time>2022-04-13T09:38:29.315Z</time>
      </trkpt>
      <trkpt lat="42.10497" lon="21.64248">
        <ele>526.604866</ele>
        <time>2022-04-13T09:38:32.358Z</time>
      </trkpt>
      <trkpt lat="42.10491" lon="21.64237">
        <ele>526.548565</ele>
        <time>2022-04-13T09:38:35.320Z</time>
      </trkpt>
      <trkpt lat="42.10485" lon="21.64227">
        <ele>526.563527</ele>
        <time>2022-04-13T09:38:38.313Z</time>
      </trkpt>
      <trkpt lat="42.10478" lon="21.64217">
        <ele>526.578531</ele>
        <time>2022-04-13T09:38:41.294Z</time>
      </trkpt>
      <trkpt lat="42.10471" lon="21.64207">
        <ele>526.593562</ele>
        <time>2022-04-13T09:38:44.306Z</time>
      </trkpt>
      <trkpt lat="42.10465" lon="21.64197">
        <ele>526.609192</ele>
        <time>2022-04-13T09:38:47.315Z</time>
      </trkpt>
      <trkpt lat="42.10458" lon="21.64187">
        <ele>526.624874</ele>
        <time>2022-04-13T09:38:50.300Z</time>
      </trkpt>
      <trkpt lat="42.10451" lon="21.64177">
        <ele>526.640183</ele>
        <time>2022-04-13T09:38:53.298Z</time>
      </trkpt>
      <trkpt lat="42.10444" lon="21.64168">
        <ele>526.655232</ele>
        <time>2022-04-13T09:38:56.318Z</time>
      </trkpt>
      <trkpt lat="42.10437" lon="21.64158">
        <ele>526.670451</ele>
        <time>2022-04-13T09:38:59.326Z</time>
      </trkpt>
      <trkpt lat="42.1043" lon="21.6415">
        <ele>526.684633</ele>
        <time>2022-04-13T09:39:02.301Z</time>
      </trkpt>
      <trkpt lat="42.10422" lon="21.64142">
        <ele>526.699003</ele>
        <time>2022-04-13T09:39:05.288Z</time>
      </trkpt>
      <trkpt lat="42.10415" lon="21.64133">
        <ele>526.713941</ele>
        <time>2022-04-13T09:39:08.321Z</time>
      </trkpt>
      <trkpt lat="42.10408" lon="21.64124">
        <ele>526.729291</ele>
        <time>2022-04-13T09:39:11.340Z</time>
      </trkpt>
      <trkpt lat="42.104" lon="21.64115">
        <ele>526.744189</ele>
        <time>2022-04-13T09:39:14.318Z</time>
      </trkpt>
      <trkpt lat="42.10393" lon="21.64107">
        <ele>526.75879</ele>
        <time>2022-04-13T09:39:17.349Z</time>
      </trkpt>
      <trkpt lat="42.10386" lon="21.64099">
        <ele>526.772913</ele>
        <time>2022-04-13T09:39:20.291Z</time>
      </trkpt>
      <trkpt lat="42.10377" lon="21.64088">
        <ele>526.790187</ele>
        <time>2022-04-13T09:39:24.302Z</time>
      </trkpt>
      <trkpt lat="42.10369" lon="21.64078">
        <ele>526.807688</ele>
        <time>2022-04-13T09:39:28.353Z</time>
      </trkpt>
      <trkpt lat="42.10362" lon="21.6407">
        <ele>526.818851</ele>
        <time>2022-04-13T09:39:31.293Z</time>
      </trkpt>
      <trkpt lat="42.10355" lon="21.64061">
        <ele>526.815587</ele>
        <time>2022-04-13T09:39:34.305Z</time>
      </trkpt>
      <trkpt lat="42.10348" lon="21.64053">
        <ele>526.812359</ele>
        <time>2022-04-13T09:39:37.305Z</time>
      </trkpt>
      <trkpt lat="42.10339" lon="21.64043">
        <ele>526.808114</ele>
        <time>2022-04-13T09:39:41.322Z</time>
      </trkpt>
      <trkpt lat="42.10333" lon="21.64035">
        <ele>526.804886</ele>
        <time>2022-04-13T09:39:44.307Z</time>
      </trkpt>
      <trkpt lat="42.10324" lon="21.64024">
        <ele>526.800674</ele>
        <time>2022-04-13T09:39:48.312Z</time>
      </trkpt>
      <trkpt lat="42.10314" lon="21.64014">
        <ele>526.796359</ele>
        <time>2022-04-13T09:39:52.298Z</time>
      </trkpt>
      <trkpt lat="42.10307" lon="21.64006">
        <ele>526.793041</ele>
        <time>2022-04-13T09:39:55.316Z</time>
      </trkpt>
      <trkpt lat="42.103" lon="21.63998">
        <ele>526.789794</ele>
        <time>2022-04-13T09:39:58.362Z</time>
      </trkpt>
      <trkpt lat="42.10291" lon="21.63988">
        <ele>526.785716</ele>
        <time>2022-04-13T09:40:02.341Z</time>
      </trkpt>
      <trkpt lat="42.10282" lon="21.63978">
        <ele>526.781545</ele>
        <time>2022-04-13T09:40:06.322Z</time>
      </trkpt>
      <trkpt lat="42.10275" lon="21.6397">
        <ele>526.778271</ele>
        <time>2022-04-13T09:40:09.303Z</time>
      </trkpt>
      <trkpt lat="42.10266" lon="21.63959">
        <ele>526.773964</ele>
        <time>2022-04-13T09:40:13.296Z</time>
      </trkpt>
      <trkpt lat="42.10259" lon="21.63952">
        <ele>526.770661</ele>
        <time>2022-04-13T09:40:16.310Z</time>
      </trkpt>
      <trkpt lat="42.10251" lon="21.63944">
        <ele>526.767261</ele>
        <time>2022-04-13T09:40:19.348Z</time>
      </trkpt>
      <trkpt lat="42.10244" lon="21.63937">
        <ele>526.763977</ele>
        <time>2022-04-13T09:40:22.300Z</time>
      </trkpt>
      <trkpt lat="42.10235" lon="21.63927">
        <ele>526.759878</ele>
        <time>2022-04-13T09:40:26.323Z</time>
      </trkpt>
      <trkpt lat="42.10226" lon="21.63917">
        <ele>526.755731</ele>
        <time>2022-04-13T09:40:30.335Z</time>
      </trkpt>
      <trkpt lat="42.10218" lon="21.6391">
        <ele>526.833476</ele>
        <time>2022-04-13T09:40:33.306Z</time>
      </trkpt>
      <trkpt lat="42.10209" lon="21.63901">
        <ele>526.950561</ele>
        <time>2022-04-13T09:40:37.330Z</time>
      </trkpt>
      <trkpt lat="42.10201" lon="21.63894">
        <ele>527.039441</ele>
        <time>2022-04-13T09:40:40.312Z</time>
      </trkpt>
      <trkpt lat="42.10193" lon="21.63886">
        <ele>527.132839</ele>
        <time>2022-04-13T09:40:43.354Z</time>
      </trkpt>
      <trkpt lat="42.10186" lon="21.63879">
        <ele>527.225784</ele>
        <time>2022-04-13T09:40:46.319Z</time>
      </trkpt>
      <trkpt lat="42.10176" lon="21.6387">
        <ele>527.342781</ele>
        <time>2022-04-13T09:40:50.312Z</time>
      </trkpt>
      <trkpt lat="42.10166" lon="21.63861">
        <ele>527.45855</ele>
        <time>2022-04-13T09:40:54.327Z</time>
      </trkpt>
      <trkpt lat="42.10158" lon="21.63855">
        <ele>527.547039</ele>
        <time>2022-04-13T09:40:57.309Z</time>
      </trkpt>
      <trkpt lat="42.10149" lon="21.63846">
        <ele>527.66487</ele>
        <time>2022-04-13T09:41:01.321Z</time>
      </trkpt>
      <trkpt lat="42.10139" lon="21.63837">
        <ele>527.78228</ele>
        <time>2022-04-13T09:41:05.302Z</time>
      </trkpt>
      <trkpt lat="42.10131" lon="21.6383">
        <ele>527.872367</ele>
        <time>2022-04-13T09:41:08.321Z</time>
      </trkpt>
      <trkpt lat="42.10122" lon="21.63822">
        <ele>527.979982</ele>
        <time>2022-04-13T09:41:12.297Z</time>
      </trkpt>
      <trkpt lat="42.10112" lon="21.63813">
        <ele>528.091674</ele>
        <time>2022-04-13T09:41:16.329Z</time>
      </trkpt>
      <trkpt lat="42.10102" lon="21.63805">
        <ele>528.208736</ele>
        <time>2022-04-13T09:41:20.327Z</time>
      </trkpt>
      <trkpt lat="42.10094" lon="21.63798">
        <ele>528.30416</ele>
        <time>2022-04-13T09:41:23.314Z</time>
      </trkpt>
      <trkpt lat="42.10086" lon="21.63791">
        <ele>528.39793</ele>
        <time>2022-04-13T09:41:26.305Z</time>
      </trkpt>
      <trkpt lat="42.10078" lon="21.63783">
        <ele>528.492921</ele>
        <time>2022-04-13T09:41:29.305Z</time>
      </trkpt>
      <trkpt lat="42.1007" lon="21.63776">
        <ele>528.682192</ele>
        <time>2022-04-13T09:41:32.378Z</time>
      </trkpt>
      <trkpt lat="42.10062" lon="21.63769">
        <ele>528.912426</ele>
        <time>2022-04-13T09:41:35.291Z</time>
      </trkpt>
      <trkpt lat="42.10054" lon="21.63762">
        <ele>529.14073</ele>
        <time>2022-04-13T09:41:38.311Z</time>
      </trkpt>
      <trkpt lat="42.10045" lon="21.63755">
        <ele>529.372515</ele>
        <time>2022-04-13T09:41:41.318Z</time>
      </trkpt>
      <trkpt lat="42.10036" lon="21.63746">
        <ele>529.646137</ele>
        <time>2022-04-13T09:41:45.294Z</time>
      </trkpt>
      <trkpt lat="42.10027" lon="21.63737">
        <ele>529.908746</ele>
        <time>2022-04-13T09:41:49.314Z</time>
      </trkpt>
      <trkpt lat="42.10019" lon="21.6373">
        <ele>530.126357</ele>
        <time>2022-04-13T09:41:52.310Z</time>
      </trkpt>
      <trkpt lat="42.10011" lon="21.63724">
        <ele>530.349835</ele>
        <time>2022-04-13T09:41:55.299Z</time>
      </trkpt>
      <trkpt lat="42.10003" lon="21.63717">
        <ele>530.572579</ele>
        <time>2022-04-13T09:41:58.328Z</time>
      </trkpt>
      <trkpt lat="42.09995" lon="21.6371">
        <ele>530.796057</ele>
        <time>2022-04-13T09:42:01.316Z</time>
      </trkpt>
      <trkpt lat="42.09987" lon="21.63703">
        <ele>531.021438</ele>
        <time>2022-04-13T09:42:04.301Z</time>
      </trkpt>
      <trkpt lat="42.09977" lon="21.63694">
        <ele>531.307578</ele>
        <time>2022-04-13T09:42:08.317Z</time>
      </trkpt>
      <trkpt lat="42.0997" lon="21.63687">
        <ele>531.523191</ele>
        <time>2022-04-13T09:42:11.296Z</time>
      </trkpt>
      <trkpt lat="42.09961" lon="21.63678">
        <ele>531.783152</ele>
        <time>2022-04-13T09:42:15.318Z</time>
      </trkpt>
      <trkpt lat="42.09953" lon="21.63671">
        <ele>531.995767</ele>
        <time>2022-04-13T09:42:18.330Z</time>
      </trkpt>
      <trkpt lat="42.09946" lon="21.63664">
        <ele>532.217204</ele>
        <time>2022-04-13T09:42:21.316Z</time>
      </trkpt>
      <trkpt lat="42.09938" lon="21.63657">
        <ele>532.437717</ele>
        <time>2022-04-13T09:42:24.296Z</time>
      </trkpt>
      <trkpt lat="42.0993" lon="21.6365">
        <ele>532.671069</ele>
        <time>2022-04-13T09:42:27.316Z</time>
      </trkpt>
      <trkpt lat="42.09922" lon="21.63643">
        <ele>532.975043</ele>
        <time>2022-04-13T09:42:30.311Z</time>
      </trkpt>
      <trkpt lat="42.09914" lon="21.63636">
        <ele>533.329538</ele>
        <time>2022-04-13T09:42:33.302Z</time>
      </trkpt>
      <trkpt lat="42.09905" lon="21.6363">
        <ele>533.690606</ele>
        <time>2022-04-13T09:42:36.321Z</time>
      </trkpt>
      <trkpt lat="42.09895" lon="21.63621">
        <ele>534.145638</ele>
        <time>2022-04-13T09:42:40.324Z</time>
      </trkpt>
      <trkpt lat="42.09886" lon="21.63612">
        <ele>534.567526</ele>
        <time>2022-04-13T09:42:44.332Z</time>
      </trkpt>
      <trkpt lat="42.09876" lon="21.63603">
        <ele>535.025722</ele>
        <time>2022-04-13T09:42:48.306Z</time>
      </trkpt>
      <trkpt lat="42.09867" lon="21.63595">
        <ele>535.461859</ele>
        <time>2022-04-13T09:42:52.309Z</time>
      </trkpt>
      <trkpt lat="42.09858" lon="21.63587">
        <ele>535.861651</ele>
        <time>2022-04-13T09:42:56.324Z</time>
      </trkpt>
      <trkpt lat="42.09849" lon="21.6358">
        <ele>536.277552</ele>
        <time>2022-04-13T09:43:00.341Z</time>
      </trkpt>
      <trkpt lat="42.0984" lon="21.63571">
        <ele>536.687006</ele>
        <time>2022-04-13T09:43:04.342Z</time>
      </trkpt>
      <trkpt lat="42.09831" lon="21.63563">
        <ele>537.099666</ele>
        <time>2022-04-13T09:43:08.313Z</time>
      </trkpt>
      <trkpt lat="42.09822" lon="21.63556">
        <ele>537.501755</ele>
        <time>2022-04-13T09:43:12.312Z</time>
      </trkpt>
      <trkpt lat="42.09813" lon="21.63549">
        <ele>537.88605</ele>
        <time>2022-04-13T09:43:16.333Z</time>
      </trkpt>
      <trkpt lat="42.09804" lon="21.63543">
        <ele>538.282669</ele>
        <time>2022-04-13T09:43:20.304Z</time>
      </trkpt>
      <trkpt lat="42.09794" lon="21.63536">
        <ele>538.69545</ele>
        <time>2022-04-13T09:43:24.306Z</time>
      </trkpt>
      <trkpt lat="42.09785" lon="21.63531">
        <ele>539.073175</ele>
        <time>2022-04-13T09:43:28.358Z</time>
      </trkpt>
      <trkpt lat="42.09776" lon="21.63524">
        <ele>539.471952</ele>
        <time>2022-04-13T09:43:32.311Z</time>
      </trkpt>
      <trkpt lat="42.09767" lon="21.63518">
        <ele>539.755892</ele>
        <time>2022-04-13T09:43:36.349Z</time>
      </trkpt>
      <trkpt lat="42.09758" lon="21.63513">
        <ele>539.970547</ele>
        <time>2022-04-13T09:43:40.338Z</time>
      </trkpt>
      <trkpt lat="42.09749" lon="21.63508">
        <ele>540.187926</ele>
        <time>2022-04-13T09:43:44.307Z</time>
      </trkpt>
      <trkpt lat="42.09739" lon="21.63502">
        <ele>540.433427</ele>
        <time>2022-04-13T09:43:48.305Z</time>
      </trkpt>
      <trkpt lat="42.09728" lon="21.63496">
        <ele>540.689575</ele>
        <time>2022-04-13T09:43:52.323Z</time>
      </trkpt>
      <trkpt lat="42.09718" lon="21.6349">
        <ele>540.915079</ele>
        <time>2022-04-13T09:43:56.322Z</time>
      </trkpt>
      <trkpt lat="42.09709" lon="21.63485">
        <ele>541.139172</ele>
        <time>2022-04-13T09:44:00.294Z</time>
      </trkpt>
      <trkpt lat="42.097" lon="21.63481">
        <ele>541.344705</ele>
        <time>2022-04-13T09:44:04.306Z</time>
      </trkpt>
      <trkpt lat="42.09692" lon="21.63475">
        <ele>541.547324</ele>
        <time>2022-04-13T09:44:08.315Z</time>
      </trkpt>
      <trkpt lat="42.09683" lon="21.63471">
        <ele>541.749383</ele>
        <time>2022-04-13T09:44:12.340Z</time>
      </trkpt>
      <trkpt lat="42.09674" lon="21.63465">
        <ele>541.963373</ele>
        <time>2022-04-13T09:44:16.314Z</time>
      </trkpt>
      <trkpt lat="42.09665" lon="21.6346">
        <ele>542.186062</ele>
        <time>2022-04-13T09:44:20.311Z</time>
      </trkpt>
      <trkpt lat="42.09655" lon="21.63454">
        <ele>542.420337</ele>
        <time>2022-04-13T09:44:24.362Z</time>
      </trkpt>
      <trkpt lat="42.09646" lon="21.63449">
        <ele>542.642425</ele>
        <time>2022-04-13T09:44:28.293Z</time>
      </trkpt>
      <trkpt lat="42.09637" lon="21.63444">
        <ele>542.858805</ele>
        <time>2022-04-13T09:44:32.288Z</time>
      </trkpt>
      <trkpt lat="42.09628" lon="21.6344">
        <ele>543.059977</ele>
        <time>2022-04-13T09:44:36.315Z</time>
      </trkpt>
      <trkpt lat="42.09619" lon="21.63435">
        <ele>543.275222</ele>
        <time>2022-04-13T09:44:40.314Z</time>
      </trkpt>
      <trkpt lat="42.0961" lon="21.63429">
        <ele>543.508801</ele>
        <time>2022-04-13T09:44:44.307Z</time>
      </trkpt>
      <trkpt lat="42.096" lon="21.63422">
        <ele>543.476856</ele>
        <time>2022-04-13T09:44:49.306Z</time>
      </trkpt>
      <trkpt lat="42.09591" lon="21.63416">
        <ele>543.349683</ele>
        <time>2022-04-13T09:44:52.352Z</time>
      </trkpt>
      <trkpt lat="42.09581" lon="21.6341">
        <ele>543.20329</ele>
        <time>2022-04-13T09:44:56.319Z</time>
      </trkpt>
      <trkpt lat="42.09571" lon="21.63405">
        <ele>543.062258</ele>
        <time>2022-04-13T09:45:00.303Z</time>
      </trkpt>
      <trkpt lat="42.09562" lon="21.634">
        <ele>542.933359</ele>
        <time>2022-04-13T09:45:04.304Z</time>
      </trkpt>
      <trkpt lat="42.09552" lon="21.63395">
        <ele>542.788927</ele>
        <time>2022-04-13T09:45:08.310Z</time>
      </trkpt>
      <trkpt lat="42.09543" lon="21.63389">
        <ele>542.668604</ele>
        <time>2022-04-13T09:45:11.318Z</time>
      </trkpt>
      <trkpt lat="42.09532" lon="21.63384">
        <ele>542.514516</ele>
        <time>2022-04-13T09:45:15.292Z</time>
      </trkpt>
      <trkpt lat="42.09523" lon="21.63379">
        <ele>542.387202</ele>
        <time>2022-04-13T09:45:18.321Z</time>
      </trkpt>
      <trkpt lat="42.09514" lon="21.63374">
        <ele>542.256048</ele>
        <time>2022-04-13T09:45:21.304Z</time>
      </trkpt>
      <trkpt lat="42.09505" lon="21.63369">
        <ele>542.12005</ele>
        <time>2022-04-13T09:45:24.323Z</time>
      </trkpt>
      <trkpt lat="42.09496" lon="21.63363">
        <ele>541.990497</ele>
        <time>2022-04-13T09:45:27.318Z</time>
      </trkpt>
      <trkpt lat="42.09485" lon="21.63358">
        <ele>541.846994</ele>
        <time>2022-04-13T09:45:30.316Z</time>
      </trkpt>
      <trkpt lat="42.09475" lon="21.63353">
        <ele>541.696682</ele>
        <time>2022-04-13T09:45:33.306Z</time>
      </trkpt>
      <trkpt lat="42.09464" lon="21.6335">
        <ele>541.545619</ele>
        <time>2022-04-13T09:45:36.313Z</time>
      </trkpt>
      <trkpt lat="42.09452" lon="21.63347">
        <ele>541.395874</ele>
        <time>2022-04-13T09:45:39.305Z</time>
      </trkpt>
      <trkpt lat="42.09441" lon="21.63347">
        <ele>541.241497</ele>
        <time>2022-04-13T09:45:42.290Z</time>
      </trkpt>
      <trkpt lat="42.09429" lon="21.63348">
        <ele>541.3786</ele>
        <time>2022-04-13T09:45:45.293Z</time>
      </trkpt>
      <trkpt lat="42.09417" lon="21.63347">
        <ele>541.581539</ele>
        <time>2022-04-13T09:45:48.302Z</time>
      </trkpt>
      <trkpt lat="42.09406" lon="21.63348">
        <ele>541.782741</ele>
        <time>2022-04-13T09:45:51.308Z</time>
      </trkpt>
      <trkpt lat="42.09394" lon="21.63347">
        <ele>541.985879</ele>
        <time>2022-04-13T09:45:54.360Z</time>
      </trkpt>
      <trkpt lat="42.09383" lon="21.63344">
        <ele>542.180248</ele>
        <time>2022-04-13T09:45:57.295Z</time>
      </trkpt>
      <trkpt lat="42.09371" lon="21.63338">
        <ele>542.397617</ele>
        <time>2022-04-13T09:46:00.330Z</time>
      </trkpt>
      <trkpt lat="42.0936" lon="21.63329">
        <ele>542.633749</ele>
        <time>2022-04-13T09:46:03.320Z</time>
      </trkpt>
      <trkpt lat="42.09354" lon="21.63319">
        <ele>542.794711</ele>
        <time>2022-04-13T09:46:05.302Z</time>
      </trkpt>
      <trkpt lat="42.09348" lon="21.63309">
        <ele>542.956312</ele>
        <time>2022-04-13T09:46:07.339Z</time>
      </trkpt>
      <trkpt lat="42.09343" lon="21.633">
        <ele>543.113758</ele>
        <time>2022-04-13T09:46:09.297Z</time>
      </trkpt>
      <trkpt lat="42.09335" lon="21.63287">
        <ele>543.330613</ele>
        <time>2022-04-13T09:46:12.320Z</time>
      </trkpt>
      <trkpt lat="42.09328" lon="21.63273">
        <ele>543.550582</ele>
        <time>2022-04-13T09:46:15.295Z</time>
      </trkpt>
      <trkpt lat="42.0932" lon="21.63259">
        <ele>543.775818</ele>
        <time>2022-04-13T09:46:18.316Z</time>
      </trkpt>
      <trkpt lat="42.09312" lon="21.63245">
        <ele>544.002054</ele>
        <time>2022-04-13T09:46:21.316Z</time>
      </trkpt>
      <trkpt lat="42.09304" lon="21.63231">
        <ele>544.23663</ele>
        <time>2022-04-13T09:46:24.304Z</time>
      </trkpt>
      <trkpt lat="42.09296" lon="21.63217">
        <ele>544.473134</ele>
        <time>2022-04-13T09:46:27.310Z</time>
      </trkpt>
      <trkpt lat="42.09289" lon="21.63202">
        <ele>544.723418</ele>
        <time>2022-04-13T09:46:30.312Z</time>
      </trkpt>
      <trkpt lat="42.09281" lon="21.63189">
        <ele>544.969324</ele>
        <time>2022-04-13T09:46:33.306Z</time>
      </trkpt>
      <trkpt lat="42.09274" lon="21.63176">
        <ele>545.185655</ele>
        <time>2022-04-13T09:46:36.317Z</time>
      </trkpt>
      <trkpt lat="42.09268" lon="21.63164">
        <ele>545.394165</ele>
        <time>2022-04-13T09:46:39.290Z</time>
      </trkpt>
      <trkpt lat="42.09262" lon="21.63153">
        <ele>545.588938</ele>
        <time>2022-04-13T09:46:42.311Z</time>
      </trkpt>
      <trkpt lat="42.09256" lon="21.63143">
        <ele>545.770122</ele>
        <time>2022-04-13T09:46:45.301Z</time>
      </trkpt>
      <trkpt lat="42.0925" lon="21.63133">
        <ele>545.946883</ele>
        <time>2022-04-13T09:46:48.299Z</time>
      </trkpt>
      <trkpt lat="42.09243" lon="21.63121">
        <ele>546.164312</ele>
        <time>2022-04-13T09:46:52.286Z</time>
      </trkpt>
      <trkpt lat="42.09236" lon="21.6311">
        <ele>546.37522</ele>
        <time>2022-04-13T09:46:56.326Z</time>
      </trkpt>
      <trkpt lat="42.09227" lon="21.631">
        <ele>546.588712</ele>
        <time>2022-04-13T09:47:00.307Z</time>
      </trkpt>
      <trkpt lat="42.09218" lon="21.63091">
        <ele>546.809384</ele>
        <time>2022-04-13T09:47:04.326Z</time>
      </trkpt>
      <trkpt lat="42.09207" lon="21.63082">
        <ele>547.03907</ele>
        <time>2022-04-13T09:47:08.303Z</time>
      </trkpt>
      <trkpt lat="42.09199" lon="21.63076">
        <ele>547.227635</ele>
        <time>2022-04-13T09:47:11.308Z</time>
      </trkpt>
      <trkpt lat="42.09189" lon="21.6307">
        <ele>547.427557</ele>
        <time>2022-04-13T09:47:14.319Z</time>
      </trkpt>
      <trkpt lat="42.09179" lon="21.63065">
        <ele>547.636916</ele>
        <time>2022-04-13T09:47:17.313Z</time>
      </trkpt>
      <trkpt lat="42.09168" lon="21.6306">
        <ele>547.694999</ele>
        <time>2022-04-13T09:47:20.324Z</time>
      </trkpt>
      <trkpt lat="42.09157" lon="21.63054">
        <ele>547.432094</ele>
        <time>2022-04-13T09:47:23.320Z</time>
      </trkpt>
      <trkpt lat="42.09145" lon="21.63049">
        <ele>547.163522</ele>
        <time>2022-04-13T09:47:26.302Z</time>
      </trkpt>
      <trkpt lat="42.09133" lon="21.63046">
        <ele>546.888112</ele>
        <time>2022-04-13T09:47:29.312Z</time>
      </trkpt>
      <trkpt lat="42.0912" lon="21.63042">
        <ele>546.610912</ele>
        <time>2022-04-13T09:47:32.300Z</time>
      </trkpt>
      <trkpt lat="42.09107" lon="21.63039">
        <ele>546.320301</ele>
        <time>2022-04-13T09:47:35.348Z</time>
      </trkpt>
      <trkpt lat="42.09098" lon="21.63036">
        <ele>546.124343</ele>
        <time>2022-04-13T09:47:37.308Z</time>
      </trkpt>
      <trkpt lat="42.09087" lon="21.63032">
        <ele>545.866244</ele>
        <time>2022-04-13T09:47:40.308Z</time>
      </trkpt>
      <trkpt lat="42.09075" lon="21.63029">
        <ele>545.601786</ele>
        <time>2022-04-13T09:47:43.324Z</time>
      </trkpt>
      <trkpt lat="42.09063" lon="21.63024">
        <ele>545.322106</ele>
        <time>2022-04-13T09:47:46.351Z</time>
      </trkpt>
      <trkpt lat="42.0905" lon="21.63021">
        <ele>545.040971</ele>
        <time>2022-04-13T09:47:49.307Z</time>
      </trkpt>
      <trkpt lat="42.09037" lon="21.63016">
        <ele>544.747838</ele>
        <time>2022-04-13T09:47:52.320Z</time>
      </trkpt>
      <trkpt lat="42.09027" lon="21.63013">
        <ele>544.532212</ele>
        <time>2022-04-13T09:47:54.324Z</time>
      </trkpt>
      <trkpt lat="42.09018" lon="21.63006">
        <ele>544.30974</ele>
        <time>2022-04-13T09:47:56.302Z</time>
      </trkpt>
      <trkpt lat="42.09009" lon="21.62996">
        <ele>544.057714</ele>
        <time>2022-04-13T09:47:58.317Z</time>
      </trkpt>
      <trkpt lat="42.09003" lon="21.62983">
        <ele>544.028921</ele>
        <time>2022-04-13T09:48:00.318Z</time>
      </trkpt>
      <trkpt lat="42.08997" lon="21.6297">
        <ele>544.750534</ele>
        <time>2022-04-13T09:48:02.313Z</time>
      </trkpt>
      <trkpt lat="42.0899" lon="21.62957">
        <ele>545.453208</ele>
        <time>2022-04-13T09:48:04.309Z</time>
      </trkpt>
      <trkpt lat="42.08983" lon="21.62945">
        <ele>546.163276</ele>
        <time>2022-04-13T09:48:06.320Z</time>
      </trkpt>
      <trkpt lat="42.08976" lon="21.62934">
        <ele>546.800439</ele>
        <time>2022-04-13T09:48:08.339Z</time>
      </trkpt>
      <trkpt lat="42.08971" lon="21.62924">
        <ele>547.357841</ele>
        <time>2022-04-13T09:48:10.292Z</time>
      </trkpt>
      <trkpt lat="42.08964" lon="21.62912">
        <ele>548.043059</ele>
        <time>2022-04-13T09:48:13.302Z</time>
      </trkpt>
      <trkpt lat="42.08956" lon="21.62901">
        <ele>548.733148</ele>
        <time>2022-04-13T09:48:16.309Z</time>
      </trkpt>
      <trkpt lat="42.0895" lon="21.62891">
        <ele>549.331836</ele>
        <time>2022-04-13T09:48:19.356Z</time>
      </trkpt>
      <trkpt lat="42.08943" lon="21.62881">
        <ele>549.937751</ele>
        <time>2022-04-13T09:48:23.326Z</time>
      </trkpt>
      <trkpt lat="42.08936" lon="21.62871">
        <ele>550.570961</ele>
        <time>2022-04-13T09:48:27.304Z</time>
      </trkpt>
      <trkpt lat="42.08929" lon="21.6286">
        <ele>551.227031</ele>
        <time>2022-04-13T09:48:31.319Z</time>
      </trkpt>
      <trkpt lat="42.08923" lon="21.62849">
        <ele>551.861331</ele>
        <time>2022-04-13T09:48:35.285Z</time>
      </trkpt>
      <trkpt lat="42.08916" lon="21.62839">
        <ele>552.434321</ele>
        <time>2022-04-13T09:48:39.310Z</time>
      </trkpt>
      <trkpt lat="42.08909" lon="21.62829">
        <ele>553.066016</ele>
        <time>2022-04-13T09:48:44.313Z</time>
      </trkpt>
      <trkpt lat="42.08902" lon="21.62819">
        <ele>553.727762</ele>
        <time>2022-04-13T09:48:49.316Z</time>
      </trkpt>
      <trkpt lat="42.08894" lon="21.62809">
        <ele>554.364173</ele>
        <time>2022-04-13T09:48:54.314Z</time>
      </trkpt>
      <trkpt lat="42.08887" lon="21.628">
        <ele>554.928989</ele>
        <time>2022-04-13T09:48:59.287Z</time>
      </trkpt>
      <trkpt lat="42.0888" lon="21.6279">
        <ele>555.393415</ele>
        <time>2022-04-13T09:49:04.309Z</time>
      </trkpt>
      <trkpt lat="42.08873" lon="21.6278">
        <ele>555.841678</ele>
        <time>2022-04-13T09:49:09.362Z</time>
      </trkpt>
      <trkpt lat="42.08867" lon="21.62769">
        <ele>556.286298</ele>
        <time>2022-04-13T09:49:14.311Z</time>
      </trkpt>
      <trkpt lat="42.08861" lon="21.6276">
        <ele>556.695325</ele>
        <time>2022-04-13T09:49:19.313Z</time>
      </trkpt>
      <trkpt lat="42.08855" lon="21.62751">
        <ele>557.114759</ele>
        <time>2022-04-13T09:49:24.302Z</time>
      </trkpt>
      <trkpt lat="42.08848" lon="21.6274">
        <ele>557.581811</ele>
        <time>2022-04-13T09:49:29.302Z</time>
      </trkpt>
      <trkpt lat="42.08842" lon="21.62731">
        <ele>558.002124</ele>
        <time>2022-04-13T09:49:34.316Z</time>
      </trkpt>
      <trkpt lat="42.08836" lon="21.62721">
        <ele>558.420508</ele>
        <time>2022-04-13T09:49:39.304Z</time>
      </trkpt>
      <trkpt lat="42.0883" lon="21.62709">
        <ele>558.897289</ele>
        <time>2022-04-13T09:49:44.293Z</time>
      </trkpt>
      <trkpt lat="42.08824" lon="21.62697">
        <ele>559.383248</ele>
        <time>2022-04-13T09:49:49.314Z</time>
      </trkpt>
      <trkpt lat="42.08818" lon="21.62685">
        <ele>559.858413</ele>
        <time>2022-04-13T09:49:54.314Z</time>
      </trkpt>
      <trkpt lat="42.08813" lon="21.62672">
        <ele>560.34279</ele>
        <time>2022-04-13T09:49:59.338Z</time>
      </trkpt>
      <trkpt lat="42.0881" lon="21.62659">
        <ele>560.78884</ele>
        <time>2022-04-13T09:50:03.300Z</time>
      </trkpt>
      <trkpt lat="42.08807" lon="21.62647">
        <ele>561.228944</ele>
        <time>2022-04-13T09:50:07.286Z</time>
      </trkpt>
      <trkpt lat="42.08803" lon="21.62634">
        <ele>561.682808</ele>
        <time>2022-04-13T09:50:11.279Z</time>
      </trkpt>
      <trkpt lat="42.088" lon="21.62619">
        <ele>562.199048</ele>
        <time>2022-04-13T09:50:15.273Z</time>
      </trkpt>
      <trkpt lat="42.08797" lon="21.62607">
        <ele>562.618869</ele>
        <time>2022-04-13T09:50:18.293Z</time>
      </trkpt>
      <trkpt lat="42.08794" lon="21.62595">
        <ele>562.867201</ele>
        <time>2022-04-13T09:50:21.301Z</time>
      </trkpt>
      <trkpt lat="42.08791" lon="21.62583">
        <ele>562.789599</ele>
        <time>2022-04-13T09:50:24.275Z</time>
      </trkpt>
      <trkpt lat="42.08788" lon="21.62571">
        <ele>562.710631</ele>
        <time>2022-04-13T09:50:27.277Z</time>
      </trkpt>
      <trkpt lat="42.08785" lon="21.62559">
        <ele>562.631843</ele>
        <time>2022-04-13T09:50:30.286Z</time>
      </trkpt>
      <trkpt lat="42.08782" lon="21.62547">
        <ele>562.551512</ele>
        <time>2022-04-13T09:50:33.280Z</time>
      </trkpt>
      <trkpt lat="42.0878" lon="21.62535">
        <ele>562.472724</ele>
        <time>2022-04-13T09:50:36.291Z</time>
      </trkpt>
      <trkpt lat="42.08776" lon="21.62519">
        <ele>562.372606</ele>
        <time>2022-04-13T09:50:40.290Z</time>
      </trkpt>
      <trkpt lat="42.08772" lon="21.62504">
        <ele>562.274608</ele>
        <time>2022-04-13T09:50:44.276Z</time>
      </trkpt>
      <trkpt lat="42.08769" lon="21.6249">
        <ele>562.179294</ele>
        <time>2022-04-13T09:50:48.282Z</time>
      </trkpt>
      <trkpt lat="42.08766" lon="21.62476">
        <ele>562.088114</ele>
        <time>2022-04-13T09:50:52.279Z</time>
      </trkpt>
      <trkpt lat="42.08763" lon="21.62461">
        <ele>561.997161</ele>
        <time>2022-04-13T09:50:56.285Z</time>
      </trkpt>
      <trkpt lat="42.08759" lon="21.62447">
        <ele>561.902116</ele>
        <time>2022-04-13T09:51:00.279Z</time>
      </trkpt>
      <trkpt lat="42.08756" lon="21.62432">
        <ele>561.805214</ele>
        <time>2022-04-13T09:51:04.282Z</time>
      </trkpt>
      <trkpt lat="42.08752" lon="21.62417">
        <ele>561.706718</ele>
        <time>2022-04-13T09:51:08.284Z</time>
      </trkpt>
      <trkpt lat="42.08749" lon="21.62402">
        <ele>561.610167</ele>
        <time>2022-04-13T09:51:12.278Z</time>
      </trkpt>
      <trkpt lat="42.08745" lon="21.62387">
        <ele>561.512255</ele>
        <time>2022-04-13T09:51:16.279Z</time>
      </trkpt>
      <trkpt lat="42.08742" lon="21.62373">
        <ele>561.422381</ele>
        <time>2022-04-13T09:51:20.287Z</time>
      </trkpt>
      <trkpt lat="42.08739" lon="21.6236">
        <ele>561.500014</ele>
        <time>2022-04-13T09:51:24.283Z</time>
      </trkpt>
      <trkpt lat="42.08735" lon="21.62346">
        <ele>561.697865</ele>
        <time>2022-04-13T09:51:28.279Z</time>
      </trkpt>
      <trkpt lat="42.08731" lon="21.62332">
        <ele>561.884619</ele>
        <time>2022-04-13T09:51:32.281Z</time>
      </trkpt>
      <trkpt lat="42.08728" lon="21.62318">
        <ele>562.074925</ele>
        <time>2022-04-13T09:51:36.287Z</time>
      </trkpt>
      <trkpt lat="42.08725" lon="21.62305">
        <ele>562.265968</ele>
        <time>2022-04-13T09:51:40.309Z</time>
      </trkpt>
      <trkpt lat="42.08721" lon="21.62291">
        <ele>562.460708</ele>
        <time>2022-04-13T09:51:44.295Z</time>
      </trkpt>
      <trkpt lat="42.08717" lon="21.62278">
        <ele>562.639432</ele>
        <time>2022-04-13T09:51:48.285Z</time>
      </trkpt>
      <trkpt lat="42.08714" lon="21.62265">
        <ele>562.823239</ele>
        <time>2022-04-13T09:51:52.286Z</time>
      </trkpt>
      <trkpt lat="42.08711" lon="21.62251">
        <ele>563.017336</ele>
        <time>2022-04-13T09:51:56.294Z</time>
      </trkpt>
      <trkpt lat="42.08708" lon="21.62236">
        <ele>563.212954</ele>
        <time>2022-04-13T09:52:00.279Z</time>
      </trkpt>
      <trkpt lat="42.08704" lon="21.62223">
        <ele>563.400373</ele>
        <time>2022-04-13T09:52:04.283Z</time>
      </trkpt>
      <trkpt lat="42.08701" lon="21.6221">
        <ele>563.580941</ele>
        <time>2022-04-13T09:52:08.279Z</time>
      </trkpt>
      <trkpt lat="42.08698" lon="21.62197">
        <ele>563.75749</ele>
        <time>2022-04-13T09:52:12.302Z</time>
      </trkpt>
      <trkpt lat="42.08695" lon="21.62182">
        <ele>563.959659</ele>
        <time>2022-04-13T09:52:16.288Z</time>
      </trkpt>
      <trkpt lat="42.08691" lon="21.62168">
        <ele>564.159334</ele>
        <time>2022-04-13T09:52:20.275Z</time>
      </trkpt>
      <trkpt lat="42.08688" lon="21.62154">
        <ele>564.351058</ele>
        <time>2022-04-13T09:52:24.284Z</time>
      </trkpt>
      <trkpt lat="42.08684" lon="21.62142">
        <ele>564.525467</ele>
        <time>2022-04-13T09:52:28.282Z</time>
      </trkpt>
      <trkpt lat="42.08682" lon="21.62129">
        <ele>564.528257</ele>
        <time>2022-04-13T09:52:32.283Z</time>
      </trkpt>
      <trkpt lat="42.08679" lon="21.62115">
        <ele>564.464675</ele>
        <time>2022-04-13T09:52:36.274Z</time>
      </trkpt>
      <trkpt lat="42.08677" lon="21.62101">
        <ele>564.400213</ele>
        <time>2022-04-13T09:52:40.281Z</time>
      </trkpt>
      <trkpt lat="42.08673" lon="21.62088">
        <ele>564.335418</ele>
        <time>2022-04-13T09:52:44.299Z</time>
      </trkpt>
      <trkpt lat="42.08669" lon="21.62075">
        <ele>564.274226</ele>
        <time>2022-04-13T09:52:48.281Z</time>
      </trkpt>
      <trkpt lat="42.08666" lon="21.62063">
        <ele>564.213859</ele>
        <time>2022-04-13T09:52:52.281Z</time>
      </trkpt>
      <trkpt lat="42.08663" lon="21.6205">
        <ele>564.155378</ele>
        <time>2022-04-13T09:52:56.288Z</time>
      </trkpt>
      <trkpt lat="42.08659" lon="21.62037">
        <ele>564.090318</ele>
        <time>2022-04-13T09:53:00.280Z</time>
      </trkpt>
      <trkpt lat="42.08655" lon="21.62024">
        <ele>564.027262</ele>
        <time>2022-04-13T09:53:04.281Z</time>
      </trkpt>
      <trkpt lat="42.08652" lon="21.62012">
        <ele>563.970258</ele>
        <time>2022-04-13T09:53:08.283Z</time>
      </trkpt>
      <trkpt lat="42.08648" lon="21.61999">
        <ele>563.904402</ele>
        <time>2022-04-13T09:53:12.276Z</time>
      </trkpt>
      <trkpt lat="42.08646" lon="21.61986">
        <ele>563.845318</ele>
        <time>2022-04-13T09:53:16.286Z</time>
      </trkpt>
      <trkpt lat="42.08644" lon="21.61973">
        <ele>563.785446</ele>
        <time>2022-04-13T09:53:20.276Z</time>
      </trkpt>
      <trkpt lat="42.08641" lon="21.61958">
        <ele>563.715984</ele>
        <time>2022-04-13T09:53:24.274Z</time>
      </trkpt>
      <trkpt lat="42.08637" lon="21.61944">
        <ele>563.649499</ele>
        <time>2022-04-13T09:53:28.282Z</time>
      </trkpt>
      <trkpt lat="42.08634" lon="21.6193">
        <ele>563.581485</ele>
        <time>2022-04-13T09:53:32.276Z</time>
      </trkpt>
      <trkpt lat="42.08631" lon="21.61917">
        <ele>563.51966</ele>
        <time>2022-04-13T09:53:36.288Z</time>
      </trkpt>
      <trkpt lat="42.08629" lon="21.61904">
        <ele>563.56726</ele>
        <time>2022-04-13T09:53:40.280Z</time>
      </trkpt>
      <trkpt lat="42.08626" lon="21.61891">
        <ele>563.869241</ele>
        <time>2022-04-13T09:53:44.283Z</time>
      </trkpt>
      <trkpt lat="42.08622" lon="21.61877">
        <ele>564.193313</ele>
        <time>2022-04-13T09:53:48.284Z</time>
      </trkpt>
      <trkpt lat="42.08619" lon="21.61863">
        <ele>564.5001</ele>
        <time>2022-04-13T09:53:52.278Z</time>
      </trkpt>
      <trkpt lat="42.08616" lon="21.6185">
        <ele>564.805126</ele>
        <time>2022-04-13T09:53:56.277Z</time>
      </trkpt>
      <trkpt lat="42.08613" lon="21.61838">
        <ele>565.086468</ele>
        <time>2022-04-13T09:54:00.279Z</time>
      </trkpt>
      <trkpt lat="42.08609" lon="21.61826">
        <ele>565.374057</ele>
        <time>2022-04-13T09:54:04.278Z</time>
      </trkpt>
      <trkpt lat="42.08606" lon="21.61813">
        <ele>565.679584</ele>
        <time>2022-04-13T09:54:08.283Z</time>
      </trkpt>
      <trkpt lat="42.08603" lon="21.61799">
        <ele>565.990181</ele>
        <time>2022-04-13T09:54:12.277Z</time>
      </trkpt>
      <trkpt lat="42.086" lon="21.61786">
        <ele>566.293304</ele>
        <time>2022-04-13T09:54:16.271Z</time>
      </trkpt>
      <trkpt lat="42.08597" lon="21.61773">
        <ele>566.599321</ele>
        <time>2022-04-13T09:54:20.279Z</time>
      </trkpt>
      <trkpt lat="42.08594" lon="21.6176">
        <ele>566.891371</ele>
        <time>2022-04-13T09:54:24.283Z</time>
      </trkpt>
      <trkpt lat="42.08591" lon="21.61748">
        <ele>567.177285</ele>
        <time>2022-04-13T09:54:28.274Z</time>
      </trkpt>
      <trkpt lat="42.08589" lon="21.61736">
        <ele>567.443617</ele>
        <time>2022-04-13T09:54:31.282Z</time>
      </trkpt>
      <trkpt lat="42.08585" lon="21.61721">
        <ele>567.787827</ele>
        <time>2022-04-13T09:54:35.287Z</time>
      </trkpt>
      <trkpt lat="42.08582" lon="21.61707">
        <ele>568.109505</ele>
        <time>2022-04-13T09:54:39.286Z</time>
      </trkpt>
      <trkpt lat="42.08578" lon="21.61693">
        <ele>568.436554</ele>
        <time>2022-04-13T09:54:43.281Z</time>
      </trkpt>
      <trkpt lat="42.08575" lon="21.61679">
        <ele>568.769597</ele>
        <time>2022-04-13T09:54:47.286Z</time>
      </trkpt>
      <trkpt lat="42.08572" lon="21.61665">
        <ele>568.878373</ele>
        <time>2022-04-13T09:54:51.284Z</time>
      </trkpt>
      <trkpt lat="42.08569" lon="21.61651">
        <ele>568.957386</ele>
        <time>2022-04-13T09:54:55.289Z</time>
      </trkpt>
      <trkpt lat="42.08566" lon="21.61638">
        <ele>569.032564</ele>
        <time>2022-04-13T09:54:59.278Z</time>
      </trkpt>
      <trkpt lat="42.08562" lon="21.61625">
        <ele>569.111236</ele>
        <time>2022-04-13T09:55:03.281Z</time>
      </trkpt>
      <trkpt lat="42.08559" lon="21.61611">
        <ele>569.189952</ele>
        <time>2022-04-13T09:55:07.283Z</time>
      </trkpt>
      <trkpt lat="42.08556" lon="21.61597">
        <ele>569.270021</ele>
        <time>2022-04-13T09:55:11.292Z</time>
      </trkpt>
      <trkpt lat="42.08553" lon="21.61583">
        <ele>569.35232</ele>
        <time>2022-04-13T09:55:15.290Z</time>
      </trkpt>
      <trkpt lat="42.08549" lon="21.61569">
        <ele>569.432847</ele>
        <time>2022-04-13T09:55:19.283Z</time>
      </trkpt>
      <trkpt lat="42.08547" lon="21.61556">
        <ele>569.51101</ele>
        <time>2022-04-13T09:55:23.283Z</time>
      </trkpt>
      <trkpt lat="42.08543" lon="21.61542">
        <ele>569.589801</ele>
        <time>2022-04-13T09:55:27.274Z</time>
      </trkpt>
      <trkpt lat="42.0854" lon="21.61528">
        <ele>569.668753</ele>
        <time>2022-04-13T09:55:31.273Z</time>
      </trkpt>
      <trkpt lat="42.08537" lon="21.61514">
        <ele>569.754251</ele>
        <time>2022-04-13T09:55:35.282Z</time>
      </trkpt>
      <trkpt lat="42.08533" lon="21.615">
        <ele>569.831682</ele>
        <time>2022-04-13T09:55:39.287Z</time>
      </trkpt>
      <trkpt lat="42.08529" lon="21.61486">
        <ele>569.919182</ele>
        <time>2022-04-13T09:55:43.274Z</time>
      </trkpt>
      <trkpt lat="42.08527" lon="21.61472">
        <ele>569.998947</ele>
        <time>2022-04-13T09:55:47.279Z</time>
      </trkpt>
      <trkpt lat="42.08523" lon="21.61458">
        <ele>570.078647</ele>
        <time>2022-04-13T09:55:51.288Z</time>
      </trkpt>
      <trkpt lat="42.0852" lon="21.61445">
        <ele>570.165707</ele>
        <time>2022-04-13T09:55:55.282Z</time>
      </trkpt>
      <trkpt lat="42.08517" lon="21.61432">
        <ele>570.365024</ele>
        <time>2022-04-13T09:55:59.278Z</time>
      </trkpt>
      <trkpt lat="42.08513" lon="21.61417">
        <ele>570.579644</ele>
        <time>2022-04-13T09:56:03.275Z</time>
      </trkpt>
      <trkpt lat="42.08509" lon="21.61404">
        <ele>570.786185</ele>
        <time>2022-04-13T09:56:07.284Z</time>
      </trkpt>
      <trkpt lat="42.08506" lon="21.6139">
        <ele>570.986477</ele>
        <time>2022-04-13T09:56:11.274Z</time>
      </trkpt>
      <trkpt lat="42.08503" lon="21.61377">
        <ele>571.188491</ele>
        <time>2022-04-13T09:56:15.284Z</time>
      </trkpt>
      <trkpt lat="42.085" lon="21.61363">
        <ele>571.398691</ele>
        <time>2022-04-13T09:56:19.281Z</time>
      </trkpt>
      <trkpt lat="42.08497" lon="21.61349">
        <ele>571.605538</ele>
        <time>2022-04-13T09:56:23.276Z</time>
      </trkpt>
      <trkpt lat="42.08494" lon="21.61337">
        <ele>571.78479</ele>
        <time>2022-04-13T09:56:27.290Z</time>
      </trkpt>
      <trkpt lat="42.0849" lon="21.61323">
        <ele>571.994757</ele>
        <time>2022-04-13T09:56:31.278Z</time>
      </trkpt>
      <trkpt lat="42.08487" lon="21.61309">
        <ele>572.198003</ele>
        <time>2022-04-13T09:56:35.287Z</time>
      </trkpt>
      <trkpt lat="42.08483" lon="21.61295">
        <ele>572.408591</ele>
        <time>2022-04-13T09:56:39.286Z</time>
      </trkpt>
      <trkpt lat="42.0848" lon="21.61282">
        <ele>572.608662</ele>
        <time>2022-04-13T09:56:43.279Z</time>
      </trkpt>
      <trkpt lat="42.08477" lon="21.61269">
        <ele>572.801597</ele>
        <time>2022-04-13T09:56:47.285Z</time>
      </trkpt>
      <trkpt lat="42.08474" lon="21.61255">
        <ele>573.002447</ele>
        <time>2022-04-13T09:56:51.279Z</time>
      </trkpt>
      <trkpt lat="42.08471" lon="21.61242">
        <ele>573.192436</ele>
        <time>2022-04-13T09:56:55.274Z</time>
      </trkpt>
      <trkpt lat="42.08468" lon="21.61231">
        <ele>573.370412</ele>
        <time>2022-04-13T09:56:59.280Z</time>
      </trkpt>
      <trkpt lat="42.08466" lon="21.61218">
        <ele>573.563286</ele>
        <time>2022-04-13T09:57:03.283Z</time>
      </trkpt>
      <trkpt lat="42.08463" lon="21.61204">
        <ele>573.76445</ele>
        <time>2022-04-13T09:57:07.281Z</time>
      </trkpt>
      <trkpt lat="42.08459" lon="21.61191">
        <ele>573.966333</ele>
        <time>2022-04-13T09:57:11.289Z</time>
      </trkpt>
      <trkpt lat="42.08457" lon="21.61177">
        <ele>574.161207</ele>
        <time>2022-04-13T09:57:15.281Z</time>
      </trkpt>
      <trkpt lat="42.08454" lon="21.61165">
        <ele>574.349939</ele>
        <time>2022-04-13T09:57:19.272Z</time>
      </trkpt>
      <trkpt lat="42.08451" lon="21.61153">
        <ele>574.524419</ele>
        <time>2022-04-13T09:57:23.282Z</time>
      </trkpt>
      <trkpt lat="42.08448" lon="21.61141">
        <ele>574.707158</ele>
        <time>2022-04-13T09:57:27.283Z</time>
      </trkpt>
      <trkpt lat="42.08445" lon="21.61128">
        <ele>574.89917</ele>
        <time>2022-04-13T09:57:31.282Z</time>
      </trkpt>
      <trkpt lat="42.08442" lon="21.61115">
        <ele>575.087664</ele>
        <time>2022-04-13T09:57:35.283Z</time>
      </trkpt>
      <trkpt lat="42.0844" lon="21.61102">
        <ele>575.277755</ele>
        <time>2022-04-13T09:57:39.303Z</time>
      </trkpt>
      <trkpt lat="42.08436" lon="21.6109">
        <ele>575.464862</ele>
        <time>2022-04-13T09:57:43.288Z</time>
      </trkpt>
      <trkpt lat="42.08433" lon="21.61076">
        <ele>575.662963</ele>
        <time>2022-04-13T09:57:47.280Z</time>
      </trkpt>
      <trkpt lat="42.08431" lon="21.61063">
        <ele>575.856595</ele>
        <time>2022-04-13T09:57:51.292Z</time>
      </trkpt>
      <trkpt lat="42.08426" lon="21.6105">
        <ele>576.062651</ele>
        <time>2022-04-13T09:57:55.279Z</time>
      </trkpt>
      <trkpt lat="42.08423" lon="21.61037">
        <ele>576.265765</ele>
        <time>2022-04-13T09:57:59.286Z</time>
      </trkpt>
      <trkpt lat="42.0842" lon="21.61022">
        <ele>576.475829</ele>
        <time>2022-04-13T09:58:03.284Z</time>
      </trkpt>
      <trkpt lat="42.08417" lon="21.61009">
        <ele>576.677905</ele>
        <time>2022-04-13T09:58:07.292Z</time>
      </trkpt>
      <trkpt lat="42.08413" lon="21.60996">
        <ele>576.872402</ele>
        <time>2022-04-13T09:58:11.278Z</time>
      </trkpt>
      <trkpt lat="42.0841" lon="21.60983">
        <ele>577.098463</ele>
        <time>2022-04-13T09:58:15.286Z</time>
      </trkpt>
      <trkpt lat="42.08407" lon="21.6097">
        <ele>577.522557</ele>
        <time>2022-04-13T09:58:19.276Z</time>
      </trkpt>
      <trkpt lat="42.08405" lon="21.60957">
        <ele>577.918035</ele>
        <time>2022-04-13T09:58:23.283Z</time>
      </trkpt>
      <trkpt lat="42.08401" lon="21.60944">
        <ele>578.342724</ele>
        <time>2022-04-13T09:58:27.281Z</time>
      </trkpt>
      <trkpt lat="42.08398" lon="21.60931">
        <ele>578.765764</ele>
        <time>2022-04-13T09:58:31.274Z</time>
      </trkpt>
      <trkpt lat="42.08395" lon="21.60918">
        <ele>579.186327</ele>
        <time>2022-04-13T09:58:35.285Z</time>
      </trkpt>
      <trkpt lat="42.08391" lon="21.60904">
        <ele>579.627656</ele>
        <time>2022-04-13T09:58:39.279Z</time>
      </trkpt>
      <trkpt lat="42.08388" lon="21.6089">
        <ele>580.067736</ele>
        <time>2022-04-13T09:58:43.282Z</time>
      </trkpt>
      <trkpt lat="42.08384" lon="21.60876">
        <ele>580.534852</ele>
        <time>2022-04-13T09:58:47.286Z</time>
      </trkpt>
      <trkpt lat="42.0838" lon="21.60861">
        <ele>581.013304</ele>
        <time>2022-04-13T09:58:51.286Z</time>
      </trkpt>
      <trkpt lat="42.08377" lon="21.60847">
        <ele>581.474662</ele>
        <time>2022-04-13T09:58:55.278Z</time>
      </trkpt>
      <trkpt lat="42.08372" lon="21.60834">
        <ele>581.921568</ele>
        <time>2022-04-13T09:58:59.278Z</time>
      </trkpt>
      <trkpt lat="42.08368" lon="21.60821">
        <ele>582.347134</ele>
        <time>2022-04-13T09:59:03.279Z</time>
      </trkpt>
      <trkpt lat="42.08366" lon="21.60807">
        <ele>582.782849</ele>
        <time>2022-04-13T09:59:07.280Z</time>
      </trkpt>
      <trkpt lat="42.08364" lon="21.60793">
        <ele>583.220964</ele>
        <time>2022-04-13T09:59:11.286Z</time>
      </trkpt>
      <trkpt lat="42.08361" lon="21.60779">
        <ele>583.649799</ele>
        <time>2022-04-13T09:59:15.288Z</time>
      </trkpt>
      <trkpt lat="42.08358" lon="21.60766">
        <ele>584.064542</ele>
        <time>2022-04-13T09:59:19.278Z</time>
      </trkpt>
      <trkpt lat="42.08355" lon="21.60753">
        <ele>584.435962</ele>
        <time>2022-04-13T09:59:23.280Z</time>
      </trkpt>
      <trkpt lat="42.08352" lon="21.60738">
        <ele>584.583096</ele>
        <time>2022-04-13T09:59:28.275Z</time>
      </trkpt>
      <trkpt lat="42.08348" lon="21.60724">
        <ele>584.723071</ele>
        <time>2022-04-13T09:59:32.278Z</time>
      </trkpt>
      <trkpt lat="42.08345" lon="21.60711">
        <ele>584.8551</ele>
        <time>2022-04-13T09:59:36.280Z</time>
      </trkpt>
      <trkpt lat="42.08342" lon="21.60698">
        <ele>584.985588</ele>
        <time>2022-04-13T09:59:40.276Z</time>
      </trkpt>
      <trkpt lat="42.08339" lon="21.60685">
        <ele>585.11592</ele>
        <time>2022-04-13T09:59:44.304Z</time>
      </trkpt>
      <trkpt lat="42.08336" lon="21.60672">
        <ele>585.24423</ele>
        <time>2022-04-13T09:59:48.279Z</time>
      </trkpt>
      <trkpt lat="42.08333" lon="21.60658">
        <ele>585.380899</ele>
        <time>2022-04-13T09:59:52.275Z</time>
      </trkpt>
      <trkpt lat="42.08329" lon="21.60644">
        <ele>585.517428</ele>
        <time>2022-04-13T09:59:56.305Z</time>
      </trkpt>
      <trkpt lat="42.08326" lon="21.6063">
        <ele>585.656822</ele>
        <time>2022-04-13T10:00:00.281Z</time>
      </trkpt>
      <trkpt lat="42.08323" lon="21.60617">
        <ele>585.791475</ele>
        <time>2022-04-13T10:00:04.278Z</time>
      </trkpt>
      <trkpt lat="42.08319" lon="21.60604">
        <ele>585.922567</ele>
        <time>2022-04-13T10:00:08.309Z</time>
      </trkpt>
      <trkpt lat="42.08316" lon="21.60591">
        <ele>586.053803</ele>
        <time>2022-04-13T10:00:12.285Z</time>
      </trkpt>
      <trkpt lat="42.08312" lon="21.60577">
        <ele>586.187551</ele>
        <time>2022-04-13T10:00:16.279Z</time>
      </trkpt>
      <trkpt lat="42.08309" lon="21.60564">
        <ele>586.316223</ele>
        <time>2022-04-13T10:00:20.278Z</time>
      </trkpt>
      <trkpt lat="42.08307" lon="21.60552">
        <ele>586.443623</ele>
        <time>2022-04-13T10:00:24.286Z</time>
      </trkpt>
      <trkpt lat="42.08304" lon="21.60538">
        <ele>586.574112</ele>
        <time>2022-04-13T10:00:28.281Z</time>
      </trkpt>
      <trkpt lat="42.08301" lon="21.60525">
        <ele>586.709508</ele>
        <time>2022-04-13T10:00:32.276Z</time>
      </trkpt>
      <trkpt lat="42.08298" lon="21.60511">
        <ele>586.873434</ele>
        <time>2022-04-13T10:00:36.271Z</time>
      </trkpt>
      <trkpt lat="42.08294" lon="21.60498">
        <ele>587.040203</ele>
        <time>2022-04-13T10:00:40.279Z</time>
      </trkpt>
      <trkpt lat="42.08291" lon="21.60485">
        <ele>587.200182</ele>
        <time>2022-04-13T10:00:44.275Z</time>
      </trkpt>
      <trkpt lat="42.08287" lon="21.60472">
        <ele>587.364605</ele>
        <time>2022-04-13T10:00:48.278Z</time>
      </trkpt>
      <trkpt lat="42.08285" lon="21.60458">
        <ele>587.531009</ele>
        <time>2022-04-13T10:00:52.301Z</time>
      </trkpt>
      <trkpt lat="42.08281" lon="21.60444">
        <ele>587.702569</ele>
        <time>2022-04-13T10:00:56.274Z</time>
      </trkpt>
      <trkpt lat="42.08278" lon="21.6043">
        <ele>587.874493</ele>
        <time>2022-04-13T10:01:00.277Z</time>
      </trkpt>
      <trkpt lat="42.08276" lon="21.60417">
        <ele>588.040512</ele>
        <time>2022-04-13T10:01:04.303Z</time>
      </trkpt>
      <trkpt lat="42.08273" lon="21.60403">
        <ele>588.211989</ele>
        <time>2022-04-13T10:01:08.287Z</time>
      </trkpt>
      <trkpt lat="42.08269" lon="21.60388">
        <ele>588.388692</ele>
        <time>2022-04-13T10:01:12.275Z</time>
      </trkpt>
      <trkpt lat="42.08266" lon="21.60376">
        <ele>588.546461</ele>
        <time>2022-04-13T10:01:16.316Z</time>
      </trkpt>
      <trkpt lat="42.08263" lon="21.60364">
        <ele>588.697702</ele>
        <time>2022-04-13T10:01:20.280Z</time>
      </trkpt>
      <trkpt lat="42.0826" lon="21.60351">
        <ele>588.853911</ele>
        <time>2022-04-13T10:01:24.278Z</time>
      </trkpt>
      <trkpt lat="42.08257" lon="21.60338">
        <ele>589.012348</ele>
        <time>2022-04-13T10:01:28.274Z</time>
      </trkpt>
      <trkpt lat="42.08254" lon="21.60325">
        <ele>589.170118</ele>
        <time>2022-04-13T10:01:32.292Z</time>
      </trkpt>
      <trkpt lat="42.08249" lon="21.60313">
        <ele>589.332247</ele>
        <time>2022-04-13T10:01:36.287Z</time>
      </trkpt>
      <trkpt lat="42.08246" lon="21.60301">
        <ele>589.487839</ele>
        <time>2022-04-13T10:01:40.289Z</time>
      </trkpt>
      <trkpt lat="42.08242" lon="21.60288">
        <ele>589.727697</ele>
        <time>2022-04-13T10:01:44.310Z</time>
      </trkpt>
      <trkpt lat="42.08238" lon="21.60276">
        <ele>590.048744</ele>
        <time>2022-04-13T10:01:48.285Z</time>
      </trkpt>
      <trkpt lat="42.08234" lon="21.60264">
        <ele>590.351865</ele>
        <time>2022-04-13T10:01:52.277Z</time>
      </trkpt>
      <trkpt lat="42.0823" lon="21.60253">
        <ele>590.65437</ele>
        <time>2022-04-13T10:01:56.283Z</time>
      </trkpt>
      <trkpt lat="42.08226" lon="21.60242">
        <ele>590.941946</ele>
        <time>2022-04-13T10:02:00.282Z</time>
      </trkpt>
      <trkpt lat="42.08221" lon="21.60229">
        <ele>591.28705</ele>
        <time>2022-04-13T10:02:05.290Z</time>
      </trkpt>
      <trkpt lat="42.08216" lon="21.60216">
        <ele>591.636102</ele>
        <time>2022-04-13T10:02:10.282Z</time>
      </trkpt>
      <trkpt lat="42.08211" lon="21.60205">
        <ele>591.923874</ele>
        <time>2022-04-13T10:02:14.270Z</time>
      </trkpt>
      <trkpt lat="42.08206" lon="21.60192">
        <ele>592.279827</ele>
        <time>2022-04-13T10:02:19.274Z</time>
      </trkpt>
      <trkpt lat="42.08201" lon="21.60181">
        <ele>592.578954</ele>
        <time>2022-04-13T10:02:23.271Z</time>
      </trkpt>
      <trkpt lat="42.08196" lon="21.60169">
        <ele>592.896206</ele>
        <time>2022-04-13T10:02:27.284Z</time>
      </trkpt>
      <trkpt lat="42.08193" lon="21.60156">
        <ele>593.234602</ele>
        <time>2022-04-13T10:02:32.284Z</time>
      </trkpt>
      <trkpt lat="42.08189" lon="21.60145">
        <ele>593.522374</ele>
        <time>2022-04-13T10:02:36.286Z</time>
      </trkpt>
      <trkpt lat="42.08184" lon="21.60132">
        <ele>593.863657</ele>
        <time>2022-04-13T10:02:41.283Z</time>
      </trkpt>
      <trkpt lat="42.0818" lon="21.6012">
        <ele>594.164835</ele>
        <time>2022-04-13T10:02:45.271Z</time>
      </trkpt>
      <trkpt lat="42.08176" lon="21.60108">
        <ele>594.48636</ele>
        <time>2022-04-13T10:02:49.286Z</time>
      </trkpt>
      <trkpt lat="42.08171" lon="21.60097">
        <ele>594.787566</ele>
        <time>2022-04-13T10:02:53.284Z</time>
      </trkpt>
      <trkpt lat="42.08167" lon="21.60086">
        <ele>595.078025</ele>
        <time>2022-04-13T10:02:57.283Z</time>
      </trkpt>
      <trkpt lat="42.08163" lon="21.60075">
        <ele>595.377076</ele>
        <time>2022-04-13T10:03:01.279Z</time>
      </trkpt>
      <trkpt lat="42.08159" lon="21.60064">
        <ele>595.696728</ele>
        <time>2022-04-13T10:03:05.280Z</time>
      </trkpt>
      <trkpt lat="42.08154" lon="21.60051">
        <ele>596.076197</ele>
        <time>2022-04-13T10:03:10.303Z</time>
      </trkpt>
      <trkpt lat="42.0815" lon="21.60038">
        <ele>596.444638</ele>
        <time>2022-04-13T10:03:15.289Z</time>
      </trkpt>
      <trkpt lat="42.08145" lon="21.60028">
        <ele>596.773755</ele>
        <time>2022-04-13T10:03:19.286Z</time>
      </trkpt>
      <trkpt lat="42.0814" lon="21.60015">
        <ele>597.157809</ele>
        <time>2022-04-13T10:03:24.279Z</time>
      </trkpt>
      <trkpt lat="42.08136" lon="21.60002">
        <ele>597.524767</ele>
        <time>2022-04-13T10:03:29.279Z</time>
      </trkpt>
      <trkpt lat="42.08132" lon="21.59988">
        <ele>597.906891</ele>
        <time>2022-04-13T10:03:34.287Z</time>
      </trkpt>
      <trkpt lat="42.08127" lon="21.59978">
        <ele>598.238973</ele>
        <time>2022-04-13T10:03:38.281Z</time>
      </trkpt>
      <trkpt lat="42.08121" lon="21.59966">
        <ele>598.617001</ele>
        <time>2022-04-13T10:03:43.283Z</time>
      </trkpt>
      <trkpt lat="42.08116" lon="21.59953">
        <ele>598.997136</ele>
        <time>2022-04-13T10:03:48.280Z</time>
      </trkpt>
      <trkpt lat="42.08112" lon="21.59941">
        <ele>599.337256</ele>
        <time>2022-04-13T10:03:52.281Z</time>
      </trkpt>
      <trkpt lat="42.08107" lon="21.5993">
        <ele>599.67606</ele>
        <time>2022-04-13T10:03:56.284Z</time>
      </trkpt>
      <trkpt lat="42.08103" lon="21.59919">
        <ele>600.003402</ele>
        <time>2022-04-13T10:04:00.286Z</time>
      </trkpt>
      <trkpt lat="42.08098" lon="21.59909">
        <ele>600.32535</ele>
        <time>2022-04-13T10:04:04.286Z</time>
      </trkpt>
      <trkpt lat="42.08092" lon="21.59898">
        <ele>600.684213</ele>
        <time>2022-04-13T10:04:08.280Z</time>
      </trkpt>
      <trkpt lat="42.08085" lon="21.59889">
        <ele>601.020033</ele>
        <time>2022-04-13T10:04:12.278Z</time>
      </trkpt>
      <trkpt lat="42.08079" lon="21.5988">
        <ele>601.338059</ele>
        <time>2022-04-13T10:04:16.288Z</time>
      </trkpt>
      <trkpt lat="42.08073" lon="21.5987">
        <ele>601.668288</ele>
        <time>2022-04-13T10:04:20.284Z</time>
      </trkpt>
      <trkpt lat="42.08066" lon="21.59862">
        <ele>601.539176</ele>
        <time>2022-04-13T10:04:24.284Z</time>
      </trkpt>
      <trkpt lat="42.08059" lon="21.59854">
        <ele>601.400919</ele>
        <time>2022-04-13T10:04:28.276Z</time>
      </trkpt>
      <trkpt lat="42.08051" lon="21.59845">
        <ele>601.250136</ele>
        <time>2022-04-13T10:04:32.314Z</time>
      </trkpt>
      <trkpt lat="42.08041" lon="21.59836">
        <ele>601.088523</ele>
        <time>2022-04-13T10:04:36.280Z</time>
      </trkpt>
      <trkpt lat="42.08031" lon="21.59828">
        <ele>600.925773</ele>
        <time>2022-04-13T10:04:40.286Z</time>
      </trkpt>
      <trkpt lat="42.08023" lon="21.59823">
        <ele>600.798678</ele>
        <time>2022-04-13T10:04:43.292Z</time>
      </trkpt>
      <trkpt lat="42.08015" lon="21.59816">
        <ele>600.658448</ele>
        <time>2022-04-13T10:04:46.282Z</time>
      </trkpt>
      <trkpt lat="42.08006" lon="21.59809">
        <ele>600.518386</ele>
        <time>2022-04-13T10:04:49.278Z</time>
      </trkpt>
      <trkpt lat="42.07996" lon="21.59803">
        <ele>600.366271</ele>
        <time>2022-04-13T10:04:52.276Z</time>
      </trkpt>
      <trkpt lat="42.07986" lon="21.59797">
        <ele>600.207279</ele>
        <time>2022-04-13T10:04:55.294Z</time>
      </trkpt>
      <trkpt lat="42.07976" lon="21.59791">
        <ele>600.055151</ele>
        <time>2022-04-13T10:04:58.285Z</time>
      </trkpt>
      <trkpt lat="42.07966" lon="21.59786">
        <ele>599.905919</ele>
        <time>2022-04-13T10:05:01.288Z</time>
      </trkpt>
      <trkpt lat="42.07957" lon="21.59782">
        <ele>599.758883</ele>
        <time>2022-04-13T10:05:04.273Z</time>
      </trkpt>
      <trkpt lat="42.07948" lon="21.59777">
        <ele>599.624455</ele>
        <time>2022-04-13T10:05:07.286Z</time>
      </trkpt>
      <trkpt lat="42.07939" lon="21.59771">
        <ele>599.482645</ele>
        <time>2022-04-13T10:05:10.277Z</time>
      </trkpt>
      <trkpt lat="42.07929" lon="21.59765">
        <ele>599.326251</ele>
        <time>2022-04-13T10:05:13.285Z</time>
      </trkpt>
      <trkpt lat="42.07919" lon="21.59759">
        <ele>599.177595</ele>
        <time>2022-04-13T10:05:16.278Z</time>
      </trkpt>
      <trkpt lat="42.07911" lon="21.59753">
        <ele>599.138647</ele>
        <time>2022-04-13T10:05:19.320Z</time>
      </trkpt>
      <trkpt lat="42.07903" lon="21.59748">
        <ele>599.169844</ele>
        <time>2022-04-13T10:05:22.284Z</time>
      </trkpt>
      <trkpt lat="42.07892" lon="21.59743">
        <ele>599.207279</ele>
        <time>2022-04-13T10:05:26.286Z</time>
      </trkpt>
      <trkpt lat="42.07882" lon="21.59738">
        <ele>599.242433</ele>
        <time>2022-04-13T10:05:30.306Z</time>
      </trkpt>
      <trkpt lat="42.07873" lon="21.59732">
        <ele>599.277553</ele>
        <time>2022-04-13T10:05:34.276Z</time>
      </trkpt>
      <trkpt lat="42.07865" lon="21.59727">
        <ele>599.308632</ele>
        <time>2022-04-13T10:05:38.279Z</time>
      </trkpt>
      <trkpt lat="42.07856" lon="21.59723">
        <ele>599.340972</ele>
        <time>2022-04-13T10:05:42.282Z</time>
      </trkpt>
      <trkpt lat="42.07847" lon="21.59718">
        <ele>599.372875</ele>
        <time>2022-04-13T10:05:46.280Z</time>
      </trkpt>
      <trkpt lat="42.07839" lon="21.59713">
        <ele>599.404158</ele>
        <time>2022-04-13T10:05:50.280Z</time>
      </trkpt>
      <trkpt lat="42.0783" lon="21.59708">
        <ele>599.43555</ele>
        <time>2022-04-13T10:05:54.279Z</time>
      </trkpt>
      <trkpt lat="42.0782" lon="21.59701">
        <ele>599.472418</ele>
        <time>2022-04-13T10:05:58.278Z</time>
      </trkpt>
      <trkpt lat="42.07811" lon="21.59695">
        <ele>599.509361</ele>
        <time>2022-04-13T10:06:02.280Z</time>
      </trkpt>
      <trkpt lat="42.07801" lon="21.59688">
        <ele>599.547023</ele>
        <time>2022-04-13T10:06:06.274Z</time>
      </trkpt>
      <trkpt lat="42.07791" lon="21.59681">
        <ele>599.585359</ele>
        <time>2022-04-13T10:06:10.281Z</time>
      </trkpt>
      <trkpt lat="42.07781" lon="21.59674">
        <ele>599.621311</ele>
        <time>2022-04-13T10:06:14.279Z</time>
      </trkpt>
      <trkpt lat="42.07771" lon="21.59669">
        <ele>599.657933</ele>
        <time>2022-04-13T10:06:18.274Z</time>
      </trkpt>
      <trkpt lat="42.0776" lon="21.59665">
        <ele>599.697545</ele>
        <time>2022-04-13T10:06:22.300Z</time>
      </trkpt>
      <trkpt lat="42.07749" lon="21.59663">
        <ele>599.74328</ele>
        <time>2022-04-13T10:06:26.279Z</time>
      </trkpt>
      <trkpt lat="42.0774" lon="21.59662">
        <ele>599.812785</ele>
        <time>2022-04-13T10:06:29.286Z</time>
      </trkpt>
      <trkpt lat="42.07729" lon="21.59661">
        <ele>599.899218</ele>
        <time>2022-04-13T10:06:33.307Z</time>
      </trkpt>
      <trkpt lat="42.07718" lon="21.59662">
        <ele>599.981008</ele>
        <time>2022-04-13T10:06:37.285Z</time>
      </trkpt>
      <trkpt lat="42.07707" lon="21.59664">
        <ele>600.071108</ele>
        <time>2022-04-13T10:06:41.288Z</time>
      </trkpt>
      <trkpt lat="42.07695" lon="21.59665">
        <ele>600.161208</ele>
        <time>2022-04-13T10:06:45.284Z</time>
      </trkpt>
      <trkpt lat="42.07686" lon="21.59667">
        <ele>600.232706</ele>
        <time>2022-04-13T10:06:48.278Z</time>
      </trkpt>
      <trkpt lat="42.07677" lon="21.59668">
        <ele>600.30315</ele>
        <time>2022-04-13T10:06:51.274Z</time>
      </trkpt>
      <trkpt lat="42.07668" lon="21.59669">
        <ele>600.377309</ele>
        <time>2022-04-13T10:06:54.273Z</time>
      </trkpt>
      <trkpt lat="42.07658" lon="21.59671">
        <ele>600.45568</ele>
        <time>2022-04-13T10:06:57.279Z</time>
      </trkpt>
      <trkpt lat="42.07648" lon="21.59673">
        <ele>600.534824</ele>
        <time>2022-04-13T10:07:00.274Z</time>
      </trkpt>
      <trkpt lat="42.07637" lon="21.59674">
        <ele>600.614742</ele>
        <time>2022-04-13T10:07:03.283Z</time>
      </trkpt>
      <trkpt lat="42.07627" lon="21.59675">
        <ele>600.697527</ele>
        <time>2022-04-13T10:07:06.280Z</time>
      </trkpt>
      <trkpt lat="42.07615" lon="21.59676">
        <ele>600.787988</ele>
        <time>2022-04-13T10:07:09.287Z</time>
      </trkpt>
      <trkpt lat="42.07604" lon="21.59677">
        <ele>600.876083</ele>
        <time>2022-04-13T10:07:12.280Z</time>
      </trkpt>
      <trkpt lat="42.07591" lon="21.59679">
        <ele>600.97443</ele>
        <time>2022-04-13T10:07:15.284Z</time>
      </trkpt>
      <trkpt lat="42.07582" lon="21.59679">
        <ele>601.044557</ele>
        <time>2022-04-13T10:07:17.282Z</time>
      </trkpt>
      <trkpt lat="42.07569" lon="21.5968">
        <ele>601.136052</ele>
        <time>2022-04-13T10:07:20.277Z</time>
      </trkpt>
      <trkpt lat="42.07557" lon="21.59681">
        <ele>601.162782</ele>
        <time>2022-04-13T10:07:23.284Z</time>
      </trkpt>
      <trkpt lat="42.07545" lon="21.59681">
        <ele>601.187082</ele>
        <time>2022-04-13T10:07:26.278Z</time>
      </trkpt>
      <trkpt lat="42.07533" lon="21.59682">
        <ele>601.212908</ele>
        <time>2022-04-13T10:07:29.272Z</time>
      </trkpt>
      <trkpt lat="42.07522" lon="21.59682">
        <ele>601.238071</ele>
        <time>2022-04-13T10:07:32.279Z</time>
      </trkpt>
      <trkpt lat="42.0751" lon="21.59682">
        <ele>601.263893</ele>
        <time>2022-04-13T10:07:35.282Z</time>
      </trkpt>
      <trkpt lat="42.07498" lon="21.59682">
        <ele>601.289491</ele>
        <time>2022-04-13T10:07:38.279Z</time>
      </trkpt>
      <trkpt lat="42.07486" lon="21.59683">
        <ele>601.315313</ele>
        <time>2022-04-13T10:07:41.288Z</time>
      </trkpt>
      <trkpt lat="42.07474" lon="21.59683">
        <ele>601.341134</ele>
        <time>2022-04-13T10:07:44.277Z</time>
      </trkpt>
      <trkpt lat="42.07462" lon="21.59684">
        <ele>601.367622</ele>
        <time>2022-04-13T10:07:47.286Z</time>
      </trkpt>
      <trkpt lat="42.07449" lon="21.59684">
        <ele>601.395188</ele>
        <time>2022-04-13T10:07:50.277Z</time>
      </trkpt>
      <trkpt lat="42.07437" lon="21.59685">
        <ele>601.422532</ele>
        <time>2022-04-13T10:07:53.279Z</time>
      </trkpt>
      <trkpt lat="42.07423" lon="21.59686">
        <ele>601.451653</ele>
        <time>2022-04-13T10:07:56.273Z</time>
      </trkpt>
      <trkpt lat="42.0741" lon="21.59686">
        <ele>601.480294</ele>
        <time>2022-04-13T10:07:59.317Z</time>
      </trkpt>
      <trkpt lat="42.07401" lon="21.59686">
        <ele>601.500251</ele>
        <time>2022-04-13T10:08:01.279Z</time>
      </trkpt>
      <trkpt lat="42.07391" lon="21.59686">
        <ele>601.515769</ele>
        <time>2022-04-13T10:08:03.322Z</time>
      </trkpt>
      <trkpt lat="42.07381" lon="21.59687">
        <ele>601.316788</ele>
        <time>2022-04-13T10:08:05.281Z</time>
      </trkpt>
      <trkpt lat="42.07371" lon="21.59688">
        <ele>601.121787</ele>
        <time>2022-04-13T10:08:07.281Z</time>
      </trkpt>
      <trkpt lat="42.0736" lon="21.59688">
        <ele>600.920879</ele>
        <time>2022-04-13T10:08:09.278Z</time>
      </trkpt>
      <trkpt lat="42.0735" lon="21.59689">
        <ele>600.72014</ele>
        <time>2022-04-13T10:08:11.282Z</time>
      </trkpt>
      <trkpt lat="42.0734" lon="21.59689">
        <ele>600.521407</ele>
        <time>2022-04-13T10:08:13.287Z</time>
      </trkpt>
      <trkpt lat="42.07329" lon="21.59689">
        <ele>600.318739</ele>
        <time>2022-04-13T10:08:15.282Z</time>
      </trkpt>
      <trkpt lat="42.07319" lon="21.5969">
        <ele>600.117954</ele>
        <time>2022-04-13T10:08:17.286Z</time>
      </trkpt>
      <trkpt lat="42.07309" lon="21.5969">
        <ele>599.919143</ele>
        <time>2022-04-13T10:08:19.278Z</time>
      </trkpt>
      <trkpt lat="42.07298" lon="21.5969">
        <ele>599.716536</ele>
        <time>2022-04-13T10:08:21.287Z</time>
      </trkpt>
      <trkpt lat="42.07287" lon="21.59691">
        <ele>599.498439</ele>
        <time>2022-04-13T10:08:23.288Z</time>
      </trkpt>
      <trkpt lat="42.07275" lon="21.5969">
        <ele>599.280299</ele>
        <time>2022-04-13T10:08:25.285Z</time>
      </trkpt>
      <trkpt lat="42.07265" lon="21.59689">
        <ele>599.073358</ele>
        <time>2022-04-13T10:08:27.283Z</time>
      </trkpt>
      <trkpt lat="42.07254" lon="21.59688">
        <ele>598.869781</ele>
        <time>2022-04-13T10:08:29.276Z</time>
      </trkpt>
      <trkpt lat="42.07244" lon="21.59686">
        <ele>598.665902</ele>
        <time>2022-04-13T10:08:31.275Z</time>
      </trkpt>
      <trkpt lat="42.07234" lon="21.59684">
        <ele>598.472963</ele>
        <time>2022-04-13T10:08:33.288Z</time>
      </trkpt>
      <trkpt lat="42.07224" lon="21.59683">
        <ele>598.288243</ele>
        <time>2022-04-13T10:08:35.284Z</time>
      </trkpt>
      <trkpt lat="42.07215" lon="21.59681">
        <ele>598.109443</ele>
        <time>2022-04-13T10:08:37.278Z</time>
      </trkpt>
      <trkpt lat="42.07206" lon="21.5968">
        <ele>597.963175</ele>
        <time>2022-04-13T10:08:39.295Z</time>
      </trkpt>
      <trkpt lat="42.07196" lon="21.59678">
        <ele>597.831296</ele>
        <time>2022-04-13T10:08:41.281Z</time>
      </trkpt>
      <trkpt lat="42.07187" lon="21.59677">
        <ele>597.708656</ele>
        <time>2022-04-13T10:08:43.283Z</time>
      </trkpt>
      <trkpt lat="42.07177" lon="21.59676">
        <ele>597.583007</ele>
        <time>2022-04-13T10:08:45.280Z</time>
      </trkpt>
      <trkpt lat="42.07165" lon="21.59673">
        <ele>597.411527</ele>
        <time>2022-04-13T10:08:48.305Z</time>
      </trkpt>
      <trkpt lat="42.07153" lon="21.59671">
        <ele>597.251593</ele>
        <time>2022-04-13T10:08:51.323Z</time>
      </trkpt>
      <trkpt lat="42.07142" lon="21.5967">
        <ele>597.102431</ele>
        <time>2022-04-13T10:08:54.300Z</time>
      </trkpt>
      <trkpt lat="42.07132" lon="21.59668">
        <ele>596.970133</ele>
        <time>2022-04-13T10:08:57.290Z</time>
      </trkpt>
      <trkpt lat="42.07122" lon="21.59666">
        <ele>596.836077</ele>
        <time>2022-04-13T10:09:00.307Z</time>
      </trkpt>
      <trkpt lat="42.07112" lon="21.59665">
        <ele>596.693597</ele>
        <time>2022-04-13T10:09:03.314Z</time>
      </trkpt>
      <trkpt lat="42.071" lon="21.59663">
        <ele>596.53999</ele>
        <time>2022-04-13T10:09:06.281Z</time>
      </trkpt>
      <trkpt lat="42.07087" lon="21.59661">
        <ele>596.364634</ele>
        <time>2022-04-13T10:09:09.282Z</time>
      </trkpt>
      <trkpt lat="42.07078" lon="21.59659">
        <ele>596.236445</ele>
        <time>2022-04-13T10:09:11.313Z</time>
      </trkpt>
      <trkpt lat="42.07068" lon="21.59658">
        <ele>596.099908</ele>
        <time>2022-04-13T10:09:13.280Z</time>
      </trkpt>
      <trkpt lat="42.07057" lon="21.59656">
        <ele>595.95248</ele>
        <time>2022-04-13T10:09:15.284Z</time>
      </trkpt>
      <trkpt lat="42.07045" lon="21.59653">
        <ele>595.798139</ele>
        <time>2022-04-13T10:09:17.276Z</time>
      </trkpt>
      <trkpt lat="42.07034" lon="21.59651">
        <ele>595.645126</ele>
        <time>2022-04-13T10:09:19.289Z</time>
      </trkpt>
      <trkpt lat="42.07023" lon="21.5965">
        <ele>595.816455</ele>
        <time>2022-04-13T10:09:21.284Z</time>
      </trkpt>
      <trkpt lat="42.07012" lon="21.59648">
        <ele>595.991166</ele>
        <time>2022-04-13T10:09:23.275Z</time>
      </trkpt>
      <trkpt lat="42.07002" lon="21.59646">
        <ele>596.161172</ele>
        <time>2022-04-13T10:09:25.282Z</time>
      </trkpt>
      <trkpt lat="42.06992" lon="21.59644">
        <ele>596.322602</ele>
        <time>2022-04-13T10:09:27.324Z</time>
      </trkpt>
      <trkpt lat="42.06982" lon="21.59643">
        <ele>596.487583</ele>
        <time>2022-04-13T10:09:29.284Z</time>
      </trkpt>
      <trkpt lat="42.06973" lon="21.59641">
        <ele>596.646872</ele>
        <time>2022-04-13T10:09:31.279Z</time>
      </trkpt>
      <trkpt lat="42.06963" lon="21.59641">
        <ele>596.797714</ele>
        <time>2022-04-13T10:09:33.279Z</time>
      </trkpt>
      <trkpt lat="42.0695" lon="21.59639">
        <ele>597.014238</ele>
        <time>2022-04-13T10:09:36.283Z</time>
      </trkpt>
      <trkpt lat="42.06938" lon="21.59638">
        <ele>597.217828</ele>
        <time>2022-04-13T10:09:39.286Z</time>
      </trkpt>
      <trkpt lat="42.06926" lon="21.59637">
        <ele>597.409402</ele>
        <time>2022-04-13T10:09:42.286Z</time>
      </trkpt>
      <trkpt lat="42.06915" lon="21.59639">
        <ele>597.593852</ele>
        <time>2022-04-13T10:09:45.282Z</time>
      </trkpt>
      <trkpt lat="42.06902" lon="21.5964">
        <ele>597.799182</ele>
        <time>2022-04-13T10:09:48.279Z</time>
      </trkpt>
      <trkpt lat="42.0689" lon="21.59644">
        <ele>598.001819</ele>
        <time>2022-04-13T10:09:51.290Z</time>
      </trkpt>
      <trkpt lat="42.06878" lon="21.59647">
        <ele>598.211722</ele>
        <time>2022-04-13T10:09:54.282Z</time>
      </trkpt>
      <trkpt lat="42.06865" lon="21.5965">
        <ele>598.415713</ele>
        <time>2022-04-13T10:09:57.274Z</time>
      </trkpt>
      <trkpt lat="42.06852" lon="21.59653">
        <ele>598.530011</ele>
        <time>2022-04-13T10:10:00.277Z</time>
      </trkpt>
      <trkpt lat="42.06843" lon="21.59655">
        <ele>598.384844</ele>
        <time>2022-04-13T10:10:02.321Z</time>
      </trkpt>
      <trkpt lat="42.06834" lon="21.59658">
        <ele>598.235215</ele>
        <time>2022-04-13T10:10:04.281Z</time>
      </trkpt>
      <trkpt lat="42.06825" lon="21.59661">
        <ele>598.085623</ele>
        <time>2022-04-13T10:10:06.276Z</time>
      </trkpt>
      <trkpt lat="42.06816" lon="21.59663">
        <ele>597.933463</ele>
        <time>2022-04-13T10:10:08.273Z</time>
      </trkpt>
      <trkpt lat="42.06806" lon="21.59667">
        <ele>597.770898</ele>
        <time>2022-04-13T10:10:10.288Z</time>
      </trkpt>
      <trkpt lat="42.06796" lon="21.5967">
        <ele>597.60678</ele>
        <time>2022-04-13T10:10:12.274Z</time>
      </trkpt>
      <trkpt lat="42.06785" lon="21.59673">
        <ele>597.435143</ele>
        <time>2022-04-13T10:10:14.276Z</time>
      </trkpt>
      <trkpt lat="42.06774" lon="21.59676">
        <ele>597.255699</ele>
        <time>2022-04-13T10:10:16.275Z</time>
      </trkpt>
      <trkpt lat="42.06763" lon="21.59679">
        <ele>597.070878</ele>
        <time>2022-04-13T10:10:18.301Z</time>
      </trkpt>
      <trkpt lat="42.06751" lon="21.5968">
        <ele>596.881626</ele>
        <time>2022-04-13T10:10:20.276Z</time>
      </trkpt>
      <trkpt lat="42.06739" lon="21.59679">
        <ele>596.692838</ele>
        <time>2022-04-13T10:10:22.280Z</time>
      </trkpt>
      <trkpt lat="42.06728" lon="21.59678">
        <ele>596.506647</ele>
        <time>2022-04-13T10:10:24.304Z</time>
      </trkpt>
      <trkpt lat="42.06716" lon="21.59675">
        <ele>596.310196</ele>
        <time>2022-04-13T10:10:26.282Z</time>
      </trkpt>
      <trkpt lat="42.06704" lon="21.59671">
        <ele>596.114918</ele>
        <time>2022-04-13T10:10:28.276Z</time>
      </trkpt>
      <trkpt lat="42.06691" lon="21.59668">
        <ele>595.904114</ele>
        <time>2022-04-13T10:10:30.302Z</time>
      </trkpt>
      <trkpt lat="42.06677" lon="21.59664">
        <ele>595.654948</ele>
        <time>2022-04-13T10:10:32.280Z</time>
      </trkpt>
      <trkpt lat="42.06663" lon="21.5966">
        <ele>595.222521</ele>
        <time>2022-04-13T10:10:34.277Z</time>
      </trkpt>
      <trkpt lat="42.0665" lon="21.59657">
        <ele>594.801519</ele>
        <time>2022-04-13T10:10:36.275Z</time>
      </trkpt>
      <trkpt lat="42.06636" lon="21.59655">
        <ele>594.376534</ele>
        <time>2022-04-13T10:10:38.275Z</time>
      </trkpt>
      <trkpt lat="42.06623" lon="21.59656">
        <ele>593.96524</ele>
        <time>2022-04-13T10:10:40.270Z</time>
      </trkpt>
      <trkpt lat="42.06611" lon="21.5966">
        <ele>593.561571</ele>
        <time>2022-04-13T10:10:42.271Z</time>
      </trkpt>
      <trkpt lat="42.06599" lon="21.59665">
        <ele>593.18053</ele>
        <time>2022-04-13T10:10:44.283Z</time>
      </trkpt>
      <trkpt lat="42.06588" lon="21.5967">
        <ele>592.832008</ele>
        <time>2022-04-13T10:10:46.282Z</time>
      </trkpt>
      <trkpt lat="42.06578" lon="21.59675">
        <ele>592.481279</ele>
        <time>2022-04-13T10:10:48.276Z</time>
      </trkpt>
      <trkpt lat="42.06567" lon="21.59681">
        <ele>592.121383</ele>
        <time>2022-04-13T10:10:50.278Z</time>
      </trkpt>
      <trkpt lat="42.06556" lon="21.59687">
        <ele>591.762909</ele>
        <time>2022-04-13T10:10:52.274Z</time>
      </trkpt>
      <trkpt lat="42.06545" lon="21.59692">
        <ele>591.392174</ele>
        <time>2022-04-13T10:10:54.281Z</time>
      </trkpt>
      <trkpt lat="42.06533" lon="21.59698">
        <ele>591.001658</ele>
        <time>2022-04-13T10:10:56.274Z</time>
      </trkpt>
      <trkpt lat="42.06521" lon="21.59703">
        <ele>590.613137</ele>
        <time>2022-04-13T10:10:58.273Z</time>
      </trkpt>
      <trkpt lat="42.0651" lon="21.5971">
        <ele>590.216338</ele>
        <time>2022-04-13T10:11:00.286Z</time>
      </trkpt>
      <trkpt lat="42.06497" lon="21.59716">
        <ele>590.123726</ele>
        <time>2022-04-13T10:11:02.280Z</time>
      </trkpt>
      <trkpt lat="42.06483" lon="21.59723">
        <ele>590.135082</ele>
        <time>2022-04-13T10:11:04.277Z</time>
      </trkpt>
      <trkpt lat="42.0647" lon="21.59729">
        <ele>590.146437</ele>
        <time>2022-04-13T10:11:06.282Z</time>
      </trkpt>
      <trkpt lat="42.06455" lon="21.59736">
        <ele>590.158251</ele>
        <time>2022-04-13T10:11:08.271Z</time>
      </trkpt>
      <trkpt lat="42.06441" lon="21.59743">
        <ele>590.16988</ele>
        <time>2022-04-13T10:11:10.274Z</time>
      </trkpt>
      <trkpt lat="42.06427" lon="21.59749">
        <ele>590.181473</ele>
        <time>2022-04-13T10:11:12.276Z</time>
      </trkpt>
      <trkpt lat="42.06413" lon="21.59755">
        <ele>590.192825</ele>
        <time>2022-04-13T10:11:14.300Z</time>
      </trkpt>
      <trkpt lat="42.064" lon="21.59761">
        <ele>590.203663</ele>
        <time>2022-04-13T10:11:16.273Z</time>
      </trkpt>
      <trkpt lat="42.06386" lon="21.59767">
        <ele>590.214926</ele>
        <time>2022-04-13T10:11:18.277Z</time>
      </trkpt>
      <trkpt lat="42.06373" lon="21.59774">
        <ele>590.226038</ele>
        <time>2022-04-13T10:11:20.271Z</time>
      </trkpt>
      <trkpt lat="42.06359" lon="21.5978">
        <ele>590.237003</ele>
        <time>2022-04-13T10:11:22.279Z</time>
      </trkpt>
      <trkpt lat="42.06347" lon="21.59786">
        <ele>590.247477</ele>
        <time>2022-04-13T10:11:24.295Z</time>
      </trkpt>
      <trkpt lat="42.06335" lon="21.59792">
        <ele>590.204661</ele>
        <time>2022-04-13T10:11:26.275Z</time>
      </trkpt>
      <trkpt lat="42.06322" lon="21.59798">
        <ele>589.911799</ele>
        <time>2022-04-13T10:11:28.287Z</time>
      </trkpt>
      <trkpt lat="42.06311" lon="21.59804">
        <ele>589.632887</ele>
        <time>2022-04-13T10:11:30.276Z</time>
      </trkpt>
      <trkpt lat="42.06299" lon="21.59809">
        <ele>589.346019</ele>
        <time>2022-04-13T10:11:32.283Z</time>
      </trkpt>
      <trkpt lat="42.06287" lon="21.59815">
        <ele>589.060805</ele>
        <time>2022-04-13T10:11:34.279Z</time>
      </trkpt>
      <trkpt lat="42.06275" lon="21.5982">
        <ele>588.77881</ele>
        <time>2022-04-13T10:11:36.278Z</time>
      </trkpt>
      <trkpt lat="42.06264" lon="21.59826">
        <ele>588.504744</ele>
        <time>2022-04-13T10:11:38.278Z</time>
      </trkpt>
      <trkpt lat="42.06253" lon="21.59831">
        <ele>588.23455</ele>
        <time>2022-04-13T10:11:40.278Z</time>
      </trkpt>
      <trkpt lat="42.06241" lon="21.59836">
        <ele>587.956868</ele>
        <time>2022-04-13T10:11:42.283Z</time>
      </trkpt>
      <trkpt lat="42.0623" lon="21.59842">
        <ele>587.692158</ele>
        <time>2022-04-13T10:11:44.279Z</time>
      </trkpt>
      <trkpt lat="42.06219" lon="21.59849">
        <ele>587.404137</ele>
        <time>2022-04-13T10:11:46.297Z</time>
      </trkpt>
      <trkpt lat="42.06207" lon="21.59855">
        <ele>587.128524</ele>
        <time>2022-04-13T10:11:48.281Z</time>
      </trkpt>
      <trkpt lat="42.06195" lon="21.59859">
        <ele>586.84341</ele>
        <time>2022-04-13T10:11:50.285Z</time>
      </trkpt>
      <trkpt lat="42.06182" lon="21.59864">
        <ele>586.534607</ele>
        <time>2022-04-13T10:11:52.282Z</time>
      </trkpt>
      <trkpt lat="42.06169" lon="21.5987">
        <ele>586.225176</ele>
        <time>2022-04-13T10:11:54.279Z</time>
      </trkpt>
      <trkpt lat="42.06157" lon="21.59875">
        <ele>585.782411</ele>
        <time>2022-04-13T10:11:56.289Z</time>
      </trkpt>
      <trkpt lat="42.06146" lon="21.59881">
        <ele>585.322644</ele>
        <time>2022-04-13T10:11:58.277Z</time>
      </trkpt>
      <trkpt lat="42.06134" lon="21.59888">
        <ele>584.855528</ele>
        <time>2022-04-13T10:12:00.282Z</time>
      </trkpt>
      <trkpt lat="42.06123" lon="21.59895">
        <ele>584.409899</ele>
        <time>2022-04-13T10:12:02.278Z</time>
      </trkpt>
      <trkpt lat="42.06113" lon="21.59903">
        <ele>583.954185</ele>
        <time>2022-04-13T10:12:04.306Z</time>
      </trkpt>
      <trkpt lat="42.06102" lon="21.59912">
        <ele>583.492857</ele>
        <time>2022-04-13T10:12:06.284Z</time>
      </trkpt>
      <trkpt lat="42.06091" lon="21.5992">
        <ele>583.025127</ele>
        <time>2022-04-13T10:12:08.280Z</time>
      </trkpt>
      <trkpt lat="42.06081" lon="21.59929">
        <ele>582.572087</ele>
        <time>2022-04-13T10:12:10.315Z</time>
      </trkpt>
      <trkpt lat="42.06072" lon="21.59939">
        <ele>582.126339</ele>
        <time>2022-04-13T10:12:12.283Z</time>
      </trkpt>
      <trkpt lat="42.06062" lon="21.59948">
        <ele>581.687099</ele>
        <time>2022-04-13T10:12:14.289Z</time>
      </trkpt>
      <trkpt lat="42.06053" lon="21.59957">
        <ele>581.26621</ele>
        <time>2022-04-13T10:12:16.280Z</time>
      </trkpt>
      <trkpt lat="42.06044" lon="21.59967">
        <ele>580.829747</ele>
        <time>2022-04-13T10:12:18.284Z</time>
      </trkpt>
      <trkpt lat="42.06034" lon="21.59976">
        <ele>580.382905</ele>
        <time>2022-04-13T10:12:20.280Z</time>
      </trkpt>
      <trkpt lat="42.06024" lon="21.59984">
        <ele>579.966886</ele>
        <time>2022-04-13T10:12:22.288Z</time>
      </trkpt>
      <trkpt lat="42.06015" lon="21.59992">
        <ele>579.569516</ele>
        <time>2022-04-13T10:12:24.301Z</time>
      </trkpt>
      <trkpt lat="42.06006" lon="21.59999">
        <ele>578.9481</ele>
        <time>2022-04-13T10:12:26.288Z</time>
      </trkpt>
      <trkpt lat="42.05997" lon="21.60008">
        <ele>578.216123</ele>
        <time>2022-04-13T10:12:28.285Z</time>
      </trkpt>
      <trkpt lat="42.05986" lon="21.60017">
        <ele>577.43119</ele>
        <time>2022-04-13T10:12:30.289Z</time>
      </trkpt>
      <trkpt lat="42.05976" lon="21.60027">
        <ele>576.61723</ele>
        <time>2022-04-13T10:12:32.305Z</time>
      </trkpt>
      <trkpt lat="42.05965" lon="21.60037">
        <ele>575.789702</ele>
        <time>2022-04-13T10:12:34.279Z</time>
      </trkpt>
      <trkpt lat="42.05953" lon="21.60046">
        <ele>574.930113</ele>
        <time>2022-04-13T10:12:36.283Z</time>
      </trkpt>
      <trkpt lat="42.05943" lon="21.60056">
        <ele>574.097716</ele>
        <time>2022-04-13T10:12:38.309Z</time>
      </trkpt>
      <trkpt lat="42.05934" lon="21.60067">
        <ele>573.330892</ele>
        <time>2022-04-13T10:12:40.291Z</time>
      </trkpt>
      <trkpt lat="42.05927" lon="21.60081">
        <ele>572.539458</ele>
        <time>2022-04-13T10:12:42.286Z</time>
      </trkpt>
      <trkpt lat="42.05921" lon="21.60097">
        <ele>571.664169</ele>
        <time>2022-04-13T10:12:44.280Z</time>
      </trkpt>
      <trkpt lat="42.05913" lon="21.60114">
        <ele>570.750214</ele>
        <time>2022-04-13T10:12:46.288Z</time>
      </trkpt>
      <trkpt lat="42.05903" lon="21.60129">
        <ele>569.812747</ele>
        <time>2022-04-13T10:12:48.280Z</time>
      </trkpt>
      <trkpt lat="42.05891" lon="21.60141">
        <ele>568.826741</ele>
        <time>2022-04-13T10:12:50.284Z</time>
      </trkpt>
      <trkpt lat="42.05876" lon="21.6015">
        <ele>567.763678</ele>
        <time>2022-04-13T10:12:52.271Z</time>
      </trkpt>
      <trkpt lat="42.05861" lon="21.60159">
        <ele>566.632731</ele>
        <time>2022-04-13T10:12:54.282Z</time>
      </trkpt>
      <trkpt lat="42.05847" lon="21.60168">
        <ele>565.564751</ele>
        <time>2022-04-13T10:12:56.282Z</time>
      </trkpt>
      <trkpt lat="42.05833" lon="21.60176">
        <ele>564.530339</ele>
        <time>2022-04-13T10:12:58.276Z</time>
      </trkpt>
      <trkpt lat="42.05819" lon="21.60183">
        <ele>563.496978</ele>
        <time>2022-04-13T10:13:00.308Z</time>
      </trkpt>
      <trkpt lat="42.05805" lon="21.60185">
        <ele>562.53754</ele>
        <time>2022-04-13T10:13:02.278Z</time>
      </trkpt>
      <trkpt lat="42.05793" lon="21.60185">
        <ele>561.70942</ele>
        <time>2022-04-13T10:13:04.284Z</time>
      </trkpt>
      <trkpt lat="42.0578" lon="21.60182">
        <ele>560.818418</ele>
        <time>2022-04-13T10:13:06.316Z</time>
      </trkpt>
      <trkpt lat="42.05766" lon="21.60179">
        <ele>559.842726</ele>
        <time>2022-04-13T10:13:08.289Z</time>
      </trkpt>
      <trkpt lat="42.05753" lon="21.60174">
        <ele>558.851345</ele>
        <time>2022-04-13T10:13:10.285Z</time>
      </trkpt>
      <trkpt lat="42.05738" lon="21.60169">
        <ele>557.84363</ele>
        <time>2022-04-13T10:13:12.295Z</time>
      </trkpt>
      <trkpt lat="42.05724" lon="21.60164">
        <ele>556.79335</ele>
        <time>2022-04-13T10:13:14.283Z</time>
      </trkpt>
      <trkpt lat="42.0571" lon="21.60157">
        <ele>555.753488</ele>
        <time>2022-04-13T10:13:16.279Z</time>
      </trkpt>
      <trkpt lat="42.05695" lon="21.6015">
        <ele>555.226251</ele>
        <time>2022-04-13T10:13:18.298Z</time>
      </trkpt>
      <trkpt lat="42.05681" lon="21.60143">
        <ele>554.786547</ele>
        <time>2022-04-13T10:13:20.279Z</time>
      </trkpt>
      <trkpt lat="42.05666" lon="21.60137">
        <ele>554.336696</ele>
        <time>2022-04-13T10:13:22.283Z</time>
      </trkpt>
      <trkpt lat="42.05651" lon="21.60129">
        <ele>553.886134</ele>
        <time>2022-04-13T10:13:24.290Z</time>
      </trkpt>
      <trkpt lat="42.05636" lon="21.60123">
        <ele>553.445046</ele>
        <time>2022-04-13T10:13:26.285Z</time>
      </trkpt>
      <trkpt lat="42.05621" lon="21.60116">
        <ele>553.001271</ele>
        <time>2022-04-13T10:13:28.288Z</time>
      </trkpt>
      <trkpt lat="42.05606" lon="21.60109">
        <ele>552.537837</ele>
        <time>2022-04-13T10:13:30.284Z</time>
      </trkpt>
      <trkpt lat="42.05592" lon="21.60102">
        <ele>552.108925</ele>
        <time>2022-04-13T10:13:32.281Z</time>
      </trkpt>
      <trkpt lat="42.05578" lon="21.60096">
        <ele>551.687458</ele>
        <time>2022-04-13T10:13:34.279Z</time>
      </trkpt>
      <trkpt lat="42.05565" lon="21.60089">
        <ele>551.284112</ele>
        <time>2022-04-13T10:13:36.276Z</time>
      </trkpt>
      <trkpt lat="42.05552" lon="21.60081">
        <ele>550.891236</ele>
        <time>2022-04-13T10:13:38.279Z</time>
      </trkpt>
      <trkpt lat="42.05541" lon="21.60073">
        <ele>550.536261</ele>
        <time>2022-04-13T10:13:40.280Z</time>
      </trkpt>
      <trkpt lat="42.05533" lon="21.60067">
        <ele>550.276996</ele>
        <time>2022-04-13T10:13:42.294Z</time>
      </trkpt>
      <trkpt lat="42.05524" lon="21.60063">
        <ele>549.997118</ele>
        <time>2022-04-13T10:13:45.280Z</time>
      </trkpt>
      <trkpt lat="42.05515" lon="21.60062">
        <ele>549.737237</ele>
        <time>2022-04-13T10:13:49.283Z</time>
      </trkpt>
      <trkpt lat="42.05504" lon="21.60065">
        <ele>549.420141</ele>
        <time>2022-04-13T10:13:54.303Z</time>
      </trkpt>
      <trkpt lat="42.05491" lon="21.60073">
        <ele>549.022736</ele>
        <time>2022-04-13T10:13:57.286Z</time>
      </trkpt>
      <trkpt lat="42.0548" lon="21.6008">
        <ele>548.674762</ele>
        <time>2022-04-13T10:13:59.280Z</time>
      </trkpt>
      <trkpt lat="42.05465" lon="21.60082">
        <ele>548.237011</ele>
        <time>2022-04-13T10:14:01.287Z</time>
      </trkpt>
      <trkpt lat="42.05449" lon="21.60078">
        <ele>547.78334</ele>
        <time>2022-04-13T10:14:03.287Z</time>
      </trkpt>
      <trkpt lat="42.05434" lon="21.60072">
        <ele>547.336104</ele>
        <time>2022-04-13T10:14:05.286Z</time>
      </trkpt>
      <trkpt lat="42.05418" lon="21.60064">
        <ele>546.851484</ele>
        <time>2022-04-13T10:14:07.281Z</time>
      </trkpt>
      <trkpt lat="42.05401" lon="21.60056">
        <ele>546.343573</ele>
        <time>2022-04-13T10:14:09.295Z</time>
      </trkpt>
      <trkpt lat="42.05385" lon="21.60048">
        <ele>545.857041</ele>
        <time>2022-04-13T10:14:11.282Z</time>
      </trkpt>
      <trkpt lat="42.0537" lon="21.60039">
        <ele>545.383035</ele>
        <time>2022-04-13T10:14:13.280Z</time>
      </trkpt>
      <trkpt lat="42.05355" lon="21.60032">
        <ele>544.583616</ele>
        <time>2022-04-13T10:14:15.287Z</time>
      </trkpt>
      <trkpt lat="42.0534" lon="21.60024">
        <ele>543.779615</ele>
        <time>2022-04-13T10:14:17.284Z</time>
      </trkpt>
      <trkpt lat="42.05325" lon="21.60016">
        <ele>542.987846</ele>
        <time>2022-04-13T10:14:19.289Z</time>
      </trkpt>
      <trkpt lat="42.05311" lon="21.60008">
        <ele>542.184328</ele>
        <time>2022-04-13T10:14:21.292Z</time>
      </trkpt>
      <trkpt lat="42.05296" lon="21.59999">
        <ele>541.368817</ele>
        <time>2022-04-13T10:14:23.288Z</time>
      </trkpt>
      <trkpt lat="42.05282" lon="21.5999">
        <ele>540.561977</ele>
        <time>2022-04-13T10:14:25.293Z</time>
      </trkpt>
      <trkpt lat="42.05268" lon="21.5998">
        <ele>539.747206</ele>
        <time>2022-04-13T10:14:27.281Z</time>
      </trkpt>
      <trkpt lat="42.05254" lon="21.5997">
        <ele>538.934523</ele>
        <time>2022-04-13T10:14:29.284Z</time>
      </trkpt>
      <trkpt lat="42.0524" lon="21.59961">
        <ele>538.147573</ele>
        <time>2022-04-13T10:14:31.283Z</time>
      </trkpt>
      <trkpt lat="42.05225" lon="21.59953">
        <ele>537.357165</ele>
        <time>2022-04-13T10:14:33.307Z</time>
      </trkpt>
      <trkpt lat="42.05209" lon="21.59948">
        <ele>536.514655</ele>
        <time>2022-04-13T10:14:35.293Z</time>
      </trkpt>
      <trkpt lat="42.05193" lon="21.59945">
        <ele>535.541518</ele>
        <time>2022-04-13T10:14:37.283Z</time>
      </trkpt>
      <trkpt lat="42.05178" lon="21.59943">
        <ele>534.588498</ele>
        <time>2022-04-13T10:14:39.292Z</time>
      </trkpt>
      <trkpt lat="42.05165" lon="21.59941">
        <ele>533.687093</ele>
        <time>2022-04-13T10:14:41.279Z</time>
      </trkpt>
      <trkpt lat="42.05149" lon="21.59938">
        <ele>532.675475</ele>
        <time>2022-04-13T10:14:43.291Z</time>
      </trkpt>
      <trkpt lat="42.05135" lon="21.59936">
        <ele>531.783211</ele>
        <time>2022-04-13T10:14:45.308Z</time>
      </trkpt>
      <trkpt lat="42.05122" lon="21.59931">
        <ele>530.880536</ele>
        <time>2022-04-13T10:14:47.283Z</time>
      </trkpt>
      <trkpt lat="42.05108" lon="21.59925">
        <ele>529.925473</ele>
        <time>2022-04-13T10:14:49.296Z</time>
      </trkpt>
      <trkpt lat="42.05094" lon="21.59917">
        <ele>528.966209</ele>
        <time>2022-04-13T10:14:51.290Z</time>
      </trkpt>
      <trkpt lat="42.05081" lon="21.59906">
        <ele>527.963723</ele>
        <time>2022-04-13T10:14:53.297Z</time>
      </trkpt>
      <trkpt lat="42.05067" lon="21.59897">
        <ele>526.936727</ele>
        <time>2022-04-13T10:14:55.312Z</time>
      </trkpt>
      <trkpt lat="42.05051" lon="21.59895">
        <ele>525.862267</ele>
        <time>2022-04-13T10:14:57.286Z</time>
      </trkpt>
      <trkpt lat="42.05034" lon="21.599">
        <ele>524.730758</ele>
        <time>2022-04-13T10:14:59.282Z</time>
      </trkpt>
      <trkpt lat="42.05024" lon="21.59904">
        <ele>524.216147</ele>
        <time>2022-04-13T10:15:00.283Z</time>
      </trkpt>
      <trkpt lat="42.05015" lon="21.59908">
        <ele>523.72764</ele>
        <time>2022-04-13T10:15:01.283Z</time>
      </trkpt>
      <trkpt lat="42.05005" lon="21.59912">
        <ele>523.24282</ele>
        <time>2022-04-13T10:15:02.292Z</time>
      </trkpt>
      <trkpt lat="42.04996" lon="21.59916">
        <ele>522.777582</ele>
        <time>2022-04-13T10:15:03.284Z</time>
      </trkpt>
      <trkpt lat="42.04987" lon="21.59919">
        <ele>522.328807</ele>
        <time>2022-04-13T10:15:04.291Z</time>
      </trkpt>
      <trkpt lat="42.0497" lon="21.59919">
        <ele>521.471346</ele>
        <time>2022-04-13T10:15:06.282Z</time>
      </trkpt>
      <trkpt lat="42.04954" lon="21.59913">
        <ele>520.64574</ele>
        <time>2022-04-13T10:15:08.286Z</time>
      </trkpt>
      <trkpt lat="42.04941" lon="21.59904">
        <ele>519.950461</ele>
        <time>2022-04-13T10:15:10.287Z</time>
      </trkpt>
      <trkpt lat="42.04928" lon="21.599">
        <ele>519.301607</ele>
        <time>2022-04-13T10:15:12.280Z</time>
      </trkpt>
      <trkpt lat="42.04913" lon="21.59903">
        <ele>518.567102</ele>
        <time>2022-04-13T10:15:14.283Z</time>
      </trkpt>
      <trkpt lat="42.04899" lon="21.59914">
        <ele>517.78889</ele>
        <time>2022-04-13T10:15:16.278Z</time>
      </trkpt>
      <trkpt lat="42.04888" lon="21.59928">
        <ele>517.026324</ele>
        <time>2022-04-13T10:15:18.282Z</time>
      </trkpt>
      <trkpt lat="42.04876" lon="21.59943">
        <ele>516.255372</ele>
        <time>2022-04-13T10:15:20.287Z</time>
      </trkpt>
      <trkpt lat="42.04862" lon="21.59956">
        <ele>515.408338</ele>
        <time>2022-04-13T10:15:22.304Z</time>
      </trkpt>
      <trkpt lat="42.04846" lon="21.59968">
        <ele>514.433013</ele>
        <time>2022-04-13T10:15:24.289Z</time>
      </trkpt>
      <trkpt lat="42.04837" lon="21.59973">
        <ele>513.920971</ele>
        <time>2022-04-13T10:15:25.288Z</time>
      </trkpt>
      <trkpt lat="42.04828" lon="21.59978">
        <ele>513.399135</ele>
        <time>2022-04-13T10:15:26.288Z</time>
      </trkpt>
      <trkpt lat="42.04818" lon="21.59981">
        <ele>512.87044</ele>
        <time>2022-04-13T10:15:27.284Z</time>
      </trkpt>
      <trkpt lat="42.04809" lon="21.59984">
        <ele>512.35044</ele>
        <time>2022-04-13T10:15:28.280Z</time>
      </trkpt>
      <trkpt lat="42.04799" lon="21.59987">
        <ele>511.8413</ele>
        <time>2022-04-13T10:15:29.283Z</time>
      </trkpt>
      <trkpt lat="42.04791" lon="21.59991">
        <ele>511.361726</ele>
        <time>2022-04-13T10:15:30.287Z</time>
      </trkpt>
      <trkpt lat="42.04775" lon="21.59998">
        <ele>510.478511</ele>
        <time>2022-04-13T10:15:32.280Z</time>
      </trkpt>
      <trkpt lat="42.0476" lon="21.60005">
        <ele>509.660675</ele>
        <time>2022-04-13T10:15:34.286Z</time>
      </trkpt>
      <trkpt lat="42.04747" lon="21.6001">
        <ele>508.927508</ele>
        <time>2022-04-13T10:15:36.279Z</time>
      </trkpt>
      <trkpt lat="42.04734" lon="21.60014">
        <ele>508.200436</ele>
        <time>2022-04-13T10:15:38.310Z</time>
      </trkpt>
      <trkpt lat="42.04719" lon="21.60016">
        <ele>507.418267</ele>
        <time>2022-04-13T10:15:40.280Z</time>
      </trkpt>
      <trkpt lat="42.04704" lon="21.60017">
        <ele>506.616713</ele>
        <time>2022-04-13T10:15:42.288Z</time>
      </trkpt>
      <trkpt lat="42.04687" lon="21.60018">
        <ele>505.63181</ele>
        <time>2022-04-13T10:15:44.311Z</time>
      </trkpt>
      <trkpt lat="42.04671" lon="21.60019">
        <ele>504.538267</ele>
        <time>2022-04-13T10:15:46.281Z</time>
      </trkpt>
      <trkpt lat="42.04654" lon="21.6002">
        <ele>503.416701</ele>
        <time>2022-04-13T10:15:48.287Z</time>
      </trkpt>
      <trkpt lat="42.04636" lon="21.60024">
        <ele>502.272423</ele>
        <time>2022-04-13T10:15:50.316Z</time>
      </trkpt>
      <trkpt lat="42.04627" lon="21.60026">
        <ele>501.677607</ele>
        <time>2022-04-13T10:15:51.278Z</time>
      </trkpt>
      <trkpt lat="42.04618" lon="21.60027">
        <ele>501.082096</ele>
        <time>2022-04-13T10:15:52.292Z</time>
      </trkpt>
      <trkpt lat="42.04609" lon="21.60029">
        <ele>500.486586</ele>
        <time>2022-04-13T10:15:53.285Z</time>
      </trkpt>
      <trkpt lat="42.04592" lon="21.60033">
        <ele>499.319955</ele>
        <time>2022-04-13T10:15:55.287Z</time>
      </trkpt>
      <trkpt lat="42.04575" lon="21.60037">
        <ele>498.192081</ele>
        <time>2022-04-13T10:15:57.284Z</time>
      </trkpt>
      <trkpt lat="42.04558" lon="21.60041">
        <ele>497.077119</ele>
        <time>2022-04-13T10:15:59.283Z</time>
      </trkpt>
      <trkpt lat="42.04541" lon="21.60045">
        <ele>495.979835</ele>
        <time>2022-04-13T10:16:01.284Z</time>
      </trkpt>
      <trkpt lat="42.04525" lon="21.60048">
        <ele>494.894539</ele>
        <time>2022-04-13T10:16:03.286Z</time>
      </trkpt>
      <trkpt lat="42.04509" lon="21.60049">
        <ele>493.989659</ele>
        <time>2022-04-13T10:16:05.284Z</time>
      </trkpt>
      <trkpt lat="42.04493" lon="21.60047">
        <ele>493.212965</ele>
        <time>2022-04-13T10:16:07.280Z</time>
      </trkpt>
      <trkpt lat="42.04479" lon="21.60041">
        <ele>492.486284</ele>
        <time>2022-04-13T10:16:09.295Z</time>
      </trkpt>
      <trkpt lat="42.04465" lon="21.60035">
        <ele>491.756498</ele>
        <time>2022-04-13T10:16:11.286Z</time>
      </trkpt>
      <trkpt lat="42.0445" lon="21.6003">
        <ele>491.002168</ele>
        <time>2022-04-13T10:16:13.280Z</time>
      </trkpt>
      <trkpt lat="42.04434" lon="21.60027">
        <ele>490.212556</ele>
        <time>2022-04-13T10:16:15.295Z</time>
      </trkpt>
      <trkpt lat="42.04418" lon="21.60027">
        <ele>489.420333</ele>
        <time>2022-04-13T10:16:17.287Z</time>
      </trkpt>
      <trkpt lat="42.04402" lon="21.60029">
        <ele>488.614671</ele>
        <time>2022-04-13T10:16:19.279Z</time>
      </trkpt>
      <trkpt lat="42.04386" lon="21.60035">
        <ele>487.820953</ele>
        <time>2022-04-13T10:16:21.291Z</time>
      </trkpt>
      <trkpt lat="42.04371" lon="21.60045">
        <ele>487.016174</ele>
        <time>2022-04-13T10:16:23.294Z</time>
      </trkpt>
      <trkpt lat="42.04357" lon="21.60055">
        <ele>486.210584</ele>
        <time>2022-04-13T10:16:25.290Z</time>
      </trkpt>
      <trkpt lat="42.04341" lon="21.60063">
        <ele>485.375492</ele>
        <time>2022-04-13T10:16:27.284Z</time>
      </trkpt>
      <trkpt lat="42.04325" lon="21.60069">
        <ele>484.438741</ele>
        <time>2022-04-13T10:16:29.296Z</time>
      </trkpt>
      <trkpt lat="42.04308" lon="21.60072">
        <ele>483.511012</ele>
        <time>2022-04-13T10:16:31.283Z</time>
      </trkpt>
      <trkpt lat="42.0429" lon="21.6007">
        <ele>482.514547</ele>
        <time>2022-04-13T10:16:33.284Z</time>
      </trkpt>
      <trkpt lat="42.04273" lon="21.60067">
        <ele>481.557519</ele>
        <time>2022-04-13T10:16:35.297Z</time>
      </trkpt>
      <trkpt lat="42.04258" lon="21.60065">
        <ele>480.694181</ele>
        <time>2022-04-13T10:16:37.284Z</time>
      </trkpt>
      <trkpt lat="42.04244" lon="21.60063">
        <ele>479.917698</ele>
        <time>2022-04-13T10:16:39.288Z</time>
      </trkpt>
      <trkpt lat="42.0423" lon="21.60062">
        <ele>479.160747</ele>
        <time>2022-04-13T10:16:41.284Z</time>
      </trkpt>
      <trkpt lat="42.04215" lon="21.60062">
        <ele>478.348227</ele>
        <time>2022-04-13T10:16:43.283Z</time>
      </trkpt>
      <trkpt lat="42.042" lon="21.60058">
        <ele>477.507295</ele>
        <time>2022-04-13T10:16:45.283Z</time>
      </trkpt>
      <trkpt lat="42.04187" lon="21.6005">
        <ele>476.704311</ele>
        <time>2022-04-13T10:16:47.284Z</time>
      </trkpt>
      <trkpt lat="42.04177" lon="21.60037">
        <ele>475.923229</ele>
        <time>2022-04-13T10:16:49.278Z</time>
      </trkpt>
      <trkpt lat="42.04169" lon="21.60025">
        <ele>475.31646</ele>
        <time>2022-04-13T10:16:51.283Z</time>
      </trkpt>
      <trkpt lat="42.0416" lon="21.60017">
        <ele>474.808546</ele>
        <time>2022-04-13T10:16:53.279Z</time>
      </trkpt>
      <trkpt lat="42.04148" lon="21.6001">
        <ele>474.199126</ele>
        <time>2022-04-13T10:16:55.279Z</time>
      </trkpt>
      <trkpt lat="42.04134" lon="21.60008">
        <ele>473.53467</ele>
        <time>2022-04-13T10:16:57.279Z</time>
      </trkpt>
      <trkpt lat="42.0412" lon="21.60009">
        <ele>472.846837</ele>
        <time>2022-04-13T10:16:59.282Z</time>
      </trkpt>
      <trkpt lat="42.04105" lon="21.60008">
        <ele>472.149836</ele>
        <time>2022-04-13T10:17:01.278Z</time>
      </trkpt>
      <trkpt lat="42.04091" lon="21.60007">
        <ele>471.482672</ele>
        <time>2022-04-13T10:17:03.274Z</time>
      </trkpt>
      <trkpt lat="42.04078" lon="21.60004">
        <ele>470.8788</ele>
        <time>2022-04-13T10:17:05.283Z</time>
      </trkpt>
      <trkpt lat="42.04067" lon="21.60001">
        <ele>470.304106</ele>
        <time>2022-04-13T10:17:07.284Z</time>
      </trkpt>
      <trkpt lat="42.04055" lon="21.59998">
        <ele>469.73195</ele>
        <time>2022-04-13T10:17:09.279Z</time>
      </trkpt>
      <trkpt lat="42.04043" lon="21.59994">
        <ele>469.13822</ele>
        <time>2022-04-13T10:17:11.288Z</time>
      </trkpt>
      <trkpt lat="42.04029" lon="21.59988">
        <ele>468.484101</ele>
        <time>2022-04-13T10:17:13.287Z</time>
      </trkpt>
      <trkpt lat="42.04016" lon="21.59981">
        <ele>467.799443</ele>
        <time>2022-04-13T10:17:15.281Z</time>
      </trkpt>
      <trkpt lat="42.04001" lon="21.59974">
        <ele>467.076824</ele>
        <time>2022-04-13T10:17:17.278Z</time>
      </trkpt>
      <trkpt lat="42.03986" lon="21.59967">
        <ele>466.421117</ele>
        <time>2022-04-13T10:17:19.281Z</time>
      </trkpt>
      <trkpt lat="42.0397" lon="21.59959">
        <ele>465.74464</ele>
        <time>2022-04-13T10:17:21.280Z</time>
      </trkpt>
      <trkpt lat="42.03954" lon="21.59951">
        <ele>465.081717</ele>
        <time>2022-04-13T10:17:23.280Z</time>
      </trkpt>
      <trkpt lat="42.0394" lon="21.59941">
        <ele>464.447685</ele>
        <time>2022-04-13T10:17:25.288Z</time>
      </trkpt>
      <trkpt lat="42.03928" lon="21.59928">
        <ele>463.835979</ele>
        <time>2022-04-13T10:17:27.283Z</time>
      </trkpt>
      <trkpt lat="42.03919" lon="21.59913">
        <ele>463.242538</ele>
        <time>2022-04-13T10:17:29.281Z</time>
      </trkpt>
      <trkpt lat="42.0391" lon="21.59896">
        <ele>462.62854</ele>
        <time>2022-04-13T10:17:31.276Z</time>
      </trkpt>
      <trkpt lat="42.03903" lon="21.59877">
        <ele>462.010808</ele>
        <time>2022-04-13T10:17:33.278Z</time>
      </trkpt>
      <trkpt lat="42.03897" lon="21.59859">
        <ele>461.415738</ele>
        <time>2022-04-13T10:17:35.276Z</time>
      </trkpt>
      <trkpt lat="42.03889" lon="21.59842">
        <ele>460.842425</ele>
        <time>2022-04-13T10:17:37.285Z</time>
      </trkpt>
      <trkpt lat="42.0388" lon="21.59827">
        <ele>460.249853</ele>
        <time>2022-04-13T10:17:39.304Z</time>
      </trkpt>
      <trkpt lat="42.03868" lon="21.59812">
        <ele>459.657452</ele>
        <time>2022-04-13T10:17:41.287Z</time>
      </trkpt>
      <trkpt lat="42.03855" lon="21.59799">
        <ele>459.081118</ele>
        <time>2022-04-13T10:17:43.296Z</time>
      </trkpt>
      <trkpt lat="42.03848" lon="21.59792">
        <ele>458.757498</ele>
        <time>2022-04-13T10:17:44.280Z</time>
      </trkpt>
      <trkpt lat="42.0384" lon="21.59784">
        <ele>458.430767</ele>
        <time>2022-04-13T10:17:45.279Z</time>
      </trkpt>
      <trkpt lat="42.03833" lon="21.59777">
        <ele>458.108095</ele>
        <time>2022-04-13T10:17:46.276Z</time>
      </trkpt>
      <trkpt lat="42.03826" lon="21.59769">
        <ele>457.775645</ele>
        <time>2022-04-13T10:17:47.284Z</time>
      </trkpt>
      <trkpt lat="42.03818" lon="21.59762">
        <ele>457.434365</ele>
        <time>2022-04-13T10:17:48.290Z</time>
      </trkpt>
      <trkpt lat="42.0381" lon="21.59754">
        <ele>457.106057</ele>
        <time>2022-04-13T10:17:49.309Z</time>
      </trkpt>
      <trkpt lat="42.03797" lon="21.5974">
        <ele>456.492786</ele>
        <time>2022-04-13T10:17:51.281Z</time>
      </trkpt>
      <trkpt lat="42.03784" lon="21.59728">
        <ele>455.922343</ele>
        <time>2022-04-13T10:17:53.279Z</time>
      </trkpt>
      <trkpt lat="42.03769" lon="21.59718">
        <ele>455.359121</ele>
        <time>2022-04-13T10:17:55.287Z</time>
      </trkpt>
      <trkpt lat="42.03754" lon="21.59711">
        <ele>454.769531</ele>
        <time>2022-04-13T10:17:57.282Z</time>
      </trkpt>
      <trkpt lat="42.03737" lon="21.59706">
        <ele>454.167012</ele>
        <time>2022-04-13T10:17:59.277Z</time>
      </trkpt>
      <trkpt lat="42.03721" lon="21.59701">
        <ele>453.552436</ele>
        <time>2022-04-13T10:18:01.283Z</time>
      </trkpt>
      <trkpt lat="42.03705" lon="21.59696">
        <ele>452.403243</ele>
        <time>2022-04-13T10:18:03.272Z</time>
      </trkpt>
      <trkpt lat="42.03689" lon="21.5969">
        <ele>451.23096</ele>
        <time>2022-04-13T10:18:05.280Z</time>
      </trkpt>
      <trkpt lat="42.03672" lon="21.59684">
        <ele>449.971429</ele>
        <time>2022-04-13T10:18:07.279Z</time>
      </trkpt>
      <trkpt lat="42.03663" lon="21.59681">
        <ele>449.307641</ele>
        <time>2022-04-13T10:18:08.283Z</time>
      </trkpt>
      <trkpt lat="42.03653" lon="21.59678">
        <ele>448.622042</ele>
        <time>2022-04-13T10:18:09.285Z</time>
      </trkpt>
      <trkpt lat="42.03644" lon="21.59674">
        <ele>447.933724</ele>
        <time>2022-04-13T10:18:10.274Z</time>
      </trkpt>
      <trkpt lat="42.03634" lon="21.59671">
        <ele>447.239965</ele>
        <time>2022-04-13T10:18:11.288Z</time>
      </trkpt>
      <trkpt lat="42.03625" lon="21.59668">
        <ele>446.554366</ele>
        <time>2022-04-13T10:18:12.272Z</time>
      </trkpt>
      <trkpt lat="42.03616" lon="21.59664">
        <ele>445.875594</ele>
        <time>2022-04-13T10:18:13.287Z</time>
      </trkpt>
      <trkpt lat="42.03606" lon="21.59661">
        <ele>445.194075</ele>
        <time>2022-04-13T10:18:14.269Z</time>
      </trkpt>
      <trkpt lat="42.0359" lon="21.59654">
        <ele>443.961201</ele>
        <time>2022-04-13T10:18:16.275Z</time>
      </trkpt>
      <trkpt lat="42.03581" lon="21.59651">
        <ele>443.313686</ele>
        <time>2022-04-13T10:18:17.303Z</time>
      </trkpt>
      <trkpt lat="42.03571" lon="21.59648">
        <ele>442.634913</ele>
        <time>2022-04-13T10:18:18.284Z</time>
      </trkpt>
      <trkpt lat="42.03562" lon="21.59644">
        <ele>441.939789</ele>
        <time>2022-04-13T10:18:19.270Z</time>
      </trkpt>
      <trkpt lat="42.03552" lon="21.5964">
        <ele>441.226808</ele>
        <time>2022-04-13T10:18:20.279Z</time>
      </trkpt>
      <trkpt lat="42.03542" lon="21.59636">
        <ele>440.438492</ele>
        <time>2022-04-13T10:18:21.284Z</time>
      </trkpt>
      <trkpt lat="42.03533" lon="21.59632">
        <ele>439.643456</ele>
        <time>2022-04-13T10:18:22.272Z</time>
      </trkpt>
      <trkpt lat="42.03524" lon="21.59628">
        <ele>438.899506</ele>
        <time>2022-04-13T10:18:23.280Z</time>
      </trkpt>
      <trkpt lat="42.03515" lon="21.59623">
        <ele>438.140465</ele>
        <time>2022-04-13T10:18:24.279Z</time>
      </trkpt>
      <trkpt lat="42.03499" lon="21.59615">
        <ele>436.774642</ele>
        <time>2022-04-13T10:18:26.278Z</time>
      </trkpt>
      <trkpt lat="42.03485" lon="21.59606">
        <ele>435.470933</ele>
        <time>2022-04-13T10:18:28.281Z</time>
      </trkpt>
      <trkpt lat="42.03469" lon="21.59597">
        <ele>434.120594</ele>
        <time>2022-04-13T10:18:30.278Z</time>
      </trkpt>
      <trkpt lat="42.03454" lon="21.59589">
        <ele>432.779341</ele>
        <time>2022-04-13T10:18:32.271Z</time>
      </trkpt>
      <trkpt lat="42.03438" lon="21.59581">
        <ele>431.483183</ele>
        <time>2022-04-13T10:18:34.277Z</time>
      </trkpt>
      <trkpt lat="42.03424" lon="21.59574">
        <ele>430.22197</ele>
        <time>2022-04-13T10:18:36.274Z</time>
      </trkpt>
      <trkpt lat="42.03409" lon="21.59568">
        <ele>428.955197</ele>
        <time>2022-04-13T10:18:38.275Z</time>
      </trkpt>
      <trkpt lat="42.03394" lon="21.59562">
        <ele>427.700762</ele>
        <time>2022-04-13T10:18:40.277Z</time>
      </trkpt>
      <trkpt lat="42.03379" lon="21.59556">
        <ele>426.505278</ele>
        <time>2022-04-13T10:18:42.284Z</time>
      </trkpt>
      <trkpt lat="42.03366" lon="21.59551">
        <ele>425.380119</ele>
        <time>2022-04-13T10:18:44.319Z</time>
      </trkpt>
      <trkpt lat="42.03352" lon="21.59546">
        <ele>424.224034</ele>
        <time>2022-04-13T10:18:46.290Z</time>
      </trkpt>
      <trkpt lat="42.03337" lon="21.59541">
        <ele>423.008814</ele>
        <time>2022-04-13T10:18:48.274Z</time>
      </trkpt>
      <trkpt lat="42.03323" lon="21.59536">
        <ele>421.796404</ele>
        <time>2022-04-13T10:18:50.289Z</time>
      </trkpt>
      <trkpt lat="42.03307" lon="21.5953">
        <ele>420.511569</ele>
        <time>2022-04-13T10:18:52.276Z</time>
      </trkpt>
      <trkpt lat="42.03292" lon="21.59523">
        <ele>419.235669</ele>
        <time>2022-04-13T10:18:54.283Z</time>
      </trkpt>
      <trkpt lat="42.03278" lon="21.59516">
        <ele>418.009135</ele>
        <time>2022-04-13T10:18:56.280Z</time>
      </trkpt>
      <trkpt lat="42.03262" lon="21.59509">
        <ele>416.704829</ele>
        <time>2022-04-13T10:18:58.275Z</time>
      </trkpt>
      <trkpt lat="42.03247" lon="21.59501">
        <ele>415.34693</ele>
        <time>2022-04-13T10:19:00.277Z</time>
      </trkpt>
      <trkpt lat="42.03231" lon="21.59492">
        <ele>413.999749</ele>
        <time>2022-04-13T10:19:02.279Z</time>
      </trkpt>
      <trkpt lat="42.03216" lon="21.59483">
        <ele>412.7109</ele>
        <time>2022-04-13T10:19:04.289Z</time>
      </trkpt>
      <trkpt lat="42.03201" lon="21.59475">
        <ele>411.424085</ele>
        <time>2022-04-13T10:19:06.303Z</time>
      </trkpt>
      <trkpt lat="42.03187" lon="21.59467">
        <ele>410.212561</ele>
        <time>2022-04-13T10:19:08.276Z</time>
      </trkpt>
      <trkpt lat="42.03172" lon="21.59459">
        <ele>408.97965</ele>
        <time>2022-04-13T10:19:10.275Z</time>
      </trkpt>
      <trkpt lat="42.03157" lon="21.59451">
        <ele>407.716798</ele>
        <time>2022-04-13T10:19:12.280Z</time>
      </trkpt>
      <trkpt lat="42.03142" lon="21.59441">
        <ele>406.504949</ele>
        <time>2022-04-13T10:19:14.273Z</time>
      </trkpt>
      <trkpt lat="42.0313" lon="21.59431">
        <ele>405.352211</ele>
        <time>2022-04-13T10:19:16.276Z</time>
      </trkpt>
      <trkpt lat="42.03118" lon="21.5942">
        <ele>404.277785</ele>
        <time>2022-04-13T10:19:18.280Z</time>
      </trkpt>
      <trkpt lat="42.03109" lon="21.59409">
        <ele>403.297719</ele>
        <time>2022-04-13T10:19:20.278Z</time>
      </trkpt>
      <trkpt lat="42.03102" lon="21.59397">
        <ele>402.421867</ele>
        <time>2022-04-13T10:19:22.272Z</time>
      </trkpt>
      <trkpt lat="42.03096" lon="21.59384">
        <ele>401.583601</ele>
        <time>2022-04-13T10:19:24.288Z</time>
      </trkpt>
      <trkpt lat="42.0309" lon="21.59369">
        <ele>400.610981</ele>
        <time>2022-04-13T10:19:26.278Z</time>
      </trkpt>
      <trkpt lat="42.03084" lon="21.5935">
        <ele>399.449306</ele>
        <time>2022-04-13T10:19:28.297Z</time>
      </trkpt>
      <trkpt lat="42.03082" lon="21.59328">
        <ele>398.19629</ele>
        <time>2022-04-13T10:19:30.274Z</time>
      </trkpt>
      <trkpt lat="42.03081" lon="21.59305">
        <ele>397.44374</ele>
        <time>2022-04-13T10:19:32.278Z</time>
      </trkpt>
      <trkpt lat="42.03079" lon="21.59284">
        <ele>396.747991</ele>
        <time>2022-04-13T10:19:34.279Z</time>
      </trkpt>
      <trkpt lat="42.03073" lon="21.59265">
        <ele>396.040202</ele>
        <time>2022-04-13T10:19:36.283Z</time>
      </trkpt>
      <trkpt lat="42.03063" lon="21.59246">
        <ele>395.278153</ele>
        <time>2022-04-13T10:19:38.282Z</time>
      </trkpt>
      <trkpt lat="42.03051" lon="21.59228">
        <ele>394.496086</ele>
        <time>2022-04-13T10:19:40.273Z</time>
      </trkpt>
      <trkpt lat="42.03039" lon="21.59212">
        <ele>393.73268</ele>
        <time>2022-04-13T10:19:42.279Z</time>
      </trkpt>
      <trkpt lat="42.03026" lon="21.59197">
        <ele>392.988014</ele>
        <time>2022-04-13T10:19:44.275Z</time>
      </trkpt>
      <trkpt lat="42.03015" lon="21.59183">
        <ele>392.316866</ele>
        <time>2022-04-13T10:19:46.282Z</time>
      </trkpt>
      <trkpt lat="42.03005" lon="21.59167">
        <ele>391.628791</ele>
        <time>2022-04-13T10:19:48.275Z</time>
      </trkpt>
      <trkpt lat="42.02998" lon="21.59147">
        <ele>390.901981</ele>
        <time>2022-04-13T10:19:50.274Z</time>
      </trkpt>
      <trkpt lat="42.02993" lon="21.59126">
        <ele>390.157682</ele>
        <time>2022-04-13T10:19:52.274Z</time>
      </trkpt>
      <trkpt lat="42.02989" lon="21.59105">
        <ele>389.369993</ele>
        <time>2022-04-13T10:19:54.285Z</time>
      </trkpt>
      <trkpt lat="42.02986" lon="21.59085">
        <ele>388.58543</ele>
        <time>2022-04-13T10:19:56.298Z</time>
      </trkpt>
      <trkpt lat="42.02984" lon="21.59067">
        <ele>387.89054</ele>
        <time>2022-04-13T10:19:58.273Z</time>
      </trkpt>
      <trkpt lat="42.02986" lon="21.59051">
        <ele>387.283514</ele>
        <time>2022-04-13T10:20:00.289Z</time>
      </trkpt>
      <trkpt lat="42.02992" lon="21.59036">
        <ele>386.649852</ele>
        <time>2022-04-13T10:20:02.303Z</time>
      </trkpt>
      <trkpt lat="42.02997" lon="21.59021">
        <ele>386.001555</ele>
        <time>2022-04-13T10:20:04.282Z</time>
      </trkpt>
      <trkpt lat="42.02999" lon="21.59006">
        <ele>385.439409</ele>
        <time>2022-04-13T10:20:06.277Z</time>
      </trkpt>
      <trkpt lat="42.02994" lon="21.58993">
        <ele>384.885652</ele>
        <time>2022-04-13T10:20:08.309Z</time>
      </trkpt>
      <trkpt lat="42.02986" lon="21.58982">
        <ele>384.325106</ele>
        <time>2022-04-13T10:20:10.278Z</time>
      </trkpt>
      <trkpt lat="42.02979" lon="21.58969">
        <ele>383.711088</ele>
        <time>2022-04-13T10:20:12.276Z</time>
      </trkpt>
      <trkpt lat="42.02975" lon="21.58952">
        <ele>383.052345</ele>
        <time>2022-04-13T10:20:14.297Z</time>
      </trkpt>
      <trkpt lat="42.02977" lon="21.58936">
        <ele>382.411265</ele>
        <time>2022-04-13T10:20:16.279Z</time>
      </trkpt>
      <trkpt lat="42.02987" lon="21.58921">
        <ele>381.658031</ele>
        <time>2022-04-13T10:20:18.283Z</time>
      </trkpt>
      <trkpt lat="42.02997" lon="21.58907">
        <ele>380.858037</ele>
        <time>2022-04-13T10:20:20.279Z</time>
      </trkpt>
      <trkpt lat="42.03003" lon="21.58888">
        <ele>379.842122</ele>
        <time>2022-04-13T10:20:22.420Z</time>
      </trkpt>
      <trkpt lat="42.03004" lon="21.58865">
        <ele>378.721746</ele>
        <time>2022-04-13T10:20:24.279Z</time>
      </trkpt>
      <trkpt lat="42.03002" lon="21.58853">
        <ele>378.134409</ele>
        <time>2022-04-13T10:20:25.311Z</time>
      </trkpt>
      <trkpt lat="42.02999" lon="21.58841">
        <ele>377.51873</ele>
        <time>2022-04-13T10:20:26.274Z</time>
      </trkpt>
      <trkpt lat="42.02995" lon="21.5883">
        <ele>376.902598</ele>
        <time>2022-04-13T10:20:27.276Z</time>
      </trkpt>
      <trkpt lat="42.02991" lon="21.58819">
        <ele>376.295208</ele>
        <time>2022-04-13T10:20:28.273Z</time>
      </trkpt>
      <trkpt lat="42.02987" lon="21.58807">
        <ele>375.682939</ele>
        <time>2022-04-13T10:20:29.275Z</time>
      </trkpt>
      <trkpt lat="42.02983" lon="21.58795">
        <ele>375.057308</ele>
        <time>2022-04-13T10:20:30.281Z</time>
      </trkpt>
      <trkpt lat="42.02979" lon="21.58783">
        <ele>374.418261</ele>
        <time>2022-04-13T10:20:31.284Z</time>
      </trkpt>
      <trkpt lat="42.02975" lon="21.58771">
        <ele>373.778442</ele>
        <time>2022-04-13T10:20:32.277Z</time>
      </trkpt>
      <trkpt lat="42.02971" lon="21.5876">
        <ele>373.165134</ele>
        <time>2022-04-13T10:20:33.283Z</time>
      </trkpt>
      <trkpt lat="42.02968" lon="21.58749">
        <ele>372.567022</ele>
        <time>2022-04-13T10:20:34.272Z</time>
      </trkpt>
      <trkpt lat="42.02961" lon="21.58727">
        <ele>371.419803</ele>
        <time>2022-04-13T10:20:36.300Z</time>
      </trkpt>
      <trkpt lat="42.02955" lon="21.58705">
        <ele>370.26066</ele>
        <time>2022-04-13T10:20:38.278Z</time>
      </trkpt>
      <trkpt lat="42.02951" lon="21.58693">
        <ele>369.651603</ele>
        <time>2022-04-13T10:20:39.283Z</time>
      </trkpt>
      <trkpt lat="42.02947" lon="21.58681">
        <ele>369.08592</ele>
        <time>2022-04-13T10:20:40.279Z</time>
      </trkpt>
      <trkpt lat="42.02943" lon="21.58669">
        <ele>368.55671</ele>
        <time>2022-04-13T10:20:41.283Z</time>
      </trkpt>
      <trkpt lat="42.02939" lon="21.58657">
        <ele>368.013746</ele>
        <time>2022-04-13T10:20:42.283Z</time>
      </trkpt>
      <trkpt lat="42.02935" lon="21.58644">
        <ele>367.453161</ele>
        <time>2022-04-13T10:20:43.291Z</time>
      </trkpt>
      <trkpt lat="42.02931" lon="21.58631">
        <ele>366.883889</ele>
        <time>2022-04-13T10:20:44.290Z</time>
      </trkpt>
      <trkpt lat="42.02927" lon="21.58617">
        <ele>366.296744</ele>
        <time>2022-04-13T10:20:45.275Z</time>
      </trkpt>
      <trkpt lat="42.02923" lon="21.58604">
        <ele>365.707881</ele>
        <time>2022-04-13T10:20:46.272Z</time>
      </trkpt>
      <trkpt lat="42.02919" lon="21.5859">
        <ele>365.119019</ele>
        <time>2022-04-13T10:20:47.309Z</time>
      </trkpt>
      <trkpt lat="42.02915" lon="21.58576">
        <ele>364.53401</ele>
        <time>2022-04-13T10:20:48.274Z</time>
      </trkpt>
      <trkpt lat="42.02911" lon="21.58563">
        <ele>363.962015</ele>
        <time>2022-04-13T10:20:49.351Z</time>
      </trkpt>
      <trkpt lat="42.02908" lon="21.5855">
        <ele>363.409806</ele>
        <time>2022-04-13T10:20:50.277Z</time>
      </trkpt>
      <trkpt lat="42.02905" lon="21.58536">
        <ele>362.861421</ele>
        <time>2022-04-13T10:20:51.286Z</time>
      </trkpt>
      <trkpt lat="42.02902" lon="21.58524">
        <ele>362.326089</ele>
        <time>2022-04-13T10:20:52.283Z</time>
      </trkpt>
      <trkpt lat="42.029" lon="21.58511">
        <ele>361.804373</ele>
        <time>2022-04-13T10:20:53.286Z</time>
      </trkpt>
      <trkpt lat="42.02897" lon="21.58499">
        <ele>361.295759</ele>
        <time>2022-04-13T10:20:54.280Z</time>
      </trkpt>
      <trkpt lat="42.02894" lon="21.58487">
        <ele>360.8026</ele>
        <time>2022-04-13T10:20:55.283Z</time>
      </trkpt>
      <trkpt lat="42.02891" lon="21.58476">
        <ele>360.311238</ele>
        <time>2022-04-13T10:20:56.283Z</time>
      </trkpt>
      <trkpt lat="42.02888" lon="21.58464">
        <ele>359.824949</ele>
        <time>2022-04-13T10:20:57.277Z</time>
      </trkpt>
      <trkpt lat="42.02882" lon="21.58443">
        <ele>360.006892</ele>
        <time>2022-04-13T10:20:59.281Z</time>
      </trkpt>
      <trkpt lat="42.02874" lon="21.58425">
        <ele>360.375574</ele>
        <time>2022-04-13T10:21:01.283Z</time>
      </trkpt>
      <trkpt lat="42.02862" lon="21.58412">
        <ele>360.719766</ele>
        <time>2022-04-13T10:21:03.299Z</time>
      </trkpt>
      <trkpt lat="42.02851" lon="21.58402">
        <ele>361.016954</ele>
        <time>2022-04-13T10:21:05.283Z</time>
      </trkpt>
      <trkpt lat="42.02842" lon="21.58394">
        <ele>361.283519</ele>
        <time>2022-04-13T10:21:07.274Z</time>
      </trkpt>
      <trkpt lat="42.02834" lon="21.58386">
        <ele>361.508937</ele>
        <time>2022-04-13T10:21:09.302Z</time>
      </trkpt>
      <trkpt lat="42.02824" lon="21.58376">
        <ele>361.785837</ele>
        <time>2022-04-13T10:21:12.274Z</time>
      </trkpt>
      <trkpt lat="42.02817" lon="21.58367">
        <ele>362.026139</ele>
        <time>2022-04-13T10:21:16.277Z</time>
      </trkpt>
      <trkpt lat="42.02809" lon="21.58358">
        <ele>362.264691</ele>
        <time>2022-04-13T10:21:22.278Z</time>
      </trkpt>
      <trkpt lat="42.02803" lon="21.58348">
        <ele>362.48672</ele>
        <time>2022-04-13T10:21:27.283Z</time>
      </trkpt>
      <trkpt lat="42.02799" lon="21.58337">
        <ele>362.694947</ele>
        <time>2022-04-13T10:21:32.276Z</time>
      </trkpt>
      <trkpt lat="42.02795" lon="21.58325">
        <ele>362.920313</ele>
        <time>2022-04-13T10:21:37.280Z</time>
      </trkpt>
      <trkpt lat="42.02793" lon="21.58311">
        <ele>363.160473</ele>
        <time>2022-04-13T10:21:42.300Z</time>
      </trkpt>
      <trkpt lat="42.02791" lon="21.58298">
        <ele>363.386637</ele>
        <time>2022-04-13T10:21:46.279Z</time>
      </trkpt>
      <trkpt lat="42.02788" lon="21.58286">
        <ele>363.609629</ele>
        <time>2022-04-13T10:21:50.275Z</time>
      </trkpt>
      <trkpt lat="42.02785" lon="21.58274">
        <ele>363.827962</ele>
        <time>2022-04-13T10:21:54.344Z</time>
      </trkpt>
      <trkpt lat="42.02783" lon="21.58261">
        <ele>364.701346</ele>
        <time>2022-04-13T10:21:58.320Z</time>
      </trkpt>
      <trkpt lat="42.0278" lon="21.58248">
        <ele>365.70786</ele>
        <time>2022-04-13T10:22:03.310Z</time>
      </trkpt>
      <trkpt lat="42.02777" lon="21.58236">
        <ele>366.566141</ele>
        <time>2022-04-13T10:22:07.338Z</time>
      </trkpt>
      <trkpt lat="42.02774" lon="21.58224">
        <ele>367.462644</ele>
        <time>2022-04-13T10:22:11.348Z</time>
      </trkpt>
      <trkpt lat="42.02771" lon="21.58212">
        <ele>368.369585</ele>
        <time>2022-04-13T10:22:15.298Z</time>
      </trkpt>
      <trkpt lat="42.02768" lon="21.58199">
        <ele>369.329147</ele>
        <time>2022-04-13T10:22:19.297Z</time>
      </trkpt>
      <trkpt lat="42.02765" lon="21.58186">
        <ele>370.278311</ele>
        <time>2022-04-13T10:22:23.309Z</time>
      </trkpt>
      <trkpt lat="42.02762" lon="21.58174">
        <ele>371.170316</ele>
        <time>2022-04-13T10:22:27.303Z</time>
      </trkpt>
      <trkpt lat="42.0276" lon="21.5816">
        <ele>372.141659</ele>
        <time>2022-04-13T10:22:32.303Z</time>
      </trkpt>
      <trkpt lat="42.02756" lon="21.58147">
        <ele>373.149724</ele>
        <time>2022-04-13T10:22:37.302Z</time>
      </trkpt>
      <trkpt lat="42.02755" lon="21.58132">
        <ele>374.169055</ele>
        <time>2022-04-13T10:22:42.303Z</time>
      </trkpt>
      <trkpt lat="42.02753" lon="21.58119">
        <ele>375.113118</ele>
        <time>2022-04-13T10:22:47.306Z</time>
      </trkpt>
      <trkpt lat="42.02754" lon="21.58106">
        <ele>376.035535</ele>
        <time>2022-04-13T10:22:52.307Z</time>
      </trkpt>
      <trkpt lat="42.02755" lon="21.58092">
        <ele>377.00398</ele>
        <time>2022-04-13T10:22:57.343Z</time>
      </trkpt>
      <trkpt lat="42.02755" lon="21.58078">
        <ele>378.030766</ele>
        <time>2022-04-13T10:23:02.312Z</time>
      </trkpt>
      <trkpt lat="42.02756" lon="21.58065">
        <ele>378.946804</ele>
        <time>2022-04-13T10:23:06.310Z</time>
      </trkpt>
      <trkpt lat="42.02757" lon="21.58051">
        <ele>379.907283</ele>
        <time>2022-04-13T10:23:10.300Z</time>
      </trkpt>
      <trkpt lat="42.02758" lon="21.58039">
        <ele>380.758251</ele>
        <time>2022-04-13T10:23:13.305Z</time>
      </trkpt>
      <trkpt lat="42.0276" lon="21.58026">
        <ele>381.570169</ele>
        <time>2022-04-13T10:23:16.299Z</time>
      </trkpt>
      <trkpt lat="42.02761" lon="21.58014">
        <ele>382.307733</ele>
        <time>2022-04-13T10:23:19.331Z</time>
      </trkpt>
      <trkpt lat="42.02763" lon="21.57999">
        <ele>383.265318</ele>
        <time>2022-04-13T10:23:23.305Z</time>
      </trkpt>
      <trkpt lat="42.02762" lon="21.57983">
        <ele>384.193841</ele>
        <time>2022-04-13T10:23:27.300Z</time>
      </trkpt>
      <trkpt lat="42.02763" lon="21.57968">
        <ele>385.132343</ele>
        <time>2022-04-13T10:23:31.289Z</time>
      </trkpt>
      <trkpt lat="42.02766" lon="21.57954">
        <ele>386.022553</ele>
        <time>2022-04-13T10:23:35.283Z</time>
      </trkpt>
      <trkpt lat="42.02766" lon="21.57938">
        <ele>386.99417</ele>
        <time>2022-04-13T10:23:39.302Z</time>
      </trkpt>
      <trkpt lat="42.02768" lon="21.57922">
        <ele>387.957816</ele>
        <time>2022-04-13T10:23:43.310Z</time>
      </trkpt>
      <trkpt lat="42.02769" lon="21.57908">
        <ele>388.841739</ele>
        <time>2022-04-13T10:23:47.301Z</time>
      </trkpt>
      <trkpt lat="42.0277" lon="21.57893">
        <ele>389.751987</ele>
        <time>2022-04-13T10:23:52.306Z</time>
      </trkpt>
      <trkpt lat="42.02771" lon="21.5788">
        <ele>390.528693</ele>
        <time>2022-04-13T10:23:56.299Z</time>
      </trkpt>
      <trkpt lat="42.02772" lon="21.57868">
        <ele>391.299451</ele>
        <time>2022-04-13T10:24:00.298Z</time>
      </trkpt>
      <trkpt lat="42.02773" lon="21.57856">
        <ele>392.057318</ele>
        <time>2022-04-13T10:24:04.340Z</time>
      </trkpt>
      <trkpt lat="42.02774" lon="21.57842">
        <ele>392.902368</ele>
        <time>2022-04-13T10:24:08.307Z</time>
      </trkpt>
      <trkpt lat="42.02775" lon="21.57828">
        <ele>393.752226</ele>
        <time>2022-04-13T10:24:11.301Z</time>
      </trkpt>
      <trkpt lat="42.02775" lon="21.57812">
        <ele>394.722695</ele>
        <time>2022-04-13T10:24:14.295Z</time>
      </trkpt>
      <trkpt lat="42.02776" lon="21.57799">
        <ele>395.512344</ele>
        <time>2022-04-13T10:24:16.375Z</time>
      </trkpt>
      <trkpt lat="42.02778" lon="21.57785">
        <ele>395.473316</ele>
        <time>2022-04-13T10:24:18.283Z</time>
      </trkpt>
      <trkpt lat="42.02777" lon="21.57768">
        <ele>395.267518</ele>
        <time>2022-04-13T10:24:20.307Z</time>
      </trkpt>
      <trkpt lat="42.02774" lon="21.57752">
        <ele>395.059077</ele>
        <time>2022-04-13T10:24:22.303Z</time>
      </trkpt>
      <trkpt lat="42.02772" lon="21.57735">
        <ele>394.858124</ele>
        <time>2022-04-13T10:24:24.319Z</time>
      </trkpt>
      <trkpt lat="42.0277" lon="21.5772">
        <ele>394.664346</ele>
        <time>2022-04-13T10:24:26.342Z</time>
      </trkpt>
      <trkpt lat="42.02768" lon="21.57703">
        <ele>394.462349</ele>
        <time>2022-04-13T10:24:28.320Z</time>
      </trkpt>
      <trkpt lat="42.02767" lon="21.57686">
        <ele>394.252146</ele>
        <time>2022-04-13T10:24:30.323Z</time>
      </trkpt>
      <trkpt lat="42.02765" lon="21.57669">
        <ele>394.035213</ele>
        <time>2022-04-13T10:24:32.401Z</time>
      </trkpt>
      <trkpt lat="42.02763" lon="21.57653">
        <ele>393.845754</ele>
        <time>2022-04-13T10:24:34.306Z</time>
      </trkpt>
      <trkpt lat="42.02761" lon="21.5764">
        <ele>393.684634</ele>
        <time>2022-04-13T10:24:36.332Z</time>
      </trkpt>
      <trkpt lat="42.02761" lon="21.57624">
        <ele>393.488301</ele>
        <time>2022-04-13T10:24:38.309Z</time>
      </trkpt>
      <trkpt lat="42.0276" lon="21.57607">
        <ele>393.281739</ele>
        <time>2022-04-13T10:24:40.314Z</time>
      </trkpt>
      <trkpt lat="42.02759" lon="21.5759">
        <ele>393.073232</ele>
        <time>2022-04-13T10:24:42.311Z</time>
      </trkpt>
      <trkpt lat="42.02759" lon="21.57575">
        <ele>392.884351</ele>
        <time>2022-04-13T10:24:44.292Z</time>
      </trkpt>
      <trkpt lat="42.02759" lon="21.5756">
        <ele>392.70011</ele>
        <time>2022-04-13T10:24:46.305Z</time>
      </trkpt>
      <trkpt lat="42.02758" lon="21.57544">
        <ele>392.228989</ele>
        <time>2022-04-13T10:24:48.339Z</time>
      </trkpt>
      <trkpt lat="42.02759" lon="21.57529">
        <ele>391.748469</ele>
        <time>2022-04-13T10:24:50.313Z</time>
      </trkpt>
      <trkpt lat="42.02758" lon="21.57512">
        <ele>391.187409</ele>
        <time>2022-04-13T10:24:53.308Z</time>
      </trkpt>
      <trkpt lat="42.02757" lon="21.57496">
        <ele>390.64146</ele>
        <time>2022-04-13T10:24:56.302Z</time>
      </trkpt>
      <trkpt lat="42.02758" lon="21.57483">
        <ele>390.22137</ele>
        <time>2022-04-13T10:24:58.316Z</time>
      </trkpt>
      <trkpt lat="42.02758" lon="21.57471">
        <ele>389.80081</ele>
        <time>2022-04-13T10:25:00.286Z</time>
      </trkpt>
      <trkpt lat="42.02758" lon="21.57457">
        <ele>389.367056</ele>
        <time>2022-04-13T10:25:02.298Z</time>
      </trkpt>
      <trkpt lat="42.02756" lon="21.57441">
        <ele>388.82478</ele>
        <time>2022-04-13T10:25:05.285Z</time>
      </trkpt>
      <trkpt lat="42.02756" lon="21.57427">
        <ele>388.361336</ele>
        <time>2022-04-13T10:25:09.312Z</time>
      </trkpt>
      <trkpt lat="42.02755" lon="21.57414">
        <ele>387.921434</ele>
        <time>2022-04-13T10:25:13.295Z</time>
      </trkpt>
      <trkpt lat="42.02753" lon="21.57397">
        <ele>387.35329</ele>
        <time>2022-04-13T10:25:16.314Z</time>
      </trkpt>
      <trkpt lat="42.02752" lon="21.57383">
        <ele>386.895838</ele>
        <time>2022-04-13T10:25:18.303Z</time>
      </trkpt>
      <trkpt lat="42.02751" lon="21.57368">
        <ele>386.388485</ele>
        <time>2022-04-13T10:25:20.373Z</time>
      </trkpt>
      <trkpt lat="42.02749" lon="21.5735">
        <ele>385.804623</ele>
        <time>2022-04-13T10:25:22.302Z</time>
      </trkpt>
      <trkpt lat="42.02748" lon="21.57331">
        <ele>385.163309</ele>
        <time>2022-04-13T10:25:24.288Z</time>
      </trkpt>
      <trkpt lat="42.02746" lon="21.57312">
        <ele>384.446617</ele>
        <time>2022-04-13T10:25:26.314Z</time>
      </trkpt>
      <trkpt lat="42.02744" lon="21.57293">
        <ele>383.516102</ele>
        <time>2022-04-13T10:25:28.308Z</time>
      </trkpt>
      <trkpt lat="42.02745" lon="21.57274">
        <ele>382.53042</ele>
        <time>2022-04-13T10:25:30.301Z</time>
      </trkpt>
      <trkpt lat="42.02746" lon="21.57256">
        <ele>381.639242</ele>
        <time>2022-04-13T10:25:32.290Z</time>
      </trkpt>
      <trkpt lat="42.02745" lon="21.5724">
        <ele>380.876967</ele>
        <time>2022-04-13T10:25:34.326Z</time>
      </trkpt>
      <trkpt lat="42.02745" lon="21.57227">
        <ele>380.199911</ele>
        <time>2022-04-13T10:25:37.318Z</time>
      </trkpt>
      <trkpt lat="42.02742" lon="21.5721">
        <ele>379.360368</ele>
        <time>2022-04-13T10:25:41.288Z</time>
      </trkpt>
      <trkpt lat="42.02742" lon="21.57197">
        <ele>378.69621</ele>
        <time>2022-04-13T10:25:43.314Z</time>
      </trkpt>
      <trkpt lat="42.0274" lon="21.57182">
        <ele>377.937934</ele>
        <time>2022-04-13T10:25:45.288Z</time>
      </trkpt>
      <trkpt lat="42.02739" lon="21.57166">
        <ele>377.126906</ele>
        <time>2022-04-13T10:25:47.320Z</time>
      </trkpt>
      <trkpt lat="42.02738" lon="21.57148">
        <ele>376.253291</ele>
        <time>2022-04-13T10:25:49.308Z</time>
      </trkpt>
      <trkpt lat="42.02737" lon="21.5713">
        <ele>375.348183</ele>
        <time>2022-04-13T10:25:51.336Z</time>
      </trkpt>
      <trkpt lat="42.02735" lon="21.5711">
        <ele>374.347644</ele>
        <time>2022-04-13T10:25:53.306Z</time>
      </trkpt>
      <trkpt lat="42.02735" lon="21.57089">
        <ele>373.301856</ele>
        <time>2022-04-13T10:25:55.282Z</time>
      </trkpt>
      <trkpt lat="42.02734" lon="21.57068">
        <ele>372.308019</ele>
        <time>2022-04-13T10:25:57.320Z</time>
      </trkpt>
      <trkpt lat="42.02733" lon="21.57047">
        <ele>371.429031</ele>
        <time>2022-04-13T10:25:59.304Z</time>
      </trkpt>
      <trkpt lat="42.02732" lon="21.57026">
        <ele>370.566325</ele>
        <time>2022-04-13T10:26:01.299Z</time>
      </trkpt>
      <trkpt lat="42.02732" lon="21.57005">
        <ele>369.708462</ele>
        <time>2022-04-13T10:26:03.289Z</time>
      </trkpt>
      <trkpt lat="42.02731" lon="21.56985">
        <ele>368.859043</ele>
        <time>2022-04-13T10:26:05.300Z</time>
      </trkpt>
      <trkpt lat="42.02731" lon="21.56964">
        <ele>368.021433</ele>
        <time>2022-04-13T10:26:07.343Z</time>
      </trkpt>
      <trkpt lat="42.02729" lon="21.56945">
        <ele>367.217049</ele>
        <time>2022-04-13T10:26:09.314Z</time>
      </trkpt>
      <trkpt lat="42.02728" lon="21.56925">
        <ele>366.387961</ele>
        <time>2022-04-13T10:26:11.327Z</time>
      </trkpt>
      <trkpt lat="42.02725" lon="21.56906">
        <ele>365.586495</ele>
        <time>2022-04-13T10:26:13.307Z</time>
      </trkpt>
      <trkpt lat="42.02724" lon="21.56888">
        <ele>364.810258</ele>
        <time>2022-04-13T10:26:15.299Z</time>
      </trkpt>
      <trkpt lat="42.02722" lon="21.56871">
        <ele>364.121715</ele>
        <time>2022-04-13T10:26:17.299Z</time>
      </trkpt>
      <trkpt lat="42.02722" lon="21.56854">
        <ele>363.425755</ele>
        <time>2022-04-13T10:26:19.312Z</time>
      </trkpt>
      <trkpt lat="42.02721" lon="21.56838">
        <ele>362.733466</ele>
        <time>2022-04-13T10:26:21.294Z</time>
      </trkpt>
      <trkpt lat="42.02721" lon="21.56821">
        <ele>361.748701</ele>
        <time>2022-04-13T10:26:23.288Z</time>
      </trkpt>
      <trkpt lat="42.0272" lon="21.56804">
        <ele>360.615186</ele>
        <time>2022-04-13T10:26:25.293Z</time>
      </trkpt>
      <trkpt lat="42.02719" lon="21.56786">
        <ele>359.473657</ele>
        <time>2022-04-13T10:26:27.301Z</time>
      </trkpt>
      <trkpt lat="42.0272" lon="21.56768">
        <ele>358.275485</ele>
        <time>2022-04-13T10:26:29.352Z</time>
      </trkpt>
      <trkpt lat="42.0272" lon="21.56748">
        <ele>356.973996</ele>
        <time>2022-04-13T10:26:31.321Z</time>
      </trkpt>
      <trkpt lat="42.0272" lon="21.56727">
        <ele>355.646014</ele>
        <time>2022-04-13T10:26:33.305Z</time>
      </trkpt>
      <trkpt lat="42.02721" lon="21.56708">
        <ele>354.363927</ele>
        <time>2022-04-13T10:26:35.304Z</time>
      </trkpt>
      <trkpt lat="42.0272" lon="21.56687">
        <ele>353.010264</ele>
        <time>2022-04-13T10:26:37.293Z</time>
      </trkpt>
      <trkpt lat="42.0272" lon="21.56666">
        <ele>351.62999</ele>
        <time>2022-04-13T10:26:39.282Z</time>
      </trkpt>
      <trkpt lat="42.02719" lon="21.56646">
        <ele>350.366451</ele>
        <time>2022-04-13T10:26:41.292Z</time>
      </trkpt>
      <trkpt lat="42.02719" lon="21.56632">
        <ele>349.435886</ele>
        <time>2022-04-13T10:26:43.307Z</time>
      </trkpt>
      <trkpt lat="42.02719" lon="21.56619">
        <ele>348.576724</ele>
        <time>2022-04-13T10:26:45.299Z</time>
      </trkpt>
      <trkpt lat="42.02719" lon="21.56605">
        <ele>347.646118</ele>
        <time>2022-04-13T10:26:47.298Z</time>
      </trkpt>
      <trkpt lat="42.02719" lon="21.56589">
        <ele>346.677326</ele>
        <time>2022-04-13T10:26:49.302Z</time>
      </trkpt>
      <trkpt lat="42.02717" lon="21.56573">
        <ele>345.755831</ele>
        <time>2022-04-13T10:26:51.309Z</time>
      </trkpt>
      <trkpt lat="42.02716" lon="21.56556">
        <ele>344.761954</ele>
        <time>2022-04-13T10:26:53.302Z</time>
      </trkpt>
      <trkpt lat="42.02716" lon="21.56538">
        <ele>343.746485</ele>
        <time>2022-04-13T10:26:55.303Z</time>
      </trkpt>
      <trkpt lat="42.02715" lon="21.5652">
        <ele>342.692632</ele>
        <time>2022-04-13T10:26:57.297Z</time>
      </trkpt>
      <trkpt lat="42.02713" lon="21.56504">
        <ele>341.772204</ele>
        <time>2022-04-13T10:26:59.413Z</time>
      </trkpt>
      <trkpt lat="42.02712" lon="21.56491">
        <ele>341.020729</ele>
        <time>2022-04-13T10:27:01.305Z</time>
      </trkpt>
      <trkpt lat="42.0271" lon="21.56474">
        <ele>340.030844</ele>
        <time>2022-04-13T10:27:04.298Z</time>
      </trkpt>
      <trkpt lat="42.0271" lon="21.56461">
        <ele>339.284465</ele>
        <time>2022-04-13T10:27:06.296Z</time>
      </trkpt>
      <trkpt lat="42.0271" lon="21.56448">
        <ele>338.51574</ele>
        <time>2022-04-13T10:27:08.358Z</time>
      </trkpt>
      <trkpt lat="42.02709" lon="21.56435">
        <ele>337.780013</ele>
        <time>2022-04-13T10:27:10.313Z</time>
      </trkpt>
      <trkpt lat="42.02708" lon="21.56422">
        <ele>337.037436</ele>
        <time>2022-04-13T10:27:12.291Z</time>
      </trkpt>
      <trkpt lat="42.02708" lon="21.56405">
        <ele>336.038217</ele>
        <time>2022-04-13T10:27:15.308Z</time>
      </trkpt>
      <trkpt lat="42.02705" lon="21.56387">
        <ele>335.017343</ele>
        <time>2022-04-13T10:27:18.312Z</time>
      </trkpt>
      <trkpt lat="42.02703" lon="21.56375">
        <ele>334.298951</ele>
        <time>2022-04-13T10:27:20.298Z</time>
      </trkpt>
      <trkpt lat="42.027" lon="21.56363">
        <ele>333.563783</ele>
        <time>2022-04-13T10:27:22.304Z</time>
      </trkpt>
      <trkpt lat="42.02696" lon="21.56347">
        <ele>332.626275</ele>
        <time>2022-04-13T10:27:25.352Z</time>
      </trkpt>
      <trkpt lat="42.02692" lon="21.56332">
        <ele>331.767466</ele>
        <time>2022-04-13T10:27:28.308Z</time>
      </trkpt>
      <trkpt lat="42.02688" lon="21.56318">
        <ele>330.981803</ele>
        <time>2022-04-13T10:27:30.311Z</time>
      </trkpt>
      <trkpt lat="42.02683" lon="21.56304">
        <ele>330.116728</ele>
        <time>2022-04-13T10:27:32.291Z</time>
      </trkpt>
      <trkpt lat="42.02679" lon="21.5629">
        <ele>329.331357</ele>
        <time>2022-04-13T10:27:34.358Z</time>
      </trkpt>
      <trkpt lat="42.02674" lon="21.56275">
        <ele>328.418312</ele>
        <time>2022-04-13T10:27:36.348Z</time>
      </trkpt>
      <trkpt lat="42.02669" lon="21.56259">
        <ele>327.494045</ele>
        <time>2022-04-13T10:27:38.308Z</time>
      </trkpt>
      <trkpt lat="42.02664" lon="21.56241">
        <ele>326.497906</ele>
        <time>2022-04-13T10:27:40.335Z</time>
      </trkpt>
      <trkpt lat="42.02658" lon="21.56225">
        <ele>325.546256</ele>
        <time>2022-04-13T10:27:42.323Z</time>
      </trkpt>
      <trkpt lat="42.02653" lon="21.5621">
        <ele>324.659268</ele>
        <time>2022-04-13T10:27:44.371Z</time>
      </trkpt>
      <trkpt lat="42.0265" lon="21.56192">
        <ele>323.645881</ele>
        <time>2022-04-13T10:27:46.292Z</time>
      </trkpt>
      <trkpt lat="42.02645" lon="21.56173">
        <ele>322.561806</ele>
        <time>2022-04-13T10:27:48.296Z</time>
      </trkpt>
      <trkpt lat="42.0264" lon="21.56152">
        <ele>321.392065</ele>
        <time>2022-04-13T10:27:50.308Z</time>
      </trkpt>
      <trkpt lat="42.02634" lon="21.5613">
        <ele>320.179871</ele>
        <time>2022-04-13T10:27:52.328Z</time>
      </trkpt>
      <trkpt lat="42.02629" lon="21.5611">
        <ele>318.771631</ele>
        <time>2022-04-13T10:27:54.311Z</time>
      </trkpt>
      <trkpt lat="42.02624" lon="21.56089">
        <ele>317.256166</ele>
        <time>2022-04-13T10:27:56.304Z</time>
      </trkpt>
      <trkpt lat="42.02619" lon="21.56068">
        <ele>315.721352</ele>
        <time>2022-04-13T10:27:58.349Z</time>
      </trkpt>
      <trkpt lat="42.02613" lon="21.56047">
        <ele>314.228633</ele>
        <time>2022-04-13T10:28:00.302Z</time>
      </trkpt>
      <trkpt lat="42.02607" lon="21.56026">
        <ele>312.716736</ele>
        <time>2022-04-13T10:28:02.292Z</time>
      </trkpt>
      <trkpt lat="42.02601" lon="21.56006">
        <ele>311.223837</ele>
        <time>2022-04-13T10:28:04.344Z</time>
      </trkpt>
      <trkpt lat="42.02596" lon="21.55986">
        <ele>309.769476</ele>
        <time>2022-04-13T10:28:06.302Z</time>
      </trkpt>
      <trkpt lat="42.0259" lon="21.55964">
        <ele>308.196678</ele>
        <time>2022-04-13T10:28:08.313Z</time>
      </trkpt>
      <trkpt lat="42.02586" lon="21.55953">
        <ele>307.362311</ele>
        <time>2022-04-13T10:28:09.311Z</time>
      </trkpt>
      <trkpt lat="42.0258" lon="21.55931">
        <ele>305.770423</ele>
        <time>2022-04-13T10:28:11.382Z</time>
      </trkpt>
      <trkpt lat="42.02574" lon="21.5591">
        <ele>304.242408</ele>
        <time>2022-04-13T10:28:13.303Z</time>
      </trkpt>
      <trkpt lat="42.02569" lon="21.55891">
        <ele>302.859397</ele>
        <time>2022-04-13T10:28:15.340Z</time>
      </trkpt>
      <trkpt lat="42.02563" lon="21.55871">
        <ele>301.528032</ele>
        <time>2022-04-13T10:28:17.303Z</time>
      </trkpt>
      <trkpt lat="42.02557" lon="21.55852">
        <ele>300.216859</ele>
        <time>2022-04-13T10:28:19.316Z</time>
      </trkpt>
      <trkpt lat="42.02552" lon="21.55833">
        <ele>298.95093</ele>
        <time>2022-04-13T10:28:21.291Z</time>
      </trkpt>
      <trkpt lat="42.02546" lon="21.55815">
        <ele>297.732183</ele>
        <time>2022-04-13T10:28:23.306Z</time>
      </trkpt>
      <trkpt lat="42.02541" lon="21.55797">
        <ele>296.531059</ele>
        <time>2022-04-13T10:28:25.288Z</time>
      </trkpt>
      <trkpt lat="42.02536" lon="21.55779">
        <ele>295.300196</ele>
        <time>2022-04-13T10:28:27.290Z</time>
      </trkpt>
      <trkpt lat="42.02531" lon="21.55761">
        <ele>294.057644</ele>
        <time>2022-04-13T10:28:29.307Z</time>
      </trkpt>
      <trkpt lat="42.02526" lon="21.55743">
        <ele>292.871481</ele>
        <time>2022-04-13T10:28:31.317Z</time>
      </trkpt>
      <trkpt lat="42.02522" lon="21.55727">
        <ele>291.7916</ele>
        <time>2022-04-13T10:28:33.376Z</time>
      </trkpt>
      <trkpt lat="42.02517" lon="21.55712">
        <ele>290.785634</ele>
        <time>2022-04-13T10:28:35.308Z</time>
      </trkpt>
      <trkpt lat="42.02513" lon="21.55698">
        <ele>289.794537</ele>
        <time>2022-04-13T10:28:37.296Z</time>
      </trkpt>
      <trkpt lat="42.02509" lon="21.55686">
        <ele>288.995267</ele>
        <time>2022-04-13T10:28:39.306Z</time>
      </trkpt>
      <trkpt lat="42.02503" lon="21.55672">
        <ele>288.067744</ele>
        <time>2022-04-13T10:28:43.310Z</time>
      </trkpt>
      <trkpt lat="42.02499" lon="21.55659">
        <ele>287.583193</ele>
        <time>2022-04-13T10:28:45.283Z</time>
      </trkpt>
      <trkpt lat="42.02495" lon="21.55644">
        <ele>287.024968</ele>
        <time>2022-04-13T10:28:47.301Z</time>
      </trkpt>
      <trkpt lat="42.02491" lon="21.5563">
        <ele>286.491345</ele>
        <time>2022-04-13T10:28:50.305Z</time>
      </trkpt>
      <trkpt lat="42.02487" lon="21.55616">
        <ele>285.966128</ele>
        <time>2022-04-13T10:28:54.301Z</time>
      </trkpt>
      <trkpt lat="42.02484" lon="21.55602">
        <ele>285.457675</ele>
        <time>2022-04-13T10:28:57.314Z</time>
      </trkpt>
      <trkpt lat="42.02479" lon="21.55585">
        <ele>284.812265</ele>
        <time>2022-04-13T10:29:00.314Z</time>
      </trkpt>
      <trkpt lat="42.02475" lon="21.55571">
        <ele>284.298574</ele>
        <time>2022-04-13T10:29:02.328Z</time>
      </trkpt>
      <trkpt lat="42.02471" lon="21.55556">
        <ele>283.714086</ele>
        <time>2022-04-13T10:29:04.294Z</time>
      </trkpt>
      <trkpt lat="42.02466" lon="21.55539">
        <ele>283.081255</ele>
        <time>2022-04-13T10:29:06.287Z</time>
      </trkpt>
      <trkpt lat="42.02462" lon="21.55523">
        <ele>282.460395</ele>
        <time>2022-04-13T10:29:08.318Z</time>
      </trkpt>
      <trkpt lat="42.02457" lon="21.55506">
        <ele>281.857793</ele>
        <time>2022-04-13T10:29:10.317Z</time>
      </trkpt>
      <trkpt lat="42.02452" lon="21.55492">
        <ele>281.288616</ele>
        <time>2022-04-13T10:29:12.316Z</time>
      </trkpt>
      <trkpt lat="42.02447" lon="21.55476">
        <ele>280.693597</ele>
        <time>2022-04-13T10:29:14.304Z</time>
      </trkpt>
      <trkpt lat="42.02442" lon="21.5546">
        <ele>280.074412</ele>
        <time>2022-04-13T10:29:16.342Z</time>
      </trkpt>
      <trkpt lat="42.02438" lon="21.55443">
        <ele>279.662091</ele>
        <time>2022-04-13T10:29:18.304Z</time>
      </trkpt>
      <trkpt lat="42.02433" lon="21.55428">
        <ele>279.610728</ele>
        <time>2022-04-13T10:29:20.379Z</time>
      </trkpt>
      <trkpt lat="42.0243" lon="21.55413">
        <ele>279.560034</ele>
        <time>2022-04-13T10:29:22.285Z</time>
      </trkpt>
      <trkpt lat="42.02426" lon="21.55397">
        <ele>279.507735</ele>
        <time>2022-04-13T10:29:24.316Z</time>
      </trkpt>
      <trkpt lat="42.02422" lon="21.55382">
        <ele>279.454876</ele>
        <time>2022-04-13T10:29:26.303Z</time>
      </trkpt>
      <trkpt lat="42.02417" lon="21.55367">
        <ele>279.404228</ele>
        <time>2022-04-13T10:29:28.314Z</time>
      </trkpt>
      <trkpt lat="42.02413" lon="21.55353">
        <ele>279.357015</ele>
        <time>2022-04-13T10:29:30.316Z</time>
      </trkpt>
      <trkpt lat="42.02409" lon="21.55339">
        <ele>279.30787</ele>
        <time>2022-04-13T10:29:32.303Z</time>
      </trkpt>
      <trkpt lat="42.02404" lon="21.55325">
        <ele>279.257974</ele>
        <time>2022-04-13T10:29:34.306Z</time>
      </trkpt>
      <trkpt lat="42.024" lon="21.55311">
        <ele>279.210939</ele>
        <time>2022-04-13T10:29:36.296Z</time>
      </trkpt>
      <trkpt lat="42.02397" lon="21.55297">
        <ele>279.165093</ele>
        <time>2022-04-13T10:29:38.332Z</time>
      </trkpt>
      <trkpt lat="42.02393" lon="21.55284">
        <ele>279.119543</ele>
        <time>2022-04-13T10:29:40.318Z</time>
      </trkpt>
      <trkpt lat="42.02389" lon="21.55271">
        <ele>279.073399</ele>
        <time>2022-04-13T10:29:42.287Z</time>
      </trkpt>
      <trkpt lat="42.02385" lon="21.55257">
        <ele>279.027849</ele>
        <time>2022-04-13T10:29:44.292Z</time>
      </trkpt>
      <trkpt lat="42.02381" lon="21.55245">
        <ele>278.985659</ele>
        <time>2022-04-13T10:29:46.293Z</time>
      </trkpt>
      <trkpt lat="42.02377" lon="21.55233">
        <ele>278.943841</ele>
        <time>2022-04-13T10:29:48.295Z</time>
      </trkpt>
      <trkpt lat="42.02373" lon="21.5522">
        <ele>278.892914</ele>
        <time>2022-04-13T10:29:50.323Z</time>
      </trkpt>
      <trkpt lat="42.0237" lon="21.55208">
        <ele>278.824842</ele>
        <time>2022-04-13T10:29:52.301Z</time>
      </trkpt>
      <trkpt lat="42.02366" lon="21.55191">
        <ele>278.732826</ele>
        <time>2022-04-13T10:29:55.290Z</time>
      </trkpt>
      <trkpt lat="42.02362" lon="21.55174">
        <ele>278.638248</ele>
        <time>2022-04-13T10:29:58.287Z</time>
      </trkpt>
      <trkpt lat="42.02358" lon="21.55161">
        <ele>278.567543</ele>
        <time>2022-04-13T10:30:00.290Z</time>
      </trkpt>
      <trkpt lat="42.02356" lon="21.55148">
        <ele>278.500674</ele>
        <time>2022-04-13T10:30:02.296Z</time>
      </trkpt>
      <trkpt lat="42.02352" lon="21.55137">
        <ele>278.436602</ele>
        <time>2022-04-13T10:30:04.309Z</time>
      </trkpt>
      <trkpt lat="42.02347" lon="21.55124">
        <ele>278.359549</ele>
        <time>2022-04-13T10:30:06.299Z</time>
      </trkpt>
      <trkpt lat="42.02343" lon="21.55111">
        <ele>278.28612</ele>
        <time>2022-04-13T10:30:08.309Z</time>
      </trkpt>
      <trkpt lat="42.02338" lon="21.55097">
        <ele>278.207169</ele>
        <time>2022-04-13T10:30:10.319Z</time>
      </trkpt>
      <trkpt lat="42.02334" lon="21.55082">
        <ele>278.125304</ele>
        <time>2022-04-13T10:30:12.313Z</time>
      </trkpt>
      <trkpt lat="42.02329" lon="21.55067">
        <ele>278.04311</ele>
        <time>2022-04-13T10:30:14.309Z</time>
      </trkpt>
      <trkpt lat="42.02325" lon="21.55053">
        <ele>277.966591</ele>
        <time>2022-04-13T10:30:16.306Z</time>
      </trkpt>
      <trkpt lat="42.02321" lon="21.55039">
        <ele>277.885622</ele>
        <time>2022-04-13T10:30:18.293Z</time>
      </trkpt>
      <trkpt lat="42.02317" lon="21.55026">
        <ele>277.811503</ele>
        <time>2022-04-13T10:30:20.295Z</time>
      </trkpt>
      <trkpt lat="42.02313" lon="21.55013">
        <ele>277.742742</ele>
        <time>2022-04-13T10:30:22.298Z</time>
      </trkpt>
      <trkpt lat="42.0231" lon="21.55001">
        <ele>277.67277</ele>
        <time>2022-04-13T10:30:24.327Z</time>
      </trkpt>
      <trkpt lat="42.02307" lon="21.54989">
        <ele>277.484327</ele>
        <time>2022-04-13T10:30:26.313Z</time>
      </trkpt>
      <trkpt lat="42.02303" lon="21.54978">
        <ele>277.270835</ele>
        <time>2022-04-13T10:30:31.299Z</time>
      </trkpt>
      <trkpt lat="42.02299" lon="21.54963">
        <ele>276.996627</ele>
        <time>2022-04-13T10:30:35.289Z</time>
      </trkpt>
      <trkpt lat="42.02294" lon="21.54947">
        <ele>276.698023</ele>
        <time>2022-04-13T10:30:38.294Z</time>
      </trkpt>
      <trkpt lat="42.02289" lon="21.54932">
        <ele>276.414922</ele>
        <time>2022-04-13T10:30:41.315Z</time>
      </trkpt>
      <trkpt lat="42.02286" lon="21.54921">
        <ele>276.205414</ele>
        <time>2022-04-13T10:30:43.305Z</time>
      </trkpt>
      <trkpt lat="42.02282" lon="21.54909">
        <ele>275.981295</ele>
        <time>2022-04-13T10:30:45.304Z</time>
      </trkpt>
      <trkpt lat="42.02279" lon="21.54897">
        <ele>275.760446</ele>
        <time>2022-04-13T10:30:47.304Z</time>
      </trkpt>
      <trkpt lat="42.02276" lon="21.54886">
        <ele>275.537115</ele>
        <time>2022-04-13T10:30:49.288Z</time>
      </trkpt>
      <trkpt lat="42.02273" lon="21.54874">
        <ele>275.325942</ele>
        <time>2022-04-13T10:30:51.294Z</time>
      </trkpt>
      <trkpt lat="42.02268" lon="21.54858">
        <ele>275.017492</ele>
        <time>2022-04-13T10:30:54.312Z</time>
      </trkpt>
      <trkpt lat="42.02265" lon="21.54846">
        <ele>274.805624</ele>
        <time>2022-04-13T10:30:56.317Z</time>
      </trkpt>
      <trkpt lat="42.02261" lon="21.54835">
        <ele>274.589472</ele>
        <time>2022-04-13T10:30:58.302Z</time>
      </trkpt>
      <trkpt lat="42.02258" lon="21.54823">
        <ele>274.371872</ele>
        <time>2022-04-13T10:31:00.282Z</time>
      </trkpt>
      <trkpt lat="42.02254" lon="21.54812">
        <ele>274.15922</ele>
        <time>2022-04-13T10:31:02.316Z</time>
      </trkpt>
      <trkpt lat="42.02251" lon="21.548">
        <ele>273.942463</ele>
        <time>2022-04-13T10:31:04.303Z</time>
      </trkpt>
      <trkpt lat="42.02248" lon="21.54789">
        <ele>273.724863</ele>
        <time>2022-04-13T10:31:06.290Z</time>
      </trkpt>
      <trkpt lat="42.02245" lon="21.54777">
        <ele>273.503217</ele>
        <time>2022-04-13T10:31:08.317Z</time>
      </trkpt>
      <trkpt lat="42.02241" lon="21.54765">
        <ele>273.409835</ele>
        <time>2022-04-13T10:31:10.339Z</time>
      </trkpt>
      <trkpt lat="42.02237" lon="21.54754">
        <ele>273.371627</ele>
        <time>2022-04-13T10:31:12.291Z</time>
      </trkpt>
      <trkpt lat="42.02234" lon="21.54742">
        <ele>273.333655</ele>
        <time>2022-04-13T10:31:14.303Z</time>
      </trkpt>
      <trkpt lat="42.02229" lon="21.54725">
        <ele>273.278647</ele>
        <time>2022-04-13T10:31:17.300Z</time>
      </trkpt>
      <trkpt lat="42.02225" lon="21.54713">
        <ele>273.239964</ele>
        <time>2022-04-13T10:31:19.318Z</time>
      </trkpt>
      <trkpt lat="42.02222" lon="21.54701">
        <ele>273.201573</ele>
        <time>2022-04-13T10:31:21.298Z</time>
      </trkpt>
      <trkpt lat="42.02219" lon="21.5469">
        <ele>273.164174</ele>
        <time>2022-04-13T10:31:23.293Z</time>
      </trkpt>
      <trkpt lat="42.02215" lon="21.54678">
        <ele>273.125216</ele>
        <time>2022-04-13T10:31:25.298Z</time>
      </trkpt>
      <trkpt lat="42.02212" lon="21.54665">
        <ele>273.086111</ele>
        <time>2022-04-13T10:31:27.292Z</time>
      </trkpt>
      <trkpt lat="42.02209" lon="21.54653">
        <ele>273.047153</ele>
        <time>2022-04-13T10:31:29.289Z</time>
      </trkpt>
      <trkpt lat="42.02205" lon="21.54641">
        <ele>273.006495</ele>
        <time>2022-04-13T10:31:31.390Z</time>
      </trkpt>
      <trkpt lat="42.02202" lon="21.54628">
        <ele>272.964983</ele>
        <time>2022-04-13T10:31:33.290Z</time>
      </trkpt>
      <trkpt lat="42.02198" lon="21.54615">
        <ele>272.924441</ele>
        <time>2022-04-13T10:31:35.303Z</time>
      </trkpt>
      <trkpt lat="42.02194" lon="21.54604">
        <ele>272.886038</ele>
        <time>2022-04-13T10:31:37.298Z</time>
      </trkpt>
      <trkpt lat="42.0219" lon="21.54589">
        <ele>272.837984</ele>
        <time>2022-04-13T10:31:40.306Z</time>
      </trkpt>
      <trkpt lat="42.02185" lon="21.54572">
        <ele>272.783438</ele>
        <time>2022-04-13T10:31:43.304Z</time>
      </trkpt>
      <trkpt lat="42.02181" lon="21.5456">
        <ele>272.744289</ele>
        <time>2022-04-13T10:31:45.297Z</time>
      </trkpt>
      <trkpt lat="42.02178" lon="21.54548">
        <ele>272.704546</ele>
        <time>2022-04-13T10:31:47.302Z</time>
      </trkpt>
      <trkpt lat="42.02173" lon="21.54535">
        <ele>272.691413</ele>
        <time>2022-04-13T10:31:49.298Z</time>
      </trkpt>
      <trkpt lat="42.0217" lon="21.54523">
        <ele>272.678382</ele>
        <time>2022-04-13T10:31:51.292Z</time>
      </trkpt>
      <trkpt lat="42.02166" lon="21.54511">
        <ele>272.665942</ele>
        <time>2022-04-13T10:31:53.293Z</time>
      </trkpt>
      <trkpt lat="42.02163" lon="21.54498">
        <ele>272.653622</ele>
        <time>2022-04-13T10:31:55.283Z</time>
      </trkpt>
      <trkpt lat="42.0216" lon="21.54486">
        <ele>272.640913</ele>
        <time>2022-04-13T10:31:57.295Z</time>
      </trkpt>
      <trkpt lat="42.02156" lon="21.54473">
        <ele>272.628249</ele>
        <time>2022-04-13T10:31:59.317Z</time>
      </trkpt>
      <trkpt lat="42.02153" lon="21.54461">
        <ele>272.615539</ele>
        <time>2022-04-13T10:32:01.320Z</time>
      </trkpt>
      <trkpt lat="42.02149" lon="21.54449">
        <ele>272.603231</ele>
        <time>2022-04-13T10:32:03.299Z</time>
      </trkpt>
      <trkpt lat="42.02146" lon="21.54437">
        <ele>272.590562</ele>
        <time>2022-04-13T10:32:05.287Z</time>
      </trkpt>
      <trkpt lat="42.02142" lon="21.54424">
        <ele>272.577794</ele>
        <time>2022-04-13T10:32:07.298Z</time>
      </trkpt>
      <trkpt lat="42.02138" lon="21.54412">
        <ele>272.565173</ele>
        <time>2022-04-13T10:32:09.299Z</time>
      </trkpt>
      <trkpt lat="42.02135" lon="21.544">
        <ele>272.552554</ele>
        <time>2022-04-13T10:32:11.300Z</time>
      </trkpt>
      <trkpt lat="42.02131" lon="21.54387">
        <ele>272.53966</ele>
        <time>2022-04-13T10:32:13.343Z</time>
      </trkpt>
      <trkpt lat="42.02128" lon="21.54374">
        <ele>272.526996</ele>
        <time>2022-04-13T10:32:15.286Z</time>
      </trkpt>
      <trkpt lat="42.02124" lon="21.54362">
        <ele>272.514327</ele>
        <time>2022-04-13T10:32:17.314Z</time>
      </trkpt>
      <trkpt lat="42.02121" lon="21.5435">
        <ele>272.501481</ele>
        <time>2022-04-13T10:32:19.298Z</time>
      </trkpt>
      <trkpt lat="42.02117" lon="21.54337">
        <ele>272.488675</ele>
        <time>2022-04-13T10:32:21.303Z</time>
      </trkpt>
      <trkpt lat="42.02113" lon="21.54325">
        <ele>272.475743</ele>
        <time>2022-04-13T10:32:23.292Z</time>
      </trkpt>
      <trkpt lat="42.0211" lon="21.54313">
        <ele>272.459283</ele>
        <time>2022-04-13T10:32:25.288Z</time>
      </trkpt>
      <trkpt lat="42.02106" lon="21.543">
        <ele>272.441615</ele>
        <time>2022-04-13T10:32:27.304Z</time>
      </trkpt>
      <trkpt lat="42.02102" lon="21.54288">
        <ele>272.423639</ele>
        <time>2022-04-13T10:32:29.291Z</time>
      </trkpt>
      <trkpt lat="42.02099" lon="21.54276">
        <ele>272.405665</ele>
        <time>2022-04-13T10:32:31.307Z</time>
      </trkpt>
      <trkpt lat="42.02095" lon="21.54263">
        <ele>272.386927</ele>
        <time>2022-04-13T10:32:33.332Z</time>
      </trkpt>
      <trkpt lat="42.02092" lon="21.5425">
        <ele>272.368825</ele>
        <time>2022-04-13T10:32:35.327Z</time>
      </trkpt>
      <trkpt lat="42.02088" lon="21.54238">
        <ele>272.350723</ele>
        <time>2022-04-13T10:32:37.308Z</time>
      </trkpt>
      <trkpt lat="42.02085" lon="21.54226">
        <ele>272.333382</ele>
        <time>2022-04-13T10:32:39.304Z</time>
      </trkpt>
      <trkpt lat="42.02081" lon="21.54213">
        <ele>272.315784</ele>
        <time>2022-04-13T10:32:41.340Z</time>
      </trkpt>
      <trkpt lat="42.02078" lon="21.54201">
        <ele>272.298317</ele>
        <time>2022-04-13T10:32:43.296Z</time>
      </trkpt>
      <trkpt lat="42.02074" lon="21.54189">
        <ele>272.280898</ele>
        <time>2022-04-13T10:32:45.320Z</time>
      </trkpt>
      <trkpt lat="42.02071" lon="21.54178">
        <ele>272.263674</ele>
        <time>2022-04-13T10:32:47.318Z</time>
      </trkpt>
      <trkpt lat="42.02067" lon="21.54166">
        <ele>272.246325</ele>
        <time>2022-04-13T10:32:49.305Z</time>
      </trkpt>
      <trkpt lat="42.02064" lon="21.54154">
        <ele>272.228975</ele>
        <time>2022-04-13T10:32:51.299Z</time>
      </trkpt>
      <trkpt lat="42.0206" lon="21.54142">
        <ele>272.211751</ele>
        <time>2022-04-13T10:32:53.314Z</time>
      </trkpt>
      <trkpt lat="42.02057" lon="21.5413">
        <ele>272.194536</ele>
        <time>2022-04-13T10:32:55.298Z</time>
      </trkpt>
      <trkpt lat="42.02054" lon="21.54118">
        <ele>272.177809</ele>
        <time>2022-04-13T10:32:57.294Z</time>
      </trkpt>
      <trkpt lat="42.02051" lon="21.54106">
        <ele>272.160144</ele>
        <time>2022-04-13T10:32:59.324Z</time>
      </trkpt>
      <trkpt lat="42.02047" lon="21.54094">
        <ele>272.148039</ele>
        <time>2022-04-13T10:33:01.320Z</time>
      </trkpt>
      <trkpt lat="42.02043" lon="21.54081">
        <ele>272.154417</ele>
        <time>2022-04-13T10:33:03.315Z</time>
      </trkpt>
      <trkpt lat="42.02039" lon="21.54068">
        <ele>272.160775</ele>
        <time>2022-04-13T10:33:05.285Z</time>
      </trkpt>
      <trkpt lat="42.02035" lon="21.54056">
        <ele>272.167139</ele>
        <time>2022-04-13T10:33:07.316Z</time>
      </trkpt>
      <trkpt lat="42.02031" lon="21.54043">
        <ele>272.173588</ele>
        <time>2022-04-13T10:33:09.312Z</time>
      </trkpt>
      <trkpt lat="42.02027" lon="21.54031">
        <ele>272.179951</ele>
        <time>2022-04-13T10:33:11.324Z</time>
      </trkpt>
      <trkpt lat="42.02024" lon="21.54018">
        <ele>272.186179</ele>
        <time>2022-04-13T10:33:13.307Z</time>
      </trkpt>
      <trkpt lat="42.0202" lon="21.54006">
        <ele>272.192427</ele>
        <time>2022-04-13T10:33:15.291Z</time>
      </trkpt>
      <trkpt lat="42.02017" lon="21.53994">
        <ele>272.198432</ele>
        <time>2022-04-13T10:33:17.303Z</time>
      </trkpt>
      <trkpt lat="42.02013" lon="21.53982">
        <ele>272.20448</ele>
        <time>2022-04-13T10:33:19.306Z</time>
      </trkpt>
      <trkpt lat="42.0201" lon="21.53969">
        <ele>272.210748</ele>
        <time>2022-04-13T10:33:21.304Z</time>
      </trkpt>
      <trkpt lat="42.02006" lon="21.53957">
        <ele>272.216909</ele>
        <time>2022-04-13T10:33:23.276Z</time>
      </trkpt>
      <trkpt lat="42.02003" lon="21.53945">
        <ele>272.223046</ele>
        <time>2022-04-13T10:33:25.302Z</time>
      </trkpt>
      <trkpt lat="42.01999" lon="21.53932">
        <ele>272.229138</ele>
        <time>2022-04-13T10:33:27.306Z</time>
      </trkpt>
      <trkpt lat="42.01996" lon="21.5392">
        <ele>272.235384</ele>
        <time>2022-04-13T10:33:29.312Z</time>
      </trkpt>
      <trkpt lat="42.01992" lon="21.53908">
        <ele>272.241545</ele>
        <time>2022-04-13T10:33:31.320Z</time>
      </trkpt>
      <trkpt lat="42.01989" lon="21.53896">
        <ele>272.247506</ele>
        <time>2022-04-13T10:33:33.307Z</time>
      </trkpt>
      <trkpt lat="42.01985" lon="21.53883">
        <ele>272.253708</ele>
        <time>2022-04-13T10:33:35.291Z</time>
      </trkpt>
      <trkpt lat="42.01982" lon="21.53872">
        <ele>272.259669</ele>
        <time>2022-04-13T10:33:37.292Z</time>
      </trkpt>
      <trkpt lat="42.01978" lon="21.5386">
        <ele>272.256471</ele>
        <time>2022-04-13T10:33:39.319Z</time>
      </trkpt>
      <trkpt lat="42.01975" lon="21.53848">
        <ele>272.253077</ele>
        <time>2022-04-13T10:33:41.305Z</time>
      </trkpt>
      <trkpt lat="42.01971" lon="21.53836">
        <ele>272.249568</ele>
        <time>2022-04-13T10:33:43.333Z</time>
      </trkpt>
      <trkpt lat="42.01967" lon="21.53824">
        <ele>272.246048</ele>
        <time>2022-04-13T10:33:45.301Z</time>
      </trkpt>
      <trkpt lat="42.01964" lon="21.53811">
        <ele>272.242479</ele>
        <time>2022-04-13T10:33:47.289Z</time>
      </trkpt>
      <trkpt lat="42.0196" lon="21.53799">
        <ele>272.238923</ele>
        <time>2022-04-13T10:33:49.304Z</time>
      </trkpt>
      <trkpt lat="42.01957" lon="21.53786">
        <ele>272.235355</ele>
        <time>2022-04-13T10:33:51.300Z</time>
      </trkpt>
      <trkpt lat="42.01953" lon="21.53774">
        <ele>272.231811</ele>
        <time>2022-04-13T10:33:53.304Z</time>
      </trkpt>
      <trkpt lat="42.0195" lon="21.53762">
        <ele>272.228441</ele>
        <time>2022-04-13T10:33:55.291Z</time>
      </trkpt>
      <trkpt lat="42.01946" lon="21.53749">
        <ele>272.224973</ele>
        <time>2022-04-13T10:33:57.332Z</time>
      </trkpt>
      <trkpt lat="42.01942" lon="21.53737">
        <ele>272.221376</ele>
        <time>2022-04-13T10:33:59.307Z</time>
      </trkpt>
      <trkpt lat="42.01938" lon="21.53725">
        <ele>272.217881</ele>
        <time>2022-04-13T10:34:01.299Z</time>
      </trkpt>
      <trkpt lat="42.01935" lon="21.53713">
        <ele>272.214537</ele>
        <time>2022-04-13T10:34:03.305Z</time>
      </trkpt>
      <trkpt lat="42.0193" lon="21.53696">
        <ele>272.209799</ele>
        <time>2022-04-13T10:34:06.278Z</time>
      </trkpt>
      <trkpt lat="42.01927" lon="21.53685">
        <ele>272.206467</ele>
        <time>2022-04-13T10:34:08.313Z</time>
      </trkpt>
      <trkpt lat="42.01924" lon="21.53673">
        <ele>272.203135</ele>
        <time>2022-04-13T10:34:10.330Z</time>
      </trkpt>
      <trkpt lat="42.0192" lon="21.53661">
        <ele>272.199766</ele>
        <time>2022-04-13T10:34:12.292Z</time>
      </trkpt>
      <trkpt lat="42.01915" lon="21.53645">
        <ele>272.238407</ele>
        <time>2022-04-13T10:34:15.279Z</time>
      </trkpt>
      <trkpt lat="42.01912" lon="21.53632">
        <ele>272.643728</ele>
        <time>2022-04-13T10:34:18.319Z</time>
      </trkpt>
      <trkpt lat="42.01908" lon="21.5362">
        <ele>273.011341</ele>
        <time>2022-04-13T10:34:21.300Z</time>
      </trkpt>
      <trkpt lat="42.01904" lon="21.53605">
        <ele>273.47057</ele>
        <time>2022-04-13T10:34:25.302Z</time>
      </trkpt>
      <trkpt lat="42.019" lon="21.5359">
        <ele>273.917632</ele>
        <time>2022-04-13T10:34:29.313Z</time>
      </trkpt>
      <trkpt lat="42.01897" lon="21.53577">
        <ele>274.308152</ele>
        <time>2022-04-13T10:34:33.307Z</time>
      </trkpt>
      <trkpt lat="42.01893" lon="21.53565">
        <ele>274.705613</ele>
        <time>2022-04-13T10:34:37.316Z</time>
      </trkpt>
      <trkpt lat="42.01889" lon="21.53552">
        <ele>275.085418</ele>
        <time>2022-04-13T10:34:41.313Z</time>
      </trkpt>
      <trkpt lat="42.01886" lon="21.53539">
        <ele>275.482669</ele>
        <time>2022-04-13T10:34:45.283Z</time>
      </trkpt>
      <trkpt lat="42.01882" lon="21.53526">
        <ele>275.884309</ele>
        <time>2022-04-13T10:34:49.293Z</time>
      </trkpt>
      <trkpt lat="42.0188" lon="21.53513">
        <ele>276.262147</ele>
        <time>2022-04-13T10:34:53.313Z</time>
      </trkpt>
      <trkpt lat="42.01876" lon="21.53501">
        <ele>276.654064</ele>
        <time>2022-04-13T10:34:57.291Z</time>
      </trkpt>
      <trkpt lat="42.01871" lon="21.53487">
        <ele>277.089672</ele>
        <time>2022-04-13T10:35:01.296Z</time>
      </trkpt>
      <trkpt lat="42.01867" lon="21.53474">
        <ele>277.482233</ele>
        <time>2022-04-13T10:35:05.300Z</time>
      </trkpt>
      <trkpt lat="42.01864" lon="21.53462">
        <ele>277.864715</ele>
        <time>2022-04-13T10:35:09.293Z</time>
      </trkpt>
      <trkpt lat="42.0186" lon="21.5345">
        <ele>278.231005</ele>
        <time>2022-04-13T10:35:13.312Z</time>
      </trkpt>
      <trkpt lat="42.01857" lon="21.53438">
        <ele>278.582506</ele>
        <time>2022-04-13T10:35:17.342Z</time>
      </trkpt>
      <trkpt lat="42.01854" lon="21.53426">
        <ele>278.967636</ele>
        <time>2022-04-13T10:35:21.297Z</time>
      </trkpt>
      <trkpt lat="42.0185" lon="21.53412">
        <ele>279.047373</ele>
        <time>2022-04-13T10:35:25.314Z</time>
      </trkpt>
      <trkpt lat="42.01845" lon="21.53397">
        <ele>278.845761</ele>
        <time>2022-04-13T10:35:29.296Z</time>
      </trkpt>
      <trkpt lat="42.01841" lon="21.53384">
        <ele>278.669187</ele>
        <time>2022-04-13T10:35:32.293Z</time>
      </trkpt>
      <trkpt lat="42.01837" lon="21.53368">
        <ele>278.465846</ele>
        <time>2022-04-13T10:35:35.286Z</time>
      </trkpt>
      <trkpt lat="42.01834" lon="21.53357">
        <ele>278.310073</ele>
        <time>2022-04-13T10:35:37.303Z</time>
      </trkpt>
      <trkpt lat="42.0183" lon="21.53343">
        <ele>278.125947</ele>
        <time>2022-04-13T10:35:39.298Z</time>
      </trkpt>
      <trkpt lat="42.01825" lon="21.53328">
        <ele>277.924078</ele>
        <time>2022-04-13T10:35:41.307Z</time>
      </trkpt>
      <trkpt lat="42.0182" lon="21.53313">
        <ele>277.717134</ele>
        <time>2022-04-13T10:35:43.328Z</time>
      </trkpt>
      <trkpt lat="42.01815" lon="21.53296">
        <ele>277.494998</ele>
        <time>2022-04-13T10:35:45.323Z</time>
      </trkpt>
      <trkpt lat="42.0181" lon="21.53279">
        <ele>277.255371</ele>
        <time>2022-04-13T10:35:47.309Z</time>
      </trkpt>
      <trkpt lat="42.01804" lon="21.5326">
        <ele>277.005598</ele>
        <time>2022-04-13T10:35:49.347Z</time>
      </trkpt>
      <trkpt lat="42.01797" lon="21.5324">
        <ele>276.74031</ele>
        <time>2022-04-13T10:35:51.310Z</time>
      </trkpt>
      <trkpt lat="42.01791" lon="21.5322">
        <ele>276.466433</ele>
        <time>2022-04-13T10:35:53.317Z</time>
      </trkpt>
      <trkpt lat="42.01786" lon="21.532">
        <ele>276.201879</ele>
        <time>2022-04-13T10:35:55.285Z</time>
      </trkpt>
      <trkpt lat="42.01782" lon="21.53185">
        <ele>276.196822</ele>
        <time>2022-04-13T10:35:57.287Z</time>
      </trkpt>
      <trkpt lat="42.01779" lon="21.53172">
        <ele>276.258728</ele>
        <time>2022-04-13T10:35:59.302Z</time>
      </trkpt>
      <trkpt lat="42.01776" lon="21.5316">
        <ele>276.318519</ele>
        <time>2022-04-13T10:36:01.329Z</time>
      </trkpt>
      <trkpt lat="42.01773" lon="21.53144">
        <ele>276.398089</ele>
        <time>2022-04-13T10:36:04.298Z</time>
      </trkpt>
      <trkpt lat="42.01769" lon="21.53128">
        <ele>276.479085</ele>
        <time>2022-04-13T10:36:07.284Z</time>
      </trkpt>
      <trkpt lat="42.01765" lon="21.53116">
        <ele>276.541259</ele>
        <time>2022-04-13T10:36:09.294Z</time>
      </trkpt>
      <trkpt lat="42.01759" lon="21.53103">
        <ele>276.611648</ele>
        <time>2022-04-13T10:36:11.300Z</time>
      </trkpt>
      <trkpt lat="42.01755" lon="21.53091">
        <ele>276.675318</ele>
        <time>2022-04-13T10:36:13.309Z</time>
      </trkpt>
      <trkpt lat="42.01752" lon="21.53078">
        <ele>276.737841</ele>
        <time>2022-04-13T10:36:15.283Z</time>
      </trkpt>
      <trkpt lat="42.01748" lon="21.53066">
        <ele>276.799841</ele>
        <time>2022-04-13T10:36:17.295Z</time>
      </trkpt>
      <trkpt lat="42.01744" lon="21.53055">
        <ele>276.86028</ele>
        <time>2022-04-13T10:36:19.302Z</time>
      </trkpt>
      <trkpt lat="42.01739" lon="21.53039">
        <ele>276.942571</ele>
        <time>2022-04-13T10:36:22.319Z</time>
      </trkpt>
      <trkpt lat="42.01733" lon="21.53024">
        <ele>277.024577</ele>
        <time>2022-04-13T10:36:25.290Z</time>
      </trkpt>
      <trkpt lat="42.01727" lon="21.53008">
        <ele>277.108962</ele>
        <time>2022-04-13T10:36:28.300Z</time>
      </trkpt>
      <trkpt lat="42.01723" lon="21.52992">
        <ele>277.189547</ele>
        <time>2022-04-13T10:36:31.315Z</time>
      </trkpt>
      <trkpt lat="42.01718" lon="21.52975">
        <ele>277.273873</ele>
        <time>2022-04-13T10:36:34.370Z</time>
      </trkpt>
      <trkpt lat="42.01715" lon="21.52963">
        <ele>277.390687</ele>
        <time>2022-04-13T10:36:36.298Z</time>
      </trkpt>
      <trkpt lat="42.01712" lon="21.52952">
        <ele>277.524099</ele>
        <time>2022-04-13T10:36:38.311Z</time>
      </trkpt>
      <trkpt lat="42.01707" lon="21.52936">
        <ele>277.718297</ele>
        <time>2022-04-13T10:36:41.302Z</time>
      </trkpt>
      <trkpt lat="42.01702" lon="21.5292">
        <ele>277.910889</ele>
        <time>2022-04-13T10:36:44.292Z</time>
      </trkpt>
      <trkpt lat="42.01697" lon="21.52905">
        <ele>278.091744</ele>
        <time>2022-04-13T10:36:47.308Z</time>
      </trkpt>
      <trkpt lat="42.01693" lon="21.52889">
        <ele>278.275294</ele>
        <time>2022-04-13T10:36:50.306Z</time>
      </trkpt>
      <trkpt lat="42.01688" lon="21.52874">
        <ele>278.458841</ele>
        <time>2022-04-13T10:36:53.291Z</time>
      </trkpt>
      <trkpt lat="42.01684" lon="21.52858">
        <ele>278.641985</ele>
        <time>2022-04-13T10:36:56.348Z</time>
      </trkpt>
      <trkpt lat="42.01679" lon="21.52843">
        <ele>278.822439</ele>
        <time>2022-04-13T10:36:59.304Z</time>
      </trkpt>
      <trkpt lat="42.01675" lon="21.52827">
        <ele>279.015852</ele>
        <time>2022-04-13T10:37:02.340Z</time>
      </trkpt>
      <trkpt lat="42.0167" lon="21.5281">
        <ele>279.212363</ele>
        <time>2022-04-13T10:37:05.285Z</time>
      </trkpt>
      <trkpt lat="42.01667" lon="21.52798">
        <ele>279.351835</ele>
        <time>2022-04-13T10:37:07.304Z</time>
      </trkpt>
      <trkpt lat="42.01663" lon="21.52787">
        <ele>279.491839</ele>
        <time>2022-04-13T10:37:09.318Z</time>
      </trkpt>
      <trkpt lat="42.01658" lon="21.5277">
        <ele>279.692595</ele>
        <time>2022-04-13T10:37:12.311Z</time>
      </trkpt>
      <trkpt lat="42.01653" lon="21.52754">
        <ele>279.879107</ele>
        <time>2022-04-13T10:37:15.281Z</time>
      </trkpt>
      <trkpt lat="42.01648" lon="21.52738">
        <ele>280.036494</ele>
        <time>2022-04-13T10:37:18.316Z</time>
      </trkpt>
      <trkpt lat="42.01644" lon="21.52727">
        <ele>280.121044</ele>
        <time>2022-04-13T10:37:20.311Z</time>
      </trkpt>
      <trkpt lat="42.01641" lon="21.52715">
        <ele>280.20653</ele>
        <time>2022-04-13T10:37:22.314Z</time>
      </trkpt>
      <trkpt lat="42.01638" lon="21.52703">
        <ele>280.292665</ele>
        <time>2022-04-13T10:37:24.348Z</time>
      </trkpt>
      <trkpt lat="42.01635" lon="21.52691">
        <ele>280.378879</ele>
        <time>2022-04-13T10:37:26.304Z</time>
      </trkpt>
      <trkpt lat="42.01633" lon="21.52679">
        <ele>280.46183</ele>
        <time>2022-04-13T10:37:28.317Z</time>
      </trkpt>
      <trkpt lat="42.01628" lon="21.52663">
        <ele>280.57813</ele>
        <time>2022-04-13T10:37:31.304Z</time>
      </trkpt>
      <trkpt lat="42.01623" lon="21.52648">
        <ele>280.695845</ele>
        <time>2022-04-13T10:37:34.306Z</time>
      </trkpt>
      <trkpt lat="42.01619" lon="21.52632">
        <ele>280.81022</ele>
        <time>2022-04-13T10:37:37.302Z</time>
      </trkpt>
      <trkpt lat="42.01614" lon="21.52617">
        <ele>280.922345</ele>
        <time>2022-04-13T10:37:40.300Z</time>
      </trkpt>
      <trkpt lat="42.01609" lon="21.52602">
        <ele>281.032309</ele>
        <time>2022-04-13T10:37:43.310Z</time>
      </trkpt>
      <trkpt lat="42.01605" lon="21.52587">
        <ele>281.145076</ele>
        <time>2022-04-13T10:37:46.339Z</time>
      </trkpt>
      <trkpt lat="42.01601" lon="21.52571">
        <ele>281.259145</ele>
        <time>2022-04-13T10:37:49.301Z</time>
      </trkpt>
      <trkpt lat="42.01596" lon="21.52555">
        <ele>281.376742</ele>
        <time>2022-04-13T10:37:52.315Z</time>
      </trkpt>
      <trkpt lat="42.01591" lon="21.52541">
        <ele>281.486087</ele>
        <time>2022-04-13T10:37:55.282Z</time>
      </trkpt>
      <trkpt lat="42.01587" lon="21.52525">
        <ele>281.600803</ele>
        <time>2022-04-13T10:37:58.308Z</time>
      </trkpt>
      <trkpt lat="42.01583" lon="21.5251">
        <ele>281.980066</ele>
        <time>2022-04-13T10:38:01.316Z</time>
      </trkpt>
      <trkpt lat="42.01578" lon="21.52496">
        <ele>282.411277</ele>
        <time>2022-04-13T10:38:04.299Z</time>
      </trkpt>
      <trkpt lat="42.01574" lon="21.52481">
        <ele>282.843049</ele>
        <time>2022-04-13T10:38:07.326Z</time>
      </trkpt>
      <trkpt lat="42.01569" lon="21.52468">
        <ele>283.266545</ele>
        <time>2022-04-13T10:38:10.293Z</time>
      </trkpt>
      <trkpt lat="42.01565" lon="21.52455">
        <ele>283.66551</ele>
        <time>2022-04-13T10:38:13.297Z</time>
      </trkpt>
      <trkpt lat="42.01561" lon="21.52442">
        <ele>284.035556</ele>
        <time>2022-04-13T10:38:16.308Z</time>
      </trkpt>
      <trkpt lat="42.01558" lon="21.52431">
        <ele>284.39205</ele>
        <time>2022-04-13T10:38:19.292Z</time>
      </trkpt>
      <trkpt lat="42.01555" lon="21.52419">
        <ele>284.736659</ele>
        <time>2022-04-13T10:38:22.294Z</time>
      </trkpt>
      <trkpt lat="42.01551" lon="21.52405">
        <ele>285.171219</ele>
        <time>2022-04-13T10:38:26.310Z</time>
      </trkpt>
      <trkpt lat="42.01547" lon="21.52392">
        <ele>285.572071</ele>
        <time>2022-04-13T10:38:29.297Z</time>
      </trkpt>
      <trkpt lat="42.01542" lon="21.5238">
        <ele>285.941574</ele>
        <time>2022-04-13T10:38:32.316Z</time>
      </trkpt>
      <trkpt lat="42.01539" lon="21.52367">
        <ele>286.317865</ele>
        <time>2022-04-13T10:38:35.298Z</time>
      </trkpt>
      <trkpt lat="42.01535" lon="21.52352">
        <ele>286.772052</ele>
        <time>2022-04-13T10:38:38.313Z</time>
      </trkpt>
      <trkpt lat="42.01531" lon="21.52337">
        <ele>287.240833</ele>
        <time>2022-04-13T10:38:41.308Z</time>
      </trkpt>
      <trkpt lat="42.01526" lon="21.52323">
        <ele>287.674225</ele>
        <time>2022-04-13T10:38:44.303Z</time>
      </trkpt>
      <trkpt lat="42.01521" lon="21.52309">
        <ele>288.102429</ele>
        <time>2022-04-13T10:38:47.297Z</time>
      </trkpt>
      <trkpt lat="42.01517" lon="21.52294">
        <ele>288.4814</ele>
        <time>2022-04-13T10:38:50.284Z</time>
      </trkpt>
      <trkpt lat="42.01513" lon="21.52279">
        <ele>288.635853</ele>
        <time>2022-04-13T10:38:53.312Z</time>
      </trkpt>
      <trkpt lat="42.01509" lon="21.52264">
        <ele>288.797145</ele>
        <time>2022-04-13T10:38:56.323Z</time>
      </trkpt>
      <trkpt lat="42.01506" lon="21.52249">
        <ele>288.942455</ele>
        <time>2022-04-13T10:38:59.301Z</time>
      </trkpt>
      <trkpt lat="42.01503" lon="21.52236">
        <ele>289.074657</ele>
        <time>2022-04-13T10:39:02.291Z</time>
      </trkpt>
      <trkpt lat="42.01499" lon="21.52222">
        <ele>289.217749</ele>
        <time>2022-04-13T10:39:05.300Z</time>
      </trkpt>
      <trkpt lat="42.01495" lon="21.52209">
        <ele>289.364247</ele>
        <time>2022-04-13T10:39:08.313Z</time>
      </trkpt>
      <trkpt lat="42.0149" lon="21.52195">
        <ele>289.507412</ele>
        <time>2022-04-13T10:39:11.298Z</time>
      </trkpt>
      <trkpt lat="42.01486" lon="21.52182">
        <ele>289.646889</ele>
        <time>2022-04-13T10:39:14.305Z</time>
      </trkpt>
      <trkpt lat="42.01482" lon="21.52169">
        <ele>289.781872</ele>
        <time>2022-04-13T10:39:17.303Z</time>
      </trkpt>
      <trkpt lat="42.01477" lon="21.52156">
        <ele>289.923308</ele>
        <time>2022-04-13T10:39:20.299Z</time>
      </trkpt>
      <trkpt lat="42.01472" lon="21.52142">
        <ele>290.075751</ele>
        <time>2022-04-13T10:39:23.317Z</time>
      </trkpt>
      <trkpt lat="42.01468" lon="21.52127">
        <ele>290.228399</ele>
        <time>2022-04-13T10:39:26.306Z</time>
      </trkpt>
      <trkpt lat="42.01463" lon="21.52111">
        <ele>290.39881</ele>
        <time>2022-04-13T10:39:29.308Z</time>
      </trkpt>
      <trkpt lat="42.0146" lon="21.52095">
        <ele>290.558809</ele>
        <time>2022-04-13T10:39:32.315Z</time>
      </trkpt>
      <trkpt lat="42.01455" lon="21.52081">
        <ele>290.713655</ele>
        <time>2022-04-13T10:39:35.286Z</time>
      </trkpt>
      <trkpt lat="42.0145" lon="21.52065">
        <ele>290.971055</ele>
        <time>2022-04-13T10:39:38.279Z</time>
      </trkpt>
      <trkpt lat="42.01446" lon="21.5205">
        <ele>291.319129</ele>
        <time>2022-04-13T10:39:41.280Z</time>
      </trkpt>
      <trkpt lat="42.01444" lon="21.52036">
        <ele>291.635202</ele>
        <time>2022-04-13T10:39:44.275Z</time>
      </trkpt>
      <trkpt lat="42.01438" lon="21.52025">
        <ele>291.939941</ele>
        <time>2022-04-13T10:39:47.291Z</time>
      </trkpt>
      <trkpt lat="42.01433" lon="21.52011">
        <ele>292.273317</ele>
        <time>2022-04-13T10:39:50.273Z</time>
      </trkpt>
      <trkpt lat="42.01429" lon="21.51996">
        <ele>292.623456</ele>
        <time>2022-04-13T10:39:53.283Z</time>
      </trkpt>
      <trkpt lat="42.01426" lon="21.51984">
        <ele>292.905372</ele>
        <time>2022-04-13T10:39:55.279Z</time>
      </trkpt>
      <trkpt lat="42.01423" lon="21.51971">
        <ele>293.210964</ele>
        <time>2022-04-13T10:39:57.282Z</time>
      </trkpt>
      <trkpt lat="42.01418" lon="21.5196">
        <ele>293.492526</ele>
        <time>2022-04-13T10:39:59.299Z</time>
      </trkpt>
      <trkpt lat="42.01413" lon="21.51948">
        <ele>293.80448</ele>
        <time>2022-04-13T10:40:01.273Z</time>
      </trkpt>
      <trkpt lat="42.01409" lon="21.51937">
        <ele>294.083112</ele>
        <time>2022-04-13T10:40:03.298Z</time>
      </trkpt>
      <trkpt lat="42.01405" lon="21.51925">
        <ele>294.359698</ele>
        <time>2022-04-13T10:40:05.303Z</time>
      </trkpt>
      <trkpt lat="42.01402" lon="21.51909">
        <ele>294.734427</ele>
        <time>2022-04-13T10:40:08.273Z</time>
      </trkpt>
      <trkpt lat="42.01398" lon="21.51895">
        <ele>295.071553</ele>
        <time>2022-04-13T10:40:11.278Z</time>
      </trkpt>
      <trkpt lat="42.01395" lon="21.51878">
        <ele>295.455756</ele>
        <time>2022-04-13T10:40:14.284Z</time>
      </trkpt>
      <trkpt lat="42.0139" lon="21.51861">
        <ele>295.851496</ele>
        <time>2022-04-13T10:40:17.284Z</time>
      </trkpt>
      <trkpt lat="42.01387" lon="21.51849">
        <ele>296.137403</ele>
        <time>2022-04-13T10:40:19.281Z</time>
      </trkpt>
      <trkpt lat="42.01382" lon="21.51833">
        <ele>295.870579</ele>
        <time>2022-04-13T10:40:22.281Z</time>
      </trkpt>
      <trkpt lat="42.01377" lon="21.51818">
        <ele>295.590538</ele>
        <time>2022-04-13T10:40:25.276Z</time>
      </trkpt>
      <trkpt lat="42.01371" lon="21.51802">
        <ele>295.297939</ele>
        <time>2022-04-13T10:40:28.303Z</time>
      </trkpt>
      <trkpt lat="42.01366" lon="21.51786">
        <ele>295.00914</ele>
        <time>2022-04-13T10:40:31.286Z</time>
      </trkpt>
      <trkpt lat="42.01363" lon="21.51771">
        <ele>294.742696</ele>
        <time>2022-04-13T10:40:34.296Z</time>
      </trkpt>
      <trkpt lat="42.01359" lon="21.51755">
        <ele>294.463921</ele>
        <time>2022-04-13T10:40:37.278Z</time>
      </trkpt>
      <trkpt lat="42.01354" lon="21.5174">
        <ele>294.177978</ele>
        <time>2022-04-13T10:40:40.301Z</time>
      </trkpt>
      <trkpt lat="42.0135" lon="21.51723">
        <ele>293.884201</ele>
        <time>2022-04-13T10:40:43.270Z</time>
      </trkpt>
      <trkpt lat="42.01345" lon="21.51707">
        <ele>293.592828</ele>
        <time>2022-04-13T10:40:46.301Z</time>
      </trkpt>
      <trkpt lat="42.01341" lon="21.5169">
        <ele>293.295117</ele>
        <time>2022-04-13T10:40:49.279Z</time>
      </trkpt>
      <trkpt lat="42.01337" lon="21.51679">
        <ele>293.084566</ele>
        <time>2022-04-13T10:40:51.275Z</time>
      </trkpt>
      <trkpt lat="42.01333" lon="21.51667">
        <ele>292.875555</ele>
        <time>2022-04-13T10:40:53.284Z</time>
      </trkpt>
      <trkpt lat="42.0133" lon="21.51656">
        <ele>292.667605</ele>
        <time>2022-04-13T10:40:55.270Z</time>
      </trkpt>
      <trkpt lat="42.01327" lon="21.51644">
        <ele>292.457253</ele>
        <time>2022-04-13T10:40:57.283Z</time>
      </trkpt>
      <trkpt lat="42.01323" lon="21.51632">
        <ele>292.244627</ele>
        <time>2022-04-13T10:40:59.278Z</time>
      </trkpt>
      <trkpt lat="42.0132" lon="21.51615">
        <ele>292.049284</ele>
        <time>2022-04-13T10:41:02.282Z</time>
      </trkpt>
      <trkpt lat="42.01316" lon="21.51598">
        <ele>291.978153</ele>
        <time>2022-04-13T10:41:05.283Z</time>
      </trkpt>
      <trkpt lat="42.01311" lon="21.51582">
        <ele>291.906447</ele>
        <time>2022-04-13T10:41:08.278Z</time>
      </trkpt>
      <trkpt lat="42.01306" lon="21.51567">
        <ele>291.840466</ele>
        <time>2022-04-13T10:41:11.281Z</time>
      </trkpt>
      <trkpt lat="42.01301" lon="21.51552">
        <ele>291.776198</ele>
        <time>2022-04-13T10:41:14.300Z</time>
      </trkpt>
      <trkpt lat="42.01299" lon="21.51539">
        <ele>291.721136</ele>
        <time>2022-04-13T10:41:17.279Z</time>
      </trkpt>
      <trkpt lat="42.01295" lon="21.51525">
        <ele>291.657436</ele>
        <time>2022-04-13T10:41:20.305Z</time>
      </trkpt>
      <trkpt lat="42.01291" lon="21.51512">
        <ele>291.601156</ele>
        <time>2022-04-13T10:41:23.283Z</time>
      </trkpt>
      <trkpt lat="42.01288" lon="21.51499">
        <ele>291.547332</ele>
        <time>2022-04-13T10:41:26.303Z</time>
      </trkpt>
      <trkpt lat="42.01282" lon="21.51484">
        <ele>291.478431</ele>
        <time>2022-04-13T10:41:29.279Z</time>
      </trkpt>
      <trkpt lat="42.01277" lon="21.51469">
        <ele>291.40947</ele>
        <time>2022-04-13T10:41:32.296Z</time>
      </trkpt>
      <trkpt lat="42.01272" lon="21.51453">
        <ele>291.34057</ele>
        <time>2022-04-13T10:41:35.268Z</time>
      </trkpt>
      <trkpt lat="42.01267" lon="21.51437">
        <ele>291.268407</ele>
        <time>2022-04-13T10:41:38.269Z</time>
      </trkpt>
      <trkpt lat="42.01263" lon="21.5142">
        <ele>291.197857</ele>
        <time>2022-04-13T10:41:41.276Z</time>
      </trkpt>
      <trkpt lat="42.01259" lon="21.51406">
        <ele>291.135387</ele>
        <time>2022-04-13T10:41:44.300Z</time>
      </trkpt>
      <trkpt lat="42.01256" lon="21.51392">
        <ele>291.000108</ele>
        <time>2022-04-13T10:41:47.286Z</time>
      </trkpt>
      <trkpt lat="42.01253" lon="21.51375">
        <ele>290.72058</ele>
        <time>2022-04-13T10:41:50.304Z</time>
      </trkpt>
      <trkpt lat="42.01248" lon="21.5136">
        <ele>290.450584</ele>
        <time>2022-04-13T10:41:53.282Z</time>
      </trkpt>
      <trkpt lat="42.01244" lon="21.51345">
        <ele>290.193607</ele>
        <time>2022-04-13T10:41:56.310Z</time>
      </trkpt>
      <trkpt lat="42.01239" lon="21.51329">
        <ele>289.917853</ele>
        <time>2022-04-13T10:41:59.289Z</time>
      </trkpt>
      <trkpt lat="42.01234" lon="21.51315">
        <ele>289.670328</ele>
        <time>2022-04-13T10:42:02.302Z</time>
      </trkpt>
      <trkpt lat="42.0123" lon="21.51301">
        <ele>289.417168</ele>
        <time>2022-04-13T10:42:05.273Z</time>
      </trkpt>
      <trkpt lat="42.01228" lon="21.51288">
        <ele>289.202057</ele>
        <time>2022-04-13T10:42:08.301Z</time>
      </trkpt>
      <trkpt lat="42.01225" lon="21.5127">
        <ele>288.911979</ele>
        <time>2022-04-13T10:42:11.276Z</time>
      </trkpt>
      <trkpt lat="42.01221" lon="21.51253">
        <ele>288.619142</ele>
        <time>2022-04-13T10:42:14.296Z</time>
      </trkpt>
      <trkpt lat="42.01218" lon="21.51242">
        <ele>288.421494</ele>
        <time>2022-04-13T10:42:16.281Z</time>
      </trkpt>
      <trkpt lat="42.01213" lon="21.51226">
        <ele>288.142985</ele>
        <time>2022-04-13T10:42:19.270Z</time>
      </trkpt>
      <trkpt lat="42.01208" lon="21.51211">
        <ele>287.876671</ele>
        <time>2022-04-13T10:42:22.272Z</time>
      </trkpt>
      <trkpt lat="42.01203" lon="21.51196">
        <ele>287.608996</ele>
        <time>2022-04-13T10:42:25.277Z</time>
      </trkpt>
      <trkpt lat="42.01199" lon="21.51181">
        <ele>287.342141</ele>
        <time>2022-04-13T10:42:28.279Z</time>
      </trkpt>
      <trkpt lat="42.01195" lon="21.51165">
        <ele>287.289551</ele>
        <time>2022-04-13T10:42:31.278Z</time>
      </trkpt>
      <trkpt lat="42.0119" lon="21.51151">
        <ele>287.678613</ele>
        <time>2022-04-13T10:42:34.273Z</time>
      </trkpt>
      <trkpt lat="42.01185" lon="21.51137">
        <ele>288.045868</ele>
        <time>2022-04-13T10:42:37.278Z</time>
      </trkpt>
      <trkpt lat="42.01182" lon="21.51125">
        <ele>288.353497</ele>
        <time>2022-04-13T10:42:40.272Z</time>
      </trkpt>
      <trkpt lat="42.01177" lon="21.51113">
        <ele>288.686965</ele>
        <time>2022-04-13T10:42:43.302Z</time>
      </trkpt>
      <trkpt lat="42.01173" lon="21.51098">
        <ele>289.068459</ele>
        <time>2022-04-13T10:42:46.276Z</time>
      </trkpt>
      <trkpt lat="42.01169" lon="21.51083">
        <ele>289.483437</ele>
        <time>2022-04-13T10:42:49.386Z</time>
      </trkpt>
      <trkpt lat="42.01164" lon="21.51067">
        <ele>289.894665</ele>
        <time>2022-04-13T10:42:52.284Z</time>
      </trkpt>
      <trkpt lat="42.0116" lon="21.51053">
        <ele>290.254465</ele>
        <time>2022-04-13T10:42:55.287Z</time>
      </trkpt>
      <trkpt lat="42.01156" lon="21.5104">
        <ele>290.593225</ele>
        <time>2022-04-13T10:42:58.269Z</time>
      </trkpt>
      <trkpt lat="42.01153" lon="21.51027">
        <ele>290.927926</ele>
        <time>2022-04-13T10:43:01.280Z</time>
      </trkpt>
      <trkpt lat="42.01149" lon="21.51016">
        <ele>291.232897</ele>
        <time>2022-04-13T10:43:05.269Z</time>
      </trkpt>
      <trkpt lat="42.01144" lon="21.51003">
        <ele>291.586843</ele>
        <time>2022-04-13T10:43:09.281Z</time>
      </trkpt>
      <trkpt lat="42.01139" lon="21.50992">
        <ele>291.914253</ele>
        <time>2022-04-13T10:43:13.343Z</time>
      </trkpt>
      <trkpt lat="42.01134" lon="21.50976">
        <ele>292.316733</ele>
        <time>2022-04-13T10:43:17.268Z</time>
      </trkpt>
      <trkpt lat="42.01132" lon="21.50964">
        <ele>292.624283</ele>
        <time>2022-04-13T10:43:20.272Z</time>
      </trkpt>
      <trkpt lat="42.0113" lon="21.50952">
        <ele>292.92636</ele>
        <time>2022-04-13T10:43:23.278Z</time>
      </trkpt>
      <trkpt lat="42.01124" lon="21.5094">
        <ele>293.239498</ele>
        <time>2022-04-13T10:43:27.308Z</time>
      </trkpt>
      <trkpt lat="42.01115" lon="21.5093">
        <ele>293.561231</ele>
        <time>2022-04-13T10:43:31.273Z</time>
      </trkpt>
      <trkpt lat="42.01104" lon="21.50925">
        <ele>293.86706</ele>
        <time>2022-04-13T10:43:35.315Z</time>
      </trkpt>
      <trkpt lat="42.01096" lon="21.5092">
        <ele>294.121771</ele>
        <time>2022-04-13T10:43:39.276Z</time>
      </trkpt>
      <trkpt lat="42.01086" lon="21.50913">
        <ele>294.413452</ele>
        <time>2022-04-13T10:43:43.274Z</time>
      </trkpt>
      <trkpt lat="42.01075" lon="21.50905">
        <ele>294.775993</ele>
        <time>2022-04-13T10:43:47.274Z</time>
      </trkpt>
      <trkpt lat="42.01065" lon="21.50897">
        <ele>295.081408</ele>
        <time>2022-04-13T10:43:51.276Z</time>
      </trkpt>
      <trkpt lat="42.01057" lon="21.50891">
        <ele>295.335323</ele>
        <time>2022-04-13T10:43:54.274Z</time>
      </trkpt>
      <trkpt lat="42.01046" lon="21.50886">
        <ele>295.65893</ele>
        <time>2022-04-13T10:43:57.295Z</time>
      </trkpt>
      <trkpt lat="42.01035" lon="21.50881">
        <ele>295.972416</ele>
        <time>2022-04-13T10:44:00.279Z</time>
      </trkpt>
      <trkpt lat="42.01024" lon="21.50876">
        <ele>296.286353</ele>
        <time>2022-04-13T10:44:03.279Z</time>
      </trkpt>
      <trkpt lat="42.01016" lon="21.5087">
        <ele>296.550547</ele>
        <time>2022-04-13T10:44:06.285Z</time>
      </trkpt>
      <trkpt lat="42.01007" lon="21.50863">
        <ele>296.827267</ele>
        <time>2022-04-13T10:44:11.271Z</time>
      </trkpt>
      <trkpt lat="42.00998" lon="21.5086">
        <ele>297.091027</ele>
        <time>2022-04-13T10:44:16.277Z</time>
      </trkpt>
      <trkpt lat="42.00987" lon="21.50855">
        <ele>297.404918</ele>
        <time>2022-04-13T10:44:20.277Z</time>
      </trkpt>
      <trkpt lat="42.00974" lon="21.5085">
        <ele>297.765032</ele>
        <time>2022-04-13T10:44:23.306Z</time>
      </trkpt>
      <trkpt lat="42.00965" lon="21.50847">
        <ele>297.910001</ele>
        <time>2022-04-13T10:44:25.276Z</time>
      </trkpt>
      <trkpt lat="42.00955" lon="21.50843">
        <ele>297.378615</ele>
        <time>2022-04-13T10:44:27.275Z</time>
      </trkpt>
      <trkpt lat="42.00945" lon="21.50838">
        <ele>296.837703</ele>
        <time>2022-04-13T10:44:29.283Z</time>
      </trkpt>
      <trkpt lat="42.00934" lon="21.50833">
        <ele>296.227725</ele>
        <time>2022-04-13T10:44:31.291Z</time>
      </trkpt>
      <trkpt lat="42.00923" lon="21.50827">
        <ele>295.593525</ele>
        <time>2022-04-13T10:44:33.277Z</time>
      </trkpt>
      <trkpt lat="42.0091" lon="21.5082">
        <ele>294.872203</ele>
        <time>2022-04-13T10:44:35.275Z</time>
      </trkpt>
      <trkpt lat="42.00897" lon="21.50811">
        <ele>294.069902</ele>
        <time>2022-04-13T10:44:37.278Z</time>
      </trkpt>
      <trkpt lat="42.00883" lon="21.508">
        <ele>293.245488</ele>
        <time>2022-04-13T10:44:39.284Z</time>
      </trkpt>
      <trkpt lat="42.0087" lon="21.50787">
        <ele>292.418962</ele>
        <time>2022-04-13T10:44:41.276Z</time>
      </trkpt>
      <trkpt lat="42.00859" lon="21.50772">
        <ele>291.589445</ele>
        <time>2022-04-13T10:44:43.280Z</time>
      </trkpt>
      <trkpt lat="42.00848" lon="21.50756">
        <ele>290.743117</ele>
        <time>2022-04-13T10:44:45.279Z</time>
      </trkpt>
      <trkpt lat="42.00839" lon="21.5074">
        <ele>289.969243</ele>
        <time>2022-04-13T10:44:47.282Z</time>
      </trkpt>
      <trkpt lat="42.0083" lon="21.50725">
        <ele>289.231195</ele>
        <time>2022-04-13T10:44:49.269Z</time>
      </trkpt>
      <trkpt lat="42.00821" lon="21.5071">
        <ele>288.50755</ele>
        <time>2022-04-13T10:44:51.292Z</time>
      </trkpt>
      <trkpt lat="42.00814" lon="21.50696">
        <ele>288.013762</ele>
        <time>2022-04-13T10:44:53.277Z</time>
      </trkpt>
      <trkpt lat="42.00806" lon="21.50682">
        <ele>287.51297</ele>
        <time>2022-04-13T10:44:55.277Z</time>
      </trkpt>
      <trkpt lat="42.00799" lon="21.50668">
        <ele>287.021444</ele>
        <time>2022-04-13T10:44:57.274Z</time>
      </trkpt>
      <trkpt lat="42.00791" lon="21.50655">
        <ele>286.538899</ele>
        <time>2022-04-13T10:44:59.272Z</time>
      </trkpt>
      <trkpt lat="42.00784" lon="21.50642">
        <ele>286.081993</ele>
        <time>2022-04-13T10:45:01.284Z</time>
      </trkpt>
      <trkpt lat="42.00778" lon="21.50628">
        <ele>285.621838</ele>
        <time>2022-04-13T10:45:03.279Z</time>
      </trkpt>
      <trkpt lat="42.00771" lon="21.50614">
        <ele>285.12746</ele>
        <time>2022-04-13T10:45:05.279Z</time>
      </trkpt>
      <trkpt lat="42.00764" lon="21.506">
        <ele>284.635825</ele>
        <time>2022-04-13T10:45:07.311Z</time>
      </trkpt>
      <trkpt lat="42.00757" lon="21.50586">
        <ele>284.162451</ele>
        <time>2022-04-13T10:45:09.286Z</time>
      </trkpt>
      <trkpt lat="42.0075" lon="21.50573">
        <ele>283.71473</ele>
        <time>2022-04-13T10:45:11.274Z</time>
      </trkpt>
      <trkpt lat="42.00744" lon="21.50561">
        <ele>283.289645</ele>
        <time>2022-04-13T10:45:13.284Z</time>
      </trkpt>
      <trkpt lat="42.00738" lon="21.50549">
        <ele>282.878146</ele>
        <time>2022-04-13T10:45:15.283Z</time>
      </trkpt>
      <trkpt lat="42.00733" lon="21.50537">
        <ele>282.483784</ele>
        <time>2022-04-13T10:45:17.278Z</time>
      </trkpt>
      <trkpt lat="42.00728" lon="21.50527">
        <ele>282.131422</ele>
        <time>2022-04-13T10:45:19.276Z</time>
      </trkpt>
      <trkpt lat="42.00723" lon="21.50517">
        <ele>281.77776</ele>
        <time>2022-04-13T10:45:21.288Z</time>
      </trkpt>
      <trkpt lat="42.00718" lon="21.50506">
        <ele>281.652246</ele>
        <time>2022-04-13T10:45:23.284Z</time>
      </trkpt>
      <trkpt lat="42.00712" lon="21.50496">
        <ele>281.681603</ele>
        <time>2022-04-13T10:45:25.278Z</time>
      </trkpt>
      <trkpt lat="42.00707" lon="21.50485">
        <ele>281.710815</ele>
        <time>2022-04-13T10:45:27.282Z</time>
      </trkpt>
      <trkpt lat="42.00702" lon="21.50475">
        <ele>281.740361</ele>
        <time>2022-04-13T10:45:29.299Z</time>
      </trkpt>
      <trkpt lat="42.00695" lon="21.50461">
        <ele>281.778788</ele>
        <time>2022-04-13T10:45:32.275Z</time>
      </trkpt>
      <trkpt lat="42.00688" lon="21.50448">
        <ele>281.815785</ele>
        <time>2022-04-13T10:45:35.302Z</time>
      </trkpt>
      <trkpt lat="42.00682" lon="21.50435">
        <ele>281.851045</ele>
        <time>2022-04-13T10:45:38.305Z</time>
      </trkpt>
      <trkpt lat="42.00675" lon="21.50423">
        <ele>281.884827</ele>
        <time>2022-04-13T10:45:41.299Z</time>
      </trkpt>
      <trkpt lat="42.0067" lon="21.50411">
        <ele>281.917684</ele>
        <time>2022-04-13T10:45:44.280Z</time>
      </trkpt>
      <trkpt lat="42.00662" lon="21.50397">
        <ele>281.957775</ele>
        <time>2022-04-13T10:45:47.287Z</time>
      </trkpt>
      <trkpt lat="42.00657" lon="21.50386">
        <ele>281.988289</ele>
        <time>2022-04-13T10:45:49.288Z</time>
      </trkpt>
      <trkpt lat="42.00651" lon="21.5037">
        <ele>282.028167</ele>
        <time>2022-04-13T10:45:52.356Z</time>
      </trkpt>
      <trkpt lat="42.00645" lon="21.50359">
        <ele>282.059578</ele>
        <time>2022-04-13T10:45:54.276Z</time>
      </trkpt>
      <trkpt lat="42.00639" lon="21.50346">
        <ele>282.096047</ele>
        <time>2022-04-13T10:45:56.278Z</time>
      </trkpt>
      <trkpt lat="42.00633" lon="21.50332">
        <ele>282.132189</ele>
        <time>2022-04-13T10:45:58.271Z</time>
      </trkpt>
      <trkpt lat="42.00626" lon="21.5032">
        <ele>282.166897</ele>
        <time>2022-04-13T10:46:00.278Z</time>
      </trkpt>
      <trkpt lat="42.0062" lon="21.5031">
        <ele>282.275375</ele>
        <time>2022-04-13T10:46:02.275Z</time>
      </trkpt>
      <trkpt lat="42.00613" lon="21.50299">
        <ele>282.746815</ele>
        <time>2022-04-13T10:46:04.275Z</time>
      </trkpt>
      <trkpt lat="42.00607" lon="21.5029">
        <ele>283.190262</ele>
        <time>2022-04-13T10:46:06.274Z</time>
      </trkpt>
      <trkpt lat="42.00599" lon="21.50275">
        <ele>283.797832</ele>
        <time>2022-04-13T10:46:09.274Z</time>
      </trkpt>
      <trkpt lat="42.00592" lon="21.50264">
        <ele>284.310274</ele>
        <time>2022-04-13T10:46:12.276Z</time>
      </trkpt>
      <trkpt lat="42.00586" lon="21.50254">
        <ele>284.728182</ele>
        <time>2022-04-13T10:46:15.271Z</time>
      </trkpt>
      <trkpt lat="42.0058" lon="21.50244">
        <ele>285.197041</ele>
        <time>2022-04-13T10:46:19.285Z</time>
      </trkpt>
      <trkpt lat="42.00573" lon="21.50234">
        <ele>285.654497</ele>
        <time>2022-04-13T10:46:23.280Z</time>
      </trkpt>
      <trkpt lat="42.00566" lon="21.50226">
        <ele>286.076243</ele>
        <time>2022-04-13T10:46:27.279Z</time>
      </trkpt>
      <trkpt lat="42.00568" lon="21.50239">
        <ele>286.545894</ele>
        <time>2022-04-13T10:46:36.272Z</time>
      </trkpt>
      <trkpt lat="42.00575" lon="21.50252">
        <ele>287.106799</ele>
        <time>2022-04-13T10:46:39.270Z</time>
      </trkpt>
      <trkpt lat="42.00581" lon="21.50265">
        <ele>287.627625</ele>
        <time>2022-04-13T10:46:42.272Z</time>
      </trkpt>
      <trkpt lat="42.00586" lon="21.50279">
        <ele>288.166174</ele>
        <time>2022-04-13T10:46:45.269Z</time>
      </trkpt>
      <trkpt lat="42.00593" lon="21.50294">
        <ele>288.768549</ele>
        <time>2022-04-13T10:46:48.273Z</time>
      </trkpt>
      <trkpt lat="42.006" lon="21.50304">
        <ele>289.221031</ele>
        <time>2022-04-13T10:46:50.274Z</time>
      </trkpt>
      <trkpt lat="42.00605" lon="21.50316">
        <ele>289.687975</ele>
        <time>2022-04-13T10:46:53.273Z</time>
      </trkpt>
      <trkpt lat="42.00605" lon="21.50331">
        <ele>290.194906</ele>
        <time>2022-04-13T10:46:57.280Z</time>
      </trkpt>
      <trkpt lat="42.006" lon="21.50342">
        <ele>290.479648</ele>
        <time>2022-04-13T10:47:00.268Z</time>
      </trkpt>
      <trkpt lat="42.0059" lon="21.50351">
        <ele>290.470731</ele>
        <time>2022-04-13T10:47:03.285Z</time>
      </trkpt>
      <trkpt lat="42.0058" lon="21.50359">
        <ele>290.461892</ele>
        <time>2022-04-13T10:47:06.271Z</time>
      </trkpt>
      <trkpt lat="42.00569" lon="21.50366">
        <ele>290.452896</ele>
        <time>2022-04-13T10:47:09.286Z</time>
      </trkpt>
      <trkpt lat="42.0056" lon="21.50372">
        <ele>290.444905</ele>
        <time>2022-04-13T10:47:12.269Z</time>
      </trkpt>
      <trkpt lat="42.0055" lon="21.50378">
        <ele>290.436938</ele>
        <time>2022-04-13T10:47:15.276Z</time>
      </trkpt>
      <trkpt lat="42.00539" lon="21.50384">
        <ele>290.428286</ele>
        <time>2022-04-13T10:47:18.275Z</time>
      </trkpt>
      <trkpt lat="42.00527" lon="21.50391">
        <ele>290.418374</ele>
        <time>2022-04-13T10:47:21.275Z</time>
      </trkpt>
      <trkpt lat="42.00518" lon="21.50395">
        <ele>290.411368</ele>
        <time>2022-04-13T10:47:23.284Z</time>
      </trkpt>
      <trkpt lat="42.00509" lon="21.504">
        <ele>290.404142</ele>
        <time>2022-04-13T10:47:25.285Z</time>
      </trkpt>
      <trkpt lat="42.00497" lon="21.50405">
        <ele>290.394614</ele>
        <time>2022-04-13T10:47:28.300Z</time>
      </trkpt>
      <trkpt lat="42.00484" lon="21.50408">
        <ele>290.38477</ele>
        <time>2022-04-13T10:47:31.298Z</time>
      </trkpt>
      <trkpt lat="42.00472" lon="21.5041">
        <ele>290.376116</ele>
        <time>2022-04-13T10:47:34.294Z</time>
      </trkpt>
      <trkpt lat="42.0046" lon="21.5041">
        <ele>290.366855</ele>
        <time>2022-04-13T10:47:37.285Z</time>
      </trkpt>
      <trkpt lat="42.00447" lon="21.50411">
        <ele>290.356916</ele>
        <time>2022-04-13T10:47:40.290Z</time>
      </trkpt>
      <trkpt lat="42.00437" lon="21.50412">
        <ele>290.349748</ele>
        <time>2022-04-13T10:47:42.295Z</time>
      </trkpt>
      <trkpt lat="42.00428" lon="21.50411">
        <ele>290.103036</ele>
        <time>2022-04-13T10:47:44.301Z</time>
      </trkpt>
      <trkpt lat="42.00415" lon="21.50409">
        <ele>289.65684</ele>
        <time>2022-04-13T10:47:47.293Z</time>
      </trkpt>
      <trkpt lat="42.00403" lon="21.50406">
        <ele>289.233292</ele>
        <time>2022-04-13T10:47:50.304Z</time>
      </trkpt>
      <trkpt lat="42.0039" lon="21.50403">
        <ele>288.778804</ele>
        <time>2022-04-13T10:47:53.291Z</time>
      </trkpt>
      <trkpt lat="42.00378" lon="21.50398">
        <ele>288.347656</ele>
        <time>2022-04-13T10:47:56.300Z</time>
      </trkpt>
      <trkpt lat="42.00365" lon="21.50393">
        <ele>287.878525</ele>
        <time>2022-04-13T10:47:59.307Z</time>
      </trkpt>
      <trkpt lat="42.00356" lon="21.5039">
        <ele>287.565271</ele>
        <time>2022-04-13T10:48:01.293Z</time>
      </trkpt>
      <trkpt lat="42.00344" lon="21.50383">
        <ele>287.122445</ele>
        <time>2022-04-13T10:48:04.294Z</time>
      </trkpt>
      <trkpt lat="42.00335" lon="21.50378">
        <ele>286.79583</ele>
        <time>2022-04-13T10:48:06.313Z</time>
      </trkpt>
      <trkpt lat="42.00327" lon="21.50373">
        <ele>286.469519</ele>
        <time>2022-04-13T10:48:08.302Z</time>
      </trkpt>
      <trkpt lat="42.00315" lon="21.50365">
        <ele>286.025407</ele>
        <time>2022-04-13T10:48:11.298Z</time>
      </trkpt>
      <trkpt lat="42.00304" lon="21.50356">
        <ele>285.565499</ele>
        <time>2022-04-13T10:48:14.289Z</time>
      </trkpt>
      <trkpt lat="42.00292" lon="21.50348">
        <ele>285.120153</ele>
        <time>2022-04-13T10:48:17.284Z</time>
      </trkpt>
      <trkpt lat="42.00285" lon="21.50341">
        <ele>284.808117</ele>
        <time>2022-04-13T10:48:19.312Z</time>
      </trkpt>
      <trkpt lat="42.00273" lon="21.50332">
        <ele>284.354734</ele>
        <time>2022-04-13T10:48:22.300Z</time>
      </trkpt>
      <trkpt lat="42.00262" lon="21.50324">
        <ele>284.007162</ele>
        <time>2022-04-13T10:48:25.288Z</time>
      </trkpt>
      <trkpt lat="42.00252" lon="21.50316">
        <ele>283.752942</ele>
        <time>2022-04-13T10:48:28.283Z</time>
      </trkpt>
      <trkpt lat="42.00241" lon="21.50307">
        <ele>283.484826</ele>
        <time>2022-04-13T10:48:31.290Z</time>
      </trkpt>
      <trkpt lat="42.00233" lon="21.50301">
        <ele>283.288103</ele>
        <time>2022-04-13T10:48:33.298Z</time>
      </trkpt>
      <trkpt lat="42.00225" lon="21.50295">
        <ele>283.086164</ele>
        <time>2022-04-13T10:48:35.337Z</time>
      </trkpt>
      <trkpt lat="42.00216" lon="21.50289">
        <ele>282.881617</ele>
        <time>2022-04-13T10:48:37.334Z</time>
      </trkpt>
      <trkpt lat="42.00207" lon="21.50283">
        <ele>282.669991</ele>
        <time>2022-04-13T10:48:39.311Z</time>
      </trkpt>
      <trkpt lat="42.00199" lon="21.50276">
        <ele>282.470469</ele>
        <time>2022-04-13T10:48:41.315Z</time>
      </trkpt>
      <trkpt lat="42.00192" lon="21.5027">
        <ele>282.279106</ele>
        <time>2022-04-13T10:48:43.297Z</time>
      </trkpt>
      <trkpt lat="42.00184" lon="21.50262">
        <ele>282.078924</ele>
        <time>2022-04-13T10:48:45.298Z</time>
      </trkpt>
      <trkpt lat="42.00176" lon="21.50255">
        <ele>281.875284</ele>
        <time>2022-04-13T10:48:47.303Z</time>
      </trkpt>
      <trkpt lat="42.00168" lon="21.50247">
        <ele>281.662011</ele>
        <time>2022-04-13T10:48:49.298Z</time>
      </trkpt>
      <trkpt lat="42.00159" lon="21.5024">
        <ele>281.450354</ele>
        <time>2022-04-13T10:48:51.312Z</time>
      </trkpt>
      <trkpt lat="42.00151" lon="21.50234">
        <ele>281.253453</ele>
        <time>2022-04-13T10:48:53.294Z</time>
      </trkpt>
      <trkpt lat="42.00142" lon="21.50227">
        <ele>281.041827</ele>
        <time>2022-04-13T10:48:55.285Z</time>
      </trkpt>
      <trkpt lat="42.00132" lon="21.5022">
        <ele>280.788085</ele>
        <time>2022-04-13T10:48:58.307Z</time>
      </trkpt>
      <trkpt lat="42.0012" lon="21.50211">
        <ele>280.505949</ele>
        <time>2022-04-13T10:49:01.289Z</time>
      </trkpt>
      <trkpt lat="42.00111" lon="21.50206">
        <ele>280.384353</ele>
        <time>2022-04-13T10:49:03.297Z</time>
      </trkpt>
      <trkpt lat="42.00102" lon="21.50201">
        <ele>280.604109</ele>
        <time>2022-04-13T10:49:05.295Z</time>
      </trkpt>
      <trkpt lat="42.00094" lon="21.50196">
        <ele>280.814775</ele>
        <time>2022-04-13T10:49:07.291Z</time>
      </trkpt>
      <trkpt lat="42.00085" lon="21.50191">
        <ele>281.028843</ele>
        <time>2022-04-13T10:49:09.355Z</time>
      </trkpt>
      <trkpt lat="42.00077" lon="21.50187">
        <ele>281.247266</ele>
        <time>2022-04-13T10:49:11.310Z</time>
      </trkpt>
      <trkpt lat="42.00068" lon="21.50182">
        <ele>281.472794</ele>
        <time>2022-04-13T10:49:13.309Z</time>
      </trkpt>
      <trkpt lat="42.00059" lon="21.50176">
        <ele>281.683367</ele>
        <time>2022-04-13T10:49:15.282Z</time>
      </trkpt>
      <trkpt lat="42.00051" lon="21.50171">
        <ele>281.902381</ele>
        <time>2022-04-13T10:49:17.306Z</time>
      </trkpt>
      <trkpt lat="42.00041" lon="21.50164">
        <ele>282.160112</ele>
        <time>2022-04-13T10:49:20.303Z</time>
      </trkpt>
      <trkpt lat="42.00031" lon="21.50157">
        <ele>282.42402</ele>
        <time>2022-04-13T10:49:24.297Z</time>
      </trkpt>
      <trkpt lat="42.00021" lon="21.50153">
        <ele>282.671305</ele>
        <time>2022-04-13T10:49:28.304Z</time>
      </trkpt>
      <trkpt lat="42.0001" lon="21.50148">
        <ele>282.925923</ele>
        <time>2022-04-13T10:49:33.354Z</time>
      </trkpt>
      <trkpt lat="42" lon="21.50142">
        <ele>283.182703</ele>
        <time>2022-04-13T10:49:38.303Z</time>
      </trkpt>
      <trkpt lat="41.99991" lon="21.50137">
        <ele>283.425758</ele>
        <time>2022-04-13T10:49:43.299Z</time>
      </trkpt>
      <trkpt lat="41.99982" lon="21.5013">
        <ele>283.644834</ele>
        <time>2022-04-13T10:49:48.295Z</time>
      </trkpt>
      <trkpt lat="41.99972" lon="21.50124">
        <ele>283.90412</ele>
        <time>2022-04-13T10:49:53.308Z</time>
      </trkpt>
      <trkpt lat="41.99963" lon="21.5012">
        <ele>284.12342</ele>
        <time>2022-04-13T10:49:57.333Z</time>
      </trkpt>
      <trkpt lat="41.99954" lon="21.50115">
        <ele>284.36132</ele>
        <time>2022-04-13T10:50:01.307Z</time>
      </trkpt>
      <trkpt lat="41.99944" lon="21.50109">
        <ele>284.48129</ele>
        <time>2022-04-13T10:50:05.303Z</time>
      </trkpt>
      <trkpt lat="41.99935" lon="21.50104">
        <ele>284.382675</ele>
        <time>2022-04-13T10:50:09.348Z</time>
      </trkpt>
      <trkpt lat="41.99927" lon="21.50099">
        <ele>284.296868</ele>
        <time>2022-04-13T10:50:12.302Z</time>
      </trkpt>
      <trkpt lat="41.99918" lon="21.50094">
        <ele>284.207034</ele>
        <time>2022-04-13T10:50:15.369Z</time>
      </trkpt>
      <trkpt lat="41.99908" lon="21.50088">
        <ele>284.098807</ele>
        <time>2022-04-13T10:50:18.296Z</time>
      </trkpt>
      <trkpt lat="41.99899" lon="21.50084">
        <ele>284.00891</ele>
        <time>2022-04-13T10:50:20.308Z</time>
      </trkpt>
      <trkpt lat="41.99889" lon="21.50078">
        <ele>283.90825</ele>
        <time>2022-04-13T10:50:22.305Z</time>
      </trkpt>
      <trkpt lat="41.99877" lon="21.50072">
        <ele>283.786141</ele>
        <time>2022-04-13T10:50:24.298Z</time>
      </trkpt>
      <trkpt lat="41.99864" lon="21.50066">
        <ele>283.654547</ele>
        <time>2022-04-13T10:50:26.309Z</time>
      </trkpt>
      <trkpt lat="41.99853" lon="21.5006">
        <ele>283.537928</ele>
        <time>2022-04-13T10:50:28.304Z</time>
      </trkpt>
      <trkpt lat="41.99843" lon="21.50055">
        <ele>283.43653</ele>
        <time>2022-04-13T10:50:30.301Z</time>
      </trkpt>
      <trkpt lat="41.99834" lon="21.50051">
        <ele>283.341095</ele>
        <time>2022-04-13T10:50:32.333Z</time>
      </trkpt>
      <trkpt lat="41.99825" lon="21.50046">
        <ele>283.247369</ele>
        <time>2022-04-13T10:50:34.302Z</time>
      </trkpt>
      <trkpt lat="41.99813" lon="21.50039">
        <ele>283.12544</ele>
        <time>2022-04-13T10:50:37.308Z</time>
      </trkpt>
      <trkpt lat="41.99801" lon="21.50033">
        <ele>283.004861</ele>
        <time>2022-04-13T10:50:40.303Z</time>
      </trkpt>
      <trkpt lat="41.99789" lon="21.50026">
        <ele>282.878235</ele>
        <time>2022-04-13T10:50:43.301Z</time>
      </trkpt>
      <trkpt lat="41.99778" lon="21.50021">
        <ele>282.800731</ele>
        <time>2022-04-13T10:50:46.313Z</time>
      </trkpt>
      <trkpt lat="41.99768" lon="21.50016">
        <ele>282.84517</ele>
        <time>2022-04-13T10:50:49.301Z</time>
      </trkpt>
      <trkpt lat="41.99756" lon="21.50009">
        <ele>282.899358</ele>
        <time>2022-04-13T10:50:52.320Z</time>
      </trkpt>
      <trkpt lat="41.99744" lon="21.50003">
        <ele>282.95088</ele>
        <time>2022-04-13T10:50:55.291Z</time>
      </trkpt>
      <trkpt lat="41.99731" lon="21.49996">
        <ele>283.005714</ele>
        <time>2022-04-13T10:50:58.292Z</time>
      </trkpt>
      <trkpt lat="41.99718" lon="21.4999">
        <ele>283.06159</ele>
        <time>2022-04-13T10:51:01.319Z</time>
      </trkpt>
      <trkpt lat="41.99707" lon="21.49983">
        <ele>283.113827</ele>
        <time>2022-04-13T10:51:04.313Z</time>
      </trkpt>
      <trkpt lat="41.99696" lon="21.49978">
        <ele>283.158652</ele>
        <time>2022-04-13T10:51:07.308Z</time>
      </trkpt>
      <trkpt lat="41.99685" lon="21.4997">
        <ele>283.208429</ele>
        <time>2022-04-13T10:51:10.316Z</time>
      </trkpt>
      <trkpt lat="41.99674" lon="21.49963">
        <ele>283.259113</ele>
        <time>2022-04-13T10:51:13.328Z</time>
      </trkpt>
      <trkpt lat="41.99666" lon="21.49957">
        <ele>283.295903</ele>
        <time>2022-04-13T10:51:15.300Z</time>
      </trkpt>
      <trkpt lat="41.99658" lon="21.49952">
        <ele>283.333361</ele>
        <time>2022-04-13T10:51:17.339Z</time>
      </trkpt>
      <trkpt lat="41.99647" lon="21.49943">
        <ele>283.384752</ele>
        <time>2022-04-13T10:51:20.283Z</time>
      </trkpt>
      <trkpt lat="41.99636" lon="21.49938">
        <ele>283.432936</ele>
        <time>2022-04-13T10:51:23.302Z</time>
      </trkpt>
      <trkpt lat="41.99627" lon="21.49934">
        <ele>283.469898</ele>
        <time>2022-04-13T10:51:30.287Z</time>
      </trkpt>
      <trkpt lat="41.99618" lon="21.49928">
        <ele>283.510509</ele>
        <time>2022-04-13T10:51:40.307Z</time>
      </trkpt>
      <trkpt lat="41.99609" lon="21.49924">
        <ele>283.51392</ele>
        <time>2022-04-13T10:51:43.304Z</time>
      </trkpt>
      <trkpt lat="41.99597" lon="21.49918">
        <ele>283.501213</ele>
        <time>2022-04-13T10:51:46.299Z</time>
      </trkpt>
      <trkpt lat="41.99586" lon="21.49912">
        <ele>283.488684</ele>
        <time>2022-04-13T10:51:49.289Z</time>
      </trkpt>
      <trkpt lat="41.99575" lon="21.49908">
        <ele>283.476664</ele>
        <time>2022-04-13T10:51:52.316Z</time>
      </trkpt>
      <trkpt lat="41.99564" lon="21.49902">
        <ele>283.464757</ele>
        <time>2022-04-13T10:51:55.301Z</time>
      </trkpt>
      <trkpt lat="41.99553" lon="21.49897">
        <ele>283.452551</ele>
        <time>2022-04-13T10:51:58.297Z</time>
      </trkpt>
      <trkpt lat="41.99541" lon="21.49892">
        <ele>283.439639</ele>
        <time>2022-04-13T10:52:01.335Z</time>
      </trkpt>
      <trkpt lat="41.99529" lon="21.49888">
        <ele>283.427081</ele>
        <time>2022-04-13T10:52:04.305Z</time>
      </trkpt>
      <trkpt lat="41.99517" lon="21.49882">
        <ele>283.414429</ele>
        <time>2022-04-13T10:52:07.301Z</time>
      </trkpt>
      <trkpt lat="41.99506" lon="21.49876">
        <ele>283.401513</ele>
        <time>2022-04-13T10:52:10.318Z</time>
      </trkpt>
      <trkpt lat="41.99496" lon="21.49871">
        <ele>283.390716</ele>
        <time>2022-04-13T10:52:13.332Z</time>
      </trkpt>
      <trkpt lat="41.99487" lon="21.49866">
        <ele>283.380465</ele>
        <time>2022-04-13T10:52:16.289Z</time>
      </trkpt>
      <trkpt lat="41.99477" lon="21.49858">
        <ele>283.368704</ele>
        <time>2022-04-13T10:52:20.317Z</time>
      </trkpt>
      <trkpt lat="41.9947" lon="21.49846">
        <ele>283.357458</ele>
        <time>2022-04-13T10:52:24.306Z</time>
      </trkpt>
      <trkpt lat="41.99472" lon="21.49834">
        <ele>283.347614</ele>
        <time>2022-04-13T10:52:27.308Z</time>
      </trkpt>
      <trkpt lat="41.99477" lon="21.4982">
        <ele>283.33655</ele>
        <time>2022-04-13T10:52:30.319Z</time>
      </trkpt>
      <trkpt lat="41.9948" lon="21.49807">
        <ele>283.409381</ele>
        <time>2022-04-13T10:52:33.294Z</time>
      </trkpt>
      <trkpt lat="41.99485" lon="21.49794">
        <ele>283.486794</ele>
        <time>2022-04-13T10:52:36.300Z</time>
      </trkpt>
      <trkpt lat="41.99489" lon="21.4978">
        <ele>283.573392</ele>
        <time>2022-04-13T10:52:39.310Z</time>
      </trkpt>
      <trkpt lat="41.99493" lon="21.49765">
        <ele>283.664149</ele>
        <time>2022-04-13T10:52:42.328Z</time>
      </trkpt>
      <trkpt lat="41.99498" lon="21.49751">
        <ele>283.748352</ele>
        <time>2022-04-13T10:52:45.298Z</time>
      </trkpt>
      <trkpt lat="41.99502" lon="21.49739">
        <ele>283.823249</ele>
        <time>2022-04-13T10:52:48.331Z</time>
      </trkpt>
      <trkpt lat="41.99506" lon="21.49726">
        <ele>283.900989</ele>
        <time>2022-04-13T10:52:51.328Z</time>
      </trkpt>
      <trkpt lat="41.9951" lon="21.49711">
        <ele>283.986525</ele>
        <time>2022-04-13T10:52:54.348Z</time>
      </trkpt>
      <trkpt lat="41.99514" lon="21.49695">
        <ele>284.081938</ele>
        <time>2022-04-13T10:52:57.305Z</time>
      </trkpt>
      <trkpt lat="41.9952" lon="21.4968">
        <ele>284.17389</ele>
        <time>2022-04-13T10:53:00.302Z</time>
      </trkpt>
      <trkpt lat="41.99525" lon="21.49665">
        <ele>284.265843</ele>
        <time>2022-04-13T10:53:03.292Z</time>
      </trkpt>
      <trkpt lat="41.9953" lon="21.4965">
        <ele>284.356021</ele>
        <time>2022-04-13T10:53:06.346Z</time>
      </trkpt>
      <trkpt lat="41.99535" lon="21.49636">
        <ele>284.445084</ele>
        <time>2022-04-13T10:53:09.293Z</time>
      </trkpt>
      <trkpt lat="41.9954" lon="21.49621">
        <ele>284.533247</ele>
        <time>2022-04-13T10:53:12.306Z</time>
      </trkpt>
      <trkpt lat="41.99545" lon="21.49607">
        <ele>284.621296</ele>
        <time>2022-04-13T10:53:15.323Z</time>
      </trkpt>
      <trkpt lat="41.9955" lon="21.49593">
        <ele>284.657504</ele>
        <time>2022-04-13T10:53:18.310Z</time>
      </trkpt>
      <trkpt lat="41.99555" lon="21.49579">
        <ele>284.59523</ele>
        <time>2022-04-13T10:53:21.327Z</time>
      </trkpt>
      <trkpt lat="41.99559" lon="21.49565">
        <ele>284.538387</ele>
        <time>2022-04-13T10:53:24.307Z</time>
      </trkpt>
      <trkpt lat="41.99562" lon="21.49553">
        <ele>284.484517</ele>
        <time>2022-04-13T10:53:27.314Z</time>
      </trkpt>
      <trkpt lat="41.99566" lon="21.49541">
        <ele>284.433251</ele>
        <time>2022-04-13T10:53:30.287Z</time>
      </trkpt>
      <trkpt lat="41.9957" lon="21.49529">
        <ele>284.383586</ele>
        <time>2022-04-13T10:53:33.303Z</time>
      </trkpt>
      <trkpt lat="41.99574" lon="21.49516">
        <ele>284.327982</ele>
        <time>2022-04-13T10:53:36.296Z</time>
      </trkpt>
      <trkpt lat="41.99577" lon="21.49505">
        <ele>284.277643</ele>
        <time>2022-04-13T10:53:39.297Z</time>
      </trkpt>
      <trkpt lat="41.99582" lon="21.49489">
        <ele>284.213373</ele>
        <time>2022-04-13T10:53:43.295Z</time>
      </trkpt>
      <trkpt lat="41.99586" lon="21.49478">
        <ele>284.161972</ele>
        <time>2022-04-13T10:53:46.316Z</time>
      </trkpt>
      <trkpt lat="41.99589" lon="21.49464">
        <ele>284.1036</ele>
        <time>2022-04-13T10:53:49.296Z</time>
      </trkpt>
      <trkpt lat="41.99593" lon="21.4945">
        <ele>284.044716</ele>
        <time>2022-04-13T10:53:52.306Z</time>
      </trkpt>
      <trkpt lat="41.99597" lon="21.49438">
        <ele>283.994879</ele>
        <time>2022-04-13T10:53:55.320Z</time>
      </trkpt>
      <trkpt lat="41.99601" lon="21.49426">
        <ele>283.941355</ele>
        <time>2022-04-13T10:53:58.305Z</time>
      </trkpt>
      <trkpt lat="41.99605" lon="21.49412">
        <ele>283.884329</ele>
        <time>2022-04-13T10:54:01.309Z</time>
      </trkpt>
      <trkpt lat="41.99609" lon="21.49399">
        <ele>283.824887</ele>
        <time>2022-04-13T10:54:04.299Z</time>
      </trkpt>
      <trkpt lat="41.99614" lon="21.49387">
        <ele>283.772767</ele>
        <time>2022-04-13T10:54:07.292Z</time>
      </trkpt>
      <trkpt lat="41.99619" lon="21.49376">
        <ele>283.722656</ele>
        <time>2022-04-13T10:54:10.287Z</time>
      </trkpt>
      <trkpt lat="41.99623" lon="21.49365">
        <ele>283.84367</ele>
        <time>2022-04-13T10:54:13.383Z</time>
      </trkpt>
      <trkpt lat="41.99628" lon="21.49353">
        <ele>283.989382</ele>
        <time>2022-04-13T10:54:17.320Z</time>
      </trkpt>
      <trkpt lat="41.99633" lon="21.49342">
        <ele>284.11853</ele>
        <time>2022-04-13T10:54:21.301Z</time>
      </trkpt>
      <trkpt lat="41.99639" lon="21.49332">
        <ele>284.25271</ele>
        <time>2022-04-13T10:54:25.340Z</time>
      </trkpt>
      <trkpt lat="41.99642" lon="21.49318">
        <ele>284.405642</ele>
        <time>2022-04-13T10:54:29.435Z</time>
      </trkpt>
      <trkpt lat="41.99639" lon="21.49306">
        <ele>284.535148</ele>
        <time>2022-04-13T10:54:32.336Z</time>
      </trkpt>
      <trkpt lat="41.99635" lon="21.49293">
        <ele>284.686198</ele>
        <time>2022-04-13T10:54:36.288Z</time>
      </trkpt>
      <trkpt lat="41.99629" lon="21.49283">
        <ele>284.818605</ele>
        <time>2022-04-13T10:54:41.293Z</time>
      </trkpt>
      <trkpt lat="41.99622" lon="21.49274">
        <ele>284.949683</ele>
        <time>2022-04-13T10:54:44.302Z</time>
      </trkpt>
      <trkpt lat="41.99615" lon="21.49267">
        <ele>285.078488</ele>
        <time>2022-04-13T10:54:47.327Z</time>
      </trkpt>
      <trkpt lat="41.99604" lon="21.49263">
        <ele>285.235586</ele>
        <time>2022-04-13T10:54:51.301Z</time>
      </trkpt>
      <trkpt lat="41.99595" lon="21.4926">
        <ele>285.366104</ele>
        <time>2022-04-13T10:54:54.288Z</time>
      </trkpt>
      <trkpt lat="41.99585" lon="21.49259">
        <ele>285.504924</ele>
        <time>2022-04-13T10:54:57.285Z</time>
      </trkpt>
      <trkpt lat="41.99575" lon="21.49258">
        <ele>285.638797</ele>
        <time>2022-04-13T10:55:00.293Z</time>
      </trkpt>
      <trkpt lat="41.99565" lon="21.49255">
        <ele>285.784272</ele>
        <time>2022-04-13T10:55:03.346Z</time>
      </trkpt>
      <trkpt lat="41.99554" lon="21.49252">
        <ele>285.943539</ele>
        <time>2022-04-13T10:55:06.300Z</time>
      </trkpt>
      <trkpt lat="41.99544" lon="21.49248">
        <ele>286.09223</ele>
        <time>2022-04-13T10:55:09.285Z</time>
      </trkpt>
      <trkpt lat="41.99532" lon="21.49245">
        <ele>286.276074</ele>
        <time>2022-04-13T10:55:12.293Z</time>
      </trkpt>
      <trkpt lat="41.99519" lon="21.49243">
        <ele>286.509608</ele>
        <time>2022-04-13T10:55:15.309Z</time>
      </trkpt>
      <trkpt lat="41.99508" lon="21.49241">
        <ele>286.72518</ele>
        <time>2022-04-13T10:55:18.296Z</time>
      </trkpt>
      <trkpt lat="41.99499" lon="21.49239">
        <ele>286.899985</ele>
        <time>2022-04-13T10:55:20.283Z</time>
      </trkpt>
      <trkpt lat="41.99487" lon="21.49236">
        <ele>287.124649</ele>
        <time>2022-04-13T10:55:23.343Z</time>
      </trkpt>
      <trkpt lat="41.99475" lon="21.49236">
        <ele>287.354982</ele>
        <time>2022-04-13T10:55:26.308Z</time>
      </trkpt>
      <trkpt lat="41.99463" lon="21.49235">
        <ele>287.581858</ele>
        <time>2022-04-13T10:55:29.301Z</time>
      </trkpt>
      <trkpt lat="41.9945" lon="21.4923">
        <ele>287.830047</ele>
        <time>2022-04-13T10:55:32.289Z</time>
      </trkpt>
      <trkpt lat="41.99438" lon="21.49226">
        <ele>288.070571</ele>
        <time>2022-04-13T10:55:35.292Z</time>
      </trkpt>
      <trkpt lat="41.99425" lon="21.49222">
        <ele>288.31876</ele>
        <time>2022-04-13T10:55:38.285Z</time>
      </trkpt>
      <trkpt lat="41.99415" lon="21.4922">
        <ele>288.504546</ele>
        <time>2022-04-13T10:55:40.302Z</time>
      </trkpt>
      <trkpt lat="41.99405" lon="21.49218">
        <ele>288.695245</ele>
        <time>2022-04-13T10:55:42.284Z</time>
      </trkpt>
      <trkpt lat="41.99396" lon="21.49216">
        <ele>288.876408</ele>
        <time>2022-04-13T10:55:44.294Z</time>
      </trkpt>
      <trkpt lat="41.99386" lon="21.49214">
        <ele>289.057147</ele>
        <time>2022-04-13T10:55:46.309Z</time>
      </trkpt>
      <trkpt lat="41.99376" lon="21.49211">
        <ele>289.249814</ele>
        <time>2022-04-13T10:55:48.296Z</time>
      </trkpt>
      <trkpt lat="41.99367" lon="21.49207">
        <ele>289.438877</ele>
        <time>2022-04-13T10:55:50.319Z</time>
      </trkpt>
      <trkpt lat="41.99358" lon="21.492">
        <ele>289.629598</ele>
        <time>2022-04-13T10:55:52.309Z</time>
      </trkpt>
      <trkpt lat="41.99347" lon="21.49191">
        <ele>289.159738</ele>
        <time>2022-04-13T10:55:55.305Z</time>
      </trkpt>
      <trkpt lat="41.99339" lon="21.49184">
        <ele>288.79743</ele>
        <time>2022-04-13T10:55:57.281Z</time>
      </trkpt>
      <trkpt lat="41.99329" lon="21.49173">
        <ele>288.290354</ele>
        <time>2022-04-13T10:56:00.296Z</time>
      </trkpt>
      <trkpt lat="41.99318" lon="21.49165">
        <ele>287.822435</ele>
        <time>2022-04-13T10:56:03.310Z</time>
      </trkpt>
      <trkpt lat="41.99309" lon="21.49155">
        <ele>287.35799</ele>
        <time>2022-04-13T10:56:06.288Z</time>
      </trkpt>
      <trkpt lat="41.99299" lon="21.49146">
        <ele>286.917897</ele>
        <time>2022-04-13T10:56:09.282Z</time>
      </trkpt>
      <trkpt lat="41.9929" lon="21.49137">
        <ele>286.468565</ele>
        <time>2022-04-13T10:56:12.311Z</time>
      </trkpt>
      <trkpt lat="41.99283" lon="21.49128">
        <ele>286.102871</ele>
        <time>2022-04-13T10:56:15.288Z</time>
      </trkpt>
      <trkpt lat="41.9928" lon="21.49117">
        <ele>285.743906</ele>
        <time>2022-04-13T10:56:18.293Z</time>
      </trkpt>
      <trkpt lat="41.99276" lon="21.49102">
        <ele>285.300546</ele>
        <time>2022-04-13T10:56:22.326Z</time>
      </trkpt>
      <trkpt lat="41.99272" lon="21.4909">
        <ele>284.922373</ele>
        <time>2022-04-13T10:56:25.304Z</time>
      </trkpt>
      <trkpt lat="41.99265" lon="21.49078">
        <ele>284.499276</ele>
        <time>2022-04-13T10:56:28.310Z</time>
      </trkpt>
      <trkpt lat="41.99261" lon="21.49067">
        <ele>284.126144</ele>
        <time>2022-04-13T10:56:31.287Z</time>
      </trkpt>
      <trkpt lat="41.99252" lon="21.49057">
        <ele>283.696095</ele>
        <time>2022-04-13T10:56:34.319Z</time>
      </trkpt>
      <trkpt lat="41.99243" lon="21.49048">
        <ele>283.25392</ele>
        <time>2022-04-13T10:56:37.283Z</time>
      </trkpt>
      <trkpt lat="41.99233" lon="21.49038">
        <ele>282.793186</ele>
        <time>2022-04-13T10:56:40.284Z</time>
      </trkpt>
      <trkpt lat="41.99224" lon="21.49029">
        <ele>282.872884</ele>
        <time>2022-04-13T10:56:43.305Z</time>
      </trkpt>
      <trkpt lat="41.99213" lon="21.4902">
        <ele>283.086323</ele>
        <time>2022-04-13T10:56:46.287Z</time>
      </trkpt>
      <trkpt lat="41.99205" lon="21.49011">
        <ele>283.275156</ele>
        <time>2022-04-13T10:56:49.292Z</time>
      </trkpt>
      <trkpt lat="41.99196" lon="21.49003">
        <ele>283.448624</ele>
        <time>2022-04-13T10:56:52.296Z</time>
      </trkpt>
      <trkpt lat="41.99188" lon="21.48994">
        <ele>283.63474</ele>
        <time>2022-04-13T10:56:56.302Z</time>
      </trkpt>
      <trkpt lat="41.99179" lon="21.48983">
        <ele>283.839454</ele>
        <time>2022-04-13T10:57:00.307Z</time>
      </trkpt>
      <trkpt lat="41.99171" lon="21.48974">
        <ele>284.019936</ele>
        <time>2022-04-13T10:57:03.288Z</time>
      </trkpt>
      <trkpt lat="41.99161" lon="21.48967">
        <ele>284.213934</ele>
        <time>2022-04-13T10:57:06.289Z</time>
      </trkpt>
      <trkpt lat="41.99152" lon="21.48958">
        <ele>284.403118</ele>
        <time>2022-04-13T10:57:09.288Z</time>
      </trkpt>
      <trkpt lat="41.99142" lon="21.4895">
        <ele>284.609473</ele>
        <time>2022-04-13T10:57:12.300Z</time>
      </trkpt>
      <trkpt lat="41.99132" lon="21.48941">
        <ele>284.813682</ele>
        <time>2022-04-13T10:57:15.293Z</time>
      </trkpt>
      <trkpt lat="41.99123" lon="21.48931">
        <ele>285.019665</ele>
        <time>2022-04-13T10:57:18.290Z</time>
      </trkpt>
      <trkpt lat="41.99113" lon="21.48923">
        <ele>285.209408</ele>
        <time>2022-04-13T10:57:21.294Z</time>
      </trkpt>
      <trkpt lat="41.99103" lon="21.48914">
        <ele>285.421654</ele>
        <time>2022-04-13T10:57:25.302Z</time>
      </trkpt>
      <trkpt lat="41.99095" lon="21.48905">
        <ele>285.59977</ele>
        <time>2022-04-13T10:57:28.317Z</time>
      </trkpt>
      <trkpt lat="41.99087" lon="21.48898">
        <ele>285.756114</ele>
        <time>2022-04-13T10:57:33.288Z</time>
      </trkpt>
      <trkpt lat="41.99082" lon="21.48888">
        <ele>286.010589</ele>
        <time>2022-04-13T10:57:37.305Z</time>
      </trkpt>
      <trkpt lat="41.99083" lon="21.48872">
        <ele>286.355</ele>
        <time>2022-04-13T10:57:41.306Z</time>
      </trkpt>
      <trkpt lat="41.99085" lon="21.4886">
        <ele>286.630433</ele>
        <time>2022-04-13T10:57:44.287Z</time>
      </trkpt>
      <trkpt lat="41.99084" lon="21.48846">
        <ele>286.928962</ele>
        <time>2022-04-13T10:57:47.292Z</time>
      </trkpt>
      <trkpt lat="41.99084" lon="21.48834">
        <ele>287.197017</ele>
        <time>2022-04-13T10:57:50.310Z</time>
      </trkpt>
      <trkpt lat="41.99083" lon="21.48822">
        <ele>287.471842</ele>
        <time>2022-04-13T10:57:54.295Z</time>
      </trkpt>
      <trkpt lat="41.99084" lon="21.4881">
        <ele>287.739472</ele>
        <time>2022-04-13T10:58:00.294Z</time>
      </trkpt>
      <trkpt lat="41.99085" lon="21.48825">
        <ele>288.085982</ele>
        <time>2022-04-13T10:59:52.295Z</time>
      </trkpt>
      <trkpt lat="41.99085" lon="21.48838">
        <ele>288.355791</ele>
        <time>2022-04-13T10:59:55.320Z</time>
      </trkpt>
      <trkpt lat="41.99085" lon="21.4885">
        <ele>288.621217</ele>
        <time>2022-04-13T10:59:58.305Z</time>
      </trkpt>
      <trkpt lat="41.99082" lon="21.48866">
        <ele>288.984959</ele>
        <time>2022-04-13T11:00:02.285Z</time>
      </trkpt>
      <trkpt lat="41.99079" lon="21.48878">
        <ele>289.261602</ele>
        <time>2022-04-13T11:00:05.285Z</time>
      </trkpt>
      <trkpt lat="41.99079" lon="21.48891">
        <ele>289.535714</ele>
        <time>2022-04-13T11:00:09.272Z</time>
      </trkpt>
      <trkpt lat="41.99085" lon="21.489">
        <ele>289.801136</ele>
        <time>2022-04-13T11:00:13.303Z</time>
      </trkpt>
      <trkpt lat="41.99092" lon="21.48908">
        <ele>290.083724</ele>
        <time>2022-04-13T11:00:17.276Z</time>
      </trkpt>
      <trkpt lat="41.99099" lon="21.48916">
        <ele>290.354101</ele>
        <time>2022-04-13T11:00:20.313Z</time>
      </trkpt>
      <trkpt lat="41.99108" lon="21.48924">
        <ele>290.650267</ele>
        <time>2022-04-13T11:00:24.297Z</time>
      </trkpt>
      <trkpt lat="41.99116" lon="21.4893">
        <ele>290.921951</ele>
        <time>2022-04-13T11:00:28.286Z</time>
      </trkpt>
      <trkpt lat="41.99125" lon="21.48939">
        <ele>291.174233</ele>
        <time>2022-04-13T11:00:32.305Z</time>
      </trkpt>
      <trkpt lat="41.99132" lon="21.48947">
        <ele>291.28936</ele>
        <time>2022-04-13T11:00:35.286Z</time>
      </trkpt>
      <trkpt lat="41.99141" lon="21.48955">
        <ele>291.417583</ele>
        <time>2022-04-13T11:00:39.294Z</time>
      </trkpt>
      <trkpt lat="41.99158" lon="21.48967">
        <ele>291.65564</ele>
        <time>2022-04-13T11:04:50.314Z</time>
      </trkpt>
      <trkpt lat="41.99166" lon="21.48977">
        <ele>291.799574</ele>
        <time>2022-04-13T11:04:55.281Z</time>
      </trkpt>
      <trkpt lat="41.99176" lon="21.48985">
        <ele>291.937986</ele>
        <time>2022-04-13T11:04:59.299Z</time>
      </trkpt>
      <trkpt lat="41.99184" lon="21.48993">
        <ele>292.069163</ele>
        <time>2022-04-13T11:05:03.293Z</time>
      </trkpt>
      <trkpt lat="41.99193" lon="21.49001">
        <ele>292.194617</ele>
        <time>2022-04-13T11:05:06.303Z</time>
      </trkpt>
      <trkpt lat="41.99201" lon="21.49007">
        <ele>292.31498</ele>
        <time>2022-04-13T11:05:09.299Z</time>
      </trkpt>
      <trkpt lat="41.99208" lon="21.49015">
        <ele>292.433305</ele>
        <time>2022-04-13T11:05:12.402Z</time>
      </trkpt>
      <trkpt lat="41.99216" lon="21.49023">
        <ele>292.5553</ele>
        <time>2022-04-13T11:05:15.283Z</time>
      </trkpt>
      <trkpt lat="41.99224" lon="21.49031">
        <ele>292.681698</ele>
        <time>2022-04-13T11:05:18.336Z</time>
      </trkpt>
      <trkpt lat="41.99233" lon="21.49039">
        <ele>292.812868</ele>
        <time>2022-04-13T11:05:21.300Z</time>
      </trkpt>
      <trkpt lat="41.99241" lon="21.49047">
        <ele>292.938688</ele>
        <time>2022-04-13T11:05:24.271Z</time>
      </trkpt>
      <trkpt lat="41.99249" lon="21.49056">
        <ele>293.070473</ele>
        <time>2022-04-13T11:05:27.294Z</time>
      </trkpt>
      <trkpt lat="41.99256" lon="21.49065">
        <ele>293.190558</ele>
        <time>2022-04-13T11:05:30.334Z</time>
      </trkpt>
      <trkpt lat="41.99262" lon="21.49077">
        <ele>293.326626</ele>
        <time>2022-04-13T11:05:34.289Z</time>
      </trkpt>
      <trkpt lat="41.99266" lon="21.49092">
        <ele>293.162501</ele>
        <time>2022-04-13T11:05:38.278Z</time>
      </trkpt>
      <trkpt lat="41.9927" lon="21.49103">
        <ele>292.981694</ele>
        <time>2022-04-13T11:05:41.296Z</time>
      </trkpt>
      <trkpt lat="41.99274" lon="21.49117">
        <ele>292.758053</ele>
        <time>2022-04-13T11:05:45.277Z</time>
      </trkpt>
      <trkpt lat="41.99278" lon="21.49129">
        <ele>292.57168</ele>
        <time>2022-04-13T11:05:48.303Z</time>
      </trkpt>
      <trkpt lat="41.99283" lon="21.49142">
        <ele>292.345864</ele>
        <time>2022-04-13T11:05:52.280Z</time>
      </trkpt>
      <trkpt lat="41.99293" lon="21.49149">
        <ele>292.134872</ele>
        <time>2022-04-13T11:05:55.292Z</time>
      </trkpt>
      <trkpt lat="41.99303" lon="21.49156">
        <ele>291.905957</ele>
        <time>2022-04-13T11:05:58.394Z</time>
      </trkpt>
      <trkpt lat="41.99313" lon="21.49165">
        <ele>291.677429</ele>
        <time>2022-04-13T11:06:01.282Z</time>
      </trkpt>
      <trkpt lat="41.99322" lon="21.49173">
        <ele>291.465352</ele>
        <time>2022-04-13T11:06:04.302Z</time>
      </trkpt>
      <trkpt lat="41.9933" lon="21.49181">
        <ele>291.264661</ele>
        <time>2022-04-13T11:06:07.302Z</time>
      </trkpt>
      <trkpt lat="41.99339" lon="21.49189">
        <ele>291.053399</ele>
        <time>2022-04-13T11:06:10.328Z</time>
      </trkpt>
      <trkpt lat="41.99348" lon="21.49198">
        <ele>290.819011</ele>
        <time>2022-04-13T11:06:13.286Z</time>
      </trkpt>
      <trkpt lat="41.99357" lon="21.49205">
        <ele>290.614173</ele>
        <time>2022-04-13T11:06:16.286Z</time>
      </trkpt>
      <trkpt lat="41.99366" lon="21.49211">
        <ele>290.417699</ele>
        <time>2022-04-13T11:06:19.316Z</time>
      </trkpt>
      <trkpt lat="41.99376" lon="21.49216">
        <ele>290.212649</ele>
        <time>2022-04-13T11:06:22.295Z</time>
      </trkpt>
      <trkpt lat="41.99387" lon="21.49217">
        <ele>289.983418</ele>
        <time>2022-04-13T11:06:26.344Z</time>
      </trkpt>
      <trkpt lat="41.99397" lon="21.49219">
        <ele>289.791815</ele>
        <time>2022-04-13T11:06:29.322Z</time>
      </trkpt>
      <trkpt lat="41.99408" lon="21.49221">
        <ele>289.834521</ele>
        <time>2022-04-13T11:06:32.299Z</time>
      </trkpt>
      <trkpt lat="41.99419" lon="21.49224">
        <ele>289.876243</ele>
        <time>2022-04-13T11:06:35.318Z</time>
      </trkpt>
      <trkpt lat="41.9943" lon="21.49227">
        <ele>289.919481</ele>
        <time>2022-04-13T11:06:38.288Z</time>
      </trkpt>
      <trkpt lat="41.9944" lon="21.49229">
        <ele>289.961528</ele>
        <time>2022-04-13T11:06:41.313Z</time>
      </trkpt>
      <trkpt lat="41.99452" lon="21.49232">
        <ele>290.005331</ele>
        <time>2022-04-13T11:06:44.288Z</time>
      </trkpt>
      <trkpt lat="41.99464" lon="21.49235">
        <ele>290.052322</ele>
        <time>2022-04-13T11:06:47.295Z</time>
      </trkpt>
      <trkpt lat="41.99476" lon="21.49237">
        <ele>290.09952</ele>
        <time>2022-04-13T11:06:50.301Z</time>
      </trkpt>
      <trkpt lat="41.99488" lon="21.49238">
        <ele>290.146683</ele>
        <time>2022-04-13T11:06:53.300Z</time>
      </trkpt>
      <trkpt lat="41.995" lon="21.49239">
        <ele>290.192583</ele>
        <time>2022-04-13T11:06:56.329Z</time>
      </trkpt>
      <trkpt lat="41.99511" lon="21.49241">
        <ele>290.237683</ele>
        <time>2022-04-13T11:06:59.375Z</time>
      </trkpt>
      <trkpt lat="41.99523" lon="21.49243">
        <ele>290.284257</ele>
        <time>2022-04-13T11:07:02.301Z</time>
      </trkpt>
      <trkpt lat="41.99535" lon="21.49245">
        <ele>290.33065</ele>
        <time>2022-04-13T11:07:05.284Z</time>
      </trkpt>
      <trkpt lat="41.99547" lon="21.49249">
        <ele>290.376901</ele>
        <time>2022-04-13T11:07:08.327Z</time>
      </trkpt>
      <trkpt lat="41.99558" lon="21.49253">
        <ele>290.421358</ele>
        <time>2022-04-13T11:07:11.343Z</time>
      </trkpt>
      <trkpt lat="41.99569" lon="21.49258">
        <ele>290.464921</ele>
        <time>2022-04-13T11:07:14.294Z</time>
      </trkpt>
      <trkpt lat="41.9958" lon="21.4926">
        <ele>290.566926</ele>
        <time>2022-04-13T11:07:17.437Z</time>
      </trkpt>
      <trkpt lat="41.99591" lon="21.49263">
        <ele>290.709126</ele>
        <time>2022-04-13T11:07:20.308Z</time>
      </trkpt>
      <trkpt lat="41.99601" lon="21.49268">
        <ele>290.855879</ele>
        <time>2022-04-13T11:07:23.299Z</time>
      </trkpt>
      <trkpt lat="41.99611" lon="21.49272">
        <ele>290.991488</ele>
        <time>2022-04-13T11:07:27.281Z</time>
      </trkpt>
      <trkpt lat="41.99622" lon="21.49273">
        <ele>291.134435</ele>
        <time>2022-04-13T11:07:32.316Z</time>
      </trkpt>
      <trkpt lat="41.99629" lon="21.49262">
        <ele>291.284787</ele>
        <time>2022-04-13T11:07:36.302Z</time>
      </trkpt>
      <trkpt lat="41.99631" lon="21.49246">
        <ele>291.438155</ele>
        <time>2022-04-13T11:07:39.287Z</time>
      </trkpt>
      <trkpt lat="41.99633" lon="21.49232">
        <ele>291.582968</ele>
        <time>2022-04-13T11:07:42.304Z</time>
      </trkpt>
      <trkpt lat="41.99634" lon="21.49218">
        <ele>291.722752</ele>
        <time>2022-04-13T11:07:45.300Z</time>
      </trkpt>
      <trkpt lat="41.99635" lon="21.49202">
        <ele>291.874497</ele>
        <time>2022-04-13T11:07:48.309Z</time>
      </trkpt>
      <trkpt lat="41.99636" lon="21.49187">
        <ele>292.023582</ele>
        <time>2022-04-13T11:07:51.345Z</time>
      </trkpt>
      <trkpt lat="41.99637" lon="21.49173">
        <ele>292.159048</ele>
        <time>2022-04-13T11:07:54.283Z</time>
      </trkpt>
      <trkpt lat="41.99639" lon="21.49159">
        <ele>292.302079</ele>
        <time>2022-04-13T11:07:57.342Z</time>
      </trkpt>
      <trkpt lat="41.9964" lon="21.49143">
        <ele>292.45372</ele>
        <time>2022-04-13T11:08:00.302Z</time>
      </trkpt>
      <trkpt lat="41.9964" lon="21.49128">
        <ele>292.606138</ele>
        <time>2022-04-13T11:08:03.303Z</time>
      </trkpt>
      <trkpt lat="41.99639" lon="21.4911">
        <ele>292.776218</ele>
        <time>2022-04-13T11:08:06.355Z</time>
      </trkpt>
      <trkpt lat="41.9964" lon="21.49094">
        <ele>292.85117</ele>
        <time>2022-04-13T11:08:09.355Z</time>
      </trkpt>
      <trkpt lat="41.99641" lon="21.49078">
        <ele>292.853613</ele>
        <time>2022-04-13T11:08:12.298Z</time>
      </trkpt>
      <trkpt lat="41.99642" lon="21.49063">
        <ele>292.855937</ele>
        <time>2022-04-13T11:08:15.294Z</time>
      </trkpt>
      <trkpt lat="41.99641" lon="21.49048">
        <ele>292.858198</ele>
        <time>2022-04-13T11:08:18.294Z</time>
      </trkpt>
      <trkpt lat="41.99641" lon="21.49034">
        <ele>292.860408</ele>
        <time>2022-04-13T11:08:21.293Z</time>
      </trkpt>
      <trkpt lat="41.99641" lon="21.49017">
        <ele>292.863016</ele>
        <time>2022-04-13T11:08:24.308Z</time>
      </trkpt>
      <trkpt lat="41.99642" lon="21.49001">
        <ele>292.865487</ele>
        <time>2022-04-13T11:08:27.296Z</time>
      </trkpt>
      <trkpt lat="41.99641" lon="21.48984">
        <ele>292.867988</ele>
        <time>2022-04-13T11:08:30.319Z</time>
      </trkpt>
      <trkpt lat="41.99641" lon="21.48968">
        <ele>292.870504</ele>
        <time>2022-04-13T11:08:33.367Z</time>
      </trkpt>
      <trkpt lat="41.99641" lon="21.48954">
        <ele>292.872667</ele>
        <time>2022-04-13T11:08:36.300Z</time>
      </trkpt>
      <trkpt lat="41.99641" lon="21.48938">
        <ele>292.875168</ele>
        <time>2022-04-13T11:08:39.307Z</time>
      </trkpt>
      <trkpt lat="41.99643" lon="21.48921">
        <ele>292.877747</ele>
        <time>2022-04-13T11:08:42.303Z</time>
      </trkpt>
      <trkpt lat="41.99646" lon="21.48906">
        <ele>292.880097</ele>
        <time>2022-04-13T11:08:45.301Z</time>
      </trkpt>
      <trkpt lat="41.99652" lon="21.4889">
        <ele>292.882846</ele>
        <time>2022-04-13T11:08:48.318Z</time>
      </trkpt>
      <trkpt lat="41.99657" lon="21.4888">
        <ele>292.884739</ele>
        <time>2022-04-13T11:08:50.283Z</time>
      </trkpt>
      <trkpt lat="41.99664" lon="21.48867">
        <ele>292.903518</ele>
        <time>2022-04-13T11:08:53.292Z</time>
      </trkpt>
      <trkpt lat="41.99673" lon="21.48857">
        <ele>293.108154</ele>
        <time>2022-04-13T11:08:56.309Z</time>
      </trkpt>
      <trkpt lat="41.99681" lon="21.48849">
        <ele>293.270642</ele>
        <time>2022-04-13T11:08:58.300Z</time>
      </trkpt>
      <trkpt lat="41.99688" lon="21.48842">
        <ele>293.42371</ele>
        <time>2022-04-13T11:09:00.299Z</time>
      </trkpt>
      <trkpt lat="41.99697" lon="21.48834">
        <ele>293.604292</ele>
        <time>2022-04-13T11:09:04.301Z</time>
      </trkpt>
      <trkpt lat="41.99706" lon="21.48825">
        <ele>293.789949</ele>
        <time>2022-04-13T11:09:09.326Z</time>
      </trkpt>
      <trkpt lat="41.99714" lon="21.48816">
        <ele>293.970945</ele>
        <time>2022-04-13T11:09:13.294Z</time>
      </trkpt>
      <trkpt lat="41.99721" lon="21.48804">
        <ele>294.162706</ele>
        <time>2022-04-13T11:09:17.314Z</time>
      </trkpt>
      <trkpt lat="41.99727" lon="21.4879">
        <ele>294.363595</ele>
        <time>2022-04-13T11:09:21.309Z</time>
      </trkpt>
      <trkpt lat="41.99729" lon="21.48776">
        <ele>294.544056</ele>
        <time>2022-04-13T11:09:24.340Z</time>
      </trkpt>
      <trkpt lat="41.99729" lon="21.48763">
        <ele>294.719983</ele>
        <time>2022-04-13T11:09:27.338Z</time>
      </trkpt>
      <trkpt lat="41.99729" lon="21.48749">
        <ele>294.886768</ele>
        <time>2022-04-13T11:09:30.293Z</time>
      </trkpt>
      <trkpt lat="41.9973" lon="21.48736">
        <ele>295.053632</ele>
        <time>2022-04-13T11:09:33.293Z</time>
      </trkpt>
      <trkpt lat="41.99731" lon="21.48724">
        <ele>295.207113</ele>
        <time>2022-04-13T11:09:36.281Z</time>
      </trkpt>
      <trkpt lat="41.9973" lon="21.48711">
        <ele>295.374452</ele>
        <time>2022-04-13T11:09:39.301Z</time>
      </trkpt>
      <trkpt lat="41.9973" lon="21.48696">
        <ele>295.559209</ele>
        <time>2022-04-13T11:09:42.301Z</time>
      </trkpt>
      <trkpt lat="41.99729" lon="21.48682">
        <ele>295.738831</ele>
        <time>2022-04-13T11:09:45.306Z</time>
      </trkpt>
      <trkpt lat="41.99728" lon="21.48667">
        <ele>295.930539</ele>
        <time>2022-04-13T11:09:48.290Z</time>
      </trkpt>
      <trkpt lat="41.99728" lon="21.48652">
        <ele>296.338476</ele>
        <time>2022-04-13T11:09:51.297Z</time>
      </trkpt>
      <trkpt lat="41.99726" lon="21.48636">
        <ele>296.785218</ele>
        <time>2022-04-13T11:09:54.315Z</time>
      </trkpt>
      <trkpt lat="41.99725" lon="21.48621">
        <ele>297.217606</ele>
        <time>2022-04-13T11:09:57.302Z</time>
      </trkpt>
      <trkpt lat="41.99724" lon="21.48604">
        <ele>297.693932</ele>
        <time>2022-04-13T11:10:00.281Z</time>
      </trkpt>
      <trkpt lat="41.99722" lon="21.48592">
        <ele>298.033419</ele>
        <time>2022-04-13T11:10:02.294Z</time>
      </trkpt>
      <trkpt lat="41.99721" lon="21.48573">
        <ele>298.553531</ele>
        <time>2022-04-13T11:10:05.295Z</time>
      </trkpt>
      <trkpt lat="41.9972" lon="21.4856">
        <ele>298.92572</ele>
        <time>2022-04-13T11:10:07.300Z</time>
      </trkpt>
      <trkpt lat="41.9972" lon="21.48547">
        <ele>299.286273</ele>
        <time>2022-04-13T11:10:09.295Z</time>
      </trkpt>
      <trkpt lat="41.99721" lon="21.48534">
        <ele>299.644328</ele>
        <time>2022-04-13T11:10:11.299Z</time>
      </trkpt>
      <trkpt lat="41.99721" lon="21.4852">
        <ele>300.027295</ele>
        <time>2022-04-13T11:10:13.314Z</time>
      </trkpt>
      <trkpt lat="41.99721" lon="21.48507">
        <ele>300.401878</ele>
        <time>2022-04-13T11:10:15.305Z</time>
      </trkpt>
      <trkpt lat="41.99719" lon="21.48495">
        <ele>300.746335</ele>
        <time>2022-04-13T11:10:17.306Z</time>
      </trkpt>
      <trkpt lat="41.99718" lon="21.48478">
        <ele>301.225252</ele>
        <time>2022-04-13T11:10:20.293Z</time>
      </trkpt>
      <trkpt lat="41.99717" lon="21.48466">
        <ele>301.570679</ele>
        <time>2022-04-13T11:10:22.300Z</time>
      </trkpt>
      <trkpt lat="41.99716" lon="21.48453">
        <ele>301.917903</ele>
        <time>2022-04-13T11:10:24.299Z</time>
      </trkpt>
      <trkpt lat="41.99715" lon="21.48441">
        <ele>302.267986</ele>
        <time>2022-04-13T11:10:26.286Z</time>
      </trkpt>
      <trkpt lat="41.99715" lon="21.48428">
        <ele>302.614566</ele>
        <time>2022-04-13T11:10:28.286Z</time>
      </trkpt>
      <trkpt lat="41.99715" lon="21.48416">
        <ele>302.687432</ele>
        <time>2022-04-13T11:10:30.317Z</time>
      </trkpt>
      <trkpt lat="41.99714" lon="21.48404">
        <ele>302.656934</ele>
        <time>2022-04-13T11:10:32.306Z</time>
      </trkpt>
      <trkpt lat="41.99714" lon="21.48387">
        <ele>302.616776</ele>
        <time>2022-04-13T11:10:35.286Z</time>
      </trkpt>
      <trkpt lat="41.99714" lon="21.48372">
        <ele>302.579318</ele>
        <time>2022-04-13T11:10:38.290Z</time>
      </trkpt>
      <trkpt lat="41.99714" lon="21.48358">
        <ele>302.544275</ele>
        <time>2022-04-13T11:10:41.291Z</time>
      </trkpt>
      <trkpt lat="41.99713" lon="21.48345">
        <ele>302.512654</ele>
        <time>2022-04-13T11:10:44.317Z</time>
      </trkpt>
      <trkpt lat="41.99711" lon="21.48328">
        <ele>302.470572</ele>
        <time>2022-04-13T11:10:47.293Z</time>
      </trkpt>
      <trkpt lat="41.99709" lon="21.48311">
        <ele>302.428006</ele>
        <time>2022-04-13T11:10:50.308Z</time>
      </trkpt>
      <trkpt lat="41.99707" lon="21.48295">
        <ele>302.387744</ele>
        <time>2022-04-13T11:10:53.346Z</time>
      </trkpt>
      <trkpt lat="41.99704" lon="21.48278">
        <ele>302.347067</ele>
        <time>2022-04-13T11:10:56.322Z</time>
      </trkpt>
      <trkpt lat="41.99703" lon="21.48261">
        <ele>302.303772</ele>
        <time>2022-04-13T11:10:59.291Z</time>
      </trkpt>
      <trkpt lat="41.99702" lon="21.48245">
        <ele>302.264538</ele>
        <time>2022-04-13T11:11:02.311Z</time>
      </trkpt>
      <trkpt lat="41.99702" lon="21.48233">
        <ele>302.234873</ele>
        <time>2022-04-13T11:11:04.289Z</time>
      </trkpt>
      <trkpt lat="41.99701" lon="21.4822">
        <ele>302.204547</ele>
        <time>2022-04-13T11:11:06.300Z</time>
      </trkpt>
      <trkpt lat="41.997" lon="21.48208">
        <ele>302.17365</ele>
        <time>2022-04-13T11:11:08.308Z</time>
      </trkpt>
      <trkpt lat="41.99699" lon="21.48195">
        <ele>302.142029</ele>
        <time>2022-04-13T11:11:10.277Z</time>
      </trkpt>
      <trkpt lat="41.99699" lon="21.48183">
        <ele>302.081988</ele>
        <time>2022-04-13T11:11:12.359Z</time>
      </trkpt>
      <trkpt lat="41.99698" lon="21.48165">
        <ele>301.769214</ele>
        <time>2022-04-13T11:11:15.286Z</time>
      </trkpt>
      <trkpt lat="41.99697" lon="21.48153">
        <ele>301.538958</ele>
        <time>2022-04-13T11:11:17.295Z</time>
      </trkpt>
      <trkpt lat="41.99696" lon="21.4814">
        <ele>301.307982</ele>
        <time>2022-04-13T11:11:19.294Z</time>
      </trkpt>
      <trkpt lat="41.99696" lon="21.48122">
        <ele>300.988739</ele>
        <time>2022-04-13T11:11:22.299Z</time>
      </trkpt>
      <trkpt lat="41.99695" lon="21.48106">
        <ele>300.693377</ele>
        <time>2022-04-13T11:11:25.292Z</time>
      </trkpt>
      <trkpt lat="41.99694" lon="21.4809">
        <ele>300.40737</ele>
        <time>2022-04-13T11:11:28.311Z</time>
      </trkpt>
      <trkpt lat="41.99695" lon="21.48073">
        <ele>300.086162</ele>
        <time>2022-04-13T11:11:31.287Z</time>
      </trkpt>
      <trkpt lat="41.99695" lon="21.48055">
        <ele>299.769091</ele>
        <time>2022-04-13T11:11:34.310Z</time>
      </trkpt>
      <trkpt lat="41.99695" lon="21.48038">
        <ele>299.451795</ele>
        <time>2022-04-13T11:11:37.293Z</time>
      </trkpt>
      <trkpt lat="41.99693" lon="21.4802">
        <ele>299.130007</ele>
        <time>2022-04-13T11:11:40.301Z</time>
      </trkpt>
      <trkpt lat="41.99693" lon="21.48007">
        <ele>298.897445</ele>
        <time>2022-04-13T11:11:42.283Z</time>
      </trkpt>
      <trkpt lat="41.99691" lon="21.47995">
        <ele>298.678538</ele>
        <time>2022-04-13T11:11:44.346Z</time>
      </trkpt>
      <trkpt lat="41.99691" lon="21.47983">
        <ele>298.457322</ele>
        <time>2022-04-13T11:11:46.305Z</time>
      </trkpt>
      <trkpt lat="41.9969" lon="21.47965">
        <ele>298.129296</ele>
        <time>2022-04-13T11:11:49.306Z</time>
      </trkpt>
      <trkpt lat="41.9969" lon="21.47953">
        <ele>297.906391</ele>
        <time>2022-04-13T11:11:51.319Z</time>
      </trkpt>
      <trkpt lat="41.99689" lon="21.47935">
        <ele>297.665653</ele>
        <time>2022-04-13T11:11:54.300Z</time>
      </trkpt>
      <trkpt lat="41.99688" lon="21.47917">
        <ele>297.521599</ele>
        <time>2022-04-13T11:11:57.305Z</time>
      </trkpt>
      <trkpt lat="41.99688" lon="21.47905">
        <ele>297.4173</ele>
        <time>2022-04-13T11:11:59.321Z</time>
      </trkpt>
      <trkpt lat="41.99687" lon="21.47887">
        <ele>297.269673</ele>
        <time>2022-04-13T11:12:02.322Z</time>
      </trkpt>
      <trkpt lat="41.99686" lon="21.4787">
        <ele>297.127149</ele>
        <time>2022-04-13T11:12:05.282Z</time>
      </trkpt>
      <trkpt lat="41.99685" lon="21.47854">
        <ele>296.992394</ele>
        <time>2022-04-13T11:12:08.311Z</time>
      </trkpt>
      <trkpt lat="41.99685" lon="21.47838">
        <ele>296.863338</ele>
        <time>2022-04-13T11:12:11.288Z</time>
      </trkpt>
      <trkpt lat="41.99683" lon="21.47824">
        <ele>296.746195</ele>
        <time>2022-04-13T11:12:14.292Z</time>
      </trkpt>
      <trkpt lat="41.99684" lon="21.4781">
        <ele>296.631106</ele>
        <time>2022-04-13T11:12:17.295Z</time>
      </trkpt>
      <trkpt lat="41.99683" lon="21.47794">
        <ele>296.498486</ele>
        <time>2022-04-13T11:12:20.287Z</time>
      </trkpt>
      <trkpt lat="41.99682" lon="21.47777">
        <ele>296.354311</ele>
        <time>2022-04-13T11:12:23.282Z</time>
      </trkpt>
      <trkpt lat="41.99682" lon="21.47759">
        <ele>296.208719</ele>
        <time>2022-04-13T11:12:26.293Z</time>
      </trkpt>
      <trkpt lat="41.99681" lon="21.47743">
        <ele>296.077479</ele>
        <time>2022-04-13T11:12:29.288Z</time>
      </trkpt>
      <trkpt lat="41.99679" lon="21.47729">
        <ele>295.954914</ele>
        <time>2022-04-13T11:12:32.299Z</time>
      </trkpt>
      <trkpt lat="41.99679" lon="21.47713">
        <ele>295.827535</ele>
        <time>2022-04-13T11:12:35.296Z</time>
      </trkpt>
      <trkpt lat="41.99678" lon="21.47699">
        <ele>295.650099</ele>
        <time>2022-04-13T11:12:38.287Z</time>
      </trkpt>
      <trkpt lat="41.99678" lon="21.47683">
        <ele>295.231046</ele>
        <time>2022-04-13T11:12:41.288Z</time>
      </trkpt>
      <trkpt lat="41.99678" lon="21.47669">
        <ele>294.861929</ele>
        <time>2022-04-13T11:12:44.322Z</time>
      </trkpt>
      <trkpt lat="41.99677" lon="21.47655">
        <ele>294.499135</ele>
        <time>2022-04-13T11:12:47.292Z</time>
      </trkpt>
      <trkpt lat="41.99678" lon="21.4764">
        <ele>294.09853</ele>
        <time>2022-04-13T11:12:50.298Z</time>
      </trkpt>
      <trkpt lat="41.99677" lon="21.47626">
        <ele>293.739828</ele>
        <time>2022-04-13T11:12:54.330Z</time>
      </trkpt>
      <trkpt lat="41.99676" lon="21.47614">
        <ele>293.411887</ele>
        <time>2022-04-13T11:12:57.290Z</time>
      </trkpt>
      <trkpt lat="41.99673" lon="21.47602">
        <ele>293.076408</ele>
        <time>2022-04-13T11:13:01.339Z</time>
      </trkpt>
      <trkpt lat="41.99662" lon="21.47589">
        <ele>292.546492</ele>
        <time>2022-04-13T11:13:22.314Z</time>
      </trkpt>
      <trkpt lat="41.99652" lon="21.47588">
        <ele>292.19163</ele>
        <time>2022-04-13T11:13:26.314Z</time>
      </trkpt>
      <trkpt lat="41.99642" lon="21.47585">
        <ele>291.828643</ele>
        <time>2022-04-13T11:13:31.316Z</time>
      </trkpt>
      <trkpt lat="41.99631" lon="21.47583">
        <ele>291.436566</ele>
        <time>2022-04-13T11:13:35.298Z</time>
      </trkpt>
      <trkpt lat="41.9962" lon="21.47581">
        <ele>291.046091</ele>
        <time>2022-04-13T11:13:38.281Z</time>
      </trkpt>
      <trkpt lat="41.9961" lon="21.4758">
        <ele>290.678409</ele>
        <time>2022-04-13T11:13:41.282Z</time>
      </trkpt>
      <trkpt lat="41.99598" lon="21.47578">
        <ele>290.278719</ele>
        <time>2022-04-13T11:13:45.289Z</time>
      </trkpt>
      <trkpt lat="41.99586" lon="21.47577">
        <ele>289.851801</ele>
        <time>2022-04-13T11:13:49.294Z</time>
      </trkpt>
      <trkpt lat="41.99573" lon="21.47574">
        <ele>289.388004</ele>
        <time>2022-04-13T11:13:52.298Z</time>
      </trkpt>
      <trkpt lat="41.99561" lon="21.4757">
        <ele>288.988161</ele>
        <time>2022-04-13T11:13:55.333Z</time>
      </trkpt>
      <trkpt lat="41.99549" lon="21.47572">
        <ele>288.623278</ele>
        <time>2022-04-13T11:13:58.283Z</time>
      </trkpt>
      <trkpt lat="41.99536" lon="21.47573">
        <ele>288.233855</ele>
        <time>2022-04-13T11:14:01.308Z</time>
      </trkpt>
      <trkpt lat="41.99524" lon="21.47572">
        <ele>287.865744</ele>
        <time>2022-04-13T11:14:04.298Z</time>
      </trkpt>
      <trkpt lat="41.99514" lon="21.47569">
        <ele>287.572721</ele>
        <time>2022-04-13T11:14:06.285Z</time>
      </trkpt>
      <trkpt lat="41.99505" lon="21.47565">
        <ele>287.284242</ele>
        <time>2022-04-13T11:14:08.282Z</time>
      </trkpt>
      <trkpt lat="41.99496" lon="21.47562">
        <ele>286.996541</ele>
        <time>2022-04-13T11:14:10.283Z</time>
      </trkpt>
      <trkpt lat="41.99486" lon="21.47559">
        <ele>286.685844</ele>
        <time>2022-04-13T11:14:12.288Z</time>
      </trkpt>
      <trkpt lat="41.99476" lon="21.47556">
        <ele>286.373628</ele>
        <time>2022-04-13T11:14:14.306Z</time>
      </trkpt>
      <trkpt lat="41.99467" lon="21.47552">
        <ele>286.078698</ele>
        <time>2022-04-13T11:14:16.291Z</time>
      </trkpt>
      <trkpt lat="41.99454" lon="21.47546">
        <ele>285.68769</ele>
        <time>2022-04-13T11:14:19.290Z</time>
      </trkpt>
      <trkpt lat="41.99445" lon="21.47543">
        <ele>285.398139</ele>
        <time>2022-04-13T11:14:21.287Z</time>
      </trkpt>
      <trkpt lat="41.99432" lon="21.47539">
        <ele>284.986483</ele>
        <time>2022-04-13T11:14:24.295Z</time>
      </trkpt>
      <trkpt lat="41.99416" lon="21.47534">
        <ele>284.502829</ele>
        <time>2022-04-13T11:14:28.287Z</time>
      </trkpt>
      <trkpt lat="41.99406" lon="21.47531">
        <ele>284.195584</ele>
        <time>2022-04-13T11:14:30.296Z</time>
      </trkpt>
      <trkpt lat="41.99394" lon="21.47526">
        <ele>283.993104</ele>
        <time>2022-04-13T11:14:33.297Z</time>
      </trkpt>
      <trkpt lat="41.99383" lon="21.47522">
        <ele>284.271512</ele>
        <time>2022-04-13T11:14:36.285Z</time>
      </trkpt>
      <trkpt lat="41.99372" lon="21.47521">
        <ele>284.542378</ele>
        <time>2022-04-13T11:14:39.291Z</time>
      </trkpt>
      <trkpt lat="41.99361" lon="21.47518">
        <ele>284.817168</ele>
        <time>2022-04-13T11:14:42.284Z</time>
      </trkpt>
      <trkpt lat="41.99352" lon="21.47515">
        <ele>285.055787</ele>
        <time>2022-04-13T11:14:45.292Z</time>
      </trkpt>
      <trkpt lat="41.99341" lon="21.4751">
        <ele>285.320164</ele>
        <time>2022-04-13T11:14:49.293Z</time>
      </trkpt>
      <trkpt lat="41.99332" lon="21.47509">
        <ele>285.561401</ele>
        <time>2022-04-13T11:14:54.316Z</time>
      </trkpt>
      <trkpt lat="41.99322" lon="21.47507">
        <ele>285.794995</ele>
        <time>2022-04-13T11:14:57.283Z</time>
      </trkpt>
      <trkpt lat="41.99313" lon="21.47501">
        <ele>286.04406</ele>
        <time>2022-04-13T11:15:01.282Z</time>
      </trkpt>
      <trkpt lat="41.99304" lon="21.47493">
        <ele>286.320754</ele>
        <time>2022-04-13T11:15:09.300Z</time>
      </trkpt>
      <trkpt lat="41.99292" lon="21.47494">
        <ele>286.596049</ele>
        <time>2022-04-13T11:15:14.309Z</time>
      </trkpt>
      <trkpt lat="41.99281" lon="21.47494">
        <ele>286.885375</ele>
        <time>2022-04-13T11:15:18.340Z</time>
      </trkpt>
      <trkpt lat="41.9927" lon="21.47492">
        <ele>287.152255</ele>
        <time>2022-04-13T11:15:22.281Z</time>
      </trkpt>
      <trkpt lat="41.9926" lon="21.47489">
        <ele>287.395084</ele>
        <time>2022-04-13T11:15:25.314Z</time>
      </trkpt>
      <trkpt lat="41.99251" lon="21.47487">
        <ele>287.625173</ele>
        <time>2022-04-13T11:15:28.291Z</time>
      </trkpt>
      <trkpt lat="41.99241" lon="21.47485">
        <ele>287.860114</ele>
        <time>2022-04-13T11:15:31.293Z</time>
      </trkpt>
      <trkpt lat="41.99232" lon="21.47482">
        <ele>288.100921</ele>
        <time>2022-04-13T11:15:34.301Z</time>
      </trkpt>
      <trkpt lat="41.99221" lon="21.47478">
        <ele>288.29314</ele>
        <time>2022-04-13T11:15:38.295Z</time>
      </trkpt>
      <trkpt lat="41.9921" lon="21.47476">
        <ele>288.154042</ele>
        <time>2022-04-13T11:15:42.291Z</time>
      </trkpt>
      <trkpt lat="41.992" lon="21.47474">
        <ele>288.038865</ele>
        <time>2022-04-13T11:15:45.303Z</time>
      </trkpt>
      <trkpt lat="41.9919" lon="21.4747">
        <ele>287.910162</ele>
        <time>2022-04-13T11:15:49.292Z</time>
      </trkpt>
      <trkpt lat="41.99181" lon="21.47466">
        <ele>287.793457</ele>
        <time>2022-04-13T11:15:57.299Z</time>
      </trkpt>
      <trkpt lat="41.99162" lon="21.47443">
        <ele>287.492281</ele>
        <time>2022-04-13T11:16:46.336Z</time>
      </trkpt>
      <trkpt lat="41.99156" lon="21.47456">
        <ele>287.358516</ele>
        <time>2022-04-13T11:17:01.307Z</time>
      </trkpt>
      <trkpt lat="41.9915" lon="21.47465">
        <ele>287.246727</ele>
        <time>2022-04-13T11:17:02.295Z</time>
      </trkpt>
      <trkpt lat="41.9915" lon="21.47451">
        <ele>287.119129</ele>
        <time>2022-04-13T11:17:10.311Z</time>
      </trkpt>
      <trkpt lat="41.99154" lon="21.47437">
        <ele>286.991155</ele>
        <time>2022-04-13T11:17:14.303Z</time>
      </trkpt>
      <trkpt lat="41.99157" lon="21.47422">
        <ele>286.848438</ele>
        <time>2022-04-13T11:17:17.293Z</time>
      </trkpt>
      <trkpt lat="41.99161" lon="21.47409">
        <ele>286.72046</ele>
        <time>2022-04-13T11:17:20.294Z</time>
      </trkpt>
      <trkpt lat="41.99164" lon="21.47395">
        <ele>286.592266</ele>
        <time>2022-04-13T11:17:23.303Z</time>
      </trkpt>
      <trkpt lat="41.99166" lon="21.47381">
        <ele>286.463208</ele>
        <time>2022-04-13T11:17:26.300Z</time>
      </trkpt>
      <trkpt lat="41.9917" lon="21.47367">
        <ele>286.332514</ele>
        <time>2022-04-13T11:17:29.284Z</time>
      </trkpt>
      <trkpt lat="41.99173" lon="21.47352">
        <ele>286.199072</ele>
        <time>2022-04-13T11:17:32.295Z</time>
      </trkpt>
      <trkpt lat="41.99176" lon="21.47338">
        <ele>286.042571</ele>
        <time>2022-04-13T11:17:35.285Z</time>
      </trkpt>
      <trkpt lat="41.9918" lon="21.47322">
        <ele>285.873036</ele>
        <time>2022-04-13T11:17:38.306Z</time>
      </trkpt>
      <trkpt lat="41.99184" lon="21.47307">
        <ele>285.706027</ele>
        <time>2022-04-13T11:17:41.288Z</time>
      </trkpt>
      <trkpt lat="41.99189" lon="21.47292">
        <ele>285.527614</ele>
        <time>2022-04-13T11:17:44.310Z</time>
      </trkpt>
      <trkpt lat="41.99194" lon="21.47276">
        <ele>285.348759</ele>
        <time>2022-04-13T11:17:47.296Z</time>
      </trkpt>
      <trkpt lat="41.99199" lon="21.4726">
        <ele>285.166949</ele>
        <time>2022-04-13T11:17:50.304Z</time>
      </trkpt>
      <trkpt lat="41.99207" lon="21.47246">
        <ele>284.983901</ele>
        <time>2022-04-13T11:17:53.309Z</time>
      </trkpt>
      <trkpt lat="41.99214" lon="21.47232">
        <ele>284.803949</ele>
        <time>2022-04-13T11:17:56.303Z</time>
      </trkpt>
      <trkpt lat="41.99221" lon="21.47218">
        <ele>284.624874</ele>
        <time>2022-04-13T11:17:59.299Z</time>
      </trkpt>
      <trkpt lat="41.99228" lon="21.47204">
        <ele>284.445954</ele>
        <time>2022-04-13T11:18:02.296Z</time>
      </trkpt>
      <trkpt lat="41.99235" lon="21.4719">
        <ele>284.267896</ele>
        <time>2022-04-13T11:18:05.283Z</time>
      </trkpt>
      <trkpt lat="41.99242" lon="21.47175">
        <ele>284.080437</ele>
        <time>2022-04-13T11:18:08.306Z</time>
      </trkpt>
      <trkpt lat="41.99251" lon="21.47161">
        <ele>283.892283</ele>
        <time>2022-04-13T11:18:11.289Z</time>
      </trkpt>
      <trkpt lat="41.99258" lon="21.47147">
        <ele>283.710881</ele>
        <time>2022-04-13T11:18:14.300Z</time>
      </trkpt>
      <trkpt lat="41.99266" lon="21.47132">
        <ele>283.692075</ele>
        <time>2022-04-13T11:18:17.286Z</time>
      </trkpt>
      <trkpt lat="41.99273" lon="21.47118">
        <ele>283.846729</ele>
        <time>2022-04-13T11:18:20.294Z</time>
      </trkpt>
      <trkpt lat="41.99281" lon="21.47104">
        <ele>283.995743</ele>
        <time>2022-04-13T11:18:23.283Z</time>
      </trkpt>
      <trkpt lat="41.99288" lon="21.4709">
        <ele>284.147138</ele>
        <time>2022-04-13T11:18:26.291Z</time>
      </trkpt>
      <trkpt lat="41.99296" lon="21.47076">
        <ele>284.30462</ele>
        <time>2022-04-13T11:18:29.316Z</time>
      </trkpt>
      <trkpt lat="41.99304" lon="21.47061">
        <ele>284.464924</ele>
        <time>2022-04-13T11:18:32.287Z</time>
      </trkpt>
      <trkpt lat="41.99312" lon="21.47047">
        <ele>284.621009</ele>
        <time>2022-04-13T11:18:35.293Z</time>
      </trkpt>
      <trkpt lat="41.99319" lon="21.47033">
        <ele>284.771449</ele>
        <time>2022-04-13T11:18:38.301Z</time>
      </trkpt>
      <trkpt lat="41.99324" lon="21.47023">
        <ele>284.878885</ele>
        <time>2022-04-13T11:18:40.303Z</time>
      </trkpt>
      <trkpt lat="41.9933" lon="21.47012">
        <ele>284.994805</ele>
        <time>2022-04-13T11:18:42.311Z</time>
      </trkpt>
      <trkpt lat="41.99337" lon="21.46997">
        <ele>285.152764</ele>
        <time>2022-04-13T11:18:45.286Z</time>
      </trkpt>
      <trkpt lat="41.99342" lon="21.46987">
        <ele>285.260831</ele>
        <time>2022-04-13T11:18:47.295Z</time>
      </trkpt>
      <trkpt lat="41.9935" lon="21.46973">
        <ele>285.412804</ele>
        <time>2022-04-13T11:18:50.298Z</time>
      </trkpt>
      <trkpt lat="41.99358" lon="21.46959">
        <ele>285.566045</ele>
        <time>2022-04-13T11:18:53.315Z</time>
      </trkpt>
      <trkpt lat="41.99366" lon="21.46945">
        <ele>285.724961</ele>
        <time>2022-04-13T11:18:56.280Z</time>
      </trkpt>
      <trkpt lat="41.99371" lon="21.46935">
        <ele>285.761482</ele>
        <time>2022-04-13T11:18:58.288Z</time>
      </trkpt>
      <trkpt lat="41.99376" lon="21.46924">
        <ele>285.782325</ele>
        <time>2022-04-13T11:19:00.278Z</time>
      </trkpt>
      <trkpt lat="41.99382" lon="21.46914">
        <ele>285.803547</ele>
        <time>2022-04-13T11:19:02.317Z</time>
      </trkpt>
      <trkpt lat="41.99387" lon="21.46904">
        <ele>285.823321</ele>
        <time>2022-04-13T11:19:04.317Z</time>
      </trkpt>
      <trkpt lat="41.99392" lon="21.46894">
        <ele>285.843885</ele>
        <time>2022-04-13T11:19:06.316Z</time>
      </trkpt>
      <trkpt lat="41.99398" lon="21.46884">
        <ele>285.864457</ele>
        <time>2022-04-13T11:19:08.300Z</time>
      </trkpt>
      <trkpt lat="41.99406" lon="21.46869">
        <ele>285.89385</ele>
        <time>2022-04-13T11:19:11.282Z</time>
      </trkpt>
      <trkpt lat="41.99411" lon="21.46859">
        <ele>285.914411</ele>
        <time>2022-04-13T11:19:13.333Z</time>
      </trkpt>
      <trkpt lat="41.99417" lon="21.46849">
        <ele>285.934972</ele>
        <time>2022-04-13T11:19:15.286Z</time>
      </trkpt>
      <trkpt lat="41.99423" lon="21.46839">
        <ele>285.956462</ele>
        <time>2022-04-13T11:19:17.307Z</time>
      </trkpt>
      <trkpt lat="41.99428" lon="21.46828">
        <ele>285.977304</ele>
        <time>2022-04-13T11:19:19.277Z</time>
      </trkpt>
      <trkpt lat="41.99433" lon="21.46817">
        <ele>285.998815</ele>
        <time>2022-04-13T11:19:21.278Z</time>
      </trkpt>
      <trkpt lat="41.99439" lon="21.46807">
        <ele>286.020431</ele>
        <time>2022-04-13T11:19:23.298Z</time>
      </trkpt>
      <trkpt lat="41.99444" lon="21.46796">
        <ele>286.041562</ele>
        <time>2022-04-13T11:19:25.297Z</time>
      </trkpt>
      <trkpt lat="41.99452" lon="21.46781">
        <ele>286.071372</ele>
        <time>2022-04-13T11:19:28.280Z</time>
      </trkpt>
      <trkpt lat="41.99458" lon="21.46766">
        <ele>286.099743</ele>
        <time>2022-04-13T11:19:31.288Z</time>
      </trkpt>
      <trkpt lat="41.99465" lon="21.4675">
        <ele>286.129188</ele>
        <time>2022-04-13T11:19:34.319Z</time>
      </trkpt>
      <trkpt lat="41.99471" lon="21.46735">
        <ele>286.068742</ele>
        <time>2022-04-13T11:19:37.298Z</time>
      </trkpt>
      <trkpt lat="41.99477" lon="21.46718">
        <ele>285.931098</ele>
        <time>2022-04-13T11:19:40.289Z</time>
      </trkpt>
      <trkpt lat="41.99483" lon="21.46702">
        <ele>285.791915</ele>
        <time>2022-04-13T11:19:43.289Z</time>
      </trkpt>
      <trkpt lat="41.99486" lon="21.4669">
        <ele>285.696619</ele>
        <time>2022-04-13T11:19:45.283Z</time>
      </trkpt>
      <trkpt lat="41.99492" lon="21.46674">
        <ele>285.557722</ele>
        <time>2022-04-13T11:19:48.296Z</time>
      </trkpt>
      <trkpt lat="41.99494" lon="21.46662">
        <ele>285.465554</ele>
        <time>2022-04-13T11:19:50.278Z</time>
      </trkpt>
      <trkpt lat="41.99497" lon="21.4665">
        <ele>285.366512</ele>
        <time>2022-04-13T11:19:52.307Z</time>
      </trkpt>
      <trkpt lat="41.995" lon="21.46637">
        <ele>285.267031</ele>
        <time>2022-04-13T11:19:54.318Z</time>
      </trkpt>
      <trkpt lat="41.99503" lon="21.46625">
        <ele>285.167549</ele>
        <time>2022-04-13T11:19:56.294Z</time>
      </trkpt>
      <trkpt lat="41.99505" lon="21.46612">
        <ele>285.068394</ele>
        <time>2022-04-13T11:19:58.320Z</time>
      </trkpt>
      <trkpt lat="41.99507" lon="21.466">
        <ele>284.970469</ele>
        <time>2022-04-13T11:20:00.286Z</time>
      </trkpt>
      <trkpt lat="41.99509" lon="21.46587">
        <ele>284.873785</ele>
        <time>2022-04-13T11:20:02.298Z</time>
      </trkpt>
      <trkpt lat="41.99511" lon="21.46575">
        <ele>284.77723</ele>
        <time>2022-04-13T11:20:04.305Z</time>
      </trkpt>
      <trkpt lat="41.99513" lon="21.46563">
        <ele>284.681619</ele>
        <time>2022-04-13T11:20:06.288Z</time>
      </trkpt>
      <trkpt lat="41.99515" lon="21.4655">
        <ele>284.58619</ele>
        <time>2022-04-13T11:20:08.279Z</time>
      </trkpt>
      <trkpt lat="41.99515" lon="21.46538">
        <ele>284.490975</ele>
        <time>2022-04-13T11:20:10.331Z</time>
      </trkpt>
      <trkpt lat="41.99517" lon="21.46525">
        <ele>284.393895</ele>
        <time>2022-04-13T11:20:12.281Z</time>
      </trkpt>
      <trkpt lat="41.99518" lon="21.46508">
        <ele>284.399915</ele>
        <time>2022-04-13T11:20:15.296Z</time>
      </trkpt>
      <trkpt lat="41.99518" lon="21.46495">
        <ele>284.67769</ele>
        <time>2022-04-13T11:20:17.292Z</time>
      </trkpt>
      <trkpt lat="41.99519" lon="21.46478">
        <ele>285.068889</ele>
        <time>2022-04-13T11:20:20.300Z</time>
      </trkpt>
      <trkpt lat="41.99519" lon="21.46462">
        <ele>285.443619</ele>
        <time>2022-04-13T11:20:23.291Z</time>
      </trkpt>
      <trkpt lat="41.99518" lon="21.46447">
        <ele>285.795729</ele>
        <time>2022-04-13T11:20:26.302Z</time>
      </trkpt>
      <trkpt lat="41.99517" lon="21.46433">
        <ele>286.116719</ele>
        <time>2022-04-13T11:20:29.288Z</time>
      </trkpt>
      <trkpt lat="41.99516" lon="21.4642">
        <ele>286.411487</ele>
        <time>2022-04-13T11:20:32.310Z</time>
      </trkpt>
      <trkpt lat="41.99513" lon="21.46407">
        <ele>286.705639</ele>
        <time>2022-04-13T11:20:35.293Z</time>
      </trkpt>
      <trkpt lat="41.99512" lon="21.46395">
        <ele>287.001172</ele>
        <time>2022-04-13T11:20:38.282Z</time>
      </trkpt>
      <trkpt lat="41.9951" lon="21.46382">
        <ele>287.299916</ele>
        <time>2022-04-13T11:20:41.282Z</time>
      </trkpt>
      <trkpt lat="41.99507" lon="21.46369">
        <ele>287.60514</ele>
        <time>2022-04-13T11:20:44.300Z</time>
      </trkpt>
      <trkpt lat="41.99503" lon="21.46356">
        <ele>287.924179</ele>
        <time>2022-04-13T11:20:48.310Z</time>
      </trkpt>
      <trkpt lat="41.99499" lon="21.46344">
        <ele>288.240889</ele>
        <time>2022-04-13T11:20:52.297Z</time>
      </trkpt>
      <trkpt lat="41.99495" lon="21.46331">
        <ele>288.551764</ele>
        <time>2022-04-13T11:20:57.281Z</time>
      </trkpt>
      <trkpt lat="41.99504" lon="21.46332">
        <ele>288.845255</ele>
        <time>2022-04-13T11:21:37.296Z</time>
      </trkpt>
      <trkpt lat="41.99507" lon="21.46321">
        <ele>289.122544</ele>
        <time>2022-04-13T11:21:46.294Z</time>
      </trkpt>
      <trkpt lat="41.99504" lon="21.46309">
        <ele>289.426816</ele>
        <time>2022-04-13T11:21:50.304Z</time>
      </trkpt>
      <trkpt lat="41.99498" lon="21.46296">
        <ele>289.758258</ele>
        <time>2022-04-13T11:21:55.282Z</time>
      </trkpt>
      <trkpt lat="41.99493" lon="21.46283">
        <ele>289.968308</ele>
        <time>2022-04-13T11:21:59.285Z</time>
      </trkpt>
      <trkpt lat="41.99489" lon="21.46273">
        <ele>290.123828</ele>
        <time>2022-04-13T11:22:02.288Z</time>
      </trkpt>
      <trkpt lat="41.99484" lon="21.46261">
        <ele>290.296113</ele>
        <time>2022-04-13T11:22:06.294Z</time>
      </trkpt>
      <trkpt lat="41.9948" lon="21.46248">
        <ele>290.481331</ele>
        <time>2022-04-13T11:22:10.303Z</time>
      </trkpt>
      <trkpt lat="41.99475" lon="21.46237">
        <ele>290.636851</ele>
        <time>2022-04-13T11:22:13.280Z</time>
      </trkpt>
      <trkpt lat="41.9947" lon="21.46226">
        <ele>290.811684</ele>
        <time>2022-04-13T11:22:17.295Z</time>
      </trkpt>
      <trkpt lat="41.99466" lon="21.46214">
        <ele>290.978624</ele>
        <time>2022-04-13T11:22:21.282Z</time>
      </trkpt>
      <trkpt lat="41.99463" lon="21.46201">
        <ele>291.14227</ele>
        <time>2022-04-13T11:22:25.293Z</time>
      </trkpt>
      <trkpt lat="41.99462" lon="21.46188">
        <ele>291.310686</ele>
        <time>2022-04-13T11:22:31.286Z</time>
      </trkpt>
      <trkpt lat="41.99456" lon="21.46176">
        <ele>291.494312</ele>
        <time>2022-04-13T11:22:37.303Z</time>
      </trkpt>
      <trkpt lat="41.99453" lon="21.46165">
        <ele>291.650248</ele>
        <time>2022-04-13T11:22:42.316Z</time>
      </trkpt>
      <trkpt lat="41.99449" lon="21.46152">
        <ele>291.8196</ele>
        <time>2022-04-13T11:22:48.291Z</time>
      </trkpt>
      <trkpt lat="41.99441" lon="21.46158">
        <ele>291.988399</ele>
        <time>2022-04-13T11:22:55.289Z</time>
      </trkpt>
      <trkpt lat="41.99434" lon="21.46167">
        <ele>292.15729</ele>
        <time>2022-04-13T11:23:00.278Z</time>
      </trkpt>
      <trkpt lat="41.99427" lon="21.46175">
        <ele>292.314969</ele>
        <time>2022-04-13T11:23:04.334Z</time>
      </trkpt>
      <trkpt lat="41.99418" lon="21.46185">
        <ele>292.507332</ele>
        <time>2022-04-13T11:23:08.305Z</time>
      </trkpt>
      <trkpt lat="41.99409" lon="21.46195">
        <ele>292.706107</ele>
        <time>2022-04-13T11:23:12.301Z</time>
      </trkpt>
      <trkpt lat="41.99399" lon="21.46204">
        <ele>292.909314</ele>
        <time>2022-04-13T11:23:16.321Z</time>
      </trkpt>
      <trkpt lat="41.99392" lon="21.46211">
        <ele>292.885693</ele>
        <time>2022-04-13T11:23:19.284Z</time>
      </trkpt>
      <trkpt lat="41.99384" lon="21.46219">
        <ele>292.860024</ele>
        <time>2022-04-13T11:23:22.324Z</time>
      </trkpt>
      <trkpt lat="41.99375" lon="21.46229">
        <ele>292.830349</ele>
        <time>2022-04-13T11:23:25.300Z</time>
      </trkpt>
      <trkpt lat="41.99364" lon="21.46239">
        <ele>292.795656</ele>
        <time>2022-04-13T11:23:28.317Z</time>
      </trkpt>
      <trkpt lat="41.99356" lon="21.46247">
        <ele>292.769569</ele>
        <time>2022-04-13T11:23:30.306Z</time>
      </trkpt>
      <trkpt lat="41.99348" lon="21.46256">
        <ele>292.743684</ele>
        <time>2022-04-13T11:23:32.311Z</time>
      </trkpt>
      <trkpt lat="41.9934" lon="21.46265">
        <ele>292.717032</ele>
        <time>2022-04-13T11:23:34.320Z</time>
      </trkpt>
      <trkpt lat="41.99333" lon="21.46273">
        <ele>292.691667</ele>
        <time>2022-04-13T11:23:36.318Z</time>
      </trkpt>
      <trkpt lat="41.99325" lon="21.46281">
        <ele>292.666707</ele>
        <time>2022-04-13T11:23:38.302Z</time>
      </trkpt>
      <trkpt lat="41.99318" lon="21.46289">
        <ele>292.643358</ele>
        <time>2022-04-13T11:23:40.359Z</time>
      </trkpt>
      <trkpt lat="41.99308" lon="21.46301">
        <ele>292.609143</ele>
        <time>2022-04-13T11:23:43.291Z</time>
      </trkpt>
      <trkpt lat="41.993" lon="21.46313">
        <ele>292.57773</ele>
        <time>2022-04-13T11:23:46.299Z</time>
      </trkpt>
      <trkpt lat="41.99293" lon="21.46326">
        <ele>292.545636</ele>
        <time>2022-04-13T11:23:49.293Z</time>
      </trkpt>
      <trkpt lat="41.99287" lon="21.46336">
        <ele>292.522337</ele>
        <time>2022-04-13T11:23:51.310Z</time>
      </trkpt>
      <trkpt lat="41.99282" lon="21.46346">
        <ele>292.497776</ele>
        <time>2022-04-13T11:23:53.311Z</time>
      </trkpt>
      <trkpt lat="41.99277" lon="21.46357">
        <ele>292.472525</ele>
        <time>2022-04-13T11:23:55.296Z</time>
      </trkpt>
      <trkpt lat="41.99272" lon="21.46369">
        <ele>292.447041</ele>
        <time>2022-04-13T11:23:57.296Z</time>
      </trkpt>
      <trkpt lat="41.99267" lon="21.46381">
        <ele>292.34425</ele>
        <time>2022-04-13T11:23:59.294Z</time>
      </trkpt>
      <trkpt lat="41.99263" lon="21.46392">
        <ele>292.236032</ele>
        <time>2022-04-13T11:24:01.309Z</time>
      </trkpt>
      <trkpt lat="41.99259" lon="21.46403">
        <ele>292.129038</ele>
        <time>2022-04-13T11:24:03.316Z</time>
      </trkpt>
      <trkpt lat="41.99257" lon="21.46415">
        <ele>292.02253</ele>
        <time>2022-04-13T11:24:05.301Z</time>
      </trkpt>
      <trkpt lat="41.99253" lon="21.46432">
        <ele>291.870043</ele>
        <time>2022-04-13T11:24:08.311Z</time>
      </trkpt>
      <trkpt lat="41.9925" lon="21.46448">
        <ele>291.726822</ele>
        <time>2022-04-13T11:24:11.360Z</time>
      </trkpt>
      <trkpt lat="41.9925" lon="21.46463">
        <ele>291.599927</ele>
        <time>2022-04-13T11:24:14.305Z</time>
      </trkpt>
      <trkpt lat="41.99253" lon="21.46478">
        <ele>291.461169</ele>
        <time>2022-04-13T11:24:17.301Z</time>
      </trkpt>
      <trkpt lat="41.99258" lon="21.4649">
        <ele>291.342086</ele>
        <time>2022-04-13T11:24:20.287Z</time>
      </trkpt>
      <trkpt lat="41.99267" lon="21.46483">
        <ele>291.220652</ele>
        <time>2022-04-13T11:24:26.304Z</time>
      </trkpt>
      <trkpt lat="41.99268" lon="21.46468">
        <ele>291.092133</ele>
        <time>2022-04-13T11:24:29.294Z</time>
      </trkpt>
      <trkpt lat="41.9927" lon="21.46456">
        <ele>290.985643</ele>
        <time>2022-04-13T11:24:31.288Z</time>
      </trkpt>
      <trkpt lat="41.99272" lon="21.46444">
        <ele>290.875806</ele>
        <time>2022-04-13T11:24:33.310Z</time>
      </trkpt>
      <trkpt lat="41.99274" lon="21.4643">
        <ele>290.75995</ele>
        <time>2022-04-13T11:24:35.304Z</time>
      </trkpt>
      <trkpt lat="41.99277" lon="21.46418">
        <ele>290.646331</ele>
        <time>2022-04-13T11:24:37.298Z</time>
      </trkpt>
      <trkpt lat="41.99281" lon="21.46407">
        <ele>290.536817</ele>
        <time>2022-04-13T11:24:39.298Z</time>
      </trkpt>
      <trkpt lat="41.99289" lon="21.46399">
        <ele>290.429527</ele>
        <time>2022-04-13T11:24:42.295Z</time>
      </trkpt>
      <trkpt lat="41.99299" lon="21.46396">
        <ele>290.473035</ele>
        <time>2022-04-13T11:24:46.335Z</time>
      </trkpt>
      <trkpt lat="41.9931" lon="21.46394">
        <ele>290.765892</ele>
        <time>2022-04-13T11:24:49.297Z</time>
      </trkpt>
      <trkpt lat="41.99322" lon="21.46394">
        <ele>291.07091</ele>
        <time>2022-04-13T11:24:52.282Z</time>
      </trkpt>
      <trkpt lat="41.99332" lon="21.46387">
        <ele>291.349558</ele>
        <time>2022-04-13T11:24:57.293Z</time>
      </trkpt>
      <trkpt lat="41.99327" lon="21.46375">
        <ele>291.609674</ele>
        <time>2022-04-13T11:25:01.313Z</time>
      </trkpt>
      <trkpt lat="41.99319" lon="21.46364">
        <ele>291.903147</ele>
        <time>2022-04-13T11:25:05.293Z</time>
      </trkpt>
      <trkpt lat="41.99315" lon="21.46352">
        <ele>292.156291</ele>
        <time>2022-04-13T11:25:08.319Z</time>
      </trkpt>
      <trkpt lat="41.99315" lon="21.46338">
        <ele>292.425302</ele>
        <time>2022-04-13T11:25:11.306Z</time>
      </trkpt>
      <trkpt lat="41.99316" lon="21.46326">
        <ele>292.664924</ele>
        <time>2022-04-13T11:25:14.298Z</time>
      </trkpt>
      <trkpt lat="41.99324" lon="21.4632">
        <ele>292.900324</ele>
        <time>2022-04-13T11:25:17.311Z</time>
      </trkpt>
      <trkpt lat="41.99333" lon="21.46311">
        <ele>293.18517</ele>
        <time>2022-04-13T11:25:20.307Z</time>
      </trkpt>
      <trkpt lat="41.99337" lon="21.46298">
        <ele>293.459598</ele>
        <time>2022-04-13T11:25:25.289Z</time>
      </trkpt>
      <trkpt lat="41.99346" lon="21.46285">
        <ele>293.790108</ele>
        <time>2022-04-13T11:25:28.297Z</time>
      </trkpt>
      <trkpt lat="41.99351" lon="21.46275">
        <ele>294.024667</ele>
        <time>2022-04-13T11:25:30.306Z</time>
      </trkpt>
      <trkpt lat="41.99363" lon="21.46273">
        <ele>294.324163</ele>
        <time>2022-04-13T11:25:34.309Z</time>
      </trkpt>
      <trkpt lat="41.99373" lon="21.46277">
        <ele>294.609735</ele>
        <time>2022-04-13T11:25:37.303Z</time>
      </trkpt>
      <trkpt lat="41.99383" lon="21.46274">
        <ele>294.850612</ele>
        <time>2022-04-13T11:25:42.309Z</time>
      </trkpt>
      <trkpt lat="41.9939" lon="21.46284">
        <ele>294.98395</ele>
        <time>2022-04-13T11:25:51.289Z</time>
      </trkpt>
      <trkpt lat="41.99395" lon="21.46296">
        <ele>294.932812</ele>
        <time>2022-04-13T11:25:55.298Z</time>
      </trkpt>
      <trkpt lat="41.994" lon="21.46307">
        <ele>294.885482</ele>
        <time>2022-04-13T11:25:58.291Z</time>
      </trkpt>
      <trkpt lat="41.99404" lon="21.46318">
        <ele>294.838595</ele>
        <time>2022-04-13T11:26:01.294Z</time>
      </trkpt>
      <trkpt lat="41.99408" lon="21.46332">
        <ele>294.78086</ele>
        <time>2022-04-13T11:26:05.301Z</time>
      </trkpt>
      <trkpt lat="41.99412" lon="21.46345">
        <ele>294.731472</ele>
        <time>2022-04-13T11:26:08.321Z</time>
      </trkpt>
      <trkpt lat="41.99415" lon="21.46357">
        <ele>294.680854</ele>
        <time>2022-04-13T11:26:11.322Z</time>
      </trkpt>
      <trkpt lat="41.99419" lon="21.46372">
        <ele>294.623841</ele>
        <time>2022-04-13T11:26:15.292Z</time>
      </trkpt>
      <trkpt lat="41.99419" lon="21.46385">
        <ele>294.57558</ele>
        <time>2022-04-13T11:26:19.311Z</time>
      </trkpt>
      <trkpt lat="41.99416" lon="21.464">
        <ele>294.515838</ele>
        <time>2022-04-13T11:26:24.294Z</time>
      </trkpt>
      <trkpt lat="41.99422" lon="21.46391">
        <ele>294.470606</ele>
        <time>2022-04-13T11:26:28.313Z</time>
      </trkpt>
      <trkpt lat="41.9942" lon="21.46379">
        <ele>294.424045</ele>
        <time>2022-04-13T11:26:31.304Z</time>
      </trkpt>
      <trkpt lat="41.99418" lon="21.46365">
        <ele>294.368579</ele>
        <time>2022-04-13T11:26:35.276Z</time>
      </trkpt>
      <trkpt lat="41.99413" lon="21.46351">
        <ele>294.311316</ele>
        <time>2022-04-13T11:26:39.306Z</time>
      </trkpt>
      <trkpt lat="41.9941" lon="21.46337">
        <ele>294.257545</ele>
        <time>2022-04-13T11:26:43.313Z</time>
      </trkpt>
      <trkpt lat="41.99405" lon="21.46323">
        <ele>294.200173</ele>
        <time>2022-04-13T11:26:48.294Z</time>
      </trkpt>
      <trkpt lat="41.994" lon="21.46312">
        <ele>294.151051</ele>
        <time>2022-04-13T11:26:52.278Z</time>
      </trkpt>
      <trkpt lat="41.99395" lon="21.463">
        <ele>294.102424</ele>
        <time>2022-04-13T11:26:57.300Z</time>
      </trkpt>
      <trkpt lat="41.9939" lon="21.46288">
        <ele>293.941306</ele>
        <time>2022-04-13T11:27:02.301Z</time>
      </trkpt>
      <trkpt lat="41.99384" lon="21.46277">
        <ele>293.793619</ele>
        <time>2022-04-13T11:27:07.279Z</time>
      </trkpt>
      <trkpt lat="41.9938" lon="21.46289">
        <ele>293.642038</ele>
        <time>2022-04-13T11:27:18.297Z</time>
      </trkpt>
      <trkpt lat="41.99382" lon="21.46301">
        <ele>293.50276</ele>
        <time>2022-04-13T11:27:22.288Z</time>
      </trkpt>
      <trkpt lat="41.99387" lon="21.46313">
        <ele>293.350074</ele>
        <time>2022-04-13T11:27:26.282Z</time>
      </trkpt>
      <trkpt lat="41.99392" lon="21.46324">
        <ele>293.215874</ele>
        <time>2022-04-13T11:27:29.287Z</time>
      </trkpt>
      <trkpt lat="41.99401" lon="21.46331">
        <ele>293.058767</ele>
        <time>2022-04-13T11:27:33.279Z</time>
      </trkpt>
      <trkpt lat="41.99408" lon="21.46318">
        <ele>292.874389</ele>
        <time>2022-04-13T11:28:46.295Z</time>
      </trkpt>
      <trkpt lat="41.99406" lon="21.46302">
        <ele>292.703194</ele>
        <time>2022-04-13T11:28:52.280Z</time>
      </trkpt>
      <trkpt lat="41.99403" lon="21.46291">
        <ele>292.562062</ele>
        <time>2022-04-13T11:28:55.274Z</time>
      </trkpt>
      <trkpt lat="41.99398" lon="21.46278">
        <ele>292.40249</ele>
        <time>2022-04-13T11:28:58.298Z</time>
      </trkpt>
      <trkpt lat="41.99393" lon="21.46265">
        <ele>292.243907</ele>
        <time>2022-04-13T11:29:01.287Z</time>
      </trkpt>
      <trkpt lat="41.99387" lon="21.46252">
        <ele>292.069774</ele>
        <time>2022-04-13T11:29:04.300Z</time>
      </trkpt>
      <trkpt lat="41.9938" lon="21.46241">
        <ele>291.903145</ele>
        <time>2022-04-13T11:29:08.282Z</time>
      </trkpt>
      <trkpt lat="41.99374" lon="21.46231">
        <ele>291.762568</ele>
        <time>2022-04-13T11:29:11.283Z</time>
      </trkpt>
      <trkpt lat="41.99367" lon="21.46221">
        <ele>291.609949</ele>
        <time>2022-04-13T11:29:15.280Z</time>
      </trkpt>
      <trkpt lat="41.99362" lon="21.46209">
        <ele>291.460185</ele>
        <time>2022-04-13T11:29:18.272Z</time>
      </trkpt>
      <trkpt lat="41.99362" lon="21.46192">
        <ele>291.300916</ele>
        <time>2022-04-13T11:29:21.302Z</time>
      </trkpt>
      <trkpt lat="41.99357" lon="21.46178">
        <ele>291.168554</ele>
        <time>2022-04-13T11:29:24.282Z</time>
      </trkpt>
      <trkpt lat="41.99347" lon="21.46168">
        <ele>291.017576</ele>
        <time>2022-04-13T11:29:27.296Z</time>
      </trkpt>
      <trkpt lat="41.99339" lon="21.46162">
        <ele>290.910917</ele>
        <time>2022-04-13T11:29:29.302Z</time>
      </trkpt>
      <trkpt lat="41.99327" lon="21.46153">
        <ele>290.759084</ele>
        <time>2022-04-13T11:29:32.291Z</time>
      </trkpt>
      <trkpt lat="41.99316" lon="21.46145">
        <ele>290.604426</ele>
        <time>2022-04-13T11:29:35.284Z</time>
      </trkpt>
      <trkpt lat="41.99305" lon="21.46135">
        <ele>290.452496</ele>
        <time>2022-04-13T11:29:38.290Z</time>
      </trkpt>
      <trkpt lat="41.99297" lon="21.46129">
        <ele>290.346271</ele>
        <time>2022-04-13T11:29:40.302Z</time>
      </trkpt>
      <trkpt lat="41.99289" lon="21.46124">
        <ele>290.240699</ele>
        <time>2022-04-13T11:29:42.282Z</time>
      </trkpt>
      <trkpt lat="41.99278" lon="21.46115">
        <ele>290.093001</ele>
        <time>2022-04-13T11:29:45.277Z</time>
      </trkpt>
      <trkpt lat="41.99268" lon="21.46106">
        <ele>289.950242</ele>
        <time>2022-04-13T11:29:48.285Z</time>
      </trkpt>
      <trkpt lat="41.99258" lon="21.46097">
        <ele>289.807032</ele>
        <time>2022-04-13T11:29:51.286Z</time>
      </trkpt>
      <trkpt lat="41.99248" lon="21.46088">
        <ele>289.67198</ele>
        <time>2022-04-13T11:29:54.277Z</time>
      </trkpt>
      <trkpt lat="41.99237" lon="21.46078">
        <ele>289.52192</ele>
        <time>2022-04-13T11:29:57.298Z</time>
      </trkpt>
      <trkpt lat="41.99227" lon="21.46067">
        <ele>289.368178</ele>
        <time>2022-04-13T11:30:00.278Z</time>
      </trkpt>
      <trkpt lat="41.99216" lon="21.46057">
        <ele>289.224518</ele>
        <time>2022-04-13T11:30:03.286Z</time>
      </trkpt>
      <trkpt lat="41.99205" lon="21.46047">
        <ele>289.094955</ele>
        <time>2022-04-13T11:30:06.274Z</time>
      </trkpt>
      <trkpt lat="41.99195" lon="21.46038">
        <ele>288.973195</ele>
        <time>2022-04-13T11:30:09.335Z</time>
      </trkpt>
      <trkpt lat="41.99185" lon="21.46029">
        <ele>288.853982</ele>
        <time>2022-04-13T11:30:12.280Z</time>
      </trkpt>
      <trkpt lat="41.99176" lon="21.46019">
        <ele>288.734751</ele>
        <time>2022-04-13T11:30:15.280Z</time>
      </trkpt>
      <trkpt lat="41.99166" lon="21.46009">
        <ele>288.613017</ele>
        <time>2022-04-13T11:30:18.302Z</time>
      </trkpt>
      <trkpt lat="41.99155" lon="21.46">
        <ele>288.485476</ele>
        <time>2022-04-13T11:30:21.291Z</time>
      </trkpt>
      <trkpt lat="41.99145" lon="21.4599">
        <ele>288.364523</ele>
        <time>2022-04-13T11:30:24.275Z</time>
      </trkpt>
      <trkpt lat="41.99135" lon="21.4598">
        <ele>288.233894</ele>
        <time>2022-04-13T11:30:27.292Z</time>
      </trkpt>
      <trkpt lat="41.99126" lon="21.45969">
        <ele>288.110342</ele>
        <time>2022-04-13T11:30:30.278Z</time>
      </trkpt>
      <trkpt lat="41.99116" lon="21.45958">
        <ele>287.982526</ele>
        <time>2022-04-13T11:30:33.273Z</time>
      </trkpt>
      <trkpt lat="41.99107" lon="21.45946">
        <ele>287.856214</ele>
        <time>2022-04-13T11:30:36.296Z</time>
      </trkpt>
      <trkpt lat="41.99099" lon="21.45933">
        <ele>287.733518</ele>
        <time>2022-04-13T11:30:39.280Z</time>
      </trkpt>
      <trkpt lat="41.99091" lon="21.4592">
        <ele>287.606506</ele>
        <time>2022-04-13T11:30:42.275Z</time>
      </trkpt>
      <trkpt lat="41.99083" lon="21.45907">
        <ele>287.543351</ele>
        <time>2022-04-13T11:30:45.276Z</time>
      </trkpt>
      <trkpt lat="41.99075" lon="21.45894">
        <ele>287.699386</ele>
        <time>2022-04-13T11:30:48.284Z</time>
      </trkpt>
      <trkpt lat="41.99067" lon="21.45879">
        <ele>287.863311</ele>
        <time>2022-04-13T11:30:51.278Z</time>
      </trkpt>
      <trkpt lat="41.9906" lon="21.45864">
        <ele>288.019788</ele>
        <time>2022-04-13T11:30:54.277Z</time>
      </trkpt>
      <trkpt lat="41.99054" lon="21.45851">
        <ele>288.168091</ele>
        <time>2022-04-13T11:30:57.275Z</time>
      </trkpt>
      <trkpt lat="41.99047" lon="21.45835">
        <ele>288.323409</ele>
        <time>2022-04-13T11:31:00.304Z</time>
      </trkpt>
      <trkpt lat="41.99042" lon="21.45819">
        <ele>288.484364</ele>
        <time>2022-04-13T11:31:03.278Z</time>
      </trkpt>
      <trkpt lat="41.99037" lon="21.45803">
        <ele>288.645781</ele>
        <time>2022-04-13T11:31:06.315Z</time>
      </trkpt>
      <trkpt lat="41.99033" lon="21.45786">
        <ele>288.806931</ele>
        <time>2022-04-13T11:31:09.291Z</time>
      </trkpt>
      <trkpt lat="41.99029" lon="21.45768">
        <ele>288.969961</ele>
        <time>2022-04-13T11:31:12.281Z</time>
      </trkpt>
      <trkpt lat="41.99026" lon="21.45751">
        <ele>289.128447</ele>
        <time>2022-04-13T11:31:15.270Z</time>
      </trkpt>
      <trkpt lat="41.99025" lon="21.45734">
        <ele>289.283291</ele>
        <time>2022-04-13T11:31:18.291Z</time>
      </trkpt>
      <trkpt lat="41.99024" lon="21.45717">
        <ele>289.437234</ele>
        <time>2022-04-13T11:31:21.284Z</time>
      </trkpt>
      <trkpt lat="41.99024" lon="21.457">
        <ele>289.594784</ele>
        <time>2022-04-13T11:31:24.291Z</time>
      </trkpt>
      <trkpt lat="41.99024" lon="21.45682">
        <ele>289.814254</ele>
        <time>2022-04-13T11:31:27.290Z</time>
      </trkpt>
      <trkpt lat="41.99023" lon="21.4567">
        <ele>290.035826</ele>
        <time>2022-04-13T11:31:29.310Z</time>
      </trkpt>
      <trkpt lat="41.99024" lon="21.45652">
        <ele>290.359093</ele>
        <time>2022-04-13T11:31:32.312Z</time>
      </trkpt>
      <trkpt lat="41.99025" lon="21.45634">
        <ele>290.686809</ele>
        <time>2022-04-13T11:31:35.277Z</time>
      </trkpt>
      <trkpt lat="41.99028" lon="21.45617">
        <ele>291.009125</ele>
        <time>2022-04-13T11:31:38.278Z</time>
      </trkpt>
      <trkpt lat="41.99029" lon="21.45605">
        <ele>291.227926</ele>
        <time>2022-04-13T11:31:40.281Z</time>
      </trkpt>
      <trkpt lat="41.99031" lon="21.45587">
        <ele>291.555622</ele>
        <time>2022-04-13T11:31:43.291Z</time>
      </trkpt>
      <trkpt lat="41.99034" lon="21.45569">
        <ele>291.883763</ele>
        <time>2022-04-13T11:31:46.268Z</time>
      </trkpt>
      <trkpt lat="41.99037" lon="21.45557">
        <ele>292.113587</ele>
        <time>2022-04-13T11:31:48.288Z</time>
      </trkpt>
      <trkpt lat="41.99039" lon="21.45544">
        <ele>292.352814</ele>
        <time>2022-04-13T11:31:50.274Z</time>
      </trkpt>
      <trkpt lat="41.99042" lon="21.45532">
        <ele>292.595127</ele>
        <time>2022-04-13T11:31:52.277Z</time>
      </trkpt>
      <trkpt lat="41.99045" lon="21.45519">
        <ele>292.837884</ele>
        <time>2022-04-13T11:31:54.276Z</time>
      </trkpt>
      <trkpt lat="41.99048" lon="21.45506">
        <ele>293.077978</ele>
        <time>2022-04-13T11:31:56.330Z</time>
      </trkpt>
      <trkpt lat="41.99052" lon="21.45494">
        <ele>293.316358</ele>
        <time>2022-04-13T11:31:58.307Z</time>
      </trkpt>
      <trkpt lat="41.99056" lon="21.45482">
        <ele>293.555595</ele>
        <time>2022-04-13T11:32:00.305Z</time>
      </trkpt>
      <trkpt lat="41.99061" lon="21.45471">
        <ele>293.794364</ele>
        <time>2022-04-13T11:32:02.288Z</time>
      </trkpt>
      <trkpt lat="41.99066" lon="21.45459">
        <ele>294.0401</ele>
        <time>2022-04-13T11:32:04.282Z</time>
      </trkpt>
      <trkpt lat="41.99073" lon="21.45444">
        <ele>293.96664</ele>
        <time>2022-04-13T11:32:07.278Z</time>
      </trkpt>
      <trkpt lat="41.99078" lon="21.45434">
        <ele>293.863488</ele>
        <time>2022-04-13T11:32:09.341Z</time>
      </trkpt>
      <trkpt lat="41.99086" lon="21.45419">
        <ele>293.715942</ele>
        <time>2022-04-13T11:32:12.273Z</time>
      </trkpt>
      <trkpt lat="41.99093" lon="21.45405">
        <ele>293.572539</ele>
        <time>2022-04-13T11:32:15.279Z</time>
      </trkpt>
      <trkpt lat="41.99099" lon="21.45395">
        <ele>293.470488</ele>
        <time>2022-04-13T11:32:17.283Z</time>
      </trkpt>
      <trkpt lat="41.99107" lon="21.45381">
        <ele>293.319016</ele>
        <time>2022-04-13T11:32:20.279Z</time>
      </trkpt>
      <trkpt lat="41.99113" lon="21.45371">
        <ele>293.210289</ele>
        <time>2022-04-13T11:32:22.285Z</time>
      </trkpt>
      <trkpt lat="41.99119" lon="21.4536">
        <ele>293.098081</ele>
        <time>2022-04-13T11:32:24.281Z</time>
      </trkpt>
      <trkpt lat="41.99127" lon="21.45346">
        <ele>292.952004</ele>
        <time>2022-04-13T11:32:27.302Z</time>
      </trkpt>
      <trkpt lat="41.99133" lon="21.45335">
        <ele>292.841757</ele>
        <time>2022-04-13T11:32:29.268Z</time>
      </trkpt>
      <trkpt lat="41.99139" lon="21.45323">
        <ele>292.71903</ele>
        <time>2022-04-13T11:32:31.286Z</time>
      </trkpt>
      <trkpt lat="41.99145" lon="21.45312">
        <ele>292.608311</ele>
        <time>2022-04-13T11:32:33.310Z</time>
      </trkpt>
      <trkpt lat="41.99151" lon="21.45302">
        <ele>292.500879</ele>
        <time>2022-04-13T11:32:35.278Z</time>
      </trkpt>
      <trkpt lat="41.99156" lon="21.4529">
        <ele>292.386072</ele>
        <time>2022-04-13T11:32:37.332Z</time>
      </trkpt>
      <trkpt lat="41.99163" lon="21.4528">
        <ele>292.273976</ele>
        <time>2022-04-13T11:32:39.278Z</time>
      </trkpt>
      <trkpt lat="41.99169" lon="21.4527">
        <ele>292.165223</ele>
        <time>2022-04-13T11:32:41.275Z</time>
      </trkpt>
      <trkpt lat="41.99174" lon="21.45259">
        <ele>292.087604</ele>
        <time>2022-04-13T11:32:43.281Z</time>
      </trkpt>
      <trkpt lat="41.9918" lon="21.45248">
        <ele>292.118668</ele>
        <time>2022-04-13T11:32:45.291Z</time>
      </trkpt>
      <trkpt lat="41.99185" lon="21.45238">
        <ele>292.146576</ele>
        <time>2022-04-13T11:32:47.286Z</time>
      </trkpt>
      <trkpt lat="41.99191" lon="21.45228">
        <ele>292.17634</ele>
        <time>2022-04-13T11:32:49.273Z</time>
      </trkpt>
      <trkpt lat="41.99197" lon="21.45217">
        <ele>292.207251</ele>
        <time>2022-04-13T11:32:51.282Z</time>
      </trkpt>
      <trkpt lat="41.99203" lon="21.45207">
        <ele>292.237202</ele>
        <time>2022-04-13T11:32:53.297Z</time>
      </trkpt>
      <trkpt lat="41.99209" lon="21.45197">
        <ele>292.267697</ele>
        <time>2022-04-13T11:32:55.291Z</time>
      </trkpt>
      <trkpt lat="41.99215" lon="21.45186">
        <ele>292.297266</ele>
        <time>2022-04-13T11:32:57.292Z</time>
      </trkpt>
      <trkpt lat="41.99222" lon="21.45177">
        <ele>292.328409</ele>
        <time>2022-04-13T11:32:59.266Z</time>
      </trkpt>
      <trkpt lat="41.9923" lon="21.45168">
        <ele>292.36008</ele>
        <time>2022-04-13T11:33:01.291Z</time>
      </trkpt>
      <trkpt lat="41.99237" lon="21.45158">
        <ele>292.392216</ele>
        <time>2022-04-13T11:33:03.279Z</time>
      </trkpt>
      <trkpt lat="41.99245" lon="21.4515">
        <ele>292.424227</ele>
        <time>2022-04-13T11:33:05.266Z</time>
      </trkpt>
      <trkpt lat="41.99253" lon="21.45141">
        <ele>292.456092</ele>
        <time>2022-04-13T11:33:07.289Z</time>
      </trkpt>
      <trkpt lat="41.99261" lon="21.45132">
        <ele>292.487285</ele>
        <time>2022-04-13T11:33:09.273Z</time>
      </trkpt>
      <trkpt lat="41.99269" lon="21.45125">
        <ele>292.51633</ele>
        <time>2022-04-13T11:33:11.287Z</time>
      </trkpt>
      <trkpt lat="41.99277" lon="21.45119">
        <ele>292.545248</ele>
        <time>2022-04-13T11:33:13.267Z</time>
      </trkpt>
      <trkpt lat="41.99285" lon="21.45112">
        <ele>292.574657</ele>
        <time>2022-04-13T11:33:15.287Z</time>
      </trkpt>
      <trkpt lat="41.99293" lon="21.45105">
        <ele>292.603834</ele>
        <time>2022-04-13T11:33:17.275Z</time>
      </trkpt>
      <trkpt lat="41.99301" lon="21.45098">
        <ele>292.635077</ele>
        <time>2022-04-13T11:33:19.274Z</time>
      </trkpt>
      <trkpt lat="41.99309" lon="21.4509">
        <ele>292.765803</ele>
        <time>2022-04-13T11:33:21.271Z</time>
      </trkpt>
      <trkpt lat="41.99319" lon="21.45081">
        <ele>292.957705</ele>
        <time>2022-04-13T11:33:24.282Z</time>
      </trkpt>
      <trkpt lat="41.99327" lon="21.45073">
        <ele>293.122206</ele>
        <time>2022-04-13T11:33:27.295Z</time>
      </trkpt>
      <trkpt lat="41.99337" lon="21.45062">
        <ele>293.318788</ele>
        <time>2022-04-13T11:33:30.286Z</time>
      </trkpt>
      <trkpt lat="41.99348" lon="21.45052">
        <ele>293.529613</ele>
        <time>2022-04-13T11:33:33.275Z</time>
      </trkpt>
      <trkpt lat="41.99359" lon="21.45043">
        <ele>293.735939</ele>
        <time>2022-04-13T11:33:36.283Z</time>
      </trkpt>
      <trkpt lat="41.9937" lon="21.45034">
        <ele>293.941028</ele>
        <time>2022-04-13T11:33:39.283Z</time>
      </trkpt>
      <trkpt lat="41.99381" lon="21.45023">
        <ele>294.151852</ele>
        <time>2022-04-13T11:33:42.310Z</time>
      </trkpt>
      <trkpt lat="41.99388" lon="21.45015">
        <ele>294.295139</ele>
        <time>2022-04-13T11:33:44.292Z</time>
      </trkpt>
      <trkpt lat="41.99395" lon="21.45007">
        <ele>294.445489</ele>
        <time>2022-04-13T11:33:46.281Z</time>
      </trkpt>
      <trkpt lat="41.99405" lon="21.44995">
        <ele>294.65004</ele>
        <time>2022-04-13T11:33:49.292Z</time>
      </trkpt>
      <trkpt lat="41.99414" lon="21.44982">
        <ele>294.858492</ele>
        <time>2022-04-13T11:33:52.276Z</time>
      </trkpt>
      <trkpt lat="41.99423" lon="21.44969">
        <ele>295.067146</ele>
        <time>2022-04-13T11:33:55.283Z</time>
      </trkpt>
      <trkpt lat="41.99431" lon="21.44955">
        <ele>295.266148</ele>
        <time>2022-04-13T11:33:58.274Z</time>
      </trkpt>
      <trkpt lat="41.99438" lon="21.44944">
        <ele>295.434574</ele>
        <time>2022-04-13T11:34:01.315Z</time>
      </trkpt>
      <trkpt lat="41.99445" lon="21.44933">
        <ele>295.876354</ele>
        <time>2022-04-13T11:34:04.274Z</time>
      </trkpt>
      <trkpt lat="41.99452" lon="21.44919">
        <ele>296.40568</ele>
        <time>2022-04-13T11:34:07.269Z</time>
      </trkpt>
      <trkpt lat="41.99458" lon="21.44908">
        <ele>296.821692</ele>
        <time>2022-04-13T11:34:10.269Z</time>
      </trkpt>
      <trkpt lat="41.99463" lon="21.44896">
        <ele>297.263884</ele>
        <time>2022-04-13T11:34:13.268Z</time>
      </trkpt>
      <trkpt lat="41.9947" lon="21.44885">
        <ele>297.728238</ele>
        <time>2022-04-13T11:34:15.288Z</time>
      </trkpt>
      <trkpt lat="41.99477" lon="21.44871">
        <ele>298.271765</ele>
        <time>2022-04-13T11:34:17.290Z</time>
      </trkpt>
      <trkpt lat="41.99482" lon="21.44858">
        <ele>298.733205</ele>
        <time>2022-04-13T11:34:19.280Z</time>
      </trkpt>
      <trkpt lat="41.99487" lon="21.44846">
        <ele>299.168315</ele>
        <time>2022-04-13T11:34:21.308Z</time>
      </trkpt>
      <trkpt lat="41.99492" lon="21.44835">
        <ele>299.573264</ele>
        <time>2022-04-13T11:34:23.294Z</time>
      </trkpt>
      <trkpt lat="41.99497" lon="21.44825">
        <ele>299.964054</ele>
        <time>2022-04-13T11:34:25.280Z</time>
      </trkpt>
      <trkpt lat="41.99502" lon="21.44814">
        <ele>300.362513</ele>
        <time>2022-04-13T11:34:27.290Z</time>
      </trkpt>
      <trkpt lat="41.99506" lon="21.44803">
        <ele>300.748944</ele>
        <time>2022-04-13T11:34:29.283Z</time>
      </trkpt>
      <trkpt lat="41.99513" lon="21.44788">
        <ele>301.321692</ele>
        <time>2022-04-13T11:34:32.290Z</time>
      </trkpt>
      <trkpt lat="41.99518" lon="21.44777">
        <ele>301.740498</ele>
        <time>2022-04-13T11:34:34.297Z</time>
      </trkpt>
      <trkpt lat="41.99523" lon="21.44766">
        <ele>302.146612</ele>
        <time>2022-04-13T11:34:36.277Z</time>
      </trkpt>
      <trkpt lat="41.99528" lon="21.44755">
        <ele>302.570138</ele>
        <time>2022-04-13T11:34:38.294Z</time>
      </trkpt>
      <trkpt lat="41.99533" lon="21.44743">
        <ele>302.999349</ele>
        <time>2022-04-13T11:34:40.276Z</time>
      </trkpt>
      <trkpt lat="41.99537" lon="21.4473">
        <ele>303.145061</ele>
        <time>2022-04-13T11:34:42.271Z</time>
      </trkpt>
      <trkpt lat="41.9954" lon="21.44718">
        <ele>303.119933</ele>
        <time>2022-04-13T11:34:44.287Z</time>
      </trkpt>
      <trkpt lat="41.99543" lon="21.44706">
        <ele>303.094347</ele>
        <time>2022-04-13T11:34:46.276Z</time>
      </trkpt>
      <trkpt lat="41.99547" lon="21.44693">
        <ele>303.067751</ele>
        <time>2022-04-13T11:34:48.284Z</time>
      </trkpt>
      <trkpt lat="41.9955" lon="21.4468">
        <ele>303.041039</ele>
        <time>2022-04-13T11:34:50.341Z</time>
      </trkpt>
      <trkpt lat="41.99553" lon="21.44667">
        <ele>303.013686</ele>
        <time>2022-04-13T11:34:52.299Z</time>
      </trkpt>
      <trkpt lat="41.99556" lon="21.44654">
        <ele>302.986899</ele>
        <time>2022-04-13T11:34:54.279Z</time>
      </trkpt>
      <trkpt lat="41.99558" lon="21.44641">
        <ele>302.961384</ele>
        <time>2022-04-13T11:34:56.289Z</time>
      </trkpt>
      <trkpt lat="41.9956" lon="21.44628">
        <ele>302.935048</ele>
        <time>2022-04-13T11:34:58.315Z</time>
      </trkpt>
      <trkpt lat="41.99562" lon="21.44614">
        <ele>302.906817</ele>
        <time>2022-04-13T11:35:00.270Z</time>
      </trkpt>
      <trkpt lat="41.99563" lon="21.44599">
        <ele>302.877741</ele>
        <time>2022-04-13T11:35:02.277Z</time>
      </trkpt>
      <trkpt lat="41.99563" lon="21.44583">
        <ele>302.847004</ele>
        <time>2022-04-13T11:35:04.301Z</time>
      </trkpt>
      <trkpt lat="41.99564" lon="21.44567">
        <ele>302.816231</ele>
        <time>2022-04-13T11:35:06.300Z</time>
      </trkpt>
      <trkpt lat="41.99564" lon="21.44552">
        <ele>302.786877</ele>
        <time>2022-04-13T11:35:08.302Z</time>
      </trkpt>
      <trkpt lat="41.99565" lon="21.44537">
        <ele>302.75751</ele>
        <time>2022-04-13T11:35:10.276Z</time>
      </trkpt>
      <trkpt lat="41.99564" lon="21.44522">
        <ele>302.727285</ele>
        <time>2022-04-13T11:35:12.288Z</time>
      </trkpt>
      <trkpt lat="41.99563" lon="21.44507">
        <ele>302.69835</ele>
        <time>2022-04-13T11:35:14.280Z</time>
      </trkpt>
      <trkpt lat="41.99561" lon="21.44492">
        <ele>302.501224</ele>
        <time>2022-04-13T11:35:16.301Z</time>
      </trkpt>
      <trkpt lat="41.99559" lon="21.44477">
        <ele>302.19766</ele>
        <time>2022-04-13T11:35:18.282Z</time>
      </trkpt>
      <trkpt lat="41.99555" lon="21.44462">
        <ele>301.892782</ele>
        <time>2022-04-13T11:35:20.273Z</time>
      </trkpt>
      <trkpt lat="41.99551" lon="21.44448">
        <ele>301.598161</ele>
        <time>2022-04-13T11:35:22.285Z</time>
      </trkpt>
      <trkpt lat="41.99547" lon="21.44433">
        <ele>301.30354</ele>
        <time>2022-04-13T11:35:24.277Z</time>
      </trkpt>
      <trkpt lat="41.99543" lon="21.44419">
        <ele>300.997572</ele>
        <time>2022-04-13T11:35:26.287Z</time>
      </trkpt>
      <trkpt lat="41.99537" lon="21.44405">
        <ele>300.694293</ele>
        <time>2022-04-13T11:35:28.265Z</time>
      </trkpt>
      <trkpt lat="41.99533" lon="21.44392">
        <ele>300.411458</ele>
        <time>2022-04-13T11:35:30.293Z</time>
      </trkpt>
      <trkpt lat="41.9953" lon="21.44377">
        <ele>300.109615</ele>
        <time>2022-04-13T11:35:32.305Z</time>
      </trkpt>
      <trkpt lat="41.99526" lon="21.44362">
        <ele>299.812089</ele>
        <time>2022-04-13T11:35:34.272Z</time>
      </trkpt>
      <trkpt lat="41.99522" lon="21.44348">
        <ele>299.51248</ele>
        <time>2022-04-13T11:35:36.271Z</time>
      </trkpt>
      <trkpt lat="41.99517" lon="21.44334">
        <ele>299.210752</ele>
        <time>2022-04-13T11:35:38.279Z</time>
      </trkpt>
      <trkpt lat="41.99512" lon="21.4432">
        <ele>298.913622</ele>
        <time>2022-04-13T11:35:40.290Z</time>
      </trkpt>
      <trkpt lat="41.99509" lon="21.44306">
        <ele>298.62976</ele>
        <time>2022-04-13T11:35:42.279Z</time>
      </trkpt>
      <trkpt lat="41.99505" lon="21.44292">
        <ele>298.356721</ele>
        <time>2022-04-13T11:35:44.284Z</time>
      </trkpt>
      <trkpt lat="41.99501" lon="21.44279">
        <ele>298.081002</ele>
        <time>2022-04-13T11:35:46.325Z</time>
      </trkpt>
      <trkpt lat="41.99498" lon="21.44265">
        <ele>298.027</ele>
        <time>2022-04-13T11:35:48.290Z</time>
      </trkpt>
      <trkpt lat="41.99495" lon="21.44253">
        <ele>298.053082</ele>
        <time>2022-04-13T11:35:50.285Z</time>
      </trkpt>
      <trkpt lat="41.99492" lon="21.4424">
        <ele>298.079788</ele>
        <time>2022-04-13T11:35:52.299Z</time>
      </trkpt>
      <trkpt lat="41.99489" lon="21.44228">
        <ele>298.105123</ele>
        <time>2022-04-13T11:35:54.289Z</time>
      </trkpt>
      <trkpt lat="41.99486" lon="21.44215">
        <ele>298.131086</ele>
        <time>2022-04-13T11:35:56.283Z</time>
      </trkpt>
      <trkpt lat="41.99483" lon="21.44202">
        <ele>298.157238</ele>
        <time>2022-04-13T11:35:58.277Z</time>
      </trkpt>
      <trkpt lat="41.99481" lon="21.44189">
        <ele>298.183335</ele>
        <time>2022-04-13T11:36:00.274Z</time>
      </trkpt>
      <trkpt lat="41.99479" lon="21.44175">
        <ele>298.211106</ele>
        <time>2022-04-13T11:36:02.276Z</time>
      </trkpt>
      <trkpt lat="41.99477" lon="21.4416">
        <ele>298.239837</ele>
        <time>2022-04-13T11:36:04.275Z</time>
      </trkpt>
      <trkpt lat="41.99476" lon="21.44146">
        <ele>298.268289</ele>
        <time>2022-04-13T11:36:06.301Z</time>
      </trkpt>
      <trkpt lat="41.99474" lon="21.44132">
        <ele>298.296206</ele>
        <time>2022-04-13T11:36:08.272Z</time>
      </trkpt>
      <trkpt lat="41.99472" lon="21.44117">
        <ele>298.324466</ele>
        <time>2022-04-13T11:36:10.290Z</time>
      </trkpt>
      <trkpt lat="41.99471" lon="21.44104">
        <ele>298.35172</ele>
        <time>2022-04-13T11:36:12.288Z</time>
      </trkpt>
      <trkpt lat="41.99469" lon="21.44091">
        <ele>298.377392</ele>
        <time>2022-04-13T11:36:14.290Z</time>
      </trkpt>
      <trkpt lat="41.99467" lon="21.44075">
        <ele>298.408479</ele>
        <time>2022-04-13T11:36:17.273Z</time>
      </trkpt>
      <trkpt lat="41.99466" lon="21.44058">
        <ele>298.442442</ele>
        <time>2022-04-13T11:36:20.280Z</time>
      </trkpt>
      <trkpt lat="41.99465" lon="21.44044">
        <ele>298.469748</ele>
        <time>2022-04-13T11:36:22.318Z</time>
      </trkpt>
      <trkpt lat="41.99464" lon="21.4403">
        <ele>298.575128</ele>
        <time>2022-04-13T11:36:24.282Z</time>
      </trkpt>
      <trkpt lat="41.99463" lon="21.44017">
        <ele>298.711604</ele>
        <time>2022-04-13T11:36:26.308Z</time>
      </trkpt>
      <trkpt lat="41.99462" lon="21.44004">
        <ele>298.854413</ele>
        <time>2022-04-13T11:36:28.286Z</time>
      </trkpt>
      <trkpt lat="41.9946" lon="21.4399">
        <ele>298.994524</ele>
        <time>2022-04-13T11:36:30.284Z</time>
      </trkpt>
      <trkpt lat="41.99459" lon="21.43977">
        <ele>299.136911</ele>
        <time>2022-04-13T11:36:32.280Z</time>
      </trkpt>
      <trkpt lat="41.99458" lon="21.43964">
        <ele>299.2722</ele>
        <time>2022-04-13T11:36:34.299Z</time>
      </trkpt>
      <trkpt lat="41.99457" lon="21.43952">
        <ele>299.401205</ele>
        <time>2022-04-13T11:36:36.270Z</time>
      </trkpt>
      <trkpt lat="41.99457" lon="21.4394">
        <ele>299.531714</ele>
        <time>2022-04-13T11:36:38.270Z</time>
      </trkpt>
      <trkpt lat="41.99458" lon="21.43927">
        <ele>299.661419</ele>
        <time>2022-04-13T11:36:40.287Z</time>
      </trkpt>
      <trkpt lat="41.99459" lon="21.4391">
        <ele>299.847268</ele>
        <time>2022-04-13T11:36:43.300Z</time>
      </trkpt>
      <trkpt lat="41.99461" lon="21.43894">
        <ele>300.020305</ele>
        <time>2022-04-13T11:36:46.276Z</time>
      </trkpt>
      <trkpt lat="41.99463" lon="21.43877">
        <ele>300.195154</ele>
        <time>2022-04-13T11:36:49.283Z</time>
      </trkpt>
      <trkpt lat="41.99467" lon="21.4386">
        <ele>300.382559</ele>
        <time>2022-04-13T11:36:52.303Z</time>
      </trkpt>
      <trkpt lat="41.9947" lon="21.43843">
        <ele>300.567804</ele>
        <time>2022-04-13T11:36:55.272Z</time>
      </trkpt>
      <trkpt lat="41.99473" lon="21.43826">
        <ele>300.751991</ele>
        <time>2022-04-13T11:36:58.285Z</time>
      </trkpt>
      <trkpt lat="41.99477" lon="21.43812">
        <ele>300.909135</ele>
        <time>2022-04-13T11:37:01.305Z</time>
      </trkpt>
      <trkpt lat="41.9948" lon="21.438">
        <ele>301.066119</ele>
        <time>2022-04-13T11:37:04.280Z</time>
      </trkpt>
      <trkpt lat="41.99483" lon="21.43787">
        <ele>301.43752</ele>
        <time>2022-04-13T11:37:08.276Z</time>
      </trkpt>
      <trkpt lat="41.99484" lon="21.43775">
        <ele>301.774817</ele>
        <time>2022-04-13T11:37:13.269Z</time>
      </trkpt>
      <trkpt lat="41.99487" lon="21.43759">
        <ele>302.191716</ele>
        <time>2022-04-13T11:37:17.285Z</time>
      </trkpt>
      <trkpt lat="41.9949" lon="21.43746">
        <ele>302.565355</ele>
        <time>2022-04-13T11:37:21.283Z</time>
      </trkpt>
      <trkpt lat="41.99493" lon="21.43732">
        <ele>302.946553</ele>
        <time>2022-04-13T11:37:26.273Z</time>
      </trkpt>
      <trkpt lat="41.99492" lon="21.4372">
        <ele>303.282223</ele>
        <time>2022-04-13T11:37:31.286Z</time>
      </trkpt>
      <trkpt lat="41.99488" lon="21.43705">
        <ele>303.697174</ele>
        <time>2022-04-13T11:37:39.267Z</time>
      </trkpt>
      <trkpt lat="41.99481" lon="21.43694">
        <ele>304.094469</ele>
        <time>2022-04-13T11:37:42.266Z</time>
      </trkpt>
      <trkpt lat="41.99472" lon="21.4369">
        <ele>304.452018</ele>
        <time>2022-04-13T11:37:44.312Z</time>
      </trkpt>
      <trkpt lat="41.99463" lon="21.43685">
        <ele>304.806316</ele>
        <time>2022-04-13T11:37:46.280Z</time>
      </trkpt>
      <trkpt lat="41.99454" lon="21.43682">
        <ele>305.140293</ele>
        <time>2022-04-13T11:37:48.274Z</time>
      </trkpt>
      <trkpt lat="41.99444" lon="21.43679">
        <ele>305.502823</ele>
        <time>2022-04-13T11:37:50.265Z</time>
      </trkpt>
      <trkpt lat="41.99435" lon="21.43674">
        <ele>305.847587</ele>
        <time>2022-04-13T11:37:52.260Z</time>
      </trkpt>
      <trkpt lat="41.99424" lon="21.43666">
        <ele>306.293435</ele>
        <time>2022-04-13T11:37:55.284Z</time>
      </trkpt>
      <trkpt lat="41.99417" lon="21.43656">
        <ele>306.657462</ele>
        <time>2022-04-13T11:37:57.273Z</time>
      </trkpt>
      <trkpt lat="41.99411" lon="21.43647">
        <ele>307.00949</ele>
        <time>2022-04-13T11:37:59.278Z</time>
      </trkpt>
      <trkpt lat="41.99405" lon="21.43636">
        <ele>307.351928</ele>
        <time>2022-04-13T11:38:01.284Z</time>
      </trkpt>
      <trkpt lat="41.99398" lon="21.43625">
        <ele>307.713248</ele>
        <time>2022-04-13T11:38:04.276Z</time>
      </trkpt>
      <trkpt lat="41.99393" lon="21.43612">
        <ele>308.065654</ele>
        <time>2022-04-13T11:38:08.263Z</time>
      </trkpt>
      <trkpt lat="41.99389" lon="21.43598">
        <ele>308.437649</ele>
        <time>2022-04-13T11:38:11.278Z</time>
      </trkpt>
      <trkpt lat="41.99382" lon="21.43584">
        <ele>308.853337</ele>
        <time>2022-04-13T11:38:14.303Z</time>
      </trkpt>
      <trkpt lat="41.99378" lon="21.4357">
        <ele>309.212389</ele>
        <time>2022-04-13T11:38:16.263Z</time>
      </trkpt>
      <trkpt lat="41.99374" lon="21.43558">
        <ele>309.545681</ele>
        <time>2022-04-13T11:38:18.283Z</time>
      </trkpt>
      <trkpt lat="41.99369" lon="21.43544">
        <ele>309.902038</ele>
        <time>2022-04-13T11:38:20.279Z</time>
      </trkpt>
      <trkpt lat="41.99363" lon="21.43532">
        <ele>310.265213</ele>
        <time>2022-04-13T11:38:22.276Z</time>
      </trkpt>
      <trkpt lat="41.99355" lon="21.43517">
        <ele>310.722099</ele>
        <time>2022-04-13T11:38:25.279Z</time>
      </trkpt>
      <trkpt lat="41.99349" lon="21.43507">
        <ele>311.037019</ele>
        <time>2022-04-13T11:38:27.274Z</time>
      </trkpt>
      <trkpt lat="41.99341" lon="21.43495">
        <ele>311.42822</ele>
        <time>2022-04-13T11:38:29.282Z</time>
      </trkpt>
      <trkpt lat="41.99332" lon="21.43479">
        <ele>311.906578</ele>
        <time>2022-04-13T11:38:31.282Z</time>
      </trkpt>
      <trkpt lat="41.99325" lon="21.43465">
        <ele>312.318532</ele>
        <time>2022-04-13T11:38:33.284Z</time>
      </trkpt>
      <trkpt lat="41.99318" lon="21.43454">
        <ele>312.668679</ele>
        <time>2022-04-13T11:38:35.267Z</time>
      </trkpt>
      <trkpt lat="41.9931" lon="21.43442">
        <ele>313.050082</ele>
        <time>2022-04-13T11:38:37.328Z</time>
      </trkpt>
      <trkpt lat="41.99305" lon="21.43428">
        <ele>313.352613</ele>
        <time>2022-04-13T11:38:40.278Z</time>
      </trkpt>
      <trkpt lat="41.993" lon="21.43412">
        <ele>312.730668</ele>
        <time>2022-04-13T11:38:43.288Z</time>
      </trkpt>
      <trkpt lat="41.99296" lon="21.434">
        <ele>312.243832</ele>
        <time>2022-04-13T11:38:46.284Z</time>
      </trkpt>
      <trkpt lat="41.99294" lon="21.43388">
        <ele>311.797234</ele>
        <time>2022-04-13T11:38:48.280Z</time>
      </trkpt>
      <trkpt lat="41.99293" lon="21.43372">
        <ele>311.201225</ele>
        <time>2022-04-13T11:38:50.283Z</time>
      </trkpt>
      <trkpt lat="41.99298" lon="21.43359">
        <ele>310.675085</ele>
        <time>2022-04-13T11:38:52.264Z</time>
      </trkpt>
      <trkpt lat="41.99304" lon="21.43351">
        <ele>310.207805</ele>
        <time>2022-04-13T11:38:54.296Z</time>
      </trkpt>
      <trkpt lat="41.99314" lon="21.43341">
        <ele>309.633388</ele>
        <time>2022-04-13T11:38:57.310Z</time>
      </trkpt>
      <trkpt lat="41.99325" lon="21.43335">
        <ele>309.031116</ele>
        <time>2022-04-13T11:39:00.284Z</time>
      </trkpt>
      <trkpt lat="41.99337" lon="21.43327">
        <ele>308.401623</ele>
        <time>2022-04-13T11:39:03.275Z</time>
      </trkpt>
      <trkpt lat="41.99348" lon="21.4332">
        <ele>307.764917</ele>
        <time>2022-04-13T11:39:06.301Z</time>
      </trkpt>
      <trkpt lat="41.9936" lon="21.43314">
        <ele>307.139596</ele>
        <time>2022-04-13T11:39:09.270Z</time>
      </trkpt>
      <trkpt lat="41.99368" lon="21.43307">
        <ele>306.683854</ele>
        <time>2022-04-13T11:39:11.274Z</time>
      </trkpt>
      <trkpt lat="41.99375" lon="21.433">
        <ele>306.230033</ele>
        <time>2022-04-13T11:39:13.268Z</time>
      </trkpt>
      <trkpt lat="41.99387" lon="21.43292">
        <ele>305.602775</ele>
        <time>2022-04-13T11:39:16.282Z</time>
      </trkpt>
      <trkpt lat="41.99395" lon="21.43284">
        <ele>305.09579</ele>
        <time>2022-04-13T11:39:19.271Z</time>
      </trkpt>
      <trkpt lat="41.99404" lon="21.43276">
        <ele>304.560056</ele>
        <time>2022-04-13T11:39:23.277Z</time>
      </trkpt>
      <trkpt lat="41.99411" lon="21.43267">
        <ele>304.563659</ele>
        <time>2022-04-13T11:39:29.284Z</time>
      </trkpt>
      <trkpt lat="41.99417" lon="21.43257">
        <ele>304.583033</ele>
        <time>2022-04-13T11:39:37.275Z</time>
      </trkpt>
      <trkpt lat="41.99423" lon="21.43244">
        <ele>304.60682</ele>
        <time>2022-04-13T11:39:41.284Z</time>
      </trkpt>
      <trkpt lat="41.99429" lon="21.43229">
        <ele>304.632093</ele>
        <time>2022-04-13T11:39:44.295Z</time>
      </trkpt>
      <trkpt lat="41.99434" lon="21.43216">
        <ele>304.654069</ele>
        <time>2022-04-13T11:39:47.291Z</time>
      </trkpt>
      <trkpt lat="41.99437" lon="21.43202">
        <ele>304.675417</ele>
        <time>2022-04-13T11:39:50.309Z</time>
      </trkpt>
      <trkpt lat="41.99441" lon="21.43188">
        <ele>304.697704</ele>
        <time>2022-04-13T11:39:53.269Z</time>
      </trkpt>
      <trkpt lat="41.99448" lon="21.43172">
        <ele>304.725161</ele>
        <time>2022-04-13T11:39:56.284Z</time>
      </trkpt>
      <trkpt lat="41.99451" lon="21.4316">
        <ele>304.744297</ele>
        <time>2022-04-13T11:39:58.304Z</time>
      </trkpt>
      <trkpt lat="41.99456" lon="21.43144">
        <ele>304.770209</ele>
        <time>2022-04-13T11:40:01.292Z</time>
      </trkpt>
      <trkpt lat="41.9946" lon="21.43132">
        <ele>304.788657</ele>
        <time>2022-04-13T11:40:03.278Z</time>
      </trkpt>
      <trkpt lat="41.99463" lon="21.43119">
        <ele>304.80853</ele>
        <time>2022-04-13T11:40:05.282Z</time>
      </trkpt>
      <trkpt lat="41.99465" lon="21.43105">
        <ele>304.8307</ele>
        <time>2022-04-13T11:40:07.280Z</time>
      </trkpt>
      <trkpt lat="41.99467" lon="21.43091">
        <ele>304.851764</ele>
        <time>2022-04-13T11:40:09.302Z</time>
      </trkpt>
      <trkpt lat="41.99469" lon="21.43076">
        <ele>304.874021</ele>
        <time>2022-04-13T11:40:11.280Z</time>
      </trkpt>
      <trkpt lat="41.99472" lon="21.43061">
        <ele>304.897936</ele>
        <time>2022-04-13T11:40:13.292Z</time>
      </trkpt>
      <trkpt lat="41.99475" lon="21.43046">
        <ele>305.13872</ele>
        <time>2022-04-13T11:40:15.316Z</time>
      </trkpt>
      <trkpt lat="41.99478" lon="21.43031">
        <ele>305.499302</ele>
        <time>2022-04-13T11:40:17.294Z</time>
      </trkpt>
      <trkpt lat="41.99481" lon="21.43018">
        <ele>305.822014</ele>
        <time>2022-04-13T11:40:19.283Z</time>
      </trkpt>
      <trkpt lat="41.99484" lon="21.43006">
        <ele>306.138304</ele>
        <time>2022-04-13T11:40:21.304Z</time>
      </trkpt>
      <trkpt lat="41.99488" lon="21.42994">
        <ele>306.444384</ele>
        <time>2022-04-13T11:40:23.288Z</time>
      </trkpt>
      <trkpt lat="41.9949" lon="21.42977">
        <ele>306.839879</ele>
        <time>2022-04-13T11:40:26.283Z</time>
      </trkpt>
      <trkpt lat="41.99493" lon="21.42961">
        <ele>307.234911</ele>
        <time>2022-04-13T11:40:29.287Z</time>
      </trkpt>
      <trkpt lat="41.99498" lon="21.42944">
        <ele>307.665205</ele>
        <time>2022-04-13T11:40:32.290Z</time>
      </trkpt>
      <trkpt lat="41.99498" lon="21.4293">
        <ele>307.990129</ele>
        <time>2022-04-13T11:40:34.281Z</time>
      </trkpt>
      <trkpt lat="41.99498" lon="21.42917">
        <ele>308.290693</ele>
        <time>2022-04-13T11:40:36.284Z</time>
      </trkpt>
      <trkpt lat="41.99498" lon="21.429">
        <ele>308.707142</ele>
        <time>2022-04-13T11:40:39.287Z</time>
      </trkpt>
      <trkpt lat="41.99501" lon="21.42883">
        <ele>309.102636</ele>
        <time>2022-04-13T11:40:42.314Z</time>
      </trkpt>
      <trkpt lat="41.99504" lon="21.42867">
        <ele>309.510429</ele>
        <time>2022-04-13T11:40:45.290Z</time>
      </trkpt>
      <trkpt lat="41.99506" lon="21.42854">
        <ele>309.82508</ele>
        <time>2022-04-13T11:40:48.287Z</time>
      </trkpt>
      <trkpt lat="41.99508" lon="21.42841">
        <ele>310.139731</ele>
        <time>2022-04-13T11:40:52.295Z</time>
      </trkpt>
      <trkpt lat="41.99521" lon="21.42805">
        <ele>310.218861</ele>
        <time>2022-04-13T11:41:12.300Z</time>
      </trkpt>
      <trkpt lat="41.99524" lon="21.4279">
        <ele>309.886022</ele>
        <time>2022-04-13T11:41:15.305Z</time>
      </trkpt>
      <trkpt lat="41.99527" lon="21.42776">
        <ele>309.579966</ele>
        <time>2022-04-13T11:41:18.314Z</time>
      </trkpt>
      <trkpt lat="41.99529" lon="21.4276">
        <ele>309.241625</ele>
        <time>2022-04-13T11:41:21.290Z</time>
      </trkpt>
      <trkpt lat="41.99531" lon="21.42744">
        <ele>308.896266</ele>
        <time>2022-04-13T11:41:24.323Z</time>
      </trkpt>
      <trkpt lat="41.99535" lon="21.42729">
        <ele>308.545916</ele>
        <time>2022-04-13T11:41:27.283Z</time>
      </trkpt>
      <trkpt lat="41.99538" lon="21.42711">
        <ele>308.153673</ele>
        <time>2022-04-13T11:41:30.286Z</time>
      </trkpt>
      <trkpt lat="41.9954" lon="21.42698">
        <ele>307.869869</ele>
        <time>2022-04-13T11:41:32.292Z</time>
      </trkpt>
      <trkpt lat="41.99544" lon="21.42684">
        <ele>307.5527</ele>
        <time>2022-04-13T11:41:35.282Z</time>
      </trkpt>
      <trkpt lat="41.99545" lon="21.42671">
        <ele>307.280437</ele>
        <time>2022-04-13T11:41:37.289Z</time>
      </trkpt>
      <trkpt lat="41.99545" lon="21.42658">
        <ele>307.006727</ele>
        <time>2022-04-13T11:41:39.308Z</time>
      </trkpt>
      <trkpt lat="41.99547" lon="21.42642">
        <ele>306.645616</ele>
        <time>2022-04-13T11:41:42.279Z</time>
      </trkpt>
      <trkpt lat="41.99549" lon="21.4263">
        <ele>306.383917</ele>
        <time>2022-04-13T11:41:49.292Z</time>
      </trkpt>
      <trkpt lat="41.99556" lon="21.42608">
        <ele>305.864232</ele>
        <time>2022-04-13T11:42:08.308Z</time>
      </trkpt>
      <trkpt lat="41.99556" lon="21.42595">
        <ele>305.599586</ele>
        <time>2022-04-13T11:42:13.273Z</time>
      </trkpt>
      <trkpt lat="41.99555" lon="21.42583">
        <ele>305.467565</ele>
        <time>2022-04-13T11:42:17.286Z</time>
      </trkpt>
      <trkpt lat="41.99554" lon="21.4257">
        <ele>305.467565</ele>
        <time>2022-04-13T11:42:21.286Z</time>
      </trkpt>
      <trkpt lat="41.99559" lon="21.42582">
        <ele>305.467565</ele>
        <time>2022-04-13T11:55:45.299Z</time>
      </trkpt>
      <trkpt lat="41.9956" lon="21.42595">
        <ele>305.467565</ele>
        <time>2022-04-13T11:56:00.254Z</time>
      </trkpt>
      <trkpt lat="41.99562" lon="21.42609">
        <ele>305.467565</ele>
        <time>2022-04-13T11:56:09.256Z</time>
      </trkpt>
      <trkpt lat="41.99562" lon="21.42621">
        <ele>305.467565</ele>
        <time>2022-04-13T11:56:25.260Z</time>
      </trkpt>
      <trkpt lat="41.9957" lon="21.42628">
        <ele>305.467565</ele>
        <time>2022-04-13T11:56:40.258Z</time>
      </trkpt>
      <trkpt lat="41.9958" lon="21.42626">
        <ele>305.467565</ele>
        <time>2022-04-13T11:56:50.260Z</time>
      </trkpt>
      <trkpt lat="41.9959" lon="21.42627">
        <ele>305.467565</ele>
        <time>2022-04-13T11:57:00.252Z</time>
      </trkpt>
      <trkpt lat="41.99595" lon="21.42617">
        <ele>305.467565</ele>
        <time>2022-04-13T11:57:12.254Z</time>
      </trkpt>
      <trkpt lat="41.99596" lon="21.42604">
        <ele>305.467565</ele>
        <time>2022-04-13T11:57:20.256Z</time>
      </trkpt>
      <trkpt lat="41.99598" lon="21.42591">
        <ele>305.467565</ele>
        <time>2022-04-13T11:57:32.254Z</time>
      </trkpt>
      <trkpt lat="41.99598" lon="21.42578">
        <ele>305.467565</ele>
        <time>2022-04-13T11:57:40.257Z</time>
      </trkpt>
      <trkpt lat="41.99598" lon="21.42565">
        <ele>305.467565</ele>
        <time>2022-04-13T11:57:47.283Z</time>
      </trkpt>
      <trkpt lat="41.99594" lon="21.42577">
        <ele>305.467565</ele>
        <time>2022-04-13T12:01:36.321Z</time>
      </trkpt>
    </trkseg>
  </trk>
  <trk>
    <name><![CDATA[Tour d'Europe: étape 651]]></name>
    <extensions>
      <line xmlns="http://www.topografix.com/GPX/gpx_style/0/2">
        <color>880000</color>
        <width>4</width>
      </line>
    </extensions>
    <trkseg>
      <trkpt lat="42.20188" lon="22.33429">
        <ele>694.661711</ele>
        <time>2022-04-10T07:50:49.284Z</time>
      </trkpt>
      <trkpt lat="42.20152" lon="22.33438">
        <ele>694.661711</ele>
        <time>2022-04-10T07:51:01.042Z</time>
      </trkpt>
      <trkpt lat="42.20131" lon="22.33441">
        <ele>694.661711</ele>
        <time>2022-04-10T08:17:03.057Z</time>
      </trkpt>
      <trkpt lat="42.20122" lon="22.33436">
        <ele>694.661711</ele>
        <time>2022-04-10T08:17:07.020Z</time>
      </trkpt>
      <trkpt lat="42.20112" lon="22.33429">
        <ele>694.661711</ele>
        <time>2022-04-10T08:17:11.021Z</time>
      </trkpt>
      <trkpt lat="42.20103" lon="22.33422">
        <ele>694.661711</ele>
        <time>2022-04-10T08:17:16.025Z</time>
      </trkpt>
      <trkpt lat="42.20095" lon="22.33415">
        <ele>694.663732</ele>
        <time>2022-04-10T08:17:21.022Z</time>
      </trkpt>
      <trkpt lat="42.20085" lon="22.33412">
        <ele>694.665912</ele>
        <time>2022-04-10T08:17:26.106Z</time>
      </trkpt>
      <trkpt lat="42.20076" lon="22.33407">
        <ele>694.668254</ele>
        <time>2022-04-10T08:17:31.058Z</time>
      </trkpt>
      <trkpt lat="42.20067" lon="22.33402">
        <ele>694.670506</ele>
        <time>2022-04-10T08:17:36.020Z</time>
      </trkpt>
      <trkpt lat="42.20056" lon="22.33395">
        <ele>694.673191</ele>
        <time>2022-04-10T08:17:40.007Z</time>
      </trkpt>
      <trkpt lat="42.20047" lon="22.33385">
        <ele>694.675947</ele>
        <time>2022-04-10T08:17:43.090Z</time>
      </trkpt>
      <trkpt lat="42.20036" lon="22.33376">
        <ele>694.67876</ele>
        <time>2022-04-10T08:17:46.013Z</time>
      </trkpt>
      <trkpt lat="42.20029" lon="22.33369">
        <ele>694.680878</ele>
        <time>2022-04-10T08:17:48.034Z</time>
      </trkpt>
      <trkpt lat="42.20019" lon="22.33359">
        <ele>694.683796</ele>
        <time>2022-04-10T08:17:51.011Z</time>
      </trkpt>
      <trkpt lat="42.20008" lon="22.33347">
        <ele>694.68699</ele>
        <time>2022-04-10T08:17:54.077Z</time>
      </trkpt>
      <trkpt lat="42.20001" lon="22.33338">
        <ele>694.68919</ele>
        <time>2022-04-10T08:17:56.040Z</time>
      </trkpt>
      <trkpt lat="42.19996" lon="22.33327">
        <ele>694.691361</ele>
        <time>2022-04-10T08:17:58.022Z</time>
      </trkpt>
      <trkpt lat="42.19991" lon="22.33315">
        <ele>694.693715</ele>
        <time>2022-04-10T08:18:00.001Z</time>
      </trkpt>
      <trkpt lat="42.1999" lon="22.333">
        <ele>694.696165</ele>
        <time>2022-04-10T08:18:02.037Z</time>
      </trkpt>
      <trkpt lat="42.19989" lon="22.33285">
        <ele>694.698701</ele>
        <time>2022-04-10T08:18:04.017Z</time>
      </trkpt>
      <trkpt lat="42.19988" lon="22.3327">
        <ele>694.701399</ele>
        <time>2022-04-10T08:18:06.016Z</time>
      </trkpt>
      <trkpt lat="42.19985" lon="22.33253">
        <ele>694.63684</ele>
        <time>2022-04-10T08:18:08.022Z</time>
      </trkpt>
      <trkpt lat="42.19981" lon="22.33236">
        <ele>694.481758</ele>
        <time>2022-04-10T08:18:10.020Z</time>
      </trkpt>
      <trkpt lat="42.19977" lon="22.33219">
        <ele>694.330467</ele>
        <time>2022-04-10T08:18:12.025Z</time>
      </trkpt>
      <trkpt lat="42.19974" lon="22.33201">
        <ele>694.172001</ele>
        <time>2022-04-10T08:18:14.035Z</time>
      </trkpt>
      <trkpt lat="42.19971" lon="22.33183">
        <ele>694.012764</ele>
        <time>2022-04-10T08:18:16.008Z</time>
      </trkpt>
      <trkpt lat="42.19969" lon="22.33165">
        <ele>693.861095</ele>
        <time>2022-04-10T08:18:18.001Z</time>
      </trkpt>
      <trkpt lat="42.19967" lon="22.33149">
        <ele>693.714458</ele>
        <time>2022-04-10T08:18:20.027Z</time>
      </trkpt>
      <trkpt lat="42.19965" lon="22.33133">
        <ele>693.575411</ele>
        <time>2022-04-10T08:18:22.061Z</time>
      </trkpt>
      <trkpt lat="42.19963" lon="22.33118">
        <ele>693.44519</ele>
        <time>2022-04-10T08:18:24.003Z</time>
      </trkpt>
      <trkpt lat="42.19961" lon="22.33104">
        <ele>693.329389</ele>
        <time>2022-04-10T08:18:26.003Z</time>
      </trkpt>
      <trkpt lat="42.19961" lon="22.33088">
        <ele>693.18952</ele>
        <time>2022-04-10T08:18:29.024Z</time>
      </trkpt>
      <trkpt lat="42.19959" lon="22.33072">
        <ele>693.052869</ele>
        <time>2022-04-10T08:18:33.017Z</time>
      </trkpt>
      <trkpt lat="42.19959" lon="22.33059">
        <ele>692.944137</ele>
        <time>2022-04-10T08:18:36.019Z</time>
      </trkpt>
      <trkpt lat="42.1996" lon="22.33044">
        <ele>692.81313</ele>
        <time>2022-04-10T08:18:40.004Z</time>
      </trkpt>
      <trkpt lat="42.19958" lon="22.33029">
        <ele>692.684971</ele>
        <time>2022-04-10T08:18:44.025Z</time>
      </trkpt>
      <trkpt lat="42.19959" lon="22.33016">
        <ele>692.500822</ele>
        <time>2022-04-10T08:18:48.029Z</time>
      </trkpt>
      <trkpt lat="42.19959" lon="22.33003">
        <ele>692.253091</ele>
        <time>2022-04-10T08:18:53.032Z</time>
      </trkpt>
      <trkpt lat="42.19956" lon="22.32991">
        <ele>692.009928</ele>
        <time>2022-04-10T08:18:57.070Z</time>
      </trkpt>
      <trkpt lat="42.19956" lon="22.32978">
        <ele>691.766036</ele>
        <time>2022-04-10T08:19:00.006Z</time>
      </trkpt>
      <trkpt lat="42.19956" lon="22.32965">
        <ele>691.514399</ele>
        <time>2022-04-10T08:19:03.020Z</time>
      </trkpt>
      <trkpt lat="42.19951" lon="22.32954">
        <ele>691.276068</ele>
        <time>2022-04-10T08:19:06.021Z</time>
      </trkpt>
      <trkpt lat="42.19948" lon="22.3294">
        <ele>690.996602</ele>
        <time>2022-04-10T08:19:10.030Z</time>
      </trkpt>
      <trkpt lat="42.19949" lon="22.32925">
        <ele>690.708185</ele>
        <time>2022-04-10T08:19:14.052Z</time>
      </trkpt>
      <trkpt lat="42.19948" lon="22.32913">
        <ele>690.473795</ele>
        <time>2022-04-10T08:19:17.019Z</time>
      </trkpt>
      <trkpt lat="42.19947" lon="22.329">
        <ele>690.222856</ele>
        <time>2022-04-10T08:19:20.006Z</time>
      </trkpt>
      <trkpt lat="42.19945" lon="22.32887">
        <ele>689.967189</ele>
        <time>2022-04-10T08:19:23.020Z</time>
      </trkpt>
      <trkpt lat="42.19942" lon="22.32873">
        <ele>689.687217</ele>
        <time>2022-04-10T08:19:26.020Z</time>
      </trkpt>
      <trkpt lat="42.19937" lon="22.32859">
        <ele>689.388814</ele>
        <time>2022-04-10T08:19:29.012Z</time>
      </trkpt>
      <trkpt lat="42.1993" lon="22.32843">
        <ele>689.035525</ele>
        <time>2022-04-10T08:19:32.028Z</time>
      </trkpt>
      <trkpt lat="42.19925" lon="22.32832">
        <ele>688.781744</ele>
        <time>2022-04-10T08:19:34.024Z</time>
      </trkpt>
      <trkpt lat="42.19918" lon="22.3282">
        <ele>688.488492</ele>
        <time>2022-04-10T08:19:36.012Z</time>
      </trkpt>
      <trkpt lat="42.1991" lon="22.32807">
        <ele>688.172194</ele>
        <time>2022-04-10T08:19:38.005Z</time>
      </trkpt>
      <trkpt lat="42.19904" lon="22.32793">
        <ele>688.051526</ele>
        <time>2022-04-10T08:19:40.014Z</time>
      </trkpt>
      <trkpt lat="42.19897" lon="22.32779">
        <ele>688.32963</ele>
        <time>2022-04-10T08:19:42.022Z</time>
      </trkpt>
      <trkpt lat="42.19889" lon="22.32766">
        <ele>688.58695</ele>
        <time>2022-04-10T08:19:44.020Z</time>
      </trkpt>
      <trkpt lat="42.19882" lon="22.32752">
        <ele>688.852141</ele>
        <time>2022-04-10T08:19:46.016Z</time>
      </trkpt>
      <trkpt lat="42.19877" lon="22.32739">
        <ele>689.10367</ele>
        <time>2022-04-10T08:19:48.014Z</time>
      </trkpt>
      <trkpt lat="42.19873" lon="22.32726">
        <ele>689.323745</ele>
        <time>2022-04-10T08:19:50.016Z</time>
      </trkpt>
      <trkpt lat="42.1987" lon="22.32714">
        <ele>689.53064</ele>
        <time>2022-04-10T08:19:52.013Z</time>
      </trkpt>
      <trkpt lat="42.19866" lon="22.32697">
        <ele>689.804685</ele>
        <time>2022-04-10T08:19:55.022Z</time>
      </trkpt>
      <trkpt lat="42.19863" lon="22.32684">
        <ele>690.026621</ele>
        <time>2022-04-10T08:19:57.999Z</time>
      </trkpt>
      <trkpt lat="42.1986" lon="22.32672">
        <ele>690.240536</ele>
        <time>2022-04-10T08:20:01.026Z</time>
      </trkpt>
      <trkpt lat="42.19857" lon="22.3266">
        <ele>690.436075</ele>
        <time>2022-04-10T08:20:04.051Z</time>
      </trkpt>
      <trkpt lat="42.19855" lon="22.32648">
        <ele>690.631398</ele>
        <time>2022-04-10T08:20:07.012Z</time>
      </trkpt>
      <trkpt lat="42.19852" lon="22.32633">
        <ele>690.872836</ele>
        <time>2022-04-10T08:20:11.024Z</time>
      </trkpt>
      <trkpt lat="42.19849" lon="22.32618">
        <ele>691.128874</ele>
        <time>2022-04-10T08:20:15.008Z</time>
      </trkpt>
      <trkpt lat="42.19845" lon="22.32603">
        <ele>691.37732</ele>
        <time>2022-04-10T08:20:19.018Z</time>
      </trkpt>
      <trkpt lat="42.19842" lon="22.3259">
        <ele>691.602711</ele>
        <time>2022-04-10T08:20:23.032Z</time>
      </trkpt>
      <trkpt lat="42.19839" lon="22.32576">
        <ele>691.83924</ele>
        <time>2022-04-10T08:20:27.002Z</time>
      </trkpt>
      <trkpt lat="42.19835" lon="22.32565">
        <ele>691.770364</ele>
        <time>2022-04-10T08:20:30.025Z</time>
      </trkpt>
      <trkpt lat="42.19831" lon="22.32553">
        <ele>691.681632</ele>
        <time>2022-04-10T08:20:33.020Z</time>
      </trkpt>
      <trkpt lat="42.19828" lon="22.32538">
        <ele>691.572175</ele>
        <time>2022-04-10T08:20:37.017Z</time>
      </trkpt>
      <trkpt lat="42.19825" lon="22.32527">
        <ele>691.48677</ele>
        <time>2022-04-10T08:20:40.049Z</time>
      </trkpt>
      <trkpt lat="42.19821" lon="22.32512">
        <ele>691.381206</ele>
        <time>2022-04-10T08:20:44.009Z</time>
      </trkpt>
      <trkpt lat="42.19819" lon="22.32497">
        <ele>691.273769</ele>
        <time>2022-04-10T08:20:48.015Z</time>
      </trkpt>
      <trkpt lat="42.19816" lon="22.32481">
        <ele>691.160083</ele>
        <time>2022-04-10T08:20:52.019Z</time>
      </trkpt>
      <trkpt lat="42.19813" lon="22.32467">
        <ele>691.057912</ele>
        <time>2022-04-10T08:20:55.023Z</time>
      </trkpt>
      <trkpt lat="42.1981" lon="22.32453">
        <ele>690.954319</ele>
        <time>2022-04-10T08:20:58.005Z</time>
      </trkpt>
      <trkpt lat="42.19806" lon="22.3244">
        <ele>690.853333</ele>
        <time>2022-04-10T08:21:01.028Z</time>
      </trkpt>
      <trkpt lat="42.19802" lon="22.32426">
        <ele>690.748758</ele>
        <time>2022-04-10T08:21:04.069Z</time>
      </trkpt>
      <trkpt lat="42.19798" lon="22.32412">
        <ele>690.646472</ele>
        <time>2022-04-10T08:21:07.037Z</time>
      </trkpt>
      <trkpt lat="42.19794" lon="22.32399">
        <ele>690.545976</ele>
        <time>2022-04-10T08:21:10.061Z</time>
      </trkpt>
      <trkpt lat="42.19789" lon="22.32385">
        <ele>690.440788</ele>
        <time>2022-04-10T08:21:13.019Z</time>
      </trkpt>
      <trkpt lat="42.19782" lon="22.32372">
        <ele>690.333106</ele>
        <time>2022-04-10T08:21:16.009Z</time>
      </trkpt>
      <trkpt lat="42.19775" lon="22.3236">
        <ele>690.225561</ele>
        <time>2022-04-10T08:21:19.033Z</time>
      </trkpt>
      <trkpt lat="42.19767" lon="22.32347">
        <ele>690.088389</ele>
        <time>2022-04-10T08:21:22.051Z</time>
      </trkpt>
      <trkpt lat="42.1976" lon="22.32334">
        <ele>689.926197</ele>
        <time>2022-04-10T08:21:25.003Z</time>
      </trkpt>
      <trkpt lat="42.19752" lon="22.3232">
        <ele>689.748165</ele>
        <time>2022-04-10T08:21:28.044Z</time>
      </trkpt>
      <trkpt lat="42.19744" lon="22.32307">
        <ele>689.581875</ele>
        <time>2022-04-10T08:21:31.024Z</time>
      </trkpt>
      <trkpt lat="42.19736" lon="22.32295">
        <ele>689.424363</ele>
        <time>2022-04-10T08:21:34.014Z</time>
      </trkpt>
      <trkpt lat="42.1973" lon="22.32286">
        <ele>689.301528</ele>
        <time>2022-04-10T08:21:36.004Z</time>
      </trkpt>
      <trkpt lat="42.19724" lon="22.32275">
        <ele>689.173383</ele>
        <time>2022-04-10T08:21:38.031Z</time>
      </trkpt>
      <trkpt lat="42.19719" lon="22.32263">
        <ele>689.035231</ele>
        <time>2022-04-10T08:21:40.015Z</time>
      </trkpt>
      <trkpt lat="42.19713" lon="22.3225">
        <ele>688.887927</ele>
        <time>2022-04-10T08:21:42.012Z</time>
      </trkpt>
      <trkpt lat="42.19708" lon="22.32237">
        <ele>688.739766</ele>
        <time>2022-04-10T08:21:44.021Z</time>
      </trkpt>
      <trkpt lat="42.19702" lon="22.32225">
        <ele>688.596536</ele>
        <time>2022-04-10T08:21:46.010Z</time>
      </trkpt>
      <trkpt lat="42.19697" lon="22.32212">
        <ele>688.455371</ele>
        <time>2022-04-10T08:21:48.017Z</time>
      </trkpt>
      <trkpt lat="42.19693" lon="22.32199">
        <ele>688.321759</ele>
        <time>2022-04-10T08:21:50.014Z</time>
      </trkpt>
      <trkpt lat="42.19689" lon="22.32188">
        <ele>688.198204</ele>
        <time>2022-04-10T08:21:52.012Z</time>
      </trkpt>
      <trkpt lat="42.19685" lon="22.32173">
        <ele>688.036642</ele>
        <time>2022-04-10T08:21:55.038Z</time>
      </trkpt>
      <trkpt lat="42.1968" lon="22.32159">
        <ele>687.890485</ele>
        <time>2022-04-10T08:21:58.011Z</time>
      </trkpt>
      <trkpt lat="42.19675" lon="22.32147">
        <ele>687.775372</ele>
        <time>2022-04-10T08:22:01.027Z</time>
      </trkpt>
      <trkpt lat="42.19669" lon="22.32137">
        <ele>687.811027</ele>
        <time>2022-04-10T08:22:04.006Z</time>
      </trkpt>
      <trkpt lat="42.19665" lon="22.32127">
        <ele>687.847034</ele>
        <time>2022-04-10T08:22:07.009Z</time>
      </trkpt>
      <trkpt lat="42.19661" lon="22.32115">
        <ele>687.882663</ele>
        <time>2022-04-10T08:22:10.023Z</time>
      </trkpt>
      <trkpt lat="42.19656" lon="22.32103">
        <ele>687.923234</ele>
        <time>2022-04-10T08:22:13.016Z</time>
      </trkpt>
      <trkpt lat="42.19649" lon="22.3209">
        <ele>687.971322</ele>
        <time>2022-04-10T08:22:16.006Z</time>
      </trkpt>
      <trkpt lat="42.19642" lon="22.32076">
        <ele>688.021299</ele>
        <time>2022-04-10T08:22:19.034Z</time>
      </trkpt>
      <trkpt lat="42.19636" lon="22.32062">
        <ele>688.06811</ele>
        <time>2022-04-10T08:22:22.037Z</time>
      </trkpt>
      <trkpt lat="42.1963" lon="22.32047">
        <ele>688.117475</ele>
        <time>2022-04-10T08:22:25.042Z</time>
      </trkpt>
      <trkpt lat="42.19623" lon="22.32034">
        <ele>688.16486</ele>
        <time>2022-04-10T08:22:28.044Z</time>
      </trkpt>
      <trkpt lat="42.19617" lon="22.32021">
        <ele>688.209806</ele>
        <time>2022-04-10T08:22:31.035Z</time>
      </trkpt>
      <trkpt lat="42.1961" lon="22.32005">
        <ele>688.262233</ele>
        <time>2022-04-10T08:22:34.006Z</time>
      </trkpt>
      <trkpt lat="42.19606" lon="22.31994">
        <ele>688.298973</ele>
        <time>2022-04-10T08:22:36.027Z</time>
      </trkpt>
      <trkpt lat="42.19602" lon="22.31982">
        <ele>688.336218</ele>
        <time>2022-04-10T08:22:38.113Z</time>
      </trkpt>
      <trkpt lat="42.19597" lon="22.31971">
        <ele>688.374333</ele>
        <time>2022-04-10T08:22:40.019Z</time>
      </trkpt>
      <trkpt lat="42.19593" lon="22.31958">
        <ele>688.414576</ele>
        <time>2022-04-10T08:22:42.024Z</time>
      </trkpt>
      <trkpt lat="42.19589" lon="22.31946">
        <ele>688.453913</ele>
        <time>2022-04-10T08:22:44.013Z</time>
      </trkpt>
      <trkpt lat="42.19582" lon="22.31934">
        <ele>688.19649</ele>
        <time>2022-04-10T08:22:46.050Z</time>
      </trkpt>
      <trkpt lat="42.19574" lon="22.31923">
        <ele>687.538547</ele>
        <time>2022-04-10T08:22:48.016Z</time>
      </trkpt>
      <trkpt lat="42.19564" lon="22.31913">
        <ele>686.809017</ele>
        <time>2022-04-10T08:22:50.026Z</time>
      </trkpt>
      <trkpt lat="42.19553" lon="22.31904">
        <ele>686.09048</ele>
        <time>2022-04-10T08:22:52.015Z</time>
      </trkpt>
      <trkpt lat="42.19541" lon="22.31897">
        <ele>685.368728</ele>
        <time>2022-04-10T08:22:54.000Z</time>
      </trkpt>
      <trkpt lat="42.19531" lon="22.31888">
        <ele>684.664271</ele>
        <time>2022-04-10T08:22:56.020Z</time>
      </trkpt>
      <trkpt lat="42.19521" lon="22.31877">
        <ele>683.942262</ele>
        <time>2022-04-10T08:22:58.022Z</time>
      </trkpt>
      <trkpt lat="42.19514" lon="22.31862">
        <ele>683.191228</ele>
        <time>2022-04-10T08:23:00.004Z</time>
      </trkpt>
      <trkpt lat="42.19511" lon="22.31845">
        <ele>682.440768</ele>
        <time>2022-04-10T08:23:02.023Z</time>
      </trkpt>
      <trkpt lat="42.1951" lon="22.31828">
        <ele>681.723764</ele>
        <time>2022-04-10T08:23:04.021Z</time>
      </trkpt>
      <trkpt lat="42.19511" lon="22.31811">
        <ele>681.000952</ele>
        <time>2022-04-10T08:23:06.011Z</time>
      </trkpt>
      <trkpt lat="42.1951" lon="22.31793">
        <ele>680.271324</ele>
        <time>2022-04-10T08:23:08.050Z</time>
      </trkpt>
      <trkpt lat="42.19507" lon="22.31778">
        <ele>679.592725</ele>
        <time>2022-04-10T08:23:10.012Z</time>
      </trkpt>
      <trkpt lat="42.19502" lon="22.31763">
        <ele>678.899205</ele>
        <time>2022-04-10T08:23:12.013Z</time>
      </trkpt>
      <trkpt lat="42.19496" lon="22.3175">
        <ele>678.252124</ele>
        <time>2022-04-10T08:23:14.013Z</time>
      </trkpt>
      <trkpt lat="42.19491" lon="22.31737">
        <ele>678.126867</ele>
        <time>2022-04-10T08:23:16.032Z</time>
      </trkpt>
      <trkpt lat="42.19486" lon="22.31726">
        <ele>678.02402</ele>
        <time>2022-04-10T08:23:18.056Z</time>
      </trkpt>
      <trkpt lat="42.19482" lon="22.31714">
        <ele>677.917613</ele>
        <time>2022-04-10T08:23:20.011Z</time>
      </trkpt>
      <trkpt lat="42.19477" lon="22.31698">
        <ele>677.776596</ele>
        <time>2022-04-10T08:23:23.008Z</time>
      </trkpt>
      <trkpt lat="42.19473" lon="22.31687">
        <ele>677.676043</ele>
        <time>2022-04-10T08:23:25.018Z</time>
      </trkpt>
      <trkpt lat="42.19466" lon="22.31673">
        <ele>677.534597</ele>
        <time>2022-04-10T08:23:28.014Z</time>
      </trkpt>
      <trkpt lat="42.1946" lon="22.31658">
        <ele>677.398294</ele>
        <time>2022-04-10T08:23:31.020Z</time>
      </trkpt>
      <trkpt lat="42.19455" lon="22.31644">
        <ele>677.271968</ele>
        <time>2022-04-10T08:23:34.019Z</time>
      </trkpt>
      <trkpt lat="42.1945" lon="22.3163">
        <ele>677.146344</ele>
        <time>2022-04-10T08:23:37.032Z</time>
      </trkpt>
      <trkpt lat="42.19446" lon="22.31617">
        <ele>677.030173</ele>
        <time>2022-04-10T08:23:40.017Z</time>
      </trkpt>
      <trkpt lat="42.19441" lon="22.31605">
        <ele>676.920826</ele>
        <time>2022-04-10T08:23:43.017Z</time>
      </trkpt>
      <trkpt lat="42.19438" lon="22.31593">
        <ele>676.817113</ele>
        <time>2022-04-10T08:23:46.027Z</time>
      </trkpt>
      <trkpt lat="42.19435" lon="22.31581">
        <ele>676.714516</ele>
        <time>2022-04-10T08:23:49.032Z</time>
      </trkpt>
      <trkpt lat="42.19432" lon="22.31569">
        <ele>676.611605</ele>
        <time>2022-04-10T08:23:52.025Z</time>
      </trkpt>
      <trkpt lat="42.1943" lon="22.31554">
        <ele>676.484522</ele>
        <time>2022-04-10T08:23:56.007Z</time>
      </trkpt>
      <trkpt lat="42.19429" lon="22.31541">
        <ele>676.384001</ele>
        <time>2022-04-10T08:23:59.022Z</time>
      </trkpt>
      <trkpt lat="42.19426" lon="22.31527">
        <ele>676.305329</ele>
        <time>2022-04-10T08:24:03.020Z</time>
      </trkpt>
      <trkpt lat="42.19423" lon="22.31512">
        <ele>676.917916</ele>
        <time>2022-04-10T08:24:07.024Z</time>
      </trkpt>
      <trkpt lat="42.19422" lon="22.315">
        <ele>677.399797</ele>
        <time>2022-04-10T08:24:10.014Z</time>
      </trkpt>
      <trkpt lat="42.1942" lon="22.31488">
        <ele>677.887619</ele>
        <time>2022-04-10T08:24:13.023Z</time>
      </trkpt>
      <trkpt lat="42.19417" lon="22.31473">
        <ele>678.498974</ele>
        <time>2022-04-10T08:24:17.008Z</time>
      </trkpt>
      <trkpt lat="42.19414" lon="22.3146">
        <ele>679.051365</ele>
        <time>2022-04-10T08:24:21.020Z</time>
      </trkpt>
      <trkpt lat="42.19411" lon="22.31448">
        <ele>679.548839</ele>
        <time>2022-04-10T08:24:25.032Z</time>
      </trkpt>
      <trkpt lat="42.19407" lon="22.31435">
        <ele>680.12778</ele>
        <time>2022-04-10T08:24:29.013Z</time>
      </trkpt>
      <trkpt lat="42.19402" lon="22.31423">
        <ele>680.648186</ele>
        <time>2022-04-10T08:24:33.019Z</time>
      </trkpt>
      <trkpt lat="42.19396" lon="22.31414">
        <ele>681.138153</ele>
        <time>2022-04-10T08:24:37.015Z</time>
      </trkpt>
      <trkpt lat="42.1939" lon="22.31403">
        <ele>681.67021</ele>
        <time>2022-04-10T08:24:41.037Z</time>
      </trkpt>
      <trkpt lat="42.19383" lon="22.31393">
        <ele>682.22219</ele>
        <time>2022-04-10T08:24:45.058Z</time>
      </trkpt>
      <trkpt lat="42.19376" lon="22.31385">
        <ele>682.710351</ele>
        <time>2022-04-10T08:24:48.021Z</time>
      </trkpt>
      <trkpt lat="42.19369" lon="22.31378">
        <ele>683.195215</ele>
        <time>2022-04-10T08:24:51.023Z</time>
      </trkpt>
      <trkpt lat="42.19361" lon="22.31369">
        <ele>683.720968</ele>
        <time>2022-04-10T08:24:54.033Z</time>
      </trkpt>
      <trkpt lat="42.19352" lon="22.31362">
        <ele>684.274935</ele>
        <time>2022-04-10T08:24:57.030Z</time>
      </trkpt>
      <trkpt lat="42.19344" lon="22.31355">
        <ele>684.800947</ele>
        <time>2022-04-10T08:25:00.052Z</time>
      </trkpt>
      <trkpt lat="42.19335" lon="22.31348">
        <ele>685.357589</ele>
        <time>2022-04-10T08:25:03.016Z</time>
      </trkpt>
      <trkpt lat="42.19326" lon="22.31338">
        <ele>685.900488</ele>
        <time>2022-04-10T08:25:06.052Z</time>
      </trkpt>
      <trkpt lat="42.19315" lon="22.31328">
        <ele>685.372175</ele>
        <time>2022-04-10T08:25:09.015Z</time>
      </trkpt>
      <trkpt lat="42.19306" lon="22.31321">
        <ele>684.971663</ele>
        <time>2022-04-10T08:25:11.035Z</time>
      </trkpt>
      <trkpt lat="42.19296" lon="22.31314">
        <ele>684.51454</ele>
        <time>2022-04-10T08:25:13.014Z</time>
      </trkpt>
      <trkpt lat="42.19286" lon="22.31305">
        <ele>684.055066</ele>
        <time>2022-04-10T08:25:15.012Z</time>
      </trkpt>
      <trkpt lat="42.19276" lon="22.31296">
        <ele>683.569436</ele>
        <time>2022-04-10T08:25:17.059Z</time>
      </trkpt>
      <trkpt lat="42.19268" lon="22.31284">
        <ele>683.083201</ele>
        <time>2022-04-10T08:25:19.019Z</time>
      </trkpt>
      <trkpt lat="42.19259" lon="22.31271">
        <ele>682.571036</ele>
        <time>2022-04-10T08:25:21.028Z</time>
      </trkpt>
      <trkpt lat="42.19253" lon="22.31255">
        <ele>682.025052</ele>
        <time>2022-04-10T08:25:23.092Z</time>
      </trkpt>
      <trkpt lat="42.19247" lon="22.31237">
        <ele>681.462686</ele>
        <time>2022-04-10T08:25:25.009Z</time>
      </trkpt>
      <trkpt lat="42.19244" lon="22.31217">
        <ele>680.884721</ele>
        <time>2022-04-10T08:25:27.001Z</time>
      </trkpt>
      <trkpt lat="42.19241" lon="22.31197">
        <ele>680.266696</ele>
        <time>2022-04-10T08:25:29.009Z</time>
      </trkpt>
      <trkpt lat="42.19237" lon="22.31178">
        <ele>679.686772</ele>
        <time>2022-04-10T08:25:31.034Z</time>
      </trkpt>
      <trkpt lat="42.19234" lon="22.31159">
        <ele>679.123079</ele>
        <time>2022-04-10T08:25:33.021Z</time>
      </trkpt>
      <trkpt lat="42.19231" lon="22.3114">
        <ele>678.287574</ele>
        <time>2022-04-10T08:25:35.012Z</time>
      </trkpt>
      <trkpt lat="42.19228" lon="22.31122">
        <ele>677.160063</ele>
        <time>2022-04-10T08:25:37.025Z</time>
      </trkpt>
      <trkpt lat="42.19224" lon="22.31104">
        <ele>675.996581</ele>
        <time>2022-04-10T08:25:39.081Z</time>
      </trkpt>
      <trkpt lat="42.19219" lon="22.31086">
        <ele>674.845576</ele>
        <time>2022-04-10T08:25:41.039Z</time>
      </trkpt>
      <trkpt lat="42.19214" lon="22.31068">
        <ele>673.671433</ele>
        <time>2022-04-10T08:25:43.026Z</time>
      </trkpt>
      <trkpt lat="42.19209" lon="22.31051">
        <ele>672.557344</ele>
        <time>2022-04-10T08:25:45.012Z</time>
      </trkpt>
      <trkpt lat="42.19205" lon="22.31036">
        <ele>671.59751</ele>
        <time>2022-04-10T08:25:47.000Z</time>
      </trkpt>
      <trkpt lat="42.19202" lon="22.31023">
        <ele>670.747886</ele>
        <time>2022-04-10T08:25:49.015Z</time>
      </trkpt>
      <trkpt lat="42.19199" lon="22.31009">
        <ele>669.850695</ele>
        <time>2022-04-10T08:25:51.014Z</time>
      </trkpt>
      <trkpt lat="42.19196" lon="22.30994">
        <ele>668.937302</ele>
        <time>2022-04-10T08:25:53.015Z</time>
      </trkpt>
      <trkpt lat="42.19193" lon="22.30981">
        <ele>668.062336</ele>
        <time>2022-04-10T08:25:55.066Z</time>
      </trkpt>
      <trkpt lat="42.19191" lon="22.30967">
        <ele>667.224496</ele>
        <time>2022-04-10T08:25:57.026Z</time>
      </trkpt>
      <trkpt lat="42.1919" lon="22.30954">
        <ele>666.414005</ele>
        <time>2022-04-10T08:25:59.024Z</time>
      </trkpt>
      <trkpt lat="42.19192" lon="22.3094">
        <ele>665.557504</ele>
        <time>2022-04-10T08:26:01.015Z</time>
      </trkpt>
      <trkpt lat="42.19197" lon="22.30929">
        <ele>664.752185</ele>
        <time>2022-04-10T08:26:03.023Z</time>
      </trkpt>
      <trkpt lat="42.19199" lon="22.30916">
        <ele>664.00532</ele>
        <time>2022-04-10T08:26:05.013Z</time>
      </trkpt>
      <trkpt lat="42.19196" lon="22.30902">
        <ele>663.71214</ele>
        <time>2022-04-10T08:26:07.016Z</time>
      </trkpt>
      <trkpt lat="42.19187" lon="22.30893">
        <ele>663.365465</ele>
        <time>2022-04-10T08:26:10.030Z</time>
      </trkpt>
      <trkpt lat="42.19175" lon="22.30884">
        <ele>662.979126</ele>
        <time>2022-04-10T08:26:13.019Z</time>
      </trkpt>
      <trkpt lat="42.19164" lon="22.30873">
        <ele>662.595449</ele>
        <time>2022-04-10T08:26:16.002Z</time>
      </trkpt>
      <trkpt lat="42.19157" lon="22.30865">
        <ele>662.318799</ele>
        <time>2022-04-10T08:26:18.016Z</time>
      </trkpt>
      <trkpt lat="42.19149" lon="22.30855">
        <ele>662.022999</ele>
        <time>2022-04-10T08:26:20.063Z</time>
      </trkpt>
      <trkpt lat="42.19141" lon="22.30846">
        <ele>661.726352</ele>
        <time>2022-04-10T08:26:22.108Z</time>
      </trkpt>
      <trkpt lat="42.19133" lon="22.30836">
        <ele>661.409913</ele>
        <time>2022-04-10T08:26:24.017Z</time>
      </trkpt>
      <trkpt lat="42.19124" lon="22.30826">
        <ele>661.068551</ele>
        <time>2022-04-10T08:26:26.064Z</time>
      </trkpt>
      <trkpt lat="42.19115" lon="22.30815">
        <ele>660.720827</ele>
        <time>2022-04-10T08:26:28.016Z</time>
      </trkpt>
      <trkpt lat="42.19107" lon="22.30802">
        <ele>660.356604</ele>
        <time>2022-04-10T08:26:30.051Z</time>
      </trkpt>
      <trkpt lat="42.19099" lon="22.30788">
        <ele>659.989274</ele>
        <time>2022-04-10T08:26:32.021Z</time>
      </trkpt>
      <trkpt lat="42.19093" lon="22.30773">
        <ele>659.624455</ele>
        <time>2022-04-10T08:26:34.015Z</time>
      </trkpt>
      <trkpt lat="42.19088" lon="22.30757">
        <ele>659.258047</ele>
        <time>2022-04-10T08:26:36.014Z</time>
      </trkpt>
      <trkpt lat="42.19084" lon="22.30742">
        <ele>658.906608</ele>
        <time>2022-04-10T08:26:38.014Z</time>
      </trkpt>
      <trkpt lat="42.19082" lon="22.30727">
        <ele>659.860653</ele>
        <time>2022-04-10T08:26:40.027Z</time>
      </trkpt>
      <trkpt lat="42.1908" lon="22.30713">
        <ele>660.874125</ele>
        <time>2022-04-10T08:26:42.027Z</time>
      </trkpt>
      <trkpt lat="42.19078" lon="22.30699">
        <ele>661.842115</ele>
        <time>2022-04-10T08:26:44.008Z</time>
      </trkpt>
      <trkpt lat="42.19076" lon="22.30687">
        <ele>662.785032</ele>
        <time>2022-04-10T08:26:46.024Z</time>
      </trkpt>
      <trkpt lat="42.19074" lon="22.30673">
        <ele>663.745285</ele>
        <time>2022-04-10T08:26:48.005Z</time>
      </trkpt>
      <trkpt lat="42.19071" lon="22.30661">
        <ele>664.695152</ele>
        <time>2022-04-10T08:26:50.020Z</time>
      </trkpt>
      <trkpt lat="42.19068" lon="22.30649">
        <ele>665.581756</ele>
        <time>2022-04-10T08:26:52.010Z</time>
      </trkpt>
      <trkpt lat="42.19063" lon="22.30638">
        <ele>666.517276</ele>
        <time>2022-04-10T08:26:55.016Z</time>
      </trkpt>
      <trkpt lat="42.19057" lon="22.30627">
        <ele>667.47805</ele>
        <time>2022-04-10T08:27:00.029Z</time>
      </trkpt>
      <trkpt lat="42.1905" lon="22.30619">
        <ele>668.375329</ele>
        <time>2022-04-10T08:27:05.020Z</time>
      </trkpt>
      <trkpt lat="42.19041" lon="22.30613">
        <ele>669.315514</ele>
        <time>2022-04-10T08:27:11.012Z</time>
      </trkpt>
      <trkpt lat="42.19033" lon="22.30609">
        <ele>670.189576</ele>
        <time>2022-04-10T08:27:17.024Z</time>
      </trkpt>
      <trkpt lat="42.19023" lon="22.30605">
        <ele>671.191374</ele>
        <time>2022-04-10T08:27:24.017Z</time>
      </trkpt>
      <trkpt lat="42.19013" lon="22.306">
        <ele>672.166184</ele>
        <time>2022-04-10T08:27:32.026Z</time>
      </trkpt>
      <trkpt lat="42.19004" lon="22.30595">
        <ele>673.12042</ele>
        <time>2022-04-10T08:27:39.023Z</time>
      </trkpt>
      <trkpt lat="42.18995" lon="22.3059">
        <ele>674.09247</ele>
        <time>2022-04-10T08:27:46.016Z</time>
      </trkpt>
      <trkpt lat="42.18986" lon="22.30584">
        <ele>675.046473</ele>
        <time>2022-04-10T08:27:53.026Z</time>
      </trkpt>
      <trkpt lat="42.18977" lon="22.3058">
        <ele>675.977495</ele>
        <time>2022-04-10T08:28:01.007Z</time>
      </trkpt>
      <trkpt lat="42.18968" lon="22.30574">
        <ele>676.525502</ele>
        <time>2022-04-10T08:28:07.028Z</time>
      </trkpt>
      <trkpt lat="42.1896" lon="22.3057">
        <ele>676.895067</ele>
        <time>2022-04-10T08:28:13.026Z</time>
      </trkpt>
      <trkpt lat="42.18951" lon="22.30565">
        <ele>677.2775</ele>
        <time>2022-04-10T08:28:21.016Z</time>
      </trkpt>
      <trkpt lat="42.18943" lon="22.30559">
        <ele>677.653017</ele>
        <time>2022-04-10T08:28:28.020Z</time>
      </trkpt>
      <trkpt lat="42.18935" lon="22.30551">
        <ele>678.040914</ele>
        <time>2022-04-10T08:28:35.019Z</time>
      </trkpt>
      <trkpt lat="42.18927" lon="22.30543">
        <ele>678.452842</ele>
        <time>2022-04-10T08:28:42.014Z</time>
      </trkpt>
      <trkpt lat="42.18919" lon="22.30537">
        <ele>678.827646</ele>
        <time>2022-04-10T08:28:49.026Z</time>
      </trkpt>
      <trkpt lat="42.18912" lon="22.3053">
        <ele>679.212393</ele>
        <time>2022-04-10T08:28:57.014Z</time>
      </trkpt>
      <trkpt lat="42.18903" lon="22.30522">
        <ele>679.619087</ele>
        <time>2022-04-10T08:29:04.023Z</time>
      </trkpt>
      <trkpt lat="42.18894" lon="22.30516">
        <ele>680.041134</ele>
        <time>2022-04-10T08:29:10.021Z</time>
      </trkpt>
      <trkpt lat="42.18885" lon="22.30511">
        <ele>680.423609</ele>
        <time>2022-04-10T08:29:16.027Z</time>
      </trkpt>
      <trkpt lat="42.18877" lon="22.30506">
        <ele>680.793758</ele>
        <time>2022-04-10T08:29:21.014Z</time>
      </trkpt>
      <trkpt lat="42.18869" lon="22.305">
        <ele>681.163906</ele>
        <time>2022-04-10T08:29:26.022Z</time>
      </trkpt>
      <trkpt lat="42.18859" lon="22.30493">
        <ele>681.613915</ele>
        <time>2022-04-10T08:29:31.059Z</time>
      </trkpt>
      <trkpt lat="42.18851" lon="22.30487">
        <ele>681.997573</ele>
        <time>2022-04-10T08:29:35.027Z</time>
      </trkpt>
      <trkpt lat="42.18844" lon="22.30475">
        <ele>682.452088</ele>
        <time>2022-04-10T08:29:39.039Z</time>
      </trkpt>
      <trkpt lat="42.18839" lon="22.30464">
        <ele>682.844441</ele>
        <time>2022-04-10T08:29:43.018Z</time>
      </trkpt>
      <trkpt lat="42.18833" lon="22.30453">
        <ele>683.247525</ele>
        <time>2022-04-10T08:29:47.048Z</time>
      </trkpt>
      <trkpt lat="42.18828" lon="22.30442">
        <ele>683.489067</ele>
        <time>2022-04-10T08:29:50.038Z</time>
      </trkpt>
      <trkpt lat="42.18818" lon="22.30428">
        <ele>682.982628</ele>
        <time>2022-04-10T08:29:53.033Z</time>
      </trkpt>
      <trkpt lat="42.18807" lon="22.30417">
        <ele>682.502651</ele>
        <time>2022-04-10T08:29:55.023Z</time>
      </trkpt>
      <trkpt lat="42.18795" lon="22.30405">
        <ele>681.963067</ele>
        <time>2022-04-10T08:29:57.028Z</time>
      </trkpt>
      <trkpt lat="42.18782" lon="22.30392">
        <ele>681.3856</ele>
        <time>2022-04-10T08:29:59.036Z</time>
      </trkpt>
      <trkpt lat="42.18768" lon="22.30379">
        <ele>680.800718</ele>
        <time>2022-04-10T08:30:01.036Z</time>
      </trkpt>
      <trkpt lat="42.18757" lon="22.30364">
        <ele>680.237641</ele>
        <time>2022-04-10T08:30:03.015Z</time>
      </trkpt>
      <trkpt lat="42.18747" lon="22.30347">
        <ele>679.674038</ele>
        <time>2022-04-10T08:30:05.017Z</time>
      </trkpt>
      <trkpt lat="42.18738" lon="22.30331">
        <ele>679.13157</ele>
        <time>2022-04-10T08:30:07.032Z</time>
      </trkpt>
      <trkpt lat="42.18728" lon="22.30315">
        <ele>678.604942</ele>
        <time>2022-04-10T08:30:09.036Z</time>
      </trkpt>
      <trkpt lat="42.18718" lon="22.30302">
        <ele>678.092935</ele>
        <time>2022-04-10T08:30:11.025Z</time>
      </trkpt>
      <trkpt lat="42.18709" lon="22.30287">
        <ele>677.589185</ele>
        <time>2022-04-10T08:30:13.027Z</time>
      </trkpt>
      <trkpt lat="42.18699" lon="22.30273">
        <ele>677.356989</ele>
        <time>2022-04-10T08:30:15.033Z</time>
      </trkpt>
      <trkpt lat="42.18691" lon="22.30259">
        <ele>678.097996</ele>
        <time>2022-04-10T08:30:17.035Z</time>
      </trkpt>
      <trkpt lat="42.18686" lon="22.30247">
        <ele>678.717637</ele>
        <time>2022-04-10T08:30:19.062Z</time>
      </trkpt>
      <trkpt lat="42.18679" lon="22.30236">
        <ele>679.34286</ele>
        <time>2022-04-10T08:30:22.037Z</time>
      </trkpt>
      <trkpt lat="42.18673" lon="22.30225">
        <ele>679.943621</ele>
        <time>2022-04-10T08:30:27.042Z</time>
      </trkpt>
      <trkpt lat="42.18666" lon="22.30215">
        <ele>680.542559</ele>
        <time>2022-04-10T08:30:34.017Z</time>
      </trkpt>
      <trkpt lat="42.18659" lon="22.30206">
        <ele>681.118844</ele>
        <time>2022-04-10T08:30:41.056Z</time>
      </trkpt>
      <trkpt lat="42.18653" lon="22.30197">
        <ele>681.65593</ele>
        <time>2022-04-10T08:30:47.061Z</time>
      </trkpt>
      <trkpt lat="42.18646" lon="22.30186">
        <ele>682.246973</ele>
        <time>2022-04-10T08:30:55.034Z</time>
      </trkpt>
      <trkpt lat="42.18642" lon="22.30176">
        <ele>682.792277</ele>
        <time>2022-04-10T08:31:01.014Z</time>
      </trkpt>
      <trkpt lat="42.18636" lon="22.30165">
        <ele>683.358121</ele>
        <time>2022-04-10T08:31:07.041Z</time>
      </trkpt>
      <trkpt lat="42.18629" lon="22.30156">
        <ele>683.936417</ele>
        <time>2022-04-10T08:31:14.033Z</time>
      </trkpt>
      <trkpt lat="42.18623" lon="22.30145">
        <ele>684.519867</ele>
        <time>2022-04-10T08:31:21.020Z</time>
      </trkpt>
      <trkpt lat="42.18618" lon="22.30134">
        <ele>685.086622</ele>
        <time>2022-04-10T08:31:28.023Z</time>
      </trkpt>
      <trkpt lat="42.18612" lon="22.30123">
        <ele>685.684475</ele>
        <time>2022-04-10T08:31:35.066Z</time>
      </trkpt>
      <trkpt lat="42.18606" lon="22.30111">
        <ele>686.303305</ele>
        <time>2022-04-10T08:31:42.032Z</time>
      </trkpt>
      <trkpt lat="42.18602" lon="22.30099">
        <ele>686.872385</ele>
        <time>2022-04-10T08:31:48.022Z</time>
      </trkpt>
      <trkpt lat="42.18598" lon="22.30086">
        <ele>687.47859</ele>
        <time>2022-04-10T08:31:53.044Z</time>
      </trkpt>
      <trkpt lat="42.18593" lon="22.30075">
        <ele>688.006769</ele>
        <time>2022-04-10T08:31:58.025Z</time>
      </trkpt>
      <trkpt lat="42.18587" lon="22.30062">
        <ele>688.571857</ele>
        <time>2022-04-10T08:32:03.021Z</time>
      </trkpt>
      <trkpt lat="42.18581" lon="22.30051">
        <ele>689.093488</ele>
        <time>2022-04-10T08:32:08.078Z</time>
      </trkpt>
      <trkpt lat="42.18576" lon="22.30039">
        <ele>689.607051</ele>
        <time>2022-04-10T08:32:13.050Z</time>
      </trkpt>
      <trkpt lat="42.1857" lon="22.30028">
        <ele>690.098093</ele>
        <time>2022-04-10T08:32:18.044Z</time>
      </trkpt>
      <trkpt lat="42.18565" lon="22.30017">
        <ele>690.587221</ele>
        <time>2022-04-10T08:32:23.034Z</time>
      </trkpt>
      <trkpt lat="42.1856" lon="22.30006">
        <ele>691.072718</ele>
        <time>2022-04-10T08:32:27.031Z</time>
      </trkpt>
      <trkpt lat="42.18556" lon="22.29995">
        <ele>691.532822</ele>
        <time>2022-04-10T08:32:31.031Z</time>
      </trkpt>
      <trkpt lat="42.18551" lon="22.29983">
        <ele>692.051673</ele>
        <time>2022-04-10T08:32:36.055Z</time>
      </trkpt>
      <trkpt lat="42.18544" lon="22.29974">
        <ele>692.530455</ele>
        <time>2022-04-10T08:32:40.018Z</time>
      </trkpt>
      <trkpt lat="42.18538" lon="22.29962">
        <ele>693.084166</ele>
        <time>2022-04-10T08:32:45.057Z</time>
      </trkpt>
      <trkpt lat="42.18533" lon="22.2995">
        <ele>693.602247</ele>
        <time>2022-04-10T08:32:50.034Z</time>
      </trkpt>
      <trkpt lat="42.18528" lon="22.29937">
        <ele>694.148933</ele>
        <time>2022-04-10T08:32:55.022Z</time>
      </trkpt>
      <trkpt lat="42.18523" lon="22.29925">
        <ele>694.645742</ele>
        <time>2022-04-10T08:33:00.017Z</time>
      </trkpt>
      <trkpt lat="42.18516" lon="22.29915">
        <ele>695.168802</ele>
        <time>2022-04-10T08:33:05.020Z</time>
      </trkpt>
      <trkpt lat="42.18507" lon="22.29906">
        <ele>695.72373</ele>
        <time>2022-04-10T08:33:10.029Z</time>
      </trkpt>
      <trkpt lat="42.18501" lon="22.29896">
        <ele>696.211432</ele>
        <time>2022-04-10T08:33:14.032Z</time>
      </trkpt>
      <trkpt lat="42.18494" lon="22.29887">
        <ele>696.692947</ele>
        <time>2022-04-10T08:33:18.036Z</time>
      </trkpt>
      <trkpt lat="42.18487" lon="22.29876">
        <ele>697.0333</ele>
        <time>2022-04-10T08:33:22.013Z</time>
      </trkpt>
      <trkpt lat="42.18482" lon="22.29866">
        <ele>697.264628</ele>
        <time>2022-04-10T08:33:25.026Z</time>
      </trkpt>
      <trkpt lat="42.18475" lon="22.29856">
        <ele>697.516247</ele>
        <time>2022-04-10T08:33:28.013Z</time>
      </trkpt>
      <trkpt lat="42.18467" lon="22.29846">
        <ele>697.805867</ele>
        <time>2022-04-10T08:33:31.023Z</time>
      </trkpt>
      <trkpt lat="42.18456" lon="22.29837">
        <ele>698.119008</ele>
        <time>2022-04-10T08:33:34.026Z</time>
      </trkpt>
      <trkpt lat="42.18445" lon="22.2983">
        <ele>698.43682</ele>
        <time>2022-04-10T08:33:37.027Z</time>
      </trkpt>
      <trkpt lat="42.18438" lon="22.29824">
        <ele>698.667892</ele>
        <time>2022-04-10T08:33:39.035Z</time>
      </trkpt>
      <trkpt lat="42.1843" lon="22.2981">
        <ele>698.981337</ele>
        <time>2022-04-10T08:33:42.034Z</time>
      </trkpt>
      <trkpt lat="42.18428" lon="22.29798">
        <ele>699.215931</ele>
        <time>2022-04-10T08:33:45.027Z</time>
      </trkpt>
      <trkpt lat="42.18424" lon="22.29785">
        <ele>699.484992</ele>
        <time>2022-04-10T08:33:50.014Z</time>
      </trkpt>
      <trkpt lat="42.18419" lon="22.29772">
        <ele>699.76461</ele>
        <time>2022-04-10T08:33:55.046Z</time>
      </trkpt>
      <trkpt lat="42.18417" lon="22.29759">
        <ele>700.012689</ele>
        <time>2022-04-10T08:33:59.030Z</time>
      </trkpt>
      <trkpt lat="42.18413" lon="22.29747">
        <ele>700.257741</ele>
        <time>2022-04-10T08:34:03.027Z</time>
      </trkpt>
      <trkpt lat="42.1841" lon="22.29734">
        <ele>700.527149</ele>
        <time>2022-04-10T08:34:07.030Z</time>
      </trkpt>
      <trkpt lat="42.18407" lon="22.29721">
        <ele>700.771147</ele>
        <time>2022-04-10T08:34:11.017Z</time>
      </trkpt>
      <trkpt lat="42.18404" lon="22.29709">
        <ele>701.019974</ele>
        <time>2022-04-10T08:34:16.019Z</time>
      </trkpt>
      <trkpt lat="42.18399" lon="22.29698">
        <ele>701.264948</ele>
        <time>2022-04-10T08:34:22.023Z</time>
      </trkpt>
      <trkpt lat="42.18394" lon="22.29685">
        <ele>701.604603</ele>
        <time>2022-04-10T08:34:28.028Z</time>
      </trkpt>
      <trkpt lat="42.18387" lon="22.29674">
        <ele>702.048078</ele>
        <time>2022-04-10T08:34:34.029Z</time>
      </trkpt>
      <trkpt lat="42.1838" lon="22.29665">
        <ele>702.473449</ele>
        <time>2022-04-10T08:34:41.027Z</time>
      </trkpt>
      <trkpt lat="42.18373" lon="22.29656">
        <ele>702.882268</ele>
        <time>2022-04-10T08:34:47.036Z</time>
      </trkpt>
      <trkpt lat="42.18365" lon="22.29647">
        <ele>703.294157</ele>
        <time>2022-04-10T08:34:53.025Z</time>
      </trkpt>
      <trkpt lat="42.18358" lon="22.29639">
        <ele>703.7029</ele>
        <time>2022-04-10T08:35:00.015Z</time>
      </trkpt>
      <trkpt lat="42.18351" lon="22.29631">
        <ele>704.087878</ele>
        <time>2022-04-10T08:35:06.034Z</time>
      </trkpt>
      <trkpt lat="42.18344" lon="22.29622">
        <ele>704.475953</ele>
        <time>2022-04-10T08:35:12.030Z</time>
      </trkpt>
      <trkpt lat="42.18337" lon="22.29614">
        <ele>704.862949</ele>
        <time>2022-04-10T08:35:18.030Z</time>
      </trkpt>
      <trkpt lat="42.1833" lon="22.29604">
        <ele>705.293751</ele>
        <time>2022-04-10T08:35:25.041Z</time>
      </trkpt>
      <trkpt lat="42.18323" lon="22.29595">
        <ele>705.71814</ele>
        <time>2022-04-10T08:35:32.076Z</time>
      </trkpt>
      <trkpt lat="42.18315" lon="22.29587">
        <ele>706.118758</ele>
        <time>2022-04-10T08:35:38.091Z</time>
      </trkpt>
      <trkpt lat="42.18308" lon="22.29576">
        <ele>706.551118</ele>
        <time>2022-04-10T08:35:44.010Z</time>
      </trkpt>
      <trkpt lat="42.18303" lon="22.29566">
        <ele>706.948476</ele>
        <time>2022-04-10T08:35:50.109Z</time>
      </trkpt>
      <trkpt lat="42.18295" lon="22.29559">
        <ele>707.327956</ele>
        <time>2022-04-10T08:35:56.037Z</time>
      </trkpt>
      <trkpt lat="42.18287" lon="22.2955">
        <ele>707.775506</ele>
        <time>2022-04-10T08:36:00.022Z</time>
      </trkpt>
      <trkpt lat="42.1828" lon="22.29541">
        <ele>708.191766</ele>
        <time>2022-04-10T08:36:02.023Z</time>
      </trkpt>
      <trkpt lat="42.18271" lon="22.29528">
        <ele>708.718869</ele>
        <time>2022-04-10T08:36:04.031Z</time>
      </trkpt>
      <trkpt lat="42.18267" lon="22.29512">
        <ele>708.991255</ele>
        <time>2022-04-10T08:36:06.020Z</time>
      </trkpt>
      <trkpt lat="42.18269" lon="22.29497">
        <ele>709.014544</ele>
        <time>2022-04-10T08:36:08.040Z</time>
      </trkpt>
      <trkpt lat="42.18273" lon="22.29481">
        <ele>709.039924</ele>
        <time>2022-04-10T08:36:11.036Z</time>
      </trkpt>
      <trkpt lat="42.18273" lon="22.29468">
        <ele>709.059778</ele>
        <time>2022-04-10T08:36:14.012Z</time>
      </trkpt>
      <trkpt lat="42.18273" lon="22.29455">
        <ele>709.079907</ele>
        <time>2022-04-10T08:36:17.033Z</time>
      </trkpt>
      <trkpt lat="42.18273" lon="22.29443">
        <ele>709.098793</ele>
        <time>2022-04-10T08:36:20.019Z</time>
      </trkpt>
      <trkpt lat="42.18271" lon="22.29428">
        <ele>709.121793</ele>
        <time>2022-04-10T08:36:24.007Z</time>
      </trkpt>
      <trkpt lat="42.1827" lon="22.29416">
        <ele>709.141854</ele>
        <time>2022-04-10T08:36:28.047Z</time>
      </trkpt>
      <trkpt lat="42.18269" lon="22.294">
        <ele>709.165342</ele>
        <time>2022-04-10T08:36:32.032Z</time>
      </trkpt>
      <trkpt lat="42.18269" lon="22.29388">
        <ele>709.184692</ele>
        <time>2022-04-10T08:36:36.040Z</time>
      </trkpt>
      <trkpt lat="42.18269" lon="22.29374">
        <ele>709.206683</ele>
        <time>2022-04-10T08:36:41.036Z</time>
      </trkpt>
      <trkpt lat="42.18268" lon="22.29361">
        <ele>709.226846</ele>
        <time>2022-04-10T08:36:46.014Z</time>
      </trkpt>
      <trkpt lat="42.18267" lon="22.29348">
        <ele>709.246617</ele>
        <time>2022-04-10T08:36:50.029Z</time>
      </trkpt>
      <trkpt lat="42.18264" lon="22.29336">
        <ele>709.266624</ele>
        <time>2022-04-10T08:36:53.022Z</time>
      </trkpt>
      <trkpt lat="42.18261" lon="22.29321">
        <ele>709.289929</ele>
        <time>2022-04-10T08:36:56.036Z</time>
      </trkpt>
      <trkpt lat="42.18258" lon="22.29307">
        <ele>709.312588</ele>
        <time>2022-04-10T08:36:59.024Z</time>
      </trkpt>
      <trkpt lat="42.18254" lon="22.2929">
        <ele>709.339697</ele>
        <time>2022-04-10T08:37:02.038Z</time>
      </trkpt>
      <trkpt lat="42.1825" lon="22.29274">
        <ele>709.068166</ele>
        <time>2022-04-10T08:37:05.037Z</time>
      </trkpt>
      <trkpt lat="42.18246" lon="22.29262">
        <ele>708.677773</ele>
        <time>2022-04-10T08:37:07.029Z</time>
      </trkpt>
      <trkpt lat="42.18244" lon="22.29248">
        <ele>708.24205</ele>
        <time>2022-04-10T08:37:10.034Z</time>
      </trkpt>
      <trkpt lat="42.18242" lon="22.29234">
        <ele>707.79275</ele>
        <time>2022-04-10T08:37:13.031Z</time>
      </trkpt>
      <trkpt lat="42.1824" lon="22.29218">
        <ele>707.302</ele>
        <time>2022-04-10T08:37:16.044Z</time>
      </trkpt>
      <trkpt lat="42.18236" lon="22.29205">
        <ele>706.88933</ele>
        <time>2022-04-10T08:37:18.026Z</time>
      </trkpt>
      <trkpt lat="42.18233" lon="22.29189">
        <ele>706.363201</ele>
        <time>2022-04-10T08:37:20.025Z</time>
      </trkpt>
      <trkpt lat="42.18231" lon="22.2917">
        <ele>705.772736</ele>
        <time>2022-04-10T08:37:22.045Z</time>
      </trkpt>
      <trkpt lat="42.18228" lon="22.29151">
        <ele>705.192702</ele>
        <time>2022-04-10T08:37:24.036Z</time>
      </trkpt>
      <trkpt lat="42.18224" lon="22.29133">
        <ele>704.607839</ele>
        <time>2022-04-10T08:37:26.015Z</time>
      </trkpt>
      <trkpt lat="42.1822" lon="22.29115">
        <ele>704.033213</ele>
        <time>2022-04-10T08:37:28.034Z</time>
      </trkpt>
      <trkpt lat="42.18219" lon="22.29098">
        <ele>703.508976</ele>
        <time>2022-04-10T08:37:30.035Z</time>
      </trkpt>
      <trkpt lat="42.18218" lon="22.29081">
        <ele>702.991912</ele>
        <time>2022-04-10T08:37:32.035Z</time>
      </trkpt>
      <trkpt lat="42.18215" lon="22.29064">
        <ele>702.462688</ele>
        <time>2022-04-10T08:37:34.027Z</time>
      </trkpt>
      <trkpt lat="42.18211" lon="22.29047">
        <ele>701.914741</ele>
        <time>2022-04-10T08:37:36.020Z</time>
      </trkpt>
      <trkpt lat="42.18205" lon="22.2903">
        <ele>701.06923</ele>
        <time>2022-04-10T08:37:38.023Z</time>
      </trkpt>
      <trkpt lat="42.18199" lon="22.29013">
        <ele>700.251332</ele>
        <time>2022-04-10T08:37:40.032Z</time>
      </trkpt>
      <trkpt lat="42.18194" lon="22.28996">
        <ele>699.455879</ele>
        <time>2022-04-10T08:37:42.029Z</time>
      </trkpt>
      <trkpt lat="42.18191" lon="22.28981">
        <ele>698.753732</ele>
        <time>2022-04-10T08:37:44.029Z</time>
      </trkpt>
      <trkpt lat="42.1819" lon="22.28964">
        <ele>697.971899</ele>
        <time>2022-04-10T08:37:47.034Z</time>
      </trkpt>
      <trkpt lat="42.18187" lon="22.28949">
        <ele>697.32297</ele>
        <time>2022-04-10T08:37:49.031Z</time>
      </trkpt>
      <trkpt lat="42.18183" lon="22.28936">
        <ele>696.679536</ele>
        <time>2022-04-10T08:37:51.035Z</time>
      </trkpt>
      <trkpt lat="42.18179" lon="22.28921">
        <ele>695.971827</ele>
        <time>2022-04-10T08:37:53.030Z</time>
      </trkpt>
      <trkpt lat="42.18176" lon="22.28904">
        <ele>695.219786</ele>
        <time>2022-04-10T08:37:55.027Z</time>
      </trkpt>
      <trkpt lat="42.18173" lon="22.28886">
        <ele>694.414307</ele>
        <time>2022-04-10T08:37:57.025Z</time>
      </trkpt>
      <trkpt lat="42.18171" lon="22.28869">
        <ele>693.622156</ele>
        <time>2022-04-10T08:37:59.036Z</time>
      </trkpt>
      <trkpt lat="42.18169" lon="22.28852">
        <ele>692.879526</ele>
        <time>2022-04-10T08:38:01.054Z</time>
      </trkpt>
      <trkpt lat="42.18168" lon="22.28835">
        <ele>692.13049</ele>
        <time>2022-04-10T08:38:03.027Z</time>
      </trkpt>
      <trkpt lat="42.18166" lon="22.28818">
        <ele>691.371157</ele>
        <time>2022-04-10T08:38:05.032Z</time>
      </trkpt>
      <trkpt lat="42.18163" lon="22.288">
        <ele>691.192705</ele>
        <time>2022-04-10T08:38:07.050Z</time>
      </trkpt>
      <trkpt lat="42.1816" lon="22.28781">
        <ele>691.196313</ele>
        <time>2022-04-10T08:38:09.051Z</time>
      </trkpt>
      <trkpt lat="42.18158" lon="22.28762">
        <ele>691.199748</ele>
        <time>2022-04-10T08:38:11.017Z</time>
      </trkpt>
      <trkpt lat="42.18158" lon="22.28744">
        <ele>691.202999</ele>
        <time>2022-04-10T08:38:13.018Z</time>
      </trkpt>
      <trkpt lat="42.18157" lon="22.28728">
        <ele>691.205805</ele>
        <time>2022-04-10T08:38:15.025Z</time>
      </trkpt>
      <trkpt lat="42.18157" lon="22.28714">
        <ele>691.208406</ele>
        <time>2022-04-10T08:38:18.021Z</time>
      </trkpt>
      <trkpt lat="42.18156" lon="22.28699">
        <ele>691.211121</ele>
        <time>2022-04-10T08:38:22.021Z</time>
      </trkpt>
      <trkpt lat="42.18156" lon="22.28685">
        <ele>691.213578</ele>
        <time>2022-04-10T08:38:28.021Z</time>
      </trkpt>
      <trkpt lat="42.18155" lon="22.28673">
        <ele>691.215823</ele>
        <time>2022-04-10T08:38:34.029Z</time>
      </trkpt>
      <trkpt lat="42.18156" lon="22.28658">
        <ele>691.218445</ele>
        <time>2022-04-10T08:38:40.035Z</time>
      </trkpt>
      <trkpt lat="42.18152" lon="22.28645">
        <ele>691.220991</ele>
        <time>2022-04-10T08:38:43.047Z</time>
      </trkpt>
      <trkpt lat="42.18148" lon="22.28634">
        <ele>691.223255</ele>
        <time>2022-04-10T08:38:45.033Z</time>
      </trkpt>
      <trkpt lat="42.18144" lon="22.28623">
        <ele>691.225488</ele>
        <time>2022-04-10T08:38:47.032Z</time>
      </trkpt>
      <trkpt lat="42.18142" lon="22.28611">
        <ele>691.227677</ele>
        <time>2022-04-10T08:38:49.024Z</time>
      </trkpt>
      <trkpt lat="42.18138" lon="22.28597">
        <ele>691.230378</ele>
        <time>2022-04-10T08:38:52.024Z</time>
      </trkpt>
      <trkpt lat="42.18133" lon="22.28584">
        <ele>691.233009</ele>
        <time>2022-04-10T08:38:54.030Z</time>
      </trkpt>
      <trkpt lat="42.18128" lon="22.28569">
        <ele>690.531496</ele>
        <time>2022-04-10T08:38:56.029Z</time>
      </trkpt>
      <trkpt lat="42.18123" lon="22.28556">
        <ele>689.680493</ele>
        <time>2022-04-10T08:38:58.036Z</time>
      </trkpt>
      <trkpt lat="42.18119" lon="22.28541">
        <ele>688.690151</ele>
        <time>2022-04-10T08:39:00.026Z</time>
      </trkpt>
      <trkpt lat="42.18115" lon="22.28525">
        <ele>687.653921</ele>
        <time>2022-04-10T08:39:02.023Z</time>
      </trkpt>
      <trkpt lat="42.18112" lon="22.28507">
        <ele>686.555853</ele>
        <time>2022-04-10T08:39:04.034Z</time>
      </trkpt>
      <trkpt lat="42.18107" lon="22.28485">
        <ele>685.192168</ele>
        <time>2022-04-10T08:39:06.018Z</time>
      </trkpt>
      <trkpt lat="42.18102" lon="22.28465">
        <ele>683.900216</ele>
        <time>2022-04-10T08:39:08.055Z</time>
      </trkpt>
      <trkpt lat="42.18097" lon="22.28447">
        <ele>682.737618</ele>
        <time>2022-04-10T08:39:10.029Z</time>
      </trkpt>
      <trkpt lat="42.18091" lon="22.28427">
        <ele>681.475267</ele>
        <time>2022-04-10T08:39:12.034Z</time>
      </trkpt>
      <trkpt lat="42.18085" lon="22.28409">
        <ele>680.300764</ele>
        <time>2022-04-10T08:39:14.095Z</time>
      </trkpt>
      <trkpt lat="42.18079" lon="22.2839">
        <ele>679.020933</ele>
        <time>2022-04-10T08:39:16.020Z</time>
      </trkpt>
      <trkpt lat="42.18072" lon="22.28371">
        <ele>677.718902</ele>
        <time>2022-04-10T08:39:18.041Z</time>
      </trkpt>
      <trkpt lat="42.18063" lon="22.28353">
        <ele>676.591541</ele>
        <time>2022-04-10T08:39:20.083Z</time>
      </trkpt>
      <trkpt lat="42.18058" lon="22.28333">
        <ele>676.321965</ele>
        <time>2022-04-10T08:39:22.032Z</time>
      </trkpt>
      <trkpt lat="42.18057" lon="22.28315">
        <ele>676.084864</ele>
        <time>2022-04-10T08:39:24.042Z</time>
      </trkpt>
      <trkpt lat="42.18055" lon="22.283">
        <ele>675.888344</ele>
        <time>2022-04-10T08:39:26.025Z</time>
      </trkpt>
      <trkpt lat="42.18052" lon="22.28287">
        <ele>675.706702</ele>
        <time>2022-04-10T08:39:28.037Z</time>
      </trkpt>
      <trkpt lat="42.18047" lon="22.28274">
        <ele>675.522375</ele>
        <time>2022-04-10T08:39:30.022Z</time>
      </trkpt>
      <trkpt lat="42.18044" lon="22.28262">
        <ele>675.353851</ele>
        <time>2022-04-10T08:39:32.033Z</time>
      </trkpt>
      <trkpt lat="42.18039" lon="22.28248">
        <ele>675.156237</ele>
        <time>2022-04-10T08:39:35.035Z</time>
      </trkpt>
      <trkpt lat="42.18035" lon="22.28237">
        <ele>674.996699</ele>
        <time>2022-04-10T08:39:38.011Z</time>
      </trkpt>
      <trkpt lat="42.18031" lon="22.28223">
        <ele>674.80658</ele>
        <time>2022-04-10T08:39:42.064Z</time>
      </trkpt>
      <trkpt lat="42.18027" lon="22.28209">
        <ele>674.615251</ele>
        <time>2022-04-10T08:39:46.021Z</time>
      </trkpt>
      <trkpt lat="42.18024" lon="22.28194">
        <ele>674.416543</ele>
        <time>2022-04-10T08:39:50.033Z</time>
      </trkpt>
      <trkpt lat="42.18021" lon="22.28181">
        <ele>674.231771</ele>
        <time>2022-04-10T08:39:53.060Z</time>
      </trkpt>
      <trkpt lat="42.18017" lon="22.28166">
        <ele>674.030081</ele>
        <time>2022-04-10T08:39:56.030Z</time>
      </trkpt>
      <trkpt lat="42.18013" lon="22.28154">
        <ele>673.85865</ele>
        <time>2022-04-10T08:39:59.033Z</time>
      </trkpt>
      <trkpt lat="42.18009" lon="22.28142">
        <ele>673.693082</ele>
        <time>2022-04-10T08:40:02.023Z</time>
      </trkpt>
      <trkpt lat="42.18005" lon="22.28131">
        <ele>673.526355</ele>
        <time>2022-04-10T08:40:05.033Z</time>
      </trkpt>
      <trkpt lat="42.18" lon="22.28117">
        <ele>673.418778</ele>
        <time>2022-04-10T08:40:08.030Z</time>
      </trkpt>
      <trkpt lat="42.17997" lon="22.28103">
        <ele>673.324565</ele>
        <time>2022-04-10T08:40:11.030Z</time>
      </trkpt>
      <trkpt lat="42.17994" lon="22.2809">
        <ele>673.232936</ele>
        <time>2022-04-10T08:40:14.024Z</time>
      </trkpt>
      <trkpt lat="42.1799" lon="22.28074">
        <ele>673.130537</ele>
        <time>2022-04-10T08:40:17.032Z</time>
      </trkpt>
      <trkpt lat="42.17985" lon="22.28058">
        <ele>673.019675</ele>
        <time>2022-04-10T08:40:20.074Z</time>
      </trkpt>
      <trkpt lat="42.17981" lon="22.28048">
        <ele>672.941701</ele>
        <time>2022-04-10T08:40:22.024Z</time>
      </trkpt>
      <trkpt lat="42.17977" lon="22.28036">
        <ele>672.862763</ele>
        <time>2022-04-10T08:40:24.034Z</time>
      </trkpt>
      <trkpt lat="42.17973" lon="22.28025">
        <ele>672.782668</ele>
        <time>2022-04-10T08:40:26.036Z</time>
      </trkpt>
      <trkpt lat="42.17969" lon="22.28013">
        <ele>672.70025</ele>
        <time>2022-04-10T08:40:28.030Z</time>
      </trkpt>
      <trkpt lat="42.17965" lon="22.28001">
        <ele>672.619439</ele>
        <time>2022-04-10T08:40:30.030Z</time>
      </trkpt>
      <trkpt lat="42.17962" lon="22.2799">
        <ele>672.540178</ele>
        <time>2022-04-10T08:40:32.005Z</time>
      </trkpt>
      <trkpt lat="42.17959" lon="22.27978">
        <ele>672.460918</ele>
        <time>2022-04-10T08:40:34.042Z</time>
      </trkpt>
      <trkpt lat="42.17955" lon="22.27967">
        <ele>672.380244</ele>
        <time>2022-04-10T08:40:36.028Z</time>
      </trkpt>
      <trkpt lat="42.17951" lon="22.27955">
        <ele>672.301439</ele>
        <time>2022-04-10T08:40:38.044Z</time>
      </trkpt>
      <trkpt lat="42.17948" lon="22.27944">
        <ele>672.223978</ele>
        <time>2022-04-10T08:40:40.074Z</time>
      </trkpt>
      <trkpt lat="42.17945" lon="22.27932">
        <ele>672.144717</ele>
        <time>2022-04-10T08:40:42.082Z</time>
      </trkpt>
      <trkpt lat="42.17942" lon="22.27921">
        <ele>672.065414</ele>
        <time>2022-04-10T08:40:44.030Z</time>
      </trkpt>
      <trkpt lat="42.17939" lon="22.27904">
        <ele>671.957851</ele>
        <time>2022-04-10T08:40:47.028Z</time>
      </trkpt>
      <trkpt lat="42.17936" lon="22.27891">
        <ele>671.672412</ele>
        <time>2022-04-10T08:40:50.016Z</time>
      </trkpt>
      <trkpt lat="42.17934" lon="22.27879">
        <ele>671.395429</ele>
        <time>2022-04-10T08:40:53.108Z</time>
      </trkpt>
      <trkpt lat="42.17932" lon="22.27865">
        <ele>671.055639</ele>
        <time>2022-04-10T08:40:57.029Z</time>
      </trkpt>
      <trkpt lat="42.17929" lon="22.27851">
        <ele>670.729959</ele>
        <time>2022-04-10T08:41:01.021Z</time>
      </trkpt>
      <trkpt lat="42.17925" lon="22.27837">
        <ele>670.395867</ele>
        <time>2022-04-10T08:41:05.027Z</time>
      </trkpt>
      <trkpt lat="42.17922" lon="22.27823">
        <ele>670.056654</ele>
        <time>2022-04-10T08:41:09.026Z</time>
      </trkpt>
      <trkpt lat="42.17919" lon="22.27809">
        <ele>669.721831</ele>
        <time>2022-04-10T08:41:13.027Z</time>
      </trkpt>
      <trkpt lat="42.17916" lon="22.27797">
        <ele>669.438232</ele>
        <time>2022-04-10T08:41:16.035Z</time>
      </trkpt>
      <trkpt lat="42.17912" lon="22.27781">
        <ele>669.048651</ele>
        <time>2022-04-10T08:41:19.031Z</time>
      </trkpt>
      <trkpt lat="42.17908" lon="22.27769">
        <ele>668.744158</ele>
        <time>2022-04-10T08:41:21.012Z</time>
      </trkpt>
      <trkpt lat="42.17903" lon="22.27754">
        <ele>668.381142</ele>
        <time>2022-04-10T08:41:23.030Z</time>
      </trkpt>
      <trkpt lat="42.17899" lon="22.2774">
        <ele>668.020233</ele>
        <time>2022-04-10T08:41:25.038Z</time>
      </trkpt>
      <trkpt lat="42.17895" lon="22.27726">
        <ele>667.688389</ele>
        <time>2022-04-10T08:41:27.018Z</time>
      </trkpt>
      <trkpt lat="42.17891" lon="22.27712">
        <ele>667.346985</ele>
        <time>2022-04-10T08:41:29.041Z</time>
      </trkpt>
      <trkpt lat="42.17887" lon="22.27697">
        <ele>666.968155</ele>
        <time>2022-04-10T08:41:31.028Z</time>
      </trkpt>
      <trkpt lat="42.17882" lon="22.27681">
        <ele>666.588197</ele>
        <time>2022-04-10T08:41:33.072Z</time>
      </trkpt>
      <trkpt lat="42.17877" lon="22.27664">
        <ele>665.979605</ele>
        <time>2022-04-10T08:41:35.044Z</time>
      </trkpt>
      <trkpt lat="42.17871" lon="22.27646">
        <ele>665.121514</ele>
        <time>2022-04-10T08:41:37.039Z</time>
      </trkpt>
      <trkpt lat="42.17866" lon="22.27627">
        <ele>664.225561</ele>
        <time>2022-04-10T08:41:39.072Z</time>
      </trkpt>
      <trkpt lat="42.1786" lon="22.2761">
        <ele>663.419972</ele>
        <time>2022-04-10T08:41:41.018Z</time>
      </trkpt>
      <trkpt lat="42.17854" lon="22.27594">
        <ele>662.681982</ele>
        <time>2022-04-10T08:41:43.035Z</time>
      </trkpt>
      <trkpt lat="42.1785" lon="22.2758">
        <ele>662.007358</ele>
        <time>2022-04-10T08:41:45.065Z</time>
      </trkpt>
      <trkpt lat="42.17845" lon="22.27564">
        <ele>661.295219</ele>
        <time>2022-04-10T08:41:47.032Z</time>
      </trkpt>
      <trkpt lat="42.17839" lon="22.27549">
        <ele>660.552427</ele>
        <time>2022-04-10T08:41:49.046Z</time>
      </trkpt>
      <trkpt lat="42.17834" lon="22.27533">
        <ele>659.791623</ele>
        <time>2022-04-10T08:41:51.041Z</time>
      </trkpt>
      <trkpt lat="42.17828" lon="22.27516">
        <ele>659.000308</ele>
        <time>2022-04-10T08:41:53.034Z</time>
      </trkpt>
      <trkpt lat="42.17822" lon="22.275">
        <ele>658.229518</ele>
        <time>2022-04-10T08:41:55.031Z</time>
      </trkpt>
      <trkpt lat="42.17817" lon="22.27482">
        <ele>657.418529</ele>
        <time>2022-04-10T08:41:57.040Z</time>
      </trkpt>
      <trkpt lat="42.17812" lon="22.27464">
        <ele>656.585443</ele>
        <time>2022-04-10T08:41:59.053Z</time>
      </trkpt>
      <trkpt lat="42.17806" lon="22.27447">
        <ele>655.857241</ele>
        <time>2022-04-10T08:42:01.066Z</time>
      </trkpt>
      <trkpt lat="42.17801" lon="22.27432">
        <ele>655.353368</ele>
        <time>2022-04-10T08:42:03.032Z</time>
      </trkpt>
      <trkpt lat="42.17797" lon="22.27419">
        <ele>654.96758</ele>
        <time>2022-04-10T08:42:05.057Z</time>
      </trkpt>
      <trkpt lat="42.17794" lon="22.27406">
        <ele>654.566696</ele>
        <time>2022-04-10T08:42:09.045Z</time>
      </trkpt>
      <trkpt lat="42.17791" lon="22.27394">
        <ele>654.175863</ele>
        <time>2022-04-10T08:42:12.020Z</time>
      </trkpt>
      <trkpt lat="42.17788" lon="22.27378">
        <ele>653.694272</ele>
        <time>2022-04-10T08:42:15.035Z</time>
      </trkpt>
      <trkpt lat="42.17785" lon="22.27362">
        <ele>653.219292</ele>
        <time>2022-04-10T08:42:18.080Z</time>
      </trkpt>
      <trkpt lat="42.17782" lon="22.27349">
        <ele>652.821735</ele>
        <time>2022-04-10T08:42:21.021Z</time>
      </trkpt>
      <trkpt lat="42.17777" lon="22.27339">
        <ele>652.461396</ele>
        <time>2022-04-10T08:42:24.037Z</time>
      </trkpt>
      <trkpt lat="42.17771" lon="22.27326">
        <ele>652.027716</ele>
        <time>2022-04-10T08:42:27.047Z</time>
      </trkpt>
      <trkpt lat="42.17767" lon="22.27315">
        <ele>651.658916</ele>
        <time>2022-04-10T08:42:29.091Z</time>
      </trkpt>
      <trkpt lat="42.17763" lon="22.27303">
        <ele>651.285699</ele>
        <time>2022-04-10T08:42:31.043Z</time>
      </trkpt>
      <trkpt lat="42.17758" lon="22.27293">
        <ele>650.92089</ele>
        <time>2022-04-10T08:42:33.039Z</time>
      </trkpt>
      <trkpt lat="42.17754" lon="22.27281">
        <ele>650.538802</ele>
        <time>2022-04-10T08:42:35.066Z</time>
      </trkpt>
      <trkpt lat="42.17748" lon="22.27267">
        <ele>650.077347</ele>
        <time>2022-04-10T08:42:37.038Z</time>
      </trkpt>
      <trkpt lat="42.17743" lon="22.27251">
        <ele>649.552646</ele>
        <time>2022-04-10T08:42:39.053Z</time>
      </trkpt>
      <trkpt lat="42.17736" lon="22.27234">
        <ele>648.999532</ele>
        <time>2022-04-10T08:42:41.021Z</time>
      </trkpt>
      <trkpt lat="42.1773" lon="22.27217">
        <ele>649.003251</ele>
        <time>2022-04-10T08:42:43.081Z</time>
      </trkpt>
      <trkpt lat="42.17725" lon="22.272">
        <ele>649.133027</ele>
        <time>2022-04-10T08:42:45.026Z</time>
      </trkpt>
      <trkpt lat="42.17721" lon="22.27183">
        <ele>649.260773</ele>
        <time>2022-04-10T08:42:47.041Z</time>
      </trkpt>
      <trkpt lat="42.17717" lon="22.27169">
        <ele>649.366266</ele>
        <time>2022-04-10T08:42:49.079Z</time>
      </trkpt>
      <trkpt lat="42.17711" lon="22.27154">
        <ele>649.486925</ele>
        <time>2022-04-10T08:42:52.032Z</time>
      </trkpt>
      <trkpt lat="42.17707" lon="22.27141">
        <ele>649.587725</ele>
        <time>2022-04-10T08:42:55.039Z</time>
      </trkpt>
      <trkpt lat="42.17704" lon="22.27127">
        <ele>649.690855</ele>
        <time>2022-04-10T08:42:58.034Z</time>
      </trkpt>
      <trkpt lat="42.17699" lon="22.27113">
        <ele>649.799698</ele>
        <time>2022-04-10T08:43:01.029Z</time>
      </trkpt>
      <trkpt lat="42.17696" lon="22.27098">
        <ele>649.914194</ele>
        <time>2022-04-10T08:43:04.031Z</time>
      </trkpt>
      <trkpt lat="42.17691" lon="22.27084">
        <ele>650.020438</ele>
        <time>2022-04-10T08:43:07.047Z</time>
      </trkpt>
      <trkpt lat="42.17687" lon="22.2707">
        <ele>650.124603</ele>
        <time>2022-04-10T08:43:11.037Z</time>
      </trkpt>
      <trkpt lat="42.17685" lon="22.27058">
        <ele>650.216988</ele>
        <time>2022-04-10T08:43:16.081Z</time>
      </trkpt>
      <trkpt lat="42.17681" lon="22.27046">
        <ele>650.305294</ele>
        <time>2022-04-10T08:43:22.023Z</time>
      </trkpt>
      <trkpt lat="42.17678" lon="22.27033">
        <ele>650.401904</ele>
        <time>2022-04-10T08:43:28.024Z</time>
      </trkpt>
      <trkpt lat="42.17674" lon="22.2702">
        <ele>650.501126</ele>
        <time>2022-04-10T08:43:35.042Z</time>
      </trkpt>
      <trkpt lat="42.17671" lon="22.27007">
        <ele>650.598323</ele>
        <time>2022-04-10T08:43:41.037Z</time>
      </trkpt>
      <trkpt lat="42.17666" lon="22.26996">
        <ele>650.458464</ele>
        <time>2022-04-10T08:43:47.039Z</time>
      </trkpt>
      <trkpt lat="42.17661" lon="22.26985">
        <ele>650.272677</ele>
        <time>2022-04-10T08:43:52.027Z</time>
      </trkpt>
      <trkpt lat="42.17657" lon="22.26972">
        <ele>650.058528</ele>
        <time>2022-04-10T08:43:56.045Z</time>
      </trkpt>
      <trkpt lat="42.17652" lon="22.26959">
        <ele>649.847405</ele>
        <time>2022-04-10T08:43:59.124Z</time>
      </trkpt>
      <trkpt lat="42.17647" lon="22.26945">
        <ele>649.592999</ele>
        <time>2022-04-10T08:44:02.009Z</time>
      </trkpt>
      <trkpt lat="42.17643" lon="22.26933">
        <ele>649.405769</ele>
        <time>2022-04-10T08:44:04.037Z</time>
      </trkpt>
      <trkpt lat="42.17638" lon="22.26919">
        <ele>649.16486</ele>
        <time>2022-04-10T08:44:07.016Z</time>
      </trkpt>
      <trkpt lat="42.17634" lon="22.26904">
        <ele>648.933214</ele>
        <time>2022-04-10T08:44:10.016Z</time>
      </trkpt>
      <trkpt lat="42.1763" lon="22.26892">
        <ele>648.739009</ele>
        <time>2022-04-10T08:44:13.047Z</time>
      </trkpt>
      <trkpt lat="42.17627" lon="22.26879">
        <ele>648.534784</ele>
        <time>2022-04-10T08:44:17.019Z</time>
      </trkpt>
      <trkpt lat="42.17623" lon="22.26868">
        <ele>648.352016</ele>
        <time>2022-04-10T08:44:20.041Z</time>
      </trkpt>
      <trkpt lat="42.17619" lon="22.26857">
        <ele>648.166591</ele>
        <time>2022-04-10T08:44:23.040Z</time>
      </trkpt>
      <trkpt lat="42.17614" lon="22.26843">
        <ele>647.920861</ele>
        <time>2022-04-10T08:44:27.007Z</time>
      </trkpt>
      <trkpt lat="42.17611" lon="22.26831">
        <ele>647.737487</ele>
        <time>2022-04-10T08:44:30.010Z</time>
      </trkpt>
      <trkpt lat="42.17615" lon="22.26818">
        <ele>647.530395</ele>
        <time>2022-04-10T08:44:33.022Z</time>
      </trkpt>
      <trkpt lat="42.17623" lon="22.26809">
        <ele>647.305099</ele>
        <time>2022-04-10T08:44:36.063Z</time>
      </trkpt>
      <trkpt lat="42.17631" lon="22.268">
        <ele>647.104508</ele>
        <time>2022-04-10T08:44:39.031Z</time>
      </trkpt>
      <trkpt lat="42.17638" lon="22.2679">
        <ele>646.693799</ele>
        <time>2022-04-10T08:44:41.045Z</time>
      </trkpt>
      <trkpt lat="42.17647" lon="22.26778">
        <ele>645.777163</ele>
        <time>2022-04-10T08:44:43.056Z</time>
      </trkpt>
      <trkpt lat="42.17655" lon="22.26766">
        <ele>644.883059</ele>
        <time>2022-04-10T08:44:45.023Z</time>
      </trkpt>
      <trkpt lat="42.17662" lon="22.26754">
        <ele>644.017287</ele>
        <time>2022-04-10T08:44:47.048Z</time>
      </trkpt>
      <trkpt lat="42.17669" lon="22.26742">
        <ele>643.146117</ele>
        <time>2022-04-10T08:44:49.038Z</time>
      </trkpt>
      <trkpt lat="42.17677" lon="22.26731">
        <ele>642.31505</ele>
        <time>2022-04-10T08:44:51.021Z</time>
      </trkpt>
      <trkpt lat="42.17684" lon="22.26721">
        <ele>641.512662</ele>
        <time>2022-04-10T08:44:53.042Z</time>
      </trkpt>
      <trkpt lat="42.17692" lon="22.2671">
        <ele>640.648862</ele>
        <time>2022-04-10T08:44:55.028Z</time>
      </trkpt>
      <trkpt lat="42.177" lon="22.26698">
        <ele>639.808625</ele>
        <time>2022-04-10T08:44:57.021Z</time>
      </trkpt>
      <trkpt lat="42.17705" lon="22.26687">
        <ele>639.05376</ele>
        <time>2022-04-10T08:44:59.041Z</time>
      </trkpt>
      <trkpt lat="42.17709" lon="22.26675">
        <ele>638.36341</ele>
        <time>2022-04-10T08:45:01.064Z</time>
      </trkpt>
      <trkpt lat="42.1771" lon="22.26663">
        <ele>637.653536</ele>
        <time>2022-04-10T08:45:03.007Z</time>
      </trkpt>
      <trkpt lat="42.17708" lon="22.26649">
        <ele>636.896982</ele>
        <time>2022-04-10T08:45:05.026Z</time>
      </trkpt>
      <trkpt lat="42.17703" lon="22.26637">
        <ele>636.104612</ele>
        <time>2022-04-10T08:45:07.023Z</time>
      </trkpt>
      <trkpt lat="42.17698" lon="22.26625">
        <ele>635.346062</ele>
        <time>2022-04-10T08:45:09.029Z</time>
      </trkpt>
      <trkpt lat="42.17693" lon="22.26613">
        <ele>634.624151</ele>
        <time>2022-04-10T08:45:11.027Z</time>
      </trkpt>
      <trkpt lat="42.1769" lon="22.26602">
        <ele>633.92287</ele>
        <time>2022-04-10T08:45:13.028Z</time>
      </trkpt>
      <trkpt lat="42.17686" lon="22.2659">
        <ele>633.243319</ele>
        <time>2022-04-10T08:45:15.027Z</time>
      </trkpt>
      <trkpt lat="42.17681" lon="22.26577">
        <ele>632.596346</ele>
        <time>2022-04-10T08:45:17.030Z</time>
      </trkpt>
      <trkpt lat="42.17677" lon="22.26565">
        <ele>632.006317</ele>
        <time>2022-04-10T08:45:19.012Z</time>
      </trkpt>
      <trkpt lat="42.17672" lon="22.26551">
        <ele>631.251513</ele>
        <time>2022-04-10T08:45:22.032Z</time>
      </trkpt>
      <trkpt lat="42.17671" lon="22.26538">
        <ele>630.671414</ele>
        <time>2022-04-10T08:45:25.026Z</time>
      </trkpt>
      <trkpt lat="42.17678" lon="22.26527">
        <ele>630.02424</ele>
        <time>2022-04-10T08:45:28.043Z</time>
      </trkpt>
      <trkpt lat="42.17688" lon="22.26517">
        <ele>629.29503</ele>
        <time>2022-04-10T08:45:31.040Z</time>
      </trkpt>
      <trkpt lat="42.17696" lon="22.26508">
        <ele>628.607767</ele>
        <time>2022-04-10T08:45:34.021Z</time>
      </trkpt>
      <trkpt lat="42.17706" lon="22.26498">
        <ele>627.838959</ele>
        <time>2022-04-10T08:45:37.033Z</time>
      </trkpt>
      <trkpt lat="42.17716" lon="22.2649">
        <ele>627.156061</ele>
        <time>2022-04-10T08:45:39.092Z</time>
      </trkpt>
      <trkpt lat="42.17725" lon="22.26484">
        <ele>626.482476</ele>
        <time>2022-04-10T08:45:41.094Z</time>
      </trkpt>
      <trkpt lat="42.17735" lon="22.26477">
        <ele>625.845849</ele>
        <time>2022-04-10T08:45:43.026Z</time>
      </trkpt>
      <trkpt lat="42.17743" lon="22.2647">
        <ele>625.22765</ele>
        <time>2022-04-10T08:45:45.017Z</time>
      </trkpt>
      <trkpt lat="42.17752" lon="22.26464">
        <ele>624.586649</ele>
        <time>2022-04-10T08:45:47.014Z</time>
      </trkpt>
      <trkpt lat="42.17762" lon="22.26457">
        <ele>623.945648</ele>
        <time>2022-04-10T08:45:49.038Z</time>
      </trkpt>
      <trkpt lat="42.1777" lon="22.2645">
        <ele>623.333716</ele>
        <time>2022-04-10T08:45:51.023Z</time>
      </trkpt>
      <trkpt lat="42.17779" lon="22.26444">
        <ele>622.7144</ele>
        <time>2022-04-10T08:45:53.035Z</time>
      </trkpt>
      <trkpt lat="42.17788" lon="22.26438">
        <ele>622.123095</ele>
        <time>2022-04-10T08:45:55.044Z</time>
      </trkpt>
      <trkpt lat="42.17797" lon="22.26434">
        <ele>621.534735</ele>
        <time>2022-04-10T08:45:57.026Z</time>
      </trkpt>
      <trkpt lat="42.17807" lon="22.26429">
        <ele>620.935293</ele>
        <time>2022-04-10T08:45:59.032Z</time>
      </trkpt>
      <trkpt lat="42.17816" lon="22.26423">
        <ele>620.307252</ele>
        <time>2022-04-10T08:46:01.076Z</time>
      </trkpt>
      <trkpt lat="42.17827" lon="22.26418">
        <ele>619.65197</ele>
        <time>2022-04-10T08:46:03.025Z</time>
      </trkpt>
      <trkpt lat="42.17838" lon="22.26414">
        <ele>618.97557</ele>
        <time>2022-04-10T08:46:05.012Z</time>
      </trkpt>
      <trkpt lat="42.17848" lon="22.2641">
        <ele>618.344924</ele>
        <time>2022-04-10T08:46:07.046Z</time>
      </trkpt>
      <trkpt lat="42.17859" lon="22.26405">
        <ele>617.61875</ele>
        <time>2022-04-10T08:46:10.039Z</time>
      </trkpt>
      <trkpt lat="42.17868" lon="22.26399">
        <ele>617.030245</ele>
        <time>2022-04-10T08:46:15.005Z</time>
      </trkpt>
      <trkpt lat="42.17876" lon="22.26392">
        <ele>616.49012</ele>
        <time>2022-04-10T08:46:18.032Z</time>
      </trkpt>
      <trkpt lat="42.17881" lon="22.26379">
        <ele>615.862043</ele>
        <time>2022-04-10T08:46:21.067Z</time>
      </trkpt>
      <trkpt lat="42.17884" lon="22.26364">
        <ele>615.142966</ele>
        <time>2022-04-10T08:46:24.026Z</time>
      </trkpt>
      <trkpt lat="42.17887" lon="22.26346">
        <ele>614.348177</ele>
        <time>2022-04-10T08:46:27.025Z</time>
      </trkpt>
      <trkpt lat="42.1789" lon="22.26334">
        <ele>613.784336</ele>
        <time>2022-04-10T08:46:29.049Z</time>
      </trkpt>
      <trkpt lat="42.17892" lon="22.26322">
        <ele>613.237941</ele>
        <time>2022-04-10T08:46:31.091Z</time>
      </trkpt>
      <trkpt lat="42.17894" lon="22.26309">
        <ele>612.663002</ele>
        <time>2022-04-10T08:46:33.024Z</time>
      </trkpt>
      <trkpt lat="42.17896" lon="22.26297">
        <ele>612.123753</ele>
        <time>2022-04-10T08:46:35.028Z</time>
      </trkpt>
      <trkpt lat="42.17898" lon="22.26285">
        <ele>611.723865</ele>
        <time>2022-04-10T08:46:37.031Z</time>
      </trkpt>
      <trkpt lat="42.17901" lon="22.26268">
        <ele>611.839526</ele>
        <time>2022-04-10T08:46:40.037Z</time>
      </trkpt>
      <trkpt lat="42.17904" lon="22.26252">
        <ele>611.94592</ele>
        <time>2022-04-10T08:46:43.035Z</time>
      </trkpt>
      <trkpt lat="42.17907" lon="22.26238">
        <ele>612.043709</ele>
        <time>2022-04-10T08:46:46.026Z</time>
      </trkpt>
      <trkpt lat="42.17909" lon="22.26224">
        <ele>612.142006</ele>
        <time>2022-04-10T08:46:49.029Z</time>
      </trkpt>
      <trkpt lat="42.17911" lon="22.26209">
        <ele>612.240327</ele>
        <time>2022-04-10T08:46:52.020Z</time>
      </trkpt>
      <trkpt lat="42.1791" lon="22.26195">
        <ele>612.32999</ele>
        <time>2022-04-10T08:46:55.035Z</time>
      </trkpt>
      <trkpt lat="42.17909" lon="22.26182">
        <ele>612.420095</ele>
        <time>2022-04-10T08:46:58.038Z</time>
      </trkpt>
      <trkpt lat="42.17907" lon="22.26168">
        <ele>612.514083</ele>
        <time>2022-04-10T08:47:01.033Z</time>
      </trkpt>
      <trkpt lat="42.17902" lon="22.26156">
        <ele>612.605235</ele>
        <time>2022-04-10T08:47:04.068Z</time>
      </trkpt>
      <trkpt lat="42.17896" lon="22.26144">
        <ele>612.698642</ele>
        <time>2022-04-10T08:47:07.030Z</time>
      </trkpt>
      <trkpt lat="42.1789" lon="22.26135">
        <ele>612.783716</ele>
        <time>2022-04-10T08:47:10.036Z</time>
      </trkpt>
      <trkpt lat="42.17882" lon="22.26126">
        <ele>612.876697</ele>
        <time>2022-04-10T08:47:13.036Z</time>
      </trkpt>
      <trkpt lat="42.17872" lon="22.26118">
        <ele>612.980039</ele>
        <time>2022-04-10T08:47:16.039Z</time>
      </trkpt>
      <trkpt lat="42.17861" lon="22.2611">
        <ele>613.090612</ele>
        <time>2022-04-10T08:47:19.032Z</time>
      </trkpt>
      <trkpt lat="42.1785" lon="22.26103">
        <ele>613.203137</ele>
        <time>2022-04-10T08:47:22.037Z</time>
      </trkpt>
      <trkpt lat="42.17842" lon="22.26098">
        <ele>613.283814</ele>
        <time>2022-04-10T08:47:24.035Z</time>
      </trkpt>
      <trkpt lat="42.17832" lon="22.26092">
        <ele>613.230144</ele>
        <time>2022-04-10T08:47:26.040Z</time>
      </trkpt>
      <trkpt lat="42.17823" lon="22.26086">
        <ele>613.099504</ele>
        <time>2022-04-10T08:47:28.059Z</time>
      </trkpt>
      <trkpt lat="42.17812" lon="22.26079">
        <ele>612.945746</ele>
        <time>2022-04-10T08:47:30.054Z</time>
      </trkpt>
      <trkpt lat="42.17801" lon="22.26071">
        <ele>612.782277</ele>
        <time>2022-04-10T08:47:32.032Z</time>
      </trkpt>
      <trkpt lat="42.1779" lon="22.26062">
        <ele>612.62652</ele>
        <time>2022-04-10T08:47:34.037Z</time>
      </trkpt>
      <trkpt lat="42.17781" lon="22.26052">
        <ele>612.482531</ele>
        <time>2022-04-10T08:47:36.037Z</time>
      </trkpt>
      <trkpt lat="42.17771" lon="22.26041">
        <ele>612.320334</ele>
        <time>2022-04-10T08:47:38.067Z</time>
      </trkpt>
      <trkpt lat="42.17762" lon="22.2603">
        <ele>612.165128</ele>
        <time>2022-04-10T08:47:40.045Z</time>
      </trkpt>
      <trkpt lat="42.17754" lon="22.2602">
        <ele>612.025516</ele>
        <time>2022-04-10T08:47:42.044Z</time>
      </trkpt>
      <trkpt lat="42.17747" lon="22.26009">
        <ele>611.888655</ele>
        <time>2022-04-10T08:47:44.035Z</time>
      </trkpt>
      <trkpt lat="42.17739" lon="22.25998">
        <ele>611.739993</ele>
        <time>2022-04-10T08:47:46.044Z</time>
      </trkpt>
      <trkpt lat="42.1773" lon="22.25985">
        <ele>611.580335</ele>
        <time>2022-04-10T08:47:48.002Z</time>
      </trkpt>
      <trkpt lat="42.17722" lon="22.25974">
        <ele>611.432174</ele>
        <time>2022-04-10T08:47:50.050Z</time>
      </trkpt>
      <trkpt lat="42.17714" lon="22.25961">
        <ele>611.285065</ele>
        <time>2022-04-10T08:47:52.033Z</time>
      </trkpt>
      <trkpt lat="42.17708" lon="22.25948">
        <ele>611.136192</ele>
        <time>2022-04-10T08:47:54.025Z</time>
      </trkpt>
      <trkpt lat="42.17703" lon="22.25934">
        <ele>610.948301</ele>
        <time>2022-04-10T08:47:56.045Z</time>
      </trkpt>
      <trkpt lat="42.177" lon="22.2592">
        <ele>610.703055</ele>
        <time>2022-04-10T08:47:58.039Z</time>
      </trkpt>
      <trkpt lat="42.17698" lon="22.25907">
        <ele>610.470959</ele>
        <time>2022-04-10T08:48:00.049Z</time>
      </trkpt>
      <trkpt lat="42.17696" lon="22.25893">
        <ele>610.244736</ele>
        <time>2022-04-10T08:48:02.035Z</time>
      </trkpt>
      <trkpt lat="42.17696" lon="22.25881">
        <ele>610.033517</ele>
        <time>2022-04-10T08:48:04.032Z</time>
      </trkpt>
      <trkpt lat="42.17695" lon="22.25868">
        <ele>609.823494</ele>
        <time>2022-04-10T08:48:06.039Z</time>
      </trkpt>
      <trkpt lat="42.17694" lon="22.25856">
        <ele>609.611985</ele>
        <time>2022-04-10T08:48:08.034Z</time>
      </trkpt>
      <trkpt lat="42.17693" lon="22.25843">
        <ele>609.401756</ele>
        <time>2022-04-10T08:48:10.032Z</time>
      </trkpt>
      <trkpt lat="42.17692" lon="22.25826">
        <ele>609.114606</ele>
        <time>2022-04-10T08:48:13.056Z</time>
      </trkpt>
      <trkpt lat="42.17688" lon="22.25809">
        <ele>608.816409</ele>
        <time>2022-04-10T08:48:16.043Z</time>
      </trkpt>
      <trkpt lat="42.17686" lon="22.25797">
        <ele>608.60936</ele>
        <time>2022-04-10T08:48:18.054Z</time>
      </trkpt>
      <trkpt lat="42.17684" lon="22.25779">
        <ele>608.306977</ele>
        <time>2022-04-10T08:48:21.030Z</time>
      </trkpt>
      <trkpt lat="42.17682" lon="22.25767">
        <ele>608.093819</ele>
        <time>2022-04-10T08:48:23.034Z</time>
      </trkpt>
      <trkpt lat="42.1768" lon="22.25753">
        <ele>607.862152</ele>
        <time>2022-04-10T08:48:25.050Z</time>
      </trkpt>
      <trkpt lat="42.17678" lon="22.25739">
        <ele>607.624298</ele>
        <time>2022-04-10T08:48:27.045Z</time>
      </trkpt>
      <trkpt lat="42.17676" lon="22.25725">
        <ele>607.37935</ele>
        <time>2022-04-10T08:48:29.056Z</time>
      </trkpt>
      <trkpt lat="42.17673" lon="22.25709">
        <ele>607.112803</ele>
        <time>2022-04-10T08:48:31.042Z</time>
      </trkpt>
      <trkpt lat="42.17671" lon="22.25693">
        <ele>606.813282</ele>
        <time>2022-04-10T08:48:33.070Z</time>
      </trkpt>
      <trkpt lat="42.17669" lon="22.25677">
        <ele>606.490503</ele>
        <time>2022-04-10T08:48:35.034Z</time>
      </trkpt>
      <trkpt lat="42.17666" lon="22.2566">
        <ele>606.155752</ele>
        <time>2022-04-10T08:48:37.041Z</time>
      </trkpt>
      <trkpt lat="42.17664" lon="22.25642">
        <ele>605.798833</ele>
        <time>2022-04-10T08:48:39.030Z</time>
      </trkpt>
      <trkpt lat="42.17663" lon="22.25624">
        <ele>605.439523</ele>
        <time>2022-04-10T08:48:41.036Z</time>
      </trkpt>
      <trkpt lat="42.17661" lon="22.25606">
        <ele>605.087186</ele>
        <time>2022-04-10T08:48:43.040Z</time>
      </trkpt>
      <trkpt lat="42.1766" lon="22.25585">
        <ele>604.677221</ele>
        <time>2022-04-10T08:48:45.032Z</time>
      </trkpt>
      <trkpt lat="42.1766" lon="22.25562">
        <ele>604.236646</ele>
        <time>2022-04-10T08:48:47.038Z</time>
      </trkpt>
      <trkpt lat="42.17659" lon="22.25538">
        <ele>603.770552</ele>
        <time>2022-04-10T08:48:49.080Z</time>
      </trkpt>
      <trkpt lat="42.17659" lon="22.25514">
        <ele>603.302977</ele>
        <time>2022-04-10T08:48:51.024Z</time>
      </trkpt>
      <trkpt lat="42.1766" lon="22.25492">
        <ele>602.864246</ele>
        <time>2022-04-10T08:48:53.045Z</time>
      </trkpt>
      <trkpt lat="42.1766" lon="22.2547">
        <ele>602.445376</ele>
        <time>2022-04-10T08:48:55.074Z</time>
      </trkpt>
      <trkpt lat="42.1766" lon="22.2545">
        <ele>602.249423</ele>
        <time>2022-04-10T08:48:57.037Z</time>
      </trkpt>
      <trkpt lat="42.17659" lon="22.25431">
        <ele>602.235729</ele>
        <time>2022-04-10T08:48:59.034Z</time>
      </trkpt>
      <trkpt lat="42.17659" lon="22.25412">
        <ele>602.222317</ele>
        <time>2022-04-10T08:49:01.050Z</time>
      </trkpt>
      <trkpt lat="42.17658" lon="22.25393">
        <ele>602.20898</ele>
        <time>2022-04-10T08:49:03.035Z</time>
      </trkpt>
      <trkpt lat="42.17658" lon="22.25376">
        <ele>602.196793</ele>
        <time>2022-04-10T08:49:05.050Z</time>
      </trkpt>
      <trkpt lat="42.17657" lon="22.25361">
        <ele>602.185536</ele>
        <time>2022-04-10T08:49:07.041Z</time>
      </trkpt>
      <trkpt lat="42.17657" lon="22.25347">
        <ele>602.175574</ele>
        <time>2022-04-10T08:49:09.034Z</time>
      </trkpt>
      <trkpt lat="42.17656" lon="22.25329">
        <ele>602.162847</ele>
        <time>2022-04-10T08:49:12.072Z</time>
      </trkpt>
      <trkpt lat="42.17656" lon="22.25313">
        <ele>602.151095</ele>
        <time>2022-04-10T08:49:15.038Z</time>
      </trkpt>
      <trkpt lat="42.17656" lon="22.25299">
        <ele>602.140916</ele>
        <time>2022-04-10T08:49:18.016Z</time>
      </trkpt>
      <trkpt lat="42.17655" lon="22.25284">
        <ele>602.130596</ele>
        <time>2022-04-10T08:49:21.040Z</time>
      </trkpt>
      <trkpt lat="42.17655" lon="22.25271">
        <ele>602.120849</ele>
        <time>2022-04-10T08:49:24.061Z</time>
      </trkpt>
      <trkpt lat="42.17655" lon="22.25258">
        <ele>602.112033</ele>
        <time>2022-04-10T08:49:27.034Z</time>
      </trkpt>
      <trkpt lat="42.17656" lon="22.25246">
        <ele>602.103024</ele>
        <time>2022-04-10T08:49:30.042Z</time>
      </trkpt>
      <trkpt lat="42.17656" lon="22.25232">
        <ele>602.093418</ele>
        <time>2022-04-10T08:49:33.036Z</time>
      </trkpt>
      <trkpt lat="42.17657" lon="22.25218">
        <ele>602.083382</ele>
        <time>2022-04-10T08:49:36.030Z</time>
      </trkpt>
      <trkpt lat="42.17657" lon="22.25204">
        <ele>602.121744</ele>
        <time>2022-04-10T08:49:39.012Z</time>
      </trkpt>
      <trkpt lat="42.17657" lon="22.2519">
        <ele>602.160577</ele>
        <time>2022-04-10T08:49:42.031Z</time>
      </trkpt>
      <trkpt lat="42.17656" lon="22.25176">
        <ele>602.199716</ele>
        <time>2022-04-10T08:49:45.047Z</time>
      </trkpt>
      <trkpt lat="42.17655" lon="22.2516">
        <ele>602.242512</ele>
        <time>2022-04-10T08:49:48.035Z</time>
      </trkpt>
      <trkpt lat="42.17655" lon="22.25145">
        <ele>602.285789</ele>
        <time>2022-04-10T08:49:51.067Z</time>
      </trkpt>
      <trkpt lat="42.17655" lon="22.25128">
        <ele>602.332113</ele>
        <time>2022-04-10T08:49:54.038Z</time>
      </trkpt>
      <trkpt lat="42.17656" lon="22.25116">
        <ele>602.365961</ele>
        <time>2022-04-10T08:49:56.029Z</time>
      </trkpt>
      <trkpt lat="42.17656" lon="22.25103">
        <ele>602.40287</ele>
        <time>2022-04-10T08:49:58.034Z</time>
      </trkpt>
      <trkpt lat="42.17656" lon="22.2509">
        <ele>602.438946</ele>
        <time>2022-04-10T08:50:00.030Z</time>
      </trkpt>
      <trkpt lat="42.17655" lon="22.25076">
        <ele>602.477241</ele>
        <time>2022-04-10T08:50:02.074Z</time>
      </trkpt>
      <trkpt lat="42.17655" lon="22.25062">
        <ele>602.514689</ele>
        <time>2022-04-10T08:50:04.045Z</time>
      </trkpt>
      <trkpt lat="42.17655" lon="22.25048">
        <ele>602.55491</ele>
        <time>2022-04-10T08:50:06.033Z</time>
      </trkpt>
      <trkpt lat="42.17655" lon="22.25033">
        <ele>602.596247</ele>
        <time>2022-04-10T08:50:08.037Z</time>
      </trkpt>
      <trkpt lat="42.17655" lon="22.25018">
        <ele>602.637868</ele>
        <time>2022-04-10T08:50:10.034Z</time>
      </trkpt>
      <trkpt lat="42.17655" lon="22.25002">
        <ele>602.681146</ele>
        <time>2022-04-10T08:50:12.043Z</time>
      </trkpt>
      <trkpt lat="42.17655" lon="22.24987">
        <ele>602.723585</ele>
        <time>2022-04-10T08:50:14.078Z</time>
      </trkpt>
      <trkpt lat="42.17655" lon="22.24972">
        <ele>602.68649</ele>
        <time>2022-04-10T08:50:16.017Z</time>
      </trkpt>
      <trkpt lat="42.17655" lon="22.24957">
        <ele>602.348139</ele>
        <time>2022-04-10T08:50:18.060Z</time>
      </trkpt>
      <trkpt lat="42.17655" lon="22.24941">
        <ele>601.98088</ele>
        <time>2022-04-10T08:50:20.035Z</time>
      </trkpt>
      <trkpt lat="42.17654" lon="22.24924">
        <ele>601.607086</ele>
        <time>2022-04-10T08:50:22.036Z</time>
      </trkpt>
      <trkpt lat="42.17651" lon="22.24907">
        <ele>601.221757</ele>
        <time>2022-04-10T08:50:24.057Z</time>
      </trkpt>
      <trkpt lat="42.17649" lon="22.2489">
        <ele>600.833972</ele>
        <time>2022-04-10T08:50:26.066Z</time>
      </trkpt>
      <trkpt lat="42.17646" lon="22.24873">
        <ele>600.448643</ele>
        <time>2022-04-10T08:50:28.031Z</time>
      </trkpt>
      <trkpt lat="42.17644" lon="22.24856">
        <ele>600.054514</ele>
        <time>2022-04-10T08:50:30.040Z</time>
      </trkpt>
      <trkpt lat="42.17641" lon="22.24838">
        <ele>599.653221</ele>
        <time>2022-04-10T08:50:32.063Z</time>
      </trkpt>
      <trkpt lat="42.17638" lon="22.2482">
        <ele>599.224226</ele>
        <time>2022-04-10T08:50:34.028Z</time>
      </trkpt>
      <trkpt lat="42.17635" lon="22.24801">
        <ele>598.782634</ele>
        <time>2022-04-10T08:50:36.035Z</time>
      </trkpt>
      <trkpt lat="42.17632" lon="22.24781">
        <ele>598.327272</ele>
        <time>2022-04-10T08:50:38.067Z</time>
      </trkpt>
      <trkpt lat="42.17629" lon="22.2476">
        <ele>597.865334</ele>
        <time>2022-04-10T08:50:40.034Z</time>
      </trkpt>
      <trkpt lat="42.17625" lon="22.24739">
        <ele>597.374267</ele>
        <time>2022-04-10T08:50:42.046Z</time>
      </trkpt>
      <trkpt lat="42.17623" lon="22.24717">
        <ele>596.833766</ele>
        <time>2022-04-10T08:50:44.048Z</time>
      </trkpt>
      <trkpt lat="42.17623" lon="22.24695">
        <ele>596.284757</ele>
        <time>2022-04-10T08:50:46.026Z</time>
      </trkpt>
      <trkpt lat="42.17625" lon="22.24673">
        <ele>595.743412</ele>
        <time>2022-04-10T08:50:48.038Z</time>
      </trkpt>
      <trkpt lat="42.17627" lon="22.24652">
        <ele>595.210961</ele>
        <time>2022-04-10T08:50:50.037Z</time>
      </trkpt>
      <trkpt lat="42.1763" lon="22.24631">
        <ele>594.686363</ele>
        <time>2022-04-10T08:50:52.024Z</time>
      </trkpt>
      <trkpt lat="42.17634" lon="22.24611">
        <ele>594.185459</ele>
        <time>2022-04-10T08:50:54.039Z</time>
      </trkpt>
      <trkpt lat="42.17637" lon="22.24592">
        <ele>593.700528</ele>
        <time>2022-04-10T08:50:56.035Z</time>
      </trkpt>
      <trkpt lat="42.1764" lon="22.24573">
        <ele>593.216344</ele>
        <time>2022-04-10T08:50:58.035Z</time>
      </trkpt>
      <trkpt lat="42.17643" lon="22.24554">
        <ele>592.736691</ele>
        <time>2022-04-10T08:51:00.090Z</time>
      </trkpt>
      <trkpt lat="42.17646" lon="22.24536">
        <ele>592.282172</ele>
        <time>2022-04-10T08:51:02.033Z</time>
      </trkpt>
      <trkpt lat="42.17649" lon="22.24518">
        <ele>591.821163</ele>
        <time>2022-04-10T08:51:04.052Z</time>
      </trkpt>
      <trkpt lat="42.17652" lon="22.24499">
        <ele>591.352998</ele>
        <time>2022-04-10T08:51:06.077Z</time>
      </trkpt>
      <trkpt lat="42.17654" lon="22.24481">
        <ele>591.136998</ele>
        <time>2022-04-10T08:51:08.056Z</time>
      </trkpt>
      <trkpt lat="42.17657" lon="22.24463">
        <ele>590.945944</ele>
        <time>2022-04-10T08:51:10.037Z</time>
      </trkpt>
      <trkpt lat="42.17659" lon="22.24445">
        <ele>590.754959</ele>
        <time>2022-04-10T08:51:12.070Z</time>
      </trkpt>
      <trkpt lat="42.17662" lon="22.24428">
        <ele>590.565514</ele>
        <time>2022-04-10T08:51:14.039Z</time>
      </trkpt>
      <trkpt lat="42.17664" lon="22.24411">
        <ele>590.379976</ele>
        <time>2022-04-10T08:51:16.027Z</time>
      </trkpt>
      <trkpt lat="42.17667" lon="22.24393">
        <ele>590.187953</ele>
        <time>2022-04-10T08:51:18.057Z</time>
      </trkpt>
      <trkpt lat="42.17669" lon="22.24375">
        <ele>589.996707</ele>
        <time>2022-04-10T08:51:20.039Z</time>
      </trkpt>
      <trkpt lat="42.17671" lon="22.24357">
        <ele>589.81061</ele>
        <time>2022-04-10T08:51:22.036Z</time>
      </trkpt>
      <trkpt lat="42.17673" lon="22.2434">
        <ele>589.628482</ele>
        <time>2022-04-10T08:51:24.039Z</time>
      </trkpt>
      <trkpt lat="42.17674" lon="22.24322">
        <ele>589.438157</ele>
        <time>2022-04-10T08:51:26.041Z</time>
      </trkpt>
      <trkpt lat="42.17676" lon="22.24304">
        <ele>589.244344</ele>
        <time>2022-04-10T08:51:28.042Z</time>
      </trkpt>
      <trkpt lat="42.17677" lon="22.24286">
        <ele>589.054184</ele>
        <time>2022-04-10T08:51:30.040Z</time>
      </trkpt>
      <trkpt lat="42.17678" lon="22.24268">
        <ele>588.863528</ele>
        <time>2022-04-10T08:51:32.039Z</time>
      </trkpt>
      <trkpt lat="42.17679" lon="22.2425">
        <ele>588.716106</ele>
        <time>2022-04-10T08:51:34.025Z</time>
      </trkpt>
      <trkpt lat="42.1768" lon="22.24232">
        <ele>588.624417</ele>
        <time>2022-04-10T08:51:36.030Z</time>
      </trkpt>
      <trkpt lat="42.1768" lon="22.24213">
        <ele>588.530926</ele>
        <time>2022-04-10T08:51:38.077Z</time>
      </trkpt>
      <trkpt lat="42.17681" lon="22.24195">
        <ele>588.436475</ele>
        <time>2022-04-10T08:51:40.045Z</time>
      </trkpt>
      <trkpt lat="42.17681" lon="22.24177">
        <ele>588.345574</ele>
        <time>2022-04-10T08:51:42.034Z</time>
      </trkpt>
      <trkpt lat="42.17682" lon="22.24159">
        <ele>588.258605</ele>
        <time>2022-04-10T08:51:44.029Z</time>
      </trkpt>
      <trkpt lat="42.17681" lon="22.24144">
        <ele>588.181755</ele>
        <time>2022-04-10T08:51:46.039Z</time>
      </trkpt>
      <trkpt lat="42.17681" lon="22.2413">
        <ele>588.108031</ele>
        <time>2022-04-10T08:51:48.040Z</time>
      </trkpt>
      <trkpt lat="42.17681" lon="22.24113">
        <ele>588.02522</ele>
        <time>2022-04-10T08:51:50.041Z</time>
      </trkpt>
      <trkpt lat="42.17681" lon="22.24096">
        <ele>587.938371</ele>
        <time>2022-04-10T08:51:52.030Z</time>
      </trkpt>
      <trkpt lat="42.17681" lon="22.24079">
        <ele>587.853004</ele>
        <time>2022-04-10T08:51:54.039Z</time>
      </trkpt>
      <trkpt lat="42.1768" lon="22.24063">
        <ele>587.769688</ele>
        <time>2022-04-10T08:51:56.044Z</time>
      </trkpt>
      <trkpt lat="42.1768" lon="22.24046">
        <ele>587.683849</ele>
        <time>2022-04-10T08:51:58.034Z</time>
      </trkpt>
      <trkpt lat="42.17679" lon="22.24028">
        <ele>587.595682</ele>
        <time>2022-04-10T08:52:00.074Z</time>
      </trkpt>
      <trkpt lat="42.17678" lon="22.2401">
        <ele>587.51362</ele>
        <time>2022-04-10T08:52:02.036Z</time>
      </trkpt>
      <trkpt lat="42.17677" lon="22.23992">
        <ele>587.457398</ele>
        <time>2022-04-10T08:52:04.034Z</time>
      </trkpt>
      <trkpt lat="42.17674" lon="22.23974">
        <ele>587.398277</ele>
        <time>2022-04-10T08:52:06.025Z</time>
      </trkpt>
      <trkpt lat="42.17671" lon="22.23958">
        <ele>587.342879</ele>
        <time>2022-04-10T08:52:08.044Z</time>
      </trkpt>
      <trkpt lat="42.1767" lon="22.23942">
        <ele>587.291808</ele>
        <time>2022-04-10T08:52:10.040Z</time>
      </trkpt>
      <trkpt lat="42.17668" lon="22.23926">
        <ele>587.242087</ele>
        <time>2022-04-10T08:52:12.017Z</time>
      </trkpt>
      <trkpt lat="42.17666" lon="22.23911">
        <ele>587.19112</ele>
        <time>2022-04-10T08:52:14.033Z</time>
      </trkpt>
      <trkpt lat="42.17662" lon="22.23896">
        <ele>587.140341</ele>
        <time>2022-04-10T08:52:16.027Z</time>
      </trkpt>
      <trkpt lat="42.17659" lon="22.23881">
        <ele>587.090651</ele>
        <time>2022-04-10T08:52:18.037Z</time>
      </trkpt>
      <trkpt lat="42.17654" lon="22.23868">
        <ele>587.044782</ele>
        <time>2022-04-10T08:52:20.073Z</time>
      </trkpt>
      <trkpt lat="42.1765" lon="22.23857">
        <ele>587.003528</ele>
        <time>2022-04-10T08:52:22.071Z</time>
      </trkpt>
      <trkpt lat="42.17646" lon="22.23844">
        <ele>586.960242</ele>
        <time>2022-04-10T08:52:24.032Z</time>
      </trkpt>
      <trkpt lat="42.17641" lon="22.2383">
        <ele>586.910208</ele>
        <time>2022-04-10T08:52:26.042Z</time>
      </trkpt>
      <trkpt lat="42.17635" lon="22.23815">
        <ele>586.855987</ele>
        <time>2022-04-10T08:52:28.034Z</time>
      </trkpt>
      <trkpt lat="42.17628" lon="22.23799">
        <ele>586.797127</ele>
        <time>2022-04-10T08:52:30.028Z</time>
      </trkpt>
      <trkpt lat="42.17622" lon="22.23784">
        <ele>586.774174</ele>
        <time>2022-04-10T08:52:32.036Z</time>
      </trkpt>
      <trkpt lat="42.17615" lon="22.2377">
        <ele>586.849509</ele>
        <time>2022-04-10T08:52:34.065Z</time>
      </trkpt>
      <trkpt lat="42.17609" lon="22.23758">
        <ele>586.919836</ele>
        <time>2022-04-10T08:52:36.040Z</time>
      </trkpt>
      <trkpt lat="42.17603" lon="22.23747">
        <ele>586.984914</ele>
        <time>2022-04-10T08:52:38.028Z</time>
      </trkpt>
      <trkpt lat="42.17596" lon="22.23736">
        <ele>587.050018</ele>
        <time>2022-04-10T08:52:40.040Z</time>
      </trkpt>
      <trkpt lat="42.17588" lon="22.23724">
        <ele>587.124392</ele>
        <time>2022-04-10T08:52:42.042Z</time>
      </trkpt>
      <trkpt lat="42.1758" lon="22.23713">
        <ele>587.200247</ele>
        <time>2022-04-10T08:52:44.058Z</time>
      </trkpt>
      <trkpt lat="42.17571" lon="22.23702">
        <ele>587.273423</ele>
        <time>2022-04-10T08:52:46.045Z</time>
      </trkpt>
      <trkpt lat="42.17562" lon="22.23693">
        <ele>587.342075</ele>
        <time>2022-04-10T08:52:48.036Z</time>
      </trkpt>
      <trkpt lat="42.17553" lon="22.23683">
        <ele>587.415503</ele>
        <time>2022-04-10T08:52:50.020Z</time>
      </trkpt>
      <trkpt lat="42.17545" lon="22.23675">
        <ele>587.480246</ele>
        <time>2022-04-10T08:52:52.044Z</time>
      </trkpt>
      <trkpt lat="42.17537" lon="22.23666">
        <ele>587.544136</ele>
        <time>2022-04-10T08:52:54.042Z</time>
      </trkpt>
      <trkpt lat="42.17528" lon="22.23659">
        <ele>587.608713</ele>
        <time>2022-04-10T08:52:56.065Z</time>
      </trkpt>
      <trkpt lat="42.1752" lon="22.23652">
        <ele>587.671755</ele>
        <time>2022-04-10T08:52:58.015Z</time>
      </trkpt>
      <trkpt lat="42.17512" lon="22.23644">
        <ele>587.732683</ele>
        <time>2022-04-10T08:53:00.038Z</time>
      </trkpt>
      <trkpt lat="42.17504" lon="22.23636">
        <ele>587.792946</ele>
        <time>2022-04-10T08:53:02.075Z</time>
      </trkpt>
      <trkpt lat="42.17494" lon="22.23625">
        <ele>587.87321</ele>
        <time>2022-04-10T08:53:05.042Z</time>
      </trkpt>
      <trkpt lat="42.17484" lon="22.23615">
        <ele>588.32373</ele>
        <time>2022-04-10T08:53:08.028Z</time>
      </trkpt>
      <trkpt lat="42.17474" lon="22.23604">
        <ele>588.850294</ele>
        <time>2022-04-10T08:53:11.047Z</time>
      </trkpt>
      <trkpt lat="42.17464" lon="22.23593">
        <ele>589.370569</ele>
        <time>2022-04-10T08:53:14.037Z</time>
      </trkpt>
      <trkpt lat="42.17455" lon="22.23581">
        <ele>589.904699</ele>
        <time>2022-04-10T08:53:17.036Z</time>
      </trkpt>
      <trkpt lat="42.17445" lon="22.23568">
        <ele>590.449346</ele>
        <time>2022-04-10T08:53:20.039Z</time>
      </trkpt>
      <trkpt lat="42.17439" lon="22.23559">
        <ele>590.818661</ele>
        <time>2022-04-10T08:53:22.049Z</time>
      </trkpt>
      <trkpt lat="42.1743" lon="22.23546">
        <ele>591.369053</ele>
        <time>2022-04-10T08:53:25.042Z</time>
      </trkpt>
      <trkpt lat="42.17423" lon="22.23537">
        <ele>591.744706</ele>
        <time>2022-04-10T08:53:27.046Z</time>
      </trkpt>
      <trkpt lat="42.17418" lon="22.23527">
        <ele>592.124322</ele>
        <time>2022-04-10T08:53:29.017Z</time>
      </trkpt>
      <trkpt lat="42.17412" lon="22.23517">
        <ele>592.49164</ele>
        <time>2022-04-10T08:53:31.040Z</time>
      </trkpt>
      <trkpt lat="42.17407" lon="22.23507">
        <ele>592.861581</ele>
        <time>2022-04-10T08:53:33.038Z</time>
      </trkpt>
      <trkpt lat="42.17399" lon="22.23493">
        <ele>593.385846</ele>
        <time>2022-04-10T08:53:36.066Z</time>
      </trkpt>
      <trkpt lat="42.17393" lon="22.23479">
        <ele>593.884715</ele>
        <time>2022-04-10T08:53:39.046Z</time>
      </trkpt>
      <trkpt lat="42.17386" lon="22.23465">
        <ele>594.366547</ele>
        <time>2022-04-10T08:53:42.072Z</time>
      </trkpt>
      <trkpt lat="42.17381" lon="22.23452">
        <ele>594.831079</ele>
        <time>2022-04-10T08:53:45.033Z</time>
      </trkpt>
      <trkpt lat="42.17374" lon="22.23438">
        <ele>595.163289</ele>
        <time>2022-04-10T08:53:48.066Z</time>
      </trkpt>
      <trkpt lat="42.1737" lon="22.23424">
        <ele>595.106216</ele>
        <time>2022-04-10T08:53:51.038Z</time>
      </trkpt>
      <trkpt lat="42.17366" lon="22.23409">
        <ele>595.04924</ele>
        <time>2022-04-10T08:53:54.039Z</time>
      </trkpt>
      <trkpt lat="42.17361" lon="22.23394">
        <ele>594.98797</ele>
        <time>2022-04-10T08:53:57.017Z</time>
      </trkpt>
      <trkpt lat="42.17357" lon="22.23381">
        <ele>594.936726</ele>
        <time>2022-04-10T08:54:00.036Z</time>
      </trkpt>
      <trkpt lat="42.17355" lon="22.23367">
        <ele>594.880739</ele>
        <time>2022-04-10T08:54:03.027Z</time>
      </trkpt>
      <trkpt lat="42.17353" lon="22.23355">
        <ele>594.834811</ele>
        <time>2022-04-10T08:54:05.033Z</time>
      </trkpt>
      <trkpt lat="42.1735" lon="22.23342">
        <ele>594.785509</ele>
        <time>2022-04-10T08:54:07.040Z</time>
      </trkpt>
      <trkpt lat="42.17346" lon="22.23326">
        <ele>594.725835</ele>
        <time>2022-04-10T08:54:09.042Z</time>
      </trkpt>
      <trkpt lat="42.17343" lon="22.23311">
        <ele>594.664528</ele>
        <time>2022-04-10T08:54:11.056Z</time>
      </trkpt>
      <trkpt lat="42.1734" lon="22.23296">
        <ele>594.609501</ele>
        <time>2022-04-10T08:54:13.042Z</time>
      </trkpt>
      <trkpt lat="42.17338" lon="22.23282">
        <ele>594.556738</ele>
        <time>2022-04-10T08:54:15.024Z</time>
      </trkpt>
      <trkpt lat="42.17336" lon="22.23269">
        <ele>594.505169</ele>
        <time>2022-04-10T08:54:17.047Z</time>
      </trkpt>
      <trkpt lat="42.17334" lon="22.23256">
        <ele>594.458335</ele>
        <time>2022-04-10T08:54:19.037Z</time>
      </trkpt>
      <trkpt lat="42.17333" lon="22.23244">
        <ele>594.413109</ele>
        <time>2022-04-10T08:54:21.070Z</time>
      </trkpt>
      <trkpt lat="42.17332" lon="22.23226">
        <ele>594.346608</ele>
        <time>2022-04-10T08:54:24.047Z</time>
      </trkpt>
      <trkpt lat="42.17333" lon="22.23214">
        <ele>594.300972</ele>
        <time>2022-04-10T08:54:26.024Z</time>
      </trkpt>
      <trkpt lat="42.17333" lon="22.23201">
        <ele>594.073823</ele>
        <time>2022-04-10T08:54:28.037Z</time>
      </trkpt>
      <trkpt lat="42.17332" lon="22.23187">
        <ele>593.706285</ele>
        <time>2022-04-10T08:54:30.036Z</time>
      </trkpt>
      <trkpt lat="42.17332" lon="22.23173">
        <ele>593.314707</ele>
        <time>2022-04-10T08:54:32.072Z</time>
      </trkpt>
      <trkpt lat="42.17331" lon="22.23158">
        <ele>592.911672</ele>
        <time>2022-04-10T08:54:34.024Z</time>
      </trkpt>
      <trkpt lat="42.17331" lon="22.23143">
        <ele>592.533412</ele>
        <time>2022-04-10T08:54:36.030Z</time>
      </trkpt>
      <trkpt lat="42.1733" lon="22.23129">
        <ele>592.146181</ele>
        <time>2022-04-10T08:54:38.083Z</time>
      </trkpt>
      <trkpt lat="42.17329" lon="22.23115">
        <ele>591.761019</ele>
        <time>2022-04-10T08:54:40.034Z</time>
      </trkpt>
      <trkpt lat="42.17326" lon="22.231">
        <ele>591.351351</ele>
        <time>2022-04-10T08:54:42.035Z</time>
      </trkpt>
      <trkpt lat="42.17323" lon="22.23086">
        <ele>590.951186</ele>
        <time>2022-04-10T08:54:44.060Z</time>
      </trkpt>
      <trkpt lat="42.17319" lon="22.23073">
        <ele>590.573352</ele>
        <time>2022-04-10T08:54:46.053Z</time>
      </trkpt>
      <trkpt lat="42.17314" lon="22.23061">
        <ele>590.200584</ele>
        <time>2022-04-10T08:54:48.029Z</time>
      </trkpt>
      <trkpt lat="42.17308" lon="22.23048">
        <ele>589.816111</ele>
        <time>2022-04-10T08:54:50.080Z</time>
      </trkpt>
      <trkpt lat="42.17301" lon="22.23036">
        <ele>589.415388</ele>
        <time>2022-04-10T08:54:52.038Z</time>
      </trkpt>
      <trkpt lat="42.17295" lon="22.23025">
        <ele>589.02297</ele>
        <time>2022-04-10T08:54:54.050Z</time>
      </trkpt>
      <trkpt lat="42.17289" lon="22.23014">
        <ele>588.648086</ele>
        <time>2022-04-10T08:54:56.073Z</time>
      </trkpt>
      <trkpt lat="42.17282" lon="22.23002">
        <ele>588.258134</ele>
        <time>2022-04-10T08:54:58.031Z</time>
      </trkpt>
      <trkpt lat="42.17276" lon="22.2299">
        <ele>587.869453</ele>
        <time>2022-04-10T08:55:00.042Z</time>
      </trkpt>
      <trkpt lat="42.17271" lon="22.22979">
        <ele>587.573827</ele>
        <time>2022-04-10T08:55:02.024Z</time>
      </trkpt>
      <trkpt lat="42.17266" lon="22.22968">
        <ele>587.305934</ele>
        <time>2022-04-10T08:55:04.018Z</time>
      </trkpt>
      <trkpt lat="42.17261" lon="22.22958">
        <ele>587.041828</ele>
        <time>2022-04-10T08:55:06.030Z</time>
      </trkpt>
      <trkpt lat="42.17256" lon="22.22941">
        <ele>586.668731</ele>
        <time>2022-04-10T08:55:09.027Z</time>
      </trkpt>
      <trkpt lat="42.17253" lon="22.22928">
        <ele>586.383562</ele>
        <time>2022-04-10T08:55:11.046Z</time>
      </trkpt>
      <trkpt lat="42.17251" lon="22.22916">
        <ele>586.100916</ele>
        <time>2022-04-10T08:55:13.028Z</time>
      </trkpt>
      <trkpt lat="42.17247" lon="22.22898">
        <ele>585.70811</ele>
        <time>2022-04-10T08:55:16.041Z</time>
      </trkpt>
      <trkpt lat="42.17245" lon="22.22884">
        <ele>585.41409</ele>
        <time>2022-04-10T08:55:18.083Z</time>
      </trkpt>
      <trkpt lat="42.17243" lon="22.22871">
        <ele>585.126094</ele>
        <time>2022-04-10T08:55:20.052Z</time>
      </trkpt>
      <trkpt lat="42.17241" lon="22.22858">
        <ele>584.849549</ele>
        <time>2022-04-10T08:55:22.029Z</time>
      </trkpt>
      <trkpt lat="42.1724" lon="22.22845">
        <ele>584.581463</ele>
        <time>2022-04-10T08:55:24.048Z</time>
      </trkpt>
      <trkpt lat="42.1724" lon="22.22832">
        <ele>584.295552</ele>
        <time>2022-04-10T08:55:26.046Z</time>
      </trkpt>
      <trkpt lat="42.17241" lon="22.22819">
        <ele>584.012129</ele>
        <time>2022-04-10T08:55:28.039Z</time>
      </trkpt>
      <trkpt lat="42.17243" lon="22.22805">
        <ele>583.724678</ele>
        <time>2022-04-10T08:55:30.046Z</time>
      </trkpt>
      <trkpt lat="42.17245" lon="22.22792">
        <ele>583.443018</ele>
        <time>2022-04-10T08:55:32.076Z</time>
      </trkpt>
      <trkpt lat="42.17246" lon="22.22778">
        <ele>583.134021</ele>
        <time>2022-04-10T08:55:34.037Z</time>
      </trkpt>
      <trkpt lat="42.17246" lon="22.22763">
        <ele>582.816343</ele>
        <time>2022-04-10T08:55:36.042Z</time>
      </trkpt>
      <trkpt lat="42.17247" lon="22.2275">
        <ele>582.610499</ele>
        <time>2022-04-10T08:55:38.050Z</time>
      </trkpt>
      <trkpt lat="42.17248" lon="22.22738">
        <ele>582.548194</ele>
        <time>2022-04-10T08:55:40.053Z</time>
      </trkpt>
      <trkpt lat="42.17249" lon="22.22725">
        <ele>582.484779</ele>
        <time>2022-04-10T08:55:42.022Z</time>
      </trkpt>
      <trkpt lat="42.1725" lon="22.22712">
        <ele>582.41722</ele>
        <time>2022-04-10T08:55:44.024Z</time>
      </trkpt>
      <trkpt lat="42.17251" lon="22.22698">
        <ele>582.3446</ele>
        <time>2022-04-10T08:55:46.049Z</time>
      </trkpt>
      <trkpt lat="42.17251" lon="22.22683">
        <ele>582.263698</ele>
        <time>2022-04-10T08:55:48.045Z</time>
      </trkpt>
      <trkpt lat="42.1725" lon="22.22668">
        <ele>582.188931</ele>
        <time>2022-04-10T08:55:50.046Z</time>
      </trkpt>
      <trkpt lat="42.1725" lon="22.22654">
        <ele>582.116246</ele>
        <time>2022-04-10T08:55:52.039Z</time>
      </trkpt>
      <trkpt lat="42.17249" lon="22.2264">
        <ele>582.042866</ele>
        <time>2022-04-10T08:55:54.037Z</time>
      </trkpt>
      <trkpt lat="42.17249" lon="22.22626">
        <ele>581.971158</ele>
        <time>2022-04-10T08:55:56.033Z</time>
      </trkpt>
      <trkpt lat="42.17248" lon="22.22611">
        <ele>581.896235</ele>
        <time>2022-04-10T08:55:58.083Z</time>
      </trkpt>
      <trkpt lat="42.17247" lon="22.22597">
        <ele>581.819718</ele>
        <time>2022-04-10T08:56:00.026Z</time>
      </trkpt>
      <trkpt lat="42.17247" lon="22.22582">
        <ele>581.746429</ele>
        <time>2022-04-10T08:56:02.051Z</time>
      </trkpt>
      <trkpt lat="42.17246" lon="22.2257">
        <ele>581.679943</ele>
        <time>2022-04-10T08:56:04.054Z</time>
      </trkpt>
      <trkpt lat="42.17246" lon="22.22556">
        <ele>581.612267</ele>
        <time>2022-04-10T08:56:06.044Z</time>
      </trkpt>
      <trkpt lat="42.17245" lon="22.22543">
        <ele>581.54515</ele>
        <time>2022-04-10T08:56:08.040Z</time>
      </trkpt>
      <trkpt lat="42.17245" lon="22.22526">
        <ele>581.457013</ele>
        <time>2022-04-10T08:56:11.033Z</time>
      </trkpt>
      <trkpt lat="42.17246" lon="22.22509">
        <ele>581.421214</ele>
        <time>2022-04-10T08:56:14.030Z</time>
      </trkpt>
      <trkpt lat="42.17247" lon="22.22496">
        <ele>581.569093</ele>
        <time>2022-04-10T08:56:16.038Z</time>
      </trkpt>
      <trkpt lat="42.1725" lon="22.22484">
        <ele>581.712772</ele>
        <time>2022-04-10T08:56:18.046Z</time>
      </trkpt>
      <trkpt lat="42.17254" lon="22.22472">
        <ele>581.867472</ele>
        <time>2022-04-10T08:56:20.032Z</time>
      </trkpt>
      <trkpt lat="42.17259" lon="22.22459">
        <ele>582.033333</ele>
        <time>2022-04-10T08:56:22.020Z</time>
      </trkpt>
      <trkpt lat="42.17266" lon="22.22449">
        <ele>582.189283</ele>
        <time>2022-04-10T08:56:24.061Z</time>
      </trkpt>
      <trkpt lat="42.17273" lon="22.2244">
        <ele>582.345779</ele>
        <time>2022-04-10T08:56:26.021Z</time>
      </trkpt>
      <trkpt lat="42.1728" lon="22.2243">
        <ele>582.491944</ele>
        <time>2022-04-10T08:56:28.030Z</time>
      </trkpt>
      <trkpt lat="42.17287" lon="22.2242">
        <ele>582.652518</ele>
        <time>2022-04-10T08:56:30.072Z</time>
      </trkpt>
      <trkpt lat="42.17296" lon="22.22411">
        <ele>582.824292</ele>
        <time>2022-04-10T08:56:32.042Z</time>
      </trkpt>
      <trkpt lat="42.17306" lon="22.22404">
        <ele>583.011495</ele>
        <time>2022-04-10T08:56:34.037Z</time>
      </trkpt>
      <trkpt lat="42.17318" lon="22.22399">
        <ele>583.20109</ele>
        <time>2022-04-10T08:56:36.047Z</time>
      </trkpt>
      <trkpt lat="42.17331" lon="22.22396">
        <ele>583.399535</ele>
        <time>2022-04-10T08:56:38.037Z</time>
      </trkpt>
      <trkpt lat="42.17343" lon="22.22394">
        <ele>583.587167</ele>
        <time>2022-04-10T08:56:40.024Z</time>
      </trkpt>
      <trkpt lat="42.17354" lon="22.22394">
        <ele>583.770545</ele>
        <time>2022-04-10T08:56:42.037Z</time>
      </trkpt>
      <trkpt lat="42.17367" lon="22.22396">
        <ele>583.970422</ele>
        <time>2022-04-10T08:56:44.033Z</time>
      </trkpt>
      <trkpt lat="42.1738" lon="22.22397">
        <ele>584.163616</ele>
        <time>2022-04-10T08:56:46.033Z</time>
      </trkpt>
      <trkpt lat="42.17392" lon="22.22398">
        <ele>583.799477</ele>
        <time>2022-04-10T08:56:48.048Z</time>
      </trkpt>
      <trkpt lat="42.17402" lon="22.224">
        <ele>583.438282</ele>
        <time>2022-04-10T08:56:50.040Z</time>
      </trkpt>
      <trkpt lat="42.17414" lon="22.22403">
        <ele>583.057925</ele>
        <time>2022-04-10T08:56:52.098Z</time>
      </trkpt>
      <trkpt lat="42.17427" lon="22.22404">
        <ele>582.61372</ele>
        <time>2022-04-10T08:56:54.057Z</time>
      </trkpt>
      <trkpt lat="42.1744" lon="22.22404">
        <ele>582.173397</ele>
        <time>2022-04-10T08:56:56.036Z</time>
      </trkpt>
      <trkpt lat="42.17451" lon="22.22404">
        <ele>581.783521</ele>
        <time>2022-04-10T08:56:58.024Z</time>
      </trkpt>
      <trkpt lat="42.17463" lon="22.224">
        <ele>581.395062</ele>
        <time>2022-04-10T08:57:00.029Z</time>
      </trkpt>
      <trkpt lat="42.17473" lon="22.22395">
        <ele>581.00855</ele>
        <time>2022-04-10T08:57:02.034Z</time>
      </trkpt>
      <trkpt lat="42.17483" lon="22.22386">
        <ele>580.614085</ele>
        <time>2022-04-10T08:57:04.050Z</time>
      </trkpt>
      <trkpt lat="42.17491" lon="22.22377">
        <ele>580.265205</ele>
        <time>2022-04-10T08:57:06.023Z</time>
      </trkpt>
      <trkpt lat="42.17497" lon="22.22365">
        <ele>579.902192</ele>
        <time>2022-04-10T08:57:08.067Z</time>
      </trkpt>
      <trkpt lat="42.17502" lon="22.22349">
        <ele>579.492087</ele>
        <time>2022-04-10T08:57:10.038Z</time>
      </trkpt>
      <trkpt lat="42.17504" lon="22.22334">
        <ele>579.100329</ele>
        <time>2022-04-10T08:57:12.047Z</time>
      </trkpt>
      <trkpt lat="42.17503" lon="22.22319">
        <ele>578.736399</ele>
        <time>2022-04-10T08:57:14.048Z</time>
      </trkpt>
      <trkpt lat="42.17501" lon="22.22303">
        <ele>578.327458</ele>
        <time>2022-04-10T08:57:16.038Z</time>
      </trkpt>
      <trkpt lat="42.17498" lon="22.22288">
        <ele>577.968838</ele>
        <time>2022-04-10T08:57:18.030Z</time>
      </trkpt>
      <trkpt lat="42.17495" lon="22.22275">
        <ele>577.673225</ele>
        <time>2022-04-10T08:57:20.039Z</time>
      </trkpt>
      <trkpt lat="42.17492" lon="22.22261">
        <ele>577.354495</ele>
        <time>2022-04-10T08:57:22.040Z</time>
      </trkpt>
      <trkpt lat="42.17488" lon="22.22247">
        <ele>577.021575</ele>
        <time>2022-04-10T08:57:24.038Z</time>
      </trkpt>
      <trkpt lat="42.17483" lon="22.22235">
        <ele>576.732094</ele>
        <time>2022-04-10T08:57:26.047Z</time>
      </trkpt>
      <trkpt lat="42.17476" lon="22.22226">
        <ele>576.447235</ele>
        <time>2022-04-10T08:57:28.025Z</time>
      </trkpt>
      <trkpt lat="42.17466" lon="22.22215">
        <ele>576.076556</ele>
        <time>2022-04-10T08:57:31.034Z</time>
      </trkpt>
      <trkpt lat="42.1746" lon="22.22206">
        <ele>575.806559</ele>
        <time>2022-04-10T08:57:33.036Z</time>
      </trkpt>
      <trkpt lat="42.17452" lon="22.22198">
        <ele>575.533232</ele>
        <time>2022-04-10T08:57:35.045Z</time>
      </trkpt>
      <trkpt lat="42.17445" lon="22.22191">
        <ele>575.262177</ele>
        <time>2022-04-10T08:57:37.031Z</time>
      </trkpt>
      <trkpt lat="42.17438" lon="22.22182">
        <ele>574.97481</ele>
        <time>2022-04-10T08:57:39.041Z</time>
      </trkpt>
      <trkpt lat="42.1743" lon="22.22173">
        <ele>574.695984</ele>
        <time>2022-04-10T08:57:41.024Z</time>
      </trkpt>
      <trkpt lat="42.17423" lon="22.22166">
        <ele>574.42856</ele>
        <time>2022-04-10T08:57:43.047Z</time>
      </trkpt>
      <trkpt lat="42.17416" lon="22.22157">
        <ele>574.153499</ele>
        <time>2022-04-10T08:57:45.034Z</time>
      </trkpt>
      <trkpt lat="42.17409" lon="22.22148">
        <ele>573.873367</ele>
        <time>2022-04-10T08:57:47.025Z</time>
      </trkpt>
      <trkpt lat="42.17402" lon="22.22139">
        <ele>573.596662</ele>
        <time>2022-04-10T08:57:49.053Z</time>
      </trkpt>
      <trkpt lat="42.17396" lon="22.2213">
        <ele>573.315835</ele>
        <time>2022-04-10T08:57:51.026Z</time>
      </trkpt>
      <trkpt lat="42.1739" lon="22.2212">
        <ele>573.042521</ele>
        <time>2022-04-10T08:57:53.095Z</time>
      </trkpt>
      <trkpt lat="42.17385" lon="22.2211">
        <ele>572.876921</ele>
        <time>2022-04-10T08:57:55.030Z</time>
      </trkpt>
      <trkpt lat="42.17379" lon="22.22096">
        <ele>572.861269</ele>
        <time>2022-04-10T08:57:58.033Z</time>
      </trkpt>
      <trkpt lat="42.17373" lon="22.2208">
        <ele>572.845229</ele>
        <time>2022-04-10T08:58:01.041Z</time>
      </trkpt>
      <trkpt lat="42.1737" lon="22.22068">
        <ele>572.833531</ele>
        <time>2022-04-10T08:58:03.038Z</time>
      </trkpt>
      <trkpt lat="42.17367" lon="22.22056">
        <ele>572.821176</ele>
        <time>2022-04-10T08:58:05.036Z</time>
      </trkpt>
      <trkpt lat="42.17365" lon="22.22043">
        <ele>572.808966</ele>
        <time>2022-04-10T08:58:07.037Z</time>
      </trkpt>
      <trkpt lat="42.17362" lon="22.22031">
        <ele>572.796594</ele>
        <time>2022-04-10T08:58:09.051Z</time>
      </trkpt>
      <trkpt lat="42.17359" lon="22.22017">
        <ele>572.783377</ele>
        <time>2022-04-10T08:58:11.033Z</time>
      </trkpt>
      <trkpt lat="42.17356" lon="22.22004">
        <ele>572.770034</ele>
        <time>2022-04-10T08:58:13.056Z</time>
      </trkpt>
      <trkpt lat="42.17352" lon="22.2199">
        <ele>572.756743</ele>
        <time>2022-04-10T08:58:15.073Z</time>
      </trkpt>
      <trkpt lat="42.17349" lon="22.21976">
        <ele>572.742481</ele>
        <time>2022-04-10T08:58:17.036Z</time>
      </trkpt>
      <trkpt lat="42.17345" lon="22.2196">
        <ele>572.727478</ele>
        <time>2022-04-10T08:58:19.034Z</time>
      </trkpt>
      <trkpt lat="42.17342" lon="22.21946">
        <ele>572.713127</ele>
        <time>2022-04-10T08:58:21.060Z</time>
      </trkpt>
      <trkpt lat="42.17338" lon="22.21931">
        <ele>572.698527</ele>
        <time>2022-04-10T08:58:23.062Z</time>
      </trkpt>
      <trkpt lat="42.17335" lon="22.21916">
        <ele>572.683494</ele>
        <time>2022-04-10T08:58:25.049Z</time>
      </trkpt>
      <trkpt lat="42.17331" lon="22.21899">
        <ele>572.667508</ele>
        <time>2022-04-10T08:58:27.074Z</time>
      </trkpt>
      <trkpt lat="42.17327" lon="22.21883">
        <ele>572.616406</ele>
        <time>2022-04-10T08:58:29.035Z</time>
      </trkpt>
      <trkpt lat="42.17323" lon="22.21867">
        <ele>572.339771</ele>
        <time>2022-04-10T08:58:31.023Z</time>
      </trkpt>
      <trkpt lat="42.17319" lon="22.21852">
        <ele>572.06696</ele>
        <time>2022-04-10T08:58:33.060Z</time>
      </trkpt>
      <trkpt lat="42.17314" lon="22.21835">
        <ele>571.770377</ele>
        <time>2022-04-10T08:58:35.051Z</time>
      </trkpt>
      <trkpt lat="42.17309" lon="22.21818">
        <ele>571.47382</ele>
        <time>2022-04-10T08:58:37.034Z</time>
      </trkpt>
      <trkpt lat="42.17304" lon="22.21802">
        <ele>571.182706</ele>
        <time>2022-04-10T08:58:39.031Z</time>
      </trkpt>
      <trkpt lat="42.17294" lon="22.21786">
        <ele>570.855482</ele>
        <time>2022-04-10T08:58:41.039Z</time>
      </trkpt>
      <trkpt lat="42.17283" lon="22.21774">
        <ele>570.534269</ele>
        <time>2022-04-10T08:58:43.039Z</time>
      </trkpt>
      <trkpt lat="42.1727" lon="22.21765">
        <ele>570.20291</ele>
        <time>2022-04-10T08:58:45.031Z</time>
      </trkpt>
      <trkpt lat="42.17255" lon="22.21759">
        <ele>569.86948</ele>
        <time>2022-04-10T08:58:47.021Z</time>
      </trkpt>
      <trkpt lat="42.17242" lon="22.21758">
        <ele>569.579541</ele>
        <time>2022-04-10T08:58:49.032Z</time>
      </trkpt>
      <trkpt lat="42.17229" lon="22.21758">
        <ele>569.29718</ele>
        <time>2022-04-10T08:58:51.036Z</time>
      </trkpt>
      <trkpt lat="42.17218" lon="22.21757">
        <ele>569.043433</ele>
        <time>2022-04-10T08:58:53.037Z</time>
      </trkpt>
      <trkpt lat="42.17207" lon="22.21756">
        <ele>568.80285</ele>
        <time>2022-04-10T08:58:55.016Z</time>
      </trkpt>
      <trkpt lat="42.17196" lon="22.21755">
        <ele>568.524188</ele>
        <time>2022-04-10T08:58:57.037Z</time>
      </trkpt>
      <trkpt lat="42.17186" lon="22.21752">
        <ele>568.201348</ele>
        <time>2022-04-10T08:58:59.037Z</time>
      </trkpt>
      <trkpt lat="42.17177" lon="22.21746">
        <ele>567.893935</ele>
        <time>2022-04-10T08:59:01.082Z</time>
      </trkpt>
      <trkpt lat="42.17169" lon="22.21739">
        <ele>567.575864</ele>
        <time>2022-04-10T08:59:03.035Z</time>
      </trkpt>
      <trkpt lat="42.1716" lon="22.2173">
        <ele>567.222038</ele>
        <time>2022-04-10T08:59:05.053Z</time>
      </trkpt>
      <trkpt lat="42.17152" lon="22.21717">
        <ele>566.85049</ele>
        <time>2022-04-10T08:59:07.024Z</time>
      </trkpt>
      <trkpt lat="42.17146" lon="22.21704">
        <ele>566.479676</ele>
        <time>2022-04-10T08:59:09.038Z</time>
      </trkpt>
      <trkpt lat="42.17143" lon="22.21689">
        <ele>566.134857</ele>
        <time>2022-04-10T08:59:11.049Z</time>
      </trkpt>
      <trkpt lat="42.17142" lon="22.21676">
        <ele>565.813147</ele>
        <time>2022-04-10T08:59:13.034Z</time>
      </trkpt>
      <trkpt lat="42.17142" lon="22.21662">
        <ele>565.502183</ele>
        <time>2022-04-10T08:59:15.035Z</time>
      </trkpt>
      <trkpt lat="42.17143" lon="22.2165">
        <ele>565.213394</ele>
        <time>2022-04-10T08:59:17.044Z</time>
      </trkpt>
      <trkpt lat="42.17143" lon="22.21637">
        <ele>564.922547</ele>
        <time>2022-04-10T08:59:19.048Z</time>
      </trkpt>
      <trkpt lat="42.17144" lon="22.21624">
        <ele>564.608934</ele>
        <time>2022-04-10T08:59:21.054Z</time>
      </trkpt>
      <trkpt lat="42.17145" lon="22.2161">
        <ele>564.285204</ele>
        <time>2022-04-10T08:59:23.065Z</time>
      </trkpt>
      <trkpt lat="42.17146" lon="22.21596">
        <ele>563.966187</ele>
        <time>2022-04-10T08:59:25.040Z</time>
      </trkpt>
      <trkpt lat="42.17146" lon="22.21582">
        <ele>563.636664</ele>
        <time>2022-04-10T08:59:27.043Z</time>
      </trkpt>
      <trkpt lat="42.17146" lon="22.21568">
        <ele>563.318802</ele>
        <time>2022-04-10T08:59:29.051Z</time>
      </trkpt>
      <trkpt lat="42.17147" lon="22.21553">
        <ele>563.063488</ele>
        <time>2022-04-10T08:59:31.045Z</time>
      </trkpt>
      <trkpt lat="42.17148" lon="22.21538">
        <ele>563.093905</ele>
        <time>2022-04-10T08:59:33.052Z</time>
      </trkpt>
      <trkpt lat="42.17149" lon="22.21522">
        <ele>563.125116</ele>
        <time>2022-04-10T08:59:35.043Z</time>
      </trkpt>
      <trkpt lat="42.1715" lon="22.21506">
        <ele>563.156931</ele>
        <time>2022-04-10T08:59:37.034Z</time>
      </trkpt>
      <trkpt lat="42.1715" lon="22.21488">
        <ele>563.190413</ele>
        <time>2022-04-10T08:59:39.039Z</time>
      </trkpt>
      <trkpt lat="42.17152" lon="22.21472">
        <ele>563.223238</ele>
        <time>2022-04-10T08:59:41.022Z</time>
      </trkpt>
      <trkpt lat="42.17155" lon="22.21455">
        <ele>563.255845</ele>
        <time>2022-04-10T08:59:43.045Z</time>
      </trkpt>
      <trkpt lat="42.17159" lon="22.2144">
        <ele>563.28804</ele>
        <time>2022-04-10T08:59:45.029Z</time>
      </trkpt>
      <trkpt lat="42.17164" lon="22.21424">
        <ele>563.321003</ele>
        <time>2022-04-10T08:59:47.020Z</time>
      </trkpt>
      <trkpt lat="42.17172" lon="22.21411">
        <ele>563.353039</ele>
        <time>2022-04-10T08:59:49.031Z</time>
      </trkpt>
      <trkpt lat="42.1718" lon="22.21401">
        <ele>563.383741</ele>
        <time>2022-04-10T08:59:51.027Z</time>
      </trkpt>
      <trkpt lat="42.17189" lon="22.21391">
        <ele>563.413258</ele>
        <time>2022-04-10T08:59:53.039Z</time>
      </trkpt>
      <trkpt lat="42.17198" lon="22.21384">
        <ele>563.440128</ele>
        <time>2022-04-10T08:59:55.035Z</time>
      </trkpt>
      <trkpt lat="42.17205" lon="22.21377">
        <ele>563.464173</ele>
        <time>2022-04-10T08:59:57.034Z</time>
      </trkpt>
      <trkpt lat="42.17215" lon="22.21367">
        <ele>563.496497</ele>
        <time>2022-04-10T09:00:00.031Z</time>
      </trkpt>
      <trkpt lat="42.17225" lon="22.21355">
        <ele>563.521299</ele>
        <time>2022-04-10T09:00:03.036Z</time>
      </trkpt>
      <trkpt lat="42.17232" lon="22.21346">
        <ele>563.457298</ele>
        <time>2022-04-10T09:00:05.051Z</time>
      </trkpt>
      <trkpt lat="42.1724" lon="22.21334">
        <ele>563.373954</ele>
        <time>2022-04-10T09:00:08.038Z</time>
      </trkpt>
      <trkpt lat="42.17244" lon="22.21322">
        <ele>563.310936</ele>
        <time>2022-04-10T09:00:10.048Z</time>
      </trkpt>
      <trkpt lat="42.17246" lon="22.21308">
        <ele>563.240965</ele>
        <time>2022-04-10T09:00:12.048Z</time>
      </trkpt>
      <trkpt lat="42.17247" lon="22.21293">
        <ele>563.164789</ele>
        <time>2022-04-10T09:00:14.017Z</time>
      </trkpt>
      <trkpt lat="42.17247" lon="22.21279">
        <ele>563.091874</ele>
        <time>2022-04-10T09:00:16.030Z</time>
      </trkpt>
      <trkpt lat="42.17246" lon="22.21266">
        <ele>563.028361</ele>
        <time>2022-04-10T09:00:18.029Z</time>
      </trkpt>
      <trkpt lat="42.17246" lon="22.21249">
        <ele>562.941837</ele>
        <time>2022-04-10T09:00:21.044Z</time>
      </trkpt>
      <trkpt lat="42.17246" lon="22.21231">
        <ele>562.852353</ele>
        <time>2022-04-10T09:00:24.042Z</time>
      </trkpt>
      <trkpt lat="42.17245" lon="22.21213">
        <ele>562.76217</ele>
        <time>2022-04-10T09:00:27.053Z</time>
      </trkpt>
      <trkpt lat="42.17244" lon="22.21199">
        <ele>562.688378</ele>
        <time>2022-04-10T09:00:29.053Z</time>
      </trkpt>
      <trkpt lat="42.17242" lon="22.21185">
        <ele>562.615082</ele>
        <time>2022-04-10T09:00:31.038Z</time>
      </trkpt>
      <trkpt lat="42.17239" lon="22.21171">
        <ele>562.543756</ele>
        <time>2022-04-10T09:00:33.038Z</time>
      </trkpt>
      <trkpt lat="42.17235" lon="22.21158">
        <ele>562.474855</ele>
        <time>2022-04-10T09:00:35.033Z</time>
      </trkpt>
      <trkpt lat="42.1723" lon="22.21145">
        <ele>562.399591</ele>
        <time>2022-04-10T09:00:37.035Z</time>
      </trkpt>
      <trkpt lat="42.17226" lon="22.21131">
        <ele>562.324538</ele>
        <time>2022-04-10T09:00:39.036Z</time>
      </trkpt>
      <trkpt lat="42.1722" lon="22.21118">
        <ele>562.138949</ele>
        <time>2022-04-10T09:00:41.079Z</time>
      </trkpt>
      <trkpt lat="42.17214" lon="22.21104">
        <ele>561.925142</ele>
        <time>2022-04-10T09:00:43.092Z</time>
      </trkpt>
      <trkpt lat="42.17208" lon="22.21088">
        <ele>561.69558</ele>
        <time>2022-04-10T09:00:45.055Z</time>
      </trkpt>
      <trkpt lat="42.17204" lon="22.21071">
        <ele>561.457936</ele>
        <time>2022-04-10T09:00:47.039Z</time>
      </trkpt>
      <trkpt lat="42.17202" lon="22.21055">
        <ele>561.241024</ele>
        <time>2022-04-10T09:00:49.032Z</time>
      </trkpt>
      <trkpt lat="42.17202" lon="22.21039">
        <ele>561.02522</ele>
        <time>2022-04-10T09:00:51.036Z</time>
      </trkpt>
      <trkpt lat="42.17203" lon="22.21024">
        <ele>560.819185</ele>
        <time>2022-04-10T09:00:53.040Z</time>
      </trkpt>
      <trkpt lat="42.17205" lon="22.21009">
        <ele>560.615218</ele>
        <time>2022-04-10T09:00:55.053Z</time>
      </trkpt>
      <trkpt lat="42.17208" lon="22.20995">
        <ele>560.424323</ele>
        <time>2022-04-10T09:00:57.028Z</time>
      </trkpt>
      <trkpt lat="42.17211" lon="22.20981">
        <ele>560.232328</ele>
        <time>2022-04-10T09:00:59.048Z</time>
      </trkpt>
      <trkpt lat="42.17213" lon="22.20967">
        <ele>560.030686</ele>
        <time>2022-04-10T09:01:01.034Z</time>
      </trkpt>
      <trkpt lat="42.17215" lon="22.20952">
        <ele>559.832305</ele>
        <time>2022-04-10T09:01:03.034Z</time>
      </trkpt>
      <trkpt lat="42.17217" lon="22.20937">
        <ele>559.62437</ele>
        <time>2022-04-10T09:01:05.053Z</time>
      </trkpt>
      <trkpt lat="42.17219" lon="22.20921">
        <ele>559.413029</ele>
        <time>2022-04-10T09:01:07.037Z</time>
      </trkpt>
      <trkpt lat="42.17221" lon="22.20906">
        <ele>559.199509</ele>
        <time>2022-04-10T09:01:09.024Z</time>
      </trkpt>
      <trkpt lat="42.17223" lon="22.20891">
        <ele>558.996992</ele>
        <time>2022-04-10T09:01:11.030Z</time>
      </trkpt>
      <trkpt lat="42.17225" lon="22.20878">
        <ele>558.769632</ele>
        <time>2022-04-10T09:01:13.038Z</time>
      </trkpt>
      <trkpt lat="42.17227" lon="22.20864">
        <ele>558.544325</ele>
        <time>2022-04-10T09:01:15.080Z</time>
      </trkpt>
      <trkpt lat="42.17229" lon="22.2085">
        <ele>558.311392</ele>
        <time>2022-04-10T09:01:17.033Z</time>
      </trkpt>
      <trkpt lat="42.17229" lon="22.20835">
        <ele>558.076447</ele>
        <time>2022-04-10T09:01:19.028Z</time>
      </trkpt>
      <trkpt lat="42.17229" lon="22.20821">
        <ele>557.836891</ele>
        <time>2022-04-10T09:01:21.034Z</time>
      </trkpt>
      <trkpt lat="42.17229" lon="22.20805">
        <ele>557.592478</ele>
        <time>2022-04-10T09:01:23.026Z</time>
      </trkpt>
      <trkpt lat="42.17229" lon="22.20791">
        <ele>557.357787</ele>
        <time>2022-04-10T09:01:25.043Z</time>
      </trkpt>
      <trkpt lat="42.17229" lon="22.20776">
        <ele>557.111679</ele>
        <time>2022-04-10T09:01:27.048Z</time>
      </trkpt>
      <trkpt lat="42.17229" lon="22.20759">
        <ele>556.84771</ele>
        <time>2022-04-10T09:01:29.053Z</time>
      </trkpt>
      <trkpt lat="42.1723" lon="22.20743">
        <ele>556.584767</ele>
        <time>2022-04-10T09:01:31.024Z</time>
      </trkpt>
      <trkpt lat="42.17231" lon="22.20727">
        <ele>556.328802</ele>
        <time>2022-04-10T09:01:33.075Z</time>
      </trkpt>
      <trkpt lat="42.17231" lon="22.20711">
        <ele>556.064968</ele>
        <time>2022-04-10T09:01:35.038Z</time>
      </trkpt>
      <trkpt lat="42.1723" lon="22.20696">
        <ele>555.812464</ele>
        <time>2022-04-10T09:01:37.039Z</time>
      </trkpt>
      <trkpt lat="42.17231" lon="22.2068">
        <ele>555.554965</ele>
        <time>2022-04-10T09:01:39.043Z</time>
      </trkpt>
      <trkpt lat="42.17231" lon="22.20664">
        <ele>555.300841</ele>
        <time>2022-04-10T09:01:41.043Z</time>
      </trkpt>
      <trkpt lat="42.17231" lon="22.20648">
        <ele>555.025407</ele>
        <time>2022-04-10T09:01:43.030Z</time>
      </trkpt>
      <trkpt lat="42.17231" lon="22.20634">
        <ele>554.732285</ele>
        <time>2022-04-10T09:01:45.038Z</time>
      </trkpt>
      <trkpt lat="42.17231" lon="22.20619">
        <ele>554.4395</ele>
        <time>2022-04-10T09:01:47.047Z</time>
      </trkpt>
      <trkpt lat="42.17231" lon="22.20604">
        <ele>554.138701</ele>
        <time>2022-04-10T09:01:49.038Z</time>
      </trkpt>
      <trkpt lat="42.17232" lon="22.2059">
        <ele>553.849987</ele>
        <time>2022-04-10T09:01:51.036Z</time>
      </trkpt>
      <trkpt lat="42.17231" lon="22.20575">
        <ele>553.565128</ele>
        <time>2022-04-10T09:01:53.073Z</time>
      </trkpt>
      <trkpt lat="42.17231" lon="22.20562">
        <ele>553.296457</ele>
        <time>2022-04-10T09:01:55.072Z</time>
      </trkpt>
      <trkpt lat="42.17231" lon="22.20549">
        <ele>553.043819</ele>
        <time>2022-04-10T09:01:57.047Z</time>
      </trkpt>
      <trkpt lat="42.17232" lon="22.20537">
        <ele>552.792879</ele>
        <time>2022-04-10T09:01:59.037Z</time>
      </trkpt>
      <trkpt lat="42.17232" lon="22.2052">
        <ele>552.456106</ele>
        <time>2022-04-10T09:02:02.041Z</time>
      </trkpt>
      <trkpt lat="42.17233" lon="22.20505">
        <ele>552.14444</ele>
        <time>2022-04-10T09:02:05.040Z</time>
      </trkpt>
      <trkpt lat="42.17233" lon="22.20487">
        <ele>551.799479</ele>
        <time>2022-04-10T09:02:08.041Z</time>
      </trkpt>
      <trkpt lat="42.17232" lon="22.20474">
        <ele>551.530196</ele>
        <time>2022-04-10T09:02:10.039Z</time>
      </trkpt>
      <trkpt lat="42.17232" lon="22.2046">
        <ele>551.249343</ele>
        <time>2022-04-10T09:02:12.020Z</time>
      </trkpt>
      <trkpt lat="42.17231" lon="22.20447">
        <ele>550.978772</ele>
        <time>2022-04-10T09:02:14.040Z</time>
      </trkpt>
      <trkpt lat="42.17229" lon="22.20433">
        <ele>550.711839</ele>
        <time>2022-04-10T09:02:16.049Z</time>
      </trkpt>
      <trkpt lat="42.17228" lon="22.20421">
        <ele>550.455521</ele>
        <time>2022-04-10T09:02:18.030Z</time>
      </trkpt>
      <trkpt lat="42.17227" lon="22.20407">
        <ele>550.257915</ele>
        <time>2022-04-10T09:02:20.047Z</time>
      </trkpt>
      <trkpt lat="42.17224" lon="22.20393">
        <ele>550.240805</ele>
        <time>2022-04-10T09:02:22.037Z</time>
      </trkpt>
      <trkpt lat="42.17222" lon="22.20378">
        <ele>550.22404</ele>
        <time>2022-04-10T09:02:24.028Z</time>
      </trkpt>
      <trkpt lat="42.17219" lon="22.20365">
        <ele>550.207556</ele>
        <time>2022-04-10T09:02:26.035Z</time>
      </trkpt>
      <trkpt lat="42.17215" lon="22.20352">
        <ele>550.191649</ele>
        <time>2022-04-10T09:02:28.030Z</time>
      </trkpt>
      <trkpt lat="42.17212" lon="22.20339">
        <ele>550.176608</ele>
        <time>2022-04-10T09:02:30.044Z</time>
      </trkpt>
      <trkpt lat="42.17209" lon="22.20327">
        <ele>550.161241</ele>
        <time>2022-04-10T09:02:32.044Z</time>
      </trkpt>
      <trkpt lat="42.17205" lon="22.20314">
        <ele>550.14539</ele>
        <time>2022-04-10T09:02:34.024Z</time>
      </trkpt>
      <trkpt lat="42.17202" lon="22.20302">
        <ele>550.130508</ele>
        <time>2022-04-10T09:02:36.050Z</time>
      </trkpt>
      <trkpt lat="42.17199" lon="22.20289">
        <ele>550.115299</ele>
        <time>2022-04-10T09:02:38.052Z</time>
      </trkpt>
      <trkpt lat="42.17196" lon="22.20278">
        <ele>550.100904</ele>
        <time>2022-04-10T09:02:40.153Z</time>
      </trkpt>
      <trkpt lat="42.17193" lon="22.20265">
        <ele>550.085881</ele>
        <time>2022-04-10T09:02:42.028Z</time>
      </trkpt>
      <trkpt lat="42.17191" lon="22.20252">
        <ele>550.070866</ele>
        <time>2022-04-10T09:02:44.031Z</time>
      </trkpt>
      <trkpt lat="42.1719" lon="22.2024">
        <ele>550.055844</ele>
        <time>2022-04-10T09:02:46.034Z</time>
      </trkpt>
      <trkpt lat="42.17188" lon="22.20227">
        <ele>550.040638</ele>
        <time>2022-04-10T09:02:48.070Z</time>
      </trkpt>
      <trkpt lat="42.17187" lon="22.20213">
        <ele>550.025443</ele>
        <time>2022-04-10T09:02:50.116Z</time>
      </trkpt>
      <trkpt lat="42.17187" lon="22.202">
        <ele>550.010084</ele>
        <time>2022-04-10T09:02:52.025Z</time>
      </trkpt>
      <trkpt lat="42.17187" lon="22.20186">
        <ele>549.994148</ele>
        <time>2022-04-10T09:02:54.042Z</time>
      </trkpt>
      <trkpt lat="42.17189" lon="22.20173">
        <ele>549.992471</ele>
        <time>2022-04-10T09:02:56.056Z</time>
      </trkpt>
      <trkpt lat="42.17191" lon="22.20161">
        <ele>550.034694</ele>
        <time>2022-04-10T09:02:58.047Z</time>
      </trkpt>
      <trkpt lat="42.17195" lon="22.20148">
        <ele>550.077159</ele>
        <time>2022-04-10T09:03:00.058Z</time>
      </trkpt>
      <trkpt lat="42.17199" lon="22.20136">
        <ele>550.119523</ele>
        <time>2022-04-10T09:03:02.085Z</time>
      </trkpt>
      <trkpt lat="42.17203" lon="22.20124">
        <ele>550.160725</ele>
        <time>2022-04-10T09:03:04.055Z</time>
      </trkpt>
      <trkpt lat="42.17206" lon="22.20112">
        <ele>550.201881</ele>
        <time>2022-04-10T09:03:06.047Z</time>
      </trkpt>
      <trkpt lat="42.17211" lon="22.20099">
        <ele>550.245415</ele>
        <time>2022-04-10T09:03:08.133Z</time>
      </trkpt>
      <trkpt lat="42.17215" lon="22.20087">
        <ele>550.289995</ele>
        <time>2022-04-10T09:03:10.038Z</time>
      </trkpt>
      <trkpt lat="42.1722" lon="22.20075">
        <ele>550.333534</ele>
        <time>2022-04-10T09:03:12.029Z</time>
      </trkpt>
      <trkpt lat="42.17224" lon="22.20062">
        <ele>550.377172</ele>
        <time>2022-04-10T09:03:14.033Z</time>
      </trkpt>
      <trkpt lat="42.17228" lon="22.20049">
        <ele>550.421452</ele>
        <time>2022-04-10T09:03:16.039Z</time>
      </trkpt>
      <trkpt lat="42.17232" lon="22.20036">
        <ele>550.466002</ele>
        <time>2022-04-10T09:03:18.043Z</time>
      </trkpt>
      <trkpt lat="42.17235" lon="22.20022">
        <ele>550.511504</ele>
        <time>2022-04-10T09:03:20.058Z</time>
      </trkpt>
      <trkpt lat="42.17237" lon="22.20008">
        <ele>550.558459</ele>
        <time>2022-04-10T09:03:22.038Z</time>
      </trkpt>
      <trkpt lat="42.17239" lon="22.19993">
        <ele>550.606263</ele>
        <time>2022-04-10T09:03:24.085Z</time>
      </trkpt>
      <trkpt lat="42.17241" lon="22.19978">
        <ele>550.654138</ele>
        <time>2022-04-10T09:03:26.031Z</time>
      </trkpt>
      <trkpt lat="42.17242" lon="22.19963">
        <ele>550.703261</ele>
        <time>2022-04-10T09:03:28.047Z</time>
      </trkpt>
      <trkpt lat="42.17245" lon="22.19947">
        <ele>550.749235</ele>
        <time>2022-04-10T09:03:30.082Z</time>
      </trkpt>
      <trkpt lat="42.17247" lon="22.19931">
        <ele>550.687533</ele>
        <time>2022-04-10T09:03:32.035Z</time>
      </trkpt>
      <trkpt lat="42.17249" lon="22.19915">
        <ele>550.62546</ele>
        <time>2022-04-10T09:03:34.023Z</time>
      </trkpt>
      <trkpt lat="42.17251" lon="22.19899">
        <ele>550.565497</ele>
        <time>2022-04-10T09:03:36.022Z</time>
      </trkpt>
      <trkpt lat="42.17253" lon="22.19883">
        <ele>550.504998</ele>
        <time>2022-04-10T09:03:38.047Z</time>
      </trkpt>
      <trkpt lat="42.17255" lon="22.19867">
        <ele>550.44301</ele>
        <time>2022-04-10T09:03:40.035Z</time>
      </trkpt>
      <trkpt lat="42.17257" lon="22.19851">
        <ele>550.38159</ele>
        <time>2022-04-10T09:03:42.041Z</time>
      </trkpt>
      <trkpt lat="42.17259" lon="22.19836">
        <ele>550.322896</ele>
        <time>2022-04-10T09:03:44.043Z</time>
      </trkpt>
      <trkpt lat="42.17261" lon="22.1982">
        <ele>550.262853</ele>
        <time>2022-04-10T09:03:46.034Z</time>
      </trkpt>
      <trkpt lat="42.17263" lon="22.19804">
        <ele>550.200225</ele>
        <time>2022-04-10T09:03:48.029Z</time>
      </trkpt>
      <trkpt lat="42.17265" lon="22.19788">
        <ele>550.13861</ele>
        <time>2022-04-10T09:03:50.084Z</time>
      </trkpt>
      <trkpt lat="42.17267" lon="22.19771">
        <ele>550.075333</ele>
        <time>2022-04-10T09:03:52.056Z</time>
      </trkpt>
      <trkpt lat="42.17269" lon="22.19755">
        <ele>550.014834</ele>
        <time>2022-04-10T09:03:54.045Z</time>
      </trkpt>
      <trkpt lat="42.17271" lon="22.1974">
        <ele>549.95628</ele>
        <time>2022-04-10T09:03:56.049Z</time>
      </trkpt>
      <trkpt lat="42.17273" lon="22.19726">
        <ele>549.901354</ele>
        <time>2022-04-10T09:03:58.050Z</time>
      </trkpt>
      <trkpt lat="42.17275" lon="22.19712">
        <ele>549.847659</ele>
        <time>2022-04-10T09:04:00.040Z</time>
      </trkpt>
      <trkpt lat="42.17275" lon="22.19698">
        <ele>549.692372</ele>
        <time>2022-04-10T09:04:02.077Z</time>
      </trkpt>
      <trkpt lat="42.17275" lon="22.19684">
        <ele>549.508528</ele>
        <time>2022-04-10T09:04:04.040Z</time>
      </trkpt>
      <trkpt lat="42.17274" lon="22.1967">
        <ele>549.324019</ele>
        <time>2022-04-10T09:04:06.076Z</time>
      </trkpt>
      <trkpt lat="42.17273" lon="22.19656">
        <ele>549.134345</ele>
        <time>2022-04-10T09:04:08.042Z</time>
      </trkpt>
      <trkpt lat="42.17271" lon="22.19642">
        <ele>548.946135</ele>
        <time>2022-04-10T09:04:10.025Z</time>
      </trkpt>
      <trkpt lat="42.17269" lon="22.19628">
        <ele>548.762431</ele>
        <time>2022-04-10T09:04:12.034Z</time>
      </trkpt>
      <trkpt lat="42.17266" lon="22.19614">
        <ele>548.57497</ele>
        <time>2022-04-10T09:04:14.044Z</time>
      </trkpt>
      <trkpt lat="42.17262" lon="22.19601">
        <ele>548.386489</ele>
        <time>2022-04-10T09:04:16.022Z</time>
      </trkpt>
      <trkpt lat="42.17259" lon="22.19589">
        <ele>548.214107</ele>
        <time>2022-04-10T09:04:18.050Z</time>
      </trkpt>
      <trkpt lat="42.17256" lon="22.19577">
        <ele>548.044129</ele>
        <time>2022-04-10T09:04:20.043Z</time>
      </trkpt>
      <trkpt lat="42.17252" lon="22.19563">
        <ele>547.858102</ele>
        <time>2022-04-10T09:04:22.030Z</time>
      </trkpt>
      <trkpt lat="42.17249" lon="22.1955">
        <ele>547.665887</ele>
        <time>2022-04-10T09:04:24.041Z</time>
      </trkpt>
      <trkpt lat="42.17245" lon="22.19536">
        <ele>547.476162</ele>
        <time>2022-04-10T09:04:26.044Z</time>
      </trkpt>
      <trkpt lat="42.17242" lon="22.19523">
        <ele>547.291945</ele>
        <time>2022-04-10T09:04:28.041Z</time>
      </trkpt>
      <trkpt lat="42.17239" lon="22.19511">
        <ele>547.124544</ele>
        <time>2022-04-10T09:04:30.067Z</time>
      </trkpt>
      <trkpt lat="42.17235" lon="22.19499">
        <ele>546.950238</ele>
        <time>2022-04-10T09:04:32.037Z</time>
      </trkpt>
      <trkpt lat="42.17232" lon="22.19485">
        <ele>546.764068</ele>
        <time>2022-04-10T09:04:34.035Z</time>
      </trkpt>
      <trkpt lat="42.17229" lon="22.19472">
        <ele>546.573069</ele>
        <time>2022-04-10T09:04:36.034Z</time>
      </trkpt>
      <trkpt lat="42.17226" lon="22.19458">
        <ele>546.363825</ele>
        <time>2022-04-10T09:04:38.031Z</time>
      </trkpt>
      <trkpt lat="42.17222" lon="22.19444">
        <ele>546.148109</ele>
        <time>2022-04-10T09:04:40.043Z</time>
      </trkpt>
      <trkpt lat="42.17219" lon="22.19429">
        <ele>545.929041</ele>
        <time>2022-04-10T09:04:42.029Z</time>
      </trkpt>
      <trkpt lat="42.17216" lon="22.19415">
        <ele>545.720011</ele>
        <time>2022-04-10T09:04:44.028Z</time>
      </trkpt>
      <trkpt lat="42.17214" lon="22.19402">
        <ele>545.523234</ele>
        <time>2022-04-10T09:04:46.046Z</time>
      </trkpt>
      <trkpt lat="42.17213" lon="22.19388">
        <ele>545.314464</ele>
        <time>2022-04-10T09:04:48.051Z</time>
      </trkpt>
      <trkpt lat="42.17211" lon="22.19373">
        <ele>545.102534</ele>
        <time>2022-04-10T09:04:50.038Z</time>
      </trkpt>
      <trkpt lat="42.17209" lon="22.19358">
        <ele>544.888069</ele>
        <time>2022-04-10T09:04:52.045Z</time>
      </trkpt>
      <trkpt lat="42.17208" lon="22.19343">
        <ele>544.663209</ele>
        <time>2022-04-10T09:04:54.049Z</time>
      </trkpt>
      <trkpt lat="42.17207" lon="22.19328">
        <ele>544.439994</ele>
        <time>2022-04-10T09:04:56.033Z</time>
      </trkpt>
      <trkpt lat="42.17206" lon="22.19312">
        <ele>544.213002</ele>
        <time>2022-04-10T09:04:58.031Z</time>
      </trkpt>
      <trkpt lat="42.17205" lon="22.19296">
        <ele>543.986385</ele>
        <time>2022-04-10T09:05:00.060Z</time>
      </trkpt>
      <trkpt lat="42.17205" lon="22.1928">
        <ele>543.757177</ele>
        <time>2022-04-10T09:05:02.042Z</time>
      </trkpt>
      <trkpt lat="42.17204" lon="22.19264">
        <ele>543.529212</ele>
        <time>2022-04-10T09:05:04.053Z</time>
      </trkpt>
      <trkpt lat="42.17203" lon="22.1925">
        <ele>543.317238</ele>
        <time>2022-04-10T09:05:06.023Z</time>
      </trkpt>
      <trkpt lat="42.17202" lon="22.19236">
        <ele>543.115811</ele>
        <time>2022-04-10T09:05:08.034Z</time>
      </trkpt>
      <trkpt lat="42.17201" lon="22.19221">
        <ele>542.853627</ele>
        <time>2022-04-10T09:05:10.065Z</time>
      </trkpt>
      <trkpt lat="42.172" lon="22.19206">
        <ele>542.591972</ele>
        <time>2022-04-10T09:05:12.033Z</time>
      </trkpt>
      <trkpt lat="42.17199" lon="22.19192">
        <ele>542.345664</ele>
        <time>2022-04-10T09:05:14.038Z</time>
      </trkpt>
      <trkpt lat="42.17198" lon="22.19178">
        <ele>542.104231</ele>
        <time>2022-04-10T09:05:16.033Z</time>
      </trkpt>
      <trkpt lat="42.17197" lon="22.19165">
        <ele>541.88199</ele>
        <time>2022-04-10T09:05:18.042Z</time>
      </trkpt>
      <trkpt lat="42.17196" lon="22.1915">
        <ele>541.624948</ele>
        <time>2022-04-10T09:05:20.043Z</time>
      </trkpt>
      <trkpt lat="42.17195" lon="22.19133">
        <ele>541.329612</ele>
        <time>2022-04-10T09:05:22.065Z</time>
      </trkpt>
      <trkpt lat="42.17194" lon="22.19114">
        <ele>541.012777</ele>
        <time>2022-04-10T09:05:24.051Z</time>
      </trkpt>
      <trkpt lat="42.17192" lon="22.19097">
        <ele>540.706457</ele>
        <time>2022-04-10T09:05:26.043Z</time>
      </trkpt>
      <trkpt lat="42.17191" lon="22.1908">
        <ele>540.416256</ele>
        <time>2022-04-10T09:05:28.086Z</time>
      </trkpt>
      <trkpt lat="42.1719" lon="22.19063">
        <ele>540.133804</ele>
        <time>2022-04-10T09:05:30.062Z</time>
      </trkpt>
      <trkpt lat="42.1719" lon="22.19047">
        <ele>539.85689</ele>
        <time>2022-04-10T09:05:32.058Z</time>
      </trkpt>
      <trkpt lat="42.17189" lon="22.19032">
        <ele>539.590219</ele>
        <time>2022-04-10T09:05:34.035Z</time>
      </trkpt>
      <trkpt lat="42.17189" lon="22.19018">
        <ele>539.344243</ele>
        <time>2022-04-10T09:05:36.045Z</time>
      </trkpt>
      <trkpt lat="42.17188" lon="22.19004">
        <ele>539.105595</ele>
        <time>2022-04-10T09:05:38.035Z</time>
      </trkpt>
      <trkpt lat="42.17187" lon="22.18989">
        <ele>538.889556</ele>
        <time>2022-04-10T09:05:40.041Z</time>
      </trkpt>
      <trkpt lat="42.17186" lon="22.18973">
        <ele>538.709729</ele>
        <time>2022-04-10T09:05:42.104Z</time>
      </trkpt>
      <trkpt lat="42.17184" lon="22.18957">
        <ele>538.530855</ele>
        <time>2022-04-10T09:05:44.036Z</time>
      </trkpt>
      <trkpt lat="42.17183" lon="22.1894">
        <ele>538.350735</ele>
        <time>2022-04-10T09:05:46.019Z</time>
      </trkpt>
      <trkpt lat="42.17182" lon="22.18924">
        <ele>538.171861</ele>
        <time>2022-04-10T09:05:48.043Z</time>
      </trkpt>
      <trkpt lat="42.17181" lon="22.18908">
        <ele>537.995671</ele>
        <time>2022-04-10T09:05:50.071Z</time>
      </trkpt>
      <trkpt lat="42.1718" lon="22.18892">
        <ele>537.820672</ele>
        <time>2022-04-10T09:05:52.053Z</time>
      </trkpt>
      <trkpt lat="42.17179" lon="22.18876">
        <ele>537.645353</ele>
        <time>2022-04-10T09:05:54.040Z</time>
      </trkpt>
      <trkpt lat="42.17179" lon="22.1886">
        <ele>537.468067</ele>
        <time>2022-04-10T09:05:56.026Z</time>
      </trkpt>
      <trkpt lat="42.17177" lon="22.18844">
        <ele>537.289595</ele>
        <time>2022-04-10T09:05:58.035Z</time>
      </trkpt>
      <trkpt lat="42.17175" lon="22.18828">
        <ele>537.11092</ele>
        <time>2022-04-10T09:06:00.080Z</time>
      </trkpt>
      <trkpt lat="42.17174" lon="22.18812">
        <ele>536.935326</ele>
        <time>2022-04-10T09:06:02.146Z</time>
      </trkpt>
      <trkpt lat="42.17173" lon="22.18797">
        <ele>536.771749</ele>
        <time>2022-04-10T09:06:04.041Z</time>
      </trkpt>
      <trkpt lat="42.17172" lon="22.18783">
        <ele>536.608914</ele>
        <time>2022-04-10T09:06:06.034Z</time>
      </trkpt>
      <trkpt lat="42.1717" lon="22.18768">
        <ele>536.448614</ele>
        <time>2022-04-10T09:06:08.045Z</time>
      </trkpt>
      <trkpt lat="42.1717" lon="22.18753">
        <ele>536.286184</ele>
        <time>2022-04-10T09:06:10.026Z</time>
      </trkpt>
      <trkpt lat="42.17169" lon="22.18737">
        <ele>536.231815</ele>
        <time>2022-04-10T09:06:12.032Z</time>
      </trkpt>
      <trkpt lat="42.17169" lon="22.18721">
        <ele>536.17715</ele>
        <time>2022-04-10T09:06:14.042Z</time>
      </trkpt>
      <trkpt lat="42.17169" lon="22.18704">
        <ele>536.121096</ele>
        <time>2022-04-10T09:06:16.047Z</time>
      </trkpt>
      <trkpt lat="42.17168" lon="22.18688">
        <ele>536.067257</ele>
        <time>2022-04-10T09:06:18.041Z</time>
      </trkpt>
      <trkpt lat="42.17166" lon="22.18673">
        <ele>536.015012</ele>
        <time>2022-04-10T09:06:20.045Z</time>
      </trkpt>
      <trkpt lat="42.17165" lon="22.18657">
        <ele>535.962812</ele>
        <time>2022-04-10T09:06:22.048Z</time>
      </trkpt>
      <trkpt lat="42.17164" lon="22.18642">
        <ele>535.911188</ele>
        <time>2022-04-10T09:06:24.041Z</time>
      </trkpt>
      <trkpt lat="42.17163" lon="22.18628">
        <ele>535.861961</ele>
        <time>2022-04-10T09:06:26.032Z</time>
      </trkpt>
      <trkpt lat="42.17161" lon="22.18614">
        <ele>535.814235</ele>
        <time>2022-04-10T09:06:28.030Z</time>
      </trkpt>
      <trkpt lat="42.1716" lon="22.18599">
        <ele>535.765625</ele>
        <time>2022-04-10T09:06:30.037Z</time>
      </trkpt>
      <trkpt lat="42.17159" lon="22.18584">
        <ele>535.715222</ele>
        <time>2022-04-10T09:06:32.042Z</time>
      </trkpt>
      <trkpt lat="42.17158" lon="22.1857">
        <ele>535.665551</ele>
        <time>2022-04-10T09:06:34.039Z</time>
      </trkpt>
      <trkpt lat="42.17156" lon="22.18555">
        <ele>535.613752</ele>
        <time>2022-04-10T09:06:36.033Z</time>
      </trkpt>
      <trkpt lat="42.17155" lon="22.18538">
        <ele>535.556177</ele>
        <time>2022-04-10T09:06:38.046Z</time>
      </trkpt>
      <trkpt lat="42.17154" lon="22.1852">
        <ele>535.49763</ele>
        <time>2022-04-10T09:06:40.027Z</time>
      </trkpt>
      <trkpt lat="42.17153" lon="22.18503">
        <ele>535.397242</ele>
        <time>2022-04-10T09:06:42.068Z</time>
      </trkpt>
      <trkpt lat="42.17153" lon="22.18486">
        <ele>535.257292</ele>
        <time>2022-04-10T09:06:44.055Z</time>
      </trkpt>
      <trkpt lat="42.17152" lon="22.18469">
        <ele>535.123559</ele>
        <time>2022-04-10T09:06:46.028Z</time>
      </trkpt>
      <trkpt lat="42.17151" lon="22.18453">
        <ele>534.991496</ele>
        <time>2022-04-10T09:06:48.039Z</time>
      </trkpt>
      <trkpt lat="42.17151" lon="22.18437">
        <ele>534.863378</ele>
        <time>2022-04-10T09:06:50.056Z</time>
      </trkpt>
      <trkpt lat="42.1715" lon="22.18421">
        <ele>534.737797</ele>
        <time>2022-04-10T09:06:52.037Z</time>
      </trkpt>
      <trkpt lat="42.17149" lon="22.18406">
        <ele>534.613689</ele>
        <time>2022-04-10T09:06:54.038Z</time>
      </trkpt>
      <trkpt lat="42.17149" lon="22.18391">
        <ele>534.493056</ele>
        <time>2022-04-10T09:06:56.042Z</time>
      </trkpt>
      <trkpt lat="42.17148" lon="22.18375">
        <ele>534.369478</ele>
        <time>2022-04-10T09:06:58.057Z</time>
      </trkpt>
      <trkpt lat="42.17147" lon="22.1836">
        <ele>534.243094</ele>
        <time>2022-04-10T09:07:00.044Z</time>
      </trkpt>
      <trkpt lat="42.17146" lon="22.18344">
        <ele>534.118905</ele>
        <time>2022-04-10T09:07:02.041Z</time>
      </trkpt>
      <trkpt lat="42.17145" lon="22.18329">
        <ele>533.997829</ele>
        <time>2022-04-10T09:07:04.041Z</time>
      </trkpt>
      <trkpt lat="42.17144" lon="22.18314">
        <ele>533.874692</ele>
        <time>2022-04-10T09:07:06.026Z</time>
      </trkpt>
      <trkpt lat="42.17143" lon="22.18299">
        <ele>533.749613</ele>
        <time>2022-04-10T09:07:08.054Z</time>
      </trkpt>
      <trkpt lat="42.17142" lon="22.18283">
        <ele>533.627026</ele>
        <time>2022-04-10T09:07:10.081Z</time>
      </trkpt>
      <trkpt lat="42.17141" lon="22.18269">
        <ele>533.504741</ele>
        <time>2022-04-10T09:07:12.040Z</time>
      </trkpt>
      <trkpt lat="42.17141" lon="22.18253">
        <ele>533.359301</ele>
        <time>2022-04-10T09:07:14.036Z</time>
      </trkpt>
      <trkpt lat="42.1714" lon="22.18238">
        <ele>533.216631</ele>
        <time>2022-04-10T09:07:16.074Z</time>
      </trkpt>
      <trkpt lat="42.17139" lon="22.18223">
        <ele>533.073667</ele>
        <time>2022-04-10T09:07:18.037Z</time>
      </trkpt>
      <trkpt lat="42.17138" lon="22.18208">
        <ele>532.928813</ele>
        <time>2022-04-10T09:07:20.018Z</time>
      </trkpt>
      <trkpt lat="42.17137" lon="22.18193">
        <ele>532.783958</ele>
        <time>2022-04-10T09:07:22.028Z</time>
      </trkpt>
      <trkpt lat="42.17136" lon="22.18178">
        <ele>532.639211</ele>
        <time>2022-04-10T09:07:24.063Z</time>
      </trkpt>
      <trkpt lat="42.17135" lon="22.18162">
        <ele>532.493293</ele>
        <time>2022-04-10T09:07:26.051Z</time>
      </trkpt>
      <trkpt lat="42.17134" lon="22.18147">
        <ele>532.351483</ele>
        <time>2022-04-10T09:07:28.049Z</time>
      </trkpt>
      <trkpt lat="42.17133" lon="22.18132">
        <ele>532.205022</ele>
        <time>2022-04-10T09:07:30.041Z</time>
      </trkpt>
      <trkpt lat="42.17132" lon="22.18117">
        <ele>532.057436</ele>
        <time>2022-04-10T09:07:32.045Z</time>
      </trkpt>
      <trkpt lat="42.17131" lon="22.18101">
        <ele>531.910573</ele>
        <time>2022-04-10T09:07:34.045Z</time>
      </trkpt>
      <trkpt lat="42.1713" lon="22.18086">
        <ele>531.762765</ele>
        <time>2022-04-10T09:07:36.054Z</time>
      </trkpt>
      <trkpt lat="42.17129" lon="22.1807">
        <ele>531.615074</ele>
        <time>2022-04-10T09:07:38.033Z</time>
      </trkpt>
      <trkpt lat="42.17128" lon="22.18055">
        <ele>531.470219</ele>
        <time>2022-04-10T09:07:40.037Z</time>
      </trkpt>
      <trkpt lat="42.17127" lon="22.1804">
        <ele>531.323579</ele>
        <time>2022-04-10T09:07:42.048Z</time>
      </trkpt>
      <trkpt lat="42.17126" lon="22.18024">
        <ele>531.190018</ele>
        <time>2022-04-10T09:07:44.081Z</time>
      </trkpt>
      <trkpt lat="42.17126" lon="22.18009">
        <ele>531.093524</ele>
        <time>2022-04-10T09:07:46.040Z</time>
      </trkpt>
      <trkpt lat="42.17125" lon="22.17994">
        <ele>530.997839</ele>
        <time>2022-04-10T09:07:48.047Z</time>
      </trkpt>
      <trkpt lat="42.17124" lon="22.17979">
        <ele>530.903093</ele>
        <time>2022-04-10T09:07:50.085Z</time>
      </trkpt>
      <trkpt lat="42.17123" lon="22.17965">
        <ele>530.810332</ele>
        <time>2022-04-10T09:07:52.059Z</time>
      </trkpt>
      <trkpt lat="42.17122" lon="22.1795">
        <ele>530.717647</ele>
        <time>2022-04-10T09:07:54.046Z</time>
      </trkpt>
      <trkpt lat="42.17121" lon="22.17936">
        <ele>530.623446</ele>
        <time>2022-04-10T09:07:56.048Z</time>
      </trkpt>
      <trkpt lat="42.1712" lon="22.1792">
        <ele>530.52561</ele>
        <time>2022-04-10T09:07:58.035Z</time>
      </trkpt>
      <trkpt lat="42.17119" lon="22.17905">
        <ele>530.428603</ele>
        <time>2022-04-10T09:08:00.046Z</time>
      </trkpt>
      <trkpt lat="42.17118" lon="22.1789">
        <ele>530.330903</ele>
        <time>2022-04-10T09:08:02.026Z</time>
      </trkpt>
      <trkpt lat="42.17117" lon="22.17875">
        <ele>530.233774</ele>
        <time>2022-04-10T09:08:04.056Z</time>
      </trkpt>
      <trkpt lat="42.17117" lon="22.1786">
        <ele>530.141792</ele>
        <time>2022-04-10T09:08:06.035Z</time>
      </trkpt>
      <trkpt lat="42.17116" lon="22.17846">
        <ele>530.050445</ele>
        <time>2022-04-10T09:08:08.044Z</time>
      </trkpt>
      <trkpt lat="42.17115" lon="22.17831">
        <ele>529.954165</ele>
        <time>2022-04-10T09:08:10.041Z</time>
      </trkpt>
      <trkpt lat="42.17115" lon="22.17816">
        <ele>529.858522</ele>
        <time>2022-04-10T09:08:12.027Z</time>
      </trkpt>
      <trkpt lat="42.17114" lon="22.17801">
        <ele>529.763224</ele>
        <time>2022-04-10T09:08:14.055Z</time>
      </trkpt>
      <trkpt lat="42.17113" lon="22.17786">
        <ele>529.667864</ele>
        <time>2022-04-10T09:08:16.047Z</time>
      </trkpt>
      <trkpt lat="42.17112" lon="22.17771">
        <ele>529.548268</ele>
        <time>2022-04-10T09:08:18.079Z</time>
      </trkpt>
      <trkpt lat="42.17111" lon="22.17756">
        <ele>529.42744</ele>
        <time>2022-04-10T09:08:20.047Z</time>
      </trkpt>
      <trkpt lat="42.1711" lon="22.1774">
        <ele>529.304891</ele>
        <time>2022-04-10T09:08:22.041Z</time>
      </trkpt>
      <trkpt lat="42.1711" lon="22.17725">
        <ele>529.184911</ele>
        <time>2022-04-10T09:08:24.048Z</time>
      </trkpt>
      <trkpt lat="42.17109" lon="22.1771">
        <ele>529.063845</ele>
        <time>2022-04-10T09:08:26.057Z</time>
      </trkpt>
      <trkpt lat="42.17107" lon="22.17695">
        <ele>528.944924</ele>
        <time>2022-04-10T09:08:28.017Z</time>
      </trkpt>
      <trkpt lat="42.17106" lon="22.1768">
        <ele>528.826998</ele>
        <time>2022-04-10T09:08:30.046Z</time>
      </trkpt>
      <trkpt lat="42.17106" lon="22.17665">
        <ele>528.708377</ele>
        <time>2022-04-10T09:08:32.049Z</time>
      </trkpt>
      <trkpt lat="42.17104" lon="22.1765">
        <ele>528.591135</ele>
        <time>2022-04-10T09:08:34.024Z</time>
      </trkpt>
      <trkpt lat="42.17104" lon="22.17636">
        <ele>528.478238</ele>
        <time>2022-04-10T09:08:36.038Z</time>
      </trkpt>
      <trkpt lat="42.17103" lon="22.17621">
        <ele>528.36433</ele>
        <time>2022-04-10T09:08:38.034Z</time>
      </trkpt>
      <trkpt lat="42.17102" lon="22.17607">
        <ele>528.248656</ele>
        <time>2022-04-10T09:08:40.080Z</time>
      </trkpt>
      <trkpt lat="42.17101" lon="22.17592">
        <ele>528.131689</ele>
        <time>2022-04-10T09:08:42.040Z</time>
      </trkpt>
      <trkpt lat="42.171" lon="22.17577">
        <ele>528.013763</ele>
        <time>2022-04-10T09:08:44.043Z</time>
      </trkpt>
      <trkpt lat="42.17099" lon="22.17562">
        <ele>527.898976</ele>
        <time>2022-04-10T09:08:46.029Z</time>
      </trkpt>
      <trkpt lat="42.17098" lon="22.17548">
        <ele>527.785227</ele>
        <time>2022-04-10T09:08:48.033Z</time>
      </trkpt>
      <trkpt lat="42.17098" lon="22.17534">
        <ele>527.872873</ele>
        <time>2022-04-10T09:08:50.041Z</time>
      </trkpt>
      <trkpt lat="42.17097" lon="22.17519">
        <ele>528.028569</ele>
        <time>2022-04-10T09:08:52.041Z</time>
      </trkpt>
      <trkpt lat="42.17097" lon="22.17505">
        <ele>528.17793</ele>
        <time>2022-04-10T09:08:54.058Z</time>
      </trkpt>
      <trkpt lat="42.17096" lon="22.17492">
        <ele>528.321027</ele>
        <time>2022-04-10T09:08:56.044Z</time>
      </trkpt>
      <trkpt lat="42.17095" lon="22.17479">
        <ele>528.466169</ele>
        <time>2022-04-10T09:08:58.019Z</time>
      </trkpt>
      <trkpt lat="42.17094" lon="22.17465">
        <ele>528.610469</ele>
        <time>2022-04-10T09:09:00.043Z</time>
      </trkpt>
      <trkpt lat="42.17094" lon="22.17453">
        <ele>528.749259</ele>
        <time>2022-04-10T09:09:02.026Z</time>
      </trkpt>
      <trkpt lat="42.17093" lon="22.17439">
        <ele>528.893559</ele>
        <time>2022-04-10T09:09:04.036Z</time>
      </trkpt>
      <trkpt lat="42.17092" lon="22.17426">
        <ele>529.040301</ele>
        <time>2022-04-10T09:09:06.037Z</time>
      </trkpt>
      <trkpt lat="42.17091" lon="22.17414">
        <ele>529.173589</ele>
        <time>2022-04-10T09:09:08.079Z</time>
      </trkpt>
      <trkpt lat="42.1709" lon="22.17396">
        <ele>529.365631</ele>
        <time>2022-04-10T09:09:11.037Z</time>
      </trkpt>
      <trkpt lat="42.17089" lon="22.17378">
        <ele>529.55615</ele>
        <time>2022-04-10T09:09:14.042Z</time>
      </trkpt>
      <trkpt lat="42.17088" lon="22.17361">
        <ele>529.744355</ele>
        <time>2022-04-10T09:09:17.035Z</time>
      </trkpt>
      <trkpt lat="42.17087" lon="22.17344">
        <ele>529.923488</ele>
        <time>2022-04-10T09:09:20.033Z</time>
      </trkpt>
      <trkpt lat="42.17086" lon="22.17327">
        <ele>530.106923</ele>
        <time>2022-04-10T09:09:23.041Z</time>
      </trkpt>
      <trkpt lat="42.17085" lon="22.17315">
        <ele>530.238317</ele>
        <time>2022-04-10T09:09:25.054Z</time>
      </trkpt>
      <trkpt lat="42.17084" lon="22.17303">
        <ele>530.371502</ele>
        <time>2022-04-10T09:09:27.036Z</time>
      </trkpt>
      <trkpt lat="42.17083" lon="22.17285">
        <ele>530.216867</ele>
        <time>2022-04-10T09:09:30.027Z</time>
      </trkpt>
      <trkpt lat="42.17083" lon="22.17267">
        <ele>530.045761</ele>
        <time>2022-04-10T09:09:33.065Z</time>
      </trkpt>
      <trkpt lat="42.17082" lon="22.17253">
        <ele>529.914257</ele>
        <time>2022-04-10T09:09:35.044Z</time>
      </trkpt>
      <trkpt lat="42.17081" lon="22.1724">
        <ele>529.789582</ele>
        <time>2022-04-10T09:09:37.046Z</time>
      </trkpt>
      <trkpt lat="42.17079" lon="22.17225">
        <ele>529.65344</ele>
        <time>2022-04-10T09:09:39.086Z</time>
      </trkpt>
      <trkpt lat="42.17078" lon="22.17209">
        <ele>529.50248</ele>
        <time>2022-04-10T09:09:41.017Z</time>
      </trkpt>
      <trkpt lat="42.17078" lon="22.17194">
        <ele>529.357421</ele>
        <time>2022-04-10T09:09:43.043Z</time>
      </trkpt>
      <trkpt lat="42.17076" lon="22.17179">
        <ele>529.221788</ele>
        <time>2022-04-10T09:09:45.030Z</time>
      </trkpt>
      <trkpt lat="42.17076" lon="22.17164">
        <ele>529.082196</ele>
        <time>2022-04-10T09:09:47.031Z</time>
      </trkpt>
      <trkpt lat="42.17075" lon="22.17148">
        <ele>528.931326</ele>
        <time>2022-04-10T09:09:49.038Z</time>
      </trkpt>
      <trkpt lat="42.17074" lon="22.17132">
        <ele>528.776724</ele>
        <time>2022-04-10T09:09:51.030Z</time>
      </trkpt>
      <trkpt lat="42.17073" lon="22.17116">
        <ele>528.6278</ele>
        <time>2022-04-10T09:09:53.032Z</time>
      </trkpt>
      <trkpt lat="42.17073" lon="22.171">
        <ele>528.478876</ele>
        <time>2022-04-10T09:09:55.052Z</time>
      </trkpt>
      <trkpt lat="42.17072" lon="22.17084">
        <ele>528.328938</ele>
        <time>2022-04-10T09:09:57.055Z</time>
      </trkpt>
      <trkpt lat="42.17071" lon="22.17068">
        <ele>528.177046</ele>
        <time>2022-04-10T09:09:59.046Z</time>
      </trkpt>
      <trkpt lat="42.1707" lon="22.17052">
        <ele>527.993297</ele>
        <time>2022-04-10T09:10:01.051Z</time>
      </trkpt>
      <trkpt lat="42.17069" lon="22.17036">
        <ele>527.785517</ele>
        <time>2022-04-10T09:10:03.055Z</time>
      </trkpt>
      <trkpt lat="42.17068" lon="22.1702">
        <ele>527.576857</ele>
        <time>2022-04-10T09:10:05.038Z</time>
      </trkpt>
      <trkpt lat="42.17067" lon="22.17005">
        <ele>527.375799</ele>
        <time>2022-04-10T09:10:07.040Z</time>
      </trkpt>
      <trkpt lat="42.17067" lon="22.1699">
        <ele>527.17393</ele>
        <time>2022-04-10T09:10:09.046Z</time>
      </trkpt>
      <trkpt lat="42.17066" lon="22.16973">
        <ele>526.95782</ele>
        <time>2022-04-10T09:10:11.060Z</time>
      </trkpt>
      <trkpt lat="42.17066" lon="22.16957">
        <ele>526.73875</ele>
        <time>2022-04-10T09:10:13.033Z</time>
      </trkpt>
      <trkpt lat="42.17065" lon="22.16941">
        <ele>526.52387</ele>
        <time>2022-04-10T09:10:15.046Z</time>
      </trkpt>
      <trkpt lat="42.17065" lon="22.16927">
        <ele>526.342037</ele>
        <time>2022-04-10T09:10:17.042Z</time>
      </trkpt>
      <trkpt lat="42.17064" lon="22.16913">
        <ele>526.16476</ele>
        <time>2022-04-10T09:10:19.074Z</time>
      </trkpt>
      <trkpt lat="42.17063" lon="22.16898">
        <ele>525.956744</ele>
        <time>2022-04-10T09:10:21.029Z</time>
      </trkpt>
      <trkpt lat="42.17062" lon="22.16882">
        <ele>525.751749</ele>
        <time>2022-04-10T09:10:23.039Z</time>
      </trkpt>
      <trkpt lat="42.1706" lon="22.16868">
        <ele>525.558205</ele>
        <time>2022-04-10T09:10:25.036Z</time>
      </trkpt>
      <trkpt lat="42.1706" lon="22.16853">
        <ele>525.363863</ele>
        <time>2022-04-10T09:10:27.020Z</time>
      </trkpt>
      <trkpt lat="42.17059" lon="22.16839">
        <ele>525.175926</ele>
        <time>2022-04-10T09:10:29.041Z</time>
      </trkpt>
      <trkpt lat="42.17058" lon="22.16825">
        <ele>524.991047</ele>
        <time>2022-04-10T09:10:31.078Z</time>
      </trkpt>
      <trkpt lat="42.17057" lon="22.16812">
        <ele>524.882778</ele>
        <time>2022-04-10T09:10:33.041Z</time>
      </trkpt>
      <trkpt lat="42.17056" lon="22.16799">
        <ele>524.833121</ele>
        <time>2022-04-10T09:10:35.035Z</time>
      </trkpt>
      <trkpt lat="42.17055" lon="22.16782">
        <ele>524.76115</ele>
        <time>2022-04-10T09:10:38.042Z</time>
      </trkpt>
      <trkpt lat="42.17055" lon="22.16769">
        <ele>524.70753</ele>
        <time>2022-04-10T09:10:40.049Z</time>
      </trkpt>
      <trkpt lat="42.17054" lon="22.16755">
        <ele>524.653911</ele>
        <time>2022-04-10T09:10:42.082Z</time>
      </trkpt>
      <trkpt lat="42.17054" lon="22.16742">
        <ele>524.600697</ele>
        <time>2022-04-10T09:10:44.041Z</time>
      </trkpt>
      <trkpt lat="42.17053" lon="22.16729">
        <ele>524.546673</ele>
        <time>2022-04-10T09:10:46.051Z</time>
      </trkpt>
      <trkpt lat="42.17052" lon="22.16715">
        <ele>524.489648</ele>
        <time>2022-04-10T09:10:48.034Z</time>
      </trkpt>
      <trkpt lat="42.17051" lon="22.16701">
        <ele>524.433885</ele>
        <time>2022-04-10T09:10:50.051Z</time>
      </trkpt>
      <trkpt lat="42.1705" lon="22.16688">
        <ele>524.37807</ele>
        <time>2022-04-10T09:10:52.050Z</time>
      </trkpt>
      <trkpt lat="42.17049" lon="22.16675">
        <ele>524.325665</ele>
        <time>2022-04-10T09:10:54.018Z</time>
      </trkpt>
      <trkpt lat="42.17049" lon="22.16661">
        <ele>524.268286</ele>
        <time>2022-04-10T09:10:56.040Z</time>
      </trkpt>
      <trkpt lat="42.17048" lon="22.16647">
        <ele>524.211834</ele>
        <time>2022-04-10T09:10:58.024Z</time>
      </trkpt>
      <trkpt lat="42.17047" lon="22.16633">
        <ele>524.156156</ele>
        <time>2022-04-10T09:11:00.044Z</time>
      </trkpt>
      <trkpt lat="42.17046" lon="22.16619">
        <ele>524.098727</ele>
        <time>2022-04-10T09:11:02.040Z</time>
      </trkpt>
      <trkpt lat="42.17045" lon="22.16605">
        <ele>524.042509</ele>
        <time>2022-04-10T09:11:04.068Z</time>
      </trkpt>
      <trkpt lat="42.17044" lon="22.16591">
        <ele>523.986791</ele>
        <time>2022-04-10T09:11:06.044Z</time>
      </trkpt>
      <trkpt lat="42.17044" lon="22.16578">
        <ele>523.932363</ele>
        <time>2022-04-10T09:11:08.035Z</time>
      </trkpt>
      <trkpt lat="42.17043" lon="22.16565">
        <ele>524.049536</ele>
        <time>2022-04-10T09:11:10.043Z</time>
      </trkpt>
      <trkpt lat="42.17043" lon="22.16551">
        <ele>524.184243</ele>
        <time>2022-04-10T09:11:12.041Z</time>
      </trkpt>
      <trkpt lat="42.17042" lon="22.16538">
        <ele>524.31926</ele>
        <time>2022-04-10T09:11:14.049Z</time>
      </trkpt>
      <trkpt lat="42.17042" lon="22.16525">
        <ele>524.453745</ele>
        <time>2022-04-10T09:11:16.040Z</time>
      </trkpt>
      <trkpt lat="42.17041" lon="22.16512">
        <ele>524.585283</ele>
        <time>2022-04-10T09:11:18.058Z</time>
      </trkpt>
      <trkpt lat="42.17041" lon="22.16499">
        <ele>524.715954</ele>
        <time>2022-04-10T09:11:20.069Z</time>
      </trkpt>
      <trkpt lat="42.17039" lon="22.16486">
        <ele>524.848233</ele>
        <time>2022-04-10T09:11:22.034Z</time>
      </trkpt>
      <trkpt lat="42.17038" lon="22.16473">
        <ele>524.983381</ele>
        <time>2022-04-10T09:11:24.048Z</time>
      </trkpt>
      <trkpt lat="42.17038" lon="22.16459">
        <ele>525.121115</ele>
        <time>2022-04-10T09:11:26.090Z</time>
      </trkpt>
      <trkpt lat="42.17037" lon="22.16446">
        <ele>525.25803</ele>
        <time>2022-04-10T09:11:28.049Z</time>
      </trkpt>
      <trkpt lat="42.17036" lon="22.16432">
        <ele>525.39519</ele>
        <time>2022-04-10T09:11:30.079Z</time>
      </trkpt>
      <trkpt lat="42.17035" lon="22.16419">
        <ele>525.524168</ele>
        <time>2022-04-10T09:11:32.027Z</time>
      </trkpt>
      <trkpt lat="42.17035" lon="22.16401">
        <ele>525.706269</ele>
        <time>2022-04-10T09:11:35.002Z</time>
      </trkpt>
      <trkpt lat="42.17034" lon="22.16389">
        <ele>525.832904</ele>
        <time>2022-04-10T09:11:37.055Z</time>
      </trkpt>
      <trkpt lat="42.17033" lon="22.16376">
        <ele>525.968052</ele>
        <time>2022-04-10T09:11:39.009Z</time>
      </trkpt>
      <trkpt lat="42.17032" lon="22.16363">
        <ele>526.098815</ele>
        <time>2022-04-10T09:11:41.045Z</time>
      </trkpt>
      <trkpt lat="42.17032" lon="22.1635">
        <ele>526.225369</ele>
        <time>2022-04-10T09:11:43.029Z</time>
      </trkpt>
      <trkpt lat="42.17031" lon="22.16338">
        <ele>526.353798</ele>
        <time>2022-04-10T09:11:45.029Z</time>
      </trkpt>
      <trkpt lat="42.1703" lon="22.16325">
        <ele>526.316256</ele>
        <time>2022-04-10T09:11:47.045Z</time>
      </trkpt>
      <trkpt lat="42.17029" lon="22.16311">
        <ele>526.231831</ele>
        <time>2022-04-10T09:11:49.032Z</time>
      </trkpt>
      <trkpt lat="42.17028" lon="22.16298">
        <ele>526.144264</ele>
        <time>2022-04-10T09:11:51.017Z</time>
      </trkpt>
      <trkpt lat="42.17027" lon="22.16284">
        <ele>526.057953</ele>
        <time>2022-04-10T09:11:53.034Z</time>
      </trkpt>
      <trkpt lat="42.17026" lon="22.16271">
        <ele>525.973053</ele>
        <time>2022-04-10T09:11:55.011Z</time>
      </trkpt>
      <trkpt lat="42.17025" lon="22.16258">
        <ele>525.891301</ele>
        <time>2022-04-10T09:11:57.026Z</time>
      </trkpt>
      <trkpt lat="42.17025" lon="22.16245">
        <ele>525.812244</ele>
        <time>2022-04-10T09:11:59.070Z</time>
      </trkpt>
      <trkpt lat="42.17024" lon="22.16233">
        <ele>525.733077</ele>
        <time>2022-04-10T09:12:01.046Z</time>
      </trkpt>
      <trkpt lat="42.17024" lon="22.16219">
        <ele>525.649014</ele>
        <time>2022-04-10T09:12:03.033Z</time>
      </trkpt>
      <trkpt lat="42.17023" lon="22.16206">
        <ele>525.566698</ele>
        <time>2022-04-10T09:12:05.037Z</time>
      </trkpt>
      <trkpt lat="42.17022" lon="22.16194">
        <ele>525.489898</ele>
        <time>2022-04-10T09:12:07.047Z</time>
      </trkpt>
      <trkpt lat="42.17022" lon="22.16177">
        <ele>525.378735</ele>
        <time>2022-04-10T09:12:10.060Z</time>
      </trkpt>
      <trkpt lat="42.1702" lon="22.16159">
        <ele>525.267574</ele>
        <time>2022-04-10T09:12:13.034Z</time>
      </trkpt>
      <trkpt lat="42.17019" lon="22.16142">
        <ele>525.156029</ele>
        <time>2022-04-10T09:12:16.035Z</time>
      </trkpt>
      <trkpt lat="42.17018" lon="22.16124">
        <ele>525.045245</ele>
        <time>2022-04-10T09:12:19.052Z</time>
      </trkpt>
      <trkpt lat="42.17017" lon="22.16111">
        <ele>524.964674</ele>
        <time>2022-04-10T09:12:21.029Z</time>
      </trkpt>
      <trkpt lat="42.17017" lon="22.16099">
        <ele>524.884247</ele>
        <time>2022-04-10T09:12:23.049Z</time>
      </trkpt>
      <trkpt lat="42.17016" lon="22.16086">
        <ele>524.804092</ele>
        <time>2022-04-10T09:12:25.024Z</time>
      </trkpt>
      <trkpt lat="42.17015" lon="22.16073">
        <ele>524.725906</ele>
        <time>2022-04-10T09:12:27.058Z</time>
      </trkpt>
      <trkpt lat="42.17014" lon="22.16061">
        <ele>524.651429</ele>
        <time>2022-04-10T09:12:29.036Z</time>
      </trkpt>
      <trkpt lat="42.17013" lon="22.16043">
        <ele>524.542925</ele>
        <time>2022-04-10T09:12:32.094Z</time>
      </trkpt>
      <trkpt lat="42.17012" lon="22.1603">
        <ele>524.465669</ele>
        <time>2022-04-10T09:12:34.041Z</time>
      </trkpt>
      <trkpt lat="42.17011" lon="22.16017">
        <ele>524.385216</ele>
        <time>2022-04-10T09:12:36.039Z</time>
      </trkpt>
      <trkpt lat="42.17011" lon="22.16004">
        <ele>524.303779</ele>
        <time>2022-04-10T09:12:38.073Z</time>
      </trkpt>
      <trkpt lat="42.1701" lon="22.15991">
        <ele>524.225782</ele>
        <time>2022-04-10T09:12:40.051Z</time>
      </trkpt>
      <trkpt lat="42.17009" lon="22.15972">
        <ele>524.111156</ele>
        <time>2022-04-10T09:12:43.050Z</time>
      </trkpt>
      <trkpt lat="42.17008" lon="22.15957">
        <ele>524.020462</ele>
        <time>2022-04-10T09:12:45.014Z</time>
      </trkpt>
      <trkpt lat="42.17007" lon="22.15943">
        <ele>523.935275</ele>
        <time>2022-04-10T09:12:47.042Z</time>
      </trkpt>
      <trkpt lat="42.17006" lon="22.15929">
        <ele>523.846207</ele>
        <time>2022-04-10T09:12:49.033Z</time>
      </trkpt>
      <trkpt lat="42.17005" lon="22.15914">
        <ele>523.756606</ele>
        <time>2022-04-10T09:12:51.043Z</time>
      </trkpt>
      <trkpt lat="42.17004" lon="22.159">
        <ele>523.669957</ele>
        <time>2022-04-10T09:12:53.061Z</time>
      </trkpt>
      <trkpt lat="42.17003" lon="22.15887">
        <ele>523.590643</ele>
        <time>2022-04-10T09:12:55.043Z</time>
      </trkpt>
      <trkpt lat="42.17003" lon="22.15874">
        <ele>523.510724</ele>
        <time>2022-04-10T09:12:57.045Z</time>
      </trkpt>
      <trkpt lat="42.17002" lon="22.1586">
        <ele>523.427437</ele>
        <time>2022-04-10T09:12:59.056Z</time>
      </trkpt>
      <trkpt lat="42.17001" lon="22.15846">
        <ele>523.303916</ele>
        <time>2022-04-10T09:13:01.059Z</time>
      </trkpt>
      <trkpt lat="42.17001" lon="22.15832">
        <ele>523.096476</ele>
        <time>2022-04-10T09:13:03.026Z</time>
      </trkpt>
      <trkpt lat="42.17001" lon="22.15818">
        <ele>522.878904</ele>
        <time>2022-04-10T09:13:05.072Z</time>
      </trkpt>
      <trkpt lat="42.17" lon="22.15802">
        <ele>522.653638</ele>
        <time>2022-04-10T09:13:07.043Z</time>
      </trkpt>
      <trkpt lat="42.16999" lon="22.15787">
        <ele>522.43005</ele>
        <time>2022-04-10T09:13:09.044Z</time>
      </trkpt>
      <trkpt lat="42.16999" lon="22.15772">
        <ele>522.210651</ele>
        <time>2022-04-10T09:13:11.038Z</time>
      </trkpt>
      <trkpt lat="42.16998" lon="22.15758">
        <ele>521.996649</ele>
        <time>2022-04-10T09:13:13.056Z</time>
      </trkpt>
      <trkpt lat="42.16997" lon="22.15743">
        <ele>521.778257</ele>
        <time>2022-04-10T09:13:15.044Z</time>
      </trkpt>
      <trkpt lat="42.16996" lon="22.15729">
        <ele>521.569123</ele>
        <time>2022-04-10T09:13:17.041Z</time>
      </trkpt>
      <trkpt lat="42.16995" lon="22.15714">
        <ele>521.358522</ele>
        <time>2022-04-10T09:13:19.078Z</time>
      </trkpt>
      <trkpt lat="42.16994" lon="22.15701">
        <ele>521.156223</ele>
        <time>2022-04-10T09:13:21.038Z</time>
      </trkpt>
      <trkpt lat="42.16993" lon="22.15686">
        <ele>520.945711</ele>
        <time>2022-04-10T09:13:23.031Z</time>
      </trkpt>
      <trkpt lat="42.16992" lon="22.15672">
        <ele>520.733348</ele>
        <time>2022-04-10T09:13:25.045Z</time>
      </trkpt>
      <trkpt lat="42.16991" lon="22.15657">
        <ele>520.516745</ele>
        <time>2022-04-10T09:13:27.042Z</time>
      </trkpt>
      <trkpt lat="42.1699" lon="22.15643">
        <ele>520.300143</ele>
        <time>2022-04-10T09:13:29.042Z</time>
      </trkpt>
      <trkpt lat="42.1699" lon="22.15628">
        <ele>520.086471</ele>
        <time>2022-04-10T09:13:31.021Z</time>
      </trkpt>
      <trkpt lat="42.16989" lon="22.15614">
        <ele>519.873058</ele>
        <time>2022-04-10T09:13:33.046Z</time>
      </trkpt>
      <trkpt lat="42.16989" lon="22.156">
        <ele>519.675808</ele>
        <time>2022-04-10T09:13:35.030Z</time>
      </trkpt>
      <trkpt lat="42.16988" lon="22.15586">
        <ele>519.484252</ele>
        <time>2022-04-10T09:13:37.038Z</time>
      </trkpt>
      <trkpt lat="42.16987" lon="22.15571">
        <ele>519.287248</ele>
        <time>2022-04-10T09:13:39.050Z</time>
      </trkpt>
      <trkpt lat="42.16986" lon="22.15557">
        <ele>519.092523</ele>
        <time>2022-04-10T09:13:41.074Z</time>
      </trkpt>
      <trkpt lat="42.16985" lon="22.15543">
        <ele>518.895844</ele>
        <time>2022-04-10T09:13:43.042Z</time>
      </trkpt>
      <trkpt lat="42.16983" lon="22.15528">
        <ele>518.700285</ele>
        <time>2022-04-10T09:13:45.034Z</time>
      </trkpt>
      <trkpt lat="42.16983" lon="22.15515">
        <ele>518.512679</ele>
        <time>2022-04-10T09:13:47.038Z</time>
      </trkpt>
      <trkpt lat="42.16982" lon="22.15502">
        <ele>518.336334</ele>
        <time>2022-04-10T09:13:49.044Z</time>
      </trkpt>
      <trkpt lat="42.16982" lon="22.15489">
        <ele>518.162715</ele>
        <time>2022-04-10T09:13:51.043Z</time>
      </trkpt>
      <trkpt lat="42.16981" lon="22.15476">
        <ele>517.98637</ele>
        <time>2022-04-10T09:13:53.087Z</time>
      </trkpt>
      <trkpt lat="42.1698" lon="22.15463">
        <ele>517.810663</ele>
        <time>2022-04-10T09:13:55.034Z</time>
      </trkpt>
      <trkpt lat="42.16979" lon="22.1545">
        <ele>517.63224</ele>
        <time>2022-04-10T09:13:57.056Z</time>
      </trkpt>
      <trkpt lat="42.16978" lon="22.15437">
        <ele>517.449334</ele>
        <time>2022-04-10T09:13:59.070Z</time>
      </trkpt>
      <trkpt lat="42.16977" lon="22.15424">
        <ele>517.268195</ele>
        <time>2022-04-10T09:14:01.031Z</time>
      </trkpt>
      <trkpt lat="42.16977" lon="22.1541">
        <ele>517.081024</ele>
        <time>2022-04-10T09:14:03.063Z</time>
      </trkpt>
      <trkpt lat="42.16976" lon="22.15397">
        <ele>516.895034</ele>
        <time>2022-04-10T09:14:05.046Z</time>
      </trkpt>
      <trkpt lat="42.16975" lon="22.15383">
        <ele>516.713236</ele>
        <time>2022-04-10T09:14:07.050Z</time>
      </trkpt>
      <trkpt lat="42.16975" lon="22.1537">
        <ele>516.528793</ele>
        <time>2022-04-10T09:14:09.047Z</time>
      </trkpt>
      <trkpt lat="42.16974" lon="22.15356">
        <ele>516.438452</ele>
        <time>2022-04-10T09:14:11.051Z</time>
      </trkpt>
      <trkpt lat="42.16974" lon="22.15344">
        <ele>516.373408</ele>
        <time>2022-04-10T09:14:13.038Z</time>
      </trkpt>
      <trkpt lat="42.16973" lon="22.1533">
        <ele>516.302489</ele>
        <time>2022-04-10T09:14:15.014Z</time>
      </trkpt>
      <trkpt lat="42.16972" lon="22.15316">
        <ele>516.230828</ele>
        <time>2022-04-10T09:14:17.048Z</time>
      </trkpt>
      <trkpt lat="42.16971" lon="22.15303">
        <ele>516.160545</ele>
        <time>2022-04-10T09:14:19.038Z</time>
      </trkpt>
      <trkpt lat="42.1697" lon="22.15289">
        <ele>516.091523</ele>
        <time>2022-04-10T09:14:21.063Z</time>
      </trkpt>
      <trkpt lat="42.16969" lon="22.15276">
        <ele>516.021695</ele>
        <time>2022-04-10T09:14:23.035Z</time>
      </trkpt>
      <trkpt lat="42.16969" lon="22.15263">
        <ele>515.9573</ele>
        <time>2022-04-10T09:14:25.077Z</time>
      </trkpt>
      <trkpt lat="42.16968" lon="22.15251">
        <ele>515.892601</ele>
        <time>2022-04-10T09:14:27.082Z</time>
      </trkpt>
      <trkpt lat="42.16967" lon="22.15233">
        <ele>515.8009</ele>
        <time>2022-04-10T09:14:30.037Z</time>
      </trkpt>
      <trkpt lat="42.16965" lon="22.15216">
        <ele>515.710657</ele>
        <time>2022-04-10T09:14:33.043Z</time>
      </trkpt>
      <trkpt lat="42.16963" lon="22.15199">
        <ele>515.620855</ele>
        <time>2022-04-10T09:14:36.021Z</time>
      </trkpt>
      <trkpt lat="42.16962" lon="22.15181">
        <ele>515.528324</ele>
        <time>2022-04-10T09:14:39.047Z</time>
      </trkpt>
      <trkpt lat="42.16962" lon="22.15168">
        <ele>515.463794</ele>
        <time>2022-04-10T09:14:41.021Z</time>
      </trkpt>
      <trkpt lat="42.16961" lon="22.15156">
        <ele>515.400395</ele>
        <time>2022-04-10T09:14:43.052Z</time>
      </trkpt>
      <trkpt lat="42.16961" lon="22.15143">
        <ele>515.333366</ele>
        <time>2022-04-10T09:14:45.034Z</time>
      </trkpt>
      <trkpt lat="42.16961" lon="22.15129">
        <ele>515.263763</ele>
        <time>2022-04-10T09:14:47.120Z</time>
      </trkpt>
      <trkpt lat="42.1696" lon="22.15116">
        <ele>515.249181</ele>
        <time>2022-04-10T09:14:49.062Z</time>
      </trkpt>
      <trkpt lat="42.16959" lon="22.15103">
        <ele>515.255086</ele>
        <time>2022-04-10T09:14:51.036Z</time>
      </trkpt>
      <trkpt lat="42.16958" lon="22.1509">
        <ele>515.260978</ele>
        <time>2022-04-10T09:14:53.037Z</time>
      </trkpt>
      <trkpt lat="42.16957" lon="22.15077">
        <ele>515.266986</ele>
        <time>2022-04-10T09:14:55.038Z</time>
      </trkpt>
      <trkpt lat="42.16957" lon="22.15064">
        <ele>515.273185</ele>
        <time>2022-04-10T09:14:57.045Z</time>
      </trkpt>
      <trkpt lat="42.16956" lon="22.1505">
        <ele>515.279446</ele>
        <time>2022-04-10T09:14:59.072Z</time>
      </trkpt>
      <trkpt lat="42.16955" lon="22.15036">
        <ele>515.285695</ele>
        <time>2022-04-10T09:15:01.074Z</time>
      </trkpt>
      <trkpt lat="42.16954" lon="22.15023">
        <ele>515.291796</ele>
        <time>2022-04-10T09:15:03.087Z</time>
      </trkpt>
      <trkpt lat="42.16954" lon="22.15009">
        <ele>515.297992</ele>
        <time>2022-04-10T09:15:05.047Z</time>
      </trkpt>
      <trkpt lat="42.16953" lon="22.14996">
        <ele>515.30393</ele>
        <time>2022-04-10T09:15:07.057Z</time>
      </trkpt>
      <trkpt lat="42.16952" lon="22.14983">
        <ele>515.309835</ele>
        <time>2022-04-10T09:15:09.049Z</time>
      </trkpt>
      <trkpt lat="42.16951" lon="22.1497">
        <ele>515.315976</ele>
        <time>2022-04-10T09:15:11.042Z</time>
      </trkpt>
      <trkpt lat="42.16951" lon="22.14956">
        <ele>515.322181</ele>
        <time>2022-04-10T09:15:13.035Z</time>
      </trkpt>
      <trkpt lat="42.1695" lon="22.14942">
        <ele>515.328425</ele>
        <time>2022-04-10T09:15:15.043Z</time>
      </trkpt>
      <trkpt lat="42.16949" lon="22.14929">
        <ele>515.334539</ele>
        <time>2022-04-10T09:15:17.028Z</time>
      </trkpt>
      <trkpt lat="42.16948" lon="22.14916">
        <ele>515.340557</ele>
        <time>2022-04-10T09:15:19.053Z</time>
      </trkpt>
      <trkpt lat="42.16948" lon="22.14903">
        <ele>515.346299</ele>
        <time>2022-04-10T09:15:21.074Z</time>
      </trkpt>
      <trkpt lat="42.16947" lon="22.1489">
        <ele>515.352135</ele>
        <time>2022-04-10T09:15:23.049Z</time>
      </trkpt>
      <trkpt lat="42.16946" lon="22.14878">
        <ele>515.403431</ele>
        <time>2022-04-10T09:15:25.035Z</time>
      </trkpt>
      <trkpt lat="42.16946" lon="22.14866">
        <ele>515.509287</ele>
        <time>2022-04-10T09:15:27.026Z</time>
      </trkpt>
      <trkpt lat="42.16945" lon="22.14848">
        <ele>515.665801</ele>
        <time>2022-04-10T09:15:30.045Z</time>
      </trkpt>
      <trkpt lat="42.16944" lon="22.14831">
        <ele>515.819115</ele>
        <time>2022-04-10T09:15:33.057Z</time>
      </trkpt>
      <trkpt lat="42.16943" lon="22.14813">
        <ele>515.973394</ele>
        <time>2022-04-10T09:15:36.042Z</time>
      </trkpt>
      <trkpt lat="42.16942" lon="22.14796">
        <ele>516.124298</ele>
        <time>2022-04-10T09:15:39.073Z</time>
      </trkpt>
      <trkpt lat="42.16942" lon="22.14779">
        <ele>516.271163</ele>
        <time>2022-04-10T09:15:42.056Z</time>
      </trkpt>
      <trkpt lat="42.16941" lon="22.14763">
        <ele>516.411</ele>
        <time>2022-04-10T09:15:45.022Z</time>
      </trkpt>
      <trkpt lat="42.1694" lon="22.14751">
        <ele>516.517014</ele>
        <time>2022-04-10T09:15:47.045Z</time>
      </trkpt>
      <trkpt lat="42.16939" lon="22.14734">
        <ele>516.663234</ele>
        <time>2022-04-10T09:15:50.042Z</time>
      </trkpt>
      <trkpt lat="42.16938" lon="22.14717">
        <ele>516.81364</ele>
        <time>2022-04-10T09:15:53.042Z</time>
      </trkpt>
      <trkpt lat="42.16938" lon="22.14699">
        <ele>516.972654</ele>
        <time>2022-04-10T09:15:56.030Z</time>
      </trkpt>
      <trkpt lat="42.16937" lon="22.14682">
        <ele>517.122188</ele>
        <time>2022-04-10T09:15:59.042Z</time>
      </trkpt>
      <trkpt lat="42.16936" lon="22.14665">
        <ele>517.271007</ele>
        <time>2022-04-10T09:16:02.097Z</time>
      </trkpt>
      <trkpt lat="42.16934" lon="22.14648">
        <ele>517.423948</ele>
        <time>2022-04-10T09:16:05.037Z</time>
      </trkpt>
      <trkpt lat="42.16932" lon="22.14636">
        <ele>517.466789</ele>
        <time>2022-04-10T09:16:07.030Z</time>
      </trkpt>
      <trkpt lat="42.16931" lon="22.14619">
        <ele>517.444752</ele>
        <time>2022-04-10T09:16:10.050Z</time>
      </trkpt>
      <trkpt lat="42.1693" lon="22.14601">
        <ele>517.421756</ele>
        <time>2022-04-10T09:16:13.070Z</time>
      </trkpt>
      <trkpt lat="42.16928" lon="22.14583">
        <ele>517.399505</ele>
        <time>2022-04-10T09:16:16.033Z</time>
      </trkpt>
      <trkpt lat="42.16927" lon="22.14567">
        <ele>517.377981</ele>
        <time>2022-04-10T09:16:19.076Z</time>
      </trkpt>
      <trkpt lat="42.16927" lon="22.1455">
        <ele>517.356867</ele>
        <time>2022-04-10T09:16:22.042Z</time>
      </trkpt>
      <trkpt lat="42.16926" lon="22.14534">
        <ele>517.335955</ele>
        <time>2022-04-10T09:16:25.056Z</time>
      </trkpt>
      <trkpt lat="42.16925" lon="22.14517">
        <ele>517.314419</ele>
        <time>2022-04-10T09:16:28.052Z</time>
      </trkpt>
      <trkpt lat="42.16924" lon="22.145">
        <ele>517.293094</ele>
        <time>2022-04-10T09:16:31.038Z</time>
      </trkpt>
      <trkpt lat="42.16922" lon="22.14485">
        <ele>517.272854</ele>
        <time>2022-04-10T09:16:34.057Z</time>
      </trkpt>
      <trkpt lat="42.16921" lon="22.14469">
        <ele>517.252564</ele>
        <time>2022-04-10T09:16:37.025Z</time>
      </trkpt>
      <trkpt lat="42.16921" lon="22.14454">
        <ele>517.233357</ele>
        <time>2022-04-10T09:16:40.056Z</time>
      </trkpt>
      <trkpt lat="42.1692" lon="22.14439">
        <ele>517.214229</ele>
        <time>2022-04-10T09:16:43.026Z</time>
      </trkpt>
      <trkpt lat="42.16919" lon="22.14422">
        <ele>517.193121</ele>
        <time>2022-04-10T09:16:46.031Z</time>
      </trkpt>
      <trkpt lat="42.16918" lon="22.14406">
        <ele>517.17199</ele>
        <time>2022-04-10T09:16:49.035Z</time>
      </trkpt>
      <trkpt lat="42.16918" lon="22.1439">
        <ele>517.188821</ele>
        <time>2022-04-10T09:16:52.018Z</time>
      </trkpt>
      <trkpt lat="42.16918" lon="22.14374">
        <ele>517.224555</ele>
        <time>2022-04-10T09:16:55.038Z</time>
      </trkpt>
      <trkpt lat="42.16917" lon="22.14358">
        <ele>517.260314</ele>
        <time>2022-04-10T09:16:58.025Z</time>
      </trkpt>
      <trkpt lat="42.16916" lon="22.14341">
        <ele>517.298139</ele>
        <time>2022-04-10T09:17:01.038Z</time>
      </trkpt>
      <trkpt lat="42.16915" lon="22.14325">
        <ele>517.335163</ele>
        <time>2022-04-10T09:17:04.081Z</time>
      </trkpt>
      <trkpt lat="42.16914" lon="22.1431">
        <ele>517.369683</ele>
        <time>2022-04-10T09:17:07.036Z</time>
      </trkpt>
      <trkpt lat="42.16913" lon="22.14295">
        <ele>517.402885</ele>
        <time>2022-04-10T09:17:10.083Z</time>
      </trkpt>
      <trkpt lat="42.16911" lon="22.1428">
        <ele>517.437504</ele>
        <time>2022-04-10T09:17:13.024Z</time>
      </trkpt>
      <trkpt lat="42.1691" lon="22.14263">
        <ele>517.477288</ele>
        <time>2022-04-10T09:17:16.067Z</time>
      </trkpt>
      <trkpt lat="42.16908" lon="22.14245">
        <ele>517.516787</ele>
        <time>2022-04-10T09:17:19.046Z</time>
      </trkpt>
      <trkpt lat="42.16908" lon="22.14233">
        <ele>517.54447</ele>
        <time>2022-04-10T09:17:21.038Z</time>
      </trkpt>
      <trkpt lat="42.16907" lon="22.14221">
        <ele>517.571847</ele>
        <time>2022-04-10T09:17:23.028Z</time>
      </trkpt>
      <trkpt lat="42.16906" lon="22.14203">
        <ele>517.61304</ele>
        <time>2022-04-10T09:17:26.062Z</time>
      </trkpt>
      <trkpt lat="42.16906" lon="22.14189">
        <ele>517.644304</ele>
        <time>2022-04-10T09:17:28.034Z</time>
      </trkpt>
      <trkpt lat="42.16905" lon="22.14174">
        <ele>517.677148</ele>
        <time>2022-04-10T09:17:30.039Z</time>
      </trkpt>
      <trkpt lat="42.16904" lon="22.1416">
        <ele>517.709111</ele>
        <time>2022-04-10T09:17:32.032Z</time>
      </trkpt>
      <trkpt lat="42.16903" lon="22.14147">
        <ele>517.483198</ele>
        <time>2022-04-10T09:17:34.038Z</time>
      </trkpt>
      <trkpt lat="42.16903" lon="22.14133">
        <ele>517.216268</ele>
        <time>2022-04-10T09:17:36.045Z</time>
      </trkpt>
      <trkpt lat="42.16902" lon="22.14119">
        <ele>516.94782</ele>
        <time>2022-04-10T09:17:38.036Z</time>
      </trkpt>
      <trkpt lat="42.16901" lon="22.14105">
        <ele>516.679675</ele>
        <time>2022-04-10T09:17:40.022Z</time>
      </trkpt>
      <trkpt lat="42.16901" lon="22.14091">
        <ele>516.409606</ele>
        <time>2022-04-10T09:17:42.040Z</time>
      </trkpt>
      <trkpt lat="42.169" lon="22.14077">
        <ele>516.135391</ele>
        <time>2022-04-10T09:17:44.062Z</time>
      </trkpt>
      <trkpt lat="42.169" lon="22.14063">
        <ele>515.863397</ele>
        <time>2022-04-10T09:17:46.036Z</time>
      </trkpt>
      <trkpt lat="42.16899" lon="22.14048">
        <ele>515.589182</ele>
        <time>2022-04-10T09:17:48.054Z</time>
      </trkpt>
      <trkpt lat="42.16898" lon="22.14034">
        <ele>515.316493</ele>
        <time>2022-04-10T09:17:50.112Z</time>
      </trkpt>
      <trkpt lat="42.16897" lon="22.1402">
        <ele>515.047404</ele>
        <time>2022-04-10T09:17:52.030Z</time>
      </trkpt>
      <trkpt lat="42.16896" lon="22.14006">
        <ele>514.776847</ele>
        <time>2022-04-10T09:17:54.039Z</time>
      </trkpt>
      <trkpt lat="42.16895" lon="22.13992">
        <ele>514.498167</ele>
        <time>2022-04-10T09:17:56.025Z</time>
      </trkpt>
      <trkpt lat="42.16894" lon="22.13978">
        <ele>514.217798</ele>
        <time>2022-04-10T09:17:58.018Z</time>
      </trkpt>
      <trkpt lat="42.16893" lon="22.13963">
        <ele>513.940781</ele>
        <time>2022-04-10T09:18:00.022Z</time>
      </trkpt>
      <trkpt lat="42.16892" lon="22.13949">
        <ele>513.667856</ele>
        <time>2022-04-10T09:18:02.028Z</time>
      </trkpt>
      <trkpt lat="42.16891" lon="22.13935">
        <ele>513.389407</ele>
        <time>2022-04-10T09:18:04.091Z</time>
      </trkpt>
      <trkpt lat="42.1689" lon="22.1392">
        <ele>513.105197</ele>
        <time>2022-04-10T09:18:06.040Z</time>
      </trkpt>
      <trkpt lat="42.16889" lon="22.13905">
        <ele>513.009593</ele>
        <time>2022-04-10T09:18:08.037Z</time>
      </trkpt>
      <trkpt lat="42.16889" lon="22.1389">
        <ele>512.97349</ele>
        <time>2022-04-10T09:18:10.010Z</time>
      </trkpt>
      <trkpt lat="42.16888" lon="22.13876">
        <ele>512.939382</ele>
        <time>2022-04-10T09:18:12.025Z</time>
      </trkpt>
      <trkpt lat="42.16888" lon="22.13863">
        <ele>512.906272</ele>
        <time>2022-04-10T09:18:14.035Z</time>
      </trkpt>
      <trkpt lat="42.16888" lon="22.13849">
        <ele>512.873105</ele>
        <time>2022-04-10T09:18:16.033Z</time>
      </trkpt>
      <trkpt lat="42.16887" lon="22.13835">
        <ele>512.838865</ele>
        <time>2022-04-10T09:18:18.027Z</time>
      </trkpt>
      <trkpt lat="42.16886" lon="22.13821">
        <ele>512.804897</ele>
        <time>2022-04-10T09:18:20.032Z</time>
      </trkpt>
      <trkpt lat="42.16885" lon="22.13808">
        <ele>512.771657</ele>
        <time>2022-04-10T09:18:22.029Z</time>
      </trkpt>
      <trkpt lat="42.16884" lon="22.13794">
        <ele>512.738836</ele>
        <time>2022-04-10T09:18:24.018Z</time>
      </trkpt>
      <trkpt lat="42.16883" lon="22.13781">
        <ele>512.706352</ele>
        <time>2022-04-10T09:18:26.064Z</time>
      </trkpt>
      <trkpt lat="42.16882" lon="22.13768">
        <ele>512.674808</ele>
        <time>2022-04-10T09:18:28.023Z</time>
      </trkpt>
      <trkpt lat="42.16881" lon="22.13755">
        <ele>512.64278</ele>
        <time>2022-04-10T09:18:30.023Z</time>
      </trkpt>
      <trkpt lat="42.1688" lon="22.13742">
        <ele>512.611237</ele>
        <time>2022-04-10T09:18:32.038Z</time>
      </trkpt>
      <trkpt lat="42.1688" lon="22.13729">
        <ele>512.579965</ele>
        <time>2022-04-10T09:18:34.036Z</time>
      </trkpt>
      <trkpt lat="42.16879" lon="22.13716">
        <ele>512.548234</ele>
        <time>2022-04-10T09:18:36.045Z</time>
      </trkpt>
      <trkpt lat="42.16878" lon="22.13703">
        <ele>512.516544</ele>
        <time>2022-04-10T09:18:38.042Z</time>
      </trkpt>
      <trkpt lat="42.16878" lon="22.1369">
        <ele>512.484835</ele>
        <time>2022-04-10T09:18:40.040Z</time>
      </trkpt>
      <trkpt lat="42.16877" lon="22.13678">
        <ele>512.45434</ele>
        <time>2022-04-10T09:18:42.058Z</time>
      </trkpt>
      <trkpt lat="42.16876" lon="22.13665">
        <ele>512.49222</ele>
        <time>2022-04-10T09:18:44.047Z</time>
      </trkpt>
      <trkpt lat="42.16876" lon="22.13653">
        <ele>512.552765</ele>
        <time>2022-04-10T09:18:46.057Z</time>
      </trkpt>
      <trkpt lat="42.16875" lon="22.13641">
        <ele>512.614366</ele>
        <time>2022-04-10T09:18:48.073Z</time>
      </trkpt>
      <trkpt lat="42.16874" lon="22.13629">
        <ele>512.676796</ele>
        <time>2022-04-10T09:18:50.044Z</time>
      </trkpt>
      <trkpt lat="42.16873" lon="22.13616">
        <ele>512.739327</ele>
        <time>2022-04-10T09:18:52.036Z</time>
      </trkpt>
      <trkpt lat="42.16872" lon="22.13603">
        <ele>512.802912</ele>
        <time>2022-04-10T09:18:54.054Z</time>
      </trkpt>
      <trkpt lat="42.16872" lon="22.13591">
        <ele>512.866436</ele>
        <time>2022-04-10T09:18:56.034Z</time>
      </trkpt>
      <trkpt lat="42.16871" lon="22.13578">
        <ele>512.929821</ele>
        <time>2022-04-10T09:18:58.035Z</time>
      </trkpt>
      <trkpt lat="42.16871" lon="22.13565">
        <ele>512.993206</ele>
        <time>2022-04-10T09:19:00.038Z</time>
      </trkpt>
      <trkpt lat="42.1687" lon="22.13553">
        <ele>513.05618</ele>
        <time>2022-04-10T09:19:02.045Z</time>
      </trkpt>
      <trkpt lat="42.16869" lon="22.13541">
        <ele>513.116124</ele>
        <time>2022-04-10T09:19:04.047Z</time>
      </trkpt>
      <trkpt lat="42.16869" lon="22.13523">
        <ele>513.201977</ele>
        <time>2022-04-10T09:19:07.028Z</time>
      </trkpt>
      <trkpt lat="42.16868" lon="22.13507">
        <ele>513.286473</ele>
        <time>2022-04-10T09:19:10.019Z</time>
      </trkpt>
      <trkpt lat="42.16867" lon="22.1349">
        <ele>513.368843</ele>
        <time>2022-04-10T09:19:13.053Z</time>
      </trkpt>
      <trkpt lat="42.16866" lon="22.13474">
        <ele>513.450259</ele>
        <time>2022-04-10T09:19:16.063Z</time>
      </trkpt>
      <trkpt lat="42.16865" lon="22.13458">
        <ele>513.527803</ele>
        <time>2022-04-10T09:19:19.040Z</time>
      </trkpt>
      <trkpt lat="42.16864" lon="22.13443">
        <ele>513.604415</ele>
        <time>2022-04-10T09:19:22.081Z</time>
      </trkpt>
      <trkpt lat="42.16863" lon="22.13427">
        <ele>513.74781</ele>
        <time>2022-04-10T09:19:25.049Z</time>
      </trkpt>
      <trkpt lat="42.16862" lon="22.13412">
        <ele>514.01544</ele>
        <time>2022-04-10T09:19:28.025Z</time>
      </trkpt>
      <trkpt lat="42.16862" lon="22.13397">
        <ele>514.277556</ele>
        <time>2022-04-10T09:19:31.038Z</time>
      </trkpt>
      <trkpt lat="42.1686" lon="22.13381">
        <ele>514.558136</ele>
        <time>2022-04-10T09:19:34.018Z</time>
      </trkpt>
      <trkpt lat="42.16859" lon="22.13365">
        <ele>514.838043</ele>
        <time>2022-04-10T09:19:37.021Z</time>
      </trkpt>
      <trkpt lat="42.16858" lon="22.1335">
        <ele>515.09746</ele>
        <time>2022-04-10T09:19:40.040Z</time>
      </trkpt>
      <trkpt lat="42.16857" lon="22.13335">
        <ele>515.362287</ele>
        <time>2022-04-10T09:19:43.031Z</time>
      </trkpt>
      <trkpt lat="42.16856" lon="22.13319">
        <ele>515.639966</ele>
        <time>2022-04-10T09:19:46.017Z</time>
      </trkpt>
      <trkpt lat="42.16855" lon="22.13302">
        <ele>515.927199</ele>
        <time>2022-04-10T09:19:49.036Z</time>
      </trkpt>
      <trkpt lat="42.16854" lon="22.13285">
        <ele>516.223284</ele>
        <time>2022-04-10T09:19:52.035Z</time>
      </trkpt>
      <trkpt lat="42.16853" lon="22.13268">
        <ele>516.52172</ele>
        <time>2022-04-10T09:19:55.081Z</time>
      </trkpt>
      <trkpt lat="42.16852" lon="22.13251">
        <ele>516.820814</ele>
        <time>2022-04-10T09:19:58.037Z</time>
      </trkpt>
      <trkpt lat="42.16851" lon="22.13234">
        <ele>517.11567</ele>
        <time>2022-04-10T09:20:01.030Z</time>
      </trkpt>
      <trkpt lat="42.16851" lon="22.13217">
        <ele>517.405334</ele>
        <time>2022-04-10T09:20:04.045Z</time>
      </trkpt>
      <trkpt lat="42.1685" lon="22.13201">
        <ele>517.686619</ele>
        <time>2022-04-10T09:20:07.046Z</time>
      </trkpt>
      <trkpt lat="42.16849" lon="22.13185">
        <ele>517.871516</ele>
        <time>2022-04-10T09:20:10.035Z</time>
      </trkpt>
      <trkpt lat="42.16848" lon="22.13169">
        <ele>517.901201</ele>
        <time>2022-04-10T09:20:13.029Z</time>
      </trkpt>
      <trkpt lat="42.16846" lon="22.13153">
        <ele>517.930887</ele>
        <time>2022-04-10T09:20:16.035Z</time>
      </trkpt>
      <trkpt lat="42.16845" lon="22.13137">
        <ele>517.959902</ele>
        <time>2022-04-10T09:20:19.054Z</time>
      </trkpt>
      <trkpt lat="42.16843" lon="22.13122">
        <ele>517.988637</ele>
        <time>2022-04-10T09:20:22.090Z</time>
      </trkpt>
      <trkpt lat="42.16842" lon="22.13107">
        <ele>518.016893</ele>
        <time>2022-04-10T09:20:25.037Z</time>
      </trkpt>
      <trkpt lat="42.1684" lon="22.13091">
        <ele>518.047038</ele>
        <time>2022-04-10T09:20:28.087Z</time>
      </trkpt>
      <trkpt lat="42.1684" lon="22.13074">
        <ele>518.078329</ele>
        <time>2022-04-10T09:20:31.059Z</time>
      </trkpt>
      <trkpt lat="42.16839" lon="22.13057">
        <ele>518.109425</ele>
        <time>2022-04-10T09:20:34.050Z</time>
      </trkpt>
      <trkpt lat="42.16839" lon="22.13041">
        <ele>518.139646</ele>
        <time>2022-04-10T09:20:37.053Z</time>
      </trkpt>
      <trkpt lat="42.16838" lon="22.13024">
        <ele>518.170921</ele>
        <time>2022-04-10T09:20:40.045Z</time>
      </trkpt>
      <trkpt lat="42.16838" lon="22.13006">
        <ele>518.202974</ele>
        <time>2022-04-10T09:20:43.027Z</time>
      </trkpt>
      <trkpt lat="42.16837" lon="22.1299">
        <ele>518.233581</ele>
        <time>2022-04-10T09:20:46.035Z</time>
      </trkpt>
      <trkpt lat="42.16836" lon="22.12974">
        <ele>518.263103</ele>
        <time>2022-04-10T09:20:49.056Z</time>
      </trkpt>
      <trkpt lat="42.16835" lon="22.12958">
        <ele>518.292216</ele>
        <time>2022-04-10T09:20:52.055Z</time>
      </trkpt>
      <trkpt lat="42.16834" lon="22.12944">
        <ele>518.360801</ele>
        <time>2022-04-10T09:20:55.053Z</time>
      </trkpt>
      <trkpt lat="42.16833" lon="22.12929">
        <ele>518.499288</ele>
        <time>2022-04-10T09:20:58.058Z</time>
      </trkpt>
      <trkpt lat="42.16833" lon="22.12915">
        <ele>518.635591</ele>
        <time>2022-04-10T09:21:01.070Z</time>
      </trkpt>
      <trkpt lat="42.16831" lon="22.129">
        <ele>518.774481</ele>
        <time>2022-04-10T09:21:04.040Z</time>
      </trkpt>
      <trkpt lat="42.16831" lon="22.12885">
        <ele>518.91625</ele>
        <time>2022-04-10T09:21:07.064Z</time>
      </trkpt>
      <trkpt lat="42.1683" lon="22.12869">
        <ele>519.067507</ele>
        <time>2022-04-10T09:21:10.053Z</time>
      </trkpt>
      <trkpt lat="42.1683" lon="22.12853">
        <ele>519.22054</ele>
        <time>2022-04-10T09:21:13.077Z</time>
      </trkpt>
      <trkpt lat="42.1683" lon="22.12837">
        <ele>519.373599</ele>
        <time>2022-04-10T09:21:16.081Z</time>
      </trkpt>
      <trkpt lat="42.16829" lon="22.12822">
        <ele>519.515029</ele>
        <time>2022-04-10T09:21:19.031Z</time>
      </trkpt>
      <trkpt lat="42.16827" lon="22.12808">
        <ele>519.649757</ele>
        <time>2022-04-10T09:21:22.037Z</time>
      </trkpt>
      <trkpt lat="42.16826" lon="22.12794">
        <ele>519.783809</ele>
        <time>2022-04-10T09:21:25.045Z</time>
      </trkpt>
      <trkpt lat="42.16825" lon="22.1278">
        <ele>519.912391</ele>
        <time>2022-04-10T09:21:28.054Z</time>
      </trkpt>
      <trkpt lat="42.16824" lon="22.12766">
        <ele>520.045119</ele>
        <time>2022-04-10T09:21:31.022Z</time>
      </trkpt>
      <trkpt lat="42.16823" lon="22.12753">
        <ele>520.169643</ele>
        <time>2022-04-10T09:21:34.023Z</time>
      </trkpt>
      <trkpt lat="42.16822" lon="22.1274">
        <ele>520.28984</ele>
        <time>2022-04-10T09:21:37.028Z</time>
      </trkpt>
      <trkpt lat="42.16821" lon="22.12727">
        <ele>520.417756</ele>
        <time>2022-04-10T09:21:40.022Z</time>
      </trkpt>
      <trkpt lat="42.1682" lon="22.12714">
        <ele>520.539084</ele>
        <time>2022-04-10T09:21:43.042Z</time>
      </trkpt>
      <trkpt lat="42.1682" lon="22.12701">
        <ele>520.628866</ele>
        <time>2022-04-10T09:21:46.050Z</time>
      </trkpt>
      <trkpt lat="42.1682" lon="22.12687">
        <ele>520.691354</ele>
        <time>2022-04-10T09:21:49.026Z</time>
      </trkpt>
      <trkpt lat="42.16818" lon="22.12674">
        <ele>520.748971</ele>
        <time>2022-04-10T09:21:52.078Z</time>
      </trkpt>
      <trkpt lat="42.16817" lon="22.12661">
        <ele>520.804855</ele>
        <time>2022-04-10T09:21:55.048Z</time>
      </trkpt>
      <trkpt lat="42.16817" lon="22.12648">
        <ele>520.860879</ele>
        <time>2022-04-10T09:21:58.028Z</time>
      </trkpt>
      <trkpt lat="42.16816" lon="22.12634">
        <ele>520.922451</ele>
        <time>2022-04-10T09:22:01.039Z</time>
      </trkpt>
      <trkpt lat="42.16815" lon="22.12619">
        <ele>520.98766</ele>
        <time>2022-04-10T09:22:04.051Z</time>
      </trkpt>
      <trkpt lat="42.16814" lon="22.12604">
        <ele>521.056061</ele>
        <time>2022-04-10T09:22:07.043Z</time>
      </trkpt>
      <trkpt lat="42.16814" lon="22.12589">
        <ele>521.121196</ele>
        <time>2022-04-10T09:22:10.049Z</time>
      </trkpt>
      <trkpt lat="42.16813" lon="22.12575">
        <ele>521.181505</ele>
        <time>2022-04-10T09:22:13.057Z</time>
      </trkpt>
      <trkpt lat="42.16813" lon="22.12561">
        <ele>521.242318</ele>
        <time>2022-04-10T09:22:16.056Z</time>
      </trkpt>
      <trkpt lat="42.16812" lon="22.12546">
        <ele>521.306319</ele>
        <time>2022-04-10T09:22:19.063Z</time>
      </trkpt>
      <trkpt lat="42.1681" lon="22.1253">
        <ele>521.378378</ele>
        <time>2022-04-10T09:22:22.052Z</time>
      </trkpt>
      <trkpt lat="42.16808" lon="22.12512">
        <ele>521.45845</ele>
        <time>2022-04-10T09:22:25.036Z</time>
      </trkpt>
      <trkpt lat="42.16808" lon="22.12499">
        <ele>521.514138</ele>
        <time>2022-04-10T09:22:27.058Z</time>
      </trkpt>
      <trkpt lat="42.16807" lon="22.12487">
        <ele>521.568957</ele>
        <time>2022-04-10T09:22:29.055Z</time>
      </trkpt>
      <trkpt lat="42.16806" lon="22.12473">
        <ele>521.628179</ele>
        <time>2022-04-10T09:22:31.074Z</time>
      </trkpt>
      <trkpt lat="42.16804" lon="22.12458">
        <ele>521.549809</ele>
        <time>2022-04-10T09:22:33.059Z</time>
      </trkpt>
      <trkpt lat="42.16803" lon="22.12442">
        <ele>521.329832</ele>
        <time>2022-04-10T09:22:35.038Z</time>
      </trkpt>
      <trkpt lat="42.16802" lon="22.12426">
        <ele>521.104368</ele>
        <time>2022-04-10T09:22:37.029Z</time>
      </trkpt>
      <trkpt lat="42.16801" lon="22.12409">
        <ele>520.873716</ele>
        <time>2022-04-10T09:22:39.024Z</time>
      </trkpt>
      <trkpt lat="42.16801" lon="22.12391">
        <ele>520.634021</ele>
        <time>2022-04-10T09:22:41.033Z</time>
      </trkpt>
      <trkpt lat="42.16799" lon="22.12374">
        <ele>520.397033</ele>
        <time>2022-04-10T09:22:43.067Z</time>
      </trkpt>
      <trkpt lat="42.16798" lon="22.12357">
        <ele>520.15388</ele>
        <time>2022-04-10T09:22:45.041Z</time>
      </trkpt>
      <trkpt lat="42.16798" lon="22.12339">
        <ele>519.908428</ele>
        <time>2022-04-10T09:22:47.050Z</time>
      </trkpt>
      <trkpt lat="42.16797" lon="22.12321">
        <ele>519.661678</ele>
        <time>2022-04-10T09:22:49.051Z</time>
      </trkpt>
      <trkpt lat="42.16796" lon="22.12304">
        <ele>519.429354</ele>
        <time>2022-04-10T09:22:51.055Z</time>
      </trkpt>
      <trkpt lat="42.16795" lon="22.12288">
        <ele>519.209001</ele>
        <time>2022-04-10T09:22:53.043Z</time>
      </trkpt>
      <trkpt lat="42.16794" lon="22.12273">
        <ele>518.992954</ele>
        <time>2022-04-10T09:22:55.032Z</time>
      </trkpt>
      <trkpt lat="42.16793" lon="22.12258">
        <ele>518.792998</ele>
        <time>2022-04-10T09:22:57.038Z</time>
      </trkpt>
      <trkpt lat="42.16793" lon="22.12245">
        <ele>518.603949</ele>
        <time>2022-04-10T09:22:59.021Z</time>
      </trkpt>
      <trkpt lat="42.16792" lon="22.12232">
        <ele>518.428374</ele>
        <time>2022-04-10T09:23:01.041Z</time>
      </trkpt>
      <trkpt lat="42.1679" lon="22.12215">
        <ele>518.262312</ele>
        <time>2022-04-10T09:23:04.034Z</time>
      </trkpt>
      <trkpt lat="42.16789" lon="22.12197">
        <ele>518.154933</ele>
        <time>2022-04-10T09:23:07.082Z</time>
      </trkpt>
      <trkpt lat="42.16788" lon="22.12185">
        <ele>518.078956</ele>
        <time>2022-04-10T09:23:09.083Z</time>
      </trkpt>
      <trkpt lat="42.16787" lon="22.12167">
        <ele>517.970081</ele>
        <time>2022-04-10T09:23:12.047Z</time>
      </trkpt>
      <trkpt lat="42.16786" lon="22.1215">
        <ele>517.86298</ele>
        <time>2022-04-10T09:23:15.055Z</time>
      </trkpt>
      <trkpt lat="42.16785" lon="22.12134">
        <ele>517.764463</ele>
        <time>2022-04-10T09:23:18.053Z</time>
      </trkpt>
      <trkpt lat="42.16785" lon="22.12117">
        <ele>517.66123</ele>
        <time>2022-04-10T09:23:21.050Z</time>
      </trkpt>
      <trkpt lat="42.16785" lon="22.12101">
        <ele>517.562292</ele>
        <time>2022-04-10T09:23:24.046Z</time>
      </trkpt>
      <trkpt lat="42.16783" lon="22.12084">
        <ele>517.462893</ele>
        <time>2022-04-10T09:23:27.038Z</time>
      </trkpt>
      <trkpt lat="42.16783" lon="22.12068">
        <ele>517.363253</ele>
        <time>2022-04-10T09:23:30.034Z</time>
      </trkpt>
      <trkpt lat="42.16782" lon="22.12052">
        <ele>517.26731</ele>
        <time>2022-04-10T09:23:33.073Z</time>
      </trkpt>
      <trkpt lat="42.16781" lon="22.12036">
        <ele>517.167989</ele>
        <time>2022-04-10T09:23:36.045Z</time>
      </trkpt>
      <trkpt lat="42.16781" lon="22.12019">
        <ele>517.065419</ele>
        <time>2022-04-10T09:23:39.025Z</time>
      </trkpt>
      <trkpt lat="42.1678" lon="22.12003">
        <ele>516.964465</ele>
        <time>2022-04-10T09:23:42.060Z</time>
      </trkpt>
      <trkpt lat="42.16779" lon="22.11987">
        <ele>516.867817</ele>
        <time>2022-04-10T09:23:45.051Z</time>
      </trkpt>
      <trkpt lat="42.16777" lon="22.11973">
        <ele>516.956239</ele>
        <time>2022-04-10T09:23:48.042Z</time>
      </trkpt>
      <trkpt lat="42.16777" lon="22.11956">
        <ele>517.167737</ele>
        <time>2022-04-10T09:23:51.054Z</time>
      </trkpt>
      <trkpt lat="42.16775" lon="22.11939">
        <ele>517.381132</ele>
        <time>2022-04-10T09:23:54.043Z</time>
      </trkpt>
      <trkpt lat="42.16774" lon="22.11922">
        <ele>517.593249</ele>
        <time>2022-04-10T09:23:57.062Z</time>
      </trkpt>
      <trkpt lat="42.16772" lon="22.11906">
        <ele>517.791816</ele>
        <time>2022-04-10T09:24:00.039Z</time>
      </trkpt>
      <trkpt lat="42.16771" lon="22.1189">
        <ele>517.99747</ele>
        <time>2022-04-10T09:24:03.053Z</time>
      </trkpt>
      <trkpt lat="42.1677" lon="22.11874">
        <ele>518.200292</ele>
        <time>2022-04-10T09:24:06.041Z</time>
      </trkpt>
      <trkpt lat="42.16769" lon="22.11858">
        <ele>518.407749</ele>
        <time>2022-04-10T09:24:09.038Z</time>
      </trkpt>
      <trkpt lat="42.16768" lon="22.11843">
        <ele>518.599476</ele>
        <time>2022-04-10T09:24:12.083Z</time>
      </trkpt>
      <trkpt lat="42.16767" lon="22.11828">
        <ele>518.786436</ele>
        <time>2022-04-10T09:24:15.156Z</time>
      </trkpt>
      <trkpt lat="42.16766" lon="22.11812">
        <ele>518.987661</ele>
        <time>2022-04-10T09:24:18.074Z</time>
      </trkpt>
      <trkpt lat="42.16766" lon="22.11797">
        <ele>519.175221</ele>
        <time>2022-04-10T09:24:21.028Z</time>
      </trkpt>
      <trkpt lat="42.16765" lon="22.11784">
        <ele>519.332421</ele>
        <time>2022-04-10T09:24:24.050Z</time>
      </trkpt>
      <trkpt lat="42.16765" lon="22.11769">
        <ele>519.529826</ele>
        <time>2022-04-10T09:24:28.031Z</time>
      </trkpt>
      <trkpt lat="42.16764" lon="22.11753">
        <ele>519.729642</ele>
        <time>2022-04-10T09:24:32.051Z</time>
      </trkpt>
      <trkpt lat="42.16763" lon="22.11737">
        <ele>520.037764</ele>
        <time>2022-04-10T09:24:36.047Z</time>
      </trkpt>
      <trkpt lat="42.16762" lon="22.11724">
        <ele>520.700412</ele>
        <time>2022-04-10T09:24:40.082Z</time>
      </trkpt>
      <trkpt lat="42.16762" lon="22.11711">
        <ele>521.375478</ele>
        <time>2022-04-10T09:24:44.063Z</time>
      </trkpt>
      <trkpt lat="42.16761" lon="22.11698">
        <ele>522.015727</ele>
        <time>2022-04-10T09:24:48.052Z</time>
      </trkpt>
      <trkpt lat="42.1676" lon="22.11683">
        <ele>522.766388</ele>
        <time>2022-04-10T09:24:53.042Z</time>
      </trkpt>
      <trkpt lat="42.16759" lon="22.11671">
        <ele>523.41285</ele>
        <time>2022-04-10T09:24:57.042Z</time>
      </trkpt>
      <trkpt lat="42.16758" lon="22.11655">
        <ele>524.190923</ele>
        <time>2022-04-10T09:25:02.079Z</time>
      </trkpt>
      <trkpt lat="42.16758" lon="22.11643">
        <ele>524.801321</ele>
        <time>2022-04-10T09:25:06.042Z</time>
      </trkpt>
      <trkpt lat="42.16757" lon="22.1163">
        <ele>525.452345</ele>
        <time>2022-04-10T09:25:11.049Z</time>
      </trkpt>
      <trkpt lat="42.16757" lon="22.11616">
        <ele>526.178788</ele>
        <time>2022-04-10T09:25:17.053Z</time>
      </trkpt>
      <trkpt lat="42.16756" lon="22.11602">
        <ele>526.854949</ele>
        <time>2022-04-10T09:25:23.078Z</time>
      </trkpt>
      <trkpt lat="42.16755" lon="22.1159">
        <ele>527.497539</ele>
        <time>2022-04-10T09:25:29.046Z</time>
      </trkpt>
      <trkpt lat="42.16754" lon="22.11576">
        <ele>528.182378</ele>
        <time>2022-04-10T09:25:35.023Z</time>
      </trkpt>
      <trkpt lat="42.16753" lon="22.11564">
        <ele>528.818795</ele>
        <time>2022-04-10T09:25:40.046Z</time>
      </trkpt>
      <trkpt lat="42.16753" lon="22.11551">
        <ele>529.433884</ele>
        <time>2022-04-10T09:25:45.052Z</time>
      </trkpt>
      <trkpt lat="42.16752" lon="22.11539">
        <ele>530.044283</ele>
        <time>2022-04-10T09:25:50.046Z</time>
      </trkpt>
      <trkpt lat="42.16751" lon="22.11527">
        <ele>530.683306</ele>
        <time>2022-04-10T09:25:55.050Z</time>
      </trkpt>
      <trkpt lat="42.16751" lon="22.11513">
        <ele>531.359468</ele>
        <time>2022-04-10T09:26:01.041Z</time>
      </trkpt>
      <trkpt lat="42.1675" lon="22.11501">
        <ele>532.001447</ele>
        <time>2022-04-10T09:26:07.063Z</time>
      </trkpt>
      <trkpt lat="42.16749" lon="22.11488">
        <ele>532.507002</ele>
        <time>2022-04-10T09:26:13.046Z</time>
      </trkpt>
      <trkpt lat="42.16748" lon="22.11476">
        <ele>532.982166</ele>
        <time>2022-04-10T09:26:19.122Z</time>
      </trkpt>
      <trkpt lat="42.16748" lon="22.11463">
        <ele>533.47865</ele>
        <time>2022-04-10T09:26:25.055Z</time>
      </trkpt>
      <trkpt lat="42.16748" lon="22.1145">
        <ele>533.977669</ele>
        <time>2022-04-10T09:26:32.085Z</time>
      </trkpt>
      <trkpt lat="42.16747" lon="22.11437">
        <ele>534.476305</ele>
        <time>2022-04-10T09:26:38.041Z</time>
      </trkpt>
      <trkpt lat="42.16745" lon="22.11423">
        <ele>535.018829</ele>
        <time>2022-04-10T09:26:44.055Z</time>
      </trkpt>
      <trkpt lat="42.16744" lon="22.11409">
        <ele>535.549969</ele>
        <time>2022-04-10T09:26:51.048Z</time>
      </trkpt>
      <trkpt lat="42.16744" lon="22.11397">
        <ele>536.014157</ele>
        <time>2022-04-10T09:26:56.054Z</time>
      </trkpt>
      <trkpt lat="42.16743" lon="22.11385">
        <ele>536.47895</ele>
        <time>2022-04-10T09:27:01.042Z</time>
      </trkpt>
      <trkpt lat="42.16743" lon="22.11372">
        <ele>536.977648</ele>
        <time>2022-04-10T09:27:06.090Z</time>
      </trkpt>
      <trkpt lat="42.16742" lon="22.11358">
        <ele>537.523146</ele>
        <time>2022-04-10T09:27:11.046Z</time>
      </trkpt>
      <trkpt lat="42.16743" lon="22.11345">
        <ele>538.011986</ele>
        <time>2022-04-10T09:27:16.057Z</time>
      </trkpt>
      <trkpt lat="42.16743" lon="22.11331">
        <ele>538.548955</ele>
        <time>2022-04-10T09:27:22.044Z</time>
      </trkpt>
      <trkpt lat="42.16743" lon="22.11319">
        <ele>539.013056</ele>
        <time>2022-04-10T09:27:27.056Z</time>
      </trkpt>
      <trkpt lat="42.16742" lon="22.11305">
        <ele>539.573875</ele>
        <time>2022-04-10T09:27:33.059Z</time>
      </trkpt>
      <trkpt lat="42.1674" lon="22.1129">
        <ele>540.126396</ele>
        <time>2022-04-10T09:27:38.037Z</time>
      </trkpt>
      <trkpt lat="42.16738" lon="22.11278">
        <ele>540.619141</ele>
        <time>2022-04-10T09:27:43.046Z</time>
      </trkpt>
      <trkpt lat="42.16736" lon="22.11265">
        <ele>541.13511</ele>
        <time>2022-04-10T09:27:49.086Z</time>
      </trkpt>
      <trkpt lat="42.16735" lon="22.11251">
        <ele>541.408045</ele>
        <time>2022-04-10T09:27:55.027Z</time>
      </trkpt>
      <trkpt lat="42.16734" lon="22.11237">
        <ele>541.390249</ele>
        <time>2022-04-10T09:28:01.034Z</time>
      </trkpt>
      <trkpt lat="42.16733" lon="22.11223">
        <ele>541.373711</ele>
        <time>2022-04-10T09:28:07.050Z</time>
      </trkpt>
      <trkpt lat="42.16732" lon="22.1121">
        <ele>541.356909</ele>
        <time>2022-04-10T09:28:13.042Z</time>
      </trkpt>
      <trkpt lat="42.16732" lon="22.11195">
        <ele>541.338391</ele>
        <time>2022-04-10T09:28:18.046Z</time>
      </trkpt>
      <trkpt lat="42.16731" lon="22.11181">
        <ele>541.320527</ele>
        <time>2022-04-10T09:28:23.041Z</time>
      </trkpt>
      <trkpt lat="42.16731" lon="22.11167">
        <ele>541.303399</ele>
        <time>2022-04-10T09:28:28.081Z</time>
      </trkpt>
      <trkpt lat="42.1673" lon="22.11154">
        <ele>541.287142</ele>
        <time>2022-04-10T09:28:33.061Z</time>
      </trkpt>
      <trkpt lat="42.16729" lon="22.11139">
        <ele>541.268634</ele>
        <time>2022-04-10T09:28:38.045Z</time>
      </trkpt>
      <trkpt lat="42.16728" lon="22.11127">
        <ele>541.252493</ele>
        <time>2022-04-10T09:28:42.066Z</time>
      </trkpt>
      <trkpt lat="42.16728" lon="22.11114">
        <ele>541.237214</ele>
        <time>2022-04-10T09:28:46.055Z</time>
      </trkpt>
      <trkpt lat="42.16727" lon="22.111">
        <ele>541.218919</ele>
        <time>2022-04-10T09:28:51.032Z</time>
      </trkpt>
      <trkpt lat="42.16725" lon="22.11085">
        <ele>541.200119</ele>
        <time>2022-04-10T09:28:56.083Z</time>
      </trkpt>
      <trkpt lat="42.16723" lon="22.11072">
        <ele>541.183627</ele>
        <time>2022-04-10T09:29:00.034Z</time>
      </trkpt>
      <trkpt lat="42.16722" lon="22.11058">
        <ele>541.166457</ele>
        <time>2022-04-10T09:29:04.040Z</time>
      </trkpt>
      <trkpt lat="42.1672" lon="22.11045">
        <ele>541.14993</ele>
        <time>2022-04-10T09:29:08.047Z</time>
      </trkpt>
      <trkpt lat="42.16719" lon="22.11033">
        <ele>541.134391</ele>
        <time>2022-04-10T09:29:12.049Z</time>
      </trkpt>
      <trkpt lat="42.16717" lon="22.1102">
        <ele>541.118427</ele>
        <time>2022-04-10T09:29:16.036Z</time>
      </trkpt>
      <trkpt lat="42.16717" lon="22.11008">
        <ele>541.11139</ele>
        <time>2022-04-10T09:29:21.046Z</time>
      </trkpt>
      <trkpt lat="42.16721" lon="22.10995">
        <ele>541.108051</ele>
        <time>2022-04-10T09:29:26.049Z</time>
      </trkpt>
      <trkpt lat="42.16719" lon="22.1098">
        <ele>541.104586</ele>
        <time>2022-04-10T09:29:31.121Z</time>
      </trkpt>
      <trkpt lat="42.16718" lon="22.10968">
        <ele>541.10172</ele>
        <time>2022-04-10T09:29:35.073Z</time>
      </trkpt>
      <trkpt lat="42.16721" lon="22.10956">
        <ele>541.098748</ele>
        <time>2022-04-10T09:29:39.038Z</time>
      </trkpt>
      <trkpt lat="42.16722" lon="22.10943">
        <ele>541.095826</ele>
        <time>2022-04-10T09:29:43.055Z</time>
      </trkpt>
      <trkpt lat="42.16721" lon="22.10928">
        <ele>541.092095</ele>
        <time>2022-04-10T09:29:47.034Z</time>
      </trkpt>
      <trkpt lat="42.16719" lon="22.10913">
        <ele>541.088513</ele>
        <time>2022-04-10T09:29:50.041Z</time>
      </trkpt>
      <trkpt lat="42.16717" lon="22.10895">
        <ele>541.08439</ele>
        <time>2022-04-10T09:29:53.046Z</time>
      </trkpt>
      <trkpt lat="42.16713" lon="22.10879">
        <ele>541.080481</ele>
        <time>2022-04-10T09:29:56.058Z</time>
      </trkpt>
      <trkpt lat="42.1671" lon="22.10864">
        <ele>541.076643</ele>
        <time>2022-04-10T09:29:59.059Z</time>
      </trkpt>
      <trkpt lat="42.16707" lon="22.1085">
        <ele>541.073211</ele>
        <time>2022-04-10T09:30:02.024Z</time>
      </trkpt>
      <trkpt lat="42.16704" lon="22.10838">
        <ele>541.070291</ele>
        <time>2022-04-10T09:30:05.037Z</time>
      </trkpt>
      <trkpt lat="42.16702" lon="22.10822">
        <ele>541.066386</ele>
        <time>2022-04-10T09:30:09.042Z</time>
      </trkpt>
      <trkpt lat="42.16701" lon="22.10809">
        <ele>541.063343</ele>
        <time>2022-04-10T09:30:12.044Z</time>
      </trkpt>
      <trkpt lat="42.167" lon="22.10796">
        <ele>541.060433</ele>
        <time>2022-04-10T09:30:15.053Z</time>
      </trkpt>
      <trkpt lat="42.16699" lon="22.10784">
        <ele>541.057444</ele>
        <time>2022-04-10T09:30:18.022Z</time>
      </trkpt>
      <trkpt lat="42.16699" lon="22.10771">
        <ele>541.178737</ele>
        <time>2022-04-10T09:30:21.057Z</time>
      </trkpt>
      <trkpt lat="42.16698" lon="22.10758">
        <ele>541.375404</ele>
        <time>2022-04-10T09:30:24.043Z</time>
      </trkpt>
      <trkpt lat="42.16698" lon="22.10745">
        <ele>541.575261</ele>
        <time>2022-04-10T09:30:27.035Z</time>
      </trkpt>
      <trkpt lat="42.16698" lon="22.10731">
        <ele>541.798063</ele>
        <time>2022-04-10T09:30:30.072Z</time>
      </trkpt>
      <trkpt lat="42.16697" lon="22.10717">
        <ele>542.01875</ele>
        <time>2022-04-10T09:30:33.048Z</time>
      </trkpt>
      <trkpt lat="42.16696" lon="22.10703">
        <ele>542.225041</ele>
        <time>2022-04-10T09:30:36.055Z</time>
      </trkpt>
      <trkpt lat="42.16695" lon="22.10691">
        <ele>542.42193</ele>
        <time>2022-04-10T09:30:39.044Z</time>
      </trkpt>
      <trkpt lat="42.16694" lon="22.10675">
        <ele>542.668813</ele>
        <time>2022-04-10T09:30:43.058Z</time>
      </trkpt>
      <trkpt lat="42.16694" lon="22.1066">
        <ele>542.905677</ele>
        <time>2022-04-10T09:30:47.045Z</time>
      </trkpt>
      <trkpt lat="42.16693" lon="22.10646">
        <ele>543.116464</ele>
        <time>2022-04-10T09:30:51.063Z</time>
      </trkpt>
      <trkpt lat="42.16693" lon="22.10631">
        <ele>543.345786</ele>
        <time>2022-04-10T09:30:55.053Z</time>
      </trkpt>
      <trkpt lat="42.16692" lon="22.10617">
        <ele>543.565732</ele>
        <time>2022-04-10T09:30:59.046Z</time>
      </trkpt>
      <trkpt lat="42.16692" lon="22.10603">
        <ele>543.779332</ele>
        <time>2022-04-10T09:31:03.078Z</time>
      </trkpt>
      <trkpt lat="42.16691" lon="22.10591">
        <ele>543.96683</ele>
        <time>2022-04-10T09:31:07.043Z</time>
      </trkpt>
      <trkpt lat="42.16691" lon="22.10577">
        <ele>544.189779</ele>
        <time>2022-04-10T09:31:12.056Z</time>
      </trkpt>
      <trkpt lat="42.1669" lon="22.10564">
        <ele>544.382545</ele>
        <time>2022-04-10T09:31:16.036Z</time>
      </trkpt>
      <trkpt lat="42.16689" lon="22.10549">
        <ele>544.617098</ele>
        <time>2022-04-10T09:31:21.053Z</time>
      </trkpt>
      <trkpt lat="42.16689" lon="22.10536">
        <ele>544.812504</ele>
        <time>2022-04-10T09:31:25.054Z</time>
      </trkpt>
      <trkpt lat="42.16687" lon="22.10524">
        <ele>544.917289</ele>
        <time>2022-04-10T09:31:29.034Z</time>
      </trkpt>
      <trkpt lat="42.16686" lon="22.1051">
        <ele>545.04436</ele>
        <time>2022-04-10T09:31:34.058Z</time>
      </trkpt>
      <trkpt lat="42.16685" lon="22.10497">
        <ele>545.151102</ele>
        <time>2022-04-10T09:31:38.037Z</time>
      </trkpt>
      <trkpt lat="42.16684" lon="22.10484">
        <ele>545.263286</ele>
        <time>2022-04-10T09:31:42.061Z</time>
      </trkpt>
      <trkpt lat="42.16684" lon="22.10469">
        <ele>545.390657</ele>
        <time>2022-04-10T09:31:47.035Z</time>
      </trkpt>
      <trkpt lat="42.16683" lon="22.10457">
        <ele>545.500915</ele>
        <time>2022-04-10T09:31:51.044Z</time>
      </trkpt>
      <trkpt lat="42.16682" lon="22.10444">
        <ele>545.613099</ele>
        <time>2022-04-10T09:31:55.055Z</time>
      </trkpt>
      <trkpt lat="42.16681" lon="22.10431">
        <ele>545.720896</ele>
        <time>2022-04-10T09:31:59.046Z</time>
      </trkpt>
      <trkpt lat="42.1668" lon="22.10419">
        <ele>545.826878</ele>
        <time>2022-04-10T09:32:03.050Z</time>
      </trkpt>
      <trkpt lat="42.16679" lon="22.10406">
        <ele>545.937935</ele>
        <time>2022-04-10T09:32:07.042Z</time>
      </trkpt>
      <trkpt lat="42.16678" lon="22.10391">
        <ele>546.064541</ele>
        <time>2022-04-10T09:32:12.047Z</time>
      </trkpt>
      <trkpt lat="42.16678" lon="22.10379">
        <ele>546.169259</ele>
        <time>2022-04-10T09:32:16.070Z</time>
      </trkpt>
      <trkpt lat="42.16677" lon="22.10367">
        <ele>546.274937</ele>
        <time>2022-04-10T09:32:20.035Z</time>
      </trkpt>
      <trkpt lat="42.16677" lon="22.10354">
        <ele>546.382454</ele>
        <time>2022-04-10T09:32:24.056Z</time>
      </trkpt>
      <trkpt lat="42.16675" lon="22.10341">
        <ele>546.496813</ele>
        <time>2022-04-10T09:32:28.029Z</time>
      </trkpt>
      <trkpt lat="42.16674" lon="22.10328">
        <ele>546.60707</ele>
        <time>2022-04-10T09:32:32.050Z</time>
      </trkpt>
      <trkpt lat="42.16673" lon="22.10316">
        <ele>546.718303</ele>
        <time>2022-04-10T09:32:36.046Z</time>
      </trkpt>
      <trkpt lat="42.16672" lon="22.10303">
        <ele>546.830612</ele>
        <time>2022-04-10T09:32:40.039Z</time>
      </trkpt>
      <trkpt lat="42.16671" lon="22.10287">
        <ele>547.218912</ele>
        <time>2022-04-10T09:32:45.055Z</time>
      </trkpt>
      <trkpt lat="42.16669" lon="22.10274">
        <ele>547.697151</ele>
        <time>2022-04-10T09:32:49.040Z</time>
      </trkpt>
      <trkpt lat="42.16667" lon="22.10261">
        <ele>548.224816</ele>
        <time>2022-04-10T09:32:54.061Z</time>
      </trkpt>
      <trkpt lat="42.16667" lon="22.10247">
        <ele>548.733235</ele>
        <time>2022-04-10T09:32:59.043Z</time>
      </trkpt>
      <trkpt lat="42.16666" lon="22.10235">
        <ele>549.209054</ele>
        <time>2022-04-10T09:33:04.071Z</time>
      </trkpt>
      <trkpt lat="42.16666" lon="22.10221">
        <ele>549.717885</ele>
        <time>2022-04-10T09:33:10.046Z</time>
      </trkpt>
      <trkpt lat="42.16665" lon="22.10209">
        <ele>550.189074</ele>
        <time>2022-04-10T09:33:15.048Z</time>
      </trkpt>
      <trkpt lat="42.16664" lon="22.10195">
        <ele>550.735401</ele>
        <time>2022-04-10T09:33:21.054Z</time>
      </trkpt>
      <trkpt lat="42.16663" lon="22.10182">
        <ele>551.233596</ele>
        <time>2022-04-10T09:33:27.073Z</time>
      </trkpt>
      <trkpt lat="42.16661" lon="22.10168">
        <ele>551.760442</ele>
        <time>2022-04-10T09:33:33.043Z</time>
      </trkpt>
      <trkpt lat="42.1666" lon="22.10154">
        <ele>552.282044</ele>
        <time>2022-04-10T09:33:39.115Z</time>
      </trkpt>
      <trkpt lat="42.16658" lon="22.10142">
        <ele>552.75938</ele>
        <time>2022-04-10T09:33:45.038Z</time>
      </trkpt>
      <trkpt lat="42.16657" lon="22.10128">
        <ele>553.272994</ele>
        <time>2022-04-10T09:33:51.044Z</time>
      </trkpt>
      <trkpt lat="42.16657" lon="22.10114">
        <ele>553.816857</ele>
        <time>2022-04-10T09:33:57.037Z</time>
      </trkpt>
      <trkpt lat="42.16656" lon="22.10102">
        <ele>554.287565</ele>
        <time>2022-04-10T09:34:03.045Z</time>
      </trkpt>
      <trkpt lat="42.16656" lon="22.10089">
        <ele>554.784613</ele>
        <time>2022-04-10T09:34:10.055Z</time>
      </trkpt>
      <trkpt lat="42.16656" lon="22.10076">
        <ele>555.270074</ele>
        <time>2022-04-10T09:34:16.039Z</time>
      </trkpt>
      <trkpt lat="42.16655" lon="22.10062">
        <ele>555.80301</ele>
        <time>2022-04-10T09:34:22.072Z</time>
      </trkpt>
      <trkpt lat="42.16653" lon="22.1005">
        <ele>556.258233</ele>
        <time>2022-04-10T09:34:27.034Z</time>
      </trkpt>
      <trkpt lat="42.16652" lon="22.10036">
        <ele>556.759302</ele>
        <time>2022-04-10T09:34:33.040Z</time>
      </trkpt>
      <trkpt lat="42.16652" lon="22.10023">
        <ele>557.203783</ele>
        <time>2022-04-10T09:34:38.056Z</time>
      </trkpt>
      <trkpt lat="42.16651" lon="22.1001">
        <ele>557.676917</ele>
        <time>2022-04-10T09:34:43.064Z</time>
      </trkpt>
      <trkpt lat="42.16651" lon="22.09998">
        <ele>558.109603</ele>
        <time>2022-04-10T09:34:47.042Z</time>
      </trkpt>
      <trkpt lat="42.1665" lon="22.09983">
        <ele>558.621621</ele>
        <time>2022-04-10T09:34:52.093Z</time>
      </trkpt>
      <trkpt lat="42.1665" lon="22.09969">
        <ele>559.132768</ele>
        <time>2022-04-10T09:34:57.046Z</time>
      </trkpt>
      <trkpt lat="42.1665" lon="22.09956">
        <ele>559.583306</ele>
        <time>2022-04-10T09:35:01.047Z</time>
      </trkpt>
      <trkpt lat="42.16649" lon="22.09942">
        <ele>560.103652</ele>
        <time>2022-04-10T09:35:06.045Z</time>
      </trkpt>
      <trkpt lat="42.16648" lon="22.09929">
        <ele>560.541061</ele>
        <time>2022-04-10T09:35:10.040Z</time>
      </trkpt>
      <trkpt lat="42.16647" lon="22.09916">
        <ele>561.008525</ele>
        <time>2022-04-10T09:35:14.050Z</time>
      </trkpt>
      <trkpt lat="42.16646" lon="22.09902">
        <ele>561.530823</ele>
        <time>2022-04-10T09:35:19.044Z</time>
      </trkpt>
      <trkpt lat="42.16645" lon="22.09888">
        <ele>562.031725</ele>
        <time>2022-04-10T09:35:24.035Z</time>
      </trkpt>
      <trkpt lat="42.16644" lon="22.09876">
        <ele>562.461069</ele>
        <time>2022-04-10T09:35:28.065Z</time>
      </trkpt>
      <trkpt lat="42.16643" lon="22.09862">
        <ele>562.959337</ele>
        <time>2022-04-10T09:35:33.035Z</time>
      </trkpt>
      <trkpt lat="42.16642" lon="22.09848">
        <ele>563.453332</ele>
        <time>2022-04-10T09:35:38.045Z</time>
      </trkpt>
      <trkpt lat="42.16641" lon="22.09835">
        <ele>563.899663</ele>
        <time>2022-04-10T09:35:43.043Z</time>
      </trkpt>
      <trkpt lat="42.1664" lon="22.09822">
        <ele>564.37212</ele>
        <time>2022-04-10T09:35:49.047Z</time>
      </trkpt>
      <trkpt lat="42.1664" lon="22.09808">
        <ele>564.878225</ele>
        <time>2022-04-10T09:35:55.050Z</time>
      </trkpt>
      <trkpt lat="42.16639" lon="22.09795">
        <ele>565.434752</ele>
        <time>2022-04-10T09:36:01.058Z</time>
      </trkpt>
      <trkpt lat="42.16637" lon="22.09782">
        <ele>565.940562</ele>
        <time>2022-04-10T09:36:07.053Z</time>
      </trkpt>
      <trkpt lat="42.16636" lon="22.0977">
        <ele>566.437626</ele>
        <time>2022-04-10T09:36:13.042Z</time>
      </trkpt>
      <trkpt lat="42.16636" lon="22.09757">
        <ele>566.977549</ele>
        <time>2022-04-10T09:36:20.057Z</time>
      </trkpt>
      <trkpt lat="42.16635" lon="22.09745">
        <ele>567.472656</ele>
        <time>2022-04-10T09:36:26.047Z</time>
      </trkpt>
      <trkpt lat="42.16632" lon="22.09732">
        <ele>568.024635</ele>
        <time>2022-04-10T09:36:32.041Z</time>
      </trkpt>
      <trkpt lat="42.16632" lon="22.09719">
        <ele>568.577142</ele>
        <time>2022-04-10T09:36:38.048Z</time>
      </trkpt>
      <trkpt lat="42.16631" lon="22.09706">
        <ele>569.104065</ele>
        <time>2022-04-10T09:36:44.050Z</time>
      </trkpt>
      <trkpt lat="42.16631" lon="22.09692">
        <ele>569.647088</ele>
        <time>2022-04-10T09:36:51.121Z</time>
      </trkpt>
      <trkpt lat="42.16631" lon="22.09678">
        <ele>570.21996</ele>
        <time>2022-04-10T09:36:58.046Z</time>
      </trkpt>
      <trkpt lat="42.16629" lon="22.09665">
        <ele>570.758858</ele>
        <time>2022-04-10T09:37:05.056Z</time>
      </trkpt>
      <trkpt lat="42.1663" lon="22.09653">
        <ele>571.258889</ele>
        <time>2022-04-10T09:37:12.045Z</time>
      </trkpt>
      <trkpt lat="42.16631" lon="22.0964">
        <ele>571.816857</ele>
        <time>2022-04-10T09:37:19.068Z</time>
      </trkpt>
      <trkpt lat="42.16633" lon="22.09626">
        <ele>572.373386</ele>
        <time>2022-04-10T09:37:26.036Z</time>
      </trkpt>
      <trkpt lat="42.16635" lon="22.09612">
        <ele>572.962627</ele>
        <time>2022-04-10T09:37:33.038Z</time>
      </trkpt>
      <trkpt lat="42.16638" lon="22.096">
        <ele>573.470069</ele>
        <time>2022-04-10T09:37:38.051Z</time>
      </trkpt>
      <trkpt lat="42.16642" lon="22.09587">
        <ele>574.06426</ele>
        <time>2022-04-10T09:37:44.045Z</time>
      </trkpt>
      <trkpt lat="42.16646" lon="22.09576">
        <ele>574.568611</ele>
        <time>2022-04-10T09:37:49.054Z</time>
      </trkpt>
      <trkpt lat="42.16651" lon="22.09565">
        <ele>575.001638</ele>
        <time>2022-04-10T09:37:54.082Z</time>
      </trkpt>
      <trkpt lat="42.16657" lon="22.09552">
        <ele>575.471818</ele>
        <time>2022-04-10T09:37:59.055Z</time>
      </trkpt>
      <trkpt lat="42.16662" lon="22.0954">
        <ele>575.94801</ele>
        <time>2022-04-10T09:38:04.040Z</time>
      </trkpt>
      <trkpt lat="42.16669" lon="22.09527">
        <ele>576.440511</ele>
        <time>2022-04-10T09:38:09.046Z</time>
      </trkpt>
      <trkpt lat="42.16674" lon="22.09517">
        <ele>576.850571</ele>
        <time>2022-04-10T09:38:13.053Z</time>
      </trkpt>
      <trkpt lat="42.16679" lon="22.09505">
        <ele>577.294842</ele>
        <time>2022-04-10T09:38:18.053Z</time>
      </trkpt>
      <trkpt lat="42.16683" lon="22.09494">
        <ele>577.692472</ele>
        <time>2022-04-10T09:38:23.070Z</time>
      </trkpt>
      <trkpt lat="42.16688" lon="22.09484">
        <ele>578.090126</ele>
        <time>2022-04-10T09:38:28.050Z</time>
      </trkpt>
      <trkpt lat="42.16693" lon="22.09473">
        <ele>578.518679</ele>
        <time>2022-04-10T09:38:34.035Z</time>
      </trkpt>
      <trkpt lat="42.16698" lon="22.09462">
        <ele>578.937758</ele>
        <time>2022-04-10T09:38:40.073Z</time>
      </trkpt>
      <trkpt lat="42.16704" lon="22.09451">
        <ele>579.355255</ele>
        <time>2022-04-10T09:38:46.038Z</time>
      </trkpt>
      <trkpt lat="42.16708" lon="22.0944">
        <ele>579.770601</ele>
        <time>2022-04-10T09:38:52.053Z</time>
      </trkpt>
      <trkpt lat="42.16713" lon="22.0943">
        <ele>580.16545</ele>
        <time>2022-04-10T09:38:58.037Z</time>
      </trkpt>
      <trkpt lat="42.16717" lon="22.09418">
        <ele>580.601933</ele>
        <time>2022-04-10T09:39:04.050Z</time>
      </trkpt>
      <trkpt lat="42.16722" lon="22.09407">
        <ele>581.035155</ele>
        <time>2022-04-10T09:39:10.045Z</time>
      </trkpt>
      <trkpt lat="42.16727" lon="22.09396">
        <ele>581.450774</ele>
        <time>2022-04-10T09:39:16.035Z</time>
      </trkpt>
      <trkpt lat="42.16733" lon="22.09385">
        <ele>581.882954</ele>
        <time>2022-04-10T09:39:22.046Z</time>
      </trkpt>
      <trkpt lat="42.16738" lon="22.09374">
        <ele>582.315829</ele>
        <time>2022-04-10T09:39:29.035Z</time>
      </trkpt>
      <trkpt lat="42.16745" lon="22.09363">
        <ele>582.680049</ele>
        <time>2022-04-10T09:39:36.031Z</time>
      </trkpt>
      <trkpt lat="42.16753" lon="22.09356">
        <ele>582.94936</ele>
        <time>2022-04-10T09:39:43.053Z</time>
      </trkpt>
      <trkpt lat="42.16759" lon="22.09345">
        <ele>583.234513</ele>
        <time>2022-04-10T09:39:49.056Z</time>
      </trkpt>
      <trkpt lat="42.16765" lon="22.09336">
        <ele>583.491222</ele>
        <time>2022-04-10T09:39:55.039Z</time>
      </trkpt>
      <trkpt lat="42.16772" lon="22.09328">
        <ele>583.74768</ele>
        <time>2022-04-10T09:40:01.067Z</time>
      </trkpt>
      <trkpt lat="42.16778" lon="22.09317">
        <ele>584.023418</ele>
        <time>2022-04-10T09:40:07.051Z</time>
      </trkpt>
      <trkpt lat="42.16781" lon="22.09304">
        <ele>584.308938</ele>
        <time>2022-04-10T09:40:13.044Z</time>
      </trkpt>
      <trkpt lat="42.1678" lon="22.09291">
        <ele>584.587181</ele>
        <time>2022-04-10T09:40:19.046Z</time>
      </trkpt>
      <trkpt lat="42.16776" lon="22.0928">
        <ele>584.84292</ele>
        <time>2022-04-10T09:40:25.042Z</time>
      </trkpt>
      <trkpt lat="42.16768" lon="22.09273">
        <ele>585.103974</ele>
        <time>2022-04-10T09:40:31.080Z</time>
      </trkpt>
      <trkpt lat="42.16759" lon="22.09268">
        <ele>585.398275</ele>
        <time>2022-04-10T09:40:37.076Z</time>
      </trkpt>
      <trkpt lat="42.16749" lon="22.09266">
        <ele>585.658882</ele>
        <time>2022-04-10T09:40:42.052Z</time>
      </trkpt>
      <trkpt lat="42.1674" lon="22.09265">
        <ele>585.914387</ele>
        <time>2022-04-10T09:40:47.051Z</time>
      </trkpt>
      <trkpt lat="42.16731" lon="22.09261">
        <ele>586.202249</ele>
        <time>2022-04-10T09:40:52.034Z</time>
      </trkpt>
      <trkpt lat="42.1672" lon="22.09259">
        <ele>586.491386</ele>
        <time>2022-04-10T09:40:57.049Z</time>
      </trkpt>
      <trkpt lat="42.16711" lon="22.09257">
        <ele>586.766258</ele>
        <time>2022-04-10T09:41:02.046Z</time>
      </trkpt>
      <trkpt lat="42.16702" lon="22.09255">
        <ele>587.023734</ele>
        <time>2022-04-10T09:41:06.052Z</time>
      </trkpt>
      <trkpt lat="42.16692" lon="22.09252">
        <ele>587.301434</ele>
        <time>2022-04-10T09:41:10.038Z</time>
      </trkpt>
      <trkpt lat="42.16683" lon="22.09249">
        <ele>587.570414</ele>
        <time>2022-04-10T09:41:14.083Z</time>
      </trkpt>
      <trkpt lat="42.16674" lon="22.09247">
        <ele>587.585192</ele>
        <time>2022-04-10T09:41:18.049Z</time>
      </trkpt>
      <trkpt lat="42.16664" lon="22.09246">
        <ele>587.57152</ele>
        <time>2022-04-10T09:41:22.085Z</time>
      </trkpt>
      <trkpt lat="42.16653" lon="22.09244">
        <ele>587.555458</ele>
        <time>2022-04-10T09:41:27.041Z</time>
      </trkpt>
      <trkpt lat="42.16643" lon="22.09241">
        <ele>587.541702</ele>
        <time>2022-04-10T09:41:31.049Z</time>
      </trkpt>
      <trkpt lat="42.16634" lon="22.09238">
        <ele>587.528294</ele>
        <time>2022-04-10T09:41:35.028Z</time>
      </trkpt>
      <trkpt lat="42.16625" lon="22.09234">
        <ele>587.514005</ele>
        <time>2022-04-10T09:41:40.057Z</time>
      </trkpt>
      <trkpt lat="42.16615" lon="22.09227">
        <ele>587.498542</ele>
        <time>2022-04-10T09:41:45.039Z</time>
      </trkpt>
      <trkpt lat="42.16607" lon="22.09217">
        <ele>587.483136</ele>
        <time>2022-04-10T09:41:50.027Z</time>
      </trkpt>
      <trkpt lat="42.16602" lon="22.09204">
        <ele>587.468035</ele>
        <time>2022-04-10T09:41:55.040Z</time>
      </trkpt>
      <trkpt lat="42.16599" lon="22.09191">
        <ele>587.453138</ele>
        <time>2022-04-10T09:42:00.060Z</time>
      </trkpt>
      <trkpt lat="42.16597" lon="22.09179">
        <ele>587.440315</ele>
        <time>2022-04-10T09:42:04.057Z</time>
      </trkpt>
      <trkpt lat="42.16595" lon="22.09166">
        <ele>587.426801</ele>
        <time>2022-04-10T09:42:07.080Z</time>
      </trkpt>
      <trkpt lat="42.16594" lon="22.09151">
        <ele>587.410423</ele>
        <time>2022-04-10T09:42:11.026Z</time>
      </trkpt>
      <trkpt lat="42.16594" lon="22.09137">
        <ele>587.395905</ele>
        <time>2022-04-10T09:42:15.073Z</time>
      </trkpt>
      <trkpt lat="42.16595" lon="22.09122">
        <ele>587.379991</ele>
        <time>2022-04-10T09:42:19.032Z</time>
      </trkpt>
      <trkpt lat="42.16597" lon="22.0911">
        <ele>587.36709</ele>
        <time>2022-04-10T09:42:22.051Z</time>
      </trkpt>
      <trkpt lat="42.16603" lon="22.09098">
        <ele>587.351864</ele>
        <time>2022-04-10T09:42:25.047Z</time>
      </trkpt>
      <trkpt lat="42.16612" lon="22.0909">
        <ele>587.092863</ele>
        <time>2022-04-10T09:42:28.040Z</time>
      </trkpt>
      <trkpt lat="42.16621" lon="22.09084">
        <ele>586.414647</ele>
        <time>2022-04-10T09:42:31.052Z</time>
      </trkpt>
      <trkpt lat="42.1663" lon="22.09077">
        <ele>585.736086</ele>
        <time>2022-04-10T09:42:34.044Z</time>
      </trkpt>
      <trkpt lat="42.16637" lon="22.09067">
        <ele>585.077978</ele>
        <time>2022-04-10T09:42:37.042Z</time>
      </trkpt>
      <trkpt lat="42.16639" lon="22.09052">
        <ele>584.351168</ele>
        <time>2022-04-10T09:42:40.043Z</time>
      </trkpt>
      <trkpt lat="42.16639" lon="22.09037">
        <ele>583.612532</ele>
        <time>2022-04-10T09:42:43.125Z</time>
      </trkpt>
      <trkpt lat="42.16636" lon="22.09022">
        <ele>582.874714</ele>
        <time>2022-04-10T09:42:46.054Z</time>
      </trkpt>
      <trkpt lat="42.16634" lon="22.09008">
        <ele>582.128877</ele>
        <time>2022-04-10T09:42:49.031Z</time>
      </trkpt>
      <trkpt lat="42.16629" lon="22.08991">
        <ele>581.286483</ele>
        <time>2022-04-10T09:42:52.043Z</time>
      </trkpt>
      <trkpt lat="42.16624" lon="22.08978">
        <ele>580.528942</ele>
        <time>2022-04-10T09:42:55.048Z</time>
      </trkpt>
      <trkpt lat="42.16618" lon="22.08964">
        <ele>579.757663</ele>
        <time>2022-04-10T09:42:58.047Z</time>
      </trkpt>
      <trkpt lat="42.16612" lon="22.08951">
        <ele>579.011835</ele>
        <time>2022-04-10T09:43:01.042Z</time>
      </trkpt>
      <trkpt lat="42.16605" lon="22.08939">
        <ele>578.262215</ele>
        <time>2022-04-10T09:43:04.055Z</time>
      </trkpt>
      <trkpt lat="42.16595" lon="22.08927">
        <ele>577.408066</ele>
        <time>2022-04-10T09:43:07.043Z</time>
      </trkpt>
      <trkpt lat="42.16587" lon="22.0892">
        <ele>576.777171</ele>
        <time>2022-04-10T09:43:09.055Z</time>
      </trkpt>
      <trkpt lat="42.16579" lon="22.08913">
        <ele>576.154371</ele>
        <time>2022-04-10T09:43:11.046Z</time>
      </trkpt>
      <trkpt lat="42.16571" lon="22.08906">
        <ele>575.528553</ele>
        <time>2022-04-10T09:43:13.074Z</time>
      </trkpt>
      <trkpt lat="42.16563" lon="22.08899">
        <ele>574.793064</ele>
        <time>2022-04-10T09:43:15.036Z</time>
      </trkpt>
      <trkpt lat="42.16555" lon="22.08891">
        <ele>574.067446</ele>
        <time>2022-04-10T09:43:17.033Z</time>
      </trkpt>
      <trkpt lat="42.16545" lon="22.08882">
        <ele>573.112887</ele>
        <time>2022-04-10T09:43:20.052Z</time>
      </trkpt>
      <trkpt lat="42.16535" lon="22.08872">
        <ele>572.217038</ele>
        <time>2022-04-10T09:43:23.052Z</time>
      </trkpt>
      <trkpt lat="42.16525" lon="22.08864">
        <ele>571.352444</ele>
        <time>2022-04-10T09:43:26.038Z</time>
      </trkpt>
      <trkpt lat="42.16518" lon="22.08856">
        <ele>570.666371</ele>
        <time>2022-04-10T09:43:28.052Z</time>
      </trkpt>
      <trkpt lat="42.16508" lon="22.08846">
        <ele>569.702479</ele>
        <time>2022-04-10T09:43:31.045Z</time>
      </trkpt>
      <trkpt lat="42.16497" lon="22.08836">
        <ele>568.722784</ele>
        <time>2022-04-10T09:43:34.053Z</time>
      </trkpt>
      <trkpt lat="42.16486" lon="22.08828">
        <ele>567.761578</ele>
        <time>2022-04-10T09:43:37.038Z</time>
      </trkpt>
      <trkpt lat="42.16475" lon="22.08818">
        <ele>566.772366</ele>
        <time>2022-04-10T09:43:40.059Z</time>
      </trkpt>
      <trkpt lat="42.16467" lon="22.08812">
        <ele>566.066036</ele>
        <time>2022-04-10T09:43:42.061Z</time>
      </trkpt>
      <trkpt lat="42.16458" lon="22.08807">
        <ele>565.363594</ele>
        <time>2022-04-10T09:43:44.098Z</time>
      </trkpt>
      <trkpt lat="42.16449" lon="22.08802">
        <ele>564.656417</ele>
        <time>2022-04-10T09:43:46.041Z</time>
      </trkpt>
      <trkpt lat="42.1644" lon="22.08797">
        <ele>563.928423</ele>
        <time>2022-04-10T09:43:48.054Z</time>
      </trkpt>
      <trkpt lat="42.16432" lon="22.08792">
        <ele>563.227503</ele>
        <time>2022-04-10T09:43:50.054Z</time>
      </trkpt>
      <trkpt lat="42.16423" lon="22.08788">
        <ele>562.520245</ele>
        <time>2022-04-10T09:43:52.064Z</time>
      </trkpt>
      <trkpt lat="42.16414" lon="22.08783">
        <ele>561.929816</ele>
        <time>2022-04-10T09:43:54.053Z</time>
      </trkpt>
      <trkpt lat="42.16405" lon="22.08778">
        <ele>561.595745</ele>
        <time>2022-04-10T09:43:56.062Z</time>
      </trkpt>
      <trkpt lat="42.16395" lon="22.08773">
        <ele>561.264807</ele>
        <time>2022-04-10T09:43:58.062Z</time>
      </trkpt>
      <trkpt lat="42.16383" lon="22.08767">
        <ele>560.840629</ele>
        <time>2022-04-10T09:44:01.079Z</time>
      </trkpt>
      <trkpt lat="42.16372" lon="22.0876">
        <ele>560.462611</ele>
        <time>2022-04-10T09:44:04.046Z</time>
      </trkpt>
      <trkpt lat="42.16362" lon="22.08751">
        <ele>560.092183</ele>
        <time>2022-04-10T09:44:07.084Z</time>
      </trkpt>
      <trkpt lat="42.16355" lon="22.0874">
        <ele>559.746915</ele>
        <time>2022-04-10T09:44:10.051Z</time>
      </trkpt>
      <trkpt lat="42.16351" lon="22.08729">
        <ele>559.44798</ele>
        <time>2022-04-10T09:44:13.088Z</time>
      </trkpt>
      <trkpt lat="42.16349" lon="22.08716">
        <ele>559.129731</ele>
        <time>2022-04-10T09:44:16.037Z</time>
      </trkpt>
      <trkpt lat="42.16345" lon="22.08703">
        <ele>558.789101</ele>
        <time>2022-04-10T09:44:19.046Z</time>
      </trkpt>
      <trkpt lat="42.16342" lon="22.08688">
        <ele>558.439524</ele>
        <time>2022-04-10T09:44:22.045Z</time>
      </trkpt>
      <trkpt lat="42.16338" lon="22.08676">
        <ele>558.123073</ele>
        <time>2022-04-10T09:44:25.073Z</time>
      </trkpt>
      <trkpt lat="42.16333" lon="22.08664">
        <ele>557.781173</ele>
        <time>2022-04-10T09:44:28.065Z</time>
      </trkpt>
      <trkpt lat="42.16326" lon="22.08649">
        <ele>557.366133</ele>
        <time>2022-04-10T09:44:31.046Z</time>
      </trkpt>
      <trkpt lat="42.16321" lon="22.08638">
        <ele>557.062358</ele>
        <time>2022-04-10T09:44:33.041Z</time>
      </trkpt>
      <trkpt lat="42.16315" lon="22.08628">
        <ele>556.750766</ele>
        <time>2022-04-10T09:44:35.081Z</time>
      </trkpt>
      <trkpt lat="42.16305" lon="22.08616">
        <ele>556.336248</ele>
        <time>2022-04-10T09:44:38.042Z</time>
      </trkpt>
      <trkpt lat="42.16296" lon="22.08606">
        <ele>556.335018</ele>
        <time>2022-04-10T09:44:41.032Z</time>
      </trkpt>
      <trkpt lat="42.16289" lon="22.08597">
        <ele>556.436376</ele>
        <time>2022-04-10T09:44:43.053Z</time>
      </trkpt>
      <trkpt lat="42.16282" lon="22.08589">
        <ele>556.539143</ele>
        <time>2022-04-10T09:44:45.049Z</time>
      </trkpt>
      <trkpt lat="42.16272" lon="22.0858">
        <ele>556.66442</ele>
        <time>2022-04-10T09:44:48.026Z</time>
      </trkpt>
      <trkpt lat="42.16264" lon="22.08571">
        <ele>556.770499</ele>
        <time>2022-04-10T09:44:51.042Z</time>
      </trkpt>
      <trkpt lat="42.16257" lon="22.08563">
        <ele>556.868707</ele>
        <time>2022-04-10T09:44:54.084Z</time>
      </trkpt>
      <trkpt lat="42.16251" lon="22.08553">
        <ele>556.97573</ele>
        <time>2022-04-10T09:44:58.037Z</time>
      </trkpt>
      <trkpt lat="42.16243" lon="22.08542">
        <ele>557.090267</ele>
        <time>2022-04-10T09:45:03.050Z</time>
      </trkpt>
      <trkpt lat="42.16238" lon="22.0853">
        <ele>557.199922</ele>
        <time>2022-04-10T09:45:08.035Z</time>
      </trkpt>
      <trkpt lat="42.16232" lon="22.0852">
        <ele>557.298983</ele>
        <time>2022-04-10T09:45:12.043Z</time>
      </trkpt>
      <trkpt lat="42.16226" lon="22.0851">
        <ele>557.407013</ele>
        <time>2022-04-10T09:45:16.033Z</time>
      </trkpt>
      <trkpt lat="42.1622" lon="22.08499">
        <ele>557.513639</ele>
        <time>2022-04-10T09:45:20.051Z</time>
      </trkpt>
      <trkpt lat="42.16216" lon="22.08487">
        <ele>557.611366</ele>
        <time>2022-04-10T09:45:24.054Z</time>
      </trkpt>
      <trkpt lat="42.16213" lon="22.08474">
        <ele>557.720139</ele>
        <time>2022-04-10T09:45:28.039Z</time>
      </trkpt>
      <trkpt lat="42.16213" lon="22.08459">
        <ele>557.83675</ele>
        <time>2022-04-10T09:45:32.074Z</time>
      </trkpt>
      <trkpt lat="42.16215" lon="22.08447">
        <ele>557.934339</ele>
        <time>2022-04-10T09:45:37.043Z</time>
      </trkpt>
      <trkpt lat="42.16221" lon="22.08439">
        <ele>558.031774</ele>
        <time>2022-04-10T09:45:43.072Z</time>
      </trkpt>
      <trkpt lat="42.1623" lon="22.08433">
        <ele>558.135189</ele>
        <time>2022-04-10T09:45:49.044Z</time>
      </trkpt>
      <trkpt lat="42.1624" lon="22.08428">
        <ele>558.55112</ele>
        <time>2022-04-10T09:45:56.026Z</time>
      </trkpt>
      <trkpt lat="42.16248" lon="22.08421">
        <ele>558.964453</ele>
        <time>2022-04-10T09:46:02.055Z</time>
      </trkpt>
      <trkpt lat="42.16257" lon="22.08415">
        <ele>559.387056</ele>
        <time>2022-04-10T09:46:08.042Z</time>
      </trkpt>
      <trkpt lat="42.16265" lon="22.0841">
        <ele>559.7879</ele>
        <time>2022-04-10T09:46:14.027Z</time>
      </trkpt>
      <trkpt lat="42.16274" lon="22.08405">
        <ele>560.222023</ele>
        <time>2022-04-10T09:46:23.055Z</time>
      </trkpt>
      <trkpt lat="42.16284" lon="22.08401">
        <ele>560.666908</ele>
        <time>2022-04-10T09:46:29.053Z</time>
      </trkpt>
      <trkpt lat="42.16294" lon="22.08396">
        <ele>561.129686</ele>
        <time>2022-04-10T09:46:35.063Z</time>
      </trkpt>
      <trkpt lat="42.16302" lon="22.08391">
        <ele>561.531907</ele>
        <time>2022-04-10T09:46:40.036Z</time>
      </trkpt>
      <trkpt lat="42.16311" lon="22.08386">
        <ele>561.949371</ele>
        <time>2022-04-10T09:46:46.045Z</time>
      </trkpt>
      <trkpt lat="42.1632" lon="22.08381">
        <ele>562.379521</ele>
        <time>2022-04-10T09:46:53.057Z</time>
      </trkpt>
      <trkpt lat="42.16329" lon="22.08375">
        <ele>562.824607</ele>
        <time>2022-04-10T09:47:00.037Z</time>
      </trkpt>
      <trkpt lat="42.16337" lon="22.08369">
        <ele>563.240103</ele>
        <time>2022-04-10T09:47:06.046Z</time>
      </trkpt>
      <trkpt lat="42.16346" lon="22.08366">
        <ele>563.642888</ele>
        <time>2022-04-10T09:47:12.053Z</time>
      </trkpt>
      <trkpt lat="42.16356" lon="22.08362">
        <ele>564.092856</ele>
        <time>2022-04-10T09:47:19.053Z</time>
      </trkpt>
      <trkpt lat="42.16365" lon="22.08358">
        <ele>564.503754</ele>
        <time>2022-04-10T09:47:25.063Z</time>
      </trkpt>
      <trkpt lat="42.16375" lon="22.08354">
        <ele>564.947853</ele>
        <time>2022-04-10T09:47:32.036Z</time>
      </trkpt>
      <trkpt lat="42.16384" lon="22.08347">
        <ele>565.391144</ele>
        <time>2022-04-10T09:47:40.030Z</time>
      </trkpt>
      <trkpt lat="42.16389" lon="22.08337">
        <ele>565.795753</ele>
        <time>2022-04-10T09:47:46.040Z</time>
      </trkpt>
      <trkpt lat="42.16393" lon="22.08325">
        <ele>566.372687</ele>
        <time>2022-04-10T09:47:52.044Z</time>
      </trkpt>
      <trkpt lat="42.16395" lon="22.08312">
        <ele>567.172101</ele>
        <time>2022-04-10T09:47:59.061Z</time>
      </trkpt>
      <trkpt lat="42.16396" lon="22.08299">
        <ele>567.909806</ele>
        <time>2022-04-10T09:48:05.060Z</time>
      </trkpt>
      <trkpt lat="42.16396" lon="22.08286">
        <ele>568.647759</ele>
        <time>2022-04-10T09:48:12.034Z</time>
      </trkpt>
      <trkpt lat="42.16395" lon="22.08273">
        <ele>569.437378</ele>
        <time>2022-04-10T09:48:19.054Z</time>
      </trkpt>
      <trkpt lat="42.16396" lon="22.08259">
        <ele>570.20879</ele>
        <time>2022-04-10T09:48:26.046Z</time>
      </trkpt>
      <trkpt lat="42.16395" lon="22.08246">
        <ele>571.003584</ele>
        <time>2022-04-10T09:48:33.046Z</time>
      </trkpt>
      <trkpt lat="42.16396" lon="22.08231">
        <ele>571.829402</ele>
        <time>2022-04-10T09:48:40.053Z</time>
      </trkpt>
      <trkpt lat="42.16396" lon="22.08219">
        <ele>572.578113</ele>
        <time>2022-04-10T09:48:46.043Z</time>
      </trkpt>
      <trkpt lat="42.16397" lon="22.08205">
        <ele>573.386017</ele>
        <time>2022-04-10T09:48:53.043Z</time>
      </trkpt>
      <trkpt lat="42.16398" lon="22.08191">
        <ele>574.153427</ele>
        <time>2022-04-10T09:49:00.043Z</time>
      </trkpt>
      <trkpt lat="42.16401" lon="22.08179">
        <ele>574.912287</ele>
        <time>2022-04-10T09:49:07.052Z</time>
      </trkpt>
      <trkpt lat="42.16402" lon="22.08166">
        <ele>575.685537</ele>
        <time>2022-04-10T09:49:14.097Z</time>
      </trkpt>
      <trkpt lat="42.16402" lon="22.08154">
        <ele>576.3988</ele>
        <time>2022-04-10T09:49:21.043Z</time>
      </trkpt>
      <trkpt lat="42.16404" lon="22.0814">
        <ele>577.20282</ele>
        <time>2022-04-10T09:49:28.050Z</time>
      </trkpt>
      <trkpt lat="42.16406" lon="22.08127">
        <ele>577.988681</ele>
        <time>2022-04-10T09:49:36.046Z</time>
      </trkpt>
      <trkpt lat="42.16407" lon="22.08114">
        <ele>578.725347</ele>
        <time>2022-04-10T09:49:43.076Z</time>
      </trkpt>
      <trkpt lat="42.16408" lon="22.08101">
        <ele>579.498595</ele>
        <time>2022-04-10T09:49:51.026Z</time>
      </trkpt>
      <trkpt lat="42.1641" lon="22.08088">
        <ele>580.235641</ele>
        <time>2022-04-10T09:49:58.043Z</time>
      </trkpt>
      <trkpt lat="42.16411" lon="22.08075">
        <ele>580.91754</ele>
        <time>2022-04-10T09:50:05.098Z</time>
      </trkpt>
      <trkpt lat="42.16413" lon="22.08063">
        <ele>581.589846</ele>
        <time>2022-04-10T09:50:12.057Z</time>
      </trkpt>
      <trkpt lat="42.16416" lon="22.08049">
        <ele>582.311407</ele>
        <time>2022-04-10T09:50:19.046Z</time>
      </trkpt>
      <trkpt lat="42.16417" lon="22.08036">
        <ele>582.994079</ele>
        <time>2022-04-10T09:50:26.057Z</time>
      </trkpt>
      <trkpt lat="42.16418" lon="22.08023">
        <ele>583.724361</ele>
        <time>2022-04-10T09:50:32.063Z</time>
      </trkpt>
      <trkpt lat="42.1642" lon="22.0801">
        <ele>584.387948</ele>
        <time>2022-04-10T09:50:38.054Z</time>
      </trkpt>
      <trkpt lat="42.1642" lon="22.07997">
        <ele>585.098966</ele>
        <time>2022-04-10T09:50:45.041Z</time>
      </trkpt>
      <trkpt lat="42.16418" lon="22.07984">
        <ele>585.789598</ele>
        <time>2022-04-10T09:50:52.061Z</time>
      </trkpt>
      <trkpt lat="42.16416" lon="22.0797">
        <ele>586.540548</ele>
        <time>2022-04-10T09:50:58.033Z</time>
      </trkpt>
      <trkpt lat="42.16415" lon="22.07957">
        <ele>587.237431</ele>
        <time>2022-04-10T09:51:03.038Z</time>
      </trkpt>
      <trkpt lat="42.16413" lon="22.07943">
        <ele>587.981111</ele>
        <time>2022-04-10T09:51:08.057Z</time>
      </trkpt>
      <trkpt lat="42.16412" lon="22.07931">
        <ele>588.624783</ele>
        <time>2022-04-10T09:51:12.077Z</time>
      </trkpt>
      <trkpt lat="42.16409" lon="22.07916">
        <ele>589.422822</ele>
        <time>2022-04-10T09:51:16.053Z</time>
      </trkpt>
      <trkpt lat="42.16407" lon="22.07901">
        <ele>590.215041</ele>
        <time>2022-04-10T09:51:20.035Z</time>
      </trkpt>
      <trkpt lat="42.16403" lon="22.07888">
        <ele>590.947485</ele>
        <time>2022-04-10T09:51:24.056Z</time>
      </trkpt>
      <trkpt lat="42.16399" lon="22.07876">
        <ele>591.618348</ele>
        <time>2022-04-10T09:51:28.050Z</time>
      </trkpt>
      <trkpt lat="42.16397" lon="22.07865">
        <ele>592.261957</ele>
        <time>2022-04-10T09:51:31.053Z</time>
      </trkpt>
      <trkpt lat="42.16393" lon="22.07853">
        <ele>592.736341</ele>
        <time>2022-04-10T09:51:34.086Z</time>
      </trkpt>
      <trkpt lat="42.16389" lon="22.07839">
        <ele>591.6819</ele>
        <time>2022-04-10T09:51:37.042Z</time>
      </trkpt>
      <trkpt lat="42.16384" lon="22.07823">
        <ele>590.449407</ele>
        <time>2022-04-10T09:51:40.063Z</time>
      </trkpt>
      <trkpt lat="42.1638" lon="22.07811">
        <ele>589.531379</ele>
        <time>2022-04-10T09:51:42.071Z</time>
      </trkpt>
      <trkpt lat="42.16376" lon="22.07797">
        <ele>588.47617</ele>
        <time>2022-04-10T09:51:44.106Z</time>
      </trkpt>
      <trkpt lat="42.16371" lon="22.07783">
        <ele>587.334205</ele>
        <time>2022-04-10T09:51:46.084Z</time>
      </trkpt>
      <trkpt lat="42.16366" lon="22.0777">
        <ele>586.31154</ele>
        <time>2022-04-10T09:51:48.053Z</time>
      </trkpt>
      <trkpt lat="42.16362" lon="22.07758">
        <ele>585.428398</ele>
        <time>2022-04-10T09:51:50.060Z</time>
      </trkpt>
      <trkpt lat="42.16358" lon="22.07747">
        <ele>584.490431</ele>
        <time>2022-04-10T09:51:52.047Z</time>
      </trkpt>
      <trkpt lat="42.16353" lon="22.07735">
        <ele>583.53509</ele>
        <time>2022-04-10T09:51:54.035Z</time>
      </trkpt>
      <trkpt lat="42.16349" lon="22.07722">
        <ele>582.550231</ele>
        <time>2022-04-10T09:51:56.054Z</time>
      </trkpt>
      <trkpt lat="42.16344" lon="22.0771">
        <ele>581.577858</ele>
        <time>2022-04-10T09:51:58.055Z</time>
      </trkpt>
      <trkpt lat="42.1634" lon="22.07697">
        <ele>580.591032</ele>
        <time>2022-04-10T09:52:00.055Z</time>
      </trkpt>
      <trkpt lat="42.16335" lon="22.07685">
        <ele>579.591647</ele>
        <time>2022-04-10T09:52:02.044Z</time>
      </trkpt>
      <trkpt lat="42.16331" lon="22.07672">
        <ele>578.611225</ele>
        <time>2022-04-10T09:52:04.044Z</time>
      </trkpt>
      <trkpt lat="42.16326" lon="22.07659">
        <ele>577.535642</ele>
        <time>2022-04-10T09:52:06.046Z</time>
      </trkpt>
      <trkpt lat="42.16321" lon="22.07645">
        <ele>576.489687</ele>
        <time>2022-04-10T09:52:08.041Z</time>
      </trkpt>
      <trkpt lat="42.16315" lon="22.07634">
        <ele>575.430484</ele>
        <time>2022-04-10T09:52:10.048Z</time>
      </trkpt>
      <trkpt lat="42.1631" lon="22.07624">
        <ele>574.160789</ele>
        <time>2022-04-10T09:52:12.056Z</time>
      </trkpt>
      <trkpt lat="42.16298" lon="22.07616">
        <ele>572.408015</ele>
        <time>2022-04-10T09:52:15.044Z</time>
      </trkpt>
      <trkpt lat="42.16285" lon="22.07612">
        <ele>570.514014</ele>
        <time>2022-04-10T09:52:18.065Z</time>
      </trkpt>
      <trkpt lat="42.16275" lon="22.07611">
        <ele>569.088516</ele>
        <time>2022-04-10T09:52:20.044Z</time>
      </trkpt>
      <trkpt lat="42.16264" lon="22.07612">
        <ele>567.593907</ele>
        <time>2022-04-10T09:52:22.038Z</time>
      </trkpt>
      <trkpt lat="42.16253" lon="22.07613">
        <ele>566.109718</ele>
        <time>2022-04-10T09:52:24.039Z</time>
      </trkpt>
      <trkpt lat="42.16242" lon="22.07614">
        <ele>564.569574</ele>
        <time>2022-04-10T09:52:26.051Z</time>
      </trkpt>
      <trkpt lat="42.16233" lon="22.07614">
        <ele>563.240391</ele>
        <time>2022-04-10T09:52:28.056Z</time>
      </trkpt>
      <trkpt lat="42.1622" lon="22.07614">
        <ele>561.525337</ele>
        <time>2022-04-10T09:52:31.040Z</time>
      </trkpt>
      <trkpt lat="42.1621" lon="22.07612">
        <ele>560.110332</ele>
        <time>2022-04-10T09:52:33.042Z</time>
      </trkpt>
      <trkpt lat="42.162" lon="22.07608">
        <ele>558.664787</ele>
        <time>2022-04-10T09:52:35.043Z</time>
      </trkpt>
      <trkpt lat="42.16191" lon="22.07604">
        <ele>557.334564</ele>
        <time>2022-04-10T09:52:37.041Z</time>
      </trkpt>
      <trkpt lat="42.16179" lon="22.07598">
        <ele>555.588032</ele>
        <time>2022-04-10T09:52:40.059Z</time>
      </trkpt>
      <trkpt lat="42.16167" lon="22.07591">
        <ele>553.792508</ele>
        <time>2022-04-10T09:52:43.045Z</time>
      </trkpt>
      <trkpt lat="42.16159" lon="22.07579">
        <ele>552.153064</ele>
        <time>2022-04-10T09:52:46.056Z</time>
      </trkpt>
      <trkpt lat="42.16157" lon="22.07563">
        <ele>550.697953</ele>
        <time>2022-04-10T09:52:49.062Z</time>
      </trkpt>
      <trkpt lat="42.16156" lon="22.07551">
        <ele>550.34623</ele>
        <time>2022-04-10T09:52:51.050Z</time>
      </trkpt>
      <trkpt lat="42.16156" lon="22.07535">
        <ele>549.912017</ele>
        <time>2022-04-10T09:52:54.049Z</time>
      </trkpt>
      <trkpt lat="42.16155" lon="22.07522">
        <ele>549.550927</ele>
        <time>2022-04-10T09:52:57.041Z</time>
      </trkpt>
      <trkpt lat="42.16152" lon="22.07506">
        <ele>549.092678</ele>
        <time>2022-04-10T09:53:00.048Z</time>
      </trkpt>
      <trkpt lat="42.16144" lon="22.07492">
        <ele>548.617141</ele>
        <time>2022-04-10T09:53:03.055Z</time>
      </trkpt>
      <trkpt lat="42.16135" lon="22.0748">
        <ele>548.148953</ele>
        <time>2022-04-10T09:53:06.053Z</time>
      </trkpt>
      <trkpt lat="42.16128" lon="22.0747">
        <ele>547.772571</ele>
        <time>2022-04-10T09:53:08.047Z</time>
      </trkpt>
      <trkpt lat="42.16121" lon="22.0746">
        <ele>547.388337</ele>
        <time>2022-04-10T09:53:10.079Z</time>
      </trkpt>
      <trkpt lat="42.16114" lon="22.07451">
        <ele>547.034855</ele>
        <time>2022-04-10T09:53:12.068Z</time>
      </trkpt>
      <trkpt lat="42.16106" lon="22.07438">
        <ele>546.55503</ele>
        <time>2022-04-10T09:53:15.053Z</time>
      </trkpt>
      <trkpt lat="42.161" lon="22.0743">
        <ele>546.217255</ele>
        <time>2022-04-10T09:53:17.081Z</time>
      </trkpt>
      <trkpt lat="42.16091" lon="22.07417">
        <ele>545.743566</ele>
        <time>2022-04-10T09:53:20.050Z</time>
      </trkpt>
      <trkpt lat="42.16082" lon="22.07404">
        <ele>545.243911</ele>
        <time>2022-04-10T09:53:23.030Z</time>
      </trkpt>
      <trkpt lat="42.16073" lon="22.0739">
        <ele>544.751623</ele>
        <time>2022-04-10T09:53:26.078Z</time>
      </trkpt>
      <trkpt lat="42.16064" lon="22.07378">
        <ele>544.253313</ele>
        <time>2022-04-10T09:53:29.045Z</time>
      </trkpt>
      <trkpt lat="42.16056" lon="22.07365">
        <ele>544.903017</ele>
        <time>2022-04-10T09:53:32.050Z</time>
      </trkpt>
      <trkpt lat="42.16049" lon="22.07353">
        <ele>546.124413</ele>
        <time>2022-04-10T09:53:35.043Z</time>
      </trkpt>
      <trkpt lat="42.16044" lon="22.0734">
        <ele>547.307438</ele>
        <time>2022-04-10T09:53:38.053Z</time>
      </trkpt>
      <trkpt lat="42.1604" lon="22.07328">
        <ele>548.378778</ele>
        <time>2022-04-10T09:53:41.042Z</time>
      </trkpt>
      <trkpt lat="42.16036" lon="22.07317">
        <ele>549.393935</ele>
        <time>2022-04-10T09:53:44.043Z</time>
      </trkpt>
      <trkpt lat="42.16032" lon="22.07304">
        <ele>550.55431</ele>
        <time>2022-04-10T09:53:48.033Z</time>
      </trkpt>
      <trkpt lat="42.1603" lon="22.07291">
        <ele>551.658936</ele>
        <time>2022-04-10T09:53:53.043Z</time>
      </trkpt>
      <trkpt lat="42.16028" lon="22.07275">
        <ele>552.904532</ele>
        <time>2022-04-10T09:53:57.028Z</time>
      </trkpt>
      <trkpt lat="42.16028" lon="22.07263">
        <ele>553.934919</ele>
        <time>2022-04-10T09:54:00.045Z</time>
      </trkpt>
      <trkpt lat="42.16029" lon="22.07247">
        <ele>555.233068</ele>
        <time>2022-04-10T09:54:04.053Z</time>
      </trkpt>
      <trkpt lat="42.1603" lon="22.07232">
        <ele>556.505679</ele>
        <time>2022-04-10T09:54:08.037Z</time>
      </trkpt>
      <trkpt lat="42.16031" lon="22.07217">
        <ele>557.729569</ele>
        <time>2022-04-10T09:54:12.059Z</time>
      </trkpt>
      <trkpt lat="42.16033" lon="22.07202">
        <ele>558.948079</ele>
        <time>2022-04-10T09:54:16.080Z</time>
      </trkpt>
      <trkpt lat="42.16035" lon="22.07187">
        <ele>560.151708</ele>
        <time>2022-04-10T09:54:21.062Z</time>
      </trkpt>
      <trkpt lat="42.16037" lon="22.07174">
        <ele>561.227912</ele>
        <time>2022-04-10T09:54:26.030Z</time>
      </trkpt>
      <trkpt lat="42.16038" lon="22.07161">
        <ele>562.328195</ele>
        <time>2022-04-10T09:54:31.043Z</time>
      </trkpt>
      <trkpt lat="42.1604" lon="22.07148">
        <ele>563.43654</ele>
        <time>2022-04-10T09:54:37.036Z</time>
      </trkpt>
      <trkpt lat="42.16041" lon="22.07135">
        <ele>564.243811</ele>
        <time>2022-04-10T09:54:44.047Z</time>
      </trkpt>
      <trkpt lat="42.16043" lon="22.07121">
        <ele>564.863637</ele>
        <time>2022-04-10T09:54:51.082Z</time>
      </trkpt>
      <trkpt lat="42.16045" lon="22.07108">
        <ele>565.515109</ele>
        <time>2022-04-10T09:54:57.075Z</time>
      </trkpt>
      <trkpt lat="42.16046" lon="22.07094">
        <ele>566.166196</ele>
        <time>2022-04-10T09:55:04.055Z</time>
      </trkpt>
      <trkpt lat="42.16047" lon="22.0708">
        <ele>566.812841</ele>
        <time>2022-04-10T09:55:11.033Z</time>
      </trkpt>
      <trkpt lat="42.16047" lon="22.07067">
        <ele>567.425638</ele>
        <time>2022-04-10T09:55:18.040Z</time>
      </trkpt>
      <trkpt lat="42.16046" lon="22.07054">
        <ele>568.002026</ele>
        <time>2022-04-10T09:55:24.065Z</time>
      </trkpt>
      <trkpt lat="42.16046" lon="22.0704">
        <ele>568.647214</ele>
        <time>2022-04-10T09:55:31.049Z</time>
      </trkpt>
      <trkpt lat="42.16048" lon="22.07027">
        <ele>569.265599</ele>
        <time>2022-04-10T09:55:38.035Z</time>
      </trkpt>
      <trkpt lat="42.1605" lon="22.07015">
        <ele>569.843185</ele>
        <time>2022-04-10T09:55:44.054Z</time>
      </trkpt>
      <trkpt lat="42.16052" lon="22.07001">
        <ele>570.491274</ele>
        <time>2022-04-10T09:55:51.040Z</time>
      </trkpt>
      <trkpt lat="42.16054" lon="22.06988">
        <ele>571.121158</ele>
        <time>2022-04-10T09:55:58.038Z</time>
      </trkpt>
      <trkpt lat="42.16056" lon="22.06976">
        <ele>571.693565</ele>
        <time>2022-04-10T09:56:04.046Z</time>
      </trkpt>
      <trkpt lat="42.1606" lon="22.06964">
        <ele>572.303501</ele>
        <time>2022-04-10T09:56:11.037Z</time>
      </trkpt>
      <trkpt lat="42.16064" lon="22.06952">
        <ele>572.920728</ele>
        <time>2022-04-10T09:56:18.059Z</time>
      </trkpt>
      <trkpt lat="42.16069" lon="22.0694">
        <ele>573.546565</ele>
        <time>2022-04-10T09:56:25.092Z</time>
      </trkpt>
      <trkpt lat="42.16075" lon="22.06929">
        <ele>574.169765</ele>
        <time>2022-04-10T09:56:33.052Z</time>
      </trkpt>
      <trkpt lat="42.16079" lon="22.06918">
        <ele>574.738768</ele>
        <time>2022-04-10T09:56:39.063Z</time>
      </trkpt>
      <trkpt lat="42.16083" lon="22.06906">
        <ele>575.337044</ele>
        <time>2022-04-10T09:56:46.070Z</time>
      </trkpt>
      <trkpt lat="42.16087" lon="22.06893">
        <ele>575.875545</ele>
        <time>2022-04-10T09:56:53.100Z</time>
      </trkpt>
      <trkpt lat="42.16089" lon="22.0688">
        <ele>576.423502</ele>
        <time>2022-04-10T09:57:00.055Z</time>
      </trkpt>
      <trkpt lat="42.16091" lon="22.06867">
        <ele>576.936354</ele>
        <time>2022-04-10T09:57:07.084Z</time>
      </trkpt>
      <trkpt lat="42.16089" lon="22.06853">
        <ele>577.464432</ele>
        <time>2022-04-10T09:57:15.074Z</time>
      </trkpt>
      <trkpt lat="42.16086" lon="22.06841">
        <ele>577.9853</ele>
        <time>2022-04-10T09:57:22.037Z</time>
      </trkpt>
      <trkpt lat="42.16083" lon="22.06828">
        <ele>578.506921</ele>
        <time>2022-04-10T09:57:31.054Z</time>
      </trkpt>
      <trkpt lat="42.16081" lon="22.06816">
        <ele>579.003222</ele>
        <time>2022-04-10T09:57:38.115Z</time>
      </trkpt>
      <trkpt lat="42.16078" lon="22.06803">
        <ele>579.521433</ele>
        <time>2022-04-10T09:57:44.055Z</time>
      </trkpt>
      <trkpt lat="42.16074" lon="22.0679">
        <ele>580.076402</ele>
        <time>2022-04-10T09:57:50.038Z</time>
      </trkpt>
      <trkpt lat="42.16071" lon="22.06777">
        <ele>580.586725</ele>
        <time>2022-04-10T09:57:56.050Z</time>
      </trkpt>
      <trkpt lat="42.16068" lon="22.06765">
        <ele>581.081119</ele>
        <time>2022-04-10T09:58:02.039Z</time>
      </trkpt>
      <trkpt lat="42.16065" lon="22.06753">
        <ele>581.597758</ele>
        <time>2022-04-10T09:58:09.040Z</time>
      </trkpt>
      <trkpt lat="42.16062" lon="22.0674">
        <ele>582.123516</ele>
        <time>2022-04-10T09:58:17.093Z</time>
      </trkpt>
      <trkpt lat="42.16058" lon="22.06729">
        <ele>582.599191</ele>
        <time>2022-04-10T09:58:23.046Z</time>
      </trkpt>
      <trkpt lat="42.16054" lon="22.06717">
        <ele>583.115792</ele>
        <time>2022-04-10T09:58:30.061Z</time>
      </trkpt>
      <trkpt lat="42.16049" lon="22.06706">
        <ele>583.621552</ele>
        <time>2022-04-10T09:58:36.046Z</time>
      </trkpt>
      <trkpt lat="42.16044" lon="22.06694">
        <ele>584.166374</ele>
        <time>2022-04-10T09:58:42.042Z</time>
      </trkpt>
      <trkpt lat="42.16037" lon="22.06686">
        <ele>584.669856</ele>
        <time>2022-04-10T09:58:50.088Z</time>
      </trkpt>
      <trkpt lat="42.16029" lon="22.06677">
        <ele>585.334109</ele>
        <time>2022-04-10T09:58:57.053Z</time>
      </trkpt>
      <trkpt lat="42.16021" lon="22.06668">
        <ele>585.995541</ele>
        <time>2022-04-10T09:59:05.052Z</time>
      </trkpt>
      <trkpt lat="42.16014" lon="22.0666">
        <ele>586.602201</ele>
        <time>2022-04-10T09:59:11.054Z</time>
      </trkpt>
      <trkpt lat="42.16008" lon="22.06648">
        <ele>587.272892</ele>
        <time>2022-04-10T09:59:17.054Z</time>
      </trkpt>
      <trkpt lat="42.16005" lon="22.06635">
        <ele>587.90841</ele>
        <time>2022-04-10T09:59:23.073Z</time>
      </trkpt>
      <trkpt lat="42.16005" lon="22.06622">
        <ele>588.541784</ele>
        <time>2022-04-10T09:59:30.061Z</time>
      </trkpt>
      <trkpt lat="42.16009" lon="22.06609">
        <ele>589.186997</ele>
        <time>2022-04-10T09:59:37.057Z</time>
      </trkpt>
      <trkpt lat="42.16011" lon="22.06597">
        <ele>589.766667</ele>
        <time>2022-04-10T09:59:44.059Z</time>
      </trkpt>
      <trkpt lat="42.16013" lon="22.06585">
        <ele>590.374835</ele>
        <time>2022-04-10T09:59:51.036Z</time>
      </trkpt>
      <trkpt lat="42.16016" lon="22.06572">
        <ele>591.020625</ele>
        <time>2022-04-10T09:59:58.045Z</time>
      </trkpt>
      <trkpt lat="42.16019" lon="22.0656">
        <ele>591.621272</ele>
        <time>2022-04-10T10:00:04.060Z</time>
      </trkpt>
      <trkpt lat="42.16021" lon="22.06547">
        <ele>592.260898</ele>
        <time>2022-04-10T10:00:10.045Z</time>
      </trkpt>
      <trkpt lat="42.16022" lon="22.06535">
        <ele>592.839382</ele>
        <time>2022-04-10T10:00:15.076Z</time>
      </trkpt>
      <trkpt lat="42.16023" lon="22.06521">
        <ele>593.490851</ele>
        <time>2022-04-10T10:00:22.054Z</time>
      </trkpt>
      <trkpt lat="42.16022" lon="22.06508">
        <ele>594.147778</ele>
        <time>2022-04-10T10:00:29.062Z</time>
      </trkpt>
      <trkpt lat="42.1602" lon="22.06495">
        <ele>594.74142</ele>
        <time>2022-04-10T10:00:36.038Z</time>
      </trkpt>
      <trkpt lat="42.16018" lon="22.06483">
        <ele>595.333774</ele>
        <time>2022-04-10T10:00:44.051Z</time>
      </trkpt>
      <trkpt lat="42.16015" lon="22.06471">
        <ele>595.934422</ele>
        <time>2022-04-10T10:00:53.049Z</time>
      </trkpt>
      <trkpt lat="42.16013" lon="22.06458">
        <ele>596.50341</ele>
        <time>2022-04-10T10:01:01.057Z</time>
      </trkpt>
      <trkpt lat="42.16011" lon="22.06446">
        <ele>596.966379</ele>
        <time>2022-04-10T10:01:09.065Z</time>
      </trkpt>
      <trkpt lat="42.16009" lon="22.06434">
        <ele>597.433708</ele>
        <time>2022-04-10T10:01:17.045Z</time>
      </trkpt>
      <trkpt lat="42.16007" lon="22.06422">
        <ele>597.89307</ele>
        <time>2022-04-10T10:01:24.061Z</time>
      </trkpt>
      <trkpt lat="42.16007" lon="22.06409">
        <ele>598.371179</ele>
        <time>2022-04-10T10:01:31.045Z</time>
      </trkpt>
      <trkpt lat="42.16007" lon="22.06397">
        <ele>598.843099</ele>
        <time>2022-04-10T10:01:39.044Z</time>
      </trkpt>
      <trkpt lat="42.16006" lon="22.06383">
        <ele>599.356699</ele>
        <time>2022-04-10T10:01:48.069Z</time>
      </trkpt>
      <trkpt lat="42.16007" lon="22.06371">
        <ele>599.821112</ele>
        <time>2022-04-10T10:01:56.049Z</time>
      </trkpt>
      <trkpt lat="42.16009" lon="22.06359">
        <ele>600.284081</ele>
        <time>2022-04-10T10:02:04.060Z</time>
      </trkpt>
      <trkpt lat="42.16011" lon="22.06347">
        <ele>600.747115</ele>
        <time>2022-04-10T10:02:12.060Z</time>
      </trkpt>
      <trkpt lat="42.16011" lon="22.06334">
        <ele>601.236623</ele>
        <time>2022-04-10T10:02:20.040Z</time>
      </trkpt>
      <trkpt lat="42.16012" lon="22.06321">
        <ele>601.715056</ele>
        <time>2022-04-10T10:02:28.081Z</time>
      </trkpt>
      <trkpt lat="42.16013" lon="22.06309">
        <ele>602.20284</ele>
        <time>2022-04-10T10:02:36.058Z</time>
      </trkpt>
      <trkpt lat="42.16014" lon="22.06296">
        <ele>602.685381</ele>
        <time>2022-04-10T10:02:44.042Z</time>
      </trkpt>
      <trkpt lat="42.16014" lon="22.06283">
        <ele>603.157301</ele>
        <time>2022-04-10T10:02:54.056Z</time>
      </trkpt>
      <trkpt lat="42.16014" lon="22.0627">
        <ele>603.667578</ele>
        <time>2022-04-10T10:03:04.060Z</time>
      </trkpt>
      <trkpt lat="42.16011" lon="22.06257">
        <ele>604.164627</ele>
        <time>2022-04-10T10:03:13.079Z</time>
      </trkpt>
      <trkpt lat="42.16009" lon="22.06245">
        <ele>604.637624</ele>
        <time>2022-04-10T10:03:21.067Z</time>
      </trkpt>
      <trkpt lat="42.16007" lon="22.06232">
        <ele>605.117765</ele>
        <time>2022-04-10T10:03:30.051Z</time>
      </trkpt>
      <trkpt lat="42.16004" lon="22.06221">
        <ele>605.693549</ele>
        <time>2022-04-10T10:03:37.034Z</time>
      </trkpt>
      <trkpt lat="42.15999" lon="22.06209">
        <ele>606.456069</ele>
        <time>2022-04-10T10:03:45.045Z</time>
      </trkpt>
      <trkpt lat="42.15993" lon="22.06199">
        <ele>607.212849</ele>
        <time>2022-04-10T10:03:53.064Z</time>
      </trkpt>
      <trkpt lat="42.15984" lon="22.06192">
        <ele>607.970986</ele>
        <time>2022-04-10T10:04:02.084Z</time>
      </trkpt>
      <trkpt lat="42.15974" lon="22.06188">
        <ele>608.723012</ele>
        <time>2022-04-10T10:04:11.034Z</time>
      </trkpt>
      <trkpt lat="42.15965" lon="22.06189">
        <ele>609.437945</ele>
        <time>2022-04-10T10:04:18.088Z</time>
      </trkpt>
      <trkpt lat="42.15956" lon="22.06191">
        <ele>610.171312</ele>
        <time>2022-04-10T10:04:25.048Z</time>
      </trkpt>
      <trkpt lat="42.15947" lon="22.06196">
        <ele>610.874077</ele>
        <time>2022-04-10T10:04:32.050Z</time>
      </trkpt>
      <trkpt lat="42.15938" lon="22.06201">
        <ele>611.616273</ele>
        <time>2022-04-10T10:04:39.050Z</time>
      </trkpt>
      <trkpt lat="42.1593" lon="22.06208">
        <ele>612.370171</ele>
        <time>2022-04-10T10:04:48.061Z</time>
      </trkpt>
      <trkpt lat="42.15923" lon="22.06217">
        <ele>613.118909</ele>
        <time>2022-04-10T10:04:56.054Z</time>
      </trkpt>
      <trkpt lat="42.15915" lon="22.06225">
        <ele>613.830675</ele>
        <time>2022-04-10T10:05:03.041Z</time>
      </trkpt>
      <trkpt lat="42.15909" lon="22.06215">
        <ele>614.561338</ele>
        <time>2022-04-10T10:05:13.046Z</time>
      </trkpt>
      <trkpt lat="42.15909" lon="22.06203">
        <ele>615.266225</ele>
        <time>2022-04-10T10:05:21.058Z</time>
      </trkpt>
      <trkpt lat="42.15911" lon="22.0619">
        <ele>616.018779</ele>
        <time>2022-04-10T10:05:29.055Z</time>
      </trkpt>
      <trkpt lat="42.15913" lon="22.06177">
        <ele>616.763142</ele>
        <time>2022-04-10T10:05:37.042Z</time>
      </trkpt>
      <trkpt lat="42.15918" lon="22.06166">
        <ele>617.479758</ele>
        <time>2022-04-10T10:05:44.046Z</time>
      </trkpt>
      <trkpt lat="42.15923" lon="22.06155">
        <ele>618.234968</ele>
        <time>2022-04-10T10:05:53.079Z</time>
      </trkpt>
      <trkpt lat="42.15925" lon="22.06142">
        <ele>618.981239</ele>
        <time>2022-04-10T10:06:01.048Z</time>
      </trkpt>
      <trkpt lat="42.15928" lon="22.06128">
        <ele>619.978222</ele>
        <time>2022-04-10T10:06:08.058Z</time>
      </trkpt>
      <trkpt lat="42.15927" lon="22.06115">
        <ele>620.989684</ele>
        <time>2022-04-10T10:06:16.068Z</time>
      </trkpt>
      <trkpt lat="42.15922" lon="22.06105">
        <ele>621.90138</ele>
        <time>2022-04-10T10:06:24.060Z</time>
      </trkpt>
      <trkpt lat="42.15914" lon="22.06097">
        <ele>622.889342</ele>
        <time>2022-04-10T10:06:33.061Z</time>
      </trkpt>
      <trkpt lat="42.15907" lon="22.06089">
        <ele>623.794486</ele>
        <time>2022-04-10T10:06:40.049Z</time>
      </trkpt>
      <trkpt lat="42.15899" lon="22.06082">
        <ele>624.71487</ele>
        <time>2022-04-10T10:06:47.056Z</time>
      </trkpt>
      <trkpt lat="42.15892" lon="22.06074">
        <ele>625.622924</ele>
        <time>2022-04-10T10:06:54.067Z</time>
      </trkpt>
      <trkpt lat="42.15885" lon="22.06065">
        <ele>626.591399</ele>
        <time>2022-04-10T10:07:02.060Z</time>
      </trkpt>
      <trkpt lat="42.15878" lon="22.06056">
        <ele>627.568101</ele>
        <time>2022-04-10T10:07:10.051Z</time>
      </trkpt>
      <trkpt lat="42.15873" lon="22.06044">
        <ele>628.551518</ele>
        <time>2022-04-10T10:07:19.059Z</time>
      </trkpt>
      <trkpt lat="42.15868" lon="22.06033">
        <ele>629.519726</ele>
        <time>2022-04-10T10:07:26.051Z</time>
      </trkpt>
      <trkpt lat="42.15863" lon="22.06021">
        <ele>630.528964</ele>
        <time>2022-04-10T10:07:33.061Z</time>
      </trkpt>
      <trkpt lat="42.15859" lon="22.06009">
        <ele>631.535191</ele>
        <time>2022-04-10T10:07:41.047Z</time>
      </trkpt>
      <trkpt lat="42.15854" lon="22.05999">
        <ele>632.442373</ele>
        <time>2022-04-10T10:07:48.071Z</time>
      </trkpt>
      <trkpt lat="42.15849" lon="22.05987">
        <ele>633.432227</ele>
        <time>2022-04-10T10:07:56.046Z</time>
      </trkpt>
      <trkpt lat="42.15845" lon="22.05975">
        <ele>634.378322</ele>
        <time>2022-04-10T10:08:04.047Z</time>
      </trkpt>
      <trkpt lat="42.1584" lon="22.05964">
        <ele>635.332512</ele>
        <time>2022-04-10T10:08:13.041Z</time>
      </trkpt>
      <trkpt lat="42.15836" lon="22.05953">
        <ele>636.271931</ele>
        <time>2022-04-10T10:08:21.042Z</time>
      </trkpt>
      <trkpt lat="42.15834" lon="22.05941">
        <ele>637.176343</ele>
        <time>2022-04-10T10:08:29.045Z</time>
      </trkpt>
      <trkpt lat="42.15827" lon="22.0593">
        <ele>638.072759</ele>
        <time>2022-04-10T10:08:37.048Z</time>
      </trkpt>
      <trkpt lat="42.15822" lon="22.05918">
        <ele>638.955294</ele>
        <time>2022-04-10T10:08:44.053Z</time>
      </trkpt>
      <trkpt lat="42.15818" lon="22.05906">
        <ele>639.85242</ele>
        <time>2022-04-10T10:08:53.080Z</time>
      </trkpt>
      <trkpt lat="42.15814" lon="22.05893">
        <ele>640.743133</ele>
        <time>2022-04-10T10:09:02.061Z</time>
      </trkpt>
      <trkpt lat="42.15814" lon="22.0588">
        <ele>641.598919</ele>
        <time>2022-04-10T10:09:10.054Z</time>
      </trkpt>
      <trkpt lat="42.15814" lon="22.05867">
        <ele>642.448222</ele>
        <time>2022-04-10T10:09:19.065Z</time>
      </trkpt>
      <trkpt lat="42.15815" lon="22.05853">
        <ele>643.326249</ele>
        <time>2022-04-10T10:09:28.074Z</time>
      </trkpt>
      <trkpt lat="42.15817" lon="22.0584">
        <ele>644.158167</ele>
        <time>2022-04-10T10:09:36.071Z</time>
      </trkpt>
      <trkpt lat="42.15818" lon="22.05828">
        <ele>644.988198</ele>
        <time>2022-04-10T10:09:44.029Z</time>
      </trkpt>
      <trkpt lat="42.15819" lon="22.05815">
        <ele>645.845076</ele>
        <time>2022-04-10T10:09:52.054Z</time>
      </trkpt>
      <trkpt lat="42.1582" lon="22.05802">
        <ele>646.660185</ele>
        <time>2022-04-10T10:09:59.060Z</time>
      </trkpt>
      <trkpt lat="42.15821" lon="22.0579">
        <ele>647.444849</ele>
        <time>2022-04-10T10:10:06.050Z</time>
      </trkpt>
      <trkpt lat="42.15821" lon="22.05777">
        <ele>648.268961</ele>
        <time>2022-04-10T10:10:14.038Z</time>
      </trkpt>
      <trkpt lat="42.1582" lon="22.05765">
        <ele>649.068044</ele>
        <time>2022-04-10T10:10:22.038Z</time>
      </trkpt>
      <trkpt lat="42.15816" lon="22.05754">
        <ele>649.868207</ele>
        <time>2022-04-10T10:10:29.056Z</time>
      </trkpt>
      <trkpt lat="42.15813" lon="22.05741">
        <ele>650.720113</ele>
        <time>2022-04-10T10:10:37.060Z</time>
      </trkpt>
      <trkpt lat="42.1581" lon="22.05729">
        <ele>651.549909</ele>
        <time>2022-04-10T10:10:44.078Z</time>
      </trkpt>
      <trkpt lat="42.15809" lon="22.05716">
        <ele>652.400832</ele>
        <time>2022-04-10T10:10:51.030Z</time>
      </trkpt>
      <trkpt lat="42.15806" lon="22.05704">
        <ele>652.483099</ele>
        <time>2022-04-10T10:10:58.058Z</time>
      </trkpt>
      <trkpt lat="42.15803" lon="22.05692">
        <ele>651.999422</ele>
        <time>2022-04-10T10:11:05.047Z</time>
      </trkpt>
      <trkpt lat="42.15801" lon="22.05679">
        <ele>651.511811</ele>
        <time>2022-04-10T10:11:13.103Z</time>
      </trkpt>
      <trkpt lat="42.15798" lon="22.05667">
        <ele>651.037244</ele>
        <time>2022-04-10T10:11:19.067Z</time>
      </trkpt>
      <trkpt lat="42.15795" lon="22.05655">
        <ele>650.536192</ele>
        <time>2022-04-10T10:11:25.042Z</time>
      </trkpt>
      <trkpt lat="42.15791" lon="22.05642">
        <ele>650.010653</ele>
        <time>2022-04-10T10:11:31.049Z</time>
      </trkpt>
      <trkpt lat="42.15787" lon="22.0563">
        <ele>649.502061</ele>
        <time>2022-04-10T10:11:36.053Z</time>
      </trkpt>
      <trkpt lat="42.15781" lon="22.05617">
        <ele>648.961143</ele>
        <time>2022-04-10T10:11:42.049Z</time>
      </trkpt>
      <trkpt lat="42.15776" lon="22.05606">
        <ele>648.484598</ele>
        <time>2022-04-10T10:11:47.059Z</time>
      </trkpt>
      <trkpt lat="42.15773" lon="22.05595">
        <ele>648.027592</ele>
        <time>2022-04-10T10:11:52.040Z</time>
      </trkpt>
      <trkpt lat="42.1577" lon="22.05583">
        <ele>647.540927</ele>
        <time>2022-04-10T10:11:58.050Z</time>
      </trkpt>
      <trkpt lat="42.15766" lon="22.05571">
        <ele>647.060198</ele>
        <time>2022-04-10T10:12:04.041Z</time>
      </trkpt>
      <trkpt lat="42.15762" lon="22.05558">
        <ele>646.531322</ele>
        <time>2022-04-10T10:12:10.058Z</time>
      </trkpt>
      <trkpt lat="42.15756" lon="22.05548">
        <ele>646.049588</ele>
        <time>2022-04-10T10:12:15.053Z</time>
      </trkpt>
      <trkpt lat="42.1575" lon="22.05537">
        <ele>645.540659</ele>
        <time>2022-04-10T10:12:21.039Z</time>
      </trkpt>
      <trkpt lat="42.15742" lon="22.05527">
        <ele>645.00316</ele>
        <time>2022-04-10T10:12:27.057Z</time>
      </trkpt>
      <trkpt lat="42.15735" lon="22.05518">
        <ele>644.489455</ele>
        <time>2022-04-10T10:12:32.047Z</time>
      </trkpt>
      <trkpt lat="42.15728" lon="22.0551">
        <ele>644.020795</ele>
        <time>2022-04-10T10:12:37.063Z</time>
      </trkpt>
      <trkpt lat="42.1572" lon="22.05503">
        <ele>643.574596</ele>
        <time>2022-04-10T10:12:42.102Z</time>
      </trkpt>
      <trkpt lat="42.15713" lon="22.05494">
        <ele>643.270595</ele>
        <time>2022-04-10T10:12:46.063Z</time>
      </trkpt>
      <trkpt lat="42.15705" lon="22.05484">
        <ele>642.907634</ele>
        <time>2022-04-10T10:12:51.048Z</time>
      </trkpt>
      <trkpt lat="42.15697" lon="22.05474">
        <ele>642.55679</ele>
        <time>2022-04-10T10:12:56.040Z</time>
      </trkpt>
      <trkpt lat="42.15691" lon="22.05463">
        <ele>642.220902</ele>
        <time>2022-04-10T10:13:01.043Z</time>
      </trkpt>
      <trkpt lat="42.15687" lon="22.05452">
        <ele>641.914697</ele>
        <time>2022-04-10T10:13:05.059Z</time>
      </trkpt>
      <trkpt lat="42.15682" lon="22.05441">
        <ele>641.586612</ele>
        <time>2022-04-10T10:13:10.037Z</time>
      </trkpt>
      <trkpt lat="42.15676" lon="22.05429">
        <ele>641.254444</ele>
        <time>2022-04-10T10:13:15.039Z</time>
      </trkpt>
      <trkpt lat="42.15669" lon="22.0542">
        <ele>640.941943</ele>
        <time>2022-04-10T10:13:20.085Z</time>
      </trkpt>
      <trkpt lat="42.15661" lon="22.05412">
        <ele>640.60938</ele>
        <time>2022-04-10T10:13:25.061Z</time>
      </trkpt>
      <trkpt lat="42.15652" lon="22.05409">
        <ele>640.295185</ele>
        <time>2022-04-10T10:13:29.047Z</time>
      </trkpt>
      <trkpt lat="42.15643" lon="22.05408">
        <ele>639.994405</ele>
        <time>2022-04-10T10:13:32.122Z</time>
      </trkpt>
      <trkpt lat="42.15631" lon="22.05409">
        <ele>639.607571</ele>
        <time>2022-04-10T10:13:35.061Z</time>
      </trkpt>
      <trkpt lat="42.15619" lon="22.05416">
        <ele>639.16938</ele>
        <time>2022-04-10T10:13:38.104Z</time>
      </trkpt>
      <trkpt lat="42.15611" lon="22.05424">
        <ele>638.846477</ele>
        <time>2022-04-10T10:13:40.062Z</time>
      </trkpt>
      <trkpt lat="42.15602" lon="22.05435">
        <ele>638.453265</ele>
        <time>2022-04-10T10:13:43.059Z</time>
      </trkpt>
      <trkpt lat="42.15596" lon="22.05444">
        <ele>638.156424</ele>
        <time>2022-04-10T10:13:46.067Z</time>
      </trkpt>
      <trkpt lat="42.15589" lon="22.05453">
        <ele>637.832256</ele>
        <time>2022-04-10T10:13:49.161Z</time>
      </trkpt>
      <trkpt lat="42.15579" lon="22.05457">
        <ele>638.054693</ele>
        <time>2022-04-10T10:13:52.085Z</time>
      </trkpt>
      <trkpt lat="42.15569" lon="22.05452">
        <ele>638.546133</ele>
        <time>2022-04-10T10:13:55.058Z</time>
      </trkpt>
      <trkpt lat="42.15566" lon="22.05438">
        <ele>639.043597</ele>
        <time>2022-04-10T10:13:58.043Z</time>
      </trkpt>
      <trkpt lat="42.1557" lon="22.05423">
        <ele>639.585034</ele>
        <time>2022-04-10T10:14:01.061Z</time>
      </trkpt>
      <trkpt lat="42.15578" lon="22.05412">
        <ele>640.0875</ele>
        <time>2022-04-10T10:14:05.082Z</time>
      </trkpt>
      <trkpt lat="42.15584" lon="22.05402">
        <ele>640.523771</ele>
        <time>2022-04-10T10:14:09.048Z</time>
      </trkpt>
      <trkpt lat="42.15589" lon="22.05392">
        <ele>640.953577</ele>
        <time>2022-04-10T10:14:13.057Z</time>
      </trkpt>
      <trkpt lat="42.15596" lon="22.05382">
        <ele>641.382171</ele>
        <time>2022-04-10T10:14:17.032Z</time>
      </trkpt>
      <trkpt lat="42.15601" lon="22.05372">
        <ele>641.809459</ele>
        <time>2022-04-10T10:14:21.063Z</time>
      </trkpt>
      <trkpt lat="42.15608" lon="22.05361">
        <ele>642.302307</ele>
        <time>2022-04-10T10:14:26.031Z</time>
      </trkpt>
      <trkpt lat="42.15615" lon="22.0535">
        <ele>642.803291</ele>
        <time>2022-04-10T10:14:31.060Z</time>
      </trkpt>
      <trkpt lat="42.15621" lon="22.0534">
        <ele>643.23313</ele>
        <time>2022-04-10T10:14:35.039Z</time>
      </trkpt>
      <trkpt lat="42.15627" lon="22.0533">
        <ele>643.663525</ele>
        <time>2022-04-10T10:14:39.051Z</time>
      </trkpt>
      <trkpt lat="42.15634" lon="22.05319">
        <ele>644.159716</ele>
        <time>2022-04-10T10:14:44.057Z</time>
      </trkpt>
      <trkpt lat="42.15643" lon="22.05309">
        <ele>644.671468</ele>
        <time>2022-04-10T10:14:49.054Z</time>
      </trkpt>
      <trkpt lat="42.15649" lon="22.05298">
        <ele>645.131194</ele>
        <time>2022-04-10T10:14:55.039Z</time>
      </trkpt>
      <trkpt lat="42.15653" lon="22.05286">
        <ele>645.584198</ele>
        <time>2022-04-10T10:15:01.047Z</time>
      </trkpt>
      <trkpt lat="42.15656" lon="22.05272">
        <ele>646.039189</ele>
        <time>2022-04-10T10:15:07.054Z</time>
      </trkpt>
      <trkpt lat="42.15658" lon="22.05259">
        <ele>646.391572</ele>
        <time>2022-04-10T10:15:13.051Z</time>
      </trkpt>
      <trkpt lat="42.1566" lon="22.05246">
        <ele>646.705458</ele>
        <time>2022-04-10T10:15:19.089Z</time>
      </trkpt>
      <trkpt lat="42.1566" lon="22.05234">
        <ele>647.021273</ele>
        <time>2022-04-10T10:15:25.039Z</time>
      </trkpt>
      <trkpt lat="42.15659" lon="22.05221">
        <ele>647.341796</ele>
        <time>2022-04-10T10:15:32.046Z</time>
      </trkpt>
      <trkpt lat="42.15655" lon="22.05209">
        <ele>647.678233</ele>
        <time>2022-04-10T10:15:40.069Z</time>
      </trkpt>
      <trkpt lat="42.1565" lon="22.05197">
        <ele>648.021132</ele>
        <time>2022-04-10T10:15:47.070Z</time>
      </trkpt>
      <trkpt lat="42.15644" lon="22.05187">
        <ele>648.337789</ele>
        <time>2022-04-10T10:15:54.047Z</time>
      </trkpt>
      <trkpt lat="42.15637" lon="22.05178">
        <ele>648.685007</ele>
        <time>2022-04-10T10:16:02.044Z</time>
      </trkpt>
      <trkpt lat="42.15629" lon="22.05169">
        <ele>649.031411</ele>
        <time>2022-04-10T10:16:10.066Z</time>
      </trkpt>
      <trkpt lat="42.1562" lon="22.05162">
        <ele>649.376966</ele>
        <time>2022-04-10T10:16:18.107Z</time>
      </trkpt>
      <trkpt lat="42.15612" lon="22.05156">
        <ele>649.707692</ele>
        <time>2022-04-10T10:16:25.038Z</time>
      </trkpt>
      <trkpt lat="42.15603" lon="22.0515">
        <ele>650.04677</ele>
        <time>2022-04-10T10:16:32.046Z</time>
      </trkpt>
      <trkpt lat="42.15593" lon="22.05146">
        <ele>650.387548</ele>
        <time>2022-04-10T10:16:39.043Z</time>
      </trkpt>
      <trkpt lat="42.15584" lon="22.05142">
        <ele>650.717748</ele>
        <time>2022-04-10T10:16:46.055Z</time>
      </trkpt>
      <trkpt lat="42.15576" lon="22.05137">
        <ele>651.026708</ele>
        <time>2022-04-10T10:16:53.038Z</time>
      </trkpt>
      <trkpt lat="42.15567" lon="22.05131">
        <ele>651.370795</ele>
        <time>2022-04-10T10:17:00.045Z</time>
      </trkpt>
      <trkpt lat="42.15558" lon="22.05125">
        <ele>651.716916</ele>
        <time>2022-04-10T10:17:07.049Z</time>
      </trkpt>
      <trkpt lat="42.1555" lon="22.05117">
        <ele>652.051741</ele>
        <time>2022-04-10T10:17:14.076Z</time>
      </trkpt>
      <trkpt lat="42.15543" lon="22.05108">
        <ele>652.71494</ele>
        <time>2022-04-10T10:17:20.058Z</time>
      </trkpt>
      <trkpt lat="42.15538" lon="22.05098">
        <ele>653.402438</ele>
        <time>2022-04-10T10:17:26.057Z</time>
      </trkpt>
      <trkpt lat="42.15532" lon="22.05086">
        <ele>654.182116</ele>
        <time>2022-04-10T10:17:33.046Z</time>
      </trkpt>
      <trkpt lat="42.15526" lon="22.05076">
        <ele>654.873742</ele>
        <time>2022-04-10T10:17:39.058Z</time>
      </trkpt>
      <trkpt lat="42.1552" lon="22.05066">
        <ele>655.531307</ele>
        <time>2022-04-10T10:17:45.044Z</time>
      </trkpt>
      <trkpt lat="42.15514" lon="22.05055">
        <ele>656.293032</ele>
        <time>2022-04-10T10:17:52.082Z</time>
      </trkpt>
      <trkpt lat="42.15512" lon="22.05041">
        <ele>657.052086</ele>
        <time>2022-04-10T10:17:59.032Z</time>
      </trkpt>
      <trkpt lat="42.1551" lon="22.05027">
        <ele>657.808148</ele>
        <time>2022-04-10T10:18:06.065Z</time>
      </trkpt>
      <trkpt lat="42.15506" lon="22.05015">
        <ele>658.546873</ele>
        <time>2022-04-10T10:18:13.049Z</time>
      </trkpt>
      <trkpt lat="42.15503" lon="22.05003">
        <ele>659.227463</ele>
        <time>2022-04-10T10:18:19.052Z</time>
      </trkpt>
      <trkpt lat="42.15499" lon="22.0499">
        <ele>659.970577</ele>
        <time>2022-04-10T10:18:26.057Z</time>
      </trkpt>
      <trkpt lat="42.15495" lon="22.04979">
        <ele>660.660259</ele>
        <time>2022-04-10T10:18:32.065Z</time>
      </trkpt>
      <trkpt lat="42.15491" lon="22.04967">
        <ele>661.335182</ele>
        <time>2022-04-10T10:18:38.044Z</time>
      </trkpt>
      <trkpt lat="42.15488" lon="22.04954">
        <ele>662.091839</ele>
        <time>2022-04-10T10:18:45.039Z</time>
      </trkpt>
      <trkpt lat="42.15484" lon="22.04943">
        <ele>662.74719</ele>
        <time>2022-04-10T10:18:52.047Z</time>
      </trkpt>
      <trkpt lat="42.1548" lon="22.04931">
        <ele>663.458196</ele>
        <time>2022-04-10T10:19:00.050Z</time>
      </trkpt>
      <trkpt lat="42.15477" lon="22.04918">
        <ele>664.186996</ele>
        <time>2022-04-10T10:19:08.078Z</time>
      </trkpt>
      <trkpt lat="42.15473" lon="22.04906">
        <ele>664.887723</ele>
        <time>2022-04-10T10:19:15.095Z</time>
      </trkpt>
      <trkpt lat="42.1547" lon="22.04894">
        <ele>665.388143</ele>
        <time>2022-04-10T10:19:24.062Z</time>
      </trkpt>
      <trkpt lat="42.15467" lon="22.04882">
        <ele>665.721325</ele>
        <time>2022-04-10T10:19:31.057Z</time>
      </trkpt>
      <trkpt lat="42.15464" lon="22.0487">
        <ele>666.076576</ele>
        <time>2022-04-10T10:19:38.061Z</time>
      </trkpt>
      <trkpt lat="42.1546" lon="22.04857">
        <ele>666.430636</ele>
        <time>2022-04-10T10:19:45.056Z</time>
      </trkpt>
      <trkpt lat="42.15458" lon="22.04843">
        <ele>666.799282</ele>
        <time>2022-04-10T10:19:53.102Z</time>
      </trkpt>
      <trkpt lat="42.15455" lon="22.04831">
        <ele>667.151419</ele>
        <time>2022-04-10T10:19:59.061Z</time>
      </trkpt>
      <trkpt lat="42.15452" lon="22.04818">
        <ele>667.492091</ele>
        <time>2022-04-10T10:20:05.060Z</time>
      </trkpt>
      <trkpt lat="42.15448" lon="22.04806">
        <ele>667.847876</ele>
        <time>2022-04-10T10:20:11.046Z</time>
      </trkpt>
      <trkpt lat="42.15443" lon="22.04795">
        <ele>668.185965</ele>
        <time>2022-04-10T10:20:17.097Z</time>
      </trkpt>
      <trkpt lat="42.15439" lon="22.04783">
        <ele>668.511971</ele>
        <time>2022-04-10T10:20:22.056Z</time>
      </trkpt>
      <trkpt lat="42.15436" lon="22.04772">
        <ele>668.835147</ele>
        <time>2022-04-10T10:20:28.141Z</time>
      </trkpt>
      <trkpt lat="42.15431" lon="22.04761">
        <ele>669.179118</ele>
        <time>2022-04-10T10:20:36.053Z</time>
      </trkpt>
      <trkpt lat="42.15425" lon="22.0475">
        <ele>669.534373</ele>
        <time>2022-04-10T10:20:43.036Z</time>
      </trkpt>
      <trkpt lat="42.15419" lon="22.04738">
        <ele>669.906407</ele>
        <time>2022-04-10T10:20:50.052Z</time>
      </trkpt>
      <trkpt lat="42.15413" lon="22.04728">
        <ele>670.255477</ele>
        <time>2022-04-10T10:20:56.124Z</time>
      </trkpt>
      <trkpt lat="42.15405" lon="22.0472">
        <ele>670.607533</ele>
        <time>2022-04-10T10:21:02.041Z</time>
      </trkpt>
      <trkpt lat="42.15398" lon="22.04711">
        <ele>670.945331</ele>
        <time>2022-04-10T10:21:08.066Z</time>
      </trkpt>
      <trkpt lat="42.15391" lon="22.04702">
        <ele>671.283985</ele>
        <time>2022-04-10T10:21:14.062Z</time>
      </trkpt>
      <trkpt lat="42.15384" lon="22.04692">
        <ele>671.691845</ele>
        <time>2022-04-10T10:21:21.073Z</time>
      </trkpt>
      <trkpt lat="42.15377" lon="22.04683">
        <ele>672.311634</ele>
        <time>2022-04-10T10:21:28.091Z</time>
      </trkpt>
      <trkpt lat="42.15369" lon="22.04674">
        <ele>672.940803</ele>
        <time>2022-04-10T10:21:34.055Z</time>
      </trkpt>
      <trkpt lat="42.15362" lon="22.04666">
        <ele>673.51712</ele>
        <time>2022-04-10T10:21:40.091Z</time>
      </trkpt>
      <trkpt lat="42.15355" lon="22.04656">
        <ele>674.164402</ele>
        <time>2022-04-10T10:21:48.121Z</time>
      </trkpt>
      <trkpt lat="42.15348" lon="22.04646">
        <ele>674.798142</ele>
        <time>2022-04-10T10:21:55.056Z</time>
      </trkpt>
      <trkpt lat="42.15342" lon="22.04638">
        <ele>675.365607</ele>
        <time>2022-04-10T10:22:02.099Z</time>
      </trkpt>
      <trkpt lat="42.15334" lon="22.04628">
        <ele>676.011887</ele>
        <time>2022-04-10T10:22:09.058Z</time>
      </trkpt>
      <trkpt lat="42.15326" lon="22.04619">
        <ele>676.65364</ele>
        <time>2022-04-10T10:22:16.064Z</time>
      </trkpt>
      <trkpt lat="42.15318" lon="22.0461">
        <ele>677.309246</ele>
        <time>2022-04-10T10:22:23.081Z</time>
      </trkpt>
      <trkpt lat="42.15312" lon="22.04601">
        <ele>677.909819</ele>
        <time>2022-04-10T10:22:29.053Z</time>
      </trkpt>
      <trkpt lat="42.15304" lon="22.04594">
        <ele>678.485748</ele>
        <time>2022-04-10T10:22:35.053Z</time>
      </trkpt>
      <trkpt lat="42.15296" lon="22.04586">
        <ele>679.10712</ele>
        <time>2022-04-10T10:22:42.057Z</time>
      </trkpt>
      <trkpt lat="42.1529" lon="22.04576">
        <ele>679.71471</ele>
        <time>2022-04-10T10:22:49.048Z</time>
      </trkpt>
      <trkpt lat="42.15283" lon="22.04567">
        <ele>680.336083</ele>
        <time>2022-04-10T10:22:56.049Z</time>
      </trkpt>
      <trkpt lat="42.15275" lon="22.04558">
        <ele>680.971863</ele>
        <time>2022-04-10T10:23:03.065Z</time>
      </trkpt>
      <trkpt lat="42.15266" lon="22.0455">
        <ele>681.637123</ele>
        <time>2022-04-10T10:23:10.060Z</time>
      </trkpt>
      <trkpt lat="42.15259" lon="22.04539">
        <ele>682.287836</ele>
        <time>2022-04-10T10:23:17.095Z</time>
      </trkpt>
      <trkpt lat="42.15253" lon="22.04528">
        <ele>682.933222</ele>
        <time>2022-04-10T10:23:24.046Z</time>
      </trkpt>
      <trkpt lat="42.15249" lon="22.04517">
        <ele>683.571506</ele>
        <time>2022-04-10T10:23:30.039Z</time>
      </trkpt>
      <trkpt lat="42.15246" lon="22.04505">
        <ele>684.158927</ele>
        <time>2022-04-10T10:23:37.060Z</time>
      </trkpt>
      <trkpt lat="42.15246" lon="22.04493">
        <ele>684.763504</ele>
        <time>2022-04-10T10:23:44.034Z</time>
      </trkpt>
      <trkpt lat="42.15247" lon="22.04481">
        <ele>685.377133</ele>
        <time>2022-04-10T10:23:50.052Z</time>
      </trkpt>
      <trkpt lat="42.15249" lon="22.04467">
        <ele>686.051848</ele>
        <time>2022-04-10T10:23:57.052Z</time>
      </trkpt>
      <trkpt lat="42.15251" lon="22.04454">
        <ele>686.689507</ele>
        <time>2022-04-10T10:24:04.038Z</time>
      </trkpt>
      <trkpt lat="42.15251" lon="22.04442">
        <ele>687.298958</ele>
        <time>2022-04-10T10:24:11.040Z</time>
      </trkpt>
      <trkpt lat="42.1525" lon="22.04429">
        <ele>687.933603</ele>
        <time>2022-04-10T10:24:18.066Z</time>
      </trkpt>
      <trkpt lat="42.1525" lon="22.04416">
        <ele>688.56743</ele>
        <time>2022-04-10T10:24:25.053Z</time>
      </trkpt>
      <trkpt lat="42.15249" lon="22.04402">
        <ele>689.215793</ele>
        <time>2022-04-10T10:24:33.078Z</time>
      </trkpt>
      <trkpt lat="42.15248" lon="22.0439">
        <ele>689.821522</ele>
        <time>2022-04-10T10:24:40.045Z</time>
      </trkpt>
      <trkpt lat="42.15247" lon="22.04377">
        <ele>690.475552</ele>
        <time>2022-04-10T10:24:48.097Z</time>
      </trkpt>
      <trkpt lat="42.15244" lon="22.04365">
        <ele>691.080387</ele>
        <time>2022-04-10T10:24:55.055Z</time>
      </trkpt>
      <trkpt lat="42.1524" lon="22.04353">
        <ele>691.700529</ele>
        <time>2022-04-10T10:25:02.042Z</time>
      </trkpt>
      <trkpt lat="42.15236" lon="22.04343">
        <ele>692.294344</ele>
        <time>2022-04-10T10:25:09.046Z</time>
      </trkpt>
      <trkpt lat="42.15233" lon="22.04331">
        <ele>692.921644</ele>
        <time>2022-04-10T10:25:16.056Z</time>
      </trkpt>
      <trkpt lat="42.1523" lon="22.04318">
        <ele>693.544285</ele>
        <time>2022-04-10T10:25:24.056Z</time>
      </trkpt>
      <trkpt lat="42.15228" lon="22.04306">
        <ele>694.162969</ele>
        <time>2022-04-10T10:25:32.097Z</time>
      </trkpt>
      <trkpt lat="42.15227" lon="22.04292">
        <ele>694.816123</ele>
        <time>2022-04-10T10:25:41.052Z</time>
      </trkpt>
      <trkpt lat="42.15227" lon="22.0428">
        <ele>695.401238</ele>
        <time>2022-04-10T10:25:48.092Z</time>
      </trkpt>
      <trkpt lat="42.15227" lon="22.04266">
        <ele>696.040859</ele>
        <time>2022-04-10T10:25:55.052Z</time>
      </trkpt>
      <trkpt lat="42.15227" lon="22.04252">
        <ele>696.698879</ele>
        <time>2022-04-10T10:26:01.062Z</time>
      </trkpt>
      <trkpt lat="42.15228" lon="22.04238">
        <ele>697.334869</ele>
        <time>2022-04-10T10:26:07.044Z</time>
      </trkpt>
      <trkpt lat="42.15228" lon="22.04224">
        <ele>697.951366</ele>
        <time>2022-04-10T10:26:13.069Z</time>
      </trkpt>
      <trkpt lat="42.15229" lon="22.04211">
        <ele>698.562485</ele>
        <time>2022-04-10T10:26:19.058Z</time>
      </trkpt>
      <trkpt lat="42.15228" lon="22.04199">
        <ele>699.118049</ele>
        <time>2022-04-10T10:26:24.063Z</time>
      </trkpt>
      <trkpt lat="42.15228" lon="22.04186">
        <ele>699.745253</ele>
        <time>2022-04-10T10:26:30.065Z</time>
      </trkpt>
      <trkpt lat="42.15228" lon="22.04172">
        <ele>700.348234</ele>
        <time>2022-04-10T10:26:38.125Z</time>
      </trkpt>
      <trkpt lat="42.15227" lon="22.0416">
        <ele>700.947185</ele>
        <time>2022-04-10T10:26:46.057Z</time>
      </trkpt>
      <trkpt lat="42.15227" lon="22.04147">
        <ele>701.519326</ele>
        <time>2022-04-10T10:26:54.049Z</time>
      </trkpt>
      <trkpt lat="42.15226" lon="22.04134">
        <ele>702.123697</ele>
        <time>2022-04-10T10:27:02.060Z</time>
      </trkpt>
      <trkpt lat="42.15225" lon="22.04122">
        <ele>702.695308</ele>
        <time>2022-04-10T10:27:11.064Z</time>
      </trkpt>
      <trkpt lat="42.15225" lon="22.04108">
        <ele>703.317923</ele>
        <time>2022-04-10T10:27:22.053Z</time>
      </trkpt>
      <trkpt lat="42.15225" lon="22.04096">
        <ele>703.898808</ele>
        <time>2022-04-10T10:27:30.068Z</time>
      </trkpt>
      <trkpt lat="42.15224" lon="22.04083">
        <ele>704.480621</ele>
        <time>2022-04-10T10:27:39.069Z</time>
      </trkpt>
      <trkpt lat="42.15223" lon="22.04071">
        <ele>705.046828</ele>
        <time>2022-04-10T10:27:47.053Z</time>
      </trkpt>
      <trkpt lat="42.15222" lon="22.04059">
        <ele>705.613941</ele>
        <time>2022-04-10T10:27:55.050Z</time>
      </trkpt>
      <trkpt lat="42.15223" lon="22.04045">
        <ele>706.30965</ele>
        <time>2022-04-10T10:28:06.096Z</time>
      </trkpt>
      <trkpt lat="42.15222" lon="22.04033">
        <ele>707.060476</ele>
        <time>2022-04-10T10:28:15.042Z</time>
      </trkpt>
      <trkpt lat="42.1522" lon="22.0402">
        <ele>707.800487</ele>
        <time>2022-04-10T10:28:23.047Z</time>
      </trkpt>
      <trkpt lat="42.15217" lon="22.04007">
        <ele>708.556396</ele>
        <time>2022-04-10T10:28:32.046Z</time>
      </trkpt>
      <trkpt lat="42.15215" lon="22.03994">
        <ele>709.331962</ele>
        <time>2022-04-10T10:28:40.176Z</time>
      </trkpt>
      <trkpt lat="42.15213" lon="22.03981">
        <ele>710.112295</ele>
        <time>2022-04-10T10:28:49.067Z</time>
      </trkpt>
      <trkpt lat="42.15211" lon="22.03969">
        <ele>710.8124</ele>
        <time>2022-04-10T10:28:58.055Z</time>
      </trkpt>
      <trkpt lat="42.15208" lon="22.03956">
        <ele>711.610401</ele>
        <time>2022-04-10T10:29:07.059Z</time>
      </trkpt>
      <trkpt lat="42.15206" lon="22.03944">
        <ele>712.327586</ele>
        <time>2022-04-10T10:29:15.038Z</time>
      </trkpt>
      <trkpt lat="42.15204" lon="22.03931">
        <ele>713.12186</ele>
        <time>2022-04-10T10:29:23.061Z</time>
      </trkpt>
      <trkpt lat="42.15202" lon="22.03918">
        <ele>713.860514</ele>
        <time>2022-04-10T10:29:30.049Z</time>
      </trkpt>
      <trkpt lat="42.152" lon="22.03906">
        <ele>714.610514</ele>
        <time>2022-04-10T10:29:38.043Z</time>
      </trkpt>
      <trkpt lat="42.15197" lon="22.03894">
        <ele>715.330922</ele>
        <time>2022-04-10T10:29:45.054Z</time>
      </trkpt>
      <trkpt lat="42.15195" lon="22.0388">
        <ele>716.127142</ele>
        <time>2022-04-10T10:29:53.098Z</time>
      </trkpt>
      <trkpt lat="42.15192" lon="22.03868">
        <ele>716.852275</ele>
        <time>2022-04-10T10:30:00.034Z</time>
      </trkpt>
      <trkpt lat="42.15189" lon="22.03856">
        <ele>717.639363</ele>
        <time>2022-04-10T10:30:08.057Z</time>
      </trkpt>
      <trkpt lat="42.15185" lon="22.03844">
        <ele>718.375086</ele>
        <time>2022-04-10T10:30:15.032Z</time>
      </trkpt>
      <trkpt lat="42.15181" lon="22.03833">
        <ele>719.077595</ele>
        <time>2022-04-10T10:30:22.043Z</time>
      </trkpt>
      <trkpt lat="42.15176" lon="22.03822">
        <ele>719.834418</ele>
        <time>2022-04-10T10:30:31.059Z</time>
      </trkpt>
      <trkpt lat="42.15173" lon="22.03809">
        <ele>720.63868</ele>
        <time>2022-04-10T10:30:40.043Z</time>
      </trkpt>
      <trkpt lat="42.15166" lon="22.038">
        <ele>721.419288</ele>
        <time>2022-04-10T10:30:48.063Z</time>
      </trkpt>
      <trkpt lat="42.15162" lon="22.03788">
        <ele>722.248484</ele>
        <time>2022-04-10T10:30:58.054Z</time>
      </trkpt>
      <trkpt lat="42.15157" lon="22.03777">
        <ele>723.027687</ele>
        <time>2022-04-10T10:31:06.046Z</time>
      </trkpt>
      <trkpt lat="42.15152" lon="22.03767">
        <ele>723.782492</ele>
        <time>2022-04-10T10:31:15.050Z</time>
      </trkpt>
      <trkpt lat="42.15145" lon="22.03756">
        <ele>724.610364</ele>
        <time>2022-04-10T10:31:23.076Z</time>
      </trkpt>
      <trkpt lat="42.1514" lon="22.03745">
        <ele>725.410295</ele>
        <time>2022-04-10T10:31:31.059Z</time>
      </trkpt>
      <trkpt lat="42.15135" lon="22.03734">
        <ele>726.213913</ele>
        <time>2022-04-10T10:31:39.064Z</time>
      </trkpt>
      <trkpt lat="42.15129" lon="22.03724">
        <ele>726.998136</ele>
        <time>2022-04-10T10:31:47.074Z</time>
      </trkpt>
      <trkpt lat="42.15124" lon="22.03712">
        <ele>727.8247</ele>
        <time>2022-04-10T10:31:56.053Z</time>
      </trkpt>
      <trkpt lat="42.15119" lon="22.03702">
        <ele>728.562176</ele>
        <time>2022-04-10T10:32:05.049Z</time>
      </trkpt>
      <trkpt lat="42.15114" lon="22.03692">
        <ele>729.326424</ele>
        <time>2022-04-10T10:32:13.109Z</time>
      </trkpt>
      <trkpt lat="42.15108" lon="22.03681">
        <ele>730.120097</ele>
        <time>2022-04-10T10:32:22.045Z</time>
      </trkpt>
      <trkpt lat="42.15102" lon="22.03671">
        <ele>730.918555</ele>
        <time>2022-04-10T10:32:32.053Z</time>
      </trkpt>
      <trkpt lat="42.15097" lon="22.0366">
        <ele>731.723002</ele>
        <time>2022-04-10T10:32:40.058Z</time>
      </trkpt>
      <trkpt lat="42.15091" lon="22.03651">
        <ele>732.465574</ele>
        <time>2022-04-10T10:32:47.070Z</time>
      </trkpt>
      <trkpt lat="42.15086" lon="22.03639">
        <ele>733.273231</ele>
        <time>2022-04-10T10:32:56.066Z</time>
      </trkpt>
      <trkpt lat="42.1508" lon="22.03631">
        <ele>734.019159</ele>
        <time>2022-04-10T10:33:04.051Z</time>
      </trkpt>
      <trkpt lat="42.15073" lon="22.0362">
        <ele>734.738546</ele>
        <time>2022-04-10T10:33:12.061Z</time>
      </trkpt>
      <trkpt lat="42.15069" lon="22.03609">
        <ele>734.852209</ele>
        <time>2022-04-10T10:33:20.078Z</time>
      </trkpt>
      <trkpt lat="42.15065" lon="22.03597">
        <ele>734.974736</ele>
        <time>2022-04-10T10:33:29.034Z</time>
      </trkpt>
      <trkpt lat="42.15061" lon="22.03584">
        <ele>735.104018</ele>
        <time>2022-04-10T10:33:38.084Z</time>
      </trkpt>
      <trkpt lat="42.15059" lon="22.03572">
        <ele>735.217153</ele>
        <time>2022-04-10T10:33:47.060Z</time>
      </trkpt>
      <trkpt lat="42.15057" lon="22.03561">
        <ele>735.332139</ele>
        <time>2022-04-10T10:33:56.074Z</time>
      </trkpt>
      <trkpt lat="42.15056" lon="22.03548">
        <ele>735.45101</ele>
        <time>2022-04-10T10:34:04.068Z</time>
      </trkpt>
      <trkpt lat="42.15053" lon="22.03535">
        <ele>735.573755</ele>
        <time>2022-04-10T10:34:13.063Z</time>
      </trkpt>
      <trkpt lat="42.15051" lon="22.03522">
        <ele>735.701348</ele>
        <time>2022-04-10T10:34:22.065Z</time>
      </trkpt>
      <trkpt lat="42.1505" lon="22.0351">
        <ele>735.813611</ele>
        <time>2022-04-10T10:34:29.053Z</time>
      </trkpt>
      <trkpt lat="42.15048" lon="22.03496">
        <ele>735.944582</ele>
        <time>2022-04-10T10:34:36.053Z</time>
      </trkpt>
      <trkpt lat="42.15046" lon="22.03482">
        <ele>736.07373</ele>
        <time>2022-04-10T10:34:41.055Z</time>
      </trkpt>
      <trkpt lat="42.15045" lon="22.03466">
        <ele>736.225598</ele>
        <time>2022-04-10T10:34:45.034Z</time>
      </trkpt>
      <trkpt lat="42.15046" lon="22.03454">
        <ele>736.339046</ele>
        <time>2022-04-10T10:34:48.114Z</time>
      </trkpt>
      <trkpt lat="42.15045" lon="22.03441">
        <ele>736.453835</ele>
        <time>2022-04-10T10:34:51.055Z</time>
      </trkpt>
      <trkpt lat="42.15045" lon="22.03426">
        <ele>736.594304</ele>
        <time>2022-04-10T10:34:55.059Z</time>
      </trkpt>
      <trkpt lat="42.15045" lon="22.03414">
        <ele>736.707136</ele>
        <time>2022-04-10T10:34:58.067Z</time>
      </trkpt>
      <trkpt lat="42.15045" lon="22.03402">
        <ele>736.820584</ele>
        <time>2022-04-10T10:35:01.066Z</time>
      </trkpt>
      <trkpt lat="42.15045" lon="22.03389">
        <ele>736.941441</ele>
        <time>2022-04-10T10:35:04.059Z</time>
      </trkpt>
      <trkpt lat="42.15045" lon="22.03376">
        <ele>736.628688</ele>
        <time>2022-04-10T10:35:08.061Z</time>
      </trkpt>
      <trkpt lat="42.15041" lon="22.03364">
        <ele>736.200711</ele>
        <time>2022-04-10T10:35:15.060Z</time>
      </trkpt>
      <trkpt lat="42.15041" lon="22.03332">
        <ele>735.068678</ele>
        <time>2022-04-10T10:36:37.065Z</time>
      </trkpt>
      <trkpt lat="42.15042" lon="22.03317">
        <ele>734.567495</ele>
        <time>2022-04-10T10:36:40.052Z</time>
      </trkpt>
      <trkpt lat="42.15043" lon="22.03303">
        <ele>734.074504</ele>
        <time>2022-04-10T10:36:44.060Z</time>
      </trkpt>
      <trkpt lat="42.15038" lon="22.0329">
        <ele>733.554215</ele>
        <time>2022-04-10T10:36:48.038Z</time>
      </trkpt>
      <trkpt lat="42.15027" lon="22.03284">
        <ele>733.015021</ele>
        <time>2022-04-10T10:36:52.072Z</time>
      </trkpt>
      <trkpt lat="42.15016" lon="22.03287">
        <ele>732.463878</ele>
        <time>2022-04-10T10:36:56.063Z</time>
      </trkpt>
      <trkpt lat="42.15008" lon="22.03294">
        <ele>732.017934</ele>
        <time>2022-04-10T10:36:59.077Z</time>
      </trkpt>
      <trkpt lat="42.14999" lon="22.03302">
        <ele>731.514296</ele>
        <time>2022-04-10T10:37:02.056Z</time>
      </trkpt>
      <trkpt lat="42.14989" lon="22.0331">
        <ele>730.969082</ele>
        <time>2022-04-10T10:37:05.054Z</time>
      </trkpt>
      <trkpt lat="42.14978" lon="22.03316">
        <ele>730.4483</ele>
        <time>2022-04-10T10:37:08.071Z</time>
      </trkpt>
      <trkpt lat="42.14968" lon="22.03322">
        <ele>729.940227</ele>
        <time>2022-04-10T10:37:11.051Z</time>
      </trkpt>
      <trkpt lat="42.1496" lon="22.03328">
        <ele>729.497774</ele>
        <time>2022-04-10T10:37:14.065Z</time>
      </trkpt>
      <trkpt lat="42.14949" lon="22.03334">
        <ele>728.963995</ele>
        <time>2022-04-10T10:37:18.056Z</time>
      </trkpt>
      <trkpt lat="42.14938" lon="22.03332">
        <ele>728.442773</ele>
        <time>2022-04-10T10:37:22.059Z</time>
      </trkpt>
      <trkpt lat="42.14933" lon="22.03322">
        <ele>727.994786</ele>
        <time>2022-04-10T10:37:25.085Z</time>
      </trkpt>
      <trkpt lat="42.14931" lon="22.03306">
        <ele>727.42812</ele>
        <time>2022-04-10T10:37:28.067Z</time>
      </trkpt>
      <trkpt lat="42.14929" lon="22.03289">
        <ele>726.839873</ele>
        <time>2022-04-10T10:37:31.061Z</time>
      </trkpt>
      <trkpt lat="42.14927" lon="22.03272">
        <ele>726.229404</ele>
        <time>2022-04-10T10:37:34.064Z</time>
      </trkpt>
      <trkpt lat="42.14926" lon="22.03253">
        <ele>725.577494</ele>
        <time>2022-04-10T10:37:37.084Z</time>
      </trkpt>
      <trkpt lat="42.14926" lon="22.03239">
        <ele>725.059066</ele>
        <time>2022-04-10T10:37:39.067Z</time>
      </trkpt>
      <trkpt lat="42.14926" lon="22.03223">
        <ele>724.502314</ele>
        <time>2022-04-10T10:37:41.052Z</time>
      </trkpt>
      <trkpt lat="42.14926" lon="22.03206">
        <ele>723.920879</ele>
        <time>2022-04-10T10:37:43.062Z</time>
      </trkpt>
      <trkpt lat="42.14927" lon="22.03189">
        <ele>723.318311</ele>
        <time>2022-04-10T10:37:45.056Z</time>
      </trkpt>
      <trkpt lat="42.14927" lon="22.03171">
        <ele>722.69151</ele>
        <time>2022-04-10T10:37:47.077Z</time>
      </trkpt>
      <trkpt lat="42.14927" lon="22.03152">
        <ele>722.018609</ele>
        <time>2022-04-10T10:37:49.064Z</time>
      </trkpt>
      <trkpt lat="42.14928" lon="22.03131">
        <ele>721.305892</ele>
        <time>2022-04-10T10:37:51.067Z</time>
      </trkpt>
      <trkpt lat="42.14929" lon="22.03112">
        <ele>720.619176</ele>
        <time>2022-04-10T10:37:53.058Z</time>
      </trkpt>
      <trkpt lat="42.1493" lon="22.03092">
        <ele>719.877849</ele>
        <time>2022-04-10T10:37:55.054Z</time>
      </trkpt>
      <trkpt lat="42.1493" lon="22.03072">
        <ele>718.974942</ele>
        <time>2022-04-10T10:37:57.054Z</time>
      </trkpt>
      <trkpt lat="42.14931" lon="22.03051">
        <ele>718.058166</ele>
        <time>2022-04-10T10:37:59.044Z</time>
      </trkpt>
      <trkpt lat="42.14932" lon="22.03029">
        <ele>717.092484</ele>
        <time>2022-04-10T10:38:01.051Z</time>
      </trkpt>
      <trkpt lat="42.14934" lon="22.03007">
        <ele>716.093683</ele>
        <time>2022-04-10T10:38:03.070Z</time>
      </trkpt>
      <trkpt lat="42.14935" lon="22.02984">
        <ele>715.072323</ele>
        <time>2022-04-10T10:38:05.066Z</time>
      </trkpt>
      <trkpt lat="42.14936" lon="22.0296">
        <ele>714.027523</ele>
        <time>2022-04-10T10:38:07.060Z</time>
      </trkpt>
      <trkpt lat="42.14937" lon="22.02936">
        <ele>712.965998</ele>
        <time>2022-04-10T10:38:09.069Z</time>
      </trkpt>
      <trkpt lat="42.14937" lon="22.02912">
        <ele>711.882786</ele>
        <time>2022-04-10T10:38:11.074Z</time>
      </trkpt>
      <trkpt lat="42.14936" lon="22.02899">
        <ele>711.307526</ele>
        <time>2022-04-10T10:38:12.061Z</time>
      </trkpt>
      <trkpt lat="42.14936" lon="22.02886">
        <ele>710.73606</ele>
        <time>2022-04-10T10:38:13.074Z</time>
      </trkpt>
      <trkpt lat="42.14935" lon="22.02873">
        <ele>710.177418</ele>
        <time>2022-04-10T10:38:14.044Z</time>
      </trkpt>
      <trkpt lat="42.14934" lon="22.02861">
        <ele>709.62155</ele>
        <time>2022-04-10T10:38:15.098Z</time>
      </trkpt>
      <trkpt lat="42.14933" lon="22.02848">
        <ele>709.096188</ele>
        <time>2022-04-10T10:38:16.106Z</time>
      </trkpt>
      <trkpt lat="42.14932" lon="22.02836">
        <ele>708.588672</ele>
        <time>2022-04-10T10:38:17.076Z</time>
      </trkpt>
      <trkpt lat="42.1493" lon="22.02824">
        <ele>708.073605</ele>
        <time>2022-04-10T10:38:18.054Z</time>
      </trkpt>
      <trkpt lat="42.14927" lon="22.028">
        <ele>707.060807</ele>
        <time>2022-04-10T10:38:20.061Z</time>
      </trkpt>
      <trkpt lat="42.14924" lon="22.02788">
        <ele>706.528022</ele>
        <time>2022-04-10T10:38:21.045Z</time>
      </trkpt>
      <trkpt lat="42.14922" lon="22.02775">
        <ele>705.980283</ele>
        <time>2022-04-10T10:38:22.097Z</time>
      </trkpt>
      <trkpt lat="42.14919" lon="22.02762">
        <ele>705.421477</ele>
        <time>2022-04-10T10:38:23.065Z</time>
      </trkpt>
      <trkpt lat="42.14916" lon="22.02749">
        <ele>704.865047</ele>
        <time>2022-04-10T10:38:24.080Z</time>
      </trkpt>
      <trkpt lat="42.14913" lon="22.02736">
        <ele>704.298256</ele>
        <time>2022-04-10T10:38:25.066Z</time>
      </trkpt>
      <trkpt lat="42.1491" lon="22.02724">
        <ele>703.747424</ele>
        <time>2022-04-10T10:38:26.072Z</time>
      </trkpt>
      <trkpt lat="42.14907" lon="22.02711">
        <ele>703.210838</ele>
        <time>2022-04-10T10:38:27.065Z</time>
      </trkpt>
      <trkpt lat="42.14904" lon="22.02699">
        <ele>702.694023</ele>
        <time>2022-04-10T10:38:28.084Z</time>
      </trkpt>
      <trkpt lat="42.14902" lon="22.02688">
        <ele>702.182902</ele>
        <time>2022-04-10T10:38:29.062Z</time>
      </trkpt>
      <trkpt lat="42.14899" lon="22.02676">
        <ele>701.678092</ele>
        <time>2022-04-10T10:38:30.061Z</time>
      </trkpt>
      <trkpt lat="42.14895" lon="22.02665">
        <ele>701.159641</ele>
        <time>2022-04-10T10:38:31.074Z</time>
      </trkpt>
      <trkpt lat="42.14892" lon="22.02653">
        <ele>700.647017</ele>
        <time>2022-04-10T10:38:32.059Z</time>
      </trkpt>
      <trkpt lat="42.14886" lon="22.0263">
        <ele>699.646989</ele>
        <time>2022-04-10T10:38:34.059Z</time>
      </trkpt>
      <trkpt lat="42.14883" lon="22.02619">
        <ele>699.19618</ele>
        <time>2022-04-10T10:38:35.078Z</time>
      </trkpt>
      <trkpt lat="42.1488" lon="22.02607">
        <ele>698.884781</ele>
        <time>2022-04-10T10:38:36.057Z</time>
      </trkpt>
      <trkpt lat="42.14877" lon="22.02595">
        <ele>698.561632</ele>
        <time>2022-04-10T10:38:37.057Z</time>
      </trkpt>
      <trkpt lat="42.14874" lon="22.02582">
        <ele>698.235039</ele>
        <time>2022-04-10T10:38:38.049Z</time>
      </trkpt>
      <trkpt lat="42.1487" lon="22.0257">
        <ele>697.906179</ele>
        <time>2022-04-10T10:38:39.058Z</time>
      </trkpt>
      <trkpt lat="42.14867" lon="22.02557">
        <ele>697.578315</ele>
        <time>2022-04-10T10:38:40.071Z</time>
      </trkpt>
      <trkpt lat="42.14865" lon="22.02545">
        <ele>697.254458</ele>
        <time>2022-04-10T10:38:41.051Z</time>
      </trkpt>
      <trkpt lat="42.14862" lon="22.02532">
        <ele>696.92343</ele>
        <time>2022-04-10T10:38:42.075Z</time>
      </trkpt>
      <trkpt lat="42.14859" lon="22.0252">
        <ele>696.600005</ele>
        <time>2022-04-10T10:38:43.097Z</time>
      </trkpt>
      <trkpt lat="42.14856" lon="22.02507">
        <ele>696.284705</ele>
        <time>2022-04-10T10:38:44.046Z</time>
      </trkpt>
      <trkpt lat="42.14854" lon="22.02495">
        <ele>695.965621</ele>
        <time>2022-04-10T10:38:45.053Z</time>
      </trkpt>
      <trkpt lat="42.14851" lon="22.02483">
        <ele>695.648376</ele>
        <time>2022-04-10T10:38:46.053Z</time>
      </trkpt>
      <trkpt lat="42.14848" lon="22.02471">
        <ele>695.335009</ele>
        <time>2022-04-10T10:38:47.062Z</time>
      </trkpt>
      <trkpt lat="42.14846" lon="22.02459">
        <ele>695.02911</ele>
        <time>2022-04-10T10:38:48.047Z</time>
      </trkpt>
      <trkpt lat="42.14842" lon="22.02436">
        <ele>694.440692</ele>
        <time>2022-04-10T10:38:50.063Z</time>
      </trkpt>
      <trkpt lat="42.14838" lon="22.02414">
        <ele>693.881976</ele>
        <time>2022-04-10T10:38:52.049Z</time>
      </trkpt>
      <trkpt lat="42.14835" lon="22.02392">
        <ele>693.329185</ele>
        <time>2022-04-10T10:38:54.070Z</time>
      </trkpt>
      <trkpt lat="42.14832" lon="22.0237">
        <ele>693.195316</ele>
        <time>2022-04-10T10:38:56.086Z</time>
      </trkpt>
      <trkpt lat="42.14829" lon="22.02349">
        <ele>693.124423</ele>
        <time>2022-04-10T10:38:58.059Z</time>
      </trkpt>
      <trkpt lat="42.14827" lon="22.02329">
        <ele>693.056889</ele>
        <time>2022-04-10T10:39:00.058Z</time>
      </trkpt>
      <trkpt lat="42.14825" lon="22.02311">
        <ele>692.993368</ele>
        <time>2022-04-10T10:39:02.064Z</time>
      </trkpt>
      <trkpt lat="42.14822" lon="22.02292">
        <ele>692.93116</ele>
        <time>2022-04-10T10:39:04.057Z</time>
      </trkpt>
      <trkpt lat="42.1482" lon="22.02274">
        <ele>692.870884</ele>
        <time>2022-04-10T10:39:06.064Z</time>
      </trkpt>
      <trkpt lat="42.14818" lon="22.02257">
        <ele>692.812715</ele>
        <time>2022-04-10T10:39:08.083Z</time>
      </trkpt>
      <trkpt lat="42.14817" lon="22.0224">
        <ele>692.756371</ele>
        <time>2022-04-10T10:39:10.057Z</time>
      </trkpt>
      <trkpt lat="42.14815" lon="22.02224">
        <ele>692.702343</ele>
        <time>2022-04-10T10:39:12.052Z</time>
      </trkpt>
      <trkpt lat="42.14813" lon="22.02209">
        <ele>692.649444</ele>
        <time>2022-04-10T10:39:14.080Z</time>
      </trkpt>
      <trkpt lat="42.14811" lon="22.02193">
        <ele>692.598588</ele>
        <time>2022-04-10T10:39:16.048Z</time>
      </trkpt>
      <trkpt lat="42.1481" lon="22.02179">
        <ele>692.550291</ele>
        <time>2022-04-10T10:39:18.080Z</time>
      </trkpt>
      <trkpt lat="42.14808" lon="22.02165">
        <ele>692.501589</ele>
        <time>2022-04-10T10:39:20.088Z</time>
      </trkpt>
      <trkpt lat="42.14806" lon="22.02151">
        <ele>692.454352</ele>
        <time>2022-04-10T10:39:22.046Z</time>
      </trkpt>
      <trkpt lat="42.14804" lon="22.02137">
        <ele>692.396839</ele>
        <time>2022-04-10T10:39:24.054Z</time>
      </trkpt>
      <trkpt lat="42.14803" lon="22.02125">
        <ele>692.342903</ele>
        <time>2022-04-10T10:39:26.100Z</time>
      </trkpt>
      <trkpt lat="42.148" lon="22.02107">
        <ele>692.267762</ele>
        <time>2022-04-10T10:39:29.066Z</time>
      </trkpt>
      <trkpt lat="42.14799" lon="22.0209">
        <ele>692.194564</ele>
        <time>2022-04-10T10:39:32.067Z</time>
      </trkpt>
      <trkpt lat="42.14797" lon="22.02073">
        <ele>692.1239</ele>
        <time>2022-04-10T10:39:35.052Z</time>
      </trkpt>
      <trkpt lat="42.14795" lon="22.02058">
        <ele>692.056974</ele>
        <time>2022-04-10T10:39:38.059Z</time>
      </trkpt>
      <trkpt lat="42.14794" lon="22.02042">
        <ele>691.990558</ele>
        <time>2022-04-10T10:39:41.092Z</time>
      </trkpt>
      <trkpt lat="42.14792" lon="22.02027">
        <ele>691.923723</ele>
        <time>2022-04-10T10:39:44.055Z</time>
      </trkpt>
      <trkpt lat="42.1479" lon="22.0201">
        <ele>691.85377</ele>
        <time>2022-04-10T10:39:47.065Z</time>
      </trkpt>
      <trkpt lat="42.14788" lon="22.01994">
        <ele>691.785591</ele>
        <time>2022-04-10T10:39:50.050Z</time>
      </trkpt>
      <trkpt lat="42.14786" lon="22.01978">
        <ele>691.715137</ele>
        <time>2022-04-10T10:39:53.051Z</time>
      </trkpt>
      <trkpt lat="42.14784" lon="22.01961">
        <ele>691.644031</ele>
        <time>2022-04-10T10:39:56.063Z</time>
      </trkpt>
      <trkpt lat="42.14783" lon="22.01945">
        <ele>691.573847</ele>
        <time>2022-04-10T10:39:59.062Z</time>
      </trkpt>
      <trkpt lat="42.14781" lon="22.01929">
        <ele>691.504323</ele>
        <time>2022-04-10T10:40:02.083Z</time>
      </trkpt>
      <trkpt lat="42.14778" lon="22.01912">
        <ele>691.433769</ele>
        <time>2022-04-10T10:40:05.052Z</time>
      </trkpt>
      <trkpt lat="42.14776" lon="22.01895">
        <ele>691.366252</ele>
        <time>2022-04-10T10:40:08.096Z</time>
      </trkpt>
      <trkpt lat="42.14774" lon="22.01878">
        <ele>691.300746</ele>
        <time>2022-04-10T10:40:11.064Z</time>
      </trkpt>
      <trkpt lat="42.14772" lon="22.01861">
        <ele>691.235752</ele>
        <time>2022-04-10T10:40:14.041Z</time>
      </trkpt>
      <trkpt lat="42.1477" lon="22.01844">
        <ele>691.171852</ele>
        <time>2022-04-10T10:40:17.062Z</time>
      </trkpt>
      <trkpt lat="42.14768" lon="22.01827">
        <ele>691.109968</ele>
        <time>2022-04-10T10:40:20.084Z</time>
      </trkpt>
      <trkpt lat="42.14767" lon="22.01811">
        <ele>691.047073</ele>
        <time>2022-04-10T10:40:23.064Z</time>
      </trkpt>
      <trkpt lat="42.14765" lon="22.01794">
        <ele>690.982687</ele>
        <time>2022-04-10T10:40:26.046Z</time>
      </trkpt>
      <trkpt lat="42.14764" lon="22.01776">
        <ele>690.91653</ele>
        <time>2022-04-10T10:40:29.098Z</time>
      </trkpt>
      <trkpt lat="42.14763" lon="22.01758">
        <ele>690.84933</ele>
        <time>2022-04-10T10:40:32.095Z</time>
      </trkpt>
      <trkpt lat="42.14762" lon="22.01746">
        <ele>690.803297</ele>
        <time>2022-04-10T10:40:34.061Z</time>
      </trkpt>
      <trkpt lat="42.14761" lon="22.01734">
        <ele>690.756432</ele>
        <time>2022-04-10T10:40:36.062Z</time>
      </trkpt>
      <trkpt lat="42.14759" lon="22.01721">
        <ele>690.70797</ele>
        <time>2022-04-10T10:40:38.104Z</time>
      </trkpt>
      <trkpt lat="42.14758" lon="22.01708">
        <ele>690.658691</ele>
        <time>2022-04-10T10:40:40.069Z</time>
      </trkpt>
      <trkpt lat="42.14756" lon="22.01695">
        <ele>690.609524</ele>
        <time>2022-04-10T10:40:42.060Z</time>
      </trkpt>
      <trkpt lat="42.14755" lon="22.01682">
        <ele>690.559648</ele>
        <time>2022-04-10T10:40:44.101Z</time>
      </trkpt>
      <trkpt lat="42.14754" lon="22.01667">
        <ele>690.484199</ele>
        <time>2022-04-10T10:40:46.063Z</time>
      </trkpt>
      <trkpt lat="42.14752" lon="22.01652">
        <ele>690.343147</ele>
        <time>2022-04-10T10:40:48.057Z</time>
      </trkpt>
      <trkpt lat="42.14751" lon="22.01637">
        <ele>690.199679</ele>
        <time>2022-04-10T10:40:50.061Z</time>
      </trkpt>
      <trkpt lat="42.14749" lon="22.01622">
        <ele>690.051447</ele>
        <time>2022-04-10T10:40:52.057Z</time>
      </trkpt>
      <trkpt lat="42.14748" lon="22.01606">
        <ele>689.897138</ele>
        <time>2022-04-10T10:40:54.079Z</time>
      </trkpt>
      <trkpt lat="42.14746" lon="22.01589">
        <ele>689.73431</ele>
        <time>2022-04-10T10:40:56.053Z</time>
      </trkpt>
      <trkpt lat="42.14743" lon="22.01573">
        <ele>689.570133</ele>
        <time>2022-04-10T10:40:58.050Z</time>
      </trkpt>
      <trkpt lat="42.1474" lon="22.01555">
        <ele>689.396052</ele>
        <time>2022-04-10T10:41:00.106Z</time>
      </trkpt>
      <trkpt lat="42.14738" lon="22.01536">
        <ele>689.211127</ele>
        <time>2022-04-10T10:41:02.048Z</time>
      </trkpt>
      <trkpt lat="42.14734" lon="22.01516">
        <ele>689.019486</ele>
        <time>2022-04-10T10:41:04.058Z</time>
      </trkpt>
      <trkpt lat="42.14731" lon="22.01496">
        <ele>688.824472</ele>
        <time>2022-04-10T10:41:06.094Z</time>
      </trkpt>
      <trkpt lat="42.14729" lon="22.01477">
        <ele>688.632282</ele>
        <time>2022-04-10T10:41:08.060Z</time>
      </trkpt>
      <trkpt lat="42.14726" lon="22.01457">
        <ele>688.442215</ele>
        <time>2022-04-10T10:41:10.064Z</time>
      </trkpt>
      <trkpt lat="42.14724" lon="22.01439">
        <ele>688.26343</ele>
        <time>2022-04-10T10:41:12.051Z</time>
      </trkpt>
      <trkpt lat="42.14721" lon="22.0142">
        <ele>687.700035</ele>
        <time>2022-04-10T10:41:14.046Z</time>
      </trkpt>
      <trkpt lat="42.14719" lon="22.014">
        <ele>686.838717</ele>
        <time>2022-04-10T10:41:16.088Z</time>
      </trkpt>
      <trkpt lat="42.14716" lon="22.01381">
        <ele>685.983908</ele>
        <time>2022-04-10T10:41:18.087Z</time>
      </trkpt>
      <trkpt lat="42.14713" lon="22.0136">
        <ele>685.086842</ele>
        <time>2022-04-10T10:41:20.054Z</time>
      </trkpt>
      <trkpt lat="42.14711" lon="22.01339">
        <ele>684.152899</ele>
        <time>2022-04-10T10:41:22.047Z</time>
      </trkpt>
      <trkpt lat="42.14708" lon="22.01317">
        <ele>683.221921</ele>
        <time>2022-04-10T10:41:24.067Z</time>
      </trkpt>
      <trkpt lat="42.14705" lon="22.01296">
        <ele>682.289</ele>
        <time>2022-04-10T10:41:26.067Z</time>
      </trkpt>
      <trkpt lat="42.14703" lon="22.01274">
        <ele>681.354699</ele>
        <time>2022-04-10T10:41:28.050Z</time>
      </trkpt>
      <trkpt lat="42.14701" lon="22.01252">
        <ele>680.391678</ele>
        <time>2022-04-10T10:41:30.071Z</time>
      </trkpt>
      <trkpt lat="42.14699" lon="22.0123">
        <ele>679.416591</ele>
        <time>2022-04-10T10:41:32.053Z</time>
      </trkpt>
      <trkpt lat="42.14696" lon="22.01208">
        <ele>678.459299</ele>
        <time>2022-04-10T10:41:34.069Z</time>
      </trkpt>
      <trkpt lat="42.14694" lon="22.01188">
        <ele>677.685177</ele>
        <time>2022-04-10T10:41:36.079Z</time>
      </trkpt>
      <trkpt lat="42.14692" lon="22.01168">
        <ele>677.204259</ele>
        <time>2022-04-10T10:41:38.075Z</time>
      </trkpt>
      <trkpt lat="42.1469" lon="22.01148">
        <ele>676.708923</ele>
        <time>2022-04-10T10:41:40.082Z</time>
      </trkpt>
      <trkpt lat="42.14688" lon="22.01127">
        <ele>676.202331</ele>
        <time>2022-04-10T10:41:42.045Z</time>
      </trkpt>
      <trkpt lat="42.14686" lon="22.01106">
        <ele>675.677874</ele>
        <time>2022-04-10T10:41:44.054Z</time>
      </trkpt>
      <trkpt lat="42.14683" lon="22.01085">
        <ele>675.158953</ele>
        <time>2022-04-10T10:41:46.117Z</time>
      </trkpt>
      <trkpt lat="42.1468" lon="22.01064">
        <ele>674.638211</ele>
        <time>2022-04-10T10:41:48.067Z</time>
      </trkpt>
      <trkpt lat="42.14678" lon="22.01043">
        <ele>674.123316</ele>
        <time>2022-04-10T10:41:50.054Z</time>
      </trkpt>
      <trkpt lat="42.14675" lon="22.01021">
        <ele>673.597829</ele>
        <time>2022-04-10T10:41:52.052Z</time>
      </trkpt>
      <trkpt lat="42.14671" lon="22.01">
        <ele>673.066304</ele>
        <time>2022-04-10T10:41:54.072Z</time>
      </trkpt>
      <trkpt lat="42.14669" lon="22.00978">
        <ele>672.523648</ele>
        <time>2022-04-10T10:41:56.073Z</time>
      </trkpt>
      <trkpt lat="42.14667" lon="22.00957">
        <ele>672.008752</ele>
        <time>2022-04-10T10:41:58.062Z</time>
      </trkpt>
      <trkpt lat="42.14664" lon="22.00935">
        <ele>671.572376</ele>
        <time>2022-04-10T10:42:00.054Z</time>
      </trkpt>
      <trkpt lat="42.14662" lon="22.00914">
        <ele>671.163158</ele>
        <time>2022-04-10T10:42:02.053Z</time>
      </trkpt>
      <trkpt lat="42.14659" lon="22.00891">
        <ele>670.72116</ele>
        <time>2022-04-10T10:42:04.059Z</time>
      </trkpt>
      <trkpt lat="42.14656" lon="22.00867">
        <ele>670.263741</ele>
        <time>2022-04-10T10:42:06.078Z</time>
      </trkpt>
      <trkpt lat="42.14654" lon="22.00843">
        <ele>669.805967</ele>
        <time>2022-04-10T10:42:08.044Z</time>
      </trkpt>
      <trkpt lat="42.14651" lon="22.0082">
        <ele>669.345942</ele>
        <time>2022-04-10T10:42:10.069Z</time>
      </trkpt>
      <trkpt lat="42.1465" lon="22.00807">
        <ele>669.112311</ele>
        <time>2022-04-10T10:42:11.056Z</time>
      </trkpt>
      <trkpt lat="42.14648" lon="22.00795">
        <ele>668.877208</ele>
        <time>2022-04-10T10:42:12.070Z</time>
      </trkpt>
      <trkpt lat="42.14647" lon="22.00783">
        <ele>668.643986</ele>
        <time>2022-04-10T10:42:13.063Z</time>
      </trkpt>
      <trkpt lat="42.14645" lon="22.00759">
        <ele>668.184678</ele>
        <time>2022-04-10T10:42:15.065Z</time>
      </trkpt>
      <trkpt lat="42.14643" lon="22.00747">
        <ele>667.953338</ele>
        <time>2022-04-10T10:42:16.061Z</time>
      </trkpt>
      <trkpt lat="42.1464" lon="22.00724">
        <ele>667.501941</ele>
        <time>2022-04-10T10:42:18.058Z</time>
      </trkpt>
      <trkpt lat="42.14638" lon="22.007">
        <ele>666.912262</ele>
        <time>2022-04-10T10:42:20.045Z</time>
      </trkpt>
      <trkpt lat="42.14635" lon="22.00677">
        <ele>666.202481</ele>
        <time>2022-04-10T10:42:22.065Z</time>
      </trkpt>
      <trkpt lat="42.14632" lon="22.00653">
        <ele>665.483793</ele>
        <time>2022-04-10T10:42:24.069Z</time>
      </trkpt>
      <trkpt lat="42.14629" lon="22.0063">
        <ele>664.77698</ele>
        <time>2022-04-10T10:42:26.062Z</time>
      </trkpt>
      <trkpt lat="42.14626" lon="22.00607">
        <ele>664.075433</ele>
        <time>2022-04-10T10:42:28.054Z</time>
      </trkpt>
      <trkpt lat="42.14624" lon="22.00585">
        <ele>663.410817</ele>
        <time>2022-04-10T10:42:30.067Z</time>
      </trkpt>
      <trkpt lat="42.14622" lon="22.00564">
        <ele>662.765203</ele>
        <time>2022-04-10T10:42:32.055Z</time>
      </trkpt>
      <trkpt lat="42.1462" lon="22.00543">
        <ele>662.111593</ele>
        <time>2022-04-10T10:42:34.064Z</time>
      </trkpt>
      <trkpt lat="42.14618" lon="22.00521">
        <ele>661.46349</ele>
        <time>2022-04-10T10:42:36.066Z</time>
      </trkpt>
      <trkpt lat="42.14616" lon="22.005">
        <ele>660.830313</ele>
        <time>2022-04-10T10:42:38.044Z</time>
      </trkpt>
      <trkpt lat="42.14615" lon="22.0048">
        <ele>660.214255</ele>
        <time>2022-04-10T10:42:40.059Z</time>
      </trkpt>
      <trkpt lat="42.14614" lon="22.00459">
        <ele>659.735014</ele>
        <time>2022-04-10T10:42:42.083Z</time>
      </trkpt>
      <trkpt lat="42.14614" lon="22.00438">
        <ele>659.342205</ele>
        <time>2022-04-10T10:42:44.057Z</time>
      </trkpt>
      <trkpt lat="42.14615" lon="22.00418">
        <ele>658.954459</ele>
        <time>2022-04-10T10:42:46.052Z</time>
      </trkpt>
      <trkpt lat="42.14616" lon="22.00398">
        <ele>658.569762</ele>
        <time>2022-04-10T10:42:48.074Z</time>
      </trkpt>
      <trkpt lat="42.14618" lon="22.00379">
        <ele>658.194322</ele>
        <time>2022-04-10T10:42:50.049Z</time>
      </trkpt>
      <trkpt lat="42.14622" lon="22.0036">
        <ele>657.820413</ele>
        <time>2022-04-10T10:42:52.110Z</time>
      </trkpt>
      <trkpt lat="42.14627" lon="22.00341">
        <ele>657.452952</ele>
        <time>2022-04-10T10:42:54.072Z</time>
      </trkpt>
      <trkpt lat="42.14632" lon="22.00324">
        <ele>657.085013</ele>
        <time>2022-04-10T10:42:56.050Z</time>
      </trkpt>
      <trkpt lat="42.14639" lon="22.00306">
        <ele>656.717521</ele>
        <time>2022-04-10T10:42:58.054Z</time>
      </trkpt>
      <trkpt lat="42.14646" lon="22.0029">
        <ele>656.355424</ele>
        <time>2022-04-10T10:43:00.061Z</time>
      </trkpt>
      <trkpt lat="42.14654" lon="22.00274">
        <ele>655.987775</ele>
        <time>2022-04-10T10:43:02.071Z</time>
      </trkpt>
      <trkpt lat="42.14663" lon="22.0026">
        <ele>655.622646</ele>
        <time>2022-04-10T10:43:04.057Z</time>
      </trkpt>
      <trkpt lat="42.14673" lon="22.00246">
        <ele>655.284528</ele>
        <time>2022-04-10T10:43:06.067Z</time>
      </trkpt>
      <trkpt lat="42.14682" lon="22.00233">
        <ele>654.995481</ele>
        <time>2022-04-10T10:43:08.065Z</time>
      </trkpt>
      <trkpt lat="42.14691" lon="22.00221">
        <ele>654.714035</ele>
        <time>2022-04-10T10:43:10.090Z</time>
      </trkpt>
      <trkpt lat="42.14701" lon="22.0021">
        <ele>654.432762</ele>
        <time>2022-04-10T10:43:12.062Z</time>
      </trkpt>
      <trkpt lat="42.14712" lon="22.00199">
        <ele>654.153377</ele>
        <time>2022-04-10T10:43:14.059Z</time>
      </trkpt>
      <trkpt lat="42.14722" lon="22.00189">
        <ele>653.867834</ele>
        <time>2022-04-10T10:43:16.043Z</time>
      </trkpt>
      <trkpt lat="42.14733" lon="22.00179">
        <ele>653.578984</ele>
        <time>2022-04-10T10:43:18.054Z</time>
      </trkpt>
      <trkpt lat="42.14745" lon="22.00169">
        <ele>653.284625</ele>
        <time>2022-04-10T10:43:20.077Z</time>
      </trkpt>
      <trkpt lat="42.14757" lon="22.00159">
        <ele>652.98023</ele>
        <time>2022-04-10T10:43:22.105Z</time>
      </trkpt>
      <trkpt lat="42.14768" lon="22.00149">
        <ele>652.677894</ele>
        <time>2022-04-10T10:43:24.086Z</time>
      </trkpt>
      <trkpt lat="42.1478" lon="22.00138">
        <ele>652.38096</ele>
        <time>2022-04-10T10:43:26.077Z</time>
      </trkpt>
      <trkpt lat="42.1479" lon="22.00128">
        <ele>652.103645</ele>
        <time>2022-04-10T10:43:28.064Z</time>
      </trkpt>
      <trkpt lat="42.148" lon="22.00117">
        <ele>651.828424</ele>
        <time>2022-04-10T10:43:30.064Z</time>
      </trkpt>
      <trkpt lat="42.14809" lon="22.00107">
        <ele>651.566129</ele>
        <time>2022-04-10T10:43:32.065Z</time>
      </trkpt>
      <trkpt lat="42.14818" lon="22.00096">
        <ele>651.319727</ele>
        <time>2022-04-10T10:43:34.052Z</time>
      </trkpt>
      <trkpt lat="42.14826" lon="22.00086">
        <ele>651.080884</ele>
        <time>2022-04-10T10:43:36.059Z</time>
      </trkpt>
      <trkpt lat="42.14834" lon="22.00075">
        <ele>650.847009</ele>
        <time>2022-04-10T10:43:38.088Z</time>
      </trkpt>
      <trkpt lat="42.14842" lon="22.00064">
        <ele>650.610395</ele>
        <time>2022-04-10T10:43:40.062Z</time>
      </trkpt>
      <trkpt lat="42.14848" lon="22.00053">
        <ele>650.394195</ele>
        <time>2022-04-10T10:43:42.063Z</time>
      </trkpt>
      <trkpt lat="42.14854" lon="22.00041">
        <ele>650.182413</ele>
        <time>2022-04-10T10:43:44.110Z</time>
      </trkpt>
      <trkpt lat="42.14858" lon="22.00031">
        <ele>649.99489</ele>
        <time>2022-04-10T10:43:46.045Z</time>
      </trkpt>
      <trkpt lat="42.14864" lon="22.00018">
        <ele>649.763636</ele>
        <time>2022-04-10T10:43:49.071Z</time>
      </trkpt>
      <trkpt lat="42.14873" lon="22.00007">
        <ele>649.516899</ele>
        <time>2022-04-10T10:43:53.054Z</time>
      </trkpt>
      <trkpt lat="42.14877" lon="21.99982">
        <ele>649.117125</ele>
        <time>2022-04-10T11:16:24.086Z</time>
      </trkpt>
      <trkpt lat="42.1488" lon="21.9997">
        <ele>648.924705</ele>
        <time>2022-04-10T11:16:26.064Z</time>
      </trkpt>
      <trkpt lat="42.14883" lon="21.99957">
        <ele>648.712034</ele>
        <time>2022-04-10T11:16:28.054Z</time>
      </trkpt>
      <trkpt lat="42.14885" lon="21.99942">
        <ele>648.474488</ele>
        <time>2022-04-10T11:16:30.095Z</time>
      </trkpt>
      <trkpt lat="42.14887" lon="21.99925">
        <ele>648.219838</ele>
        <time>2022-04-10T11:16:32.067Z</time>
      </trkpt>
      <trkpt lat="42.14889" lon="21.99908">
        <ele>647.947206</ele>
        <time>2022-04-10T11:16:34.151Z</time>
      </trkpt>
      <trkpt lat="42.14889" lon="21.99891">
        <ele>647.622766</ele>
        <time>2022-04-10T11:16:36.050Z</time>
      </trkpt>
      <trkpt lat="42.1489" lon="21.99876">
        <ele>646.864617</ele>
        <time>2022-04-10T11:16:38.072Z</time>
      </trkpt>
      <trkpt lat="42.1489" lon="21.9986">
        <ele>646.084839</ele>
        <time>2022-04-10T11:16:40.083Z</time>
      </trkpt>
      <trkpt lat="42.1489" lon="21.99843">
        <ele>645.235474</ele>
        <time>2022-04-10T11:16:42.079Z</time>
      </trkpt>
      <trkpt lat="42.14888" lon="21.99825">
        <ele>644.334991</ele>
        <time>2022-04-10T11:16:44.057Z</time>
      </trkpt>
      <trkpt lat="42.14886" lon="21.99807">
        <ele>643.478238</ele>
        <time>2022-04-10T11:16:46.080Z</time>
      </trkpt>
      <trkpt lat="42.14884" lon="21.99791">
        <ele>642.678942</ele>
        <time>2022-04-10T11:16:48.084Z</time>
      </trkpt>
      <trkpt lat="42.14881" lon="21.99777">
        <ele>641.932929</ele>
        <time>2022-04-10T11:16:50.103Z</time>
      </trkpt>
      <trkpt lat="42.14877" lon="21.99763">
        <ele>641.206207</ele>
        <time>2022-04-10T11:16:52.060Z</time>
      </trkpt>
      <trkpt lat="42.14873" lon="21.99748">
        <ele>640.465811</ele>
        <time>2022-04-10T11:16:54.065Z</time>
      </trkpt>
      <trkpt lat="42.14869" lon="21.99735">
        <ele>639.740711</ele>
        <time>2022-04-10T11:16:56.071Z</time>
      </trkpt>
      <trkpt lat="42.14864" lon="21.99721">
        <ele>638.981449</ele>
        <time>2022-04-10T11:16:58.079Z</time>
      </trkpt>
      <trkpt lat="42.14859" lon="21.99707">
        <ele>638.209914</ele>
        <time>2022-04-10T11:17:00.069Z</time>
      </trkpt>
      <trkpt lat="42.14852" lon="21.99694">
        <ele>637.420472</ele>
        <time>2022-04-10T11:17:02.098Z</time>
      </trkpt>
      <trkpt lat="42.14844" lon="21.9968">
        <ele>636.573431</ele>
        <time>2022-04-10T11:17:04.068Z</time>
      </trkpt>
      <trkpt lat="42.14836" lon="21.99666">
        <ele>635.775433</ele>
        <time>2022-04-10T11:17:06.058Z</time>
      </trkpt>
      <trkpt lat="42.14826" lon="21.99651">
        <ele>635.467037</ele>
        <time>2022-04-10T11:17:08.147Z</time>
      </trkpt>
      <trkpt lat="42.14816" lon="21.99637">
        <ele>635.150295</ele>
        <time>2022-04-10T11:17:10.077Z</time>
      </trkpt>
      <trkpt lat="42.14806" lon="21.99625">
        <ele>634.844299</ele>
        <time>2022-04-10T11:17:12.049Z</time>
      </trkpt>
      <trkpt lat="42.14795" lon="21.99614">
        <ele>634.555643</ele>
        <time>2022-04-10T11:17:14.060Z</time>
      </trkpt>
      <trkpt lat="42.14784" lon="21.99604">
        <ele>634.266893</ele>
        <time>2022-04-10T11:17:16.074Z</time>
      </trkpt>
      <trkpt lat="42.14773" lon="21.99595">
        <ele>633.990581</ele>
        <time>2022-04-10T11:17:18.061Z</time>
      </trkpt>
      <trkpt lat="42.14763" lon="21.99587">
        <ele>633.722017</ele>
        <time>2022-04-10T11:17:20.052Z</time>
      </trkpt>
      <trkpt lat="42.14752" lon="21.9958">
        <ele>633.456597</ele>
        <time>2022-04-10T11:17:22.077Z</time>
      </trkpt>
      <trkpt lat="42.1474" lon="21.99574">
        <ele>633.186191</ele>
        <time>2022-04-10T11:17:24.067Z</time>
      </trkpt>
      <trkpt lat="42.14728" lon="21.99569">
        <ele>632.916</ele>
        <time>2022-04-10T11:17:26.071Z</time>
      </trkpt>
      <trkpt lat="42.14716" lon="21.99564">
        <ele>632.644027</ele>
        <time>2022-04-10T11:17:28.089Z</time>
      </trkpt>
      <trkpt lat="42.14704" lon="21.99559">
        <ele>632.363242</ele>
        <time>2022-04-10T11:17:30.056Z</time>
      </trkpt>
      <trkpt lat="42.14691" lon="21.99553">
        <ele>632.080168</ele>
        <time>2022-04-10T11:17:32.082Z</time>
      </trkpt>
      <trkpt lat="42.14679" lon="21.99549">
        <ele>631.756173</ele>
        <time>2022-04-10T11:17:34.072Z</time>
      </trkpt>
      <trkpt lat="42.14667" lon="21.99544">
        <ele>631.375187</ele>
        <time>2022-04-10T11:17:36.119Z</time>
      </trkpt>
      <trkpt lat="42.14656" lon="21.99538">
        <ele>630.991251</ele>
        <time>2022-04-10T11:17:38.066Z</time>
      </trkpt>
      <trkpt lat="42.14643" lon="21.99533">
        <ele>630.5934</ele>
        <time>2022-04-10T11:17:40.059Z</time>
      </trkpt>
      <trkpt lat="42.14631" lon="21.99527">
        <ele>630.175683</ele>
        <time>2022-04-10T11:17:42.102Z</time>
      </trkpt>
      <trkpt lat="42.14618" lon="21.9952">
        <ele>629.749419</ele>
        <time>2022-04-10T11:17:44.055Z</time>
      </trkpt>
      <trkpt lat="42.14605" lon="21.99512">
        <ele>629.312147</ele>
        <time>2022-04-10T11:17:46.096Z</time>
      </trkpt>
      <trkpt lat="42.14593" lon="21.99502">
        <ele>628.86032</ele>
        <time>2022-04-10T11:17:48.078Z</time>
      </trkpt>
      <trkpt lat="42.14581" lon="21.99492">
        <ele>628.423555</ele>
        <time>2022-04-10T11:17:50.058Z</time>
      </trkpt>
      <trkpt lat="42.1457" lon="21.9948">
        <ele>628.002044</ele>
        <time>2022-04-10T11:17:52.069Z</time>
      </trkpt>
      <trkpt lat="42.14561" lon="21.99468">
        <ele>627.586354</ele>
        <time>2022-04-10T11:17:54.081Z</time>
      </trkpt>
      <trkpt lat="42.14551" lon="21.99455">
        <ele>627.171346</ele>
        <time>2022-04-10T11:17:56.080Z</time>
      </trkpt>
      <trkpt lat="42.14542" lon="21.9944">
        <ele>626.727776</ele>
        <time>2022-04-10T11:17:58.074Z</time>
      </trkpt>
      <trkpt lat="42.14532" lon="21.99426">
        <ele>626.233751</ele>
        <time>2022-04-10T11:18:00.078Z</time>
      </trkpt>
      <trkpt lat="42.14524" lon="21.99412">
        <ele>625.2378</ele>
        <time>2022-04-10T11:18:02.062Z</time>
      </trkpt>
      <trkpt lat="42.14516" lon="21.99397">
        <ele>624.23462</ele>
        <time>2022-04-10T11:18:04.126Z</time>
      </trkpt>
      <trkpt lat="42.14508" lon="21.99381">
        <ele>623.172593</ele>
        <time>2022-04-10T11:18:06.076Z</time>
      </trkpt>
      <trkpt lat="42.14501" lon="21.99365">
        <ele>622.108797</ele>
        <time>2022-04-10T11:18:08.085Z</time>
      </trkpt>
      <trkpt lat="42.14495" lon="21.99349">
        <ele>621.123132</ele>
        <time>2022-04-10T11:18:10.075Z</time>
      </trkpt>
      <trkpt lat="42.14489" lon="21.99333">
        <ele>620.139805</ele>
        <time>2022-04-10T11:18:12.069Z</time>
      </trkpt>
      <trkpt lat="42.14485" lon="21.99315">
        <ele>619.106931</ele>
        <time>2022-04-10T11:18:14.086Z</time>
      </trkpt>
      <trkpt lat="42.14483" lon="21.99296">
        <ele>618.024497</ele>
        <time>2022-04-10T11:18:16.097Z</time>
      </trkpt>
      <trkpt lat="42.1448" lon="21.99276">
        <ele>616.922704</ele>
        <time>2022-04-10T11:18:18.056Z</time>
      </trkpt>
      <trkpt lat="42.14478" lon="21.99256">
        <ele>615.816581</ele>
        <time>2022-04-10T11:18:20.225Z</time>
      </trkpt>
      <trkpt lat="42.14477" lon="21.99237">
        <ele>614.729398</ele>
        <time>2022-04-10T11:18:22.068Z</time>
      </trkpt>
      <trkpt lat="42.14478" lon="21.99218">
        <ele>613.710626</ele>
        <time>2022-04-10T11:18:24.063Z</time>
      </trkpt>
      <trkpt lat="42.14479" lon="21.99201">
        <ele>612.817723</ele>
        <time>2022-04-10T11:18:26.094Z</time>
      </trkpt>
      <trkpt lat="42.14481" lon="21.99183">
        <ele>612.238362</ele>
        <time>2022-04-10T11:18:28.064Z</time>
      </trkpt>
      <trkpt lat="42.14483" lon="21.99165">
        <ele>611.659457</ele>
        <time>2022-04-10T11:18:30.081Z</time>
      </trkpt>
      <trkpt lat="42.14486" lon="21.99147">
        <ele>611.072413</ele>
        <time>2022-04-10T11:18:32.071Z</time>
      </trkpt>
      <trkpt lat="42.1449" lon="21.99129">
        <ele>610.466891</ele>
        <time>2022-04-10T11:18:34.081Z</time>
      </trkpt>
      <trkpt lat="42.14493" lon="21.9911">
        <ele>609.836377</ele>
        <time>2022-04-10T11:18:36.057Z</time>
      </trkpt>
      <trkpt lat="42.14498" lon="21.99091">
        <ele>609.204212</ele>
        <time>2022-04-10T11:18:38.055Z</time>
      </trkpt>
      <trkpt lat="42.14503" lon="21.99073">
        <ele>608.574515</ele>
        <time>2022-04-10T11:18:40.066Z</time>
      </trkpt>
      <trkpt lat="42.14509" lon="21.99054">
        <ele>607.93166</ele>
        <time>2022-04-10T11:18:42.068Z</time>
      </trkpt>
      <trkpt lat="42.14516" lon="21.99036">
        <ele>607.281545</ele>
        <time>2022-04-10T11:18:44.045Z</time>
      </trkpt>
      <trkpt lat="42.14523" lon="21.99019">
        <ele>606.649343</ele>
        <time>2022-04-10T11:18:46.075Z</time>
      </trkpt>
      <trkpt lat="42.14531" lon="21.99004">
        <ele>606.053959</ele>
        <time>2022-04-10T11:18:48.055Z</time>
      </trkpt>
      <trkpt lat="42.14538" lon="21.98989">
        <ele>605.492753</ele>
        <time>2022-04-10T11:18:50.065Z</time>
      </trkpt>
      <trkpt lat="42.14545" lon="21.98976">
        <ele>604.955659</ele>
        <time>2022-04-10T11:18:52.078Z</time>
      </trkpt>
      <trkpt lat="42.14554" lon="21.98963">
        <ele>604.385944</ele>
        <time>2022-04-10T11:18:54.077Z</time>
      </trkpt>
      <trkpt lat="42.14562" lon="21.9895">
        <ele>603.817821</ele>
        <time>2022-04-10T11:18:56.070Z</time>
      </trkpt>
      <trkpt lat="42.14571" lon="21.98938">
        <ele>603.220877</ele>
        <time>2022-04-10T11:18:58.055Z</time>
      </trkpt>
      <trkpt lat="42.14581" lon="21.98926">
        <ele>602.633519</ele>
        <time>2022-04-10T11:19:00.085Z</time>
      </trkpt>
      <trkpt lat="42.1459" lon="21.98915">
        <ele>602.076359</ele>
        <time>2022-04-10T11:19:02.060Z</time>
      </trkpt>
      <trkpt lat="42.146" lon="21.98904">
        <ele>601.523574</ele>
        <time>2022-04-10T11:19:04.109Z</time>
      </trkpt>
      <trkpt lat="42.14609" lon="21.98896">
        <ele>601.019289</ele>
        <time>2022-04-10T11:19:06.069Z</time>
      </trkpt>
      <trkpt lat="42.14618" lon="21.98888">
        <ele>600.522461</ele>
        <time>2022-04-10T11:19:08.061Z</time>
      </trkpt>
      <trkpt lat="42.14627" lon="21.9888">
        <ele>600.044054</ele>
        <time>2022-04-10T11:19:10.112Z</time>
      </trkpt>
      <trkpt lat="42.14636" lon="21.98873">
        <ele>599.580344</ele>
        <time>2022-04-10T11:19:12.081Z</time>
      </trkpt>
      <trkpt lat="42.14645" lon="21.98866">
        <ele>599.113155</ele>
        <time>2022-04-10T11:19:14.078Z</time>
      </trkpt>
      <trkpt lat="42.14653" lon="21.98859">
        <ele>598.666248</ele>
        <time>2022-04-10T11:19:16.114Z</time>
      </trkpt>
      <trkpt lat="42.14661" lon="21.98853">
        <ele>598.24733</ele>
        <time>2022-04-10T11:19:18.061Z</time>
      </trkpt>
      <trkpt lat="42.14672" lon="21.98845">
        <ele>597.681337</ele>
        <time>2022-04-10T11:19:21.064Z</time>
      </trkpt>
      <trkpt lat="42.14682" lon="21.98837">
        <ele>597.159958</ele>
        <time>2022-04-10T11:19:24.076Z</time>
      </trkpt>
      <trkpt lat="42.14693" lon="21.9883">
        <ele>597.005477</ele>
        <time>2022-04-10T11:19:27.073Z</time>
      </trkpt>
      <trkpt lat="42.14703" lon="21.98824">
        <ele>596.977351</ele>
        <time>2022-04-10T11:19:30.072Z</time>
      </trkpt>
      <trkpt lat="42.14713" lon="21.98816">
        <ele>596.949285</ele>
        <time>2022-04-10T11:19:33.141Z</time>
      </trkpt>
      <trkpt lat="42.14723" lon="21.98808">
        <ele>596.919324</ele>
        <time>2022-04-10T11:19:36.089Z</time>
      </trkpt>
      <trkpt lat="42.14734" lon="21.988">
        <ele>596.888007</ele>
        <time>2022-04-10T11:19:39.059Z</time>
      </trkpt>
      <trkpt lat="42.14745" lon="21.98791">
        <ele>596.854595</ele>
        <time>2022-04-10T11:19:42.079Z</time>
      </trkpt>
      <trkpt lat="42.14756" lon="21.98782">
        <ele>596.822838</ele>
        <time>2022-04-10T11:19:45.077Z</time>
      </trkpt>
      <trkpt lat="42.14764" lon="21.98776">
        <ele>596.79994</ele>
        <time>2022-04-10T11:19:47.059Z</time>
      </trkpt>
      <trkpt lat="42.14772" lon="21.98769">
        <ele>596.777149</ele>
        <time>2022-04-10T11:19:49.070Z</time>
      </trkpt>
      <trkpt lat="42.14783" lon="21.98761">
        <ele>596.745787</ele>
        <time>2022-04-10T11:19:52.073Z</time>
      </trkpt>
      <trkpt lat="42.14795" lon="21.98754">
        <ele>596.713195</ele>
        <time>2022-04-10T11:19:55.076Z</time>
      </trkpt>
      <trkpt lat="42.14804" lon="21.98744">
        <ele>596.682488</ele>
        <time>2022-04-10T11:19:58.069Z</time>
      </trkpt>
      <trkpt lat="42.14814" lon="21.98736">
        <ele>596.654053</ele>
        <time>2022-04-10T11:20:01.053Z</time>
      </trkpt>
      <trkpt lat="42.14825" lon="21.98729">
        <ele>596.625715</ele>
        <time>2022-04-10T11:20:04.055Z</time>
      </trkpt>
      <trkpt lat="42.14835" lon="21.98721">
        <ele>596.595346</ele>
        <time>2022-04-10T11:20:07.071Z</time>
      </trkpt>
      <trkpt lat="42.14846" lon="21.98712">
        <ele>596.559414</ele>
        <time>2022-04-10T11:20:10.075Z</time>
      </trkpt>
      <trkpt lat="42.14856" lon="21.98702">
        <ele>596.516495</ele>
        <time>2022-04-10T11:20:13.082Z</time>
      </trkpt>
      <trkpt lat="42.14867" lon="21.98692">
        <ele>596.473201</ele>
        <time>2022-04-10T11:20:16.068Z</time>
      </trkpt>
      <trkpt lat="42.14878" lon="21.98684">
        <ele>596.43138</ele>
        <time>2022-04-10T11:20:19.089Z</time>
      </trkpt>
      <trkpt lat="42.14889" lon="21.98674">
        <ele>596.389443</ele>
        <time>2022-04-10T11:20:22.100Z</time>
      </trkpt>
      <trkpt lat="42.14898" lon="21.98665">
        <ele>596.351418</ele>
        <time>2022-04-10T11:20:25.064Z</time>
      </trkpt>
      <trkpt lat="42.14907" lon="21.98655">
        <ele>596.314484</ele>
        <time>2022-04-10T11:20:28.066Z</time>
      </trkpt>
      <trkpt lat="42.14915" lon="21.98645">
        <ele>596.278047</ele>
        <time>2022-04-10T11:20:31.075Z</time>
      </trkpt>
      <trkpt lat="42.14922" lon="21.98634">
        <ele>596.243823</ele>
        <time>2022-04-10T11:20:34.070Z</time>
      </trkpt>
      <trkpt lat="42.14928" lon="21.98624">
        <ele>596.211369</ele>
        <time>2022-04-10T11:20:37.058Z</time>
      </trkpt>
      <trkpt lat="42.14934" lon="21.98615">
        <ele>596.181441</ele>
        <time>2022-04-10T11:20:40.064Z</time>
      </trkpt>
      <trkpt lat="42.14939" lon="21.98605">
        <ele>596.151003</ele>
        <time>2022-04-10T11:20:44.051Z</time>
      </trkpt>
      <trkpt lat="42.14945" lon="21.98594">
        <ele>596.118778</ele>
        <time>2022-04-10T11:20:48.072Z</time>
      </trkpt>
      <trkpt lat="42.1495" lon="21.98581">
        <ele>596.0843</ele>
        <time>2022-04-10T11:20:52.116Z</time>
      </trkpt>
      <trkpt lat="42.14955" lon="21.98568">
        <ele>596.046088</ele>
        <time>2022-04-10T11:20:56.087Z</time>
      </trkpt>
      <trkpt lat="42.1496" lon="21.98553">
        <ele>596.007789</ele>
        <time>2022-04-10T11:21:00.064Z</time>
      </trkpt>
      <trkpt lat="42.14964" lon="21.98539">
        <ele>596.173331</ele>
        <time>2022-04-10T11:21:04.074Z</time>
      </trkpt>
      <trkpt lat="42.14967" lon="21.98524">
        <ele>596.64035</ele>
        <time>2022-04-10T11:21:08.100Z</time>
      </trkpt>
      <trkpt lat="42.1497" lon="21.98509">
        <ele>597.094258</ele>
        <time>2022-04-10T11:21:12.074Z</time>
      </trkpt>
      <trkpt lat="42.14972" lon="21.98496">
        <ele>597.522433</ele>
        <time>2022-04-10T11:21:16.069Z</time>
      </trkpt>
      <trkpt lat="42.14973" lon="21.9848">
        <ele>597.993509</ele>
        <time>2022-04-10T11:21:20.107Z</time>
      </trkpt>
      <trkpt lat="42.14974" lon="21.98468">
        <ele>598.373255</ele>
        <time>2022-04-10T11:21:23.073Z</time>
      </trkpt>
      <trkpt lat="42.14974" lon="21.98455">
        <ele>598.755301</ele>
        <time>2022-04-10T11:21:26.081Z</time>
      </trkpt>
      <trkpt lat="42.14975" lon="21.98443">
        <ele>599.129005</ele>
        <time>2022-04-10T11:21:29.059Z</time>
      </trkpt>
      <trkpt lat="42.14975" lon="21.98428">
        <ele>599.565229</ele>
        <time>2022-04-10T11:21:33.072Z</time>
      </trkpt>
      <trkpt lat="42.14974" lon="21.98412">
        <ele>600.054336</ele>
        <time>2022-04-10T11:21:37.067Z</time>
      </trkpt>
      <trkpt lat="42.14973" lon="21.98396">
        <ele>600.538093</ele>
        <time>2022-04-10T11:21:41.074Z</time>
      </trkpt>
      <trkpt lat="42.14971" lon="21.98381">
        <ele>601.021742</ele>
        <time>2022-04-10T11:21:45.103Z</time>
      </trkpt>
      <trkpt lat="42.14969" lon="21.98366">
        <ele>601.482793</ele>
        <time>2022-04-10T11:21:49.074Z</time>
      </trkpt>
      <trkpt lat="42.14966" lon="21.98351">
        <ele>601.931902</ele>
        <time>2022-04-10T11:21:53.120Z</time>
      </trkpt>
      <trkpt lat="42.14963" lon="21.98337">
        <ele>602.382706</ele>
        <time>2022-04-10T11:21:57.077Z</time>
      </trkpt>
      <trkpt lat="42.14959" lon="21.98323">
        <ele>602.841524</ele>
        <time>2022-04-10T11:22:01.066Z</time>
      </trkpt>
      <trkpt lat="42.14956" lon="21.98311">
        <ele>603.212212</ele>
        <time>2022-04-10T11:22:04.107Z</time>
      </trkpt>
      <trkpt lat="42.14952" lon="21.983">
        <ele>603.395152</ele>
        <time>2022-04-10T11:22:07.086Z</time>
      </trkpt>
      <trkpt lat="42.14948" lon="21.98286">
        <ele>603.508478</ele>
        <time>2022-04-10T11:22:11.067Z</time>
      </trkpt>
      <trkpt lat="42.14942" lon="21.98272">
        <ele>603.621923</ele>
        <time>2022-04-10T11:22:15.068Z</time>
      </trkpt>
      <trkpt lat="42.14935" lon="21.98259">
        <ele>603.737453</ele>
        <time>2022-04-10T11:22:19.064Z</time>
      </trkpt>
      <trkpt lat="42.14928" lon="21.98246">
        <ele>603.8518</ele>
        <time>2022-04-10T11:22:23.083Z</time>
      </trkpt>
      <trkpt lat="42.14921" lon="21.98234">
        <ele>603.962635</ele>
        <time>2022-04-10T11:22:27.117Z</time>
      </trkpt>
      <trkpt lat="42.14915" lon="21.98224">
        <ele>604.061966</ele>
        <time>2022-04-10T11:22:31.072Z</time>
      </trkpt>
      <trkpt lat="42.14908" lon="21.98213">
        <ele>604.161467</ele>
        <time>2022-04-10T11:22:35.076Z</time>
      </trkpt>
      <trkpt lat="42.14902" lon="21.98203">
        <ele>604.259342</ele>
        <time>2022-04-10T11:22:39.066Z</time>
      </trkpt>
      <trkpt lat="42.14895" lon="21.98193">
        <ele>604.35994</ele>
        <time>2022-04-10T11:22:43.067Z</time>
      </trkpt>
      <trkpt lat="42.14888" lon="21.98183">
        <ele>604.458921</ele>
        <time>2022-04-10T11:22:47.068Z</time>
      </trkpt>
      <trkpt lat="42.1488" lon="21.98174">
        <ele>604.56041</ele>
        <time>2022-04-10T11:22:51.061Z</time>
      </trkpt>
      <trkpt lat="42.14872" lon="21.98165">
        <ele>604.661897</ele>
        <time>2022-04-10T11:22:55.107Z</time>
      </trkpt>
      <trkpt lat="42.14865" lon="21.98155">
        <ele>604.761958</ele>
        <time>2022-04-10T11:22:59.079Z</time>
      </trkpt>
      <trkpt lat="42.14858" lon="21.98146">
        <ele>604.859066</ele>
        <time>2022-04-10T11:23:03.098Z</time>
      </trkpt>
      <trkpt lat="42.1485" lon="21.98137">
        <ele>604.955934</ele>
        <time>2022-04-10T11:23:07.065Z</time>
      </trkpt>
      <trkpt lat="42.14844" lon="21.98128">
        <ele>605.051147</ele>
        <time>2022-04-10T11:23:11.065Z</time>
      </trkpt>
      <trkpt lat="42.14837" lon="21.98117">
        <ele>605.173435</ele>
        <time>2022-04-10T11:23:15.077Z</time>
      </trkpt>
      <trkpt lat="42.1483" lon="21.98108">
        <ele>605.312327</ele>
        <time>2022-04-10T11:23:19.053Z</time>
      </trkpt>
      <trkpt lat="42.14824" lon="21.98099">
        <ele>605.446224</ele>
        <time>2022-04-10T11:23:23.088Z</time>
      </trkpt>
      <trkpt lat="42.14816" lon="21.98089">
        <ele>605.591857</ele>
        <time>2022-04-10T11:23:27.053Z</time>
      </trkpt>
      <trkpt lat="42.1481" lon="21.98079">
        <ele>605.733464</ele>
        <time>2022-04-10T11:23:31.060Z</time>
      </trkpt>
      <trkpt lat="42.14803" lon="21.98068">
        <ele>605.881043</ele>
        <time>2022-04-10T11:23:35.079Z</time>
      </trkpt>
      <trkpt lat="42.14796" lon="21.98057">
        <ele>606.029161</ele>
        <time>2022-04-10T11:23:39.086Z</time>
      </trkpt>
      <trkpt lat="42.1479" lon="21.98047">
        <ele>606.175562</ele>
        <time>2022-04-10T11:23:43.073Z</time>
      </trkpt>
      <trkpt lat="42.14783" lon="21.98036">
        <ele>606.322355</ele>
        <time>2022-04-10T11:23:47.084Z</time>
      </trkpt>
      <trkpt lat="42.14776" lon="21.98026">
        <ele>606.465427</ele>
        <time>2022-04-10T11:23:51.078Z</time>
      </trkpt>
      <trkpt lat="42.14769" lon="21.98015">
        <ele>606.61446</ele>
        <time>2022-04-10T11:23:55.066Z</time>
      </trkpt>
      <trkpt lat="42.14764" lon="21.98002">
        <ele>606.769881</ele>
        <time>2022-04-10T11:23:59.070Z</time>
      </trkpt>
      <trkpt lat="42.14759" lon="21.97988">
        <ele>606.93038</ele>
        <time>2022-04-10T11:24:03.118Z</time>
      </trkpt>
      <trkpt lat="42.14756" lon="21.97975">
        <ele>607.082896</ele>
        <time>2022-04-10T11:24:07.071Z</time>
      </trkpt>
      <trkpt lat="42.14753" lon="21.97961">
        <ele>607.228971</ele>
        <time>2022-04-10T11:24:11.073Z</time>
      </trkpt>
      <trkpt lat="42.1475" lon="21.97949">
        <ele>607.371053</ele>
        <time>2022-04-10T11:24:15.080Z</time>
      </trkpt>
      <trkpt lat="42.14746" lon="21.97934">
        <ele>607.52845</ele>
        <time>2022-04-10T11:24:19.067Z</time>
      </trkpt>
      <trkpt lat="42.14743" lon="21.9792">
        <ele>607.645414</ele>
        <time>2022-04-10T11:24:23.073Z</time>
      </trkpt>
      <trkpt lat="42.14742" lon="21.97905">
        <ele>607.635968</ele>
        <time>2022-04-10T11:24:27.080Z</time>
      </trkpt>
      <trkpt lat="42.14739" lon="21.9789">
        <ele>607.6268</ele>
        <time>2022-04-10T11:24:31.070Z</time>
      </trkpt>
      <trkpt lat="42.14738" lon="21.97875">
        <ele>607.617659</ele>
        <time>2022-04-10T11:24:35.070Z</time>
      </trkpt>
      <trkpt lat="42.14738" lon="21.97859">
        <ele>607.608118</ele>
        <time>2022-04-10T11:24:39.085Z</time>
      </trkpt>
      <trkpt lat="42.14738" lon="21.97844">
        <ele>607.598703</ele>
        <time>2022-04-10T11:24:43.053Z</time>
      </trkpt>
      <trkpt lat="42.14738" lon="21.97828">
        <ele>607.589042</ele>
        <time>2022-04-10T11:24:47.079Z</time>
      </trkpt>
      <trkpt lat="42.14739" lon="21.97815">
        <ele>607.581621</ele>
        <time>2022-04-10T11:24:50.067Z</time>
      </trkpt>
      <trkpt lat="42.1474" lon="21.978">
        <ele>607.572206</ele>
        <time>2022-04-10T11:24:54.059Z</time>
      </trkpt>
      <trkpt lat="42.14742" lon="21.97785">
        <ele>607.562963</ele>
        <time>2022-04-10T11:24:58.065Z</time>
      </trkpt>
      <trkpt lat="42.14744" lon="21.9777">
        <ele>607.553897</ele>
        <time>2022-04-10T11:25:02.072Z</time>
      </trkpt>
      <trkpt lat="42.14747" lon="21.97755">
        <ele>607.544207</ele>
        <time>2022-04-10T11:25:06.134Z</time>
      </trkpt>
      <trkpt lat="42.14749" lon="21.9774">
        <ele>607.535106</ele>
        <time>2022-04-10T11:25:10.072Z</time>
      </trkpt>
      <trkpt lat="42.14753" lon="21.97726">
        <ele>607.526106</ele>
        <time>2022-04-10T11:25:14.064Z</time>
      </trkpt>
      <trkpt lat="42.14756" lon="21.97712">
        <ele>607.517137</ele>
        <time>2022-04-10T11:25:18.070Z</time>
      </trkpt>
      <trkpt lat="42.14758" lon="21.97698">
        <ele>607.508164</ele>
        <time>2022-04-10T11:25:22.069Z</time>
      </trkpt>
      <trkpt lat="42.14758" lon="21.97684">
        <ele>607.485173</ele>
        <time>2022-04-10T11:25:26.077Z</time>
      </trkpt>
      <trkpt lat="42.1475" lon="21.97679">
        <ele>607.215942</ele>
        <time>2022-04-10T11:25:29.075Z</time>
      </trkpt>
      <trkpt lat="42.14739" lon="21.97683">
        <ele>606.89281</ele>
        <time>2022-04-10T11:25:32.099Z</time>
      </trkpt>
      <trkpt lat="42.14731" lon="21.97691">
        <ele>606.586961</ele>
        <time>2022-04-10T11:25:35.076Z</time>
      </trkpt>
      <trkpt lat="42.14723" lon="21.97699">
        <ele>606.303406</ele>
        <time>2022-04-10T11:25:38.080Z</time>
      </trkpt>
      <trkpt lat="42.14715" lon="21.97705">
        <ele>606.029128</ele>
        <time>2022-04-10T11:25:41.062Z</time>
      </trkpt>
      <trkpt lat="42.14706" lon="21.977">
        <ele>605.757679</ele>
        <time>2022-04-10T11:25:45.066Z</time>
      </trkpt>
      <trkpt lat="42.14706" lon="21.97687">
        <ele>605.457679</ele>
        <time>2022-04-10T11:25:48.072Z</time>
      </trkpt>
      <trkpt lat="42.1471" lon="21.97669">
        <ele>605.048609</ele>
        <time>2022-04-10T11:25:51.074Z</time>
      </trkpt>
      <trkpt lat="42.14714" lon="21.97655">
        <ele>604.739807</ele>
        <time>2022-04-10T11:25:53.073Z</time>
      </trkpt>
      <trkpt lat="42.14716" lon="21.97642">
        <ele>604.432494</ele>
        <time>2022-04-10T11:25:55.077Z</time>
      </trkpt>
      <trkpt lat="42.14718" lon="21.9763">
        <ele>604.16271</ele>
        <time>2022-04-10T11:25:57.081Z</time>
      </trkpt>
      <trkpt lat="42.1472" lon="21.97617">
        <ele>603.879792</ele>
        <time>2022-04-10T11:25:59.068Z</time>
      </trkpt>
      <trkpt lat="42.14722" lon="21.97604">
        <ele>603.578938</ele>
        <time>2022-04-10T11:26:01.079Z</time>
      </trkpt>
      <trkpt lat="42.14723" lon="21.97588">
        <ele>603.243814</ele>
        <time>2022-04-10T11:26:03.077Z</time>
      </trkpt>
      <trkpt lat="42.14726" lon="21.97574">
        <ele>602.921648</ele>
        <time>2022-04-10T11:26:05.087Z</time>
      </trkpt>
      <trkpt lat="42.14728" lon="21.9756">
        <ele>602.616465</ele>
        <time>2022-04-10T11:26:07.059Z</time>
      </trkpt>
      <trkpt lat="42.14729" lon="21.97547">
        <ele>602.317949</ele>
        <time>2022-04-10T11:26:09.077Z</time>
      </trkpt>
      <trkpt lat="42.14731" lon="21.97534">
        <ele>601.975539</ele>
        <time>2022-04-10T11:26:11.085Z</time>
      </trkpt>
      <trkpt lat="42.14733" lon="21.9752">
        <ele>601.601418</ele>
        <time>2022-04-10T11:26:13.074Z</time>
      </trkpt>
      <trkpt lat="42.14735" lon="21.97507">
        <ele>601.223862</ele>
        <time>2022-04-10T11:26:15.090Z</time>
      </trkpt>
      <trkpt lat="42.14737" lon="21.97494">
        <ele>600.842085</ele>
        <time>2022-04-10T11:26:17.074Z</time>
      </trkpt>
      <trkpt lat="42.1474" lon="21.97481">
        <ele>600.475809</ele>
        <time>2022-04-10T11:26:19.060Z</time>
      </trkpt>
      <trkpt lat="42.14743" lon="21.97468">
        <ele>600.106919</ele>
        <time>2022-04-10T11:26:21.060Z</time>
      </trkpt>
      <trkpt lat="42.14745" lon="21.97455">
        <ele>599.728946</ele>
        <time>2022-04-10T11:26:23.063Z</time>
      </trkpt>
      <trkpt lat="42.14748" lon="21.97443">
        <ele>599.374475</ele>
        <time>2022-04-10T11:26:25.074Z</time>
      </trkpt>
      <trkpt lat="42.14751" lon="21.97426">
        <ele>598.892715</ele>
        <time>2022-04-10T11:26:28.068Z</time>
      </trkpt>
      <trkpt lat="42.14754" lon="21.97411">
        <ele>598.461438</ele>
        <time>2022-04-10T11:26:31.075Z</time>
      </trkpt>
      <trkpt lat="42.14755" lon="21.97397">
        <ele>598.059367</ele>
        <time>2022-04-10T11:26:34.083Z</time>
      </trkpt>
      <trkpt lat="42.14757" lon="21.97383">
        <ele>597.649536</ele>
        <time>2022-04-10T11:26:37.069Z</time>
      </trkpt>
      <trkpt lat="42.1476" lon="21.97369">
        <ele>597.251695</ele>
        <time>2022-04-10T11:26:40.073Z</time>
      </trkpt>
      <trkpt lat="42.14761" lon="21.97354">
        <ele>596.833039</ele>
        <time>2022-04-10T11:26:43.080Z</time>
      </trkpt>
      <trkpt lat="42.14764" lon="21.97339">
        <ele>596.409069</ele>
        <time>2022-04-10T11:26:46.074Z</time>
      </trkpt>
      <trkpt lat="42.14766" lon="21.97326">
        <ele>596.021198</ele>
        <time>2022-04-10T11:26:49.093Z</time>
      </trkpt>
      <trkpt lat="42.14768" lon="21.97312">
        <ele>595.620312</ele>
        <time>2022-04-10T11:26:52.080Z</time>
      </trkpt>
      <trkpt lat="42.14771" lon="21.97295">
        <ele>595.389295</ele>
        <time>2022-04-10T11:26:55.109Z</time>
      </trkpt>
      <trkpt lat="42.14774" lon="21.97279">
        <ele>595.323457</ele>
        <time>2022-04-10T11:26:58.078Z</time>
      </trkpt>
      <trkpt lat="42.14776" lon="21.97265">
        <ele>595.261696</ele>
        <time>2022-04-10T11:27:01.075Z</time>
      </trkpt>
      <trkpt lat="42.14778" lon="21.9725">
        <ele>595.199634</ele>
        <time>2022-04-10T11:27:04.083Z</time>
      </trkpt>
      <trkpt lat="42.14781" lon="21.97233">
        <ele>595.128645</ele>
        <time>2022-04-10T11:27:07.074Z</time>
      </trkpt>
      <trkpt lat="42.14784" lon="21.97215">
        <ele>595.055138</ele>
        <time>2022-04-10T11:27:10.109Z</time>
      </trkpt>
      <trkpt lat="42.14788" lon="21.97198">
        <ele>594.98111</ele>
        <time>2022-04-10T11:27:13.088Z</time>
      </trkpt>
      <trkpt lat="42.1479" lon="21.9718">
        <ele>594.907796</ele>
        <time>2022-04-10T11:27:16.075Z</time>
      </trkpt>
      <trkpt lat="42.14792" lon="21.97168">
        <ele>594.856981</ele>
        <time>2022-04-10T11:27:18.086Z</time>
      </trkpt>
      <trkpt lat="42.14794" lon="21.97156">
        <ele>594.804856</ele>
        <time>2022-04-10T11:27:20.081Z</time>
      </trkpt>
      <trkpt lat="42.14796" lon="21.97143">
        <ele>594.753815</ele>
        <time>2022-04-10T11:27:22.079Z</time>
      </trkpt>
      <trkpt lat="42.14798" lon="21.97131">
        <ele>594.703318</ele>
        <time>2022-04-10T11:27:24.093Z</time>
      </trkpt>
      <trkpt lat="42.14802" lon="21.97114">
        <ele>594.630877</ele>
        <time>2022-04-10T11:27:27.085Z</time>
      </trkpt>
      <trkpt lat="42.14805" lon="21.97097">
        <ele>594.558017</ele>
        <time>2022-04-10T11:27:30.070Z</time>
      </trkpt>
      <trkpt lat="42.14808" lon="21.97079">
        <ele>594.483397</ele>
        <time>2022-04-10T11:27:33.085Z</time>
      </trkpt>
      <trkpt lat="42.1481" lon="21.97062">
        <ele>594.354328</ele>
        <time>2022-04-10T11:27:36.077Z</time>
      </trkpt>
      <trkpt lat="42.14813" lon="21.97045">
        <ele>594.139062</ele>
        <time>2022-04-10T11:27:39.065Z</time>
      </trkpt>
      <trkpt lat="42.14816" lon="21.97028">
        <ele>593.92299</ele>
        <time>2022-04-10T11:27:42.076Z</time>
      </trkpt>
      <trkpt lat="42.14819" lon="21.9701">
        <ele>593.700448</ele>
        <time>2022-04-10T11:27:45.077Z</time>
      </trkpt>
      <trkpt lat="42.14822" lon="21.96992">
        <ele>593.478011</ele>
        <time>2022-04-10T11:27:48.075Z</time>
      </trkpt>
      <trkpt lat="42.14825" lon="21.96976">
        <ele>593.267838</ele>
        <time>2022-04-10T11:27:51.133Z</time>
      </trkpt>
      <trkpt lat="42.14828" lon="21.9696">
        <ele>593.064905</ele>
        <time>2022-04-10T11:27:54.082Z</time>
      </trkpt>
      <trkpt lat="42.14831" lon="21.96945">
        <ele>592.874705</ele>
        <time>2022-04-10T11:27:57.071Z</time>
      </trkpt>
      <trkpt lat="42.14833" lon="21.9693">
        <ele>592.689272</ele>
        <time>2022-04-10T11:28:00.081Z</time>
      </trkpt>
      <trkpt lat="42.14836" lon="21.96915">
        <ele>592.501052</ele>
        <time>2022-04-10T11:28:03.074Z</time>
      </trkpt>
      <trkpt lat="42.14838" lon="21.96902">
        <ele>592.331439</ele>
        <time>2022-04-10T11:28:06.067Z</time>
      </trkpt>
      <trkpt lat="42.14839" lon="21.96888">
        <ele>592.169329</ele>
        <time>2022-04-10T11:28:09.081Z</time>
      </trkpt>
      <trkpt lat="42.14841" lon="21.96875">
        <ele>592.001769</ele>
        <time>2022-04-10T11:28:12.083Z</time>
      </trkpt>
      <trkpt lat="42.14843" lon="21.96861">
        <ele>591.826762</ele>
        <time>2022-04-10T11:28:15.067Z</time>
      </trkpt>
      <trkpt lat="42.14845" lon="21.96848">
        <ele>591.665937</ele>
        <time>2022-04-10T11:28:18.074Z</time>
      </trkpt>
      <trkpt lat="42.14847" lon="21.96836">
        <ele>591.509898</ele>
        <time>2022-04-10T11:28:21.064Z</time>
      </trkpt>
      <trkpt lat="42.14849" lon="21.96824">
        <ele>591.457642</ele>
        <time>2022-04-10T11:28:24.109Z</time>
      </trkpt>
      <trkpt lat="42.14851" lon="21.96811">
        <ele>591.460449</ele>
        <time>2022-04-10T11:28:27.073Z</time>
      </trkpt>
      <trkpt lat="42.14854" lon="21.96798">
        <ele>591.463348</ele>
        <time>2022-04-10T11:28:30.070Z</time>
      </trkpt>
      <trkpt lat="42.14856" lon="21.96785">
        <ele>591.46639</ele>
        <time>2022-04-10T11:28:33.066Z</time>
      </trkpt>
      <trkpt lat="42.14859" lon="21.9677">
        <ele>591.469736</ele>
        <time>2022-04-10T11:28:36.076Z</time>
      </trkpt>
      <trkpt lat="42.14862" lon="21.96754">
        <ele>591.473315</ele>
        <time>2022-04-10T11:28:39.077Z</time>
      </trkpt>
      <trkpt lat="42.14865" lon="21.9674">
        <ele>591.476639</ele>
        <time>2022-04-10T11:28:42.114Z</time>
      </trkpt>
      <trkpt lat="42.14867" lon="21.96727">
        <ele>591.479474</ele>
        <time>2022-04-10T11:28:45.064Z</time>
      </trkpt>
      <trkpt lat="42.14869" lon="21.96714">
        <ele>591.48238</ele>
        <time>2022-04-10T11:28:48.065Z</time>
      </trkpt>
      <trkpt lat="42.14871" lon="21.96701">
        <ele>591.485245</ele>
        <time>2022-04-10T11:28:51.118Z</time>
      </trkpt>
      <trkpt lat="42.14873" lon="21.96686">
        <ele>591.488631</ele>
        <time>2022-04-10T11:28:55.081Z</time>
      </trkpt>
      <trkpt lat="42.14876" lon="21.96674">
        <ele>591.491414</ele>
        <time>2022-04-10T11:28:58.074Z</time>
      </trkpt>
      <trkpt lat="42.14878" lon="21.96661">
        <ele>591.49433</ele>
        <time>2022-04-10T11:29:01.088Z</time>
      </trkpt>
      <trkpt lat="42.14879" lon="21.96648">
        <ele>591.497117</ele>
        <time>2022-04-10T11:29:04.072Z</time>
      </trkpt>
      <trkpt lat="42.14881" lon="21.96635">
        <ele>591.500022</ele>
        <time>2022-04-10T11:29:07.082Z</time>
      </trkpt>
      <trkpt lat="42.14883" lon="21.96623">
        <ele>591.502854</ele>
        <time>2022-04-10T11:29:10.068Z</time>
      </trkpt>
      <trkpt lat="42.14885" lon="21.9661">
        <ele>591.505681</ele>
        <time>2022-04-10T11:29:13.073Z</time>
      </trkpt>
      <trkpt lat="42.14887" lon="21.96598">
        <ele>591.50846</ele>
        <time>2022-04-10T11:29:16.078Z</time>
      </trkpt>
      <trkpt lat="42.14889" lon="21.96585">
        <ele>591.410827</ele>
        <time>2022-04-10T11:29:19.108Z</time>
      </trkpt>
      <trkpt lat="42.14891" lon="21.96572">
        <ele>591.29</ele>
        <time>2022-04-10T11:29:22.070Z</time>
      </trkpt>
      <trkpt lat="42.14893" lon="21.96558">
        <ele>591.163274</ele>
        <time>2022-04-10T11:29:25.078Z</time>
      </trkpt>
      <trkpt lat="42.14896" lon="21.96544">
        <ele>591.036008</ele>
        <time>2022-04-10T11:29:28.074Z</time>
      </trkpt>
      <trkpt lat="42.14898" lon="21.96531">
        <ele>590.91042</ele>
        <time>2022-04-10T11:29:31.059Z</time>
      </trkpt>
      <trkpt lat="42.149" lon="21.96518">
        <ele>590.788129</ele>
        <time>2022-04-10T11:29:34.070Z</time>
      </trkpt>
      <trkpt lat="42.14903" lon="21.96505">
        <ele>590.668856</ele>
        <time>2022-04-10T11:29:37.086Z</time>
      </trkpt>
      <trkpt lat="42.14907" lon="21.9649">
        <ele>590.527405</ele>
        <time>2022-04-10T11:29:41.125Z</time>
      </trkpt>
      <trkpt lat="42.14909" lon="21.96478">
        <ele>590.414178</ele>
        <time>2022-04-10T11:29:44.064Z</time>
      </trkpt>
      <trkpt lat="42.14911" lon="21.96464">
        <ele>590.287058</ele>
        <time>2022-04-10T11:29:47.089Z</time>
      </trkpt>
      <trkpt lat="42.14912" lon="21.9645">
        <ele>590.15989</ele>
        <time>2022-04-10T11:29:50.070Z</time>
      </trkpt>
      <trkpt lat="42.14914" lon="21.96436">
        <ele>590.028761</ele>
        <time>2022-04-10T11:29:53.085Z</time>
      </trkpt>
      <trkpt lat="42.14916" lon="21.96421">
        <ele>589.890979</ele>
        <time>2022-04-10T11:29:56.112Z</time>
      </trkpt>
      <trkpt lat="42.14919" lon="21.96406">
        <ele>589.74846</ele>
        <time>2022-04-10T11:29:59.077Z</time>
      </trkpt>
      <trkpt lat="42.14922" lon="21.96389">
        <ele>589.590478</ele>
        <time>2022-04-10T11:30:02.074Z</time>
      </trkpt>
      <trkpt lat="42.14925" lon="21.96372">
        <ele>589.435805</ele>
        <time>2022-04-10T11:30:05.084Z</time>
      </trkpt>
      <trkpt lat="42.14927" lon="21.96355">
        <ele>589.133963</ele>
        <time>2022-04-10T11:30:08.085Z</time>
      </trkpt>
      <trkpt lat="42.1493" lon="21.96339">
        <ele>588.323615</ele>
        <time>2022-04-10T11:30:11.068Z</time>
      </trkpt>
      <trkpt lat="42.14933" lon="21.96321">
        <ele>587.456312</ele>
        <time>2022-04-10T11:30:14.068Z</time>
      </trkpt>
      <trkpt lat="42.14934" lon="21.96309">
        <ele>586.86296</ele>
        <time>2022-04-10T11:30:16.089Z</time>
      </trkpt>
      <trkpt lat="42.14936" lon="21.96296">
        <ele>586.21435</ele>
        <time>2022-04-10T11:30:18.066Z</time>
      </trkpt>
      <trkpt lat="42.14939" lon="21.96284">
        <ele>585.597099</ele>
        <time>2022-04-10T11:30:20.112Z</time>
      </trkpt>
      <trkpt lat="42.14941" lon="21.96272">
        <ele>584.979848</ele>
        <time>2022-04-10T11:30:22.068Z</time>
      </trkpt>
      <trkpt lat="42.14943" lon="21.96259">
        <ele>584.331238</ele>
        <time>2022-04-10T11:30:24.078Z</time>
      </trkpt>
      <trkpt lat="42.14946" lon="21.96244">
        <ele>583.61346</ele>
        <time>2022-04-10T11:30:26.113Z</time>
      </trkpt>
      <trkpt lat="42.14949" lon="21.96231">
        <ele>582.919114</ele>
        <time>2022-04-10T11:30:28.086Z</time>
      </trkpt>
      <trkpt lat="42.14951" lon="21.96218">
        <ele>582.279942</ele>
        <time>2022-04-10T11:30:30.086Z</time>
      </trkpt>
      <trkpt lat="42.14954" lon="21.96205">
        <ele>581.660994</ele>
        <time>2022-04-10T11:30:32.067Z</time>
      </trkpt>
      <trkpt lat="42.14956" lon="21.96192">
        <ele>581.006125</ele>
        <time>2022-04-10T11:30:34.082Z</time>
      </trkpt>
      <trkpt lat="42.14959" lon="21.96179">
        <ele>580.352795</ele>
        <time>2022-04-10T11:30:36.091Z</time>
      </trkpt>
      <trkpt lat="42.14961" lon="21.96166">
        <ele>579.677508</ele>
        <time>2022-04-10T11:30:38.095Z</time>
      </trkpt>
      <trkpt lat="42.14964" lon="21.96152">
        <ele>578.9818</ele>
        <time>2022-04-10T11:30:40.080Z</time>
      </trkpt>
      <trkpt lat="42.14966" lon="21.96138">
        <ele>578.284462</ele>
        <time>2022-04-10T11:30:42.077Z</time>
      </trkpt>
      <trkpt lat="42.14969" lon="21.96125">
        <ele>577.635855</ele>
        <time>2022-04-10T11:30:44.081Z</time>
      </trkpt>
      <trkpt lat="42.14971" lon="21.96111">
        <ele>576.740159</ele>
        <time>2022-04-10T11:30:46.083Z</time>
      </trkpt>
      <trkpt lat="42.14974" lon="21.96097">
        <ele>575.755277</ele>
        <time>2022-04-10T11:30:48.104Z</time>
      </trkpt>
      <trkpt lat="42.14977" lon="21.96083">
        <ele>574.823008</ele>
        <time>2022-04-10T11:30:50.081Z</time>
      </trkpt>
      <trkpt lat="42.14979" lon="21.9607">
        <ele>573.954205</ele>
        <time>2022-04-10T11:30:52.068Z</time>
      </trkpt>
      <trkpt lat="42.14981" lon="21.96057">
        <ele>573.071641</ele>
        <time>2022-04-10T11:30:54.111Z</time>
      </trkpt>
      <trkpt lat="42.14983" lon="21.96044">
        <ele>572.229128</ele>
        <time>2022-04-10T11:30:56.071Z</time>
      </trkpt>
      <trkpt lat="42.14985" lon="21.96032">
        <ele>571.431154</ele>
        <time>2022-04-10T11:30:58.074Z</time>
      </trkpt>
      <trkpt lat="42.14987" lon="21.96019">
        <ele>570.606697</ele>
        <time>2022-04-10T11:31:00.094Z</time>
      </trkpt>
      <trkpt lat="42.14989" lon="21.96007">
        <ele>569.80715</ele>
        <time>2022-04-10T11:31:02.081Z</time>
      </trkpt>
      <trkpt lat="42.14991" lon="21.95995">
        <ele>568.980273</ele>
        <time>2022-04-10T11:31:04.070Z</time>
      </trkpt>
      <trkpt lat="42.14993" lon="21.95982">
        <ele>568.106958</ele>
        <time>2022-04-10T11:31:06.063Z</time>
      </trkpt>
      <trkpt lat="42.14995" lon="21.9597">
        <ele>567.288835</ele>
        <time>2022-04-10T11:31:08.057Z</time>
      </trkpt>
      <trkpt lat="42.14998" lon="21.95952">
        <ele>566.128661</ele>
        <time>2022-04-10T11:31:11.106Z</time>
      </trkpt>
      <trkpt lat="42.15" lon="21.95939">
        <ele>565.266152</ele>
        <time>2022-04-10T11:31:13.083Z</time>
      </trkpt>
      <trkpt lat="42.15002" lon="21.95926">
        <ele>564.369922</ele>
        <time>2022-04-10T11:31:15.079Z</time>
      </trkpt>
      <trkpt lat="42.15004" lon="21.95914">
        <ele>563.559389</ele>
        <time>2022-04-10T11:31:17.105Z</time>
      </trkpt>
      <trkpt lat="42.15006" lon="21.95902">
        <ele>562.756929</ele>
        <time>2022-04-10T11:31:19.086Z</time>
      </trkpt>
      <trkpt lat="42.15007" lon="21.95889">
        <ele>561.898264</ele>
        <time>2022-04-10T11:31:21.078Z</time>
      </trkpt>
      <trkpt lat="42.1501" lon="21.95876">
        <ele>561.341094</ele>
        <time>2022-04-10T11:31:23.104Z</time>
      </trkpt>
      <trkpt lat="42.15012" lon="21.95863">
        <ele>560.856538</ele>
        <time>2022-04-10T11:31:25.069Z</time>
      </trkpt>
      <trkpt lat="42.15016" lon="21.9585">
        <ele>560.357126</ele>
        <time>2022-04-10T11:31:27.074Z</time>
      </trkpt>
      <trkpt lat="42.15018" lon="21.95837">
        <ele>559.869064</ele>
        <time>2022-04-10T11:31:29.069Z</time>
      </trkpt>
      <trkpt lat="42.15021" lon="21.95819">
        <ele>559.19387</ele>
        <time>2022-04-10T11:31:32.073Z</time>
      </trkpt>
      <trkpt lat="42.15023" lon="21.95806">
        <ele>558.710863</ele>
        <time>2022-04-10T11:31:34.070Z</time>
      </trkpt>
      <trkpt lat="42.15025" lon="21.95793">
        <ele>558.230813</ele>
        <time>2022-04-10T11:31:36.078Z</time>
      </trkpt>
      <trkpt lat="42.15026" lon="21.9578">
        <ele>557.753279</ele>
        <time>2022-04-10T11:31:38.084Z</time>
      </trkpt>
      <trkpt lat="42.15028" lon="21.95768">
        <ele>557.291672</ele>
        <time>2022-04-10T11:31:40.098Z</time>
      </trkpt>
      <trkpt lat="42.15031" lon="21.95756">
        <ele>556.819377</ele>
        <time>2022-04-10T11:31:42.093Z</time>
      </trkpt>
      <trkpt lat="42.15033" lon="21.95744">
        <ele>556.372022</ele>
        <time>2022-04-10T11:31:44.074Z</time>
      </trkpt>
      <trkpt lat="42.15034" lon="21.95731">
        <ele>555.896461</ele>
        <time>2022-04-10T11:31:46.059Z</time>
      </trkpt>
      <trkpt lat="42.15036" lon="21.95718">
        <ele>555.412817</ele>
        <time>2022-04-10T11:31:48.074Z</time>
      </trkpt>
      <trkpt lat="42.15038" lon="21.95706">
        <ele>554.964165</ele>
        <time>2022-04-10T11:31:50.103Z</time>
      </trkpt>
      <trkpt lat="42.15039" lon="21.95693">
        <ele>554.497467</ele>
        <time>2022-04-10T11:31:52.057Z</time>
      </trkpt>
      <trkpt lat="42.15042" lon="21.95681">
        <ele>554.018164</ele>
        <time>2022-04-10T11:31:54.084Z</time>
      </trkpt>
      <trkpt lat="42.15044" lon="21.95668">
        <ele>553.549485</ele>
        <time>2022-04-10T11:31:56.076Z</time>
      </trkpt>
      <trkpt lat="42.15046" lon="21.95656">
        <ele>553.080758</ele>
        <time>2022-04-10T11:31:58.068Z</time>
      </trkpt>
      <trkpt lat="42.15048" lon="21.95642">
        <ele>552.538577</ele>
        <time>2022-04-10T11:32:00.086Z</time>
      </trkpt>
      <trkpt lat="42.15049" lon="21.95628">
        <ele>551.919096</ele>
        <time>2022-04-10T11:32:02.074Z</time>
      </trkpt>
      <trkpt lat="42.15051" lon="21.95614">
        <ele>551.33949</ele>
        <time>2022-04-10T11:32:04.068Z</time>
      </trkpt>
      <trkpt lat="42.15053" lon="21.95601">
        <ele>550.746083</ele>
        <time>2022-04-10T11:32:06.062Z</time>
      </trkpt>
      <trkpt lat="42.15055" lon="21.95587">
        <ele>550.150797</ele>
        <time>2022-04-10T11:32:08.078Z</time>
      </trkpt>
      <trkpt lat="42.15057" lon="21.95574">
        <ele>549.596715</ele>
        <time>2022-04-10T11:32:10.071Z</time>
      </trkpt>
      <trkpt lat="42.15059" lon="21.95561">
        <ele>549.013636</ele>
        <time>2022-04-10T11:32:12.054Z</time>
      </trkpt>
      <trkpt lat="42.15061" lon="21.95546">
        <ele>548.368191</ele>
        <time>2022-04-10T11:32:14.075Z</time>
      </trkpt>
      <trkpt lat="42.15065" lon="21.9553">
        <ele>547.665157</ele>
        <time>2022-04-10T11:32:16.077Z</time>
      </trkpt>
      <trkpt lat="42.15068" lon="21.95515">
        <ele>546.985691</ele>
        <time>2022-04-10T11:32:18.114Z</time>
      </trkpt>
      <trkpt lat="42.15071" lon="21.95499">
        <ele>546.307922</ele>
        <time>2022-04-10T11:32:20.098Z</time>
      </trkpt>
      <trkpt lat="42.15073" lon="21.95484">
        <ele>545.658311</ele>
        <time>2022-04-10T11:32:22.063Z</time>
      </trkpt>
      <trkpt lat="42.15074" lon="21.95471">
        <ele>545.078371</ele>
        <time>2022-04-10T11:32:24.075Z</time>
      </trkpt>
      <trkpt lat="42.15077" lon="21.95458">
        <ele>544.525688</ele>
        <time>2022-04-10T11:32:26.074Z</time>
      </trkpt>
      <trkpt lat="42.15079" lon="21.95445">
        <ele>543.97703</ele>
        <time>2022-04-10T11:32:28.082Z</time>
      </trkpt>
      <trkpt lat="42.15081" lon="21.95432">
        <ele>543.41593</ele>
        <time>2022-04-10T11:32:30.077Z</time>
      </trkpt>
      <trkpt lat="42.15083" lon="21.9542">
        <ele>542.857713</ele>
        <time>2022-04-10T11:32:32.074Z</time>
      </trkpt>
      <trkpt lat="42.15085" lon="21.95407">
        <ele>542.326859</ele>
        <time>2022-04-10T11:32:34.063Z</time>
      </trkpt>
      <trkpt lat="42.15087" lon="21.95394">
        <ele>541.868799</ele>
        <time>2022-04-10T11:32:36.081Z</time>
      </trkpt>
      <trkpt lat="42.1509" lon="21.95377">
        <ele>541.23311</ele>
        <time>2022-04-10T11:32:39.063Z</time>
      </trkpt>
      <trkpt lat="42.15092" lon="21.95365">
        <ele>540.785738</ele>
        <time>2022-04-10T11:32:41.094Z</time>
      </trkpt>
      <trkpt lat="42.15093" lon="21.95352">
        <ele>540.305448</ele>
        <time>2022-04-10T11:32:43.077Z</time>
      </trkpt>
      <trkpt lat="42.15095" lon="21.95339">
        <ele>539.836756</ele>
        <time>2022-04-10T11:32:45.076Z</time>
      </trkpt>
      <trkpt lat="42.15097" lon="21.95327">
        <ele>539.394793</ele>
        <time>2022-04-10T11:32:47.067Z</time>
      </trkpt>
      <trkpt lat="42.15099" lon="21.9531">
        <ele>538.767692</ele>
        <time>2022-04-10T11:32:50.079Z</time>
      </trkpt>
      <trkpt lat="42.151" lon="21.95297">
        <ele>538.313942</ele>
        <time>2022-04-10T11:32:52.069Z</time>
      </trkpt>
      <trkpt lat="42.15102" lon="21.95285">
        <ele>537.863002</ele>
        <time>2022-04-10T11:32:54.064Z</time>
      </trkpt>
      <trkpt lat="42.15108" lon="21.9527">
        <ele>537.238208</ele>
        <time>2022-04-10T11:32:57.083Z</time>
      </trkpt>
      <trkpt lat="42.15116" lon="21.95264">
        <ele>536.780923</ele>
        <time>2022-04-10T11:32:59.075Z</time>
      </trkpt>
      <trkpt lat="42.15125" lon="21.95259">
        <ele>536.290481</ele>
        <time>2022-04-10T11:33:01.069Z</time>
      </trkpt>
      <trkpt lat="42.15134" lon="21.95256">
        <ele>535.845356</ele>
        <time>2022-04-10T11:33:03.076Z</time>
      </trkpt>
      <trkpt lat="42.15144" lon="21.95254">
        <ele>535.384635</ele>
        <time>2022-04-10T11:33:05.075Z</time>
      </trkpt>
      <trkpt lat="42.15153" lon="21.9525">
        <ele>534.918743</ele>
        <time>2022-04-10T11:33:07.086Z</time>
      </trkpt>
      <trkpt lat="42.15161" lon="21.95244">
        <ele>534.446797</ele>
        <time>2022-04-10T11:33:09.079Z</time>
      </trkpt>
      <trkpt lat="42.15169" lon="21.95237">
        <ele>533.983454</ele>
        <time>2022-04-10T11:33:11.062Z</time>
      </trkpt>
      <trkpt lat="42.15175" lon="21.95228">
        <ele>533.401274</ele>
        <time>2022-04-10T11:33:13.065Z</time>
      </trkpt>
      <trkpt lat="42.1518" lon="21.95211">
        <ele>532.424931</ele>
        <time>2022-04-10T11:33:16.111Z</time>
      </trkpt>
      <trkpt lat="42.15181" lon="21.95199">
        <ele>531.722577</ele>
        <time>2022-04-10T11:33:18.082Z</time>
      </trkpt>
      <trkpt lat="42.15181" lon="21.95184">
        <ele>530.926763</ele>
        <time>2022-04-10T11:33:20.066Z</time>
      </trkpt>
      <trkpt lat="42.15182" lon="21.9517">
        <ele>530.133085</ele>
        <time>2022-04-10T11:33:22.077Z</time>
      </trkpt>
      <trkpt lat="42.15183" lon="21.95158">
        <ele>529.415545</ele>
        <time>2022-04-10T11:33:24.082Z</time>
      </trkpt>
      <trkpt lat="42.15183" lon="21.9514">
        <ele>528.418985</ele>
        <time>2022-04-10T11:33:27.085Z</time>
      </trkpt>
      <trkpt lat="42.15181" lon="21.95122">
        <ele>527.433293</ele>
        <time>2022-04-10T11:33:30.068Z</time>
      </trkpt>
      <trkpt lat="42.15174" lon="21.95109">
        <ele>526.545671</ele>
        <time>2022-04-10T11:33:33.067Z</time>
      </trkpt>
      <trkpt lat="42.15165" lon="21.95096">
        <ele>525.551672</ele>
        <time>2022-04-10T11:33:36.084Z</time>
      </trkpt>
      <trkpt lat="42.15158" lon="21.95089">
        <ele>524.847168</ele>
        <time>2022-04-10T11:33:38.082Z</time>
      </trkpt>
      <trkpt lat="42.1515" lon="21.95083">
        <ele>524.146674</ele>
        <time>2022-04-10T11:33:40.066Z</time>
      </trkpt>
      <trkpt lat="42.15141" lon="21.95079">
        <ele>523.461148</ele>
        <time>2022-04-10T11:33:42.109Z</time>
      </trkpt>
      <trkpt lat="42.15128" lon="21.95077">
        <ele>522.44793</ele>
        <time>2022-04-10T11:33:45.066Z</time>
      </trkpt>
      <trkpt lat="42.15118" lon="21.95077">
        <ele>521.745606</ele>
        <time>2022-04-10T11:33:47.082Z</time>
      </trkpt>
      <trkpt lat="42.15108" lon="21.95077">
        <ele>520.990494</ele>
        <time>2022-04-10T11:33:49.076Z</time>
      </trkpt>
      <trkpt lat="42.15099" lon="21.95074">
        <ele>520.236467</ele>
        <time>2022-04-10T11:33:51.076Z</time>
      </trkpt>
      <trkpt lat="42.15091" lon="21.95067">
        <ele>520.562919</ele>
        <time>2022-04-10T11:33:53.127Z</time>
      </trkpt>
      <trkpt lat="42.15085" lon="21.95057">
        <ele>520.934447</ele>
        <time>2022-04-10T11:33:55.073Z</time>
      </trkpt>
      <trkpt lat="42.15081" lon="21.95041">
        <ele>521.43221</ele>
        <time>2022-04-10T11:33:58.080Z</time>
      </trkpt>
      <trkpt lat="42.15079" lon="21.95025">
        <ele>521.922519</ele>
        <time>2022-04-10T11:34:01.070Z</time>
      </trkpt>
      <trkpt lat="42.15078" lon="21.95012">
        <ele>522.323316</ele>
        <time>2022-04-10T11:34:04.057Z</time>
      </trkpt>
      <trkpt lat="42.15077" lon="21.94999">
        <ele>522.703315</ele>
        <time>2022-04-10T11:34:07.063Z</time>
      </trkpt>
      <trkpt lat="42.15082" lon="21.94987">
        <ele>523.120286</ele>
        <time>2022-04-10T11:34:11.064Z</time>
      </trkpt>
      <trkpt lat="42.15091" lon="21.94979">
        <ele>523.555688</ele>
        <time>2022-04-10T11:34:16.071Z</time>
      </trkpt>
      <trkpt lat="42.15101" lon="21.94973">
        <ele>523.992253</ele>
        <time>2022-04-10T11:34:22.064Z</time>
      </trkpt>
      <trkpt lat="42.15111" lon="21.94966">
        <ele>524.435436</ele>
        <time>2022-04-10T11:34:27.073Z</time>
      </trkpt>
      <trkpt lat="42.1512" lon="21.94959">
        <ele>524.854316</ele>
        <time>2022-04-10T11:34:32.122Z</time>
      </trkpt>
      <trkpt lat="42.15128" lon="21.94952">
        <ele>525.228005</ele>
        <time>2022-04-10T11:34:38.054Z</time>
      </trkpt>
      <trkpt lat="42.15137" lon="21.94946">
        <ele>525.646354</ele>
        <time>2022-04-10T11:34:44.076Z</time>
      </trkpt>
      <trkpt lat="42.15146" lon="21.94939">
        <ele>526.043443</ele>
        <time>2022-04-10T11:34:50.094Z</time>
      </trkpt>
      <trkpt lat="42.15155" lon="21.94935">
        <ele>526.439056</ele>
        <time>2022-04-10T11:34:56.079Z</time>
      </trkpt>
      <trkpt lat="42.15165" lon="21.94929">
        <ele>526.873102</ele>
        <time>2022-04-10T11:35:02.087Z</time>
      </trkpt>
      <trkpt lat="42.15174" lon="21.94921">
        <ele>527.291705</ele>
        <time>2022-04-10T11:35:08.082Z</time>
      </trkpt>
      <trkpt lat="42.15182" lon="21.94915">
        <ele>527.779545</ele>
        <time>2022-04-10T11:35:16.064Z</time>
      </trkpt>
      <trkpt lat="42.1519" lon="21.94908">
        <ele>528.378831</ele>
        <time>2022-04-10T11:35:25.062Z</time>
      </trkpt>
      <trkpt lat="42.15199" lon="21.94902">
        <ele>528.940391</ele>
        <time>2022-04-10T11:35:31.078Z</time>
      </trkpt>
      <trkpt lat="42.15206" lon="21.94895">
        <ele>529.491248</ele>
        <time>2022-04-10T11:35:37.083Z</time>
      </trkpt>
      <trkpt lat="42.15214" lon="21.94887">
        <ele>530.02799</ele>
        <time>2022-04-10T11:35:44.077Z</time>
      </trkpt>
      <trkpt lat="42.15222" lon="21.94879">
        <ele>530.636195</ele>
        <time>2022-04-10T11:35:51.066Z</time>
      </trkpt>
      <trkpt lat="42.15228" lon="21.9487">
        <ele>531.170349</ele>
        <time>2022-04-10T11:35:56.069Z</time>
      </trkpt>
      <trkpt lat="42.15234" lon="21.94861">
        <ele>531.716791</ele>
        <time>2022-04-10T11:36:02.108Z</time>
      </trkpt>
      <trkpt lat="42.15241" lon="21.9485">
        <ele>532.315144</ele>
        <time>2022-04-10T11:36:09.082Z</time>
      </trkpt>
      <trkpt lat="42.15246" lon="21.94841">
        <ele>532.853137</ele>
        <time>2022-04-10T11:36:16.076Z</time>
      </trkpt>
      <trkpt lat="42.15254" lon="21.9483">
        <ele>533.472372</ele>
        <time>2022-04-10T11:36:22.096Z</time>
      </trkpt>
      <trkpt lat="42.15261" lon="21.9482">
        <ele>534.078028</ele>
        <time>2022-04-10T11:36:28.092Z</time>
      </trkpt>
      <trkpt lat="42.15267" lon="21.94812">
        <ele>534.616432</ele>
        <time>2022-04-10T11:36:34.064Z</time>
      </trkpt>
      <trkpt lat="42.15276" lon="21.94807">
        <ele>535.167258</ele>
        <time>2022-04-10T11:36:40.073Z</time>
      </trkpt>
      <trkpt lat="42.15284" lon="21.94801">
        <ele>535.711537</ele>
        <time>2022-04-10T11:36:46.082Z</time>
      </trkpt>
      <trkpt lat="42.15293" lon="21.94795">
        <ele>536.305615</ele>
        <time>2022-04-10T11:36:53.076Z</time>
      </trkpt>
      <trkpt lat="42.15302" lon="21.94789">
        <ele>536.88503</ele>
        <time>2022-04-10T11:36:59.079Z</time>
      </trkpt>
      <trkpt lat="42.15311" lon="21.94783">
        <ele>537.484591</ele>
        <time>2022-04-10T11:37:05.083Z</time>
      </trkpt>
      <trkpt lat="42.1532" lon="21.94777">
        <ele>538.069941</ele>
        <time>2022-04-10T11:37:11.073Z</time>
      </trkpt>
      <trkpt lat="42.15328" lon="21.94771">
        <ele>538.61269</ele>
        <time>2022-04-10T11:37:17.086Z</time>
      </trkpt>
      <trkpt lat="42.15336" lon="21.94764">
        <ele>539.131416</ele>
        <time>2022-04-10T11:37:23.050Z</time>
      </trkpt>
      <trkpt lat="42.15345" lon="21.94758">
        <ele>539.672268</ele>
        <time>2022-04-10T11:37:29.070Z</time>
      </trkpt>
      <trkpt lat="42.15354" lon="21.94753">
        <ele>540.227898</ele>
        <time>2022-04-10T11:37:35.102Z</time>
      </trkpt>
      <trkpt lat="42.15363" lon="21.94748">
        <ele>540.782361</ele>
        <time>2022-04-10T11:37:41.100Z</time>
      </trkpt>
      <trkpt lat="42.15372" lon="21.94743">
        <ele>541.328587</ele>
        <time>2022-04-10T11:37:47.121Z</time>
      </trkpt>
      <trkpt lat="42.15382" lon="21.94739">
        <ele>541.883669</ele>
        <time>2022-04-10T11:37:54.089Z</time>
      </trkpt>
      <trkpt lat="42.1539" lon="21.94733">
        <ele>542.400774</ele>
        <time>2022-04-10T11:38:01.071Z</time>
      </trkpt>
      <trkpt lat="42.15399" lon="21.94728">
        <ele>542.959899</ele>
        <time>2022-04-10T11:38:08.072Z</time>
      </trkpt>
      <trkpt lat="42.15406" lon="21.9472">
        <ele>543.46886</ele>
        <time>2022-04-10T11:38:14.070Z</time>
      </trkpt>
      <trkpt lat="42.15405" lon="21.94706">
        <ele>544.038878</ele>
        <time>2022-04-10T11:38:21.060Z</time>
      </trkpt>
      <trkpt lat="42.15402" lon="21.94695">
        <ele>544.549527</ele>
        <time>2022-04-10T11:38:27.075Z</time>
      </trkpt>
      <trkpt lat="42.15398" lon="21.94682">
        <ele>545.110685</ele>
        <time>2022-04-10T11:38:34.067Z</time>
      </trkpt>
      <trkpt lat="42.15394" lon="21.94671">
        <ele>545.645517</ele>
        <time>2022-04-10T11:38:41.080Z</time>
      </trkpt>
      <trkpt lat="42.15387" lon="21.9466">
        <ele>546.213629</ele>
        <time>2022-04-10T11:38:48.060Z</time>
      </trkpt>
      <trkpt lat="42.15384" lon="21.94648">
        <ele>546.763052</ele>
        <time>2022-04-10T11:38:57.113Z</time>
      </trkpt>
      <trkpt lat="42.15378" lon="21.94638">
        <ele>547.27807</ele>
        <time>2022-04-10T11:39:04.079Z</time>
      </trkpt>
      <trkpt lat="42.15374" lon="21.94627">
        <ele>547.789722</ele>
        <time>2022-04-10T11:39:10.081Z</time>
      </trkpt>
      <trkpt lat="42.15371" lon="21.94615">
        <ele>548.197233</ele>
        <time>2022-04-10T11:39:18.077Z</time>
      </trkpt>
      <trkpt lat="42.15368" lon="21.94601">
        <ele>548.406357</ele>
        <time>2022-04-10T11:39:26.101Z</time>
      </trkpt>
      <trkpt lat="42.15367" lon="21.94589">
        <ele>548.585604</ele>
        <time>2022-04-10T11:39:32.098Z</time>
      </trkpt>
      <trkpt lat="42.15372" lon="21.94579">
        <ele>548.765886</ele>
        <time>2022-04-10T11:39:39.073Z</time>
      </trkpt>
      <trkpt lat="42.15379" lon="21.9457">
        <ele>548.951366</ele>
        <time>2022-04-10T11:39:46.086Z</time>
      </trkpt>
      <trkpt lat="42.15385" lon="21.9456">
        <ele>549.145473</ele>
        <time>2022-04-10T11:39:52.088Z</time>
      </trkpt>
      <trkpt lat="42.15392" lon="21.94551">
        <ele>549.337953</ele>
        <time>2022-04-10T11:39:59.054Z</time>
      </trkpt>
      <trkpt lat="42.15399" lon="21.94542">
        <ele>549.531792</ele>
        <time>2022-04-10T11:40:06.067Z</time>
      </trkpt>
      <trkpt lat="42.15401" lon="21.94528">
        <ele>549.730234</ele>
        <time>2022-04-10T11:40:13.091Z</time>
      </trkpt>
      <trkpt lat="42.15402" lon="21.94515">
        <ele>549.923744</ele>
        <time>2022-04-10T11:40:19.107Z</time>
      </trkpt>
      <trkpt lat="42.15404" lon="21.94503">
        <ele>550.112826</ele>
        <time>2022-04-10T11:40:25.066Z</time>
      </trkpt>
      <trkpt lat="42.15403" lon="21.9449">
        <ele>550.303655</ele>
        <time>2022-04-10T11:40:30.121Z</time>
      </trkpt>
      <trkpt lat="42.15402" lon="21.94477">
        <ele>550.489273</ele>
        <time>2022-04-10T11:40:34.077Z</time>
      </trkpt>
      <trkpt lat="42.15402" lon="21.94464">
        <ele>550.684529</ele>
        <time>2022-04-10T11:40:38.069Z</time>
      </trkpt>
      <trkpt lat="42.15403" lon="21.94449">
        <ele>550.90139</ele>
        <time>2022-04-10T11:40:42.077Z</time>
      </trkpt>
      <trkpt lat="42.15404" lon="21.94433">
        <ele>551.138234</ele>
        <time>2022-04-10T11:40:46.077Z</time>
      </trkpt>
      <trkpt lat="42.15404" lon="21.94418">
        <ele>551.356196</ele>
        <time>2022-04-10T11:40:49.104Z</time>
      </trkpt>
      <trkpt lat="42.15406" lon="21.94402">
        <ele>551.592913</ele>
        <time>2022-04-10T11:40:52.071Z</time>
      </trkpt>
      <trkpt lat="42.15408" lon="21.94385">
        <ele>551.307418</ele>
        <time>2022-04-10T11:40:55.079Z</time>
      </trkpt>
      <trkpt lat="42.15409" lon="21.94373">
        <ele>550.863845</ele>
        <time>2022-04-10T11:40:57.068Z</time>
      </trkpt>
      <trkpt lat="42.15411" lon="21.94361">
        <ele>550.425104</ele>
        <time>2022-04-10T11:40:59.075Z</time>
      </trkpt>
      <trkpt lat="42.15417" lon="21.94346">
        <ele>549.836391</ele>
        <time>2022-04-10T11:41:02.095Z</time>
      </trkpt>
      <trkpt lat="42.15422" lon="21.94331">
        <ele>549.262459</ele>
        <time>2022-04-10T11:41:05.075Z</time>
      </trkpt>
      <trkpt lat="42.15425" lon="21.94317">
        <ele>548.752916</ele>
        <time>2022-04-10T11:41:08.069Z</time>
      </trkpt>
      <trkpt lat="42.15427" lon="21.94302">
        <ele>548.21745</ele>
        <time>2022-04-10T11:41:11.077Z</time>
      </trkpt>
      <trkpt lat="42.1543" lon="21.94291">
        <ele>547.777035</ele>
        <time>2022-04-10T11:41:13.082Z</time>
      </trkpt>
      <trkpt lat="42.15433" lon="21.94277">
        <ele>547.268467</ele>
        <time>2022-04-10T11:41:15.070Z</time>
      </trkpt>
      <trkpt lat="42.15437" lon="21.94262">
        <ele>546.730406</ele>
        <time>2022-04-10T11:41:17.076Z</time>
      </trkpt>
      <trkpt lat="42.1544" lon="21.94249">
        <ele>546.222262</ele>
        <time>2022-04-10T11:41:19.078Z</time>
      </trkpt>
      <trkpt lat="42.15444" lon="21.94236">
        <ele>545.727143</ele>
        <time>2022-04-10T11:41:21.082Z</time>
      </trkpt>
      <trkpt lat="42.15448" lon="21.94224">
        <ele>545.284986</ele>
        <time>2022-04-10T11:41:23.075Z</time>
      </trkpt>
      <trkpt lat="42.15451" lon="21.94213">
        <ele>544.846098</ele>
        <time>2022-04-10T11:41:25.100Z</time>
      </trkpt>
      <trkpt lat="42.15455" lon="21.942">
        <ele>544.366068</ele>
        <time>2022-04-10T11:41:27.195Z</time>
      </trkpt>
      <trkpt lat="42.15459" lon="21.94186">
        <ele>543.838005</ele>
        <time>2022-04-10T11:41:29.076Z</time>
      </trkpt>
      <trkpt lat="42.15464" lon="21.94172">
        <ele>543.280942</ele>
        <time>2022-04-10T11:41:31.061Z</time>
      </trkpt>
      <trkpt lat="42.1547" lon="21.94158">
        <ele>542.87364</ele>
        <time>2022-04-10T11:41:33.089Z</time>
      </trkpt>
      <trkpt lat="42.15475" lon="21.94144">
        <ele>542.528798</ele>
        <time>2022-04-10T11:41:35.074Z</time>
      </trkpt>
      <trkpt lat="42.15481" lon="21.9413">
        <ele>542.171158</ele>
        <time>2022-04-10T11:41:37.060Z</time>
      </trkpt>
      <trkpt lat="42.15487" lon="21.94115">
        <ele>541.805976</ele>
        <time>2022-04-10T11:41:39.068Z</time>
      </trkpt>
      <trkpt lat="42.15492" lon="21.941">
        <ele>541.460094</ele>
        <time>2022-04-10T11:41:41.085Z</time>
      </trkpt>
      <trkpt lat="42.15496" lon="21.94086">
        <ele>541.134712</ele>
        <time>2022-04-10T11:41:43.093Z</time>
      </trkpt>
      <trkpt lat="42.155" lon="21.94074">
        <ele>540.839842</ele>
        <time>2022-04-10T11:41:45.065Z</time>
      </trkpt>
      <trkpt lat="42.15504" lon="21.94062">
        <ele>540.556095</ele>
        <time>2022-04-10T11:41:47.080Z</time>
      </trkpt>
      <trkpt lat="42.15508" lon="21.94051">
        <ele>540.281429</ele>
        <time>2022-04-10T11:41:49.081Z</time>
      </trkpt>
      <trkpt lat="42.15514" lon="21.94034">
        <ele>539.895597</ele>
        <time>2022-04-10T11:41:52.063Z</time>
      </trkpt>
      <trkpt lat="42.15519" lon="21.94022">
        <ele>539.585243</ele>
        <time>2022-04-10T11:41:55.088Z</time>
      </trkpt>
      <trkpt lat="42.15524" lon="21.94009">
        <ele>539.275366</ele>
        <time>2022-04-10T11:41:59.078Z</time>
      </trkpt>
      <trkpt lat="42.15531" lon="21.93999">
        <ele>538.973631</ele>
        <time>2022-04-10T11:42:04.067Z</time>
      </trkpt>
      <trkpt lat="42.15542" lon="21.93997">
        <ele>538.637476</ele>
        <time>2022-04-10T11:42:09.069Z</time>
      </trkpt>
      <trkpt lat="42.15553" lon="21.93993">
        <ele>538.290741</ele>
        <time>2022-04-10T11:42:13.167Z</time>
      </trkpt>
      <trkpt lat="42.15565" lon="21.9399">
        <ele>537.952663</ele>
        <time>2022-04-10T11:42:17.070Z</time>
      </trkpt>
      <trkpt lat="42.15576" lon="21.93988">
        <ele>538.236481</ele>
        <time>2022-04-10T11:42:21.084Z</time>
      </trkpt>
      <trkpt lat="42.15586" lon="21.93986">
        <ele>538.699156</ele>
        <time>2022-04-10T11:42:25.078Z</time>
      </trkpt>
      <trkpt lat="42.15595" lon="21.93984">
        <ele>539.125808</ele>
        <time>2022-04-10T11:42:29.083Z</time>
      </trkpt>
      <trkpt lat="42.15606" lon="21.93983">
        <ele>539.628256</ele>
        <time>2022-04-10T11:42:34.088Z</time>
      </trkpt>
      <trkpt lat="42.15616" lon="21.93983">
        <ele>540.052012</ele>
        <time>2022-04-10T11:42:38.080Z</time>
      </trkpt>
      <trkpt lat="42.15626" lon="21.93982">
        <ele>540.521793</ele>
        <time>2022-04-10T11:42:43.087Z</time>
      </trkpt>
      <trkpt lat="42.15637" lon="21.93981">
        <ele>541.010147</ele>
        <time>2022-04-10T11:42:50.077Z</time>
      </trkpt>
      <trkpt lat="42.15646" lon="21.93979">
        <ele>541.428718</ele>
        <time>2022-04-10T11:42:54.076Z</time>
      </trkpt>
      <trkpt lat="42.15655" lon="21.93975">
        <ele>541.863642</ele>
        <time>2022-04-10T11:42:59.072Z</time>
      </trkpt>
      <trkpt lat="42.15664" lon="21.9397">
        <ele>542.326592</ele>
        <time>2022-04-10T11:43:06.077Z</time>
      </trkpt>
      <trkpt lat="42.15672" lon="21.93964">
        <ele>542.742161</ele>
        <time>2022-04-10T11:43:12.083Z</time>
      </trkpt>
      <trkpt lat="42.15678" lon="21.93954">
        <ele>543.165365</ele>
        <time>2022-04-10T11:43:18.074Z</time>
      </trkpt>
      <trkpt lat="42.1568" lon="21.93941">
        <ele>543.599857</ele>
        <time>2022-04-10T11:43:25.106Z</time>
      </trkpt>
      <trkpt lat="42.15681" lon="21.93928">
        <ele>544.045691</ele>
        <time>2022-04-10T11:43:31.086Z</time>
      </trkpt>
      <trkpt lat="42.15681" lon="21.93915">
        <ele>544.501586</ele>
        <time>2022-04-10T11:43:37.072Z</time>
      </trkpt>
      <trkpt lat="42.15681" lon="21.93901">
        <ele>544.961037</ele>
        <time>2022-04-10T11:43:43.087Z</time>
      </trkpt>
      <trkpt lat="42.15681" lon="21.93888">
        <ele>545.413532</ele>
        <time>2022-04-10T11:43:49.070Z</time>
      </trkpt>
      <trkpt lat="42.1568" lon="21.93875">
        <ele>545.850664</ele>
        <time>2022-04-10T11:43:55.086Z</time>
      </trkpt>
      <trkpt lat="42.15678" lon="21.93862">
        <ele>545.911688</ele>
        <time>2022-04-10T11:44:01.085Z</time>
      </trkpt>
      <trkpt lat="42.15676" lon="21.93849">
        <ele>545.601721</ele>
        <time>2022-04-10T11:44:07.078Z</time>
      </trkpt>
      <trkpt lat="42.15675" lon="21.93836">
        <ele>545.323823</ele>
        <time>2022-04-10T11:44:12.078Z</time>
      </trkpt>
      <trkpt lat="42.15674" lon="21.93822">
        <ele>545.011848</ele>
        <time>2022-04-10T11:44:17.079Z</time>
      </trkpt>
      <trkpt lat="42.15672" lon="21.93809">
        <ele>544.733258</ele>
        <time>2022-04-10T11:44:21.084Z</time>
      </trkpt>
      <trkpt lat="42.15671" lon="21.93794">
        <ele>544.403089</ele>
        <time>2022-04-10T11:44:25.067Z</time>
      </trkpt>
      <trkpt lat="42.15671" lon="21.93782">
        <ele>544.13114</ele>
        <time>2022-04-10T11:44:28.086Z</time>
      </trkpt>
      <trkpt lat="42.15671" lon="21.93767">
        <ele>543.803726</ele>
        <time>2022-04-10T11:44:31.089Z</time>
      </trkpt>
      <trkpt lat="42.15673" lon="21.93751">
        <ele>543.447874</ele>
        <time>2022-04-10T11:44:34.076Z</time>
      </trkpt>
      <trkpt lat="42.15675" lon="21.93734">
        <ele>543.07562</ele>
        <time>2022-04-10T11:44:37.102Z</time>
      </trkpt>
      <trkpt lat="42.15678" lon="21.93718">
        <ele>542.698719</ele>
        <time>2022-04-10T11:44:40.100Z</time>
      </trkpt>
      <trkpt lat="42.15682" lon="21.93702">
        <ele>542.338826</ele>
        <time>2022-04-10T11:44:43.089Z</time>
      </trkpt>
      <trkpt lat="42.15689" lon="21.93688">
        <ele>541.971296</ele>
        <time>2022-04-10T11:44:46.075Z</time>
      </trkpt>
      <trkpt lat="42.15697" lon="21.93675">
        <ele>541.585587</ele>
        <time>2022-04-10T11:44:49.115Z</time>
      </trkpt>
      <trkpt lat="42.15706" lon="21.93665">
        <ele>541.251938</ele>
        <time>2022-04-10T11:44:52.082Z</time>
      </trkpt>
      <trkpt lat="42.15714" lon="21.93655">
        <ele>540.943194</ele>
        <time>2022-04-10T11:44:55.094Z</time>
      </trkpt>
      <trkpt lat="42.1572" lon="21.93646">
        <ele>540.552762</ele>
        <time>2022-04-10T11:44:57.084Z</time>
      </trkpt>
      <trkpt lat="42.15727" lon="21.93637">
        <ele>539.826715</ele>
        <time>2022-04-10T11:44:59.079Z</time>
      </trkpt>
      <trkpt lat="42.15733" lon="21.93628">
        <ele>539.111224</ele>
        <time>2022-04-10T11:45:01.080Z</time>
      </trkpt>
      <trkpt lat="42.15742" lon="21.93615">
        <ele>538.13889</ele>
        <time>2022-04-10T11:45:04.087Z</time>
      </trkpt>
      <trkpt lat="42.15749" lon="21.93601">
        <ele>537.163783</ele>
        <time>2022-04-10T11:45:07.093Z</time>
      </trkpt>
      <trkpt lat="42.15753" lon="21.93588">
        <ele>536.384653</ele>
        <time>2022-04-10T11:45:10.073Z</time>
      </trkpt>
      <trkpt lat="42.15756" lon="21.93574">
        <ele>535.556044</ele>
        <time>2022-04-10T11:45:13.089Z</time>
      </trkpt>
      <trkpt lat="42.15759" lon="21.9356">
        <ele>534.723824</ele>
        <time>2022-04-10T11:45:16.077Z</time>
      </trkpt>
      <trkpt lat="42.15764" lon="21.93548">
        <ele>533.945553</ele>
        <time>2022-04-10T11:45:19.105Z</time>
      </trkpt>
      <trkpt lat="42.15772" lon="21.93537">
        <ele>533.059429</ele>
        <time>2022-04-10T11:45:22.112Z</time>
      </trkpt>
      <trkpt lat="42.15781" lon="21.93528">
        <ele>532.190032</ele>
        <time>2022-04-10T11:45:25.089Z</time>
      </trkpt>
      <trkpt lat="42.15793" lon="21.9352">
        <ele>531.215159</ele>
        <time>2022-04-10T11:45:28.079Z</time>
      </trkpt>
      <trkpt lat="42.15806" lon="21.93513">
        <ele>530.161697</ele>
        <time>2022-04-10T11:45:31.066Z</time>
      </trkpt>
      <trkpt lat="42.15818" lon="21.93511">
        <ele>529.199999</ele>
        <time>2022-04-10T11:45:34.068Z</time>
      </trkpt>
      <trkpt lat="42.1583" lon="21.9351">
        <ele>528.286179</ele>
        <time>2022-04-10T11:45:37.079Z</time>
      </trkpt>
      <trkpt lat="42.15854" lon="21.93511">
        <ele>526.721737</ele>
        <time>2022-04-10T11:51:44.082Z</time>
      </trkpt>
      <trkpt lat="42.15868" lon="21.93514">
        <ele>526.250142</ele>
        <time>2022-04-10T11:51:47.061Z</time>
      </trkpt>
      <trkpt lat="42.15878" lon="21.93516">
        <ele>525.90707</ele>
        <time>2022-04-10T11:51:49.069Z</time>
      </trkpt>
      <trkpt lat="42.1589" lon="21.93519">
        <ele>525.455037</ele>
        <time>2022-04-10T11:51:52.089Z</time>
      </trkpt>
      <trkpt lat="42.15903" lon="21.93522">
        <ele>525.023177</ele>
        <time>2022-04-10T11:51:55.081Z</time>
      </trkpt>
      <trkpt lat="42.15914" lon="21.93524">
        <ele>524.640877</ele>
        <time>2022-04-10T11:51:58.083Z</time>
      </trkpt>
      <trkpt lat="42.15924" lon="21.93525">
        <ele>524.278584</ele>
        <time>2022-04-10T11:52:01.074Z</time>
      </trkpt>
      <trkpt lat="42.15934" lon="21.93528">
        <ele>523.940815</ele>
        <time>2022-04-10T11:52:04.086Z</time>
      </trkpt>
      <trkpt lat="42.15944" lon="21.93529">
        <ele>523.568159</ele>
        <time>2022-04-10T11:52:08.062Z</time>
      </trkpt>
      <trkpt lat="42.15954" lon="21.93534">
        <ele>523.213495</ele>
        <time>2022-04-10T11:52:12.089Z</time>
      </trkpt>
      <trkpt lat="42.15962" lon="21.9354">
        <ele>522.892732</ele>
        <time>2022-04-10T11:52:15.085Z</time>
      </trkpt>
      <trkpt lat="42.15971" lon="21.93543">
        <ele>522.58125</ele>
        <time>2022-04-10T11:52:18.068Z</time>
      </trkpt>
      <trkpt lat="42.15982" lon="21.93545">
        <ele>522.17527</ele>
        <time>2022-04-10T11:52:22.108Z</time>
      </trkpt>
      <trkpt lat="42.15992" lon="21.93544">
        <ele>521.838322</ele>
        <time>2022-04-10T11:52:25.079Z</time>
      </trkpt>
      <trkpt lat="42.16" lon="21.93539">
        <ele>521.518799</ele>
        <time>2022-04-10T11:52:28.124Z</time>
      </trkpt>
      <trkpt lat="42.16007" lon="21.9353">
        <ele>521.180469</ele>
        <time>2022-04-10T11:52:32.075Z</time>
      </trkpt>
      <trkpt lat="42.16011" lon="21.93514">
        <ele>520.770443</ele>
        <time>2022-04-10T11:52:36.077Z</time>
      </trkpt>
      <trkpt lat="42.16012" lon="21.93502">
        <ele>520.794717</ele>
        <time>2022-04-10T11:52:39.081Z</time>
      </trkpt>
      <trkpt lat="42.1601" lon="21.93486">
        <ele>520.875914</ele>
        <time>2022-04-10T11:52:43.074Z</time>
      </trkpt>
      <trkpt lat="42.16007" lon="21.93474">
        <ele>520.941941</ele>
        <time>2022-04-10T11:52:47.076Z</time>
      </trkpt>
      <trkpt lat="42.16001" lon="21.93463">
        <ele>521.016429</ele>
        <time>2022-04-10T11:52:52.068Z</time>
      </trkpt>
      <trkpt lat="42.15996" lon="21.93452">
        <ele>521.081069</ele>
        <time>2022-04-10T11:52:56.114Z</time>
      </trkpt>
      <trkpt lat="42.1599" lon="21.9344">
        <ele>521.153902</ele>
        <time>2022-04-10T11:53:01.087Z</time>
      </trkpt>
      <trkpt lat="42.15986" lon="21.93427">
        <ele>521.230709</ele>
        <time>2022-04-10T11:53:06.088Z</time>
      </trkpt>
      <trkpt lat="42.15982" lon="21.93416">
        <ele>521.296316</ele>
        <time>2022-04-10T11:53:10.081Z</time>
      </trkpt>
      <trkpt lat="42.15979" lon="21.93404">
        <ele>521.359925</ele>
        <time>2022-04-10T11:53:14.121Z</time>
      </trkpt>
      <trkpt lat="42.15975" lon="21.93393">
        <ele>521.425817</ele>
        <time>2022-04-10T11:53:18.074Z</time>
      </trkpt>
      <trkpt lat="42.15971" lon="21.93381">
        <ele>521.496396</ele>
        <time>2022-04-10T11:53:23.099Z</time>
      </trkpt>
      <trkpt lat="42.15968" lon="21.93366">
        <ele>521.576882</ele>
        <time>2022-04-10T11:53:27.075Z</time>
      </trkpt>
      <trkpt lat="42.15964" lon="21.93353">
        <ele>521.647321</ele>
        <time>2022-04-10T11:53:31.120Z</time>
      </trkpt>
      <trkpt lat="42.15959" lon="21.9334">
        <ele>521.725047</ele>
        <time>2022-04-10T11:53:35.092Z</time>
      </trkpt>
      <trkpt lat="42.15955" lon="21.93325">
        <ele>521.808238</ele>
        <time>2022-04-10T11:53:39.091Z</time>
      </trkpt>
      <trkpt lat="42.1595" lon="21.93311">
        <ele>521.890718</ele>
        <time>2022-04-10T11:53:43.097Z</time>
      </trkpt>
      <trkpt lat="42.15947" lon="21.93295">
        <ele>521.974514</ele>
        <time>2022-04-10T11:53:47.087Z</time>
      </trkpt>
      <trkpt lat="42.15943" lon="21.93282">
        <ele>521.962884</ele>
        <time>2022-04-10T11:53:51.080Z</time>
      </trkpt>
      <trkpt lat="42.15939" lon="21.9327">
        <ele>521.901163</ele>
        <time>2022-04-10T11:53:54.078Z</time>
      </trkpt>
      <trkpt lat="42.15937" lon="21.93258">
        <ele>521.837501</ele>
        <time>2022-04-10T11:53:57.086Z</time>
      </trkpt>
      <trkpt lat="42.15936" lon="21.93244">
        <ele>521.773128</ele>
        <time>2022-04-10T11:54:00.068Z</time>
      </trkpt>
      <trkpt lat="42.15937" lon="21.93232">
        <ele>521.711577</ele>
        <time>2022-04-10T11:54:03.089Z</time>
      </trkpt>
      <trkpt lat="42.15939" lon="21.93217">
        <ele>521.638864</ele>
        <time>2022-04-10T11:54:07.086Z</time>
      </trkpt>
      <trkpt lat="42.15942" lon="21.93203">
        <ele>521.569791</ele>
        <time>2022-04-10T11:54:11.078Z</time>
      </trkpt>
      <trkpt lat="42.15945" lon="21.9319">
        <ele>521.502159</ele>
        <time>2022-04-10T11:54:15.099Z</time>
      </trkpt>
      <trkpt lat="42.15948" lon="21.93177">
        <ele>521.437285</ele>
        <time>2022-04-10T11:54:19.102Z</time>
      </trkpt>
      <trkpt lat="42.15951" lon="21.93164">
        <ele>521.370654</ele>
        <time>2022-04-10T11:54:23.090Z</time>
      </trkpt>
      <trkpt lat="42.15955" lon="21.9315">
        <ele>521.298941</ele>
        <time>2022-04-10T11:54:27.095Z</time>
      </trkpt>
      <trkpt lat="42.15959" lon="21.93136">
        <ele>521.223357</ele>
        <time>2022-04-10T11:54:31.082Z</time>
      </trkpt>
      <trkpt lat="42.15962" lon="21.9312">
        <ele>521.146297</ele>
        <time>2022-04-10T11:54:35.098Z</time>
      </trkpt>
      <trkpt lat="42.15964" lon="21.93107">
        <ele>521.083335</ele>
        <time>2022-04-10T11:54:38.068Z</time>
      </trkpt>
      <trkpt lat="42.15967" lon="21.93094">
        <ele>521.017234</ele>
        <time>2022-04-10T11:54:41.074Z</time>
      </trkpt>
      <trkpt lat="42.1597" lon="21.9308">
        <ele>520.945307</ele>
        <time>2022-04-10T11:54:44.097Z</time>
      </trkpt>
      <trkpt lat="42.15973" lon="21.93064">
        <ele>520.865901</ele>
        <time>2022-04-10T11:54:47.087Z</time>
      </trkpt>
      <trkpt lat="42.15977" lon="21.93049">
        <ele>520.87388</ele>
        <time>2022-04-10T11:54:50.080Z</time>
      </trkpt>
      <trkpt lat="42.15981" lon="21.93034">
        <ele>520.949375</ele>
        <time>2022-04-10T11:54:53.082Z</time>
      </trkpt>
      <trkpt lat="42.15985" lon="21.93018">
        <ele>521.030254</ele>
        <time>2022-04-10T11:54:56.082Z</time>
      </trkpt>
      <trkpt lat="42.15989" lon="21.93005">
        <ele>521.099644</ele>
        <time>2022-04-10T11:54:59.094Z</time>
      </trkpt>
      <trkpt lat="42.15992" lon="21.92993">
        <ele>521.159721</ele>
        <time>2022-04-10T11:55:02.080Z</time>
      </trkpt>
      <trkpt lat="42.15995" lon="21.9298">
        <ele>521.223832</ele>
        <time>2022-04-10T11:55:06.081Z</time>
      </trkpt>
      <trkpt lat="42.15997" lon="21.92967">
        <ele>521.287456</ele>
        <time>2022-04-10T11:55:10.079Z</time>
      </trkpt>
      <trkpt lat="42.16" lon="21.92953">
        <ele>521.356679</ele>
        <time>2022-04-10T11:55:14.101Z</time>
      </trkpt>
      <trkpt lat="42.16003" lon="21.9294">
        <ele>521.423787</ele>
        <time>2022-04-10T11:55:18.082Z</time>
      </trkpt>
      <trkpt lat="42.16005" lon="21.92928">
        <ele>521.482641</ele>
        <time>2022-04-10T11:55:23.130Z</time>
      </trkpt>
      <trkpt lat="42.16009" lon="21.92916">
        <ele>521.544112</ele>
        <time>2022-04-10T11:55:28.089Z</time>
      </trkpt>
      <trkpt lat="42.16011" lon="21.92904">
        <ele>521.60416</ele>
        <time>2022-04-10T11:55:33.076Z</time>
      </trkpt>
      <trkpt lat="42.16016" lon="21.92892">
        <ele>521.671786</ele>
        <time>2022-04-10T11:55:39.082Z</time>
      </trkpt>
      <trkpt lat="42.16018" lon="21.9288">
        <ele>521.73221</ele>
        <time>2022-04-10T11:55:45.083Z</time>
      </trkpt>
      <trkpt lat="42.16019" lon="21.92866">
        <ele>521.799145</ele>
        <time>2022-04-10T11:55:51.079Z</time>
      </trkpt>
      <trkpt lat="42.1602" lon="21.92852">
        <ele>521.86871</ele>
        <time>2022-04-10T11:55:57.129Z</time>
      </trkpt>
      <trkpt lat="42.1602" lon="21.92839">
        <ele>521.930403</ele>
        <time>2022-04-10T11:56:03.084Z</time>
      </trkpt>
      <trkpt lat="42.16017" lon="21.92827">
        <ele>521.991356</ele>
        <time>2022-04-10T11:56:09.084Z</time>
      </trkpt>
      <trkpt lat="42.16014" lon="21.92815">
        <ele>521.942412</ele>
        <time>2022-04-10T11:56:14.080Z</time>
      </trkpt>
      <trkpt lat="42.1601" lon="21.92802">
        <ele>521.872855</ele>
        <time>2022-04-10T11:56:19.114Z</time>
      </trkpt>
      <trkpt lat="42.16009" lon="21.92787">
        <ele>521.797864</ele>
        <time>2022-04-10T11:56:24.073Z</time>
      </trkpt>
      <trkpt lat="42.16006" lon="21.92774">
        <ele>521.731534</ele>
        <time>2022-04-10T11:56:28.095Z</time>
      </trkpt>
      <trkpt lat="42.16006" lon="21.92758">
        <ele>521.6554</ele>
        <time>2022-04-10T11:56:32.091Z</time>
      </trkpt>
      <trkpt lat="42.16007" lon="21.92744">
        <ele>521.585437</ele>
        <time>2022-04-10T11:56:35.087Z</time>
      </trkpt>
      <trkpt lat="42.16009" lon="21.92728">
        <ele>521.5006</ele>
        <time>2022-04-10T11:56:38.115Z</time>
      </trkpt>
      <trkpt lat="42.16013" lon="21.92712">
        <ele>521.418489</ele>
        <time>2022-04-10T11:56:41.128Z</time>
      </trkpt>
      <trkpt lat="42.16016" lon="21.92696">
        <ele>521.337604</ele>
        <time>2022-04-10T11:56:44.075Z</time>
      </trkpt>
      <trkpt lat="42.1602" lon="21.92681">
        <ele>521.257755</ele>
        <time>2022-04-10T11:56:47.084Z</time>
      </trkpt>
      <trkpt lat="42.16024" lon="21.92665">
        <ele>521.173096</ele>
        <time>2022-04-10T11:56:50.085Z</time>
      </trkpt>
      <trkpt lat="42.16028" lon="21.92648">
        <ele>521.086584</ele>
        <time>2022-04-10T11:56:53.073Z</time>
      </trkpt>
      <trkpt lat="42.16031" lon="21.92637">
        <ele>521.025664</ele>
        <time>2022-04-10T11:56:55.085Z</time>
      </trkpt>
      <trkpt lat="42.16036" lon="21.92623">
        <ele>520.948761</ele>
        <time>2022-04-10T11:56:58.098Z</time>
      </trkpt>
      <trkpt lat="42.16039" lon="21.92611">
        <ele>520.887891</ele>
        <time>2022-04-10T11:57:01.075Z</time>
      </trkpt>
      <trkpt lat="42.16043" lon="21.92597">
        <ele>520.809298</ele>
        <time>2022-04-10T11:57:05.079Z</time>
      </trkpt>
      <trkpt lat="42.16046" lon="21.92584">
        <ele>520.751296</ele>
        <time>2022-04-10T11:57:08.099Z</time>
      </trkpt>
      <trkpt lat="42.16049" lon="21.92571">
        <ele>520.693145</ele>
        <time>2022-04-10T11:57:11.087Z</time>
      </trkpt>
      <trkpt lat="42.16052" lon="21.92558">
        <ele>520.633033</ele>
        <time>2022-04-10T11:57:14.128Z</time>
      </trkpt>
      <trkpt lat="42.16055" lon="21.92545">
        <ele>520.57426</ele>
        <time>2022-04-10T11:57:17.077Z</time>
      </trkpt>
      <trkpt lat="42.16059" lon="21.92533">
        <ele>520.516579</ele>
        <time>2022-04-10T11:57:20.135Z</time>
      </trkpt>
      <trkpt lat="42.16061" lon="21.92521">
        <ele>520.463246</ele>
        <time>2022-04-10T11:57:23.079Z</time>
      </trkpt>
      <trkpt lat="42.16065" lon="21.92506">
        <ele>520.397323</ele>
        <time>2022-04-10T11:57:27.081Z</time>
      </trkpt>
      <trkpt lat="42.16068" lon="21.92492">
        <ele>520.334675</ele>
        <time>2022-04-10T11:57:31.126Z</time>
      </trkpt>
      <trkpt lat="42.16071" lon="21.92478">
        <ele>520.272185</ele>
        <time>2022-04-10T11:57:35.077Z</time>
      </trkpt>
      <trkpt lat="42.16072" lon="21.92464">
        <ele>520.212946</ele>
        <time>2022-04-10T11:57:39.086Z</time>
      </trkpt>
      <trkpt lat="42.16073" lon="21.92451">
        <ele>520.153145</ele>
        <time>2022-04-10T11:57:43.126Z</time>
      </trkpt>
      <trkpt lat="42.16076" lon="21.92437">
        <ele>520.092558</ele>
        <time>2022-04-10T11:57:47.098Z</time>
      </trkpt>
      <trkpt lat="42.16078" lon="21.92423">
        <ele>520.02989</ele>
        <time>2022-04-10T11:57:51.085Z</time>
      </trkpt>
      <trkpt lat="42.1608" lon="21.92408">
        <ele>519.965932</ele>
        <time>2022-04-10T11:57:55.069Z</time>
      </trkpt>
      <trkpt lat="42.16081" lon="21.92395">
        <ele>519.907284</ele>
        <time>2022-04-10T11:57:59.094Z</time>
      </trkpt>
      <trkpt lat="42.16082" lon="21.9238">
        <ele>519.844625</ele>
        <time>2022-04-10T11:58:03.088Z</time>
      </trkpt>
      <trkpt lat="42.16081" lon="21.92364">
        <ele>519.775431</ele>
        <time>2022-04-10T11:58:07.078Z</time>
      </trkpt>
      <trkpt lat="42.16079" lon="21.92351">
        <ele>519.434286</ele>
        <time>2022-04-10T11:58:10.124Z</time>
      </trkpt>
      <trkpt lat="42.16077" lon="21.92338">
        <ele>518.854453</ele>
        <time>2022-04-10T11:58:13.076Z</time>
      </trkpt>
      <trkpt lat="42.16075" lon="21.92325">
        <ele>518.260278</ele>
        <time>2022-04-10T11:58:16.088Z</time>
      </trkpt>
      <trkpt lat="42.16073" lon="21.9231">
        <ele>517.567165</ele>
        <time>2022-04-10T11:58:19.092Z</time>
      </trkpt>
      <trkpt lat="42.16072" lon="21.92296">
        <ele>516.943564</ele>
        <time>2022-04-10T11:58:22.086Z</time>
      </trkpt>
      <trkpt lat="42.1607" lon="21.92281">
        <ele>516.287424</ele>
        <time>2022-04-10T11:58:25.101Z</time>
      </trkpt>
      <trkpt lat="42.16067" lon="21.92265">
        <ele>515.575859</ele>
        <time>2022-04-10T11:58:28.104Z</time>
      </trkpt>
      <trkpt lat="42.16064" lon="21.92249">
        <ele>514.819784</ele>
        <time>2022-04-10T11:58:31.084Z</time>
      </trkpt>
      <trkpt lat="42.16061" lon="21.92232">
        <ele>514.047973</ele>
        <time>2022-04-10T11:58:34.089Z</time>
      </trkpt>
      <trkpt lat="42.16059" lon="21.92216">
        <ele>513.327839</ele>
        <time>2022-04-10T11:58:37.082Z</time>
      </trkpt>
      <trkpt lat="42.16059" lon="21.92201">
        <ele>512.666614</ele>
        <time>2022-04-10T11:58:40.084Z</time>
      </trkpt>
      <trkpt lat="42.16061" lon="21.92185">
        <ele>511.950874</ele>
        <time>2022-04-10T11:58:43.088Z</time>
      </trkpt>
      <trkpt lat="42.16065" lon="21.9217">
        <ele>511.22527</ele>
        <time>2022-04-10T11:58:46.066Z</time>
      </trkpt>
      <trkpt lat="42.16071" lon="21.92157">
        <ele>510.579006</ele>
        <time>2022-04-10T11:58:49.124Z</time>
      </trkpt>
      <trkpt lat="42.16077" lon="21.92145">
        <ele>509.937312</ele>
        <time>2022-04-10T11:58:52.096Z</time>
      </trkpt>
      <trkpt lat="42.16082" lon="21.92135">
        <ele>509.391872</ele>
        <time>2022-04-10T11:58:55.076Z</time>
      </trkpt>
      <trkpt lat="42.16087" lon="21.92124">
        <ele>508.790346</ele>
        <time>2022-04-10T11:58:58.057Z</time>
      </trkpt>
      <trkpt lat="42.16091" lon="21.9211">
        <ele>508.070323</ele>
        <time>2022-04-10T11:59:02.068Z</time>
      </trkpt>
      <trkpt lat="42.16097" lon="21.92099">
        <ele>507.466626</ele>
        <time>2022-04-10T11:59:05.118Z</time>
      </trkpt>
      <trkpt lat="42.16104" lon="21.92088">
        <ele>506.76381</ele>
        <time>2022-04-10T11:59:08.088Z</time>
      </trkpt>
      <trkpt lat="42.1611" lon="21.92077">
        <ele>506.091393</ele>
        <time>2022-04-10T11:59:11.082Z</time>
      </trkpt>
      <trkpt lat="42.16116" lon="21.92064">
        <ele>505.378444</ele>
        <time>2022-04-10T11:59:14.084Z</time>
      </trkpt>
      <trkpt lat="42.16122" lon="21.92051">
        <ele>504.662169</ele>
        <time>2022-04-10T11:59:17.078Z</time>
      </trkpt>
      <trkpt lat="42.16128" lon="21.92039">
        <ele>503.989884</ele>
        <time>2022-04-10T11:59:20.081Z</time>
      </trkpt>
      <trkpt lat="42.16132" lon="21.92027">
        <ele>503.359878</ele>
        <time>2022-04-10T11:59:23.143Z</time>
      </trkpt>
      <trkpt lat="42.16137" lon="21.92016">
        <ele>502.767183</ele>
        <time>2022-04-10T11:59:26.065Z</time>
      </trkpt>
      <trkpt lat="42.16143" lon="21.92004">
        <ele>502.05951</ele>
        <time>2022-04-10T11:59:29.085Z</time>
      </trkpt>
      <trkpt lat="42.16148" lon="21.91992">
        <ele>501.423627</ele>
        <time>2022-04-10T11:59:32.071Z</time>
      </trkpt>
      <trkpt lat="42.16154" lon="21.91979">
        <ele>500.702585</ele>
        <time>2022-04-10T11:59:36.090Z</time>
      </trkpt>
      <trkpt lat="42.1616" lon="21.91969">
        <ele>500.090964</ele>
        <time>2022-04-10T11:59:39.097Z</time>
      </trkpt>
      <trkpt lat="42.16165" lon="21.91959">
        <ele>499.51705</ele>
        <time>2022-04-10T11:59:43.099Z</time>
      </trkpt>
      <trkpt lat="42.16171" lon="21.91946">
        <ele>498.782012</ele>
        <time>2022-04-10T11:59:47.095Z</time>
      </trkpt>
      <trkpt lat="42.16176" lon="21.91935">
        <ele>498.156854</ele>
        <time>2022-04-10T11:59:51.082Z</time>
      </trkpt>
      <trkpt lat="42.16184" lon="21.91922">
        <ele>497.405212</ele>
        <time>2022-04-10T11:59:56.044Z</time>
      </trkpt>
      <trkpt lat="42.1619" lon="21.91909">
        <ele>496.739602</ele>
        <time>2022-04-10T12:00:00.111Z</time>
      </trkpt>
      <trkpt lat="42.16195" lon="21.91897">
        <ele>496.203414</ele>
        <time>2022-04-10T12:00:03.079Z</time>
      </trkpt>
      <trkpt lat="42.16201" lon="21.91885">
        <ele>495.578554</ele>
        <time>2022-04-10T12:00:07.075Z</time>
      </trkpt>
      <trkpt lat="42.16207" lon="21.91874">
        <ele>495.005254</ele>
        <time>2022-04-10T12:00:11.097Z</time>
      </trkpt>
      <trkpt lat="42.16212" lon="21.91863">
        <ele>494.474475</ele>
        <time>2022-04-10T12:00:14.094Z</time>
      </trkpt>
      <trkpt lat="42.16216" lon="21.91852">
        <ele>493.948203</ele>
        <time>2022-04-10T12:00:17.066Z</time>
      </trkpt>
      <trkpt lat="42.16223" lon="21.91838">
        <ele>493.273447</ele>
        <time>2022-04-10T12:00:21.084Z</time>
      </trkpt>
      <trkpt lat="42.16228" lon="21.91826">
        <ele>492.697077</ele>
        <time>2022-04-10T12:00:24.076Z</time>
      </trkpt>
      <trkpt lat="42.16234" lon="21.91815">
        <ele>492.106893</ele>
        <time>2022-04-10T12:00:27.105Z</time>
      </trkpt>
      <trkpt lat="42.1624" lon="21.91802">
        <ele>491.485542</ele>
        <time>2022-04-10T12:00:30.073Z</time>
      </trkpt>
      <trkpt lat="42.16248" lon="21.91791">
        <ele>490.843815</ele>
        <time>2022-04-10T12:00:33.074Z</time>
      </trkpt>
      <trkpt lat="42.16253" lon="21.91778">
        <ele>490.217204</ele>
        <time>2022-04-10T12:00:36.080Z</time>
      </trkpt>
      <trkpt lat="42.16258" lon="21.91766">
        <ele>489.68351</ele>
        <time>2022-04-10T12:00:39.066Z</time>
      </trkpt>
      <trkpt lat="42.16264" lon="21.91754">
        <ele>489.079836</ele>
        <time>2022-04-10T12:00:43.099Z</time>
      </trkpt>
      <trkpt lat="42.16271" lon="21.91742">
        <ele>488.429506</ele>
        <time>2022-04-10T12:00:47.076Z</time>
      </trkpt>
      <trkpt lat="42.16276" lon="21.91731">
        <ele>487.868953</ele>
        <time>2022-04-10T12:00:50.084Z</time>
      </trkpt>
      <trkpt lat="42.16281" lon="21.91719">
        <ele>487.383819</ele>
        <time>2022-04-10T12:00:53.115Z</time>
      </trkpt>
      <trkpt lat="42.16286" lon="21.91709">
        <ele>487.296996</ele>
        <time>2022-04-10T12:00:56.076Z</time>
      </trkpt>
      <trkpt lat="42.16291" lon="21.91698">
        <ele>487.203127</ele>
        <time>2022-04-10T12:00:59.076Z</time>
      </trkpt>
      <trkpt lat="42.16296" lon="21.91687">
        <ele>487.112842</ele>
        <time>2022-04-10T12:01:02.071Z</time>
      </trkpt>
      <trkpt lat="42.16301" lon="21.91675">
        <ele>487.016645</ele>
        <time>2022-04-10T12:01:06.081Z</time>
      </trkpt>
      <trkpt lat="42.16307" lon="21.91663">
        <ele>486.913706</ele>
        <time>2022-04-10T12:01:10.074Z</time>
      </trkpt>
      <trkpt lat="42.16313" lon="21.91651">
        <ele>486.810614</ele>
        <time>2022-04-10T12:01:14.085Z</time>
      </trkpt>
      <trkpt lat="42.16319" lon="21.91639">
        <ele>486.705702</ele>
        <time>2022-04-10T12:01:19.075Z</time>
      </trkpt>
      <trkpt lat="42.16325" lon="21.91628">
        <ele>486.605489</ele>
        <time>2022-04-10T12:01:23.097Z</time>
      </trkpt>
      <trkpt lat="42.16332" lon="21.91617">
        <ele>486.507271</ele>
        <time>2022-04-10T12:01:27.105Z</time>
      </trkpt>
      <trkpt lat="42.16338" lon="21.91606">
        <ele>486.408464</ele>
        <time>2022-04-10T12:01:31.088Z</time>
      </trkpt>
      <trkpt lat="42.16342" lon="21.91595">
        <ele>486.319565</ele>
        <time>2022-04-10T12:01:35.068Z</time>
      </trkpt>
      <trkpt lat="42.16348" lon="21.91582">
        <ele>486.212641</ele>
        <time>2022-04-10T12:01:40.121Z</time>
      </trkpt>
      <trkpt lat="42.16354" lon="21.91573">
        <ele>486.12162</ele>
        <time>2022-04-10T12:01:44.091Z</time>
      </trkpt>
      <trkpt lat="42.1636" lon="21.91561">
        <ele>486.018529</ele>
        <time>2022-04-10T12:01:49.086Z</time>
      </trkpt>
      <trkpt lat="42.16366" lon="21.91551">
        <ele>485.928831</ele>
        <time>2022-04-10T12:01:53.075Z</time>
      </trkpt>
      <trkpt lat="42.16371" lon="21.91539">
        <ele>485.830424</ele>
        <time>2022-04-10T12:01:58.089Z</time>
      </trkpt>
      <trkpt lat="42.16377" lon="21.91527">
        <ele>485.725692</ele>
        <time>2022-04-10T12:02:03.089Z</time>
      </trkpt>
      <trkpt lat="42.16382" lon="21.91514">
        <ele>485.920741</ele>
        <time>2022-04-10T12:02:08.129Z</time>
      </trkpt>
      <trkpt lat="42.16387" lon="21.91503">
        <ele>486.43916</ele>
        <time>2022-04-10T12:02:13.082Z</time>
      </trkpt>
      <trkpt lat="42.16392" lon="21.91491">
        <ele>486.976831</ele>
        <time>2022-04-10T12:02:18.075Z</time>
      </trkpt>
      <trkpt lat="42.16397" lon="21.91479">
        <ele>487.537134</ele>
        <time>2022-04-10T12:02:23.080Z</time>
      </trkpt>
      <trkpt lat="42.16402" lon="21.91468">
        <ele>488.037588</ele>
        <time>2022-04-10T12:02:28.079Z</time>
      </trkpt>
      <trkpt lat="42.16408" lon="21.91458">
        <ele>488.550627</ele>
        <time>2022-04-10T12:02:33.088Z</time>
      </trkpt>
      <trkpt lat="42.16412" lon="21.91445">
        <ele>489.130827</ele>
        <time>2022-04-10T12:02:39.068Z</time>
      </trkpt>
      <trkpt lat="42.16416" lon="21.91434">
        <ele>489.620568</ele>
        <time>2022-04-10T12:02:44.076Z</time>
      </trkpt>
      <trkpt lat="42.16422" lon="21.91424">
        <ele>490.120207</ele>
        <time>2022-04-10T12:02:50.083Z</time>
      </trkpt>
      <trkpt lat="42.16428" lon="21.91414">
        <ele>490.636206</ele>
        <time>2022-04-10T12:02:56.098Z</time>
      </trkpt>
      <trkpt lat="42.16432" lon="21.91402">
        <ele>491.154908</ele>
        <time>2022-04-10T12:03:03.085Z</time>
      </trkpt>
      <trkpt lat="42.16438" lon="21.91391">
        <ele>491.690188</ele>
        <time>2022-04-10T12:03:10.116Z</time>
      </trkpt>
      <trkpt lat="42.16444" lon="21.9138">
        <ele>492.22506</ele>
        <time>2022-04-10T12:03:16.094Z</time>
      </trkpt>
      <trkpt lat="42.16449" lon="21.91369">
        <ele>492.759908</ele>
        <time>2022-04-10T12:03:22.110Z</time>
      </trkpt>
      <trkpt lat="42.16454" lon="21.91357">
        <ele>493.303505</ele>
        <time>2022-04-10T12:03:29.094Z</time>
      </trkpt>
      <trkpt lat="42.1646" lon="21.91346">
        <ele>493.842844</ele>
        <time>2022-04-10T12:03:36.075Z</time>
      </trkpt>
      <trkpt lat="42.16464" lon="21.91334">
        <ele>494.35157</ele>
        <time>2022-04-10T12:03:43.065Z</time>
      </trkpt>
      <trkpt lat="42.1647" lon="21.91324">
        <ele>494.867357</ele>
        <time>2022-04-10T12:03:50.100Z</time>
      </trkpt>
      <trkpt lat="42.16475" lon="21.91313">
        <ele>495.341031</ele>
        <time>2022-04-10T12:03:57.092Z</time>
      </trkpt>
      <trkpt lat="42.16481" lon="21.91302">
        <ele>495.34788</ele>
        <time>2022-04-10T12:04:04.069Z</time>
      </trkpt>
      <trkpt lat="42.16486" lon="21.91291">
        <ele>495.35425</ele>
        <time>2022-04-10T12:04:10.079Z</time>
      </trkpt>
      <trkpt lat="42.1649" lon="21.91279">
        <ele>495.360988</ele>
        <time>2022-04-10T12:04:16.068Z</time>
      </trkpt>
      <trkpt lat="42.16495" lon="21.91267">
        <ele>495.368179</ele>
        <time>2022-04-10T12:04:21.069Z</time>
      </trkpt>
      <trkpt lat="42.16499" lon="21.91256">
        <ele>495.374395</ele>
        <time>2022-04-10T12:04:25.098Z</time>
      </trkpt>
      <trkpt lat="42.16504" lon="21.91245">
        <ele>495.38099</ele>
        <time>2022-04-10T12:04:29.099Z</time>
      </trkpt>
      <trkpt lat="42.1651" lon="21.91233">
        <ele>495.388216</ele>
        <time>2022-04-10T12:04:33.087Z</time>
      </trkpt>
      <trkpt lat="42.16517" lon="21.9122">
        <ele>495.396362</ele>
        <time>2022-04-10T12:04:37.079Z</time>
      </trkpt>
      <trkpt lat="42.16523" lon="21.91207">
        <ele>495.403729</ele>
        <time>2022-04-10T12:04:40.077Z</time>
      </trkpt>
      <trkpt lat="42.16529" lon="21.91194">
        <ele>495.411368</ele>
        <time>2022-04-10T12:04:43.099Z</time>
      </trkpt>
      <trkpt lat="42.16535" lon="21.91181">
        <ele>495.419287</ele>
        <time>2022-04-10T12:04:46.089Z</time>
      </trkpt>
      <trkpt lat="42.16543" lon="21.91169">
        <ele>495.427338</ele>
        <time>2022-04-10T12:04:49.160Z</time>
      </trkpt>
      <trkpt lat="42.1655" lon="21.91158">
        <ele>495.434748</ele>
        <time>2022-04-10T12:04:52.100Z</time>
      </trkpt>
      <trkpt lat="42.16555" lon="21.91145">
        <ele>495.442118</ele>
        <time>2022-04-10T12:04:55.076Z</time>
      </trkpt>
      <trkpt lat="42.16561" lon="21.91131">
        <ele>495.450244</ele>
        <time>2022-04-10T12:04:58.107Z</time>
      </trkpt>
      <trkpt lat="42.16568" lon="21.91117">
        <ele>495.45893</ele>
        <time>2022-04-10T12:05:01.084Z</time>
      </trkpt>
      <trkpt lat="42.16576" lon="21.91104">
        <ele>495.138086</ele>
        <time>2022-04-10T12:05:04.090Z</time>
      </trkpt>
      <trkpt lat="42.16582" lon="21.9109">
        <ele>494.525438</ele>
        <time>2022-04-10T12:05:07.096Z</time>
      </trkpt>
      <trkpt lat="42.16589" lon="21.91076">
        <ele>493.908258</ele>
        <time>2022-04-10T12:05:10.089Z</time>
      </trkpt>
      <trkpt lat="42.16595" lon="21.91064">
        <ele>493.331661</ele>
        <time>2022-04-10T12:05:13.080Z</time>
      </trkpt>
      <trkpt lat="42.16602" lon="21.91051">
        <ele>492.770013</ele>
        <time>2022-04-10T12:05:16.082Z</time>
      </trkpt>
      <trkpt lat="42.16607" lon="21.91038">
        <ele>492.192807</ele>
        <time>2022-04-10T12:05:19.090Z</time>
      </trkpt>
      <trkpt lat="42.16613" lon="21.91022">
        <ele>491.550791</ele>
        <time>2022-04-10T12:05:22.074Z</time>
      </trkpt>
      <trkpt lat="42.16619" lon="21.91008">
        <ele>490.946614</ele>
        <time>2022-04-10T12:05:25.101Z</time>
      </trkpt>
      <trkpt lat="42.16626" lon="21.90994">
        <ele>490.288905</ele>
        <time>2022-04-10T12:05:28.082Z</time>
      </trkpt>
      <trkpt lat="42.16633" lon="21.90979">
        <ele>489.636533</ele>
        <time>2022-04-10T12:05:31.085Z</time>
      </trkpt>
      <trkpt lat="42.1664" lon="21.90965">
        <ele>489.023332</ele>
        <time>2022-04-10T12:05:34.106Z</time>
      </trkpt>
      <trkpt lat="42.16647" lon="21.90951">
        <ele>488.389583</ele>
        <time>2022-04-10T12:05:37.121Z</time>
      </trkpt>
      <trkpt lat="42.16653" lon="21.90938">
        <ele>487.799431</ele>
        <time>2022-04-10T12:05:40.086Z</time>
      </trkpt>
      <trkpt lat="42.16658" lon="21.90925">
        <ele>487.269109</ele>
        <time>2022-04-10T12:05:43.094Z</time>
      </trkpt>
      <trkpt lat="42.16662" lon="21.90911">
        <ele>486.70157</ele>
        <time>2022-04-10T12:05:46.128Z</time>
      </trkpt>
      <trkpt lat="42.16669" lon="21.90896">
        <ele>486.148783</ele>
        <time>2022-04-10T12:05:49.077Z</time>
      </trkpt>
      <trkpt lat="42.16676" lon="21.90883">
        <ele>485.729334</ele>
        <time>2022-04-10T12:05:52.080Z</time>
      </trkpt>
      <trkpt lat="42.16683" lon="21.9087">
        <ele>485.286498</ele>
        <time>2022-04-10T12:05:55.121Z</time>
      </trkpt>
      <trkpt lat="42.16689" lon="21.90857">
        <ele>484.870989</ele>
        <time>2022-04-10T12:05:58.096Z</time>
      </trkpt>
      <trkpt lat="42.16696" lon="21.90842">
        <ele>484.415049</ele>
        <time>2022-04-10T12:06:01.068Z</time>
      </trkpt>
      <trkpt lat="42.16703" lon="21.90828">
        <ele>483.963338</ele>
        <time>2022-04-10T12:06:04.086Z</time>
      </trkpt>
      <trkpt lat="42.1671" lon="21.90814">
        <ele>483.507002</ele>
        <time>2022-04-10T12:06:07.087Z</time>
      </trkpt>
      <trkpt lat="42.16715" lon="21.90803">
        <ele>483.166038</ele>
        <time>2022-04-10T12:06:09.077Z</time>
      </trkpt>
      <trkpt lat="42.1672" lon="21.90792">
        <ele>482.814706</ele>
        <time>2022-04-10T12:06:11.093Z</time>
      </trkpt>
      <trkpt lat="42.16726" lon="21.90781">
        <ele>482.459356</ele>
        <time>2022-04-10T12:06:13.085Z</time>
      </trkpt>
      <trkpt lat="42.16731" lon="21.9077">
        <ele>482.116665</ele>
        <time>2022-04-10T12:06:15.064Z</time>
      </trkpt>
      <trkpt lat="42.16736" lon="21.9076">
        <ele>481.786823</ele>
        <time>2022-04-10T12:06:17.094Z</time>
      </trkpt>
      <trkpt lat="42.16742" lon="21.9075">
        <ele>481.448818</ele>
        <time>2022-04-10T12:06:19.076Z</time>
      </trkpt>
      <trkpt lat="42.16747" lon="21.90739">
        <ele>481.09566</ele>
        <time>2022-04-10T12:06:21.069Z</time>
      </trkpt>
      <trkpt lat="42.16753" lon="21.90728">
        <ele>480.753159</ele>
        <time>2022-04-10T12:06:23.093Z</time>
      </trkpt>
      <trkpt lat="42.16758" lon="21.90718">
        <ele>480.43012</ele>
        <time>2022-04-10T12:06:25.083Z</time>
      </trkpt>
      <trkpt lat="42.16764" lon="21.90709">
        <ele>480.100614</ele>
        <time>2022-04-10T12:06:27.072Z</time>
      </trkpt>
      <trkpt lat="42.16769" lon="21.90698">
        <ele>479.633915</ele>
        <time>2022-04-10T12:06:29.078Z</time>
      </trkpt>
      <trkpt lat="42.16774" lon="21.90686">
        <ele>479.039494</ele>
        <time>2022-04-10T12:06:31.127Z</time>
      </trkpt>
      <trkpt lat="42.16779" lon="21.90674">
        <ele>478.438812</ele>
        <time>2022-04-10T12:06:33.066Z</time>
      </trkpt>
      <trkpt lat="42.16782" lon="21.90661">
        <ele>477.841609</ele>
        <time>2022-04-10T12:06:35.082Z</time>
      </trkpt>
      <trkpt lat="42.16783" lon="21.90649">
        <ele>477.300053</ele>
        <time>2022-04-10T12:06:37.090Z</time>
      </trkpt>
      <trkpt lat="42.16781" lon="21.90632">
        <ele>476.528393</ele>
        <time>2022-04-10T12:06:40.085Z</time>
      </trkpt>
      <trkpt lat="42.1678" lon="21.90619">
        <ele>475.970839</ele>
        <time>2022-04-10T12:06:42.129Z</time>
      </trkpt>
      <trkpt lat="42.16778" lon="21.90606">
        <ele>475.359528</ele>
        <time>2022-04-10T12:06:44.069Z</time>
      </trkpt>
      <trkpt lat="42.16775" lon="21.90591">
        <ele>474.707574</ele>
        <time>2022-04-10T12:06:46.083Z</time>
      </trkpt>
      <trkpt lat="42.16773" lon="21.90576">
        <ele>474.03097</ele>
        <time>2022-04-10T12:06:48.083Z</time>
      </trkpt>
      <trkpt lat="42.1677" lon="21.90563">
        <ele>473.416322</ele>
        <time>2022-04-10T12:06:50.082Z</time>
      </trkpt>
      <trkpt lat="42.16768" lon="21.9055">
        <ele>472.841552</ele>
        <time>2022-04-10T12:06:52.093Z</time>
      </trkpt>
      <trkpt lat="42.16767" lon="21.90537">
        <ele>472.254101</ele>
        <time>2022-04-10T12:06:54.089Z</time>
      </trkpt>
      <trkpt lat="42.16765" lon="21.90525">
        <ele>471.717515</ele>
        <time>2022-04-10T12:06:56.087Z</time>
      </trkpt>
      <trkpt lat="42.16763" lon="21.90508">
        <ele>470.938956</ele>
        <time>2022-04-10T12:06:59.123Z</time>
      </trkpt>
      <trkpt lat="42.1676" lon="21.90491">
        <ele>470.164199</ele>
        <time>2022-04-10T12:07:02.083Z</time>
      </trkpt>
      <trkpt lat="42.16756" lon="21.90475">
        <ele>469.444959</ele>
        <time>2022-04-10T12:07:05.070Z</time>
      </trkpt>
      <trkpt lat="42.16752" lon="21.9046">
        <ele>468.883398</ele>
        <time>2022-04-10T12:07:08.087Z</time>
      </trkpt>
      <trkpt lat="42.16747" lon="21.90446">
        <ele>468.384141</ele>
        <time>2022-04-10T12:07:11.090Z</time>
      </trkpt>
      <trkpt lat="42.16741" lon="21.90432">
        <ele>467.869913</ele>
        <time>2022-04-10T12:07:14.069Z</time>
      </trkpt>
      <trkpt lat="42.16736" lon="21.90418">
        <ele>467.381052</ele>
        <time>2022-04-10T12:07:17.072Z</time>
      </trkpt>
      <trkpt lat="42.16732" lon="21.90405">
        <ele>466.942409</ele>
        <time>2022-04-10T12:07:20.082Z</time>
      </trkpt>
      <trkpt lat="42.16729" lon="21.90391">
        <ele>466.474275</ele>
        <time>2022-04-10T12:07:23.079Z</time>
      </trkpt>
      <trkpt lat="42.16726" lon="21.90374">
        <ele>465.949003</ele>
        <time>2022-04-10T12:07:26.084Z</time>
      </trkpt>
      <trkpt lat="42.16723" lon="21.90358">
        <ele>465.430722</ele>
        <time>2022-04-10T12:07:29.077Z</time>
      </trkpt>
      <trkpt lat="42.1672" lon="21.90343">
        <ele>464.927735</ele>
        <time>2022-04-10T12:07:32.101Z</time>
      </trkpt>
      <trkpt lat="42.16718" lon="21.90328">
        <ele>464.455981</ele>
        <time>2022-04-10T12:07:35.076Z</time>
      </trkpt>
      <trkpt lat="42.16716" lon="21.90315">
        <ele>464.015201</ele>
        <time>2022-04-10T12:07:38.134Z</time>
      </trkpt>
      <trkpt lat="42.16714" lon="21.90302">
        <ele>463.616883</ele>
        <time>2022-04-10T12:07:41.087Z</time>
      </trkpt>
      <trkpt lat="42.16712" lon="21.90288">
        <ele>463.169904</ele>
        <time>2022-04-10T12:07:45.097Z</time>
      </trkpt>
      <trkpt lat="42.16711" lon="21.90273">
        <ele>462.688581</ele>
        <time>2022-04-10T12:07:49.080Z</time>
      </trkpt>
      <trkpt lat="42.16709" lon="21.90258">
        <ele>462.216116</ele>
        <time>2022-04-10T12:07:53.104Z</time>
      </trkpt>
      <trkpt lat="42.16708" lon="21.90245">
        <ele>461.80089</ele>
        <time>2022-04-10T12:07:56.078Z</time>
      </trkpt>
      <trkpt lat="42.16708" lon="21.90231">
        <ele>461.31597</ele>
        <time>2022-04-10T12:08:00.084Z</time>
      </trkpt>
      <trkpt lat="42.1671" lon="21.90217">
        <ele>460.797105</ele>
        <time>2022-04-10T12:08:04.087Z</time>
      </trkpt>
      <trkpt lat="42.16713" lon="21.90202">
        <ele>460.222802</ele>
        <time>2022-04-10T12:08:08.081Z</time>
      </trkpt>
      <trkpt lat="42.16715" lon="21.9019">
        <ele>459.7542</ele>
        <time>2022-04-10T12:08:12.087Z</time>
      </trkpt>
      <trkpt lat="42.16717" lon="21.90177">
        <ele>459.253061</ele>
        <time>2022-04-10T12:08:16.084Z</time>
      </trkpt>
      <trkpt lat="42.1672" lon="21.90164">
        <ele>458.757072</ele>
        <time>2022-04-10T12:08:21.066Z</time>
      </trkpt>
      <trkpt lat="42.16721" lon="21.90151">
        <ele>458.283885</ele>
        <time>2022-04-10T12:08:25.089Z</time>
      </trkpt>
      <trkpt lat="42.16723" lon="21.90136">
        <ele>457.701125</ele>
        <time>2022-04-10T12:08:29.069Z</time>
      </trkpt>
      <trkpt lat="42.16726" lon="21.90121">
        <ele>457.132369</ele>
        <time>2022-04-10T12:08:33.126Z</time>
      </trkpt>
      <trkpt lat="42.16727" lon="21.90109">
        <ele>456.660462</ele>
        <time>2022-04-10T12:08:37.095Z</time>
      </trkpt>
      <trkpt lat="42.16728" lon="21.90094">
        <ele>456.104408</ele>
        <time>2022-04-10T12:08:42.090Z</time>
      </trkpt>
      <trkpt lat="42.16728" lon="21.9008">
        <ele>455.60204</ele>
        <time>2022-04-10T12:08:46.104Z</time>
      </trkpt>
      <trkpt lat="42.16728" lon="21.90068">
        <ele>455.136849</ele>
        <time>2022-04-10T12:08:50.121Z</time>
      </trkpt>
      <trkpt lat="42.16728" lon="21.90054">
        <ele>454.634706</ele>
        <time>2022-04-10T12:08:55.073Z</time>
      </trkpt>
      <trkpt lat="42.16729" lon="21.9004">
        <ele>454.111553</ele>
        <time>2022-04-10T12:09:00.108Z</time>
      </trkpt>
      <trkpt lat="42.16729" lon="21.90028">
        <ele>453.657737</ele>
        <time>2022-04-10T12:09:04.086Z</time>
      </trkpt>
      <trkpt lat="42.16729" lon="21.90014">
        <ele>453.155368</ele>
        <time>2022-04-10T12:09:10.094Z</time>
      </trkpt>
      <trkpt lat="42.16731" lon="21.90001">
        <ele>452.627716</ele>
        <time>2022-04-10T12:09:15.078Z</time>
      </trkpt>
      <trkpt lat="42.16731" lon="21.89988">
        <ele>452.288725</ele>
        <time>2022-04-10T12:09:19.088Z</time>
      </trkpt>
      <trkpt lat="42.16729" lon="21.89976">
        <ele>451.981904</ele>
        <time>2022-04-10T12:09:23.080Z</time>
      </trkpt>
      <trkpt lat="42.16729" lon="21.89963">
        <ele>451.645824</ele>
        <time>2022-04-10T12:09:27.091Z</time>
      </trkpt>
      <trkpt lat="42.16729" lon="21.89948">
        <ele>451.261775</ele>
        <time>2022-04-10T12:09:31.072Z</time>
      </trkpt>
      <trkpt lat="42.16729" lon="21.89935">
        <ele>450.939849</ele>
        <time>2022-04-10T12:09:34.077Z</time>
      </trkpt>
      <trkpt lat="42.1673" lon="21.89921">
        <ele>450.584917</ele>
        <time>2022-04-10T12:09:37.115Z</time>
      </trkpt>
      <trkpt lat="42.1673" lon="21.89906">
        <ele>450.216017</ele>
        <time>2022-04-10T12:09:40.086Z</time>
      </trkpt>
      <trkpt lat="42.16729" lon="21.89893">
        <ele>449.868316</ele>
        <time>2022-04-10T12:09:43.097Z</time>
      </trkpt>
      <trkpt lat="42.16729" lon="21.89879">
        <ele>449.524544</ele>
        <time>2022-04-10T12:09:46.085Z</time>
      </trkpt>
      <trkpt lat="42.16729" lon="21.89865">
        <ele>449.175841</ele>
        <time>2022-04-10T12:09:49.105Z</time>
      </trkpt>
      <trkpt lat="42.16731" lon="21.89852">
        <ele>448.842998</ele>
        <time>2022-04-10T12:09:52.091Z</time>
      </trkpt>
      <trkpt lat="42.16731" lon="21.89838">
        <ele>448.476195</ele>
        <time>2022-04-10T12:09:55.067Z</time>
      </trkpt>
      <trkpt lat="42.1673" lon="21.89824">
        <ele>448.131327</ele>
        <time>2022-04-10T12:09:58.118Z</time>
      </trkpt>
      <trkpt lat="42.1673" lon="21.89808">
        <ele>447.737296</ele>
        <time>2022-04-10T12:10:02.081Z</time>
      </trkpt>
      <trkpt lat="42.16731" lon="21.89794">
        <ele>447.380906</ele>
        <time>2022-04-10T12:10:06.087Z</time>
      </trkpt>
      <trkpt lat="42.1673" lon="21.89782">
        <ele>447.059847</ele>
        <time>2022-04-10T12:10:09.085Z</time>
      </trkpt>
      <trkpt lat="42.16729" lon="21.89766">
        <ele>446.661537</ele>
        <time>2022-04-10T12:10:12.093Z</time>
      </trkpt>
      <trkpt lat="42.16728" lon="21.89748">
        <ele>446.124742</ele>
        <time>2022-04-10T12:10:15.085Z</time>
      </trkpt>
      <trkpt lat="42.16729" lon="21.89735">
        <ele>445.701119</ele>
        <time>2022-04-10T12:10:17.085Z</time>
      </trkpt>
      <trkpt lat="42.16729" lon="21.8972">
        <ele>445.221638</ele>
        <time>2022-04-10T12:10:20.075Z</time>
      </trkpt>
      <trkpt lat="42.1673" lon="21.89707">
        <ele>444.788985</ele>
        <time>2022-04-10T12:10:25.098Z</time>
      </trkpt>
      <trkpt lat="42.16728" lon="21.89693">
        <ele>444.300457</ele>
        <time>2022-04-10T12:10:31.077Z</time>
      </trkpt>
      <trkpt lat="42.16729" lon="21.8968">
        <ele>443.879168</ele>
        <time>2022-04-10T12:10:35.077Z</time>
      </trkpt>
      <trkpt lat="42.16731" lon="21.89668">
        <ele>443.45213</ele>
        <time>2022-04-10T12:10:40.077Z</time>
      </trkpt>
      <trkpt lat="42.1673" lon="21.89653">
        <ele>442.95492</ele>
        <time>2022-04-10T12:10:45.116Z</time>
      </trkpt>
      <trkpt lat="42.16728" lon="21.89639">
        <ele>442.492326</ele>
        <time>2022-04-10T12:10:50.088Z</time>
      </trkpt>
      <trkpt lat="42.16727" lon="21.89626">
        <ele>442.060594</ele>
        <time>2022-04-10T12:10:54.101Z</time>
      </trkpt>
      <trkpt lat="42.16727" lon="21.89612">
        <ele>441.590524</ele>
        <time>2022-04-10T12:10:58.074Z</time>
      </trkpt>
      <trkpt lat="42.16727" lon="21.89598">
        <ele>441.130882</ele>
        <time>2022-04-10T12:11:02.084Z</time>
      </trkpt>
      <trkpt lat="42.16729" lon="21.89585">
        <ele>440.693849</ele>
        <time>2022-04-10T12:11:05.090Z</time>
      </trkpt>
      <trkpt lat="42.1673" lon="21.89569">
        <ele>440.172796</ele>
        <time>2022-04-10T12:11:08.086Z</time>
      </trkpt>
      <trkpt lat="42.16728" lon="21.89552">
        <ele>439.598251</ele>
        <time>2022-04-10T12:11:11.090Z</time>
      </trkpt>
      <trkpt lat="42.16725" lon="21.89534">
        <ele>438.986116</ele>
        <time>2022-04-10T12:11:14.099Z</time>
      </trkpt>
      <trkpt lat="42.16722" lon="21.89522">
        <ele>438.564223</ele>
        <time>2022-04-10T12:11:16.089Z</time>
      </trkpt>
      <trkpt lat="42.16718" lon="21.89506">
        <ele>437.918932</ele>
        <time>2022-04-10T12:11:19.077Z</time>
      </trkpt>
      <trkpt lat="42.16714" lon="21.89491">
        <ele>437.244745</ele>
        <time>2022-04-10T12:11:22.082Z</time>
      </trkpt>
      <trkpt lat="42.16711" lon="21.8948">
        <ele>436.742099</ele>
        <time>2022-04-10T12:11:24.114Z</time>
      </trkpt>
      <trkpt lat="42.16707" lon="21.89463">
        <ele>436.01284</ele>
        <time>2022-04-10T12:11:27.076Z</time>
      </trkpt>
      <trkpt lat="42.16704" lon="21.89445">
        <ele>435.246747</ele>
        <time>2022-04-10T12:11:30.121Z</time>
      </trkpt>
      <trkpt lat="42.16704" lon="21.89431">
        <ele>434.669142</ele>
        <time>2022-04-10T12:11:32.077Z</time>
      </trkpt>
      <trkpt lat="42.16706" lon="21.89417">
        <ele>434.100029</ele>
        <time>2022-04-10T12:11:34.085Z</time>
      </trkpt>
      <trkpt lat="42.1671" lon="21.89406">
        <ele>433.568047</ele>
        <time>2022-04-10T12:11:36.114Z</time>
      </trkpt>
      <trkpt lat="42.16714" lon="21.89392">
        <ele>432.965112</ele>
        <time>2022-04-10T12:11:38.079Z</time>
      </trkpt>
      <trkpt lat="42.16719" lon="21.89378">
        <ele>432.321747</ele>
        <time>2022-04-10T12:11:40.068Z</time>
      </trkpt>
      <trkpt lat="42.16723" lon="21.89362">
        <ele>431.627976</ele>
        <time>2022-04-10T12:11:42.260Z</time>
      </trkpt>
      <trkpt lat="42.16727" lon="21.89347">
        <ele>430.955291</ele>
        <time>2022-04-10T12:11:44.088Z</time>
      </trkpt>
      <trkpt lat="42.16729" lon="21.89332">
        <ele>430.306597</ele>
        <time>2022-04-10T12:11:46.089Z</time>
      </trkpt>
      <trkpt lat="42.16731" lon="21.89317">
        <ele>429.675198</ele>
        <time>2022-04-10T12:11:48.090Z</time>
      </trkpt>
      <trkpt lat="42.16732" lon="21.89303">
        <ele>429.101286</ele>
        <time>2022-04-10T12:11:50.098Z</time>
      </trkpt>
      <trkpt lat="42.16732" lon="21.89285">
        <ele>428.369945</ele>
        <time>2022-04-10T12:11:53.087Z</time>
      </trkpt>
      <trkpt lat="42.16732" lon="21.89271">
        <ele>427.87027</ele>
        <time>2022-04-10T12:11:56.068Z</time>
      </trkpt>
      <trkpt lat="42.16729" lon="21.89259">
        <ele>427.467851</ele>
        <time>2022-04-10T12:11:59.079Z</time>
      </trkpt>
      <trkpt lat="42.16727" lon="21.89247">
        <ele>427.058966</ele>
        <time>2022-04-10T12:12:02.091Z</time>
      </trkpt>
      <trkpt lat="42.16724" lon="21.89233">
        <ele>426.585875</ele>
        <time>2022-04-10T12:12:05.085Z</time>
      </trkpt>
      <trkpt lat="42.16722" lon="21.89216">
        <ele>426.011504</ele>
        <time>2022-04-10T12:12:08.080Z</time>
      </trkpt>
      <trkpt lat="42.16718" lon="21.89199">
        <ele>425.43394</ele>
        <time>2022-04-10T12:12:11.092Z</time>
      </trkpt>
      <trkpt lat="42.16715" lon="21.89181">
        <ele>424.83517</ele>
        <time>2022-04-10T12:12:14.075Z</time>
      </trkpt>
      <trkpt lat="42.16713" lon="21.89169">
        <ele>424.404617</ele>
        <time>2022-04-10T12:12:16.071Z</time>
      </trkpt>
      <trkpt lat="42.16711" lon="21.89156">
        <ele>423.964817</ele>
        <time>2022-04-10T12:12:18.098Z</time>
      </trkpt>
      <trkpt lat="42.16709" lon="21.89143">
        <ele>423.533622</ele>
        <time>2022-04-10T12:12:20.106Z</time>
      </trkpt>
      <trkpt lat="42.16706" lon="21.89131">
        <ele>423.110931</ele>
        <time>2022-04-10T12:12:22.081Z</time>
      </trkpt>
      <trkpt lat="42.16704" lon="21.89118">
        <ele>422.688239</ele>
        <time>2022-04-10T12:12:24.149Z</time>
      </trkpt>
      <trkpt lat="42.16702" lon="21.89105">
        <ele>422.255849</ele>
        <time>2022-04-10T12:12:26.094Z</time>
      </trkpt>
      <trkpt lat="42.16699" lon="21.89093">
        <ele>421.8289</ele>
        <time>2022-04-10T12:12:28.086Z</time>
      </trkpt>
      <trkpt lat="42.16697" lon="21.89075">
        <ele>421.234244</ele>
        <time>2022-04-10T12:12:31.087Z</time>
      </trkpt>
      <trkpt lat="42.16694" lon="21.89063">
        <ele>420.813424</ele>
        <time>2022-04-10T12:12:33.082Z</time>
      </trkpt>
      <trkpt lat="42.1669" lon="21.89051">
        <ele>420.398934</ele>
        <time>2022-04-10T12:12:35.070Z</time>
      </trkpt>
      <trkpt lat="42.16686" lon="21.89039">
        <ele>419.841487</ele>
        <time>2022-04-10T12:12:37.088Z</time>
      </trkpt>
      <trkpt lat="42.16682" lon="21.89029">
        <ele>419.292989</ele>
        <time>2022-04-10T12:12:39.088Z</time>
      </trkpt>
      <trkpt lat="42.16676" lon="21.89019">
        <ele>418.734987</ele>
        <time>2022-04-10T12:12:41.110Z</time>
      </trkpt>
      <trkpt lat="42.16666" lon="21.89008">
        <ele>417.951127</ele>
        <time>2022-04-10T12:12:44.098Z</time>
      </trkpt>
      <trkpt lat="42.16656" lon="21.88998">
        <ele>417.17182</ele>
        <time>2022-04-10T12:12:47.122Z</time>
      </trkpt>
      <trkpt lat="42.16647" lon="21.88987">
        <ele>416.400742</ele>
        <time>2022-04-10T12:12:50.094Z</time>
      </trkpt>
      <trkpt lat="42.1664" lon="21.88975">
        <ele>415.708353</ele>
        <time>2022-04-10T12:12:53.108Z</time>
      </trkpt>
      <trkpt lat="42.16634" lon="21.88961">
        <ele>414.998547</ele>
        <time>2022-04-10T12:12:57.081Z</time>
      </trkpt>
      <trkpt lat="42.16634" lon="21.88947">
        <ele>414.382175</ele>
        <time>2022-04-10T12:13:01.078Z</time>
      </trkpt>
      <trkpt lat="42.16633" lon="21.88933">
        <ele>413.724246</ele>
        <time>2022-04-10T12:13:04.131Z</time>
      </trkpt>
      <trkpt lat="42.16631" lon="21.8892">
        <ele>413.112647</ele>
        <time>2022-04-10T12:13:07.089Z</time>
      </trkpt>
      <trkpt lat="42.16629" lon="21.88906">
        <ele>412.492538</ele>
        <time>2022-04-10T12:13:11.083Z</time>
      </trkpt>
      <trkpt lat="42.16625" lon="21.88893">
        <ele>411.857447</ele>
        <time>2022-04-10T12:13:16.086Z</time>
      </trkpt>
      <trkpt lat="42.16618" lon="21.88882">
        <ele>411.183903</ele>
        <time>2022-04-10T12:13:21.086Z</time>
      </trkpt>
      <trkpt lat="42.16612" lon="21.88868">
        <ele>410.441945</ele>
        <time>2022-04-10T12:13:25.113Z</time>
      </trkpt>
      <trkpt lat="42.16604" lon="21.88858">
        <ele>409.79051</ele>
        <time>2022-04-10T12:13:28.086Z</time>
      </trkpt>
      <trkpt lat="42.16597" lon="21.88849">
        <ele>409.178234</ele>
        <time>2022-04-10T12:13:31.086Z</time>
      </trkpt>
      <trkpt lat="42.16593" lon="21.88837">
        <ele>408.453078</ele>
        <time>2022-04-10T12:13:34.075Z</time>
      </trkpt>
      <trkpt lat="42.1659" lon="21.88823">
        <ele>407.676049</ele>
        <time>2022-04-10T12:13:37.100Z</time>
      </trkpt>
      <trkpt lat="42.16588" lon="21.8881">
        <ele>406.918569</ele>
        <time>2022-04-10T12:13:40.090Z</time>
      </trkpt>
      <trkpt lat="42.1659" lon="21.88795">
        <ele>406.026641</ele>
        <time>2022-04-10T12:13:43.125Z</time>
      </trkpt>
      <trkpt lat="42.16596" lon="21.8878">
        <ele>405.091367</ele>
        <time>2022-04-10T12:13:46.109Z</time>
      </trkpt>
      <trkpt lat="42.16602" lon="21.88767">
        <ele>404.246201</ele>
        <time>2022-04-10T12:13:49.122Z</time>
      </trkpt>
      <trkpt lat="42.16608" lon="21.88753">
        <ele>403.362448</ele>
        <time>2022-04-10T12:13:52.092Z</time>
      </trkpt>
      <trkpt lat="42.16615" lon="21.88739">
        <ele>402.417036</ele>
        <time>2022-04-10T12:13:55.082Z</time>
      </trkpt>
      <trkpt lat="42.16621" lon="21.88725">
        <ele>401.500037</ele>
        <time>2022-04-10T12:13:58.080Z</time>
      </trkpt>
      <trkpt lat="42.16626" lon="21.88711">
        <ele>400.635639</ele>
        <time>2022-04-10T12:14:01.112Z</time>
      </trkpt>
      <trkpt lat="42.16629" lon="21.88699">
        <ele>399.948079</ele>
        <time>2022-04-10T12:14:04.077Z</time>
      </trkpt>
      <trkpt lat="42.16631" lon="21.88687">
        <ele>399.249991</ele>
        <time>2022-04-10T12:14:07.072Z</time>
      </trkpt>
      <trkpt lat="42.16635" lon="21.88672">
        <ele>398.334821</ele>
        <time>2022-04-10T12:14:10.102Z</time>
      </trkpt>
      <trkpt lat="42.16636" lon="21.88656">
        <ele>397.459309</ele>
        <time>2022-04-10T12:14:14.096Z</time>
      </trkpt>
      <trkpt lat="42.16636" lon="21.88641">
        <ele>396.628866</ele>
        <time>2022-04-10T12:14:17.081Z</time>
      </trkpt>
      <trkpt lat="42.16634" lon="21.88624">
        <ele>395.702571</ele>
        <time>2022-04-10T12:14:20.091Z</time>
      </trkpt>
      <trkpt lat="42.16632" lon="21.88611">
        <ele>394.909662</ele>
        <time>2022-04-10T12:14:23.095Z</time>
      </trkpt>
      <trkpt lat="42.16629" lon="21.88597">
        <ele>394.061985</ele>
        <time>2022-04-10T12:14:26.090Z</time>
      </trkpt>
      <trkpt lat="42.16626" lon="21.88583">
        <ele>393.261325</ele>
        <time>2022-04-10T12:14:29.091Z</time>
      </trkpt>
      <trkpt lat="42.16625" lon="21.8857">
        <ele>392.525366</ele>
        <time>2022-04-10T12:14:32.082Z</time>
      </trkpt>
      <trkpt lat="42.16621" lon="21.88556">
        <ele>391.630997</ele>
        <time>2022-04-10T12:14:36.085Z</time>
      </trkpt>
      <trkpt lat="42.16617" lon="21.88545">
        <ele>390.917553</ele>
        <time>2022-04-10T12:14:40.091Z</time>
      </trkpt>
      <trkpt lat="42.16613" lon="21.88533">
        <ele>390.215717</ele>
        <time>2022-04-10T12:14:44.097Z</time>
      </trkpt>
      <trkpt lat="42.16608" lon="21.88522">
        <ele>389.463055</ele>
        <time>2022-04-10T12:14:48.093Z</time>
      </trkpt>
      <trkpt lat="42.16603" lon="21.88511">
        <ele>388.719714</ele>
        <time>2022-04-10T12:14:52.079Z</time>
      </trkpt>
      <trkpt lat="42.16596" lon="21.885">
        <ele>387.88428</ele>
        <time>2022-04-10T12:14:56.135Z</time>
      </trkpt>
      <trkpt lat="42.16588" lon="21.88491">
        <ele>387.121249</ele>
        <time>2022-04-10T12:14:59.093Z</time>
      </trkpt>
      <trkpt lat="42.16578" lon="21.88485">
        <ele>386.275337</ele>
        <time>2022-04-10T12:15:02.088Z</time>
      </trkpt>
      <trkpt lat="42.1657" lon="21.88479">
        <ele>385.538681</ele>
        <time>2022-04-10T12:15:05.122Z</time>
      </trkpt>
      <trkpt lat="42.16561" lon="21.88473">
        <ele>384.807743</ele>
        <time>2022-04-10T12:15:08.357Z</time>
      </trkpt>
      <trkpt lat="42.16548" lon="21.88468">
        <ele>383.757118</ele>
        <time>2022-04-10T12:15:11.070Z</time>
      </trkpt>
      <trkpt lat="42.16538" lon="21.88463">
        <ele>382.913501</ele>
        <time>2022-04-10T12:15:13.098Z</time>
      </trkpt>
      <trkpt lat="42.1653" lon="21.88456">
        <ele>382.14993</ele>
        <time>2022-04-10T12:15:15.088Z</time>
      </trkpt>
      <trkpt lat="42.16521" lon="21.88451">
        <ele>381.471887</ele>
        <time>2022-04-10T12:15:17.090Z</time>
      </trkpt>
      <trkpt lat="42.16512" lon="21.88447">
        <ele>380.801128</ele>
        <time>2022-04-10T12:15:19.103Z</time>
      </trkpt>
      <trkpt lat="42.16499" lon="21.88441">
        <ele>379.888956</ele>
        <time>2022-04-10T12:15:22.104Z</time>
      </trkpt>
      <trkpt lat="42.16489" lon="21.88435">
        <ele>379.079113</ele>
        <time>2022-04-10T12:15:25.091Z</time>
      </trkpt>
      <trkpt lat="42.16479" lon="21.88428">
        <ele>378.320661</ele>
        <time>2022-04-10T12:15:28.088Z</time>
      </trkpt>
      <trkpt lat="42.1647" lon="21.88422">
        <ele>377.652886</ele>
        <time>2022-04-10T12:15:31.096Z</time>
      </trkpt>
      <trkpt lat="42.16461" lon="21.8842">
        <ele>377.001608</ele>
        <time>2022-04-10T12:15:35.124Z</time>
      </trkpt>
      <trkpt lat="42.1645" lon="21.88422">
        <ele>376.244614</ele>
        <time>2022-04-10T12:15:39.087Z</time>
      </trkpt>
      <trkpt lat="42.1644" lon="21.8842">
        <ele>375.526675</ele>
        <time>2022-04-10T12:15:44.097Z</time>
      </trkpt>
      <trkpt lat="42.16431" lon="21.88411">
        <ele>374.777052</ele>
        <time>2022-04-10T12:15:50.086Z</time>
      </trkpt>
      <trkpt lat="42.16422" lon="21.88406">
        <ele>374.088149</ele>
        <time>2022-04-10T12:15:54.080Z</time>
      </trkpt>
      <trkpt lat="42.16412" lon="21.884">
        <ele>373.321121</ele>
        <time>2022-04-10T12:15:58.079Z</time>
      </trkpt>
      <trkpt lat="42.16403" lon="21.88394">
        <ele>372.583584</ele>
        <time>2022-04-10T12:16:03.066Z</time>
      </trkpt>
      <trkpt lat="42.16392" lon="21.8839">
        <ele>371.855731</ele>
        <time>2022-04-10T12:16:08.110Z</time>
      </trkpt>
      <trkpt lat="42.16383" lon="21.88389">
        <ele>371.205336</ele>
        <time>2022-04-10T12:16:12.095Z</time>
      </trkpt>
      <trkpt lat="42.16372" lon="21.8839">
        <ele>370.447116</ele>
        <time>2022-04-10T12:16:17.075Z</time>
      </trkpt>
      <trkpt lat="42.16362" lon="21.88393">
        <ele>369.70887</ele>
        <time>2022-04-10T12:16:22.111Z</time>
      </trkpt>
      <trkpt lat="42.16353" lon="21.88399">
        <ele>369.485441</ele>
        <time>2022-04-10T12:16:26.084Z</time>
      </trkpt>
      <trkpt lat="42.16343" lon="21.88406">
        <ele>369.565765</ele>
        <time>2022-04-10T12:16:31.093Z</time>
      </trkpt>
      <trkpt lat="42.16334" lon="21.88413">
        <ele>369.647106</ele>
        <time>2022-04-10T12:16:37.087Z</time>
      </trkpt>
      <trkpt lat="42.16324" lon="21.88413">
        <ele>369.717868</ele>
        <time>2022-04-10T12:16:42.089Z</time>
      </trkpt>
      <trkpt lat="42.16315" lon="21.88408">
        <ele>369.795515</ele>
        <time>2022-04-10T12:16:48.069Z</time>
      </trkpt>
      <trkpt lat="42.16307" lon="21.88401">
        <ele>369.863568</ele>
        <time>2022-04-10T12:16:55.079Z</time>
      </trkpt>
      <trkpt lat="42.16302" lon="21.88391">
        <ele>369.933656</ele>
        <time>2022-04-10T12:17:02.082Z</time>
      </trkpt>
      <trkpt lat="42.16301" lon="21.88378">
        <ele>370.002964</ele>
        <time>2022-04-10T12:17:08.085Z</time>
      </trkpt>
      <trkpt lat="42.16306" lon="21.8836">
        <ele>370.110475</ele>
        <time>2022-04-10T12:19:09.112Z</time>
      </trkpt>
      <trkpt lat="42.16319" lon="21.88352">
        <ele>370.22144</ele>
        <time>2022-04-10T12:19:26.097Z</time>
      </trkpt>
      <trkpt lat="42.16329" lon="21.88347">
        <ele>370.301192</ele>
        <time>2022-04-10T12:19:32.068Z</time>
      </trkpt>
      <trkpt lat="42.16339" lon="21.88343">
        <ele>370.379532</ele>
        <time>2022-04-10T12:19:37.089Z</time>
      </trkpt>
      <trkpt lat="42.16349" lon="21.88339">
        <ele>370.454427</ele>
        <time>2022-04-10T12:19:42.092Z</time>
      </trkpt>
      <trkpt lat="42.16358" lon="21.88335">
        <ele>370.525762</ele>
        <time>2022-04-10T12:19:47.125Z</time>
      </trkpt>
      <trkpt lat="42.1638" lon="21.8833">
        <ele>370.696451</ele>
        <time>2022-04-10T12:20:58.089Z</time>
      </trkpt>
      <trkpt lat="42.16389" lon="21.88326">
        <ele>370.767978</ele>
        <time>2022-04-10T12:21:03.087Z</time>
      </trkpt>
      <trkpt lat="42.1639" lon="21.88313">
        <ele>371.087788</ele>
        <time>2022-04-10T12:21:08.085Z</time>
      </trkpt>
      <trkpt lat="42.16389" lon="21.88299">
        <ele>371.496219</ele>
        <time>2022-04-10T12:21:15.075Z</time>
      </trkpt>
      <trkpt lat="42.16388" lon="21.88286">
        <ele>371.892118</ele>
        <time>2022-04-10T12:21:24.089Z</time>
      </trkpt>
      <trkpt lat="42.16386" lon="21.88273">
        <ele>372.293672</ele>
        <time>2022-04-10T12:21:33.094Z</time>
      </trkpt>
      <trkpt lat="42.16385" lon="21.88261">
        <ele>372.674078</ele>
        <time>2022-04-10T12:21:41.105Z</time>
      </trkpt>
      <trkpt lat="42.16383" lon="21.88247">
        <ele>373.082113</ele>
        <time>2022-04-10T12:21:50.092Z</time>
      </trkpt>
      <trkpt lat="42.16379" lon="21.88234">
        <ele>373.510853</ele>
        <time>2022-04-10T12:21:57.102Z</time>
      </trkpt>
      <trkpt lat="42.16375" lon="21.88223">
        <ele>373.894045</ele>
        <time>2022-04-10T12:22:02.086Z</time>
      </trkpt>
      <trkpt lat="42.1637" lon="21.8821">
        <ele>374.323208</ele>
        <time>2022-04-10T12:22:07.088Z</time>
      </trkpt>
      <trkpt lat="42.16366" lon="21.88196">
        <ele>374.772221</ele>
        <time>2022-04-10T12:22:12.074Z</time>
      </trkpt>
      <trkpt lat="42.16362" lon="21.88183">
        <ele>375.206981</ele>
        <time>2022-04-10T12:22:17.100Z</time>
      </trkpt>
      <trkpt lat="42.16357" lon="21.8817">
        <ele>375.65097</ele>
        <time>2022-04-10T12:22:22.093Z</time>
      </trkpt>
      <trkpt lat="42.16353" lon="21.88157">
        <ele>376.075778</ele>
        <time>2022-04-10T12:22:26.114Z</time>
      </trkpt>
      <trkpt lat="42.16349" lon="21.88145">
        <ele>376.480764</ele>
        <time>2022-04-10T12:22:30.090Z</time>
      </trkpt>
      <trkpt lat="42.16345" lon="21.88132">
        <ele>376.887794</ele>
        <time>2022-04-10T12:22:34.088Z</time>
      </trkpt>
      <trkpt lat="42.1634" lon="21.88121">
        <ele>377.264346</ele>
        <time>2022-04-10T12:22:38.105Z</time>
      </trkpt>
      <trkpt lat="42.16335" lon="21.8811">
        <ele>377.664803</ele>
        <time>2022-04-10T12:22:42.082Z</time>
      </trkpt>
      <trkpt lat="42.1633" lon="21.88099">
        <ele>378.059946</ele>
        <time>2022-04-10T12:22:46.078Z</time>
      </trkpt>
      <trkpt lat="42.16325" lon="21.88086">
        <ele>378.224002</ele>
        <time>2022-04-10T12:22:50.096Z</time>
      </trkpt>
      <trkpt lat="42.16321" lon="21.88074">
        <ele>378.34302</ele>
        <time>2022-04-10T12:22:54.077Z</time>
      </trkpt>
      <trkpt lat="42.16318" lon="21.88061">
        <ele>378.458237</ele>
        <time>2022-04-10T12:22:58.094Z</time>
      </trkpt>
      <trkpt lat="42.16313" lon="21.88049">
        <ele>378.576211</ele>
        <time>2022-04-10T12:23:02.095Z</time>
      </trkpt>
      <trkpt lat="42.16309" lon="21.88037">
        <ele>378.692646</ele>
        <time>2022-04-10T12:23:06.082Z</time>
      </trkpt>
      <trkpt lat="42.16305" lon="21.88025">
        <ele>378.8043</ele>
        <time>2022-04-10T12:23:10.093Z</time>
      </trkpt>
      <trkpt lat="42.16302" lon="21.88013">
        <ele>378.917923</ele>
        <time>2022-04-10T12:23:14.093Z</time>
      </trkpt>
      <trkpt lat="42.16298" lon="21.88001">
        <ele>379.031791</ele>
        <time>2022-04-10T12:23:18.082Z</time>
      </trkpt>
      <trkpt lat="42.16294" lon="21.87989">
        <ele>379.148046</ele>
        <time>2022-04-10T12:23:22.109Z</time>
      </trkpt>
      <trkpt lat="42.16289" lon="21.87978">
        <ele>379.25433</ele>
        <time>2022-04-10T12:23:26.088Z</time>
      </trkpt>
      <trkpt lat="42.16286" lon="21.87967">
        <ele>379.36088</ele>
        <time>2022-04-10T12:23:30.076Z</time>
      </trkpt>
      <trkpt lat="42.16282" lon="21.87955">
        <ele>379.474097</ele>
        <time>2022-04-10T12:23:34.096Z</time>
      </trkpt>
      <trkpt lat="42.1628" lon="21.87943">
        <ele>379.584218</ele>
        <time>2022-04-10T12:23:38.129Z</time>
      </trkpt>
      <trkpt lat="42.16277" lon="21.87931">
        <ele>379.695407</ele>
        <time>2022-04-10T12:23:42.075Z</time>
      </trkpt>
      <trkpt lat="42.16273" lon="21.87919">
        <ele>379.80613</ele>
        <time>2022-04-10T12:23:46.089Z</time>
      </trkpt>
      <trkpt lat="42.1627" lon="21.87907">
        <ele>379.914467</ele>
        <time>2022-04-10T12:23:50.096Z</time>
      </trkpt>
      <trkpt lat="42.16267" lon="21.87894">
        <ele>380.036453</ele>
        <time>2022-04-10T12:23:54.068Z</time>
      </trkpt>
      <trkpt lat="42.16265" lon="21.8788">
        <ele>380.160829</ele>
        <time>2022-04-10T12:23:58.095Z</time>
      </trkpt>
      <trkpt lat="42.16261" lon="21.87868">
        <ele>380.240533</ele>
        <time>2022-04-10T12:24:02.096Z</time>
      </trkpt>
      <trkpt lat="42.16258" lon="21.87855">
        <ele>380.270902</ele>
        <time>2022-04-10T12:24:06.083Z</time>
      </trkpt>
      <trkpt lat="42.16253" lon="21.87842">
        <ele>380.302584</ele>
        <time>2022-04-10T12:24:10.079Z</time>
      </trkpt>
      <trkpt lat="42.16248" lon="21.8783">
        <ele>380.334517</ele>
        <time>2022-04-10T12:24:14.084Z</time>
      </trkpt>
      <trkpt lat="42.16244" lon="21.87816">
        <ele>380.368058</ele>
        <time>2022-04-10T12:24:18.076Z</time>
      </trkpt>
      <trkpt lat="42.16241" lon="21.878">
        <ele>380.403163</ele>
        <time>2022-04-10T12:24:22.098Z</time>
      </trkpt>
      <trkpt lat="42.16239" lon="21.87785">
        <ele>380.438126</ele>
        <time>2022-04-10T12:24:26.091Z</time>
      </trkpt>
      <trkpt lat="42.16235" lon="21.87771">
        <ele>380.472699</ele>
        <time>2022-04-10T12:24:30.073Z</time>
      </trkpt>
      <trkpt lat="42.1623" lon="21.87757">
        <ele>380.507147</ele>
        <time>2022-04-10T12:24:34.087Z</time>
      </trkpt>
      <trkpt lat="42.16226" lon="21.87744">
        <ele>380.538727</ele>
        <time>2022-04-10T12:24:38.094Z</time>
      </trkpt>
      <trkpt lat="42.16222" lon="21.87732">
        <ele>380.566367</ele>
        <time>2022-04-10T12:24:42.073Z</time>
      </trkpt>
      <trkpt lat="42.16221" lon="21.8772">
        <ele>380.59524</ele>
        <time>2022-04-10T12:24:46.102Z</time>
      </trkpt>
      <trkpt lat="42.16218" lon="21.87705">
        <ele>380.629496</ele>
        <time>2022-04-10T12:24:50.076Z</time>
      </trkpt>
      <trkpt lat="42.16213" lon="21.8769">
        <ele>380.664822</ele>
        <time>2022-04-10T12:24:54.073Z</time>
      </trkpt>
      <trkpt lat="42.1621" lon="21.87679">
        <ele>380.693198</ele>
        <time>2022-04-10T12:24:57.124Z</time>
      </trkpt>
      <trkpt lat="42.16207" lon="21.87666">
        <ele>380.722317</ele>
        <time>2022-04-10T12:25:00.073Z</time>
      </trkpt>
      <trkpt lat="42.16204" lon="21.87654">
        <ele>380.75193</ele>
        <time>2022-04-10T12:25:03.070Z</time>
      </trkpt>
      <trkpt lat="42.16201" lon="21.87641">
        <ele>380.772961</ele>
        <time>2022-04-10T12:25:06.067Z</time>
      </trkpt>
      <trkpt lat="42.16198" lon="21.87628">
        <ele>380.775087</ele>
        <time>2022-04-10T12:25:09.126Z</time>
      </trkpt>
      <trkpt lat="42.16195" lon="21.87616">
        <ele>380.777142</ele>
        <time>2022-04-10T12:25:12.075Z</time>
      </trkpt>
      <trkpt lat="42.16192" lon="21.87604">
        <ele>380.779167</ele>
        <time>2022-04-10T12:25:15.077Z</time>
      </trkpt>
      <trkpt lat="42.16188" lon="21.87593">
        <ele>380.781194</ele>
        <time>2022-04-10T12:25:18.083Z</time>
      </trkpt>
      <trkpt lat="42.16185" lon="21.87581">
        <ele>380.783242</ele>
        <time>2022-04-10T12:25:21.085Z</time>
      </trkpt>
      <trkpt lat="42.16183" lon="21.87569">
        <ele>380.785263</ele>
        <time>2022-04-10T12:25:24.077Z</time>
      </trkpt>
      <trkpt lat="42.1618" lon="21.87556">
        <ele>380.78735</ele>
        <time>2022-04-10T12:25:27.077Z</time>
      </trkpt>
      <trkpt lat="42.16177" lon="21.87544">
        <ele>380.789391</ele>
        <time>2022-04-10T12:25:30.079Z</time>
      </trkpt>
      <trkpt lat="42.16174" lon="21.87532">
        <ele>380.791471</ele>
        <time>2022-04-10T12:25:33.078Z</time>
      </trkpt>
      <trkpt lat="42.1617" lon="21.87517">
        <ele>380.794018</ele>
        <time>2022-04-10T12:25:37.128Z</time>
      </trkpt>
      <trkpt lat="42.16166" lon="21.87503">
        <ele>380.796401</ele>
        <time>2022-04-10T12:25:41.083Z</time>
      </trkpt>
      <trkpt lat="42.16163" lon="21.87488">
        <ele>380.798944</ele>
        <time>2022-04-10T12:25:45.090Z</time>
      </trkpt>
      <trkpt lat="42.1616" lon="21.87476">
        <ele>380.801037</ele>
        <time>2022-04-10T12:25:48.085Z</time>
      </trkpt>
      <trkpt lat="42.16158" lon="21.87462">
        <ele>380.803363</ele>
        <time>2022-04-10T12:25:51.080Z</time>
      </trkpt>
      <trkpt lat="42.16154" lon="21.87449">
        <ele>380.805463</ele>
        <time>2022-04-10T12:25:54.132Z</time>
      </trkpt>
      <trkpt lat="42.16151" lon="21.87436">
        <ele>380.807803</ele>
        <time>2022-04-10T12:25:57.096Z</time>
      </trkpt>
      <trkpt lat="42.16147" lon="21.87422">
        <ele>380.810201</ele>
        <time>2022-04-10T12:26:00.084Z</time>
      </trkpt>
      <trkpt lat="42.16142" lon="21.87408">
        <ele>380.593779</ele>
        <time>2022-04-10T12:26:03.098Z</time>
      </trkpt>
      <trkpt lat="42.16138" lon="21.87394">
        <ele>380.164585</ele>
        <time>2022-04-10T12:26:06.090Z</time>
      </trkpt>
      <trkpt lat="42.16136" lon="21.8738">
        <ele>379.760783</ele>
        <time>2022-04-10T12:26:09.090Z</time>
      </trkpt>
      <trkpt lat="42.16134" lon="21.87367">
        <ele>379.382437</ele>
        <time>2022-04-10T12:26:12.103Z</time>
      </trkpt>
      <trkpt lat="42.16131" lon="21.87354">
        <ele>379.012347</ele>
        <time>2022-04-10T12:26:15.099Z</time>
      </trkpt>
      <trkpt lat="42.16127" lon="21.87342">
        <ele>378.638444</ele>
        <time>2022-04-10T12:26:18.088Z</time>
      </trkpt>
      <trkpt lat="42.16124" lon="21.87329">
        <ele>378.262991</ele>
        <time>2022-04-10T12:26:21.088Z</time>
      </trkpt>
      <trkpt lat="42.16121" lon="21.87315">
        <ele>377.84224</ele>
        <time>2022-04-10T12:26:24.098Z</time>
      </trkpt>
      <trkpt lat="42.16116" lon="21.873">
        <ele>377.386434</ele>
        <time>2022-04-10T12:26:27.128Z</time>
      </trkpt>
      <trkpt lat="42.16113" lon="21.87287">
        <ele>376.986028</ele>
        <time>2022-04-10T12:26:30.090Z</time>
      </trkpt>
      <trkpt lat="42.16111" lon="21.87271">
        <ele>376.549051</ele>
        <time>2022-04-10T12:26:33.104Z</time>
      </trkpt>
      <trkpt lat="42.16108" lon="21.87257">
        <ele>376.128618</ele>
        <time>2022-04-10T12:26:36.102Z</time>
      </trkpt>
      <trkpt lat="42.16105" lon="21.87244">
        <ele>375.74168</ele>
        <time>2022-04-10T12:26:39.085Z</time>
      </trkpt>
      <trkpt lat="42.161" lon="21.87233">
        <ele>375.399475</ele>
        <time>2022-04-10T12:26:42.103Z</time>
      </trkpt>
      <trkpt lat="42.16095" lon="21.87219">
        <ele>374.951566</ele>
        <time>2022-04-10T12:26:46.087Z</time>
      </trkpt>
      <trkpt lat="42.16092" lon="21.87208">
        <ele>374.601022</ele>
        <time>2022-04-10T12:26:49.174Z</time>
      </trkpt>
      <trkpt lat="42.16088" lon="21.87195">
        <ele>374.221141</ele>
        <time>2022-04-10T12:26:53.104Z</time>
      </trkpt>
      <trkpt lat="42.16085" lon="21.87184">
        <ele>373.752369</ele>
        <time>2022-04-10T12:26:57.096Z</time>
      </trkpt>
      <trkpt lat="42.16085" lon="21.8717">
        <ele>372.888123</ele>
        <time>2022-04-10T12:27:02.107Z</time>
      </trkpt>
      <trkpt lat="42.16088" lon="21.87158">
        <ele>372.045237</ele>
        <time>2022-04-10T12:27:05.108Z</time>
      </trkpt>
      <trkpt lat="42.16093" lon="21.87147">
        <ele>371.23747</ele>
        <time>2022-04-10T12:27:08.084Z</time>
      </trkpt>
      <trkpt lat="42.161" lon="21.87139">
        <ele>370.458271</ele>
        <time>2022-04-10T12:27:12.094Z</time>
      </trkpt>
      <trkpt lat="42.16109" lon="21.87133">
        <ele>369.632444</ele>
        <time>2022-04-10T12:27:16.097Z</time>
      </trkpt>
      <trkpt lat="42.16119" lon="21.87127">
        <ele>368.701086</ele>
        <time>2022-04-10T12:27:20.096Z</time>
      </trkpt>
      <trkpt lat="42.16129" lon="21.87124">
        <ele>367.861358</ele>
        <time>2022-04-10T12:27:23.066Z</time>
      </trkpt>
      <trkpt lat="42.16138" lon="21.87121">
        <ele>367.031067</ele>
        <time>2022-04-10T12:27:27.108Z</time>
      </trkpt>
      <trkpt lat="42.16149" lon="21.87118">
        <ele>366.125827</ele>
        <time>2022-04-10T12:27:31.083Z</time>
      </trkpt>
      <trkpt lat="42.16158" lon="21.87115">
        <ele>365.318867</ele>
        <time>2022-04-10T12:27:36.088Z</time>
      </trkpt>
      <trkpt lat="42.16168" lon="21.87108">
        <ele>364.372248</ele>
        <time>2022-04-10T12:27:40.094Z</time>
      </trkpt>
      <trkpt lat="42.16177" lon="21.87098">
        <ele>363.341611</ele>
        <time>2022-04-10T12:27:44.083Z</time>
      </trkpt>
      <trkpt lat="42.16186" lon="21.87091">
        <ele>362.487507</ele>
        <time>2022-04-10T12:27:47.101Z</time>
      </trkpt>
      <trkpt lat="42.16195" lon="21.87084">
        <ele>361.618942</ele>
        <time>2022-04-10T12:27:50.094Z</time>
      </trkpt>
      <trkpt lat="42.16203" lon="21.87077">
        <ele>360.793493</ele>
        <time>2022-04-10T12:27:53.094Z</time>
      </trkpt>
      <trkpt lat="42.1621" lon="21.87069">
        <ele>359.97027</ele>
        <time>2022-04-10T12:27:56.080Z</time>
      </trkpt>
      <trkpt lat="42.16218" lon="21.87059">
        <ele>359.037868</ele>
        <time>2022-04-10T12:27:59.094Z</time>
      </trkpt>
      <trkpt lat="42.16227" lon="21.87049">
        <ele>358.429673</ele>
        <time>2022-04-10T12:28:02.094Z</time>
      </trkpt>
      <trkpt lat="42.16236" lon="21.8704">
        <ele>358.063529</ele>
        <time>2022-04-10T12:28:05.105Z</time>
      </trkpt>
      <trkpt lat="42.16244" lon="21.87028">
        <ele>357.656142</ele>
        <time>2022-04-10T12:28:08.108Z</time>
      </trkpt>
      <trkpt lat="42.1625" lon="21.87015">
        <ele>357.263859</ele>
        <time>2022-04-10T12:28:11.084Z</time>
      </trkpt>
      <trkpt lat="42.16255" lon="21.87003">
        <ele>356.91515</ele>
        <time>2022-04-10T12:28:14.098Z</time>
      </trkpt>
      <trkpt lat="42.16256" lon="21.86986">
        <ele>356.503691</ele>
        <time>2022-04-10T12:28:18.101Z</time>
      </trkpt>
      <trkpt lat="42.16257" lon="21.86973">
        <ele>356.183347</ele>
        <time>2022-04-10T12:28:20.083Z</time>
      </trkpt>
      <trkpt lat="42.16259" lon="21.86961">
        <ele>355.876808</ele>
        <time>2022-04-10T12:28:22.096Z</time>
      </trkpt>
      <trkpt lat="42.1626" lon="21.86948">
        <ele>355.550235</ele>
        <time>2022-04-10T12:28:25.098Z</time>
      </trkpt>
      <trkpt lat="42.16261" lon="21.86932">
        <ele>355.138459</ele>
        <time>2022-04-10T12:28:29.112Z</time>
      </trkpt>
      <trkpt lat="42.16261" lon="21.86917">
        <ele>354.773403</ele>
        <time>2022-04-10T12:28:32.096Z</time>
      </trkpt>
      <trkpt lat="42.16259" lon="21.86903">
        <ele>354.401392</ele>
        <time>2022-04-10T12:28:35.102Z</time>
      </trkpt>
      <trkpt lat="42.16259" lon="21.86888">
        <ele>354.038081</ele>
        <time>2022-04-10T12:28:38.112Z</time>
      </trkpt>
      <trkpt lat="42.16258" lon="21.86874">
        <ele>353.696593</ele>
        <time>2022-04-10T12:28:41.075Z</time>
      </trkpt>
      <trkpt lat="42.16258" lon="21.86862">
        <ele>353.374245</ele>
        <time>2022-04-10T12:28:44.081Z</time>
      </trkpt>
      <trkpt lat="42.16259" lon="21.86848">
        <ele>353.030584</ele>
        <time>2022-04-10T12:28:47.096Z</time>
      </trkpt>
      <trkpt lat="42.16258" lon="21.86833">
        <ele>352.656757</ele>
        <time>2022-04-10T12:28:50.126Z</time>
      </trkpt>
      <trkpt lat="42.16258" lon="21.86819">
        <ele>352.70239</ele>
        <time>2022-04-10T12:28:53.085Z</time>
      </trkpt>
      <trkpt lat="42.16257" lon="21.86803">
        <ele>352.836403</ele>
        <time>2022-04-10T12:28:57.084Z</time>
      </trkpt>
      <trkpt lat="42.16256" lon="21.86788">
        <ele>352.961404</ele>
        <time>2022-04-10T12:29:01.084Z</time>
      </trkpt>
      <trkpt lat="42.16256" lon="21.86772">
        <ele>353.093672</ele>
        <time>2022-04-10T12:29:05.088Z</time>
      </trkpt>
      <trkpt lat="42.16255" lon="21.86755">
        <ele>353.237588</ele>
        <time>2022-04-10T12:29:08.078Z</time>
      </trkpt>
      <trkpt lat="42.16255" lon="21.86742">
        <ele>353.342664</ele>
        <time>2022-04-10T12:29:10.085Z</time>
      </trkpt>
      <trkpt lat="42.16254" lon="21.86725">
        <ele>353.483402</ele>
        <time>2022-04-10T12:29:13.086Z</time>
      </trkpt>
      <trkpt lat="42.16253" lon="21.8671">
        <ele>353.607231</ele>
        <time>2022-04-10T12:29:16.084Z</time>
      </trkpt>
      <trkpt lat="42.16252" lon="21.86695">
        <ele>353.733215</ele>
        <time>2022-04-10T12:29:19.103Z</time>
      </trkpt>
      <trkpt lat="42.16251" lon="21.8668">
        <ele>353.853434</ele>
        <time>2022-04-10T12:29:22.087Z</time>
      </trkpt>
      <trkpt lat="42.1625" lon="21.86665">
        <ele>353.980672</ele>
        <time>2022-04-10T12:29:25.098Z</time>
      </trkpt>
      <trkpt lat="42.16248" lon="21.86651">
        <ele>354.100665</ele>
        <time>2022-04-10T12:29:28.101Z</time>
      </trkpt>
      <trkpt lat="42.16249" lon="21.86637">
        <ele>354.214818</ele>
        <time>2022-04-10T12:29:31.094Z</time>
      </trkpt>
      <trkpt lat="42.16249" lon="21.86622">
        <ele>354.338749</ele>
        <time>2022-04-10T12:29:34.089Z</time>
      </trkpt>
      <trkpt lat="42.16249" lon="21.86607">
        <ele>354.461874</ele>
        <time>2022-04-10T12:29:37.101Z</time>
      </trkpt>
      <trkpt lat="42.16249" lon="21.86592">
        <ele>354.5825</ele>
        <time>2022-04-10T12:29:40.085Z</time>
      </trkpt>
      <trkpt lat="42.16249" lon="21.86577">
        <ele>354.670888</ele>
        <time>2022-04-10T12:29:43.099Z</time>
      </trkpt>
      <trkpt lat="42.16248" lon="21.86563">
        <ele>354.743473</ele>
        <time>2022-04-10T12:29:46.142Z</time>
      </trkpt>
      <trkpt lat="42.16248" lon="21.86548">
        <ele>354.82015</ele>
        <time>2022-04-10T12:29:49.088Z</time>
      </trkpt>
      <trkpt lat="42.16248" lon="21.86533">
        <ele>354.899911</ele>
        <time>2022-04-10T12:29:52.101Z</time>
      </trkpt>
      <trkpt lat="42.16247" lon="21.86519">
        <ele>354.972526</ele>
        <time>2022-04-10T12:29:55.081Z</time>
      </trkpt>
      <trkpt lat="42.16246" lon="21.86505">
        <ele>355.044758</ele>
        <time>2022-04-10T12:29:58.093Z</time>
      </trkpt>
      <trkpt lat="42.16246" lon="21.86492">
        <ele>355.112236</ele>
        <time>2022-04-10T12:30:01.088Z</time>
      </trkpt>
      <trkpt lat="42.16246" lon="21.86479">
        <ele>355.178599</ele>
        <time>2022-04-10T12:30:04.096Z</time>
      </trkpt>
      <trkpt lat="42.16245" lon="21.86466">
        <ele>355.244062</ele>
        <time>2022-04-10T12:30:07.094Z</time>
      </trkpt>
      <trkpt lat="42.16246" lon="21.86453">
        <ele>355.309485</ele>
        <time>2022-04-10T12:30:10.087Z</time>
      </trkpt>
      <trkpt lat="42.16246" lon="21.86438">
        <ele>355.387873</ele>
        <time>2022-04-10T12:30:14.105Z</time>
      </trkpt>
      <trkpt lat="42.16245" lon="21.86425">
        <ele>355.457665</ele>
        <time>2022-04-10T12:30:18.078Z</time>
      </trkpt>
      <trkpt lat="42.16246" lon="21.86409">
        <ele>355.536618</ele>
        <time>2022-04-10T12:30:22.094Z</time>
      </trkpt>
      <trkpt lat="42.16246" lon="21.86394">
        <ele>355.614812</ele>
        <time>2022-04-10T12:30:26.091Z</time>
      </trkpt>
      <trkpt lat="42.16246" lon="21.86379">
        <ele>355.691614</ele>
        <time>2022-04-10T12:30:30.084Z</time>
      </trkpt>
      <trkpt lat="42.16245" lon="21.86365">
        <ele>355.765205</ele>
        <time>2022-04-10T12:30:34.131Z</time>
      </trkpt>
      <trkpt lat="42.16246" lon="21.86352">
        <ele>355.831695</ele>
        <time>2022-04-10T12:30:38.087Z</time>
      </trkpt>
      <trkpt lat="42.16246" lon="21.86337">
        <ele>356.079986</ele>
        <time>2022-04-10T12:30:42.126Z</time>
      </trkpt>
      <trkpt lat="42.16247" lon="21.86322">
        <ele>356.401173</ele>
        <time>2022-04-10T12:30:46.142Z</time>
      </trkpt>
      <trkpt lat="42.16248" lon="21.86308">
        <ele>356.714799</ele>
        <time>2022-04-10T12:30:50.088Z</time>
      </trkpt>
      <trkpt lat="42.16248" lon="21.86296">
        <ele>356.998382</ele>
        <time>2022-04-10T12:30:54.104Z</time>
      </trkpt>
      <trkpt lat="42.16249" lon="21.86282">
        <ele>357.299691</ele>
        <time>2022-04-10T12:30:58.096Z</time>
      </trkpt>
      <trkpt lat="42.16248" lon="21.86269">
        <ele>357.592074</ele>
        <time>2022-04-10T12:31:02.089Z</time>
      </trkpt>
      <trkpt lat="42.16248" lon="21.86256">
        <ele>357.886734</ele>
        <time>2022-04-10T12:31:06.078Z</time>
      </trkpt>
      <trkpt lat="42.16248" lon="21.86242">
        <ele>358.188569</ele>
        <time>2022-04-10T12:31:10.109Z</time>
      </trkpt>
      <trkpt lat="42.16247" lon="21.8623">
        <ele>358.472791</ele>
        <time>2022-04-10T12:31:14.081Z</time>
      </trkpt>
      <trkpt lat="42.16248" lon="21.86216">
        <ele>358.777271</ele>
        <time>2022-04-10T12:31:19.097Z</time>
      </trkpt>
      <trkpt lat="42.16249" lon="21.86201">
        <ele>359.122562</ele>
        <time>2022-04-10T12:31:24.089Z</time>
      </trkpt>
      <trkpt lat="42.1625" lon="21.86188">
        <ele>359.419016</ele>
        <time>2022-04-10T12:31:28.090Z</time>
      </trkpt>
      <trkpt lat="42.1625" lon="21.86174">
        <ele>359.713676</ele>
        <time>2022-04-10T12:31:32.120Z</time>
      </trkpt>
      <trkpt lat="42.1625" lon="21.86162">
        <ele>359.9949</ele>
        <time>2022-04-10T12:31:36.087Z</time>
      </trkpt>
      <trkpt lat="42.1625" lon="21.86148">
        <ele>360.291731</ele>
        <time>2022-04-10T12:31:40.122Z</time>
      </trkpt>
      <trkpt lat="42.16251" lon="21.86135">
        <ele>360.584237</ele>
        <time>2022-04-10T12:31:44.097Z</time>
      </trkpt>
      <trkpt lat="42.16251" lon="21.86122">
        <ele>360.878897</ele>
        <time>2022-04-10T12:31:48.082Z</time>
      </trkpt>
      <trkpt lat="42.16252" lon="21.86108">
        <ele>361.196727</ele>
        <time>2022-04-10T12:31:52.097Z</time>
      </trkpt>
      <trkpt lat="42.16253" lon="21.86093">
        <ele>361.471418</ele>
        <time>2022-04-10T12:31:57.105Z</time>
      </trkpt>
      <trkpt lat="42.16254" lon="21.86079">
        <ele>361.703991</ele>
        <time>2022-04-10T12:32:02.114Z</time>
      </trkpt>
      <trkpt lat="42.16257" lon="21.86067">
        <ele>361.927768</ele>
        <time>2022-04-10T12:32:07.076Z</time>
      </trkpt>
      <trkpt lat="42.16258" lon="21.86053">
        <ele>362.164658</ele>
        <time>2022-04-10T12:32:13.096Z</time>
      </trkpt>
      <trkpt lat="42.1626" lon="21.8604">
        <ele>362.393486</ele>
        <time>2022-04-10T12:32:19.097Z</time>
      </trkpt>
      <trkpt lat="42.16263" lon="21.86028">
        <ele>362.601309</ele>
        <time>2022-04-10T12:32:24.094Z</time>
      </trkpt>
      <trkpt lat="42.16265" lon="21.86016">
        <ele>362.816289</ele>
        <time>2022-04-10T12:32:29.076Z</time>
      </trkpt>
      <trkpt lat="42.16268" lon="21.86002">
        <ele>363.061986</ele>
        <time>2022-04-10T12:32:34.091Z</time>
      </trkpt>
      <trkpt lat="42.16271" lon="21.8599">
        <ele>363.273129</ele>
        <time>2022-04-10T12:32:38.141Z</time>
      </trkpt>
      <trkpt lat="42.16273" lon="21.85978">
        <ele>363.490227</ele>
        <time>2022-04-10T12:32:42.109Z</time>
      </trkpt>
      <trkpt lat="42.16275" lon="21.85965">
        <ele>363.706074</ele>
        <time>2022-04-10T12:32:46.091Z</time>
      </trkpt>
      <trkpt lat="42.16277" lon="21.8595">
        <ele>363.96223</ele>
        <time>2022-04-10T12:32:51.088Z</time>
      </trkpt>
      <trkpt lat="42.1628" lon="21.85938">
        <ele>364.184275</ele>
        <time>2022-04-10T12:32:55.127Z</time>
      </trkpt>
      <trkpt lat="42.16282" lon="21.85925">
        <ele>364.410304</ele>
        <time>2022-04-10T12:32:59.116Z</time>
      </trkpt>
      <trkpt lat="42.16285" lon="21.85912">
        <ele>364.641751</ele>
        <time>2022-04-10T12:33:03.087Z</time>
      </trkpt>
      <trkpt lat="42.16287" lon="21.85899">
        <ele>364.858944</ele>
        <time>2022-04-10T12:33:07.094Z</time>
      </trkpt>
      <trkpt lat="42.16289" lon="21.85887">
        <ele>365.071283</ele>
        <time>2022-04-10T12:33:11.079Z</time>
      </trkpt>
      <trkpt lat="42.16292" lon="21.85875">
        <ele>365.289818</ele>
        <time>2022-04-10T12:33:15.106Z</time>
      </trkpt>
      <trkpt lat="42.16294" lon="21.85863">
        <ele>365.394067</ele>
        <time>2022-04-10T12:33:19.093Z</time>
      </trkpt>
      <trkpt lat="42.16296" lon="21.85849">
        <ele>365.387486</ele>
        <time>2022-04-10T12:33:23.106Z</time>
      </trkpt>
      <trkpt lat="42.16299" lon="21.85837">
        <ele>365.381231</ele>
        <time>2022-04-10T12:33:27.094Z</time>
      </trkpt>
      <trkpt lat="42.16302" lon="21.85823">
        <ele>365.374171</ele>
        <time>2022-04-10T12:33:31.078Z</time>
      </trkpt>
      <trkpt lat="42.16304" lon="21.8581">
        <ele>365.367349</ele>
        <time>2022-04-10T12:33:35.105Z</time>
      </trkpt>
      <trkpt lat="42.16307" lon="21.85797">
        <ele>365.360877</ele>
        <time>2022-04-10T12:33:39.120Z</time>
      </trkpt>
      <trkpt lat="42.1631" lon="21.85781">
        <ele>365.352789</ele>
        <time>2022-04-10T12:33:43.091Z</time>
      </trkpt>
      <trkpt lat="42.16313" lon="21.85767">
        <ele>365.345935</ele>
        <time>2022-04-10T12:33:46.094Z</time>
      </trkpt>
      <trkpt lat="42.16316" lon="21.85754">
        <ele>365.339352</ele>
        <time>2022-04-10T12:33:49.097Z</time>
      </trkpt>
      <trkpt lat="42.16319" lon="21.8574">
        <ele>365.332095</ele>
        <time>2022-04-10T12:33:53.085Z</time>
      </trkpt>
      <trkpt lat="42.16322" lon="21.85727">
        <ele>365.325687</ele>
        <time>2022-04-10T12:33:57.089Z</time>
      </trkpt>
      <trkpt lat="42.16325" lon="21.85712">
        <ele>365.318019</ele>
        <time>2022-04-10T12:34:01.135Z</time>
      </trkpt>
      <trkpt lat="42.16328" lon="21.85698">
        <ele>365.310759</ele>
        <time>2022-04-10T12:34:05.085Z</time>
      </trkpt>
      <trkpt lat="42.1633" lon="21.85685">
        <ele>365.304242</ele>
        <time>2022-04-10T12:34:09.091Z</time>
      </trkpt>
      <trkpt lat="42.16333" lon="21.85672">
        <ele>365.297547</ele>
        <time>2022-04-10T12:34:13.108Z</time>
      </trkpt>
      <trkpt lat="42.16335" lon="21.8566">
        <ele>365.291468</ele>
        <time>2022-04-10T12:34:16.095Z</time>
      </trkpt>
      <trkpt lat="42.16338" lon="21.85648">
        <ele>365.285424</ele>
        <time>2022-04-10T12:34:19.095Z</time>
      </trkpt>
      <trkpt lat="42.16341" lon="21.85633">
        <ele>365.304725</ele>
        <time>2022-04-10T12:34:23.132Z</time>
      </trkpt>
      <trkpt lat="42.16343" lon="21.8562">
        <ele>365.514061</ele>
        <time>2022-04-10T12:34:27.080Z</time>
      </trkpt>
      <trkpt lat="42.16346" lon="21.85607">
        <ele>365.731098</ele>
        <time>2022-04-10T12:34:31.091Z</time>
      </trkpt>
      <trkpt lat="42.16349" lon="21.85594">
        <ele>365.942365</ele>
        <time>2022-04-10T12:34:34.096Z</time>
      </trkpt>
      <trkpt lat="42.16352" lon="21.85582">
        <ele>366.143089</ele>
        <time>2022-04-10T12:34:37.092Z</time>
      </trkpt>
      <trkpt lat="42.16355" lon="21.85568">
        <ele>366.386532</ele>
        <time>2022-04-10T12:34:41.086Z</time>
      </trkpt>
      <trkpt lat="42.16358" lon="21.85552">
        <ele>366.634311</ele>
        <time>2022-04-10T12:34:45.091Z</time>
      </trkpt>
      <trkpt lat="42.1636" lon="21.85539">
        <ele>366.846146</ele>
        <time>2022-04-10T12:34:49.078Z</time>
      </trkpt>
      <trkpt lat="42.16363" lon="21.85527">
        <ele>367.055413</ele>
        <time>2022-04-10T12:34:53.102Z</time>
      </trkpt>
      <trkpt lat="42.16365" lon="21.85512">
        <ele>367.290895</ele>
        <time>2022-04-10T12:34:57.087Z</time>
      </trkpt>
      <trkpt lat="42.16367" lon="21.85499">
        <ele>367.505335</ele>
        <time>2022-04-10T12:35:01.094Z</time>
      </trkpt>
      <trkpt lat="42.16369" lon="21.85485">
        <ele>367.736817</ele>
        <time>2022-04-10T12:35:06.099Z</time>
      </trkpt>
      <trkpt lat="42.16371" lon="21.85471">
        <ele>367.961657</ele>
        <time>2022-04-10T12:35:11.086Z</time>
      </trkpt>
      <trkpt lat="42.16374" lon="21.85459">
        <ele>368.162277</ele>
        <time>2022-04-10T12:35:15.093Z</time>
      </trkpt>
      <trkpt lat="42.16376" lon="21.85444">
        <ele>368.394203</ele>
        <time>2022-04-10T12:35:20.132Z</time>
      </trkpt>
      <trkpt lat="42.16378" lon="21.85431">
        <ele>368.602462</ele>
        <time>2022-04-10T12:35:25.099Z</time>
      </trkpt>
      <trkpt lat="42.16381" lon="21.85418">
        <ele>368.823538</ele>
        <time>2022-04-10T12:35:30.099Z</time>
      </trkpt>
      <trkpt lat="42.16384" lon="21.85404">
        <ele>369.05035</ele>
        <time>2022-04-10T12:35:35.098Z</time>
      </trkpt>
      <trkpt lat="42.16387" lon="21.85392">
        <ele>369.321804</ele>
        <time>2022-04-10T12:35:40.100Z</time>
      </trkpt>
      <trkpt lat="42.16389" lon="21.85378">
        <ele>369.642878</ele>
        <time>2022-04-10T12:35:45.107Z</time>
      </trkpt>
      <trkpt lat="42.16392" lon="21.85366">
        <ele>369.929376</ele>
        <time>2022-04-10T12:35:49.087Z</time>
      </trkpt>
      <trkpt lat="42.16394" lon="21.85353">
        <ele>370.241484</ele>
        <time>2022-04-10T12:35:54.095Z</time>
      </trkpt>
      <trkpt lat="42.16396" lon="21.8534">
        <ele>370.568632</ele>
        <time>2022-04-10T12:35:59.135Z</time>
      </trkpt>
      <trkpt lat="42.16399" lon="21.85326">
        <ele>370.898845</ele>
        <time>2022-04-10T12:36:04.087Z</time>
      </trkpt>
      <trkpt lat="42.16403" lon="21.85314">
        <ele>371.198487</ele>
        <time>2022-04-10T12:36:09.101Z</time>
      </trkpt>
      <trkpt lat="42.16407" lon="21.85301">
        <ele>371.53083</ele>
        <time>2022-04-10T12:36:14.121Z</time>
      </trkpt>
      <trkpt lat="42.16408" lon="21.85288">
        <ele>371.833556</ele>
        <time>2022-04-10T12:36:19.138Z</time>
      </trkpt>
      <trkpt lat="42.16411" lon="21.85275">
        <ele>372.138882</ele>
        <time>2022-04-10T12:36:23.086Z</time>
      </trkpt>
      <trkpt lat="42.16413" lon="21.85262">
        <ele>372.450951</ele>
        <time>2022-04-10T12:36:27.083Z</time>
      </trkpt>
      <trkpt lat="42.16416" lon="21.8525">
        <ele>372.741973</ele>
        <time>2022-04-10T12:36:31.077Z</time>
      </trkpt>
      <trkpt lat="42.16418" lon="21.85236">
        <ele>373.075078</ele>
        <time>2022-04-10T12:36:36.091Z</time>
      </trkpt>
      <trkpt lat="42.16421" lon="21.85223">
        <ele>373.387948</ele>
        <time>2022-04-10T12:36:41.088Z</time>
      </trkpt>
      <trkpt lat="42.16423" lon="21.85211">
        <ele>373.684957</ele>
        <time>2022-04-10T12:36:46.071Z</time>
      </trkpt>
      <trkpt lat="42.16424" lon="21.85198">
        <ele>373.968618</ele>
        <time>2022-04-10T12:36:51.097Z</time>
      </trkpt>
      <trkpt lat="42.16427" lon="21.85186">
        <ele>374.266689</ele>
        <time>2022-04-10T12:36:56.102Z</time>
      </trkpt>
      <trkpt lat="42.16429" lon="21.85172">
        <ele>374.593084</ele>
        <time>2022-04-10T12:37:02.085Z</time>
      </trkpt>
      <trkpt lat="42.16432" lon="21.8516">
        <ele>375.127274</ele>
        <time>2022-04-10T12:37:08.091Z</time>
      </trkpt>
      <trkpt lat="42.16435" lon="21.85148">
        <ele>376.038143</ele>
        <time>2022-04-10T12:37:15.103Z</time>
      </trkpt>
      <trkpt lat="42.16437" lon="21.85135">
        <ele>376.952295</ele>
        <time>2022-04-10T12:37:22.083Z</time>
      </trkpt>
      <trkpt lat="42.16439" lon="21.85122">
        <ele>377.891451</ele>
        <time>2022-04-10T12:37:30.095Z</time>
      </trkpt>
      <trkpt lat="42.16442" lon="21.85109">
        <ele>378.837613</ele>
        <time>2022-04-10T12:37:38.100Z</time>
      </trkpt>
      <trkpt lat="42.16444" lon="21.85097">
        <ele>379.704819</ele>
        <time>2022-04-10T12:37:45.114Z</time>
      </trkpt>
      <trkpt lat="42.16446" lon="21.85085">
        <ele>380.61231</ele>
        <time>2022-04-10T12:37:52.140Z</time>
      </trkpt>
      <trkpt lat="42.16449" lon="21.85072">
        <ele>381.575762</ele>
        <time>2022-04-10T12:38:00.118Z</time>
      </trkpt>
      <trkpt lat="42.16452" lon="21.85059">
        <ele>382.54498</ele>
        <time>2022-04-10T12:38:08.112Z</time>
      </trkpt>
      <trkpt lat="42.16455" lon="21.85045">
        <ele>383.500423</ele>
        <time>2022-04-10T12:38:16.098Z</time>
      </trkpt>
      <trkpt lat="42.16457" lon="21.85032">
        <ele>384.444272</ele>
        <time>2022-04-10T12:38:24.106Z</time>
      </trkpt>
      <trkpt lat="42.16459" lon="21.85019">
        <ele>385.37234</ele>
        <time>2022-04-10T12:38:32.155Z</time>
      </trkpt>
      <trkpt lat="42.16462" lon="21.85007">
        <ele>386.282232</ele>
        <time>2022-04-10T12:38:40.101Z</time>
      </trkpt>
      <trkpt lat="42.16465" lon="21.84995">
        <ele>387.209316</ele>
        <time>2022-04-10T12:38:48.101Z</time>
      </trkpt>
      <trkpt lat="42.16468" lon="21.84983">
        <ele>388.066562</ele>
        <time>2022-04-10T12:38:55.129Z</time>
      </trkpt>
      <trkpt lat="42.1647" lon="21.8497">
        <ele>389.012549</ele>
        <time>2022-04-10T12:39:03.087Z</time>
      </trkpt>
      <trkpt lat="42.1647" lon="21.84957">
        <ele>389.93326</ele>
        <time>2022-04-10T12:39:12.135Z</time>
      </trkpt>
      <trkpt lat="42.16471" lon="21.84944">
        <ele>390.864694</ele>
        <time>2022-04-10T12:39:21.100Z</time>
      </trkpt>
      <trkpt lat="42.16474" lon="21.8493">
        <ele>391.82509</ele>
        <time>2022-04-10T12:39:30.097Z</time>
      </trkpt>
      <trkpt lat="42.16475" lon="21.84918">
        <ele>392.760254</ele>
        <time>2022-04-10T12:39:37.096Z</time>
      </trkpt>
      <trkpt lat="42.16477" lon="21.84906">
        <ele>393.729993</ele>
        <time>2022-04-10T12:39:45.098Z</time>
      </trkpt>
      <trkpt lat="42.1648" lon="21.84893">
        <ele>394.716792</ele>
        <time>2022-04-10T12:39:54.096Z</time>
      </trkpt>
      <trkpt lat="42.16483" lon="21.8488">
        <ele>395.741512</ele>
        <time>2022-04-10T12:40:03.106Z</time>
      </trkpt>
      <trkpt lat="42.16485" lon="21.84867">
        <ele>396.711249</ele>
        <time>2022-04-10T12:40:11.099Z</time>
      </trkpt>
      <trkpt lat="42.16487" lon="21.84854">
        <ele>397.756765</ele>
        <time>2022-04-10T12:40:19.088Z</time>
      </trkpt>
      <trkpt lat="42.16489" lon="21.84841">
        <ele>398.788502</ele>
        <time>2022-04-10T12:40:27.095Z</time>
      </trkpt>
      <trkpt lat="42.16491" lon="21.84827">
        <ele>399.801562</ele>
        <time>2022-04-10T12:40:36.095Z</time>
      </trkpt>
      <trkpt lat="42.16494" lon="21.84815">
        <ele>400.80303</ele>
        <time>2022-04-10T12:40:44.095Z</time>
      </trkpt>
      <trkpt lat="42.16498" lon="21.84802">
        <ele>401.818365</ele>
        <time>2022-04-10T12:40:52.099Z</time>
      </trkpt>
      <trkpt lat="42.165" lon="21.84789">
        <ele>402.841989</ele>
        <time>2022-04-10T12:41:00.087Z</time>
      </trkpt>
      <trkpt lat="42.16503" lon="21.84777">
        <ele>403.760398</ele>
        <time>2022-04-10T12:41:08.134Z</time>
      </trkpt>
      <trkpt lat="42.16505" lon="21.84764">
        <ele>404.779426</ele>
        <time>2022-04-10T12:41:16.097Z</time>
      </trkpt>
      <trkpt lat="42.16506" lon="21.84752">
        <ele>405.693393</ele>
        <time>2022-04-10T12:41:23.100Z</time>
      </trkpt>
      <trkpt lat="42.16509" lon="21.8474">
        <ele>406.652589</ele>
        <time>2022-04-10T12:41:30.096Z</time>
      </trkpt>
      <trkpt lat="42.16511" lon="21.84727">
        <ele>407.671616</ele>
        <time>2022-04-10T12:41:38.098Z</time>
      </trkpt>
      <trkpt lat="42.16515" lon="21.84716">
        <ele>408.613875</ele>
        <time>2022-04-10T12:41:47.103Z</time>
      </trkpt>
      <trkpt lat="42.16517" lon="21.84703">
        <ele>409.61564</ele>
        <time>2022-04-10T12:41:55.098Z</time>
      </trkpt>
      <trkpt lat="42.16521" lon="21.8469">
        <ele>410.138227</ele>
        <time>2022-04-10T12:42:03.099Z</time>
      </trkpt>
      <trkpt lat="42.16524" lon="21.84678">
        <ele>410.153166</ele>
        <time>2022-04-10T12:42:11.100Z</time>
      </trkpt>
      <trkpt lat="42.16525" lon="21.84665">
        <ele>410.168282</ele>
        <time>2022-04-10T12:42:18.086Z</time>
      </trkpt>
      <trkpt lat="42.16528" lon="21.84653">
        <ele>410.182827</ele>
        <time>2022-04-10T12:42:25.102Z</time>
      </trkpt>
      <trkpt lat="42.1653" lon="21.84641">
        <ele>410.196922</ele>
        <time>2022-04-10T12:42:31.095Z</time>
      </trkpt>
      <trkpt lat="42.16531" lon="21.84627">
        <ele>410.213048</ele>
        <time>2022-04-10T12:42:37.119Z</time>
      </trkpt>
      <trkpt lat="42.16534" lon="21.84613">
        <ele>410.229558</ele>
        <time>2022-04-10T12:42:42.095Z</time>
      </trkpt>
      <trkpt lat="42.16537" lon="21.84599">
        <ele>410.246829</ele>
        <time>2022-04-10T12:42:47.115Z</time>
      </trkpt>
      <trkpt lat="42.16539" lon="21.84586">
        <ele>410.261887</ele>
        <time>2022-04-10T12:42:51.103Z</time>
      </trkpt>
      <trkpt lat="42.16541" lon="21.84573">
        <ele>410.277336</ele>
        <time>2022-04-10T12:42:55.121Z</time>
      </trkpt>
      <trkpt lat="42.16544" lon="21.84559">
        <ele>410.293969</ele>
        <time>2022-04-10T12:42:59.108Z</time>
      </trkpt>
      <trkpt lat="42.16547" lon="21.84546">
        <ele>410.309897</ele>
        <time>2022-04-10T12:43:03.095Z</time>
      </trkpt>
      <trkpt lat="42.1655" lon="21.84532">
        <ele>410.326219</ele>
        <time>2022-04-10T12:43:08.099Z</time>
      </trkpt>
      <trkpt lat="42.16552" lon="21.84519">
        <ele>410.340832</ele>
        <time>2022-04-10T12:43:14.100Z</time>
      </trkpt>
      <trkpt lat="42.16554" lon="21.84505">
        <ele>410.357788</ele>
        <time>2022-04-10T12:43:19.098Z</time>
      </trkpt>
      <trkpt lat="42.16557" lon="21.84492">
        <ele>410.373431</ele>
        <time>2022-04-10T12:43:23.125Z</time>
      </trkpt>
      <trkpt lat="42.16559" lon="21.84478">
        <ele>410.390088</ele>
        <time>2022-04-10T12:43:27.089Z</time>
      </trkpt>
      <trkpt lat="42.16563" lon="21.84463">
        <ele>410.407451</ele>
        <time>2022-04-10T12:43:31.097Z</time>
      </trkpt>
      <trkpt lat="42.16565" lon="21.8445">
        <ele>410.513806</ele>
        <time>2022-04-10T12:43:35.196Z</time>
      </trkpt>
      <trkpt lat="42.16568" lon="21.84436">
        <ele>410.635732</ele>
        <time>2022-04-10T12:43:39.090Z</time>
      </trkpt>
      <trkpt lat="42.16571" lon="21.84423">
        <ele>410.753135</ele>
        <time>2022-04-10T12:43:43.088Z</time>
      </trkpt>
      <trkpt lat="42.16573" lon="21.84409">
        <ele>410.877779</ele>
        <time>2022-04-10T12:43:47.116Z</time>
      </trkpt>
      <trkpt lat="42.16575" lon="21.84394">
        <ele>411.011179</ele>
        <time>2022-04-10T12:43:51.101Z</time>
      </trkpt>
      <trkpt lat="42.16577" lon="21.84381">
        <ele>411.128865</ele>
        <time>2022-04-10T12:43:55.103Z</time>
      </trkpt>
      <trkpt lat="42.16579" lon="21.84368">
        <ele>411.239776</ele>
        <time>2022-04-10T12:43:59.110Z</time>
      </trkpt>
      <trkpt lat="42.16581" lon="21.84356">
        <ele>411.346557</ele>
        <time>2022-04-10T12:44:03.133Z</time>
      </trkpt>
      <trkpt lat="42.16584" lon="21.84341">
        <ele>411.477942</ele>
        <time>2022-04-10T12:44:08.103Z</time>
      </trkpt>
      <trkpt lat="42.16586" lon="21.84326">
        <ele>411.608809</ele>
        <time>2022-04-10T12:44:13.132Z</time>
      </trkpt>
      <trkpt lat="42.16588" lon="21.84315">
        <ele>411.71396</ele>
        <time>2022-04-10T12:44:17.110Z</time>
      </trkpt>
      <trkpt lat="42.1659" lon="21.84302">
        <ele>411.821863</ele>
        <time>2022-04-10T12:44:21.099Z</time>
      </trkpt>
      <trkpt lat="42.16592" lon="21.84291">
        <ele>411.92669</ele>
        <time>2022-04-10T12:44:25.125Z</time>
      </trkpt>
      <trkpt lat="42.16594" lon="21.84275">
        <ele>412.061099</ele>
        <time>2022-04-10T12:44:30.096Z</time>
      </trkpt>
      <trkpt lat="42.16597" lon="21.84261">
        <ele>412.189163</ele>
        <time>2022-04-10T12:44:35.113Z</time>
      </trkpt>
      <trkpt lat="42.166" lon="21.84247">
        <ele>412.316657</ele>
        <time>2022-04-10T12:44:40.087Z</time>
      </trkpt>
      <trkpt lat="42.16602" lon="21.84235">
        <ele>412.424005</ele>
        <time>2022-04-10T12:44:44.113Z</time>
      </trkpt>
      <trkpt lat="42.16604" lon="21.8422">
        <ele>412.680617</ele>
        <time>2022-04-10T12:44:49.114Z</time>
      </trkpt>
      <trkpt lat="42.16607" lon="21.84206">
        <ele>413.134972</ele>
        <time>2022-04-10T12:44:54.084Z</time>
      </trkpt>
      <trkpt lat="42.16609" lon="21.84192">
        <ele>413.623793</ele>
        <time>2022-04-10T12:44:59.128Z</time>
      </trkpt>
      <trkpt lat="42.16612" lon="21.84178">
        <ele>414.08127</ele>
        <time>2022-04-10T12:45:04.101Z</time>
      </trkpt>
      <trkpt lat="42.16614" lon="21.84165">
        <ele>414.507158</ele>
        <time>2022-04-10T12:45:10.094Z</time>
      </trkpt>
      <trkpt lat="42.16618" lon="21.84154">
        <ele>414.915923</ele>
        <time>2022-04-10T12:45:15.083Z</time>
      </trkpt>
      <trkpt lat="42.1662" lon="21.84142">
        <ele>415.313429</ele>
        <time>2022-04-10T12:45:20.093Z</time>
      </trkpt>
      <trkpt lat="42.16622" lon="21.84129">
        <ele>415.727717</ele>
        <time>2022-04-10T12:45:26.128Z</time>
      </trkpt>
      <trkpt lat="42.16625" lon="21.84118">
        <ele>416.126705</ele>
        <time>2022-04-10T12:45:32.096Z</time>
      </trkpt>
      <trkpt lat="42.16627" lon="21.84105">
        <ele>416.551362</ele>
        <time>2022-04-10T12:45:39.135Z</time>
      </trkpt>
      <trkpt lat="42.16631" lon="21.84093">
        <ele>416.963086</ele>
        <time>2022-04-10T12:45:45.096Z</time>
      </trkpt>
      <trkpt lat="42.16634" lon="21.84082">
        <ele>417.358751</ele>
        <time>2022-04-10T12:45:50.129Z</time>
      </trkpt>
      <trkpt lat="42.16639" lon="21.84069">
        <ele>417.829656</ele>
        <time>2022-04-10T12:45:56.103Z</time>
      </trkpt>
      <trkpt lat="42.16642" lon="21.84056">
        <ele>418.261339</ele>
        <time>2022-04-10T12:46:02.101Z</time>
      </trkpt>
      <trkpt lat="42.16645" lon="21.84044">
        <ele>418.658499</ele>
        <time>2022-04-10T12:46:08.101Z</time>
      </trkpt>
      <trkpt lat="42.16647" lon="21.84031">
        <ele>419.117163</ele>
        <time>2022-04-10T12:46:15.115Z</time>
      </trkpt>
      <trkpt lat="42.16651" lon="21.84018">
        <ele>419.553742</ele>
        <time>2022-04-10T12:46:21.106Z</time>
      </trkpt>
      <trkpt lat="42.16654" lon="21.84005">
        <ele>420.008094</ele>
        <time>2022-04-10T12:46:27.097Z</time>
      </trkpt>
      <trkpt lat="42.16657" lon="21.83992">
        <ele>420.404429</ele>
        <time>2022-04-10T12:46:34.105Z</time>
      </trkpt>
      <trkpt lat="42.1666" lon="21.8398">
        <ele>420.57885</ele>
        <time>2022-04-10T12:46:40.118Z</time>
      </trkpt>
      <trkpt lat="42.16663" lon="21.83967">
        <ele>420.764649</ele>
        <time>2022-04-10T12:46:47.097Z</time>
      </trkpt>
      <trkpt lat="42.16667" lon="21.83954">
        <ele>420.95106</ele>
        <time>2022-04-10T12:46:53.114Z</time>
      </trkpt>
      <trkpt lat="42.1667" lon="21.83942">
        <ele>421.124207</ele>
        <time>2022-04-10T12:46:59.134Z</time>
      </trkpt>
      <trkpt lat="42.16674" lon="21.8393">
        <ele>421.292289</ele>
        <time>2022-04-10T12:47:04.129Z</time>
      </trkpt>
      <trkpt lat="42.16676" lon="21.83917">
        <ele>421.476845</ele>
        <time>2022-04-10T12:47:10.096Z</time>
      </trkpt>
      <trkpt lat="42.16678" lon="21.83903">
        <ele>421.667683</ele>
        <time>2022-04-10T12:47:16.116Z</time>
      </trkpt>
      <trkpt lat="42.16681" lon="21.83889">
        <ele>421.855691</ele>
        <time>2022-04-10T12:47:21.097Z</time>
      </trkpt>
      <trkpt lat="42.16683" lon="21.83876">
        <ele>422.043232</ele>
        <time>2022-04-10T12:47:26.092Z</time>
      </trkpt>
      <trkpt lat="42.16685" lon="21.83862">
        <ele>422.237067</ele>
        <time>2022-04-10T12:47:31.096Z</time>
      </trkpt>
      <trkpt lat="42.16687" lon="21.83848">
        <ele>422.423591</ele>
        <time>2022-04-10T12:47:36.104Z</time>
      </trkpt>
      <trkpt lat="42.16689" lon="21.83833">
        <ele>422.628717</ele>
        <time>2022-04-10T12:47:41.163Z</time>
      </trkpt>
      <trkpt lat="42.16692" lon="21.83821">
        <ele>422.800141</ele>
        <time>2022-04-10T12:47:45.091Z</time>
      </trkpt>
      <trkpt lat="42.16694" lon="21.83808">
        <ele>422.974172</ele>
        <time>2022-04-10T12:47:49.103Z</time>
      </trkpt>
      <trkpt lat="42.16697" lon="21.83794">
        <ele>423.174818</ele>
        <time>2022-04-10T12:47:54.114Z</time>
      </trkpt>
      <trkpt lat="42.167" lon="21.8378">
        <ele>423.369338</ele>
        <time>2022-04-10T12:47:59.088Z</time>
      </trkpt>
      <trkpt lat="42.16702" lon="21.83766">
        <ele>423.565256</ele>
        <time>2022-04-10T12:48:04.094Z</time>
      </trkpt>
      <trkpt lat="42.16705" lon="21.83753">
        <ele>423.954927</ele>
        <time>2022-04-10T12:48:09.103Z</time>
      </trkpt>
      <trkpt lat="42.16708" lon="21.8374">
        <ele>424.51614</ele>
        <time>2022-04-10T12:48:14.086Z</time>
      </trkpt>
      <trkpt lat="42.1671" lon="21.83728">
        <ele>425.028458</ele>
        <time>2022-04-10T12:48:18.097Z</time>
      </trkpt>
      <trkpt lat="42.16714" lon="21.83714">
        <ele>425.616182</ele>
        <time>2022-04-10T12:48:23.109Z</time>
      </trkpt>
      <trkpt lat="42.16717" lon="21.837">
        <ele>426.197562</ele>
        <time>2022-04-10T12:48:28.093Z</time>
      </trkpt>
      <trkpt lat="42.16719" lon="21.83686">
        <ele>426.779673</ele>
        <time>2022-04-10T12:48:33.111Z</time>
      </trkpt>
      <trkpt lat="42.16722" lon="21.83673">
        <ele>427.336759</ele>
        <time>2022-04-10T12:48:38.101Z</time>
      </trkpt>
      <trkpt lat="42.16724" lon="21.8366">
        <ele>427.899297</ele>
        <time>2022-04-10T12:48:43.099Z</time>
      </trkpt>
      <trkpt lat="42.16727" lon="21.83646">
        <ele>428.476124</ele>
        <time>2022-04-10T12:48:48.130Z</time>
      </trkpt>
      <trkpt lat="42.1673" lon="21.83634">
        <ele>428.998194</ele>
        <time>2022-04-10T12:48:53.103Z</time>
      </trkpt>
      <trkpt lat="42.16732" lon="21.83621">
        <ele>429.521177</ele>
        <time>2022-04-10T12:48:58.082Z</time>
      </trkpt>
      <trkpt lat="42.16734" lon="21.83608">
        <ele>430.086545</ele>
        <time>2022-04-10T12:49:04.117Z</time>
      </trkpt>
      <trkpt lat="42.16736" lon="21.83594">
        <ele>430.658803</ele>
        <time>2022-04-10T12:49:10.157Z</time>
      </trkpt>
      <trkpt lat="42.16738" lon="21.8358">
        <ele>431.229056</ele>
        <time>2022-04-10T12:49:16.084Z</time>
      </trkpt>
      <trkpt lat="42.16741" lon="21.83568">
        <ele>431.738822</ele>
        <time>2022-04-10T12:49:22.113Z</time>
      </trkpt>
      <trkpt lat="42.16743" lon="21.83555">
        <ele>432.277529</ele>
        <time>2022-04-10T12:49:28.104Z</time>
      </trkpt>
      <trkpt lat="42.16746" lon="21.83544">
        <ele>432.776233</ele>
        <time>2022-04-10T12:49:35.116Z</time>
      </trkpt>
      <trkpt lat="42.16748" lon="21.83531">
        <ele>433.311493</ele>
        <time>2022-04-10T12:49:42.101Z</time>
      </trkpt>
      <trkpt lat="42.16751" lon="21.83518">
        <ele>433.716493</ele>
        <time>2022-04-10T12:49:49.084Z</time>
      </trkpt>
      <trkpt lat="42.16753" lon="21.83505">
        <ele>434.064228</ele>
        <time>2022-04-10T12:49:56.124Z</time>
      </trkpt>
      <trkpt lat="42.16756" lon="21.83493">
        <ele>434.380938</ele>
        <time>2022-04-10T12:50:02.105Z</time>
      </trkpt>
      <trkpt lat="42.16758" lon="21.83481">
        <ele>434.710032</ele>
        <time>2022-04-10T12:50:08.102Z</time>
      </trkpt>
      <trkpt lat="42.16761" lon="21.83469">
        <ele>435.041041</ele>
        <time>2022-04-10T12:50:14.109Z</time>
      </trkpt>
      <trkpt lat="42.16764" lon="21.83457">
        <ele>435.36711</ele>
        <time>2022-04-10T12:50:21.135Z</time>
      </trkpt>
      <trkpt lat="42.16766" lon="21.83445">
        <ele>435.686369</ele>
        <time>2022-04-10T12:50:28.109Z</time>
      </trkpt>
      <trkpt lat="42.16768" lon="21.83432">
        <ele>436.011613</ele>
        <time>2022-04-10T12:50:35.116Z</time>
      </trkpt>
      <trkpt lat="42.1677" lon="21.83419">
        <ele>436.349121</ele>
        <time>2022-04-10T12:50:43.103Z</time>
      </trkpt>
      <trkpt lat="42.16774" lon="21.83407">
        <ele>436.692472</ele>
        <time>2022-04-10T12:50:50.106Z</time>
      </trkpt>
      <trkpt lat="42.16777" lon="21.83395">
        <ele>437.024998</ele>
        <time>2022-04-10T12:50:57.098Z</time>
      </trkpt>
      <trkpt lat="42.1678" lon="21.83383">
        <ele>437.348145</ele>
        <time>2022-04-10T12:51:06.075Z</time>
      </trkpt>
      <trkpt lat="42.16782" lon="21.83371">
        <ele>437.675904</ele>
        <time>2022-04-10T12:51:12.076Z</time>
      </trkpt>
      <trkpt lat="42.16784" lon="21.83357">
        <ele>438.031387</ele>
        <time>2022-04-10T12:51:20.093Z</time>
      </trkpt>
      <trkpt lat="42.16787" lon="21.83345">
        <ele>438.362926</ele>
        <time>2022-04-10T12:51:26.121Z</time>
      </trkpt>
      <trkpt lat="42.16789" lon="21.83332">
        <ele>438.683871</ele>
        <time>2022-04-10T12:51:33.106Z</time>
      </trkpt>
      <trkpt lat="42.16791" lon="21.8332">
        <ele>439.007169</ele>
        <time>2022-04-10T12:51:40.103Z</time>
      </trkpt>
      <trkpt lat="42.16793" lon="21.83307">
        <ele>439.339673</ele>
        <time>2022-04-10T12:51:47.105Z</time>
      </trkpt>
      <trkpt lat="42.16795" lon="21.83295">
        <ele>439.672233</ele>
        <time>2022-04-10T12:51:54.120Z</time>
      </trkpt>
      <trkpt lat="42.16797" lon="21.83281">
        <ele>440.1587</ele>
        <time>2022-04-10T12:52:01.107Z</time>
      </trkpt>
      <trkpt lat="42.168" lon="21.83268">
        <ele>440.672509</ele>
        <time>2022-04-10T12:52:08.097Z</time>
      </trkpt>
      <trkpt lat="42.16802" lon="21.83256">
        <ele>441.153123</ele>
        <time>2022-04-10T12:52:14.114Z</time>
      </trkpt>
      <trkpt lat="42.16805" lon="21.83244">
        <ele>441.627726</ele>
        <time>2022-04-10T12:52:20.136Z</time>
      </trkpt>
      <trkpt lat="42.16808" lon="21.83232">
        <ele>442.126099</ele>
        <time>2022-04-10T12:52:26.145Z</time>
      </trkpt>
      <trkpt lat="42.16811" lon="21.83219">
        <ele>442.63494</ele>
        <time>2022-04-10T12:52:32.111Z</time>
      </trkpt>
      <trkpt lat="42.16813" lon="21.83206">
        <ele>443.123142</ele>
        <time>2022-04-10T12:52:38.123Z</time>
      </trkpt>
      <trkpt lat="42.16815" lon="21.83193">
        <ele>443.630723</ele>
        <time>2022-04-10T12:52:44.098Z</time>
      </trkpt>
      <trkpt lat="42.16817" lon="21.83181">
        <ele>444.091922</ele>
        <time>2022-04-10T12:52:50.076Z</time>
      </trkpt>
      <trkpt lat="42.16819" lon="21.83169">
        <ele>444.58245</ele>
        <time>2022-04-10T12:52:57.116Z</time>
      </trkpt>
      <trkpt lat="42.16822" lon="21.83157">
        <ele>445.04435</ele>
        <time>2022-04-10T12:53:03.105Z</time>
      </trkpt>
      <trkpt lat="42.16826" lon="21.83144">
        <ele>445.561385</ele>
        <time>2022-04-10T12:53:11.101Z</time>
      </trkpt>
      <trkpt lat="42.16828" lon="21.83132">
        <ele>446.045977</ele>
        <time>2022-04-10T12:53:17.110Z</time>
      </trkpt>
      <trkpt lat="42.16829" lon="21.83119">
        <ele>446.553594</ele>
        <time>2022-04-10T12:53:24.098Z</time>
      </trkpt>
      <trkpt lat="42.16832" lon="21.83107">
        <ele>447.0245</ele>
        <time>2022-04-10T12:53:30.136Z</time>
      </trkpt>
      <trkpt lat="42.16834" lon="21.83095">
        <ele>447.492846</ele>
        <time>2022-04-10T12:53:36.104Z</time>
      </trkpt>
      <trkpt lat="42.16837" lon="21.83082">
        <ele>447.973795</ele>
        <time>2022-04-10T12:53:43.120Z</time>
      </trkpt>
      <trkpt lat="42.1684" lon="21.83069">
        <ele>448.510789</ele>
        <time>2022-04-10T12:53:50.135Z</time>
      </trkpt>
      <trkpt lat="42.16842" lon="21.83057">
        <ele>448.972167</ele>
        <time>2022-04-10T12:53:56.116Z</time>
      </trkpt>
      <trkpt lat="42.16845" lon="21.83044">
        <ele>449.385511</ele>
        <time>2022-04-10T12:54:03.136Z</time>
      </trkpt>
      <trkpt lat="42.16848" lon="21.83031">
        <ele>449.810527</ele>
        <time>2022-04-10T12:54:10.142Z</time>
      </trkpt>
      <trkpt lat="42.16849" lon="21.83019">
        <ele>450.20085</ele>
        <time>2022-04-10T12:54:16.093Z</time>
      </trkpt>
      <trkpt lat="42.16851" lon="21.83005">
        <ele>450.632053</ele>
        <time>2022-04-10T12:54:23.117Z</time>
      </trkpt>
      <trkpt lat="42.16852" lon="21.82992">
        <ele>451.061502</ele>
        <time>2022-04-10T12:54:30.109Z</time>
      </trkpt>
      <trkpt lat="42.16856" lon="21.82978">
        <ele>451.49179</ele>
        <time>2022-04-10T12:54:37.102Z</time>
      </trkpt>
      <trkpt lat="42.16858" lon="21.82966">
        <ele>451.895684</ele>
        <time>2022-04-10T12:54:44.090Z</time>
      </trkpt>
      <trkpt lat="42.16861" lon="21.82953">
        <ele>452.318733</ele>
        <time>2022-04-10T12:54:51.117Z</time>
      </trkpt>
      <trkpt lat="42.16864" lon="21.8294">
        <ele>452.756055</ele>
        <time>2022-04-10T12:54:58.099Z</time>
      </trkpt>
      <trkpt lat="42.16867" lon="21.82926">
        <ele>453.204157</ele>
        <time>2022-04-10T12:55:05.096Z</time>
      </trkpt>
      <trkpt lat="42.16869" lon="21.82913">
        <ele>453.618345</ele>
        <time>2022-04-10T12:55:11.107Z</time>
      </trkpt>
      <trkpt lat="42.16871" lon="21.82899">
        <ele>454.051674</ele>
        <time>2022-04-10T12:55:18.111Z</time>
      </trkpt>
      <trkpt lat="42.16874" lon="21.82887">
        <ele>454.453072</ele>
        <time>2022-04-10T12:55:24.101Z</time>
      </trkpt>
      <trkpt lat="42.16877" lon="21.82875">
        <ele>454.834973</ele>
        <time>2022-04-10T12:55:29.107Z</time>
      </trkpt>
      <trkpt lat="42.16879" lon="21.82862">
        <ele>455.27318</ele>
        <time>2022-04-10T12:55:35.140Z</time>
      </trkpt>
      <trkpt lat="42.16882" lon="21.8285">
        <ele>455.662343</ele>
        <time>2022-04-10T12:55:41.124Z</time>
      </trkpt>
      <trkpt lat="42.16885" lon="21.82838">
        <ele>456.057249</ele>
        <time>2022-04-10T12:55:47.108Z</time>
      </trkpt>
      <trkpt lat="42.16889" lon="21.82826">
        <ele>456.468465</ele>
        <time>2022-04-10T12:55:53.100Z</time>
      </trkpt>
      <trkpt lat="42.16892" lon="21.82814">
        <ele>456.858182</ele>
        <time>2022-04-10T12:55:59.102Z</time>
      </trkpt>
      <trkpt lat="42.16894" lon="21.828">
        <ele>457.313552</ele>
        <time>2022-04-10T12:56:06.091Z</time>
      </trkpt>
      <trkpt lat="42.16896" lon="21.82787">
        <ele>457.725733</ele>
        <time>2022-04-10T12:56:12.115Z</time>
      </trkpt>
      <trkpt lat="42.16897" lon="21.82775">
        <ele>458.117557</ele>
        <time>2022-04-10T12:56:19.121Z</time>
      </trkpt>
      <trkpt lat="42.16899" lon="21.82763">
        <ele>458.507757</ele>
        <time>2022-04-10T12:56:25.129Z</time>
      </trkpt>
      <trkpt lat="42.16902" lon="21.8275">
        <ele>458.949343</ele>
        <time>2022-04-10T12:56:32.099Z</time>
      </trkpt>
      <trkpt lat="42.16904" lon="21.82738">
        <ele>459.344376</ele>
        <time>2022-04-10T12:56:38.113Z</time>
      </trkpt>
      <trkpt lat="42.16905" lon="21.82725">
        <ele>459.7597</ele>
        <time>2022-04-10T12:56:44.116Z</time>
      </trkpt>
      <trkpt lat="42.16908" lon="21.82712">
        <ele>460.194835</ele>
        <time>2022-04-10T12:56:50.090Z</time>
      </trkpt>
      <trkpt lat="42.1691" lon="21.82699">
        <ele>460.62797</ele>
        <time>2022-04-10T12:56:57.098Z</time>
      </trkpt>
      <trkpt lat="42.16914" lon="21.82686">
        <ele>461.05478</ele>
        <time>2022-04-10T12:57:03.137Z</time>
      </trkpt>
      <trkpt lat="42.16916" lon="21.82674">
        <ele>461.473686</ele>
        <time>2022-04-10T12:57:09.146Z</time>
      </trkpt>
      <trkpt lat="42.16919" lon="21.82662">
        <ele>461.86811</ele>
        <time>2022-04-10T12:57:15.109Z</time>
      </trkpt>
      <trkpt lat="42.16921" lon="21.82649">
        <ele>462.274005</ele>
        <time>2022-04-10T12:57:22.112Z</time>
      </trkpt>
      <trkpt lat="42.16923" lon="21.82637">
        <ele>462.669873</ele>
        <time>2022-04-10T12:57:28.103Z</time>
      </trkpt>
      <trkpt lat="42.16925" lon="21.82625">
        <ele>463.08858</ele>
        <time>2022-04-10T12:57:35.131Z</time>
      </trkpt>
      <trkpt lat="42.16928" lon="21.82613">
        <ele>463.485549</ele>
        <time>2022-04-10T12:57:42.108Z</time>
      </trkpt>
      <trkpt lat="42.1693" lon="21.82599">
        <ele>463.934189</ele>
        <time>2022-04-10T12:57:49.150Z</time>
      </trkpt>
      <trkpt lat="42.16933" lon="21.82586">
        <ele>464.400893</ele>
        <time>2022-04-10T12:57:56.108Z</time>
      </trkpt>
      <trkpt lat="42.16935" lon="21.82574">
        <ele>464.912019</ele>
        <time>2022-04-10T12:58:02.100Z</time>
      </trkpt>
      <trkpt lat="42.16937" lon="21.8256">
        <ele>465.49321</ele>
        <time>2022-04-10T12:58:09.113Z</time>
      </trkpt>
      <trkpt lat="42.1694" lon="21.82546">
        <ele>466.074692</ele>
        <time>2022-04-10T12:58:16.106Z</time>
      </trkpt>
      <trkpt lat="42.16942" lon="21.82533">
        <ele>466.626539</ele>
        <time>2022-04-10T12:58:23.116Z</time>
      </trkpt>
      <trkpt lat="42.16945" lon="21.8252">
        <ele>467.183755</ele>
        <time>2022-04-10T12:58:30.096Z</time>
      </trkpt>
      <trkpt lat="42.16949" lon="21.82507">
        <ele>467.752265</ele>
        <time>2022-04-10T12:58:37.099Z</time>
      </trkpt>
      <trkpt lat="42.1695" lon="21.82494">
        <ele>468.299705</ele>
        <time>2022-04-10T12:58:44.104Z</time>
      </trkpt>
      <trkpt lat="42.16953" lon="21.82481">
        <ele>468.867809</ele>
        <time>2022-04-10T12:58:51.107Z</time>
      </trkpt>
      <trkpt lat="42.16957" lon="21.82469">
        <ele>469.396451</ele>
        <time>2022-04-10T12:58:58.104Z</time>
      </trkpt>
      <trkpt lat="42.1696" lon="21.82457">
        <ele>469.899958</ele>
        <time>2022-04-10T12:59:07.079Z</time>
      </trkpt>
      <trkpt lat="42.16962" lon="21.82444">
        <ele>470.450671</ele>
        <time>2022-04-10T12:59:15.104Z</time>
      </trkpt>
      <trkpt lat="42.16963" lon="21.82431">
        <ele>471.009349</ele>
        <time>2022-04-10T12:59:24.124Z</time>
      </trkpt>
      <trkpt lat="42.16965" lon="21.82419">
        <ele>471.521268</ele>
        <time>2022-04-10T12:59:31.086Z</time>
      </trkpt>
      <trkpt lat="42.16967" lon="21.82406">
        <ele>472.037524</ele>
        <time>2022-04-10T12:59:41.081Z</time>
      </trkpt>
      <trkpt lat="42.16969" lon="21.82393">
        <ele>472.589492</ele>
        <time>2022-04-10T12:59:50.100Z</time>
      </trkpt>
      <trkpt lat="42.16971" lon="21.8238">
        <ele>473.128019</ele>
        <time>2022-04-10T12:59:57.106Z</time>
      </trkpt>
      <trkpt lat="42.16973" lon="21.82368">
        <ele>473.639141</ele>
        <time>2022-04-10T13:00:05.110Z</time>
      </trkpt>
      <trkpt lat="42.16975" lon="21.82356">
        <ele>474.147363</ele>
        <time>2022-04-10T13:00:12.104Z</time>
      </trkpt>
      <trkpt lat="42.16978" lon="21.82344">
        <ele>474.504552</ele>
        <time>2022-04-10T13:00:20.084Z</time>
      </trkpt>
      <trkpt lat="42.16982" lon="21.82332">
        <ele>474.820641</ele>
        <time>2022-04-10T13:00:27.130Z</time>
      </trkpt>
      <trkpt lat="42.16985" lon="21.82319">
        <ele>475.142576</ele>
        <time>2022-04-10T13:00:35.140Z</time>
      </trkpt>
      <trkpt lat="42.16987" lon="21.82306">
        <ele>475.454766</ele>
        <time>2022-04-10T13:00:44.109Z</time>
      </trkpt>
      <trkpt lat="42.16989" lon="21.82294">
        <ele>475.752561</ele>
        <time>2022-04-10T13:00:53.118Z</time>
      </trkpt>
      <trkpt lat="42.16992" lon="21.82282">
        <ele>476.058916</ele>
        <time>2022-04-10T13:01:00.106Z</time>
      </trkpt>
      <trkpt lat="42.16994" lon="21.8227">
        <ele>476.361589</ele>
        <time>2022-04-10T13:01:08.130Z</time>
      </trkpt>
      <trkpt lat="42.16997" lon="21.82259">
        <ele>476.655441</ele>
        <time>2022-04-10T13:01:16.083Z</time>
      </trkpt>
      <trkpt lat="42.17" lon="21.82246">
        <ele>476.969648</ele>
        <time>2022-04-10T13:01:25.079Z</time>
      </trkpt>
      <trkpt lat="42.17003" lon="21.82235">
        <ele>477.268855</ele>
        <time>2022-04-10T13:01:32.097Z</time>
      </trkpt>
      <trkpt lat="42.17004" lon="21.82222">
        <ele>477.570958</ele>
        <time>2022-04-10T13:01:40.103Z</time>
      </trkpt>
      <trkpt lat="42.17006" lon="21.82209">
        <ele>477.886745</ele>
        <time>2022-04-10T13:01:47.121Z</time>
      </trkpt>
      <trkpt lat="42.17008" lon="21.82197">
        <ele>478.196554</ele>
        <time>2022-04-10T13:01:54.101Z</time>
      </trkpt>
      <trkpt lat="42.1701" lon="21.82185">
        <ele>478.490675</ele>
        <time>2022-04-10T13:02:00.104Z</time>
      </trkpt>
      <trkpt lat="42.17012" lon="21.82173">
        <ele>478.801464</ele>
        <time>2022-04-10T13:02:07.105Z</time>
      </trkpt>
      <trkpt lat="42.17015" lon="21.82159">
        <ele>479.140082</ele>
        <time>2022-04-10T13:02:14.089Z</time>
      </trkpt>
      <trkpt lat="42.17017" lon="21.82146">
        <ele>479.459804</ele>
        <time>2022-04-10T13:02:20.102Z</time>
      </trkpt>
      <trkpt lat="42.1702" lon="21.82132">
        <ele>479.81611</ele>
        <time>2022-04-10T13:02:25.088Z</time>
      </trkpt>
      <trkpt lat="42.17023" lon="21.82119">
        <ele>480.092155</ele>
        <time>2022-04-10T13:02:29.106Z</time>
      </trkpt>
      <trkpt lat="42.17026" lon="21.82107">
        <ele>479.911818</ele>
        <time>2022-04-10T13:02:33.127Z</time>
      </trkpt>
      <trkpt lat="42.17028" lon="21.82095">
        <ele>479.74579</ele>
        <time>2022-04-10T13:02:36.081Z</time>
      </trkpt>
      <trkpt lat="42.17031" lon="21.82081">
        <ele>479.548229</ele>
        <time>2022-04-10T13:02:39.128Z</time>
      </trkpt>
      <trkpt lat="42.17034" lon="21.82066">
        <ele>479.328136</ele>
        <time>2022-04-10T13:02:42.112Z</time>
      </trkpt>
      <trkpt lat="42.17035" lon="21.8205">
        <ele>479.106727</ele>
        <time>2022-04-10T13:02:45.146Z</time>
      </trkpt>
      <trkpt lat="42.17039" lon="21.82038">
        <ele>478.930297</ele>
        <time>2022-04-10T13:02:47.117Z</time>
      </trkpt>
      <trkpt lat="42.17042" lon="21.8202">
        <ele>478.688074</ele>
        <time>2022-04-10T13:02:50.075Z</time>
      </trkpt>
      <trkpt lat="42.17044" lon="21.82007">
        <ele>478.506123</ele>
        <time>2022-04-10T13:02:52.188Z</time>
      </trkpt>
      <trkpt lat="42.17046" lon="21.81994">
        <ele>478.31874</ele>
        <time>2022-04-10T13:02:54.099Z</time>
      </trkpt>
      <trkpt lat="42.17048" lon="21.81982">
        <ele>478.146959</ele>
        <time>2022-04-10T13:02:56.098Z</time>
      </trkpt>
      <trkpt lat="42.17049" lon="21.81969">
        <ele>477.965013</ele>
        <time>2022-04-10T13:02:58.110Z</time>
      </trkpt>
      <trkpt lat="42.17053" lon="21.81953">
        <ele>477.743562</ele>
        <time>2022-04-10T13:03:01.102Z</time>
      </trkpt>
      <trkpt lat="42.17055" lon="21.81939">
        <ele>477.54743</ele>
        <time>2022-04-10T13:03:04.077Z</time>
      </trkpt>
      <trkpt lat="42.17058" lon="21.81926">
        <ele>477.365206</ele>
        <time>2022-04-10T13:03:07.117Z</time>
      </trkpt>
      <trkpt lat="42.17061" lon="21.81912">
        <ele>477.163692</ele>
        <time>2022-04-10T13:03:10.136Z</time>
      </trkpt>
      <trkpt lat="42.17064" lon="21.819">
        <ele>476.984248</ele>
        <time>2022-04-10T13:03:13.116Z</time>
      </trkpt>
      <trkpt lat="42.17066" lon="21.81887">
        <ele>476.812467</ele>
        <time>2022-04-10T13:03:16.085Z</time>
      </trkpt>
      <trkpt lat="42.17069" lon="21.81874">
        <ele>476.927995</ele>
        <time>2022-04-10T13:03:19.124Z</time>
      </trkpt>
      <trkpt lat="42.17072" lon="21.8186">
        <ele>477.092305</ele>
        <time>2022-04-10T13:03:22.121Z</time>
      </trkpt>
      <trkpt lat="42.17075" lon="21.81848">
        <ele>477.23973</ele>
        <time>2022-04-10T13:03:25.094Z</time>
      </trkpt>
      <trkpt lat="42.17077" lon="21.81834">
        <ele>477.39884</ele>
        <time>2022-04-10T13:03:29.117Z</time>
      </trkpt>
      <trkpt lat="42.1708" lon="21.8182">
        <ele>477.56989</ele>
        <time>2022-04-10T13:03:33.102Z</time>
      </trkpt>
      <trkpt lat="42.17084" lon="21.81804">
        <ele>477.752332</ele>
        <time>2022-04-10T13:03:37.095Z</time>
      </trkpt>
      <trkpt lat="42.17086" lon="21.81792">
        <ele>477.893423</ele>
        <time>2022-04-10T13:03:40.115Z</time>
      </trkpt>
      <trkpt lat="42.17088" lon="21.81779">
        <ele>478.044876</ele>
        <time>2022-04-10T13:03:43.150Z</time>
      </trkpt>
      <trkpt lat="42.1709" lon="21.81767">
        <ele>478.185524</ele>
        <time>2022-04-10T13:03:46.102Z</time>
      </trkpt>
      <trkpt lat="42.17093" lon="21.81755">
        <ele>478.336134</ele>
        <time>2022-04-10T13:03:49.099Z</time>
      </trkpt>
      <trkpt lat="42.17096" lon="21.81743">
        <ele>478.478942</ele>
        <time>2022-04-10T13:03:52.104Z</time>
      </trkpt>
      <trkpt lat="42.17099" lon="21.8173">
        <ele>478.632973</ele>
        <time>2022-04-10T13:03:55.115Z</time>
      </trkpt>
      <trkpt lat="42.17103" lon="21.81715">
        <ele>478.809096</ele>
        <time>2022-04-10T13:03:59.105Z</time>
      </trkpt>
      <trkpt lat="42.17106" lon="21.81702">
        <ele>478.966588</ele>
        <time>2022-04-10T13:04:03.100Z</time>
      </trkpt>
      <trkpt lat="42.17107" lon="21.8169">
        <ele>479.112962</ele>
        <time>2022-04-10T13:04:07.106Z</time>
      </trkpt>
      <trkpt lat="42.1711" lon="21.81676">
        <ele>479.274668</ele>
        <time>2022-04-10T13:04:12.097Z</time>
      </trkpt>
      <trkpt lat="42.17112" lon="21.81663">
        <ele>479.42122</ele>
        <time>2022-04-10T13:04:18.106Z</time>
      </trkpt>
      <trkpt lat="42.17114" lon="21.8165">
        <ele>479.560228</ele>
        <time>2022-04-10T13:04:25.113Z</time>
      </trkpt>
      <trkpt lat="42.17116" lon="21.81638">
        <ele>479.590773</ele>
        <time>2022-04-10T13:04:31.184Z</time>
      </trkpt>
      <trkpt lat="42.17118" lon="21.81626">
        <ele>479.620766</ele>
        <time>2022-04-10T13:04:37.122Z</time>
      </trkpt>
      <trkpt lat="42.17121" lon="21.81614">
        <ele>479.651153</ele>
        <time>2022-04-10T13:04:43.149Z</time>
      </trkpt>
      <trkpt lat="42.17123" lon="21.81602">
        <ele>479.681371</ele>
        <time>2022-04-10T13:04:49.088Z</time>
      </trkpt>
      <trkpt lat="42.17125" lon="21.81591">
        <ele>479.711511</ele>
        <time>2022-04-10T13:04:56.132Z</time>
      </trkpt>
      <trkpt lat="42.17128" lon="21.81578">
        <ele>479.742882</ele>
        <time>2022-04-10T13:05:02.096Z</time>
      </trkpt>
      <trkpt lat="42.1713" lon="21.81566">
        <ele>479.775672</ele>
        <time>2022-04-10T13:05:08.134Z</time>
      </trkpt>
      <trkpt lat="42.17133" lon="21.81552">
        <ele>479.810598</ele>
        <time>2022-04-10T13:05:15.105Z</time>
      </trkpt>
      <trkpt lat="42.17135" lon="21.81539">
        <ele>479.843536</ele>
        <time>2022-04-10T13:05:22.171Z</time>
      </trkpt>
      <trkpt lat="42.17139" lon="21.81526">
        <ele>479.876481</ele>
        <time>2022-04-10T13:05:30.115Z</time>
      </trkpt>
      <trkpt lat="42.17141" lon="21.81514">
        <ele>479.906956</ele>
        <time>2022-04-10T13:05:36.119Z</time>
      </trkpt>
      <trkpt lat="42.17144" lon="21.81502">
        <ele>479.937915</ele>
        <time>2022-04-10T13:05:43.118Z</time>
      </trkpt>
      <trkpt lat="42.17147" lon="21.8149">
        <ele>479.969192</ele>
        <time>2022-04-10T13:05:49.093Z</time>
      </trkpt>
      <trkpt lat="42.17149" lon="21.81477">
        <ele>480.001777</ele>
        <time>2022-04-10T13:05:55.119Z</time>
      </trkpt>
      <trkpt lat="42.17151" lon="21.81464">
        <ele>480.035133</ele>
        <time>2022-04-10T13:05:59.115Z</time>
      </trkpt>
      <trkpt lat="42.17156" lon="21.8145">
        <ele>480.07264</ele>
        <time>2022-04-10T13:06:03.102Z</time>
      </trkpt>
      <trkpt lat="42.17159" lon="21.81436">
        <ele>480.109071</ele>
        <time>2022-04-10T13:06:07.154Z</time>
      </trkpt>
      <trkpt lat="42.17164" lon="21.81426">
        <ele>480.139336</ele>
        <time>2022-04-10T13:06:10.099Z</time>
      </trkpt>
      <trkpt lat="42.17169" lon="21.81411">
        <ele>480.024666</ele>
        <time>2022-04-10T13:06:14.146Z</time>
      </trkpt>
      <trkpt lat="42.17171" lon="21.81396">
        <ele>479.815236</ele>
        <time>2022-04-10T13:06:18.089Z</time>
      </trkpt>
      <trkpt lat="42.17174" lon="21.81383">
        <ele>479.635883</ele>
        <time>2022-04-10T13:06:21.102Z</time>
      </trkpt>
      <trkpt lat="42.17177" lon="21.8137">
        <ele>479.445232</ele>
        <time>2022-04-10T13:06:24.109Z</time>
      </trkpt>
      <trkpt lat="42.17181" lon="21.81353">
        <ele>479.204761</ele>
        <time>2022-04-10T13:06:27.115Z</time>
      </trkpt>
      <trkpt lat="42.17184" lon="21.81341">
        <ele>479.033498</ele>
        <time>2022-04-10T13:06:29.118Z</time>
      </trkpt>
      <trkpt lat="42.17186" lon="21.81328">
        <ele>478.861942</ele>
        <time>2022-04-10T13:06:31.141Z</time>
      </trkpt>
      <trkpt lat="42.1719" lon="21.81313">
        <ele>478.644309</ele>
        <time>2022-04-10T13:06:34.115Z</time>
      </trkpt>
      <trkpt lat="42.17194" lon="21.81302">
        <ele>478.480596</ele>
        <time>2022-04-10T13:06:37.098Z</time>
      </trkpt>
      <trkpt lat="42.17199" lon="21.8129">
        <ele>478.293094</ele>
        <time>2022-04-10T13:06:41.139Z</time>
      </trkpt>
      <trkpt lat="42.17206" lon="21.81262">
        <ele>477.901871</ele>
        <time>2022-04-10T13:10:07.119Z</time>
      </trkpt>
      <trkpt lat="42.17208" lon="21.81249">
        <ele>477.721963</ele>
        <time>2022-04-10T13:10:11.116Z</time>
      </trkpt>
      <trkpt lat="42.17212" lon="21.81236">
        <ele>477.533393</ele>
        <time>2022-04-10T13:10:15.103Z</time>
      </trkpt>
      <trkpt lat="42.17216" lon="21.81225">
        <ele>477.360504</ele>
        <time>2022-04-10T13:10:19.098Z</time>
      </trkpt>
      <trkpt lat="42.17219" lon="21.81213">
        <ele>477.19143</ele>
        <time>2022-04-10T13:10:23.111Z</time>
      </trkpt>
      <trkpt lat="42.17222" lon="21.81198">
        <ele>476.986839</ele>
        <time>2022-04-10T13:10:28.116Z</time>
      </trkpt>
      <trkpt lat="42.17225" lon="21.81187">
        <ele>476.897101</ele>
        <time>2022-04-10T13:10:32.078Z</time>
      </trkpt>
      <trkpt lat="42.17228" lon="21.81175">
        <ele>476.915424</ele>
        <time>2022-04-10T13:10:36.093Z</time>
      </trkpt>
      <trkpt lat="42.17231" lon="21.81163">
        <ele>476.933636</ele>
        <time>2022-04-10T13:10:40.100Z</time>
      </trkpt>
      <trkpt lat="42.17233" lon="21.8115">
        <ele>476.953157</ele>
        <time>2022-04-10T13:10:45.118Z</time>
      </trkpt>
      <trkpt lat="42.17236" lon="21.81138">
        <ele>476.973142</ele>
        <time>2022-04-10T13:10:50.125Z</time>
      </trkpt>
      <trkpt lat="42.17238" lon="21.81125">
        <ele>476.991631</ele>
        <time>2022-04-10T13:10:54.154Z</time>
      </trkpt>
      <trkpt lat="42.17241" lon="21.81113">
        <ele>477.01069</ele>
        <time>2022-04-10T13:10:58.119Z</time>
      </trkpt>
      <trkpt lat="42.17243" lon="21.811">
        <ele>477.030353</ele>
        <time>2022-04-10T13:11:03.138Z</time>
      </trkpt>
      <trkpt lat="42.17245" lon="21.81086">
        <ele>477.051576</ele>
        <time>2022-04-10T13:11:08.105Z</time>
      </trkpt>
      <trkpt lat="42.17245" lon="21.81071">
        <ele>477.073424</ele>
        <time>2022-04-10T13:11:13.129Z</time>
      </trkpt>
      <trkpt lat="42.17245" lon="21.81058">
        <ele>477.092599</ele>
        <time>2022-04-10T13:11:17.129Z</time>
      </trkpt>
      <trkpt lat="42.17246" lon="21.81043">
        <ele>477.114027</ele>
        <time>2022-04-10T13:11:21.112Z</time>
      </trkpt>
      <trkpt lat="42.17245" lon="21.81031">
        <ele>477.132352</ele>
        <time>2022-04-10T13:11:24.097Z</time>
      </trkpt>
      <trkpt lat="42.17247" lon="21.81014">
        <ele>477.157154</ele>
        <time>2022-04-10T13:11:28.138Z</time>
      </trkpt>
      <trkpt lat="42.17251" lon="21.81">
        <ele>477.179782</ele>
        <time>2022-04-10T13:11:31.119Z</time>
      </trkpt>
      <trkpt lat="42.17256" lon="21.80985">
        <ele>477.203877</ele>
        <time>2022-04-10T13:11:34.095Z</time>
      </trkpt>
      <trkpt lat="42.1726" lon="21.80974">
        <ele>477.222211</ele>
        <time>2022-04-10T13:11:36.125Z</time>
      </trkpt>
      <trkpt lat="42.17266" lon="21.80957">
        <ele>477.190571</ele>
        <time>2022-04-10T13:11:39.123Z</time>
      </trkpt>
      <trkpt lat="42.17271" lon="21.80945">
        <ele>476.427486</ele>
        <time>2022-04-10T13:11:41.118Z</time>
      </trkpt>
      <trkpt lat="42.17276" lon="21.80934">
        <ele>475.671303</ele>
        <time>2022-04-10T13:11:43.109Z</time>
      </trkpt>
      <trkpt lat="42.17282" lon="21.80923">
        <ele>474.967564</ele>
        <time>2022-04-10T13:11:45.157Z</time>
      </trkpt>
      <trkpt lat="42.17289" lon="21.80909">
        <ele>474.037702</ele>
        <time>2022-04-10T13:11:48.116Z</time>
      </trkpt>
      <trkpt lat="42.17295" lon="21.80896">
        <ele>473.168859</ele>
        <time>2022-04-10T13:11:51.109Z</time>
      </trkpt>
      <trkpt lat="42.17301" lon="21.80885">
        <ele>472.394381</ele>
        <time>2022-04-10T13:11:54.125Z</time>
      </trkpt>
      <trkpt lat="42.17307" lon="21.80874">
        <ele>471.681648</ele>
        <time>2022-04-10T13:11:57.104Z</time>
      </trkpt>
      <trkpt lat="42.17313" lon="21.80862">
        <ele>470.853164</ele>
        <time>2022-04-10T13:12:00.111Z</time>
      </trkpt>
      <trkpt lat="42.17319" lon="21.80848">
        <ele>469.960405</ele>
        <time>2022-04-10T13:12:03.103Z</time>
      </trkpt>
      <trkpt lat="42.17324" lon="21.80836">
        <ele>469.214146</ele>
        <time>2022-04-10T13:12:06.099Z</time>
      </trkpt>
      <trkpt lat="42.17331" lon="21.80823">
        <ele>468.311132</ele>
        <time>2022-04-10T13:12:09.093Z</time>
      </trkpt>
      <trkpt lat="42.17337" lon="21.80813">
        <ele>467.633172</ele>
        <time>2022-04-10T13:12:11.113Z</time>
      </trkpt>
      <trkpt lat="42.17344" lon="21.80804">
        <ele>466.903723</ele>
        <time>2022-04-10T13:12:13.103Z</time>
      </trkpt>
      <trkpt lat="42.17351" lon="21.80796">
        <ele>466.22773</ele>
        <time>2022-04-10T13:12:15.120Z</time>
      </trkpt>
      <trkpt lat="42.1736" lon="21.80783">
        <ele>465.252131</ele>
        <time>2022-04-10T13:12:18.107Z</time>
      </trkpt>
      <trkpt lat="42.17367" lon="21.80771">
        <ele>464.393383</ele>
        <time>2022-04-10T13:12:21.150Z</time>
      </trkpt>
      <trkpt lat="42.17374" lon="21.80759">
        <ele>463.623963</ele>
        <time>2022-04-10T13:12:24.114Z</time>
      </trkpt>
      <trkpt lat="42.1738" lon="21.80747">
        <ele>462.84422</ele>
        <time>2022-04-10T13:12:27.110Z</time>
      </trkpt>
      <trkpt lat="42.17388" lon="21.80732">
        <ele>461.948356</ele>
        <time>2022-04-10T13:12:30.102Z</time>
      </trkpt>
      <trkpt lat="42.17396" lon="21.80717">
        <ele>461.072433</ele>
        <time>2022-04-10T13:12:33.102Z</time>
      </trkpt>
      <trkpt lat="42.17403" lon="21.80704">
        <ele>460.248394</ele>
        <time>2022-04-10T13:12:36.099Z</time>
      </trkpt>
      <trkpt lat="42.17409" lon="21.80695">
        <ele>459.632635</ele>
        <time>2022-04-10T13:12:38.138Z</time>
      </trkpt>
      <trkpt lat="42.17414" lon="21.80685">
        <ele>459.016558</ele>
        <time>2022-04-10T13:12:40.096Z</time>
      </trkpt>
      <trkpt lat="42.17422" lon="21.80672">
        <ele>458.200312</ele>
        <time>2022-04-10T13:12:43.098Z</time>
      </trkpt>
      <trkpt lat="42.17429" lon="21.80661">
        <ele>457.463736</ele>
        <time>2022-04-10T13:12:46.098Z</time>
      </trkpt>
      <trkpt lat="42.17438" lon="21.80647">
        <ele>456.535586</ele>
        <time>2022-04-10T13:12:49.088Z</time>
      </trkpt>
      <trkpt lat="42.17443" lon="21.80636">
        <ele>455.906637</ele>
        <time>2022-04-10T13:12:51.093Z</time>
      </trkpt>
      <trkpt lat="42.17451" lon="21.80623">
        <ele>455.046063</ele>
        <time>2022-04-10T13:12:54.111Z</time>
      </trkpt>
      <trkpt lat="42.17459" lon="21.8061">
        <ele>454.23422</ele>
        <time>2022-04-10T13:12:57.116Z</time>
      </trkpt>
      <trkpt lat="42.17466" lon="21.80597">
        <ele>453.462425</ele>
        <time>2022-04-10T13:13:00.148Z</time>
      </trkpt>
      <trkpt lat="42.17473" lon="21.80585">
        <ele>452.674719</ele>
        <time>2022-04-10T13:13:03.113Z</time>
      </trkpt>
      <trkpt lat="42.17479" lon="21.80571">
        <ele>451.875847</ele>
        <time>2022-04-10T13:13:06.125Z</time>
      </trkpt>
      <trkpt lat="42.17485" lon="21.80558">
        <ele>451.365913</ele>
        <time>2022-04-10T13:13:09.102Z</time>
      </trkpt>
      <trkpt lat="42.17489" lon="21.80546">
        <ele>450.976959</ele>
        <time>2022-04-10T13:13:12.111Z</time>
      </trkpt>
      <trkpt lat="42.17492" lon="21.80532">
        <ele>450.523436</ele>
        <time>2022-04-10T13:13:16.159Z</time>
      </trkpt>
      <trkpt lat="42.17488" lon="21.80519">
        <ele>450.102354</ele>
        <time>2022-04-10T13:13:20.116Z</time>
      </trkpt>
      <trkpt lat="42.1748" lon="21.80511">
        <ele>449.655124</ele>
        <time>2022-04-10T13:13:24.116Z</time>
      </trkpt>
      <trkpt lat="42.17472" lon="21.80501">
        <ele>449.206726</ele>
        <time>2022-04-10T13:13:27.130Z</time>
      </trkpt>
      <trkpt lat="42.17462" lon="21.80491">
        <ele>448.720304</ele>
        <time>2022-04-10T13:13:30.102Z</time>
      </trkpt>
      <trkpt lat="42.17452" lon="21.80483">
        <ele>448.237858</ele>
        <time>2022-04-10T13:13:33.107Z</time>
      </trkpt>
      <trkpt lat="42.17441" lon="21.80475">
        <ele>447.705405</ele>
        <time>2022-04-10T13:13:36.096Z</time>
      </trkpt>
      <trkpt lat="42.17433" lon="21.80466">
        <ele>447.262189</ele>
        <time>2022-04-10T13:13:38.176Z</time>
      </trkpt>
      <trkpt lat="42.17424" lon="21.80457">
        <ele>446.796922</ele>
        <time>2022-04-10T13:13:40.107Z</time>
      </trkpt>
      <trkpt lat="42.17415" lon="21.8045">
        <ele>446.385584</ele>
        <time>2022-04-10T13:13:42.110Z</time>
      </trkpt>
      <trkpt lat="42.17405" lon="21.80441">
        <ele>445.860701</ele>
        <time>2022-04-10T13:13:45.119Z</time>
      </trkpt>
      <trkpt lat="42.17396" lon="21.80432">
        <ele>445.393983</ele>
        <time>2022-04-10T13:13:48.106Z</time>
      </trkpt>
      <trkpt lat="42.17385" lon="21.80419">
        <ele>444.81065</ele>
        <time>2022-04-10T13:13:51.103Z</time>
      </trkpt>
      <trkpt lat="42.17377" lon="21.80409">
        <ele>444.359886</ele>
        <time>2022-04-10T13:13:53.126Z</time>
      </trkpt>
      <trkpt lat="42.1737" lon="21.80398">
        <ele>443.820931</ele>
        <time>2022-04-10T13:13:55.096Z</time>
      </trkpt>
      <trkpt lat="42.17364" lon="21.80387">
        <ele>443.311594</ele>
        <time>2022-04-10T13:13:57.097Z</time>
      </trkpt>
      <trkpt lat="42.17358" lon="21.80373">
        <ele>442.715809</ele>
        <time>2022-04-10T13:14:00.160Z</time>
      </trkpt>
      <trkpt lat="42.17354" lon="21.80359">
        <ele>442.133794</ele>
        <time>2022-04-10T13:14:04.108Z</time>
      </trkpt>
      <trkpt lat="42.17352" lon="21.80345">
        <ele>441.628874</ele>
        <time>2022-04-10T13:14:07.106Z</time>
      </trkpt>
      <trkpt lat="42.17351" lon="21.80332">
        <ele>441.119409</ele>
        <time>2022-04-10T13:14:10.106Z</time>
      </trkpt>
      <trkpt lat="42.1735" lon="21.80317">
        <ele>440.570297</ele>
        <time>2022-04-10T13:14:13.105Z</time>
      </trkpt>
      <trkpt lat="42.1735" lon="21.80303">
        <ele>440.059197</ele>
        <time>2022-04-10T13:14:16.104Z</time>
      </trkpt>
      <trkpt lat="42.17349" lon="21.80288">
        <ele>439.482921</ele>
        <time>2022-04-10T13:14:20.112Z</time>
      </trkpt>
      <trkpt lat="42.17348" lon="21.80274">
        <ele>438.966036</ele>
        <time>2022-04-10T13:14:24.101Z</time>
      </trkpt>
      <trkpt lat="42.17347" lon="21.80259">
        <ele>438.398109</ele>
        <time>2022-04-10T13:14:28.136Z</time>
      </trkpt>
      <trkpt lat="42.17347" lon="21.80244">
        <ele>437.82776</ele>
        <time>2022-04-10T13:14:32.118Z</time>
      </trkpt>
      <trkpt lat="42.17347" lon="21.80231">
        <ele>437.356341</ele>
        <time>2022-04-10T13:14:35.101Z</time>
      </trkpt>
      <trkpt lat="42.17349" lon="21.80216">
        <ele>436.780859</ele>
        <time>2022-04-10T13:14:39.110Z</time>
      </trkpt>
      <trkpt lat="42.17348" lon="21.80204">
        <ele>436.322718</ele>
        <time>2022-04-10T13:14:43.116Z</time>
      </trkpt>
      <trkpt lat="42.17346" lon="21.80191">
        <ele>435.828775</ele>
        <time>2022-04-10T13:14:48.110Z</time>
      </trkpt>
      <trkpt lat="42.17347" lon="21.80177">
        <ele>435.298262</ele>
        <time>2022-04-10T13:14:54.134Z</time>
      </trkpt>
      <trkpt lat="42.17346" lon="21.80163">
        <ele>435.849098</ele>
        <time>2022-04-10T13:15:00.105Z</time>
      </trkpt>
      <trkpt lat="42.17346" lon="21.80151">
        <ele>436.363758</ele>
        <time>2022-04-10T13:15:05.108Z</time>
      </trkpt>
      <trkpt lat="42.17347" lon="21.80137">
        <ele>436.961642</ele>
        <time>2022-04-10T13:15:11.106Z</time>
      </trkpt>
      <trkpt lat="42.17346" lon="21.80124">
        <ele>437.5198</ele>
        <time>2022-04-10T13:15:17.117Z</time>
      </trkpt>
      <trkpt lat="42.17347" lon="21.8011">
        <ele>438.106291</ele>
        <time>2022-04-10T13:15:24.104Z</time>
      </trkpt>
      <trkpt lat="42.17346" lon="21.80097">
        <ele>438.659917</ele>
        <time>2022-04-10T13:15:30.092Z</time>
      </trkpt>
      <trkpt lat="42.17345" lon="21.80084">
        <ele>439.186994</ele>
        <time>2022-04-10T13:15:37.095Z</time>
      </trkpt>
      <trkpt lat="42.17345" lon="21.8007">
        <ele>439.777119</ele>
        <time>2022-04-10T13:15:44.116Z</time>
      </trkpt>
      <trkpt lat="42.17345" lon="21.80056">
        <ele>440.379806</ele>
        <time>2022-04-10T13:15:51.120Z</time>
      </trkpt>
      <trkpt lat="42.17346" lon="21.80043">
        <ele>440.934813</ele>
        <time>2022-04-10T13:15:57.110Z</time>
      </trkpt>
      <trkpt lat="42.17346" lon="21.8003">
        <ele>441.46189</ele>
        <time>2022-04-10T13:16:03.094Z</time>
      </trkpt>
      <trkpt lat="42.17345" lon="21.80018">
        <ele>442.006023</ele>
        <time>2022-04-10T13:16:10.107Z</time>
      </trkpt>
      <trkpt lat="42.17345" lon="21.80005">
        <ele>442.549711</ele>
        <time>2022-04-10T13:16:16.150Z</time>
      </trkpt>
      <trkpt lat="42.17347" lon="21.79991">
        <ele>443.14434</ele>
        <time>2022-04-10T13:16:22.140Z</time>
      </trkpt>
      <trkpt lat="42.17346" lon="21.79977">
        <ele>443.702064</ele>
        <time>2022-04-10T13:16:29.100Z</time>
      </trkpt>
      <trkpt lat="42.17346" lon="21.79965">
        <ele>444.241537</ele>
        <time>2022-04-10T13:16:35.104Z</time>
      </trkpt>
      <trkpt lat="42.17346" lon="21.79951">
        <ele>444.81051</ele>
        <time>2022-04-10T13:16:42.100Z</time>
      </trkpt>
      <trkpt lat="42.17346" lon="21.79938">
        <ele>445.375497</ele>
        <time>2022-04-10T13:16:49.119Z</time>
      </trkpt>
      <trkpt lat="42.17345" lon="21.79924">
        <ele>445.925642</ele>
        <time>2022-04-10T13:16:56.149Z</time>
      </trkpt>
      <trkpt lat="42.17345" lon="21.79911">
        <ele>446.465844</ele>
        <time>2022-04-10T13:17:03.105Z</time>
      </trkpt>
      <trkpt lat="42.17346" lon="21.79898">
        <ele>447.01114</ele>
        <time>2022-04-10T13:17:10.092Z</time>
      </trkpt>
      <trkpt lat="42.17346" lon="21.79885">
        <ele>447.527377</ele>
        <time>2022-04-10T13:17:16.109Z</time>
      </trkpt>
      <trkpt lat="42.17344" lon="21.79873">
        <ele>448.022929</ele>
        <time>2022-04-10T13:17:22.104Z</time>
      </trkpt>
      <trkpt lat="42.17344" lon="21.79859">
        <ele>448.570944</ele>
        <time>2022-04-10T13:17:29.147Z</time>
      </trkpt>
      <trkpt lat="42.17344" lon="21.79846">
        <ele>449.096585</ele>
        <time>2022-04-10T13:17:35.100Z</time>
      </trkpt>
      <trkpt lat="42.17343" lon="21.79833">
        <ele>449.638682</ele>
        <time>2022-04-10T13:17:42.110Z</time>
      </trkpt>
      <trkpt lat="42.17344" lon="21.79819">
        <ele>450.186567</ele>
        <time>2022-04-10T13:17:49.096Z</time>
      </trkpt>
      <trkpt lat="42.17345" lon="21.79807">
        <ele>450.681794</ele>
        <time>2022-04-10T13:17:56.117Z</time>
      </trkpt>
      <trkpt lat="42.17344" lon="21.79795">
        <ele>451.187359</ele>
        <time>2022-04-10T13:18:02.103Z</time>
      </trkpt>
      <trkpt lat="42.17345" lon="21.79782">
        <ele>451.719701</ele>
        <time>2022-04-10T13:18:08.157Z</time>
      </trkpt>
      <trkpt lat="42.17346" lon="21.79768">
        <ele>452.260997</ele>
        <time>2022-04-10T13:18:14.108Z</time>
      </trkpt>
      <trkpt lat="42.17345" lon="21.79756">
        <ele>452.760924</ele>
        <time>2022-04-10T13:18:19.120Z</time>
      </trkpt>
      <trkpt lat="42.17346" lon="21.79743">
        <ele>453.289799</ele>
        <time>2022-04-10T13:18:24.102Z</time>
      </trkpt>
      <trkpt lat="42.17345" lon="21.79729">
        <ele>453.839995</ele>
        <time>2022-04-10T13:18:29.101Z</time>
      </trkpt>
      <trkpt lat="42.17344" lon="21.79717">
        <ele>454.330017</ele>
        <time>2022-04-10T13:18:33.138Z</time>
      </trkpt>
      <trkpt lat="42.17344" lon="21.79702">
        <ele>454.938864</ele>
        <time>2022-04-10T13:18:38.122Z</time>
      </trkpt>
      <trkpt lat="42.17343" lon="21.79689">
        <ele>455.269777</ele>
        <time>2022-04-10T13:18:42.105Z</time>
      </trkpt>
      <trkpt lat="42.17344" lon="21.79677">
        <ele>455.184853</ele>
        <time>2022-04-10T13:18:46.099Z</time>
      </trkpt>
      <trkpt lat="42.17343" lon="21.79664">
        <ele>455.097892</ele>
        <time>2022-04-10T13:18:50.114Z</time>
      </trkpt>
      <trkpt lat="42.17344" lon="21.79651">
        <ele>455.003292</ele>
        <time>2022-04-10T13:18:54.109Z</time>
      </trkpt>
      <trkpt lat="42.17344" lon="21.79637">
        <ele>454.909987</ele>
        <time>2022-04-10T13:18:58.101Z</time>
      </trkpt>
      <trkpt lat="42.17344" lon="21.79622">
        <ele>454.804275</ele>
        <time>2022-04-10T13:19:02.104Z</time>
      </trkpt>
      <trkpt lat="42.17344" lon="21.79607">
        <ele>454.698562</ele>
        <time>2022-04-10T13:19:06.107Z</time>
      </trkpt>
      <trkpt lat="42.17343" lon="21.79591">
        <ele>454.590815</ele>
        <time>2022-04-10T13:19:10.090Z</time>
      </trkpt>
      <trkpt lat="42.17344" lon="21.79577">
        <ele>454.493837</ele>
        <time>2022-04-10T13:19:14.102Z</time>
      </trkpt>
      <trkpt lat="42.17344" lon="21.79563">
        <ele>454.391455</ele>
        <time>2022-04-10T13:19:18.117Z</time>
      </trkpt>
      <trkpt lat="42.17343" lon="21.79548">
        <ele>454.285793</ele>
        <time>2022-04-10T13:19:22.122Z</time>
      </trkpt>
      <trkpt lat="42.17344" lon="21.79532">
        <ele>454.175781</ele>
        <time>2022-04-10T13:19:26.109Z</time>
      </trkpt>
      <trkpt lat="42.17344" lon="21.79516">
        <ele>454.066559</ele>
        <time>2022-04-10T13:19:30.102Z</time>
      </trkpt>
      <trkpt lat="42.17343" lon="21.79501">
        <ele>453.958681</ele>
        <time>2022-04-10T13:19:34.109Z</time>
      </trkpt>
      <trkpt lat="42.17343" lon="21.79488">
        <ele>453.87384</ele>
        <time>2022-04-10T13:19:37.113Z</time>
      </trkpt>
      <trkpt lat="42.17343" lon="21.79473">
        <ele>453.764574</ele>
        <time>2022-04-10T13:19:41.101Z</time>
      </trkpt>
      <trkpt lat="42.17343" lon="21.79458">
        <ele>453.659585</ele>
        <time>2022-04-10T13:19:45.103Z</time>
      </trkpt>
      <trkpt lat="42.17343" lon="21.79442">
        <ele>453.670076</ele>
        <time>2022-04-10T13:19:49.109Z</time>
      </trkpt>
      <trkpt lat="42.17344" lon="21.79429">
        <ele>453.754858</ele>
        <time>2022-04-10T13:19:52.107Z</time>
      </trkpt>
      <trkpt lat="42.17344" lon="21.79417">
        <ele>453.841002</ele>
        <time>2022-04-10T13:19:55.108Z</time>
      </trkpt>
      <trkpt lat="42.17345" lon="21.79404">
        <ele>453.929136</ele>
        <time>2022-04-10T13:19:58.098Z</time>
      </trkpt>
      <trkpt lat="42.17344" lon="21.79391">
        <ele>454.014663</ele>
        <time>2022-04-10T13:20:01.134Z</time>
      </trkpt>
      <trkpt lat="42.17342" lon="21.79376">
        <ele>454.124404</ele>
        <time>2022-04-10T13:20:05.161Z</time>
      </trkpt>
      <trkpt lat="42.1734" lon="21.79363">
        <ele>454.212277</ele>
        <time>2022-04-10T13:20:08.108Z</time>
      </trkpt>
      <trkpt lat="42.17337" lon="21.79351">
        <ele>454.296409</ele>
        <time>2022-04-10T13:20:11.118Z</time>
      </trkpt>
      <trkpt lat="42.17332" lon="21.79339">
        <ele>454.391685</ele>
        <time>2022-04-10T13:20:14.117Z</time>
      </trkpt>
      <trkpt lat="42.17325" lon="21.79331">
        <ele>454.479521</ele>
        <time>2022-04-10T13:20:17.119Z</time>
      </trkpt>
      <trkpt lat="42.17317" lon="21.79319">
        <ele>454.585262</ele>
        <time>2022-04-10T13:20:21.108Z</time>
      </trkpt>
      <trkpt lat="42.17308" lon="21.79308">
        <ele>454.696374</ele>
        <time>2022-04-10T13:20:26.116Z</time>
      </trkpt>
      <trkpt lat="42.17301" lon="21.79297">
        <ele>454.797732</ele>
        <time>2022-04-10T13:20:29.114Z</time>
      </trkpt>
      <trkpt lat="42.17295" lon="21.79286">
        <ele>454.892076</ele>
        <time>2022-04-10T13:20:32.110Z</time>
      </trkpt>
      <trkpt lat="42.17289" lon="21.79274">
        <ele>454.985858</ele>
        <time>2022-04-10T13:20:35.100Z</time>
      </trkpt>
      <trkpt lat="42.17284" lon="21.79264">
        <ele>455.072496</ele>
        <time>2022-04-10T13:20:38.106Z</time>
      </trkpt>
      <trkpt lat="42.17278" lon="21.79251">
        <ele>455.176986</ele>
        <time>2022-04-10T13:20:42.124Z</time>
      </trkpt>
      <trkpt lat="42.17273" lon="21.7924">
        <ele>455.26467</ele>
        <time>2022-04-10T13:20:46.109Z</time>
      </trkpt>
      <trkpt lat="42.17272" lon="21.79226">
        <ele>455.503265</ele>
        <time>2022-04-10T13:20:52.175Z</time>
      </trkpt>
      <trkpt lat="42.17275" lon="21.79214">
        <ele>455.720447</ele>
        <time>2022-04-10T13:20:58.109Z</time>
      </trkpt>
      <trkpt lat="42.17278" lon="21.79202">
        <ele>455.940683</ele>
        <time>2022-04-10T13:21:04.099Z</time>
      </trkpt>
      <trkpt lat="42.17282" lon="21.7919">
        <ele>456.157279</ele>
        <time>2022-04-10T13:21:09.111Z</time>
      </trkpt>
      <trkpt lat="42.17285" lon="21.79178">
        <ele>456.368663</ele>
        <time>2022-04-10T13:21:14.107Z</time>
      </trkpt>
      <trkpt lat="42.17288" lon="21.79166">
        <ele>456.585693</ele>
        <time>2022-04-10T13:21:20.110Z</time>
      </trkpt>
      <trkpt lat="42.17293" lon="21.79154">
        <ele>456.826122</ele>
        <time>2022-04-10T13:21:27.093Z</time>
      </trkpt>
      <trkpt lat="42.17299" lon="21.79143">
        <ele>457.055575</ele>
        <time>2022-04-10T13:21:33.134Z</time>
      </trkpt>
      <trkpt lat="42.17303" lon="21.79132">
        <ele>457.262719</ele>
        <time>2022-04-10T13:21:38.139Z</time>
      </trkpt>
      <trkpt lat="42.17309" lon="21.79122">
        <ele>457.4769</ele>
        <time>2022-04-10T13:21:43.108Z</time>
      </trkpt>
      <trkpt lat="42.17315" lon="21.79113">
        <ele>457.694365</ele>
        <time>2022-04-10T13:21:48.116Z</time>
      </trkpt>
      <trkpt lat="42.17324" lon="21.79092">
        <ele>458.111957</ele>
        <time>2022-04-10T13:24:49.098Z</time>
      </trkpt>
      <trkpt lat="42.1733" lon="21.7908">
        <ele>458.350746</ele>
        <time>2022-04-10T13:24:54.134Z</time>
      </trkpt>
      <trkpt lat="42.17337" lon="21.79069">
        <ele>458.594986</ele>
        <time>2022-04-10T13:24:58.113Z</time>
      </trkpt>
      <trkpt lat="42.17343" lon="21.79056">
        <ele>458.859826</ele>
        <time>2022-04-10T13:25:01.096Z</time>
      </trkpt>
      <trkpt lat="42.17349" lon="21.79043">
        <ele>459.113388</ele>
        <time>2022-04-10T13:25:04.095Z</time>
      </trkpt>
      <trkpt lat="42.17356" lon="21.79031">
        <ele>459.385056</ele>
        <time>2022-04-10T13:25:07.117Z</time>
      </trkpt>
      <trkpt lat="42.17362" lon="21.79021">
        <ele>459.17661</ele>
        <time>2022-04-10T13:25:09.107Z</time>
      </trkpt>
      <trkpt lat="42.17367" lon="21.79011">
        <ele>458.901132</ele>
        <time>2022-04-10T13:25:11.102Z</time>
      </trkpt>
      <trkpt lat="42.17372" lon="21.79">
        <ele>458.612785</ele>
        <time>2022-04-10T13:25:13.126Z</time>
      </trkpt>
      <trkpt lat="42.17377" lon="21.7899">
        <ele>458.345874</ele>
        <time>2022-04-10T13:25:15.121Z</time>
      </trkpt>
      <trkpt lat="42.17383" lon="21.78979">
        <ele>458.053009</ele>
        <time>2022-04-10T13:25:17.116Z</time>
      </trkpt>
      <trkpt lat="42.17389" lon="21.78967">
        <ele>457.735432</ele>
        <time>2022-04-10T13:25:19.103Z</time>
      </trkpt>
      <trkpt lat="42.17397" lon="21.78956">
        <ele>457.413176</ele>
        <time>2022-04-10T13:25:21.105Z</time>
      </trkpt>
      <trkpt lat="42.17404" lon="21.78945">
        <ele>457.080411</ele>
        <time>2022-04-10T13:25:23.107Z</time>
      </trkpt>
      <trkpt lat="42.17412" lon="21.78932">
        <ele>456.712957</ele>
        <time>2022-04-10T13:25:25.115Z</time>
      </trkpt>
      <trkpt lat="42.17419" lon="21.78918">
        <ele>456.345876</ele>
        <time>2022-04-10T13:25:27.112Z</time>
      </trkpt>
      <trkpt lat="42.17425" lon="21.78904">
        <ele>455.993203</ele>
        <time>2022-04-10T13:25:29.113Z</time>
      </trkpt>
      <trkpt lat="42.17429" lon="21.78888">
        <ele>455.619488</ele>
        <time>2022-04-10T13:25:31.134Z</time>
      </trkpt>
      <trkpt lat="42.17431" lon="21.78871">
        <ele>455.241078</ele>
        <time>2022-04-10T13:25:33.125Z</time>
      </trkpt>
      <trkpt lat="42.17432" lon="21.78858">
        <ele>454.954382</ele>
        <time>2022-04-10T13:25:35.122Z</time>
      </trkpt>
      <trkpt lat="42.17432" lon="21.78843">
        <ele>454.61759</ele>
        <time>2022-04-10T13:25:38.152Z</time>
      </trkpt>
      <trkpt lat="42.17429" lon="21.78829">
        <ele>454.29711</ele>
        <time>2022-04-10T13:25:41.124Z</time>
      </trkpt>
      <trkpt lat="42.17424" lon="21.78814">
        <ele>454.253759</ele>
        <time>2022-04-10T13:25:44.156Z</time>
      </trkpt>
      <trkpt lat="42.17419" lon="21.78801">
        <ele>454.656286</ele>
        <time>2022-04-10T13:25:47.112Z</time>
      </trkpt>
      <trkpt lat="42.17414" lon="21.78788">
        <ele>455.037307</ele>
        <time>2022-04-10T13:25:51.113Z</time>
      </trkpt>
      <trkpt lat="42.17409" lon="21.78778">
        <ele>455.377929</ele>
        <time>2022-04-10T13:25:55.096Z</time>
      </trkpt>
      <trkpt lat="42.17402" lon="21.78767">
        <ele>455.779253</ele>
        <time>2022-04-10T13:25:59.107Z</time>
      </trkpt>
      <trkpt lat="42.17396" lon="21.78757">
        <ele>456.117955</ele>
        <time>2022-04-10T13:26:02.115Z</time>
      </trkpt>
      <trkpt lat="42.17389" lon="21.78746">
        <ele>456.512978</ele>
        <time>2022-04-10T13:26:06.104Z</time>
      </trkpt>
      <trkpt lat="42.17382" lon="21.78737">
        <ele>456.859585</ele>
        <time>2022-04-10T13:26:10.108Z</time>
      </trkpt>
      <trkpt lat="42.17375" lon="21.7873">
        <ele>457.189158</ele>
        <time>2022-04-10T13:26:14.107Z</time>
      </trkpt>
      <trkpt lat="42.17366" lon="21.7872">
        <ele>457.591823</ele>
        <time>2022-04-10T13:26:19.103Z</time>
      </trkpt>
      <trkpt lat="42.17357" lon="21.78711">
        <ele>457.996886</ele>
        <time>2022-04-10T13:26:24.117Z</time>
      </trkpt>
      <trkpt lat="42.17349" lon="21.78703">
        <ele>458.372906</ele>
        <time>2022-04-10T13:26:29.113Z</time>
      </trkpt>
      <trkpt lat="42.17341" lon="21.78695">
        <ele>458.719039</ele>
        <time>2022-04-10T13:26:34.159Z</time>
      </trkpt>
      <trkpt lat="42.17334" lon="21.78687">
        <ele>459.059315</ele>
        <time>2022-04-10T13:26:39.106Z</time>
      </trkpt>
      <trkpt lat="42.17328" lon="21.78677">
        <ele>459.400342</ele>
        <time>2022-04-10T13:26:44.102Z</time>
      </trkpt>
      <trkpt lat="42.17325" lon="21.78665">
        <ele>459.74473</ele>
        <time>2022-04-10T13:26:51.115Z</time>
      </trkpt>
      <trkpt lat="42.17327" lon="21.78651">
        <ele>460.120686</ele>
        <time>2022-04-10T13:27:00.110Z</time>
      </trkpt>
      <trkpt lat="42.17331" lon="21.78638">
        <ele>460.483994</ele>
        <time>2022-04-10T13:27:07.134Z</time>
      </trkpt>
      <trkpt lat="42.17331" lon="21.78625">
        <ele>461.023859</ele>
        <time>2022-04-10T13:27:15.147Z</time>
      </trkpt>
      <trkpt lat="42.17331" lon="21.78612">
        <ele>461.732964</ele>
        <time>2022-04-10T13:27:23.140Z</time>
      </trkpt>
      <trkpt lat="42.17333" lon="21.78598">
        <ele>462.432357</ele>
        <time>2022-04-10T13:27:30.109Z</time>
      </trkpt>
      <trkpt lat="42.17335" lon="21.78585">
        <ele>463.123888</ele>
        <time>2022-04-10T13:27:38.112Z</time>
      </trkpt>
      <trkpt lat="42.17337" lon="21.78571">
        <ele>463.843033</ele>
        <time>2022-04-10T13:27:45.100Z</time>
      </trkpt>
      <trkpt lat="42.17339" lon="21.78559">
        <ele>464.505382</ele>
        <time>2022-04-10T13:27:51.110Z</time>
      </trkpt>
      <trkpt lat="42.1734" lon="21.78546">
        <ele>465.158289</ele>
        <time>2022-04-10T13:27:57.118Z</time>
      </trkpt>
      <trkpt lat="42.1734" lon="21.78532">
        <ele>465.856317</ele>
        <time>2022-04-10T13:28:06.116Z</time>
      </trkpt>
      <trkpt lat="42.17338" lon="21.78519">
        <ele>466.572954</ele>
        <time>2022-04-10T13:28:15.097Z</time>
      </trkpt>
      <trkpt lat="42.1734" lon="21.78506">
        <ele>467.244331</ele>
        <time>2022-04-10T13:28:22.112Z</time>
      </trkpt>
      <trkpt lat="42.17341" lon="21.78493">
        <ele>467.908171</ele>
        <time>2022-04-10T13:28:30.122Z</time>
      </trkpt>
      <trkpt lat="42.17343" lon="21.7848">
        <ele>468.611107</ele>
        <time>2022-04-10T13:28:37.122Z</time>
      </trkpt>
      <trkpt lat="42.17345" lon="21.78466">
        <ele>469.315509</ele>
        <time>2022-04-10T13:28:44.120Z</time>
      </trkpt>
      <trkpt lat="42.17345" lon="21.78453">
        <ele>469.998421</ele>
        <time>2022-04-10T13:28:52.101Z</time>
      </trkpt>
      <trkpt lat="42.17346" lon="21.78441">
        <ele>470.628057</ele>
        <time>2022-04-10T13:28:59.120Z</time>
      </trkpt>
      <trkpt lat="42.17345" lon="21.78429">
        <ele>471.258815</ele>
        <time>2022-04-10T13:29:06.106Z</time>
      </trkpt>
      <trkpt lat="42.17344" lon="21.78416">
        <ele>471.917536</ele>
        <time>2022-04-10T13:29:15.109Z</time>
      </trkpt>
      <trkpt lat="42.1734" lon="21.78404">
        <ele>472.610919</ele>
        <time>2022-04-10T13:29:23.137Z</time>
      </trkpt>
      <trkpt lat="42.17335" lon="21.78393">
        <ele>473.16054</ele>
        <time>2022-04-10T13:29:32.108Z</time>
      </trkpt>
      <trkpt lat="42.1733" lon="21.78381">
        <ele>473.464946</ele>
        <time>2022-04-10T13:29:39.100Z</time>
      </trkpt>
      <trkpt lat="42.17325" lon="21.78369">
        <ele>473.779208</ele>
        <time>2022-04-10T13:29:47.102Z</time>
      </trkpt>
      <trkpt lat="42.17321" lon="21.78358">
        <ele>474.066214</ele>
        <time>2022-04-10T13:29:55.119Z</time>
      </trkpt>
      <trkpt lat="42.17317" lon="21.78346">
        <ele>474.372989</ele>
        <time>2022-04-10T13:30:04.152Z</time>
      </trkpt>
      <trkpt lat="42.17312" lon="21.78334">
        <ele>474.680877</ele>
        <time>2022-04-10T13:30:12.122Z</time>
      </trkpt>
      <trkpt lat="42.17308" lon="21.78322">
        <ele>474.981197</ele>
        <time>2022-04-10T13:30:19.119Z</time>
      </trkpt>
      <trkpt lat="42.17304" lon="21.78311">
        <ele>475.261181</ele>
        <time>2022-04-10T13:30:25.099Z</time>
      </trkpt>
      <trkpt lat="42.17299" lon="21.78299">
        <ele>475.568516</ele>
        <time>2022-04-10T13:30:31.105Z</time>
      </trkpt>
      <trkpt lat="42.17295" lon="21.78284">
        <ele>475.915261</ele>
        <time>2022-04-10T13:30:36.121Z</time>
      </trkpt>
      <trkpt lat="42.17291" lon="21.78271">
        <ele>476.246917</ele>
        <time>2022-04-10T13:30:41.127Z</time>
      </trkpt>
      <trkpt lat="42.17289" lon="21.78257">
        <ele>476.566982</ele>
        <time>2022-04-10T13:30:46.126Z</time>
      </trkpt>
      <trkpt lat="42.17284" lon="21.78247">
        <ele>476.844626</ele>
        <time>2022-04-10T13:30:52.101Z</time>
      </trkpt>
      <trkpt lat="42.17275" lon="21.7823">
        <ele>477.316672</ele>
        <time>2022-04-10T13:36:06.208Z</time>
      </trkpt>
      <trkpt lat="42.17271" lon="21.78216">
        <ele>477.662837</ele>
        <time>2022-04-10T13:36:10.121Z</time>
      </trkpt>
      <trkpt lat="42.17265" lon="21.78203">
        <ele>478.003931</ele>
        <time>2022-04-10T13:36:14.096Z</time>
      </trkpt>
      <trkpt lat="42.17259" lon="21.78193">
        <ele>478.293718</ele>
        <time>2022-04-10T13:36:17.117Z</time>
      </trkpt>
      <trkpt lat="42.17255" lon="21.78182">
        <ele>478.573027</ele>
        <time>2022-04-10T13:36:20.149Z</time>
      </trkpt>
      <trkpt lat="42.17253" lon="21.7817">
        <ele>478.608186</ele>
        <time>2022-04-10T13:36:23.100Z</time>
      </trkpt>
      <trkpt lat="42.17249" lon="21.78159">
        <ele>478.623717</ele>
        <time>2022-04-10T13:36:26.106Z</time>
      </trkpt>
      <trkpt lat="42.17244" lon="21.78144">
        <ele>478.644136</ele>
        <time>2022-04-10T13:36:30.108Z</time>
      </trkpt>
      <trkpt lat="42.17239" lon="21.78134">
        <ele>478.659993</ele>
        <time>2022-04-10T13:36:33.114Z</time>
      </trkpt>
      <trkpt lat="42.17232" lon="21.78125">
        <ele>478.676392</ele>
        <time>2022-04-10T13:36:36.109Z</time>
      </trkpt>
      <trkpt lat="42.17225" lon="21.78117">
        <ele>478.693002</ele>
        <time>2022-04-10T13:36:39.155Z</time>
      </trkpt>
      <trkpt lat="42.17217" lon="21.78109">
        <ele>478.708998</ele>
        <time>2022-04-10T13:36:42.123Z</time>
      </trkpt>
      <trkpt lat="42.17209" lon="21.78102">
        <ele>478.724844</ele>
        <time>2022-04-10T13:36:45.096Z</time>
      </trkpt>
      <trkpt lat="42.17201" lon="21.78096">
        <ele>478.74145</ele>
        <time>2022-04-10T13:36:48.147Z</time>
      </trkpt>
      <trkpt lat="42.17191" lon="21.78091">
        <ele>478.758455</ele>
        <time>2022-04-10T13:36:51.099Z</time>
      </trkpt>
      <trkpt lat="42.17182" lon="21.78085">
        <ele>478.775773</ele>
        <time>2022-04-10T13:36:54.098Z</time>
      </trkpt>
      <trkpt lat="42.17172" lon="21.7808">
        <ele>478.794254</ele>
        <time>2022-04-10T13:36:57.113Z</time>
      </trkpt>
      <trkpt lat="42.17163" lon="21.78075">
        <ele>478.810647</ele>
        <time>2022-04-10T13:37:00.109Z</time>
      </trkpt>
      <trkpt lat="42.17155" lon="21.78071">
        <ele>478.826085</ele>
        <time>2022-04-10T13:37:03.120Z</time>
      </trkpt>
      <trkpt lat="42.17144" lon="21.78067">
        <ele>478.845027</ele>
        <time>2022-04-10T13:37:07.123Z</time>
      </trkpt>
      <trkpt lat="42.17133" lon="21.78062">
        <ele>478.864297</ele>
        <time>2022-04-10T13:37:11.108Z</time>
      </trkpt>
      <trkpt lat="42.17125" lon="21.78056">
        <ele>478.880567</ele>
        <time>2022-04-10T13:37:14.103Z</time>
      </trkpt>
      <trkpt lat="42.17116" lon="21.78048">
        <ele>478.898451</ele>
        <time>2022-04-10T13:37:17.098Z</time>
      </trkpt>
      <trkpt lat="42.17108" lon="21.78039">
        <ele>478.624094</ele>
        <time>2022-04-10T13:37:20.104Z</time>
      </trkpt>
      <trkpt lat="42.17104" lon="21.78028">
        <ele>478.343141</ele>
        <time>2022-04-10T13:37:23.104Z</time>
      </trkpt>
      <trkpt lat="42.17104" lon="21.78015">
        <ele>478.057641</ele>
        <time>2022-04-10T13:37:26.096Z</time>
      </trkpt>
      <trkpt lat="42.17106" lon="21.78003">
        <ele>477.769497</ele>
        <time>2022-04-10T13:37:29.108Z</time>
      </trkpt>
      <trkpt lat="42.1711" lon="21.77989">
        <ele>477.445503</ele>
        <time>2022-04-10T13:37:32.099Z</time>
      </trkpt>
      <trkpt lat="42.17115" lon="21.77975">
        <ele>477.079252</ele>
        <time>2022-04-10T13:37:35.117Z</time>
      </trkpt>
      <trkpt lat="42.17122" lon="21.7796">
        <ele>476.681773</ele>
        <time>2022-04-10T13:37:38.165Z</time>
      </trkpt>
      <trkpt lat="42.17129" lon="21.77946">
        <ele>476.303346</ele>
        <time>2022-04-10T13:37:41.098Z</time>
      </trkpt>
      <trkpt lat="42.17133" lon="21.77932">
        <ele>475.963879</ele>
        <time>2022-04-10T13:37:44.112Z</time>
      </trkpt>
      <trkpt lat="42.17137" lon="21.77921">
        <ele>475.67683</ele>
        <time>2022-04-10T13:37:46.132Z</time>
      </trkpt>
      <trkpt lat="42.17141" lon="21.77907">
        <ele>475.350707</ele>
        <time>2022-04-10T13:37:49.148Z</time>
      </trkpt>
      <trkpt lat="42.17145" lon="21.77896">
        <ele>475.063906</ele>
        <time>2022-04-10T13:37:52.144Z</time>
      </trkpt>
      <trkpt lat="42.17146" lon="21.77883">
        <ele>474.771553</ele>
        <time>2022-04-10T13:37:55.138Z</time>
      </trkpt>
      <trkpt lat="42.17148" lon="21.77869">
        <ele>474.454633</ele>
        <time>2022-04-10T13:37:58.118Z</time>
      </trkpt>
      <trkpt lat="42.17147" lon="21.77857">
        <ele>474.167227</ele>
        <time>2022-04-10T13:38:01.138Z</time>
      </trkpt>
      <trkpt lat="42.17145" lon="21.77845">
        <ele>473.887031</ele>
        <time>2022-04-10T13:38:04.123Z</time>
      </trkpt>
      <trkpt lat="42.17141" lon="21.77831">
        <ele>473.555656</ele>
        <time>2022-04-10T13:38:08.097Z</time>
      </trkpt>
      <trkpt lat="42.17137" lon="21.77818">
        <ele>473.810181</ele>
        <time>2022-04-10T13:38:13.099Z</time>
      </trkpt>
      <trkpt lat="42.1713" lon="21.77807">
        <ele>474.617247</ele>
        <time>2022-04-10T13:38:19.112Z</time>
      </trkpt>
      <trkpt lat="42.17123" lon="21.77798">
        <ele>475.345843</ele>
        <time>2022-04-10T13:38:24.120Z</time>
      </trkpt>
      <trkpt lat="42.17116" lon="21.77788">
        <ele>476.102217</ele>
        <time>2022-04-10T13:38:29.110Z</time>
      </trkpt>
      <trkpt lat="42.17108" lon="21.77779">
        <ele>476.905911</ele>
        <time>2022-04-10T13:38:35.108Z</time>
      </trkpt>
      <trkpt lat="42.171" lon="21.7777">
        <ele>477.693399</ele>
        <time>2022-04-10T13:38:42.097Z</time>
      </trkpt>
      <trkpt lat="42.17091" lon="21.77764">
        <ele>478.447119</ele>
        <time>2022-04-10T13:38:49.097Z</time>
      </trkpt>
      <trkpt lat="42.17083" lon="21.77757">
        <ele>479.171113</ele>
        <time>2022-04-10T13:38:56.122Z</time>
      </trkpt>
      <trkpt lat="42.17077" lon="21.77746">
        <ele>479.910437</ele>
        <time>2022-04-10T13:39:03.108Z</time>
      </trkpt>
      <trkpt lat="42.17073" lon="21.77735">
        <ele>480.620958</ele>
        <time>2022-04-10T13:39:10.106Z</time>
      </trkpt>
      <trkpt lat="42.17068" lon="21.77724">
        <ele>481.316029</ele>
        <time>2022-04-10T13:39:17.116Z</time>
      </trkpt>
      <trkpt lat="42.17065" lon="21.77711">
        <ele>482.069536</ele>
        <time>2022-04-10T13:39:24.118Z</time>
      </trkpt>
      <trkpt lat="42.17062" lon="21.77699">
        <ele>482.784085</ele>
        <time>2022-04-10T13:39:32.095Z</time>
      </trkpt>
      <trkpt lat="42.17059" lon="21.77687">
        <ele>483.469289</ele>
        <time>2022-04-10T13:39:39.115Z</time>
      </trkpt>
      <trkpt lat="42.17055" lon="21.77675">
        <ele>484.21202</ele>
        <time>2022-04-10T13:39:47.121Z</time>
      </trkpt>
      <trkpt lat="42.17052" lon="21.77662">
        <ele>484.967699</ele>
        <time>2022-04-10T13:39:55.109Z</time>
      </trkpt>
      <trkpt lat="42.17049" lon="21.77651">
        <ele>485.652904</ele>
        <time>2022-04-10T13:40:02.119Z</time>
      </trkpt>
      <trkpt lat="42.17046" lon="21.77639">
        <ele>486.351541</ele>
        <time>2022-04-10T13:40:09.154Z</time>
      </trkpt>
      <trkpt lat="42.17042" lon="21.77627">
        <ele>487.039718</ele>
        <time>2022-04-10T13:40:16.123Z</time>
      </trkpt>
      <trkpt lat="42.17039" lon="21.77615">
        <ele>487.673011</ele>
        <time>2022-04-10T13:40:24.128Z</time>
      </trkpt>
      <trkpt lat="42.17035" lon="21.77603">
        <ele>488.323241</ele>
        <time>2022-04-10T13:40:32.119Z</time>
      </trkpt>
      <trkpt lat="42.1703" lon="21.77591">
        <ele>488.978599</ele>
        <time>2022-04-10T13:40:39.102Z</time>
      </trkpt>
      <trkpt lat="42.17026" lon="21.7758">
        <ele>489.586833</ele>
        <time>2022-04-10T13:40:46.137Z</time>
      </trkpt>
      <trkpt lat="42.17023" lon="21.77568">
        <ele>490.191236</ele>
        <time>2022-04-10T13:40:54.123Z</time>
      </trkpt>
      <trkpt lat="42.17021" lon="21.77555">
        <ele>490.816425</ele>
        <time>2022-04-10T13:41:01.115Z</time>
      </trkpt>
      <trkpt lat="42.17017" lon="21.77543">
        <ele>491.424794</ele>
        <time>2022-04-10T13:41:08.120Z</time>
      </trkpt>
      <trkpt lat="42.17014" lon="21.7753">
        <ele>492.115021</ele>
        <time>2022-04-10T13:41:15.117Z</time>
      </trkpt>
      <trkpt lat="42.17011" lon="21.77518">
        <ele>492.70823</ele>
        <time>2022-04-10T13:41:21.125Z</time>
      </trkpt>
      <trkpt lat="42.17008" lon="21.77506">
        <ele>493.316715</ele>
        <time>2022-04-10T13:41:27.118Z</time>
      </trkpt>
      <trkpt lat="42.17004" lon="21.77495">
        <ele>493.911381</ele>
        <time>2022-04-10T13:41:34.143Z</time>
      </trkpt>
      <trkpt lat="42.17001" lon="21.77483">
        <ele>494.545031</ele>
        <time>2022-04-10T13:41:41.133Z</time>
      </trkpt>
      <trkpt lat="42.16998" lon="21.77471">
        <ele>495.170677</ele>
        <time>2022-04-10T13:41:48.106Z</time>
      </trkpt>
      <trkpt lat="42.16994" lon="21.77459">
        <ele>495.797375</ele>
        <time>2022-04-10T13:41:54.103Z</time>
      </trkpt>
      <trkpt lat="42.16992" lon="21.77447">
        <ele>496.39256</ele>
        <time>2022-04-10T13:42:00.111Z</time>
      </trkpt>
      <trkpt lat="42.16989" lon="21.77435">
        <ele>496.990395</ele>
        <time>2022-04-10T13:42:06.137Z</time>
      </trkpt>
      <trkpt lat="42.16985" lon="21.77423">
        <ele>497.621285</ele>
        <time>2022-04-10T13:42:12.108Z</time>
      </trkpt>
      <trkpt lat="42.16982" lon="21.77411">
        <ele>498.263974</ele>
        <time>2022-04-10T13:42:18.136Z</time>
      </trkpt>
      <trkpt lat="42.16977" lon="21.77398">
        <ele>498.801194</ele>
        <time>2022-04-10T13:42:25.117Z</time>
      </trkpt>
      <trkpt lat="42.16974" lon="21.77387">
        <ele>499.090363</ele>
        <time>2022-04-10T13:42:31.120Z</time>
      </trkpt>
      <trkpt lat="42.16971" lon="21.77375">
        <ele>499.381951</ele>
        <time>2022-04-10T13:42:38.117Z</time>
      </trkpt>
      <trkpt lat="42.16967" lon="21.77362">
        <ele>499.714299</ele>
        <time>2022-04-10T13:42:45.120Z</time>
      </trkpt>
      <trkpt lat="42.16964" lon="21.77351">
        <ele>500.007831</ele>
        <time>2022-04-10T13:42:51.118Z</time>
      </trkpt>
      <trkpt lat="42.1696" lon="21.77337">
        <ele>500.344367</ele>
        <time>2022-04-10T13:42:58.119Z</time>
      </trkpt>
      <trkpt lat="42.16957" lon="21.77325">
        <ele>500.648854</ele>
        <time>2022-04-10T13:43:04.118Z</time>
      </trkpt>
      <trkpt lat="42.16953" lon="21.77313">
        <ele>500.968842</ele>
        <time>2022-04-10T13:43:11.134Z</time>
      </trkpt>
      <trkpt lat="42.1695" lon="21.77301">
        <ele>501.273268</ele>
        <time>2022-04-10T13:43:17.110Z</time>
      </trkpt>
      <trkpt lat="42.16947" lon="21.77289">
        <ele>501.574398</ele>
        <time>2022-04-10T13:43:23.116Z</time>
      </trkpt>
      <trkpt lat="42.16943" lon="21.77275">
        <ele>501.904354</ele>
        <time>2022-04-10T13:43:30.113Z</time>
      </trkpt>
      <trkpt lat="42.1694" lon="21.77263">
        <ele>502.212147</ele>
        <time>2022-04-10T13:43:37.133Z</time>
      </trkpt>
      <trkpt lat="42.16938" lon="21.77251">
        <ele>502.519319</ele>
        <time>2022-04-10T13:43:44.114Z</time>
      </trkpt>
      <trkpt lat="42.16934" lon="21.77237">
        <ele>502.850327</ele>
        <time>2022-04-10T13:43:51.135Z</time>
      </trkpt>
      <trkpt lat="42.16931" lon="21.77225">
        <ele>503.156873</ele>
        <time>2022-04-10T13:43:57.114Z</time>
      </trkpt>
      <trkpt lat="42.16929" lon="21.77212">
        <ele>503.473373</ele>
        <time>2022-04-10T13:44:04.109Z</time>
      </trkpt>
      <trkpt lat="42.16925" lon="21.772">
        <ele>503.77786</ele>
        <time>2022-04-10T13:44:10.124Z</time>
      </trkpt>
      <trkpt lat="42.16922" lon="21.77187">
        <ele>504.113326</ele>
        <time>2022-04-10T13:44:16.119Z</time>
      </trkpt>
      <trkpt lat="42.16917" lon="21.77174">
        <ele>504.393584</ele>
        <time>2022-04-10T13:44:22.122Z</time>
      </trkpt>
      <trkpt lat="42.16913" lon="21.77161">
        <ele>504.135864</ele>
        <time>2022-04-10T13:44:28.109Z</time>
      </trkpt>
      <trkpt lat="42.1691" lon="21.77149">
        <ele>503.915814</ele>
        <time>2022-04-10T13:44:32.146Z</time>
      </trkpt>
      <trkpt lat="42.16906" lon="21.77135">
        <ele>503.641831</ele>
        <time>2022-04-10T13:44:36.126Z</time>
      </trkpt>
      <trkpt lat="42.16903" lon="21.77124">
        <ele>503.420733</ele>
        <time>2022-04-10T13:44:39.115Z</time>
      </trkpt>
      <trkpt lat="42.169" lon="21.77111">
        <ele>503.176535</ele>
        <time>2022-04-10T13:44:42.116Z</time>
      </trkpt>
      <trkpt lat="42.16897" lon="21.77097">
        <ele>502.908609</ele>
        <time>2022-04-10T13:44:45.120Z</time>
      </trkpt>
      <trkpt lat="42.16893" lon="21.77082">
        <ele>502.617738</ele>
        <time>2022-04-10T13:44:48.119Z</time>
      </trkpt>
      <trkpt lat="42.16889" lon="21.77065">
        <ele>502.29503</ele>
        <time>2022-04-10T13:44:51.114Z</time>
      </trkpt>
      <trkpt lat="42.16886" lon="21.77053">
        <ele>502.066187</ele>
        <time>2022-04-10T13:44:53.157Z</time>
      </trkpt>
      <trkpt lat="42.16881" lon="21.77036">
        <ele>501.731872</ele>
        <time>2022-04-10T13:44:56.131Z</time>
      </trkpt>
      <trkpt lat="42.16878" lon="21.77024">
        <ele>501.488721</ele>
        <time>2022-04-10T13:44:58.119Z</time>
      </trkpt>
      <trkpt lat="42.16874" lon="21.77009">
        <ele>501.214961</ele>
        <time>2022-04-10T13:45:00.118Z</time>
      </trkpt>
      <trkpt lat="42.16869" lon="21.76995">
        <ele>500.935162</ele>
        <time>2022-04-10T13:45:02.117Z</time>
      </trkpt>
      <trkpt lat="42.16865" lon="21.7698">
        <ele>500.639215</ele>
        <time>2022-04-10T13:45:04.110Z</time>
      </trkpt>
      <trkpt lat="42.16861" lon="21.76963">
        <ele>500.318545</ele>
        <time>2022-04-10T13:45:06.114Z</time>
      </trkpt>
      <trkpt lat="42.16856" lon="21.76946">
        <ele>499.938444</ele>
        <time>2022-04-10T13:45:08.127Z</time>
      </trkpt>
      <trkpt lat="42.1685" lon="21.76929">
        <ele>499.118153</ele>
        <time>2022-04-10T13:45:10.114Z</time>
      </trkpt>
      <trkpt lat="42.16845" lon="21.76912">
        <ele>498.309113</ele>
        <time>2022-04-10T13:45:12.095Z</time>
      </trkpt>
      <trkpt lat="42.1684" lon="21.76896">
        <ele>497.523413</ele>
        <time>2022-04-10T13:45:14.119Z</time>
      </trkpt>
      <trkpt lat="42.16836" lon="21.7688">
        <ele>496.781384</ele>
        <time>2022-04-10T13:45:16.138Z</time>
      </trkpt>
      <trkpt lat="42.16831" lon="21.76864">
        <ele>496.035397</ele>
        <time>2022-04-10T13:45:18.118Z</time>
      </trkpt>
      <trkpt lat="42.16828" lon="21.7685">
        <ele>495.364438</ele>
        <time>2022-04-10T13:45:20.115Z</time>
      </trkpt>
      <trkpt lat="42.16824" lon="21.76836">
        <ele>494.695433</ele>
        <time>2022-04-10T13:45:22.104Z</time>
      </trkpt>
      <trkpt lat="42.1682" lon="21.76821">
        <ele>493.972775</ele>
        <time>2022-04-10T13:45:24.122Z</time>
      </trkpt>
      <trkpt lat="42.16816" lon="21.76804">
        <ele>493.184809</ele>
        <time>2022-04-10T13:45:26.109Z</time>
      </trkpt>
      <trkpt lat="42.16811" lon="21.76787">
        <ele>492.390911</ele>
        <time>2022-04-10T13:45:28.129Z</time>
      </trkpt>
      <trkpt lat="42.16807" lon="21.76773">
        <ele>491.705069</ele>
        <time>2022-04-10T13:45:30.106Z</time>
      </trkpt>
      <trkpt lat="42.16803" lon="21.76761">
        <ele>491.131949</ele>
        <time>2022-04-10T13:45:32.117Z</time>
      </trkpt>
      <trkpt lat="42.16799" lon="21.76743">
        <ele>490.314443</ele>
        <time>2022-04-10T13:45:35.175Z</time>
      </trkpt>
      <trkpt lat="42.16796" lon="21.76731">
        <ele>489.712116</ele>
        <time>2022-04-10T13:45:37.135Z</time>
      </trkpt>
      <trkpt lat="42.16792" lon="21.76717">
        <ele>489.134453</ele>
        <time>2022-04-10T13:45:39.136Z</time>
      </trkpt>
      <trkpt lat="42.16789" lon="21.76703">
        <ele>488.752045</ele>
        <time>2022-04-10T13:45:41.112Z</time>
      </trkpt>
      <trkpt lat="42.16785" lon="21.76689">
        <ele>488.353871</ele>
        <time>2022-04-10T13:45:43.104Z</time>
      </trkpt>
      <trkpt lat="42.1678" lon="21.76674">
        <ele>487.95067</ele>
        <time>2022-04-10T13:45:45.125Z</time>
      </trkpt>
      <trkpt lat="42.16777" lon="21.76661">
        <ele>487.570762</ele>
        <time>2022-04-10T13:45:47.122Z</time>
      </trkpt>
      <trkpt lat="42.16773" lon="21.76648">
        <ele>487.218774</ele>
        <time>2022-04-10T13:45:49.108Z</time>
      </trkpt>
      <trkpt lat="42.16769" lon="21.76636">
        <ele>486.883854</ele>
        <time>2022-04-10T13:45:51.124Z</time>
      </trkpt>
      <trkpt lat="42.16765" lon="21.7662">
        <ele>486.441825</ele>
        <time>2022-04-10T13:45:54.114Z</time>
      </trkpt>
      <trkpt lat="42.16761" lon="21.76605">
        <ele>486.016844</ele>
        <time>2022-04-10T13:45:57.135Z</time>
      </trkpt>
      <trkpt lat="42.16757" lon="21.76591">
        <ele>485.629282</ele>
        <time>2022-04-10T13:46:00.130Z</time>
      </trkpt>
      <trkpt lat="42.16754" lon="21.76577">
        <ele>485.249126</ele>
        <time>2022-04-10T13:46:03.122Z</time>
      </trkpt>
      <trkpt lat="42.16751" lon="21.76564">
        <ele>484.901927</ele>
        <time>2022-04-10T13:46:06.125Z</time>
      </trkpt>
      <trkpt lat="42.16749" lon="21.7655">
        <ele>484.526217</ele>
        <time>2022-04-10T13:46:09.158Z</time>
      </trkpt>
      <trkpt lat="42.16745" lon="21.76533">
        <ele>484.081369</ele>
        <time>2022-04-10T13:46:12.122Z</time>
      </trkpt>
      <trkpt lat="42.16741" lon="21.76522">
        <ele>483.762222</ele>
        <time>2022-04-10T13:46:14.114Z</time>
      </trkpt>
      <trkpt lat="42.16738" lon="21.76509">
        <ele>483.405193</ele>
        <time>2022-04-10T13:46:16.122Z</time>
      </trkpt>
      <trkpt lat="42.16734" lon="21.76496">
        <ele>483.033719</ele>
        <time>2022-04-10T13:46:18.124Z</time>
      </trkpt>
      <trkpt lat="42.1673" lon="21.76483">
        <ele>482.779876</ele>
        <time>2022-04-10T13:46:20.113Z</time>
      </trkpt>
      <trkpt lat="42.16727" lon="21.76471">
        <ele>482.604001</ele>
        <time>2022-04-10T13:46:22.122Z</time>
      </trkpt>
      <trkpt lat="42.16723" lon="21.7646">
        <ele>482.424369</ele>
        <time>2022-04-10T13:46:24.121Z</time>
      </trkpt>
      <trkpt lat="42.16719" lon="21.76446">
        <ele>482.22266</ele>
        <time>2022-04-10T13:46:26.118Z</time>
      </trkpt>
      <trkpt lat="42.16716" lon="21.76433">
        <ele>482.021433</ele>
        <time>2022-04-10T13:46:28.114Z</time>
      </trkpt>
      <trkpt lat="42.16711" lon="21.76418">
        <ele>481.801186</ele>
        <time>2022-04-10T13:46:30.137Z</time>
      </trkpt>
      <trkpt lat="42.16707" lon="21.76403">
        <ele>481.56762</ele>
        <time>2022-04-10T13:46:32.102Z</time>
      </trkpt>
      <trkpt lat="42.16702" lon="21.76387">
        <ele>481.324042</ele>
        <time>2022-04-10T13:46:34.178Z</time>
      </trkpt>
      <trkpt lat="42.16697" lon="21.7637">
        <ele>481.064854</ele>
        <time>2022-04-10T13:46:36.142Z</time>
      </trkpt>
      <trkpt lat="42.16692" lon="21.76351">
        <ele>480.787721</ele>
        <time>2022-04-10T13:46:38.206Z</time>
      </trkpt>
      <trkpt lat="42.16687" lon="21.76332">
        <ele>480.500725</ele>
        <time>2022-04-10T13:46:40.109Z</time>
      </trkpt>
      <trkpt lat="42.16682" lon="21.76312">
        <ele>480.20319</ele>
        <time>2022-04-10T13:46:42.123Z</time>
      </trkpt>
      <trkpt lat="42.16676" lon="21.76293">
        <ele>479.909622</ele>
        <time>2022-04-10T13:46:44.122Z</time>
      </trkpt>
      <trkpt lat="42.1667" lon="21.76273">
        <ele>479.60412</ele>
        <time>2022-04-10T13:46:46.159Z</time>
      </trkpt>
      <trkpt lat="42.16665" lon="21.76252">
        <ele>479.261744</ele>
        <time>2022-04-10T13:46:48.155Z</time>
      </trkpt>
      <trkpt lat="42.16659" lon="21.76232">
        <ele>478.897296</ele>
        <time>2022-04-10T13:46:50.131Z</time>
      </trkpt>
      <trkpt lat="42.16653" lon="21.76212">
        <ele>478.541262</ele>
        <time>2022-04-10T13:46:52.097Z</time>
      </trkpt>
      <trkpt lat="42.16648" lon="21.76193">
        <ele>478.214835</ele>
        <time>2022-04-10T13:46:54.107Z</time>
      </trkpt>
      <trkpt lat="42.16643" lon="21.76177">
        <ele>477.921891</ele>
        <time>2022-04-10T13:46:56.104Z</time>
      </trkpt>
      <trkpt lat="42.16639" lon="21.76162">
        <ele>477.663148</ele>
        <time>2022-04-10T13:46:58.175Z</time>
      </trkpt>
      <trkpt lat="42.16633" lon="21.76143">
        <ele>477.32981</ele>
        <time>2022-04-10T13:47:01.132Z</time>
      </trkpt>
      <trkpt lat="42.16629" lon="21.76127">
        <ele>477.0415</ele>
        <time>2022-04-10T13:47:04.108Z</time>
      </trkpt>
      <trkpt lat="42.16625" lon="21.76114">
        <ele>476.804479</ele>
        <time>2022-04-10T13:47:07.105Z</time>
      </trkpt>
      <trkpt lat="42.16622" lon="21.76101">
        <ele>476.583578</ele>
        <time>2022-04-10T13:47:10.122Z</time>
      </trkpt>
      <trkpt lat="42.16619" lon="21.76088">
        <ele>476.359798</ele>
        <time>2022-04-10T13:47:13.154Z</time>
      </trkpt>
      <trkpt lat="42.16616" lon="21.76076">
        <ele>476.147628</ele>
        <time>2022-04-10T13:47:16.134Z</time>
      </trkpt>
      <trkpt lat="42.16613" lon="21.76064">
        <ele>475.929183</ele>
        <time>2022-04-10T13:47:19.119Z</time>
      </trkpt>
      <trkpt lat="42.16609" lon="21.76052">
        <ele>475.727901</ele>
        <time>2022-04-10T13:47:22.119Z</time>
      </trkpt>
      <trkpt lat="42.16606" lon="21.76039">
        <ele>475.494804</ele>
        <time>2022-04-10T13:47:26.106Z</time>
      </trkpt>
      <trkpt lat="42.16602" lon="21.76026">
        <ele>476.234173</ele>
        <time>2022-04-10T13:47:31.111Z</time>
      </trkpt>
      <trkpt lat="42.16598" lon="21.76013">
        <ele>477.097308</ele>
        <time>2022-04-10T13:47:37.112Z</time>
      </trkpt>
      <trkpt lat="42.16592" lon="21.76">
        <ele>477.946572</ele>
        <time>2022-04-10T13:47:43.136Z</time>
      </trkpt>
      <trkpt lat="42.16586" lon="21.7599">
        <ele>478.712296</ele>
        <time>2022-04-10T13:47:49.128Z</time>
      </trkpt>
      <trkpt lat="42.1658" lon="21.75981">
        <ele>479.435143</ele>
        <time>2022-04-10T13:47:55.098Z</time>
      </trkpt>
      <trkpt lat="42.16572" lon="21.75971">
        <ele>480.271428</ele>
        <time>2022-04-10T13:48:02.116Z</time>
      </trkpt>
      <trkpt lat="42.16565" lon="21.75962">
        <ele>481.051132</ele>
        <time>2022-04-10T13:48:09.118Z</time>
      </trkpt>
      <trkpt lat="42.16557" lon="21.75955">
        <ele>481.805753</ele>
        <time>2022-04-10T13:48:15.138Z</time>
      </trkpt>
      <trkpt lat="42.16551" lon="21.75947">
        <ele>482.522151</ele>
        <time>2022-04-10T13:48:22.115Z</time>
      </trkpt>
      <trkpt lat="42.16544" lon="21.75939">
        <ele>483.266253</ele>
        <time>2022-04-10T13:48:29.127Z</time>
      </trkpt>
      <trkpt lat="42.16536" lon="21.75931">
        <ele>484.00123</ele>
        <time>2022-04-10T13:48:37.147Z</time>
      </trkpt>
      <trkpt lat="42.16529" lon="21.75923">
        <ele>484.798114</ele>
        <time>2022-04-10T13:48:45.159Z</time>
      </trkpt>
      <trkpt lat="42.16522" lon="21.75914">
        <ele>485.557882</ele>
        <time>2022-04-10T13:48:53.124Z</time>
      </trkpt>
      <trkpt lat="42.16515" lon="21.75906">
        <ele>486.314001</ele>
        <time>2022-04-10T13:49:01.136Z</time>
      </trkpt>
      <trkpt lat="42.16508" lon="21.75898">
        <ele>487.040431</ele>
        <time>2022-04-10T13:49:09.142Z</time>
      </trkpt>
      <trkpt lat="42.165" lon="21.7589">
        <ele>487.825599</ele>
        <time>2022-04-10T13:49:18.127Z</time>
      </trkpt>
      <trkpt lat="42.16492" lon="21.75881">
        <ele>488.605453</ele>
        <time>2022-04-10T13:49:26.126Z</time>
      </trkpt>
      <trkpt lat="42.16485" lon="21.75874">
        <ele>489.357975</ele>
        <time>2022-04-10T13:49:34.113Z</time>
      </trkpt>
      <trkpt lat="42.16477" lon="21.75867">
        <ele>489.906841</ele>
        <time>2022-04-10T13:49:43.113Z</time>
      </trkpt>
      <trkpt lat="42.16471" lon="21.75857">
        <ele>490.097289</ele>
        <time>2022-04-10T13:49:50.128Z</time>
      </trkpt>
      <trkpt lat="42.16465" lon="21.75847">
        <ele>490.290809</ele>
        <time>2022-04-10T13:49:57.117Z</time>
      </trkpt>
      <trkpt lat="42.16459" lon="21.75838">
        <ele>490.484558</ele>
        <time>2022-04-10T13:50:04.117Z</time>
      </trkpt>
      <trkpt lat="42.16454" lon="21.75827">
        <ele>490.68778</ele>
        <time>2022-04-10T13:50:12.115Z</time>
      </trkpt>
      <trkpt lat="42.16449" lon="21.75816">
        <ele>490.892961</ele>
        <time>2022-04-10T13:50:19.130Z</time>
      </trkpt>
      <trkpt lat="42.16443" lon="21.75804">
        <ele>491.112065</ele>
        <time>2022-04-10T13:50:26.120Z</time>
      </trkpt>
      <trkpt lat="42.16438" lon="21.75792">
        <ele>491.318581</ele>
        <time>2022-04-10T13:50:33.115Z</time>
      </trkpt>
      <trkpt lat="42.16434" lon="21.7578">
        <ele>491.533751</ele>
        <time>2022-04-10T13:50:39.128Z</time>
      </trkpt>
      <trkpt lat="42.1643" lon="21.75767">
        <ele>491.750899</ele>
        <time>2022-04-10T13:50:44.119Z</time>
      </trkpt>
      <trkpt lat="42.16425" lon="21.75756">
        <ele>491.941783</ele>
        <time>2022-04-10T13:50:48.121Z</time>
      </trkpt>
      <trkpt lat="42.16418" lon="21.75745">
        <ele>492.162066</ele>
        <time>2022-04-10T13:50:52.123Z</time>
      </trkpt>
      <trkpt lat="42.16413" lon="21.75731">
        <ele>492.415749</ele>
        <time>2022-04-10T13:50:56.124Z</time>
      </trkpt>
      <trkpt lat="42.16408" lon="21.75717">
        <ele>492.653752</ele>
        <time>2022-04-10T13:50:59.114Z</time>
      </trkpt>
      <trkpt lat="42.16402" lon="21.75702">
        <ele>492.912101</ele>
        <time>2022-04-10T13:51:02.110Z</time>
      </trkpt>
      <trkpt lat="42.16397" lon="21.75691">
        <ele>493.106717</ele>
        <time>2022-04-10T13:51:04.112Z</time>
      </trkpt>
      <trkpt lat="42.16393" lon="21.7568">
        <ele>493.307427</ele>
        <time>2022-04-10T13:51:06.121Z</time>
      </trkpt>
      <trkpt lat="42.16388" lon="21.75668">
        <ele>493.516194</ele>
        <time>2022-04-10T13:51:08.129Z</time>
      </trkpt>
      <trkpt lat="42.16383" lon="21.75655">
        <ele>493.354418</ele>
        <time>2022-04-10T13:51:10.113Z</time>
      </trkpt>
      <trkpt lat="42.16378" lon="21.75641">
        <ele>492.963371</ele>
        <time>2022-04-10T13:51:12.153Z</time>
      </trkpt>
      <trkpt lat="42.16372" lon="21.75626">
        <ele>492.545851</ele>
        <time>2022-04-10T13:51:14.128Z</time>
      </trkpt>
      <trkpt lat="42.16366" lon="21.75611">
        <ele>492.103689</ele>
        <time>2022-04-10T13:51:16.107Z</time>
      </trkpt>
      <trkpt lat="42.16359" lon="21.75595">
        <ele>491.643586</ele>
        <time>2022-04-10T13:51:18.138Z</time>
      </trkpt>
      <trkpt lat="42.16352" lon="21.75578">
        <ele>491.162389</ele>
        <time>2022-04-10T13:51:20.122Z</time>
      </trkpt>
      <trkpt lat="42.16346" lon="21.7556">
        <ele>490.677228</ele>
        <time>2022-04-10T13:51:22.108Z</time>
      </trkpt>
      <trkpt lat="42.16339" lon="21.75543">
        <ele>490.203302</ele>
        <time>2022-04-10T13:51:24.118Z</time>
      </trkpt>
      <trkpt lat="42.16332" lon="21.75526">
        <ele>489.706834</ele>
        <time>2022-04-10T13:51:26.213Z</time>
      </trkpt>
      <trkpt lat="42.16325" lon="21.75508">
        <ele>489.210374</ele>
        <time>2022-04-10T13:51:28.108Z</time>
      </trkpt>
      <trkpt lat="42.16319" lon="21.75492">
        <ele>488.760241</ele>
        <time>2022-04-10T13:51:30.118Z</time>
      </trkpt>
      <trkpt lat="42.16313" lon="21.75478">
        <ele>488.351275</ele>
        <time>2022-04-10T13:51:32.135Z</time>
      </trkpt>
      <trkpt lat="42.16308" lon="21.75465">
        <ele>487.979719</ele>
        <time>2022-04-10T13:51:34.117Z</time>
      </trkpt>
      <trkpt lat="42.16302" lon="21.75451">
        <ele>487.593399</ele>
        <time>2022-04-10T13:51:36.123Z</time>
      </trkpt>
      <trkpt lat="42.16298" lon="21.75437">
        <ele>487.312386</ele>
        <time>2022-04-10T13:51:38.137Z</time>
      </trkpt>
      <trkpt lat="42.16292" lon="21.75423">
        <ele>487.013628</ele>
        <time>2022-04-10T13:51:40.096Z</time>
      </trkpt>
      <trkpt lat="42.16286" lon="21.7541">
        <ele>486.720323</ele>
        <time>2022-04-10T13:51:42.104Z</time>
      </trkpt>
      <trkpt lat="42.16281" lon="21.75396">
        <ele>486.442384</ele>
        <time>2022-04-10T13:51:44.189Z</time>
      </trkpt>
      <trkpt lat="42.16276" lon="21.75383">
        <ele>486.166684</ele>
        <time>2022-04-10T13:51:46.127Z</time>
      </trkpt>
      <trkpt lat="42.16271" lon="21.75369">
        <ele>485.885964</ele>
        <time>2022-04-10T13:51:48.132Z</time>
      </trkpt>
      <trkpt lat="42.16265" lon="21.75355">
        <ele>485.586806</ele>
        <time>2022-04-10T13:51:50.155Z</time>
      </trkpt>
      <trkpt lat="42.16259" lon="21.7534">
        <ele>485.271116</ele>
        <time>2022-04-10T13:51:52.169Z</time>
      </trkpt>
      <trkpt lat="42.16252" lon="21.75324">
        <ele>484.938081</ele>
        <time>2022-04-10T13:51:54.121Z</time>
      </trkpt>
      <trkpt lat="42.16245" lon="21.7531">
        <ele>484.616182</ele>
        <time>2022-04-10T13:51:56.129Z</time>
      </trkpt>
      <trkpt lat="42.16238" lon="21.75295">
        <ele>484.294318</ele>
        <time>2022-04-10T13:51:58.150Z</time>
      </trkpt>
      <trkpt lat="42.16231" lon="21.7528">
        <ele>483.958115</ele>
        <time>2022-04-10T13:52:00.116Z</time>
      </trkpt>
      <trkpt lat="42.16224" lon="21.75263">
        <ele>483.607324</ele>
        <time>2022-04-10T13:52:02.157Z</time>
      </trkpt>
      <trkpt lat="42.16218" lon="21.75246">
        <ele>483.254373</ele>
        <time>2022-04-10T13:52:04.170Z</time>
      </trkpt>
      <trkpt lat="42.16211" lon="21.75229">
        <ele>482.910627</ele>
        <time>2022-04-10T13:52:06.142Z</time>
      </trkpt>
      <trkpt lat="42.16204" lon="21.75213">
        <ele>482.573939</ele>
        <time>2022-04-10T13:52:08.136Z</time>
      </trkpt>
      <trkpt lat="42.16198" lon="21.75197">
        <ele>482.257341</ele>
        <time>2022-04-10T13:52:10.142Z</time>
      </trkpt>
      <trkpt lat="42.16192" lon="21.7518">
        <ele>481.933385</ele>
        <time>2022-04-10T13:52:12.126Z</time>
      </trkpt>
      <trkpt lat="42.16187" lon="21.75167">
        <ele>481.666514</ele>
        <time>2022-04-10T13:52:14.141Z</time>
      </trkpt>
      <trkpt lat="42.16182" lon="21.75152">
        <ele>481.376393</ele>
        <time>2022-04-10T13:52:17.115Z</time>
      </trkpt>
      <trkpt lat="42.16178" lon="21.75141">
        <ele>481.157267</ele>
        <time>2022-04-10T13:52:20.110Z</time>
      </trkpt>
      <trkpt lat="42.16174" lon="21.7513">
        <ele>480.938917</ele>
        <time>2022-04-10T13:52:23.124Z</time>
      </trkpt>
      <trkpt lat="42.1617" lon="21.75119">
        <ele>480.721368</ele>
        <time>2022-04-10T13:52:26.117Z</time>
      </trkpt>
      <trkpt lat="42.16165" lon="21.75106">
        <ele>480.474579</ele>
        <time>2022-04-10T13:52:29.113Z</time>
      </trkpt>
      <trkpt lat="42.16158" lon="21.75096">
        <ele>480.219027</ele>
        <time>2022-04-10T13:52:32.177Z</time>
      </trkpt>
      <trkpt lat="42.16151" lon="21.75081">
        <ele>479.911433</ele>
        <time>2022-04-10T13:52:35.233Z</time>
      </trkpt>
      <trkpt lat="42.16146" lon="21.75065">
        <ele>479.607041</ele>
        <time>2022-04-10T13:52:38.099Z</time>
      </trkpt>
      <trkpt lat="42.16139" lon="21.75049">
        <ele>479.278331</ele>
        <time>2022-04-10T13:52:41.101Z</time>
      </trkpt>
      <trkpt lat="42.16135" lon="21.75037">
        <ele>479.049475</ele>
        <time>2022-04-10T13:52:43.117Z</time>
      </trkpt>
      <trkpt lat="42.16131" lon="21.75025">
        <ele>478.817417</ele>
        <time>2022-04-10T13:52:45.119Z</time>
      </trkpt>
      <trkpt lat="42.16125" lon="21.75009">
        <ele>478.549603</ele>
        <time>2022-04-10T13:52:48.114Z</time>
      </trkpt>
      <trkpt lat="42.16119" lon="21.74995">
        <ele>478.293792</ele>
        <time>2022-04-10T13:52:51.164Z</time>
      </trkpt>
      <trkpt lat="42.16113" lon="21.74981">
        <ele>478.048341</ele>
        <time>2022-04-10T13:52:54.117Z</time>
      </trkpt>
      <trkpt lat="42.16107" lon="21.74966">
        <ele>477.801442</ele>
        <time>2022-04-10T13:52:57.104Z</time>
      </trkpt>
      <trkpt lat="42.16101" lon="21.74952">
        <ele>477.547899</ele>
        <time>2022-04-10T13:53:00.114Z</time>
      </trkpt>
      <trkpt lat="42.16095" lon="21.74936">
        <ele>477.291685</ele>
        <time>2022-04-10T13:53:03.117Z</time>
      </trkpt>
      <trkpt lat="42.1609" lon="21.74923">
        <ele>477.063818</ele>
        <time>2022-04-10T13:53:06.115Z</time>
      </trkpt>
      <trkpt lat="42.16086" lon="21.7491">
        <ele>476.850174</ele>
        <time>2022-04-10T13:53:10.100Z</time>
      </trkpt>
      <trkpt lat="42.16081" lon="21.74897">
        <ele>476.620971</ele>
        <time>2022-04-10T13:53:13.146Z</time>
      </trkpt>
      <trkpt lat="42.16076" lon="21.74884">
        <ele>476.41325</ele>
        <time>2022-04-10T13:53:15.112Z</time>
      </trkpt>
      <trkpt lat="42.1607" lon="21.74873">
        <ele>476.198689</ele>
        <time>2022-04-10T13:53:17.122Z</time>
      </trkpt>
      <trkpt lat="42.16064" lon="21.74859">
        <ele>475.96647</ele>
        <time>2022-04-10T13:53:19.150Z</time>
      </trkpt>
      <trkpt lat="42.16058" lon="21.74845">
        <ele>475.712667</ele>
        <time>2022-04-10T13:53:21.110Z</time>
      </trkpt>
      <trkpt lat="42.16051" lon="21.74828">
        <ele>475.434174</ele>
        <time>2022-04-10T13:53:23.120Z</time>
      </trkpt>
      <trkpt lat="42.16045" lon="21.74812">
        <ele>475.153035</ele>
        <time>2022-04-10T13:53:25.173Z</time>
      </trkpt>
      <trkpt lat="42.16038" lon="21.74795">
        <ele>474.389879</ele>
        <time>2022-04-10T13:53:27.100Z</time>
      </trkpt>
      <trkpt lat="42.16032" lon="21.74778">
        <ele>473.594764</ele>
        <time>2022-04-10T13:53:29.102Z</time>
      </trkpt>
      <trkpt lat="42.16025" lon="21.74761">
        <ele>472.765857</ele>
        <time>2022-04-10T13:53:31.126Z</time>
      </trkpt>
      <trkpt lat="42.16018" lon="21.74743">
        <ele>471.936949</ele>
        <time>2022-04-10T13:53:33.117Z</time>
      </trkpt>
      <trkpt lat="42.16011" lon="21.74725">
        <ele>471.077163</ele>
        <time>2022-04-10T13:53:35.109Z</time>
      </trkpt>
      <trkpt lat="42.16004" lon="21.74707">
        <ele>470.212283</ele>
        <time>2022-04-10T13:53:37.113Z</time>
      </trkpt>
      <trkpt lat="42.15997" lon="21.74688">
        <ele>469.344811</ele>
        <time>2022-04-10T13:53:39.116Z</time>
      </trkpt>
      <trkpt lat="42.15989" lon="21.7467">
        <ele>468.450254</ele>
        <time>2022-04-10T13:53:41.108Z</time>
      </trkpt>
      <trkpt lat="42.15982" lon="21.74651">
        <ele>467.57028</ele>
        <time>2022-04-10T13:53:43.117Z</time>
      </trkpt>
      <trkpt lat="42.15974" lon="21.74634">
        <ele>466.734177</ele>
        <time>2022-04-10T13:53:45.124Z</time>
      </trkpt>
      <trkpt lat="42.15967" lon="21.74616">
        <ele>465.888879</ele>
        <time>2022-04-10T13:53:47.143Z</time>
      </trkpt>
      <trkpt lat="42.1596" lon="21.74599">
        <ele>465.064652</ele>
        <time>2022-04-10T13:53:49.108Z</time>
      </trkpt>
      <trkpt lat="42.15954" lon="21.74583">
        <ele>464.37952</ele>
        <time>2022-04-10T13:53:51.124Z</time>
      </trkpt>
      <trkpt lat="42.15948" lon="21.74568">
        <ele>463.775667</ele>
        <time>2022-04-10T13:53:53.107Z</time>
      </trkpt>
      <trkpt lat="42.15943" lon="21.74555">
        <ele>463.237747</ele>
        <time>2022-04-10T13:53:55.103Z</time>
      </trkpt>
      <trkpt lat="42.15938" lon="21.7454">
        <ele>462.644949</ele>
        <time>2022-04-10T13:53:58.110Z</time>
      </trkpt>
      <trkpt lat="42.15932" lon="21.74528">
        <ele>462.110981</ele>
        <time>2022-04-10T13:54:01.117Z</time>
      </trkpt>
      <trkpt lat="42.15925" lon="21.74512">
        <ele>461.427839</ele>
        <time>2022-04-10T13:54:04.115Z</time>
      </trkpt>
      <trkpt lat="42.15921" lon="21.745">
        <ele>460.92136</ele>
        <time>2022-04-10T13:54:06.099Z</time>
      </trkpt>
      <trkpt lat="42.15915" lon="21.74487">
        <ele>460.386727</ele>
        <time>2022-04-10T13:54:08.100Z</time>
      </trkpt>
      <trkpt lat="42.1591" lon="21.74473">
        <ele>459.798194</ele>
        <time>2022-04-10T13:54:10.144Z</time>
      </trkpt>
      <trkpt lat="42.15904" lon="21.74458">
        <ele>459.172085</ele>
        <time>2022-04-10T13:54:12.112Z</time>
      </trkpt>
      <trkpt lat="42.15898" lon="21.74443">
        <ele>458.533006</ele>
        <time>2022-04-10T13:54:14.121Z</time>
      </trkpt>
      <trkpt lat="42.15892" lon="21.74427">
        <ele>457.891606</ele>
        <time>2022-04-10T13:54:16.108Z</time>
      </trkpt>
      <trkpt lat="42.15886" lon="21.74413">
        <ele>457.280774</ele>
        <time>2022-04-10T13:54:18.134Z</time>
      </trkpt>
      <trkpt lat="42.1588" lon="21.74398">
        <ele>456.671371</ele>
        <time>2022-04-10T13:54:20.104Z</time>
      </trkpt>
      <trkpt lat="42.15874" lon="21.74384">
        <ele>456.100661</ele>
        <time>2022-04-10T13:54:22.121Z</time>
      </trkpt>
      <trkpt lat="42.15869" lon="21.74371">
        <ele>455.563909</ele>
        <time>2022-04-10T13:54:24.136Z</time>
      </trkpt>
      <trkpt lat="42.15863" lon="21.74357">
        <ele>455.007792</ele>
        <time>2022-04-10T13:54:26.118Z</time>
      </trkpt>
      <trkpt lat="42.15858" lon="21.74344">
        <ele>454.462847</ele>
        <time>2022-04-10T13:54:28.116Z</time>
      </trkpt>
      <trkpt lat="42.15853" lon="21.7433">
        <ele>453.909029</ele>
        <time>2022-04-10T13:54:30.159Z</time>
      </trkpt>
      <trkpt lat="42.15846" lon="21.74315">
        <ele>453.299968</ele>
        <time>2022-04-10T13:54:32.147Z</time>
      </trkpt>
      <trkpt lat="42.15839" lon="21.743">
        <ele>452.678481</ele>
        <time>2022-04-10T13:54:34.126Z</time>
      </trkpt>
      <trkpt lat="42.15833" lon="21.74285">
        <ele>452.055369</ele>
        <time>2022-04-10T13:54:36.109Z</time>
      </trkpt>
      <trkpt lat="42.15826" lon="21.74269">
        <ele>451.389733</ele>
        <time>2022-04-10T13:54:38.118Z</time>
      </trkpt>
      <trkpt lat="42.15819" lon="21.74252">
        <ele>450.694542</ele>
        <time>2022-04-10T13:54:40.108Z</time>
      </trkpt>
      <trkpt lat="42.15813" lon="21.74234">
        <ele>450.001931</ele>
        <time>2022-04-10T13:54:42.119Z</time>
      </trkpt>
      <trkpt lat="42.15806" lon="21.74217">
        <ele>449.312143</ele>
        <time>2022-04-10T13:54:44.129Z</time>
      </trkpt>
      <trkpt lat="42.15799" lon="21.74201">
        <ele>448.64568</ele>
        <time>2022-04-10T13:54:46.125Z</time>
      </trkpt>
      <trkpt lat="42.15793" lon="21.74187">
        <ele>448.069363</ele>
        <time>2022-04-10T13:54:48.138Z</time>
      </trkpt>
      <trkpt lat="42.15789" lon="21.74175">
        <ele>447.604007</ele>
        <time>2022-04-10T13:54:51.128Z</time>
      </trkpt>
      <trkpt lat="42.15785" lon="21.74162">
        <ele>447.135278</ele>
        <time>2022-04-10T13:54:56.101Z</time>
      </trkpt>
      <trkpt lat="42.15781" lon="21.74151">
        <ele>446.724124</ele>
        <time>2022-04-10T13:54:59.115Z</time>
      </trkpt>
      <trkpt lat="42.15776" lon="21.74138">
        <ele>446.232807</ele>
        <time>2022-04-10T13:55:02.133Z</time>
      </trkpt>
      <trkpt lat="42.1577" lon="21.74125">
        <ele>445.704281</ele>
        <time>2022-04-10T13:55:05.122Z</time>
      </trkpt>
      <trkpt lat="42.15763" lon="21.74111">
        <ele>445.141762</ele>
        <time>2022-04-10T13:55:08.125Z</time>
      </trkpt>
      <trkpt lat="42.15757" lon="21.74097">
        <ele>444.614513</ele>
        <time>2022-04-10T13:55:10.132Z</time>
      </trkpt>
      <trkpt lat="42.1575" lon="21.74081">
        <ele>444.006102</ele>
        <time>2022-04-10T13:55:12.158Z</time>
      </trkpt>
      <trkpt lat="42.15744" lon="21.74065">
        <ele>443.374434</ele>
        <time>2022-04-10T13:55:14.105Z</time>
      </trkpt>
      <trkpt lat="42.15737" lon="21.74048">
        <ele>442.751339</ele>
        <time>2022-04-10T13:55:16.126Z</time>
      </trkpt>
      <trkpt lat="42.15731" lon="21.74032">
        <ele>442.124783</ele>
        <time>2022-04-10T13:55:18.109Z</time>
      </trkpt>
      <trkpt lat="42.15724" lon="21.74014">
        <ele>441.453533</ele>
        <time>2022-04-10T13:55:20.111Z</time>
      </trkpt>
      <trkpt lat="42.15716" lon="21.73996">
        <ele>440.745828</ele>
        <time>2022-04-10T13:55:22.175Z</time>
      </trkpt>
      <trkpt lat="42.15708" lon="21.73977">
        <ele>440.013252</ele>
        <time>2022-04-10T13:55:24.125Z</time>
      </trkpt>
      <trkpt lat="42.157" lon="21.73958">
        <ele>439.278694</ele>
        <time>2022-04-10T13:55:26.124Z</time>
      </trkpt>
      <trkpt lat="42.15693" lon="21.7394">
        <ele>438.542995</ele>
        <time>2022-04-10T13:55:28.132Z</time>
      </trkpt>
      <trkpt lat="42.15687" lon="21.73923">
        <ele>437.853914</ele>
        <time>2022-04-10T13:55:30.138Z</time>
      </trkpt>
      <trkpt lat="42.15681" lon="21.73906">
        <ele>437.188664</ele>
        <time>2022-04-10T13:55:32.119Z</time>
      </trkpt>
      <trkpt lat="42.15674" lon="21.7389">
        <ele>436.516844</ele>
        <time>2022-04-10T13:55:34.113Z</time>
      </trkpt>
      <trkpt lat="42.15668" lon="21.73873">
        <ele>435.846974</ele>
        <time>2022-04-10T13:55:36.129Z</time>
      </trkpt>
      <trkpt lat="42.15662" lon="21.73858">
        <ele>435.194993</ele>
        <time>2022-04-10T13:55:38.142Z</time>
      </trkpt>
      <trkpt lat="42.15656" lon="21.73843">
        <ele>434.581039</ele>
        <time>2022-04-10T13:55:40.117Z</time>
      </trkpt>
      <trkpt lat="42.1565" lon="21.73829">
        <ele>434.020758</ele>
        <time>2022-04-10T13:55:42.128Z</time>
      </trkpt>
      <trkpt lat="42.15645" lon="21.73817">
        <ele>433.505786</ele>
        <time>2022-04-10T13:55:44.156Z</time>
      </trkpt>
      <trkpt lat="42.1564" lon="21.73805">
        <ele>432.997349</ele>
        <time>2022-04-10T13:55:46.123Z</time>
      </trkpt>
      <trkpt lat="42.15635" lon="21.73793">
        <ele>432.513287</ele>
        <time>2022-04-10T13:55:48.132Z</time>
      </trkpt>
      <trkpt lat="42.15631" lon="21.73782">
        <ele>432.073359</ele>
        <time>2022-04-10T13:55:50.150Z</time>
      </trkpt>
      <trkpt lat="42.15627" lon="21.73766">
        <ele>431.459717</ele>
        <time>2022-04-10T13:55:53.114Z</time>
      </trkpt>
      <trkpt lat="42.15621" lon="21.73755">
        <ele>430.969603</ele>
        <time>2022-04-10T13:55:55.125Z</time>
      </trkpt>
      <trkpt lat="42.15616" lon="21.73742">
        <ele>430.63444</ele>
        <time>2022-04-10T13:55:57.123Z</time>
      </trkpt>
      <trkpt lat="42.15611" lon="21.73728">
        <ele>431.043622</ele>
        <time>2022-04-10T13:55:59.136Z</time>
      </trkpt>
      <trkpt lat="42.15606" lon="21.73716">
        <ele>431.437758</ele>
        <time>2022-04-10T13:56:01.139Z</time>
      </trkpt>
      <trkpt lat="42.15601" lon="21.73704">
        <ele>431.814524</ele>
        <time>2022-04-10T13:56:03.123Z</time>
      </trkpt>
      <trkpt lat="42.15596" lon="21.73688">
        <ele>432.313072</ele>
        <time>2022-04-10T13:56:06.173Z</time>
      </trkpt>
      <trkpt lat="42.1559" lon="21.73673">
        <ele>432.783327</ele>
        <time>2022-04-10T13:56:09.131Z</time>
      </trkpt>
      <trkpt lat="42.15585" lon="21.73658">
        <ele>433.23675</ele>
        <time>2022-04-10T13:56:12.162Z</time>
      </trkpt>
      <trkpt lat="42.15579" lon="21.73643">
        <ele>433.695333</ele>
        <time>2022-04-10T13:56:15.151Z</time>
      </trkpt>
      <trkpt lat="42.15574" lon="21.7363">
        <ele>434.112029</ele>
        <time>2022-04-10T13:56:18.121Z</time>
      </trkpt>
      <trkpt lat="42.15568" lon="21.73618">
        <ele>434.538824</ele>
        <time>2022-04-10T13:56:22.115Z</time>
      </trkpt>
      <trkpt lat="42.15563" lon="21.73606">
        <ele>434.911357</ele>
        <time>2022-04-10T13:56:26.143Z</time>
      </trkpt>
      <trkpt lat="42.15559" lon="21.73595">
        <ele>435.257541</ele>
        <time>2022-04-10T13:56:30.129Z</time>
      </trkpt>
      <trkpt lat="42.15554" lon="21.73584">
        <ele>435.626317</ele>
        <time>2022-04-10T13:56:35.121Z</time>
      </trkpt>
      <trkpt lat="42.1555" lon="21.73572">
        <ele>435.982036</ele>
        <time>2022-04-10T13:56:40.135Z</time>
      </trkpt>
      <trkpt lat="42.15545" lon="21.7356">
        <ele>436.370447</ele>
        <time>2022-04-10T13:56:46.144Z</time>
      </trkpt>
      <trkpt lat="42.15541" lon="21.73549">
        <ele>436.722267</ele>
        <time>2022-04-10T13:56:52.142Z</time>
      </trkpt>
      <trkpt lat="42.15536" lon="21.73538">
        <ele>437.06935</ele>
        <time>2022-04-10T13:56:59.114Z</time>
      </trkpt>
      <trkpt lat="42.15533" lon="21.73526">
        <ele>437.425389</ele>
        <time>2022-04-10T13:57:06.121Z</time>
      </trkpt>
      <trkpt lat="42.15527" lon="21.73516">
        <ele>437.865815</ele>
        <time>2022-04-10T13:57:13.123Z</time>
      </trkpt>
      <trkpt lat="42.15522" lon="21.73504">
        <ele>438.307415</ele>
        <time>2022-04-10T13:57:19.110Z</time>
      </trkpt>
      <trkpt lat="42.15516" lon="21.73492">
        <ele>438.779363</ele>
        <time>2022-04-10T13:57:25.126Z</time>
      </trkpt>
      <trkpt lat="42.1551" lon="21.7348">
        <ele>439.241532</ele>
        <time>2022-04-10T13:57:31.146Z</time>
      </trkpt>
      <trkpt lat="42.15506" lon="21.73469">
        <ele>439.638053</ele>
        <time>2022-04-10T13:57:36.111Z</time>
      </trkpt>
      <trkpt lat="42.15501" lon="21.73458">
        <ele>440.055525</ele>
        <time>2022-04-10T13:57:42.129Z</time>
      </trkpt>
      <trkpt lat="42.15495" lon="21.73446">
        <ele>440.518276</ele>
        <time>2022-04-10T13:57:48.114Z</time>
      </trkpt>
      <trkpt lat="42.15493" lon="21.73434">
        <ele>440.922</ele>
        <time>2022-04-10T13:57:54.116Z</time>
      </trkpt>
      <trkpt lat="42.15488" lon="21.73423">
        <ele>441.357941</ele>
        <time>2022-04-10T13:58:00.133Z</time>
      </trkpt>
      <trkpt lat="42.15482" lon="21.73411">
        <ele>441.809738</ele>
        <time>2022-04-10T13:58:06.148Z</time>
      </trkpt>
      <trkpt lat="42.15478" lon="21.734">
        <ele>442.209323</ele>
        <time>2022-04-10T13:58:11.118Z</time>
      </trkpt>
      <trkpt lat="42.15474" lon="21.73389">
        <ele>442.618396</ele>
        <time>2022-04-10T13:58:16.129Z</time>
      </trkpt>
      <trkpt lat="42.15469" lon="21.73377">
        <ele>443.064314</ele>
        <time>2022-04-10T13:58:21.122Z</time>
      </trkpt>
      <trkpt lat="42.15465" lon="21.73365">
        <ele>443.487637</ele>
        <time>2022-04-10T13:58:25.123Z</time>
      </trkpt>
      <trkpt lat="42.15459" lon="21.73351">
        <ele>443.98035</ele>
        <time>2022-04-10T13:58:29.137Z</time>
      </trkpt>
      <trkpt lat="42.15454" lon="21.73339">
        <ele>444.464755</ele>
        <time>2022-04-10T13:58:33.118Z</time>
      </trkpt>
      <trkpt lat="42.15448" lon="21.73329">
        <ele>444.858287</ele>
        <time>2022-04-10T13:58:36.137Z</time>
      </trkpt>
      <trkpt lat="42.15444" lon="21.73318">
        <ele>445.1321</ele>
        <time>2022-04-10T13:58:39.142Z</time>
      </trkpt>
      <trkpt lat="42.1544" lon="21.73305">
        <ele>444.8218</ele>
        <time>2022-04-10T13:58:42.122Z</time>
      </trkpt>
      <trkpt lat="42.15434" lon="21.73291">
        <ele>444.471579</ele>
        <time>2022-04-10T13:58:45.130Z</time>
      </trkpt>
      <trkpt lat="42.15428" lon="21.73277">
        <ele>444.104801</ele>
        <time>2022-04-10T13:58:48.159Z</time>
      </trkpt>
      <trkpt lat="42.15422" lon="21.73262">
        <ele>443.715799</ele>
        <time>2022-04-10T13:58:51.134Z</time>
      </trkpt>
      <trkpt lat="42.15418" lon="21.73251">
        <ele>443.434797</ele>
        <time>2022-04-10T13:58:53.120Z</time>
      </trkpt>
      <trkpt lat="42.15413" lon="21.73239">
        <ele>443.127622</ele>
        <time>2022-04-10T13:58:55.133Z</time>
      </trkpt>
      <trkpt lat="42.15407" lon="21.73226">
        <ele>442.800483</ele>
        <time>2022-04-10T13:58:57.129Z</time>
      </trkpt>
      <trkpt lat="42.15402" lon="21.73212">
        <ele>442.463131</ele>
        <time>2022-04-10T13:58:59.148Z</time>
      </trkpt>
      <trkpt lat="42.15396" lon="21.73198">
        <ele>442.105326</ele>
        <time>2022-04-10T13:59:01.119Z</time>
      </trkpt>
      <trkpt lat="42.15391" lon="21.73184">
        <ele>441.750911</ele>
        <time>2022-04-10T13:59:03.127Z</time>
      </trkpt>
      <trkpt lat="42.15385" lon="21.73171">
        <ele>441.410966</ele>
        <time>2022-04-10T13:59:05.121Z</time>
      </trkpt>
      <trkpt lat="42.1538" lon="21.73158">
        <ele>441.085781</ele>
        <time>2022-04-10T13:59:07.113Z</time>
      </trkpt>
      <trkpt lat="42.15375" lon="21.73145">
        <ele>440.749565</ele>
        <time>2022-04-10T13:59:09.122Z</time>
      </trkpt>
      <trkpt lat="42.15371" lon="21.73132">
        <ele>440.443305</ele>
        <time>2022-04-10T13:59:11.129Z</time>
      </trkpt>
      <trkpt lat="42.15366" lon="21.73119">
        <ele>440.108232</ele>
        <time>2022-04-10T13:59:13.125Z</time>
      </trkpt>
      <trkpt lat="42.15361" lon="21.73105">
        <ele>439.735024</ele>
        <time>2022-04-10T13:59:15.134Z</time>
      </trkpt>
      <trkpt lat="42.15355" lon="21.73089">
        <ele>438.842094</ele>
        <time>2022-04-10T13:59:17.123Z</time>
      </trkpt>
      <trkpt lat="42.1535" lon="21.73076">
        <ele>438.046091</ele>
        <time>2022-04-10T13:59:19.182Z</time>
      </trkpt>
      <trkpt lat="42.15345" lon="21.73062">
        <ele>437.285438</ele>
        <time>2022-04-10T13:59:21.115Z</time>
      </trkpt>
      <trkpt lat="42.1534" lon="21.73049">
        <ele>436.509546</ele>
        <time>2022-04-10T13:59:23.124Z</time>
      </trkpt>
      <trkpt lat="42.15334" lon="21.73037">
        <ele>435.788821</ele>
        <time>2022-04-10T13:59:25.119Z</time>
      </trkpt>
      <trkpt lat="42.15329" lon="21.73026">
        <ele>435.130362</ele>
        <time>2022-04-10T13:59:27.204Z</time>
      </trkpt>
      <trkpt lat="42.15324" lon="21.73014">
        <ele>434.438165</ele>
        <time>2022-04-10T13:59:29.122Z</time>
      </trkpt>
      <trkpt lat="42.15318" lon="21.73003">
        <ele>433.726378</ele>
        <time>2022-04-10T13:59:31.166Z</time>
      </trkpt>
      <trkpt lat="42.15311" lon="21.7299">
        <ele>432.878086</ele>
        <time>2022-04-10T13:59:33.136Z</time>
      </trkpt>
      <trkpt lat="42.15301" lon="21.72977">
        <ele>431.918088</ele>
        <time>2022-04-10T13:59:35.144Z</time>
      </trkpt>
      <trkpt lat="42.15291" lon="21.72966">
        <ele>430.991966</ele>
        <time>2022-04-10T13:59:37.209Z</time>
      </trkpt>
      <trkpt lat="42.15279" lon="21.72957">
        <ele>430.060317</ele>
        <time>2022-04-10T13:59:39.123Z</time>
      </trkpt>
      <trkpt lat="42.15266" lon="21.7295">
        <ele>429.089633</ele>
        <time>2022-04-10T13:59:41.125Z</time>
      </trkpt>
      <trkpt lat="42.15253" lon="21.72943">
        <ele>428.113184</ele>
        <time>2022-04-10T13:59:43.113Z</time>
      </trkpt>
      <trkpt lat="42.1524" lon="21.72935">
        <ele>427.157122</ele>
        <time>2022-04-10T13:59:45.147Z</time>
      </trkpt>
      <trkpt lat="42.15226" lon="21.72928">
        <ele>426.468896</ele>
        <time>2022-04-10T13:59:47.126Z</time>
      </trkpt>
      <trkpt lat="42.15214" lon="21.72921">
        <ele>425.820187</ele>
        <time>2022-04-10T13:59:49.123Z</time>
      </trkpt>
      <trkpt lat="42.15201" lon="21.72915">
        <ele>425.174033</ele>
        <time>2022-04-10T13:59:51.103Z</time>
      </trkpt>
      <trkpt lat="42.15189" lon="21.72908">
        <ele>424.522239</ele>
        <time>2022-04-10T13:59:53.143Z</time>
      </trkpt>
      <trkpt lat="42.15176" lon="21.72901">
        <ele>423.851333</ele>
        <time>2022-04-10T13:59:55.144Z</time>
      </trkpt>
      <trkpt lat="42.15162" lon="21.72894">
        <ele>423.17209</ele>
        <time>2022-04-10T13:59:57.127Z</time>
      </trkpt>
      <trkpt lat="42.1515" lon="21.72888">
        <ele>422.522936</ele>
        <time>2022-04-10T13:59:59.164Z</time>
      </trkpt>
      <trkpt lat="42.15137" lon="21.72882">
        <ele>421.882522</ele>
        <time>2022-04-10T14:00:01.148Z</time>
      </trkpt>
      <trkpt lat="42.15125" lon="21.72876">
        <ele>421.247425</ele>
        <time>2022-04-10T14:00:03.145Z</time>
      </trkpt>
      <trkpt lat="42.15112" lon="21.72871">
        <ele>420.610243</ele>
        <time>2022-04-10T14:00:05.165Z</time>
      </trkpt>
      <trkpt lat="42.15099" lon="21.72864">
        <ele>419.954005</ele>
        <time>2022-04-10T14:00:07.135Z</time>
      </trkpt>
      <trkpt lat="42.15087" lon="21.72857">
        <ele>419.31551</ele>
        <time>2022-04-10T14:00:09.136Z</time>
      </trkpt>
      <trkpt lat="42.15074" lon="21.7285">
        <ele>418.672586</ele>
        <time>2022-04-10T14:00:11.151Z</time>
      </trkpt>
      <trkpt lat="42.15062" lon="21.72843">
        <ele>418.223994</ele>
        <time>2022-04-10T14:00:13.127Z</time>
      </trkpt>
      <trkpt lat="42.15049" lon="21.72836">
        <ele>417.764142</ele>
        <time>2022-04-10T14:00:15.126Z</time>
      </trkpt>
      <trkpt lat="42.15037" lon="21.72828">
        <ele>417.315378</ele>
        <time>2022-04-10T14:00:17.114Z</time>
      </trkpt>
      <trkpt lat="42.15024" lon="21.72821">
        <ele>416.861491</ele>
        <time>2022-04-10T14:00:19.106Z</time>
      </trkpt>
      <trkpt lat="42.15012" lon="21.72814">
        <ele>416.4095</ele>
        <time>2022-04-10T14:00:21.122Z</time>
      </trkpt>
      <trkpt lat="42.15" lon="21.72808">
        <ele>415.984569</ele>
        <time>2022-04-10T14:00:23.157Z</time>
      </trkpt>
      <trkpt lat="42.14989" lon="21.72802">
        <ele>415.60633</ele>
        <time>2022-04-10T14:00:25.120Z</time>
      </trkpt>
      <trkpt lat="42.14979" lon="21.72796">
        <ele>415.222911</ele>
        <time>2022-04-10T14:00:27.158Z</time>
      </trkpt>
      <trkpt lat="42.14968" lon="21.7279">
        <ele>414.835489</ele>
        <time>2022-04-10T14:00:29.146Z</time>
      </trkpt>
      <trkpt lat="42.14956" lon="21.72784">
        <ele>414.426856</ele>
        <time>2022-04-10T14:00:31.120Z</time>
      </trkpt>
      <trkpt lat="42.14946" lon="21.72777">
        <ele>414.058786</ele>
        <time>2022-04-10T14:00:33.138Z</time>
      </trkpt>
      <trkpt lat="42.14936" lon="21.72772">
        <ele>413.707278</ele>
        <time>2022-04-10T14:00:35.134Z</time>
      </trkpt>
      <trkpt lat="42.14927" lon="21.72767">
        <ele>413.364138</ele>
        <time>2022-04-10T14:00:37.131Z</time>
      </trkpt>
      <trkpt lat="42.14917" lon="21.72762">
        <ele>413.003772</ele>
        <time>2022-04-10T14:00:39.137Z</time>
      </trkpt>
      <trkpt lat="42.14906" lon="21.72756">
        <ele>412.62124</ele>
        <time>2022-04-10T14:00:41.129Z</time>
      </trkpt>
      <trkpt lat="42.14896" lon="21.7275">
        <ele>412.202977</ele>
        <time>2022-04-10T14:00:43.123Z</time>
      </trkpt>
      <trkpt lat="42.14886" lon="21.72744">
        <ele>411.800719</ele>
        <time>2022-04-10T14:00:45.147Z</time>
      </trkpt>
      <trkpt lat="42.14876" lon="21.72738">
        <ele>411.408123</ele>
        <time>2022-04-10T14:00:47.145Z</time>
      </trkpt>
      <trkpt lat="42.14867" lon="21.72732">
        <ele>411.004642</ele>
        <time>2022-04-10T14:00:49.120Z</time>
      </trkpt>
      <trkpt lat="42.14857" lon="21.72725">
        <ele>410.607859</ele>
        <time>2022-04-10T14:00:51.161Z</time>
      </trkpt>
      <trkpt lat="42.14849" lon="21.72719">
        <ele>410.271914</ele>
        <time>2022-04-10T14:00:53.110Z</time>
      </trkpt>
      <trkpt lat="42.14841" lon="21.72712">
        <ele>409.911243</ele>
        <time>2022-04-10T14:00:55.135Z</time>
      </trkpt>
      <trkpt lat="42.14832" lon="21.72703">
        <ele>409.506035</ele>
        <time>2022-04-10T14:00:57.166Z</time>
      </trkpt>
      <trkpt lat="42.14822" lon="21.72694">
        <ele>409.037657</ele>
        <time>2022-04-10T14:00:59.133Z</time>
      </trkpt>
      <trkpt lat="42.14811" lon="21.72684">
        <ele>408.541537</ele>
        <time>2022-04-10T14:01:01.154Z</time>
      </trkpt>
      <trkpt lat="42.148" lon="21.72672">
        <ele>408.027638</ele>
        <time>2022-04-10T14:01:03.129Z</time>
      </trkpt>
      <trkpt lat="42.14789" lon="21.7266">
        <ele>407.512206</ele>
        <time>2022-04-10T14:01:05.119Z</time>
      </trkpt>
      <trkpt lat="42.14779" lon="21.7265">
        <ele>407.035317</ele>
        <time>2022-04-10T14:01:07.117Z</time>
      </trkpt>
      <trkpt lat="42.14771" lon="21.72641">
        <ele>406.639512</ele>
        <time>2022-04-10T14:01:09.139Z</time>
      </trkpt>
      <trkpt lat="42.14763" lon="21.72633">
        <ele>406.276066</ele>
        <time>2022-04-10T14:01:11.109Z</time>
      </trkpt>
      <trkpt lat="42.14755" lon="21.72624">
        <ele>405.854407</ele>
        <time>2022-04-10T14:01:13.114Z</time>
      </trkpt>
      <trkpt lat="42.14746" lon="21.72615">
        <ele>405.348458</ele>
        <time>2022-04-10T14:01:15.129Z</time>
      </trkpt>
      <trkpt lat="42.14736" lon="21.72604">
        <ele>404.74652</ele>
        <time>2022-04-10T14:01:17.127Z</time>
      </trkpt>
      <trkpt lat="42.14726" lon="21.72593">
        <ele>404.150885</ele>
        <time>2022-04-10T14:01:19.170Z</time>
      </trkpt>
      <trkpt lat="42.14716" lon="21.72583">
        <ele>403.555463</ele>
        <time>2022-04-10T14:01:21.134Z</time>
      </trkpt>
      <trkpt lat="42.14706" lon="21.72572">
        <ele>402.970655</ele>
        <time>2022-04-10T14:01:23.126Z</time>
      </trkpt>
      <trkpt lat="42.14697" lon="21.72563">
        <ele>402.43948</ele>
        <time>2022-04-10T14:01:25.127Z</time>
      </trkpt>
      <trkpt lat="42.14688" lon="21.72554">
        <ele>401.912961</ele>
        <time>2022-04-10T14:01:27.105Z</time>
      </trkpt>
      <trkpt lat="42.14679" lon="21.72545">
        <ele>401.380963</ele>
        <time>2022-04-10T14:01:29.122Z</time>
      </trkpt>
      <trkpt lat="42.1467" lon="21.72536">
        <ele>400.862274</ele>
        <time>2022-04-10T14:01:31.115Z</time>
      </trkpt>
      <trkpt lat="42.14661" lon="21.72527">
        <ele>400.379491</ele>
        <time>2022-04-10T14:01:33.134Z</time>
      </trkpt>
      <trkpt lat="42.14652" lon="21.72518">
        <ele>399.82256</ele>
        <time>2022-04-10T14:01:36.138Z</time>
      </trkpt>
      <trkpt lat="42.14644" lon="21.7251">
        <ele>399.365766</ele>
        <time>2022-04-10T14:01:38.134Z</time>
      </trkpt>
      <trkpt lat="42.14634" lon="21.72501">
        <ele>398.808608</ele>
        <time>2022-04-10T14:01:40.118Z</time>
      </trkpt>
      <trkpt lat="42.14624" lon="21.72491">
        <ele>398.2439</ele>
        <time>2022-04-10T14:01:42.109Z</time>
      </trkpt>
      <trkpt lat="42.14615" lon="21.72482">
        <ele>397.695889</ele>
        <time>2022-04-10T14:01:44.159Z</time>
      </trkpt>
      <trkpt lat="42.14605" lon="21.72472">
        <ele>397.263433</ele>
        <time>2022-04-10T14:01:46.136Z</time>
      </trkpt>
      <trkpt lat="42.14595" lon="21.72462">
        <ele>396.8425</ele>
        <time>2022-04-10T14:01:48.113Z</time>
      </trkpt>
      <trkpt lat="42.14586" lon="21.72452">
        <ele>396.444187</ele>
        <time>2022-04-10T14:01:50.126Z</time>
      </trkpt>
      <trkpt lat="42.14577" lon="21.72443">
        <ele>396.053845</ele>
        <time>2022-04-10T14:01:52.146Z</time>
      </trkpt>
      <trkpt lat="42.14568" lon="21.72434">
        <ele>395.668793</ele>
        <time>2022-04-10T14:01:54.146Z</time>
      </trkpt>
      <trkpt lat="42.1456" lon="21.72426">
        <ele>395.334311</ele>
        <time>2022-04-10T14:01:56.138Z</time>
      </trkpt>
      <trkpt lat="42.14553" lon="21.72419">
        <ele>395.01685</ele>
        <time>2022-04-10T14:01:58.126Z</time>
      </trkpt>
      <trkpt lat="42.14545" lon="21.72412">
        <ele>394.688075</ele>
        <time>2022-04-10T14:02:00.114Z</time>
      </trkpt>
      <trkpt lat="42.14536" lon="21.72405">
        <ele>394.350307</ele>
        <time>2022-04-10T14:02:02.125Z</time>
      </trkpt>
      <trkpt lat="42.14528" lon="21.72399">
        <ele>394.012539</ele>
        <time>2022-04-10T14:02:04.133Z</time>
      </trkpt>
      <trkpt lat="42.14519" lon="21.72393">
        <ele>393.676807</ele>
        <time>2022-04-10T14:02:06.174Z</time>
      </trkpt>
      <trkpt lat="42.14509" lon="21.72386">
        <ele>393.280303</ele>
        <time>2022-04-10T14:02:08.126Z</time>
      </trkpt>
      <trkpt lat="42.14498" lon="21.72378">
        <ele>392.865777</ele>
        <time>2022-04-10T14:02:10.129Z</time>
      </trkpt>
      <trkpt lat="42.14487" lon="21.7237">
        <ele>392.43187</ele>
        <time>2022-04-10T14:02:12.113Z</time>
      </trkpt>
      <trkpt lat="42.14475" lon="21.72362">
        <ele>391.969226</ele>
        <time>2022-04-10T14:02:14.137Z</time>
      </trkpt>
      <trkpt lat="42.14463" lon="21.72354">
        <ele>391.512158</ele>
        <time>2022-04-10T14:02:16.141Z</time>
      </trkpt>
      <trkpt lat="42.14452" lon="21.72347">
        <ele>390.560559</ele>
        <time>2022-04-10T14:02:18.128Z</time>
      </trkpt>
      <trkpt lat="42.1444" lon="21.72339">
        <ele>389.490246</ele>
        <time>2022-04-10T14:02:20.109Z</time>
      </trkpt>
      <trkpt lat="42.14428" lon="21.72331">
        <ele>388.395387</ele>
        <time>2022-04-10T14:02:22.130Z</time>
      </trkpt>
      <trkpt lat="42.14415" lon="21.72323">
        <ele>387.245675</ele>
        <time>2022-04-10T14:02:24.133Z</time>
      </trkpt>
      <trkpt lat="42.14402" lon="21.72314">
        <ele>386.059509</ele>
        <time>2022-04-10T14:02:26.129Z</time>
      </trkpt>
      <trkpt lat="42.14389" lon="21.72304">
        <ele>384.877625</ele>
        <time>2022-04-10T14:02:28.177Z</time>
      </trkpt>
      <trkpt lat="42.14377" lon="21.72294">
        <ele>383.712976</ele>
        <time>2022-04-10T14:02:30.117Z</time>
      </trkpt>
      <trkpt lat="42.14364" lon="21.72284">
        <ele>382.522458</ele>
        <time>2022-04-10T14:02:32.135Z</time>
      </trkpt>
      <trkpt lat="42.14353" lon="21.72272">
        <ele>381.347029</ele>
        <time>2022-04-10T14:02:34.137Z</time>
      </trkpt>
      <trkpt lat="42.14342" lon="21.7226">
        <ele>380.221078</ele>
        <time>2022-04-10T14:02:36.125Z</time>
      </trkpt>
      <trkpt lat="42.14332" lon="21.7225">
        <ele>379.193369</ele>
        <time>2022-04-10T14:02:38.104Z</time>
      </trkpt>
      <trkpt lat="42.14324" lon="21.7224">
        <ele>378.340807</ele>
        <time>2022-04-10T14:02:40.126Z</time>
      </trkpt>
      <trkpt lat="42.14314" lon="21.72228">
        <ele>377.279369</ele>
        <time>2022-04-10T14:02:43.141Z</time>
      </trkpt>
      <trkpt lat="42.14307" lon="21.72218">
        <ele>376.693556</ele>
        <time>2022-04-10T14:02:46.138Z</time>
      </trkpt>
      <trkpt lat="42.143" lon="21.72208">
        <ele>376.381792</ele>
        <time>2022-04-10T14:02:50.104Z</time>
      </trkpt>
      <trkpt lat="42.14293" lon="21.72198">
        <ele>376.050957</ele>
        <time>2022-04-10T14:02:53.126Z</time>
      </trkpt>
      <trkpt lat="42.14284" lon="21.72188">
        <ele>375.679281</ele>
        <time>2022-04-10T14:02:56.119Z</time>
      </trkpt>
      <trkpt lat="42.14275" lon="21.72177">
        <ele>375.291247</ele>
        <time>2022-04-10T14:02:59.129Z</time>
      </trkpt>
      <trkpt lat="42.14266" lon="21.72166">
        <ele>374.913345</ele>
        <time>2022-04-10T14:03:02.134Z</time>
      </trkpt>
      <trkpt lat="42.14257" lon="21.72155">
        <ele>374.536777</ele>
        <time>2022-04-10T14:03:05.139Z</time>
      </trkpt>
      <trkpt lat="42.14247" lon="21.72144">
        <ele>374.146378</ele>
        <time>2022-04-10T14:03:08.123Z</time>
      </trkpt>
      <trkpt lat="42.14238" lon="21.72132">
        <ele>373.727345</ele>
        <time>2022-04-10T14:03:11.125Z</time>
      </trkpt>
      <trkpt lat="42.14228" lon="21.72119">
        <ele>373.309688</ele>
        <time>2022-04-10T14:03:14.157Z</time>
      </trkpt>
      <trkpt lat="42.14218" lon="21.72108">
        <ele>372.89912</ele>
        <time>2022-04-10T14:03:17.201Z</time>
      </trkpt>
      <trkpt lat="42.14208" lon="21.72095">
        <ele>372.480008</ele>
        <time>2022-04-10T14:03:20.139Z</time>
      </trkpt>
      <trkpt lat="42.14199" lon="21.72084">
        <ele>372.070228</ele>
        <time>2022-04-10T14:03:23.127Z</time>
      </trkpt>
      <trkpt lat="42.14189" lon="21.72073">
        <ele>371.673226</ele>
        <time>2022-04-10T14:03:26.117Z</time>
      </trkpt>
      <trkpt lat="42.14179" lon="21.72063">
        <ele>371.284903</ele>
        <time>2022-04-10T14:03:29.137Z</time>
      </trkpt>
      <trkpt lat="42.14169" lon="21.72056">
        <ele>371.472381</ele>
        <time>2022-04-10T14:03:32.116Z</time>
      </trkpt>
      <trkpt lat="42.14159" lon="21.7205">
        <ele>371.756544</ele>
        <time>2022-04-10T14:03:35.190Z</time>
      </trkpt>
      <trkpt lat="42.14149" lon="21.72045">
        <ele>372.045611</ele>
        <time>2022-04-10T14:03:38.115Z</time>
      </trkpt>
      <trkpt lat="42.14139" lon="21.72039">
        <ele>372.337628</ele>
        <time>2022-04-10T14:03:41.129Z</time>
      </trkpt>
      <trkpt lat="42.14128" lon="21.72033">
        <ele>372.641652</ele>
        <time>2022-04-10T14:03:44.138Z</time>
      </trkpt>
      <trkpt lat="42.14117" lon="21.72027">
        <ele>372.94482</ele>
        <time>2022-04-10T14:03:47.118Z</time>
      </trkpt>
      <trkpt lat="42.14106" lon="21.7202">
        <ele>373.266473</ele>
        <time>2022-04-10T14:03:50.138Z</time>
      </trkpt>
      <trkpt lat="42.14097" lon="21.72014">
        <ele>373.540819</ele>
        <time>2022-04-10T14:03:53.121Z</time>
      </trkpt>
      <trkpt lat="42.14088" lon="21.72007">
        <ele>373.817873</ele>
        <time>2022-04-10T14:03:57.140Z</time>
      </trkpt>
      <trkpt lat="42.14077" lon="21.72001">
        <ele>374.127517</ele>
        <time>2022-04-10T14:04:01.114Z</time>
      </trkpt>
      <trkpt lat="42.14068" lon="21.71994">
        <ele>374.392677</ele>
        <time>2022-04-10T14:04:04.125Z</time>
      </trkpt>
      <trkpt lat="42.14059" lon="21.71988">
        <ele>374.668108</ele>
        <time>2022-04-10T14:04:07.124Z</time>
      </trkpt>
      <trkpt lat="42.14049" lon="21.71982">
        <ele>374.949627</ele>
        <time>2022-04-10T14:04:10.124Z</time>
      </trkpt>
      <trkpt lat="42.1404" lon="21.71976">
        <ele>375.227195</ele>
        <time>2022-04-10T14:04:13.227Z</time>
      </trkpt>
      <trkpt lat="42.14029" lon="21.7197">
        <ele>375.518459</ele>
        <time>2022-04-10T14:04:17.129Z</time>
      </trkpt>
      <trkpt lat="42.1402" lon="21.71963">
        <ele>375.809607</ele>
        <time>2022-04-10T14:04:22.114Z</time>
      </trkpt>
      <trkpt lat="42.14009" lon="21.71963">
        <ele>375.96711</ele>
        <time>2022-04-10T14:04:29.133Z</time>
      </trkpt>
      <trkpt lat="42.14009" lon="21.71976">
        <ele>375.96711</ele>
        <time>2022-04-10T14:04:36.135Z</time>
      </trkpt>
      <trkpt lat="42.14013" lon="21.71988">
        <ele>375.96711</ele>
        <time>2022-04-10T14:04:42.119Z</time>
      </trkpt>
      <trkpt lat="42.14016" lon="21.72">
        <ele>375.96711</ele>
        <time>2022-04-10T14:04:47.115Z</time>
      </trkpt>
      <trkpt lat="42.14013" lon="21.72012">
        <ele>375.96711</ele>
        <time>2022-04-10T14:04:54.122Z</time>
      </trkpt>
      <trkpt lat="42.14002" lon="21.72016">
        <ele>375.96711</ele>
        <time>2022-04-10T14:04:58.173Z</time>
      </trkpt>
      <trkpt lat="42.13994" lon="21.72019">
        <ele>375.96711</ele>
        <time>2022-04-10T14:05:02.113Z</time>
      </trkpt>
      <trkpt lat="42.13982" lon="21.72022">
        <ele>375.96711</ele>
        <time>2022-04-10T14:05:10.104Z</time>
      </trkpt>
      <trkpt lat="42.13977" lon="21.72033">
        <ele>375.96711</ele>
        <time>2022-04-10T14:05:17.108Z</time>
      </trkpt>
      <trkpt lat="42.13976" lon="21.72046">
        <ele>375.96711</ele>
        <time>2022-04-10T14:05:25.137Z</time>
      </trkpt>
      <trkpt lat="42.13973" lon="21.72059">
        <ele>375.96711</ele>
        <time>2022-04-10T14:05:33.153Z</time>
      </trkpt>
      <trkpt lat="42.13977" lon="21.72073">
        <ele>375.96711</ele>
        <time>2022-04-10T14:05:37.119Z</time>
      </trkpt>
      <trkpt lat="42.1398" lon="21.72084">
        <ele>375.96711</ele>
        <time>2022-04-10T14:05:45.132Z</time>
      </trkpt>
      <trkpt lat="42.13977" lon="21.72096">
        <ele>375.96711</ele>
        <time>2022-04-10T14:05:51.108Z</time>
      </trkpt>
      <trkpt lat="42.13977" lon="21.72109">
        <ele>375.96711</ele>
        <time>2022-04-10T14:05:57.110Z</time>
      </trkpt>
      <trkpt lat="42.13979" lon="21.72102">
        <ele>375.96711</ele>
        <time>2022-04-10T14:14:41.397Z</time>
      </trkpt>
    </trkseg>
  </trk>
  <trk>
    <name><![CDATA[Tour d'Europe: étape 650]]></name>
    <extensions>
      <line xmlns="http://www.topografix.com/GPX/gpx_style/0/2">
        <color>008888</color>
        <width>4</width>
      </line>
    </extensions>
    <trkseg>
      <trkpt lat="42.27847" lon="22.68861">
        <ele>565.279055</ele>
        <time>2022-04-09T07:23:21.696Z</time>
      </trkpt>
      <trkpt lat="42.27851" lon="22.68881">
        <ele>565.279055</ele>
        <time>2022-04-09T07:23:22.586Z</time>
      </trkpt>
      <trkpt lat="42.27845" lon="22.68895">
        <ele>565.279055</ele>
        <time>2022-04-09T07:23:23.576Z</time>
      </trkpt>
      <trkpt lat="42.27871" lon="22.68884">
        <ele>565.279055</ele>
        <time>2022-04-09T07:23:25.193Z</time>
      </trkpt>
      <trkpt lat="42.27885" lon="22.68873">
        <ele>565.279055</ele>
        <time>2022-04-09T07:23:26.192Z</time>
      </trkpt>
      <trkpt lat="42.27895" lon="22.6889">
        <ele>565.279055</ele>
        <time>2022-04-09T07:43:33.190Z</time>
      </trkpt>
      <trkpt lat="42.27901" lon="22.68906">
        <ele>566.156019</ele>
        <time>2022-04-09T07:43:36.184Z</time>
      </trkpt>
      <trkpt lat="42.27901" lon="22.68919">
        <ele>567.04819</ele>
        <time>2022-04-09T07:43:38.243Z</time>
      </trkpt>
      <trkpt lat="42.27903" lon="22.68935">
        <ele>568.105734</ele>
        <time>2022-04-09T07:43:41.186Z</time>
      </trkpt>
      <trkpt lat="42.27912" lon="22.68942">
        <ele>569.052353</ele>
        <time>2022-04-09T07:43:51.185Z</time>
      </trkpt>
      <trkpt lat="42.2792" lon="22.68934">
        <ele>569.904549</ele>
        <time>2022-04-09T07:43:54.171Z</time>
      </trkpt>
      <trkpt lat="42.27928" lon="22.68927">
        <ele>570.782885</ele>
        <time>2022-04-09T07:43:57.192Z</time>
      </trkpt>
      <trkpt lat="42.27937" lon="22.68918">
        <ele>571.836124</ele>
        <time>2022-04-09T07:44:01.187Z</time>
      </trkpt>
      <trkpt lat="42.27944" lon="22.68907">
        <ele>572.735112</ele>
        <time>2022-04-09T07:44:05.255Z</time>
      </trkpt>
      <trkpt lat="42.27952" lon="22.689">
        <ele>573.587546</ele>
        <time>2022-04-09T07:44:10.197Z</time>
      </trkpt>
      <trkpt lat="42.27961" lon="22.68896">
        <ele>574.504679</ele>
        <time>2022-04-09T07:44:14.190Z</time>
      </trkpt>
      <trkpt lat="42.27972" lon="22.68888">
        <ele>575.597358</ele>
        <time>2022-04-09T07:44:18.188Z</time>
      </trkpt>
      <trkpt lat="42.27983" lon="22.68881">
        <ele>576.708538</ele>
        <time>2022-04-09T07:44:21.224Z</time>
      </trkpt>
      <trkpt lat="42.27994" lon="22.68874">
        <ele>577.776886</ele>
        <time>2022-04-09T07:44:24.206Z</time>
      </trkpt>
      <trkpt lat="42.28003" lon="22.68867">
        <ele>578.691951</ele>
        <time>2022-04-09T07:44:27.180Z</time>
      </trkpt>
      <trkpt lat="42.28014" lon="22.6886">
        <ele>579.82569</ele>
        <time>2022-04-09T07:44:31.202Z</time>
      </trkpt>
      <trkpt lat="42.28025" lon="22.68852">
        <ele>580.946206</ele>
        <time>2022-04-09T07:44:34.180Z</time>
      </trkpt>
      <trkpt lat="42.28035" lon="22.68846">
        <ele>581.397991</ele>
        <time>2022-04-09T07:44:37.198Z</time>
      </trkpt>
      <trkpt lat="42.28046" lon="22.68842">
        <ele>581.307988</ele>
        <time>2022-04-09T07:44:40.198Z</time>
      </trkpt>
      <trkpt lat="42.28058" lon="22.68838">
        <ele>581.221962</ele>
        <time>2022-04-09T07:44:43.196Z</time>
      </trkpt>
      <trkpt lat="42.28067" lon="22.68834">
        <ele>581.146259</ele>
        <time>2022-04-09T07:44:46.223Z</time>
      </trkpt>
      <trkpt lat="42.28075" lon="22.68828">
        <ele>581.079856</ele>
        <time>2022-04-09T07:44:49.201Z</time>
      </trkpt>
      <trkpt lat="42.28086" lon="22.68822">
        <ele>580.991404</ele>
        <time>2022-04-09T07:44:53.241Z</time>
      </trkpt>
      <trkpt lat="42.28098" lon="22.68817">
        <ele>580.905259</ele>
        <time>2022-04-09T07:44:57.160Z</time>
      </trkpt>
      <trkpt lat="42.28107" lon="22.68813">
        <ele>580.832535</ele>
        <time>2022-04-09T07:45:00.165Z</time>
      </trkpt>
      <trkpt lat="42.28118" lon="22.68816">
        <ele>580.745979</ele>
        <time>2022-04-09T07:45:04.190Z</time>
      </trkpt>
      <trkpt lat="42.28126" lon="22.68827">
        <ele>580.665991</ele>
        <time>2022-04-09T07:45:08.203Z</time>
      </trkpt>
      <trkpt lat="42.28134" lon="22.68818">
        <ele>580.585852</ele>
        <time>2022-04-09T07:45:14.199Z</time>
      </trkpt>
      <trkpt lat="42.28141" lon="22.68806">
        <ele>580.503543</ele>
        <time>2022-04-09T07:45:19.196Z</time>
      </trkpt>
      <trkpt lat="42.28148" lon="22.68796">
        <ele>580.429596</ele>
        <time>2022-04-09T07:45:23.183Z</time>
      </trkpt>
      <trkpt lat="42.28156" lon="22.6879">
        <ele>580.3593</ele>
        <time>2022-04-09T07:45:26.201Z</time>
      </trkpt>
      <trkpt lat="42.28164" lon="22.68784">
        <ele>580.293381</ele>
        <time>2022-04-09T07:45:29.208Z</time>
      </trkpt>
      <trkpt lat="42.28174" lon="22.68782">
        <ele>580.218505</ele>
        <time>2022-04-09T07:45:32.188Z</time>
      </trkpt>
      <trkpt lat="42.28184" lon="22.68778">
        <ele>580.141624</ele>
        <time>2022-04-09T07:45:35.195Z</time>
      </trkpt>
      <trkpt lat="42.28194" lon="22.68776">
        <ele>580.167687</ele>
        <time>2022-04-09T07:45:38.196Z</time>
      </trkpt>
      <trkpt lat="42.28202" lon="22.68772">
        <ele>580.285764</ele>
        <time>2022-04-09T07:45:41.183Z</time>
      </trkpt>
      <trkpt lat="42.28211" lon="22.68766">
        <ele>580.410467</ele>
        <time>2022-04-09T07:45:43.173Z</time>
      </trkpt>
      <trkpt lat="42.28219" lon="22.6876">
        <ele>580.526443</ele>
        <time>2022-04-09T07:45:45.211Z</time>
      </trkpt>
      <trkpt lat="42.28229" lon="22.68754">
        <ele>580.663394</ele>
        <time>2022-04-09T07:45:48.199Z</time>
      </trkpt>
      <trkpt lat="42.28238" lon="22.68749">
        <ele>580.782737</ele>
        <time>2022-04-09T07:45:51.187Z</time>
      </trkpt>
      <trkpt lat="42.28246" lon="22.68743">
        <ele>580.896483</ele>
        <time>2022-04-09T07:45:54.221Z</time>
      </trkpt>
      <trkpt lat="42.28254" lon="22.68735">
        <ele>581.031716</ele>
        <time>2022-04-09T07:45:57.189Z</time>
      </trkpt>
      <trkpt lat="42.28265" lon="22.68727">
        <ele>581.177307</ele>
        <time>2022-04-09T07:46:00.178Z</time>
      </trkpt>
      <trkpt lat="42.28273" lon="22.68722">
        <ele>581.296946</ele>
        <time>2022-04-09T07:46:03.183Z</time>
      </trkpt>
      <trkpt lat="42.28281" lon="22.68715">
        <ele>581.411748</ele>
        <time>2022-04-09T07:46:06.194Z</time>
      </trkpt>
      <trkpt lat="42.2829" lon="22.68707">
        <ele>581.547088</ele>
        <time>2022-04-09T07:46:09.192Z</time>
      </trkpt>
      <trkpt lat="42.283" lon="22.687">
        <ele>581.688943</ele>
        <time>2022-04-09T07:46:12.184Z</time>
      </trkpt>
      <trkpt lat="42.28308" lon="22.68696">
        <ele>581.803772</ele>
        <time>2022-04-09T07:46:14.196Z</time>
      </trkpt>
      <trkpt lat="42.2832" lon="22.68689">
        <ele>581.97273</ele>
        <time>2022-04-09T07:46:17.193Z</time>
      </trkpt>
      <trkpt lat="42.28329" lon="22.68684">
        <ele>582.087329</ele>
        <time>2022-04-09T07:46:19.171Z</time>
      </trkpt>
      <trkpt lat="42.28338" lon="22.68676">
        <ele>582.228903</ele>
        <time>2022-04-09T07:46:22.194Z</time>
      </trkpt>
      <trkpt lat="42.28346" lon="22.68669">
        <ele>582.343239</ele>
        <time>2022-04-09T07:46:25.220Z</time>
      </trkpt>
      <trkpt lat="42.28353" lon="22.68662">
        <ele>582.167676</ele>
        <time>2022-04-09T07:46:28.245Z</time>
      </trkpt>
      <trkpt lat="42.2836" lon="22.68653">
        <ele>581.850681</ele>
        <time>2022-04-09T07:46:31.225Z</time>
      </trkpt>
      <trkpt lat="42.28368" lon="22.68648">
        <ele>581.523552</ele>
        <time>2022-04-09T07:46:34.192Z</time>
      </trkpt>
      <trkpt lat="42.28378" lon="22.68642">
        <ele>581.148156</ele>
        <time>2022-04-09T07:46:37.193Z</time>
      </trkpt>
      <trkpt lat="42.28388" lon="22.68635">
        <ele>580.77157</ele>
        <time>2022-04-09T07:46:40.180Z</time>
      </trkpt>
      <trkpt lat="42.28389" lon="22.68622">
        <ele>580.431234</ele>
        <time>2022-04-09T07:46:44.201Z</time>
      </trkpt>
      <trkpt lat="42.28387" lon="22.68609">
        <ele>580.070944</ele>
        <time>2022-04-09T07:46:48.220Z</time>
      </trkpt>
      <trkpt lat="42.28382" lon="22.68593">
        <ele>579.651991</ele>
        <time>2022-04-09T07:46:52.205Z</time>
      </trkpt>
      <trkpt lat="42.28378" lon="22.68579">
        <ele>579.266124</ele>
        <time>2022-04-09T07:46:55.192Z</time>
      </trkpt>
      <trkpt lat="42.28373" lon="22.68566">
        <ele>578.889622</ele>
        <time>2022-04-09T07:46:58.221Z</time>
      </trkpt>
      <trkpt lat="42.28369" lon="22.68553">
        <ele>578.53499</ele>
        <time>2022-04-09T07:47:01.179Z</time>
      </trkpt>
      <trkpt lat="42.28364" lon="22.68541">
        <ele>578.175641</ele>
        <time>2022-04-09T07:47:04.196Z</time>
      </trkpt>
      <trkpt lat="42.2836" lon="22.68529">
        <ele>577.841437</ele>
        <time>2022-04-09T07:47:07.176Z</time>
      </trkpt>
      <trkpt lat="42.28355" lon="22.68517">
        <ele>577.505532</ele>
        <time>2022-04-09T07:47:10.193Z</time>
      </trkpt>
      <trkpt lat="42.2835" lon="22.68504">
        <ele>577.103221</ele>
        <time>2022-04-09T07:47:14.189Z</time>
      </trkpt>
      <trkpt lat="42.28346" lon="22.6849">
        <ele>576.744081</ele>
        <time>2022-04-09T07:47:17.192Z</time>
      </trkpt>
      <trkpt lat="42.28342" lon="22.68478">
        <ele>576.401408</ele>
        <time>2022-04-09T07:47:20.198Z</time>
      </trkpt>
      <trkpt lat="42.28338" lon="22.68466">
        <ele>576.342215</ele>
        <time>2022-04-09T07:47:23.171Z</time>
      </trkpt>
      <trkpt lat="42.28335" lon="22.68454">
        <ele>576.835937</ele>
        <time>2022-04-09T07:47:26.183Z</time>
      </trkpt>
      <trkpt lat="42.28332" lon="22.6844">
        <ele>577.424094</ele>
        <time>2022-04-09T07:47:30.177Z</time>
      </trkpt>
      <trkpt lat="42.28329" lon="22.68426">
        <ele>578.020102</ele>
        <time>2022-04-09T07:47:34.190Z</time>
      </trkpt>
      <trkpt lat="42.28323" lon="22.68411">
        <ele>578.674296</ele>
        <time>2022-04-09T07:47:38.195Z</time>
      </trkpt>
      <trkpt lat="42.28319" lon="22.684">
        <ele>579.180636</ele>
        <time>2022-04-09T07:47:41.221Z</time>
      </trkpt>
      <trkpt lat="42.28315" lon="22.68387">
        <ele>579.702375</ele>
        <time>2022-04-09T07:47:44.200Z</time>
      </trkpt>
      <trkpt lat="42.28311" lon="22.68373">
        <ele>580.316541</ele>
        <time>2022-04-09T07:47:47.192Z</time>
      </trkpt>
      <trkpt lat="42.28307" lon="22.68359">
        <ele>580.921483</ele>
        <time>2022-04-09T07:47:50.168Z</time>
      </trkpt>
      <trkpt lat="42.28303" lon="22.68345">
        <ele>581.486194</ele>
        <time>2022-04-09T07:47:53.205Z</time>
      </trkpt>
      <trkpt lat="42.283" lon="22.68332">
        <ele>582.033664</ele>
        <time>2022-04-09T07:47:56.196Z</time>
      </trkpt>
      <trkpt lat="42.28296" lon="22.68321">
        <ele>582.520498</ele>
        <time>2022-04-09T07:47:59.180Z</time>
      </trkpt>
      <trkpt lat="42.28292" lon="22.68309">
        <ele>583.03337</ele>
        <time>2022-04-09T07:48:02.204Z</time>
      </trkpt>
      <trkpt lat="42.28288" lon="22.68295">
        <ele>583.650394</ele>
        <time>2022-04-09T07:48:05.179Z</time>
      </trkpt>
      <trkpt lat="42.28284" lon="22.68281">
        <ele>584.223913</ele>
        <time>2022-04-09T07:48:08.181Z</time>
      </trkpt>
      <trkpt lat="42.28281" lon="22.68269">
        <ele>584.736109</ele>
        <time>2022-04-09T07:48:11.214Z</time>
      </trkpt>
      <trkpt lat="42.28277" lon="22.68255">
        <ele>585.324986</ele>
        <time>2022-04-09T07:48:14.184Z</time>
      </trkpt>
      <trkpt lat="42.28271" lon="22.68243">
        <ele>585.76547</ele>
        <time>2022-04-09T07:48:17.181Z</time>
      </trkpt>
      <trkpt lat="42.28268" lon="22.6823">
        <ele>585.600798</ele>
        <time>2022-04-09T07:48:20.167Z</time>
      </trkpt>
      <trkpt lat="42.28264" lon="22.68217">
        <ele>585.424604</ele>
        <time>2022-04-09T07:48:23.181Z</time>
      </trkpt>
      <trkpt lat="42.2826" lon="22.68205">
        <ele>585.264679</ele>
        <time>2022-04-09T07:48:26.185Z</time>
      </trkpt>
      <trkpt lat="42.28255" lon="22.68192">
        <ele>585.096077</ele>
        <time>2022-04-09T07:48:29.245Z</time>
      </trkpt>
      <trkpt lat="42.28251" lon="22.68179">
        <ele>584.924579</ele>
        <time>2022-04-09T07:48:32.194Z</time>
      </trkpt>
      <trkpt lat="42.28248" lon="22.68167">
        <ele>584.764452</ele>
        <time>2022-04-09T07:48:35.181Z</time>
      </trkpt>
      <trkpt lat="42.28242" lon="22.68153">
        <ele>584.575525</ele>
        <time>2022-04-09T07:48:39.195Z</time>
      </trkpt>
      <trkpt lat="42.28238" lon="22.68142">
        <ele>584.416049</ele>
        <time>2022-04-09T07:48:42.188Z</time>
      </trkpt>
      <trkpt lat="42.28234" lon="22.6813">
        <ele>584.252943</ele>
        <time>2022-04-09T07:48:45.176Z</time>
      </trkpt>
      <trkpt lat="42.2823" lon="22.68116">
        <ele>584.080745</ele>
        <time>2022-04-09T07:48:48.183Z</time>
      </trkpt>
      <trkpt lat="42.28226" lon="22.68104">
        <ele>583.913028</ele>
        <time>2022-04-09T07:48:51.201Z</time>
      </trkpt>
      <trkpt lat="42.28221" lon="22.68091">
        <ele>583.744661</ele>
        <time>2022-04-09T07:48:54.183Z</time>
      </trkpt>
      <trkpt lat="42.28218" lon="22.68079">
        <ele>583.58429</ele>
        <time>2022-04-09T07:48:57.219Z</time>
      </trkpt>
      <trkpt lat="42.28213" lon="22.68069">
        <ele>583.437061</ele>
        <time>2022-04-09T07:49:00.202Z</time>
      </trkpt>
      <trkpt lat="42.28209" lon="22.68057">
        <ele>583.285571</ele>
        <time>2022-04-09T07:49:03.170Z</time>
      </trkpt>
      <trkpt lat="42.28206" lon="22.68045">
        <ele>583.127145</ele>
        <time>2022-04-09T07:49:06.214Z</time>
      </trkpt>
      <trkpt lat="42.28202" lon="22.68033">
        <ele>582.974994</ele>
        <time>2022-04-09T07:49:09.197Z</time>
      </trkpt>
      <trkpt lat="42.28199" lon="22.68019">
        <ele>582.865913</ele>
        <time>2022-04-09T07:49:13.177Z</time>
      </trkpt>
      <trkpt lat="42.28195" lon="22.68005">
        <ele>582.952216</ele>
        <time>2022-04-09T07:49:17.191Z</time>
      </trkpt>
      <trkpt lat="42.28192" lon="22.67992">
        <ele>583.030058</ele>
        <time>2022-04-09T07:49:21.181Z</time>
      </trkpt>
      <trkpt lat="42.28188" lon="22.6798">
        <ele>583.104119</ele>
        <time>2022-04-09T07:49:25.233Z</time>
      </trkpt>
      <trkpt lat="42.28184" lon="22.67966">
        <ele>583.189591</ele>
        <time>2022-04-09T07:49:29.200Z</time>
      </trkpt>
      <trkpt lat="42.28181" lon="22.67954">
        <ele>583.263393</ele>
        <time>2022-04-09T07:49:32.174Z</time>
      </trkpt>
      <trkpt lat="42.28178" lon="22.67942">
        <ele>583.340964</ele>
        <time>2022-04-09T07:49:35.169Z</time>
      </trkpt>
      <trkpt lat="42.28174" lon="22.67929">
        <ele>583.421782</ele>
        <time>2022-04-09T07:49:38.212Z</time>
      </trkpt>
      <trkpt lat="42.2817" lon="22.67916">
        <ele>583.499748</ele>
        <time>2022-04-09T07:49:41.199Z</time>
      </trkpt>
      <trkpt lat="42.28166" lon="22.67903">
        <ele>583.578705</ele>
        <time>2022-04-09T07:49:44.219Z</time>
      </trkpt>
      <trkpt lat="42.28162" lon="22.67891">
        <ele>583.659023</ele>
        <time>2022-04-09T07:49:47.228Z</time>
      </trkpt>
      <trkpt lat="42.28157" lon="22.67877">
        <ele>583.746037</ele>
        <time>2022-04-09T07:49:50.227Z</time>
      </trkpt>
      <trkpt lat="42.28152" lon="22.67862">
        <ele>583.840805</ele>
        <time>2022-04-09T07:49:53.173Z</time>
      </trkpt>
      <trkpt lat="42.28148" lon="22.67851">
        <ele>583.911648</ele>
        <time>2022-04-09T07:49:55.178Z</time>
      </trkpt>
      <trkpt lat="42.28145" lon="22.67835">
        <ele>584.006067</ele>
        <time>2022-04-09T07:49:58.198Z</time>
      </trkpt>
      <trkpt lat="42.28141" lon="22.67823">
        <ele>584.084736</ele>
        <time>2022-04-09T07:50:01.186Z</time>
      </trkpt>
      <trkpt lat="42.28138" lon="22.6781">
        <ele>584.162608</ele>
        <time>2022-04-09T07:50:04.194Z</time>
      </trkpt>
      <trkpt lat="42.28135" lon="22.67798">
        <ele>584.233483</ele>
        <time>2022-04-09T07:50:07.199Z</time>
      </trkpt>
      <trkpt lat="42.28131" lon="22.67783">
        <ele>584.656656</ele>
        <time>2022-04-09T07:50:11.265Z</time>
      </trkpt>
      <trkpt lat="42.28127" lon="22.67772">
        <ele>585.003169</ele>
        <time>2022-04-09T07:50:14.164Z</time>
      </trkpt>
      <trkpt lat="42.28123" lon="22.67757">
        <ele>585.471964</ele>
        <time>2022-04-09T07:50:18.169Z</time>
      </trkpt>
      <trkpt lat="42.28118" lon="22.67745">
        <ele>585.862619</ele>
        <time>2022-04-09T07:50:21.181Z</time>
      </trkpt>
      <trkpt lat="42.28113" lon="22.67734">
        <ele>586.21958</ele>
        <time>2022-04-09T07:50:24.181Z</time>
      </trkpt>
      <trkpt lat="42.28109" lon="22.67719">
        <ele>586.666688</ele>
        <time>2022-04-09T07:50:28.160Z</time>
      </trkpt>
      <trkpt lat="42.28104" lon="22.67704">
        <ele>587.130596</ele>
        <time>2022-04-09T07:50:32.193Z</time>
      </trkpt>
      <trkpt lat="42.281" lon="22.67693">
        <ele>587.502736</ele>
        <time>2022-04-09T07:50:35.194Z</time>
      </trkpt>
      <trkpt lat="42.28096" lon="22.67681">
        <ele>587.872295</ele>
        <time>2022-04-09T07:50:38.195Z</time>
      </trkpt>
      <trkpt lat="42.28093" lon="22.67668">
        <ele>588.252471</ele>
        <time>2022-04-09T07:50:41.178Z</time>
      </trkpt>
      <trkpt lat="42.2809" lon="22.67655">
        <ele>588.647808</ele>
        <time>2022-04-09T07:50:44.186Z</time>
      </trkpt>
      <trkpt lat="42.28087" lon="22.67641">
        <ele>589.070341</ele>
        <time>2022-04-09T07:50:48.202Z</time>
      </trkpt>
      <trkpt lat="42.28083" lon="22.67628">
        <ele>589.476557</ele>
        <time>2022-04-09T07:50:51.193Z</time>
      </trkpt>
      <trkpt lat="42.28078" lon="22.67615">
        <ele>589.890493</ele>
        <time>2022-04-09T07:50:54.179Z</time>
      </trkpt>
      <trkpt lat="42.28074" lon="22.67602">
        <ele>590.291786</ele>
        <time>2022-04-09T07:50:57.203Z</time>
      </trkpt>
      <trkpt lat="42.2807" lon="22.6759">
        <ele>590.673463</ele>
        <time>2022-04-09T07:51:00.222Z</time>
      </trkpt>
      <trkpt lat="42.28066" lon="22.67578">
        <ele>591.049888</ele>
        <time>2022-04-09T07:51:03.176Z</time>
      </trkpt>
      <trkpt lat="42.28061" lon="22.67567">
        <ele>591.227338</ele>
        <time>2022-04-09T07:51:06.211Z</time>
      </trkpt>
      <trkpt lat="42.28055" lon="22.67553">
        <ele>591.315189</ele>
        <time>2022-04-09T07:51:10.192Z</time>
      </trkpt>
      <trkpt lat="42.28052" lon="22.67541">
        <ele>591.383166</ele>
        <time>2022-04-09T07:51:13.193Z</time>
      </trkpt>
      <trkpt lat="42.28049" lon="22.67529">
        <ele>591.453195</ele>
        <time>2022-04-09T07:51:16.198Z</time>
      </trkpt>
      <trkpt lat="42.28046" lon="22.67516">
        <ele>591.526263</ele>
        <time>2022-04-09T07:51:19.184Z</time>
      </trkpt>
      <trkpt lat="42.28042" lon="22.67504">
        <ele>591.601129</ele>
        <time>2022-04-09T07:51:22.205Z</time>
      </trkpt>
      <trkpt lat="42.28038" lon="22.67492">
        <ele>591.675809</ele>
        <time>2022-04-09T07:51:25.189Z</time>
      </trkpt>
      <trkpt lat="42.28034" lon="22.6748">
        <ele>591.745569</ele>
        <time>2022-04-09T07:51:28.196Z</time>
      </trkpt>
      <trkpt lat="42.28029" lon="22.67466">
        <ele>591.833079</ele>
        <time>2022-04-09T07:51:32.177Z</time>
      </trkpt>
      <trkpt lat="42.28025" lon="22.6745">
        <ele>591.921895</ele>
        <time>2022-04-09T07:51:36.182Z</time>
      </trkpt>
      <trkpt lat="42.2802" lon="22.6744">
        <ele>591.989578</ele>
        <time>2022-04-09T07:51:39.182Z</time>
      </trkpt>
      <trkpt lat="42.28016" lon="22.67429">
        <ele>592.057035</ele>
        <time>2022-04-09T07:51:42.185Z</time>
      </trkpt>
      <trkpt lat="42.28013" lon="22.67417">
        <ele>592.124511</ele>
        <time>2022-04-09T07:51:45.233Z</time>
      </trkpt>
      <trkpt lat="42.28008" lon="22.67405">
        <ele>592.203126</ele>
        <time>2022-04-09T07:51:48.244Z</time>
      </trkpt>
      <trkpt lat="42.28003" lon="22.67392">
        <ele>592.279933</ele>
        <time>2022-04-09T07:51:51.239Z</time>
      </trkpt>
      <trkpt lat="42.28002" lon="22.6738">
        <ele>592.349674</ele>
        <time>2022-04-09T07:51:54.209Z</time>
      </trkpt>
      <trkpt lat="42.27997" lon="22.67364">
        <ele>592.443217</ele>
        <time>2022-04-09T07:51:57.167Z</time>
      </trkpt>
      <trkpt lat="42.27992" lon="22.6735">
        <ele>592.431534</ele>
        <time>2022-04-09T07:52:00.188Z</time>
      </trkpt>
      <trkpt lat="42.27989" lon="22.67337">
        <ele>591.762584</ele>
        <time>2022-04-09T07:52:03.273Z</time>
      </trkpt>
      <trkpt lat="42.27986" lon="22.67325">
        <ele>591.109182</ele>
        <time>2022-04-09T07:52:06.196Z</time>
      </trkpt>
      <trkpt lat="42.27989" lon="22.67312">
        <ele>590.413671</ele>
        <time>2022-04-09T07:52:09.203Z</time>
      </trkpt>
      <trkpt lat="42.27999" lon="22.67305">
        <ele>589.70555</ele>
        <time>2022-04-09T07:52:12.221Z</time>
      </trkpt>
      <trkpt lat="42.2801" lon="22.6731">
        <ele>588.919945</ele>
        <time>2022-04-09T07:52:15.200Z</time>
      </trkpt>
      <trkpt lat="42.2802" lon="22.6732">
        <ele>588.0486</ele>
        <time>2022-04-09T07:52:18.197Z</time>
      </trkpt>
      <trkpt lat="42.28029" lon="22.67328">
        <ele>587.333649</ele>
        <time>2022-04-09T07:52:20.181Z</time>
      </trkpt>
      <trkpt lat="42.28037" lon="22.67335">
        <ele>586.666076</ele>
        <time>2022-04-09T07:52:22.184Z</time>
      </trkpt>
      <trkpt lat="42.28046" lon="22.67341">
        <ele>586.02191</ele>
        <time>2022-04-09T07:52:24.179Z</time>
      </trkpt>
      <trkpt lat="42.28055" lon="22.67335">
        <ele>585.322077</ele>
        <time>2022-04-09T07:52:27.191Z</time>
      </trkpt>
      <trkpt lat="42.28056" lon="22.67321">
        <ele>584.632949</ele>
        <time>2022-04-09T07:52:29.178Z</time>
      </trkpt>
      <trkpt lat="42.28055" lon="22.67308">
        <ele>583.998221</ele>
        <time>2022-04-09T07:52:31.242Z</time>
      </trkpt>
      <trkpt lat="42.28056" lon="22.67291">
        <ele>583.114137</ele>
        <time>2022-04-09T07:52:34.191Z</time>
      </trkpt>
      <trkpt lat="42.28058" lon="22.67276">
        <ele>582.377195</ele>
        <time>2022-04-09T07:52:37.176Z</time>
      </trkpt>
      <trkpt lat="42.28061" lon="22.67261">
        <ele>581.58897</ele>
        <time>2022-04-09T07:52:40.184Z</time>
      </trkpt>
      <trkpt lat="42.28064" lon="22.67247">
        <ele>580.875487</ele>
        <time>2022-04-09T07:52:43.179Z</time>
      </trkpt>
      <trkpt lat="42.28068" lon="22.67235">
        <ele>580.588768</ele>
        <time>2022-04-09T07:52:46.196Z</time>
      </trkpt>
      <trkpt lat="42.28071" lon="22.67222">
        <ele>581.285796</ele>
        <time>2022-04-09T07:52:49.218Z</time>
      </trkpt>
      <trkpt lat="42.28074" lon="22.6721">
        <ele>581.943871</ele>
        <time>2022-04-09T07:52:52.184Z</time>
      </trkpt>
      <trkpt lat="42.28078" lon="22.67198">
        <ele>582.620062</ele>
        <time>2022-04-09T07:52:55.240Z</time>
      </trkpt>
      <trkpt lat="42.28081" lon="22.67186">
        <ele>583.302237</ele>
        <time>2022-04-09T07:52:58.200Z</time>
      </trkpt>
      <trkpt lat="42.28084" lon="22.67173">
        <ele>583.972931</ele>
        <time>2022-04-09T07:53:01.186Z</time>
      </trkpt>
      <trkpt lat="42.28086" lon="22.67162">
        <ele>584.608727</ele>
        <time>2022-04-09T07:53:04.197Z</time>
      </trkpt>
      <trkpt lat="42.2809" lon="22.67148">
        <ele>585.362979</ele>
        <time>2022-04-09T07:53:08.188Z</time>
      </trkpt>
      <trkpt lat="42.28092" lon="22.67136">
        <ele>586.004681</ele>
        <time>2022-04-09T07:53:11.178Z</time>
      </trkpt>
      <trkpt lat="42.28095" lon="22.67123">
        <ele>586.687447</ele>
        <time>2022-04-09T07:53:15.204Z</time>
      </trkpt>
      <trkpt lat="42.28096" lon="22.67107">
        <ele>587.51194</ele>
        <time>2022-04-09T07:53:19.189Z</time>
      </trkpt>
      <trkpt lat="42.28101" lon="22.67096">
        <ele>588.214237</ele>
        <time>2022-04-09T07:53:23.195Z</time>
      </trkpt>
      <trkpt lat="42.28111" lon="22.67095">
        <ele>588.870779</ele>
        <time>2022-04-09T07:53:27.171Z</time>
      </trkpt>
      <trkpt lat="42.28121" lon="22.67094">
        <ele>589.602262</ele>
        <time>2022-04-09T07:53:31.185Z</time>
      </trkpt>
      <trkpt lat="42.28133" lon="22.67093">
        <ele>590.411827</ele>
        <time>2022-04-09T07:53:35.176Z</time>
      </trkpt>
      <trkpt lat="42.28143" lon="22.67092">
        <ele>591.150633</ele>
        <time>2022-04-09T07:53:39.197Z</time>
      </trkpt>
      <trkpt lat="42.28153" lon="22.6709">
        <ele>591.875152</ele>
        <time>2022-04-09T07:53:43.182Z</time>
      </trkpt>
      <trkpt lat="42.28164" lon="22.67087">
        <ele>592.61045</ele>
        <time>2022-04-09T07:53:47.187Z</time>
      </trkpt>
      <trkpt lat="42.28174" lon="22.67084">
        <ele>593.153066</ele>
        <time>2022-04-09T07:53:51.200Z</time>
      </trkpt>
      <trkpt lat="42.28184" lon="22.67082">
        <ele>593.437054</ele>
        <time>2022-04-09T07:53:55.177Z</time>
      </trkpt>
      <trkpt lat="42.28193" lon="22.67081">
        <ele>593.687658</ele>
        <time>2022-04-09T07:53:59.177Z</time>
      </trkpt>
      <trkpt lat="42.28202" lon="22.67077">
        <ele>593.945107</ele>
        <time>2022-04-09T07:54:03.244Z</time>
      </trkpt>
      <trkpt lat="42.28213" lon="22.67074">
        <ele>594.235458</ele>
        <time>2022-04-09T07:54:07.197Z</time>
      </trkpt>
      <trkpt lat="42.28222" lon="22.67071">
        <ele>594.495548</ele>
        <time>2022-04-09T07:54:11.187Z</time>
      </trkpt>
      <trkpt lat="42.28228" lon="22.6706">
        <ele>594.77477</ele>
        <time>2022-04-09T07:54:16.180Z</time>
      </trkpt>
      <trkpt lat="42.28228" lon="22.67047">
        <ele>595.032628</ele>
        <time>2022-04-09T07:54:20.202Z</time>
      </trkpt>
      <trkpt lat="42.28227" lon="22.67034">
        <ele>595.310574</ele>
        <time>2022-04-09T07:54:24.242Z</time>
      </trkpt>
      <trkpt lat="42.28225" lon="22.67021">
        <ele>595.582958</ele>
        <time>2022-04-09T07:54:28.197Z</time>
      </trkpt>
      <trkpt lat="42.28223" lon="22.67007">
        <ele>595.855343</ele>
        <time>2022-04-09T07:54:32.172Z</time>
      </trkpt>
      <trkpt lat="42.2822" lon="22.66995">
        <ele>596.126215</ele>
        <time>2022-04-09T07:54:36.189Z</time>
      </trkpt>
      <trkpt lat="42.28218" lon="22.66982">
        <ele>596.393197</ele>
        <time>2022-04-09T07:54:40.187Z</time>
      </trkpt>
      <trkpt lat="42.28216" lon="22.6697">
        <ele>596.64513</ele>
        <time>2022-04-09T07:54:44.189Z</time>
      </trkpt>
      <trkpt lat="42.28213" lon="22.66956">
        <ele>596.931482</ele>
        <time>2022-04-09T07:54:48.192Z</time>
      </trkpt>
      <trkpt lat="42.28209" lon="22.66942">
        <ele>597.237039</ele>
        <time>2022-04-09T07:54:52.183Z</time>
      </trkpt>
      <trkpt lat="42.28205" lon="22.66929">
        <ele>597.527368</ele>
        <time>2022-04-09T07:54:56.235Z</time>
      </trkpt>
      <trkpt lat="42.28202" lon="22.66916">
        <ele>597.809256</ele>
        <time>2022-04-09T07:55:00.180Z</time>
      </trkpt>
      <trkpt lat="42.28199" lon="22.66902">
        <ele>597.996495</ele>
        <time>2022-04-09T07:55:04.193Z</time>
      </trkpt>
      <trkpt lat="42.28195" lon="22.66888">
        <ele>598.076956</ele>
        <time>2022-04-09T07:55:08.186Z</time>
      </trkpt>
      <trkpt lat="42.28192" lon="22.66873">
        <ele>598.159162</ele>
        <time>2022-04-09T07:55:12.186Z</time>
      </trkpt>
      <trkpt lat="42.28189" lon="22.66859">
        <ele>598.239704</ele>
        <time>2022-04-09T07:55:16.199Z</time>
      </trkpt>
      <trkpt lat="42.28187" lon="22.66845">
        <ele>598.32099</ele>
        <time>2022-04-09T07:55:20.183Z</time>
      </trkpt>
      <trkpt lat="42.28184" lon="22.6683">
        <ele>598.402239</ele>
        <time>2022-04-09T07:55:24.180Z</time>
      </trkpt>
      <trkpt lat="42.28181" lon="22.66816">
        <ele>598.482256</ele>
        <time>2022-04-09T07:55:28.193Z</time>
      </trkpt>
      <trkpt lat="42.28179" lon="22.66802">
        <ele>598.563783</ele>
        <time>2022-04-09T07:55:32.171Z</time>
      </trkpt>
      <trkpt lat="42.28176" lon="22.66787">
        <ele>598.64521</ele>
        <time>2022-04-09T07:55:36.185Z</time>
      </trkpt>
      <trkpt lat="42.28174" lon="22.66774">
        <ele>598.721518</ele>
        <time>2022-04-09T07:55:40.195Z</time>
      </trkpt>
      <trkpt lat="42.28171" lon="22.66759">
        <ele>598.803131</ele>
        <time>2022-04-09T07:55:44.198Z</time>
      </trkpt>
      <trkpt lat="42.28168" lon="22.66746">
        <ele>598.879566</ele>
        <time>2022-04-09T07:55:48.199Z</time>
      </trkpt>
      <trkpt lat="42.28165" lon="22.66733">
        <ele>598.956459</ele>
        <time>2022-04-09T07:55:52.169Z</time>
      </trkpt>
      <trkpt lat="42.28162" lon="22.66718">
        <ele>599.040045</ele>
        <time>2022-04-09T07:55:56.203Z</time>
      </trkpt>
      <trkpt lat="42.2816" lon="22.66703">
        <ele>599.12573</ele>
        <time>2022-04-09T07:56:00.175Z</time>
      </trkpt>
      <trkpt lat="42.28157" lon="22.66688">
        <ele>599.20734</ele>
        <time>2022-04-09T07:56:04.182Z</time>
      </trkpt>
      <trkpt lat="42.28156" lon="22.66676">
        <ele>599.275445</ele>
        <time>2022-04-09T07:56:07.197Z</time>
      </trkpt>
      <trkpt lat="42.28153" lon="22.66661">
        <ele>599.684997</ele>
        <time>2022-04-09T07:56:11.180Z</time>
      </trkpt>
      <trkpt lat="42.28151" lon="22.66646">
        <ele>600.118949</ele>
        <time>2022-04-09T07:56:15.180Z</time>
      </trkpt>
      <trkpt lat="42.28149" lon="22.66632">
        <ele>600.555296</ele>
        <time>2022-04-09T07:56:19.188Z</time>
      </trkpt>
      <trkpt lat="42.28146" lon="22.66618">
        <ele>600.999823</ele>
        <time>2022-04-09T07:56:23.183Z</time>
      </trkpt>
      <trkpt lat="42.28143" lon="22.66603">
        <ele>601.445161</ele>
        <time>2022-04-09T07:56:27.191Z</time>
      </trkpt>
      <trkpt lat="42.2814" lon="22.6659">
        <ele>601.869926</ele>
        <time>2022-04-09T07:56:31.202Z</time>
      </trkpt>
      <trkpt lat="42.28137" lon="22.66575">
        <ele>602.325481</ele>
        <time>2022-04-09T07:56:35.192Z</time>
      </trkpt>
      <trkpt lat="42.28134" lon="22.66561">
        <ele>602.759433</ele>
        <time>2022-04-09T07:56:39.188Z</time>
      </trkpt>
      <trkpt lat="42.28132" lon="22.66547">
        <ele>603.174189</ele>
        <time>2022-04-09T07:56:43.238Z</time>
      </trkpt>
      <trkpt lat="42.28129" lon="22.66533">
        <ele>603.613964</ele>
        <time>2022-04-09T07:56:47.191Z</time>
      </trkpt>
      <trkpt lat="42.28127" lon="22.66521">
        <ele>603.977982</ele>
        <time>2022-04-09T07:56:51.190Z</time>
      </trkpt>
      <trkpt lat="42.28124" lon="22.66509">
        <ele>604.360196</ele>
        <time>2022-04-09T07:56:55.191Z</time>
      </trkpt>
      <trkpt lat="42.28122" lon="22.66495">
        <ele>604.771049</ele>
        <time>2022-04-09T07:56:59.188Z</time>
      </trkpt>
      <trkpt lat="42.2812" lon="22.66481">
        <ele>605.190578</ele>
        <time>2022-04-09T07:57:03.172Z</time>
      </trkpt>
      <trkpt lat="42.28119" lon="22.66467">
        <ele>605.615489</ele>
        <time>2022-04-09T07:57:07.178Z</time>
      </trkpt>
      <trkpt lat="42.28117" lon="22.66453">
        <ele>606.03844</ele>
        <time>2022-04-09T07:57:11.232Z</time>
      </trkpt>
      <trkpt lat="42.28116" lon="22.6644">
        <ele>606.427449</ele>
        <time>2022-04-09T07:57:15.191Z</time>
      </trkpt>
      <trkpt lat="42.28113" lon="22.66426">
        <ele>606.803942</ele>
        <time>2022-04-09T07:57:19.190Z</time>
      </trkpt>
      <trkpt lat="42.28112" lon="22.66412">
        <ele>607.173824</ele>
        <time>2022-04-09T07:57:23.189Z</time>
      </trkpt>
      <trkpt lat="42.2811" lon="22.66398">
        <ele>607.542418</ele>
        <time>2022-04-09T07:57:27.193Z</time>
      </trkpt>
      <trkpt lat="42.28108" lon="22.66384">
        <ele>607.887188</ele>
        <time>2022-04-09T07:57:31.239Z</time>
      </trkpt>
      <trkpt lat="42.28106" lon="22.66371">
        <ele>608.220169</ele>
        <time>2022-04-09T07:57:35.187Z</time>
      </trkpt>
      <trkpt lat="42.28104" lon="22.66358">
        <ele>608.561963</ele>
        <time>2022-04-09T07:57:39.201Z</time>
      </trkpt>
      <trkpt lat="42.28102" lon="22.66345">
        <ele>608.912378</ele>
        <time>2022-04-09T07:57:43.198Z</time>
      </trkpt>
      <trkpt lat="42.281" lon="22.66331">
        <ele>609.267363</ele>
        <time>2022-04-09T07:57:47.176Z</time>
      </trkpt>
      <trkpt lat="42.28098" lon="22.66318">
        <ele>609.61153</ele>
        <time>2022-04-09T07:57:51.197Z</time>
      </trkpt>
      <trkpt lat="42.28097" lon="22.66305">
        <ele>609.945651</ele>
        <time>2022-04-09T07:57:55.220Z</time>
      </trkpt>
      <trkpt lat="42.28096" lon="22.66292">
        <ele>610.274883</ele>
        <time>2022-04-09T07:57:59.194Z</time>
      </trkpt>
      <trkpt lat="42.28094" lon="22.66278">
        <ele>610.656254</ele>
        <time>2022-04-09T07:58:03.180Z</time>
      </trkpt>
      <trkpt lat="42.2809" lon="22.66266">
        <ele>610.991665</ele>
        <time>2022-04-09T07:58:07.218Z</time>
      </trkpt>
      <trkpt lat="42.28087" lon="22.66254">
        <ele>611.31023</ele>
        <time>2022-04-09T07:58:11.198Z</time>
      </trkpt>
      <trkpt lat="42.28086" lon="22.66241">
        <ele>611.646047</ele>
        <time>2022-04-09T07:58:15.179Z</time>
      </trkpt>
      <trkpt lat="42.28085" lon="22.66228">
        <ele>611.967038</ele>
        <time>2022-04-09T07:58:19.210Z</time>
      </trkpt>
      <trkpt lat="42.28084" lon="22.66214">
        <ele>612.317172</ele>
        <time>2022-04-09T07:58:23.177Z</time>
      </trkpt>
      <trkpt lat="42.28082" lon="22.66202">
        <ele>612.639547</ele>
        <time>2022-04-09T07:58:27.180Z</time>
      </trkpt>
      <trkpt lat="42.28082" lon="22.66186">
        <ele>612.892204</ele>
        <time>2022-04-09T07:58:32.193Z</time>
      </trkpt>
      <trkpt lat="42.28079" lon="22.66175">
        <ele>613.063737</ele>
        <time>2022-04-09T07:58:35.194Z</time>
      </trkpt>
      <trkpt lat="42.28076" lon="22.66161">
        <ele>613.260229</ele>
        <time>2022-04-09T07:58:39.187Z</time>
      </trkpt>
      <trkpt lat="42.28074" lon="22.66149">
        <ele>613.43803</ele>
        <time>2022-04-09T07:58:43.180Z</time>
      </trkpt>
      <trkpt lat="42.28073" lon="22.66135">
        <ele>613.635782</ele>
        <time>2022-04-09T07:58:47.171Z</time>
      </trkpt>
      <trkpt lat="42.28071" lon="22.66123">
        <ele>613.809137</ele>
        <time>2022-04-09T07:58:51.203Z</time>
      </trkpt>
      <trkpt lat="42.28069" lon="22.66108">
        <ele>614.021035</ele>
        <time>2022-04-09T07:58:56.184Z</time>
      </trkpt>
      <trkpt lat="42.28068" lon="22.66093">
        <ele>614.236295</ele>
        <time>2022-04-09T07:59:01.214Z</time>
      </trkpt>
      <trkpt lat="42.28068" lon="22.6608">
        <ele>614.413529</ele>
        <time>2022-04-09T07:59:05.182Z</time>
      </trkpt>
      <trkpt lat="42.28067" lon="22.66068">
        <ele>614.587569</ele>
        <time>2022-04-09T07:59:09.194Z</time>
      </trkpt>
      <trkpt lat="42.28065" lon="22.66053">
        <ele>614.792906</ele>
        <time>2022-04-09T07:59:14.179Z</time>
      </trkpt>
      <trkpt lat="42.28063" lon="22.6604">
        <ele>614.987589</ele>
        <time>2022-04-09T07:59:18.191Z</time>
      </trkpt>
      <trkpt lat="42.28062" lon="22.66027">
        <ele>615.163384</ele>
        <time>2022-04-09T07:59:22.172Z</time>
      </trkpt>
      <trkpt lat="42.2806" lon="22.66014">
        <ele>615.354251</ele>
        <time>2022-04-09T07:59:27.164Z</time>
      </trkpt>
      <trkpt lat="42.28058" lon="22.65999">
        <ele>615.562697</ele>
        <time>2022-04-09T07:59:32.208Z</time>
      </trkpt>
      <trkpt lat="42.28056" lon="22.65987">
        <ele>615.735305</ele>
        <time>2022-04-09T07:59:36.177Z</time>
      </trkpt>
      <trkpt lat="42.28055" lon="22.65975">
        <ele>615.912212</ele>
        <time>2022-04-09T07:59:40.198Z</time>
      </trkpt>
      <trkpt lat="42.28052" lon="22.65959">
        <ele>616.131218</ele>
        <time>2022-04-09T07:59:45.182Z</time>
      </trkpt>
      <trkpt lat="42.28051" lon="22.65947">
        <ele>616.319842</ele>
        <time>2022-04-09T07:59:49.180Z</time>
      </trkpt>
      <trkpt lat="42.28051" lon="22.65934">
        <ele>616.504111</ele>
        <time>2022-04-09T07:59:53.192Z</time>
      </trkpt>
      <trkpt lat="42.28049" lon="22.65921">
        <ele>616.692646</ele>
        <time>2022-04-09T07:59:57.220Z</time>
      </trkpt>
      <trkpt lat="42.28048" lon="22.65908">
        <ele>616.881445</ele>
        <time>2022-04-09T08:00:01.198Z</time>
      </trkpt>
      <trkpt lat="42.28046" lon="22.65894">
        <ele>617.096101</ele>
        <time>2022-04-09T08:00:06.193Z</time>
      </trkpt>
      <trkpt lat="42.28045" lon="22.65881">
        <ele>617.282415</ele>
        <time>2022-04-09T08:00:10.193Z</time>
      </trkpt>
      <trkpt lat="42.28043" lon="22.65869">
        <ele>617.458377</ele>
        <time>2022-04-09T08:00:14.192Z</time>
      </trkpt>
      <trkpt lat="42.28041" lon="22.65855">
        <ele>617.675814</ele>
        <time>2022-04-09T08:00:19.181Z</time>
      </trkpt>
      <trkpt lat="42.2804" lon="22.65841">
        <ele>617.8717</ele>
        <time>2022-04-09T08:00:23.187Z</time>
      </trkpt>
      <trkpt lat="42.28039" lon="22.65828">
        <ele>618.062144</ele>
        <time>2022-04-09T08:00:27.193Z</time>
      </trkpt>
      <trkpt lat="42.28038" lon="22.65816">
        <ele>618.248042</ele>
        <time>2022-04-09T08:00:31.197Z</time>
      </trkpt>
      <trkpt lat="42.28036" lon="22.65801">
        <ele>618.463122</ele>
        <time>2022-04-09T08:00:36.190Z</time>
      </trkpt>
      <trkpt lat="42.28034" lon="22.65788">
        <ele>618.655526</ele>
        <time>2022-04-09T08:00:41.197Z</time>
      </trkpt>
      <trkpt lat="42.28031" lon="22.65775">
        <ele>618.85738</ele>
        <time>2022-04-09T08:00:46.237Z</time>
      </trkpt>
      <trkpt lat="42.2803" lon="22.65762">
        <ele>619.049486</ele>
        <time>2022-04-09T08:00:51.192Z</time>
      </trkpt>
      <trkpt lat="42.28033" lon="22.65748">
        <ele>619.251339</ele>
        <time>2022-04-09T08:00:56.193Z</time>
      </trkpt>
      <trkpt lat="42.28035" lon="22.65734">
        <ele>619.467795</ele>
        <time>2022-04-09T08:01:01.195Z</time>
      </trkpt>
      <trkpt lat="42.28038" lon="22.65719">
        <ele>619.708465</ele>
        <time>2022-04-09T08:01:06.199Z</time>
      </trkpt>
      <trkpt lat="42.2804" lon="22.65706">
        <ele>620.067555</ele>
        <time>2022-04-09T08:01:10.182Z</time>
      </trkpt>
      <trkpt lat="42.28038" lon="22.65694">
        <ele>620.383389</ele>
        <time>2022-04-09T08:01:14.185Z</time>
      </trkpt>
      <trkpt lat="42.28036" lon="22.65679">
        <ele>620.773292</ele>
        <time>2022-04-09T08:01:19.189Z</time>
      </trkpt>
      <trkpt lat="42.28033" lon="22.65667">
        <ele>621.087145</ele>
        <time>2022-04-09T08:01:23.186Z</time>
      </trkpt>
      <trkpt lat="42.2803" lon="22.65653">
        <ele>621.462044</ele>
        <time>2022-04-09T08:01:28.177Z</time>
      </trkpt>
      <trkpt lat="42.28027" lon="22.65642">
        <ele>621.779695</ele>
        <time>2022-04-09T08:01:32.205Z</time>
      </trkpt>
      <trkpt lat="42.28024" lon="22.6563">
        <ele>622.107124</ele>
        <time>2022-04-09T08:01:36.212Z</time>
      </trkpt>
      <trkpt lat="42.28021" lon="22.65617">
        <ele>622.450203</ele>
        <time>2022-04-09T08:01:40.191Z</time>
      </trkpt>
      <trkpt lat="42.28018" lon="22.65605">
        <ele>622.778395</ele>
        <time>2022-04-09T08:01:44.189Z</time>
      </trkpt>
      <trkpt lat="42.28015" lon="22.65593">
        <ele>623.111754</ele>
        <time>2022-04-09T08:01:48.216Z</time>
      </trkpt>
      <trkpt lat="42.28012" lon="22.65581">
        <ele>623.435442</ele>
        <time>2022-04-09T08:01:52.190Z</time>
      </trkpt>
      <trkpt lat="42.28009" lon="22.65569">
        <ele>623.766689</ele>
        <time>2022-04-09T08:01:56.179Z</time>
      </trkpt>
      <trkpt lat="42.28005" lon="22.65557">
        <ele>624.103729</ele>
        <time>2022-04-09T08:02:00.169Z</time>
      </trkpt>
      <trkpt lat="42.28002" lon="22.65543">
        <ele>624.485592</ele>
        <time>2022-04-09T08:02:04.175Z</time>
      </trkpt>
      <trkpt lat="42.27998" lon="22.65531">
        <ele>624.82272</ele>
        <time>2022-04-09T08:02:08.188Z</time>
      </trkpt>
      <trkpt lat="42.27995" lon="22.65518">
        <ele>625.156429</ele>
        <time>2022-04-09T08:02:12.189Z</time>
      </trkpt>
      <trkpt lat="42.27992" lon="22.65507">
        <ele>625.477693</ele>
        <time>2022-04-09T08:02:16.224Z</time>
      </trkpt>
      <trkpt lat="42.27988" lon="22.65496">
        <ele>625.796854</ele>
        <time>2022-04-09T08:02:20.177Z</time>
      </trkpt>
      <trkpt lat="42.27984" lon="22.65484">
        <ele>626.134131</ele>
        <time>2022-04-09T08:02:24.188Z</time>
      </trkpt>
      <trkpt lat="42.27982" lon="22.65472">
        <ele>626.469083</ele>
        <time>2022-04-09T08:02:28.175Z</time>
      </trkpt>
      <trkpt lat="42.27978" lon="22.65458">
        <ele>626.881738</ele>
        <time>2022-04-09T08:02:33.215Z</time>
      </trkpt>
      <trkpt lat="42.27973" lon="22.65445">
        <ele>627.255022</ele>
        <time>2022-04-09T08:02:38.184Z</time>
      </trkpt>
      <trkpt lat="42.2797" lon="22.65434">
        <ele>627.588284</ele>
        <time>2022-04-09T08:02:42.184Z</time>
      </trkpt>
      <trkpt lat="42.27965" lon="22.6542">
        <ele>627.988922</ele>
        <time>2022-04-09T08:02:47.169Z</time>
      </trkpt>
      <trkpt lat="42.27961" lon="22.65409">
        <ele>628.321458</ele>
        <time>2022-04-09T08:02:51.188Z</time>
      </trkpt>
      <trkpt lat="42.27958" lon="22.65397">
        <ele>628.658577</ele>
        <time>2022-04-09T08:02:55.189Z</time>
      </trkpt>
      <trkpt lat="42.27954" lon="22.65383">
        <ele>629.0551</ele>
        <time>2022-04-09T08:03:00.192Z</time>
      </trkpt>
      <trkpt lat="42.27952" lon="22.65372">
        <ele>629.382343</ele>
        <time>2022-04-09T08:03:04.213Z</time>
      </trkpt>
      <trkpt lat="42.27948" lon="22.6536">
        <ele>629.729706</ele>
        <time>2022-04-09T08:03:08.162Z</time>
      </trkpt>
      <trkpt lat="42.27944" lon="22.65349">
        <ele>630.069265</ele>
        <time>2022-04-09T08:03:12.220Z</time>
      </trkpt>
      <trkpt lat="42.2794" lon="22.65334">
        <ele>630.479396</ele>
        <time>2022-04-09T08:03:17.180Z</time>
      </trkpt>
      <trkpt lat="42.27937" lon="22.65322">
        <ele>630.830449</ele>
        <time>2022-04-09T08:03:21.183Z</time>
      </trkpt>
      <trkpt lat="42.27935" lon="22.6531">
        <ele>631.172765</ele>
        <time>2022-04-09T08:03:25.187Z</time>
      </trkpt>
      <trkpt lat="42.27933" lon="22.65297">
        <ele>631.521513</ele>
        <time>2022-04-09T08:03:29.236Z</time>
      </trkpt>
      <trkpt lat="42.27932" lon="22.65284">
        <ele>631.878978</ele>
        <time>2022-04-09T08:03:33.199Z</time>
      </trkpt>
      <trkpt lat="42.27931" lon="22.6527">
        <ele>632.239539</ele>
        <time>2022-04-09T08:03:37.195Z</time>
      </trkpt>
      <trkpt lat="42.2793" lon="22.65257">
        <ele>632.614431</ele>
        <time>2022-04-09T08:03:41.203Z</time>
      </trkpt>
      <trkpt lat="42.27929" lon="22.65245">
        <ele>633.038782</ele>
        <time>2022-04-09T08:03:45.199Z</time>
      </trkpt>
      <trkpt lat="42.27928" lon="22.6523">
        <ele>633.551661</ele>
        <time>2022-04-09T08:03:50.189Z</time>
      </trkpt>
      <trkpt lat="42.27926" lon="22.65217">
        <ele>633.974729</ele>
        <time>2022-04-09T08:03:54.185Z</time>
      </trkpt>
      <trkpt lat="42.27926" lon="22.65204">
        <ele>634.416041</ele>
        <time>2022-04-09T08:03:58.192Z</time>
      </trkpt>
      <trkpt lat="42.27924" lon="22.65192">
        <ele>634.848619</ele>
        <time>2022-04-09T08:04:02.179Z</time>
      </trkpt>
      <trkpt lat="42.27924" lon="22.65178">
        <ele>635.301968</ele>
        <time>2022-04-09T08:04:06.196Z</time>
      </trkpt>
      <trkpt lat="42.27924" lon="22.65165">
        <ele>635.758882</ele>
        <time>2022-04-09T08:04:10.185Z</time>
      </trkpt>
      <trkpt lat="42.27923" lon="22.65151">
        <ele>636.218352</ele>
        <time>2022-04-09T08:04:14.186Z</time>
      </trkpt>
      <trkpt lat="42.27922" lon="22.65139">
        <ele>636.649187</ele>
        <time>2022-04-09T08:04:18.199Z</time>
      </trkpt>
      <trkpt lat="42.27921" lon="22.65126">
        <ele>637.084166</ele>
        <time>2022-04-09T08:04:22.192Z</time>
      </trkpt>
      <trkpt lat="42.2792" lon="22.65113">
        <ele>637.5173</ele>
        <time>2022-04-09T08:04:26.206Z</time>
      </trkpt>
      <trkpt lat="42.2792" lon="22.651">
        <ele>637.9605</ele>
        <time>2022-04-09T08:04:30.194Z</time>
      </trkpt>
      <trkpt lat="42.27919" lon="22.65086">
        <ele>638.425079</ele>
        <time>2022-04-09T08:04:34.177Z</time>
      </trkpt>
      <trkpt lat="42.27918" lon="22.65073">
        <ele>638.896948</ele>
        <time>2022-04-09T08:04:38.188Z</time>
      </trkpt>
      <trkpt lat="42.27916" lon="22.65059">
        <ele>639.367908</ele>
        <time>2022-04-09T08:04:43.176Z</time>
      </trkpt>
      <trkpt lat="42.27914" lon="22.65045">
        <ele>639.833683</ele>
        <time>2022-04-09T08:04:48.179Z</time>
      </trkpt>
      <trkpt lat="42.27913" lon="22.65033">
        <ele>640.266262</ele>
        <time>2022-04-09T08:04:52.193Z</time>
      </trkpt>
      <trkpt lat="42.27912" lon="22.6502">
        <ele>640.68488</ele>
        <time>2022-04-09T08:04:56.179Z</time>
      </trkpt>
      <trkpt lat="42.2791" lon="22.65007">
        <ele>641.033844</ele>
        <time>2022-04-09T08:05:00.235Z</time>
      </trkpt>
      <trkpt lat="42.2791" lon="22.64994">
        <ele>641.374836</ele>
        <time>2022-04-09T08:05:04.220Z</time>
      </trkpt>
      <trkpt lat="42.27909" lon="22.6498">
        <ele>641.755135</ele>
        <time>2022-04-09T08:05:09.179Z</time>
      </trkpt>
      <trkpt lat="42.27907" lon="22.64966">
        <ele>642.121549</ele>
        <time>2022-04-09T08:05:14.202Z</time>
      </trkpt>
      <trkpt lat="42.27906" lon="22.64952">
        <ele>642.477362</ele>
        <time>2022-04-09T08:05:19.184Z</time>
      </trkpt>
      <trkpt lat="42.27906" lon="22.64939">
        <ele>642.831696</ele>
        <time>2022-04-09T08:05:24.177Z</time>
      </trkpt>
      <trkpt lat="42.27905" lon="22.64926">
        <ele>643.164893</ele>
        <time>2022-04-09T08:05:29.191Z</time>
      </trkpt>
      <trkpt lat="42.27905" lon="22.64912">
        <ele>643.514265</ele>
        <time>2022-04-09T08:05:35.200Z</time>
      </trkpt>
      <trkpt lat="42.27903" lon="22.64899">
        <ele>643.85457</ele>
        <time>2022-04-09T08:05:40.213Z</time>
      </trkpt>
      <trkpt lat="42.27903" lon="22.64886">
        <ele>644.211033</ele>
        <time>2022-04-09T08:05:45.219Z</time>
      </trkpt>
      <trkpt lat="42.27903" lon="22.64873">
        <ele>644.544397</ele>
        <time>2022-04-09T08:05:50.195Z</time>
      </trkpt>
      <trkpt lat="42.27902" lon="22.64861">
        <ele>644.860052</ele>
        <time>2022-04-09T08:05:55.196Z</time>
      </trkpt>
      <trkpt lat="42.27901" lon="22.64848">
        <ele>645.201716</ele>
        <time>2022-04-09T08:06:01.191Z</time>
      </trkpt>
      <trkpt lat="42.27899" lon="22.64834">
        <ele>645.569624</ele>
        <time>2022-04-09T08:06:07.156Z</time>
      </trkpt>
      <trkpt lat="42.27897" lon="22.64821">
        <ele>645.904779</ele>
        <time>2022-04-09T08:06:13.198Z</time>
      </trkpt>
      <trkpt lat="42.27895" lon="22.64809">
        <ele>646.227175</ele>
        <time>2022-04-09T08:06:19.191Z</time>
      </trkpt>
      <trkpt lat="42.27893" lon="22.64796">
        <ele>646.567357</ele>
        <time>2022-04-09T08:06:25.168Z</time>
      </trkpt>
      <trkpt lat="42.27893" lon="22.64784">
        <ele>646.884673</ele>
        <time>2022-04-09T08:06:30.162Z</time>
      </trkpt>
      <trkpt lat="42.27892" lon="22.6477">
        <ele>647.040025</ele>
        <time>2022-04-09T08:06:36.205Z</time>
      </trkpt>
      <trkpt lat="42.27892" lon="22.64756">
        <ele>647.045259</ele>
        <time>2022-04-09T08:06:42.162Z</time>
      </trkpt>
      <trkpt lat="42.2789" lon="22.64743">
        <ele>647.050373</ele>
        <time>2022-04-09T08:06:48.153Z</time>
      </trkpt>
      <trkpt lat="42.27889" lon="22.64731">
        <ele>647.055137</ele>
        <time>2022-04-09T08:06:54.163Z</time>
      </trkpt>
      <trkpt lat="42.27887" lon="22.64718">
        <ele>647.060483</ele>
        <time>2022-04-09T08:07:00.167Z</time>
      </trkpt>
      <trkpt lat="42.27884" lon="22.64705">
        <ele>647.065753</ele>
        <time>2022-04-09T08:07:06.159Z</time>
      </trkpt>
      <trkpt lat="42.2788" lon="22.64694">
        <ele>647.070616</ele>
        <time>2022-04-09T08:07:12.163Z</time>
      </trkpt>
      <trkpt lat="42.27871" lon="22.64686">
        <ele>647.076058</ele>
        <time>2022-04-09T08:07:18.165Z</time>
      </trkpt>
      <trkpt lat="42.27864" lon="22.64679">
        <ele>647.080826</ele>
        <time>2022-04-09T08:07:23.158Z</time>
      </trkpt>
      <trkpt lat="42.27855" lon="22.64672">
        <ele>647.086479</ele>
        <time>2022-04-09T08:07:29.169Z</time>
      </trkpt>
      <trkpt lat="42.27846" lon="22.64667">
        <ele>647.091467</ele>
        <time>2022-04-09T08:07:34.164Z</time>
      </trkpt>
      <trkpt lat="42.27837" lon="22.6466">
        <ele>647.096834</ele>
        <time>2022-04-09T08:07:40.161Z</time>
      </trkpt>
      <trkpt lat="42.2783" lon="22.64652">
        <ele>647.101964</ele>
        <time>2022-04-09T08:07:45.157Z</time>
      </trkpt>
      <trkpt lat="42.27822" lon="22.64644">
        <ele>647.107176</ele>
        <time>2022-04-09T08:07:49.159Z</time>
      </trkpt>
      <trkpt lat="42.27813" lon="22.64638">
        <ele>647.112212</ele>
        <time>2022-04-09T08:07:53.195Z</time>
      </trkpt>
      <trkpt lat="42.27805" lon="22.6463">
        <ele>647.117659</ele>
        <time>2022-04-09T08:07:57.162Z</time>
      </trkpt>
      <trkpt lat="42.27796" lon="22.64621">
        <ele>647.123693</ele>
        <time>2022-04-09T08:08:01.155Z</time>
      </trkpt>
      <trkpt lat="42.27788" lon="22.64613">
        <ele>647.12868</ele>
        <time>2022-04-09T08:08:04.196Z</time>
      </trkpt>
      <trkpt lat="42.27779" lon="22.64606">
        <ele>647.226794</ele>
        <time>2022-04-09T08:08:07.164Z</time>
      </trkpt>
      <trkpt lat="42.2777" lon="22.64596">
        <ele>647.433996</ele>
        <time>2022-04-09T08:08:10.155Z</time>
      </trkpt>
      <trkpt lat="42.27764" lon="22.64582">
        <ele>647.649172</ele>
        <time>2022-04-09T08:08:13.162Z</time>
      </trkpt>
      <trkpt lat="42.2776" lon="22.64569">
        <ele>647.8267</ele>
        <time>2022-04-09T08:08:16.163Z</time>
      </trkpt>
      <trkpt lat="42.27755" lon="22.64558">
        <ele>647.993443</ele>
        <time>2022-04-09T08:08:19.154Z</time>
      </trkpt>
      <trkpt lat="42.27747" lon="22.6455">
        <ele>648.181899</ele>
        <time>2022-04-09T08:08:22.160Z</time>
      </trkpt>
      <trkpt lat="42.27737" lon="22.64541">
        <ele>648.386356</ele>
        <time>2022-04-09T08:08:25.164Z</time>
      </trkpt>
      <trkpt lat="42.27729" lon="22.64535">
        <ele>648.554934</ele>
        <time>2022-04-09T08:08:27.181Z</time>
      </trkpt>
      <trkpt lat="42.2772" lon="22.6453">
        <ele>648.720014</ele>
        <time>2022-04-09T08:08:29.160Z</time>
      </trkpt>
      <trkpt lat="42.27708" lon="22.64523">
        <ele>648.951655</ele>
        <time>2022-04-09T08:08:32.159Z</time>
      </trkpt>
      <trkpt lat="42.27699" lon="22.64517">
        <ele>649.134138</ele>
        <time>2022-04-09T08:08:34.176Z</time>
      </trkpt>
      <trkpt lat="42.2769" lon="22.64506">
        <ele>649.352996</ele>
        <time>2022-04-09T08:08:37.160Z</time>
      </trkpt>
      <trkpt lat="42.27683" lon="22.64494">
        <ele>649.550023</ele>
        <time>2022-04-09T08:08:41.165Z</time>
      </trkpt>
      <trkpt lat="42.27677" lon="22.64482">
        <ele>649.745309</ele>
        <time>2022-04-09T08:08:47.159Z</time>
      </trkpt>
      <trkpt lat="42.27674" lon="22.6447">
        <ele>649.91199</ele>
        <time>2022-04-09T08:08:52.175Z</time>
      </trkpt>
      <trkpt lat="42.2767" lon="22.64456">
        <ele>650.103534</ele>
        <time>2022-04-09T08:08:57.197Z</time>
      </trkpt>
      <trkpt lat="42.27667" lon="22.64445">
        <ele>650.269179</ele>
        <time>2022-04-09T08:09:02.158Z</time>
      </trkpt>
      <trkpt lat="42.27664" lon="22.64433">
        <ele>650.510217</ele>
        <time>2022-04-09T08:09:07.161Z</time>
      </trkpt>
      <trkpt lat="42.27662" lon="22.6442">
        <ele>650.8274</ele>
        <time>2022-04-09T08:09:12.178Z</time>
      </trkpt>
      <trkpt lat="42.27658" lon="22.64408">
        <ele>651.133402</ele>
        <time>2022-04-09T08:09:18.161Z</time>
      </trkpt>
      <trkpt lat="42.27656" lon="22.64396">
        <ele>651.441992</ele>
        <time>2022-04-09T08:09:24.171Z</time>
      </trkpt>
      <trkpt lat="42.27652" lon="22.64382">
        <ele>651.78529</ele>
        <time>2022-04-09T08:09:30.156Z</time>
      </trkpt>
      <trkpt lat="42.27651" lon="22.64369">
        <ele>652.086642</ele>
        <time>2022-04-09T08:09:35.172Z</time>
      </trkpt>
      <trkpt lat="42.27649" lon="22.64358">
        <ele>652.379744</ele>
        <time>2022-04-09T08:09:42.164Z</time>
      </trkpt>
      <trkpt lat="42.27646" lon="22.64346">
        <ele>652.673952</ele>
        <time>2022-04-09T08:09:49.162Z</time>
      </trkpt>
      <trkpt lat="42.27643" lon="22.64334">
        <ele>652.96867</ele>
        <time>2022-04-09T08:09:55.159Z</time>
      </trkpt>
      <trkpt lat="42.27639" lon="22.64323">
        <ele>653.260466</ele>
        <time>2022-04-09T08:10:01.164Z</time>
      </trkpt>
      <trkpt lat="42.27632" lon="22.64314">
        <ele>653.571824</ele>
        <time>2022-04-09T08:10:08.157Z</time>
      </trkpt>
      <trkpt lat="42.27623" lon="22.64307">
        <ele>653.901383</ele>
        <time>2022-04-09T08:10:14.173Z</time>
      </trkpt>
      <trkpt lat="42.27614" lon="22.64304">
        <ele>654.229364</ele>
        <time>2022-04-09T08:10:20.179Z</time>
      </trkpt>
      <trkpt lat="42.27604" lon="22.64301">
        <ele>654.55073</ele>
        <time>2022-04-09T08:10:26.157Z</time>
      </trkpt>
      <trkpt lat="42.27594" lon="22.64298">
        <ele>654.8847</ele>
        <time>2022-04-09T08:10:33.164Z</time>
      </trkpt>
      <trkpt lat="42.27584" lon="22.64297">
        <ele>655.203499</ele>
        <time>2022-04-09T08:10:40.163Z</time>
      </trkpt>
      <trkpt lat="42.27575" lon="22.64294">
        <ele>655.503451</ele>
        <time>2022-04-09T08:10:48.179Z</time>
      </trkpt>
      <trkpt lat="42.27566" lon="22.64292">
        <ele>655.804021</ele>
        <time>2022-04-09T08:10:54.175Z</time>
      </trkpt>
      <trkpt lat="42.27556" lon="22.6429">
        <ele>656.109358</ele>
        <time>2022-04-09T08:11:00.160Z</time>
      </trkpt>
      <trkpt lat="42.27547" lon="22.64286">
        <ele>656.772654</ele>
        <time>2022-04-09T08:11:07.164Z</time>
      </trkpt>
      <trkpt lat="42.27538" lon="22.64282">
        <ele>657.399734</ele>
        <time>2022-04-09T08:11:14.159Z</time>
      </trkpt>
      <trkpt lat="42.27528" lon="22.64279">
        <ele>658.097825</ele>
        <time>2022-04-09T08:11:21.155Z</time>
      </trkpt>
      <trkpt lat="42.27519" lon="22.64277">
        <ele>658.743036</ele>
        <time>2022-04-09T08:11:28.162Z</time>
      </trkpt>
      <trkpt lat="42.27509" lon="22.64277">
        <ele>659.407932</ele>
        <time>2022-04-09T08:11:35.180Z</time>
      </trkpt>
      <trkpt lat="42.275" lon="22.64276">
        <ele>660.088063</ele>
        <time>2022-04-09T08:11:41.192Z</time>
      </trkpt>
      <trkpt lat="42.2749" lon="22.64275">
        <ele>660.781406</ele>
        <time>2022-04-09T08:11:48.168Z</time>
      </trkpt>
      <trkpt lat="42.2748" lon="22.64275">
        <ele>661.418943</ele>
        <time>2022-04-09T08:11:56.164Z</time>
      </trkpt>
      <trkpt lat="42.2747" lon="22.64275">
        <ele>662.13971</ele>
        <time>2022-04-09T08:12:03.153Z</time>
      </trkpt>
      <trkpt lat="42.27461" lon="22.64275">
        <ele>662.769829</ele>
        <time>2022-04-09T08:12:09.191Z</time>
      </trkpt>
      <trkpt lat="42.27452" lon="22.64275">
        <ele>663.40685</ele>
        <time>2022-04-09T08:12:15.186Z</time>
      </trkpt>
      <trkpt lat="42.27443" lon="22.64273">
        <ele>664.037581</ele>
        <time>2022-04-09T08:12:21.188Z</time>
      </trkpt>
      <trkpt lat="42.27433" lon="22.64272">
        <ele>664.696989</ele>
        <time>2022-04-09T08:12:27.198Z</time>
      </trkpt>
      <trkpt lat="42.27424" lon="22.64272">
        <ele>665.341668</ele>
        <time>2022-04-09T08:12:33.160Z</time>
      </trkpt>
      <trkpt lat="42.27415" lon="22.64271">
        <ele>665.987263</ele>
        <time>2022-04-09T08:12:40.156Z</time>
      </trkpt>
      <trkpt lat="42.27405" lon="22.64269">
        <ele>666.678265</ele>
        <time>2022-04-09T08:12:48.162Z</time>
      </trkpt>
      <trkpt lat="42.27396" lon="22.64268">
        <ele>667.304464</ele>
        <time>2022-04-09T08:12:56.166Z</time>
      </trkpt>
      <trkpt lat="42.27386" lon="22.64267">
        <ele>667.97078</ele>
        <time>2022-04-09T08:13:04.160Z</time>
      </trkpt>
      <trkpt lat="42.27376" lon="22.64267">
        <ele>668.631379</ele>
        <time>2022-04-09T08:13:14.160Z</time>
      </trkpt>
      <trkpt lat="42.27366" lon="22.64265">
        <ele>669.150457</ele>
        <time>2022-04-09T08:13:22.157Z</time>
      </trkpt>
      <trkpt lat="42.27358" lon="22.64267">
        <ele>669.618165</ele>
        <time>2022-04-09T08:13:29.157Z</time>
      </trkpt>
      <trkpt lat="42.27348" lon="22.64267">
        <ele>670.092722</ele>
        <time>2022-04-09T08:13:36.160Z</time>
      </trkpt>
      <trkpt lat="42.27338" lon="22.64266">
        <ele>670.632178</ele>
        <time>2022-04-09T08:13:44.182Z</time>
      </trkpt>
      <trkpt lat="42.27328" lon="22.64266">
        <ele>671.174855</ele>
        <time>2022-04-09T08:13:52.157Z</time>
      </trkpt>
      <trkpt lat="42.27318" lon="22.64265">
        <ele>671.678805</ele>
        <time>2022-04-09T08:13:59.161Z</time>
      </trkpt>
      <trkpt lat="42.27309" lon="22.64265">
        <ele>672.180149</ele>
        <time>2022-04-09T08:14:06.157Z</time>
      </trkpt>
      <trkpt lat="42.27298" lon="22.64265">
        <ele>672.712277</ele>
        <time>2022-04-09T08:14:13.201Z</time>
      </trkpt>
      <trkpt lat="42.27289" lon="22.64263">
        <ele>673.205868</ele>
        <time>2022-04-09T08:14:20.181Z</time>
      </trkpt>
      <trkpt lat="42.2728" lon="22.64263">
        <ele>673.685687</ele>
        <time>2022-04-09T08:14:27.194Z</time>
      </trkpt>
      <trkpt lat="42.2727" lon="22.64262">
        <ele>674.183621</ele>
        <time>2022-04-09T08:14:34.228Z</time>
      </trkpt>
      <trkpt lat="42.2726" lon="22.64262">
        <ele>674.694899</ele>
        <time>2022-04-09T08:14:40.180Z</time>
      </trkpt>
      <trkpt lat="42.2725" lon="22.64259">
        <ele>675.223872</ele>
        <time>2022-04-09T08:14:48.188Z</time>
      </trkpt>
      <trkpt lat="42.2724" lon="22.64258">
        <ele>675.757467</ele>
        <time>2022-04-09T08:14:55.178Z</time>
      </trkpt>
      <trkpt lat="42.2723" lon="22.64256">
        <ele>676.2944</ele>
        <time>2022-04-09T08:15:01.200Z</time>
      </trkpt>
      <trkpt lat="42.2722" lon="22.64255">
        <ele>676.7965</ele>
        <time>2022-04-09T08:15:07.191Z</time>
      </trkpt>
      <trkpt lat="42.27211" lon="22.64254">
        <ele>677.294061</ele>
        <time>2022-04-09T08:15:13.205Z</time>
      </trkpt>
      <trkpt lat="42.27202" lon="22.64253">
        <ele>677.786429</ele>
        <time>2022-04-09T08:15:19.223Z</time>
      </trkpt>
      <trkpt lat="42.27192" lon="22.6425">
        <ele>678.295069</ele>
        <time>2022-04-09T08:15:25.190Z</time>
      </trkpt>
      <trkpt lat="42.27183" lon="22.64249">
        <ele>678.843545</ele>
        <time>2022-04-09T08:15:31.193Z</time>
      </trkpt>
      <trkpt lat="42.27173" lon="22.64247">
        <ele>679.401224</ele>
        <time>2022-04-09T08:15:37.185Z</time>
      </trkpt>
      <trkpt lat="42.27163" lon="22.64244">
        <ele>679.931985</ele>
        <time>2022-04-09T08:15:43.196Z</time>
      </trkpt>
      <trkpt lat="42.27153" lon="22.64242">
        <ele>680.499888</ele>
        <time>2022-04-09T08:15:48.208Z</time>
      </trkpt>
      <trkpt lat="42.27144" lon="22.64237">
        <ele>681.02964</ele>
        <time>2022-04-09T08:15:54.189Z</time>
      </trkpt>
      <trkpt lat="42.27134" lon="22.64234">
        <ele>681.597393</ele>
        <time>2022-04-09T08:16:00.193Z</time>
      </trkpt>
      <trkpt lat="42.27126" lon="22.64229">
        <ele>682.118735</ele>
        <time>2022-04-09T08:16:07.179Z</time>
      </trkpt>
      <trkpt lat="42.2712" lon="22.64219">
        <ele>682.627346</ele>
        <time>2022-04-09T08:16:13.168Z</time>
      </trkpt>
      <trkpt lat="42.27117" lon="22.64207">
        <ele>683.132102</ele>
        <time>2022-04-09T08:16:18.195Z</time>
      </trkpt>
      <trkpt lat="42.27115" lon="22.64193">
        <ele>683.725013</ele>
        <time>2022-04-09T08:16:23.181Z</time>
      </trkpt>
      <trkpt lat="42.27112" lon="22.64181">
        <ele>684.235623</ele>
        <time>2022-04-09T08:16:27.198Z</time>
      </trkpt>
      <trkpt lat="42.2711" lon="22.6417">
        <ele>684.739052</ele>
        <time>2022-04-09T08:16:31.165Z</time>
      </trkpt>
      <trkpt lat="42.27107" lon="22.64158">
        <ele>685.255094</ele>
        <time>2022-04-09T08:16:35.176Z</time>
      </trkpt>
      <trkpt lat="42.27105" lon="22.64143">
        <ele>685.848859</ele>
        <time>2022-04-09T08:16:39.189Z</time>
      </trkpt>
      <trkpt lat="42.27103" lon="22.64129">
        <ele>686.459808</ele>
        <time>2022-04-09T08:16:43.176Z</time>
      </trkpt>
      <trkpt lat="42.27101" lon="22.64115">
        <ele>687.038117</ele>
        <time>2022-04-09T08:16:47.195Z</time>
      </trkpt>
      <trkpt lat="42.27099" lon="22.64103">
        <ele>687.562301</ele>
        <time>2022-04-09T08:16:51.174Z</time>
      </trkpt>
      <trkpt lat="42.27097" lon="22.64089">
        <ele>688.068146</ele>
        <time>2022-04-09T08:16:55.238Z</time>
      </trkpt>
      <trkpt lat="42.27096" lon="22.64073">
        <ele>688.474111</ele>
        <time>2022-04-09T08:16:59.181Z</time>
      </trkpt>
      <trkpt lat="42.27094" lon="22.64059">
        <ele>688.861203</ele>
        <time>2022-04-09T08:17:03.200Z</time>
      </trkpt>
      <trkpt lat="42.27091" lon="22.64045">
        <ele>689.231455</ele>
        <time>2022-04-09T08:17:07.215Z</time>
      </trkpt>
      <trkpt lat="42.27089" lon="22.6403">
        <ele>689.618668</ele>
        <time>2022-04-09T08:17:11.182Z</time>
      </trkpt>
      <trkpt lat="42.27087" lon="22.64017">
        <ele>689.970042</ele>
        <time>2022-04-09T08:17:15.177Z</time>
      </trkpt>
      <trkpt lat="42.27086" lon="22.64003">
        <ele>690.339557</ele>
        <time>2022-04-09T08:17:19.187Z</time>
      </trkpt>
      <trkpt lat="42.27083" lon="22.63991">
        <ele>690.663623</ele>
        <time>2022-04-09T08:17:23.185Z</time>
      </trkpt>
      <trkpt lat="42.27082" lon="22.63978">
        <ele>690.999794</ele>
        <time>2022-04-09T08:17:27.191Z</time>
      </trkpt>
      <trkpt lat="42.2708" lon="22.63964">
        <ele>691.365842</ele>
        <time>2022-04-09T08:17:31.179Z</time>
      </trkpt>
      <trkpt lat="42.27078" lon="22.63952">
        <ele>691.694222</ele>
        <time>2022-04-09T08:17:35.187Z</time>
      </trkpt>
      <trkpt lat="42.27076" lon="22.63939">
        <ele>692.038635</ele>
        <time>2022-04-09T08:17:39.184Z</time>
      </trkpt>
      <trkpt lat="42.27074" lon="22.63925">
        <ele>692.404095</ele>
        <time>2022-04-09T08:17:43.199Z</time>
      </trkpt>
      <trkpt lat="42.27074" lon="22.63911">
        <ele>692.764935</ele>
        <time>2022-04-09T08:17:47.169Z</time>
      </trkpt>
      <trkpt lat="42.27073" lon="22.63897">
        <ele>693.122797</ele>
        <time>2022-04-09T08:17:51.177Z</time>
      </trkpt>
      <trkpt lat="42.27071" lon="22.63885">
        <ele>693.450585</ele>
        <time>2022-04-09T08:17:55.188Z</time>
      </trkpt>
      <trkpt lat="42.27069" lon="22.63872">
        <ele>693.789234</ele>
        <time>2022-04-09T08:17:59.186Z</time>
      </trkpt>
      <trkpt lat="42.27067" lon="22.6386">
        <ele>694.117486</ele>
        <time>2022-04-09T08:18:03.199Z</time>
      </trkpt>
      <trkpt lat="42.27064" lon="22.63846">
        <ele>694.500969</ele>
        <time>2022-04-09T08:18:08.197Z</time>
      </trkpt>
      <trkpt lat="42.27061" lon="22.63834">
        <ele>694.842249</ele>
        <time>2022-04-09T08:18:12.208Z</time>
      </trkpt>
      <trkpt lat="42.27059" lon="22.63822">
        <ele>695.183703</ele>
        <time>2022-04-09T08:18:16.177Z</time>
      </trkpt>
      <trkpt lat="42.27057" lon="22.6381">
        <ele>695.539112</ele>
        <time>2022-04-09T08:18:20.198Z</time>
      </trkpt>
      <trkpt lat="42.27054" lon="22.63797">
        <ele>695.890941</ele>
        <time>2022-04-09T08:18:24.189Z</time>
      </trkpt>
      <trkpt lat="42.27053" lon="22.63785">
        <ele>696.240475</ele>
        <time>2022-04-09T08:18:28.192Z</time>
      </trkpt>
      <trkpt lat="42.27051" lon="22.6377">
        <ele>696.646406</ele>
        <time>2022-04-09T08:18:32.205Z</time>
      </trkpt>
      <trkpt lat="42.2705" lon="22.63755">
        <ele>697.046124</ele>
        <time>2022-04-09T08:18:36.168Z</time>
      </trkpt>
      <trkpt lat="42.27048" lon="22.6374">
        <ele>697.465851</ele>
        <time>2022-04-09T08:18:40.189Z</time>
      </trkpt>
      <trkpt lat="42.27046" lon="22.63726">
        <ele>697.858484</ele>
        <time>2022-04-09T08:18:44.181Z</time>
      </trkpt>
      <trkpt lat="42.27042" lon="22.63714">
        <ele>698.233123</ele>
        <time>2022-04-09T08:18:48.197Z</time>
      </trkpt>
      <trkpt lat="42.27039" lon="22.637">
        <ele>698.61848</ele>
        <time>2022-04-09T08:18:52.192Z</time>
      </trkpt>
      <trkpt lat="42.27037" lon="22.63686">
        <ele>699.001064</ele>
        <time>2022-04-09T08:18:56.187Z</time>
      </trkpt>
      <trkpt lat="42.27035" lon="22.63672">
        <ele>699.394691</ele>
        <time>2022-04-09T08:19:00.228Z</time>
      </trkpt>
      <trkpt lat="42.27034" lon="22.63658">
        <ele>699.785686</ele>
        <time>2022-04-09T08:19:04.190Z</time>
      </trkpt>
      <trkpt lat="42.27032" lon="22.63644">
        <ele>700.189872</ele>
        <time>2022-04-09T08:19:08.193Z</time>
      </trkpt>
      <trkpt lat="42.2703" lon="22.63629">
        <ele>700.592725</ele>
        <time>2022-04-09T08:19:12.198Z</time>
      </trkpt>
      <trkpt lat="42.27028" lon="22.63616">
        <ele>700.925718</ele>
        <time>2022-04-09T08:19:16.182Z</time>
      </trkpt>
      <trkpt lat="42.27026" lon="22.63602">
        <ele>700.811732</ele>
        <time>2022-04-09T08:19:20.216Z</time>
      </trkpt>
      <trkpt lat="42.27024" lon="22.63587">
        <ele>700.695894</ele>
        <time>2022-04-09T08:19:24.185Z</time>
      </trkpt>
      <trkpt lat="42.27022" lon="22.63574">
        <ele>700.580972</ele>
        <time>2022-04-09T08:19:28.213Z</time>
      </trkpt>
      <trkpt lat="42.27019" lon="22.63561">
        <ele>700.475131</ele>
        <time>2022-04-09T08:19:32.184Z</time>
      </trkpt>
      <trkpt lat="42.27017" lon="22.63547">
        <ele>700.35682</ele>
        <time>2022-04-09T08:19:36.176Z</time>
      </trkpt>
      <trkpt lat="42.27014" lon="22.63531">
        <ele>700.22826</ele>
        <time>2022-04-09T08:19:40.177Z</time>
      </trkpt>
      <trkpt lat="42.27012" lon="22.63516">
        <ele>700.102657</ele>
        <time>2022-04-09T08:19:44.181Z</time>
      </trkpt>
      <trkpt lat="42.27009" lon="22.635">
        <ele>699.974314</ele>
        <time>2022-04-09T08:19:48.202Z</time>
      </trkpt>
      <trkpt lat="42.27008" lon="22.63485">
        <ele>699.850725</ele>
        <time>2022-04-09T08:19:52.175Z</time>
      </trkpt>
      <trkpt lat="42.27007" lon="22.6347">
        <ele>699.730472</ele>
        <time>2022-04-09T08:19:56.217Z</time>
      </trkpt>
      <trkpt lat="42.27005" lon="22.63456">
        <ele>699.610425</ele>
        <time>2022-04-09T08:20:00.198Z</time>
      </trkpt>
      <trkpt lat="42.27003" lon="22.63442">
        <ele>699.501076</ele>
        <time>2022-04-09T08:20:04.162Z</time>
      </trkpt>
      <trkpt lat="42.27002" lon="22.63428">
        <ele>699.383242</ele>
        <time>2022-04-09T08:20:08.213Z</time>
      </trkpt>
      <trkpt lat="42.27" lon="22.63413">
        <ele>699.265026</ele>
        <time>2022-04-09T08:20:12.210Z</time>
      </trkpt>
      <trkpt lat="42.26998" lon="22.634">
        <ele>699.155521</ele>
        <time>2022-04-09T08:20:16.172Z</time>
      </trkpt>
      <trkpt lat="42.26996" lon="22.63386">
        <ele>699.040677</ele>
        <time>2022-04-09T08:20:20.181Z</time>
      </trkpt>
      <trkpt lat="42.26994" lon="22.63373">
        <ele>699.224976</ele>
        <time>2022-04-09T08:20:24.193Z</time>
      </trkpt>
      <trkpt lat="42.26991" lon="22.63359">
        <ele>699.828826</ele>
        <time>2022-04-09T08:20:28.171Z</time>
      </trkpt>
      <trkpt lat="42.2699" lon="22.63344">
        <ele>700.437816</ele>
        <time>2022-04-09T08:20:32.184Z</time>
      </trkpt>
      <trkpt lat="42.26988" lon="22.6333">
        <ele>701.043434</ele>
        <time>2022-04-09T08:20:36.193Z</time>
      </trkpt>
      <trkpt lat="42.26986" lon="22.63315">
        <ele>701.663408</ele>
        <time>2022-04-09T08:20:40.179Z</time>
      </trkpt>
      <trkpt lat="42.26984" lon="22.63302">
        <ele>702.247416</ele>
        <time>2022-04-09T08:20:45.221Z</time>
      </trkpt>
      <trkpt lat="42.26981" lon="22.63287">
        <ele>702.874154</ele>
        <time>2022-04-09T08:20:50.187Z</time>
      </trkpt>
      <trkpt lat="42.26979" lon="22.63272">
        <ele>703.51159</ele>
        <time>2022-04-09T08:20:55.172Z</time>
      </trkpt>
      <trkpt lat="42.26978" lon="22.63259">
        <ele>704.066528</ele>
        <time>2022-04-09T08:20:59.181Z</time>
      </trkpt>
      <trkpt lat="42.26978" lon="22.63245">
        <ele>704.640857</ele>
        <time>2022-04-09T08:21:03.198Z</time>
      </trkpt>
      <trkpt lat="42.26977" lon="22.63231">
        <ele>705.240222</ele>
        <time>2022-04-09T08:21:08.192Z</time>
      </trkpt>
      <trkpt lat="42.26975" lon="22.63218">
        <ele>705.772807</ele>
        <time>2022-04-09T08:21:13.225Z</time>
      </trkpt>
      <trkpt lat="42.26973" lon="22.63204">
        <ele>706.399189</ele>
        <time>2022-04-09T08:21:18.213Z</time>
      </trkpt>
      <trkpt lat="42.26971" lon="22.63188">
        <ele>707.039769</ele>
        <time>2022-04-09T08:21:23.228Z</time>
      </trkpt>
      <trkpt lat="42.26969" lon="22.63174">
        <ele>707.657097</ele>
        <time>2022-04-09T08:21:28.154Z</time>
      </trkpt>
      <trkpt lat="42.26967" lon="22.63162">
        <ele>708.187681</ele>
        <time>2022-04-09T08:21:33.159Z</time>
      </trkpt>
      <trkpt lat="42.26966" lon="22.63148">
        <ele>708.782229</ele>
        <time>2022-04-09T08:21:39.162Z</time>
      </trkpt>
      <trkpt lat="42.26965" lon="22.63135">
        <ele>709.270038</ele>
        <time>2022-04-09T08:21:44.159Z</time>
      </trkpt>
      <trkpt lat="42.26964" lon="22.63123">
        <ele>709.685377</ele>
        <time>2022-04-09T08:21:49.152Z</time>
      </trkpt>
      <trkpt lat="42.26962" lon="22.63111">
        <ele>710.108186</ele>
        <time>2022-04-09T08:21:54.157Z</time>
      </trkpt>
      <trkpt lat="42.26959" lon="22.63098">
        <ele>710.573242</ele>
        <time>2022-04-09T08:22:00.157Z</time>
      </trkpt>
      <trkpt lat="42.26956" lon="22.63086">
        <ele>710.992762</ele>
        <time>2022-04-09T08:22:06.162Z</time>
      </trkpt>
      <trkpt lat="42.26955" lon="22.63073">
        <ele>711.453834</ele>
        <time>2022-04-09T08:22:12.157Z</time>
      </trkpt>
      <trkpt lat="42.26954" lon="22.6306">
        <ele>711.871219</ele>
        <time>2022-04-09T08:22:18.168Z</time>
      </trkpt>
      <trkpt lat="42.26952" lon="22.63047">
        <ele>712.314968</ele>
        <time>2022-04-09T08:22:24.162Z</time>
      </trkpt>
      <trkpt lat="42.26951" lon="22.63033">
        <ele>712.796109</ele>
        <time>2022-04-09T08:22:30.158Z</time>
      </trkpt>
      <trkpt lat="42.26949" lon="22.6302">
        <ele>713.267212</ele>
        <time>2022-04-09T08:22:37.165Z</time>
      </trkpt>
      <trkpt lat="42.26947" lon="22.63008">
        <ele>713.684897</ele>
        <time>2022-04-09T08:22:44.160Z</time>
      </trkpt>
      <trkpt lat="42.26946" lon="22.62994">
        <ele>714.136505</ele>
        <time>2022-04-09T08:22:51.158Z</time>
      </trkpt>
      <trkpt lat="42.26943" lon="22.62981">
        <ele>714.61129</ele>
        <time>2022-04-09T08:22:57.158Z</time>
      </trkpt>
      <trkpt lat="42.26941" lon="22.62969">
        <ele>715.028145</ele>
        <time>2022-04-09T08:23:03.160Z</time>
      </trkpt>
      <trkpt lat="42.2694" lon="22.62956">
        <ele>715.478635</ele>
        <time>2022-04-09T08:23:10.214Z</time>
      </trkpt>
      <trkpt lat="42.26938" lon="22.62942">
        <ele>715.936524</ele>
        <time>2022-04-09T08:23:18.183Z</time>
      </trkpt>
      <trkpt lat="42.26936" lon="22.6293">
        <ele>716.374482</ele>
        <time>2022-04-09T08:23:27.185Z</time>
      </trkpt>
      <trkpt lat="42.26934" lon="22.62917">
        <ele>716.823012</ele>
        <time>2022-04-09T08:23:34.195Z</time>
      </trkpt>
      <trkpt lat="42.26932" lon="22.62904">
        <ele>717.27821</ele>
        <time>2022-04-09T08:23:41.193Z</time>
      </trkpt>
      <trkpt lat="42.2693" lon="22.62891">
        <ele>717.856377</ele>
        <time>2022-04-09T08:23:47.209Z</time>
      </trkpt>
      <trkpt lat="42.26927" lon="22.62879">
        <ele>718.470309</ele>
        <time>2022-04-09T08:23:54.176Z</time>
      </trkpt>
      <trkpt lat="42.26924" lon="22.62867">
        <ele>719.088093</ele>
        <time>2022-04-09T08:24:02.184Z</time>
      </trkpt>
      <trkpt lat="42.26921" lon="22.62855">
        <ele>719.73857</ele>
        <time>2022-04-09T08:24:10.230Z</time>
      </trkpt>
      <trkpt lat="42.26919" lon="22.62842">
        <ele>720.386442</ele>
        <time>2022-04-09T08:24:17.192Z</time>
      </trkpt>
      <trkpt lat="42.26917" lon="22.62829">
        <ele>721.022169</ele>
        <time>2022-04-09T08:24:25.181Z</time>
      </trkpt>
      <trkpt lat="42.26917" lon="22.62816">
        <ele>721.666539</ele>
        <time>2022-04-09T08:24:33.190Z</time>
      </trkpt>
      <trkpt lat="42.26914" lon="22.62804">
        <ele>722.279515</ele>
        <time>2022-04-09T08:24:41.177Z</time>
      </trkpt>
      <trkpt lat="42.26912" lon="22.6279">
        <ele>722.950028</ele>
        <time>2022-04-09T08:24:49.214Z</time>
      </trkpt>
      <trkpt lat="42.26911" lon="22.62777">
        <ele>723.599775</ele>
        <time>2022-04-09T08:24:56.192Z</time>
      </trkpt>
      <trkpt lat="42.26909" lon="22.62765">
        <ele>724.191132</ele>
        <time>2022-04-09T08:25:05.175Z</time>
      </trkpt>
      <trkpt lat="42.26908" lon="22.62752">
        <ele>724.830358</ele>
        <time>2022-04-09T08:25:12.208Z</time>
      </trkpt>
      <trkpt lat="42.26906" lon="22.62739">
        <ele>725.487788</ele>
        <time>2022-04-09T08:25:20.194Z</time>
      </trkpt>
      <trkpt lat="42.26905" lon="22.62726">
        <ele>726.102812</ele>
        <time>2022-04-09T08:25:27.194Z</time>
      </trkpt>
      <trkpt lat="42.26902" lon="22.62713">
        <ele>726.775736</ele>
        <time>2022-04-09T08:25:35.181Z</time>
      </trkpt>
      <trkpt lat="42.269" lon="22.62699">
        <ele>727.451045</ele>
        <time>2022-04-09T08:25:43.189Z</time>
      </trkpt>
      <trkpt lat="42.26899" lon="22.62687">
        <ele>728.054481</ele>
        <time>2022-04-09T08:25:50.195Z</time>
      </trkpt>
      <trkpt lat="42.26897" lon="22.62674">
        <ele>728.706669</ele>
        <time>2022-04-09T08:25:58.187Z</time>
      </trkpt>
      <trkpt lat="42.26894" lon="22.62661">
        <ele>729.352538</ele>
        <time>2022-04-09T08:26:06.205Z</time>
      </trkpt>
      <trkpt lat="42.26892" lon="22.62648">
        <ele>730.001361</ele>
        <time>2022-04-09T08:26:14.225Z</time>
      </trkpt>
      <trkpt lat="42.26889" lon="22.62636">
        <ele>730.651414</ele>
        <time>2022-04-09T08:26:22.194Z</time>
      </trkpt>
      <trkpt lat="42.26887" lon="22.62622">
        <ele>731.323961</ele>
        <time>2022-04-09T08:26:31.230Z</time>
      </trkpt>
      <trkpt lat="42.26885" lon="22.6261">
        <ele>731.958379</ele>
        <time>2022-04-09T08:26:39.192Z</time>
      </trkpt>
      <trkpt lat="42.26883" lon="22.62597">
        <ele>732.603275</ele>
        <time>2022-04-09T08:26:46.212Z</time>
      </trkpt>
      <trkpt lat="42.26881" lon="22.62584">
        <ele>733.226875</ele>
        <time>2022-04-09T08:26:54.181Z</time>
      </trkpt>
      <trkpt lat="42.2688" lon="22.62572">
        <ele>733.818247</ele>
        <time>2022-04-09T08:27:01.178Z</time>
      </trkpt>
      <trkpt lat="42.26879" lon="22.62559">
        <ele>734.472843</ele>
        <time>2022-04-09T08:27:09.229Z</time>
      </trkpt>
      <trkpt lat="42.26878" lon="22.62546">
        <ele>735.093178</ele>
        <time>2022-04-09T08:27:16.192Z</time>
      </trkpt>
      <trkpt lat="42.26875" lon="22.62534">
        <ele>735.707559</ele>
        <time>2022-04-09T08:27:23.186Z</time>
      </trkpt>
      <trkpt lat="42.26874" lon="22.62521">
        <ele>736.351278</ele>
        <time>2022-04-09T08:27:32.181Z</time>
      </trkpt>
      <trkpt lat="42.26873" lon="22.62508">
        <ele>736.99577</ele>
        <time>2022-04-09T08:27:40.196Z</time>
      </trkpt>
      <trkpt lat="42.26871" lon="22.62496">
        <ele>737.60508</ele>
        <time>2022-04-09T08:27:48.180Z</time>
      </trkpt>
      <trkpt lat="42.26869" lon="22.62483">
        <ele>738.236344</ele>
        <time>2022-04-09T08:27:55.189Z</time>
      </trkpt>
      <trkpt lat="42.26866" lon="22.62471">
        <ele>738.848922</ele>
        <time>2022-04-09T08:28:03.190Z</time>
      </trkpt>
      <trkpt lat="42.26864" lon="22.62458">
        <ele>739.470698</ele>
        <time>2022-04-09T08:28:10.172Z</time>
      </trkpt>
      <trkpt lat="42.26863" lon="22.62445">
        <ele>740.128108</ele>
        <time>2022-04-09T08:28:18.177Z</time>
      </trkpt>
      <trkpt lat="42.26861" lon="22.62432">
        <ele>740.768868</ele>
        <time>2022-04-09T08:28:26.183Z</time>
      </trkpt>
      <trkpt lat="42.26859" lon="22.62419">
        <ele>741.52791</ele>
        <time>2022-04-09T08:28:35.212Z</time>
      </trkpt>
      <trkpt lat="42.26858" lon="22.62406">
        <ele>742.322934</ele>
        <time>2022-04-09T08:28:43.179Z</time>
      </trkpt>
      <trkpt lat="42.26856" lon="22.62394">
        <ele>743.098642</ele>
        <time>2022-04-09T08:28:51.203Z</time>
      </trkpt>
      <trkpt lat="42.26855" lon="22.62381">
        <ele>743.926046</ele>
        <time>2022-04-09T08:28:59.181Z</time>
      </trkpt>
      <trkpt lat="42.26853" lon="22.62369">
        <ele>744.712615</ele>
        <time>2022-04-09T08:29:06.188Z</time>
      </trkpt>
      <trkpt lat="42.26851" lon="22.62356">
        <ele>745.52251</ele>
        <time>2022-04-09T08:29:13.175Z</time>
      </trkpt>
      <trkpt lat="42.2685" lon="22.62344">
        <ele>746.333904</ele>
        <time>2022-04-09T08:29:20.207Z</time>
      </trkpt>
      <trkpt lat="42.26848" lon="22.6233">
        <ele>747.213674</ele>
        <time>2022-04-09T08:29:28.197Z</time>
      </trkpt>
      <trkpt lat="42.26846" lon="22.62318">
        <ele>747.998852</ele>
        <time>2022-04-09T08:29:35.175Z</time>
      </trkpt>
      <trkpt lat="42.26844" lon="22.62305">
        <ele>748.847524</ele>
        <time>2022-04-09T08:29:43.180Z</time>
      </trkpt>
      <trkpt lat="42.26844" lon="22.62292">
        <ele>749.629674</ele>
        <time>2022-04-09T08:29:51.175Z</time>
      </trkpt>
      <trkpt lat="42.26841" lon="22.62279">
        <ele>750.475733</ele>
        <time>2022-04-09T08:29:59.182Z</time>
      </trkpt>
      <trkpt lat="42.26839" lon="22.62267">
        <ele>751.242159</ele>
        <time>2022-04-09T08:30:06.213Z</time>
      </trkpt>
      <trkpt lat="42.26837" lon="22.62255">
        <ele>752.044217</ele>
        <time>2022-04-09T08:30:14.181Z</time>
      </trkpt>
      <trkpt lat="42.26836" lon="22.62242">
        <ele>752.888092</ele>
        <time>2022-04-09T08:30:22.190Z</time>
      </trkpt>
      <trkpt lat="42.26833" lon="22.62228">
        <ele>753.746267</ele>
        <time>2022-04-09T08:30:30.180Z</time>
      </trkpt>
      <trkpt lat="42.26831" lon="22.62216">
        <ele>754.564066</ele>
        <time>2022-04-09T08:30:38.188Z</time>
      </trkpt>
      <trkpt lat="42.26829" lon="22.62204">
        <ele>755.339778</ele>
        <time>2022-04-09T08:30:45.192Z</time>
      </trkpt>
      <trkpt lat="42.26828" lon="22.62191">
        <ele>756.15601</ele>
        <time>2022-04-09T08:30:53.182Z</time>
      </trkpt>
      <trkpt lat="42.26825" lon="22.62179">
        <ele>756.793785</ele>
        <time>2022-04-09T08:31:01.240Z</time>
      </trkpt>
      <trkpt lat="42.26824" lon="22.62166">
        <ele>757.346608</ele>
        <time>2022-04-09T08:31:08.196Z</time>
      </trkpt>
      <trkpt lat="42.26822" lon="22.62153">
        <ele>757.953416</ele>
        <time>2022-04-09T08:31:15.183Z</time>
      </trkpt>
      <trkpt lat="42.26821" lon="22.6214">
        <ele>758.551257</ele>
        <time>2022-04-09T08:31:23.185Z</time>
      </trkpt>
      <trkpt lat="42.26819" lon="22.62128">
        <ele>759.099651</ele>
        <time>2022-04-09T08:31:30.228Z</time>
      </trkpt>
      <trkpt lat="42.26817" lon="22.62114">
        <ele>759.713459</ele>
        <time>2022-04-09T08:31:38.205Z</time>
      </trkpt>
      <trkpt lat="42.26816" lon="22.62101">
        <ele>760.320913</ele>
        <time>2022-04-09T08:31:47.175Z</time>
      </trkpt>
      <trkpt lat="42.26812" lon="22.62088">
        <ele>760.917302</ele>
        <time>2022-04-09T08:31:54.191Z</time>
      </trkpt>
      <trkpt lat="42.26811" lon="22.62076">
        <ele>761.477939</ele>
        <time>2022-04-09T08:32:01.184Z</time>
      </trkpt>
      <trkpt lat="42.26809" lon="22.62064">
        <ele>762.022005</ele>
        <time>2022-04-09T08:32:08.191Z</time>
      </trkpt>
      <trkpt lat="42.26807" lon="22.6205">
        <ele>762.626413</ele>
        <time>2022-04-09T08:32:16.184Z</time>
      </trkpt>
      <trkpt lat="42.26807" lon="22.62038">
        <ele>763.171616</ele>
        <time>2022-04-09T08:32:23.200Z</time>
      </trkpt>
      <trkpt lat="42.26806" lon="22.62025">
        <ele>763.755461</ele>
        <time>2022-04-09T08:32:31.219Z</time>
      </trkpt>
      <trkpt lat="42.26803" lon="22.62013">
        <ele>764.338864</ele>
        <time>2022-04-09T08:32:40.179Z</time>
      </trkpt>
      <trkpt lat="42.26802" lon="22.62">
        <ele>764.8928</ele>
        <time>2022-04-09T08:32:48.177Z</time>
      </trkpt>
      <trkpt lat="42.26799" lon="22.61988">
        <ele>765.44906</ele>
        <time>2022-04-09T08:32:55.197Z</time>
      </trkpt>
      <trkpt lat="42.26798" lon="22.61975">
        <ele>766.045899</ele>
        <time>2022-04-09T08:33:03.187Z</time>
      </trkpt>
      <trkpt lat="42.26795" lon="22.61963">
        <ele>766.619213</ele>
        <time>2022-04-09T08:33:11.192Z</time>
      </trkpt>
      <trkpt lat="42.26794" lon="22.61949">
        <ele>767.22486</ele>
        <time>2022-04-09T08:33:19.180Z</time>
      </trkpt>
      <trkpt lat="42.26792" lon="22.61937">
        <ele>767.863146</ele>
        <time>2022-04-09T08:33:27.212Z</time>
      </trkpt>
      <trkpt lat="42.26789" lon="22.61925">
        <ele>768.529754</ele>
        <time>2022-04-09T08:33:36.217Z</time>
      </trkpt>
      <trkpt lat="42.26787" lon="22.61913">
        <ele>769.20071</ele>
        <time>2022-04-09T08:33:44.214Z</time>
      </trkpt>
      <trkpt lat="42.26785" lon="22.619">
        <ele>769.871586</ele>
        <time>2022-04-09T08:33:52.188Z</time>
      </trkpt>
      <trkpt lat="42.26783" lon="22.61888">
        <ele>770.507143</ele>
        <time>2022-04-09T08:33:59.184Z</time>
      </trkpt>
      <trkpt lat="42.26781" lon="22.61875">
        <ele>771.18311</ele>
        <time>2022-04-09T08:34:07.223Z</time>
      </trkpt>
      <trkpt lat="42.26781" lon="22.61862">
        <ele>771.846662</ele>
        <time>2022-04-09T08:34:15.185Z</time>
      </trkpt>
      <trkpt lat="42.26779" lon="22.6185">
        <ele>772.478041</ele>
        <time>2022-04-09T08:34:23.194Z</time>
      </trkpt>
      <trkpt lat="42.26776" lon="22.61839">
        <ele>773.120402</ele>
        <time>2022-04-09T08:34:31.193Z</time>
      </trkpt>
      <trkpt lat="42.26775" lon="22.61826">
        <ele>773.805359</ele>
        <time>2022-04-09T08:34:39.220Z</time>
      </trkpt>
      <trkpt lat="42.26774" lon="22.61813">
        <ele>774.485786</ele>
        <time>2022-04-09T08:34:47.186Z</time>
      </trkpt>
      <trkpt lat="42.26771" lon="22.61801">
        <ele>775.131739</ele>
        <time>2022-04-09T08:34:55.197Z</time>
      </trkpt>
      <trkpt lat="42.2677" lon="22.61787">
        <ele>775.838797</ele>
        <time>2022-04-09T08:35:03.197Z</time>
      </trkpt>
      <trkpt lat="42.26769" lon="22.61775">
        <ele>776.491812</ele>
        <time>2022-04-09T08:35:10.196Z</time>
      </trkpt>
      <trkpt lat="42.26767" lon="22.61763">
        <ele>777.132991</ele>
        <time>2022-04-09T08:35:18.178Z</time>
      </trkpt>
      <trkpt lat="42.26764" lon="22.61751">
        <ele>777.790181</ele>
        <time>2022-04-09T08:35:27.218Z</time>
      </trkpt>
      <trkpt lat="42.26762" lon="22.61739">
        <ele>778.448123</ele>
        <time>2022-04-09T08:35:35.218Z</time>
      </trkpt>
      <trkpt lat="42.26759" lon="22.61726">
        <ele>779.120422</ele>
        <time>2022-04-09T08:35:42.189Z</time>
      </trkpt>
      <trkpt lat="42.26757" lon="22.61714">
        <ele>779.787193</ele>
        <time>2022-04-09T08:35:50.173Z</time>
      </trkpt>
      <trkpt lat="42.26756" lon="22.61701">
        <ele>780.451534</ele>
        <time>2022-04-09T08:35:59.184Z</time>
      </trkpt>
      <trkpt lat="42.26754" lon="22.61688">
        <ele>781.097348</ele>
        <time>2022-04-09T08:36:06.201Z</time>
      </trkpt>
      <trkpt lat="42.26752" lon="22.61675">
        <ele>781.782434</ele>
        <time>2022-04-09T08:36:13.185Z</time>
      </trkpt>
      <trkpt lat="42.26749" lon="22.61663">
        <ele>782.415816</ele>
        <time>2022-04-09T08:36:21.219Z</time>
      </trkpt>
      <trkpt lat="42.26749" lon="22.61651">
        <ele>783.060521</ele>
        <time>2022-04-09T08:36:29.180Z</time>
      </trkpt>
      <trkpt lat="42.26748" lon="22.61639">
        <ele>783.676641</ele>
        <time>2022-04-09T08:36:36.233Z</time>
      </trkpt>
      <trkpt lat="42.26747" lon="22.61626">
        <ele>784.308503</ele>
        <time>2022-04-09T08:36:44.191Z</time>
      </trkpt>
      <trkpt lat="42.26745" lon="22.61614">
        <ele>784.944359</ele>
        <time>2022-04-09T08:36:51.181Z</time>
      </trkpt>
      <trkpt lat="42.26744" lon="22.61601">
        <ele>785.605769</ele>
        <time>2022-04-09T08:36:59.179Z</time>
      </trkpt>
      <trkpt lat="42.26742" lon="22.61589">
        <ele>786.221016</ele>
        <time>2022-04-09T08:37:06.206Z</time>
      </trkpt>
      <trkpt lat="42.2674" lon="22.61577">
        <ele>786.863844</ele>
        <time>2022-04-09T08:37:14.196Z</time>
      </trkpt>
      <trkpt lat="42.26738" lon="22.61564">
        <ele>787.520267</ele>
        <time>2022-04-09T08:37:22.182Z</time>
      </trkpt>
      <trkpt lat="42.26736" lon="22.61551">
        <ele>788.195504</ele>
        <time>2022-04-09T08:37:30.177Z</time>
      </trkpt>
      <trkpt lat="42.26734" lon="22.61539">
        <ele>788.838346</ele>
        <time>2022-04-09T08:37:38.195Z</time>
      </trkpt>
      <trkpt lat="42.26732" lon="22.61526">
        <ele>789.503905</ele>
        <time>2022-04-09T08:37:46.178Z</time>
      </trkpt>
      <trkpt lat="42.2673" lon="22.61514">
        <ele>790.126864</ele>
        <time>2022-04-09T08:37:53.195Z</time>
      </trkpt>
      <trkpt lat="42.26728" lon="22.61501">
        <ele>790.810853</ele>
        <time>2022-04-09T08:38:01.228Z</time>
      </trkpt>
      <trkpt lat="42.26727" lon="22.61488">
        <ele>791.46295</ele>
        <time>2022-04-09T08:38:09.186Z</time>
      </trkpt>
      <trkpt lat="42.26726" lon="22.61475">
        <ele>792.114389</ele>
        <time>2022-04-09T08:38:17.187Z</time>
      </trkpt>
      <trkpt lat="42.26723" lon="22.61464">
        <ele>792.632664</ele>
        <time>2022-04-09T08:38:25.185Z</time>
      </trkpt>
      <trkpt lat="42.26721" lon="22.61451">
        <ele>793.187226</ele>
        <time>2022-04-09T08:38:33.179Z</time>
      </trkpt>
      <trkpt lat="42.26718" lon="22.61439">
        <ele>793.697366</ele>
        <time>2022-04-09T08:38:41.188Z</time>
      </trkpt>
      <trkpt lat="42.26716" lon="22.61427">
        <ele>794.202058</ele>
        <time>2022-04-09T08:38:49.183Z</time>
      </trkpt>
      <trkpt lat="42.26714" lon="22.61415">
        <ele>794.697604</ele>
        <time>2022-04-09T08:38:56.189Z</time>
      </trkpt>
      <trkpt lat="42.26712" lon="22.61403">
        <ele>795.197268</ele>
        <time>2022-04-09T08:39:03.196Z</time>
      </trkpt>
      <trkpt lat="42.26711" lon="22.61389">
        <ele>795.746747</ele>
        <time>2022-04-09T08:39:11.196Z</time>
      </trkpt>
      <trkpt lat="42.2671" lon="22.61376">
        <ele>796.29247</ele>
        <time>2022-04-09T08:39:19.219Z</time>
      </trkpt>
      <trkpt lat="42.26708" lon="22.61364">
        <ele>796.797973</ele>
        <time>2022-04-09T08:39:26.188Z</time>
      </trkpt>
      <trkpt lat="42.26706" lon="22.61352">
        <ele>797.301516</ele>
        <time>2022-04-09T08:39:34.193Z</time>
      </trkpt>
      <trkpt lat="42.26705" lon="22.6134">
        <ele>797.798039</ele>
        <time>2022-04-09T08:39:42.248Z</time>
      </trkpt>
      <trkpt lat="42.26703" lon="22.61327">
        <ele>798.324983</ele>
        <time>2022-04-09T08:39:50.194Z</time>
      </trkpt>
      <trkpt lat="42.26701" lon="22.61315">
        <ele>798.846564</ele>
        <time>2022-04-09T08:39:58.220Z</time>
      </trkpt>
      <trkpt lat="42.267" lon="22.61301">
        <ele>799.391423</ele>
        <time>2022-04-09T08:40:07.181Z</time>
      </trkpt>
      <trkpt lat="42.26698" lon="22.61288">
        <ele>799.947441</ele>
        <time>2022-04-09T08:40:15.225Z</time>
      </trkpt>
      <trkpt lat="42.26695" lon="22.61276">
        <ele>800.464213</ele>
        <time>2022-04-09T08:40:22.197Z</time>
      </trkpt>
      <trkpt lat="42.26694" lon="22.61263">
        <ele>800.996916</ele>
        <time>2022-04-09T08:40:29.187Z</time>
      </trkpt>
      <trkpt lat="42.26691" lon="22.6125">
        <ele>801.559591</ele>
        <time>2022-04-09T08:40:38.192Z</time>
      </trkpt>
      <trkpt lat="42.2669" lon="22.61236">
        <ele>802.126492</ele>
        <time>2022-04-09T08:40:46.209Z</time>
      </trkpt>
      <trkpt lat="42.26689" lon="22.61223">
        <ele>802.919277</ele>
        <time>2022-04-09T08:40:53.199Z</time>
      </trkpt>
      <trkpt lat="42.26688" lon="22.6121">
        <ele>803.758176</ele>
        <time>2022-04-09T08:41:01.191Z</time>
      </trkpt>
      <trkpt lat="42.26686" lon="22.61198">
        <ele>804.565147</ele>
        <time>2022-04-09T08:41:08.208Z</time>
      </trkpt>
      <trkpt lat="42.26683" lon="22.61185">
        <ele>805.413547</ele>
        <time>2022-04-09T08:41:15.186Z</time>
      </trkpt>
      <trkpt lat="42.26682" lon="22.61171">
        <ele>806.262548</ele>
        <time>2022-04-09T08:41:23.188Z</time>
      </trkpt>
      <trkpt lat="42.26681" lon="22.61158">
        <ele>807.082544</ele>
        <time>2022-04-09T08:41:31.171Z</time>
      </trkpt>
      <trkpt lat="42.2668" lon="22.61145">
        <ele>807.915976</ele>
        <time>2022-04-09T08:41:40.202Z</time>
      </trkpt>
      <trkpt lat="42.26678" lon="22.61132">
        <ele>808.773206</ele>
        <time>2022-04-09T08:41:48.192Z</time>
      </trkpt>
      <trkpt lat="42.26677" lon="22.6112">
        <ele>809.548258</ele>
        <time>2022-04-09T08:41:56.193Z</time>
      </trkpt>
      <trkpt lat="42.26674" lon="22.61108">
        <ele>810.343292</ele>
        <time>2022-04-09T08:42:05.181Z</time>
      </trkpt>
      <trkpt lat="42.26672" lon="22.61095">
        <ele>811.205579</ele>
        <time>2022-04-09T08:42:13.241Z</time>
      </trkpt>
      <trkpt lat="42.26671" lon="22.61081">
        <ele>812.046222</ele>
        <time>2022-04-09T08:42:23.164Z</time>
      </trkpt>
      <trkpt lat="42.26669" lon="22.61069">
        <ele>812.869213</ele>
        <time>2022-04-09T08:42:31.171Z</time>
      </trkpt>
      <trkpt lat="42.26667" lon="22.61057">
        <ele>813.639313</ele>
        <time>2022-04-09T08:42:38.185Z</time>
      </trkpt>
      <trkpt lat="42.26666" lon="22.61045">
        <ele>814.408114</ele>
        <time>2022-04-09T08:42:46.209Z</time>
      </trkpt>
      <trkpt lat="42.26664" lon="22.61032">
        <ele>815.2498</ele>
        <time>2022-04-09T08:42:54.188Z</time>
      </trkpt>
      <trkpt lat="42.26663" lon="22.6102">
        <ele>816.022396</ele>
        <time>2022-04-09T08:43:01.190Z</time>
      </trkpt>
      <trkpt lat="42.26662" lon="22.61007">
        <ele>816.850464</ele>
        <time>2022-04-09T08:43:09.251Z</time>
      </trkpt>
      <trkpt lat="42.2666" lon="22.60994">
        <ele>817.603967</ele>
        <time>2022-04-09T08:43:17.192Z</time>
      </trkpt>
      <trkpt lat="42.26656" lon="22.60981">
        <ele>818.117306</ele>
        <time>2022-04-09T08:43:27.197Z</time>
      </trkpt>
      <trkpt lat="42.26655" lon="22.60968">
        <ele>818.612561</ele>
        <time>2022-04-09T08:43:36.188Z</time>
      </trkpt>
      <trkpt lat="42.26654" lon="22.60955">
        <ele>819.098862</ele>
        <time>2022-04-09T08:43:45.232Z</time>
      </trkpt>
      <trkpt lat="42.26652" lon="22.60943">
        <ele>819.573697</ele>
        <time>2022-04-09T08:43:54.165Z</time>
      </trkpt>
      <trkpt lat="42.26651" lon="22.6093">
        <ele>820.051736</ele>
        <time>2022-04-09T08:44:01.185Z</time>
      </trkpt>
      <trkpt lat="42.26649" lon="22.60917">
        <ele>820.531687</ele>
        <time>2022-04-09T08:44:08.197Z</time>
      </trkpt>
      <trkpt lat="42.26646" lon="22.60905">
        <ele>820.995649</ele>
        <time>2022-04-09T08:44:15.202Z</time>
      </trkpt>
      <trkpt lat="42.26644" lon="22.60894">
        <ele>821.456008</ele>
        <time>2022-04-09T08:44:21.200Z</time>
      </trkpt>
      <trkpt lat="42.26642" lon="22.6088">
        <ele>821.95891</ele>
        <time>2022-04-09T08:44:30.237Z</time>
      </trkpt>
      <trkpt lat="42.26641" lon="22.60868">
        <ele>822.428184</ele>
        <time>2022-04-09T08:44:38.182Z</time>
      </trkpt>
      <trkpt lat="42.26638" lon="22.60856">
        <ele>822.892037</ele>
        <time>2022-04-09T08:44:46.203Z</time>
      </trkpt>
      <trkpt lat="42.26636" lon="22.60844">
        <ele>823.369372</ele>
        <time>2022-04-09T08:44:54.194Z</time>
      </trkpt>
      <trkpt lat="42.26633" lon="22.60831">
        <ele>823.875602</ele>
        <time>2022-04-09T08:45:01.181Z</time>
      </trkpt>
      <trkpt lat="42.26632" lon="22.60818">
        <ele>824.357173</ele>
        <time>2022-04-09T08:45:09.191Z</time>
      </trkpt>
      <trkpt lat="42.26631" lon="22.60805">
        <ele>824.820985</ele>
        <time>2022-04-09T08:45:17.196Z</time>
      </trkpt>
      <trkpt lat="42.2663" lon="22.60793">
        <ele>825.308378</ele>
        <time>2022-04-09T08:45:26.181Z</time>
      </trkpt>
      <trkpt lat="42.26628" lon="22.6078">
        <ele>825.801113</ele>
        <time>2022-04-09T08:45:34.185Z</time>
      </trkpt>
      <trkpt lat="42.26624" lon="22.60767">
        <ele>826.319343</ele>
        <time>2022-04-09T08:45:42.168Z</time>
      </trkpt>
      <trkpt lat="42.2662" lon="22.60755">
        <ele>826.892956</ele>
        <time>2022-04-09T08:45:50.182Z</time>
      </trkpt>
      <trkpt lat="42.2662" lon="22.60742">
        <ele>827.687567</ele>
        <time>2022-04-09T08:45:58.173Z</time>
      </trkpt>
      <trkpt lat="42.26619" lon="22.60729">
        <ele>828.502622</ele>
        <time>2022-04-09T08:46:07.188Z</time>
      </trkpt>
      <trkpt lat="42.26618" lon="22.60716">
        <ele>829.28542</ele>
        <time>2022-04-09T08:46:16.226Z</time>
      </trkpt>
      <trkpt lat="42.26617" lon="22.60704">
        <ele>830.010505</ele>
        <time>2022-04-09T08:46:24.174Z</time>
      </trkpt>
      <trkpt lat="42.26615" lon="22.60679">
        <ele>831.509633</ele>
        <time>2022-04-09T08:52:02.220Z</time>
      </trkpt>
      <trkpt lat="42.26613" lon="22.60666">
        <ele>832.318507</ele>
        <time>2022-04-09T08:52:10.192Z</time>
      </trkpt>
      <trkpt lat="42.2661" lon="22.60653">
        <ele>833.113666</ele>
        <time>2022-04-09T08:52:17.220Z</time>
      </trkpt>
      <trkpt lat="42.26607" lon="22.6064">
        <ele>833.908322</ele>
        <time>2022-04-09T08:52:25.181Z</time>
      </trkpt>
      <trkpt lat="42.26606" lon="22.60628">
        <ele>834.645664</ele>
        <time>2022-04-09T08:52:32.204Z</time>
      </trkpt>
      <trkpt lat="42.26604" lon="22.60615">
        <ele>835.396299</ele>
        <time>2022-04-09T08:52:39.219Z</time>
      </trkpt>
      <trkpt lat="42.26603" lon="22.60603">
        <ele>836.117472</ele>
        <time>2022-04-09T08:52:46.180Z</time>
      </trkpt>
      <trkpt lat="42.26601" lon="22.60591">
        <ele>836.895857</ele>
        <time>2022-04-09T08:52:54.219Z</time>
      </trkpt>
      <trkpt lat="42.266" lon="22.60578">
        <ele>837.683503</ele>
        <time>2022-04-09T08:53:02.188Z</time>
      </trkpt>
      <trkpt lat="42.26598" lon="22.60566">
        <ele>838.418367</ele>
        <time>2022-04-09T08:53:10.192Z</time>
      </trkpt>
      <trkpt lat="42.26595" lon="22.60553">
        <ele>839.220812</ele>
        <time>2022-04-09T08:53:18.201Z</time>
      </trkpt>
      <trkpt lat="42.26593" lon="22.6054">
        <ele>839.959789</ele>
        <time>2022-04-09T08:53:25.186Z</time>
      </trkpt>
      <trkpt lat="42.26592" lon="22.60528">
        <ele>840.729433</ele>
        <time>2022-04-09T08:53:33.197Z</time>
      </trkpt>
      <trkpt lat="42.26591" lon="22.60514">
        <ele>841.486789</ele>
        <time>2022-04-09T08:53:41.169Z</time>
      </trkpt>
      <trkpt lat="42.26589" lon="22.60502">
        <ele>842.162668</ele>
        <time>2022-04-09T08:53:48.175Z</time>
      </trkpt>
      <trkpt lat="42.26587" lon="22.60489">
        <ele>842.877596</ele>
        <time>2022-04-09T08:53:56.186Z</time>
      </trkpt>
      <trkpt lat="42.26584" lon="22.60476">
        <ele>843.60131</ele>
        <time>2022-04-09T08:54:04.184Z</time>
      </trkpt>
      <trkpt lat="42.26582" lon="22.60463">
        <ele>844.286911</ele>
        <time>2022-04-09T08:54:12.191Z</time>
      </trkpt>
      <trkpt lat="42.2658" lon="22.60452">
        <ele>844.945442</ele>
        <time>2022-04-09T08:54:19.177Z</time>
      </trkpt>
      <trkpt lat="42.26579" lon="22.60439">
        <ele>845.620774</ele>
        <time>2022-04-09T08:54:26.209Z</time>
      </trkpt>
      <trkpt lat="42.26577" lon="22.60426">
        <ele>846.347802</ele>
        <time>2022-04-09T08:54:34.197Z</time>
      </trkpt>
      <trkpt lat="42.26576" lon="22.60412">
        <ele>847.089455</ele>
        <time>2022-04-09T08:54:42.201Z</time>
      </trkpt>
      <trkpt lat="42.26575" lon="22.60399">
        <ele>847.779564</ele>
        <time>2022-04-09T08:54:49.192Z</time>
      </trkpt>
      <trkpt lat="42.26573" lon="22.60385">
        <ele>848.523644</ele>
        <time>2022-04-09T08:54:57.181Z</time>
      </trkpt>
      <trkpt lat="42.26572" lon="22.60372">
        <ele>849.235018</ele>
        <time>2022-04-09T08:55:06.190Z</time>
      </trkpt>
      <trkpt lat="42.26569" lon="22.6036">
        <ele>849.904982</ele>
        <time>2022-04-09T08:55:13.180Z</time>
      </trkpt>
      <trkpt lat="42.26568" lon="22.60348">
        <ele>850.582292</ele>
        <time>2022-04-09T08:55:20.193Z</time>
      </trkpt>
      <trkpt lat="42.26566" lon="22.60335">
        <ele>851.246304</ele>
        <time>2022-04-09T08:55:27.196Z</time>
      </trkpt>
      <trkpt lat="42.26564" lon="22.60322">
        <ele>851.971187</ele>
        <time>2022-04-09T08:55:35.225Z</time>
      </trkpt>
      <trkpt lat="42.26562" lon="22.60308">
        <ele>852.728583</ele>
        <time>2022-04-09T08:55:43.185Z</time>
      </trkpt>
      <trkpt lat="42.26561" lon="22.60295">
        <ele>853.430728</ele>
        <time>2022-04-09T08:55:50.231Z</time>
      </trkpt>
      <trkpt lat="42.26558" lon="22.60283">
        <ele>854.124868</ele>
        <time>2022-04-09T08:55:58.164Z</time>
      </trkpt>
      <trkpt lat="42.26555" lon="22.60269">
        <ele>854.629221</ele>
        <time>2022-04-09T08:56:07.187Z</time>
      </trkpt>
      <trkpt lat="42.26554" lon="22.60257">
        <ele>855.078642</ele>
        <time>2022-04-09T08:56:15.180Z</time>
      </trkpt>
      <trkpt lat="42.26551" lon="22.60244">
        <ele>855.562288</ele>
        <time>2022-04-09T08:56:23.174Z</time>
      </trkpt>
      <trkpt lat="42.26549" lon="22.60232">
        <ele>856.00816</ele>
        <time>2022-04-09T08:56:29.192Z</time>
      </trkpt>
      <trkpt lat="42.26549" lon="22.60218">
        <ele>856.491625</ele>
        <time>2022-04-09T08:56:36.194Z</time>
      </trkpt>
      <trkpt lat="42.26547" lon="22.60205">
        <ele>856.970854</ele>
        <time>2022-04-09T08:56:44.181Z</time>
      </trkpt>
      <trkpt lat="42.26546" lon="22.60192">
        <ele>857.429425</ele>
        <time>2022-04-09T08:56:52.182Z</time>
      </trkpt>
      <trkpt lat="42.26544" lon="22.6018">
        <ele>857.873953</ele>
        <time>2022-04-09T08:56:59.242Z</time>
      </trkpt>
      <trkpt lat="42.26542" lon="22.60167">
        <ele>858.36489</ele>
        <time>2022-04-09T08:57:07.201Z</time>
      </trkpt>
      <trkpt lat="42.26539" lon="22.60154">
        <ele>858.832541</ele>
        <time>2022-04-09T08:57:13.197Z</time>
      </trkpt>
      <trkpt lat="42.26538" lon="22.6014">
        <ele>859.324352</ele>
        <time>2022-04-09T08:57:21.235Z</time>
      </trkpt>
      <trkpt lat="42.26537" lon="22.60127">
        <ele>859.822559</ele>
        <time>2022-04-09T08:57:28.175Z</time>
      </trkpt>
      <trkpt lat="42.26534" lon="22.60114">
        <ele>860.282123</ele>
        <time>2022-04-09T08:57:35.184Z</time>
      </trkpt>
      <trkpt lat="42.26532" lon="22.60101">
        <ele>860.771769</ele>
        <time>2022-04-09T08:57:43.195Z</time>
      </trkpt>
      <trkpt lat="42.26529" lon="22.60089">
        <ele>861.234731</ele>
        <time>2022-04-09T08:57:51.184Z</time>
      </trkpt>
      <trkpt lat="42.26528" lon="22.60076">
        <ele>861.674932</ele>
        <time>2022-04-09T08:57:58.189Z</time>
      </trkpt>
      <trkpt lat="42.26526" lon="22.60064">
        <ele>862.116376</ele>
        <time>2022-04-09T08:58:05.193Z</time>
      </trkpt>
      <trkpt lat="42.26525" lon="22.60051">
        <ele>862.592057</ele>
        <time>2022-04-09T08:58:13.181Z</time>
      </trkpt>
      <trkpt lat="42.26522" lon="22.60037">
        <ele>863.173227</ele>
        <time>2022-04-09T08:58:21.217Z</time>
      </trkpt>
      <trkpt lat="42.2652" lon="22.60025">
        <ele>863.753996</ele>
        <time>2022-04-09T08:58:27.187Z</time>
      </trkpt>
      <trkpt lat="42.26519" lon="22.60012">
        <ele>864.370198</ele>
        <time>2022-04-09T08:58:34.201Z</time>
      </trkpt>
      <trkpt lat="42.26517" lon="22.59999">
        <ele>864.999089</ele>
        <time>2022-04-09T08:58:42.193Z</time>
      </trkpt>
      <trkpt lat="42.26515" lon="22.59986">
        <ele>865.591804</ele>
        <time>2022-04-09T08:58:51.174Z</time>
      </trkpt>
      <trkpt lat="42.26513" lon="22.59973">
        <ele>866.207373</ele>
        <time>2022-04-09T08:58:58.181Z</time>
      </trkpt>
      <trkpt lat="42.26511" lon="22.5996">
        <ele>866.800088</ele>
        <time>2022-04-09T08:59:05.197Z</time>
      </trkpt>
      <trkpt lat="42.2651" lon="22.59948">
        <ele>867.365219</ele>
        <time>2022-04-09T08:59:12.187Z</time>
      </trkpt>
      <trkpt lat="42.2651" lon="22.59935">
        <ele>867.957877</ele>
        <time>2022-04-09T08:59:20.167Z</time>
      </trkpt>
      <trkpt lat="42.26507" lon="22.59922">
        <ele>868.586052</ele>
        <time>2022-04-09T08:59:28.186Z</time>
      </trkpt>
      <trkpt lat="42.26505" lon="22.5991">
        <ele>869.154572</ele>
        <time>2022-04-09T08:59:35.177Z</time>
      </trkpt>
      <trkpt lat="42.26504" lon="22.59897">
        <ele>869.76301</ele>
        <time>2022-04-09T08:59:43.184Z</time>
      </trkpt>
      <trkpt lat="42.26501" lon="22.59885">
        <ele>870.343315</ele>
        <time>2022-04-09T08:59:51.192Z</time>
      </trkpt>
      <trkpt lat="42.265" lon="22.59872">
        <ele>870.949587</ele>
        <time>2022-04-09T09:00:00.173Z</time>
      </trkpt>
      <trkpt lat="42.26497" lon="22.59859">
        <ele>871.542759</ele>
        <time>2022-04-09T09:00:08.183Z</time>
      </trkpt>
      <trkpt lat="42.26495" lon="22.59847">
        <ele>872.116171</ele>
        <time>2022-04-09T09:00:16.204Z</time>
      </trkpt>
      <trkpt lat="42.26493" lon="22.59834">
        <ele>872.739387</ele>
        <time>2022-04-09T09:00:24.245Z</time>
      </trkpt>
      <trkpt lat="42.26492" lon="22.59821">
        <ele>873.355934</ele>
        <time>2022-04-09T09:00:32.208Z</time>
      </trkpt>
      <trkpt lat="42.2649" lon="22.59809">
        <ele>873.919105</ele>
        <time>2022-04-09T09:00:40.196Z</time>
      </trkpt>
      <trkpt lat="42.26488" lon="22.59796">
        <ele>874.574539</ele>
        <time>2022-04-09T09:00:48.192Z</time>
      </trkpt>
      <trkpt lat="42.26486" lon="22.59784">
        <ele>875.2213</ele>
        <time>2022-04-09T09:00:56.183Z</time>
      </trkpt>
      <trkpt lat="42.26484" lon="22.59771">
        <ele>875.895746</ele>
        <time>2022-04-09T09:01:04.179Z</time>
      </trkpt>
      <trkpt lat="42.26482" lon="22.59759">
        <ele>876.531495</ele>
        <time>2022-04-09T09:01:11.175Z</time>
      </trkpt>
      <trkpt lat="42.26479" lon="22.59747">
        <ele>877.191226</ele>
        <time>2022-04-09T09:01:19.213Z</time>
      </trkpt>
      <trkpt lat="42.26478" lon="22.59734">
        <ele>877.855345</ele>
        <time>2022-04-09T09:01:27.177Z</time>
      </trkpt>
      <trkpt lat="42.26477" lon="22.59722">
        <ele>878.487958</ele>
        <time>2022-04-09T09:01:34.184Z</time>
      </trkpt>
      <trkpt lat="42.26475" lon="22.59709">
        <ele>879.167472</ele>
        <time>2022-04-09T09:01:42.180Z</time>
      </trkpt>
      <trkpt lat="42.26474" lon="22.59695">
        <ele>879.852904</ele>
        <time>2022-04-09T09:01:50.192Z</time>
      </trkpt>
      <trkpt lat="42.26472" lon="22.59683">
        <ele>880.496968</ele>
        <time>2022-04-09T09:01:57.220Z</time>
      </trkpt>
      <trkpt lat="42.2647" lon="22.5967">
        <ele>881.173406</ele>
        <time>2022-04-09T09:02:05.187Z</time>
      </trkpt>
      <trkpt lat="42.26468" lon="22.59658">
        <ele>881.811574</ele>
        <time>2022-04-09T09:02:13.191Z</time>
      </trkpt>
      <trkpt lat="42.26465" lon="22.59647">
        <ele>882.449414</ele>
        <time>2022-04-09T09:02:21.187Z</time>
      </trkpt>
      <trkpt lat="42.26464" lon="22.59634">
        <ele>883.09736</ele>
        <time>2022-04-09T09:02:30.202Z</time>
      </trkpt>
      <trkpt lat="42.26462" lon="22.59622">
        <ele>883.726251</ele>
        <time>2022-04-09T09:02:37.228Z</time>
      </trkpt>
      <trkpt lat="42.2646" lon="22.59609">
        <ele>884.428536</ele>
        <time>2022-04-09T09:02:45.192Z</time>
      </trkpt>
      <trkpt lat="42.26459" lon="22.59596">
        <ele>885.106876</ele>
        <time>2022-04-09T09:02:52.182Z</time>
      </trkpt>
      <trkpt lat="42.26456" lon="22.59583">
        <ele>885.788977</ele>
        <time>2022-04-09T09:03:00.184Z</time>
      </trkpt>
      <trkpt lat="42.26454" lon="22.5957">
        <ele>886.467395</ele>
        <time>2022-04-09T09:03:08.189Z</time>
      </trkpt>
      <trkpt lat="42.26453" lon="22.59557">
        <ele>886.869879</ele>
        <time>2022-04-09T09:03:15.193Z</time>
      </trkpt>
      <trkpt lat="42.26452" lon="22.59545">
        <ele>887.248226</ele>
        <time>2022-04-09T09:03:23.181Z</time>
      </trkpt>
      <trkpt lat="42.26449" lon="22.59531">
        <ele>887.659103</ele>
        <time>2022-04-09T09:03:32.234Z</time>
      </trkpt>
      <trkpt lat="42.26447" lon="22.59519">
        <ele>888.025315</ele>
        <time>2022-04-09T09:03:39.171Z</time>
      </trkpt>
      <trkpt lat="42.26446" lon="22.59506">
        <ele>888.415</ele>
        <time>2022-04-09T09:03:47.188Z</time>
      </trkpt>
      <trkpt lat="42.26445" lon="22.59494">
        <ele>888.78111</ele>
        <time>2022-04-09T09:03:54.191Z</time>
      </trkpt>
      <trkpt lat="42.26443" lon="22.59482">
        <ele>889.151354</ele>
        <time>2022-04-09T09:04:02.176Z</time>
      </trkpt>
      <trkpt lat="42.26441" lon="22.59469">
        <ele>889.543433</ele>
        <time>2022-04-09T09:04:10.188Z</time>
      </trkpt>
      <trkpt lat="42.26439" lon="22.59456">
        <ele>889.911633</ele>
        <time>2022-04-09T09:04:17.237Z</time>
      </trkpt>
      <trkpt lat="42.26437" lon="22.59444">
        <ele>890.290535</ele>
        <time>2022-04-09T09:04:24.209Z</time>
      </trkpt>
      <trkpt lat="42.26436" lon="22.59431">
        <ele>890.658078</ele>
        <time>2022-04-09T09:04:31.179Z</time>
      </trkpt>
      <trkpt lat="42.26434" lon="22.59418">
        <ele>891.043492</ele>
        <time>2022-04-09T09:04:39.203Z</time>
      </trkpt>
      <trkpt lat="42.26433" lon="22.59405">
        <ele>891.446617</ele>
        <time>2022-04-09T09:04:47.193Z</time>
      </trkpt>
      <trkpt lat="42.26431" lon="22.59393">
        <ele>891.809026</ele>
        <time>2022-04-09T09:04:55.184Z</time>
      </trkpt>
      <trkpt lat="42.26429" lon="22.5938">
        <ele>892.199484</ele>
        <time>2022-04-09T09:05:03.194Z</time>
      </trkpt>
      <trkpt lat="42.26426" lon="22.59367">
        <ele>892.598882</ele>
        <time>2022-04-09T09:05:11.198Z</time>
      </trkpt>
      <trkpt lat="42.26423" lon="22.59355">
        <ele>892.980893</ele>
        <time>2022-04-09T09:05:18.177Z</time>
      </trkpt>
      <trkpt lat="42.26421" lon="22.59342">
        <ele>893.367704</ele>
        <time>2022-04-09T09:05:25.196Z</time>
      </trkpt>
      <trkpt lat="42.26417" lon="22.5933">
        <ele>893.790566</ele>
        <time>2022-04-09T09:05:33.192Z</time>
      </trkpt>
      <trkpt lat="42.26414" lon="22.59318">
        <ele>894.443401</ele>
        <time>2022-04-09T09:05:41.181Z</time>
      </trkpt>
      <trkpt lat="42.2641" lon="22.59306">
        <ele>895.096237</ele>
        <time>2022-04-09T09:05:48.226Z</time>
      </trkpt>
      <trkpt lat="42.26406" lon="22.59293">
        <ele>895.773197</ele>
        <time>2022-04-09T09:05:55.169Z</time>
      </trkpt>
      <trkpt lat="42.26407" lon="22.5928">
        <ele>896.449401</ele>
        <time>2022-04-09T09:06:03.202Z</time>
      </trkpt>
      <trkpt lat="42.26405" lon="22.59267">
        <ele>897.120247</ele>
        <time>2022-04-09T09:06:11.192Z</time>
      </trkpt>
      <trkpt lat="42.26403" lon="22.59255">
        <ele>897.756954</ele>
        <time>2022-04-09T09:06:19.189Z</time>
      </trkpt>
      <trkpt lat="42.26402" lon="22.59242">
        <ele>898.410515</ele>
        <time>2022-04-09T09:06:27.196Z</time>
      </trkpt>
      <trkpt lat="42.26402" lon="22.59228">
        <ele>899.086548</ele>
        <time>2022-04-09T09:06:35.174Z</time>
      </trkpt>
      <trkpt lat="42.26402" lon="22.59216">
        <ele>899.732504</ele>
        <time>2022-04-09T09:06:43.196Z</time>
      </trkpt>
      <trkpt lat="42.26401" lon="22.59202">
        <ele>900.422121</ele>
        <time>2022-04-09T09:06:52.257Z</time>
      </trkpt>
      <trkpt lat="42.26399" lon="22.59189">
        <ele>901.086847</ele>
        <time>2022-04-09T09:07:00.191Z</time>
      </trkpt>
      <trkpt lat="42.26397" lon="22.59176">
        <ele>901.758904</ele>
        <time>2022-04-09T09:07:08.162Z</time>
      </trkpt>
      <trkpt lat="42.26395" lon="22.59163">
        <ele>902.428198</ele>
        <time>2022-04-09T09:07:16.190Z</time>
      </trkpt>
      <trkpt lat="42.26394" lon="22.59149">
        <ele>903.122579</ele>
        <time>2022-04-09T09:07:24.184Z</time>
      </trkpt>
      <trkpt lat="42.26392" lon="22.59136">
        <ele>903.811152</ele>
        <time>2022-04-09T09:07:32.175Z</time>
      </trkpt>
      <trkpt lat="42.2639" lon="22.59123">
        <ele>904.469644</ele>
        <time>2022-04-09T09:07:40.177Z</time>
      </trkpt>
      <trkpt lat="42.26389" lon="22.5911">
        <ele>905.134372</ele>
        <time>2022-04-09T09:07:48.193Z</time>
      </trkpt>
      <trkpt lat="42.26387" lon="22.59097">
        <ele>905.783068</ele>
        <time>2022-04-09T09:07:56.199Z</time>
      </trkpt>
      <trkpt lat="42.26385" lon="22.59084">
        <ele>906.657556</ele>
        <time>2022-04-09T09:08:04.193Z</time>
      </trkpt>
      <trkpt lat="42.26384" lon="22.59072">
        <ele>907.537519</ele>
        <time>2022-04-09T09:08:11.175Z</time>
      </trkpt>
      <trkpt lat="42.26382" lon="22.5906">
        <ele>908.403297</ele>
        <time>2022-04-09T09:08:18.215Z</time>
      </trkpt>
      <trkpt lat="42.2638" lon="22.59048">
        <ele>909.274174</ele>
        <time>2022-04-09T09:08:25.180Z</time>
      </trkpt>
      <trkpt lat="42.26378" lon="22.59035">
        <ele>910.238341</ele>
        <time>2022-04-09T09:08:33.193Z</time>
      </trkpt>
      <trkpt lat="42.26375" lon="22.59022">
        <ele>911.190358</ele>
        <time>2022-04-09T09:08:41.237Z</time>
      </trkpt>
      <trkpt lat="42.26373" lon="22.59009">
        <ele>912.099617</ele>
        <time>2022-04-09T09:08:48.192Z</time>
      </trkpt>
      <trkpt lat="42.26373" lon="22.58996">
        <ele>912.997843</ele>
        <time>2022-04-09T09:08:55.180Z</time>
      </trkpt>
      <trkpt lat="42.26372" lon="22.58984">
        <ele>913.877978</ele>
        <time>2022-04-09T09:09:02.198Z</time>
      </trkpt>
      <trkpt lat="42.2637" lon="22.58972">
        <ele>914.740859</ele>
        <time>2022-04-09T09:09:10.192Z</time>
      </trkpt>
      <trkpt lat="42.26367" lon="22.5896">
        <ele>915.68987</ele>
        <time>2022-04-09T09:09:18.180Z</time>
      </trkpt>
      <trkpt lat="42.26364" lon="22.58948">
        <ele>916.55565</ele>
        <time>2022-04-09T09:09:27.180Z</time>
      </trkpt>
      <trkpt lat="42.26363" lon="22.58935">
        <ele>917.450743</ele>
        <time>2022-04-09T09:09:34.184Z</time>
      </trkpt>
      <trkpt lat="42.26361" lon="22.58923">
        <ele>918.377259</ele>
        <time>2022-04-09T09:09:42.210Z</time>
      </trkpt>
      <trkpt lat="42.26359" lon="22.5891">
        <ele>919.301782</ele>
        <time>2022-04-09T09:09:49.183Z</time>
      </trkpt>
      <trkpt lat="42.26359" lon="22.58897">
        <ele>920.18649</ele>
        <time>2022-04-09T09:09:57.194Z</time>
      </trkpt>
      <trkpt lat="42.26356" lon="22.58884">
        <ele>921.153354</ele>
        <time>2022-04-09T09:10:07.177Z</time>
      </trkpt>
      <trkpt lat="42.26354" lon="22.58872">
        <ele>922.026711</ele>
        <time>2022-04-09T09:10:14.171Z</time>
      </trkpt>
      <trkpt lat="42.26352" lon="22.5886">
        <ele>922.925013</ele>
        <time>2022-04-09T09:10:21.190Z</time>
      </trkpt>
      <trkpt lat="42.26351" lon="22.58847">
        <ele>923.534788</ele>
        <time>2022-04-09T09:10:29.183Z</time>
      </trkpt>
      <trkpt lat="42.2635" lon="22.58834">
        <ele>924.075694</ele>
        <time>2022-04-09T09:10:37.194Z</time>
      </trkpt>
      <trkpt lat="42.26347" lon="22.58822">
        <ele>924.579144</ele>
        <time>2022-04-09T09:10:44.184Z</time>
      </trkpt>
      <trkpt lat="42.26344" lon="22.58809">
        <ele>925.122463</ele>
        <time>2022-04-09T09:10:52.219Z</time>
      </trkpt>
      <trkpt lat="42.26343" lon="22.58797">
        <ele>925.619839</ele>
        <time>2022-04-09T09:11:00.188Z</time>
      </trkpt>
      <trkpt lat="42.26341" lon="22.58784">
        <ele>926.129318</ele>
        <time>2022-04-09T09:11:09.198Z</time>
      </trkpt>
      <trkpt lat="42.2634" lon="22.58771">
        <ele>926.671489</ele>
        <time>2022-04-09T09:11:17.180Z</time>
      </trkpt>
      <trkpt lat="42.26338" lon="22.58759">
        <ele>927.17677</ele>
        <time>2022-04-09T09:11:24.184Z</time>
      </trkpt>
      <trkpt lat="42.26336" lon="22.58747">
        <ele>927.680221</ele>
        <time>2022-04-09T09:11:31.195Z</time>
      </trkpt>
      <trkpt lat="42.26336" lon="22.58734">
        <ele>928.187994</ele>
        <time>2022-04-09T09:11:38.176Z</time>
      </trkpt>
      <trkpt lat="42.26334" lon="22.58721">
        <ele>928.709099</ele>
        <time>2022-04-09T09:11:45.182Z</time>
      </trkpt>
      <trkpt lat="42.26331" lon="22.58709">
        <ele>929.237325</ele>
        <time>2022-04-09T09:11:53.181Z</time>
      </trkpt>
      <trkpt lat="42.26329" lon="22.58696">
        <ele>929.760316</ele>
        <time>2022-04-09T09:12:01.191Z</time>
      </trkpt>
      <trkpt lat="42.26326" lon="22.58684">
        <ele>930.261912</ele>
        <time>2022-04-09T09:12:07.187Z</time>
      </trkpt>
      <trkpt lat="42.26323" lon="22.58671">
        <ele>930.808497</ele>
        <time>2022-04-09T09:12:14.189Z</time>
      </trkpt>
      <trkpt lat="42.26322" lon="22.58657">
        <ele>931.371854</ele>
        <time>2022-04-09T09:12:21.167Z</time>
      </trkpt>
      <trkpt lat="42.26322" lon="22.58645">
        <ele>931.872043</ele>
        <time>2022-04-09T09:12:27.185Z</time>
      </trkpt>
      <trkpt lat="42.2632" lon="22.58633">
        <ele>932.362641</ele>
        <time>2022-04-09T09:12:34.191Z</time>
      </trkpt>
      <trkpt lat="42.26318" lon="22.5862">
        <ele>932.905661</ele>
        <time>2022-04-09T09:12:42.178Z</time>
      </trkpt>
      <trkpt lat="42.26316" lon="22.58608">
        <ele>933.405766</ele>
        <time>2022-04-09T09:12:49.193Z</time>
      </trkpt>
      <trkpt lat="42.26313" lon="22.58595">
        <ele>933.94906</ele>
        <time>2022-04-09T09:12:56.178Z</time>
      </trkpt>
      <trkpt lat="42.26312" lon="22.58582">
        <ele>934.477391</ele>
        <time>2022-04-09T09:13:02.191Z</time>
      </trkpt>
      <trkpt lat="42.2631" lon="22.5857">
        <ele>934.988708</ele>
        <time>2022-04-09T09:13:08.234Z</time>
      </trkpt>
      <trkpt lat="42.2631" lon="22.58557">
        <ele>935.48346</ele>
        <time>2022-04-09T09:13:14.191Z</time>
      </trkpt>
      <trkpt lat="42.2631" lon="22.58543">
        <ele>936.058286</ele>
        <time>2022-04-09T09:13:21.198Z</time>
      </trkpt>
      <trkpt lat="42.26309" lon="22.5853">
        <ele>936.60458</ele>
        <time>2022-04-09T09:13:27.193Z</time>
      </trkpt>
      <trkpt lat="42.26308" lon="22.58517">
        <ele>937.138062</ele>
        <time>2022-04-09T09:13:34.184Z</time>
      </trkpt>
      <trkpt lat="42.26309" lon="22.58503">
        <ele>937.683032</ele>
        <time>2022-04-09T09:13:41.228Z</time>
      </trkpt>
      <trkpt lat="42.26311" lon="22.5849">
        <ele>938.223419</ele>
        <time>2022-04-09T09:13:48.233Z</time>
      </trkpt>
      <trkpt lat="42.26315" lon="22.58477">
        <ele>938.792225</ele>
        <time>2022-04-09T09:13:55.177Z</time>
      </trkpt>
      <trkpt lat="42.26319" lon="22.58465">
        <ele>939.321089</ele>
        <time>2022-04-09T09:14:01.183Z</time>
      </trkpt>
      <trkpt lat="42.26325" lon="22.58456">
        <ele>939.825693</ele>
        <time>2022-04-09T09:14:07.197Z</time>
      </trkpt>
      <trkpt lat="42.26331" lon="22.58445">
        <ele>940.388976</ele>
        <time>2022-04-09T09:14:14.200Z</time>
      </trkpt>
      <trkpt lat="42.26338" lon="22.58434">
        <ele>940.953042</ele>
        <time>2022-04-09T09:14:20.217Z</time>
      </trkpt>
      <trkpt lat="42.26345" lon="22.58424">
        <ele>941.531552</ele>
        <time>2022-04-09T09:14:26.190Z</time>
      </trkpt>
      <trkpt lat="42.26352" lon="22.58415">
        <ele>942.035449</ele>
        <time>2022-04-09T09:14:31.193Z</time>
      </trkpt>
      <trkpt lat="42.26361" lon="22.58407">
        <ele>942.597347</ele>
        <time>2022-04-09T09:14:37.176Z</time>
      </trkpt>
      <trkpt lat="42.26369" lon="22.58399">
        <ele>943.174878</ele>
        <time>2022-04-09T09:14:43.189Z</time>
      </trkpt>
      <trkpt lat="42.26378" lon="22.58393">
        <ele>943.717698</ele>
        <time>2022-04-09T09:14:50.178Z</time>
      </trkpt>
      <trkpt lat="42.26387" lon="22.58388">
        <ele>944.27334</ele>
        <time>2022-04-09T09:14:58.160Z</time>
      </trkpt>
      <trkpt lat="42.26396" lon="22.58385">
        <ele>944.811009</ele>
        <time>2022-04-09T09:15:05.189Z</time>
      </trkpt>
      <trkpt lat="42.26407" lon="22.58383">
        <ele>945.397415</ele>
        <time>2022-04-09T09:15:14.192Z</time>
      </trkpt>
      <trkpt lat="42.26416" lon="22.58381">
        <ele>945.937913</ele>
        <time>2022-04-09T09:15:22.175Z</time>
      </trkpt>
      <trkpt lat="42.26426" lon="22.58379">
        <ele>946.472277</ele>
        <time>2022-04-09T09:15:30.176Z</time>
      </trkpt>
      <trkpt lat="42.26435" lon="22.58377">
        <ele>946.993863</ele>
        <time>2022-04-09T09:15:38.205Z</time>
      </trkpt>
      <trkpt lat="42.26444" lon="22.5838">
        <ele>947.517993</ele>
        <time>2022-04-09T09:15:46.185Z</time>
      </trkpt>
      <trkpt lat="42.26453" lon="22.58378">
        <ele>948.026317</ele>
        <time>2022-04-09T09:15:53.161Z</time>
      </trkpt>
      <trkpt lat="42.26463" lon="22.58376">
        <ele>948.56498</ele>
        <time>2022-04-09T09:16:00.166Z</time>
      </trkpt>
      <trkpt lat="42.26473" lon="22.58374">
        <ele>949.107587</ele>
        <time>2022-04-09T09:16:08.182Z</time>
      </trkpt>
      <trkpt lat="42.26483" lon="22.5837">
        <ele>949.683828</ele>
        <time>2022-04-09T09:16:16.182Z</time>
      </trkpt>
      <trkpt lat="42.26492" lon="22.58369">
        <ele>950.203904</ele>
        <time>2022-04-09T09:16:23.188Z</time>
      </trkpt>
      <trkpt lat="42.26501" lon="22.58365">
        <ele>950.727959</ele>
        <time>2022-04-09T09:16:31.166Z</time>
      </trkpt>
      <trkpt lat="42.26511" lon="22.58364">
        <ele>951.280041</ele>
        <time>2022-04-09T09:16:40.193Z</time>
      </trkpt>
      <trkpt lat="42.2652" lon="22.58361">
        <ele>951.795347</ele>
        <time>2022-04-09T09:16:47.201Z</time>
      </trkpt>
      <trkpt lat="42.26529" lon="22.58357">
        <ele>952.319755</ele>
        <time>2022-04-09T09:16:55.172Z</time>
      </trkpt>
      <trkpt lat="42.26538" lon="22.58353">
        <ele>952.839224</ele>
        <time>2022-04-09T09:17:03.176Z</time>
      </trkpt>
      <trkpt lat="42.26547" lon="22.58349">
        <ele>953.316501</ele>
        <time>2022-04-09T09:17:11.191Z</time>
      </trkpt>
      <trkpt lat="42.26556" lon="22.58342">
        <ele>953.779413</ele>
        <time>2022-04-09T09:17:19.218Z</time>
      </trkpt>
      <trkpt lat="42.26571" lon="22.5833">
        <ele>954.613563</ele>
        <time>2022-04-09T09:18:15.192Z</time>
      </trkpt>
      <trkpt lat="42.26578" lon="22.58324">
        <ele>955.044935</ele>
        <time>2022-04-09T09:18:22.189Z</time>
      </trkpt>
      <trkpt lat="42.26587" lon="22.58317">
        <ele>955.509961</ele>
        <time>2022-04-09T09:18:30.191Z</time>
      </trkpt>
      <trkpt lat="42.26594" lon="22.58308">
        <ele>955.977073</ele>
        <time>2022-04-09T09:18:38.178Z</time>
      </trkpt>
      <trkpt lat="42.26601" lon="22.583">
        <ele>956.420495</ele>
        <time>2022-04-09T09:18:45.176Z</time>
      </trkpt>
      <trkpt lat="42.26609" lon="22.58292">
        <ele>956.867066</ele>
        <time>2022-04-09T09:18:53.191Z</time>
      </trkpt>
      <trkpt lat="42.26615" lon="22.58284">
        <ele>957.309795</ele>
        <time>2022-04-09T09:19:01.181Z</time>
      </trkpt>
      <trkpt lat="42.26623" lon="22.58275">
        <ele>957.779265</ele>
        <time>2022-04-09T09:19:09.164Z</time>
      </trkpt>
      <trkpt lat="42.2663" lon="22.58266">
        <ele>958.220362</ele>
        <time>2022-04-09T09:19:16.169Z</time>
      </trkpt>
      <trkpt lat="42.26635" lon="22.58257">
        <ele>958.652103</ele>
        <time>2022-04-09T09:19:23.181Z</time>
      </trkpt>
      <trkpt lat="42.26641" lon="22.58246">
        <ele>959.11252</ele>
        <time>2022-04-09T09:19:30.175Z</time>
      </trkpt>
      <trkpt lat="42.26647" lon="22.58237">
        <ele>959.54724</ele>
        <time>2022-04-09T09:19:37.183Z</time>
      </trkpt>
      <trkpt lat="42.26652" lon="22.58226">
        <ele>959.988092</ele>
        <time>2022-04-09T09:19:44.177Z</time>
      </trkpt>
      <trkpt lat="42.26656" lon="22.58215">
        <ele>960.447591</ele>
        <time>2022-04-09T09:19:51.185Z</time>
      </trkpt>
      <trkpt lat="42.2666" lon="22.58203">
        <ele>960.923981</ele>
        <time>2022-04-09T09:19:59.191Z</time>
      </trkpt>
      <trkpt lat="42.26664" lon="22.58191">
        <ele>961.378627</ele>
        <time>2022-04-09T09:20:07.176Z</time>
      </trkpt>
      <trkpt lat="42.26668" lon="22.5818">
        <ele>961.872553</ele>
        <time>2022-04-09T09:20:15.220Z</time>
      </trkpt>
      <trkpt lat="42.26671" lon="22.58168">
        <ele>962.364922</ele>
        <time>2022-04-09T09:20:23.183Z</time>
      </trkpt>
      <trkpt lat="42.26674" lon="22.58156">
        <ele>962.857066</ele>
        <time>2022-04-09T09:20:30.178Z</time>
      </trkpt>
      <trkpt lat="42.26676" lon="22.58145">
        <ele>963.343015</ele>
        <time>2022-04-09T09:20:37.187Z</time>
      </trkpt>
      <trkpt lat="42.26679" lon="22.58132">
        <ele>963.864985</ele>
        <time>2022-04-09T09:20:45.185Z</time>
      </trkpt>
      <trkpt lat="42.2668" lon="22.58118">
        <ele>964.416145</ele>
        <time>2022-04-09T09:20:53.183Z</time>
      </trkpt>
      <trkpt lat="42.26683" lon="22.58105">
        <ele>964.967755</ele>
        <time>2022-04-09T09:21:01.176Z</time>
      </trkpt>
      <trkpt lat="42.26683" lon="22.58091">
        <ele>965.507778</ele>
        <time>2022-04-09T09:21:08.173Z</time>
      </trkpt>
      <trkpt lat="42.26684" lon="22.58079">
        <ele>965.994245</ele>
        <time>2022-04-09T09:21:15.192Z</time>
      </trkpt>
      <trkpt lat="42.26684" lon="22.58067">
        <ele>966.477353</ele>
        <time>2022-04-09T09:21:22.232Z</time>
      </trkpt>
      <trkpt lat="42.26684" lon="22.58054">
        <ele>966.992818</ele>
        <time>2022-04-09T09:21:29.188Z</time>
      </trkpt>
      <trkpt lat="42.26683" lon="22.58041">
        <ele>967.51336</ele>
        <time>2022-04-09T09:21:36.191Z</time>
      </trkpt>
      <trkpt lat="42.26682" lon="22.58028">
        <ele>968.032171</ele>
        <time>2022-04-09T09:21:44.183Z</time>
      </trkpt>
      <trkpt lat="42.2668" lon="22.58016">
        <ele>968.548162</ele>
        <time>2022-04-09T09:21:51.192Z</time>
      </trkpt>
      <trkpt lat="42.26678" lon="22.58002">
        <ele>969.085012</ele>
        <time>2022-04-09T09:21:59.185Z</time>
      </trkpt>
      <trkpt lat="42.26676" lon="22.57989">
        <ele>969.613783</ele>
        <time>2022-04-09T09:22:06.192Z</time>
      </trkpt>
      <trkpt lat="42.26674" lon="22.57976">
        <ele>970.157892</ele>
        <time>2022-04-09T09:22:14.188Z</time>
      </trkpt>
      <trkpt lat="42.26671" lon="22.57965">
        <ele>970.644466</ele>
        <time>2022-04-09T09:22:21.194Z</time>
      </trkpt>
      <trkpt lat="42.26667" lon="22.57952">
        <ele>971.179119</ele>
        <time>2022-04-09T09:22:29.235Z</time>
      </trkpt>
      <trkpt lat="42.26664" lon="22.57939">
        <ele>971.77433</ele>
        <time>2022-04-09T09:22:37.179Z</time>
      </trkpt>
      <trkpt lat="42.2666" lon="22.57927">
        <ele>972.357244</ele>
        <time>2022-04-09T09:22:45.183Z</time>
      </trkpt>
      <trkpt lat="42.26655" lon="22.57916">
        <ele>972.906217</ele>
        <time>2022-04-09T09:22:53.188Z</time>
      </trkpt>
      <trkpt lat="42.26651" lon="22.57905">
        <ele>973.435132</ele>
        <time>2022-04-09T09:23:00.208Z</time>
      </trkpt>
      <trkpt lat="42.26646" lon="22.57894">
        <ele>973.976215</ele>
        <time>2022-04-09T09:23:08.166Z</time>
      </trkpt>
      <trkpt lat="42.2664" lon="22.57885">
        <ele>974.498811</ele>
        <time>2022-04-09T09:23:15.212Z</time>
      </trkpt>
      <trkpt lat="42.26635" lon="22.57874">
        <ele>975.049208</ele>
        <time>2022-04-09T09:23:23.183Z</time>
      </trkpt>
      <trkpt lat="42.2663" lon="22.57864">
        <ele>975.575528</ele>
        <time>2022-04-09T09:23:30.181Z</time>
      </trkpt>
      <trkpt lat="42.26624" lon="22.57855">
        <ele>976.099046</ele>
        <time>2022-04-09T09:23:37.192Z</time>
      </trkpt>
      <trkpt lat="42.26619" lon="22.57844">
        <ele>976.645024</ele>
        <time>2022-04-09T09:23:43.190Z</time>
      </trkpt>
      <trkpt lat="42.26612" lon="22.57836">
        <ele>977.205533</ele>
        <time>2022-04-09T09:23:52.183Z</time>
      </trkpt>
      <trkpt lat="42.26605" lon="22.57827">
        <ele>977.767554</ele>
        <time>2022-04-09T09:24:00.179Z</time>
      </trkpt>
      <trkpt lat="42.26597" lon="22.57819">
        <ele>978.334036</ele>
        <time>2022-04-09T09:24:07.217Z</time>
      </trkpt>
      <trkpt lat="42.26588" lon="22.57814">
        <ele>978.899823</ele>
        <time>2022-04-09T09:24:16.161Z</time>
      </trkpt>
      <trkpt lat="42.2658" lon="22.57808">
        <ele>979.426947</ele>
        <time>2022-04-09T09:24:23.187Z</time>
      </trkpt>
      <trkpt lat="42.26572" lon="22.578">
        <ele>980.003293</ele>
        <time>2022-04-09T09:24:30.194Z</time>
      </trkpt>
      <trkpt lat="42.26565" lon="22.57792">
        <ele>980.561024</ele>
        <time>2022-04-09T09:24:37.193Z</time>
      </trkpt>
      <trkpt lat="42.26556" lon="22.57786">
        <ele>981.111835</ele>
        <time>2022-04-09T09:24:44.175Z</time>
      </trkpt>
      <trkpt lat="42.26548" lon="22.57778">
        <ele>981.725513</ele>
        <time>2022-04-09T09:24:51.187Z</time>
      </trkpt>
      <trkpt lat="42.26539" lon="22.57773">
        <ele>982.384807</ele>
        <time>2022-04-09T09:24:59.198Z</time>
      </trkpt>
      <trkpt lat="42.26531" lon="22.57768">
        <ele>983.019279</ele>
        <time>2022-04-09T09:25:07.175Z</time>
      </trkpt>
      <trkpt lat="42.26521" lon="22.57763">
        <ele>983.727613</ele>
        <time>2022-04-09T09:25:15.194Z</time>
      </trkpt>
      <trkpt lat="42.26512" lon="22.57758">
        <ele>984.405869</ele>
        <time>2022-04-09T09:25:23.186Z</time>
      </trkpt>
      <trkpt lat="42.26504" lon="22.57754">
        <ele>985.044486</ele>
        <time>2022-04-09T09:25:31.176Z</time>
      </trkpt>
      <trkpt lat="42.26495" lon="22.57747">
        <ele>985.714429</ele>
        <time>2022-04-09T09:25:38.182Z</time>
      </trkpt>
      <trkpt lat="42.26487" lon="22.57742">
        <ele>986.356819</ele>
        <time>2022-04-09T09:25:45.183Z</time>
      </trkpt>
      <trkpt lat="42.26478" lon="22.57737">
        <ele>987.046655</ele>
        <time>2022-04-09T09:25:53.185Z</time>
      </trkpt>
      <trkpt lat="42.26468" lon="22.57734">
        <ele>987.750375</ele>
        <time>2022-04-09T09:26:02.185Z</time>
      </trkpt>
      <trkpt lat="42.26458" lon="22.5773">
        <ele>988.451643</ele>
        <time>2022-04-09T09:26:10.180Z</time>
      </trkpt>
      <trkpt lat="42.2645" lon="22.57725">
        <ele>989.090684</ele>
        <time>2022-04-09T09:26:17.183Z</time>
      </trkpt>
      <trkpt lat="42.26441" lon="22.5772">
        <ele>989.764702</ele>
        <time>2022-04-09T09:26:25.176Z</time>
      </trkpt>
      <trkpt lat="42.26433" lon="22.57713">
        <ele>990.428707</ele>
        <time>2022-04-09T09:26:32.170Z</time>
      </trkpt>
      <trkpt lat="42.26424" lon="22.57708">
        <ele>991.087902</ele>
        <time>2022-04-09T09:26:39.170Z</time>
      </trkpt>
      <trkpt lat="42.26415" lon="22.57702">
        <ele>991.757228</ele>
        <time>2022-04-09T09:26:47.186Z</time>
      </trkpt>
      <trkpt lat="42.26407" lon="22.57696">
        <ele>992.384894</ele>
        <time>2022-04-09T09:26:54.179Z</time>
      </trkpt>
      <trkpt lat="42.26397" lon="22.57694">
        <ele>993.072204</ele>
        <time>2022-04-09T09:27:03.186Z</time>
      </trkpt>
      <trkpt lat="42.26389" lon="22.57689">
        <ele>993.723372</ele>
        <time>2022-04-09T09:27:11.184Z</time>
      </trkpt>
      <trkpt lat="42.2638" lon="22.57683">
        <ele>994.336452</ele>
        <time>2022-04-09T09:27:19.188Z</time>
      </trkpt>
      <trkpt lat="42.2637" lon="22.5768">
        <ele>994.921216</ele>
        <time>2022-04-09T09:27:28.207Z</time>
      </trkpt>
      <trkpt lat="42.26361" lon="22.57675">
        <ele>995.465999</ele>
        <time>2022-04-09T09:27:35.201Z</time>
      </trkpt>
      <trkpt lat="42.26353" lon="22.57668">
        <ele>996.04224</ele>
        <time>2022-04-09T09:27:43.161Z</time>
      </trkpt>
      <trkpt lat="42.26345" lon="22.57661">
        <ele>996.604113</ele>
        <time>2022-04-09T09:27:51.187Z</time>
      </trkpt>
      <trkpt lat="42.26336" lon="22.57656">
        <ele>997.174985</ele>
        <time>2022-04-09T09:27:59.176Z</time>
      </trkpt>
      <trkpt lat="42.26327" lon="22.57651">
        <ele>997.737436</ele>
        <time>2022-04-09T09:28:07.183Z</time>
      </trkpt>
      <trkpt lat="42.26317" lon="22.57648">
        <ele>998.323542</ele>
        <time>2022-04-09T09:28:15.188Z</time>
      </trkpt>
      <trkpt lat="42.26309" lon="22.57642">
        <ele>998.857017</ele>
        <time>2022-04-09T09:28:22.237Z</time>
      </trkpt>
      <trkpt lat="42.263" lon="22.57635">
        <ele>999.446275</ele>
        <time>2022-04-09T09:28:30.188Z</time>
      </trkpt>
      <trkpt lat="42.26292" lon="22.57629">
        <ele>999.99736</ele>
        <time>2022-04-09T09:28:38.175Z</time>
      </trkpt>
      <trkpt lat="42.26283" lon="22.57625">
        <ele>1000.583274</ele>
        <time>2022-04-09T09:28:47.201Z</time>
      </trkpt>
      <trkpt lat="42.26274" lon="22.57619">
        <ele>1001.112257</ele>
        <time>2022-04-09T09:28:54.179Z</time>
      </trkpt>
      <trkpt lat="42.26265" lon="22.57615">
        <ele>1001.699535</ele>
        <time>2022-04-09T09:29:02.195Z</time>
      </trkpt>
      <trkpt lat="42.26256" lon="22.57611">
        <ele>1002.244109</ele>
        <time>2022-04-09T09:29:09.195Z</time>
      </trkpt>
      <trkpt lat="42.26248" lon="22.57605">
        <ele>1002.785451</ele>
        <time>2022-04-09T09:29:17.179Z</time>
      </trkpt>
      <trkpt lat="42.26239" lon="22.576">
        <ele>1003.367361</ele>
        <time>2022-04-09T09:29:25.178Z</time>
      </trkpt>
      <trkpt lat="42.26229" lon="22.57594">
        <ele>1003.974657</ele>
        <time>2022-04-09T09:29:33.194Z</time>
      </trkpt>
      <trkpt lat="42.2622" lon="22.5759">
        <ele>1004.517483</ele>
        <time>2022-04-09T09:29:40.186Z</time>
      </trkpt>
      <trkpt lat="42.26213" lon="22.57583">
        <ele>1005.157083</ele>
        <time>2022-04-09T09:29:47.173Z</time>
      </trkpt>
      <trkpt lat="42.26204" lon="22.57577">
        <ele>1005.830035</ele>
        <time>2022-04-09T09:29:54.177Z</time>
      </trkpt>
      <trkpt lat="42.26197" lon="22.5757">
        <ele>1006.487223</ele>
        <time>2022-04-09T09:30:02.197Z</time>
      </trkpt>
      <trkpt lat="42.26188" lon="22.57563">
        <ele>1007.191648</ele>
        <time>2022-04-09T09:30:10.193Z</time>
      </trkpt>
      <trkpt lat="42.2618" lon="22.57557">
        <ele>1007.857885</ele>
        <time>2022-04-09T09:30:17.178Z</time>
      </trkpt>
      <trkpt lat="42.26172" lon="22.57549">
        <ele>1008.561794</ele>
        <time>2022-04-09T09:30:25.226Z</time>
      </trkpt>
      <trkpt lat="42.26164" lon="22.57542">
        <ele>1009.221856</ele>
        <time>2022-04-09T09:30:32.181Z</time>
      </trkpt>
      <trkpt lat="42.26156" lon="22.57535">
        <ele>1009.905313</ele>
        <time>2022-04-09T09:30:40.198Z</time>
      </trkpt>
      <trkpt lat="42.26148" lon="22.57526">
        <ele>1010.633198</ele>
        <time>2022-04-09T09:30:48.182Z</time>
      </trkpt>
      <trkpt lat="42.26139" lon="22.57518">
        <ele>1011.371364</ele>
        <time>2022-04-09T09:30:56.200Z</time>
      </trkpt>
      <trkpt lat="42.26131" lon="22.57511">
        <ele>1012.040841</ele>
        <time>2022-04-09T09:31:04.212Z</time>
      </trkpt>
      <trkpt lat="42.26123" lon="22.57503">
        <ele>1012.771338</ele>
        <time>2022-04-09T09:31:13.169Z</time>
      </trkpt>
      <trkpt lat="42.26116" lon="22.57494">
        <ele>1013.428636</ele>
        <time>2022-04-09T09:31:22.218Z</time>
      </trkpt>
      <trkpt lat="42.2611" lon="22.57485">
        <ele>1014.074973</ele>
        <time>2022-04-09T09:31:29.203Z</time>
      </trkpt>
      <trkpt lat="42.26104" lon="22.57475">
        <ele>1014.767619</ele>
        <time>2022-04-09T09:31:37.179Z</time>
      </trkpt>
      <trkpt lat="42.26097" lon="22.57465">
        <ele>1015.460266</ele>
        <time>2022-04-09T09:31:45.192Z</time>
      </trkpt>
      <trkpt lat="42.26092" lon="22.57454">
        <ele>1016.135471</ele>
        <time>2022-04-09T09:31:52.200Z</time>
      </trkpt>
      <trkpt lat="42.26086" lon="22.57444">
        <ele>1016.823254</ele>
        <time>2022-04-09T09:32:00.179Z</time>
      </trkpt>
      <trkpt lat="42.2608" lon="22.57434">
        <ele>1017.340233</ele>
        <time>2022-04-09T09:32:07.180Z</time>
      </trkpt>
      <trkpt lat="42.26075" lon="22.57423">
        <ele>1017.788291</ele>
        <time>2022-04-09T09:32:15.197Z</time>
      </trkpt>
      <trkpt lat="42.26068" lon="22.57412">
        <ele>1018.241789</ele>
        <time>2022-04-09T09:32:23.176Z</time>
      </trkpt>
      <trkpt lat="42.26063" lon="22.57402">
        <ele>1018.657228</ele>
        <time>2022-04-09T09:32:31.170Z</time>
      </trkpt>
      <trkpt lat="42.26057" lon="22.57391">
        <ele>1019.083774</ele>
        <time>2022-04-09T09:32:37.198Z</time>
      </trkpt>
      <trkpt lat="42.26052" lon="22.5738">
        <ele>1019.52792</ele>
        <time>2022-04-09T09:32:44.183Z</time>
      </trkpt>
      <trkpt lat="42.26048" lon="22.57368">
        <ele>1019.964746</ele>
        <time>2022-04-09T09:32:51.192Z</time>
      </trkpt>
      <trkpt lat="42.26043" lon="22.57356">
        <ele>1020.419561</ele>
        <time>2022-04-09T09:32:59.184Z</time>
      </trkpt>
      <trkpt lat="42.26039" lon="22.57344">
        <ele>1020.859421</ele>
        <time>2022-04-09T09:33:07.184Z</time>
      </trkpt>
      <trkpt lat="42.26036" lon="22.57332">
        <ele>1021.283931</ele>
        <time>2022-04-09T09:33:15.178Z</time>
      </trkpt>
      <trkpt lat="42.26032" lon="22.57319">
        <ele>1021.751492</ele>
        <time>2022-04-09T09:33:23.191Z</time>
      </trkpt>
      <trkpt lat="42.26027" lon="22.57308">
        <ele>1022.162092</ele>
        <time>2022-04-09T09:33:29.222Z</time>
      </trkpt>
      <trkpt lat="42.26024" lon="22.57295">
        <ele>1022.614268</ele>
        <time>2022-04-09T09:33:37.193Z</time>
      </trkpt>
      <trkpt lat="42.26021" lon="22.57283">
        <ele>1023.037431</ele>
        <time>2022-04-09T09:33:44.184Z</time>
      </trkpt>
      <trkpt lat="42.26019" lon="22.57271">
        <ele>1023.462466</ele>
        <time>2022-04-09T09:33:51.185Z</time>
      </trkpt>
      <trkpt lat="42.26016" lon="22.57258">
        <ele>1023.909783</ele>
        <time>2022-04-09T09:33:58.201Z</time>
      </trkpt>
      <trkpt lat="42.26014" lon="22.57245">
        <ele>1024.326036</ele>
        <time>2022-04-09T09:34:05.188Z</time>
      </trkpt>
      <trkpt lat="42.26011" lon="22.57233">
        <ele>1024.75337</ele>
        <time>2022-04-09T09:34:12.194Z</time>
      </trkpt>
      <trkpt lat="42.26009" lon="22.57221">
        <ele>1025.173815</ele>
        <time>2022-04-09T09:34:18.183Z</time>
      </trkpt>
      <trkpt lat="42.26008" lon="22.57207">
        <ele>1025.711538</ele>
        <time>2022-04-09T09:34:24.163Z</time>
      </trkpt>
      <trkpt lat="42.26007" lon="22.57195">
        <ele>1026.182501</ele>
        <time>2022-04-09T09:34:29.175Z</time>
      </trkpt>
      <trkpt lat="42.26006" lon="22.57183">
        <ele>1026.654398</ele>
        <time>2022-04-09T09:34:34.215Z</time>
      </trkpt>
      <trkpt lat="42.26004" lon="22.5717">
        <ele>1027.173437</ele>
        <time>2022-04-09T09:34:39.196Z</time>
      </trkpt>
      <trkpt lat="42.26003" lon="22.57157">
        <ele>1027.655572</ele>
        <time>2022-04-09T09:34:44.181Z</time>
      </trkpt>
      <trkpt lat="42.26003" lon="22.57143">
        <ele>1028.19906</ele>
        <time>2022-04-09T09:34:50.182Z</time>
      </trkpt>
      <trkpt lat="42.26003" lon="22.57131">
        <ele>1028.695755</ele>
        <time>2022-04-09T09:34:56.221Z</time>
      </trkpt>
      <trkpt lat="42.26003" lon="22.57117">
        <ele>1029.215838</ele>
        <time>2022-04-09T09:35:02.182Z</time>
      </trkpt>
      <trkpt lat="42.26004" lon="22.57103">
        <ele>1029.750036</ele>
        <time>2022-04-09T09:35:07.193Z</time>
      </trkpt>
      <trkpt lat="42.26005" lon="22.5709">
        <ele>1030.286792</ele>
        <time>2022-04-09T09:35:12.185Z</time>
      </trkpt>
      <trkpt lat="42.26005" lon="22.57075">
        <ele>1030.83871</ele>
        <time>2022-04-09T09:35:17.224Z</time>
      </trkpt>
      <trkpt lat="42.26006" lon="22.5706">
        <ele>1031.429117</ele>
        <time>2022-04-09T09:35:21.184Z</time>
      </trkpt>
      <trkpt lat="42.26006" lon="22.57048">
        <ele>1031.906668</ele>
        <time>2022-04-09T09:35:24.191Z</time>
      </trkpt>
      <trkpt lat="42.26005" lon="22.57033">
        <ele>1032.501207</ele>
        <time>2022-04-09T09:35:28.222Z</time>
      </trkpt>
      <trkpt lat="42.26005" lon="22.57018">
        <ele>1033.060013</ele>
        <time>2022-04-09T09:35:32.191Z</time>
      </trkpt>
      <trkpt lat="42.26006" lon="22.57004">
        <ele>1033.612628</ele>
        <time>2022-04-09T09:35:36.202Z</time>
      </trkpt>
      <trkpt lat="42.26007" lon="22.56992">
        <ele>1034.094514</ele>
        <time>2022-04-09T09:35:39.218Z</time>
      </trkpt>
      <trkpt lat="42.26006" lon="22.56977">
        <ele>1034.567823</ele>
        <time>2022-04-09T09:35:43.199Z</time>
      </trkpt>
      <trkpt lat="42.26005" lon="22.56961">
        <ele>1034.064471</ele>
        <time>2022-04-09T09:35:47.178Z</time>
      </trkpt>
      <trkpt lat="42.26005" lon="22.56947">
        <ele>1033.646253</ele>
        <time>2022-04-09T09:35:50.209Z</time>
      </trkpt>
      <trkpt lat="42.26005" lon="22.56933">
        <ele>1033.196745</ele>
        <time>2022-04-09T09:35:53.177Z</time>
      </trkpt>
      <trkpt lat="42.26005" lon="22.56918">
        <ele>1032.741056</ele>
        <time>2022-04-09T09:35:56.196Z</time>
      </trkpt>
      <trkpt lat="42.26005" lon="22.56903">
        <ele>1032.272882</ele>
        <time>2022-04-09T09:35:59.184Z</time>
      </trkpt>
      <trkpt lat="42.26005" lon="22.56888">
        <ele>1031.804652</ele>
        <time>2022-04-09T09:36:02.204Z</time>
      </trkpt>
      <trkpt lat="42.26004" lon="22.56874">
        <ele>1031.350514</ele>
        <time>2022-04-09T09:36:05.176Z</time>
      </trkpt>
      <trkpt lat="42.26004" lon="22.56859">
        <ele>1030.882188</ele>
        <time>2022-04-09T09:36:08.176Z</time>
      </trkpt>
      <trkpt lat="42.26004" lon="22.56847">
        <ele>1030.501422</ele>
        <time>2022-04-09T09:36:10.192Z</time>
      </trkpt>
      <trkpt lat="42.26003" lon="22.56833">
        <ele>1030.084957</ele>
        <time>2022-04-09T09:36:12.210Z</time>
      </trkpt>
      <trkpt lat="42.26001" lon="22.5682">
        <ele>1029.652722</ele>
        <time>2022-04-09T09:36:14.179Z</time>
      </trkpt>
      <trkpt lat="42.26" lon="22.56807">
        <ele>1029.262944</ele>
        <time>2022-04-09T09:36:16.183Z</time>
      </trkpt>
      <trkpt lat="42.25999" lon="22.56795">
        <ele>1028.864639</ele>
        <time>2022-04-09T09:36:18.170Z</time>
      </trkpt>
      <trkpt lat="42.25997" lon="22.56782">
        <ele>1028.457191</ele>
        <time>2022-04-09T09:36:20.185Z</time>
      </trkpt>
      <trkpt lat="42.25996" lon="22.56769">
        <ele>1028.035922</ele>
        <time>2022-04-09T09:36:22.211Z</time>
      </trkpt>
      <trkpt lat="42.25994" lon="22.56754">
        <ele>1027.573347</ele>
        <time>2022-04-09T09:36:24.209Z</time>
      </trkpt>
      <trkpt lat="42.25993" lon="22.56739">
        <ele>1027.105092</ele>
        <time>2022-04-09T09:36:26.201Z</time>
      </trkpt>
      <trkpt lat="42.25992" lon="22.56724">
        <ele>1026.422349</ele>
        <time>2022-04-09T09:36:28.211Z</time>
      </trkpt>
      <trkpt lat="42.2599" lon="22.56708">
        <ele>1025.670562</ele>
        <time>2022-04-09T09:36:30.217Z</time>
      </trkpt>
      <trkpt lat="42.25988" lon="22.56692">
        <ele>1024.892695</ele>
        <time>2022-04-09T09:36:32.184Z</time>
      </trkpt>
      <trkpt lat="42.25986" lon="22.56674">
        <ele>1024.042715</ele>
        <time>2022-04-09T09:36:34.176Z</time>
      </trkpt>
      <trkpt lat="42.25985" lon="22.56656">
        <ele>1023.158998</ele>
        <time>2022-04-09T09:36:36.182Z</time>
      </trkpt>
      <trkpt lat="42.25983" lon="22.56636">
        <ele>1022.225879</ele>
        <time>2022-04-09T09:36:38.193Z</time>
      </trkpt>
      <trkpt lat="42.25981" lon="22.56616">
        <ele>1021.280101</ele>
        <time>2022-04-09T09:36:40.194Z</time>
      </trkpt>
      <trkpt lat="42.25979" lon="22.56597">
        <ele>1020.343458</ele>
        <time>2022-04-09T09:36:42.183Z</time>
      </trkpt>
      <trkpt lat="42.25976" lon="22.56578">
        <ele>1019.444157</ele>
        <time>2022-04-09T09:36:44.183Z</time>
      </trkpt>
      <trkpt lat="42.25974" lon="22.5656">
        <ele>1018.544119</ele>
        <time>2022-04-09T09:36:46.183Z</time>
      </trkpt>
      <trkpt lat="42.25971" lon="22.56542">
        <ele>1017.667394</ele>
        <time>2022-04-09T09:36:48.187Z</time>
      </trkpt>
      <trkpt lat="42.25969" lon="22.56524">
        <ele>1016.81293</ele>
        <time>2022-04-09T09:36:50.201Z</time>
      </trkpt>
      <trkpt lat="42.25966" lon="22.56506">
        <ele>1015.96195</ele>
        <time>2022-04-09T09:36:52.233Z</time>
      </trkpt>
      <trkpt lat="42.25964" lon="22.56488">
        <ele>1015.220847</ele>
        <time>2022-04-09T09:36:54.186Z</time>
      </trkpt>
      <trkpt lat="42.25962" lon="22.5647">
        <ele>1014.64012</ele>
        <time>2022-04-09T09:36:56.189Z</time>
      </trkpt>
      <trkpt lat="42.25959" lon="22.56451">
        <ele>1014.046219</ele>
        <time>2022-04-09T09:36:58.193Z</time>
      </trkpt>
      <trkpt lat="42.25957" lon="22.56432">
        <ele>1013.431328</ele>
        <time>2022-04-09T09:37:00.189Z</time>
      </trkpt>
      <trkpt lat="42.25955" lon="22.56412">
        <ele>1012.813963</ele>
        <time>2022-04-09T09:37:02.231Z</time>
      </trkpt>
      <trkpt lat="42.25953" lon="22.56393">
        <ele>1012.18703</ele>
        <time>2022-04-09T09:37:04.192Z</time>
      </trkpt>
      <trkpt lat="42.2595" lon="22.56373">
        <ele>1011.564618</ele>
        <time>2022-04-09T09:37:06.224Z</time>
      </trkpt>
      <trkpt lat="42.25948" lon="22.56353">
        <ele>1010.929839</ele>
        <time>2022-04-09T09:37:08.241Z</time>
      </trkpt>
      <trkpt lat="42.25945" lon="22.56332">
        <ele>1010.274402</ele>
        <time>2022-04-09T09:37:10.196Z</time>
      </trkpt>
      <trkpt lat="42.25943" lon="22.56312">
        <ele>1009.626571</ele>
        <time>2022-04-09T09:37:12.184Z</time>
      </trkpt>
      <trkpt lat="42.2594" lon="22.56294">
        <ele>1009.041937</ele>
        <time>2022-04-09T09:37:14.224Z</time>
      </trkpt>
      <trkpt lat="42.25938" lon="22.56275">
        <ele>1008.451173</ele>
        <time>2022-04-09T09:37:16.211Z</time>
      </trkpt>
      <trkpt lat="42.25935" lon="22.56255">
        <ele>1007.838839</ele>
        <time>2022-04-09T09:37:18.193Z</time>
      </trkpt>
      <trkpt lat="42.25933" lon="22.56234">
        <ele>1007.371767</ele>
        <time>2022-04-09T09:37:20.199Z</time>
      </trkpt>
      <trkpt lat="42.2593" lon="22.56213">
        <ele>1006.886529</ele>
        <time>2022-04-09T09:37:22.192Z</time>
      </trkpt>
      <trkpt lat="42.25927" lon="22.5619">
        <ele>1006.37634</ele>
        <time>2022-04-09T09:37:24.190Z</time>
      </trkpt>
      <trkpt lat="42.25923" lon="22.56166">
        <ele>1005.842378</ele>
        <time>2022-04-09T09:37:26.224Z</time>
      </trkpt>
      <trkpt lat="42.25921" lon="22.56154">
        <ele>1005.57347</ele>
        <time>2022-04-09T09:37:27.196Z</time>
      </trkpt>
      <trkpt lat="42.25919" lon="22.56142">
        <ele>1005.303729</ele>
        <time>2022-04-09T09:37:28.209Z</time>
      </trkpt>
      <trkpt lat="42.25917" lon="22.5613">
        <ele>1005.033351</ele>
        <time>2022-04-09T09:37:29.204Z</time>
      </trkpt>
      <trkpt lat="42.25915" lon="22.56118">
        <ele>1004.759906</ele>
        <time>2022-04-09T09:37:30.194Z</time>
      </trkpt>
      <trkpt lat="42.25913" lon="22.56105">
        <ele>1004.480296</ele>
        <time>2022-04-09T09:37:31.184Z</time>
      </trkpt>
      <trkpt lat="42.25911" lon="22.56093">
        <ele>1004.19787</ele>
        <time>2022-04-09T09:37:32.191Z</time>
      </trkpt>
      <trkpt lat="42.25909" lon="22.5608">
        <ele>1003.912609</ele>
        <time>2022-04-09T09:37:33.203Z</time>
      </trkpt>
      <trkpt lat="42.25906" lon="22.56068">
        <ele>1003.625213</ele>
        <time>2022-04-09T09:37:34.182Z</time>
      </trkpt>
      <trkpt lat="42.25904" lon="22.56055">
        <ele>1003.332835</ele>
        <time>2022-04-09T09:37:35.244Z</time>
      </trkpt>
      <trkpt lat="42.25902" lon="22.56042">
        <ele>1003.035464</ele>
        <time>2022-04-09T09:37:36.209Z</time>
      </trkpt>
      <trkpt lat="42.25899" lon="22.56029">
        <ele>1002.750202</ele>
        <time>2022-04-09T09:37:37.222Z</time>
      </trkpt>
      <trkpt lat="42.25897" lon="22.56017">
        <ele>1002.452456</ele>
        <time>2022-04-09T09:37:38.174Z</time>
      </trkpt>
      <trkpt lat="42.25894" lon="22.56005">
        <ele>1002.106863</ele>
        <time>2022-04-09T09:37:39.191Z</time>
      </trkpt>
      <trkpt lat="42.25892" lon="22.55993">
        <ele>1001.767557</ele>
        <time>2022-04-09T09:37:40.192Z</time>
      </trkpt>
      <trkpt lat="42.2589" lon="22.55981">
        <ele>1001.434245</ele>
        <time>2022-04-09T09:37:41.205Z</time>
      </trkpt>
      <trkpt lat="42.25885" lon="22.55958">
        <ele>1000.773958</ele>
        <time>2022-04-09T09:37:43.181Z</time>
      </trkpt>
      <trkpt lat="42.2588" lon="22.55936">
        <ele>1000.133257</ele>
        <time>2022-04-09T09:37:45.254Z</time>
      </trkpt>
      <trkpt lat="42.25874" lon="22.55916">
        <ele>999.539465</ele>
        <time>2022-04-09T09:37:47.192Z</time>
      </trkpt>
      <trkpt lat="42.25869" lon="22.55897">
        <ele>998.998248</ele>
        <time>2022-04-09T09:37:49.179Z</time>
      </trkpt>
      <trkpt lat="42.25864" lon="22.5588">
        <ele>998.493703</ele>
        <time>2022-04-09T09:37:51.197Z</time>
      </trkpt>
      <trkpt lat="42.2586" lon="22.55862">
        <ele>997.964033</ele>
        <time>2022-04-09T09:37:53.175Z</time>
      </trkpt>
      <trkpt lat="42.25856" lon="22.55843">
        <ele>997.431704</ele>
        <time>2022-04-09T09:37:55.192Z</time>
      </trkpt>
      <trkpt lat="42.25852" lon="22.55826">
        <ele>996.934856</ele>
        <time>2022-04-09T09:37:57.185Z</time>
      </trkpt>
      <trkpt lat="42.25848" lon="22.55809">
        <ele>996.444444</ele>
        <time>2022-04-09T09:37:59.212Z</time>
      </trkpt>
      <trkpt lat="42.25844" lon="22.55793">
        <ele>995.966884</ele>
        <time>2022-04-09T09:38:01.186Z</time>
      </trkpt>
      <trkpt lat="42.2584" lon="22.55778">
        <ele>995.661542</ele>
        <time>2022-04-09T09:38:03.202Z</time>
      </trkpt>
      <trkpt lat="42.25836" lon="22.55765">
        <ele>995.441936</ele>
        <time>2022-04-09T09:38:05.194Z</time>
      </trkpt>
      <trkpt lat="42.25833" lon="22.55752">
        <ele>995.235334</ele>
        <time>2022-04-09T09:38:07.196Z</time>
      </trkpt>
      <trkpt lat="42.2583" lon="22.55739">
        <ele>995.029325</ele>
        <time>2022-04-09T09:38:09.192Z</time>
      </trkpt>
      <trkpt lat="42.25827" lon="22.55728">
        <ele>994.841363</ele>
        <time>2022-04-09T09:38:11.183Z</time>
      </trkpt>
      <trkpt lat="42.25822" lon="22.55711">
        <ele>994.561781</ele>
        <time>2022-04-09T09:38:14.194Z</time>
      </trkpt>
      <trkpt lat="42.25818" lon="22.55694">
        <ele>994.290153</ele>
        <time>2022-04-09T09:38:17.193Z</time>
      </trkpt>
      <trkpt lat="42.25814" lon="22.55679">
        <ele>994.038033</ele>
        <time>2022-04-09T09:38:20.190Z</time>
      </trkpt>
      <trkpt lat="42.2581" lon="22.55665">
        <ele>993.803973</ele>
        <time>2022-04-09T09:38:23.201Z</time>
      </trkpt>
      <trkpt lat="42.25806" lon="22.5565">
        <ele>993.569913</ele>
        <time>2022-04-09T09:38:26.206Z</time>
      </trkpt>
      <trkpt lat="42.25802" lon="22.55637">
        <ele>993.35753</ele>
        <time>2022-04-09T09:38:29.189Z</time>
      </trkpt>
      <trkpt lat="42.25799" lon="22.55625">
        <ele>993.154865</ele>
        <time>2022-04-09T09:38:32.207Z</time>
      </trkpt>
      <trkpt lat="42.25796" lon="22.55612">
        <ele>992.948194</ele>
        <time>2022-04-09T09:38:35.221Z</time>
      </trkpt>
      <trkpt lat="42.25793" lon="22.556">
        <ele>992.746645</ele>
        <time>2022-04-09T09:38:38.190Z</time>
      </trkpt>
      <trkpt lat="42.2579" lon="22.55588">
        <ele>992.546478</ele>
        <time>2022-04-09T09:38:41.207Z</time>
      </trkpt>
      <trkpt lat="42.25785" lon="22.55573">
        <ele>992.300776</ele>
        <time>2022-04-09T09:38:45.187Z</time>
      </trkpt>
      <trkpt lat="42.25782" lon="22.55561">
        <ele>992.10857</ele>
        <time>2022-04-09T09:38:48.201Z</time>
      </trkpt>
      <trkpt lat="42.25779" lon="22.55547">
        <ele>992.277971</ele>
        <time>2022-04-09T09:38:51.183Z</time>
      </trkpt>
      <trkpt lat="42.25776" lon="22.55534">
        <ele>992.496635</ele>
        <time>2022-04-09T09:38:54.194Z</time>
      </trkpt>
      <trkpt lat="42.25772" lon="22.55521">
        <ele>992.704545</ele>
        <time>2022-04-09T09:38:57.198Z</time>
      </trkpt>
      <trkpt lat="42.25769" lon="22.55509">
        <ele>992.909545</ele>
        <time>2022-04-09T09:39:00.196Z</time>
      </trkpt>
      <trkpt lat="42.25766" lon="22.55495">
        <ele>993.121806</ele>
        <time>2022-04-09T09:39:03.203Z</time>
      </trkpt>
      <trkpt lat="42.25762" lon="22.55482">
        <ele>993.336202</ele>
        <time>2022-04-09T09:39:06.220Z</time>
      </trkpt>
      <trkpt lat="42.25758" lon="22.55469">
        <ele>993.551369</ele>
        <time>2022-04-09T09:39:09.244Z</time>
      </trkpt>
      <trkpt lat="42.25755" lon="22.55456">
        <ele>993.770783</ele>
        <time>2022-04-09T09:39:12.219Z</time>
      </trkpt>
      <trkpt lat="42.25751" lon="22.55442">
        <ele>994.00173</ele>
        <time>2022-04-09T09:39:15.184Z</time>
      </trkpt>
      <trkpt lat="42.25748" lon="22.55427">
        <ele>994.234424</ele>
        <time>2022-04-09T09:39:18.184Z</time>
      </trkpt>
      <trkpt lat="42.25743" lon="22.55413">
        <ele>994.461883</ele>
        <time>2022-04-09T09:39:21.193Z</time>
      </trkpt>
      <trkpt lat="42.2574" lon="22.55401">
        <ele>994.666159</ele>
        <time>2022-04-09T09:39:24.191Z</time>
      </trkpt>
      <trkpt lat="42.25736" lon="22.5539">
        <ele>994.855148</ele>
        <time>2022-04-09T09:39:27.182Z</time>
      </trkpt>
      <trkpt lat="42.25733" lon="22.55376">
        <ele>995.07746</ele>
        <time>2022-04-09T09:39:30.205Z</time>
      </trkpt>
      <trkpt lat="42.25729" lon="22.55361">
        <ele>995.319884</ele>
        <time>2022-04-09T09:39:33.211Z</time>
      </trkpt>
      <trkpt lat="42.25725" lon="22.55347">
        <ele>995.552258</ele>
        <time>2022-04-09T09:39:36.201Z</time>
      </trkpt>
      <trkpt lat="42.2572" lon="22.55332">
        <ele>995.801183</ele>
        <time>2022-04-09T09:39:39.185Z</time>
      </trkpt>
      <trkpt lat="42.25717" lon="22.55316">
        <ele>995.711913</ele>
        <time>2022-04-09T09:39:42.196Z</time>
      </trkpt>
      <trkpt lat="42.25713" lon="22.553">
        <ele>995.607951</ele>
        <time>2022-04-09T09:39:45.206Z</time>
      </trkpt>
      <trkpt lat="42.25709" lon="22.55284">
        <ele>995.510885</ele>
        <time>2022-04-09T09:39:48.202Z</time>
      </trkpt>
      <trkpt lat="42.25706" lon="22.55269">
        <ele>995.413819</ele>
        <time>2022-04-09T09:39:51.177Z</time>
      </trkpt>
      <trkpt lat="42.25703" lon="22.55254">
        <ele>995.317578</ele>
        <time>2022-04-09T09:39:54.195Z</time>
      </trkpt>
      <trkpt lat="42.25698" lon="22.55239">
        <ele>995.218624</ele>
        <time>2022-04-09T09:39:57.218Z</time>
      </trkpt>
      <trkpt lat="42.25694" lon="22.55224">
        <ele>995.119691</ele>
        <time>2022-04-09T09:40:00.218Z</time>
      </trkpt>
      <trkpt lat="42.25689" lon="22.55209">
        <ele>995.020433</ele>
        <time>2022-04-09T09:40:03.173Z</time>
      </trkpt>
      <trkpt lat="42.25685" lon="22.55193">
        <ele>994.917188</ele>
        <time>2022-04-09T09:40:06.191Z</time>
      </trkpt>
      <trkpt lat="42.2568" lon="22.55177">
        <ele>994.811285</ele>
        <time>2022-04-09T09:40:09.199Z</time>
      </trkpt>
      <trkpt lat="42.25677" lon="22.55165">
        <ele>994.73694</ele>
        <time>2022-04-09T09:40:11.180Z</time>
      </trkpt>
      <trkpt lat="42.25673" lon="22.55148">
        <ele>994.627714</ele>
        <time>2022-04-09T09:40:14.190Z</time>
      </trkpt>
      <trkpt lat="42.25669" lon="22.55137">
        <ele>994.552698</ele>
        <time>2022-04-09T09:40:16.228Z</time>
      </trkpt>
      <trkpt lat="42.25664" lon="22.5512">
        <ele>994.440325</ele>
        <time>2022-04-09T09:40:19.183Z</time>
      </trkpt>
      <trkpt lat="42.25662" lon="22.55107">
        <ele>994.360339</ele>
        <time>2022-04-09T09:40:21.205Z</time>
      </trkpt>
      <trkpt lat="42.25659" lon="22.55094">
        <ele>994.255806</ele>
        <time>2022-04-09T09:40:23.201Z</time>
      </trkpt>
      <trkpt lat="42.25656" lon="22.55082">
        <ele>994.143194</ele>
        <time>2022-04-09T09:40:25.203Z</time>
      </trkpt>
      <trkpt lat="42.25653" lon="22.5507">
        <ele>994.034648</ele>
        <time>2022-04-09T09:40:27.237Z</time>
      </trkpt>
      <trkpt lat="42.2565" lon="22.55058">
        <ele>993.920828</ele>
        <time>2022-04-09T09:40:29.203Z</time>
      </trkpt>
      <trkpt lat="42.25647" lon="22.55045">
        <ele>993.801387</ele>
        <time>2022-04-09T09:40:31.177Z</time>
      </trkpt>
      <trkpt lat="42.25644" lon="22.55032">
        <ele>993.678511</ele>
        <time>2022-04-09T09:40:33.201Z</time>
      </trkpt>
      <trkpt lat="42.25641" lon="22.55019">
        <ele>993.559333</ele>
        <time>2022-04-09T09:40:35.237Z</time>
      </trkpt>
      <trkpt lat="42.25638" lon="22.55006">
        <ele>993.444751</ele>
        <time>2022-04-09T09:40:37.200Z</time>
      </trkpt>
      <trkpt lat="42.25635" lon="22.54994">
        <ele>993.33176</ele>
        <time>2022-04-09T09:40:39.223Z</time>
      </trkpt>
      <trkpt lat="42.25632" lon="22.54982">
        <ele>993.221056</ele>
        <time>2022-04-09T09:40:41.198Z</time>
      </trkpt>
      <trkpt lat="42.25629" lon="22.54971">
        <ele>993.115459</ele>
        <time>2022-04-09T09:40:43.189Z</time>
      </trkpt>
      <trkpt lat="42.25625" lon="22.54959">
        <ele>993.006888</ele>
        <time>2022-04-09T09:40:45.183Z</time>
      </trkpt>
      <trkpt lat="42.25622" lon="22.54947">
        <ele>992.889325</ele>
        <time>2022-04-09T09:40:47.191Z</time>
      </trkpt>
      <trkpt lat="42.25618" lon="22.54933">
        <ele>992.764863</ele>
        <time>2022-04-09T09:40:49.197Z</time>
      </trkpt>
      <trkpt lat="42.25614" lon="22.5492">
        <ele>992.636291</ele>
        <time>2022-04-09T09:40:51.192Z</time>
      </trkpt>
      <trkpt lat="42.25611" lon="22.54906">
        <ele>992.513467</ele>
        <time>2022-04-09T09:40:53.187Z</time>
      </trkpt>
      <trkpt lat="42.25608" lon="22.54892">
        <ele>992.386736</ele>
        <time>2022-04-09T09:40:55.204Z</time>
      </trkpt>
      <trkpt lat="42.25605" lon="22.54879">
        <ele>992.265426</ele>
        <time>2022-04-09T09:40:57.236Z</time>
      </trkpt>
      <trkpt lat="42.25602" lon="22.54868">
        <ele>992.074468</ele>
        <time>2022-04-09T09:40:59.200Z</time>
      </trkpt>
      <trkpt lat="42.25599" lon="22.54856">
        <ele>991.745957</ele>
        <time>2022-04-09T09:41:01.183Z</time>
      </trkpt>
      <trkpt lat="42.25594" lon="22.54843">
        <ele>991.371234</ele>
        <time>2022-04-09T09:41:03.200Z</time>
      </trkpt>
      <trkpt lat="42.2559" lon="22.54829">
        <ele>990.994155</ele>
        <time>2022-04-09T09:41:05.218Z</time>
      </trkpt>
      <trkpt lat="42.25586" lon="22.54816">
        <ele>990.614441</ele>
        <time>2022-04-09T09:41:07.207Z</time>
      </trkpt>
      <trkpt lat="42.25581" lon="22.54802">
        <ele>990.222183</ele>
        <time>2022-04-09T09:41:09.183Z</time>
      </trkpt>
      <trkpt lat="42.25578" lon="22.54788">
        <ele>989.837632</ele>
        <time>2022-04-09T09:41:11.178Z</time>
      </trkpt>
      <trkpt lat="42.25573" lon="22.54775">
        <ele>989.473796</ele>
        <time>2022-04-09T09:41:13.239Z</time>
      </trkpt>
      <trkpt lat="42.2557" lon="22.54762">
        <ele>989.116082</ele>
        <time>2022-04-09T09:41:15.201Z</time>
      </trkpt>
      <trkpt lat="42.25566" lon="22.54748">
        <ele>988.738701</ele>
        <time>2022-04-09T09:41:17.190Z</time>
      </trkpt>
      <trkpt lat="42.25563" lon="22.54735">
        <ele>988.362412</ele>
        <time>2022-04-09T09:41:19.199Z</time>
      </trkpt>
      <trkpt lat="42.2556" lon="22.54721">
        <ele>987.985736</ele>
        <time>2022-04-09T09:41:21.204Z</time>
      </trkpt>
      <trkpt lat="42.25557" lon="22.54706">
        <ele>987.601022</ele>
        <time>2022-04-09T09:41:23.207Z</time>
      </trkpt>
      <trkpt lat="42.25554" lon="22.54693">
        <ele>987.229747</ele>
        <time>2022-04-09T09:41:25.200Z</time>
      </trkpt>
      <trkpt lat="42.25552" lon="22.54678">
        <ele>986.841694</ele>
        <time>2022-04-09T09:41:27.292Z</time>
      </trkpt>
      <trkpt lat="42.25549" lon="22.54664">
        <ele>986.452577</ele>
        <time>2022-04-09T09:41:29.168Z</time>
      </trkpt>
      <trkpt lat="42.25545" lon="22.54648">
        <ele>986.033837</ele>
        <time>2022-04-09T09:41:31.185Z</time>
      </trkpt>
      <trkpt lat="42.25541" lon="22.54632">
        <ele>985.566625</ele>
        <time>2022-04-09T09:41:33.189Z</time>
      </trkpt>
      <trkpt lat="42.25537" lon="22.54616">
        <ele>985.064581</ele>
        <time>2022-04-09T09:41:35.180Z</time>
      </trkpt>
      <trkpt lat="42.25533" lon="22.54599">
        <ele>984.559759</ele>
        <time>2022-04-09T09:41:37.197Z</time>
      </trkpt>
      <trkpt lat="42.25528" lon="22.54582">
        <ele>984.048312</ele>
        <time>2022-04-09T09:41:39.173Z</time>
      </trkpt>
      <trkpt lat="42.25524" lon="22.54565">
        <ele>983.53428</ele>
        <time>2022-04-09T09:41:41.174Z</time>
      </trkpt>
      <trkpt lat="42.25519" lon="22.54548">
        <ele>983.025513</ele>
        <time>2022-04-09T09:41:43.199Z</time>
      </trkpt>
      <trkpt lat="42.25515" lon="22.54531">
        <ele>982.522099</ele>
        <time>2022-04-09T09:41:45.192Z</time>
      </trkpt>
      <trkpt lat="42.2551" lon="22.54515">
        <ele>982.021379</ele>
        <time>2022-04-09T09:41:47.185Z</time>
      </trkpt>
      <trkpt lat="42.25506" lon="22.54498">
        <ele>981.520659</ele>
        <time>2022-04-09T09:41:49.164Z</time>
      </trkpt>
      <trkpt lat="42.25501" lon="22.54482">
        <ele>981.022595</ele>
        <time>2022-04-09T09:41:51.176Z</time>
      </trkpt>
      <trkpt lat="42.25496" lon="22.54465">
        <ele>980.5244</ele>
        <time>2022-04-09T09:41:53.182Z</time>
      </trkpt>
      <trkpt lat="42.25492" lon="22.5445">
        <ele>980.043623</ele>
        <time>2022-04-09T09:41:55.179Z</time>
      </trkpt>
      <trkpt lat="42.25488" lon="22.54435">
        <ele>979.585518</ele>
        <time>2022-04-09T09:41:57.192Z</time>
      </trkpt>
      <trkpt lat="42.25484" lon="22.5442">
        <ele>979.134014</ele>
        <time>2022-04-09T09:41:59.179Z</time>
      </trkpt>
      <trkpt lat="42.2548" lon="22.54404">
        <ele>978.692239</ele>
        <time>2022-04-09T09:42:01.216Z</time>
      </trkpt>
      <trkpt lat="42.25476" lon="22.54389">
        <ele>978.2544</ele>
        <time>2022-04-09T09:42:03.187Z</time>
      </trkpt>
      <trkpt lat="42.25471" lon="22.54374">
        <ele>977.82543</ele>
        <time>2022-04-09T09:42:05.192Z</time>
      </trkpt>
      <trkpt lat="42.25468" lon="22.54359">
        <ele>977.401447</ele>
        <time>2022-04-09T09:42:07.173Z</time>
      </trkpt>
      <trkpt lat="42.25464" lon="22.54344">
        <ele>976.981282</ele>
        <time>2022-04-09T09:42:09.182Z</time>
      </trkpt>
      <trkpt lat="42.25459" lon="22.54329">
        <ele>976.55355</ele>
        <time>2022-04-09T09:42:11.194Z</time>
      </trkpt>
      <trkpt lat="42.25455" lon="22.54315">
        <ele>976.128345</ele>
        <time>2022-04-09T09:42:13.187Z</time>
      </trkpt>
      <trkpt lat="42.25451" lon="22.543">
        <ele>975.711931</ele>
        <time>2022-04-09T09:42:15.189Z</time>
      </trkpt>
      <trkpt lat="42.25447" lon="22.54286">
        <ele>975.296796</ele>
        <time>2022-04-09T09:42:17.176Z</time>
      </trkpt>
      <trkpt lat="42.25444" lon="22.54271">
        <ele>974.886499</ele>
        <time>2022-04-09T09:42:19.164Z</time>
      </trkpt>
      <trkpt lat="42.2544" lon="22.54257">
        <ele>974.493961</ele>
        <time>2022-04-09T09:42:21.200Z</time>
      </trkpt>
      <trkpt lat="42.25436" lon="22.54244">
        <ele>974.110178</ele>
        <time>2022-04-09T09:42:23.223Z</time>
      </trkpt>
      <trkpt lat="42.25432" lon="22.54231">
        <ele>973.729004</ele>
        <time>2022-04-09T09:42:25.195Z</time>
      </trkpt>
      <trkpt lat="42.25429" lon="22.54217">
        <ele>973.343149</ele>
        <time>2022-04-09T09:42:27.171Z</time>
      </trkpt>
      <trkpt lat="42.25426" lon="22.54204">
        <ele>972.973066</ele>
        <time>2022-04-09T09:42:29.173Z</time>
      </trkpt>
      <trkpt lat="42.25423" lon="22.54191">
        <ele>972.601831</ele>
        <time>2022-04-09T09:42:31.182Z</time>
      </trkpt>
      <trkpt lat="42.25419" lon="22.54176">
        <ele>972.343531</ele>
        <time>2022-04-09T09:42:33.191Z</time>
      </trkpt>
      <trkpt lat="42.25416" lon="22.54163">
        <ele>972.162878</ele>
        <time>2022-04-09T09:42:35.183Z</time>
      </trkpt>
      <trkpt lat="42.25412" lon="22.5415">
        <ele>971.991087</ele>
        <time>2022-04-09T09:42:37.185Z</time>
      </trkpt>
      <trkpt lat="42.25408" lon="22.54137">
        <ele>971.811603</ele>
        <time>2022-04-09T09:42:39.200Z</time>
      </trkpt>
      <trkpt lat="42.25405" lon="22.54123">
        <ele>971.623826</ele>
        <time>2022-04-09T09:42:41.200Z</time>
      </trkpt>
      <trkpt lat="42.25401" lon="22.54108">
        <ele>971.430617</ele>
        <time>2022-04-09T09:42:43.181Z</time>
      </trkpt>
      <trkpt lat="42.25398" lon="22.54093">
        <ele>971.236334</ele>
        <time>2022-04-09T09:42:45.179Z</time>
      </trkpt>
      <trkpt lat="42.25394" lon="22.54079">
        <ele>971.045619</ele>
        <time>2022-04-09T09:42:47.187Z</time>
      </trkpt>
      <trkpt lat="42.2539" lon="22.54065">
        <ele>970.854905</ele>
        <time>2022-04-09T09:42:49.196Z</time>
      </trkpt>
      <trkpt lat="42.25386" lon="22.54051">
        <ele>970.66599</ele>
        <time>2022-04-09T09:42:51.181Z</time>
      </trkpt>
      <trkpt lat="42.25383" lon="22.54037">
        <ele>970.482965</ele>
        <time>2022-04-09T09:42:53.188Z</time>
      </trkpt>
      <trkpt lat="42.25379" lon="22.54023">
        <ele>970.299312</ele>
        <time>2022-04-09T09:42:55.183Z</time>
      </trkpt>
      <trkpt lat="42.25376" lon="22.5401">
        <ele>970.122206</ele>
        <time>2022-04-09T09:42:57.187Z</time>
      </trkpt>
      <trkpt lat="42.25372" lon="22.53998">
        <ele>969.953952</ele>
        <time>2022-04-09T09:42:59.192Z</time>
      </trkpt>
      <trkpt lat="42.25368" lon="22.53986">
        <ele>969.791453</ele>
        <time>2022-04-09T09:43:01.178Z</time>
      </trkpt>
      <trkpt lat="42.25365" lon="22.53974">
        <ele>969.636718</ele>
        <time>2022-04-09T09:43:03.209Z</time>
      </trkpt>
      <trkpt lat="42.25361" lon="22.53958">
        <ele>969.419467</ele>
        <time>2022-04-09T09:43:06.189Z</time>
      </trkpt>
      <trkpt lat="42.25357" lon="22.53942">
        <ele>969.76247</ele>
        <time>2022-04-09T09:43:09.183Z</time>
      </trkpt>
      <trkpt lat="42.25353" lon="22.53928">
        <ele>970.064564</ele>
        <time>2022-04-09T09:43:12.175Z</time>
      </trkpt>
      <trkpt lat="42.2535" lon="22.53914">
        <ele>970.377921</ele>
        <time>2022-04-09T09:43:15.185Z</time>
      </trkpt>
      <trkpt lat="42.25345" lon="22.539">
        <ele>970.696318</ele>
        <time>2022-04-09T09:43:18.221Z</time>
      </trkpt>
      <trkpt lat="42.2534" lon="22.53885">
        <ele>971.021458</ele>
        <time>2022-04-09T09:43:21.172Z</time>
      </trkpt>
      <trkpt lat="42.25336" lon="22.53872">
        <ele>971.323784</ele>
        <time>2022-04-09T09:43:24.230Z</time>
      </trkpt>
      <trkpt lat="42.25332" lon="22.53858">
        <ele>971.641176</ele>
        <time>2022-04-09T09:43:27.198Z</time>
      </trkpt>
      <trkpt lat="42.25328" lon="22.53843">
        <ele>971.957493</ele>
        <time>2022-04-09T09:43:30.183Z</time>
      </trkpt>
      <trkpt lat="42.25324" lon="22.53829">
        <ele>972.275745</ele>
        <time>2022-04-09T09:43:33.171Z</time>
      </trkpt>
      <trkpt lat="42.25321" lon="22.53815">
        <ele>972.575614</ele>
        <time>2022-04-09T09:43:36.194Z</time>
      </trkpt>
      <trkpt lat="42.25318" lon="22.53803">
        <ele>972.846182</ele>
        <time>2022-04-09T09:43:39.186Z</time>
      </trkpt>
      <trkpt lat="42.25314" lon="22.53791">
        <ele>973.104083</ele>
        <time>2022-04-09T09:43:42.187Z</time>
      </trkpt>
      <trkpt lat="42.25312" lon="22.5378">
        <ele>973.357293</ele>
        <time>2022-04-09T09:43:45.193Z</time>
      </trkpt>
      <trkpt lat="42.25308" lon="22.53765">
        <ele>973.686221</ele>
        <time>2022-04-09T09:43:49.184Z</time>
      </trkpt>
      <trkpt lat="42.25303" lon="22.53751">
        <ele>974.002699</ele>
        <time>2022-04-09T09:43:53.190Z</time>
      </trkpt>
      <trkpt lat="42.25299" lon="22.53738">
        <ele>974.298706</ele>
        <time>2022-04-09T09:43:57.205Z</time>
      </trkpt>
      <trkpt lat="42.25295" lon="22.53725">
        <ele>974.608022</ele>
        <time>2022-04-09T09:44:01.201Z</time>
      </trkpt>
      <trkpt lat="42.25291" lon="22.53713">
        <ele>974.922384</ele>
        <time>2022-04-09T09:44:05.202Z</time>
      </trkpt>
      <trkpt lat="42.25287" lon="22.53701">
        <ele>975.22253</ele>
        <time>2022-04-09T09:44:09.198Z</time>
      </trkpt>
      <trkpt lat="42.25282" lon="22.5369">
        <ele>975.522141</ele>
        <time>2022-04-09T09:44:13.186Z</time>
      </trkpt>
      <trkpt lat="42.25278" lon="22.53679">
        <ele>975.822302</ele>
        <time>2022-04-09T09:44:17.178Z</time>
      </trkpt>
      <trkpt lat="42.25274" lon="22.53668">
        <ele>976.111202</ele>
        <time>2022-04-09T09:44:21.188Z</time>
      </trkpt>
      <trkpt lat="42.25269" lon="22.53656">
        <ele>976.43082</ele>
        <time>2022-04-09T09:44:26.183Z</time>
      </trkpt>
      <trkpt lat="42.25265" lon="22.53645">
        <ele>976.733939</ele>
        <time>2022-04-09T09:44:31.175Z</time>
      </trkpt>
      <trkpt lat="42.25261" lon="22.53633">
        <ele>977.048172</ele>
        <time>2022-04-09T09:44:36.194Z</time>
      </trkpt>
      <trkpt lat="42.25256" lon="22.5362">
        <ele>977.386694</ele>
        <time>2022-04-09T09:44:41.197Z</time>
      </trkpt>
      <trkpt lat="42.25251" lon="22.53606">
        <ele>977.746129</ele>
        <time>2022-04-09T09:44:46.196Z</time>
      </trkpt>
      <trkpt lat="42.25247" lon="22.53593">
        <ele>978.086813</ele>
        <time>2022-04-09T09:44:51.193Z</time>
      </trkpt>
      <trkpt lat="42.25243" lon="22.53579">
        <ele>978.438722</ele>
        <time>2022-04-09T09:44:56.204Z</time>
      </trkpt>
      <trkpt lat="42.25238" lon="22.53567">
        <ele>978.766483</ele>
        <time>2022-04-09T09:45:01.181Z</time>
      </trkpt>
      <trkpt lat="42.25233" lon="22.53555">
        <ele>979.071789</ele>
        <time>2022-04-09T09:45:06.179Z</time>
      </trkpt>
      <trkpt lat="42.25228" lon="22.53544">
        <ele>979.384817</ele>
        <time>2022-04-09T09:45:11.184Z</time>
      </trkpt>
      <trkpt lat="42.25224" lon="22.53532">
        <ele>979.702185</ele>
        <time>2022-04-09T09:45:16.223Z</time>
      </trkpt>
      <trkpt lat="42.2522" lon="22.5352">
        <ele>980.015144</ele>
        <time>2022-04-09T09:45:21.185Z</time>
      </trkpt>
      <trkpt lat="42.25216" lon="22.53508">
        <ele>980.329415</ele>
        <time>2022-04-09T09:45:26.197Z</time>
      </trkpt>
      <trkpt lat="42.25211" lon="22.53497">
        <ele>980.668412</ele>
        <time>2022-04-09T09:45:31.168Z</time>
      </trkpt>
      <trkpt lat="42.25207" lon="22.53486">
        <ele>980.987729</ele>
        <time>2022-04-09T09:45:36.218Z</time>
      </trkpt>
      <trkpt lat="42.25202" lon="22.53474">
        <ele>981.32516</ele>
        <time>2022-04-09T09:45:41.176Z</time>
      </trkpt>
      <trkpt lat="42.25198" lon="22.53463">
        <ele>981.644689</ele>
        <time>2022-04-09T09:45:46.195Z</time>
      </trkpt>
      <trkpt lat="42.25193" lon="22.53451">
        <ele>981.994689</ele>
        <time>2022-04-09T09:45:51.175Z</time>
      </trkpt>
      <trkpt lat="42.25189" lon="22.53439">
        <ele>982.341119</ele>
        <time>2022-04-09T09:45:56.191Z</time>
      </trkpt>
      <trkpt lat="42.25185" lon="22.53427">
        <ele>982.663312</ele>
        <time>2022-04-09T09:46:01.184Z</time>
      </trkpt>
      <trkpt lat="42.25181" lon="22.53416">
        <ele>982.990127</ele>
        <time>2022-04-09T09:46:06.191Z</time>
      </trkpt>
      <trkpt lat="42.25176" lon="22.53404">
        <ele>983.313337</ele>
        <time>2022-04-09T09:46:11.192Z</time>
      </trkpt>
      <trkpt lat="42.25172" lon="22.53392">
        <ele>983.656957</ele>
        <time>2022-04-09T09:46:16.222Z</time>
      </trkpt>
      <trkpt lat="42.25168" lon="22.5338">
        <ele>984.000061</ele>
        <time>2022-04-09T09:46:21.219Z</time>
      </trkpt>
      <trkpt lat="42.25163" lon="22.53368">
        <ele>984.346823</ele>
        <time>2022-04-09T09:46:27.177Z</time>
      </trkpt>
      <trkpt lat="42.25159" lon="22.53356">
        <ele>984.697968</ele>
        <time>2022-04-09T09:46:32.193Z</time>
      </trkpt>
      <trkpt lat="42.25154" lon="22.53343">
        <ele>985.051479</ele>
        <time>2022-04-09T09:46:37.183Z</time>
      </trkpt>
      <trkpt lat="42.2515" lon="22.53331">
        <ele>985.401187</ele>
        <time>2022-04-09T09:46:42.204Z</time>
      </trkpt>
      <trkpt lat="42.25145" lon="22.53319">
        <ele>985.757917</ele>
        <time>2022-04-09T09:46:47.172Z</time>
      </trkpt>
      <trkpt lat="42.25142" lon="22.53307">
        <ele>986.078156</ele>
        <time>2022-04-09T09:46:52.196Z</time>
      </trkpt>
      <trkpt lat="42.25138" lon="22.53296">
        <ele>986.398044</ele>
        <time>2022-04-09T09:46:57.172Z</time>
      </trkpt>
      <trkpt lat="42.25133" lon="22.53285">
        <ele>986.912941</ele>
        <time>2022-04-09T09:47:02.189Z</time>
      </trkpt>
      <trkpt lat="42.25129" lon="22.53273">
        <ele>987.467097</ele>
        <time>2022-04-09T09:47:07.183Z</time>
      </trkpt>
      <trkpt lat="42.25124" lon="22.53262">
        <ele>988.02942</ele>
        <time>2022-04-09T09:47:12.178Z</time>
      </trkpt>
      <trkpt lat="42.2512" lon="22.53251">
        <ele>988.560676</ele>
        <time>2022-04-09T09:47:17.191Z</time>
      </trkpt>
      <trkpt lat="42.25116" lon="22.53238">
        <ele>989.146063</ele>
        <time>2022-04-09T09:47:22.243Z</time>
      </trkpt>
      <trkpt lat="42.25112" lon="22.53226">
        <ele>989.687545</ele>
        <time>2022-04-09T09:47:27.176Z</time>
      </trkpt>
      <trkpt lat="42.25107" lon="22.53216">
        <ele>990.20614</ele>
        <time>2022-04-09T09:47:32.177Z</time>
      </trkpt>
      <trkpt lat="42.25102" lon="22.53203">
        <ele>990.806381</ele>
        <time>2022-04-09T09:47:38.212Z</time>
      </trkpt>
      <trkpt lat="42.25098" lon="22.53192">
        <ele>991.355771</ele>
        <time>2022-04-09T09:47:43.188Z</time>
      </trkpt>
      <trkpt lat="42.25094" lon="22.5318">
        <ele>991.909732</ele>
        <time>2022-04-09T09:47:48.190Z</time>
      </trkpt>
      <trkpt lat="42.25089" lon="22.53168">
        <ele>992.465029</ele>
        <time>2022-04-09T09:47:53.185Z</time>
      </trkpt>
      <trkpt lat="42.25085" lon="22.53157">
        <ele>993.00385</ele>
        <time>2022-04-09T09:47:59.185Z</time>
      </trkpt>
      <trkpt lat="42.2508" lon="22.53145">
        <ele>993.587456</ele>
        <time>2022-04-09T09:48:05.191Z</time>
      </trkpt>
      <trkpt lat="42.25076" lon="22.53134">
        <ele>994.097188</ele>
        <time>2022-04-09T09:48:10.189Z</time>
      </trkpt>
      <trkpt lat="42.25072" lon="22.53121">
        <ele>994.71072</ele>
        <time>2022-04-09T09:48:16.197Z</time>
      </trkpt>
      <trkpt lat="42.25067" lon="22.53109">
        <ele>995.300791</ele>
        <time>2022-04-09T09:48:21.190Z</time>
      </trkpt>
      <trkpt lat="42.25062" lon="22.53097">
        <ele>995.849738</ele>
        <time>2022-04-09T09:48:26.191Z</time>
      </trkpt>
      <trkpt lat="42.25058" lon="22.53084">
        <ele>996.437896</ele>
        <time>2022-04-09T09:48:31.201Z</time>
      </trkpt>
      <trkpt lat="42.25054" lon="22.53072">
        <ele>996.976064</ele>
        <time>2022-04-09T09:48:36.198Z</time>
      </trkpt>
      <trkpt lat="42.25049" lon="22.5306">
        <ele>997.477508</ele>
        <time>2022-04-09T09:48:41.189Z</time>
      </trkpt>
      <trkpt lat="42.25045" lon="22.53048">
        <ele>997.97523</ele>
        <time>2022-04-09T09:48:46.264Z</time>
      </trkpt>
      <trkpt lat="42.25041" lon="22.53036">
        <ele>998.509133</ele>
        <time>2022-04-09T09:48:52.182Z</time>
      </trkpt>
      <trkpt lat="42.25037" lon="22.53024">
        <ele>999.00562</ele>
        <time>2022-04-09T09:48:57.220Z</time>
      </trkpt>
      <trkpt lat="42.25032" lon="22.53012">
        <ele>999.538623</ele>
        <time>2022-04-09T09:49:03.174Z</time>
      </trkpt>
      <trkpt lat="42.25028" lon="22.52999">
        <ele>1000.044587</ele>
        <time>2022-04-09T09:49:09.176Z</time>
      </trkpt>
      <trkpt lat="42.25023" lon="22.52987">
        <ele>1000.586388</ele>
        <time>2022-04-09T09:49:15.204Z</time>
      </trkpt>
      <trkpt lat="42.25018" lon="22.52974">
        <ele>1001.128496</ele>
        <time>2022-04-09T09:49:21.190Z</time>
      </trkpt>
      <trkpt lat="42.25012" lon="22.52961">
        <ele>1001.692301</ele>
        <time>2022-04-09T09:49:27.233Z</time>
      </trkpt>
      <trkpt lat="42.25007" lon="22.5295">
        <ele>1002.214273</ele>
        <time>2022-04-09T09:49:32.179Z</time>
      </trkpt>
      <trkpt lat="42.25002" lon="22.52937">
        <ele>1002.745563</ele>
        <time>2022-04-09T09:49:37.172Z</time>
      </trkpt>
      <trkpt lat="42.24998" lon="22.52925">
        <ele>1003.266935</ele>
        <time>2022-04-09T09:49:42.183Z</time>
      </trkpt>
      <trkpt lat="42.24993" lon="22.52913">
        <ele>1003.787075</ele>
        <time>2022-04-09T09:49:48.188Z</time>
      </trkpt>
      <trkpt lat="42.24987" lon="22.529">
        <ele>1004.334101</ele>
        <time>2022-04-09T09:49:54.181Z</time>
      </trkpt>
      <trkpt lat="42.24983" lon="22.52888">
        <ele>1004.874821</ele>
        <time>2022-04-09T09:50:00.213Z</time>
      </trkpt>
      <trkpt lat="42.24978" lon="22.52876">
        <ele>1005.372548</ele>
        <time>2022-04-09T09:50:05.185Z</time>
      </trkpt>
      <trkpt lat="42.24975" lon="22.52864">
        <ele>1005.850917</ele>
        <time>2022-04-09T09:50:10.190Z</time>
      </trkpt>
      <trkpt lat="42.24971" lon="22.52852">
        <ele>1005.930986</ele>
        <time>2022-04-09T09:50:16.184Z</time>
      </trkpt>
      <trkpt lat="42.24969" lon="22.52837">
        <ele>1005.96857</ele>
        <time>2022-04-09T09:50:22.179Z</time>
      </trkpt>
      <trkpt lat="42.24964" lon="22.52825">
        <ele>1006.00313</ele>
        <time>2022-04-09T09:50:27.192Z</time>
      </trkpt>
      <trkpt lat="42.2496" lon="22.52812">
        <ele>1006.038387</ele>
        <time>2022-04-09T09:50:32.185Z</time>
      </trkpt>
      <trkpt lat="42.24954" lon="22.52801">
        <ele>1006.074087</ele>
        <time>2022-04-09T09:50:37.201Z</time>
      </trkpt>
      <trkpt lat="42.2495" lon="22.52789">
        <ele>1006.107888</ele>
        <time>2022-04-09T09:50:42.192Z</time>
      </trkpt>
      <trkpt lat="42.24945" lon="22.52776">
        <ele>1006.146331</ele>
        <time>2022-04-09T09:50:46.200Z</time>
      </trkpt>
      <trkpt lat="42.2494" lon="22.52763">
        <ele>1006.18172</ele>
        <time>2022-04-09T09:50:50.199Z</time>
      </trkpt>
      <trkpt lat="42.24935" lon="22.52752">
        <ele>1006.215013</ele>
        <time>2022-04-09T09:50:54.182Z</time>
      </trkpt>
      <trkpt lat="42.2493" lon="22.5274">
        <ele>1006.251639</ele>
        <time>2022-04-09T09:50:58.196Z</time>
      </trkpt>
      <trkpt lat="42.24924" lon="22.52728">
        <ele>1006.287567</ele>
        <time>2022-04-09T09:51:02.198Z</time>
      </trkpt>
      <trkpt lat="42.24919" lon="22.52716">
        <ele>1006.323045</ele>
        <time>2022-04-09T09:51:06.203Z</time>
      </trkpt>
      <trkpt lat="42.24913" lon="22.52704">
        <ele>1006.360254</ele>
        <time>2022-04-09T09:51:10.178Z</time>
      </trkpt>
      <trkpt lat="42.24906" lon="22.52692">
        <ele>1006.397784</ele>
        <time>2022-04-09T09:51:14.192Z</time>
      </trkpt>
      <trkpt lat="42.24901" lon="22.52679">
        <ele>1006.4342</ele>
        <time>2022-04-09T09:51:18.218Z</time>
      </trkpt>
      <trkpt lat="42.24896" lon="22.52668">
        <ele>1006.468685</ele>
        <time>2022-04-09T09:51:22.173Z</time>
      </trkpt>
      <trkpt lat="42.24891" lon="22.52657">
        <ele>1006.502486</ele>
        <time>2022-04-09T09:51:26.199Z</time>
      </trkpt>
      <trkpt lat="42.24887" lon="22.52643">
        <ele>1006.544221</ele>
        <time>2022-04-09T09:51:30.224Z</time>
      </trkpt>
      <trkpt lat="42.24882" lon="22.5263">
        <ele>1006.586077</ele>
        <time>2022-04-09T09:51:34.206Z</time>
      </trkpt>
      <trkpt lat="42.24876" lon="22.52619">
        <ele>1006.627515</ele>
        <time>2022-04-09T09:51:38.173Z</time>
      </trkpt>
      <trkpt lat="42.2487" lon="22.52606">
        <ele>1006.672333</ele>
        <time>2022-04-09T09:51:42.166Z</time>
      </trkpt>
      <trkpt lat="42.24865" lon="22.52593">
        <ele>1006.71393</ele>
        <time>2022-04-09T09:51:46.229Z</time>
      </trkpt>
      <trkpt lat="42.24861" lon="22.52582">
        <ele>1006.751255</ele>
        <time>2022-04-09T09:51:50.191Z</time>
      </trkpt>
      <trkpt lat="42.24857" lon="22.52571">
        <ele>1006.78764</ele>
        <time>2022-04-09T09:51:54.164Z</time>
      </trkpt>
      <trkpt lat="42.24851" lon="22.52558">
        <ele>1006.830817</ele>
        <time>2022-04-09T09:51:58.207Z</time>
      </trkpt>
      <trkpt lat="42.24845" lon="22.52545">
        <ele>1006.876621</ele>
        <time>2022-04-09T09:52:02.173Z</time>
      </trkpt>
      <trkpt lat="42.24839" lon="22.52532">
        <ele>1006.920878</ele>
        <time>2022-04-09T09:52:06.212Z</time>
      </trkpt>
      <trkpt lat="42.24834" lon="22.52519">
        <ele>1006.964742</ele>
        <time>2022-04-09T09:52:10.165Z</time>
      </trkpt>
      <trkpt lat="42.24829" lon="22.52507">
        <ele>1007.00653</ele>
        <time>2022-04-09T09:52:14.178Z</time>
      </trkpt>
      <trkpt lat="42.24822" lon="22.52495">
        <ele>1007.05039</ele>
        <time>2022-04-09T09:52:18.184Z</time>
      </trkpt>
      <trkpt lat="42.24816" lon="22.52482">
        <ele>1007.094031</ele>
        <time>2022-04-09T09:52:22.169Z</time>
      </trkpt>
      <trkpt lat="42.2481" lon="22.5247">
        <ele>1007.137625</ele>
        <time>2022-04-09T09:52:26.229Z</time>
      </trkpt>
      <trkpt lat="42.24804" lon="22.52458">
        <ele>1007.181667</ele>
        <time>2022-04-09T09:52:30.209Z</time>
      </trkpt>
      <trkpt lat="42.24797" lon="22.52445">
        <ele>1007.227138</ele>
        <time>2022-04-09T09:52:34.177Z</time>
      </trkpt>
      <trkpt lat="42.24791" lon="22.52432">
        <ele>1007.005198</ele>
        <time>2022-04-09T09:52:38.230Z</time>
      </trkpt>
      <trkpt lat="42.24786" lon="22.52422">
        <ele>1006.78295</ele>
        <time>2022-04-09T09:52:41.184Z</time>
      </trkpt>
      <trkpt lat="42.2478" lon="22.52412">
        <ele>1006.560635</ele>
        <time>2022-04-09T09:52:44.190Z</time>
      </trkpt>
      <trkpt lat="42.24775" lon="22.52403">
        <ele>1006.339806</ele>
        <time>2022-04-09T09:52:47.185Z</time>
      </trkpt>
      <trkpt lat="42.24768" lon="22.5239">
        <ele>1006.050286</ele>
        <time>2022-04-09T09:52:51.187Z</time>
      </trkpt>
      <trkpt lat="42.24762" lon="22.52376">
        <ele>1005.757488</ele>
        <time>2022-04-09T09:52:55.168Z</time>
      </trkpt>
      <trkpt lat="42.24756" lon="22.52367">
        <ele>1005.524728</ele>
        <time>2022-04-09T09:52:58.179Z</time>
      </trkpt>
      <trkpt lat="42.24749" lon="22.52356">
        <ele>1005.284632</ele>
        <time>2022-04-09T09:53:01.171Z</time>
      </trkpt>
      <trkpt lat="42.24744" lon="22.52346">
        <ele>1005.044756</ele>
        <time>2022-04-09T09:53:04.173Z</time>
      </trkpt>
      <trkpt lat="42.24737" lon="22.52335">
        <ele>1004.788708</ele>
        <time>2022-04-09T09:53:07.189Z</time>
      </trkpt>
      <trkpt lat="42.24731" lon="22.52323">
        <ele>1004.526858</ele>
        <time>2022-04-09T09:53:10.165Z</time>
      </trkpt>
      <trkpt lat="42.24725" lon="22.52312">
        <ele>1004.281212</ele>
        <time>2022-04-09T09:53:13.171Z</time>
      </trkpt>
      <trkpt lat="42.24719" lon="22.52301">
        <ele>1004.02823</ele>
        <time>2022-04-09T09:53:16.220Z</time>
      </trkpt>
      <trkpt lat="42.24712" lon="22.5229">
        <ele>1003.768455</ele>
        <time>2022-04-09T09:53:19.164Z</time>
      </trkpt>
      <trkpt lat="42.24705" lon="22.52279">
        <ele>1003.493233</ele>
        <time>2022-04-09T09:53:22.171Z</time>
      </trkpt>
      <trkpt lat="42.24698" lon="22.52268">
        <ele>1003.241718</ele>
        <time>2022-04-09T09:53:25.170Z</time>
      </trkpt>
      <trkpt lat="42.24693" lon="22.52257">
        <ele>1002.995958</ele>
        <time>2022-04-09T09:53:28.191Z</time>
      </trkpt>
      <trkpt lat="42.24687" lon="22.52245">
        <ele>1002.690594</ele>
        <time>2022-04-09T09:53:31.190Z</time>
      </trkpt>
      <trkpt lat="42.2468" lon="22.52234">
        <ele>1002.247052</ele>
        <time>2022-04-09T09:53:34.198Z</time>
      </trkpt>
      <trkpt lat="42.24673" lon="22.5222">
        <ele>1001.733336</ele>
        <time>2022-04-09T09:53:37.186Z</time>
      </trkpt>
      <trkpt lat="42.24665" lon="22.52206">
        <ele>1001.212213</ele>
        <time>2022-04-09T09:53:40.188Z</time>
      </trkpt>
      <trkpt lat="42.24656" lon="22.52192">
        <ele>1000.654135</ele>
        <time>2022-04-09T09:53:43.194Z</time>
      </trkpt>
      <trkpt lat="42.2465" lon="22.52182">
        <ele>1000.251908</ele>
        <time>2022-04-09T09:53:45.191Z</time>
      </trkpt>
      <trkpt lat="42.24643" lon="22.52171">
        <ele>999.832652</ele>
        <time>2022-04-09T09:53:47.191Z</time>
      </trkpt>
      <trkpt lat="42.24637" lon="22.5216">
        <ele>999.41103</ele>
        <time>2022-04-09T09:53:49.180Z</time>
      </trkpt>
      <trkpt lat="42.2463" lon="22.52148">
        <ele>998.969836</ele>
        <time>2022-04-09T09:53:51.188Z</time>
      </trkpt>
      <trkpt lat="42.24623" lon="22.52136">
        <ele>998.509552</ele>
        <time>2022-04-09T09:53:53.180Z</time>
      </trkpt>
      <trkpt lat="42.24616" lon="22.52124">
        <ele>998.049143</ele>
        <time>2022-04-09T09:53:55.193Z</time>
      </trkpt>
      <trkpt lat="42.24609" lon="22.52111">
        <ele>997.550078</ele>
        <time>2022-04-09T09:53:57.191Z</time>
      </trkpt>
      <trkpt lat="42.24601" lon="22.52097">
        <ele>997.034105</ele>
        <time>2022-04-09T09:53:59.189Z</time>
      </trkpt>
      <trkpt lat="42.24593" lon="22.52084">
        <ele>996.505891</ele>
        <time>2022-04-09T09:54:01.200Z</time>
      </trkpt>
      <trkpt lat="42.24584" lon="22.5207">
        <ele>995.955329</ele>
        <time>2022-04-09T09:54:03.190Z</time>
      </trkpt>
      <trkpt lat="42.24575" lon="22.52055">
        <ele>995.413689</ele>
        <time>2022-04-09T09:54:05.193Z</time>
      </trkpt>
      <trkpt lat="42.24566" lon="22.5204">
        <ele>994.962752</ele>
        <time>2022-04-09T09:54:07.217Z</time>
      </trkpt>
      <trkpt lat="42.24557" lon="22.52024">
        <ele>994.489885</ele>
        <time>2022-04-09T09:54:09.191Z</time>
      </trkpt>
      <trkpt lat="42.24548" lon="22.52008">
        <ele>994.013334</ele>
        <time>2022-04-09T09:54:11.187Z</time>
      </trkpt>
      <trkpt lat="42.24539" lon="22.51991">
        <ele>993.551468</ele>
        <time>2022-04-09T09:54:13.224Z</time>
      </trkpt>
      <trkpt lat="42.24531" lon="22.51975">
        <ele>993.091212</ele>
        <time>2022-04-09T09:54:15.168Z</time>
      </trkpt>
      <trkpt lat="42.24523" lon="22.51959">
        <ele>992.66288</ele>
        <time>2022-04-09T09:54:17.181Z</time>
      </trkpt>
      <trkpt lat="42.24516" lon="22.51945">
        <ele>992.249523</ele>
        <time>2022-04-09T09:54:19.183Z</time>
      </trkpt>
      <trkpt lat="42.24508" lon="22.5193">
        <ele>991.832536</ele>
        <time>2022-04-09T09:54:21.178Z</time>
      </trkpt>
      <trkpt lat="42.245" lon="22.51916">
        <ele>991.411784</ele>
        <time>2022-04-09T09:54:23.182Z</time>
      </trkpt>
      <trkpt lat="42.24492" lon="22.51902">
        <ele>991.013439</ele>
        <time>2022-04-09T09:54:25.197Z</time>
      </trkpt>
      <trkpt lat="42.24484" lon="22.51888">
        <ele>990.599847</ele>
        <time>2022-04-09T09:54:27.179Z</time>
      </trkpt>
      <trkpt lat="42.24475" lon="22.51874">
        <ele>990.184081</ele>
        <time>2022-04-09T09:54:29.194Z</time>
      </trkpt>
      <trkpt lat="42.24467" lon="22.51861">
        <ele>989.824558</ele>
        <time>2022-04-09T09:54:31.185Z</time>
      </trkpt>
      <trkpt lat="42.2446" lon="22.51848">
        <ele>989.616199</ele>
        <time>2022-04-09T09:54:33.185Z</time>
      </trkpt>
      <trkpt lat="42.24452" lon="22.51835">
        <ele>989.408693</ele>
        <time>2022-04-09T09:54:35.173Z</time>
      </trkpt>
      <trkpt lat="42.24444" lon="22.51822">
        <ele>989.208315</ele>
        <time>2022-04-09T09:54:37.165Z</time>
      </trkpt>
      <trkpt lat="42.24437" lon="22.51808">
        <ele>989.006985</ele>
        <time>2022-04-09T09:54:39.186Z</time>
      </trkpt>
      <trkpt lat="42.2443" lon="22.51795">
        <ele>988.811528</ele>
        <time>2022-04-09T09:54:41.185Z</time>
      </trkpt>
      <trkpt lat="42.24423" lon="22.51782">
        <ele>988.618913</ele>
        <time>2022-04-09T09:54:43.184Z</time>
      </trkpt>
      <trkpt lat="42.24416" lon="22.51769">
        <ele>988.417565</ele>
        <time>2022-04-09T09:54:45.189Z</time>
      </trkpt>
      <trkpt lat="42.24409" lon="22.51757">
        <ele>988.220008</ele>
        <time>2022-04-09T09:54:47.194Z</time>
      </trkpt>
      <trkpt lat="42.24401" lon="22.51745">
        <ele>988.030222</ele>
        <time>2022-04-09T09:54:49.185Z</time>
      </trkpt>
      <trkpt lat="42.24394" lon="22.51732">
        <ele>987.834784</ele>
        <time>2022-04-09T09:54:51.194Z</time>
      </trkpt>
      <trkpt lat="42.24387" lon="22.51718">
        <ele>987.634423</ele>
        <time>2022-04-09T09:54:53.200Z</time>
      </trkpt>
      <trkpt lat="42.2438" lon="22.51705">
        <ele>987.4311</ele>
        <time>2022-04-09T09:54:55.177Z</time>
      </trkpt>
      <trkpt lat="42.24372" lon="22.51692">
        <ele>987.227731</ele>
        <time>2022-04-09T09:54:57.227Z</time>
      </trkpt>
      <trkpt lat="42.24364" lon="22.51679">
        <ele>987.025247</ele>
        <time>2022-04-09T09:54:59.185Z</time>
      </trkpt>
      <trkpt lat="42.24357" lon="22.51666">
        <ele>986.925399</ele>
        <time>2022-04-09T09:55:01.205Z</time>
      </trkpt>
      <trkpt lat="42.24349" lon="22.51653">
        <ele>987.000992</ele>
        <time>2022-04-09T09:55:03.183Z</time>
      </trkpt>
      <trkpt lat="42.24342" lon="22.51641">
        <ele>987.076204</ele>
        <time>2022-04-09T09:55:05.195Z</time>
      </trkpt>
      <trkpt lat="42.24335" lon="22.51628">
        <ele>987.151432</ele>
        <time>2022-04-09T09:55:07.183Z</time>
      </trkpt>
      <trkpt lat="42.24327" lon="22.51616">
        <ele>987.22342</ele>
        <time>2022-04-09T09:55:09.186Z</time>
      </trkpt>
      <trkpt lat="42.24321" lon="22.51605">
        <ele>987.288336</ele>
        <time>2022-04-09T09:55:11.178Z</time>
      </trkpt>
      <trkpt lat="42.24314" lon="22.51596">
        <ele>987.348446</ele>
        <time>2022-04-09T09:55:13.191Z</time>
      </trkpt>
      <trkpt lat="42.24308" lon="22.51585">
        <ele>987.413602</ele>
        <time>2022-04-09T09:55:15.179Z</time>
      </trkpt>
      <trkpt lat="42.24302" lon="22.51573">
        <ele>987.480036</ele>
        <time>2022-04-09T09:55:17.187Z</time>
      </trkpt>
      <trkpt lat="42.24297" lon="22.51562">
        <ele>987.538903</ele>
        <time>2022-04-09T09:55:19.200Z</time>
      </trkpt>
      <trkpt lat="42.2429" lon="22.51549">
        <ele>987.612635</ele>
        <time>2022-04-09T09:55:22.186Z</time>
      </trkpt>
      <trkpt lat="42.24283" lon="22.51539">
        <ele>987.674277</ele>
        <time>2022-04-09T09:55:25.182Z</time>
      </trkpt>
      <trkpt lat="42.24278" lon="22.51529">
        <ele>987.732358</ele>
        <time>2022-04-09T09:55:28.179Z</time>
      </trkpt>
      <trkpt lat="42.24271" lon="22.51516">
        <ele>987.804331</ele>
        <time>2022-04-09T09:55:32.191Z</time>
      </trkpt>
      <trkpt lat="42.24265" lon="22.51505">
        <ele>987.868752</ele>
        <time>2022-04-09T09:55:36.237Z</time>
      </trkpt>
      <trkpt lat="42.24259" lon="22.51494">
        <ele>987.930561</ele>
        <time>2022-04-09T09:55:40.194Z</time>
      </trkpt>
      <trkpt lat="42.24253" lon="22.51484">
        <ele>987.992002</ele>
        <time>2022-04-09T09:55:44.197Z</time>
      </trkpt>
      <trkpt lat="42.24247" lon="22.51473">
        <ele>988.25608</ele>
        <time>2022-04-09T09:55:48.173Z</time>
      </trkpt>
      <trkpt lat="42.24241" lon="22.51464">
        <ele>988.692327</ele>
        <time>2022-04-09T09:55:52.224Z</time>
      </trkpt>
      <trkpt lat="42.24235" lon="22.51451">
        <ele>989.198106</ele>
        <time>2022-04-09T09:55:57.178Z</time>
      </trkpt>
      <trkpt lat="42.24229" lon="22.5144">
        <ele>989.686063</ele>
        <time>2022-04-09T09:56:02.225Z</time>
      </trkpt>
      <trkpt lat="42.24222" lon="22.5143">
        <ele>990.150146</ele>
        <time>2022-04-09T09:56:07.188Z</time>
      </trkpt>
      <trkpt lat="42.24217" lon="22.51419">
        <ele>990.601955</ele>
        <time>2022-04-09T09:56:12.195Z</time>
      </trkpt>
      <trkpt lat="42.2421" lon="22.51408">
        <ele>991.098134</ele>
        <time>2022-04-09T09:56:18.192Z</time>
      </trkpt>
      <trkpt lat="42.24204" lon="22.51396">
        <ele>991.583169</ele>
        <time>2022-04-09T09:56:24.181Z</time>
      </trkpt>
      <trkpt lat="42.24199" lon="22.51386">
        <ele>992.012775</ele>
        <time>2022-04-09T09:56:29.184Z</time>
      </trkpt>
      <trkpt lat="42.24192" lon="22.51375">
        <ele>992.508929</ele>
        <time>2022-04-09T09:56:35.169Z</time>
      </trkpt>
      <trkpt lat="42.24186" lon="22.51364">
        <ele>992.985776</ele>
        <time>2022-04-09T09:56:41.204Z</time>
      </trkpt>
      <trkpt lat="42.24181" lon="22.51354">
        <ele>993.412671</ele>
        <time>2022-04-09T09:56:47.179Z</time>
      </trkpt>
      <trkpt lat="42.24174" lon="22.51344">
        <ele>993.868492</ele>
        <time>2022-04-09T09:56:53.183Z</time>
      </trkpt>
      <trkpt lat="42.24169" lon="22.51333">
        <ele>994.317537</ele>
        <time>2022-04-09T09:56:59.177Z</time>
      </trkpt>
      <trkpt lat="42.24163" lon="22.51323">
        <ele>994.756061</ele>
        <time>2022-04-09T09:57:05.189Z</time>
      </trkpt>
      <trkpt lat="42.24157" lon="22.51313">
        <ele>995.191258</ele>
        <time>2022-04-09T09:57:11.193Z</time>
      </trkpt>
      <trkpt lat="42.24151" lon="22.51303">
        <ele>995.64301</ele>
        <time>2022-04-09T09:57:17.178Z</time>
      </trkpt>
      <trkpt lat="42.24145" lon="22.51293">
        <ele>996.090157</ele>
        <time>2022-04-09T09:57:23.165Z</time>
      </trkpt>
      <trkpt lat="42.24139" lon="22.51283">
        <ele>996.540154</ele>
        <time>2022-04-09T09:57:29.183Z</time>
      </trkpt>
      <trkpt lat="42.24132" lon="22.51273">
        <ele>997.046688</ele>
        <time>2022-04-09T09:57:36.188Z</time>
      </trkpt>
      <trkpt lat="42.24127" lon="22.51262">
        <ele>997.495204</ele>
        <time>2022-04-09T09:57:42.196Z</time>
      </trkpt>
      <trkpt lat="42.2412" lon="22.51251">
        <ele>997.995649</ele>
        <time>2022-04-09T09:57:48.226Z</time>
      </trkpt>
      <trkpt lat="42.24114" lon="22.51242">
        <ele>998.4633</ele>
        <time>2022-04-09T09:57:54.222Z</time>
      </trkpt>
      <trkpt lat="42.24108" lon="22.51231">
        <ele>998.949289</ele>
        <time>2022-04-09T09:58:00.184Z</time>
      </trkpt>
      <trkpt lat="42.24102" lon="22.51221">
        <ele>999.41694</ele>
        <time>2022-04-09T09:58:06.185Z</time>
      </trkpt>
      <trkpt lat="42.24096" lon="22.51211">
        <ele>999.883299</ele>
        <time>2022-04-09T09:58:12.200Z</time>
      </trkpt>
      <trkpt lat="42.24089" lon="22.51202">
        <ele>1000.349583</ele>
        <time>2022-04-09T09:58:18.194Z</time>
      </trkpt>
      <trkpt lat="42.24083" lon="22.51192">
        <ele>1000.799485</ele>
        <time>2022-04-09T09:58:24.188Z</time>
      </trkpt>
      <trkpt lat="42.24077" lon="22.51182">
        <ele>1001.288734</ele>
        <time>2022-04-09T09:58:30.167Z</time>
      </trkpt>
      <trkpt lat="42.2407" lon="22.51172">
        <ele>1001.755878</ele>
        <time>2022-04-09T09:58:36.229Z</time>
      </trkpt>
      <trkpt lat="42.24064" lon="22.51162">
        <ele>1002.21761</ele>
        <time>2022-04-09T09:58:42.184Z</time>
      </trkpt>
      <trkpt lat="42.24057" lon="22.51153">
        <ele>1002.704429</ele>
        <time>2022-04-09T09:58:48.201Z</time>
      </trkpt>
      <trkpt lat="42.2405" lon="22.51144">
        <ele>1003.16332</ele>
        <time>2022-04-09T09:58:55.189Z</time>
      </trkpt>
      <trkpt lat="42.24044" lon="22.51136">
        <ele>1003.598775</ele>
        <time>2022-04-09T09:59:01.199Z</time>
      </trkpt>
      <trkpt lat="42.24037" lon="22.51125">
        <ele>1004.112711</ele>
        <time>2022-04-09T09:59:07.179Z</time>
      </trkpt>
      <trkpt lat="42.2403" lon="22.51116">
        <ele>1004.573041</ele>
        <time>2022-04-09T09:59:13.215Z</time>
      </trkpt>
      <trkpt lat="42.24023" lon="22.51107">
        <ele>1005.047869</ele>
        <time>2022-04-09T09:59:19.181Z</time>
      </trkpt>
      <trkpt lat="42.24016" lon="22.51098">
        <ele>1005.426445</ele>
        <time>2022-04-09T09:59:25.215Z</time>
      </trkpt>
      <trkpt lat="42.24009" lon="22.51088">
        <ele>1005.809172</ele>
        <time>2022-04-09T09:59:32.194Z</time>
      </trkpt>
      <trkpt lat="42.24002" lon="22.51078">
        <ele>1006.192487</ele>
        <time>2022-04-09T09:59:38.185Z</time>
      </trkpt>
      <trkpt lat="42.23994" lon="22.5107">
        <ele>1006.556699</ele>
        <time>2022-04-09T09:59:44.179Z</time>
      </trkpt>
      <trkpt lat="42.23988" lon="22.51061">
        <ele>1006.907021</ele>
        <time>2022-04-09T09:59:50.169Z</time>
      </trkpt>
      <trkpt lat="42.23981" lon="22.51052">
        <ele>1007.262699</ele>
        <time>2022-04-09T09:59:56.181Z</time>
      </trkpt>
      <trkpt lat="42.23973" lon="22.51042">
        <ele>1007.661873</ele>
        <time>2022-04-09T10:00:02.173Z</time>
      </trkpt>
      <trkpt lat="42.23967" lon="22.51033">
        <ele>1008.001718</ele>
        <time>2022-04-09T10:00:08.179Z</time>
      </trkpt>
      <trkpt lat="42.2396" lon="22.51025">
        <ele>1008.34229</ele>
        <time>2022-04-09T10:00:14.193Z</time>
      </trkpt>
      <trkpt lat="42.23952" lon="22.51017">
        <ele>1008.701273</ele>
        <time>2022-04-09T10:00:20.188Z</time>
      </trkpt>
      <trkpt lat="42.23944" lon="22.5101">
        <ele>1009.071895</ele>
        <time>2022-04-09T10:00:26.182Z</time>
      </trkpt>
      <trkpt lat="42.23937" lon="22.50999">
        <ele>1009.469052</ele>
        <time>2022-04-09T10:00:33.180Z</time>
      </trkpt>
      <trkpt lat="42.2393" lon="22.50991">
        <ele>1009.829149</ele>
        <time>2022-04-09T10:00:39.178Z</time>
      </trkpt>
      <trkpt lat="42.23923" lon="22.50982">
        <ele>1010.176222</ele>
        <time>2022-04-09T10:00:45.180Z</time>
      </trkpt>
      <trkpt lat="42.23916" lon="22.50972">
        <ele>1010.573753</ele>
        <time>2022-04-09T10:00:52.180Z</time>
      </trkpt>
      <trkpt lat="42.2391" lon="22.50962">
        <ele>1010.916813</ele>
        <time>2022-04-09T10:00:58.187Z</time>
      </trkpt>
      <trkpt lat="42.23903" lon="22.50952">
        <ele>1011.299871</ele>
        <time>2022-04-09T10:01:05.180Z</time>
      </trkpt>
      <trkpt lat="42.23896" lon="22.50941">
        <ele>1011.697888</ele>
        <time>2022-04-09T10:01:11.222Z</time>
      </trkpt>
      <trkpt lat="42.23889" lon="22.50932">
        <ele>1012.035478</ele>
        <time>2022-04-09T10:01:17.200Z</time>
      </trkpt>
      <trkpt lat="42.23883" lon="22.50923">
        <ele>1012.32913</ele>
        <time>2022-04-09T10:01:23.186Z</time>
      </trkpt>
      <trkpt lat="42.23877" lon="22.50914">
        <ele>1012.628855</ele>
        <time>2022-04-09T10:01:29.188Z</time>
      </trkpt>
      <trkpt lat="42.23871" lon="22.50903">
        <ele>1012.938439</ele>
        <time>2022-04-09T10:01:35.187Z</time>
      </trkpt>
      <trkpt lat="42.23865" lon="22.50893">
        <ele>1013.255925</ele>
        <time>2022-04-09T10:01:41.198Z</time>
      </trkpt>
      <trkpt lat="42.23859" lon="22.50883">
        <ele>1013.561687</ele>
        <time>2022-04-09T10:01:47.188Z</time>
      </trkpt>
      <trkpt lat="42.23853" lon="22.50873">
        <ele>1013.870005</ele>
        <time>2022-04-09T10:01:53.198Z</time>
      </trkpt>
      <trkpt lat="42.23848" lon="22.50863">
        <ele>1014.16623</ele>
        <time>2022-04-09T10:01:58.211Z</time>
      </trkpt>
      <trkpt lat="42.23841" lon="22.50853">
        <ele>1014.486076</ele>
        <time>2022-04-09T10:02:04.178Z</time>
      </trkpt>
      <trkpt lat="42.23835" lon="22.50844">
        <ele>1014.777285</ele>
        <time>2022-04-09T10:02:09.191Z</time>
      </trkpt>
      <trkpt lat="42.23829" lon="22.50833">
        <ele>1015.088821</ele>
        <time>2022-04-09T10:02:15.197Z</time>
      </trkpt>
      <trkpt lat="42.23822" lon="22.50824">
        <ele>1015.414846</ele>
        <time>2022-04-09T10:02:21.195Z</time>
      </trkpt>
      <trkpt lat="42.23815" lon="22.50813">
        <ele>1015.736949</ele>
        <time>2022-04-09T10:02:27.192Z</time>
      </trkpt>
      <trkpt lat="42.2381" lon="22.50803">
        <ele>1016.041283</ele>
        <time>2022-04-09T10:02:33.194Z</time>
      </trkpt>
      <trkpt lat="42.23804" lon="22.50792">
        <ele>1016.368116</ele>
        <time>2022-04-09T10:02:39.179Z</time>
      </trkpt>
      <trkpt lat="42.23798" lon="22.5078">
        <ele>1016.706878</ele>
        <time>2022-04-09T10:02:45.167Z</time>
      </trkpt>
      <trkpt lat="42.23791" lon="22.50769">
        <ele>1017.049109</ele>
        <time>2022-04-09T10:02:51.180Z</time>
      </trkpt>
      <trkpt lat="42.23785" lon="22.50759">
        <ele>1017.354264</ele>
        <time>2022-04-09T10:02:57.188Z</time>
      </trkpt>
      <trkpt lat="42.23778" lon="22.50749">
        <ele>1017.679525</ele>
        <time>2022-04-09T10:03:03.188Z</time>
      </trkpt>
      <trkpt lat="42.23772" lon="22.5074">
        <ele>1018.032649</ele>
        <time>2022-04-09T10:03:08.177Z</time>
      </trkpt>
      <trkpt lat="42.23765" lon="22.50731">
        <ele>1018.387876</ele>
        <time>2022-04-09T10:03:13.176Z</time>
      </trkpt>
      <trkpt lat="42.23759" lon="22.50719">
        <ele>1018.796121</ele>
        <time>2022-04-09T10:03:19.189Z</time>
      </trkpt>
      <trkpt lat="42.23753" lon="22.50708">
        <ele>1019.191087</ele>
        <time>2022-04-09T10:03:25.167Z</time>
      </trkpt>
      <trkpt lat="42.23746" lon="22.50697">
        <ele>1019.592336</ele>
        <time>2022-04-09T10:03:31.197Z</time>
      </trkpt>
      <trkpt lat="42.2374" lon="22.50686">
        <ele>1019.987005</ele>
        <time>2022-04-09T10:03:37.183Z</time>
      </trkpt>
      <trkpt lat="42.23734" lon="22.50676">
        <ele>1020.337592</ele>
        <time>2022-04-09T10:03:42.179Z</time>
      </trkpt>
      <trkpt lat="42.23728" lon="22.50666">
        <ele>1020.714356</ele>
        <time>2022-04-09T10:03:48.193Z</time>
      </trkpt>
      <trkpt lat="42.23722" lon="22.50656">
        <ele>1021.059216</ele>
        <time>2022-04-09T10:03:53.195Z</time>
      </trkpt>
      <trkpt lat="42.23716" lon="22.50645">
        <ele>1021.469719</ele>
        <time>2022-04-09T10:03:59.188Z</time>
      </trkpt>
      <trkpt lat="42.2371" lon="22.50636">
        <ele>1021.814016</ele>
        <time>2022-04-09T10:04:04.165Z</time>
      </trkpt>
      <trkpt lat="42.23703" lon="22.50625">
        <ele>1022.215726</ele>
        <time>2022-04-09T10:04:10.178Z</time>
      </trkpt>
      <trkpt lat="42.23697" lon="22.50614">
        <ele>1022.599024</ele>
        <time>2022-04-09T10:04:16.188Z</time>
      </trkpt>
      <trkpt lat="42.2369" lon="22.50604">
        <ele>1022.989401</ele>
        <time>2022-04-09T10:04:22.234Z</time>
      </trkpt>
      <trkpt lat="42.23684" lon="22.50592">
        <ele>1023.384009</ele>
        <time>2022-04-09T10:04:28.184Z</time>
      </trkpt>
      <trkpt lat="42.23677" lon="22.50582">
        <ele>1023.780609</ele>
        <time>2022-04-09T10:04:34.192Z</time>
      </trkpt>
      <trkpt lat="42.23672" lon="22.50571">
        <ele>1024.154036</ele>
        <time>2022-04-09T10:04:40.201Z</time>
      </trkpt>
      <trkpt lat="42.23665" lon="22.50561">
        <ele>1024.5253</ele>
        <time>2022-04-09T10:04:46.255Z</time>
      </trkpt>
      <trkpt lat="42.23659" lon="22.5055">
        <ele>1024.952597</ele>
        <time>2022-04-09T10:04:52.215Z</time>
      </trkpt>
      <trkpt lat="42.23652" lon="22.50539">
        <ele>1025.412529</ele>
        <time>2022-04-09T10:04:58.174Z</time>
      </trkpt>
      <trkpt lat="42.23646" lon="22.50529">
        <ele>1025.83886</ele>
        <time>2022-04-09T10:05:04.189Z</time>
      </trkpt>
      <trkpt lat="42.23641" lon="22.50518">
        <ele>1026.257736</ele>
        <time>2022-04-09T10:05:10.185Z</time>
      </trkpt>
      <trkpt lat="42.23635" lon="22.50508">
        <ele>1026.67055</ele>
        <time>2022-04-09T10:05:16.197Z</time>
      </trkpt>
      <trkpt lat="42.23629" lon="22.50496">
        <ele>1027.12199</ele>
        <time>2022-04-09T10:05:23.184Z</time>
      </trkpt>
      <trkpt lat="42.23624" lon="22.50485">
        <ele>1027.541749</ele>
        <time>2022-04-09T10:05:29.189Z</time>
      </trkpt>
      <trkpt lat="42.23619" lon="22.50473">
        <ele>1027.981976</ele>
        <time>2022-04-09T10:05:35.193Z</time>
      </trkpt>
      <trkpt lat="42.23614" lon="22.50463">
        <ele>1028.385366</ele>
        <time>2022-04-09T10:05:41.179Z</time>
      </trkpt>
      <trkpt lat="42.23609" lon="22.50452">
        <ele>1028.792958</ele>
        <time>2022-04-09T10:05:47.192Z</time>
      </trkpt>
      <trkpt lat="42.23603" lon="22.50442">
        <ele>1029.22376</ele>
        <time>2022-04-09T10:05:55.185Z</time>
      </trkpt>
      <trkpt lat="42.23597" lon="22.5043">
        <ele>1029.674006</ele>
        <time>2022-04-09T10:06:02.238Z</time>
      </trkpt>
      <trkpt lat="42.23592" lon="22.5042">
        <ele>1030.063521</ele>
        <time>2022-04-09T10:06:07.179Z</time>
      </trkpt>
      <trkpt lat="42.23587" lon="22.50409">
        <ele>1030.46064</ele>
        <time>2022-04-09T10:06:13.215Z</time>
      </trkpt>
      <trkpt lat="42.23582" lon="22.50398">
        <ele>1030.899175</ele>
        <time>2022-04-09T10:06:20.172Z</time>
      </trkpt>
      <trkpt lat="42.23578" lon="22.50386">
        <ele>1031.315122</ele>
        <time>2022-04-09T10:06:27.188Z</time>
      </trkpt>
      <trkpt lat="42.23573" lon="22.50374">
        <ele>1031.745929</ele>
        <time>2022-04-09T10:06:34.227Z</time>
      </trkpt>
      <trkpt lat="42.23568" lon="22.50363">
        <ele>1032.15475</ele>
        <time>2022-04-09T10:06:40.187Z</time>
      </trkpt>
      <trkpt lat="42.23564" lon="22.50352">
        <ele>1032.611794</ele>
        <time>2022-04-09T10:06:46.202Z</time>
      </trkpt>
      <trkpt lat="42.2356" lon="22.50341">
        <ele>1033.082201</ele>
        <time>2022-04-09T10:06:51.224Z</time>
      </trkpt>
      <trkpt lat="42.23557" lon="22.50329">
        <ele>1033.553489</ele>
        <time>2022-04-09T10:06:57.173Z</time>
      </trkpt>
      <trkpt lat="42.23552" lon="22.50317">
        <ele>1034.082478</ele>
        <time>2022-04-09T10:07:04.207Z</time>
      </trkpt>
      <trkpt lat="42.23548" lon="22.50305">
        <ele>1034.60201</ele>
        <time>2022-04-09T10:07:11.176Z</time>
      </trkpt>
      <trkpt lat="42.23543" lon="22.50293">
        <ele>1035.113532</ele>
        <time>2022-04-09T10:07:18.195Z</time>
      </trkpt>
      <trkpt lat="42.23539" lon="22.50281">
        <ele>1035.623931</ele>
        <time>2022-04-09T10:07:24.189Z</time>
      </trkpt>
      <trkpt lat="42.23535" lon="22.50268">
        <ele>1036.147422</ele>
        <time>2022-04-09T10:07:30.194Z</time>
      </trkpt>
      <trkpt lat="42.23533" lon="22.50257">
        <ele>1036.624808</ele>
        <time>2022-04-09T10:07:36.183Z</time>
      </trkpt>
      <trkpt lat="42.23529" lon="22.50244">
        <ele>1037.146647</ele>
        <time>2022-04-09T10:07:42.187Z</time>
      </trkpt>
      <trkpt lat="42.23525" lon="22.50231">
        <ele>1037.684432</ele>
        <time>2022-04-09T10:07:48.185Z</time>
      </trkpt>
      <trkpt lat="42.23522" lon="22.50219">
        <ele>1038.161314</ele>
        <time>2022-04-09T10:07:54.194Z</time>
      </trkpt>
      <trkpt lat="42.2352" lon="22.50206">
        <ele>1038.670592</ele>
        <time>2022-04-09T10:08:00.184Z</time>
      </trkpt>
      <trkpt lat="42.23519" lon="22.50192">
        <ele>1039.192758</ele>
        <time>2022-04-09T10:08:07.175Z</time>
      </trkpt>
      <trkpt lat="42.23516" lon="22.5018">
        <ele>1039.691535</ele>
        <time>2022-04-09T10:08:13.179Z</time>
      </trkpt>
      <trkpt lat="42.23512" lon="22.50168">
        <ele>1040.192806</ele>
        <time>2022-04-09T10:08:19.187Z</time>
      </trkpt>
      <trkpt lat="42.23508" lon="22.50156">
        <ele>1040.719317</ele>
        <time>2022-04-09T10:08:25.189Z</time>
      </trkpt>
      <trkpt lat="42.23505" lon="22.50144">
        <ele>1041.208532</ele>
        <time>2022-04-09T10:08:31.221Z</time>
      </trkpt>
      <trkpt lat="42.23502" lon="22.5013">
        <ele>1041.712322</ele>
        <time>2022-04-09T10:08:38.184Z</time>
      </trkpt>
      <trkpt lat="42.23498" lon="22.50119">
        <ele>1042.05515</ele>
        <time>2022-04-09T10:08:44.194Z</time>
      </trkpt>
      <trkpt lat="42.23495" lon="22.50108">
        <ele>1042.390809</ele>
        <time>2022-04-09T10:08:50.189Z</time>
      </trkpt>
      <trkpt lat="42.2349" lon="22.50096">
        <ele>1042.754082</ele>
        <time>2022-04-09T10:08:57.193Z</time>
      </trkpt>
      <trkpt lat="42.23488" lon="22.50083">
        <ele>1043.114128</ele>
        <time>2022-04-09T10:09:03.197Z</time>
      </trkpt>
      <trkpt lat="42.23485" lon="22.50071">
        <ele>1043.463702</ele>
        <time>2022-04-09T10:09:09.215Z</time>
      </trkpt>
      <trkpt lat="42.23482" lon="22.50058">
        <ele>1043.820735</ele>
        <time>2022-04-09T10:09:15.184Z</time>
      </trkpt>
      <trkpt lat="42.23478" lon="22.50045">
        <ele>1044.210903</ele>
        <time>2022-04-09T10:09:21.183Z</time>
      </trkpt>
      <trkpt lat="42.23474" lon="22.50032">
        <ele>1044.592082</ele>
        <time>2022-04-09T10:09:27.174Z</time>
      </trkpt>
      <trkpt lat="42.23471" lon="22.50019">
        <ele>1044.969388</ele>
        <time>2022-04-09T10:09:33.185Z</time>
      </trkpt>
      <trkpt lat="42.23467" lon="22.50007">
        <ele>1045.318684</ele>
        <time>2022-04-09T10:09:38.195Z</time>
      </trkpt>
      <trkpt lat="42.23464" lon="22.49994">
        <ele>1045.702587</ele>
        <time>2022-04-09T10:09:43.177Z</time>
      </trkpt>
      <trkpt lat="42.23461" lon="22.49982">
        <ele>1046.044328</ele>
        <time>2022-04-09T10:09:47.174Z</time>
      </trkpt>
      <trkpt lat="42.23457" lon="22.4997">
        <ele>1046.406315</ele>
        <time>2022-04-09T10:09:51.183Z</time>
      </trkpt>
      <trkpt lat="42.23454" lon="22.49956">
        <ele>1046.819983</ele>
        <time>2022-04-09T10:09:56.178Z</time>
      </trkpt>
      <trkpt lat="42.23451" lon="22.49944">
        <ele>1047.153691</ele>
        <time>2022-04-09T10:10:00.184Z</time>
      </trkpt>
      <trkpt lat="42.23448" lon="22.49932">
        <ele>1047.505346</ele>
        <time>2022-04-09T10:10:04.222Z</time>
      </trkpt>
      <trkpt lat="42.23444" lon="22.4992">
        <ele>1047.860887</ele>
        <time>2022-04-09T10:10:08.188Z</time>
      </trkpt>
      <trkpt lat="42.2344" lon="22.49907">
        <ele>1048.237184</ele>
        <time>2022-04-09T10:10:12.179Z</time>
      </trkpt>
      <trkpt lat="42.23437" lon="22.49894">
        <ele>1048.381676</ele>
        <time>2022-04-09T10:10:16.183Z</time>
      </trkpt>
      <trkpt lat="42.23433" lon="22.49881">
        <ele>1048.486821</ele>
        <time>2022-04-09T10:10:20.193Z</time>
      </trkpt>
      <trkpt lat="42.23429" lon="22.49869">
        <ele>1048.589193</ele>
        <time>2022-04-09T10:10:24.193Z</time>
      </trkpt>
      <trkpt lat="42.23425" lon="22.49856">
        <ele>1048.690875</ele>
        <time>2022-04-09T10:10:28.193Z</time>
      </trkpt>
      <trkpt lat="42.23422" lon="22.49844">
        <ele>1048.792483</ele>
        <time>2022-04-09T10:10:32.234Z</time>
      </trkpt>
      <trkpt lat="42.23418" lon="22.49829">
        <ele>1048.911092</ele>
        <time>2022-04-09T10:10:36.181Z</time>
      </trkpt>
      <trkpt lat="42.23414" lon="22.49814">
        <ele>1049.02606</ele>
        <time>2022-04-09T10:10:40.195Z</time>
      </trkpt>
      <trkpt lat="42.2341" lon="22.49799">
        <ele>1049.144173</ele>
        <time>2022-04-09T10:10:44.193Z</time>
      </trkpt>
      <trkpt lat="42.23407" lon="22.49788">
        <ele>1049.236266</ele>
        <time>2022-04-09T10:10:47.201Z</time>
      </trkpt>
      <trkpt lat="42.23403" lon="22.49773">
        <ele>1049.350908</ele>
        <time>2022-04-09T10:10:51.189Z</time>
      </trkpt>
      <trkpt lat="42.234" lon="22.4976">
        <ele>1049.456862</ele>
        <time>2022-04-09T10:10:55.180Z</time>
      </trkpt>
      <trkpt lat="42.23398" lon="22.49745">
        <ele>1049.575004</ele>
        <time>2022-04-09T10:10:59.182Z</time>
      </trkpt>
      <trkpt lat="42.23394" lon="22.4973">
        <ele>1049.694178</ele>
        <time>2022-04-09T10:11:03.177Z</time>
      </trkpt>
      <trkpt lat="42.2339" lon="22.49715">
        <ele>1049.812198</ele>
        <time>2022-04-09T10:11:07.196Z</time>
      </trkpt>
      <trkpt lat="42.23386" lon="22.497">
        <ele>1049.932058</ele>
        <time>2022-04-09T10:11:11.240Z</time>
      </trkpt>
      <trkpt lat="42.23383" lon="22.49688">
        <ele>1050.022806</ele>
        <time>2022-04-09T10:11:14.193Z</time>
      </trkpt>
      <trkpt lat="42.2338" lon="22.49677">
        <ele>1050.114197</ele>
        <time>2022-04-09T10:11:17.217Z</time>
      </trkpt>
      <trkpt lat="42.23376" lon="22.49663">
        <ele>1049.945582</ele>
        <time>2022-04-09T10:11:21.166Z</time>
      </trkpt>
      <trkpt lat="42.23374" lon="22.49651">
        <ele>1049.800021</ele>
        <time>2022-04-09T10:11:24.193Z</time>
      </trkpt>
      <trkpt lat="42.23371" lon="22.4964">
        <ele>1049.653739</ele>
        <time>2022-04-09T10:11:27.196Z</time>
      </trkpt>
      <trkpt lat="42.23367" lon="22.49626">
        <ele>1049.480514</ele>
        <time>2022-04-09T10:11:31.194Z</time>
      </trkpt>
      <trkpt lat="42.23364" lon="22.49612">
        <ele>1049.306643</ele>
        <time>2022-04-09T10:11:35.181Z</time>
      </trkpt>
      <trkpt lat="42.23359" lon="22.49597">
        <ele>1049.112125</ele>
        <time>2022-04-09T10:11:39.202Z</time>
      </trkpt>
      <trkpt lat="42.23356" lon="22.49586">
        <ele>1048.96537</ele>
        <time>2022-04-09T10:11:42.185Z</time>
      </trkpt>
      <trkpt lat="42.23351" lon="22.49571">
        <ele>1048.773179</ele>
        <time>2022-04-09T10:11:46.186Z</time>
      </trkpt>
      <trkpt lat="42.23347" lon="22.4956">
        <ele>1048.62723</ele>
        <time>2022-04-09T10:11:49.193Z</time>
      </trkpt>
      <trkpt lat="42.23344" lon="22.49549">
        <ele>1048.478238</ele>
        <time>2022-04-09T10:11:52.173Z</time>
      </trkpt>
      <trkpt lat="42.23341" lon="22.49537">
        <ele>1048.328541</ele>
        <time>2022-04-09T10:11:55.219Z</time>
      </trkpt>
      <trkpt lat="42.23336" lon="22.49523">
        <ele>1048.150262</ele>
        <time>2022-04-09T10:11:59.172Z</time>
      </trkpt>
      <trkpt lat="42.23332" lon="22.49508">
        <ele>1047.954494</ele>
        <time>2022-04-09T10:12:03.190Z</time>
      </trkpt>
      <trkpt lat="42.23328" lon="22.49494">
        <ele>1047.773463</ele>
        <time>2022-04-09T10:12:07.203Z</time>
      </trkpt>
      <trkpt lat="42.23323" lon="22.4948">
        <ele>1047.58543</ele>
        <time>2022-04-09T10:12:11.185Z</time>
      </trkpt>
      <trkpt lat="42.23319" lon="22.49466">
        <ele>1047.409862</ele>
        <time>2022-04-09T10:12:15.172Z</time>
      </trkpt>
      <trkpt lat="42.23315" lon="22.49452">
        <ele>1047.230468</ele>
        <time>2022-04-09T10:12:19.232Z</time>
      </trkpt>
      <trkpt lat="42.23311" lon="22.49438">
        <ele>1047.126457</ele>
        <time>2022-04-09T10:12:23.200Z</time>
      </trkpt>
      <trkpt lat="42.23308" lon="22.49426">
        <ele>1047.051288</ele>
        <time>2022-04-09T10:12:26.174Z</time>
      </trkpt>
      <trkpt lat="42.23303" lon="22.49411">
        <ele>1046.959869</ele>
        <time>2022-04-09T10:12:30.193Z</time>
      </trkpt>
      <trkpt lat="42.23299" lon="22.494">
        <ele>1046.887689</ele>
        <time>2022-04-09T10:12:33.194Z</time>
      </trkpt>
      <trkpt lat="42.23295" lon="22.49386">
        <ele>1046.793692</ele>
        <time>2022-04-09T10:12:37.192Z</time>
      </trkpt>
      <trkpt lat="42.2329" lon="22.49372">
        <ele>1046.704018</ele>
        <time>2022-04-09T10:12:41.179Z</time>
      </trkpt>
      <trkpt lat="42.23285" lon="22.49359">
        <ele>1046.617401</ele>
        <time>2022-04-09T10:12:45.191Z</time>
      </trkpt>
      <trkpt lat="42.23281" lon="22.49345">
        <ele>1046.532139</ele>
        <time>2022-04-09T10:12:49.189Z</time>
      </trkpt>
      <trkpt lat="42.23276" lon="22.49332">
        <ele>1046.442526</ele>
        <time>2022-04-09T10:12:53.178Z</time>
      </trkpt>
      <trkpt lat="42.23272" lon="22.49319">
        <ele>1046.363614</ele>
        <time>2022-04-09T10:12:57.175Z</time>
      </trkpt>
      <trkpt lat="42.23267" lon="22.49307">
        <ele>1046.27822</ele>
        <time>2022-04-09T10:13:01.185Z</time>
      </trkpt>
      <trkpt lat="42.23262" lon="22.49293">
        <ele>1046.19089</ele>
        <time>2022-04-09T10:13:05.177Z</time>
      </trkpt>
      <trkpt lat="42.23258" lon="22.49281">
        <ele>1046.112934</ele>
        <time>2022-04-09T10:13:09.187Z</time>
      </trkpt>
      <trkpt lat="42.23255" lon="22.4927">
        <ele>1046.041973</ele>
        <time>2022-04-09T10:13:13.181Z</time>
      </trkpt>
      <trkpt lat="42.23251" lon="22.49259">
        <ele>1045.970165</ele>
        <time>2022-04-09T10:13:17.189Z</time>
      </trkpt>
      <trkpt lat="42.23245" lon="22.49246">
        <ele>1045.880858</ele>
        <time>2022-04-09T10:13:21.183Z</time>
      </trkpt>
      <trkpt lat="42.2324" lon="22.49234">
        <ele>1045.797826</ele>
        <time>2022-04-09T10:13:25.181Z</time>
      </trkpt>
      <trkpt lat="42.23236" lon="22.49222">
        <ele>1046.022401</ele>
        <time>2022-04-09T10:13:29.181Z</time>
      </trkpt>
      <trkpt lat="42.23231" lon="22.4921">
        <ele>1046.350143</ele>
        <time>2022-04-09T10:13:33.177Z</time>
      </trkpt>
      <trkpt lat="42.23227" lon="22.49199">
        <ele>1046.683929</ele>
        <time>2022-04-09T10:13:37.193Z</time>
      </trkpt>
      <trkpt lat="42.23222" lon="22.49185">
        <ele>1047.076636</ele>
        <time>2022-04-09T10:13:42.178Z</time>
      </trkpt>
      <trkpt lat="42.23218" lon="22.49173">
        <ele>1047.42864</ele>
        <time>2022-04-09T10:13:46.202Z</time>
      </trkpt>
      <trkpt lat="42.23214" lon="22.4916">
        <ele>1047.783473</ele>
        <time>2022-04-09T10:13:50.226Z</time>
      </trkpt>
      <trkpt lat="42.23209" lon="22.49149">
        <ele>1048.122755</ele>
        <time>2022-04-09T10:13:54.183Z</time>
      </trkpt>
      <trkpt lat="42.23205" lon="22.49137">
        <ele>1048.461194</ele>
        <time>2022-04-09T10:13:58.193Z</time>
      </trkpt>
      <trkpt lat="42.23201" lon="22.49126">
        <ele>1048.779657</ele>
        <time>2022-04-09T10:14:02.177Z</time>
      </trkpt>
      <trkpt lat="42.23197" lon="22.49115">
        <ele>1049.098304</ele>
        <time>2022-04-09T10:14:06.204Z</time>
      </trkpt>
      <trkpt lat="42.23192" lon="22.49104">
        <ele>1049.431085</ele>
        <time>2022-04-09T10:14:10.190Z</time>
      </trkpt>
      <trkpt lat="42.23188" lon="22.49093">
        <ele>1049.750919</ele>
        <time>2022-04-09T10:14:14.176Z</time>
      </trkpt>
      <trkpt lat="42.23184" lon="22.49082">
        <ele>1050.06926</ele>
        <time>2022-04-09T10:14:18.188Z</time>
      </trkpt>
      <trkpt lat="42.2318" lon="22.49071">
        <ele>1050.38837</ele>
        <time>2022-04-09T10:14:22.173Z</time>
      </trkpt>
      <trkpt lat="42.23176" lon="22.4906">
        <ele>1050.706835</ele>
        <time>2022-04-09T10:14:26.196Z</time>
      </trkpt>
      <trkpt lat="42.23171" lon="22.49049">
        <ele>1051.02493</ele>
        <time>2022-04-09T10:14:30.193Z</time>
      </trkpt>
      <trkpt lat="42.23167" lon="22.49037">
        <ele>1051.35571</ele>
        <time>2022-04-09T10:14:34.184Z</time>
      </trkpt>
      <trkpt lat="42.23163" lon="22.49026">
        <ele>1051.679541</ele>
        <time>2022-04-09T10:14:38.207Z</time>
      </trkpt>
      <trkpt lat="42.23159" lon="22.49015">
        <ele>1052.00251</ele>
        <time>2022-04-09T10:14:42.179Z</time>
      </trkpt>
      <trkpt lat="42.23154" lon="22.49004">
        <ele>1052.399813</ele>
        <time>2022-04-09T10:14:46.203Z</time>
      </trkpt>
      <trkpt lat="42.23148" lon="22.48991">
        <ele>1052.868163</ele>
        <time>2022-04-09T10:14:51.178Z</time>
      </trkpt>
      <trkpt lat="42.23144" lon="22.48979">
        <ele>1053.267471</ele>
        <time>2022-04-09T10:14:55.194Z</time>
      </trkpt>
      <trkpt lat="42.2314" lon="22.48967">
        <ele>1053.684721</ele>
        <time>2022-04-09T10:14:59.185Z</time>
      </trkpt>
      <trkpt lat="42.23135" lon="22.48954">
        <ele>1054.142915</ele>
        <time>2022-04-09T10:15:04.192Z</time>
      </trkpt>
      <trkpt lat="42.23131" lon="22.48942">
        <ele>1054.552463</ele>
        <time>2022-04-09T10:15:08.186Z</time>
      </trkpt>
      <trkpt lat="42.23126" lon="22.48931">
        <ele>1054.949276</ele>
        <time>2022-04-09T10:15:12.185Z</time>
      </trkpt>
      <trkpt lat="42.23122" lon="22.4892">
        <ele>1055.337513</ele>
        <time>2022-04-09T10:15:16.208Z</time>
      </trkpt>
      <trkpt lat="42.23118" lon="22.48906">
        <ele>1055.812787</ele>
        <time>2022-04-09T10:15:21.182Z</time>
      </trkpt>
      <trkpt lat="42.23114" lon="22.48895">
        <ele>1056.200964</ele>
        <time>2022-04-09T10:15:25.190Z</time>
      </trkpt>
      <trkpt lat="42.23109" lon="22.48882">
        <ele>1056.63286</ele>
        <time>2022-04-09T10:15:29.218Z</time>
      </trkpt>
      <trkpt lat="42.23105" lon="22.48871">
        <ele>1057.02694</ele>
        <time>2022-04-09T10:15:33.193Z</time>
      </trkpt>
      <trkpt lat="42.231" lon="22.4886">
        <ele>1057.409583</ele>
        <time>2022-04-09T10:15:37.181Z</time>
      </trkpt>
      <trkpt lat="42.23096" lon="22.48849">
        <ele>1057.795001</ele>
        <time>2022-04-09T10:15:41.201Z</time>
      </trkpt>
      <trkpt lat="42.23092" lon="22.48838">
        <ele>1058.192581</ele>
        <time>2022-04-09T10:15:45.219Z</time>
      </trkpt>
      <trkpt lat="42.23087" lon="22.48824">
        <ele>1058.657077</ele>
        <time>2022-04-09T10:15:50.183Z</time>
      </trkpt>
      <trkpt lat="42.23082" lon="22.48811">
        <ele>1059.129056</ele>
        <time>2022-04-09T10:15:55.200Z</time>
      </trkpt>
      <trkpt lat="42.23077" lon="22.48799">
        <ele>1059.537443</ele>
        <time>2022-04-09T10:15:59.200Z</time>
      </trkpt>
      <trkpt lat="42.23073" lon="22.48787">
        <ele>1059.995332</ele>
        <time>2022-04-09T10:16:03.224Z</time>
      </trkpt>
      <trkpt lat="42.23068" lon="22.48774">
        <ele>1060.519554</ele>
        <time>2022-04-09T10:16:08.195Z</time>
      </trkpt>
      <trkpt lat="42.23064" lon="22.48762">
        <ele>1060.972851</ele>
        <time>2022-04-09T10:16:13.189Z</time>
      </trkpt>
      <trkpt lat="42.23059" lon="22.4875">
        <ele>1061.473771</ele>
        <time>2022-04-09T10:16:19.182Z</time>
      </trkpt>
      <trkpt lat="42.23053" lon="22.48738">
        <ele>1061.972174</ele>
        <time>2022-04-09T10:16:25.173Z</time>
      </trkpt>
      <trkpt lat="42.23048" lon="22.48726">
        <ele>1062.437965</ele>
        <time>2022-04-09T10:16:31.188Z</time>
      </trkpt>
      <trkpt lat="42.23043" lon="22.48715">
        <ele>1062.891782</ele>
        <time>2022-04-09T10:16:37.239Z</time>
      </trkpt>
      <trkpt lat="42.23038" lon="22.48704">
        <ele>1063.3612</ele>
        <time>2022-04-09T10:16:43.201Z</time>
      </trkpt>
      <trkpt lat="42.23033" lon="22.48693">
        <ele>1063.800191</ele>
        <time>2022-04-09T10:16:49.189Z</time>
      </trkpt>
      <trkpt lat="42.23027" lon="22.48681">
        <ele>1064.295233</ele>
        <time>2022-04-09T10:16:56.185Z</time>
      </trkpt>
      <trkpt lat="42.23024" lon="22.4867">
        <ele>1064.72277</ele>
        <time>2022-04-09T10:17:02.191Z</time>
      </trkpt>
      <trkpt lat="42.23019" lon="22.48659">
        <ele>1065.158819</ele>
        <time>2022-04-09T10:17:08.196Z</time>
      </trkpt>
      <trkpt lat="42.23012" lon="22.48649">
        <ele>1065.629337</ele>
        <time>2022-04-09T10:17:15.179Z</time>
      </trkpt>
      <trkpt lat="42.23006" lon="22.48639">
        <ele>1066.101006</ele>
        <time>2022-04-09T10:17:22.218Z</time>
      </trkpt>
      <trkpt lat="42.23" lon="22.48628">
        <ele>1066.567276</ele>
        <time>2022-04-09T10:17:28.199Z</time>
      </trkpt>
      <trkpt lat="42.22994" lon="22.48618">
        <ele>1067.016487</ele>
        <time>2022-04-09T10:17:34.191Z</time>
      </trkpt>
      <trkpt lat="42.22989" lon="22.48606">
        <ele>1067.497251</ele>
        <time>2022-04-09T10:17:41.172Z</time>
      </trkpt>
      <trkpt lat="42.22983" lon="22.48596">
        <ele>1067.954926</ele>
        <time>2022-04-09T10:17:47.169Z</time>
      </trkpt>
      <trkpt lat="42.22977" lon="22.48587">
        <ele>1068.411143</ele>
        <time>2022-04-09T10:17:53.196Z</time>
      </trkpt>
      <trkpt lat="42.2297" lon="22.48576">
        <ele>1068.937734</ele>
        <time>2022-04-09T10:17:59.181Z</time>
      </trkpt>
      <trkpt lat="42.22964" lon="22.48567">
        <ele>1069.43264</ele>
        <time>2022-04-09T10:18:05.181Z</time>
      </trkpt>
      <trkpt lat="42.22957" lon="22.48556">
        <ele>1069.95962</ele>
        <time>2022-04-09T10:18:12.192Z</time>
      </trkpt>
      <trkpt lat="42.22951" lon="22.48547">
        <ele>1070.430728</ele>
        <time>2022-04-09T10:18:18.185Z</time>
      </trkpt>
      <trkpt lat="42.22945" lon="22.48537">
        <ele>1070.943896</ele>
        <time>2022-04-09T10:18:25.191Z</time>
      </trkpt>
      <trkpt lat="42.22939" lon="22.48527">
        <ele>1071.414713</ele>
        <time>2022-04-09T10:18:31.212Z</time>
      </trkpt>
      <trkpt lat="42.22932" lon="22.48518">
        <ele>1071.890296</ele>
        <time>2022-04-09T10:18:37.195Z</time>
      </trkpt>
      <trkpt lat="42.22925" lon="22.48509">
        <ele>1072.403637</ele>
        <time>2022-04-09T10:18:43.194Z</time>
      </trkpt>
      <trkpt lat="42.22918" lon="22.48499">
        <ele>1072.941387</ele>
        <time>2022-04-09T10:18:49.199Z</time>
      </trkpt>
      <trkpt lat="42.22911" lon="22.4849">
        <ele>1073.46237</ele>
        <time>2022-04-09T10:18:55.193Z</time>
      </trkpt>
      <trkpt lat="42.22902" lon="22.48482">
        <ele>1073.989122</ele>
        <time>2022-04-09T10:19:02.181Z</time>
      </trkpt>
      <trkpt lat="42.22895" lon="22.48473">
        <ele>1074.503939</ele>
        <time>2022-04-09T10:19:09.201Z</time>
      </trkpt>
      <trkpt lat="42.22888" lon="22.48465">
        <ele>1074.976351</ele>
        <time>2022-04-09T10:19:15.183Z</time>
      </trkpt>
      <trkpt lat="42.22882" lon="22.48456">
        <ele>1075.444695</ele>
        <time>2022-04-09T10:19:21.229Z</time>
      </trkpt>
      <trkpt lat="42.22875" lon="22.48447">
        <ele>1075.911216</ele>
        <time>2022-04-09T10:19:27.194Z</time>
      </trkpt>
      <trkpt lat="42.22868" lon="22.48439">
        <ele>1076.404311</ele>
        <time>2022-04-09T10:19:34.186Z</time>
      </trkpt>
      <trkpt lat="42.2286" lon="22.48431">
        <ele>1076.912255</ele>
        <time>2022-04-09T10:19:41.192Z</time>
      </trkpt>
      <trkpt lat="42.22853" lon="22.48423">
        <ele>1077.401454</ele>
        <time>2022-04-09T10:19:47.207Z</time>
      </trkpt>
      <trkpt lat="42.22846" lon="22.48413">
        <ele>1077.912269</ele>
        <time>2022-04-09T10:19:54.189Z</time>
      </trkpt>
      <trkpt lat="42.22838" lon="22.48405">
        <ele>1078.457478</ele>
        <time>2022-04-09T10:20:01.220Z</time>
      </trkpt>
      <trkpt lat="42.22829" lon="22.48397">
        <ele>1079.007822</ele>
        <time>2022-04-09T10:20:08.195Z</time>
      </trkpt>
      <trkpt lat="42.22821" lon="22.48388">
        <ele>1079.564232</ele>
        <time>2022-04-09T10:20:14.181Z</time>
      </trkpt>
      <trkpt lat="42.22812" lon="22.48381">
        <ele>1080.081611</ele>
        <time>2022-04-09T10:20:20.178Z</time>
      </trkpt>
      <trkpt lat="42.22804" lon="22.48373">
        <ele>1080.616043</ele>
        <time>2022-04-09T10:20:27.192Z</time>
      </trkpt>
      <trkpt lat="42.22795" lon="22.48366">
        <ele>1081.161719</ele>
        <time>2022-04-09T10:20:34.192Z</time>
      </trkpt>
      <trkpt lat="42.22787" lon="22.48359">
        <ele>1081.642061</ele>
        <time>2022-04-09T10:20:39.231Z</time>
      </trkpt>
      <trkpt lat="42.2278" lon="22.48352">
        <ele>1082.116805</ele>
        <time>2022-04-09T10:20:45.194Z</time>
      </trkpt>
      <trkpt lat="42.22772" lon="22.48343">
        <ele>1082.662515</ele>
        <time>2022-04-09T10:20:52.188Z</time>
      </trkpt>
      <trkpt lat="42.22764" lon="22.48335">
        <ele>1083.145286</ele>
        <time>2022-04-09T10:20:58.187Z</time>
      </trkpt>
      <trkpt lat="42.22756" lon="22.48326">
        <ele>1083.695392</ele>
        <time>2022-04-09T10:21:05.190Z</time>
      </trkpt>
      <trkpt lat="42.22749" lon="22.48318">
        <ele>1084.184649</ele>
        <time>2022-04-09T10:21:11.177Z</time>
      </trkpt>
      <trkpt lat="42.22741" lon="22.48309">
        <ele>1084.720919</ele>
        <time>2022-04-09T10:21:18.185Z</time>
      </trkpt>
      <trkpt lat="42.22734" lon="22.48301">
        <ele>1085.231226</ele>
        <time>2022-04-09T10:21:25.179Z</time>
      </trkpt>
      <trkpt lat="42.22726" lon="22.48294">
        <ele>1085.705031</ele>
        <time>2022-04-09T10:21:31.179Z</time>
      </trkpt>
      <trkpt lat="42.22717" lon="22.48286">
        <ele>1086.26322</ele>
        <time>2022-04-09T10:21:37.190Z</time>
      </trkpt>
      <trkpt lat="42.22708" lon="22.48278">
        <ele>1086.791597</ele>
        <time>2022-04-09T10:21:43.185Z</time>
      </trkpt>
      <trkpt lat="42.22699" lon="22.48272">
        <ele>1086.891418</ele>
        <time>2022-04-09T10:21:50.186Z</time>
      </trkpt>
      <trkpt lat="42.22692" lon="22.48263">
        <ele>1086.986851</ele>
        <time>2022-04-09T10:21:55.188Z</time>
      </trkpt>
      <trkpt lat="42.22685" lon="22.48256">
        <ele>1087.077466</ele>
        <time>2022-04-09T10:22:00.193Z</time>
      </trkpt>
      <trkpt lat="42.22678" lon="22.48247">
        <ele>1087.166359</ele>
        <time>2022-04-09T10:22:06.183Z</time>
      </trkpt>
      <trkpt lat="42.22671" lon="22.48239">
        <ele>1087.259098</ele>
        <time>2022-04-09T10:22:12.196Z</time>
      </trkpt>
      <trkpt lat="42.22663" lon="22.48231">
        <ele>1087.353221</ele>
        <time>2022-04-09T10:22:18.191Z</time>
      </trkpt>
      <trkpt lat="42.22656" lon="22.48222">
        <ele>1087.442931</ele>
        <time>2022-04-09T10:22:24.191Z</time>
      </trkpt>
      <trkpt lat="42.22648" lon="22.48214">
        <ele>1087.542743</ele>
        <time>2022-04-09T10:22:31.186Z</time>
      </trkpt>
      <trkpt lat="42.2264" lon="22.48206">
        <ele>1087.640635</ele>
        <time>2022-04-09T10:22:37.228Z</time>
      </trkpt>
      <trkpt lat="42.22633" lon="22.48198">
        <ele>1087.732132</ele>
        <time>2022-04-09T10:22:42.183Z</time>
      </trkpt>
      <trkpt lat="42.22624" lon="22.48191">
        <ele>1087.836042</ele>
        <time>2022-04-09T10:22:48.183Z</time>
      </trkpt>
      <trkpt lat="42.22615" lon="22.48182">
        <ele>1087.939222</ele>
        <time>2022-04-09T10:22:54.181Z</time>
      </trkpt>
      <trkpt lat="42.22607" lon="22.48174">
        <ele>1088.034608</ele>
        <time>2022-04-09T10:22:59.209Z</time>
      </trkpt>
      <trkpt lat="42.22599" lon="22.48166">
        <ele>1088.135582</ele>
        <time>2022-04-09T10:23:04.191Z</time>
      </trkpt>
      <trkpt lat="42.22591" lon="22.48158">
        <ele>1088.237363</ele>
        <time>2022-04-09T10:23:10.183Z</time>
      </trkpt>
      <trkpt lat="42.22583" lon="22.4815">
        <ele>1088.327112</ele>
        <time>2022-04-09T10:23:15.254Z</time>
      </trkpt>
      <trkpt lat="42.22575" lon="22.48143">
        <ele>1088.417214</ele>
        <time>2022-04-09T10:23:20.213Z</time>
      </trkpt>
      <trkpt lat="42.22568" lon="22.48135">
        <ele>1088.509606</ele>
        <time>2022-04-09T10:23:25.183Z</time>
      </trkpt>
      <trkpt lat="42.2256" lon="22.48128">
        <ele>1088.779886</ele>
        <time>2022-04-09T10:23:30.182Z</time>
      </trkpt>
      <trkpt lat="42.22553" lon="22.48119">
        <ele>1089.160956</ele>
        <time>2022-04-09T10:23:35.193Z</time>
      </trkpt>
      <trkpt lat="42.22545" lon="22.48111">
        <ele>1089.546669</ele>
        <time>2022-04-09T10:23:40.177Z</time>
      </trkpt>
      <trkpt lat="42.22536" lon="22.48104">
        <ele>1089.940878</ele>
        <time>2022-04-09T10:23:45.211Z</time>
      </trkpt>
      <trkpt lat="42.22528" lon="22.48095">
        <ele>1090.346069</ele>
        <time>2022-04-09T10:23:50.190Z</time>
      </trkpt>
      <trkpt lat="42.2252" lon="22.48087">
        <ele>1090.722214</ele>
        <time>2022-04-09T10:23:55.227Z</time>
      </trkpt>
      <trkpt lat="42.22512" lon="22.4808">
        <ele>1091.095273</ele>
        <time>2022-04-09T10:24:00.185Z</time>
      </trkpt>
      <trkpt lat="42.22504" lon="22.4807">
        <ele>1091.523127</ele>
        <time>2022-04-09T10:24:06.195Z</time>
      </trkpt>
      <trkpt lat="42.22496" lon="22.48061">
        <ele>1091.921131</ele>
        <time>2022-04-09T10:24:11.193Z</time>
      </trkpt>
      <trkpt lat="42.22487" lon="22.48053">
        <ele>1092.326182</ele>
        <time>2022-04-09T10:24:16.201Z</time>
      </trkpt>
      <trkpt lat="42.22479" lon="22.48045">
        <ele>1092.71414</ele>
        <time>2022-04-09T10:24:21.184Z</time>
      </trkpt>
      <trkpt lat="42.22471" lon="22.48036">
        <ele>1093.10258</ele>
        <time>2022-04-09T10:24:26.214Z</time>
      </trkpt>
      <trkpt lat="42.22462" lon="22.48028">
        <ele>1093.50582</ele>
        <time>2022-04-09T10:24:31.218Z</time>
      </trkpt>
      <trkpt lat="42.22453" lon="22.48021">
        <ele>1093.929</ele>
        <time>2022-04-09T10:24:36.198Z</time>
      </trkpt>
      <trkpt lat="42.22445" lon="22.48013">
        <ele>1094.303516</ele>
        <time>2022-04-09T10:24:41.177Z</time>
      </trkpt>
      <trkpt lat="42.22437" lon="22.48004">
        <ele>1094.688401</ele>
        <time>2022-04-09T10:24:46.195Z</time>
      </trkpt>
      <trkpt lat="42.22428" lon="22.47997">
        <ele>1095.09361</ele>
        <time>2022-04-09T10:24:51.191Z</time>
      </trkpt>
      <trkpt lat="42.2242" lon="22.47988">
        <ele>1095.611029</ele>
        <time>2022-04-09T10:24:56.229Z</time>
      </trkpt>
      <trkpt lat="42.22413" lon="22.4798">
        <ele>1096.695323</ele>
        <time>2022-04-09T10:25:01.189Z</time>
      </trkpt>
      <trkpt lat="42.22405" lon="22.4797">
        <ele>1097.97794</ele>
        <time>2022-04-09T10:25:07.182Z</time>
      </trkpt>
      <trkpt lat="42.22397" lon="22.47962">
        <ele>1099.067624</ele>
        <time>2022-04-09T10:25:12.191Z</time>
      </trkpt>
      <trkpt lat="42.22391" lon="22.47953">
        <ele>1100.144973</ele>
        <time>2022-04-09T10:25:17.173Z</time>
      </trkpt>
      <trkpt lat="42.22384" lon="22.47941">
        <ele>1101.400906</ele>
        <time>2022-04-09T10:25:23.171Z</time>
      </trkpt>
      <trkpt lat="42.22377" lon="22.47929">
        <ele>1102.761863</ele>
        <time>2022-04-09T10:25:28.175Z</time>
      </trkpt>
      <trkpt lat="42.22371" lon="22.47919">
        <ele>1103.858657</ele>
        <time>2022-04-09T10:25:32.216Z</time>
      </trkpt>
      <trkpt lat="42.22366" lon="22.47907">
        <ele>1105.08011</ele>
        <time>2022-04-09T10:25:37.183Z</time>
      </trkpt>
      <trkpt lat="42.2236" lon="22.47894">
        <ele>1106.365896</ele>
        <time>2022-04-09T10:25:42.185Z</time>
      </trkpt>
      <trkpt lat="42.22354" lon="22.47882">
        <ele>1107.588678</ele>
        <time>2022-04-09T10:25:47.168Z</time>
      </trkpt>
      <trkpt lat="42.22349" lon="22.47871">
        <ele>1108.6769</ele>
        <time>2022-04-09T10:25:51.197Z</time>
      </trkpt>
      <trkpt lat="42.22345" lon="22.4786">
        <ele>1109.743345</ele>
        <time>2022-04-09T10:25:55.197Z</time>
      </trkpt>
      <trkpt lat="42.22339" lon="22.47849">
        <ele>1110.905965</ele>
        <time>2022-04-09T10:26:00.182Z</time>
      </trkpt>
      <trkpt lat="42.22336" lon="22.47837">
        <ele>1111.985521</ele>
        <time>2022-04-09T10:26:04.216Z</time>
      </trkpt>
      <trkpt lat="42.22333" lon="22.47825">
        <ele>1113.079964</ele>
        <time>2022-04-09T10:26:08.182Z</time>
      </trkpt>
      <trkpt lat="42.22331" lon="22.4781">
        <ele>1114.366184</ele>
        <time>2022-04-09T10:26:13.192Z</time>
      </trkpt>
      <trkpt lat="42.22329" lon="22.47796">
        <ele>1115.641478</ele>
        <time>2022-04-09T10:26:18.190Z</time>
      </trkpt>
      <trkpt lat="42.22328" lon="22.47783">
        <ele>1116.291986</ele>
        <time>2022-04-09T10:26:22.206Z</time>
      </trkpt>
      <trkpt lat="42.22327" lon="22.47769">
        <ele>1116.252839</ele>
        <time>2022-04-09T10:26:27.181Z</time>
      </trkpt>
      <trkpt lat="42.22327" lon="22.47756">
        <ele>1116.217398</ele>
        <time>2022-04-09T10:26:31.192Z</time>
      </trkpt>
      <trkpt lat="42.22327" lon="22.47742">
        <ele>1116.176717</ele>
        <time>2022-04-09T10:26:35.169Z</time>
      </trkpt>
      <trkpt lat="42.22328" lon="22.47728">
        <ele>1116.139238</ele>
        <time>2022-04-09T10:26:39.189Z</time>
      </trkpt>
      <trkpt lat="42.22329" lon="22.47715">
        <ele>1116.101727</ele>
        <time>2022-04-09T10:26:44.173Z</time>
      </trkpt>
      <trkpt lat="42.2233" lon="22.47701">
        <ele>1116.063675</ele>
        <time>2022-04-09T10:26:50.169Z</time>
      </trkpt>
      <trkpt lat="42.22331" lon="22.47687">
        <ele>1116.025948</ele>
        <time>2022-04-09T10:26:56.177Z</time>
      </trkpt>
      <trkpt lat="42.22333" lon="22.47673">
        <ele>1115.986014</ele>
        <time>2022-04-09T10:27:01.203Z</time>
      </trkpt>
      <trkpt lat="42.22334" lon="22.47661">
        <ele>1115.951576</ele>
        <time>2022-04-09T10:27:05.182Z</time>
      </trkpt>
      <trkpt lat="42.22335" lon="22.47648">
        <ele>1115.91458</ele>
        <time>2022-04-09T10:27:10.195Z</time>
      </trkpt>
      <trkpt lat="42.22336" lon="22.47634">
        <ele>1115.875578</ele>
        <time>2022-04-09T10:27:15.172Z</time>
      </trkpt>
      <trkpt lat="42.22337" lon="22.47621">
        <ele>1115.840029</ele>
        <time>2022-04-09T10:27:20.183Z</time>
      </trkpt>
      <trkpt lat="42.22338" lon="22.47608">
        <ele>1115.803682</ele>
        <time>2022-04-09T10:27:26.196Z</time>
      </trkpt>
      <trkpt lat="42.22338" lon="22.47595">
        <ele>1115.769081</ele>
        <time>2022-04-09T10:27:32.164Z</time>
      </trkpt>
      <trkpt lat="42.22337" lon="22.47583">
        <ele>1115.735218</ele>
        <time>2022-04-09T10:27:38.181Z</time>
      </trkpt>
      <trkpt lat="42.22338" lon="22.47569">
        <ele>1115.696429</ele>
        <time>2022-04-09T10:27:44.174Z</time>
      </trkpt>
      <trkpt lat="42.22337" lon="22.47557">
        <ele>1115.662259</ele>
        <time>2022-04-09T10:27:50.233Z</time>
      </trkpt>
      <trkpt lat="42.22335" lon="22.47543">
        <ele>1115.660383</ele>
        <time>2022-04-09T10:27:57.200Z</time>
      </trkpt>
      <trkpt lat="42.22333" lon="22.47531">
        <ele>1115.779427</ele>
        <time>2022-04-09T10:28:03.175Z</time>
      </trkpt>
      <trkpt lat="42.22328" lon="22.47518">
        <ele>1115.908551</ele>
        <time>2022-04-09T10:28:10.184Z</time>
      </trkpt>
      <trkpt lat="42.22324" lon="22.47507">
        <ele>1116.02075</ele>
        <time>2022-04-09T10:28:16.202Z</time>
      </trkpt>
      <trkpt lat="42.2232" lon="22.47495">
        <ele>1116.142454</ele>
        <time>2022-04-09T10:28:23.198Z</time>
      </trkpt>
      <trkpt lat="42.22313" lon="22.47485">
        <ele>1116.268382</ele>
        <time>2022-04-09T10:28:30.184Z</time>
      </trkpt>
      <trkpt lat="42.22306" lon="22.47474">
        <ele>1116.395469</ele>
        <time>2022-04-09T10:28:37.194Z</time>
      </trkpt>
      <trkpt lat="42.22299" lon="22.47466">
        <ele>1116.512441</ele>
        <time>2022-04-09T10:28:43.188Z</time>
      </trkpt>
      <trkpt lat="42.22291" lon="22.4746">
        <ele>1116.62409</ele>
        <time>2022-04-09T10:28:49.193Z</time>
      </trkpt>
      <trkpt lat="42.22284" lon="22.47453">
        <ele>1116.735711</ele>
        <time>2022-04-09T10:28:55.193Z</time>
      </trkpt>
      <trkpt lat="42.22276" lon="22.47447">
        <ele>1116.850089</ele>
        <time>2022-04-09T10:29:00.192Z</time>
      </trkpt>
      <trkpt lat="42.22268" lon="22.4744">
        <ele>1116.962292</ele>
        <time>2022-04-09T10:29:05.194Z</time>
      </trkpt>
      <trkpt lat="42.22259" lon="22.47434">
        <ele>1117.0908</ele>
        <time>2022-04-09T10:29:11.182Z</time>
      </trkpt>
      <trkpt lat="42.2225" lon="22.47426">
        <ele>1117.218336</ele>
        <time>2022-04-09T10:29:18.189Z</time>
      </trkpt>
      <trkpt lat="42.22243" lon="22.47419">
        <ele>1117.333048</ele>
        <time>2022-04-09T10:29:25.205Z</time>
      </trkpt>
      <trkpt lat="42.22225" lon="22.47415">
        <ele>1117.548399</ele>
        <time>2022-04-09T10:35:01.197Z</time>
      </trkpt>
      <trkpt lat="42.22217" lon="22.4741">
        <ele>1117.667458</ele>
        <time>2022-04-09T10:35:07.191Z</time>
      </trkpt>
      <trkpt lat="42.22207" lon="22.47405">
        <ele>1117.789324</ele>
        <time>2022-04-09T10:35:13.185Z</time>
      </trkpt>
      <trkpt lat="42.22198" lon="22.47401">
        <ele>1118.133261</ele>
        <time>2022-04-09T10:35:19.191Z</time>
      </trkpt>
      <trkpt lat="42.22189" lon="22.47396">
        <ele>1118.766325</ele>
        <time>2022-04-09T10:35:26.194Z</time>
      </trkpt>
      <trkpt lat="42.2218" lon="22.47392">
        <ele>1119.36258</ele>
        <time>2022-04-09T10:35:32.188Z</time>
      </trkpt>
      <trkpt lat="42.22171" lon="22.47387">
        <ele>1119.989629</ele>
        <time>2022-04-09T10:35:40.184Z</time>
      </trkpt>
      <trkpt lat="42.22162" lon="22.47382">
        <ele>1120.669056</ele>
        <time>2022-04-09T10:35:48.179Z</time>
      </trkpt>
      <trkpt lat="42.22152" lon="22.47377">
        <ele>1121.33224</ele>
        <time>2022-04-09T10:35:54.173Z</time>
      </trkpt>
      <trkpt lat="42.22144" lon="22.47371">
        <ele>1121.924377</ele>
        <time>2022-04-09T10:36:01.197Z</time>
      </trkpt>
      <trkpt lat="42.22135" lon="22.47365">
        <ele>1122.576136</ele>
        <time>2022-04-09T10:36:08.177Z</time>
      </trkpt>
      <trkpt lat="42.22127" lon="22.47359">
        <ele>1123.153902</ele>
        <time>2022-04-09T10:36:14.173Z</time>
      </trkpt>
      <trkpt lat="42.22118" lon="22.47355">
        <ele>1123.78656</ele>
        <time>2022-04-09T10:36:22.180Z</time>
      </trkpt>
      <trkpt lat="42.22109" lon="22.4735">
        <ele>1124.367672</ele>
        <time>2022-04-09T10:36:28.181Z</time>
      </trkpt>
      <trkpt lat="42.221" lon="22.47345">
        <ele>1125.014462</ele>
        <time>2022-04-09T10:36:36.193Z</time>
      </trkpt>
      <trkpt lat="42.22091" lon="22.4734">
        <ele>1125.652288</ele>
        <time>2022-04-09T10:36:43.183Z</time>
      </trkpt>
      <trkpt lat="42.22081" lon="22.47335">
        <ele>1126.343681</ele>
        <time>2022-04-09T10:36:49.181Z</time>
      </trkpt>
      <trkpt lat="42.22072" lon="22.47331">
        <ele>1126.939768</ele>
        <time>2022-04-09T10:36:54.242Z</time>
      </trkpt>
      <trkpt lat="42.22064" lon="22.47326">
        <ele>1127.529122</ele>
        <time>2022-04-09T10:37:00.185Z</time>
      </trkpt>
      <trkpt lat="42.22054" lon="22.47321">
        <ele>1128.198436</ele>
        <time>2022-04-09T10:37:07.196Z</time>
      </trkpt>
      <trkpt lat="42.22045" lon="22.47316">
        <ele>1128.8238</ele>
        <time>2022-04-09T10:37:14.181Z</time>
      </trkpt>
      <trkpt lat="42.22036" lon="22.47311">
        <ele>1129.470157</ele>
        <time>2022-04-09T10:37:22.192Z</time>
      </trkpt>
      <trkpt lat="42.22026" lon="22.47306">
        <ele>1130.502651</ele>
        <time>2022-04-09T10:37:29.182Z</time>
      </trkpt>
      <trkpt lat="42.22016" lon="22.47301">
        <ele>1131.488308</ele>
        <time>2022-04-09T10:37:36.215Z</time>
      </trkpt>
      <trkpt lat="42.22008" lon="22.47298">
        <ele>1132.392069</ele>
        <time>2022-04-09T10:37:43.187Z</time>
      </trkpt>
      <trkpt lat="42.21998" lon="22.47293">
        <ele>1133.354101</ele>
        <time>2022-04-09T10:37:51.191Z</time>
      </trkpt>
      <trkpt lat="42.21989" lon="22.47288">
        <ele>1134.327941</ele>
        <time>2022-04-09T10:37:59.187Z</time>
      </trkpt>
      <trkpt lat="42.2198" lon="22.47284">
        <ele>1135.288195</ele>
        <time>2022-04-09T10:38:06.206Z</time>
      </trkpt>
      <trkpt lat="42.21971" lon="22.47278">
        <ele>1136.249653</ele>
        <time>2022-04-09T10:38:14.188Z</time>
      </trkpt>
      <trkpt lat="42.21962" lon="22.47275">
        <ele>1137.142826</ele>
        <time>2022-04-09T10:38:21.181Z</time>
      </trkpt>
      <trkpt lat="42.21953" lon="22.4727">
        <ele>1138.126908</ele>
        <time>2022-04-09T10:38:30.190Z</time>
      </trkpt>
      <trkpt lat="42.21944" lon="22.47265">
        <ele>1139.086231</ele>
        <time>2022-04-09T10:38:38.189Z</time>
      </trkpt>
      <trkpt lat="42.21935" lon="22.4726">
        <ele>1140.011919</ele>
        <time>2022-04-09T10:38:45.195Z</time>
      </trkpt>
      <trkpt lat="42.21927" lon="22.47254">
        <ele>1140.890985</ele>
        <time>2022-04-09T10:38:52.202Z</time>
      </trkpt>
      <trkpt lat="42.21918" lon="22.47251">
        <ele>1141.832574</ele>
        <time>2022-04-09T10:39:00.181Z</time>
      </trkpt>
      <trkpt lat="42.21908" lon="22.47246">
        <ele>1142.854532</ele>
        <time>2022-04-09T10:39:09.184Z</time>
      </trkpt>
      <trkpt lat="42.21899" lon="22.47241">
        <ele>1143.813856</ele>
        <time>2022-04-09T10:39:17.179Z</time>
      </trkpt>
      <trkpt lat="42.2189" lon="22.47236">
        <ele>1144.787699</ele>
        <time>2022-04-09T10:39:25.173Z</time>
      </trkpt>
      <trkpt lat="42.2188" lon="22.47232">
        <ele>1145.780845</ele>
        <time>2022-04-09T10:39:32.213Z</time>
      </trkpt>
      <trkpt lat="42.21872" lon="22.47227">
        <ele>1146.68399</ele>
        <time>2022-04-09T10:39:39.185Z</time>
      </trkpt>
      <trkpt lat="42.21863" lon="22.47222">
        <ele>1147.10516</ele>
        <time>2022-04-09T10:39:46.185Z</time>
      </trkpt>
      <trkpt lat="42.21856" lon="22.47215">
        <ele>1147.203014</ele>
        <time>2022-04-09T10:39:52.184Z</time>
      </trkpt>
      <trkpt lat="42.21847" lon="22.47208">
        <ele>1147.312497</ele>
        <time>2022-04-09T10:39:59.188Z</time>
      </trkpt>
      <trkpt lat="42.21838" lon="22.47203">
        <ele>1147.416253</ele>
        <time>2022-04-09T10:40:07.237Z</time>
      </trkpt>
      <trkpt lat="42.21829" lon="22.47199">
        <ele>1147.51824</ele>
        <time>2022-04-09T10:40:14.194Z</time>
      </trkpt>
      <trkpt lat="42.21821" lon="22.47194">
        <ele>1147.620679</ele>
        <time>2022-04-09T10:40:21.205Z</time>
      </trkpt>
      <trkpt lat="42.21812" lon="22.47189">
        <ele>1147.723965</ele>
        <time>2022-04-09T10:40:28.179Z</time>
      </trkpt>
      <trkpt lat="42.21802" lon="22.47186">
        <ele>1147.831768</ele>
        <time>2022-04-09T10:40:35.175Z</time>
      </trkpt>
      <trkpt lat="42.21793" lon="22.47182">
        <ele>1147.941729</ele>
        <time>2022-04-09T10:40:44.194Z</time>
      </trkpt>
      <trkpt lat="42.21784" lon="22.47176">
        <ele>1148.05242</ele>
        <time>2022-04-09T10:40:52.189Z</time>
      </trkpt>
      <trkpt lat="42.21774" lon="22.47169">
        <ele>1148.164531</ele>
        <time>2022-04-09T10:41:01.205Z</time>
      </trkpt>
      <trkpt lat="42.21766" lon="22.47166">
        <ele>1148.262628</ele>
        <time>2022-04-09T10:41:06.191Z</time>
      </trkpt>
      <trkpt lat="42.21757" lon="22.47161">
        <ele>1148.363074</ele>
        <time>2022-04-09T10:41:13.218Z</time>
      </trkpt>
      <trkpt lat="42.21749" lon="22.47156">
        <ele>1148.463313</ele>
        <time>2022-04-09T10:41:20.195Z</time>
      </trkpt>
      <trkpt lat="42.2174" lon="22.47149">
        <ele>1148.572035</ele>
        <time>2022-04-09T10:41:28.191Z</time>
      </trkpt>
      <trkpt lat="42.21732" lon="22.47141">
        <ele>1148.680639</ele>
        <time>2022-04-09T10:41:36.181Z</time>
      </trkpt>
      <trkpt lat="42.21725" lon="22.47133">
        <ele>1148.780831</ele>
        <time>2022-04-09T10:41:43.180Z</time>
      </trkpt>
      <trkpt lat="42.21718" lon="22.47125">
        <ele>1148.880845</ele>
        <time>2022-04-09T10:41:49.193Z</time>
      </trkpt>
      <trkpt lat="42.21711" lon="22.47116">
        <ele>1148.983941</ele>
        <time>2022-04-09T10:41:56.204Z</time>
      </trkpt>
      <trkpt lat="42.21707" lon="22.47105">
        <ele>1149.963104</ele>
        <time>2022-04-09T10:42:03.193Z</time>
      </trkpt>
      <trkpt lat="42.21703" lon="22.47094">
        <ele>1151.083906</ele>
        <time>2022-04-09T10:42:10.203Z</time>
      </trkpt>
      <trkpt lat="42.21699" lon="22.47082">
        <ele>1152.188476</ele>
        <time>2022-04-09T10:42:17.181Z</time>
      </trkpt>
      <trkpt lat="42.21697" lon="22.4707">
        <ele>1153.359323</ele>
        <time>2022-04-09T10:42:25.185Z</time>
      </trkpt>
      <trkpt lat="42.21695" lon="22.47057">
        <ele>1154.532746</ele>
        <time>2022-04-09T10:42:33.175Z</time>
      </trkpt>
      <trkpt lat="42.21696" lon="22.47043">
        <ele>1155.779036</ele>
        <time>2022-04-09T10:42:41.189Z</time>
      </trkpt>
      <trkpt lat="42.21696" lon="22.4703">
        <ele>1156.865151</ele>
        <time>2022-04-09T10:42:48.229Z</time>
      </trkpt>
      <trkpt lat="42.21697" lon="22.47018">
        <ele>1157.969359</ele>
        <time>2022-04-09T10:42:55.175Z</time>
      </trkpt>
      <trkpt lat="42.21697" lon="22.47005">
        <ele>1159.127411</ele>
        <time>2022-04-09T10:43:02.200Z</time>
      </trkpt>
      <trkpt lat="42.21698" lon="22.46991">
        <ele>1160.395249</ele>
        <time>2022-04-09T10:43:10.260Z</time>
      </trkpt>
      <trkpt lat="42.217" lon="22.46978">
        <ele>1161.531096</ele>
        <time>2022-04-09T10:43:17.187Z</time>
      </trkpt>
      <trkpt lat="42.21703" lon="22.46966">
        <ele>1162.69268</ele>
        <time>2022-04-09T10:43:24.200Z</time>
      </trkpt>
      <trkpt lat="42.21708" lon="22.46955">
        <ele>1163.791871</ele>
        <time>2022-04-09T10:43:31.183Z</time>
      </trkpt>
      <trkpt lat="42.21711" lon="22.46943">
        <ele>1164.93541</ele>
        <time>2022-04-09T10:43:39.185Z</time>
      </trkpt>
      <trkpt lat="42.21716" lon="22.46932">
        <ele>1166.079433</ele>
        <time>2022-04-09T10:43:47.180Z</time>
      </trkpt>
      <trkpt lat="42.21722" lon="22.46922">
        <ele>1167.20238</ele>
        <time>2022-04-09T10:43:55.191Z</time>
      </trkpt>
      <trkpt lat="42.21726" lon="22.46911">
        <ele>1168.305306</ele>
        <time>2022-04-09T10:44:02.185Z</time>
      </trkpt>
      <trkpt lat="42.21731" lon="22.46901">
        <ele>1169.435771</ele>
        <time>2022-04-09T10:44:12.227Z</time>
      </trkpt>
      <trkpt lat="42.21737" lon="22.46891">
        <ele>1170.551707</ele>
        <time>2022-04-09T10:44:19.205Z</time>
      </trkpt>
      <trkpt lat="42.21743" lon="22.4688">
        <ele>1170.901136</ele>
        <time>2022-04-09T10:44:27.178Z</time>
      </trkpt>
      <trkpt lat="42.21748" lon="22.46869">
        <ele>1171.215781</ele>
        <time>2022-04-09T10:44:35.186Z</time>
      </trkpt>
      <trkpt lat="42.21753" lon="22.46858">
        <ele>1171.512464</ele>
        <time>2022-04-09T10:44:43.210Z</time>
      </trkpt>
      <trkpt lat="42.21758" lon="22.46848">
        <ele>1171.802581</ele>
        <time>2022-04-09T10:44:51.196Z</time>
      </trkpt>
      <trkpt lat="42.21763" lon="22.46838">
        <ele>1172.089133</ele>
        <time>2022-04-09T10:44:58.229Z</time>
      </trkpt>
      <trkpt lat="42.2177" lon="22.46827">
        <ele>1172.407565</ele>
        <time>2022-04-09T10:45:06.228Z</time>
      </trkpt>
      <trkpt lat="42.21775" lon="22.46816">
        <ele>1172.714426</ele>
        <time>2022-04-09T10:45:13.195Z</time>
      </trkpt>
      <trkpt lat="42.21782" lon="22.46806">
        <ele>1173.029068</ele>
        <time>2022-04-09T10:45:21.195Z</time>
      </trkpt>
      <trkpt lat="42.21788" lon="22.46796">
        <ele>1173.334056</ele>
        <time>2022-04-09T10:45:28.172Z</time>
      </trkpt>
      <trkpt lat="42.21794" lon="22.46787">
        <ele>1173.622732</ele>
        <time>2022-04-09T10:45:35.188Z</time>
      </trkpt>
      <trkpt lat="42.21802" lon="22.46777">
        <ele>1173.944446</ele>
        <time>2022-04-09T10:45:42.213Z</time>
      </trkpt>
      <trkpt lat="42.21808" lon="22.46768">
        <ele>1174.238335</ele>
        <time>2022-04-09T10:45:49.189Z</time>
      </trkpt>
      <trkpt lat="42.21814" lon="22.46759">
        <ele>1174.53491</ele>
        <time>2022-04-09T10:45:56.207Z</time>
      </trkpt>
      <trkpt lat="42.21819" lon="22.46748">
        <ele>1174.838758</ele>
        <time>2022-04-09T10:46:04.181Z</time>
      </trkpt>
      <trkpt lat="42.21826" lon="22.46738">
        <ele>1175.138857</ele>
        <time>2022-04-09T10:46:12.195Z</time>
      </trkpt>
      <trkpt lat="42.21831" lon="22.46726">
        <ele>1175.455877</ele>
        <time>2022-04-09T10:46:21.218Z</time>
      </trkpt>
      <trkpt lat="42.21836" lon="22.46715">
        <ele>1175.754405</ele>
        <time>2022-04-09T10:46:28.181Z</time>
      </trkpt>
      <trkpt lat="42.21841" lon="22.46705">
        <ele>1176.042726</ele>
        <time>2022-04-09T10:46:36.194Z</time>
      </trkpt>
      <trkpt lat="42.21845" lon="22.46694">
        <ele>1176.453252</ele>
        <time>2022-04-09T10:46:44.183Z</time>
      </trkpt>
      <trkpt lat="42.2185" lon="22.46683">
        <ele>1177.471108</ele>
        <time>2022-04-09T10:46:52.184Z</time>
      </trkpt>
      <trkpt lat="42.21854" lon="22.46672">
        <ele>1178.439028</ele>
        <time>2022-04-09T10:46:59.196Z</time>
      </trkpt>
      <trkpt lat="42.2186" lon="22.46662">
        <ele>1179.429349</ele>
        <time>2022-04-09T10:47:07.204Z</time>
      </trkpt>
      <trkpt lat="42.21866" lon="22.46653">
        <ele>1180.38976</ele>
        <time>2022-04-09T10:47:15.194Z</time>
      </trkpt>
      <trkpt lat="42.2187" lon="22.46642">
        <ele>1181.362335</ele>
        <time>2022-04-09T10:47:23.175Z</time>
      </trkpt>
      <trkpt lat="42.21874" lon="22.46631">
        <ele>1182.340017</ele>
        <time>2022-04-09T10:47:31.175Z</time>
      </trkpt>
      <trkpt lat="42.21881" lon="22.46621">
        <ele>1183.35908</ele>
        <time>2022-04-09T10:47:38.203Z</time>
      </trkpt>
      <trkpt lat="42.21887" lon="22.46611">
        <ele>1184.411165</ele>
        <time>2022-04-09T10:47:46.190Z</time>
      </trkpt>
      <trkpt lat="42.21892" lon="22.46599">
        <ele>1185.446199</ele>
        <time>2022-04-09T10:47:55.237Z</time>
      </trkpt>
      <trkpt lat="42.21894" lon="22.46586">
        <ele>1186.468153</ele>
        <time>2022-04-09T10:48:03.204Z</time>
      </trkpt>
      <trkpt lat="42.21896" lon="22.46572">
        <ele>1187.565947</ele>
        <time>2022-04-09T10:48:11.226Z</time>
      </trkpt>
      <trkpt lat="42.21899" lon="22.4656">
        <ele>1188.638685</ele>
        <time>2022-04-09T10:48:18.249Z</time>
      </trkpt>
      <trkpt lat="42.21901" lon="22.46548">
        <ele>1189.607196</ele>
        <time>2022-04-09T10:48:25.188Z</time>
      </trkpt>
      <trkpt lat="42.21904" lon="22.46534">
        <ele>1190.659564</ele>
        <time>2022-04-09T10:48:33.187Z</time>
      </trkpt>
      <trkpt lat="42.21906" lon="22.46522">
        <ele>1191.69</ele>
        <time>2022-04-09T10:48:41.195Z</time>
      </trkpt>
      <trkpt lat="42.21905" lon="22.46508">
        <ele>1192.72501</ele>
        <time>2022-04-09T10:48:50.182Z</time>
      </trkpt>
      <trkpt lat="42.21906" lon="22.46495">
        <ele>1193.790249</ele>
        <time>2022-04-09T10:48:58.177Z</time>
      </trkpt>
      <trkpt lat="42.21907" lon="22.46482">
        <ele>1194.833088</ele>
        <time>2022-04-09T10:49:06.192Z</time>
      </trkpt>
      <trkpt lat="42.21906" lon="22.46469">
        <ele>1195.5245</ele>
        <time>2022-04-09T10:49:14.194Z</time>
      </trkpt>
      <trkpt lat="42.21908" lon="22.46457">
        <ele>1195.944383</ele>
        <time>2022-04-09T10:49:21.205Z</time>
      </trkpt>
      <trkpt lat="42.21909" lon="22.46444">
        <ele>1196.375186</ele>
        <time>2022-04-09T10:49:28.184Z</time>
      </trkpt>
      <trkpt lat="42.21909" lon="22.46431">
        <ele>1196.82166</ele>
        <time>2022-04-09T10:49:35.191Z</time>
      </trkpt>
      <trkpt lat="42.21908" lon="22.46419">
        <ele>1197.245301</ele>
        <time>2022-04-09T10:49:42.166Z</time>
      </trkpt>
      <trkpt lat="42.21908" lon="22.46406">
        <ele>1197.667741</ele>
        <time>2022-04-09T10:49:50.194Z</time>
      </trkpt>
      <trkpt lat="42.21906" lon="22.46394">
        <ele>1198.084473</ele>
        <time>2022-04-09T10:49:56.212Z</time>
      </trkpt>
      <trkpt lat="42.21901" lon="22.46384">
        <ele>1198.522754</ele>
        <time>2022-04-09T10:50:03.199Z</time>
      </trkpt>
      <trkpt lat="42.21898" lon="22.4637">
        <ele>1198.989085</ele>
        <time>2022-04-09T10:50:10.185Z</time>
      </trkpt>
      <trkpt lat="42.21896" lon="22.46357">
        <ele>1199.446677</ele>
        <time>2022-04-09T10:50:16.209Z</time>
      </trkpt>
      <trkpt lat="42.21894" lon="22.46345">
        <ele>1199.879621</ele>
        <time>2022-04-09T10:50:23.188Z</time>
      </trkpt>
      <trkpt lat="42.21897" lon="22.46333">
        <ele>1200.30075</ele>
        <time>2022-04-09T10:50:32.223Z</time>
      </trkpt>
      <trkpt lat="42.21902" lon="22.46321">
        <ele>1200.770878</ele>
        <time>2022-04-09T10:50:40.179Z</time>
      </trkpt>
      <trkpt lat="42.21904" lon="22.46308">
        <ele>1201.226195</ele>
        <time>2022-04-09T10:50:49.170Z</time>
      </trkpt>
      <trkpt lat="42.21912" lon="22.46294">
        <ele>1201.828581</ele>
        <time>2022-04-09T10:51:22.208Z</time>
      </trkpt>
      <trkpt lat="42.21913" lon="22.4628">
        <ele>1202.309458</ele>
        <time>2022-04-09T10:51:29.183Z</time>
      </trkpt>
      <trkpt lat="42.21912" lon="22.46267">
        <ele>1202.753172</ele>
        <time>2022-04-09T10:51:35.183Z</time>
      </trkpt>
      <trkpt lat="42.2191" lon="22.46255">
        <ele>1203.180917</ele>
        <time>2022-04-09T10:51:41.190Z</time>
      </trkpt>
      <trkpt lat="42.2191" lon="22.46241">
        <ele>1203.586146</ele>
        <time>2022-04-09T10:51:49.189Z</time>
      </trkpt>
      <trkpt lat="42.2191" lon="22.46228">
        <ele>1203.697031</ele>
        <time>2022-04-09T10:51:56.192Z</time>
      </trkpt>
      <trkpt lat="42.21911" lon="22.46216">
        <ele>1203.801719</ele>
        <time>2022-04-09T10:52:02.239Z</time>
      </trkpt>
      <trkpt lat="42.2191" lon="22.46204">
        <ele>1203.90837</ele>
        <time>2022-04-09T10:52:10.189Z</time>
      </trkpt>
      <trkpt lat="42.21909" lon="22.46192">
        <ele>1204.012142</ele>
        <time>2022-04-09T10:52:17.201Z</time>
      </trkpt>
      <trkpt lat="42.21908" lon="22.46179">
        <ele>1204.122657</ele>
        <time>2022-04-09T10:52:25.180Z</time>
      </trkpt>
      <trkpt lat="42.21907" lon="22.46165">
        <ele>1204.237535</ele>
        <time>2022-04-09T10:52:32.183Z</time>
      </trkpt>
      <trkpt lat="42.21906" lon="22.46152">
        <ele>1204.353282</ele>
        <time>2022-04-09T10:52:39.197Z</time>
      </trkpt>
      <trkpt lat="42.21906" lon="22.46139">
        <ele>1204.464849</ele>
        <time>2022-04-09T10:52:46.197Z</time>
      </trkpt>
      <trkpt lat="42.21905" lon="22.46126">
        <ele>1204.570652</ele>
        <time>2022-04-09T10:52:52.200Z</time>
      </trkpt>
      <trkpt lat="42.21904" lon="22.46114">
        <ele>1204.680186</ele>
        <time>2022-04-09T10:52:59.187Z</time>
      </trkpt>
      <trkpt lat="42.21903" lon="22.46101">
        <ele>1204.786942</ele>
        <time>2022-04-09T10:53:07.163Z</time>
      </trkpt>
      <trkpt lat="42.21905" lon="22.46088">
        <ele>1204.896724</ele>
        <time>2022-04-09T10:53:15.229Z</time>
      </trkpt>
      <trkpt lat="42.21909" lon="22.46077">
        <ele>1205.000391</ele>
        <time>2022-04-09T10:53:22.189Z</time>
      </trkpt>
      <trkpt lat="42.21929" lon="22.46035">
        <ele>1205.431441</ele>
        <time>2022-04-09T10:54:46.202Z</time>
      </trkpt>
      <trkpt lat="42.21931" lon="22.46021">
        <ele>1205.549161</ele>
        <time>2022-04-09T10:54:52.180Z</time>
      </trkpt>
      <trkpt lat="42.21942" lon="22.45976">
        <ele>1205.893065</ele>
        <time>2022-04-09T10:58:54.196Z</time>
      </trkpt>
      <trkpt lat="42.21944" lon="22.45963">
        <ele>1205.987269</ele>
        <time>2022-04-09T10:58:57.177Z</time>
      </trkpt>
      <trkpt lat="42.21951" lon="22.45952">
        <ele>1206.088998</ele>
        <time>2022-04-09T10:59:02.164Z</time>
      </trkpt>
      <trkpt lat="42.21961" lon="22.45946">
        <ele>1206.18622</ele>
        <time>2022-04-09T10:59:07.174Z</time>
      </trkpt>
      <trkpt lat="42.21971" lon="22.45941">
        <ele>1206.287758</ele>
        <time>2022-04-09T10:59:11.170Z</time>
      </trkpt>
      <trkpt lat="42.21979" lon="22.45933">
        <ele>1206.380662</ele>
        <time>2022-04-09T10:59:14.177Z</time>
      </trkpt>
      <trkpt lat="42.21987" lon="22.45928">
        <ele>1206.467164</ele>
        <time>2022-04-09T10:59:17.192Z</time>
      </trkpt>
      <trkpt lat="42.21996" lon="22.45922">
        <ele>1206.556682</ele>
        <time>2022-04-09T10:59:20.216Z</time>
      </trkpt>
      <trkpt lat="42.22006" lon="22.4592">
        <ele>1206.650355</ele>
        <time>2022-04-09T10:59:23.189Z</time>
      </trkpt>
      <trkpt lat="42.22016" lon="22.4592">
        <ele>1206.743209</ele>
        <time>2022-04-09T10:59:26.164Z</time>
      </trkpt>
      <trkpt lat="42.22025" lon="22.4592">
        <ele>1206.828571</ele>
        <time>2022-04-09T10:59:29.182Z</time>
      </trkpt>
      <trkpt lat="42.22035" lon="22.45919">
        <ele>1206.922796</ele>
        <time>2022-04-09T10:59:33.210Z</time>
      </trkpt>
      <trkpt lat="42.22044" lon="22.45917">
        <ele>1207.012588</ele>
        <time>2022-04-09T10:59:39.162Z</time>
      </trkpt>
      <trkpt lat="42.22089" lon="22.45873">
        <ele>1206.571405</ele>
        <time>2022-04-09T11:15:35.178Z</time>
      </trkpt>
      <trkpt lat="42.22099" lon="22.45868">
        <ele>1206.242419</ele>
        <time>2022-04-09T11:15:37.181Z</time>
      </trkpt>
      <trkpt lat="42.22109" lon="22.45864">
        <ele>1205.899835</ele>
        <time>2022-04-09T11:15:40.198Z</time>
      </trkpt>
      <trkpt lat="42.22119" lon="22.45856">
        <ele>1205.513018</ele>
        <time>2022-04-09T11:15:44.163Z</time>
      </trkpt>
      <trkpt lat="42.22123" lon="22.45842">
        <ele>1205.151003</ele>
        <time>2022-04-09T11:15:48.175Z</time>
      </trkpt>
      <trkpt lat="42.22127" lon="22.45831">
        <ele>1204.851477</ele>
        <time>2022-04-09T11:15:54.174Z</time>
      </trkpt>
      <trkpt lat="42.22133" lon="22.45811">
        <ele>1204.334786</ele>
        <time>2022-04-09T11:21:36.183Z</time>
      </trkpt>
      <trkpt lat="42.22137" lon="22.45796">
        <ele>1203.947111</ele>
        <time>2022-04-09T11:21:40.186Z</time>
      </trkpt>
      <trkpt lat="42.22139" lon="22.45784">
        <ele>1203.642507</ele>
        <time>2022-04-09T11:21:43.185Z</time>
      </trkpt>
      <trkpt lat="42.2214" lon="22.4577">
        <ele>1203.304517</ele>
        <time>2022-04-09T11:21:46.229Z</time>
      </trkpt>
      <trkpt lat="42.2214" lon="22.45754">
        <ele>1202.918835</ele>
        <time>2022-04-09T11:21:49.199Z</time>
      </trkpt>
      <trkpt lat="42.22139" lon="22.45736">
        <ele>1202.491548</ele>
        <time>2022-04-09T11:21:52.190Z</time>
      </trkpt>
      <trkpt lat="42.22137" lon="22.45718">
        <ele>1202.04873</ele>
        <time>2022-04-09T11:21:55.180Z</time>
      </trkpt>
      <trkpt lat="42.22134" lon="22.45706">
        <ele>1201.73397</ele>
        <time>2022-04-09T11:21:57.241Z</time>
      </trkpt>
      <trkpt lat="42.2213" lon="22.45693">
        <ele>1201.377513</ele>
        <time>2022-04-09T11:21:59.205Z</time>
      </trkpt>
      <trkpt lat="42.22125" lon="22.4568">
        <ele>1200.804961</ele>
        <time>2022-04-09T11:22:01.195Z</time>
      </trkpt>
      <trkpt lat="42.22119" lon="22.45667">
        <ele>1200.210485</ele>
        <time>2022-04-09T11:22:03.186Z</time>
      </trkpt>
      <trkpt lat="42.22113" lon="22.45654">
        <ele>1199.643546</ele>
        <time>2022-04-09T11:22:05.210Z</time>
      </trkpt>
      <trkpt lat="42.22107" lon="22.45644">
        <ele>1199.088803</ele>
        <time>2022-04-09T11:22:07.211Z</time>
      </trkpt>
      <trkpt lat="42.22099" lon="22.45634">
        <ele>1198.525776</ele>
        <time>2022-04-09T11:22:09.185Z</time>
      </trkpt>
      <trkpt lat="42.2209" lon="22.45624">
        <ele>1197.928936</ele>
        <time>2022-04-09T11:22:11.190Z</time>
      </trkpt>
      <trkpt lat="42.22081" lon="22.45614">
        <ele>1197.332757</ele>
        <time>2022-04-09T11:22:13.229Z</time>
      </trkpt>
      <trkpt lat="42.22071" lon="22.45606">
        <ele>1196.723014</ele>
        <time>2022-04-09T11:22:15.271Z</time>
      </trkpt>
      <trkpt lat="42.2206" lon="22.45599">
        <ele>1196.111292</ele>
        <time>2022-04-09T11:22:17.184Z</time>
      </trkpt>
      <trkpt lat="42.2205" lon="22.45593">
        <ele>1195.536464</ele>
        <time>2022-04-09T11:22:19.207Z</time>
      </trkpt>
      <trkpt lat="42.2204" lon="22.45588">
        <ele>1194.983534</ele>
        <time>2022-04-09T11:22:21.213Z</time>
      </trkpt>
      <trkpt lat="42.22031" lon="22.45583">
        <ele>1194.446024</ele>
        <time>2022-04-09T11:22:23.200Z</time>
      </trkpt>
      <trkpt lat="42.22021" lon="22.45578">
        <ele>1193.900338</ele>
        <time>2022-04-09T11:22:25.203Z</time>
      </trkpt>
      <trkpt lat="42.2201" lon="22.45574">
        <ele>1193.321027</ele>
        <time>2022-04-09T11:22:27.200Z</time>
      </trkpt>
      <trkpt lat="42.22" lon="22.45569">
        <ele>1192.759253</ele>
        <time>2022-04-09T11:22:29.181Z</time>
      </trkpt>
      <trkpt lat="42.21989" lon="22.45564">
        <ele>1192.16387</ele>
        <time>2022-04-09T11:22:31.183Z</time>
      </trkpt>
      <trkpt lat="42.21978" lon="22.45559">
        <ele>1191.507783</ele>
        <time>2022-04-09T11:22:33.199Z</time>
      </trkpt>
      <trkpt lat="42.21965" lon="22.45555">
        <ele>1190.821103</ele>
        <time>2022-04-09T11:22:35.303Z</time>
      </trkpt>
      <trkpt lat="42.21954" lon="22.4555">
        <ele>1190.189547</ele>
        <time>2022-04-09T11:22:37.211Z</time>
      </trkpt>
      <trkpt lat="42.21941" lon="22.45545">
        <ele>1189.505408</ele>
        <time>2022-04-09T11:22:39.186Z</time>
      </trkpt>
      <trkpt lat="42.21929" lon="22.45539">
        <ele>1188.812549</ele>
        <time>2022-04-09T11:22:41.189Z</time>
      </trkpt>
      <trkpt lat="42.21917" lon="22.45533">
        <ele>1188.13966</ele>
        <time>2022-04-09T11:22:43.189Z</time>
      </trkpt>
      <trkpt lat="42.21906" lon="22.45526">
        <ele>1187.463466</ele>
        <time>2022-04-09T11:22:45.191Z</time>
      </trkpt>
      <trkpt lat="42.21894" lon="22.45517">
        <ele>1186.734843</ele>
        <time>2022-04-09T11:22:47.198Z</time>
      </trkpt>
      <trkpt lat="42.21883" lon="22.45506">
        <ele>1186.023383</ele>
        <time>2022-04-09T11:22:49.187Z</time>
      </trkpt>
      <trkpt lat="42.21872" lon="22.45493">
        <ele>1185.244851</ele>
        <time>2022-04-09T11:22:51.196Z</time>
      </trkpt>
      <trkpt lat="42.21862" lon="22.45477">
        <ele>1184.445613</ele>
        <time>2022-04-09T11:22:53.201Z</time>
      </trkpt>
      <trkpt lat="42.21854" lon="22.4546">
        <ele>1183.621557</ele>
        <time>2022-04-09T11:22:55.191Z</time>
      </trkpt>
      <trkpt lat="42.21847" lon="22.45439">
        <ele>1182.752875</ele>
        <time>2022-04-09T11:22:57.229Z</time>
      </trkpt>
      <trkpt lat="42.21843" lon="22.45419">
        <ele>1181.697201</ele>
        <time>2022-04-09T11:22:59.187Z</time>
      </trkpt>
      <trkpt lat="42.2184" lon="22.454">
        <ele>1180.631167</ele>
        <time>2022-04-09T11:23:01.187Z</time>
      </trkpt>
      <trkpt lat="42.21839" lon="22.4538">
        <ele>1179.581419</ele>
        <time>2022-04-09T11:23:03.184Z</time>
      </trkpt>
      <trkpt lat="42.21838" lon="22.45361">
        <ele>1178.552261</ele>
        <time>2022-04-09T11:23:05.232Z</time>
      </trkpt>
      <trkpt lat="42.21837" lon="22.45343">
        <ele>1177.586467</ele>
        <time>2022-04-09T11:23:07.179Z</time>
      </trkpt>
      <trkpt lat="42.21836" lon="22.45327">
        <ele>1176.695068</ele>
        <time>2022-04-09T11:23:09.211Z</time>
      </trkpt>
      <trkpt lat="42.21834" lon="22.4531">
        <ele>1175.762109</ele>
        <time>2022-04-09T11:23:11.230Z</time>
      </trkpt>
      <trkpt lat="42.21831" lon="22.45293">
        <ele>1174.786349</ele>
        <time>2022-04-09T11:23:13.185Z</time>
      </trkpt>
      <trkpt lat="42.21827" lon="22.45275">
        <ele>1173.821992</ele>
        <time>2022-04-09T11:23:15.193Z</time>
      </trkpt>
      <trkpt lat="42.21822" lon="22.45259">
        <ele>1172.842509</ele>
        <time>2022-04-09T11:23:17.208Z</time>
      </trkpt>
      <trkpt lat="42.21815" lon="22.45244">
        <ele>1171.899607</ele>
        <time>2022-04-09T11:23:19.192Z</time>
      </trkpt>
      <trkpt lat="42.21808" lon="22.4523">
        <ele>1170.990239</ele>
        <time>2022-04-09T11:23:21.185Z</time>
      </trkpt>
      <trkpt lat="42.218" lon="22.45219">
        <ele>1170.151805</ele>
        <time>2022-04-09T11:23:23.196Z</time>
      </trkpt>
      <trkpt lat="42.21791" lon="22.45208">
        <ele>1169.28819</ele>
        <time>2022-04-09T11:23:26.217Z</time>
      </trkpt>
      <trkpt lat="42.21784" lon="22.452">
        <ele>1168.521813</ele>
        <time>2022-04-09T11:23:29.211Z</time>
      </trkpt>
      <trkpt lat="42.21772" lon="22.4519">
        <ele>1167.371364</ele>
        <time>2022-04-09T11:23:32.207Z</time>
      </trkpt>
      <trkpt lat="42.21762" lon="22.45183">
        <ele>1166.47427</ele>
        <time>2022-04-09T11:23:34.231Z</time>
      </trkpt>
      <trkpt lat="42.21752" lon="22.45179">
        <ele>1165.591476</ele>
        <time>2022-04-09T11:23:36.201Z</time>
      </trkpt>
      <trkpt lat="42.2174" lon="22.45178">
        <ele>1164.642808</ele>
        <time>2022-04-09T11:23:38.208Z</time>
      </trkpt>
      <trkpt lat="42.21726" lon="22.45176">
        <ele>1163.513801</ele>
        <time>2022-04-09T11:23:40.199Z</time>
      </trkpt>
      <trkpt lat="42.21711" lon="22.45172">
        <ele>1162.264186</ele>
        <time>2022-04-09T11:23:42.200Z</time>
      </trkpt>
      <trkpt lat="42.21695" lon="22.45168">
        <ele>1160.946578</ele>
        <time>2022-04-09T11:23:44.197Z</time>
      </trkpt>
      <trkpt lat="42.2168" lon="22.45161">
        <ele>1159.655171</ele>
        <time>2022-04-09T11:23:46.194Z</time>
      </trkpt>
      <trkpt lat="42.21665" lon="22.45151">
        <ele>1158.314803</ele>
        <time>2022-04-09T11:23:48.198Z</time>
      </trkpt>
      <trkpt lat="42.21654" lon="22.45135">
        <ele>1157.012378</ele>
        <time>2022-04-09T11:23:50.195Z</time>
      </trkpt>
      <trkpt lat="42.21646" lon="22.45115">
        <ele>1155.641089</ele>
        <time>2022-04-09T11:23:52.221Z</time>
      </trkpt>
      <trkpt lat="42.21643" lon="22.45092">
        <ele>1154.371261</ele>
        <time>2022-04-09T11:23:54.189Z</time>
      </trkpt>
      <trkpt lat="42.21643" lon="22.4507">
        <ele>1153.320652</ele>
        <time>2022-04-09T11:23:56.208Z</time>
      </trkpt>
      <trkpt lat="42.21651" lon="22.45051">
        <ele>1152.254464</ele>
        <time>2022-04-09T11:23:58.221Z</time>
      </trkpt>
      <trkpt lat="42.21664" lon="22.45034">
        <ele>1151.068899</ele>
        <time>2022-04-09T11:24:00.192Z</time>
      </trkpt>
      <trkpt lat="42.21671" lon="22.45026">
        <ele>1150.463874</ele>
        <time>2022-04-09T11:24:01.223Z</time>
      </trkpt>
      <trkpt lat="42.21687" lon="22.45016">
        <ele>1149.367373</ele>
        <time>2022-04-09T11:24:03.201Z</time>
      </trkpt>
      <trkpt lat="42.21704" lon="22.45013">
        <ele>1148.253722</ele>
        <time>2022-04-09T11:24:05.184Z</time>
      </trkpt>
      <trkpt lat="42.21721" lon="22.45019">
        <ele>1147.107116</ele>
        <time>2022-04-09T11:24:07.174Z</time>
      </trkpt>
      <trkpt lat="42.21737" lon="22.45029">
        <ele>1145.945079</ele>
        <time>2022-04-09T11:24:09.187Z</time>
      </trkpt>
      <trkpt lat="42.21745" lon="22.45035">
        <ele>1145.355826</ele>
        <time>2022-04-09T11:24:10.221Z</time>
      </trkpt>
      <trkpt lat="42.21761" lon="22.45044">
        <ele>1144.23174</ele>
        <time>2022-04-09T11:24:12.193Z</time>
      </trkpt>
      <trkpt lat="42.21777" lon="22.45053">
        <ele>1143.094558</ele>
        <time>2022-04-09T11:24:14.194Z</time>
      </trkpt>
      <trkpt lat="42.21794" lon="22.45058">
        <ele>1142.162766</ele>
        <time>2022-04-09T11:24:16.214Z</time>
      </trkpt>
      <trkpt lat="42.2181" lon="22.45059">
        <ele>1141.302472</ele>
        <time>2022-04-09T11:24:18.200Z</time>
      </trkpt>
      <trkpt lat="42.21825" lon="22.45056">
        <ele>1140.467606</ele>
        <time>2022-04-09T11:24:20.179Z</time>
      </trkpt>
      <trkpt lat="42.2184" lon="22.45049">
        <ele>1139.578274</ele>
        <time>2022-04-09T11:24:22.241Z</time>
      </trkpt>
      <trkpt lat="42.21856" lon="22.45037">
        <ele>1138.626466</ele>
        <time>2022-04-09T11:24:24.203Z</time>
      </trkpt>
      <trkpt lat="42.21863" lon="22.4503">
        <ele>1138.124301</ele>
        <time>2022-04-09T11:24:25.199Z</time>
      </trkpt>
      <trkpt lat="42.2187" lon="22.45021">
        <ele>1137.605198</ele>
        <time>2022-04-09T11:24:26.196Z</time>
      </trkpt>
      <trkpt lat="42.21876" lon="22.45011">
        <ele>1137.091439</ele>
        <time>2022-04-09T11:24:27.197Z</time>
      </trkpt>
      <trkpt lat="42.21882" lon="22.45001">
        <ele>1136.576529</ele>
        <time>2022-04-09T11:24:28.184Z</time>
      </trkpt>
      <trkpt lat="42.2189" lon="22.44981">
        <ele>1135.644792</ele>
        <time>2022-04-09T11:24:30.201Z</time>
      </trkpt>
      <trkpt lat="42.21894" lon="22.44959">
        <ele>1134.738588</ele>
        <time>2022-04-09T11:24:32.202Z</time>
      </trkpt>
      <trkpt lat="42.21893" lon="22.44935">
        <ele>1133.77751</ele>
        <time>2022-04-09T11:24:34.188Z</time>
      </trkpt>
      <trkpt lat="42.21889" lon="22.44911">
        <ele>1132.641465</ele>
        <time>2022-04-09T11:24:36.207Z</time>
      </trkpt>
      <trkpt lat="42.21885" lon="22.449">
        <ele>1132.049768</ele>
        <time>2022-04-09T11:24:37.221Z</time>
      </trkpt>
      <trkpt lat="42.21877" lon="22.4488">
        <ele>1130.933724</ele>
        <time>2022-04-09T11:24:39.227Z</time>
      </trkpt>
      <trkpt lat="42.21864" lon="22.44863">
        <ele>1129.771704</ele>
        <time>2022-04-09T11:24:41.204Z</time>
      </trkpt>
      <trkpt lat="42.21851" lon="22.44848">
        <ele>1128.612215</ele>
        <time>2022-04-09T11:24:43.170Z</time>
      </trkpt>
      <trkpt lat="42.21837" lon="22.44834">
        <ele>1127.459868</ele>
        <time>2022-04-09T11:24:45.181Z</time>
      </trkpt>
      <trkpt lat="42.21829" lon="22.44827">
        <ele>1126.83636</ele>
        <time>2022-04-09T11:24:46.185Z</time>
      </trkpt>
      <trkpt lat="42.21821" lon="22.4482">
        <ele>1126.182089</ele>
        <time>2022-04-09T11:24:47.197Z</time>
      </trkpt>
      <trkpt lat="42.21812" lon="22.44812">
        <ele>1125.506155</ele>
        <time>2022-04-09T11:24:48.189Z</time>
      </trkpt>
      <trkpt lat="42.21804" lon="22.44805">
        <ele>1124.835801</ele>
        <time>2022-04-09T11:24:49.187Z</time>
      </trkpt>
      <trkpt lat="42.21796" lon="22.44798">
        <ele>1124.176549</ele>
        <time>2022-04-09T11:24:50.218Z</time>
      </trkpt>
      <trkpt lat="42.21788" lon="22.4479">
        <ele>1123.539255</ele>
        <time>2022-04-09T11:24:51.198Z</time>
      </trkpt>
      <trkpt lat="42.2178" lon="22.44782">
        <ele>1122.895906</ele>
        <time>2022-04-09T11:24:52.188Z</time>
      </trkpt>
      <trkpt lat="42.21772" lon="22.44774">
        <ele>1122.248013</ele>
        <time>2022-04-09T11:24:53.197Z</time>
      </trkpt>
      <trkpt lat="42.21765" lon="22.44765">
        <ele>1121.585665</ele>
        <time>2022-04-09T11:24:54.196Z</time>
      </trkpt>
      <trkpt lat="42.21758" lon="22.44756">
        <ele>1120.779143</ele>
        <time>2022-04-09T11:24:55.198Z</time>
      </trkpt>
      <trkpt lat="42.21751" lon="22.44747">
        <ele>1119.950352</ele>
        <time>2022-04-09T11:24:56.224Z</time>
      </trkpt>
      <trkpt lat="42.21746" lon="22.44736">
        <ele>1119.104054</ele>
        <time>2022-04-09T11:24:57.184Z</time>
      </trkpt>
      <trkpt lat="42.2174" lon="22.44725">
        <ele>1118.239401</ele>
        <time>2022-04-09T11:24:58.189Z</time>
      </trkpt>
      <trkpt lat="42.21736" lon="22.44713">
        <ele>1117.334069</ele>
        <time>2022-04-09T11:24:59.207Z</time>
      </trkpt>
      <trkpt lat="42.21731" lon="22.44699">
        <ele>1116.399188</ele>
        <time>2022-04-09T11:25:00.201Z</time>
      </trkpt>
      <trkpt lat="42.21727" lon="22.44686">
        <ele>1115.460541</ele>
        <time>2022-04-09T11:25:01.204Z</time>
      </trkpt>
      <trkpt lat="42.21725" lon="22.44673">
        <ele>1114.564242</ele>
        <time>2022-04-09T11:25:02.220Z</time>
      </trkpt>
      <trkpt lat="42.21723" lon="22.44659">
        <ele>1113.674237</ele>
        <time>2022-04-09T11:25:03.180Z</time>
      </trkpt>
      <trkpt lat="42.21722" lon="22.44646">
        <ele>1112.807571</ele>
        <time>2022-04-09T11:25:04.195Z</time>
      </trkpt>
      <trkpt lat="42.21721" lon="22.44633">
        <ele>1111.948939</ele>
        <time>2022-04-09T11:25:05.176Z</time>
      </trkpt>
      <trkpt lat="42.21722" lon="22.44619">
        <ele>1111.045868</ele>
        <time>2022-04-09T11:25:06.193Z</time>
      </trkpt>
      <trkpt lat="42.21725" lon="22.44605">
        <ele>1110.139204</ele>
        <time>2022-04-09T11:25:07.182Z</time>
      </trkpt>
      <trkpt lat="42.21728" lon="22.44592">
        <ele>1109.226791</ele>
        <time>2022-04-09T11:25:08.229Z</time>
      </trkpt>
      <trkpt lat="42.21732" lon="22.4458">
        <ele>1108.363945</ele>
        <time>2022-04-09T11:25:09.202Z</time>
      </trkpt>
      <trkpt lat="42.21736" lon="22.44568">
        <ele>1107.538247</ele>
        <time>2022-04-09T11:25:10.195Z</time>
      </trkpt>
      <trkpt lat="42.21741" lon="22.44557">
        <ele>1106.693859</ele>
        <time>2022-04-09T11:25:11.180Z</time>
      </trkpt>
      <trkpt lat="42.21746" lon="22.44547">
        <ele>1105.852318</ele>
        <time>2022-04-09T11:25:12.182Z</time>
      </trkpt>
      <trkpt lat="42.21753" lon="22.44536">
        <ele>1105.036693</ele>
        <time>2022-04-09T11:25:13.189Z</time>
      </trkpt>
      <trkpt lat="42.21759" lon="22.44527">
        <ele>1104.278242</ele>
        <time>2022-04-09T11:25:14.196Z</time>
      </trkpt>
      <trkpt lat="42.21766" lon="22.44518">
        <ele>1103.543903</ele>
        <time>2022-04-09T11:25:15.202Z</time>
      </trkpt>
      <trkpt lat="42.21773" lon="22.4451">
        <ele>1102.815301</ele>
        <time>2022-04-09T11:25:16.257Z</time>
      </trkpt>
      <trkpt lat="42.21781" lon="22.44502">
        <ele>1102.093179</ele>
        <time>2022-04-09T11:25:17.187Z</time>
      </trkpt>
      <trkpt lat="42.21788" lon="22.44495">
        <ele>1101.353469</ele>
        <time>2022-04-09T11:25:18.196Z</time>
      </trkpt>
      <trkpt lat="42.21796" lon="22.44488">
        <ele>1100.633268</ele>
        <time>2022-04-09T11:25:19.200Z</time>
      </trkpt>
      <trkpt lat="42.21804" lon="22.44482">
        <ele>1099.924584</ele>
        <time>2022-04-09T11:25:20.191Z</time>
      </trkpt>
      <trkpt lat="42.21819" lon="22.44472">
        <ele>1098.547107</ele>
        <time>2022-04-09T11:25:22.197Z</time>
      </trkpt>
      <trkpt lat="42.21836" lon="22.44464">
        <ele>1097.135478</ele>
        <time>2022-04-09T11:25:24.196Z</time>
      </trkpt>
      <trkpt lat="42.21854" lon="22.44458">
        <ele>1095.727772</ele>
        <time>2022-04-09T11:25:26.196Z</time>
      </trkpt>
      <trkpt lat="42.21863" lon="22.44456">
        <ele>1095.017433</ele>
        <time>2022-04-09T11:25:27.236Z</time>
      </trkpt>
      <trkpt lat="42.21872" lon="22.44455">
        <ele>1094.258876</ele>
        <time>2022-04-09T11:25:28.185Z</time>
      </trkpt>
      <trkpt lat="42.21882" lon="22.44454">
        <ele>1093.495688</ele>
        <time>2022-04-09T11:25:29.197Z</time>
      </trkpt>
      <trkpt lat="42.21892" lon="22.44455">
        <ele>1092.724643</ele>
        <time>2022-04-09T11:25:30.174Z</time>
      </trkpt>
      <trkpt lat="42.21902" lon="22.44456">
        <ele>1091.958262</ele>
        <time>2022-04-09T11:25:31.197Z</time>
      </trkpt>
      <trkpt lat="42.21911" lon="22.44459">
        <ele>1091.265775</ele>
        <time>2022-04-09T11:25:32.188Z</time>
      </trkpt>
      <trkpt lat="42.21921" lon="22.44462">
        <ele>1090.6872</ele>
        <time>2022-04-09T11:25:33.198Z</time>
      </trkpt>
      <trkpt lat="42.21929" lon="22.44468">
        <ele>1090.126197</ele>
        <time>2022-04-09T11:25:34.209Z</time>
      </trkpt>
      <trkpt lat="42.21938" lon="22.44474">
        <ele>1089.562615</ele>
        <time>2022-04-09T11:25:35.201Z</time>
      </trkpt>
      <trkpt lat="42.21946" lon="22.44481">
        <ele>1088.97327</ele>
        <time>2022-04-09T11:25:36.191Z</time>
      </trkpt>
      <trkpt lat="42.21954" lon="22.44489">
        <ele>1088.376761</ele>
        <time>2022-04-09T11:25:37.177Z</time>
      </trkpt>
      <trkpt lat="42.21962" lon="22.44497">
        <ele>1087.786546</ele>
        <time>2022-04-09T11:25:38.228Z</time>
      </trkpt>
      <trkpt lat="42.21969" lon="22.44506">
        <ele>1087.210974</ele>
        <time>2022-04-09T11:25:39.195Z</time>
      </trkpt>
      <trkpt lat="42.21976" lon="22.44516">
        <ele>1086.646928</ele>
        <time>2022-04-09T11:25:40.195Z</time>
      </trkpt>
      <trkpt lat="42.21982" lon="22.44526">
        <ele>1086.088307</ele>
        <time>2022-04-09T11:25:41.182Z</time>
      </trkpt>
      <trkpt lat="42.21988" lon="22.44537">
        <ele>1085.505746</ele>
        <time>2022-04-09T11:25:42.192Z</time>
      </trkpt>
      <trkpt lat="42.21992" lon="22.44548">
        <ele>1084.933102</ele>
        <time>2022-04-09T11:25:43.196Z</time>
      </trkpt>
      <trkpt lat="42.21996" lon="22.4456">
        <ele>1084.358458</ele>
        <time>2022-04-09T11:25:44.239Z</time>
      </trkpt>
      <trkpt lat="42.21999" lon="22.44573">
        <ele>1083.784666</ele>
        <time>2022-04-09T11:25:45.217Z</time>
      </trkpt>
      <trkpt lat="42.22002" lon="22.44585">
        <ele>1083.200866</ele>
        <time>2022-04-09T11:25:46.215Z</time>
      </trkpt>
      <trkpt lat="42.22005" lon="22.44598">
        <ele>1082.613859</ele>
        <time>2022-04-09T11:25:47.166Z</time>
      </trkpt>
      <trkpt lat="42.22008" lon="22.44611">
        <ele>1082.035228</ele>
        <time>2022-04-09T11:25:48.180Z</time>
      </trkpt>
      <trkpt lat="42.2201" lon="22.44624">
        <ele>1081.446536</ele>
        <time>2022-04-09T11:25:49.198Z</time>
      </trkpt>
      <trkpt lat="42.22014" lon="22.44637">
        <ele>1080.862585</ele>
        <time>2022-04-09T11:25:50.168Z</time>
      </trkpt>
      <trkpt lat="42.22017" lon="22.4465">
        <ele>1080.436124</ele>
        <time>2022-04-09T11:25:51.193Z</time>
      </trkpt>
      <trkpt lat="42.2202" lon="22.44662">
        <ele>1080.015602</ele>
        <time>2022-04-09T11:25:52.191Z</time>
      </trkpt>
      <trkpt lat="42.22024" lon="22.44674">
        <ele>1079.616951</ele>
        <time>2022-04-09T11:25:53.184Z</time>
      </trkpt>
      <trkpt lat="42.22028" lon="22.44685">
        <ele>1079.225703</ele>
        <time>2022-04-09T11:25:54.186Z</time>
      </trkpt>
      <trkpt lat="42.22032" lon="22.44696">
        <ele>1078.841841</ele>
        <time>2022-04-09T11:25:55.201Z</time>
      </trkpt>
      <trkpt lat="42.22038" lon="22.44706">
        <ele>1078.457468</ele>
        <time>2022-04-09T11:25:56.183Z</time>
      </trkpt>
      <trkpt lat="42.22043" lon="22.44715">
        <ele>1078.073072</ele>
        <time>2022-04-09T11:25:57.195Z</time>
      </trkpt>
      <trkpt lat="42.22049" lon="22.44725">
        <ele>1077.688361</ele>
        <time>2022-04-09T11:25:58.200Z</time>
      </trkpt>
      <trkpt lat="42.22055" lon="22.44734">
        <ele>1077.306312</ele>
        <time>2022-04-09T11:25:59.218Z</time>
      </trkpt>
      <trkpt lat="42.22061" lon="22.44743">
        <ele>1076.922942</ele>
        <time>2022-04-09T11:26:00.194Z</time>
      </trkpt>
      <trkpt lat="42.22068" lon="22.44752">
        <ele>1076.517476</ele>
        <time>2022-04-09T11:26:01.181Z</time>
      </trkpt>
      <trkpt lat="42.22076" lon="22.44759">
        <ele>1076.121322</ele>
        <time>2022-04-09T11:26:02.177Z</time>
      </trkpt>
      <trkpt lat="42.22091" lon="22.4477">
        <ele>1075.36748</ele>
        <time>2022-04-09T11:26:04.193Z</time>
      </trkpt>
      <trkpt lat="42.22107" lon="22.44778">
        <ele>1074.639239</ele>
        <time>2022-04-09T11:26:06.191Z</time>
      </trkpt>
      <trkpt lat="42.22123" lon="22.44784">
        <ele>1073.943352</ele>
        <time>2022-04-09T11:26:08.174Z</time>
      </trkpt>
      <trkpt lat="42.22138" lon="22.44787">
        <ele>1073.290677</ele>
        <time>2022-04-09T11:26:10.218Z</time>
      </trkpt>
      <trkpt lat="42.22152" lon="22.44789">
        <ele>1072.179876</ele>
        <time>2022-04-09T11:26:12.193Z</time>
      </trkpt>
      <trkpt lat="42.22166" lon="22.4479">
        <ele>1071.025108</ele>
        <time>2022-04-09T11:26:14.220Z</time>
      </trkpt>
      <trkpt lat="42.22181" lon="22.44789">
        <ele>1069.853982</ele>
        <time>2022-04-09T11:26:16.214Z</time>
      </trkpt>
      <trkpt lat="42.22194" lon="22.44787">
        <ele>1068.74602</ele>
        <time>2022-04-09T11:26:18.189Z</time>
      </trkpt>
      <trkpt lat="42.22205" lon="22.44783">
        <ele>1067.840519</ele>
        <time>2022-04-09T11:26:20.199Z</time>
      </trkpt>
      <trkpt lat="42.22215" lon="22.44778">
        <ele>1066.917738</ele>
        <time>2022-04-09T11:26:22.191Z</time>
      </trkpt>
      <trkpt lat="42.22225" lon="22.44771">
        <ele>1066.060687</ele>
        <time>2022-04-09T11:26:24.197Z</time>
      </trkpt>
      <trkpt lat="42.22233" lon="22.44764">
        <ele>1065.250008</ele>
        <time>2022-04-09T11:26:26.188Z</time>
      </trkpt>
      <trkpt lat="42.22241" lon="22.44756">
        <ele>1064.393778</ele>
        <time>2022-04-09T11:26:28.177Z</time>
      </trkpt>
      <trkpt lat="42.2225" lon="22.44746">
        <ele>1063.509519</ele>
        <time>2022-04-09T11:26:30.186Z</time>
      </trkpt>
      <trkpt lat="42.22257" lon="22.44736">
        <ele>1062.681403</ele>
        <time>2022-04-09T11:26:32.182Z</time>
      </trkpt>
      <trkpt lat="42.22265" lon="22.44722">
        <ele>1061.59024</ele>
        <time>2022-04-09T11:26:35.179Z</time>
      </trkpt>
      <trkpt lat="42.2227" lon="22.4471">
        <ele>1060.725265</ele>
        <time>2022-04-09T11:26:37.176Z</time>
      </trkpt>
      <trkpt lat="42.22275" lon="22.44695">
        <ele>1059.743264</ele>
        <time>2022-04-09T11:26:39.203Z</time>
      </trkpt>
      <trkpt lat="42.2228" lon="22.4468">
        <ele>1058.734227</ele>
        <time>2022-04-09T11:26:41.183Z</time>
      </trkpt>
      <trkpt lat="42.22283" lon="22.44666">
        <ele>1057.947294</ele>
        <time>2022-04-09T11:26:43.197Z</time>
      </trkpt>
      <trkpt lat="42.22286" lon="22.44652">
        <ele>1057.268322</ele>
        <time>2022-04-09T11:26:45.193Z</time>
      </trkpt>
      <trkpt lat="42.22287" lon="22.44637">
        <ele>1056.498501</ele>
        <time>2022-04-09T11:26:47.198Z</time>
      </trkpt>
      <trkpt lat="42.22286" lon="22.4462">
        <ele>1055.644301</ele>
        <time>2022-04-09T11:26:49.189Z</time>
      </trkpt>
      <trkpt lat="42.22285" lon="22.44601">
        <ele>1054.664593</ele>
        <time>2022-04-09T11:26:51.198Z</time>
      </trkpt>
      <trkpt lat="42.22282" lon="22.44581">
        <ele>1053.675088</ele>
        <time>2022-04-09T11:26:53.204Z</time>
      </trkpt>
      <trkpt lat="42.22279" lon="22.44562">
        <ele>1052.676876</ele>
        <time>2022-04-09T11:26:55.200Z</time>
      </trkpt>
      <trkpt lat="42.22277" lon="22.44541">
        <ele>1051.640493</ele>
        <time>2022-04-09T11:26:57.184Z</time>
      </trkpt>
      <trkpt lat="42.22274" lon="22.44521">
        <ele>1050.593858</ele>
        <time>2022-04-09T11:26:59.179Z</time>
      </trkpt>
      <trkpt lat="42.22272" lon="22.44501">
        <ele>1049.579647</ele>
        <time>2022-04-09T11:27:01.174Z</time>
      </trkpt>
      <trkpt lat="42.22269" lon="22.44481">
        <ele>1048.582561</ele>
        <time>2022-04-09T11:27:03.203Z</time>
      </trkpt>
      <trkpt lat="42.22266" lon="22.44461">
        <ele>1047.518988</ele>
        <time>2022-04-09T11:27:05.179Z</time>
      </trkpt>
      <trkpt lat="42.22263" lon="22.44439">
        <ele>1046.404326</ele>
        <time>2022-04-09T11:27:07.189Z</time>
      </trkpt>
      <trkpt lat="42.22258" lon="22.44418">
        <ele>1045.191596</ele>
        <time>2022-04-09T11:27:09.187Z</time>
      </trkpt>
      <trkpt lat="42.22253" lon="22.44397">
        <ele>1043.98583</ele>
        <time>2022-04-09T11:27:11.190Z</time>
      </trkpt>
      <trkpt lat="42.22247" lon="22.44377">
        <ele>1042.818622</ele>
        <time>2022-04-09T11:27:13.200Z</time>
      </trkpt>
      <trkpt lat="42.2224" lon="22.44359">
        <ele>1041.680857</ele>
        <time>2022-04-09T11:27:15.178Z</time>
      </trkpt>
      <trkpt lat="42.22231" lon="22.44341">
        <ele>1040.49993</ele>
        <time>2022-04-09T11:27:17.185Z</time>
      </trkpt>
      <trkpt lat="42.22221" lon="22.44324">
        <ele>1039.28868</ele>
        <time>2022-04-09T11:27:19.223Z</time>
      </trkpt>
      <trkpt lat="42.22211" lon="22.44307">
        <ele>1038.088534</ele>
        <time>2022-04-09T11:27:21.201Z</time>
      </trkpt>
      <trkpt lat="42.222" lon="22.44289">
        <ele>1036.81899</ele>
        <time>2022-04-09T11:27:23.197Z</time>
      </trkpt>
      <trkpt lat="42.22189" lon="22.4427">
        <ele>1035.499987</ele>
        <time>2022-04-09T11:27:25.187Z</time>
      </trkpt>
      <trkpt lat="42.22178" lon="22.44253">
        <ele>1034.238556</ele>
        <time>2022-04-09T11:27:27.187Z</time>
      </trkpt>
      <trkpt lat="42.22167" lon="22.44236">
        <ele>1032.987049</ele>
        <time>2022-04-09T11:27:29.188Z</time>
      </trkpt>
      <trkpt lat="42.22156" lon="22.44219">
        <ele>1031.707015</ele>
        <time>2022-04-09T11:27:31.203Z</time>
      </trkpt>
      <trkpt lat="42.22145" lon="22.44202">
        <ele>1030.41758</ele>
        <time>2022-04-09T11:27:33.187Z</time>
      </trkpt>
      <trkpt lat="42.22134" lon="22.44186">
        <ele>1029.096917</ele>
        <time>2022-04-09T11:27:35.249Z</time>
      </trkpt>
      <trkpt lat="42.22123" lon="22.44168">
        <ele>1027.754572</ele>
        <time>2022-04-09T11:27:37.204Z</time>
      </trkpt>
      <trkpt lat="42.22111" lon="22.44151">
        <ele>1026.425268</ele>
        <time>2022-04-09T11:27:39.201Z</time>
      </trkpt>
      <trkpt lat="42.221" lon="22.44133">
        <ele>1025.052107</ele>
        <time>2022-04-09T11:27:41.221Z</time>
      </trkpt>
      <trkpt lat="42.22089" lon="22.44117">
        <ele>1023.741028</ele>
        <time>2022-04-09T11:27:43.196Z</time>
      </trkpt>
      <trkpt lat="42.22078" lon="22.441">
        <ele>1022.416956</ele>
        <time>2022-04-09T11:27:45.188Z</time>
      </trkpt>
      <trkpt lat="42.22066" lon="22.44082">
        <ele>1021.05706</ele>
        <time>2022-04-09T11:27:47.181Z</time>
      </trkpt>
      <trkpt lat="42.22055" lon="22.44064">
        <ele>1019.705144</ele>
        <time>2022-04-09T11:27:49.204Z</time>
      </trkpt>
      <trkpt lat="42.22043" lon="22.44047">
        <ele>1018.322736</ele>
        <time>2022-04-09T11:27:51.185Z</time>
      </trkpt>
      <trkpt lat="42.2203" lon="22.4403">
        <ele>1016.962693</ele>
        <time>2022-04-09T11:27:53.177Z</time>
      </trkpt>
      <trkpt lat="42.22017" lon="22.44014">
        <ele>1015.637545</ele>
        <time>2022-04-09T11:27:55.189Z</time>
      </trkpt>
      <trkpt lat="42.22003" lon="22.43999">
        <ele>1014.335298</ele>
        <time>2022-04-09T11:27:57.200Z</time>
      </trkpt>
      <trkpt lat="42.2199" lon="22.43984">
        <ele>1013.052908</ele>
        <time>2022-04-09T11:27:59.203Z</time>
      </trkpt>
      <trkpt lat="42.21976" lon="22.43969">
        <ele>1011.693499</ele>
        <time>2022-04-09T11:28:01.187Z</time>
      </trkpt>
      <trkpt lat="42.21969" lon="22.43961">
        <ele>1011.011307</ele>
        <time>2022-04-09T11:28:02.178Z</time>
      </trkpt>
      <trkpt lat="42.21961" lon="22.43954">
        <ele>1010.323787</ele>
        <time>2022-04-09T11:28:03.220Z</time>
      </trkpt>
      <trkpt lat="42.21953" lon="22.43947">
        <ele>1009.608636</ele>
        <time>2022-04-09T11:28:04.181Z</time>
      </trkpt>
      <trkpt lat="42.21945" lon="22.43939">
        <ele>1008.880944</ele>
        <time>2022-04-09T11:28:05.226Z</time>
      </trkpt>
      <trkpt lat="42.21938" lon="22.43932">
        <ele>1008.180795</ele>
        <time>2022-04-09T11:28:06.203Z</time>
      </trkpt>
      <trkpt lat="42.2193" lon="22.43924">
        <ele>1007.477868</ele>
        <time>2022-04-09T11:28:07.201Z</time>
      </trkpt>
      <trkpt lat="42.21923" lon="22.43916">
        <ele>1006.761715</ele>
        <time>2022-04-09T11:28:08.190Z</time>
      </trkpt>
      <trkpt lat="42.21915" lon="22.43909">
        <ele>1006.05152</ele>
        <time>2022-04-09T11:28:09.193Z</time>
      </trkpt>
      <trkpt lat="42.21908" lon="22.43901">
        <ele>1005.359992</ele>
        <time>2022-04-09T11:28:10.181Z</time>
      </trkpt>
      <trkpt lat="42.21901" lon="22.43894">
        <ele>1004.435017</ele>
        <time>2022-04-09T11:28:11.224Z</time>
      </trkpt>
      <trkpt lat="42.21893" lon="22.43887">
        <ele>1003.49374</ele>
        <time>2022-04-09T11:28:12.196Z</time>
      </trkpt>
      <trkpt lat="42.21885" lon="22.43879">
        <ele>1002.544185</ele>
        <time>2022-04-09T11:28:13.177Z</time>
      </trkpt>
      <trkpt lat="42.21878" lon="22.43872">
        <ele>1001.590628</ele>
        <time>2022-04-09T11:28:14.232Z</time>
      </trkpt>
      <trkpt lat="42.21864" lon="22.43858">
        <ele>999.818181</ele>
        <time>2022-04-09T11:28:16.216Z</time>
      </trkpt>
      <trkpt lat="42.21851" lon="22.43845">
        <ele>998.153083</ele>
        <time>2022-04-09T11:28:18.191Z</time>
      </trkpt>
      <trkpt lat="42.21839" lon="22.4383">
        <ele>996.52725</ele>
        <time>2022-04-09T11:28:20.202Z</time>
      </trkpt>
      <trkpt lat="42.21829" lon="22.43814">
        <ele>994.95923</ele>
        <time>2022-04-09T11:28:22.198Z</time>
      </trkpt>
      <trkpt lat="42.21821" lon="22.43798">
        <ele>993.510334</ele>
        <time>2022-04-09T11:28:24.206Z</time>
      </trkpt>
      <trkpt lat="42.21815" lon="22.43781">
        <ele>992.079221</ele>
        <time>2022-04-09T11:28:26.192Z</time>
      </trkpt>
      <trkpt lat="42.21811" lon="22.43764">
        <ele>990.73013</ele>
        <time>2022-04-09T11:28:28.201Z</time>
      </trkpt>
      <trkpt lat="42.21809" lon="22.43748">
        <ele>989.463632</ele>
        <time>2022-04-09T11:28:30.186Z</time>
      </trkpt>
      <trkpt lat="42.21809" lon="22.43729">
        <ele>988.0684</ele>
        <time>2022-04-09T11:28:32.188Z</time>
      </trkpt>
      <trkpt lat="42.2181" lon="22.43709">
        <ele>986.657222</ele>
        <time>2022-04-09T11:28:34.200Z</time>
      </trkpt>
      <trkpt lat="42.21812" lon="22.43686">
        <ele>985.410991</ele>
        <time>2022-04-09T11:28:36.252Z</time>
      </trkpt>
      <trkpt lat="42.21815" lon="22.43674">
        <ele>984.735339</ele>
        <time>2022-04-09T11:28:37.198Z</time>
      </trkpt>
      <trkpt lat="42.21818" lon="22.43663">
        <ele>984.053902</ele>
        <time>2022-04-09T11:28:38.197Z</time>
      </trkpt>
      <trkpt lat="42.21822" lon="22.43651">
        <ele>983.361667</ele>
        <time>2022-04-09T11:28:39.189Z</time>
      </trkpt>
      <trkpt lat="42.21827" lon="22.4364">
        <ele>982.648988</ele>
        <time>2022-04-09T11:28:40.192Z</time>
      </trkpt>
      <trkpt lat="42.21832" lon="22.43628">
        <ele>981.929983</ele>
        <time>2022-04-09T11:28:41.187Z</time>
      </trkpt>
      <trkpt lat="42.21837" lon="22.43617">
        <ele>981.217169</ele>
        <time>2022-04-09T11:28:42.187Z</time>
      </trkpt>
      <trkpt lat="42.21842" lon="22.43607">
        <ele>980.531292</ele>
        <time>2022-04-09T11:28:43.184Z</time>
      </trkpt>
      <trkpt lat="42.21848" lon="22.43597">
        <ele>979.845877</ele>
        <time>2022-04-09T11:28:44.206Z</time>
      </trkpt>
      <trkpt lat="42.21853" lon="22.43586">
        <ele>979.169109</ele>
        <time>2022-04-09T11:28:45.205Z</time>
      </trkpt>
      <trkpt lat="42.21863" lon="22.43567">
        <ele>977.877367</ele>
        <time>2022-04-09T11:28:47.227Z</time>
      </trkpt>
      <trkpt lat="42.21871" lon="22.43547">
        <ele>976.621563</ele>
        <time>2022-04-09T11:28:49.194Z</time>
      </trkpt>
      <trkpt lat="42.21881" lon="22.43527">
        <ele>975.313838</ele>
        <time>2022-04-09T11:28:51.196Z</time>
      </trkpt>
      <trkpt lat="42.2189" lon="22.43506">
        <ele>974.013034</ele>
        <time>2022-04-09T11:28:53.229Z</time>
      </trkpt>
      <trkpt lat="42.21899" lon="22.43486">
        <ele>972.799922</ele>
        <time>2022-04-09T11:28:55.193Z</time>
      </trkpt>
      <trkpt lat="42.21904" lon="22.43475">
        <ele>972.197541</ele>
        <time>2022-04-09T11:28:56.200Z</time>
      </trkpt>
      <trkpt lat="42.21909" lon="22.43465">
        <ele>971.600606</ele>
        <time>2022-04-09T11:28:57.180Z</time>
      </trkpt>
      <trkpt lat="42.21919" lon="22.43445">
        <ele>970.427256</ele>
        <time>2022-04-09T11:28:59.181Z</time>
      </trkpt>
      <trkpt lat="42.2193" lon="22.43426">
        <ele>969.223737</ele>
        <time>2022-04-09T11:29:01.197Z</time>
      </trkpt>
      <trkpt lat="42.21936" lon="22.43416">
        <ele>968.598948</ele>
        <time>2022-04-09T11:29:02.203Z</time>
      </trkpt>
      <trkpt lat="42.21948" lon="22.43399">
        <ele>967.44835</ele>
        <time>2022-04-09T11:29:04.229Z</time>
      </trkpt>
      <trkpt lat="42.21955" lon="22.43391">
        <ele>966.833976</ele>
        <time>2022-04-09T11:29:05.183Z</time>
      </trkpt>
      <trkpt lat="42.21962" lon="22.43383">
        <ele>966.209904</ele>
        <time>2022-04-09T11:29:06.179Z</time>
      </trkpt>
      <trkpt lat="42.2197" lon="22.43377">
        <ele>965.588373</ele>
        <time>2022-04-09T11:29:07.195Z</time>
      </trkpt>
      <trkpt lat="42.21979" lon="22.43371">
        <ele>964.977569</ele>
        <time>2022-04-09T11:29:08.196Z</time>
      </trkpt>
      <trkpt lat="42.21987" lon="22.43367">
        <ele>964.363364</ele>
        <time>2022-04-09T11:29:09.207Z</time>
      </trkpt>
      <trkpt lat="42.21996" lon="22.43363">
        <ele>963.764971</ele>
        <time>2022-04-09T11:29:10.235Z</time>
      </trkpt>
      <trkpt lat="42.22005" lon="22.4336">
        <ele>963.160775</ele>
        <time>2022-04-09T11:29:11.200Z</time>
      </trkpt>
      <trkpt lat="42.22014" lon="22.43358">
        <ele>962.545116</ele>
        <time>2022-04-09T11:29:12.205Z</time>
      </trkpt>
      <trkpt lat="42.22031" lon="22.43354">
        <ele>961.308788</ele>
        <time>2022-04-09T11:29:14.187Z</time>
      </trkpt>
      <trkpt lat="42.22046" lon="22.43351">
        <ele>960.074242</ele>
        <time>2022-04-09T11:29:16.190Z</time>
      </trkpt>
      <trkpt lat="42.22059" lon="22.43348">
        <ele>959.016476</ele>
        <time>2022-04-09T11:29:18.184Z</time>
      </trkpt>
      <trkpt lat="42.2207" lon="22.43346">
        <ele>958.154518</ele>
        <time>2022-04-09T11:29:20.192Z</time>
      </trkpt>
      <trkpt lat="42.22081" lon="22.43342">
        <ele>957.216104</ele>
        <time>2022-04-09T11:29:22.198Z</time>
      </trkpt>
      <trkpt lat="42.22093" lon="22.43335">
        <ele>956.208796</ele>
        <time>2022-04-09T11:29:24.201Z</time>
      </trkpt>
      <trkpt lat="42.22103" lon="22.43326">
        <ele>955.26601</ele>
        <time>2022-04-09T11:29:26.181Z</time>
      </trkpt>
      <trkpt lat="42.22111" lon="22.43316">
        <ele>954.378183</ele>
        <time>2022-04-09T11:29:28.188Z</time>
      </trkpt>
      <trkpt lat="42.22116" lon="22.43306">
        <ele>953.641539</ele>
        <time>2022-04-09T11:29:30.198Z</time>
      </trkpt>
      <trkpt lat="42.2212" lon="22.43294">
        <ele>952.88872</ele>
        <time>2022-04-09T11:29:32.199Z</time>
      </trkpt>
      <trkpt lat="42.22122" lon="22.43279">
        <ele>951.966139</ele>
        <time>2022-04-09T11:29:34.188Z</time>
      </trkpt>
      <trkpt lat="42.2212" lon="22.4326">
        <ele>950.878127</ele>
        <time>2022-04-09T11:29:36.208Z</time>
      </trkpt>
      <trkpt lat="42.22118" lon="22.43242">
        <ele>949.779664</ele>
        <time>2022-04-09T11:29:38.193Z</time>
      </trkpt>
      <trkpt lat="42.22113" lon="22.43225">
        <ele>948.718094</ele>
        <time>2022-04-09T11:29:40.207Z</time>
      </trkpt>
      <trkpt lat="42.22108" lon="22.43207">
        <ele>947.590249</ele>
        <time>2022-04-09T11:29:42.205Z</time>
      </trkpt>
      <trkpt lat="42.22103" lon="22.4319">
        <ele>946.595458</ele>
        <time>2022-04-09T11:29:44.178Z</time>
      </trkpt>
      <trkpt lat="42.22096" lon="22.43172">
        <ele>945.533182</ele>
        <time>2022-04-09T11:29:46.174Z</time>
      </trkpt>
      <trkpt lat="42.2209" lon="22.43152">
        <ele>944.36528</ele>
        <time>2022-04-09T11:29:48.191Z</time>
      </trkpt>
      <trkpt lat="42.22082" lon="22.43132">
        <ele>943.205567</ele>
        <time>2022-04-09T11:29:50.204Z</time>
      </trkpt>
      <trkpt lat="42.22076" lon="22.43113">
        <ele>942.075491</ele>
        <time>2022-04-09T11:29:52.189Z</time>
      </trkpt>
      <trkpt lat="42.2207" lon="22.43094">
        <ele>940.999552</ele>
        <time>2022-04-09T11:29:54.206Z</time>
      </trkpt>
      <trkpt lat="42.22065" lon="22.43075">
        <ele>939.895063</ele>
        <time>2022-04-09T11:29:56.219Z</time>
      </trkpt>
      <trkpt lat="42.22062" lon="22.43054">
        <ele>938.766837</ele>
        <time>2022-04-09T11:29:58.196Z</time>
      </trkpt>
      <trkpt lat="42.22061" lon="22.4303">
        <ele>937.501229</ele>
        <time>2022-04-09T11:30:00.196Z</time>
      </trkpt>
      <trkpt lat="42.22062" lon="22.43017">
        <ele>936.853509</ele>
        <time>2022-04-09T11:30:01.198Z</time>
      </trkpt>
      <trkpt lat="42.22063" lon="22.43005">
        <ele>936.206312</ele>
        <time>2022-04-09T11:30:02.195Z</time>
      </trkpt>
      <trkpt lat="42.22069" lon="22.42983">
        <ele>934.955384</ele>
        <time>2022-04-09T11:30:04.181Z</time>
      </trkpt>
      <trkpt lat="42.22076" lon="22.42962">
        <ele>933.566684</ele>
        <time>2022-04-09T11:30:06.229Z</time>
      </trkpt>
      <trkpt lat="42.22083" lon="22.42943">
        <ele>932.238968</ele>
        <time>2022-04-09T11:30:08.193Z</time>
      </trkpt>
      <trkpt lat="42.22092" lon="22.42923">
        <ele>930.86591</ele>
        <time>2022-04-09T11:30:10.217Z</time>
      </trkpt>
      <trkpt lat="42.221" lon="22.42903">
        <ele>929.433199</ele>
        <time>2022-04-09T11:30:12.225Z</time>
      </trkpt>
      <trkpt lat="42.22109" lon="22.42883">
        <ele>927.969478</ele>
        <time>2022-04-09T11:30:14.210Z</time>
      </trkpt>
      <trkpt lat="42.22118" lon="22.42863">
        <ele>926.503764</ele>
        <time>2022-04-09T11:30:16.195Z</time>
      </trkpt>
      <trkpt lat="42.22126" lon="22.42844">
        <ele>925.144497</ele>
        <time>2022-04-09T11:30:18.204Z</time>
      </trkpt>
      <trkpt lat="42.22135" lon="22.42826">
        <ele>923.817479</ele>
        <time>2022-04-09T11:30:20.215Z</time>
      </trkpt>
      <trkpt lat="42.22144" lon="22.42806">
        <ele>922.407176</ele>
        <time>2022-04-09T11:30:22.190Z</time>
      </trkpt>
      <trkpt lat="42.22153" lon="22.42786">
        <ele>920.951075</ele>
        <time>2022-04-09T11:30:24.188Z</time>
      </trkpt>
      <trkpt lat="42.22157" lon="22.42776">
        <ele>920.189973</ele>
        <time>2022-04-09T11:30:25.198Z</time>
      </trkpt>
      <trkpt lat="42.22162" lon="22.42765">
        <ele>919.420714</ele>
        <time>2022-04-09T11:30:26.188Z</time>
      </trkpt>
      <trkpt lat="42.22167" lon="22.42754">
        <ele>918.708247</ele>
        <time>2022-04-09T11:30:27.201Z</time>
      </trkpt>
      <trkpt lat="42.22173" lon="22.42744">
        <ele>918.010277</ele>
        <time>2022-04-09T11:30:28.199Z</time>
      </trkpt>
      <trkpt lat="42.22178" lon="22.42734">
        <ele>917.325787</ele>
        <time>2022-04-09T11:30:29.236Z</time>
      </trkpt>
      <trkpt lat="42.22185" lon="22.42724">
        <ele>916.608191</ele>
        <time>2022-04-09T11:30:30.199Z</time>
      </trkpt>
      <trkpt lat="42.22192" lon="22.42716">
        <ele>915.883988</ele>
        <time>2022-04-09T11:30:31.176Z</time>
      </trkpt>
      <trkpt lat="42.22201" lon="22.42709">
        <ele>915.162774</ele>
        <time>2022-04-09T11:30:32.200Z</time>
      </trkpt>
      <trkpt lat="42.22209" lon="22.42703">
        <ele>914.453994</ele>
        <time>2022-04-09T11:30:33.184Z</time>
      </trkpt>
      <trkpt lat="42.22218" lon="22.42699">
        <ele>913.732116</ele>
        <time>2022-04-09T11:30:34.172Z</time>
      </trkpt>
      <trkpt lat="42.22228" lon="22.42696">
        <ele>912.983674</ele>
        <time>2022-04-09T11:30:35.192Z</time>
      </trkpt>
      <trkpt lat="42.22238" lon="22.42693">
        <ele>912.236694</ele>
        <time>2022-04-09T11:30:36.220Z</time>
      </trkpt>
      <trkpt lat="42.22247" lon="22.42691">
        <ele>911.535035</ele>
        <time>2022-04-09T11:30:37.193Z</time>
      </trkpt>
      <trkpt lat="42.22256" lon="22.4269">
        <ele>910.853165</ele>
        <time>2022-04-09T11:30:38.208Z</time>
      </trkpt>
      <trkpt lat="42.22273" lon="22.4269">
        <ele>909.62057</ele>
        <time>2022-04-09T11:30:40.200Z</time>
      </trkpt>
      <trkpt lat="42.22289" lon="22.4269">
        <ele>908.418044</ele>
        <time>2022-04-09T11:30:42.172Z</time>
      </trkpt>
      <trkpt lat="42.22305" lon="22.42691">
        <ele>907.16934</ele>
        <time>2022-04-09T11:30:44.180Z</time>
      </trkpt>
      <trkpt lat="42.22322" lon="22.42691">
        <ele>905.94674</ele>
        <time>2022-04-09T11:30:46.224Z</time>
      </trkpt>
      <trkpt lat="42.22338" lon="22.42687">
        <ele>904.752886</ele>
        <time>2022-04-09T11:30:48.197Z</time>
      </trkpt>
      <trkpt lat="42.22351" lon="22.42679">
        <ele>903.639059</ele>
        <time>2022-04-09T11:30:50.190Z</time>
      </trkpt>
      <trkpt lat="42.22363" lon="22.42666">
        <ele>902.550344</ele>
        <time>2022-04-09T11:30:52.223Z</time>
      </trkpt>
      <trkpt lat="42.22372" lon="22.42651">
        <ele>901.468775</ele>
        <time>2022-04-09T11:30:54.194Z</time>
      </trkpt>
      <trkpt lat="42.22377" lon="22.42632">
        <ele>900.40166</ele>
        <time>2022-04-09T11:30:56.185Z</time>
      </trkpt>
      <trkpt lat="42.22377" lon="22.4261">
        <ele>899.170545</ele>
        <time>2022-04-09T11:30:58.224Z</time>
      </trkpt>
      <trkpt lat="42.22373" lon="22.42587">
        <ele>897.876263</ele>
        <time>2022-04-09T11:31:00.201Z</time>
      </trkpt>
      <trkpt lat="42.22369" lon="22.42576">
        <ele>897.205439</ele>
        <time>2022-04-09T11:31:01.176Z</time>
      </trkpt>
      <trkpt lat="42.22363" lon="22.42566">
        <ele>896.532772</ele>
        <time>2022-04-09T11:31:02.254Z</time>
      </trkpt>
      <trkpt lat="42.22357" lon="22.42558">
        <ele>895.861891</ele>
        <time>2022-04-09T11:31:03.197Z</time>
      </trkpt>
      <trkpt lat="42.2235" lon="22.4255">
        <ele>895.197112</ele>
        <time>2022-04-09T11:31:04.176Z</time>
      </trkpt>
      <trkpt lat="42.22336" lon="22.42536">
        <ele>893.956597</ele>
        <time>2022-04-09T11:31:06.231Z</time>
      </trkpt>
      <trkpt lat="42.22323" lon="22.42525">
        <ele>892.755012</ele>
        <time>2022-04-09T11:31:08.196Z</time>
      </trkpt>
      <trkpt lat="42.2231" lon="22.42514">
        <ele>891.428991</ele>
        <time>2022-04-09T11:31:10.204Z</time>
      </trkpt>
      <trkpt lat="42.22299" lon="22.42503">
        <ele>890.172523</ele>
        <time>2022-04-09T11:31:12.188Z</time>
      </trkpt>
      <trkpt lat="42.22289" lon="22.4249">
        <ele>888.983295</ele>
        <time>2022-04-09T11:31:14.197Z</time>
      </trkpt>
      <trkpt lat="42.22282" lon="22.42476">
        <ele>887.828226</ele>
        <time>2022-04-09T11:31:16.199Z</time>
      </trkpt>
      <trkpt lat="42.22275" lon="22.42462">
        <ele>886.768997</ele>
        <time>2022-04-09T11:31:18.195Z</time>
      </trkpt>
      <trkpt lat="42.22269" lon="22.42446">
        <ele>885.586221</ele>
        <time>2022-04-09T11:31:20.228Z</time>
      </trkpt>
      <trkpt lat="42.22265" lon="22.42427">
        <ele>884.293821</ele>
        <time>2022-04-09T11:31:22.196Z</time>
      </trkpt>
      <trkpt lat="42.22264" lon="22.42407">
        <ele>882.979258</ele>
        <time>2022-04-09T11:31:24.200Z</time>
      </trkpt>
      <trkpt lat="42.22264" lon="22.42386">
        <ele>881.620857</ele>
        <time>2022-04-09T11:31:26.202Z</time>
      </trkpt>
      <trkpt lat="42.22265" lon="22.42366">
        <ele>880.299775</ele>
        <time>2022-04-09T11:31:28.196Z</time>
      </trkpt>
      <trkpt lat="42.22268" lon="22.42349">
        <ele>879.154209</ele>
        <time>2022-04-09T11:31:30.189Z</time>
      </trkpt>
      <trkpt lat="42.22273" lon="22.42335">
        <ele>878.09095</ele>
        <time>2022-04-09T11:31:32.190Z</time>
      </trkpt>
      <trkpt lat="42.22284" lon="22.42323">
        <ele>876.901401</ele>
        <time>2022-04-09T11:31:34.194Z</time>
      </trkpt>
      <trkpt lat="42.22296" lon="22.42314">
        <ele>876.052013</ele>
        <time>2022-04-09T11:31:36.238Z</time>
      </trkpt>
      <trkpt lat="42.22306" lon="22.42302">
        <ele>875.246101</ele>
        <time>2022-04-09T11:31:38.187Z</time>
      </trkpt>
      <trkpt lat="42.22313" lon="22.42286">
        <ele>874.437067</ele>
        <time>2022-04-09T11:31:40.189Z</time>
      </trkpt>
      <trkpt lat="42.22315" lon="22.42268">
        <ele>873.668786</ele>
        <time>2022-04-09T11:31:42.193Z</time>
      </trkpt>
      <trkpt lat="42.22316" lon="22.42251">
        <ele>872.907072</ele>
        <time>2022-04-09T11:31:44.194Z</time>
      </trkpt>
      <trkpt lat="42.22319" lon="22.42234">
        <ele>872.126056</ele>
        <time>2022-04-09T11:31:46.200Z</time>
      </trkpt>
      <trkpt lat="42.22322" lon="22.42221">
        <ele>871.505026</ele>
        <time>2022-04-09T11:31:48.204Z</time>
      </trkpt>
      <trkpt lat="42.22328" lon="22.42209">
        <ele>870.867879</ele>
        <time>2022-04-09T11:31:51.179Z</time>
      </trkpt>
      <trkpt lat="42.22337" lon="22.42199">
        <ele>870.165786</ele>
        <time>2022-04-09T11:31:54.197Z</time>
      </trkpt>
      <trkpt lat="42.22343" lon="22.42189">
        <ele>869.610572</ele>
        <time>2022-04-09T11:31:56.215Z</time>
      </trkpt>
      <trkpt lat="42.22349" lon="22.42177">
        <ele>868.96291</ele>
        <time>2022-04-09T11:31:58.194Z</time>
      </trkpt>
      <trkpt lat="42.22356" lon="22.42164">
        <ele>868.240589</ele>
        <time>2022-04-09T11:32:00.183Z</time>
      </trkpt>
      <trkpt lat="42.22363" lon="22.4215">
        <ele>867.538335</ele>
        <time>2022-04-09T11:32:02.183Z</time>
      </trkpt>
      <trkpt lat="42.22369" lon="22.42137">
        <ele>866.846763</ele>
        <time>2022-04-09T11:32:04.195Z</time>
      </trkpt>
      <trkpt lat="42.22376" lon="22.42123">
        <ele>866.134467</ele>
        <time>2022-04-09T11:32:06.200Z</time>
      </trkpt>
      <trkpt lat="42.22382" lon="22.42109">
        <ele>865.63158</ele>
        <time>2022-04-09T11:32:08.188Z</time>
      </trkpt>
      <trkpt lat="42.22388" lon="22.42094">
        <ele>865.11193</ele>
        <time>2022-04-09T11:32:10.207Z</time>
      </trkpt>
      <trkpt lat="42.22394" lon="22.42079">
        <ele>864.592865</ele>
        <time>2022-04-09T11:32:12.179Z</time>
      </trkpt>
      <trkpt lat="42.224" lon="22.42063">
        <ele>864.07555</ele>
        <time>2022-04-09T11:32:14.202Z</time>
      </trkpt>
      <trkpt lat="42.22406" lon="22.42047">
        <ele>863.539269</ele>
        <time>2022-04-09T11:32:16.203Z</time>
      </trkpt>
      <trkpt lat="42.22412" lon="22.42031">
        <ele>862.995922</ele>
        <time>2022-04-09T11:32:18.189Z</time>
      </trkpt>
      <trkpt lat="42.22417" lon="22.42016">
        <ele>862.478289</ele>
        <time>2022-04-09T11:32:20.189Z</time>
      </trkpt>
      <trkpt lat="42.22422" lon="22.42">
        <ele>861.973606</ele>
        <time>2022-04-09T11:32:22.203Z</time>
      </trkpt>
      <trkpt lat="42.22427" lon="22.41986">
        <ele>861.502733</ele>
        <time>2022-04-09T11:32:24.184Z</time>
      </trkpt>
      <trkpt lat="42.22432" lon="22.41972">
        <ele>861.032327</ele>
        <time>2022-04-09T11:32:26.177Z</time>
      </trkpt>
      <trkpt lat="42.22436" lon="22.41958">
        <ele>860.584007</ele>
        <time>2022-04-09T11:32:28.191Z</time>
      </trkpt>
      <trkpt lat="42.2244" lon="22.41946">
        <ele>860.184438</ele>
        <time>2022-04-09T11:32:30.191Z</time>
      </trkpt>
      <trkpt lat="42.22443" lon="22.41934">
        <ele>859.808669</ele>
        <time>2022-04-09T11:32:32.241Z</time>
      </trkpt>
      <trkpt lat="42.22447" lon="22.41923">
        <ele>859.428536</ele>
        <time>2022-04-09T11:32:34.210Z</time>
      </trkpt>
      <trkpt lat="42.22451" lon="22.41911">
        <ele>859.044023</ele>
        <time>2022-04-09T11:32:36.196Z</time>
      </trkpt>
      <trkpt lat="42.22455" lon="22.41899">
        <ele>858.769076</ele>
        <time>2022-04-09T11:32:38.187Z</time>
      </trkpt>
      <trkpt lat="42.22458" lon="22.41887">
        <ele>858.601253</ele>
        <time>2022-04-09T11:32:40.198Z</time>
      </trkpt>
      <trkpt lat="42.2246" lon="22.41875">
        <ele>858.43974</ele>
        <time>2022-04-09T11:32:42.193Z</time>
      </trkpt>
      <trkpt lat="42.22464" lon="22.41859">
        <ele>858.213453</ele>
        <time>2022-04-09T11:32:45.190Z</time>
      </trkpt>
      <trkpt lat="42.22468" lon="22.41843">
        <ele>857.989715</ele>
        <time>2022-04-09T11:32:48.194Z</time>
      </trkpt>
      <trkpt lat="42.2247" lon="22.41827">
        <ele>857.775496</ele>
        <time>2022-04-09T11:32:51.204Z</time>
      </trkpt>
      <trkpt lat="42.2247" lon="22.4181">
        <ele>857.547828</ele>
        <time>2022-04-09T11:32:54.222Z</time>
      </trkpt>
      <trkpt lat="42.22472" lon="22.41793">
        <ele>857.316495</ele>
        <time>2022-04-09T11:32:57.188Z</time>
      </trkpt>
      <trkpt lat="42.22471" lon="22.41775">
        <ele>857.082243</ele>
        <time>2022-04-09T11:33:00.206Z</time>
      </trkpt>
      <trkpt lat="42.22472" lon="22.41758">
        <ele>856.857298</ele>
        <time>2022-04-09T11:33:03.182Z</time>
      </trkpt>
      <trkpt lat="42.22472" lon="22.41741">
        <ele>856.624479</ele>
        <time>2022-04-09T11:33:06.185Z</time>
      </trkpt>
      <trkpt lat="42.22472" lon="22.41729">
        <ele>856.463256</ele>
        <time>2022-04-09T11:33:08.201Z</time>
      </trkpt>
      <trkpt lat="42.22472" lon="22.41716">
        <ele>856.298292</ele>
        <time>2022-04-09T11:33:10.208Z</time>
      </trkpt>
      <trkpt lat="42.22472" lon="22.41703">
        <ele>856.122686</ele>
        <time>2022-04-09T11:33:12.191Z</time>
      </trkpt>
      <trkpt lat="42.22472" lon="22.41689">
        <ele>855.941722</ele>
        <time>2022-04-09T11:33:14.189Z</time>
      </trkpt>
      <trkpt lat="42.22473" lon="22.41676">
        <ele>855.767362</ele>
        <time>2022-04-09T11:33:16.181Z</time>
      </trkpt>
      <trkpt lat="42.22472" lon="22.41663">
        <ele>855.652985</ele>
        <time>2022-04-09T11:33:18.222Z</time>
      </trkpt>
      <trkpt lat="42.22473" lon="22.41649">
        <ele>855.711206</ele>
        <time>2022-04-09T11:33:20.204Z</time>
      </trkpt>
      <trkpt lat="42.22473" lon="22.41636">
        <ele>855.768179</ele>
        <time>2022-04-09T11:33:22.187Z</time>
      </trkpt>
      <trkpt lat="42.22473" lon="22.41623">
        <ele>855.823896</ele>
        <time>2022-04-09T11:33:24.188Z</time>
      </trkpt>
      <trkpt lat="42.22475" lon="22.41609">
        <ele>855.883368</ele>
        <time>2022-04-09T11:33:26.184Z</time>
      </trkpt>
      <trkpt lat="42.22476" lon="22.41596">
        <ele>855.942716</ele>
        <time>2022-04-09T11:33:28.205Z</time>
      </trkpt>
      <trkpt lat="42.22477" lon="22.41582">
        <ele>856.001272</ele>
        <time>2022-04-09T11:33:30.196Z</time>
      </trkpt>
      <trkpt lat="42.22478" lon="22.41569">
        <ele>856.058126</ele>
        <time>2022-04-09T11:33:32.207Z</time>
      </trkpt>
      <trkpt lat="42.22478" lon="22.41556">
        <ele>856.114636</ele>
        <time>2022-04-09T11:33:34.184Z</time>
      </trkpt>
      <trkpt lat="42.22478" lon="22.41542">
        <ele>856.171992</ele>
        <time>2022-04-09T11:33:36.190Z</time>
      </trkpt>
      <trkpt lat="42.22478" lon="22.4153">
        <ele>856.225925</ele>
        <time>2022-04-09T11:33:38.221Z</time>
      </trkpt>
      <trkpt lat="42.2248" lon="22.41517">
        <ele>856.278435</ele>
        <time>2022-04-09T11:33:40.171Z</time>
      </trkpt>
      <trkpt lat="42.22482" lon="22.415">
        <ele>856.355583</ele>
        <time>2022-04-09T11:33:43.185Z</time>
      </trkpt>
      <trkpt lat="42.22484" lon="22.41484">
        <ele>856.424702</ele>
        <time>2022-04-09T11:33:46.197Z</time>
      </trkpt>
      <trkpt lat="42.22487" lon="22.4147">
        <ele>856.486671</ele>
        <time>2022-04-09T11:33:49.203Z</time>
      </trkpt>
      <trkpt lat="42.22492" lon="22.41458">
        <ele>856.545776</ele>
        <time>2022-04-09T11:33:52.191Z</time>
      </trkpt>
      <trkpt lat="42.22498" lon="22.41446">
        <ele>856.608104</ele>
        <time>2022-04-09T11:33:55.198Z</time>
      </trkpt>
      <trkpt lat="42.22502" lon="22.41433">
        <ele>856.666119</ele>
        <time>2022-04-09T11:33:58.201Z</time>
      </trkpt>
      <trkpt lat="42.22506" lon="22.41422">
        <ele>856.324419</ele>
        <time>2022-04-09T11:34:01.187Z</time>
      </trkpt>
      <trkpt lat="42.22511" lon="22.4141">
        <ele>855.850396</ele>
        <time>2022-04-09T11:34:04.203Z</time>
      </trkpt>
      <trkpt lat="42.22516" lon="22.41398">
        <ele>855.381607</ele>
        <time>2022-04-09T11:34:07.181Z</time>
      </trkpt>
      <trkpt lat="42.22521" lon="22.41386">
        <ele>854.935249</ele>
        <time>2022-04-09T11:34:10.178Z</time>
      </trkpt>
      <trkpt lat="42.22527" lon="22.41374">
        <ele>854.449553</ele>
        <time>2022-04-09T11:34:13.192Z</time>
      </trkpt>
      <trkpt lat="42.22534" lon="22.41362">
        <ele>853.924275</ele>
        <time>2022-04-09T11:34:16.196Z</time>
      </trkpt>
      <trkpt lat="42.22539" lon="22.4135">
        <ele>853.441492</ele>
        <time>2022-04-09T11:34:19.194Z</time>
      </trkpt>
      <trkpt lat="42.22545" lon="22.41338">
        <ele>852.954863</ele>
        <time>2022-04-09T11:34:22.187Z</time>
      </trkpt>
      <trkpt lat="42.22552" lon="22.41326">
        <ele>852.429541</ele>
        <time>2022-04-09T11:34:25.201Z</time>
      </trkpt>
      <trkpt lat="42.22558" lon="22.41313">
        <ele>851.904022</ele>
        <time>2022-04-09T11:34:28.202Z</time>
      </trkpt>
      <trkpt lat="42.22565" lon="22.41301">
        <ele>851.378746</ele>
        <time>2022-04-09T11:34:31.203Z</time>
      </trkpt>
      <trkpt lat="42.2257" lon="22.41289">
        <ele>850.903697</ele>
        <time>2022-04-09T11:34:34.188Z</time>
      </trkpt>
      <trkpt lat="42.22576" lon="22.41278">
        <ele>850.441819</ele>
        <time>2022-04-09T11:34:37.188Z</time>
      </trkpt>
      <trkpt lat="42.22582" lon="22.41266">
        <ele>849.957948</ele>
        <time>2022-04-09T11:34:40.219Z</time>
      </trkpt>
      <trkpt lat="42.22588" lon="22.41254">
        <ele>849.456936</ele>
        <time>2022-04-09T11:34:43.197Z</time>
      </trkpt>
      <trkpt lat="42.22593" lon="22.41241">
        <ele>848.975246</ele>
        <time>2022-04-09T11:34:46.224Z</time>
      </trkpt>
      <trkpt lat="42.22596" lon="22.41229">
        <ele>848.510046</ele>
        <time>2022-04-09T11:34:49.177Z</time>
      </trkpt>
      <trkpt lat="42.226" lon="22.41214">
        <ele>848.314203</ele>
        <time>2022-04-09T11:34:52.174Z</time>
      </trkpt>
      <trkpt lat="42.22603" lon="22.41199">
        <ele>848.238038</ele>
        <time>2022-04-09T11:34:55.200Z</time>
      </trkpt>
      <trkpt lat="42.22606" lon="22.41183">
        <ele>848.158181</ele>
        <time>2022-04-09T11:34:58.182Z</time>
      </trkpt>
      <trkpt lat="42.22611" lon="22.41169">
        <ele>848.080179</ele>
        <time>2022-04-09T11:35:01.177Z</time>
      </trkpt>
      <trkpt lat="42.22614" lon="22.41152">
        <ele>847.997563</ele>
        <time>2022-04-09T11:35:04.184Z</time>
      </trkpt>
      <trkpt lat="42.22618" lon="22.41139">
        <ele>847.927254</ele>
        <time>2022-04-09T11:35:07.175Z</time>
      </trkpt>
      <trkpt lat="42.22623" lon="22.41125">
        <ele>847.852675</ele>
        <time>2022-04-09T11:35:10.183Z</time>
      </trkpt>
      <trkpt lat="42.22625" lon="22.41109">
        <ele>847.773018</ele>
        <time>2022-04-09T11:35:13.182Z</time>
      </trkpt>
      <trkpt lat="42.22621" lon="22.41092">
        <ele>847.689441</ele>
        <time>2022-04-09T11:35:16.176Z</time>
      </trkpt>
      <trkpt lat="42.22616" lon="22.41077">
        <ele>847.608119</ele>
        <time>2022-04-09T11:35:19.186Z</time>
      </trkpt>
      <trkpt lat="42.22609" lon="22.41061">
        <ele>847.519968</ele>
        <time>2022-04-09T11:35:22.186Z</time>
      </trkpt>
      <trkpt lat="42.22604" lon="22.4105">
        <ele>847.454786</ele>
        <time>2022-04-09T11:35:24.192Z</time>
      </trkpt>
      <trkpt lat="42.22599" lon="22.41036">
        <ele>847.381527</ele>
        <time>2022-04-09T11:35:26.202Z</time>
      </trkpt>
      <trkpt lat="42.22594" lon="22.41021">
        <ele>847.300205</ele>
        <time>2022-04-09T11:35:28.180Z</time>
      </trkpt>
      <trkpt lat="42.2259" lon="22.41005">
        <ele>847.21698</ele>
        <time>2022-04-09T11:35:30.202Z</time>
      </trkpt>
      <trkpt lat="42.22585" lon="22.40988">
        <ele>846.806148</ele>
        <time>2022-04-09T11:35:32.187Z</time>
      </trkpt>
      <trkpt lat="42.22581" lon="22.40972">
        <ele>846.268477</ele>
        <time>2022-04-09T11:35:34.225Z</time>
      </trkpt>
      <trkpt lat="42.22576" lon="22.40957">
        <ele>845.7419</ele>
        <time>2022-04-09T11:35:36.209Z</time>
      </trkpt>
      <trkpt lat="42.22572" lon="22.40943">
        <ele>845.26926</ele>
        <time>2022-04-09T11:35:38.171Z</time>
      </trkpt>
      <trkpt lat="42.22568" lon="22.4093">
        <ele>844.816228</ele>
        <time>2022-04-09T11:35:40.230Z</time>
      </trkpt>
      <trkpt lat="42.22564" lon="22.40916">
        <ele>844.354511</ele>
        <time>2022-04-09T11:35:42.204Z</time>
      </trkpt>
      <trkpt lat="42.2256" lon="22.40902">
        <ele>843.864494</ele>
        <time>2022-04-09T11:35:44.196Z</time>
      </trkpt>
      <trkpt lat="42.22556" lon="22.40886">
        <ele>843.345872</ele>
        <time>2022-04-09T11:35:46.183Z</time>
      </trkpt>
      <trkpt lat="42.22553" lon="22.40871">
        <ele>842.832385</ele>
        <time>2022-04-09T11:35:48.211Z</time>
      </trkpt>
      <trkpt lat="42.22551" lon="22.40857">
        <ele>842.389948</ele>
        <time>2022-04-09T11:35:50.204Z</time>
      </trkpt>
      <trkpt lat="42.2255" lon="22.40844">
        <ele>841.956237</ele>
        <time>2022-04-09T11:35:52.189Z</time>
      </trkpt>
      <trkpt lat="42.22549" lon="22.4083">
        <ele>841.533805</ele>
        <time>2022-04-09T11:35:54.193Z</time>
      </trkpt>
      <trkpt lat="42.22548" lon="22.40817">
        <ele>841.10822</ele>
        <time>2022-04-09T11:35:56.173Z</time>
      </trkpt>
      <trkpt lat="42.22546" lon="22.40803">
        <ele>840.64818</ele>
        <time>2022-04-09T11:35:58.181Z</time>
      </trkpt>
      <trkpt lat="42.22544" lon="22.40788">
        <ele>840.165505</ele>
        <time>2022-04-09T11:36:00.199Z</time>
      </trkpt>
      <trkpt lat="42.22543" lon="22.40773">
        <ele>839.705677</ele>
        <time>2022-04-09T11:36:02.199Z</time>
      </trkpt>
      <trkpt lat="42.22542" lon="22.40759">
        <ele>839.289577</ele>
        <time>2022-04-09T11:36:04.175Z</time>
      </trkpt>
      <trkpt lat="42.22541" lon="22.40744">
        <ele>838.948176</ele>
        <time>2022-04-09T11:36:06.206Z</time>
      </trkpt>
      <trkpt lat="42.22541" lon="22.40731">
        <ele>838.619408</ele>
        <time>2022-04-09T11:36:08.188Z</time>
      </trkpt>
      <trkpt lat="42.22541" lon="22.40717">
        <ele>838.29059</ele>
        <time>2022-04-09T11:36:10.177Z</time>
      </trkpt>
      <trkpt lat="42.22541" lon="22.40703">
        <ele>837.952027</ele>
        <time>2022-04-09T11:36:12.209Z</time>
      </trkpt>
      <trkpt lat="42.22541" lon="22.4069">
        <ele>837.642613</ele>
        <time>2022-04-09T11:36:14.228Z</time>
      </trkpt>
      <trkpt lat="42.22541" lon="22.40673">
        <ele>837.221801</ele>
        <time>2022-04-09T11:36:17.194Z</time>
      </trkpt>
      <trkpt lat="42.22542" lon="22.40656">
        <ele>836.81988</ele>
        <time>2022-04-09T11:36:20.180Z</time>
      </trkpt>
      <trkpt lat="42.22543" lon="22.40638">
        <ele>836.376925</ele>
        <time>2022-04-09T11:36:23.196Z</time>
      </trkpt>
      <trkpt lat="42.22543" lon="22.40625">
        <ele>836.069859</ele>
        <time>2022-04-09T11:36:25.217Z</time>
      </trkpt>
      <trkpt lat="42.22543" lon="22.40613">
        <ele>835.767539</ele>
        <time>2022-04-09T11:36:27.178Z</time>
      </trkpt>
      <trkpt lat="42.22542" lon="22.406">
        <ele>835.442291</ele>
        <time>2022-04-09T11:36:29.189Z</time>
      </trkpt>
      <trkpt lat="42.2254" lon="22.40584">
        <ele>835.072048</ele>
        <time>2022-04-09T11:36:31.175Z</time>
      </trkpt>
      <trkpt lat="42.22539" lon="22.40569">
        <ele>834.68499</ele>
        <time>2022-04-09T11:36:33.190Z</time>
      </trkpt>
      <trkpt lat="42.22538" lon="22.40553">
        <ele>834.312717</ele>
        <time>2022-04-09T11:36:35.193Z</time>
      </trkpt>
      <trkpt lat="42.22537" lon="22.40538">
        <ele>833.941432</ele>
        <time>2022-04-09T11:36:37.190Z</time>
      </trkpt>
      <trkpt lat="42.22536" lon="22.40523">
        <ele>833.591433</ele>
        <time>2022-04-09T11:36:39.193Z</time>
      </trkpt>
      <trkpt lat="42.22534" lon="22.40508">
        <ele>833.474841</ele>
        <time>2022-04-09T11:36:41.205Z</time>
      </trkpt>
      <trkpt lat="42.22532" lon="22.40495">
        <ele>833.371516</ele>
        <time>2022-04-09T11:36:43.200Z</time>
      </trkpt>
      <trkpt lat="42.22531" lon="22.40482">
        <ele>833.267367</ele>
        <time>2022-04-09T11:36:45.172Z</time>
      </trkpt>
      <trkpt lat="42.22531" lon="22.4047">
        <ele>833.168339</ele>
        <time>2022-04-09T11:36:47.228Z</time>
      </trkpt>
      <trkpt lat="42.2253" lon="22.40457">
        <ele>833.068751</ele>
        <time>2022-04-09T11:36:49.177Z</time>
      </trkpt>
      <trkpt lat="42.2253" lon="22.40444">
        <ele>832.96763</ele>
        <time>2022-04-09T11:36:51.195Z</time>
      </trkpt>
      <trkpt lat="42.22531" lon="22.40432">
        <ele>832.867888</ele>
        <time>2022-04-09T11:36:53.198Z</time>
      </trkpt>
      <trkpt lat="42.22532" lon="22.40418">
        <ele>832.759237</ele>
        <time>2022-04-09T11:36:55.181Z</time>
      </trkpt>
      <trkpt lat="42.22532" lon="22.40405">
        <ele>832.657981</ele>
        <time>2022-04-09T11:36:57.190Z</time>
      </trkpt>
      <trkpt lat="42.22533" lon="22.40393">
        <ele>832.559143</ele>
        <time>2022-04-09T11:36:59.191Z</time>
      </trkpt>
      <trkpt lat="42.22533" lon="22.40379">
        <ele>832.454071</ele>
        <time>2022-04-09T11:37:01.193Z</time>
      </trkpt>
      <trkpt lat="42.22532" lon="22.40364">
        <ele>832.330541</ele>
        <time>2022-04-09T11:37:03.216Z</time>
      </trkpt>
      <trkpt lat="42.22532" lon="22.40349">
        <ele>832.214372</ele>
        <time>2022-04-09T11:37:05.207Z</time>
      </trkpt>
      <trkpt lat="42.22531" lon="22.40334">
        <ele>832.096647</ele>
        <time>2022-04-09T11:37:07.291Z</time>
      </trkpt>
      <trkpt lat="42.22531" lon="22.4032">
        <ele>831.98518</ele>
        <time>2022-04-09T11:37:09.185Z</time>
      </trkpt>
      <trkpt lat="42.22531" lon="22.40307">
        <ele>831.883974</ele>
        <time>2022-04-09T11:37:11.200Z</time>
      </trkpt>
      <trkpt lat="42.22531" lon="22.40294">
        <ele>831.781273</ele>
        <time>2022-04-09T11:37:13.180Z</time>
      </trkpt>
      <trkpt lat="42.2253" lon="22.40281">
        <ele>831.682137</ele>
        <time>2022-04-09T11:37:15.191Z</time>
      </trkpt>
      <trkpt lat="42.2253" lon="22.40269">
        <ele>831.700046</ele>
        <time>2022-04-09T11:37:17.201Z</time>
      </trkpt>
      <trkpt lat="42.2253" lon="22.40254">
        <ele>831.723422</ele>
        <time>2022-04-09T11:37:20.192Z</time>
      </trkpt>
      <trkpt lat="42.22529" lon="22.40238">
        <ele>831.746849</ele>
        <time>2022-04-09T11:37:23.185Z</time>
      </trkpt>
      <trkpt lat="42.22527" lon="22.40222">
        <ele>831.770292</ele>
        <time>2022-04-09T11:37:26.208Z</time>
      </trkpt>
      <trkpt lat="42.22526" lon="22.40207">
        <ele>831.792829</ele>
        <time>2022-04-09T11:37:29.258Z</time>
      </trkpt>
      <trkpt lat="42.22523" lon="22.40193">
        <ele>831.814087</ele>
        <time>2022-04-09T11:37:32.178Z</time>
      </trkpt>
      <trkpt lat="42.2252" lon="22.4018">
        <ele>831.834276</ele>
        <time>2022-04-09T11:37:35.188Z</time>
      </trkpt>
      <trkpt lat="42.22518" lon="22.40168">
        <ele>831.853056</ele>
        <time>2022-04-09T11:37:38.204Z</time>
      </trkpt>
      <trkpt lat="42.22514" lon="22.40153">
        <ele>831.876507</ele>
        <time>2022-04-09T11:37:42.185Z</time>
      </trkpt>
      <trkpt lat="42.22511" lon="22.40138">
        <ele>831.899199</ele>
        <time>2022-04-09T11:37:46.179Z</time>
      </trkpt>
      <trkpt lat="42.22507" lon="22.40127">
        <ele>831.917396</ele>
        <time>2022-04-09T11:37:49.175Z</time>
      </trkpt>
      <trkpt lat="42.22503" lon="22.40115">
        <ele>831.936763</ele>
        <time>2022-04-09T11:37:53.227Z</time>
      </trkpt>
      <trkpt lat="42.22499" lon="22.40102">
        <ele>831.957724</ele>
        <time>2022-04-09T11:37:58.181Z</time>
      </trkpt>
      <trkpt lat="42.22489" lon="22.40073">
        <ele>832.005257</ele>
        <time>2022-04-09T11:38:27.186Z</time>
      </trkpt>
      <trkpt lat="42.22484" lon="22.40062">
        <ele>832.023881</ele>
        <time>2022-04-09T11:38:29.207Z</time>
      </trkpt>
      <trkpt lat="42.2248" lon="22.4005">
        <ele>832.002631</ele>
        <time>2022-04-09T11:38:31.224Z</time>
      </trkpt>
      <trkpt lat="42.22475" lon="22.40038">
        <ele>831.667855</ele>
        <time>2022-04-09T11:38:33.184Z</time>
      </trkpt>
      <trkpt lat="42.2247" lon="22.40025">
        <ele>831.334493</ele>
        <time>2022-04-09T11:38:35.181Z</time>
      </trkpt>
      <trkpt lat="42.22466" lon="22.40012">
        <ele>831.00945</ele>
        <time>2022-04-09T11:38:37.192Z</time>
      </trkpt>
      <trkpt lat="42.22462" lon="22.40001">
        <ele>830.697459</ele>
        <time>2022-04-09T11:38:39.177Z</time>
      </trkpt>
      <trkpt lat="42.22457" lon="22.39989">
        <ele>830.384068</ele>
        <time>2022-04-09T11:38:41.179Z</time>
      </trkpt>
      <trkpt lat="42.22453" lon="22.39978">
        <ele>830.076841</ele>
        <time>2022-04-09T11:38:43.219Z</time>
      </trkpt>
      <trkpt lat="42.22449" lon="22.39964">
        <ele>829.733501</ele>
        <time>2022-04-09T11:38:45.203Z</time>
      </trkpt>
      <trkpt lat="42.22443" lon="22.39949">
        <ele>829.334107</ele>
        <time>2022-04-09T11:38:47.209Z</time>
      </trkpt>
      <trkpt lat="42.22438" lon="22.39934">
        <ele>828.937562</ele>
        <time>2022-04-09T11:38:49.219Z</time>
      </trkpt>
      <trkpt lat="42.22432" lon="22.3992">
        <ele>828.563728</ele>
        <time>2022-04-09T11:38:51.203Z</time>
      </trkpt>
      <trkpt lat="42.22426" lon="22.39906">
        <ele>828.169297</ele>
        <time>2022-04-09T11:38:53.193Z</time>
      </trkpt>
      <trkpt lat="42.2242" lon="22.39892">
        <ele>827.781828</ele>
        <time>2022-04-09T11:38:55.245Z</time>
      </trkpt>
      <trkpt lat="42.22414" lon="22.39878">
        <ele>827.406626</ele>
        <time>2022-04-09T11:38:57.183Z</time>
      </trkpt>
      <trkpt lat="42.22407" lon="22.39865">
        <ele>827.020235</ele>
        <time>2022-04-09T11:38:59.179Z</time>
      </trkpt>
      <trkpt lat="42.224" lon="22.39853">
        <ele>826.639572</ele>
        <time>2022-04-09T11:39:01.181Z</time>
      </trkpt>
      <trkpt lat="42.22391" lon="22.3984">
        <ele>826.212162</ele>
        <time>2022-04-09T11:39:03.194Z</time>
      </trkpt>
      <trkpt lat="42.22383" lon="22.39827">
        <ele>825.45839</ele>
        <time>2022-04-09T11:39:05.191Z</time>
      </trkpt>
      <trkpt lat="42.22376" lon="22.3981">
        <ele>824.634935</ele>
        <time>2022-04-09T11:39:07.203Z</time>
      </trkpt>
      <trkpt lat="42.2237" lon="22.39793">
        <ele>823.823748</ele>
        <time>2022-04-09T11:39:09.198Z</time>
      </trkpt>
      <trkpt lat="42.22367" lon="22.39775">
        <ele>823.032965</ele>
        <time>2022-04-09T11:39:11.198Z</time>
      </trkpt>
      <trkpt lat="42.22366" lon="22.39758">
        <ele>822.285864</ele>
        <time>2022-04-09T11:39:13.191Z</time>
      </trkpt>
      <trkpt lat="42.22365" lon="22.3974">
        <ele>821.531987</ele>
        <time>2022-04-09T11:39:15.204Z</time>
      </trkpt>
      <trkpt lat="42.22365" lon="22.39723">
        <ele>820.78328</ele>
        <time>2022-04-09T11:39:17.238Z</time>
      </trkpt>
      <trkpt lat="42.22366" lon="22.39706">
        <ele>820.038869</ele>
        <time>2022-04-09T11:39:19.181Z</time>
      </trkpt>
      <trkpt lat="42.22366" lon="22.39689">
        <ele>819.329208</ele>
        <time>2022-04-09T11:39:21.267Z</time>
      </trkpt>
      <trkpt lat="42.22366" lon="22.39673">
        <ele>818.624037</ele>
        <time>2022-04-09T11:39:23.221Z</time>
      </trkpt>
      <trkpt lat="42.22366" lon="22.39656">
        <ele>817.90148</ele>
        <time>2022-04-09T11:39:25.189Z</time>
      </trkpt>
      <trkpt lat="42.22365" lon="22.39639">
        <ele>817.189164</ele>
        <time>2022-04-09T11:39:27.220Z</time>
      </trkpt>
      <trkpt lat="42.22362" lon="22.39623">
        <ele>816.465077</ele>
        <time>2022-04-09T11:39:29.236Z</time>
      </trkpt>
      <trkpt lat="42.22359" lon="22.39606">
        <ele>815.839627</ele>
        <time>2022-04-09T11:39:31.212Z</time>
      </trkpt>
      <trkpt lat="42.22355" lon="22.39592">
        <ele>815.968655</ele>
        <time>2022-04-09T11:39:33.206Z</time>
      </trkpt>
      <trkpt lat="42.22351" lon="22.3958">
        <ele>816.078153</ele>
        <time>2022-04-09T11:39:35.227Z</time>
      </trkpt>
      <trkpt lat="42.22345" lon="22.39563">
        <ele>816.230855</ele>
        <time>2022-04-09T11:39:38.191Z</time>
      </trkpt>
      <trkpt lat="42.22342" lon="22.39551">
        <ele>816.333178</ele>
        <time>2022-04-09T11:39:40.199Z</time>
      </trkpt>
      <trkpt lat="42.2234" lon="22.39539">
        <ele>816.436135</ele>
        <time>2022-04-09T11:39:42.200Z</time>
      </trkpt>
      <trkpt lat="42.22337" lon="22.39527">
        <ele>816.540445</ele>
        <time>2022-04-09T11:39:44.204Z</time>
      </trkpt>
      <trkpt lat="42.22335" lon="22.39515">
        <ele>816.645313</ele>
        <time>2022-04-09T11:39:46.195Z</time>
      </trkpt>
      <trkpt lat="42.22334" lon="22.39498">
        <ele>816.786234</ele>
        <time>2022-04-09T11:39:49.210Z</time>
      </trkpt>
      <trkpt lat="42.22335" lon="22.39482">
        <ele>816.920398</ele>
        <time>2022-04-09T11:39:52.187Z</time>
      </trkpt>
      <trkpt lat="42.22338" lon="22.39466">
        <ele>817.05206</ele>
        <time>2022-04-09T11:39:55.187Z</time>
      </trkpt>
      <trkpt lat="42.22342" lon="22.39451">
        <ele>817.184974</ele>
        <time>2022-04-09T11:39:58.198Z</time>
      </trkpt>
      <trkpt lat="42.22347" lon="22.39437">
        <ele>817.315928</ele>
        <time>2022-04-09T11:40:01.192Z</time>
      </trkpt>
      <trkpt lat="42.22353" lon="22.39424">
        <ele>817.444137</ele>
        <time>2022-04-09T11:40:04.210Z</time>
      </trkpt>
      <trkpt lat="42.22359" lon="22.39413">
        <ele>817.555268</ele>
        <time>2022-04-09T11:40:07.197Z</time>
      </trkpt>
      <trkpt lat="42.22365" lon="22.39399">
        <ele>817.683141</ele>
        <time>2022-04-09T11:40:10.187Z</time>
      </trkpt>
      <trkpt lat="42.22371" lon="22.39385">
        <ele>817.821919</ele>
        <time>2022-04-09T11:40:13.208Z</time>
      </trkpt>
      <trkpt lat="42.22379" lon="22.39371">
        <ele>817.872292</ele>
        <time>2022-04-09T11:40:16.191Z</time>
      </trkpt>
      <trkpt lat="42.22386" lon="22.39359">
        <ele>817.915072</ele>
        <time>2022-04-09T11:40:19.199Z</time>
      </trkpt>
      <trkpt lat="42.22395" lon="22.39346">
        <ele>817.959987</ele>
        <time>2022-04-09T11:40:22.211Z</time>
      </trkpt>
      <trkpt lat="42.22404" lon="22.39335">
        <ele>818.004462</ele>
        <time>2022-04-09T11:40:25.184Z</time>
      </trkpt>
      <trkpt lat="42.22413" lon="22.39324">
        <ele>818.047345</ele>
        <time>2022-04-09T11:40:28.193Z</time>
      </trkpt>
      <trkpt lat="42.22421" lon="22.39313">
        <ele>818.089495</ele>
        <time>2022-04-09T11:40:31.217Z</time>
      </trkpt>
      <trkpt lat="42.22428" lon="22.393">
        <ele>818.131697</ele>
        <time>2022-04-09T11:40:34.191Z</time>
      </trkpt>
      <trkpt lat="42.22433" lon="22.39286">
        <ele>818.171671</ele>
        <time>2022-04-09T11:40:37.223Z</time>
      </trkpt>
      <trkpt lat="42.22437" lon="22.3927">
        <ele>818.216378</ele>
        <time>2022-04-09T11:40:40.200Z</time>
      </trkpt>
      <trkpt lat="42.2244" lon="22.39259">
        <ele>818.248788</ele>
        <time>2022-04-09T11:40:42.195Z</time>
      </trkpt>
      <trkpt lat="42.22444" lon="22.39242">
        <ele>818.295885</ele>
        <time>2022-04-09T11:40:45.199Z</time>
      </trkpt>
      <trkpt lat="42.22447" lon="22.39225">
        <ele>818.342006</ele>
        <time>2022-04-09T11:40:48.202Z</time>
      </trkpt>
      <trkpt lat="42.22451" lon="22.39209">
        <ele>818.38833</ele>
        <time>2022-04-09T11:40:51.203Z</time>
      </trkpt>
      <trkpt lat="42.22455" lon="22.39191">
        <ele>818.435665</ele>
        <time>2022-04-09T11:40:54.186Z</time>
      </trkpt>
      <trkpt lat="42.22457" lon="22.39179">
        <ele>818.469351</ele>
        <time>2022-04-09T11:40:56.205Z</time>
      </trkpt>
      <trkpt lat="42.2246" lon="22.39167">
        <ele>818.255479</ele>
        <time>2022-04-09T11:40:58.189Z</time>
      </trkpt>
      <trkpt lat="42.22463" lon="22.39154">
        <ele>818.002388</ele>
        <time>2022-04-09T11:41:00.183Z</time>
      </trkpt>
      <trkpt lat="42.22467" lon="22.39141">
        <ele>817.730994</ele>
        <time>2022-04-09T11:41:02.267Z</time>
      </trkpt>
      <trkpt lat="42.2247" lon="22.39126">
        <ele>817.438671</ele>
        <time>2022-04-09T11:41:04.194Z</time>
      </trkpt>
      <trkpt lat="42.22474" lon="22.39112">
        <ele>817.146691</ele>
        <time>2022-04-09T11:41:06.183Z</time>
      </trkpt>
      <trkpt lat="42.22477" lon="22.39097">
        <ele>816.854591</ele>
        <time>2022-04-09T11:41:08.191Z</time>
      </trkpt>
      <trkpt lat="42.22481" lon="22.39083">
        <ele>816.566331</ele>
        <time>2022-04-09T11:41:10.189Z</time>
      </trkpt>
      <trkpt lat="42.22484" lon="22.39068">
        <ele>816.267768</ele>
        <time>2022-04-09T11:41:12.210Z</time>
      </trkpt>
      <trkpt lat="42.22487" lon="22.39052">
        <ele>815.953731</ele>
        <time>2022-04-09T11:41:14.191Z</time>
      </trkpt>
      <trkpt lat="42.22491" lon="22.39035">
        <ele>815.622125</ele>
        <time>2022-04-09T11:41:16.204Z</time>
      </trkpt>
      <trkpt lat="42.22496" lon="22.39019">
        <ele>815.288075</ele>
        <time>2022-04-09T11:41:18.178Z</time>
      </trkpt>
      <trkpt lat="42.22501" lon="22.39003">
        <ele>814.952963</ele>
        <time>2022-04-09T11:41:20.208Z</time>
      </trkpt>
      <trkpt lat="42.22509" lon="22.38988">
        <ele>814.601079</ele>
        <time>2022-04-09T11:41:22.219Z</time>
      </trkpt>
      <trkpt lat="42.22516" lon="22.38973">
        <ele>814.263158</ele>
        <time>2022-04-09T11:41:24.181Z</time>
      </trkpt>
      <trkpt lat="42.22524" lon="22.38959">
        <ele>813.923889</ele>
        <time>2022-04-09T11:41:26.190Z</time>
      </trkpt>
      <trkpt lat="42.22533" lon="22.38946">
        <ele>813.543827</ele>
        <time>2022-04-09T11:41:28.195Z</time>
      </trkpt>
      <trkpt lat="42.22541" lon="22.38932">
        <ele>813.142945</ele>
        <time>2022-04-09T11:41:30.205Z</time>
      </trkpt>
      <trkpt lat="42.2255" lon="22.38918">
        <ele>812.721455</ele>
        <time>2022-04-09T11:41:32.197Z</time>
      </trkpt>
      <trkpt lat="42.22559" lon="22.38903">
        <ele>812.269842</ele>
        <time>2022-04-09T11:41:34.189Z</time>
      </trkpt>
      <trkpt lat="42.22569" lon="22.38887">
        <ele>811.800228</ele>
        <time>2022-04-09T11:41:36.203Z</time>
      </trkpt>
      <trkpt lat="42.22578" lon="22.38869">
        <ele>811.319453</ele>
        <time>2022-04-09T11:41:38.229Z</time>
      </trkpt>
      <trkpt lat="42.22586" lon="22.38851">
        <ele>810.826963</ele>
        <time>2022-04-09T11:41:40.205Z</time>
      </trkpt>
      <trkpt lat="42.22594" lon="22.38832">
        <ele>810.332474</ele>
        <time>2022-04-09T11:41:42.190Z</time>
      </trkpt>
      <trkpt lat="42.22602" lon="22.38813">
        <ele>809.836592</ele>
        <time>2022-04-09T11:41:44.180Z</time>
      </trkpt>
      <trkpt lat="42.2261" lon="22.38795">
        <ele>809.356102</ele>
        <time>2022-04-09T11:41:46.197Z</time>
      </trkpt>
      <trkpt lat="42.22617" lon="22.38777">
        <ele>808.90135</ele>
        <time>2022-04-09T11:41:48.200Z</time>
      </trkpt>
      <trkpt lat="42.22624" lon="22.38759">
        <ele>808.450037</ele>
        <time>2022-04-09T11:41:50.187Z</time>
      </trkpt>
      <trkpt lat="42.22631" lon="22.38742">
        <ele>808.075374</ele>
        <time>2022-04-09T11:41:52.186Z</time>
      </trkpt>
      <trkpt lat="42.22638" lon="22.38724">
        <ele>807.742022</ele>
        <time>2022-04-09T11:41:54.192Z</time>
      </trkpt>
      <trkpt lat="42.22646" lon="22.38707">
        <ele>807.407384</ele>
        <time>2022-04-09T11:41:56.199Z</time>
      </trkpt>
      <trkpt lat="42.22652" lon="22.3869">
        <ele>807.087389</ele>
        <time>2022-04-09T11:41:58.209Z</time>
      </trkpt>
      <trkpt lat="42.22657" lon="22.38674">
        <ele>806.788247</ele>
        <time>2022-04-09T11:42:00.216Z</time>
      </trkpt>
      <trkpt lat="42.22661" lon="22.38657">
        <ele>806.501511</ele>
        <time>2022-04-09T11:42:02.176Z</time>
      </trkpt>
      <trkpt lat="42.22663" lon="22.38641">
        <ele>806.212776</ele>
        <time>2022-04-09T11:42:04.171Z</time>
      </trkpt>
      <trkpt lat="42.22664" lon="22.38623">
        <ele>805.916594</ele>
        <time>2022-04-09T11:42:06.196Z</time>
      </trkpt>
      <trkpt lat="42.22665" lon="22.38606">
        <ele>805.628384</ele>
        <time>2022-04-09T11:42:08.197Z</time>
      </trkpt>
      <trkpt lat="42.22666" lon="22.3859">
        <ele>805.367115</ele>
        <time>2022-04-09T11:42:10.203Z</time>
      </trkpt>
      <trkpt lat="42.22668" lon="22.38576">
        <ele>805.124101</ele>
        <time>2022-04-09T11:42:12.182Z</time>
      </trkpt>
      <trkpt lat="42.22669" lon="22.38562">
        <ele>804.881198</ele>
        <time>2022-04-09T11:42:14.184Z</time>
      </trkpt>
      <trkpt lat="42.22671" lon="22.38548">
        <ele>804.648119</ele>
        <time>2022-04-09T11:42:16.224Z</time>
      </trkpt>
      <trkpt lat="42.22675" lon="22.38535">
        <ele>804.409484</ele>
        <time>2022-04-09T11:42:18.199Z</time>
      </trkpt>
      <trkpt lat="42.22681" lon="22.38522">
        <ele>804.224332</ele>
        <time>2022-04-09T11:42:20.169Z</time>
      </trkpt>
      <trkpt lat="42.22687" lon="22.38511">
        <ele>804.192701</ele>
        <time>2022-04-09T11:42:22.168Z</time>
      </trkpt>
      <trkpt lat="42.22692" lon="22.38499">
        <ele>804.161921</ele>
        <time>2022-04-09T11:42:24.214Z</time>
      </trkpt>
      <trkpt lat="42.22696" lon="22.38488">
        <ele>804.131416</ele>
        <time>2022-04-09T11:42:26.177Z</time>
      </trkpt>
      <trkpt lat="42.227" lon="22.38476">
        <ele>804.100872</ele>
        <time>2022-04-09T11:42:28.217Z</time>
      </trkpt>
      <trkpt lat="42.22704" lon="22.38465">
        <ele>804.071792</ele>
        <time>2022-04-09T11:42:30.184Z</time>
      </trkpt>
      <trkpt lat="42.22711" lon="22.3845">
        <ele>804.029629</ele>
        <time>2022-04-09T11:42:33.200Z</time>
      </trkpt>
      <trkpt lat="42.22717" lon="22.38435">
        <ele>803.98945</ele>
        <time>2022-04-09T11:42:36.227Z</time>
      </trkpt>
      <trkpt lat="42.22723" lon="22.3842">
        <ele>803.950542</ele>
        <time>2022-04-09T11:42:39.201Z</time>
      </trkpt>
      <trkpt lat="42.22726" lon="22.38403">
        <ele>803.909013</ele>
        <time>2022-04-09T11:42:42.194Z</time>
      </trkpt>
      <trkpt lat="42.22731" lon="22.38387">
        <ele>803.867849</ele>
        <time>2022-04-09T11:42:45.197Z</time>
      </trkpt>
      <trkpt lat="42.22735" lon="22.38375">
        <ele>803.837865</ele>
        <time>2022-04-09T11:42:47.190Z</time>
      </trkpt>
      <trkpt lat="42.22739" lon="22.38363">
        <ele>803.806974</ele>
        <time>2022-04-09T11:42:49.184Z</time>
      </trkpt>
      <trkpt lat="42.22743" lon="22.38351">
        <ele>803.776688</ele>
        <time>2022-04-09T11:42:51.204Z</time>
      </trkpt>
      <trkpt lat="42.22746" lon="22.3834">
        <ele>803.746529</ele>
        <time>2022-04-09T11:42:53.195Z</time>
      </trkpt>
      <trkpt lat="42.22751" lon="22.38327">
        <ele>803.71459</ele>
        <time>2022-04-09T11:42:55.200Z</time>
      </trkpt>
      <trkpt lat="42.22755" lon="22.38315">
        <ele>803.683002</ele>
        <time>2022-04-09T11:42:57.197Z</time>
      </trkpt>
      <trkpt lat="42.22761" lon="22.38304">
        <ele>803.479182</ele>
        <time>2022-04-09T11:42:59.194Z</time>
      </trkpt>
      <trkpt lat="42.22766" lon="22.38294">
        <ele>803.062342</ele>
        <time>2022-04-09T11:43:01.202Z</time>
      </trkpt>
      <trkpt lat="42.22772" lon="22.38284">
        <ele>802.658782</ele>
        <time>2022-04-09T11:43:03.212Z</time>
      </trkpt>
      <trkpt lat="42.22779" lon="22.38269">
        <ele>802.063579</ele>
        <time>2022-04-09T11:43:06.217Z</time>
      </trkpt>
      <trkpt lat="42.22786" lon="22.38254">
        <ele>801.464687</ele>
        <time>2022-04-09T11:43:09.181Z</time>
      </trkpt>
      <trkpt lat="42.22791" lon="22.38243">
        <ele>801.033547</ele>
        <time>2022-04-09T11:43:11.195Z</time>
      </trkpt>
      <trkpt lat="42.22797" lon="22.38232">
        <ele>800.613159</ele>
        <time>2022-04-09T11:43:13.225Z</time>
      </trkpt>
      <trkpt lat="42.22802" lon="22.38222">
        <ele>800.198794</ele>
        <time>2022-04-09T11:43:15.198Z</time>
      </trkpt>
      <trkpt lat="42.22807" lon="22.38212">
        <ele>799.784614</ele>
        <time>2022-04-09T11:43:17.204Z</time>
      </trkpt>
      <trkpt lat="42.22812" lon="22.38201">
        <ele>799.366175</ele>
        <time>2022-04-09T11:43:19.232Z</time>
      </trkpt>
      <trkpt lat="42.22817" lon="22.38191">
        <ele>798.948865</ele>
        <time>2022-04-09T11:43:21.209Z</time>
      </trkpt>
      <trkpt lat="42.22825" lon="22.38175">
        <ele>798.335201</ele>
        <time>2022-04-09T11:43:24.201Z</time>
      </trkpt>
      <trkpt lat="42.22833" lon="22.38161">
        <ele>797.745497</ele>
        <time>2022-04-09T11:43:27.184Z</time>
      </trkpt>
      <trkpt lat="42.22842" lon="22.38147">
        <ele>797.155945</ele>
        <time>2022-04-09T11:43:30.240Z</time>
      </trkpt>
      <trkpt lat="42.22848" lon="22.38132">
        <ele>796.555068</ele>
        <time>2022-04-09T11:43:33.189Z</time>
      </trkpt>
      <trkpt lat="42.22854" lon="22.38121">
        <ele>796.140501</ele>
        <time>2022-04-09T11:43:35.204Z</time>
      </trkpt>
      <trkpt lat="42.22859" lon="22.38111">
        <ele>795.715606</ele>
        <time>2022-04-09T11:43:37.190Z</time>
      </trkpt>
      <trkpt lat="42.22865" lon="22.381">
        <ele>795.358274</ele>
        <time>2022-04-09T11:43:39.206Z</time>
      </trkpt>
      <trkpt lat="42.2287" lon="22.38089">
        <ele>795.020662</ele>
        <time>2022-04-09T11:43:41.192Z</time>
      </trkpt>
      <trkpt lat="42.22877" lon="22.38076">
        <ele>794.593348</ele>
        <time>2022-04-09T11:43:44.187Z</time>
      </trkpt>
      <trkpt lat="42.22884" lon="22.38062">
        <ele>794.157614</ele>
        <time>2022-04-09T11:43:47.201Z</time>
      </trkpt>
      <trkpt lat="42.22893" lon="22.3805">
        <ele>793.713468</ele>
        <time>2022-04-09T11:43:50.204Z</time>
      </trkpt>
      <trkpt lat="42.22902" lon="22.38038">
        <ele>793.253935</ele>
        <time>2022-04-09T11:43:53.199Z</time>
      </trkpt>
      <trkpt lat="42.2291" lon="22.38024">
        <ele>792.805414</ele>
        <time>2022-04-09T11:43:56.176Z</time>
      </trkpt>
      <trkpt lat="42.22918" lon="22.3801">
        <ele>792.348883</ele>
        <time>2022-04-09T11:43:59.247Z</time>
      </trkpt>
      <trkpt lat="42.22925" lon="22.37996">
        <ele>791.892264</ele>
        <time>2022-04-09T11:44:02.185Z</time>
      </trkpt>
      <trkpt lat="42.22932" lon="22.3798">
        <ele>791.428619</ele>
        <time>2022-04-09T11:44:05.220Z</time>
      </trkpt>
      <trkpt lat="42.22937" lon="22.37964">
        <ele>790.967528</ele>
        <time>2022-04-09T11:44:08.188Z</time>
      </trkpt>
      <trkpt lat="42.22941" lon="22.37947">
        <ele>790.51431</ele>
        <time>2022-04-09T11:44:11.211Z</time>
      </trkpt>
      <trkpt lat="42.22942" lon="22.37931">
        <ele>790.084533</ele>
        <time>2022-04-09T11:44:14.203Z</time>
      </trkpt>
      <trkpt lat="42.22943" lon="22.37914">
        <ele>789.633075</ele>
        <time>2022-04-09T11:44:17.248Z</time>
      </trkpt>
      <trkpt lat="42.22941" lon="22.37901">
        <ele>789.302622</ele>
        <time>2022-04-09T11:44:19.193Z</time>
      </trkpt>
      <trkpt lat="42.22939" lon="22.37889">
        <ele>789.037698</ele>
        <time>2022-04-09T11:44:21.202Z</time>
      </trkpt>
      <trkpt lat="42.22937" lon="22.37876">
        <ele>788.77685</ele>
        <time>2022-04-09T11:44:23.184Z</time>
      </trkpt>
      <trkpt lat="42.22934" lon="22.37863">
        <ele>788.498521</ele>
        <time>2022-04-09T11:44:25.178Z</time>
      </trkpt>
      <trkpt lat="42.2293" lon="22.3785">
        <ele>788.198708</ele>
        <time>2022-04-09T11:44:27.189Z</time>
      </trkpt>
      <trkpt lat="42.22927" lon="22.37836">
        <ele>787.904835</ele>
        <time>2022-04-09T11:44:29.199Z</time>
      </trkpt>
      <trkpt lat="42.22923" lon="22.37823">
        <ele>787.613864</ele>
        <time>2022-04-09T11:44:31.193Z</time>
      </trkpt>
      <trkpt lat="42.22921" lon="22.37809">
        <ele>787.324998</ele>
        <time>2022-04-09T11:44:33.229Z</time>
      </trkpt>
      <trkpt lat="42.22919" lon="22.37796">
        <ele>787.035643</ele>
        <time>2022-04-09T11:44:35.192Z</time>
      </trkpt>
      <trkpt lat="42.22918" lon="22.37782">
        <ele>786.754611</ele>
        <time>2022-04-09T11:44:37.184Z</time>
      </trkpt>
      <trkpt lat="42.22919" lon="22.37768">
        <ele>786.473579</ele>
        <time>2022-04-09T11:44:39.239Z</time>
      </trkpt>
      <trkpt lat="42.2292" lon="22.37754">
        <ele>786.180671</ele>
        <time>2022-04-09T11:44:41.203Z</time>
      </trkpt>
      <trkpt lat="42.22923" lon="22.37741">
        <ele>785.899801</ele>
        <time>2022-04-09T11:44:43.185Z</time>
      </trkpt>
      <trkpt lat="42.22926" lon="22.37729">
        <ele>785.628053</ele>
        <time>2022-04-09T11:44:45.235Z</time>
      </trkpt>
      <trkpt lat="42.2293" lon="22.37717">
        <ele>785.36304</ele>
        <time>2022-04-09T11:44:47.204Z</time>
      </trkpt>
      <trkpt lat="42.22935" lon="22.37707">
        <ele>785.106056</ele>
        <time>2022-04-09T11:44:49.184Z</time>
      </trkpt>
      <trkpt lat="42.22941" lon="22.37697">
        <ele>784.850917</ele>
        <time>2022-04-09T11:44:51.241Z</time>
      </trkpt>
      <trkpt lat="42.22945" lon="22.37686">
        <ele>784.584606</ele>
        <time>2022-04-09T11:44:53.178Z</time>
      </trkpt>
      <trkpt lat="42.22949" lon="22.37674">
        <ele>784.328898</ele>
        <time>2022-04-09T11:44:55.187Z</time>
      </trkpt>
      <trkpt lat="42.22954" lon="22.37663">
        <ele>783.687344</ele>
        <time>2022-04-09T11:44:57.172Z</time>
      </trkpt>
      <trkpt lat="42.22959" lon="22.37648">
        <ele>782.809225</ele>
        <time>2022-04-09T11:45:00.176Z</time>
      </trkpt>
      <trkpt lat="42.22962" lon="22.3763">
        <ele>781.858765</ele>
        <time>2022-04-09T11:45:03.199Z</time>
      </trkpt>
      <trkpt lat="42.22961" lon="22.37617">
        <ele>781.159965</ele>
        <time>2022-04-09T11:45:05.198Z</time>
      </trkpt>
      <trkpt lat="42.22959" lon="22.37602">
        <ele>780.383726</ele>
        <time>2022-04-09T11:45:07.189Z</time>
      </trkpt>
      <trkpt lat="42.22955" lon="22.37588">
        <ele>779.60604</ele>
        <time>2022-04-09T11:45:09.187Z</time>
      </trkpt>
      <trkpt lat="42.22951" lon="22.37575">
        <ele>778.866999</ele>
        <time>2022-04-09T11:45:11.188Z</time>
      </trkpt>
      <trkpt lat="42.22946" lon="22.37562">
        <ele>778.053057</ele>
        <time>2022-04-09T11:45:13.181Z</time>
      </trkpt>
      <trkpt lat="42.22941" lon="22.37549">
        <ele>777.301559</ele>
        <time>2022-04-09T11:45:15.203Z</time>
      </trkpt>
      <trkpt lat="42.22937" lon="22.37535">
        <ele>776.523207</ele>
        <time>2022-04-09T11:45:17.186Z</time>
      </trkpt>
      <trkpt lat="42.22932" lon="22.37522">
        <ele>775.756672</ele>
        <time>2022-04-09T11:45:19.191Z</time>
      </trkpt>
      <trkpt lat="42.22927" lon="22.37508">
        <ele>774.950943</ele>
        <time>2022-04-09T11:45:21.184Z</time>
      </trkpt>
      <trkpt lat="42.22923" lon="22.37495">
        <ele>774.171577</ele>
        <time>2022-04-09T11:45:23.183Z</time>
      </trkpt>
      <trkpt lat="42.22918" lon="22.37481">
        <ele>773.386374</ele>
        <time>2022-04-09T11:45:25.230Z</time>
      </trkpt>
      <trkpt lat="42.22917" lon="22.37466">
        <ele>772.583919</ele>
        <time>2022-04-09T11:45:27.189Z</time>
      </trkpt>
      <trkpt lat="42.22918" lon="22.3745">
        <ele>771.785631</ele>
        <time>2022-04-09T11:45:29.178Z</time>
      </trkpt>
      <trkpt lat="42.22921" lon="22.37436">
        <ele>771.357638</ele>
        <time>2022-04-09T11:45:31.193Z</time>
      </trkpt>
      <trkpt lat="42.22927" lon="22.37423">
        <ele>771.045037</ele>
        <time>2022-04-09T11:45:33.188Z</time>
      </trkpt>
      <trkpt lat="42.22935" lon="22.3741">
        <ele>770.718035</ele>
        <time>2022-04-09T11:45:35.174Z</time>
      </trkpt>
      <trkpt lat="42.22943" lon="22.37398">
        <ele>770.410803</ele>
        <time>2022-04-09T11:45:37.182Z</time>
      </trkpt>
      <trkpt lat="42.2295" lon="22.37386">
        <ele>770.102351</ele>
        <time>2022-04-09T11:45:39.186Z</time>
      </trkpt>
      <trkpt lat="42.22958" lon="22.37374">
        <ele>769.795798</ele>
        <time>2022-04-09T11:45:41.167Z</time>
      </trkpt>
      <trkpt lat="42.22966" lon="22.37361">
        <ele>769.457837</ele>
        <time>2022-04-09T11:45:43.224Z</time>
      </trkpt>
      <trkpt lat="42.22975" lon="22.37348">
        <ele>769.113423</ele>
        <time>2022-04-09T11:45:45.208Z</time>
      </trkpt>
      <trkpt lat="42.22983" lon="22.37334">
        <ele>768.769315</ele>
        <time>2022-04-09T11:45:47.190Z</time>
      </trkpt>
      <trkpt lat="42.22991" lon="22.37319">
        <ele>768.420132</ele>
        <time>2022-04-09T11:45:49.172Z</time>
      </trkpt>
      <trkpt lat="42.22997" lon="22.37304">
        <ele>768.073237</ele>
        <time>2022-04-09T11:45:51.222Z</time>
      </trkpt>
      <trkpt lat="42.23003" lon="22.37289">
        <ele>767.735047</ele>
        <time>2022-04-09T11:45:53.186Z</time>
      </trkpt>
      <trkpt lat="42.23009" lon="22.37273">
        <ele>767.387645</ele>
        <time>2022-04-09T11:45:55.193Z</time>
      </trkpt>
      <trkpt lat="42.23016" lon="22.37257">
        <ele>767.019925</ele>
        <time>2022-04-09T11:45:57.204Z</time>
      </trkpt>
      <trkpt lat="42.23023" lon="22.37241">
        <ele>766.79255</ele>
        <time>2022-04-09T11:45:59.194Z</time>
      </trkpt>
      <trkpt lat="42.23028" lon="22.37224">
        <ele>766.731751</ele>
        <time>2022-04-09T11:46:01.192Z</time>
      </trkpt>
      <trkpt lat="42.23034" lon="22.37208">
        <ele>766.671841</ele>
        <time>2022-04-09T11:46:03.189Z</time>
      </trkpt>
      <trkpt lat="42.23039" lon="22.37191">
        <ele>766.612312</ele>
        <time>2022-04-09T11:46:05.211Z</time>
      </trkpt>
      <trkpt lat="42.23045" lon="22.37176">
        <ele>766.554375</ele>
        <time>2022-04-09T11:46:07.190Z</time>
      </trkpt>
      <trkpt lat="42.2305" lon="22.3716">
        <ele>766.496379</ele>
        <time>2022-04-09T11:46:09.181Z</time>
      </trkpt>
      <trkpt lat="42.23053" lon="22.37144">
        <ele>766.44265</ele>
        <time>2022-04-09T11:46:11.194Z</time>
      </trkpt>
      <trkpt lat="42.23056" lon="22.37129">
        <ele>766.390069</ele>
        <time>2022-04-09T11:46:13.182Z</time>
      </trkpt>
      <trkpt lat="42.23058" lon="22.37115">
        <ele>766.342511</ele>
        <time>2022-04-09T11:46:15.190Z</time>
      </trkpt>
      <trkpt lat="42.2306" lon="22.37101">
        <ele>766.29602</ele>
        <time>2022-04-09T11:46:17.185Z</time>
      </trkpt>
      <trkpt lat="42.23061" lon="22.37086">
        <ele>766.245287</ele>
        <time>2022-04-09T11:46:19.224Z</time>
      </trkpt>
      <trkpt lat="42.23062" lon="22.3707">
        <ele>766.192302</ele>
        <time>2022-04-09T11:46:21.195Z</time>
      </trkpt>
      <trkpt lat="42.23063" lon="22.37056">
        <ele>766.144224</ele>
        <time>2022-04-09T11:46:23.195Z</time>
      </trkpt>
      <trkpt lat="42.23064" lon="22.37041">
        <ele>766.095365</ele>
        <time>2022-04-09T11:46:25.222Z</time>
      </trkpt>
      <trkpt lat="42.23064" lon="22.37027">
        <ele>766.048947</ele>
        <time>2022-04-09T11:46:27.204Z</time>
      </trkpt>
      <trkpt lat="42.23065" lon="22.37014">
        <ele>765.980356</ele>
        <time>2022-04-09T11:46:29.203Z</time>
      </trkpt>
      <trkpt lat="42.23066" lon="22.37">
        <ele>765.780888</ele>
        <time>2022-04-09T11:46:31.196Z</time>
      </trkpt>
      <trkpt lat="42.23067" lon="22.36986">
        <ele>765.584047</ele>
        <time>2022-04-09T11:46:33.196Z</time>
      </trkpt>
      <trkpt lat="42.23068" lon="22.36973">
        <ele>765.397781</ele>
        <time>2022-04-09T11:46:35.200Z</time>
      </trkpt>
      <trkpt lat="42.23068" lon="22.3696">
        <ele>765.218925</ele>
        <time>2022-04-09T11:46:37.213Z</time>
      </trkpt>
      <trkpt lat="42.23066" lon="22.36947">
        <ele>765.034152</ele>
        <time>2022-04-09T11:46:39.196Z</time>
      </trkpt>
      <trkpt lat="42.23064" lon="22.36934">
        <ele>764.842743</ele>
        <time>2022-04-09T11:46:41.202Z</time>
      </trkpt>
      <trkpt lat="42.23063" lon="22.36922">
        <ele>764.669345</ele>
        <time>2022-04-09T11:46:43.219Z</time>
      </trkpt>
      <trkpt lat="42.23061" lon="22.36906">
        <ele>764.446249</ele>
        <time>2022-04-09T11:46:46.203Z</time>
      </trkpt>
      <trkpt lat="42.23059" lon="22.36893">
        <ele>764.249608</ele>
        <time>2022-04-09T11:46:49.195Z</time>
      </trkpt>
      <trkpt lat="42.23059" lon="22.36879">
        <ele>764.057808</ele>
        <time>2022-04-09T11:46:54.191Z</time>
      </trkpt>
      <trkpt lat="42.23058" lon="22.36865">
        <ele>763.860085</ele>
        <time>2022-04-09T11:46:58.177Z</time>
      </trkpt>
      <trkpt lat="42.23056" lon="22.36851">
        <ele>763.652554</ele>
        <time>2022-04-09T11:47:01.213Z</time>
      </trkpt>
      <trkpt lat="42.23054" lon="22.36836">
        <ele>763.43455</ele>
        <time>2022-04-09T11:47:04.218Z</time>
      </trkpt>
      <trkpt lat="42.23053" lon="22.36824">
        <ele>763.259465</ele>
        <time>2022-04-09T11:47:06.201Z</time>
      </trkpt>
      <trkpt lat="42.2305" lon="22.36806">
        <ele>763.001018</ele>
        <time>2022-04-09T11:47:09.205Z</time>
      </trkpt>
      <trkpt lat="42.23047" lon="22.36794">
        <ele>762.818522</ele>
        <time>2022-04-09T11:47:11.192Z</time>
      </trkpt>
      <trkpt lat="42.23044" lon="22.36781">
        <ele>762.636027</ele>
        <time>2022-04-09T11:47:13.187Z</time>
      </trkpt>
      <trkpt lat="42.23041" lon="22.36769">
        <ele>762.664147</ele>
        <time>2022-04-09T11:47:15.231Z</time>
      </trkpt>
      <trkpt lat="42.23039" lon="22.36756">
        <ele>762.841638</ele>
        <time>2022-04-09T11:47:17.189Z</time>
      </trkpt>
      <trkpt lat="42.23036" lon="22.36743">
        <ele>763.023048</ele>
        <time>2022-04-09T11:47:19.183Z</time>
      </trkpt>
      <trkpt lat="42.23032" lon="22.36731">
        <ele>763.187582</ele>
        <time>2022-04-09T11:47:21.230Z</time>
      </trkpt>
      <trkpt lat="42.23029" lon="22.36715">
        <ele>763.409641</ele>
        <time>2022-04-09T11:47:24.178Z</time>
      </trkpt>
      <trkpt lat="42.23027" lon="22.36702">
        <ele>763.57906</ele>
        <time>2022-04-09T11:47:26.221Z</time>
      </trkpt>
      <trkpt lat="42.23026" lon="22.36689">
        <ele>763.748234</ele>
        <time>2022-04-09T11:47:28.184Z</time>
      </trkpt>
      <trkpt lat="42.23026" lon="22.36676">
        <ele>763.9133</ele>
        <time>2022-04-09T11:47:30.210Z</time>
      </trkpt>
      <trkpt lat="42.23026" lon="22.36662">
        <ele>764.090164</ele>
        <time>2022-04-09T11:47:32.209Z</time>
      </trkpt>
      <trkpt lat="42.23028" lon="22.36649">
        <ele>764.272889</ele>
        <time>2022-04-09T11:47:34.192Z</time>
      </trkpt>
      <trkpt lat="42.23032" lon="22.36635">
        <ele>764.461777</ele>
        <time>2022-04-09T11:47:36.205Z</time>
      </trkpt>
      <trkpt lat="42.23037" lon="22.36622">
        <ele>764.657144</ele>
        <time>2022-04-09T11:47:38.235Z</time>
      </trkpt>
      <trkpt lat="42.23041" lon="22.36608">
        <ele>764.84525</ele>
        <time>2022-04-09T11:47:40.196Z</time>
      </trkpt>
      <trkpt lat="42.23047" lon="22.36596">
        <ele>765.031772</ele>
        <time>2022-04-09T11:47:42.193Z</time>
      </trkpt>
      <trkpt lat="42.23053" lon="22.36584">
        <ele>765.220914</ele>
        <time>2022-04-09T11:47:44.194Z</time>
      </trkpt>
      <trkpt lat="42.2306" lon="22.36573">
        <ele>765.418735</ele>
        <time>2022-04-09T11:47:46.212Z</time>
      </trkpt>
      <trkpt lat="42.23066" lon="22.36561">
        <ele>765.601696</ele>
        <time>2022-04-09T11:47:48.189Z</time>
      </trkpt>
      <trkpt lat="42.23072" lon="22.36549">
        <ele>765.652154</ele>
        <time>2022-04-09T11:47:50.210Z</time>
      </trkpt>
      <trkpt lat="42.23078" lon="22.36537">
        <ele>765.452477</ele>
        <time>2022-04-09T11:47:52.179Z</time>
      </trkpt>
      <trkpt lat="42.23083" lon="22.36524">
        <ele>765.259755</ele>
        <time>2022-04-09T11:47:54.188Z</time>
      </trkpt>
      <trkpt lat="42.23086" lon="22.36511">
        <ele>765.070714</ele>
        <time>2022-04-09T11:47:56.219Z</time>
      </trkpt>
      <trkpt lat="42.23089" lon="22.36497">
        <ele>764.883519</ele>
        <time>2022-04-09T11:47:58.192Z</time>
      </trkpt>
      <trkpt lat="42.2309" lon="22.36484">
        <ele>764.706108</ele>
        <time>2022-04-09T11:48:00.248Z</time>
      </trkpt>
      <trkpt lat="42.23089" lon="22.36471">
        <ele>764.529561</ele>
        <time>2022-04-09T11:48:02.174Z</time>
      </trkpt>
      <trkpt lat="42.23086" lon="22.36457">
        <ele>764.32138</ele>
        <time>2022-04-09T11:48:04.168Z</time>
      </trkpt>
      <trkpt lat="42.23083" lon="22.36443">
        <ele>764.125458</ele>
        <time>2022-04-09T11:48:06.223Z</time>
      </trkpt>
      <trkpt lat="42.2308" lon="22.36429">
        <ele>763.930396</ele>
        <time>2022-04-09T11:48:08.189Z</time>
      </trkpt>
      <trkpt lat="42.23077" lon="22.36414">
        <ele>763.719504</ele>
        <time>2022-04-09T11:48:10.212Z</time>
      </trkpt>
      <trkpt lat="42.23073" lon="22.36399">
        <ele>763.503093</ele>
        <time>2022-04-09T11:48:12.181Z</time>
      </trkpt>
      <trkpt lat="42.23069" lon="22.36385">
        <ele>763.292893</ele>
        <time>2022-04-09T11:48:14.182Z</time>
      </trkpt>
      <trkpt lat="42.23064" lon="22.3637">
        <ele>763.075212</ele>
        <time>2022-04-09T11:48:16.181Z</time>
      </trkpt>
      <trkpt lat="42.23061" lon="22.36355">
        <ele>762.856158</ele>
        <time>2022-04-09T11:48:18.193Z</time>
      </trkpt>
      <trkpt lat="42.23057" lon="22.36338">
        <ele>762.618241</ele>
        <time>2022-04-09T11:48:20.185Z</time>
      </trkpt>
      <trkpt lat="42.23053" lon="22.36322">
        <ele>762.227415</ele>
        <time>2022-04-09T11:48:22.188Z</time>
      </trkpt>
      <trkpt lat="42.23049" lon="22.36305">
        <ele>761.037889</ele>
        <time>2022-04-09T11:48:24.194Z</time>
      </trkpt>
      <trkpt lat="42.23045" lon="22.36291">
        <ele>759.973693</ele>
        <time>2022-04-09T11:48:26.175Z</time>
      </trkpt>
      <trkpt lat="42.23042" lon="22.36278">
        <ele>759.024313</ele>
        <time>2022-04-09T11:48:28.210Z</time>
      </trkpt>
      <trkpt lat="42.23038" lon="22.36265">
        <ele>758.048805</ele>
        <time>2022-04-09T11:48:30.190Z</time>
      </trkpt>
      <trkpt lat="42.23034" lon="22.36253">
        <ele>757.100349</ele>
        <time>2022-04-09T11:48:32.212Z</time>
      </trkpt>
      <trkpt lat="42.23028" lon="22.36241">
        <ele>756.062011</ele>
        <time>2022-04-09T11:48:34.191Z</time>
      </trkpt>
      <trkpt lat="42.23023" lon="22.36228">
        <ele>755.040866</ele>
        <time>2022-04-09T11:48:36.190Z</time>
      </trkpt>
      <trkpt lat="42.23017" lon="22.36214">
        <ele>753.935453</ele>
        <time>2022-04-09T11:48:38.239Z</time>
      </trkpt>
      <trkpt lat="42.23011" lon="22.36202">
        <ele>752.893196</ele>
        <time>2022-04-09T11:48:40.186Z</time>
      </trkpt>
      <trkpt lat="42.23003" lon="22.3619">
        <ele>751.822717</ele>
        <time>2022-04-09T11:48:42.180Z</time>
      </trkpt>
      <trkpt lat="42.22996" lon="22.36178">
        <ele>750.76908</ele>
        <time>2022-04-09T11:48:44.212Z</time>
      </trkpt>
      <trkpt lat="42.22988" lon="22.36169">
        <ele>749.74732</ele>
        <time>2022-04-09T11:48:46.194Z</time>
      </trkpt>
      <trkpt lat="42.2298" lon="22.3616">
        <ele>748.732988</ele>
        <time>2022-04-09T11:48:48.187Z</time>
      </trkpt>
      <trkpt lat="42.22971" lon="22.36153">
        <ele>747.776426</ele>
        <time>2022-04-09T11:48:50.191Z</time>
      </trkpt>
      <trkpt lat="42.22963" lon="22.36145">
        <ele>746.863077</ele>
        <time>2022-04-09T11:48:52.185Z</time>
      </trkpt>
      <trkpt lat="42.22951" lon="22.36137">
        <ele>745.585523</ele>
        <time>2022-04-09T11:48:55.223Z</time>
      </trkpt>
      <trkpt lat="42.22939" lon="22.36131">
        <ele>744.861355</ele>
        <time>2022-04-09T11:48:58.188Z</time>
      </trkpt>
      <trkpt lat="42.22927" lon="22.36126">
        <ele>744.267672</ele>
        <time>2022-04-09T11:49:01.230Z</time>
      </trkpt>
      <trkpt lat="42.22916" lon="22.3612">
        <ele>743.658602</ele>
        <time>2022-04-09T11:49:04.189Z</time>
      </trkpt>
      <trkpt lat="42.22903" lon="22.36113">
        <ele>743.018462</ele>
        <time>2022-04-09T11:49:07.237Z</time>
      </trkpt>
      <trkpt lat="42.2289" lon="22.36106">
        <ele>742.347811</ele>
        <time>2022-04-09T11:49:10.180Z</time>
      </trkpt>
      <trkpt lat="42.22878" lon="22.36101">
        <ele>741.72543</ele>
        <time>2022-04-09T11:49:13.186Z</time>
      </trkpt>
      <trkpt lat="42.22866" lon="22.36096">
        <ele>741.090611</ele>
        <time>2022-04-09T11:49:16.199Z</time>
      </trkpt>
      <trkpt lat="42.22853" lon="22.3609">
        <ele>740.440574</ele>
        <time>2022-04-09T11:49:19.203Z</time>
      </trkpt>
      <trkpt lat="42.22844" lon="22.36086">
        <ele>740.002242</ele>
        <time>2022-04-09T11:49:21.197Z</time>
      </trkpt>
      <trkpt lat="42.22832" lon="22.3608">
        <ele>739.337438</ele>
        <time>2022-04-09T11:49:24.189Z</time>
      </trkpt>
      <trkpt lat="42.22823" lon="22.36075">
        <ele>738.872604</ele>
        <time>2022-04-09T11:49:26.208Z</time>
      </trkpt>
      <trkpt lat="42.22813" lon="22.3607">
        <ele>738.381969</ele>
        <time>2022-04-09T11:49:28.210Z</time>
      </trkpt>
      <trkpt lat="42.22803" lon="22.36064">
        <ele>737.844554</ele>
        <time>2022-04-09T11:49:30.200Z</time>
      </trkpt>
      <trkpt lat="42.22793" lon="22.36056">
        <ele>737.258318</ele>
        <time>2022-04-09T11:49:32.201Z</time>
      </trkpt>
      <trkpt lat="42.22783" lon="22.36047">
        <ele>736.684737</ele>
        <time>2022-04-09T11:49:34.192Z</time>
      </trkpt>
      <trkpt lat="42.22774" lon="22.36036">
        <ele>736.660715</ele>
        <time>2022-04-09T11:49:36.183Z</time>
      </trkpt>
      <trkpt lat="42.22767" lon="22.36023">
        <ele>736.647568</ele>
        <time>2022-04-09T11:49:38.200Z</time>
      </trkpt>
      <trkpt lat="42.2276" lon="22.36009">
        <ele>736.633747</ele>
        <time>2022-04-09T11:49:40.206Z</time>
      </trkpt>
      <trkpt lat="42.22753" lon="22.35996">
        <ele>736.619915</ele>
        <time>2022-04-09T11:49:42.192Z</time>
      </trkpt>
      <trkpt lat="42.22746" lon="22.35983">
        <ele>736.606564</ele>
        <time>2022-04-09T11:49:44.201Z</time>
      </trkpt>
      <trkpt lat="42.22738" lon="22.35969">
        <ele>736.592542</ele>
        <time>2022-04-09T11:49:46.220Z</time>
      </trkpt>
      <trkpt lat="42.22731" lon="22.35958">
        <ele>736.579417</ele>
        <time>2022-04-09T11:49:48.203Z</time>
      </trkpt>
      <trkpt lat="42.22722" lon="22.35947">
        <ele>736.566231</ele>
        <time>2022-04-09T11:49:50.195Z</time>
      </trkpt>
      <trkpt lat="42.22712" lon="22.35938">
        <ele>736.552198</ele>
        <time>2022-04-09T11:49:52.226Z</time>
      </trkpt>
      <trkpt lat="42.22702" lon="22.35928">
        <ele>736.538596</ele>
        <time>2022-04-09T11:49:54.204Z</time>
      </trkpt>
      <trkpt lat="42.22692" lon="22.35918">
        <ele>736.524482</ele>
        <time>2022-04-09T11:49:56.209Z</time>
      </trkpt>
      <trkpt lat="42.22683" lon="22.35906">
        <ele>736.510403</ele>
        <time>2022-04-09T11:49:58.187Z</time>
      </trkpt>
      <trkpt lat="42.22673" lon="22.35896">
        <ele>736.496471</ele>
        <time>2022-04-09T11:50:00.212Z</time>
      </trkpt>
      <trkpt lat="42.22663" lon="22.35887">
        <ele>736.482411</ele>
        <time>2022-04-09T11:50:02.197Z</time>
      </trkpt>
      <trkpt lat="42.22652" lon="22.35878">
        <ele>736.269646</ele>
        <time>2022-04-09T11:50:04.206Z</time>
      </trkpt>
      <trkpt lat="42.22642" lon="22.3587">
        <ele>735.587562</ele>
        <time>2022-04-09T11:50:06.186Z</time>
      </trkpt>
      <trkpt lat="42.22632" lon="22.35865">
        <ele>734.944618</ele>
        <time>2022-04-09T11:50:08.203Z</time>
      </trkpt>
      <trkpt lat="42.22622" lon="22.35862">
        <ele>734.336949</ele>
        <time>2022-04-09T11:50:10.223Z</time>
      </trkpt>
      <trkpt lat="42.22612" lon="22.35862">
        <ele>733.702639</ele>
        <time>2022-04-09T11:50:12.181Z</time>
      </trkpt>
      <trkpt lat="42.22601" lon="22.35864">
        <ele>733.058155</ele>
        <time>2022-04-09T11:50:14.183Z</time>
      </trkpt>
      <trkpt lat="42.22593" lon="22.35868">
        <ele>732.500374</ele>
        <time>2022-04-09T11:50:16.177Z</time>
      </trkpt>
      <trkpt lat="42.22584" lon="22.35872">
        <ele>731.92818</ele>
        <time>2022-04-09T11:50:18.182Z</time>
      </trkpt>
      <trkpt lat="42.22575" lon="22.35877">
        <ele>731.353508</ele>
        <time>2022-04-09T11:50:20.205Z</time>
      </trkpt>
      <trkpt lat="42.22563" lon="22.35881">
        <ele>730.622615</ele>
        <time>2022-04-09T11:50:23.194Z</time>
      </trkpt>
      <trkpt lat="42.22552" lon="22.35886">
        <ele>729.900998</ele>
        <time>2022-04-09T11:50:27.187Z</time>
      </trkpt>
      <trkpt lat="42.22541" lon="22.35892">
        <ele>729.1925</ele>
        <time>2022-04-09T11:50:30.189Z</time>
      </trkpt>
      <trkpt lat="42.22532" lon="22.35896">
        <ele>728.625972</ele>
        <time>2022-04-09T11:50:32.186Z</time>
      </trkpt>
      <trkpt lat="42.22522" lon="22.359">
        <ele>728.013659</ele>
        <time>2022-04-09T11:50:34.191Z</time>
      </trkpt>
      <trkpt lat="42.22513" lon="22.35904">
        <ele>727.435894</ele>
        <time>2022-04-09T11:50:36.190Z</time>
      </trkpt>
      <trkpt lat="42.22502" lon="22.3591">
        <ele>726.702287</ele>
        <time>2022-04-09T11:50:39.167Z</time>
      </trkpt>
      <trkpt lat="42.22492" lon="22.35917">
        <ele>726.015993</ele>
        <time>2022-04-09T11:50:42.199Z</time>
      </trkpt>
      <trkpt lat="42.22483" lon="22.35923">
        <ele>725.772568</ele>
        <time>2022-04-09T11:50:44.179Z</time>
      </trkpt>
      <trkpt lat="42.22475" lon="22.35929">
        <ele>726.229504</ele>
        <time>2022-04-09T11:50:46.196Z</time>
      </trkpt>
      <trkpt lat="42.22466" lon="22.35934">
        <ele>726.677438</ele>
        <time>2022-04-09T11:50:48.232Z</time>
      </trkpt>
      <trkpt lat="42.22457" lon="22.35938">
        <ele>727.145963</ele>
        <time>2022-04-09T11:50:50.197Z</time>
      </trkpt>
      <trkpt lat="42.22448" lon="22.35942">
        <ele>727.646105</ele>
        <time>2022-04-09T11:50:52.202Z</time>
      </trkpt>
      <trkpt lat="42.22438" lon="22.35946">
        <ele>728.138058</ele>
        <time>2022-04-09T11:50:54.179Z</time>
      </trkpt>
      <trkpt lat="42.2243" lon="22.35951">
        <ele>728.604673</ele>
        <time>2022-04-09T11:50:56.190Z</time>
      </trkpt>
      <trkpt lat="42.22421" lon="22.35954">
        <ele>729.064089</ele>
        <time>2022-04-09T11:50:58.186Z</time>
      </trkpt>
      <trkpt lat="42.2241" lon="22.35958">
        <ele>729.606013</ele>
        <time>2022-04-09T11:51:00.216Z</time>
      </trkpt>
      <trkpt lat="42.22399" lon="22.3596">
        <ele>730.129869</ele>
        <time>2022-04-09T11:51:02.201Z</time>
      </trkpt>
      <trkpt lat="42.22389" lon="22.35959">
        <ele>730.644608</ele>
        <time>2022-04-09T11:51:04.181Z</time>
      </trkpt>
      <trkpt lat="42.2238" lon="22.35956">
        <ele>731.129667</ele>
        <time>2022-04-09T11:51:06.208Z</time>
      </trkpt>
      <trkpt lat="42.22371" lon="22.3595">
        <ele>731.60129</ele>
        <time>2022-04-09T11:51:08.194Z</time>
      </trkpt>
      <trkpt lat="42.22363" lon="22.35943">
        <ele>732.064549</ele>
        <time>2022-04-09T11:51:10.222Z</time>
      </trkpt>
      <trkpt lat="42.22355" lon="22.35935">
        <ele>732.550199</ele>
        <time>2022-04-09T11:51:12.190Z</time>
      </trkpt>
      <trkpt lat="42.22348" lon="22.35925">
        <ele>733.041979</ele>
        <time>2022-04-09T11:51:14.199Z</time>
      </trkpt>
      <trkpt lat="42.22342" lon="22.35915">
        <ele>733.537144</ele>
        <time>2022-04-09T11:51:16.199Z</time>
      </trkpt>
      <trkpt lat="42.22336" lon="22.35905">
        <ele>734.019908</ele>
        <time>2022-04-09T11:51:18.181Z</time>
      </trkpt>
      <trkpt lat="42.2233" lon="22.35893">
        <ele>734.517997</ele>
        <time>2022-04-09T11:51:20.199Z</time>
      </trkpt>
      <trkpt lat="42.22325" lon="22.35883">
        <ele>735.155425</ele>
        <time>2022-04-09T11:51:22.235Z</time>
      </trkpt>
      <trkpt lat="42.2232" lon="22.35872">
        <ele>735.80457</ele>
        <time>2022-04-09T11:51:24.194Z</time>
      </trkpt>
      <trkpt lat="42.22314" lon="22.3586">
        <ele>736.525803</ele>
        <time>2022-04-09T11:51:26.196Z</time>
      </trkpt>
      <trkpt lat="42.2231" lon="22.35846">
        <ele>737.287354</ele>
        <time>2022-04-09T11:51:28.195Z</time>
      </trkpt>
      <trkpt lat="42.22306" lon="22.35831">
        <ele>738.046838</ele>
        <time>2022-04-09T11:51:30.189Z</time>
      </trkpt>
      <trkpt lat="42.22302" lon="22.35816">
        <ele>738.874773</ele>
        <time>2022-04-09T11:51:32.191Z</time>
      </trkpt>
      <trkpt lat="42.22299" lon="22.35799">
        <ele>739.744139</ele>
        <time>2022-04-09T11:51:34.196Z</time>
      </trkpt>
      <trkpt lat="42.22295" lon="22.3578">
        <ele>740.692521</ele>
        <time>2022-04-09T11:51:36.189Z</time>
      </trkpt>
      <trkpt lat="42.22293" lon="22.35761">
        <ele>741.657925</ele>
        <time>2022-04-09T11:51:38.178Z</time>
      </trkpt>
      <trkpt lat="42.22291" lon="22.35741">
        <ele>742.646947</ele>
        <time>2022-04-09T11:51:40.192Z</time>
      </trkpt>
      <trkpt lat="42.22289" lon="22.35722">
        <ele>743.608331</ele>
        <time>2022-04-09T11:51:42.199Z</time>
      </trkpt>
      <trkpt lat="42.22288" lon="22.35703">
        <ele>744.579778</ele>
        <time>2022-04-09T11:51:44.223Z</time>
      </trkpt>
      <trkpt lat="42.22287" lon="22.35684">
        <ele>745.529098</ele>
        <time>2022-04-09T11:51:46.195Z</time>
      </trkpt>
      <trkpt lat="42.22286" lon="22.35665">
        <ele>746.474501</ele>
        <time>2022-04-09T11:51:48.170Z</time>
      </trkpt>
      <trkpt lat="42.22285" lon="22.35647">
        <ele>745.466883</ele>
        <time>2022-04-09T11:51:50.197Z</time>
      </trkpt>
      <trkpt lat="42.22282" lon="22.3563">
        <ele>744.108616</ele>
        <time>2022-04-09T11:51:52.179Z</time>
      </trkpt>
      <trkpt lat="42.22276" lon="22.35612">
        <ele>742.630411</ele>
        <time>2022-04-09T11:51:54.191Z</time>
      </trkpt>
      <trkpt lat="42.22268" lon="22.35594">
        <ele>741.054774</ele>
        <time>2022-04-09T11:51:56.184Z</time>
      </trkpt>
      <trkpt lat="42.22259" lon="22.35578">
        <ele>739.499721</ele>
        <time>2022-04-09T11:51:58.184Z</time>
      </trkpt>
      <trkpt lat="42.22247" lon="22.35564">
        <ele>737.874193</ele>
        <time>2022-04-09T11:52:00.196Z</time>
      </trkpt>
      <trkpt lat="42.22233" lon="22.35553">
        <ele>736.243022</ele>
        <time>2022-04-09T11:52:02.186Z</time>
      </trkpt>
      <trkpt lat="42.22219" lon="22.35545">
        <ele>734.649588</ele>
        <time>2022-04-09T11:52:04.194Z</time>
      </trkpt>
      <trkpt lat="42.22205" lon="22.35541">
        <ele>733.216898</ele>
        <time>2022-04-09T11:52:06.207Z</time>
      </trkpt>
      <trkpt lat="42.22191" lon="22.3554">
        <ele>731.77144</ele>
        <time>2022-04-09T11:52:08.189Z</time>
      </trkpt>
      <trkpt lat="42.22178" lon="22.35542">
        <ele>730.382425</ele>
        <time>2022-04-09T11:52:10.245Z</time>
      </trkpt>
      <trkpt lat="42.22166" lon="22.35545">
        <ele>729.162395</ele>
        <time>2022-04-09T11:52:12.185Z</time>
      </trkpt>
      <trkpt lat="42.22154" lon="22.35548">
        <ele>728.053769</ele>
        <time>2022-04-09T11:52:14.189Z</time>
      </trkpt>
      <trkpt lat="42.22141" lon="22.35551">
        <ele>727.49544</ele>
        <time>2022-04-09T11:52:16.206Z</time>
      </trkpt>
      <trkpt lat="42.22129" lon="22.35553">
        <ele>726.950422</ele>
        <time>2022-04-09T11:52:18.187Z</time>
      </trkpt>
      <trkpt lat="42.22116" lon="22.35555">
        <ele>726.341501</ele>
        <time>2022-04-09T11:52:20.186Z</time>
      </trkpt>
      <trkpt lat="42.22104" lon="22.35558">
        <ele>725.819516</ele>
        <time>2022-04-09T11:52:22.198Z</time>
      </trkpt>
      <trkpt lat="42.22094" lon="22.35561">
        <ele>725.33151</ele>
        <time>2022-04-09T11:52:24.190Z</time>
      </trkpt>
      <trkpt lat="42.22083" lon="22.35563">
        <ele>724.859975</ele>
        <time>2022-04-09T11:52:26.224Z</time>
      </trkpt>
      <trkpt lat="42.22073" lon="22.35564">
        <ele>724.394957</ele>
        <time>2022-04-09T11:52:28.188Z</time>
      </trkpt>
      <trkpt lat="42.22063" lon="22.35564">
        <ele>723.937001</ele>
        <time>2022-04-09T11:52:30.206Z</time>
      </trkpt>
      <trkpt lat="42.22052" lon="22.35563">
        <ele>723.446368</ele>
        <time>2022-04-09T11:52:32.188Z</time>
      </trkpt>
      <trkpt lat="42.22042" lon="22.3556">
        <ele>723.007667</ele>
        <time>2022-04-09T11:52:34.210Z</time>
      </trkpt>
      <trkpt lat="42.22033" lon="22.35555">
        <ele>722.547144</ele>
        <time>2022-04-09T11:52:36.221Z</time>
      </trkpt>
      <trkpt lat="42.22024" lon="22.35551">
        <ele>722.115719</ele>
        <time>2022-04-09T11:52:38.175Z</time>
      </trkpt>
      <trkpt lat="42.22015" lon="22.35545">
        <ele>721.692636</ele>
        <time>2022-04-09T11:52:40.171Z</time>
      </trkpt>
      <trkpt lat="42.22007" lon="22.35537">
        <ele>721.241801</ele>
        <time>2022-04-09T11:52:42.205Z</time>
      </trkpt>
      <trkpt lat="42.21999" lon="22.35525">
        <ele>720.720374</ele>
        <time>2022-04-09T11:52:44.178Z</time>
      </trkpt>
      <trkpt lat="42.21992" lon="22.35514">
        <ele>720.238257</ele>
        <time>2022-04-09T11:52:46.205Z</time>
      </trkpt>
      <trkpt lat="42.21986" lon="22.35504">
        <ele>720.243648</ele>
        <time>2022-04-09T11:52:48.216Z</time>
      </trkpt>
      <trkpt lat="42.2198" lon="22.35494">
        <ele>720.422166</ele>
        <time>2022-04-09T11:52:50.165Z</time>
      </trkpt>
      <trkpt lat="42.21974" lon="22.35485">
        <ele>720.592939</ele>
        <time>2022-04-09T11:52:52.180Z</time>
      </trkpt>
      <trkpt lat="42.21965" lon="22.35473">
        <ele>720.828585</ele>
        <time>2022-04-09T11:52:55.186Z</time>
      </trkpt>
      <trkpt lat="42.21955" lon="22.35462">
        <ele>721.079826</ele>
        <time>2022-04-09T11:52:58.262Z</time>
      </trkpt>
      <trkpt lat="42.21945" lon="22.35451">
        <ele>721.312306</ele>
        <time>2022-04-09T11:53:01.180Z</time>
      </trkpt>
      <trkpt lat="42.21936" lon="22.35441">
        <ele>721.520756</ele>
        <time>2022-04-09T11:53:04.173Z</time>
      </trkpt>
      <trkpt lat="42.21927" lon="22.35431">
        <ele>721.752507</ele>
        <time>2022-04-09T11:53:07.170Z</time>
      </trkpt>
      <trkpt lat="42.21916" lon="22.35423">
        <ele>721.9786</ele>
        <time>2022-04-09T11:53:10.207Z</time>
      </trkpt>
      <trkpt lat="42.21908" lon="22.35413">
        <ele>722.184383</ele>
        <time>2022-04-09T11:53:13.167Z</time>
      </trkpt>
      <trkpt lat="42.21899" lon="22.35401">
        <ele>722.420935</ele>
        <time>2022-04-09T11:53:16.163Z</time>
      </trkpt>
      <trkpt lat="42.2189" lon="22.35393">
        <ele>722.621238</ele>
        <time>2022-04-09T11:53:18.164Z</time>
      </trkpt>
      <trkpt lat="42.21881" lon="22.35386">
        <ele>722.827885</ele>
        <time>2022-04-09T11:53:20.179Z</time>
      </trkpt>
      <trkpt lat="42.21873" lon="22.35379">
        <ele>723.000439</ele>
        <time>2022-04-09T11:53:22.193Z</time>
      </trkpt>
      <trkpt lat="42.21863" lon="22.35374">
        <ele>723.189163</ele>
        <time>2022-04-09T11:53:24.187Z</time>
      </trkpt>
      <trkpt lat="42.21853" lon="22.35369">
        <ele>723.389376</ele>
        <time>2022-04-09T11:53:26.227Z</time>
      </trkpt>
      <trkpt lat="42.21844" lon="22.35362">
        <ele>723.59082</ele>
        <time>2022-04-09T11:53:28.184Z</time>
      </trkpt>
      <trkpt lat="42.21835" lon="22.35355">
        <ele>723.793205</ele>
        <time>2022-04-09T11:53:30.176Z</time>
      </trkpt>
      <trkpt lat="42.21826" lon="22.35346">
        <ele>724.004363</ele>
        <time>2022-04-09T11:53:32.179Z</time>
      </trkpt>
      <trkpt lat="42.21818" lon="22.35337">
        <ele>724.218458</ele>
        <time>2022-04-09T11:53:34.187Z</time>
      </trkpt>
      <trkpt lat="42.21809" lon="22.35327">
        <ele>724.440692</ele>
        <time>2022-04-09T11:53:36.174Z</time>
      </trkpt>
      <trkpt lat="42.21801" lon="22.35316">
        <ele>724.659206</ele>
        <time>2022-04-09T11:53:38.237Z</time>
      </trkpt>
      <trkpt lat="42.21796" lon="22.35304">
        <ele>724.859091</ele>
        <time>2022-04-09T11:53:40.228Z</time>
      </trkpt>
      <trkpt lat="42.21793" lon="22.3529">
        <ele>725.064398</ele>
        <time>2022-04-09T11:53:42.209Z</time>
      </trkpt>
      <trkpt lat="42.21792" lon="22.35275">
        <ele>725.27732</ele>
        <time>2022-04-09T11:53:44.182Z</time>
      </trkpt>
      <trkpt lat="42.21792" lon="22.35261">
        <ele>725.485455</ele>
        <time>2022-04-09T11:53:46.203Z</time>
      </trkpt>
      <trkpt lat="42.21793" lon="22.35247">
        <ele>725.694682</ele>
        <time>2022-04-09T11:53:48.172Z</time>
      </trkpt>
      <trkpt lat="42.21795" lon="22.35232">
        <ele>725.900318</ele>
        <time>2022-04-09T11:53:50.179Z</time>
      </trkpt>
      <trkpt lat="42.21795" lon="22.35219">
        <ele>726.095803</ele>
        <time>2022-04-09T11:53:52.201Z</time>
      </trkpt>
      <trkpt lat="42.21791" lon="22.35205">
        <ele>726.298425</ele>
        <time>2022-04-09T11:53:54.171Z</time>
      </trkpt>
      <trkpt lat="42.21788" lon="22.35193">
        <ele>726.486259</ele>
        <time>2022-04-09T11:53:56.190Z</time>
      </trkpt>
      <trkpt lat="42.21783" lon="22.35182">
        <ele>726.670443</ele>
        <time>2022-04-09T11:53:58.188Z</time>
      </trkpt>
      <trkpt lat="42.21776" lon="22.35172">
        <ele>726.87275</ele>
        <time>2022-04-09T11:54:00.188Z</time>
      </trkpt>
      <trkpt lat="42.21767" lon="22.35161">
        <ele>726.738042</ele>
        <time>2022-04-09T11:54:02.198Z</time>
      </trkpt>
      <trkpt lat="42.21756" lon="22.35154">
        <ele>726.343361</ele>
        <time>2022-04-09T11:54:04.201Z</time>
      </trkpt>
      <trkpt lat="42.21743" lon="22.35149">
        <ele>725.890386</ele>
        <time>2022-04-09T11:54:06.251Z</time>
      </trkpt>
      <trkpt lat="42.21729" lon="22.35146">
        <ele>725.407635</ele>
        <time>2022-04-09T11:54:08.174Z</time>
      </trkpt>
      <trkpt lat="42.21714" lon="22.35144">
        <ele>724.917855</ele>
        <time>2022-04-09T11:54:10.183Z</time>
      </trkpt>
      <trkpt lat="42.21698" lon="22.35141">
        <ele>724.40109</ele>
        <time>2022-04-09T11:54:12.217Z</time>
      </trkpt>
      <trkpt lat="42.21682" lon="22.35137">
        <ele>723.864583</ele>
        <time>2022-04-09T11:54:14.181Z</time>
      </trkpt>
      <trkpt lat="42.21668" lon="22.3513">
        <ele>723.377349</ele>
        <time>2022-04-09T11:54:16.222Z</time>
      </trkpt>
      <trkpt lat="42.21656" lon="22.35122">
        <ele>722.927498</ele>
        <time>2022-04-09T11:54:18.251Z</time>
      </trkpt>
      <trkpt lat="42.21645" lon="22.35109">
        <ele>722.460749</ele>
        <time>2022-04-09T11:54:20.197Z</time>
      </trkpt>
      <trkpt lat="42.21636" lon="22.35095">
        <ele>722.013618</ele>
        <time>2022-04-09T11:54:22.188Z</time>
      </trkpt>
      <trkpt lat="42.2163" lon="22.35081">
        <ele>721.616251</ele>
        <time>2022-04-09T11:54:24.177Z</time>
      </trkpt>
      <trkpt lat="42.21624" lon="22.35067">
        <ele>721.231741</ele>
        <time>2022-04-09T11:54:26.202Z</time>
      </trkpt>
      <trkpt lat="42.21619" lon="22.35054">
        <ele>720.733957</ele>
        <time>2022-04-09T11:54:28.168Z</time>
      </trkpt>
      <trkpt lat="42.21614" lon="22.35043">
        <ele>720.176519</ele>
        <time>2022-04-09T11:54:30.183Z</time>
      </trkpt>
      <trkpt lat="42.21609" lon="22.35032">
        <ele>719.657996</ele>
        <time>2022-04-09T11:54:32.177Z</time>
      </trkpt>
      <trkpt lat="42.21602" lon="22.35016">
        <ele>718.905247</ele>
        <time>2022-04-09T11:54:35.178Z</time>
      </trkpt>
      <trkpt lat="42.21593" lon="22.35002">
        <ele>718.143116</ele>
        <time>2022-04-09T11:54:38.189Z</time>
      </trkpt>
      <trkpt lat="42.21586" lon="22.34994">
        <ele>717.613657</ele>
        <time>2022-04-09T11:54:40.190Z</time>
      </trkpt>
      <trkpt lat="42.21579" lon="22.34985">
        <ele>717.06215</ele>
        <time>2022-04-09T11:54:42.184Z</time>
      </trkpt>
      <trkpt lat="42.21571" lon="22.34975">
        <ele>716.477589</ele>
        <time>2022-04-09T11:54:44.192Z</time>
      </trkpt>
      <trkpt lat="42.21562" lon="22.34968">
        <ele>715.898171</ele>
        <time>2022-04-09T11:54:46.180Z</time>
      </trkpt>
      <trkpt lat="42.21552" lon="22.34962">
        <ele>715.307462</ele>
        <time>2022-04-09T11:54:48.184Z</time>
      </trkpt>
      <trkpt lat="42.21543" lon="22.34956">
        <ele>714.769222</ele>
        <time>2022-04-09T11:54:50.184Z</time>
      </trkpt>
      <trkpt lat="42.21534" lon="22.34949">
        <ele>714.179196</ele>
        <time>2022-04-09T11:54:52.217Z</time>
      </trkpt>
      <trkpt lat="42.21525" lon="22.34943">
        <ele>713.605801</ele>
        <time>2022-04-09T11:54:54.200Z</time>
      </trkpt>
      <trkpt lat="42.21516" lon="22.34936">
        <ele>713.057802</ele>
        <time>2022-04-09T11:54:56.179Z</time>
      </trkpt>
      <trkpt lat="42.21508" lon="22.3493">
        <ele>712.50587</ele>
        <time>2022-04-09T11:54:58.222Z</time>
      </trkpt>
      <trkpt lat="42.21498" lon="22.34924">
        <ele>711.943727</ele>
        <time>2022-04-09T11:55:00.179Z</time>
      </trkpt>
      <trkpt lat="42.2149" lon="22.34917">
        <ele>711.402675</ele>
        <time>2022-04-09T11:55:02.183Z</time>
      </trkpt>
      <trkpt lat="42.21482" lon="22.34909">
        <ele>711.480906</ele>
        <time>2022-04-09T11:55:04.180Z</time>
      </trkpt>
      <trkpt lat="42.21475" lon="22.349">
        <ele>712.575753</ele>
        <time>2022-04-09T11:55:06.204Z</time>
      </trkpt>
      <trkpt lat="42.21467" lon="22.3489">
        <ele>713.758785</ele>
        <time>2022-04-09T11:55:08.208Z</time>
      </trkpt>
      <trkpt lat="42.2146" lon="22.3488">
        <ele>714.829206</ele>
        <time>2022-04-09T11:55:10.189Z</time>
      </trkpt>
      <trkpt lat="42.21453" lon="22.34868">
        <ele>716.069987</ele>
        <time>2022-04-09T11:55:13.182Z</time>
      </trkpt>
      <trkpt lat="42.21447" lon="22.34859">
        <ele>717.044215</ele>
        <time>2022-04-09T11:55:17.195Z</time>
      </trkpt>
      <trkpt lat="42.21442" lon="22.34849">
        <ele>718.032564</ele>
        <time>2022-04-09T11:55:22.176Z</time>
      </trkpt>
      <trkpt lat="42.21439" lon="22.34836">
        <ele>719.129518</ele>
        <time>2022-04-09T11:55:27.185Z</time>
      </trkpt>
      <trkpt lat="42.21436" lon="22.34823">
        <ele>720.204004</ele>
        <time>2022-04-09T11:55:32.191Z</time>
      </trkpt>
      <trkpt lat="42.21435" lon="22.3481">
        <ele>721.210946</ele>
        <time>2022-04-09T11:55:36.207Z</time>
      </trkpt>
      <trkpt lat="42.21432" lon="22.34798">
        <ele>722.238807</ele>
        <time>2022-04-09T11:55:40.184Z</time>
      </trkpt>
      <trkpt lat="42.21428" lon="22.34785">
        <ele>723.402026</ele>
        <time>2022-04-09T11:55:44.186Z</time>
      </trkpt>
      <trkpt lat="42.21425" lon="22.34772">
        <ele>724.442829</ele>
        <time>2022-04-09T11:55:48.177Z</time>
      </trkpt>
      <trkpt lat="42.21422" lon="22.3476">
        <ele>725.471218</ele>
        <time>2022-04-09T11:55:52.185Z</time>
      </trkpt>
      <trkpt lat="42.21419" lon="22.34747">
        <ele>726.565033</ele>
        <time>2022-04-09T11:55:56.238Z</time>
      </trkpt>
      <trkpt lat="42.21417" lon="22.34731">
        <ele>727.829679</ele>
        <time>2022-04-09T11:56:00.196Z</time>
      </trkpt>
      <trkpt lat="42.21414" lon="22.34719">
        <ele>728.824296</ele>
        <time>2022-04-09T11:56:03.193Z</time>
      </trkpt>
      <trkpt lat="42.21409" lon="22.34707">
        <ele>729.952006</ele>
        <time>2022-04-09T11:56:06.241Z</time>
      </trkpt>
      <trkpt lat="42.214" lon="22.34694">
        <ele>729.676306</ele>
        <time>2022-04-09T11:56:09.314Z</time>
      </trkpt>
      <trkpt lat="42.21393" lon="22.34685">
        <ele>728.614329</ele>
        <time>2022-04-09T11:56:11.192Z</time>
      </trkpt>
      <trkpt lat="42.21385" lon="22.34676">
        <ele>727.482243</ele>
        <time>2022-04-09T11:56:13.204Z</time>
      </trkpt>
      <trkpt lat="42.21374" lon="22.3467">
        <ele>726.199224</ele>
        <time>2022-04-09T11:56:15.174Z</time>
      </trkpt>
      <trkpt lat="42.21361" lon="22.34665">
        <ele>724.744547</ele>
        <time>2022-04-09T11:56:17.185Z</time>
      </trkpt>
      <trkpt lat="42.21345" lon="22.34663">
        <ele>723.050968</ele>
        <time>2022-04-09T11:56:19.196Z</time>
      </trkpt>
      <trkpt lat="42.21334" lon="22.34658">
        <ele>721.753525</ele>
        <time>2022-04-09T11:56:21.180Z</time>
      </trkpt>
      <trkpt lat="42.21324" lon="22.34654">
        <ele>720.644608</ele>
        <time>2022-04-09T11:56:23.240Z</time>
      </trkpt>
      <trkpt lat="42.21315" lon="22.34648">
        <ele>719.576517</ele>
        <time>2022-04-09T11:56:25.188Z</time>
      </trkpt>
      <trkpt lat="42.21306" lon="22.34642">
        <ele>718.518908</ele>
        <time>2022-04-09T11:56:27.199Z</time>
      </trkpt>
      <trkpt lat="42.21297" lon="22.34636">
        <ele>717.45554</ele>
        <time>2022-04-09T11:56:29.200Z</time>
      </trkpt>
      <trkpt lat="42.21288" lon="22.34628">
        <ele>716.295049</ele>
        <time>2022-04-09T11:56:31.193Z</time>
      </trkpt>
      <trkpt lat="42.21278" lon="22.34619">
        <ele>715.078619</ele>
        <time>2022-04-09T11:56:33.183Z</time>
      </trkpt>
      <trkpt lat="42.2127" lon="22.34612">
        <ele>714.004124</ele>
        <time>2022-04-09T11:56:35.189Z</time>
      </trkpt>
      <trkpt lat="42.21257" lon="22.34607">
        <ele>712.591286</ele>
        <time>2022-04-09T11:56:38.175Z</time>
      </trkpt>
      <trkpt lat="42.21245" lon="22.34604">
        <ele>711.23255</ele>
        <time>2022-04-09T11:56:41.182Z</time>
      </trkpt>
      <trkpt lat="42.21236" lon="22.34601">
        <ele>710.919635</ele>
        <time>2022-04-09T11:56:44.187Z</time>
      </trkpt>
      <trkpt lat="42.21228" lon="22.34595">
        <ele>710.616326</ele>
        <time>2022-04-09T11:56:47.206Z</time>
      </trkpt>
      <trkpt lat="42.21219" lon="22.34587">
        <ele>710.262066</ele>
        <time>2022-04-09T11:56:50.185Z</time>
      </trkpt>
      <trkpt lat="42.21209" lon="22.3458">
        <ele>709.904041</ele>
        <time>2022-04-09T11:56:53.188Z</time>
      </trkpt>
      <trkpt lat="42.21199" lon="22.34571">
        <ele>709.495491</ele>
        <time>2022-04-09T11:56:56.217Z</time>
      </trkpt>
      <trkpt lat="42.21192" lon="22.34563">
        <ele>709.188573</ele>
        <time>2022-04-09T11:56:58.177Z</time>
      </trkpt>
      <trkpt lat="42.21185" lon="22.34554">
        <ele>708.884635</ele>
        <time>2022-04-09T11:57:00.184Z</time>
      </trkpt>
      <trkpt lat="42.2118" lon="22.34544">
        <ele>708.573516</ele>
        <time>2022-04-09T11:57:02.184Z</time>
      </trkpt>
      <trkpt lat="42.21175" lon="22.34533">
        <ele>708.272499</ele>
        <time>2022-04-09T11:57:04.188Z</time>
      </trkpt>
      <trkpt lat="42.21171" lon="22.34522">
        <ele>707.970654</ele>
        <time>2022-04-09T11:57:06.234Z</time>
      </trkpt>
      <trkpt lat="42.21167" lon="22.34505">
        <ele>707.528342</ele>
        <time>2022-04-09T11:57:09.187Z</time>
      </trkpt>
      <trkpt lat="42.21163" lon="22.3449">
        <ele>707.123641</ele>
        <time>2022-04-09T11:57:12.189Z</time>
      </trkpt>
      <trkpt lat="42.2116" lon="22.34475">
        <ele>706.743522</ele>
        <time>2022-04-09T11:57:15.186Z</time>
      </trkpt>
      <trkpt lat="42.21157" lon="22.34462">
        <ele>706.42919</ele>
        <time>2022-04-09T11:57:18.183Z</time>
      </trkpt>
      <trkpt lat="42.2115" lon="22.34454">
        <ele>706.118539</ele>
        <time>2022-04-09T11:57:26.199Z</time>
      </trkpt>
      <trkpt lat="42.21145" lon="22.34443">
        <ele>705.808829</ele>
        <time>2022-04-09T11:57:31.187Z</time>
      </trkpt>
      <trkpt lat="42.21138" lon="22.34431">
        <ele>705.424695</ele>
        <time>2022-04-09T11:57:35.192Z</time>
      </trkpt>
      <trkpt lat="42.2113" lon="22.34422">
        <ele>705.192692</ele>
        <time>2022-04-09T11:57:38.182Z</time>
      </trkpt>
      <trkpt lat="42.21121" lon="22.34412">
        <ele>705.024319</ele>
        <time>2022-04-09T11:57:41.217Z</time>
      </trkpt>
      <trkpt lat="42.21112" lon="22.34405">
        <ele>704.857087</ele>
        <time>2022-04-09T11:57:44.200Z</time>
      </trkpt>
      <trkpt lat="42.21101" lon="22.34397">
        <ele>704.675786</ele>
        <time>2022-04-09T11:57:47.175Z</time>
      </trkpt>
      <trkpt lat="42.2109" lon="22.3439">
        <ele>704.483085</ele>
        <time>2022-04-09T11:57:50.197Z</time>
      </trkpt>
      <trkpt lat="42.21081" lon="22.34386">
        <ele>704.343684</ele>
        <time>2022-04-09T11:57:52.194Z</time>
      </trkpt>
      <trkpt lat="42.21072" lon="22.34383">
        <ele>704.20136</ele>
        <time>2022-04-09T11:57:54.184Z</time>
      </trkpt>
      <trkpt lat="42.21063" lon="22.34378">
        <ele>704.055507</ele>
        <time>2022-04-09T11:57:56.184Z</time>
      </trkpt>
      <trkpt lat="42.21054" lon="22.34374">
        <ele>703.916973</ele>
        <time>2022-04-09T11:57:58.196Z</time>
      </trkpt>
      <trkpt lat="42.21043" lon="22.34366">
        <ele>703.725558</ele>
        <time>2022-04-09T11:58:01.246Z</time>
      </trkpt>
      <trkpt lat="42.21033" lon="22.34359">
        <ele>703.551233</ele>
        <time>2022-04-09T11:58:04.180Z</time>
      </trkpt>
      <trkpt lat="42.21026" lon="22.3435">
        <ele>703.406537</ele>
        <time>2022-04-09T11:58:07.203Z</time>
      </trkpt>
      <trkpt lat="42.21036" lon="22.3435">
        <ele>703.253744</ele>
        <time>2022-04-09T11:58:11.222Z</time>
      </trkpt>
      <trkpt lat="42.21046" lon="22.34357">
        <ele>703.077083</ele>
        <time>2022-04-09T11:58:13.177Z</time>
      </trkpt>
      <trkpt lat="42.21059" lon="22.34364">
        <ele>702.875586</ele>
        <time>2022-04-09T11:58:15.190Z</time>
      </trkpt>
      <trkpt lat="42.21072" lon="22.34369">
        <ele>702.664663</ele>
        <time>2022-04-09T11:58:17.196Z</time>
      </trkpt>
      <trkpt lat="42.21086" lon="22.34369">
        <ele>702.483326</ele>
        <time>2022-04-09T11:58:19.204Z</time>
      </trkpt>
      <trkpt lat="42.21097" lon="22.34359">
        <ele>702.321358</ele>
        <time>2022-04-09T11:58:21.188Z</time>
      </trkpt>
      <trkpt lat="42.21107" lon="22.34346">
        <ele>702.160978</ele>
        <time>2022-04-09T11:58:23.187Z</time>
      </trkpt>
      <trkpt lat="42.21115" lon="22.34331">
        <ele>702.00211</ele>
        <time>2022-04-09T11:58:25.185Z</time>
      </trkpt>
      <trkpt lat="42.2112" lon="22.34316">
        <ele>701.86084</ele>
        <time>2022-04-09T11:58:27.195Z</time>
      </trkpt>
      <trkpt lat="42.2112" lon="22.343">
        <ele>701.725341</ele>
        <time>2022-04-09T11:58:29.201Z</time>
      </trkpt>
      <trkpt lat="42.21115" lon="22.34288">
        <ele>701.607268</ele>
        <time>2022-04-09T11:58:31.176Z</time>
      </trkpt>
      <trkpt lat="42.21108" lon="22.34279">
        <ele>701.495302</ele>
        <time>2022-04-09T11:58:33.217Z</time>
      </trkpt>
      <trkpt lat="42.21101" lon="22.3427">
        <ele>701.382716</ele>
        <time>2022-04-09T11:58:35.190Z</time>
      </trkpt>
      <trkpt lat="42.21092" lon="22.34256">
        <ele>701.228026</ele>
        <time>2022-04-09T11:58:38.212Z</time>
      </trkpt>
      <trkpt lat="42.21085" lon="22.34243">
        <ele>701.080996</ele>
        <time>2022-04-09T11:58:41.184Z</time>
      </trkpt>
      <trkpt lat="42.21078" lon="22.34231">
        <ele>700.951699</ele>
        <time>2022-04-09T11:58:44.198Z</time>
      </trkpt>
      <trkpt lat="42.21071" lon="22.34219">
        <ele>700.815752</ele>
        <time>2022-04-09T11:58:47.204Z</time>
      </trkpt>
      <trkpt lat="42.21063" lon="22.34205">
        <ele>700.670096</ele>
        <time>2022-04-09T11:58:50.204Z</time>
      </trkpt>
      <trkpt lat="42.21056" lon="22.34192">
        <ele>700.527923</ele>
        <time>2022-04-09T11:58:53.184Z</time>
      </trkpt>
      <trkpt lat="42.21052" lon="22.3418">
        <ele>700.332098</ele>
        <time>2022-04-09T11:58:56.237Z</time>
      </trkpt>
      <trkpt lat="42.21059" lon="22.34169">
        <ele>699.99361</ele>
        <time>2022-04-09T11:59:01.254Z</time>
      </trkpt>
      <trkpt lat="42.21068" lon="22.34164">
        <ele>699.681441</ele>
        <time>2022-04-09T11:59:05.219Z</time>
      </trkpt>
      <trkpt lat="42.21073" lon="22.34152">
        <ele>699.389541</ele>
        <time>2022-04-09T11:59:10.211Z</time>
      </trkpt>
      <trkpt lat="42.21076" lon="22.3414">
        <ele>699.088957</ele>
        <time>2022-04-09T11:59:14.188Z</time>
      </trkpt>
      <trkpt lat="42.21071" lon="22.34125">
        <ele>698.712579</ele>
        <time>2022-04-09T11:59:18.187Z</time>
      </trkpt>
      <trkpt lat="42.21062" lon="22.34116">
        <ele>698.381836</ele>
        <time>2022-04-09T11:59:21.194Z</time>
      </trkpt>
      <trkpt lat="42.21054" lon="22.34108">
        <ele>698.063014</ele>
        <time>2022-04-09T11:59:24.224Z</time>
      </trkpt>
      <trkpt lat="42.21045" lon="22.34101">
        <ele>697.736335</ele>
        <time>2022-04-09T11:59:27.202Z</time>
      </trkpt>
      <trkpt lat="42.21036" lon="22.34094">
        <ele>697.406032</ele>
        <time>2022-04-09T11:59:30.190Z</time>
      </trkpt>
      <trkpt lat="42.21026" lon="22.34086">
        <ele>697.065362</ele>
        <time>2022-04-09T11:59:33.188Z</time>
      </trkpt>
      <trkpt lat="42.21014" lon="22.3408">
        <ele>696.673754</ele>
        <time>2022-04-09T11:59:36.222Z</time>
      </trkpt>
      <trkpt lat="42.21006" lon="22.34075">
        <ele>696.379329</ele>
        <time>2022-04-09T11:59:38.194Z</time>
      </trkpt>
      <trkpt lat="42.20997" lon="22.3407">
        <ele>696.087914</ele>
        <time>2022-04-09T11:59:40.186Z</time>
      </trkpt>
      <trkpt lat="42.20989" lon="22.34064">
        <ele>695.796929</ele>
        <time>2022-04-09T11:59:42.177Z</time>
      </trkpt>
      <trkpt lat="42.20977" lon="22.34054">
        <ele>695.376284</ele>
        <time>2022-04-09T11:59:45.235Z</time>
      </trkpt>
      <trkpt lat="42.20969" lon="22.34049">
        <ele>695.091217</ele>
        <time>2022-04-09T11:59:47.220Z</time>
      </trkpt>
      <trkpt lat="42.20961" lon="22.34043">
        <ele>694.852361</ele>
        <time>2022-04-09T11:59:49.188Z</time>
      </trkpt>
      <trkpt lat="42.20953" lon="22.34037">
        <ele>694.730475</ele>
        <time>2022-04-09T11:59:51.187Z</time>
      </trkpt>
      <trkpt lat="42.20942" lon="22.34027">
        <ele>694.554773</ele>
        <time>2022-04-09T11:59:54.190Z</time>
      </trkpt>
      <trkpt lat="42.20935" lon="22.3402">
        <ele>694.431909</ele>
        <time>2022-04-09T11:59:56.184Z</time>
      </trkpt>
      <trkpt lat="42.20928" lon="22.34012">
        <ele>694.302943</ele>
        <time>2022-04-09T11:59:58.192Z</time>
      </trkpt>
      <trkpt lat="42.2092" lon="22.34004">
        <ele>694.177343</ele>
        <time>2022-04-09T12:00:00.192Z</time>
      </trkpt>
      <trkpt lat="42.20911" lon="22.33993">
        <ele>694.007612</ele>
        <time>2022-04-09T12:00:03.166Z</time>
      </trkpt>
      <trkpt lat="42.20902" lon="22.33982">
        <ele>693.842197</ele>
        <time>2022-04-09T12:00:06.239Z</time>
      </trkpt>
      <trkpt lat="42.20895" lon="22.33974">
        <ele>693.713394</ele>
        <time>2022-04-09T12:00:08.180Z</time>
      </trkpt>
      <trkpt lat="42.20888" lon="22.33965">
        <ele>693.589914</ele>
        <time>2022-04-09T12:00:10.187Z</time>
      </trkpt>
      <trkpt lat="42.20883" lon="22.33955">
        <ele>693.469041</ele>
        <time>2022-04-09T12:00:12.179Z</time>
      </trkpt>
      <trkpt lat="42.20877" lon="22.33945">
        <ele>693.337684</ele>
        <time>2022-04-09T12:00:14.187Z</time>
      </trkpt>
      <trkpt lat="42.20871" lon="22.33935">
        <ele>693.20629</ele>
        <time>2022-04-09T12:00:16.178Z</time>
      </trkpt>
      <trkpt lat="42.20866" lon="22.33923">
        <ele>693.06877</ele>
        <time>2022-04-09T12:00:18.199Z</time>
      </trkpt>
      <trkpt lat="42.2086" lon="22.3391">
        <ele>692.922602</ele>
        <time>2022-04-09T12:00:20.202Z</time>
      </trkpt>
      <trkpt lat="42.20855" lon="22.33897">
        <ele>692.774454</ele>
        <time>2022-04-09T12:00:22.180Z</time>
      </trkpt>
      <trkpt lat="42.2085" lon="22.33884">
        <ele>692.626683</ele>
        <time>2022-04-09T12:00:24.183Z</time>
      </trkpt>
      <trkpt lat="42.20845" lon="22.33872">
        <ele>692.48701</ele>
        <time>2022-04-09T12:00:26.193Z</time>
      </trkpt>
      <trkpt lat="42.2084" lon="22.33859">
        <ele>692.388078</ele>
        <time>2022-04-09T12:00:28.185Z</time>
      </trkpt>
      <trkpt lat="42.20836" lon="22.33846">
        <ele>692.307987</ele>
        <time>2022-04-09T12:00:30.201Z</time>
      </trkpt>
      <trkpt lat="42.20831" lon="22.33834">
        <ele>692.227333</ele>
        <time>2022-04-09T12:00:32.177Z</time>
      </trkpt>
      <trkpt lat="42.20827" lon="22.33822">
        <ele>692.156267</ele>
        <time>2022-04-09T12:00:34.186Z</time>
      </trkpt>
      <trkpt lat="42.20822" lon="22.33811">
        <ele>692.07864</ele>
        <time>2022-04-09T12:00:36.190Z</time>
      </trkpt>
      <trkpt lat="42.20817" lon="22.33796">
        <ele>691.986931</ele>
        <time>2022-04-09T12:00:38.186Z</time>
      </trkpt>
      <trkpt lat="42.20813" lon="22.33782">
        <ele>691.901651</ele>
        <time>2022-04-09T12:00:40.219Z</time>
      </trkpt>
      <trkpt lat="42.2081" lon="22.33769">
        <ele>691.822787</ele>
        <time>2022-04-09T12:00:42.189Z</time>
      </trkpt>
      <trkpt lat="42.20806" lon="22.33756">
        <ele>691.745256</ele>
        <time>2022-04-09T12:00:44.177Z</time>
      </trkpt>
      <trkpt lat="42.20803" lon="22.33744">
        <ele>691.670668</ele>
        <time>2022-04-09T12:00:46.192Z</time>
      </trkpt>
      <trkpt lat="42.208" lon="22.33731">
        <ele>691.594746</ele>
        <time>2022-04-09T12:00:48.205Z</time>
      </trkpt>
      <trkpt lat="42.20796" lon="22.33719">
        <ele>691.518548</ele>
        <time>2022-04-09T12:00:50.204Z</time>
      </trkpt>
      <trkpt lat="42.20793" lon="22.33707">
        <ele>691.443694</ele>
        <time>2022-04-09T12:00:52.183Z</time>
      </trkpt>
      <trkpt lat="42.2079" lon="22.33694">
        <ele>691.370178</ele>
        <time>2022-04-09T12:00:54.188Z</time>
      </trkpt>
      <trkpt lat="42.20786" lon="22.33683">
        <ele>691.297988</ele>
        <time>2022-04-09T12:00:56.196Z</time>
      </trkpt>
      <trkpt lat="42.20783" lon="22.33671">
        <ele>691.22714</ele>
        <time>2022-04-09T12:00:58.196Z</time>
      </trkpt>
      <trkpt lat="42.2078" lon="22.33659">
        <ele>691.155172</ele>
        <time>2022-04-09T12:01:00.187Z</time>
      </trkpt>
      <trkpt lat="42.20775" lon="22.33643">
        <ele>691.033896</ele>
        <time>2022-04-09T12:01:03.196Z</time>
      </trkpt>
      <trkpt lat="42.20772" lon="22.33631">
        <ele>690.829095</ele>
        <time>2022-04-09T12:01:05.190Z</time>
      </trkpt>
      <trkpt lat="42.20767" lon="22.33615">
        <ele>690.536216</ele>
        <time>2022-04-09T12:01:08.188Z</time>
      </trkpt>
      <trkpt lat="42.20761" lon="22.336">
        <ele>690.24252</ele>
        <time>2022-04-09T12:01:11.189Z</time>
      </trkpt>
      <trkpt lat="42.20754" lon="22.33584">
        <ele>689.939917</ele>
        <time>2022-04-09T12:01:14.187Z</time>
      </trkpt>
      <trkpt lat="42.20747" lon="22.33569">
        <ele>689.642316</ele>
        <time>2022-04-09T12:01:17.192Z</time>
      </trkpt>
      <trkpt lat="42.20739" lon="22.33555">
        <ele>689.348018</ele>
        <time>2022-04-09T12:01:20.203Z</time>
      </trkpt>
      <trkpt lat="42.2073" lon="22.33542">
        <ele>689.047566</ele>
        <time>2022-04-09T12:01:23.192Z</time>
      </trkpt>
      <trkpt lat="42.20723" lon="22.33534">
        <ele>688.837989</ele>
        <time>2022-04-09T12:01:25.199Z</time>
      </trkpt>
      <trkpt lat="42.20717" lon="22.33526">
        <ele>688.634978</ele>
        <time>2022-04-09T12:01:27.189Z</time>
      </trkpt>
      <trkpt lat="42.20709" lon="22.33518">
        <ele>688.423089</ele>
        <time>2022-04-09T12:01:29.212Z</time>
      </trkpt>
      <trkpt lat="42.20702" lon="22.3351">
        <ele>688.209867</ele>
        <time>2022-04-09T12:01:31.184Z</time>
      </trkpt>
      <trkpt lat="42.20695" lon="22.33502">
        <ele>687.995386</ele>
        <time>2022-04-09T12:01:33.176Z</time>
      </trkpt>
      <trkpt lat="42.20687" lon="22.33495">
        <ele>687.781045</ele>
        <time>2022-04-09T12:01:35.184Z</time>
      </trkpt>
      <trkpt lat="42.20679" lon="22.33488">
        <ele>687.563007</ele>
        <time>2022-04-09T12:01:37.185Z</time>
      </trkpt>
      <trkpt lat="42.20671" lon="22.33481">
        <ele>687.350606</ele>
        <time>2022-04-09T12:01:39.180Z</time>
      </trkpt>
      <trkpt lat="42.20661" lon="22.33471">
        <ele>687.074274</ele>
        <time>2022-04-09T12:01:42.190Z</time>
      </trkpt>
      <trkpt lat="42.20652" lon="22.33461">
        <ele>686.723491</ele>
        <time>2022-04-09T12:01:45.192Z</time>
      </trkpt>
      <trkpt lat="42.20645" lon="22.33453">
        <ele>686.427247</ele>
        <time>2022-04-09T12:01:47.192Z</time>
      </trkpt>
      <trkpt lat="42.20637" lon="22.33445">
        <ele>686.111755</ele>
        <time>2022-04-09T12:01:49.181Z</time>
      </trkpt>
      <trkpt lat="42.20629" lon="22.33437">
        <ele>685.786224</ele>
        <time>2022-04-09T12:01:51.179Z</time>
      </trkpt>
      <trkpt lat="42.20622" lon="22.33429">
        <ele>685.471942</ele>
        <time>2022-04-09T12:01:53.202Z</time>
      </trkpt>
      <trkpt lat="42.20613" lon="22.33421">
        <ele>685.114456</ele>
        <time>2022-04-09T12:01:55.180Z</time>
      </trkpt>
      <trkpt lat="42.20604" lon="22.33413">
        <ele>684.779894</ele>
        <time>2022-04-09T12:01:57.184Z</time>
      </trkpt>
      <trkpt lat="42.20596" lon="22.33405">
        <ele>684.450605</ele>
        <time>2022-04-09T12:01:59.187Z</time>
      </trkpt>
      <trkpt lat="42.20588" lon="22.33397">
        <ele>684.12162</ele>
        <time>2022-04-09T12:02:01.195Z</time>
      </trkpt>
      <trkpt lat="42.2058" lon="22.33389">
        <ele>683.801623</ele>
        <time>2022-04-09T12:02:03.171Z</time>
      </trkpt>
      <trkpt lat="42.20573" lon="22.33381">
        <ele>683.491399</ele>
        <time>2022-04-09T12:02:05.185Z</time>
      </trkpt>
      <trkpt lat="42.20565" lon="22.33373">
        <ele>683.165866</ele>
        <time>2022-04-09T12:02:07.202Z</time>
      </trkpt>
      <trkpt lat="42.20557" lon="22.33364">
        <ele>682.825815</ele>
        <time>2022-04-09T12:02:09.188Z</time>
      </trkpt>
      <trkpt lat="42.20548" lon="22.33356">
        <ele>682.487188</ele>
        <time>2022-04-09T12:02:11.199Z</time>
      </trkpt>
      <trkpt lat="42.2054" lon="22.33348">
        <ele>682.163566</ele>
        <time>2022-04-09T12:02:13.172Z</time>
      </trkpt>
      <trkpt lat="42.20532" lon="22.33341">
        <ele>681.834259</ele>
        <time>2022-04-09T12:02:15.204Z</time>
      </trkpt>
      <trkpt lat="42.20523" lon="22.33334">
        <ele>681.492997</ele>
        <time>2022-04-09T12:02:17.183Z</time>
      </trkpt>
      <trkpt lat="42.20513" lon="22.33327">
        <ele>681.146335</ele>
        <time>2022-04-09T12:02:19.184Z</time>
      </trkpt>
      <trkpt lat="42.20503" lon="22.33321">
        <ele>681.136618</ele>
        <time>2022-04-09T12:02:21.184Z</time>
      </trkpt>
      <trkpt lat="42.20492" lon="22.33316">
        <ele>681.165776</ele>
        <time>2022-04-09T12:02:23.175Z</time>
      </trkpt>
      <trkpt lat="42.20481" lon="22.33312">
        <ele>681.196172</ele>
        <time>2022-04-09T12:02:25.187Z</time>
      </trkpt>
      <trkpt lat="42.20471" lon="22.3331">
        <ele>681.22372</ele>
        <time>2022-04-09T12:02:27.184Z</time>
      </trkpt>
      <trkpt lat="42.2046" lon="22.33309">
        <ele>681.250913</ele>
        <time>2022-04-09T12:02:29.207Z</time>
      </trkpt>
      <trkpt lat="42.2045" lon="22.33308">
        <ele>681.278012</ele>
        <time>2022-04-09T12:02:31.181Z</time>
      </trkpt>
      <trkpt lat="42.20439" lon="22.33309">
        <ele>681.304368</ele>
        <time>2022-04-09T12:02:33.185Z</time>
      </trkpt>
      <trkpt lat="42.20429" lon="22.3331">
        <ele>681.330037</ele>
        <time>2022-04-09T12:02:35.186Z</time>
      </trkpt>
      <trkpt lat="42.2042" lon="22.33313">
        <ele>681.354166</ele>
        <time>2022-04-09T12:02:37.176Z</time>
      </trkpt>
      <trkpt lat="42.20412" lon="22.33317">
        <ele>681.377763</ele>
        <time>2022-04-09T12:02:39.202Z</time>
      </trkpt>
      <trkpt lat="42.20403" lon="22.33321">
        <ele>681.401543</ele>
        <time>2022-04-09T12:02:41.182Z</time>
      </trkpt>
      <trkpt lat="42.20394" lon="22.33326">
        <ele>681.42673</ele>
        <time>2022-04-09T12:02:43.182Z</time>
      </trkpt>
      <trkpt lat="42.20385" lon="22.33331">
        <ele>681.452231</ele>
        <time>2022-04-09T12:02:45.204Z</time>
      </trkpt>
      <trkpt lat="42.20376" lon="22.33336">
        <ele>681.47749</ele>
        <time>2022-04-09T12:02:47.222Z</time>
      </trkpt>
      <trkpt lat="42.20367" lon="22.33342">
        <ele>681.501667</ele>
        <time>2022-04-09T12:02:49.181Z</time>
      </trkpt>
      <trkpt lat="42.20359" lon="22.33347">
        <ele>681.526063</ele>
        <time>2022-04-09T12:02:51.185Z</time>
      </trkpt>
      <trkpt lat="42.2035" lon="22.33353">
        <ele>681.550411</ele>
        <time>2022-04-09T12:02:53.202Z</time>
      </trkpt>
      <trkpt lat="42.20342" lon="22.33359">
        <ele>681.574072</ele>
        <time>2022-04-09T12:02:55.183Z</time>
      </trkpt>
      <trkpt lat="42.20331" lon="22.33366">
        <ele>681.781838</ele>
        <time>2022-04-09T12:02:58.230Z</time>
      </trkpt>
      <trkpt lat="42.2032" lon="22.33373">
        <ele>681.981208</ele>
        <time>2022-04-09T12:03:01.179Z</time>
      </trkpt>
      <trkpt lat="42.20308" lon="22.33381">
        <ele>682.191803</ele>
        <time>2022-04-09T12:03:04.185Z</time>
      </trkpt>
      <trkpt lat="42.20296" lon="22.33389">
        <ele>682.409672</ele>
        <time>2022-04-09T12:03:07.204Z</time>
      </trkpt>
      <trkpt lat="42.20284" lon="22.33397">
        <ele>682.630597</ele>
        <time>2022-04-09T12:03:10.189Z</time>
      </trkpt>
      <trkpt lat="42.20275" lon="22.33402">
        <ele>682.789211</ele>
        <time>2022-04-09T12:03:12.186Z</time>
      </trkpt>
      <trkpt lat="42.20267" lon="22.33406">
        <ele>682.939889</ele>
        <time>2022-04-09T12:03:14.181Z</time>
      </trkpt>
      <trkpt lat="42.20257" lon="22.334">
        <ele>683.107803</ele>
        <time>2022-04-09T12:03:18.191Z</time>
      </trkpt>
      <trkpt lat="42.20246" lon="22.33397">
        <ele>683.297096</ele>
        <time>2022-04-09T12:03:23.199Z</time>
      </trkpt>
      <trkpt lat="42.20235" lon="22.33395">
        <ele>683.469596</ele>
        <time>2022-04-09T12:03:26.199Z</time>
      </trkpt>
      <trkpt lat="42.20224" lon="22.33391">
        <ele>683.668666</ele>
        <time>2022-04-09T12:03:29.195Z</time>
      </trkpt>
      <trkpt lat="42.20211" lon="22.33385">
        <ele>683.883304</ele>
        <time>2022-04-09T12:03:32.203Z</time>
      </trkpt>
      <trkpt lat="42.20201" lon="22.33379">
        <ele>684.075253</ele>
        <time>2022-04-09T12:03:36.215Z</time>
      </trkpt>
      <trkpt lat="42.20194" lon="22.33366">
        <ele>684.265216</ele>
        <time>2022-04-09T12:03:39.192Z</time>
      </trkpt>
      <trkpt lat="42.20185" lon="22.33353">
        <ele>684.479216</ele>
        <time>2022-04-09T12:03:42.182Z</time>
      </trkpt>
      <trkpt lat="42.20178" lon="22.33345">
        <ele>684.714008</ele>
        <time>2022-04-09T12:03:44.185Z</time>
      </trkpt>
      <trkpt lat="42.20168" lon="22.33334">
        <ele>685.098914</ele>
        <time>2022-04-09T12:03:47.266Z</time>
      </trkpt>
      <trkpt lat="42.20159" lon="22.33324">
        <ele>685.457896</ele>
        <time>2022-04-09T12:03:50.183Z</time>
      </trkpt>
      <trkpt lat="42.20151" lon="22.33315">
        <ele>685.787328</ele>
        <time>2022-04-09T12:03:53.185Z</time>
      </trkpt>
      <trkpt lat="42.20143" lon="22.33304">
        <ele>686.101504</ele>
        <time>2022-04-09T12:03:57.180Z</time>
      </trkpt>
      <trkpt lat="42.20137" lon="22.33292">
        <ele>686.440638</ele>
        <time>2022-04-09T12:04:03.186Z</time>
      </trkpt>
      <trkpt lat="42.20137" lon="22.33279">
        <ele>686.715087</ele>
        <time>2022-04-09T12:04:06.182Z</time>
      </trkpt>
      <trkpt lat="42.20141" lon="22.33268">
        <ele>686.993977</ele>
        <time>2022-04-09T12:04:09.201Z</time>
      </trkpt>
      <trkpt lat="42.2015" lon="22.33263">
        <ele>687.284573</ele>
        <time>2022-04-09T12:04:14.184Z</time>
      </trkpt>
      <trkpt lat="42.20159" lon="22.3327">
        <ele>687.590125</ele>
        <time>2022-04-09T12:04:20.201Z</time>
      </trkpt>
      <trkpt lat="42.20163" lon="22.33282">
        <ele>687.8969</ele>
        <time>2022-04-09T12:04:25.197Z</time>
      </trkpt>
      <trkpt lat="42.20166" lon="22.33294">
        <ele>688.180859</ele>
        <time>2022-04-09T12:04:30.198Z</time>
      </trkpt>
      <trkpt lat="42.20169" lon="22.33308">
        <ele>688.491675</ele>
        <time>2022-04-09T12:04:35.223Z</time>
      </trkpt>
      <trkpt lat="42.20174" lon="22.33318">
        <ele>688.764818</ele>
        <time>2022-04-09T12:04:41.172Z</time>
      </trkpt>
      <trkpt lat="42.20179" lon="22.3333">
        <ele>689.055802</ele>
        <time>2022-04-09T12:04:47.198Z</time>
      </trkpt>
      <trkpt lat="42.20185" lon="22.3334">
        <ele>689.362174</ele>
        <time>2022-04-09T12:04:53.196Z</time>
      </trkpt>
      <trkpt lat="42.20192" lon="22.33349">
        <ele>689.634802</ele>
        <time>2022-04-09T12:04:58.219Z</time>
      </trkpt>
      <trkpt lat="42.20198" lon="22.33358">
        <ele>689.915025</ele>
        <time>2022-04-09T12:05:03.206Z</time>
      </trkpt>
      <trkpt lat="42.20195" lon="22.33372">
        <ele>689.937212</ele>
        <time>2022-04-09T12:05:08.206Z</time>
      </trkpt>
      <trkpt lat="42.20193" lon="22.33387">
        <ele>689.937212</ele>
        <time>2022-04-09T12:05:12.205Z</time>
      </trkpt>
      <trkpt lat="42.20191" lon="22.33402">
        <ele>689.937212</ele>
        <time>2022-04-09T12:05:16.199Z</time>
      </trkpt>
      <trkpt lat="42.20187" lon="22.33417">
        <ele>689.937212</ele>
        <time>2022-04-09T12:05:20.193Z</time>
      </trkpt>
      <trkpt lat="42.20185" lon="22.33429">
        <ele>689.937212</ele>
        <time>2022-04-09T12:05:23.189Z</time>
      </trkpt>
      <trkpt lat="42.20182" lon="22.33442">
        <ele>689.937212</ele>
        <time>2022-04-09T12:05:27.203Z</time>
      </trkpt>
      <trkpt lat="42.20176" lon="22.33451">
        <ele>689.937212</ele>
        <time>2022-04-09T12:05:32.204Z</time>
      </trkpt>
      <trkpt lat="42.20167" lon="22.3345">
        <ele>689.937212</ele>
        <time>2022-04-09T12:05:35.189Z</time>
      </trkpt>
      <trkpt lat="42.20156" lon="22.33448">
        <ele>689.937212</ele>
        <time>2022-04-09T12:05:38.202Z</time>
      </trkpt>
      <trkpt lat="42.20147" lon="22.33445">
        <ele>689.937212</ele>
        <time>2022-04-09T12:05:44.177Z</time>
      </trkpt>
      <trkpt lat="42.20136" lon="22.33443">
        <ele>689.937212</ele>
        <time>2022-04-09T12:05:51.192Z</time>
      </trkpt>
      <trkpt lat="42.20138" lon="22.33442">
        <ele>689.937212</ele>
        <time>2022-04-09T12:08:03.013Z</time>
      </trkpt>
    </trkseg>
  </trk>
  <trk>
    <name><![CDATA[Tour d'Europe: étape 647]]></name>
    <extensions>
      <line xmlns="http://www.topografix.com/GPX/gpx_style/0/2">
        <color>888800</color>
        <width>4</width>
      </line>
    </extensions>
    <trkseg>
      <trkpt lat="42.27188" lon="23.1409">
        <ele>596.075042</ele>
        <time>2022-04-06T07:24:12.466Z</time>
      </trkpt>
      <trkpt lat="42.27135" lon="23.14048">
        <ele>596.075042</ele>
        <time>2022-04-06T07:24:15.967Z</time>
      </trkpt>
      <trkpt lat="42.27119" lon="23.14028">
        <ele>596.075042</ele>
        <time>2022-04-06T07:24:18.916Z</time>
      </trkpt>
      <trkpt lat="42.27121" lon="23.14014">
        <ele>596.111145</ele>
        <time>2022-04-06T07:24:24.876Z</time>
      </trkpt>
      <trkpt lat="42.27124" lon="23.14002">
        <ele>596.208715</ele>
        <time>2022-04-06T07:24:28.872Z</time>
      </trkpt>
      <trkpt lat="42.27129" lon="23.1399">
        <ele>596.312553</ele>
        <time>2022-04-06T07:24:32.870Z</time>
      </trkpt>
      <trkpt lat="42.27133" lon="23.13976">
        <ele>596.423758</ele>
        <time>2022-04-06T07:24:36.905Z</time>
      </trkpt>
      <trkpt lat="42.27135" lon="23.13963">
        <ele>596.526579</ele>
        <time>2022-04-06T07:24:39.889Z</time>
      </trkpt>
      <trkpt lat="42.27139" lon="23.1395">
        <ele>596.631797</ele>
        <time>2022-04-06T07:24:42.886Z</time>
      </trkpt>
      <trkpt lat="42.27143" lon="23.13937">
        <ele>596.737622</ele>
        <time>2022-04-06T07:24:45.898Z</time>
      </trkpt>
      <trkpt lat="42.27147" lon="23.13923">
        <ele>596.847422</ele>
        <time>2022-04-06T07:24:48.907Z</time>
      </trkpt>
      <trkpt lat="42.27151" lon="23.13907">
        <ele>596.974889</ele>
        <time>2022-04-06T07:24:51.902Z</time>
      </trkpt>
      <trkpt lat="42.27156" lon="23.13892">
        <ele>597.103561</ele>
        <time>2022-04-06T07:24:54.899Z</time>
      </trkpt>
      <trkpt lat="42.27161" lon="23.13877">
        <ele>597.225495</ele>
        <time>2022-04-06T07:24:57.881Z</time>
      </trkpt>
      <trkpt lat="42.27165" lon="23.13862">
        <ele>597.343402</ele>
        <time>2022-04-06T07:25:00.890Z</time>
      </trkpt>
      <trkpt lat="42.2717" lon="23.13848">
        <ele>597.462718</ele>
        <time>2022-04-06T07:25:03.900Z</time>
      </trkpt>
      <trkpt lat="42.27174" lon="23.13833">
        <ele>597.581484</ele>
        <time>2022-04-06T07:25:06.908Z</time>
      </trkpt>
      <trkpt lat="42.2718" lon="23.13817">
        <ele>597.717991</ele>
        <time>2022-04-06T07:25:09.902Z</time>
      </trkpt>
      <trkpt lat="42.27185" lon="23.138">
        <ele>597.852711</ele>
        <time>2022-04-06T07:25:12.906Z</time>
      </trkpt>
      <trkpt lat="42.2719" lon="23.13784">
        <ele>597.81257</ele>
        <time>2022-04-06T07:25:15.902Z</time>
      </trkpt>
      <trkpt lat="42.27194" lon="23.13768">
        <ele>597.670455</ele>
        <time>2022-04-06T07:25:18.897Z</time>
      </trkpt>
      <trkpt lat="42.27197" lon="23.13753">
        <ele>597.532574</ele>
        <time>2022-04-06T07:25:21.899Z</time>
      </trkpt>
      <trkpt lat="42.27202" lon="23.13738">
        <ele>597.390949</ele>
        <time>2022-04-06T07:25:25.885Z</time>
      </trkpt>
      <trkpt lat="42.27208" lon="23.13725">
        <ele>597.255426</ele>
        <time>2022-04-06T07:25:28.907Z</time>
      </trkpt>
      <trkpt lat="42.27213" lon="23.13715">
        <ele>597.146144</ele>
        <time>2022-04-06T07:25:30.905Z</time>
      </trkpt>
      <trkpt lat="42.27222" lon="23.13702">
        <ele>597.002643</ele>
        <time>2022-04-06T07:25:33.897Z</time>
      </trkpt>
      <trkpt lat="42.27228" lon="23.13691">
        <ele>596.87665</ele>
        <time>2022-04-06T07:25:36.897Z</time>
      </trkpt>
      <trkpt lat="42.27237" lon="23.13682">
        <ele>596.751026</ele>
        <time>2022-04-06T07:25:39.921Z</time>
      </trkpt>
      <trkpt lat="42.27245" lon="23.13671">
        <ele>596.618294</ele>
        <time>2022-04-06T07:25:42.915Z</time>
      </trkpt>
      <trkpt lat="42.27251" lon="23.13657">
        <ele>596.476171</ele>
        <time>2022-04-06T07:25:45.889Z</time>
      </trkpt>
      <trkpt lat="42.27258" lon="23.13645">
        <ele>596.345999</ele>
        <time>2022-04-06T07:25:48.897Z</time>
      </trkpt>
      <trkpt lat="42.27266" lon="23.13635">
        <ele>596.220662</ele>
        <time>2022-04-06T07:25:51.912Z</time>
      </trkpt>
      <trkpt lat="42.27272" lon="23.13621">
        <ele>596.073994</ele>
        <time>2022-04-06T07:25:55.905Z</time>
      </trkpt>
      <trkpt lat="42.27277" lon="23.13607">
        <ele>595.942239</ele>
        <time>2022-04-06T07:25:58.912Z</time>
      </trkpt>
      <trkpt lat="42.27281" lon="23.13595">
        <ele>595.824943</ele>
        <time>2022-04-06T07:26:01.909Z</time>
      </trkpt>
      <trkpt lat="42.27285" lon="23.13582">
        <ele>595.100922</ele>
        <time>2022-04-06T07:26:04.884Z</time>
      </trkpt>
      <trkpt lat="42.27289" lon="23.13568">
        <ele>594.151664</ele>
        <time>2022-04-06T07:26:07.899Z</time>
      </trkpt>
      <trkpt lat="42.27293" lon="23.13553">
        <ele>593.16992</ele>
        <time>2022-04-06T07:26:10.905Z</time>
      </trkpt>
      <trkpt lat="42.27297" lon="23.13538">
        <ele>592.160907</ele>
        <time>2022-04-06T07:26:13.904Z</time>
      </trkpt>
      <trkpt lat="42.27298" lon="23.13523">
        <ele>591.165702</ele>
        <time>2022-04-06T07:26:16.892Z</time>
      </trkpt>
      <trkpt lat="42.27298" lon="23.13508">
        <ele>590.22435</ele>
        <time>2022-04-06T07:26:19.900Z</time>
      </trkpt>
      <trkpt lat="42.27298" lon="23.13494">
        <ele>589.319197</ele>
        <time>2022-04-06T07:26:22.907Z</time>
      </trkpt>
      <trkpt lat="42.27297" lon="23.1348">
        <ele>588.411111</ele>
        <time>2022-04-06T07:26:25.926Z</time>
      </trkpt>
      <trkpt lat="42.27297" lon="23.13465">
        <ele>587.462464</ele>
        <time>2022-04-06T07:26:28.903Z</time>
      </trkpt>
      <trkpt lat="42.27295" lon="23.1345">
        <ele>586.5198</ele>
        <time>2022-04-06T07:26:31.918Z</time>
      </trkpt>
      <trkpt lat="42.27292" lon="23.13438">
        <ele>585.699603</ele>
        <time>2022-04-06T07:26:34.908Z</time>
      </trkpt>
      <trkpt lat="42.2729" lon="23.13422">
        <ele>584.662942</ele>
        <time>2022-04-06T07:26:37.903Z</time>
      </trkpt>
      <trkpt lat="42.27288" lon="23.13405">
        <ele>583.565571</ele>
        <time>2022-04-06T07:26:40.908Z</time>
      </trkpt>
      <trkpt lat="42.27286" lon="23.13391">
        <ele>582.669505</ele>
        <time>2022-04-06T07:26:43.908Z</time>
      </trkpt>
      <trkpt lat="42.27289" lon="23.13377">
        <ele>581.738754</ele>
        <time>2022-04-06T07:26:46.923Z</time>
      </trkpt>
      <trkpt lat="42.27291" lon="23.13362">
        <ele>580.79601</ele>
        <time>2022-04-06T07:26:49.910Z</time>
      </trkpt>
      <trkpt lat="42.27294" lon="23.13349">
        <ele>579.991145</ele>
        <time>2022-04-06T07:26:52.900Z</time>
      </trkpt>
      <trkpt lat="42.27296" lon="23.13337">
        <ele>579.25778</ele>
        <time>2022-04-06T07:26:55.911Z</time>
      </trkpt>
      <trkpt lat="42.27299" lon="23.13322">
        <ele>578.376635</ele>
        <time>2022-04-06T07:26:58.888Z</time>
      </trkpt>
      <trkpt lat="42.27302" lon="23.13307">
        <ele>577.437542</ele>
        <time>2022-04-06T07:27:01.892Z</time>
      </trkpt>
      <trkpt lat="42.27306" lon="23.13292">
        <ele>576.533876</ele>
        <time>2022-04-06T07:27:04.898Z</time>
      </trkpt>
      <trkpt lat="42.2731" lon="23.1328">
        <ele>575.774036</ele>
        <time>2022-04-06T07:27:07.883Z</time>
      </trkpt>
      <trkpt lat="42.27313" lon="23.13265">
        <ele>574.859345</ele>
        <time>2022-04-06T07:27:10.941Z</time>
      </trkpt>
      <trkpt lat="42.27317" lon="23.1325">
        <ele>573.945349</ele>
        <time>2022-04-06T07:27:13.917Z</time>
      </trkpt>
      <trkpt lat="42.2732" lon="23.13235">
        <ele>573.038493</ele>
        <time>2022-04-06T07:27:16.900Z</time>
      </trkpt>
      <trkpt lat="42.27323" lon="23.13218">
        <ele>572.063312</ele>
        <time>2022-04-06T07:27:19.992Z</time>
      </trkpt>
      <trkpt lat="42.27328" lon="23.13202">
        <ele>571.076</ele>
        <time>2022-04-06T07:27:22.921Z</time>
      </trkpt>
      <trkpt lat="42.27333" lon="23.13188">
        <ele>570.127304</ele>
        <time>2022-04-06T07:27:25.907Z</time>
      </trkpt>
      <trkpt lat="42.27337" lon="23.13173">
        <ele>569.221926</ele>
        <time>2022-04-06T07:27:28.894Z</time>
      </trkpt>
      <trkpt lat="42.2734" lon="23.1316">
        <ele>568.434756</ele>
        <time>2022-04-06T07:27:31.906Z</time>
      </trkpt>
      <trkpt lat="42.27342" lon="23.13146">
        <ele>567.634711</ele>
        <time>2022-04-06T07:27:34.895Z</time>
      </trkpt>
      <trkpt lat="42.27345" lon="23.13132">
        <ele>566.745125</ele>
        <time>2022-04-06T07:27:37.903Z</time>
      </trkpt>
      <trkpt lat="42.27349" lon="23.13118">
        <ele>566.31773</ele>
        <time>2022-04-06T07:27:40.895Z</time>
      </trkpt>
      <trkpt lat="42.27352" lon="23.13105">
        <ele>566.375901</ele>
        <time>2022-04-06T07:27:43.981Z</time>
      </trkpt>
      <trkpt lat="42.27354" lon="23.13091">
        <ele>566.442239</ele>
        <time>2022-04-06T07:27:47.893Z</time>
      </trkpt>
      <trkpt lat="42.27357" lon="23.13079">
        <ele>566.497042</ele>
        <time>2022-04-06T07:27:51.901Z</time>
      </trkpt>
      <trkpt lat="42.27351" lon="23.1307">
        <ele>566.554405</ele>
        <time>2022-04-06T07:27:55.883Z</time>
      </trkpt>
      <trkpt lat="42.27344" lon="23.13061">
        <ele>566.611891</ele>
        <time>2022-04-06T07:27:58.883Z</time>
      </trkpt>
      <trkpt lat="42.27335" lon="23.13056">
        <ele>566.669219</ele>
        <time>2022-04-06T07:28:01.881Z</time>
      </trkpt>
      <trkpt lat="42.27325" lon="23.13055">
        <ele>566.728724</ele>
        <time>2022-04-06T07:28:04.916Z</time>
      </trkpt>
      <trkpt lat="42.27315" lon="23.13054">
        <ele>566.787635</ele>
        <time>2022-04-06T07:28:07.897Z</time>
      </trkpt>
      <trkpt lat="42.27303" lon="23.13054">
        <ele>566.858234</ele>
        <time>2022-04-06T07:28:11.920Z</time>
      </trkpt>
      <trkpt lat="42.27291" lon="23.13053">
        <ele>566.932607</ele>
        <time>2022-04-06T07:28:15.900Z</time>
      </trkpt>
      <trkpt lat="42.27281" lon="23.13052">
        <ele>566.992708</ele>
        <time>2022-04-06T07:28:18.900Z</time>
      </trkpt>
      <trkpt lat="42.27271" lon="23.13052">
        <ele>567.050142</ele>
        <time>2022-04-06T07:28:21.900Z</time>
      </trkpt>
      <trkpt lat="42.2726" lon="23.13052">
        <ele>567.116045</ele>
        <time>2022-04-06T07:28:24.909Z</time>
      </trkpt>
      <trkpt lat="42.27249" lon="23.13052">
        <ele>567.184247</ele>
        <time>2022-04-06T07:28:27.875Z</time>
      </trkpt>
      <trkpt lat="42.27237" lon="23.13052">
        <ele>567.251855</ele>
        <time>2022-04-06T07:28:30.905Z</time>
      </trkpt>
      <trkpt lat="42.27228" lon="23.13053">
        <ele>567.309946</ele>
        <time>2022-04-06T07:28:33.941Z</time>
      </trkpt>
      <trkpt lat="42.27217" lon="23.13052">
        <ele>567.328676</ele>
        <time>2022-04-06T07:28:36.898Z</time>
      </trkpt>
      <trkpt lat="42.27207" lon="23.13051">
        <ele>567.014494</ele>
        <time>2022-04-06T07:28:39.874Z</time>
      </trkpt>
      <trkpt lat="42.27195" lon="23.1305">
        <ele>566.642636</ele>
        <time>2022-04-06T07:28:43.905Z</time>
      </trkpt>
      <trkpt lat="42.27185" lon="23.13049">
        <ele>566.335207</ele>
        <time>2022-04-06T07:28:46.904Z</time>
      </trkpt>
      <trkpt lat="42.27176" lon="23.13047">
        <ele>566.02645</ele>
        <time>2022-04-06T07:28:49.907Z</time>
      </trkpt>
      <trkpt lat="42.27166" lon="23.13047">
        <ele>565.731942</ele>
        <time>2022-04-06T07:28:52.932Z</time>
      </trkpt>
      <trkpt lat="42.27157" lon="23.13046">
        <ele>565.439556</ele>
        <time>2022-04-06T07:28:55.906Z</time>
      </trkpt>
      <trkpt lat="42.27148" lon="23.13043">
        <ele>565.15658</ele>
        <time>2022-04-06T07:28:58.887Z</time>
      </trkpt>
      <trkpt lat="42.27136" lon="23.13041">
        <ele>564.804491</ele>
        <time>2022-04-06T07:29:01.933Z</time>
      </trkpt>
      <trkpt lat="42.27127" lon="23.1304">
        <ele>564.523677</ele>
        <time>2022-04-06T07:29:03.970Z</time>
      </trkpt>
      <trkpt lat="42.27116" lon="23.13037">
        <ele>564.156497</ele>
        <time>2022-04-06T07:29:06.902Z</time>
      </trkpt>
      <trkpt lat="42.27106" lon="23.13033">
        <ele>563.847981</ele>
        <time>2022-04-06T07:29:09.903Z</time>
      </trkpt>
      <trkpt lat="42.27097" lon="23.1303">
        <ele>563.541231</ele>
        <time>2022-04-06T07:29:12.905Z</time>
      </trkpt>
      <trkpt lat="42.27087" lon="23.13027">
        <ele>563.225469</ele>
        <time>2022-04-06T07:29:15.913Z</time>
      </trkpt>
      <trkpt lat="42.27077" lon="23.13022">
        <ele>562.920078</ele>
        <time>2022-04-06T07:29:18.885Z</time>
      </trkpt>
      <trkpt lat="42.27067" lon="23.13017">
        <ele>562.563622</ele>
        <time>2022-04-06T07:29:21.902Z</time>
      </trkpt>
      <trkpt lat="42.27055" lon="23.13012">
        <ele>562.189524</ele>
        <time>2022-04-06T07:29:24.932Z</time>
      </trkpt>
      <trkpt lat="42.27044" lon="23.13008">
        <ele>561.830656</ele>
        <time>2022-04-06T07:29:27.891Z</time>
      </trkpt>
      <trkpt lat="42.27032" lon="23.13004">
        <ele>561.664256</ele>
        <time>2022-04-06T07:29:30.953Z</time>
      </trkpt>
      <trkpt lat="42.27021" lon="23.13001">
        <ele>561.523263</ele>
        <time>2022-04-06T07:29:33.906Z</time>
      </trkpt>
      <trkpt lat="42.2701" lon="23.12998">
        <ele>561.387933</ele>
        <time>2022-04-06T07:29:36.945Z</time>
      </trkpt>
      <trkpt lat="42.26997" lon="23.12991">
        <ele>561.225021</ele>
        <time>2022-04-06T07:29:39.895Z</time>
      </trkpt>
      <trkpt lat="42.26987" lon="23.12984">
        <ele>561.087085</ele>
        <time>2022-04-06T07:29:41.906Z</time>
      </trkpt>
      <trkpt lat="42.26976" lon="23.12979">
        <ele>560.942521</ele>
        <time>2022-04-06T07:29:43.896Z</time>
      </trkpt>
      <trkpt lat="42.26964" lon="23.12971">
        <ele>560.782819</ele>
        <time>2022-04-06T07:29:45.899Z</time>
      </trkpt>
      <trkpt lat="42.2695" lon="23.12966">
        <ele>560.60594</ele>
        <time>2022-04-06T07:29:47.959Z</time>
      </trkpt>
      <trkpt lat="42.26937" lon="23.12957">
        <ele>560.435535</ele>
        <time>2022-04-06T07:29:49.891Z</time>
      </trkpt>
      <trkpt lat="42.26925" lon="23.12948">
        <ele>560.267639</ele>
        <time>2022-04-06T07:29:51.889Z</time>
      </trkpt>
      <trkpt lat="42.26914" lon="23.12939">
        <ele>560.109651</ele>
        <time>2022-04-06T07:29:53.912Z</time>
      </trkpt>
      <trkpt lat="42.26902" lon="23.1293">
        <ele>559.949572</ele>
        <time>2022-04-06T07:29:55.908Z</time>
      </trkpt>
      <trkpt lat="42.26891" lon="23.12922">
        <ele>559.790985</ele>
        <time>2022-04-06T07:29:57.898Z</time>
      </trkpt>
      <trkpt lat="42.26879" lon="23.12913">
        <ele>559.634767</ele>
        <time>2022-04-06T07:29:59.896Z</time>
      </trkpt>
      <trkpt lat="42.26869" lon="23.12905">
        <ele>559.546982</ele>
        <time>2022-04-06T07:30:01.885Z</time>
      </trkpt>
      <trkpt lat="42.26857" lon="23.12897">
        <ele>559.461149</ele>
        <time>2022-04-06T07:30:03.896Z</time>
      </trkpt>
      <trkpt lat="42.26846" lon="23.12889">
        <ele>559.376728</ele>
        <time>2022-04-06T07:30:05.894Z</time>
      </trkpt>
      <trkpt lat="42.26835" lon="23.12881">
        <ele>559.29062</ele>
        <time>2022-04-06T07:30:07.889Z</time>
      </trkpt>
      <trkpt lat="42.26823" lon="23.12873">
        <ele>559.205109</ele>
        <time>2022-04-06T07:30:09.899Z</time>
      </trkpt>
      <trkpt lat="42.26812" lon="23.12865">
        <ele>559.117731</ele>
        <time>2022-04-06T07:30:11.896Z</time>
      </trkpt>
      <trkpt lat="42.26801" lon="23.12858">
        <ele>559.034233</ele>
        <time>2022-04-06T07:30:13.903Z</time>
      </trkpt>
      <trkpt lat="42.2679" lon="23.1285">
        <ele>558.955062</ele>
        <time>2022-04-06T07:30:15.917Z</time>
      </trkpt>
      <trkpt lat="42.26781" lon="23.12844">
        <ele>558.883943</ele>
        <time>2022-04-06T07:30:17.891Z</time>
      </trkpt>
      <trkpt lat="42.26772" lon="23.12838">
        <ele>558.817981</ele>
        <time>2022-04-06T07:30:19.965Z</time>
      </trkpt>
      <trkpt lat="42.26763" lon="23.12832">
        <ele>558.75239</ele>
        <time>2022-04-06T07:30:21.897Z</time>
      </trkpt>
      <trkpt lat="42.26752" lon="23.12823">
        <ele>558.664613</ele>
        <time>2022-04-06T07:30:24.888Z</time>
      </trkpt>
      <trkpt lat="42.26743" lon="23.12816">
        <ele>558.594199</ele>
        <time>2022-04-06T07:30:26.899Z</time>
      </trkpt>
      <trkpt lat="42.26733" lon="23.12809">
        <ele>558.523382</ele>
        <time>2022-04-06T07:30:28.896Z</time>
      </trkpt>
      <trkpt lat="42.26725" lon="23.12803">
        <ele>558.459566</ele>
        <time>2022-04-06T07:30:30.897Z</time>
      </trkpt>
      <trkpt lat="42.26713" lon="23.12794">
        <ele>558.121204</ele>
        <time>2022-04-06T07:30:33.898Z</time>
      </trkpt>
      <trkpt lat="42.26703" lon="23.12785">
        <ele>557.596636</ele>
        <time>2022-04-06T07:30:36.907Z</time>
      </trkpt>
      <trkpt lat="42.26693" lon="23.12778">
        <ele>557.14258</ele>
        <time>2022-04-06T07:30:39.896Z</time>
      </trkpt>
      <trkpt lat="42.26684" lon="23.1277">
        <ele>556.703016</ele>
        <time>2022-04-06T07:30:42.886Z</time>
      </trkpt>
      <trkpt lat="42.26676" lon="23.12763">
        <ele>556.28027</ele>
        <time>2022-04-06T07:30:45.894Z</time>
      </trkpt>
      <trkpt lat="42.26666" lon="23.12755">
        <ele>555.818437</ele>
        <time>2022-04-06T07:30:48.890Z</time>
      </trkpt>
      <trkpt lat="42.26658" lon="23.12747">
        <ele>555.375557</ele>
        <time>2022-04-06T07:30:51.888Z</time>
      </trkpt>
      <trkpt lat="42.26648" lon="23.12738">
        <ele>554.901545</ele>
        <time>2022-04-06T07:30:54.893Z</time>
      </trkpt>
      <trkpt lat="42.2664" lon="23.12728">
        <ele>554.462599</ele>
        <time>2022-04-06T07:30:57.884Z</time>
      </trkpt>
      <trkpt lat="42.26632" lon="23.12717">
        <ele>553.995877</ele>
        <time>2022-04-06T07:31:00.888Z</time>
      </trkpt>
      <trkpt lat="42.26625" lon="23.12706">
        <ele>553.532511</ele>
        <time>2022-04-06T07:31:03.929Z</time>
      </trkpt>
      <trkpt lat="42.26619" lon="23.12693">
        <ele>553.061887</ele>
        <time>2022-04-06T07:31:06.916Z</time>
      </trkpt>
      <trkpt lat="42.26614" lon="23.12679">
        <ele>552.569597</ele>
        <time>2022-04-06T07:31:09.886Z</time>
      </trkpt>
      <trkpt lat="42.26611" lon="23.12664">
        <ele>552.107111</ele>
        <time>2022-04-06T07:31:12.897Z</time>
      </trkpt>
      <trkpt lat="42.26611" lon="23.12648">
        <ele>551.622969</ele>
        <time>2022-04-06T07:31:15.887Z</time>
      </trkpt>
      <trkpt lat="42.26611" lon="23.12635">
        <ele>551.219735</ele>
        <time>2022-04-06T07:31:18.894Z</time>
      </trkpt>
      <trkpt lat="42.26612" lon="23.12622">
        <ele>550.856756</ele>
        <time>2022-04-06T07:31:22.896Z</time>
      </trkpt>
      <trkpt lat="42.26611" lon="23.12606">
        <ele>550.549321</ele>
        <time>2022-04-06T07:31:26.897Z</time>
      </trkpt>
      <trkpt lat="42.26611" lon="23.12591">
        <ele>550.251928</ele>
        <time>2022-04-06T07:31:29.902Z</time>
      </trkpt>
      <trkpt lat="42.26611" lon="23.12577">
        <ele>549.981381</ele>
        <time>2022-04-06T07:31:32.910Z</time>
      </trkpt>
      <trkpt lat="42.26613" lon="23.12562">
        <ele>549.696744</ele>
        <time>2022-04-06T07:31:35.883Z</time>
      </trkpt>
      <trkpt lat="42.26614" lon="23.12548">
        <ele>549.417452</ele>
        <time>2022-04-06T07:31:38.877Z</time>
      </trkpt>
      <trkpt lat="42.26614" lon="23.12534">
        <ele>549.142933</ele>
        <time>2022-04-06T07:31:41.886Z</time>
      </trkpt>
      <trkpt lat="42.26614" lon="23.12519">
        <ele>548.866744</ele>
        <time>2022-04-06T07:31:44.894Z</time>
      </trkpt>
      <trkpt lat="42.26614" lon="23.12505">
        <ele>548.594017</ele>
        <time>2022-04-06T07:31:47.903Z</time>
      </trkpt>
      <trkpt lat="42.26615" lon="23.12492">
        <ele>548.336116</ele>
        <time>2022-04-06T07:31:50.895Z</time>
      </trkpt>
      <trkpt lat="42.26615" lon="23.12478">
        <ele>548.071563</ele>
        <time>2022-04-06T07:31:53.902Z</time>
      </trkpt>
      <trkpt lat="42.26615" lon="23.12464">
        <ele>547.80638</ele>
        <time>2022-04-06T07:31:56.905Z</time>
      </trkpt>
      <trkpt lat="42.26615" lon="23.12449">
        <ele>547.516711</ele>
        <time>2022-04-06T07:31:59.905Z</time>
      </trkpt>
      <trkpt lat="42.26614" lon="23.12435">
        <ele>547.235242</ele>
        <time>2022-04-06T07:32:02.898Z</time>
      </trkpt>
      <trkpt lat="42.26612" lon="23.1242">
        <ele>546.93079</ele>
        <time>2022-04-06T07:32:05.880Z</time>
      </trkpt>
      <trkpt lat="42.26611" lon="23.12403">
        <ele>546.613927</ele>
        <time>2022-04-06T07:32:08.889Z</time>
      </trkpt>
      <trkpt lat="42.26613" lon="23.12388">
        <ele>546.309044</ele>
        <time>2022-04-06T07:32:11.905Z</time>
      </trkpt>
      <trkpt lat="42.26616" lon="23.12372">
        <ele>546.804287</ele>
        <time>2022-04-06T07:32:14.892Z</time>
      </trkpt>
      <trkpt lat="42.26619" lon="23.12356">
        <ele>547.501725</ele>
        <time>2022-04-06T07:32:17.897Z</time>
      </trkpt>
      <trkpt lat="42.26622" lon="23.12342">
        <ele>548.142946</ele>
        <time>2022-04-06T07:32:20.899Z</time>
      </trkpt>
      <trkpt lat="42.26626" lon="23.12329">
        <ele>548.733725</ele>
        <time>2022-04-06T07:32:23.884Z</time>
      </trkpt>
      <trkpt lat="42.26631" lon="23.12317">
        <ele>549.294423</ele>
        <time>2022-04-06T07:32:26.897Z</time>
      </trkpt>
      <trkpt lat="42.26635" lon="23.12304">
        <ele>549.927021</ele>
        <time>2022-04-06T07:32:30.888Z</time>
      </trkpt>
      <trkpt lat="42.26635" lon="23.12291">
        <ele>550.468604</ele>
        <time>2022-04-06T07:32:35.877Z</time>
      </trkpt>
      <trkpt lat="42.26625" lon="23.12292">
        <ele>551.066245</ele>
        <time>2022-04-06T07:32:40.876Z</time>
      </trkpt>
      <trkpt lat="42.26615" lon="23.12292">
        <ele>551.641017</ele>
        <time>2022-04-06T07:32:44.882Z</time>
      </trkpt>
      <trkpt lat="42.26604" lon="23.12295">
        <ele>552.243855</ele>
        <time>2022-04-06T07:32:48.880Z</time>
      </trkpt>
      <trkpt lat="42.26601" lon="23.12274">
        <ele>553.175928</ele>
        <time>2022-04-06T07:33:12.888Z</time>
      </trkpt>
      <trkpt lat="42.26603" lon="23.12261">
        <ele>553.735838</ele>
        <time>2022-04-06T07:33:15.874Z</time>
      </trkpt>
      <trkpt lat="42.26607" lon="23.12248">
        <ele>554.339793</ele>
        <time>2022-04-06T07:33:18.874Z</time>
      </trkpt>
      <trkpt lat="42.2661" lon="23.12235">
        <ele>554.920174</ele>
        <time>2022-04-06T07:33:21.880Z</time>
      </trkpt>
      <trkpt lat="42.26614" lon="23.12221">
        <ele>555.57255</ele>
        <time>2022-04-06T07:33:24.875Z</time>
      </trkpt>
      <trkpt lat="42.26616" lon="23.12207">
        <ele>556.186846</ele>
        <time>2022-04-06T07:33:27.875Z</time>
      </trkpt>
      <trkpt lat="42.26614" lon="23.12193">
        <ele>556.751805</ele>
        <time>2022-04-06T07:33:30.878Z</time>
      </trkpt>
      <trkpt lat="42.26612" lon="23.12178">
        <ele>557.214878</ele>
        <time>2022-04-06T07:33:34.900Z</time>
      </trkpt>
      <trkpt lat="42.26612" lon="23.12163">
        <ele>557.662667</ele>
        <time>2022-04-06T07:33:38.880Z</time>
      </trkpt>
      <trkpt lat="42.26611" lon="23.12151">
        <ele>558.035851</ele>
        <time>2022-04-06T07:33:41.900Z</time>
      </trkpt>
      <trkpt lat="42.26607" lon="23.12138">
        <ele>558.461976</ele>
        <time>2022-04-06T07:33:45.876Z</time>
      </trkpt>
      <trkpt lat="42.26607" lon="23.12123">
        <ele>558.882907</ele>
        <time>2022-04-06T07:33:52.880Z</time>
      </trkpt>
      <trkpt lat="42.26609" lon="23.12109">
        <ele>559.313617</ele>
        <time>2022-04-06T07:33:56.879Z</time>
      </trkpt>
      <trkpt lat="42.26608" lon="23.12094">
        <ele>559.763527</ele>
        <time>2022-04-06T07:34:00.889Z</time>
      </trkpt>
      <trkpt lat="42.26602" lon="23.12082">
        <ele>560.208235</ele>
        <time>2022-04-06T07:34:05.884Z</time>
      </trkpt>
      <trkpt lat="42.26597" lon="23.12072">
        <ele>560.575366</ele>
        <time>2022-04-06T07:34:10.883Z</time>
      </trkpt>
      <trkpt lat="42.26591" lon="23.12063">
        <ele>560.945135</ele>
        <time>2022-04-06T07:34:14.880Z</time>
      </trkpt>
      <trkpt lat="42.26583" lon="23.12053">
        <ele>561.3701</ele>
        <time>2022-04-06T07:34:19.872Z</time>
      </trkpt>
      <trkpt lat="42.26576" lon="23.12043">
        <ele>561.780382</ele>
        <time>2022-04-06T07:34:24.903Z</time>
      </trkpt>
      <trkpt lat="42.2657" lon="23.12032">
        <ele>562.174143</ele>
        <time>2022-04-06T07:34:28.882Z</time>
      </trkpt>
      <trkpt lat="42.26567" lon="23.12021">
        <ele>562.542264</ele>
        <time>2022-04-06T07:34:32.876Z</time>
      </trkpt>
      <trkpt lat="42.26562" lon="23.12008">
        <ele>562.970273</ele>
        <time>2022-04-06T07:34:37.880Z</time>
      </trkpt>
      <trkpt lat="42.2656" lon="23.11993">
        <ele>563.418621</ele>
        <time>2022-04-06T07:34:41.879Z</time>
      </trkpt>
      <trkpt lat="42.26557" lon="23.1198">
        <ele>563.823448</ele>
        <time>2022-04-06T07:34:45.878Z</time>
      </trkpt>
      <trkpt lat="42.26554" lon="23.11969">
        <ele>564.414303</ele>
        <time>2022-04-06T07:34:49.877Z</time>
      </trkpt>
      <trkpt lat="42.26549" lon="23.11956">
        <ele>565.153343</ele>
        <time>2022-04-06T07:34:53.889Z</time>
      </trkpt>
      <trkpt lat="42.26545" lon="23.11945">
        <ele>565.818202</ele>
        <time>2022-04-06T07:34:59.883Z</time>
      </trkpt>
      <trkpt lat="42.26538" lon="23.11933">
        <ele>566.60204</ele>
        <time>2022-04-06T07:35:04.872Z</time>
      </trkpt>
      <trkpt lat="42.26532" lon="23.11922">
        <ele>567.309561</ele>
        <time>2022-04-06T07:35:09.872Z</time>
      </trkpt>
      <trkpt lat="42.26527" lon="23.11911">
        <ele>567.985429</ele>
        <time>2022-04-06T07:35:14.875Z</time>
      </trkpt>
      <trkpt lat="42.26519" lon="23.11901">
        <ele>568.767222</ele>
        <time>2022-04-06T07:35:20.893Z</time>
      </trkpt>
      <trkpt lat="42.26511" lon="23.11891">
        <ele>569.525687</ele>
        <time>2022-04-06T07:35:24.873Z</time>
      </trkpt>
      <trkpt lat="42.26505" lon="23.11882">
        <ele>570.20221</ele>
        <time>2022-04-06T07:35:27.874Z</time>
      </trkpt>
      <trkpt lat="42.26496" lon="23.11878">
        <ele>570.891272</ele>
        <time>2022-04-06T07:35:31.877Z</time>
      </trkpt>
      <trkpt lat="42.26486" lon="23.11876">
        <ele>571.581498</ele>
        <time>2022-04-06T07:35:35.876Z</time>
      </trkpt>
      <trkpt lat="42.26477" lon="23.11875">
        <ele>572.232152</ele>
        <time>2022-04-06T07:35:38.878Z</time>
      </trkpt>
      <trkpt lat="42.26467" lon="23.1187">
        <ele>572.983</ele>
        <time>2022-04-06T07:35:42.875Z</time>
      </trkpt>
      <trkpt lat="42.26458" lon="23.11865">
        <ele>573.694979</ele>
        <time>2022-04-06T07:35:48.886Z</time>
      </trkpt>
      <trkpt lat="42.26447" lon="23.11861">
        <ele>574.453983</ele>
        <time>2022-04-06T07:35:53.876Z</time>
      </trkpt>
      <trkpt lat="42.26437" lon="23.1186">
        <ele>575.176041</ele>
        <time>2022-04-06T07:35:58.886Z</time>
      </trkpt>
      <trkpt lat="42.26428" lon="23.11858">
        <ele>575.826472</ele>
        <time>2022-04-06T07:36:02.888Z</time>
      </trkpt>
      <trkpt lat="42.26418" lon="23.11854">
        <ele>576.580612</ele>
        <time>2022-04-06T07:36:07.885Z</time>
      </trkpt>
      <trkpt lat="42.26408" lon="23.11854">
        <ele>577.250959</ele>
        <time>2022-04-06T07:36:12.896Z</time>
      </trkpt>
      <trkpt lat="42.26398" lon="23.11856">
        <ele>577.84464</ele>
        <time>2022-04-06T07:36:17.897Z</time>
      </trkpt>
      <trkpt lat="42.26388" lon="23.1186">
        <ele>578.520391</ele>
        <time>2022-04-06T07:36:21.882Z</time>
      </trkpt>
      <trkpt lat="42.26378" lon="23.1186">
        <ele>579.133983</ele>
        <time>2022-04-06T07:36:24.882Z</time>
      </trkpt>
      <trkpt lat="42.26389" lon="23.11862">
        <ele>579.828897</ele>
        <time>2022-04-06T07:38:48.903Z</time>
      </trkpt>
      <trkpt lat="42.26398" lon="23.1186">
        <ele>580.39922</ele>
        <time>2022-04-06T07:38:52.895Z</time>
      </trkpt>
      <trkpt lat="42.26408" lon="23.11862">
        <ele>581.008669</ele>
        <time>2022-04-06T07:38:56.899Z</time>
      </trkpt>
      <trkpt lat="42.26417" lon="23.11866">
        <ele>581.621146</ele>
        <time>2022-04-06T07:39:00.896Z</time>
      </trkpt>
      <trkpt lat="42.26426" lon="23.11866">
        <ele>582.197621</ele>
        <time>2022-04-06T07:39:05.068Z</time>
      </trkpt>
      <trkpt lat="42.26438" lon="23.11866">
        <ele>582.942806</ele>
        <time>2022-04-06T07:39:08.895Z</time>
      </trkpt>
      <trkpt lat="42.26448" lon="23.11865">
        <ele>583.569178</ele>
        <time>2022-04-06T07:39:12.881Z</time>
      </trkpt>
      <trkpt lat="42.26458" lon="23.11861">
        <ele>584.227707</ele>
        <time>2022-04-06T07:39:17.908Z</time>
      </trkpt>
      <trkpt lat="42.26468" lon="23.11862">
        <ele>584.861439</ele>
        <time>2022-04-06T07:39:22.890Z</time>
      </trkpt>
      <trkpt lat="42.26477" lon="23.11865">
        <ele>585.444106</ele>
        <time>2022-04-06T07:39:26.895Z</time>
      </trkpt>
      <trkpt lat="42.26485" lon="23.11872">
        <ele>586.061472</ele>
        <time>2022-04-06T07:39:31.914Z</time>
      </trkpt>
      <trkpt lat="42.26492" lon="23.11881">
        <ele>586.646056</ele>
        <time>2022-04-06T07:39:36.886Z</time>
      </trkpt>
      <trkpt lat="42.26495" lon="23.11862">
        <ele>587.515896</ele>
        <time>2022-04-06T07:42:25.902Z</time>
      </trkpt>
      <trkpt lat="42.26494" lon="23.11849">
        <ele>587.62171</ele>
        <time>2022-04-06T07:42:30.896Z</time>
      </trkpt>
      <trkpt lat="42.26494" lon="23.11835">
        <ele>585.933887</ele>
        <time>2022-04-06T07:42:34.898Z</time>
      </trkpt>
      <trkpt lat="42.26493" lon="23.1182">
        <ele>584.157361</ele>
        <time>2022-04-06T07:42:38.877Z</time>
      </trkpt>
      <trkpt lat="42.26492" lon="23.11807">
        <ele>582.508605</ele>
        <time>2022-04-06T07:42:42.914Z</time>
      </trkpt>
      <trkpt lat="42.26492" lon="23.11792">
        <ele>580.752467</ele>
        <time>2022-04-06T07:42:46.900Z</time>
      </trkpt>
      <trkpt lat="42.26491" lon="23.11778">
        <ele>579.053822</ele>
        <time>2022-04-06T07:42:50.883Z</time>
      </trkpt>
      <trkpt lat="42.26485" lon="23.11766">
        <ele>577.227604</ele>
        <time>2022-04-06T07:42:54.892Z</time>
      </trkpt>
      <trkpt lat="42.26476" lon="23.11757">
        <ele>575.470648</ele>
        <time>2022-04-06T07:42:58.891Z</time>
      </trkpt>
      <trkpt lat="42.26467" lon="23.11757">
        <ele>574.008383</ele>
        <time>2022-04-06T07:43:04.892Z</time>
      </trkpt>
      <trkpt lat="42.26466" lon="23.11731">
        <ele>570.917111</ele>
        <time>2022-04-06T07:44:02.888Z</time>
      </trkpt>
      <trkpt lat="42.26469" lon="23.11718">
        <ele>569.244356</ele>
        <time>2022-04-06T07:44:06.897Z</time>
      </trkpt>
      <trkpt lat="42.26471" lon="23.11704">
        <ele>567.577728</ele>
        <time>2022-04-06T07:44:10.877Z</time>
      </trkpt>
      <trkpt lat="42.26473" lon="23.11691">
        <ele>565.931683</ele>
        <time>2022-04-06T07:44:14.875Z</time>
      </trkpt>
      <trkpt lat="42.26459" lon="23.11669">
        <ele>562.460579</ele>
        <time>2022-04-06T07:45:05.873Z</time>
      </trkpt>
      <trkpt lat="42.26458" lon="23.11657">
        <ele>560.988373</ele>
        <time>2022-04-06T07:45:09.873Z</time>
      </trkpt>
      <trkpt lat="42.26468" lon="23.11657">
        <ele>559.445293</ele>
        <time>2022-04-06T07:45:13.877Z</time>
      </trkpt>
      <trkpt lat="42.26475" lon="23.11666">
        <ele>559.133029</ele>
        <time>2022-04-06T07:45:18.881Z</time>
      </trkpt>
      <trkpt lat="42.26482" lon="23.11658">
        <ele>559.709689</ele>
        <time>2022-04-06T07:45:25.876Z</time>
      </trkpt>
      <trkpt lat="42.26488" lon="23.11648">
        <ele>560.313435</ele>
        <time>2022-04-06T07:45:31.872Z</time>
      </trkpt>
      <trkpt lat="42.26494" lon="23.11636">
        <ele>560.965848</ele>
        <time>2022-04-06T07:45:36.866Z</time>
      </trkpt>
      <trkpt lat="42.26473" lon="23.11659">
        <ele>562.619827</ele>
        <time>2022-04-06T07:49:37.876Z</time>
      </trkpt>
      <trkpt lat="42.26464" lon="23.11654">
        <ele>563.249877</ele>
        <time>2022-04-06T07:49:40.884Z</time>
      </trkpt>
      <trkpt lat="42.26454" lon="23.11647">
        <ele>563.956957</ele>
        <time>2022-04-06T07:49:44.866Z</time>
      </trkpt>
      <trkpt lat="42.26448" lon="23.11636">
        <ele>564.57332</ele>
        <time>2022-04-06T07:49:49.876Z</time>
      </trkpt>
      <trkpt lat="42.26444" lon="23.11622">
        <ele>565.268088</ele>
        <time>2022-04-06T07:49:55.880Z</time>
      </trkpt>
      <trkpt lat="42.26442" lon="23.1161">
        <ele>565.865851</ele>
        <time>2022-04-06T07:49:59.872Z</time>
      </trkpt>
      <trkpt lat="42.26441" lon="23.11596">
        <ele>566.513857</ele>
        <time>2022-04-06T07:50:03.866Z</time>
      </trkpt>
      <trkpt lat="42.26441" lon="23.11582">
        <ele>567.131778</ele>
        <time>2022-04-06T07:50:07.871Z</time>
      </trkpt>
      <trkpt lat="42.26442" lon="23.1157">
        <ele>567.733617</ele>
        <time>2022-04-06T07:50:11.902Z</time>
      </trkpt>
      <trkpt lat="42.26438" lon="23.11558">
        <ele>568.337504</ele>
        <time>2022-04-06T07:50:15.873Z</time>
      </trkpt>
      <trkpt lat="42.26431" lon="23.11547">
        <ele>568.981434</ele>
        <time>2022-04-06T07:50:20.862Z</time>
      </trkpt>
      <trkpt lat="42.26426" lon="23.11535">
        <ele>569.645998</ele>
        <time>2022-04-06T07:50:24.863Z</time>
      </trkpt>
      <trkpt lat="42.26423" lon="23.1152">
        <ele>570.309868</ele>
        <time>2022-04-06T07:50:27.871Z</time>
      </trkpt>
      <trkpt lat="42.26418" lon="23.11505">
        <ele>570.897122</ele>
        <time>2022-04-06T07:50:30.868Z</time>
      </trkpt>
      <trkpt lat="42.26416" lon="23.11492">
        <ele>571.384583</ele>
        <time>2022-04-06T07:50:33.870Z</time>
      </trkpt>
      <trkpt lat="42.26411" lon="23.11478">
        <ele>571.952937</ele>
        <time>2022-04-06T07:50:37.871Z</time>
      </trkpt>
      <trkpt lat="42.26409" lon="23.11462">
        <ele>572.570518</ele>
        <time>2022-04-06T07:50:41.865Z</time>
      </trkpt>
      <trkpt lat="42.26408" lon="23.11449">
        <ele>573.034475</ele>
        <time>2022-04-06T07:50:44.872Z</time>
      </trkpt>
      <trkpt lat="42.26408" lon="23.11436">
        <ele>573.514955</ele>
        <time>2022-04-06T07:50:47.875Z</time>
      </trkpt>
      <trkpt lat="42.26405" lon="23.1142">
        <ele>574.109155</ele>
        <time>2022-04-06T07:50:50.869Z</time>
      </trkpt>
      <trkpt lat="42.26402" lon="23.11403">
        <ele>574.755755</ele>
        <time>2022-04-06T07:50:53.875Z</time>
      </trkpt>
      <trkpt lat="42.264" lon="23.11388">
        <ele>575.317692</ele>
        <time>2022-04-06T07:50:56.879Z</time>
      </trkpt>
      <trkpt lat="42.26396" lon="23.11374">
        <ele>575.869043</ele>
        <time>2022-04-06T07:50:59.878Z</time>
      </trkpt>
      <trkpt lat="42.26392" lon="23.11359">
        <ele>576.485765</ele>
        <time>2022-04-06T07:51:02.868Z</time>
      </trkpt>
      <trkpt lat="42.26391" lon="23.11346">
        <ele>576.967417</ele>
        <time>2022-04-06T07:51:05.864Z</time>
      </trkpt>
      <trkpt lat="42.26391" lon="23.11328">
        <ele>577.607218</ele>
        <time>2022-04-06T07:51:08.871Z</time>
      </trkpt>
      <trkpt lat="42.26391" lon="23.11314">
        <ele>578.150359</ele>
        <time>2022-04-06T07:51:10.870Z</time>
      </trkpt>
      <trkpt lat="42.26391" lon="23.11299">
        <ele>578.708209</ele>
        <time>2022-04-06T07:51:12.868Z</time>
      </trkpt>
      <trkpt lat="42.2639" lon="23.11284">
        <ele>579.004049</ele>
        <time>2022-04-06T07:51:14.903Z</time>
      </trkpt>
      <trkpt lat="42.26387" lon="23.1127">
        <ele>578.903573</ele>
        <time>2022-04-06T07:51:16.869Z</time>
      </trkpt>
      <trkpt lat="42.26386" lon="23.11257">
        <ele>578.8119</ele>
        <time>2022-04-06T07:51:18.876Z</time>
      </trkpt>
      <trkpt lat="42.26384" lon="23.11245">
        <ele>578.725609</ele>
        <time>2022-04-06T07:51:20.894Z</time>
      </trkpt>
      <trkpt lat="42.26383" lon="23.11232">
        <ele>578.632123</ele>
        <time>2022-04-06T07:51:22.865Z</time>
      </trkpt>
      <trkpt lat="42.26382" lon="23.11219">
        <ele>578.541981</ele>
        <time>2022-04-06T07:51:24.871Z</time>
      </trkpt>
      <trkpt lat="42.26379" lon="23.11201">
        <ele>578.411669</ele>
        <time>2022-04-06T07:51:27.872Z</time>
      </trkpt>
      <trkpt lat="42.26378" lon="23.11186">
        <ele>578.30553</ele>
        <time>2022-04-06T07:51:29.872Z</time>
      </trkpt>
      <trkpt lat="42.26377" lon="23.11172">
        <ele>578.204777</ele>
        <time>2022-04-06T07:51:31.877Z</time>
      </trkpt>
      <trkpt lat="42.26375" lon="23.11155">
        <ele>578.087076</ele>
        <time>2022-04-06T07:51:34.875Z</time>
      </trkpt>
      <trkpt lat="42.26377" lon="23.11142">
        <ele>577.992333</ele>
        <time>2022-04-06T07:51:36.874Z</time>
      </trkpt>
      <trkpt lat="42.26378" lon="23.11128">
        <ele>577.892194</ele>
        <time>2022-04-06T07:51:38.870Z</time>
      </trkpt>
      <trkpt lat="42.26373" lon="23.11113">
        <ele>577.775301</ele>
        <time>2022-04-06T07:51:41.872Z</time>
      </trkpt>
      <trkpt lat="42.26369" lon="23.11102">
        <ele>577.688165</ele>
        <time>2022-04-06T07:51:43.892Z</time>
      </trkpt>
      <trkpt lat="42.26364" lon="23.11091">
        <ele>577.598976</ele>
        <time>2022-04-06T07:51:45.878Z</time>
      </trkpt>
      <trkpt lat="42.26357" lon="23.11076">
        <ele>577.474884</ele>
        <time>2022-04-06T07:51:48.868Z</time>
      </trkpt>
      <trkpt lat="42.26349" lon="23.11062">
        <ele>577.352385</ele>
        <time>2022-04-06T07:51:51.881Z</time>
      </trkpt>
      <trkpt lat="42.26342" lon="23.11049">
        <ele>576.347393</ele>
        <time>2022-04-06T07:51:54.876Z</time>
      </trkpt>
      <trkpt lat="42.26334" lon="23.11039">
        <ele>575.327491</ele>
        <time>2022-04-06T07:51:57.880Z</time>
      </trkpt>
      <trkpt lat="42.26328" lon="23.11024">
        <ele>574.10694</ele>
        <time>2022-04-06T07:52:00.874Z</time>
      </trkpt>
      <trkpt lat="42.26325" lon="23.11012">
        <ele>573.162721</ele>
        <time>2022-04-06T07:52:02.879Z</time>
      </trkpt>
      <trkpt lat="42.26321" lon="23.10999">
        <ele>572.161528</ele>
        <time>2022-04-06T07:52:04.897Z</time>
      </trkpt>
      <trkpt lat="42.26317" lon="23.10986">
        <ele>571.160251</ele>
        <time>2022-04-06T07:52:06.878Z</time>
      </trkpt>
      <trkpt lat="42.2631" lon="23.10974">
        <ele>570.081198</ele>
        <time>2022-04-06T07:52:08.870Z</time>
      </trkpt>
      <trkpt lat="42.26305" lon="23.10961">
        <ele>569.041408</ele>
        <time>2022-04-06T07:52:10.903Z</time>
      </trkpt>
      <trkpt lat="42.26303" lon="23.10949">
        <ele>568.140031</ele>
        <time>2022-04-06T07:52:12.867Z</time>
      </trkpt>
      <trkpt lat="42.263" lon="23.10937">
        <ele>567.225073</ele>
        <time>2022-04-06T07:52:14.882Z</time>
      </trkpt>
      <trkpt lat="42.26292" lon="23.10926">
        <ele>566.18821</ele>
        <time>2022-04-06T07:52:16.906Z</time>
      </trkpt>
      <trkpt lat="42.26283" lon="23.10917">
        <ele>565.051363</ele>
        <time>2022-04-06T07:52:18.871Z</time>
      </trkpt>
      <trkpt lat="42.26274" lon="23.10909">
        <ele>564.016047</ele>
        <time>2022-04-06T07:52:20.884Z</time>
      </trkpt>
      <trkpt lat="42.26264" lon="23.10897">
        <ele>562.727819</ele>
        <time>2022-04-06T07:52:23.873Z</time>
      </trkpt>
      <trkpt lat="42.26256" lon="23.10888">
        <ele>561.737019</ele>
        <time>2022-04-06T07:52:25.876Z</time>
      </trkpt>
      <trkpt lat="42.26247" lon="23.10879">
        <ele>560.636177</ele>
        <time>2022-04-06T07:52:27.904Z</time>
      </trkpt>
      <trkpt lat="42.26237" lon="23.10868">
        <ele>559.789252</ele>
        <time>2022-04-06T07:52:29.874Z</time>
      </trkpt>
      <trkpt lat="42.26226" lon="23.10859">
        <ele>559.409841</ele>
        <time>2022-04-06T07:52:31.892Z</time>
      </trkpt>
      <trkpt lat="42.26217" lon="23.1085">
        <ele>559.040798</ele>
        <time>2022-04-06T07:52:33.878Z</time>
      </trkpt>
      <trkpt lat="42.26207" lon="23.10839">
        <ele>558.659479</ele>
        <time>2022-04-06T07:52:35.873Z</time>
      </trkpt>
      <trkpt lat="42.26198" lon="23.10828">
        <ele>558.268025</ele>
        <time>2022-04-06T07:52:37.873Z</time>
      </trkpt>
      <trkpt lat="42.26188" lon="23.10818">
        <ele>557.881927</ele>
        <time>2022-04-06T07:52:39.868Z</time>
      </trkpt>
      <trkpt lat="42.26177" lon="23.10809">
        <ele>557.494779</ele>
        <time>2022-04-06T07:52:41.892Z</time>
      </trkpt>
      <trkpt lat="42.26168" lon="23.10799">
        <ele>557.134524</ele>
        <time>2022-04-06T07:52:43.874Z</time>
      </trkpt>
      <trkpt lat="42.2616" lon="23.10789">
        <ele>556.798113</ele>
        <time>2022-04-06T07:52:45.882Z</time>
      </trkpt>
      <trkpt lat="42.2615" lon="23.10777">
        <ele>556.381573</ele>
        <time>2022-04-06T07:52:47.876Z</time>
      </trkpt>
      <trkpt lat="42.2614" lon="23.10766">
        <ele>555.96783</ele>
        <time>2022-04-06T07:52:49.879Z</time>
      </trkpt>
      <trkpt lat="42.26131" lon="23.10757">
        <ele>555.605147</ele>
        <time>2022-04-06T07:52:51.874Z</time>
      </trkpt>
      <trkpt lat="42.26122" lon="23.10747">
        <ele>555.251087</ele>
        <time>2022-04-06T07:52:53.877Z</time>
      </trkpt>
      <trkpt lat="42.26115" lon="23.10736">
        <ele>554.924513</ele>
        <time>2022-04-06T07:52:55.871Z</time>
      </trkpt>
      <trkpt lat="42.26108" lon="23.10724">
        <ele>554.570222</ele>
        <time>2022-04-06T07:52:57.871Z</time>
      </trkpt>
      <trkpt lat="42.261" lon="23.10714">
        <ele>554.198359</ele>
        <time>2022-04-06T07:52:59.877Z</time>
      </trkpt>
      <trkpt lat="42.26092" lon="23.10702">
        <ele>553.737177</ele>
        <time>2022-04-06T07:53:01.878Z</time>
      </trkpt>
      <trkpt lat="42.26087" lon="23.10692">
        <ele>553.366533</ele>
        <time>2022-04-06T07:53:03.883Z</time>
      </trkpt>
      <trkpt lat="42.26078" lon="23.10683">
        <ele>552.953313</ele>
        <time>2022-04-06T07:53:05.872Z</time>
      </trkpt>
      <trkpt lat="42.26069" lon="23.10677">
        <ele>552.545591</ele>
        <time>2022-04-06T07:53:07.874Z</time>
      </trkpt>
      <trkpt lat="42.26058" lon="23.10668">
        <ele>552.065611</ele>
        <time>2022-04-06T07:53:09.881Z</time>
      </trkpt>
      <trkpt lat="42.26048" lon="23.10657">
        <ele>551.566501</ele>
        <time>2022-04-06T07:53:11.878Z</time>
      </trkpt>
      <trkpt lat="42.2604" lon="23.10647">
        <ele>551.131391</ele>
        <time>2022-04-06T07:53:13.873Z</time>
      </trkpt>
      <trkpt lat="42.26033" lon="23.10638">
        <ele>550.749447</ele>
        <time>2022-04-06T07:53:15.877Z</time>
      </trkpt>
      <trkpt lat="42.26024" lon="23.10626">
        <ele>550.261195</ele>
        <time>2022-04-06T07:53:18.873Z</time>
      </trkpt>
      <trkpt lat="42.26017" lon="23.10618">
        <ele>549.895188</ele>
        <time>2022-04-06T07:53:20.892Z</time>
      </trkpt>
      <trkpt lat="42.26008" lon="23.1061">
        <ele>549.470584</ele>
        <time>2022-04-06T07:53:22.867Z</time>
      </trkpt>
      <trkpt lat="42.26" lon="23.10601">
        <ele>549.070696</ele>
        <time>2022-04-06T07:53:24.868Z</time>
      </trkpt>
      <trkpt lat="42.25991" lon="23.10592">
        <ele>548.66204</ele>
        <time>2022-04-06T07:53:26.896Z</time>
      </trkpt>
      <trkpt lat="42.25983" lon="23.10583">
        <ele>548.226928</ele>
        <time>2022-04-06T07:53:28.874Z</time>
      </trkpt>
      <trkpt lat="42.25974" lon="23.10573">
        <ele>547.794371</ele>
        <time>2022-04-06T07:53:30.876Z</time>
      </trkpt>
      <trkpt lat="42.25967" lon="23.10564">
        <ele>547.417232</ele>
        <time>2022-04-06T07:53:32.908Z</time>
      </trkpt>
      <trkpt lat="42.2596" lon="23.10556">
        <ele>547.1994</ele>
        <time>2022-04-06T07:53:34.867Z</time>
      </trkpt>
      <trkpt lat="42.25954" lon="23.10547">
        <ele>546.988757</ele>
        <time>2022-04-06T07:53:36.874Z</time>
      </trkpt>
      <trkpt lat="42.25947" lon="23.10539">
        <ele>546.773871</ele>
        <time>2022-04-06T07:53:38.890Z</time>
      </trkpt>
      <trkpt lat="42.25939" lon="23.10529">
        <ele>546.546207</ele>
        <time>2022-04-06T07:53:40.876Z</time>
      </trkpt>
      <trkpt lat="42.25931" lon="23.10519">
        <ele>546.291896</ele>
        <time>2022-04-06T07:53:42.865Z</time>
      </trkpt>
      <trkpt lat="42.25923" lon="23.10509">
        <ele>546.047026</ele>
        <time>2022-04-06T07:53:44.896Z</time>
      </trkpt>
      <trkpt lat="42.25915" lon="23.10501">
        <ele>545.82027</ele>
        <time>2022-04-06T07:53:46.868Z</time>
      </trkpt>
      <trkpt lat="42.25907" lon="23.10491">
        <ele>545.590391</ele>
        <time>2022-04-06T07:53:48.875Z</time>
      </trkpt>
      <trkpt lat="42.25897" lon="23.10482">
        <ele>545.321802</ele>
        <time>2022-04-06T07:53:50.874Z</time>
      </trkpt>
      <trkpt lat="42.25888" lon="23.10472">
        <ele>545.047473</ele>
        <time>2022-04-06T07:53:52.867Z</time>
      </trkpt>
      <trkpt lat="42.25878" lon="23.10463">
        <ele>544.789879</ele>
        <time>2022-04-06T07:53:54.872Z</time>
      </trkpt>
      <trkpt lat="42.25871" lon="23.10452">
        <ele>544.546045</ele>
        <time>2022-04-06T07:53:56.891Z</time>
      </trkpt>
      <trkpt lat="42.25862" lon="23.10441">
        <ele>544.272017</ele>
        <time>2022-04-06T07:53:58.869Z</time>
      </trkpt>
      <trkpt lat="42.25853" lon="23.10431">
        <ele>544.004153</ele>
        <time>2022-04-06T07:54:00.869Z</time>
      </trkpt>
      <trkpt lat="42.25844" lon="23.10421">
        <ele>543.751271</ele>
        <time>2022-04-06T07:54:02.898Z</time>
      </trkpt>
      <trkpt lat="42.25834" lon="23.10413">
        <ele>543.495753</ele>
        <time>2022-04-06T07:54:04.888Z</time>
      </trkpt>
      <trkpt lat="42.25825" lon="23.10405">
        <ele>543.107176</ele>
        <time>2022-04-06T07:54:06.877Z</time>
      </trkpt>
      <trkpt lat="42.25816" lon="23.10397">
        <ele>542.531971</ele>
        <time>2022-04-06T07:54:08.901Z</time>
      </trkpt>
      <trkpt lat="42.25808" lon="23.10388">
        <ele>541.95719</ele>
        <time>2022-04-06T07:54:10.879Z</time>
      </trkpt>
      <trkpt lat="42.258" lon="23.10379">
        <ele>541.388765</ele>
        <time>2022-04-06T07:54:12.873Z</time>
      </trkpt>
      <trkpt lat="42.25793" lon="23.10371">
        <ele>540.872236</ele>
        <time>2022-04-06T07:54:14.899Z</time>
      </trkpt>
      <trkpt lat="42.25786" lon="23.10363">
        <ele>540.327513</ele>
        <time>2022-04-06T07:54:16.875Z</time>
      </trkpt>
      <trkpt lat="42.25778" lon="23.10355">
        <ele>539.792846</ele>
        <time>2022-04-06T07:54:18.867Z</time>
      </trkpt>
      <trkpt lat="42.2577" lon="23.10347">
        <ele>539.25818</ele>
        <time>2022-04-06T07:54:20.866Z</time>
      </trkpt>
      <trkpt lat="42.25763" lon="23.10338">
        <ele>538.726631</ele>
        <time>2022-04-06T07:54:22.877Z</time>
      </trkpt>
      <trkpt lat="42.25756" lon="23.10329">
        <ele>538.187906</ele>
        <time>2022-04-06T07:54:24.867Z</time>
      </trkpt>
      <trkpt lat="42.25747" lon="23.10322">
        <ele>537.637986</ele>
        <time>2022-04-06T07:54:26.895Z</time>
      </trkpt>
      <trkpt lat="42.25739" lon="23.10314">
        <ele>537.085758</ele>
        <time>2022-04-06T07:54:28.868Z</time>
      </trkpt>
      <trkpt lat="42.25732" lon="23.10307">
        <ele>536.583982</ele>
        <time>2022-04-06T07:54:30.874Z</time>
      </trkpt>
      <trkpt lat="42.25724" lon="23.103">
        <ele>536.068315</ele>
        <time>2022-04-06T07:54:32.908Z</time>
      </trkpt>
      <trkpt lat="42.25716" lon="23.10294">
        <ele>535.537791</ele>
        <time>2022-04-06T07:54:34.874Z</time>
      </trkpt>
      <trkpt lat="42.25707" lon="23.10288">
        <ele>535.005544</ele>
        <time>2022-04-06T07:54:36.877Z</time>
      </trkpt>
      <trkpt lat="42.25699" lon="23.10281">
        <ele>534.483038</ele>
        <time>2022-04-06T07:54:38.874Z</time>
      </trkpt>
      <trkpt lat="42.2569" lon="23.10276">
        <ele>533.940108</ele>
        <time>2022-04-06T07:54:40.874Z</time>
      </trkpt>
      <trkpt lat="42.25682" lon="23.1027">
        <ele>533.422112</ele>
        <time>2022-04-06T07:54:42.873Z</time>
      </trkpt>
      <trkpt lat="42.25674" lon="23.10264">
        <ele>533.273</ele>
        <time>2022-04-06T07:54:44.870Z</time>
      </trkpt>
      <trkpt lat="42.25662" lon="23.10255">
        <ele>533.089049</ele>
        <time>2022-04-06T07:54:47.874Z</time>
      </trkpt>
      <trkpt lat="42.25651" lon="23.10247">
        <ele>532.902225</ele>
        <time>2022-04-06T07:54:50.870Z</time>
      </trkpt>
      <trkpt lat="42.25643" lon="23.10241">
        <ele>532.77454</ele>
        <time>2022-04-06T07:54:52.875Z</time>
      </trkpt>
      <trkpt lat="42.25631" lon="23.10233">
        <ele>532.592418</ele>
        <time>2022-04-06T07:54:55.876Z</time>
      </trkpt>
      <trkpt lat="42.25623" lon="23.10226">
        <ele>532.462428</ele>
        <time>2022-04-06T07:54:57.872Z</time>
      </trkpt>
      <trkpt lat="42.25612" lon="23.10217">
        <ele>532.279288</ele>
        <time>2022-04-06T07:55:00.902Z</time>
      </trkpt>
      <trkpt lat="42.25602" lon="23.10208">
        <ele>532.112017</ele>
        <time>2022-04-06T07:55:03.872Z</time>
      </trkpt>
      <trkpt lat="42.25592" lon="23.10199">
        <ele>531.933714</ele>
        <time>2022-04-06T07:55:06.899Z</time>
      </trkpt>
      <trkpt lat="42.25581" lon="23.1019">
        <ele>531.755803</ele>
        <time>2022-04-06T07:55:09.875Z</time>
      </trkpt>
      <trkpt lat="42.2557" lon="23.10182">
        <ele>531.585499</ele>
        <time>2022-04-06T07:55:12.906Z</time>
      </trkpt>
      <trkpt lat="42.2556" lon="23.10175">
        <ele>531.422403</ele>
        <time>2022-04-06T07:55:15.866Z</time>
      </trkpt>
      <trkpt lat="42.2555" lon="23.10168">
        <ele>531.268874</ele>
        <time>2022-04-06T07:55:18.898Z</time>
      </trkpt>
      <trkpt lat="42.2554" lon="23.1016">
        <ele>531.106051</ele>
        <time>2022-04-06T07:55:21.886Z</time>
      </trkpt>
      <trkpt lat="42.2553" lon="23.10153">
        <ele>530.936795</ele>
        <time>2022-04-06T07:55:24.897Z</time>
      </trkpt>
      <trkpt lat="42.25519" lon="23.10145">
        <ele>530.776271</ele>
        <time>2022-04-06T07:55:27.878Z</time>
      </trkpt>
      <trkpt lat="42.25509" lon="23.10138">
        <ele>530.62893</ele>
        <time>2022-04-06T07:55:30.894Z</time>
      </trkpt>
      <trkpt lat="42.25499" lon="23.10131">
        <ele>530.484959</ele>
        <time>2022-04-06T07:55:33.880Z</time>
      </trkpt>
      <trkpt lat="42.25489" lon="23.10122">
        <ele>530.334593</ele>
        <time>2022-04-06T07:55:36.894Z</time>
      </trkpt>
      <trkpt lat="42.25479" lon="23.10113">
        <ele>530.182633</ele>
        <time>2022-04-06T07:55:39.872Z</time>
      </trkpt>
      <trkpt lat="42.25469" lon="23.10104">
        <ele>530.028447</ele>
        <time>2022-04-06T07:55:42.905Z</time>
      </trkpt>
      <trkpt lat="42.25458" lon="23.10097">
        <ele>529.871583</ele>
        <time>2022-04-06T07:55:45.884Z</time>
      </trkpt>
      <trkpt lat="42.25448" lon="23.10089">
        <ele>529.721288</ele>
        <time>2022-04-06T07:55:48.873Z</time>
      </trkpt>
      <trkpt lat="42.25438" lon="23.10081">
        <ele>529.57555</ele>
        <time>2022-04-06T07:55:51.877Z</time>
      </trkpt>
      <trkpt lat="42.25429" lon="23.10074">
        <ele>529.443618</ele>
        <time>2022-04-06T07:55:54.872Z</time>
      </trkpt>
      <trkpt lat="42.25419" lon="23.10065">
        <ele>529.289002</ele>
        <time>2022-04-06T07:55:57.930Z</time>
      </trkpt>
      <trkpt lat="42.25409" lon="23.10056">
        <ele>529.12995</ele>
        <time>2022-04-06T07:56:00.870Z</time>
      </trkpt>
      <trkpt lat="42.25398" lon="23.10048">
        <ele>528.967714</ele>
        <time>2022-04-06T07:56:03.881Z</time>
      </trkpt>
      <trkpt lat="42.25387" lon="23.1004">
        <ele>528.808841</ele>
        <time>2022-04-06T07:56:06.897Z</time>
      </trkpt>
      <trkpt lat="42.25376" lon="23.10032">
        <ele>528.64522</ele>
        <time>2022-04-06T07:56:09.892Z</time>
      </trkpt>
      <trkpt lat="42.25365" lon="23.10023">
        <ele>528.595127</ele>
        <time>2022-04-06T07:56:12.900Z</time>
      </trkpt>
      <trkpt lat="42.25356" lon="23.10017">
        <ele>528.649156</ele>
        <time>2022-04-06T07:56:14.911Z</time>
      </trkpt>
      <trkpt lat="42.25347" lon="23.10011">
        <ele>528.703959</ele>
        <time>2022-04-06T07:56:16.881Z</time>
      </trkpt>
      <trkpt lat="42.25339" lon="23.10004">
        <ele>528.757164</ele>
        <time>2022-04-06T07:56:18.887Z</time>
      </trkpt>
      <trkpt lat="42.2533" lon="23.09996">
        <ele>528.814847</ele>
        <time>2022-04-06T07:56:21.886Z</time>
      </trkpt>
      <trkpt lat="42.25323" lon="23.09987">
        <ele>528.868092</ele>
        <time>2022-04-06T07:56:25.895Z</time>
      </trkpt>
      <trkpt lat="42.2532" lon="23.09976">
        <ele>528.917905</ele>
        <time>2022-04-06T07:56:29.874Z</time>
      </trkpt>
      <trkpt lat="42.25317" lon="23.0996">
        <ele>528.984112</ele>
        <time>2022-04-06T07:56:34.873Z</time>
      </trkpt>
      <trkpt lat="42.25314" lon="23.09946">
        <ele>529.042694</ele>
        <time>2022-04-06T07:56:37.917Z</time>
      </trkpt>
      <trkpt lat="42.25311" lon="23.09929">
        <ele>529.114823</ele>
        <time>2022-04-06T07:56:40.869Z</time>
      </trkpt>
      <trkpt lat="42.2531" lon="23.09915">
        <ele>529.171096</ele>
        <time>2022-04-06T07:56:42.872Z</time>
      </trkpt>
      <trkpt lat="42.25308" lon="23.09901">
        <ele>529.228713</ele>
        <time>2022-04-06T07:56:44.873Z</time>
      </trkpt>
      <trkpt lat="42.25307" lon="23.09887">
        <ele>529.285713</ele>
        <time>2022-04-06T07:56:46.872Z</time>
      </trkpt>
      <trkpt lat="42.25306" lon="23.09873">
        <ele>529.34498</ele>
        <time>2022-04-06T07:56:48.868Z</time>
      </trkpt>
      <trkpt lat="42.25305" lon="23.09858">
        <ele>529.404609</ele>
        <time>2022-04-06T07:56:50.879Z</time>
      </trkpt>
      <trkpt lat="42.25304" lon="23.09843">
        <ele>529.463978</ele>
        <time>2022-04-06T07:56:52.900Z</time>
      </trkpt>
      <trkpt lat="42.25303" lon="23.09829">
        <ele>529.523608</ele>
        <time>2022-04-06T07:56:54.875Z</time>
      </trkpt>
      <trkpt lat="42.25302" lon="23.09815">
        <ele>529.337608</ele>
        <time>2022-04-06T07:56:56.875Z</time>
      </trkpt>
      <trkpt lat="42.25301" lon="23.09801">
        <ele>528.938999</ele>
        <time>2022-04-06T07:56:58.899Z</time>
      </trkpt>
      <trkpt lat="42.25301" lon="23.09787">
        <ele>528.559238</ele>
        <time>2022-04-06T07:57:00.879Z</time>
      </trkpt>
      <trkpt lat="42.25301" lon="23.09774">
        <ele>528.185126</ele>
        <time>2022-04-06T07:57:02.871Z</time>
      </trkpt>
      <trkpt lat="42.25301" lon="23.09761">
        <ele>527.819515</ele>
        <time>2022-04-06T07:57:04.869Z</time>
      </trkpt>
      <trkpt lat="42.25301" lon="23.09748">
        <ele>527.445344</ele>
        <time>2022-04-06T07:57:06.890Z</time>
      </trkpt>
      <trkpt lat="42.25301" lon="23.09734">
        <ele>527.059839</ele>
        <time>2022-04-06T07:57:08.880Z</time>
      </trkpt>
      <trkpt lat="42.25301" lon="23.0972">
        <ele>526.66024</ele>
        <time>2022-04-06T07:57:10.905Z</time>
      </trkpt>
      <trkpt lat="42.25301" lon="23.09706">
        <ele>526.269068</ele>
        <time>2022-04-06T07:57:12.877Z</time>
      </trkpt>
      <trkpt lat="42.253" lon="23.09693">
        <ele>525.888825</ele>
        <time>2022-04-06T07:57:14.873Z</time>
      </trkpt>
      <trkpt lat="42.253" lon="23.09679">
        <ele>525.500543</ele>
        <time>2022-04-06T07:57:16.911Z</time>
      </trkpt>
      <trkpt lat="42.253" lon="23.09665">
        <ele>525.092369</ele>
        <time>2022-04-06T07:57:18.873Z</time>
      </trkpt>
      <trkpt lat="42.25299" lon="23.09651">
        <ele>524.689481</ele>
        <time>2022-04-06T07:57:20.875Z</time>
      </trkpt>
      <trkpt lat="42.25297" lon="23.09637">
        <ele>524.291675</ele>
        <time>2022-04-06T07:57:22.868Z</time>
      </trkpt>
      <trkpt lat="42.25295" lon="23.09624">
        <ele>523.910038</ele>
        <time>2022-04-06T07:57:24.881Z</time>
      </trkpt>
      <trkpt lat="42.25291" lon="23.09612">
        <ele>523.54724</ele>
        <time>2022-04-06T07:57:26.869Z</time>
      </trkpt>
      <trkpt lat="42.25286" lon="23.09596">
        <ele>523.0463</ele>
        <time>2022-04-06T07:57:29.879Z</time>
      </trkpt>
      <trkpt lat="42.25284" lon="23.09582">
        <ele>522.662624</ele>
        <time>2022-04-06T07:57:32.874Z</time>
      </trkpt>
      <trkpt lat="42.25289" lon="23.09571">
        <ele>522.582642</ele>
        <time>2022-04-06T07:57:37.870Z</time>
      </trkpt>
      <trkpt lat="42.25294" lon="23.09559">
        <ele>522.495305</ele>
        <time>2022-04-06T07:57:41.883Z</time>
      </trkpt>
      <trkpt lat="42.25294" lon="23.09544">
        <ele>522.407302</ele>
        <time>2022-04-06T07:57:44.872Z</time>
      </trkpt>
      <trkpt lat="42.25286" lon="23.0953">
        <ele>522.306181</ele>
        <time>2022-04-06T07:57:47.885Z</time>
      </trkpt>
      <trkpt lat="42.25276" lon="23.09521">
        <ele>522.204065</ele>
        <time>2022-04-06T07:57:50.872Z</time>
      </trkpt>
      <trkpt lat="42.2527" lon="23.0951">
        <ele>522.120811</ele>
        <time>2022-04-06T07:57:53.867Z</time>
      </trkpt>
      <trkpt lat="42.25269" lon="23.09494">
        <ele>522.024298</ele>
        <time>2022-04-06T07:57:56.877Z</time>
      </trkpt>
      <trkpt lat="42.2527" lon="23.09479">
        <ele>521.932982</ele>
        <time>2022-04-06T07:57:59.874Z</time>
      </trkpt>
      <trkpt lat="42.25272" lon="23.09464">
        <ele>521.843377</ele>
        <time>2022-04-06T07:58:02.869Z</time>
      </trkpt>
      <trkpt lat="42.25272" lon="23.09449">
        <ele>521.751207</ele>
        <time>2022-04-06T07:58:05.873Z</time>
      </trkpt>
      <trkpt lat="42.25272" lon="23.09433">
        <ele>521.655484</ele>
        <time>2022-04-06T07:58:08.868Z</time>
      </trkpt>
      <trkpt lat="42.25273" lon="23.09417">
        <ele>521.563313</ele>
        <time>2022-04-06T07:58:11.873Z</time>
      </trkpt>
      <trkpt lat="42.25274" lon="23.09402">
        <ele>521.472672</ele>
        <time>2022-04-06T07:58:14.872Z</time>
      </trkpt>
      <trkpt lat="42.25275" lon="23.09387">
        <ele>521.379214</ele>
        <time>2022-04-06T07:58:17.872Z</time>
      </trkpt>
      <trkpt lat="42.25275" lon="23.09372">
        <ele>521.286843</ele>
        <time>2022-04-06T07:58:20.871Z</time>
      </trkpt>
      <trkpt lat="42.25276" lon="23.09356">
        <ele>521.25223</ele>
        <time>2022-04-06T07:58:23.866Z</time>
      </trkpt>
      <trkpt lat="42.25276" lon="23.0934">
        <ele>521.801824</ele>
        <time>2022-04-06T07:58:26.874Z</time>
      </trkpt>
      <trkpt lat="42.25277" lon="23.09324">
        <ele>522.328787</ele>
        <time>2022-04-06T07:58:29.874Z</time>
      </trkpt>
      <trkpt lat="42.25278" lon="23.09308">
        <ele>522.864909</ele>
        <time>2022-04-06T07:58:32.872Z</time>
      </trkpt>
      <trkpt lat="42.25278" lon="23.09293">
        <ele>523.381787</ele>
        <time>2022-04-06T07:58:35.877Z</time>
      </trkpt>
      <trkpt lat="42.25279" lon="23.09278">
        <ele>523.88557</ele>
        <time>2022-04-06T07:58:38.872Z</time>
      </trkpt>
      <trkpt lat="42.25281" lon="23.09262">
        <ele>524.428507</ele>
        <time>2022-04-06T07:58:41.886Z</time>
      </trkpt>
      <trkpt lat="42.25282" lon="23.0925">
        <ele>524.837886</ele>
        <time>2022-04-06T07:58:43.913Z</time>
      </trkpt>
      <trkpt lat="42.25283" lon="23.09232">
        <ele>525.429739</ele>
        <time>2022-04-06T07:58:46.900Z</time>
      </trkpt>
      <trkpt lat="42.25284" lon="23.09215">
        <ele>526.023118</ele>
        <time>2022-04-06T07:58:49.877Z</time>
      </trkpt>
      <trkpt lat="42.25283" lon="23.09198">
        <ele>526.599818</ele>
        <time>2022-04-06T07:58:52.897Z</time>
      </trkpt>
      <trkpt lat="42.25282" lon="23.09183">
        <ele>527.099276</ele>
        <time>2022-04-06T07:58:55.883Z</time>
      </trkpt>
      <trkpt lat="42.25278" lon="23.09169">
        <ele>527.597243</ele>
        <time>2022-04-06T07:58:59.877Z</time>
      </trkpt>
      <trkpt lat="42.25275" lon="23.09156">
        <ele>528.079206</ele>
        <time>2022-04-06T07:59:04.893Z</time>
      </trkpt>
      <trkpt lat="42.25271" lon="23.09142">
        <ele>528.561168</ele>
        <time>2022-04-06T07:59:09.882Z</time>
      </trkpt>
      <trkpt lat="42.25269" lon="23.09128">
        <ele>529.035044</ele>
        <time>2022-04-06T07:59:14.877Z</time>
      </trkpt>
      <trkpt lat="42.25265" lon="23.09117">
        <ele>529.585268</ele>
        <time>2022-04-06T07:59:19.886Z</time>
      </trkpt>
      <trkpt lat="42.2526" lon="23.09105">
        <ele>530.787752</ele>
        <time>2022-04-06T07:59:24.876Z</time>
      </trkpt>
      <trkpt lat="42.25258" lon="23.09092">
        <ele>531.98007</ele>
        <time>2022-04-06T07:59:30.868Z</time>
      </trkpt>
      <trkpt lat="42.25257" lon="23.0908">
        <ele>533.110174</ele>
        <time>2022-04-06T07:59:35.876Z</time>
      </trkpt>
      <trkpt lat="42.25257" lon="23.09066">
        <ele>534.368323</ele>
        <time>2022-04-06T07:59:41.883Z</time>
      </trkpt>
      <trkpt lat="42.25256" lon="23.09052">
        <ele>535.644514</ele>
        <time>2022-04-06T07:59:47.884Z</time>
      </trkpt>
      <trkpt lat="42.25255" lon="23.09039">
        <ele>536.855209</ele>
        <time>2022-04-06T07:59:53.875Z</time>
      </trkpt>
      <trkpt lat="42.25254" lon="23.09026">
        <ele>538.028574</ele>
        <time>2022-04-06T07:59:59.879Z</time>
      </trkpt>
      <trkpt lat="42.25254" lon="23.09013">
        <ele>539.176417</ele>
        <time>2022-04-06T08:00:04.868Z</time>
      </trkpt>
      <trkpt lat="42.25253" lon="23.08999">
        <ele>540.441999</ele>
        <time>2022-04-06T08:00:10.888Z</time>
      </trkpt>
      <trkpt lat="42.25253" lon="23.08986">
        <ele>541.66486</ele>
        <time>2022-04-06T08:00:16.902Z</time>
      </trkpt>
      <trkpt lat="42.25254" lon="23.08972">
        <ele>542.874139</ele>
        <time>2022-04-06T08:00:22.868Z</time>
      </trkpt>
      <trkpt lat="42.25255" lon="23.08959">
        <ele>544.064145</ele>
        <time>2022-04-06T08:00:28.900Z</time>
      </trkpt>
      <trkpt lat="42.25257" lon="23.08947">
        <ele>545.198791</ele>
        <time>2022-04-06T08:00:34.899Z</time>
      </trkpt>
      <trkpt lat="42.25258" lon="23.08933">
        <ele>546.496696</ele>
        <time>2022-04-06T08:00:40.911Z</time>
      </trkpt>
      <trkpt lat="42.2526" lon="23.08921">
        <ele>547.594212</ele>
        <time>2022-04-06T08:00:45.880Z</time>
      </trkpt>
      <trkpt lat="42.25263" lon="23.08908">
        <ele>548.812442</ele>
        <time>2022-04-06T08:00:50.871Z</time>
      </trkpt>
      <trkpt lat="42.25265" lon="23.08896">
        <ele>549.943089</ele>
        <time>2022-04-06T08:00:55.885Z</time>
      </trkpt>
      <trkpt lat="42.25268" lon="23.08883">
        <ele>551.130488</ele>
        <time>2022-04-06T08:01:00.874Z</time>
      </trkpt>
      <trkpt lat="42.25272" lon="23.0887">
        <ele>551.247703</ele>
        <time>2022-04-06T08:01:05.889Z</time>
      </trkpt>
      <trkpt lat="42.25276" lon="23.08856">
        <ele>551.121625</ele>
        <time>2022-04-06T08:01:09.886Z</time>
      </trkpt>
      <trkpt lat="42.2528" lon="23.08842">
        <ele>551.001035</ele>
        <time>2022-04-06T08:01:13.880Z</time>
      </trkpt>
      <trkpt lat="42.25284" lon="23.08831">
        <ele>550.900193</ele>
        <time>2022-04-06T08:01:16.877Z</time>
      </trkpt>
      <trkpt lat="42.25288" lon="23.08818">
        <ele>550.781925</ele>
        <time>2022-04-06T08:01:20.871Z</time>
      </trkpt>
      <trkpt lat="42.25294" lon="23.08806">
        <ele>550.658399</ele>
        <time>2022-04-06T08:01:24.868Z</time>
      </trkpt>
      <trkpt lat="42.25299" lon="23.08795">
        <ele>550.552264</ele>
        <time>2022-04-06T08:01:27.872Z</time>
      </trkpt>
      <trkpt lat="42.25305" lon="23.08782">
        <ele>550.42188</ele>
        <time>2022-04-06T08:01:31.885Z</time>
      </trkpt>
      <trkpt lat="42.25311" lon="23.08772">
        <ele>550.31405</ele>
        <time>2022-04-06T08:01:34.874Z</time>
      </trkpt>
      <trkpt lat="42.25319" lon="23.08761">
        <ele>550.187132</ele>
        <time>2022-04-06T08:01:38.875Z</time>
      </trkpt>
      <trkpt lat="42.25325" lon="23.08748">
        <ele>550.055648</ele>
        <time>2022-04-06T08:01:42.872Z</time>
      </trkpt>
      <trkpt lat="42.25332" lon="23.08734">
        <ele>549.919993</ele>
        <time>2022-04-06T08:01:46.875Z</time>
      </trkpt>
      <trkpt lat="42.25338" lon="23.08724">
        <ele>549.812656</ele>
        <time>2022-04-06T08:01:49.914Z</time>
      </trkpt>
      <trkpt lat="42.25344" lon="23.08714">
        <ele>549.705966</ele>
        <time>2022-04-06T08:01:52.876Z</time>
      </trkpt>
      <trkpt lat="42.25349" lon="23.08703">
        <ele>549.593937</ele>
        <time>2022-04-06T08:01:55.879Z</time>
      </trkpt>
      <trkpt lat="42.25355" lon="23.08692">
        <ele>549.486541</ele>
        <time>2022-04-06T08:01:58.872Z</time>
      </trkpt>
      <trkpt lat="42.2536" lon="23.08681">
        <ele>549.377239</ele>
        <time>2022-04-06T08:02:01.879Z</time>
      </trkpt>
      <trkpt lat="42.25364" lon="23.0867">
        <ele>549.303317</ele>
        <time>2022-04-06T08:02:04.884Z</time>
      </trkpt>
      <trkpt lat="42.25368" lon="23.08658">
        <ele>549.262802</ele>
        <time>2022-04-06T08:02:07.885Z</time>
      </trkpt>
      <trkpt lat="42.25372" lon="23.08646">
        <ele>549.221045</ele>
        <time>2022-04-06T08:02:10.869Z</time>
      </trkpt>
      <trkpt lat="42.25375" lon="23.08632">
        <ele>549.178697</ele>
        <time>2022-04-06T08:02:13.881Z</time>
      </trkpt>
      <trkpt lat="42.25378" lon="23.08618">
        <ele>549.133538</ele>
        <time>2022-04-06T08:02:16.879Z</time>
      </trkpt>
      <trkpt lat="42.25381" lon="23.08604">
        <ele>549.087916</ele>
        <time>2022-04-06T08:02:19.870Z</time>
      </trkpt>
      <trkpt lat="42.25385" lon="23.08588">
        <ele>549.039308</ele>
        <time>2022-04-06T08:02:22.895Z</time>
      </trkpt>
      <trkpt lat="42.25389" lon="23.08573">
        <ele>548.991152</ele>
        <time>2022-04-06T08:02:25.883Z</time>
      </trkpt>
      <trkpt lat="42.25392" lon="23.08559">
        <ele>548.943574</ele>
        <time>2022-04-06T08:02:28.901Z</time>
      </trkpt>
      <trkpt lat="42.25395" lon="23.08544">
        <ele>548.896944</ele>
        <time>2022-04-06T08:02:31.892Z</time>
      </trkpt>
      <trkpt lat="42.25398" lon="23.08531">
        <ele>548.855345</ele>
        <time>2022-04-06T08:02:34.901Z</time>
      </trkpt>
      <trkpt lat="42.25402" lon="23.08517">
        <ele>548.809472</ele>
        <time>2022-04-06T08:02:37.897Z</time>
      </trkpt>
      <trkpt lat="42.25406" lon="23.08503">
        <ele>548.763427</ele>
        <time>2022-04-06T08:02:40.899Z</time>
      </trkpt>
      <trkpt lat="42.25411" lon="23.0849">
        <ele>548.718907</ele>
        <time>2022-04-06T08:02:43.885Z</time>
      </trkpt>
      <trkpt lat="42.25417" lon="23.08478">
        <ele>548.675991</ele>
        <time>2022-04-06T08:02:46.897Z</time>
      </trkpt>
      <trkpt lat="42.25423" lon="23.08466">
        <ele>548.633147</ele>
        <time>2022-04-06T08:02:49.870Z</time>
      </trkpt>
      <trkpt lat="42.2543" lon="23.08455">
        <ele>548.588732</ele>
        <time>2022-04-06T08:02:52.871Z</time>
      </trkpt>
      <trkpt lat="42.25438" lon="23.08444">
        <ele>547.793359</ele>
        <time>2022-04-06T08:02:55.872Z</time>
      </trkpt>
      <trkpt lat="42.25446" lon="23.08435">
        <ele>546.869681</ele>
        <time>2022-04-06T08:02:58.891Z</time>
      </trkpt>
      <trkpt lat="42.25455" lon="23.08426">
        <ele>545.958845</ele>
        <time>2022-04-06T08:03:01.879Z</time>
      </trkpt>
      <trkpt lat="42.25464" lon="23.08419">
        <ele>545.061954</ele>
        <time>2022-04-06T08:03:04.900Z</time>
      </trkpt>
      <trkpt lat="42.25473" lon="23.08413">
        <ele>544.19717</ele>
        <time>2022-04-06T08:03:07.875Z</time>
      </trkpt>
      <trkpt lat="42.25481" lon="23.08407">
        <ele>543.396959</ele>
        <time>2022-04-06T08:03:10.899Z</time>
      </trkpt>
      <trkpt lat="42.25491" lon="23.08402">
        <ele>542.509278</ele>
        <time>2022-04-06T08:03:13.886Z</time>
      </trkpt>
      <trkpt lat="42.25501" lon="23.08397">
        <ele>541.563603</ele>
        <time>2022-04-06T08:03:17.883Z</time>
      </trkpt>
      <trkpt lat="42.25513" lon="23.08391">
        <ele>540.519131</ele>
        <time>2022-04-06T08:03:21.900Z</time>
      </trkpt>
      <trkpt lat="42.25523" lon="23.08385">
        <ele>539.579838</ele>
        <time>2022-04-06T08:03:24.884Z</time>
      </trkpt>
      <trkpt lat="42.25534" lon="23.0838">
        <ele>538.58377</ele>
        <time>2022-04-06T08:03:28.870Z</time>
      </trkpt>
      <trkpt lat="42.25545" lon="23.08374">
        <ele>537.622791</ele>
        <time>2022-04-06T08:03:32.881Z</time>
      </trkpt>
      <trkpt lat="42.25555" lon="23.08368">
        <ele>536.665421</ele>
        <time>2022-04-06T08:03:36.879Z</time>
      </trkpt>
      <trkpt lat="42.25563" lon="23.08363">
        <ele>535.858109</ele>
        <time>2022-04-06T08:03:39.877Z</time>
      </trkpt>
      <trkpt lat="42.25572" lon="23.08357">
        <ele>535.050797</ele>
        <time>2022-04-06T08:03:42.881Z</time>
      </trkpt>
      <trkpt lat="42.25582" lon="23.08349">
        <ele>534.073795</ele>
        <time>2022-04-06T08:03:46.871Z</time>
      </trkpt>
      <trkpt lat="42.25591" lon="23.08339">
        <ele>533.535894</ele>
        <time>2022-04-06T08:03:50.894Z</time>
      </trkpt>
      <trkpt lat="42.25599" lon="23.08329">
        <ele>534.860984</ele>
        <time>2022-04-06T08:03:54.873Z</time>
      </trkpt>
      <trkpt lat="42.25607" lon="23.08319">
        <ele>536.203871</ele>
        <time>2022-04-06T08:03:58.873Z</time>
      </trkpt>
      <trkpt lat="42.25615" lon="23.08307">
        <ele>537.607974</ele>
        <time>2022-04-06T08:04:02.883Z</time>
      </trkpt>
      <trkpt lat="42.25621" lon="23.08294">
        <ele>539.031136</ele>
        <time>2022-04-06T08:04:06.869Z</time>
      </trkpt>
      <trkpt lat="42.25626" lon="23.08281">
        <ele>540.354093</ele>
        <time>2022-04-06T08:04:10.870Z</time>
      </trkpt>
      <trkpt lat="42.25629" lon="23.08268">
        <ele>541.593579</ele>
        <time>2022-04-06T08:04:14.875Z</time>
      </trkpt>
      <trkpt lat="42.25632" lon="23.08255">
        <ele>542.791687</ele>
        <time>2022-04-06T08:04:18.894Z</time>
      </trkpt>
      <trkpt lat="42.25636" lon="23.08242">
        <ele>544.076676</ele>
        <time>2022-04-06T08:04:22.882Z</time>
      </trkpt>
      <trkpt lat="42.2564" lon="23.08229">
        <ele>545.353392</ele>
        <time>2022-04-06T08:04:26.880Z</time>
      </trkpt>
      <trkpt lat="42.25644" lon="23.08215">
        <ele>546.71043</ele>
        <time>2022-04-06T08:04:30.876Z</time>
      </trkpt>
      <trkpt lat="42.25648" lon="23.082">
        <ele>548.099649</ele>
        <time>2022-04-06T08:04:34.870Z</time>
      </trkpt>
      <trkpt lat="42.25653" lon="23.08187">
        <ele>549.417421</ele>
        <time>2022-04-06T08:04:38.877Z</time>
      </trkpt>
      <trkpt lat="42.25657" lon="23.08175">
        <ele>550.632964</ele>
        <time>2022-04-06T08:04:42.871Z</time>
      </trkpt>
      <trkpt lat="42.25662" lon="23.08163">
        <ele>551.835808</ele>
        <time>2022-04-06T08:04:46.930Z</time>
      </trkpt>
      <trkpt lat="42.25667" lon="23.08151">
        <ele>553.09953</ele>
        <time>2022-04-06T08:04:50.907Z</time>
      </trkpt>
      <trkpt lat="42.25673" lon="23.08138">
        <ele>554.44351</ele>
        <time>2022-04-06T08:04:54.907Z</time>
      </trkpt>
      <trkpt lat="42.25679" lon="23.08126">
        <ele>555.004054</ele>
        <time>2022-04-06T08:04:58.884Z</time>
      </trkpt>
      <trkpt lat="42.25684" lon="23.08116">
        <ele>554.874231</ele>
        <time>2022-04-06T08:05:01.923Z</time>
      </trkpt>
      <trkpt lat="42.25691" lon="23.08104">
        <ele>554.710146</ele>
        <time>2022-04-06T08:05:05.911Z</time>
      </trkpt>
      <trkpt lat="42.25697" lon="23.0809">
        <ele>554.541642</ele>
        <time>2022-04-06T08:05:09.893Z</time>
      </trkpt>
      <trkpt lat="42.25704" lon="23.08078">
        <ele>554.378423</ele>
        <time>2022-04-06T08:05:13.908Z</time>
      </trkpt>
      <trkpt lat="42.2571" lon="23.08066">
        <ele>554.219483</ele>
        <time>2022-04-06T08:05:17.891Z</time>
      </trkpt>
      <trkpt lat="42.25717" lon="23.08055">
        <ele>554.06471</ele>
        <time>2022-04-06T08:05:21.907Z</time>
      </trkpt>
      <trkpt lat="42.25723" lon="23.08043">
        <ele>553.914331</ele>
        <time>2022-04-06T08:05:25.937Z</time>
      </trkpt>
      <trkpt lat="42.2573" lon="23.08031">
        <ele>553.753725</ele>
        <time>2022-04-06T08:05:29.899Z</time>
      </trkpt>
      <trkpt lat="42.25736" lon="23.08019">
        <ele>553.600767</ele>
        <time>2022-04-06T08:05:33.920Z</time>
      </trkpt>
      <trkpt lat="42.25741" lon="23.08009">
        <ele>553.462458</ele>
        <time>2022-04-06T08:05:37.903Z</time>
      </trkpt>
      <trkpt lat="42.25747" lon="23.07998">
        <ele>553.319894</ele>
        <time>2022-04-06T08:05:41.912Z</time>
      </trkpt>
      <trkpt lat="42.25752" lon="23.07988">
        <ele>553.183347</ele>
        <time>2022-04-06T08:05:45.903Z</time>
      </trkpt>
      <trkpt lat="42.25758" lon="23.07978">
        <ele>553.053668</ele>
        <time>2022-04-06T08:05:49.902Z</time>
      </trkpt>
      <trkpt lat="42.25764" lon="23.07969">
        <ele>552.921986</ele>
        <time>2022-04-06T08:05:53.951Z</time>
      </trkpt>
      <trkpt lat="42.25769" lon="23.07959">
        <ele>552.789659</ele>
        <time>2022-04-06T08:05:57.920Z</time>
      </trkpt>
      <trkpt lat="42.25775" lon="23.07947">
        <ele>552.645506</ele>
        <time>2022-04-06T08:06:02.880Z</time>
      </trkpt>
      <trkpt lat="42.25781" lon="23.07935">
        <ele>552.488344</ele>
        <time>2022-04-06T08:06:07.919Z</time>
      </trkpt>
      <trkpt lat="42.25786" lon="23.07925">
        <ele>552.637907</ele>
        <time>2022-04-06T08:06:11.891Z</time>
      </trkpt>
      <trkpt lat="42.25794" lon="23.07914">
        <ele>552.826879</ele>
        <time>2022-04-06T08:06:16.904Z</time>
      </trkpt>
      <trkpt lat="42.258" lon="23.07902">
        <ele>553.013651</ele>
        <time>2022-04-06T08:06:21.905Z</time>
      </trkpt>
      <trkpt lat="42.25806" lon="23.0789">
        <ele>553.184337</ele>
        <time>2022-04-06T08:06:26.940Z</time>
      </trkpt>
      <trkpt lat="42.25812" lon="23.0788">
        <ele>553.348983</ele>
        <time>2022-04-06T08:06:31.890Z</time>
      </trkpt>
      <trkpt lat="42.25817" lon="23.07869">
        <ele>553.516698</ele>
        <time>2022-04-06T08:06:36.897Z</time>
      </trkpt>
      <trkpt lat="42.25823" lon="23.07859">
        <ele>553.679372</ele>
        <time>2022-04-06T08:06:41.901Z</time>
      </trkpt>
      <trkpt lat="42.25829" lon="23.07848">
        <ele>553.838045</ele>
        <time>2022-04-06T08:06:46.884Z</time>
      </trkpt>
      <trkpt lat="42.25835" lon="23.07836">
        <ele>554.017771</ele>
        <time>2022-04-06T08:06:51.923Z</time>
      </trkpt>
      <trkpt lat="42.2584" lon="23.07826">
        <ele>554.169651</ele>
        <time>2022-04-06T08:06:55.914Z</time>
      </trkpt>
      <trkpt lat="42.25846" lon="23.07814">
        <ele>554.347512</ele>
        <time>2022-04-06T08:07:00.876Z</time>
      </trkpt>
      <trkpt lat="42.25852" lon="23.07805">
        <ele>554.501603</ele>
        <time>2022-04-06T08:07:05.894Z</time>
      </trkpt>
      <trkpt lat="42.25857" lon="23.07795">
        <ele>554.659249</ele>
        <time>2022-04-06T08:07:10.903Z</time>
      </trkpt>
      <trkpt lat="42.25864" lon="23.07783">
        <ele>554.847103</ele>
        <time>2022-04-06T08:07:15.896Z</time>
      </trkpt>
      <trkpt lat="42.2587" lon="23.07771">
        <ele>555.02783</ele>
        <time>2022-04-06T08:07:20.949Z</time>
      </trkpt>
      <trkpt lat="42.25877" lon="23.0776">
        <ele>555.210576</ele>
        <time>2022-04-06T08:07:25.901Z</time>
      </trkpt>
      <trkpt lat="42.25883" lon="23.07748">
        <ele>555.397307</ele>
        <time>2022-04-06T08:07:30.918Z</time>
      </trkpt>
      <trkpt lat="42.25891" lon="23.07736">
        <ele>555.477345</ele>
        <time>2022-04-06T08:07:35.891Z</time>
      </trkpt>
      <trkpt lat="42.25897" lon="23.07727">
        <ele>555.374741</ele>
        <time>2022-04-06T08:07:39.904Z</time>
      </trkpt>
      <trkpt lat="42.25903" lon="23.07718">
        <ele>555.267182</ele>
        <time>2022-04-06T08:07:43.901Z</time>
      </trkpt>
      <trkpt lat="42.25911" lon="23.07708">
        <ele>555.146269</ele>
        <time>2022-04-06T08:07:48.914Z</time>
      </trkpt>
      <trkpt lat="42.25918" lon="23.07701">
        <ele>555.04315</ele>
        <time>2022-04-06T08:07:52.925Z</time>
      </trkpt>
      <trkpt lat="42.25925" lon="23.07692">
        <ele>554.93359</ele>
        <time>2022-04-06T08:07:56.933Z</time>
      </trkpt>
      <trkpt lat="42.25933" lon="23.07683">
        <ele>554.818154</ele>
        <time>2022-04-06T08:08:00.911Z</time>
      </trkpt>
      <trkpt lat="42.25941" lon="23.07676">
        <ele>554.713732</ele>
        <time>2022-04-06T08:08:04.885Z</time>
      </trkpt>
      <trkpt lat="42.25948" lon="23.07668">
        <ele>554.607396</ele>
        <time>2022-04-06T08:08:08.900Z</time>
      </trkpt>
      <trkpt lat="42.25957" lon="23.0766">
        <ele>554.488442</ele>
        <time>2022-04-06T08:08:12.893Z</time>
      </trkpt>
      <trkpt lat="42.25966" lon="23.07651">
        <ele>554.364264</ele>
        <time>2022-04-06T08:08:16.931Z</time>
      </trkpt>
      <trkpt lat="42.25973" lon="23.07643">
        <ele>554.259589</ele>
        <time>2022-04-06T08:08:19.900Z</time>
      </trkpt>
      <trkpt lat="42.2598" lon="23.07636">
        <ele>554.157567</ele>
        <time>2022-04-06T08:08:22.933Z</time>
      </trkpt>
      <trkpt lat="42.25988" lon="23.07629">
        <ele>554.052301</ele>
        <time>2022-04-06T08:08:25.900Z</time>
      </trkpt>
      <trkpt lat="42.25996" lon="23.07622">
        <ele>553.938561</ele>
        <time>2022-04-06T08:08:28.931Z</time>
      </trkpt>
      <trkpt lat="42.26005" lon="23.07614">
        <ele>553.818723</ele>
        <time>2022-04-06T08:08:31.910Z</time>
      </trkpt>
      <trkpt lat="42.26013" lon="23.07604">
        <ele>553.695882</ele>
        <time>2022-04-06T08:08:34.949Z</time>
      </trkpt>
      <trkpt lat="42.26022" lon="23.07595">
        <ele>553.570415</ele>
        <time>2022-04-06T08:08:37.906Z</time>
      </trkpt>
      <trkpt lat="42.26031" lon="23.07585">
        <ele>553.433908</ele>
        <time>2022-04-06T08:08:40.904Z</time>
      </trkpt>
      <trkpt lat="42.2604" lon="23.07576">
        <ele>553.277561</ele>
        <time>2022-04-06T08:08:43.901Z</time>
      </trkpt>
      <trkpt lat="42.26049" lon="23.07566">
        <ele>553.122424</ele>
        <time>2022-04-06T08:08:46.899Z</time>
      </trkpt>
      <trkpt lat="42.26059" lon="23.07557">
        <ele>552.964539</ele>
        <time>2022-04-06T08:08:49.901Z</time>
      </trkpt>
      <trkpt lat="42.26068" lon="23.07548">
        <ele>552.810594</ele>
        <time>2022-04-06T08:08:52.906Z</time>
      </trkpt>
      <trkpt lat="42.26076" lon="23.07538">
        <ele>552.663486</ele>
        <time>2022-04-06T08:08:55.887Z</time>
      </trkpt>
      <trkpt lat="42.26085" lon="23.0753">
        <ele>552.520524</ele>
        <time>2022-04-06T08:08:58.877Z</time>
      </trkpt>
      <trkpt lat="42.26093" lon="23.07521">
        <ele>552.380102</ele>
        <time>2022-04-06T08:09:01.898Z</time>
      </trkpt>
      <trkpt lat="42.26101" lon="23.07514">
        <ele>552.251934</ele>
        <time>2022-04-06T08:09:04.896Z</time>
      </trkpt>
      <trkpt lat="42.26108" lon="23.07506">
        <ele>552.124878</ele>
        <time>2022-04-06T08:09:07.888Z</time>
      </trkpt>
      <trkpt lat="42.26116" lon="23.07498">
        <ele>551.996786</ele>
        <time>2022-04-06T08:09:10.904Z</time>
      </trkpt>
      <trkpt lat="42.26123" lon="23.0749">
        <ele>551.866793</ele>
        <time>2022-04-06T08:09:13.886Z</time>
      </trkpt>
      <trkpt lat="42.26131" lon="23.07482">
        <ele>551.738072</ele>
        <time>2022-04-06T08:09:16.884Z</time>
      </trkpt>
      <trkpt lat="42.26137" lon="23.07473">
        <ele>551.611701</ele>
        <time>2022-04-06T08:09:19.902Z</time>
      </trkpt>
      <trkpt lat="42.26146" lon="23.07462">
        <ele>551.450762</ele>
        <time>2022-04-06T08:09:23.911Z</time>
      </trkpt>
      <trkpt lat="42.26153" lon="23.07453">
        <ele>551.323175</ele>
        <time>2022-04-06T08:09:26.887Z</time>
      </trkpt>
      <trkpt lat="42.2616" lon="23.07445">
        <ele>551.19958</ele>
        <time>2022-04-06T08:09:29.897Z</time>
      </trkpt>
      <trkpt lat="42.26169" lon="23.07434">
        <ele>551.135346</ele>
        <time>2022-04-06T08:09:33.903Z</time>
      </trkpt>
      <trkpt lat="42.26177" lon="23.07425">
        <ele>551.675422</ele>
        <time>2022-04-06T08:09:37.903Z</time>
      </trkpt>
      <trkpt lat="42.26186" lon="23.07415">
        <ele>552.233086</ele>
        <time>2022-04-06T08:09:41.909Z</time>
      </trkpt>
      <trkpt lat="42.26195" lon="23.07404">
        <ele>552.802651</ele>
        <time>2022-04-06T08:09:45.903Z</time>
      </trkpt>
      <trkpt lat="42.26203" lon="23.07393">
        <ele>553.335711</ele>
        <time>2022-04-06T08:09:49.904Z</time>
      </trkpt>
      <trkpt lat="42.26211" lon="23.07383">
        <ele>553.886652</ele>
        <time>2022-04-06T08:09:53.913Z</time>
      </trkpt>
      <trkpt lat="42.2622" lon="23.07372">
        <ele>554.452672</ele>
        <time>2022-04-06T08:09:57.902Z</time>
      </trkpt>
      <trkpt lat="42.26228" lon="23.07361">
        <ele>555.031822</ele>
        <time>2022-04-06T08:10:01.925Z</time>
      </trkpt>
      <trkpt lat="42.26237" lon="23.07351">
        <ele>555.594206</ele>
        <time>2022-04-06T08:10:05.907Z</time>
      </trkpt>
      <trkpt lat="42.26245" lon="23.07341">
        <ele>556.122995</ele>
        <time>2022-04-06T08:10:09.912Z</time>
      </trkpt>
      <trkpt lat="42.26254" lon="23.07331">
        <ele>556.659344</ele>
        <time>2022-04-06T08:10:13.904Z</time>
      </trkpt>
      <trkpt lat="42.26262" lon="23.07322">
        <ele>557.182138</ele>
        <time>2022-04-06T08:10:17.883Z</time>
      </trkpt>
      <trkpt lat="42.26269" lon="23.07313">
        <ele>557.656064</ele>
        <time>2022-04-06T08:10:21.898Z</time>
      </trkpt>
      <trkpt lat="42.26276" lon="23.07304">
        <ele>558.105946</ele>
        <time>2022-04-06T08:10:25.904Z</time>
      </trkpt>
      <trkpt lat="42.26283" lon="23.07296">
        <ele>558.553353</ele>
        <time>2022-04-06T08:10:29.902Z</time>
      </trkpt>
      <trkpt lat="42.26291" lon="23.07287">
        <ele>559.050532</ele>
        <time>2022-04-06T08:10:34.905Z</time>
      </trkpt>
      <trkpt lat="42.26299" lon="23.07277">
        <ele>559.572178</ele>
        <time>2022-04-06T08:10:39.884Z</time>
      </trkpt>
      <trkpt lat="42.26307" lon="23.07268">
        <ele>559.830601</ele>
        <time>2022-04-06T08:10:44.894Z</time>
      </trkpt>
      <trkpt lat="42.26314" lon="23.0726">
        <ele>559.913995</ele>
        <time>2022-04-06T08:10:49.905Z</time>
      </trkpt>
      <trkpt lat="42.26322" lon="23.07251">
        <ele>560.002909</ele>
        <time>2022-04-06T08:10:55.894Z</time>
      </trkpt>
      <trkpt lat="42.2633" lon="23.07241">
        <ele>560.099555</ele>
        <time>2022-04-06T08:11:01.904Z</time>
      </trkpt>
      <trkpt lat="42.26339" lon="23.07233">
        <ele>560.196638</ele>
        <time>2022-04-06T08:11:07.900Z</time>
      </trkpt>
      <trkpt lat="42.26347" lon="23.07227">
        <ele>560.278922</ele>
        <time>2022-04-06T08:11:12.912Z</time>
      </trkpt>
      <trkpt lat="42.26355" lon="23.07221">
        <ele>560.361524</ele>
        <time>2022-04-06T08:11:17.900Z</time>
      </trkpt>
      <trkpt lat="42.26363" lon="23.07214">
        <ele>560.445877</ele>
        <time>2022-04-06T08:11:22.895Z</time>
      </trkpt>
      <trkpt lat="42.26372" lon="23.07208">
        <ele>560.531496</ele>
        <time>2022-04-06T08:11:27.891Z</time>
      </trkpt>
      <trkpt lat="42.26382" lon="23.07203">
        <ele>560.628011</ele>
        <time>2022-04-06T08:11:33.917Z</time>
      </trkpt>
      <trkpt lat="42.26391" lon="23.07198">
        <ele>560.7123</ele>
        <time>2022-04-06T08:11:38.903Z</time>
      </trkpt>
      <trkpt lat="42.264" lon="23.07193">
        <ele>560.800018</ele>
        <time>2022-04-06T08:11:43.914Z</time>
      </trkpt>
      <trkpt lat="42.26409" lon="23.07187">
        <ele>560.887752</ele>
        <time>2022-04-06T08:11:49.905Z</time>
      </trkpt>
      <trkpt lat="42.26418" lon="23.07183">
        <ele>560.973626</ele>
        <time>2022-04-06T08:11:54.904Z</time>
      </trkpt>
      <trkpt lat="42.26427" lon="23.0718">
        <ele>561.06084</ele>
        <time>2022-04-06T08:12:00.899Z</time>
      </trkpt>
      <trkpt lat="42.26437" lon="23.07176">
        <ele>561.150105</ele>
        <time>2022-04-06T08:12:06.904Z</time>
      </trkpt>
      <trkpt lat="42.26447" lon="23.07174">
        <ele>561.238194</ele>
        <time>2022-04-06T08:12:12.897Z</time>
      </trkpt>
      <trkpt lat="42.26456" lon="23.07171">
        <ele>561.321263</ele>
        <time>2022-04-06T08:12:18.891Z</time>
      </trkpt>
      <trkpt lat="42.26465" lon="23.07168">
        <ele>561.522233</ele>
        <time>2022-04-06T08:12:24.928Z</time>
      </trkpt>
      <trkpt lat="42.26473" lon="23.07165">
        <ele>561.907477</ele>
        <time>2022-04-06T08:12:30.914Z</time>
      </trkpt>
      <trkpt lat="42.26483" lon="23.07163">
        <ele>562.326652</ele>
        <time>2022-04-06T08:12:36.913Z</time>
      </trkpt>
      <trkpt lat="42.26493" lon="23.0716">
        <ele>562.760805</ele>
        <time>2022-04-06T08:12:43.907Z</time>
      </trkpt>
      <trkpt lat="42.26503" lon="23.07156">
        <ele>563.194149</ele>
        <time>2022-04-06T08:12:50.897Z</time>
      </trkpt>
      <trkpt lat="42.26512" lon="23.07154">
        <ele>563.597606</ele>
        <time>2022-04-06T08:12:56.907Z</time>
      </trkpt>
      <trkpt lat="42.26521" lon="23.07151">
        <ele>563.995953</ele>
        <time>2022-04-06T08:13:02.932Z</time>
      </trkpt>
      <trkpt lat="42.26532" lon="23.07148">
        <ele>564.441909</ele>
        <time>2022-04-06T08:13:08.890Z</time>
      </trkpt>
      <trkpt lat="42.26542" lon="23.07143">
        <ele>564.887333</ele>
        <time>2022-04-06T08:13:14.911Z</time>
      </trkpt>
      <trkpt lat="42.26551" lon="23.07139">
        <ele>565.316774</ele>
        <time>2022-04-06T08:13:21.928Z</time>
      </trkpt>
      <trkpt lat="42.26559" lon="23.07133">
        <ele>565.699223</ele>
        <time>2022-04-06T08:13:27.894Z</time>
      </trkpt>
      <trkpt lat="42.26567" lon="23.07126">
        <ele>566.107622</ele>
        <time>2022-04-06T08:13:33.919Z</time>
      </trkpt>
      <trkpt lat="42.26574" lon="23.07118">
        <ele>566.501318</ele>
        <time>2022-04-06T08:13:39.886Z</time>
      </trkpt>
      <trkpt lat="42.26582" lon="23.07108">
        <ele>566.942571</ele>
        <time>2022-04-06T08:13:46.940Z</time>
      </trkpt>
      <trkpt lat="42.26588" lon="23.07099">
        <ele>567.337616</ele>
        <time>2022-04-06T08:13:52.903Z</time>
      </trkpt>
      <trkpt lat="42.26594" lon="23.07089">
        <ele>567.746779</ele>
        <time>2022-04-06T08:13:59.904Z</time>
      </trkpt>
      <trkpt lat="42.26599" lon="23.07078">
        <ele>568.136812</ele>
        <time>2022-04-06T08:14:05.886Z</time>
      </trkpt>
      <trkpt lat="42.26603" lon="23.07067">
        <ele>568.524988</ele>
        <time>2022-04-06T08:14:11.896Z</time>
      </trkpt>
      <trkpt lat="42.26608" lon="23.07057">
        <ele>568.917215</ele>
        <time>2022-04-06T08:14:17.890Z</time>
      </trkpt>
      <trkpt lat="42.26613" lon="23.07046">
        <ele>569.399859</ele>
        <time>2022-04-06T08:14:23.910Z</time>
      </trkpt>
      <trkpt lat="42.26616" lon="23.07034">
        <ele>569.91446</ele>
        <time>2022-04-06T08:14:29.935Z</time>
      </trkpt>
      <trkpt lat="42.26619" lon="23.07021">
        <ele>570.43676</ele>
        <time>2022-04-06T08:14:35.934Z</time>
      </trkpt>
      <trkpt lat="42.2662" lon="23.07009">
        <ele>570.944589</ele>
        <time>2022-04-06T08:14:40.885Z</time>
      </trkpt>
      <trkpt lat="42.26619" lon="23.06996">
        <ele>571.453705</ele>
        <time>2022-04-06T08:14:45.915Z</time>
      </trkpt>
      <trkpt lat="42.26617" lon="23.06983">
        <ele>571.995352</ele>
        <time>2022-04-06T08:14:50.900Z</time>
      </trkpt>
      <trkpt lat="42.26615" lon="23.06969">
        <ele>572.553401</ele>
        <time>2022-04-06T08:14:56.907Z</time>
      </trkpt>
      <trkpt lat="42.2661" lon="23.06956">
        <ele>573.130771</ele>
        <time>2022-04-06T08:15:02.885Z</time>
      </trkpt>
      <trkpt lat="42.26607" lon="23.06943">
        <ele>573.69055</ele>
        <time>2022-04-06T08:15:08.901Z</time>
      </trkpt>
      <trkpt lat="42.26604" lon="23.06931">
        <ele>574.198161</ele>
        <time>2022-04-06T08:15:13.900Z</time>
      </trkpt>
      <trkpt lat="42.26601" lon="23.06917">
        <ele>574.753948</ele>
        <time>2022-04-06T08:15:18.911Z</time>
      </trkpt>
      <trkpt lat="42.26597" lon="23.06902">
        <ele>575.385386</ele>
        <time>2022-04-06T08:15:23.909Z</time>
      </trkpt>
      <trkpt lat="42.26594" lon="23.06888">
        <ele>575.986947</ele>
        <time>2022-04-06T08:15:28.945Z</time>
      </trkpt>
      <trkpt lat="42.2659" lon="23.06877">
        <ele>576.477347</ele>
        <time>2022-04-06T08:15:33.895Z</time>
      </trkpt>
      <trkpt lat="42.26585" lon="23.06867">
        <ele>576.97271</ele>
        <time>2022-04-06T08:15:36.906Z</time>
      </trkpt>
      <trkpt lat="42.26582" lon="23.06852">
        <ele>577.586286</ele>
        <time>2022-04-06T08:15:39.898Z</time>
      </trkpt>
      <trkpt lat="42.26579" lon="23.06839">
        <ele>578.114118</ele>
        <time>2022-04-06T08:15:41.897Z</time>
      </trkpt>
      <trkpt lat="42.26577" lon="23.06825">
        <ele>578.675276</ele>
        <time>2022-04-06T08:15:44.898Z</time>
      </trkpt>
      <trkpt lat="42.26577" lon="23.0681">
        <ele>578.336359</ele>
        <time>2022-04-06T08:15:47.894Z</time>
      </trkpt>
      <trkpt lat="42.26578" lon="23.06795">
        <ele>577.925026</ele>
        <time>2022-04-06T08:15:50.899Z</time>
      </trkpt>
      <trkpt lat="42.26581" lon="23.06778">
        <ele>577.478115</ele>
        <time>2022-04-06T08:15:53.918Z</time>
      </trkpt>
      <trkpt lat="42.26584" lon="23.06766">
        <ele>577.143032</ele>
        <time>2022-04-06T08:15:55.929Z</time>
      </trkpt>
      <trkpt lat="42.26588" lon="23.06752">
        <ele>576.755911</ele>
        <time>2022-04-06T08:15:57.890Z</time>
      </trkpt>
      <trkpt lat="42.26594" lon="23.06737">
        <ele>576.330936</ele>
        <time>2022-04-06T08:15:59.902Z</time>
      </trkpt>
      <trkpt lat="42.26601" lon="23.06723">
        <ele>575.886392</ele>
        <time>2022-04-06T08:16:01.893Z</time>
      </trkpt>
      <trkpt lat="42.26609" lon="23.0671">
        <ele>575.450113</ele>
        <time>2022-04-06T08:16:03.893Z</time>
      </trkpt>
      <trkpt lat="42.26618" lon="23.06698">
        <ele>575.004129</ele>
        <time>2022-04-06T08:16:05.902Z</time>
      </trkpt>
      <trkpt lat="42.26629" lon="23.06687">
        <ele>574.51579</ele>
        <time>2022-04-06T08:16:07.900Z</time>
      </trkpt>
      <trkpt lat="42.26642" lon="23.06679">
        <ele>574.006076</ele>
        <time>2022-04-06T08:16:09.900Z</time>
      </trkpt>
      <trkpt lat="42.26656" lon="23.06671">
        <ele>573.466143</ele>
        <time>2022-04-06T08:16:11.908Z</time>
      </trkpt>
      <trkpt lat="42.26671" lon="23.06663">
        <ele>572.90473</ele>
        <time>2022-04-06T08:16:13.904Z</time>
      </trkpt>
      <trkpt lat="42.26686" lon="23.06654">
        <ele>572.273062</ele>
        <time>2022-04-06T08:16:15.895Z</time>
      </trkpt>
      <trkpt lat="42.26699" lon="23.06646">
        <ele>571.214132</ele>
        <time>2022-04-06T08:16:17.891Z</time>
      </trkpt>
      <trkpt lat="42.26711" lon="23.06636">
        <ele>570.199375</ele>
        <time>2022-04-06T08:16:19.871Z</time>
      </trkpt>
      <trkpt lat="42.26722" lon="23.06625">
        <ele>569.183236</ele>
        <time>2022-04-06T08:16:21.897Z</time>
      </trkpt>
      <trkpt lat="42.26732" lon="23.06611">
        <ele>568.107953</ele>
        <time>2022-04-06T08:16:23.929Z</time>
      </trkpt>
      <trkpt lat="42.26741" lon="23.06594">
        <ele>566.984965</ele>
        <time>2022-04-06T08:16:25.915Z</time>
      </trkpt>
      <trkpt lat="42.26749" lon="23.06575">
        <ele>565.806678</ele>
        <time>2022-04-06T08:16:27.907Z</time>
      </trkpt>
      <trkpt lat="42.26754" lon="23.06553">
        <ele>564.595199</ele>
        <time>2022-04-06T08:16:29.932Z</time>
      </trkpt>
      <trkpt lat="42.26757" lon="23.06532">
        <ele>563.426095</ele>
        <time>2022-04-06T08:16:31.897Z</time>
      </trkpt>
      <trkpt lat="42.26759" lon="23.06512">
        <ele>562.345166</ele>
        <time>2022-04-06T08:16:33.910Z</time>
      </trkpt>
      <trkpt lat="42.26759" lon="23.06492">
        <ele>561.240703</ele>
        <time>2022-04-06T08:16:35.911Z</time>
      </trkpt>
      <trkpt lat="42.26759" lon="23.0647">
        <ele>560.033201</ele>
        <time>2022-04-06T08:16:37.906Z</time>
      </trkpt>
      <trkpt lat="42.26758" lon="23.06447">
        <ele>558.692286</ele>
        <time>2022-04-06T08:16:39.910Z</time>
      </trkpt>
      <trkpt lat="42.26758" lon="23.06424">
        <ele>557.209729</ele>
        <time>2022-04-06T08:16:41.895Z</time>
      </trkpt>
      <trkpt lat="42.26759" lon="23.06402">
        <ele>555.753385</ele>
        <time>2022-04-06T08:16:43.910Z</time>
      </trkpt>
      <trkpt lat="42.26758" lon="23.06381">
        <ele>554.387497</ele>
        <time>2022-04-06T08:16:45.913Z</time>
      </trkpt>
      <trkpt lat="42.26758" lon="23.06361">
        <ele>553.055554</ele>
        <time>2022-04-06T08:16:47.914Z</time>
      </trkpt>
      <trkpt lat="42.26757" lon="23.0634">
        <ele>551.69752</ele>
        <time>2022-04-06T08:16:49.910Z</time>
      </trkpt>
      <trkpt lat="42.26757" lon="23.0632">
        <ele>550.385253</ele>
        <time>2022-04-06T08:16:51.891Z</time>
      </trkpt>
      <trkpt lat="42.26756" lon="23.06299">
        <ele>549.013184</ele>
        <time>2022-04-06T08:16:53.899Z</time>
      </trkpt>
      <trkpt lat="42.26756" lon="23.06278">
        <ele>547.60209</ele>
        <time>2022-04-06T08:16:55.903Z</time>
      </trkpt>
      <trkpt lat="42.26756" lon="23.06257">
        <ele>546.217819</ele>
        <time>2022-04-06T08:16:57.941Z</time>
      </trkpt>
      <trkpt lat="42.26755" lon="23.06236">
        <ele>544.832951</ele>
        <time>2022-04-06T08:16:59.909Z</time>
      </trkpt>
      <trkpt lat="42.26755" lon="23.06214">
        <ele>543.421189</ele>
        <time>2022-04-06T08:17:01.912Z</time>
      </trkpt>
      <trkpt lat="42.26754" lon="23.06192">
        <ele>542.070613</ele>
        <time>2022-04-06T08:17:03.890Z</time>
      </trkpt>
      <trkpt lat="42.26755" lon="23.06169">
        <ele>540.660082</ele>
        <time>2022-04-06T08:17:05.885Z</time>
      </trkpt>
      <trkpt lat="42.26755" lon="23.06146">
        <ele>539.218468</ele>
        <time>2022-04-06T08:17:07.925Z</time>
      </trkpt>
      <trkpt lat="42.26756" lon="23.06123">
        <ele>537.781855</ele>
        <time>2022-04-06T08:17:09.915Z</time>
      </trkpt>
      <trkpt lat="42.26757" lon="23.06099">
        <ele>536.309953</ele>
        <time>2022-04-06T08:17:11.902Z</time>
      </trkpt>
      <trkpt lat="42.26758" lon="23.06086">
        <ele>535.522409</ele>
        <time>2022-04-06T08:17:12.902Z</time>
      </trkpt>
      <trkpt lat="42.2676" lon="23.06073">
        <ele>534.699879</ele>
        <time>2022-04-06T08:17:13.914Z</time>
      </trkpt>
      <trkpt lat="42.26762" lon="23.0606">
        <ele>533.882122</ele>
        <time>2022-04-06T08:17:14.980Z</time>
      </trkpt>
      <trkpt lat="42.26763" lon="23.06047">
        <ele>533.06149</ele>
        <time>2022-04-06T08:17:15.905Z</time>
      </trkpt>
      <trkpt lat="42.26765" lon="23.06033">
        <ele>532.223893</ele>
        <time>2022-04-06T08:17:16.888Z</time>
      </trkpt>
      <trkpt lat="42.26768" lon="23.0602">
        <ele>531.398338</ele>
        <time>2022-04-06T08:17:17.894Z</time>
      </trkpt>
      <trkpt lat="42.2677" lon="23.06007">
        <ele>530.580537</ele>
        <time>2022-04-06T08:17:18.900Z</time>
      </trkpt>
      <trkpt lat="42.26771" lon="23.05995">
        <ele>529.796211</ele>
        <time>2022-04-06T08:17:19.902Z</time>
      </trkpt>
      <trkpt lat="42.26773" lon="23.05983">
        <ele>529.023973</ele>
        <time>2022-04-06T08:17:20.892Z</time>
      </trkpt>
      <trkpt lat="42.26775" lon="23.0597">
        <ele>528.229126</ele>
        <time>2022-04-06T08:17:21.902Z</time>
      </trkpt>
      <trkpt lat="42.26777" lon="23.05957">
        <ele>527.490981</ele>
        <time>2022-04-06T08:17:22.903Z</time>
      </trkpt>
      <trkpt lat="42.26779" lon="23.05944">
        <ele>526.7623</ele>
        <time>2022-04-06T08:17:23.880Z</time>
      </trkpt>
      <trkpt lat="42.26781" lon="23.05931">
        <ele>526.031113</ele>
        <time>2022-04-06T08:17:24.917Z</time>
      </trkpt>
      <trkpt lat="42.26783" lon="23.05918">
        <ele>525.277861</ele>
        <time>2022-04-06T08:17:25.951Z</time>
      </trkpt>
      <trkpt lat="42.26785" lon="23.05905">
        <ele>524.516214</ele>
        <time>2022-04-06T08:17:26.912Z</time>
      </trkpt>
      <trkpt lat="42.26787" lon="23.05891">
        <ele>523.742041</ele>
        <time>2022-04-06T08:17:27.891Z</time>
      </trkpt>
      <trkpt lat="42.26789" lon="23.05878">
        <ele>522.985894</ele>
        <time>2022-04-06T08:17:28.900Z</time>
      </trkpt>
      <trkpt lat="42.26791" lon="23.05865">
        <ele>522.219393</ele>
        <time>2022-04-06T08:17:29.895Z</time>
      </trkpt>
      <trkpt lat="42.26793" lon="23.05852">
        <ele>521.467175</ele>
        <time>2022-04-06T08:17:30.908Z</time>
      </trkpt>
      <trkpt lat="42.26795" lon="23.05839">
        <ele>520.741501</ele>
        <time>2022-04-06T08:17:31.931Z</time>
      </trkpt>
      <trkpt lat="42.26797" lon="23.05827">
        <ele>520.026848</ele>
        <time>2022-04-06T08:17:32.898Z</time>
      </trkpt>
      <trkpt lat="42.26798" lon="23.05814">
        <ele>519.302564</ele>
        <time>2022-04-06T08:17:33.912Z</time>
      </trkpt>
      <trkpt lat="42.268" lon="23.05801">
        <ele>518.55341</ele>
        <time>2022-04-06T08:17:34.916Z</time>
      </trkpt>
      <trkpt lat="42.26802" lon="23.05787">
        <ele>517.786266</ele>
        <time>2022-04-06T08:17:35.893Z</time>
      </trkpt>
      <trkpt lat="42.26804" lon="23.05774">
        <ele>517.012228</ele>
        <time>2022-04-06T08:17:36.913Z</time>
      </trkpt>
      <trkpt lat="42.26806" lon="23.0576">
        <ele>516.230006</ele>
        <time>2022-04-06T08:17:37.897Z</time>
      </trkpt>
      <trkpt lat="42.26808" lon="23.05747">
        <ele>515.483273</ele>
        <time>2022-04-06T08:17:38.889Z</time>
      </trkpt>
      <trkpt lat="42.2681" lon="23.05734">
        <ele>514.742244</ele>
        <time>2022-04-06T08:17:39.932Z</time>
      </trkpt>
      <trkpt lat="42.26812" lon="23.05721">
        <ele>514.27516</ele>
        <time>2022-04-06T08:17:40.902Z</time>
      </trkpt>
      <trkpt lat="42.26814" lon="23.05708">
        <ele>513.832668</ele>
        <time>2022-04-06T08:17:41.910Z</time>
      </trkpt>
      <trkpt lat="42.26816" lon="23.05696">
        <ele>513.398543</ele>
        <time>2022-04-06T08:17:42.922Z</time>
      </trkpt>
      <trkpt lat="42.26818" lon="23.05683">
        <ele>512.963543</ele>
        <time>2022-04-06T08:17:43.892Z</time>
      </trkpt>
      <trkpt lat="42.2682" lon="23.0567">
        <ele>512.528542</ele>
        <time>2022-04-06T08:17:44.898Z</time>
      </trkpt>
      <trkpt lat="42.26822" lon="23.05658">
        <ele>512.105959</ele>
        <time>2022-04-06T08:17:45.896Z</time>
      </trkpt>
      <trkpt lat="42.26823" lon="23.05646">
        <ele>511.68831</ele>
        <time>2022-04-06T08:17:46.917Z</time>
      </trkpt>
      <trkpt lat="42.26827" lon="23.05622">
        <ele>510.868773</ele>
        <time>2022-04-06T08:17:48.899Z</time>
      </trkpt>
      <trkpt lat="42.26828" lon="23.0561">
        <ele>510.456108</ele>
        <time>2022-04-06T08:17:49.912Z</time>
      </trkpt>
      <trkpt lat="42.26831" lon="23.05586">
        <ele>509.666187</ele>
        <time>2022-04-06T08:17:51.912Z</time>
      </trkpt>
      <trkpt lat="42.26834" lon="23.05564">
        <ele>508.914187</ele>
        <time>2022-04-06T08:17:53.937Z</time>
      </trkpt>
      <trkpt lat="42.26837" lon="23.05543">
        <ele>508.182095</ele>
        <time>2022-04-06T08:17:55.900Z</time>
      </trkpt>
      <trkpt lat="42.2684" lon="23.05522">
        <ele>507.464689</ele>
        <time>2022-04-06T08:17:57.894Z</time>
      </trkpt>
      <trkpt lat="42.26842" lon="23.05501">
        <ele>506.750518</ele>
        <time>2022-04-06T08:17:59.897Z</time>
      </trkpt>
      <trkpt lat="42.26844" lon="23.05481">
        <ele>506.5903</ele>
        <time>2022-04-06T08:18:01.916Z</time>
      </trkpt>
      <trkpt lat="42.26846" lon="23.05462">
        <ele>506.691541</ele>
        <time>2022-04-06T08:18:03.890Z</time>
      </trkpt>
      <trkpt lat="42.26848" lon="23.05443">
        <ele>506.790189</ele>
        <time>2022-04-06T08:18:05.894Z</time>
      </trkpt>
      <trkpt lat="42.2685" lon="23.05424">
        <ele>506.887721</ele>
        <time>2022-04-06T08:18:07.891Z</time>
      </trkpt>
      <trkpt lat="42.26852" lon="23.05406">
        <ele>506.980579</ele>
        <time>2022-04-06T08:18:09.908Z</time>
      </trkpt>
      <trkpt lat="42.26855" lon="23.05389">
        <ele>507.068311</ele>
        <time>2022-04-06T08:18:11.907Z</time>
      </trkpt>
      <trkpt lat="42.26857" lon="23.05372">
        <ele>507.158695</ele>
        <time>2022-04-06T08:18:13.911Z</time>
      </trkpt>
      <trkpt lat="42.26859" lon="23.05355">
        <ele>507.24807</ele>
        <time>2022-04-06T08:18:15.918Z</time>
      </trkpt>
      <trkpt lat="42.26862" lon="23.05338">
        <ele>507.334042</ele>
        <time>2022-04-06T08:18:17.889Z</time>
      </trkpt>
      <trkpt lat="42.26864" lon="23.05322">
        <ele>507.417991</ele>
        <time>2022-04-06T08:18:19.905Z</time>
      </trkpt>
      <trkpt lat="42.26866" lon="23.05306">
        <ele>507.501558</ele>
        <time>2022-04-06T08:18:21.939Z</time>
      </trkpt>
      <trkpt lat="42.26868" lon="23.05291">
        <ele>507.579318</ele>
        <time>2022-04-06T08:18:23.898Z</time>
      </trkpt>
      <trkpt lat="42.2687" lon="23.05277">
        <ele>507.65304</ele>
        <time>2022-04-06T08:18:25.928Z</time>
      </trkpt>
      <trkpt lat="42.26872" lon="23.05263">
        <ele>507.725754</ele>
        <time>2022-04-06T08:18:27.934Z</time>
      </trkpt>
      <trkpt lat="42.26874" lon="23.05251">
        <ele>507.891612</ele>
        <time>2022-04-06T08:18:29.909Z</time>
      </trkpt>
      <trkpt lat="42.26875" lon="23.05238">
        <ele>508.260503</ele>
        <time>2022-04-06T08:18:31.902Z</time>
      </trkpt>
      <trkpt lat="42.26878" lon="23.05221">
        <ele>508.781183</ele>
        <time>2022-04-06T08:18:34.888Z</time>
      </trkpt>
      <trkpt lat="42.2688" lon="23.05203">
        <ele>509.29297</ele>
        <time>2022-04-06T08:18:37.898Z</time>
      </trkpt>
      <trkpt lat="42.26882" lon="23.05188">
        <ele>509.760893</ele>
        <time>2022-04-06T08:18:40.900Z</time>
      </trkpt>
      <trkpt lat="42.26884" lon="23.05172">
        <ele>510.239108</ele>
        <time>2022-04-06T08:18:43.893Z</time>
      </trkpt>
      <trkpt lat="42.26887" lon="23.05155">
        <ele>510.727604</ele>
        <time>2022-04-06T08:18:46.904Z</time>
      </trkpt>
      <trkpt lat="42.2689" lon="23.05139">
        <ele>511.231203</ele>
        <time>2022-04-06T08:18:49.901Z</time>
      </trkpt>
      <trkpt lat="42.26894" lon="23.05122">
        <ele>511.717866</ele>
        <time>2022-04-06T08:18:52.895Z</time>
      </trkpt>
      <trkpt lat="42.26897" lon="23.05107">
        <ele>512.173591</ele>
        <time>2022-04-06T08:18:55.954Z</time>
      </trkpt>
      <trkpt lat="42.26899" lon="23.05092">
        <ele>512.620001</ele>
        <time>2022-04-06T08:18:58.899Z</time>
      </trkpt>
      <trkpt lat="42.26901" lon="23.05078">
        <ele>513.042368</ele>
        <time>2022-04-06T08:19:01.919Z</time>
      </trkpt>
      <trkpt lat="42.26904" lon="23.05065">
        <ele>513.449626</ele>
        <time>2022-04-06T08:19:04.930Z</time>
      </trkpt>
      <trkpt lat="42.26906" lon="23.05051">
        <ele>513.863462</ele>
        <time>2022-04-06T08:19:07.909Z</time>
      </trkpt>
      <trkpt lat="42.26909" lon="23.05037">
        <ele>514.284835</ele>
        <time>2022-04-06T08:19:10.897Z</time>
      </trkpt>
      <trkpt lat="42.26911" lon="23.05023">
        <ele>514.701079</ele>
        <time>2022-04-06T08:19:13.898Z</time>
      </trkpt>
      <trkpt lat="42.26913" lon="23.05009">
        <ele>515.042887</ele>
        <time>2022-04-06T08:19:16.895Z</time>
      </trkpt>
      <trkpt lat="42.26916" lon="23.04995">
        <ele>515.348127</ele>
        <time>2022-04-06T08:19:19.905Z</time>
      </trkpt>
      <trkpt lat="42.26919" lon="23.0498">
        <ele>515.658396</ele>
        <time>2022-04-06T08:19:22.927Z</time>
      </trkpt>
      <trkpt lat="42.26921" lon="23.04966">
        <ele>515.95004</ele>
        <time>2022-04-06T08:19:25.900Z</time>
      </trkpt>
      <trkpt lat="42.26923" lon="23.04952">
        <ele>516.245037</ele>
        <time>2022-04-06T08:19:28.900Z</time>
      </trkpt>
      <trkpt lat="42.26924" lon="23.04939">
        <ele>516.518337</ele>
        <time>2022-04-06T08:19:31.912Z</time>
      </trkpt>
      <trkpt lat="42.26926" lon="23.04925">
        <ele>516.809764</ele>
        <time>2022-04-06T08:19:34.941Z</time>
      </trkpt>
      <trkpt lat="42.26929" lon="23.04912">
        <ele>517.096016</ele>
        <time>2022-04-06T08:19:37.903Z</time>
      </trkpt>
      <trkpt lat="42.2693" lon="23.04899">
        <ele>517.364639</ele>
        <time>2022-04-06T08:19:40.943Z</time>
      </trkpt>
      <trkpt lat="42.26933" lon="23.04883">
        <ele>517.700681</ele>
        <time>2022-04-06T08:19:44.915Z</time>
      </trkpt>
      <trkpt lat="42.26935" lon="23.0487">
        <ele>517.977607</ele>
        <time>2022-04-06T08:19:47.899Z</time>
      </trkpt>
      <trkpt lat="42.26938" lon="23.04856">
        <ele>518.269908</ele>
        <time>2022-04-06T08:19:50.903Z</time>
      </trkpt>
      <trkpt lat="42.2694" lon="23.04843">
        <ele>518.548664</ele>
        <time>2022-04-06T08:19:53.909Z</time>
      </trkpt>
      <trkpt lat="42.26942" lon="23.04829">
        <ele>518.846346</ele>
        <time>2022-04-06T08:19:56.912Z</time>
      </trkpt>
      <trkpt lat="42.26944" lon="23.04815">
        <ele>519.131692</ele>
        <time>2022-04-06T08:19:59.903Z</time>
      </trkpt>
      <trkpt lat="42.26946" lon="23.04802">
        <ele>519.420607</ele>
        <time>2022-04-06T08:20:02.923Z</time>
      </trkpt>
      <trkpt lat="42.26949" lon="23.04788">
        <ele>519.72091</ele>
        <time>2022-04-06T08:20:05.908Z</time>
      </trkpt>
      <trkpt lat="42.26951" lon="23.04773">
        <ele>519.892694</ele>
        <time>2022-04-06T08:20:08.893Z</time>
      </trkpt>
      <trkpt lat="42.26954" lon="23.04759">
        <ele>519.922766</ele>
        <time>2022-04-06T08:20:11.948Z</time>
      </trkpt>
      <trkpt lat="42.26957" lon="23.04746">
        <ele>519.95082</ele>
        <time>2022-04-06T08:20:14.900Z</time>
      </trkpt>
      <trkpt lat="42.26959" lon="23.04733">
        <ele>519.978603</ele>
        <time>2022-04-06T08:20:17.903Z</time>
      </trkpt>
      <trkpt lat="42.26962" lon="23.04721">
        <ele>520.005114</ele>
        <time>2022-04-06T08:20:20.905Z</time>
      </trkpt>
      <trkpt lat="42.26964" lon="23.04708">
        <ele>520.03236</ele>
        <time>2022-04-06T08:20:23.914Z</time>
      </trkpt>
      <trkpt lat="42.26967" lon="23.04695">
        <ele>520.05977</ele>
        <time>2022-04-06T08:20:26.908Z</time>
      </trkpt>
      <trkpt lat="42.26969" lon="23.04682">
        <ele>520.088555</ele>
        <time>2022-04-06T08:20:29.888Z</time>
      </trkpt>
      <trkpt lat="42.26972" lon="23.04668">
        <ele>520.117072</ele>
        <time>2022-04-06T08:20:32.893Z</time>
      </trkpt>
      <trkpt lat="42.26974" lon="23.04655">
        <ele>520.145726</ele>
        <time>2022-04-06T08:20:35.914Z</time>
      </trkpt>
      <trkpt lat="42.26976" lon="23.04641">
        <ele>520.174463</ele>
        <time>2022-04-06T08:20:38.900Z</time>
      </trkpt>
      <trkpt lat="42.26979" lon="23.04628">
        <ele>520.203588</ele>
        <time>2022-04-06T08:20:41.917Z</time>
      </trkpt>
      <trkpt lat="42.26982" lon="23.04614">
        <ele>520.233043</ele>
        <time>2022-04-06T08:20:44.901Z</time>
      </trkpt>
      <trkpt lat="42.26984" lon="23.04601">
        <ele>520.261159</ele>
        <time>2022-04-06T08:20:47.903Z</time>
      </trkpt>
      <trkpt lat="42.26987" lon="23.04586">
        <ele>520.2925</ele>
        <time>2022-04-06T08:20:50.944Z</time>
      </trkpt>
      <trkpt lat="42.2699" lon="23.04572">
        <ele>520.324117</ele>
        <time>2022-04-06T08:20:53.900Z</time>
      </trkpt>
      <trkpt lat="42.26993" lon="23.04556">
        <ele>520.356656</ele>
        <time>2022-04-06T08:20:56.892Z</time>
      </trkpt>
      <trkpt lat="42.26996" lon="23.04542">
        <ele>520.398915</ele>
        <time>2022-04-06T08:20:59.910Z</time>
      </trkpt>
      <trkpt lat="42.26999" lon="23.04528">
        <ele>520.483237</ele>
        <time>2022-04-06T08:21:02.928Z</time>
      </trkpt>
      <trkpt lat="42.27002" lon="23.04513">
        <ele>520.567983</ele>
        <time>2022-04-06T08:21:05.911Z</time>
      </trkpt>
      <trkpt lat="42.27004" lon="23.045">
        <ele>520.649796</ele>
        <time>2022-04-06T08:21:08.912Z</time>
      </trkpt>
      <trkpt lat="42.27007" lon="23.04485">
        <ele>520.733986</ele>
        <time>2022-04-06T08:21:11.909Z</time>
      </trkpt>
      <trkpt lat="42.27009" lon="23.04471">
        <ele>520.81615</ele>
        <time>2022-04-06T08:21:14.907Z</time>
      </trkpt>
      <trkpt lat="42.27011" lon="23.04458">
        <ele>520.894718</ele>
        <time>2022-04-06T08:21:17.900Z</time>
      </trkpt>
      <trkpt lat="42.27014" lon="23.04445">
        <ele>520.971159</ele>
        <time>2022-04-06T08:21:20.897Z</time>
      </trkpt>
      <trkpt lat="42.27017" lon="23.04432">
        <ele>521.048162</ele>
        <time>2022-04-06T08:21:23.911Z</time>
      </trkpt>
      <trkpt lat="42.2702" lon="23.04418">
        <ele>521.130732</ele>
        <time>2022-04-06T08:21:26.904Z</time>
      </trkpt>
      <trkpt lat="42.27022" lon="23.04404">
        <ele>521.214185</ele>
        <time>2022-04-06T08:21:29.906Z</time>
      </trkpt>
      <trkpt lat="42.27025" lon="23.04389">
        <ele>521.302652</ele>
        <time>2022-04-06T08:21:32.928Z</time>
      </trkpt>
      <trkpt lat="42.27027" lon="23.04374">
        <ele>521.389277</ele>
        <time>2022-04-06T08:21:35.912Z</time>
      </trkpt>
      <trkpt lat="42.2703" lon="23.0436">
        <ele>521.475154</ele>
        <time>2022-04-06T08:21:38.891Z</time>
      </trkpt>
      <trkpt lat="42.27033" lon="23.04344">
        <ele>521.563857</ele>
        <time>2022-04-06T08:21:41.911Z</time>
      </trkpt>
      <trkpt lat="42.27035" lon="23.0433">
        <ele>521.648807</ele>
        <time>2022-04-06T08:21:44.909Z</time>
      </trkpt>
      <trkpt lat="42.27038" lon="23.04316">
        <ele>521.730224</ele>
        <time>2022-04-06T08:21:47.889Z</time>
      </trkpt>
      <trkpt lat="42.2704" lon="23.04302">
        <ele>521.839762</ele>
        <time>2022-04-06T08:21:50.903Z</time>
      </trkpt>
      <trkpt lat="42.27043" lon="23.04288">
        <ele>521.973393</ele>
        <time>2022-04-06T08:21:53.914Z</time>
      </trkpt>
      <trkpt lat="42.27045" lon="23.04273">
        <ele>522.107889</ele>
        <time>2022-04-06T08:21:56.906Z</time>
      </trkpt>
      <trkpt lat="42.27048" lon="23.04259">
        <ele>522.241798</ele>
        <time>2022-04-06T08:21:59.903Z</time>
      </trkpt>
      <trkpt lat="42.27051" lon="23.04244">
        <ele>522.378683</ele>
        <time>2022-04-06T08:22:02.909Z</time>
      </trkpt>
      <trkpt lat="42.27054" lon="23.04231">
        <ele>522.509969</ele>
        <time>2022-04-06T08:22:05.901Z</time>
      </trkpt>
      <trkpt lat="42.27056" lon="23.04217">
        <ele>522.641218</ele>
        <time>2022-04-06T08:22:08.897Z</time>
      </trkpt>
      <trkpt lat="42.27058" lon="23.04202">
        <ele>522.773691</ele>
        <time>2022-04-06T08:22:11.882Z</time>
      </trkpt>
      <trkpt lat="42.27061" lon="23.04188">
        <ele>522.905275</ele>
        <time>2022-04-06T08:22:14.915Z</time>
      </trkpt>
      <trkpt lat="42.27063" lon="23.04174">
        <ele>523.039183</ele>
        <time>2022-04-06T08:22:17.896Z</time>
      </trkpt>
      <trkpt lat="42.27066" lon="23.0416">
        <ele>523.1666</ele>
        <time>2022-04-06T08:22:20.909Z</time>
      </trkpt>
      <trkpt lat="42.27068" lon="23.04146">
        <ele>523.299092</ele>
        <time>2022-04-06T08:22:23.900Z</time>
      </trkpt>
      <trkpt lat="42.27071" lon="23.04134">
        <ele>523.420216</ele>
        <time>2022-04-06T08:22:26.912Z</time>
      </trkpt>
      <trkpt lat="42.27074" lon="23.04121">
        <ele>523.541437</ele>
        <time>2022-04-06T08:22:29.896Z</time>
      </trkpt>
      <trkpt lat="42.27076" lon="23.04107">
        <ele>523.667123</ele>
        <time>2022-04-06T08:22:32.914Z</time>
      </trkpt>
      <trkpt lat="42.27079" lon="23.04093">
        <ele>523.801703</ele>
        <time>2022-04-06T08:22:35.892Z</time>
      </trkpt>
      <trkpt lat="42.27082" lon="23.04079">
        <ele>523.938556</ele>
        <time>2022-04-06T08:22:38.916Z</time>
      </trkpt>
      <trkpt lat="42.27085" lon="23.04065">
        <ele>524.036143</ele>
        <time>2022-04-06T08:22:41.993Z</time>
      </trkpt>
      <trkpt lat="42.27087" lon="23.04051">
        <ele>524.115771</ele>
        <time>2022-04-06T08:22:44.919Z</time>
      </trkpt>
      <trkpt lat="42.2709" lon="23.04036">
        <ele>524.19989</ele>
        <time>2022-04-06T08:22:47.879Z</time>
      </trkpt>
      <trkpt lat="42.27093" lon="23.04022">
        <ele>524.281169</ele>
        <time>2022-04-06T08:22:50.900Z</time>
      </trkpt>
      <trkpt lat="42.27095" lon="23.04008">
        <ele>524.364031</ele>
        <time>2022-04-06T08:22:53.900Z</time>
      </trkpt>
      <trkpt lat="42.27098" lon="23.03993">
        <ele>524.448179</ele>
        <time>2022-04-06T08:22:56.894Z</time>
      </trkpt>
      <trkpt lat="42.271" lon="23.03978">
        <ele>524.534117</ele>
        <time>2022-04-06T08:22:59.914Z</time>
      </trkpt>
      <trkpt lat="42.27103" lon="23.03963">
        <ele>524.617956</ele>
        <time>2022-04-06T08:23:02.909Z</time>
      </trkpt>
      <trkpt lat="42.27105" lon="23.03948">
        <ele>524.701796</ele>
        <time>2022-04-06T08:23:05.909Z</time>
      </trkpt>
      <trkpt lat="42.27107" lon="23.03933">
        <ele>524.785491</ele>
        <time>2022-04-06T08:23:08.953Z</time>
      </trkpt>
      <trkpt lat="42.27109" lon="23.0392">
        <ele>524.859904</ele>
        <time>2022-04-06T08:23:11.910Z</time>
      </trkpt>
      <trkpt lat="42.2711" lon="23.03907">
        <ele>524.933224</ele>
        <time>2022-04-06T08:23:14.934Z</time>
      </trkpt>
      <trkpt lat="42.27113" lon="23.03894">
        <ele>525.010977</ele>
        <time>2022-04-06T08:23:17.894Z</time>
      </trkpt>
      <trkpt lat="42.27116" lon="23.0388">
        <ele>525.090066</ele>
        <time>2022-04-06T08:23:20.901Z</time>
      </trkpt>
      <trkpt lat="42.27118" lon="23.03866">
        <ele>525.168711</ele>
        <time>2022-04-06T08:23:23.904Z</time>
      </trkpt>
      <trkpt lat="42.2712" lon="23.03852">
        <ele>525.246409</ele>
        <time>2022-04-06T08:23:26.901Z</time>
      </trkpt>
      <trkpt lat="42.27122" lon="23.03838">
        <ele>525.326834</ele>
        <time>2022-04-06T08:23:29.900Z</time>
      </trkpt>
      <trkpt lat="42.27124" lon="23.03824">
        <ele>525.387924</ele>
        <time>2022-04-06T08:23:32.901Z</time>
      </trkpt>
      <trkpt lat="42.27126" lon="23.0381">
        <ele>525.445154</ele>
        <time>2022-04-06T08:23:35.937Z</time>
      </trkpt>
      <trkpt lat="42.27129" lon="23.03795">
        <ele>525.50339</ele>
        <time>2022-04-06T08:23:38.912Z</time>
      </trkpt>
      <trkpt lat="42.27131" lon="23.03781">
        <ele>525.56136</ele>
        <time>2022-04-06T08:23:41.933Z</time>
      </trkpt>
      <trkpt lat="42.27133" lon="23.03767">
        <ele>525.619092</ele>
        <time>2022-04-06T08:23:44.895Z</time>
      </trkpt>
      <trkpt lat="42.27136" lon="23.03752">
        <ele>525.677835</ele>
        <time>2022-04-06T08:23:47.892Z</time>
      </trkpt>
      <trkpt lat="42.27138" lon="23.03738">
        <ele>525.737508</ele>
        <time>2022-04-06T08:23:50.907Z</time>
      </trkpt>
      <trkpt lat="42.2714" lon="23.03723">
        <ele>525.795408</ele>
        <time>2022-04-06T08:23:53.898Z</time>
      </trkpt>
      <trkpt lat="42.27143" lon="23.03709">
        <ele>525.853528</ele>
        <time>2022-04-06T08:23:56.905Z</time>
      </trkpt>
      <trkpt lat="42.27145" lon="23.03695">
        <ele>525.911818</ele>
        <time>2022-04-06T08:23:59.894Z</time>
      </trkpt>
      <trkpt lat="42.27146" lon="23.0368">
        <ele>525.971301</ele>
        <time>2022-04-06T08:24:02.884Z</time>
      </trkpt>
      <trkpt lat="42.27148" lon="23.03665">
        <ele>526.031151</ele>
        <time>2022-04-06T08:24:05.913Z</time>
      </trkpt>
      <trkpt lat="42.27151" lon="23.03651">
        <ele>526.089831</ele>
        <time>2022-04-06T08:24:08.920Z</time>
      </trkpt>
      <trkpt lat="42.27153" lon="23.03636">
        <ele>526.148801</ele>
        <time>2022-04-06T08:24:11.889Z</time>
      </trkpt>
      <trkpt lat="42.27155" lon="23.03621">
        <ele>526.208085</ele>
        <time>2022-04-06T08:24:14.938Z</time>
      </trkpt>
      <trkpt lat="42.27157" lon="23.03607">
        <ele>526.267215</ele>
        <time>2022-04-06T08:24:17.892Z</time>
      </trkpt>
      <trkpt lat="42.27159" lon="23.03593">
        <ele>526.346941</ele>
        <time>2022-04-06T08:24:20.933Z</time>
      </trkpt>
      <trkpt lat="42.27162" lon="23.03579">
        <ele>526.455718</ele>
        <time>2022-04-06T08:24:23.898Z</time>
      </trkpt>
      <trkpt lat="42.27164" lon="23.03565">
        <ele>526.567725</ele>
        <time>2022-04-06T08:24:26.940Z</time>
      </trkpt>
      <trkpt lat="42.27167" lon="23.0355">
        <ele>526.680477</ele>
        <time>2022-04-06T08:24:29.907Z</time>
      </trkpt>
      <trkpt lat="42.27169" lon="23.03536">
        <ele>526.7877</ele>
        <time>2022-04-06T08:24:32.900Z</time>
      </trkpt>
      <trkpt lat="42.27171" lon="23.03524">
        <ele>526.887849</ele>
        <time>2022-04-06T08:24:35.915Z</time>
      </trkpt>
      <trkpt lat="42.27173" lon="23.03512">
        <ele>526.981798</ele>
        <time>2022-04-06T08:24:38.895Z</time>
      </trkpt>
      <trkpt lat="42.27175" lon="23.035">
        <ele>527.075991</ele>
        <time>2022-04-06T08:24:41.909Z</time>
      </trkpt>
      <trkpt lat="42.27178" lon="23.03484">
        <ele>527.198139</ele>
        <time>2022-04-06T08:24:45.901Z</time>
      </trkpt>
      <trkpt lat="42.2718" lon="23.03472">
        <ele>527.291354</ele>
        <time>2022-04-06T08:24:48.908Z</time>
      </trkpt>
      <trkpt lat="42.27182" lon="23.03457">
        <ele>527.409468</ele>
        <time>2022-04-06T08:24:52.897Z</time>
      </trkpt>
      <trkpt lat="42.27184" lon="23.03443">
        <ele>527.520504</ele>
        <time>2022-04-06T08:24:56.908Z</time>
      </trkpt>
      <trkpt lat="42.27186" lon="23.0343">
        <ele>527.618154</ele>
        <time>2022-04-06T08:25:00.934Z</time>
      </trkpt>
      <trkpt lat="42.27189" lon="23.03418">
        <ele>527.713331</ele>
        <time>2022-04-06T08:25:04.888Z</time>
      </trkpt>
      <trkpt lat="42.27191" lon="23.03406">
        <ele>527.810734</ele>
        <time>2022-04-06T08:25:08.923Z</time>
      </trkpt>
      <trkpt lat="42.27193" lon="23.03393">
        <ele>527.910456</ele>
        <time>2022-04-06T08:25:12.923Z</time>
      </trkpt>
      <trkpt lat="42.27195" lon="23.03378">
        <ele>528.024818</ele>
        <time>2022-04-06T08:25:17.906Z</time>
      </trkpt>
      <trkpt lat="42.27197" lon="23.03365">
        <ele>528.131289</ele>
        <time>2022-04-06T08:25:22.912Z</time>
      </trkpt>
      <trkpt lat="42.27199" lon="23.0335">
        <ele>528.44401</ele>
        <time>2022-04-06T08:25:27.896Z</time>
      </trkpt>
      <trkpt lat="42.27201" lon="23.03335">
        <ele>528.806541</ele>
        <time>2022-04-06T08:25:32.910Z</time>
      </trkpt>
      <trkpt lat="42.27203" lon="23.03321">
        <ele>529.16245</ele>
        <time>2022-04-06T08:25:37.885Z</time>
      </trkpt>
      <trkpt lat="42.27204" lon="23.03307">
        <ele>529.504866</ele>
        <time>2022-04-06T08:25:42.908Z</time>
      </trkpt>
      <trkpt lat="42.27206" lon="23.03293">
        <ele>529.857402</ele>
        <time>2022-04-06T08:25:47.893Z</time>
      </trkpt>
      <trkpt lat="42.27207" lon="23.03279">
        <ele>530.208964</ele>
        <time>2022-04-06T08:25:52.888Z</time>
      </trkpt>
      <trkpt lat="42.27209" lon="23.03264">
        <ele>530.575107</ele>
        <time>2022-04-06T08:25:57.907Z</time>
      </trkpt>
      <trkpt lat="42.27211" lon="23.03252">
        <ele>530.879452</ele>
        <time>2022-04-06T08:26:01.951Z</time>
      </trkpt>
      <trkpt lat="42.27212" lon="23.0324">
        <ele>531.183178</ele>
        <time>2022-04-06T08:26:05.889Z</time>
      </trkpt>
      <trkpt lat="42.27214" lon="23.03227">
        <ele>531.495809</ele>
        <time>2022-04-06T08:26:09.906Z</time>
      </trkpt>
      <trkpt lat="42.27215" lon="23.03215">
        <ele>531.800701</ele>
        <time>2022-04-06T08:26:13.884Z</time>
      </trkpt>
      <trkpt lat="42.27216" lon="23.032">
        <ele>532.171707</ele>
        <time>2022-04-06T08:26:18.903Z</time>
      </trkpt>
      <trkpt lat="42.27218" lon="23.03188">
        <ele>532.483337</ele>
        <time>2022-04-06T08:26:22.902Z</time>
      </trkpt>
      <trkpt lat="42.27219" lon="23.03175">
        <ele>532.79556</ele>
        <time>2022-04-06T08:26:26.905Z</time>
      </trkpt>
      <trkpt lat="42.27221" lon="23.03162">
        <ele>533.121774</ele>
        <time>2022-04-06T08:26:30.908Z</time>
      </trkpt>
      <trkpt lat="42.27222" lon="23.03149">
        <ele>533.440631</ele>
        <time>2022-04-06T08:26:34.946Z</time>
      </trkpt>
      <trkpt lat="42.27223" lon="23.03136">
        <ele>533.762271</ele>
        <time>2022-04-06T08:26:38.911Z</time>
      </trkpt>
      <trkpt lat="42.27226" lon="23.03123">
        <ele>534.100785</ele>
        <time>2022-04-06T08:26:42.902Z</time>
      </trkpt>
      <trkpt lat="42.27227" lon="23.0311">
        <ele>534.372011</ele>
        <time>2022-04-06T08:26:46.942Z</time>
      </trkpt>
      <trkpt lat="42.27229" lon="23.03098">
        <ele>534.630122</ele>
        <time>2022-04-06T08:26:50.910Z</time>
      </trkpt>
      <trkpt lat="42.2723" lon="23.03084">
        <ele>534.913538</ele>
        <time>2022-04-06T08:26:54.902Z</time>
      </trkpt>
      <trkpt lat="42.27231" lon="23.03071">
        <ele>535.196293</ele>
        <time>2022-04-06T08:26:58.886Z</time>
      </trkpt>
      <trkpt lat="42.27233" lon="23.03058">
        <ele>535.468664</ele>
        <time>2022-04-06T08:27:02.911Z</time>
      </trkpt>
      <trkpt lat="42.27234" lon="23.03045">
        <ele>535.737438</ele>
        <time>2022-04-06T08:27:06.896Z</time>
      </trkpt>
      <trkpt lat="42.27236" lon="23.03031">
        <ele>536.027368</ele>
        <time>2022-04-06T08:27:10.894Z</time>
      </trkpt>
      <trkpt lat="42.27238" lon="23.03016">
        <ele>536.337354</ele>
        <time>2022-04-06T08:27:15.937Z</time>
      </trkpt>
      <trkpt lat="42.27239" lon="23.03003">
        <ele>536.612955</ele>
        <time>2022-04-06T08:27:19.908Z</time>
      </trkpt>
      <trkpt lat="42.27241" lon="23.02988">
        <ele>536.917994</ele>
        <time>2022-04-06T08:27:23.916Z</time>
      </trkpt>
      <trkpt lat="42.27243" lon="23.02974">
        <ele>537.22973</ele>
        <time>2022-04-06T08:27:27.899Z</time>
      </trkpt>
      <trkpt lat="42.27245" lon="23.02962">
        <ele>537.483955</ele>
        <time>2022-04-06T08:27:30.903Z</time>
      </trkpt>
      <trkpt lat="42.27248" lon="23.02947">
        <ele>537.798339</ele>
        <time>2022-04-06T08:27:34.893Z</time>
      </trkpt>
      <trkpt lat="42.2725" lon="23.02932">
        <ele>538.112722</ele>
        <time>2022-04-06T08:27:38.897Z</time>
      </trkpt>
      <trkpt lat="42.27252" lon="23.0292">
        <ele>538.377038</ele>
        <time>2022-04-06T08:27:41.915Z</time>
      </trkpt>
      <trkpt lat="42.27256" lon="23.02908">
        <ele>538.629411</ele>
        <time>2022-04-06T08:27:44.903Z</time>
      </trkpt>
      <trkpt lat="42.27259" lon="23.02893">
        <ele>538.965856</ele>
        <time>2022-04-06T08:27:48.943Z</time>
      </trkpt>
      <trkpt lat="42.27261" lon="23.0288">
        <ele>539.12819</ele>
        <time>2022-04-06T08:27:51.920Z</time>
      </trkpt>
      <trkpt lat="42.27263" lon="23.02867">
        <ele>538.97298</ele>
        <time>2022-04-06T08:27:54.916Z</time>
      </trkpt>
      <trkpt lat="42.27265" lon="23.02853">
        <ele>538.804857</ele>
        <time>2022-04-06T08:27:57.900Z</time>
      </trkpt>
      <trkpt lat="42.27266" lon="23.0284">
        <ele>538.642971</ele>
        <time>2022-04-06T08:28:01.930Z</time>
      </trkpt>
      <trkpt lat="42.27266" lon="23.02823">
        <ele>538.450093</ele>
        <time>2022-04-06T08:28:05.916Z</time>
      </trkpt>
      <trkpt lat="42.27268" lon="23.02809">
        <ele>538.285894</ele>
        <time>2022-04-06T08:28:08.888Z</time>
      </trkpt>
      <trkpt lat="42.27272" lon="23.02793">
        <ele>538.085156</ele>
        <time>2022-04-06T08:28:11.932Z</time>
      </trkpt>
      <trkpt lat="42.27275" lon="23.02781">
        <ele>537.94364</ele>
        <time>2022-04-06T08:28:13.900Z</time>
      </trkpt>
      <trkpt lat="42.27278" lon="23.02765">
        <ele>537.743225</ele>
        <time>2022-04-06T08:28:16.915Z</time>
      </trkpt>
      <trkpt lat="42.27281" lon="23.02749">
        <ele>537.555207</ele>
        <time>2022-04-06T08:28:19.912Z</time>
      </trkpt>
      <trkpt lat="42.27284" lon="23.02735">
        <ele>537.378162</ele>
        <time>2022-04-06T08:28:22.937Z</time>
      </trkpt>
      <trkpt lat="42.27286" lon="23.02719">
        <ele>537.194518</ele>
        <time>2022-04-06T08:28:25.899Z</time>
      </trkpt>
      <trkpt lat="42.27289" lon="23.02704">
        <ele>537.005367</ele>
        <time>2022-04-06T08:28:28.932Z</time>
      </trkpt>
      <trkpt lat="42.27292" lon="23.02688">
        <ele>536.822214</ele>
        <time>2022-04-06T08:28:31.902Z</time>
      </trkpt>
      <trkpt lat="42.27295" lon="23.02672">
        <ele>536.628307</ele>
        <time>2022-04-06T08:28:34.957Z</time>
      </trkpt>
      <trkpt lat="42.27298" lon="23.02656">
        <ele>536.429746</ele>
        <time>2022-04-06T08:28:37.908Z</time>
      </trkpt>
      <trkpt lat="42.273" lon="23.02639">
        <ele>536.295245</ele>
        <time>2022-04-06T08:28:40.903Z</time>
      </trkpt>
      <trkpt lat="42.27303" lon="23.02621">
        <ele>536.236779</ele>
        <time>2022-04-06T08:28:43.909Z</time>
      </trkpt>
      <trkpt lat="42.27305" lon="23.02605">
        <ele>536.181215</ele>
        <time>2022-04-06T08:28:46.911Z</time>
      </trkpt>
      <trkpt lat="42.27308" lon="23.02588">
        <ele>536.123566</ele>
        <time>2022-04-06T08:28:49.899Z</time>
      </trkpt>
      <trkpt lat="42.27311" lon="23.0257">
        <ele>536.065683</ele>
        <time>2022-04-06T08:28:52.945Z</time>
      </trkpt>
      <trkpt lat="42.27314" lon="23.02553">
        <ele>536.006196</ele>
        <time>2022-04-06T08:28:55.914Z</time>
      </trkpt>
      <trkpt lat="42.27317" lon="23.02535">
        <ele>535.947318</ele>
        <time>2022-04-06T08:28:58.910Z</time>
      </trkpt>
      <trkpt lat="42.27318" lon="23.02518">
        <ele>535.890164</ele>
        <time>2022-04-06T08:29:01.911Z</time>
      </trkpt>
      <trkpt lat="42.2732" lon="23.02501">
        <ele>535.832414</ele>
        <time>2022-04-06T08:29:04.912Z</time>
      </trkpt>
      <trkpt lat="42.27321" lon="23.02483">
        <ele>535.774636</ele>
        <time>2022-04-06T08:29:07.880Z</time>
      </trkpt>
      <trkpt lat="42.27322" lon="23.02466">
        <ele>535.718298</ele>
        <time>2022-04-06T08:29:10.915Z</time>
      </trkpt>
      <trkpt lat="42.27323" lon="23.02449">
        <ele>535.660817</ele>
        <time>2022-04-06T08:29:13.937Z</time>
      </trkpt>
      <trkpt lat="42.27324" lon="23.02431">
        <ele>535.601471</ele>
        <time>2022-04-06T08:29:16.909Z</time>
      </trkpt>
      <trkpt lat="42.27324" lon="23.02414">
        <ele>535.545121</ele>
        <time>2022-04-06T08:29:19.899Z</time>
      </trkpt>
      <trkpt lat="42.27325" lon="23.02396">
        <ele>535.668381</ele>
        <time>2022-04-06T08:29:22.899Z</time>
      </trkpt>
      <trkpt lat="42.27324" lon="23.02379">
        <ele>535.911925</ele>
        <time>2022-04-06T08:29:25.902Z</time>
      </trkpt>
      <trkpt lat="42.27323" lon="23.02361">
        <ele>536.163109</ele>
        <time>2022-04-06T08:29:28.898Z</time>
      </trkpt>
      <trkpt lat="42.27323" lon="23.02343">
        <ele>536.418301</ele>
        <time>2022-04-06T08:29:31.916Z</time>
      </trkpt>
      <trkpt lat="42.27322" lon="23.02325">
        <ele>536.67231</ele>
        <time>2022-04-06T08:29:34.905Z</time>
      </trkpt>
      <trkpt lat="42.27321" lon="23.02308">
        <ele>536.919553</ele>
        <time>2022-04-06T08:29:37.899Z</time>
      </trkpt>
      <trkpt lat="42.27319" lon="23.02292">
        <ele>537.154569</ele>
        <time>2022-04-06T08:29:40.912Z</time>
      </trkpt>
      <trkpt lat="42.27317" lon="23.02275">
        <ele>537.394634</ele>
        <time>2022-04-06T08:29:43.908Z</time>
      </trkpt>
      <trkpt lat="42.27315" lon="23.02258">
        <ele>537.631894</ele>
        <time>2022-04-06T08:29:46.937Z</time>
      </trkpt>
      <trkpt lat="42.27313" lon="23.02242">
        <ele>537.868611</ele>
        <time>2022-04-06T08:29:49.907Z</time>
      </trkpt>
      <trkpt lat="42.27311" lon="23.02226">
        <ele>538.091301</ele>
        <time>2022-04-06T08:29:52.948Z</time>
      </trkpt>
      <trkpt lat="42.27309" lon="23.02211">
        <ele>538.308944</ele>
        <time>2022-04-06T08:29:55.899Z</time>
      </trkpt>
      <trkpt lat="42.27307" lon="23.02195">
        <ele>538.548158</ele>
        <time>2022-04-06T08:29:58.947Z</time>
      </trkpt>
      <trkpt lat="42.27306" lon="23.02179">
        <ele>538.769233</ele>
        <time>2022-04-06T08:30:01.892Z</time>
      </trkpt>
      <trkpt lat="42.27304" lon="23.02164">
        <ele>538.973843</ele>
        <time>2022-04-06T08:30:04.946Z</time>
      </trkpt>
      <trkpt lat="42.27303" lon="23.02148">
        <ele>539.06414</ele>
        <time>2022-04-06T08:30:07.898Z</time>
      </trkpt>
      <trkpt lat="42.27302" lon="23.02135">
        <ele>539.144115</ele>
        <time>2022-04-06T08:30:10.903Z</time>
      </trkpt>
      <trkpt lat="42.273" lon="23.02121">
        <ele>539.224653</ele>
        <time>2022-04-06T08:30:13.915Z</time>
      </trkpt>
      <trkpt lat="42.273" lon="23.02107">
        <ele>539.30573</ele>
        <time>2022-04-06T08:30:16.909Z</time>
      </trkpt>
      <trkpt lat="42.27299" lon="23.02093">
        <ele>539.38739</ele>
        <time>2022-04-06T08:30:19.910Z</time>
      </trkpt>
      <trkpt lat="42.27299" lon="23.02079">
        <ele>539.471767</ele>
        <time>2022-04-06T08:30:22.905Z</time>
      </trkpt>
      <trkpt lat="42.27299" lon="23.02065">
        <ele>539.556144</ele>
        <time>2022-04-06T08:30:25.930Z</time>
      </trkpt>
      <trkpt lat="42.27299" lon="23.0205">
        <ele>539.644644</ele>
        <time>2022-04-06T08:30:28.898Z</time>
      </trkpt>
      <trkpt lat="42.273" lon="23.02035">
        <ele>539.730393</ele>
        <time>2022-04-06T08:30:31.903Z</time>
      </trkpt>
      <trkpt lat="42.27302" lon="23.02021">
        <ele>539.812089</ele>
        <time>2022-04-06T08:30:34.906Z</time>
      </trkpt>
      <trkpt lat="42.27303" lon="23.02008">
        <ele>539.892747</ele>
        <time>2022-04-06T08:30:37.879Z</time>
      </trkpt>
      <trkpt lat="42.27304" lon="23.01994">
        <ele>539.970062</ele>
        <time>2022-04-06T08:30:40.897Z</time>
      </trkpt>
      <trkpt lat="42.27306" lon="23.01981">
        <ele>540.048639</ele>
        <time>2022-04-06T08:30:43.924Z</time>
      </trkpt>
      <trkpt lat="42.27307" lon="23.01969">
        <ele>540.123802</ele>
        <time>2022-04-06T08:30:46.897Z</time>
      </trkpt>
      <trkpt lat="42.27309" lon="23.01956">
        <ele>540.19843</ele>
        <time>2022-04-06T08:30:49.931Z</time>
      </trkpt>
      <trkpt lat="42.2731" lon="23.01943">
        <ele>540.275493</ele>
        <time>2022-04-06T08:30:52.901Z</time>
      </trkpt>
      <trkpt lat="42.27311" lon="23.01929">
        <ele>540.355043</ele>
        <time>2022-04-06T08:30:55.923Z</time>
      </trkpt>
      <trkpt lat="42.27312" lon="23.01916">
        <ele>540.342003</ele>
        <time>2022-04-06T08:30:58.911Z</time>
      </trkpt>
      <trkpt lat="42.27314" lon="23.01902">
        <ele>540.266417</ele>
        <time>2022-04-06T08:31:01.937Z</time>
      </trkpt>
      <trkpt lat="42.27316" lon="23.01889">
        <ele>540.189632</ele>
        <time>2022-04-06T08:31:04.903Z</time>
      </trkpt>
      <trkpt lat="42.27317" lon="23.01875">
        <ele>540.11339</ele>
        <time>2022-04-06T08:31:07.895Z</time>
      </trkpt>
      <trkpt lat="42.27318" lon="23.01862">
        <ele>540.041279</ele>
        <time>2022-04-06T08:31:10.899Z</time>
      </trkpt>
      <trkpt lat="42.2732" lon="23.01848">
        <ele>539.966621</ele>
        <time>2022-04-06T08:31:13.908Z</time>
      </trkpt>
      <trkpt lat="42.27321" lon="23.01835">
        <ele>539.890946</ele>
        <time>2022-04-06T08:31:16.895Z</time>
      </trkpt>
      <trkpt lat="42.27321" lon="23.01821">
        <ele>539.818248</ele>
        <time>2022-04-06T08:31:19.915Z</time>
      </trkpt>
      <trkpt lat="42.27322" lon="23.01808">
        <ele>539.741663</ele>
        <time>2022-04-06T08:31:22.892Z</time>
      </trkpt>
      <trkpt lat="42.27324" lon="23.01794">
        <ele>539.665302</ele>
        <time>2022-04-06T08:31:25.891Z</time>
      </trkpt>
      <trkpt lat="42.27325" lon="23.0178">
        <ele>539.590688</ele>
        <time>2022-04-06T08:31:28.898Z</time>
      </trkpt>
      <trkpt lat="42.27327" lon="23.01767">
        <ele>539.51487</ele>
        <time>2022-04-06T08:31:31.898Z</time>
      </trkpt>
      <trkpt lat="42.27329" lon="23.01753">
        <ele>539.437424</ele>
        <time>2022-04-06T08:31:34.972Z</time>
      </trkpt>
      <trkpt lat="42.2733" lon="23.01739">
        <ele>539.358031</ele>
        <time>2022-04-06T08:31:37.894Z</time>
      </trkpt>
      <trkpt lat="42.27332" lon="23.01724">
        <ele>539.278836</ele>
        <time>2022-04-06T08:31:40.900Z</time>
      </trkpt>
      <trkpt lat="42.27333" lon="23.0171">
        <ele>539.201075</ele>
        <time>2022-04-06T08:31:43.898Z</time>
      </trkpt>
      <trkpt lat="42.27335" lon="23.01696">
        <ele>539.122156</ele>
        <time>2022-04-06T08:31:46.906Z</time>
      </trkpt>
      <trkpt lat="42.27337" lon="23.01681">
        <ele>539.099757</ele>
        <time>2022-04-06T08:31:49.906Z</time>
      </trkpt>
      <trkpt lat="42.27339" lon="23.01666">
        <ele>539.442756</ele>
        <time>2022-04-06T08:31:52.912Z</time>
      </trkpt>
      <trkpt lat="42.2734" lon="23.01651">
        <ele>539.782246</ele>
        <time>2022-04-06T08:31:55.912Z</time>
      </trkpt>
      <trkpt lat="42.27342" lon="23.01637">
        <ele>540.11903</ele>
        <time>2022-04-06T08:31:58.906Z</time>
      </trkpt>
      <trkpt lat="42.27344" lon="23.01622">
        <ele>540.459795</ele>
        <time>2022-04-06T08:32:01.915Z</time>
      </trkpt>
      <trkpt lat="42.27345" lon="23.01607">
        <ele>540.7934</ele>
        <time>2022-04-06T08:32:04.898Z</time>
      </trkpt>
      <trkpt lat="42.27348" lon="23.01593">
        <ele>541.121323</ele>
        <time>2022-04-06T08:32:07.928Z</time>
      </trkpt>
      <trkpt lat="42.2735" lon="23.01579">
        <ele>541.443945</ele>
        <time>2022-04-06T08:32:10.901Z</time>
      </trkpt>
      <trkpt lat="42.27352" lon="23.01565">
        <ele>541.764139</ele>
        <time>2022-04-06T08:32:13.947Z</time>
      </trkpt>
      <trkpt lat="42.27353" lon="23.01553">
        <ele>542.048668</ele>
        <time>2022-04-06T08:32:16.923Z</time>
      </trkpt>
      <trkpt lat="42.27354" lon="23.01538">
        <ele>542.383297</ele>
        <time>2022-04-06T08:32:20.906Z</time>
      </trkpt>
      <trkpt lat="42.27356" lon="23.01524">
        <ele>542.712429</ele>
        <time>2022-04-06T08:32:24.890Z</time>
      </trkpt>
      <trkpt lat="42.27356" lon="23.01509">
        <ele>543.034567</ele>
        <time>2022-04-06T08:32:28.913Z</time>
      </trkpt>
      <trkpt lat="42.27358" lon="23.01497">
        <ele>543.324793</ele>
        <time>2022-04-06T08:32:32.905Z</time>
      </trkpt>
      <trkpt lat="42.27359" lon="23.01482">
        <ele>543.659798</ele>
        <time>2022-04-06T08:32:37.918Z</time>
      </trkpt>
      <trkpt lat="42.2736" lon="23.01469">
        <ele>543.962644</ele>
        <time>2022-04-06T08:32:42.904Z</time>
      </trkpt>
      <trkpt lat="42.27361" lon="23.01455">
        <ele>544.273042</ele>
        <time>2022-04-06T08:32:47.912Z</time>
      </trkpt>
      <trkpt lat="42.27362" lon="23.0144">
        <ele>544.656121</ele>
        <time>2022-04-06T08:32:52.919Z</time>
      </trkpt>
      <trkpt lat="42.27364" lon="23.01426">
        <ele>545.27859</ele>
        <time>2022-04-06T08:32:57.917Z</time>
      </trkpt>
      <trkpt lat="42.27365" lon="23.01412">
        <ele>545.884759</ele>
        <time>2022-04-06T08:33:02.892Z</time>
      </trkpt>
      <trkpt lat="42.27367" lon="23.01399">
        <ele>546.487086</ele>
        <time>2022-04-06T08:33:07.892Z</time>
      </trkpt>
      <trkpt lat="42.27367" lon="23.01385">
        <ele>547.061829</ele>
        <time>2022-04-06T08:33:13.917Z</time>
      </trkpt>
      <trkpt lat="42.27368" lon="23.01371">
        <ele>547.692406</ele>
        <time>2022-04-06T08:33:19.914Z</time>
      </trkpt>
      <trkpt lat="42.2737" lon="23.01359">
        <ele>548.240771</ele>
        <time>2022-04-06T08:33:24.910Z</time>
      </trkpt>
      <trkpt lat="42.27372" lon="23.01344">
        <ele>548.861692</ele>
        <time>2022-04-06T08:33:30.914Z</time>
      </trkpt>
      <trkpt lat="42.27373" lon="23.01331">
        <ele>549.441232</ele>
        <time>2022-04-06T08:33:35.882Z</time>
      </trkpt>
      <trkpt lat="42.27374" lon="23.01318">
        <ele>550.021367</ele>
        <time>2022-04-06T08:33:40.907Z</time>
      </trkpt>
      <trkpt lat="42.27375" lon="23.01303">
        <ele>550.654529</ele>
        <time>2022-04-06T08:33:46.895Z</time>
      </trkpt>
      <trkpt lat="42.27375" lon="23.01291">
        <ele>551.196976</ele>
        <time>2022-04-06T08:33:51.910Z</time>
      </trkpt>
      <trkpt lat="42.27375" lon="23.01279">
        <ele>551.730744</ele>
        <time>2022-04-06T08:33:56.910Z</time>
      </trkpt>
      <trkpt lat="42.27375" lon="23.01265">
        <ele>552.304318</ele>
        <time>2022-04-06T08:34:01.878Z</time>
      </trkpt>
      <trkpt lat="42.27374" lon="23.01253">
        <ele>552.84879</ele>
        <time>2022-04-06T08:34:06.931Z</time>
      </trkpt>
      <trkpt lat="42.27373" lon="23.0124">
        <ele>553.412301</ele>
        <time>2022-04-06T08:34:11.894Z</time>
      </trkpt>
      <trkpt lat="42.27372" lon="23.01227">
        <ele>554.002356</ele>
        <time>2022-04-06T08:34:16.931Z</time>
      </trkpt>
      <trkpt lat="42.2737" lon="23.01214">
        <ele>554.55189</ele>
        <time>2022-04-06T08:34:21.908Z</time>
      </trkpt>
      <trkpt lat="42.27369" lon="23.01201">
        <ele>555.099646</ele>
        <time>2022-04-06T08:34:26.946Z</time>
      </trkpt>
      <trkpt lat="42.27368" lon="23.01188">
        <ele>555.232145</ele>
        <time>2022-04-06T08:34:31.898Z</time>
      </trkpt>
      <trkpt lat="42.27367" lon="23.01174">
        <ele>555.373545</ele>
        <time>2022-04-06T08:34:36.895Z</time>
      </trkpt>
      <trkpt lat="42.27364" lon="23.01162">
        <ele>555.50677</ele>
        <time>2022-04-06T08:34:41.915Z</time>
      </trkpt>
      <trkpt lat="42.27362" lon="23.01149">
        <ele>555.640302</ele>
        <time>2022-04-06T08:34:46.901Z</time>
      </trkpt>
      <trkpt lat="42.2736" lon="23.01136">
        <ele>555.776372</ele>
        <time>2022-04-06T08:34:51.910Z</time>
      </trkpt>
      <trkpt lat="42.27358" lon="23.01122">
        <ele>555.915519</ele>
        <time>2022-04-06T08:34:56.889Z</time>
      </trkpt>
      <trkpt lat="42.27355" lon="23.01109">
        <ele>556.050364</ele>
        <time>2022-04-06T08:35:01.891Z</time>
      </trkpt>
      <trkpt lat="42.27352" lon="23.01098">
        <ele>556.179353</ele>
        <time>2022-04-06T08:35:06.911Z</time>
      </trkpt>
      <trkpt lat="42.27349" lon="23.01084">
        <ele>556.318943</ele>
        <time>2022-04-06T08:35:11.954Z</time>
      </trkpt>
      <trkpt lat="42.27347" lon="23.01071">
        <ele>556.456769</ele>
        <time>2022-04-06T08:35:16.908Z</time>
      </trkpt>
      <trkpt lat="42.27344" lon="23.01058">
        <ele>556.594156</ele>
        <time>2022-04-06T08:35:21.899Z</time>
      </trkpt>
      <trkpt lat="42.27341" lon="23.01046">
        <ele>556.726054</ele>
        <time>2022-04-06T08:35:26.939Z</time>
      </trkpt>
      <trkpt lat="42.2734" lon="23.01032">
        <ele>556.862882</ele>
        <time>2022-04-06T08:35:31.917Z</time>
      </trkpt>
      <trkpt lat="42.27338" lon="23.01018">
        <ele>557.008933</ele>
        <time>2022-04-06T08:35:36.912Z</time>
      </trkpt>
      <trkpt lat="42.27335" lon="23.01006">
        <ele>557.135692</ele>
        <time>2022-04-06T08:35:40.906Z</time>
      </trkpt>
      <trkpt lat="42.27334" lon="23.00993">
        <ele>557.265319</ele>
        <time>2022-04-06T08:35:44.909Z</time>
      </trkpt>
      <trkpt lat="42.27333" lon="23.00978">
        <ele>557.418766</ele>
        <time>2022-04-06T08:35:49.925Z</time>
      </trkpt>
      <trkpt lat="42.27332" lon="23.00966">
        <ele>557.546764</ele>
        <time>2022-04-06T08:35:53.922Z</time>
      </trkpt>
      <trkpt lat="42.27332" lon="23.00951">
        <ele>557.557962</ele>
        <time>2022-04-06T08:35:58.897Z</time>
      </trkpt>
      <trkpt lat="42.27332" lon="23.00938">
        <ele>557.558139</ele>
        <time>2022-04-06T08:36:02.911Z</time>
      </trkpt>
      <trkpt lat="42.27331" lon="23.00926">
        <ele>557.558316</ele>
        <time>2022-04-06T08:36:06.911Z</time>
      </trkpt>
      <trkpt lat="42.27331" lon="23.00913">
        <ele>557.558489</ele>
        <time>2022-04-06T08:36:10.905Z</time>
      </trkpt>
      <trkpt lat="42.27331" lon="23.00901">
        <ele>557.558659</ele>
        <time>2022-04-06T08:36:14.892Z</time>
      </trkpt>
      <trkpt lat="42.27333" lon="23.00888">
        <ele>557.558844</ele>
        <time>2022-04-06T08:36:18.938Z</time>
      </trkpt>
      <trkpt lat="42.27333" lon="23.00875">
        <ele>557.55903</ele>
        <time>2022-04-06T08:36:22.912Z</time>
      </trkpt>
      <trkpt lat="42.27335" lon="23.00862">
        <ele>557.559218</ele>
        <time>2022-04-06T08:36:26.904Z</time>
      </trkpt>
      <trkpt lat="42.27337" lon="23.00849">
        <ele>557.559408</ele>
        <time>2022-04-06T08:36:30.944Z</time>
      </trkpt>
      <trkpt lat="42.27339" lon="23.00835">
        <ele>557.559605</ele>
        <time>2022-04-06T08:36:34.915Z</time>
      </trkpt>
      <trkpt lat="42.27341" lon="23.00821">
        <ele>557.559799</ele>
        <time>2022-04-06T08:36:38.905Z</time>
      </trkpt>
      <trkpt lat="42.27344" lon="23.00808">
        <ele>557.55999</ele>
        <time>2022-04-06T08:36:42.902Z</time>
      </trkpt>
      <trkpt lat="42.27347" lon="23.00794">
        <ele>557.560201</ele>
        <time>2022-04-06T08:36:46.908Z</time>
      </trkpt>
      <trkpt lat="42.27351" lon="23.00779">
        <ele>557.560424</ele>
        <time>2022-04-06T08:36:50.908Z</time>
      </trkpt>
      <trkpt lat="42.27354" lon="23.00764">
        <ele>557.560648</ele>
        <time>2022-04-06T08:36:54.951Z</time>
      </trkpt>
      <trkpt lat="42.27358" lon="23.00749">
        <ele>557.560865</ele>
        <time>2022-04-06T08:36:58.906Z</time>
      </trkpt>
      <trkpt lat="42.27363" lon="23.00734">
        <ele>557.561093</ele>
        <time>2022-04-06T08:37:02.921Z</time>
      </trkpt>
      <trkpt lat="42.27366" lon="23.00722">
        <ele>557.541655</ele>
        <time>2022-04-06T08:37:05.892Z</time>
      </trkpt>
      <trkpt lat="42.2737" lon="23.0071">
        <ele>557.501312</ele>
        <time>2022-04-06T08:37:08.897Z</time>
      </trkpt>
      <trkpt lat="42.27374" lon="23.00698">
        <ele>557.461167</ele>
        <time>2022-04-06T08:37:11.908Z</time>
      </trkpt>
      <trkpt lat="42.27378" lon="23.00684">
        <ele>557.415698</ele>
        <time>2022-04-06T08:37:14.917Z</time>
      </trkpt>
      <trkpt lat="42.27383" lon="23.00671">
        <ele>557.371615</ele>
        <time>2022-04-06T08:37:17.887Z</time>
      </trkpt>
      <trkpt lat="42.27386" lon="23.00658">
        <ele>557.330133</ele>
        <time>2022-04-06T08:37:20.910Z</time>
      </trkpt>
      <trkpt lat="42.2739" lon="23.00645">
        <ele>557.288822</ele>
        <time>2022-04-06T08:37:23.899Z</time>
      </trkpt>
      <trkpt lat="42.27394" lon="23.00632">
        <ele>557.246293</ele>
        <time>2022-04-06T08:37:26.897Z</time>
      </trkpt>
      <trkpt lat="42.27398" lon="23.00619">
        <ele>557.202392</ele>
        <time>2022-04-06T08:37:29.896Z</time>
      </trkpt>
      <trkpt lat="42.27402" lon="23.00606">
        <ele>557.159777</ele>
        <time>2022-04-06T08:37:32.909Z</time>
      </trkpt>
      <trkpt lat="42.27405" lon="23.00592">
        <ele>557.116835</ele>
        <time>2022-04-06T08:37:35.902Z</time>
      </trkpt>
      <trkpt lat="42.27408" lon="23.00579">
        <ele>557.074137</ele>
        <time>2022-04-06T08:37:38.923Z</time>
      </trkpt>
      <trkpt lat="42.27411" lon="23.00565">
        <ele>557.030311</ele>
        <time>2022-04-06T08:37:41.900Z</time>
      </trkpt>
      <trkpt lat="42.27413" lon="23.0055">
        <ele>556.985333</ele>
        <time>2022-04-06T08:37:44.910Z</time>
      </trkpt>
      <trkpt lat="42.27415" lon="23.00535">
        <ele>556.939052</ele>
        <time>2022-04-06T08:37:47.912Z</time>
      </trkpt>
      <trkpt lat="42.27417" lon="23.0052">
        <ele>556.890794</ele>
        <time>2022-04-06T08:37:50.948Z</time>
      </trkpt>
      <trkpt lat="42.27419" lon="23.00503">
        <ele>556.839337</ele>
        <time>2022-04-06T08:37:53.909Z</time>
      </trkpt>
      <trkpt lat="42.27423" lon="23.00486">
        <ele>556.949835</ele>
        <time>2022-04-06T08:37:56.940Z</time>
      </trkpt>
      <trkpt lat="42.27426" lon="23.00468">
        <ele>557.127243</ele>
        <time>2022-04-06T08:37:59.932Z</time>
      </trkpt>
      <trkpt lat="42.27428" lon="23.00451">
        <ele>557.295813</ele>
        <time>2022-04-06T08:38:02.953Z</time>
      </trkpt>
      <trkpt lat="42.27431" lon="23.00434">
        <ele>557.475272</ele>
        <time>2022-04-06T08:38:05.904Z</time>
      </trkpt>
      <trkpt lat="42.27433" lon="23.00416">
        <ele>557.647999</ele>
        <time>2022-04-06T08:38:08.904Z</time>
      </trkpt>
      <trkpt lat="42.27436" lon="23.00399">
        <ele>557.818531</ele>
        <time>2022-04-06T08:38:11.920Z</time>
      </trkpt>
      <trkpt lat="42.27438" lon="23.00383">
        <ele>557.979612</ele>
        <time>2022-04-06T08:38:14.907Z</time>
      </trkpt>
      <trkpt lat="42.27441" lon="23.00368">
        <ele>558.132022</ele>
        <time>2022-04-06T08:38:17.899Z</time>
      </trkpt>
      <trkpt lat="42.27443" lon="23.00353">
        <ele>558.278131</ele>
        <time>2022-04-06T08:38:20.892Z</time>
      </trkpt>
      <trkpt lat="42.27444" lon="23.0034">
        <ele>558.411073</ele>
        <time>2022-04-06T08:38:23.902Z</time>
      </trkpt>
      <trkpt lat="42.27446" lon="23.00327">
        <ele>558.544398</ele>
        <time>2022-04-06T08:38:26.903Z</time>
      </trkpt>
      <trkpt lat="42.27448" lon="23.00315">
        <ele>558.667447</ele>
        <time>2022-04-06T08:38:29.916Z</time>
      </trkpt>
      <trkpt lat="42.27451" lon="23.00302">
        <ele>558.794424</ele>
        <time>2022-04-06T08:38:32.907Z</time>
      </trkpt>
      <trkpt lat="42.27453" lon="23.00289">
        <ele>558.925313</ele>
        <time>2022-04-06T08:38:35.960Z</time>
      </trkpt>
      <trkpt lat="42.27454" lon="23.00275">
        <ele>559.060807</ele>
        <time>2022-04-06T08:38:38.912Z</time>
      </trkpt>
      <trkpt lat="42.27456" lon="23.00262">
        <ele>559.191999</ele>
        <time>2022-04-06T08:38:41.895Z</time>
      </trkpt>
      <trkpt lat="42.27458" lon="23.00249">
        <ele>559.290522</ele>
        <time>2022-04-06T08:38:44.901Z</time>
      </trkpt>
      <trkpt lat="42.2746" lon="23.00235">
        <ele>559.380718</ele>
        <time>2022-04-06T08:38:47.935Z</time>
      </trkpt>
      <trkpt lat="42.27462" lon="23.00222">
        <ele>559.469305</ele>
        <time>2022-04-06T08:38:50.935Z</time>
      </trkpt>
      <trkpt lat="42.27464" lon="23.00209">
        <ele>559.5592</ele>
        <time>2022-04-06T08:38:53.904Z</time>
      </trkpt>
      <trkpt lat="42.27465" lon="23.00196">
        <ele>559.646859</ele>
        <time>2022-04-06T08:38:56.908Z</time>
      </trkpt>
      <trkpt lat="42.27467" lon="23.00183">
        <ele>559.733343</ele>
        <time>2022-04-06T08:38:59.906Z</time>
      </trkpt>
      <trkpt lat="42.27468" lon="23.00171">
        <ele>559.81656</ele>
        <time>2022-04-06T08:39:02.912Z</time>
      </trkpt>
      <trkpt lat="42.27471" lon="23.00157">
        <ele>559.906627</ele>
        <time>2022-04-06T08:39:05.907Z</time>
      </trkpt>
      <trkpt lat="42.27472" lon="23.00145">
        <ele>559.990148</ele>
        <time>2022-04-06T08:39:08.921Z</time>
      </trkpt>
      <trkpt lat="42.27474" lon="23.00132">
        <ele>560.074014</ele>
        <time>2022-04-06T08:39:11.904Z</time>
      </trkpt>
      <trkpt lat="42.27476" lon="23.00117">
        <ele>560.174654</ele>
        <time>2022-04-06T08:39:15.923Z</time>
      </trkpt>
      <trkpt lat="42.27478" lon="23.00102">
        <ele>560.277778</ele>
        <time>2022-04-06T08:39:19.895Z</time>
      </trkpt>
      <trkpt lat="42.2748" lon="23.00086">
        <ele>560.384175</ele>
        <time>2022-04-06T08:39:23.915Z</time>
      </trkpt>
      <trkpt lat="42.27482" lon="23.00071">
        <ele>560.485734</ele>
        <time>2022-04-06T08:39:27.895Z</time>
      </trkpt>
      <trkpt lat="42.27483" lon="23.00057">
        <ele>560.582762</ele>
        <time>2022-04-06T08:39:31.901Z</time>
      </trkpt>
      <trkpt lat="42.27484" lon="23.00042">
        <ele>560.677523</ele>
        <time>2022-04-06T08:39:35.908Z</time>
      </trkpt>
      <trkpt lat="42.27486" lon="23.00029">
        <ele>560.770327</ele>
        <time>2022-04-06T08:39:39.906Z</time>
      </trkpt>
      <trkpt lat="42.27486" lon="23.00016">
        <ele>560.924111</ele>
        <time>2022-04-06T08:39:43.913Z</time>
      </trkpt>
      <trkpt lat="42.27487" lon="23.00003">
        <ele>561.19067</ele>
        <time>2022-04-06T08:39:47.885Z</time>
      </trkpt>
      <trkpt lat="42.27488" lon="22.99987">
        <ele>561.49954</ele>
        <time>2022-04-06T08:39:51.903Z</time>
      </trkpt>
      <trkpt lat="42.27487" lon="22.99972">
        <ele>561.804145</ele>
        <time>2022-04-06T08:39:55.898Z</time>
      </trkpt>
      <trkpt lat="42.27487" lon="22.99958">
        <ele>562.08959</ele>
        <time>2022-04-06T08:39:59.952Z</time>
      </trkpt>
      <trkpt lat="42.27486" lon="22.99944">
        <ele>562.383703</ele>
        <time>2022-04-06T08:40:03.904Z</time>
      </trkpt>
      <trkpt lat="42.27484" lon="22.99929">
        <ele>562.693219</ele>
        <time>2022-04-06T08:40:07.899Z</time>
      </trkpt>
      <trkpt lat="42.27482" lon="22.99915">
        <ele>562.984822</ele>
        <time>2022-04-06T08:40:11.907Z</time>
      </trkpt>
      <trkpt lat="42.27481" lon="22.99901">
        <ele>563.254021</ele>
        <time>2022-04-06T08:40:15.908Z</time>
      </trkpt>
      <trkpt lat="42.2748" lon="22.99888">
        <ele>563.534958</ele>
        <time>2022-04-06T08:40:19.936Z</time>
      </trkpt>
      <trkpt lat="42.27478" lon="22.99873">
        <ele>563.829524</ele>
        <time>2022-04-06T08:40:23.901Z</time>
      </trkpt>
      <trkpt lat="42.27476" lon="22.99859">
        <ele>564.11961</ele>
        <time>2022-04-06T08:40:27.884Z</time>
      </trkpt>
      <trkpt lat="42.27474" lon="22.99846">
        <ele>564.402252</ele>
        <time>2022-04-06T08:40:31.952Z</time>
      </trkpt>
      <trkpt lat="42.27472" lon="22.99832">
        <ele>564.676563</ele>
        <time>2022-04-06T08:40:35.898Z</time>
      </trkpt>
      <trkpt lat="42.2747" lon="22.99819">
        <ele>564.939377</ele>
        <time>2022-04-06T08:40:39.906Z</time>
      </trkpt>
      <trkpt lat="42.27468" lon="22.99805">
        <ele>565.230881</ele>
        <time>2022-04-06T08:40:44.920Z</time>
      </trkpt>
      <trkpt lat="42.27466" lon="22.99791">
        <ele>565.535901</ele>
        <time>2022-04-06T08:40:49.898Z</time>
      </trkpt>
      <trkpt lat="42.27464" lon="22.99778">
        <ele>565.803832</ele>
        <time>2022-04-06T08:40:53.904Z</time>
      </trkpt>
      <trkpt lat="42.27462" lon="22.99765">
        <ele>566.076137</ele>
        <time>2022-04-06T08:40:57.886Z</time>
      </trkpt>
      <trkpt lat="42.27459" lon="22.99752">
        <ele>566.377369</ele>
        <time>2022-04-06T08:41:02.890Z</time>
      </trkpt>
      <trkpt lat="42.27457" lon="22.99737">
        <ele>566.69171</ele>
        <time>2022-04-06T08:41:07.896Z</time>
      </trkpt>
      <trkpt lat="42.27454" lon="22.99725">
        <ele>566.955519</ele>
        <time>2022-04-06T08:41:11.892Z</time>
      </trkpt>
      <trkpt lat="42.27451" lon="22.99712">
        <ele>567.249742</ele>
        <time>2022-04-06T08:41:16.932Z</time>
      </trkpt>
      <trkpt lat="42.27448" lon="22.99698">
        <ele>567.565667</ele>
        <time>2022-04-06T08:41:21.907Z</time>
      </trkpt>
      <trkpt lat="42.27446" lon="22.99686">
        <ele>567.82485</ele>
        <time>2022-04-06T08:41:25.902Z</time>
      </trkpt>
      <trkpt lat="42.27444" lon="22.99675">
        <ele>568.083175</ele>
        <time>2022-04-06T08:41:29.905Z</time>
      </trkpt>
      <trkpt lat="42.27442" lon="22.9966">
        <ele>568.408413</ele>
        <time>2022-04-06T08:41:34.912Z</time>
      </trkpt>
      <trkpt lat="42.2744" lon="22.99645">
        <ele>568.725792</ele>
        <time>2022-04-06T08:41:39.907Z</time>
      </trkpt>
      <trkpt lat="42.27437" lon="22.99631">
        <ele>569.042966</ele>
        <time>2022-04-06T08:41:44.892Z</time>
      </trkpt>
      <trkpt lat="42.27434" lon="22.99619">
        <ele>569.303647</ele>
        <time>2022-04-06T08:41:48.923Z</time>
      </trkpt>
      <trkpt lat="42.27432" lon="22.99606">
        <ele>569.583349</ele>
        <time>2022-04-06T08:41:52.907Z</time>
      </trkpt>
      <trkpt lat="42.2743" lon="22.99594">
        <ele>569.856874</ele>
        <time>2022-04-06T08:41:56.904Z</time>
      </trkpt>
      <trkpt lat="42.27428" lon="22.99581">
        <ele>570.124119</ele>
        <time>2022-04-06T08:42:00.933Z</time>
      </trkpt>
      <trkpt lat="42.27427" lon="22.99569">
        <ele>570.393091</ele>
        <time>2022-04-06T08:42:04.892Z</time>
      </trkpt>
      <trkpt lat="42.27426" lon="22.99557">
        <ele>570.658647</ele>
        <time>2022-04-06T08:42:08.903Z</time>
      </trkpt>
      <trkpt lat="42.27424" lon="22.99544">
        <ele>570.928863</ele>
        <time>2022-04-06T08:42:12.925Z</time>
      </trkpt>
      <trkpt lat="42.27423" lon="22.99531">
        <ele>571.309898</ele>
        <time>2022-04-06T08:42:16.911Z</time>
      </trkpt>
      <trkpt lat="42.27422" lon="22.99518">
        <ele>571.651671</ele>
        <time>2022-04-06T08:42:20.897Z</time>
      </trkpt>
      <trkpt lat="42.27419" lon="22.99504">
        <ele>572.061272</ele>
        <time>2022-04-06T08:42:25.900Z</time>
      </trkpt>
      <trkpt lat="42.27417" lon="22.99491">
        <ele>572.445824</ele>
        <time>2022-04-06T08:42:30.939Z</time>
      </trkpt>
      <trkpt lat="42.27415" lon="22.99477">
        <ele>572.820286</ele>
        <time>2022-04-06T08:42:35.891Z</time>
      </trkpt>
      <trkpt lat="42.27413" lon="22.99465">
        <ele>573.178458</ele>
        <time>2022-04-06T08:42:40.895Z</time>
      </trkpt>
      <trkpt lat="42.2741" lon="22.99451">
        <ele>573.574059</ele>
        <time>2022-04-06T08:42:46.936Z</time>
      </trkpt>
      <trkpt lat="42.27407" lon="22.9944">
        <ele>573.916843</ele>
        <time>2022-04-06T08:42:51.904Z</time>
      </trkpt>
      <trkpt lat="42.27405" lon="22.99427">
        <ele>574.266359</ele>
        <time>2022-04-06T08:42:56.915Z</time>
      </trkpt>
      <trkpt lat="42.27403" lon="22.99415">
        <ele>574.612425</ele>
        <time>2022-04-06T08:43:01.916Z</time>
      </trkpt>
      <trkpt lat="42.27402" lon="22.99403">
        <ele>574.956474</ele>
        <time>2022-04-06T08:43:06.900Z</time>
      </trkpt>
      <trkpt lat="42.27399" lon="22.9939">
        <ele>575.348338</ele>
        <time>2022-04-06T08:43:12.908Z</time>
      </trkpt>
      <trkpt lat="42.27396" lon="22.99376">
        <ele>575.748107</ele>
        <time>2022-04-06T08:43:18.903Z</time>
      </trkpt>
      <trkpt lat="42.27395" lon="22.99363">
        <ele>576.102394</ele>
        <time>2022-04-06T08:43:23.901Z</time>
      </trkpt>
      <trkpt lat="42.27394" lon="22.99351">
        <ele>576.453765</ele>
        <time>2022-04-06T08:43:28.902Z</time>
      </trkpt>
      <trkpt lat="42.27391" lon="22.99339">
        <ele>576.794903</ele>
        <time>2022-04-06T08:43:33.904Z</time>
      </trkpt>
      <trkpt lat="42.27388" lon="22.99325">
        <ele>577.193794</ele>
        <time>2022-04-06T08:43:39.911Z</time>
      </trkpt>
      <trkpt lat="42.27387" lon="22.99313">
        <ele>577.539637</ele>
        <time>2022-04-06T08:43:44.896Z</time>
      </trkpt>
      <trkpt lat="42.27385" lon="22.993">
        <ele>577.83118</ele>
        <time>2022-04-06T08:43:49.922Z</time>
      </trkpt>
      <trkpt lat="42.27384" lon="22.99286">
        <ele>578.097865</ele>
        <time>2022-04-06T08:43:55.902Z</time>
      </trkpt>
      <trkpt lat="42.27381" lon="22.99275">
        <ele>578.327136</ele>
        <time>2022-04-06T08:44:00.902Z</time>
      </trkpt>
      <trkpt lat="42.27378" lon="22.99261">
        <ele>578.591397</ele>
        <time>2022-04-06T08:44:06.902Z</time>
      </trkpt>
      <trkpt lat="42.27375" lon="22.99248">
        <ele>578.855223</ele>
        <time>2022-04-06T08:44:11.907Z</time>
      </trkpt>
      <trkpt lat="42.27373" lon="22.99236">
        <ele>579.085535</ele>
        <time>2022-04-06T08:44:16.903Z</time>
      </trkpt>
      <trkpt lat="42.27372" lon="22.99222">
        <ele>579.341036</ele>
        <time>2022-04-06T08:44:21.913Z</time>
      </trkpt>
      <trkpt lat="42.27371" lon="22.99209">
        <ele>579.587534</ele>
        <time>2022-04-06T08:44:26.900Z</time>
      </trkpt>
      <trkpt lat="42.27369" lon="22.99197">
        <ele>579.816838</ele>
        <time>2022-04-06T08:44:31.910Z</time>
      </trkpt>
      <trkpt lat="42.27368" lon="22.99184">
        <ele>580.060904</ele>
        <time>2022-04-06T08:44:36.908Z</time>
      </trkpt>
      <trkpt lat="42.27366" lon="22.9917">
        <ele>580.327168</ele>
        <time>2022-04-06T08:44:41.919Z</time>
      </trkpt>
      <trkpt lat="42.27365" lon="22.99158">
        <ele>580.556289</ele>
        <time>2022-04-06T08:44:46.892Z</time>
      </trkpt>
      <trkpt lat="42.27363" lon="22.99145">
        <ele>580.799127</ele>
        <time>2022-04-06T08:44:51.921Z</time>
      </trkpt>
      <trkpt lat="42.27362" lon="22.99132">
        <ele>581.045821</ele>
        <time>2022-04-06T08:44:56.899Z</time>
      </trkpt>
      <trkpt lat="42.27362" lon="22.99118">
        <ele>581.313299</ele>
        <time>2022-04-06T08:45:02.942Z</time>
      </trkpt>
      <trkpt lat="42.27361" lon="22.99105">
        <ele>581.551704</ele>
        <time>2022-04-06T08:45:07.891Z</time>
      </trkpt>
      <trkpt lat="42.27361" lon="22.99091">
        <ele>581.829572</ele>
        <time>2022-04-06T08:45:12.922Z</time>
      </trkpt>
      <trkpt lat="42.27361" lon="22.99077">
        <ele>582.085016</ele>
        <time>2022-04-06T08:45:17.898Z</time>
      </trkpt>
      <trkpt lat="42.2736" lon="22.99064">
        <ele>582.35641</ele>
        <time>2022-04-06T08:45:22.910Z</time>
      </trkpt>
      <trkpt lat="42.2736" lon="22.9905">
        <ele>582.698976</ele>
        <time>2022-04-06T08:45:27.893Z</time>
      </trkpt>
      <trkpt lat="42.2736" lon="22.99037">
        <ele>583.049207</ele>
        <time>2022-04-06T08:45:32.900Z</time>
      </trkpt>
      <trkpt lat="42.2736" lon="22.99024">
        <ele>583.378995</ele>
        <time>2022-04-06T08:45:37.897Z</time>
      </trkpt>
      <trkpt lat="42.2736" lon="22.99011">
        <ele>583.713823</ele>
        <time>2022-04-06T08:45:42.901Z</time>
      </trkpt>
      <trkpt lat="42.2736" lon="22.98998">
        <ele>584.030759</ele>
        <time>2022-04-06T08:45:47.908Z</time>
      </trkpt>
      <trkpt lat="42.2736" lon="22.98985">
        <ele>584.381535</ele>
        <time>2022-04-06T08:45:52.894Z</time>
      </trkpt>
      <trkpt lat="42.27361" lon="22.9897">
        <ele>584.759955</ele>
        <time>2022-04-06T08:45:57.881Z</time>
      </trkpt>
      <trkpt lat="42.27361" lon="22.98956">
        <ele>585.110136</ele>
        <time>2022-04-06T08:46:02.912Z</time>
      </trkpt>
      <trkpt lat="42.27361" lon="22.98942">
        <ele>585.473226</ele>
        <time>2022-04-06T08:46:07.906Z</time>
      </trkpt>
      <trkpt lat="42.27361" lon="22.98928">
        <ele>585.836169</ele>
        <time>2022-04-06T08:46:12.909Z</time>
      </trkpt>
      <trkpt lat="42.2736" lon="22.98915">
        <ele>586.148929</ele>
        <time>2022-04-06T08:46:16.896Z</time>
      </trkpt>
      <trkpt lat="42.2736" lon="22.98903">
        <ele>586.47144</ele>
        <time>2022-04-06T08:46:20.892Z</time>
      </trkpt>
      <trkpt lat="42.2736" lon="22.9889">
        <ele>586.806268</ele>
        <time>2022-04-06T08:46:24.907Z</time>
      </trkpt>
      <trkpt lat="42.2736" lon="22.98875">
        <ele>587.174387</ele>
        <time>2022-04-06T08:46:28.903Z</time>
      </trkpt>
      <trkpt lat="42.2736" lon="22.98861">
        <ele>587.550364</ele>
        <time>2022-04-06T08:46:32.921Z</time>
      </trkpt>
      <trkpt lat="42.27361" lon="22.98845">
        <ele>587.944115</ele>
        <time>2022-04-06T08:46:36.908Z</time>
      </trkpt>
      <trkpt lat="42.2736" lon="22.9883">
        <ele>588.33592</ele>
        <time>2022-04-06T08:46:40.939Z</time>
      </trkpt>
      <trkpt lat="42.2736" lon="22.98815">
        <ele>588.214704</ele>
        <time>2022-04-06T08:46:44.918Z</time>
      </trkpt>
      <trkpt lat="42.2736" lon="22.98802">
        <ele>587.839166</ele>
        <time>2022-04-06T08:46:47.898Z</time>
      </trkpt>
      <trkpt lat="42.2736" lon="22.9879">
        <ele>587.477059</ele>
        <time>2022-04-06T08:46:50.906Z</time>
      </trkpt>
      <trkpt lat="42.27361" lon="22.98777">
        <ele>587.101359</ele>
        <time>2022-04-06T08:46:53.892Z</time>
      </trkpt>
      <trkpt lat="42.27361" lon="22.98763">
        <ele>586.719565</ele>
        <time>2022-04-06T08:46:56.900Z</time>
      </trkpt>
      <trkpt lat="42.27362" lon="22.98749">
        <ele>586.289902</ele>
        <time>2022-04-06T08:46:59.909Z</time>
      </trkpt>
      <trkpt lat="42.27363" lon="22.98734">
        <ele>585.85696</ele>
        <time>2022-04-06T08:47:02.898Z</time>
      </trkpt>
      <trkpt lat="42.27364" lon="22.98719">
        <ele>585.429287</ele>
        <time>2022-04-06T08:47:05.928Z</time>
      </trkpt>
      <trkpt lat="42.27364" lon="22.98704">
        <ele>585.004377</ele>
        <time>2022-04-06T08:47:08.915Z</time>
      </trkpt>
      <trkpt lat="42.27365" lon="22.98691">
        <ele>584.625247</ele>
        <time>2022-04-06T08:47:11.912Z</time>
      </trkpt>
      <trkpt lat="42.27365" lon="22.98677">
        <ele>584.228568</ele>
        <time>2022-04-06T08:47:14.894Z</time>
      </trkpt>
      <trkpt lat="42.27366" lon="22.98663">
        <ele>583.808559</ele>
        <time>2022-04-06T08:47:17.915Z</time>
      </trkpt>
      <trkpt lat="42.27366" lon="22.98649">
        <ele>583.395416</ele>
        <time>2022-04-06T08:47:20.909Z</time>
      </trkpt>
      <trkpt lat="42.27366" lon="22.98635">
        <ele>582.990712</ele>
        <time>2022-04-06T08:47:23.894Z</time>
      </trkpt>
      <trkpt lat="42.27365" lon="22.9862">
        <ele>582.57459</ele>
        <time>2022-04-06T08:47:26.908Z</time>
      </trkpt>
      <trkpt lat="42.27365" lon="22.98606">
        <ele>582.173056</ele>
        <time>2022-04-06T08:47:29.897Z</time>
      </trkpt>
      <trkpt lat="42.27365" lon="22.98592">
        <ele>581.765765</ele>
        <time>2022-04-06T08:47:32.898Z</time>
      </trkpt>
      <trkpt lat="42.27365" lon="22.98579">
        <ele>581.452977</ele>
        <time>2022-04-06T08:47:35.890Z</time>
      </trkpt>
      <trkpt lat="42.27364" lon="22.98567">
        <ele>581.419508</ele>
        <time>2022-04-06T08:47:38.936Z</time>
      </trkpt>
      <trkpt lat="42.27364" lon="22.98554">
        <ele>581.385818</ele>
        <time>2022-04-06T08:47:41.898Z</time>
      </trkpt>
      <trkpt lat="42.27364" lon="22.98539">
        <ele>581.34464</ele>
        <time>2022-04-06T08:47:45.911Z</time>
      </trkpt>
      <trkpt lat="42.27365" lon="22.98527">
        <ele>581.311376</ele>
        <time>2022-04-06T08:47:48.915Z</time>
      </trkpt>
      <trkpt lat="42.27365" lon="22.98513">
        <ele>581.274767</ele>
        <time>2022-04-06T08:47:51.903Z</time>
      </trkpt>
      <trkpt lat="42.27365" lon="22.98499">
        <ele>581.237357</ele>
        <time>2022-04-06T08:47:54.900Z</time>
      </trkpt>
      <trkpt lat="42.27365" lon="22.98485">
        <ele>581.198601</ele>
        <time>2022-04-06T08:47:57.909Z</time>
      </trkpt>
      <trkpt lat="42.27365" lon="22.9847">
        <ele>581.159281</ele>
        <time>2022-04-06T08:48:00.916Z</time>
      </trkpt>
      <trkpt lat="42.27366" lon="22.98455">
        <ele>581.119424</ele>
        <time>2022-04-06T08:48:03.904Z</time>
      </trkpt>
      <trkpt lat="42.27366" lon="22.98441">
        <ele>581.081207</ele>
        <time>2022-04-06T08:48:06.934Z</time>
      </trkpt>
      <trkpt lat="42.27366" lon="22.98427">
        <ele>581.043792</ele>
        <time>2022-04-06T08:48:09.896Z</time>
      </trkpt>
      <trkpt lat="42.27366" lon="22.98413">
        <ele>581.004492</ele>
        <time>2022-04-06T08:48:12.930Z</time>
      </trkpt>
      <trkpt lat="42.27366" lon="22.98398">
        <ele>580.964082</ele>
        <time>2022-04-06T08:48:15.895Z</time>
      </trkpt>
      <trkpt lat="42.27367" lon="22.98382">
        <ele>580.921277</ele>
        <time>2022-04-06T08:48:18.959Z</time>
      </trkpt>
      <trkpt lat="42.27367" lon="22.98366">
        <ele>580.879254</ele>
        <time>2022-04-06T08:48:21.896Z</time>
      </trkpt>
      <trkpt lat="42.27368" lon="22.9835">
        <ele>580.836387</ele>
        <time>2022-04-06T08:48:24.903Z</time>
      </trkpt>
      <trkpt lat="42.27368" lon="22.98334">
        <ele>580.865451</ele>
        <time>2022-04-06T08:48:27.909Z</time>
      </trkpt>
      <trkpt lat="42.27369" lon="22.98318">
        <ele>581.076278</ele>
        <time>2022-04-06T08:48:30.904Z</time>
      </trkpt>
      <trkpt lat="42.27369" lon="22.98302">
        <ele>581.284359</ele>
        <time>2022-04-06T08:48:33.893Z</time>
      </trkpt>
      <trkpt lat="42.27369" lon="22.98287">
        <ele>581.4925</ele>
        <time>2022-04-06T08:48:36.910Z</time>
      </trkpt>
      <trkpt lat="42.27368" lon="22.98271">
        <ele>581.691744</ele>
        <time>2022-04-06T08:48:39.879Z</time>
      </trkpt>
      <trkpt lat="42.27368" lon="22.98255">
        <ele>581.905115</ele>
        <time>2022-04-06T08:48:42.901Z</time>
      </trkpt>
      <trkpt lat="42.27369" lon="22.9824">
        <ele>582.108115</ele>
        <time>2022-04-06T08:48:45.917Z</time>
      </trkpt>
      <trkpt lat="42.27369" lon="22.98225">
        <ele>582.303052</ele>
        <time>2022-04-06T08:48:48.913Z</time>
      </trkpt>
      <trkpt lat="42.27369" lon="22.98211">
        <ele>582.492696</ele>
        <time>2022-04-06T08:48:51.918Z</time>
      </trkpt>
      <trkpt lat="42.27369" lon="22.98197">
        <ele>582.674439</ele>
        <time>2022-04-06T08:48:54.896Z</time>
      </trkpt>
      <trkpt lat="42.27369" lon="22.98183">
        <ele>582.857491</ele>
        <time>2022-04-06T08:48:57.947Z</time>
      </trkpt>
      <trkpt lat="42.2737" lon="22.98169">
        <ele>583.038224</ele>
        <time>2022-04-06T08:49:00.907Z</time>
      </trkpt>
      <trkpt lat="42.2737" lon="22.98155">
        <ele>583.221414</ele>
        <time>2022-04-06T08:49:03.903Z</time>
      </trkpt>
      <trkpt lat="42.2737" lon="22.98142">
        <ele>583.396709</ele>
        <time>2022-04-06T08:49:06.912Z</time>
      </trkpt>
      <trkpt lat="42.27371" lon="22.98129">
        <ele>583.570578</ele>
        <time>2022-04-06T08:49:09.902Z</time>
      </trkpt>
      <trkpt lat="42.2737" lon="22.98116">
        <ele>583.735232</ele>
        <time>2022-04-06T08:49:12.879Z</time>
      </trkpt>
      <trkpt lat="42.2737" lon="22.981">
        <ele>583.947263</ele>
        <time>2022-04-06T08:49:16.923Z</time>
      </trkpt>
      <trkpt lat="42.27371" lon="22.98088">
        <ele>584.12123</ele>
        <time>2022-04-06T08:49:19.884Z</time>
      </trkpt>
      <trkpt lat="42.27371" lon="22.98075">
        <ele>584.298357</ele>
        <time>2022-04-06T08:49:22.895Z</time>
      </trkpt>
      <trkpt lat="42.27372" lon="22.98059">
        <ele>584.522049</ele>
        <time>2022-04-06T08:49:26.903Z</time>
      </trkpt>
      <trkpt lat="42.27371" lon="22.98046">
        <ele>584.711662</ele>
        <time>2022-04-06T08:49:30.900Z</time>
      </trkpt>
      <trkpt lat="42.27372" lon="22.98033">
        <ele>584.892182</ele>
        <time>2022-04-06T08:49:34.913Z</time>
      </trkpt>
      <trkpt lat="42.27372" lon="22.98018">
        <ele>585.104502</ele>
        <time>2022-04-06T08:49:38.896Z</time>
      </trkpt>
      <trkpt lat="42.27372" lon="22.98006">
        <ele>585.279997</ele>
        <time>2022-04-06T08:49:41.893Z</time>
      </trkpt>
      <trkpt lat="42.27372" lon="22.97994">
        <ele>585.454036</ele>
        <time>2022-04-06T08:49:44.911Z</time>
      </trkpt>
      <trkpt lat="42.27372" lon="22.97978">
        <ele>585.674842</ele>
        <time>2022-04-06T08:49:48.910Z</time>
      </trkpt>
      <trkpt lat="42.27372" lon="22.97966">
        <ele>585.847508</ele>
        <time>2022-04-06T08:49:51.894Z</time>
      </trkpt>
      <trkpt lat="42.27373" lon="22.97952">
        <ele>586.03709</ele>
        <time>2022-04-06T08:49:54.900Z</time>
      </trkpt>
      <trkpt lat="42.27374" lon="22.97939">
        <ele>586.226247</ele>
        <time>2022-04-06T08:49:57.903Z</time>
      </trkpt>
      <trkpt lat="42.27374" lon="22.97924">
        <ele>586.446987</ele>
        <time>2022-04-06T08:50:01.916Z</time>
      </trkpt>
      <trkpt lat="42.27374" lon="22.97909">
        <ele>586.659264</ele>
        <time>2022-04-06T08:50:05.908Z</time>
      </trkpt>
      <trkpt lat="42.27374" lon="22.97894">
        <ele>586.860413</ele>
        <time>2022-04-06T08:50:09.932Z</time>
      </trkpt>
      <trkpt lat="42.27374" lon="22.9788">
        <ele>587.060068</ele>
        <time>2022-04-06T08:50:13.898Z</time>
      </trkpt>
      <trkpt lat="42.27373" lon="22.97866">
        <ele>587.263856</ele>
        <time>2022-04-06T08:50:17.920Z</time>
      </trkpt>
      <trkpt lat="42.27374" lon="22.97852">
        <ele>587.481173</ele>
        <time>2022-04-06T08:50:21.949Z</time>
      </trkpt>
      <trkpt lat="42.27374" lon="22.97838">
        <ele>587.911573</ele>
        <time>2022-04-06T08:50:25.921Z</time>
      </trkpt>
      <trkpt lat="42.27375" lon="22.97824">
        <ele>588.337721</ele>
        <time>2022-04-06T08:50:29.895Z</time>
      </trkpt>
      <trkpt lat="42.27376" lon="22.9781">
        <ele>588.779604</ele>
        <time>2022-04-06T08:50:33.893Z</time>
      </trkpt>
      <trkpt lat="42.27376" lon="22.97796">
        <ele>589.217742</ele>
        <time>2022-04-06T08:50:37.915Z</time>
      </trkpt>
      <trkpt lat="42.27375" lon="22.97782">
        <ele>589.657086</ele>
        <time>2022-04-06T08:50:41.900Z</time>
      </trkpt>
      <trkpt lat="42.27374" lon="22.97769">
        <ele>590.075508</ele>
        <time>2022-04-06T08:50:45.912Z</time>
      </trkpt>
      <trkpt lat="42.27374" lon="22.97754">
        <ele>590.513566</ele>
        <time>2022-04-06T08:50:49.940Z</time>
      </trkpt>
      <trkpt lat="42.27374" lon="22.97741">
        <ele>590.945736</ele>
        <time>2022-04-06T08:50:53.913Z</time>
      </trkpt>
      <trkpt lat="42.27373" lon="22.97727">
        <ele>591.365489</ele>
        <time>2022-04-06T08:50:57.902Z</time>
      </trkpt>
      <trkpt lat="42.27373" lon="22.97713">
        <ele>591.800947</ele>
        <time>2022-04-06T08:51:01.896Z</time>
      </trkpt>
      <trkpt lat="42.27372" lon="22.977">
        <ele>592.221392</ele>
        <time>2022-04-06T08:51:05.905Z</time>
      </trkpt>
      <trkpt lat="42.27371" lon="22.97687">
        <ele>592.62667</ele>
        <time>2022-04-06T08:51:09.898Z</time>
      </trkpt>
      <trkpt lat="42.27371" lon="22.97674">
        <ele>593.027644</ele>
        <time>2022-04-06T08:51:13.934Z</time>
      </trkpt>
      <trkpt lat="42.2737" lon="22.97661">
        <ele>593.42673</ele>
        <time>2022-04-06T08:51:17.906Z</time>
      </trkpt>
      <trkpt lat="42.27369" lon="22.97648">
        <ele>593.828721</ele>
        <time>2022-04-06T08:51:21.899Z</time>
      </trkpt>
      <trkpt lat="42.27367" lon="22.97633">
        <ele>594.298433</ele>
        <time>2022-04-06T08:51:26.909Z</time>
      </trkpt>
      <trkpt lat="42.27367" lon="22.97618">
        <ele>594.767634</ele>
        <time>2022-04-06T08:51:31.909Z</time>
      </trkpt>
      <trkpt lat="42.27366" lon="22.97606">
        <ele>595.122875</ele>
        <time>2022-04-06T08:51:35.913Z</time>
      </trkpt>
      <trkpt lat="42.27364" lon="22.97594">
        <ele>595.450514</ele>
        <time>2022-04-06T08:51:39.895Z</time>
      </trkpt>
      <trkpt lat="42.27363" lon="22.97581">
        <ele>595.780736</ele>
        <time>2022-04-06T08:51:43.919Z</time>
      </trkpt>
      <trkpt lat="42.27361" lon="22.97568">
        <ele>596.125384</ele>
        <time>2022-04-06T08:51:47.892Z</time>
      </trkpt>
      <trkpt lat="42.2736" lon="22.97554">
        <ele>596.503963</ele>
        <time>2022-04-06T08:51:52.895Z</time>
      </trkpt>
      <trkpt lat="42.27357" lon="22.9754">
        <ele>596.886345</ele>
        <time>2022-04-06T08:51:57.887Z</time>
      </trkpt>
      <trkpt lat="42.27354" lon="22.97525">
        <ele>597.277237</ele>
        <time>2022-04-06T08:52:02.940Z</time>
      </trkpt>
      <trkpt lat="42.27353" lon="22.97511">
        <ele>597.646852</ele>
        <time>2022-04-06T08:52:07.888Z</time>
      </trkpt>
      <trkpt lat="42.27352" lon="22.97498">
        <ele>597.99013</ele>
        <time>2022-04-06T08:52:12.922Z</time>
      </trkpt>
      <trkpt lat="42.2735" lon="22.97485">
        <ele>598.335871</ele>
        <time>2022-04-06T08:52:17.897Z</time>
      </trkpt>
      <trkpt lat="42.27348" lon="22.97473">
        <ele>598.660927</ele>
        <time>2022-04-06T08:52:22.902Z</time>
      </trkpt>
      <trkpt lat="42.27347" lon="22.97461">
        <ele>598.978236</ele>
        <time>2022-04-06T08:52:27.898Z</time>
      </trkpt>
      <trkpt lat="42.27345" lon="22.97447">
        <ele>599.351954</ele>
        <time>2022-04-06T08:52:33.912Z</time>
      </trkpt>
      <trkpt lat="42.27344" lon="22.97435">
        <ele>599.688816</ele>
        <time>2022-04-06T08:52:38.897Z</time>
      </trkpt>
      <trkpt lat="42.27342" lon="22.97421">
        <ele>600.036586</ele>
        <time>2022-04-06T08:52:43.894Z</time>
      </trkpt>
      <trkpt lat="42.27341" lon="22.97408">
        <ele>600.406201</ele>
        <time>2022-04-06T08:52:48.920Z</time>
      </trkpt>
      <trkpt lat="42.2734" lon="22.97394">
        <ele>600.759196</ele>
        <time>2022-04-06T08:52:53.897Z</time>
      </trkpt>
      <trkpt lat="42.27338" lon="22.9738">
        <ele>601.131991</ele>
        <time>2022-04-06T08:52:58.921Z</time>
      </trkpt>
      <trkpt lat="42.27337" lon="22.97367">
        <ele>601.412885</ele>
        <time>2022-04-06T08:53:03.930Z</time>
      </trkpt>
      <trkpt lat="42.27336" lon="22.97355">
        <ele>601.535143</ele>
        <time>2022-04-06T08:53:08.904Z</time>
      </trkpt>
      <trkpt lat="42.27334" lon="22.9734">
        <ele>601.678841</ele>
        <time>2022-04-06T08:53:14.893Z</time>
      </trkpt>
      <trkpt lat="42.27332" lon="22.97327">
        <ele>601.808709</ele>
        <time>2022-04-06T08:53:19.917Z</time>
      </trkpt>
      <trkpt lat="42.27331" lon="22.97315">
        <ele>601.929836</ele>
        <time>2022-04-06T08:53:24.912Z</time>
      </trkpt>
      <trkpt lat="42.27329" lon="22.97302">
        <ele>602.066512</ele>
        <time>2022-04-06T08:53:29.906Z</time>
      </trkpt>
      <trkpt lat="42.27328" lon="22.97289">
        <ele>602.192236</ele>
        <time>2022-04-06T08:53:34.920Z</time>
      </trkpt>
      <trkpt lat="42.27326" lon="22.97276">
        <ele>602.321598</ele>
        <time>2022-04-06T08:53:39.899Z</time>
      </trkpt>
      <trkpt lat="42.27325" lon="22.97263">
        <ele>602.451676</ele>
        <time>2022-04-06T08:53:44.903Z</time>
      </trkpt>
      <trkpt lat="42.27324" lon="22.9725">
        <ele>602.579799</ele>
        <time>2022-04-06T08:53:49.964Z</time>
      </trkpt>
      <trkpt lat="42.27323" lon="22.97237">
        <ele>602.709228</ele>
        <time>2022-04-06T08:53:54.899Z</time>
      </trkpt>
      <trkpt lat="42.27322" lon="22.97224">
        <ele>602.838876</ele>
        <time>2022-04-06T08:53:59.903Z</time>
      </trkpt>
      <trkpt lat="42.27321" lon="22.97211">
        <ele>602.966839</ele>
        <time>2022-04-06T08:54:04.906Z</time>
      </trkpt>
      <trkpt lat="42.2732" lon="22.97198">
        <ele>603.097597</ele>
        <time>2022-04-06T08:54:09.912Z</time>
      </trkpt>
      <trkpt lat="42.27319" lon="22.97185">
        <ele>603.219689</ele>
        <time>2022-04-06T08:54:14.907Z</time>
      </trkpt>
      <trkpt lat="42.27318" lon="22.97173">
        <ele>603.343506</ele>
        <time>2022-04-06T08:54:19.900Z</time>
      </trkpt>
      <trkpt lat="42.27317" lon="22.9716">
        <ele>603.469003</ele>
        <time>2022-04-06T08:54:24.899Z</time>
      </trkpt>
      <trkpt lat="42.27315" lon="22.97148">
        <ele>603.588932</ele>
        <time>2022-04-06T08:54:29.908Z</time>
      </trkpt>
      <trkpt lat="42.27314" lon="22.97134">
        <ele>603.732427</ele>
        <time>2022-04-06T08:54:35.901Z</time>
      </trkpt>
      <trkpt lat="42.27312" lon="22.97122">
        <ele>604.055307</ele>
        <time>2022-04-06T08:54:40.899Z</time>
      </trkpt>
      <trkpt lat="42.2731" lon="22.97108">
        <ele>604.533293</ele>
        <time>2022-04-06T08:54:46.902Z</time>
      </trkpt>
      <trkpt lat="42.27308" lon="22.97094">
        <ele>604.996917</ele>
        <time>2022-04-06T08:54:52.911Z</time>
      </trkpt>
      <trkpt lat="42.27306" lon="22.97081">
        <ele>605.418826</ele>
        <time>2022-04-06T08:54:57.911Z</time>
      </trkpt>
      <trkpt lat="42.27304" lon="22.97069">
        <ele>605.836746</ele>
        <time>2022-04-06T08:55:02.894Z</time>
      </trkpt>
      <trkpt lat="42.27303" lon="22.97056">
        <ele>606.265295</ele>
        <time>2022-04-06T08:55:07.894Z</time>
      </trkpt>
      <trkpt lat="42.27302" lon="22.97043">
        <ele>606.684735</ele>
        <time>2022-04-06T08:55:12.929Z</time>
      </trkpt>
      <trkpt lat="42.273" lon="22.97031">
        <ele>607.09689</ele>
        <time>2022-04-06T08:55:17.899Z</time>
      </trkpt>
      <trkpt lat="42.273" lon="22.97018">
        <ele>607.516614</ele>
        <time>2022-04-06T08:55:22.911Z</time>
      </trkpt>
      <trkpt lat="42.27298" lon="22.97005">
        <ele>607.955</ele>
        <time>2022-04-06T08:55:27.908Z</time>
      </trkpt>
      <trkpt lat="42.27298" lon="22.96992">
        <ele>608.390632</ele>
        <time>2022-04-06T08:55:32.899Z</time>
      </trkpt>
      <trkpt lat="42.27296" lon="22.96979">
        <ele>608.83622</ele>
        <time>2022-04-06T08:55:37.896Z</time>
      </trkpt>
      <trkpt lat="42.27295" lon="22.96965">
        <ele>609.282839</ele>
        <time>2022-04-06T08:55:42.905Z</time>
      </trkpt>
      <trkpt lat="42.27293" lon="22.96953">
        <ele>609.687734</ele>
        <time>2022-04-06T08:55:47.928Z</time>
      </trkpt>
      <trkpt lat="42.27291" lon="22.96941">
        <ele>610.101115</ele>
        <time>2022-04-06T08:55:52.889Z</time>
      </trkpt>
      <trkpt lat="42.2729" lon="22.96929">
        <ele>610.506208</ele>
        <time>2022-04-06T08:55:57.914Z</time>
      </trkpt>
      <trkpt lat="42.27289" lon="22.96915">
        <ele>610.952828</ele>
        <time>2022-04-06T08:56:02.913Z</time>
      </trkpt>
      <trkpt lat="42.27289" lon="22.96902">
        <ele>611.381953</ele>
        <time>2022-04-06T08:56:07.896Z</time>
      </trkpt>
      <trkpt lat="42.27287" lon="22.9689">
        <ele>611.816834</ele>
        <time>2022-04-06T08:56:12.899Z</time>
      </trkpt>
      <trkpt lat="42.27286" lon="22.96876">
        <ele>612.26674</ele>
        <time>2022-04-06T08:56:17.888Z</time>
      </trkpt>
      <trkpt lat="42.27284" lon="22.96863">
        <ele>612.741466</ele>
        <time>2022-04-06T08:56:22.901Z</time>
      </trkpt>
      <trkpt lat="42.27282" lon="22.9685">
        <ele>613.174551</ele>
        <time>2022-04-06T08:56:27.920Z</time>
      </trkpt>
      <trkpt lat="42.2728" lon="22.96836">
        <ele>613.664474</ele>
        <time>2022-04-06T08:56:33.900Z</time>
      </trkpt>
      <trkpt lat="42.27279" lon="22.96824">
        <ele>614.085094</ele>
        <time>2022-04-06T08:56:38.909Z</time>
      </trkpt>
      <trkpt lat="42.27279" lon="22.96811">
        <ele>614.542741</ele>
        <time>2022-04-06T08:56:44.897Z</time>
      </trkpt>
      <trkpt lat="42.27277" lon="22.96797">
        <ele>615.014207</ele>
        <time>2022-04-06T08:56:50.903Z</time>
      </trkpt>
      <trkpt lat="42.27275" lon="22.96783">
        <ele>615.491645</ele>
        <time>2022-04-06T08:56:56.899Z</time>
      </trkpt>
      <trkpt lat="42.27273" lon="22.96769">
        <ele>615.981029</ele>
        <time>2022-04-06T08:57:02.895Z</time>
      </trkpt>
      <trkpt lat="42.2727" lon="22.96756">
        <ele>616.449623</ele>
        <time>2022-04-06T08:57:08.900Z</time>
      </trkpt>
      <trkpt lat="42.27266" lon="22.96744">
        <ele>616.88649</ele>
        <time>2022-04-06T08:57:14.911Z</time>
      </trkpt>
      <trkpt lat="42.27263" lon="22.96731">
        <ele>617.342605</ele>
        <time>2022-04-06T08:57:20.923Z</time>
      </trkpt>
      <trkpt lat="42.2726" lon="22.9672">
        <ele>617.765209</ele>
        <time>2022-04-06T08:57:26.891Z</time>
      </trkpt>
      <trkpt lat="42.27256" lon="22.96707">
        <ele>618.226092</ele>
        <time>2022-04-06T08:57:33.895Z</time>
      </trkpt>
      <trkpt lat="42.27252" lon="22.96697">
        <ele>618.643827</ele>
        <time>2022-04-06T08:57:39.902Z</time>
      </trkpt>
      <trkpt lat="42.27247" lon="22.96685">
        <ele>619.123109</ele>
        <time>2022-04-06T08:57:45.939Z</time>
      </trkpt>
      <trkpt lat="42.27241" lon="22.96674">
        <ele>619.570511</ele>
        <time>2022-04-06T08:57:50.906Z</time>
      </trkpt>
      <trkpt lat="42.27235" lon="22.96662">
        <ele>620.06217</ele>
        <time>2022-04-06T08:57:56.922Z</time>
      </trkpt>
      <trkpt lat="42.27228" lon="22.96652">
        <ele>620.559477</ele>
        <time>2022-04-06T08:58:02.897Z</time>
      </trkpt>
      <trkpt lat="42.27223" lon="22.96642">
        <ele>621.013546</ele>
        <time>2022-04-06T08:58:08.893Z</time>
      </trkpt>
      <trkpt lat="42.27216" lon="22.96631">
        <ele>621.524615</ele>
        <time>2022-04-06T08:58:14.916Z</time>
      </trkpt>
      <trkpt lat="42.2721" lon="22.96622">
        <ele>622.001079</ele>
        <time>2022-04-06T08:58:20.887Z</time>
      </trkpt>
      <trkpt lat="42.27203" lon="22.96613">
        <ele>622.453388</ele>
        <time>2022-04-06T08:58:25.914Z</time>
      </trkpt>
      <trkpt lat="42.27198" lon="22.96603">
        <ele>622.943042</ele>
        <time>2022-04-06T08:58:31.912Z</time>
      </trkpt>
      <trkpt lat="42.2719" lon="22.96595">
        <ele>623.411936</ele>
        <time>2022-04-06T08:58:37.912Z</time>
      </trkpt>
      <trkpt lat="42.27184" lon="22.96584">
        <ele>623.902101</ele>
        <time>2022-04-06T08:58:43.913Z</time>
      </trkpt>
      <trkpt lat="42.27177" lon="22.96577">
        <ele>624.359184</ele>
        <time>2022-04-06T08:58:49.889Z</time>
      </trkpt>
      <trkpt lat="42.27169" lon="22.96569">
        <ele>624.827387</ele>
        <time>2022-04-06T08:58:55.895Z</time>
      </trkpt>
      <trkpt lat="42.27162" lon="22.96562">
        <ele>625.287124</ele>
        <time>2022-04-06T08:59:01.911Z</time>
      </trkpt>
      <trkpt lat="42.27155" lon="22.96552">
        <ele>625.78788</ele>
        <time>2022-04-06T08:59:08.959Z</time>
      </trkpt>
      <trkpt lat="42.27148" lon="22.96544">
        <ele>626.261414</ele>
        <time>2022-04-06T08:59:15.894Z</time>
      </trkpt>
      <trkpt lat="42.2714" lon="22.96536">
        <ele>626.729096</ele>
        <time>2022-04-06T08:59:21.905Z</time>
      </trkpt>
      <trkpt lat="42.27135" lon="22.96526">
        <ele>627.189102</ele>
        <time>2022-04-06T08:59:26.901Z</time>
      </trkpt>
      <trkpt lat="42.27129" lon="22.96515">
        <ele>627.69362</ele>
        <time>2022-04-06T08:59:32.903Z</time>
      </trkpt>
      <trkpt lat="42.27122" lon="22.96506">
        <ele>628.188904</ele>
        <time>2022-04-06T08:59:38.906Z</time>
      </trkpt>
      <trkpt lat="42.27116" lon="22.96496">
        <ele>628.659309</ele>
        <time>2022-04-06T08:59:43.883Z</time>
      </trkpt>
      <trkpt lat="42.27108" lon="22.96486">
        <ele>629.191682</ele>
        <time>2022-04-06T08:59:49.908Z</time>
      </trkpt>
      <trkpt lat="42.27101" lon="22.96478">
        <ele>629.711436</ele>
        <time>2022-04-06T08:59:55.883Z</time>
      </trkpt>
      <trkpt lat="42.27093" lon="22.96472">
        <ele>630.246117</ele>
        <time>2022-04-06T09:00:00.916Z</time>
      </trkpt>
      <trkpt lat="42.27085" lon="22.96464">
        <ele>630.761942</ele>
        <time>2022-04-06T09:00:05.932Z</time>
      </trkpt>
      <trkpt lat="42.27077" lon="22.96456">
        <ele>631.325721</ele>
        <time>2022-04-06T09:00:11.936Z</time>
      </trkpt>
      <trkpt lat="42.27069" lon="22.96446">
        <ele>631.907951</ele>
        <time>2022-04-06T09:00:18.908Z</time>
      </trkpt>
      <trkpt lat="42.27063" lon="22.96436">
        <ele>632.434597</ele>
        <time>2022-04-06T09:00:26.898Z</time>
      </trkpt>
      <trkpt lat="42.27057" lon="22.96426">
        <ele>632.974275</ele>
        <time>2022-04-06T09:00:33.902Z</time>
      </trkpt>
      <trkpt lat="42.2705" lon="22.96416">
        <ele>633.561062</ele>
        <time>2022-04-06T09:00:40.914Z</time>
      </trkpt>
      <trkpt lat="42.27046" lon="22.96403">
        <ele>634.125345</ele>
        <time>2022-04-06T09:00:47.883Z</time>
      </trkpt>
      <trkpt lat="42.27041" lon="22.96392">
        <ele>634.640608</ele>
        <time>2022-04-06T09:00:53.892Z</time>
      </trkpt>
      <trkpt lat="42.27037" lon="22.96381">
        <ele>635.144387</ele>
        <time>2022-04-06T09:00:59.898Z</time>
      </trkpt>
      <trkpt lat="42.27033" lon="22.96369">
        <ele>635.704439</ele>
        <time>2022-04-06T09:01:05.903Z</time>
      </trkpt>
      <trkpt lat="42.27028" lon="22.96357">
        <ele>636.251519</ele>
        <time>2022-04-06T09:01:11.898Z</time>
      </trkpt>
      <trkpt lat="42.27024" lon="22.96346">
        <ele>636.762959</ele>
        <time>2022-04-06T09:01:17.908Z</time>
      </trkpt>
      <trkpt lat="42.2702" lon="22.96334">
        <ele>637.301384</ele>
        <time>2022-04-06T09:01:23.906Z</time>
      </trkpt>
      <trkpt lat="42.27018" lon="22.96321">
        <ele>637.840849</ele>
        <time>2022-04-06T09:01:30.886Z</time>
      </trkpt>
      <trkpt lat="42.27015" lon="22.96308">
        <ele>638.397214</ele>
        <time>2022-04-06T09:01:37.893Z</time>
      </trkpt>
      <trkpt lat="42.27013" lon="22.96297">
        <ele>638.900487</ele>
        <time>2022-04-06T09:01:43.910Z</time>
      </trkpt>
      <trkpt lat="42.27011" lon="22.96285">
        <ele>639.787986</ele>
        <time>2022-04-06T09:01:49.898Z</time>
      </trkpt>
      <trkpt lat="42.27009" lon="22.96273">
        <ele>640.839959</ele>
        <time>2022-04-06T09:01:55.898Z</time>
      </trkpt>
      <trkpt lat="42.27008" lon="22.9626">
        <ele>641.961594</ele>
        <time>2022-04-06T09:02:02.907Z</time>
      </trkpt>
      <trkpt lat="42.27006" lon="22.96247">
        <ele>643.139574</ele>
        <time>2022-04-06T09:02:09.902Z</time>
      </trkpt>
      <trkpt lat="42.27006" lon="22.96234">
        <ele>644.223203</ele>
        <time>2022-04-06T09:02:16.900Z</time>
      </trkpt>
      <trkpt lat="42.27004" lon="22.96221">
        <ele>645.327166</ele>
        <time>2022-04-06T09:02:24.909Z</time>
      </trkpt>
      <trkpt lat="42.27004" lon="22.96209">
        <ele>646.436776</ele>
        <time>2022-04-06T09:02:33.903Z</time>
      </trkpt>
      <trkpt lat="42.27007" lon="22.96197">
        <ele>647.509654</ele>
        <time>2022-04-06T09:02:42.919Z</time>
      </trkpt>
      <trkpt lat="42.2701" lon="22.96184">
        <ele>648.667741</ele>
        <time>2022-04-06T09:02:50.903Z</time>
      </trkpt>
      <trkpt lat="42.27013" lon="22.96171">
        <ele>649.848317</ele>
        <time>2022-04-06T09:02:58.898Z</time>
      </trkpt>
      <trkpt lat="42.27016" lon="22.96159">
        <ele>650.929385</ele>
        <time>2022-04-06T09:03:06.906Z</time>
      </trkpt>
      <trkpt lat="42.27021" lon="22.96148">
        <ele>652.085063</ele>
        <time>2022-04-06T09:03:14.919Z</time>
      </trkpt>
      <trkpt lat="42.27024" lon="22.96135">
        <ele>653.220103</ele>
        <time>2022-04-06T09:03:23.896Z</time>
      </trkpt>
      <trkpt lat="42.27028" lon="22.96124">
        <ele>654.300296</ele>
        <time>2022-04-06T09:03:30.911Z</time>
      </trkpt>
      <trkpt lat="42.27032" lon="22.96112">
        <ele>655.492907</ele>
        <time>2022-04-06T09:03:38.907Z</time>
      </trkpt>
      <trkpt lat="42.27035" lon="22.96099">
        <ele>656.604536</ele>
        <time>2022-04-06T09:03:46.900Z</time>
      </trkpt>
      <trkpt lat="42.27038" lon="22.96088">
        <ele>657.68644</ele>
        <time>2022-04-06T09:03:53.911Z</time>
      </trkpt>
      <trkpt lat="42.27038" lon="22.96074">
        <ele>658.84771</ele>
        <time>2022-04-06T09:03:59.917Z</time>
      </trkpt>
      <trkpt lat="42.27039" lon="22.9606">
        <ele>660.070293</ele>
        <time>2022-04-06T09:04:06.898Z</time>
      </trkpt>
      <trkpt lat="42.27037" lon="22.96047">
        <ele>660.407324</ele>
        <time>2022-04-06T09:04:12.899Z</time>
      </trkpt>
      <trkpt lat="42.27035" lon="22.96035">
        <ele>660.697125</ele>
        <time>2022-04-06T09:04:18.909Z</time>
      </trkpt>
      <trkpt lat="42.27031" lon="22.96023">
        <ele>661.01606</ele>
        <time>2022-04-06T09:04:25.890Z</time>
      </trkpt>
      <trkpt lat="42.27024" lon="22.96012">
        <ele>661.337118</ele>
        <time>2022-04-06T09:04:32.911Z</time>
      </trkpt>
      <trkpt lat="42.27019" lon="22.96002">
        <ele>661.629178</ele>
        <time>2022-04-06T09:04:39.922Z</time>
      </trkpt>
      <trkpt lat="42.27013" lon="22.95991">
        <ele>661.934327</ele>
        <time>2022-04-06T09:04:46.900Z</time>
      </trkpt>
      <trkpt lat="42.2701" lon="22.95977">
        <ele>662.264461</ele>
        <time>2022-04-06T09:04:53.937Z</time>
      </trkpt>
      <trkpt lat="42.27007" lon="22.95964">
        <ele>662.575615</ele>
        <time>2022-04-06T09:04:59.900Z</time>
      </trkpt>
      <trkpt lat="42.27004" lon="22.9595">
        <ele>662.902029</ele>
        <time>2022-04-06T09:05:05.936Z</time>
      </trkpt>
      <trkpt lat="42.26998" lon="22.95939">
        <ele>663.22489</ele>
        <time>2022-04-06T09:05:11.903Z</time>
      </trkpt>
      <trkpt lat="42.26991" lon="22.95928">
        <ele>663.556236</ele>
        <time>2022-04-06T09:05:17.880Z</time>
      </trkpt>
      <trkpt lat="42.26985" lon="22.95919">
        <ele>663.854142</ele>
        <time>2022-04-06T09:05:23.895Z</time>
      </trkpt>
      <trkpt lat="42.26978" lon="22.9591">
        <ele>664.1411</ele>
        <time>2022-04-06T09:05:28.897Z</time>
      </trkpt>
      <trkpt lat="42.2697" lon="22.95901">
        <ele>664.475056</ele>
        <time>2022-04-06T09:05:34.887Z</time>
      </trkpt>
      <trkpt lat="42.26961" lon="22.95895">
        <ele>664.76699</ele>
        <time>2022-04-06T09:05:40.914Z</time>
      </trkpt>
      <trkpt lat="42.26952" lon="22.9589">
        <ele>665.08548</ele>
        <time>2022-04-06T09:05:46.905Z</time>
      </trkpt>
      <trkpt lat="42.26943" lon="22.95887">
        <ele>665.387336</ele>
        <time>2022-04-06T09:05:52.920Z</time>
      </trkpt>
      <trkpt lat="42.26933" lon="22.95886">
        <ele>665.679447</ele>
        <time>2022-04-06T09:05:58.915Z</time>
      </trkpt>
      <trkpt lat="42.26924" lon="22.95888">
        <ele>666.245011</ele>
        <time>2022-04-06T09:06:06.907Z</time>
      </trkpt>
      <trkpt lat="42.26914" lon="22.95888">
        <ele>666.870982</ele>
        <time>2022-04-06T09:06:12.911Z</time>
      </trkpt>
      <trkpt lat="42.26904" lon="22.95888">
        <ele>667.509724</ele>
        <time>2022-04-06T09:06:18.910Z</time>
      </trkpt>
      <trkpt lat="42.26894" lon="22.95886">
        <ele>668.157581</ele>
        <time>2022-04-06T09:06:24.900Z</time>
      </trkpt>
      <trkpt lat="42.26885" lon="22.95883">
        <ele>668.751621</ele>
        <time>2022-04-06T09:06:30.902Z</time>
      </trkpt>
      <trkpt lat="42.26875" lon="22.95881">
        <ele>669.388413</ele>
        <time>2022-04-06T09:06:36.910Z</time>
      </trkpt>
      <trkpt lat="42.26866" lon="22.95878">
        <ele>669.982781</ele>
        <time>2022-04-06T09:06:42.948Z</time>
      </trkpt>
      <trkpt lat="42.26856" lon="22.95875">
        <ele>670.646427</ele>
        <time>2022-04-06T09:06:49.899Z</time>
      </trkpt>
      <trkpt lat="42.26847" lon="22.9587">
        <ele>671.28517</ele>
        <time>2022-04-06T09:06:57.882Z</time>
      </trkpt>
      <trkpt lat="42.26838" lon="22.95864">
        <ele>671.873315</ele>
        <time>2022-04-06T09:07:04.946Z</time>
      </trkpt>
      <trkpt lat="42.2683" lon="22.95858">
        <ele>672.46468</ele>
        <time>2022-04-06T09:07:11.890Z</time>
      </trkpt>
      <trkpt lat="42.26823" lon="22.9585">
        <ele>673.090811</ele>
        <time>2022-04-06T09:07:17.892Z</time>
      </trkpt>
      <trkpt lat="42.26817" lon="22.9584">
        <ele>673.684241</ele>
        <time>2022-04-06T09:07:24.902Z</time>
      </trkpt>
      <trkpt lat="42.26809" lon="22.95832">
        <ele>674.322686</ele>
        <time>2022-04-06T09:07:32.927Z</time>
      </trkpt>
      <trkpt lat="42.26801" lon="22.95825">
        <ele>674.941895</ele>
        <time>2022-04-06T09:07:40.907Z</time>
      </trkpt>
      <trkpt lat="42.26794" lon="22.95817">
        <ele>675.521353</ele>
        <time>2022-04-06T09:07:48.895Z</time>
      </trkpt>
      <trkpt lat="42.26787" lon="22.95808">
        <ele>676.126948</ele>
        <time>2022-04-06T09:07:57.912Z</time>
      </trkpt>
      <trkpt lat="42.26781" lon="22.95797">
        <ele>676.753935</ele>
        <time>2022-04-06T09:08:05.903Z</time>
      </trkpt>
      <trkpt lat="42.26775" lon="22.95789">
        <ele>677.354857</ele>
        <time>2022-04-06T09:08:12.933Z</time>
      </trkpt>
      <trkpt lat="42.2677" lon="22.95778">
        <ele>678.098377</ele>
        <time>2022-04-06T09:08:21.905Z</time>
      </trkpt>
      <trkpt lat="42.26763" lon="22.95768">
        <ele>678.837653</ele>
        <time>2022-04-06T09:08:30.907Z</time>
      </trkpt>
      <trkpt lat="42.2676" lon="22.95749">
        <ele>679.947648</ele>
        <time>2022-04-06T09:10:52.917Z</time>
      </trkpt>
      <trkpt lat="42.26753" lon="22.95739">
        <ele>680.694054</ele>
        <time>2022-04-06T09:11:00.887Z</time>
      </trkpt>
      <trkpt lat="42.26749" lon="22.95728">
        <ele>681.425927</ele>
        <time>2022-04-06T09:11:07.902Z</time>
      </trkpt>
      <trkpt lat="42.26744" lon="22.95716">
        <ele>682.189995</ele>
        <time>2022-04-06T09:11:14.917Z</time>
      </trkpt>
      <trkpt lat="42.26739" lon="22.95706">
        <ele>682.895975</ele>
        <time>2022-04-06T09:11:21.912Z</time>
      </trkpt>
      <trkpt lat="42.26734" lon="22.95694">
        <ele>683.653795</ele>
        <time>2022-04-06T09:11:29.900Z</time>
      </trkpt>
      <trkpt lat="42.26728" lon="22.95683">
        <ele>684.440533</ele>
        <time>2022-04-06T09:11:38.020Z</time>
      </trkpt>
      <trkpt lat="42.26723" lon="22.95672">
        <ele>685.178847</ele>
        <time>2022-04-06T09:11:44.949Z</time>
      </trkpt>
      <trkpt lat="42.26717" lon="22.95661">
        <ele>685.9074</ele>
        <time>2022-04-06T09:11:52.898Z</time>
      </trkpt>
      <trkpt lat="42.26713" lon="22.95651">
        <ele>686.617108</ele>
        <time>2022-04-06T09:12:00.882Z</time>
      </trkpt>
      <trkpt lat="42.26708" lon="22.9564">
        <ele>687.340461</ele>
        <time>2022-04-06T09:12:07.873Z</time>
      </trkpt>
      <trkpt lat="42.26704" lon="22.95627">
        <ele>688.094978</ele>
        <time>2022-04-06T09:12:15.876Z</time>
      </trkpt>
      <trkpt lat="42.26702" lon="22.95614">
        <ele>688.875935</ele>
        <time>2022-04-06T09:12:22.893Z</time>
      </trkpt>
      <trkpt lat="42.26699" lon="22.95601">
        <ele>689.612925</ele>
        <time>2022-04-06T09:12:28.890Z</time>
      </trkpt>
      <trkpt lat="42.26698" lon="22.95589">
        <ele>690.306656</ele>
        <time>2022-04-06T09:12:35.883Z</time>
      </trkpt>
      <trkpt lat="42.26699" lon="22.95576">
        <ele>691.012086</ele>
        <time>2022-04-06T09:12:43.876Z</time>
      </trkpt>
      <trkpt lat="42.26704" lon="22.95565">
        <ele>691.475834</ele>
        <time>2022-04-06T09:12:51.874Z</time>
      </trkpt>
      <trkpt lat="42.26708" lon="22.95553">
        <ele>691.946009</ele>
        <time>2022-04-06T09:12:58.885Z</time>
      </trkpt>
      <trkpt lat="42.26714" lon="22.95543">
        <ele>692.399318</ele>
        <time>2022-04-06T09:13:06.871Z</time>
      </trkpt>
      <trkpt lat="42.26719" lon="22.95532">
        <ele>692.85583</ele>
        <time>2022-04-06T09:13:14.874Z</time>
      </trkpt>
      <trkpt lat="42.26725" lon="22.95523">
        <ele>693.298393</ele>
        <time>2022-04-06T09:13:24.878Z</time>
      </trkpt>
      <trkpt lat="42.26731" lon="22.95514">
        <ele>693.741577</ele>
        <time>2022-04-06T09:13:33.868Z</time>
      </trkpt>
      <trkpt lat="42.26739" lon="22.95506">
        <ele>694.180295</ele>
        <time>2022-04-06T09:13:41.877Z</time>
      </trkpt>
      <trkpt lat="42.26746" lon="22.95498">
        <ele>694.652014</ele>
        <time>2022-04-06T09:13:49.883Z</time>
      </trkpt>
      <trkpt lat="42.26754" lon="22.9549">
        <ele>695.107642</ele>
        <time>2022-04-06T09:13:57.877Z</time>
      </trkpt>
      <trkpt lat="42.26761" lon="22.95481">
        <ele>695.596984</ele>
        <time>2022-04-06T09:14:05.874Z</time>
      </trkpt>
      <trkpt lat="42.26767" lon="22.95471">
        <ele>696.053662</ele>
        <time>2022-04-06T09:14:13.872Z</time>
      </trkpt>
      <trkpt lat="42.26774" lon="22.95462">
        <ele>696.501366</ele>
        <time>2022-04-06T09:14:21.878Z</time>
      </trkpt>
      <trkpt lat="42.2678" lon="22.95452">
        <ele>696.951666</ele>
        <time>2022-04-06T09:14:29.890Z</time>
      </trkpt>
      <trkpt lat="42.26784" lon="22.9544">
        <ele>697.433567</ele>
        <time>2022-04-06T09:14:37.912Z</time>
      </trkpt>
      <trkpt lat="42.26788" lon="22.95428">
        <ele>697.916989</ele>
        <time>2022-04-06T09:14:45.883Z</time>
      </trkpt>
      <trkpt lat="42.2679" lon="22.95415">
        <ele>698.390343</ele>
        <time>2022-04-06T09:14:55.879Z</time>
      </trkpt>
      <trkpt lat="42.26794" lon="22.95403">
        <ele>698.855245</ele>
        <time>2022-04-06T09:15:02.873Z</time>
      </trkpt>
      <trkpt lat="42.26794" lon="22.95389">
        <ele>699.347754</ele>
        <time>2022-04-06T09:15:10.873Z</time>
      </trkpt>
      <trkpt lat="42.26796" lon="22.95375">
        <ele>699.755706</ele>
        <time>2022-04-06T09:15:18.892Z</time>
      </trkpt>
      <trkpt lat="42.26797" lon="22.95361">
        <ele>700.039504</ele>
        <time>2022-04-06T09:15:25.884Z</time>
      </trkpt>
      <trkpt lat="42.26795" lon="22.95348">
        <ele>700.312841</ele>
        <time>2022-04-06T09:15:32.877Z</time>
      </trkpt>
      <trkpt lat="42.26797" lon="22.95334">
        <ele>700.589806</ele>
        <time>2022-04-06T09:15:40.869Z</time>
      </trkpt>
      <trkpt lat="42.26798" lon="22.95322">
        <ele>700.849855</ele>
        <time>2022-04-06T09:15:48.916Z</time>
      </trkpt>
      <trkpt lat="42.26798" lon="22.95308">
        <ele>701.124931</ele>
        <time>2022-04-06T09:15:55.876Z</time>
      </trkpt>
      <trkpt lat="42.26799" lon="22.95296">
        <ele>701.379052</ele>
        <time>2022-04-06T09:16:02.876Z</time>
      </trkpt>
      <trkpt lat="42.26802" lon="22.95284">
        <ele>701.635463</ele>
        <time>2022-04-06T09:16:09.884Z</time>
      </trkpt>
      <trkpt lat="42.26803" lon="22.9527">
        <ele>701.913892</ele>
        <time>2022-04-06T09:16:16.876Z</time>
      </trkpt>
      <trkpt lat="42.26804" lon="22.95257">
        <ele>702.175155</ele>
        <time>2022-04-06T09:16:24.906Z</time>
      </trkpt>
      <trkpt lat="42.26806" lon="22.95244">
        <ele>702.449116</ele>
        <time>2022-04-06T09:16:32.876Z</time>
      </trkpt>
      <trkpt lat="42.26806" lon="22.9523">
        <ele>702.722648</ele>
        <time>2022-04-06T09:16:39.880Z</time>
      </trkpt>
      <trkpt lat="42.26807" lon="22.95218">
        <ele>702.976656</ele>
        <time>2022-04-06T09:16:46.926Z</time>
      </trkpt>
      <trkpt lat="42.26807" lon="22.95205">
        <ele>703.229485</ele>
        <time>2022-04-06T09:16:53.883Z</time>
      </trkpt>
      <trkpt lat="42.26808" lon="22.95192">
        <ele>703.493107</ele>
        <time>2022-04-06T09:17:01.880Z</time>
      </trkpt>
      <trkpt lat="42.26809" lon="22.9518">
        <ele>703.742836</ele>
        <time>2022-04-06T09:17:07.877Z</time>
      </trkpt>
      <trkpt lat="42.2681" lon="22.95167">
        <ele>703.99944</ele>
        <time>2022-04-06T09:17:13.874Z</time>
      </trkpt>
      <trkpt lat="42.26809" lon="22.95154">
        <ele>704.270109</ele>
        <time>2022-04-06T09:17:20.908Z</time>
      </trkpt>
      <trkpt lat="42.26808" lon="22.9514">
        <ele>704.557164</ele>
        <time>2022-04-06T09:17:27.877Z</time>
      </trkpt>
      <trkpt lat="42.26807" lon="22.95127">
        <ele>704.799567</ele>
        <time>2022-04-06T09:17:32.869Z</time>
      </trkpt>
      <trkpt lat="42.26805" lon="22.95115">
        <ele>705.037609</ele>
        <time>2022-04-06T09:17:37.909Z</time>
      </trkpt>
      <trkpt lat="42.26803" lon="22.95103">
        <ele>705.272959</ele>
        <time>2022-04-06T09:17:42.879Z</time>
      </trkpt>
      <trkpt lat="42.26799" lon="22.9509">
        <ele>705.549853</ele>
        <time>2022-04-06T09:17:47.892Z</time>
      </trkpt>
      <trkpt lat="42.26794" lon="22.95079">
        <ele>705.800084</ele>
        <time>2022-04-06T09:17:51.878Z</time>
      </trkpt>
      <trkpt lat="42.26789" lon="22.95067">
        <ele>706.070098</ele>
        <time>2022-04-06T09:17:55.878Z</time>
      </trkpt>
      <trkpt lat="42.26783" lon="22.95054">
        <ele>706.361445</ele>
        <time>2022-04-06T09:17:59.874Z</time>
      </trkpt>
      <trkpt lat="42.26781" lon="22.95042">
        <ele>706.600032</ele>
        <time>2022-04-06T09:18:02.877Z</time>
      </trkpt>
      <trkpt lat="42.26776" lon="22.95029">
        <ele>706.867648</ele>
        <time>2022-04-06T09:18:05.874Z</time>
      </trkpt>
      <trkpt lat="42.26771" lon="22.95016">
        <ele>707.145104</ele>
        <time>2022-04-06T09:18:08.876Z</time>
      </trkpt>
      <trkpt lat="42.26767" lon="22.94999">
        <ele>707.500547</ele>
        <time>2022-04-06T09:18:11.875Z</time>
      </trkpt>
      <trkpt lat="42.26763" lon="22.94986">
        <ele>707.775501</ele>
        <time>2022-04-06T09:18:13.878Z</time>
      </trkpt>
      <trkpt lat="42.2676" lon="22.94972">
        <ele>708.059691</ele>
        <time>2022-04-06T09:18:15.880Z</time>
      </trkpt>
      <trkpt lat="42.26756" lon="22.94958">
        <ele>708.337407</ele>
        <time>2022-04-06T09:18:17.872Z</time>
      </trkpt>
      <trkpt lat="42.26753" lon="22.94944">
        <ele>708.622955</ele>
        <time>2022-04-06T09:18:19.896Z</time>
      </trkpt>
      <trkpt lat="42.2675" lon="22.9493">
        <ele>708.911487</ele>
        <time>2022-04-06T09:18:21.887Z</time>
      </trkpt>
      <trkpt lat="42.26747" lon="22.94915">
        <ele>709.198652</ele>
        <time>2022-04-06T09:18:23.891Z</time>
      </trkpt>
      <trkpt lat="42.26745" lon="22.94901">
        <ele>709.083571</ele>
        <time>2022-04-06T09:18:25.880Z</time>
      </trkpt>
      <trkpt lat="42.26742" lon="22.94889">
        <ele>708.886466</ele>
        <time>2022-04-06T09:18:27.876Z</time>
      </trkpt>
      <trkpt lat="42.26739" lon="22.94876">
        <ele>708.681871</ele>
        <time>2022-04-06T09:18:29.880Z</time>
      </trkpt>
      <trkpt lat="42.26737" lon="22.94862">
        <ele>708.46291</ele>
        <time>2022-04-06T09:18:31.898Z</time>
      </trkpt>
      <trkpt lat="42.26734" lon="22.94846">
        <ele>708.223612</ele>
        <time>2022-04-06T09:18:33.881Z</time>
      </trkpt>
      <trkpt lat="42.26733" lon="22.9483">
        <ele>707.972286</ele>
        <time>2022-04-06T09:18:35.873Z</time>
      </trkpt>
      <trkpt lat="42.26734" lon="22.94812">
        <ele>707.711476</ele>
        <time>2022-04-06T09:18:37.876Z</time>
      </trkpt>
      <trkpt lat="42.26735" lon="22.94794">
        <ele>707.441525</ele>
        <time>2022-04-06T09:18:39.907Z</time>
      </trkpt>
      <trkpt lat="42.26739" lon="22.94776">
        <ele>707.155667</ele>
        <time>2022-04-06T09:18:41.887Z</time>
      </trkpt>
      <trkpt lat="42.26744" lon="22.94758">
        <ele>706.863754</ele>
        <time>2022-04-06T09:18:43.876Z</time>
      </trkpt>
      <trkpt lat="42.2675" lon="22.94742">
        <ele>706.583043</ele>
        <time>2022-04-06T09:18:45.907Z</time>
      </trkpt>
      <trkpt lat="42.26758" lon="22.94726">
        <ele>706.304324</ele>
        <time>2022-04-06T09:18:47.883Z</time>
      </trkpt>
      <trkpt lat="42.26767" lon="22.94713">
        <ele>706.033008</ele>
        <time>2022-04-06T09:18:49.876Z</time>
      </trkpt>
      <trkpt lat="42.26776" lon="22.94701">
        <ele>705.775938</ele>
        <time>2022-04-06T09:18:51.874Z</time>
      </trkpt>
      <trkpt lat="42.26785" lon="22.9469">
        <ele>705.406314</ele>
        <time>2022-04-06T09:18:53.884Z</time>
      </trkpt>
      <trkpt lat="42.26796" lon="22.94681">
        <ele>704.667922</ele>
        <time>2022-04-06T09:18:55.873Z</time>
      </trkpt>
      <trkpt lat="42.26805" lon="22.94672">
        <ele>704.000012</ele>
        <time>2022-04-06T09:18:57.890Z</time>
      </trkpt>
      <trkpt lat="42.26814" lon="22.94663">
        <ele>703.344176</ele>
        <time>2022-04-06T09:18:59.875Z</time>
      </trkpt>
      <trkpt lat="42.26822" lon="22.94653">
        <ele>702.686986</ele>
        <time>2022-04-06T09:19:01.881Z</time>
      </trkpt>
      <trkpt lat="42.26831" lon="22.94643">
        <ele>701.989938</ele>
        <time>2022-04-06T09:19:03.882Z</time>
      </trkpt>
      <trkpt lat="42.2684" lon="22.94632">
        <ele>701.282271</ele>
        <time>2022-04-06T09:19:05.878Z</time>
      </trkpt>
      <trkpt lat="42.26849" lon="22.9462">
        <ele>700.555511</ele>
        <time>2022-04-06T09:19:07.888Z</time>
      </trkpt>
      <trkpt lat="42.26857" lon="22.94606">
        <ele>699.78337</ele>
        <time>2022-04-06T09:19:09.875Z</time>
      </trkpt>
      <trkpt lat="42.26864" lon="22.94591">
        <ele>699.023354</ele>
        <time>2022-04-06T09:19:11.874Z</time>
      </trkpt>
      <trkpt lat="42.26869" lon="22.94575">
        <ele>698.244382</ele>
        <time>2022-04-06T09:19:13.883Z</time>
      </trkpt>
      <trkpt lat="42.26873" lon="22.94557">
        <ele>697.435554</ele>
        <time>2022-04-06T09:19:15.878Z</time>
      </trkpt>
      <trkpt lat="42.26875" lon="22.9454">
        <ele>696.677661</ele>
        <time>2022-04-06T09:19:17.880Z</time>
      </trkpt>
      <trkpt lat="42.26877" lon="22.94522">
        <ele>695.903644</ele>
        <time>2022-04-06T09:19:19.879Z</time>
      </trkpt>
      <trkpt lat="42.26879" lon="22.94503">
        <ele>695.033818</ele>
        <time>2022-04-06T09:19:21.895Z</time>
      </trkpt>
      <trkpt lat="42.26883" lon="22.9448">
        <ele>694.000349</ele>
        <time>2022-04-06T09:19:23.877Z</time>
      </trkpt>
      <trkpt lat="42.26887" lon="22.94459">
        <ele>693.033584</ele>
        <time>2022-04-06T09:19:25.874Z</time>
      </trkpt>
      <trkpt lat="42.26893" lon="22.94439">
        <ele>692.086091</ele>
        <time>2022-04-06T09:19:27.882Z</time>
      </trkpt>
      <trkpt lat="42.26901" lon="22.94422">
        <ele>691.167642</ele>
        <time>2022-04-06T09:19:29.885Z</time>
      </trkpt>
      <trkpt lat="42.26911" lon="22.94404">
        <ele>690.189214</ele>
        <time>2022-04-06T09:19:31.912Z</time>
      </trkpt>
      <trkpt lat="42.26922" lon="22.94388">
        <ele>689.190172</ele>
        <time>2022-04-06T09:19:33.876Z</time>
      </trkpt>
      <trkpt lat="42.26935" lon="22.94373">
        <ele>688.193433</ele>
        <time>2022-04-06T09:19:35.875Z</time>
      </trkpt>
      <trkpt lat="42.26949" lon="22.9436">
        <ele>687.132557</ele>
        <time>2022-04-06T09:19:37.902Z</time>
      </trkpt>
      <trkpt lat="42.26965" lon="22.9435">
        <ele>686.065017</ele>
        <time>2022-04-06T09:19:39.872Z</time>
      </trkpt>
      <trkpt lat="42.26974" lon="22.94346">
        <ele>685.505649</ele>
        <time>2022-04-06T09:19:40.880Z</time>
      </trkpt>
      <trkpt lat="42.26983" lon="22.94342">
        <ele>684.934846</ele>
        <time>2022-04-06T09:19:41.886Z</time>
      </trkpt>
      <trkpt lat="42.26993" lon="22.94338">
        <ele>684.341104</ele>
        <time>2022-04-06T09:19:42.886Z</time>
      </trkpt>
      <trkpt lat="42.27002" lon="22.94334">
        <ele>683.711236</ele>
        <time>2022-04-06T09:19:43.875Z</time>
      </trkpt>
      <trkpt lat="42.27012" lon="22.9433">
        <ele>683.055585</ele>
        <time>2022-04-06T09:19:44.882Z</time>
      </trkpt>
      <trkpt lat="42.27022" lon="22.94325">
        <ele>682.39086</ele>
        <time>2022-04-06T09:19:45.876Z</time>
      </trkpt>
      <trkpt lat="42.27031" lon="22.9432">
        <ele>681.727554</ele>
        <time>2022-04-06T09:19:46.876Z</time>
      </trkpt>
      <trkpt lat="42.27041" lon="22.94316">
        <ele>681.067403</ele>
        <time>2022-04-06T09:19:47.894Z</time>
      </trkpt>
      <trkpt lat="42.2705" lon="22.94312">
        <ele>680.420975</ele>
        <time>2022-04-06T09:19:48.896Z</time>
      </trkpt>
      <trkpt lat="42.2706" lon="22.94307">
        <ele>679.791179</ele>
        <time>2022-04-06T09:19:49.873Z</time>
      </trkpt>
      <trkpt lat="42.27069" lon="22.94303">
        <ele>679.149263</ele>
        <time>2022-04-06T09:19:50.885Z</time>
      </trkpt>
      <trkpt lat="42.27079" lon="22.94298">
        <ele>678.496742</ele>
        <time>2022-04-06T09:19:51.879Z</time>
      </trkpt>
      <trkpt lat="42.27088" lon="22.94294">
        <ele>677.85009</ele>
        <time>2022-04-06T09:19:52.881Z</time>
      </trkpt>
      <trkpt lat="42.27098" lon="22.94291">
        <ele>677.190165</ele>
        <time>2022-04-06T09:19:53.880Z</time>
      </trkpt>
      <trkpt lat="42.27108" lon="22.94287">
        <ele>676.536024</ele>
        <time>2022-04-06T09:19:54.903Z</time>
      </trkpt>
      <trkpt lat="42.27118" lon="22.94285">
        <ele>675.874201</ele>
        <time>2022-04-06T09:19:55.873Z</time>
      </trkpt>
      <trkpt lat="42.27129" lon="22.94283">
        <ele>675.19096</ele>
        <time>2022-04-06T09:19:56.887Z</time>
      </trkpt>
      <trkpt lat="42.27139" lon="22.94281">
        <ele>674.491605</ele>
        <time>2022-04-06T09:19:57.879Z</time>
      </trkpt>
      <trkpt lat="42.2715" lon="22.9428">
        <ele>673.787653</ele>
        <time>2022-04-06T09:19:58.878Z</time>
      </trkpt>
      <trkpt lat="42.27161" lon="22.94279">
        <ele>673.098092</ele>
        <time>2022-04-06T09:19:59.874Z</time>
      </trkpt>
      <trkpt lat="42.27172" lon="22.94279">
        <ele>672.400237</ele>
        <time>2022-04-06T09:20:00.904Z</time>
      </trkpt>
      <trkpt lat="42.27182" lon="22.94279">
        <ele>671.690266</ele>
        <time>2022-04-06T09:20:01.887Z</time>
      </trkpt>
      <trkpt lat="42.27192" lon="22.94278">
        <ele>670.980391</ele>
        <time>2022-04-06T09:20:02.876Z</time>
      </trkpt>
      <trkpt lat="42.27202" lon="22.94278">
        <ele>670.277673</ele>
        <time>2022-04-06T09:20:03.874Z</time>
      </trkpt>
      <trkpt lat="42.27211" lon="22.94278">
        <ele>669.574955</ele>
        <time>2022-04-06T09:20:04.882Z</time>
      </trkpt>
      <trkpt lat="42.27221" lon="22.94279">
        <ele>668.87155</ele>
        <time>2022-04-06T09:20:05.875Z</time>
      </trkpt>
      <trkpt lat="42.27231" lon="22.9428">
        <ele>668.161268</ele>
        <time>2022-04-06T09:20:06.900Z</time>
      </trkpt>
      <trkpt lat="42.27242" lon="22.9428">
        <ele>667.429706</ele>
        <time>2022-04-06T09:20:07.877Z</time>
      </trkpt>
      <trkpt lat="42.27252" lon="22.9428">
        <ele>666.712638</ele>
        <time>2022-04-06T09:20:08.880Z</time>
      </trkpt>
      <trkpt lat="42.27262" lon="22.94281">
        <ele>666.009763</ele>
        <time>2022-04-06T09:20:09.880Z</time>
      </trkpt>
      <trkpt lat="42.27271" lon="22.94281">
        <ele>665.363506</ele>
        <time>2022-04-06T09:20:10.878Z</time>
      </trkpt>
      <trkpt lat="42.2728" lon="22.94282">
        <ele>664.709965</ele>
        <time>2022-04-06T09:20:11.882Z</time>
      </trkpt>
      <trkpt lat="42.2729" lon="22.94281">
        <ele>664.02854</ele>
        <time>2022-04-06T09:20:12.895Z</time>
      </trkpt>
      <trkpt lat="42.27299" lon="22.94282">
        <ele>663.33292</ele>
        <time>2022-04-06T09:20:13.877Z</time>
      </trkpt>
      <trkpt lat="42.27309" lon="22.94282">
        <ele>662.672809</ele>
        <time>2022-04-06T09:20:14.873Z</time>
      </trkpt>
      <trkpt lat="42.27318" lon="22.94281">
        <ele>662.033906</ele>
        <time>2022-04-06T09:20:15.886Z</time>
      </trkpt>
      <trkpt lat="42.27327" lon="22.94281">
        <ele>661.38797</ele>
        <time>2022-04-06T09:20:16.871Z</time>
      </trkpt>
      <trkpt lat="42.27344" lon="22.94281">
        <ele>660.174206</ele>
        <time>2022-04-06T09:20:18.910Z</time>
      </trkpt>
      <trkpt lat="42.27361" lon="22.94281">
        <ele>658.583813</ele>
        <time>2022-04-06T09:20:20.883Z</time>
      </trkpt>
      <trkpt lat="42.2737" lon="22.9428">
        <ele>657.656046</ele>
        <time>2022-04-06T09:20:21.885Z</time>
      </trkpt>
      <trkpt lat="42.27381" lon="22.9428">
        <ele>656.564648</ele>
        <time>2022-04-06T09:20:22.877Z</time>
      </trkpt>
      <trkpt lat="42.27392" lon="22.94279">
        <ele>655.431518</ele>
        <time>2022-04-06T09:20:23.879Z</time>
      </trkpt>
      <trkpt lat="42.27403" lon="22.94278">
        <ele>654.34718</ele>
        <time>2022-04-06T09:20:24.909Z</time>
      </trkpt>
      <trkpt lat="42.27413" lon="22.94276">
        <ele>653.287474</ele>
        <time>2022-04-06T09:20:25.879Z</time>
      </trkpt>
      <trkpt lat="42.27423" lon="22.94273">
        <ele>652.246436</ele>
        <time>2022-04-06T09:20:26.874Z</time>
      </trkpt>
      <trkpt lat="42.27433" lon="22.9427">
        <ele>651.221022</ele>
        <time>2022-04-06T09:20:27.891Z</time>
      </trkpt>
      <trkpt lat="42.27442" lon="22.94265">
        <ele>650.168335</ele>
        <time>2022-04-06T09:20:28.873Z</time>
      </trkpt>
      <trkpt lat="42.27452" lon="22.9426">
        <ele>649.135776</ele>
        <time>2022-04-06T09:20:29.875Z</time>
      </trkpt>
      <trkpt lat="42.27461" lon="22.94254">
        <ele>648.091152</ele>
        <time>2022-04-06T09:20:30.903Z</time>
      </trkpt>
      <trkpt lat="42.2747" lon="22.94247">
        <ele>647.052639</ele>
        <time>2022-04-06T09:20:31.875Z</time>
      </trkpt>
      <trkpt lat="42.27478" lon="22.9424">
        <ele>646.039022</ele>
        <time>2022-04-06T09:20:32.874Z</time>
      </trkpt>
      <trkpt lat="42.27486" lon="22.94232">
        <ele>645.039691</ele>
        <time>2022-04-06T09:20:33.875Z</time>
      </trkpt>
      <trkpt lat="42.27493" lon="22.94223">
        <ele>644.072573</ele>
        <time>2022-04-06T09:20:34.872Z</time>
      </trkpt>
      <trkpt lat="42.27499" lon="22.94214">
        <ele>643.120179</ele>
        <time>2022-04-06T09:20:35.883Z</time>
      </trkpt>
      <trkpt lat="42.27506" lon="22.94205">
        <ele>642.20365</ele>
        <time>2022-04-06T09:20:36.868Z</time>
      </trkpt>
      <trkpt lat="42.27517" lon="22.94186">
        <ele>640.706648</ele>
        <time>2022-04-06T09:20:38.875Z</time>
      </trkpt>
      <trkpt lat="42.27522" lon="22.94176">
        <ele>640.055392</ele>
        <time>2022-04-06T09:20:39.874Z</time>
      </trkpt>
      <trkpt lat="42.27527" lon="22.94166">
        <ele>639.39825</ele>
        <time>2022-04-06T09:20:40.874Z</time>
      </trkpt>
      <trkpt lat="42.27531" lon="22.94154">
        <ele>638.731532</ele>
        <time>2022-04-06T09:20:41.880Z</time>
      </trkpt>
      <trkpt lat="42.27535" lon="22.94142">
        <ele>638.018796</ele>
        <time>2022-04-06T09:20:42.868Z</time>
      </trkpt>
      <trkpt lat="42.27538" lon="22.94128">
        <ele>637.278478</ele>
        <time>2022-04-06T09:20:43.891Z</time>
      </trkpt>
      <trkpt lat="42.27541" lon="22.94114">
        <ele>636.510907</ele>
        <time>2022-04-06T09:20:44.872Z</time>
      </trkpt>
      <trkpt lat="42.27544" lon="22.941">
        <ele>635.72477</ele>
        <time>2022-04-06T09:20:45.877Z</time>
      </trkpt>
      <trkpt lat="42.27546" lon="22.94085">
        <ele>634.913113</ele>
        <time>2022-04-06T09:20:46.876Z</time>
      </trkpt>
      <trkpt lat="42.27549" lon="22.9407">
        <ele>634.086</ele>
        <time>2022-04-06T09:20:47.885Z</time>
      </trkpt>
      <trkpt lat="42.27552" lon="22.94054">
        <ele>633.236735</ele>
        <time>2022-04-06T09:20:48.868Z</time>
      </trkpt>
      <trkpt lat="42.27556" lon="22.94038">
        <ele>632.351874</ele>
        <time>2022-04-06T09:20:49.886Z</time>
      </trkpt>
      <trkpt lat="42.27559" lon="22.94021">
        <ele>631.454463</ele>
        <time>2022-04-06T09:20:50.873Z</time>
      </trkpt>
      <trkpt lat="42.27563" lon="22.94005">
        <ele>630.572196</ele>
        <time>2022-04-06T09:20:51.886Z</time>
      </trkpt>
      <trkpt lat="42.27566" lon="22.93989">
        <ele>629.67862</ele>
        <time>2022-04-06T09:20:52.878Z</time>
      </trkpt>
      <trkpt lat="42.27569" lon="22.93972">
        <ele>628.781797</ele>
        <time>2022-04-06T09:20:53.871Z</time>
      </trkpt>
      <trkpt lat="42.27572" lon="22.93956">
        <ele>628.006103</ele>
        <time>2022-04-06T09:20:54.910Z</time>
      </trkpt>
      <trkpt lat="42.27575" lon="22.93939">
        <ele>627.242028</ele>
        <time>2022-04-06T09:20:55.879Z</time>
      </trkpt>
      <trkpt lat="42.27578" lon="22.93923">
        <ele>626.506362</ele>
        <time>2022-04-06T09:20:56.872Z</time>
      </trkpt>
      <trkpt lat="42.27581" lon="22.93907">
        <ele>625.803616</ele>
        <time>2022-04-06T09:20:57.880Z</time>
      </trkpt>
      <trkpt lat="42.27584" lon="22.93893">
        <ele>625.159074</ele>
        <time>2022-04-06T09:20:58.880Z</time>
      </trkpt>
      <trkpt lat="42.27586" lon="22.9388">
        <ele>624.556985</ele>
        <time>2022-04-06T09:20:59.876Z</time>
      </trkpt>
      <trkpt lat="42.27587" lon="22.93867">
        <ele>623.992719</ele>
        <time>2022-04-06T09:21:00.905Z</time>
      </trkpt>
      <trkpt lat="42.27587" lon="22.93855">
        <ele>623.45756</ele>
        <time>2022-04-06T09:21:01.880Z</time>
      </trkpt>
      <trkpt lat="42.27587" lon="22.93831">
        <ele>622.398313</ele>
        <time>2022-04-06T09:21:03.875Z</time>
      </trkpt>
      <trkpt lat="42.27587" lon="22.93807">
        <ele>621.338947</ele>
        <time>2022-04-06T09:21:05.874Z</time>
      </trkpt>
      <trkpt lat="42.27586" lon="22.93783">
        <ele>620.275421</ele>
        <time>2022-04-06T09:21:07.884Z</time>
      </trkpt>
      <trkpt lat="42.27587" lon="22.9377">
        <ele>619.719363</ele>
        <time>2022-04-06T09:21:08.876Z</time>
      </trkpt>
      <trkpt lat="42.27587" lon="22.93757">
        <ele>619.150098</ele>
        <time>2022-04-06T09:21:09.886Z</time>
      </trkpt>
      <trkpt lat="42.27587" lon="22.93744">
        <ele>618.576297</ele>
        <time>2022-04-06T09:21:10.875Z</time>
      </trkpt>
      <trkpt lat="42.27587" lon="22.93731">
        <ele>617.993519</ele>
        <time>2022-04-06T09:21:11.879Z</time>
      </trkpt>
      <trkpt lat="42.27587" lon="22.93717">
        <ele>617.537022</ele>
        <time>2022-04-06T09:21:12.899Z</time>
      </trkpt>
      <trkpt lat="42.27588" lon="22.93703">
        <ele>617.073633</ele>
        <time>2022-04-06T09:21:13.890Z</time>
      </trkpt>
      <trkpt lat="42.27588" lon="22.93689">
        <ele>616.607108</ele>
        <time>2022-04-06T09:21:14.873Z</time>
      </trkpt>
      <trkpt lat="42.27588" lon="22.93675">
        <ele>616.147201</ele>
        <time>2022-04-06T09:21:15.916Z</time>
      </trkpt>
      <trkpt lat="42.27587" lon="22.93662">
        <ele>615.703767</ele>
        <time>2022-04-06T09:21:16.878Z</time>
      </trkpt>
      <trkpt lat="42.27587" lon="22.93649">
        <ele>615.276967</ele>
        <time>2022-04-06T09:21:17.884Z</time>
      </trkpt>
      <trkpt lat="42.27587" lon="22.93637">
        <ele>614.860068</ele>
        <time>2022-04-06T09:21:18.871Z</time>
      </trkpt>
      <trkpt lat="42.27588" lon="22.93624">
        <ele>614.436481</ele>
        <time>2022-04-06T09:21:19.886Z</time>
      </trkpt>
      <trkpt lat="42.27588" lon="22.93611">
        <ele>614.016274</ele>
        <time>2022-04-06T09:21:20.873Z</time>
      </trkpt>
      <trkpt lat="42.27588" lon="22.93598">
        <ele>613.576035</ele>
        <time>2022-04-06T09:21:21.878Z</time>
      </trkpt>
      <trkpt lat="42.27588" lon="22.93584">
        <ele>613.115801</ele>
        <time>2022-04-06T09:21:22.883Z</time>
      </trkpt>
      <trkpt lat="42.27589" lon="22.9357">
        <ele>612.661981</ele>
        <time>2022-04-06T09:21:23.878Z</time>
      </trkpt>
      <trkpt lat="42.27589" lon="22.93557">
        <ele>612.211932</ele>
        <time>2022-04-06T09:21:24.907Z</time>
      </trkpt>
      <trkpt lat="42.27589" lon="22.93543">
        <ele>611.758575</ele>
        <time>2022-04-06T09:21:25.882Z</time>
      </trkpt>
      <trkpt lat="42.2759" lon="22.93529">
        <ele>611.298603</ele>
        <time>2022-04-06T09:21:26.874Z</time>
      </trkpt>
      <trkpt lat="42.27589" lon="22.93516">
        <ele>610.855057</ele>
        <time>2022-04-06T09:21:27.870Z</time>
      </trkpt>
      <trkpt lat="42.27589" lon="22.93502">
        <ele>610.410902</ele>
        <time>2022-04-06T09:21:28.879Z</time>
      </trkpt>
      <trkpt lat="42.27588" lon="22.93489">
        <ele>609.964839</ele>
        <time>2022-04-06T09:21:29.869Z</time>
      </trkpt>
      <trkpt lat="42.27586" lon="22.93476">
        <ele>609.481199</ele>
        <time>2022-04-06T09:21:30.897Z</time>
      </trkpt>
      <trkpt lat="42.27585" lon="22.93463">
        <ele>608.991908</ele>
        <time>2022-04-06T09:21:31.875Z</time>
      </trkpt>
      <trkpt lat="42.27582" lon="22.9345">
        <ele>608.498735</ele>
        <time>2022-04-06T09:21:32.869Z</time>
      </trkpt>
      <trkpt lat="42.2758" lon="22.93437">
        <ele>608.012546</ele>
        <time>2022-04-06T09:21:33.881Z</time>
      </trkpt>
      <trkpt lat="42.27577" lon="22.93425">
        <ele>607.537611</ele>
        <time>2022-04-06T09:21:34.877Z</time>
      </trkpt>
      <trkpt lat="42.27573" lon="22.93413">
        <ele>607.052355</ele>
        <time>2022-04-06T09:21:35.878Z</time>
      </trkpt>
      <trkpt lat="42.27569" lon="22.93401">
        <ele>606.562466</ele>
        <time>2022-04-06T09:21:36.900Z</time>
      </trkpt>
      <trkpt lat="42.27564" lon="22.93389">
        <ele>606.06813</ele>
        <time>2022-04-06T09:21:37.891Z</time>
      </trkpt>
      <trkpt lat="42.2756" lon="22.93378">
        <ele>605.590904</ele>
        <time>2022-04-06T09:21:38.879Z</time>
      </trkpt>
      <trkpt lat="42.27555" lon="22.93367">
        <ele>605.120776</ele>
        <time>2022-04-06T09:21:39.886Z</time>
      </trkpt>
      <trkpt lat="42.2755" lon="22.93356">
        <ele>604.651729</ele>
        <time>2022-04-06T09:21:40.883Z</time>
      </trkpt>
      <trkpt lat="42.27545" lon="22.93346">
        <ele>604.197426</ele>
        <time>2022-04-06T09:21:41.878Z</time>
      </trkpt>
      <trkpt lat="42.2754" lon="22.93335">
        <ele>603.743123</ele>
        <time>2022-04-06T09:21:42.903Z</time>
      </trkpt>
      <trkpt lat="42.27535" lon="22.93325">
        <ele>603.286542</ele>
        <time>2022-04-06T09:21:43.883Z</time>
      </trkpt>
      <trkpt lat="42.2753" lon="22.93315">
        <ele>602.83027</ele>
        <time>2022-04-06T09:21:44.881Z</time>
      </trkpt>
      <trkpt lat="42.27525" lon="22.93304">
        <ele>602.370164</ele>
        <time>2022-04-06T09:21:45.882Z</time>
      </trkpt>
      <trkpt lat="42.2752" lon="22.93293">
        <ele>601.889478</ele>
        <time>2022-04-06T09:21:46.875Z</time>
      </trkpt>
      <trkpt lat="42.27515" lon="22.93282">
        <ele>601.382313</ele>
        <time>2022-04-06T09:21:47.884Z</time>
      </trkpt>
      <trkpt lat="42.27509" lon="22.9327">
        <ele>600.877879</ele>
        <time>2022-04-06T09:21:48.902Z</time>
      </trkpt>
      <trkpt lat="42.27503" lon="22.93258">
        <ele>600.569316</ele>
        <time>2022-04-06T09:21:49.873Z</time>
      </trkpt>
      <trkpt lat="42.27497" lon="22.93246">
        <ele>600.255499</ele>
        <time>2022-04-06T09:21:50.877Z</time>
      </trkpt>
      <trkpt lat="42.27492" lon="22.93234">
        <ele>599.941682</ele>
        <time>2022-04-06T09:21:51.879Z</time>
      </trkpt>
      <trkpt lat="42.27486" lon="22.93222">
        <ele>599.620523</ele>
        <time>2022-04-06T09:21:52.884Z</time>
      </trkpt>
      <trkpt lat="42.2748" lon="22.93209">
        <ele>599.292769</ele>
        <time>2022-04-06T09:21:53.875Z</time>
      </trkpt>
      <trkpt lat="42.27473" lon="22.93197">
        <ele>598.968935</ele>
        <time>2022-04-06T09:21:54.897Z</time>
      </trkpt>
      <trkpt lat="42.27466" lon="22.93185">
        <ele>598.637881</ele>
        <time>2022-04-06T09:21:55.880Z</time>
      </trkpt>
      <trkpt lat="42.27459" lon="22.93173">
        <ele>598.300626</ele>
        <time>2022-04-06T09:21:56.885Z</time>
      </trkpt>
      <trkpt lat="42.27451" lon="22.93162">
        <ele>597.959055</ele>
        <time>2022-04-06T09:21:57.895Z</time>
      </trkpt>
      <trkpt lat="42.27443" lon="22.93151">
        <ele>597.623813</ele>
        <time>2022-04-06T09:21:58.871Z</time>
      </trkpt>
      <trkpt lat="42.27435" lon="22.9314">
        <ele>597.296618</ele>
        <time>2022-04-06T09:21:59.878Z</time>
      </trkpt>
      <trkpt lat="42.27428" lon="22.93129">
        <ele>596.977239</ele>
        <time>2022-04-06T09:22:00.901Z</time>
      </trkpt>
      <trkpt lat="42.27421" lon="22.93118">
        <ele>596.664997</ele>
        <time>2022-04-06T09:22:01.887Z</time>
      </trkpt>
      <trkpt lat="42.27415" lon="22.93106">
        <ele>596.346527</ele>
        <time>2022-04-06T09:22:02.873Z</time>
      </trkpt>
      <trkpt lat="42.27409" lon="22.93094">
        <ele>596.029619</ele>
        <time>2022-04-06T09:22:03.872Z</time>
      </trkpt>
      <trkpt lat="42.27403" lon="22.93082">
        <ele>595.715551</ele>
        <time>2022-04-06T09:22:04.876Z</time>
      </trkpt>
      <trkpt lat="42.27398" lon="22.93069">
        <ele>595.208587</ele>
        <time>2022-04-06T09:22:05.883Z</time>
      </trkpt>
      <trkpt lat="42.27393" lon="22.93056">
        <ele>594.605839</ele>
        <time>2022-04-06T09:22:06.895Z</time>
      </trkpt>
      <trkpt lat="42.27388" lon="22.93043">
        <ele>593.978592</ele>
        <time>2022-04-06T09:22:07.891Z</time>
      </trkpt>
      <trkpt lat="42.27383" lon="22.93029">
        <ele>593.343814</ele>
        <time>2022-04-06T09:22:08.879Z</time>
      </trkpt>
      <trkpt lat="42.27378" lon="22.93014">
        <ele>592.693151</ele>
        <time>2022-04-06T09:22:09.875Z</time>
      </trkpt>
      <trkpt lat="42.27374" lon="22.92999">
        <ele>592.042858</ele>
        <time>2022-04-06T09:22:10.872Z</time>
      </trkpt>
      <trkpt lat="42.27369" lon="22.92985">
        <ele>591.39599</ele>
        <time>2022-04-06T09:22:11.881Z</time>
      </trkpt>
      <trkpt lat="42.27365" lon="22.92971">
        <ele>590.762653</ele>
        <time>2022-04-06T09:22:12.906Z</time>
      </trkpt>
      <trkpt lat="42.27361" lon="22.92956">
        <ele>590.123364</ele>
        <time>2022-04-06T09:22:13.878Z</time>
      </trkpt>
      <trkpt lat="42.27356" lon="22.92942">
        <ele>589.495414</ele>
        <time>2022-04-06T09:22:14.876Z</time>
      </trkpt>
      <trkpt lat="42.27352" lon="22.92929">
        <ele>588.875001</ele>
        <time>2022-04-06T09:22:15.882Z</time>
      </trkpt>
      <trkpt lat="42.27347" lon="22.92915">
        <ele>588.266229</ele>
        <time>2022-04-06T09:22:16.886Z</time>
      </trkpt>
      <trkpt lat="42.27341" lon="22.92903">
        <ele>587.660845</ele>
        <time>2022-04-06T09:22:17.875Z</time>
      </trkpt>
      <trkpt lat="42.27335" lon="22.9289">
        <ele>587.04826</ele>
        <time>2022-04-06T09:22:18.902Z</time>
      </trkpt>
      <trkpt lat="42.27328" lon="22.92878">
        <ele>586.429809</ele>
        <time>2022-04-06T09:22:19.874Z</time>
      </trkpt>
      <trkpt lat="42.27322" lon="22.92867">
        <ele>585.820975</ele>
        <time>2022-04-06T09:22:20.874Z</time>
      </trkpt>
      <trkpt lat="42.27315" lon="22.92855">
        <ele>585.08877</ele>
        <time>2022-04-06T09:22:21.885Z</time>
      </trkpt>
      <trkpt lat="42.27307" lon="22.92842">
        <ele>584.276098</ele>
        <time>2022-04-06T09:22:22.873Z</time>
      </trkpt>
      <trkpt lat="42.27299" lon="22.9283">
        <ele>583.445665</ele>
        <time>2022-04-06T09:22:23.884Z</time>
      </trkpt>
      <trkpt lat="42.27292" lon="22.92818">
        <ele>582.644866</ele>
        <time>2022-04-06T09:22:24.897Z</time>
      </trkpt>
      <trkpt lat="42.27285" lon="22.92806">
        <ele>581.868686</ele>
        <time>2022-04-06T09:22:25.877Z</time>
      </trkpt>
      <trkpt lat="42.27278" lon="22.92795">
        <ele>581.118543</ele>
        <time>2022-04-06T09:22:26.879Z</time>
      </trkpt>
      <trkpt lat="42.27272" lon="22.92784">
        <ele>580.384805</ele>
        <time>2022-04-06T09:22:27.879Z</time>
      </trkpt>
      <trkpt lat="42.27265" lon="22.92772">
        <ele>579.655107</ele>
        <time>2022-04-06T09:22:28.877Z</time>
      </trkpt>
      <trkpt lat="42.27259" lon="22.92761">
        <ele>578.933449</ele>
        <time>2022-04-06T09:22:29.876Z</time>
      </trkpt>
      <trkpt lat="42.27252" lon="22.9275">
        <ele>578.208154</ele>
        <time>2022-04-06T09:22:30.895Z</time>
      </trkpt>
      <trkpt lat="42.27246" lon="22.92738">
        <ele>577.466356</ele>
        <time>2022-04-06T09:22:31.874Z</time>
      </trkpt>
      <trkpt lat="42.2724" lon="22.92726">
        <ele>576.703872</ele>
        <time>2022-04-06T09:22:32.889Z</time>
      </trkpt>
      <trkpt lat="42.27233" lon="22.92714">
        <ele>575.936989</ele>
        <time>2022-04-06T09:22:33.887Z</time>
      </trkpt>
      <trkpt lat="42.27227" lon="22.92702">
        <ele>575.190279</ele>
        <time>2022-04-06T09:22:34.878Z</time>
      </trkpt>
      <trkpt lat="42.27222" lon="22.9269">
        <ele>574.467863</ele>
        <time>2022-04-06T09:22:35.869Z</time>
      </trkpt>
      <trkpt lat="42.27216" lon="22.92679">
        <ele>573.771245</ele>
        <time>2022-04-06T09:22:36.944Z</time>
      </trkpt>
      <trkpt lat="42.2721" lon="22.92668">
        <ele>573.054489</ele>
        <time>2022-04-06T09:22:37.877Z</time>
      </trkpt>
      <trkpt lat="42.27205" lon="22.92657">
        <ele>572.222354</ele>
        <time>2022-04-06T09:22:38.879Z</time>
      </trkpt>
      <trkpt lat="42.272" lon="22.92646">
        <ele>571.390219</ele>
        <time>2022-04-06T09:22:39.890Z</time>
      </trkpt>
      <trkpt lat="42.27194" lon="22.92636">
        <ele>570.56934</ele>
        <time>2022-04-06T09:22:40.873Z</time>
      </trkpt>
      <trkpt lat="42.27188" lon="22.92626">
        <ele>569.747829</ele>
        <time>2022-04-06T09:22:41.887Z</time>
      </trkpt>
      <trkpt lat="42.27182" lon="22.92617">
        <ele>568.921078</ele>
        <time>2022-04-06T09:22:42.871Z</time>
      </trkpt>
      <trkpt lat="42.27175" lon="22.92608">
        <ele>568.086088</ele>
        <time>2022-04-06T09:22:43.913Z</time>
      </trkpt>
      <trkpt lat="42.27167" lon="22.926">
        <ele>567.244723</ele>
        <time>2022-04-06T09:22:44.874Z</time>
      </trkpt>
      <trkpt lat="42.27159" lon="22.92593">
        <ele>566.354287</ele>
        <time>2022-04-06T09:22:45.883Z</time>
      </trkpt>
      <trkpt lat="42.27149" lon="22.92586">
        <ele>565.44458</ele>
        <time>2022-04-06T09:22:46.872Z</time>
      </trkpt>
      <trkpt lat="42.2714" lon="22.9258">
        <ele>564.525854</ele>
        <time>2022-04-06T09:22:47.890Z</time>
      </trkpt>
      <trkpt lat="42.27129" lon="22.92577">
        <ele>563.557943</ele>
        <time>2022-04-06T09:22:48.878Z</time>
      </trkpt>
      <trkpt lat="42.27118" lon="22.92574">
        <ele>562.560727</ele>
        <time>2022-04-06T09:22:49.870Z</time>
      </trkpt>
      <trkpt lat="42.27107" lon="22.92571">
        <ele>561.588577</ele>
        <time>2022-04-06T09:22:50.873Z</time>
      </trkpt>
      <trkpt lat="42.27096" lon="22.9257">
        <ele>560.622979</ele>
        <time>2022-04-06T09:22:51.877Z</time>
      </trkpt>
      <trkpt lat="42.27085" lon="22.92569">
        <ele>559.677516</ele>
        <time>2022-04-06T09:22:52.910Z</time>
      </trkpt>
      <trkpt lat="42.27074" lon="22.92568">
        <ele>558.72518</ele>
        <time>2022-04-06T09:22:53.876Z</time>
      </trkpt>
      <trkpt lat="42.27063" lon="22.92569">
        <ele>557.790461</ele>
        <time>2022-04-06T09:22:54.892Z</time>
      </trkpt>
      <trkpt lat="42.27053" lon="22.9257">
        <ele>556.944479</ele>
        <time>2022-04-06T09:22:55.874Z</time>
      </trkpt>
      <trkpt lat="42.27043" lon="22.92571">
        <ele>556.19049</ele>
        <time>2022-04-06T09:22:56.878Z</time>
      </trkpt>
      <trkpt lat="42.27034" lon="22.92572">
        <ele>555.48322</ele>
        <time>2022-04-06T09:22:57.874Z</time>
      </trkpt>
      <trkpt lat="42.27024" lon="22.92574">
        <ele>554.720922</ele>
        <time>2022-04-06T09:22:58.876Z</time>
      </trkpt>
      <trkpt lat="42.27015" lon="22.92575">
        <ele>553.958624</ele>
        <time>2022-04-06T09:22:59.887Z</time>
      </trkpt>
      <trkpt lat="42.27005" lon="22.92577">
        <ele>553.211684</ele>
        <time>2022-04-06T09:23:00.876Z</time>
      </trkpt>
      <trkpt lat="42.26995" lon="22.92578">
        <ele>552.472422</ele>
        <time>2022-04-06T09:23:01.873Z</time>
      </trkpt>
      <trkpt lat="42.26986" lon="22.9258">
        <ele>551.732474</ele>
        <time>2022-04-06T09:23:02.875Z</time>
      </trkpt>
      <trkpt lat="42.26977" lon="22.92582">
        <ele>551.014777</ele>
        <time>2022-04-06T09:23:03.897Z</time>
      </trkpt>
      <trkpt lat="42.26959" lon="22.92585">
        <ele>549.624505</ele>
        <time>2022-04-06T09:23:05.876Z</time>
      </trkpt>
      <trkpt lat="42.26949" lon="22.92586">
        <ele>548.880307</ele>
        <time>2022-04-06T09:23:06.874Z</time>
      </trkpt>
      <trkpt lat="42.2694" lon="22.92587">
        <ele>548.129513</ele>
        <time>2022-04-06T09:23:07.875Z</time>
      </trkpt>
      <trkpt lat="42.2693" lon="22.92587">
        <ele>547.402952</ele>
        <time>2022-04-06T09:23:08.878Z</time>
      </trkpt>
      <trkpt lat="42.26921" lon="22.92586">
        <ele>546.659876</ele>
        <time>2022-04-06T09:23:09.914Z</time>
      </trkpt>
      <trkpt lat="42.26911" lon="22.92585">
        <ele>545.905886</ele>
        <time>2022-04-06T09:23:10.874Z</time>
      </trkpt>
      <trkpt lat="42.26901" lon="22.92583">
        <ele>545.126881</ele>
        <time>2022-04-06T09:23:11.888Z</time>
      </trkpt>
      <trkpt lat="42.26891" lon="22.9258">
        <ele>544.352682</ele>
        <time>2022-04-06T09:23:12.876Z</time>
      </trkpt>
      <trkpt lat="42.26881" lon="22.92577">
        <ele>543.568495</ele>
        <time>2022-04-06T09:23:13.883Z</time>
      </trkpt>
      <trkpt lat="42.26872" lon="22.92574">
        <ele>543.080345</ele>
        <time>2022-04-06T09:23:14.872Z</time>
      </trkpt>
      <trkpt lat="42.26862" lon="22.92571">
        <ele>542.625677</ele>
        <time>2022-04-06T09:23:15.871Z</time>
      </trkpt>
      <trkpt lat="42.26846" lon="22.92566">
        <ele>541.814744</ele>
        <time>2022-04-06T09:23:17.876Z</time>
      </trkpt>
      <trkpt lat="42.26829" lon="22.92561">
        <ele>540.970267</ele>
        <time>2022-04-06T09:23:19.875Z</time>
      </trkpt>
      <trkpt lat="42.26819" lon="22.92559">
        <ele>540.50465</ele>
        <time>2022-04-06T09:23:20.878Z</time>
      </trkpt>
      <trkpt lat="42.26809" lon="22.92558">
        <ele>540.016108</ele>
        <time>2022-04-06T09:23:21.871Z</time>
      </trkpt>
      <trkpt lat="42.26799" lon="22.92556">
        <ele>539.536211</ele>
        <time>2022-04-06T09:23:22.879Z</time>
      </trkpt>
      <trkpt lat="42.2679" lon="22.92554">
        <ele>539.074844</ele>
        <time>2022-04-06T09:23:23.876Z</time>
      </trkpt>
      <trkpt lat="42.2678" lon="22.92552">
        <ele>538.608725</ele>
        <time>2022-04-06T09:23:24.871Z</time>
      </trkpt>
      <trkpt lat="42.2677" lon="22.9255">
        <ele>538.136204</ele>
        <time>2022-04-06T09:23:25.872Z</time>
      </trkpt>
      <trkpt lat="42.26761" lon="22.92547">
        <ele>537.667813</ele>
        <time>2022-04-06T09:23:26.907Z</time>
      </trkpt>
      <trkpt lat="42.26751" lon="22.92545">
        <ele>537.19469</ele>
        <time>2022-04-06T09:23:27.886Z</time>
      </trkpt>
      <trkpt lat="42.26741" lon="22.92543">
        <ele>536.720287</ele>
        <time>2022-04-06T09:23:28.877Z</time>
      </trkpt>
      <trkpt lat="42.26732" lon="22.9254">
        <ele>536.245884</ele>
        <time>2022-04-06T09:23:29.882Z</time>
      </trkpt>
      <trkpt lat="42.26722" lon="22.92537">
        <ele>535.75453</ele>
        <time>2022-04-06T09:23:30.878Z</time>
      </trkpt>
      <trkpt lat="42.26712" lon="22.92534">
        <ele>535.28417</ele>
        <time>2022-04-06T09:23:31.878Z</time>
      </trkpt>
      <trkpt lat="42.26694" lon="22.92528">
        <ele>534.797033</ele>
        <time>2022-04-06T09:23:33.876Z</time>
      </trkpt>
      <trkpt lat="42.26685" lon="22.92524">
        <ele>534.702506</ele>
        <time>2022-04-06T09:23:34.875Z</time>
      </trkpt>
      <trkpt lat="42.26677" lon="22.9252">
        <ele>534.611023</ele>
        <time>2022-04-06T09:23:35.876Z</time>
      </trkpt>
      <trkpt lat="42.26668" lon="22.92515">
        <ele>534.520846</ele>
        <time>2022-04-06T09:23:36.876Z</time>
      </trkpt>
      <trkpt lat="42.26653" lon="22.92505">
        <ele>534.353277</ele>
        <time>2022-04-06T09:23:38.876Z</time>
      </trkpt>
      <trkpt lat="42.26639" lon="22.92496">
        <ele>534.203459</ele>
        <time>2022-04-06T09:23:40.871Z</time>
      </trkpt>
      <trkpt lat="42.26627" lon="22.92484">
        <ele>534.050809</ele>
        <time>2022-04-06T09:23:42.873Z</time>
      </trkpt>
      <trkpt lat="42.26614" lon="22.9247">
        <ele>533.889778</ele>
        <time>2022-04-06T09:23:44.889Z</time>
      </trkpt>
      <trkpt lat="42.26603" lon="22.92455">
        <ele>533.740089</ele>
        <time>2022-04-06T09:23:46.880Z</time>
      </trkpt>
      <trkpt lat="42.26594" lon="22.9244">
        <ele>533.594912</ele>
        <time>2022-04-06T09:23:48.868Z</time>
      </trkpt>
      <trkpt lat="42.26585" lon="22.92426">
        <ele>533.457986</ele>
        <time>2022-04-06T09:23:50.886Z</time>
      </trkpt>
      <trkpt lat="42.26577" lon="22.9241">
        <ele>533.320964</ele>
        <time>2022-04-06T09:23:52.875Z</time>
      </trkpt>
      <trkpt lat="42.26571" lon="22.92395">
        <ele>533.191125</ele>
        <time>2022-04-06T09:23:54.877Z</time>
      </trkpt>
      <trkpt lat="42.26565" lon="22.92379">
        <ele>533.043944</ele>
        <time>2022-04-06T09:23:56.885Z</time>
      </trkpt>
      <trkpt lat="42.26559" lon="22.92364">
        <ele>532.876084</ele>
        <time>2022-04-06T09:23:58.873Z</time>
      </trkpt>
      <trkpt lat="42.26554" lon="22.92349">
        <ele>532.711197</ele>
        <time>2022-04-06T09:24:00.872Z</time>
      </trkpt>
      <trkpt lat="42.2655" lon="22.92334">
        <ele>532.550304</ele>
        <time>2022-04-06T09:24:02.884Z</time>
      </trkpt>
      <trkpt lat="42.26546" lon="22.9232">
        <ele>532.395927</ele>
        <time>2022-04-06T09:24:04.894Z</time>
      </trkpt>
      <trkpt lat="42.26543" lon="22.92306">
        <ele>532.248731</ele>
        <time>2022-04-06T09:24:06.894Z</time>
      </trkpt>
      <trkpt lat="42.26541" lon="22.92292">
        <ele>532.108616</ele>
        <time>2022-04-06T09:24:08.886Z</time>
      </trkpt>
      <trkpt lat="42.26538" lon="22.92277">
        <ele>531.958518</ele>
        <time>2022-04-06T09:24:10.872Z</time>
      </trkpt>
      <trkpt lat="42.26535" lon="22.92262">
        <ele>531.796474</ele>
        <time>2022-04-06T09:24:12.883Z</time>
      </trkpt>
      <trkpt lat="42.26532" lon="22.92246">
        <ele>531.634052</ele>
        <time>2022-04-06T09:24:14.881Z</time>
      </trkpt>
      <trkpt lat="42.26529" lon="22.9223">
        <ele>531.470308</ele>
        <time>2022-04-06T09:24:16.875Z</time>
      </trkpt>
      <trkpt lat="42.26525" lon="22.92214">
        <ele>531.299833</ele>
        <time>2022-04-06T09:24:18.865Z</time>
      </trkpt>
      <trkpt lat="42.26522" lon="22.92198">
        <ele>531.135129</ele>
        <time>2022-04-06T09:24:20.911Z</time>
      </trkpt>
      <trkpt lat="42.26518" lon="22.92183">
        <ele>530.975613</ele>
        <time>2022-04-06T09:24:22.899Z</time>
      </trkpt>
      <trkpt lat="42.26514" lon="22.92167">
        <ele>530.816017</ele>
        <time>2022-04-06T09:24:24.879Z</time>
      </trkpt>
      <trkpt lat="42.2651" lon="22.92151">
        <ele>530.616747</ele>
        <time>2022-04-06T09:24:26.867Z</time>
      </trkpt>
      <trkpt lat="42.26506" lon="22.92135">
        <ele>530.365691</ele>
        <time>2022-04-06T09:24:28.886Z</time>
      </trkpt>
      <trkpt lat="42.26501" lon="22.9212">
        <ele>530.127364</ele>
        <time>2022-04-06T09:24:30.877Z</time>
      </trkpt>
      <trkpt lat="42.26496" lon="22.92106">
        <ele>529.887869</ele>
        <time>2022-04-06T09:24:32.875Z</time>
      </trkpt>
      <trkpt lat="42.26489" lon="22.92091">
        <ele>529.644252</ele>
        <time>2022-04-06T09:24:34.878Z</time>
      </trkpt>
      <trkpt lat="42.26483" lon="22.92077">
        <ele>529.394399</ele>
        <time>2022-04-06T09:24:36.882Z</time>
      </trkpt>
      <trkpt lat="42.26475" lon="22.92063">
        <ele>529.135634</ele>
        <time>2022-04-06T09:24:38.900Z</time>
      </trkpt>
      <trkpt lat="42.26467" lon="22.92049">
        <ele>528.8875</ele>
        <time>2022-04-06T09:24:40.883Z</time>
      </trkpt>
      <trkpt lat="42.26459" lon="22.92035">
        <ele>528.620454</ele>
        <time>2022-04-06T09:24:42.874Z</time>
      </trkpt>
      <trkpt lat="42.2645" lon="22.9202">
        <ele>528.334686</ele>
        <time>2022-04-06T09:24:44.891Z</time>
      </trkpt>
      <trkpt lat="42.26439" lon="22.92006">
        <ele>528.047615</ele>
        <time>2022-04-06T09:24:46.870Z</time>
      </trkpt>
      <trkpt lat="42.26429" lon="22.91993">
        <ele>527.766212</ele>
        <time>2022-04-06T09:24:48.878Z</time>
      </trkpt>
      <trkpt lat="42.26418" lon="22.91981">
        <ele>527.488486</ele>
        <time>2022-04-06T09:24:50.873Z</time>
      </trkpt>
      <trkpt lat="42.26407" lon="22.9197">
        <ele>527.201977</ele>
        <time>2022-04-06T09:24:52.874Z</time>
      </trkpt>
      <trkpt lat="42.26395" lon="22.91959">
        <ele>526.834313</ele>
        <time>2022-04-06T09:24:54.881Z</time>
      </trkpt>
      <trkpt lat="42.26383" lon="22.91947">
        <ele>526.435912</ele>
        <time>2022-04-06T09:24:56.871Z</time>
      </trkpt>
      <trkpt lat="42.26372" lon="22.91935">
        <ele>526.03676</ele>
        <time>2022-04-06T09:24:58.876Z</time>
      </trkpt>
      <trkpt lat="42.26361" lon="22.91922">
        <ele>525.641886</ele>
        <time>2022-04-06T09:25:00.874Z</time>
      </trkpt>
      <trkpt lat="42.2635" lon="22.9191">
        <ele>525.248312</ele>
        <time>2022-04-06T09:25:02.870Z</time>
      </trkpt>
      <trkpt lat="42.2634" lon="22.91898">
        <ele>524.861116</ele>
        <time>2022-04-06T09:25:04.876Z</time>
      </trkpt>
      <trkpt lat="42.26329" lon="22.91885">
        <ele>524.462298</ele>
        <time>2022-04-06T09:25:06.880Z</time>
      </trkpt>
      <trkpt lat="42.26317" lon="22.91874">
        <ele>524.067619</ele>
        <time>2022-04-06T09:25:08.872Z</time>
      </trkpt>
      <trkpt lat="42.26305" lon="22.91862">
        <ele>523.669882</ele>
        <time>2022-04-06T09:25:10.879Z</time>
      </trkpt>
      <trkpt lat="42.26294" lon="22.91852">
        <ele>523.276865</ele>
        <time>2022-04-06T09:25:12.881Z</time>
      </trkpt>
      <trkpt lat="42.2628" lon="22.91842">
        <ele>522.859337</ele>
        <time>2022-04-06T09:25:14.874Z</time>
      </trkpt>
      <trkpt lat="42.26268" lon="22.91833">
        <ele>522.466685</ele>
        <time>2022-04-06T09:25:16.877Z</time>
      </trkpt>
      <trkpt lat="42.26254" lon="22.91825">
        <ele>522.109131</ele>
        <time>2022-04-06T09:25:18.878Z</time>
      </trkpt>
      <trkpt lat="42.26239" lon="22.91816">
        <ele>521.940116</ele>
        <time>2022-04-06T09:25:20.874Z</time>
      </trkpt>
      <trkpt lat="42.26225" lon="22.91807">
        <ele>521.776282</ele>
        <time>2022-04-06T09:25:22.885Z</time>
      </trkpt>
      <trkpt lat="42.26212" lon="22.91799">
        <ele>521.619859</ele>
        <time>2022-04-06T09:25:24.900Z</time>
      </trkpt>
      <trkpt lat="42.26198" lon="22.91789">
        <ele>521.450092</ele>
        <time>2022-04-06T09:25:26.868Z</time>
      </trkpt>
      <trkpt lat="42.26185" lon="22.91781">
        <ele>521.298207</ele>
        <time>2022-04-06T09:25:28.868Z</time>
      </trkpt>
      <trkpt lat="42.26172" lon="22.91774">
        <ele>521.155376</ele>
        <time>2022-04-06T09:25:30.899Z</time>
      </trkpt>
      <trkpt lat="42.2616" lon="22.91767">
        <ele>521.009307</ele>
        <time>2022-04-06T09:25:32.875Z</time>
      </trkpt>
      <trkpt lat="42.26147" lon="22.91759">
        <ele>520.867766</ele>
        <time>2022-04-06T09:25:34.874Z</time>
      </trkpt>
      <trkpt lat="42.26135" lon="22.91753">
        <ele>520.729418</ele>
        <time>2022-04-06T09:25:36.904Z</time>
      </trkpt>
      <trkpt lat="42.26124" lon="22.91746">
        <ele>520.597901</ele>
        <time>2022-04-06T09:25:38.876Z</time>
      </trkpt>
      <trkpt lat="42.26113" lon="22.91739">
        <ele>520.467997</ele>
        <time>2022-04-06T09:25:40.873Z</time>
      </trkpt>
      <trkpt lat="42.26102" lon="22.91733">
        <ele>520.343905</ele>
        <time>2022-04-06T09:25:42.879Z</time>
      </trkpt>
      <trkpt lat="42.26092" lon="22.91726">
        <ele>520.215097</ele>
        <time>2022-04-06T09:25:44.870Z</time>
      </trkpt>
      <trkpt lat="42.26083" lon="22.9172">
        <ele>520.022422</ele>
        <time>2022-04-06T09:25:46.870Z</time>
      </trkpt>
      <trkpt lat="42.26073" lon="22.91714">
        <ele>519.825169</ele>
        <time>2022-04-06T09:25:48.869Z</time>
      </trkpt>
      <trkpt lat="42.26062" lon="22.91708">
        <ele>519.600446</ele>
        <time>2022-04-06T09:25:50.879Z</time>
      </trkpt>
      <trkpt lat="42.26053" lon="22.91702">
        <ele>519.400357</ele>
        <time>2022-04-06T09:25:52.872Z</time>
      </trkpt>
      <trkpt lat="42.26044" lon="22.91697">
        <ele>519.225375</ele>
        <time>2022-04-06T09:25:54.877Z</time>
      </trkpt>
      <trkpt lat="42.26036" lon="22.91693">
        <ele>519.054672</ele>
        <time>2022-04-06T09:25:56.871Z</time>
      </trkpt>
      <trkpt lat="42.26023" lon="22.91686">
        <ele>518.803705</ele>
        <time>2022-04-06T09:25:59.871Z</time>
      </trkpt>
      <trkpt lat="42.26012" lon="22.9168">
        <ele>518.577244</ele>
        <time>2022-04-06T09:26:02.866Z</time>
      </trkpt>
      <trkpt lat="42.26001" lon="22.91674">
        <ele>518.360304</ele>
        <time>2022-04-06T09:26:05.880Z</time>
      </trkpt>
      <trkpt lat="42.2599" lon="22.91669">
        <ele>518.137293</ele>
        <time>2022-04-06T09:26:08.880Z</time>
      </trkpt>
      <trkpt lat="42.25979" lon="22.91663">
        <ele>517.92385</ele>
        <time>2022-04-06T09:26:11.880Z</time>
      </trkpt>
      <trkpt lat="42.25969" lon="22.91658">
        <ele>517.708367</ele>
        <time>2022-04-06T09:26:14.877Z</time>
      </trkpt>
      <trkpt lat="42.25957" lon="22.91652">
        <ele>517.480886</ele>
        <time>2022-04-06T09:26:17.875Z</time>
      </trkpt>
      <trkpt lat="42.25946" lon="22.91647">
        <ele>517.258684</ele>
        <time>2022-04-06T09:26:20.911Z</time>
      </trkpt>
      <trkpt lat="42.25935" lon="22.91642">
        <ele>517.037476</ele>
        <time>2022-04-06T09:26:23.877Z</time>
      </trkpt>
      <trkpt lat="42.25924" lon="22.91637">
        <ele>516.824588</ele>
        <time>2022-04-06T09:26:26.899Z</time>
      </trkpt>
      <trkpt lat="42.25913" lon="22.91632">
        <ele>516.629894</ele>
        <time>2022-04-06T09:26:29.913Z</time>
      </trkpt>
      <trkpt lat="42.25902" lon="22.91627">
        <ele>516.431395</ele>
        <time>2022-04-06T09:26:32.884Z</time>
      </trkpt>
      <trkpt lat="42.25892" lon="22.91623">
        <ele>516.24369</ele>
        <time>2022-04-06T09:26:35.900Z</time>
      </trkpt>
      <trkpt lat="42.25881" lon="22.91618">
        <ele>516.042028</ele>
        <time>2022-04-06T09:26:38.886Z</time>
      </trkpt>
      <trkpt lat="42.25869" lon="22.91613">
        <ele>515.825211</ele>
        <time>2022-04-06T09:26:41.880Z</time>
      </trkpt>
      <trkpt lat="42.25857" lon="22.91608">
        <ele>515.606271</ele>
        <time>2022-04-06T09:26:44.875Z</time>
      </trkpt>
      <trkpt lat="42.25845" lon="22.91603">
        <ele>515.382909</ele>
        <time>2022-04-06T09:26:47.873Z</time>
      </trkpt>
      <trkpt lat="42.25836" lon="22.91598">
        <ele>515.216617</ele>
        <time>2022-04-06T09:26:49.868Z</time>
      </trkpt>
      <trkpt lat="42.25827" lon="22.91594">
        <ele>515.050226</ele>
        <time>2022-04-06T09:26:51.880Z</time>
      </trkpt>
      <trkpt lat="42.25818" lon="22.91589">
        <ele>514.894798</ele>
        <time>2022-04-06T09:26:53.875Z</time>
      </trkpt>
      <trkpt lat="42.25806" lon="22.91583">
        <ele>514.660503</ele>
        <time>2022-04-06T09:26:56.876Z</time>
      </trkpt>
      <trkpt lat="42.25796" lon="22.91579">
        <ele>514.492753</ele>
        <time>2022-04-06T09:26:58.883Z</time>
      </trkpt>
      <trkpt lat="42.25787" lon="22.91574">
        <ele>514.328325</ele>
        <time>2022-04-06T09:27:00.906Z</time>
      </trkpt>
      <trkpt lat="42.25775" lon="22.91569">
        <ele>514.096769</ele>
        <time>2022-04-06T09:27:03.873Z</time>
      </trkpt>
      <trkpt lat="42.25765" lon="22.91564">
        <ele>513.923</ele>
        <time>2022-04-06T09:27:05.880Z</time>
      </trkpt>
      <trkpt lat="42.25755" lon="22.9156">
        <ele>513.73445</ele>
        <time>2022-04-06T09:27:07.883Z</time>
      </trkpt>
      <trkpt lat="42.25744" lon="22.91555">
        <ele>513.531514</ele>
        <time>2022-04-06T09:27:09.870Z</time>
      </trkpt>
      <trkpt lat="42.25733" lon="22.9155">
        <ele>513.323292</ele>
        <time>2022-04-06T09:27:11.897Z</time>
      </trkpt>
      <trkpt lat="42.25722" lon="22.91544">
        <ele>513.107095</ele>
        <time>2022-04-06T09:27:13.879Z</time>
      </trkpt>
      <trkpt lat="42.25713" lon="22.91536">
        <ele>512.914821</ele>
        <time>2022-04-06T09:27:15.873Z</time>
      </trkpt>
      <trkpt lat="42.25701" lon="22.91528">
        <ele>512.673369</ele>
        <time>2022-04-06T09:27:17.876Z</time>
      </trkpt>
      <trkpt lat="42.2569" lon="22.9152">
        <ele>512.445014</ele>
        <time>2022-04-06T09:27:19.875Z</time>
      </trkpt>
      <trkpt lat="42.25679" lon="22.91512">
        <ele>512.221737</ele>
        <time>2022-04-06T09:27:21.884Z</time>
      </trkpt>
      <trkpt lat="42.25668" lon="22.91504">
        <ele>512.004102</ele>
        <time>2022-04-06T09:27:23.872Z</time>
      </trkpt>
      <trkpt lat="42.25658" lon="22.91496">
        <ele>511.790914</ele>
        <time>2022-04-06T09:27:25.883Z</time>
      </trkpt>
      <trkpt lat="42.25649" lon="22.91489">
        <ele>511.595964</ele>
        <time>2022-04-06T09:27:27.880Z</time>
      </trkpt>
      <trkpt lat="42.25637" lon="22.9148">
        <ele>511.362234</ele>
        <time>2022-04-06T09:27:29.872Z</time>
      </trkpt>
      <trkpt lat="42.25626" lon="22.91472">
        <ele>511.13674</ele>
        <time>2022-04-06T09:27:31.887Z</time>
      </trkpt>
      <trkpt lat="42.25616" lon="22.91464">
        <ele>510.916619</ele>
        <time>2022-04-06T09:27:33.899Z</time>
      </trkpt>
      <trkpt lat="42.25605" lon="22.91456">
        <ele>510.687615</ele>
        <time>2022-04-06T09:27:35.874Z</time>
      </trkpt>
      <trkpt lat="42.25593" lon="22.91447">
        <ele>510.498444</ele>
        <time>2022-04-06T09:27:37.871Z</time>
      </trkpt>
      <trkpt lat="42.25582" lon="22.91439">
        <ele>510.425071</ele>
        <time>2022-04-06T09:27:39.898Z</time>
      </trkpt>
      <trkpt lat="42.25569" lon="22.91429">
        <ele>510.348415</ele>
        <time>2022-04-06T09:27:41.877Z</time>
      </trkpt>
      <trkpt lat="42.25556" lon="22.91419">
        <ele>510.267047</ele>
        <time>2022-04-06T09:27:43.874Z</time>
      </trkpt>
      <trkpt lat="42.25544" lon="22.91409">
        <ele>510.187901</ele>
        <time>2022-04-06T09:27:45.870Z</time>
      </trkpt>
      <trkpt lat="42.25531" lon="22.91398">
        <ele>510.105032</ele>
        <time>2022-04-06T09:27:47.875Z</time>
      </trkpt>
      <trkpt lat="42.25517" lon="22.91387">
        <ele>510.016664</ele>
        <time>2022-04-06T09:27:49.880Z</time>
      </trkpt>
      <trkpt lat="42.25503" lon="22.91375">
        <ele>509.925731</ele>
        <time>2022-04-06T09:27:51.878Z</time>
      </trkpt>
      <trkpt lat="42.25489" lon="22.91364">
        <ele>509.835811</ele>
        <time>2022-04-06T09:27:53.912Z</time>
      </trkpt>
      <trkpt lat="42.25474" lon="22.91353">
        <ele>509.747376</ele>
        <time>2022-04-06T09:27:55.905Z</time>
      </trkpt>
      <trkpt lat="42.25461" lon="22.91342">
        <ele>509.661967</ele>
        <time>2022-04-06T09:27:57.880Z</time>
      </trkpt>
      <trkpt lat="42.25448" lon="22.91331">
        <ele>509.576863</ele>
        <time>2022-04-06T09:27:59.898Z</time>
      </trkpt>
      <trkpt lat="42.25435" lon="22.9132">
        <ele>509.417578</ele>
        <time>2022-04-06T09:28:01.900Z</time>
      </trkpt>
      <trkpt lat="42.25422" lon="22.91309">
        <ele>509.190625</ele>
        <time>2022-04-06T09:28:03.892Z</time>
      </trkpt>
      <trkpt lat="42.2541" lon="22.91299">
        <ele>508.963553</ele>
        <time>2022-04-06T09:28:05.877Z</time>
      </trkpt>
      <trkpt lat="42.25397" lon="22.91288">
        <ele>508.728411</ele>
        <time>2022-04-06T09:28:07.939Z</time>
      </trkpt>
      <trkpt lat="42.25384" lon="22.91277">
        <ele>508.491438</ele>
        <time>2022-04-06T09:28:09.903Z</time>
      </trkpt>
      <trkpt lat="42.25371" lon="22.91264">
        <ele>508.250609</ele>
        <time>2022-04-06T09:28:11.908Z</time>
      </trkpt>
      <trkpt lat="42.25358" lon="22.91252">
        <ele>508.014591</ele>
        <time>2022-04-06T09:28:13.911Z</time>
      </trkpt>
      <trkpt lat="42.25347" lon="22.91238">
        <ele>507.780795</ele>
        <time>2022-04-06T09:28:15.910Z</time>
      </trkpt>
      <trkpt lat="42.25335" lon="22.91225">
        <ele>507.552694</ele>
        <time>2022-04-06T09:28:17.893Z</time>
      </trkpt>
      <trkpt lat="42.25325" lon="22.91212">
        <ele>507.326178</ele>
        <time>2022-04-06T09:28:19.883Z</time>
      </trkpt>
      <trkpt lat="42.25314" lon="22.91198">
        <ele>507.103579</ele>
        <time>2022-04-06T09:28:21.897Z</time>
      </trkpt>
      <trkpt lat="42.25303" lon="22.91183">
        <ele>506.864506</ele>
        <time>2022-04-06T09:28:23.902Z</time>
      </trkpt>
      <trkpt lat="42.25292" lon="22.91168">
        <ele>506.478553</ele>
        <time>2022-04-06T09:28:25.895Z</time>
      </trkpt>
      <trkpt lat="42.25282" lon="22.91151">
        <ele>506.031749</ele>
        <time>2022-04-06T09:28:27.906Z</time>
      </trkpt>
      <trkpt lat="42.25273" lon="22.91135">
        <ele>505.592312</ele>
        <time>2022-04-06T09:28:29.902Z</time>
      </trkpt>
      <trkpt lat="42.25264" lon="22.91118">
        <ele>505.154567</ele>
        <time>2022-04-06T09:28:31.898Z</time>
      </trkpt>
      <trkpt lat="42.25255" lon="22.91101">
        <ele>504.721592</ele>
        <time>2022-04-06T09:28:33.897Z</time>
      </trkpt>
      <trkpt lat="42.25247" lon="22.91084">
        <ele>504.27999</ele>
        <time>2022-04-06T09:28:35.899Z</time>
      </trkpt>
      <trkpt lat="42.25238" lon="22.91066">
        <ele>503.827283</ele>
        <time>2022-04-06T09:28:37.887Z</time>
      </trkpt>
      <trkpt lat="42.2523" lon="22.91049">
        <ele>503.406139</ele>
        <time>2022-04-06T09:28:39.885Z</time>
      </trkpt>
      <trkpt lat="42.25223" lon="22.91034">
        <ele>503.016564</ele>
        <time>2022-04-06T09:28:41.936Z</time>
      </trkpt>
      <trkpt lat="42.25216" lon="22.91018">
        <ele>502.629042</ele>
        <time>2022-04-06T09:28:43.910Z</time>
      </trkpt>
      <trkpt lat="42.25208" lon="22.91002">
        <ele>502.225644</ele>
        <time>2022-04-06T09:28:45.883Z</time>
      </trkpt>
      <trkpt lat="42.25201" lon="22.90987">
        <ele>501.838122</ele>
        <time>2022-04-06T09:28:47.881Z</time>
      </trkpt>
      <trkpt lat="42.25194" lon="22.90972">
        <ele>501.56668</ele>
        <time>2022-04-06T09:28:49.903Z</time>
      </trkpt>
      <trkpt lat="42.25187" lon="22.90957">
        <ele>501.425381</ele>
        <time>2022-04-06T09:28:51.908Z</time>
      </trkpt>
      <trkpt lat="42.2518" lon="22.90943">
        <ele>501.278165</ele>
        <time>2022-04-06T09:28:53.930Z</time>
      </trkpt>
      <trkpt lat="42.25173" lon="22.90928">
        <ele>501.126054</ele>
        <time>2022-04-06T09:28:55.934Z</time>
      </trkpt>
      <trkpt lat="42.25166" lon="22.90912">
        <ele>500.973226</ele>
        <time>2022-04-06T09:28:57.877Z</time>
      </trkpt>
      <trkpt lat="42.25159" lon="22.90897">
        <ele>500.824363</ele>
        <time>2022-04-06T09:28:59.888Z</time>
      </trkpt>
      <trkpt lat="42.25153" lon="22.90882">
        <ele>500.675501</ele>
        <time>2022-04-06T09:29:01.898Z</time>
      </trkpt>
      <trkpt lat="42.25146" lon="22.90868">
        <ele>500.529514</ele>
        <time>2022-04-06T09:29:03.926Z</time>
      </trkpt>
      <trkpt lat="42.25139" lon="22.90854">
        <ele>500.393218</ele>
        <time>2022-04-06T09:29:05.951Z</time>
      </trkpt>
      <trkpt lat="42.25133" lon="22.90841">
        <ele>500.262953</ele>
        <time>2022-04-06T09:29:07.887Z</time>
      </trkpt>
      <trkpt lat="42.25127" lon="22.90828">
        <ele>500.131858</ele>
        <time>2022-04-06T09:29:09.898Z</time>
      </trkpt>
      <trkpt lat="42.25121" lon="22.90816">
        <ele>500.004573</ele>
        <time>2022-04-06T09:29:11.898Z</time>
      </trkpt>
      <trkpt lat="42.25115" lon="22.90803">
        <ele>499.87307</ele>
        <time>2022-04-06T09:29:13.896Z</time>
      </trkpt>
      <trkpt lat="42.25108" lon="22.90788">
        <ele>499.729936</ele>
        <time>2022-04-06T09:29:15.898Z</time>
      </trkpt>
      <trkpt lat="42.25101" lon="22.90774">
        <ele>499.584555</ele>
        <time>2022-04-06T09:29:17.887Z</time>
      </trkpt>
      <trkpt lat="42.25095" lon="22.9076">
        <ele>499.461694</ele>
        <time>2022-04-06T09:29:19.888Z</time>
      </trkpt>
      <trkpt lat="42.25088" lon="22.90745">
        <ele>499.332335</ele>
        <time>2022-04-06T09:29:21.931Z</time>
      </trkpt>
      <trkpt lat="42.25081" lon="22.90729">
        <ele>499.19508</ele>
        <time>2022-04-06T09:29:23.901Z</time>
      </trkpt>
      <trkpt lat="42.25074" lon="22.90715">
        <ele>499.06518</ele>
        <time>2022-04-06T09:29:25.910Z</time>
      </trkpt>
      <trkpt lat="42.25067" lon="22.90699">
        <ele>498.934857</ele>
        <time>2022-04-06T09:29:27.884Z</time>
      </trkpt>
      <trkpt lat="42.25061" lon="22.90685">
        <ele>498.806325</ele>
        <time>2022-04-06T09:29:29.912Z</time>
      </trkpt>
      <trkpt lat="42.25055" lon="22.9067">
        <ele>498.680556</ele>
        <time>2022-04-06T09:29:31.913Z</time>
      </trkpt>
      <trkpt lat="42.25049" lon="22.90655">
        <ele>498.558147</ele>
        <time>2022-04-06T09:29:33.928Z</time>
      </trkpt>
      <trkpt lat="42.25044" lon="22.9064">
        <ele>498.438335</ele>
        <time>2022-04-06T09:29:35.914Z</time>
      </trkpt>
      <trkpt lat="42.2504" lon="22.90627">
        <ele>498.328031</ele>
        <time>2022-04-06T09:29:37.896Z</time>
      </trkpt>
      <trkpt lat="42.25036" lon="22.90613">
        <ele>498.21789</ele>
        <time>2022-04-06T09:29:39.935Z</time>
      </trkpt>
      <trkpt lat="42.25032" lon="22.90599">
        <ele>498.106373</ele>
        <time>2022-04-06T09:29:41.910Z</time>
      </trkpt>
      <trkpt lat="42.25029" lon="22.90584">
        <ele>497.990906</ele>
        <time>2022-04-06T09:29:43.915Z</time>
      </trkpt>
      <trkpt lat="42.25025" lon="22.90568">
        <ele>497.86704</ele>
        <time>2022-04-06T09:29:45.894Z</time>
      </trkpt>
      <trkpt lat="42.25021" lon="22.9055">
        <ele>497.681338</ele>
        <time>2022-04-06T09:29:47.884Z</time>
      </trkpt>
      <trkpt lat="42.25018" lon="22.90531">
        <ele>497.418935</ele>
        <time>2022-04-06T09:29:49.902Z</time>
      </trkpt>
      <trkpt lat="42.25015" lon="22.90513">
        <ele>497.156087</ele>
        <time>2022-04-06T09:29:51.916Z</time>
      </trkpt>
      <trkpt lat="42.25012" lon="22.90495">
        <ele>496.900207</ele>
        <time>2022-04-06T09:29:53.910Z</time>
      </trkpt>
      <trkpt lat="42.25011" lon="22.90478">
        <ele>496.655403</ele>
        <time>2022-04-06T09:29:55.897Z</time>
      </trkpt>
      <trkpt lat="42.25009" lon="22.90462">
        <ele>496.430314</ele>
        <time>2022-04-06T09:29:57.886Z</time>
      </trkpt>
      <trkpt lat="42.25008" lon="22.90447">
        <ele>496.214492</ele>
        <time>2022-04-06T09:29:59.908Z</time>
      </trkpt>
      <trkpt lat="42.25007" lon="22.90432">
        <ele>496.003662</ele>
        <time>2022-04-06T09:30:01.900Z</time>
      </trkpt>
      <trkpt lat="42.25007" lon="22.90416">
        <ele>495.780617</ele>
        <time>2022-04-06T09:30:03.895Z</time>
      </trkpt>
      <trkpt lat="42.25007" lon="22.904">
        <ele>495.554767</ele>
        <time>2022-04-06T09:30:05.909Z</time>
      </trkpt>
      <trkpt lat="42.25007" lon="22.90383">
        <ele>495.324685</ele>
        <time>2022-04-06T09:30:07.889Z</time>
      </trkpt>
      <trkpt lat="42.25008" lon="22.90367">
        <ele>495.088901</ele>
        <time>2022-04-06T09:30:09.887Z</time>
      </trkpt>
      <trkpt lat="42.25008" lon="22.90349">
        <ele>494.847361</ele>
        <time>2022-04-06T09:30:11.916Z</time>
      </trkpt>
      <trkpt lat="42.25009" lon="22.90332">
        <ele>494.598814</ele>
        <time>2022-04-06T09:30:13.895Z</time>
      </trkpt>
      <trkpt lat="42.2501" lon="22.90314">
        <ele>494.381331</ele>
        <time>2022-04-06T09:30:15.887Z</time>
      </trkpt>
      <trkpt lat="42.2501" lon="22.90296">
        <ele>494.607518</ele>
        <time>2022-04-06T09:30:17.885Z</time>
      </trkpt>
      <trkpt lat="42.25011" lon="22.90278">
        <ele>494.840618</ele>
        <time>2022-04-06T09:30:19.928Z</time>
      </trkpt>
      <trkpt lat="42.25012" lon="22.90261">
        <ele>495.064445</ele>
        <time>2022-04-06T09:30:21.902Z</time>
      </trkpt>
      <trkpt lat="42.25014" lon="22.90245">
        <ele>495.280277</ele>
        <time>2022-04-06T09:30:23.899Z</time>
      </trkpt>
      <trkpt lat="42.25015" lon="22.90229">
        <ele>495.477223</ele>
        <time>2022-04-06T09:30:25.927Z</time>
      </trkpt>
      <trkpt lat="42.25016" lon="22.90215">
        <ele>495.663732</ele>
        <time>2022-04-06T09:30:27.884Z</time>
      </trkpt>
      <trkpt lat="42.25016" lon="22.90201">
        <ele>495.838392</ele>
        <time>2022-04-06T09:30:29.909Z</time>
      </trkpt>
      <trkpt lat="42.25017" lon="22.90184">
        <ele>496.063019</ele>
        <time>2022-04-06T09:30:32.907Z</time>
      </trkpt>
      <trkpt lat="42.25016" lon="22.90169">
        <ele>496.260605</ele>
        <time>2022-04-06T09:30:35.904Z</time>
      </trkpt>
      <trkpt lat="42.25016" lon="22.90154">
        <ele>496.446658</ele>
        <time>2022-04-06T09:30:38.903Z</time>
      </trkpt>
      <trkpt lat="42.25015" lon="22.90142">
        <ele>496.607461</ele>
        <time>2022-04-06T09:30:41.906Z</time>
      </trkpt>
      <trkpt lat="42.25014" lon="22.90127">
        <ele>496.800551</ele>
        <time>2022-04-06T09:30:45.899Z</time>
      </trkpt>
      <trkpt lat="42.25012" lon="22.90113">
        <ele>496.98312</ele>
        <time>2022-04-06T09:30:49.929Z</time>
      </trkpt>
      <trkpt lat="42.2501" lon="22.901">
        <ele>497.154138</ele>
        <time>2022-04-06T09:30:53.895Z</time>
      </trkpt>
      <trkpt lat="42.25008" lon="22.90088">
        <ele>497.31787</ele>
        <time>2022-04-06T09:30:57.899Z</time>
      </trkpt>
      <trkpt lat="42.25005" lon="22.90074">
        <ele>497.504541</ele>
        <time>2022-04-06T09:31:02.891Z</time>
      </trkpt>
      <trkpt lat="42.25002" lon="22.9006">
        <ele>497.592349</ele>
        <time>2022-04-06T09:31:07.895Z</time>
      </trkpt>
      <trkpt lat="42.24999" lon="22.90048">
        <ele>497.675706</ele>
        <time>2022-04-06T09:31:12.908Z</time>
      </trkpt>
      <trkpt lat="42.24995" lon="22.90035">
        <ele>497.759636</ele>
        <time>2022-04-06T09:31:17.888Z</time>
      </trkpt>
      <trkpt lat="42.24991" lon="22.90024">
        <ele>497.84065</ele>
        <time>2022-04-06T09:31:22.888Z</time>
      </trkpt>
      <trkpt lat="42.24987" lon="22.90012">
        <ele>497.924168</ele>
        <time>2022-04-06T09:31:27.871Z</time>
      </trkpt>
      <trkpt lat="42.24983" lon="22.90001">
        <ele>498.003523</ele>
        <time>2022-04-06T09:31:32.899Z</time>
      </trkpt>
      <trkpt lat="42.24978" lon="22.89989">
        <ele>498.086494</ele>
        <time>2022-04-06T09:31:37.890Z</time>
      </trkpt>
      <trkpt lat="42.24972" lon="22.89978">
        <ele>498.172324</ele>
        <time>2022-04-06T09:31:42.908Z</time>
      </trkpt>
      <trkpt lat="42.24966" lon="22.89965">
        <ele>498.268599</ele>
        <time>2022-04-06T09:31:47.893Z</time>
      </trkpt>
      <trkpt lat="42.24961" lon="22.89955">
        <ele>498.348219</ele>
        <time>2022-04-06T09:31:51.894Z</time>
      </trkpt>
      <trkpt lat="42.24955" lon="22.89945">
        <ele>498.427766</ele>
        <time>2022-04-06T09:31:55.901Z</time>
      </trkpt>
      <trkpt lat="42.2495" lon="22.89935">
        <ele>498.505279</ele>
        <time>2022-04-06T09:31:59.947Z</time>
      </trkpt>
      <trkpt lat="42.24944" lon="22.89924">
        <ele>498.586367</ele>
        <time>2022-04-06T09:32:03.898Z</time>
      </trkpt>
      <trkpt lat="42.24938" lon="22.89912">
        <ele>498.681321</ele>
        <time>2022-04-06T09:32:08.907Z</time>
      </trkpt>
      <trkpt lat="42.24933" lon="22.89902">
        <ele>498.759347</ele>
        <time>2022-04-06T09:32:12.979Z</time>
      </trkpt>
      <trkpt lat="42.24926" lon="22.8989">
        <ele>498.853074</ele>
        <time>2022-04-06T09:32:17.903Z</time>
      </trkpt>
      <trkpt lat="42.24921" lon="22.8988">
        <ele>498.931597</ele>
        <time>2022-04-06T09:32:21.911Z</time>
      </trkpt>
      <trkpt lat="42.24915" lon="22.8987">
        <ele>499.010183</ele>
        <time>2022-04-06T09:32:25.905Z</time>
      </trkpt>
      <trkpt lat="42.24909" lon="22.89861">
        <ele>499.376114</ele>
        <time>2022-04-06T09:32:29.922Z</time>
      </trkpt>
      <trkpt lat="42.24902" lon="22.89851">
        <ele>499.928241</ele>
        <time>2022-04-06T09:32:34.918Z</time>
      </trkpt>
      <trkpt lat="42.24897" lon="22.89841">
        <ele>500.42997</ele>
        <time>2022-04-06T09:32:38.895Z</time>
      </trkpt>
      <trkpt lat="42.2489" lon="22.89831">
        <ele>500.993863</ele>
        <time>2022-04-06T09:32:42.892Z</time>
      </trkpt>
      <trkpt lat="42.24884" lon="22.89821">
        <ele>501.507596</ele>
        <time>2022-04-06T09:32:46.917Z</time>
      </trkpt>
      <trkpt lat="42.24878" lon="22.89811">
        <ele>502.035522</ele>
        <time>2022-04-06T09:32:50.928Z</time>
      </trkpt>
      <trkpt lat="42.24872" lon="22.898">
        <ele>502.5924</ele>
        <time>2022-04-06T09:32:54.903Z</time>
      </trkpt>
      <trkpt lat="42.24866" lon="22.8979">
        <ele>503.096595</ele>
        <time>2022-04-06T09:32:58.890Z</time>
      </trkpt>
      <trkpt lat="42.2486" lon="22.8978">
        <ele>503.659806</ele>
        <time>2022-04-06T09:33:02.861Z</time>
      </trkpt>
      <trkpt lat="42.24853" lon="22.89768">
        <ele>504.22924</ele>
        <time>2022-04-06T09:33:06.895Z</time>
      </trkpt>
      <trkpt lat="42.24847" lon="22.89757">
        <ele>504.81184</ele>
        <time>2022-04-06T09:33:10.913Z</time>
      </trkpt>
      <trkpt lat="42.24841" lon="22.89745">
        <ele>505.404143</ele>
        <time>2022-04-06T09:33:15.007Z</time>
      </trkpt>
      <trkpt lat="42.24835" lon="22.89734">
        <ele>505.947453</ele>
        <time>2022-04-06T09:33:18.876Z</time>
      </trkpt>
      <trkpt lat="42.24829" lon="22.89724">
        <ele>506.503858</ele>
        <time>2022-04-06T09:33:22.896Z</time>
      </trkpt>
      <trkpt lat="42.24824" lon="22.89712">
        <ele>507.0396</ele>
        <time>2022-04-06T09:33:26.895Z</time>
      </trkpt>
      <trkpt lat="42.24819" lon="22.897">
        <ele>507.612726</ele>
        <time>2022-04-06T09:33:30.878Z</time>
      </trkpt>
      <trkpt lat="42.24814" lon="22.89687">
        <ele>508.213368</ele>
        <time>2022-04-06T09:33:34.877Z</time>
      </trkpt>
      <trkpt lat="42.24809" lon="22.89674">
        <ele>508.795057</ele>
        <time>2022-04-06T09:33:38.879Z</time>
      </trkpt>
      <trkpt lat="42.24805" lon="22.89661">
        <ele>509.142723</ele>
        <time>2022-04-06T09:33:42.885Z</time>
      </trkpt>
      <trkpt lat="42.24802" lon="22.89646">
        <ele>509.431512</ele>
        <time>2022-04-06T09:33:46.873Z</time>
      </trkpt>
      <trkpt lat="42.24798" lon="22.89632">
        <ele>509.720301</ele>
        <time>2022-04-06T09:33:50.881Z</time>
      </trkpt>
      <trkpt lat="42.24796" lon="22.89619">
        <ele>509.972705</ele>
        <time>2022-04-06T09:33:54.874Z</time>
      </trkpt>
      <trkpt lat="42.24795" lon="22.89606">
        <ele>510.232216</ele>
        <time>2022-04-06T09:33:58.871Z</time>
      </trkpt>
      <trkpt lat="42.24794" lon="22.89593">
        <ele>510.485432</ele>
        <time>2022-04-06T09:34:02.900Z</time>
      </trkpt>
      <trkpt lat="42.24793" lon="22.89579">
        <ele>510.758575</ele>
        <time>2022-04-06T09:34:06.894Z</time>
      </trkpt>
      <trkpt lat="42.24794" lon="22.89565">
        <ele>511.027811</ele>
        <time>2022-04-06T09:34:10.886Z</time>
      </trkpt>
      <trkpt lat="42.24794" lon="22.89551">
        <ele>511.287708</ele>
        <time>2022-04-06T09:34:14.874Z</time>
      </trkpt>
      <trkpt lat="42.24795" lon="22.89539">
        <ele>511.528509</ele>
        <time>2022-04-06T09:34:18.876Z</time>
      </trkpt>
      <trkpt lat="42.24797" lon="22.89526">
        <ele>511.780913</ele>
        <time>2022-04-06T09:34:22.876Z</time>
      </trkpt>
      <trkpt lat="42.248" lon="22.89512">
        <ele>512.053506</ele>
        <time>2022-04-06T09:34:26.873Z</time>
      </trkpt>
      <trkpt lat="42.24803" lon="22.89499">
        <ele>512.324231</ele>
        <time>2022-04-06T09:34:30.875Z</time>
      </trkpt>
      <trkpt lat="42.24807" lon="22.89486">
        <ele>512.592028</ele>
        <time>2022-04-06T09:34:34.890Z</time>
      </trkpt>
      <trkpt lat="42.24811" lon="22.89474">
        <ele>512.846827</ele>
        <time>2022-04-06T09:34:38.901Z</time>
      </trkpt>
      <trkpt lat="42.24815" lon="22.8946">
        <ele>513.128465</ele>
        <time>2022-04-06T09:34:42.893Z</time>
      </trkpt>
      <trkpt lat="42.24821" lon="22.89447">
        <ele>513.421662</ele>
        <time>2022-04-06T09:34:46.895Z</time>
      </trkpt>
      <trkpt lat="42.24827" lon="22.89434">
        <ele>513.59456</ele>
        <time>2022-04-06T09:34:50.908Z</time>
      </trkpt>
      <trkpt lat="42.24833" lon="22.89422">
        <ele>513.586061</ele>
        <time>2022-04-06T09:34:54.875Z</time>
      </trkpt>
      <trkpt lat="42.24839" lon="22.89411">
        <ele>513.579166</ele>
        <time>2022-04-06T09:34:57.907Z</time>
      </trkpt>
      <trkpt lat="42.24844" lon="22.894">
        <ele>513.571866</ele>
        <time>2022-04-06T09:35:00.932Z</time>
      </trkpt>
      <trkpt lat="42.2485" lon="22.89389">
        <ele>513.564352</ele>
        <time>2022-04-06T09:35:03.902Z</time>
      </trkpt>
      <trkpt lat="42.24856" lon="22.89378">
        <ele>513.556484</ele>
        <time>2022-04-06T09:35:06.906Z</time>
      </trkpt>
      <trkpt lat="42.24863" lon="22.89366">
        <ele>513.548394</ele>
        <time>2022-04-06T09:35:09.905Z</time>
      </trkpt>
      <trkpt lat="42.24869" lon="22.89354">
        <ele>513.54004</ele>
        <time>2022-04-06T09:35:12.893Z</time>
      </trkpt>
      <trkpt lat="42.24875" lon="22.89341">
        <ele>513.531985</ele>
        <time>2022-04-06T09:35:15.889Z</time>
      </trkpt>
      <trkpt lat="42.24882" lon="22.89329">
        <ele>513.523844</ele>
        <time>2022-04-06T09:35:18.904Z</time>
      </trkpt>
      <trkpt lat="42.24888" lon="22.89317">
        <ele>513.515661</ele>
        <time>2022-04-06T09:35:21.898Z</time>
      </trkpt>
      <trkpt lat="42.24893" lon="22.89304">
        <ele>513.507379</ele>
        <time>2022-04-06T09:35:24.911Z</time>
      </trkpt>
      <trkpt lat="42.24899" lon="22.8929">
        <ele>513.498785</ele>
        <time>2022-04-06T09:35:27.886Z</time>
      </trkpt>
      <trkpt lat="42.24904" lon="22.89276">
        <ele>513.490402</ele>
        <time>2022-04-06T09:35:30.915Z</time>
      </trkpt>
      <trkpt lat="42.24908" lon="22.89263">
        <ele>513.48253</ele>
        <time>2022-04-06T09:35:33.934Z</time>
      </trkpt>
      <trkpt lat="42.24913" lon="22.8925">
        <ele>513.474288</ele>
        <time>2022-04-06T09:35:36.908Z</time>
      </trkpt>
      <trkpt lat="42.24916" lon="22.89235">
        <ele>513.465854</ele>
        <time>2022-04-06T09:35:39.902Z</time>
      </trkpt>
      <trkpt lat="42.2492" lon="22.8922">
        <ele>513.003793</ele>
        <time>2022-04-06T09:35:42.930Z</time>
      </trkpt>
      <trkpt lat="42.24924" lon="22.89204">
        <ele>512.407201</ele>
        <time>2022-04-06T09:35:45.913Z</time>
      </trkpt>
      <trkpt lat="42.24927" lon="22.89187">
        <ele>511.781701</ele>
        <time>2022-04-06T09:35:48.899Z</time>
      </trkpt>
      <trkpt lat="42.24931" lon="22.8917">
        <ele>511.162252</ele>
        <time>2022-04-06T09:35:51.936Z</time>
      </trkpt>
      <trkpt lat="42.24935" lon="22.89153">
        <ele>510.53294</ele>
        <time>2022-04-06T09:35:54.886Z</time>
      </trkpt>
      <trkpt lat="42.24937" lon="22.89141">
        <ele>510.063971</ele>
        <time>2022-04-06T09:35:56.902Z</time>
      </trkpt>
      <trkpt lat="42.24941" lon="22.89126">
        <ele>509.51924</ele>
        <time>2022-04-06T09:35:58.897Z</time>
      </trkpt>
      <trkpt lat="42.24944" lon="22.89112">
        <ele>508.984672</ele>
        <time>2022-04-06T09:36:00.902Z</time>
      </trkpt>
      <trkpt lat="42.24947" lon="22.89098">
        <ele>508.461752</ele>
        <time>2022-04-06T09:36:02.898Z</time>
      </trkpt>
      <trkpt lat="42.2495" lon="22.89085">
        <ele>507.989424</ele>
        <time>2022-04-06T09:36:04.912Z</time>
      </trkpt>
      <trkpt lat="42.24953" lon="22.8907">
        <ele>507.430417</ele>
        <time>2022-04-06T09:36:07.894Z</time>
      </trkpt>
      <trkpt lat="42.24957" lon="22.89055">
        <ele>506.8861</ele>
        <time>2022-04-06T09:36:10.896Z</time>
      </trkpt>
      <trkpt lat="42.24961" lon="22.89043">
        <ele>506.39346</ele>
        <time>2022-04-06T09:36:13.897Z</time>
      </trkpt>
      <trkpt lat="42.24965" lon="22.8903">
        <ele>505.887263</ele>
        <time>2022-04-06T09:36:16.899Z</time>
      </trkpt>
      <trkpt lat="42.2497" lon="22.89016">
        <ele>505.336141</ele>
        <time>2022-04-06T09:36:19.895Z</time>
      </trkpt>
      <trkpt lat="42.24977" lon="22.89">
        <ele>504.710278</ele>
        <time>2022-04-06T09:36:22.915Z</time>
      </trkpt>
      <trkpt lat="42.24983" lon="22.88986">
        <ele>504.196971</ele>
        <time>2022-04-06T09:36:25.930Z</time>
      </trkpt>
      <trkpt lat="42.2499" lon="22.88973">
        <ele>503.738167</ele>
        <time>2022-04-06T09:36:28.895Z</time>
      </trkpt>
      <trkpt lat="42.24997" lon="22.88961">
        <ele>503.267151</ele>
        <time>2022-04-06T09:36:31.900Z</time>
      </trkpt>
      <trkpt lat="42.25004" lon="22.88949">
        <ele>502.798069</ele>
        <time>2022-04-06T09:36:34.893Z</time>
      </trkpt>
      <trkpt lat="42.25013" lon="22.88937">
        <ele>502.280661</ele>
        <time>2022-04-06T09:36:37.889Z</time>
      </trkpt>
      <trkpt lat="42.25019" lon="22.88927">
        <ele>501.892458</ele>
        <time>2022-04-06T09:36:39.892Z</time>
      </trkpt>
      <trkpt lat="42.25026" lon="22.88918">
        <ele>501.484151</ele>
        <time>2022-04-06T09:36:41.869Z</time>
      </trkpt>
      <trkpt lat="42.25033" lon="22.88909">
        <ele>501.09888</ele>
        <time>2022-04-06T09:36:43.901Z</time>
      </trkpt>
      <trkpt lat="42.25039" lon="22.889">
        <ele>500.721567</ele>
        <time>2022-04-06T09:36:45.895Z</time>
      </trkpt>
      <trkpt lat="42.25048" lon="22.88887">
        <ele>500.192315</ele>
        <time>2022-04-06T09:36:48.906Z</time>
      </trkpt>
      <trkpt lat="42.25055" lon="22.88878">
        <ele>499.790525</ele>
        <time>2022-04-06T09:36:50.896Z</time>
      </trkpt>
      <trkpt lat="42.25063" lon="22.88869">
        <ele>499.361949</ele>
        <time>2022-04-06T09:36:52.897Z</time>
      </trkpt>
      <trkpt lat="42.25071" lon="22.88859">
        <ele>498.929066</ele>
        <time>2022-04-06T09:36:54.896Z</time>
      </trkpt>
      <trkpt lat="42.25078" lon="22.88848">
        <ele>498.483959</ele>
        <time>2022-04-06T09:36:56.896Z</time>
      </trkpt>
      <trkpt lat="42.25087" lon="22.88838">
        <ele>498.017327</ele>
        <time>2022-04-06T09:36:58.896Z</time>
      </trkpt>
      <trkpt lat="42.25094" lon="22.88827">
        <ele>497.570886</ele>
        <time>2022-04-06T09:37:00.903Z</time>
      </trkpt>
      <trkpt lat="42.25102" lon="22.88817">
        <ele>497.199569</ele>
        <time>2022-04-06T09:37:02.895Z</time>
      </trkpt>
      <trkpt lat="42.2511" lon="22.88806">
        <ele>496.868717</ele>
        <time>2022-04-06T09:37:04.897Z</time>
      </trkpt>
      <trkpt lat="42.25117" lon="22.88796">
        <ele>496.551067</ele>
        <time>2022-04-06T09:37:06.912Z</time>
      </trkpt>
      <trkpt lat="42.25126" lon="22.88785">
        <ele>496.21377</ele>
        <time>2022-04-06T09:37:08.906Z</time>
      </trkpt>
      <trkpt lat="42.25134" lon="22.88774">
        <ele>495.851752</ele>
        <time>2022-04-06T09:37:10.890Z</time>
      </trkpt>
      <trkpt lat="42.25142" lon="22.88763">
        <ele>495.5055</ele>
        <time>2022-04-06T09:37:12.900Z</time>
      </trkpt>
      <trkpt lat="42.25151" lon="22.88752">
        <ele>495.158831</ele>
        <time>2022-04-06T09:37:14.909Z</time>
      </trkpt>
      <trkpt lat="42.25159" lon="22.88742">
        <ele>494.81565</ele>
        <time>2022-04-06T09:37:16.899Z</time>
      </trkpt>
      <trkpt lat="42.25167" lon="22.88731">
        <ele>494.477017</ele>
        <time>2022-04-06T09:37:18.906Z</time>
      </trkpt>
      <trkpt lat="42.25175" lon="22.88722">
        <ele>494.159978</ele>
        <time>2022-04-06T09:37:20.935Z</time>
      </trkpt>
      <trkpt lat="42.25182" lon="22.88713">
        <ele>493.870412</ele>
        <time>2022-04-06T09:37:22.900Z</time>
      </trkpt>
      <trkpt lat="42.25189" lon="22.88705">
        <ele>493.600937</ele>
        <time>2022-04-06T09:37:24.907Z</time>
      </trkpt>
      <trkpt lat="42.25199" lon="22.88695">
        <ele>493.215628</ele>
        <time>2022-04-06T09:37:27.890Z</time>
      </trkpt>
      <trkpt lat="42.25208" lon="22.88685">
        <ele>492.872963</ele>
        <time>2022-04-06T09:37:30.889Z</time>
      </trkpt>
      <trkpt lat="42.25217" lon="22.88677">
        <ele>492.55923</ele>
        <time>2022-04-06T09:37:33.909Z</time>
      </trkpt>
      <trkpt lat="42.25226" lon="22.88669">
        <ele>492.23894</ele>
        <time>2022-04-06T09:37:36.935Z</time>
      </trkpt>
      <trkpt lat="42.25236" lon="22.88662">
        <ele>492.124545</ele>
        <time>2022-04-06T09:37:39.887Z</time>
      </trkpt>
      <trkpt lat="42.25245" lon="22.88656">
        <ele>492.318084</ele>
        <time>2022-04-06T09:37:42.899Z</time>
      </trkpt>
      <trkpt lat="42.25254" lon="22.8865">
        <ele>492.506968</ele>
        <time>2022-04-06T09:37:45.914Z</time>
      </trkpt>
      <trkpt lat="42.25263" lon="22.88644">
        <ele>492.709583</ele>
        <time>2022-04-06T09:37:48.901Z</time>
      </trkpt>
      <trkpt lat="42.25273" lon="22.88639">
        <ele>492.896363</ele>
        <time>2022-04-06T09:37:51.926Z</time>
      </trkpt>
      <trkpt lat="42.25282" lon="22.88635">
        <ele>493.084433</ele>
        <time>2022-04-06T09:37:54.901Z</time>
      </trkpt>
      <trkpt lat="42.25291" lon="22.88631">
        <ele>493.265935</ele>
        <time>2022-04-06T09:37:57.932Z</time>
      </trkpt>
      <trkpt lat="42.253" lon="22.88628">
        <ele>493.445994</ele>
        <time>2022-04-06T09:38:00.897Z</time>
      </trkpt>
      <trkpt lat="42.25309" lon="22.88625">
        <ele>493.620767</ele>
        <time>2022-04-06T09:38:03.928Z</time>
      </trkpt>
      <trkpt lat="42.25319" lon="22.88623">
        <ele>493.815509</ele>
        <time>2022-04-06T09:38:06.895Z</time>
      </trkpt>
      <trkpt lat="42.2533" lon="22.88621">
        <ele>494.011659</ele>
        <time>2022-04-06T09:38:09.891Z</time>
      </trkpt>
      <trkpt lat="42.2534" lon="22.88618">
        <ele>494.211782</ele>
        <time>2022-04-06T09:38:12.904Z</time>
      </trkpt>
      <trkpt lat="42.25349" lon="22.88617">
        <ele>494.393762</ele>
        <time>2022-04-06T09:38:15.895Z</time>
      </trkpt>
      <trkpt lat="42.2536" lon="22.88615">
        <ele>494.593248</ele>
        <time>2022-04-06T09:38:18.907Z</time>
      </trkpt>
      <trkpt lat="42.25371" lon="22.88613">
        <ele>494.797531</ele>
        <time>2022-04-06T09:38:21.911Z</time>
      </trkpt>
      <trkpt lat="42.25381" lon="22.88612">
        <ele>494.999314</ele>
        <time>2022-04-06T09:38:24.898Z</time>
      </trkpt>
      <trkpt lat="42.25391" lon="22.8861">
        <ele>495.193817</ele>
        <time>2022-04-06T09:38:27.875Z</time>
      </trkpt>
      <trkpt lat="42.25402" lon="22.88609">
        <ele>495.40688</ele>
        <time>2022-04-06T09:38:30.896Z</time>
      </trkpt>
      <trkpt lat="42.25414" lon="22.88608">
        <ele>495.388622</ele>
        <time>2022-04-06T09:38:33.921Z</time>
      </trkpt>
      <trkpt lat="42.25425" lon="22.88607">
        <ele>495.305194</ele>
        <time>2022-04-06T09:38:36.903Z</time>
      </trkpt>
      <trkpt lat="42.25436" lon="22.88605">
        <ele>495.223226</ele>
        <time>2022-04-06T09:38:39.934Z</time>
      </trkpt>
      <trkpt lat="42.25447" lon="22.88604">
        <ele>495.139173</ele>
        <time>2022-04-06T09:38:42.912Z</time>
      </trkpt>
      <trkpt lat="42.25459" lon="22.88603">
        <ele>495.055323</ele>
        <time>2022-04-06T09:38:45.906Z</time>
      </trkpt>
      <trkpt lat="42.25471" lon="22.88602">
        <ele>494.968391</ele>
        <time>2022-04-06T09:38:48.894Z</time>
      </trkpt>
      <trkpt lat="42.25482" lon="22.88601">
        <ele>494.882308</ele>
        <time>2022-04-06T09:38:51.900Z</time>
      </trkpt>
      <trkpt lat="42.25494" lon="22.88598">
        <ele>494.797024</ele>
        <time>2022-04-06T09:38:54.895Z</time>
      </trkpt>
      <trkpt lat="42.25506" lon="22.88596">
        <ele>494.707606</ele>
        <time>2022-04-06T09:38:57.901Z</time>
      </trkpt>
      <trkpt lat="42.25518" lon="22.88591">
        <ele>494.615162</ele>
        <time>2022-04-06T09:39:00.913Z</time>
      </trkpt>
      <trkpt lat="42.25531" lon="22.88586">
        <ele>494.516619</ele>
        <time>2022-04-06T09:39:03.923Z</time>
      </trkpt>
      <trkpt lat="42.25543" lon="22.8858">
        <ele>494.420324</ele>
        <time>2022-04-06T09:39:06.943Z</time>
      </trkpt>
      <trkpt lat="42.25555" lon="22.88573">
        <ele>494.325475</ele>
        <time>2022-04-06T09:39:09.916Z</time>
      </trkpt>
      <trkpt lat="42.25567" lon="22.88564">
        <ele>494.225709</ele>
        <time>2022-04-06T09:39:12.940Z</time>
      </trkpt>
      <trkpt lat="42.25575" lon="22.88557">
        <ele>494.157219</ele>
        <time>2022-04-06T09:39:14.878Z</time>
      </trkpt>
      <trkpt lat="42.25585" lon="22.88548">
        <ele>493.929233</ele>
        <time>2022-04-06T09:39:17.880Z</time>
      </trkpt>
      <trkpt lat="42.25593" lon="22.8854">
        <ele>493.714358</ele>
        <time>2022-04-06T09:39:19.911Z</time>
      </trkpt>
      <trkpt lat="42.25601" lon="22.88532">
        <ele>493.493774</ele>
        <time>2022-04-06T09:39:21.894Z</time>
      </trkpt>
      <trkpt lat="42.25609" lon="22.88524">
        <ele>493.265458</ele>
        <time>2022-04-06T09:39:23.899Z</time>
      </trkpt>
      <trkpt lat="42.25617" lon="22.88515">
        <ele>493.040877</ele>
        <time>2022-04-06T09:39:25.880Z</time>
      </trkpt>
      <trkpt lat="42.25624" lon="22.88506">
        <ele>492.821797</ele>
        <time>2022-04-06T09:39:27.888Z</time>
      </trkpt>
      <trkpt lat="42.25633" lon="22.88495">
        <ele>492.56139</ele>
        <time>2022-04-06T09:39:30.901Z</time>
      </trkpt>
      <trkpt lat="42.25639" lon="22.88486">
        <ele>492.34646</ele>
        <time>2022-04-06T09:39:33.895Z</time>
      </trkpt>
      <trkpt lat="42.25646" lon="22.88476">
        <ele>492.12187</ele>
        <time>2022-04-06T09:39:36.896Z</time>
      </trkpt>
      <trkpt lat="42.25653" lon="22.88464">
        <ele>491.883083</ele>
        <time>2022-04-06T09:39:39.894Z</time>
      </trkpt>
      <trkpt lat="42.2566" lon="22.88453">
        <ele>491.641633</ele>
        <time>2022-04-06T09:39:42.892Z</time>
      </trkpt>
      <trkpt lat="42.25666" lon="22.88441">
        <ele>491.402577</ele>
        <time>2022-04-06T09:39:45.902Z</time>
      </trkpt>
      <trkpt lat="42.25671" lon="22.88428">
        <ele>491.167989</ele>
        <time>2022-04-06T09:39:48.896Z</time>
      </trkpt>
      <trkpt lat="42.25676" lon="22.88415">
        <ele>490.931601</ele>
        <time>2022-04-06T09:39:51.887Z</time>
      </trkpt>
      <trkpt lat="42.2568" lon="22.88403">
        <ele>490.70131</ele>
        <time>2022-04-06T09:39:54.900Z</time>
      </trkpt>
      <trkpt lat="42.25684" lon="22.8839">
        <ele>490.473135</ele>
        <time>2022-04-06T09:39:57.891Z</time>
      </trkpt>
      <trkpt lat="42.25688" lon="22.88378">
        <ele>490.268477</ele>
        <time>2022-04-06T09:40:00.910Z</time>
      </trkpt>
      <trkpt lat="42.25691" lon="22.88362">
        <ele>489.967704</ele>
        <time>2022-04-06T09:40:04.891Z</time>
      </trkpt>
      <trkpt lat="42.25694" lon="22.88349">
        <ele>489.697561</ele>
        <time>2022-04-06T09:40:07.908Z</time>
      </trkpt>
      <trkpt lat="42.25696" lon="22.88336">
        <ele>489.432418</ele>
        <time>2022-04-06T09:40:10.899Z</time>
      </trkpt>
      <trkpt lat="42.25698" lon="22.88323">
        <ele>489.169301</ele>
        <time>2022-04-06T09:40:13.892Z</time>
      </trkpt>
      <trkpt lat="42.25699" lon="22.88309">
        <ele>488.892531</ele>
        <time>2022-04-06T09:40:16.918Z</time>
      </trkpt>
      <trkpt lat="42.257" lon="22.88295">
        <ele>488.626344</ele>
        <time>2022-04-06T09:40:19.898Z</time>
      </trkpt>
      <trkpt lat="42.25699" lon="22.8828">
        <ele>488.32774</ele>
        <time>2022-04-06T09:40:22.894Z</time>
      </trkpt>
      <trkpt lat="42.25699" lon="22.88262">
        <ele>487.979985</ele>
        <time>2022-04-06T09:40:25.912Z</time>
      </trkpt>
      <trkpt lat="42.25698" lon="22.88245">
        <ele>487.635951</ele>
        <time>2022-04-06T09:40:28.921Z</time>
      </trkpt>
      <trkpt lat="42.25698" lon="22.88228">
        <ele>487.305168</ele>
        <time>2022-04-06T09:40:31.907Z</time>
      </trkpt>
      <trkpt lat="42.25697" lon="22.88212">
        <ele>486.995712</ele>
        <time>2022-04-06T09:40:34.907Z</time>
      </trkpt>
      <trkpt lat="42.25696" lon="22.88197">
        <ele>486.688624</ele>
        <time>2022-04-06T09:40:37.895Z</time>
      </trkpt>
      <trkpt lat="42.25695" lon="22.88181">
        <ele>486.374012</ele>
        <time>2022-04-06T09:40:40.882Z</time>
      </trkpt>
      <trkpt lat="42.25694" lon="22.88165">
        <ele>486.060406</ele>
        <time>2022-04-06T09:40:43.907Z</time>
      </trkpt>
      <trkpt lat="42.25693" lon="22.88149">
        <ele>485.741165</ele>
        <time>2022-04-06T09:40:46.911Z</time>
      </trkpt>
      <trkpt lat="42.25692" lon="22.88133">
        <ele>485.437068</ele>
        <time>2022-04-06T09:40:49.891Z</time>
      </trkpt>
      <trkpt lat="42.25691" lon="22.88117">
        <ele>485.337491</ele>
        <time>2022-04-06T09:40:52.900Z</time>
      </trkpt>
      <trkpt lat="42.2569" lon="22.88101">
        <ele>485.289633</ele>
        <time>2022-04-06T09:40:55.935Z</time>
      </trkpt>
      <trkpt lat="42.25688" lon="22.88085">
        <ele>485.245705</ele>
        <time>2022-04-06T09:40:58.911Z</time>
      </trkpt>
      <trkpt lat="42.25688" lon="22.88071">
        <ele>485.203427</ele>
        <time>2022-04-06T09:41:01.931Z</time>
      </trkpt>
      <trkpt lat="42.25687" lon="22.88055">
        <ele>485.158161</ele>
        <time>2022-04-06T09:41:04.911Z</time>
      </trkpt>
      <trkpt lat="42.25685" lon="22.88039">
        <ele>485.113709</ele>
        <time>2022-04-06T09:41:07.899Z</time>
      </trkpt>
      <trkpt lat="42.25685" lon="22.88025">
        <ele>485.073373</ele>
        <time>2022-04-06T09:41:10.905Z</time>
      </trkpt>
      <trkpt lat="42.25683" lon="22.88011">
        <ele>485.033499</ele>
        <time>2022-04-06T09:41:13.903Z</time>
      </trkpt>
      <trkpt lat="42.25683" lon="22.87998">
        <ele>484.994375</ele>
        <time>2022-04-06T09:41:16.890Z</time>
      </trkpt>
      <trkpt lat="42.25682" lon="22.87984">
        <ele>484.955229</ele>
        <time>2022-04-06T09:41:19.931Z</time>
      </trkpt>
      <trkpt lat="42.25682" lon="22.87971">
        <ele>484.918305</ele>
        <time>2022-04-06T09:41:22.899Z</time>
      </trkpt>
      <trkpt lat="42.25681" lon="22.87959">
        <ele>484.88343</ele>
        <time>2022-04-06T09:41:25.899Z</time>
      </trkpt>
      <trkpt lat="42.25681" lon="22.87946">
        <ele>484.846032</ele>
        <time>2022-04-06T09:41:28.937Z</time>
      </trkpt>
      <trkpt lat="42.2568" lon="22.87933">
        <ele>484.808617</ele>
        <time>2022-04-06T09:41:31.908Z</time>
      </trkpt>
      <trkpt lat="42.2568" lon="22.87919">
        <ele>484.770948</ele>
        <time>2022-04-06T09:41:34.897Z</time>
      </trkpt>
      <trkpt lat="42.25679" lon="22.87907">
        <ele>484.734387</ele>
        <time>2022-04-06T09:41:37.926Z</time>
      </trkpt>
      <trkpt lat="42.25679" lon="22.87894">
        <ele>484.697275</ele>
        <time>2022-04-06T09:41:40.911Z</time>
      </trkpt>
      <trkpt lat="42.25678" lon="22.87881">
        <ele>484.803861</ele>
        <time>2022-04-06T09:41:43.940Z</time>
      </trkpt>
      <trkpt lat="42.25678" lon="22.87868">
        <ele>485.038288</ele>
        <time>2022-04-06T09:41:46.894Z</time>
      </trkpt>
      <trkpt lat="42.25678" lon="22.87854">
        <ele>485.30014</ele>
        <time>2022-04-06T09:41:49.894Z</time>
      </trkpt>
      <trkpt lat="42.25677" lon="22.87839">
        <ele>485.56382</ele>
        <time>2022-04-06T09:41:52.904Z</time>
      </trkpt>
      <trkpt lat="42.25677" lon="22.87826">
        <ele>485.801749</ele>
        <time>2022-04-06T09:41:55.894Z</time>
      </trkpt>
      <trkpt lat="42.25677" lon="22.87813">
        <ele>486.041571</ele>
        <time>2022-04-06T09:41:58.894Z</time>
      </trkpt>
      <trkpt lat="42.25676" lon="22.87799">
        <ele>486.294281</ele>
        <time>2022-04-06T09:42:01.915Z</time>
      </trkpt>
      <trkpt lat="42.25676" lon="22.87784">
        <ele>486.572513</ele>
        <time>2022-04-06T09:42:04.903Z</time>
      </trkpt>
      <trkpt lat="42.25676" lon="22.8777">
        <ele>486.827051</ele>
        <time>2022-04-06T09:42:07.894Z</time>
      </trkpt>
      <trkpt lat="42.25676" lon="22.87757">
        <ele>487.072248</ele>
        <time>2022-04-06T09:42:10.899Z</time>
      </trkpt>
      <trkpt lat="42.25675" lon="22.87744">
        <ele>487.317495</ele>
        <time>2022-04-06T09:42:13.898Z</time>
      </trkpt>
      <trkpt lat="42.25675" lon="22.87728">
        <ele>487.597556</ele>
        <time>2022-04-06T09:42:16.887Z</time>
      </trkpt>
      <trkpt lat="42.25675" lon="22.87712">
        <ele>487.897903</ele>
        <time>2022-04-06T09:42:19.894Z</time>
      </trkpt>
      <trkpt lat="42.25674" lon="22.87698">
        <ele>488.152681</ele>
        <time>2022-04-06T09:42:22.903Z</time>
      </trkpt>
      <trkpt lat="42.25674" lon="22.87685">
        <ele>488.383292</ele>
        <time>2022-04-06T09:42:25.890Z</time>
      </trkpt>
      <trkpt lat="42.25673" lon="22.87671">
        <ele>488.654287</ele>
        <time>2022-04-06T09:42:28.907Z</time>
      </trkpt>
      <trkpt lat="42.25673" lon="22.87656">
        <ele>488.923374</ele>
        <time>2022-04-06T09:42:31.916Z</time>
      </trkpt>
      <trkpt lat="42.25672" lon="22.87641">
        <ele>489.189584</ele>
        <time>2022-04-06T09:42:34.894Z</time>
      </trkpt>
      <trkpt lat="42.25673" lon="22.87626">
        <ele>489.430584</ele>
        <time>2022-04-06T09:42:37.896Z</time>
      </trkpt>
      <trkpt lat="42.25672" lon="22.87611">
        <ele>489.682042</ele>
        <time>2022-04-06T09:42:40.903Z</time>
      </trkpt>
      <trkpt lat="42.25671" lon="22.87597">
        <ele>489.915361</ele>
        <time>2022-04-06T09:42:43.898Z</time>
      </trkpt>
      <trkpt lat="42.25671" lon="22.87584">
        <ele>490.128393</ele>
        <time>2022-04-06T09:42:46.905Z</time>
      </trkpt>
      <trkpt lat="42.2567" lon="22.8757">
        <ele>490.34821</ele>
        <time>2022-04-06T09:42:49.897Z</time>
      </trkpt>
      <trkpt lat="42.2567" lon="22.87556">
        <ele>490.582871</ele>
        <time>2022-04-06T09:42:52.905Z</time>
      </trkpt>
      <trkpt lat="42.25669" lon="22.87541">
        <ele>490.822162</ele>
        <time>2022-04-06T09:42:55.890Z</time>
      </trkpt>
      <trkpt lat="42.25669" lon="22.87526">
        <ele>491.073074</ele>
        <time>2022-04-06T09:42:58.898Z</time>
      </trkpt>
      <trkpt lat="42.25668" lon="22.8751">
        <ele>491.330533</ele>
        <time>2022-04-06T09:43:01.897Z</time>
      </trkpt>
      <trkpt lat="42.25668" lon="22.87495">
        <ele>491.579602</ele>
        <time>2022-04-06T09:43:04.903Z</time>
      </trkpt>
      <trkpt lat="42.25668" lon="22.8748">
        <ele>491.827003</ele>
        <time>2022-04-06T09:43:07.896Z</time>
      </trkpt>
      <trkpt lat="42.25668" lon="22.87465">
        <ele>492.074404</ele>
        <time>2022-04-06T09:43:10.908Z</time>
      </trkpt>
      <trkpt lat="42.25668" lon="22.8745">
        <ele>492.318528</ele>
        <time>2022-04-06T09:43:13.894Z</time>
      </trkpt>
      <trkpt lat="42.25668" lon="22.87432">
        <ele>492.611801</ele>
        <time>2022-04-06T09:43:16.911Z</time>
      </trkpt>
      <trkpt lat="42.25667" lon="22.87414">
        <ele>492.905275</ele>
        <time>2022-04-06T09:43:19.909Z</time>
      </trkpt>
      <trkpt lat="42.25668" lon="22.87398">
        <ele>493.012706</ele>
        <time>2022-04-06T09:43:22.900Z</time>
      </trkpt>
      <trkpt lat="42.25668" lon="22.87381">
        <ele>492.661588</ele>
        <time>2022-04-06T09:43:25.934Z</time>
      </trkpt>
      <trkpt lat="42.25668" lon="22.87364">
        <ele>492.297584</ele>
        <time>2022-04-06T09:43:28.882Z</time>
      </trkpt>
      <trkpt lat="42.25668" lon="22.87347">
        <ele>491.928997</ele>
        <time>2022-04-06T09:43:31.930Z</time>
      </trkpt>
      <trkpt lat="42.25669" lon="22.87331">
        <ele>491.579887</ele>
        <time>2022-04-06T09:43:34.890Z</time>
      </trkpt>
      <trkpt lat="42.25669" lon="22.87316">
        <ele>491.250304</ele>
        <time>2022-04-06T09:43:37.887Z</time>
      </trkpt>
      <trkpt lat="42.25669" lon="22.873">
        <ele>490.903432</ele>
        <time>2022-04-06T09:43:40.891Z</time>
      </trkpt>
      <trkpt lat="42.2567" lon="22.87283">
        <ele>490.53457</ele>
        <time>2022-04-06T09:43:43.899Z</time>
      </trkpt>
      <trkpt lat="42.25671" lon="22.87265">
        <ele>490.146187</ele>
        <time>2022-04-06T09:43:46.891Z</time>
      </trkpt>
      <trkpt lat="42.25671" lon="22.87252">
        <ele>489.881206</ele>
        <time>2022-04-06T09:43:48.915Z</time>
      </trkpt>
      <trkpt lat="42.25672" lon="22.87234">
        <ele>489.496243</ele>
        <time>2022-04-06T09:43:51.903Z</time>
      </trkpt>
      <trkpt lat="42.25674" lon="22.87217">
        <ele>489.12172</ele>
        <time>2022-04-06T09:43:54.898Z</time>
      </trkpt>
      <trkpt lat="42.25675" lon="22.872">
        <ele>488.756323</ele>
        <time>2022-04-06T09:43:57.917Z</time>
      </trkpt>
      <trkpt lat="42.25676" lon="22.87184">
        <ele>488.404278</ele>
        <time>2022-04-06T09:44:00.906Z</time>
      </trkpt>
      <trkpt lat="42.25677" lon="22.87169">
        <ele>488.074004</ele>
        <time>2022-04-06T09:44:03.880Z</time>
      </trkpt>
      <trkpt lat="42.25678" lon="22.87153">
        <ele>487.789729</ele>
        <time>2022-04-06T09:44:06.883Z</time>
      </trkpt>
      <trkpt lat="42.2568" lon="22.87138">
        <ele>487.577005</ele>
        <time>2022-04-06T09:44:09.892Z</time>
      </trkpt>
      <trkpt lat="42.25681" lon="22.87122">
        <ele>487.360458</ele>
        <time>2022-04-06T09:44:12.895Z</time>
      </trkpt>
      <trkpt lat="42.25683" lon="22.87106">
        <ele>487.142357</ele>
        <time>2022-04-06T09:44:15.876Z</time>
      </trkpt>
      <trkpt lat="42.25684" lon="22.87089">
        <ele>486.918879</ele>
        <time>2022-04-06T09:44:18.903Z</time>
      </trkpt>
      <trkpt lat="42.25685" lon="22.87073">
        <ele>486.69964</ele>
        <time>2022-04-06T09:44:21.907Z</time>
      </trkpt>
      <trkpt lat="42.25686" lon="22.87058">
        <ele>486.492896</ele>
        <time>2022-04-06T09:44:24.930Z</time>
      </trkpt>
      <trkpt lat="42.25688" lon="22.87041">
        <ele>486.262693</ele>
        <time>2022-04-06T09:44:27.902Z</time>
      </trkpt>
      <trkpt lat="42.25689" lon="22.87025">
        <ele>486.03807</ele>
        <time>2022-04-06T09:44:30.901Z</time>
      </trkpt>
      <trkpt lat="42.25691" lon="22.87008">
        <ele>485.812801</ele>
        <time>2022-04-06T09:44:33.893Z</time>
      </trkpt>
      <trkpt lat="42.25692" lon="22.86992">
        <ele>485.585075</ele>
        <time>2022-04-06T09:44:36.904Z</time>
      </trkpt>
      <trkpt lat="42.25694" lon="22.86975">
        <ele>485.35822</ele>
        <time>2022-04-06T09:44:39.889Z</time>
      </trkpt>
      <trkpt lat="42.25696" lon="22.86958">
        <ele>485.127089</ele>
        <time>2022-04-06T09:44:42.913Z</time>
      </trkpt>
      <trkpt lat="42.25697" lon="22.86941">
        <ele>484.891298</ele>
        <time>2022-04-06T09:44:45.901Z</time>
      </trkpt>
      <trkpt lat="42.25699" lon="22.86923">
        <ele>484.651027</ele>
        <time>2022-04-06T09:44:48.895Z</time>
      </trkpt>
      <trkpt lat="42.257" lon="22.86906">
        <ele>484.556499</ele>
        <time>2022-04-06T09:44:51.913Z</time>
      </trkpt>
      <trkpt lat="42.25702" lon="22.86889">
        <ele>484.515859</ele>
        <time>2022-04-06T09:44:54.907Z</time>
      </trkpt>
      <trkpt lat="42.25703" lon="22.86871">
        <ele>484.473829</ele>
        <time>2022-04-06T09:44:57.891Z</time>
      </trkpt>
      <trkpt lat="42.25705" lon="22.86853">
        <ele>484.431682</ele>
        <time>2022-04-06T09:45:00.905Z</time>
      </trkpt>
      <trkpt lat="42.25706" lon="22.86841">
        <ele>484.402736</ele>
        <time>2022-04-06T09:45:02.893Z</time>
      </trkpt>
      <trkpt lat="42.25708" lon="22.86823">
        <ele>484.359852</ele>
        <time>2022-04-06T09:45:05.955Z</time>
      </trkpt>
      <trkpt lat="42.2571" lon="22.86805">
        <ele>484.317242</ele>
        <time>2022-04-06T09:45:08.899Z</time>
      </trkpt>
      <trkpt lat="42.25711" lon="22.86792">
        <ele>484.288104</ele>
        <time>2022-04-06T09:45:10.896Z</time>
      </trkpt>
      <trkpt lat="42.25712" lon="22.8678">
        <ele>484.259577</ele>
        <time>2022-04-06T09:45:12.892Z</time>
      </trkpt>
      <trkpt lat="42.25714" lon="22.86768">
        <ele>484.230081</ele>
        <time>2022-04-06T09:45:14.900Z</time>
      </trkpt>
      <trkpt lat="42.25715" lon="22.86755">
        <ele>484.200441</ele>
        <time>2022-04-06T09:45:16.927Z</time>
      </trkpt>
      <trkpt lat="42.25716" lon="22.86742">
        <ele>484.170411</ele>
        <time>2022-04-06T09:45:18.909Z</time>
      </trkpt>
      <trkpt lat="42.25717" lon="22.86729">
        <ele>484.13965</ele>
        <time>2022-04-06T09:45:20.904Z</time>
      </trkpt>
      <trkpt lat="42.25718" lon="22.86716">
        <ele>484.109084</ele>
        <time>2022-04-06T09:45:22.879Z</time>
      </trkpt>
      <trkpt lat="42.25719" lon="22.86703">
        <ele>484.078982</ele>
        <time>2022-04-06T09:45:24.894Z</time>
      </trkpt>
      <trkpt lat="42.25721" lon="22.86691">
        <ele>484.048879</ele>
        <time>2022-04-06T09:45:26.897Z</time>
      </trkpt>
      <trkpt lat="42.25722" lon="22.86677">
        <ele>484.017866</ele>
        <time>2022-04-06T09:45:28.927Z</time>
      </trkpt>
      <trkpt lat="42.25723" lon="22.86664">
        <ele>484.147317</ele>
        <time>2022-04-06T09:45:30.909Z</time>
      </trkpt>
      <trkpt lat="42.25724" lon="22.86651">
        <ele>484.271853</ele>
        <time>2022-04-06T09:45:32.886Z</time>
      </trkpt>
      <trkpt lat="42.25726" lon="22.86638">
        <ele>484.39579</ele>
        <time>2022-04-06T09:45:34.914Z</time>
      </trkpt>
      <trkpt lat="42.25727" lon="22.86625">
        <ele>484.522393</ele>
        <time>2022-04-06T09:45:36.908Z</time>
      </trkpt>
      <trkpt lat="42.25728" lon="22.86612">
        <ele>484.645978</ele>
        <time>2022-04-06T09:45:38.902Z</time>
      </trkpt>
      <trkpt lat="42.2573" lon="22.866">
        <ele>484.766887</ele>
        <time>2022-04-06T09:45:40.888Z</time>
      </trkpt>
      <trkpt lat="42.25731" lon="22.86587">
        <ele>484.888572</ele>
        <time>2022-04-06T09:45:42.908Z</time>
      </trkpt>
      <trkpt lat="42.25732" lon="22.86575">
        <ele>485.004934</ele>
        <time>2022-04-06T09:45:44.915Z</time>
      </trkpt>
      <trkpt lat="42.25734" lon="22.86557">
        <ele>485.177016</ele>
        <time>2022-04-06T09:45:47.894Z</time>
      </trkpt>
      <trkpt lat="42.25735" lon="22.86545">
        <ele>485.293953</ele>
        <time>2022-04-06T09:45:49.882Z</time>
      </trkpt>
      <trkpt lat="42.25736" lon="22.86533">
        <ele>485.410725</ele>
        <time>2022-04-06T09:45:51.895Z</time>
      </trkpt>
      <trkpt lat="42.25737" lon="22.86521">
        <ele>485.52956</ele>
        <time>2022-04-06T09:45:53.900Z</time>
      </trkpt>
      <trkpt lat="42.2574" lon="22.86503">
        <ele>485.70053</ele>
        <time>2022-04-06T09:45:56.895Z</time>
      </trkpt>
      <trkpt lat="42.25741" lon="22.86491">
        <ele>485.818416</ele>
        <time>2022-04-06T09:45:58.891Z</time>
      </trkpt>
      <trkpt lat="42.25742" lon="22.86479">
        <ele>485.935352</ele>
        <time>2022-04-06T09:46:00.908Z</time>
      </trkpt>
      <trkpt lat="42.25743" lon="22.86466">
        <ele>486.056261</ele>
        <time>2022-04-06T09:46:02.895Z</time>
      </trkpt>
      <trkpt lat="42.25745" lon="22.86454">
        <ele>486.17622</ele>
        <time>2022-04-06T09:46:04.892Z</time>
      </trkpt>
      <trkpt lat="42.25746" lon="22.86442">
        <ele>486.293157</ele>
        <time>2022-04-06T09:46:06.902Z</time>
      </trkpt>
      <trkpt lat="42.25747" lon="22.8643">
        <ele>486.351862</ele>
        <time>2022-04-06T09:46:08.934Z</time>
      </trkpt>
      <trkpt lat="42.25749" lon="22.86412">
        <ele>486.369404</ele>
        <time>2022-04-06T09:46:11.896Z</time>
      </trkpt>
      <trkpt lat="42.2575" lon="22.86395">
        <ele>486.385717</ele>
        <time>2022-04-06T09:46:14.895Z</time>
      </trkpt>
      <trkpt lat="42.25752" lon="22.86379">
        <ele>486.40151</ele>
        <time>2022-04-06T09:46:17.888Z</time>
      </trkpt>
      <trkpt lat="42.25753" lon="22.86363">
        <ele>486.417628</ele>
        <time>2022-04-06T09:46:20.893Z</time>
      </trkpt>
      <trkpt lat="42.25755" lon="22.86348">
        <ele>486.432238</ele>
        <time>2022-04-06T09:46:23.890Z</time>
      </trkpt>
      <trkpt lat="42.25756" lon="22.86332">
        <ele>486.447951</ele>
        <time>2022-04-06T09:46:26.911Z</time>
      </trkpt>
      <trkpt lat="42.25758" lon="22.86316">
        <ele>486.464326</ele>
        <time>2022-04-06T09:46:29.895Z</time>
      </trkpt>
      <trkpt lat="42.25759" lon="22.86299">
        <ele>486.480604</ele>
        <time>2022-04-06T09:46:32.886Z</time>
      </trkpt>
      <trkpt lat="42.25761" lon="22.86284">
        <ele>486.496203</ele>
        <time>2022-04-06T09:46:35.898Z</time>
      </trkpt>
      <trkpt lat="42.25762" lon="22.86268">
        <ele>486.511104</ele>
        <time>2022-04-06T09:46:38.896Z</time>
      </trkpt>
      <trkpt lat="42.25764" lon="22.86254">
        <ele>486.525247</ele>
        <time>2022-04-06T09:46:41.901Z</time>
      </trkpt>
      <trkpt lat="42.25765" lon="22.8624">
        <ele>486.539533</ele>
        <time>2022-04-06T09:46:44.895Z</time>
      </trkpt>
      <trkpt lat="42.25767" lon="22.86226">
        <ele>486.553482</ele>
        <time>2022-04-06T09:46:47.902Z</time>
      </trkpt>
      <trkpt lat="42.25768" lon="22.86212">
        <ele>486.566991</ele>
        <time>2022-04-06T09:46:50.873Z</time>
      </trkpt>
      <trkpt lat="42.25769" lon="22.86199">
        <ele>486.579642</ele>
        <time>2022-04-06T09:46:53.902Z</time>
      </trkpt>
      <trkpt lat="42.2577" lon="22.86187">
        <ele>486.669608</ele>
        <time>2022-04-06T09:46:56.898Z</time>
      </trkpt>
      <trkpt lat="42.25771" lon="22.86174">
        <ele>486.796777</ele>
        <time>2022-04-06T09:46:59.923Z</time>
      </trkpt>
      <trkpt lat="42.25772" lon="22.8616">
        <ele>486.938969</ele>
        <time>2022-04-06T09:47:02.921Z</time>
      </trkpt>
      <trkpt lat="42.25773" lon="22.86146">
        <ele>487.076254</ele>
        <time>2022-04-06T09:47:05.903Z</time>
      </trkpt>
      <trkpt lat="42.25774" lon="22.86134">
        <ele>487.197529</ele>
        <time>2022-04-06T09:47:08.892Z</time>
      </trkpt>
      <trkpt lat="42.25776" lon="22.8612">
        <ele>487.330076</ele>
        <time>2022-04-06T09:47:11.902Z</time>
      </trkpt>
      <trkpt lat="42.25777" lon="22.86106">
        <ele>487.469656</ele>
        <time>2022-04-06T09:47:14.886Z</time>
      </trkpt>
      <trkpt lat="42.25779" lon="22.86093">
        <ele>487.602579</ele>
        <time>2022-04-06T09:47:17.894Z</time>
      </trkpt>
      <trkpt lat="42.2578" lon="22.8608">
        <ele>487.728464</ele>
        <time>2022-04-06T09:47:20.902Z</time>
      </trkpt>
      <trkpt lat="42.25781" lon="22.86068">
        <ele>487.850443</ele>
        <time>2022-04-06T09:47:23.895Z</time>
      </trkpt>
      <trkpt lat="42.25782" lon="22.86056">
        <ele>487.969754</ele>
        <time>2022-04-06T09:47:26.895Z</time>
      </trkpt>
      <trkpt lat="42.25784" lon="22.86041">
        <ele>488.124379</ele>
        <time>2022-04-06T09:47:30.892Z</time>
      </trkpt>
      <trkpt lat="42.25785" lon="22.86026">
        <ele>488.272613</ele>
        <time>2022-04-06T09:47:34.895Z</time>
      </trkpt>
      <trkpt lat="42.25787" lon="22.86011">
        <ele>488.425473</ele>
        <time>2022-04-06T09:47:38.906Z</time>
      </trkpt>
      <trkpt lat="42.25788" lon="22.85995">
        <ele>488.576651</ele>
        <time>2022-04-06T09:47:42.911Z</time>
      </trkpt>
      <trkpt lat="42.25789" lon="22.85983">
        <ele>488.6971</ele>
        <time>2022-04-06T09:47:45.899Z</time>
      </trkpt>
      <trkpt lat="42.25791" lon="22.85971">
        <ele>488.821815</ele>
        <time>2022-04-06T09:47:48.927Z</time>
      </trkpt>
      <trkpt lat="42.25792" lon="22.85959">
        <ele>488.942433</ele>
        <time>2022-04-06T09:47:51.899Z</time>
      </trkpt>
      <trkpt lat="42.25794" lon="22.85943">
        <ele>489.212377</ele>
        <time>2022-04-06T09:47:55.892Z</time>
      </trkpt>
      <trkpt lat="42.25794" lon="22.85931">
        <ele>489.444651</ele>
        <time>2022-04-06T09:47:58.908Z</time>
      </trkpt>
      <trkpt lat="42.25796" lon="22.85915">
        <ele>489.75112</ele>
        <time>2022-04-06T09:48:02.896Z</time>
      </trkpt>
      <trkpt lat="42.25797" lon="22.85902">
        <ele>489.98679</ele>
        <time>2022-04-06T09:48:05.937Z</time>
      </trkpt>
      <trkpt lat="42.25799" lon="22.85886">
        <ele>490.294842</ele>
        <time>2022-04-06T09:48:09.899Z</time>
      </trkpt>
      <trkpt lat="42.258" lon="22.85871">
        <ele>490.598608</ele>
        <time>2022-04-06T09:48:13.928Z</time>
      </trkpt>
      <trkpt lat="42.25802" lon="22.85858">
        <ele>490.841507</ele>
        <time>2022-04-06T09:48:16.915Z</time>
      </trkpt>
      <trkpt lat="42.25803" lon="22.85846">
        <ele>491.079999</ele>
        <time>2022-04-06T09:48:19.891Z</time>
      </trkpt>
      <trkpt lat="42.25804" lon="22.85833">
        <ele>491.322582</ele>
        <time>2022-04-06T09:48:22.919Z</time>
      </trkpt>
      <trkpt lat="42.25805" lon="22.8582">
        <ele>491.566285</ele>
        <time>2022-04-06T09:48:25.897Z</time>
      </trkpt>
      <trkpt lat="42.25806" lon="22.85808">
        <ele>491.808579</ele>
        <time>2022-04-06T09:48:28.892Z</time>
      </trkpt>
      <trkpt lat="42.25807" lon="22.85796">
        <ele>492.04517</ele>
        <time>2022-04-06T09:48:31.913Z</time>
      </trkpt>
      <trkpt lat="42.25808" lon="22.85783">
        <ele>492.289365</ele>
        <time>2022-04-06T09:48:34.903Z</time>
      </trkpt>
      <trkpt lat="42.25807" lon="22.8577">
        <ele>492.530291</ele>
        <time>2022-04-06T09:48:37.931Z</time>
      </trkpt>
      <trkpt lat="42.25804" lon="22.85758">
        <ele>492.779574</ele>
        <time>2022-04-06T09:48:40.895Z</time>
      </trkpt>
      <trkpt lat="42.25801" lon="22.85743">
        <ele>493.08428</ele>
        <time>2022-04-06T09:48:44.893Z</time>
      </trkpt>
      <trkpt lat="42.25799" lon="22.8573">
        <ele>493.332541</ele>
        <time>2022-04-06T09:48:48.887Z</time>
      </trkpt>
      <trkpt lat="42.25797" lon="22.85718">
        <ele>493.574147</ele>
        <time>2022-04-06T09:48:52.898Z</time>
      </trkpt>
      <trkpt lat="42.25798" lon="22.85703">
        <ele>493.673863</ele>
        <time>2022-04-06T09:48:57.904Z</time>
      </trkpt>
      <trkpt lat="42.25789" lon="22.85704">
        <ele>493.719133</ele>
        <time>2022-04-06T10:10:34.922Z</time>
      </trkpt>
      <trkpt lat="42.25783" lon="22.85694">
        <ele>493.765677</ele>
        <time>2022-04-06T10:10:43.894Z</time>
      </trkpt>
      <trkpt lat="42.25781" lon="22.8568">
        <ele>493.81589</ele>
        <time>2022-04-06T10:10:47.891Z</time>
      </trkpt>
      <trkpt lat="42.25778" lon="22.85668">
        <ele>493.861247</ele>
        <time>2022-04-06T10:10:50.875Z</time>
      </trkpt>
      <trkpt lat="42.25773" lon="22.85646">
        <ele>493.944735</ele>
        <time>2022-04-06T10:10:53.912Z</time>
      </trkpt>
      <trkpt lat="42.2577" lon="22.85632">
        <ele>493.994928</ele>
        <time>2022-04-06T10:10:57.899Z</time>
      </trkpt>
      <trkpt lat="42.25766" lon="22.8562">
        <ele>494.045508</ele>
        <time>2022-04-06T10:11:01.872Z</time>
      </trkpt>
      <trkpt lat="42.25762" lon="22.85607">
        <ele>494.091962</ele>
        <time>2022-04-06T10:11:05.864Z</time>
      </trkpt>
      <trkpt lat="42.25759" lon="22.85596">
        <ele>494.137296</ele>
        <time>2022-04-06T10:11:09.876Z</time>
      </trkpt>
      <trkpt lat="42.25755" lon="22.85583">
        <ele>494.18543</ele>
        <time>2022-04-06T10:11:14.881Z</time>
      </trkpt>
      <trkpt lat="42.25753" lon="22.85571">
        <ele>494.230444</ele>
        <time>2022-04-06T10:11:18.881Z</time>
      </trkpt>
      <trkpt lat="42.25749" lon="22.85556">
        <ele>494.287346</ele>
        <time>2022-04-06T10:11:22.879Z</time>
      </trkpt>
      <trkpt lat="42.25745" lon="22.85542">
        <ele>494.342042</ele>
        <time>2022-04-06T10:11:26.886Z</time>
      </trkpt>
      <trkpt lat="42.2574" lon="22.8553">
        <ele>494.390106</ele>
        <time>2022-04-06T10:11:30.877Z</time>
      </trkpt>
      <trkpt lat="42.25737" lon="22.85517">
        <ele>494.440607</ele>
        <time>2022-04-06T10:11:34.900Z</time>
      </trkpt>
      <trkpt lat="42.25734" lon="22.85504">
        <ele>494.488262</ele>
        <time>2022-04-06T10:11:38.874Z</time>
      </trkpt>
      <trkpt lat="42.2573" lon="22.8549">
        <ele>494.551372</ele>
        <time>2022-04-06T10:11:43.879Z</time>
      </trkpt>
      <trkpt lat="42.25728" lon="22.85477">
        <ele>494.613411</ele>
        <time>2022-04-06T10:11:47.875Z</time>
      </trkpt>
      <trkpt lat="42.25724" lon="22.85464">
        <ele>494.67986</ele>
        <time>2022-04-06T10:11:51.882Z</time>
      </trkpt>
      <trkpt lat="42.25721" lon="22.85451">
        <ele>494.742005</ele>
        <time>2022-04-06T10:11:55.902Z</time>
      </trkpt>
      <trkpt lat="42.25718" lon="22.85439">
        <ele>494.800952</ele>
        <time>2022-04-06T10:11:59.872Z</time>
      </trkpt>
      <trkpt lat="42.25715" lon="22.85427">
        <ele>494.858398</ele>
        <time>2022-04-06T10:12:03.884Z</time>
      </trkpt>
      <trkpt lat="42.25711" lon="22.85414">
        <ele>494.922763</ele>
        <time>2022-04-06T10:12:07.894Z</time>
      </trkpt>
      <trkpt lat="42.25706" lon="22.85402">
        <ele>494.986705</ele>
        <time>2022-04-06T10:12:11.888Z</time>
      </trkpt>
      <trkpt lat="42.25703" lon="22.85388">
        <ele>495.052124</ele>
        <time>2022-04-06T10:12:15.912Z</time>
      </trkpt>
      <trkpt lat="42.257" lon="22.85374">
        <ele>495.120294</ele>
        <time>2022-04-06T10:12:19.908Z</time>
      </trkpt>
      <trkpt lat="42.25694" lon="22.85365">
        <ele>495.176882</ele>
        <time>2022-04-06T10:12:23.900Z</time>
      </trkpt>
      <trkpt lat="42.25686" lon="22.85359">
        <ele>495.235328</ele>
        <time>2022-04-06T10:12:28.875Z</time>
      </trkpt>
      <trkpt lat="42.25666" lon="22.85356">
        <ele>495.357418</ele>
        <time>2022-04-06T10:14:47.008Z</time>
      </trkpt>
      <trkpt lat="42.25657" lon="22.85358">
        <ele>495.415316</ele>
        <time>2022-04-06T10:14:52.882Z</time>
      </trkpt>
      <trkpt lat="42.25647" lon="22.85361">
        <ele>495.48</ele>
        <time>2022-04-06T10:14:58.927Z</time>
      </trkpt>
      <trkpt lat="42.25638" lon="22.85363">
        <ele>495.536871</ele>
        <time>2022-04-06T10:15:05.887Z</time>
      </trkpt>
      <trkpt lat="42.25628" lon="22.85366">
        <ele>495.596598</ele>
        <time>2022-04-06T10:15:13.872Z</time>
      </trkpt>
      <trkpt lat="42.25618" lon="22.85368">
        <ele>495.732411</ele>
        <time>2022-04-06T10:15:19.891Z</time>
      </trkpt>
      <trkpt lat="42.25608" lon="22.8537">
        <ele>495.90556</ele>
        <time>2022-04-06T10:15:22.907Z</time>
      </trkpt>
      <trkpt lat="42.25598" lon="22.85374">
        <ele>496.081453</ele>
        <time>2022-04-06T10:15:26.914Z</time>
      </trkpt>
      <trkpt lat="42.25588" lon="22.85375">
        <ele>496.253409</ele>
        <time>2022-04-06T10:15:31.880Z</time>
      </trkpt>
      <trkpt lat="42.25576" lon="22.8537">
        <ele>496.451495</ele>
        <time>2022-04-06T10:15:36.888Z</time>
      </trkpt>
      <trkpt lat="42.25569" lon="22.85359">
        <ele>496.639876</ele>
        <time>2022-04-06T10:15:40.874Z</time>
      </trkpt>
      <trkpt lat="42.25563" lon="22.85345">
        <ele>496.834833</ele>
        <time>2022-04-06T10:15:44.885Z</time>
      </trkpt>
      <trkpt lat="42.2556" lon="22.85332">
        <ele>497.010621</ele>
        <time>2022-04-06T10:15:47.929Z</time>
      </trkpt>
      <trkpt lat="42.25555" lon="22.85319">
        <ele>497.194505</ele>
        <time>2022-04-06T10:15:50.879Z</time>
      </trkpt>
      <trkpt lat="42.2555" lon="22.85304">
        <ele>497.398257</ele>
        <time>2022-04-06T10:15:53.949Z</time>
      </trkpt>
      <trkpt lat="42.25547" lon="22.8529">
        <ele>497.581607</ele>
        <time>2022-04-06T10:15:56.885Z</time>
      </trkpt>
      <trkpt lat="42.25542" lon="22.85275">
        <ele>497.785122</ele>
        <time>2022-04-06T10:15:59.880Z</time>
      </trkpt>
      <trkpt lat="42.25538" lon="22.8526">
        <ele>497.992785</ele>
        <time>2022-04-06T10:16:02.891Z</time>
      </trkpt>
      <trkpt lat="42.25535" lon="22.85248">
        <ele>498.146957</ele>
        <time>2022-04-06T10:16:04.927Z</time>
      </trkpt>
      <trkpt lat="42.25531" lon="22.85231">
        <ele>498.375265</ele>
        <time>2022-04-06T10:16:07.897Z</time>
      </trkpt>
      <trkpt lat="42.25529" lon="22.85217">
        <ele>498.553738</ele>
        <time>2022-04-06T10:16:09.890Z</time>
      </trkpt>
      <trkpt lat="42.25528" lon="22.85203">
        <ele>498.851973</ele>
        <time>2022-04-06T10:16:11.932Z</time>
      </trkpt>
      <trkpt lat="42.25525" lon="22.8519">
        <ele>499.395283</ele>
        <time>2022-04-06T10:16:13.876Z</time>
      </trkpt>
      <trkpt lat="42.25523" lon="22.85178">
        <ele>499.896693</ele>
        <time>2022-04-06T10:16:15.916Z</time>
      </trkpt>
      <trkpt lat="42.25519" lon="22.85163">
        <ele>500.548209</ele>
        <time>2022-04-06T10:16:18.890Z</time>
      </trkpt>
      <trkpt lat="42.25516" lon="22.85149">
        <ele>501.133615</ele>
        <time>2022-04-06T10:16:21.907Z</time>
      </trkpt>
      <trkpt lat="42.25514" lon="22.85135">
        <ele>501.728062</ele>
        <time>2022-04-06T10:16:24.911Z</time>
      </trkpt>
      <trkpt lat="42.25512" lon="22.8512">
        <ele>502.340712</ele>
        <time>2022-04-06T10:16:27.876Z</time>
      </trkpt>
      <trkpt lat="42.25509" lon="22.85106">
        <ele>502.933</ele>
        <time>2022-04-06T10:16:30.890Z</time>
      </trkpt>
      <trkpt lat="42.25506" lon="22.85093">
        <ele>503.469965</ele>
        <time>2022-04-06T10:16:33.883Z</time>
      </trkpt>
      <trkpt lat="42.25503" lon="22.85081">
        <ele>503.982629</ele>
        <time>2022-04-06T10:16:36.888Z</time>
      </trkpt>
      <trkpt lat="42.255" lon="22.8507">
        <ele>504.49071</ele>
        <time>2022-04-06T10:16:39.875Z</time>
      </trkpt>
      <trkpt lat="42.25496" lon="22.85059">
        <ele>504.986407</ele>
        <time>2022-04-06T10:16:42.916Z</time>
      </trkpt>
      <trkpt lat="42.25493" lon="22.85045">
        <ele>505.571815</ele>
        <time>2022-04-06T10:16:46.884Z</time>
      </trkpt>
      <trkpt lat="42.2549" lon="22.85032">
        <ele>506.138004</ele>
        <time>2022-04-06T10:16:50.876Z</time>
      </trkpt>
      <trkpt lat="42.25487" lon="22.85017">
        <ele>506.764578</ele>
        <time>2022-04-06T10:16:54.899Z</time>
      </trkpt>
      <trkpt lat="42.25483" lon="22.85003">
        <ele>507.349704</ele>
        <time>2022-04-06T10:16:58.895Z</time>
      </trkpt>
      <trkpt lat="42.2548" lon="22.84989">
        <ele>507.968481</ele>
        <time>2022-04-06T10:17:02.887Z</time>
      </trkpt>
      <trkpt lat="42.25478" lon="22.84973">
        <ele>508.562651</ele>
        <time>2022-04-06T10:17:06.872Z</time>
      </trkpt>
      <trkpt lat="42.25476" lon="22.84961">
        <ele>508.633859</ele>
        <time>2022-04-06T10:17:09.896Z</time>
      </trkpt>
      <trkpt lat="42.25474" lon="22.84949">
        <ele>508.707323</ele>
        <time>2022-04-06T10:17:12.892Z</time>
      </trkpt>
      <trkpt lat="42.25473" lon="22.84936">
        <ele>508.786242</ele>
        <time>2022-04-06T10:17:16.876Z</time>
      </trkpt>
      <trkpt lat="42.25472" lon="22.84923">
        <ele>508.864171</ele>
        <time>2022-04-06T10:17:20.880Z</time>
      </trkpt>
      <trkpt lat="42.2547" lon="22.84908">
        <ele>508.949718</ele>
        <time>2022-04-06T10:17:24.916Z</time>
      </trkpt>
      <trkpt lat="42.25472" lon="22.84895">
        <ele>509.026177</ele>
        <time>2022-04-06T10:17:27.882Z</time>
      </trkpt>
      <trkpt lat="42.25475" lon="22.84882">
        <ele>509.109451</ele>
        <time>2022-04-06T10:17:30.878Z</time>
      </trkpt>
      <trkpt lat="42.25479" lon="22.84869">
        <ele>509.190725</ele>
        <time>2022-04-06T10:17:33.876Z</time>
      </trkpt>
      <trkpt lat="42.25482" lon="22.84858">
        <ele>509.261561</ele>
        <time>2022-04-06T10:17:36.872Z</time>
      </trkpt>
      <trkpt lat="42.25486" lon="22.84844">
        <ele>509.343102</ele>
        <time>2022-04-06T10:17:40.927Z</time>
      </trkpt>
      <trkpt lat="42.25489" lon="22.84833">
        <ele>509.415069</ele>
        <time>2022-04-06T10:17:43.882Z</time>
      </trkpt>
      <trkpt lat="42.25493" lon="22.84821">
        <ele>509.489313</ele>
        <time>2022-04-06T10:17:46.894Z</time>
      </trkpt>
      <trkpt lat="42.25497" lon="22.8481">
        <ele>509.564336</ele>
        <time>2022-04-06T10:17:49.916Z</time>
      </trkpt>
      <trkpt lat="42.25502" lon="22.84798">
        <ele>509.644072</ele>
        <time>2022-04-06T10:17:52.887Z</time>
      </trkpt>
      <trkpt lat="42.25507" lon="22.84785">
        <ele>509.729275</ele>
        <time>2022-04-06T10:17:55.910Z</time>
      </trkpt>
      <trkpt lat="42.25512" lon="22.84774">
        <ele>509.804299</ele>
        <time>2022-04-06T10:17:58.891Z</time>
      </trkpt>
      <trkpt lat="42.25516" lon="22.84762">
        <ele>509.881048</ele>
        <time>2022-04-06T10:18:01.885Z</time>
      </trkpt>
      <trkpt lat="42.2552" lon="22.84751">
        <ele>509.95414</ele>
        <time>2022-04-06T10:18:04.892Z</time>
      </trkpt>
      <trkpt lat="42.25525" lon="22.84737">
        <ele>509.628122</ele>
        <time>2022-04-06T10:18:08.885Z</time>
      </trkpt>
      <trkpt lat="42.25528" lon="22.84724">
        <ele>509.218972</ele>
        <time>2022-04-06T10:18:11.880Z</time>
      </trkpt>
      <trkpt lat="42.25532" lon="22.84713">
        <ele>508.827461</ele>
        <time>2022-04-06T10:18:14.871Z</time>
      </trkpt>
      <trkpt lat="42.25537" lon="22.84702">
        <ele>508.450586</ele>
        <time>2022-04-06T10:18:17.882Z</time>
      </trkpt>
      <trkpt lat="42.25541" lon="22.8469">
        <ele>508.050295</ele>
        <time>2022-04-06T10:18:20.886Z</time>
      </trkpt>
      <trkpt lat="42.25545" lon="22.84678">
        <ele>507.638184</ele>
        <time>2022-04-06T10:18:23.867Z</time>
      </trkpt>
      <trkpt lat="42.2555" lon="22.84665">
        <ele>507.209567</ele>
        <time>2022-04-06T10:18:26.870Z</time>
      </trkpt>
      <trkpt lat="42.25555" lon="22.84652">
        <ele>506.771832</ele>
        <time>2022-04-06T10:18:29.868Z</time>
      </trkpt>
      <trkpt lat="42.25559" lon="22.84639">
        <ele>506.346198</ele>
        <time>2022-04-06T10:18:32.866Z</time>
      </trkpt>
      <trkpt lat="42.25564" lon="22.84626">
        <ele>505.902082</ele>
        <time>2022-04-06T10:18:35.873Z</time>
      </trkpt>
      <trkpt lat="42.25569" lon="22.84612">
        <ele>505.432943</ele>
        <time>2022-04-06T10:18:38.876Z</time>
      </trkpt>
      <trkpt lat="42.25575" lon="22.84596">
        <ele>504.897718</ele>
        <time>2022-04-06T10:18:41.863Z</time>
      </trkpt>
      <trkpt lat="42.2558" lon="22.84581">
        <ele>504.393797</ele>
        <time>2022-04-06T10:18:44.875Z</time>
      </trkpt>
      <trkpt lat="42.25585" lon="22.84566">
        <ele>503.872164</ele>
        <time>2022-04-06T10:18:47.892Z</time>
      </trkpt>
      <trkpt lat="42.25591" lon="22.8455">
        <ele>503.347819</ele>
        <time>2022-04-06T10:18:50.912Z</time>
      </trkpt>
      <trkpt lat="42.25597" lon="22.84534">
        <ele>502.812521</ele>
        <time>2022-04-06T10:18:53.880Z</time>
      </trkpt>
      <trkpt lat="42.25602" lon="22.84518">
        <ele>502.443258</ele>
        <time>2022-04-06T10:18:56.878Z</time>
      </trkpt>
      <trkpt lat="42.25607" lon="22.84503">
        <ele>502.19501</ele>
        <time>2022-04-06T10:18:59.874Z</time>
      </trkpt>
      <trkpt lat="42.25612" lon="22.84489">
        <ele>501.956691</ele>
        <time>2022-04-06T10:19:02.864Z</time>
      </trkpt>
      <trkpt lat="42.25618" lon="22.84473">
        <ele>501.690794</ele>
        <time>2022-04-06T10:19:05.881Z</time>
      </trkpt>
      <trkpt lat="42.25623" lon="22.84457">
        <ele>501.429161</ele>
        <time>2022-04-06T10:19:08.869Z</time>
      </trkpt>
      <trkpt lat="42.25629" lon="22.84442">
        <ele>501.180605</ele>
        <time>2022-04-06T10:19:11.875Z</time>
      </trkpt>
      <trkpt lat="42.25633" lon="22.84428">
        <ele>500.940353</ele>
        <time>2022-04-06T10:19:14.868Z</time>
      </trkpt>
      <trkpt lat="42.25638" lon="22.84413">
        <ele>500.70309</ele>
        <time>2022-04-06T10:19:17.882Z</time>
      </trkpt>
      <trkpt lat="42.25643" lon="22.844">
        <ele>500.472589</ele>
        <time>2022-04-06T10:19:20.876Z</time>
      </trkpt>
      <trkpt lat="42.25648" lon="22.84386">
        <ele>500.243357</ele>
        <time>2022-04-06T10:19:23.876Z</time>
      </trkpt>
      <trkpt lat="42.25653" lon="22.84372">
        <ele>500.005637</ele>
        <time>2022-04-06T10:19:26.872Z</time>
      </trkpt>
      <trkpt lat="42.25658" lon="22.84358">
        <ele>499.775136</ele>
        <time>2022-04-06T10:19:29.906Z</time>
      </trkpt>
      <trkpt lat="42.25663" lon="22.84344">
        <ele>499.540567</ele>
        <time>2022-04-06T10:19:32.880Z</time>
      </trkpt>
      <trkpt lat="42.25668" lon="22.84332">
        <ele>499.327353</ele>
        <time>2022-04-06T10:19:35.880Z</time>
      </trkpt>
      <trkpt lat="42.25675" lon="22.84321">
        <ele>499.102527</ele>
        <time>2022-04-06T10:19:38.884Z</time>
      </trkpt>
      <trkpt lat="42.25686" lon="22.8431">
        <ele>498.916927</ele>
        <time>2022-04-06T10:19:41.879Z</time>
      </trkpt>
      <trkpt lat="42.25697" lon="22.84305">
        <ele>498.85872</ele>
        <time>2022-04-06T10:19:43.892Z</time>
      </trkpt>
      <trkpt lat="42.2571" lon="22.843">
        <ele>498.792794</ele>
        <time>2022-04-06T10:19:45.892Z</time>
      </trkpt>
      <trkpt lat="42.25719" lon="22.84292">
        <ele>498.736602</ele>
        <time>2022-04-06T10:19:47.875Z</time>
      </trkpt>
      <trkpt lat="42.25725" lon="22.84278">
        <ele>498.677822</ele>
        <time>2022-04-06T10:19:49.895Z</time>
      </trkpt>
      <trkpt lat="42.25727" lon="22.84264">
        <ele>498.624572</ele>
        <time>2022-04-06T10:19:51.899Z</time>
      </trkpt>
      <trkpt lat="42.25729" lon="22.84251">
        <ele>498.576505</ele>
        <time>2022-04-06T10:19:53.871Z</time>
      </trkpt>
      <trkpt lat="42.2573" lon="22.84239">
        <ele>498.531361</ele>
        <time>2022-04-06T10:19:55.925Z</time>
      </trkpt>
      <trkpt lat="42.25731" lon="22.84223">
        <ele>498.471612</ele>
        <time>2022-04-06T10:19:58.895Z</time>
      </trkpt>
      <trkpt lat="42.25732" lon="22.84208">
        <ele>498.416629</ele>
        <time>2022-04-06T10:20:01.923Z</time>
      </trkpt>
      <trkpt lat="42.25734" lon="22.84194">
        <ele>498.363392</ele>
        <time>2022-04-06T10:20:04.914Z</time>
      </trkpt>
      <trkpt lat="42.25736" lon="22.8418">
        <ele>498.311053</ele>
        <time>2022-04-06T10:20:07.875Z</time>
      </trkpt>
      <trkpt lat="42.25738" lon="22.84165">
        <ele>498.256808</ele>
        <time>2022-04-06T10:20:10.875Z</time>
      </trkpt>
      <trkpt lat="42.2574" lon="22.84151">
        <ele>498.20493</ele>
        <time>2022-04-06T10:20:13.883Z</time>
      </trkpt>
      <trkpt lat="42.25743" lon="22.84137">
        <ele>498.149411</ele>
        <time>2022-04-06T10:20:16.886Z</time>
      </trkpt>
      <trkpt lat="42.25745" lon="22.84123">
        <ele>498.095562</ele>
        <time>2022-04-06T10:20:19.874Z</time>
      </trkpt>
      <trkpt lat="42.25748" lon="22.84109">
        <ele>498.091074</ele>
        <time>2022-04-06T10:20:22.883Z</time>
      </trkpt>
      <trkpt lat="42.25751" lon="22.84097">
        <ele>498.559776</ele>
        <time>2022-04-06T10:20:25.889Z</time>
      </trkpt>
      <trkpt lat="42.25754" lon="22.84085">
        <ele>499.011726</ele>
        <time>2022-04-06T10:20:28.877Z</time>
      </trkpt>
      <trkpt lat="42.25757" lon="22.84071">
        <ele>499.525987</ele>
        <time>2022-04-06T10:20:31.892Z</time>
      </trkpt>
      <trkpt lat="42.25762" lon="22.84057">
        <ele>500.09383</ele>
        <time>2022-04-06T10:20:34.886Z</time>
      </trkpt>
      <trkpt lat="42.25765" lon="22.84043">
        <ele>500.602897</ele>
        <time>2022-04-06T10:20:37.880Z</time>
      </trkpt>
      <trkpt lat="42.2577" lon="22.84029">
        <ele>501.163431</ele>
        <time>2022-04-06T10:20:40.895Z</time>
      </trkpt>
      <trkpt lat="42.25775" lon="22.84014">
        <ele>501.752535</ele>
        <time>2022-04-06T10:20:43.889Z</time>
      </trkpt>
      <trkpt lat="42.25781" lon="22.83999">
        <ele>502.353323</ele>
        <time>2022-04-06T10:20:46.894Z</time>
      </trkpt>
      <trkpt lat="42.25786" lon="22.83984">
        <ele>502.949813</ele>
        <time>2022-04-06T10:20:49.896Z</time>
      </trkpt>
      <trkpt lat="42.25792" lon="22.83968">
        <ele>503.57532</ele>
        <time>2022-04-06T10:20:52.885Z</time>
      </trkpt>
      <trkpt lat="42.25797" lon="22.83953">
        <ele>504.179335</ele>
        <time>2022-04-06T10:20:55.880Z</time>
      </trkpt>
      <trkpt lat="42.25801" lon="22.83942">
        <ele>504.618171</ele>
        <time>2022-04-06T10:20:57.879Z</time>
      </trkpt>
      <trkpt lat="42.25805" lon="22.83931">
        <ele>505.062814</ele>
        <time>2022-04-06T10:20:59.885Z</time>
      </trkpt>
      <trkpt lat="42.2581" lon="22.83914">
        <ele>505.713963</ele>
        <time>2022-04-06T10:21:02.873Z</time>
      </trkpt>
      <trkpt lat="42.25815" lon="22.83903">
        <ele>506.154199</ele>
        <time>2022-04-06T10:21:04.894Z</time>
      </trkpt>
      <trkpt lat="42.2582" lon="22.83889">
        <ele>506.739979</ele>
        <time>2022-04-06T10:21:07.870Z</time>
      </trkpt>
      <trkpt lat="42.25825" lon="22.83874">
        <ele>506.394607</ele>
        <time>2022-04-06T10:21:10.873Z</time>
      </trkpt>
      <trkpt lat="42.25829" lon="22.83863">
        <ele>506.116637</ele>
        <time>2022-04-06T10:21:12.873Z</time>
      </trkpt>
      <trkpt lat="42.25833" lon="22.83851">
        <ele>505.822085</ele>
        <time>2022-04-06T10:21:14.871Z</time>
      </trkpt>
      <trkpt lat="42.25837" lon="22.83839">
        <ele>505.52602</ele>
        <time>2022-04-06T10:21:16.876Z</time>
      </trkpt>
      <trkpt lat="42.25841" lon="22.83827">
        <ele>505.235656</ele>
        <time>2022-04-06T10:21:18.874Z</time>
      </trkpt>
      <trkpt lat="42.25845" lon="22.83815">
        <ele>504.930929</ele>
        <time>2022-04-06T10:21:20.870Z</time>
      </trkpt>
      <trkpt lat="42.25849" lon="22.83803">
        <ele>504.643776</ele>
        <time>2022-04-06T10:21:22.873Z</time>
      </trkpt>
      <trkpt lat="42.25854" lon="22.83792">
        <ele>504.355292</ele>
        <time>2022-04-06T10:21:24.860Z</time>
      </trkpt>
      <trkpt lat="42.25858" lon="22.8378">
        <ele>504.06814</ele>
        <time>2022-04-06T10:21:26.875Z</time>
      </trkpt>
      <trkpt lat="42.25862" lon="22.83769">
        <ele>503.783683</ele>
        <time>2022-04-06T10:21:28.876Z</time>
      </trkpt>
      <trkpt lat="42.25866" lon="22.83757">
        <ele>503.491832</ele>
        <time>2022-04-06T10:21:30.873Z</time>
      </trkpt>
      <trkpt lat="42.2587" lon="22.83746">
        <ele>503.205986</ele>
        <time>2022-04-06T10:21:32.901Z</time>
      </trkpt>
      <trkpt lat="42.25874" lon="22.83734">
        <ele>502.909406</ele>
        <time>2022-04-06T10:21:34.871Z</time>
      </trkpt>
      <trkpt lat="42.25878" lon="22.83721">
        <ele>502.601833</ele>
        <time>2022-04-06T10:21:36.875Z</time>
      </trkpt>
      <trkpt lat="42.25882" lon="22.8371">
        <ele>502.307819</ele>
        <time>2022-04-06T10:21:38.872Z</time>
      </trkpt>
      <trkpt lat="42.25886" lon="22.83698">
        <ele>502.021974</ele>
        <time>2022-04-06T10:21:40.871Z</time>
      </trkpt>
      <trkpt lat="42.25891" lon="22.83686">
        <ele>501.732795</ele>
        <time>2022-04-06T10:21:42.866Z</time>
      </trkpt>
      <trkpt lat="42.25895" lon="22.83675">
        <ele>501.436915</ele>
        <time>2022-04-06T10:21:44.868Z</time>
      </trkpt>
      <trkpt lat="42.25899" lon="22.83663">
        <ele>501.173788</ele>
        <time>2022-04-06T10:21:46.873Z</time>
      </trkpt>
      <trkpt lat="42.25903" lon="22.83652">
        <ele>500.933463</ele>
        <time>2022-04-06T10:21:48.874Z</time>
      </trkpt>
      <trkpt lat="42.25907" lon="22.83641">
        <ele>500.6941</ele>
        <time>2022-04-06T10:21:50.874Z</time>
      </trkpt>
      <trkpt lat="42.25911" lon="22.8363">
        <ele>500.445111</ele>
        <time>2022-04-06T10:21:52.869Z</time>
      </trkpt>
      <trkpt lat="42.25915" lon="22.83618">
        <ele>500.18496</ele>
        <time>2022-04-06T10:21:54.873Z</time>
      </trkpt>
      <trkpt lat="42.25919" lon="22.83605">
        <ele>499.916979</ele>
        <time>2022-04-06T10:21:56.872Z</time>
      </trkpt>
      <trkpt lat="42.25924" lon="22.83592">
        <ele>499.651104</ele>
        <time>2022-04-06T10:21:58.876Z</time>
      </trkpt>
      <trkpt lat="42.25928" lon="22.8358">
        <ele>499.394485</ele>
        <time>2022-04-06T10:22:00.906Z</time>
      </trkpt>
      <trkpt lat="42.25932" lon="22.83568">
        <ele>499.134676</ele>
        <time>2022-04-06T10:22:02.867Z</time>
      </trkpt>
      <trkpt lat="42.25936" lon="22.83556">
        <ele>498.870986</ele>
        <time>2022-04-06T10:22:04.875Z</time>
      </trkpt>
      <trkpt lat="42.2594" lon="22.83543">
        <ele>498.604448</ele>
        <time>2022-04-06T10:22:06.873Z</time>
      </trkpt>
      <trkpt lat="42.25944" lon="22.83531">
        <ele>498.341441</ele>
        <time>2022-04-06T10:22:08.873Z</time>
      </trkpt>
      <trkpt lat="42.25949" lon="22.83518">
        <ele>498.071555</ele>
        <time>2022-04-06T10:22:10.880Z</time>
      </trkpt>
      <trkpt lat="42.25953" lon="22.83506">
        <ele>497.806784</ele>
        <time>2022-04-06T10:22:12.873Z</time>
      </trkpt>
      <trkpt lat="42.25957" lon="22.83494">
        <ele>497.55479</ele>
        <time>2022-04-06T10:22:14.884Z</time>
      </trkpt>
      <trkpt lat="42.25961" lon="22.83483">
        <ele>497.311588</ele>
        <time>2022-04-06T10:22:16.873Z</time>
      </trkpt>
      <trkpt lat="42.25966" lon="22.83467">
        <ele>496.960913</ele>
        <time>2022-04-06T10:22:19.870Z</time>
      </trkpt>
      <trkpt lat="42.2597" lon="22.83455">
        <ele>496.721209</ele>
        <time>2022-04-06T10:22:21.876Z</time>
      </trkpt>
      <trkpt lat="42.25974" lon="22.83444">
        <ele>496.576876</ele>
        <time>2022-04-06T10:22:23.871Z</time>
      </trkpt>
      <trkpt lat="42.2598" lon="22.83429">
        <ele>496.603738</ele>
        <time>2022-04-06T10:22:26.873Z</time>
      </trkpt>
      <trkpt lat="42.25985" lon="22.83413">
        <ele>496.630118</ele>
        <time>2022-04-06T10:22:29.892Z</time>
      </trkpt>
      <trkpt lat="42.25989" lon="22.83398">
        <ele>496.655313</ele>
        <time>2022-04-06T10:22:32.883Z</time>
      </trkpt>
      <trkpt lat="42.25994" lon="22.83385">
        <ele>496.678256</ele>
        <time>2022-04-06T10:22:35.900Z</time>
      </trkpt>
      <trkpt lat="42.25998" lon="22.83372">
        <ele>496.69958</ele>
        <time>2022-04-06T10:22:38.869Z</time>
      </trkpt>
      <trkpt lat="42.26002" lon="22.83359">
        <ele>496.721434</ele>
        <time>2022-04-06T10:22:41.874Z</time>
      </trkpt>
      <trkpt lat="42.26007" lon="22.83347">
        <ele>496.742942</ele>
        <time>2022-04-06T10:22:44.873Z</time>
      </trkpt>
      <trkpt lat="42.26011" lon="22.83334">
        <ele>496.765744</ele>
        <time>2022-04-06T10:22:47.874Z</time>
      </trkpt>
      <trkpt lat="42.26016" lon="22.8332">
        <ele>496.788509</ele>
        <time>2022-04-06T10:22:50.877Z</time>
      </trkpt>
      <trkpt lat="42.26021" lon="22.83307">
        <ele>496.811915</ele>
        <time>2022-04-06T10:22:53.866Z</time>
      </trkpt>
      <trkpt lat="42.26025" lon="22.83293">
        <ele>496.835369</ele>
        <time>2022-04-06T10:22:56.873Z</time>
      </trkpt>
      <trkpt lat="42.26031" lon="22.8328">
        <ele>496.859221</ele>
        <time>2022-04-06T10:22:59.867Z</time>
      </trkpt>
      <trkpt lat="42.26036" lon="22.83266">
        <ele>496.883483</ele>
        <time>2022-04-06T10:23:02.870Z</time>
      </trkpt>
      <trkpt lat="42.26042" lon="22.83252">
        <ele>496.908629</ele>
        <time>2022-04-06T10:23:05.872Z</time>
      </trkpt>
      <trkpt lat="42.26047" lon="22.83237">
        <ele>496.93353</ele>
        <time>2022-04-06T10:23:08.880Z</time>
      </trkpt>
      <trkpt lat="42.26052" lon="22.83223">
        <ele>497.098561</ele>
        <time>2022-04-06T10:23:11.867Z</time>
      </trkpt>
      <trkpt lat="42.26056" lon="22.8321">
        <ele>497.469572</ele>
        <time>2022-04-06T10:23:14.873Z</time>
      </trkpt>
      <trkpt lat="42.26059" lon="22.83198">
        <ele>497.798993</ele>
        <time>2022-04-06T10:23:17.867Z</time>
      </trkpt>
      <trkpt lat="42.26063" lon="22.83185">
        <ele>498.145164</ele>
        <time>2022-04-06T10:23:20.865Z</time>
      </trkpt>
      <trkpt lat="42.26068" lon="22.83171">
        <ele>498.535903</ele>
        <time>2022-04-06T10:23:23.877Z</time>
      </trkpt>
      <trkpt lat="42.26073" lon="22.83156">
        <ele>498.934436</ele>
        <time>2022-04-06T10:23:26.872Z</time>
      </trkpt>
      <trkpt lat="42.26077" lon="22.83142">
        <ele>499.333932</ele>
        <time>2022-04-06T10:23:29.867Z</time>
      </trkpt>
      <trkpt lat="42.26081" lon="22.83127">
        <ele>499.721165</ele>
        <time>2022-04-06T10:23:32.887Z</time>
      </trkpt>
      <trkpt lat="42.26085" lon="22.83113">
        <ele>500.102753</ele>
        <time>2022-04-06T10:23:35.868Z</time>
      </trkpt>
      <trkpt lat="42.26089" lon="22.83099">
        <ele>500.486439</ele>
        <time>2022-04-06T10:23:38.874Z</time>
      </trkpt>
      <trkpt lat="42.26092" lon="22.83085">
        <ele>500.856088</ele>
        <time>2022-04-06T10:23:41.870Z</time>
      </trkpt>
      <trkpt lat="42.26096" lon="22.83071">
        <ele>501.23175</ele>
        <time>2022-04-06T10:23:44.876Z</time>
      </trkpt>
      <trkpt lat="42.261" lon="22.83057">
        <ele>501.615495</ele>
        <time>2022-04-06T10:23:47.877Z</time>
      </trkpt>
      <trkpt lat="42.26104" lon="22.83042">
        <ele>502.011172</ele>
        <time>2022-04-06T10:23:50.866Z</time>
      </trkpt>
      <trkpt lat="42.26108" lon="22.83028">
        <ele>502.392497</ele>
        <time>2022-04-06T10:23:53.874Z</time>
      </trkpt>
      <trkpt lat="42.26111" lon="22.83014">
        <ele>502.763454</ele>
        <time>2022-04-06T10:23:56.876Z</time>
      </trkpt>
      <trkpt lat="42.26115" lon="22.82999">
        <ele>503.064121</ele>
        <time>2022-04-06T10:23:59.895Z</time>
      </trkpt>
      <trkpt lat="42.26118" lon="22.82986">
        <ele>503.053656</ele>
        <time>2022-04-06T10:24:02.872Z</time>
      </trkpt>
      <trkpt lat="42.26121" lon="22.82973">
        <ele>503.043291</ele>
        <time>2022-04-06T10:24:05.872Z</time>
      </trkpt>
      <trkpt lat="42.26124" lon="22.8296">
        <ele>503.033278</ele>
        <time>2022-04-06T10:24:08.902Z</time>
      </trkpt>
      <trkpt lat="42.26127" lon="22.82946">
        <ele>503.022382</ele>
        <time>2022-04-06T10:24:11.871Z</time>
      </trkpt>
      <trkpt lat="42.26131" lon="22.82932">
        <ele>503.0109</ele>
        <time>2022-04-06T10:24:14.874Z</time>
      </trkpt>
      <trkpt lat="42.26134" lon="22.82918">
        <ele>502.999912</ele>
        <time>2022-04-06T10:24:17.872Z</time>
      </trkpt>
      <trkpt lat="42.26139" lon="22.82904">
        <ele>502.98818</ele>
        <time>2022-04-06T10:24:20.874Z</time>
      </trkpt>
      <trkpt lat="42.26143" lon="22.8289">
        <ele>502.976803</ele>
        <time>2022-04-06T10:24:23.880Z</time>
      </trkpt>
      <trkpt lat="42.26146" lon="22.82876">
        <ele>502.96613</ele>
        <time>2022-04-06T10:24:26.871Z</time>
      </trkpt>
      <trkpt lat="42.2615" lon="22.82863">
        <ele>502.955531</ele>
        <time>2022-04-06T10:24:29.873Z</time>
      </trkpt>
      <trkpt lat="42.26153" lon="22.8285">
        <ele>502.944967</ele>
        <time>2022-04-06T10:24:32.869Z</time>
      </trkpt>
      <trkpt lat="42.26157" lon="22.82838">
        <ele>502.934964</ele>
        <time>2022-04-06T10:24:35.868Z</time>
      </trkpt>
      <trkpt lat="42.26161" lon="22.82824">
        <ele>502.924152</ele>
        <time>2022-04-06T10:24:38.870Z</time>
      </trkpt>
      <trkpt lat="42.26165" lon="22.82811">
        <ele>502.913235</ele>
        <time>2022-04-06T10:24:41.877Z</time>
      </trkpt>
      <trkpt lat="42.26168" lon="22.82797">
        <ele>502.90253</ele>
        <time>2022-04-06T10:24:44.875Z</time>
      </trkpt>
      <trkpt lat="42.26172" lon="22.82784">
        <ele>502.89186</ele>
        <time>2022-04-06T10:24:47.872Z</time>
      </trkpt>
      <trkpt lat="42.26175" lon="22.82771">
        <ele>502.880797</ele>
        <time>2022-04-06T10:24:50.877Z</time>
      </trkpt>
      <trkpt lat="42.26178" lon="22.82758">
        <ele>502.867685</ele>
        <time>2022-04-06T10:24:53.874Z</time>
      </trkpt>
      <trkpt lat="42.26182" lon="22.82744">
        <ele>502.854044</ele>
        <time>2022-04-06T10:24:56.875Z</time>
      </trkpt>
      <trkpt lat="42.26185" lon="22.82731">
        <ele>502.840931</ele>
        <time>2022-04-06T10:24:59.876Z</time>
      </trkpt>
      <trkpt lat="42.26189" lon="22.82717">
        <ele>502.827156</ele>
        <time>2022-04-06T10:25:02.899Z</time>
      </trkpt>
      <trkpt lat="42.26192" lon="22.82703">
        <ele>502.813154</ele>
        <time>2022-04-06T10:25:05.871Z</time>
      </trkpt>
      <trkpt lat="42.26196" lon="22.8269">
        <ele>502.799735</ele>
        <time>2022-04-06T10:25:08.881Z</time>
      </trkpt>
      <trkpt lat="42.262" lon="22.82676">
        <ele>502.785822</ele>
        <time>2022-04-06T10:25:11.872Z</time>
      </trkpt>
      <trkpt lat="42.26203" lon="22.82662">
        <ele>502.771781</ele>
        <time>2022-04-06T10:25:14.865Z</time>
      </trkpt>
      <trkpt lat="42.26207" lon="22.82648">
        <ele>502.757959</ele>
        <time>2022-04-06T10:25:17.871Z</time>
      </trkpt>
      <trkpt lat="42.2621" lon="22.82635">
        <ele>502.744397</ele>
        <time>2022-04-06T10:25:20.875Z</time>
      </trkpt>
      <trkpt lat="42.26214" lon="22.82622">
        <ele>502.731243</ele>
        <time>2022-04-06T10:25:23.871Z</time>
      </trkpt>
      <trkpt lat="42.26217" lon="22.82608">
        <ele>502.717778</ele>
        <time>2022-04-06T10:25:26.872Z</time>
      </trkpt>
      <trkpt lat="42.2622" lon="22.82595">
        <ele>502.704706</ele>
        <time>2022-04-06T10:25:29.868Z</time>
      </trkpt>
      <trkpt lat="42.26224" lon="22.82582">
        <ele>502.691598</ele>
        <time>2022-04-06T10:25:32.868Z</time>
      </trkpt>
      <trkpt lat="42.26227" lon="22.8257">
        <ele>502.678979</ele>
        <time>2022-04-06T10:25:35.894Z</time>
      </trkpt>
      <trkpt lat="42.26232" lon="22.82554">
        <ele>502.66316</ele>
        <time>2022-04-06T10:25:38.873Z</time>
      </trkpt>
      <trkpt lat="42.26236" lon="22.82539">
        <ele>502.664548</ele>
        <time>2022-04-06T10:25:41.894Z</time>
      </trkpt>
      <trkpt lat="42.26239" lon="22.82524">
        <ele>502.696243</ele>
        <time>2022-04-06T10:25:44.877Z</time>
      </trkpt>
      <trkpt lat="42.26243" lon="22.82511">
        <ele>502.725313</ele>
        <time>2022-04-06T10:25:47.895Z</time>
      </trkpt>
      <trkpt lat="42.26246" lon="22.82498">
        <ele>502.75369</ele>
        <time>2022-04-06T10:25:50.872Z</time>
      </trkpt>
      <trkpt lat="42.26249" lon="22.82485">
        <ele>502.781629</ele>
        <time>2022-04-06T10:25:53.870Z</time>
      </trkpt>
      <trkpt lat="42.26253" lon="22.82471">
        <ele>502.813407</ele>
        <time>2022-04-06T10:25:56.877Z</time>
      </trkpt>
      <trkpt lat="42.26257" lon="22.82457">
        <ele>502.844546</ele>
        <time>2022-04-06T10:25:59.893Z</time>
      </trkpt>
      <trkpt lat="42.26261" lon="22.82443">
        <ele>502.876228</ele>
        <time>2022-04-06T10:26:02.874Z</time>
      </trkpt>
      <trkpt lat="42.26265" lon="22.82429">
        <ele>502.906942</ele>
        <time>2022-04-06T10:26:05.874Z</time>
      </trkpt>
      <trkpt lat="42.26269" lon="22.82414">
        <ele>502.939407</ele>
        <time>2022-04-06T10:26:08.874Z</time>
      </trkpt>
      <trkpt lat="42.26272" lon="22.82399">
        <ele>502.971605</ele>
        <time>2022-04-06T10:26:11.879Z</time>
      </trkpt>
      <trkpt lat="42.26276" lon="22.82385">
        <ele>503.003015</ele>
        <time>2022-04-06T10:26:14.875Z</time>
      </trkpt>
      <trkpt lat="42.26279" lon="22.8237">
        <ele>503.034536</ele>
        <time>2022-04-06T10:26:17.865Z</time>
      </trkpt>
      <trkpt lat="42.26282" lon="22.82355">
        <ele>503.067129</ele>
        <time>2022-04-06T10:26:20.872Z</time>
      </trkpt>
      <trkpt lat="42.26286" lon="22.82341">
        <ele>503.099217</ele>
        <time>2022-04-06T10:26:23.867Z</time>
      </trkpt>
      <trkpt lat="42.2629" lon="22.82326">
        <ele>503.130716</ele>
        <time>2022-04-06T10:26:26.871Z</time>
      </trkpt>
      <trkpt lat="42.26293" lon="22.82312">
        <ele>503.141108</ele>
        <time>2022-04-06T10:26:29.864Z</time>
      </trkpt>
      <trkpt lat="42.26297" lon="22.82298">
        <ele>503.048984</ele>
        <time>2022-04-06T10:26:32.868Z</time>
      </trkpt>
      <trkpt lat="42.263" lon="22.82284">
        <ele>502.957637</ele>
        <time>2022-04-06T10:26:35.895Z</time>
      </trkpt>
      <trkpt lat="42.26304" lon="22.82269">
        <ele>502.862863</ele>
        <time>2022-04-06T10:26:38.876Z</time>
      </trkpt>
      <trkpt lat="42.26308" lon="22.82255">
        <ele>502.773346</ele>
        <time>2022-04-06T10:26:41.901Z</time>
      </trkpt>
      <trkpt lat="42.26312" lon="22.82241">
        <ele>502.680095</ele>
        <time>2022-04-06T10:26:44.873Z</time>
      </trkpt>
      <trkpt lat="42.26315" lon="22.82226">
        <ele>502.580779</ele>
        <time>2022-04-06T10:26:47.890Z</time>
      </trkpt>
      <trkpt lat="42.2632" lon="22.82211">
        <ele>502.481371</ele>
        <time>2022-04-06T10:26:50.875Z</time>
      </trkpt>
      <trkpt lat="42.26324" lon="22.82195">
        <ele>502.376021</ele>
        <time>2022-04-06T10:26:53.900Z</time>
      </trkpt>
      <trkpt lat="42.26327" lon="22.82183">
        <ele>502.300904</ele>
        <time>2022-04-06T10:26:55.864Z</time>
      </trkpt>
      <trkpt lat="42.26332" lon="22.82166">
        <ele>502.18836</ele>
        <time>2022-04-06T10:26:58.868Z</time>
      </trkpt>
      <trkpt lat="42.26335" lon="22.82154">
        <ele>502.112556</ele>
        <time>2022-04-06T10:27:00.870Z</time>
      </trkpt>
      <trkpt lat="42.26338" lon="22.82143">
        <ele>502.036856</ele>
        <time>2022-04-06T10:27:02.867Z</time>
      </trkpt>
      <trkpt lat="42.26341" lon="22.8213">
        <ele>501.952813</ele>
        <time>2022-04-06T10:27:04.867Z</time>
      </trkpt>
      <trkpt lat="42.26345" lon="22.82117">
        <ele>501.870782</ele>
        <time>2022-04-06T10:27:06.872Z</time>
      </trkpt>
      <trkpt lat="42.26348" lon="22.82105">
        <ele>501.790743</ele>
        <time>2022-04-06T10:27:08.873Z</time>
      </trkpt>
      <trkpt lat="42.26351" lon="22.82093">
        <ele>501.712424</ele>
        <time>2022-04-06T10:27:10.865Z</time>
      </trkpt>
      <trkpt lat="42.26354" lon="22.82081">
        <ele>501.68623</ele>
        <time>2022-04-06T10:27:12.875Z</time>
      </trkpt>
      <trkpt lat="42.26357" lon="22.82069">
        <ele>501.738955</ele>
        <time>2022-04-06T10:27:14.870Z</time>
      </trkpt>
      <trkpt lat="42.2636" lon="22.82058">
        <ele>501.792032</ele>
        <time>2022-04-06T10:27:16.874Z</time>
      </trkpt>
      <trkpt lat="42.26363" lon="22.82046">
        <ele>501.84511</ele>
        <time>2022-04-06T10:27:18.879Z</time>
      </trkpt>
      <trkpt lat="42.26366" lon="22.82035">
        <ele>501.898153</ele>
        <time>2022-04-06T10:27:20.868Z</time>
      </trkpt>
      <trkpt lat="42.26368" lon="22.82023">
        <ele>501.950818</ele>
        <time>2022-04-06T10:27:22.883Z</time>
      </trkpt>
      <trkpt lat="42.26371" lon="22.82012">
        <ele>502.003716</ele>
        <time>2022-04-06T10:27:24.874Z</time>
      </trkpt>
      <trkpt lat="42.26375" lon="22.81995">
        <ele>502.081384</ele>
        <time>2022-04-06T10:27:27.871Z</time>
      </trkpt>
      <trkpt lat="42.26378" lon="22.81983">
        <ele>502.135059</ele>
        <time>2022-04-06T10:27:29.861Z</time>
      </trkpt>
      <trkpt lat="42.26381" lon="22.81971">
        <ele>502.188505</ele>
        <time>2022-04-06T10:27:31.868Z</time>
      </trkpt>
      <trkpt lat="42.26384" lon="22.8196">
        <ele>502.243379</ele>
        <time>2022-04-06T10:27:33.866Z</time>
      </trkpt>
      <trkpt lat="42.26387" lon="22.81948">
        <ele>502.296833</ele>
        <time>2022-04-06T10:27:35.901Z</time>
      </trkpt>
      <trkpt lat="42.26392" lon="22.81931">
        <ele>502.376195</ele>
        <time>2022-04-06T10:27:38.876Z</time>
      </trkpt>
      <trkpt lat="42.26396" lon="22.8192">
        <ele>502.429483</ele>
        <time>2022-04-06T10:27:40.865Z</time>
      </trkpt>
      <trkpt lat="42.264" lon="22.81903">
        <ele>502.505777</ele>
        <time>2022-04-06T10:27:43.867Z</time>
      </trkpt>
      <trkpt lat="42.26405" lon="22.81887">
        <ele>502.582284</ele>
        <time>2022-04-06T10:27:46.873Z</time>
      </trkpt>
      <trkpt lat="42.26409" lon="22.8187">
        <ele>502.658188</ele>
        <time>2022-04-06T10:27:49.871Z</time>
      </trkpt>
      <trkpt lat="42.26413" lon="22.81854">
        <ele>502.713227</ele>
        <time>2022-04-06T10:27:52.878Z</time>
      </trkpt>
      <trkpt lat="42.26416" lon="22.81838">
        <ele>502.631281</ele>
        <time>2022-04-06T10:27:55.871Z</time>
      </trkpt>
      <trkpt lat="42.2642" lon="22.81822">
        <ele>502.546724</ele>
        <time>2022-04-06T10:27:58.867Z</time>
      </trkpt>
      <trkpt lat="42.26425" lon="22.81806">
        <ele>502.46301</ele>
        <time>2022-04-06T10:28:01.870Z</time>
      </trkpt>
      <trkpt lat="42.26429" lon="22.8179">
        <ele>502.381132</ele>
        <time>2022-04-06T10:28:04.873Z</time>
      </trkpt>
      <trkpt lat="42.26433" lon="22.81775">
        <ele>502.300119</ele>
        <time>2022-04-06T10:28:07.875Z</time>
      </trkpt>
      <trkpt lat="42.26436" lon="22.81759">
        <ele>502.221177</ele>
        <time>2022-04-06T10:28:10.872Z</time>
      </trkpt>
      <trkpt lat="42.26441" lon="22.81743">
        <ele>502.13699</ele>
        <time>2022-04-06T10:28:13.865Z</time>
      </trkpt>
      <trkpt lat="42.26445" lon="22.81727">
        <ele>502.054875</ele>
        <time>2022-04-06T10:28:16.866Z</time>
      </trkpt>
      <trkpt lat="42.26449" lon="22.81711">
        <ele>501.972296</ele>
        <time>2022-04-06T10:28:19.876Z</time>
      </trkpt>
      <trkpt lat="42.26454" lon="22.81695">
        <ele>501.887372</ele>
        <time>2022-04-06T10:28:22.870Z</time>
      </trkpt>
      <trkpt lat="42.26458" lon="22.81679">
        <ele>501.803402</ele>
        <time>2022-04-06T10:28:25.864Z</time>
      </trkpt>
      <trkpt lat="42.26461" lon="22.81664">
        <ele>501.724772</ele>
        <time>2022-04-06T10:28:28.875Z</time>
      </trkpt>
      <trkpt lat="42.26465" lon="22.81648">
        <ele>501.643692</ele>
        <time>2022-04-06T10:28:31.867Z</time>
      </trkpt>
      <trkpt lat="42.26469" lon="22.81633">
        <ele>501.565718</ele>
        <time>2022-04-06T10:28:34.867Z</time>
      </trkpt>
      <trkpt lat="42.26473" lon="22.81618">
        <ele>501.703529</ele>
        <time>2022-04-06T10:28:37.872Z</time>
      </trkpt>
      <trkpt lat="42.26477" lon="22.81602">
        <ele>502.023066</ele>
        <time>2022-04-06T10:28:40.867Z</time>
      </trkpt>
      <trkpt lat="42.26481" lon="22.81587">
        <ele>502.34798</ele>
        <time>2022-04-06T10:28:43.867Z</time>
      </trkpt>
      <trkpt lat="42.26485" lon="22.81571">
        <ele>502.672893</ele>
        <time>2022-04-06T10:28:46.879Z</time>
      </trkpt>
      <trkpt lat="42.26489" lon="22.81555">
        <ele>502.995976</ele>
        <time>2022-04-06T10:28:49.870Z</time>
      </trkpt>
      <trkpt lat="42.26493" lon="22.8154">
        <ele>503.31284</ele>
        <time>2022-04-06T10:28:52.863Z</time>
      </trkpt>
      <trkpt lat="42.26497" lon="22.81524">
        <ele>503.625197</ele>
        <time>2022-04-06T10:28:55.862Z</time>
      </trkpt>
      <trkpt lat="42.26501" lon="22.81509">
        <ele>503.939169</ele>
        <time>2022-04-06T10:28:58.872Z</time>
      </trkpt>
      <trkpt lat="42.26505" lon="22.81494">
        <ele>504.25136</ele>
        <time>2022-04-06T10:29:01.867Z</time>
      </trkpt>
      <trkpt lat="42.26509" lon="22.81479">
        <ele>504.558942</ele>
        <time>2022-04-06T10:29:04.877Z</time>
      </trkpt>
      <trkpt lat="42.26513" lon="22.81463">
        <ele>504.889285</ele>
        <time>2022-04-06T10:29:07.873Z</time>
      </trkpt>
      <trkpt lat="42.26517" lon="22.81448">
        <ele>505.206148</ele>
        <time>2022-04-06T10:29:10.876Z</time>
      </trkpt>
      <trkpt lat="42.26521" lon="22.81433">
        <ele>505.512157</ele>
        <time>2022-04-06T10:29:13.876Z</time>
      </trkpt>
      <trkpt lat="42.26525" lon="22.81418">
        <ele>505.807902</ele>
        <time>2022-04-06T10:29:16.871Z</time>
      </trkpt>
      <trkpt lat="42.26528" lon="22.81403">
        <ele>506.119453</ele>
        <time>2022-04-06T10:29:19.870Z</time>
      </trkpt>
      <trkpt lat="42.26532" lon="22.81388">
        <ele>506.247322</ele>
        <time>2022-04-06T10:29:22.861Z</time>
      </trkpt>
      <trkpt lat="42.26535" lon="22.81373">
        <ele>506.248103</ele>
        <time>2022-04-06T10:29:25.869Z</time>
      </trkpt>
      <trkpt lat="42.26539" lon="22.81358">
        <ele>506.248885</ele>
        <time>2022-04-06T10:29:28.871Z</time>
      </trkpt>
      <trkpt lat="42.26542" lon="22.81343">
        <ele>506.249643</ele>
        <time>2022-04-06T10:29:31.865Z</time>
      </trkpt>
      <trkpt lat="42.26546" lon="22.81329">
        <ele>506.250391</ele>
        <time>2022-04-06T10:29:34.871Z</time>
      </trkpt>
      <trkpt lat="42.2655" lon="22.81314">
        <ele>506.251187</ele>
        <time>2022-04-06T10:29:37.866Z</time>
      </trkpt>
      <trkpt lat="42.26554" lon="22.81299">
        <ele>506.25199</ele>
        <time>2022-04-06T10:29:40.867Z</time>
      </trkpt>
      <trkpt lat="42.26558" lon="22.81284">
        <ele>506.252773</ele>
        <time>2022-04-06T10:29:43.867Z</time>
      </trkpt>
      <trkpt lat="42.26562" lon="22.81269">
        <ele>506.253591</ele>
        <time>2022-04-06T10:29:46.872Z</time>
      </trkpt>
      <trkpt lat="42.26566" lon="22.81254">
        <ele>506.254397</ele>
        <time>2022-04-06T10:29:49.874Z</time>
      </trkpt>
      <trkpt lat="42.26569" lon="22.81238">
        <ele>506.255221</ele>
        <time>2022-04-06T10:29:52.867Z</time>
      </trkpt>
      <trkpt lat="42.26573" lon="22.81224">
        <ele>506.255985</ele>
        <time>2022-04-06T10:29:55.873Z</time>
      </trkpt>
      <trkpt lat="42.26577" lon="22.81208">
        <ele>506.256792</ele>
        <time>2022-04-06T10:29:58.884Z</time>
      </trkpt>
      <trkpt lat="42.26581" lon="22.81193">
        <ele>506.257614</ele>
        <time>2022-04-06T10:30:01.874Z</time>
      </trkpt>
      <trkpt lat="42.26585" lon="22.81177">
        <ele>506.25847</ele>
        <time>2022-04-06T10:30:04.867Z</time>
      </trkpt>
      <trkpt lat="42.26589" lon="22.8116">
        <ele>506.231702</ele>
        <time>2022-04-06T10:30:07.871Z</time>
      </trkpt>
      <trkpt lat="42.26593" lon="22.81143">
        <ele>506.162247</ele>
        <time>2022-04-06T10:30:10.873Z</time>
      </trkpt>
      <trkpt lat="42.26596" lon="22.81132">
        <ele>506.113868</ele>
        <time>2022-04-06T10:30:12.877Z</time>
      </trkpt>
      <trkpt lat="42.26599" lon="22.8112">
        <ele>506.063661</ele>
        <time>2022-04-06T10:30:14.875Z</time>
      </trkpt>
      <trkpt lat="42.26602" lon="22.81108">
        <ele>506.014782</ele>
        <time>2022-04-06T10:30:16.871Z</time>
      </trkpt>
      <trkpt lat="42.26605" lon="22.81096">
        <ele>505.965172</ele>
        <time>2022-04-06T10:30:18.860Z</time>
      </trkpt>
      <trkpt lat="42.26608" lon="22.81084">
        <ele>505.914214</ele>
        <time>2022-04-06T10:30:20.869Z</time>
      </trkpt>
      <trkpt lat="42.26611" lon="22.81071">
        <ele>505.862374</ele>
        <time>2022-04-06T10:30:22.873Z</time>
      </trkpt>
      <trkpt lat="42.26614" lon="22.81059">
        <ele>505.809613</ele>
        <time>2022-04-06T10:30:24.875Z</time>
      </trkpt>
      <trkpt lat="42.26617" lon="22.81046">
        <ele>505.757224</ele>
        <time>2022-04-06T10:30:26.872Z</time>
      </trkpt>
      <trkpt lat="42.26621" lon="22.81034">
        <ele>505.706502</ele>
        <time>2022-04-06T10:30:28.871Z</time>
      </trkpt>
      <trkpt lat="42.26624" lon="22.81022">
        <ele>505.653916</ele>
        <time>2022-04-06T10:30:30.872Z</time>
      </trkpt>
      <trkpt lat="42.26628" lon="22.81009">
        <ele>505.600207</ele>
        <time>2022-04-06T10:30:32.872Z</time>
      </trkpt>
      <trkpt lat="42.26631" lon="22.80996">
        <ele>505.546874</ele>
        <time>2022-04-06T10:30:34.872Z</time>
      </trkpt>
      <trkpt lat="42.26634" lon="22.80984">
        <ele>505.496328</ele>
        <time>2022-04-06T10:30:36.871Z</time>
      </trkpt>
      <trkpt lat="42.26637" lon="22.80972">
        <ele>505.447996</ele>
        <time>2022-04-06T10:30:38.866Z</time>
      </trkpt>
      <trkpt lat="42.26641" lon="22.80956">
        <ele>505.37857</ele>
        <time>2022-04-06T10:30:41.890Z</time>
      </trkpt>
      <trkpt lat="42.26645" lon="22.80939">
        <ele>505.307558</ele>
        <time>2022-04-06T10:30:44.924Z</time>
      </trkpt>
      <trkpt lat="42.26648" lon="22.80927">
        <ele>505.508421</ele>
        <time>2022-04-06T10:30:46.864Z</time>
      </trkpt>
      <trkpt lat="42.26652" lon="22.8091">
        <ele>505.863853</ele>
        <time>2022-04-06T10:30:49.874Z</time>
      </trkpt>
      <trkpt lat="42.26657" lon="22.80893">
        <ele>506.2129</ele>
        <time>2022-04-06T10:30:52.867Z</time>
      </trkpt>
      <trkpt lat="42.26662" lon="22.80877">
        <ele>506.560007</ele>
        <time>2022-04-06T10:30:55.866Z</time>
      </trkpt>
      <trkpt lat="42.26666" lon="22.8086">
        <ele>506.897394</ele>
        <time>2022-04-06T10:30:58.867Z</time>
      </trkpt>
      <trkpt lat="42.26669" lon="22.80849">
        <ele>507.137124</ele>
        <time>2022-04-06T10:31:00.871Z</time>
      </trkpt>
      <trkpt lat="42.26674" lon="22.80832">
        <ele>507.491644</ele>
        <time>2022-04-06T10:31:03.866Z</time>
      </trkpt>
      <trkpt lat="42.26677" lon="22.80815">
        <ele>507.841806</ele>
        <time>2022-04-06T10:31:06.911Z</time>
      </trkpt>
      <trkpt lat="42.26678" lon="22.80803">
        <ele>508.079892</ele>
        <time>2022-04-06T10:31:08.875Z</time>
      </trkpt>
      <trkpt lat="42.26679" lon="22.8079">
        <ele>508.322824</ele>
        <time>2022-04-06T10:31:10.872Z</time>
      </trkpt>
      <trkpt lat="42.2668" lon="22.80773">
        <ele>508.669005</ele>
        <time>2022-04-06T10:31:13.865Z</time>
      </trkpt>
      <trkpt lat="42.26682" lon="22.80756">
        <ele>508.999196</ele>
        <time>2022-04-06T10:31:16.874Z</time>
      </trkpt>
      <trkpt lat="42.26678" lon="22.8074">
        <ele>509.336188</ele>
        <time>2022-04-06T10:31:19.865Z</time>
      </trkpt>
      <trkpt lat="42.2667" lon="22.80733">
        <ele>509.579094</ele>
        <time>2022-04-06T10:31:21.864Z</time>
      </trkpt>
      <trkpt lat="42.26661" lon="22.80726">
        <ele>509.867705</ele>
        <time>2022-04-06T10:31:24.876Z</time>
      </trkpt>
      <trkpt lat="42.26652" lon="22.80718">
        <ele>510.038397</ele>
        <time>2022-04-06T10:31:27.870Z</time>
      </trkpt>
      <trkpt lat="42.26643" lon="22.8071">
        <ele>509.919158</ele>
        <time>2022-04-06T10:31:30.873Z</time>
      </trkpt>
      <trkpt lat="42.26635" lon="22.80701">
        <ele>509.799424</ele>
        <time>2022-04-06T10:31:33.867Z</time>
      </trkpt>
      <trkpt lat="42.26626" lon="22.80693">
        <ele>509.678307</ele>
        <time>2022-04-06T10:31:36.868Z</time>
      </trkpt>
      <trkpt lat="42.26617" lon="22.80685">
        <ele>509.560388</ele>
        <time>2022-04-06T10:31:39.866Z</time>
      </trkpt>
      <trkpt lat="42.26607" lon="22.80676">
        <ele>509.422602</ele>
        <time>2022-04-06T10:31:42.873Z</time>
      </trkpt>
      <trkpt lat="42.26597" lon="22.80667">
        <ele>509.290363</ele>
        <time>2022-04-06T10:31:45.891Z</time>
      </trkpt>
      <trkpt lat="42.26587" lon="22.80659">
        <ele>509.163233</ele>
        <time>2022-04-06T10:31:48.875Z</time>
      </trkpt>
      <trkpt lat="42.26578" lon="22.8065">
        <ele>509.032405</ele>
        <time>2022-04-06T10:31:51.896Z</time>
      </trkpt>
      <trkpt lat="42.26568" lon="22.80641">
        <ele>508.899226</ele>
        <time>2022-04-06T10:31:54.867Z</time>
      </trkpt>
      <trkpt lat="42.26558" lon="22.80633">
        <ele>508.777523</ele>
        <time>2022-04-06T10:31:57.898Z</time>
      </trkpt>
      <trkpt lat="42.2655" lon="22.80626">
        <ele>508.667099</ele>
        <time>2022-04-06T10:32:00.868Z</time>
      </trkpt>
      <trkpt lat="42.26541" lon="22.80618">
        <ele>508.544592</ele>
        <time>2022-04-06T10:32:03.894Z</time>
      </trkpt>
      <trkpt lat="42.26531" lon="22.80609">
        <ele>508.413764</ele>
        <time>2022-04-06T10:32:06.888Z</time>
      </trkpt>
      <trkpt lat="42.26522" lon="22.80601">
        <ele>508.288923</ele>
        <time>2022-04-06T10:32:09.892Z</time>
      </trkpt>
      <trkpt lat="42.26513" lon="22.80592">
        <ele>508.159368</ele>
        <time>2022-04-06T10:32:12.867Z</time>
      </trkpt>
      <trkpt lat="42.26503" lon="22.80582">
        <ele>508.071236</ele>
        <time>2022-04-06T10:32:15.897Z</time>
      </trkpt>
      <trkpt lat="42.26495" lon="22.80574">
        <ele>508.130564</ele>
        <time>2022-04-06T10:32:18.875Z</time>
      </trkpt>
      <trkpt lat="42.26486" lon="22.80566">
        <ele>508.188726</ele>
        <time>2022-04-06T10:32:21.890Z</time>
      </trkpt>
      <trkpt lat="42.26478" lon="22.80558">
        <ele>508.244441</ele>
        <time>2022-04-06T10:32:24.873Z</time>
      </trkpt>
      <trkpt lat="42.26471" lon="22.8055">
        <ele>508.297528</ele>
        <time>2022-04-06T10:32:27.901Z</time>
      </trkpt>
      <trkpt lat="42.26464" lon="22.80542">
        <ele>508.349737</ele>
        <time>2022-04-06T10:32:30.873Z</time>
      </trkpt>
      <trkpt lat="42.26457" lon="22.80534">
        <ele>508.403256</ele>
        <time>2022-04-06T10:32:33.864Z</time>
      </trkpt>
      <trkpt lat="42.26448" lon="22.80525">
        <ele>508.465539</ele>
        <time>2022-04-06T10:32:37.868Z</time>
      </trkpt>
      <trkpt lat="42.26439" lon="22.80515">
        <ele>508.531467</ele>
        <time>2022-04-06T10:32:41.876Z</time>
      </trkpt>
      <trkpt lat="42.26431" lon="22.80507">
        <ele>508.588754</ele>
        <time>2022-04-06T10:32:45.870Z</time>
      </trkpt>
      <trkpt lat="42.26422" lon="22.80498">
        <ele>508.649013</ele>
        <time>2022-04-06T10:32:49.892Z</time>
      </trkpt>
      <trkpt lat="42.26413" lon="22.80488">
        <ele>508.715851</ele>
        <time>2022-04-06T10:32:53.872Z</time>
      </trkpt>
      <trkpt lat="42.26404" lon="22.80478">
        <ele>508.782242</ele>
        <time>2022-04-06T10:32:57.862Z</time>
      </trkpt>
      <trkpt lat="42.26397" lon="22.8047">
        <ele>508.833308</ele>
        <time>2022-04-06T10:33:00.871Z</time>
      </trkpt>
      <trkpt lat="42.26388" lon="22.80461">
        <ele>508.89508</ele>
        <time>2022-04-06T10:33:04.879Z</time>
      </trkpt>
      <trkpt lat="42.26379" lon="22.80452">
        <ele>508.956219</ele>
        <time>2022-04-06T10:33:08.883Z</time>
      </trkpt>
      <trkpt lat="42.26371" lon="22.80444">
        <ele>509.015099</ele>
        <time>2022-04-06T10:33:12.867Z</time>
      </trkpt>
      <trkpt lat="42.26363" lon="22.80435">
        <ele>509.081748</ele>
        <time>2022-04-06T10:33:16.872Z</time>
      </trkpt>
      <trkpt lat="42.26355" lon="22.80425">
        <ele>509.292586</ele>
        <time>2022-04-06T10:33:20.866Z</time>
      </trkpt>
      <trkpt lat="42.26346" lon="22.80416">
        <ele>509.504091</ele>
        <time>2022-04-06T10:33:24.895Z</time>
      </trkpt>
      <trkpt lat="42.26338" lon="22.80407">
        <ele>509.702118</ele>
        <time>2022-04-06T10:33:28.874Z</time>
      </trkpt>
      <trkpt lat="42.26329" lon="22.80399">
        <ele>509.905813</ele>
        <time>2022-04-06T10:33:32.865Z</time>
      </trkpt>
      <trkpt lat="42.26321" lon="22.8039">
        <ele>510.110167</ele>
        <time>2022-04-06T10:33:36.874Z</time>
      </trkpt>
      <trkpt lat="42.26313" lon="22.80381">
        <ele>510.309968</ele>
        <time>2022-04-06T10:33:40.876Z</time>
      </trkpt>
      <trkpt lat="42.26305" lon="22.80373">
        <ele>510.491343</ele>
        <time>2022-04-06T10:33:44.873Z</time>
      </trkpt>
      <trkpt lat="42.26298" lon="22.80367">
        <ele>510.666094</ele>
        <time>2022-04-06T10:33:48.870Z</time>
      </trkpt>
      <trkpt lat="42.26289" lon="22.80358">
        <ele>510.877444</ele>
        <time>2022-04-06T10:33:52.863Z</time>
      </trkpt>
      <trkpt lat="42.2628" lon="22.80348">
        <ele>511.0978</ele>
        <time>2022-04-06T10:33:56.876Z</time>
      </trkpt>
      <trkpt lat="42.26272" lon="22.80339">
        <ele>511.299677</ele>
        <time>2022-04-06T10:34:00.875Z</time>
      </trkpt>
      <trkpt lat="42.26263" lon="22.8033">
        <ele>511.502507</ele>
        <time>2022-04-06T10:34:04.874Z</time>
      </trkpt>
      <trkpt lat="42.26256" lon="22.80321">
        <ele>511.694316</ele>
        <time>2022-04-06T10:34:08.868Z</time>
      </trkpt>
      <trkpt lat="42.26248" lon="22.80313">
        <ele>511.8935</ele>
        <time>2022-04-06T10:34:12.883Z</time>
      </trkpt>
      <trkpt lat="42.2624" lon="22.80304">
        <ele>512.082932</ele>
        <time>2022-04-06T10:34:16.888Z</time>
      </trkpt>
      <trkpt lat="42.26232" lon="22.80294">
        <ele>512.290479</ele>
        <time>2022-04-06T10:34:20.867Z</time>
      </trkpt>
      <trkpt lat="42.26223" lon="22.80285">
        <ele>512.499814</ele>
        <time>2022-04-06T10:34:24.878Z</time>
      </trkpt>
      <trkpt lat="42.26215" lon="22.80277">
        <ele>513.061758</ele>
        <time>2022-04-06T10:34:28.879Z</time>
      </trkpt>
      <trkpt lat="42.26205" lon="22.80268">
        <ele>513.69656</ele>
        <time>2022-04-06T10:34:32.879Z</time>
      </trkpt>
      <trkpt lat="42.26198" lon="22.8026">
        <ele>514.195769</ele>
        <time>2022-04-06T10:34:35.863Z</time>
      </trkpt>
      <trkpt lat="42.26189" lon="22.8025">
        <ele>514.866163</ele>
        <time>2022-04-06T10:34:39.876Z</time>
      </trkpt>
      <trkpt lat="42.2618" lon="22.80242">
        <ele>515.452821</ele>
        <time>2022-04-06T10:34:43.875Z</time>
      </trkpt>
      <trkpt lat="42.26172" lon="22.80233">
        <ele>515.996846</ele>
        <time>2022-04-06T10:34:47.872Z</time>
      </trkpt>
      <trkpt lat="42.26165" lon="22.80224">
        <ele>516.554603</ele>
        <time>2022-04-06T10:34:51.874Z</time>
      </trkpt>
      <trkpt lat="42.26158" lon="22.80216">
        <ele>517.06756</ele>
        <time>2022-04-06T10:34:55.895Z</time>
      </trkpt>
      <trkpt lat="42.26149" lon="22.80207">
        <ele>517.64755</ele>
        <time>2022-04-06T10:35:00.879Z</time>
      </trkpt>
      <trkpt lat="42.26142" lon="22.80198">
        <ele>518.224351</ele>
        <time>2022-04-06T10:35:06.867Z</time>
      </trkpt>
      <trkpt lat="42.26136" lon="22.80189">
        <ele>518.719022</ele>
        <time>2022-04-06T10:35:12.871Z</time>
      </trkpt>
      <trkpt lat="42.26128" lon="22.80181">
        <ele>519.24316</ele>
        <time>2022-04-06T10:35:18.871Z</time>
      </trkpt>
      <trkpt lat="42.2612" lon="22.80175">
        <ele>519.748431</ele>
        <time>2022-04-06T10:35:23.868Z</time>
      </trkpt>
      <trkpt lat="42.26112" lon="22.80167">
        <ele>520.291656</ele>
        <time>2022-04-06T10:35:28.871Z</time>
      </trkpt>
      <trkpt lat="42.26104" lon="22.80159">
        <ele>520.855355</ele>
        <time>2022-04-06T10:35:33.872Z</time>
      </trkpt>
      <trkpt lat="42.26097" lon="22.80152">
        <ele>521.363193</ele>
        <time>2022-04-06T10:35:38.874Z</time>
      </trkpt>
      <trkpt lat="42.2609" lon="22.80143">
        <ele>521.871406</ele>
        <time>2022-04-06T10:35:43.868Z</time>
      </trkpt>
      <trkpt lat="42.26083" lon="22.80136">
        <ele>522.376129</ele>
        <time>2022-04-06T10:35:48.874Z</time>
      </trkpt>
      <trkpt lat="42.26075" lon="22.80128">
        <ele>522.476262</ele>
        <time>2022-04-06T10:35:53.890Z</time>
      </trkpt>
      <trkpt lat="42.26067" lon="22.8012">
        <ele>522.488586</ele>
        <time>2022-04-06T10:35:58.863Z</time>
      </trkpt>
      <trkpt lat="42.2606" lon="22.80113">
        <ele>522.500054</ele>
        <time>2022-04-06T10:36:03.875Z</time>
      </trkpt>
      <trkpt lat="42.26052" lon="22.80104">
        <ele>522.51273</ele>
        <time>2022-04-06T10:36:08.871Z</time>
      </trkpt>
      <trkpt lat="42.26044" lon="22.80096">
        <ele>522.525629</ele>
        <time>2022-04-06T10:36:13.861Z</time>
      </trkpt>
      <trkpt lat="42.26035" lon="22.80087">
        <ele>522.539317</ele>
        <time>2022-04-06T10:36:18.876Z</time>
      </trkpt>
      <trkpt lat="42.26027" lon="22.80079">
        <ele>522.552776</ele>
        <time>2022-04-06T10:36:23.893Z</time>
      </trkpt>
      <trkpt lat="42.26019" lon="22.8007">
        <ele>522.565881</ele>
        <time>2022-04-06T10:36:28.872Z</time>
      </trkpt>
      <trkpt lat="42.26011" lon="22.80061">
        <ele>522.578679</ele>
        <time>2022-04-06T10:36:32.875Z</time>
      </trkpt>
      <trkpt lat="42.26002" lon="22.80051">
        <ele>522.593952</ele>
        <time>2022-04-06T10:36:36.868Z</time>
      </trkpt>
      <trkpt lat="42.25994" lon="22.80042">
        <ele>522.606569</ele>
        <time>2022-04-06T10:36:39.873Z</time>
      </trkpt>
      <trkpt lat="42.25986" lon="22.80033">
        <ele>522.620586</ele>
        <time>2022-04-06T10:36:42.868Z</time>
      </trkpt>
      <trkpt lat="42.25977" lon="22.80025">
        <ele>522.633257</ele>
        <time>2022-04-06T10:36:45.866Z</time>
      </trkpt>
      <trkpt lat="42.25969" lon="22.80017">
        <ele>522.646777</ele>
        <time>2022-04-06T10:36:48.872Z</time>
      </trkpt>
      <trkpt lat="42.25962" lon="22.80009">
        <ele>522.658156</ele>
        <time>2022-04-06T10:36:51.870Z</time>
      </trkpt>
      <trkpt lat="42.25954" lon="22.79999">
        <ele>522.671827</ele>
        <time>2022-04-06T10:36:55.876Z</time>
      </trkpt>
      <trkpt lat="42.25946" lon="22.7999">
        <ele>522.684995</ele>
        <time>2022-04-06T10:36:59.899Z</time>
      </trkpt>
      <trkpt lat="42.25938" lon="22.79979">
        <ele>522.751244</ele>
        <time>2022-04-06T10:37:03.864Z</time>
      </trkpt>
      <trkpt lat="42.25932" lon="22.79971">
        <ele>522.87878</ele>
        <time>2022-04-06T10:37:06.869Z</time>
      </trkpt>
      <trkpt lat="42.25925" lon="22.79959">
        <ele>523.031607</ele>
        <time>2022-04-06T10:37:10.873Z</time>
      </trkpt>
      <trkpt lat="42.25918" lon="22.7995">
        <ele>523.166314</ele>
        <time>2022-04-06T10:37:13.874Z</time>
      </trkpt>
      <trkpt lat="42.25909" lon="22.7994">
        <ele>523.333639</ele>
        <time>2022-04-06T10:37:17.899Z</time>
      </trkpt>
      <trkpt lat="42.25901" lon="22.79929">
        <ele>523.494542</ele>
        <time>2022-04-06T10:37:21.867Z</time>
      </trkpt>
      <trkpt lat="42.25893" lon="22.79918">
        <ele>523.655288</ele>
        <time>2022-04-06T10:37:25.863Z</time>
      </trkpt>
      <trkpt lat="42.25885" lon="22.79907">
        <ele>523.812807</ele>
        <time>2022-04-06T10:37:29.894Z</time>
      </trkpt>
      <trkpt lat="42.25877" lon="22.79897">
        <ele>523.958531</ele>
        <time>2022-04-06T10:37:33.867Z</time>
      </trkpt>
      <trkpt lat="42.2587" lon="22.79887">
        <ele>524.112046</ele>
        <time>2022-04-06T10:37:37.861Z</time>
      </trkpt>
      <trkpt lat="42.25863" lon="22.79877">
        <ele>524.253921</ele>
        <time>2022-04-06T10:37:41.897Z</time>
      </trkpt>
      <trkpt lat="42.25856" lon="22.79868">
        <ele>524.390362</ele>
        <time>2022-04-06T10:37:45.867Z</time>
      </trkpt>
      <trkpt lat="42.25849" lon="22.79858">
        <ele>524.534947</ele>
        <time>2022-04-06T10:37:49.867Z</time>
      </trkpt>
      <trkpt lat="42.25842" lon="22.79849">
        <ele>524.671388</ele>
        <time>2022-04-06T10:37:53.894Z</time>
      </trkpt>
      <trkpt lat="42.25834" lon="22.79839">
        <ele>524.818854</ele>
        <time>2022-04-06T10:37:58.871Z</time>
      </trkpt>
      <trkpt lat="42.25826" lon="22.7983">
        <ele>524.968074</ele>
        <time>2022-04-06T10:38:03.872Z</time>
      </trkpt>
      <trkpt lat="42.2582" lon="22.79821">
        <ele>525.0952</ele>
        <time>2022-04-06T10:38:07.868Z</time>
      </trkpt>
      <trkpt lat="42.25814" lon="22.79812">
        <ele>525.222243</ele>
        <time>2022-04-06T10:38:11.889Z</time>
      </trkpt>
      <trkpt lat="42.25806" lon="22.79802">
        <ele>525.403909</ele>
        <time>2022-04-06T10:38:16.867Z</time>
      </trkpt>
      <trkpt lat="42.25799" lon="22.79793">
        <ele>525.56088</ele>
        <time>2022-04-06T10:38:20.867Z</time>
      </trkpt>
      <trkpt lat="42.25793" lon="22.79785">
        <ele>525.711303</ele>
        <time>2022-04-06T10:38:24.872Z</time>
      </trkpt>
      <trkpt lat="42.25786" lon="22.79775">
        <ele>525.878485</ele>
        <time>2022-04-06T10:38:28.864Z</time>
      </trkpt>
      <trkpt lat="42.25778" lon="22.79765">
        <ele>526.060407</ele>
        <time>2022-04-06T10:38:32.871Z</time>
      </trkpt>
      <trkpt lat="42.2577" lon="22.79754">
        <ele>526.244662</ele>
        <time>2022-04-06T10:38:36.870Z</time>
      </trkpt>
      <trkpt lat="42.25763" lon="22.79744">
        <ele>526.423681</ele>
        <time>2022-04-06T10:38:40.882Z</time>
      </trkpt>
      <trkpt lat="42.25754" lon="22.79733">
        <ele>526.62547</ele>
        <time>2022-04-06T10:38:44.875Z</time>
      </trkpt>
      <trkpt lat="42.25747" lon="22.79724">
        <ele>526.782646</ele>
        <time>2022-04-06T10:38:47.895Z</time>
      </trkpt>
      <trkpt lat="42.25741" lon="22.79715">
        <ele>526.942487</ele>
        <time>2022-04-06T10:38:50.870Z</time>
      </trkpt>
      <trkpt lat="42.25734" lon="22.79706">
        <ele>527.098246</ele>
        <time>2022-04-06T10:38:53.896Z</time>
      </trkpt>
      <trkpt lat="42.25727" lon="22.79697">
        <ele>527.253522</ele>
        <time>2022-04-06T10:38:56.868Z</time>
      </trkpt>
      <trkpt lat="42.25719" lon="22.79687">
        <ele>527.441017</ele>
        <time>2022-04-06T10:39:00.872Z</time>
      </trkpt>
      <trkpt lat="42.25712" lon="22.79676">
        <ele>527.627052</ele>
        <time>2022-04-06T10:39:04.879Z</time>
      </trkpt>
      <trkpt lat="42.25704" lon="22.79665">
        <ele>527.815204</ele>
        <time>2022-04-06T10:39:08.863Z</time>
      </trkpt>
      <trkpt lat="42.25695" lon="22.79654">
        <ele>528.010081</ele>
        <time>2022-04-06T10:39:12.881Z</time>
      </trkpt>
      <trkpt lat="42.25687" lon="22.79643">
        <ele>528.207582</ele>
        <time>2022-04-06T10:39:16.874Z</time>
      </trkpt>
      <trkpt lat="42.25679" lon="22.79632">
        <ele>528.512649</ele>
        <time>2022-04-06T10:39:20.873Z</time>
      </trkpt>
      <trkpt lat="42.25674" lon="22.79622">
        <ele>528.782627</ele>
        <time>2022-04-06T10:39:24.874Z</time>
      </trkpt>
      <trkpt lat="42.25666" lon="22.79614">
        <ele>529.05458</ele>
        <time>2022-04-06T10:39:28.870Z</time>
      </trkpt>
      <trkpt lat="42.2566" lon="22.79605">
        <ele>529.331648</ele>
        <time>2022-04-06T10:39:32.879Z</time>
      </trkpt>
      <trkpt lat="42.25653" lon="22.79596">
        <ele>529.599415</ele>
        <time>2022-04-06T10:39:36.876Z</time>
      </trkpt>
      <trkpt lat="42.25646" lon="22.79586">
        <ele>529.914753</ele>
        <time>2022-04-06T10:39:41.888Z</time>
      </trkpt>
      <trkpt lat="42.25638" lon="22.79576">
        <ele>530.215395</ele>
        <time>2022-04-06T10:39:46.870Z</time>
      </trkpt>
      <trkpt lat="42.25631" lon="22.79567">
        <ele>530.522024</ele>
        <time>2022-04-06T10:39:51.874Z</time>
      </trkpt>
      <trkpt lat="42.25624" lon="22.79558">
        <ele>530.789792</ele>
        <time>2022-04-06T10:39:55.873Z</time>
      </trkpt>
      <trkpt lat="42.25618" lon="22.79549">
        <ele>531.064477</ele>
        <time>2022-04-06T10:39:59.893Z</time>
      </trkpt>
      <trkpt lat="42.25611" lon="22.79538">
        <ele>531.367776</ele>
        <time>2022-04-06T10:40:04.873Z</time>
      </trkpt>
      <trkpt lat="42.25604" lon="22.7953">
        <ele>531.633134</ele>
        <time>2022-04-06T10:40:08.876Z</time>
      </trkpt>
      <trkpt lat="42.25598" lon="22.79521">
        <ele>531.903479</ele>
        <time>2022-04-06T10:40:12.875Z</time>
      </trkpt>
      <trkpt lat="42.25591" lon="22.79512">
        <ele>532.167122</ele>
        <time>2022-04-06T10:40:16.859Z</time>
      </trkpt>
      <trkpt lat="42.25584" lon="22.79502">
        <ele>532.483696</ele>
        <time>2022-04-06T10:40:21.877Z</time>
      </trkpt>
      <trkpt lat="42.25577" lon="22.79492">
        <ele>532.779739</ele>
        <time>2022-04-06T10:40:26.872Z</time>
      </trkpt>
      <trkpt lat="42.25569" lon="22.79483">
        <ele>533.082094</ele>
        <time>2022-04-06T10:40:31.864Z</time>
      </trkpt>
      <trkpt lat="42.25561" lon="22.79473">
        <ele>533.398277</ele>
        <time>2022-04-06T10:40:36.878Z</time>
      </trkpt>
      <trkpt lat="42.25553" lon="22.79464">
        <ele>533.624164</ele>
        <time>2022-04-06T10:40:41.891Z</time>
      </trkpt>
      <trkpt lat="42.25546" lon="22.79455">
        <ele>533.799823</ele>
        <time>2022-04-06T10:40:46.873Z</time>
      </trkpt>
      <trkpt lat="42.25538" lon="22.79445">
        <ele>533.983312</ele>
        <time>2022-04-06T10:40:51.876Z</time>
      </trkpt>
      <trkpt lat="42.25531" lon="22.79435">
        <ele>534.165801</ele>
        <time>2022-04-06T10:40:56.869Z</time>
      </trkpt>
      <trkpt lat="42.25524" lon="22.79425">
        <ele>534.345868</ele>
        <time>2022-04-06T10:41:00.880Z</time>
      </trkpt>
      <trkpt lat="42.25516" lon="22.79414">
        <ele>534.532964</ele>
        <time>2022-04-06T10:41:04.875Z</time>
      </trkpt>
      <trkpt lat="42.25509" lon="22.79405">
        <ele>534.70756</ele>
        <time>2022-04-06T10:41:08.872Z</time>
      </trkpt>
      <trkpt lat="42.25501" lon="22.79396">
        <ele>534.885873</ele>
        <time>2022-04-06T10:41:12.868Z</time>
      </trkpt>
      <trkpt lat="42.25494" lon="22.79386">
        <ele>535.071027</ele>
        <time>2022-04-06T10:41:16.867Z</time>
      </trkpt>
      <trkpt lat="42.25486" lon="22.79375">
        <ele>535.260593</ele>
        <time>2022-04-06T10:41:20.880Z</time>
      </trkpt>
      <trkpt lat="42.25478" lon="22.79365">
        <ele>535.453239</ele>
        <time>2022-04-06T10:41:24.877Z</time>
      </trkpt>
      <trkpt lat="42.25472" lon="22.79356">
        <ele>535.620731</ele>
        <time>2022-04-06T10:41:27.869Z</time>
      </trkpt>
      <trkpt lat="42.25465" lon="22.79347">
        <ele>535.782071</ele>
        <time>2022-04-06T10:41:30.873Z</time>
      </trkpt>
      <trkpt lat="42.25458" lon="22.79335">
        <ele>535.972867</ele>
        <time>2022-04-06T10:41:34.868Z</time>
      </trkpt>
      <trkpt lat="42.2545" lon="22.79325">
        <ele>536.162718</ele>
        <time>2022-04-06T10:41:38.876Z</time>
      </trkpt>
      <trkpt lat="42.25443" lon="22.79316">
        <ele>536.344411</ele>
        <time>2022-04-06T10:41:42.880Z</time>
      </trkpt>
      <trkpt lat="42.25436" lon="22.79306">
        <ele>536.511904</ele>
        <time>2022-04-06T10:41:46.872Z</time>
      </trkpt>
      <trkpt lat="42.2543" lon="22.79297">
        <ele>536.678865</ele>
        <time>2022-04-06T10:41:50.877Z</time>
      </trkpt>
      <trkpt lat="42.25423" lon="22.79287">
        <ele>536.944504</ele>
        <time>2022-04-06T10:41:55.869Z</time>
      </trkpt>
      <trkpt lat="42.25416" lon="22.79277">
        <ele>537.190803</ele>
        <time>2022-04-06T10:42:00.877Z</time>
      </trkpt>
      <trkpt lat="42.25409" lon="22.79267">
        <ele>537.453052</ele>
        <time>2022-04-06T10:42:05.892Z</time>
      </trkpt>
      <trkpt lat="42.25403" lon="22.79258">
        <ele>537.68363</ele>
        <time>2022-04-06T10:42:10.871Z</time>
      </trkpt>
      <trkpt lat="42.25395" lon="22.79249">
        <ele>537.953597</ele>
        <time>2022-04-06T10:42:16.868Z</time>
      </trkpt>
      <trkpt lat="42.25388" lon="22.79241">
        <ele>538.197673</ele>
        <time>2022-04-06T10:42:22.872Z</time>
      </trkpt>
      <trkpt lat="42.25382" lon="22.79229">
        <ele>538.460065</ele>
        <time>2022-04-06T10:42:27.870Z</time>
      </trkpt>
      <trkpt lat="42.25377" lon="22.79218">
        <ele>538.698874</ele>
        <time>2022-04-06T10:42:31.863Z</time>
      </trkpt>
      <trkpt lat="42.2537" lon="22.7921">
        <ele>538.933507</ele>
        <time>2022-04-06T10:42:36.881Z</time>
      </trkpt>
      <trkpt lat="42.25363" lon="22.79201">
        <ele>539.179716</ele>
        <time>2022-04-06T10:42:41.915Z</time>
      </trkpt>
      <trkpt lat="42.25354" lon="22.79195">
        <ele>539.417473</ele>
        <time>2022-04-06T10:42:47.897Z</time>
      </trkpt>
      <trkpt lat="42.25347" lon="22.79187">
        <ele>539.664055</ele>
        <time>2022-04-06T10:42:53.892Z</time>
      </trkpt>
      <trkpt lat="42.25339" lon="22.79179">
        <ele>539.919763</ele>
        <time>2022-04-06T10:42:59.894Z</time>
      </trkpt>
      <trkpt lat="42.25332" lon="22.79168">
        <ele>540.188789</ele>
        <time>2022-04-06T10:43:05.896Z</time>
      </trkpt>
      <trkpt lat="42.25326" lon="22.79158">
        <ele>540.435646</ele>
        <time>2022-04-06T10:43:10.865Z</time>
      </trkpt>
      <trkpt lat="42.25319" lon="22.79149">
        <ele>540.670927</ele>
        <time>2022-04-06T10:43:15.872Z</time>
      </trkpt>
      <trkpt lat="42.25313" lon="22.7914">
        <ele>540.914891</ele>
        <time>2022-04-06T10:43:20.876Z</time>
      </trkpt>
      <trkpt lat="42.25306" lon="22.79131">
        <ele>541.15172</ele>
        <time>2022-04-06T10:43:25.867Z</time>
      </trkpt>
      <trkpt lat="42.25299" lon="22.79121">
        <ele>541.660984</ele>
        <time>2022-04-06T10:43:31.870Z</time>
      </trkpt>
      <trkpt lat="42.25292" lon="22.79111">
        <ele>542.224678</ele>
        <time>2022-04-06T10:43:36.873Z</time>
      </trkpt>
      <trkpt lat="42.25286" lon="22.79101">
        <ele>542.794782</ele>
        <time>2022-04-06T10:43:41.892Z</time>
      </trkpt>
      <trkpt lat="42.2528" lon="22.79091">
        <ele>543.356872</ele>
        <time>2022-04-06T10:43:47.885Z</time>
      </trkpt>
      <trkpt lat="42.25273" lon="22.79082">
        <ele>543.909682</ele>
        <time>2022-04-06T10:43:53.873Z</time>
      </trkpt>
      <trkpt lat="42.25267" lon="22.79073">
        <ele>544.430124</ele>
        <time>2022-04-06T10:43:59.876Z</time>
      </trkpt>
      <trkpt lat="42.2526" lon="22.79063">
        <ele>545.012636</ele>
        <time>2022-04-06T10:44:06.871Z</time>
      </trkpt>
      <trkpt lat="42.25253" lon="22.79052">
        <ele>545.620024</ele>
        <time>2022-04-06T10:44:13.895Z</time>
      </trkpt>
      <trkpt lat="42.25247" lon="22.79042">
        <ele>546.171464</ele>
        <time>2022-04-06T10:44:19.867Z</time>
      </trkpt>
      <trkpt lat="42.2524" lon="22.79033">
        <ele>546.745692</ele>
        <time>2022-04-06T10:44:25.880Z</time>
      </trkpt>
      <trkpt lat="42.25233" lon="22.79023">
        <ele>547.318021</ele>
        <time>2022-04-06T10:44:31.875Z</time>
      </trkpt>
      <trkpt lat="42.25226" lon="22.79014">
        <ele>547.882814</ele>
        <time>2022-04-06T10:44:37.872Z</time>
      </trkpt>
      <trkpt lat="42.25219" lon="22.79006">
        <ele>548.427814</ele>
        <time>2022-04-06T10:44:43.867Z</time>
      </trkpt>
      <trkpt lat="42.25213" lon="22.78996">
        <ele>549.000199</ele>
        <time>2022-04-06T10:44:49.867Z</time>
      </trkpt>
      <trkpt lat="42.25206" lon="22.78986">
        <ele>549.573532</ele>
        <time>2022-04-06T10:44:55.872Z</time>
      </trkpt>
      <trkpt lat="42.25199" lon="22.78976">
        <ele>550.168639</ele>
        <time>2022-04-06T10:45:02.871Z</time>
      </trkpt>
      <trkpt lat="42.25193" lon="22.78966">
        <ele>550.716573</ele>
        <time>2022-04-06T10:45:08.873Z</time>
      </trkpt>
      <trkpt lat="42.25186" lon="22.78956">
        <ele>551.295977</ele>
        <time>2022-04-06T10:45:15.874Z</time>
      </trkpt>
      <trkpt lat="42.25179" lon="22.78947">
        <ele>551.673626</ele>
        <time>2022-04-06T10:45:21.867Z</time>
      </trkpt>
      <trkpt lat="42.25172" lon="22.78937">
        <ele>551.792186</ele>
        <time>2022-04-06T10:45:27.880Z</time>
      </trkpt>
      <trkpt lat="42.25164" lon="22.78928">
        <ele>551.913593</ele>
        <time>2022-04-06T10:45:33.875Z</time>
      </trkpt>
      <trkpt lat="42.25156" lon="22.78918">
        <ele>552.033798</ele>
        <time>2022-04-06T10:45:39.875Z</time>
      </trkpt>
      <trkpt lat="42.25149" lon="22.78909">
        <ele>552.152726</ele>
        <time>2022-04-06T10:45:45.874Z</time>
      </trkpt>
      <trkpt lat="42.2514" lon="22.78901">
        <ele>552.275046</ele>
        <time>2022-04-06T10:45:51.871Z</time>
      </trkpt>
      <trkpt lat="42.25133" lon="22.78892">
        <ele>552.390769</ele>
        <time>2022-04-06T10:45:57.873Z</time>
      </trkpt>
      <trkpt lat="42.25126" lon="22.78883">
        <ele>552.504758</ele>
        <time>2022-04-06T10:46:02.880Z</time>
      </trkpt>
      <trkpt lat="42.25119" lon="22.78874">
        <ele>552.621365</ele>
        <time>2022-04-06T10:46:07.873Z</time>
      </trkpt>
      <trkpt lat="42.2511" lon="22.78865">
        <ele>552.74883</ele>
        <time>2022-04-06T10:46:12.871Z</time>
      </trkpt>
      <trkpt lat="42.25101" lon="22.78855">
        <ele>552.877343</ele>
        <time>2022-04-06T10:46:17.891Z</time>
      </trkpt>
      <trkpt lat="42.25095" lon="22.78847">
        <ele>552.984386</ele>
        <time>2022-04-06T10:46:21.870Z</time>
      </trkpt>
      <trkpt lat="42.25087" lon="22.78838">
        <ele>553.103639</ele>
        <time>2022-04-06T10:46:25.875Z</time>
      </trkpt>
      <trkpt lat="42.25077" lon="22.78828">
        <ele>553.246294</ele>
        <time>2022-04-06T10:46:29.875Z</time>
      </trkpt>
      <trkpt lat="42.25069" lon="22.7882">
        <ele>553.366339</ele>
        <time>2022-04-06T10:46:32.876Z</time>
      </trkpt>
      <trkpt lat="42.25059" lon="22.78812">
        <ele>553.503974</ele>
        <time>2022-04-06T10:46:35.867Z</time>
      </trkpt>
      <trkpt lat="42.25048" lon="22.78804">
        <ele>553.645419</ele>
        <time>2022-04-06T10:46:38.863Z</time>
      </trkpt>
      <trkpt lat="42.25037" lon="22.78794">
        <ele>553.771758</ele>
        <time>2022-04-06T10:46:41.865Z</time>
      </trkpt>
      <trkpt lat="42.25029" lon="22.78788">
        <ele>553.839699</ele>
        <time>2022-04-06T10:46:43.874Z</time>
      </trkpt>
      <trkpt lat="42.25018" lon="22.78781">
        <ele>553.932624</ele>
        <time>2022-04-06T10:46:46.879Z</time>
      </trkpt>
      <trkpt lat="42.25008" lon="22.78772">
        <ele>554.016159</ele>
        <time>2022-04-06T10:46:49.863Z</time>
      </trkpt>
      <trkpt lat="42.24998" lon="22.78764">
        <ele>554.101812</ele>
        <time>2022-04-06T10:46:53.890Z</time>
      </trkpt>
      <trkpt lat="42.24989" lon="22.78756">
        <ele>554.179542</ele>
        <time>2022-04-06T10:46:57.891Z</time>
      </trkpt>
      <trkpt lat="42.24981" lon="22.78748">
        <ele>554.254848</ele>
        <time>2022-04-06T10:47:01.868Z</time>
      </trkpt>
      <trkpt lat="42.24972" lon="22.78739">
        <ele>554.33867</ele>
        <time>2022-04-06T10:47:05.864Z</time>
      </trkpt>
      <trkpt lat="42.24963" lon="22.78729">
        <ele>554.421068</ele>
        <time>2022-04-06T10:47:09.892Z</time>
      </trkpt>
      <trkpt lat="42.24955" lon="22.7872">
        <ele>554.500164</ele>
        <time>2022-04-06T10:47:13.868Z</time>
      </trkpt>
      <trkpt lat="42.24946" lon="22.7871">
        <ele>554.582351</ele>
        <time>2022-04-06T10:47:17.867Z</time>
      </trkpt>
      <trkpt lat="42.24937" lon="22.787">
        <ele>554.671144</ele>
        <time>2022-04-06T10:47:21.895Z</time>
      </trkpt>
      <trkpt lat="42.24928" lon="22.78691">
        <ele>554.753499</ele>
        <time>2022-04-06T10:47:24.865Z</time>
      </trkpt>
      <trkpt lat="42.24917" lon="22.78682">
        <ele>554.848651</ele>
        <time>2022-04-06T10:47:27.887Z</time>
      </trkpt>
      <trkpt lat="42.24906" lon="22.78672">
        <ele>554.944034</ele>
        <time>2022-04-06T10:47:30.869Z</time>
      </trkpt>
      <trkpt lat="42.24896" lon="22.78662">
        <ele>555.035811</ele>
        <time>2022-04-06T10:47:33.894Z</time>
      </trkpt>
      <trkpt lat="42.24887" lon="22.78652">
        <ele>555.042383</ele>
        <time>2022-04-06T10:47:36.871Z</time>
      </trkpt>
      <trkpt lat="42.24878" lon="22.78641">
        <ele>555.037323</ele>
        <time>2022-04-06T10:47:39.892Z</time>
      </trkpt>
      <trkpt lat="42.24869" lon="22.78631">
        <ele>555.032562</ele>
        <time>2022-04-06T10:47:42.867Z</time>
      </trkpt>
      <trkpt lat="42.24861" lon="22.78622">
        <ele>555.028238</ele>
        <time>2022-04-06T10:47:45.894Z</time>
      </trkpt>
      <trkpt lat="42.24855" lon="22.78611">
        <ele>555.023827</ele>
        <time>2022-04-06T10:47:48.871Z</time>
      </trkpt>
      <trkpt lat="42.24847" lon="22.78599">
        <ele>555.018957</ele>
        <time>2022-04-06T10:47:51.890Z</time>
      </trkpt>
      <trkpt lat="42.2484" lon="22.7859">
        <ele>555.014787</ele>
        <time>2022-04-06T10:47:54.877Z</time>
      </trkpt>
      <trkpt lat="42.24834" lon="22.7858">
        <ele>555.010973</ele>
        <time>2022-04-06T10:47:57.893Z</time>
      </trkpt>
      <trkpt lat="42.24826" lon="22.7857">
        <ele>555.006182</ele>
        <time>2022-04-06T10:48:01.863Z</time>
      </trkpt>
      <trkpt lat="42.24818" lon="22.78558">
        <ele>555.001332</ele>
        <time>2022-04-06T10:48:05.868Z</time>
      </trkpt>
      <trkpt lat="42.24811" lon="22.78547">
        <ele>554.996767</ele>
        <time>2022-04-06T10:48:09.896Z</time>
      </trkpt>
      <trkpt lat="42.24805" lon="22.78538">
        <ele>554.992895</ele>
        <time>2022-04-06T10:48:12.867Z</time>
      </trkpt>
      <trkpt lat="42.24798" lon="22.78528">
        <ele>554.988657</ele>
        <time>2022-04-06T10:48:15.894Z</time>
      </trkpt>
      <trkpt lat="42.24792" lon="22.78518">
        <ele>554.984557</ele>
        <time>2022-04-06T10:48:18.865Z</time>
      </trkpt>
      <trkpt lat="42.24786" lon="22.78506">
        <ele>554.980233</ele>
        <time>2022-04-06T10:48:21.893Z</time>
      </trkpt>
      <trkpt lat="42.2478" lon="22.78491">
        <ele>554.974778</ele>
        <time>2022-04-06T10:48:24.875Z</time>
      </trkpt>
      <trkpt lat="42.24776" lon="22.78479">
        <ele>554.980626</ele>
        <time>2022-04-06T10:48:27.896Z</time>
      </trkpt>
      <trkpt lat="42.24774" lon="22.78467">
        <ele>555.040418</ele>
        <time>2022-04-06T10:48:30.878Z</time>
      </trkpt>
      <trkpt lat="42.24771" lon="22.78452">
        <ele>555.113159</ele>
        <time>2022-04-06T10:48:33.887Z</time>
      </trkpt>
      <trkpt lat="42.2477" lon="22.78439">
        <ele>555.177813</ele>
        <time>2022-04-06T10:48:36.880Z</time>
      </trkpt>
      <trkpt lat="42.24768" lon="22.78424">
        <ele>555.248016</ele>
        <time>2022-04-06T10:48:39.895Z</time>
      </trkpt>
      <trkpt lat="42.24766" lon="22.7841">
        <ele>555.321071</ele>
        <time>2022-04-06T10:48:42.869Z</time>
      </trkpt>
      <trkpt lat="42.24762" lon="22.78396">
        <ele>555.391373</ele>
        <time>2022-04-06T10:48:45.884Z</time>
      </trkpt>
      <trkpt lat="42.24759" lon="22.78384">
        <ele>555.452579</ele>
        <time>2022-04-06T10:48:48.877Z</time>
      </trkpt>
      <trkpt lat="42.24754" lon="22.7837">
        <ele>555.525027</ele>
        <time>2022-04-06T10:48:52.871Z</time>
      </trkpt>
      <trkpt lat="42.2475" lon="22.78359">
        <ele>555.58949</ele>
        <time>2022-04-06T10:48:56.877Z</time>
      </trkpt>
      <trkpt lat="42.24745" lon="22.78347">
        <ele>555.651335</ele>
        <time>2022-04-06T10:49:00.868Z</time>
      </trkpt>
      <trkpt lat="42.24738" lon="22.78335">
        <ele>555.724806</ele>
        <time>2022-04-06T10:49:04.877Z</time>
      </trkpt>
      <trkpt lat="42.24733" lon="22.78325">
        <ele>555.789301</ele>
        <time>2022-04-06T10:49:08.875Z</time>
      </trkpt>
      <trkpt lat="42.24726" lon="22.78312">
        <ele>555.866622</ele>
        <time>2022-04-06T10:49:12.877Z</time>
      </trkpt>
      <trkpt lat="42.2472" lon="22.78301">
        <ele>555.93114</ele>
        <time>2022-04-06T10:49:15.874Z</time>
      </trkpt>
      <trkpt lat="42.24712" lon="22.78289">
        <ele>556.004313</ele>
        <time>2022-04-06T10:49:18.867Z</time>
      </trkpt>
      <trkpt lat="42.24704" lon="22.78277">
        <ele>556.087247</ele>
        <time>2022-04-06T10:49:21.862Z</time>
      </trkpt>
      <trkpt lat="42.24695" lon="22.78265">
        <ele>556.247606</ele>
        <time>2022-04-06T10:49:24.875Z</time>
      </trkpt>
      <trkpt lat="42.24688" lon="22.78256">
        <ele>556.520684</ele>
        <time>2022-04-06T10:49:27.873Z</time>
      </trkpt>
      <trkpt lat="42.24683" lon="22.78246">
        <ele>556.781559</ele>
        <time>2022-04-06T10:49:30.878Z</time>
      </trkpt>
      <trkpt lat="42.24679" lon="22.78233">
        <ele>557.077189</ele>
        <time>2022-04-06T10:49:33.864Z</time>
      </trkpt>
      <trkpt lat="42.24673" lon="22.78221">
        <ele>557.367518</ele>
        <time>2022-04-06T10:49:36.869Z</time>
      </trkpt>
      <trkpt lat="42.24668" lon="22.78209">
        <ele>557.664478</ele>
        <time>2022-04-06T10:49:39.866Z</time>
      </trkpt>
      <trkpt lat="42.24663" lon="22.78198">
        <ele>557.939206</ele>
        <time>2022-04-06T10:49:42.876Z</time>
      </trkpt>
      <trkpt lat="42.24659" lon="22.78184">
        <ele>558.255535</ele>
        <time>2022-04-06T10:49:46.876Z</time>
      </trkpt>
      <trkpt lat="42.24654" lon="22.78172">
        <ele>558.543529</ele>
        <time>2022-04-06T10:49:50.876Z</time>
      </trkpt>
      <trkpt lat="42.24648" lon="22.78159">
        <ele>558.871006</ele>
        <time>2022-04-06T10:49:55.887Z</time>
      </trkpt>
      <trkpt lat="42.24641" lon="22.78147">
        <ele>559.186176</ele>
        <time>2022-04-06T10:49:59.871Z</time>
      </trkpt>
      <trkpt lat="42.24635" lon="22.78136">
        <ele>559.469167</ele>
        <time>2022-04-06T10:50:02.867Z</time>
      </trkpt>
      <trkpt lat="42.24631" lon="22.78122">
        <ele>559.791237</ele>
        <time>2022-04-06T10:50:06.860Z</time>
      </trkpt>
      <trkpt lat="42.24627" lon="22.78111">
        <ele>560.050901</ele>
        <time>2022-04-06T10:50:10.870Z</time>
      </trkpt>
      <trkpt lat="42.24624" lon="22.78097">
        <ele>560.348802</ele>
        <time>2022-04-06T10:50:14.875Z</time>
      </trkpt>
      <trkpt lat="42.24619" lon="22.78084">
        <ele>560.669479</ele>
        <time>2022-04-06T10:50:18.876Z</time>
      </trkpt>
      <trkpt lat="42.24614" lon="22.78069">
        <ele>561.00592</ele>
        <time>2022-04-06T10:50:22.875Z</time>
      </trkpt>
      <trkpt lat="42.24609" lon="22.78059">
        <ele>561.270942</ele>
        <time>2022-04-06T10:50:25.865Z</time>
      </trkpt>
      <trkpt lat="42.24604" lon="22.78048">
        <ele>561.541818</ele>
        <time>2022-04-06T10:50:28.873Z</time>
      </trkpt>
      <trkpt lat="42.24599" lon="22.78037">
        <ele>561.818269</ele>
        <time>2022-04-06T10:50:31.867Z</time>
      </trkpt>
      <trkpt lat="42.24593" lon="22.78025">
        <ele>562.143772</ele>
        <time>2022-04-06T10:50:35.867Z</time>
      </trkpt>
      <trkpt lat="42.24588" lon="22.78011">
        <ele>562.474472</ele>
        <time>2022-04-06T10:50:39.870Z</time>
      </trkpt>
      <trkpt lat="42.24583" lon="22.77998">
        <ele>562.785757</ele>
        <time>2022-04-06T10:50:43.867Z</time>
      </trkpt>
      <trkpt lat="42.2458" lon="22.77986">
        <ele>563.059056</ele>
        <time>2022-04-06T10:50:47.888Z</time>
      </trkpt>
      <trkpt lat="42.24576" lon="22.77974">
        <ele>563.355518</ele>
        <time>2022-04-06T10:50:51.871Z</time>
      </trkpt>
      <trkpt lat="42.24572" lon="22.77961">
        <ele>563.655011</ele>
        <time>2022-04-06T10:50:56.868Z</time>
      </trkpt>
      <trkpt lat="42.2457" lon="22.77947">
        <ele>563.96403</ele>
        <time>2022-04-06T10:51:01.868Z</time>
      </trkpt>
      <trkpt lat="42.24567" lon="22.77933">
        <ele>564.277122</ele>
        <time>2022-04-06T10:51:06.867Z</time>
      </trkpt>
      <trkpt lat="42.24565" lon="22.77921">
        <ele>564.545544</ele>
        <time>2022-04-06T10:51:11.876Z</time>
      </trkpt>
      <trkpt lat="42.24562" lon="22.77908">
        <ele>564.840752</ele>
        <time>2022-04-06T10:51:17.878Z</time>
      </trkpt>
      <trkpt lat="42.24558" lon="22.77895">
        <ele>565.134438</ele>
        <time>2022-04-06T10:51:23.896Z</time>
      </trkpt>
      <trkpt lat="42.24555" lon="22.77883">
        <ele>565.407739</ele>
        <time>2022-04-06T10:51:28.875Z</time>
      </trkpt>
      <trkpt lat="42.24552" lon="22.77869">
        <ele>565.722489</ele>
        <time>2022-04-06T10:51:34.873Z</time>
      </trkpt>
      <trkpt lat="42.2455" lon="22.77856">
        <ele>566.026597</ele>
        <time>2022-04-06T10:51:40.871Z</time>
      </trkpt>
      <trkpt lat="42.24547" lon="22.77842">
        <ele>566.335618</ele>
        <time>2022-04-06T10:51:46.879Z</time>
      </trkpt>
      <trkpt lat="42.24543" lon="22.77829">
        <ele>566.74844</ele>
        <time>2022-04-06T10:51:53.887Z</time>
      </trkpt>
      <trkpt lat="42.2454" lon="22.77817">
        <ele>567.345445</ele>
        <time>2022-04-06T10:51:59.878Z</time>
      </trkpt>
      <trkpt lat="42.24536" lon="22.77804">
        <ele>567.953895</ele>
        <time>2022-04-06T10:52:05.876Z</time>
      </trkpt>
      <trkpt lat="42.24532" lon="22.77792">
        <ele>568.549852</ele>
        <time>2022-04-06T10:52:11.877Z</time>
      </trkpt>
      <trkpt lat="42.24525" lon="22.77781">
        <ele>569.18092</ele>
        <time>2022-04-06T10:52:17.865Z</time>
      </trkpt>
      <trkpt lat="42.24518" lon="22.77772">
        <ele>569.826912</ele>
        <time>2022-04-06T10:52:23.868Z</time>
      </trkpt>
      <trkpt lat="42.2451" lon="22.77763">
        <ele>570.436652</ele>
        <time>2022-04-06T10:52:29.884Z</time>
      </trkpt>
      <trkpt lat="42.24501" lon="22.77757">
        <ele>571.053444</ele>
        <time>2022-04-06T10:52:36.867Z</time>
      </trkpt>
      <trkpt lat="42.24492" lon="22.77752">
        <ele>571.642507</ele>
        <time>2022-04-06T10:52:42.865Z</time>
      </trkpt>
      <trkpt lat="42.24484" lon="22.77744">
        <ele>572.250318</ele>
        <time>2022-04-06T10:52:48.862Z</time>
      </trkpt>
      <trkpt lat="42.24477" lon="22.77735">
        <ele>572.835927</ele>
        <time>2022-04-06T10:52:53.875Z</time>
      </trkpt>
      <trkpt lat="42.2447" lon="22.77725">
        <ele>573.488958</ele>
        <time>2022-04-06T10:52:58.862Z</time>
      </trkpt>
      <trkpt lat="42.24463" lon="22.77713">
        <ele>574.123583</ele>
        <time>2022-04-06T10:53:03.875Z</time>
      </trkpt>
      <trkpt lat="42.24458" lon="22.77701">
        <ele>574.757751</ele>
        <time>2022-04-06T10:53:08.897Z</time>
      </trkpt>
      <trkpt lat="42.24454" lon="22.77689">
        <ele>575.378004</ele>
        <time>2022-04-06T10:53:13.868Z</time>
      </trkpt>
      <trkpt lat="42.2445" lon="22.77678">
        <ele>575.94194</ele>
        <time>2022-04-06T10:53:17.878Z</time>
      </trkpt>
      <trkpt lat="42.24445" lon="22.77665">
        <ele>576.57703</ele>
        <time>2022-04-06T10:53:22.875Z</time>
      </trkpt>
      <trkpt lat="42.24441" lon="22.77652">
        <ele>577.190725</ele>
        <time>2022-04-06T10:53:28.866Z</time>
      </trkpt>
      <trkpt lat="42.24436" lon="22.7764">
        <ele>577.665549</ele>
        <time>2022-04-06T10:53:33.872Z</time>
      </trkpt>
      <trkpt lat="42.24431" lon="22.77629">
        <ele>577.990136</ele>
        <time>2022-04-06T10:53:38.885Z</time>
      </trkpt>
      <trkpt lat="42.24427" lon="22.77617">
        <ele>578.311719</ele>
        <time>2022-04-06T10:53:43.877Z</time>
      </trkpt>
      <trkpt lat="42.24422" lon="22.77606">
        <ele>578.626373</ele>
        <time>2022-04-06T10:53:48.878Z</time>
      </trkpt>
      <trkpt lat="42.24417" lon="22.77593">
        <ele>578.968652</ele>
        <time>2022-04-06T10:53:53.869Z</time>
      </trkpt>
      <trkpt lat="42.24415" lon="22.77578">
        <ele>579.347222</ele>
        <time>2022-04-06T10:53:58.864Z</time>
      </trkpt>
      <trkpt lat="42.24412" lon="22.77566">
        <ele>579.655089</ele>
        <time>2022-04-06T10:54:02.891Z</time>
      </trkpt>
      <trkpt lat="42.24407" lon="22.77556">
        <ele>579.957595</ele>
        <time>2022-04-06T10:54:06.873Z</time>
      </trkpt>
      <trkpt lat="42.24403" lon="22.77544">
        <ele>580.273271</ele>
        <time>2022-04-06T10:54:10.869Z</time>
      </trkpt>
      <trkpt lat="42.24399" lon="22.77531">
        <ele>580.61014</ele>
        <time>2022-04-06T10:54:15.871Z</time>
      </trkpt>
      <trkpt lat="42.24396" lon="22.7752">
        <ele>580.911812</ele>
        <time>2022-04-06T10:54:20.892Z</time>
      </trkpt>
      <trkpt lat="42.24393" lon="22.77508">
        <ele>581.212893</ele>
        <time>2022-04-06T10:54:25.872Z</time>
      </trkpt>
      <trkpt lat="42.2439" lon="22.77496">
        <ele>581.519232</ele>
        <time>2022-04-06T10:54:30.868Z</time>
      </trkpt>
      <trkpt lat="42.24387" lon="22.77482">
        <ele>581.871833</ele>
        <time>2022-04-06T10:54:35.873Z</time>
      </trkpt>
      <trkpt lat="42.24388" lon="22.7747">
        <ele>582.170653</ele>
        <time>2022-04-06T10:54:39.879Z</time>
      </trkpt>
      <trkpt lat="42.24387" lon="22.77457">
        <ele>582.485141</ele>
        <time>2022-04-06T10:54:43.870Z</time>
      </trkpt>
      <trkpt lat="42.24385" lon="22.77443">
        <ele>582.830069</ele>
        <time>2022-04-06T10:54:48.871Z</time>
      </trkpt>
      <trkpt lat="42.24384" lon="22.7743">
        <ele>583.140265</ele>
        <time>2022-04-06T10:54:52.874Z</time>
      </trkpt>
      <trkpt lat="42.24383" lon="22.77416">
        <ele>583.353498</ele>
        <time>2022-04-06T10:54:56.888Z</time>
      </trkpt>
      <trkpt lat="42.24383" lon="22.77403">
        <ele>583.221503</ele>
        <time>2022-04-06T10:55:00.872Z</time>
      </trkpt>
      <trkpt lat="42.24382" lon="22.7739">
        <ele>583.080807</ele>
        <time>2022-04-06T10:55:05.876Z</time>
      </trkpt>
      <trkpt lat="42.2438" lon="22.77377">
        <ele>582.946057</ele>
        <time>2022-04-06T10:55:10.868Z</time>
      </trkpt>
      <trkpt lat="42.24378" lon="22.77365">
        <ele>582.820562</ele>
        <time>2022-04-06T10:55:14.867Z</time>
      </trkpt>
      <trkpt lat="42.24375" lon="22.77351">
        <ele>582.674118</ele>
        <time>2022-04-06T10:55:18.862Z</time>
      </trkpt>
      <trkpt lat="42.24375" lon="22.77339">
        <ele>582.544352</ele>
        <time>2022-04-06T10:55:21.867Z</time>
      </trkpt>
      <trkpt lat="42.24373" lon="22.77323">
        <ele>582.384807</ele>
        <time>2022-04-06T10:55:25.871Z</time>
      </trkpt>
      <trkpt lat="42.2437" lon="22.77311">
        <ele>582.257966</ele>
        <time>2022-04-06T10:55:28.867Z</time>
      </trkpt>
      <trkpt lat="42.24366" lon="22.77296">
        <ele>582.094969</ele>
        <time>2022-04-06T10:55:32.863Z</time>
      </trkpt>
      <trkpt lat="42.24363" lon="22.77284">
        <ele>581.95843</ele>
        <time>2022-04-06T10:55:35.872Z</time>
      </trkpt>
      <trkpt lat="42.24356" lon="22.7727">
        <ele>581.78639</ele>
        <time>2022-04-06T10:55:38.871Z</time>
      </trkpt>
      <trkpt lat="42.2435" lon="22.77259">
        <ele>581.647205</ele>
        <time>2022-04-06T10:55:40.880Z</time>
      </trkpt>
      <trkpt lat="42.24344" lon="22.77249">
        <ele>581.508121</ele>
        <time>2022-04-06T10:55:42.891Z</time>
      </trkpt>
      <trkpt lat="42.24338" lon="22.77238">
        <ele>581.375869</ele>
        <time>2022-04-06T10:55:44.870Z</time>
      </trkpt>
      <trkpt lat="42.24331" lon="22.77226">
        <ele>581.213859</ele>
        <time>2022-04-06T10:55:47.864Z</time>
      </trkpt>
      <trkpt lat="42.24331" lon="22.77211">
        <ele>581.064506</ele>
        <time>2022-04-06T10:55:50.866Z</time>
      </trkpt>
      <trkpt lat="42.24335" lon="22.77199">
        <ele>580.931381</ele>
        <time>2022-04-06T10:55:52.867Z</time>
      </trkpt>
      <trkpt lat="42.2434" lon="22.77187">
        <ele>581.047882</ele>
        <time>2022-04-06T10:55:54.905Z</time>
      </trkpt>
      <trkpt lat="42.24345" lon="22.77174">
        <ele>581.251586</ele>
        <time>2022-04-06T10:55:56.871Z</time>
      </trkpt>
      <trkpt lat="42.24349" lon="22.77162">
        <ele>581.440713</ele>
        <time>2022-04-06T10:55:58.871Z</time>
      </trkpt>
      <trkpt lat="42.24353" lon="22.77149">
        <ele>581.632021</ele>
        <time>2022-04-06T10:56:00.863Z</time>
      </trkpt>
      <trkpt lat="42.24358" lon="22.77137">
        <ele>581.819489</ele>
        <time>2022-04-06T10:56:02.863Z</time>
      </trkpt>
      <trkpt lat="42.24362" lon="22.77126">
        <ele>581.994459</ele>
        <time>2022-04-06T10:56:04.872Z</time>
      </trkpt>
      <trkpt lat="42.24368" lon="22.77111">
        <ele>582.229312</ele>
        <time>2022-04-06T10:56:07.867Z</time>
      </trkpt>
      <trkpt lat="42.24373" lon="22.77097">
        <ele>582.445706</ele>
        <time>2022-04-06T10:56:10.866Z</time>
      </trkpt>
      <trkpt lat="42.24377" lon="22.77085">
        <ele>582.623641</ele>
        <time>2022-04-06T10:56:13.864Z</time>
      </trkpt>
      <trkpt lat="42.24383" lon="22.77075">
        <ele>582.80185</ele>
        <time>2022-04-06T10:56:16.863Z</time>
      </trkpt>
      <trkpt lat="42.2439" lon="22.77064">
        <ele>583.008147</ele>
        <time>2022-04-06T10:56:20.877Z</time>
      </trkpt>
      <trkpt lat="42.24397" lon="22.77053">
        <ele>583.219652</ele>
        <time>2022-04-06T10:56:24.864Z</time>
      </trkpt>
      <trkpt lat="42.24404" lon="22.77043">
        <ele>583.407783</ele>
        <time>2022-04-06T10:56:28.872Z</time>
      </trkpt>
      <trkpt lat="42.24412" lon="22.77033">
        <ele>583.609833</ele>
        <time>2022-04-06T10:56:33.872Z</time>
      </trkpt>
      <trkpt lat="42.2442" lon="22.77023">
        <ele>583.808217</ele>
        <time>2022-04-06T10:56:38.890Z</time>
      </trkpt>
      <trkpt lat="42.24428" lon="22.77013">
        <ele>584.011074</ele>
        <time>2022-04-06T10:56:43.878Z</time>
      </trkpt>
      <trkpt lat="42.24435" lon="22.77004">
        <ele>584.208333</ele>
        <time>2022-04-06T10:56:48.870Z</time>
      </trkpt>
      <trkpt lat="42.24442" lon="22.76994">
        <ele>584.747722</ele>
        <time>2022-04-06T10:56:53.866Z</time>
      </trkpt>
      <trkpt lat="42.2445" lon="22.76986">
        <ele>585.566928</ele>
        <time>2022-04-06T10:56:59.870Z</time>
      </trkpt>
      <trkpt lat="42.24457" lon="22.76977">
        <ele>586.307057</ele>
        <time>2022-04-06T10:57:05.868Z</time>
      </trkpt>
      <trkpt lat="42.24464" lon="22.76968">
        <ele>587.112141</ele>
        <time>2022-04-06T10:57:12.865Z</time>
      </trkpt>
      <trkpt lat="42.24471" lon="22.76958">
        <ele>587.913159</ele>
        <time>2022-04-06T10:57:19.878Z</time>
      </trkpt>
      <trkpt lat="42.24477" lon="22.76947">
        <ele>588.705411</ele>
        <time>2022-04-06T10:57:26.893Z</time>
      </trkpt>
      <trkpt lat="42.24483" lon="22.76936">
        <ele>589.479052</ele>
        <time>2022-04-06T10:57:34.864Z</time>
      </trkpt>
      <trkpt lat="42.24488" lon="22.76926">
        <ele>590.200869</ele>
        <time>2022-04-06T10:57:41.872Z</time>
      </trkpt>
      <trkpt lat="42.24494" lon="22.76915">
        <ele>590.99312</ele>
        <time>2022-04-06T10:57:49.879Z</time>
      </trkpt>
      <trkpt lat="42.24499" lon="22.76904">
        <ele>591.757178</ele>
        <time>2022-04-06T10:57:56.897Z</time>
      </trkpt>
      <trkpt lat="42.24506" lon="22.76894">
        <ele>592.532768</ele>
        <time>2022-04-06T10:58:04.873Z</time>
      </trkpt>
      <trkpt lat="42.24512" lon="22.76884">
        <ele>593.283039</ele>
        <time>2022-04-06T10:58:11.871Z</time>
      </trkpt>
      <trkpt lat="42.24518" lon="22.76874">
        <ele>594.052029</ele>
        <time>2022-04-06T10:58:19.873Z</time>
      </trkpt>
      <trkpt lat="42.24522" lon="22.76862">
        <ele>594.832472</ele>
        <time>2022-04-06T10:58:27.870Z</time>
      </trkpt>
      <trkpt lat="42.24528" lon="22.76851">
        <ele>595.634751</ele>
        <time>2022-04-06T10:58:35.871Z</time>
      </trkpt>
      <trkpt lat="42.24533" lon="22.7684">
        <ele>596.359699</ele>
        <time>2022-04-06T10:58:42.868Z</time>
      </trkpt>
      <trkpt lat="42.24538" lon="22.7683">
        <ele>597.123646</ele>
        <time>2022-04-06T10:58:50.863Z</time>
      </trkpt>
      <trkpt lat="42.24544" lon="22.7682">
        <ele>597.893467</ele>
        <time>2022-04-06T10:58:58.878Z</time>
      </trkpt>
      <trkpt lat="42.2455" lon="22.76809">
        <ele>598.671407</ele>
        <time>2022-04-06T10:59:05.862Z</time>
      </trkpt>
      <trkpt lat="42.24556" lon="22.76798">
        <ele>599.452439</ele>
        <time>2022-04-06T10:59:13.878Z</time>
      </trkpt>
      <trkpt lat="42.2456" lon="22.76787">
        <ele>600.209982</ele>
        <time>2022-04-06T10:59:21.874Z</time>
      </trkpt>
      <trkpt lat="42.24566" lon="22.76778">
        <ele>600.986595</ele>
        <time>2022-04-06T10:59:29.873Z</time>
      </trkpt>
      <trkpt lat="42.24572" lon="22.76767">
        <ele>601.816154</ele>
        <time>2022-04-06T10:59:38.887Z</time>
      </trkpt>
      <trkpt lat="42.24576" lon="22.76755">
        <ele>602.626052</ele>
        <time>2022-04-06T10:59:46.872Z</time>
      </trkpt>
      <trkpt lat="42.24582" lon="22.76744">
        <ele>603.416382</ele>
        <time>2022-04-06T10:59:54.860Z</time>
      </trkpt>
      <trkpt lat="42.24588" lon="22.76734">
        <ele>604.19886</ele>
        <time>2022-04-06T11:00:01.873Z</time>
      </trkpt>
      <trkpt lat="42.24593" lon="22.76723">
        <ele>604.987538</ele>
        <time>2022-04-06T11:00:10.863Z</time>
      </trkpt>
      <trkpt lat="42.24599" lon="22.76712">
        <ele>605.803923</ele>
        <time>2022-04-06T11:00:18.870Z</time>
      </trkpt>
      <trkpt lat="42.24604" lon="22.76701">
        <ele>606.608902</ele>
        <time>2022-04-06T11:00:25.877Z</time>
      </trkpt>
      <trkpt lat="42.24611" lon="22.76691">
        <ele>607.443878</ele>
        <time>2022-04-06T11:00:32.892Z</time>
      </trkpt>
      <trkpt lat="42.24617" lon="22.7668">
        <ele>608.239108</ele>
        <time>2022-04-06T11:00:40.866Z</time>
      </trkpt>
      <trkpt lat="42.24621" lon="22.76669">
        <ele>609.020556</ele>
        <time>2022-04-06T11:00:47.882Z</time>
      </trkpt>
      <trkpt lat="42.24628" lon="22.76659">
        <ele>609.826871</ele>
        <time>2022-04-06T11:00:54.876Z</time>
      </trkpt>
      <trkpt lat="42.24633" lon="22.76647">
        <ele>610.661242</ele>
        <time>2022-04-06T11:01:02.895Z</time>
      </trkpt>
      <trkpt lat="42.24639" lon="22.76636">
        <ele>611.474009</ele>
        <time>2022-04-06T11:01:09.868Z</time>
      </trkpt>
      <trkpt lat="42.24644" lon="22.76625">
        <ele>612.274084</ele>
        <time>2022-04-06T11:01:17.873Z</time>
      </trkpt>
      <trkpt lat="42.2465" lon="22.76614">
        <ele>613.11184</ele>
        <time>2022-04-06T11:01:24.868Z</time>
      </trkpt>
      <trkpt lat="42.24656" lon="22.76604">
        <ele>613.047098</ele>
        <time>2022-04-06T11:01:31.879Z</time>
      </trkpt>
      <trkpt lat="42.24662" lon="22.76594">
        <ele>612.71964</ele>
        <time>2022-04-06T11:01:38.868Z</time>
      </trkpt>
      <trkpt lat="42.24669" lon="22.76583">
        <ele>612.383769</ele>
        <time>2022-04-06T11:01:45.875Z</time>
      </trkpt>
      <trkpt lat="42.24675" lon="22.76572">
        <ele>612.045838</ele>
        <time>2022-04-06T11:01:52.876Z</time>
      </trkpt>
      <trkpt lat="42.24681" lon="22.76561">
        <ele>611.710001</ele>
        <time>2022-04-06T11:01:59.869Z</time>
      </trkpt>
      <trkpt lat="42.24688" lon="22.7655">
        <ele>611.368117</ele>
        <time>2022-04-06T11:02:05.866Z</time>
      </trkpt>
      <trkpt lat="42.24694" lon="22.76541">
        <ele>611.066875</ele>
        <time>2022-04-06T11:02:09.872Z</time>
      </trkpt>
      <trkpt lat="42.247" lon="22.76532">
        <ele>610.764821</ele>
        <time>2022-04-06T11:02:13.875Z</time>
      </trkpt>
      <trkpt lat="42.24707" lon="22.76522">
        <ele>610.451165</ele>
        <time>2022-04-06T11:02:17.866Z</time>
      </trkpt>
      <trkpt lat="42.24713" lon="22.76512">
        <ele>610.126975</ele>
        <time>2022-04-06T11:02:21.869Z</time>
      </trkpt>
      <trkpt lat="42.2472" lon="22.765">
        <ele>609.771533</ele>
        <time>2022-04-06T11:02:25.866Z</time>
      </trkpt>
      <trkpt lat="42.24726" lon="22.76487">
        <ele>609.381099</ele>
        <time>2022-04-06T11:02:29.862Z</time>
      </trkpt>
      <trkpt lat="42.24733" lon="22.76477">
        <ele>609.050649</ele>
        <time>2022-04-06T11:02:32.868Z</time>
      </trkpt>
      <trkpt lat="42.2474" lon="22.76465">
        <ele>608.679828</ele>
        <time>2022-04-06T11:02:35.884Z</time>
      </trkpt>
      <trkpt lat="42.24747" lon="22.76452">
        <ele>608.293136</ele>
        <time>2022-04-06T11:02:38.863Z</time>
      </trkpt>
      <trkpt lat="42.24756" lon="22.76439">
        <ele>607.85206</ele>
        <time>2022-04-06T11:02:41.861Z</time>
      </trkpt>
      <trkpt lat="42.24763" lon="22.76429">
        <ele>607.527142</ele>
        <time>2022-04-06T11:02:43.870Z</time>
      </trkpt>
      <trkpt lat="42.24769" lon="22.76417">
        <ele>607.131598</ele>
        <time>2022-04-06T11:02:45.866Z</time>
      </trkpt>
      <trkpt lat="42.24776" lon="22.76404">
        <ele>606.689869</ele>
        <time>2022-04-06T11:02:47.866Z</time>
      </trkpt>
      <trkpt lat="42.24784" lon="22.76391">
        <ele>606.229882</ele>
        <time>2022-04-06T11:02:49.872Z</time>
      </trkpt>
      <trkpt lat="42.24791" lon="22.76379">
        <ele>605.774064</ele>
        <time>2022-04-06T11:02:51.872Z</time>
      </trkpt>
      <trkpt lat="42.24799" lon="22.76366">
        <ele>605.306299</ele>
        <time>2022-04-06T11:02:53.864Z</time>
      </trkpt>
      <trkpt lat="42.24806" lon="22.76353">
        <ele>604.832661</ele>
        <time>2022-04-06T11:02:55.868Z</time>
      </trkpt>
      <trkpt lat="42.24815" lon="22.76338">
        <ele>604.297286</ele>
        <time>2022-04-06T11:02:57.878Z</time>
      </trkpt>
      <trkpt lat="42.24825" lon="22.76323">
        <ele>603.738376</ele>
        <time>2022-04-06T11:02:59.870Z</time>
      </trkpt>
      <trkpt lat="42.24834" lon="22.76308">
        <ele>603.173297</ele>
        <time>2022-04-06T11:03:01.874Z</time>
      </trkpt>
      <trkpt lat="42.24845" lon="22.76294">
        <ele>602.606648</ele>
        <time>2022-04-06T11:03:03.876Z</time>
      </trkpt>
      <trkpt lat="42.24855" lon="22.7628">
        <ele>602.045475</ele>
        <time>2022-04-06T11:03:05.875Z</time>
      </trkpt>
      <trkpt lat="42.24866" lon="22.76268">
        <ele>601.505577</ele>
        <time>2022-04-06T11:03:07.876Z</time>
      </trkpt>
      <trkpt lat="42.24876" lon="22.76257">
        <ele>601.007311</ele>
        <time>2022-04-06T11:03:09.864Z</time>
      </trkpt>
      <trkpt lat="42.24887" lon="22.76248">
        <ele>600.515754</ele>
        <time>2022-04-06T11:03:11.866Z</time>
      </trkpt>
      <trkpt lat="42.24897" lon="22.76241">
        <ele>600.898997</ele>
        <time>2022-04-06T11:03:13.865Z</time>
      </trkpt>
      <trkpt lat="42.24907" lon="22.76235">
        <ele>601.277631</ele>
        <time>2022-04-06T11:03:15.872Z</time>
      </trkpt>
      <trkpt lat="42.24916" lon="22.76229">
        <ele>601.624891</ele>
        <time>2022-04-06T11:03:17.864Z</time>
      </trkpt>
      <trkpt lat="42.24928" lon="22.76223">
        <ele>602.085505</ele>
        <time>2022-04-06T11:03:20.876Z</time>
      </trkpt>
      <trkpt lat="42.24938" lon="22.76219">
        <ele>602.469219</ele>
        <time>2022-04-06T11:03:23.868Z</time>
      </trkpt>
      <trkpt lat="42.24948" lon="22.76214">
        <ele>602.820826</ele>
        <time>2022-04-06T11:03:26.870Z</time>
      </trkpt>
      <trkpt lat="42.24959" lon="22.7621">
        <ele>603.225499</ele>
        <time>2022-04-06T11:03:30.869Z</time>
      </trkpt>
      <trkpt lat="42.24969" lon="22.76205">
        <ele>603.618386</ele>
        <time>2022-04-06T11:03:34.901Z</time>
      </trkpt>
      <trkpt lat="42.24979" lon="22.76202">
        <ele>603.995779</ele>
        <time>2022-04-06T11:03:38.863Z</time>
      </trkpt>
      <trkpt lat="42.24988" lon="22.76197">
        <ele>604.328311</ele>
        <time>2022-04-06T11:03:42.870Z</time>
      </trkpt>
      <trkpt lat="42.24998" lon="22.76191">
        <ele>604.697232</ele>
        <time>2022-04-06T11:03:47.881Z</time>
      </trkpt>
      <trkpt lat="42.25006" lon="22.76185">
        <ele>605.059384</ele>
        <time>2022-04-06T11:03:53.875Z</time>
      </trkpt>
      <trkpt lat="42.25014" lon="22.76175">
        <ele>605.437742</ele>
        <time>2022-04-06T11:03:59.871Z</time>
      </trkpt>
      <trkpt lat="42.2502" lon="22.76164">
        <ele>605.802379</ele>
        <time>2022-04-06T11:04:05.869Z</time>
      </trkpt>
      <trkpt lat="42.25025" lon="22.76154">
        <ele>606.126517</ele>
        <time>2022-04-06T11:04:10.888Z</time>
      </trkpt>
      <trkpt lat="42.25031" lon="22.76144">
        <ele>606.448439</ele>
        <time>2022-04-06T11:04:15.876Z</time>
      </trkpt>
      <trkpt lat="42.25035" lon="22.76132">
        <ele>606.803843</ele>
        <time>2022-04-06T11:04:21.873Z</time>
      </trkpt>
      <trkpt lat="42.25038" lon="22.7612">
        <ele>607.262739</ele>
        <time>2022-04-06T11:04:26.863Z</time>
      </trkpt>
      <trkpt lat="42.25043" lon="22.76108">
        <ele>607.863606</ele>
        <time>2022-04-06T11:04:32.863Z</time>
      </trkpt>
      <trkpt lat="42.25048" lon="22.76096">
        <ele>608.449744</ele>
        <time>2022-04-06T11:04:38.868Z</time>
      </trkpt>
      <trkpt lat="42.25053" lon="22.76085">
        <ele>608.997078</ele>
        <time>2022-04-06T11:04:43.884Z</time>
      </trkpt>
      <trkpt lat="42.25057" lon="22.76072">
        <ele>609.594079</ele>
        <time>2022-04-06T11:04:49.875Z</time>
      </trkpt>
      <trkpt lat="42.25061" lon="22.76061">
        <ele>610.153037</ele>
        <time>2022-04-06T11:04:54.864Z</time>
      </trkpt>
      <trkpt lat="42.25065" lon="22.76049">
        <ele>610.692284</ele>
        <time>2022-04-06T11:04:59.860Z</time>
      </trkpt>
      <trkpt lat="42.25069" lon="22.76037">
        <ele>611.256816</ele>
        <time>2022-04-06T11:05:04.863Z</time>
      </trkpt>
      <trkpt lat="42.25073" lon="22.76025">
        <ele>611.825566</ele>
        <time>2022-04-06T11:05:09.902Z</time>
      </trkpt>
      <trkpt lat="42.25077" lon="22.76013">
        <ele>612.410458</ele>
        <time>2022-04-06T11:05:14.867Z</time>
      </trkpt>
      <trkpt lat="42.25081" lon="22.76001">
        <ele>612.940531</ele>
        <time>2022-04-06T11:05:19.875Z</time>
      </trkpt>
      <trkpt lat="42.25084" lon="22.7599">
        <ele>613.476398</ele>
        <time>2022-04-06T11:05:24.870Z</time>
      </trkpt>
      <trkpt lat="42.25087" lon="22.75977">
        <ele>614.032618</ele>
        <time>2022-04-06T11:05:29.876Z</time>
      </trkpt>
      <trkpt lat="42.25091" lon="22.75966">
        <ele>614.556463</ele>
        <time>2022-04-06T11:05:34.862Z</time>
      </trkpt>
      <trkpt lat="42.25094" lon="22.75953">
        <ele>615.17757</ele>
        <time>2022-04-06T11:05:40.865Z</time>
      </trkpt>
      <trkpt lat="42.25097" lon="22.75941">
        <ele>615.70122</ele>
        <time>2022-04-06T11:05:45.864Z</time>
      </trkpt>
      <trkpt lat="42.25101" lon="22.75929">
        <ele>616.255579</ele>
        <time>2022-04-06T11:05:50.896Z</time>
      </trkpt>
      <trkpt lat="42.25104" lon="22.75917">
        <ele>616.801558</ele>
        <time>2022-04-06T11:05:55.878Z</time>
      </trkpt>
      <trkpt lat="42.25107" lon="22.75905">
        <ele>617.342192</ele>
        <time>2022-04-06T11:06:00.863Z</time>
      </trkpt>
      <trkpt lat="42.2511" lon="22.75892">
        <ele>617.534506</ele>
        <time>2022-04-06T11:06:06.862Z</time>
      </trkpt>
      <trkpt lat="42.25112" lon="22.75879">
        <ele>617.718841</ele>
        <time>2022-04-06T11:06:11.870Z</time>
      </trkpt>
      <trkpt lat="42.25115" lon="22.75866">
        <ele>617.906413</ele>
        <time>2022-04-06T11:06:16.870Z</time>
      </trkpt>
      <trkpt lat="42.25119" lon="22.75853">
        <ele>618.09717</ele>
        <time>2022-04-06T11:06:21.878Z</time>
      </trkpt>
      <trkpt lat="42.25121" lon="22.75839">
        <ele>618.289484</ele>
        <time>2022-04-06T11:06:26.888Z</time>
      </trkpt>
      <trkpt lat="42.25125" lon="22.75826">
        <ele>618.473768</ele>
        <time>2022-04-06T11:06:31.869Z</time>
      </trkpt>
      <trkpt lat="42.25129" lon="22.75812">
        <ele>618.679855</ele>
        <time>2022-04-06T11:06:36.866Z</time>
      </trkpt>
      <trkpt lat="42.25133" lon="22.758">
        <ele>618.861292</ele>
        <time>2022-04-06T11:06:40.863Z</time>
      </trkpt>
      <trkpt lat="42.25136" lon="22.75787">
        <ele>619.050707</ele>
        <time>2022-04-06T11:06:44.861Z</time>
      </trkpt>
      <trkpt lat="42.2514" lon="22.75774">
        <ele>619.245897</ele>
        <time>2022-04-06T11:06:48.867Z</time>
      </trkpt>
      <trkpt lat="42.25143" lon="22.75761">
        <ele>619.42631</ele>
        <time>2022-04-06T11:06:52.872Z</time>
      </trkpt>
      <trkpt lat="42.25147" lon="22.75748">
        <ele>619.621485</ele>
        <time>2022-04-06T11:06:57.867Z</time>
      </trkpt>
      <trkpt lat="42.25151" lon="22.75736">
        <ele>619.799668</ele>
        <time>2022-04-06T11:07:01.865Z</time>
      </trkpt>
      <trkpt lat="42.25154" lon="22.75725">
        <ele>619.966674</ele>
        <time>2022-04-06T11:07:05.868Z</time>
      </trkpt>
      <trkpt lat="42.25159" lon="22.75711">
        <ele>620.176676</ele>
        <time>2022-04-06T11:07:10.866Z</time>
      </trkpt>
      <trkpt lat="42.25162" lon="22.75697">
        <ele>620.377541</ele>
        <time>2022-04-06T11:07:14.886Z</time>
      </trkpt>
      <trkpt lat="42.25165" lon="22.75684">
        <ele>620.556629</ele>
        <time>2022-04-06T11:07:17.870Z</time>
      </trkpt>
      <trkpt lat="42.25167" lon="22.75671">
        <ele>620.471933</ele>
        <time>2022-04-06T11:07:20.889Z</time>
      </trkpt>
      <trkpt lat="42.25171" lon="22.75657">
        <ele>619.90011</ele>
        <time>2022-04-06T11:07:23.872Z</time>
      </trkpt>
      <trkpt lat="42.25173" lon="22.7564">
        <ele>619.249742</ele>
        <time>2022-04-06T11:07:26.892Z</time>
      </trkpt>
      <trkpt lat="42.25175" lon="22.75627">
        <ele>618.760451</ele>
        <time>2022-04-06T11:07:28.864Z</time>
      </trkpt>
      <trkpt lat="42.25178" lon="22.75612">
        <ele>618.178244</ele>
        <time>2022-04-06T11:07:30.860Z</time>
      </trkpt>
      <trkpt lat="42.25181" lon="22.75594">
        <ele>617.483047</ele>
        <time>2022-04-06T11:07:32.887Z</time>
      </trkpt>
      <trkpt lat="42.25184" lon="22.75575">
        <ele>616.738009</ele>
        <time>2022-04-06T11:07:34.868Z</time>
      </trkpt>
      <trkpt lat="42.25188" lon="22.75555">
        <ele>615.968494</ele>
        <time>2022-04-06T11:07:36.858Z</time>
      </trkpt>
      <trkpt lat="42.25192" lon="22.75533">
        <ele>615.141989</ele>
        <time>2022-04-06T11:07:38.860Z</time>
      </trkpt>
      <trkpt lat="42.25197" lon="22.75512">
        <ele>614.280815</ele>
        <time>2022-04-06T11:07:40.868Z</time>
      </trkpt>
      <trkpt lat="42.25205" lon="22.75491">
        <ele>613.397201</ele>
        <time>2022-04-06T11:07:42.868Z</time>
      </trkpt>
      <trkpt lat="42.25217" lon="22.75473">
        <ele>612.507561</ele>
        <time>2022-04-06T11:07:44.859Z</time>
      </trkpt>
      <trkpt lat="42.25224" lon="22.75465">
        <ele>612.043276</ele>
        <time>2022-04-06T11:07:45.867Z</time>
      </trkpt>
      <trkpt lat="42.25231" lon="22.75458">
        <ele>611.582008</ele>
        <time>2022-04-06T11:07:46.867Z</time>
      </trkpt>
      <trkpt lat="42.25239" lon="22.7545">
        <ele>610.781578</ele>
        <time>2022-04-06T11:07:47.868Z</time>
      </trkpt>
      <trkpt lat="42.25247" lon="22.75443">
        <ele>609.930181</ele>
        <time>2022-04-06T11:07:48.862Z</time>
      </trkpt>
      <trkpt lat="42.25255" lon="22.75435">
        <ele>609.067968</ele>
        <time>2022-04-06T11:07:49.869Z</time>
      </trkpt>
      <trkpt lat="42.25263" lon="22.75428">
        <ele>608.183718</ele>
        <time>2022-04-06T11:07:50.891Z</time>
      </trkpt>
      <trkpt lat="42.25272" lon="22.7542">
        <ele>607.255314</ele>
        <time>2022-04-06T11:07:51.872Z</time>
      </trkpt>
      <trkpt lat="42.25281" lon="22.75412">
        <ele>606.305028</ele>
        <time>2022-04-06T11:07:52.869Z</time>
      </trkpt>
      <trkpt lat="42.2529" lon="22.75405">
        <ele>605.362176</ele>
        <time>2022-04-06T11:07:53.871Z</time>
      </trkpt>
      <trkpt lat="42.25299" lon="22.75397">
        <ele>604.400947</ele>
        <time>2022-04-06T11:07:54.867Z</time>
      </trkpt>
      <trkpt lat="42.25309" lon="22.75389">
        <ele>603.421327</ele>
        <time>2022-04-06T11:07:55.867Z</time>
      </trkpt>
      <trkpt lat="42.25318" lon="22.7538">
        <ele>602.412791</ele>
        <time>2022-04-06T11:07:56.895Z</time>
      </trkpt>
      <trkpt lat="42.25328" lon="22.75372">
        <ele>601.422596</ele>
        <time>2022-04-06T11:07:57.867Z</time>
      </trkpt>
      <trkpt lat="42.25337" lon="22.75364">
        <ele>600.435958</ele>
        <time>2022-04-06T11:07:58.870Z</time>
      </trkpt>
      <trkpt lat="42.25347" lon="22.75355">
        <ele>599.427605</ele>
        <time>2022-04-06T11:07:59.865Z</time>
      </trkpt>
      <trkpt lat="42.25356" lon="22.75347">
        <ele>598.422871</ele>
        <time>2022-04-06T11:08:00.862Z</time>
      </trkpt>
      <trkpt lat="42.25366" lon="22.75338">
        <ele>597.414336</ele>
        <time>2022-04-06T11:08:01.877Z</time>
      </trkpt>
      <trkpt lat="42.25376" lon="22.7533">
        <ele>596.386955</ele>
        <time>2022-04-06T11:08:02.889Z</time>
      </trkpt>
      <trkpt lat="42.25386" lon="22.75321">
        <ele>595.513817</ele>
        <time>2022-04-06T11:08:03.873Z</time>
      </trkpt>
      <trkpt lat="42.25396" lon="22.75312">
        <ele>595.015111</ele>
        <time>2022-04-06T11:08:04.864Z</time>
      </trkpt>
      <trkpt lat="42.25407" lon="22.75304">
        <ele>594.509542</ele>
        <time>2022-04-06T11:08:05.870Z</time>
      </trkpt>
      <trkpt lat="42.25418" lon="22.75295">
        <ele>593.998629</ele>
        <time>2022-04-06T11:08:06.870Z</time>
      </trkpt>
      <trkpt lat="42.25429" lon="22.75286">
        <ele>593.484244</ele>
        <time>2022-04-06T11:08:07.876Z</time>
      </trkpt>
      <trkpt lat="42.2544" lon="22.75277">
        <ele>592.972908</ele>
        <time>2022-04-06T11:08:08.892Z</time>
      </trkpt>
      <trkpt lat="42.2545" lon="22.75269">
        <ele>592.478581</ele>
        <time>2022-04-06T11:08:09.873Z</time>
      </trkpt>
      <trkpt lat="42.2546" lon="22.75261">
        <ele>591.994279</ele>
        <time>2022-04-06T11:08:10.866Z</time>
      </trkpt>
      <trkpt lat="42.25471" lon="22.75253">
        <ele>591.508871</ele>
        <time>2022-04-06T11:08:11.875Z</time>
      </trkpt>
      <trkpt lat="42.25481" lon="22.75246">
        <ele>591.048423</ele>
        <time>2022-04-06T11:08:12.859Z</time>
      </trkpt>
      <trkpt lat="42.2549" lon="22.75239">
        <ele>590.611496</ele>
        <time>2022-04-06T11:08:13.870Z</time>
      </trkpt>
      <trkpt lat="42.25499" lon="22.75232">
        <ele>590.188771</ele>
        <time>2022-04-06T11:08:14.888Z</time>
      </trkpt>
      <trkpt lat="42.25508" lon="22.75225">
        <ele>589.784579</ele>
        <time>2022-04-06T11:08:15.872Z</time>
      </trkpt>
      <trkpt lat="42.25516" lon="22.75219">
        <ele>589.408919</ele>
        <time>2022-04-06T11:08:16.861Z</time>
      </trkpt>
      <trkpt lat="42.25531" lon="22.75208">
        <ele>588.713199</ele>
        <time>2022-04-06T11:08:18.879Z</time>
      </trkpt>
      <trkpt lat="42.25544" lon="22.75197">
        <ele>588.688004</ele>
        <time>2022-04-06T11:08:20.863Z</time>
      </trkpt>
      <trkpt lat="42.25556" lon="22.75187">
        <ele>589.205279</ele>
        <time>2022-04-06T11:08:22.863Z</time>
      </trkpt>
      <trkpt lat="42.25565" lon="22.75177">
        <ele>589.654597</ele>
        <time>2022-04-06T11:08:24.867Z</time>
      </trkpt>
      <trkpt lat="42.25572" lon="22.75169">
        <ele>590.035951</ele>
        <time>2022-04-06T11:08:26.864Z</time>
      </trkpt>
      <trkpt lat="42.25579" lon="22.7516">
        <ele>590.389799</ele>
        <time>2022-04-06T11:08:28.860Z</time>
      </trkpt>
      <trkpt lat="42.25586" lon="22.75149">
        <ele>590.801399</ele>
        <time>2022-04-06T11:08:31.894Z</time>
      </trkpt>
      <trkpt lat="42.25593" lon="22.75137">
        <ele>591.245399</ele>
        <time>2022-04-06T11:08:35.876Z</time>
      </trkpt>
      <trkpt lat="42.25599" lon="22.75125">
        <ele>591.657067</ele>
        <time>2022-04-06T11:08:39.867Z</time>
      </trkpt>
      <trkpt lat="42.25605" lon="22.75115">
        <ele>592.0181</ele>
        <time>2022-04-06T11:08:43.894Z</time>
      </trkpt>
      <trkpt lat="42.2561" lon="22.75103">
        <ele>592.433271</ele>
        <time>2022-04-06T11:08:48.869Z</time>
      </trkpt>
      <trkpt lat="42.25614" lon="22.75092">
        <ele>592.785618</ele>
        <time>2022-04-06T11:08:53.870Z</time>
      </trkpt>
      <trkpt lat="42.25617" lon="22.75077">
        <ele>593.213929</ele>
        <time>2022-04-06T11:08:58.874Z</time>
      </trkpt>
      <trkpt lat="42.25618" lon="22.75064">
        <ele>593.58597</ele>
        <time>2022-04-06T11:09:02.870Z</time>
      </trkpt>
      <trkpt lat="42.25621" lon="22.75052">
        <ele>593.946141</ele>
        <time>2022-04-06T11:09:06.886Z</time>
      </trkpt>
      <trkpt lat="42.25623" lon="22.75038">
        <ele>594.373185</ele>
        <time>2022-04-06T11:09:11.867Z</time>
      </trkpt>
      <trkpt lat="42.25623" lon="22.75023">
        <ele>594.802333</ele>
        <time>2022-04-06T11:09:16.871Z</time>
      </trkpt>
      <trkpt lat="42.25622" lon="22.75009">
        <ele>595.185865</ele>
        <time>2022-04-06T11:09:20.862Z</time>
      </trkpt>
      <trkpt lat="42.25622" lon="22.74996">
        <ele>595.299738</ele>
        <time>2022-04-06T11:09:24.890Z</time>
      </trkpt>
      <trkpt lat="42.25621" lon="22.74984">
        <ele>595.221103</ele>
        <time>2022-04-06T11:09:28.871Z</time>
      </trkpt>
      <trkpt lat="42.25619" lon="22.74972">
        <ele>595.141517</ele>
        <time>2022-04-06T11:09:32.872Z</time>
      </trkpt>
      <trkpt lat="42.25615" lon="22.7496">
        <ele>595.056273</ele>
        <time>2022-04-06T11:09:36.889Z</time>
      </trkpt>
      <trkpt lat="42.2561" lon="22.74946">
        <ele>594.959352</ele>
        <time>2022-04-06T11:09:40.864Z</time>
      </trkpt>
      <trkpt lat="42.25605" lon="22.74935">
        <ele>594.875375</ele>
        <time>2022-04-06T11:09:43.872Z</time>
      </trkpt>
      <trkpt lat="42.256" lon="22.74924">
        <ele>594.789485</ele>
        <time>2022-04-06T11:09:46.867Z</time>
      </trkpt>
      <trkpt lat="42.25593" lon="22.74912">
        <ele>594.691349</ele>
        <time>2022-04-06T11:09:49.874Z</time>
      </trkpt>
      <trkpt lat="42.25585" lon="22.749">
        <ele>594.589866</ele>
        <time>2022-04-06T11:09:52.863Z</time>
      </trkpt>
      <trkpt lat="42.25577" lon="22.74887">
        <ele>594.484821</ele>
        <time>2022-04-06T11:09:55.863Z</time>
      </trkpt>
      <trkpt lat="42.25571" lon="22.74878">
        <ele>594.40469</ele>
        <time>2022-04-06T11:09:57.867Z</time>
      </trkpt>
      <trkpt lat="42.25564" lon="22.74869">
        <ele>594.319035</ele>
        <time>2022-04-06T11:09:59.870Z</time>
      </trkpt>
      <trkpt lat="42.25558" lon="22.74859">
        <ele>594.235281</ele>
        <time>2022-04-06T11:10:01.876Z</time>
      </trkpt>
      <trkpt lat="42.25551" lon="22.74848">
        <ele>594.146758</ele>
        <time>2022-04-06T11:10:03.875Z</time>
      </trkpt>
      <trkpt lat="42.25544" lon="22.74836">
        <ele>594.045427</ele>
        <time>2022-04-06T11:10:05.865Z</time>
      </trkpt>
      <trkpt lat="42.25536" lon="22.74823">
        <ele>593.939065</ele>
        <time>2022-04-06T11:10:07.874Z</time>
      </trkpt>
      <trkpt lat="42.25528" lon="22.74809">
        <ele>593.825891</ele>
        <time>2022-04-06T11:10:09.870Z</time>
      </trkpt>
      <trkpt lat="42.2552" lon="22.74795">
        <ele>593.655777</ele>
        <time>2022-04-06T11:10:11.870Z</time>
      </trkpt>
      <trkpt lat="42.25511" lon="22.74779">
        <ele>593.456001</ele>
        <time>2022-04-06T11:10:13.860Z</time>
      </trkpt>
      <trkpt lat="42.25504" lon="22.74764">
        <ele>593.267779</ele>
        <time>2022-04-06T11:10:15.874Z</time>
      </trkpt>
      <trkpt lat="42.25498" lon="22.74748">
        <ele>593.083755</ele>
        <time>2022-04-06T11:10:17.875Z</time>
      </trkpt>
      <trkpt lat="42.25491" lon="22.74732">
        <ele>592.898268</ele>
        <time>2022-04-06T11:10:19.922Z</time>
      </trkpt>
      <trkpt lat="42.25485" lon="22.74717">
        <ele>592.719077</ele>
        <time>2022-04-06T11:10:21.870Z</time>
      </trkpt>
      <trkpt lat="42.25479" lon="22.74701">
        <ele>592.539992</ele>
        <time>2022-04-06T11:10:23.893Z</time>
      </trkpt>
      <trkpt lat="42.25473" lon="22.74686">
        <ele>592.363277</ele>
        <time>2022-04-06T11:10:25.875Z</time>
      </trkpt>
      <trkpt lat="42.25468" lon="22.74673">
        <ele>592.211817</ele>
        <time>2022-04-06T11:10:27.869Z</time>
      </trkpt>
      <trkpt lat="42.25462" lon="22.74658">
        <ele>592.03859</ele>
        <time>2022-04-06T11:10:30.883Z</time>
      </trkpt>
      <trkpt lat="42.25454" lon="22.74647">
        <ele>591.877865</ele>
        <time>2022-04-06T11:10:33.866Z</time>
      </trkpt>
      <trkpt lat="42.25448" lon="22.74631">
        <ele>591.689671</ele>
        <time>2022-04-06T11:10:36.868Z</time>
      </trkpt>
      <trkpt lat="42.25442" lon="22.74618">
        <ele>591.532581</ele>
        <time>2022-04-06T11:10:38.868Z</time>
      </trkpt>
      <trkpt lat="42.25437" lon="22.74604">
        <ele>591.36394</ele>
        <time>2022-04-06T11:10:40.875Z</time>
      </trkpt>
      <trkpt lat="42.25429" lon="22.7459">
        <ele>591.310892</ele>
        <time>2022-04-06T11:10:42.867Z</time>
      </trkpt>
      <trkpt lat="42.25419" lon="22.74575">
        <ele>591.370928</ele>
        <time>2022-04-06T11:10:44.859Z</time>
      </trkpt>
      <trkpt lat="42.25409" lon="22.74559">
        <ele>591.434072</ele>
        <time>2022-04-06T11:10:46.870Z</time>
      </trkpt>
      <trkpt lat="42.254" lon="22.74541">
        <ele>591.500425</ele>
        <time>2022-04-06T11:10:48.863Z</time>
      </trkpt>
      <trkpt lat="42.25395" lon="22.7452">
        <ele>591.567435</ele>
        <time>2022-04-06T11:10:50.863Z</time>
      </trkpt>
      <trkpt lat="42.25397" lon="22.74501">
        <ele>591.62699</ele>
        <time>2022-04-06T11:10:52.909Z</time>
      </trkpt>
      <trkpt lat="42.25406" lon="22.74488">
        <ele>591.681676</ele>
        <time>2022-04-06T11:10:54.870Z</time>
      </trkpt>
      <trkpt lat="42.25415" lon="22.7448">
        <ele>591.726138</ele>
        <time>2022-04-06T11:10:56.870Z</time>
      </trkpt>
      <trkpt lat="42.25423" lon="22.74469">
        <ele>591.770864</ele>
        <time>2022-04-06T11:10:59.871Z</time>
      </trkpt>
      <trkpt lat="42.2543" lon="22.7446">
        <ele>591.812803</ele>
        <time>2022-04-06T11:11:03.876Z</time>
      </trkpt>
      <trkpt lat="42.25439" lon="22.74449">
        <ele>591.861153</ele>
        <time>2022-04-06T11:11:07.877Z</time>
      </trkpt>
      <trkpt lat="42.25448" lon="22.74441">
        <ele>591.906087</ele>
        <time>2022-04-06T11:11:10.867Z</time>
      </trkpt>
      <trkpt lat="42.25457" lon="22.74433">
        <ele>591.952071</ele>
        <time>2022-04-06T11:11:13.877Z</time>
      </trkpt>
      <trkpt lat="42.25468" lon="22.74423">
        <ele>592.003151</ele>
        <time>2022-04-06T11:11:16.864Z</time>
      </trkpt>
      <trkpt lat="42.25478" lon="22.74414">
        <ele>592.116667</ele>
        <time>2022-04-06T11:11:19.868Z</time>
      </trkpt>
      <trkpt lat="42.25489" lon="22.74405">
        <ele>592.275465</ele>
        <time>2022-04-06T11:11:22.867Z</time>
      </trkpt>
      <trkpt lat="42.255" lon="22.74395">
        <ele>592.437423</ele>
        <time>2022-04-06T11:11:25.863Z</time>
      </trkpt>
      <trkpt lat="42.25508" lon="22.74388">
        <ele>592.55295</ele>
        <time>2022-04-06T11:11:27.878Z</time>
      </trkpt>
      <trkpt lat="42.25519" lon="22.74378">
        <ele>592.716317</ele>
        <time>2022-04-06T11:11:30.864Z</time>
      </trkpt>
      <trkpt lat="42.25529" lon="22.74369">
        <ele>592.869547</ele>
        <time>2022-04-06T11:11:33.862Z</time>
      </trkpt>
      <trkpt lat="42.25537" lon="22.74361">
        <ele>592.988862</ele>
        <time>2022-04-06T11:11:35.863Z</time>
      </trkpt>
      <trkpt lat="42.25545" lon="22.74353">
        <ele>593.111573</ele>
        <time>2022-04-06T11:11:37.862Z</time>
      </trkpt>
      <trkpt lat="42.25552" lon="22.74345">
        <ele>593.229132</ele>
        <time>2022-04-06T11:11:39.870Z</time>
      </trkpt>
      <trkpt lat="42.25562" lon="22.74335">
        <ele>593.373772</ele>
        <time>2022-04-06T11:11:42.874Z</time>
      </trkpt>
      <trkpt lat="42.25573" lon="22.74328">
        <ele>593.530582</ele>
        <time>2022-04-06T11:11:45.864Z</time>
      </trkpt>
      <trkpt lat="42.25582" lon="22.74327">
        <ele>593.641584</ele>
        <time>2022-04-06T11:11:47.879Z</time>
      </trkpt>
      <trkpt lat="42.25595" lon="22.74331">
        <ele>593.80416</ele>
        <time>2022-04-06T11:11:50.872Z</time>
      </trkpt>
      <trkpt lat="42.25604" lon="22.74336">
        <ele>593.918035</ele>
        <time>2022-04-06T11:11:52.891Z</time>
      </trkpt>
      <trkpt lat="42.25612" lon="22.74342">
        <ele>594.03341</ele>
        <time>2022-04-06T11:11:54.862Z</time>
      </trkpt>
      <trkpt lat="42.25621" lon="22.74347">
        <ele>594.144294</ele>
        <time>2022-04-06T11:11:56.917Z</time>
      </trkpt>
      <trkpt lat="42.25632" lon="22.74353">
        <ele>594.323491</ele>
        <time>2022-04-06T11:11:59.863Z</time>
      </trkpt>
      <trkpt lat="42.25645" lon="22.7436">
        <ele>594.539982</ele>
        <time>2022-04-06T11:12:02.866Z</time>
      </trkpt>
      <trkpt lat="42.25653" lon="22.74365">
        <ele>594.699239</ele>
        <time>2022-04-06T11:12:04.898Z</time>
      </trkpt>
      <trkpt lat="42.25662" lon="22.74369">
        <ele>594.849862</ele>
        <time>2022-04-06T11:12:06.863Z</time>
      </trkpt>
      <trkpt lat="42.25673" lon="22.74375">
        <ele>595.050778</ele>
        <time>2022-04-06T11:12:09.866Z</time>
      </trkpt>
      <trkpt lat="42.25684" lon="22.74381">
        <ele>595.237615</ele>
        <time>2022-04-06T11:12:12.863Z</time>
      </trkpt>
      <trkpt lat="42.25692" lon="22.74388">
        <ele>595.39965</ele>
        <time>2022-04-06T11:12:15.871Z</time>
      </trkpt>
      <trkpt lat="42.25702" lon="22.74394">
        <ele>595.580902</ele>
        <time>2022-04-06T11:12:18.865Z</time>
      </trkpt>
      <trkpt lat="42.25714" lon="22.74401">
        <ele>595.788687</ele>
        <time>2022-04-06T11:12:21.873Z</time>
      </trkpt>
      <trkpt lat="42.25726" lon="22.74407">
        <ele>595.999472</ele>
        <time>2022-04-06T11:12:24.867Z</time>
      </trkpt>
      <trkpt lat="42.25738" lon="22.74413">
        <ele>596.20563</ele>
        <time>2022-04-06T11:12:27.867Z</time>
      </trkpt>
      <trkpt lat="42.2575" lon="22.74418">
        <ele>596.416331</ele>
        <time>2022-04-06T11:12:30.865Z</time>
      </trkpt>
      <trkpt lat="42.2576" lon="22.74419">
        <ele>596.588007</ele>
        <time>2022-04-06T11:12:34.859Z</time>
      </trkpt>
      <trkpt lat="42.25771" lon="22.74417">
        <ele>596.763048</ele>
        <time>2022-04-06T11:12:40.924Z</time>
      </trkpt>
      <trkpt lat="42.25779" lon="22.74412">
        <ele>596.912261</ele>
        <time>2022-04-06T11:12:45.862Z</time>
      </trkpt>
      <trkpt lat="42.25787" lon="22.74406">
        <ele>597.063853</ele>
        <time>2022-04-06T11:12:50.864Z</time>
      </trkpt>
      <trkpt lat="42.25796" lon="22.744">
        <ele>597.255163</ele>
        <time>2022-04-06T11:12:56.868Z</time>
      </trkpt>
      <trkpt lat="42.25805" lon="22.74393">
        <ele>597.494</ele>
        <time>2022-04-06T11:13:01.873Z</time>
      </trkpt>
      <trkpt lat="42.25814" lon="22.74385">
        <ele>597.741685</ele>
        <time>2022-04-06T11:13:06.869Z</time>
      </trkpt>
      <trkpt lat="42.2582" lon="22.74375">
        <ele>597.96742</ele>
        <time>2022-04-06T11:13:10.865Z</time>
      </trkpt>
      <trkpt lat="42.25827" lon="22.74363">
        <ele>598.211746</ele>
        <time>2022-04-06T11:13:14.886Z</time>
      </trkpt>
      <trkpt lat="42.25833" lon="22.74353">
        <ele>598.4516</ele>
        <time>2022-04-06T11:13:18.867Z</time>
      </trkpt>
      <trkpt lat="42.2584" lon="22.74342">
        <ele>598.701703</ele>
        <time>2022-04-06T11:13:22.862Z</time>
      </trkpt>
      <trkpt lat="42.25847" lon="22.74331">
        <ele>598.931171</ele>
        <time>2022-04-06T11:13:26.868Z</time>
      </trkpt>
      <trkpt lat="42.25854" lon="22.7432">
        <ele>599.185931</ele>
        <time>2022-04-06T11:13:31.888Z</time>
      </trkpt>
      <trkpt lat="42.25859" lon="22.74308">
        <ele>599.431248</ele>
        <time>2022-04-06T11:13:35.875Z</time>
      </trkpt>
      <trkpt lat="42.25867" lon="22.74297">
        <ele>599.687536</ele>
        <time>2022-04-06T11:13:39.876Z</time>
      </trkpt>
      <trkpt lat="42.25874" lon="22.74287">
        <ele>599.916983</ele>
        <time>2022-04-06T11:13:43.883Z</time>
      </trkpt>
      <trkpt lat="42.2588" lon="22.74277">
        <ele>600.151904</ele>
        <time>2022-04-06T11:13:46.863Z</time>
      </trkpt>
      <trkpt lat="42.25886" lon="22.74266">
        <ele>600.386825</ele>
        <time>2022-04-06T11:13:49.865Z</time>
      </trkpt>
      <trkpt lat="42.25894" lon="22.74255">
        <ele>600.654125</ele>
        <time>2022-04-06T11:13:53.869Z</time>
      </trkpt>
      <trkpt lat="42.25902" lon="22.74246">
        <ele>600.882368</ele>
        <time>2022-04-06T11:13:56.864Z</time>
      </trkpt>
      <trkpt lat="42.25912" lon="22.74238">
        <ele>601.144075</ele>
        <time>2022-04-06T11:14:00.869Z</time>
      </trkpt>
      <trkpt lat="42.2592" lon="22.74232">
        <ele>601.35555</ele>
        <time>2022-04-06T11:14:03.865Z</time>
      </trkpt>
      <trkpt lat="42.2593" lon="22.74226">
        <ele>600.983417</ele>
        <time>2022-04-06T11:14:07.878Z</time>
      </trkpt>
      <trkpt lat="42.2594" lon="22.74221">
        <ele>600.60459</ele>
        <time>2022-04-06T11:14:11.871Z</time>
      </trkpt>
      <trkpt lat="42.25949" lon="22.74215">
        <ele>600.240497</ele>
        <time>2022-04-06T11:14:15.859Z</time>
      </trkpt>
      <trkpt lat="42.25958" lon="22.74209">
        <ele>599.866529</ele>
        <time>2022-04-06T11:14:19.894Z</time>
      </trkpt>
      <trkpt lat="42.25968" lon="22.74201">
        <ele>599.485058</ele>
        <time>2022-04-06T11:14:23.871Z</time>
      </trkpt>
      <trkpt lat="42.25978" lon="22.74194">
        <ele>599.063094</ele>
        <time>2022-04-06T11:14:27.867Z</time>
      </trkpt>
      <trkpt lat="42.25987" lon="22.74188">
        <ele>598.721855</ele>
        <time>2022-04-06T11:14:30.863Z</time>
      </trkpt>
      <trkpt lat="42.25994" lon="22.74178">
        <ele>598.35532</ele>
        <time>2022-04-06T11:14:34.868Z</time>
      </trkpt>
      <trkpt lat="42.25999" lon="22.74168">
        <ele>598.027583</ele>
        <time>2022-04-06T11:14:37.862Z</time>
      </trkpt>
      <trkpt lat="42.26007" lon="22.74155">
        <ele>597.60257</ele>
        <time>2022-04-06T11:14:41.900Z</time>
      </trkpt>
      <trkpt lat="42.26014" lon="22.74144">
        <ele>597.219117</ele>
        <time>2022-04-06T11:14:44.868Z</time>
      </trkpt>
      <trkpt lat="42.26021" lon="22.74132">
        <ele>596.817358</ele>
        <time>2022-04-06T11:14:47.862Z</time>
      </trkpt>
      <trkpt lat="42.26026" lon="22.74123">
        <ele>596.491505</ele>
        <time>2022-04-06T11:14:49.875Z</time>
      </trkpt>
      <trkpt lat="42.26032" lon="22.74112">
        <ele>596.167833</ele>
        <time>2022-04-06T11:14:51.867Z</time>
      </trkpt>
      <trkpt lat="42.26037" lon="22.74102">
        <ele>595.84228</ele>
        <time>2022-04-06T11:14:53.861Z</time>
      </trkpt>
      <trkpt lat="42.26043" lon="22.74091">
        <ele>595.47875</ele>
        <time>2022-04-06T11:14:55.863Z</time>
      </trkpt>
      <trkpt lat="42.26049" lon="22.74079">
        <ele>595.093044</ele>
        <time>2022-04-06T11:14:57.874Z</time>
      </trkpt>
      <trkpt lat="42.26056" lon="22.74065">
        <ele>594.516403</ele>
        <time>2022-04-06T11:15:00.858Z</time>
      </trkpt>
      <trkpt lat="42.26063" lon="22.74051">
        <ele>593.849653</ele>
        <time>2022-04-06T11:15:03.860Z</time>
      </trkpt>
      <trkpt lat="42.26068" lon="22.74039">
        <ele>593.309057</ele>
        <time>2022-04-06T11:15:05.872Z</time>
      </trkpt>
      <trkpt lat="42.26072" lon="22.74024">
        <ele>592.698518</ele>
        <time>2022-04-06T11:15:07.872Z</time>
      </trkpt>
      <trkpt lat="42.26075" lon="22.74008">
        <ele>592.058468</ele>
        <time>2022-04-06T11:15:09.889Z</time>
      </trkpt>
      <trkpt lat="42.26077" lon="22.73993">
        <ele>591.456637</ele>
        <time>2022-04-06T11:15:11.871Z</time>
      </trkpt>
      <trkpt lat="42.26077" lon="22.73978">
        <ele>590.895261</ele>
        <time>2022-04-06T11:15:13.870Z</time>
      </trkpt>
      <trkpt lat="42.26077" lon="22.73963">
        <ele>590.306433</ele>
        <time>2022-04-06T11:15:15.866Z</time>
      </trkpt>
      <trkpt lat="42.26078" lon="22.73946">
        <ele>589.633025</ele>
        <time>2022-04-06T11:15:17.870Z</time>
      </trkpt>
      <trkpt lat="42.26078" lon="22.73928">
        <ele>588.940208</ele>
        <time>2022-04-06T11:15:19.867Z</time>
      </trkpt>
      <trkpt lat="42.26079" lon="22.73909">
        <ele>588.214623</ele>
        <time>2022-04-06T11:15:21.860Z</time>
      </trkpt>
      <trkpt lat="42.26079" lon="22.7389">
        <ele>587.459891</ele>
        <time>2022-04-06T11:15:23.867Z</time>
      </trkpt>
      <trkpt lat="42.26078" lon="22.73869">
        <ele>586.677286</ele>
        <time>2022-04-06T11:15:25.873Z</time>
      </trkpt>
      <trkpt lat="42.26078" lon="22.73848">
        <ele>585.860639</ele>
        <time>2022-04-06T11:15:27.875Z</time>
      </trkpt>
      <trkpt lat="42.26078" lon="22.73826">
        <ele>585.204269</ele>
        <time>2022-04-06T11:15:29.874Z</time>
      </trkpt>
      <trkpt lat="42.26079" lon="22.73803">
        <ele>584.619315</ele>
        <time>2022-04-06T11:15:31.872Z</time>
      </trkpt>
      <trkpt lat="42.2608" lon="22.7378">
        <ele>584.047461</ele>
        <time>2022-04-06T11:15:33.876Z</time>
      </trkpt>
      <trkpt lat="42.26084" lon="22.73759">
        <ele>583.499941</ele>
        <time>2022-04-06T11:15:35.865Z</time>
      </trkpt>
      <trkpt lat="42.26087" lon="22.73738">
        <ele>582.952102</ele>
        <time>2022-04-06T11:15:37.867Z</time>
      </trkpt>
      <trkpt lat="42.26091" lon="22.73717">
        <ele>582.425278</ele>
        <time>2022-04-06T11:15:39.860Z</time>
      </trkpt>
      <trkpt lat="42.26097" lon="22.73699">
        <ele>581.920639</ele>
        <time>2022-04-06T11:15:41.866Z</time>
      </trkpt>
      <trkpt lat="42.26104" lon="22.7368">
        <ele>581.401804</ele>
        <time>2022-04-06T11:15:43.875Z</time>
      </trkpt>
      <trkpt lat="42.26112" lon="22.73662">
        <ele>580.884751</ele>
        <time>2022-04-06T11:15:45.867Z</time>
      </trkpt>
      <trkpt lat="42.26119" lon="22.73646">
        <ele>580.407797</ele>
        <time>2022-04-06T11:15:47.860Z</time>
      </trkpt>
      <trkpt lat="42.26125" lon="22.7363">
        <ele>579.945092</ele>
        <time>2022-04-06T11:15:49.860Z</time>
      </trkpt>
      <trkpt lat="42.26133" lon="22.73615">
        <ele>579.496729</ele>
        <time>2022-04-06T11:15:51.867Z</time>
      </trkpt>
      <trkpt lat="42.2614" lon="22.73599">
        <ele>579.303638</ele>
        <time>2022-04-06T11:15:53.861Z</time>
      </trkpt>
      <trkpt lat="42.26146" lon="22.73584">
        <ele>579.130342</ele>
        <time>2022-04-06T11:15:55.868Z</time>
      </trkpt>
      <trkpt lat="42.26153" lon="22.73569">
        <ele>578.963059</ele>
        <time>2022-04-06T11:15:57.865Z</time>
      </trkpt>
      <trkpt lat="42.2616" lon="22.73556">
        <ele>578.801299</ele>
        <time>2022-04-06T11:15:59.859Z</time>
      </trkpt>
      <trkpt lat="42.26167" lon="22.73543">
        <ele>578.648287</ele>
        <time>2022-04-06T11:16:01.866Z</time>
      </trkpt>
      <trkpt lat="42.26173" lon="22.7353">
        <ele>578.50314</ele>
        <time>2022-04-06T11:16:03.893Z</time>
      </trkpt>
      <trkpt lat="42.26179" lon="22.73518">
        <ele>578.362483</ele>
        <time>2022-04-06T11:16:05.875Z</time>
      </trkpt>
      <trkpt lat="42.26184" lon="22.73507">
        <ele>578.228168</ele>
        <time>2022-04-06T11:16:07.873Z</time>
      </trkpt>
      <trkpt lat="42.2619" lon="22.73496">
        <ele>578.09876</ele>
        <time>2022-04-06T11:16:09.859Z</time>
      </trkpt>
      <trkpt lat="42.26196" lon="22.73486">
        <ele>577.968555</ele>
        <time>2022-04-06T11:16:11.873Z</time>
      </trkpt>
      <trkpt lat="42.26202" lon="22.73476">
        <ele>577.849291</ele>
        <time>2022-04-06T11:16:13.866Z</time>
      </trkpt>
      <trkpt lat="42.26211" lon="22.73463">
        <ele>577.675952</ele>
        <time>2022-04-06T11:16:16.866Z</time>
      </trkpt>
      <trkpt lat="42.26219" lon="22.7345">
        <ele>577.513848</ele>
        <time>2022-04-06T11:16:19.863Z</time>
      </trkpt>
      <trkpt lat="42.26228" lon="22.73438">
        <ele>577.341844</ele>
        <time>2022-04-06T11:16:22.858Z</time>
      </trkpt>
      <trkpt lat="42.26237" lon="22.73426">
        <ele>577.17421</ele>
        <time>2022-04-06T11:16:25.886Z</time>
      </trkpt>
      <trkpt lat="42.26246" lon="22.73414">
        <ele>577.018592</ele>
        <time>2022-04-06T11:16:28.860Z</time>
      </trkpt>
      <trkpt lat="42.26256" lon="22.73404">
        <ele>576.86777</ele>
        <time>2022-04-06T11:16:31.892Z</time>
      </trkpt>
      <trkpt lat="42.26266" lon="22.73394">
        <ele>576.722803</ele>
        <time>2022-04-06T11:16:34.870Z</time>
      </trkpt>
      <trkpt lat="42.26273" lon="22.73383">
        <ele>576.59096</ele>
        <time>2022-04-06T11:16:37.885Z</time>
      </trkpt>
      <trkpt lat="42.26281" lon="22.73374">
        <ele>576.461375</ele>
        <time>2022-04-06T11:16:40.867Z</time>
      </trkpt>
      <trkpt lat="42.26289" lon="22.73364">
        <ele>576.333501</ele>
        <time>2022-04-06T11:16:43.893Z</time>
      </trkpt>
      <trkpt lat="42.26297" lon="22.73353">
        <ele>576.197626</ele>
        <time>2022-04-06T11:16:46.867Z</time>
      </trkpt>
      <trkpt lat="42.26306" lon="22.73342">
        <ele>576.048981</ele>
        <time>2022-04-06T11:16:49.876Z</time>
      </trkpt>
      <trkpt lat="42.26315" lon="22.7333">
        <ele>575.895866</ele>
        <time>2022-04-06T11:16:52.865Z</time>
      </trkpt>
      <trkpt lat="42.26324" lon="22.73317">
        <ele>575.741349</ele>
        <time>2022-04-06T11:16:55.869Z</time>
      </trkpt>
      <trkpt lat="42.26333" lon="22.73306">
        <ele>575.593063</ele>
        <time>2022-04-06T11:16:58.879Z</time>
      </trkpt>
      <trkpt lat="42.26342" lon="22.73296">
        <ele>575.455524</ele>
        <time>2022-04-06T11:17:01.885Z</time>
      </trkpt>
      <trkpt lat="42.2635" lon="22.73285">
        <ele>575.310544</ele>
        <time>2022-04-06T11:17:04.882Z</time>
      </trkpt>
      <trkpt lat="42.26359" lon="22.73272">
        <ele>575.156106</ele>
        <time>2022-04-06T11:17:07.886Z</time>
      </trkpt>
      <trkpt lat="42.26367" lon="22.73261">
        <ele>575.01303</ele>
        <time>2022-04-06T11:17:10.884Z</time>
      </trkpt>
      <trkpt lat="42.26376" lon="22.7325">
        <ele>574.992183</ele>
        <time>2022-04-06T11:17:13.902Z</time>
      </trkpt>
      <trkpt lat="42.26384" lon="22.7324">
        <ele>575.119033</ele>
        <time>2022-04-06T11:17:16.892Z</time>
      </trkpt>
      <trkpt lat="42.26391" lon="22.7323">
        <ele>575.233103</ele>
        <time>2022-04-06T11:17:19.895Z</time>
      </trkpt>
      <trkpt lat="42.26399" lon="22.7322">
        <ele>575.348992</ele>
        <time>2022-04-06T11:17:22.891Z</time>
      </trkpt>
      <trkpt lat="42.26406" lon="22.73211">
        <ele>575.452569</ele>
        <time>2022-04-06T11:17:25.893Z</time>
      </trkpt>
      <trkpt lat="42.26411" lon="22.73202">
        <ele>575.553539</ele>
        <time>2022-04-06T11:17:28.889Z</time>
      </trkpt>
      <trkpt lat="42.26417" lon="22.73192">
        <ele>575.653137</ele>
        <time>2022-04-06T11:17:31.907Z</time>
      </trkpt>
      <trkpt lat="42.26424" lon="22.73179">
        <ele>575.785692</ele>
        <time>2022-04-06T11:17:35.877Z</time>
      </trkpt>
      <trkpt lat="42.26429" lon="22.73168">
        <ele>575.890638</ele>
        <time>2022-04-06T11:17:38.941Z</time>
      </trkpt>
      <trkpt lat="42.26435" lon="22.73157">
        <ele>576.00039</ele>
        <time>2022-04-06T11:17:41.890Z</time>
      </trkpt>
      <trkpt lat="42.2644" lon="22.73145">
        <ele>576.112927</ele>
        <time>2022-04-06T11:17:44.911Z</time>
      </trkpt>
      <trkpt lat="42.26445" lon="22.73133">
        <ele>576.230025</ele>
        <time>2022-04-06T11:17:47.873Z</time>
      </trkpt>
      <trkpt lat="42.26449" lon="22.73119">
        <ele>576.35104</ele>
        <time>2022-04-06T11:17:50.944Z</time>
      </trkpt>
      <trkpt lat="42.26454" lon="22.73105">
        <ele>576.474209</ele>
        <time>2022-04-06T11:17:53.875Z</time>
      </trkpt>
      <trkpt lat="42.26458" lon="22.73091">
        <ele>576.601373</ele>
        <time>2022-04-06T11:17:56.897Z</time>
      </trkpt>
      <trkpt lat="42.26462" lon="22.73077">
        <ele>576.727947</ele>
        <time>2022-04-06T11:17:59.875Z</time>
      </trkpt>
      <trkpt lat="42.26466" lon="22.73063">
        <ele>576.852593</ele>
        <time>2022-04-06T11:18:02.867Z</time>
      </trkpt>
      <trkpt lat="42.2647" lon="22.73049">
        <ele>576.938104</ele>
        <time>2022-04-06T11:18:05.874Z</time>
      </trkpt>
      <trkpt lat="42.26474" lon="22.73035">
        <ele>576.967792</ele>
        <time>2022-04-06T11:18:08.870Z</time>
      </trkpt>
      <trkpt lat="42.26478" lon="22.7302">
        <ele>576.998126</ele>
        <time>2022-04-06T11:18:11.861Z</time>
      </trkpt>
      <trkpt lat="42.26482" lon="22.73006">
        <ele>577.026285</ele>
        <time>2022-04-06T11:18:14.869Z</time>
      </trkpt>
      <trkpt lat="42.26486" lon="22.72993">
        <ele>577.054028</ele>
        <time>2022-04-06T11:18:17.868Z</time>
      </trkpt>
      <trkpt lat="42.2649" lon="22.72979">
        <ele>577.082819</ele>
        <time>2022-04-06T11:18:20.879Z</time>
      </trkpt>
      <trkpt lat="42.26494" lon="22.72965">
        <ele>577.111623</ele>
        <time>2022-04-06T11:18:23.860Z</time>
      </trkpt>
      <trkpt lat="42.26498" lon="22.72949">
        <ele>577.142754</ele>
        <time>2022-04-06T11:18:26.865Z</time>
      </trkpt>
      <trkpt lat="42.26502" lon="22.72935">
        <ele>577.17299</ele>
        <time>2022-04-06T11:18:29.865Z</time>
      </trkpt>
      <trkpt lat="42.26506" lon="22.7292">
        <ele>577.202415</ele>
        <time>2022-04-06T11:18:32.869Z</time>
      </trkpt>
      <trkpt lat="42.26509" lon="22.72906">
        <ele>577.231926</ele>
        <time>2022-04-06T11:18:35.871Z</time>
      </trkpt>
      <trkpt lat="42.26513" lon="22.72893">
        <ele>577.258376</ele>
        <time>2022-04-06T11:18:38.877Z</time>
      </trkpt>
      <trkpt lat="42.26516" lon="22.7288">
        <ele>577.284032</ele>
        <time>2022-04-06T11:18:41.863Z</time>
      </trkpt>
      <trkpt lat="42.26519" lon="22.72868">
        <ele>577.309061</ele>
        <time>2022-04-06T11:18:44.867Z</time>
      </trkpt>
      <trkpt lat="42.26523" lon="22.72854">
        <ele>577.33614</ele>
        <time>2022-04-06T11:18:47.859Z</time>
      </trkpt>
      <trkpt lat="42.26527" lon="22.72841">
        <ele>577.363671</ele>
        <time>2022-04-06T11:18:50.868Z</time>
      </trkpt>
      <trkpt lat="42.2653" lon="22.72828">
        <ele>577.39102</ele>
        <time>2022-04-06T11:18:53.877Z</time>
      </trkpt>
      <trkpt lat="42.26534" lon="22.72814">
        <ele>577.437169</ele>
        <time>2022-04-06T11:18:56.864Z</time>
      </trkpt>
      <trkpt lat="42.26538" lon="22.728">
        <ele>577.48762</ele>
        <time>2022-04-06T11:18:59.869Z</time>
      </trkpt>
      <trkpt lat="42.26543" lon="22.72785">
        <ele>577.540247</ele>
        <time>2022-04-06T11:19:02.877Z</time>
      </trkpt>
      <trkpt lat="42.26547" lon="22.72771">
        <ele>577.591156</ele>
        <time>2022-04-06T11:19:05.865Z</time>
      </trkpt>
      <trkpt lat="42.2655" lon="22.72756">
        <ele>577.643176</ele>
        <time>2022-04-06T11:19:08.859Z</time>
      </trkpt>
      <trkpt lat="42.26554" lon="22.7274">
        <ele>577.696885</ele>
        <time>2022-04-06T11:19:11.866Z</time>
      </trkpt>
      <trkpt lat="42.26558" lon="22.72725">
        <ele>577.748905</ele>
        <time>2022-04-06T11:19:14.873Z</time>
      </trkpt>
      <trkpt lat="42.26562" lon="22.72711">
        <ele>577.800434</ele>
        <time>2022-04-06T11:19:17.869Z</time>
      </trkpt>
      <trkpt lat="42.26566" lon="22.72696">
        <ele>577.851861</ele>
        <time>2022-04-06T11:19:20.860Z</time>
      </trkpt>
      <trkpt lat="42.26569" lon="22.72681">
        <ele>577.905452</ele>
        <time>2022-04-06T11:19:23.874Z</time>
      </trkpt>
      <trkpt lat="42.26573" lon="22.72665">
        <ele>577.959785</ele>
        <time>2022-04-06T11:19:26.881Z</time>
      </trkpt>
      <trkpt lat="42.26577" lon="22.7265">
        <ele>578.012409</ele>
        <time>2022-04-06T11:19:29.863Z</time>
      </trkpt>
      <trkpt lat="42.26581" lon="22.72636">
        <ele>578.06286</ele>
        <time>2022-04-06T11:19:32.865Z</time>
      </trkpt>
      <trkpt lat="42.26585" lon="22.72622">
        <ele>578.111299</ele>
        <time>2022-04-06T11:19:35.866Z</time>
      </trkpt>
      <trkpt lat="42.26589" lon="22.72609">
        <ele>578.157898</ele>
        <time>2022-04-06T11:19:38.874Z</time>
      </trkpt>
      <trkpt lat="42.26593" lon="22.72598">
        <ele>578.199139</ele>
        <time>2022-04-06T11:19:41.872Z</time>
      </trkpt>
      <trkpt lat="42.26596" lon="22.72586">
        <ele>578.396537</ele>
        <time>2022-04-06T11:19:44.859Z</time>
      </trkpt>
      <trkpt lat="42.266" lon="22.72572">
        <ele>578.629447</ele>
        <time>2022-04-06T11:19:48.885Z</time>
      </trkpt>
      <trkpt lat="42.26604" lon="22.72557">
        <ele>578.86806</ele>
        <time>2022-04-06T11:19:52.867Z</time>
      </trkpt>
      <trkpt lat="42.26607" lon="22.72546">
        <ele>579.057535</ele>
        <time>2022-04-06T11:19:55.870Z</time>
      </trkpt>
      <trkpt lat="42.2661" lon="22.72532">
        <ele>579.280346</ele>
        <time>2022-04-06T11:19:58.861Z</time>
      </trkpt>
      <trkpt lat="42.26614" lon="22.7252">
        <ele>579.485266</ele>
        <time>2022-04-06T11:20:01.871Z</time>
      </trkpt>
      <trkpt lat="42.26617" lon="22.72508">
        <ele>579.683399</ele>
        <time>2022-04-06T11:20:04.860Z</time>
      </trkpt>
      <trkpt lat="42.2662" lon="22.72496">
        <ele>579.879383</ele>
        <time>2022-04-06T11:20:07.862Z</time>
      </trkpt>
      <trkpt lat="42.26624" lon="22.72484">
        <ele>580.076781</ele>
        <time>2022-04-06T11:20:10.868Z</time>
      </trkpt>
      <trkpt lat="42.26627" lon="22.72472">
        <ele>580.270139</ele>
        <time>2022-04-06T11:20:13.873Z</time>
      </trkpt>
      <trkpt lat="42.26631" lon="22.7246">
        <ele>580.47487</ele>
        <time>2022-04-06T11:20:16.869Z</time>
      </trkpt>
      <trkpt lat="42.26634" lon="22.72448">
        <ele>580.67231</ele>
        <time>2022-04-06T11:20:19.874Z</time>
      </trkpt>
      <trkpt lat="42.26637" lon="22.72435">
        <ele>580.872215</ele>
        <time>2022-04-06T11:20:22.862Z</time>
      </trkpt>
      <trkpt lat="42.2664" lon="22.72422">
        <ele>581.080986</ele>
        <time>2022-04-06T11:20:25.874Z</time>
      </trkpt>
      <trkpt lat="42.26643" lon="22.7241">
        <ele>581.281308</ele>
        <time>2022-04-06T11:20:28.865Z</time>
      </trkpt>
      <trkpt lat="42.26647" lon="22.72396">
        <ele>581.518476</ele>
        <time>2022-04-06T11:20:32.866Z</time>
      </trkpt>
      <trkpt lat="42.26651" lon="22.72384">
        <ele>581.713066</ele>
        <time>2022-04-06T11:20:35.879Z</time>
      </trkpt>
      <trkpt lat="42.26655" lon="22.72372">
        <ele>581.921438</ele>
        <time>2022-04-06T11:20:38.868Z</time>
      </trkpt>
      <trkpt lat="42.26658" lon="22.72359">
        <ele>582.146377</ele>
        <time>2022-04-06T11:20:41.869Z</time>
      </trkpt>
      <trkpt lat="42.26662" lon="22.72346">
        <ele>582.381072</ele>
        <time>2022-04-06T11:20:44.866Z</time>
      </trkpt>
      <trkpt lat="42.26666" lon="22.72334">
        <ele>582.6125</ele>
        <time>2022-04-06T11:20:47.869Z</time>
      </trkpt>
      <trkpt lat="42.26669" lon="22.72322">
        <ele>582.828376</ele>
        <time>2022-04-06T11:20:50.863Z</time>
      </trkpt>
      <trkpt lat="42.26673" lon="22.72311">
        <ele>583.036945</ele>
        <time>2022-04-06T11:20:53.869Z</time>
      </trkpt>
      <trkpt lat="42.26679" lon="22.72297">
        <ele>583.31185</ele>
        <time>2022-04-06T11:20:57.868Z</time>
      </trkpt>
      <trkpt lat="42.26684" lon="22.72285">
        <ele>583.536195</ele>
        <time>2022-04-06T11:21:00.887Z</time>
      </trkpt>
      <trkpt lat="42.26689" lon="22.72274">
        <ele>583.772071</ele>
        <time>2022-04-06T11:21:03.875Z</time>
      </trkpt>
      <trkpt lat="42.26695" lon="22.72262">
        <ele>584.008744</ele>
        <time>2022-04-06T11:21:06.864Z</time>
      </trkpt>
      <trkpt lat="42.26701" lon="22.72252">
        <ele>584.224887</ele>
        <time>2022-04-06T11:21:09.869Z</time>
      </trkpt>
      <trkpt lat="42.26707" lon="22.72238">
        <ele>584.498162</ele>
        <time>2022-04-06T11:21:13.877Z</time>
      </trkpt>
      <trkpt lat="42.26714" lon="22.72226">
        <ele>584.762334</ele>
        <time>2022-04-06T11:21:17.874Z</time>
      </trkpt>
      <trkpt lat="42.2672" lon="22.72213">
        <ele>585.019536</ele>
        <time>2022-04-06T11:21:21.874Z</time>
      </trkpt>
      <trkpt lat="42.26726" lon="22.722">
        <ele>585.278815</ele>
        <time>2022-04-06T11:21:25.869Z</time>
      </trkpt>
      <trkpt lat="42.26732" lon="22.72187">
        <ele>585.547538</ele>
        <time>2022-04-06T11:21:29.877Z</time>
      </trkpt>
      <trkpt lat="42.26738" lon="22.72176">
        <ele>585.775991</ele>
        <time>2022-04-06T11:21:32.866Z</time>
      </trkpt>
      <trkpt lat="42.26744" lon="22.72166">
        <ele>585.993543</ele>
        <time>2022-04-06T11:21:35.872Z</time>
      </trkpt>
      <trkpt lat="42.26751" lon="22.72153">
        <ele>586.000587</ele>
        <time>2022-04-06T11:21:39.898Z</time>
      </trkpt>
      <trkpt lat="42.26757" lon="22.72142">
        <ele>585.899701</ele>
        <time>2022-04-06T11:21:42.868Z</time>
      </trkpt>
      <trkpt lat="42.26763" lon="22.72131">
        <ele>585.797653</ele>
        <time>2022-04-06T11:21:45.890Z</time>
      </trkpt>
      <trkpt lat="42.26769" lon="22.7212">
        <ele>585.698573</ele>
        <time>2022-04-06T11:21:48.859Z</time>
      </trkpt>
      <trkpt lat="42.26775" lon="22.72109">
        <ele>585.60303</ele>
        <time>2022-04-06T11:21:51.873Z</time>
      </trkpt>
      <trkpt lat="42.26781" lon="22.72098">
        <ele>585.496195</ele>
        <time>2022-04-06T11:21:54.866Z</time>
      </trkpt>
      <trkpt lat="42.26787" lon="22.72084">
        <ele>585.381343</ele>
        <time>2022-04-06T11:21:57.871Z</time>
      </trkpt>
      <trkpt lat="42.26791" lon="22.72072">
        <ele>585.277654</ele>
        <time>2022-04-06T11:22:00.863Z</time>
      </trkpt>
      <trkpt lat="42.26795" lon="22.7206">
        <ele>585.17985</ele>
        <time>2022-04-06T11:22:03.870Z</time>
      </trkpt>
      <trkpt lat="42.26799" lon="22.72048">
        <ele>585.085345</ele>
        <time>2022-04-06T11:22:06.862Z</time>
      </trkpt>
      <trkpt lat="42.26802" lon="22.72032">
        <ele>584.965163</ele>
        <time>2022-04-06T11:22:09.869Z</time>
      </trkpt>
      <trkpt lat="42.26805" lon="22.7202">
        <ele>584.869603</ele>
        <time>2022-04-06T11:22:11.878Z</time>
      </trkpt>
      <trkpt lat="42.26807" lon="22.72007">
        <ele>584.772617</ele>
        <time>2022-04-06T11:22:13.878Z</time>
      </trkpt>
      <trkpt lat="42.2681" lon="22.71993">
        <ele>584.668873</ele>
        <time>2022-04-06T11:22:15.870Z</time>
      </trkpt>
      <trkpt lat="42.26813" lon="22.71979">
        <ele>584.560131</ele>
        <time>2022-04-06T11:22:17.876Z</time>
      </trkpt>
      <trkpt lat="42.26816" lon="22.71964">
        <ele>584.446678</ele>
        <time>2022-04-06T11:22:19.866Z</time>
      </trkpt>
      <trkpt lat="42.26819" lon="22.71949">
        <ele>584.326505</ele>
        <time>2022-04-06T11:22:21.867Z</time>
      </trkpt>
      <trkpt lat="42.26822" lon="22.71932">
        <ele>584.019731</ele>
        <time>2022-04-06T11:22:23.860Z</time>
      </trkpt>
      <trkpt lat="42.26826" lon="22.71914">
        <ele>583.611918</ele>
        <time>2022-04-06T11:22:25.872Z</time>
      </trkpt>
      <trkpt lat="42.26832" lon="22.71896">
        <ele>583.171058</ele>
        <time>2022-04-06T11:22:27.859Z</time>
      </trkpt>
      <trkpt lat="42.26838" lon="22.71877">
        <ele>582.723715</ele>
        <time>2022-04-06T11:22:29.873Z</time>
      </trkpt>
      <trkpt lat="42.26845" lon="22.7186">
        <ele>582.290035</ele>
        <time>2022-04-06T11:22:31.901Z</time>
      </trkpt>
      <trkpt lat="42.26853" lon="22.71843">
        <ele>581.851797</ele>
        <time>2022-04-06T11:22:33.868Z</time>
      </trkpt>
      <trkpt lat="42.26861" lon="22.71827">
        <ele>581.418388</ele>
        <time>2022-04-06T11:22:35.870Z</time>
      </trkpt>
      <trkpt lat="42.26869" lon="22.71812">
        <ele>581.006901</ele>
        <time>2022-04-06T11:22:37.879Z</time>
      </trkpt>
      <trkpt lat="42.26878" lon="22.71798">
        <ele>580.600333</ele>
        <time>2022-04-06T11:22:39.879Z</time>
      </trkpt>
      <trkpt lat="42.26888" lon="22.71788">
        <ele>580.240399</ele>
        <time>2022-04-06T11:22:41.866Z</time>
      </trkpt>
      <trkpt lat="42.26895" lon="22.71779">
        <ele>579.955986</ele>
        <time>2022-04-06T11:22:43.863Z</time>
      </trkpt>
      <trkpt lat="42.26901" lon="22.7177">
        <ele>579.677974</ele>
        <time>2022-04-06T11:22:45.871Z</time>
      </trkpt>
      <trkpt lat="42.2691" lon="22.71757">
        <ele>579.285835</ele>
        <time>2022-04-06T11:22:48.863Z</time>
      </trkpt>
      <trkpt lat="42.26918" lon="22.71747">
        <ele>578.973795</ele>
        <time>2022-04-06T11:22:51.878Z</time>
      </trkpt>
      <trkpt lat="42.26926" lon="22.71737">
        <ele>579.068589</ele>
        <time>2022-04-06T11:22:54.875Z</time>
      </trkpt>
      <trkpt lat="42.26934" lon="22.71726">
        <ele>579.233196</ele>
        <time>2022-04-06T11:22:57.877Z</time>
      </trkpt>
      <trkpt lat="42.26941" lon="22.71715">
        <ele>579.393873</ele>
        <time>2022-04-06T11:23:00.860Z</time>
      </trkpt>
      <trkpt lat="42.26949" lon="22.71706">
        <ele>579.542669</ele>
        <time>2022-04-06T11:23:03.873Z</time>
      </trkpt>
      <trkpt lat="42.26956" lon="22.71694">
        <ele>579.705354</ele>
        <time>2022-04-06T11:23:06.860Z</time>
      </trkpt>
      <trkpt lat="42.26962" lon="22.71682">
        <ele>579.864589</ele>
        <time>2022-04-06T11:23:09.870Z</time>
      </trkpt>
      <trkpt lat="42.26969" lon="22.71669">
        <ele>580.034392</ele>
        <time>2022-04-06T11:23:12.860Z</time>
      </trkpt>
      <trkpt lat="42.26975" lon="22.71656">
        <ele>580.201584</ele>
        <time>2022-04-06T11:23:15.870Z</time>
      </trkpt>
      <trkpt lat="42.26979" lon="22.71643">
        <ele>580.356832</ele>
        <time>2022-04-06T11:23:18.870Z</time>
      </trkpt>
      <trkpt lat="42.26984" lon="22.71628">
        <ele>580.528914</ele>
        <time>2022-04-06T11:23:21.893Z</time>
      </trkpt>
      <trkpt lat="42.26988" lon="22.71613">
        <ele>580.704122</ele>
        <time>2022-04-06T11:23:24.875Z</time>
      </trkpt>
      <trkpt lat="42.26993" lon="22.71599">
        <ele>580.878522</ele>
        <time>2022-04-06T11:23:27.893Z</time>
      </trkpt>
      <trkpt lat="42.26997" lon="22.71583">
        <ele>581.051048</ele>
        <time>2022-04-06T11:23:30.875Z</time>
      </trkpt>
      <trkpt lat="42.27001" lon="22.71568">
        <ele>581.226576</ele>
        <time>2022-04-06T11:23:33.873Z</time>
      </trkpt>
      <trkpt lat="42.27005" lon="22.71553">
        <ele>581.401116</ele>
        <time>2022-04-06T11:23:36.857Z</time>
      </trkpt>
      <trkpt lat="42.27009" lon="22.71538">
        <ele>581.539385</ele>
        <time>2022-04-06T11:23:39.862Z</time>
      </trkpt>
      <trkpt lat="42.27015" lon="22.71524">
        <ele>581.422821</ele>
        <time>2022-04-06T11:23:42.859Z</time>
      </trkpt>
      <trkpt lat="42.2702" lon="22.71509">
        <ele>581.302569</ele>
        <time>2022-04-06T11:23:45.863Z</time>
      </trkpt>
      <trkpt lat="42.27025" lon="22.71494">
        <ele>581.18012</ele>
        <time>2022-04-06T11:23:48.860Z</time>
      </trkpt>
      <trkpt lat="42.27032" lon="22.71479">
        <ele>581.054304</ele>
        <time>2022-04-06T11:23:51.874Z</time>
      </trkpt>
      <trkpt lat="42.27039" lon="22.71466">
        <ele>580.934154</ele>
        <time>2022-04-06T11:23:54.860Z</time>
      </trkpt>
      <trkpt lat="42.27044" lon="22.71451">
        <ele>580.81016</ele>
        <time>2022-04-06T11:23:57.861Z</time>
      </trkpt>
      <trkpt lat="42.27052" lon="22.71438">
        <ele>580.687082</ele>
        <time>2022-04-06T11:24:00.870Z</time>
      </trkpt>
      <trkpt lat="42.2706" lon="22.71427">
        <ele>580.578893</ele>
        <time>2022-04-06T11:24:03.874Z</time>
      </trkpt>
      <trkpt lat="42.27067" lon="22.71418">
        <ele>580.476951</ele>
        <time>2022-04-06T11:24:06.895Z</time>
      </trkpt>
      <trkpt lat="42.27075" lon="22.71407">
        <ele>580.366421</ele>
        <time>2022-04-06T11:24:09.866Z</time>
      </trkpt>
      <trkpt lat="42.27083" lon="22.71398">
        <ele>580.262027</ele>
        <time>2022-04-06T11:24:12.872Z</time>
      </trkpt>
      <trkpt lat="42.27092" lon="22.7139">
        <ele>580.158675</ele>
        <time>2022-04-06T11:24:15.880Z</time>
      </trkpt>
      <trkpt lat="42.27101" lon="22.71381">
        <ele>580.044883</ele>
        <time>2022-04-06T11:24:18.864Z</time>
      </trkpt>
      <trkpt lat="42.27108" lon="22.71369">
        <ele>579.932045</ele>
        <time>2022-04-06T11:24:21.866Z</time>
      </trkpt>
      <trkpt lat="42.27114" lon="22.71359">
        <ele>579.832683</ele>
        <time>2022-04-06T11:24:24.858Z</time>
      </trkpt>
      <trkpt lat="42.27119" lon="22.71346">
        <ele>579.774978</ele>
        <time>2022-04-06T11:24:27.867Z</time>
      </trkpt>
      <trkpt lat="42.27125" lon="22.71332">
        <ele>579.796166</ele>
        <time>2022-04-06T11:24:30.867Z</time>
      </trkpt>
      <trkpt lat="42.27131" lon="22.71318">
        <ele>579.81786</ele>
        <time>2022-04-06T11:24:33.875Z</time>
      </trkpt>
      <trkpt lat="42.27137" lon="22.71303">
        <ele>579.84019</ele>
        <time>2022-04-06T11:24:36.863Z</time>
      </trkpt>
      <trkpt lat="42.27143" lon="22.71288">
        <ele>579.863948</ele>
        <time>2022-04-06T11:24:39.878Z</time>
      </trkpt>
      <trkpt lat="42.27149" lon="22.71272">
        <ele>579.887705</ele>
        <time>2022-04-06T11:24:42.873Z</time>
      </trkpt>
      <trkpt lat="42.27155" lon="22.71256">
        <ele>579.911271</ele>
        <time>2022-04-06T11:24:45.865Z</time>
      </trkpt>
      <trkpt lat="42.27161" lon="22.71242">
        <ele>579.933465</ele>
        <time>2022-04-06T11:24:48.873Z</time>
      </trkpt>
      <trkpt lat="42.27167" lon="22.71228">
        <ele>579.954749</ele>
        <time>2022-04-06T11:24:51.878Z</time>
      </trkpt>
      <trkpt lat="42.27174" lon="22.71216">
        <ele>579.975036</ele>
        <time>2022-04-06T11:24:54.866Z</time>
      </trkpt>
      <trkpt lat="42.27181" lon="22.71204">
        <ele>579.99533</ele>
        <time>2022-04-06T11:24:57.870Z</time>
      </trkpt>
      <trkpt lat="42.27189" lon="22.71194">
        <ele>580.016587</ele>
        <time>2022-04-06T11:25:00.897Z</time>
      </trkpt>
      <trkpt lat="42.27198" lon="22.71185">
        <ele>580.036367</ele>
        <time>2022-04-06T11:25:03.875Z</time>
      </trkpt>
      <trkpt lat="42.27207" lon="22.71176">
        <ele>580.056469</ele>
        <time>2022-04-06T11:25:06.862Z</time>
      </trkpt>
      <trkpt lat="42.27215" lon="22.71167">
        <ele>580.075322</ele>
        <time>2022-04-06T11:25:09.889Z</time>
      </trkpt>
      <trkpt lat="42.27222" lon="22.7116">
        <ele>580.091796</ele>
        <time>2022-04-06T11:25:12.866Z</time>
      </trkpt>
      <trkpt lat="42.2723" lon="22.71152">
        <ele>580.232477</ele>
        <time>2022-04-06T11:25:15.873Z</time>
      </trkpt>
      <trkpt lat="42.27238" lon="22.71146">
        <ele>580.379669</ele>
        <time>2022-04-06T11:25:18.858Z</time>
      </trkpt>
      <trkpt lat="42.27245" lon="22.71138">
        <ele>580.531582</ele>
        <time>2022-04-06T11:25:21.902Z</time>
      </trkpt>
      <trkpt lat="42.27257" lon="22.71134">
        <ele>580.720202</ele>
        <time>2022-04-06T11:25:25.867Z</time>
      </trkpt>
      <trkpt lat="42.27266" lon="22.71133">
        <ele>580.867339</ele>
        <time>2022-04-06T11:25:29.867Z</time>
      </trkpt>
      <trkpt lat="42.27275" lon="22.71134">
        <ele>581.021479</ele>
        <time>2022-04-06T11:25:35.868Z</time>
      </trkpt>
      <trkpt lat="42.27285" lon="22.71135">
        <ele>581.186412</ele>
        <time>2022-04-06T11:25:42.870Z</time>
      </trkpt>
      <trkpt lat="42.27296" lon="22.71136">
        <ele>581.353201</ele>
        <time>2022-04-06T11:25:49.874Z</time>
      </trkpt>
      <trkpt lat="42.27306" lon="22.71135">
        <ele>581.514845</ele>
        <time>2022-04-06T11:25:56.882Z</time>
      </trkpt>
      <trkpt lat="42.27315" lon="22.71134">
        <ele>581.662562</ele>
        <time>2022-04-06T11:26:01.876Z</time>
      </trkpt>
      <trkpt lat="42.27324" lon="22.71134">
        <ele>581.81596</ele>
        <time>2022-04-06T11:26:07.876Z</time>
      </trkpt>
      <trkpt lat="42.27334" lon="22.71131">
        <ele>581.97854</ele>
        <time>2022-04-06T11:26:14.887Z</time>
      </trkpt>
      <trkpt lat="42.27344" lon="22.71127">
        <ele>582.141428</ele>
        <time>2022-04-06T11:26:20.882Z</time>
      </trkpt>
      <trkpt lat="42.27353" lon="22.71122">
        <ele>582.300457</ele>
        <time>2022-04-06T11:26:26.898Z</time>
      </trkpt>
      <trkpt lat="42.27362" lon="22.71116">
        <ele>582.460401</ele>
        <time>2022-04-06T11:26:32.887Z</time>
      </trkpt>
      <trkpt lat="42.2737" lon="22.71111">
        <ele>582.605621</ele>
        <time>2022-04-06T11:26:37.867Z</time>
      </trkpt>
      <trkpt lat="42.2738" lon="22.71106">
        <ele>582.776847</ele>
        <time>2022-04-06T11:26:43.868Z</time>
      </trkpt>
      <trkpt lat="42.27389" lon="22.711">
        <ele>582.940809</ele>
        <time>2022-04-06T11:26:49.877Z</time>
      </trkpt>
      <trkpt lat="42.27397" lon="22.71095">
        <ele>583.417277</ele>
        <time>2022-04-06T11:26:54.866Z</time>
      </trkpt>
      <trkpt lat="42.27407" lon="22.7109">
        <ele>584.201856</ele>
        <time>2022-04-06T11:27:00.868Z</time>
      </trkpt>
      <trkpt lat="42.27416" lon="22.71085">
        <ele>584.9907</ele>
        <time>2022-04-06T11:27:06.862Z</time>
      </trkpt>
      <trkpt lat="42.27425" lon="22.7108">
        <ele>585.735429</ele>
        <time>2022-04-06T11:27:12.856Z</time>
      </trkpt>
      <trkpt lat="42.27435" lon="22.71074">
        <ele>586.533216</ele>
        <time>2022-04-06T11:27:19.872Z</time>
      </trkpt>
      <trkpt lat="42.27444" lon="22.71068">
        <ele>587.343654</ele>
        <time>2022-04-06T11:27:26.858Z</time>
      </trkpt>
      <trkpt lat="42.27452" lon="22.71062">
        <ele>588.043776</ele>
        <time>2022-04-06T11:27:32.862Z</time>
      </trkpt>
      <trkpt lat="42.27461" lon="22.71058">
        <ele>588.745539</ele>
        <time>2022-04-06T11:27:38.865Z</time>
      </trkpt>
      <trkpt lat="42.2747" lon="22.71054">
        <ele>589.441186</ele>
        <time>2022-04-06T11:27:44.863Z</time>
      </trkpt>
      <trkpt lat="42.27479" lon="22.71049">
        <ele>590.226512</ele>
        <time>2022-04-06T11:27:51.875Z</time>
      </trkpt>
      <trkpt lat="42.27488" lon="22.71046">
        <ele>590.928275</ele>
        <time>2022-04-06T11:27:57.871Z</time>
      </trkpt>
      <trkpt lat="42.27498" lon="22.71042">
        <ele>591.71516</ele>
        <time>2022-04-06T11:28:03.874Z</time>
      </trkpt>
      <trkpt lat="42.27507" lon="22.71038">
        <ele>592.437323</ele>
        <time>2022-04-06T11:28:09.858Z</time>
      </trkpt>
      <trkpt lat="42.27516" lon="22.71034">
        <ele>593.17829</ele>
        <time>2022-04-06T11:28:16.887Z</time>
      </trkpt>
      <trkpt lat="42.27525" lon="22.7103">
        <ele>593.898178</ele>
        <time>2022-04-06T11:28:22.895Z</time>
      </trkpt>
      <trkpt lat="42.27534" lon="22.71024">
        <ele>594.663474</ele>
        <time>2022-04-06T11:28:29.864Z</time>
      </trkpt>
      <trkpt lat="42.27544" lon="22.71021">
        <ele>595.437068</ele>
        <time>2022-04-06T11:28:36.870Z</time>
      </trkpt>
      <trkpt lat="42.27552" lon="22.71017">
        <ele>596.14694</ele>
        <time>2022-04-06T11:28:42.864Z</time>
      </trkpt>
      <trkpt lat="42.27562" lon="22.71013">
        <ele>596.958749</ele>
        <time>2022-04-06T11:28:49.858Z</time>
      </trkpt>
      <trkpt lat="42.27572" lon="22.7101">
        <ele>597.75852</ele>
        <time>2022-04-06T11:28:56.873Z</time>
      </trkpt>
      <trkpt lat="42.27581" lon="22.71006">
        <ele>598.556055</ele>
        <time>2022-04-06T11:29:04.894Z</time>
      </trkpt>
      <trkpt lat="42.27591" lon="22.71002">
        <ele>599.411156</ele>
        <time>2022-04-06T11:29:12.868Z</time>
      </trkpt>
      <trkpt lat="42.276" lon="22.70998">
        <ele>600.205085</ele>
        <time>2022-04-06T11:29:20.874Z</time>
      </trkpt>
      <trkpt lat="42.27609" lon="22.70994">
        <ele>601.015208</ele>
        <time>2022-04-06T11:29:28.860Z</time>
      </trkpt>
      <trkpt lat="42.27618" lon="22.70991">
        <ele>601.796482</ele>
        <time>2022-04-06T11:29:35.860Z</time>
      </trkpt>
      <trkpt lat="42.27628" lon="22.70988">
        <ele>602.596252</ele>
        <time>2022-04-06T11:29:43.863Z</time>
      </trkpt>
      <trkpt lat="42.27637" lon="22.70985">
        <ele>603.385827</ele>
        <time>2022-04-06T11:29:51.870Z</time>
      </trkpt>
      <trkpt lat="42.27647" lon="22.70981">
        <ele>604.224981</ele>
        <time>2022-04-06T11:29:59.868Z</time>
      </trkpt>
      <trkpt lat="42.27656" lon="22.70977">
        <ele>605.02429</ele>
        <time>2022-04-06T11:30:07.861Z</time>
      </trkpt>
      <trkpt lat="42.27664" lon="22.70972">
        <ele>605.797005</ele>
        <time>2022-04-06T11:30:15.866Z</time>
      </trkpt>
      <trkpt lat="42.27674" lon="22.70969">
        <ele>606.615692</ele>
        <time>2022-04-06T11:30:22.866Z</time>
      </trkpt>
      <trkpt lat="42.27683" lon="22.70965">
        <ele>607.461983</ele>
        <time>2022-04-06T11:30:29.858Z</time>
      </trkpt>
      <trkpt lat="42.27693" lon="22.70958">
        <ele>608.324537</ele>
        <time>2022-04-06T11:30:36.860Z</time>
      </trkpt>
      <trkpt lat="42.27701" lon="22.7095">
        <ele>609.191989</ele>
        <time>2022-04-06T11:30:42.864Z</time>
      </trkpt>
      <trkpt lat="42.2771" lon="22.70942">
        <ele>610.070027</ele>
        <time>2022-04-06T11:30:48.867Z</time>
      </trkpt>
      <trkpt lat="42.27718" lon="22.70933">
        <ele>610.899989</ele>
        <time>2022-04-06T11:30:53.863Z</time>
      </trkpt>
      <trkpt lat="42.27724" lon="22.70923">
        <ele>611.723796</ele>
        <time>2022-04-06T11:30:57.866Z</time>
      </trkpt>
      <trkpt lat="42.27729" lon="22.70913">
        <ele>611.789566</ele>
        <time>2022-04-06T11:31:01.860Z</time>
      </trkpt>
      <trkpt lat="42.27736" lon="22.70903">
        <ele>611.836124</ele>
        <time>2022-04-06T11:31:04.861Z</time>
      </trkpt>
      <trkpt lat="42.27743" lon="22.7089">
        <ele>611.895298</ele>
        <time>2022-04-06T11:31:07.863Z</time>
      </trkpt>
      <trkpt lat="42.2775" lon="22.70876">
        <ele>611.950949</ele>
        <time>2022-04-06T11:31:10.872Z</time>
      </trkpt>
      <trkpt lat="42.27755" lon="22.70864">
        <ele>612.002606</ele>
        <time>2022-04-06T11:31:13.866Z</time>
      </trkpt>
      <trkpt lat="42.27762" lon="22.7085">
        <ele>612.061871</ele>
        <time>2022-04-06T11:31:16.865Z</time>
      </trkpt>
      <trkpt lat="42.27769" lon="22.70837">
        <ele>612.117635</ele>
        <time>2022-04-06T11:31:19.864Z</time>
      </trkpt>
      <trkpt lat="42.27776" lon="22.70823">
        <ele>612.178233</ele>
        <time>2022-04-06T11:31:22.863Z</time>
      </trkpt>
      <trkpt lat="42.27783" lon="22.70812">
        <ele>612.228745</ele>
        <time>2022-04-06T11:31:24.860Z</time>
      </trkpt>
      <trkpt lat="42.2779" lon="22.70802">
        <ele>612.277836</ele>
        <time>2022-04-06T11:31:26.894Z</time>
      </trkpt>
      <trkpt lat="42.27798" lon="22.70789">
        <ele>612.337681</ele>
        <time>2022-04-06T11:31:29.879Z</time>
      </trkpt>
      <trkpt lat="42.27806" lon="22.70777">
        <ele>612.393919</ele>
        <time>2022-04-06T11:31:32.885Z</time>
      </trkpt>
      <trkpt lat="42.27814" lon="22.70768">
        <ele>612.442008</ele>
        <time>2022-04-06T11:31:35.864Z</time>
      </trkpt>
      <trkpt lat="42.27821" lon="22.70758">
        <ele>612.489972</ele>
        <time>2022-04-06T11:31:38.889Z</time>
      </trkpt>
      <trkpt lat="42.27829" lon="22.70749">
        <ele>612.540917</ele>
        <time>2022-04-06T11:31:41.870Z</time>
      </trkpt>
      <trkpt lat="42.27838" lon="22.70741">
        <ele>612.591987</ele>
        <time>2022-04-06T11:31:44.888Z</time>
      </trkpt>
      <trkpt lat="42.27847" lon="22.70732">
        <ele>611.883921</ele>
        <time>2022-04-06T11:31:47.864Z</time>
      </trkpt>
      <trkpt lat="42.27856" lon="22.70722">
        <ele>610.884198</ele>
        <time>2022-04-06T11:31:50.888Z</time>
      </trkpt>
      <trkpt lat="42.27864" lon="22.70715">
        <ele>610.11604</ele>
        <time>2022-04-06T11:31:52.868Z</time>
      </trkpt>
      <trkpt lat="42.27872" lon="22.70707">
        <ele>609.262499</ele>
        <time>2022-04-06T11:31:54.864Z</time>
      </trkpt>
      <trkpt lat="42.27879" lon="22.70692">
        <ele>608.186978</ele>
        <time>2022-04-06T11:31:57.863Z</time>
      </trkpt>
      <trkpt lat="42.27883" lon="22.70676">
        <ele>607.163115</ele>
        <time>2022-04-06T11:32:00.858Z</time>
      </trkpt>
      <trkpt lat="42.27885" lon="22.70658">
        <ele>606.043779</ele>
        <time>2022-04-06T11:32:03.872Z</time>
      </trkpt>
      <trkpt lat="42.27887" lon="22.70645">
        <ele>605.22171</ele>
        <time>2022-04-06T11:32:05.873Z</time>
      </trkpt>
      <trkpt lat="42.27889" lon="22.70629">
        <ele>604.220798</ele>
        <time>2022-04-06T11:32:08.890Z</time>
      </trkpt>
      <trkpt lat="42.27889" lon="22.70613">
        <ele>603.201416</ele>
        <time>2022-04-06T11:32:11.866Z</time>
      </trkpt>
      <trkpt lat="42.27892" lon="22.70595">
        <ele>602.048542</ele>
        <time>2022-04-06T11:32:14.892Z</time>
      </trkpt>
      <trkpt lat="42.27893" lon="22.70581">
        <ele>601.212468</ele>
        <time>2022-04-06T11:32:16.861Z</time>
      </trkpt>
      <trkpt lat="42.27894" lon="22.70569">
        <ele>600.449635</ele>
        <time>2022-04-06T11:32:18.864Z</time>
      </trkpt>
      <trkpt lat="42.27895" lon="22.70554">
        <ele>599.548229</ele>
        <time>2022-04-06T11:32:20.891Z</time>
      </trkpt>
      <trkpt lat="42.27897" lon="22.70538">
        <ele>598.528305</ele>
        <time>2022-04-06T11:32:22.864Z</time>
      </trkpt>
      <trkpt lat="42.27898" lon="22.70523">
        <ele>597.582088</ele>
        <time>2022-04-06T11:32:24.859Z</time>
      </trkpt>
      <trkpt lat="42.27899" lon="22.70509">
        <ele>597.206884</ele>
        <time>2022-04-06T11:32:26.886Z</time>
      </trkpt>
      <trkpt lat="42.27901" lon="22.70493">
        <ele>596.784463</ele>
        <time>2022-04-06T11:32:28.862Z</time>
      </trkpt>
      <trkpt lat="42.27903" lon="22.70476">
        <ele>596.328348</ele>
        <time>2022-04-06T11:32:30.860Z</time>
      </trkpt>
      <trkpt lat="42.27905" lon="22.70461">
        <ele>595.932563</ele>
        <time>2022-04-06T11:32:32.887Z</time>
      </trkpt>
      <trkpt lat="42.27907" lon="22.70445">
        <ele>595.497149</ele>
        <time>2022-04-06T11:32:35.858Z</time>
      </trkpt>
      <trkpt lat="42.27907" lon="22.7043">
        <ele>595.09507</ele>
        <time>2022-04-06T11:32:38.862Z</time>
      </trkpt>
      <trkpt lat="42.27908" lon="22.70417">
        <ele>594.772474</ele>
        <time>2022-04-06T11:32:41.897Z</time>
      </trkpt>
      <trkpt lat="42.27911" lon="22.70406">
        <ele>594.438991</ele>
        <time>2022-04-06T11:32:45.877Z</time>
      </trkpt>
      <trkpt lat="42.27914" lon="22.70391">
        <ele>594.031839</ele>
        <time>2022-04-06T11:32:50.858Z</time>
      </trkpt>
      <trkpt lat="42.27918" lon="22.70378">
        <ele>593.664891</ele>
        <time>2022-04-06T11:32:54.873Z</time>
      </trkpt>
      <trkpt lat="42.27921" lon="22.70365">
        <ele>593.30289</ele>
        <time>2022-04-06T11:32:58.871Z</time>
      </trkpt>
      <trkpt lat="42.27925" lon="22.70354">
        <ele>592.982815</ele>
        <time>2022-04-06T11:33:02.866Z</time>
      </trkpt>
      <trkpt lat="42.2793" lon="22.70342">
        <ele>592.626213</ele>
        <time>2022-04-06T11:33:06.865Z</time>
      </trkpt>
      <trkpt lat="42.27936" lon="22.70331">
        <ele>592.257838</ele>
        <time>2022-04-06T11:33:10.873Z</time>
      </trkpt>
      <trkpt lat="42.27941" lon="22.70318">
        <ele>591.870075</ele>
        <time>2022-04-06T11:33:14.858Z</time>
      </trkpt>
      <trkpt lat="42.27946" lon="22.70306">
        <ele>591.513366</ele>
        <time>2022-04-06T11:33:18.888Z</time>
      </trkpt>
      <trkpt lat="42.27952" lon="22.70293">
        <ele>591.175772</ele>
        <time>2022-04-06T11:33:23.868Z</time>
      </trkpt>
      <trkpt lat="42.27957" lon="22.70281">
        <ele>591.299178</ele>
        <time>2022-04-06T11:33:26.862Z</time>
      </trkpt>
      <trkpt lat="42.27962" lon="22.70268">
        <ele>591.434717</ele>
        <time>2022-04-06T11:33:30.891Z</time>
      </trkpt>
      <trkpt lat="42.27965" lon="22.70255">
        <ele>591.55856</ele>
        <time>2022-04-06T11:33:33.864Z</time>
      </trkpt>
      <trkpt lat="42.27969" lon="22.70243">
        <ele>591.674394</ele>
        <time>2022-04-06T11:33:36.895Z</time>
      </trkpt>
      <trkpt lat="42.27974" lon="22.70232">
        <ele>591.796851</ele>
        <time>2022-04-06T11:33:39.862Z</time>
      </trkpt>
      <trkpt lat="42.27979" lon="22.70221">
        <ele>591.91509</ele>
        <time>2022-04-06T11:33:42.888Z</time>
      </trkpt>
      <trkpt lat="42.27984" lon="22.70208">
        <ele>592.047026</ele>
        <time>2022-04-06T11:33:46.860Z</time>
      </trkpt>
      <trkpt lat="42.2799" lon="22.70195">
        <ele>592.188539</ele>
        <time>2022-04-06T11:33:50.857Z</time>
      </trkpt>
      <trkpt lat="42.27995" lon="22.70184">
        <ele>592.300688</ele>
        <time>2022-04-06T11:33:53.858Z</time>
      </trkpt>
      <trkpt lat="42.28001" lon="22.70174">
        <ele>592.421369</ele>
        <time>2022-04-06T11:33:57.862Z</time>
      </trkpt>
      <trkpt lat="42.28006" lon="22.70163">
        <ele>592.53403</ele>
        <time>2022-04-06T11:34:01.859Z</time>
      </trkpt>
      <trkpt lat="42.28011" lon="22.70149">
        <ele>592.68055</ele>
        <time>2022-04-06T11:34:05.872Z</time>
      </trkpt>
      <trkpt lat="42.28016" lon="22.70138">
        <ele>592.79159</ele>
        <time>2022-04-06T11:34:08.905Z</time>
      </trkpt>
      <trkpt lat="42.28021" lon="22.70128">
        <ele>592.901813</ele>
        <time>2022-04-06T11:34:11.877Z</time>
      </trkpt>
      <trkpt lat="42.28028" lon="22.70117">
        <ele>593.032522</ele>
        <time>2022-04-06T11:34:14.872Z</time>
      </trkpt>
      <trkpt lat="42.28034" lon="22.70108">
        <ele>593.150323</ele>
        <time>2022-04-06T11:34:16.856Z</time>
      </trkpt>
      <trkpt lat="42.28041" lon="22.70097">
        <ele>593.27823</ele>
        <time>2022-04-06T11:34:18.861Z</time>
      </trkpt>
      <trkpt lat="42.28048" lon="22.70088">
        <ele>593.233684</ele>
        <time>2022-04-06T11:34:20.859Z</time>
      </trkpt>
      <trkpt lat="42.28055" lon="22.7008">
        <ele>592.819725</ele>
        <time>2022-04-06T11:34:22.906Z</time>
      </trkpt>
      <trkpt lat="42.28066" lon="22.70068">
        <ele>592.213766</ele>
        <time>2022-04-06T11:34:25.875Z</time>
      </trkpt>
      <trkpt lat="42.28074" lon="22.70062">
        <ele>591.803811</ele>
        <time>2022-04-06T11:34:27.858Z</time>
      </trkpt>
      <trkpt lat="42.28085" lon="22.70052">
        <ele>591.234542</ele>
        <time>2022-04-06T11:34:30.860Z</time>
      </trkpt>
      <trkpt lat="42.28096" lon="22.70042">
        <ele>590.650531</ele>
        <time>2022-04-06T11:34:33.863Z</time>
      </trkpt>
      <trkpt lat="42.28103" lon="22.70033">
        <ele>590.232282</ele>
        <time>2022-04-06T11:34:35.898Z</time>
      </trkpt>
      <trkpt lat="42.28109" lon="22.70025">
        <ele>589.828189</ele>
        <time>2022-04-06T11:34:37.878Z</time>
      </trkpt>
      <trkpt lat="42.28116" lon="22.70017">
        <ele>589.406595</ele>
        <time>2022-04-06T11:34:39.877Z</time>
      </trkpt>
      <trkpt lat="42.28124" lon="22.70009">
        <ele>588.99963</ele>
        <time>2022-04-06T11:34:41.890Z</time>
      </trkpt>
      <trkpt lat="42.28131" lon="22.7">
        <ele>588.567038</ele>
        <time>2022-04-06T11:34:43.865Z</time>
      </trkpt>
      <trkpt lat="42.28139" lon="22.6999">
        <ele>588.058622</ele>
        <time>2022-04-06T11:34:46.861Z</time>
      </trkpt>
      <trkpt lat="42.28148" lon="22.69979">
        <ele>587.540107</ele>
        <time>2022-04-06T11:34:49.883Z</time>
      </trkpt>
      <trkpt lat="42.28157" lon="22.6997">
        <ele>587.055365</ele>
        <time>2022-04-06T11:34:51.899Z</time>
      </trkpt>
      <trkpt lat="42.28167" lon="22.6996">
        <ele>586.480497</ele>
        <time>2022-04-06T11:34:53.870Z</time>
      </trkpt>
      <trkpt lat="42.28177" lon="22.69951">
        <ele>585.940582</ele>
        <time>2022-04-06T11:34:55.864Z</time>
      </trkpt>
      <trkpt lat="42.28187" lon="22.69941">
        <ele>585.417043</ele>
        <time>2022-04-06T11:34:57.866Z</time>
      </trkpt>
      <trkpt lat="42.28196" lon="22.69932">
        <ele>584.870505</ele>
        <time>2022-04-06T11:34:59.875Z</time>
      </trkpt>
      <trkpt lat="42.28205" lon="22.69923">
        <ele>584.354818</ele>
        <time>2022-04-06T11:35:01.871Z</time>
      </trkpt>
      <trkpt lat="42.28216" lon="22.6991">
        <ele>583.649911</ele>
        <time>2022-04-06T11:35:04.863Z</time>
      </trkpt>
      <trkpt lat="42.28224" lon="22.69901">
        <ele>583.120103</ele>
        <time>2022-04-06T11:35:06.868Z</time>
      </trkpt>
      <trkpt lat="42.28231" lon="22.69893">
        <ele>582.656035</ele>
        <time>2022-04-06T11:35:08.861Z</time>
      </trkpt>
      <trkpt lat="42.28239" lon="22.69884">
        <ele>582.172955</ele>
        <time>2022-04-06T11:35:10.880Z</time>
      </trkpt>
      <trkpt lat="42.28247" lon="22.69874">
        <ele>581.639539</ele>
        <time>2022-04-06T11:35:12.865Z</time>
      </trkpt>
      <trkpt lat="42.28255" lon="22.69864">
        <ele>581.128796</ele>
        <time>2022-04-06T11:35:14.860Z</time>
      </trkpt>
      <trkpt lat="42.28264" lon="22.69856">
        <ele>580.58928</ele>
        <time>2022-04-06T11:35:17.868Z</time>
      </trkpt>
      <trkpt lat="42.28271" lon="22.69845">
        <ele>580.085142</ele>
        <time>2022-04-06T11:35:23.870Z</time>
      </trkpt>
      <trkpt lat="42.28278" lon="22.69836">
        <ele>579.628426</ele>
        <time>2022-04-06T11:35:28.865Z</time>
      </trkpt>
      <trkpt lat="42.28277" lon="22.69824">
        <ele>579.181197</ele>
        <time>2022-04-06T11:35:32.884Z</time>
      </trkpt>
      <trkpt lat="42.28272" lon="22.69813">
        <ele>578.713851</ele>
        <time>2022-04-06T11:35:36.864Z</time>
      </trkpt>
      <trkpt lat="42.28268" lon="22.698">
        <ele>578.231981</ele>
        <time>2022-04-06T11:35:40.863Z</time>
      </trkpt>
      <trkpt lat="42.28261" lon="22.6979">
        <ele>577.739471</ele>
        <time>2022-04-06T11:35:44.892Z</time>
      </trkpt>
      <trkpt lat="42.28255" lon="22.6978">
        <ele>577.282004</ele>
        <time>2022-04-06T11:35:47.861Z</time>
      </trkpt>
      <trkpt lat="42.28248" lon="22.69767">
        <ele>576.714785</ele>
        <time>2022-04-06T11:35:51.874Z</time>
      </trkpt>
      <trkpt lat="42.28245" lon="22.69755">
        <ele>576.732438</ele>
        <time>2022-04-06T11:35:54.858Z</time>
      </trkpt>
      <trkpt lat="42.28243" lon="22.69743">
        <ele>576.77978</ele>
        <time>2022-04-06T11:35:57.868Z</time>
      </trkpt>
      <trkpt lat="42.28239" lon="22.69728">
        <ele>576.841332</ele>
        <time>2022-04-06T11:36:01.887Z</time>
      </trkpt>
      <trkpt lat="42.28233" lon="22.69715">
        <ele>576.898686</ele>
        <time>2022-04-06T11:36:05.875Z</time>
      </trkpt>
      <trkpt lat="42.28226" lon="22.69706">
        <ele>576.949486</ele>
        <time>2022-04-06T11:36:08.868Z</time>
      </trkpt>
      <trkpt lat="42.28219" lon="22.69696">
        <ele>577.00126</ele>
        <time>2022-04-06T11:36:12.863Z</time>
      </trkpt>
      <trkpt lat="42.28213" lon="22.69685">
        <ele>577.053824</ele>
        <time>2022-04-06T11:36:16.860Z</time>
      </trkpt>
      <trkpt lat="42.28205" lon="22.69675">
        <ele>577.110023</ele>
        <time>2022-04-06T11:36:20.870Z</time>
      </trkpt>
      <trkpt lat="42.28195" lon="22.69667">
        <ele>577.172105</ele>
        <time>2022-04-06T11:36:24.882Z</time>
      </trkpt>
      <trkpt lat="42.28188" lon="22.69655">
        <ele>577.229397</ele>
        <time>2022-04-06T11:36:29.866Z</time>
      </trkpt>
      <trkpt lat="42.28182" lon="22.69646">
        <ele>577.278218</ele>
        <time>2022-04-06T11:36:33.875Z</time>
      </trkpt>
      <trkpt lat="42.28177" lon="22.69634">
        <ele>577.330142</ele>
        <time>2022-04-06T11:36:37.865Z</time>
      </trkpt>
      <trkpt lat="42.28175" lon="22.6962">
        <ele>577.384081</ele>
        <time>2022-04-06T11:36:41.861Z</time>
      </trkpt>
      <trkpt lat="42.28172" lon="22.69605">
        <ele>577.443211</ele>
        <time>2022-04-06T11:36:46.863Z</time>
      </trkpt>
      <trkpt lat="42.28166" lon="22.69594">
        <ele>577.496126</ele>
        <time>2022-04-06T11:36:51.860Z</time>
      </trkpt>
      <trkpt lat="42.28159" lon="22.69584">
        <ele>577.548649</ele>
        <time>2022-04-06T11:36:55.860Z</time>
      </trkpt>
      <trkpt lat="42.2815" lon="22.69573">
        <ele>577.610516</ele>
        <time>2022-04-06T11:36:59.870Z</time>
      </trkpt>
      <trkpt lat="42.28141" lon="22.69565">
        <ele>578.340099</ele>
        <time>2022-04-06T11:37:03.866Z</time>
      </trkpt>
      <trkpt lat="42.28132" lon="22.69556">
        <ele>579.187016</ele>
        <time>2022-04-06T11:37:06.865Z</time>
      </trkpt>
      <trkpt lat="42.28129" lon="22.69542">
        <ele>580.044162</ele>
        <time>2022-04-06T11:37:10.858Z</time>
      </trkpt>
      <trkpt lat="42.28129" lon="22.69527">
        <ele>580.877949</ele>
        <time>2022-04-06T11:37:15.866Z</time>
      </trkpt>
      <trkpt lat="42.28124" lon="22.69513">
        <ele>581.784165</ele>
        <time>2022-04-06T11:37:19.864Z</time>
      </trkpt>
      <trkpt lat="42.28119" lon="22.69502">
        <ele>582.519897</ele>
        <time>2022-04-06T11:37:22.857Z</time>
      </trkpt>
      <trkpt lat="42.28114" lon="22.69488">
        <ele>583.386716</ele>
        <time>2022-04-06T11:37:26.859Z</time>
      </trkpt>
      <trkpt lat="42.28107" lon="22.69478">
        <ele>584.149107</ele>
        <time>2022-04-06T11:37:30.866Z</time>
      </trkpt>
      <trkpt lat="42.281" lon="22.69469">
        <ele>584.932138</ele>
        <time>2022-04-06T11:37:34.883Z</time>
      </trkpt>
      <trkpt lat="42.28093" lon="22.69459">
        <ele>585.695679</ele>
        <time>2022-04-06T11:37:37.866Z</time>
      </trkpt>
      <trkpt lat="42.28087" lon="22.69447">
        <ele>586.504403</ele>
        <time>2022-04-06T11:37:41.865Z</time>
      </trkpt>
      <trkpt lat="42.28081" lon="22.69437">
        <ele>587.26303</ele>
        <time>2022-04-06T11:37:45.865Z</time>
      </trkpt>
      <trkpt lat="42.28074" lon="22.69426">
        <ele>588.087235</ele>
        <time>2022-04-06T11:37:49.869Z</time>
      </trkpt>
      <trkpt lat="42.28068" lon="22.69417">
        <ele>588.791165</ele>
        <time>2022-04-06T11:37:52.890Z</time>
      </trkpt>
      <trkpt lat="42.28063" lon="22.69406">
        <ele>589.540033</ele>
        <time>2022-04-06T11:37:55.874Z</time>
      </trkpt>
      <trkpt lat="42.2806" lon="22.69392">
        <ele>590.380413</ele>
        <time>2022-04-06T11:37:58.884Z</time>
      </trkpt>
      <trkpt lat="42.28055" lon="22.69379">
        <ele>591.201117</ele>
        <time>2022-04-06T11:38:01.873Z</time>
      </trkpt>
      <trkpt lat="42.28047" lon="22.6937">
        <ele>591.334258</ele>
        <time>2022-04-06T11:38:04.873Z</time>
      </trkpt>
      <trkpt lat="42.28038" lon="22.69361">
        <ele>591.035901</ele>
        <time>2022-04-06T11:38:07.881Z</time>
      </trkpt>
      <trkpt lat="42.28031" lon="22.69348">
        <ele>590.748446</ele>
        <time>2022-04-06T11:38:10.869Z</time>
      </trkpt>
      <trkpt lat="42.28024" lon="22.69335">
        <ele>590.445821</ele>
        <time>2022-04-06T11:38:13.864Z</time>
      </trkpt>
      <trkpt lat="42.28018" lon="22.69319">
        <ele>590.107805</ele>
        <time>2022-04-06T11:38:16.865Z</time>
      </trkpt>
      <trkpt lat="42.2801" lon="22.69305">
        <ele>589.787194</ele>
        <time>2022-04-06T11:38:19.871Z</time>
      </trkpt>
      <trkpt lat="42.28004" lon="22.69291">
        <ele>589.464001</ele>
        <time>2022-04-06T11:38:22.874Z</time>
      </trkpt>
      <trkpt lat="42.27998" lon="22.69276">
        <ele>589.163464</ele>
        <time>2022-04-06T11:38:25.867Z</time>
      </trkpt>
      <trkpt lat="42.27993" lon="22.69262">
        <ele>588.862696</ele>
        <time>2022-04-06T11:38:28.860Z</time>
      </trkpt>
      <trkpt lat="42.27987" lon="22.69248">
        <ele>588.55405</ele>
        <time>2022-04-06T11:38:31.867Z</time>
      </trkpt>
      <trkpt lat="42.2798" lon="22.69234">
        <ele>588.243506</ele>
        <time>2022-04-06T11:38:34.863Z</time>
      </trkpt>
      <trkpt lat="42.27977" lon="22.69222">
        <ele>588.011538</ele>
        <time>2022-04-06T11:38:37.878Z</time>
      </trkpt>
      <trkpt lat="42.27974" lon="22.69208">
        <ele>587.734638</ele>
        <time>2022-04-06T11:38:41.861Z</time>
      </trkpt>
      <trkpt lat="42.27971" lon="22.69195">
        <ele>587.49195</ele>
        <time>2022-04-06T11:38:44.887Z</time>
      </trkpt>
      <trkpt lat="42.27968" lon="22.69182">
        <ele>587.222408</ele>
        <time>2022-04-06T11:38:47.863Z</time>
      </trkpt>
      <trkpt lat="42.27966" lon="22.69169">
        <ele>586.972993</ele>
        <time>2022-04-06T11:38:50.884Z</time>
      </trkpt>
      <trkpt lat="42.27965" lon="22.69156">
        <ele>586.938953</ele>
        <time>2022-04-06T11:38:53.880Z</time>
      </trkpt>
      <trkpt lat="42.27964" lon="22.69141">
        <ele>586.938953</ele>
        <time>2022-04-06T11:38:57.866Z</time>
      </trkpt>
      <trkpt lat="42.27963" lon="22.69127">
        <ele>586.938953</ele>
        <time>2022-04-06T11:39:01.860Z</time>
      </trkpt>
      <trkpt lat="42.2796" lon="22.69114">
        <ele>586.938953</ele>
        <time>2022-04-06T11:39:04.862Z</time>
      </trkpt>
      <trkpt lat="42.27958" lon="22.691">
        <ele>586.938953</ele>
        <time>2022-04-06T11:39:07.892Z</time>
      </trkpt>
      <trkpt lat="42.27956" lon="22.69087">
        <ele>586.938953</ele>
        <time>2022-04-06T11:39:10.862Z</time>
      </trkpt>
      <trkpt lat="42.27954" lon="22.69075">
        <ele>586.938953</ele>
        <time>2022-04-06T11:39:13.891Z</time>
      </trkpt>
      <trkpt lat="42.27953" lon="22.69058">
        <ele>586.938953</ele>
        <time>2022-04-06T11:39:17.871Z</time>
      </trkpt>
      <trkpt lat="42.2795" lon="22.69047">
        <ele>586.938953</ele>
        <time>2022-04-06T11:39:20.862Z</time>
      </trkpt>
      <trkpt lat="42.27946" lon="22.69036">
        <ele>586.938953</ele>
        <time>2022-04-06T11:39:23.871Z</time>
      </trkpt>
      <trkpt lat="42.27941" lon="22.69021">
        <ele>586.938953</ele>
        <time>2022-04-06T11:39:27.860Z</time>
      </trkpt>
      <trkpt lat="42.27941" lon="22.69009">
        <ele>586.938953</ele>
        <time>2022-04-06T11:39:30.859Z</time>
      </trkpt>
      <trkpt lat="42.27938" lon="22.68996">
        <ele>586.938953</ele>
        <time>2022-04-06T11:39:33.858Z</time>
      </trkpt>
      <trkpt lat="42.27933" lon="22.68985">
        <ele>586.938953</ele>
        <time>2022-04-06T11:39:36.875Z</time>
      </trkpt>
      <trkpt lat="42.27927" lon="22.68975">
        <ele>586.938953</ele>
        <time>2022-04-06T11:39:40.876Z</time>
      </trkpt>
      <trkpt lat="42.27919" lon="22.68965">
        <ele>586.938953</ele>
        <time>2022-04-06T11:39:44.863Z</time>
      </trkpt>
      <trkpt lat="42.27914" lon="22.68955">
        <ele>586.938953</ele>
        <time>2022-04-06T11:39:49.864Z</time>
      </trkpt>
      <trkpt lat="42.27906" lon="22.68943">
        <ele>586.938953</ele>
        <time>2022-04-06T11:39:54.886Z</time>
      </trkpt>
      <trkpt lat="42.279" lon="22.68932">
        <ele>586.938953</ele>
        <time>2022-04-06T11:39:58.862Z</time>
      </trkpt>
      <trkpt lat="42.27897" lon="22.6892">
        <ele>586.938953</ele>
        <time>2022-04-06T11:40:03.865Z</time>
      </trkpt>
      <trkpt lat="42.27891" lon="22.68908">
        <ele>586.938953</ele>
        <time>2022-04-06T11:40:09.859Z</time>
      </trkpt>
      <trkpt lat="42.27886" lon="22.68897">
        <ele>586.938953</ele>
        <time>2022-04-06T11:40:16.866Z</time>
      </trkpt>
      <trkpt lat="42.27885" lon="22.68885">
        <ele>586.938953</ele>
        <time>2022-04-06T11:40:21.854Z</time>
      </trkpt>
      <trkpt lat="42.27883" lon="22.68873">
        <ele>586.938953</ele>
        <time>2022-04-06T11:40:26.859Z</time>
      </trkpt>
      <trkpt lat="42.27888" lon="22.68864">
        <ele>586.938953</ele>
        <time>2022-04-06T11:41:20.832Z</time>
      </trkpt>
    </trkseg>
  </trk>
  <trk>
    <name><![CDATA[Tour d'Europe: étape 646]]></name>
    <extensions>
      <line xmlns="http://www.topografix.com/GPX/gpx_style/0/2">
        <color>880088</color>
        <width>4</width>
      </line>
    </extensions>
    <trkseg>
      <trkpt lat="42.60275" lon="23.02981">
        <ele>765.480992</ele>
        <time>2022-04-05T07:02:01.309Z</time>
      </trkpt>
      <trkpt lat="42.60281" lon="23.02991">
        <ele>765.480992</ele>
        <time>2022-04-05T07:02:03.457Z</time>
      </trkpt>
      <trkpt lat="42.60277" lon="23.02975">
        <ele>765.480992</ele>
        <time>2022-04-05T07:02:05.421Z</time>
      </trkpt>
      <trkpt lat="42.60268" lon="23.02973">
        <ele>765.480992</ele>
        <time>2022-04-05T07:02:12.233Z</time>
      </trkpt>
      <trkpt lat="42.60259" lon="23.02969">
        <ele>765.480992</ele>
        <time>2022-04-05T07:02:17.185Z</time>
      </trkpt>
      <trkpt lat="42.6025" lon="23.02966">
        <ele>765.480992</ele>
        <time>2022-04-05T07:02:21.196Z</time>
      </trkpt>
      <trkpt lat="42.6024" lon="23.02962">
        <ele>765.480992</ele>
        <time>2022-04-05T07:02:26.203Z</time>
      </trkpt>
      <trkpt lat="42.60232" lon="23.02955">
        <ele>765.480992</ele>
        <time>2022-04-05T07:02:30.206Z</time>
      </trkpt>
      <trkpt lat="42.60222" lon="23.0295">
        <ele>765.480992</ele>
        <time>2022-04-05T07:02:33.212Z</time>
      </trkpt>
      <trkpt lat="42.60211" lon="23.02949">
        <ele>765.180998</ele>
        <time>2022-04-05T07:02:37.204Z</time>
      </trkpt>
      <trkpt lat="42.602" lon="23.02946">
        <ele>763.704977</ele>
        <time>2022-04-05T07:02:41.201Z</time>
      </trkpt>
      <trkpt lat="42.602" lon="23.02932">
        <ele>762.281152</ele>
        <time>2022-04-05T07:02:46.207Z</time>
      </trkpt>
      <trkpt lat="42.60202" lon="23.02918">
        <ele>760.919215</ele>
        <time>2022-04-05T07:02:50.201Z</time>
      </trkpt>
      <trkpt lat="42.60198" lon="23.02906">
        <ele>759.642903</ele>
        <time>2022-04-05T07:02:54.240Z</time>
      </trkpt>
      <trkpt lat="42.60192" lon="23.02896">
        <ele>758.380701</ele>
        <time>2022-04-05T07:03:04.203Z</time>
      </trkpt>
      <trkpt lat="42.60184" lon="23.02887">
        <ele>757.058664</ele>
        <time>2022-04-05T07:03:08.302Z</time>
      </trkpt>
      <trkpt lat="42.60175" lon="23.02879">
        <ele>755.591362</ele>
        <time>2022-04-05T07:03:12.262Z</time>
      </trkpt>
      <trkpt lat="42.60167" lon="23.0287">
        <ele>754.273057</ele>
        <time>2022-04-05T07:03:15.203Z</time>
      </trkpt>
      <trkpt lat="42.60159" lon="23.02861">
        <ele>752.86553</ele>
        <time>2022-04-05T07:03:18.243Z</time>
      </trkpt>
      <trkpt lat="42.60149" lon="23.02854">
        <ele>751.389466</ele>
        <time>2022-04-05T07:03:21.215Z</time>
      </trkpt>
      <trkpt lat="42.60141" lon="23.02845">
        <ele>750.085913</ele>
        <time>2022-04-05T07:03:24.207Z</time>
      </trkpt>
      <trkpt lat="42.60133" lon="23.02839">
        <ele>748.888687</ele>
        <time>2022-04-05T07:03:27.225Z</time>
      </trkpt>
      <trkpt lat="42.60124" lon="23.02832">
        <ele>747.447248</ele>
        <time>2022-04-05T07:03:30.206Z</time>
      </trkpt>
      <trkpt lat="42.60114" lon="23.02832">
        <ele>746.185602</ele>
        <time>2022-04-05T07:03:34.207Z</time>
      </trkpt>
      <trkpt lat="42.60105" lon="23.02842">
        <ele>744.745582</ele>
        <time>2022-04-05T07:03:40.197Z</time>
      </trkpt>
      <trkpt lat="42.60099" lon="23.02851">
        <ele>743.52492</ele>
        <time>2022-04-05T07:03:46.248Z</time>
      </trkpt>
      <trkpt lat="42.60094" lon="23.02864">
        <ele>742.126996</ele>
        <time>2022-04-05T07:03:53.194Z</time>
      </trkpt>
      <trkpt lat="42.60074" lon="23.02866">
        <ele>742.148711</ele>
        <time>2022-04-05T07:04:52.190Z</time>
      </trkpt>
      <trkpt lat="42.60068" lon="23.02855">
        <ele>742.311646</ele>
        <time>2022-04-05T07:04:56.192Z</time>
      </trkpt>
      <trkpt lat="42.60061" lon="23.02848">
        <ele>742.461913</ele>
        <time>2022-04-05T07:04:59.188Z</time>
      </trkpt>
      <trkpt lat="42.60053" lon="23.0284">
        <ele>742.623255</ele>
        <time>2022-04-05T07:05:02.206Z</time>
      </trkpt>
      <trkpt lat="42.60047" lon="23.02829">
        <ele>742.785874</ele>
        <time>2022-04-05T07:05:05.202Z</time>
      </trkpt>
      <trkpt lat="42.6004" lon="23.02819">
        <ele>742.952402</ele>
        <time>2022-04-05T07:05:08.210Z</time>
      </trkpt>
      <trkpt lat="42.60034" lon="23.0281">
        <ele>743.103569</ele>
        <time>2022-04-05T07:05:11.191Z</time>
      </trkpt>
      <trkpt lat="42.60027" lon="23.02801">
        <ele>743.269117</ele>
        <time>2022-04-05T07:05:15.254Z</time>
      </trkpt>
      <trkpt lat="42.60021" lon="23.0279">
        <ele>743.435912</ele>
        <time>2022-04-05T07:05:20.207Z</time>
      </trkpt>
      <trkpt lat="42.60016" lon="23.02779">
        <ele>743.595577</ele>
        <time>2022-04-05T07:05:24.213Z</time>
      </trkpt>
      <trkpt lat="42.60008" lon="23.02771">
        <ele>743.757166</ele>
        <time>2022-04-05T07:05:27.219Z</time>
      </trkpt>
      <trkpt lat="42.59999" lon="23.02763">
        <ele>743.932689</ele>
        <time>2022-04-05T07:05:30.198Z</time>
      </trkpt>
      <trkpt lat="42.59989" lon="23.02756">
        <ele>744.12843</ele>
        <time>2022-04-05T07:05:33.200Z</time>
      </trkpt>
      <trkpt lat="42.59978" lon="23.02748">
        <ele>744.327681</ele>
        <time>2022-04-05T07:05:36.198Z</time>
      </trkpt>
      <trkpt lat="42.59969" lon="23.0274">
        <ele>744.516197</ele>
        <time>2022-04-05T07:05:39.212Z</time>
      </trkpt>
      <trkpt lat="42.5996" lon="23.02734">
        <ele>744.672841</ele>
        <time>2022-04-05T07:05:41.219Z</time>
      </trkpt>
      <trkpt lat="42.59952" lon="23.02728">
        <ele>744.832351</ele>
        <time>2022-04-05T07:05:43.192Z</time>
      </trkpt>
      <trkpt lat="42.59942" lon="23.02725">
        <ele>744.975859</ele>
        <time>2022-04-05T07:05:45.247Z</time>
      </trkpt>
      <trkpt lat="42.59932" lon="23.02719">
        <ele>745.14797</ele>
        <time>2022-04-05T07:05:48.200Z</time>
      </trkpt>
      <trkpt lat="42.59923" lon="23.0271">
        <ele>745.319176</ele>
        <time>2022-04-05T07:05:51.200Z</time>
      </trkpt>
      <trkpt lat="42.59913" lon="23.02699">
        <ele>745.506014</ele>
        <time>2022-04-05T07:05:54.212Z</time>
      </trkpt>
      <trkpt lat="42.59902" lon="23.0269">
        <ele>745.701998</ele>
        <time>2022-04-05T07:05:57.194Z</time>
      </trkpt>
      <trkpt lat="42.59892" lon="23.0268">
        <ele>745.882512</ele>
        <time>2022-04-05T07:06:00.197Z</time>
      </trkpt>
      <trkpt lat="42.59883" lon="23.02671">
        <ele>746.048776</ele>
        <time>2022-04-05T07:06:03.195Z</time>
      </trkpt>
      <trkpt lat="42.59873" lon="23.02664">
        <ele>746.216118</ele>
        <time>2022-04-05T07:06:06.223Z</time>
      </trkpt>
      <trkpt lat="42.59865" lon="23.02655">
        <ele>746.367705</ele>
        <time>2022-04-05T07:06:09.202Z</time>
      </trkpt>
      <trkpt lat="42.59857" lon="23.02647">
        <ele>746.521356</ele>
        <time>2022-04-05T07:06:13.203Z</time>
      </trkpt>
      <trkpt lat="42.59846" lon="23.0264">
        <ele>746.705787</ele>
        <time>2022-04-05T07:06:17.193Z</time>
      </trkpt>
      <trkpt lat="42.59838" lon="23.02634">
        <ele>746.848908</ele>
        <time>2022-04-05T07:06:20.210Z</time>
      </trkpt>
      <trkpt lat="42.59829" lon="23.02625">
        <ele>747.01453</ele>
        <time>2022-04-05T07:06:24.202Z</time>
      </trkpt>
      <trkpt lat="42.59821" lon="23.02619">
        <ele>747.153178</ele>
        <time>2022-04-05T07:06:27.199Z</time>
      </trkpt>
      <trkpt lat="42.59813" lon="23.02611">
        <ele>747.299719</ele>
        <time>2022-04-05T07:06:30.196Z</time>
      </trkpt>
      <trkpt lat="42.59804" lon="23.02601">
        <ele>747.473836</ele>
        <time>2022-04-05T07:06:34.204Z</time>
      </trkpt>
      <trkpt lat="42.59794" lon="23.02594">
        <ele>747.134179</ele>
        <time>2022-04-05T07:06:38.208Z</time>
      </trkpt>
      <trkpt lat="42.59786" lon="23.02587">
        <ele>746.501908</ele>
        <time>2022-04-05T07:06:42.205Z</time>
      </trkpt>
      <trkpt lat="42.59778" lon="23.0258">
        <ele>745.942397</ele>
        <time>2022-04-05T07:06:45.197Z</time>
      </trkpt>
      <trkpt lat="42.59771" lon="23.02571">
        <ele>745.356409</ele>
        <time>2022-04-05T07:06:48.212Z</time>
      </trkpt>
      <trkpt lat="42.59763" lon="23.02563">
        <ele>744.769352</ele>
        <time>2022-04-05T07:06:51.192Z</time>
      </trkpt>
      <trkpt lat="42.59753" lon="23.02558">
        <ele>744.113615</ele>
        <time>2022-04-05T07:06:55.206Z</time>
      </trkpt>
      <trkpt lat="42.59744" lon="23.02549">
        <ele>743.476049</ele>
        <time>2022-04-05T07:06:59.209Z</time>
      </trkpt>
      <trkpt lat="42.59734" lon="23.02543">
        <ele>742.811029</ele>
        <time>2022-04-05T07:07:03.192Z</time>
      </trkpt>
      <trkpt lat="42.59728" lon="23.02533">
        <ele>742.208743</ele>
        <time>2022-04-05T07:07:06.212Z</time>
      </trkpt>
      <trkpt lat="42.59719" lon="23.02523">
        <ele>741.502453</ele>
        <time>2022-04-05T07:07:09.203Z</time>
      </trkpt>
      <trkpt lat="42.59709" lon="23.02513">
        <ele>740.75361</ele>
        <time>2022-04-05T07:07:12.197Z</time>
      </trkpt>
      <trkpt lat="42.59698" lon="23.02504">
        <ele>739.979752</ele>
        <time>2022-04-05T07:07:15.199Z</time>
      </trkpt>
      <trkpt lat="42.59687" lon="23.02495">
        <ele>739.217002</ele>
        <time>2022-04-05T07:07:18.206Z</time>
      </trkpt>
      <trkpt lat="42.59677" lon="23.02487">
        <ele>738.510801</ele>
        <time>2022-04-05T07:07:21.200Z</time>
      </trkpt>
      <trkpt lat="42.59668" lon="23.02479">
        <ele>737.86085</ele>
        <time>2022-04-05T07:07:24.255Z</time>
      </trkpt>
      <trkpt lat="42.59659" lon="23.02471">
        <ele>737.173008</ele>
        <time>2022-04-05T07:07:27.204Z</time>
      </trkpt>
      <trkpt lat="42.59651" lon="23.02463">
        <ele>736.643773</ele>
        <time>2022-04-05T07:07:30.196Z</time>
      </trkpt>
      <trkpt lat="42.59643" lon="23.02453">
        <ele>737.027114</ele>
        <time>2022-04-05T07:07:34.208Z</time>
      </trkpt>
      <trkpt lat="42.59645" lon="23.0244">
        <ele>737.359162</ele>
        <time>2022-04-05T07:07:37.209Z</time>
      </trkpt>
      <trkpt lat="42.5965" lon="23.02426">
        <ele>737.751125</ele>
        <time>2022-04-05T07:07:40.253Z</time>
      </trkpt>
      <trkpt lat="42.59656" lon="23.02414">
        <ele>738.124879</ele>
        <time>2022-04-05T07:07:43.204Z</time>
      </trkpt>
      <trkpt lat="42.59663" lon="23.02402">
        <ele>738.516992</ele>
        <time>2022-04-05T07:07:46.202Z</time>
      </trkpt>
      <trkpt lat="42.59669" lon="23.0239">
        <ele>738.897398</ele>
        <time>2022-04-05T07:07:49.206Z</time>
      </trkpt>
      <trkpt lat="42.59674" lon="23.02377">
        <ele>739.266363</ele>
        <time>2022-04-05T07:07:52.221Z</time>
      </trkpt>
      <trkpt lat="42.59677" lon="23.02362">
        <ele>739.663552</ele>
        <time>2022-04-05T07:07:55.207Z</time>
      </trkpt>
      <trkpt lat="42.59679" lon="23.02348">
        <ele>740.044295</ele>
        <time>2022-04-05T07:07:58.224Z</time>
      </trkpt>
      <trkpt lat="42.59684" lon="23.02336">
        <ele>740.384103</ele>
        <time>2022-04-05T07:08:01.201Z</time>
      </trkpt>
      <trkpt lat="42.5969" lon="23.02325">
        <ele>740.724631</ele>
        <time>2022-04-05T07:08:04.203Z</time>
      </trkpt>
      <trkpt lat="42.59696" lon="23.02315">
        <ele>741.067702</ele>
        <time>2022-04-05T07:08:07.202Z</time>
      </trkpt>
      <trkpt lat="42.59703" lon="23.02305">
        <ele>741.430612</ele>
        <time>2022-04-05T07:08:10.195Z</time>
      </trkpt>
      <trkpt lat="42.59706" lon="23.02292">
        <ele>741.778197</ele>
        <time>2022-04-05T07:08:14.223Z</time>
      </trkpt>
      <trkpt lat="42.59705" lon="23.02276">
        <ele>742.168591</ele>
        <time>2022-04-05T07:08:18.213Z</time>
      </trkpt>
      <trkpt lat="42.59705" lon="23.02264">
        <ele>742.48131</ele>
        <time>2022-04-05T07:08:21.193Z</time>
      </trkpt>
      <trkpt lat="42.59705" lon="23.0225">
        <ele>742.853039</ele>
        <time>2022-04-05T07:08:24.214Z</time>
      </trkpt>
      <trkpt lat="42.59706" lon="23.02237">
        <ele>742.766757</ele>
        <time>2022-04-05T07:08:27.194Z</time>
      </trkpt>
      <trkpt lat="42.59707" lon="23.02222">
        <ele>742.608681</ele>
        <time>2022-04-05T07:08:30.223Z</time>
      </trkpt>
      <trkpt lat="42.59709" lon="23.02207">
        <ele>742.443603</ele>
        <time>2022-04-05T07:08:33.213Z</time>
      </trkpt>
      <trkpt lat="42.5971" lon="23.02193">
        <ele>742.290333</ele>
        <time>2022-04-05T07:08:36.198Z</time>
      </trkpt>
      <trkpt lat="42.59709" lon="23.02179">
        <ele>742.142592</ele>
        <time>2022-04-05T07:08:39.211Z</time>
      </trkpt>
      <trkpt lat="42.5971" lon="23.02165">
        <ele>741.991444</ele>
        <time>2022-04-05T07:08:42.203Z</time>
      </trkpt>
      <trkpt lat="42.59709" lon="23.02149">
        <ele>741.825039</ele>
        <time>2022-04-05T07:08:45.209Z</time>
      </trkpt>
      <trkpt lat="42.59708" lon="23.02134">
        <ele>741.669078</ele>
        <time>2022-04-05T07:08:48.203Z</time>
      </trkpt>
      <trkpt lat="42.59707" lon="23.0212">
        <ele>741.520178</ele>
        <time>2022-04-05T07:08:52.196Z</time>
      </trkpt>
      <trkpt lat="42.59705" lon="23.02108">
        <ele>741.38392</ele>
        <time>2022-04-05T07:08:55.199Z</time>
      </trkpt>
      <trkpt lat="42.59705" lon="23.02095">
        <ele>741.246713</ele>
        <time>2022-04-05T07:08:58.216Z</time>
      </trkpt>
      <trkpt lat="42.59704" lon="23.02082">
        <ele>741.113096</ele>
        <time>2022-04-05T07:09:01.215Z</time>
      </trkpt>
      <trkpt lat="42.59704" lon="23.0207">
        <ele>740.979199</ele>
        <time>2022-04-05T07:09:04.194Z</time>
      </trkpt>
      <trkpt lat="42.59704" lon="23.02056">
        <ele>740.837797</ele>
        <time>2022-04-05T07:09:07.223Z</time>
      </trkpt>
      <trkpt lat="42.59704" lon="23.02041">
        <ele>740.675047</ele>
        <time>2022-04-05T07:09:11.216Z</time>
      </trkpt>
      <trkpt lat="42.59706" lon="23.02025">
        <ele>740.501351</ele>
        <time>2022-04-05T07:09:15.202Z</time>
      </trkpt>
      <trkpt lat="42.59707" lon="23.02011">
        <ele>740.354127</ele>
        <time>2022-04-05T07:09:18.199Z</time>
      </trkpt>
      <trkpt lat="42.59706" lon="23.01999">
        <ele>740.576248</ele>
        <time>2022-04-05T07:09:21.192Z</time>
      </trkpt>
      <trkpt lat="42.59705" lon="23.01984">
        <ele>741.280457</ele>
        <time>2022-04-05T07:09:25.211Z</time>
      </trkpt>
      <trkpt lat="42.59704" lon="23.01969">
        <ele>741.983411</ele>
        <time>2022-04-05T07:09:29.207Z</time>
      </trkpt>
      <trkpt lat="42.59704" lon="23.01956">
        <ele>742.580144</ele>
        <time>2022-04-05T07:09:32.195Z</time>
      </trkpt>
      <trkpt lat="42.59704" lon="23.01943">
        <ele>743.16724</ele>
        <time>2022-04-05T07:09:35.207Z</time>
      </trkpt>
      <trkpt lat="42.59702" lon="23.0193">
        <ele>743.782025</ele>
        <time>2022-04-05T07:09:41.249Z</time>
      </trkpt>
      <trkpt lat="42.59702" lon="23.01917">
        <ele>744.397229</ele>
        <time>2022-04-05T07:09:48.193Z</time>
      </trkpt>
      <trkpt lat="42.59704" lon="23.01904">
        <ele>744.982244</ele>
        <time>2022-04-05T07:09:54.210Z</time>
      </trkpt>
      <trkpt lat="42.59704" lon="23.01891">
        <ele>745.597449</ele>
        <time>2022-04-05T07:10:01.222Z</time>
      </trkpt>
      <trkpt lat="42.59705" lon="23.01878">
        <ele>746.176393</ele>
        <time>2022-04-05T07:10:07.199Z</time>
      </trkpt>
      <trkpt lat="42.59705" lon="23.01865">
        <ele>746.786496</ele>
        <time>2022-04-05T07:10:14.227Z</time>
      </trkpt>
      <trkpt lat="42.59702" lon="23.01853">
        <ele>747.398151</ele>
        <time>2022-04-05T07:10:23.223Z</time>
      </trkpt>
      <trkpt lat="42.597" lon="23.01841">
        <ele>747.965445</ele>
        <time>2022-04-05T07:10:32.207Z</time>
      </trkpt>
      <trkpt lat="42.59698" lon="23.01828">
        <ele>748.55535</ele>
        <time>2022-04-05T07:10:41.226Z</time>
      </trkpt>
      <trkpt lat="42.59694" lon="23.01816">
        <ele>749.188947</ele>
        <time>2022-04-05T07:10:50.233Z</time>
      </trkpt>
      <trkpt lat="42.5969" lon="23.01804">
        <ele>749.799052</ele>
        <time>2022-04-05T07:11:00.205Z</time>
      </trkpt>
      <trkpt lat="42.59684" lon="23.01793">
        <ele>750.391036</ele>
        <time>2022-04-05T07:11:09.206Z</time>
      </trkpt>
      <trkpt lat="42.59679" lon="23.01782">
        <ele>750.995231</ele>
        <time>2022-04-05T07:11:18.208Z</time>
      </trkpt>
      <trkpt lat="42.59675" lon="23.01771">
        <ele>751.570573</ele>
        <time>2022-04-05T07:11:28.223Z</time>
      </trkpt>
      <trkpt lat="42.59668" lon="23.01761">
        <ele>752.019064</ele>
        <time>2022-04-05T07:11:38.210Z</time>
      </trkpt>
      <trkpt lat="42.59662" lon="23.01751">
        <ele>752.444392</ele>
        <time>2022-04-05T07:11:47.219Z</time>
      </trkpt>
      <trkpt lat="42.59655" lon="23.01742">
        <ele>752.863424</ele>
        <time>2022-04-05T07:11:57.207Z</time>
      </trkpt>
      <trkpt lat="42.59648" lon="23.01734">
        <ele>753.264604</ele>
        <time>2022-04-05T07:12:06.204Z</time>
      </trkpt>
      <trkpt lat="42.59641" lon="23.01726">
        <ele>753.670599</ele>
        <time>2022-04-05T07:12:15.201Z</time>
      </trkpt>
      <trkpt lat="42.59632" lon="23.01722">
        <ele>754.082799</ele>
        <time>2022-04-05T07:12:25.208Z</time>
      </trkpt>
      <trkpt lat="42.59619" lon="23.01702">
        <ele>754.947273</ele>
        <time>2022-04-05T07:27:04.228Z</time>
      </trkpt>
      <trkpt lat="42.59613" lon="23.01692">
        <ele>755.38074</ele>
        <time>2022-04-05T07:27:12.212Z</time>
      </trkpt>
      <trkpt lat="42.59608" lon="23.01681">
        <ele>755.780489</ele>
        <time>2022-04-05T07:27:19.204Z</time>
      </trkpt>
      <trkpt lat="42.59604" lon="23.01669">
        <ele>756.223805</ele>
        <time>2022-04-05T07:27:26.218Z</time>
      </trkpt>
      <trkpt lat="42.59602" lon="23.01656">
        <ele>756.643662</ele>
        <time>2022-04-05T07:27:32.204Z</time>
      </trkpt>
      <trkpt lat="42.59599" lon="23.01643">
        <ele>757.089695</ele>
        <time>2022-04-05T07:27:38.220Z</time>
      </trkpt>
      <trkpt lat="42.59594" lon="23.01629">
        <ele>757.57941</ele>
        <time>2022-04-05T07:27:44.209Z</time>
      </trkpt>
      <trkpt lat="42.59591" lon="23.01614">
        <ele>758.092756</ele>
        <time>2022-04-05T07:27:48.234Z</time>
      </trkpt>
      <trkpt lat="42.59589" lon="23.01598">
        <ele>758.620833</ele>
        <time>2022-04-05T07:27:51.232Z</time>
      </trkpt>
      <trkpt lat="42.59586" lon="23.01582">
        <ele>759.144914</ele>
        <time>2022-04-05T07:27:54.219Z</time>
      </trkpt>
      <trkpt lat="42.59584" lon="23.01564">
        <ele>758.963196</ele>
        <time>2022-04-05T07:27:57.230Z</time>
      </trkpt>
      <trkpt lat="42.59583" lon="23.01549">
        <ele>758.017774</ele>
        <time>2022-04-05T07:27:59.261Z</time>
      </trkpt>
      <trkpt lat="42.59581" lon="23.01536">
        <ele>757.129359</ele>
        <time>2022-04-05T07:28:01.241Z</time>
      </trkpt>
      <trkpt lat="42.59579" lon="23.01521">
        <ele>756.188269</ele>
        <time>2022-04-05T07:28:03.256Z</time>
      </trkpt>
      <trkpt lat="42.59576" lon="23.01508">
        <ele>755.307845</ele>
        <time>2022-04-05T07:28:05.214Z</time>
      </trkpt>
      <trkpt lat="42.59574" lon="23.01495">
        <ele>754.433664</ele>
        <time>2022-04-05T07:28:07.233Z</time>
      </trkpt>
      <trkpt lat="42.59571" lon="23.0148">
        <ele>753.455194</ele>
        <time>2022-04-05T07:28:09.226Z</time>
      </trkpt>
      <trkpt lat="42.59568" lon="23.01466">
        <ele>752.530921</ele>
        <time>2022-04-05T07:28:11.225Z</time>
      </trkpt>
      <trkpt lat="42.59565" lon="23.01451">
        <ele>751.488536</ele>
        <time>2022-04-05T07:28:14.233Z</time>
      </trkpt>
      <trkpt lat="42.59562" lon="23.01436">
        <ele>750.547444</ele>
        <time>2022-04-05T07:28:17.204Z</time>
      </trkpt>
      <trkpt lat="42.59558" lon="23.01423">
        <ele>749.597051</ele>
        <time>2022-04-05T07:28:20.219Z</time>
      </trkpt>
      <trkpt lat="42.59554" lon="23.0141">
        <ele>748.682956</ele>
        <time>2022-04-05T07:28:23.228Z</time>
      </trkpt>
      <trkpt lat="42.59548" lon="23.01394">
        <ele>747.545906</ele>
        <time>2022-04-05T07:28:26.220Z</time>
      </trkpt>
      <trkpt lat="42.59543" lon="23.0138">
        <ele>746.519956</ele>
        <time>2022-04-05T07:28:29.218Z</time>
      </trkpt>
      <trkpt lat="42.59537" lon="23.01368">
        <ele>745.613443</ele>
        <time>2022-04-05T07:28:33.249Z</time>
      </trkpt>
      <trkpt lat="42.59531" lon="23.01357">
        <ele>744.733021</ele>
        <time>2022-04-05T07:28:37.222Z</time>
      </trkpt>
      <trkpt lat="42.59526" lon="23.01347">
        <ele>743.914915</ele>
        <time>2022-04-05T07:28:41.239Z</time>
      </trkpt>
      <trkpt lat="42.59522" lon="23.01334">
        <ele>743.475438</ele>
        <time>2022-04-05T07:28:45.220Z</time>
      </trkpt>
      <trkpt lat="42.59515" lon="23.01321">
        <ele>743.055975</ele>
        <time>2022-04-05T07:28:49.224Z</time>
      </trkpt>
      <trkpt lat="42.59509" lon="23.01307">
        <ele>742.628817</ele>
        <time>2022-04-05T07:28:53.234Z</time>
      </trkpt>
      <trkpt lat="42.59504" lon="23.01296">
        <ele>742.292616</ele>
        <time>2022-04-05T07:28:57.235Z</time>
      </trkpt>
      <trkpt lat="42.59498" lon="23.01283">
        <ele>741.907836</ele>
        <time>2022-04-05T07:29:02.217Z</time>
      </trkpt>
      <trkpt lat="42.59493" lon="23.01272">
        <ele>741.556886</ele>
        <time>2022-04-05T07:29:06.200Z</time>
      </trkpt>
      <trkpt lat="42.59488" lon="23.01261">
        <ele>741.223845</ele>
        <time>2022-04-05T07:29:09.207Z</time>
      </trkpt>
      <trkpt lat="42.59481" lon="23.01248">
        <ele>740.814366</ele>
        <time>2022-04-05T07:29:13.222Z</time>
      </trkpt>
      <trkpt lat="42.59476" lon="23.01238">
        <ele>740.466612</ele>
        <time>2022-04-05T07:29:17.219Z</time>
      </trkpt>
      <trkpt lat="42.59472" lon="23.01224">
        <ele>740.085792</ele>
        <time>2022-04-05T07:29:22.225Z</time>
      </trkpt>
      <trkpt lat="42.59465" lon="23.01213">
        <ele>739.720737</ele>
        <time>2022-04-05T07:29:27.210Z</time>
      </trkpt>
      <trkpt lat="42.59459" lon="23.01201">
        <ele>739.338749</ele>
        <time>2022-04-05T07:29:32.236Z</time>
      </trkpt>
      <trkpt lat="42.59457" lon="23.01188">
        <ele>738.99127</ele>
        <time>2022-04-05T07:29:39.206Z</time>
      </trkpt>
      <trkpt lat="42.5945" lon="23.01178">
        <ele>738.649396</ele>
        <time>2022-04-05T07:29:46.220Z</time>
      </trkpt>
      <trkpt lat="42.59441" lon="23.01161">
        <ele>738.071952</ele>
        <time>2022-04-05T07:30:36.236Z</time>
      </trkpt>
      <trkpt lat="42.59434" lon="23.01146">
        <ele>737.628052</ele>
        <time>2022-04-05T07:30:40.223Z</time>
      </trkpt>
      <trkpt lat="42.59429" lon="23.01136">
        <ele>737.255118</ele>
        <time>2022-04-05T07:30:42.209Z</time>
      </trkpt>
      <trkpt lat="42.59425" lon="23.01125">
        <ele>736.753066</ele>
        <time>2022-04-05T07:30:44.216Z</time>
      </trkpt>
      <trkpt lat="42.5942" lon="23.01113">
        <ele>736.247506</ele>
        <time>2022-04-05T07:30:46.264Z</time>
      </trkpt>
      <trkpt lat="42.59416" lon="23.011">
        <ele>735.675228</ele>
        <time>2022-04-05T07:30:48.228Z</time>
      </trkpt>
      <trkpt lat="42.5941" lon="23.01085">
        <ele>735.009211</ele>
        <time>2022-04-05T07:30:50.229Z</time>
      </trkpt>
      <trkpt lat="42.59403" lon="23.01068">
        <ele>734.236603</ele>
        <time>2022-04-05T07:30:52.232Z</time>
      </trkpt>
      <trkpt lat="42.59395" lon="23.01049">
        <ele>733.360539</ele>
        <time>2022-04-05T07:30:54.226Z</time>
      </trkpt>
      <trkpt lat="42.59388" lon="23.01029">
        <ele>732.461392</ele>
        <time>2022-04-05T07:30:56.228Z</time>
      </trkpt>
      <trkpt lat="42.59381" lon="23.01008">
        <ele>731.569948</ele>
        <time>2022-04-05T07:30:58.236Z</time>
      </trkpt>
      <trkpt lat="42.59374" lon="23.00989">
        <ele>730.713098</ele>
        <time>2022-04-05T07:31:00.217Z</time>
      </trkpt>
      <trkpt lat="42.59367" lon="23.00971">
        <ele>729.89095</ele>
        <time>2022-04-05T07:31:02.226Z</time>
      </trkpt>
      <trkpt lat="42.5936" lon="23.00953">
        <ele>729.093917</ele>
        <time>2022-04-05T07:31:04.219Z</time>
      </trkpt>
      <trkpt lat="42.59353" lon="23.00936">
        <ele>728.317102</ele>
        <time>2022-04-05T07:31:06.262Z</time>
      </trkpt>
      <trkpt lat="42.59346" lon="23.0092">
        <ele>727.559266</ele>
        <time>2022-04-05T07:31:08.236Z</time>
      </trkpt>
      <trkpt lat="42.59339" lon="23.00904">
        <ele>726.775127</ele>
        <time>2022-04-05T07:31:10.216Z</time>
      </trkpt>
      <trkpt lat="42.59335" lon="23.00887">
        <ele>726.038939</ele>
        <time>2022-04-05T07:31:12.225Z</time>
      </trkpt>
      <trkpt lat="42.59334" lon="23.00869">
        <ele>725.257975</ele>
        <time>2022-04-05T07:31:14.221Z</time>
      </trkpt>
      <trkpt lat="42.59335" lon="23.00852">
        <ele>724.539373</ele>
        <time>2022-04-05T07:31:16.236Z</time>
      </trkpt>
      <trkpt lat="42.59336" lon="23.00837">
        <ele>723.87806</ele>
        <time>2022-04-05T07:31:18.201Z</time>
      </trkpt>
      <trkpt lat="42.5934" lon="23.00824">
        <ele>723.274162</ele>
        <time>2022-04-05T07:31:20.205Z</time>
      </trkpt>
      <trkpt lat="42.59343" lon="23.00811">
        <ele>722.704625</ele>
        <time>2022-04-05T07:31:22.212Z</time>
      </trkpt>
      <trkpt lat="42.59346" lon="23.00799">
        <ele>722.178201</ele>
        <time>2022-04-05T07:31:24.220Z</time>
      </trkpt>
      <trkpt lat="42.59349" lon="23.00782">
        <ele>721.425532</ele>
        <time>2022-04-05T07:31:27.216Z</time>
      </trkpt>
      <trkpt lat="42.59351" lon="23.00767">
        <ele>720.756946</ele>
        <time>2022-04-05T07:31:30.208Z</time>
      </trkpt>
      <trkpt lat="42.59354" lon="23.00754">
        <ele>720.1508</ele>
        <time>2022-04-05T07:31:33.212Z</time>
      </trkpt>
      <trkpt lat="42.59356" lon="23.00741">
        <ele>719.601964</ele>
        <time>2022-04-05T07:31:36.206Z</time>
      </trkpt>
      <trkpt lat="42.59359" lon="23.00725">
        <ele>718.918452</ele>
        <time>2022-04-05T07:31:40.212Z</time>
      </trkpt>
      <trkpt lat="42.59361" lon="23.00712">
        <ele>718.346831</ele>
        <time>2022-04-05T07:31:43.239Z</time>
      </trkpt>
      <trkpt lat="42.59363" lon="23.00699">
        <ele>717.770854</ele>
        <time>2022-04-05T07:31:46.208Z</time>
      </trkpt>
      <trkpt lat="42.59366" lon="23.00687">
        <ele>717.240335</ele>
        <time>2022-04-05T07:31:49.235Z</time>
      </trkpt>
      <trkpt lat="42.59367" lon="23.00675">
        <ele>717.268337</ele>
        <time>2022-04-05T07:31:52.225Z</time>
      </trkpt>
      <trkpt lat="42.59365" lon="23.00662">
        <ele>717.309846</ele>
        <time>2022-04-05T07:31:55.219Z</time>
      </trkpt>
      <trkpt lat="42.59362" lon="23.0065">
        <ele>717.3511</ele>
        <time>2022-04-05T07:31:58.231Z</time>
      </trkpt>
      <trkpt lat="42.59356" lon="23.0064">
        <ele>717.391886</ele>
        <time>2022-04-05T07:32:01.213Z</time>
      </trkpt>
      <trkpt lat="42.59345" lon="23.00633">
        <ele>717.445482</ele>
        <time>2022-04-05T07:32:05.234Z</time>
      </trkpt>
      <trkpt lat="42.59335" lon="23.0063">
        <ele>717.489101</ele>
        <time>2022-04-05T07:32:08.219Z</time>
      </trkpt>
      <trkpt lat="42.59325" lon="23.00628">
        <ele>717.53272</ele>
        <time>2022-04-05T07:32:11.217Z</time>
      </trkpt>
      <trkpt lat="42.59316" lon="23.00628">
        <ele>717.574417</ele>
        <time>2022-04-05T07:32:14.236Z</time>
      </trkpt>
      <trkpt lat="42.59307" lon="23.00628">
        <ele>717.61355</ele>
        <time>2022-04-05T07:32:17.211Z</time>
      </trkpt>
      <trkpt lat="42.59298" lon="23.00629">
        <ele>717.653082</ele>
        <time>2022-04-05T07:32:20.252Z</time>
      </trkpt>
      <trkpt lat="42.59288" lon="23.00628">
        <ele>717.693164</ele>
        <time>2022-04-05T07:32:23.225Z</time>
      </trkpt>
      <trkpt lat="42.59279" lon="23.00625">
        <ele>717.733567</ele>
        <time>2022-04-05T07:32:26.207Z</time>
      </trkpt>
      <trkpt lat="42.59269" lon="23.00617">
        <ele>717.782719</ele>
        <time>2022-04-05T07:32:30.216Z</time>
      </trkpt>
      <trkpt lat="42.59265" lon="23.00605">
        <ele>717.825676</ele>
        <time>2022-04-05T07:32:33.207Z</time>
      </trkpt>
      <trkpt lat="42.59264" lon="23.00592">
        <ele>717.868888</ele>
        <time>2022-04-05T07:32:36.307Z</time>
      </trkpt>
      <trkpt lat="42.59264" lon="23.00579">
        <ele>717.91046</ele>
        <time>2022-04-05T07:32:39.286Z</time>
      </trkpt>
      <trkpt lat="42.59264" lon="23.00564">
        <ele>717.958098</ele>
        <time>2022-04-05T07:32:43.233Z</time>
      </trkpt>
      <trkpt lat="42.59264" lon="23.00549">
        <ele>718.005416</ele>
        <time>2022-04-05T07:32:47.211Z</time>
      </trkpt>
      <trkpt lat="42.59264" lon="23.00533">
        <ele>718.772573</ele>
        <time>2022-04-05T07:32:51.218Z</time>
      </trkpt>
      <trkpt lat="42.59264" lon="23.0052">
        <ele>719.464395</ele>
        <time>2022-04-05T07:32:54.208Z</time>
      </trkpt>
      <trkpt lat="42.59265" lon="23.00506">
        <ele>720.159779</ele>
        <time>2022-04-05T07:32:57.212Z</time>
      </trkpt>
      <trkpt lat="42.59266" lon="23.00493">
        <ele>720.850476</ele>
        <time>2022-04-05T07:33:00.259Z</time>
      </trkpt>
      <trkpt lat="42.59267" lon="23.0048">
        <ele>721.535512</ele>
        <time>2022-04-05T07:33:03.206Z</time>
      </trkpt>
      <trkpt lat="42.59268" lon="23.00468">
        <ele>722.186031</ele>
        <time>2022-04-05T07:33:06.206Z</time>
      </trkpt>
      <trkpt lat="42.59268" lon="23.00455">
        <ele>722.831352</ele>
        <time>2022-04-05T07:33:09.257Z</time>
      </trkpt>
      <trkpt lat="42.59268" lon="23.00443">
        <ele>723.48168</ele>
        <time>2022-04-05T07:33:12.214Z</time>
      </trkpt>
      <trkpt lat="42.59268" lon="23.0043">
        <ele>724.173501</ele>
        <time>2022-04-05T07:33:15.200Z</time>
      </trkpt>
      <trkpt lat="42.59268" lon="23.00417">
        <ele>724.813272</ele>
        <time>2022-04-05T07:33:18.207Z</time>
      </trkpt>
      <trkpt lat="42.59268" lon="23.00401">
        <ele>725.640294</ele>
        <time>2022-04-05T07:33:22.303Z</time>
      </trkpt>
      <trkpt lat="42.59268" lon="23.00386">
        <ele>726.441308</ele>
        <time>2022-04-05T07:33:26.230Z</time>
      </trkpt>
      <trkpt lat="42.59268" lon="23.0037">
        <ele>727.263159</ele>
        <time>2022-04-05T07:33:30.203Z</time>
      </trkpt>
      <trkpt lat="42.59268" lon="23.00356">
        <ele>727.9971</ele>
        <time>2022-04-05T07:33:34.239Z</time>
      </trkpt>
      <trkpt lat="42.59268" lon="23.00341">
        <ele>728.767035</ele>
        <time>2022-04-05T07:33:38.227Z</time>
      </trkpt>
      <trkpt lat="42.59268" lon="23.00325">
        <ele>729.620064</ele>
        <time>2022-04-05T07:33:42.205Z</time>
      </trkpt>
      <trkpt lat="42.59268" lon="23.00312">
        <ele>730.285842</ele>
        <time>2022-04-05T07:33:45.207Z</time>
      </trkpt>
      <trkpt lat="42.59268" lon="23.003">
        <ele>730.849829</ele>
        <time>2022-04-05T07:33:48.207Z</time>
      </trkpt>
      <trkpt lat="42.59269" lon="23.00287">
        <ele>731.240283</ele>
        <time>2022-04-05T07:33:51.197Z</time>
      </trkpt>
      <trkpt lat="42.5927" lon="23.00272">
        <ele>731.719405</ele>
        <time>2022-04-05T07:33:55.263Z</time>
      </trkpt>
      <trkpt lat="42.59269" lon="23.00258">
        <ele>732.168875</ele>
        <time>2022-04-05T07:33:59.225Z</time>
      </trkpt>
      <trkpt lat="42.59269" lon="23.00243">
        <ele>732.627337</ele>
        <time>2022-04-05T07:34:03.211Z</time>
      </trkpt>
      <trkpt lat="42.5927" lon="23.00227">
        <ele>733.133964</ele>
        <time>2022-04-05T07:34:07.241Z</time>
      </trkpt>
      <trkpt lat="42.5927" lon="23.00211">
        <ele>733.630095</ele>
        <time>2022-04-05T07:34:11.223Z</time>
      </trkpt>
      <trkpt lat="42.5927" lon="23.00195">
        <ele>734.138873</ele>
        <time>2022-04-05T07:34:15.214Z</time>
      </trkpt>
      <trkpt lat="42.5927" lon="23.00179">
        <ele>734.641282</ele>
        <time>2022-04-05T07:34:19.225Z</time>
      </trkpt>
      <trkpt lat="42.5927" lon="23.00165">
        <ele>735.06846</ele>
        <time>2022-04-05T07:34:22.220Z</time>
      </trkpt>
      <trkpt lat="42.5927" lon="23.00153">
        <ele>735.454656</ele>
        <time>2022-04-05T07:34:25.221Z</time>
      </trkpt>
      <trkpt lat="42.59271" lon="23.00141">
        <ele>735.844807</ele>
        <time>2022-04-05T07:34:28.235Z</time>
      </trkpt>
      <trkpt lat="42.59272" lon="23.00127">
        <ele>736.277967</ele>
        <time>2022-04-05T07:34:31.211Z</time>
      </trkpt>
      <trkpt lat="42.59273" lon="23.00113">
        <ele>736.716886</ele>
        <time>2022-04-05T07:34:34.233Z</time>
      </trkpt>
      <trkpt lat="42.59275" lon="23.00099">
        <ele>737.172365</ele>
        <time>2022-04-05T07:34:37.224Z</time>
      </trkpt>
      <trkpt lat="42.59277" lon="23.00085">
        <ele>737.624883</ele>
        <time>2022-04-05T07:34:40.198Z</time>
      </trkpt>
      <trkpt lat="42.59279" lon="23.00071">
        <ele>738.0774</ele>
        <time>2022-04-05T07:34:43.237Z</time>
      </trkpt>
      <trkpt lat="42.59282" lon="23.00057">
        <ele>738.298118</ele>
        <time>2022-04-05T07:34:46.224Z</time>
      </trkpt>
      <trkpt lat="42.59285" lon="23.00043">
        <ele>738.021115</ele>
        <time>2022-04-05T07:34:49.240Z</time>
      </trkpt>
      <trkpt lat="42.59289" lon="23.0003">
        <ele>737.744446</ele>
        <time>2022-04-05T07:34:52.225Z</time>
      </trkpt>
      <trkpt lat="42.59292" lon="23.00018">
        <ele>737.490759</ele>
        <time>2022-04-05T07:34:55.218Z</time>
      </trkpt>
      <trkpt lat="42.59296" lon="23.00005">
        <ele>737.23049</ele>
        <time>2022-04-05T07:34:58.240Z</time>
      </trkpt>
      <trkpt lat="42.59299" lon="22.99993">
        <ele>736.976667</ele>
        <time>2022-04-05T07:35:01.222Z</time>
      </trkpt>
      <trkpt lat="42.59303" lon="22.99981">
        <ele>736.719725</ele>
        <time>2022-04-05T07:35:04.233Z</time>
      </trkpt>
      <trkpt lat="42.59307" lon="22.9997">
        <ele>736.475685</ele>
        <time>2022-04-05T07:35:07.228Z</time>
      </trkpt>
      <trkpt lat="42.59311" lon="22.99959">
        <ele>736.228317</ele>
        <time>2022-04-05T07:35:10.220Z</time>
      </trkpt>
      <trkpt lat="42.59314" lon="22.99947">
        <ele>735.987386</ele>
        <time>2022-04-05T07:35:13.226Z</time>
      </trkpt>
      <trkpt lat="42.59319" lon="22.99932">
        <ele>735.673732</ele>
        <time>2022-04-05T07:35:17.224Z</time>
      </trkpt>
      <trkpt lat="42.59322" lon="22.99921">
        <ele>735.432918</ele>
        <time>2022-04-05T07:35:20.215Z</time>
      </trkpt>
      <trkpt lat="42.59326" lon="22.99909">
        <ele>735.184394</ele>
        <time>2022-04-05T07:35:23.226Z</time>
      </trkpt>
      <trkpt lat="42.5933" lon="22.99898">
        <ele>734.936381</ele>
        <time>2022-04-05T07:35:26.252Z</time>
      </trkpt>
      <trkpt lat="42.59334" lon="22.99887">
        <ele>734.696246</ele>
        <time>2022-04-05T07:35:29.204Z</time>
      </trkpt>
      <trkpt lat="42.59337" lon="22.99875">
        <ele>734.454478</ele>
        <time>2022-04-05T07:35:32.225Z</time>
      </trkpt>
      <trkpt lat="42.59341" lon="22.99861">
        <ele>734.159146</ele>
        <time>2022-04-05T07:35:36.218Z</time>
      </trkpt>
      <trkpt lat="42.59345" lon="22.99847">
        <ele>733.866871</ele>
        <time>2022-04-05T07:35:40.232Z</time>
      </trkpt>
      <trkpt lat="42.59348" lon="22.99834">
        <ele>733.620981</ele>
        <time>2022-04-05T07:35:44.226Z</time>
      </trkpt>
      <trkpt lat="42.59352" lon="22.99819">
        <ele>733.923002</ele>
        <time>2022-04-05T07:35:48.241Z</time>
      </trkpt>
      <trkpt lat="42.59356" lon="22.99804">
        <ele>734.215243</ele>
        <time>2022-04-05T07:35:52.243Z</time>
      </trkpt>
      <trkpt lat="42.5936" lon="22.9979">
        <ele>734.511903</ele>
        <time>2022-04-05T07:35:56.216Z</time>
      </trkpt>
      <trkpt lat="42.59364" lon="22.99776">
        <ele>734.789845</ele>
        <time>2022-04-05T07:36:00.222Z</time>
      </trkpt>
      <trkpt lat="42.59369" lon="22.99764">
        <ele>735.063665</ele>
        <time>2022-04-05T07:36:04.221Z</time>
      </trkpt>
      <trkpt lat="42.59375" lon="22.9975">
        <ele>735.355438</ele>
        <time>2022-04-05T07:36:08.221Z</time>
      </trkpt>
      <trkpt lat="42.59381" lon="22.99736">
        <ele>735.654274</ele>
        <time>2022-04-05T07:36:12.224Z</time>
      </trkpt>
      <trkpt lat="42.59386" lon="22.99724">
        <ele>735.927641</ele>
        <time>2022-04-05T07:36:16.255Z</time>
      </trkpt>
      <trkpt lat="42.59392" lon="22.99713">
        <ele>736.192949</ele>
        <time>2022-04-05T07:36:20.227Z</time>
      </trkpt>
      <trkpt lat="42.59397" lon="22.99703">
        <ele>736.432688</ele>
        <time>2022-04-05T07:36:24.220Z</time>
      </trkpt>
      <trkpt lat="42.59404" lon="22.99691">
        <ele>736.716468</ele>
        <time>2022-04-05T07:36:29.238Z</time>
      </trkpt>
      <trkpt lat="42.59412" lon="22.99682">
        <ele>736.982753</ele>
        <time>2022-04-05T07:36:33.261Z</time>
      </trkpt>
      <trkpt lat="42.59421" lon="22.99674">
        <ele>737.259882</ele>
        <time>2022-04-05T07:36:38.227Z</time>
      </trkpt>
      <trkpt lat="42.59429" lon="22.99665">
        <ele>737.537496</ele>
        <time>2022-04-05T07:36:43.211Z</time>
      </trkpt>
      <trkpt lat="42.59438" lon="22.99655">
        <ele>737.826243</ele>
        <time>2022-04-05T07:36:48.216Z</time>
      </trkpt>
      <trkpt lat="42.59445" lon="22.99647">
        <ele>738.068552</ele>
        <time>2022-04-05T07:36:52.253Z</time>
      </trkpt>
      <trkpt lat="42.59454" lon="22.99637">
        <ele>738.531876</ele>
        <time>2022-04-05T07:36:57.238Z</time>
      </trkpt>
      <trkpt lat="42.59461" lon="22.9963">
        <ele>739.16581</ele>
        <time>2022-04-05T07:37:01.244Z</time>
      </trkpt>
      <trkpt lat="42.59469" lon="22.99622">
        <ele>739.844221</ele>
        <time>2022-04-05T07:37:05.216Z</time>
      </trkpt>
      <trkpt lat="42.59475" lon="22.99613">
        <ele>740.493132</ele>
        <time>2022-04-05T07:37:09.237Z</time>
      </trkpt>
      <trkpt lat="42.59483" lon="22.99604">
        <ele>741.241041</ele>
        <time>2022-04-05T07:37:14.214Z</time>
      </trkpt>
      <trkpt lat="42.59491" lon="22.99594">
        <ele>741.975261</ele>
        <time>2022-04-05T07:37:19.244Z</time>
      </trkpt>
      <trkpt lat="42.59499" lon="22.99586">
        <ele>742.709411</ele>
        <time>2022-04-05T07:37:24.222Z</time>
      </trkpt>
      <trkpt lat="42.59507" lon="22.99577">
        <ele>743.450001</ele>
        <time>2022-04-05T07:37:29.208Z</time>
      </trkpt>
      <trkpt lat="42.59514" lon="22.99567">
        <ele>744.129104</ele>
        <time>2022-04-05T07:37:35.272Z</time>
      </trkpt>
      <trkpt lat="42.59521" lon="22.99557">
        <ele>744.856939</ele>
        <time>2022-04-05T07:37:40.232Z</time>
      </trkpt>
      <trkpt lat="42.59528" lon="22.99546">
        <ele>745.616829</ele>
        <time>2022-04-05T07:37:45.230Z</time>
      </trkpt>
      <trkpt lat="42.59535" lon="22.99535">
        <ele>746.353937</ele>
        <time>2022-04-05T07:37:50.220Z</time>
      </trkpt>
      <trkpt lat="42.59542" lon="22.99524">
        <ele>747.118496</ele>
        <time>2022-04-05T07:37:55.231Z</time>
      </trkpt>
      <trkpt lat="42.59548" lon="22.99514">
        <ele>747.805619</ele>
        <time>2022-04-05T07:37:59.244Z</time>
      </trkpt>
      <trkpt lat="42.59555" lon="22.99503">
        <ele>748.525114</ele>
        <time>2022-04-05T07:38:03.206Z</time>
      </trkpt>
      <trkpt lat="42.59561" lon="22.9949">
        <ele>749.34924</ele>
        <time>2022-04-05T07:38:07.219Z</time>
      </trkpt>
      <trkpt lat="42.59566" lon="22.99479">
        <ele>750.04215</ele>
        <time>2022-04-05T07:38:11.224Z</time>
      </trkpt>
      <trkpt lat="42.59572" lon="22.99467">
        <ele>750.781571</ele>
        <time>2022-04-05T07:38:15.224Z</time>
      </trkpt>
      <trkpt lat="42.59577" lon="22.99454">
        <ele>750.520141</ele>
        <time>2022-04-05T07:38:19.248Z</time>
      </trkpt>
      <trkpt lat="42.59581" lon="22.99441">
        <ele>749.963006</ele>
        <time>2022-04-05T07:38:23.218Z</time>
      </trkpt>
      <trkpt lat="42.59585" lon="22.99427">
        <ele>749.407849</ele>
        <time>2022-04-05T07:38:27.278Z</time>
      </trkpt>
      <trkpt lat="42.59589" lon="22.99413">
        <ele>748.840393</ele>
        <time>2022-04-05T07:38:31.226Z</time>
      </trkpt>
      <trkpt lat="42.59592" lon="22.99398">
        <ele>748.238007</ele>
        <time>2022-04-05T07:38:35.234Z</time>
      </trkpt>
      <trkpt lat="42.59594" lon="22.99385">
        <ele>747.727627</ele>
        <time>2022-04-05T07:38:38.228Z</time>
      </trkpt>
      <trkpt lat="42.59596" lon="22.99372">
        <ele>747.216419</ele>
        <time>2022-04-05T07:38:41.222Z</time>
      </trkpt>
      <trkpt lat="42.59597" lon="22.99358">
        <ele>746.699306</ele>
        <time>2022-04-05T07:38:44.221Z</time>
      </trkpt>
      <trkpt lat="42.59597" lon="22.99344">
        <ele>746.168815</ele>
        <time>2022-04-05T07:38:47.225Z</time>
      </trkpt>
      <trkpt lat="42.59597" lon="22.9933">
        <ele>745.604193</ele>
        <time>2022-04-05T07:38:50.212Z</time>
      </trkpt>
      <trkpt lat="42.59597" lon="22.99314">
        <ele>744.997544</ele>
        <time>2022-04-05T07:38:53.228Z</time>
      </trkpt>
      <trkpt lat="42.59596" lon="22.99296">
        <ele>744.309914</ele>
        <time>2022-04-05T07:38:56.234Z</time>
      </trkpt>
      <trkpt lat="42.59596" lon="22.99283">
        <ele>743.804199</ele>
        <time>2022-04-05T07:38:58.223Z</time>
      </trkpt>
      <trkpt lat="42.59594" lon="22.99269">
        <ele>743.296152</ele>
        <time>2022-04-05T07:39:00.227Z</time>
      </trkpt>
      <trkpt lat="42.59593" lon="22.99256">
        <ele>742.763213</ele>
        <time>2022-04-05T07:39:02.273Z</time>
      </trkpt>
      <trkpt lat="42.5959" lon="22.99241">
        <ele>742.189903</ele>
        <time>2022-04-05T07:39:04.234Z</time>
      </trkpt>
      <trkpt lat="42.59588" lon="22.99226">
        <ele>741.614864</ele>
        <time>2022-04-05T07:39:06.225Z</time>
      </trkpt>
      <trkpt lat="42.59585" lon="22.99209">
        <ele>741.110361</ele>
        <time>2022-04-05T07:39:08.214Z</time>
      </trkpt>
      <trkpt lat="42.59583" lon="22.99192">
        <ele>740.577977</ele>
        <time>2022-04-05T07:39:10.215Z</time>
      </trkpt>
      <trkpt lat="42.5958" lon="22.99173">
        <ele>739.998522</ele>
        <time>2022-04-05T07:39:12.212Z</time>
      </trkpt>
      <trkpt lat="42.59576" lon="22.99153">
        <ele>739.382584</ele>
        <time>2022-04-05T07:39:14.224Z</time>
      </trkpt>
      <trkpt lat="42.59572" lon="22.99132">
        <ele>738.751116</ele>
        <time>2022-04-05T07:39:16.226Z</time>
      </trkpt>
      <trkpt lat="42.59568" lon="22.99111">
        <ele>738.096361</ele>
        <time>2022-04-05T07:39:18.227Z</time>
      </trkpt>
      <trkpt lat="42.59563" lon="22.99089">
        <ele>737.407881</ele>
        <time>2022-04-05T07:39:20.224Z</time>
      </trkpt>
      <trkpt lat="42.59559" lon="22.99066">
        <ele>736.698228</ele>
        <time>2022-04-05T07:39:22.216Z</time>
      </trkpt>
      <trkpt lat="42.59554" lon="22.99042">
        <ele>735.976019</ele>
        <time>2022-04-05T07:39:24.343Z</time>
      </trkpt>
      <trkpt lat="42.59551" lon="22.9903">
        <ele>735.601818</ele>
        <time>2022-04-05T07:39:25.260Z</time>
      </trkpt>
      <trkpt lat="42.59549" lon="22.99018">
        <ele>735.224749</ele>
        <time>2022-04-05T07:39:26.243Z</time>
      </trkpt>
      <trkpt lat="42.59546" lon="22.99006">
        <ele>734.84194</ele>
        <time>2022-04-05T07:39:27.226Z</time>
      </trkpt>
      <trkpt lat="42.59544" lon="22.98994">
        <ele>734.466959</ele>
        <time>2022-04-05T07:39:28.202Z</time>
      </trkpt>
      <trkpt lat="42.59542" lon="22.98981">
        <ele>734.239801</ele>
        <time>2022-04-05T07:39:29.242Z</time>
      </trkpt>
      <trkpt lat="42.59539" lon="22.98969">
        <ele>734.072316</ele>
        <time>2022-04-05T07:39:30.214Z</time>
      </trkpt>
      <trkpt lat="42.59537" lon="22.98956">
        <ele>733.901472</ele>
        <time>2022-04-05T07:39:31.227Z</time>
      </trkpt>
      <trkpt lat="42.59534" lon="22.98943">
        <ele>733.733844</ele>
        <time>2022-04-05T07:39:32.207Z</time>
      </trkpt>
      <trkpt lat="42.59532" lon="22.9893">
        <ele>733.561768</ele>
        <time>2022-04-05T07:39:33.261Z</time>
      </trkpt>
      <trkpt lat="42.59529" lon="22.98917">
        <ele>733.391807</ele>
        <time>2022-04-05T07:39:34.231Z</time>
      </trkpt>
      <trkpt lat="42.59527" lon="22.98904">
        <ele>733.219368</ele>
        <time>2022-04-05T07:39:35.235Z</time>
      </trkpt>
      <trkpt lat="42.59525" lon="22.98891">
        <ele>733.052711</ele>
        <time>2022-04-05T07:39:36.269Z</time>
      </trkpt>
      <trkpt lat="42.59522" lon="22.98879">
        <ele>732.886055</ele>
        <time>2022-04-05T07:39:37.222Z</time>
      </trkpt>
      <trkpt lat="42.5952" lon="22.98866">
        <ele>732.71651</ele>
        <time>2022-04-05T07:39:38.228Z</time>
      </trkpt>
      <trkpt lat="42.59518" lon="22.98853">
        <ele>732.546549</ele>
        <time>2022-04-05T07:39:39.200Z</time>
      </trkpt>
      <trkpt lat="42.59515" lon="22.9884">
        <ele>732.378246</ele>
        <time>2022-04-05T07:39:40.234Z</time>
      </trkpt>
      <trkpt lat="42.59513" lon="22.98828">
        <ele>732.213663</ele>
        <time>2022-04-05T07:39:41.227Z</time>
      </trkpt>
      <trkpt lat="42.59511" lon="22.98815">
        <ele>732.051975</ele>
        <time>2022-04-05T07:39:42.240Z</time>
      </trkpt>
      <trkpt lat="42.59509" lon="22.98803">
        <ele>731.896057</ele>
        <time>2022-04-05T07:39:43.316Z</time>
      </trkpt>
      <trkpt lat="42.59507" lon="22.98792">
        <ele>731.740516</ele>
        <time>2022-04-05T07:39:44.233Z</time>
      </trkpt>
      <trkpt lat="42.59505" lon="22.9878">
        <ele>731.584082</ele>
        <time>2022-04-05T07:39:45.234Z</time>
      </trkpt>
      <trkpt lat="42.59501" lon="22.98756">
        <ele>731.280485</ele>
        <time>2022-04-05T07:39:47.259Z</time>
      </trkpt>
      <trkpt lat="42.59497" lon="22.98734">
        <ele>731.28766</ele>
        <time>2022-04-05T07:39:49.236Z</time>
      </trkpt>
      <trkpt lat="42.59494" lon="22.98713">
        <ele>731.355096</ele>
        <time>2022-04-05T07:39:51.237Z</time>
      </trkpt>
      <trkpt lat="42.5949" lon="22.98692">
        <ele>731.42065</ele>
        <time>2022-04-05T07:39:53.233Z</time>
      </trkpt>
      <trkpt lat="42.59487" lon="22.98672">
        <ele>731.482631</ele>
        <time>2022-04-05T07:39:55.221Z</time>
      </trkpt>
      <trkpt lat="42.59483" lon="22.98654">
        <ele>731.540949</ele>
        <time>2022-04-05T07:39:57.208Z</time>
      </trkpt>
      <trkpt lat="42.59481" lon="22.98637">
        <ele>731.594228</ele>
        <time>2022-04-05T07:39:59.207Z</time>
      </trkpt>
      <trkpt lat="42.59478" lon="22.98621">
        <ele>731.643057</ele>
        <time>2022-04-05T07:40:01.209Z</time>
      </trkpt>
      <trkpt lat="42.59476" lon="22.98607">
        <ele>731.687319</ele>
        <time>2022-04-05T07:40:03.225Z</time>
      </trkpt>
      <trkpt lat="42.59473" lon="22.98594">
        <ele>731.728712</ele>
        <time>2022-04-05T07:40:05.235Z</time>
      </trkpt>
      <trkpt lat="42.5947" lon="22.98577">
        <ele>731.782574</ele>
        <time>2022-04-05T07:40:08.210Z</time>
      </trkpt>
      <trkpt lat="42.59467" lon="22.9856">
        <ele>731.834656</ele>
        <time>2022-04-05T07:40:11.221Z</time>
      </trkpt>
      <trkpt lat="42.59464" lon="22.98544">
        <ele>731.884755</ele>
        <time>2022-04-05T07:40:14.223Z</time>
      </trkpt>
      <trkpt lat="42.59461" lon="22.98529">
        <ele>731.932484</ele>
        <time>2022-04-05T07:40:17.219Z</time>
      </trkpt>
      <trkpt lat="42.59459" lon="22.98514">
        <ele>731.991418</ele>
        <time>2022-04-05T07:40:20.268Z</time>
      </trkpt>
      <trkpt lat="42.59456" lon="22.985">
        <ele>732.415576</ele>
        <time>2022-04-05T07:40:23.225Z</time>
      </trkpt>
      <trkpt lat="42.59453" lon="22.98487">
        <ele>732.822354</ele>
        <time>2022-04-05T07:40:26.221Z</time>
      </trkpt>
      <trkpt lat="42.5945" lon="22.98475">
        <ele>733.200881</ele>
        <time>2022-04-05T07:40:29.275Z</time>
      </trkpt>
      <trkpt lat="42.59449" lon="22.98462">
        <ele>733.577702</ele>
        <time>2022-04-05T07:40:32.243Z</time>
      </trkpt>
      <trkpt lat="42.59446" lon="22.98447">
        <ele>734.045328</ele>
        <time>2022-04-05T07:40:36.228Z</time>
      </trkpt>
      <trkpt lat="42.59443" lon="22.98431">
        <ele>734.507243</ele>
        <time>2022-04-05T07:40:40.226Z</time>
      </trkpt>
      <trkpt lat="42.5944" lon="22.98416">
        <ele>734.975805</ele>
        <time>2022-04-05T07:40:44.220Z</time>
      </trkpt>
      <trkpt lat="42.59438" lon="22.98401">
        <ele>735.424434</ele>
        <time>2022-04-05T07:40:48.221Z</time>
      </trkpt>
      <trkpt lat="42.59435" lon="22.98386">
        <ele>735.870221</ele>
        <time>2022-04-05T07:40:52.221Z</time>
      </trkpt>
      <trkpt lat="42.59432" lon="22.98371">
        <ele>736.327477</ele>
        <time>2022-04-05T07:40:56.230Z</time>
      </trkpt>
      <trkpt lat="42.5943" lon="22.98357">
        <ele>736.771334</ele>
        <time>2022-04-05T07:41:00.222Z</time>
      </trkpt>
      <trkpt lat="42.59428" lon="22.98343">
        <ele>737.17643</ele>
        <time>2022-04-05T07:41:04.201Z</time>
      </trkpt>
      <trkpt lat="42.59425" lon="22.9833">
        <ele>737.57943</ele>
        <time>2022-04-05T07:41:08.234Z</time>
      </trkpt>
      <trkpt lat="42.59422" lon="22.98316">
        <ele>737.995811</ele>
        <time>2022-04-05T07:41:12.233Z</time>
      </trkpt>
      <trkpt lat="42.5942" lon="22.98302">
        <ele>738.433077</ele>
        <time>2022-04-05T07:41:16.248Z</time>
      </trkpt>
      <trkpt lat="42.59417" lon="22.98288">
        <ele>738.861834</ele>
        <time>2022-04-05T07:41:20.246Z</time>
      </trkpt>
      <trkpt lat="42.59414" lon="22.98275">
        <ele>739.247973</ele>
        <time>2022-04-05T07:41:24.210Z</time>
      </trkpt>
      <trkpt lat="42.59411" lon="22.9826">
        <ele>739.651144</ele>
        <time>2022-04-05T07:41:29.245Z</time>
      </trkpt>
      <trkpt lat="42.59408" lon="22.98245">
        <ele>740.060445</ele>
        <time>2022-04-05T07:41:34.225Z</time>
      </trkpt>
      <trkpt lat="42.59406" lon="22.98232">
        <ele>740.442676</ele>
        <time>2022-04-05T07:41:39.263Z</time>
      </trkpt>
      <trkpt lat="42.59403" lon="22.98218">
        <ele>740.834714</ele>
        <time>2022-04-05T07:41:44.207Z</time>
      </trkpt>
      <trkpt lat="42.59401" lon="22.98204">
        <ele>741.225662</ele>
        <time>2022-04-05T07:41:49.228Z</time>
      </trkpt>
      <trkpt lat="42.59397" lon="22.98188">
        <ele>741.651818</ele>
        <time>2022-04-05T07:41:54.221Z</time>
      </trkpt>
      <trkpt lat="42.59395" lon="22.98176">
        <ele>741.984303</ele>
        <time>2022-04-05T07:41:58.246Z</time>
      </trkpt>
      <trkpt lat="42.59393" lon="22.98163">
        <ele>742.354599</ele>
        <time>2022-04-05T07:42:03.235Z</time>
      </trkpt>
      <trkpt lat="42.5939" lon="22.9815">
        <ele>742.728509</ele>
        <time>2022-04-05T07:42:08.232Z</time>
      </trkpt>
      <trkpt lat="42.59387" lon="22.98135">
        <ele>743.136039</ele>
        <time>2022-04-05T07:42:13.276Z</time>
      </trkpt>
      <trkpt lat="42.59385" lon="22.98121">
        <ele>743.534393</ele>
        <time>2022-04-05T07:42:18.231Z</time>
      </trkpt>
      <trkpt lat="42.59383" lon="22.98106">
        <ele>743.944037</ele>
        <time>2022-04-05T07:42:23.237Z</time>
      </trkpt>
      <trkpt lat="42.59382" lon="22.98093">
        <ele>744.278034</ele>
        <time>2022-04-05T07:42:27.244Z</time>
      </trkpt>
      <trkpt lat="42.59379" lon="22.98079">
        <ele>744.689947</ele>
        <time>2022-04-05T07:42:32.236Z</time>
      </trkpt>
      <trkpt lat="42.59376" lon="22.98067">
        <ele>745.027138</ele>
        <time>2022-04-05T07:42:36.255Z</time>
      </trkpt>
      <trkpt lat="42.59373" lon="22.98054">
        <ele>745.396954</ele>
        <time>2022-04-05T07:42:41.219Z</time>
      </trkpt>
      <trkpt lat="42.59371" lon="22.98041">
        <ele>745.73382</ele>
        <time>2022-04-05T07:42:46.257Z</time>
      </trkpt>
      <trkpt lat="42.59369" lon="22.98029">
        <ele>746.274748</ele>
        <time>2022-04-05T07:42:51.214Z</time>
      </trkpt>
      <trkpt lat="42.59367" lon="22.98016">
        <ele>746.814723</ele>
        <time>2022-04-05T07:42:56.241Z</time>
      </trkpt>
      <trkpt lat="42.59365" lon="22.98004">
        <ele>747.326276</ele>
        <time>2022-04-05T07:43:01.230Z</time>
      </trkpt>
      <trkpt lat="42.59362" lon="22.97992">
        <ele>747.860029</ele>
        <time>2022-04-05T07:43:06.231Z</time>
      </trkpt>
      <trkpt lat="42.59359" lon="22.97978">
        <ele>748.47473</ele>
        <time>2022-04-05T07:43:11.239Z</time>
      </trkpt>
      <trkpt lat="42.59355" lon="22.97965">
        <ele>749.044028</ele>
        <time>2022-04-05T07:43:16.232Z</time>
      </trkpt>
      <trkpt lat="42.59352" lon="22.97952">
        <ele>749.59538</ele>
        <time>2022-04-05T07:43:21.216Z</time>
      </trkpt>
      <trkpt lat="42.59348" lon="22.9794">
        <ele>750.161362</ele>
        <time>2022-04-05T07:43:26.216Z</time>
      </trkpt>
      <trkpt lat="42.59344" lon="22.97929">
        <ele>750.683728</ele>
        <time>2022-04-05T07:43:31.268Z</time>
      </trkpt>
      <trkpt lat="42.5934" lon="22.97916">
        <ele>751.261464</ele>
        <time>2022-04-05T07:43:36.213Z</time>
      </trkpt>
      <trkpt lat="42.59335" lon="22.97904">
        <ele>751.844906</ele>
        <time>2022-04-05T07:43:41.227Z</time>
      </trkpt>
      <trkpt lat="42.59331" lon="22.97891">
        <ele>752.417348</ele>
        <time>2022-04-05T07:43:46.235Z</time>
      </trkpt>
      <trkpt lat="42.59326" lon="22.97879">
        <ele>752.999554</ele>
        <time>2022-04-05T07:43:51.250Z</time>
      </trkpt>
      <trkpt lat="42.59322" lon="22.97867">
        <ele>753.569521</ele>
        <time>2022-04-05T07:43:56.234Z</time>
      </trkpt>
      <trkpt lat="42.59317" lon="22.97855">
        <ele>754.108427</ele>
        <time>2022-04-05T07:44:01.238Z</time>
      </trkpt>
      <trkpt lat="42.59312" lon="22.97844">
        <ele>754.641159</ele>
        <time>2022-04-05T07:44:06.215Z</time>
      </trkpt>
      <trkpt lat="42.59306" lon="22.97832">
        <ele>755.248698</ele>
        <time>2022-04-05T07:44:12.248Z</time>
      </trkpt>
      <trkpt lat="42.59302" lon="22.97821">
        <ele>755.783522</ele>
        <time>2022-04-05T07:44:17.211Z</time>
      </trkpt>
      <trkpt lat="42.59298" lon="22.97809">
        <ele>756.198175</ele>
        <time>2022-04-05T07:44:22.243Z</time>
      </trkpt>
      <trkpt lat="42.59293" lon="22.97796">
        <ele>756.595794</ele>
        <time>2022-04-05T07:44:28.224Z</time>
      </trkpt>
      <trkpt lat="42.59287" lon="22.97783">
        <ele>756.987215</ele>
        <time>2022-04-05T07:44:34.260Z</time>
      </trkpt>
      <trkpt lat="42.59282" lon="22.97773">
        <ele>757.322681</ele>
        <time>2022-04-05T07:44:39.215Z</time>
      </trkpt>
      <trkpt lat="42.59277" lon="22.97763">
        <ele>757.660361</ele>
        <time>2022-04-05T07:44:44.225Z</time>
      </trkpt>
      <trkpt lat="42.59271" lon="22.97753">
        <ele>758.013353</ele>
        <time>2022-04-05T07:44:49.229Z</time>
      </trkpt>
      <trkpt lat="42.59266" lon="22.97741">
        <ele>758.39902</ele>
        <time>2022-04-05T07:44:55.233Z</time>
      </trkpt>
      <trkpt lat="42.5926" lon="22.97729">
        <ele>758.759518</ele>
        <time>2022-04-05T07:45:00.245Z</time>
      </trkpt>
      <trkpt lat="42.59255" lon="22.97718">
        <ele>759.144033</ele>
        <time>2022-04-05T07:45:05.221Z</time>
      </trkpt>
      <trkpt lat="42.59249" lon="22.97706">
        <ele>759.528274</ele>
        <time>2022-04-05T07:45:10.226Z</time>
      </trkpt>
      <trkpt lat="42.59243" lon="22.97693">
        <ele>759.933651</ele>
        <time>2022-04-05T07:45:15.258Z</time>
      </trkpt>
      <trkpt lat="42.59238" lon="22.9768">
        <ele>760.33056</ele>
        <time>2022-04-05T07:45:20.225Z</time>
      </trkpt>
      <trkpt lat="42.59234" lon="22.97668">
        <ele>760.690734</ele>
        <time>2022-04-05T07:45:24.244Z</time>
      </trkpt>
      <trkpt lat="42.5923" lon="22.97657">
        <ele>761.040507</ele>
        <time>2022-04-05T07:45:28.226Z</time>
      </trkpt>
      <trkpt lat="42.59225" lon="22.97646">
        <ele>761.376673</ele>
        <time>2022-04-05T07:45:32.240Z</time>
      </trkpt>
      <trkpt lat="42.59219" lon="22.97635">
        <ele>761.742831</ele>
        <time>2022-04-05T07:45:36.316Z</time>
      </trkpt>
      <trkpt lat="42.59214" lon="22.97625">
        <ele>762.082056</ele>
        <time>2022-04-05T07:45:40.225Z</time>
      </trkpt>
      <trkpt lat="42.5921" lon="22.97613">
        <ele>762.437243</ele>
        <time>2022-04-05T07:45:44.221Z</time>
      </trkpt>
      <trkpt lat="42.59205" lon="22.97602">
        <ele>762.60277</ele>
        <time>2022-04-05T07:45:48.221Z</time>
      </trkpt>
      <trkpt lat="42.592" lon="22.9759">
        <ele>762.660153</ele>
        <time>2022-04-05T07:45:52.216Z</time>
      </trkpt>
      <trkpt lat="42.59194" lon="22.97579">
        <ele>762.715797</ele>
        <time>2022-04-05T07:45:56.227Z</time>
      </trkpt>
      <trkpt lat="42.59189" lon="22.97567">
        <ele>762.77787</ele>
        <time>2022-04-05T07:46:01.235Z</time>
      </trkpt>
      <trkpt lat="42.59184" lon="22.97556">
        <ele>762.830589</ele>
        <time>2022-04-05T07:46:05.239Z</time>
      </trkpt>
      <trkpt lat="42.59179" lon="22.97544">
        <ele>762.886731</ele>
        <time>2022-04-05T07:46:09.260Z</time>
      </trkpt>
      <trkpt lat="42.59174" lon="22.97533">
        <ele>762.942277</ele>
        <time>2022-04-05T07:46:13.238Z</time>
      </trkpt>
      <trkpt lat="42.5917" lon="22.97522">
        <ele>762.996024</ele>
        <time>2022-04-05T07:46:17.226Z</time>
      </trkpt>
      <trkpt lat="42.59164" lon="22.97511">
        <ele>763.053656</ele>
        <time>2022-04-05T07:46:21.223Z</time>
      </trkpt>
      <trkpt lat="42.59159" lon="22.97499">
        <ele>763.111341</ele>
        <time>2022-04-05T07:46:25.231Z</time>
      </trkpt>
      <trkpt lat="42.59154" lon="22.97488">
        <ele>763.167953</ele>
        <time>2022-04-05T07:46:29.208Z</time>
      </trkpt>
      <trkpt lat="42.59148" lon="22.97477">
        <ele>763.223237</ele>
        <time>2022-04-05T07:46:33.209Z</time>
      </trkpt>
      <trkpt lat="42.59143" lon="22.97465">
        <ele>763.280325</ele>
        <time>2022-04-05T07:46:37.229Z</time>
      </trkpt>
      <trkpt lat="42.59138" lon="22.97453">
        <ele>763.339453</ele>
        <time>2022-04-05T07:46:41.301Z</time>
      </trkpt>
      <trkpt lat="42.59133" lon="22.97442">
        <ele>763.395158</ele>
        <time>2022-04-05T07:46:45.244Z</time>
      </trkpt>
      <trkpt lat="42.59127" lon="22.9743">
        <ele>763.452714</ele>
        <time>2022-04-05T07:46:49.218Z</time>
      </trkpt>
      <trkpt lat="42.59122" lon="22.97419">
        <ele>763.508897</ele>
        <time>2022-04-05T07:46:53.222Z</time>
      </trkpt>
      <trkpt lat="42.59117" lon="22.97407">
        <ele>763.568096</ele>
        <time>2022-04-05T07:46:57.212Z</time>
      </trkpt>
      <trkpt lat="42.59111" lon="22.97394">
        <ele>763.724969</ele>
        <time>2022-04-05T07:47:01.228Z</time>
      </trkpt>
      <trkpt lat="42.59105" lon="22.9738">
        <ele>763.970724</ele>
        <time>2022-04-05T07:47:05.242Z</time>
      </trkpt>
      <trkpt lat="42.591" lon="22.97366">
        <ele>764.225964</ele>
        <time>2022-04-05T07:47:09.210Z</time>
      </trkpt>
      <trkpt lat="42.59095" lon="22.97355">
        <ele>764.419926</ele>
        <time>2022-04-05T07:47:12.220Z</time>
      </trkpt>
      <trkpt lat="42.59089" lon="22.97342">
        <ele>764.660828</ele>
        <time>2022-04-05T07:47:16.240Z</time>
      </trkpt>
      <trkpt lat="42.59083" lon="22.97329">
        <ele>764.908242</ele>
        <time>2022-04-05T07:47:20.226Z</time>
      </trkpt>
      <trkpt lat="42.59076" lon="22.97316">
        <ele>765.156728</ele>
        <time>2022-04-05T07:47:24.277Z</time>
      </trkpt>
      <trkpt lat="42.5907" lon="22.97303">
        <ele>765.39645</ele>
        <time>2022-04-05T07:47:28.223Z</time>
      </trkpt>
      <trkpt lat="42.59064" lon="22.97291">
        <ele>765.625504</ele>
        <time>2022-04-05T07:47:32.245Z</time>
      </trkpt>
      <trkpt lat="42.59059" lon="22.97279">
        <ele>765.84376</ele>
        <time>2022-04-05T07:47:36.237Z</time>
      </trkpt>
      <trkpt lat="42.59055" lon="22.97266">
        <ele>766.057365</ele>
        <time>2022-04-05T07:47:40.224Z</time>
      </trkpt>
      <trkpt lat="42.59051" lon="22.97254">
        <ele>766.272454</ele>
        <time>2022-04-05T07:47:44.223Z</time>
      </trkpt>
      <trkpt lat="42.59045" lon="22.97241">
        <ele>766.507475</ele>
        <time>2022-04-05T07:47:48.240Z</time>
      </trkpt>
      <trkpt lat="42.59039" lon="22.97228">
        <ele>766.750887</ele>
        <time>2022-04-05T07:47:52.274Z</time>
      </trkpt>
      <trkpt lat="42.59033" lon="22.97215">
        <ele>766.981054</ele>
        <time>2022-04-05T07:47:56.222Z</time>
      </trkpt>
      <trkpt lat="42.59028" lon="22.97204">
        <ele>767.193127</ele>
        <time>2022-04-05T07:48:00.223Z</time>
      </trkpt>
      <trkpt lat="42.59023" lon="22.97191">
        <ele>767.424868</ele>
        <time>2022-04-05T07:48:04.227Z</time>
      </trkpt>
      <trkpt lat="42.59018" lon="22.97178">
        <ele>767.925466</ele>
        <time>2022-04-05T07:48:08.220Z</time>
      </trkpt>
      <trkpt lat="42.59013" lon="22.97166">
        <ele>768.411736</ele>
        <time>2022-04-05T07:48:12.217Z</time>
      </trkpt>
      <trkpt lat="42.59009" lon="22.97155">
        <ele>768.85399</ele>
        <time>2022-04-05T07:48:16.233Z</time>
      </trkpt>
      <trkpt lat="42.59005" lon="22.97144">
        <ele>769.2914</ele>
        <time>2022-04-05T07:48:20.226Z</time>
      </trkpt>
      <trkpt lat="42.59001" lon="22.97132">
        <ele>769.764338</ele>
        <time>2022-04-05T07:48:25.237Z</time>
      </trkpt>
      <trkpt lat="42.58996" lon="22.9712">
        <ele>770.248941</ele>
        <time>2022-04-05T07:48:30.225Z</time>
      </trkpt>
      <trkpt lat="42.58992" lon="22.97107">
        <ele>770.742024</ele>
        <time>2022-04-05T07:48:35.224Z</time>
      </trkpt>
      <trkpt lat="42.58988" lon="22.97096">
        <ele>771.184472</ele>
        <time>2022-04-05T07:48:40.217Z</time>
      </trkpt>
      <trkpt lat="42.58985" lon="22.97083">
        <ele>771.643422</ele>
        <time>2022-04-05T07:48:45.226Z</time>
      </trkpt>
      <trkpt lat="42.58983" lon="22.97071">
        <ele>772.084693</ele>
        <time>2022-04-05T07:48:50.257Z</time>
      </trkpt>
      <trkpt lat="42.58979" lon="22.97058">
        <ele>772.595505</ele>
        <time>2022-04-05T07:48:56.235Z</time>
      </trkpt>
      <trkpt lat="42.58977" lon="22.97044">
        <ele>773.111791</ele>
        <time>2022-04-05T07:49:02.222Z</time>
      </trkpt>
      <trkpt lat="42.58974" lon="22.97032">
        <ele>773.550022</ele>
        <time>2022-04-05T07:49:07.237Z</time>
      </trkpt>
      <trkpt lat="42.5897" lon="22.97018">
        <ele>774.057343</ele>
        <time>2022-04-05T07:49:13.223Z</time>
      </trkpt>
      <trkpt lat="42.58967" lon="22.97007">
        <ele>774.504653</ele>
        <time>2022-04-05T07:49:18.266Z</time>
      </trkpt>
      <trkpt lat="42.58963" lon="22.96994">
        <ele>774.997026</ele>
        <time>2022-04-05T07:49:24.227Z</time>
      </trkpt>
      <trkpt lat="42.58961" lon="22.9698">
        <ele>775.486893</ele>
        <time>2022-04-05T07:49:30.206Z</time>
      </trkpt>
      <trkpt lat="42.58957" lon="22.96968">
        <ele>775.953064</ele>
        <time>2022-04-05T07:49:35.244Z</time>
      </trkpt>
      <trkpt lat="42.58954" lon="22.96956">
        <ele>776.436705</ele>
        <time>2022-04-05T07:49:40.237Z</time>
      </trkpt>
      <trkpt lat="42.58951" lon="22.96943">
        <ele>777.021916</ele>
        <time>2022-04-05T07:49:46.255Z</time>
      </trkpt>
      <trkpt lat="42.58947" lon="22.96928">
        <ele>777.6335</ele>
        <time>2022-04-05T07:49:52.215Z</time>
      </trkpt>
      <trkpt lat="42.58944" lon="22.96917">
        <ele>778.14845</ele>
        <time>2022-04-05T07:49:57.255Z</time>
      </trkpt>
      <trkpt lat="42.5894" lon="22.96905">
        <ele>778.670763</ele>
        <time>2022-04-05T07:50:02.225Z</time>
      </trkpt>
      <trkpt lat="42.58937" lon="22.96893">
        <ele>779.189282</ele>
        <time>2022-04-05T07:50:07.214Z</time>
      </trkpt>
      <trkpt lat="42.58933" lon="22.96881">
        <ele>779.694453</ele>
        <time>2022-04-05T07:50:12.226Z</time>
      </trkpt>
      <trkpt lat="42.58929" lon="22.96868">
        <ele>780.256666</ele>
        <time>2022-04-05T07:50:18.245Z</time>
      </trkpt>
      <trkpt lat="42.58926" lon="22.96856">
        <ele>780.777135</ele>
        <time>2022-04-05T07:50:23.230Z</time>
      </trkpt>
      <trkpt lat="42.58922" lon="22.96845">
        <ele>781.293142</ele>
        <time>2022-04-05T07:50:28.248Z</time>
      </trkpt>
      <trkpt lat="42.58919" lon="22.96833">
        <ele>781.796527</ele>
        <time>2022-04-05T07:50:33.212Z</time>
      </trkpt>
      <trkpt lat="42.58914" lon="22.96821">
        <ele>782.328357</ele>
        <time>2022-04-05T07:50:38.237Z</time>
      </trkpt>
      <trkpt lat="42.58912" lon="22.96808">
        <ele>782.90149</ele>
        <time>2022-04-05T07:50:43.204Z</time>
      </trkpt>
      <trkpt lat="42.58908" lon="22.96795">
        <ele>783.457992</ele>
        <time>2022-04-05T07:50:48.205Z</time>
      </trkpt>
      <trkpt lat="42.58905" lon="22.96781">
        <ele>784.056883</ele>
        <time>2022-04-05T07:50:54.209Z</time>
      </trkpt>
      <trkpt lat="42.58902" lon="22.96769">
        <ele>784.556602</ele>
        <time>2022-04-05T07:50:58.220Z</time>
      </trkpt>
      <trkpt lat="42.58897" lon="22.96755">
        <ele>785.169496</ele>
        <time>2022-04-05T07:51:02.231Z</time>
      </trkpt>
      <trkpt lat="42.58893" lon="22.96743">
        <ele>785.729366</ele>
        <time>2022-04-05T07:51:06.217Z</time>
      </trkpt>
      <trkpt lat="42.58888" lon="22.96729">
        <ele>785.904555</ele>
        <time>2022-04-05T07:51:10.220Z</time>
      </trkpt>
      <trkpt lat="42.58884" lon="22.96716">
        <ele>785.79975</ele>
        <time>2022-04-05T07:51:14.249Z</time>
      </trkpt>
      <trkpt lat="42.58882" lon="22.96704">
        <ele>785.709795</ele>
        <time>2022-04-05T07:51:18.220Z</time>
      </trkpt>
      <trkpt lat="42.58877" lon="22.96692">
        <ele>785.604017</ele>
        <time>2022-04-05T07:51:24.234Z</time>
      </trkpt>
      <trkpt lat="42.58873" lon="22.96681">
        <ele>785.514013</ele>
        <time>2022-04-05T07:51:27.212Z</time>
      </trkpt>
      <trkpt lat="42.5887" lon="22.96669">
        <ele>785.420685</ele>
        <time>2022-04-05T07:51:30.220Z</time>
      </trkpt>
      <trkpt lat="42.58865" lon="22.96655">
        <ele>785.306713</ele>
        <time>2022-04-05T07:51:33.226Z</time>
      </trkpt>
      <trkpt lat="42.58861" lon="22.9664">
        <ele>785.191241</ele>
        <time>2022-04-05T07:51:36.260Z</time>
      </trkpt>
      <trkpt lat="42.58858" lon="22.96627">
        <ele>785.084744</ele>
        <time>2022-04-05T07:51:39.228Z</time>
      </trkpt>
      <trkpt lat="42.58855" lon="22.96613">
        <ele>784.981648</ele>
        <time>2022-04-05T07:51:42.237Z</time>
      </trkpt>
      <trkpt lat="42.58852" lon="22.966">
        <ele>784.875878</ele>
        <time>2022-04-05T07:51:45.224Z</time>
      </trkpt>
      <trkpt lat="42.58849" lon="22.96587">
        <ele>784.779801</ele>
        <time>2022-04-05T07:51:48.224Z</time>
      </trkpt>
      <trkpt lat="42.58845" lon="22.96574">
        <ele>784.676705</ele>
        <time>2022-04-05T07:51:51.227Z</time>
      </trkpt>
      <trkpt lat="42.58842" lon="22.9656">
        <ele>784.56611</ele>
        <time>2022-04-05T07:51:54.228Z</time>
      </trkpt>
      <trkpt lat="42.58838" lon="22.96545">
        <ele>784.450271</ele>
        <time>2022-04-05T07:51:57.225Z</time>
      </trkpt>
      <trkpt lat="42.58833" lon="22.96532">
        <ele>784.33948</ele>
        <time>2022-04-05T07:52:00.237Z</time>
      </trkpt>
      <trkpt lat="42.58828" lon="22.96518">
        <ele>784.226688</ele>
        <time>2022-04-05T07:52:03.238Z</time>
      </trkpt>
      <trkpt lat="42.58823" lon="22.96505">
        <ele>784.183161</ele>
        <time>2022-04-05T07:52:06.233Z</time>
      </trkpt>
      <trkpt lat="42.58818" lon="22.96492">
        <ele>784.225655</ele>
        <time>2022-04-05T07:52:09.222Z</time>
      </trkpt>
      <trkpt lat="42.58813" lon="22.96479">
        <ele>784.268037</ele>
        <time>2022-04-05T07:52:12.222Z</time>
      </trkpt>
      <trkpt lat="42.58807" lon="22.96466">
        <ele>784.311708</ele>
        <time>2022-04-05T07:52:15.231Z</time>
      </trkpt>
      <trkpt lat="42.588" lon="22.96452">
        <ele>784.359489</ele>
        <time>2022-04-05T07:52:18.208Z</time>
      </trkpt>
      <trkpt lat="42.58795" lon="22.96438">
        <ele>784.404685</ele>
        <time>2022-04-05T07:52:21.229Z</time>
      </trkpt>
      <trkpt lat="42.58789" lon="22.96425">
        <ele>784.447666</ele>
        <time>2022-04-05T07:52:24.222Z</time>
      </trkpt>
      <trkpt lat="42.58782" lon="22.96413">
        <ele>784.490271</ele>
        <time>2022-04-05T07:52:27.261Z</time>
      </trkpt>
      <trkpt lat="42.58775" lon="22.964">
        <ele>784.537711</ele>
        <time>2022-04-05T07:52:30.238Z</time>
      </trkpt>
      <trkpt lat="42.58768" lon="22.96386">
        <ele>784.584251</ele>
        <time>2022-04-05T07:52:33.219Z</time>
      </trkpt>
      <trkpt lat="42.58761" lon="22.96374">
        <ele>784.630586</ele>
        <time>2022-04-05T07:52:36.221Z</time>
      </trkpt>
      <trkpt lat="42.58753" lon="22.96362">
        <ele>784.676069</ele>
        <time>2022-04-05T07:52:39.241Z</time>
      </trkpt>
      <trkpt lat="42.58745" lon="22.96349">
        <ele>784.723432</ele>
        <time>2022-04-05T07:52:42.238Z</time>
      </trkpt>
      <trkpt lat="42.58737" lon="22.96337">
        <ele>784.770576</ele>
        <time>2022-04-05T07:52:45.236Z</time>
      </trkpt>
      <trkpt lat="42.58728" lon="22.96325">
        <ele>784.819085</ele>
        <time>2022-04-05T07:52:48.249Z</time>
      </trkpt>
      <trkpt lat="42.58719" lon="22.96314">
        <ele>784.850307</ele>
        <time>2022-04-05T07:52:51.229Z</time>
      </trkpt>
      <trkpt lat="42.5871" lon="22.96303">
        <ele>784.64163</ele>
        <time>2022-04-05T07:52:54.220Z</time>
      </trkpt>
      <trkpt lat="42.58701" lon="22.96291">
        <ele>784.43122</ele>
        <time>2022-04-05T07:52:57.205Z</time>
      </trkpt>
      <trkpt lat="42.58692" lon="22.96277">
        <ele>784.201177</ele>
        <time>2022-04-05T07:53:00.199Z</time>
      </trkpt>
      <trkpt lat="42.58686" lon="22.96268">
        <ele>784.043228</ele>
        <time>2022-04-05T07:53:02.206Z</time>
      </trkpt>
      <trkpt lat="42.5868" lon="22.96259">
        <ele>783.887377</ele>
        <time>2022-04-05T07:53:04.196Z</time>
      </trkpt>
      <trkpt lat="42.58671" lon="22.96245">
        <ele>783.661857</ele>
        <time>2022-04-05T07:53:07.222Z</time>
      </trkpt>
      <trkpt lat="42.58662" lon="22.96232">
        <ele>783.446697</ele>
        <time>2022-04-05T07:53:10.207Z</time>
      </trkpt>
      <trkpt lat="42.58653" lon="22.9622">
        <ele>783.232177</ele>
        <time>2022-04-05T07:53:13.205Z</time>
      </trkpt>
      <trkpt lat="42.58644" lon="22.96209">
        <ele>783.021074</ele>
        <time>2022-04-05T07:53:16.200Z</time>
      </trkpt>
      <trkpt lat="42.58634" lon="22.96197">
        <ele>782.796592</ele>
        <time>2022-04-05T07:53:19.200Z</time>
      </trkpt>
      <trkpt lat="42.58627" lon="22.96188">
        <ele>782.642721</ele>
        <time>2022-04-05T07:53:21.202Z</time>
      </trkpt>
      <trkpt lat="42.58621" lon="22.9618">
        <ele>782.488465</ele>
        <time>2022-04-05T07:53:23.221Z</time>
      </trkpt>
      <trkpt lat="42.58611" lon="22.96168">
        <ele>782.263566</ele>
        <time>2022-04-05T07:53:26.204Z</time>
      </trkpt>
      <trkpt lat="42.58602" lon="22.96155">
        <ele>782.052012</ele>
        <time>2022-04-05T07:53:29.198Z</time>
      </trkpt>
      <trkpt lat="42.58593" lon="22.96144">
        <ele>781.837554</ele>
        <time>2022-04-05T07:53:32.207Z</time>
      </trkpt>
      <trkpt lat="42.58584" lon="22.96132">
        <ele>781.815357</ele>
        <time>2022-04-05T07:53:35.196Z</time>
      </trkpt>
      <trkpt lat="42.58575" lon="22.96122">
        <ele>781.810231</ele>
        <time>2022-04-05T07:53:38.199Z</time>
      </trkpt>
      <trkpt lat="42.58566" lon="22.96112">
        <ele>781.805304</ele>
        <time>2022-04-05T07:53:41.216Z</time>
      </trkpt>
      <trkpt lat="42.58559" lon="22.96103">
        <ele>781.800695</ele>
        <time>2022-04-05T07:53:44.201Z</time>
      </trkpt>
      <trkpt lat="42.5855" lon="22.96094">
        <ele>781.795691</ele>
        <time>2022-04-05T07:53:47.197Z</time>
      </trkpt>
      <trkpt lat="42.58541" lon="22.96084">
        <ele>781.790696</ele>
        <time>2022-04-05T07:53:50.202Z</time>
      </trkpt>
      <trkpt lat="42.58531" lon="22.96074">
        <ele>781.78533</ele>
        <time>2022-04-05T07:53:53.211Z</time>
      </trkpt>
      <trkpt lat="42.58522" lon="22.96063">
        <ele>781.779966</ele>
        <time>2022-04-05T07:53:56.197Z</time>
      </trkpt>
      <trkpt lat="42.58513" lon="22.96053">
        <ele>781.774896</ele>
        <time>2022-04-05T07:53:59.205Z</time>
      </trkpt>
      <trkpt lat="42.58505" lon="22.96043">
        <ele>781.769943</ele>
        <time>2022-04-05T07:54:02.194Z</time>
      </trkpt>
      <trkpt lat="42.58497" lon="22.96034">
        <ele>781.765202</ele>
        <time>2022-04-05T07:54:05.200Z</time>
      </trkpt>
      <trkpt lat="42.58489" lon="22.96025">
        <ele>781.76068</ele>
        <time>2022-04-05T07:54:08.201Z</time>
      </trkpt>
      <trkpt lat="42.58482" lon="22.96016">
        <ele>781.756387</ele>
        <time>2022-04-05T07:54:11.198Z</time>
      </trkpt>
      <trkpt lat="42.58474" lon="22.96007">
        <ele>781.752011</ele>
        <time>2022-04-05T07:54:14.206Z</time>
      </trkpt>
      <trkpt lat="42.58466" lon="22.96">
        <ele>781.747649</ele>
        <time>2022-04-05T07:54:17.212Z</time>
      </trkpt>
      <trkpt lat="42.58459" lon="22.95992">
        <ele>781.743334</ele>
        <time>2022-04-05T07:54:20.205Z</time>
      </trkpt>
      <trkpt lat="42.58451" lon="22.95984">
        <ele>781.821972</ele>
        <time>2022-04-05T07:54:23.200Z</time>
      </trkpt>
      <trkpt lat="42.58443" lon="22.95976">
        <ele>782.038585</ele>
        <time>2022-04-05T07:54:26.197Z</time>
      </trkpt>
      <trkpt lat="42.58435" lon="22.95969">
        <ele>782.253421</ele>
        <time>2022-04-05T07:54:29.199Z</time>
      </trkpt>
      <trkpt lat="42.58426" lon="22.95961">
        <ele>782.471843</ele>
        <time>2022-04-05T07:54:32.208Z</time>
      </trkpt>
      <trkpt lat="42.58417" lon="22.95954">
        <ele>782.692715</ele>
        <time>2022-04-05T07:54:35.209Z</time>
      </trkpt>
      <trkpt lat="42.58408" lon="22.95948">
        <ele>782.924055</ele>
        <time>2022-04-05T07:54:38.201Z</time>
      </trkpt>
      <trkpt lat="42.58398" lon="22.95943">
        <ele>783.152751</ele>
        <time>2022-04-05T07:54:41.210Z</time>
      </trkpt>
      <trkpt lat="42.58388" lon="22.95938">
        <ele>783.387825</ele>
        <time>2022-04-05T07:54:44.201Z</time>
      </trkpt>
      <trkpt lat="42.58377" lon="22.95934">
        <ele>783.629509</ele>
        <time>2022-04-05T07:54:47.200Z</time>
      </trkpt>
      <trkpt lat="42.58366" lon="22.95931">
        <ele>783.889452</ele>
        <time>2022-04-05T07:54:50.200Z</time>
      </trkpt>
      <trkpt lat="42.58355" lon="22.95928">
        <ele>784.131455</ele>
        <time>2022-04-05T07:54:53.204Z</time>
      </trkpt>
      <trkpt lat="42.58344" lon="22.95925">
        <ele>784.375312</ele>
        <time>2022-04-05T07:54:56.198Z</time>
      </trkpt>
      <trkpt lat="42.58333" lon="22.95924">
        <ele>784.607978</ele>
        <time>2022-04-05T07:54:59.206Z</time>
      </trkpt>
      <trkpt lat="42.58324" lon="22.95922">
        <ele>784.811234</ele>
        <time>2022-04-05T07:55:02.206Z</time>
      </trkpt>
      <trkpt lat="42.58314" lon="22.95921">
        <ele>785.02769</ele>
        <time>2022-04-05T07:55:05.208Z</time>
      </trkpt>
      <trkpt lat="42.58304" lon="22.9592">
        <ele>785.243716</ele>
        <time>2022-04-05T07:55:08.201Z</time>
      </trkpt>
      <trkpt lat="42.58295" lon="22.95921">
        <ele>785.440113</ele>
        <time>2022-04-05T07:55:11.200Z</time>
      </trkpt>
      <trkpt lat="42.58286" lon="22.95921">
        <ele>785.638867</ele>
        <time>2022-04-05T07:55:14.199Z</time>
      </trkpt>
      <trkpt lat="42.58276" lon="22.95922">
        <ele>786.519747</ele>
        <time>2022-04-05T07:55:17.205Z</time>
      </trkpt>
      <trkpt lat="42.58266" lon="22.95924">
        <ele>787.521206</ele>
        <time>2022-04-05T07:55:20.201Z</time>
      </trkpt>
      <trkpt lat="42.58256" lon="22.95927">
        <ele>788.423343</ele>
        <time>2022-04-05T07:55:23.198Z</time>
      </trkpt>
      <trkpt lat="42.58245" lon="22.95929">
        <ele>789.552592</ele>
        <time>2022-04-05T07:55:27.202Z</time>
      </trkpt>
      <trkpt lat="42.58236" lon="22.95931">
        <ele>790.412389</ele>
        <time>2022-04-05T07:55:30.195Z</time>
      </trkpt>
      <trkpt lat="42.58226" lon="22.95935">
        <ele>791.386973</ele>
        <time>2022-04-05T07:55:33.198Z</time>
      </trkpt>
      <trkpt lat="42.58217" lon="22.9594">
        <ele>792.314967</ele>
        <time>2022-04-05T07:55:36.224Z</time>
      </trkpt>
      <trkpt lat="42.58207" lon="22.95945">
        <ele>793.336166</ele>
        <time>2022-04-05T07:55:40.196Z</time>
      </trkpt>
      <trkpt lat="42.58197" lon="22.95948">
        <ele>794.276279</ele>
        <time>2022-04-05T07:55:43.208Z</time>
      </trkpt>
      <trkpt lat="42.58187" lon="22.9595">
        <ele>795.278754</ele>
        <time>2022-04-05T07:55:46.200Z</time>
      </trkpt>
      <trkpt lat="42.58177" lon="22.95955">
        <ele>796.286814</ele>
        <time>2022-04-05T07:55:49.225Z</time>
      </trkpt>
      <trkpt lat="42.58168" lon="22.95959">
        <ele>797.190707</ele>
        <time>2022-04-05T07:55:52.197Z</time>
      </trkpt>
      <trkpt lat="42.58159" lon="22.95965">
        <ele>798.103966</ele>
        <time>2022-04-05T07:55:55.201Z</time>
      </trkpt>
      <trkpt lat="42.58149" lon="22.95971">
        <ele>799.159576</ele>
        <time>2022-04-05T07:55:58.221Z</time>
      </trkpt>
      <trkpt lat="42.58141" lon="22.95977">
        <ele>800.037686</ele>
        <time>2022-04-05T07:56:01.200Z</time>
      </trkpt>
      <trkpt lat="42.5813" lon="22.95984">
        <ele>801.188238</ele>
        <time>2022-04-05T07:56:05.200Z</time>
      </trkpt>
      <trkpt lat="42.58122" lon="22.9599">
        <ele>802.066545</ele>
        <time>2022-04-05T07:56:08.201Z</time>
      </trkpt>
      <trkpt lat="42.58111" lon="22.95995">
        <ele>802.615496</ele>
        <time>2022-04-05T07:56:12.209Z</time>
      </trkpt>
      <trkpt lat="42.58103" lon="22.95999">
        <ele>802.04587</ele>
        <time>2022-04-05T07:56:15.228Z</time>
      </trkpt>
      <trkpt lat="42.58093" lon="22.96001">
        <ele>801.466904</ele>
        <time>2022-04-05T07:56:18.225Z</time>
      </trkpt>
      <trkpt lat="42.58081" lon="22.96003">
        <ele>800.71301</ele>
        <time>2022-04-05T07:56:22.222Z</time>
      </trkpt>
      <trkpt lat="42.58072" lon="22.96005">
        <ele>800.128773</ele>
        <time>2022-04-05T07:56:25.233Z</time>
      </trkpt>
      <trkpt lat="42.58062" lon="22.96006">
        <ele>799.505096</ele>
        <time>2022-04-05T07:56:28.216Z</time>
      </trkpt>
      <trkpt lat="42.58052" lon="22.96007">
        <ele>798.869451</ele>
        <time>2022-04-05T07:56:31.218Z</time>
      </trkpt>
      <trkpt lat="42.58043" lon="22.96006">
        <ele>798.283563</ele>
        <time>2022-04-05T07:56:34.242Z</time>
      </trkpt>
      <trkpt lat="42.58033" lon="22.96006">
        <ele>797.716981</ele>
        <time>2022-04-05T07:56:37.219Z</time>
      </trkpt>
      <trkpt lat="42.58022" lon="22.96005">
        <ele>796.992313</ele>
        <time>2022-04-05T07:56:41.232Z</time>
      </trkpt>
      <trkpt lat="42.58012" lon="22.96003">
        <ele>796.403045</ele>
        <time>2022-04-05T07:56:44.224Z</time>
      </trkpt>
      <trkpt lat="42.58003" lon="22.96001">
        <ele>795.778476</ele>
        <time>2022-04-05T07:56:47.245Z</time>
      </trkpt>
      <trkpt lat="42.57994" lon="22.95998">
        <ele>795.20969</ele>
        <time>2022-04-05T07:56:50.257Z</time>
      </trkpt>
      <trkpt lat="42.57985" lon="22.95995">
        <ele>794.627737</ele>
        <time>2022-04-05T07:56:53.218Z</time>
      </trkpt>
      <trkpt lat="42.57973" lon="22.95991">
        <ele>793.889868</ele>
        <time>2022-04-05T07:56:57.228Z</time>
      </trkpt>
      <trkpt lat="42.57964" lon="22.95986">
        <ele>793.273645</ele>
        <time>2022-04-05T07:57:00.233Z</time>
      </trkpt>
      <trkpt lat="42.57955" lon="22.95981">
        <ele>792.679742</ele>
        <time>2022-04-05T07:57:03.228Z</time>
      </trkpt>
      <trkpt lat="42.57946" lon="22.95975">
        <ele>792.07273</ele>
        <time>2022-04-05T07:57:06.228Z</time>
      </trkpt>
      <trkpt lat="42.57938" lon="22.95969">
        <ele>791.711594</ele>
        <time>2022-04-05T07:57:09.218Z</time>
      </trkpt>
      <trkpt lat="42.57928" lon="22.95961">
        <ele>792.125988</ele>
        <time>2022-04-05T07:57:13.228Z</time>
      </trkpt>
      <trkpt lat="42.57919" lon="22.95952">
        <ele>792.528492</ele>
        <time>2022-04-05T07:57:17.219Z</time>
      </trkpt>
      <trkpt lat="42.57911" lon="22.95945">
        <ele>792.847957</ele>
        <time>2022-04-05T07:57:20.226Z</time>
      </trkpt>
      <trkpt lat="42.57902" lon="22.95935">
        <ele>793.255644</ele>
        <time>2022-04-05T07:57:24.227Z</time>
      </trkpt>
      <trkpt lat="42.57895" lon="22.95927">
        <ele>793.576634</ele>
        <time>2022-04-05T07:57:27.230Z</time>
      </trkpt>
      <trkpt lat="42.57889" lon="22.95919">
        <ele>793.902753</ele>
        <time>2022-04-05T07:57:30.226Z</time>
      </trkpt>
      <trkpt lat="42.57881" lon="22.95909">
        <ele>794.2797</ele>
        <time>2022-04-05T07:57:34.222Z</time>
      </trkpt>
      <trkpt lat="42.57873" lon="22.95899">
        <ele>794.650891</ele>
        <time>2022-04-05T07:57:38.258Z</time>
      </trkpt>
      <trkpt lat="42.57866" lon="22.95888">
        <ele>795.037599</ele>
        <time>2022-04-05T07:57:42.239Z</time>
      </trkpt>
      <trkpt lat="42.57861" lon="22.95876">
        <ele>795.378457</ele>
        <time>2022-04-05T07:57:45.231Z</time>
      </trkpt>
      <trkpt lat="42.57857" lon="22.95866">
        <ele>795.699001</ele>
        <time>2022-04-05T07:57:48.229Z</time>
      </trkpt>
      <trkpt lat="42.57852" lon="22.95855">
        <ele>796.033</ele>
        <time>2022-04-05T07:57:51.228Z</time>
      </trkpt>
      <trkpt lat="42.57846" lon="22.95841">
        <ele>796.439517</ele>
        <time>2022-04-05T07:57:55.221Z</time>
      </trkpt>
      <trkpt lat="42.57841" lon="22.95827">
        <ele>796.850843</ele>
        <time>2022-04-05T07:57:59.234Z</time>
      </trkpt>
      <trkpt lat="42.57838" lon="22.95815">
        <ele>797.174821</ele>
        <time>2022-04-05T07:58:02.218Z</time>
      </trkpt>
      <trkpt lat="42.57834" lon="22.95801">
        <ele>797.575178</ele>
        <time>2022-04-05T07:58:06.219Z</time>
      </trkpt>
      <trkpt lat="42.57828" lon="22.95789">
        <ele>797.94602</ele>
        <time>2022-04-05T07:58:10.233Z</time>
      </trkpt>
      <trkpt lat="42.57823" lon="22.95776">
        <ele>797.926756</ele>
        <time>2022-04-05T07:58:14.263Z</time>
      </trkpt>
      <trkpt lat="42.57817" lon="22.95764">
        <ele>797.846376</ele>
        <time>2022-04-05T07:58:18.227Z</time>
      </trkpt>
      <trkpt lat="42.5781" lon="22.95751">
        <ele>797.757672</ele>
        <time>2022-04-05T07:58:22.238Z</time>
      </trkpt>
      <trkpt lat="42.57803" lon="22.95742">
        <ele>797.685886</ele>
        <time>2022-04-05T07:58:25.256Z</time>
      </trkpt>
      <trkpt lat="42.57797" lon="22.95733">
        <ele>797.616188</ele>
        <time>2022-04-05T07:58:28.224Z</time>
      </trkpt>
      <trkpt lat="42.57788" lon="22.95723">
        <ele>797.529506</ele>
        <time>2022-04-05T07:58:32.234Z</time>
      </trkpt>
      <trkpt lat="42.5778" lon="22.95711">
        <ele>797.440547</ele>
        <time>2022-04-05T07:58:36.274Z</time>
      </trkpt>
      <trkpt lat="42.57773" lon="22.95701">
        <ele>797.363525</ele>
        <time>2022-04-05T07:58:39.237Z</time>
      </trkpt>
      <trkpt lat="42.57766" lon="22.95691">
        <ele>797.28429</ele>
        <time>2022-04-05T07:58:42.243Z</time>
      </trkpt>
      <trkpt lat="42.57759" lon="22.9568">
        <ele>797.207606</ele>
        <time>2022-04-05T07:58:45.228Z</time>
      </trkpt>
      <trkpt lat="42.5775" lon="22.95671">
        <ele>797.126204</ele>
        <time>2022-04-05T07:58:48.228Z</time>
      </trkpt>
      <trkpt lat="42.57741" lon="22.95662">
        <ele>797.041686</ele>
        <time>2022-04-05T07:58:51.206Z</time>
      </trkpt>
      <trkpt lat="42.5773" lon="22.95651">
        <ele>796.942374</ele>
        <time>2022-04-05T07:58:54.229Z</time>
      </trkpt>
      <trkpt lat="42.57722" lon="22.95645">
        <ele>796.869419</ele>
        <time>2022-04-05T07:58:56.212Z</time>
      </trkpt>
      <trkpt lat="42.57713" lon="22.95639">
        <ele>796.792112</ele>
        <time>2022-04-05T07:58:58.247Z</time>
      </trkpt>
      <trkpt lat="42.57703" lon="22.95632">
        <ele>796.714805</ele>
        <time>2022-04-05T07:59:00.217Z</time>
      </trkpt>
      <trkpt lat="42.57694" lon="22.95626">
        <ele>796.568576</ele>
        <time>2022-04-05T07:59:02.235Z</time>
      </trkpt>
      <trkpt lat="42.57685" lon="22.9562">
        <ele>795.97151</ele>
        <time>2022-04-05T07:59:04.215Z</time>
      </trkpt>
      <trkpt lat="42.57675" lon="22.95615">
        <ele>795.374088</ele>
        <time>2022-04-05T07:59:06.215Z</time>
      </trkpt>
      <trkpt lat="42.57666" lon="22.9561">
        <ele>794.788153</ele>
        <time>2022-04-05T07:59:08.224Z</time>
      </trkpt>
      <trkpt lat="42.57655" lon="22.95605">
        <ele>794.1862</ele>
        <time>2022-04-05T07:59:10.237Z</time>
      </trkpt>
      <trkpt lat="42.57645" lon="22.95601">
        <ele>793.543839</ele>
        <time>2022-04-05T07:59:12.233Z</time>
      </trkpt>
      <trkpt lat="42.57633" lon="22.95598">
        <ele>792.873132</ele>
        <time>2022-04-05T07:59:14.218Z</time>
      </trkpt>
      <trkpt lat="42.57621" lon="22.95595">
        <ele>792.174338</ele>
        <time>2022-04-05T07:59:16.225Z</time>
      </trkpt>
      <trkpt lat="42.57608" lon="22.95594">
        <ele>791.423991</ele>
        <time>2022-04-05T07:59:18.239Z</time>
      </trkpt>
      <trkpt lat="42.57594" lon="22.95592">
        <ele>790.646739</ele>
        <time>2022-04-05T07:59:20.247Z</time>
      </trkpt>
      <trkpt lat="42.5758" lon="22.95592">
        <ele>789.814723</ele>
        <time>2022-04-05T07:59:22.227Z</time>
      </trkpt>
      <trkpt lat="42.57564" lon="22.95594">
        <ele>788.945581</ele>
        <time>2022-04-05T07:59:24.202Z</time>
      </trkpt>
      <trkpt lat="42.57548" lon="22.95597">
        <ele>788.013841</ele>
        <time>2022-04-05T07:59:26.209Z</time>
      </trkpt>
      <trkpt lat="42.57532" lon="22.95602">
        <ele>787.062459</ele>
        <time>2022-04-05T07:59:28.224Z</time>
      </trkpt>
      <trkpt lat="42.57515" lon="22.95608">
        <ele>786.028085</ele>
        <time>2022-04-05T07:59:30.221Z</time>
      </trkpt>
      <trkpt lat="42.57506" lon="22.95612">
        <ele>785.482235</ele>
        <time>2022-04-05T07:59:31.225Z</time>
      </trkpt>
      <trkpt lat="42.57496" lon="22.95616">
        <ele>784.925598</ele>
        <time>2022-04-05T07:59:32.258Z</time>
      </trkpt>
      <trkpt lat="42.57487" lon="22.95621">
        <ele>784.338798</ele>
        <time>2022-04-05T07:59:33.223Z</time>
      </trkpt>
      <trkpt lat="42.57478" lon="22.95625">
        <ele>783.769822</ele>
        <time>2022-04-05T07:59:34.234Z</time>
      </trkpt>
      <trkpt lat="42.57468" lon="22.95629">
        <ele>783.192581</ele>
        <time>2022-04-05T07:59:35.218Z</time>
      </trkpt>
      <trkpt lat="42.57459" lon="22.95634">
        <ele>782.611265</ele>
        <time>2022-04-05T07:59:36.240Z</time>
      </trkpt>
      <trkpt lat="42.57449" lon="22.95638">
        <ele>782.017609</ele>
        <time>2022-04-05T07:59:37.300Z</time>
      </trkpt>
      <trkpt lat="42.57439" lon="22.95643">
        <ele>781.41847</ele>
        <time>2022-04-05T07:59:38.228Z</time>
      </trkpt>
      <trkpt lat="42.5743" lon="22.95647">
        <ele>780.844007</ele>
        <time>2022-04-05T07:59:39.228Z</time>
      </trkpt>
      <trkpt lat="42.5742" lon="22.95651">
        <ele>780.275031</ele>
        <time>2022-04-05T07:59:40.228Z</time>
      </trkpt>
      <trkpt lat="42.57411" lon="22.95656">
        <ele>779.704665</ele>
        <time>2022-04-05T07:59:41.231Z</time>
      </trkpt>
      <trkpt lat="42.57402" lon="22.9566">
        <ele>779.137048</ele>
        <time>2022-04-05T07:59:42.224Z</time>
      </trkpt>
      <trkpt lat="42.57393" lon="22.95664">
        <ele>778.580411</ele>
        <time>2022-04-05T07:59:43.272Z</time>
      </trkpt>
      <trkpt lat="42.57384" lon="22.95669">
        <ele>778.030395</ele>
        <time>2022-04-05T07:59:44.210Z</time>
      </trkpt>
      <trkpt lat="42.57375" lon="22.95673">
        <ele>777.477836</ele>
        <time>2022-04-05T07:59:45.217Z</time>
      </trkpt>
      <trkpt lat="42.57366" lon="22.95677">
        <ele>776.94308</ele>
        <time>2022-04-05T07:59:46.208Z</time>
      </trkpt>
      <trkpt lat="42.57358" lon="22.95681">
        <ele>776.413778</ele>
        <time>2022-04-05T07:59:47.219Z</time>
      </trkpt>
      <trkpt lat="42.57341" lon="22.9569">
        <ele>775.759795</ele>
        <time>2022-04-05T07:59:49.247Z</time>
      </trkpt>
      <trkpt lat="42.57325" lon="22.95698">
        <ele>775.377337</ele>
        <time>2022-04-05T07:59:51.233Z</time>
      </trkpt>
      <trkpt lat="42.5731" lon="22.95706">
        <ele>775.010923</ele>
        <time>2022-04-05T07:59:53.221Z</time>
      </trkpt>
      <trkpt lat="42.57295" lon="22.95713">
        <ele>774.671392</ele>
        <time>2022-04-05T07:59:55.239Z</time>
      </trkpt>
      <trkpt lat="42.57281" lon="22.95721">
        <ele>774.338933</ele>
        <time>2022-04-05T07:59:57.206Z</time>
      </trkpt>
      <trkpt lat="42.57268" lon="22.95728">
        <ele>774.015069</ele>
        <time>2022-04-05T07:59:59.250Z</time>
      </trkpt>
      <trkpt lat="42.57254" lon="22.95736">
        <ele>773.6935</ele>
        <time>2022-04-05T08:00:01.256Z</time>
      </trkpt>
      <trkpt lat="42.57241" lon="22.95743">
        <ele>773.36608</ele>
        <time>2022-04-05T08:00:03.316Z</time>
      </trkpt>
      <trkpt lat="42.57227" lon="22.9575">
        <ele>773.047183</ele>
        <time>2022-04-05T08:00:05.271Z</time>
      </trkpt>
      <trkpt lat="42.57215" lon="22.95757">
        <ele>772.743884</ele>
        <time>2022-04-05T08:00:07.228Z</time>
      </trkpt>
      <trkpt lat="42.57202" lon="22.95765">
        <ele>772.442692</ele>
        <time>2022-04-05T08:00:09.217Z</time>
      </trkpt>
      <trkpt lat="42.5719" lon="22.95773">
        <ele>772.147584</ele>
        <time>2022-04-05T08:00:11.225Z</time>
      </trkpt>
      <trkpt lat="42.57178" lon="22.9578">
        <ele>771.970293</ele>
        <time>2022-04-05T08:00:13.227Z</time>
      </trkpt>
      <trkpt lat="42.57166" lon="22.95787">
        <ele>771.924048</ele>
        <time>2022-04-05T08:00:15.228Z</time>
      </trkpt>
      <trkpt lat="42.57154" lon="22.95794">
        <ele>771.878016</ele>
        <time>2022-04-05T08:00:17.214Z</time>
      </trkpt>
      <trkpt lat="42.57143" lon="22.95802">
        <ele>771.833895</ele>
        <time>2022-04-05T08:00:19.247Z</time>
      </trkpt>
      <trkpt lat="42.57132" lon="22.95809">
        <ele>771.79032</ele>
        <time>2022-04-05T08:00:21.241Z</time>
      </trkpt>
      <trkpt lat="42.5712" lon="22.95815">
        <ele>771.747381</ele>
        <time>2022-04-05T08:00:23.228Z</time>
      </trkpt>
      <trkpt lat="42.5711" lon="22.95822">
        <ele>771.706582</ele>
        <time>2022-04-05T08:00:25.207Z</time>
      </trkpt>
      <trkpt lat="42.57099" lon="22.95828">
        <ele>771.665462</ele>
        <time>2022-04-05T08:00:27.253Z</time>
      </trkpt>
      <trkpt lat="42.57088" lon="22.95835">
        <ele>771.623272</ele>
        <time>2022-04-05T08:00:29.228Z</time>
      </trkpt>
      <trkpt lat="42.57077" lon="22.95841">
        <ele>771.581932</ele>
        <time>2022-04-05T08:00:31.222Z</time>
      </trkpt>
      <trkpt lat="42.57067" lon="22.95848">
        <ele>771.541653</ele>
        <time>2022-04-05T08:00:33.251Z</time>
      </trkpt>
      <trkpt lat="42.57057" lon="22.95854">
        <ele>771.501169</ele>
        <time>2022-04-05T08:00:35.212Z</time>
      </trkpt>
      <trkpt lat="42.57047" lon="22.95861">
        <ele>771.462717</ele>
        <time>2022-04-05T08:00:37.217Z</time>
      </trkpt>
      <trkpt lat="42.57037" lon="22.95867">
        <ele>771.426085</ele>
        <time>2022-04-05T08:00:39.217Z</time>
      </trkpt>
      <trkpt lat="42.57028" lon="22.95872">
        <ele>771.39073</ele>
        <time>2022-04-05T08:00:41.237Z</time>
      </trkpt>
      <trkpt lat="42.57019" lon="22.95878">
        <ele>771.359772</ele>
        <time>2022-04-05T08:00:43.228Z</time>
      </trkpt>
      <trkpt lat="42.57011" lon="22.95884">
        <ele>771.358265</ele>
        <time>2022-04-05T08:00:45.238Z</time>
      </trkpt>
      <trkpt lat="42.57003" lon="22.9589">
        <ele>771.356739</ele>
        <time>2022-04-05T08:00:47.216Z</time>
      </trkpt>
      <trkpt lat="42.56994" lon="22.95895">
        <ele>771.355139</ele>
        <time>2022-04-05T08:00:49.224Z</time>
      </trkpt>
      <trkpt lat="42.56985" lon="22.95901">
        <ele>771.353499</ele>
        <time>2022-04-05T08:00:51.237Z</time>
      </trkpt>
      <trkpt lat="42.56976" lon="22.95908">
        <ele>771.351789</ele>
        <time>2022-04-05T08:00:53.208Z</time>
      </trkpt>
      <trkpt lat="42.56966" lon="22.95914">
        <ele>771.35007</ele>
        <time>2022-04-05T08:00:55.221Z</time>
      </trkpt>
      <trkpt lat="42.56957" lon="22.9592">
        <ele>771.348351</ele>
        <time>2022-04-05T08:00:57.217Z</time>
      </trkpt>
      <trkpt lat="42.56947" lon="22.95926">
        <ele>771.346641</ele>
        <time>2022-04-05T08:00:59.218Z</time>
      </trkpt>
      <trkpt lat="42.56938" lon="22.95932">
        <ele>771.344947</ele>
        <time>2022-04-05T08:01:01.257Z</time>
      </trkpt>
      <trkpt lat="42.56929" lon="22.95938">
        <ele>771.343256</ele>
        <time>2022-04-05T08:01:03.234Z</time>
      </trkpt>
      <trkpt lat="42.56919" lon="22.95945">
        <ele>771.341536</ele>
        <time>2022-04-05T08:01:05.220Z</time>
      </trkpt>
      <trkpt lat="42.5691" lon="22.95951">
        <ele>771.339841</ele>
        <time>2022-04-05T08:01:07.202Z</time>
      </trkpt>
      <trkpt lat="42.56901" lon="22.95957">
        <ele>771.338221</ele>
        <time>2022-04-05T08:01:09.261Z</time>
      </trkpt>
      <trkpt lat="42.56892" lon="22.95963">
        <ele>771.336586</ele>
        <time>2022-04-05T08:01:11.225Z</time>
      </trkpt>
      <trkpt lat="42.56883" lon="22.95968">
        <ele>771.335011</ele>
        <time>2022-04-05T08:01:13.222Z</time>
      </trkpt>
      <trkpt lat="42.56875" lon="22.95974">
        <ele>771.333464</ele>
        <time>2022-04-05T08:01:15.223Z</time>
      </trkpt>
      <trkpt lat="42.56867" lon="22.9598">
        <ele>771.331914</ele>
        <time>2022-04-05T08:01:17.214Z</time>
      </trkpt>
      <trkpt lat="42.56858" lon="22.95987">
        <ele>771.334646</ele>
        <time>2022-04-05T08:01:19.223Z</time>
      </trkpt>
      <trkpt lat="42.5685" lon="22.95994">
        <ele>771.375072</ele>
        <time>2022-04-05T08:01:21.223Z</time>
      </trkpt>
      <trkpt lat="42.56841" lon="22.96">
        <ele>771.415697</ele>
        <time>2022-04-05T08:01:23.219Z</time>
      </trkpt>
      <trkpt lat="42.56833" lon="22.96007">
        <ele>771.455268</ele>
        <time>2022-04-05T08:01:25.266Z</time>
      </trkpt>
      <trkpt lat="42.56825" lon="22.96014">
        <ele>771.493132</ele>
        <time>2022-04-05T08:01:27.227Z</time>
      </trkpt>
      <trkpt lat="42.56817" lon="22.9602">
        <ele>771.530996</ele>
        <time>2022-04-05T08:01:29.219Z</time>
      </trkpt>
      <trkpt lat="42.56809" lon="22.96027">
        <ele>771.569208</ele>
        <time>2022-04-05T08:01:31.233Z</time>
      </trkpt>
      <trkpt lat="42.56801" lon="22.96034">
        <ele>771.60812</ele>
        <time>2022-04-05T08:01:33.226Z</time>
      </trkpt>
      <trkpt lat="42.56793" lon="22.9604">
        <ele>771.646333</ele>
        <time>2022-04-05T08:01:35.223Z</time>
      </trkpt>
      <trkpt lat="42.56782" lon="22.96049">
        <ele>771.697442</ele>
        <time>2022-04-05T08:01:38.229Z</time>
      </trkpt>
      <trkpt lat="42.56772" lon="22.96057">
        <ele>771.74603</ele>
        <time>2022-04-05T08:01:41.237Z</time>
      </trkpt>
      <trkpt lat="42.56762" lon="22.96064">
        <ele>771.790296</ele>
        <time>2022-04-05T08:01:44.218Z</time>
      </trkpt>
      <trkpt lat="42.56753" lon="22.96071">
        <ele>771.834276</ele>
        <time>2022-04-05T08:01:47.243Z</time>
      </trkpt>
      <trkpt lat="42.56743" lon="22.96078">
        <ele>771.88043</ele>
        <time>2022-04-05T08:01:50.221Z</time>
      </trkpt>
      <trkpt lat="42.56733" lon="22.96084">
        <ele>771.922905</ele>
        <time>2022-04-05T08:01:53.221Z</time>
      </trkpt>
      <trkpt lat="42.56725" lon="22.96092">
        <ele>771.964653</ele>
        <time>2022-04-05T08:01:56.284Z</time>
      </trkpt>
      <trkpt lat="42.56716" lon="22.96099">
        <ele>772.00555</ele>
        <time>2022-04-05T08:01:59.239Z</time>
      </trkpt>
      <trkpt lat="42.56707" lon="22.96106">
        <ele>772.047617</ele>
        <time>2022-04-05T08:02:02.234Z</time>
      </trkpt>
      <trkpt lat="42.56699" lon="22.96114">
        <ele>772.210754</ele>
        <time>2022-04-05T08:02:05.228Z</time>
      </trkpt>
      <trkpt lat="42.5669" lon="22.96121">
        <ele>772.461932</ele>
        <time>2022-04-05T08:02:08.224Z</time>
      </trkpt>
      <trkpt lat="42.56681" lon="22.96128">
        <ele>772.702562</ele>
        <time>2022-04-05T08:02:11.223Z</time>
      </trkpt>
      <trkpt lat="42.56671" lon="22.96135">
        <ele>772.948627</ele>
        <time>2022-04-05T08:02:14.259Z</time>
      </trkpt>
      <trkpt lat="42.56662" lon="22.96141">
        <ele>773.195045</ele>
        <time>2022-04-05T08:02:17.211Z</time>
      </trkpt>
      <trkpt lat="42.56654" lon="22.96148">
        <ele>773.420451</ele>
        <time>2022-04-05T08:02:20.219Z</time>
      </trkpt>
      <trkpt lat="42.56646" lon="22.96154">
        <ele>773.644701</ele>
        <time>2022-04-05T08:02:23.205Z</time>
      </trkpt>
      <trkpt lat="42.56637" lon="22.96161">
        <ele>773.868951</ele>
        <time>2022-04-05T08:02:26.213Z</time>
      </trkpt>
      <trkpt lat="42.56628" lon="22.96168">
        <ele>774.111248</ele>
        <time>2022-04-05T08:02:29.208Z</time>
      </trkpt>
      <trkpt lat="42.56619" lon="22.96175">
        <ele>774.356114</ele>
        <time>2022-04-05T08:02:32.217Z</time>
      </trkpt>
      <trkpt lat="42.5661" lon="22.96181">
        <ele>774.594319</ele>
        <time>2022-04-05T08:02:35.253Z</time>
      </trkpt>
      <trkpt lat="42.56601" lon="22.96187">
        <ele>774.832301</ele>
        <time>2022-04-05T08:02:38.214Z</time>
      </trkpt>
      <trkpt lat="42.56592" lon="22.96193">
        <ele>775.073922</ele>
        <time>2022-04-05T08:02:41.268Z</time>
      </trkpt>
      <trkpt lat="42.56583" lon="22.962">
        <ele>775.316626</ele>
        <time>2022-04-05T08:02:44.225Z</time>
      </trkpt>
      <trkpt lat="42.56574" lon="22.96207">
        <ele>775.560981</ele>
        <time>2022-04-05T08:02:47.218Z</time>
      </trkpt>
      <trkpt lat="42.56565" lon="22.96213">
        <ele>775.793756</ele>
        <time>2022-04-05T08:02:50.215Z</time>
      </trkpt>
      <trkpt lat="42.56556" lon="22.9622">
        <ele>776.03276</ele>
        <time>2022-04-05T08:02:53.257Z</time>
      </trkpt>
      <trkpt lat="42.56547" lon="22.96227">
        <ele>776.281409</ele>
        <time>2022-04-05T08:02:56.229Z</time>
      </trkpt>
      <trkpt lat="42.56538" lon="22.96234">
        <ele>776.415151</ele>
        <time>2022-04-05T08:02:59.212Z</time>
      </trkpt>
      <trkpt lat="42.56529" lon="22.96241">
        <ele>776.547347</ele>
        <time>2022-04-05T08:03:02.231Z</time>
      </trkpt>
      <trkpt lat="42.5652" lon="22.96248">
        <ele>776.676778</ele>
        <time>2022-04-05T08:03:05.216Z</time>
      </trkpt>
      <trkpt lat="42.5651" lon="22.96255">
        <ele>776.81052</ele>
        <time>2022-04-05T08:03:08.208Z</time>
      </trkpt>
      <trkpt lat="42.56501" lon="22.96262">
        <ele>776.940121</ele>
        <time>2022-04-05T08:03:11.226Z</time>
      </trkpt>
      <trkpt lat="42.56492" lon="22.96268">
        <ele>777.066978</ele>
        <time>2022-04-05T08:03:14.233Z</time>
      </trkpt>
      <trkpt lat="42.56482" lon="22.96273">
        <ele>777.19717</ele>
        <time>2022-04-05T08:03:17.240Z</time>
      </trkpt>
      <trkpt lat="42.56473" lon="22.96279">
        <ele>777.322093</ele>
        <time>2022-04-05T08:03:20.235Z</time>
      </trkpt>
      <trkpt lat="42.56464" lon="22.96284">
        <ele>777.449701</ele>
        <time>2022-04-05T08:03:23.219Z</time>
      </trkpt>
      <trkpt lat="42.56454" lon="22.96289">
        <ele>777.573303</ele>
        <time>2022-04-05T08:03:26.260Z</time>
      </trkpt>
      <trkpt lat="42.56445" lon="22.96294">
        <ele>777.700312</ele>
        <time>2022-04-05T08:03:29.230Z</time>
      </trkpt>
      <trkpt lat="42.56435" lon="22.96298">
        <ele>777.826149</ele>
        <time>2022-04-05T08:03:32.217Z</time>
      </trkpt>
      <trkpt lat="42.56426" lon="22.96302">
        <ele>777.94848</ele>
        <time>2022-04-05T08:03:35.249Z</time>
      </trkpt>
      <trkpt lat="42.56417" lon="22.96306">
        <ele>778.061717</ele>
        <time>2022-04-05T08:03:38.230Z</time>
      </trkpt>
      <trkpt lat="42.56405" lon="22.96311">
        <ele>778.211709</ele>
        <time>2022-04-05T08:03:42.235Z</time>
      </trkpt>
      <trkpt lat="42.56394" lon="22.96315">
        <ele>778.358144</ele>
        <time>2022-04-05T08:03:46.226Z</time>
      </trkpt>
      <trkpt lat="42.56385" lon="22.96317">
        <ele>778.470942</ele>
        <time>2022-04-05T08:03:49.235Z</time>
      </trkpt>
      <trkpt lat="42.56373" lon="22.96321">
        <ele>778.685451</ele>
        <time>2022-04-05T08:03:53.210Z</time>
      </trkpt>
      <trkpt lat="42.56362" lon="22.96324">
        <ele>778.942902</ele>
        <time>2022-04-05T08:03:57.266Z</time>
      </trkpt>
      <trkpt lat="42.56351" lon="22.96327">
        <ele>779.187932</ele>
        <time>2022-04-05T08:04:01.207Z</time>
      </trkpt>
      <trkpt lat="42.56339" lon="22.9633">
        <ele>779.445092</ele>
        <time>2022-04-05T08:04:05.225Z</time>
      </trkpt>
      <trkpt lat="42.56328" lon="22.96333">
        <ele>779.691928</ele>
        <time>2022-04-05T08:04:09.245Z</time>
      </trkpt>
      <trkpt lat="42.56316" lon="22.96336">
        <ele>779.9394</ele>
        <time>2022-04-05T08:04:13.236Z</time>
      </trkpt>
      <trkpt lat="42.56305" lon="22.96339">
        <ele>780.181686</ele>
        <time>2022-04-05T08:04:17.228Z</time>
      </trkpt>
      <trkpt lat="42.56296" lon="22.96341">
        <ele>780.389433</ele>
        <time>2022-04-05T08:04:21.230Z</time>
      </trkpt>
      <trkpt lat="42.56287" lon="22.96343">
        <ele>780.595161</ele>
        <time>2022-04-05T08:04:25.224Z</time>
      </trkpt>
      <trkpt lat="42.56277" lon="22.96346">
        <ele>780.809935</ele>
        <time>2022-04-05T08:04:29.235Z</time>
      </trkpt>
      <trkpt lat="42.56267" lon="22.96348">
        <ele>781.030707</ele>
        <time>2022-04-05T08:04:33.221Z</time>
      </trkpt>
      <trkpt lat="42.56257" lon="22.9635">
        <ele>781.244984</ele>
        <time>2022-04-05T08:04:37.216Z</time>
      </trkpt>
      <trkpt lat="42.56246" lon="22.96353">
        <ele>781.476606</ele>
        <time>2022-04-05T08:04:41.250Z</time>
      </trkpt>
      <trkpt lat="42.56236" lon="22.96355">
        <ele>781.698309</ele>
        <time>2022-04-05T08:04:45.235Z</time>
      </trkpt>
      <trkpt lat="42.56226" lon="22.96358">
        <ele>781.934184</ele>
        <time>2022-04-05T08:04:49.261Z</time>
      </trkpt>
      <trkpt lat="42.56216" lon="22.96361">
        <ele>782.146492</ele>
        <time>2022-04-05T08:04:53.229Z</time>
      </trkpt>
      <trkpt lat="42.56206" lon="22.96364">
        <ele>782.370744</ele>
        <time>2022-04-05T08:04:57.235Z</time>
      </trkpt>
      <trkpt lat="42.56197" lon="22.96366">
        <ele>782.492616</ele>
        <time>2022-04-05T08:05:01.283Z</time>
      </trkpt>
      <trkpt lat="42.56187" lon="22.96369">
        <ele>782.598135</ele>
        <time>2022-04-05T08:05:05.229Z</time>
      </trkpt>
      <trkpt lat="42.56178" lon="22.96371">
        <ele>782.701409</ele>
        <time>2022-04-05T08:05:09.236Z</time>
      </trkpt>
      <trkpt lat="42.56168" lon="22.96374">
        <ele>782.810221</ele>
        <time>2022-04-05T08:05:13.231Z</time>
      </trkpt>
      <trkpt lat="42.56157" lon="22.96377">
        <ele>782.927419</ele>
        <time>2022-04-05T08:05:17.230Z</time>
      </trkpt>
      <trkpt lat="42.56148" lon="22.96379">
        <ele>783.026664</ele>
        <time>2022-04-05T08:05:20.228Z</time>
      </trkpt>
      <trkpt lat="42.56139" lon="22.96382">
        <ele>783.124704</ele>
        <time>2022-04-05T08:05:23.242Z</time>
      </trkpt>
      <trkpt lat="42.56127" lon="22.96385">
        <ele>783.251495</ele>
        <time>2022-04-05T08:05:27.234Z</time>
      </trkpt>
      <trkpt lat="42.56115" lon="22.96388">
        <ele>783.377823</ele>
        <time>2022-04-05T08:05:31.226Z</time>
      </trkpt>
      <trkpt lat="42.56106" lon="22.9639">
        <ele>783.47423</ele>
        <time>2022-04-05T08:05:34.226Z</time>
      </trkpt>
      <trkpt lat="42.56097" lon="22.96392">
        <ele>783.575564</ele>
        <time>2022-04-05T08:05:37.216Z</time>
      </trkpt>
      <trkpt lat="42.56087" lon="22.96395">
        <ele>783.68079</ele>
        <time>2022-04-05T08:05:40.215Z</time>
      </trkpt>
      <trkpt lat="42.56078" lon="22.96397">
        <ele>783.785619</ele>
        <time>2022-04-05T08:05:43.219Z</time>
      </trkpt>
      <trkpt lat="42.56067" lon="22.96399">
        <ele>783.899004</ele>
        <time>2022-04-05T08:05:46.218Z</time>
      </trkpt>
      <trkpt lat="42.56057" lon="22.96402">
        <ele>784.013825</ele>
        <time>2022-04-05T08:05:49.216Z</time>
      </trkpt>
      <trkpt lat="42.56047" lon="22.96404">
        <ele>784.122202</ele>
        <time>2022-04-05T08:05:52.214Z</time>
      </trkpt>
      <trkpt lat="42.56036" lon="22.96407">
        <ele>784.2415</ele>
        <time>2022-04-05T08:05:55.223Z</time>
      </trkpt>
      <trkpt lat="42.56024" lon="22.9641">
        <ele>784.223488</ele>
        <time>2022-04-05T08:05:58.216Z</time>
      </trkpt>
      <trkpt lat="42.56015" lon="22.96412">
        <ele>783.944674</ele>
        <time>2022-04-05T08:06:00.226Z</time>
      </trkpt>
      <trkpt lat="42.56006" lon="22.96414">
        <ele>783.663697</ele>
        <time>2022-04-05T08:06:02.221Z</time>
      </trkpt>
      <trkpt lat="42.55996" lon="22.96417">
        <ele>783.37506</ele>
        <time>2022-04-05T08:06:04.242Z</time>
      </trkpt>
      <trkpt lat="42.55987" lon="22.96419">
        <ele>783.092827</ele>
        <time>2022-04-05T08:06:06.224Z</time>
      </trkpt>
      <trkpt lat="42.55978" lon="22.96422">
        <ele>782.816089</ele>
        <time>2022-04-05T08:06:08.216Z</time>
      </trkpt>
      <trkpt lat="42.55969" lon="22.96425">
        <ele>782.515596</ele>
        <time>2022-04-05T08:06:10.216Z</time>
      </trkpt>
      <trkpt lat="42.55959" lon="22.96428">
        <ele>782.214598</ele>
        <time>2022-04-05T08:06:12.225Z</time>
      </trkpt>
      <trkpt lat="42.55949" lon="22.96431">
        <ele>781.902103</ele>
        <time>2022-04-05T08:06:14.224Z</time>
      </trkpt>
      <trkpt lat="42.55938" lon="22.96433">
        <ele>781.576136</ele>
        <time>2022-04-05T08:06:16.216Z</time>
      </trkpt>
      <trkpt lat="42.55927" lon="22.96436">
        <ele>781.229949</ele>
        <time>2022-04-05T08:06:18.214Z</time>
      </trkpt>
      <trkpt lat="42.55915" lon="22.96439">
        <ele>780.865012</ele>
        <time>2022-04-05T08:06:20.225Z</time>
      </trkpt>
      <trkpt lat="42.55903" lon="22.96442">
        <ele>780.471078</ele>
        <time>2022-04-05T08:06:22.213Z</time>
      </trkpt>
      <trkpt lat="42.5589" lon="22.96445">
        <ele>780.078011</ele>
        <time>2022-04-05T08:06:24.240Z</time>
      </trkpt>
      <trkpt lat="42.55877" lon="22.96449">
        <ele>779.66917</ele>
        <time>2022-04-05T08:06:26.264Z</time>
      </trkpt>
      <trkpt lat="42.55863" lon="22.96452">
        <ele>779.2492</ele>
        <time>2022-04-05T08:06:28.217Z</time>
      </trkpt>
      <trkpt lat="42.55849" lon="22.96455">
        <ele>778.804389</ele>
        <time>2022-04-05T08:06:30.221Z</time>
      </trkpt>
      <trkpt lat="42.55835" lon="22.96458">
        <ele>778.280767</ele>
        <time>2022-04-05T08:06:32.264Z</time>
      </trkpt>
      <trkpt lat="42.5582" lon="22.96461">
        <ele>777.748783</ele>
        <time>2022-04-05T08:06:34.203Z</time>
      </trkpt>
      <trkpt lat="42.55806" lon="22.96465">
        <ele>777.212368</ele>
        <time>2022-04-05T08:06:36.237Z</time>
      </trkpt>
      <trkpt lat="42.5579" lon="22.96467">
        <ele>776.660389</ele>
        <time>2022-04-05T08:06:38.271Z</time>
      </trkpt>
      <trkpt lat="42.55775" lon="22.9647">
        <ele>776.097965</ele>
        <time>2022-04-05T08:06:40.216Z</time>
      </trkpt>
      <trkpt lat="42.5576" lon="22.96473">
        <ele>775.530906</ele>
        <time>2022-04-05T08:06:42.220Z</time>
      </trkpt>
      <trkpt lat="42.55744" lon="22.96475">
        <ele>774.954407</ele>
        <time>2022-04-05T08:06:44.257Z</time>
      </trkpt>
      <trkpt lat="42.55727" lon="22.96478">
        <ele>774.358954</ele>
        <time>2022-04-05T08:06:46.238Z</time>
      </trkpt>
      <trkpt lat="42.55711" lon="22.96481">
        <ele>773.755624</ele>
        <time>2022-04-05T08:06:48.234Z</time>
      </trkpt>
      <trkpt lat="42.55695" lon="22.96484">
        <ele>773.162323</ele>
        <time>2022-04-05T08:06:50.315Z</time>
      </trkpt>
      <trkpt lat="42.55679" lon="22.96487">
        <ele>772.570121</ele>
        <time>2022-04-05T08:06:52.218Z</time>
      </trkpt>
      <trkpt lat="42.55662" lon="22.9649">
        <ele>771.96697</ele>
        <time>2022-04-05T08:06:54.320Z</time>
      </trkpt>
      <trkpt lat="42.55645" lon="22.96493">
        <ele>771.350265</ele>
        <time>2022-04-05T08:06:56.242Z</time>
      </trkpt>
      <trkpt lat="42.55628" lon="22.96495">
        <ele>770.722316</ele>
        <time>2022-04-05T08:06:58.213Z</time>
      </trkpt>
      <trkpt lat="42.55612" lon="22.96498">
        <ele>770.105285</ele>
        <time>2022-04-05T08:07:00.214Z</time>
      </trkpt>
      <trkpt lat="42.55595" lon="22.96501">
        <ele>769.48858</ele>
        <time>2022-04-05T08:07:02.218Z</time>
      </trkpt>
      <trkpt lat="42.55578" lon="22.96504">
        <ele>768.86427</ele>
        <time>2022-04-05T08:07:04.203Z</time>
      </trkpt>
      <trkpt lat="42.55561" lon="22.96506">
        <ele>768.240282</ele>
        <time>2022-04-05T08:07:06.222Z</time>
      </trkpt>
      <trkpt lat="42.55544" lon="22.96509">
        <ele>767.616902</ele>
        <time>2022-04-05T08:07:08.221Z</time>
      </trkpt>
      <trkpt lat="42.55527" lon="22.96511">
        <ele>766.972189</ele>
        <time>2022-04-05T08:07:10.224Z</time>
      </trkpt>
      <trkpt lat="42.5551" lon="22.96513">
        <ele>766.335032</ele>
        <time>2022-04-05T08:07:12.247Z</time>
      </trkpt>
      <trkpt lat="42.55492" lon="22.96516">
        <ele>765.716032</ele>
        <time>2022-04-05T08:07:14.266Z</time>
      </trkpt>
      <trkpt lat="42.55475" lon="22.96519">
        <ele>765.292747</ele>
        <time>2022-04-05T08:07:16.241Z</time>
      </trkpt>
      <trkpt lat="42.55457" lon="22.96522">
        <ele>764.866119</ele>
        <time>2022-04-05T08:07:18.238Z</time>
      </trkpt>
      <trkpt lat="42.5544" lon="22.96525">
        <ele>764.435196</ele>
        <time>2022-04-05T08:07:20.213Z</time>
      </trkpt>
      <trkpt lat="42.55422" lon="22.96528">
        <ele>763.997756</ele>
        <time>2022-04-05T08:07:22.220Z</time>
      </trkpt>
      <trkpt lat="42.55413" lon="22.9653">
        <ele>763.778929</ele>
        <time>2022-04-05T08:07:23.289Z</time>
      </trkpt>
      <trkpt lat="42.55395" lon="22.96533">
        <ele>763.35826</ele>
        <time>2022-04-05T08:07:25.213Z</time>
      </trkpt>
      <trkpt lat="42.55379" lon="22.96535">
        <ele>762.954789</ele>
        <time>2022-04-05T08:07:27.298Z</time>
      </trkpt>
      <trkpt lat="42.55362" lon="22.96539">
        <ele>762.554149</ele>
        <time>2022-04-05T08:07:29.225Z</time>
      </trkpt>
      <trkpt lat="42.55346" lon="22.96542">
        <ele>762.149009</ele>
        <time>2022-04-05T08:07:31.214Z</time>
      </trkpt>
      <trkpt lat="42.55329" lon="22.96545">
        <ele>761.748143</ele>
        <time>2022-04-05T08:07:33.245Z</time>
      </trkpt>
      <trkpt lat="42.55313" lon="22.96547">
        <ele>761.4058</ele>
        <time>2022-04-05T08:07:35.214Z</time>
      </trkpt>
      <trkpt lat="42.55296" lon="22.9655">
        <ele>761.36466</ele>
        <time>2022-04-05T08:07:37.223Z</time>
      </trkpt>
      <trkpt lat="42.55278" lon="22.96552">
        <ele>761.322649</ele>
        <time>2022-04-05T08:07:39.211Z</time>
      </trkpt>
      <trkpt lat="42.55261" lon="22.96555">
        <ele>761.281704</ele>
        <time>2022-04-05T08:07:41.237Z</time>
      </trkpt>
      <trkpt lat="42.55245" lon="22.96558">
        <ele>761.241784</ele>
        <time>2022-04-05T08:07:43.206Z</time>
      </trkpt>
      <trkpt lat="42.55229" lon="22.96559">
        <ele>761.205532</ele>
        <time>2022-04-05T08:07:45.269Z</time>
      </trkpt>
      <trkpt lat="42.55214" lon="22.96561">
        <ele>761.168136</ele>
        <time>2022-04-05T08:07:47.239Z</time>
      </trkpt>
      <trkpt lat="42.552" lon="22.96563">
        <ele>761.134906</ele>
        <time>2022-04-05T08:07:49.226Z</time>
      </trkpt>
      <trkpt lat="42.55188" lon="22.96564">
        <ele>761.105668</ele>
        <time>2022-04-05T08:07:51.219Z</time>
      </trkpt>
      <trkpt lat="42.55175" lon="22.96564">
        <ele>761.076899</ele>
        <time>2022-04-05T08:07:53.236Z</time>
      </trkpt>
      <trkpt lat="42.55164" lon="22.96565">
        <ele>761.048796</ele>
        <time>2022-04-05T08:07:55.219Z</time>
      </trkpt>
      <trkpt lat="42.55151" lon="22.96566">
        <ele>761.019756</ele>
        <time>2022-04-05T08:07:57.228Z</time>
      </trkpt>
      <trkpt lat="42.55141" lon="22.96567">
        <ele>760.994047</ele>
        <time>2022-04-05T08:07:59.272Z</time>
      </trkpt>
      <trkpt lat="42.5513" lon="22.96567">
        <ele>760.617043</ele>
        <time>2022-04-05T08:08:01.221Z</time>
      </trkpt>
      <trkpt lat="42.55121" lon="22.96566">
        <ele>760.037473</ele>
        <time>2022-04-05T08:08:03.222Z</time>
      </trkpt>
      <trkpt lat="42.55107" lon="22.96565">
        <ele>759.210793</ele>
        <time>2022-04-05T08:08:06.213Z</time>
      </trkpt>
      <trkpt lat="42.55098" lon="22.96563">
        <ele>758.61243</ele>
        <time>2022-04-05T08:08:08.243Z</time>
      </trkpt>
      <trkpt lat="42.55087" lon="22.96559">
        <ele>757.936201</ele>
        <time>2022-04-05T08:08:10.227Z</time>
      </trkpt>
      <trkpt lat="42.55075" lon="22.96554">
        <ele>757.135576</ele>
        <time>2022-04-05T08:08:12.223Z</time>
      </trkpt>
      <trkpt lat="42.55062" lon="22.96549">
        <ele>756.29766</ele>
        <time>2022-04-05T08:08:14.231Z</time>
      </trkpt>
      <trkpt lat="42.55049" lon="22.96541">
        <ele>755.439759</ele>
        <time>2022-04-05T08:08:16.207Z</time>
      </trkpt>
      <trkpt lat="42.55036" lon="22.96533">
        <ele>754.575349</ele>
        <time>2022-04-05T08:08:18.231Z</time>
      </trkpt>
      <trkpt lat="42.55025" lon="22.96523">
        <ele>753.737981</ele>
        <time>2022-04-05T08:08:20.217Z</time>
      </trkpt>
      <trkpt lat="42.55013" lon="22.96513">
        <ele>752.894946</ele>
        <time>2022-04-05T08:08:22.220Z</time>
      </trkpt>
      <trkpt lat="42.55" lon="22.965">
        <ele>751.919833</ele>
        <time>2022-04-05T08:08:24.222Z</time>
      </trkpt>
      <trkpt lat="42.54986" lon="22.96489">
        <ele>750.90291</ele>
        <time>2022-04-05T08:08:26.218Z</time>
      </trkpt>
      <trkpt lat="42.54972" lon="22.96476">
        <ele>749.893846</ele>
        <time>2022-04-05T08:08:28.219Z</time>
      </trkpt>
      <trkpt lat="42.54958" lon="22.96464">
        <ele>749.158561</ele>
        <time>2022-04-05T08:08:30.222Z</time>
      </trkpt>
      <trkpt lat="42.54943" lon="22.9645">
        <ele>748.389632</ele>
        <time>2022-04-05T08:08:32.242Z</time>
      </trkpt>
      <trkpt lat="42.54928" lon="22.96438">
        <ele>747.654181</ele>
        <time>2022-04-05T08:08:34.243Z</time>
      </trkpt>
      <trkpt lat="42.54914" lon="22.96426">
        <ele>746.92256</ele>
        <time>2022-04-05T08:08:36.234Z</time>
      </trkpt>
      <trkpt lat="42.54898" lon="22.96416">
        <ele>746.176526</ele>
        <time>2022-04-05T08:08:38.223Z</time>
      </trkpt>
      <trkpt lat="42.54882" lon="22.96405">
        <ele>745.436532</ele>
        <time>2022-04-05T08:08:40.218Z</time>
      </trkpt>
      <trkpt lat="42.54873" lon="22.96401">
        <ele>745.015819</ele>
        <time>2022-04-05T08:08:41.222Z</time>
      </trkpt>
      <trkpt lat="42.54863" lon="22.96397">
        <ele>744.585912</ele>
        <time>2022-04-05T08:08:42.278Z</time>
      </trkpt>
      <trkpt lat="42.54853" lon="22.96393">
        <ele>744.132344</ele>
        <time>2022-04-05T08:08:43.241Z</time>
      </trkpt>
      <trkpt lat="42.54843" lon="22.9639">
        <ele>743.680264</ele>
        <time>2022-04-05T08:08:44.206Z</time>
      </trkpt>
      <trkpt lat="42.54833" lon="22.96387">
        <ele>743.255285</ele>
        <time>2022-04-05T08:08:45.221Z</time>
      </trkpt>
      <trkpt lat="42.54823" lon="22.96383">
        <ele>742.825716</ele>
        <time>2022-04-05T08:08:46.218Z</time>
      </trkpt>
      <trkpt lat="42.54813" lon="22.9638">
        <ele>742.358952</ele>
        <time>2022-04-05T08:08:47.318Z</time>
      </trkpt>
      <trkpt lat="42.54801" lon="22.96378">
        <ele>741.911068</ele>
        <time>2022-04-05T08:08:48.240Z</time>
      </trkpt>
      <trkpt lat="42.54789" lon="22.96375">
        <ele>741.494965</ele>
        <time>2022-04-05T08:08:49.245Z</time>
      </trkpt>
      <trkpt lat="42.54779" lon="22.96373">
        <ele>741.111376</ele>
        <time>2022-04-05T08:08:50.223Z</time>
      </trkpt>
      <trkpt lat="42.54769" lon="22.9637">
        <ele>740.759839</ele>
        <time>2022-04-05T08:08:51.224Z</time>
      </trkpt>
      <trkpt lat="42.5476" lon="22.96368">
        <ele>740.43332</ele>
        <time>2022-04-05T08:08:52.236Z</time>
      </trkpt>
      <trkpt lat="42.54744" lon="22.96363">
        <ele>739.844856</ele>
        <time>2022-04-05T08:08:54.216Z</time>
      </trkpt>
      <trkpt lat="42.54729" lon="22.96355">
        <ele>739.285868</ele>
        <time>2022-04-05T08:08:56.227Z</time>
      </trkpt>
      <trkpt lat="42.54715" lon="22.96348">
        <ele>738.735014</ele>
        <time>2022-04-05T08:08:58.302Z</time>
      </trkpt>
      <trkpt lat="42.54701" lon="22.96341">
        <ele>738.203979</ele>
        <time>2022-04-05T08:09:00.249Z</time>
      </trkpt>
      <trkpt lat="42.54689" lon="22.96333">
        <ele>737.714565</ele>
        <time>2022-04-05T08:09:02.235Z</time>
      </trkpt>
      <trkpt lat="42.54676" lon="22.96326">
        <ele>737.230556</ele>
        <time>2022-04-05T08:09:04.248Z</time>
      </trkpt>
      <trkpt lat="42.54664" lon="22.96319">
        <ele>736.753603</ele>
        <time>2022-04-05T08:09:06.228Z</time>
      </trkpt>
      <trkpt lat="42.5465" lon="22.96316">
        <ele>736.249565</ele>
        <time>2022-04-05T08:09:08.264Z</time>
      </trkpt>
      <trkpt lat="42.54638" lon="22.96313">
        <ele>735.820539</ele>
        <time>2022-04-05T08:09:10.225Z</time>
      </trkpt>
      <trkpt lat="42.54627" lon="22.96311">
        <ele>735.475822</ele>
        <time>2022-04-05T08:09:13.240Z</time>
      </trkpt>
      <trkpt lat="42.54632" lon="22.963">
        <ele>735.178164</ele>
        <time>2022-04-05T08:10:21.221Z</time>
      </trkpt>
      <trkpt lat="42.54624" lon="22.96288">
        <ele>734.820641</ele>
        <time>2022-04-05T08:10:25.219Z</time>
      </trkpt>
      <trkpt lat="42.54615" lon="22.96283">
        <ele>734.539096</ele>
        <time>2022-04-05T08:10:27.216Z</time>
      </trkpt>
      <trkpt lat="42.54606" lon="22.96279">
        <ele>734.234538</ele>
        <time>2022-04-05T08:10:29.216Z</time>
      </trkpt>
      <trkpt lat="42.54597" lon="22.96273">
        <ele>733.930472</ele>
        <time>2022-04-05T08:10:31.233Z</time>
      </trkpt>
      <trkpt lat="42.54587" lon="22.96265">
        <ele>733.57762</ele>
        <time>2022-04-05T08:10:33.229Z</time>
      </trkpt>
      <trkpt lat="42.54575" lon="22.96257">
        <ele>733.169837</ele>
        <time>2022-04-05T08:10:35.228Z</time>
      </trkpt>
      <trkpt lat="42.54564" lon="22.96248">
        <ele>732.790835</ele>
        <time>2022-04-05T08:10:37.219Z</time>
      </trkpt>
      <trkpt lat="42.54554" lon="22.9624">
        <ele>732.439963</ele>
        <time>2022-04-05T08:10:39.315Z</time>
      </trkpt>
      <trkpt lat="42.54545" lon="22.96234">
        <ele>732.13881</ele>
        <time>2022-04-05T08:10:41.226Z</time>
      </trkpt>
      <trkpt lat="42.54537" lon="22.96228">
        <ele>731.865374</ele>
        <time>2022-04-05T08:10:43.212Z</time>
      </trkpt>
      <trkpt lat="42.54528" lon="22.96221">
        <ele>731.547703</ele>
        <time>2022-04-05T08:10:46.213Z</time>
      </trkpt>
      <trkpt lat="42.54518" lon="22.96214">
        <ele>731.194679</ele>
        <time>2022-04-05T08:10:49.221Z</time>
      </trkpt>
      <trkpt lat="42.54506" lon="22.96206">
        <ele>730.78421</ele>
        <time>2022-04-05T08:10:52.219Z</time>
      </trkpt>
      <trkpt lat="42.54495" lon="22.96201">
        <ele>730.431606</ele>
        <time>2022-04-05T08:10:54.230Z</time>
      </trkpt>
      <trkpt lat="42.54482" lon="22.96196">
        <ele>729.887141</ele>
        <time>2022-04-05T08:10:56.212Z</time>
      </trkpt>
      <trkpt lat="42.5447" lon="22.96188">
        <ele>729.316164</ele>
        <time>2022-04-05T08:10:58.260Z</time>
      </trkpt>
      <trkpt lat="42.54458" lon="22.9618">
        <ele>728.729554</ele>
        <time>2022-04-05T08:11:00.228Z</time>
      </trkpt>
      <trkpt lat="42.54447" lon="22.96173">
        <ele>728.203132</ele>
        <time>2022-04-05T08:11:02.217Z</time>
      </trkpt>
      <trkpt lat="42.54435" lon="22.96166">
        <ele>727.655216</ele>
        <time>2022-04-05T08:11:05.221Z</time>
      </trkpt>
      <trkpt lat="42.54422" lon="22.96174">
        <ele>727.043398</ele>
        <time>2022-04-05T08:11:08.217Z</time>
      </trkpt>
      <trkpt lat="42.54416" lon="22.96188">
        <ele>726.52176</ele>
        <time>2022-04-05T08:11:10.228Z</time>
      </trkpt>
      <trkpt lat="42.54415" lon="22.96204">
        <ele>725.996457</ele>
        <time>2022-04-05T08:11:12.204Z</time>
      </trkpt>
      <trkpt lat="42.54415" lon="22.96219">
        <ele>725.54144</ele>
        <time>2022-04-05T08:11:14.219Z</time>
      </trkpt>
      <trkpt lat="42.54416" lon="22.96233">
        <ele>725.097327</ele>
        <time>2022-04-05T08:11:16.226Z</time>
      </trkpt>
      <trkpt lat="42.54417" lon="22.96248">
        <ele>724.596712</ele>
        <time>2022-04-05T08:11:19.210Z</time>
      </trkpt>
      <trkpt lat="42.54419" lon="22.96266">
        <ele>724.037265</ele>
        <time>2022-04-05T08:11:22.212Z</time>
      </trkpt>
      <trkpt lat="42.5442" lon="22.96279">
        <ele>723.629815</ele>
        <time>2022-04-05T08:11:24.221Z</time>
      </trkpt>
      <trkpt lat="42.54421" lon="22.96295">
        <ele>723.109832</ele>
        <time>2022-04-05T08:11:27.221Z</time>
      </trkpt>
      <trkpt lat="42.54423" lon="22.96311">
        <ele>722.593899</ele>
        <time>2022-04-05T08:11:30.235Z</time>
      </trkpt>
      <trkpt lat="42.54425" lon="22.96328">
        <ele>722.166692</ele>
        <time>2022-04-05T08:11:33.256Z</time>
      </trkpt>
      <trkpt lat="42.54428" lon="22.96344">
        <ele>721.751489</ele>
        <time>2022-04-05T08:11:36.235Z</time>
      </trkpt>
      <trkpt lat="42.5443" lon="22.96358">
        <ele>721.376516</ele>
        <time>2022-04-05T08:11:39.230Z</time>
      </trkpt>
      <trkpt lat="42.5443" lon="22.96374">
        <ele>720.972556</ele>
        <time>2022-04-05T08:11:42.230Z</time>
      </trkpt>
      <trkpt lat="42.54431" lon="22.9639">
        <ele>720.562912</ele>
        <time>2022-04-05T08:11:45.253Z</time>
      </trkpt>
      <trkpt lat="42.54433" lon="22.96403">
        <ele>720.219932</ele>
        <time>2022-04-05T08:11:48.221Z</time>
      </trkpt>
      <trkpt lat="42.54432" lon="22.96416">
        <ele>719.882136</ele>
        <time>2022-04-05T08:11:51.219Z</time>
      </trkpt>
      <trkpt lat="42.54429" lon="22.96431">
        <ele>719.490821</ele>
        <time>2022-04-05T08:11:54.217Z</time>
      </trkpt>
      <trkpt lat="42.54422" lon="22.96443">
        <ele>719.089952</ele>
        <time>2022-04-05T08:11:57.224Z</time>
      </trkpt>
      <trkpt lat="42.54418" lon="22.96454">
        <ele>718.780673</ele>
        <time>2022-04-05T08:11:59.223Z</time>
      </trkpt>
      <trkpt lat="42.54413" lon="22.96468">
        <ele>718.405269</ele>
        <time>2022-04-05T08:12:01.219Z</time>
      </trkpt>
      <trkpt lat="42.54409" lon="22.96481">
        <ele>718.052513</ele>
        <time>2022-04-05T08:12:03.230Z</time>
      </trkpt>
      <trkpt lat="42.54403" lon="22.96497">
        <ele>717.597214</ele>
        <time>2022-04-05T08:12:05.215Z</time>
      </trkpt>
      <trkpt lat="42.54396" lon="22.96512">
        <ele>717.141603</ele>
        <time>2022-04-05T08:12:07.209Z</time>
      </trkpt>
      <trkpt lat="42.54389" lon="22.96527">
        <ele>716.681185</ele>
        <time>2022-04-05T08:12:09.217Z</time>
      </trkpt>
      <trkpt lat="42.54381" lon="22.96541">
        <ele>716.398781</ele>
        <time>2022-04-05T08:12:11.212Z</time>
      </trkpt>
      <trkpt lat="42.54377" lon="22.96555">
        <ele>716.375727</ele>
        <time>2022-04-05T08:12:13.220Z</time>
      </trkpt>
      <trkpt lat="42.54368" lon="22.96569">
        <ele>716.349445</ele>
        <time>2022-04-05T08:12:15.244Z</time>
      </trkpt>
      <trkpt lat="42.5436" lon="22.96582">
        <ele>716.32428</ele>
        <time>2022-04-05T08:12:17.255Z</time>
      </trkpt>
      <trkpt lat="42.54351" lon="22.96593">
        <ele>716.29914</ele>
        <time>2022-04-05T08:12:19.232Z</time>
      </trkpt>
      <trkpt lat="42.54343" lon="22.96604">
        <ele>716.277022</ele>
        <time>2022-04-05T08:12:21.209Z</time>
      </trkpt>
      <trkpt lat="42.54336" lon="22.96614">
        <ele>716.256209</ele>
        <time>2022-04-05T08:12:23.224Z</time>
      </trkpt>
      <trkpt lat="42.54328" lon="22.96625">
        <ele>716.234058</ele>
        <time>2022-04-05T08:12:25.208Z</time>
      </trkpt>
      <trkpt lat="42.5432" lon="22.96636">
        <ele>716.210532</ele>
        <time>2022-04-05T08:12:27.230Z</time>
      </trkpt>
      <trkpt lat="42.54312" lon="22.96645">
        <ele>716.189178</ele>
        <time>2022-04-05T08:12:29.218Z</time>
      </trkpt>
      <trkpt lat="42.54304" lon="22.96654">
        <ele>716.168978</ele>
        <time>2022-04-05T08:12:31.221Z</time>
      </trkpt>
      <trkpt lat="42.54294" lon="22.96663">
        <ele>716.144272</ele>
        <time>2022-04-05T08:12:34.217Z</time>
      </trkpt>
      <trkpt lat="42.54284" lon="22.9667">
        <ele>716.122574</ele>
        <time>2022-04-05T08:12:37.235Z</time>
      </trkpt>
      <trkpt lat="42.54273" lon="22.96676">
        <ele>716.097533</ele>
        <time>2022-04-05T08:12:40.253Z</time>
      </trkpt>
      <trkpt lat="42.54263" lon="22.96682">
        <ele>716.07616</ele>
        <time>2022-04-05T08:12:43.209Z</time>
      </trkpt>
      <trkpt lat="42.54253" lon="22.96687">
        <ele>716.055197</ele>
        <time>2022-04-05T08:12:47.244Z</time>
      </trkpt>
      <trkpt lat="42.54244" lon="22.96692">
        <ele>716.465134</ele>
        <time>2022-04-05T08:12:51.233Z</time>
      </trkpt>
      <trkpt lat="42.54236" lon="22.96696">
        <ele>717.157119</ele>
        <time>2022-04-05T08:12:55.253Z</time>
      </trkpt>
      <trkpt lat="42.54227" lon="22.967">
        <ele>717.899647</ele>
        <time>2022-04-05T08:13:01.222Z</time>
      </trkpt>
      <trkpt lat="42.54217" lon="22.96704">
        <ele>718.707127</ele>
        <time>2022-04-05T08:13:08.224Z</time>
      </trkpt>
      <trkpt lat="42.54208" lon="22.96708">
        <ele>719.418852</ele>
        <time>2022-04-05T08:13:15.243Z</time>
      </trkpt>
      <trkpt lat="42.54198" lon="22.96713">
        <ele>720.164844</ele>
        <time>2022-04-05T08:13:22.236Z</time>
      </trkpt>
      <trkpt lat="42.54189" lon="22.96718">
        <ele>720.956362</ele>
        <time>2022-04-05T08:13:28.221Z</time>
      </trkpt>
      <trkpt lat="42.54179" lon="22.96722">
        <ele>721.716724</ele>
        <time>2022-04-05T08:13:35.259Z</time>
      </trkpt>
      <trkpt lat="42.5417" lon="22.96726">
        <ele>722.470666</ele>
        <time>2022-04-05T08:13:41.233Z</time>
      </trkpt>
      <trkpt lat="42.54161" lon="22.96729">
        <ele>723.195326</ele>
        <time>2022-04-05T08:13:47.256Z</time>
      </trkpt>
      <trkpt lat="42.54151" lon="22.96732">
        <ele>723.957054</ele>
        <time>2022-04-05T08:13:53.278Z</time>
      </trkpt>
      <trkpt lat="42.54141" lon="22.96735">
        <ele>724.740805</ele>
        <time>2022-04-05T08:13:59.280Z</time>
      </trkpt>
      <trkpt lat="42.54132" lon="22.96739">
        <ele>725.482898</ele>
        <time>2022-04-05T08:14:06.234Z</time>
      </trkpt>
      <trkpt lat="42.54122" lon="22.96742">
        <ele>726.253056</ele>
        <time>2022-04-05T08:14:13.232Z</time>
      </trkpt>
      <trkpt lat="42.54111" lon="22.96746">
        <ele>727.07613</ele>
        <time>2022-04-05T08:14:19.248Z</time>
      </trkpt>
      <trkpt lat="42.54102" lon="22.96752">
        <ele>727.831526</ele>
        <time>2022-04-05T08:14:25.235Z</time>
      </trkpt>
      <trkpt lat="42.54093" lon="22.96757">
        <ele>728.571258</ele>
        <time>2022-04-05T08:14:31.241Z</time>
      </trkpt>
      <trkpt lat="42.54084" lon="22.96762">
        <ele>729.349911</ele>
        <time>2022-04-05T08:14:38.230Z</time>
      </trkpt>
      <trkpt lat="42.54074" lon="22.96767">
        <ele>729.973655</ele>
        <time>2022-04-05T08:14:44.227Z</time>
      </trkpt>
      <trkpt lat="42.54066" lon="22.96772">
        <ele>730.385823</ele>
        <time>2022-04-05T08:14:50.221Z</time>
      </trkpt>
      <trkpt lat="42.54057" lon="22.96778">
        <ele>730.779876</ele>
        <time>2022-04-05T08:14:56.232Z</time>
      </trkpt>
      <trkpt lat="42.54048" lon="22.96784">
        <ele>731.207771</ele>
        <time>2022-04-05T08:15:02.240Z</time>
      </trkpt>
      <trkpt lat="42.5404" lon="22.9679">
        <ele>731.62993</ele>
        <time>2022-04-05T08:15:08.241Z</time>
      </trkpt>
      <trkpt lat="42.54032" lon="22.96797">
        <ele>732.017911</ele>
        <time>2022-04-05T08:15:14.212Z</time>
      </trkpt>
      <trkpt lat="42.54024" lon="22.96804">
        <ele>732.437936</ele>
        <time>2022-04-05T08:15:21.222Z</time>
      </trkpt>
      <trkpt lat="42.54016" lon="22.96811">
        <ele>732.847401</ele>
        <time>2022-04-05T08:15:26.224Z</time>
      </trkpt>
      <trkpt lat="42.54009" lon="22.96819">
        <ele>733.235596</ele>
        <time>2022-04-05T08:15:31.210Z</time>
      </trkpt>
      <trkpt lat="42.54001" lon="22.96828">
        <ele>733.688608</ele>
        <time>2022-04-05T08:15:36.231Z</time>
      </trkpt>
      <trkpt lat="42.53993" lon="22.96838">
        <ele>734.157386</ele>
        <time>2022-04-05T08:15:40.248Z</time>
      </trkpt>
      <trkpt lat="42.53984" lon="22.96848">
        <ele>734.630432</ele>
        <time>2022-04-05T08:15:44.227Z</time>
      </trkpt>
      <trkpt lat="42.53976" lon="22.96857">
        <ele>735.088602</ele>
        <time>2022-04-05T08:15:48.224Z</time>
      </trkpt>
      <trkpt lat="42.53969" lon="22.96865">
        <ele>735.474352</ele>
        <time>2022-04-05T08:15:51.221Z</time>
      </trkpt>
      <trkpt lat="42.5396" lon="22.96874">
        <ele>735.935449</ele>
        <time>2022-04-05T08:15:54.224Z</time>
      </trkpt>
      <trkpt lat="42.53952" lon="22.96884">
        <ele>736.408508</ele>
        <time>2022-04-05T08:15:57.221Z</time>
      </trkpt>
      <trkpt lat="42.53944" lon="22.96893">
        <ele>736.874603</ele>
        <time>2022-04-05T08:16:00.226Z</time>
      </trkpt>
      <trkpt lat="42.53936" lon="22.96902">
        <ele>737.304348</ele>
        <time>2022-04-05T08:16:03.265Z</time>
      </trkpt>
      <trkpt lat="42.53927" lon="22.9691">
        <ele>737.25883</ele>
        <time>2022-04-05T08:16:06.218Z</time>
      </trkpt>
      <trkpt lat="42.5392" lon="22.96918">
        <ele>736.984099</ele>
        <time>2022-04-05T08:16:09.218Z</time>
      </trkpt>
      <trkpt lat="42.53913" lon="22.96926">
        <ele>736.695631</ele>
        <time>2022-04-05T08:16:12.225Z</time>
      </trkpt>
      <trkpt lat="42.53906" lon="22.96934">
        <ele>736.426417</ele>
        <time>2022-04-05T08:16:15.224Z</time>
      </trkpt>
      <trkpt lat="42.539" lon="22.96943">
        <ele>736.150826</ele>
        <time>2022-04-05T08:16:18.222Z</time>
      </trkpt>
      <trkpt lat="42.53893" lon="22.96952">
        <ele>735.873468</ele>
        <time>2022-04-05T08:16:21.244Z</time>
      </trkpt>
      <trkpt lat="42.53886" lon="22.9696">
        <ele>735.602849</ele>
        <time>2022-04-05T08:16:24.215Z</time>
      </trkpt>
      <trkpt lat="42.5388" lon="22.96968">
        <ele>735.330017</ele>
        <time>2022-04-05T08:16:27.217Z</time>
      </trkpt>
      <trkpt lat="42.53871" lon="22.96979">
        <ele>734.977996</ele>
        <time>2022-04-05T08:16:31.223Z</time>
      </trkpt>
      <trkpt lat="42.53864" lon="22.96989">
        <ele>734.684485</ele>
        <time>2022-04-05T08:16:34.234Z</time>
      </trkpt>
      <trkpt lat="42.53858" lon="22.96998">
        <ele>734.404062</ele>
        <time>2022-04-05T08:16:37.225Z</time>
      </trkpt>
      <trkpt lat="42.53851" lon="22.97007">
        <ele>734.109662</ele>
        <time>2022-04-05T08:16:40.213Z</time>
      </trkpt>
      <trkpt lat="42.53844" lon="22.97017">
        <ele>733.808104</ele>
        <time>2022-04-05T08:16:43.233Z</time>
      </trkpt>
      <trkpt lat="42.53837" lon="22.97027">
        <ele>733.515899</ele>
        <time>2022-04-05T08:16:46.226Z</time>
      </trkpt>
      <trkpt lat="42.5383" lon="22.97037">
        <ele>733.19443</ele>
        <time>2022-04-05T08:16:49.226Z</time>
      </trkpt>
      <trkpt lat="42.53821" lon="22.97047">
        <ele>732.850962</ele>
        <time>2022-04-05T08:16:52.232Z</time>
      </trkpt>
      <trkpt lat="42.53812" lon="22.97058">
        <ele>732.48892</ele>
        <time>2022-04-05T08:16:55.240Z</time>
      </trkpt>
      <trkpt lat="42.53804" lon="22.97072">
        <ele>732.103105</ele>
        <time>2022-04-05T08:16:58.224Z</time>
      </trkpt>
      <trkpt lat="42.53798" lon="22.97081">
        <ele>731.662345</ele>
        <time>2022-04-05T08:17:00.221Z</time>
      </trkpt>
      <trkpt lat="42.53792" lon="22.97091">
        <ele>731.170831</ele>
        <time>2022-04-05T08:17:02.273Z</time>
      </trkpt>
      <trkpt lat="42.53785" lon="22.97101">
        <ele>730.64534</ele>
        <time>2022-04-05T08:17:04.236Z</time>
      </trkpt>
      <trkpt lat="42.53778" lon="22.97112">
        <ele>730.099524</ele>
        <time>2022-04-05T08:17:06.248Z</time>
      </trkpt>
      <trkpt lat="42.53771" lon="22.97124">
        <ele>729.535589</ele>
        <time>2022-04-05T08:17:08.214Z</time>
      </trkpt>
      <trkpt lat="42.53763" lon="22.97135">
        <ele>728.943399</ele>
        <time>2022-04-05T08:17:10.236Z</time>
      </trkpt>
      <trkpt lat="42.53755" lon="22.97147">
        <ele>728.334609</ele>
        <time>2022-04-05T08:17:12.232Z</time>
      </trkpt>
      <trkpt lat="42.53747" lon="22.9716">
        <ele>727.712945</ele>
        <time>2022-04-05T08:17:14.226Z</time>
      </trkpt>
      <trkpt lat="42.53739" lon="22.97172">
        <ele>727.076371</ele>
        <time>2022-04-05T08:17:16.214Z</time>
      </trkpt>
      <trkpt lat="42.5373" lon="22.97184">
        <ele>726.431889</ele>
        <time>2022-04-05T08:17:18.229Z</time>
      </trkpt>
      <trkpt lat="42.53721" lon="22.97196">
        <ele>725.791799</ele>
        <time>2022-04-05T08:17:20.252Z</time>
      </trkpt>
      <trkpt lat="42.53713" lon="22.97209">
        <ele>725.157972</ele>
        <time>2022-04-05T08:17:22.266Z</time>
      </trkpt>
      <trkpt lat="42.53704" lon="22.97221">
        <ele>724.511592</ele>
        <time>2022-04-05T08:17:24.235Z</time>
      </trkpt>
      <trkpt lat="42.53696" lon="22.97233">
        <ele>723.871309</ele>
        <time>2022-04-05T08:17:26.221Z</time>
      </trkpt>
      <trkpt lat="42.53687" lon="22.97246">
        <ele>723.214258</ele>
        <time>2022-04-05T08:17:28.232Z</time>
      </trkpt>
      <trkpt lat="42.53678" lon="22.97258">
        <ele>722.892358</ele>
        <time>2022-04-05T08:17:30.203Z</time>
      </trkpt>
      <trkpt lat="42.53669" lon="22.9727">
        <ele>723.004054</ele>
        <time>2022-04-05T08:17:32.257Z</time>
      </trkpt>
      <trkpt lat="42.53661" lon="22.97281">
        <ele>723.111134</ele>
        <time>2022-04-05T08:17:34.230Z</time>
      </trkpt>
      <trkpt lat="42.53652" lon="22.97292">
        <ele>723.214839</ele>
        <time>2022-04-05T08:17:36.206Z</time>
      </trkpt>
      <trkpt lat="42.53645" lon="22.97301">
        <ele>723.308556</ele>
        <time>2022-04-05T08:17:38.222Z</time>
      </trkpt>
      <trkpt lat="42.53638" lon="22.9731">
        <ele>723.392576</ele>
        <time>2022-04-05T08:17:40.206Z</time>
      </trkpt>
      <trkpt lat="42.53629" lon="22.97322">
        <ele>723.50931</ele>
        <time>2022-04-05T08:17:43.222Z</time>
      </trkpt>
      <trkpt lat="42.53621" lon="22.97334">
        <ele>723.617187</ele>
        <time>2022-04-05T08:17:46.207Z</time>
      </trkpt>
      <trkpt lat="42.53613" lon="22.97345">
        <ele>723.720449</ele>
        <time>2022-04-05T08:17:49.245Z</time>
      </trkpt>
      <trkpt lat="42.53605" lon="22.97355">
        <ele>723.818301</ele>
        <time>2022-04-05T08:17:52.216Z</time>
      </trkpt>
      <trkpt lat="42.53598" lon="22.97365">
        <ele>723.912846</ele>
        <time>2022-04-05T08:17:55.215Z</time>
      </trkpt>
      <trkpt lat="42.53591" lon="22.97375">
        <ele>724.003859</ele>
        <time>2022-04-05T08:17:58.233Z</time>
      </trkpt>
      <trkpt lat="42.53583" lon="22.97384">
        <ele>724.09342</ele>
        <time>2022-04-05T08:18:01.240Z</time>
      </trkpt>
      <trkpt lat="42.53576" lon="22.97393">
        <ele>724.186665</ele>
        <time>2022-04-05T08:18:04.215Z</time>
      </trkpt>
      <trkpt lat="42.53569" lon="22.97403">
        <ele>724.276401</ele>
        <time>2022-04-05T08:18:07.265Z</time>
      </trkpt>
      <trkpt lat="42.53562" lon="22.97412">
        <ele>724.363124</ele>
        <time>2022-04-05T08:18:10.228Z</time>
      </trkpt>
      <trkpt lat="42.53556" lon="22.97421">
        <ele>724.447164</ele>
        <time>2022-04-05T08:18:13.214Z</time>
      </trkpt>
      <trkpt lat="42.53549" lon="22.97431">
        <ele>724.687985</ele>
        <time>2022-04-05T08:18:16.223Z</time>
      </trkpt>
      <trkpt lat="42.53542" lon="22.97439">
        <ele>724.996683</ele>
        <time>2022-04-05T08:18:19.222Z</time>
      </trkpt>
      <trkpt lat="42.53536" lon="22.97448">
        <ele>725.292631</ele>
        <time>2022-04-05T08:18:22.258Z</time>
      </trkpt>
      <trkpt lat="42.53529" lon="22.97457">
        <ele>725.592969</ele>
        <time>2022-04-05T08:18:25.210Z</time>
      </trkpt>
      <trkpt lat="42.53521" lon="22.97467">
        <ele>725.962808</ele>
        <time>2022-04-05T08:18:29.229Z</time>
      </trkpt>
      <trkpt lat="42.53514" lon="22.97478">
        <ele>726.335486</ele>
        <time>2022-04-05T08:18:33.243Z</time>
      </trkpt>
      <trkpt lat="42.53506" lon="22.97488">
        <ele>726.683384</ele>
        <time>2022-04-05T08:18:37.241Z</time>
      </trkpt>
      <trkpt lat="42.53498" lon="22.97498">
        <ele>727.035986</ele>
        <time>2022-04-05T08:18:41.236Z</time>
      </trkpt>
      <trkpt lat="42.53491" lon="22.97508">
        <ele>727.389293</ele>
        <time>2022-04-05T08:18:45.203Z</time>
      </trkpt>
      <trkpt lat="42.53483" lon="22.97518">
        <ele>727.737842</ele>
        <time>2022-04-05T08:18:49.244Z</time>
      </trkpt>
      <trkpt lat="42.53476" lon="22.97528">
        <ele>728.07765</ele>
        <time>2022-04-05T08:18:53.234Z</time>
      </trkpt>
      <trkpt lat="42.53468" lon="22.97539">
        <ele>728.424944</ele>
        <time>2022-04-05T08:18:57.231Z</time>
      </trkpt>
      <trkpt lat="42.53462" lon="22.97548">
        <ele>728.747064</ele>
        <time>2022-04-05T08:19:01.217Z</time>
      </trkpt>
      <trkpt lat="42.53455" lon="22.97557">
        <ele>729.062899</ele>
        <time>2022-04-05T08:19:05.221Z</time>
      </trkpt>
      <trkpt lat="42.53448" lon="22.97566">
        <ele>729.373016</ele>
        <time>2022-04-05T08:19:09.227Z</time>
      </trkpt>
      <trkpt lat="42.53441" lon="22.97576">
        <ele>729.707067</ele>
        <time>2022-04-05T08:19:13.223Z</time>
      </trkpt>
      <trkpt lat="42.53433" lon="22.97585">
        <ele>730.035091</ele>
        <time>2022-04-05T08:19:17.244Z</time>
      </trkpt>
      <trkpt lat="42.53426" lon="22.97595">
        <ele>730.375538</ele>
        <time>2022-04-05T08:19:21.223Z</time>
      </trkpt>
      <trkpt lat="42.53418" lon="22.97605">
        <ele>730.526122</ele>
        <time>2022-04-05T08:19:25.261Z</time>
      </trkpt>
      <trkpt lat="42.53412" lon="22.97614">
        <ele>730.649187</ele>
        <time>2022-04-05T08:19:29.234Z</time>
      </trkpt>
      <trkpt lat="42.53405" lon="22.97623">
        <ele>730.772259</ele>
        <time>2022-04-05T08:19:33.218Z</time>
      </trkpt>
      <trkpt lat="42.53398" lon="22.97633">
        <ele>730.903367</ele>
        <time>2022-04-05T08:19:37.242Z</time>
      </trkpt>
      <trkpt lat="42.5339" lon="22.97644">
        <ele>731.042095</ele>
        <time>2022-04-05T08:19:41.220Z</time>
      </trkpt>
      <trkpt lat="42.53382" lon="22.97655">
        <ele>731.189118</ele>
        <time>2022-04-05T08:19:45.237Z</time>
      </trkpt>
      <trkpt lat="42.53374" lon="22.97666">
        <ele>731.331887</ele>
        <time>2022-04-05T08:19:49.229Z</time>
      </trkpt>
      <trkpt lat="42.53366" lon="22.97677">
        <ele>731.478052</ele>
        <time>2022-04-05T08:19:53.232Z</time>
      </trkpt>
      <trkpt lat="42.53358" lon="22.97687">
        <ele>731.621069</ele>
        <time>2022-04-05T08:19:57.244Z</time>
      </trkpt>
      <trkpt lat="42.5335" lon="22.97699">
        <ele>731.771228</ele>
        <time>2022-04-05T08:20:01.234Z</time>
      </trkpt>
      <trkpt lat="42.53342" lon="22.97709">
        <ele>731.909784</ele>
        <time>2022-04-05T08:20:05.220Z</time>
      </trkpt>
      <trkpt lat="42.53334" lon="22.9772">
        <ele>732.056608</ele>
        <time>2022-04-05T08:20:09.231Z</time>
      </trkpt>
      <trkpt lat="42.53327" lon="22.97728">
        <ele>732.172254</ele>
        <time>2022-04-05T08:20:12.231Z</time>
      </trkpt>
      <trkpt lat="42.53319" lon="22.9774">
        <ele>732.327792</ele>
        <time>2022-04-05T08:20:16.225Z</time>
      </trkpt>
      <trkpt lat="42.53312" lon="22.97751">
        <ele>732.463384</ele>
        <time>2022-04-05T08:20:20.214Z</time>
      </trkpt>
      <trkpt lat="42.53304" lon="22.97761">
        <ele>732.599448</ele>
        <time>2022-04-05T08:20:24.231Z</time>
      </trkpt>
      <trkpt lat="42.53296" lon="22.97772">
        <ele>732.749815</ele>
        <time>2022-04-05T08:20:28.222Z</time>
      </trkpt>
      <trkpt lat="42.53289" lon="22.97781">
        <ele>732.881347</ele>
        <time>2022-04-05T08:20:31.228Z</time>
      </trkpt>
      <trkpt lat="42.53282" lon="22.9779">
        <ele>733.024549</ele>
        <time>2022-04-05T08:20:34.245Z</time>
      </trkpt>
      <trkpt lat="42.53275" lon="22.97799">
        <ele>733.162989</ele>
        <time>2022-04-05T08:20:37.219Z</time>
      </trkpt>
      <trkpt lat="42.53267" lon="22.97809">
        <ele>733.306851</ele>
        <time>2022-04-05T08:20:40.233Z</time>
      </trkpt>
      <trkpt lat="42.5326" lon="22.97818">
        <ele>733.450712</ele>
        <time>2022-04-05T08:20:43.271Z</time>
      </trkpt>
      <trkpt lat="42.53252" lon="22.97828">
        <ele>733.602272</ele>
        <time>2022-04-05T08:20:46.217Z</time>
      </trkpt>
      <trkpt lat="42.53244" lon="22.97838">
        <ele>733.750675</ele>
        <time>2022-04-05T08:20:49.222Z</time>
      </trkpt>
      <trkpt lat="42.53237" lon="22.97848">
        <ele>733.899944</ele>
        <time>2022-04-05T08:20:52.240Z</time>
      </trkpt>
      <trkpt lat="42.53229" lon="22.97859">
        <ele>734.052411</ele>
        <time>2022-04-05T08:20:55.217Z</time>
      </trkpt>
      <trkpt lat="42.53221" lon="22.9787">
        <ele>734.20883</ele>
        <time>2022-04-05T08:20:58.230Z</time>
      </trkpt>
      <trkpt lat="42.53213" lon="22.9788">
        <ele>734.366472</ele>
        <time>2022-04-05T08:21:01.227Z</time>
      </trkpt>
      <trkpt lat="42.53205" lon="22.97892">
        <ele>734.534711</ele>
        <time>2022-04-05T08:21:04.217Z</time>
      </trkpt>
      <trkpt lat="42.53196" lon="22.97904">
        <ele>734.710089</ele>
        <time>2022-04-05T08:21:07.233Z</time>
      </trkpt>
      <trkpt lat="42.53187" lon="22.97917">
        <ele>734.896558</ele>
        <time>2022-04-05T08:21:10.228Z</time>
      </trkpt>
      <trkpt lat="42.53181" lon="22.97925">
        <ele>735.023906</ele>
        <time>2022-04-05T08:21:12.237Z</time>
      </trkpt>
      <trkpt lat="42.53174" lon="22.97934">
        <ele>735.153471</ele>
        <time>2022-04-05T08:21:14.217Z</time>
      </trkpt>
      <trkpt lat="42.53168" lon="22.97944">
        <ele>735.129185</ele>
        <time>2022-04-05T08:21:16.225Z</time>
      </trkpt>
      <trkpt lat="42.53161" lon="22.97953">
        <ele>734.905951</ele>
        <time>2022-04-05T08:21:18.227Z</time>
      </trkpt>
      <trkpt lat="42.53154" lon="22.97962">
        <ele>734.678882</ele>
        <time>2022-04-05T08:21:20.226Z</time>
      </trkpt>
      <trkpt lat="42.53147" lon="22.97971">
        <ele>734.448891</ele>
        <time>2022-04-05T08:21:22.239Z</time>
      </trkpt>
      <trkpt lat="42.5314" lon="22.9798">
        <ele>734.222303</ele>
        <time>2022-04-05T08:21:24.229Z</time>
      </trkpt>
      <trkpt lat="42.53134" lon="22.97989">
        <ele>733.999467</ele>
        <time>2022-04-05T08:21:26.239Z</time>
      </trkpt>
      <trkpt lat="42.53127" lon="22.97998">
        <ele>733.774808</ele>
        <time>2022-04-05T08:21:28.244Z</time>
      </trkpt>
      <trkpt lat="42.5312" lon="22.98007">
        <ele>733.548947</ele>
        <time>2022-04-05T08:21:30.220Z</time>
      </trkpt>
      <trkpt lat="42.53113" lon="22.98016">
        <ele>733.319889</ele>
        <time>2022-04-05T08:21:32.215Z</time>
      </trkpt>
      <trkpt lat="42.53106" lon="22.98025">
        <ele>733.094028</ele>
        <time>2022-04-05T08:21:34.222Z</time>
      </trkpt>
      <trkpt lat="42.53099" lon="22.98034">
        <ele>732.871747</ele>
        <time>2022-04-05T08:21:36.229Z</time>
      </trkpt>
      <trkpt lat="42.53093" lon="22.98043">
        <ele>732.652219</ele>
        <time>2022-04-05T08:21:38.256Z</time>
      </trkpt>
      <trkpt lat="42.53086" lon="22.98051">
        <ele>732.430993</ele>
        <time>2022-04-05T08:21:40.228Z</time>
      </trkpt>
      <trkpt lat="42.53077" lon="22.98064">
        <ele>732.116716</ele>
        <time>2022-04-05T08:21:43.220Z</time>
      </trkpt>
      <trkpt lat="42.53068" lon="22.98077">
        <ele>731.809506</ele>
        <time>2022-04-05T08:21:46.219Z</time>
      </trkpt>
      <trkpt lat="42.53058" lon="22.9809">
        <ele>731.496891</ele>
        <time>2022-04-05T08:21:49.256Z</time>
      </trkpt>
      <trkpt lat="42.53049" lon="22.98102">
        <ele>731.188777</ele>
        <time>2022-04-05T08:21:52.245Z</time>
      </trkpt>
      <trkpt lat="42.5304" lon="22.98113">
        <ele>730.962692</ele>
        <time>2022-04-05T08:21:55.208Z</time>
      </trkpt>
      <trkpt lat="42.53031" lon="22.98126">
        <ele>730.968668</ele>
        <time>2022-04-05T08:21:58.228Z</time>
      </trkpt>
      <trkpt lat="42.53022" lon="22.98139">
        <ele>730.974733</ele>
        <time>2022-04-05T08:22:01.265Z</time>
      </trkpt>
      <trkpt lat="42.53013" lon="22.9815">
        <ele>730.980357</ele>
        <time>2022-04-05T08:22:04.222Z</time>
      </trkpt>
      <trkpt lat="42.53004" lon="22.98162">
        <ele>730.986116</ele>
        <time>2022-04-05T08:22:07.219Z</time>
      </trkpt>
      <trkpt lat="42.52995" lon="22.98175">
        <ele>730.991933</ele>
        <time>2022-04-05T08:22:10.229Z</time>
      </trkpt>
      <trkpt lat="42.52986" lon="22.98187">
        <ele>730.997917</ele>
        <time>2022-04-05T08:22:13.234Z</time>
      </trkpt>
      <trkpt lat="42.52977" lon="22.98199">
        <ele>731.003669</ele>
        <time>2022-04-05T08:22:16.235Z</time>
      </trkpt>
      <trkpt lat="42.52968" lon="22.98212">
        <ele>731.009453</ele>
        <time>2022-04-05T08:22:19.221Z</time>
      </trkpt>
      <trkpt lat="42.52959" lon="22.98224">
        <ele>731.015261</ele>
        <time>2022-04-05T08:22:22.217Z</time>
      </trkpt>
      <trkpt lat="42.52951" lon="22.98236">
        <ele>731.02082</ele>
        <time>2022-04-05T08:22:25.255Z</time>
      </trkpt>
      <trkpt lat="42.52942" lon="22.98247">
        <ele>731.026196</ele>
        <time>2022-04-05T08:22:28.219Z</time>
      </trkpt>
      <trkpt lat="42.52934" lon="22.98258">
        <ele>731.031524</ele>
        <time>2022-04-05T08:22:31.211Z</time>
      </trkpt>
      <trkpt lat="42.52925" lon="22.9827">
        <ele>731.037148</ele>
        <time>2022-04-05T08:22:34.222Z</time>
      </trkpt>
      <trkpt lat="42.52916" lon="22.98282">
        <ele>731.043092</ele>
        <time>2022-04-05T08:22:37.224Z</time>
      </trkpt>
      <trkpt lat="42.52908" lon="22.98294">
        <ele>730.997548</ele>
        <time>2022-04-05T08:22:40.216Z</time>
      </trkpt>
      <trkpt lat="42.52901" lon="22.98303">
        <ele>730.958016</ele>
        <time>2022-04-05T08:22:42.228Z</time>
      </trkpt>
      <trkpt lat="42.52895" lon="22.98312">
        <ele>730.917721</ele>
        <time>2022-04-05T08:22:44.215Z</time>
      </trkpt>
      <trkpt lat="42.52888" lon="22.98321">
        <ele>730.874435</ele>
        <time>2022-04-05T08:22:46.260Z</time>
      </trkpt>
      <trkpt lat="42.52878" lon="22.98334">
        <ele>730.813952</ele>
        <time>2022-04-05T08:22:49.211Z</time>
      </trkpt>
      <trkpt lat="42.52871" lon="22.98343">
        <ele>730.773038</ele>
        <time>2022-04-05T08:22:51.221Z</time>
      </trkpt>
      <trkpt lat="42.52862" lon="22.98355">
        <ele>730.717604</ele>
        <time>2022-04-05T08:22:54.222Z</time>
      </trkpt>
      <trkpt lat="42.52853" lon="22.98368">
        <ele>730.6611</ele>
        <time>2022-04-05T08:22:57.234Z</time>
      </trkpt>
      <trkpt lat="42.52844" lon="22.9838">
        <ele>730.605098</ele>
        <time>2022-04-05T08:23:00.220Z</time>
      </trkpt>
      <trkpt lat="42.52835" lon="22.98392">
        <ele>730.550428</ele>
        <time>2022-04-05T08:23:03.228Z</time>
      </trkpt>
      <trkpt lat="42.52826" lon="22.98404">
        <ele>730.496441</ele>
        <time>2022-04-05T08:23:06.223Z</time>
      </trkpt>
      <trkpt lat="42.52818" lon="22.98416">
        <ele>730.44299</ele>
        <time>2022-04-05T08:23:09.219Z</time>
      </trkpt>
      <trkpt lat="42.52809" lon="22.98428">
        <ele>730.387168</ele>
        <time>2022-04-05T08:23:12.224Z</time>
      </trkpt>
      <trkpt lat="42.528" lon="22.98439">
        <ele>730.333222</ele>
        <time>2022-04-05T08:23:15.234Z</time>
      </trkpt>
      <trkpt lat="42.5279" lon="22.98452">
        <ele>730.275923</ele>
        <time>2022-04-05T08:23:18.219Z</time>
      </trkpt>
      <trkpt lat="42.52781" lon="22.98464">
        <ele>730.322699</ele>
        <time>2022-04-05T08:23:21.238Z</time>
      </trkpt>
      <trkpt lat="42.52772" lon="22.98477">
        <ele>730.423749</ele>
        <time>2022-04-05T08:23:24.242Z</time>
      </trkpt>
      <trkpt lat="42.52762" lon="22.98489">
        <ele>730.520277</ele>
        <time>2022-04-05T08:23:27.227Z</time>
      </trkpt>
      <trkpt lat="42.52754" lon="22.985">
        <ele>730.612423</ele>
        <time>2022-04-05T08:23:30.233Z</time>
      </trkpt>
      <trkpt lat="42.52744" lon="22.98512">
        <ele>730.708789</ele>
        <time>2022-04-05T08:23:33.219Z</time>
      </trkpt>
      <trkpt lat="42.52735" lon="22.98525">
        <ele>730.807227</ele>
        <time>2022-04-05T08:23:36.238Z</time>
      </trkpt>
      <trkpt lat="42.52726" lon="22.98537">
        <ele>730.904745</ele>
        <time>2022-04-05T08:23:39.221Z</time>
      </trkpt>
      <trkpt lat="42.52717" lon="22.98549">
        <ele>730.998887</ele>
        <time>2022-04-05T08:23:42.230Z</time>
      </trkpt>
      <trkpt lat="42.52708" lon="22.98561">
        <ele>731.092873</ele>
        <time>2022-04-05T08:23:45.232Z</time>
      </trkpt>
      <trkpt lat="42.52699" lon="22.98572">
        <ele>731.179503</ele>
        <time>2022-04-05T08:23:48.228Z</time>
      </trkpt>
      <trkpt lat="42.52691" lon="22.98584">
        <ele>731.272036</ele>
        <time>2022-04-05T08:23:51.216Z</time>
      </trkpt>
      <trkpt lat="42.52682" lon="22.98596">
        <ele>731.365876</ele>
        <time>2022-04-05T08:23:54.233Z</time>
      </trkpt>
      <trkpt lat="42.52673" lon="22.98608">
        <ele>731.458943</ele>
        <time>2022-04-05T08:23:57.221Z</time>
      </trkpt>
      <trkpt lat="42.52664" lon="22.9862">
        <ele>731.55501</ele>
        <time>2022-04-05T08:24:00.219Z</time>
      </trkpt>
      <trkpt lat="42.52655" lon="22.98633">
        <ele>731.639471</ele>
        <time>2022-04-05T08:24:03.265Z</time>
      </trkpt>
      <trkpt lat="42.52646" lon="22.98645">
        <ele>731.709647</ele>
        <time>2022-04-05T08:24:06.224Z</time>
      </trkpt>
      <trkpt lat="42.52637" lon="22.98657">
        <ele>731.781103</ele>
        <time>2022-04-05T08:24:09.211Z</time>
      </trkpt>
      <trkpt lat="42.52628" lon="22.9867">
        <ele>731.853062</ele>
        <time>2022-04-05T08:24:12.246Z</time>
      </trkpt>
      <trkpt lat="42.52619" lon="22.98682">
        <ele>731.920223</ele>
        <time>2022-04-05T08:24:15.230Z</time>
      </trkpt>
      <trkpt lat="42.52611" lon="22.98694">
        <ele>731.98812</ele>
        <time>2022-04-05T08:24:18.221Z</time>
      </trkpt>
      <trkpt lat="42.52603" lon="22.98707">
        <ele>732.059571</ele>
        <time>2022-04-05T08:24:21.222Z</time>
      </trkpt>
      <trkpt lat="42.52594" lon="22.98721">
        <ele>732.134165</ele>
        <time>2022-04-05T08:24:24.229Z</time>
      </trkpt>
      <trkpt lat="42.52585" lon="22.98734">
        <ele>732.204886</ele>
        <time>2022-04-05T08:24:27.223Z</time>
      </trkpt>
      <trkpt lat="42.52577" lon="22.98747">
        <ele>732.27628</ele>
        <time>2022-04-05T08:24:30.217Z</time>
      </trkpt>
      <trkpt lat="42.52571" lon="22.98756">
        <ele>732.325762</ele>
        <time>2022-04-05T08:24:32.230Z</time>
      </trkpt>
      <trkpt lat="42.52563" lon="22.98769">
        <ele>732.39525</ele>
        <time>2022-04-05T08:24:35.223Z</time>
      </trkpt>
      <trkpt lat="42.52555" lon="22.98782">
        <ele>732.464166</ele>
        <time>2022-04-05T08:24:38.217Z</time>
      </trkpt>
      <trkpt lat="42.52549" lon="22.98791">
        <ele>732.514524</ele>
        <time>2022-04-05T08:24:40.225Z</time>
      </trkpt>
      <trkpt lat="42.52543" lon="22.98801">
        <ele>732.564758</ele>
        <time>2022-04-05T08:24:42.242Z</time>
      </trkpt>
      <trkpt lat="42.52535" lon="22.98814">
        <ele>732.587619</ele>
        <time>2022-04-05T08:24:45.227Z</time>
      </trkpt>
      <trkpt lat="42.52527" lon="22.98827">
        <ele>732.555495</ele>
        <time>2022-04-05T08:24:48.227Z</time>
      </trkpt>
      <trkpt lat="42.52518" lon="22.9884">
        <ele>732.523398</ele>
        <time>2022-04-05T08:24:51.228Z</time>
      </trkpt>
      <trkpt lat="42.5251" lon="22.98854">
        <ele>732.491233</ele>
        <time>2022-04-05T08:24:54.237Z</time>
      </trkpt>
      <trkpt lat="42.52502" lon="22.98868">
        <ele>732.458271</ele>
        <time>2022-04-05T08:24:57.219Z</time>
      </trkpt>
      <trkpt lat="42.52493" lon="22.98882">
        <ele>732.424724</ele>
        <time>2022-04-05T08:25:00.222Z</time>
      </trkpt>
      <trkpt lat="42.52485" lon="22.98895">
        <ele>732.391496</ele>
        <time>2022-04-05T08:25:03.223Z</time>
      </trkpt>
      <trkpt lat="42.52479" lon="22.98905">
        <ele>732.368263</ele>
        <time>2022-04-05T08:25:05.266Z</time>
      </trkpt>
      <trkpt lat="42.52473" lon="22.98916">
        <ele>732.344003</ele>
        <time>2022-04-05T08:25:07.211Z</time>
      </trkpt>
      <trkpt lat="42.52467" lon="22.98925">
        <ele>732.32077</ele>
        <time>2022-04-05T08:25:09.240Z</time>
      </trkpt>
      <trkpt lat="42.52461" lon="22.98935">
        <ele>732.298126</ele>
        <time>2022-04-05T08:25:11.228Z</time>
      </trkpt>
      <trkpt lat="42.52453" lon="22.98948">
        <ele>732.26609</ele>
        <time>2022-04-05T08:25:14.224Z</time>
      </trkpt>
      <trkpt lat="42.52445" lon="22.98962">
        <ele>732.23434</ele>
        <time>2022-04-05T08:25:17.226Z</time>
      </trkpt>
      <trkpt lat="42.52437" lon="22.98975">
        <ele>732.202631</ele>
        <time>2022-04-05T08:25:20.213Z</time>
      </trkpt>
      <trkpt lat="42.52429" lon="22.98988">
        <ele>732.171304</ele>
        <time>2022-04-05T08:25:23.220Z</time>
      </trkpt>
      <trkpt lat="42.52423" lon="22.98997">
        <ele>732.138162</ele>
        <time>2022-04-05T08:25:25.230Z</time>
      </trkpt>
      <trkpt lat="42.52417" lon="22.99007">
        <ele>732.050785</ele>
        <time>2022-04-05T08:25:27.245Z</time>
      </trkpt>
      <trkpt lat="42.52411" lon="22.99017">
        <ele>731.96229</ele>
        <time>2022-04-05T08:25:29.290Z</time>
      </trkpt>
      <trkpt lat="42.52405" lon="22.99027">
        <ele>731.87655</ele>
        <time>2022-04-05T08:25:31.243Z</time>
      </trkpt>
      <trkpt lat="42.52399" lon="22.99036">
        <ele>731.791927</ele>
        <time>2022-04-05T08:25:33.268Z</time>
      </trkpt>
      <trkpt lat="42.52393" lon="22.99046">
        <ele>731.700076</ele>
        <time>2022-04-05T08:25:35.237Z</time>
      </trkpt>
      <trkpt lat="42.52386" lon="22.99056">
        <ele>731.612699</ele>
        <time>2022-04-05T08:25:37.227Z</time>
      </trkpt>
      <trkpt lat="42.5238" lon="22.99066">
        <ele>731.524277</ele>
        <time>2022-04-05T08:25:39.248Z</time>
      </trkpt>
      <trkpt lat="42.52374" lon="22.99077">
        <ele>731.429879</ele>
        <time>2022-04-05T08:25:41.235Z</time>
      </trkpt>
      <trkpt lat="42.52368" lon="22.99087">
        <ele>731.337122</ele>
        <time>2022-04-05T08:25:43.233Z</time>
      </trkpt>
      <trkpt lat="42.52361" lon="22.99098">
        <ele>731.240502</ele>
        <time>2022-04-05T08:25:45.292Z</time>
      </trkpt>
      <trkpt lat="42.52354" lon="22.99109">
        <ele>731.140797</ele>
        <time>2022-04-05T08:25:47.239Z</time>
      </trkpt>
      <trkpt lat="42.52347" lon="22.9912">
        <ele>731.044177</ele>
        <time>2022-04-05T08:25:49.244Z</time>
      </trkpt>
      <trkpt lat="42.52341" lon="22.99131">
        <ele>730.949055</ele>
        <time>2022-04-05T08:25:51.216Z</time>
      </trkpt>
      <trkpt lat="42.52334" lon="22.99142">
        <ele>730.851906</ele>
        <time>2022-04-05T08:25:53.222Z</time>
      </trkpt>
      <trkpt lat="42.52327" lon="22.99154">
        <ele>730.750894</ele>
        <time>2022-04-05T08:25:55.272Z</time>
      </trkpt>
      <trkpt lat="42.5232" lon="22.99165">
        <ele>730.646991</ele>
        <time>2022-04-05T08:25:57.274Z</time>
      </trkpt>
      <trkpt lat="42.52313" lon="22.99176">
        <ele>730.549348</ele>
        <time>2022-04-05T08:25:59.246Z</time>
      </trkpt>
      <trkpt lat="42.52306" lon="22.99188">
        <ele>730.464698</ele>
        <time>2022-04-05T08:26:01.359Z</time>
      </trkpt>
      <trkpt lat="42.52299" lon="22.992">
        <ele>730.4013</ele>
        <time>2022-04-05T08:26:03.217Z</time>
      </trkpt>
      <trkpt lat="42.52292" lon="22.99212">
        <ele>730.337942</ele>
        <time>2022-04-05T08:26:05.205Z</time>
      </trkpt>
      <trkpt lat="42.52285" lon="22.99224">
        <ele>730.273593</ele>
        <time>2022-04-05T08:26:07.219Z</time>
      </trkpt>
      <trkpt lat="42.52277" lon="22.99236">
        <ele>730.20691</ele>
        <time>2022-04-05T08:26:09.228Z</time>
      </trkpt>
      <trkpt lat="42.5227" lon="22.99248">
        <ele>730.142879</ele>
        <time>2022-04-05T08:26:11.230Z</time>
      </trkpt>
      <trkpt lat="42.52262" lon="22.9926">
        <ele>730.080055</ele>
        <time>2022-04-05T08:26:13.232Z</time>
      </trkpt>
      <trkpt lat="42.52255" lon="22.99272">
        <ele>730.016657</ele>
        <time>2022-04-05T08:26:15.230Z</time>
      </trkpt>
      <trkpt lat="42.52248" lon="22.99283">
        <ele>729.954199</ele>
        <time>2022-04-05T08:26:17.272Z</time>
      </trkpt>
      <trkpt lat="42.5224" lon="22.99295">
        <ele>729.888724</ele>
        <time>2022-04-05T08:26:19.229Z</time>
      </trkpt>
      <trkpt lat="42.52233" lon="22.99306">
        <ele>729.829363</ele>
        <time>2022-04-05T08:26:21.213Z</time>
      </trkpt>
      <trkpt lat="42.52226" lon="22.99317">
        <ele>729.769291</ele>
        <time>2022-04-05T08:26:23.267Z</time>
      </trkpt>
      <trkpt lat="42.5222" lon="22.99329">
        <ele>729.708318</ele>
        <time>2022-04-05T08:26:25.236Z</time>
      </trkpt>
      <trkpt lat="42.52213" lon="22.99341">
        <ele>729.647645</ele>
        <time>2022-04-05T08:26:27.237Z</time>
      </trkpt>
      <trkpt lat="42.52206" lon="22.99352">
        <ele>729.587685</ele>
        <time>2022-04-05T08:26:29.222Z</time>
      </trkpt>
      <trkpt lat="42.522" lon="22.99364">
        <ele>729.529705</ele>
        <time>2022-04-05T08:26:31.228Z</time>
      </trkpt>
      <trkpt lat="42.52194" lon="22.99374">
        <ele>729.435506</ele>
        <time>2022-04-05T08:26:33.227Z</time>
      </trkpt>
      <trkpt lat="42.52187" lon="22.99385">
        <ele>729.223505</ele>
        <time>2022-04-05T08:26:35.228Z</time>
      </trkpt>
      <trkpt lat="42.52181" lon="22.99396">
        <ele>729.023904</ele>
        <time>2022-04-05T08:26:37.208Z</time>
      </trkpt>
      <trkpt lat="42.52176" lon="22.99406">
        <ele>728.829149</ele>
        <time>2022-04-05T08:26:39.229Z</time>
      </trkpt>
      <trkpt lat="42.5217" lon="22.99416">
        <ele>728.635714</ele>
        <time>2022-04-05T08:26:41.217Z</time>
      </trkpt>
      <trkpt lat="42.52164" lon="22.99426">
        <ele>728.444648</ele>
        <time>2022-04-05T08:26:43.217Z</time>
      </trkpt>
      <trkpt lat="42.52157" lon="22.9944">
        <ele>728.169882</ele>
        <time>2022-04-05T08:26:46.228Z</time>
      </trkpt>
      <trkpt lat="42.52148" lon="22.99454">
        <ele>727.894897</ele>
        <time>2022-04-05T08:26:49.234Z</time>
      </trkpt>
      <trkpt lat="42.52142" lon="22.99464">
        <ele>727.697654</ele>
        <time>2022-04-05T08:26:51.263Z</time>
      </trkpt>
      <trkpt lat="42.52137" lon="22.99475">
        <ele>727.494357</ele>
        <time>2022-04-05T08:26:53.228Z</time>
      </trkpt>
      <trkpt lat="42.5213" lon="22.99485">
        <ele>727.285822</ele>
        <time>2022-04-05T08:26:55.241Z</time>
      </trkpt>
      <trkpt lat="42.52123" lon="22.99497">
        <ele>727.06505</ele>
        <time>2022-04-05T08:26:57.280Z</time>
      </trkpt>
      <trkpt lat="42.52117" lon="22.99508">
        <ele>726.849269</ele>
        <time>2022-04-05T08:26:59.220Z</time>
      </trkpt>
      <trkpt lat="42.5211" lon="22.99519">
        <ele>726.623499</ele>
        <time>2022-04-05T08:27:01.219Z</time>
      </trkpt>
      <trkpt lat="42.52103" lon="22.9953">
        <ele>726.399144</ele>
        <time>2022-04-05T08:27:03.256Z</time>
      </trkpt>
      <trkpt lat="42.52096" lon="22.99543">
        <ele>726.158636</ele>
        <time>2022-04-05T08:27:05.224Z</time>
      </trkpt>
      <trkpt lat="42.52089" lon="22.99554">
        <ele>725.927997</ele>
        <time>2022-04-05T08:27:07.228Z</time>
      </trkpt>
      <trkpt lat="42.52082" lon="22.99567">
        <ele>725.711152</ele>
        <time>2022-04-05T08:27:09.227Z</time>
      </trkpt>
      <trkpt lat="42.52075" lon="22.99579">
        <ele>725.550349</ele>
        <time>2022-04-05T08:27:11.232Z</time>
      </trkpt>
      <trkpt lat="42.52067" lon="22.99592">
        <ele>725.386692</ele>
        <time>2022-04-05T08:27:13.237Z</time>
      </trkpt>
      <trkpt lat="42.52059" lon="22.99604">
        <ele>725.221933</ele>
        <time>2022-04-05T08:27:15.234Z</time>
      </trkpt>
      <trkpt lat="42.52051" lon="22.99618">
        <ele>725.053923</ele>
        <time>2022-04-05T08:27:17.237Z</time>
      </trkpt>
      <trkpt lat="42.52043" lon="22.9963">
        <ele>724.883838</ele>
        <time>2022-04-05T08:27:19.216Z</time>
      </trkpt>
      <trkpt lat="42.52035" lon="22.99643">
        <ele>724.719678</ele>
        <time>2022-04-05T08:27:21.217Z</time>
      </trkpt>
      <trkpt lat="42.52027" lon="22.99656">
        <ele>724.554753</ele>
        <time>2022-04-05T08:27:23.217Z</time>
      </trkpt>
      <trkpt lat="42.5202" lon="22.99669">
        <ele>724.38759</ele>
        <time>2022-04-05T08:27:25.233Z</time>
      </trkpt>
      <trkpt lat="42.52012" lon="22.99682">
        <ele>724.222756</ele>
        <time>2022-04-05T08:27:27.219Z</time>
      </trkpt>
      <trkpt lat="42.52004" lon="22.99694">
        <ele>724.059463</ele>
        <time>2022-04-05T08:27:29.225Z</time>
      </trkpt>
      <trkpt lat="42.51997" lon="22.99707">
        <ele>723.897885</ele>
        <time>2022-04-05T08:27:31.238Z</time>
      </trkpt>
      <trkpt lat="42.51989" lon="22.9972">
        <ele>723.73305</ele>
        <time>2022-04-05T08:27:33.229Z</time>
      </trkpt>
      <trkpt lat="42.51981" lon="22.99732">
        <ele>723.566379</ele>
        <time>2022-04-05T08:27:35.240Z</time>
      </trkpt>
      <trkpt lat="42.51974" lon="22.99745">
        <ele>723.403242</ele>
        <time>2022-04-05T08:27:37.234Z</time>
      </trkpt>
      <trkpt lat="42.51966" lon="22.99758">
        <ele>723.268524</ele>
        <time>2022-04-05T08:27:39.230Z</time>
      </trkpt>
      <trkpt lat="42.51958" lon="22.99771">
        <ele>723.167248</ele>
        <time>2022-04-05T08:27:41.220Z</time>
      </trkpt>
      <trkpt lat="42.5195" lon="22.99784">
        <ele>723.066498</ele>
        <time>2022-04-05T08:27:43.262Z</time>
      </trkpt>
      <trkpt lat="42.51943" lon="22.99796">
        <ele>722.967737</ele>
        <time>2022-04-05T08:27:45.223Z</time>
      </trkpt>
      <trkpt lat="42.51936" lon="22.99809">
        <ele>722.86997</ele>
        <time>2022-04-05T08:27:47.227Z</time>
      </trkpt>
      <trkpt lat="42.51928" lon="22.99821">
        <ele>722.773151</ele>
        <time>2022-04-05T08:27:49.225Z</time>
      </trkpt>
      <trkpt lat="42.51921" lon="22.99833">
        <ele>722.675743</ele>
        <time>2022-04-05T08:27:51.234Z</time>
      </trkpt>
      <trkpt lat="42.51913" lon="22.99845">
        <ele>722.580801</ele>
        <time>2022-04-05T08:27:53.236Z</time>
      </trkpt>
      <trkpt lat="42.51906" lon="22.99857">
        <ele>722.48639</ele>
        <time>2022-04-05T08:27:55.235Z</time>
      </trkpt>
      <trkpt lat="42.51898" lon="22.9987">
        <ele>722.38719</ele>
        <time>2022-04-05T08:27:57.223Z</time>
      </trkpt>
      <trkpt lat="42.51891" lon="22.99882">
        <ele>722.290247</ele>
        <time>2022-04-05T08:27:59.218Z</time>
      </trkpt>
      <trkpt lat="42.51883" lon="22.99894">
        <ele>722.191435</ele>
        <time>2022-04-05T08:28:01.221Z</time>
      </trkpt>
      <trkpt lat="42.51876" lon="22.99907">
        <ele>722.093491</ele>
        <time>2022-04-05T08:28:03.227Z</time>
      </trkpt>
      <trkpt lat="42.51868" lon="22.99919">
        <ele>721.994729</ele>
        <time>2022-04-05T08:28:05.269Z</time>
      </trkpt>
      <trkpt lat="42.51861" lon="22.99932">
        <ele>721.895016</ele>
        <time>2022-04-05T08:28:07.230Z</time>
      </trkpt>
      <trkpt lat="42.51853" lon="22.99944">
        <ele>721.750309</ele>
        <time>2022-04-05T08:28:09.229Z</time>
      </trkpt>
      <trkpt lat="42.51847" lon="22.99956">
        <ele>721.484763</ele>
        <time>2022-04-05T08:28:11.275Z</time>
      </trkpt>
      <trkpt lat="42.5184" lon="22.99967">
        <ele>721.224795</ele>
        <time>2022-04-05T08:28:13.236Z</time>
      </trkpt>
      <trkpt lat="42.51833" lon="22.9998">
        <ele>720.956381</ele>
        <time>2022-04-05T08:28:15.237Z</time>
      </trkpt>
      <trkpt lat="42.51826" lon="22.99991">
        <ele>720.689042</ele>
        <time>2022-04-05T08:28:17.262Z</time>
      </trkpt>
      <trkpt lat="42.5182" lon="23.00005">
        <ele>720.410331</ele>
        <time>2022-04-05T08:28:19.208Z</time>
      </trkpt>
      <trkpt lat="42.51812" lon="23.00017">
        <ele>720.127002</ele>
        <time>2022-04-05T08:28:21.217Z</time>
      </trkpt>
      <trkpt lat="42.51805" lon="23.00029">
        <ele>719.849649</ele>
        <time>2022-04-05T08:28:23.242Z</time>
      </trkpt>
      <trkpt lat="42.51797" lon="23.00042">
        <ele>719.565549</ele>
        <time>2022-04-05T08:28:25.232Z</time>
      </trkpt>
      <trkpt lat="42.5179" lon="23.00054">
        <ele>719.283952</ele>
        <time>2022-04-05T08:28:27.222Z</time>
      </trkpt>
      <trkpt lat="42.51783" lon="23.00066">
        <ele>719.005381</ele>
        <time>2022-04-05T08:28:29.225Z</time>
      </trkpt>
      <trkpt lat="42.51775" lon="23.00079">
        <ele>718.718177</ele>
        <time>2022-04-05T08:28:31.225Z</time>
      </trkpt>
      <trkpt lat="42.51767" lon="23.00092">
        <ele>718.422607</ele>
        <time>2022-04-05T08:28:33.243Z</time>
      </trkpt>
      <trkpt lat="42.51759" lon="23.00106">
        <ele>718.111414</ele>
        <time>2022-04-05T08:28:35.222Z</time>
      </trkpt>
      <trkpt lat="42.51751" lon="23.00119">
        <ele>717.800095</ele>
        <time>2022-04-05T08:28:37.215Z</time>
      </trkpt>
      <trkpt lat="42.51742" lon="23.00135">
        <ele>717.494562</ele>
        <time>2022-04-05T08:28:39.267Z</time>
      </trkpt>
      <trkpt lat="42.51734" lon="23.0015">
        <ele>717.3324</ele>
        <time>2022-04-05T08:28:41.257Z</time>
      </trkpt>
      <trkpt lat="42.51725" lon="23.00164">
        <ele>717.175548</ele>
        <time>2022-04-05T08:28:43.219Z</time>
      </trkpt>
      <trkpt lat="42.51716" lon="23.00179">
        <ele>717.008485</ele>
        <time>2022-04-05T08:28:45.258Z</time>
      </trkpt>
      <trkpt lat="42.51707" lon="23.00193">
        <ele>716.852843</ele>
        <time>2022-04-05T08:28:47.230Z</time>
      </trkpt>
      <trkpt lat="42.51698" lon="23.00207">
        <ele>716.703164</ele>
        <time>2022-04-05T08:28:49.220Z</time>
      </trkpt>
      <trkpt lat="42.5169" lon="23.0022">
        <ele>716.556447</ele>
        <time>2022-04-05T08:28:51.264Z</time>
      </trkpt>
      <trkpt lat="42.51682" lon="23.00232">
        <ele>716.425072</ele>
        <time>2022-04-05T08:28:53.236Z</time>
      </trkpt>
      <trkpt lat="42.51676" lon="23.00243">
        <ele>716.303615</ele>
        <time>2022-04-05T08:28:55.220Z</time>
      </trkpt>
      <trkpt lat="42.51669" lon="23.00254">
        <ele>716.18017</ele>
        <time>2022-04-05T08:28:57.223Z</time>
      </trkpt>
      <trkpt lat="42.51662" lon="23.00264">
        <ele>716.067718</ele>
        <time>2022-04-05T08:28:59.234Z</time>
      </trkpt>
      <trkpt lat="42.51656" lon="23.00273">
        <ele>715.963067</ele>
        <time>2022-04-05T08:29:01.215Z</time>
      </trkpt>
      <trkpt lat="42.5165" lon="23.00283">
        <ele>715.856928</ele>
        <time>2022-04-05T08:29:03.230Z</time>
      </trkpt>
      <trkpt lat="42.51644" lon="23.00293">
        <ele>715.750252</ele>
        <time>2022-04-05T08:29:05.225Z</time>
      </trkpt>
      <trkpt lat="42.51638" lon="23.00302">
        <ele>715.644307</ele>
        <time>2022-04-05T08:29:07.231Z</time>
      </trkpt>
      <trkpt lat="42.51632" lon="23.00312">
        <ele>715.541036</ele>
        <time>2022-04-05T08:29:09.229Z</time>
      </trkpt>
      <trkpt lat="42.51626" lon="23.00321">
        <ele>715.422651</ele>
        <time>2022-04-05T08:29:11.242Z</time>
      </trkpt>
      <trkpt lat="42.5162" lon="23.00332">
        <ele>715.263484</ele>
        <time>2022-04-05T08:29:13.257Z</time>
      </trkpt>
      <trkpt lat="42.51614" lon="23.00341">
        <ele>715.110957</ele>
        <time>2022-04-05T08:29:15.240Z</time>
      </trkpt>
      <trkpt lat="42.51608" lon="23.00351">
        <ele>714.95363</ele>
        <time>2022-04-05T08:29:17.224Z</time>
      </trkpt>
      <trkpt lat="42.51602" lon="23.00361">
        <ele>714.799119</ele>
        <time>2022-04-05T08:29:19.225Z</time>
      </trkpt>
      <trkpt lat="42.51596" lon="23.00371">
        <ele>714.640754</ele>
        <time>2022-04-05T08:29:21.236Z</time>
      </trkpt>
      <trkpt lat="42.5159" lon="23.00381">
        <ele>714.482271</ele>
        <time>2022-04-05T08:29:23.234Z</time>
      </trkpt>
      <trkpt lat="42.51584" lon="23.00392">
        <ele>714.324101</ele>
        <time>2022-04-05T08:29:25.238Z</time>
      </trkpt>
      <trkpt lat="42.51578" lon="23.00402">
        <ele>714.159031</ele>
        <time>2022-04-05T08:29:27.233Z</time>
      </trkpt>
      <trkpt lat="42.51571" lon="23.00414">
        <ele>713.984087</ele>
        <time>2022-04-05T08:29:29.239Z</time>
      </trkpt>
      <trkpt lat="42.51565" lon="23.00425">
        <ele>713.804394</ele>
        <time>2022-04-05T08:29:31.258Z</time>
      </trkpt>
      <trkpt lat="42.51558" lon="23.00437">
        <ele>713.625657</ele>
        <time>2022-04-05T08:29:33.231Z</time>
      </trkpt>
      <trkpt lat="42.51551" lon="23.00449">
        <ele>713.437995</ele>
        <time>2022-04-05T08:29:35.206Z</time>
      </trkpt>
      <trkpt lat="42.51543" lon="23.00462">
        <ele>713.23865</ele>
        <time>2022-04-05T08:29:37.233Z</time>
      </trkpt>
      <trkpt lat="42.51535" lon="23.00475">
        <ele>713.028696</ele>
        <time>2022-04-05T08:29:39.242Z</time>
      </trkpt>
      <trkpt lat="42.51527" lon="23.00488">
        <ele>712.823301</ele>
        <time>2022-04-05T08:29:41.263Z</time>
      </trkpt>
      <trkpt lat="42.51519" lon="23.00502">
        <ele>712.612268</ele>
        <time>2022-04-05T08:29:43.226Z</time>
      </trkpt>
      <trkpt lat="42.51511" lon="23.00516">
        <ele>712.415724</ele>
        <time>2022-04-05T08:29:45.227Z</time>
      </trkpt>
      <trkpt lat="42.51503" lon="23.0053">
        <ele>712.234417</ele>
        <time>2022-04-05T08:29:47.256Z</time>
      </trkpt>
      <trkpt lat="42.51495" lon="23.00543">
        <ele>712.055299</ele>
        <time>2022-04-05T08:29:49.235Z</time>
      </trkpt>
      <trkpt lat="42.51486" lon="23.00557">
        <ele>711.877216</ele>
        <time>2022-04-05T08:29:51.225Z</time>
      </trkpt>
      <trkpt lat="42.51478" lon="23.00571">
        <ele>711.693413</ele>
        <time>2022-04-05T08:29:53.219Z</time>
      </trkpt>
      <trkpt lat="42.5147" lon="23.00586">
        <ele>711.507178</ele>
        <time>2022-04-05T08:29:55.220Z</time>
      </trkpt>
      <trkpt lat="42.51461" lon="23.006">
        <ele>711.320776</ele>
        <time>2022-04-05T08:29:57.233Z</time>
      </trkpt>
      <trkpt lat="42.51452" lon="23.00614">
        <ele>711.132035</ele>
        <time>2022-04-05T08:29:59.264Z</time>
      </trkpt>
      <trkpt lat="42.51443" lon="23.00629">
        <ele>710.940863</ele>
        <time>2022-04-05T08:30:01.227Z</time>
      </trkpt>
      <trkpt lat="42.51435" lon="23.00643">
        <ele>710.756982</ele>
        <time>2022-04-05T08:30:03.228Z</time>
      </trkpt>
      <trkpt lat="42.51427" lon="23.00657">
        <ele>710.578826</ele>
        <time>2022-04-05T08:30:05.228Z</time>
      </trkpt>
      <trkpt lat="42.51419" lon="23.00671">
        <ele>710.401531</ele>
        <time>2022-04-05T08:30:07.226Z</time>
      </trkpt>
      <trkpt lat="42.51411" lon="23.00684">
        <ele>710.229017</ele>
        <time>2022-04-05T08:30:09.205Z</time>
      </trkpt>
      <trkpt lat="42.51403" lon="23.00696">
        <ele>710.065524</ele>
        <time>2022-04-05T08:30:11.237Z</time>
      </trkpt>
      <trkpt lat="42.51396" lon="23.00708">
        <ele>709.922867</ele>
        <time>2022-04-05T08:30:13.238Z</time>
      </trkpt>
      <trkpt lat="42.51389" lon="23.0072">
        <ele>709.778117</ele>
        <time>2022-04-05T08:30:15.227Z</time>
      </trkpt>
      <trkpt lat="42.51382" lon="23.00732">
        <ele>709.640058</ele>
        <time>2022-04-05T08:30:17.232Z</time>
      </trkpt>
      <trkpt lat="42.51375" lon="23.00743">
        <ele>709.495965</ele>
        <time>2022-04-05T08:30:19.243Z</time>
      </trkpt>
      <trkpt lat="42.51368" lon="23.00755">
        <ele>709.35347</ele>
        <time>2022-04-05T08:30:21.220Z</time>
      </trkpt>
      <trkpt lat="42.51361" lon="23.00767">
        <ele>709.210905</ele>
        <time>2022-04-05T08:30:23.235Z</time>
      </trkpt>
      <trkpt lat="42.51354" lon="23.00779">
        <ele>709.070664</ele>
        <time>2022-04-05T08:30:25.231Z</time>
      </trkpt>
      <trkpt lat="42.51347" lon="23.0079">
        <ele>708.937187</ele>
        <time>2022-04-05T08:30:27.254Z</time>
      </trkpt>
      <trkpt lat="42.51341" lon="23.00801">
        <ele>708.808943</ele>
        <time>2022-04-05T08:30:29.223Z</time>
      </trkpt>
      <trkpt lat="42.51334" lon="23.00812">
        <ele>708.671391</ele>
        <time>2022-04-05T08:30:31.222Z</time>
      </trkpt>
      <trkpt lat="42.51327" lon="23.00822">
        <ele>708.54387</ele>
        <time>2022-04-05T08:30:33.221Z</time>
      </trkpt>
      <trkpt lat="42.51321" lon="23.00832">
        <ele>708.417541</ele>
        <time>2022-04-05T08:30:35.247Z</time>
      </trkpt>
      <trkpt lat="42.51314" lon="23.00843">
        <ele>708.290019</ele>
        <time>2022-04-05T08:30:37.215Z</time>
      </trkpt>
      <trkpt lat="42.51308" lon="23.00853">
        <ele>708.158616</ele>
        <time>2022-04-05T08:30:39.255Z</time>
      </trkpt>
      <trkpt lat="42.51301" lon="23.00865">
        <ele>708.025932</ele>
        <time>2022-04-05T08:30:41.227Z</time>
      </trkpt>
      <trkpt lat="42.51294" lon="23.00876">
        <ele>707.885619</ele>
        <time>2022-04-05T08:30:43.240Z</time>
      </trkpt>
      <trkpt lat="42.51287" lon="23.00888">
        <ele>707.749547</ele>
        <time>2022-04-05T08:30:45.236Z</time>
      </trkpt>
      <trkpt lat="42.5128" lon="23.009">
        <ele>707.660201</ele>
        <time>2022-04-05T08:30:47.225Z</time>
      </trkpt>
      <trkpt lat="42.51273" lon="23.00912">
        <ele>707.568423</ele>
        <time>2022-04-05T08:30:49.235Z</time>
      </trkpt>
      <trkpt lat="42.51265" lon="23.00925">
        <ele>707.472491</ele>
        <time>2022-04-05T08:30:51.266Z</time>
      </trkpt>
      <trkpt lat="42.51258" lon="23.00938">
        <ele>707.372236</ele>
        <time>2022-04-05T08:30:53.227Z</time>
      </trkpt>
      <trkpt lat="42.5125" lon="23.00951">
        <ele>707.272477</ele>
        <time>2022-04-05T08:30:55.228Z</time>
      </trkpt>
      <trkpt lat="42.51242" lon="23.00964">
        <ele>707.173675</ele>
        <time>2022-04-05T08:30:57.277Z</time>
      </trkpt>
      <trkpt lat="42.51235" lon="23.00977">
        <ele>707.075302</ele>
        <time>2022-04-05T08:30:59.225Z</time>
      </trkpt>
      <trkpt lat="42.51227" lon="23.0099">
        <ele>706.978622</ele>
        <time>2022-04-05T08:31:01.228Z</time>
      </trkpt>
      <trkpt lat="42.51219" lon="23.01002">
        <ele>706.883591</ele>
        <time>2022-04-05T08:31:03.273Z</time>
      </trkpt>
      <trkpt lat="42.51212" lon="23.01015">
        <ele>706.787045</ele>
        <time>2022-04-05T08:31:05.237Z</time>
      </trkpt>
      <trkpt lat="42.51204" lon="23.01027">
        <ele>706.692428</ele>
        <time>2022-04-05T08:31:07.256Z</time>
      </trkpt>
      <trkpt lat="42.51196" lon="23.0104">
        <ele>706.598205</ele>
        <time>2022-04-05T08:31:09.251Z</time>
      </trkpt>
      <trkpt lat="42.51189" lon="23.01052">
        <ele>706.505055</ele>
        <time>2022-04-05T08:31:11.221Z</time>
      </trkpt>
      <trkpt lat="42.51182" lon="23.01064">
        <ele>706.412311</ele>
        <time>2022-04-05T08:31:13.208Z</time>
      </trkpt>
      <trkpt lat="42.51175" lon="23.01076">
        <ele>706.321351</ele>
        <time>2022-04-05T08:31:15.227Z</time>
      </trkpt>
      <trkpt lat="42.51168" lon="23.01088">
        <ele>706.367532</ele>
        <time>2022-04-05T08:31:17.239Z</time>
      </trkpt>
      <trkpt lat="42.51161" lon="23.011">
        <ele>706.412487</ele>
        <time>2022-04-05T08:31:19.214Z</time>
      </trkpt>
      <trkpt lat="42.51154" lon="23.01111">
        <ele>706.456949</ele>
        <time>2022-04-05T08:31:21.232Z</time>
      </trkpt>
      <trkpt lat="42.51147" lon="23.01122">
        <ele>706.500422</ele>
        <time>2022-04-05T08:31:23.220Z</time>
      </trkpt>
      <trkpt lat="42.51141" lon="23.01134">
        <ele>706.545101</ele>
        <time>2022-04-05T08:31:25.237Z</time>
      </trkpt>
      <trkpt lat="42.51134" lon="23.01145">
        <ele>706.590293</ele>
        <time>2022-04-05T08:31:27.223Z</time>
      </trkpt>
      <trkpt lat="42.51127" lon="23.01157">
        <ele>706.635958</ele>
        <time>2022-04-05T08:31:29.219Z</time>
      </trkpt>
      <trkpt lat="42.5112" lon="23.01169">
        <ele>706.680655</ele>
        <time>2022-04-05T08:31:31.215Z</time>
      </trkpt>
      <trkpt lat="42.51113" lon="23.0118">
        <ele>706.724647</ele>
        <time>2022-04-05T08:31:33.235Z</time>
      </trkpt>
      <trkpt lat="42.51107" lon="23.01191">
        <ele>706.766918</ele>
        <time>2022-04-05T08:31:35.225Z</time>
      </trkpt>
      <trkpt lat="42.511" lon="23.01201">
        <ele>706.808695</ele>
        <time>2022-04-05T08:31:37.275Z</time>
      </trkpt>
      <trkpt lat="42.51094" lon="23.01212">
        <ele>706.851202</ele>
        <time>2022-04-05T08:31:39.241Z</time>
      </trkpt>
      <trkpt lat="42.51087" lon="23.01223">
        <ele>706.893709</ele>
        <time>2022-04-05T08:31:41.235Z</time>
      </trkpt>
      <trkpt lat="42.51081" lon="23.01234">
        <ele>706.935512</ele>
        <time>2022-04-05T08:31:43.253Z</time>
      </trkpt>
      <trkpt lat="42.51074" lon="23.01244">
        <ele>706.977813</ele>
        <time>2022-04-05T08:31:45.232Z</time>
      </trkpt>
      <trkpt lat="42.51068" lon="23.01255">
        <ele>707.019384</ele>
        <time>2022-04-05T08:31:47.234Z</time>
      </trkpt>
      <trkpt lat="42.51062" lon="23.01265">
        <ele>707.057512</ele>
        <time>2022-04-05T08:31:49.218Z</time>
      </trkpt>
      <trkpt lat="42.51053" lon="23.01279">
        <ele>707.276434</ele>
        <time>2022-04-05T08:31:52.234Z</time>
      </trkpt>
      <trkpt lat="42.51047" lon="23.01288">
        <ele>707.430517</ele>
        <time>2022-04-05T08:31:54.255Z</time>
      </trkpt>
      <trkpt lat="42.51039" lon="23.01302">
        <ele>707.649221</ele>
        <time>2022-04-05T08:31:57.220Z</time>
      </trkpt>
      <trkpt lat="42.51031" lon="23.01315">
        <ele>707.867302</ele>
        <time>2022-04-05T08:32:00.220Z</time>
      </trkpt>
      <trkpt lat="42.51023" lon="23.01328">
        <ele>708.083321</ele>
        <time>2022-04-05T08:32:03.227Z</time>
      </trkpt>
      <trkpt lat="42.51015" lon="23.01341">
        <ele>708.295839</ele>
        <time>2022-04-05T08:32:06.225Z</time>
      </trkpt>
      <trkpt lat="42.51008" lon="23.01354">
        <ele>708.492376</ele>
        <time>2022-04-05T08:32:09.213Z</time>
      </trkpt>
      <trkpt lat="42.51001" lon="23.01364">
        <ele>708.670768</ele>
        <time>2022-04-05T08:32:12.230Z</time>
      </trkpt>
      <trkpt lat="42.50995" lon="23.01376">
        <ele>708.85305</ele>
        <time>2022-04-05T08:32:15.213Z</time>
      </trkpt>
      <trkpt lat="42.50988" lon="23.01387">
        <ele>709.042458</ele>
        <time>2022-04-05T08:32:18.234Z</time>
      </trkpt>
      <trkpt lat="42.50981" lon="23.01399">
        <ele>709.22884</ele>
        <time>2022-04-05T08:32:21.259Z</time>
      </trkpt>
      <trkpt lat="42.50974" lon="23.0141">
        <ele>709.415473</ele>
        <time>2022-04-05T08:32:24.223Z</time>
      </trkpt>
      <trkpt lat="42.50967" lon="23.01422">
        <ele>709.598829</ele>
        <time>2022-04-05T08:32:27.238Z</time>
      </trkpt>
      <trkpt lat="42.5096" lon="23.01433">
        <ele>709.782093</ele>
        <time>2022-04-05T08:32:30.244Z</time>
      </trkpt>
      <trkpt lat="42.50953" lon="23.01444">
        <ele>709.964478</ele>
        <time>2022-04-05T08:32:33.221Z</time>
      </trkpt>
      <trkpt lat="42.50947" lon="23.01455">
        <ele>710.137704</ele>
        <time>2022-04-05T08:32:36.241Z</time>
      </trkpt>
      <trkpt lat="42.5094" lon="23.01466">
        <ele>710.26193</ele>
        <time>2022-04-05T08:32:39.237Z</time>
      </trkpt>
      <trkpt lat="42.50934" lon="23.01476">
        <ele>710.384202</ele>
        <time>2022-04-05T08:32:42.263Z</time>
      </trkpt>
      <trkpt lat="42.50927" lon="23.01488">
        <ele>710.513412</ele>
        <time>2022-04-05T08:32:45.232Z</time>
      </trkpt>
      <trkpt lat="42.5092" lon="23.01498">
        <ele>710.638406</ele>
        <time>2022-04-05T08:32:48.218Z</time>
      </trkpt>
      <trkpt lat="42.50914" lon="23.01509">
        <ele>710.763324</ele>
        <time>2022-04-05T08:32:51.215Z</time>
      </trkpt>
      <trkpt lat="42.50907" lon="23.01521">
        <ele>710.899731</ele>
        <time>2022-04-05T08:32:54.237Z</time>
      </trkpt>
      <trkpt lat="42.50899" lon="23.01533">
        <ele>711.037767</ele>
        <time>2022-04-05T08:32:57.227Z</time>
      </trkpt>
      <trkpt lat="42.50892" lon="23.01545">
        <ele>711.177082</ele>
        <time>2022-04-05T08:33:00.228Z</time>
      </trkpt>
      <trkpt lat="42.50885" lon="23.01557">
        <ele>711.318542</ele>
        <time>2022-04-05T08:33:03.221Z</time>
      </trkpt>
      <trkpt lat="42.50878" lon="23.01569">
        <ele>711.450738</ele>
        <time>2022-04-05T08:33:06.225Z</time>
      </trkpt>
      <trkpt lat="42.50871" lon="23.0158">
        <ele>711.585078</ele>
        <time>2022-04-05T08:33:09.224Z</time>
      </trkpt>
      <trkpt lat="42.50863" lon="23.01592">
        <ele>711.720298</ele>
        <time>2022-04-05T08:33:12.265Z</time>
      </trkpt>
      <trkpt lat="42.50856" lon="23.01604">
        <ele>711.853802</ele>
        <time>2022-04-05T08:33:15.232Z</time>
      </trkpt>
      <trkpt lat="42.5085" lon="23.01615">
        <ele>711.988002</ele>
        <time>2022-04-05T08:33:18.208Z</time>
      </trkpt>
      <trkpt lat="42.50843" lon="23.01627">
        <ele>712.121573</ele>
        <time>2022-04-05T08:33:21.219Z</time>
      </trkpt>
      <trkpt lat="42.50836" lon="23.01639">
        <ele>712.25369</ele>
        <time>2022-04-05T08:33:24.237Z</time>
      </trkpt>
      <trkpt lat="42.50829" lon="23.0165">
        <ele>712.392146</ele>
        <time>2022-04-05T08:33:27.220Z</time>
      </trkpt>
      <trkpt lat="42.50822" lon="23.01662">
        <ele>712.532719</ele>
        <time>2022-04-05T08:33:30.226Z</time>
      </trkpt>
      <trkpt lat="42.50814" lon="23.01674">
        <ele>712.675615</ele>
        <time>2022-04-05T08:33:33.237Z</time>
      </trkpt>
      <trkpt lat="42.50807" lon="23.01686">
        <ele>712.816991</ele>
        <time>2022-04-05T08:33:36.216Z</time>
      </trkpt>
      <trkpt lat="42.50799" lon="23.01697">
        <ele>712.961101</ele>
        <time>2022-04-05T08:33:39.239Z</time>
      </trkpt>
      <trkpt lat="42.50792" lon="23.01709">
        <ele>713.106139</ele>
        <time>2022-04-05T08:33:42.226Z</time>
      </trkpt>
      <trkpt lat="42.50785" lon="23.01721">
        <ele>713.247311</ele>
        <time>2022-04-05T08:33:45.247Z</time>
      </trkpt>
      <trkpt lat="42.50778" lon="23.01733">
        <ele>713.387712</ele>
        <time>2022-04-05T08:33:48.218Z</time>
      </trkpt>
      <trkpt lat="42.50772" lon="23.01744">
        <ele>713.517043</ele>
        <time>2022-04-05T08:33:51.209Z</time>
      </trkpt>
      <trkpt lat="42.50765" lon="23.01755">
        <ele>713.651841</ele>
        <time>2022-04-05T08:33:54.225Z</time>
      </trkpt>
      <trkpt lat="42.50758" lon="23.01767">
        <ele>713.793064</ele>
        <time>2022-04-05T08:33:57.229Z</time>
      </trkpt>
      <trkpt lat="42.5075" lon="23.0178">
        <ele>713.943289</ele>
        <time>2022-04-05T08:34:00.225Z</time>
      </trkpt>
      <trkpt lat="42.50743" lon="23.01792">
        <ele>714.092076</ele>
        <time>2022-04-05T08:34:03.230Z</time>
      </trkpt>
      <trkpt lat="42.50735" lon="23.01804">
        <ele>714.240952</ele>
        <time>2022-04-05T08:34:06.211Z</time>
      </trkpt>
      <trkpt lat="42.50728" lon="23.01816">
        <ele>714.38456</ele>
        <time>2022-04-05T08:34:09.229Z</time>
      </trkpt>
      <trkpt lat="42.50721" lon="23.01828">
        <ele>714.526651</ele>
        <time>2022-04-05T08:34:12.275Z</time>
      </trkpt>
      <trkpt lat="42.50714" lon="23.01839">
        <ele>714.541993</ele>
        <time>2022-04-05T08:34:15.220Z</time>
      </trkpt>
      <trkpt lat="42.50707" lon="23.01851">
        <ele>714.50874</ele>
        <time>2022-04-05T08:34:18.222Z</time>
      </trkpt>
      <trkpt lat="42.507" lon="23.01863">
        <ele>714.475809</ele>
        <time>2022-04-05T08:34:21.229Z</time>
      </trkpt>
      <trkpt lat="42.50693" lon="23.01875">
        <ele>714.443065</ele>
        <time>2022-04-05T08:34:24.225Z</time>
      </trkpt>
      <trkpt lat="42.50686" lon="23.01886">
        <ele>714.410153</ele>
        <time>2022-04-05T08:34:27.225Z</time>
      </trkpt>
      <trkpt lat="42.50679" lon="23.01898">
        <ele>714.377578</ele>
        <time>2022-04-05T08:34:30.228Z</time>
      </trkpt>
      <trkpt lat="42.50671" lon="23.0191">
        <ele>714.343574</ele>
        <time>2022-04-05T08:34:33.227Z</time>
      </trkpt>
      <trkpt lat="42.50664" lon="23.01922">
        <ele>714.307969</ele>
        <time>2022-04-05T08:34:36.256Z</time>
      </trkpt>
      <trkpt lat="42.50656" lon="23.01934">
        <ele>714.272747</ele>
        <time>2022-04-05T08:34:39.224Z</time>
      </trkpt>
      <trkpt lat="42.50649" lon="23.01946">
        <ele>714.238764</ele>
        <time>2022-04-05T08:34:42.233Z</time>
      </trkpt>
      <trkpt lat="42.50642" lon="23.01958">
        <ele>714.205307</ele>
        <time>2022-04-05T08:34:45.226Z</time>
      </trkpt>
      <trkpt lat="42.50634" lon="23.01971">
        <ele>714.169052</ele>
        <time>2022-04-05T08:34:48.217Z</time>
      </trkpt>
      <trkpt lat="42.50626" lon="23.01985">
        <ele>714.132482</ele>
        <time>2022-04-05T08:34:51.237Z</time>
      </trkpt>
      <trkpt lat="42.50619" lon="23.01997">
        <ele>714.098347</ele>
        <time>2022-04-05T08:34:54.226Z</time>
      </trkpt>
      <trkpt lat="42.50612" lon="23.02009">
        <ele>714.063481</ele>
        <time>2022-04-05T08:34:57.222Z</time>
      </trkpt>
      <trkpt lat="42.50604" lon="23.02023">
        <ele>714.004759</ele>
        <time>2022-04-05T08:35:00.224Z</time>
      </trkpt>
      <trkpt lat="42.50596" lon="23.02036">
        <ele>713.86356</ele>
        <time>2022-04-05T08:35:03.277Z</time>
      </trkpt>
      <trkpt lat="42.50587" lon="23.0205">
        <ele>713.715671</ele>
        <time>2022-04-05T08:35:06.235Z</time>
      </trkpt>
      <trkpt lat="42.50578" lon="23.02064">
        <ele>713.567856</ele>
        <time>2022-04-05T08:35:09.262Z</time>
      </trkpt>
      <trkpt lat="42.50573" lon="23.02075">
        <ele>713.46264</ele>
        <time>2022-04-05T08:35:11.237Z</time>
      </trkpt>
      <trkpt lat="42.50567" lon="23.02085">
        <ele>713.358004</ele>
        <time>2022-04-05T08:35:13.225Z</time>
      </trkpt>
      <trkpt lat="42.50561" lon="23.02095">
        <ele>713.253996</ele>
        <time>2022-04-05T08:35:15.236Z</time>
      </trkpt>
      <trkpt lat="42.50555" lon="23.02104">
        <ele>713.151237</ele>
        <time>2022-04-05T08:35:17.214Z</time>
      </trkpt>
      <trkpt lat="42.50549" lon="23.02114">
        <ele>713.049807</ele>
        <time>2022-04-05T08:35:19.223Z</time>
      </trkpt>
      <trkpt lat="42.50543" lon="23.02124">
        <ele>712.948503</ele>
        <time>2022-04-05T08:35:21.232Z</time>
      </trkpt>
      <trkpt lat="42.50537" lon="23.02133">
        <ele>712.847877</ele>
        <time>2022-04-05T08:35:23.240Z</time>
      </trkpt>
      <trkpt lat="42.50532" lon="23.02143">
        <ele>712.745253</ele>
        <time>2022-04-05T08:35:25.242Z</time>
      </trkpt>
      <trkpt lat="42.50526" lon="23.02153">
        <ele>712.645904</ele>
        <time>2022-04-05T08:35:27.220Z</time>
      </trkpt>
      <trkpt lat="42.5052" lon="23.02163">
        <ele>712.544653</ele>
        <time>2022-04-05T08:35:29.235Z</time>
      </trkpt>
      <trkpt lat="42.50515" lon="23.02173">
        <ele>712.440708</ele>
        <time>2022-04-05T08:35:31.243Z</time>
      </trkpt>
      <trkpt lat="42.50508" lon="23.02183">
        <ele>712.337853</ele>
        <time>2022-04-05T08:35:33.228Z</time>
      </trkpt>
      <trkpt lat="42.50503" lon="23.02192">
        <ele>712.237227</ele>
        <time>2022-04-05T08:35:35.224Z</time>
      </trkpt>
      <trkpt lat="42.50497" lon="23.02203">
        <ele>712.130691</ele>
        <time>2022-04-05T08:35:37.257Z</time>
      </trkpt>
      <trkpt lat="42.50491" lon="23.02213">
        <ele>712.010212</ele>
        <time>2022-04-05T08:35:39.234Z</time>
      </trkpt>
      <trkpt lat="42.50484" lon="23.02224">
        <ele>711.849369</ele>
        <time>2022-04-05T08:35:41.260Z</time>
      </trkpt>
      <trkpt lat="42.50478" lon="23.02235">
        <ele>711.687767</ele>
        <time>2022-04-05T08:35:43.236Z</time>
      </trkpt>
      <trkpt lat="42.50472" lon="23.02247">
        <ele>711.529833</ele>
        <time>2022-04-05T08:35:45.267Z</time>
      </trkpt>
      <trkpt lat="42.50465" lon="23.02257">
        <ele>711.37084</ele>
        <time>2022-04-05T08:35:47.219Z</time>
      </trkpt>
      <trkpt lat="42.50458" lon="23.02269">
        <ele>711.204611</ele>
        <time>2022-04-05T08:35:49.236Z</time>
      </trkpt>
      <trkpt lat="42.50451" lon="23.0228">
        <ele>711.034499</ele>
        <time>2022-04-05T08:35:51.260Z</time>
      </trkpt>
      <trkpt lat="42.50444" lon="23.02292">
        <ele>710.862732</ele>
        <time>2022-04-05T08:35:53.252Z</time>
      </trkpt>
      <trkpt lat="42.50437" lon="23.02304">
        <ele>710.691036</ele>
        <time>2022-04-05T08:35:55.224Z</time>
      </trkpt>
      <trkpt lat="42.5043" lon="23.02316">
        <ele>710.511298</ele>
        <time>2022-04-05T08:35:57.228Z</time>
      </trkpt>
      <trkpt lat="42.50423" lon="23.02327">
        <ele>710.343144</ele>
        <time>2022-04-05T08:35:59.253Z</time>
      </trkpt>
      <trkpt lat="42.50415" lon="23.02339">
        <ele>710.171039</ele>
        <time>2022-04-05T08:36:01.235Z</time>
      </trkpt>
      <trkpt lat="42.50408" lon="23.0235">
        <ele>710.000925</ele>
        <time>2022-04-05T08:36:03.221Z</time>
      </trkpt>
      <trkpt lat="42.50401" lon="23.02362">
        <ele>709.82882</ele>
        <time>2022-04-05T08:36:05.276Z</time>
      </trkpt>
      <trkpt lat="42.50394" lon="23.02374">
        <ele>709.656849</ele>
        <time>2022-04-05T08:36:07.239Z</time>
      </trkpt>
      <trkpt lat="42.50386" lon="23.02385">
        <ele>709.482151</ele>
        <time>2022-04-05T08:36:09.239Z</time>
      </trkpt>
      <trkpt lat="42.50379" lon="23.02398">
        <ele>709.3013</ele>
        <time>2022-04-05T08:36:11.213Z</time>
      </trkpt>
      <trkpt lat="42.50372" lon="23.0241">
        <ele>709.147912</ele>
        <time>2022-04-05T08:36:13.233Z</time>
      </trkpt>
      <trkpt lat="42.50364" lon="23.02423">
        <ele>708.994887</ele>
        <time>2022-04-05T08:36:15.231Z</time>
      </trkpt>
      <trkpt lat="42.50356" lon="23.02435">
        <ele>708.838171</ele>
        <time>2022-04-05T08:36:17.223Z</time>
      </trkpt>
      <trkpt lat="42.50348" lon="23.02448">
        <ele>708.683713</ele>
        <time>2022-04-05T08:36:19.219Z</time>
      </trkpt>
      <trkpt lat="42.5034" lon="23.02461">
        <ele>708.52862</ele>
        <time>2022-04-05T08:36:21.236Z</time>
      </trkpt>
      <trkpt lat="42.50332" lon="23.02474">
        <ele>708.369734</ele>
        <time>2022-04-05T08:36:23.236Z</time>
      </trkpt>
      <trkpt lat="42.50324" lon="23.02487">
        <ele>708.208589</ele>
        <time>2022-04-05T08:36:25.221Z</time>
      </trkpt>
      <trkpt lat="42.50317" lon="23.025">
        <ele>708.050506</ele>
        <time>2022-04-05T08:36:27.263Z</time>
      </trkpt>
      <trkpt lat="42.50309" lon="23.02513">
        <ele>707.89162</ele>
        <time>2022-04-05T08:36:29.234Z</time>
      </trkpt>
      <trkpt lat="42.50301" lon="23.02526">
        <ele>707.735798</ele>
        <time>2022-04-05T08:36:31.233Z</time>
      </trkpt>
      <trkpt lat="42.50293" lon="23.02539">
        <ele>707.582964</ele>
        <time>2022-04-05T08:36:33.244Z</time>
      </trkpt>
      <trkpt lat="42.50286" lon="23.02551">
        <ele>707.431662</ele>
        <time>2022-04-05T08:36:35.242Z</time>
      </trkpt>
      <trkpt lat="42.50279" lon="23.02563">
        <ele>707.288672</ele>
        <time>2022-04-05T08:36:37.217Z</time>
      </trkpt>
      <trkpt lat="42.50272" lon="23.02575">
        <ele>707.145596</ele>
        <time>2022-04-05T08:36:39.263Z</time>
      </trkpt>
      <trkpt lat="42.50265" lon="23.02586">
        <ele>707.007198</ele>
        <time>2022-04-05T08:36:41.232Z</time>
      </trkpt>
      <trkpt lat="42.50258" lon="23.02598">
        <ele>707.020136</ele>
        <time>2022-04-05T08:36:43.236Z</time>
      </trkpt>
      <trkpt lat="42.50251" lon="23.02609">
        <ele>707.04654</ele>
        <time>2022-04-05T08:36:45.272Z</time>
      </trkpt>
      <trkpt lat="42.50244" lon="23.0262">
        <ele>707.072321</ele>
        <time>2022-04-05T08:36:47.226Z</time>
      </trkpt>
      <trkpt lat="42.50238" lon="23.0263">
        <ele>707.098087</ele>
        <time>2022-04-05T08:36:49.233Z</time>
      </trkpt>
      <trkpt lat="42.50232" lon="23.02641">
        <ele>707.122967</ele>
        <time>2022-04-05T08:36:51.244Z</time>
      </trkpt>
      <trkpt lat="42.50225" lon="23.02651">
        <ele>707.147105</ele>
        <time>2022-04-05T08:36:53.218Z</time>
      </trkpt>
      <trkpt lat="42.50219" lon="23.02661">
        <ele>707.171231</ele>
        <time>2022-04-05T08:36:55.238Z</time>
      </trkpt>
      <trkpt lat="42.50214" lon="23.02671">
        <ele>707.194029</ele>
        <time>2022-04-05T08:36:57.238Z</time>
      </trkpt>
      <trkpt lat="42.50208" lon="23.02681">
        <ele>707.218011</ele>
        <time>2022-04-05T08:36:59.229Z</time>
      </trkpt>
      <trkpt lat="42.50202" lon="23.02691">
        <ele>707.24155</ele>
        <time>2022-04-05T08:37:01.225Z</time>
      </trkpt>
      <trkpt lat="42.50196" lon="23.02701">
        <ele>707.265404</ele>
        <time>2022-04-05T08:37:03.238Z</time>
      </trkpt>
      <trkpt lat="42.5019" lon="23.02711">
        <ele>707.288635</ele>
        <time>2022-04-05T08:37:05.254Z</time>
      </trkpt>
      <trkpt lat="42.50184" lon="23.02721">
        <ele>707.311766</ele>
        <time>2022-04-05T08:37:07.266Z</time>
      </trkpt>
      <trkpt lat="42.50178" lon="23.02731">
        <ele>707.335319</ele>
        <time>2022-04-05T08:37:09.220Z</time>
      </trkpt>
      <trkpt lat="42.50172" lon="23.0274">
        <ele>707.358131</ele>
        <time>2022-04-05T08:37:11.240Z</time>
      </trkpt>
      <trkpt lat="42.50166" lon="23.02751">
        <ele>707.382103</ele>
        <time>2022-04-05T08:37:13.224Z</time>
      </trkpt>
      <trkpt lat="42.5016" lon="23.02761">
        <ele>707.406528</ele>
        <time>2022-04-05T08:37:15.226Z</time>
      </trkpt>
      <trkpt lat="42.50154" lon="23.02773">
        <ele>707.432712</ele>
        <time>2022-04-05T08:37:17.225Z</time>
      </trkpt>
      <trkpt lat="42.50148" lon="23.02783">
        <ele>707.470647</ele>
        <time>2022-04-05T08:37:19.229Z</time>
      </trkpt>
      <trkpt lat="42.50141" lon="23.02794">
        <ele>707.518523</ele>
        <time>2022-04-05T08:37:21.223Z</time>
      </trkpt>
      <trkpt lat="42.50135" lon="23.02805">
        <ele>707.563393</ele>
        <time>2022-04-05T08:37:23.223Z</time>
      </trkpt>
      <trkpt lat="42.50129" lon="23.02815">
        <ele>707.610451</ele>
        <time>2022-04-05T08:37:25.252Z</time>
      </trkpt>
      <trkpt lat="42.50122" lon="23.02826">
        <ele>707.658909</ele>
        <time>2022-04-05T08:37:27.227Z</time>
      </trkpt>
      <trkpt lat="42.50115" lon="23.02837">
        <ele>707.705473</ele>
        <time>2022-04-05T08:37:29.275Z</time>
      </trkpt>
      <trkpt lat="42.50109" lon="23.02848">
        <ele>707.753932</ele>
        <time>2022-04-05T08:37:31.237Z</time>
      </trkpt>
      <trkpt lat="42.50102" lon="23.02859">
        <ele>707.801789</ele>
        <time>2022-04-05T08:37:33.234Z</time>
      </trkpt>
      <trkpt lat="42.50096" lon="23.0287">
        <ele>707.849955</ele>
        <time>2022-04-05T08:37:35.229Z</time>
      </trkpt>
      <trkpt lat="42.50089" lon="23.02881">
        <ele>707.899468</ele>
        <time>2022-04-05T08:37:37.256Z</time>
      </trkpt>
      <trkpt lat="42.50083" lon="23.02892">
        <ele>707.944338</ele>
        <time>2022-04-05T08:37:39.230Z</time>
      </trkpt>
      <trkpt lat="42.50077" lon="23.02902">
        <ele>707.988453</ele>
        <time>2022-04-05T08:37:41.226Z</time>
      </trkpt>
      <trkpt lat="42.50071" lon="23.02911">
        <ele>708.030295</ele>
        <time>2022-04-05T08:37:43.229Z</time>
      </trkpt>
      <trkpt lat="42.50065" lon="23.02921">
        <ele>708.073003</ele>
        <time>2022-04-05T08:37:45.232Z</time>
      </trkpt>
      <trkpt lat="42.50059" lon="23.02932">
        <ele>708.11869</ele>
        <time>2022-04-05T08:37:47.223Z</time>
      </trkpt>
      <trkpt lat="42.50053" lon="23.02942">
        <ele>708.164667</ele>
        <time>2022-04-05T08:37:49.233Z</time>
      </trkpt>
      <trkpt lat="42.50047" lon="23.02952">
        <ele>708.207967</ele>
        <time>2022-04-05T08:37:51.273Z</time>
      </trkpt>
      <trkpt lat="42.50039" lon="23.02966">
        <ele>708.268393</ele>
        <time>2022-04-05T08:37:54.228Z</time>
      </trkpt>
      <trkpt lat="42.5003" lon="23.02979">
        <ele>708.560881</ele>
        <time>2022-04-05T08:37:57.263Z</time>
      </trkpt>
      <trkpt lat="42.50022" lon="23.02993">
        <ele>708.876743</ele>
        <time>2022-04-05T08:38:00.226Z</time>
      </trkpt>
      <trkpt lat="42.50014" lon="23.03007">
        <ele>709.177029</ele>
        <time>2022-04-05T08:38:03.223Z</time>
      </trkpt>
      <trkpt lat="42.50007" lon="23.03019">
        <ele>709.457948</ele>
        <time>2022-04-05T08:38:06.226Z</time>
      </trkpt>
      <trkpt lat="42.5" lon="23.0303">
        <ele>709.703321</ele>
        <time>2022-04-05T08:38:09.220Z</time>
      </trkpt>
      <trkpt lat="42.49994" lon="23.0304">
        <ele>709.947349</ele>
        <time>2022-04-05T08:38:12.219Z</time>
      </trkpt>
      <trkpt lat="42.49987" lon="23.03051">
        <ele>710.191376</ele>
        <time>2022-04-05T08:38:15.224Z</time>
      </trkpt>
      <trkpt lat="42.49981" lon="23.0306">
        <ele>710.406967</ele>
        <time>2022-04-05T08:38:18.222Z</time>
      </trkpt>
      <trkpt lat="42.49975" lon="23.0307">
        <ele>710.635248</ele>
        <time>2022-04-05T08:38:21.239Z</time>
      </trkpt>
      <trkpt lat="42.49969" lon="23.0308">
        <ele>710.860654</ele>
        <time>2022-04-05T08:38:24.232Z</time>
      </trkpt>
      <trkpt lat="42.49963" lon="23.0309">
        <ele>711.079337</ele>
        <time>2022-04-05T08:38:27.236Z</time>
      </trkpt>
      <trkpt lat="42.49957" lon="23.03099">
        <ele>711.297507</ele>
        <time>2022-04-05T08:38:30.212Z</time>
      </trkpt>
      <trkpt lat="42.4995" lon="23.03111">
        <ele>711.568638</ele>
        <time>2022-04-05T08:38:34.213Z</time>
      </trkpt>
      <trkpt lat="42.49944" lon="23.03121">
        <ele>711.788655</ele>
        <time>2022-04-05T08:38:37.287Z</time>
      </trkpt>
      <trkpt lat="42.49938" lon="23.0313">
        <ele>712.008319</ele>
        <time>2022-04-05T08:38:40.235Z</time>
      </trkpt>
      <trkpt lat="42.49931" lon="23.03142">
        <ele>712.287899</ele>
        <time>2022-04-05T08:38:44.219Z</time>
      </trkpt>
      <trkpt lat="42.49924" lon="23.03154">
        <ele>712.552797</ele>
        <time>2022-04-05T08:38:48.234Z</time>
      </trkpt>
      <trkpt lat="42.49918" lon="23.03164">
        <ele>712.697783</ele>
        <time>2022-04-05T08:38:51.275Z</time>
      </trkpt>
      <trkpt lat="42.4991" lon="23.03176">
        <ele>712.880456</ele>
        <time>2022-04-05T08:38:55.234Z</time>
      </trkpt>
      <trkpt lat="42.49904" lon="23.03188">
        <ele>713.050057</ele>
        <time>2022-04-05T08:38:59.229Z</time>
      </trkpt>
      <trkpt lat="42.49898" lon="23.03198">
        <ele>713.188681</ele>
        <time>2022-04-05T08:39:02.226Z</time>
      </trkpt>
      <trkpt lat="42.49893" lon="23.03208">
        <ele>713.334573</ele>
        <time>2022-04-05T08:39:05.232Z</time>
      </trkpt>
      <trkpt lat="42.49887" lon="23.03218">
        <ele>713.474098</ele>
        <time>2022-04-05T08:39:08.220Z</time>
      </trkpt>
      <trkpt lat="42.4988" lon="23.03229">
        <ele>713.640734</ele>
        <time>2022-04-05T08:39:12.209Z</time>
      </trkpt>
      <trkpt lat="42.49874" lon="23.0324">
        <ele>713.799396</ele>
        <time>2022-04-05T08:39:16.217Z</time>
      </trkpt>
      <trkpt lat="42.49866" lon="23.03252">
        <ele>713.977611</ele>
        <time>2022-04-05T08:39:20.222Z</time>
      </trkpt>
      <trkpt lat="42.49861" lon="23.03262">
        <ele>714.118072</ele>
        <time>2022-04-05T08:39:23.219Z</time>
      </trkpt>
      <trkpt lat="42.49855" lon="23.03272">
        <ele>714.26151</ele>
        <time>2022-04-05T08:39:26.300Z</time>
      </trkpt>
      <trkpt lat="42.49847" lon="23.03284">
        <ele>714.441459</ele>
        <time>2022-04-05T08:39:30.235Z</time>
      </trkpt>
      <trkpt lat="42.49841" lon="23.03294">
        <ele>714.584341</ele>
        <time>2022-04-05T08:39:33.236Z</time>
      </trkpt>
      <trkpt lat="42.49834" lon="23.03305">
        <ele>714.753282</ele>
        <time>2022-04-05T08:39:37.265Z</time>
      </trkpt>
      <trkpt lat="42.49827" lon="23.03317">
        <ele>714.924076</ele>
        <time>2022-04-05T08:39:41.216Z</time>
      </trkpt>
      <trkpt lat="42.49819" lon="23.03328">
        <ele>715.098708</ele>
        <time>2022-04-05T08:39:45.235Z</time>
      </trkpt>
      <trkpt lat="42.49814" lon="23.03338">
        <ele>715.238439</ele>
        <time>2022-04-05T08:39:48.265Z</time>
      </trkpt>
      <trkpt lat="42.49808" lon="23.03348">
        <ele>715.275565</ele>
        <time>2022-04-05T08:39:51.229Z</time>
      </trkpt>
      <trkpt lat="42.49802" lon="23.03357">
        <ele>715.152026</ele>
        <time>2022-04-05T08:39:54.214Z</time>
      </trkpt>
      <trkpt lat="42.49795" lon="23.03367">
        <ele>715.023533</ele>
        <time>2022-04-05T08:39:57.237Z</time>
      </trkpt>
      <trkpt lat="42.49789" lon="23.03378">
        <ele>714.88146</ele>
        <time>2022-04-05T08:40:00.260Z</time>
      </trkpt>
      <trkpt lat="42.49782" lon="23.03389">
        <ele>714.737189</ele>
        <time>2022-04-05T08:40:03.232Z</time>
      </trkpt>
      <trkpt lat="42.49775" lon="23.03399">
        <ele>714.597327</ele>
        <time>2022-04-05T08:40:06.245Z</time>
      </trkpt>
      <trkpt lat="42.49768" lon="23.03409">
        <ele>714.463149</ele>
        <time>2022-04-05T08:40:09.228Z</time>
      </trkpt>
      <trkpt lat="42.49761" lon="23.03418">
        <ele>714.331334</ele>
        <time>2022-04-05T08:40:12.245Z</time>
      </trkpt>
      <trkpt lat="42.49753" lon="23.03428">
        <ele>714.191024</ele>
        <time>2022-04-05T08:40:15.266Z</time>
      </trkpt>
      <trkpt lat="42.49746" lon="23.03438">
        <ele>714.045878</ele>
        <time>2022-04-05T08:40:18.229Z</time>
      </trkpt>
      <trkpt lat="42.49737" lon="23.03449">
        <ele>713.886367</ele>
        <time>2022-04-05T08:40:21.215Z</time>
      </trkpt>
      <trkpt lat="42.49728" lon="23.03461">
        <ele>713.711113</ele>
        <time>2022-04-05T08:40:24.226Z</time>
      </trkpt>
      <trkpt lat="42.49721" lon="23.0347">
        <ele>713.584986</ele>
        <time>2022-04-05T08:40:26.222Z</time>
      </trkpt>
      <trkpt lat="42.49715" lon="23.03479">
        <ele>713.455099</ele>
        <time>2022-04-05T08:40:28.237Z</time>
      </trkpt>
      <trkpt lat="42.49708" lon="23.03488">
        <ele>713.326613</ele>
        <time>2022-04-05T08:40:30.212Z</time>
      </trkpt>
      <trkpt lat="42.497" lon="23.03498">
        <ele>713.188822</ele>
        <time>2022-04-05T08:40:32.237Z</time>
      </trkpt>
      <trkpt lat="42.49693" lon="23.03508">
        <ele>713.052541</ele>
        <time>2022-04-05T08:40:34.229Z</time>
      </trkpt>
      <trkpt lat="42.49686" lon="23.03518">
        <ele>712.908202</ele>
        <time>2022-04-05T08:40:36.265Z</time>
      </trkpt>
      <trkpt lat="42.49678" lon="23.03528">
        <ele>712.639051</ele>
        <time>2022-04-05T08:40:38.241Z</time>
      </trkpt>
      <trkpt lat="42.4967" lon="23.03539">
        <ele>712.350209</ele>
        <time>2022-04-05T08:40:40.230Z</time>
      </trkpt>
      <trkpt lat="42.49663" lon="23.0355">
        <ele>712.059075</ele>
        <time>2022-04-05T08:40:42.241Z</time>
      </trkpt>
      <trkpt lat="42.49654" lon="23.03561">
        <ele>711.745833</ele>
        <time>2022-04-05T08:40:44.268Z</time>
      </trkpt>
      <trkpt lat="42.49645" lon="23.03573">
        <ele>711.422751</ele>
        <time>2022-04-05T08:40:46.237Z</time>
      </trkpt>
      <trkpt lat="42.49636" lon="23.03585">
        <ele>711.085084</ele>
        <time>2022-04-05T08:40:48.217Z</time>
      </trkpt>
      <trkpt lat="42.49627" lon="23.03598">
        <ele>710.73313</ele>
        <time>2022-04-05T08:40:50.228Z</time>
      </trkpt>
      <trkpt lat="42.49617" lon="23.03611">
        <ele>710.357694</ele>
        <time>2022-04-05T08:40:52.226Z</time>
      </trkpt>
      <trkpt lat="42.49606" lon="23.03626">
        <ele>709.950455</ele>
        <time>2022-04-05T08:40:54.223Z</time>
      </trkpt>
      <trkpt lat="42.49595" lon="23.0364">
        <ele>709.562099</ele>
        <time>2022-04-05T08:40:56.231Z</time>
      </trkpt>
      <trkpt lat="42.49585" lon="23.03654">
        <ele>709.176973</ele>
        <time>2022-04-05T08:40:58.225Z</time>
      </trkpt>
      <trkpt lat="42.49575" lon="23.03668">
        <ele>708.800163</ele>
        <time>2022-04-05T08:41:00.238Z</time>
      </trkpt>
      <trkpt lat="42.49565" lon="23.03681">
        <ele>708.436637</ele>
        <time>2022-04-05T08:41:02.221Z</time>
      </trkpt>
      <trkpt lat="42.49555" lon="23.03694">
        <ele>708.142091</ele>
        <time>2022-04-05T08:41:04.240Z</time>
      </trkpt>
      <trkpt lat="42.49546" lon="23.03707">
        <ele>708.042842</ele>
        <time>2022-04-05T08:41:06.246Z</time>
      </trkpt>
      <trkpt lat="42.49537" lon="23.03719">
        <ele>707.947956</ele>
        <time>2022-04-05T08:41:08.222Z</time>
      </trkpt>
      <trkpt lat="42.49528" lon="23.03731">
        <ele>707.853853</ele>
        <time>2022-04-05T08:41:10.225Z</time>
      </trkpt>
      <trkpt lat="42.4952" lon="23.03741">
        <ele>707.775376</ele>
        <time>2022-04-05T08:41:12.235Z</time>
      </trkpt>
      <trkpt lat="42.49513" lon="23.03751">
        <ele>707.697284</ele>
        <time>2022-04-05T08:41:14.226Z</time>
      </trkpt>
      <trkpt lat="42.49505" lon="23.03761">
        <ele>707.617641</ele>
        <time>2022-04-05T08:41:16.213Z</time>
      </trkpt>
      <trkpt lat="42.49498" lon="23.03771">
        <ele>707.536545</ele>
        <time>2022-04-05T08:41:18.233Z</time>
      </trkpt>
      <trkpt lat="42.4949" lon="23.03781">
        <ele>707.456371</ele>
        <time>2022-04-05T08:41:20.241Z</time>
      </trkpt>
      <trkpt lat="42.49483" lon="23.03791">
        <ele>707.376971</ele>
        <time>2022-04-05T08:41:22.250Z</time>
      </trkpt>
      <trkpt lat="42.49475" lon="23.03802">
        <ele>707.295458</ele>
        <time>2022-04-05T08:41:24.242Z</time>
      </trkpt>
      <trkpt lat="42.49468" lon="23.03812">
        <ele>707.215948</ele>
        <time>2022-04-05T08:41:26.223Z</time>
      </trkpt>
      <trkpt lat="42.49461" lon="23.03823">
        <ele>707.138275</ele>
        <time>2022-04-05T08:41:28.221Z</time>
      </trkpt>
      <trkpt lat="42.49454" lon="23.03832">
        <ele>707.062957</ele>
        <time>2022-04-05T08:41:30.223Z</time>
      </trkpt>
      <trkpt lat="42.49447" lon="23.03842">
        <ele>706.986995</ele>
        <time>2022-04-05T08:41:32.240Z</time>
      </trkpt>
      <trkpt lat="42.4944" lon="23.03852">
        <ele>706.911558</ele>
        <time>2022-04-05T08:41:34.229Z</time>
      </trkpt>
      <trkpt lat="42.49432" lon="23.03862">
        <ele>706.832442</ele>
        <time>2022-04-05T08:41:36.228Z</time>
      </trkpt>
      <trkpt lat="42.49425" lon="23.03873">
        <ele>706.713359</ele>
        <time>2022-04-05T08:41:38.235Z</time>
      </trkpt>
      <trkpt lat="42.49418" lon="23.03883">
        <ele>706.591734</ele>
        <time>2022-04-05T08:41:40.222Z</time>
      </trkpt>
      <trkpt lat="42.4941" lon="23.03893">
        <ele>706.462928</ele>
        <time>2022-04-05T08:41:42.234Z</time>
      </trkpt>
      <trkpt lat="42.49403" lon="23.03905">
        <ele>706.328303</ele>
        <time>2022-04-05T08:41:44.223Z</time>
      </trkpt>
      <trkpt lat="42.49395" lon="23.03915">
        <ele>706.19832</ele>
        <time>2022-04-05T08:41:46.234Z</time>
      </trkpt>
      <trkpt lat="42.49388" lon="23.03926">
        <ele>706.067891</ele>
        <time>2022-04-05T08:41:48.223Z</time>
      </trkpt>
      <trkpt lat="42.4938" lon="23.03937">
        <ele>705.934075</ele>
        <time>2022-04-05T08:41:50.277Z</time>
      </trkpt>
      <trkpt lat="42.49372" lon="23.03949">
        <ele>705.794603</ele>
        <time>2022-04-05T08:41:52.240Z</time>
      </trkpt>
      <trkpt lat="42.49364" lon="23.03961">
        <ele>705.656072</ele>
        <time>2022-04-05T08:41:54.227Z</time>
      </trkpt>
      <trkpt lat="42.49356" lon="23.03972">
        <ele>705.516434</ele>
        <time>2022-04-05T08:41:56.243Z</time>
      </trkpt>
      <trkpt lat="42.49348" lon="23.03984">
        <ele>705.37566</ele>
        <time>2022-04-05T08:41:58.228Z</time>
      </trkpt>
      <trkpt lat="42.49341" lon="23.03996">
        <ele>705.236336</ele>
        <time>2022-04-05T08:42:00.217Z</time>
      </trkpt>
      <trkpt lat="42.49333" lon="23.04007">
        <ele>705.100418</ele>
        <time>2022-04-05T08:42:02.248Z</time>
      </trkpt>
      <trkpt lat="42.49325" lon="23.04019">
        <ele>704.963335</ele>
        <time>2022-04-05T08:42:04.233Z</time>
      </trkpt>
      <trkpt lat="42.49318" lon="23.04031">
        <ele>704.82691</ele>
        <time>2022-04-05T08:42:06.219Z</time>
      </trkpt>
      <trkpt lat="42.4931" lon="23.04042">
        <ele>704.689538</ele>
        <time>2022-04-05T08:42:08.228Z</time>
      </trkpt>
      <trkpt lat="42.49302" lon="23.04054">
        <ele>704.656227</ele>
        <time>2022-04-05T08:42:10.218Z</time>
      </trkpt>
      <trkpt lat="42.49294" lon="23.04066">
        <ele>704.636404</ele>
        <time>2022-04-05T08:42:12.240Z</time>
      </trkpt>
      <trkpt lat="42.49286" lon="23.04079">
        <ele>704.616069</ele>
        <time>2022-04-05T08:42:14.231Z</time>
      </trkpt>
      <trkpt lat="42.49278" lon="23.04091">
        <ele>704.596005</ele>
        <time>2022-04-05T08:42:16.215Z</time>
      </trkpt>
      <trkpt lat="42.4927" lon="23.04103">
        <ele>704.576364</ele>
        <time>2022-04-05T08:42:18.210Z</time>
      </trkpt>
      <trkpt lat="42.49261" lon="23.04115">
        <ele>704.556029</ele>
        <time>2022-04-05T08:42:20.233Z</time>
      </trkpt>
      <trkpt lat="42.49253" lon="23.04127">
        <ele>704.536459</ele>
        <time>2022-04-05T08:42:22.254Z</time>
      </trkpt>
      <trkpt lat="42.49245" lon="23.04139">
        <ele>704.516103</ele>
        <time>2022-04-05T08:42:24.235Z</time>
      </trkpt>
      <trkpt lat="42.49237" lon="23.04152">
        <ele>704.495694</ele>
        <time>2022-04-05T08:42:26.217Z</time>
      </trkpt>
      <trkpt lat="42.49229" lon="23.04163">
        <ele>704.476366</ele>
        <time>2022-04-05T08:42:28.228Z</time>
      </trkpt>
      <trkpt lat="42.49222" lon="23.04174">
        <ele>704.458132</ele>
        <time>2022-04-05T08:42:30.282Z</time>
      </trkpt>
      <trkpt lat="42.49214" lon="23.04185">
        <ele>704.44002</ele>
        <time>2022-04-05T08:42:32.226Z</time>
      </trkpt>
      <trkpt lat="42.49207" lon="23.04197">
        <ele>704.421074</ele>
        <time>2022-04-05T08:42:34.230Z</time>
      </trkpt>
      <trkpt lat="42.49199" lon="23.04208">
        <ele>704.402933</ele>
        <time>2022-04-05T08:42:36.240Z</time>
      </trkpt>
      <trkpt lat="42.49193" lon="23.04218">
        <ele>704.387261</ele>
        <time>2022-04-05T08:42:38.218Z</time>
      </trkpt>
      <trkpt lat="42.49186" lon="23.04229">
        <ele>704.446882</ele>
        <time>2022-04-05T08:42:40.233Z</time>
      </trkpt>
      <trkpt lat="42.49178" lon="23.0424">
        <ele>704.654989</ele>
        <time>2022-04-05T08:42:42.244Z</time>
      </trkpt>
      <trkpt lat="42.49171" lon="23.0425">
        <ele>704.833962</ele>
        <time>2022-04-05T08:42:44.226Z</time>
      </trkpt>
      <trkpt lat="42.49165" lon="23.04259">
        <ele>705.005596</ele>
        <time>2022-04-05T08:42:46.257Z</time>
      </trkpt>
      <trkpt lat="42.49156" lon="23.04272">
        <ele>705.2355</ele>
        <time>2022-04-05T08:42:49.210Z</time>
      </trkpt>
      <trkpt lat="42.49148" lon="23.04285">
        <ele>705.465154</ele>
        <time>2022-04-05T08:42:52.225Z</time>
      </trkpt>
      <trkpt lat="42.49139" lon="23.04297">
        <ele>705.687986</ele>
        <time>2022-04-05T08:42:55.238Z</time>
      </trkpt>
      <trkpt lat="42.49131" lon="23.0431">
        <ele>705.915437</ele>
        <time>2022-04-05T08:42:58.228Z</time>
      </trkpt>
      <trkpt lat="42.49123" lon="23.04322">
        <ele>706.131135</ele>
        <time>2022-04-05T08:43:01.238Z</time>
      </trkpt>
      <trkpt lat="42.49115" lon="23.04334">
        <ele>706.351583</ele>
        <time>2022-04-05T08:43:04.228Z</time>
      </trkpt>
      <trkpt lat="42.49107" lon="23.04346">
        <ele>706.564848</ele>
        <time>2022-04-05T08:43:07.226Z</time>
      </trkpt>
      <trkpt lat="42.49099" lon="23.04358">
        <ele>706.775914</ele>
        <time>2022-04-05T08:43:10.217Z</time>
      </trkpt>
      <trkpt lat="42.49091" lon="23.04371">
        <ele>706.999137</ele>
        <time>2022-04-05T08:43:13.241Z</time>
      </trkpt>
      <trkpt lat="42.49084" lon="23.04383">
        <ele>707.208396</ele>
        <time>2022-04-05T08:43:16.229Z</time>
      </trkpt>
      <trkpt lat="42.49076" lon="23.04395">
        <ele>707.426299</ele>
        <time>2022-04-05T08:43:19.240Z</time>
      </trkpt>
      <trkpt lat="42.49068" lon="23.04407">
        <ele>707.640986</ele>
        <time>2022-04-05T08:43:22.214Z</time>
      </trkpt>
      <trkpt lat="42.4906" lon="23.04419">
        <ele>707.7992</ele>
        <time>2022-04-05T08:43:25.264Z</time>
      </trkpt>
      <trkpt lat="42.49053" lon="23.0443">
        <ele>707.962588</ele>
        <time>2022-04-05T08:43:28.281Z</time>
      </trkpt>
      <trkpt lat="42.49044" lon="23.04444">
        <ele>708.156426</ele>
        <time>2022-04-05T08:43:31.232Z</time>
      </trkpt>
      <trkpt lat="42.49036" lon="23.04456">
        <ele>708.317303</ele>
        <time>2022-04-05T08:43:34.228Z</time>
      </trkpt>
      <trkpt lat="42.49029" lon="23.04467">
        <ele>708.475668</ele>
        <time>2022-04-05T08:43:37.225Z</time>
      </trkpt>
      <trkpt lat="42.49021" lon="23.04478">
        <ele>708.634677</ele>
        <time>2022-04-05T08:43:40.229Z</time>
      </trkpt>
      <trkpt lat="42.49013" lon="23.0449">
        <ele>708.809278</ele>
        <time>2022-04-05T08:43:43.231Z</time>
      </trkpt>
      <trkpt lat="42.49005" lon="23.04502">
        <ele>708.975179</ele>
        <time>2022-04-05T08:43:46.235Z</time>
      </trkpt>
      <trkpt lat="42.48997" lon="23.04514">
        <ele>709.143593</ele>
        <time>2022-04-05T08:43:49.222Z</time>
      </trkpt>
      <trkpt lat="42.4899" lon="23.04526">
        <ele>709.307144</ele>
        <time>2022-04-05T08:43:52.232Z</time>
      </trkpt>
      <trkpt lat="42.48982" lon="23.04537">
        <ele>709.464135</ele>
        <time>2022-04-05T08:43:55.238Z</time>
      </trkpt>
      <trkpt lat="42.48974" lon="23.04548">
        <ele>709.626575</ele>
        <time>2022-04-05T08:43:58.222Z</time>
      </trkpt>
      <trkpt lat="42.48967" lon="23.04558">
        <ele>709.773784</ele>
        <time>2022-04-05T08:44:01.243Z</time>
      </trkpt>
      <trkpt lat="42.48961" lon="23.04567">
        <ele>709.904213</ele>
        <time>2022-04-05T08:44:04.236Z</time>
      </trkpt>
      <trkpt lat="42.48954" lon="23.04577">
        <ele>710.044556</ele>
        <time>2022-04-05T08:44:07.267Z</time>
      </trkpt>
      <trkpt lat="42.48947" lon="23.04588">
        <ele>710.188679</ele>
        <time>2022-04-05T08:44:10.232Z</time>
      </trkpt>
      <trkpt lat="42.4894" lon="23.04598">
        <ele>710.288445</ele>
        <time>2022-04-05T08:44:13.249Z</time>
      </trkpt>
      <trkpt lat="42.48934" lon="23.04608">
        <ele>710.38224</ele>
        <time>2022-04-05T08:44:16.227Z</time>
      </trkpt>
      <trkpt lat="42.48927" lon="23.04618">
        <ele>710.478492</ele>
        <time>2022-04-05T08:44:19.245Z</time>
      </trkpt>
      <trkpt lat="42.4892" lon="23.04628">
        <ele>710.578404</ele>
        <time>2022-04-05T08:44:22.235Z</time>
      </trkpt>
      <trkpt lat="42.48913" lon="23.04639">
        <ele>710.6809</ele>
        <time>2022-04-05T08:44:25.235Z</time>
      </trkpt>
      <trkpt lat="42.48906" lon="23.04649">
        <ele>710.777557</ele>
        <time>2022-04-05T08:44:28.224Z</time>
      </trkpt>
      <trkpt lat="42.489" lon="23.0466">
        <ele>710.874404</ele>
        <time>2022-04-05T08:44:31.226Z</time>
      </trkpt>
      <trkpt lat="42.48893" lon="23.04671">
        <ele>710.975972</ele>
        <time>2022-04-05T08:44:34.242Z</time>
      </trkpt>
      <trkpt lat="42.48886" lon="23.04682">
        <ele>711.080577</ele>
        <time>2022-04-05T08:44:37.239Z</time>
      </trkpt>
      <trkpt lat="42.48879" lon="23.04693">
        <ele>711.184018</ele>
        <time>2022-04-05T08:44:40.218Z</time>
      </trkpt>
      <trkpt lat="42.48872" lon="23.04705">
        <ele>711.290146</ele>
        <time>2022-04-05T08:44:43.236Z</time>
      </trkpt>
      <trkpt lat="42.48864" lon="23.04715">
        <ele>711.392919</ele>
        <time>2022-04-05T08:44:46.240Z</time>
      </trkpt>
      <trkpt lat="42.48856" lon="23.04726">
        <ele>711.502241</ele>
        <time>2022-04-05T08:44:49.238Z</time>
      </trkpt>
      <trkpt lat="42.48849" lon="23.04738">
        <ele>711.612039</ele>
        <time>2022-04-05T08:44:52.237Z</time>
      </trkpt>
      <trkpt lat="42.48841" lon="23.04749">
        <ele>711.72039</ele>
        <time>2022-04-05T08:44:55.230Z</time>
      </trkpt>
      <trkpt lat="42.48833" lon="23.04761">
        <ele>711.829661</ele>
        <time>2022-04-05T08:44:58.254Z</time>
      </trkpt>
      <trkpt lat="42.48826" lon="23.04771">
        <ele>711.873673</ele>
        <time>2022-04-05T08:45:01.272Z</time>
      </trkpt>
      <trkpt lat="42.48819" lon="23.04782">
        <ele>711.734642</ele>
        <time>2022-04-05T08:45:04.228Z</time>
      </trkpt>
      <trkpt lat="42.48813" lon="23.04794">
        <ele>711.586574</ele>
        <time>2022-04-05T08:45:07.235Z</time>
      </trkpt>
      <trkpt lat="42.48804" lon="23.04807">
        <ele>711.422336</ele>
        <time>2022-04-05T08:45:10.223Z</time>
      </trkpt>
      <trkpt lat="42.48798" lon="23.04816">
        <ele>711.293561</ele>
        <time>2022-04-05T08:45:12.241Z</time>
      </trkpt>
      <trkpt lat="42.48792" lon="23.04826">
        <ele>711.168592</ele>
        <time>2022-04-05T08:45:14.220Z</time>
      </trkpt>
      <trkpt lat="42.48786" lon="23.04835">
        <ele>711.046117</ele>
        <time>2022-04-05T08:45:16.237Z</time>
      </trkpt>
      <trkpt lat="42.4878" lon="23.04845">
        <ele>710.926234</ele>
        <time>2022-04-05T08:45:18.223Z</time>
      </trkpt>
      <trkpt lat="42.48774" lon="23.04854">
        <ele>710.799803</ele>
        <time>2022-04-05T08:45:20.259Z</time>
      </trkpt>
      <trkpt lat="42.48767" lon="23.04864">
        <ele>710.676592</ele>
        <time>2022-04-05T08:45:22.223Z</time>
      </trkpt>
      <trkpt lat="42.48761" lon="23.04874">
        <ele>710.544595</ele>
        <time>2022-04-05T08:45:24.238Z</time>
      </trkpt>
      <trkpt lat="42.48754" lon="23.04884">
        <ele>710.409926</ele>
        <time>2022-04-05T08:45:26.267Z</time>
      </trkpt>
      <trkpt lat="42.48747" lon="23.04894">
        <ele>710.277045</ele>
        <time>2022-04-05T08:45:28.227Z</time>
      </trkpt>
      <trkpt lat="42.48741" lon="23.04904">
        <ele>710.145923</ele>
        <time>2022-04-05T08:45:30.234Z</time>
      </trkpt>
      <trkpt lat="42.48734" lon="23.04915">
        <ele>710.008623</ele>
        <time>2022-04-05T08:45:32.219Z</time>
      </trkpt>
      <trkpt lat="42.48727" lon="23.04926">
        <ele>709.869444</ele>
        <time>2022-04-05T08:45:34.242Z</time>
      </trkpt>
      <trkpt lat="42.4872" lon="23.04936">
        <ele>709.732607</ele>
        <time>2022-04-05T08:45:36.229Z</time>
      </trkpt>
      <trkpt lat="42.48714" lon="23.04946">
        <ele>709.598399</ele>
        <time>2022-04-05T08:45:38.218Z</time>
      </trkpt>
      <trkpt lat="42.48707" lon="23.04957">
        <ele>709.559367</ele>
        <time>2022-04-05T08:45:40.236Z</time>
      </trkpt>
      <trkpt lat="42.48699" lon="23.04968">
        <ele>709.648274</ele>
        <time>2022-04-05T08:45:42.230Z</time>
      </trkpt>
      <trkpt lat="42.48693" lon="23.04978">
        <ele>709.73457</ele>
        <time>2022-04-05T08:45:44.223Z</time>
      </trkpt>
      <trkpt lat="42.48686" lon="23.04988">
        <ele>709.82189</ele>
        <time>2022-04-05T08:45:46.235Z</time>
      </trkpt>
      <trkpt lat="42.48679" lon="23.04999">
        <ele>709.907946</ele>
        <time>2022-04-05T08:45:48.228Z</time>
      </trkpt>
      <trkpt lat="42.48672" lon="23.05009">
        <ele>709.996197</ele>
        <time>2022-04-05T08:45:50.221Z</time>
      </trkpt>
      <trkpt lat="42.48665" lon="23.0502">
        <ele>710.085105</ele>
        <time>2022-04-05T08:45:52.228Z</time>
      </trkpt>
      <trkpt lat="42.48658" lon="23.0503">
        <ele>710.172527</ele>
        <time>2022-04-05T08:45:54.222Z</time>
      </trkpt>
      <trkpt lat="42.48651" lon="23.0504">
        <ele>710.253902</ele>
        <time>2022-04-05T08:45:56.223Z</time>
      </trkpt>
      <trkpt lat="42.48645" lon="23.05049">
        <ele>710.333227</ele>
        <time>2022-04-05T08:45:58.220Z</time>
      </trkpt>
      <trkpt lat="42.48639" lon="23.05059">
        <ele>710.412091</ele>
        <time>2022-04-05T08:46:00.220Z</time>
      </trkpt>
      <trkpt lat="42.48632" lon="23.05068">
        <ele>710.489136</ele>
        <time>2022-04-05T08:46:02.218Z</time>
      </trkpt>
      <trkpt lat="42.48624" lon="23.0508">
        <ele>710.593109</ele>
        <time>2022-04-05T08:46:05.227Z</time>
      </trkpt>
      <trkpt lat="42.48616" lon="23.05092">
        <ele>710.693656</ele>
        <time>2022-04-05T08:46:08.228Z</time>
      </trkpt>
      <trkpt lat="42.48608" lon="23.05104">
        <ele>710.791867</ele>
        <time>2022-04-05T08:46:11.223Z</time>
      </trkpt>
      <trkpt lat="42.486" lon="23.05117">
        <ele>710.896763</ele>
        <time>2022-04-05T08:46:14.236Z</time>
      </trkpt>
      <trkpt lat="42.48592" lon="23.0513">
        <ele>711.004398</ele>
        <time>2022-04-05T08:46:17.226Z</time>
      </trkpt>
      <trkpt lat="42.48584" lon="23.05142">
        <ele>711.137824</ele>
        <time>2022-04-05T08:46:20.217Z</time>
      </trkpt>
      <trkpt lat="42.48577" lon="23.05153">
        <ele>711.281464</ele>
        <time>2022-04-05T08:46:23.237Z</time>
      </trkpt>
      <trkpt lat="42.48569" lon="23.05165">
        <ele>711.433795</ele>
        <time>2022-04-05T08:46:26.226Z</time>
      </trkpt>
      <trkpt lat="42.4856" lon="23.05179">
        <ele>711.605364</ele>
        <time>2022-04-05T08:46:29.223Z</time>
      </trkpt>
      <trkpt lat="42.48551" lon="23.05191">
        <ele>711.769777</ele>
        <time>2022-04-05T08:46:32.208Z</time>
      </trkpt>
      <trkpt lat="42.48543" lon="23.05204">
        <ele>711.930512</ele>
        <time>2022-04-05T08:46:35.261Z</time>
      </trkpt>
      <trkpt lat="42.48535" lon="23.05214">
        <ele>712.072977</ele>
        <time>2022-04-05T08:46:38.245Z</time>
      </trkpt>
      <trkpt lat="42.48529" lon="23.05224">
        <ele>712.200654</ele>
        <time>2022-04-05T08:46:41.238Z</time>
      </trkpt>
      <trkpt lat="42.48522" lon="23.05234">
        <ele>712.330251</ele>
        <time>2022-04-05T08:46:44.221Z</time>
      </trkpt>
      <trkpt lat="42.48515" lon="23.05244">
        <ele>712.458271</ele>
        <time>2022-04-05T08:46:47.236Z</time>
      </trkpt>
      <trkpt lat="42.48508" lon="23.05254">
        <ele>712.585806</ele>
        <time>2022-04-05T08:46:50.226Z</time>
      </trkpt>
      <trkpt lat="42.48501" lon="23.05265">
        <ele>712.722913</ele>
        <time>2022-04-05T08:46:53.205Z</time>
      </trkpt>
      <trkpt lat="42.48494" lon="23.05275">
        <ele>712.855667</ele>
        <time>2022-04-05T08:46:56.243Z</time>
      </trkpt>
      <trkpt lat="42.48487" lon="23.05285">
        <ele>712.985264</ele>
        <time>2022-04-05T08:46:59.237Z</time>
      </trkpt>
      <trkpt lat="42.48481" lon="23.05295">
        <ele>713.115802</ele>
        <time>2022-04-05T08:47:02.230Z</time>
      </trkpt>
      <trkpt lat="42.48474" lon="23.05305">
        <ele>713.249062</ele>
        <time>2022-04-05T08:47:05.225Z</time>
      </trkpt>
      <trkpt lat="42.48467" lon="23.05316">
        <ele>713.377526</ele>
        <time>2022-04-05T08:47:08.227Z</time>
      </trkpt>
      <trkpt lat="42.4846" lon="23.05327">
        <ele>713.487365</ele>
        <time>2022-04-05T08:47:11.226Z</time>
      </trkpt>
      <trkpt lat="42.48454" lon="23.05337">
        <ele>713.589684</ele>
        <time>2022-04-05T08:47:14.275Z</time>
      </trkpt>
      <trkpt lat="42.48447" lon="23.05348">
        <ele>713.699422</ele>
        <time>2022-04-05T08:47:17.241Z</time>
      </trkpt>
      <trkpt lat="42.48439" lon="23.05359">
        <ele>713.816783</ele>
        <time>2022-04-05T08:47:20.226Z</time>
      </trkpt>
      <trkpt lat="42.48432" lon="23.0537">
        <ele>713.934839</ele>
        <time>2022-04-05T08:47:23.236Z</time>
      </trkpt>
      <trkpt lat="42.48426" lon="23.05381">
        <ele>714.040703</ele>
        <time>2022-04-05T08:47:26.218Z</time>
      </trkpt>
      <trkpt lat="42.48418" lon="23.05392">
        <ele>714.154939</ele>
        <time>2022-04-05T08:47:29.261Z</time>
      </trkpt>
      <trkpt lat="42.48411" lon="23.05403">
        <ele>714.26432</ele>
        <time>2022-04-05T08:47:32.239Z</time>
      </trkpt>
      <trkpt lat="42.48404" lon="23.05413">
        <ele>714.375997</ele>
        <time>2022-04-05T08:47:35.239Z</time>
      </trkpt>
      <trkpt lat="42.48397" lon="23.05424">
        <ele>714.48864</ele>
        <time>2022-04-05T08:47:38.223Z</time>
      </trkpt>
      <trkpt lat="42.48389" lon="23.05434">
        <ele>714.599034</ele>
        <time>2022-04-05T08:47:41.236Z</time>
      </trkpt>
      <trkpt lat="42.48383" lon="23.05445">
        <ele>714.707602</ele>
        <time>2022-04-05T08:47:44.227Z</time>
      </trkpt>
      <trkpt lat="42.48376" lon="23.05455">
        <ele>714.815708</ele>
        <time>2022-04-05T08:47:47.237Z</time>
      </trkpt>
      <trkpt lat="42.48369" lon="23.05465">
        <ele>714.920255</ele>
        <time>2022-04-05T08:47:50.243Z</time>
      </trkpt>
      <trkpt lat="42.48362" lon="23.05476">
        <ele>715.030788</ele>
        <time>2022-04-05T08:47:53.225Z</time>
      </trkpt>
      <trkpt lat="42.48355" lon="23.05486">
        <ele>715.139469</ele>
        <time>2022-04-05T08:47:56.232Z</time>
      </trkpt>
      <trkpt lat="42.48348" lon="23.05497">
        <ele>715.238736</ele>
        <time>2022-04-05T08:47:59.224Z</time>
      </trkpt>
      <trkpt lat="42.48341" lon="23.05507">
        <ele>715.219741</ele>
        <time>2022-04-05T08:48:02.282Z</time>
      </trkpt>
      <trkpt lat="42.48335" lon="23.05517">
        <ele>715.201339</ele>
        <time>2022-04-05T08:48:05.237Z</time>
      </trkpt>
      <trkpt lat="42.48328" lon="23.05527">
        <ele>715.182548</ele>
        <time>2022-04-05T08:48:08.235Z</time>
      </trkpt>
      <trkpt lat="42.48321" lon="23.05538">
        <ele>715.16345</ele>
        <time>2022-04-05T08:48:11.229Z</time>
      </trkpt>
      <trkpt lat="42.48314" lon="23.05549">
        <ele>715.143117</ele>
        <time>2022-04-05T08:48:14.224Z</time>
      </trkpt>
      <trkpt lat="42.48306" lon="23.05559">
        <ele>715.122987</ele>
        <time>2022-04-05T08:48:17.255Z</time>
      </trkpt>
      <trkpt lat="42.483" lon="23.0557">
        <ele>715.103579</ele>
        <time>2022-04-05T08:48:20.225Z</time>
      </trkpt>
      <trkpt lat="42.48293" lon="23.05581">
        <ele>715.083527</ele>
        <time>2022-04-05T08:48:23.222Z</time>
      </trkpt>
      <trkpt lat="42.48286" lon="23.05591">
        <ele>715.064482</ele>
        <time>2022-04-05T08:48:26.227Z</time>
      </trkpt>
      <trkpt lat="42.48278" lon="23.05602">
        <ele>715.044199</ele>
        <time>2022-04-05T08:48:29.234Z</time>
      </trkpt>
      <trkpt lat="42.48271" lon="23.05613">
        <ele>715.024113</ele>
        <time>2022-04-05T08:48:32.233Z</time>
      </trkpt>
      <trkpt lat="42.48264" lon="23.05625">
        <ele>715.003142</ele>
        <time>2022-04-05T08:48:35.228Z</time>
      </trkpt>
      <trkpt lat="42.48256" lon="23.05637">
        <ele>714.981648</ele>
        <time>2022-04-05T08:48:38.228Z</time>
      </trkpt>
      <trkpt lat="42.48249" lon="23.05648">
        <ele>714.96043</ele>
        <time>2022-04-05T08:48:41.227Z</time>
      </trkpt>
      <trkpt lat="42.48241" lon="23.0566">
        <ele>714.938382</ele>
        <time>2022-04-05T08:48:44.218Z</time>
      </trkpt>
      <trkpt lat="42.48233" lon="23.05673">
        <ele>714.915117</ele>
        <time>2022-04-05T08:48:47.264Z</time>
      </trkpt>
      <trkpt lat="42.48225" lon="23.05687">
        <ele>714.794566</ele>
        <time>2022-04-05T08:48:50.241Z</time>
      </trkpt>
      <trkpt lat="42.48219" lon="23.05696">
        <ele>714.667161</ele>
        <time>2022-04-05T08:48:52.227Z</time>
      </trkpt>
      <trkpt lat="42.48213" lon="23.05705">
        <ele>714.539755</ele>
        <time>2022-04-05T08:48:54.240Z</time>
      </trkpt>
      <trkpt lat="42.48204" lon="23.05718">
        <ele>714.360298</ele>
        <time>2022-04-05T08:48:57.236Z</time>
      </trkpt>
      <trkpt lat="42.48196" lon="23.05732">
        <ele>714.17445</ele>
        <time>2022-04-05T08:49:00.225Z</time>
      </trkpt>
      <trkpt lat="42.48189" lon="23.05742">
        <ele>714.041139</ele>
        <time>2022-04-05T08:49:02.221Z</time>
      </trkpt>
      <trkpt lat="42.48183" lon="23.05751">
        <ele>713.906119</ele>
        <time>2022-04-05T08:49:04.220Z</time>
      </trkpt>
      <trkpt lat="42.48176" lon="23.05761">
        <ele>713.767489</ele>
        <time>2022-04-05T08:49:06.224Z</time>
      </trkpt>
      <trkpt lat="42.4817" lon="23.05771">
        <ele>713.627498</ele>
        <time>2022-04-05T08:49:08.251Z</time>
      </trkpt>
      <trkpt lat="42.48163" lon="23.05781">
        <ele>713.490585</ele>
        <time>2022-04-05T08:49:10.237Z</time>
      </trkpt>
      <trkpt lat="42.48156" lon="23.05791">
        <ele>713.351192</ele>
        <time>2022-04-05T08:49:12.234Z</time>
      </trkpt>
      <trkpt lat="42.4815" lon="23.05801">
        <ele>713.208069</ele>
        <time>2022-04-05T08:49:14.237Z</time>
      </trkpt>
      <trkpt lat="42.48143" lon="23.05812">
        <ele>713.057977</ele>
        <time>2022-04-05T08:49:16.267Z</time>
      </trkpt>
      <trkpt lat="42.48135" lon="23.05823">
        <ele>712.899323</ele>
        <time>2022-04-05T08:49:18.237Z</time>
      </trkpt>
      <trkpt lat="42.48127" lon="23.05835">
        <ele>712.737418</ele>
        <time>2022-04-05T08:49:20.229Z</time>
      </trkpt>
      <trkpt lat="42.48119" lon="23.05847">
        <ele>712.56728</ele>
        <time>2022-04-05T08:49:22.220Z</time>
      </trkpt>
      <trkpt lat="42.48111" lon="23.05859">
        <ele>712.397754</ele>
        <time>2022-04-05T08:49:24.234Z</time>
      </trkpt>
      <trkpt lat="42.48103" lon="23.05871">
        <ele>712.131172</ele>
        <time>2022-04-05T08:49:26.225Z</time>
      </trkpt>
      <trkpt lat="42.48095" lon="23.05884">
        <ele>711.85277</ele>
        <time>2022-04-05T08:49:28.235Z</time>
      </trkpt>
      <trkpt lat="42.48087" lon="23.05895">
        <ele>711.586088</ele>
        <time>2022-04-05T08:49:30.243Z</time>
      </trkpt>
      <trkpt lat="42.48079" lon="23.05907">
        <ele>711.315614</ele>
        <time>2022-04-05T08:49:32.250Z</time>
      </trkpt>
      <trkpt lat="42.48071" lon="23.05919">
        <ele>711.024144</ele>
        <time>2022-04-05T08:49:34.238Z</time>
      </trkpt>
      <trkpt lat="42.48062" lon="23.05932">
        <ele>710.720678</ele>
        <time>2022-04-05T08:49:36.237Z</time>
      </trkpt>
      <trkpt lat="42.48053" lon="23.05945">
        <ele>710.430464</ele>
        <time>2022-04-05T08:49:38.226Z</time>
      </trkpt>
      <trkpt lat="42.48045" lon="23.05957">
        <ele>710.145895</ele>
        <time>2022-04-05T08:49:40.238Z</time>
      </trkpt>
      <trkpt lat="42.48037" lon="23.05969">
        <ele>709.861615</ele>
        <time>2022-04-05T08:49:42.235Z</time>
      </trkpt>
      <trkpt lat="42.48029" lon="23.05982">
        <ele>709.575021</ele>
        <time>2022-04-05T08:49:44.268Z</time>
      </trkpt>
      <trkpt lat="42.4802" lon="23.05994">
        <ele>709.296093</ele>
        <time>2022-04-05T08:49:46.231Z</time>
      </trkpt>
      <trkpt lat="42.48012" lon="23.06007">
        <ele>709.010539</ele>
        <time>2022-04-05T08:49:48.231Z</time>
      </trkpt>
      <trkpt lat="42.48004" lon="23.06019">
        <ele>708.727527</ele>
        <time>2022-04-05T08:49:50.282Z</time>
      </trkpt>
      <trkpt lat="42.47996" lon="23.06031">
        <ele>708.445466</ele>
        <time>2022-04-05T08:49:52.228Z</time>
      </trkpt>
      <trkpt lat="42.47988" lon="23.06043">
        <ele>708.197899</ele>
        <time>2022-04-05T08:49:54.242Z</time>
      </trkpt>
      <trkpt lat="42.4798" lon="23.06055">
        <ele>708.09773</ele>
        <time>2022-04-05T08:49:56.223Z</time>
      </trkpt>
      <trkpt lat="42.47972" lon="23.06066">
        <ele>708.000118</ele>
        <time>2022-04-05T08:49:58.232Z</time>
      </trkpt>
      <trkpt lat="42.47965" lon="23.06078">
        <ele>707.903641</ele>
        <time>2022-04-05T08:50:00.231Z</time>
      </trkpt>
      <trkpt lat="42.47958" lon="23.06089">
        <ele>707.809242</ele>
        <time>2022-04-05T08:50:02.234Z</time>
      </trkpt>
      <trkpt lat="42.4795" lon="23.061">
        <ele>707.712672</ele>
        <time>2022-04-05T08:50:04.220Z</time>
      </trkpt>
      <trkpt lat="42.47943" lon="23.06112">
        <ele>707.618273</ele>
        <time>2022-04-05T08:50:06.238Z</time>
      </trkpt>
      <trkpt lat="42.47936" lon="23.06123">
        <ele>707.52084</ele>
        <time>2022-04-05T08:50:08.216Z</time>
      </trkpt>
      <trkpt lat="42.47928" lon="23.06135">
        <ele>707.424363</ele>
        <time>2022-04-05T08:50:10.254Z</time>
      </trkpt>
      <trkpt lat="42.47921" lon="23.06146">
        <ele>707.330348</ele>
        <time>2022-04-05T08:50:12.221Z</time>
      </trkpt>
      <trkpt lat="42.47914" lon="23.06157">
        <ele>707.235862</ele>
        <time>2022-04-05T08:50:14.229Z</time>
      </trkpt>
      <trkpt lat="42.47907" lon="23.06168">
        <ele>707.144875</ele>
        <time>2022-04-05T08:50:16.237Z</time>
      </trkpt>
      <trkpt lat="42.479" lon="23.06178">
        <ele>707.056444</ele>
        <time>2022-04-05T08:50:18.263Z</time>
      </trkpt>
      <trkpt lat="42.47893" lon="23.06188">
        <ele>706.9744</ele>
        <time>2022-04-05T08:50:20.226Z</time>
      </trkpt>
      <trkpt lat="42.47887" lon="23.06197">
        <ele>706.893063</ele>
        <time>2022-04-05T08:50:22.223Z</time>
      </trkpt>
      <trkpt lat="42.4788" lon="23.06207">
        <ele>706.808801</ele>
        <time>2022-04-05T08:50:24.224Z</time>
      </trkpt>
      <trkpt lat="42.47873" lon="23.06218">
        <ele>706.715829</ele>
        <time>2022-04-05T08:50:26.242Z</time>
      </trkpt>
      <trkpt lat="42.47866" lon="23.06229">
        <ele>706.646837</ele>
        <time>2022-04-05T08:50:28.224Z</time>
      </trkpt>
      <trkpt lat="42.47859" lon="23.0624">
        <ele>706.598637</ele>
        <time>2022-04-05T08:50:30.236Z</time>
      </trkpt>
      <trkpt lat="42.47851" lon="23.06251">
        <ele>706.550436</ele>
        <time>2022-04-05T08:50:32.215Z</time>
      </trkpt>
      <trkpt lat="42.47844" lon="23.06263">
        <ele>706.500432</ele>
        <time>2022-04-05T08:50:34.225Z</time>
      </trkpt>
      <trkpt lat="42.47836" lon="23.06275">
        <ele>706.44828</ele>
        <time>2022-04-05T08:50:36.229Z</time>
      </trkpt>
      <trkpt lat="42.47829" lon="23.06286">
        <ele>706.397539</ele>
        <time>2022-04-05T08:50:38.227Z</time>
      </trkpt>
      <trkpt lat="42.47821" lon="23.06298">
        <ele>706.346264</ele>
        <time>2022-04-05T08:50:40.221Z</time>
      </trkpt>
      <trkpt lat="42.47813" lon="23.0631">
        <ele>706.29567</ele>
        <time>2022-04-05T08:50:42.241Z</time>
      </trkpt>
      <trkpt lat="42.47805" lon="23.06321">
        <ele>706.244176</ele>
        <time>2022-04-05T08:50:44.230Z</time>
      </trkpt>
      <trkpt lat="42.47798" lon="23.06332">
        <ele>706.19538</ele>
        <time>2022-04-05T08:50:46.228Z</time>
      </trkpt>
      <trkpt lat="42.4779" lon="23.06344">
        <ele>706.146203</ele>
        <time>2022-04-05T08:50:48.217Z</time>
      </trkpt>
      <trkpt lat="42.47783" lon="23.06355">
        <ele>706.095662</ele>
        <time>2022-04-05T08:50:50.219Z</time>
      </trkpt>
      <trkpt lat="42.47775" lon="23.06367">
        <ele>706.044674</ele>
        <time>2022-04-05T08:50:52.248Z</time>
      </trkpt>
      <trkpt lat="42.47767" lon="23.06379">
        <ele>705.993004</ele>
        <time>2022-04-05T08:50:54.235Z</time>
      </trkpt>
      <trkpt lat="42.47759" lon="23.0639">
        <ele>705.941206</ele>
        <time>2022-04-05T08:50:56.228Z</time>
      </trkpt>
      <trkpt lat="42.47751" lon="23.06402">
        <ele>705.888273</ele>
        <time>2022-04-05T08:50:58.236Z</time>
      </trkpt>
      <trkpt lat="42.47743" lon="23.06415">
        <ele>705.76915</ele>
        <time>2022-04-05T08:51:00.235Z</time>
      </trkpt>
      <trkpt lat="42.47735" lon="23.06426">
        <ele>705.633437</ele>
        <time>2022-04-05T08:51:02.224Z</time>
      </trkpt>
      <trkpt lat="42.47727" lon="23.06439">
        <ele>705.493675</ele>
        <time>2022-04-05T08:51:04.227Z</time>
      </trkpt>
      <trkpt lat="42.47718" lon="23.06451">
        <ele>705.347689</ele>
        <time>2022-04-05T08:51:06.232Z</time>
      </trkpt>
      <trkpt lat="42.4771" lon="23.06464">
        <ele>705.201703</ele>
        <time>2022-04-05T08:51:08.247Z</time>
      </trkpt>
      <trkpt lat="42.47702" lon="23.06477">
        <ele>705.058024</ele>
        <time>2022-04-05T08:51:10.224Z</time>
      </trkpt>
      <trkpt lat="42.47694" lon="23.06488">
        <ele>704.926012</ele>
        <time>2022-04-05T08:51:12.236Z</time>
      </trkpt>
      <trkpt lat="42.47686" lon="23.065">
        <ele>704.787149</ele>
        <time>2022-04-05T08:51:14.230Z</time>
      </trkpt>
      <trkpt lat="42.47678" lon="23.06513">
        <ele>704.645249</ele>
        <time>2022-04-05T08:51:16.234Z</time>
      </trkpt>
      <trkpt lat="42.47672" lon="23.06526">
        <ele>704.514557</ele>
        <time>2022-04-05T08:51:18.239Z</time>
      </trkpt>
      <trkpt lat="42.47665" lon="23.06537">
        <ele>704.394395</ele>
        <time>2022-04-05T08:51:20.224Z</time>
      </trkpt>
      <trkpt lat="42.47658" lon="23.06547">
        <ele>704.279061</ele>
        <time>2022-04-05T08:51:22.269Z</time>
      </trkpt>
      <trkpt lat="42.4765" lon="23.06556">
        <ele>704.15971</ele>
        <time>2022-04-05T08:51:24.229Z</time>
      </trkpt>
      <trkpt lat="42.47643" lon="23.06566">
        <ele>704.04499</ele>
        <time>2022-04-05T08:51:26.224Z</time>
      </trkpt>
      <trkpt lat="42.47636" lon="23.06577">
        <ele>703.92157</ele>
        <time>2022-04-05T08:51:28.216Z</time>
      </trkpt>
      <trkpt lat="42.47629" lon="23.06588">
        <ele>703.813012</ele>
        <time>2022-04-05T08:51:30.241Z</time>
      </trkpt>
      <trkpt lat="42.47621" lon="23.06598">
        <ele>703.82455</ele>
        <time>2022-04-05T08:51:32.232Z</time>
      </trkpt>
      <trkpt lat="42.47614" lon="23.06608">
        <ele>703.836272</ele>
        <time>2022-04-05T08:51:34.236Z</time>
      </trkpt>
      <trkpt lat="42.47606" lon="23.06618">
        <ele>703.847994</ele>
        <time>2022-04-05T08:51:36.226Z</time>
      </trkpt>
      <trkpt lat="42.47598" lon="23.06627">
        <ele>703.859389</ele>
        <time>2022-04-05T08:51:38.238Z</time>
      </trkpt>
      <trkpt lat="42.47591" lon="23.06637">
        <ele>703.870599</ele>
        <time>2022-04-05T08:51:40.233Z</time>
      </trkpt>
      <trkpt lat="42.47584" lon="23.06646">
        <ele>703.881097</ele>
        <time>2022-04-05T08:51:42.234Z</time>
      </trkpt>
      <trkpt lat="42.47574" lon="23.06657">
        <ele>703.89511</ele>
        <time>2022-04-05T08:51:45.243Z</time>
      </trkpt>
      <trkpt lat="42.47563" lon="23.06668">
        <ele>703.910422</ele>
        <time>2022-04-05T08:51:48.221Z</time>
      </trkpt>
      <trkpt lat="42.47556" lon="23.06677">
        <ele>703.920916</ele>
        <time>2022-04-05T08:51:50.218Z</time>
      </trkpt>
      <trkpt lat="42.47549" lon="23.06685">
        <ele>703.931144</ele>
        <time>2022-04-05T08:51:52.264Z</time>
      </trkpt>
      <trkpt lat="42.47542" lon="23.06694">
        <ele>703.941475</ele>
        <time>2022-04-05T08:51:54.235Z</time>
      </trkpt>
      <trkpt lat="42.47532" lon="23.06706">
        <ele>703.956308</ele>
        <time>2022-04-05T08:51:57.226Z</time>
      </trkpt>
      <trkpt lat="42.47525" lon="23.06714">
        <ele>703.966779</ele>
        <time>2022-04-05T08:51:59.224Z</time>
      </trkpt>
      <trkpt lat="42.47518" lon="23.06722">
        <ele>703.977059</ele>
        <time>2022-04-05T08:52:01.222Z</time>
      </trkpt>
      <trkpt lat="42.47511" lon="23.06731">
        <ele>703.987455</ele>
        <time>2022-04-05T08:52:03.219Z</time>
      </trkpt>
      <trkpt lat="42.47503" lon="23.06739">
        <ele>703.998076</ele>
        <time>2022-04-05T08:52:05.244Z</time>
      </trkpt>
      <trkpt lat="42.47495" lon="23.06747">
        <ele>704.009436</ele>
        <time>2022-04-05T08:52:07.237Z</time>
      </trkpt>
      <trkpt lat="42.47487" lon="23.06755">
        <ele>703.959598</ele>
        <time>2022-04-05T08:52:09.232Z</time>
      </trkpt>
      <trkpt lat="42.4748" lon="23.06763">
        <ele>703.907067</ele>
        <time>2022-04-05T08:52:11.262Z</time>
      </trkpt>
      <trkpt lat="42.47472" lon="23.06772">
        <ele>703.854279</ele>
        <time>2022-04-05T08:52:13.225Z</time>
      </trkpt>
      <trkpt lat="42.47465" lon="23.0678">
        <ele>703.802664</ele>
        <time>2022-04-05T08:52:15.229Z</time>
      </trkpt>
      <trkpt lat="42.47457" lon="23.06789">
        <ele>703.749762</ele>
        <time>2022-04-05T08:52:17.210Z</time>
      </trkpt>
      <trkpt lat="42.4745" lon="23.06799">
        <ele>703.69355</ele>
        <time>2022-04-05T08:52:19.219Z</time>
      </trkpt>
      <trkpt lat="42.47441" lon="23.06808">
        <ele>703.636464</ele>
        <time>2022-04-05T08:52:21.227Z</time>
      </trkpt>
      <trkpt lat="42.47433" lon="23.06818">
        <ele>703.578117</ele>
        <time>2022-04-05T08:52:23.244Z</time>
      </trkpt>
      <trkpt lat="42.47424" lon="23.06827">
        <ele>703.518953</ele>
        <time>2022-04-05T08:52:25.227Z</time>
      </trkpt>
      <trkpt lat="42.47416" lon="23.06838">
        <ele>703.455722</ele>
        <time>2022-04-05T08:52:27.226Z</time>
      </trkpt>
      <trkpt lat="42.47407" lon="23.06849">
        <ele>703.39158</ele>
        <time>2022-04-05T08:52:29.226Z</time>
      </trkpt>
      <trkpt lat="42.47397" lon="23.06861">
        <ele>703.320789</ele>
        <time>2022-04-05T08:52:31.228Z</time>
      </trkpt>
      <trkpt lat="42.47386" lon="23.06873">
        <ele>703.246461</ele>
        <time>2022-04-05T08:52:33.218Z</time>
      </trkpt>
      <trkpt lat="42.47375" lon="23.06887">
        <ele>703.165913</ele>
        <time>2022-04-05T08:52:35.228Z</time>
      </trkpt>
      <trkpt lat="42.47364" lon="23.069">
        <ele>703.084301</ele>
        <time>2022-04-05T08:52:37.236Z</time>
      </trkpt>
      <trkpt lat="42.47352" lon="23.06914">
        <ele>702.87898</ele>
        <time>2022-04-05T08:52:39.261Z</time>
      </trkpt>
      <trkpt lat="42.47341" lon="23.06926">
        <ele>702.596842</ele>
        <time>2022-04-05T08:52:41.220Z</time>
      </trkpt>
      <trkpt lat="42.4733" lon="23.06938">
        <ele>702.303492</ele>
        <time>2022-04-05T08:52:43.233Z</time>
      </trkpt>
      <trkpt lat="42.4732" lon="23.06951">
        <ele>702.020381</ele>
        <time>2022-04-05T08:52:45.269Z</time>
      </trkpt>
      <trkpt lat="42.47309" lon="23.06963">
        <ele>701.742281</ele>
        <time>2022-04-05T08:52:47.229Z</time>
      </trkpt>
      <trkpt lat="42.47299" lon="23.06975">
        <ele>701.470192</ele>
        <time>2022-04-05T08:52:49.242Z</time>
      </trkpt>
      <trkpt lat="42.4729" lon="23.06987">
        <ele>701.209652</ele>
        <time>2022-04-05T08:52:51.233Z</time>
      </trkpt>
      <trkpt lat="42.4728" lon="23.06998">
        <ele>700.957305</ele>
        <time>2022-04-05T08:52:53.227Z</time>
      </trkpt>
      <trkpt lat="42.47271" lon="23.07008">
        <ele>700.710064</ele>
        <time>2022-04-05T08:52:55.219Z</time>
      </trkpt>
      <trkpt lat="42.47262" lon="23.07018">
        <ele>700.476911</ele>
        <time>2022-04-05T08:52:57.233Z</time>
      </trkpt>
      <trkpt lat="42.47254" lon="23.07027">
        <ele>700.267285</ele>
        <time>2022-04-05T08:52:59.223Z</time>
      </trkpt>
      <trkpt lat="42.47246" lon="23.07037">
        <ele>700.052052</ele>
        <time>2022-04-05T08:53:01.272Z</time>
      </trkpt>
      <trkpt lat="42.47238" lon="23.07045">
        <ele>699.853004</ele>
        <time>2022-04-05T08:53:03.223Z</time>
      </trkpt>
      <trkpt lat="42.47231" lon="23.07053">
        <ele>699.669777</ele>
        <time>2022-04-05T08:53:05.231Z</time>
      </trkpt>
      <trkpt lat="42.47224" lon="23.07061">
        <ele>699.472895</ele>
        <time>2022-04-05T08:53:08.214Z</time>
      </trkpt>
      <trkpt lat="42.47216" lon="23.0707">
        <ele>699.653633</ele>
        <time>2022-04-05T08:53:11.233Z</time>
      </trkpt>
      <trkpt lat="42.47207" lon="23.07079">
        <ele>700.028749</ele>
        <time>2022-04-05T08:53:14.227Z</time>
      </trkpt>
      <trkpt lat="42.47198" lon="23.07089">
        <ele>700.427647</ele>
        <time>2022-04-05T08:53:17.226Z</time>
      </trkpt>
      <trkpt lat="42.4719" lon="23.07097">
        <ele>700.776904</ele>
        <time>2022-04-05T08:53:20.228Z</time>
      </trkpt>
      <trkpt lat="42.47183" lon="23.07105">
        <ele>701.108069</ele>
        <time>2022-04-05T08:53:23.254Z</time>
      </trkpt>
      <trkpt lat="42.47175" lon="23.07113">
        <ele>701.426868</ele>
        <time>2022-04-05T08:53:26.231Z</time>
      </trkpt>
      <trkpt lat="42.47166" lon="23.07123">
        <ele>701.838112</ele>
        <time>2022-04-05T08:53:30.213Z</time>
      </trkpt>
      <trkpt lat="42.47157" lon="23.07133">
        <ele>702.237583</ele>
        <time>2022-04-05T08:53:34.228Z</time>
      </trkpt>
      <trkpt lat="42.47148" lon="23.07143">
        <ele>702.633816</ele>
        <time>2022-04-05T08:53:38.234Z</time>
      </trkpt>
      <trkpt lat="42.47139" lon="23.07153">
        <ele>703.030655</ele>
        <time>2022-04-05T08:53:42.231Z</time>
      </trkpt>
      <trkpt lat="42.47131" lon="23.07163">
        <ele>703.413553</ele>
        <time>2022-04-05T08:53:46.238Z</time>
      </trkpt>
      <trkpt lat="42.47123" lon="23.07171">
        <ele>703.741467</ele>
        <time>2022-04-05T08:53:50.216Z</time>
      </trkpt>
      <trkpt lat="42.47116" lon="23.0718">
        <ele>704.076013</ele>
        <time>2022-04-05T08:53:54.242Z</time>
      </trkpt>
      <trkpt lat="42.47108" lon="23.0719">
        <ele>704.457325</ele>
        <time>2022-04-05T08:53:59.226Z</time>
      </trkpt>
      <trkpt lat="42.47101" lon="23.07198">
        <ele>704.769186</ele>
        <time>2022-04-05T08:54:03.216Z</time>
      </trkpt>
      <trkpt lat="42.47094" lon="23.07206">
        <ele>705.104016</ele>
        <time>2022-04-05T08:54:07.265Z</time>
      </trkpt>
      <trkpt lat="42.47086" lon="23.07215">
        <ele>705.426035</ele>
        <time>2022-04-05T08:54:11.235Z</time>
      </trkpt>
      <trkpt lat="42.47079" lon="23.07223">
        <ele>705.710513</ele>
        <time>2022-04-05T08:54:15.262Z</time>
      </trkpt>
      <trkpt lat="42.47071" lon="23.07233">
        <ele>705.976044</ele>
        <time>2022-04-05T08:54:20.238Z</time>
      </trkpt>
      <trkpt lat="42.47064" lon="23.07242">
        <ele>706.210791</ele>
        <time>2022-04-05T08:54:24.237Z</time>
      </trkpt>
      <trkpt lat="42.47056" lon="23.07252">
        <ele>706.481138</ele>
        <time>2022-04-05T08:54:29.217Z</time>
      </trkpt>
      <trkpt lat="42.47049" lon="23.0726">
        <ele>706.715501</ele>
        <time>2022-04-05T08:54:33.229Z</time>
      </trkpt>
      <trkpt lat="42.47041" lon="23.07269">
        <ele>706.965763</ele>
        <time>2022-04-05T08:54:37.239Z</time>
      </trkpt>
      <trkpt lat="42.47033" lon="23.07277">
        <ele>707.203907</ele>
        <time>2022-04-05T08:54:41.229Z</time>
      </trkpt>
      <trkpt lat="42.47026" lon="23.07286">
        <ele>707.440156</ele>
        <time>2022-04-05T08:54:45.263Z</time>
      </trkpt>
      <trkpt lat="42.47018" lon="23.07295">
        <ele>707.682196</ele>
        <time>2022-04-05T08:54:49.268Z</time>
      </trkpt>
      <trkpt lat="42.4701" lon="23.07304">
        <ele>707.946576</ele>
        <time>2022-04-05T08:54:54.221Z</time>
      </trkpt>
      <trkpt lat="42.47002" lon="23.07313">
        <ele>708.202567</ele>
        <time>2022-04-05T08:54:58.220Z</time>
      </trkpt>
      <trkpt lat="42.46994" lon="23.07323">
        <ele>708.470507</ele>
        <time>2022-04-05T08:55:02.224Z</time>
      </trkpt>
      <trkpt lat="42.46985" lon="23.07332">
        <ele>708.729095</ele>
        <time>2022-04-05T08:55:06.229Z</time>
      </trkpt>
      <trkpt lat="42.46977" lon="23.07342">
        <ele>708.994017</ele>
        <time>2022-04-05T08:55:10.227Z</time>
      </trkpt>
      <trkpt lat="42.4697" lon="23.07351">
        <ele>709.243958</ele>
        <time>2022-04-05T08:55:14.220Z</time>
      </trkpt>
      <trkpt lat="42.46961" lon="23.0736">
        <ele>709.511282</ele>
        <time>2022-04-05T08:55:18.265Z</time>
      </trkpt>
      <trkpt lat="42.46954" lon="23.07369">
        <ele>709.741803</ele>
        <time>2022-04-05T08:55:21.226Z</time>
      </trkpt>
      <trkpt lat="42.46945" lon="23.07379">
        <ele>709.966256</ele>
        <time>2022-04-05T08:55:25.225Z</time>
      </trkpt>
      <trkpt lat="42.46937" lon="23.07387">
        <ele>709.837246</ele>
        <time>2022-04-05T08:55:28.230Z</time>
      </trkpt>
      <trkpt lat="42.4693" lon="23.07396">
        <ele>709.700855</ele>
        <time>2022-04-05T08:55:31.241Z</time>
      </trkpt>
      <trkpt lat="42.46922" lon="23.07405">
        <ele>709.564388</ele>
        <time>2022-04-05T08:55:34.249Z</time>
      </trkpt>
      <trkpt lat="42.46914" lon="23.07413">
        <ele>709.424595</ele>
        <time>2022-04-05T08:55:37.226Z</time>
      </trkpt>
      <trkpt lat="42.46907" lon="23.07423">
        <ele>709.287733</ele>
        <time>2022-04-05T08:55:40.275Z</time>
      </trkpt>
      <trkpt lat="42.469" lon="23.0743">
        <ele>709.158048</ele>
        <time>2022-04-05T08:55:43.217Z</time>
      </trkpt>
      <trkpt lat="42.46893" lon="23.07439">
        <ele>709.02877</ele>
        <time>2022-04-05T08:55:46.276Z</time>
      </trkpt>
      <trkpt lat="42.46886" lon="23.07448">
        <ele>708.897681</ele>
        <time>2022-04-05T08:55:49.237Z</time>
      </trkpt>
      <trkpt lat="42.46879" lon="23.07457">
        <ele>708.76129</ele>
        <time>2022-04-05T08:55:52.255Z</time>
      </trkpt>
      <trkpt lat="42.46872" lon="23.07466">
        <ele>708.629488</ele>
        <time>2022-04-05T08:55:55.227Z</time>
      </trkpt>
      <trkpt lat="42.46865" lon="23.07476">
        <ele>708.496682</ele>
        <time>2022-04-05T08:55:58.266Z</time>
      </trkpt>
      <trkpt lat="42.46859" lon="23.07486">
        <ele>708.360492</ele>
        <time>2022-04-05T08:56:01.231Z</time>
      </trkpt>
      <trkpt lat="42.46853" lon="23.07497">
        <ele>708.225954</ele>
        <time>2022-04-05T08:56:04.268Z</time>
      </trkpt>
      <trkpt lat="42.46846" lon="23.07508">
        <ele>708.085856</ele>
        <time>2022-04-05T08:56:07.223Z</time>
      </trkpt>
      <trkpt lat="42.46841" lon="23.07518">
        <ele>707.959592</ele>
        <time>2022-04-05T08:56:10.230Z</time>
      </trkpt>
      <trkpt lat="42.46836" lon="23.07528">
        <ele>707.8325</ele>
        <time>2022-04-05T08:56:13.228Z</time>
      </trkpt>
      <trkpt lat="42.4683" lon="23.07539">
        <ele>707.696407</ele>
        <time>2022-04-05T08:56:16.242Z</time>
      </trkpt>
      <trkpt lat="42.46825" lon="23.07551">
        <ele>707.556954</ele>
        <time>2022-04-05T08:56:19.230Z</time>
      </trkpt>
      <trkpt lat="42.46819" lon="23.07563">
        <ele>707.621509</ele>
        <time>2022-04-05T08:56:22.229Z</time>
      </trkpt>
      <trkpt lat="42.46814" lon="23.07574">
        <ele>707.745606</ele>
        <time>2022-04-05T08:56:25.212Z</time>
      </trkpt>
      <trkpt lat="42.46809" lon="23.07585">
        <ele>707.87529</ele>
        <time>2022-04-05T08:56:28.234Z</time>
      </trkpt>
      <trkpt lat="42.46804" lon="23.07597">
        <ele>708.001374</ele>
        <time>2022-04-05T08:56:31.236Z</time>
      </trkpt>
      <trkpt lat="42.46797" lon="23.07611">
        <ele>708.155229</ele>
        <time>2022-04-05T08:56:35.233Z</time>
      </trkpt>
      <trkpt lat="42.46792" lon="23.07621">
        <ele>708.273515</ele>
        <time>2022-04-05T08:56:38.251Z</time>
      </trkpt>
      <trkpt lat="42.46786" lon="23.07635">
        <ele>708.426281</ele>
        <time>2022-04-05T08:56:42.230Z</time>
      </trkpt>
      <trkpt lat="42.46781" lon="23.07646">
        <ele>708.548464</ele>
        <time>2022-04-05T08:56:45.218Z</time>
      </trkpt>
      <trkpt lat="42.46776" lon="23.07658">
        <ele>708.676674</ele>
        <time>2022-04-05T08:56:48.264Z</time>
      </trkpt>
      <trkpt lat="42.46772" lon="23.07669">
        <ele>708.797754</ele>
        <time>2022-04-05T08:56:51.237Z</time>
      </trkpt>
      <trkpt lat="42.46767" lon="23.0768">
        <ele>708.912843</ele>
        <time>2022-04-05T08:56:54.228Z</time>
      </trkpt>
      <trkpt lat="42.46761" lon="23.07694">
        <ele>709.064959</ele>
        <time>2022-04-05T08:56:58.214Z</time>
      </trkpt>
      <trkpt lat="42.46755" lon="23.07708">
        <ele>709.217892</ele>
        <time>2022-04-05T08:57:02.248Z</time>
      </trkpt>
      <trkpt lat="42.4675" lon="23.07718">
        <ele>709.332967</ele>
        <time>2022-04-05T08:57:05.273Z</time>
      </trkpt>
      <trkpt lat="42.46744" lon="23.07732">
        <ele>709.485585</ele>
        <time>2022-04-05T08:57:09.214Z</time>
      </trkpt>
      <trkpt lat="42.46738" lon="23.07745">
        <ele>709.632838</ele>
        <time>2022-04-05T08:57:13.239Z</time>
      </trkpt>
      <trkpt lat="42.46732" lon="23.07758">
        <ele>709.781567</ele>
        <time>2022-04-05T08:57:17.234Z</time>
      </trkpt>
      <trkpt lat="42.46728" lon="23.07769">
        <ele>709.916495</ele>
        <time>2022-04-05T08:57:20.226Z</time>
      </trkpt>
      <trkpt lat="42.46723" lon="23.0778">
        <ele>710.062701</ele>
        <time>2022-04-05T08:57:23.246Z</time>
      </trkpt>
      <trkpt lat="42.46718" lon="23.07793">
        <ele>710.246256</ele>
        <time>2022-04-05T08:57:27.233Z</time>
      </trkpt>
      <trkpt lat="42.46711" lon="23.07806">
        <ele>710.437962</ele>
        <time>2022-04-05T08:57:31.239Z</time>
      </trkpt>
      <trkpt lat="42.46707" lon="23.07817">
        <ele>710.591555</ele>
        <time>2022-04-05T08:57:34.226Z</time>
      </trkpt>
      <trkpt lat="42.46702" lon="23.07828">
        <ele>710.74307</ele>
        <time>2022-04-05T08:57:37.263Z</time>
      </trkpt>
      <trkpt lat="42.46696" lon="23.07839">
        <ele>710.901638</ele>
        <time>2022-04-05T08:57:40.229Z</time>
      </trkpt>
      <trkpt lat="42.46691" lon="23.07851">
        <ele>711.067837</ele>
        <time>2022-04-05T08:57:43.235Z</time>
      </trkpt>
      <trkpt lat="42.46687" lon="23.07862">
        <ele>711.215229</ele>
        <time>2022-04-05T08:57:46.223Z</time>
      </trkpt>
      <trkpt lat="42.46681" lon="23.07876">
        <ele>711.405033</ele>
        <time>2022-04-05T08:57:50.223Z</time>
      </trkpt>
      <trkpt lat="42.46675" lon="23.07889">
        <ele>711.593707</ele>
        <time>2022-04-05T08:57:54.236Z</time>
      </trkpt>
      <trkpt lat="42.4667" lon="23.079">
        <ele>711.743874</ele>
        <time>2022-04-05T08:57:57.228Z</time>
      </trkpt>
      <trkpt lat="42.46666" lon="23.07911">
        <ele>711.890886</ele>
        <time>2022-04-05T08:58:00.220Z</time>
      </trkpt>
      <trkpt lat="42.46661" lon="23.07921">
        <ele>712.043905</ele>
        <time>2022-04-05T08:58:03.238Z</time>
      </trkpt>
      <trkpt lat="42.46656" lon="23.07932">
        <ele>712.196066</ele>
        <time>2022-04-05T08:58:06.216Z</time>
      </trkpt>
      <trkpt lat="42.46651" lon="23.07943">
        <ele>712.353866</ele>
        <time>2022-04-05T08:58:09.223Z</time>
      </trkpt>
      <trkpt lat="42.46646" lon="23.07955">
        <ele>712.513482</ele>
        <time>2022-04-05T08:58:12.220Z</time>
      </trkpt>
      <trkpt lat="42.46641" lon="23.07966">
        <ele>712.671436</ele>
        <time>2022-04-05T08:58:15.246Z</time>
      </trkpt>
      <trkpt lat="42.46636" lon="23.07977">
        <ele>712.721855</ele>
        <time>2022-04-05T08:58:18.218Z</time>
      </trkpt>
      <trkpt lat="42.46631" lon="23.07988">
        <ele>712.661891</ele>
        <time>2022-04-05T08:58:21.267Z</time>
      </trkpt>
      <trkpt lat="42.46625" lon="23.07999">
        <ele>712.598743</ele>
        <time>2022-04-05T08:58:24.233Z</time>
      </trkpt>
      <trkpt lat="42.4662" lon="23.08012">
        <ele>712.532535</ele>
        <time>2022-04-05T08:58:27.207Z</time>
      </trkpt>
      <trkpt lat="42.46615" lon="23.08024">
        <ele>712.46768</ele>
        <time>2022-04-05T08:58:30.233Z</time>
      </trkpt>
      <trkpt lat="42.4661" lon="23.08035">
        <ele>712.403476</ele>
        <time>2022-04-05T08:58:33.269Z</time>
      </trkpt>
      <trkpt lat="42.46605" lon="23.08047">
        <ele>712.341857</ele>
        <time>2022-04-05T08:58:36.251Z</time>
      </trkpt>
      <trkpt lat="42.466" lon="23.08057">
        <ele>712.282748</ele>
        <time>2022-04-05T08:58:39.277Z</time>
      </trkpt>
      <trkpt lat="42.46595" lon="23.08068">
        <ele>712.224983</ele>
        <time>2022-04-05T08:58:42.227Z</time>
      </trkpt>
      <trkpt lat="42.4659" lon="23.08079">
        <ele>712.16288</ele>
        <time>2022-04-05T08:58:45.224Z</time>
      </trkpt>
      <trkpt lat="42.46585" lon="23.0809">
        <ele>712.1006</ele>
        <time>2022-04-05T08:58:48.221Z</time>
      </trkpt>
      <trkpt lat="42.4658" lon="23.08101">
        <ele>712.041707</ele>
        <time>2022-04-05T08:58:51.230Z</time>
      </trkpt>
      <trkpt lat="42.46575" lon="23.08113">
        <ele>711.978477</ele>
        <time>2022-04-05T08:58:54.228Z</time>
      </trkpt>
      <trkpt lat="42.4657" lon="23.08124">
        <ele>711.915799</ele>
        <time>2022-04-05T08:58:57.223Z</time>
      </trkpt>
      <trkpt lat="42.46565" lon="23.08135">
        <ele>711.855227</ele>
        <time>2022-04-05T08:59:00.224Z</time>
      </trkpt>
      <trkpt lat="42.4656" lon="23.08146">
        <ele>711.795537</ele>
        <time>2022-04-05T08:59:03.221Z</time>
      </trkpt>
      <trkpt lat="42.46555" lon="23.08157">
        <ele>711.73537</ele>
        <time>2022-04-05T08:59:06.238Z</time>
      </trkpt>
      <trkpt lat="42.4655" lon="23.08169">
        <ele>711.673089</ele>
        <time>2022-04-05T08:59:09.236Z</time>
      </trkpt>
      <trkpt lat="42.46545" lon="23.08181">
        <ele>711.617566</ele>
        <time>2022-04-05T08:59:12.268Z</time>
      </trkpt>
      <trkpt lat="42.4654" lon="23.08193">
        <ele>711.753476</ele>
        <time>2022-04-05T08:59:15.232Z</time>
      </trkpt>
      <trkpt lat="42.46535" lon="23.08204">
        <ele>711.88699</ele>
        <time>2022-04-05T08:59:18.218Z</time>
      </trkpt>
      <trkpt lat="42.4653" lon="23.08216">
        <ele>712.023087</ele>
        <time>2022-04-05T08:59:21.236Z</time>
      </trkpt>
      <trkpt lat="42.46524" lon="23.08228">
        <ele>712.160379</ele>
        <time>2022-04-05T08:59:24.225Z</time>
      </trkpt>
      <trkpt lat="42.46519" lon="23.0824">
        <ele>712.298206</ele>
        <time>2022-04-05T08:59:27.244Z</time>
      </trkpt>
      <trkpt lat="42.46514" lon="23.08252">
        <ele>712.442693</ele>
        <time>2022-04-05T08:59:30.239Z</time>
      </trkpt>
      <trkpt lat="42.46508" lon="23.08265">
        <ele>712.591825</ele>
        <time>2022-04-05T08:59:33.239Z</time>
      </trkpt>
      <trkpt lat="42.46503" lon="23.08279">
        <ele>712.74708</ele>
        <time>2022-04-05T08:59:36.236Z</time>
      </trkpt>
      <trkpt lat="42.46497" lon="23.08291">
        <ele>712.889324</ele>
        <time>2022-04-05T08:59:39.215Z</time>
      </trkpt>
      <trkpt lat="42.46492" lon="23.08304">
        <ele>713.037393</ele>
        <time>2022-04-05T08:59:42.227Z</time>
      </trkpt>
      <trkpt lat="42.46486" lon="23.08317">
        <ele>713.18958</ele>
        <time>2022-04-05T08:59:45.214Z</time>
      </trkpt>
      <trkpt lat="42.4648" lon="23.08331">
        <ele>713.341582</ele>
        <time>2022-04-05T08:59:48.242Z</time>
      </trkpt>
      <trkpt lat="42.46475" lon="23.08344">
        <ele>713.492726</ele>
        <time>2022-04-05T08:59:51.241Z</time>
      </trkpt>
      <trkpt lat="42.46469" lon="23.08357">
        <ele>713.643565</ele>
        <time>2022-04-05T08:59:54.235Z</time>
      </trkpt>
      <trkpt lat="42.46463" lon="23.08369">
        <ele>713.791457</ele>
        <time>2022-04-05T08:59:57.213Z</time>
      </trkpt>
      <trkpt lat="42.46457" lon="23.08382">
        <ele>713.939053</ele>
        <time>2022-04-05T09:00:00.229Z</time>
      </trkpt>
      <trkpt lat="42.46452" lon="23.08394">
        <ele>714.065538</ele>
        <time>2022-04-05T09:00:03.236Z</time>
      </trkpt>
      <trkpt lat="42.46447" lon="23.08405">
        <ele>714.156442</ele>
        <time>2022-04-05T09:00:06.223Z</time>
      </trkpt>
      <trkpt lat="42.46442" lon="23.08417">
        <ele>714.246862</ele>
        <time>2022-04-05T09:00:09.223Z</time>
      </trkpt>
      <trkpt lat="42.46436" lon="23.0843">
        <ele>714.356899</ele>
        <time>2022-04-05T09:00:12.240Z</time>
      </trkpt>
      <trkpt lat="42.46431" lon="23.08442">
        <ele>714.452941</ele>
        <time>2022-04-05T09:00:15.227Z</time>
      </trkpt>
      <trkpt lat="42.46426" lon="23.08454">
        <ele>714.549246</ele>
        <time>2022-04-05T09:00:18.237Z</time>
      </trkpt>
      <trkpt lat="42.46421" lon="23.08465">
        <ele>714.637653</ele>
        <time>2022-04-05T09:00:21.226Z</time>
      </trkpt>
      <trkpt lat="42.46417" lon="23.08477">
        <ele>714.728198</ele>
        <time>2022-04-05T09:00:24.240Z</time>
      </trkpt>
      <trkpt lat="42.46411" lon="23.08489">
        <ele>714.828187</ele>
        <time>2022-04-05T09:00:27.237Z</time>
      </trkpt>
      <trkpt lat="42.46406" lon="23.08501">
        <ele>714.925426</ele>
        <time>2022-04-05T09:00:30.224Z</time>
      </trkpt>
      <trkpt lat="42.46401" lon="23.08514">
        <ele>715.026614</ele>
        <time>2022-04-05T09:00:33.222Z</time>
      </trkpt>
      <trkpt lat="42.46395" lon="23.08527">
        <ele>715.136902</ele>
        <time>2022-04-05T09:00:36.240Z</time>
      </trkpt>
      <trkpt lat="42.46389" lon="23.08541">
        <ele>715.246587</ele>
        <time>2022-04-05T09:00:39.267Z</time>
      </trkpt>
      <trkpt lat="42.46383" lon="23.08554">
        <ele>715.349925</ele>
        <time>2022-04-05T09:00:42.237Z</time>
      </trkpt>
      <trkpt lat="42.46378" lon="23.08566">
        <ele>715.445021</ele>
        <time>2022-04-05T09:00:45.232Z</time>
      </trkpt>
      <trkpt lat="42.46373" lon="23.08578">
        <ele>715.545609</ele>
        <time>2022-04-05T09:00:48.235Z</time>
      </trkpt>
      <trkpt lat="42.46366" lon="23.08592">
        <ele>715.657492</ele>
        <time>2022-04-05T09:00:51.222Z</time>
      </trkpt>
      <trkpt lat="42.4636" lon="23.08605">
        <ele>715.719293</ele>
        <time>2022-04-05T09:00:54.236Z</time>
      </trkpt>
      <trkpt lat="42.46354" lon="23.08618">
        <ele>715.696487</ele>
        <time>2022-04-05T09:00:57.231Z</time>
      </trkpt>
      <trkpt lat="42.46349" lon="23.08631">
        <ele>715.673382</ele>
        <time>2022-04-05T09:01:00.241Z</time>
      </trkpt>
      <trkpt lat="42.46343" lon="23.08643">
        <ele>715.651209</ele>
        <time>2022-04-05T09:01:03.233Z</time>
      </trkpt>
      <trkpt lat="42.46337" lon="23.08655">
        <ele>715.630187</ele>
        <time>2022-04-05T09:01:06.224Z</time>
      </trkpt>
      <trkpt lat="42.46332" lon="23.08666">
        <ele>715.610001</ele>
        <time>2022-04-05T09:01:09.218Z</time>
      </trkpt>
      <trkpt lat="42.46327" lon="23.08679">
        <ele>715.588271</ele>
        <time>2022-04-05T09:01:12.222Z</time>
      </trkpt>
      <trkpt lat="42.46321" lon="23.08691">
        <ele>715.566991</ele>
        <time>2022-04-05T09:01:15.222Z</time>
      </trkpt>
      <trkpt lat="42.46316" lon="23.08702">
        <ele>715.546334</ele>
        <time>2022-04-05T09:01:18.243Z</time>
      </trkpt>
      <trkpt lat="42.46311" lon="23.08714">
        <ele>715.526537</ele>
        <time>2022-04-05T09:01:21.239Z</time>
      </trkpt>
      <trkpt lat="42.46306" lon="23.08725">
        <ele>715.505986</ele>
        <time>2022-04-05T09:01:24.223Z</time>
      </trkpt>
      <trkpt lat="42.46301" lon="23.08737">
        <ele>715.48464</ele>
        <time>2022-04-05T09:01:27.235Z</time>
      </trkpt>
      <trkpt lat="42.46295" lon="23.08749">
        <ele>715.46331</ele>
        <time>2022-04-05T09:01:30.247Z</time>
      </trkpt>
      <trkpt lat="42.46289" lon="23.08761">
        <ele>715.441817</ele>
        <time>2022-04-05T09:01:33.234Z</time>
      </trkpt>
      <trkpt lat="42.46284" lon="23.08773">
        <ele>715.42051</ele>
        <time>2022-04-05T09:01:36.232Z</time>
      </trkpt>
      <trkpt lat="42.46278" lon="23.08785">
        <ele>715.398814</ele>
        <time>2022-04-05T09:01:39.241Z</time>
      </trkpt>
      <trkpt lat="42.46273" lon="23.08797">
        <ele>715.378158</ele>
        <time>2022-04-05T09:01:42.222Z</time>
      </trkpt>
      <trkpt lat="42.46268" lon="23.08808">
        <ele>715.36463</ele>
        <time>2022-04-05T09:01:45.240Z</time>
      </trkpt>
      <trkpt lat="42.46263" lon="23.08819">
        <ele>715.625714</ele>
        <time>2022-04-05T09:01:48.223Z</time>
      </trkpt>
      <trkpt lat="42.46258" lon="23.0883">
        <ele>715.896057</ele>
        <time>2022-04-05T09:01:51.222Z</time>
      </trkpt>
      <trkpt lat="42.46253" lon="23.08843">
        <ele>716.196563</ele>
        <time>2022-04-05T09:01:54.231Z</time>
      </trkpt>
      <trkpt lat="42.46247" lon="23.08856">
        <ele>716.496017</ele>
        <time>2022-04-05T09:01:57.298Z</time>
      </trkpt>
      <trkpt lat="42.46242" lon="23.08868">
        <ele>716.784622</ele>
        <time>2022-04-05T09:02:00.226Z</time>
      </trkpt>
      <trkpt lat="42.46236" lon="23.0888">
        <ele>717.068295</ele>
        <time>2022-04-05T09:02:03.234Z</time>
      </trkpt>
      <trkpt lat="42.46231" lon="23.08891">
        <ele>717.344161</ele>
        <time>2022-04-05T09:02:06.224Z</time>
      </trkpt>
      <trkpt lat="42.46225" lon="23.08905">
        <ele>717.66331</ele>
        <time>2022-04-05T09:02:10.232Z</time>
      </trkpt>
      <trkpt lat="42.4622" lon="23.08918">
        <ele>717.962299</ele>
        <time>2022-04-05T09:02:14.228Z</time>
      </trkpt>
      <trkpt lat="42.46215" lon="23.0893">
        <ele>718.244281</ele>
        <time>2022-04-05T09:02:17.259Z</time>
      </trkpt>
      <trkpt lat="42.4621" lon="23.08942">
        <ele>718.533182</ele>
        <time>2022-04-05T09:02:20.220Z</time>
      </trkpt>
      <trkpt lat="42.46205" lon="23.08954">
        <ele>718.810251</ele>
        <time>2022-04-05T09:02:23.246Z</time>
      </trkpt>
      <trkpt lat="42.462" lon="23.08968">
        <ele>719.136085</ele>
        <time>2022-04-05T09:02:27.227Z</time>
      </trkpt>
      <trkpt lat="42.46194" lon="23.08981">
        <ele>719.453129</ele>
        <time>2022-04-05T09:02:31.268Z</time>
      </trkpt>
      <trkpt lat="42.46189" lon="23.08993">
        <ele>719.742741</ele>
        <time>2022-04-05T09:02:35.238Z</time>
      </trkpt>
      <trkpt lat="42.46184" lon="23.09006">
        <ele>720.027007</ele>
        <time>2022-04-05T09:02:39.228Z</time>
      </trkpt>
      <trkpt lat="42.46178" lon="23.09019">
        <ele>720.334195</ele>
        <time>2022-04-05T09:02:43.212Z</time>
      </trkpt>
      <trkpt lat="42.46172" lon="23.09032">
        <ele>720.440222</ele>
        <time>2022-04-05T09:02:47.235Z</time>
      </trkpt>
      <trkpt lat="42.46167" lon="23.09042">
        <ele>720.518911</ele>
        <time>2022-04-05T09:02:50.228Z</time>
      </trkpt>
      <trkpt lat="42.46161" lon="23.09055">
        <ele>720.620107</ele>
        <time>2022-04-05T09:02:54.228Z</time>
      </trkpt>
      <trkpt lat="42.46154" lon="23.09068">
        <ele>720.722948</ele>
        <time>2022-04-05T09:02:58.234Z</time>
      </trkpt>
      <trkpt lat="42.46149" lon="23.09081">
        <ele>720.815939</ele>
        <time>2022-04-05T09:03:02.239Z</time>
      </trkpt>
      <trkpt lat="42.46143" lon="23.09094">
        <ele>720.915857</ele>
        <time>2022-04-05T09:03:07.219Z</time>
      </trkpt>
      <trkpt lat="42.46138" lon="23.09106">
        <ele>721.006041</ele>
        <time>2022-04-05T09:03:11.244Z</time>
      </trkpt>
      <trkpt lat="42.46133" lon="23.09117">
        <ele>721.088839</ele>
        <time>2022-04-05T09:03:15.239Z</time>
      </trkpt>
      <trkpt lat="42.46128" lon="23.09128">
        <ele>721.17392</ele>
        <time>2022-04-05T09:03:19.229Z</time>
      </trkpt>
      <trkpt lat="42.46122" lon="23.09139">
        <ele>721.260622</ele>
        <time>2022-04-05T09:03:23.251Z</time>
      </trkpt>
      <trkpt lat="42.46117" lon="23.09152">
        <ele>721.354836</ele>
        <time>2022-04-05T09:03:28.240Z</time>
      </trkpt>
      <trkpt lat="42.46111" lon="23.09164">
        <ele>721.450157</ele>
        <time>2022-04-05T09:03:33.274Z</time>
      </trkpt>
      <trkpt lat="42.46106" lon="23.09174">
        <ele>721.529438</ele>
        <time>2022-04-05T09:03:37.233Z</time>
      </trkpt>
      <trkpt lat="42.46101" lon="23.09185">
        <ele>721.609483</ele>
        <time>2022-04-05T09:03:41.229Z</time>
      </trkpt>
      <trkpt lat="42.46095" lon="23.09197">
        <ele>721.705644</ele>
        <time>2022-04-05T09:03:46.228Z</time>
      </trkpt>
      <trkpt lat="42.46091" lon="23.09208">
        <ele>721.784778</ele>
        <time>2022-04-05T09:03:50.240Z</time>
      </trkpt>
      <trkpt lat="42.46085" lon="23.09219">
        <ele>721.869373</ele>
        <time>2022-04-05T09:03:54.240Z</time>
      </trkpt>
      <trkpt lat="42.4608" lon="23.09232">
        <ele>722.023291</ele>
        <time>2022-04-05T09:03:59.234Z</time>
      </trkpt>
      <trkpt lat="42.46074" lon="23.09244">
        <ele>722.232585</ele>
        <time>2022-04-05T09:04:04.227Z</time>
      </trkpt>
      <trkpt lat="42.46069" lon="23.09255">
        <ele>722.412887</ele>
        <time>2022-04-05T09:04:08.234Z</time>
      </trkpt>
      <trkpt lat="42.46064" lon="23.09266">
        <ele>722.597403</ele>
        <time>2022-04-05T09:04:12.255Z</time>
      </trkpt>
      <trkpt lat="42.46059" lon="23.09277">
        <ele>722.781919</ele>
        <time>2022-04-05T09:04:16.236Z</time>
      </trkpt>
      <trkpt lat="42.46054" lon="23.09289">
        <ele>722.990999</ele>
        <time>2022-04-05T09:04:21.234Z</time>
      </trkpt>
      <trkpt lat="42.46048" lon="23.09303">
        <ele>723.206876</ele>
        <time>2022-04-05T09:04:26.232Z</time>
      </trkpt>
      <trkpt lat="42.46043" lon="23.09313">
        <ele>723.392018</ele>
        <time>2022-04-05T09:04:30.227Z</time>
      </trkpt>
      <trkpt lat="42.46038" lon="23.09325">
        <ele>723.585117</ele>
        <time>2022-04-05T09:04:34.245Z</time>
      </trkpt>
      <trkpt lat="42.46033" lon="23.09336">
        <ele>723.778592</ele>
        <time>2022-04-05T09:04:38.224Z</time>
      </trkpt>
      <trkpt lat="42.46028" lon="23.09348">
        <ele>723.972668</ele>
        <time>2022-04-05T09:04:42.233Z</time>
      </trkpt>
      <trkpt lat="42.46022" lon="23.0936">
        <ele>724.170188</ele>
        <time>2022-04-05T09:04:46.247Z</time>
      </trkpt>
      <trkpt lat="42.46017" lon="23.09373">
        <ele>724.385933</ele>
        <time>2022-04-05T09:04:50.272Z</time>
      </trkpt>
      <trkpt lat="42.46011" lon="23.09386">
        <ele>724.604631</ele>
        <time>2022-04-05T09:04:54.218Z</time>
      </trkpt>
      <trkpt lat="42.46006" lon="23.09398">
        <ele>724.804888</ele>
        <time>2022-04-05T09:04:58.236Z</time>
      </trkpt>
      <trkpt lat="42.46" lon="23.09412">
        <ele>725.031192</ele>
        <time>2022-04-05T09:05:02.232Z</time>
      </trkpt>
      <trkpt lat="42.45994" lon="23.09426">
        <ele>725.258627</ele>
        <time>2022-04-05T09:05:06.237Z</time>
      </trkpt>
      <trkpt lat="42.45989" lon="23.09439">
        <ele>725.425451</ele>
        <time>2022-04-05T09:05:10.244Z</time>
      </trkpt>
      <trkpt lat="42.45983" lon="23.09452">
        <ele>725.502925</ele>
        <time>2022-04-05T09:05:14.228Z</time>
      </trkpt>
      <trkpt lat="42.45978" lon="23.09465">
        <ele>725.577441</ele>
        <time>2022-04-05T09:05:18.229Z</time>
      </trkpt>
      <trkpt lat="42.45972" lon="23.09477">
        <ele>725.649796</ele>
        <time>2022-04-05T09:05:22.236Z</time>
      </trkpt>
      <trkpt lat="42.45966" lon="23.09491">
        <ele>725.727725</ele>
        <time>2022-04-05T09:05:26.230Z</time>
      </trkpt>
      <trkpt lat="42.45961" lon="23.09503">
        <ele>725.80135</ele>
        <time>2022-04-05T09:05:30.241Z</time>
      </trkpt>
      <trkpt lat="42.45956" lon="23.09516">
        <ele>725.875433</ele>
        <time>2022-04-05T09:05:34.229Z</time>
      </trkpt>
      <trkpt lat="42.4595" lon="23.09529">
        <ele>725.949273</ele>
        <time>2022-04-05T09:05:38.256Z</time>
      </trkpt>
      <trkpt lat="42.45944" lon="23.09542">
        <ele>726.028911</ele>
        <time>2022-04-05T09:05:42.225Z</time>
      </trkpt>
      <trkpt lat="42.45938" lon="23.09556">
        <ele>726.10941</ele>
        <time>2022-04-05T09:05:46.236Z</time>
      </trkpt>
      <trkpt lat="42.45932" lon="23.0957">
        <ele>726.188694</ele>
        <time>2022-04-05T09:05:50.241Z</time>
      </trkpt>
      <trkpt lat="42.45926" lon="23.09582">
        <ele>726.264137</ele>
        <time>2022-04-05T09:05:54.263Z</time>
      </trkpt>
      <trkpt lat="42.45921" lon="23.09595">
        <ele>726.339627</ele>
        <time>2022-04-05T09:05:58.240Z</time>
      </trkpt>
      <trkpt lat="42.45915" lon="23.09608">
        <ele>726.413125</ele>
        <time>2022-04-05T09:06:02.229Z</time>
      </trkpt>
      <trkpt lat="42.4591" lon="23.0962">
        <ele>726.485835</ele>
        <time>2022-04-05T09:06:06.238Z</time>
      </trkpt>
      <trkpt lat="42.45904" lon="23.09633">
        <ele>726.563557</ele>
        <time>2022-04-05T09:06:10.220Z</time>
      </trkpt>
      <trkpt lat="42.45899" lon="23.09644">
        <ele>726.624645</ele>
        <time>2022-04-05T09:06:13.245Z</time>
      </trkpt>
      <trkpt lat="42.45893" lon="23.09658">
        <ele>726.830308</ele>
        <time>2022-04-05T09:06:17.255Z</time>
      </trkpt>
      <trkpt lat="42.45887" lon="23.09671">
        <ele>727.035781</ele>
        <time>2022-04-05T09:06:21.264Z</time>
      </trkpt>
      <trkpt lat="42.45881" lon="23.09684">
        <ele>727.235372</ele>
        <time>2022-04-05T09:06:25.228Z</time>
      </trkpt>
      <trkpt lat="42.45875" lon="23.09697">
        <ele>727.42936</ele>
        <time>2022-04-05T09:06:29.227Z</time>
      </trkpt>
      <trkpt lat="42.4587" lon="23.09709">
        <ele>727.61705</ele>
        <time>2022-04-05T09:06:33.276Z</time>
      </trkpt>
      <trkpt lat="42.45865" lon="23.09721">
        <ele>727.789222</ele>
        <time>2022-04-05T09:06:37.242Z</time>
      </trkpt>
      <trkpt lat="42.4586" lon="23.09733">
        <ele>727.979907</ele>
        <time>2022-04-05T09:06:41.241Z</time>
      </trkpt>
      <trkpt lat="42.45854" lon="23.09747">
        <ele>728.178013</ele>
        <time>2022-04-05T09:06:45.225Z</time>
      </trkpt>
      <trkpt lat="42.45849" lon="23.09759">
        <ele>728.371819</ele>
        <time>2022-04-05T09:06:49.222Z</time>
      </trkpt>
      <trkpt lat="42.45843" lon="23.09772">
        <ele>728.564518</ele>
        <time>2022-04-05T09:06:53.235Z</time>
      </trkpt>
      <trkpt lat="42.45838" lon="23.09784">
        <ele>728.742095</ele>
        <time>2022-04-05T09:06:57.234Z</time>
      </trkpt>
      <trkpt lat="42.45833" lon="23.09796">
        <ele>728.926502</ele>
        <time>2022-04-05T09:07:01.235Z</time>
      </trkpt>
      <trkpt lat="42.45828" lon="23.09809">
        <ele>729.115775</ele>
        <time>2022-04-05T09:07:05.226Z</time>
      </trkpt>
      <trkpt lat="42.45822" lon="23.09821">
        <ele>729.30328</ele>
        <time>2022-04-05T09:07:09.239Z</time>
      </trkpt>
      <trkpt lat="42.45817" lon="23.09833">
        <ele>729.490061</ele>
        <time>2022-04-05T09:07:13.235Z</time>
      </trkpt>
      <trkpt lat="42.45811" lon="23.09846">
        <ele>729.682478</ele>
        <time>2022-04-05T09:07:17.239Z</time>
      </trkpt>
      <trkpt lat="42.45806" lon="23.09858">
        <ele>729.841928</ele>
        <time>2022-04-05T09:07:21.256Z</time>
      </trkpt>
      <trkpt lat="42.458" lon="23.0987">
        <ele>729.936052</ele>
        <time>2022-04-05T09:07:25.242Z</time>
      </trkpt>
      <trkpt lat="42.45795" lon="23.09883">
        <ele>730.034471</ele>
        <time>2022-04-05T09:07:29.236Z</time>
      </trkpt>
      <trkpt lat="42.45789" lon="23.09896">
        <ele>730.134159</ele>
        <time>2022-04-05T09:07:33.264Z</time>
      </trkpt>
      <trkpt lat="42.45784" lon="23.09908">
        <ele>730.234107</ele>
        <time>2022-04-05T09:07:37.230Z</time>
      </trkpt>
      <trkpt lat="42.45778" lon="23.09921">
        <ele>730.329389</ele>
        <time>2022-04-05T09:07:41.230Z</time>
      </trkpt>
      <trkpt lat="42.45773" lon="23.09933">
        <ele>730.425833</ele>
        <time>2022-04-05T09:07:45.237Z</time>
      </trkpt>
      <trkpt lat="42.45768" lon="23.09945">
        <ele>730.521376</ele>
        <time>2022-04-05T09:07:49.236Z</time>
      </trkpt>
      <trkpt lat="42.45763" lon="23.09957">
        <ele>730.608822</ele>
        <time>2022-04-05T09:07:53.224Z</time>
      </trkpt>
      <trkpt lat="42.45759" lon="23.09969">
        <ele>730.703242</ele>
        <time>2022-04-05T09:07:57.243Z</time>
      </trkpt>
      <trkpt lat="42.45753" lon="23.09983">
        <ele>730.80896</ele>
        <time>2022-04-05T09:08:01.230Z</time>
      </trkpt>
      <trkpt lat="42.45747" lon="23.09996">
        <ele>730.911571</ele>
        <time>2022-04-05T09:08:05.244Z</time>
      </trkpt>
      <trkpt lat="42.45742" lon="23.10009">
        <ele>731.007264</ele>
        <time>2022-04-05T09:08:09.216Z</time>
      </trkpt>
      <trkpt lat="42.45737" lon="23.10021">
        <ele>731.100013</ele>
        <time>2022-04-05T09:08:13.250Z</time>
      </trkpt>
      <trkpt lat="42.45732" lon="23.10034">
        <ele>731.19766</ele>
        <time>2022-04-05T09:08:17.227Z</time>
      </trkpt>
      <trkpt lat="42.45726" lon="23.10046">
        <ele>731.296897</ele>
        <time>2022-04-05T09:08:21.239Z</time>
      </trkpt>
      <trkpt lat="42.45721" lon="23.10058">
        <ele>731.392303</ele>
        <time>2022-04-05T09:08:25.235Z</time>
      </trkpt>
      <trkpt lat="42.45716" lon="23.1007">
        <ele>731.481612</ele>
        <time>2022-04-05T09:08:29.242Z</time>
      </trkpt>
      <trkpt lat="42.4571" lon="23.10082">
        <ele>731.563012</ele>
        <time>2022-04-05T09:08:33.238Z</time>
      </trkpt>
      <trkpt lat="42.45705" lon="23.10094">
        <ele>731.63936</ele>
        <time>2022-04-05T09:08:37.243Z</time>
      </trkpt>
      <trkpt lat="42.45699" lon="23.10108">
        <ele>731.728603</ele>
        <time>2022-04-05T09:08:41.249Z</time>
      </trkpt>
      <trkpt lat="42.45693" lon="23.10122">
        <ele>731.820784</ele>
        <time>2022-04-05T09:08:45.227Z</time>
      </trkpt>
      <trkpt lat="42.45688" lon="23.10133">
        <ele>731.896689</ele>
        <time>2022-04-05T09:08:48.238Z</time>
      </trkpt>
      <trkpt lat="42.45683" lon="23.10145">
        <ele>731.975616</ele>
        <time>2022-04-05T09:08:51.241Z</time>
      </trkpt>
      <trkpt lat="42.45678" lon="23.10156">
        <ele>732.051225</ele>
        <time>2022-04-05T09:08:54.261Z</time>
      </trkpt>
      <trkpt lat="42.45673" lon="23.10167">
        <ele>732.126981</ele>
        <time>2022-04-05T09:08:57.233Z</time>
      </trkpt>
      <trkpt lat="42.45668" lon="23.10178">
        <ele>732.198371</ele>
        <time>2022-04-05T09:09:00.225Z</time>
      </trkpt>
      <trkpt lat="42.45663" lon="23.10189">
        <ele>732.270359</ele>
        <time>2022-04-05T09:09:03.236Z</time>
      </trkpt>
      <trkpt lat="42.45658" lon="23.102">
        <ele>732.341578</ele>
        <time>2022-04-05T09:09:06.227Z</time>
      </trkpt>
      <trkpt lat="42.45654" lon="23.1021">
        <ele>732.411594</ele>
        <time>2022-04-05T09:09:09.216Z</time>
      </trkpt>
      <trkpt lat="42.45649" lon="23.10222">
        <ele>732.487014</ele>
        <time>2022-04-05T09:09:12.237Z</time>
      </trkpt>
      <trkpt lat="42.45644" lon="23.10232">
        <ele>732.5592</ele>
        <time>2022-04-05T09:09:15.257Z</time>
      </trkpt>
      <trkpt lat="42.45638" lon="23.10244">
        <ele>732.635853</ele>
        <time>2022-04-05T09:09:18.235Z</time>
      </trkpt>
      <trkpt lat="42.45633" lon="23.10255">
        <ele>732.711678</ele>
        <time>2022-04-05T09:09:21.225Z</time>
      </trkpt>
      <trkpt lat="42.45628" lon="23.10267">
        <ele>732.789362</ele>
        <time>2022-04-05T09:09:24.226Z</time>
      </trkpt>
      <trkpt lat="42.45623" lon="23.10278">
        <ele>732.897714</ele>
        <time>2022-04-05T09:09:27.268Z</time>
      </trkpt>
      <trkpt lat="42.45617" lon="23.10289">
        <ele>733.063644</ele>
        <time>2022-04-05T09:09:30.237Z</time>
      </trkpt>
      <trkpt lat="42.45612" lon="23.103">
        <ele>733.227688</ele>
        <time>2022-04-05T09:09:33.253Z</time>
      </trkpt>
      <trkpt lat="42.45607" lon="23.10311">
        <ele>733.391877</ele>
        <time>2022-04-05T09:09:36.232Z</time>
      </trkpt>
      <trkpt lat="42.45602" lon="23.10322">
        <ele>733.56086</ele>
        <time>2022-04-05T09:09:39.235Z</time>
      </trkpt>
      <trkpt lat="42.45596" lon="23.10333">
        <ele>733.72902</ele>
        <time>2022-04-05T09:09:42.229Z</time>
      </trkpt>
      <trkpt lat="42.45591" lon="23.10344">
        <ele>733.887106</ele>
        <time>2022-04-05T09:09:45.234Z</time>
      </trkpt>
      <trkpt lat="42.45587" lon="23.10354">
        <ele>734.045193</ele>
        <time>2022-04-05T09:09:48.232Z</time>
      </trkpt>
      <trkpt lat="42.45582" lon="23.10365">
        <ele>734.204749</ele>
        <time>2022-04-05T09:09:51.277Z</time>
      </trkpt>
      <trkpt lat="42.45576" lon="23.10379">
        <ele>734.408947</ele>
        <time>2022-04-05T09:09:55.241Z</time>
      </trkpt>
      <trkpt lat="42.45571" lon="23.1039">
        <ele>734.570691</ele>
        <time>2022-04-05T09:09:58.239Z</time>
      </trkpt>
      <trkpt lat="42.45566" lon="23.10401">
        <ele>734.734905</ele>
        <time>2022-04-05T09:10:01.238Z</time>
      </trkpt>
      <trkpt lat="42.45562" lon="23.10414">
        <ele>734.908059</ele>
        <time>2022-04-05T09:10:04.229Z</time>
      </trkpt>
      <trkpt lat="42.45557" lon="23.10425">
        <ele>735.078353</ele>
        <time>2022-04-05T09:10:07.234Z</time>
      </trkpt>
      <trkpt lat="42.45552" lon="23.10437">
        <ele>735.24926</ele>
        <time>2022-04-05T09:10:10.239Z</time>
      </trkpt>
      <trkpt lat="42.45548" lon="23.10449">
        <ele>735.408825</ele>
        <time>2022-04-05T09:10:13.254Z</time>
      </trkpt>
      <trkpt lat="42.45543" lon="23.1046">
        <ele>735.580801</ele>
        <time>2022-04-05T09:10:16.225Z</time>
      </trkpt>
      <trkpt lat="42.45538" lon="23.10472">
        <ele>735.750589</ele>
        <time>2022-04-05T09:10:19.234Z</time>
      </trkpt>
      <trkpt lat="42.45533" lon="23.10484">
        <ele>735.918675</ele>
        <time>2022-04-05T09:10:22.282Z</time>
      </trkpt>
      <trkpt lat="42.45528" lon="23.10496">
        <ele>735.851063</ele>
        <time>2022-04-05T09:10:25.226Z</time>
      </trkpt>
      <trkpt lat="42.45522" lon="23.10507">
        <ele>735.78291</ele>
        <time>2022-04-05T09:10:28.234Z</time>
      </trkpt>
      <trkpt lat="42.45517" lon="23.10518">
        <ele>735.7218</ele>
        <time>2022-04-05T09:10:31.248Z</time>
      </trkpt>
      <trkpt lat="42.45512" lon="23.10529">
        <ele>735.657964</ele>
        <time>2022-04-05T09:10:34.234Z</time>
      </trkpt>
      <trkpt lat="42.45507" lon="23.10539">
        <ele>735.596382</ele>
        <time>2022-04-05T09:10:37.239Z</time>
      </trkpt>
      <trkpt lat="42.45502" lon="23.1055">
        <ele>735.533129</ele>
        <time>2022-04-05T09:10:40.226Z</time>
      </trkpt>
      <trkpt lat="42.45497" lon="23.10562">
        <ele>735.46877</ele>
        <time>2022-04-05T09:10:43.233Z</time>
      </trkpt>
      <trkpt lat="42.45492" lon="23.10573">
        <ele>735.40566</ele>
        <time>2022-04-05T09:10:46.230Z</time>
      </trkpt>
      <trkpt lat="42.45488" lon="23.10584">
        <ele>735.34383</ele>
        <time>2022-04-05T09:10:49.220Z</time>
      </trkpt>
      <trkpt lat="42.45483" lon="23.10595">
        <ele>735.280176</ele>
        <time>2022-04-05T09:10:52.229Z</time>
      </trkpt>
      <trkpt lat="42.45478" lon="23.10607">
        <ele>735.213978</ele>
        <time>2022-04-05T09:10:55.233Z</time>
      </trkpt>
      <trkpt lat="42.45472" lon="23.10619">
        <ele>735.141826</ele>
        <time>2022-04-05T09:10:58.239Z</time>
      </trkpt>
      <trkpt lat="42.45466" lon="23.10633">
        <ele>735.062817</ele>
        <time>2022-04-05T09:11:01.238Z</time>
      </trkpt>
      <trkpt lat="42.45459" lon="23.10647">
        <ele>734.98311</ele>
        <time>2022-04-05T09:11:04.256Z</time>
      </trkpt>
      <trkpt lat="42.45453" lon="23.10661">
        <ele>734.902084</ele>
        <time>2022-04-05T09:11:07.223Z</time>
      </trkpt>
      <trkpt lat="42.45447" lon="23.10675">
        <ele>734.822064</ele>
        <time>2022-04-05T09:11:10.237Z</time>
      </trkpt>
      <trkpt lat="42.45441" lon="23.1069">
        <ele>734.738598</ele>
        <time>2022-04-05T09:11:13.278Z</time>
      </trkpt>
      <trkpt lat="42.45436" lon="23.107">
        <ele>734.66815</ele>
        <time>2022-04-05T09:11:15.224Z</time>
      </trkpt>
      <trkpt lat="42.4543" lon="23.10715">
        <ele>734.568056</ele>
        <time>2022-04-05T09:11:18.242Z</time>
      </trkpt>
      <trkpt lat="42.45424" lon="23.10729">
        <ele>734.477193</ele>
        <time>2022-04-05T09:11:21.232Z</time>
      </trkpt>
      <trkpt lat="42.45418" lon="23.10743">
        <ele>734.376809</ele>
        <time>2022-04-05T09:11:24.248Z</time>
      </trkpt>
      <trkpt lat="42.45413" lon="23.10755">
        <ele>734.29859</ele>
        <time>2022-04-05T09:11:26.245Z</time>
      </trkpt>
      <trkpt lat="42.45408" lon="23.10767">
        <ele>734.218827</ele>
        <time>2022-04-05T09:11:28.239Z</time>
      </trkpt>
      <trkpt lat="42.45403" lon="23.10778">
        <ele>734.143558</ele>
        <time>2022-04-05T09:11:30.231Z</time>
      </trkpt>
      <trkpt lat="42.45396" lon="23.10793">
        <ele>734.037819</ele>
        <time>2022-04-05T09:11:33.238Z</time>
      </trkpt>
      <trkpt lat="42.4539" lon="23.10807">
        <ele>733.939454</ele>
        <time>2022-04-05T09:11:36.235Z</time>
      </trkpt>
      <trkpt lat="42.45384" lon="23.10821">
        <ele>733.845848</ele>
        <time>2022-04-05T09:11:39.240Z</time>
      </trkpt>
      <trkpt lat="42.45378" lon="23.10834">
        <ele>733.755996</ele>
        <time>2022-04-05T09:11:42.236Z</time>
      </trkpt>
      <trkpt lat="42.45372" lon="23.10848">
        <ele>733.658849</ele>
        <time>2022-04-05T09:11:45.225Z</time>
      </trkpt>
      <trkpt lat="42.45365" lon="23.10863">
        <ele>733.560388</ele>
        <time>2022-04-05T09:11:48.234Z</time>
      </trkpt>
      <trkpt lat="42.45359" lon="23.10878">
        <ele>733.458585</ele>
        <time>2022-04-05T09:11:51.227Z</time>
      </trkpt>
      <trkpt lat="42.45352" lon="23.10892">
        <ele>733.356464</ele>
        <time>2022-04-05T09:11:54.240Z</time>
      </trkpt>
      <trkpt lat="42.45346" lon="23.10906">
        <ele>733.406837</ele>
        <time>2022-04-05T09:11:57.234Z</time>
      </trkpt>
      <trkpt lat="42.4534" lon="23.10919">
        <ele>733.745604</ele>
        <time>2022-04-05T09:12:00.217Z</time>
      </trkpt>
      <trkpt lat="42.45335" lon="23.10931">
        <ele>734.058854</ele>
        <time>2022-04-05T09:12:03.240Z</time>
      </trkpt>
      <trkpt lat="42.4533" lon="23.10942">
        <ele>734.356046</ele>
        <time>2022-04-05T09:12:06.228Z</time>
      </trkpt>
      <trkpt lat="42.45324" lon="23.10956">
        <ele>734.705512</ele>
        <time>2022-04-05T09:12:10.230Z</time>
      </trkpt>
      <trkpt lat="42.45318" lon="23.10968">
        <ele>735.023612</ele>
        <time>2022-04-05T09:12:14.235Z</time>
      </trkpt>
      <trkpt lat="42.45312" lon="23.1098">
        <ele>735.347569</ele>
        <time>2022-04-05T09:12:18.226Z</time>
      </trkpt>
      <trkpt lat="42.45306" lon="23.10993">
        <ele>735.67848</ele>
        <time>2022-04-05T09:12:22.219Z</time>
      </trkpt>
      <trkpt lat="42.453" lon="23.11005">
        <ele>735.998438</ele>
        <time>2022-04-05T09:12:26.257Z</time>
      </trkpt>
      <trkpt lat="42.45295" lon="23.11016">
        <ele>736.285786</ele>
        <time>2022-04-05T09:12:30.231Z</time>
      </trkpt>
      <trkpt lat="42.45289" lon="23.11028">
        <ele>736.621459</ele>
        <time>2022-04-05T09:12:35.240Z</time>
      </trkpt>
      <trkpt lat="42.45283" lon="23.11039">
        <ele>736.909074</ele>
        <time>2022-04-05T09:12:39.262Z</time>
      </trkpt>
      <trkpt lat="42.45278" lon="23.1105">
        <ele>737.201717</ele>
        <time>2022-04-05T09:12:43.232Z</time>
      </trkpt>
      <trkpt lat="42.45273" lon="23.1106">
        <ele>737.480968</ele>
        <time>2022-04-05T09:12:47.231Z</time>
      </trkpt>
      <trkpt lat="42.45268" lon="23.11071">
        <ele>737.760218</ele>
        <time>2022-04-05T09:12:51.226Z</time>
      </trkpt>
      <trkpt lat="42.45262" lon="23.11084">
        <ele>738.093639</ele>
        <time>2022-04-05T09:12:56.229Z</time>
      </trkpt>
      <trkpt lat="42.45257" lon="23.11095">
        <ele>738.373214</ele>
        <time>2022-04-05T09:13:00.235Z</time>
      </trkpt>
      <trkpt lat="42.45252" lon="23.11106">
        <ele>738.676087</ele>
        <time>2022-04-05T09:13:04.245Z</time>
      </trkpt>
      <trkpt lat="42.45247" lon="23.11117">
        <ele>738.711212</ele>
        <time>2022-04-05T09:13:08.228Z</time>
      </trkpt>
      <trkpt lat="42.45242" lon="23.1113">
        <ele>738.728207</ele>
        <time>2022-04-05T09:13:13.222Z</time>
      </trkpt>
      <trkpt lat="42.45236" lon="23.11141">
        <ele>738.743283</ele>
        <time>2022-04-05T09:13:17.240Z</time>
      </trkpt>
      <trkpt lat="42.45231" lon="23.11153">
        <ele>738.759008</ele>
        <time>2022-04-05T09:13:21.242Z</time>
      </trkpt>
      <trkpt lat="42.45225" lon="23.11165">
        <ele>738.774874</ele>
        <time>2022-04-05T09:13:25.217Z</time>
      </trkpt>
      <trkpt lat="42.45219" lon="23.11178">
        <ele>738.792777</ele>
        <time>2022-04-05T09:13:29.279Z</time>
      </trkpt>
      <trkpt lat="42.45214" lon="23.11189">
        <ele>738.807265</ele>
        <time>2022-04-05T09:13:32.258Z</time>
      </trkpt>
      <trkpt lat="42.45209" lon="23.11201">
        <ele>738.82257</ele>
        <time>2022-04-05T09:13:35.263Z</time>
      </trkpt>
      <trkpt lat="42.45203" lon="23.11215">
        <ele>738.841216</ele>
        <time>2022-04-05T09:13:38.236Z</time>
      </trkpt>
      <trkpt lat="42.45198" lon="23.11226">
        <ele>738.855549</ele>
        <time>2022-04-05T09:13:40.234Z</time>
      </trkpt>
      <trkpt lat="42.45193" lon="23.11238">
        <ele>738.870816</ele>
        <time>2022-04-05T09:13:42.217Z</time>
      </trkpt>
      <trkpt lat="42.45188" lon="23.11251">
        <ele>738.887517</ele>
        <time>2022-04-05T09:13:44.235Z</time>
      </trkpt>
      <trkpt lat="42.45182" lon="23.11265">
        <ele>738.905818</ele>
        <time>2022-04-05T09:13:46.264Z</time>
      </trkpt>
      <trkpt lat="42.45176" lon="23.1128">
        <ele>738.925432</ele>
        <time>2022-04-05T09:13:48.247Z</time>
      </trkpt>
      <trkpt lat="42.45169" lon="23.11297">
        <ele>738.946594</ele>
        <time>2022-04-05T09:13:50.239Z</time>
      </trkpt>
      <trkpt lat="42.45162" lon="23.11314">
        <ele>738.969066</ele>
        <time>2022-04-05T09:13:52.285Z</time>
      </trkpt>
      <trkpt lat="42.45154" lon="23.11332">
        <ele>738.936036</ele>
        <time>2022-04-05T09:13:54.234Z</time>
      </trkpt>
      <trkpt lat="42.45147" lon="23.1135">
        <ele>738.889273</ele>
        <time>2022-04-05T09:13:56.237Z</time>
      </trkpt>
      <trkpt lat="42.45138" lon="23.11369">
        <ele>738.840356</ele>
        <time>2022-04-05T09:13:58.234Z</time>
      </trkpt>
      <trkpt lat="42.4513" lon="23.11388">
        <ele>738.791744</ele>
        <time>2022-04-05T09:14:00.254Z</time>
      </trkpt>
      <trkpt lat="42.45122" lon="23.11408">
        <ele>738.742448</ele>
        <time>2022-04-05T09:14:02.220Z</time>
      </trkpt>
      <trkpt lat="42.45113" lon="23.11427">
        <ele>738.693684</ele>
        <time>2022-04-05T09:14:04.240Z</time>
      </trkpt>
      <trkpt lat="42.45105" lon="23.11445">
        <ele>738.64724</ele>
        <time>2022-04-05T09:14:06.248Z</time>
      </trkpt>
      <trkpt lat="42.45098" lon="23.11461">
        <ele>738.604865</ele>
        <time>2022-04-05T09:14:08.236Z</time>
      </trkpt>
      <trkpt lat="42.45092" lon="23.11476">
        <ele>738.566827</ele>
        <time>2022-04-05T09:14:10.242Z</time>
      </trkpt>
      <trkpt lat="42.45086" lon="23.11489">
        <ele>738.533121</ele>
        <time>2022-04-05T09:14:12.225Z</time>
      </trkpt>
      <trkpt lat="42.45081" lon="23.11501">
        <ele>738.502386</ele>
        <time>2022-04-05T09:14:14.277Z</time>
      </trkpt>
      <trkpt lat="42.45074" lon="23.11516">
        <ele>738.462596</ele>
        <time>2022-04-05T09:14:17.238Z</time>
      </trkpt>
      <trkpt lat="42.45068" lon="23.1153">
        <ele>738.419345</ele>
        <time>2022-04-05T09:14:20.229Z</time>
      </trkpt>
      <trkpt lat="42.45062" lon="23.11543">
        <ele>738.336836</ele>
        <time>2022-04-05T09:14:23.230Z</time>
      </trkpt>
      <trkpt lat="42.45056" lon="23.11556">
        <ele>738.253955</ele>
        <time>2022-04-05T09:14:26.240Z</time>
      </trkpt>
      <trkpt lat="42.45051" lon="23.11568">
        <ele>738.17784</ele>
        <time>2022-04-05T09:14:29.229Z</time>
      </trkpt>
      <trkpt lat="42.45045" lon="23.11583">
        <ele>738.088074</ele>
        <time>2022-04-05T09:14:32.273Z</time>
      </trkpt>
      <trkpt lat="42.45038" lon="23.11597">
        <ele>737.99669</ele>
        <time>2022-04-05T09:14:35.238Z</time>
      </trkpt>
      <trkpt lat="42.45032" lon="23.11612">
        <ele>737.904145</ele>
        <time>2022-04-05T09:14:38.266Z</time>
      </trkpt>
      <trkpt lat="42.45025" lon="23.11627">
        <ele>737.808068</ele>
        <time>2022-04-05T09:14:41.247Z</time>
      </trkpt>
      <trkpt lat="42.45018" lon="23.11643">
        <ele>737.709569</ele>
        <time>2022-04-05T09:14:44.222Z</time>
      </trkpt>
      <trkpt lat="42.45014" lon="23.11653">
        <ele>737.643595</ele>
        <time>2022-04-05T09:14:46.229Z</time>
      </trkpt>
      <trkpt lat="42.45009" lon="23.11664">
        <ele>737.577621</ele>
        <time>2022-04-05T09:14:48.241Z</time>
      </trkpt>
      <trkpt lat="42.45002" lon="23.11679">
        <ele>737.480042</ele>
        <time>2022-04-05T09:14:51.243Z</time>
      </trkpt>
      <trkpt lat="42.44996" lon="23.11694">
        <ele>737.384985</ele>
        <time>2022-04-05T09:14:54.241Z</time>
      </trkpt>
      <trkpt lat="42.44991" lon="23.11704">
        <ele>737.31937</ele>
        <time>2022-04-05T09:14:56.237Z</time>
      </trkpt>
      <trkpt lat="42.44986" lon="23.11715">
        <ele>737.253709</ele>
        <time>2022-04-05T09:14:58.225Z</time>
      </trkpt>
      <trkpt lat="42.44981" lon="23.11725">
        <ele>737.187073</ele>
        <time>2022-04-05T09:15:00.255Z</time>
      </trkpt>
      <trkpt lat="42.44974" lon="23.1174">
        <ele>737.111834</ele>
        <time>2022-04-05T09:15:03.241Z</time>
      </trkpt>
      <trkpt lat="42.44971" lon="23.11756">
        <ele>737.083564</ele>
        <time>2022-04-05T09:15:06.295Z</time>
      </trkpt>
      <trkpt lat="42.44967" lon="23.11771">
        <ele>737.056857</ele>
        <time>2022-04-05T09:15:09.262Z</time>
      </trkpt>
      <trkpt lat="42.44961" lon="23.11785">
        <ele>737.029688</ele>
        <time>2022-04-05T09:15:12.240Z</time>
      </trkpt>
      <trkpt lat="42.44954" lon="23.11798">
        <ele>737.003745</ele>
        <time>2022-04-05T09:15:15.225Z</time>
      </trkpt>
      <trkpt lat="42.44948" lon="23.11809">
        <ele>736.979703</ele>
        <time>2022-04-05T09:15:18.231Z</time>
      </trkpt>
      <trkpt lat="42.44941" lon="23.1182">
        <ele>736.956569</ele>
        <time>2022-04-05T09:15:21.233Z</time>
      </trkpt>
      <trkpt lat="42.44935" lon="23.1183">
        <ele>736.93441</ele>
        <time>2022-04-05T09:15:24.227Z</time>
      </trkpt>
      <trkpt lat="42.44929" lon="23.11842">
        <ele>736.909279</ele>
        <time>2022-04-05T09:15:28.245Z</time>
      </trkpt>
      <trkpt lat="42.44922" lon="23.11852">
        <ele>736.885985</ele>
        <time>2022-04-05T09:15:33.237Z</time>
      </trkpt>
      <trkpt lat="42.44919" lon="23.11865">
        <ele>736.862931</ele>
        <time>2022-04-05T09:30:59.235Z</time>
      </trkpt>
      <trkpt lat="42.44902" lon="23.1187">
        <ele>736.824388</ele>
        <time>2022-04-05T09:31:23.241Z</time>
      </trkpt>
      <trkpt lat="42.44895" lon="23.11878">
        <ele>736.803315</ele>
        <time>2022-04-05T09:31:26.265Z</time>
      </trkpt>
      <trkpt lat="42.44886" lon="23.11887">
        <ele>736.776902</ele>
        <time>2022-04-05T09:31:30.224Z</time>
      </trkpt>
      <trkpt lat="42.44876" lon="23.11896">
        <ele>736.750252</ele>
        <time>2022-04-05T09:31:34.269Z</time>
      </trkpt>
      <trkpt lat="42.44868" lon="23.11902">
        <ele>736.729485</ele>
        <time>2022-04-05T09:31:37.238Z</time>
      </trkpt>
      <trkpt lat="42.44858" lon="23.1191">
        <ele>736.635931</ele>
        <time>2022-04-05T09:31:41.282Z</time>
      </trkpt>
      <trkpt lat="42.44849" lon="23.11917">
        <ele>736.442008</ele>
        <time>2022-04-05T09:31:44.249Z</time>
      </trkpt>
      <trkpt lat="42.4484" lon="23.11922">
        <ele>736.232217</ele>
        <time>2022-04-05T09:31:47.233Z</time>
      </trkpt>
      <trkpt lat="42.44829" lon="23.11928">
        <ele>736.009054</ele>
        <time>2022-04-05T09:31:50.231Z</time>
      </trkpt>
      <trkpt lat="42.44818" lon="23.11934">
        <ele>735.765316</ele>
        <time>2022-04-05T09:31:53.234Z</time>
      </trkpt>
      <trkpt lat="42.44805" lon="23.1194">
        <ele>735.492717</ele>
        <time>2022-04-05T09:31:56.286Z</time>
      </trkpt>
      <trkpt lat="42.44796" lon="23.11943">
        <ele>735.304535</ele>
        <time>2022-04-05T09:31:58.321Z</time>
      </trkpt>
      <trkpt lat="42.44786" lon="23.11946">
        <ele>735.105707</ele>
        <time>2022-04-05T09:32:00.243Z</time>
      </trkpt>
      <trkpt lat="42.44776" lon="23.11948">
        <ele>734.904133</ele>
        <time>2022-04-05T09:32:02.232Z</time>
      </trkpt>
      <trkpt lat="42.44766" lon="23.11951">
        <ele>734.701394</ele>
        <time>2022-04-05T09:32:04.217Z</time>
      </trkpt>
      <trkpt lat="42.44755" lon="23.11954">
        <ele>734.468023</ele>
        <time>2022-04-05T09:32:06.229Z</time>
      </trkpt>
      <trkpt lat="42.44742" lon="23.11957">
        <ele>734.21223</ele>
        <time>2022-04-05T09:32:08.289Z</time>
      </trkpt>
      <trkpt lat="42.44731" lon="23.11961">
        <ele>733.978895</ele>
        <time>2022-04-05T09:32:10.228Z</time>
      </trkpt>
      <trkpt lat="42.44721" lon="23.11963">
        <ele>733.764972</ele>
        <time>2022-04-05T09:32:12.278Z</time>
      </trkpt>
      <trkpt lat="42.4471" lon="23.11966">
        <ele>733.555777</ele>
        <time>2022-04-05T09:32:14.223Z</time>
      </trkpt>
      <trkpt lat="42.447" lon="23.11968">
        <ele>733.350777</ele>
        <time>2022-04-05T09:32:16.229Z</time>
      </trkpt>
      <trkpt lat="42.44691" lon="23.1197">
        <ele>733.164716</ele>
        <time>2022-04-05T09:32:18.227Z</time>
      </trkpt>
      <trkpt lat="42.44678" lon="23.11973">
        <ele>733.032906</ele>
        <time>2022-04-05T09:32:21.241Z</time>
      </trkpt>
      <trkpt lat="42.44667" lon="23.11976">
        <ele>732.943412</ele>
        <time>2022-04-05T09:32:24.233Z</time>
      </trkpt>
      <trkpt lat="42.44657" lon="23.11982">
        <ele>732.856553</ele>
        <time>2022-04-05T09:32:27.230Z</time>
      </trkpt>
      <trkpt lat="42.4465" lon="23.1199">
        <ele>732.782167</ele>
        <time>2022-04-05T09:32:30.231Z</time>
      </trkpt>
      <trkpt lat="42.44645" lon="23.12002">
        <ele>732.708097</ele>
        <time>2022-04-05T09:32:36.238Z</time>
      </trkpt>
      <trkpt lat="42.44632" lon="23.12007">
        <ele>732.596779</ele>
        <time>2022-04-05T09:45:44.236Z</time>
      </trkpt>
      <trkpt lat="42.44621" lon="23.12004">
        <ele>732.515213</ele>
        <time>2022-04-05T09:45:48.239Z</time>
      </trkpt>
      <trkpt lat="42.44611" lon="23.12">
        <ele>732.43295</ele>
        <time>2022-04-05T09:45:53.300Z</time>
      </trkpt>
      <trkpt lat="42.446" lon="23.11996">
        <ele>732.346476</ele>
        <time>2022-04-05T09:45:58.248Z</time>
      </trkpt>
      <trkpt lat="42.4459" lon="23.11992">
        <ele>732.265082</ele>
        <time>2022-04-05T09:46:01.234Z</time>
      </trkpt>
      <trkpt lat="42.44579" lon="23.11994">
        <ele>732.171972</ele>
        <time>2022-04-05T09:46:04.254Z</time>
      </trkpt>
      <trkpt lat="42.4457" lon="23.11996">
        <ele>732.100919</ele>
        <time>2022-04-05T09:46:06.241Z</time>
      </trkpt>
      <trkpt lat="42.44556" lon="23.11998">
        <ele>731.996787</ele>
        <time>2022-04-05T09:46:09.242Z</time>
      </trkpt>
      <trkpt lat="42.44546" lon="23.12">
        <ele>731.919043</ele>
        <time>2022-04-05T09:46:11.252Z</time>
      </trkpt>
      <trkpt lat="42.44536" lon="23.12002">
        <ele>731.839602</ele>
        <time>2022-04-05T09:46:13.273Z</time>
      </trkpt>
      <trkpt lat="42.44526" lon="23.12004">
        <ele>731.756143</ele>
        <time>2022-04-05T09:46:15.238Z</time>
      </trkpt>
      <trkpt lat="42.44515" lon="23.12006">
        <ele>731.519554</ele>
        <time>2022-04-05T09:46:17.236Z</time>
      </trkpt>
      <trkpt lat="42.44504" lon="23.12008">
        <ele>731.090154</ele>
        <time>2022-04-05T09:46:19.271Z</time>
      </trkpt>
      <trkpt lat="42.44492" lon="23.1201">
        <ele>730.656625</ele>
        <time>2022-04-05T09:46:21.238Z</time>
      </trkpt>
      <trkpt lat="42.44481" lon="23.12012">
        <ele>730.208345</ele>
        <time>2022-04-05T09:46:23.253Z</time>
      </trkpt>
      <trkpt lat="42.44469" lon="23.12014">
        <ele>729.752173</ele>
        <time>2022-04-05T09:46:25.221Z</time>
      </trkpt>
      <trkpt lat="42.44457" lon="23.12016">
        <ele>729.291506</ele>
        <time>2022-04-05T09:46:27.265Z</time>
      </trkpt>
      <trkpt lat="42.44445" lon="23.12017">
        <ele>728.83251</ele>
        <time>2022-04-05T09:46:29.234Z</time>
      </trkpt>
      <trkpt lat="42.44432" lon="23.12019">
        <ele>728.353999</ele>
        <time>2022-04-05T09:46:31.231Z</time>
      </trkpt>
      <trkpt lat="42.4442" lon="23.12021">
        <ele>727.872295</ele>
        <time>2022-04-05T09:46:33.236Z</time>
      </trkpt>
      <trkpt lat="42.44408" lon="23.12022">
        <ele>727.410308</ele>
        <time>2022-04-05T09:46:35.232Z</time>
      </trkpt>
      <trkpt lat="42.44395" lon="23.12024">
        <ele>726.932918</ele>
        <time>2022-04-05T09:46:37.234Z</time>
      </trkpt>
      <trkpt lat="42.44382" lon="23.12026">
        <ele>726.451484</ele>
        <time>2022-04-05T09:46:39.251Z</time>
      </trkpt>
      <trkpt lat="42.4437" lon="23.12027">
        <ele>725.982143</ele>
        <time>2022-04-05T09:46:41.232Z</time>
      </trkpt>
      <trkpt lat="42.44357" lon="23.12028">
        <ele>725.489593</ele>
        <time>2022-04-05T09:46:43.239Z</time>
      </trkpt>
      <trkpt lat="42.44344" lon="23.1203">
        <ele>724.989218</ele>
        <time>2022-04-05T09:46:45.239Z</time>
      </trkpt>
      <trkpt lat="42.44331" lon="23.12032">
        <ele>724.420761</ele>
        <time>2022-04-05T09:46:47.242Z</time>
      </trkpt>
      <trkpt lat="42.44317" lon="23.12033">
        <ele>723.830542</ele>
        <time>2022-04-05T09:46:49.236Z</time>
      </trkpt>
      <trkpt lat="42.44304" lon="23.12035">
        <ele>723.234735</ele>
        <time>2022-04-05T09:46:51.252Z</time>
      </trkpt>
      <trkpt lat="42.44289" lon="23.12037">
        <ele>722.609798</ele>
        <time>2022-04-05T09:46:53.232Z</time>
      </trkpt>
      <trkpt lat="42.44275" lon="23.12038">
        <ele>721.980775</ele>
        <time>2022-04-05T09:46:55.240Z</time>
      </trkpt>
      <trkpt lat="42.44261" lon="23.12039">
        <ele>721.353075</ele>
        <time>2022-04-05T09:46:57.227Z</time>
      </trkpt>
      <trkpt lat="42.44247" lon="23.12041">
        <ele>720.746009</ele>
        <time>2022-04-05T09:46:59.243Z</time>
      </trkpt>
      <trkpt lat="42.44233" lon="23.12042">
        <ele>720.155501</ele>
        <time>2022-04-05T09:47:01.267Z</time>
      </trkpt>
      <trkpt lat="42.44219" lon="23.12044">
        <ele>719.525666</ele>
        <time>2022-04-05T09:47:03.242Z</time>
      </trkpt>
      <trkpt lat="42.44204" lon="23.12046">
        <ele>718.891192</ele>
        <time>2022-04-05T09:47:05.241Z</time>
      </trkpt>
      <trkpt lat="42.4419" lon="23.12047">
        <ele>718.254651</ele>
        <time>2022-04-05T09:47:07.225Z</time>
      </trkpt>
      <trkpt lat="42.44175" lon="23.12049">
        <ele>717.616141</ele>
        <time>2022-04-05T09:47:09.236Z</time>
      </trkpt>
      <trkpt lat="42.4416" lon="23.1205">
        <ele>717.021502</ele>
        <time>2022-04-05T09:47:11.249Z</time>
      </trkpt>
      <trkpt lat="42.44146" lon="23.12052">
        <ele>716.894022</ele>
        <time>2022-04-05T09:47:13.242Z</time>
      </trkpt>
      <trkpt lat="42.44131" lon="23.12054">
        <ele>716.765687</ele>
        <time>2022-04-05T09:47:15.234Z</time>
      </trkpt>
      <trkpt lat="42.44116" lon="23.12056">
        <ele>716.639972</ele>
        <time>2022-04-05T09:47:17.238Z</time>
      </trkpt>
      <trkpt lat="42.44101" lon="23.12057">
        <ele>716.512492</ele>
        <time>2022-04-05T09:47:19.273Z</time>
      </trkpt>
      <trkpt lat="42.44087" lon="23.12059">
        <ele>716.390195</ele>
        <time>2022-04-05T09:47:21.241Z</time>
      </trkpt>
      <trkpt lat="42.44073" lon="23.12061">
        <ele>716.270569</ele>
        <time>2022-04-05T09:47:23.237Z</time>
      </trkpt>
      <trkpt lat="42.4406" lon="23.12062">
        <ele>716.156073</ele>
        <time>2022-04-05T09:47:25.242Z</time>
      </trkpt>
      <trkpt lat="42.44048" lon="23.12063">
        <ele>716.050179</ele>
        <time>2022-04-05T09:47:27.218Z</time>
      </trkpt>
      <trkpt lat="42.44036" lon="23.12065">
        <ele>715.948376</ele>
        <time>2022-04-05T09:47:29.238Z</time>
      </trkpt>
      <trkpt lat="42.44025" lon="23.12067">
        <ele>715.854247</ele>
        <time>2022-04-05T09:47:31.241Z</time>
      </trkpt>
      <trkpt lat="42.44015" lon="23.12068">
        <ele>715.768121</ele>
        <time>2022-04-05T09:47:33.239Z</time>
      </trkpt>
      <trkpt lat="42.44005" lon="23.1207">
        <ele>715.685142</ele>
        <time>2022-04-05T09:47:35.244Z</time>
      </trkpt>
      <trkpt lat="42.43996" lon="23.12071">
        <ele>715.606571</ele>
        <time>2022-04-05T09:47:37.236Z</time>
      </trkpt>
      <trkpt lat="42.43984" lon="23.12072">
        <ele>715.501752</ele>
        <time>2022-04-05T09:47:40.246Z</time>
      </trkpt>
      <trkpt lat="42.43974" lon="23.12072">
        <ele>715.645907</ele>
        <time>2022-04-05T09:47:43.247Z</time>
      </trkpt>
      <trkpt lat="42.43956" lon="23.12076">
        <ele>716.002076</ele>
        <time>2022-04-05T09:49:19.247Z</time>
      </trkpt>
      <trkpt lat="42.43945" lon="23.12078">
        <ele>716.210353</ele>
        <time>2022-04-05T09:49:23.252Z</time>
      </trkpt>
      <trkpt lat="42.43936" lon="23.12079">
        <ele>716.387404</ele>
        <time>2022-04-05T09:49:26.232Z</time>
      </trkpt>
      <trkpt lat="42.43924" lon="23.12081">
        <ele>716.618149</ele>
        <time>2022-04-05T09:49:30.244Z</time>
      </trkpt>
      <trkpt lat="42.43914" lon="23.12082">
        <ele>716.814363</ele>
        <time>2022-04-05T09:49:33.236Z</time>
      </trkpt>
      <trkpt lat="42.43903" lon="23.12084">
        <ele>717.014381</ele>
        <time>2022-04-05T09:49:36.229Z</time>
      </trkpt>
      <trkpt lat="42.43893" lon="23.12085">
        <ele>717.219712</ele>
        <time>2022-04-05T09:49:39.241Z</time>
      </trkpt>
      <trkpt lat="42.43882" lon="23.12086">
        <ele>717.42326</ele>
        <time>2022-04-05T09:49:42.241Z</time>
      </trkpt>
      <trkpt lat="42.43871" lon="23.12088">
        <ele>717.631361</ele>
        <time>2022-04-05T09:49:45.237Z</time>
      </trkpt>
      <trkpt lat="42.43859" lon="23.1209">
        <ele>717.860203</ele>
        <time>2022-04-05T09:49:48.251Z</time>
      </trkpt>
      <trkpt lat="42.43847" lon="23.12091">
        <ele>718.094356</ele>
        <time>2022-04-05T09:49:51.253Z</time>
      </trkpt>
      <trkpt lat="42.43836" lon="23.12093">
        <ele>718.303016</ele>
        <time>2022-04-05T09:49:54.235Z</time>
      </trkpt>
      <trkpt lat="42.43827" lon="23.12095">
        <ele>718.486466</ele>
        <time>2022-04-05T09:49:57.259Z</time>
      </trkpt>
      <trkpt lat="42.43815" lon="23.12095">
        <ele>718.70656</ele>
        <time>2022-04-05T09:50:01.238Z</time>
      </trkpt>
      <trkpt lat="42.43805" lon="23.12095">
        <ele>718.90163</ele>
        <time>2022-04-05T09:50:05.242Z</time>
      </trkpt>
      <trkpt lat="42.43795" lon="23.12094">
        <ele>719.010387</ele>
        <time>2022-04-05T09:50:10.234Z</time>
      </trkpt>
      <trkpt lat="42.4378" lon="23.12096">
        <ele>719.153278</ele>
        <time>2022-04-05T09:50:49.245Z</time>
      </trkpt>
      <trkpt lat="42.4377" lon="23.12097">
        <ele>719.250964</ele>
        <time>2022-04-05T09:50:53.239Z</time>
      </trkpt>
      <trkpt lat="42.43761" lon="23.12097">
        <ele>719.340756</ele>
        <time>2022-04-05T09:50:56.253Z</time>
      </trkpt>
      <trkpt lat="42.43751" lon="23.12097">
        <ele>719.433422</ele>
        <time>2022-04-05T09:50:59.263Z</time>
      </trkpt>
      <trkpt lat="42.43741" lon="23.12097">
        <ele>719.527043</ele>
        <time>2022-04-05T09:51:02.229Z</time>
      </trkpt>
      <trkpt lat="42.43731" lon="23.12097">
        <ele>719.623519</ele>
        <time>2022-04-05T09:51:05.244Z</time>
      </trkpt>
      <trkpt lat="42.43721" lon="23.12097">
        <ele>719.723818</ele>
        <time>2022-04-05T09:51:08.260Z</time>
      </trkpt>
      <trkpt lat="42.4371" lon="23.12097">
        <ele>719.829849</ele>
        <time>2022-04-05T09:51:11.249Z</time>
      </trkpt>
      <trkpt lat="42.43698" lon="23.12097">
        <ele>719.9379</ele>
        <time>2022-04-05T09:51:14.233Z</time>
      </trkpt>
      <trkpt lat="42.43686" lon="23.12096">
        <ele>720.051788</ele>
        <time>2022-04-05T09:51:17.255Z</time>
      </trkpt>
      <trkpt lat="42.43674" lon="23.12095">
        <ele>720.175254</ele>
        <time>2022-04-05T09:51:20.245Z</time>
      </trkpt>
      <trkpt lat="42.4366" lon="23.12094">
        <ele>720.300585</ele>
        <time>2022-04-05T09:51:23.237Z</time>
      </trkpt>
      <trkpt lat="42.43648" lon="23.12092">
        <ele>720.421468</ele>
        <time>2022-04-05T09:51:26.233Z</time>
      </trkpt>
      <trkpt lat="42.43638" lon="23.12091">
        <ele>720.512347</ele>
        <time>2022-04-05T09:51:28.238Z</time>
      </trkpt>
      <trkpt lat="42.43628" lon="23.1209">
        <ele>720.612802</ele>
        <time>2022-04-05T09:51:30.233Z</time>
      </trkpt>
      <trkpt lat="42.43617" lon="23.1209">
        <ele>720.459475</ele>
        <time>2022-04-05T09:51:32.292Z</time>
      </trkpt>
      <trkpt lat="42.43606" lon="23.12088">
        <ele>720.181944</ele>
        <time>2022-04-05T09:51:34.234Z</time>
      </trkpt>
      <trkpt lat="42.43595" lon="23.12088">
        <ele>719.904812</ele>
        <time>2022-04-05T09:51:36.267Z</time>
      </trkpt>
      <trkpt lat="42.43584" lon="23.12086">
        <ele>719.617302</ele>
        <time>2022-04-05T09:51:38.241Z</time>
      </trkpt>
      <trkpt lat="42.43573" lon="23.12085">
        <ele>719.334712</ele>
        <time>2022-04-05T09:51:40.246Z</time>
      </trkpt>
      <trkpt lat="42.43561" lon="23.12084">
        <ele>719.042002</ele>
        <time>2022-04-05T09:51:42.220Z</time>
      </trkpt>
      <trkpt lat="42.43548" lon="23.12083">
        <ele>718.721971</ele>
        <time>2022-04-05T09:51:44.234Z</time>
      </trkpt>
      <trkpt lat="42.43535" lon="23.12082">
        <ele>718.388488</ele>
        <time>2022-04-05T09:51:46.246Z</time>
      </trkpt>
      <trkpt lat="42.43522" lon="23.12081">
        <ele>718.047682</ele>
        <time>2022-04-05T09:51:48.230Z</time>
      </trkpt>
      <trkpt lat="42.43509" lon="23.1208">
        <ele>717.709636</ele>
        <time>2022-04-05T09:51:50.232Z</time>
      </trkpt>
      <trkpt lat="42.43495" lon="23.12079">
        <ele>717.374313</ele>
        <time>2022-04-05T09:51:52.236Z</time>
      </trkpt>
      <trkpt lat="42.43483" lon="23.12078">
        <ele>717.051355</ele>
        <time>2022-04-05T09:51:54.272Z</time>
      </trkpt>
      <trkpt lat="42.4347" lon="23.12077">
        <ele>716.731046</ele>
        <time>2022-04-05T09:51:56.235Z</time>
      </trkpt>
      <trkpt lat="42.43457" lon="23.12076">
        <ele>716.408202</ele>
        <time>2022-04-05T09:51:58.228Z</time>
      </trkpt>
      <trkpt lat="42.43445" lon="23.12075">
        <ele>716.098229</ele>
        <time>2022-04-05T09:52:00.304Z</time>
      </trkpt>
      <trkpt lat="42.43434" lon="23.12074">
        <ele>715.983938</ele>
        <time>2022-04-05T09:52:02.235Z</time>
      </trkpt>
      <trkpt lat="42.43423" lon="23.12073">
        <ele>715.881513</ele>
        <time>2022-04-05T09:52:04.231Z</time>
      </trkpt>
      <trkpt lat="42.43412" lon="23.12072">
        <ele>715.779259</ele>
        <time>2022-04-05T09:52:06.235Z</time>
      </trkpt>
      <trkpt lat="42.43401" lon="23.12071">
        <ele>715.681627</ele>
        <time>2022-04-05T09:52:08.222Z</time>
      </trkpt>
      <trkpt lat="42.4339" lon="23.1207">
        <ele>715.579374</ele>
        <time>2022-04-05T09:52:10.242Z</time>
      </trkpt>
      <trkpt lat="42.4338" lon="23.12068">
        <ele>715.479893</ele>
        <time>2022-04-05T09:52:12.239Z</time>
      </trkpt>
      <trkpt lat="42.4337" lon="23.12068">
        <ele>715.385244</ele>
        <time>2022-04-05T09:52:14.245Z</time>
      </trkpt>
      <trkpt lat="42.4336" lon="23.12067">
        <ele>715.296205</ele>
        <time>2022-04-05T09:52:16.239Z</time>
      </trkpt>
      <trkpt lat="42.4335" lon="23.12067">
        <ele>715.207919</ele>
        <time>2022-04-05T09:52:18.233Z</time>
      </trkpt>
      <trkpt lat="42.43341" lon="23.12065">
        <ele>715.119401</ele>
        <time>2022-04-05T09:52:20.286Z</time>
      </trkpt>
      <trkpt lat="42.43331" lon="23.12064">
        <ele>715.029813</ele>
        <time>2022-04-05T09:52:22.293Z</time>
      </trkpt>
      <trkpt lat="42.43322" lon="23.12063">
        <ele>714.941573</ele>
        <time>2022-04-05T09:52:24.220Z</time>
      </trkpt>
      <trkpt lat="42.43313" lon="23.12061">
        <ele>714.856589</ele>
        <time>2022-04-05T09:52:26.246Z</time>
      </trkpt>
      <trkpt lat="42.43304" lon="23.1206">
        <ele>714.773167</ele>
        <time>2022-04-05T09:52:28.231Z</time>
      </trkpt>
      <trkpt lat="42.43295" lon="23.12058">
        <ele>714.686169</ele>
        <time>2022-04-05T09:52:30.237Z</time>
      </trkpt>
      <trkpt lat="42.43285" lon="23.12056">
        <ele>714.595495</ele>
        <time>2022-04-05T09:52:32.222Z</time>
      </trkpt>
      <trkpt lat="42.43275" lon="23.12055">
        <ele>714.50335</ele>
        <time>2022-04-05T09:52:34.245Z</time>
      </trkpt>
      <trkpt lat="42.43265" lon="23.12053">
        <ele>714.419624</ele>
        <time>2022-04-05T09:52:36.252Z</time>
      </trkpt>
      <trkpt lat="42.43255" lon="23.12052">
        <ele>714.565049</ele>
        <time>2022-04-05T09:52:38.246Z</time>
      </trkpt>
      <trkpt lat="42.43246" lon="23.12051">
        <ele>714.701745</ele>
        <time>2022-04-05T09:52:40.243Z</time>
      </trkpt>
      <trkpt lat="42.43237" lon="23.12049">
        <ele>714.841713</ele>
        <time>2022-04-05T09:52:42.251Z</time>
      </trkpt>
      <trkpt lat="42.43227" lon="23.12048">
        <ele>714.985792</ele>
        <time>2022-04-05T09:52:44.237Z</time>
      </trkpt>
      <trkpt lat="42.43218" lon="23.12046">
        <ele>715.121858</ele>
        <time>2022-04-05T09:52:46.230Z</time>
      </trkpt>
      <trkpt lat="42.43208" lon="23.12044">
        <ele>715.267902</ele>
        <time>2022-04-05T09:52:48.249Z</time>
      </trkpt>
      <trkpt lat="42.43198" lon="23.12043">
        <ele>715.415127</ele>
        <time>2022-04-05T09:52:50.268Z</time>
      </trkpt>
      <trkpt lat="42.43188" lon="23.12041">
        <ele>715.558132</ele>
        <time>2022-04-05T09:52:52.236Z</time>
      </trkpt>
      <trkpt lat="42.43179" lon="23.12039">
        <ele>715.696934</ele>
        <time>2022-04-05T09:52:54.239Z</time>
      </trkpt>
      <trkpt lat="42.43169" lon="23.12038">
        <ele>715.842583</ele>
        <time>2022-04-05T09:52:56.285Z</time>
      </trkpt>
      <trkpt lat="42.43159" lon="23.12036">
        <ele>715.991025</ele>
        <time>2022-04-05T09:52:58.249Z</time>
      </trkpt>
      <trkpt lat="42.43149" lon="23.12034">
        <ele>716.141338</ele>
        <time>2022-04-05T09:53:00.231Z</time>
      </trkpt>
      <trkpt lat="42.43138" lon="23.12032">
        <ele>716.293181</ele>
        <time>2022-04-05T09:53:02.240Z</time>
      </trkpt>
      <trkpt lat="42.43128" lon="23.1203">
        <ele>716.441987</ele>
        <time>2022-04-05T09:53:04.243Z</time>
      </trkpt>
      <trkpt lat="42.43118" lon="23.12028">
        <ele>716.586441</ele>
        <time>2022-04-05T09:53:06.249Z</time>
      </trkpt>
      <trkpt lat="42.43109" lon="23.12027">
        <ele>716.727732</ele>
        <time>2022-04-05T09:53:08.234Z</time>
      </trkpt>
      <trkpt lat="42.43099" lon="23.12025">
        <ele>716.868298</ele>
        <time>2022-04-05T09:53:10.239Z</time>
      </trkpt>
      <trkpt lat="42.43089" lon="23.12023">
        <ele>717.015523</ele>
        <time>2022-04-05T09:53:12.229Z</time>
      </trkpt>
      <trkpt lat="42.43079" lon="23.12022">
        <ele>716.92209</ele>
        <time>2022-04-05T09:53:14.236Z</time>
      </trkpt>
      <trkpt lat="42.43069" lon="23.1202">
        <ele>716.764986</ele>
        <time>2022-04-05T09:53:16.233Z</time>
      </trkpt>
      <trkpt lat="42.43059" lon="23.12018">
        <ele>716.617315</ele>
        <time>2022-04-05T09:53:18.244Z</time>
      </trkpt>
      <trkpt lat="42.43048" lon="23.12016">
        <ele>716.456319</ele>
        <time>2022-04-05T09:53:20.243Z</time>
      </trkpt>
      <trkpt lat="42.43038" lon="23.12014">
        <ele>716.298037</ele>
        <time>2022-04-05T09:53:22.225Z</time>
      </trkpt>
      <trkpt lat="42.43028" lon="23.12013">
        <ele>716.141787</ele>
        <time>2022-04-05T09:53:24.266Z</time>
      </trkpt>
      <trkpt lat="42.43017" lon="23.1201">
        <ele>715.983024</ele>
        <time>2022-04-05T09:53:26.248Z</time>
      </trkpt>
      <trkpt lat="42.43007" lon="23.12009">
        <ele>715.822274</ele>
        <time>2022-04-05T09:53:28.247Z</time>
      </trkpt>
      <trkpt lat="42.42997" lon="23.12007">
        <ele>715.667524</ele>
        <time>2022-04-05T09:53:30.242Z</time>
      </trkpt>
      <trkpt lat="42.42987" lon="23.12007">
        <ele>715.520877</ele>
        <time>2022-04-05T09:53:32.235Z</time>
      </trkpt>
      <trkpt lat="42.42977" lon="23.12005">
        <ele>715.376967</ele>
        <time>2022-04-05T09:53:34.229Z</time>
      </trkpt>
      <trkpt lat="42.42967" lon="23.12004">
        <ele>715.22731</ele>
        <time>2022-04-05T09:53:36.266Z</time>
      </trkpt>
      <trkpt lat="42.42958" lon="23.12003">
        <ele>715.081997</ele>
        <time>2022-04-05T09:53:38.244Z</time>
      </trkpt>
      <trkpt lat="42.42948" lon="23.12002">
        <ele>714.933844</ele>
        <time>2022-04-05T09:53:40.228Z</time>
      </trkpt>
      <trkpt lat="42.42938" lon="23.12002">
        <ele>714.785826</ele>
        <time>2022-04-05T09:53:42.238Z</time>
      </trkpt>
      <trkpt lat="42.42928" lon="23.12001">
        <ele>714.633228</ele>
        <time>2022-04-05T09:53:44.216Z</time>
      </trkpt>
      <trkpt lat="42.42918" lon="23.12">
        <ele>714.485075</ele>
        <time>2022-04-05T09:53:46.275Z</time>
      </trkpt>
      <trkpt lat="42.42908" lon="23.11999">
        <ele>714.332098</ele>
        <time>2022-04-05T09:53:48.242Z</time>
      </trkpt>
      <trkpt lat="42.42898" lon="23.11998">
        <ele>714.080579</ele>
        <time>2022-04-05T09:53:50.236Z</time>
      </trkpt>
      <trkpt lat="42.42888" lon="23.11997">
        <ele>713.831811</ele>
        <time>2022-04-05T09:53:52.257Z</time>
      </trkpt>
      <trkpt lat="42.42879" lon="23.11997">
        <ele>713.588387</ele>
        <time>2022-04-05T09:53:54.233Z</time>
      </trkpt>
      <trkpt lat="42.42869" lon="23.11996">
        <ele>713.339811</ele>
        <time>2022-04-05T09:53:56.238Z</time>
      </trkpt>
      <trkpt lat="42.42859" lon="23.11996">
        <ele>713.086224</ele>
        <time>2022-04-05T09:53:58.233Z</time>
      </trkpt>
      <trkpt lat="42.42849" lon="23.11995">
        <ele>712.837559</ele>
        <time>2022-04-05T09:54:00.261Z</time>
      </trkpt>
      <trkpt lat="42.42839" lon="23.11994">
        <ele>712.588673</ele>
        <time>2022-04-05T09:54:02.259Z</time>
      </trkpt>
      <trkpt lat="42.4283" lon="23.11994">
        <ele>712.355388</ele>
        <time>2022-04-05T09:54:04.244Z</time>
      </trkpt>
      <trkpt lat="42.4282" lon="23.11994">
        <ele>712.119573</ele>
        <time>2022-04-05T09:54:06.230Z</time>
      </trkpt>
      <trkpt lat="42.42811" lon="23.11993">
        <ele>711.885936</ele>
        <time>2022-04-05T09:54:08.218Z</time>
      </trkpt>
      <trkpt lat="42.42801" lon="23.11993">
        <ele>711.647463</ele>
        <time>2022-04-05T09:54:10.247Z</time>
      </trkpt>
      <trkpt lat="42.42792" lon="23.11993">
        <ele>711.411648</ele>
        <time>2022-04-05T09:54:12.253Z</time>
      </trkpt>
      <trkpt lat="42.42783" lon="23.11992">
        <ele>711.18332</ele>
        <time>2022-04-05T09:54:14.284Z</time>
      </trkpt>
      <trkpt lat="42.42769" lon="23.11992">
        <ele>710.84695</ele>
        <time>2022-04-05T09:54:17.227Z</time>
      </trkpt>
      <trkpt lat="42.42757" lon="23.11991">
        <ele>710.525859</ele>
        <time>2022-04-05T09:54:20.269Z</time>
      </trkpt>
      <trkpt lat="42.42744" lon="23.11992">
        <ele>710.199583</ele>
        <time>2022-04-05T09:54:23.228Z</time>
      </trkpt>
      <trkpt lat="42.4273" lon="23.11992">
        <ele>709.863417</ele>
        <time>2022-04-05T09:54:26.274Z</time>
      </trkpt>
      <trkpt lat="42.42717" lon="23.11993">
        <ele>709.569166</ele>
        <time>2022-04-05T09:54:29.239Z</time>
      </trkpt>
      <trkpt lat="42.42704" lon="23.11994">
        <ele>709.282367</ele>
        <time>2022-04-05T09:54:32.281Z</time>
      </trkpt>
      <trkpt lat="42.42691" lon="23.11995">
        <ele>708.994915</ele>
        <time>2022-04-05T09:54:35.229Z</time>
      </trkpt>
      <trkpt lat="42.42678" lon="23.11997">
        <ele>708.717715</ele>
        <time>2022-04-05T09:54:38.274Z</time>
      </trkpt>
      <trkpt lat="42.42665" lon="23.11999">
        <ele>708.425126</ele>
        <time>2022-04-05T09:54:41.210Z</time>
      </trkpt>
      <trkpt lat="42.42656" lon="23.12001">
        <ele>708.222105</ele>
        <time>2022-04-05T09:54:43.236Z</time>
      </trkpt>
      <trkpt lat="42.42646" lon="23.12003">
        <ele>708.016215</ele>
        <time>2022-04-05T09:54:45.244Z</time>
      </trkpt>
      <trkpt lat="42.42637" lon="23.12005">
        <ele>707.810325</ele>
        <time>2022-04-05T09:54:47.249Z</time>
      </trkpt>
      <trkpt lat="42.42628" lon="23.12007">
        <ele>707.599027</ele>
        <time>2022-04-05T09:54:49.272Z</time>
      </trkpt>
      <trkpt lat="42.42618" lon="23.1201">
        <ele>707.389574</ele>
        <time>2022-04-05T09:54:51.234Z</time>
      </trkpt>
      <trkpt lat="42.42609" lon="23.12013">
        <ele>707.174515</ele>
        <time>2022-04-05T09:54:53.237Z</time>
      </trkpt>
      <trkpt lat="42.42599" lon="23.12016">
        <ele>706.961363</ele>
        <time>2022-04-05T09:54:55.217Z</time>
      </trkpt>
      <trkpt lat="42.4259" lon="23.12019">
        <ele>706.760436</ele>
        <time>2022-04-05T09:54:57.227Z</time>
      </trkpt>
      <trkpt lat="42.42581" lon="23.12023">
        <ele>706.551497</ele>
        <time>2022-04-05T09:54:59.225Z</time>
      </trkpt>
      <trkpt lat="42.42572" lon="23.12027">
        <ele>706.339566</ele>
        <time>2022-04-05T09:55:01.246Z</time>
      </trkpt>
      <trkpt lat="42.42563" lon="23.12031">
        <ele>706.126219</ele>
        <time>2022-04-05T09:55:03.235Z</time>
      </trkpt>
      <trkpt lat="42.42553" lon="23.12035">
        <ele>705.913427</ele>
        <time>2022-04-05T09:55:05.240Z</time>
      </trkpt>
      <trkpt lat="42.42544" lon="23.12039">
        <ele>705.64229</ele>
        <time>2022-04-05T09:55:07.233Z</time>
      </trkpt>
      <trkpt lat="42.42535" lon="23.12044">
        <ele>705.361191</ele>
        <time>2022-04-05T09:55:09.244Z</time>
      </trkpt>
      <trkpt lat="42.42525" lon="23.12049">
        <ele>705.081782</ele>
        <time>2022-04-05T09:55:11.238Z</time>
      </trkpt>
      <trkpt lat="42.42516" lon="23.12053">
        <ele>704.806516</ele>
        <time>2022-04-05T09:55:13.236Z</time>
      </trkpt>
      <trkpt lat="42.42507" lon="23.12059">
        <ele>704.527364</ele>
        <time>2022-04-05T09:55:15.238Z</time>
      </trkpt>
      <trkpt lat="42.42498" lon="23.12064">
        <ele>704.243136</ele>
        <time>2022-04-05T09:55:17.217Z</time>
      </trkpt>
      <trkpt lat="42.42489" lon="23.12069">
        <ele>703.962174</ele>
        <time>2022-04-05T09:55:19.240Z</time>
      </trkpt>
      <trkpt lat="42.4248" lon="23.12075">
        <ele>703.683108</ele>
        <time>2022-04-05T09:55:21.250Z</time>
      </trkpt>
      <trkpt lat="42.42471" lon="23.1208">
        <ele>703.404859</ele>
        <time>2022-04-05T09:55:23.232Z</time>
      </trkpt>
      <trkpt lat="42.42462" lon="23.12086">
        <ele>703.128256</ele>
        <time>2022-04-05T09:55:25.271Z</time>
      </trkpt>
      <trkpt lat="42.42453" lon="23.12092">
        <ele>702.854333</ele>
        <time>2022-04-05T09:55:27.238Z</time>
      </trkpt>
      <trkpt lat="42.42444" lon="23.12098">
        <ele>702.571733</ele>
        <time>2022-04-05T09:55:29.233Z</time>
      </trkpt>
      <trkpt lat="42.42436" lon="23.12104">
        <ele>702.29041</ele>
        <time>2022-04-05T09:55:31.250Z</time>
      </trkpt>
      <trkpt lat="42.42427" lon="23.1211">
        <ele>702.010351</ele>
        <time>2022-04-05T09:55:33.230Z</time>
      </trkpt>
      <trkpt lat="42.42418" lon="23.12116">
        <ele>701.729027</ele>
        <time>2022-04-05T09:55:35.233Z</time>
      </trkpt>
      <trkpt lat="42.42409" lon="23.12122">
        <ele>701.445201</ele>
        <time>2022-04-05T09:55:37.219Z</time>
      </trkpt>
      <trkpt lat="42.424" lon="23.12129">
        <ele>701.165383</ele>
        <time>2022-04-05T09:55:39.261Z</time>
      </trkpt>
      <trkpt lat="42.42391" lon="23.12135">
        <ele>700.882086</ele>
        <time>2022-04-05T09:55:41.244Z</time>
      </trkpt>
      <trkpt lat="42.42382" lon="23.12142">
        <ele>700.809054</ele>
        <time>2022-04-05T09:55:43.238Z</time>
      </trkpt>
      <trkpt lat="42.42373" lon="23.12148">
        <ele>700.814879</ele>
        <time>2022-04-05T09:55:45.268Z</time>
      </trkpt>
      <trkpt lat="42.42365" lon="23.12155">
        <ele>700.820674</ele>
        <time>2022-04-05T09:55:47.232Z</time>
      </trkpt>
      <trkpt lat="42.42356" lon="23.12162">
        <ele>700.826611</ele>
        <time>2022-04-05T09:55:49.241Z</time>
      </trkpt>
      <trkpt lat="42.42347" lon="23.12168">
        <ele>700.832497</ele>
        <time>2022-04-05T09:55:51.264Z</time>
      </trkpt>
      <trkpt lat="42.42338" lon="23.12175">
        <ele>700.838384</ele>
        <time>2022-04-05T09:55:53.240Z</time>
      </trkpt>
      <trkpt lat="42.42329" lon="23.12182">
        <ele>700.844361</ele>
        <time>2022-04-05T09:55:55.232Z</time>
      </trkpt>
      <trkpt lat="42.4232" lon="23.12189">
        <ele>700.85024</ele>
        <time>2022-04-05T09:55:57.235Z</time>
      </trkpt>
      <trkpt lat="42.42311" lon="23.12195">
        <ele>700.856227</ele>
        <time>2022-04-05T09:55:59.229Z</time>
      </trkpt>
      <trkpt lat="42.42302" lon="23.12203">
        <ele>700.862249</ele>
        <time>2022-04-05T09:56:01.244Z</time>
      </trkpt>
      <trkpt lat="42.42293" lon="23.12209">
        <ele>700.868195</ele>
        <time>2022-04-05T09:56:03.235Z</time>
      </trkpt>
      <trkpt lat="42.42284" lon="23.12216">
        <ele>700.874132</ele>
        <time>2022-04-05T09:56:05.229Z</time>
      </trkpt>
      <trkpt lat="42.42275" lon="23.12223">
        <ele>700.879897</ele>
        <time>2022-04-05T09:56:07.233Z</time>
      </trkpt>
      <trkpt lat="42.42266" lon="23.12229">
        <ele>700.885692</ele>
        <time>2022-04-05T09:56:09.249Z</time>
      </trkpt>
      <trkpt lat="42.42257" lon="23.12236">
        <ele>700.891396</ele>
        <time>2022-04-05T09:56:11.247Z</time>
      </trkpt>
      <trkpt lat="42.42249" lon="23.12242">
        <ele>700.897119</ele>
        <time>2022-04-05T09:56:13.242Z</time>
      </trkpt>
      <trkpt lat="42.4224" lon="23.12249">
        <ele>700.902823</ele>
        <time>2022-04-05T09:56:15.235Z</time>
      </trkpt>
      <trkpt lat="42.42231" lon="23.12255">
        <ele>700.911701</ele>
        <time>2022-04-05T09:56:17.231Z</time>
      </trkpt>
      <trkpt lat="42.42222" lon="23.12262">
        <ele>700.990768</ele>
        <time>2022-04-05T09:56:19.230Z</time>
      </trkpt>
      <trkpt lat="42.42214" lon="23.12268">
        <ele>701.069956</ele>
        <time>2022-04-05T09:56:21.244Z</time>
      </trkpt>
      <trkpt lat="42.42205" lon="23.12275">
        <ele>701.152064</ele>
        <time>2022-04-05T09:56:23.230Z</time>
      </trkpt>
      <trkpt lat="42.42195" lon="23.12282">
        <ele>701.234864</ele>
        <time>2022-04-05T09:56:25.241Z</time>
      </trkpt>
      <trkpt lat="42.42186" lon="23.12289">
        <ele>701.317541</ele>
        <time>2022-04-05T09:56:27.232Z</time>
      </trkpt>
      <trkpt lat="42.42177" lon="23.12295">
        <ele>701.40076</ele>
        <time>2022-04-05T09:56:29.220Z</time>
      </trkpt>
      <trkpt lat="42.42168" lon="23.12302">
        <ele>701.485227</ele>
        <time>2022-04-05T09:56:31.240Z</time>
      </trkpt>
      <trkpt lat="42.42158" lon="23.12309">
        <ele>701.568309</ele>
        <time>2022-04-05T09:56:33.228Z</time>
      </trkpt>
      <trkpt lat="42.42149" lon="23.12316">
        <ele>701.653055</ele>
        <time>2022-04-05T09:56:35.237Z</time>
      </trkpt>
      <trkpt lat="42.4214" lon="23.12323">
        <ele>701.73642</ele>
        <time>2022-04-05T09:56:37.244Z</time>
      </trkpt>
      <trkpt lat="42.4213" lon="23.1233">
        <ele>701.82186</ele>
        <time>2022-04-05T09:56:39.202Z</time>
      </trkpt>
      <trkpt lat="42.42121" lon="23.12337">
        <ele>701.909246</ele>
        <time>2022-04-05T09:56:41.240Z</time>
      </trkpt>
      <trkpt lat="42.42111" lon="23.12345">
        <ele>701.995535</ele>
        <time>2022-04-05T09:56:43.295Z</time>
      </trkpt>
      <trkpt lat="42.42102" lon="23.12351">
        <ele>702.079726</ele>
        <time>2022-04-05T09:56:45.232Z</time>
      </trkpt>
      <trkpt lat="42.42092" lon="23.12359">
        <ele>702.165446</ele>
        <time>2022-04-05T09:56:47.232Z</time>
      </trkpt>
      <trkpt lat="42.42083" lon="23.12366">
        <ele>702.25145</ele>
        <time>2022-04-05T09:56:49.244Z</time>
      </trkpt>
      <trkpt lat="42.42073" lon="23.12373">
        <ele>702.319894</ele>
        <time>2022-04-05T09:56:51.236Z</time>
      </trkpt>
      <trkpt lat="42.42064" lon="23.1238">
        <ele>702.19857</ele>
        <time>2022-04-05T09:56:53.238Z</time>
      </trkpt>
      <trkpt lat="42.42054" lon="23.12387">
        <ele>702.076841</ele>
        <time>2022-04-05T09:56:55.250Z</time>
      </trkpt>
      <trkpt lat="42.42045" lon="23.12394">
        <ele>701.954734</ele>
        <time>2022-04-05T09:56:57.222Z</time>
      </trkpt>
      <trkpt lat="42.42035" lon="23.12401">
        <ele>701.832626</ele>
        <time>2022-04-05T09:56:59.225Z</time>
      </trkpt>
      <trkpt lat="42.42025" lon="23.12408">
        <ele>701.711116</ele>
        <time>2022-04-05T09:57:01.228Z</time>
      </trkpt>
      <trkpt lat="42.42016" lon="23.12415">
        <ele>701.592733</ele>
        <time>2022-04-05T09:57:03.239Z</time>
      </trkpt>
      <trkpt lat="42.42007" lon="23.12421">
        <ele>701.476209</ele>
        <time>2022-04-05T09:57:05.284Z</time>
      </trkpt>
      <trkpt lat="42.41997" lon="23.12428">
        <ele>701.361552</ele>
        <time>2022-04-05T09:57:07.233Z</time>
      </trkpt>
      <trkpt lat="42.41988" lon="23.12434">
        <ele>701.247879</ele>
        <time>2022-04-05T09:57:09.239Z</time>
      </trkpt>
      <trkpt lat="42.41979" lon="23.12441">
        <ele>701.133603</ele>
        <time>2022-04-05T09:57:11.261Z</time>
      </trkpt>
      <trkpt lat="42.4197" lon="23.12447">
        <ele>701.022436</ele>
        <time>2022-04-05T09:57:13.223Z</time>
      </trkpt>
      <trkpt lat="42.41962" lon="23.12453">
        <ele>700.912873</ele>
        <time>2022-04-05T09:57:15.257Z</time>
      </trkpt>
      <trkpt lat="42.41953" lon="23.12459">
        <ele>700.804067</ele>
        <time>2022-04-05T09:57:17.224Z</time>
      </trkpt>
      <trkpt lat="42.41944" lon="23.12464">
        <ele>700.696713</ele>
        <time>2022-04-05T09:57:19.231Z</time>
      </trkpt>
      <trkpt lat="42.41936" lon="23.1247">
        <ele>700.589004</ele>
        <time>2022-04-05T09:57:21.236Z</time>
      </trkpt>
      <trkpt lat="42.41927" lon="23.12476">
        <ele>700.486382</ele>
        <time>2022-04-05T09:57:23.248Z</time>
      </trkpt>
      <trkpt lat="42.41919" lon="23.12481">
        <ele>700.380034</ele>
        <time>2022-04-05T09:57:25.232Z</time>
      </trkpt>
      <trkpt lat="42.4191" lon="23.12487">
        <ele>700.364138</ele>
        <time>2022-04-05T09:57:27.240Z</time>
      </trkpt>
      <trkpt lat="42.41898" lon="23.12494">
        <ele>700.482832</ele>
        <time>2022-04-05T09:57:30.241Z</time>
      </trkpt>
      <trkpt lat="42.41886" lon="23.12502">
        <ele>700.601791</ele>
        <time>2022-04-05T09:57:33.232Z</time>
      </trkpt>
      <trkpt lat="42.41878" lon="23.12507">
        <ele>700.682629</ele>
        <time>2022-04-05T09:57:35.232Z</time>
      </trkpt>
      <trkpt lat="42.41869" lon="23.12512">
        <ele>700.763485</ele>
        <time>2022-04-05T09:57:37.238Z</time>
      </trkpt>
      <trkpt lat="42.41858" lon="23.12519">
        <ele>700.87893</ele>
        <time>2022-04-05T09:57:40.233Z</time>
      </trkpt>
      <trkpt lat="42.41846" lon="23.12526">
        <ele>700.992755</ele>
        <time>2022-04-05T09:57:43.231Z</time>
      </trkpt>
      <trkpt lat="42.41834" lon="23.12534">
        <ele>701.110366</ele>
        <time>2022-04-05T09:57:46.235Z</time>
      </trkpt>
      <trkpt lat="42.41822" lon="23.1254">
        <ele>701.224801</ele>
        <time>2022-04-05T09:57:49.249Z</time>
      </trkpt>
      <trkpt lat="42.41811" lon="23.12547">
        <ele>701.329431</ele>
        <time>2022-04-05T09:57:52.229Z</time>
      </trkpt>
      <trkpt lat="42.41801" lon="23.12553">
        <ele>701.428952</ele>
        <time>2022-04-05T09:57:55.232Z</time>
      </trkpt>
      <trkpt lat="42.41791" lon="23.12559">
        <ele>701.530887</ele>
        <time>2022-04-05T09:57:58.230Z</time>
      </trkpt>
      <trkpt lat="42.41779" lon="23.12566">
        <ele>701.639846</ele>
        <time>2022-04-05T09:58:01.222Z</time>
      </trkpt>
      <trkpt lat="42.41768" lon="23.12572">
        <ele>701.749666</ele>
        <time>2022-04-05T09:58:04.235Z</time>
      </trkpt>
      <trkpt lat="42.41757" lon="23.12579">
        <ele>701.853214</ele>
        <time>2022-04-05T09:58:07.265Z</time>
      </trkpt>
      <trkpt lat="42.41747" lon="23.12585">
        <ele>701.879594</ele>
        <time>2022-04-05T09:58:10.219Z</time>
      </trkpt>
      <trkpt lat="42.41737" lon="23.12591">
        <ele>701.71585</ele>
        <time>2022-04-05T09:58:13.266Z</time>
      </trkpt>
      <trkpt lat="42.41728" lon="23.12597">
        <ele>701.559352</ele>
        <time>2022-04-05T09:58:16.233Z</time>
      </trkpt>
      <trkpt lat="42.41718" lon="23.12602">
        <ele>701.408762</ele>
        <time>2022-04-05T09:58:19.218Z</time>
      </trkpt>
      <trkpt lat="42.4171" lon="23.12608">
        <ele>701.261779</ele>
        <time>2022-04-05T09:58:22.241Z</time>
      </trkpt>
      <trkpt lat="42.41701" lon="23.12614">
        <ele>701.115263</ele>
        <time>2022-04-05T09:58:25.241Z</time>
      </trkpt>
      <trkpt lat="42.41691" lon="23.1262">
        <ele>700.963756</ele>
        <time>2022-04-05T09:58:28.246Z</time>
      </trkpt>
      <trkpt lat="42.41682" lon="23.12625">
        <ele>700.811803</ele>
        <time>2022-04-05T09:58:31.226Z</time>
      </trkpt>
      <trkpt lat="42.41673" lon="23.12631">
        <ele>700.658871</ele>
        <time>2022-04-05T09:58:34.236Z</time>
      </trkpt>
      <trkpt lat="42.41663" lon="23.12638">
        <ele>700.497294</ele>
        <time>2022-04-05T09:58:37.237Z</time>
      </trkpt>
      <trkpt lat="42.41653" lon="23.12644">
        <ele>700.327173</ele>
        <time>2022-04-05T09:58:40.239Z</time>
      </trkpt>
      <trkpt lat="42.41642" lon="23.12651">
        <ele>700.153882</ele>
        <time>2022-04-05T09:58:43.231Z</time>
      </trkpt>
      <trkpt lat="42.41632" lon="23.12658">
        <ele>699.972822</ele>
        <time>2022-04-05T09:58:46.234Z</time>
      </trkpt>
      <trkpt lat="42.4162" lon="23.12665">
        <ele>699.789547</ele>
        <time>2022-04-05T09:58:49.241Z</time>
      </trkpt>
      <trkpt lat="42.41609" lon="23.12673">
        <ele>699.603009</ele>
        <time>2022-04-05T09:58:52.214Z</time>
      </trkpt>
      <trkpt lat="42.41598" lon="23.12681">
        <ele>699.411823</ele>
        <time>2022-04-05T09:58:55.223Z</time>
      </trkpt>
      <trkpt lat="42.41586" lon="23.12689">
        <ele>699.237124</ele>
        <time>2022-04-05T09:58:58.219Z</time>
      </trkpt>
      <trkpt lat="42.41578" lon="23.12695">
        <ele>699.223903</ele>
        <time>2022-04-05T09:59:00.234Z</time>
      </trkpt>
      <trkpt lat="42.41569" lon="23.12701">
        <ele>699.210584</ele>
        <time>2022-04-05T09:59:02.237Z</time>
      </trkpt>
      <trkpt lat="42.41561" lon="23.12708">
        <ele>699.197215</ele>
        <time>2022-04-05T09:59:04.261Z</time>
      </trkpt>
      <trkpt lat="42.41553" lon="23.12714">
        <ele>699.18369</ele>
        <time>2022-04-05T09:59:06.226Z</time>
      </trkpt>
      <trkpt lat="42.41544" lon="23.12721">
        <ele>699.169851</ele>
        <time>2022-04-05T09:59:08.241Z</time>
      </trkpt>
      <trkpt lat="42.41535" lon="23.12728">
        <ele>699.155753</ele>
        <time>2022-04-05T09:59:10.227Z</time>
      </trkpt>
      <trkpt lat="42.41527" lon="23.12735">
        <ele>699.141774</ele>
        <time>2022-04-05T09:59:12.229Z</time>
      </trkpt>
      <trkpt lat="42.41518" lon="23.12743">
        <ele>699.127405</ele>
        <time>2022-04-05T09:59:14.235Z</time>
      </trkpt>
      <trkpt lat="42.4151" lon="23.1275">
        <ele>699.112861</ele>
        <time>2022-04-05T09:59:16.222Z</time>
      </trkpt>
      <trkpt lat="42.41501" lon="23.12758">
        <ele>699.098012</ele>
        <time>2022-04-05T09:59:18.246Z</time>
      </trkpt>
      <trkpt lat="42.41492" lon="23.12765">
        <ele>699.083465</ele>
        <time>2022-04-05T09:59:20.229Z</time>
      </trkpt>
      <trkpt lat="42.41483" lon="23.12773">
        <ele>699.068513</ele>
        <time>2022-04-05T09:59:22.217Z</time>
      </trkpt>
      <trkpt lat="42.41474" lon="23.12781">
        <ele>699.054012</ele>
        <time>2022-04-05T09:59:24.237Z</time>
      </trkpt>
      <trkpt lat="42.41466" lon="23.12788">
        <ele>699.039793</ele>
        <time>2022-04-05T09:59:26.243Z</time>
      </trkpt>
      <trkpt lat="42.41457" lon="23.12795">
        <ele>699.025942</ele>
        <time>2022-04-05T09:59:28.220Z</time>
      </trkpt>
      <trkpt lat="42.41449" lon="23.12802">
        <ele>699.011974</ele>
        <time>2022-04-05T09:59:30.239Z</time>
      </trkpt>
      <trkpt lat="42.41441" lon="23.12809">
        <ele>698.99818</ele>
        <time>2022-04-05T09:59:32.232Z</time>
      </trkpt>
      <trkpt lat="42.41433" lon="23.12816">
        <ele>699.034145</ele>
        <time>2022-04-05T09:59:34.217Z</time>
      </trkpt>
      <trkpt lat="42.41425" lon="23.12823">
        <ele>699.300757</ele>
        <time>2022-04-05T09:59:36.256Z</time>
      </trkpt>
      <trkpt lat="42.41417" lon="23.1283">
        <ele>699.569498</ele>
        <time>2022-04-05T09:59:38.236Z</time>
      </trkpt>
      <trkpt lat="42.41409" lon="23.12837">
        <ele>699.83357</ele>
        <time>2022-04-05T09:59:40.234Z</time>
      </trkpt>
      <trkpt lat="42.41401" lon="23.12843">
        <ele>700.092988</ele>
        <time>2022-04-05T09:59:42.265Z</time>
      </trkpt>
      <trkpt lat="42.41394" lon="23.1285">
        <ele>700.350168</ele>
        <time>2022-04-05T09:59:44.245Z</time>
      </trkpt>
      <trkpt lat="42.41386" lon="23.12856">
        <ele>700.606247</ele>
        <time>2022-04-05T09:59:46.214Z</time>
      </trkpt>
      <trkpt lat="42.41375" lon="23.12866">
        <ele>700.984116</ele>
        <time>2022-04-05T09:59:49.219Z</time>
      </trkpt>
      <trkpt lat="42.41364" lon="23.12876">
        <ele>701.36797</ele>
        <time>2022-04-05T09:59:52.217Z</time>
      </trkpt>
      <trkpt lat="42.41356" lon="23.12883">
        <ele>701.625008</ele>
        <time>2022-04-05T09:59:54.231Z</time>
      </trkpt>
      <trkpt lat="42.41346" lon="23.12892">
        <ele>701.972599</ele>
        <time>2022-04-05T09:59:57.231Z</time>
      </trkpt>
      <trkpt lat="42.41334" lon="23.12902">
        <ele>702.364751</ele>
        <time>2022-04-05T10:00:00.238Z</time>
      </trkpt>
      <trkpt lat="42.41325" lon="23.1291">
        <ele>702.659339</ele>
        <time>2022-04-05T10:00:02.236Z</time>
      </trkpt>
      <trkpt lat="42.41317" lon="23.12916">
        <ele>702.928367</ele>
        <time>2022-04-05T10:00:04.257Z</time>
      </trkpt>
      <trkpt lat="42.41306" lon="23.12927">
        <ele>703.308617</ele>
        <time>2022-04-05T10:00:07.255Z</time>
      </trkpt>
      <trkpt lat="42.41296" lon="23.12936">
        <ele>703.666541</ele>
        <time>2022-04-05T10:00:10.226Z</time>
      </trkpt>
      <trkpt lat="42.41285" lon="23.12945">
        <ele>704.017499</ele>
        <time>2022-04-05T10:00:13.225Z</time>
      </trkpt>
      <trkpt lat="42.41275" lon="23.12955">
        <ele>704.222122</ele>
        <time>2022-04-05T10:00:16.223Z</time>
      </trkpt>
      <trkpt lat="42.41267" lon="23.12967">
        <ele>704.382857</ele>
        <time>2022-04-05T10:00:19.240Z</time>
      </trkpt>
      <trkpt lat="42.41259" lon="23.12978">
        <ele>704.545176</ele>
        <time>2022-04-05T10:00:22.219Z</time>
      </trkpt>
      <trkpt lat="42.41248" lon="23.12986">
        <ele>704.711541</ele>
        <time>2022-04-05T10:00:25.211Z</time>
      </trkpt>
      <trkpt lat="42.41236" lon="23.12992">
        <ele>704.880969</ele>
        <time>2022-04-05T10:00:28.221Z</time>
      </trkpt>
      <trkpt lat="42.41225" lon="23.13">
        <ele>705.05041</ele>
        <time>2022-04-05T10:00:31.229Z</time>
      </trkpt>
      <trkpt lat="42.41215" lon="23.13009">
        <ele>705.221988</ele>
        <time>2022-04-05T10:00:34.221Z</time>
      </trkpt>
      <trkpt lat="42.41204" lon="23.13017">
        <ele>705.388186</ele>
        <time>2022-04-05T10:00:37.221Z</time>
      </trkpt>
      <trkpt lat="42.41197" lon="23.13024">
        <ele>705.511225</ele>
        <time>2022-04-05T10:00:39.237Z</time>
      </trkpt>
      <trkpt lat="42.41189" lon="23.1303">
        <ele>705.636036</ele>
        <time>2022-04-05T10:00:41.240Z</time>
      </trkpt>
      <trkpt lat="42.41181" lon="23.13037">
        <ele>705.762011</ele>
        <time>2022-04-05T10:00:43.215Z</time>
      </trkpt>
      <trkpt lat="42.41173" lon="23.13043">
        <ele>705.884262</ele>
        <time>2022-04-05T10:00:45.240Z</time>
      </trkpt>
      <trkpt lat="42.41161" lon="23.13051">
        <ele>706.065206</ele>
        <time>2022-04-05T10:00:48.247Z</time>
      </trkpt>
      <trkpt lat="42.4115" lon="23.13059">
        <ele>706.242157</ele>
        <time>2022-04-05T10:00:51.239Z</time>
      </trkpt>
      <trkpt lat="42.41142" lon="23.13064">
        <ele>706.365131</ele>
        <time>2022-04-05T10:00:53.238Z</time>
      </trkpt>
      <trkpt lat="42.41133" lon="23.13069">
        <ele>706.493684</ele>
        <time>2022-04-05T10:00:55.221Z</time>
      </trkpt>
      <trkpt lat="42.41124" lon="23.13073">
        <ele>706.606639</ele>
        <time>2022-04-05T10:00:57.267Z</time>
      </trkpt>
      <trkpt lat="42.41111" lon="23.13078">
        <ele>706.764998</ele>
        <time>2022-04-05T10:01:00.288Z</time>
      </trkpt>
      <trkpt lat="42.41098" lon="23.13083">
        <ele>706.921234</ele>
        <time>2022-04-05T10:01:03.228Z</time>
      </trkpt>
      <trkpt lat="42.41086" lon="23.13087">
        <ele>707.07477</ele>
        <time>2022-04-05T10:01:06.243Z</time>
      </trkpt>
      <trkpt lat="42.41073" lon="23.13092">
        <ele>707.229444</ele>
        <time>2022-04-05T10:01:09.251Z</time>
      </trkpt>
      <trkpt lat="42.4106" lon="23.13094">
        <ele>707.378186</ele>
        <time>2022-04-05T10:01:12.229Z</time>
      </trkpt>
      <trkpt lat="42.41049" lon="23.13098">
        <ele>707.519162</ele>
        <time>2022-04-05T10:01:15.239Z</time>
      </trkpt>
      <trkpt lat="42.41037" lon="23.13099">
        <ele>707.660353</ele>
        <time>2022-04-05T10:01:18.234Z</time>
      </trkpt>
      <trkpt lat="42.41025" lon="23.131">
        <ele>707.801617</ele>
        <time>2022-04-05T10:01:21.244Z</time>
      </trkpt>
      <trkpt lat="42.41011" lon="23.13101">
        <ele>707.960037</ele>
        <time>2022-04-05T10:01:24.231Z</time>
      </trkpt>
      <trkpt lat="42.40998" lon="23.13101">
        <ele>708.114854</ele>
        <time>2022-04-05T10:01:27.231Z</time>
      </trkpt>
      <trkpt lat="42.40989" lon="23.131">
        <ele>708.22164</ele>
        <time>2022-04-05T10:01:29.250Z</time>
      </trkpt>
      <trkpt lat="42.4098" lon="23.131">
        <ele>708.328425</ele>
        <time>2022-04-05T10:01:31.223Z</time>
      </trkpt>
      <trkpt lat="42.40966" lon="23.131">
        <ele>708.484475</ele>
        <time>2022-04-05T10:01:34.218Z</time>
      </trkpt>
      <trkpt lat="42.40954" lon="23.13098">
        <ele>708.634959</ele>
        <time>2022-04-05T10:01:37.232Z</time>
      </trkpt>
      <trkpt lat="42.40941" lon="23.13096">
        <ele>708.501597</ele>
        <time>2022-04-05T10:01:40.270Z</time>
      </trkpt>
      <trkpt lat="42.40928" lon="23.13094">
        <ele>708.349357</ele>
        <time>2022-04-05T10:01:43.220Z</time>
      </trkpt>
      <trkpt lat="42.40916" lon="23.13091">
        <ele>708.20453</ele>
        <time>2022-04-05T10:01:46.275Z</time>
      </trkpt>
      <trkpt lat="42.40904" lon="23.13086">
        <ele>708.053243</ele>
        <time>2022-04-05T10:01:49.229Z</time>
      </trkpt>
      <trkpt lat="42.40891" lon="23.13081">
        <ele>707.897297</ele>
        <time>2022-04-05T10:01:52.242Z</time>
      </trkpt>
      <trkpt lat="42.40879" lon="23.13077">
        <ele>707.748317</ele>
        <time>2022-04-05T10:01:55.256Z</time>
      </trkpt>
      <trkpt lat="42.40868" lon="23.13072">
        <ele>707.607762</ele>
        <time>2022-04-05T10:01:58.253Z</time>
      </trkpt>
      <trkpt lat="42.40857" lon="23.13066">
        <ele>707.463176</ele>
        <time>2022-04-05T10:02:01.233Z</time>
      </trkpt>
      <trkpt lat="42.40845" lon="23.13061">
        <ele>707.315229</ele>
        <time>2022-04-05T10:02:04.227Z</time>
      </trkpt>
      <trkpt lat="42.40834" lon="23.13054">
        <ele>707.169683</ele>
        <time>2022-04-05T10:02:07.237Z</time>
      </trkpt>
      <trkpt lat="42.40822" lon="23.13049">
        <ele>707.019488</ele>
        <time>2022-04-05T10:02:10.223Z</time>
      </trkpt>
      <trkpt lat="42.4081" lon="23.13043">
        <ele>706.865919</ele>
        <time>2022-04-05T10:02:13.232Z</time>
      </trkpt>
      <trkpt lat="42.40798" lon="23.13037">
        <ele>706.712345</ele>
        <time>2022-04-05T10:02:16.224Z</time>
      </trkpt>
      <trkpt lat="42.40786" lon="23.13032">
        <ele>706.559635</ele>
        <time>2022-04-05T10:02:19.282Z</time>
      </trkpt>
      <trkpt lat="42.40774" lon="23.13026">
        <ele>706.440083</ele>
        <time>2022-04-05T10:02:22.230Z</time>
      </trkpt>
      <trkpt lat="42.40761" lon="23.13021">
        <ele>706.345687</ele>
        <time>2022-04-05T10:02:25.229Z</time>
      </trkpt>
      <trkpt lat="42.40749" lon="23.13016">
        <ele>706.253886</ele>
        <time>2022-04-05T10:02:28.235Z</time>
      </trkpt>
      <trkpt lat="42.40737" lon="23.1301">
        <ele>706.164307</ele>
        <time>2022-04-05T10:02:31.234Z</time>
      </trkpt>
      <trkpt lat="42.40726" lon="23.13005">
        <ele>706.076268</ele>
        <time>2022-04-05T10:02:34.241Z</time>
      </trkpt>
      <trkpt lat="42.40714" lon="23.13">
        <ele>705.988063</ele>
        <time>2022-04-05T10:02:37.237Z</time>
      </trkpt>
      <trkpt lat="42.40702" lon="23.12995">
        <ele>705.900186</ele>
        <time>2022-04-05T10:02:40.238Z</time>
      </trkpt>
      <trkpt lat="42.40691" lon="23.1299">
        <ele>705.815909</ele>
        <time>2022-04-05T10:02:43.237Z</time>
      </trkpt>
      <trkpt lat="42.4068" lon="23.12985">
        <ele>705.728556</ele>
        <time>2022-04-05T10:02:46.236Z</time>
      </trkpt>
      <trkpt lat="42.40668" lon="23.1298">
        <ele>705.639616</ele>
        <time>2022-04-05T10:02:49.233Z</time>
      </trkpt>
      <trkpt lat="42.40656" lon="23.12975">
        <ele>705.548164</ele>
        <time>2022-04-05T10:02:52.242Z</time>
      </trkpt>
      <trkpt lat="42.40645" lon="23.12969">
        <ele>705.460301</ele>
        <time>2022-04-05T10:02:55.245Z</time>
      </trkpt>
      <trkpt lat="42.40632" lon="23.12964">
        <ele>705.365587</ele>
        <time>2022-04-05T10:02:58.244Z</time>
      </trkpt>
      <trkpt lat="42.4062" lon="23.12958">
        <ele>705.27362</ele>
        <time>2022-04-05T10:03:01.268Z</time>
      </trkpt>
      <trkpt lat="42.40608" lon="23.12953">
        <ele>705.171879</ele>
        <time>2022-04-05T10:03:04.259Z</time>
      </trkpt>
      <trkpt lat="42.40595" lon="23.12948">
        <ele>705.028467</ele>
        <time>2022-04-05T10:03:07.219Z</time>
      </trkpt>
      <trkpt lat="42.40584" lon="23.12942">
        <ele>704.888782</ele>
        <time>2022-04-05T10:03:10.248Z</time>
      </trkpt>
      <trkpt lat="42.40572" lon="23.12937">
        <ele>704.751204</ele>
        <time>2022-04-05T10:03:13.238Z</time>
      </trkpt>
      <trkpt lat="42.4056" lon="23.12932">
        <ele>704.613359</ele>
        <time>2022-04-05T10:03:16.231Z</time>
      </trkpt>
      <trkpt lat="42.40549" lon="23.12927">
        <ele>704.480294</ele>
        <time>2022-04-05T10:03:19.237Z</time>
      </trkpt>
      <trkpt lat="42.40538" lon="23.12921">
        <ele>704.350661</ele>
        <time>2022-04-05T10:03:22.238Z</time>
      </trkpt>
      <trkpt lat="42.40527" lon="23.12916">
        <ele>704.220249</ele>
        <time>2022-04-05T10:03:25.249Z</time>
      </trkpt>
      <trkpt lat="42.40516" lon="23.12911">
        <ele>704.086926</ele>
        <time>2022-04-05T10:03:28.245Z</time>
      </trkpt>
      <trkpt lat="42.40504" lon="23.12907">
        <ele>703.953386</ele>
        <time>2022-04-05T10:03:31.238Z</time>
      </trkpt>
      <trkpt lat="42.40493" lon="23.12902">
        <ele>703.820859</ele>
        <time>2022-04-05T10:03:34.237Z</time>
      </trkpt>
      <trkpt lat="42.40481" lon="23.12895">
        <ele>703.674933</ele>
        <time>2022-04-05T10:03:37.243Z</time>
      </trkpt>
      <trkpt lat="42.40469" lon="23.12889">
        <ele>703.530454</ele>
        <time>2022-04-05T10:03:40.240Z</time>
      </trkpt>
      <trkpt lat="42.40457" lon="23.12884">
        <ele>703.38971</ele>
        <time>2022-04-05T10:03:43.231Z</time>
      </trkpt>
      <trkpt lat="42.40446" lon="23.12879">
        <ele>703.261954</ele>
        <time>2022-04-05T10:03:46.239Z</time>
      </trkpt>
      <trkpt lat="42.40435" lon="23.12874">
        <ele>703.226005</ele>
        <time>2022-04-05T10:03:49.244Z</time>
      </trkpt>
      <trkpt lat="42.40423" lon="23.12868">
        <ele>703.33331</ele>
        <time>2022-04-05T10:03:52.244Z</time>
      </trkpt>
      <trkpt lat="42.40411" lon="23.12863">
        <ele>703.438809</ele>
        <time>2022-04-05T10:03:55.239Z</time>
      </trkpt>
      <trkpt lat="42.40399" lon="23.12857">
        <ele>703.541114</ele>
        <time>2022-04-05T10:03:58.230Z</time>
      </trkpt>
      <trkpt lat="42.40387" lon="23.12851">
        <ele>703.64863</ele>
        <time>2022-04-05T10:04:01.257Z</time>
      </trkpt>
      <trkpt lat="42.40375" lon="23.12846">
        <ele>703.754325</ele>
        <time>2022-04-05T10:04:04.242Z</time>
      </trkpt>
      <trkpt lat="42.40365" lon="23.1284">
        <ele>703.850711</ele>
        <time>2022-04-05T10:04:07.231Z</time>
      </trkpt>
      <trkpt lat="42.40353" lon="23.12835">
        <ele>703.951044</ele>
        <time>2022-04-05T10:04:10.233Z</time>
      </trkpt>
      <trkpt lat="42.40342" lon="23.1283">
        <ele>704.054147</ele>
        <time>2022-04-05T10:04:13.251Z</time>
      </trkpt>
      <trkpt lat="42.4033" lon="23.12824">
        <ele>704.156654</ele>
        <time>2022-04-05T10:04:16.218Z</time>
      </trkpt>
      <trkpt lat="42.40319" lon="23.12819">
        <ele>704.260956</ele>
        <time>2022-04-05T10:04:19.242Z</time>
      </trkpt>
      <trkpt lat="42.40307" lon="23.12813">
        <ele>704.365464</ele>
        <time>2022-04-05T10:04:22.253Z</time>
      </trkpt>
      <trkpt lat="42.40296" lon="23.12808">
        <ele>704.465018</ele>
        <time>2022-04-05T10:04:25.294Z</time>
      </trkpt>
      <trkpt lat="42.40284" lon="23.12803">
        <ele>704.568919</ele>
        <time>2022-04-05T10:04:28.261Z</time>
      </trkpt>
      <trkpt lat="42.40272" lon="23.12798">
        <ele>704.671824</ele>
        <time>2022-04-05T10:04:31.233Z</time>
      </trkpt>
      <trkpt lat="42.40261" lon="23.12793">
        <ele>704.867271</ele>
        <time>2022-04-05T10:04:34.275Z</time>
      </trkpt>
      <trkpt lat="42.40249" lon="23.12788">
        <ele>705.084605</ele>
        <time>2022-04-05T10:04:37.237Z</time>
      </trkpt>
      <trkpt lat="42.40238" lon="23.12783">
        <ele>705.296787</ele>
        <time>2022-04-05T10:04:40.271Z</time>
      </trkpt>
      <trkpt lat="42.40228" lon="23.12779">
        <ele>705.503273</ele>
        <time>2022-04-05T10:04:43.255Z</time>
      </trkpt>
      <trkpt lat="42.40216" lon="23.12774">
        <ele>705.725082</ele>
        <time>2022-04-05T10:04:46.272Z</time>
      </trkpt>
      <trkpt lat="42.40205" lon="23.1277">
        <ele>705.947521</ele>
        <time>2022-04-05T10:04:49.240Z</time>
      </trkpt>
      <trkpt lat="42.40193" lon="23.12766">
        <ele>706.16907</ele>
        <time>2022-04-05T10:04:52.231Z</time>
      </trkpt>
      <trkpt lat="42.40182" lon="23.12761">
        <ele>706.38775</ele>
        <time>2022-04-05T10:04:55.233Z</time>
      </trkpt>
      <trkpt lat="42.4017" lon="23.12756">
        <ele>706.613808</ele>
        <time>2022-04-05T10:04:58.223Z</time>
      </trkpt>
      <trkpt lat="42.40159" lon="23.12752">
        <ele>706.83447</ele>
        <time>2022-04-05T10:05:01.228Z</time>
      </trkpt>
      <trkpt lat="42.40147" lon="23.12747">
        <ele>707.051581</ele>
        <time>2022-04-05T10:05:04.241Z</time>
      </trkpt>
      <trkpt lat="42.40136" lon="23.12743">
        <ele>707.271517</ele>
        <time>2022-04-05T10:05:07.240Z</time>
      </trkpt>
      <trkpt lat="42.40124" lon="23.12738">
        <ele>707.499326</ele>
        <time>2022-04-05T10:05:10.239Z</time>
      </trkpt>
      <trkpt lat="42.40111" lon="23.12733">
        <ele>707.743861</ele>
        <time>2022-04-05T10:05:13.249Z</time>
      </trkpt>
      <trkpt lat="42.40102" lon="23.1273">
        <ele>707.91247</ele>
        <time>2022-04-05T10:05:15.238Z</time>
      </trkpt>
      <trkpt lat="42.4009" lon="23.12725">
        <ele>707.982264</ele>
        <time>2022-04-05T10:05:18.237Z</time>
      </trkpt>
      <trkpt lat="42.40081" lon="23.12722">
        <ele>707.937011</ele>
        <time>2022-04-05T10:05:20.225Z</time>
      </trkpt>
      <trkpt lat="42.40069" lon="23.12717">
        <ele>707.87425</ele>
        <time>2022-04-05T10:05:23.240Z</time>
      </trkpt>
      <trkpt lat="42.40057" lon="23.12712">
        <ele>707.813293</ele>
        <time>2022-04-05T10:05:26.237Z</time>
      </trkpt>
      <trkpt lat="42.40046" lon="23.12708">
        <ele>707.756653</ele>
        <time>2022-04-05T10:05:29.229Z</time>
      </trkpt>
      <trkpt lat="42.40036" lon="23.12704">
        <ele>707.70443</ele>
        <time>2022-04-05T10:05:32.235Z</time>
      </trkpt>
      <trkpt lat="42.40025" lon="23.127">
        <ele>707.650358</ele>
        <time>2022-04-05T10:05:35.232Z</time>
      </trkpt>
      <trkpt lat="42.40015" lon="23.12696">
        <ele>707.597832</ele>
        <time>2022-04-05T10:05:38.217Z</time>
      </trkpt>
      <trkpt lat="42.40005" lon="23.12692">
        <ele>707.542821</ele>
        <time>2022-04-05T10:05:41.244Z</time>
      </trkpt>
      <trkpt lat="42.39992" lon="23.12687">
        <ele>707.478329</ele>
        <time>2022-04-05T10:05:44.235Z</time>
      </trkpt>
      <trkpt lat="42.3998" lon="23.12683">
        <ele>707.416239</ele>
        <time>2022-04-05T10:05:47.241Z</time>
      </trkpt>
      <trkpt lat="42.3997" lon="23.12679">
        <ele>707.366489</ele>
        <time>2022-04-05T10:05:50.230Z</time>
      </trkpt>
      <trkpt lat="42.3996" lon="23.12676">
        <ele>707.313199</ele>
        <time>2022-04-05T10:05:53.283Z</time>
      </trkpt>
      <trkpt lat="42.3995" lon="23.12672">
        <ele>707.262876</ele>
        <time>2022-04-05T10:05:56.234Z</time>
      </trkpt>
      <trkpt lat="42.39939" lon="23.12668">
        <ele>707.207482</ele>
        <time>2022-04-05T10:05:59.218Z</time>
      </trkpt>
      <trkpt lat="42.39928" lon="23.12664">
        <ele>707.149887</ele>
        <time>2022-04-05T10:06:02.237Z</time>
      </trkpt>
      <trkpt lat="42.39917" lon="23.1266">
        <ele>707.09403</ele>
        <time>2022-04-05T10:06:05.246Z</time>
      </trkpt>
      <trkpt lat="42.39906" lon="23.12656">
        <ele>707.03608</ele>
        <time>2022-04-05T10:06:08.255Z</time>
      </trkpt>
      <trkpt lat="42.39895" lon="23.12652">
        <ele>706.979466</ele>
        <time>2022-04-05T10:06:11.223Z</time>
      </trkpt>
      <trkpt lat="42.39884" lon="23.12648">
        <ele>706.922852</ele>
        <time>2022-04-05T10:06:14.232Z</time>
      </trkpt>
      <trkpt lat="42.39873" lon="23.12644">
        <ele>706.866138</ele>
        <time>2022-04-05T10:06:17.271Z</time>
      </trkpt>
      <trkpt lat="42.39862" lon="23.1264">
        <ele>706.811053</ele>
        <time>2022-04-05T10:06:20.246Z</time>
      </trkpt>
      <trkpt lat="42.39852" lon="23.12636">
        <ele>706.757397</ele>
        <time>2022-04-05T10:06:23.230Z</time>
      </trkpt>
      <trkpt lat="42.39842" lon="23.12632">
        <ele>706.706015</ele>
        <time>2022-04-05T10:06:26.271Z</time>
      </trkpt>
      <trkpt lat="42.39831" lon="23.12628">
        <ele>706.652514</ele>
        <time>2022-04-05T10:06:29.243Z</time>
      </trkpt>
      <trkpt lat="42.39821" lon="23.12624">
        <ele>706.597805</ele>
        <time>2022-04-05T10:06:32.284Z</time>
      </trkpt>
      <trkpt lat="42.39811" lon="23.12621">
        <ele>706.547301</ele>
        <time>2022-04-05T10:06:35.254Z</time>
      </trkpt>
      <trkpt lat="42.39801" lon="23.12617">
        <ele>706.498626</ele>
        <time>2022-04-05T10:06:38.220Z</time>
      </trkpt>
      <trkpt lat="42.39791" lon="23.12613">
        <ele>706.443125</ele>
        <time>2022-04-05T10:06:41.237Z</time>
      </trkpt>
      <trkpt lat="42.3978" lon="23.12608">
        <ele>706.386411</ele>
        <time>2022-04-05T10:06:44.260Z</time>
      </trkpt>
      <trkpt lat="42.39769" lon="23.12605">
        <ele>706.334484</ele>
        <time>2022-04-05T10:06:47.240Z</time>
      </trkpt>
      <trkpt lat="42.3976" lon="23.12601">
        <ele>706.286094</ele>
        <time>2022-04-05T10:06:50.239Z</time>
      </trkpt>
      <trkpt lat="42.39751" lon="23.12597">
        <ele>706.23818</ele>
        <time>2022-04-05T10:06:53.239Z</time>
      </trkpt>
      <trkpt lat="42.39741" lon="23.12594">
        <ele>706.274994</ele>
        <time>2022-04-05T10:06:56.234Z</time>
      </trkpt>
      <trkpt lat="42.39732" lon="23.1259">
        <ele>706.315592</ele>
        <time>2022-04-05T10:06:59.251Z</time>
      </trkpt>
      <trkpt lat="42.39722" lon="23.12586">
        <ele>706.356802</ele>
        <time>2022-04-05T10:07:02.236Z</time>
      </trkpt>
      <trkpt lat="42.39712" lon="23.12582">
        <ele>706.398438</ele>
        <time>2022-04-05T10:07:05.269Z</time>
      </trkpt>
      <trkpt lat="42.39702" lon="23.12576">
        <ele>706.443829</ele>
        <time>2022-04-05T10:07:08.234Z</time>
      </trkpt>
      <trkpt lat="42.39692" lon="23.12571">
        <ele>706.487112</ele>
        <time>2022-04-05T10:07:11.224Z</time>
      </trkpt>
      <trkpt lat="42.39682" lon="23.12567">
        <ele>706.527782</ele>
        <time>2022-04-05T10:07:14.243Z</time>
      </trkpt>
      <trkpt lat="42.39673" lon="23.12561">
        <ele>706.567661</ele>
        <time>2022-04-05T10:07:17.241Z</time>
      </trkpt>
      <trkpt lat="42.39665" lon="23.12557">
        <ele>706.604851</ele>
        <time>2022-04-05T10:07:20.238Z</time>
      </trkpt>
      <trkpt lat="42.39656" lon="23.12551">
        <ele>706.64215</ele>
        <time>2022-04-05T10:07:23.248Z</time>
      </trkpt>
      <trkpt lat="42.39648" lon="23.12546">
        <ele>706.680076</ele>
        <time>2022-04-05T10:07:26.254Z</time>
      </trkpt>
      <trkpt lat="42.3964" lon="23.1254">
        <ele>706.717119</ele>
        <time>2022-04-05T10:07:29.234Z</time>
      </trkpt>
      <trkpt lat="42.39631" lon="23.12532">
        <ele>706.759962</ele>
        <time>2022-04-05T10:07:32.236Z</time>
      </trkpt>
      <trkpt lat="42.39622" lon="23.12525">
        <ele>706.803208</ele>
        <time>2022-04-05T10:07:35.245Z</time>
      </trkpt>
      <trkpt lat="42.39612" lon="23.12518">
        <ele>706.845664</ele>
        <time>2022-04-05T10:07:38.231Z</time>
      </trkpt>
      <trkpt lat="42.39604" lon="23.12511">
        <ele>706.886249</ele>
        <time>2022-04-05T10:07:41.240Z</time>
      </trkpt>
      <trkpt lat="42.39596" lon="23.12504">
        <ele>706.926016</ele>
        <time>2022-04-05T10:07:44.234Z</time>
      </trkpt>
      <trkpt lat="42.39587" lon="23.12497">
        <ele>706.959203</ele>
        <time>2022-04-05T10:07:47.229Z</time>
      </trkpt>
      <trkpt lat="42.39578" lon="23.12489">
        <ele>706.862818</ele>
        <time>2022-04-05T10:07:50.243Z</time>
      </trkpt>
      <trkpt lat="42.3957" lon="23.12482">
        <ele>706.766254</ele>
        <time>2022-04-05T10:07:53.234Z</time>
      </trkpt>
      <trkpt lat="42.3956" lon="23.12475">
        <ele>706.666522</ele>
        <time>2022-04-05T10:07:56.243Z</time>
      </trkpt>
      <trkpt lat="42.39551" lon="23.12468">
        <ele>706.563447</ele>
        <time>2022-04-05T10:07:59.219Z</time>
      </trkpt>
      <trkpt lat="42.39542" lon="23.1246">
        <ele>706.461919</ele>
        <time>2022-04-05T10:08:02.236Z</time>
      </trkpt>
      <trkpt lat="42.39533" lon="23.12453">
        <ele>706.361835</ele>
        <time>2022-04-05T10:08:05.232Z</time>
      </trkpt>
      <trkpt lat="42.39524" lon="23.12445">
        <ele>706.259861</ele>
        <time>2022-04-05T10:08:08.256Z</time>
      </trkpt>
      <trkpt lat="42.39515" lon="23.12438">
        <ele>706.157072</ele>
        <time>2022-04-05T10:08:11.249Z</time>
      </trkpt>
      <trkpt lat="42.39506" lon="23.1243">
        <ele>706.05672</ele>
        <time>2022-04-05T10:08:14.271Z</time>
      </trkpt>
      <trkpt lat="42.39497" lon="23.12423">
        <ele>705.961436</ele>
        <time>2022-04-05T10:08:17.243Z</time>
      </trkpt>
      <trkpt lat="42.39488" lon="23.12415">
        <ele>705.859965</ele>
        <time>2022-04-05T10:08:20.240Z</time>
      </trkpt>
      <trkpt lat="42.39479" lon="23.12408">
        <ele>705.758351</ele>
        <time>2022-04-05T10:08:23.225Z</time>
      </trkpt>
      <trkpt lat="42.39469" lon="23.12401">
        <ele>705.655647</ele>
        <time>2022-04-05T10:08:26.258Z</time>
      </trkpt>
      <trkpt lat="42.39461" lon="23.12394">
        <ele>705.560363</ele>
        <time>2022-04-05T10:08:29.215Z</time>
      </trkpt>
      <trkpt lat="42.39452" lon="23.12387">
        <ele>705.461913</ele>
        <time>2022-04-05T10:08:32.267Z</time>
      </trkpt>
      <trkpt lat="42.39443" lon="23.1238">
        <ele>705.366265</ele>
        <time>2022-04-05T10:08:35.252Z</time>
      </trkpt>
      <trkpt lat="42.39434" lon="23.12372">
        <ele>705.263927</ele>
        <time>2022-04-05T10:08:38.235Z</time>
      </trkpt>
      <trkpt lat="42.39425" lon="23.12365">
        <ele>705.445526</ele>
        <time>2022-04-05T10:08:41.262Z</time>
      </trkpt>
      <trkpt lat="42.39417" lon="23.12359">
        <ele>705.644601</ele>
        <time>2022-04-05T10:08:44.231Z</time>
      </trkpt>
      <trkpt lat="42.39408" lon="23.12352">
        <ele>705.852208</ele>
        <time>2022-04-05T10:08:47.237Z</time>
      </trkpt>
      <trkpt lat="42.39399" lon="23.12345">
        <ele>706.057095</ele>
        <time>2022-04-05T10:08:50.238Z</time>
      </trkpt>
      <trkpt lat="42.39391" lon="23.12338">
        <ele>706.250035</ele>
        <time>2022-04-05T10:08:53.257Z</time>
      </trkpt>
      <trkpt lat="42.39383" lon="23.12331">
        <ele>706.457906</ele>
        <time>2022-04-05T10:08:56.240Z</time>
      </trkpt>
      <trkpt lat="42.39373" lon="23.12324">
        <ele>706.675819</ele>
        <time>2022-04-05T10:08:59.233Z</time>
      </trkpt>
      <trkpt lat="42.39365" lon="23.12317">
        <ele>706.879159</ele>
        <time>2022-04-05T10:09:02.241Z</time>
      </trkpt>
      <trkpt lat="42.39356" lon="23.1231">
        <ele>707.079793</ele>
        <time>2022-04-05T10:09:05.235Z</time>
      </trkpt>
      <trkpt lat="42.39347" lon="23.12302">
        <ele>707.296493</ele>
        <time>2022-04-05T10:09:08.251Z</time>
      </trkpt>
      <trkpt lat="42.39338" lon="23.12295">
        <ele>707.501586</ele>
        <time>2022-04-05T10:09:11.234Z</time>
      </trkpt>
      <trkpt lat="42.39329" lon="23.12288">
        <ele>707.715517</ele>
        <time>2022-04-05T10:09:14.236Z</time>
      </trkpt>
      <trkpt lat="42.3932" lon="23.12281">
        <ele>707.935199</ele>
        <time>2022-04-05T10:09:17.237Z</time>
      </trkpt>
      <trkpt lat="42.39311" lon="23.12274">
        <ele>708.147076</ele>
        <time>2022-04-05T10:09:20.280Z</time>
      </trkpt>
      <trkpt lat="42.39303" lon="23.12268">
        <ele>708.342871</ele>
        <time>2022-04-05T10:09:23.240Z</time>
      </trkpt>
      <trkpt lat="42.39294" lon="23.12261">
        <ele>708.543696</ele>
        <time>2022-04-05T10:09:26.233Z</time>
      </trkpt>
      <trkpt lat="42.39285" lon="23.12254">
        <ele>708.760134</ele>
        <time>2022-04-05T10:09:29.226Z</time>
      </trkpt>
      <trkpt lat="42.39275" lon="23.12246">
        <ele>708.915301</ele>
        <time>2022-04-05T10:09:32.237Z</time>
      </trkpt>
      <trkpt lat="42.39265" lon="23.12238">
        <ele>708.914325</ele>
        <time>2022-04-05T10:09:35.238Z</time>
      </trkpt>
      <trkpt lat="42.39256" lon="23.12231">
        <ele>708.913357</ele>
        <time>2022-04-05T10:09:38.244Z</time>
      </trkpt>
      <trkpt lat="42.39247" lon="23.12224">
        <ele>708.912452</ele>
        <time>2022-04-05T10:09:41.237Z</time>
      </trkpt>
      <trkpt lat="42.39238" lon="23.12217">
        <ele>708.911575</ele>
        <time>2022-04-05T10:09:44.249Z</time>
      </trkpt>
      <trkpt lat="42.3923" lon="23.1221">
        <ele>708.910714</ele>
        <time>2022-04-05T10:09:47.236Z</time>
      </trkpt>
      <trkpt lat="42.39222" lon="23.12202">
        <ele>708.909863</ele>
        <time>2022-04-05T10:09:50.239Z</time>
      </trkpt>
      <trkpt lat="42.39214" lon="23.12195">
        <ele>708.909034</ele>
        <time>2022-04-05T10:09:53.272Z</time>
      </trkpt>
      <trkpt lat="42.39204" lon="23.12185">
        <ele>708.907973</ele>
        <time>2022-04-05T10:09:57.235Z</time>
      </trkpt>
      <trkpt lat="42.39196" lon="23.12177">
        <ele>708.907107</ele>
        <time>2022-04-05T10:10:00.241Z</time>
      </trkpt>
      <trkpt lat="42.39189" lon="23.12168">
        <ele>708.906246</ele>
        <time>2022-04-05T10:10:03.236Z</time>
      </trkpt>
      <trkpt lat="42.39182" lon="23.1216">
        <ele>708.905418</ele>
        <time>2022-04-05T10:10:06.240Z</time>
      </trkpt>
      <trkpt lat="42.39173" lon="23.12149">
        <ele>708.90438</ele>
        <time>2022-04-05T10:10:10.237Z</time>
      </trkpt>
      <trkpt lat="42.39166" lon="23.1214">
        <ele>708.903551</ele>
        <time>2022-04-05T10:10:13.230Z</time>
      </trkpt>
      <trkpt lat="42.39159" lon="23.12131">
        <ele>708.902751</ele>
        <time>2022-04-05T10:10:16.242Z</time>
      </trkpt>
      <trkpt lat="42.39151" lon="23.1212">
        <ele>708.90173</ele>
        <time>2022-04-05T10:10:20.269Z</time>
      </trkpt>
      <trkpt lat="42.39144" lon="23.12111">
        <ele>708.900915</ele>
        <time>2022-04-05T10:10:23.256Z</time>
      </trkpt>
      <trkpt lat="42.39138" lon="23.12103">
        <ele>708.90013</ele>
        <time>2022-04-05T10:10:26.277Z</time>
      </trkpt>
      <trkpt lat="42.39129" lon="23.12091">
        <ele>709.154304</ele>
        <time>2022-04-05T10:10:30.250Z</time>
      </trkpt>
      <trkpt lat="42.39121" lon="23.1208">
        <ele>709.45752</ele>
        <time>2022-04-05T10:10:34.235Z</time>
      </trkpt>
      <trkpt lat="42.39113" lon="23.12069">
        <ele>709.756881</ele>
        <time>2022-04-05T10:10:38.237Z</time>
      </trkpt>
      <trkpt lat="42.39104" lon="23.12058">
        <ele>710.059003</ele>
        <time>2022-04-05T10:10:42.230Z</time>
      </trkpt>
      <trkpt lat="42.39096" lon="23.12048">
        <ele>710.343949</ele>
        <time>2022-04-05T10:10:46.221Z</time>
      </trkpt>
      <trkpt lat="42.39088" lon="23.12037">
        <ele>710.629758</ele>
        <time>2022-04-05T10:10:50.253Z</time>
      </trkpt>
      <trkpt lat="42.39081" lon="23.12027">
        <ele>710.906544</ele>
        <time>2022-04-05T10:10:54.234Z</time>
      </trkpt>
      <trkpt lat="42.39074" lon="23.12017">
        <ele>711.162171</ele>
        <time>2022-04-05T10:10:58.244Z</time>
      </trkpt>
      <trkpt lat="42.39067" lon="23.12007">
        <ele>711.427666</ele>
        <time>2022-04-05T10:11:02.243Z</time>
      </trkpt>
      <trkpt lat="42.3906" lon="23.11996">
        <ele>711.699049</ele>
        <time>2022-04-05T10:11:06.232Z</time>
      </trkpt>
      <trkpt lat="42.39052" lon="23.11987">
        <ele>711.961386</ele>
        <time>2022-04-05T10:11:10.255Z</time>
      </trkpt>
      <trkpt lat="42.39046" lon="23.11977">
        <ele>712.207485</ele>
        <time>2022-04-05T10:11:14.234Z</time>
      </trkpt>
      <trkpt lat="42.39038" lon="23.11968">
        <ele>712.469261</ele>
        <time>2022-04-05T10:11:18.241Z</time>
      </trkpt>
      <trkpt lat="42.39031" lon="23.11958">
        <ele>712.725286</ele>
        <time>2022-04-05T10:11:22.253Z</time>
      </trkpt>
      <trkpt lat="42.39024" lon="23.11949">
        <ele>712.978247</ele>
        <time>2022-04-05T10:11:26.283Z</time>
      </trkpt>
      <trkpt lat="42.39017" lon="23.11941">
        <ele>713.228571</ele>
        <time>2022-04-05T10:11:30.241Z</time>
      </trkpt>
      <trkpt lat="42.39009" lon="23.11931">
        <ele>713.492252</ele>
        <time>2022-04-05T10:11:34.235Z</time>
      </trkpt>
      <trkpt lat="42.39001" lon="23.11922">
        <ele>713.588937</ele>
        <time>2022-04-05T10:11:38.246Z</time>
      </trkpt>
      <trkpt lat="42.38993" lon="23.11913">
        <ele>713.653927</ele>
        <time>2022-04-05T10:11:42.242Z</time>
      </trkpt>
      <trkpt lat="42.38984" lon="23.11905">
        <ele>713.719829</ele>
        <time>2022-04-05T10:11:46.232Z</time>
      </trkpt>
      <trkpt lat="42.38975" lon="23.11896">
        <ele>713.79361</ele>
        <time>2022-04-05T10:11:50.246Z</time>
      </trkpt>
      <trkpt lat="42.38965" lon="23.11888">
        <ele>713.863279</ele>
        <time>2022-04-05T10:11:54.243Z</time>
      </trkpt>
      <trkpt lat="42.38955" lon="23.11881">
        <ele>713.935133</ele>
        <time>2022-04-05T10:11:58.241Z</time>
      </trkpt>
      <trkpt lat="42.38946" lon="23.11874">
        <ele>714.004874</ele>
        <time>2022-04-05T10:12:02.238Z</time>
      </trkpt>
      <trkpt lat="42.38935" lon="23.11866">
        <ele>714.078159</ele>
        <time>2022-04-05T10:12:06.226Z</time>
      </trkpt>
      <trkpt lat="42.38926" lon="23.11859">
        <ele>714.146671</ele>
        <time>2022-04-05T10:12:10.267Z</time>
      </trkpt>
      <trkpt lat="42.38916" lon="23.11852">
        <ele>714.214737</ele>
        <time>2022-04-05T10:12:14.236Z</time>
      </trkpt>
      <trkpt lat="42.38906" lon="23.11845">
        <ele>714.287925</ele>
        <time>2022-04-05T10:12:18.231Z</time>
      </trkpt>
      <trkpt lat="42.38898" lon="23.1184">
        <ele>714.347406</ele>
        <time>2022-04-05T10:12:21.280Z</time>
      </trkpt>
      <trkpt lat="42.38889" lon="23.11834">
        <ele>714.405818</ele>
        <time>2022-04-05T10:12:24.257Z</time>
      </trkpt>
      <trkpt lat="42.38879" lon="23.11827">
        <ele>714.480341</ele>
        <time>2022-04-05T10:12:28.232Z</time>
      </trkpt>
      <trkpt lat="42.3887" lon="23.11821">
        <ele>714.54023</ele>
        <time>2022-04-05T10:12:31.232Z</time>
      </trkpt>
      <trkpt lat="42.3886" lon="23.11814">
        <ele>714.614489</ele>
        <time>2022-04-05T10:12:35.239Z</time>
      </trkpt>
      <trkpt lat="42.3885" lon="23.11807">
        <ele>714.799415</ele>
        <time>2022-04-05T10:12:39.268Z</time>
      </trkpt>
      <trkpt lat="42.38841" lon="23.11801">
        <ele>715.251176</ele>
        <time>2022-04-05T10:12:43.229Z</time>
      </trkpt>
      <trkpt lat="42.38832" lon="23.11795">
        <ele>715.658358</ele>
        <time>2022-04-05T10:12:47.239Z</time>
      </trkpt>
      <trkpt lat="42.38824" lon="23.11789">
        <ele>716.073028</ele>
        <time>2022-04-05T10:12:51.238Z</time>
      </trkpt>
      <trkpt lat="42.38815" lon="23.11783">
        <ele>716.514953</ele>
        <time>2022-04-05T10:12:55.221Z</time>
      </trkpt>
      <trkpt lat="42.38806" lon="23.11776">
        <ele>716.975996</ele>
        <time>2022-04-05T10:12:59.221Z</time>
      </trkpt>
      <trkpt lat="42.38796" lon="23.1177">
        <ele>717.44191</ele>
        <time>2022-04-05T10:13:03.244Z</time>
      </trkpt>
      <trkpt lat="42.38787" lon="23.11763">
        <ele>717.899069</ele>
        <time>2022-04-05T10:13:07.242Z</time>
      </trkpt>
      <trkpt lat="42.38778" lon="23.11758">
        <ele>718.335343</ele>
        <time>2022-04-05T10:13:11.237Z</time>
      </trkpt>
      <trkpt lat="42.3877" lon="23.11752">
        <ele>718.744607</ele>
        <time>2022-04-05T10:13:15.238Z</time>
      </trkpt>
      <trkpt lat="42.3876" lon="23.11745">
        <ele>719.234512</ele>
        <time>2022-04-05T10:13:20.288Z</time>
      </trkpt>
      <trkpt lat="42.38751" lon="23.11739">
        <ele>719.666813</ele>
        <time>2022-04-05T10:13:24.247Z</time>
      </trkpt>
      <trkpt lat="42.38742" lon="23.11733">
        <ele>720.103362</ele>
        <time>2022-04-05T10:13:28.223Z</time>
      </trkpt>
      <trkpt lat="42.38734" lon="23.11727">
        <ele>720.522772</ele>
        <time>2022-04-05T10:13:32.239Z</time>
      </trkpt>
      <trkpt lat="42.38725" lon="23.11722">
        <ele>720.920351</ele>
        <time>2022-04-05T10:13:36.262Z</time>
      </trkpt>
      <trkpt lat="42.38717" lon="23.11717">
        <ele>721.337971</ele>
        <time>2022-04-05T10:13:40.245Z</time>
      </trkpt>
      <trkpt lat="42.38708" lon="23.1171">
        <ele>721.773135</ele>
        <time>2022-04-05T10:13:44.246Z</time>
      </trkpt>
      <trkpt lat="42.38699" lon="23.11703">
        <ele>722.227269</ele>
        <time>2022-04-05T10:13:48.224Z</time>
      </trkpt>
      <trkpt lat="42.38689" lon="23.11697">
        <ele>722.576795</ele>
        <time>2022-04-05T10:13:52.239Z</time>
      </trkpt>
      <trkpt lat="42.3868" lon="23.1169">
        <ele>722.622529</ele>
        <time>2022-04-05T10:13:56.242Z</time>
      </trkpt>
      <trkpt lat="42.3867" lon="23.11685">
        <ele>722.665819</ele>
        <time>2022-04-05T10:14:00.243Z</time>
      </trkpt>
      <trkpt lat="42.38661" lon="23.11677">
        <ele>722.710959</ele>
        <time>2022-04-05T10:14:04.258Z</time>
      </trkpt>
      <trkpt lat="42.38651" lon="23.11671">
        <ele>722.757994</ele>
        <time>2022-04-05T10:14:08.224Z</time>
      </trkpt>
      <trkpt lat="42.38641" lon="23.11664">
        <ele>722.806442</ele>
        <time>2022-04-05T10:14:12.243Z</time>
      </trkpt>
      <trkpt lat="42.38632" lon="23.11659">
        <ele>722.845625</ele>
        <time>2022-04-05T10:14:15.273Z</time>
      </trkpt>
      <trkpt lat="42.38624" lon="23.11654">
        <ele>722.883908</ele>
        <time>2022-04-05T10:14:18.283Z</time>
      </trkpt>
      <trkpt lat="42.38614" lon="23.11647">
        <ele>722.932256</ele>
        <time>2022-04-05T10:14:22.236Z</time>
      </trkpt>
      <trkpt lat="42.38603" lon="23.1164">
        <ele>722.983153</ele>
        <time>2022-04-05T10:14:26.234Z</time>
      </trkpt>
      <trkpt lat="42.38592" lon="23.11633">
        <ele>723.033153</ele>
        <time>2022-04-05T10:14:30.236Z</time>
      </trkpt>
      <trkpt lat="42.38584" lon="23.11627">
        <ele>723.072086</ele>
        <time>2022-04-05T10:14:33.244Z</time>
      </trkpt>
      <trkpt lat="42.38576" lon="23.11621">
        <ele>723.111811</ele>
        <time>2022-04-05T10:14:36.237Z</time>
      </trkpt>
      <trkpt lat="42.38567" lon="23.11616">
        <ele>723.152789</ele>
        <time>2022-04-05T10:14:39.234Z</time>
      </trkpt>
      <trkpt lat="42.38559" lon="23.1161">
        <ele>723.192718</ele>
        <time>2022-04-05T10:14:42.232Z</time>
      </trkpt>
      <trkpt lat="42.3855" lon="23.11604">
        <ele>723.232352</ele>
        <time>2022-04-05T10:14:45.249Z</time>
      </trkpt>
      <trkpt lat="42.38542" lon="23.11599">
        <ele>723.271917</ele>
        <time>2022-04-05T10:14:48.233Z</time>
      </trkpt>
      <trkpt lat="42.38533" lon="23.11593">
        <ele>723.312129</ele>
        <time>2022-04-05T10:14:51.280Z</time>
      </trkpt>
      <trkpt lat="42.38525" lon="23.11588">
        <ele>723.383168</ele>
        <time>2022-04-05T10:14:54.255Z</time>
      </trkpt>
      <trkpt lat="42.38515" lon="23.11581">
        <ele>723.488618</ele>
        <time>2022-04-05T10:14:58.230Z</time>
      </trkpt>
      <trkpt lat="42.38505" lon="23.11573">
        <ele>723.592878</ele>
        <time>2022-04-05T10:15:02.224Z</time>
      </trkpt>
      <trkpt lat="42.38495" lon="23.11567">
        <ele>723.69993</ele>
        <time>2022-04-05T10:15:06.248Z</time>
      </trkpt>
      <trkpt lat="42.38485" lon="23.1156">
        <ele>723.806212</ele>
        <time>2022-04-05T10:15:10.275Z</time>
      </trkpt>
      <trkpt lat="42.38474" lon="23.11553">
        <ele>723.912189</ele>
        <time>2022-04-05T10:15:14.241Z</time>
      </trkpt>
      <trkpt lat="42.38464" lon="23.11547">
        <ele>724.019841</ele>
        <time>2022-04-05T10:15:18.225Z</time>
      </trkpt>
      <trkpt lat="42.38456" lon="23.11541">
        <ele>724.104836</ele>
        <time>2022-04-05T10:15:21.225Z</time>
      </trkpt>
      <trkpt lat="42.38448" lon="23.11536">
        <ele>724.188994</ele>
        <time>2022-04-05T10:15:24.240Z</time>
      </trkpt>
      <trkpt lat="42.38437" lon="23.11529">
        <ele>724.301205</ele>
        <time>2022-04-05T10:15:28.256Z</time>
      </trkpt>
      <trkpt lat="42.38429" lon="23.11524">
        <ele>724.385032</ele>
        <time>2022-04-05T10:15:31.226Z</time>
      </trkpt>
      <trkpt lat="42.38418" lon="23.11517">
        <ele>724.492685</ele>
        <time>2022-04-05T10:15:35.233Z</time>
      </trkpt>
      <trkpt lat="42.38408" lon="23.1151">
        <ele>724.601052</ele>
        <time>2022-04-05T10:15:39.236Z</time>
      </trkpt>
      <trkpt lat="42.38398" lon="23.11503">
        <ele>724.708476</ele>
        <time>2022-04-05T10:15:43.233Z</time>
      </trkpt>
      <trkpt lat="42.3839" lon="23.11497">
        <ele>724.792635</ele>
        <time>2022-04-05T10:15:46.236Z</time>
      </trkpt>
      <trkpt lat="42.38381" lon="23.11491">
        <ele>724.882191</ele>
        <time>2022-04-05T10:15:49.234Z</time>
      </trkpt>
      <trkpt lat="42.38371" lon="23.11485">
        <ele>724.985667</ele>
        <time>2022-04-05T10:15:53.242Z</time>
      </trkpt>
      <trkpt lat="42.38363" lon="23.11479">
        <ele>725.062063</ele>
        <time>2022-04-05T10:15:56.227Z</time>
      </trkpt>
      <trkpt lat="42.38352" lon="23.11472">
        <ele>725.158998</ele>
        <time>2022-04-05T10:16:00.242Z</time>
      </trkpt>
      <trkpt lat="42.38344" lon="23.11467">
        <ele>725.235539</ele>
        <time>2022-04-05T10:16:03.241Z</time>
      </trkpt>
      <trkpt lat="42.38334" lon="23.1146">
        <ele>725.327962</ele>
        <time>2022-04-05T10:16:07.236Z</time>
      </trkpt>
      <trkpt lat="42.38324" lon="23.11453">
        <ele>725.420385</ele>
        <time>2022-04-05T10:16:11.244Z</time>
      </trkpt>
      <trkpt lat="42.38313" lon="23.11447">
        <ele>725.518249</ele>
        <time>2022-04-05T10:16:15.233Z</time>
      </trkpt>
      <trkpt lat="42.38305" lon="23.11441">
        <ele>725.594379</ele>
        <time>2022-04-05T10:16:18.231Z</time>
      </trkpt>
      <trkpt lat="42.38296" lon="23.11435">
        <ele>725.674565</ele>
        <time>2022-04-05T10:16:21.234Z</time>
      </trkpt>
      <trkpt lat="42.38286" lon="23.11427">
        <ele>725.774813</ele>
        <time>2022-04-05T10:16:25.232Z</time>
      </trkpt>
      <trkpt lat="42.38275" lon="23.1142">
        <ele>725.872219</ele>
        <time>2022-04-05T10:16:29.214Z</time>
      </trkpt>
      <trkpt lat="42.38265" lon="23.11413">
        <ele>725.967509</ele>
        <time>2022-04-05T10:16:33.221Z</time>
      </trkpt>
      <trkpt lat="42.38254" lon="23.11406">
        <ele>726.065456</ele>
        <time>2022-04-05T10:16:37.239Z</time>
      </trkpt>
      <trkpt lat="42.38244" lon="23.114">
        <ele>726.156064</ele>
        <time>2022-04-05T10:16:41.234Z</time>
      </trkpt>
      <trkpt lat="42.38236" lon="23.11394">
        <ele>726.234221</ele>
        <time>2022-04-05T10:16:45.237Z</time>
      </trkpt>
      <trkpt lat="42.38227" lon="23.11388">
        <ele>726.314791</ele>
        <time>2022-04-05T10:16:49.229Z</time>
      </trkpt>
      <trkpt lat="42.38219" lon="23.11383">
        <ele>726.389838</ele>
        <time>2022-04-05T10:16:53.242Z</time>
      </trkpt>
      <trkpt lat="42.38209" lon="23.11376">
        <ele>726.478151</ele>
        <time>2022-04-05T10:16:58.231Z</time>
      </trkpt>
      <trkpt lat="42.382" lon="23.1137">
        <ele>727.103232</ele>
        <time>2022-04-05T10:17:04.241Z</time>
      </trkpt>
      <trkpt lat="42.38191" lon="23.11364">
        <ele>727.703454</ele>
        <time>2022-04-05T10:17:10.221Z</time>
      </trkpt>
      <trkpt lat="42.38181" lon="23.11358">
        <ele>728.358179</ele>
        <time>2022-04-05T10:17:16.237Z</time>
      </trkpt>
      <trkpt lat="42.38173" lon="23.11353">
        <ele>728.94124</ele>
        <time>2022-04-05T10:17:21.240Z</time>
      </trkpt>
      <trkpt lat="42.38163" lon="23.11348">
        <ele>729.562655</ele>
        <time>2022-04-05T10:17:27.242Z</time>
      </trkpt>
      <trkpt lat="42.38154" lon="23.11344">
        <ele>730.152643</ele>
        <time>2022-04-05T10:17:32.233Z</time>
      </trkpt>
      <trkpt lat="42.38145" lon="23.1134">
        <ele>730.761714</ele>
        <time>2022-04-05T10:17:37.272Z</time>
      </trkpt>
      <trkpt lat="42.38135" lon="23.11336">
        <ele>731.388241</ele>
        <time>2022-04-05T10:17:44.248Z</time>
      </trkpt>
      <trkpt lat="42.38125" lon="23.11333">
        <ele>732.028535</ele>
        <time>2022-04-05T10:17:51.251Z</time>
      </trkpt>
      <trkpt lat="42.38116" lon="23.1133">
        <ele>732.592092</ele>
        <time>2022-04-05T10:17:57.238Z</time>
      </trkpt>
      <trkpt lat="42.38107" lon="23.11328">
        <ele>733.209758</ele>
        <time>2022-04-05T10:18:04.275Z</time>
      </trkpt>
      <trkpt lat="42.38096" lon="23.11326">
        <ele>733.871826</ele>
        <time>2022-04-05T10:18:10.242Z</time>
      </trkpt>
      <trkpt lat="42.38086" lon="23.11323">
        <ele>734.504184</ele>
        <time>2022-04-05T10:18:16.234Z</time>
      </trkpt>
      <trkpt lat="42.38077" lon="23.11322">
        <ele>735.097149</ele>
        <time>2022-04-05T10:18:22.237Z</time>
      </trkpt>
      <trkpt lat="42.38067" lon="23.1132">
        <ele>735.727647</ele>
        <time>2022-04-05T10:18:29.222Z</time>
      </trkpt>
      <trkpt lat="42.38057" lon="23.1132">
        <ele>736.336858</ele>
        <time>2022-04-05T10:18:36.255Z</time>
      </trkpt>
      <trkpt lat="42.38047" lon="23.11319">
        <ele>736.939865</ele>
        <time>2022-04-05T10:18:43.291Z</time>
      </trkpt>
      <trkpt lat="42.38037" lon="23.11319">
        <ele>737.585861</ele>
        <time>2022-04-05T10:18:50.232Z</time>
      </trkpt>
      <trkpt lat="42.38026" lon="23.1132">
        <ele>738.293588</ele>
        <time>2022-04-05T10:18:57.243Z</time>
      </trkpt>
      <trkpt lat="42.38016" lon="23.11319">
        <ele>738.978691</ele>
        <time>2022-04-05T10:19:04.243Z</time>
      </trkpt>
      <trkpt lat="42.38006" lon="23.1132">
        <ele>739.652504</ele>
        <time>2022-04-05T10:19:11.268Z</time>
      </trkpt>
      <trkpt lat="42.37996" lon="23.11322">
        <ele>740.264074</ele>
        <time>2022-04-05T10:19:17.228Z</time>
      </trkpt>
      <trkpt lat="42.37987" lon="23.11324">
        <ele>740.919921</ele>
        <time>2022-04-05T10:19:24.244Z</time>
      </trkpt>
      <trkpt lat="42.37977" lon="23.11326">
        <ele>741.571947</ele>
        <time>2022-04-05T10:19:30.229Z</time>
      </trkpt>
      <trkpt lat="42.37968" lon="23.11328">
        <ele>742.177675</ele>
        <time>2022-04-05T10:19:36.233Z</time>
      </trkpt>
      <trkpt lat="42.37959" lon="23.11331">
        <ele>742.794196</ele>
        <time>2022-04-05T10:19:43.238Z</time>
      </trkpt>
      <trkpt lat="42.37949" lon="23.11333">
        <ele>743.45925</ele>
        <time>2022-04-05T10:19:49.287Z</time>
      </trkpt>
      <trkpt lat="42.37939" lon="23.11336">
        <ele>744.141162</ele>
        <time>2022-04-05T10:19:56.248Z</time>
      </trkpt>
      <trkpt lat="42.3793" lon="23.11338">
        <ele>744.758642</ele>
        <time>2022-04-05T10:20:02.236Z</time>
      </trkpt>
      <trkpt lat="42.37921" lon="23.11341">
        <ele>745.373857</ele>
        <time>2022-04-05T10:20:08.266Z</time>
      </trkpt>
      <trkpt lat="42.37912" lon="23.11344">
        <ele>745.97733</ele>
        <time>2022-04-05T10:20:14.234Z</time>
      </trkpt>
      <trkpt lat="42.37903" lon="23.11347">
        <ele>746.621886</ele>
        <time>2022-04-05T10:20:21.234Z</time>
      </trkpt>
      <trkpt lat="42.37893" lon="23.11349">
        <ele>747.260896</ele>
        <time>2022-04-05T10:20:28.239Z</time>
      </trkpt>
      <trkpt lat="42.37884" lon="23.11352">
        <ele>747.89019</ele>
        <time>2022-04-05T10:20:33.238Z</time>
      </trkpt>
      <trkpt lat="42.37874" lon="23.11355">
        <ele>748.540289</ele>
        <time>2022-04-05T10:20:39.252Z</time>
      </trkpt>
      <trkpt lat="42.37865" lon="23.11358">
        <ele>749.186833</ele>
        <time>2022-04-05T10:20:45.236Z</time>
      </trkpt>
      <trkpt lat="42.37855" lon="23.1136">
        <ele>749.603254</ele>
        <time>2022-04-05T10:20:52.229Z</time>
      </trkpt>
      <trkpt lat="42.37845" lon="23.11363">
        <ele>749.568555</ele>
        <time>2022-04-05T10:20:58.252Z</time>
      </trkpt>
      <trkpt lat="42.37835" lon="23.11365">
        <ele>749.535503</ele>
        <time>2022-04-05T10:21:04.243Z</time>
      </trkpt>
      <trkpt lat="42.37826" lon="23.11367">
        <ele>749.504877</ele>
        <time>2022-04-05T10:21:10.257Z</time>
      </trkpt>
      <trkpt lat="42.37817" lon="23.11369">
        <ele>749.474503</ele>
        <time>2022-04-05T10:21:16.231Z</time>
      </trkpt>
      <trkpt lat="42.37807" lon="23.11371">
        <ele>749.442405</ele>
        <time>2022-04-05T10:21:22.261Z</time>
      </trkpt>
      <trkpt lat="42.37797" lon="23.11374">
        <ele>749.406394</ele>
        <time>2022-04-05T10:21:28.237Z</time>
      </trkpt>
      <trkpt lat="42.37787" lon="23.11376">
        <ele>749.372858</ele>
        <time>2022-04-05T10:21:34.252Z</time>
      </trkpt>
      <trkpt lat="42.37777" lon="23.11377">
        <ele>749.338715</ele>
        <time>2022-04-05T10:21:40.245Z</time>
      </trkpt>
      <trkpt lat="42.37767" lon="23.11378">
        <ele>749.304886</ele>
        <time>2022-04-05T10:21:46.237Z</time>
      </trkpt>
      <trkpt lat="42.37757" lon="23.11379">
        <ele>749.271627</ele>
        <time>2022-04-05T10:21:51.244Z</time>
      </trkpt>
      <trkpt lat="42.37747" lon="23.11381">
        <ele>749.240412</ele>
        <time>2022-04-05T10:21:56.238Z</time>
      </trkpt>
      <trkpt lat="42.37738" lon="23.11382">
        <ele>749.207869</ele>
        <time>2022-04-05T10:22:02.242Z</time>
      </trkpt>
      <trkpt lat="42.37728" lon="23.11382">
        <ele>749.175146</ele>
        <time>2022-04-05T10:22:08.228Z</time>
      </trkpt>
      <trkpt lat="42.37718" lon="23.11383">
        <ele>749.140744</ele>
        <time>2022-04-05T10:22:14.233Z</time>
      </trkpt>
      <trkpt lat="42.37708" lon="23.11383">
        <ele>749.108299</ele>
        <time>2022-04-05T10:22:19.241Z</time>
      </trkpt>
      <trkpt lat="42.37699" lon="23.11384">
        <ele>749.077249</ele>
        <time>2022-04-05T10:22:24.243Z</time>
      </trkpt>
      <trkpt lat="42.37689" lon="23.11383">
        <ele>749.044529</ele>
        <time>2022-04-05T10:22:29.230Z</time>
      </trkpt>
      <trkpt lat="42.37679" lon="23.11383">
        <ele>749.015744</ele>
        <time>2022-04-05T10:22:34.248Z</time>
      </trkpt>
      <trkpt lat="42.37669" lon="23.11382">
        <ele>749.018936</ele>
        <time>2022-04-05T10:22:39.229Z</time>
      </trkpt>
      <trkpt lat="42.37659" lon="23.11381">
        <ele>749.021974</ele>
        <time>2022-04-05T10:22:44.264Z</time>
      </trkpt>
      <trkpt lat="42.37648" lon="23.1138">
        <ele>749.025451</ele>
        <time>2022-04-05T10:22:49.241Z</time>
      </trkpt>
      <trkpt lat="42.37638" lon="23.11378">
        <ele>749.028694</ele>
        <time>2022-04-05T10:22:53.234Z</time>
      </trkpt>
      <trkpt lat="42.37627" lon="23.11376">
        <ele>749.032058</ele>
        <time>2022-04-05T10:22:57.251Z</time>
      </trkpt>
      <trkpt lat="42.37616" lon="23.11374">
        <ele>749.03561</ele>
        <time>2022-04-05T10:23:01.272Z</time>
      </trkpt>
      <trkpt lat="42.37605" lon="23.11371">
        <ele>749.039105</ele>
        <time>2022-04-05T10:23:05.237Z</time>
      </trkpt>
      <trkpt lat="42.37594" lon="23.11369">
        <ele>749.042513</ele>
        <time>2022-04-05T10:23:09.225Z</time>
      </trkpt>
      <trkpt lat="42.37583" lon="23.11365">
        <ele>749.045904</ele>
        <time>2022-04-05T10:23:13.242Z</time>
      </trkpt>
      <trkpt lat="42.37573" lon="23.11362">
        <ele>749.049326</ele>
        <time>2022-04-05T10:23:17.265Z</time>
      </trkpt>
      <trkpt lat="42.37561" lon="23.11359">
        <ele>749.053079</ele>
        <time>2022-04-05T10:23:21.230Z</time>
      </trkpt>
      <trkpt lat="42.37551" lon="23.11356">
        <ele>749.056329</ele>
        <time>2022-04-05T10:23:24.278Z</time>
      </trkpt>
      <trkpt lat="42.3754" lon="23.11351">
        <ele>749.059897</ele>
        <time>2022-04-05T10:23:27.237Z</time>
      </trkpt>
      <trkpt lat="42.37529" lon="23.11346">
        <ele>749.063521</ele>
        <time>2022-04-05T10:23:30.271Z</time>
      </trkpt>
      <trkpt lat="42.37518" lon="23.11342">
        <ele>749.067129</ele>
        <time>2022-04-05T10:23:33.237Z</time>
      </trkpt>
      <trkpt lat="42.37507" lon="23.11337">
        <ele>749.070765</ele>
        <time>2022-04-05T10:23:36.272Z</time>
      </trkpt>
      <trkpt lat="42.37496" lon="23.11331">
        <ele>749.119271</ele>
        <time>2022-04-05T10:23:39.239Z</time>
      </trkpt>
      <trkpt lat="42.37485" lon="23.11326">
        <ele>749.179966</ele>
        <time>2022-04-05T10:23:42.233Z</time>
      </trkpt>
      <trkpt lat="42.37474" lon="23.1132">
        <ele>749.240522</ele>
        <time>2022-04-05T10:23:45.230Z</time>
      </trkpt>
      <trkpt lat="42.37464" lon="23.11314">
        <ele>749.301996</ele>
        <time>2022-04-05T10:23:48.249Z</time>
      </trkpt>
      <trkpt lat="42.37453" lon="23.11308">
        <ele>749.362605</ele>
        <time>2022-04-05T10:23:51.215Z</time>
      </trkpt>
      <trkpt lat="42.37442" lon="23.11302">
        <ele>749.429179</ele>
        <time>2022-04-05T10:23:54.238Z</time>
      </trkpt>
      <trkpt lat="42.3743" lon="23.11295">
        <ele>749.496393</ele>
        <time>2022-04-05T10:23:57.240Z</time>
      </trkpt>
      <trkpt lat="42.37419" lon="23.11288">
        <ele>749.561827</ele>
        <time>2022-04-05T10:24:00.217Z</time>
      </trkpt>
      <trkpt lat="42.37408" lon="23.11281">
        <ele>749.626949</ele>
        <time>2022-04-05T10:24:03.243Z</time>
      </trkpt>
      <trkpt lat="42.37397" lon="23.11274">
        <ele>749.690614</ele>
        <time>2022-04-05T10:24:06.241Z</time>
      </trkpt>
      <trkpt lat="42.37385" lon="23.11266">
        <ele>749.756382</ele>
        <time>2022-04-05T10:24:09.234Z</time>
      </trkpt>
      <trkpt lat="42.37374" lon="23.11259">
        <ele>749.821505</ele>
        <time>2022-04-05T10:24:12.237Z</time>
      </trkpt>
      <trkpt lat="42.37364" lon="23.11252">
        <ele>749.883567</ele>
        <time>2022-04-05T10:24:15.243Z</time>
      </trkpt>
      <trkpt lat="42.37353" lon="23.11245">
        <ele>749.946615</ele>
        <time>2022-04-05T10:24:18.241Z</time>
      </trkpt>
      <trkpt lat="42.37343" lon="23.11239">
        <ele>750.007387</ele>
        <time>2022-04-05T10:24:21.229Z</time>
      </trkpt>
      <trkpt lat="42.37332" lon="23.11232">
        <ele>750.051973</ele>
        <time>2022-04-05T10:24:24.243Z</time>
      </trkpt>
      <trkpt lat="42.37322" lon="23.11225">
        <ele>750.09167</ele>
        <time>2022-04-05T10:24:27.238Z</time>
      </trkpt>
      <trkpt lat="42.37312" lon="23.11218">
        <ele>750.132604</ele>
        <time>2022-04-05T10:24:30.237Z</time>
      </trkpt>
      <trkpt lat="42.37301" lon="23.11211">
        <ele>750.174695</ele>
        <time>2022-04-05T10:24:33.230Z</time>
      </trkpt>
      <trkpt lat="42.3729" lon="23.11204">
        <ele>750.216251</ele>
        <time>2022-04-05T10:24:36.233Z</time>
      </trkpt>
      <trkpt lat="42.37279" lon="23.11197">
        <ele>750.258007</ele>
        <time>2022-04-05T10:24:39.235Z</time>
      </trkpt>
      <trkpt lat="42.37268" lon="23.1119">
        <ele>750.30072</ele>
        <time>2022-04-05T10:24:42.235Z</time>
      </trkpt>
      <trkpt lat="42.37257" lon="23.11182">
        <ele>750.343465</ele>
        <time>2022-04-05T10:24:45.318Z</time>
      </trkpt>
      <trkpt lat="42.37246" lon="23.11175">
        <ele>750.384286</ele>
        <time>2022-04-05T10:24:48.246Z</time>
      </trkpt>
      <trkpt lat="42.37236" lon="23.11168">
        <ele>750.424684</ele>
        <time>2022-04-05T10:24:51.250Z</time>
      </trkpt>
      <trkpt lat="42.37225" lon="23.11161">
        <ele>750.465817</ele>
        <time>2022-04-05T10:24:54.234Z</time>
      </trkpt>
      <trkpt lat="42.37214" lon="23.11154">
        <ele>750.506638</ele>
        <time>2022-04-05T10:24:57.276Z</time>
      </trkpt>
      <trkpt lat="42.37204" lon="23.11147">
        <ele>750.54761</ele>
        <time>2022-04-05T10:25:00.239Z</time>
      </trkpt>
      <trkpt lat="42.37194" lon="23.1114">
        <ele>750.586768</ele>
        <time>2022-04-05T10:25:03.237Z</time>
      </trkpt>
      <trkpt lat="42.37184" lon="23.11133">
        <ele>750.624229</ele>
        <time>2022-04-05T10:25:06.238Z</time>
      </trkpt>
      <trkpt lat="42.37176" lon="23.11128">
        <ele>750.812541</ele>
        <time>2022-04-05T10:25:09.229Z</time>
      </trkpt>
      <trkpt lat="42.37165" lon="23.11121">
        <ele>751.444263</ele>
        <time>2022-04-05T10:25:13.244Z</time>
      </trkpt>
      <trkpt lat="42.37155" lon="23.11114">
        <ele>752.012718</ele>
        <time>2022-04-05T10:25:17.256Z</time>
      </trkpt>
      <trkpt lat="42.37146" lon="23.11108">
        <ele>752.558099</ele>
        <time>2022-04-05T10:25:21.243Z</time>
      </trkpt>
      <trkpt lat="42.37137" lon="23.11101">
        <ele>753.113551</ele>
        <time>2022-04-05T10:25:25.269Z</time>
      </trkpt>
      <trkpt lat="42.37128" lon="23.11095">
        <ele>753.634761</ele>
        <time>2022-04-05T10:25:29.232Z</time>
      </trkpt>
      <trkpt lat="42.37118" lon="23.11089">
        <ele>754.221556</ele>
        <time>2022-04-05T10:25:34.239Z</time>
      </trkpt>
      <trkpt lat="42.3711" lon="23.11083">
        <ele>754.70055</ele>
        <time>2022-04-05T10:25:38.242Z</time>
      </trkpt>
      <trkpt lat="42.37101" lon="23.11078">
        <ele>755.204072</ele>
        <time>2022-04-05T10:25:43.252Z</time>
      </trkpt>
      <trkpt lat="42.37093" lon="23.11072">
        <ele>755.720564</ele>
        <time>2022-04-05T10:25:48.271Z</time>
      </trkpt>
      <trkpt lat="42.37084" lon="23.11066">
        <ele>756.209394</ele>
        <time>2022-04-05T10:25:53.231Z</time>
      </trkpt>
      <trkpt lat="42.37076" lon="23.1106">
        <ele>756.714208</ele>
        <time>2022-04-05T10:25:58.236Z</time>
      </trkpt>
      <trkpt lat="42.37067" lon="23.11055">
        <ele>757.252714</ele>
        <time>2022-04-05T10:26:04.217Z</time>
      </trkpt>
      <trkpt lat="42.37057" lon="23.11049">
        <ele>757.815236</ele>
        <time>2022-04-05T10:26:10.242Z</time>
      </trkpt>
      <trkpt lat="42.37049" lon="23.11043">
        <ele>758.294232</ele>
        <time>2022-04-05T10:26:15.233Z</time>
      </trkpt>
      <trkpt lat="42.3704" lon="23.11037">
        <ele>758.793817</ele>
        <time>2022-04-05T10:26:20.241Z</time>
      </trkpt>
      <trkpt lat="42.37032" lon="23.11032">
        <ele>759.295293</ele>
        <time>2022-04-05T10:26:25.231Z</time>
      </trkpt>
      <trkpt lat="42.37023" lon="23.11027">
        <ele>759.796768</ele>
        <time>2022-04-05T10:26:30.237Z</time>
      </trkpt>
      <trkpt lat="42.37013" lon="23.1102">
        <ele>760.14359</ele>
        <time>2022-04-05T10:26:36.237Z</time>
      </trkpt>
      <trkpt lat="42.37005" lon="23.11014">
        <ele>760.104491</ele>
        <time>2022-04-05T10:26:41.240Z</time>
      </trkpt>
      <trkpt lat="42.36996" lon="23.11008">
        <ele>760.065575</ele>
        <time>2022-04-05T10:26:46.246Z</time>
      </trkpt>
      <trkpt lat="42.36988" lon="23.11003">
        <ele>760.027253</ele>
        <time>2022-04-05T10:26:51.242Z</time>
      </trkpt>
      <trkpt lat="42.36979" lon="23.10997">
        <ele>759.987238</ele>
        <time>2022-04-05T10:26:56.249Z</time>
      </trkpt>
      <trkpt lat="42.36969" lon="23.10991">
        <ele>759.944514</ele>
        <time>2022-04-05T10:27:01.274Z</time>
      </trkpt>
      <trkpt lat="42.3696" lon="23.10985">
        <ele>759.902149</ele>
        <time>2022-04-05T10:27:06.239Z</time>
      </trkpt>
      <trkpt lat="42.36951" lon="23.10979">
        <ele>759.860903</ele>
        <time>2022-04-05T10:27:11.240Z</time>
      </trkpt>
      <trkpt lat="42.36942" lon="23.10972">
        <ele>759.820224</ele>
        <time>2022-04-05T10:27:16.238Z</time>
      </trkpt>
      <trkpt lat="42.36933" lon="23.10967">
        <ele>759.778364</ele>
        <time>2022-04-05T10:27:21.253Z</time>
      </trkpt>
      <trkpt lat="42.36924" lon="23.10961">
        <ele>759.737095</ele>
        <time>2022-04-05T10:27:26.219Z</time>
      </trkpt>
      <trkpt lat="42.36915" lon="23.10955">
        <ele>759.700035</ele>
        <time>2022-04-05T10:27:30.253Z</time>
      </trkpt>
      <trkpt lat="42.36907" lon="23.10949">
        <ele>759.659892</ele>
        <time>2022-04-05T10:27:34.250Z</time>
      </trkpt>
      <trkpt lat="42.36897" lon="23.10943">
        <ele>759.616424</ele>
        <time>2022-04-05T10:27:38.230Z</time>
      </trkpt>
      <trkpt lat="42.36887" lon="23.10937">
        <ele>759.572341</ele>
        <time>2022-04-05T10:27:42.228Z</time>
      </trkpt>
      <trkpt lat="42.36877" lon="23.10932">
        <ele>759.529616</ele>
        <time>2022-04-05T10:27:46.222Z</time>
      </trkpt>
      <trkpt lat="42.36867" lon="23.10924">
        <ele>759.481187</ele>
        <time>2022-04-05T10:27:50.235Z</time>
      </trkpt>
      <trkpt lat="42.36858" lon="23.10919">
        <ele>759.443133</ele>
        <time>2022-04-05T10:27:53.251Z</time>
      </trkpt>
      <trkpt lat="42.36849" lon="23.10913">
        <ele>759.259649</ele>
        <time>2022-04-05T10:27:56.227Z</time>
      </trkpt>
      <trkpt lat="42.36839" lon="23.10906">
        <ele>758.970686</ele>
        <time>2022-04-05T10:27:59.244Z</time>
      </trkpt>
      <trkpt lat="42.36829" lon="23.10899">
        <ele>758.662649</ele>
        <time>2022-04-05T10:28:02.270Z</time>
      </trkpt>
      <trkpt lat="42.36818" lon="23.10891">
        <ele>758.350561</ele>
        <time>2022-04-05T10:28:05.239Z</time>
      </trkpt>
      <trkpt lat="42.36806" lon="23.10883">
        <ele>758.008354</ele>
        <time>2022-04-05T10:28:08.285Z</time>
      </trkpt>
      <trkpt lat="42.36794" lon="23.10875">
        <ele>757.648778</ele>
        <time>2022-04-05T10:28:11.237Z</time>
      </trkpt>
      <trkpt lat="42.36786" lon="23.10869">
        <ele>757.407041</ele>
        <time>2022-04-05T10:28:13.241Z</time>
      </trkpt>
      <trkpt lat="42.36777" lon="23.10863">
        <ele>757.15805</ele>
        <time>2022-04-05T10:28:15.236Z</time>
      </trkpt>
      <trkpt lat="42.36768" lon="23.10856">
        <ele>756.895385</ele>
        <time>2022-04-05T10:28:17.238Z</time>
      </trkpt>
      <trkpt lat="42.36759" lon="23.1085">
        <ele>756.62447</ele>
        <time>2022-04-05T10:28:19.271Z</time>
      </trkpt>
      <trkpt lat="42.3675" lon="23.10842">
        <ele>756.342609</ele>
        <time>2022-04-05T10:28:21.269Z</time>
      </trkpt>
      <trkpt lat="42.3674" lon="23.10835">
        <ele>756.055987</ele>
        <time>2022-04-05T10:28:23.236Z</time>
      </trkpt>
      <trkpt lat="42.3673" lon="23.10827">
        <ele>755.754907</ele>
        <time>2022-04-05T10:28:25.243Z</time>
      </trkpt>
      <trkpt lat="42.3672" lon="23.1082">
        <ele>755.458892</ele>
        <time>2022-04-05T10:28:27.231Z</time>
      </trkpt>
      <trkpt lat="42.3671" lon="23.10812">
        <ele>755.157432</ele>
        <time>2022-04-05T10:28:29.239Z</time>
      </trkpt>
      <trkpt lat="42.367" lon="23.10803">
        <ele>754.849299</ele>
        <time>2022-04-05T10:28:31.241Z</time>
      </trkpt>
      <trkpt lat="42.3669" lon="23.10795">
        <ele>754.703279</ele>
        <time>2022-04-05T10:28:33.239Z</time>
      </trkpt>
      <trkpt lat="42.3668" lon="23.10787">
        <ele>754.626361</ele>
        <time>2022-04-05T10:28:35.219Z</time>
      </trkpt>
      <trkpt lat="42.36669" lon="23.10779">
        <ele>754.547507</ele>
        <time>2022-04-05T10:28:37.230Z</time>
      </trkpt>
      <trkpt lat="42.36659" lon="23.1077">
        <ele>754.46829</ele>
        <time>2022-04-05T10:28:39.244Z</time>
      </trkpt>
      <trkpt lat="42.36648" lon="23.10762">
        <ele>754.387656</ele>
        <time>2022-04-05T10:28:41.229Z</time>
      </trkpt>
      <trkpt lat="42.36638" lon="23.10753">
        <ele>754.306772</ele>
        <time>2022-04-05T10:28:43.233Z</time>
      </trkpt>
      <trkpt lat="42.36628" lon="23.10745">
        <ele>754.230174</ele>
        <time>2022-04-05T10:28:45.233Z</time>
      </trkpt>
      <trkpt lat="42.36618" lon="23.10737">
        <ele>754.154745</ele>
        <time>2022-04-05T10:28:47.289Z</time>
      </trkpt>
      <trkpt lat="42.36608" lon="23.10728">
        <ele>754.080969</ele>
        <time>2022-04-05T10:28:49.230Z</time>
      </trkpt>
      <trkpt lat="42.36599" lon="23.10721">
        <ele>754.009837</ele>
        <time>2022-04-05T10:28:51.240Z</time>
      </trkpt>
      <trkpt lat="42.3659" lon="23.10713">
        <ele>753.941129</ele>
        <time>2022-04-05T10:28:53.223Z</time>
      </trkpt>
      <trkpt lat="42.36581" lon="23.10706">
        <ele>753.874594</ele>
        <time>2022-04-05T10:28:55.237Z</time>
      </trkpt>
      <trkpt lat="42.36573" lon="23.10699">
        <ele>753.809978</ele>
        <time>2022-04-05T10:28:57.237Z</time>
      </trkpt>
      <trkpt lat="42.36565" lon="23.10692">
        <ele>753.747026</ele>
        <time>2022-04-05T10:28:59.226Z</time>
      </trkpt>
      <trkpt lat="42.36557" lon="23.10685">
        <ele>753.685644</ele>
        <time>2022-04-05T10:29:01.246Z</time>
      </trkpt>
      <trkpt lat="42.36546" lon="23.10675">
        <ele>753.59891</ele>
        <time>2022-04-05T10:29:04.226Z</time>
      </trkpt>
      <trkpt lat="42.36534" lon="23.10666">
        <ele>753.649464</ele>
        <time>2022-04-05T10:29:07.256Z</time>
      </trkpt>
      <trkpt lat="42.36523" lon="23.10656">
        <ele>753.729465</ele>
        <time>2022-04-05T10:29:10.257Z</time>
      </trkpt>
      <trkpt lat="42.36512" lon="23.10647">
        <ele>753.80652</ele>
        <time>2022-04-05T10:29:13.235Z</time>
      </trkpt>
      <trkpt lat="42.36501" lon="23.10637">
        <ele>753.887025</ele>
        <time>2022-04-05T10:29:16.255Z</time>
      </trkpt>
      <trkpt lat="42.3649" lon="23.10628">
        <ele>753.963065</ele>
        <time>2022-04-05T10:29:19.248Z</time>
      </trkpt>
      <trkpt lat="42.3648" lon="23.10619">
        <ele>754.03823</ele>
        <time>2022-04-05T10:29:22.254Z</time>
      </trkpt>
      <trkpt lat="42.36469" lon="23.1061">
        <ele>754.111772</ele>
        <time>2022-04-05T10:29:25.236Z</time>
      </trkpt>
      <trkpt lat="42.36459" lon="23.10602">
        <ele>754.181395</ele>
        <time>2022-04-05T10:29:28.274Z</time>
      </trkpt>
      <trkpt lat="42.36449" lon="23.10593">
        <ele>754.253448</ele>
        <time>2022-04-05T10:29:31.228Z</time>
      </trkpt>
      <trkpt lat="42.36439" lon="23.10585">
        <ele>754.327068</ele>
        <time>2022-04-05T10:29:34.269Z</time>
      </trkpt>
      <trkpt lat="42.36428" lon="23.10575">
        <ele>754.40234</ele>
        <time>2022-04-05T10:29:37.237Z</time>
      </trkpt>
      <trkpt lat="42.36418" lon="23.10566">
        <ele>754.478601</ele>
        <time>2022-04-05T10:29:40.273Z</time>
      </trkpt>
      <trkpt lat="42.36408" lon="23.10556">
        <ele>754.553448</ele>
        <time>2022-04-05T10:29:43.252Z</time>
      </trkpt>
      <trkpt lat="42.36397" lon="23.10546">
        <ele>754.628465</ele>
        <time>2022-04-05T10:29:46.231Z</time>
      </trkpt>
      <trkpt lat="42.36387" lon="23.10535">
        <ele>754.64364</ele>
        <time>2022-04-05T10:29:49.237Z</time>
      </trkpt>
      <trkpt lat="42.36378" lon="23.10524">
        <ele>754.609413</ele>
        <time>2022-04-05T10:29:52.236Z</time>
      </trkpt>
      <trkpt lat="42.36368" lon="23.10513">
        <ele>754.574119</ele>
        <time>2022-04-05T10:29:55.270Z</time>
      </trkpt>
      <trkpt lat="42.36359" lon="23.10501">
        <ele>754.539212</ele>
        <time>2022-04-05T10:29:58.243Z</time>
      </trkpt>
      <trkpt lat="42.36352" lon="23.10492">
        <ele>754.514337</ele>
        <time>2022-04-05T10:30:00.254Z</time>
      </trkpt>
      <trkpt lat="42.36346" lon="23.10483">
        <ele>754.489078</ele>
        <time>2022-04-05T10:30:02.228Z</time>
      </trkpt>
      <trkpt lat="42.36339" lon="23.10473">
        <ele>754.461755</ele>
        <time>2022-04-05T10:30:04.233Z</time>
      </trkpt>
      <trkpt lat="42.36332" lon="23.10463">
        <ele>754.434725</ele>
        <time>2022-04-05T10:30:06.229Z</time>
      </trkpt>
      <trkpt lat="42.36326" lon="23.10453">
        <ele>754.408362</ele>
        <time>2022-04-05T10:30:08.284Z</time>
      </trkpt>
      <trkpt lat="42.36319" lon="23.10444">
        <ele>754.382365</ele>
        <time>2022-04-05T10:30:10.236Z</time>
      </trkpt>
      <trkpt lat="42.36313" lon="23.10434">
        <ele>754.357391</ele>
        <time>2022-04-05T10:30:12.249Z</time>
      </trkpt>
      <trkpt lat="42.36307" lon="23.10425">
        <ele>754.332539</ele>
        <time>2022-04-05T10:30:14.300Z</time>
      </trkpt>
      <trkpt lat="42.36301" lon="23.10416">
        <ele>754.306874</ele>
        <time>2022-04-05T10:30:16.247Z</time>
      </trkpt>
      <trkpt lat="42.36294" lon="23.10406">
        <ele>754.280569</ele>
        <time>2022-04-05T10:30:18.252Z</time>
      </trkpt>
      <trkpt lat="42.36288" lon="23.10397">
        <ele>754.254831</ele>
        <time>2022-04-05T10:30:20.226Z</time>
      </trkpt>
      <trkpt lat="42.36281" lon="23.10388">
        <ele>754.228716</ele>
        <time>2022-04-05T10:30:22.232Z</time>
      </trkpt>
      <trkpt lat="42.36274" lon="23.10379">
        <ele>754.202836</ele>
        <time>2022-04-05T10:30:24.236Z</time>
      </trkpt>
      <trkpt lat="42.36267" lon="23.10369">
        <ele>754.175809</ele>
        <time>2022-04-05T10:30:26.271Z</time>
      </trkpt>
      <trkpt lat="42.3626" lon="23.1036">
        <ele>754.170825</ele>
        <time>2022-04-05T10:30:28.242Z</time>
      </trkpt>
      <trkpt lat="42.36252" lon="23.10352">
        <ele>754.168038</ele>
        <time>2022-04-05T10:30:30.229Z</time>
      </trkpt>
      <trkpt lat="42.36244" lon="23.10342">
        <ele>754.165106</ele>
        <time>2022-04-05T10:30:32.289Z</time>
      </trkpt>
      <trkpt lat="42.36235" lon="23.10333">
        <ele>754.162145</ele>
        <time>2022-04-05T10:30:34.251Z</time>
      </trkpt>
      <trkpt lat="42.36226" lon="23.10324">
        <ele>754.159199</ele>
        <time>2022-04-05T10:30:36.257Z</time>
      </trkpt>
      <trkpt lat="42.36218" lon="23.10316">
        <ele>754.156268</ele>
        <time>2022-04-05T10:30:38.248Z</time>
      </trkpt>
      <trkpt lat="42.36209" lon="23.10309">
        <ele>754.153356</ele>
        <time>2022-04-05T10:30:40.230Z</time>
      </trkpt>
      <trkpt lat="42.36199" lon="23.10301">
        <ele>754.150391</ele>
        <time>2022-04-05T10:30:42.234Z</time>
      </trkpt>
      <trkpt lat="42.3619" lon="23.10294">
        <ele>754.147497</ele>
        <time>2022-04-05T10:30:44.243Z</time>
      </trkpt>
      <trkpt lat="42.36181" lon="23.10287">
        <ele>754.144527</ele>
        <time>2022-04-05T10:30:46.234Z</time>
      </trkpt>
      <trkpt lat="42.36172" lon="23.1028">
        <ele>754.141792</ele>
        <time>2022-04-05T10:30:48.261Z</time>
      </trkpt>
      <trkpt lat="42.36163" lon="23.10275">
        <ele>754.139102</ele>
        <time>2022-04-05T10:30:50.246Z</time>
      </trkpt>
      <trkpt lat="42.36153" lon="23.10269">
        <ele>754.136294</ele>
        <time>2022-04-05T10:30:52.252Z</time>
      </trkpt>
      <trkpt lat="42.36144" lon="23.10264">
        <ele>754.133537</ele>
        <time>2022-04-05T10:30:54.261Z</time>
      </trkpt>
      <trkpt lat="42.36135" lon="23.1026">
        <ele>754.130941</ele>
        <time>2022-04-05T10:30:56.251Z</time>
      </trkpt>
      <trkpt lat="42.36126" lon="23.10255">
        <ele>754.128348</ele>
        <time>2022-04-05T10:30:58.231Z</time>
      </trkpt>
      <trkpt lat="42.36118" lon="23.10251">
        <ele>754.125811</ele>
        <time>2022-04-05T10:31:00.233Z</time>
      </trkpt>
      <trkpt lat="42.36108" lon="23.10247">
        <ele>754.094024</ele>
        <time>2022-04-05T10:31:02.223Z</time>
      </trkpt>
      <trkpt lat="42.36099" lon="23.10242">
        <ele>754.000735</ele>
        <time>2022-04-05T10:31:04.225Z</time>
      </trkpt>
      <trkpt lat="42.36089" lon="23.10237">
        <ele>753.908444</ele>
        <time>2022-04-05T10:31:06.229Z</time>
      </trkpt>
      <trkpt lat="42.3608" lon="23.10232">
        <ele>753.819782</ele>
        <time>2022-04-05T10:31:08.237Z</time>
      </trkpt>
      <trkpt lat="42.36071" lon="23.10228">
        <ele>753.734655</ele>
        <time>2022-04-05T10:31:10.237Z</time>
      </trkpt>
      <trkpt lat="42.36061" lon="23.10224">
        <ele>753.646375</ele>
        <time>2022-04-05T10:31:12.252Z</time>
      </trkpt>
      <trkpt lat="42.36052" lon="23.1022">
        <ele>753.558295</ele>
        <time>2022-04-05T10:31:14.253Z</time>
      </trkpt>
      <trkpt lat="42.36043" lon="23.10215">
        <ele>753.472956</ele>
        <time>2022-04-05T10:31:16.263Z</time>
      </trkpt>
      <trkpt lat="42.3603" lon="23.10209">
        <ele>753.352701</ele>
        <time>2022-04-05T10:31:19.279Z</time>
      </trkpt>
      <trkpt lat="42.36018" lon="23.10203">
        <ele>753.233797</ele>
        <time>2022-04-05T10:31:22.230Z</time>
      </trkpt>
      <trkpt lat="42.36006" lon="23.10197">
        <ele>753.119119</ele>
        <time>2022-04-05T10:31:25.261Z</time>
      </trkpt>
      <trkpt lat="42.35994" lon="23.10192">
        <ele>753.006933</ele>
        <time>2022-04-05T10:31:28.239Z</time>
      </trkpt>
      <trkpt lat="42.35982" lon="23.10187">
        <ele>752.897513</ele>
        <time>2022-04-05T10:31:31.234Z</time>
      </trkpt>
      <trkpt lat="42.35971" lon="23.10181">
        <ele>752.791481</ele>
        <time>2022-04-05T10:31:34.236Z</time>
      </trkpt>
      <trkpt lat="42.3596" lon="23.10176">
        <ele>752.687997</ele>
        <time>2022-04-05T10:31:37.244Z</time>
      </trkpt>
      <trkpt lat="42.35948" lon="23.10171">
        <ele>752.579441</ele>
        <time>2022-04-05T10:31:40.237Z</time>
      </trkpt>
      <trkpt lat="42.35937" lon="23.10166">
        <ele>752.462082</ele>
        <time>2022-04-05T10:31:43.270Z</time>
      </trkpt>
      <trkpt lat="42.35925" lon="23.10161">
        <ele>752.334651</ele>
        <time>2022-04-05T10:31:46.240Z</time>
      </trkpt>
      <trkpt lat="42.35913" lon="23.10155">
        <ele>752.204754</ele>
        <time>2022-04-05T10:31:49.239Z</time>
      </trkpt>
      <trkpt lat="42.35901" lon="23.1015">
        <ele>752.068405</ele>
        <time>2022-04-05T10:31:52.270Z</time>
      </trkpt>
      <trkpt lat="42.35892" lon="23.10146">
        <ele>751.974179</ele>
        <time>2022-04-05T10:31:54.237Z</time>
      </trkpt>
      <trkpt lat="42.3588" lon="23.10141">
        <ele>751.835836</ele>
        <time>2022-04-05T10:31:57.248Z</time>
      </trkpt>
      <trkpt lat="42.35867" lon="23.10136">
        <ele>751.698253</ele>
        <time>2022-04-05T10:32:00.242Z</time>
      </trkpt>
      <trkpt lat="42.35859" lon="23.10131">
        <ele>751.601824</ele>
        <time>2022-04-05T10:32:02.240Z</time>
      </trkpt>
      <trkpt lat="42.3585" lon="23.10128">
        <ele>751.506886</ele>
        <time>2022-04-05T10:32:04.232Z</time>
      </trkpt>
      <trkpt lat="42.35841" lon="23.10123">
        <ele>751.409669</ele>
        <time>2022-04-05T10:32:06.248Z</time>
      </trkpt>
      <trkpt lat="42.35829" lon="23.10117">
        <ele>751.269615</ele>
        <time>2022-04-05T10:32:09.228Z</time>
      </trkpt>
      <trkpt lat="42.35816" lon="23.10112">
        <ele>751.133266</ele>
        <time>2022-04-05T10:32:12.218Z</time>
      </trkpt>
      <trkpt lat="42.35804" lon="23.10106">
        <ele>750.994948</ele>
        <time>2022-04-05T10:32:15.232Z</time>
      </trkpt>
      <trkpt lat="42.35795" lon="23.10102">
        <ele>750.900253</ele>
        <time>2022-04-05T10:32:17.237Z</time>
      </trkpt>
      <trkpt lat="42.35786" lon="23.10099">
        <ele>750.805314</ele>
        <time>2022-04-05T10:32:19.235Z</time>
      </trkpt>
      <trkpt lat="42.35774" lon="23.10093">
        <ele>750.669963</ele>
        <time>2022-04-05T10:32:22.248Z</time>
      </trkpt>
      <trkpt lat="42.35762" lon="23.10087">
        <ele>750.358275</ele>
        <time>2022-04-05T10:32:25.269Z</time>
      </trkpt>
      <trkpt lat="42.3575" lon="23.10082">
        <ele>749.994712</ele>
        <time>2022-04-05T10:32:28.241Z</time>
      </trkpt>
      <trkpt lat="42.35738" lon="23.10077">
        <ele>749.636575</ele>
        <time>2022-04-05T10:32:31.240Z</time>
      </trkpt>
      <trkpt lat="42.35727" lon="23.10072">
        <ele>749.292851</ele>
        <time>2022-04-05T10:32:34.248Z</time>
      </trkpt>
      <trkpt lat="42.35715" lon="23.10066">
        <ele>748.934049</ele>
        <time>2022-04-05T10:32:37.243Z</time>
      </trkpt>
      <trkpt lat="42.35703" lon="23.1006">
        <ele>748.558754</ele>
        <time>2022-04-05T10:32:40.231Z</time>
      </trkpt>
      <trkpt lat="42.35691" lon="23.10054">
        <ele>748.172569</ele>
        <time>2022-04-05T10:32:43.241Z</time>
      </trkpt>
      <trkpt lat="42.35678" lon="23.10048">
        <ele>747.786385</ele>
        <time>2022-04-05T10:32:46.241Z</time>
      </trkpt>
      <trkpt lat="42.3567" lon="23.10044">
        <ele>747.526893</ele>
        <time>2022-04-05T10:32:48.273Z</time>
      </trkpt>
      <trkpt lat="42.35661" lon="23.1004">
        <ele>747.257613</ele>
        <time>2022-04-05T10:32:50.238Z</time>
      </trkpt>
      <trkpt lat="42.35652" lon="23.10035">
        <ele>746.9775</ele>
        <time>2022-04-05T10:32:52.259Z</time>
      </trkpt>
      <trkpt lat="42.35643" lon="23.10031">
        <ele>746.698113</ele>
        <time>2022-04-05T10:32:54.259Z</time>
      </trkpt>
      <trkpt lat="42.35633" lon="23.10026">
        <ele>746.407637</ele>
        <time>2022-04-05T10:32:56.236Z</time>
      </trkpt>
      <trkpt lat="42.35623" lon="23.10021">
        <ele>746.100149</ele>
        <time>2022-04-05T10:32:58.217Z</time>
      </trkpt>
      <trkpt lat="42.35613" lon="23.10016">
        <ele>745.773434</ele>
        <time>2022-04-05T10:33:00.236Z</time>
      </trkpt>
      <trkpt lat="42.35601" lon="23.1001">
        <ele>745.421357</ele>
        <time>2022-04-05T10:33:02.243Z</time>
      </trkpt>
      <trkpt lat="42.35589" lon="23.10004">
        <ele>744.977052</ele>
        <time>2022-04-05T10:33:04.235Z</time>
      </trkpt>
      <trkpt lat="42.35577" lon="23.09998">
        <ele>744.507629</ele>
        <time>2022-04-05T10:33:06.241Z</time>
      </trkpt>
      <trkpt lat="42.35564" lon="23.09991">
        <ele>744.045017</ele>
        <time>2022-04-05T10:33:08.243Z</time>
      </trkpt>
      <trkpt lat="42.35551" lon="23.09984">
        <ele>743.55013</ele>
        <time>2022-04-05T10:33:10.238Z</time>
      </trkpt>
      <trkpt lat="42.35537" lon="23.09976">
        <ele>743.012511</ele>
        <time>2022-04-05T10:33:12.253Z</time>
      </trkpt>
      <trkpt lat="42.35521" lon="23.09967">
        <ele>742.427638</ele>
        <time>2022-04-05T10:33:14.236Z</time>
      </trkpt>
      <trkpt lat="42.35505" lon="23.09957">
        <ele>741.819541</ele>
        <time>2022-04-05T10:33:16.278Z</time>
      </trkpt>
      <trkpt lat="42.3549" lon="23.09946">
        <ele>741.205967</ele>
        <time>2022-04-05T10:33:18.227Z</time>
      </trkpt>
      <trkpt lat="42.35481" lon="23.09941">
        <ele>740.894479</ele>
        <time>2022-04-05T10:33:19.240Z</time>
      </trkpt>
      <trkpt lat="42.35465" lon="23.0993">
        <ele>740.260792</ele>
        <time>2022-04-05T10:33:21.266Z</time>
      </trkpt>
      <trkpt lat="42.35457" lon="23.09925">
        <ele>739.933147</ele>
        <time>2022-04-05T10:33:22.275Z</time>
      </trkpt>
      <trkpt lat="42.35448" lon="23.09919">
        <ele>739.612858</ele>
        <time>2022-04-05T10:33:23.242Z</time>
      </trkpt>
      <trkpt lat="42.3544" lon="23.09913">
        <ele>739.295656</ele>
        <time>2022-04-05T10:33:24.242Z</time>
      </trkpt>
      <trkpt lat="42.35432" lon="23.09907">
        <ele>738.944264</ele>
        <time>2022-04-05T10:33:25.232Z</time>
      </trkpt>
      <trkpt lat="42.35424" lon="23.09902">
        <ele>738.581326</ele>
        <time>2022-04-05T10:33:26.251Z</time>
      </trkpt>
      <trkpt lat="42.35416" lon="23.09896">
        <ele>738.217558</ele>
        <time>2022-04-05T10:33:27.243Z</time>
      </trkpt>
      <trkpt lat="42.354" lon="23.09885">
        <ele>737.507642</ele>
        <time>2022-04-05T10:33:29.260Z</time>
      </trkpt>
      <trkpt lat="42.35384" lon="23.09874">
        <ele>736.814982</ele>
        <time>2022-04-05T10:33:31.234Z</time>
      </trkpt>
      <trkpt lat="42.35369" lon="23.09864">
        <ele>736.141736</ele>
        <time>2022-04-05T10:33:33.236Z</time>
      </trkpt>
      <trkpt lat="42.35354" lon="23.09854">
        <ele>735.48395</ele>
        <time>2022-04-05T10:33:35.244Z</time>
      </trkpt>
      <trkpt lat="42.3534" lon="23.09843">
        <ele>734.838877</ele>
        <time>2022-04-05T10:33:37.237Z</time>
      </trkpt>
      <trkpt lat="42.35326" lon="23.09834">
        <ele>734.208903</ele>
        <time>2022-04-05T10:33:39.238Z</time>
      </trkpt>
      <trkpt lat="42.35312" lon="23.09824">
        <ele>733.578928</ele>
        <time>2022-04-05T10:33:41.246Z</time>
      </trkpt>
      <trkpt lat="42.35298" lon="23.09814">
        <ele>732.954763</ele>
        <time>2022-04-05T10:33:43.263Z</time>
      </trkpt>
      <trkpt lat="42.35285" lon="23.09804">
        <ele>732.355635</ele>
        <time>2022-04-05T10:33:45.225Z</time>
      </trkpt>
      <trkpt lat="42.35272" lon="23.09794">
        <ele>731.888609</ele>
        <time>2022-04-05T10:33:47.239Z</time>
      </trkpt>
      <trkpt lat="42.3526" lon="23.09784">
        <ele>731.53395</ele>
        <time>2022-04-05T10:33:49.238Z</time>
      </trkpt>
      <trkpt lat="42.35248" lon="23.09772">
        <ele>731.177109</ele>
        <time>2022-04-05T10:33:51.224Z</time>
      </trkpt>
      <trkpt lat="42.35237" lon="23.09761">
        <ele>730.824457</ele>
        <time>2022-04-05T10:33:53.276Z</time>
      </trkpt>
      <trkpt lat="42.35226" lon="23.0975">
        <ele>730.48198</ele>
        <time>2022-04-05T10:33:55.247Z</time>
      </trkpt>
      <trkpt lat="42.35215" lon="23.09738">
        <ele>730.140501</ele>
        <time>2022-04-05T10:33:57.243Z</time>
      </trkpt>
      <trkpt lat="42.35206" lon="23.09726">
        <ele>729.81477</ele>
        <time>2022-04-05T10:33:59.247Z</time>
      </trkpt>
      <trkpt lat="42.35196" lon="23.09715">
        <ele>729.500096</ele>
        <time>2022-04-05T10:34:01.253Z</time>
      </trkpt>
      <trkpt lat="42.35187" lon="23.09704">
        <ele>729.194066</ele>
        <time>2022-04-05T10:34:03.252Z</time>
      </trkpt>
      <trkpt lat="42.35178" lon="23.09692">
        <ele>728.880643</ele>
        <time>2022-04-05T10:34:05.219Z</time>
      </trkpt>
      <trkpt lat="42.35168" lon="23.09681">
        <ele>728.573346</ele>
        <time>2022-04-05T10:34:07.277Z</time>
      </trkpt>
      <trkpt lat="42.3516" lon="23.09671">
        <ele>728.292445</ele>
        <time>2022-04-05T10:34:09.261Z</time>
      </trkpt>
      <trkpt lat="42.35152" lon="23.09662">
        <ele>728.026684</ele>
        <time>2022-04-05T10:34:11.240Z</time>
      </trkpt>
      <trkpt lat="42.35144" lon="23.09653">
        <ele>727.778296</ele>
        <time>2022-04-05T10:34:13.247Z</time>
      </trkpt>
      <trkpt lat="42.35137" lon="23.09645">
        <ele>727.574632</ele>
        <time>2022-04-05T10:34:15.245Z</time>
      </trkpt>
      <trkpt lat="42.3513" lon="23.09637">
        <ele>727.504344</ele>
        <time>2022-04-05T10:34:17.239Z</time>
      </trkpt>
      <trkpt lat="42.35119" lon="23.09627">
        <ele>727.406605</ele>
        <time>2022-04-05T10:34:20.236Z</time>
      </trkpt>
      <trkpt lat="42.35109" lon="23.09617">
        <ele>727.310812</ele>
        <time>2022-04-05T10:34:23.224Z</time>
      </trkpt>
      <trkpt lat="42.35099" lon="23.09607">
        <ele>727.215019</ele>
        <time>2022-04-05T10:34:26.232Z</time>
      </trkpt>
      <trkpt lat="42.35088" lon="23.09598">
        <ele>727.121413</ele>
        <time>2022-04-05T10:34:29.329Z</time>
      </trkpt>
      <trkpt lat="42.35078" lon="23.09589">
        <ele>727.027204</ele>
        <time>2022-04-05T10:34:32.238Z</time>
      </trkpt>
      <trkpt lat="42.35066" lon="23.0958">
        <ele>726.924879</ele>
        <time>2022-04-05T10:34:35.234Z</time>
      </trkpt>
      <trkpt lat="42.35058" lon="23.09574">
        <ele>726.853739</ele>
        <time>2022-04-05T10:34:37.264Z</time>
      </trkpt>
      <trkpt lat="42.3505" lon="23.09568">
        <ele>726.781838</ele>
        <time>2022-04-05T10:34:39.244Z</time>
      </trkpt>
      <trkpt lat="42.35041" lon="23.09563">
        <ele>726.708558</ele>
        <time>2022-04-05T10:34:41.238Z</time>
      </trkpt>
      <trkpt lat="42.35032" lon="23.09559">
        <ele>726.633512</ele>
        <time>2022-04-05T10:34:43.227Z</time>
      </trkpt>
      <trkpt lat="42.35022" lon="23.09553">
        <ele>726.554658</ele>
        <time>2022-04-05T10:34:45.239Z</time>
      </trkpt>
      <trkpt lat="42.35013" lon="23.09548">
        <ele>726.475953</ele>
        <time>2022-04-05T10:34:47.278Z</time>
      </trkpt>
      <trkpt lat="42.35003" lon="23.09544">
        <ele>726.397504</ele>
        <time>2022-04-05T10:34:49.240Z</time>
      </trkpt>
      <trkpt lat="42.34993" lon="23.0954">
        <ele>726.3176</ele>
        <time>2022-04-05T10:34:51.281Z</time>
      </trkpt>
      <trkpt lat="42.34983" lon="23.09536">
        <ele>726.238632</ele>
        <time>2022-04-05T10:34:53.255Z</time>
      </trkpt>
      <trkpt lat="42.34973" lon="23.09532">
        <ele>726.171621</ele>
        <time>2022-04-05T10:34:55.247Z</time>
      </trkpt>
      <trkpt lat="42.34964" lon="23.09528">
        <ele>726.114556</ele>
        <time>2022-04-05T10:34:57.231Z</time>
      </trkpt>
      <trkpt lat="42.34955" lon="23.09526">
        <ele>726.057124</ele>
        <time>2022-04-05T10:34:59.255Z</time>
      </trkpt>
      <trkpt lat="42.34946" lon="23.09524">
        <ele>725.996695</ele>
        <time>2022-04-05T10:35:01.237Z</time>
      </trkpt>
      <trkpt lat="42.34935" lon="23.09523">
        <ele>725.932699</ele>
        <time>2022-04-05T10:35:03.220Z</time>
      </trkpt>
      <trkpt lat="42.34925" lon="23.09521">
        <ele>725.866961</ele>
        <time>2022-04-05T10:35:05.242Z</time>
      </trkpt>
      <trkpt lat="42.34914" lon="23.09519">
        <ele>725.798644</ele>
        <time>2022-04-05T10:35:07.250Z</time>
      </trkpt>
      <trkpt lat="42.34903" lon="23.09518">
        <ele>725.731145</ele>
        <time>2022-04-05T10:35:09.238Z</time>
      </trkpt>
      <trkpt lat="42.34893" lon="23.09517">
        <ele>725.665068</ele>
        <time>2022-04-05T10:35:11.241Z</time>
      </trkpt>
      <trkpt lat="42.34882" lon="23.09516">
        <ele>725.599081</ele>
        <time>2022-04-05T10:35:13.229Z</time>
      </trkpt>
      <trkpt lat="42.34871" lon="23.09515">
        <ele>725.530385</ele>
        <time>2022-04-05T10:35:15.241Z</time>
      </trkpt>
      <trkpt lat="42.3486" lon="23.09514">
        <ele>725.461028</ele>
        <time>2022-04-05T10:35:17.220Z</time>
      </trkpt>
      <trkpt lat="42.34848" lon="23.09512">
        <ele>725.388486</ele>
        <time>2022-04-05T10:35:19.268Z</time>
      </trkpt>
      <trkpt lat="42.34837" lon="23.09511">
        <ele>725.316761</ele>
        <time>2022-04-05T10:35:21.273Z</time>
      </trkpt>
      <trkpt lat="42.34826" lon="23.0951">
        <ele>725.249513</ele>
        <time>2022-04-05T10:35:23.239Z</time>
      </trkpt>
      <trkpt lat="42.34817" lon="23.09509">
        <ele>725.190885</ele>
        <time>2022-04-05T10:35:25.249Z</time>
      </trkpt>
      <trkpt lat="42.34805" lon="23.09508">
        <ele>725.117769</ele>
        <time>2022-04-05T10:35:28.238Z</time>
      </trkpt>
      <trkpt lat="42.34794" lon="23.09507">
        <ele>725.017727</ele>
        <time>2022-04-05T10:35:31.222Z</time>
      </trkpt>
      <trkpt lat="42.34785" lon="23.09506">
        <ele>724.909645</ele>
        <time>2022-04-05T10:35:34.244Z</time>
      </trkpt>
      <trkpt lat="42.34775" lon="23.09506">
        <ele>724.805013</ele>
        <time>2022-04-05T10:35:37.240Z</time>
      </trkpt>
      <trkpt lat="42.34765" lon="23.09505">
        <ele>724.692623</ele>
        <time>2022-04-05T10:35:40.272Z</time>
      </trkpt>
      <trkpt lat="42.34754" lon="23.09504">
        <ele>724.57465</ele>
        <time>2022-04-05T10:35:43.231Z</time>
      </trkpt>
      <trkpt lat="42.34742" lon="23.09504">
        <ele>724.445851</ele>
        <time>2022-04-05T10:35:46.261Z</time>
      </trkpt>
      <trkpt lat="42.34729" lon="23.09502">
        <ele>724.304437</ele>
        <time>2022-04-05T10:35:49.236Z</time>
      </trkpt>
      <trkpt lat="42.3472" lon="23.09501">
        <ele>724.20406</ele>
        <time>2022-04-05T10:35:51.243Z</time>
      </trkpt>
      <trkpt lat="42.34707" lon="23.095">
        <ele>724.057948</ele>
        <time>2022-04-05T10:35:54.234Z</time>
      </trkpt>
      <trkpt lat="42.34694" lon="23.09499">
        <ele>723.915451</ele>
        <time>2022-04-05T10:35:57.244Z</time>
      </trkpt>
      <trkpt lat="42.34684" lon="23.09498">
        <ele>723.816251</ele>
        <time>2022-04-05T10:35:59.275Z</time>
      </trkpt>
      <trkpt lat="42.34675" lon="23.09498">
        <ele>723.711631</ele>
        <time>2022-04-05T10:36:01.236Z</time>
      </trkpt>
      <trkpt lat="42.34665" lon="23.09498">
        <ele>723.609077</ele>
        <time>2022-04-05T10:36:03.235Z</time>
      </trkpt>
      <trkpt lat="42.34656" lon="23.09496">
        <ele>723.503565</ele>
        <time>2022-04-05T10:36:05.242Z</time>
      </trkpt>
      <trkpt lat="42.34646" lon="23.09495">
        <ele>723.395312</ele>
        <time>2022-04-05T10:36:07.241Z</time>
      </trkpt>
      <trkpt lat="42.34636" lon="23.09494">
        <ele>723.290318</ele>
        <time>2022-04-05T10:36:09.237Z</time>
      </trkpt>
      <trkpt lat="42.34627" lon="23.09493">
        <ele>723.184302</ele>
        <time>2022-04-05T10:36:11.241Z</time>
      </trkpt>
      <trkpt lat="42.34617" lon="23.09492">
        <ele>723.05577</ele>
        <time>2022-04-05T10:36:13.244Z</time>
      </trkpt>
      <trkpt lat="42.34608" lon="23.09491">
        <ele>722.904083</ele>
        <time>2022-04-05T10:36:15.269Z</time>
      </trkpt>
      <trkpt lat="42.34599" lon="23.09489">
        <ele>722.752396</ele>
        <time>2022-04-05T10:36:17.223Z</time>
      </trkpt>
      <trkpt lat="42.3459" lon="23.09488">
        <ele>722.602631</ele>
        <time>2022-04-05T10:36:19.229Z</time>
      </trkpt>
      <trkpt lat="42.34577" lon="23.09487">
        <ele>722.378772</ele>
        <time>2022-04-05T10:36:22.265Z</time>
      </trkpt>
      <trkpt lat="42.34567" lon="23.09485">
        <ele>722.218724</ele>
        <time>2022-04-05T10:36:24.238Z</time>
      </trkpt>
      <trkpt lat="42.34558" lon="23.09483">
        <ele>722.061804</ele>
        <time>2022-04-05T10:36:26.249Z</time>
      </trkpt>
      <trkpt lat="42.34549" lon="23.09482">
        <ele>721.908474</ele>
        <time>2022-04-05T10:36:28.244Z</time>
      </trkpt>
      <trkpt lat="42.34539" lon="23.09481">
        <ele>721.752246</ele>
        <time>2022-04-05T10:36:30.232Z</time>
      </trkpt>
      <trkpt lat="42.3453" lon="23.09479">
        <ele>721.600407</ele>
        <time>2022-04-05T10:36:32.250Z</time>
      </trkpt>
      <trkpt lat="42.34521" lon="23.09478">
        <ele>721.444178</ele>
        <time>2022-04-05T10:36:34.240Z</time>
      </trkpt>
      <trkpt lat="42.34511" lon="23.09476">
        <ele>721.277412</ele>
        <time>2022-04-05T10:36:36.254Z</time>
      </trkpt>
      <trkpt lat="42.345" lon="23.09475">
        <ele>721.101185</ele>
        <time>2022-04-05T10:36:38.277Z</time>
      </trkpt>
      <trkpt lat="42.34489" lon="23.09473">
        <ele>720.921132</ele>
        <time>2022-04-05T10:36:40.269Z</time>
      </trkpt>
      <trkpt lat="42.34478" lon="23.09471">
        <ele>720.731489</ele>
        <time>2022-04-05T10:36:42.239Z</time>
      </trkpt>
      <trkpt lat="42.34466" lon="23.09469">
        <ele>720.536356</ele>
        <time>2022-04-05T10:36:44.243Z</time>
      </trkpt>
      <trkpt lat="42.34454" lon="23.09467">
        <ele>720.341372</ele>
        <time>2022-04-05T10:36:46.253Z</time>
      </trkpt>
      <trkpt lat="42.34442" lon="23.09466">
        <ele>720.130379</ele>
        <time>2022-04-05T10:36:48.247Z</time>
      </trkpt>
      <trkpt lat="42.3443" lon="23.09464">
        <ele>719.842471</ele>
        <time>2022-04-05T10:36:50.233Z</time>
      </trkpt>
      <trkpt lat="42.34418" lon="23.09462">
        <ele>719.549132</ele>
        <time>2022-04-05T10:36:52.227Z</time>
      </trkpt>
      <trkpt lat="42.34405" lon="23.09461">
        <ele>719.237306</ele>
        <time>2022-04-05T10:36:54.282Z</time>
      </trkpt>
      <trkpt lat="42.34391" lon="23.09458">
        <ele>718.910409</ele>
        <time>2022-04-05T10:36:56.234Z</time>
      </trkpt>
      <trkpt lat="42.34377" lon="23.09456">
        <ele>718.583714</ele>
        <time>2022-04-05T10:36:58.235Z</time>
      </trkpt>
      <trkpt lat="42.34364" lon="23.09454">
        <ele>718.257211</ele>
        <time>2022-04-05T10:37:00.251Z</time>
      </trkpt>
      <trkpt lat="42.3435" lon="23.09452">
        <ele>717.930516</ele>
        <time>2022-04-05T10:37:02.236Z</time>
      </trkpt>
      <trkpt lat="42.34336" lon="23.0945">
        <ele>717.584588</ele>
        <time>2022-04-05T10:37:04.250Z</time>
      </trkpt>
      <trkpt lat="42.34321" lon="23.09448">
        <ele>717.23233</ele>
        <time>2022-04-05T10:37:06.253Z</time>
      </trkpt>
      <trkpt lat="42.34306" lon="23.09446">
        <ele>716.872079</ele>
        <time>2022-04-05T10:37:08.250Z</time>
      </trkpt>
      <trkpt lat="42.34291" lon="23.09443">
        <ele>716.528505</ele>
        <time>2022-04-05T10:37:10.243Z</time>
      </trkpt>
      <trkpt lat="42.34277" lon="23.09441">
        <ele>716.190035</ele>
        <time>2022-04-05T10:37:12.239Z</time>
      </trkpt>
      <trkpt lat="42.34263" lon="23.09439">
        <ele>715.81176</ele>
        <time>2022-04-05T10:37:14.240Z</time>
      </trkpt>
      <trkpt lat="42.34248" lon="23.09438">
        <ele>715.217018</ele>
        <time>2022-04-05T10:37:16.277Z</time>
      </trkpt>
      <trkpt lat="42.34233" lon="23.09437">
        <ele>714.631291</ele>
        <time>2022-04-05T10:37:18.221Z</time>
      </trkpt>
      <trkpt lat="42.34218" lon="23.09436">
        <ele>714.045827</ele>
        <time>2022-04-05T10:37:20.240Z</time>
      </trkpt>
      <trkpt lat="42.34203" lon="23.09435">
        <ele>713.464666</ele>
        <time>2022-04-05T10:37:22.274Z</time>
      </trkpt>
      <trkpt lat="42.34188" lon="23.09436">
        <ele>712.875455</ele>
        <time>2022-04-05T10:37:24.251Z</time>
      </trkpt>
      <trkpt lat="42.34174" lon="23.09437">
        <ele>712.308947</ele>
        <time>2022-04-05T10:37:26.257Z</time>
      </trkpt>
      <trkpt lat="42.3416" lon="23.09439">
        <ele>711.756726</ele>
        <time>2022-04-05T10:37:28.291Z</time>
      </trkpt>
      <trkpt lat="42.34146" lon="23.09442">
        <ele>711.183587</ele>
        <time>2022-04-05T10:37:30.244Z</time>
      </trkpt>
      <trkpt lat="42.34131" lon="23.09445">
        <ele>710.595069</ele>
        <time>2022-04-05T10:37:32.245Z</time>
      </trkpt>
      <trkpt lat="42.34117" lon="23.09448">
        <ele>710.019592</ele>
        <time>2022-04-05T10:37:34.236Z</time>
      </trkpt>
      <trkpt lat="42.34103" lon="23.09451">
        <ele>709.459318</ele>
        <time>2022-04-05T10:37:36.242Z</time>
      </trkpt>
      <trkpt lat="42.3409" lon="23.09455">
        <ele>708.927068</ele>
        <time>2022-04-05T10:37:38.225Z</time>
      </trkpt>
      <trkpt lat="42.34077" lon="23.09459">
        <ele>708.410823</ele>
        <time>2022-04-05T10:37:40.247Z</time>
      </trkpt>
      <trkpt lat="42.34064" lon="23.09464">
        <ele>707.901675</ele>
        <time>2022-04-05T10:37:42.247Z</time>
      </trkpt>
      <trkpt lat="42.34052" lon="23.0947">
        <ele>707.396787</ele>
        <time>2022-04-05T10:37:44.252Z</time>
      </trkpt>
      <trkpt lat="42.34039" lon="23.09475">
        <ele>706.890039</ele>
        <time>2022-04-05T10:37:46.267Z</time>
      </trkpt>
      <trkpt lat="42.34027" lon="23.09481">
        <ele>706.397017</ele>
        <time>2022-04-05T10:37:48.235Z</time>
      </trkpt>
      <trkpt lat="42.34015" lon="23.09487">
        <ele>705.886889</ele>
        <time>2022-04-05T10:37:50.300Z</time>
      </trkpt>
      <trkpt lat="42.34002" lon="23.09494">
        <ele>705.367015</ele>
        <time>2022-04-05T10:37:52.225Z</time>
      </trkpt>
      <trkpt lat="42.33989" lon="23.09502">
        <ele>704.824622</ele>
        <time>2022-04-05T10:37:54.249Z</time>
      </trkpt>
      <trkpt lat="42.33976" lon="23.0951">
        <ele>704.27052</ele>
        <time>2022-04-05T10:37:56.272Z</time>
      </trkpt>
      <trkpt lat="42.33963" lon="23.09518">
        <ele>703.701177</ele>
        <time>2022-04-05T10:37:58.272Z</time>
      </trkpt>
      <trkpt lat="42.33949" lon="23.09526">
        <ele>703.129499</ele>
        <time>2022-04-05T10:38:00.282Z</time>
      </trkpt>
      <trkpt lat="42.33936" lon="23.09535">
        <ele>702.544157</ele>
        <time>2022-04-05T10:38:02.283Z</time>
      </trkpt>
      <trkpt lat="42.33922" lon="23.09545">
        <ele>701.945362</ele>
        <time>2022-04-05T10:38:04.244Z</time>
      </trkpt>
      <trkpt lat="42.33908" lon="23.09554">
        <ele>701.428901</ele>
        <time>2022-04-05T10:38:06.249Z</time>
      </trkpt>
      <trkpt lat="42.33894" lon="23.09563">
        <ele>700.937729</ele>
        <time>2022-04-05T10:38:08.273Z</time>
      </trkpt>
      <trkpt lat="42.3388" lon="23.09572">
        <ele>700.442614</ele>
        <time>2022-04-05T10:38:10.247Z</time>
      </trkpt>
      <trkpt lat="42.33866" lon="23.09581">
        <ele>699.934846</ele>
        <time>2022-04-05T10:38:12.243Z</time>
      </trkpt>
      <trkpt lat="42.33852" lon="23.0959">
        <ele>699.433049</ele>
        <time>2022-04-05T10:38:14.265Z</time>
      </trkpt>
      <trkpt lat="42.33838" lon="23.09599">
        <ele>698.933989</ele>
        <time>2022-04-05T10:38:16.238Z</time>
      </trkpt>
      <trkpt lat="42.33824" lon="23.09608">
        <ele>698.427332</ele>
        <time>2022-04-05T10:38:18.249Z</time>
      </trkpt>
      <trkpt lat="42.3381" lon="23.09617">
        <ele>697.933394</ele>
        <time>2022-04-05T10:38:20.242Z</time>
      </trkpt>
      <trkpt lat="42.33795" lon="23.09625">
        <ele>697.425743</ele>
        <time>2022-04-05T10:38:22.237Z</time>
      </trkpt>
      <trkpt lat="42.33782" lon="23.09633">
        <ele>696.940598</ele>
        <time>2022-04-05T10:38:24.247Z</time>
      </trkpt>
      <trkpt lat="42.33768" lon="23.09641">
        <ele>696.464313</ele>
        <time>2022-04-05T10:38:26.229Z</time>
      </trkpt>
      <trkpt lat="42.33754" lon="23.09649">
        <ele>695.958312</ele>
        <time>2022-04-05T10:38:28.237Z</time>
      </trkpt>
      <trkpt lat="42.3374" lon="23.09656">
        <ele>695.331947</ele>
        <time>2022-04-05T10:38:30.249Z</time>
      </trkpt>
      <trkpt lat="42.33727" lon="23.09663">
        <ele>694.709573</ele>
        <time>2022-04-05T10:38:32.243Z</time>
      </trkpt>
      <trkpt lat="42.33713" lon="23.09669">
        <ele>694.076391</ele>
        <time>2022-04-05T10:38:34.244Z</time>
      </trkpt>
      <trkpt lat="42.33698" lon="23.09676">
        <ele>693.428967</ele>
        <time>2022-04-05T10:38:36.276Z</time>
      </trkpt>
      <trkpt lat="42.33683" lon="23.09682">
        <ele>692.771187</ele>
        <time>2022-04-05T10:38:38.253Z</time>
      </trkpt>
      <trkpt lat="42.33668" lon="23.09688">
        <ele>692.100268</ele>
        <time>2022-04-05T10:38:40.237Z</time>
      </trkpt>
      <trkpt lat="42.33653" lon="23.09694">
        <ele>691.418843</ele>
        <time>2022-04-05T10:38:42.249Z</time>
      </trkpt>
      <trkpt lat="42.33637" lon="23.09699">
        <ele>690.721848</ele>
        <time>2022-04-05T10:38:44.249Z</time>
      </trkpt>
      <trkpt lat="42.33621" lon="23.09705">
        <ele>690.007593</ele>
        <time>2022-04-05T10:38:46.229Z</time>
      </trkpt>
      <trkpt lat="42.33604" lon="23.09711">
        <ele>689.286703</ele>
        <time>2022-04-05T10:38:48.240Z</time>
      </trkpt>
      <trkpt lat="42.33588" lon="23.09717">
        <ele>688.56169</ele>
        <time>2022-04-05T10:38:50.242Z</time>
      </trkpt>
      <trkpt lat="42.33571" lon="23.09722">
        <ele>687.803155</ele>
        <time>2022-04-05T10:38:52.259Z</time>
      </trkpt>
      <trkpt lat="42.33562" lon="23.09725">
        <ele>687.414104</ele>
        <time>2022-04-05T10:38:53.241Z</time>
      </trkpt>
      <trkpt lat="42.33544" lon="23.09731">
        <ele>686.641616</ele>
        <time>2022-04-05T10:38:55.245Z</time>
      </trkpt>
      <trkpt lat="42.33535" lon="23.09734">
        <ele>686.244327</ele>
        <time>2022-04-05T10:38:56.242Z</time>
      </trkpt>
      <trkpt lat="42.33526" lon="23.09737">
        <ele>685.851158</ele>
        <time>2022-04-05T10:38:57.255Z</time>
      </trkpt>
      <trkpt lat="42.33517" lon="23.0974">
        <ele>685.45799</ele>
        <time>2022-04-05T10:38:58.279Z</time>
      </trkpt>
      <trkpt lat="42.33508" lon="23.09743">
        <ele>685.059947</ele>
        <time>2022-04-05T10:38:59.255Z</time>
      </trkpt>
      <trkpt lat="42.33499" lon="23.09746">
        <ele>684.662658</ele>
        <time>2022-04-05T10:39:00.245Z</time>
      </trkpt>
      <trkpt lat="42.3349" lon="23.09749">
        <ele>684.278475</ele>
        <time>2022-04-05T10:39:01.241Z</time>
      </trkpt>
      <trkpt lat="42.33481" lon="23.09752">
        <ele>683.894292</ele>
        <time>2022-04-05T10:39:02.253Z</time>
      </trkpt>
      <trkpt lat="42.33464" lon="23.09758">
        <ele>683.139267</ele>
        <time>2022-04-05T10:39:04.267Z</time>
      </trkpt>
      <trkpt lat="42.33446" lon="23.09764">
        <ele>682.375761</ele>
        <time>2022-04-05T10:39:06.237Z</time>
      </trkpt>
      <trkpt lat="42.33438" lon="23.09767">
        <ele>681.995697</ele>
        <time>2022-04-05T10:39:07.236Z</time>
      </trkpt>
      <trkpt lat="42.33429" lon="23.0977">
        <ele>681.603267</ele>
        <time>2022-04-05T10:39:08.241Z</time>
      </trkpt>
      <trkpt lat="42.3342" lon="23.09773">
        <ele>681.218329</ele>
        <time>2022-04-05T10:39:09.238Z</time>
      </trkpt>
      <trkpt lat="42.33411" lon="23.09775">
        <ele>680.830745</ele>
        <time>2022-04-05T10:39:10.225Z</time>
      </trkpt>
      <trkpt lat="42.33402" lon="23.09778">
        <ele>680.433054</ele>
        <time>2022-04-05T10:39:11.241Z</time>
      </trkpt>
      <trkpt lat="42.33392" lon="23.0978">
        <ele>680.037898</ele>
        <time>2022-04-05T10:39:12.255Z</time>
      </trkpt>
      <trkpt lat="42.33383" lon="23.09782">
        <ele>679.644205</ele>
        <time>2022-04-05T10:39:13.236Z</time>
      </trkpt>
      <trkpt lat="42.33373" lon="23.09785">
        <ele>679.2421</ele>
        <time>2022-04-05T10:39:14.253Z</time>
      </trkpt>
      <trkpt lat="42.33364" lon="23.09788">
        <ele>678.83582</ele>
        <time>2022-04-05T10:39:15.225Z</time>
      </trkpt>
      <trkpt lat="42.33354" lon="23.09791">
        <ele>678.422246</ele>
        <time>2022-04-05T10:39:16.273Z</time>
      </trkpt>
      <trkpt lat="42.33345" lon="23.09794">
        <ele>678.017446</ele>
        <time>2022-04-05T10:39:17.241Z</time>
      </trkpt>
      <trkpt lat="42.33335" lon="23.09797">
        <ele>677.612645</ele>
        <time>2022-04-05T10:39:18.244Z</time>
      </trkpt>
      <trkpt lat="42.33326" lon="23.09801">
        <ele>677.206364</ele>
        <time>2022-04-05T10:39:19.246Z</time>
      </trkpt>
      <trkpt lat="42.33316" lon="23.09804">
        <ele>676.797702</ele>
        <time>2022-04-05T10:39:20.251Z</time>
      </trkpt>
      <trkpt lat="42.33307" lon="23.09808">
        <ele>676.399247</ele>
        <time>2022-04-05T10:39:21.236Z</time>
      </trkpt>
      <trkpt lat="42.33298" lon="23.09812">
        <ele>675.995014</ele>
        <time>2022-04-05T10:39:22.293Z</time>
      </trkpt>
      <trkpt lat="42.33288" lon="23.09816">
        <ele>675.592811</ele>
        <time>2022-04-05T10:39:23.245Z</time>
      </trkpt>
      <trkpt lat="42.33279" lon="23.0982">
        <ele>675.202271</ele>
        <time>2022-04-05T10:39:24.238Z</time>
      </trkpt>
      <trkpt lat="42.3327" lon="23.09824">
        <ele>674.807908</ele>
        <time>2022-04-05T10:39:25.249Z</time>
      </trkpt>
      <trkpt lat="42.33261" lon="23.09829">
        <ele>674.414338</ele>
        <time>2022-04-05T10:39:26.241Z</time>
      </trkpt>
      <trkpt lat="42.33253" lon="23.09834">
        <ele>674.015323</ele>
        <time>2022-04-05T10:39:27.249Z</time>
      </trkpt>
      <trkpt lat="42.33244" lon="23.0984">
        <ele>673.624668</ele>
        <time>2022-04-05T10:39:28.250Z</time>
      </trkpt>
      <trkpt lat="42.33236" lon="23.09846">
        <ele>673.214901</ele>
        <time>2022-04-05T10:39:29.243Z</time>
      </trkpt>
      <trkpt lat="42.33227" lon="23.09851">
        <ele>672.727081</ele>
        <time>2022-04-05T10:39:30.242Z</time>
      </trkpt>
      <trkpt lat="42.33218" lon="23.09857">
        <ele>672.223447</ele>
        <time>2022-04-05T10:39:31.234Z</time>
      </trkpt>
      <trkpt lat="42.3321" lon="23.09862">
        <ele>671.724464</ele>
        <time>2022-04-05T10:39:32.246Z</time>
      </trkpt>
      <trkpt lat="42.33201" lon="23.09868">
        <ele>671.22083</ele>
        <time>2022-04-05T10:39:33.289Z</time>
      </trkpt>
      <trkpt lat="42.33192" lon="23.09874">
        <ele>670.712147</ele>
        <time>2022-04-05T10:39:34.244Z</time>
      </trkpt>
      <trkpt lat="42.33183" lon="23.0988">
        <ele>670.195899</ele>
        <time>2022-04-05T10:39:35.251Z</time>
      </trkpt>
      <trkpt lat="42.33174" lon="23.09886">
        <ele>669.677393</ele>
        <time>2022-04-05T10:39:36.245Z</time>
      </trkpt>
      <trkpt lat="42.33165" lon="23.09893">
        <ele>669.161659</ele>
        <time>2022-04-05T10:39:37.233Z</time>
      </trkpt>
      <trkpt lat="42.33157" lon="23.09899">
        <ele>668.650466</ele>
        <time>2022-04-05T10:39:38.231Z</time>
      </trkpt>
      <trkpt lat="42.33148" lon="23.09906">
        <ele>668.122022</ele>
        <time>2022-04-05T10:39:39.239Z</time>
      </trkpt>
      <trkpt lat="42.33139" lon="23.09912">
        <ele>667.617185</ele>
        <time>2022-04-05T10:39:40.249Z</time>
      </trkpt>
      <trkpt lat="42.33131" lon="23.09918">
        <ele>667.130404</ele>
        <time>2022-04-05T10:39:41.240Z</time>
      </trkpt>
      <trkpt lat="42.33122" lon="23.09925">
        <ele>666.626388</ele>
        <time>2022-04-05T10:39:42.243Z</time>
      </trkpt>
      <trkpt lat="42.33114" lon="23.09931">
        <ele>666.122372</ele>
        <time>2022-04-05T10:39:43.241Z</time>
      </trkpt>
      <trkpt lat="42.33105" lon="23.09938">
        <ele>665.607488</ele>
        <time>2022-04-05T10:39:44.263Z</time>
      </trkpt>
      <trkpt lat="42.33097" lon="23.09944">
        <ele>665.106053</ele>
        <time>2022-04-05T10:39:45.232Z</time>
      </trkpt>
      <trkpt lat="42.33088" lon="23.09951">
        <ele>664.595664</ele>
        <time>2022-04-05T10:39:46.245Z</time>
      </trkpt>
      <trkpt lat="42.3308" lon="23.09957">
        <ele>664.108077</ele>
        <time>2022-04-05T10:39:47.255Z</time>
      </trkpt>
      <trkpt lat="42.33072" lon="23.09963">
        <ele>663.6209</ele>
        <time>2022-04-05T10:39:48.258Z</time>
      </trkpt>
      <trkpt lat="42.33057" lon="23.09975">
        <ele>662.672898</ele>
        <time>2022-04-05T10:39:50.263Z</time>
      </trkpt>
      <trkpt lat="42.33048" lon="23.09981">
        <ele>662.182006</ele>
        <time>2022-04-05T10:39:51.240Z</time>
      </trkpt>
      <trkpt lat="42.3304" lon="23.09986">
        <ele>661.695842</ele>
        <time>2022-04-05T10:39:52.251Z</time>
      </trkpt>
      <trkpt lat="42.33032" lon="23.09993">
        <ele>661.203955</ele>
        <time>2022-04-05T10:39:53.231Z</time>
      </trkpt>
      <trkpt lat="42.33024" lon="23.09999">
        <ele>660.682897</ele>
        <time>2022-04-05T10:39:54.235Z</time>
      </trkpt>
      <trkpt lat="42.33016" lon="23.10005">
        <ele>660.175047</ele>
        <time>2022-04-05T10:39:55.236Z</time>
      </trkpt>
      <trkpt lat="42.33007" lon="23.10011">
        <ele>659.655903</ele>
        <time>2022-04-05T10:39:56.224Z</time>
      </trkpt>
      <trkpt lat="42.32998" lon="23.10018">
        <ele>659.114153</ele>
        <time>2022-04-05T10:39:57.241Z</time>
      </trkpt>
      <trkpt lat="42.32989" lon="23.10024">
        <ele>658.588084</ele>
        <time>2022-04-05T10:39:58.264Z</time>
      </trkpt>
      <trkpt lat="42.32981" lon="23.10029">
        <ele>658.063987</ele>
        <time>2022-04-05T10:39:59.258Z</time>
      </trkpt>
      <trkpt lat="42.32971" lon="23.10035">
        <ele>657.507334</ele>
        <time>2022-04-05T10:40:00.233Z</time>
      </trkpt>
      <trkpt lat="42.32961" lon="23.1004">
        <ele>656.9455</ele>
        <time>2022-04-05T10:40:01.247Z</time>
      </trkpt>
      <trkpt lat="42.32952" lon="23.10045">
        <ele>656.387238</ele>
        <time>2022-04-05T10:40:02.278Z</time>
      </trkpt>
      <trkpt lat="42.32942" lon="23.1005">
        <ele>655.827833</ele>
        <time>2022-04-05T10:40:03.238Z</time>
      </trkpt>
      <trkpt lat="42.32932" lon="23.10054">
        <ele>655.272098</ele>
        <time>2022-04-05T10:40:04.229Z</time>
      </trkpt>
      <trkpt lat="42.32922" lon="23.10058">
        <ele>654.719802</ele>
        <time>2022-04-05T10:40:05.247Z</time>
      </trkpt>
      <trkpt lat="42.32912" lon="23.10061">
        <ele>654.207009</ele>
        <time>2022-04-05T10:40:06.258Z</time>
      </trkpt>
      <trkpt lat="42.32903" lon="23.10064">
        <ele>653.706155</ele>
        <time>2022-04-05T10:40:07.242Z</time>
      </trkpt>
      <trkpt lat="42.32893" lon="23.10066">
        <ele>653.192971</ele>
        <time>2022-04-05T10:40:08.270Z</time>
      </trkpt>
      <trkpt lat="42.32884" lon="23.10068">
        <ele>652.692924</ele>
        <time>2022-04-05T10:40:09.256Z</time>
      </trkpt>
      <trkpt lat="42.32874" lon="23.1007">
        <ele>652.178502</ele>
        <time>2022-04-05T10:40:10.259Z</time>
      </trkpt>
      <trkpt lat="42.32864" lon="23.10071">
        <ele>651.671436</ele>
        <time>2022-04-05T10:40:11.221Z</time>
      </trkpt>
      <trkpt lat="42.32854" lon="23.10072">
        <ele>651.143788</ele>
        <time>2022-04-05T10:40:12.239Z</time>
      </trkpt>
      <trkpt lat="42.32844" lon="23.10072">
        <ele>650.642141</ele>
        <time>2022-04-05T10:40:13.228Z</time>
      </trkpt>
      <trkpt lat="42.32834" lon="23.10073">
        <ele>650.135592</ele>
        <time>2022-04-05T10:40:14.286Z</time>
      </trkpt>
      <trkpt lat="42.32816" lon="23.10074">
        <ele>649.206383</ele>
        <time>2022-04-05T10:40:16.232Z</time>
      </trkpt>
      <trkpt lat="42.32807" lon="23.10074">
        <ele>648.742013</ele>
        <time>2022-04-05T10:40:17.237Z</time>
      </trkpt>
      <trkpt lat="42.32798" lon="23.10074">
        <ele>648.267279</ele>
        <time>2022-04-05T10:40:18.243Z</time>
      </trkpt>
      <trkpt lat="42.32788" lon="23.10074">
        <ele>647.771968</ele>
        <time>2022-04-05T10:40:19.240Z</time>
      </trkpt>
      <trkpt lat="42.32779" lon="23.10074">
        <ele>647.271498</ele>
        <time>2022-04-05T10:40:20.229Z</time>
      </trkpt>
      <trkpt lat="42.32769" lon="23.10074">
        <ele>646.75039</ele>
        <time>2022-04-05T10:40:21.237Z</time>
      </trkpt>
      <trkpt lat="42.32759" lon="23.10074">
        <ele>646.255079</ele>
        <time>2022-04-05T10:40:22.240Z</time>
      </trkpt>
      <trkpt lat="42.32749" lon="23.10075">
        <ele>645.764869</ele>
        <time>2022-04-05T10:40:23.248Z</time>
      </trkpt>
      <trkpt lat="42.3274" lon="23.10075">
        <ele>645.284976</ele>
        <time>2022-04-05T10:40:24.227Z</time>
      </trkpt>
      <trkpt lat="42.32731" lon="23.10075">
        <ele>644.761705</ele>
        <time>2022-04-05T10:40:25.262Z</time>
      </trkpt>
      <trkpt lat="42.32713" lon="23.10075">
        <ele>643.71098</ele>
        <time>2022-04-05T10:40:27.240Z</time>
      </trkpt>
      <trkpt lat="42.32695" lon="23.10076">
        <ele>642.660192</ele>
        <time>2022-04-05T10:40:29.251Z</time>
      </trkpt>
      <trkpt lat="42.32686" lon="23.10076">
        <ele>642.131864</ele>
        <time>2022-04-05T10:40:30.241Z</time>
      </trkpt>
      <trkpt lat="42.32669" lon="23.10077">
        <ele>641.110115</ele>
        <time>2022-04-05T10:40:32.244Z</time>
      </trkpt>
      <trkpt lat="42.32653" lon="23.10077">
        <ele>640.194213</ele>
        <time>2022-04-05T10:40:34.257Z</time>
      </trkpt>
      <trkpt lat="42.32636" lon="23.10078">
        <ele>639.207895</ele>
        <time>2022-04-05T10:40:36.248Z</time>
      </trkpt>
      <trkpt lat="42.32627" lon="23.10078">
        <ele>638.667272</ele>
        <time>2022-04-05T10:40:37.229Z</time>
      </trkpt>
      <trkpt lat="42.32617" lon="23.10079">
        <ele>638.10353</ele>
        <time>2022-04-05T10:40:38.232Z</time>
      </trkpt>
      <trkpt lat="42.32608" lon="23.10079">
        <ele>637.557234</ele>
        <time>2022-04-05T10:40:39.234Z</time>
      </trkpt>
      <trkpt lat="42.32598" lon="23.10079">
        <ele>636.964158</ele>
        <time>2022-04-05T10:40:40.236Z</time>
      </trkpt>
      <trkpt lat="42.32587" lon="23.1008">
        <ele>636.31838</ele>
        <time>2022-04-05T10:40:41.229Z</time>
      </trkpt>
      <trkpt lat="42.32576" lon="23.1008">
        <ele>635.666805</ele>
        <time>2022-04-05T10:40:42.265Z</time>
      </trkpt>
      <trkpt lat="42.32564" lon="23.1008">
        <ele>634.985885</ele>
        <time>2022-04-05T10:40:43.242Z</time>
      </trkpt>
      <trkpt lat="42.32552" lon="23.1008">
        <ele>634.261218</ele>
        <time>2022-04-05T10:40:44.231Z</time>
      </trkpt>
      <trkpt lat="42.32541" lon="23.1008">
        <ele>633.53752</ele>
        <time>2022-04-05T10:40:45.251Z</time>
      </trkpt>
      <trkpt lat="42.3253" lon="23.1008">
        <ele>632.882992</ele>
        <time>2022-04-05T10:40:46.257Z</time>
      </trkpt>
      <trkpt lat="42.3252" lon="23.1008">
        <ele>632.209395</ele>
        <time>2022-04-05T10:40:47.238Z</time>
      </trkpt>
      <trkpt lat="42.32508" lon="23.10079">
        <ele>631.49775</ele>
        <time>2022-04-05T10:40:48.276Z</time>
      </trkpt>
      <trkpt lat="42.32497" lon="23.10078">
        <ele>630.78568</ele>
        <time>2022-04-05T10:40:49.255Z</time>
      </trkpt>
      <trkpt lat="42.32486" lon="23.10077">
        <ele>630.103758</ele>
        <time>2022-04-05T10:40:50.236Z</time>
      </trkpt>
      <trkpt lat="42.32475" lon="23.10076">
        <ele>629.402216</ele>
        <time>2022-04-05T10:40:51.243Z</time>
      </trkpt>
      <trkpt lat="42.32464" lon="23.10075">
        <ele>628.715013</ele>
        <time>2022-04-05T10:40:52.254Z</time>
      </trkpt>
      <trkpt lat="42.32454" lon="23.10073">
        <ele>628.044325</ele>
        <time>2022-04-05T10:40:53.238Z</time>
      </trkpt>
      <trkpt lat="42.32443" lon="23.10071">
        <ele>627.347814</ele>
        <time>2022-04-05T10:40:54.280Z</time>
      </trkpt>
      <trkpt lat="42.32433" lon="23.10067">
        <ele>626.700065</ele>
        <time>2022-04-05T10:40:55.236Z</time>
      </trkpt>
      <trkpt lat="42.32423" lon="23.10064">
        <ele>626.076742</ele>
        <time>2022-04-05T10:40:56.237Z</time>
      </trkpt>
      <trkpt lat="42.32414" lon="23.10061">
        <ele>625.46927</ele>
        <time>2022-04-05T10:40:57.255Z</time>
      </trkpt>
      <trkpt lat="42.32404" lon="23.10056">
        <ele>624.826909</ele>
        <time>2022-04-05T10:40:58.237Z</time>
      </trkpt>
      <trkpt lat="42.32394" lon="23.10051">
        <ele>624.169415</ele>
        <time>2022-04-05T10:40:59.251Z</time>
      </trkpt>
      <trkpt lat="42.32384" lon="23.10046">
        <ele>623.48832</ele>
        <time>2022-04-05T10:41:00.237Z</time>
      </trkpt>
      <trkpt lat="42.32375" lon="23.1004">
        <ele>622.870986</ele>
        <time>2022-04-05T10:41:01.223Z</time>
      </trkpt>
      <trkpt lat="42.32365" lon="23.10034">
        <ele>622.25457</ele>
        <time>2022-04-05T10:41:02.225Z</time>
      </trkpt>
      <trkpt lat="42.32356" lon="23.10028">
        <ele>621.620237</ele>
        <time>2022-04-05T10:41:03.241Z</time>
      </trkpt>
      <trkpt lat="42.32346" lon="23.10021">
        <ele>620.984</ele>
        <time>2022-04-05T10:41:04.244Z</time>
      </trkpt>
      <trkpt lat="42.32336" lon="23.10014">
        <ele>620.361346</ele>
        <time>2022-04-05T10:41:05.233Z</time>
      </trkpt>
      <trkpt lat="42.32326" lon="23.10007">
        <ele>619.702969</ele>
        <time>2022-04-05T10:41:06.263Z</time>
      </trkpt>
      <trkpt lat="42.32316" lon="23.1">
        <ele>619.041449</ele>
        <time>2022-04-05T10:41:07.234Z</time>
      </trkpt>
      <trkpt lat="42.32306" lon="23.09993">
        <ele>618.385079</ele>
        <time>2022-04-05T10:41:08.237Z</time>
      </trkpt>
      <trkpt lat="42.32296" lon="23.09986">
        <ele>617.71442</ele>
        <time>2022-04-05T10:41:09.236Z</time>
      </trkpt>
      <trkpt lat="42.32286" lon="23.09978">
        <ele>617.043761</ele>
        <time>2022-04-05T10:41:10.240Z</time>
      </trkpt>
      <trkpt lat="42.32276" lon="23.09971">
        <ele>616.363928</ele>
        <time>2022-04-05T10:41:11.230Z</time>
      </trkpt>
      <trkpt lat="42.32265" lon="23.09963">
        <ele>615.662258</ele>
        <time>2022-04-05T10:41:12.225Z</time>
      </trkpt>
      <trkpt lat="42.32254" lon="23.09956">
        <ele>614.972168</ele>
        <time>2022-04-05T10:41:13.249Z</time>
      </trkpt>
      <trkpt lat="42.32244" lon="23.09948">
        <ele>614.285179</ele>
        <time>2022-04-05T10:41:14.228Z</time>
      </trkpt>
      <trkpt lat="42.32233" lon="23.09941">
        <ele>613.602234</ele>
        <time>2022-04-05T10:41:15.244Z</time>
      </trkpt>
      <trkpt lat="42.32223" lon="23.09934">
        <ele>612.931573</ele>
        <time>2022-04-05T10:41:16.257Z</time>
      </trkpt>
      <trkpt lat="42.32213" lon="23.09926">
        <ele>612.644836</ele>
        <time>2022-04-05T10:41:17.228Z</time>
      </trkpt>
      <trkpt lat="42.32203" lon="23.09919">
        <ele>612.455634</ele>
        <time>2022-04-05T10:41:18.242Z</time>
      </trkpt>
      <trkpt lat="42.32193" lon="23.09912">
        <ele>612.26846</ele>
        <time>2022-04-05T10:41:19.236Z</time>
      </trkpt>
      <trkpt lat="42.32183" lon="23.09904">
        <ele>612.07578</ele>
        <time>2022-04-05T10:41:20.231Z</time>
      </trkpt>
      <trkpt lat="42.32172" lon="23.09896">
        <ele>611.876143</ele>
        <time>2022-04-05T10:41:21.224Z</time>
      </trkpt>
      <trkpt lat="42.32161" lon="23.09888">
        <ele>611.672138</ele>
        <time>2022-04-05T10:41:22.244Z</time>
      </trkpt>
      <trkpt lat="42.32151" lon="23.0988">
        <ele>611.465501</ele>
        <time>2022-04-05T10:41:23.228Z</time>
      </trkpt>
      <trkpt lat="42.32139" lon="23.09871">
        <ele>611.244136</ele>
        <time>2022-04-05T10:41:24.258Z</time>
      </trkpt>
      <trkpt lat="42.32128" lon="23.09863">
        <ele>611.037838</ele>
        <time>2022-04-05T10:41:25.250Z</time>
      </trkpt>
      <trkpt lat="42.32117" lon="23.09855">
        <ele>610.831237</ele>
        <time>2022-04-05T10:41:26.223Z</time>
      </trkpt>
      <trkpt lat="42.32106" lon="23.09847">
        <ele>610.626092</ele>
        <time>2022-04-05T10:41:27.270Z</time>
      </trkpt>
      <trkpt lat="42.32095" lon="23.09839">
        <ele>610.421516</ele>
        <time>2022-04-05T10:41:28.253Z</time>
      </trkpt>
      <trkpt lat="42.32084" lon="23.09832">
        <ele>610.223188</ele>
        <time>2022-04-05T10:41:29.232Z</time>
      </trkpt>
      <trkpt lat="42.32073" lon="23.09825">
        <ele>610.024958</ele>
        <time>2022-04-05T10:41:30.242Z</time>
      </trkpt>
      <trkpt lat="42.32062" lon="23.09819">
        <ele>609.829713</ele>
        <time>2022-04-05T10:41:31.235Z</time>
      </trkpt>
      <trkpt lat="42.32051" lon="23.09813">
        <ele>609.438976</ele>
        <time>2022-04-05T10:41:32.220Z</time>
      </trkpt>
      <trkpt lat="42.3204" lon="23.09807">
        <ele>609.047864</ele>
        <time>2022-04-05T10:41:33.251Z</time>
      </trkpt>
      <trkpt lat="42.32029" lon="23.09802">
        <ele>608.669407</ele>
        <time>2022-04-05T10:41:34.238Z</time>
      </trkpt>
      <trkpt lat="42.32019" lon="23.09797">
        <ele>608.3027</ele>
        <time>2022-04-05T10:41:35.236Z</time>
      </trkpt>
      <trkpt lat="42.32008" lon="23.09793">
        <ele>607.955334</ele>
        <time>2022-04-05T10:41:36.243Z</time>
      </trkpt>
      <trkpt lat="42.31998" lon="23.0979">
        <ele>607.615075</ele>
        <time>2022-04-05T10:41:37.232Z</time>
      </trkpt>
      <trkpt lat="42.31988" lon="23.09786">
        <ele>607.269598</ele>
        <time>2022-04-05T10:41:38.278Z</time>
      </trkpt>
      <trkpt lat="42.31978" lon="23.09784">
        <ele>606.93692</ele>
        <time>2022-04-05T10:41:39.237Z</time>
      </trkpt>
      <trkpt lat="42.31969" lon="23.09781">
        <ele>606.611179</ele>
        <time>2022-04-05T10:41:40.250Z</time>
      </trkpt>
      <trkpt lat="42.3196" lon="23.09779">
        <ele>606.307085</ele>
        <time>2022-04-05T10:41:41.237Z</time>
      </trkpt>
      <trkpt lat="42.3195" lon="23.09777">
        <ele>605.994003</ele>
        <time>2022-04-05T10:41:42.261Z</time>
      </trkpt>
      <trkpt lat="42.31941" lon="23.09776">
        <ele>605.692308</ele>
        <time>2022-04-05T10:41:43.234Z</time>
      </trkpt>
      <trkpt lat="42.31924" lon="23.09774">
        <ele>605.114179</ele>
        <time>2022-04-05T10:41:45.236Z</time>
      </trkpt>
      <trkpt lat="42.31907" lon="23.09773">
        <ele>604.570214</ele>
        <time>2022-04-05T10:41:47.233Z</time>
      </trkpt>
      <trkpt lat="42.31891" lon="23.09773">
        <ele>604.046433</ele>
        <time>2022-04-05T10:41:49.239Z</time>
      </trkpt>
      <trkpt lat="42.31877" lon="23.09774">
        <ele>603.749849</ele>
        <time>2022-04-05T10:41:51.258Z</time>
      </trkpt>
      <trkpt lat="42.31863" lon="23.09776">
        <ele>603.538978</ele>
        <time>2022-04-05T10:41:53.243Z</time>
      </trkpt>
      <trkpt lat="42.31849" lon="23.09779">
        <ele>603.32981</ele>
        <time>2022-04-05T10:41:55.241Z</time>
      </trkpt>
      <trkpt lat="42.31835" lon="23.09783">
        <ele>603.12092</ele>
        <time>2022-04-05T10:41:57.235Z</time>
      </trkpt>
      <trkpt lat="42.31822" lon="23.09787">
        <ele>602.926434</ele>
        <time>2022-04-05T10:41:59.229Z</time>
      </trkpt>
      <trkpt lat="42.31811" lon="23.09791">
        <ele>602.744555</ele>
        <time>2022-04-05T10:42:01.232Z</time>
      </trkpt>
      <trkpt lat="42.318" lon="23.09797">
        <ele>602.570684</ele>
        <time>2022-04-05T10:42:03.252Z</time>
      </trkpt>
      <trkpt lat="42.31789" lon="23.09801">
        <ele>602.397859</ele>
        <time>2022-04-05T10:42:05.224Z</time>
      </trkpt>
      <trkpt lat="42.31778" lon="23.09807">
        <ele>602.224666</ele>
        <time>2022-04-05T10:42:07.278Z</time>
      </trkpt>
      <trkpt lat="42.31768" lon="23.09812">
        <ele>602.069451</ele>
        <time>2022-04-05T10:42:09.248Z</time>
      </trkpt>
      <trkpt lat="42.31758" lon="23.09817">
        <ele>601.910651</ele>
        <time>2022-04-05T10:42:11.218Z</time>
      </trkpt>
      <trkpt lat="42.31748" lon="23.09822">
        <ele>601.743681</ele>
        <time>2022-04-05T10:42:13.256Z</time>
      </trkpt>
      <trkpt lat="42.31737" lon="23.09828">
        <ele>601.56952</ele>
        <time>2022-04-05T10:42:15.240Z</time>
      </trkpt>
      <trkpt lat="42.31726" lon="23.09834">
        <ele>601.399362</ele>
        <time>2022-04-05T10:42:17.221Z</time>
      </trkpt>
      <trkpt lat="42.31716" lon="23.0984">
        <ele>601.230187</ele>
        <time>2022-04-05T10:42:19.241Z</time>
      </trkpt>
      <trkpt lat="42.31706" lon="23.09845">
        <ele>601.425676</ele>
        <time>2022-04-05T10:42:21.237Z</time>
      </trkpt>
      <trkpt lat="42.31697" lon="23.09851">
        <ele>601.642125</ele>
        <time>2022-04-05T10:42:23.231Z</time>
      </trkpt>
      <trkpt lat="42.31688" lon="23.09856">
        <ele>601.856191</ele>
        <time>2022-04-05T10:42:25.251Z</time>
      </trkpt>
      <trkpt lat="42.31679" lon="23.0986">
        <ele>602.059015</ele>
        <time>2022-04-05T10:42:27.238Z</time>
      </trkpt>
      <trkpt lat="42.3167" lon="23.09865">
        <ele>602.256439</ele>
        <time>2022-04-05T10:42:29.218Z</time>
      </trkpt>
      <trkpt lat="42.31658" lon="23.09872">
        <ele>602.538742</ele>
        <time>2022-04-05T10:42:32.227Z</time>
      </trkpt>
      <trkpt lat="42.31646" lon="23.09879">
        <ele>602.827651</ele>
        <time>2022-04-05T10:42:35.257Z</time>
      </trkpt>
      <trkpt lat="42.31634" lon="23.09886">
        <ele>603.117337</ele>
        <time>2022-04-05T10:42:38.219Z</time>
      </trkpt>
      <trkpt lat="42.31622" lon="23.09892">
        <ele>603.396022</ele>
        <time>2022-04-05T10:42:41.217Z</time>
      </trkpt>
      <trkpt lat="42.31609" lon="23.09899">
        <ele>603.690167</ele>
        <time>2022-04-05T10:42:44.218Z</time>
      </trkpt>
      <trkpt lat="42.316" lon="23.09904">
        <ele>603.8962</ele>
        <time>2022-04-05T10:42:46.233Z</time>
      </trkpt>
      <trkpt lat="42.31592" lon="23.09909">
        <ele>604.100234</ele>
        <time>2022-04-05T10:42:48.245Z</time>
      </trkpt>
      <trkpt lat="42.31583" lon="23.09914">
        <ele>604.297041</ele>
        <time>2022-04-05T10:42:50.222Z</time>
      </trkpt>
      <trkpt lat="42.31571" lon="23.0992">
        <ele>604.58554</ele>
        <time>2022-04-05T10:42:53.231Z</time>
      </trkpt>
      <trkpt lat="42.31559" lon="23.09928">
        <ele>604.877694</ele>
        <time>2022-04-05T10:42:56.241Z</time>
      </trkpt>
      <trkpt lat="42.3155" lon="23.09932">
        <ele>605.077738</ele>
        <time>2022-04-05T10:42:58.238Z</time>
      </trkpt>
      <trkpt lat="42.31541" lon="23.09938">
        <ele>605.10041</ele>
        <time>2022-04-05T10:43:00.256Z</time>
      </trkpt>
      <trkpt lat="42.31533" lon="23.09942">
        <ele>605.091201</ele>
        <time>2022-04-05T10:43:02.239Z</time>
      </trkpt>
      <trkpt lat="42.31524" lon="23.09947">
        <ele>605.08202</ele>
        <time>2022-04-05T10:43:04.247Z</time>
      </trkpt>
      <trkpt lat="42.31515" lon="23.09952">
        <ele>605.072274</ele>
        <time>2022-04-05T10:43:06.220Z</time>
      </trkpt>
      <trkpt lat="42.31505" lon="23.09958">
        <ele>605.061807</ele>
        <time>2022-04-05T10:43:08.218Z</time>
      </trkpt>
      <trkpt lat="42.31496" lon="23.09965">
        <ele>605.051026</ele>
        <time>2022-04-05T10:43:10.239Z</time>
      </trkpt>
      <trkpt lat="42.31486" lon="23.09972">
        <ele>605.040012</ele>
        <time>2022-04-05T10:43:12.243Z</time>
      </trkpt>
      <trkpt lat="42.31475" lon="23.09978">
        <ele>605.028788</ele>
        <time>2022-04-05T10:43:14.221Z</time>
      </trkpt>
      <trkpt lat="42.31465" lon="23.09986">
        <ele>605.017366</ele>
        <time>2022-04-05T10:43:16.246Z</time>
      </trkpt>
      <trkpt lat="42.31455" lon="23.09994">
        <ele>605.005988</ele>
        <time>2022-04-05T10:43:18.255Z</time>
      </trkpt>
      <trkpt lat="42.31445" lon="23.10002">
        <ele>604.994135</ele>
        <time>2022-04-05T10:43:20.233Z</time>
      </trkpt>
      <trkpt lat="42.31435" lon="23.10012">
        <ele>604.981752</ele>
        <time>2022-04-05T10:43:22.251Z</time>
      </trkpt>
      <trkpt lat="42.31425" lon="23.10021">
        <ele>604.969409</ele>
        <time>2022-04-05T10:43:24.226Z</time>
      </trkpt>
      <trkpt lat="42.31414" lon="23.10031">
        <ele>604.956944</ele>
        <time>2022-04-05T10:43:26.244Z</time>
      </trkpt>
      <trkpt lat="42.31404" lon="23.10041">
        <ele>604.944228</ele>
        <time>2022-04-05T10:43:28.248Z</time>
      </trkpt>
      <trkpt lat="42.31394" lon="23.10052">
        <ele>604.93193</ele>
        <time>2022-04-05T10:43:30.230Z</time>
      </trkpt>
      <trkpt lat="42.31385" lon="23.10062">
        <ele>604.720965</ele>
        <time>2022-04-05T10:43:32.223Z</time>
      </trkpt>
      <trkpt lat="42.31375" lon="23.10072">
        <ele>604.491067</ele>
        <time>2022-04-05T10:43:34.240Z</time>
      </trkpt>
      <trkpt lat="42.31366" lon="23.10081">
        <ele>604.268916</ele>
        <time>2022-04-05T10:43:36.290Z</time>
      </trkpt>
      <trkpt lat="42.31357" lon="23.10091">
        <ele>604.044983</ele>
        <time>2022-04-05T10:43:38.229Z</time>
      </trkpt>
      <trkpt lat="42.31348" lon="23.10101">
        <ele>603.815314</ele>
        <time>2022-04-05T10:43:40.238Z</time>
      </trkpt>
      <trkpt lat="42.31339" lon="23.10111">
        <ele>603.581415</ele>
        <time>2022-04-05T10:43:42.274Z</time>
      </trkpt>
      <trkpt lat="42.3133" lon="23.10121">
        <ele>603.362016</ele>
        <time>2022-04-05T10:43:44.230Z</time>
      </trkpt>
      <trkpt lat="42.31322" lon="23.10129">
        <ele>603.157879</ele>
        <time>2022-04-05T10:43:46.241Z</time>
      </trkpt>
      <trkpt lat="42.31313" lon="23.10139">
        <ele>602.938146</ele>
        <time>2022-04-05T10:43:48.237Z</time>
      </trkpt>
      <trkpt lat="42.31304" lon="23.10148">
        <ele>602.716877</ele>
        <time>2022-04-05T10:43:50.229Z</time>
      </trkpt>
      <trkpt lat="42.31295" lon="23.10157">
        <ele>602.501093</ele>
        <time>2022-04-05T10:43:52.243Z</time>
      </trkpt>
      <trkpt lat="42.31286" lon="23.10166">
        <ele>602.292799</ele>
        <time>2022-04-05T10:43:54.240Z</time>
      </trkpt>
      <trkpt lat="42.31278" lon="23.10175">
        <ele>602.089724</ele>
        <time>2022-04-05T10:43:56.236Z</time>
      </trkpt>
      <trkpt lat="42.3127" lon="23.10184">
        <ele>601.889972</ele>
        <time>2022-04-05T10:43:58.245Z</time>
      </trkpt>
      <trkpt lat="42.31262" lon="23.10192">
        <ele>601.6887</ele>
        <time>2022-04-05T10:44:00.237Z</time>
      </trkpt>
      <trkpt lat="42.31254" lon="23.10201">
        <ele>601.486982</ele>
        <time>2022-04-05T10:44:02.234Z</time>
      </trkpt>
      <trkpt lat="42.31246" lon="23.1021">
        <ele>601.347892</ele>
        <time>2022-04-05T10:44:04.269Z</time>
      </trkpt>
      <trkpt lat="42.31238" lon="23.10219">
        <ele>601.238748</ele>
        <time>2022-04-05T10:44:06.249Z</time>
      </trkpt>
      <trkpt lat="42.3123" lon="23.10227">
        <ele>601.13833</ele>
        <time>2022-04-05T10:44:08.232Z</time>
      </trkpt>
      <trkpt lat="42.31223" lon="23.10235">
        <ele>601.030916</ele>
        <time>2022-04-05T10:44:10.237Z</time>
      </trkpt>
      <trkpt lat="42.31215" lon="23.10243">
        <ele>600.928805</ele>
        <time>2022-04-05T10:44:12.258Z</time>
      </trkpt>
      <trkpt lat="42.31207" lon="23.10253">
        <ele>600.814761</ele>
        <time>2022-04-05T10:44:14.244Z</time>
      </trkpt>
      <trkpt lat="42.31199" lon="23.10262">
        <ele>600.701544</ele>
        <time>2022-04-05T10:44:16.279Z</time>
      </trkpt>
      <trkpt lat="42.3119" lon="23.10271">
        <ele>600.586321</ele>
        <time>2022-04-05T10:44:18.234Z</time>
      </trkpt>
      <trkpt lat="42.31182" lon="23.1028">
        <ele>600.468938</ele>
        <time>2022-04-05T10:44:20.232Z</time>
      </trkpt>
      <trkpt lat="42.31173" lon="23.10289">
        <ele>600.354307</ele>
        <time>2022-04-05T10:44:22.229Z</time>
      </trkpt>
      <trkpt lat="42.31165" lon="23.10297">
        <ele>600.244986</ele>
        <time>2022-04-05T10:44:24.239Z</time>
      </trkpt>
      <trkpt lat="42.31157" lon="23.10305">
        <ele>600.136136</ele>
        <time>2022-04-05T10:44:26.222Z</time>
      </trkpt>
      <trkpt lat="42.31148" lon="23.10314">
        <ele>600.017643</ele>
        <time>2022-04-05T10:44:28.240Z</time>
      </trkpt>
      <trkpt lat="42.31139" lon="23.10323">
        <ele>599.900477</ele>
        <time>2022-04-05T10:44:30.245Z</time>
      </trkpt>
      <trkpt lat="42.3113" lon="23.10331">
        <ele>599.784632</ele>
        <time>2022-04-05T10:44:32.241Z</time>
      </trkpt>
      <trkpt lat="42.31121" lon="23.10338">
        <ele>599.672619</ele>
        <time>2022-04-05T10:44:34.237Z</time>
      </trkpt>
      <trkpt lat="42.31112" lon="23.10345">
        <ele>599.560091</ele>
        <time>2022-04-05T10:44:36.258Z</time>
      </trkpt>
      <trkpt lat="42.31102" lon="23.10352">
        <ele>599.385265</ele>
        <time>2022-04-05T10:44:38.280Z</time>
      </trkpt>
      <trkpt lat="42.31093" lon="23.10359">
        <ele>599.163008</ele>
        <time>2022-04-05T10:44:40.232Z</time>
      </trkpt>
      <trkpt lat="42.31085" lon="23.10366">
        <ele>598.945719</ele>
        <time>2022-04-05T10:44:42.232Z</time>
      </trkpt>
      <trkpt lat="42.31075" lon="23.10373">
        <ele>598.716315</ele>
        <time>2022-04-05T10:44:44.240Z</time>
      </trkpt>
      <trkpt lat="42.31066" lon="23.1038">
        <ele>598.482675</ele>
        <time>2022-04-05T10:44:46.240Z</time>
      </trkpt>
      <trkpt lat="42.31056" lon="23.10387">
        <ele>598.24656</ele>
        <time>2022-04-05T10:44:48.237Z</time>
      </trkpt>
      <trkpt lat="42.31047" lon="23.10395">
        <ele>598.011561</ele>
        <time>2022-04-05T10:44:50.243Z</time>
      </trkpt>
      <trkpt lat="42.31037" lon="23.10402">
        <ele>597.767864</ele>
        <time>2022-04-05T10:44:52.241Z</time>
      </trkpt>
      <trkpt lat="42.31026" lon="23.1041">
        <ele>597.517793</ele>
        <time>2022-04-05T10:44:54.260Z</time>
      </trkpt>
      <trkpt lat="42.31016" lon="23.10417">
        <ele>597.266221</ele>
        <time>2022-04-05T10:44:56.255Z</time>
      </trkpt>
      <trkpt lat="42.31007" lon="23.10424">
        <ele>597.052959</ele>
        <time>2022-04-05T10:44:58.248Z</time>
      </trkpt>
      <trkpt lat="42.30999" lon="23.10431">
        <ele>596.836771</ele>
        <time>2022-04-05T10:45:00.236Z</time>
      </trkpt>
      <trkpt lat="42.30989" lon="23.10438">
        <ele>596.609223</ele>
        <time>2022-04-05T10:45:02.255Z</time>
      </trkpt>
      <trkpt lat="42.30979" lon="23.10446">
        <ele>596.352</ele>
        <time>2022-04-05T10:45:04.249Z</time>
      </trkpt>
      <trkpt lat="42.30969" lon="23.10454">
        <ele>596.095867</ele>
        <time>2022-04-05T10:45:06.279Z</time>
      </trkpt>
      <trkpt lat="42.30958" lon="23.10462">
        <ele>595.84502</ele>
        <time>2022-04-05T10:45:08.218Z</time>
      </trkpt>
      <trkpt lat="42.30948" lon="23.1047">
        <ele>595.588437</ele>
        <time>2022-04-05T10:45:10.248Z</time>
      </trkpt>
      <trkpt lat="42.30937" lon="23.10478">
        <ele>595.324383</ele>
        <time>2022-04-05T10:45:12.238Z</time>
      </trkpt>
      <trkpt lat="42.30927" lon="23.10486">
        <ele>595.063271</ele>
        <time>2022-04-05T10:45:14.259Z</time>
      </trkpt>
      <trkpt lat="42.30917" lon="23.10494">
        <ele>594.804285</ele>
        <time>2022-04-05T10:45:16.238Z</time>
      </trkpt>
      <trkpt lat="42.30907" lon="23.10501">
        <ele>594.556037</ele>
        <time>2022-04-05T10:45:18.240Z</time>
      </trkpt>
      <trkpt lat="42.30897" lon="23.10509">
        <ele>594.30921</ele>
        <time>2022-04-05T10:45:20.230Z</time>
      </trkpt>
      <trkpt lat="42.30888" lon="23.10516">
        <ele>594.080107</ele>
        <time>2022-04-05T10:45:22.234Z</time>
      </trkpt>
      <trkpt lat="42.30879" lon="23.10523">
        <ele>593.855889</ele>
        <time>2022-04-05T10:45:24.244Z</time>
      </trkpt>
      <trkpt lat="42.3087" lon="23.1053">
        <ele>593.629204</ele>
        <time>2022-04-05T10:45:26.250Z</time>
      </trkpt>
      <trkpt lat="42.30861" lon="23.10537">
        <ele>593.400877</ele>
        <time>2022-04-05T10:45:28.283Z</time>
      </trkpt>
      <trkpt lat="42.30852" lon="23.10544">
        <ele>593.175234</ele>
        <time>2022-04-05T10:45:30.259Z</time>
      </trkpt>
      <trkpt lat="42.30843" lon="23.10551">
        <ele>592.958282</ele>
        <time>2022-04-05T10:45:32.270Z</time>
      </trkpt>
      <trkpt lat="42.30834" lon="23.10557">
        <ele>592.732977</ele>
        <time>2022-04-05T10:45:34.242Z</time>
      </trkpt>
      <trkpt lat="42.30825" lon="23.10564">
        <ele>592.499646</ele>
        <time>2022-04-05T10:45:36.233Z</time>
      </trkpt>
      <trkpt lat="42.30816" lon="23.10571">
        <ele>592.282405</ele>
        <time>2022-04-05T10:45:38.240Z</time>
      </trkpt>
      <trkpt lat="42.30807" lon="23.10577">
        <ele>592.070538</ele>
        <time>2022-04-05T10:45:40.229Z</time>
      </trkpt>
      <trkpt lat="42.30799" lon="23.10583">
        <ele>591.874361</ele>
        <time>2022-04-05T10:45:42.252Z</time>
      </trkpt>
      <trkpt lat="42.30791" lon="23.10589">
        <ele>591.828804</ele>
        <time>2022-04-05T10:45:44.277Z</time>
      </trkpt>
      <trkpt lat="42.3078" lon="23.10598">
        <ele>592.199019</ele>
        <time>2022-04-05T10:45:47.238Z</time>
      </trkpt>
      <trkpt lat="42.30769" lon="23.10607">
        <ele>592.570625</ele>
        <time>2022-04-05T10:45:50.233Z</time>
      </trkpt>
      <trkpt lat="42.30758" lon="23.10614">
        <ele>592.911536</ele>
        <time>2022-04-05T10:45:53.251Z</time>
      </trkpt>
      <trkpt lat="42.30747" lon="23.10622">
        <ele>593.253436</ele>
        <time>2022-04-05T10:45:56.255Z</time>
      </trkpt>
      <trkpt lat="42.30737" lon="23.1063">
        <ele>593.580049</ele>
        <time>2022-04-05T10:45:59.233Z</time>
      </trkpt>
      <trkpt lat="42.30727" lon="23.10638">
        <ele>593.901387</ele>
        <time>2022-04-05T10:46:02.250Z</time>
      </trkpt>
      <trkpt lat="42.30717" lon="23.10645">
        <ele>594.228001</ele>
        <time>2022-04-05T10:46:05.233Z</time>
      </trkpt>
      <trkpt lat="42.30707" lon="23.10653">
        <ele>594.559744</ele>
        <time>2022-04-05T10:46:08.239Z</time>
      </trkpt>
      <trkpt lat="42.30697" lon="23.1066">
        <ele>594.876168</ele>
        <time>2022-04-05T10:46:11.252Z</time>
      </trkpt>
      <trkpt lat="42.30687" lon="23.10667">
        <ele>595.170213</ele>
        <time>2022-04-05T10:46:14.254Z</time>
      </trkpt>
      <trkpt lat="42.30678" lon="23.10674">
        <ele>595.471171</ele>
        <time>2022-04-05T10:46:17.249Z</time>
      </trkpt>
      <trkpt lat="42.30668" lon="23.10681">
        <ele>595.779045</ele>
        <time>2022-04-05T10:46:20.243Z</time>
      </trkpt>
      <trkpt lat="42.30658" lon="23.10688">
        <ele>596.089525</ele>
        <time>2022-04-05T10:46:23.244Z</time>
      </trkpt>
      <trkpt lat="42.30648" lon="23.10695">
        <ele>596.410318</ele>
        <time>2022-04-05T10:46:26.239Z</time>
      </trkpt>
      <trkpt lat="42.30638" lon="23.10702">
        <ele>596.735937</ele>
        <time>2022-04-05T10:46:29.241Z</time>
      </trkpt>
      <trkpt lat="42.30627" lon="23.1071">
        <ele>596.537885</ele>
        <time>2022-04-05T10:46:32.252Z</time>
      </trkpt>
      <trkpt lat="42.30617" lon="23.10718">
        <ele>596.241184</ele>
        <time>2022-04-05T10:46:35.240Z</time>
      </trkpt>
      <trkpt lat="42.30606" lon="23.10726">
        <ele>595.931503</ele>
        <time>2022-04-05T10:46:38.245Z</time>
      </trkpt>
      <trkpt lat="42.30598" lon="23.10732">
        <ele>595.710269</ele>
        <time>2022-04-05T10:46:40.238Z</time>
      </trkpt>
      <trkpt lat="42.3059" lon="23.10739">
        <ele>595.479074</ele>
        <time>2022-04-05T10:46:42.252Z</time>
      </trkpt>
      <trkpt lat="42.30582" lon="23.10745">
        <ele>595.256352</ele>
        <time>2022-04-05T10:46:44.251Z</time>
      </trkpt>
      <trkpt lat="42.30574" lon="23.10751">
        <ele>595.027285</ele>
        <time>2022-04-05T10:46:46.243Z</time>
      </trkpt>
      <trkpt lat="42.30566" lon="23.10757">
        <ele>594.803701</ele>
        <time>2022-04-05T10:46:48.237Z</time>
      </trkpt>
      <trkpt lat="42.30558" lon="23.10763">
        <ele>594.572805</ele>
        <time>2022-04-05T10:46:50.261Z</time>
      </trkpt>
      <trkpt lat="42.30549" lon="23.10771">
        <ele>594.330124</ele>
        <time>2022-04-05T10:46:52.255Z</time>
      </trkpt>
      <trkpt lat="42.3054" lon="23.10778">
        <ele>594.069815</ele>
        <time>2022-04-05T10:46:54.230Z</time>
      </trkpt>
      <trkpt lat="42.30531" lon="23.10786">
        <ele>593.791461</ele>
        <time>2022-04-05T10:46:56.295Z</time>
      </trkpt>
      <trkpt lat="42.30521" lon="23.10794">
        <ele>593.517547</ele>
        <time>2022-04-05T10:46:58.250Z</time>
      </trkpt>
      <trkpt lat="42.3051" lon="23.10802">
        <ele>593.216364</ele>
        <time>2022-04-05T10:47:00.232Z</time>
      </trkpt>
      <trkpt lat="42.30499" lon="23.10811">
        <ele>592.903971</ele>
        <time>2022-04-05T10:47:02.244Z</time>
      </trkpt>
      <trkpt lat="42.30488" lon="23.1082">
        <ele>592.577336</ele>
        <time>2022-04-05T10:47:04.244Z</time>
      </trkpt>
      <trkpt lat="42.30476" lon="23.10829">
        <ele>592.191999</ele>
        <time>2022-04-05T10:47:06.242Z</time>
      </trkpt>
      <trkpt lat="42.30464" lon="23.10839">
        <ele>591.727981</ele>
        <time>2022-04-05T10:47:08.244Z</time>
      </trkpt>
      <trkpt lat="42.30451" lon="23.10848">
        <ele>591.268802</ele>
        <time>2022-04-05T10:47:10.259Z</time>
      </trkpt>
      <trkpt lat="42.3044" lon="23.10857">
        <ele>590.821002</ele>
        <time>2022-04-05T10:47:12.236Z</time>
      </trkpt>
      <trkpt lat="42.30428" lon="23.10867">
        <ele>590.375623</ele>
        <time>2022-04-05T10:47:14.231Z</time>
      </trkpt>
      <trkpt lat="42.30416" lon="23.10875">
        <ele>589.946437</ele>
        <time>2022-04-05T10:47:16.232Z</time>
      </trkpt>
      <trkpt lat="42.30405" lon="23.10884">
        <ele>589.518898</ele>
        <time>2022-04-05T10:47:18.255Z</time>
      </trkpt>
      <trkpt lat="42.30394" lon="23.10893">
        <ele>589.101083</ele>
        <time>2022-04-05T10:47:20.236Z</time>
      </trkpt>
      <trkpt lat="42.30383" lon="23.10902">
        <ele>588.66422</ele>
        <time>2022-04-05T10:47:22.241Z</time>
      </trkpt>
      <trkpt lat="42.30371" lon="23.10911">
        <ele>588.218357</ele>
        <time>2022-04-05T10:47:24.243Z</time>
      </trkpt>
      <trkpt lat="42.3036" lon="23.10919">
        <ele>587.797263</ele>
        <time>2022-04-05T10:47:26.292Z</time>
      </trkpt>
      <trkpt lat="42.30349" lon="23.10928">
        <ele>587.390385</ele>
        <time>2022-04-05T10:47:28.243Z</time>
      </trkpt>
      <trkpt lat="42.30338" lon="23.10935">
        <ele>586.984272</ele>
        <time>2022-04-05T10:47:30.243Z</time>
      </trkpt>
      <trkpt lat="42.30327" lon="23.10943">
        <ele>586.595523</ele>
        <time>2022-04-05T10:47:32.232Z</time>
      </trkpt>
      <trkpt lat="42.30317" lon="23.10951">
        <ele>586.459769</ele>
        <time>2022-04-05T10:47:34.230Z</time>
      </trkpt>
      <trkpt lat="42.30307" lon="23.10958">
        <ele>586.429158</ele>
        <time>2022-04-05T10:47:36.255Z</time>
      </trkpt>
      <trkpt lat="42.30297" lon="23.10966">
        <ele>586.398484</ele>
        <time>2022-04-05T10:47:38.236Z</time>
      </trkpt>
      <trkpt lat="42.30287" lon="23.10975">
        <ele>586.367296</ele>
        <time>2022-04-05T10:47:40.248Z</time>
      </trkpt>
      <trkpt lat="42.30277" lon="23.10982">
        <ele>586.336971</ele>
        <time>2022-04-05T10:47:42.252Z</time>
      </trkpt>
      <trkpt lat="42.30268" lon="23.1099">
        <ele>586.306957</ele>
        <time>2022-04-05T10:47:44.258Z</time>
      </trkpt>
      <trkpt lat="42.30258" lon="23.10997">
        <ele>586.277238</ele>
        <time>2022-04-05T10:47:46.244Z</time>
      </trkpt>
      <trkpt lat="42.30248" lon="23.11005">
        <ele>586.247223</ele>
        <time>2022-04-05T10:47:48.278Z</time>
      </trkpt>
      <trkpt lat="42.30239" lon="23.11013">
        <ele>586.217585</ele>
        <time>2022-04-05T10:47:50.226Z</time>
      </trkpt>
      <trkpt lat="42.30229" lon="23.1102">
        <ele>586.187962</ele>
        <time>2022-04-05T10:47:52.236Z</time>
      </trkpt>
      <trkpt lat="42.3022" lon="23.11028">
        <ele>586.158881</ele>
        <time>2022-04-05T10:47:54.277Z</time>
      </trkpt>
      <trkpt lat="42.30211" lon="23.11035">
        <ele>586.129955</ele>
        <time>2022-04-05T10:47:56.250Z</time>
      </trkpt>
      <trkpt lat="42.30201" lon="23.11043">
        <ele>586.10126</ele>
        <time>2022-04-05T10:47:58.242Z</time>
      </trkpt>
      <trkpt lat="42.30192" lon="23.1105">
        <ele>586.072858</ele>
        <time>2022-04-05T10:48:00.252Z</time>
      </trkpt>
      <trkpt lat="42.30183" lon="23.11056">
        <ele>586.046005</ele>
        <time>2022-04-05T10:48:02.233Z</time>
      </trkpt>
      <trkpt lat="42.30175" lon="23.11062">
        <ele>586.020234</ele>
        <time>2022-04-05T10:48:04.254Z</time>
      </trkpt>
      <trkpt lat="42.30167" lon="23.11068">
        <ele>585.993187</ele>
        <time>2022-04-05T10:48:06.239Z</time>
      </trkpt>
      <trkpt lat="42.30158" lon="23.11075">
        <ele>585.957926</ele>
        <time>2022-04-05T10:48:08.255Z</time>
      </trkpt>
      <trkpt lat="42.3015" lon="23.11081">
        <ele>585.922579</ele>
        <time>2022-04-05T10:48:10.233Z</time>
      </trkpt>
      <trkpt lat="42.30141" lon="23.11088">
        <ele>585.885506</ele>
        <time>2022-04-05T10:48:12.233Z</time>
      </trkpt>
      <trkpt lat="42.30132" lon="23.11094">
        <ele>585.84765</ele>
        <time>2022-04-05T10:48:14.253Z</time>
      </trkpt>
      <trkpt lat="42.30123" lon="23.11101">
        <ele>585.811745</ele>
        <time>2022-04-05T10:48:16.296Z</time>
      </trkpt>
      <trkpt lat="42.30115" lon="23.11107">
        <ele>585.775968</ele>
        <time>2022-04-05T10:48:18.233Z</time>
      </trkpt>
      <trkpt lat="42.30106" lon="23.11113">
        <ele>585.739667</ele>
        <time>2022-04-05T10:48:20.257Z</time>
      </trkpt>
      <trkpt lat="42.30098" lon="23.11119">
        <ele>585.70537</ele>
        <time>2022-04-05T10:48:22.278Z</time>
      </trkpt>
      <trkpt lat="42.30089" lon="23.11125">
        <ele>585.670821</ele>
        <time>2022-04-05T10:48:24.243Z</time>
      </trkpt>
      <trkpt lat="42.30078" lon="23.11133">
        <ele>585.623292</ele>
        <time>2022-04-05T10:48:27.240Z</time>
      </trkpt>
      <trkpt lat="42.30067" lon="23.11141">
        <ele>585.578539</ele>
        <time>2022-04-05T10:48:30.236Z</time>
      </trkpt>
      <trkpt lat="42.30056" lon="23.11149">
        <ele>585.532944</ele>
        <time>2022-04-05T10:48:33.255Z</time>
      </trkpt>
      <trkpt lat="42.30045" lon="23.11157">
        <ele>585.48677</ele>
        <time>2022-04-05T10:48:36.243Z</time>
      </trkpt>
      <trkpt lat="42.30034" lon="23.11165">
        <ele>585.439692</ele>
        <time>2022-04-05T10:48:39.299Z</time>
      </trkpt>
      <trkpt lat="42.30023" lon="23.11174">
        <ele>585.392458</ele>
        <time>2022-04-05T10:48:42.247Z</time>
      </trkpt>
      <trkpt lat="42.30012" lon="23.11182">
        <ele>585.345814</ele>
        <time>2022-04-05T10:48:45.237Z</time>
      </trkpt>
      <trkpt lat="42.30002" lon="23.11191">
        <ele>585.506668</ele>
        <time>2022-04-05T10:48:48.245Z</time>
      </trkpt>
      <trkpt lat="42.29991" lon="23.11198">
        <ele>585.686492</ele>
        <time>2022-04-05T10:48:51.241Z</time>
      </trkpt>
      <trkpt lat="42.29982" lon="23.11206">
        <ele>585.86156</ele>
        <time>2022-04-05T10:48:54.240Z</time>
      </trkpt>
      <trkpt lat="42.29972" lon="23.11214">
        <ele>586.041782</ele>
        <time>2022-04-05T10:48:57.245Z</time>
      </trkpt>
      <trkpt lat="42.29962" lon="23.11222">
        <ele>586.217787</ele>
        <time>2022-04-05T10:49:00.239Z</time>
      </trkpt>
      <trkpt lat="42.29952" lon="23.1123">
        <ele>586.393792</ele>
        <time>2022-04-05T10:49:03.240Z</time>
      </trkpt>
      <trkpt lat="42.29942" lon="23.11237">
        <ele>586.573052</ele>
        <time>2022-04-05T10:49:06.298Z</time>
      </trkpt>
      <trkpt lat="42.29932" lon="23.11245">
        <ele>586.745804</ele>
        <time>2022-04-05T10:49:09.244Z</time>
      </trkpt>
      <trkpt lat="42.29922" lon="23.11253">
        <ele>586.931358</ele>
        <time>2022-04-05T10:49:12.246Z</time>
      </trkpt>
      <trkpt lat="42.29911" lon="23.11261">
        <ele>587.115782</ele>
        <time>2022-04-05T10:49:15.289Z</time>
      </trkpt>
      <trkpt lat="42.29902" lon="23.11268">
        <ele>587.284406</ele>
        <time>2022-04-05T10:49:18.234Z</time>
      </trkpt>
      <trkpt lat="42.29892" lon="23.11275">
        <ele>587.451958</ele>
        <time>2022-04-05T10:49:21.238Z</time>
      </trkpt>
      <trkpt lat="42.29882" lon="23.11282">
        <ele>587.627113</ele>
        <time>2022-04-05T10:49:24.262Z</time>
      </trkpt>
      <trkpt lat="42.29873" lon="23.11289">
        <ele>587.790886</ele>
        <time>2022-04-05T10:49:27.244Z</time>
      </trkpt>
      <trkpt lat="42.29863" lon="23.11297">
        <ele>587.963915</ele>
        <time>2022-04-05T10:49:30.233Z</time>
      </trkpt>
      <trkpt lat="42.29854" lon="23.11304">
        <ele>588.114928</ele>
        <time>2022-04-05T10:49:33.250Z</time>
      </trkpt>
      <trkpt lat="42.29845" lon="23.11312">
        <ele>587.99142</ele>
        <time>2022-04-05T10:49:36.230Z</time>
      </trkpt>
      <trkpt lat="42.29835" lon="23.1132">
        <ele>587.858349</ele>
        <time>2022-04-05T10:49:39.243Z</time>
      </trkpt>
      <trkpt lat="42.29825" lon="23.11327">
        <ele>587.729653</ele>
        <time>2022-04-05T10:49:42.240Z</time>
      </trkpt>
      <trkpt lat="42.29815" lon="23.11335">
        <ele>587.599708</ele>
        <time>2022-04-05T10:49:45.249Z</time>
      </trkpt>
      <trkpt lat="42.29805" lon="23.11342">
        <ele>587.4762</ele>
        <time>2022-04-05T10:49:48.253Z</time>
      </trkpt>
      <trkpt lat="42.29796" lon="23.1135">
        <ele>587.351991</ele>
        <time>2022-04-05T10:49:51.230Z</time>
      </trkpt>
      <trkpt lat="42.29787" lon="23.11357">
        <ele>587.231016</ele>
        <time>2022-04-05T10:49:54.237Z</time>
      </trkpt>
      <trkpt lat="42.29777" lon="23.11365">
        <ele>587.109062</ele>
        <time>2022-04-05T10:49:57.230Z</time>
      </trkpt>
      <trkpt lat="42.29768" lon="23.11372">
        <ele>586.984724</ele>
        <time>2022-04-05T10:50:00.230Z</time>
      </trkpt>
      <trkpt lat="42.29759" lon="23.11379">
        <ele>586.86599</ele>
        <time>2022-04-05T10:50:03.242Z</time>
      </trkpt>
      <trkpt lat="42.2975" lon="23.11386">
        <ele>586.744588</ele>
        <time>2022-04-05T10:50:06.259Z</time>
      </trkpt>
      <trkpt lat="42.2974" lon="23.11394">
        <ele>586.62025</ele>
        <time>2022-04-05T10:50:09.234Z</time>
      </trkpt>
      <trkpt lat="42.29731" lon="23.11401">
        <ele>586.496894</ele>
        <time>2022-04-05T10:50:12.270Z</time>
      </trkpt>
      <trkpt lat="42.29721" lon="23.11408">
        <ele>586.376759</ele>
        <time>2022-04-05T10:50:15.257Z</time>
      </trkpt>
      <trkpt lat="42.29713" lon="23.11415">
        <ele>586.26011</ele>
        <time>2022-04-05T10:50:18.244Z</time>
      </trkpt>
      <trkpt lat="42.29704" lon="23.11422">
        <ele>586.144744</ele>
        <time>2022-04-05T10:50:21.241Z</time>
      </trkpt>
      <trkpt lat="42.29695" lon="23.11429">
        <ele>586.131733</ele>
        <time>2022-04-05T10:50:24.254Z</time>
      </trkpt>
      <trkpt lat="42.29686" lon="23.11436">
        <ele>586.241147</ele>
        <time>2022-04-05T10:50:27.252Z</time>
      </trkpt>
      <trkpt lat="42.29678" lon="23.11443">
        <ele>586.352149</ele>
        <time>2022-04-05T10:50:30.243Z</time>
      </trkpt>
      <trkpt lat="42.29669" lon="23.11449">
        <ele>586.459132</ele>
        <time>2022-04-05T10:50:33.259Z</time>
      </trkpt>
      <trkpt lat="42.2966" lon="23.11456">
        <ele>586.565565</ele>
        <time>2022-04-05T10:50:36.237Z</time>
      </trkpt>
      <trkpt lat="42.29652" lon="23.11462">
        <ele>586.672158</ele>
        <time>2022-04-05T10:50:39.240Z</time>
      </trkpt>
      <trkpt lat="42.29643" lon="23.11468">
        <ele>586.778365</ele>
        <time>2022-04-05T10:50:42.240Z</time>
      </trkpt>
      <trkpt lat="42.29634" lon="23.11475">
        <ele>586.887078</ele>
        <time>2022-04-05T10:50:45.247Z</time>
      </trkpt>
      <trkpt lat="42.29625" lon="23.11481">
        <ele>586.997688</ele>
        <time>2022-04-05T10:50:48.249Z</time>
      </trkpt>
      <trkpt lat="42.29616" lon="23.11488">
        <ele>587.109247</ele>
        <time>2022-04-05T10:50:51.237Z</time>
      </trkpt>
      <trkpt lat="42.29607" lon="23.11495">
        <ele>587.227503</ele>
        <time>2022-04-05T10:50:54.242Z</time>
      </trkpt>
      <trkpt lat="42.29598" lon="23.11502">
        <ele>587.343472</ele>
        <time>2022-04-05T10:50:57.243Z</time>
      </trkpt>
      <trkpt lat="42.29588" lon="23.1151">
        <ele>587.464408</ele>
        <time>2022-04-05T10:51:00.243Z</time>
      </trkpt>
      <trkpt lat="42.29579" lon="23.11517">
        <ele>587.579834</ele>
        <time>2022-04-05T10:51:03.253Z</time>
      </trkpt>
      <trkpt lat="42.29569" lon="23.11525">
        <ele>587.704397</ele>
        <time>2022-04-05T10:51:06.254Z</time>
      </trkpt>
      <trkpt lat="42.29559" lon="23.11532">
        <ele>587.826673</ele>
        <time>2022-04-05T10:51:09.265Z</time>
      </trkpt>
      <trkpt lat="42.29549" lon="23.1154">
        <ele>587.951908</ele>
        <time>2022-04-05T10:51:12.238Z</time>
      </trkpt>
      <trkpt lat="42.29539" lon="23.11548">
        <ele>588.000234</ele>
        <time>2022-04-05T10:51:15.247Z</time>
      </trkpt>
      <trkpt lat="42.29529" lon="23.11557">
        <ele>587.902267</ele>
        <time>2022-04-05T10:51:18.277Z</time>
      </trkpt>
      <trkpt lat="42.29518" lon="23.11565">
        <ele>587.798714</ele>
        <time>2022-04-05T10:51:21.238Z</time>
      </trkpt>
      <trkpt lat="42.29506" lon="23.11574">
        <ele>587.689542</ele>
        <time>2022-04-05T10:51:24.237Z</time>
      </trkpt>
      <trkpt lat="42.29498" lon="23.1158">
        <ele>587.614075</ele>
        <time>2022-04-05T10:51:26.232Z</time>
      </trkpt>
      <trkpt lat="42.29491" lon="23.11587">
        <ele>587.538694</ele>
        <time>2022-04-05T10:51:28.244Z</time>
      </trkpt>
      <trkpt lat="42.29482" lon="23.11593">
        <ele>587.461663</ele>
        <time>2022-04-05T10:51:30.243Z</time>
      </trkpt>
      <trkpt lat="42.29474" lon="23.11599">
        <ele>587.384338</ele>
        <time>2022-04-05T10:51:32.284Z</time>
      </trkpt>
      <trkpt lat="42.29466" lon="23.11605">
        <ele>587.309176</ele>
        <time>2022-04-05T10:51:34.257Z</time>
      </trkpt>
      <trkpt lat="42.29458" lon="23.11611">
        <ele>587.234179</ele>
        <time>2022-04-05T10:51:36.239Z</time>
      </trkpt>
      <trkpt lat="42.2945" lon="23.11617">
        <ele>587.157996</ele>
        <time>2022-04-05T10:51:38.259Z</time>
      </trkpt>
      <trkpt lat="42.29442" lon="23.11623">
        <ele>587.082116</ele>
        <time>2022-04-05T10:51:40.237Z</time>
      </trkpt>
      <trkpt lat="42.29434" lon="23.11629">
        <ele>587.004791</ele>
        <time>2022-04-05T10:51:42.243Z</time>
      </trkpt>
      <trkpt lat="42.29426" lon="23.11635">
        <ele>586.926567</ele>
        <time>2022-04-05T10:51:44.230Z</time>
      </trkpt>
      <trkpt lat="42.29418" lon="23.11642">
        <ele>586.847625</ele>
        <time>2022-04-05T10:51:46.240Z</time>
      </trkpt>
      <trkpt lat="42.2941" lon="23.11649">
        <ele>586.770252</ele>
        <time>2022-04-05T10:51:48.259Z</time>
      </trkpt>
      <trkpt lat="42.29401" lon="23.11655">
        <ele>586.692203</ele>
        <time>2022-04-05T10:51:50.251Z</time>
      </trkpt>
      <trkpt lat="42.29393" lon="23.11661">
        <ele>586.613427</ele>
        <time>2022-04-05T10:51:52.256Z</time>
      </trkpt>
      <trkpt lat="42.29384" lon="23.11667">
        <ele>586.577706</ele>
        <time>2022-04-05T10:51:54.274Z</time>
      </trkpt>
      <trkpt lat="42.29376" lon="23.11674">
        <ele>586.716595</ele>
        <time>2022-04-05T10:51:56.246Z</time>
      </trkpt>
      <trkpt lat="42.29367" lon="23.1168">
        <ele>586.855762</ele>
        <time>2022-04-05T10:51:58.252Z</time>
      </trkpt>
      <trkpt lat="42.29358" lon="23.11687">
        <ele>587.001009</ele>
        <time>2022-04-05T10:52:00.285Z</time>
      </trkpt>
      <trkpt lat="42.29349" lon="23.11694">
        <ele>587.143814</ele>
        <time>2022-04-05T10:52:02.239Z</time>
      </trkpt>
      <trkpt lat="42.2934" lon="23.11701">
        <ele>587.289339</ele>
        <time>2022-04-05T10:52:04.259Z</time>
      </trkpt>
      <trkpt lat="42.29331" lon="23.11708">
        <ele>587.430736</ele>
        <time>2022-04-05T10:52:06.264Z</time>
      </trkpt>
      <trkpt lat="42.29322" lon="23.11715">
        <ele>587.574371</ele>
        <time>2022-04-05T10:52:08.252Z</time>
      </trkpt>
      <trkpt lat="42.29313" lon="23.11722">
        <ele>587.723165</ele>
        <time>2022-04-05T10:52:10.243Z</time>
      </trkpt>
      <trkpt lat="42.29303" lon="23.11729">
        <ele>587.874042</ele>
        <time>2022-04-05T10:52:12.244Z</time>
      </trkpt>
      <trkpt lat="42.29294" lon="23.11736">
        <ele>588.019567</ele>
        <time>2022-04-05T10:52:14.245Z</time>
      </trkpt>
      <trkpt lat="42.29285" lon="23.11743">
        <ele>588.164587</ele>
        <time>2022-04-05T10:52:16.242Z</time>
      </trkpt>
      <trkpt lat="42.29276" lon="23.1175">
        <ele>588.308747</ele>
        <time>2022-04-05T10:52:18.270Z</time>
      </trkpt>
      <trkpt lat="42.29268" lon="23.11757">
        <ele>588.444308</ele>
        <time>2022-04-05T10:52:20.249Z</time>
      </trkpt>
      <trkpt lat="42.2926" lon="23.11763">
        <ele>588.574039</ele>
        <time>2022-04-05T10:52:22.273Z</time>
      </trkpt>
      <trkpt lat="42.29252" lon="23.11769">
        <ele>588.699985</ele>
        <time>2022-04-05T10:52:24.234Z</time>
      </trkpt>
      <trkpt lat="42.29241" lon="23.11778">
        <ele>588.881758</ele>
        <time>2022-04-05T10:52:27.256Z</time>
      </trkpt>
      <trkpt lat="42.2923" lon="23.11786">
        <ele>589.053736</ele>
        <time>2022-04-05T10:52:30.244Z</time>
      </trkpt>
      <trkpt lat="42.2922" lon="23.11794">
        <ele>589.526434</ele>
        <time>2022-04-05T10:52:33.242Z</time>
      </trkpt>
      <trkpt lat="42.29211" lon="23.118">
        <ele>589.947586</ele>
        <time>2022-04-05T10:52:36.259Z</time>
      </trkpt>
      <trkpt lat="42.29203" lon="23.11806">
        <ele>590.335859</ele>
        <time>2022-04-05T10:52:39.283Z</time>
      </trkpt>
      <trkpt lat="42.29193" lon="23.11814">
        <ele>590.8391</ele>
        <time>2022-04-05T10:52:43.233Z</time>
      </trkpt>
      <trkpt lat="42.29185" lon="23.1182">
        <ele>591.238555</ele>
        <time>2022-04-05T10:52:46.235Z</time>
      </trkpt>
      <trkpt lat="42.29177" lon="23.11826">
        <ele>591.620992</ele>
        <time>2022-04-05T10:52:49.229Z</time>
      </trkpt>
      <trkpt lat="42.29167" lon="23.11833">
        <ele>592.100485</ele>
        <time>2022-04-05T10:52:53.236Z</time>
      </trkpt>
      <trkpt lat="42.29158" lon="23.1184">
        <ele>592.552235</ele>
        <time>2022-04-05T10:52:57.240Z</time>
      </trkpt>
      <trkpt lat="42.29149" lon="23.11847">
        <ele>592.971412</ele>
        <time>2022-04-05T10:53:01.248Z</time>
      </trkpt>
      <trkpt lat="42.2914" lon="23.11854">
        <ele>593.423295</ele>
        <time>2022-04-05T10:53:05.226Z</time>
      </trkpt>
      <trkpt lat="42.29132" lon="23.1186">
        <ele>593.818342</ele>
        <time>2022-04-05T10:53:08.260Z</time>
      </trkpt>
      <trkpt lat="42.29122" lon="23.11867">
        <ele>594.282074</ele>
        <time>2022-04-05T10:53:12.242Z</time>
      </trkpt>
      <trkpt lat="42.29112" lon="23.11874">
        <ele>594.768982</ele>
        <time>2022-04-05T10:53:16.239Z</time>
      </trkpt>
      <trkpt lat="42.29104" lon="23.1188">
        <ele>595.157996</ele>
        <time>2022-04-05T10:53:19.248Z</time>
      </trkpt>
      <trkpt lat="42.29093" lon="23.11887">
        <ele>595.652466</ele>
        <time>2022-04-05T10:53:23.238Z</time>
      </trkpt>
      <trkpt lat="42.29084" lon="23.11893">
        <ele>596.102006</ele>
        <time>2022-04-05T10:53:27.285Z</time>
      </trkpt>
      <trkpt lat="42.29075" lon="23.11899">
        <ele>596.529288</ele>
        <time>2022-04-05T10:53:31.232Z</time>
      </trkpt>
      <trkpt lat="42.29065" lon="23.11907">
        <ele>596.478302</ele>
        <time>2022-04-05T10:53:35.243Z</time>
      </trkpt>
      <trkpt lat="42.29057" lon="23.11913">
        <ele>596.223368</ele>
        <time>2022-04-05T10:53:38.248Z</time>
      </trkpt>
      <trkpt lat="42.29047" lon="23.11921">
        <ele>595.904182</ele>
        <time>2022-04-05T10:53:42.288Z</time>
      </trkpt>
      <trkpt lat="42.29039" lon="23.11928">
        <ele>595.658513</ele>
        <time>2022-04-05T10:53:45.280Z</time>
      </trkpt>
      <trkpt lat="42.2903" lon="23.11935">
        <ele>595.38458</ele>
        <time>2022-04-05T10:53:48.239Z</time>
      </trkpt>
      <trkpt lat="42.29021" lon="23.11943">
        <ele>595.090886</ele>
        <time>2022-04-05T10:53:51.243Z</time>
      </trkpt>
      <trkpt lat="42.29011" lon="23.11951">
        <ele>594.78332</ele>
        <time>2022-04-05T10:53:54.250Z</time>
      </trkpt>
      <trkpt lat="42.29" lon="23.1196">
        <ele>594.435878</ele>
        <time>2022-04-05T10:53:57.239Z</time>
      </trkpt>
      <trkpt lat="42.28993" lon="23.11967">
        <ele>594.18907</ele>
        <time>2022-04-05T10:53:59.275Z</time>
      </trkpt>
      <trkpt lat="42.28984" lon="23.11974">
        <ele>593.91762</ele>
        <time>2022-04-05T10:54:01.253Z</time>
      </trkpt>
      <trkpt lat="42.28976" lon="23.11982">
        <ele>593.651842</ele>
        <time>2022-04-05T10:54:03.234Z</time>
      </trkpt>
      <trkpt lat="42.28968" lon="23.11989">
        <ele>593.383833</ele>
        <time>2022-04-05T10:54:05.247Z</time>
      </trkpt>
      <trkpt lat="42.2896" lon="23.11997">
        <ele>593.111309</ele>
        <time>2022-04-05T10:54:07.243Z</time>
      </trkpt>
      <trkpt lat="42.28951" lon="23.12004">
        <ele>592.832092</ele>
        <time>2022-04-05T10:54:09.244Z</time>
      </trkpt>
      <trkpt lat="42.28942" lon="23.12013">
        <ele>592.536184</ele>
        <time>2022-04-05T10:54:11.244Z</time>
      </trkpt>
      <trkpt lat="42.28932" lon="23.12021">
        <ele>592.235534</ele>
        <time>2022-04-05T10:54:13.273Z</time>
      </trkpt>
      <trkpt lat="42.28923" lon="23.12028">
        <ele>591.933617</ele>
        <time>2022-04-05T10:54:15.240Z</time>
      </trkpt>
      <trkpt lat="42.28913" lon="23.12037">
        <ele>591.40757</ele>
        <time>2022-04-05T10:54:17.225Z</time>
      </trkpt>
      <trkpt lat="42.28903" lon="23.12044">
        <ele>590.795769</ele>
        <time>2022-04-05T10:54:19.249Z</time>
      </trkpt>
      <trkpt lat="42.28893" lon="23.12052">
        <ele>590.163112</ele>
        <time>2022-04-05T10:54:21.277Z</time>
      </trkpt>
      <trkpt lat="42.28883" lon="23.1206">
        <ele>589.524075</ele>
        <time>2022-04-05T10:54:23.241Z</time>
      </trkpt>
      <trkpt lat="42.28872" lon="23.12067">
        <ele>588.8754</ele>
        <time>2022-04-05T10:54:25.220Z</time>
      </trkpt>
      <trkpt lat="42.28862" lon="23.12075">
        <ele>588.239226</ele>
        <time>2022-04-05T10:54:27.241Z</time>
      </trkpt>
      <trkpt lat="42.28853" lon="23.12082">
        <ele>587.626828</ele>
        <time>2022-04-05T10:54:29.242Z</time>
      </trkpt>
      <trkpt lat="42.28843" lon="23.1209">
        <ele>587.022374</ele>
        <time>2022-04-05T10:54:31.244Z</time>
      </trkpt>
      <trkpt lat="42.28834" lon="23.12097">
        <ele>586.436976</ele>
        <time>2022-04-05T10:54:33.269Z</time>
      </trkpt>
      <trkpt lat="42.28824" lon="23.12103">
        <ele>585.848683</ele>
        <time>2022-04-05T10:54:35.229Z</time>
      </trkpt>
      <trkpt lat="42.28815" lon="23.1211">
        <ele>585.275946</ele>
        <time>2022-04-05T10:54:37.245Z</time>
      </trkpt>
      <trkpt lat="42.28806" lon="23.12117">
        <ele>584.712769</ele>
        <time>2022-04-05T10:54:39.250Z</time>
      </trkpt>
      <trkpt lat="42.28797" lon="23.12124">
        <ele>584.158285</ele>
        <time>2022-04-05T10:54:41.345Z</time>
      </trkpt>
      <trkpt lat="42.28788" lon="23.1213">
        <ele>583.608584</ele>
        <time>2022-04-05T10:54:43.246Z</time>
      </trkpt>
      <trkpt lat="42.28779" lon="23.12137">
        <ele>583.047367</ele>
        <time>2022-04-05T10:54:45.248Z</time>
      </trkpt>
      <trkpt lat="42.2877" lon="23.12144">
        <ele>582.488088</ele>
        <time>2022-04-05T10:54:47.257Z</time>
      </trkpt>
      <trkpt lat="42.28761" lon="23.1215">
        <ele>581.976611</ele>
        <time>2022-04-05T10:54:49.256Z</time>
      </trkpt>
      <trkpt lat="42.28752" lon="23.12157">
        <ele>581.712928</ele>
        <time>2022-04-05T10:54:51.256Z</time>
      </trkpt>
      <trkpt lat="42.28743" lon="23.12164">
        <ele>581.454966</ele>
        <time>2022-04-05T10:54:53.244Z</time>
      </trkpt>
      <trkpt lat="42.28734" lon="23.1217">
        <ele>581.186859</ele>
        <time>2022-04-05T10:54:55.219Z</time>
      </trkpt>
      <trkpt lat="42.28724" lon="23.12177">
        <ele>580.915656</ele>
        <time>2022-04-05T10:54:57.270Z</time>
      </trkpt>
      <trkpt lat="42.28715" lon="23.12184">
        <ele>580.663871</ele>
        <time>2022-04-05T10:54:59.234Z</time>
      </trkpt>
      <trkpt lat="42.28707" lon="23.12189">
        <ele>580.423583</ele>
        <time>2022-04-05T10:55:01.300Z</time>
      </trkpt>
      <trkpt lat="42.28698" lon="23.12196">
        <ele>580.17712</ele>
        <time>2022-04-05T10:55:03.237Z</time>
      </trkpt>
      <trkpt lat="42.28689" lon="23.12202">
        <ele>579.923097</ele>
        <time>2022-04-05T10:55:05.243Z</time>
      </trkpt>
      <trkpt lat="42.2868" lon="23.12208">
        <ele>579.672215</ele>
        <time>2022-04-05T10:55:07.242Z</time>
      </trkpt>
      <trkpt lat="42.28671" lon="23.12214">
        <ele>579.41389</ele>
        <time>2022-04-05T10:55:09.255Z</time>
      </trkpt>
      <trkpt lat="42.28662" lon="23.12221">
        <ele>579.157709</ele>
        <time>2022-04-05T10:55:11.271Z</time>
      </trkpt>
      <trkpt lat="42.28652" lon="23.12227">
        <ele>578.889347</ele>
        <time>2022-04-05T10:55:13.233Z</time>
      </trkpt>
      <trkpt lat="42.28643" lon="23.12233">
        <ele>578.635324</ele>
        <time>2022-04-05T10:55:15.267Z</time>
      </trkpt>
      <trkpt lat="42.28634" lon="23.12239">
        <ele>578.3813</ele>
        <time>2022-04-05T10:55:17.246Z</time>
      </trkpt>
      <trkpt lat="42.28624" lon="23.12245">
        <ele>578.09978</ele>
        <time>2022-04-05T10:55:19.290Z</time>
      </trkpt>
      <trkpt lat="42.28613" lon="23.12249">
        <ele>577.817172</ele>
        <time>2022-04-05T10:55:21.265Z</time>
      </trkpt>
      <trkpt lat="42.28602" lon="23.12253">
        <ele>577.534554</ele>
        <time>2022-04-05T10:55:23.240Z</time>
      </trkpt>
      <trkpt lat="42.28591" lon="23.12255">
        <ele>577.597465</ele>
        <time>2022-04-05T10:55:25.246Z</time>
      </trkpt>
      <trkpt lat="42.28581" lon="23.12257">
        <ele>577.725718</ele>
        <time>2022-04-05T10:55:27.250Z</time>
      </trkpt>
      <trkpt lat="42.28571" lon="23.12258">
        <ele>577.845239</ele>
        <time>2022-04-05T10:55:29.233Z</time>
      </trkpt>
      <trkpt lat="42.28557" lon="23.12258">
        <ele>578.007573</ele>
        <time>2022-04-05T10:55:32.254Z</time>
      </trkpt>
      <trkpt lat="42.28546" lon="23.12258">
        <ele>578.142259</ele>
        <time>2022-04-05T10:55:35.256Z</time>
      </trkpt>
      <trkpt lat="42.28536" lon="23.12258">
        <ele>578.26491</ele>
        <time>2022-04-05T10:55:38.250Z</time>
      </trkpt>
      <trkpt lat="42.28524" lon="23.12259">
        <ele>578.412823</ele>
        <time>2022-04-05T10:55:42.210Z</time>
      </trkpt>
      <trkpt lat="42.28512" lon="23.12259">
        <ele>578.559525</ele>
        <time>2022-04-05T10:55:46.249Z</time>
      </trkpt>
      <trkpt lat="42.28502" lon="23.12258">
        <ele>578.677419</ele>
        <time>2022-04-05T10:55:49.286Z</time>
      </trkpt>
      <trkpt lat="42.28491" lon="23.12258">
        <ele>578.812121</ele>
        <time>2022-04-05T10:55:52.270Z</time>
      </trkpt>
      <trkpt lat="42.2848" lon="23.12258">
        <ele>578.936089</ele>
        <time>2022-04-05T10:55:55.242Z</time>
      </trkpt>
      <trkpt lat="42.2847" lon="23.12259">
        <ele>579.054201</ele>
        <time>2022-04-05T10:55:58.245Z</time>
      </trkpt>
      <trkpt lat="42.28459" lon="23.12262">
        <ele>579.189233</ele>
        <time>2022-04-05T10:56:01.255Z</time>
      </trkpt>
      <trkpt lat="42.28448" lon="23.12266">
        <ele>579.326278</ele>
        <time>2022-04-05T10:56:04.234Z</time>
      </trkpt>
      <trkpt lat="42.28438" lon="23.12271">
        <ele>579.465568</ele>
        <time>2022-04-05T10:56:07.245Z</time>
      </trkpt>
      <trkpt lat="42.28427" lon="23.12278">
        <ele>579.608122</ele>
        <time>2022-04-05T10:56:10.242Z</time>
      </trkpt>
      <trkpt lat="42.28416" lon="23.12287">
        <ele>579.429079</ele>
        <time>2022-04-05T10:56:13.232Z</time>
      </trkpt>
      <trkpt lat="42.28408" lon="23.12294">
        <ele>579.211171</ele>
        <time>2022-04-05T10:56:15.232Z</time>
      </trkpt>
      <trkpt lat="42.28398" lon="23.12305">
        <ele>578.895628</ele>
        <time>2022-04-05T10:56:18.241Z</time>
      </trkpt>
      <trkpt lat="42.28392" lon="23.12315">
        <ele>578.676328</ele>
        <time>2022-04-05T10:56:20.250Z</time>
      </trkpt>
      <trkpt lat="42.28387" lon="23.12326">
        <ele>578.45714</ele>
        <time>2022-04-05T10:56:22.225Z</time>
      </trkpt>
      <trkpt lat="42.28381" lon="23.12338">
        <ele>578.198181</ele>
        <time>2022-04-05T10:56:24.239Z</time>
      </trkpt>
      <trkpt lat="42.28374" lon="23.12352">
        <ele>577.914174</ele>
        <time>2022-04-05T10:56:26.247Z</time>
      </trkpt>
      <trkpt lat="42.28367" lon="23.12368">
        <ele>577.582556</ele>
        <time>2022-04-05T10:56:28.230Z</time>
      </trkpt>
      <trkpt lat="42.28358" lon="23.12386">
        <ele>577.197285</ele>
        <time>2022-04-05T10:56:30.247Z</time>
      </trkpt>
      <trkpt lat="42.28348" lon="23.12406">
        <ele>576.777364</ele>
        <time>2022-04-05T10:56:32.248Z</time>
      </trkpt>
      <trkpt lat="42.28343" lon="23.12417">
        <ele>576.55542</ele>
        <time>2022-04-05T10:56:33.231Z</time>
      </trkpt>
      <trkpt lat="42.28337" lon="23.12428">
        <ele>576.327807</ele>
        <time>2022-04-05T10:56:34.236Z</time>
      </trkpt>
      <trkpt lat="42.28332" lon="23.12439">
        <ele>576.098734</ele>
        <time>2022-04-05T10:56:35.242Z</time>
      </trkpt>
      <trkpt lat="42.28326" lon="23.12451">
        <ele>575.851516</ele>
        <time>2022-04-05T10:56:36.221Z</time>
      </trkpt>
      <trkpt lat="42.28321" lon="23.12463">
        <ele>575.59992</ele>
        <time>2022-04-05T10:56:37.275Z</time>
      </trkpt>
      <trkpt lat="42.28315" lon="23.12475">
        <ele>575.349065</ele>
        <time>2022-04-05T10:56:38.224Z</time>
      </trkpt>
      <trkpt lat="42.28309" lon="23.12488">
        <ele>575.083789</ele>
        <time>2022-04-05T10:56:39.229Z</time>
      </trkpt>
      <trkpt lat="42.28302" lon="23.12501">
        <ele>574.814546</ele>
        <time>2022-04-05T10:56:40.230Z</time>
      </trkpt>
      <trkpt lat="42.28296" lon="23.12514">
        <ele>574.556333</ele>
        <time>2022-04-05T10:56:41.235Z</time>
      </trkpt>
      <trkpt lat="42.2829" lon="23.12526">
        <ele>574.291409</ele>
        <time>2022-04-05T10:56:42.229Z</time>
      </trkpt>
      <trkpt lat="42.28284" lon="23.12539">
        <ele>574.036086</ele>
        <time>2022-04-05T10:56:43.233Z</time>
      </trkpt>
      <trkpt lat="42.28278" lon="23.1255">
        <ele>573.798842</ele>
        <time>2022-04-05T10:56:44.233Z</time>
      </trkpt>
      <trkpt lat="42.28273" lon="23.12561">
        <ele>573.582641</ele>
        <time>2022-04-05T10:56:45.231Z</time>
      </trkpt>
      <trkpt lat="42.28268" lon="23.12572">
        <ele>573.353856</ele>
        <time>2022-04-05T10:56:46.254Z</time>
      </trkpt>
      <trkpt lat="42.28263" lon="23.12582">
        <ele>573.135966</ele>
        <time>2022-04-05T10:56:47.230Z</time>
      </trkpt>
      <trkpt lat="42.28253" lon="23.12601">
        <ele>572.744818</ele>
        <time>2022-04-05T10:56:49.225Z</time>
      </trkpt>
      <trkpt lat="42.28245" lon="23.12617">
        <ele>572.41204</ele>
        <time>2022-04-05T10:56:51.243Z</time>
      </trkpt>
      <trkpt lat="42.28238" lon="23.1263">
        <ele>572.123891</ele>
        <time>2022-04-05T10:56:53.245Z</time>
      </trkpt>
      <trkpt lat="42.28231" lon="23.12641">
        <ele>571.890782</ele>
        <time>2022-04-05T10:56:55.230Z</time>
      </trkpt>
      <trkpt lat="42.28226" lon="23.1265">
        <ele>571.678357</ele>
        <time>2022-04-05T10:56:57.248Z</time>
      </trkpt>
      <trkpt lat="42.28217" lon="23.12662">
        <ele>571.394148</ele>
        <time>2022-04-05T10:57:00.233Z</time>
      </trkpt>
      <trkpt lat="42.28208" lon="23.12672">
        <ele>571.065801</ele>
        <time>2022-04-05T10:57:03.248Z</time>
      </trkpt>
      <trkpt lat="42.28199" lon="23.12681">
        <ele>570.653688</ele>
        <time>2022-04-05T10:57:06.238Z</time>
      </trkpt>
      <trkpt lat="42.28189" lon="23.1269">
        <ele>570.226699</ele>
        <time>2022-04-05T10:57:09.229Z</time>
      </trkpt>
      <trkpt lat="42.28177" lon="23.12697">
        <ele>569.778686</ele>
        <time>2022-04-05T10:57:12.249Z</time>
      </trkpt>
      <trkpt lat="42.28166" lon="23.12702">
        <ele>569.34483</ele>
        <time>2022-04-05T10:57:15.251Z</time>
      </trkpt>
      <trkpt lat="42.28154" lon="23.12708">
        <ele>568.875035</ele>
        <time>2022-04-05T10:57:18.252Z</time>
      </trkpt>
      <trkpt lat="42.28144" lon="23.12712">
        <ele>568.523288</ele>
        <time>2022-04-05T10:57:20.244Z</time>
      </trkpt>
      <trkpt lat="42.28134" lon="23.12715">
        <ele>568.141087</ele>
        <time>2022-04-05T10:57:22.229Z</time>
      </trkpt>
      <trkpt lat="42.28123" lon="23.12719">
        <ele>567.732378</ele>
        <time>2022-04-05T10:57:24.252Z</time>
      </trkpt>
      <trkpt lat="42.28112" lon="23.12724">
        <ele>567.2976</ele>
        <time>2022-04-05T10:57:26.243Z</time>
      </trkpt>
      <trkpt lat="42.281" lon="23.12729">
        <ele>566.857437</ele>
        <time>2022-04-05T10:57:28.245Z</time>
      </trkpt>
      <trkpt lat="42.28088" lon="23.12734">
        <ele>566.383815</ele>
        <time>2022-04-05T10:57:30.237Z</time>
      </trkpt>
      <trkpt lat="42.28074" lon="23.12739">
        <ele>565.89209</ele>
        <time>2022-04-05T10:57:32.233Z</time>
      </trkpt>
      <trkpt lat="42.28061" lon="23.12744">
        <ele>565.38005</ele>
        <time>2022-04-05T10:57:34.219Z</time>
      </trkpt>
      <trkpt lat="42.28047" lon="23.1275">
        <ele>564.844184</ele>
        <time>2022-04-05T10:57:36.241Z</time>
      </trkpt>
      <trkpt lat="42.28032" lon="23.12755">
        <ele>564.332058</ele>
        <time>2022-04-05T10:57:38.234Z</time>
      </trkpt>
      <trkpt lat="42.28018" lon="23.12761">
        <ele>563.814062</ele>
        <time>2022-04-05T10:57:40.226Z</time>
      </trkpt>
      <trkpt lat="42.28002" lon="23.12768">
        <ele>563.271868</ele>
        <time>2022-04-05T10:57:42.239Z</time>
      </trkpt>
      <trkpt lat="42.27987" lon="23.12774">
        <ele>562.719198</ele>
        <time>2022-04-05T10:57:44.231Z</time>
      </trkpt>
      <trkpt lat="42.27971" lon="23.12781">
        <ele>562.161083</ele>
        <time>2022-04-05T10:57:46.233Z</time>
      </trkpt>
      <trkpt lat="42.27955" lon="23.12787">
        <ele>561.600462</ele>
        <time>2022-04-05T10:57:48.255Z</time>
      </trkpt>
      <trkpt lat="42.2794" lon="23.12793">
        <ele>561.055015</ele>
        <time>2022-04-05T10:57:50.225Z</time>
      </trkpt>
      <trkpt lat="42.27924" lon="23.128">
        <ele>560.501849</ele>
        <time>2022-04-05T10:57:52.263Z</time>
      </trkpt>
      <trkpt lat="42.27909" lon="23.12806">
        <ele>559.962173</ele>
        <time>2022-04-05T10:57:54.239Z</time>
      </trkpt>
      <trkpt lat="42.27895" lon="23.12812">
        <ele>559.446683</ele>
        <time>2022-04-05T10:57:56.236Z</time>
      </trkpt>
      <trkpt lat="42.27881" lon="23.12818">
        <ele>558.964086</ele>
        <time>2022-04-05T10:57:58.242Z</time>
      </trkpt>
      <trkpt lat="42.27868" lon="23.12824">
        <ele>558.607953</ele>
        <time>2022-04-05T10:58:00.231Z</time>
      </trkpt>
      <trkpt lat="42.27855" lon="23.12829">
        <ele>558.582893</ele>
        <time>2022-04-05T10:58:02.251Z</time>
      </trkpt>
      <trkpt lat="42.27843" lon="23.12834">
        <ele>558.557993</ele>
        <time>2022-04-05T10:58:04.257Z</time>
      </trkpt>
      <trkpt lat="42.27831" lon="23.12839">
        <ele>558.534297</ele>
        <time>2022-04-05T10:58:06.237Z</time>
      </trkpt>
      <trkpt lat="42.2782" lon="23.12843">
        <ele>558.512233</ele>
        <time>2022-04-05T10:58:08.228Z</time>
      </trkpt>
      <trkpt lat="42.27809" lon="23.12848">
        <ele>558.490901</ele>
        <time>2022-04-05T10:58:10.239Z</time>
      </trkpt>
      <trkpt lat="42.27799" lon="23.12852">
        <ele>558.471285</ele>
        <time>2022-04-05T10:58:12.234Z</time>
      </trkpt>
      <trkpt lat="42.2779" lon="23.12855">
        <ele>558.45326</ele>
        <time>2022-04-05T10:58:14.245Z</time>
      </trkpt>
      <trkpt lat="42.27778" lon="23.12861">
        <ele>558.428117</ele>
        <time>2022-04-05T10:58:17.242Z</time>
      </trkpt>
      <trkpt lat="42.27766" lon="23.12869">
        <ele>558.4022</ele>
        <time>2022-04-05T10:58:20.240Z</time>
      </trkpt>
      <trkpt lat="42.27755" lon="23.12878">
        <ele>558.377738</ele>
        <time>2022-04-05T10:58:23.235Z</time>
      </trkpt>
      <trkpt lat="42.27745" lon="23.12889">
        <ele>558.353271</ele>
        <time>2022-04-05T10:58:26.223Z</time>
      </trkpt>
      <trkpt lat="42.27735" lon="23.129">
        <ele>558.328349</ele>
        <time>2022-04-05T10:58:29.274Z</time>
      </trkpt>
      <trkpt lat="42.27726" lon="23.12912">
        <ele>558.303959</ele>
        <time>2022-04-05T10:58:32.237Z</time>
      </trkpt>
      <trkpt lat="42.27717" lon="23.12923">
        <ele>558.280657</ele>
        <time>2022-04-05T10:58:35.251Z</time>
      </trkpt>
      <trkpt lat="42.27707" lon="23.12935">
        <ele>558.383712</ele>
        <time>2022-04-05T10:58:38.253Z</time>
      </trkpt>
      <trkpt lat="42.27698" lon="23.12947">
        <ele>558.57405</ele>
        <time>2022-04-05T10:58:41.255Z</time>
      </trkpt>
      <trkpt lat="42.27689" lon="23.12959">
        <ele>558.762578</ele>
        <time>2022-04-05T10:58:44.229Z</time>
      </trkpt>
      <trkpt lat="42.2768" lon="23.1297">
        <ele>558.940846</ele>
        <time>2022-04-05T10:58:47.232Z</time>
      </trkpt>
      <trkpt lat="42.27671" lon="23.12982">
        <ele>559.120517</ele>
        <time>2022-04-05T10:58:50.236Z</time>
      </trkpt>
      <trkpt lat="42.27661" lon="23.12995">
        <ele>559.320097</ele>
        <time>2022-04-05T10:58:53.231Z</time>
      </trkpt>
      <trkpt lat="42.27655" lon="23.13003">
        <ele>559.454738</ele>
        <time>2022-04-05T10:58:55.233Z</time>
      </trkpt>
      <trkpt lat="42.27648" lon="23.13013">
        <ele>559.601973</ele>
        <time>2022-04-05T10:58:57.240Z</time>
      </trkpt>
      <trkpt lat="42.27641" lon="23.13022">
        <ele>559.748238</ele>
        <time>2022-04-05T10:58:59.222Z</time>
      </trkpt>
      <trkpt lat="42.27633" lon="23.13031">
        <ele>559.895535</ele>
        <time>2022-04-05T10:59:01.238Z</time>
      </trkpt>
      <trkpt lat="42.27625" lon="23.13039">
        <ele>560.039145</ele>
        <time>2022-04-05T10:59:03.245Z</time>
      </trkpt>
      <trkpt lat="42.27617" lon="23.13046">
        <ele>560.177877</ele>
        <time>2022-04-05T10:59:05.232Z</time>
      </trkpt>
      <trkpt lat="42.27609" lon="23.13053">
        <ele>560.323288</ele>
        <time>2022-04-05T10:59:07.225Z</time>
      </trkpt>
      <trkpt lat="42.27601" lon="23.13061">
        <ele>560.464443</ele>
        <time>2022-04-05T10:59:09.307Z</time>
      </trkpt>
      <trkpt lat="42.27593" lon="23.13067">
        <ele>560.598453</ele>
        <time>2022-04-05T10:59:11.235Z</time>
      </trkpt>
      <trkpt lat="42.27584" lon="23.13072">
        <ele>560.743551</ele>
        <time>2022-04-05T10:59:13.259Z</time>
      </trkpt>
      <trkpt lat="42.27574" lon="23.13075">
        <ele>560.893987</ele>
        <time>2022-04-05T10:59:15.235Z</time>
      </trkpt>
      <trkpt lat="42.27564" lon="23.13076">
        <ele>561.126083</ele>
        <time>2022-04-05T10:59:17.267Z</time>
      </trkpt>
      <trkpt lat="42.27553" lon="23.13075">
        <ele>561.361636</ele>
        <time>2022-04-05T10:59:19.238Z</time>
      </trkpt>
      <trkpt lat="42.27544" lon="23.13075">
        <ele>561.574116</ele>
        <time>2022-04-05T10:59:21.234Z</time>
      </trkpt>
      <trkpt lat="42.27535" lon="23.13074">
        <ele>561.795824</ele>
        <time>2022-04-05T10:59:23.241Z</time>
      </trkpt>
      <trkpt lat="42.27525" lon="23.13074">
        <ele>562.022071</ele>
        <time>2022-04-05T10:59:25.231Z</time>
      </trkpt>
      <trkpt lat="42.27516" lon="23.13074">
        <ele>562.232139</ele>
        <time>2022-04-05T10:59:27.248Z</time>
      </trkpt>
      <trkpt lat="42.27503" lon="23.13072">
        <ele>562.524993</ele>
        <time>2022-04-05T10:59:30.234Z</time>
      </trkpt>
      <trkpt lat="42.27491" lon="23.13072">
        <ele>562.813545</ele>
        <time>2022-04-05T10:59:33.223Z</time>
      </trkpt>
      <trkpt lat="42.27482" lon="23.13072">
        <ele>563.021326</ele>
        <time>2022-04-05T10:59:35.233Z</time>
      </trkpt>
      <trkpt lat="42.27469" lon="23.13071">
        <ele>563.303077</ele>
        <time>2022-04-05T10:59:38.241Z</time>
      </trkpt>
      <trkpt lat="42.2746" lon="23.13071">
        <ele>563.522611</ele>
        <time>2022-04-05T10:59:41.226Z</time>
      </trkpt>
      <trkpt lat="42.27449" lon="23.1307">
        <ele>563.779205</ele>
        <time>2022-04-05T10:59:45.235Z</time>
      </trkpt>
      <trkpt lat="42.27437" lon="23.1307">
        <ele>564.049284</ele>
        <time>2022-04-05T10:59:49.294Z</time>
      </trkpt>
      <trkpt lat="42.27427" lon="23.1307">
        <ele>564.287053</ele>
        <time>2022-04-05T10:59:52.244Z</time>
      </trkpt>
      <trkpt lat="42.27415" lon="23.1307">
        <ele>564.554824</ele>
        <time>2022-04-05T10:59:55.223Z</time>
      </trkpt>
      <trkpt lat="42.27404" lon="23.13069">
        <ele>564.821213</ele>
        <time>2022-04-05T10:59:58.218Z</time>
      </trkpt>
      <trkpt lat="42.27394" lon="23.13068">
        <ele>565.054759</ele>
        <time>2022-04-05T11:00:01.219Z</time>
      </trkpt>
      <trkpt lat="42.27383" lon="23.13067">
        <ele>564.871783</ele>
        <time>2022-04-05T11:00:04.250Z</time>
      </trkpt>
      <trkpt lat="42.27373" lon="23.13066">
        <ele>564.679693</ele>
        <time>2022-04-05T11:00:07.267Z</time>
      </trkpt>
      <trkpt lat="42.27363" lon="23.13066">
        <ele>564.487885</ele>
        <time>2022-04-05T11:00:10.229Z</time>
      </trkpt>
      <trkpt lat="42.27353" lon="23.13066">
        <ele>564.307493</ele>
        <time>2022-04-05T11:00:13.264Z</time>
      </trkpt>
      <trkpt lat="42.27343" lon="23.13065">
        <ele>564.100238</ele>
        <time>2022-04-05T11:00:17.228Z</time>
      </trkpt>
      <trkpt lat="42.27333" lon="23.13063">
        <ele>563.925413</ele>
        <time>2022-04-05T11:00:20.229Z</time>
      </trkpt>
      <trkpt lat="42.27329" lon="23.13052">
        <ele>563.751961</ele>
        <time>2022-04-05T11:00:23.216Z</time>
      </trkpt>
      <trkpt lat="42.2733" lon="23.1304">
        <ele>563.574936</ele>
        <time>2022-04-05T11:00:26.251Z</time>
      </trkpt>
      <trkpt lat="42.27323" lon="23.1303">
        <ele>563.396511</ele>
        <time>2022-04-05T11:00:30.235Z</time>
      </trkpt>
      <trkpt lat="42.27314" lon="23.13028">
        <ele>563.219809</ele>
        <time>2022-04-05T11:00:37.239Z</time>
      </trkpt>
      <trkpt lat="42.27309" lon="23.13097">
        <ele>562.25893</ele>
        <time>2022-04-05T11:10:08.259Z</time>
      </trkpt>
      <trkpt lat="42.27311" lon="23.13055">
        <ele>561.677593</ele>
        <time>2022-04-05T11:10:09.253Z</time>
      </trkpt>
      <trkpt lat="42.27327" lon="23.13048">
        <ele>562.230545</ele>
        <time>2022-04-05T11:14:40.244Z</time>
      </trkpt>
      <trkpt lat="42.27331" lon="23.1306">
        <ele>562.582574</ele>
        <time>2022-04-05T11:14:49.245Z</time>
      </trkpt>
      <trkpt lat="42.27341" lon="23.13077">
        <ele>563.187965</ele>
        <time>2022-04-05T11:15:11.272Z</time>
      </trkpt>
      <trkpt lat="42.27352" lon="23.13077">
        <ele>563.608623</ele>
        <time>2022-04-05T11:15:15.209Z</time>
      </trkpt>
      <trkpt lat="42.27361" lon="23.13083">
        <ele>563.968671</ele>
        <time>2022-04-05T11:15:19.220Z</time>
      </trkpt>
      <trkpt lat="42.27359" lon="23.13098">
        <ele>564.403455</ele>
        <time>2022-04-05T11:15:23.240Z</time>
      </trkpt>
      <trkpt lat="42.27355" lon="23.13111">
        <ele>564.782645</ele>
        <time>2022-04-05T11:15:26.240Z</time>
      </trkpt>
      <trkpt lat="42.27351" lon="23.13123">
        <ele>565.132543</ele>
        <time>2022-04-05T11:15:29.248Z</time>
      </trkpt>
      <trkpt lat="42.27348" lon="23.13136">
        <ele>565.513164</ele>
        <time>2022-04-05T11:15:32.258Z</time>
      </trkpt>
      <trkpt lat="42.27345" lon="23.13148">
        <ele>565.884466</ele>
        <time>2022-04-05T11:15:35.260Z</time>
      </trkpt>
      <trkpt lat="42.2734" lon="23.1316">
        <ele>566.260998</ele>
        <time>2022-04-05T11:15:38.249Z</time>
      </trkpt>
      <trkpt lat="42.27337" lon="23.13173">
        <ele>566.626492</ele>
        <time>2022-04-05T11:15:41.245Z</time>
      </trkpt>
      <trkpt lat="42.27335" lon="23.13184">
        <ele>566.964703</ele>
        <time>2022-04-05T11:15:44.246Z</time>
      </trkpt>
      <trkpt lat="42.27332" lon="23.132">
        <ele>567.416507</ele>
        <time>2022-04-05T11:15:48.289Z</time>
      </trkpt>
      <trkpt lat="42.27328" lon="23.13213">
        <ele>567.78781</ele>
        <time>2022-04-05T11:15:51.235Z</time>
      </trkpt>
      <trkpt lat="42.27326" lon="23.13225">
        <ele>568.150226</ele>
        <time>2022-04-05T11:15:54.235Z</time>
      </trkpt>
      <trkpt lat="42.27322" lon="23.13237">
        <ele>568.47887</ele>
        <time>2022-04-05T11:15:57.234Z</time>
      </trkpt>
      <trkpt lat="42.2732" lon="23.13249">
        <ele>568.757526</ele>
        <time>2022-04-05T11:16:00.242Z</time>
      </trkpt>
      <trkpt lat="42.27317" lon="23.13261">
        <ele>569.035193</ele>
        <time>2022-04-05T11:16:03.258Z</time>
      </trkpt>
      <trkpt lat="42.27314" lon="23.13273">
        <ele>569.307764</ele>
        <time>2022-04-05T11:16:06.237Z</time>
      </trkpt>
      <trkpt lat="42.27311" lon="23.13284">
        <ele>569.575143</ele>
        <time>2022-04-05T11:16:09.255Z</time>
      </trkpt>
      <trkpt lat="42.27309" lon="23.13296">
        <ele>569.844766</ele>
        <time>2022-04-05T11:16:12.228Z</time>
      </trkpt>
      <trkpt lat="42.27307" lon="23.13309">
        <ele>570.116275</ele>
        <time>2022-04-05T11:16:15.250Z</time>
      </trkpt>
      <trkpt lat="42.27305" lon="23.13322">
        <ele>570.403262</ele>
        <time>2022-04-05T11:16:18.247Z</time>
      </trkpt>
      <trkpt lat="42.27301" lon="23.13337">
        <ele>570.753626</ele>
        <time>2022-04-05T11:16:22.234Z</time>
      </trkpt>
      <trkpt lat="42.27298" lon="23.13348">
        <ele>571.023451</ele>
        <time>2022-04-05T11:16:25.244Z</time>
      </trkpt>
      <trkpt lat="42.27295" lon="23.13363">
        <ele>571.351583</ele>
        <time>2022-04-05T11:16:29.238Z</time>
      </trkpt>
      <trkpt lat="42.27295" lon="23.13379">
        <ele>571.699133</ele>
        <time>2022-04-05T11:16:33.234Z</time>
      </trkpt>
      <trkpt lat="42.27294" lon="23.13394">
        <ele>572.026252</ele>
        <time>2022-04-05T11:16:37.236Z</time>
      </trkpt>
      <trkpt lat="42.27294" lon="23.1341">
        <ele>572.384634</ele>
        <time>2022-04-05T11:16:41.228Z</time>
      </trkpt>
      <trkpt lat="42.27295" lon="23.13423">
        <ele>572.662845</ele>
        <time>2022-04-05T11:16:44.239Z</time>
      </trkpt>
      <trkpt lat="42.27295" lon="23.13435">
        <ele>572.93375</ele>
        <time>2022-04-05T11:16:47.249Z</time>
      </trkpt>
      <trkpt lat="42.27296" lon="23.13448">
        <ele>573.206945</ele>
        <time>2022-04-05T11:16:50.244Z</time>
      </trkpt>
      <trkpt lat="42.27296" lon="23.13463">
        <ele>573.545556</ele>
        <time>2022-04-05T11:16:54.246Z</time>
      </trkpt>
      <trkpt lat="42.27296" lon="23.13478">
        <ele>573.948612</ele>
        <time>2022-04-05T11:16:58.260Z</time>
      </trkpt>
      <trkpt lat="42.27297" lon="23.13491">
        <ele>574.401766</ele>
        <time>2022-04-05T11:17:02.282Z</time>
      </trkpt>
      <trkpt lat="42.27296" lon="23.13504">
        <ele>574.84673</ele>
        <time>2022-04-05T11:17:06.252Z</time>
      </trkpt>
      <trkpt lat="42.27296" lon="23.13519">
        <ele>575.368078</ele>
        <time>2022-04-05T11:17:10.252Z</time>
      </trkpt>
      <trkpt lat="42.27296" lon="23.13532">
        <ele>575.780925</ele>
        <time>2022-04-05T11:17:13.253Z</time>
      </trkpt>
      <trkpt lat="42.27293" lon="23.13547">
        <ele>576.309715</ele>
        <time>2022-04-05T11:17:17.256Z</time>
      </trkpt>
      <trkpt lat="42.2729" lon="23.13561">
        <ele>576.806736</ele>
        <time>2022-04-05T11:17:21.226Z</time>
      </trkpt>
      <trkpt lat="42.27289" lon="23.13576">
        <ele>577.316629</ele>
        <time>2022-04-05T11:17:25.283Z</time>
      </trkpt>
      <trkpt lat="42.27286" lon="23.1359">
        <ele>577.804959</ele>
        <time>2022-04-05T11:17:29.242Z</time>
      </trkpt>
      <trkpt lat="42.27285" lon="23.13605">
        <ele>578.325585</ele>
        <time>2022-04-05T11:17:33.242Z</time>
      </trkpt>
      <trkpt lat="42.2728" lon="23.13618">
        <ele>578.816001</ele>
        <time>2022-04-05T11:17:37.250Z</time>
      </trkpt>
      <trkpt lat="42.27275" lon="23.13631">
        <ele>579.293613</ele>
        <time>2022-04-05T11:17:41.229Z</time>
      </trkpt>
      <trkpt lat="42.27269" lon="23.1364">
        <ele>579.709614</ele>
        <time>2022-04-05T11:17:44.245Z</time>
      </trkpt>
      <trkpt lat="42.27265" lon="23.13653">
        <ele>580.178903</ele>
        <time>2022-04-05T11:17:48.285Z</time>
      </trkpt>
      <trkpt lat="42.2726" lon="23.13664">
        <ele>580.619541</ele>
        <time>2022-04-05T11:17:51.241Z</time>
      </trkpt>
      <trkpt lat="42.27253" lon="23.13674">
        <ele>581.081985</ele>
        <time>2022-04-05T11:17:54.237Z</time>
      </trkpt>
      <trkpt lat="42.27245" lon="23.13684">
        <ele>581.569181</ele>
        <time>2022-04-05T11:17:57.255Z</time>
      </trkpt>
      <trkpt lat="42.27237" lon="23.13695">
        <ele>582.060001</ele>
        <time>2022-04-05T11:18:01.228Z</time>
      </trkpt>
      <trkpt lat="42.27232" lon="23.13706">
        <ele>582.408839</ele>
        <time>2022-04-05T11:18:04.257Z</time>
      </trkpt>
      <trkpt lat="42.27225" lon="23.13717">
        <ele>582.788511</ele>
        <time>2022-04-05T11:18:07.259Z</time>
      </trkpt>
      <trkpt lat="42.27219" lon="23.13729">
        <ele>583.20319</ele>
        <time>2022-04-05T11:18:11.247Z</time>
      </trkpt>
      <trkpt lat="42.27213" lon="23.1374">
        <ele>583.576563</ele>
        <time>2022-04-05T11:18:15.257Z</time>
      </trkpt>
      <trkpt lat="42.27208" lon="23.13751">
        <ele>583.929384</ele>
        <time>2022-04-05T11:18:19.227Z</time>
      </trkpt>
      <trkpt lat="42.27202" lon="23.13764">
        <ele>584.339211</ele>
        <time>2022-04-05T11:18:23.229Z</time>
      </trkpt>
      <trkpt lat="42.27196" lon="23.13777">
        <ele>584.764563</ele>
        <time>2022-04-05T11:18:27.277Z</time>
      </trkpt>
      <trkpt lat="42.27191" lon="23.13791">
        <ele>585.192655</ele>
        <time>2022-04-05T11:18:31.241Z</time>
      </trkpt>
      <trkpt lat="42.27186" lon="23.13802">
        <ele>585.524095</ele>
        <time>2022-04-05T11:18:34.239Z</time>
      </trkpt>
      <trkpt lat="42.27182" lon="23.13813">
        <ele>585.86383</ele>
        <time>2022-04-05T11:18:38.235Z</time>
      </trkpt>
      <trkpt lat="42.27178" lon="23.13824">
        <ele>586.19473</ele>
        <time>2022-04-05T11:18:42.237Z</time>
      </trkpt>
      <trkpt lat="42.27175" lon="23.13837">
        <ele>586.550502</ele>
        <time>2022-04-05T11:18:46.248Z</time>
      </trkpt>
      <trkpt lat="42.27172" lon="23.1385">
        <ele>586.922078</ele>
        <time>2022-04-05T11:18:50.242Z</time>
      </trkpt>
      <trkpt lat="42.27169" lon="23.13862">
        <ele>587.269017</ele>
        <time>2022-04-05T11:18:54.224Z</time>
      </trkpt>
      <trkpt lat="42.27166" lon="23.13874">
        <ele>587.6163</ele>
        <time>2022-04-05T11:18:58.241Z</time>
      </trkpt>
      <trkpt lat="42.27163" lon="23.13886">
        <ele>587.95392</ele>
        <time>2022-04-05T11:19:02.236Z</time>
      </trkpt>
      <trkpt lat="42.2716" lon="23.13897">
        <ele>588.283432</ele>
        <time>2022-04-05T11:19:06.247Z</time>
      </trkpt>
      <trkpt lat="42.27156" lon="23.13911">
        <ele>588.550021</ele>
        <time>2022-04-05T11:19:11.270Z</time>
      </trkpt>
      <trkpt lat="42.27153" lon="23.13922">
        <ele>588.602198</ele>
        <time>2022-04-05T11:19:15.237Z</time>
      </trkpt>
      <trkpt lat="42.27149" lon="23.13933">
        <ele>588.653932</ele>
        <time>2022-04-05T11:19:19.250Z</time>
      </trkpt>
      <trkpt lat="42.27146" lon="23.13947">
        <ele>588.713</ele>
        <time>2022-04-05T11:19:23.238Z</time>
      </trkpt>
      <trkpt lat="42.27144" lon="23.1396">
        <ele>588.773166</ele>
        <time>2022-04-05T11:19:27.233Z</time>
      </trkpt>
      <trkpt lat="42.27141" lon="23.13973">
        <ele>588.829853</ele>
        <time>2022-04-05T11:19:31.253Z</time>
      </trkpt>
      <trkpt lat="42.27139" lon="23.13986">
        <ele>588.884265</ele>
        <time>2022-04-05T11:19:35.273Z</time>
      </trkpt>
      <trkpt lat="42.27135" lon="23.13997">
        <ele>588.936377</ele>
        <time>2022-04-05T11:19:39.241Z</time>
      </trkpt>
      <trkpt lat="42.27131" lon="23.14009">
        <ele>588.991293</ele>
        <time>2022-04-05T11:19:44.237Z</time>
      </trkpt>
      <trkpt lat="42.27128" lon="23.1402">
        <ele>589.042814</ele>
        <time>2022-04-05T11:19:48.252Z</time>
      </trkpt>
      <trkpt lat="42.27127" lon="23.14032">
        <ele>589.095233</ele>
        <time>2022-04-05T11:19:54.234Z</time>
      </trkpt>
      <trkpt lat="42.27129" lon="23.14046">
        <ele>589.153827</ele>
        <time>2022-04-05T11:20:03.220Z</time>
      </trkpt>
      <trkpt lat="42.27131" lon="23.14058">
        <ele>589.206822</ele>
        <time>2022-04-05T11:20:10.232Z</time>
      </trkpt>
      <trkpt lat="42.27134" lon="23.1407">
        <ele>589.259738</ele>
        <time>2022-04-05T11:20:17.251Z</time>
      </trkpt>
      <trkpt lat="42.27137" lon="23.14082">
        <ele>589.313505</ele>
        <time>2022-04-05T11:20:24.256Z</time>
      </trkpt>
      <trkpt lat="42.2714" lon="23.14095">
        <ele>589.371428</ele>
        <time>2022-04-05T11:20:32.246Z</time>
      </trkpt>
      <trkpt lat="42.27142" lon="23.14107">
        <ele>589.422723</ele>
        <time>2022-04-05T11:20:37.250Z</time>
      </trkpt>
      <trkpt lat="42.27139" lon="23.14118">
        <ele>589.47485</ele>
        <time>2022-04-05T11:20:43.240Z</time>
      </trkpt>
      <trkpt lat="42.27135" lon="23.1413">
        <ele>589.528741</ele>
        <time>2022-04-05T11:20:48.253Z</time>
      </trkpt>
      <trkpt lat="42.27131" lon="23.14141">
        <ele>589.652572</ele>
        <time>2022-04-05T11:20:53.270Z</time>
      </trkpt>
      <trkpt lat="42.27126" lon="23.14153">
        <ele>589.845378</ele>
        <time>2022-04-05T11:20:58.258Z</time>
      </trkpt>
      <trkpt lat="42.27122" lon="23.14165">
        <ele>590.045804</ele>
        <time>2022-04-05T11:21:03.233Z</time>
      </trkpt>
      <trkpt lat="42.27118" lon="23.14178">
        <ele>590.24377</ele>
        <time>2022-04-05T11:21:08.254Z</time>
      </trkpt>
      <trkpt lat="42.27114" lon="23.14189">
        <ele>590.424756</ele>
        <time>2022-04-05T11:21:13.244Z</time>
      </trkpt>
      <trkpt lat="42.27111" lon="23.14202">
        <ele>590.627786</ele>
        <time>2022-04-05T11:21:18.252Z</time>
      </trkpt>
      <trkpt lat="42.27108" lon="23.14214">
        <ele>590.821331</ele>
        <time>2022-04-05T11:21:23.243Z</time>
      </trkpt>
      <trkpt lat="42.27104" lon="23.14227">
        <ele>591.028496</ele>
        <time>2022-04-05T11:21:28.243Z</time>
      </trkpt>
      <trkpt lat="42.27102" lon="23.14241">
        <ele>591.235536</ele>
        <time>2022-04-05T11:21:33.248Z</time>
      </trkpt>
      <trkpt lat="42.27099" lon="23.14254">
        <ele>591.439709</ele>
        <time>2022-04-05T11:21:38.297Z</time>
      </trkpt>
      <trkpt lat="42.27097" lon="23.14269">
        <ele>591.662051</ele>
        <time>2022-04-05T11:21:43.259Z</time>
      </trkpt>
      <trkpt lat="42.27094" lon="23.14283">
        <ele>591.868164</ele>
        <time>2022-04-05T11:21:48.246Z</time>
      </trkpt>
      <trkpt lat="42.27093" lon="23.14298">
        <ele>592.099509</ele>
        <time>2022-04-05T11:21:53.250Z</time>
      </trkpt>
      <trkpt lat="42.27092" lon="23.14312">
        <ele>592.298492</ele>
        <time>2022-04-05T11:21:57.262Z</time>
      </trkpt>
      <trkpt lat="42.2709" lon="23.14324">
        <ele>592.487858</ele>
        <time>2022-04-05T11:22:01.231Z</time>
      </trkpt>
      <trkpt lat="42.27088" lon="23.14336">
        <ele>592.669462</ele>
        <time>2022-04-05T11:22:05.248Z</time>
      </trkpt>
      <trkpt lat="42.27086" lon="23.14349">
        <ele>592.859767</ele>
        <time>2022-04-05T11:22:09.252Z</time>
      </trkpt>
      <trkpt lat="42.27083" lon="23.14362">
        <ele>593.06068</ele>
        <time>2022-04-05T11:22:13.251Z</time>
      </trkpt>
      <trkpt lat="42.27081" lon="23.14375">
        <ele>593.212448</ele>
        <time>2022-04-05T11:22:17.245Z</time>
      </trkpt>
      <trkpt lat="42.27078" lon="23.14388">
        <ele>593.331515</ele>
        <time>2022-04-05T11:22:22.231Z</time>
      </trkpt>
      <trkpt lat="42.27076" lon="23.14402">
        <ele>593.457408</ele>
        <time>2022-04-05T11:22:27.229Z</time>
      </trkpt>
      <trkpt lat="42.27075" lon="23.14416">
        <ele>593.574314</ele>
        <time>2022-04-05T11:22:31.248Z</time>
      </trkpt>
      <trkpt lat="42.27073" lon="23.1443">
        <ele>593.698341</ele>
        <time>2022-04-05T11:22:35.252Z</time>
      </trkpt>
      <trkpt lat="42.27071" lon="23.14444">
        <ele>593.822471</ele>
        <time>2022-04-05T11:22:39.246Z</time>
      </trkpt>
      <trkpt lat="42.27069" lon="23.14458">
        <ele>593.943107</ele>
        <time>2022-04-05T11:22:43.247Z</time>
      </trkpt>
      <trkpt lat="42.27067" lon="23.14471">
        <ele>594.053937</ele>
        <time>2022-04-05T11:22:47.239Z</time>
      </trkpt>
      <trkpt lat="42.27065" lon="23.14483">
        <ele>594.162679</ele>
        <time>2022-04-05T11:22:51.256Z</time>
      </trkpt>
      <trkpt lat="42.27064" lon="23.14496">
        <ele>594.270974</ele>
        <time>2022-04-05T11:22:55.267Z</time>
      </trkpt>
      <trkpt lat="42.27063" lon="23.14509">
        <ele>594.387274</ele>
        <time>2022-04-05T11:22:59.241Z</time>
      </trkpt>
      <trkpt lat="42.27061" lon="23.14522">
        <ele>594.500119</ele>
        <time>2022-04-05T11:23:03.251Z</time>
      </trkpt>
      <trkpt lat="42.27058" lon="23.14535">
        <ele>594.613916</ele>
        <time>2022-04-05T11:23:07.227Z</time>
      </trkpt>
      <trkpt lat="42.27056" lon="23.14548">
        <ele>594.733716</ele>
        <time>2022-04-05T11:23:11.239Z</time>
      </trkpt>
      <trkpt lat="42.27052" lon="23.14562">
        <ele>594.860029</ele>
        <time>2022-04-05T11:23:15.258Z</time>
      </trkpt>
      <trkpt lat="42.27049" lon="23.14577">
        <ele>594.988321</ele>
        <time>2022-04-05T11:23:19.295Z</time>
      </trkpt>
      <trkpt lat="42.27045" lon="23.14589">
        <ele>595.105163</ele>
        <time>2022-04-05T11:23:23.238Z</time>
      </trkpt>
      <trkpt lat="42.27041" lon="23.14602">
        <ele>595.226975</ele>
        <time>2022-04-05T11:23:27.226Z</time>
      </trkpt>
      <trkpt lat="42.27037" lon="23.14615">
        <ele>595.677705</ele>
        <time>2022-04-05T11:23:31.295Z</time>
      </trkpt>
      <trkpt lat="42.27032" lon="23.14628">
        <ele>596.14746</ele>
        <time>2022-04-05T11:23:35.243Z</time>
      </trkpt>
      <trkpt lat="42.27026" lon="23.1464">
        <ele>596.607148</ele>
        <time>2022-04-05T11:23:39.241Z</time>
      </trkpt>
      <trkpt lat="42.27021" lon="23.14652">
        <ele>597.054308</ele>
        <time>2022-04-05T11:23:43.245Z</time>
      </trkpt>
      <trkpt lat="42.27014" lon="23.14664">
        <ele>597.544396</ele>
        <time>2022-04-05T11:23:47.273Z</time>
      </trkpt>
      <trkpt lat="42.27008" lon="23.14675">
        <ele>597.987997</ele>
        <time>2022-04-05T11:23:51.255Z</time>
      </trkpt>
      <trkpt lat="42.27003" lon="23.14685">
        <ele>598.401995</ele>
        <time>2022-04-05T11:23:55.242Z</time>
      </trkpt>
      <trkpt lat="42.26997" lon="23.14697">
        <ele>598.866204</ele>
        <time>2022-04-05T11:24:00.240Z</time>
      </trkpt>
      <trkpt lat="42.26991" lon="23.14706">
        <ele>599.284978</ele>
        <time>2022-04-05T11:24:04.241Z</time>
      </trkpt>
      <trkpt lat="42.26985" lon="23.14718">
        <ele>599.727909</ele>
        <time>2022-04-05T11:24:08.218Z</time>
      </trkpt>
      <trkpt lat="42.26978" lon="23.1473">
        <ele>600.212662</ele>
        <time>2022-04-05T11:24:12.248Z</time>
      </trkpt>
      <trkpt lat="42.26973" lon="23.14741">
        <ele>600.674731</ele>
        <time>2022-04-05T11:24:16.252Z</time>
      </trkpt>
      <trkpt lat="42.26966" lon="23.14752">
        <ele>601.112603</ele>
        <time>2022-04-05T11:24:20.278Z</time>
      </trkpt>
      <trkpt lat="42.26961" lon="23.14763">
        <ele>601.558203</ele>
        <time>2022-04-05T11:24:24.229Z</time>
      </trkpt>
      <trkpt lat="42.26954" lon="23.14774">
        <ele>601.998629</ele>
        <time>2022-04-05T11:24:28.238Z</time>
      </trkpt>
      <trkpt lat="42.26947" lon="23.14784">
        <ele>602.452088</ele>
        <time>2022-04-05T11:24:32.239Z</time>
      </trkpt>
      <trkpt lat="42.26942" lon="23.14794">
        <ele>602.860901</ele>
        <time>2022-04-05T11:24:36.220Z</time>
      </trkpt>
      <trkpt lat="42.26936" lon="23.14806">
        <ele>603.213273</ele>
        <time>2022-04-05T11:24:41.260Z</time>
      </trkpt>
      <trkpt lat="42.2693" lon="23.14818">
        <ele>603.355656</ele>
        <time>2022-04-05T11:24:46.258Z</time>
      </trkpt>
      <trkpt lat="42.26925" lon="23.14829">
        <ele>603.484638</ele>
        <time>2022-04-05T11:24:50.256Z</time>
      </trkpt>
      <trkpt lat="42.26919" lon="23.14841">
        <ele>603.631888</ele>
        <time>2022-04-05T11:24:55.241Z</time>
      </trkpt>
      <trkpt lat="42.26915" lon="23.14854">
        <ele>603.780892</ele>
        <time>2022-04-05T11:25:00.239Z</time>
      </trkpt>
      <trkpt lat="42.2691" lon="23.14868">
        <ele>603.928654</ele>
        <time>2022-04-05T11:25:05.253Z</time>
      </trkpt>
      <trkpt lat="42.26905" lon="23.1488">
        <ele>604.07553</ele>
        <time>2022-04-05T11:25:10.293Z</time>
      </trkpt>
      <trkpt lat="42.269" lon="23.14891">
        <ele>604.203657</ele>
        <time>2022-04-05T11:25:14.234Z</time>
      </trkpt>
      <trkpt lat="42.26895" lon="23.14902">
        <ele>604.334213</ele>
        <time>2022-04-05T11:25:18.238Z</time>
      </trkpt>
      <trkpt lat="42.2689" lon="23.14914">
        <ele>604.473452</ele>
        <time>2022-04-05T11:25:22.240Z</time>
      </trkpt>
      <trkpt lat="42.26885" lon="23.14927">
        <ele>604.619719</ele>
        <time>2022-04-05T11:25:26.253Z</time>
      </trkpt>
      <trkpt lat="42.26879" lon="23.1494">
        <ele>604.768546</ele>
        <time>2022-04-05T11:25:30.249Z</time>
      </trkpt>
      <trkpt lat="42.26874" lon="23.14951">
        <ele>604.907083</ele>
        <time>2022-04-05T11:25:34.295Z</time>
      </trkpt>
      <trkpt lat="42.2687" lon="23.14963">
        <ele>605.035831</ele>
        <time>2022-04-05T11:25:38.274Z</time>
      </trkpt>
      <trkpt lat="42.26867" lon="23.14976">
        <ele>605.177738</ele>
        <time>2022-04-05T11:25:43.241Z</time>
      </trkpt>
      <trkpt lat="42.26862" lon="23.1499">
        <ele>605.332137</ele>
        <time>2022-04-05T11:25:48.244Z</time>
      </trkpt>
      <trkpt lat="42.26857" lon="23.15003">
        <ele>605.478174</ele>
        <time>2022-04-05T11:25:52.245Z</time>
      </trkpt>
      <trkpt lat="42.26852" lon="23.15016">
        <ele>605.648149</ele>
        <time>2022-04-05T11:25:56.248Z</time>
      </trkpt>
      <trkpt lat="42.26847" lon="23.15028">
        <ele>605.997471</ele>
        <time>2022-04-05T11:26:00.232Z</time>
      </trkpt>
      <trkpt lat="42.26842" lon="23.15041">
        <ele>606.364597</ele>
        <time>2022-04-05T11:26:04.252Z</time>
      </trkpt>
      <trkpt lat="42.26837" lon="23.15052">
        <ele>606.717873</ele>
        <time>2022-04-05T11:26:08.278Z</time>
      </trkpt>
      <trkpt lat="42.26832" lon="23.15065">
        <ele>607.064157</ele>
        <time>2022-04-05T11:26:12.256Z</time>
      </trkpt>
      <trkpt lat="42.26828" lon="23.15076">
        <ele>607.397372</ele>
        <time>2022-04-05T11:26:16.255Z</time>
      </trkpt>
      <trkpt lat="42.26823" lon="23.1509">
        <ele>607.784841</ele>
        <time>2022-04-05T11:26:21.240Z</time>
      </trkpt>
      <trkpt lat="42.2682" lon="23.15102">
        <ele>608.118092</ele>
        <time>2022-04-05T11:26:25.241Z</time>
      </trkpt>
      <trkpt lat="42.26815" lon="23.15114">
        <ele>608.454516</ele>
        <time>2022-04-05T11:26:29.260Z</time>
      </trkpt>
      <trkpt lat="42.2681" lon="23.15125">
        <ele>608.788887</ele>
        <time>2022-04-05T11:26:33.235Z</time>
      </trkpt>
      <trkpt lat="42.26805" lon="23.15137">
        <ele>609.128229</ele>
        <time>2022-04-05T11:26:37.255Z</time>
      </trkpt>
      <trkpt lat="42.26802" lon="23.15148">
        <ele>609.448788</ele>
        <time>2022-04-05T11:26:41.245Z</time>
      </trkpt>
      <trkpt lat="42.26796" lon="23.15161">
        <ele>609.832864</ele>
        <time>2022-04-05T11:26:46.247Z</time>
      </trkpt>
      <trkpt lat="42.26791" lon="23.15172">
        <ele>610.171624</ele>
        <time>2022-04-05T11:26:50.235Z</time>
      </trkpt>
      <trkpt lat="42.26787" lon="23.15184">
        <ele>610.502552</ele>
        <time>2022-04-05T11:26:54.244Z</time>
      </trkpt>
      <trkpt lat="42.26783" lon="23.15196">
        <ele>610.844901</ele>
        <time>2022-04-05T11:26:58.243Z</time>
      </trkpt>
      <trkpt lat="42.26778" lon="23.15207">
        <ele>611.173547</ele>
        <time>2022-04-05T11:27:02.228Z</time>
      </trkpt>
      <trkpt lat="42.26772" lon="23.15219">
        <ele>611.531894</ele>
        <time>2022-04-05T11:27:07.261Z</time>
      </trkpt>
      <trkpt lat="42.26768" lon="23.15233">
        <ele>612.020909</ele>
        <time>2022-04-05T11:27:12.245Z</time>
      </trkpt>
      <trkpt lat="42.26764" lon="23.15245">
        <ele>612.751033</ele>
        <time>2022-04-05T11:27:16.251Z</time>
      </trkpt>
      <trkpt lat="42.2676" lon="23.15256">
        <ele>613.430851</ele>
        <time>2022-04-05T11:27:20.282Z</time>
      </trkpt>
      <trkpt lat="42.26756" lon="23.15269">
        <ele>614.251899</ele>
        <time>2022-04-05T11:27:25.246Z</time>
      </trkpt>
      <trkpt lat="42.26752" lon="23.15282">
        <ele>615.034094</ele>
        <time>2022-04-05T11:27:30.288Z</time>
      </trkpt>
      <trkpt lat="42.26747" lon="23.15293">
        <ele>615.737308</ele>
        <time>2022-04-05T11:27:34.253Z</time>
      </trkpt>
      <trkpt lat="42.26742" lon="23.15304">
        <ele>616.468352</ele>
        <time>2022-04-05T11:27:38.253Z</time>
      </trkpt>
      <trkpt lat="42.26737" lon="23.15316">
        <ele>617.242351</ele>
        <time>2022-04-05T11:27:43.251Z</time>
      </trkpt>
      <trkpt lat="42.26735" lon="23.15331">
        <ele>618.107336</ele>
        <time>2022-04-05T11:27:48.295Z</time>
      </trkpt>
      <trkpt lat="42.26731" lon="23.15344">
        <ele>618.861345</ele>
        <time>2022-04-05T11:27:52.253Z</time>
      </trkpt>
      <trkpt lat="42.26728" lon="23.15355">
        <ele>619.557715</ele>
        <time>2022-04-05T11:27:56.235Z</time>
      </trkpt>
      <trkpt lat="42.26725" lon="23.15368">
        <ele>620.30359</ele>
        <time>2022-04-05T11:28:00.243Z</time>
      </trkpt>
      <trkpt lat="42.26722" lon="23.1538">
        <ele>621.030802</ele>
        <time>2022-04-05T11:28:04.240Z</time>
      </trkpt>
      <trkpt lat="42.26718" lon="23.15392">
        <ele>621.719834</ele>
        <time>2022-04-05T11:28:08.254Z</time>
      </trkpt>
      <trkpt lat="42.26716" lon="23.15403">
        <ele>622.405219</ele>
        <time>2022-04-05T11:28:12.253Z</time>
      </trkpt>
      <trkpt lat="42.26714" lon="23.15415">
        <ele>623.08682</ele>
        <time>2022-04-05T11:28:16.275Z</time>
      </trkpt>
      <trkpt lat="42.26711" lon="23.15427">
        <ele>623.809219</ele>
        <time>2022-04-05T11:28:20.243Z</time>
      </trkpt>
      <trkpt lat="42.26708" lon="23.1544">
        <ele>624.576162</ele>
        <time>2022-04-05T11:28:24.242Z</time>
      </trkpt>
      <trkpt lat="42.26704" lon="23.15453">
        <ele>625.330768</ele>
        <time>2022-04-05T11:28:29.256Z</time>
      </trkpt>
      <trkpt lat="42.26701" lon="23.15466">
        <ele>625.422084</ele>
        <time>2022-04-05T11:28:34.282Z</time>
      </trkpt>
      <trkpt lat="42.26699" lon="23.15479">
        <ele>625.407114</ele>
        <time>2022-04-05T11:28:38.238Z</time>
      </trkpt>
      <trkpt lat="42.26696" lon="23.15491">
        <ele>625.392199</ele>
        <time>2022-04-05T11:28:42.253Z</time>
      </trkpt>
      <trkpt lat="42.26693" lon="23.15504">
        <ele>625.377328</ele>
        <time>2022-04-05T11:28:46.252Z</time>
      </trkpt>
      <trkpt lat="42.2669" lon="23.15515">
        <ele>625.362856</ele>
        <time>2022-04-05T11:28:50.232Z</time>
      </trkpt>
      <trkpt lat="42.26687" lon="23.15527">
        <ele>625.348474</ele>
        <time>2022-04-05T11:28:54.253Z</time>
      </trkpt>
      <trkpt lat="42.26683" lon="23.15539">
        <ele>625.333707</ele>
        <time>2022-04-05T11:28:58.241Z</time>
      </trkpt>
      <trkpt lat="42.26681" lon="23.15553">
        <ele>625.316527</ele>
        <time>2022-04-05T11:29:03.250Z</time>
      </trkpt>
      <trkpt lat="42.26677" lon="23.15565">
        <ele>625.301417</ele>
        <time>2022-04-05T11:29:07.246Z</time>
      </trkpt>
      <trkpt lat="42.26674" lon="23.15577">
        <ele>625.287068</ele>
        <time>2022-04-05T11:29:11.245Z</time>
      </trkpt>
      <trkpt lat="42.26671" lon="23.15589">
        <ele>625.272339</ele>
        <time>2022-04-05T11:29:15.236Z</time>
      </trkpt>
      <trkpt lat="42.26667" lon="23.156">
        <ele>625.258133</ele>
        <time>2022-04-05T11:29:19.253Z</time>
      </trkpt>
      <trkpt lat="42.26663" lon="23.15611">
        <ele>625.243917</ele>
        <time>2022-04-05T11:29:23.250Z</time>
      </trkpt>
      <trkpt lat="42.26658" lon="23.15622">
        <ele>625.228773</ele>
        <time>2022-04-05T11:29:28.242Z</time>
      </trkpt>
      <trkpt lat="42.26653" lon="23.15635">
        <ele>625.211899</ele>
        <time>2022-04-05T11:29:33.236Z</time>
      </trkpt>
      <trkpt lat="42.26648" lon="23.15646">
        <ele>625.196309</ele>
        <time>2022-04-05T11:29:37.269Z</time>
      </trkpt>
      <trkpt lat="42.26644" lon="23.15657">
        <ele>625.182222</ele>
        <time>2022-04-05T11:29:41.251Z</time>
      </trkpt>
      <trkpt lat="42.2664" lon="23.15668">
        <ele>625.16798</ele>
        <time>2022-04-05T11:29:45.269Z</time>
      </trkpt>
      <trkpt lat="42.26635" lon="23.15679">
        <ele>625.180671</ele>
        <time>2022-04-05T11:29:49.243Z</time>
      </trkpt>
      <trkpt lat="42.26631" lon="23.15692">
        <ele>625.593587</ele>
        <time>2022-04-05T11:29:54.272Z</time>
      </trkpt>
      <trkpt lat="42.26626" lon="23.15705">
        <ele>626.036945</ele>
        <time>2022-04-05T11:29:59.256Z</time>
      </trkpt>
      <trkpt lat="42.26623" lon="23.15719">
        <ele>626.465534</ele>
        <time>2022-04-05T11:30:04.236Z</time>
      </trkpt>
      <trkpt lat="42.26619" lon="23.1573">
        <ele>626.832675</ele>
        <time>2022-04-05T11:30:08.245Z</time>
      </trkpt>
      <trkpt lat="42.26614" lon="23.15741">
        <ele>627.196285</ele>
        <time>2022-04-05T11:30:12.253Z</time>
      </trkpt>
      <trkpt lat="42.26609" lon="23.15754">
        <ele>627.626143</ele>
        <time>2022-04-05T11:30:17.248Z</time>
      </trkpt>
      <trkpt lat="42.26604" lon="23.15765">
        <ele>627.996584</ele>
        <time>2022-04-05T11:30:21.256Z</time>
      </trkpt>
      <trkpt lat="42.266" lon="23.15776">
        <ele>628.364633</ele>
        <time>2022-04-05T11:30:25.240Z</time>
      </trkpt>
      <trkpt lat="42.26596" lon="23.15787">
        <ele>628.744212</ele>
        <time>2022-04-05T11:30:29.242Z</time>
      </trkpt>
      <trkpt lat="42.26592" lon="23.15798">
        <ele>629.114095</ele>
        <time>2022-04-05T11:30:33.247Z</time>
      </trkpt>
      <trkpt lat="42.26587" lon="23.15811">
        <ele>629.543004</ele>
        <time>2022-04-05T11:30:38.220Z</time>
      </trkpt>
      <trkpt lat="42.26581" lon="23.15822">
        <ele>629.937376</ele>
        <time>2022-04-05T11:30:42.253Z</time>
      </trkpt>
      <trkpt lat="42.26579" lon="23.15834">
        <ele>630.303685</ele>
        <time>2022-04-05T11:30:46.250Z</time>
      </trkpt>
      <trkpt lat="42.26576" lon="23.15846">
        <ele>630.664335</ele>
        <time>2022-04-05T11:30:50.244Z</time>
      </trkpt>
      <trkpt lat="42.26573" lon="23.1586">
        <ele>631.103395</ele>
        <time>2022-04-05T11:30:55.243Z</time>
      </trkpt>
      <trkpt lat="42.2657" lon="23.15872">
        <ele>631.474858</ele>
        <time>2022-04-05T11:30:59.249Z</time>
      </trkpt>
      <trkpt lat="42.26566" lon="23.15883">
        <ele>631.83696</ele>
        <time>2022-04-05T11:31:03.351Z</time>
      </trkpt>
      <trkpt lat="42.26565" lon="23.15896">
        <ele>632.213252</ele>
        <time>2022-04-05T11:31:07.238Z</time>
      </trkpt>
      <trkpt lat="42.26566" lon="23.15909">
        <ele>632.630842</ele>
        <time>2022-04-05T11:31:11.248Z</time>
      </trkpt>
      <trkpt lat="42.26567" lon="23.15923">
        <ele>633.05258</ele>
        <time>2022-04-05T11:31:15.250Z</time>
      </trkpt>
      <trkpt lat="42.26568" lon="23.15936">
        <ele>633.461807</ele>
        <time>2022-04-05T11:31:19.276Z</time>
      </trkpt>
      <trkpt lat="42.26569" lon="23.15949">
        <ele>633.891891</ele>
        <time>2022-04-05T11:31:23.241Z</time>
      </trkpt>
      <trkpt lat="42.2657" lon="23.15963">
        <ele>634.318849</ele>
        <time>2022-04-05T11:31:27.242Z</time>
      </trkpt>
      <trkpt lat="42.26571" lon="23.15976">
        <ele>634.738334</ele>
        <time>2022-04-05T11:31:31.248Z</time>
      </trkpt>
      <trkpt lat="42.26573" lon="23.1599">
        <ele>635.1804</ele>
        <time>2022-04-05T11:31:35.274Z</time>
      </trkpt>
      <trkpt lat="42.26574" lon="23.16003">
        <ele>635.597119</ele>
        <time>2022-04-05T11:31:39.250Z</time>
      </trkpt>
      <trkpt lat="42.26574" lon="23.16015">
        <ele>635.980668</ele>
        <time>2022-04-05T11:31:42.282Z</time>
      </trkpt>
      <trkpt lat="42.26575" lon="23.16031">
        <ele>636.471979</ele>
        <time>2022-04-05T11:31:46.261Z</time>
      </trkpt>
      <trkpt lat="42.26575" lon="23.16046">
        <ele>636.962408</ele>
        <time>2022-04-05T11:31:50.258Z</time>
      </trkpt>
      <trkpt lat="42.26576" lon="23.16062">
        <ele>637.442128</ele>
        <time>2022-04-05T11:31:54.233Z</time>
      </trkpt>
      <trkpt lat="42.26578" lon="23.16075">
        <ele>637.868778</ele>
        <time>2022-04-05T11:31:58.238Z</time>
      </trkpt>
      <trkpt lat="42.26579" lon="23.16088">
        <ele>638.272427</ele>
        <time>2022-04-05T11:32:02.253Z</time>
      </trkpt>
      <trkpt lat="42.26582" lon="23.161">
        <ele>638.668202</ele>
        <time>2022-04-05T11:32:06.256Z</time>
      </trkpt>
      <trkpt lat="42.26583" lon="23.16112">
        <ele>639.05229</ele>
        <time>2022-04-05T11:32:10.259Z</time>
      </trkpt>
      <trkpt lat="42.26586" lon="23.16124">
        <ele>639.452174</ele>
        <time>2022-04-05T11:32:14.218Z</time>
      </trkpt>
      <trkpt lat="42.26586" lon="23.16137">
        <ele>639.846254</ele>
        <time>2022-04-05T11:32:18.214Z</time>
      </trkpt>
      <trkpt lat="42.26587" lon="23.16152">
        <ele>640.353417</ele>
        <time>2022-04-05T11:32:23.228Z</time>
      </trkpt>
      <trkpt lat="42.26587" lon="23.16164">
        <ele>640.777093</ele>
        <time>2022-04-05T11:32:27.223Z</time>
      </trkpt>
      <trkpt lat="42.26587" lon="23.16178">
        <ele>641.238325</ele>
        <time>2022-04-05T11:32:32.219Z</time>
      </trkpt>
      <trkpt lat="42.26589" lon="23.16193">
        <ele>641.758849</ele>
        <time>2022-04-05T11:32:37.225Z</time>
      </trkpt>
      <trkpt lat="42.2659" lon="23.16205">
        <ele>642.18475</ele>
        <time>2022-04-05T11:32:41.226Z</time>
      </trkpt>
      <trkpt lat="42.26592" lon="23.16219">
        <ele>642.674815</ele>
        <time>2022-04-05T11:32:46.219Z</time>
      </trkpt>
      <trkpt lat="42.26594" lon="23.16233">
        <ele>643.167829</ele>
        <time>2022-04-05T11:32:51.244Z</time>
      </trkpt>
      <trkpt lat="42.26594" lon="23.16247">
        <ele>643.649914</ele>
        <time>2022-04-05T11:32:56.218Z</time>
      </trkpt>
      <trkpt lat="42.26594" lon="23.1626">
        <ele>644.087619</ele>
        <time>2022-04-05T11:33:01.210Z</time>
      </trkpt>
      <trkpt lat="42.26596" lon="23.16273">
        <ele>644.521837</ele>
        <time>2022-04-05T11:33:06.222Z</time>
      </trkpt>
      <trkpt lat="42.26597" lon="23.16288">
        <ele>645.035589</ele>
        <time>2022-04-05T11:33:11.224Z</time>
      </trkpt>
      <trkpt lat="42.26598" lon="23.16302">
        <ele>645.54038</ele>
        <time>2022-04-05T11:33:16.214Z</time>
      </trkpt>
      <trkpt lat="42.26598" lon="23.16318">
        <ele>646.060205</ele>
        <time>2022-04-05T11:33:21.220Z</time>
      </trkpt>
      <trkpt lat="42.26597" lon="23.1633">
        <ele>646.485887</ele>
        <time>2022-04-05T11:33:25.244Z</time>
      </trkpt>
      <trkpt lat="42.26597" lon="23.16343">
        <ele>646.941129</ele>
        <time>2022-04-05T11:33:29.226Z</time>
      </trkpt>
      <trkpt lat="42.26597" lon="23.16356">
        <ele>647.378469</ele>
        <time>2022-04-05T11:33:33.219Z</time>
      </trkpt>
      <trkpt lat="42.26598" lon="23.16368">
        <ele>647.804627</ele>
        <time>2022-04-05T11:33:37.218Z</time>
      </trkpt>
      <trkpt lat="42.26601" lon="23.16384">
        <ele>648.282709</ele>
        <time>2022-04-05T11:33:41.227Z</time>
      </trkpt>
      <trkpt lat="42.26602" lon="23.16399">
        <ele>648.358439</ele>
        <time>2022-04-05T11:33:45.218Z</time>
      </trkpt>
      <trkpt lat="42.26603" lon="23.16411">
        <ele>648.417051</ele>
        <time>2022-04-05T11:33:48.224Z</time>
      </trkpt>
      <trkpt lat="42.26604" lon="23.16428">
        <ele>648.496525</ele>
        <time>2022-04-05T11:33:52.220Z</time>
      </trkpt>
      <trkpt lat="42.26605" lon="23.1644">
        <ele>648.556094</ele>
        <time>2022-04-05T11:33:55.218Z</time>
      </trkpt>
      <trkpt lat="42.26607" lon="23.16455">
        <ele>648.631254</ele>
        <time>2022-04-05T11:33:59.228Z</time>
      </trkpt>
      <trkpt lat="42.26608" lon="23.1647">
        <ele>648.703339</ele>
        <time>2022-04-05T11:34:03.215Z</time>
      </trkpt>
      <trkpt lat="42.2661" lon="23.16486">
        <ele>648.78098</ele>
        <time>2022-04-05T11:34:07.236Z</time>
      </trkpt>
      <trkpt lat="42.26612" lon="23.16502">
        <ele>648.856629</ele>
        <time>2022-04-05T11:34:11.213Z</time>
      </trkpt>
      <trkpt lat="42.26613" lon="23.16514">
        <ele>648.91613</ele>
        <time>2022-04-05T11:34:14.228Z</time>
      </trkpt>
      <trkpt lat="42.26614" lon="23.1653">
        <ele>648.993139</ele>
        <time>2022-04-05T11:34:18.241Z</time>
      </trkpt>
      <trkpt lat="42.26615" lon="23.16545">
        <ele>649.066321</ele>
        <time>2022-04-05T11:34:22.230Z</time>
      </trkpt>
      <trkpt lat="42.26617" lon="23.16561">
        <ele>649.141661</ele>
        <time>2022-04-05T11:34:26.227Z</time>
      </trkpt>
      <trkpt lat="42.26618" lon="23.16575">
        <ele>649.213097</ele>
        <time>2022-04-05T11:34:30.214Z</time>
      </trkpt>
      <trkpt lat="42.26619" lon="23.1659">
        <ele>649.285495</ele>
        <time>2022-04-05T11:34:34.217Z</time>
      </trkpt>
      <trkpt lat="42.2662" lon="23.16605">
        <ele>649.353965</ele>
        <time>2022-04-05T11:34:38.212Z</time>
      </trkpt>
      <trkpt lat="42.2662" lon="23.1662">
        <ele>649.427646</ele>
        <time>2022-04-05T11:34:42.250Z</time>
      </trkpt>
      <trkpt lat="42.2662" lon="23.16635">
        <ele>649.606234</ele>
        <time>2022-04-05T11:34:46.223Z</time>
      </trkpt>
      <trkpt lat="42.26621" lon="23.16647">
        <ele>649.775533</ele>
        <time>2022-04-05T11:34:49.221Z</time>
      </trkpt>
      <trkpt lat="42.26623" lon="23.16663">
        <ele>649.998238</ele>
        <time>2022-04-05T11:34:53.243Z</time>
      </trkpt>
      <trkpt lat="42.26624" lon="23.16677">
        <ele>650.196018</ele>
        <time>2022-04-05T11:34:57.208Z</time>
      </trkpt>
      <trkpt lat="42.26625" lon="23.16692">
        <ele>650.392736</ele>
        <time>2022-04-05T11:35:01.218Z</time>
      </trkpt>
      <trkpt lat="42.26625" lon="23.16706">
        <ele>650.588075</ele>
        <time>2022-04-05T11:35:05.226Z</time>
      </trkpt>
      <trkpt lat="42.26626" lon="23.16718">
        <ele>650.760128</ele>
        <time>2022-04-05T11:35:09.216Z</time>
      </trkpt>
      <trkpt lat="42.26626" lon="23.16733">
        <ele>650.963331</ele>
        <time>2022-04-05T11:35:14.213Z</time>
      </trkpt>
      <trkpt lat="42.26626" lon="23.16748">
        <ele>651.16656</ele>
        <time>2022-04-05T11:35:19.237Z</time>
      </trkpt>
      <trkpt lat="42.26628" lon="23.16762">
        <ele>651.370855</ele>
        <time>2022-04-05T11:35:24.219Z</time>
      </trkpt>
      <trkpt lat="42.26629" lon="23.16776">
        <ele>651.562057</ele>
        <time>2022-04-05T11:35:29.231Z</time>
      </trkpt>
      <trkpt lat="42.26629" lon="23.1679">
        <ele>651.752957</ele>
        <time>2022-04-05T11:35:34.240Z</time>
      </trkpt>
      <trkpt lat="42.2663" lon="23.16802">
        <ele>651.927614</ele>
        <time>2022-04-05T11:35:39.226Z</time>
      </trkpt>
      <trkpt lat="42.26629" lon="23.16816">
        <ele>652.121457</ele>
        <time>2022-04-05T11:35:44.210Z</time>
      </trkpt>
      <trkpt lat="42.26631" lon="23.1683">
        <ele>652.309708</ele>
        <time>2022-04-05T11:35:49.257Z</time>
      </trkpt>
      <trkpt lat="42.26632" lon="23.16842">
        <ele>652.483138</ele>
        <time>2022-04-05T11:35:54.244Z</time>
      </trkpt>
      <trkpt lat="42.26633" lon="23.16855">
        <ele>652.660624</ele>
        <time>2022-04-05T11:35:59.241Z</time>
      </trkpt>
      <trkpt lat="42.26635" lon="23.16868">
        <ele>652.819946</ele>
        <time>2022-04-05T11:36:04.229Z</time>
      </trkpt>
      <trkpt lat="42.26637" lon="23.1688">
        <ele>652.903828</ele>
        <time>2022-04-05T11:36:09.273Z</time>
      </trkpt>
      <trkpt lat="42.26639" lon="23.16894">
        <ele>653.000669</ele>
        <time>2022-04-05T11:36:15.231Z</time>
      </trkpt>
      <trkpt lat="42.26641" lon="23.16909">
        <ele>653.102973</ele>
        <time>2022-04-05T11:36:20.243Z</time>
      </trkpt>
      <trkpt lat="42.26644" lon="23.16923">
        <ele>653.201611</ele>
        <time>2022-04-05T11:36:25.273Z</time>
      </trkpt>
      <trkpt lat="42.26646" lon="23.16936">
        <ele>653.289607</ele>
        <time>2022-04-05T11:36:30.234Z</time>
      </trkpt>
      <trkpt lat="42.2665" lon="23.16949">
        <ele>653.381701</ele>
        <time>2022-04-05T11:36:35.235Z</time>
      </trkpt>
      <trkpt lat="42.26654" lon="23.1696">
        <ele>653.465277</ele>
        <time>2022-04-05T11:36:39.248Z</time>
      </trkpt>
      <trkpt lat="42.26658" lon="23.16973">
        <ele>653.564666</ele>
        <time>2022-04-05T11:36:43.246Z</time>
      </trkpt>
      <trkpt lat="42.26662" lon="23.16988">
        <ele>653.665775</ele>
        <time>2022-04-05T11:36:47.240Z</time>
      </trkpt>
      <trkpt lat="42.26667" lon="23.17001">
        <ele>653.762105</ele>
        <time>2022-04-05T11:36:51.253Z</time>
      </trkpt>
      <trkpt lat="42.26671" lon="23.17014">
        <ele>653.861134</ele>
        <time>2022-04-05T11:36:55.245Z</time>
      </trkpt>
      <trkpt lat="42.26675" lon="23.17028">
        <ele>653.961668</ele>
        <time>2022-04-05T11:36:59.246Z</time>
      </trkpt>
      <trkpt lat="42.26678" lon="23.17042">
        <ele>654.056316</ele>
        <time>2022-04-05T11:37:03.236Z</time>
      </trkpt>
      <trkpt lat="42.26682" lon="23.17055">
        <ele>654.149611</ele>
        <time>2022-04-05T11:37:07.240Z</time>
      </trkpt>
      <trkpt lat="42.26686" lon="23.17069">
        <ele>654.251108</ele>
        <time>2022-04-05T11:37:11.275Z</time>
      </trkpt>
      <trkpt lat="42.2669" lon="23.17082">
        <ele>654.349102</ele>
        <time>2022-04-05T11:37:15.276Z</time>
      </trkpt>
      <trkpt lat="42.26695" lon="23.17097">
        <ele>654.377881</ele>
        <time>2022-04-05T11:37:19.231Z</time>
      </trkpt>
      <trkpt lat="42.26698" lon="23.17109">
        <ele>654.187831</ele>
        <time>2022-04-05T11:37:22.219Z</time>
      </trkpt>
      <trkpt lat="42.26701" lon="23.1712">
        <ele>653.999221</ele>
        <time>2022-04-05T11:37:25.237Z</time>
      </trkpt>
      <trkpt lat="42.26705" lon="23.17135">
        <ele>653.763479</ele>
        <time>2022-04-05T11:37:29.235Z</time>
      </trkpt>
      <trkpt lat="42.26708" lon="23.17147">
        <ele>653.561858</ele>
        <time>2022-04-05T11:37:32.309Z</time>
      </trkpt>
      <trkpt lat="42.26713" lon="23.1716">
        <ele>653.347188</ele>
        <time>2022-04-05T11:37:35.253Z</time>
      </trkpt>
      <trkpt lat="42.26717" lon="23.17173">
        <ele>653.133339</ele>
        <time>2022-04-05T11:37:38.300Z</time>
      </trkpt>
      <trkpt lat="42.26721" lon="23.17187">
        <ele>652.902453</ele>
        <time>2022-04-05T11:37:41.234Z</time>
      </trkpt>
      <trkpt lat="42.26726" lon="23.17202">
        <ele>652.652314</ele>
        <time>2022-04-05T11:37:44.289Z</time>
      </trkpt>
      <trkpt lat="42.2673" lon="23.17218">
        <ele>652.399395</ele>
        <time>2022-04-05T11:37:47.246Z</time>
      </trkpt>
      <trkpt lat="42.26734" lon="23.17234">
        <ele>652.140708</ele>
        <time>2022-04-05T11:37:50.240Z</time>
      </trkpt>
      <trkpt lat="42.26738" lon="23.17251">
        <ele>651.862826</ele>
        <time>2022-04-05T11:37:53.236Z</time>
      </trkpt>
      <trkpt lat="42.26741" lon="23.17263">
        <ele>651.671364</ele>
        <time>2022-04-05T11:37:55.314Z</time>
      </trkpt>
      <trkpt lat="42.26746" lon="23.1728">
        <ele>651.396308</ele>
        <time>2022-04-05T11:37:58.240Z</time>
      </trkpt>
      <trkpt lat="42.26751" lon="23.17295">
        <ele>651.14486</ele>
        <time>2022-04-05T11:38:01.225Z</time>
      </trkpt>
      <trkpt lat="42.26756" lon="23.1731">
        <ele>650.883944</ele>
        <time>2022-04-05T11:38:04.230Z</time>
      </trkpt>
      <trkpt lat="42.26761" lon="23.17326">
        <ele>650.623509</ele>
        <time>2022-04-05T11:38:07.230Z</time>
      </trkpt>
      <trkpt lat="42.26766" lon="23.17341">
        <ele>650.374375</ele>
        <time>2022-04-05T11:38:10.240Z</time>
      </trkpt>
      <trkpt lat="42.26771" lon="23.17355">
        <ele>650.143901</ele>
        <time>2022-04-05T11:38:13.259Z</time>
      </trkpt>
      <trkpt lat="42.26775" lon="23.17368">
        <ele>649.931467</ele>
        <time>2022-04-05T11:38:16.219Z</time>
      </trkpt>
      <trkpt lat="42.26778" lon="23.1738">
        <ele>649.731268</ele>
        <time>2022-04-05T11:38:19.249Z</time>
      </trkpt>
      <trkpt lat="42.26782" lon="23.17393">
        <ele>649.525055</ele>
        <time>2022-04-05T11:38:22.233Z</time>
      </trkpt>
      <trkpt lat="42.26786" lon="23.17404">
        <ele>649.329993</ele>
        <time>2022-04-05T11:38:25.239Z</time>
      </trkpt>
      <trkpt lat="42.26791" lon="23.17415">
        <ele>649.133025</ele>
        <time>2022-04-05T11:38:28.275Z</time>
      </trkpt>
      <trkpt lat="42.26795" lon="23.1743">
        <ele>648.897276</ele>
        <time>2022-04-05T11:38:32.229Z</time>
      </trkpt>
      <trkpt lat="42.26799" lon="23.17445">
        <ele>648.649932</ele>
        <time>2022-04-05T11:38:36.236Z</time>
      </trkpt>
      <trkpt lat="42.26803" lon="23.17456">
        <ele>648.461719</ele>
        <time>2022-04-05T11:38:39.247Z</time>
      </trkpt>
      <trkpt lat="42.26807" lon="23.17468">
        <ele>648.261336</ele>
        <time>2022-04-05T11:38:42.252Z</time>
      </trkpt>
      <trkpt lat="42.26811" lon="23.17481">
        <ele>648.045909</ele>
        <time>2022-04-05T11:38:45.269Z</time>
      </trkpt>
      <trkpt lat="42.26815" lon="23.17493">
        <ele>647.844267</ele>
        <time>2022-04-05T11:38:48.235Z</time>
      </trkpt>
      <trkpt lat="42.26818" lon="23.17505">
        <ele>647.651227</ele>
        <time>2022-04-05T11:38:51.252Z</time>
      </trkpt>
      <trkpt lat="42.26821" lon="23.17517">
        <ele>647.464645</ele>
        <time>2022-04-05T11:38:54.237Z</time>
      </trkpt>
      <trkpt lat="42.26826" lon="23.17531">
        <ele>647.224947</ele>
        <time>2022-04-05T11:38:58.222Z</time>
      </trkpt>
      <trkpt lat="42.26831" lon="23.17545">
        <ele>647.102961</ele>
        <time>2022-04-05T11:39:02.287Z</time>
      </trkpt>
      <trkpt lat="42.26834" lon="23.17557">
        <ele>647.464418</ele>
        <time>2022-04-05T11:39:05.227Z</time>
      </trkpt>
      <trkpt lat="42.26837" lon="23.17569">
        <ele>647.852445</ele>
        <time>2022-04-05T11:39:08.254Z</time>
      </trkpt>
      <trkpt lat="42.2684" lon="23.17581">
        <ele>648.232435</ele>
        <time>2022-04-05T11:39:11.237Z</time>
      </trkpt>
      <trkpt lat="42.26844" lon="23.17594">
        <ele>648.636771</ele>
        <time>2022-04-05T11:39:14.234Z</time>
      </trkpt>
      <trkpt lat="42.26848" lon="23.17607">
        <ele>649.037335</ele>
        <time>2022-04-05T11:39:17.271Z</time>
      </trkpt>
      <trkpt lat="42.26852" lon="23.17618">
        <ele>649.414623</ele>
        <time>2022-04-05T11:39:20.275Z</time>
      </trkpt>
      <trkpt lat="42.26855" lon="23.17631">
        <ele>649.823102</ele>
        <time>2022-04-05T11:39:23.271Z</time>
      </trkpt>
      <trkpt lat="42.26859" lon="23.17644">
        <ele>650.216064</ele>
        <time>2022-04-05T11:39:26.243Z</time>
      </trkpt>
      <trkpt lat="42.26863" lon="23.17655">
        <ele>650.590215</ele>
        <time>2022-04-05T11:39:29.243Z</time>
      </trkpt>
      <trkpt lat="42.26866" lon="23.17667">
        <ele>650.969634</ele>
        <time>2022-04-05T11:39:32.228Z</time>
      </trkpt>
      <trkpt lat="42.26871" lon="23.17681">
        <ele>651.419887</ele>
        <time>2022-04-05T11:39:36.246Z</time>
      </trkpt>
      <trkpt lat="42.26875" lon="23.17693">
        <ele>651.795098</ele>
        <time>2022-04-05T11:39:39.244Z</time>
      </trkpt>
      <trkpt lat="42.26879" lon="23.17705">
        <ele>652.192941</ele>
        <time>2022-04-05T11:39:42.240Z</time>
      </trkpt>
      <trkpt lat="42.26882" lon="23.17717">
        <ele>652.56266</ele>
        <time>2022-04-05T11:39:45.234Z</time>
      </trkpt>
      <trkpt lat="42.26885" lon="23.17728">
        <ele>652.93514</ele>
        <time>2022-04-05T11:39:48.246Z</time>
      </trkpt>
      <trkpt lat="42.26889" lon="23.17741">
        <ele>653.322963</ele>
        <time>2022-04-05T11:39:51.256Z</time>
      </trkpt>
      <trkpt lat="42.26892" lon="23.17753">
        <ele>653.702951</ele>
        <time>2022-04-05T11:39:54.235Z</time>
      </trkpt>
      <trkpt lat="42.26895" lon="23.17767">
        <ele>654.132425</ele>
        <time>2022-04-05T11:39:57.264Z</time>
      </trkpt>
      <trkpt lat="42.269" lon="23.17781">
        <ele>654.207811</ele>
        <time>2022-04-05T11:40:00.244Z</time>
      </trkpt>
      <trkpt lat="42.26904" lon="23.17794">
        <ele>654.215202</ele>
        <time>2022-04-05T11:40:03.235Z</time>
      </trkpt>
      <trkpt lat="42.26908" lon="23.17807">
        <ele>654.222157</ele>
        <time>2022-04-05T11:40:06.295Z</time>
      </trkpt>
      <trkpt lat="42.26912" lon="23.17821">
        <ele>654.229831</ele>
        <time>2022-04-05T11:40:09.251Z</time>
      </trkpt>
      <trkpt lat="42.26915" lon="23.17834">
        <ele>654.237288</ele>
        <time>2022-04-05T11:40:12.240Z</time>
      </trkpt>
      <trkpt lat="42.26919" lon="23.17849">
        <ele>654.245254</ele>
        <time>2022-04-05T11:40:15.241Z</time>
      </trkpt>
      <trkpt lat="42.26924" lon="23.17862">
        <ele>654.25285</ele>
        <time>2022-04-05T11:40:18.252Z</time>
      </trkpt>
      <trkpt lat="42.26928" lon="23.17876">
        <ele>654.260305</ele>
        <time>2022-04-05T11:40:21.243Z</time>
      </trkpt>
      <trkpt lat="42.26933" lon="23.17888">
        <ele>654.267406</ele>
        <time>2022-04-05T11:40:24.228Z</time>
      </trkpt>
      <trkpt lat="42.26935" lon="23.17902">
        <ele>654.274716</ele>
        <time>2022-04-05T11:40:27.255Z</time>
      </trkpt>
      <trkpt lat="42.2694" lon="23.17914">
        <ele>654.281941</ele>
        <time>2022-04-05T11:40:30.256Z</time>
      </trkpt>
      <trkpt lat="42.26945" lon="23.17926">
        <ele>654.288692</ele>
        <time>2022-04-05T11:40:33.228Z</time>
      </trkpt>
      <trkpt lat="42.26948" lon="23.17938">
        <ele>654.295236</ele>
        <time>2022-04-05T11:40:36.253Z</time>
      </trkpt>
      <trkpt lat="42.26952" lon="23.17951">
        <ele>654.302333</ele>
        <time>2022-04-05T11:40:39.258Z</time>
      </trkpt>
      <trkpt lat="42.26956" lon="23.17964">
        <ele>654.309698</ele>
        <time>2022-04-05T11:40:42.248Z</time>
      </trkpt>
      <trkpt lat="42.2696" lon="23.17977">
        <ele>654.316894</ele>
        <time>2022-04-05T11:40:45.282Z</time>
      </trkpt>
      <trkpt lat="42.26963" lon="23.17989">
        <ele>654.323606</ele>
        <time>2022-04-05T11:40:48.252Z</time>
      </trkpt>
      <trkpt lat="42.26968" lon="23.18004">
        <ele>654.393594</ele>
        <time>2022-04-05T11:40:52.229Z</time>
      </trkpt>
      <trkpt lat="42.26972" lon="23.18015">
        <ele>654.465536</ele>
        <time>2022-04-05T11:40:55.224Z</time>
      </trkpt>
      <trkpt lat="42.26976" lon="23.18029">
        <ele>654.557424</ele>
        <time>2022-04-05T11:40:59.229Z</time>
      </trkpt>
      <trkpt lat="42.26981" lon="23.18044">
        <ele>654.648765</ele>
        <time>2022-04-05T11:41:03.248Z</time>
      </trkpt>
      <trkpt lat="42.26986" lon="23.18057">
        <ele>654.739677</ele>
        <time>2022-04-05T11:41:07.245Z</time>
      </trkpt>
      <trkpt lat="42.2699" lon="23.18068">
        <ele>654.812127</ele>
        <time>2022-04-05T11:41:10.252Z</time>
      </trkpt>
      <trkpt lat="42.26993" lon="23.18083">
        <ele>654.899707</ele>
        <time>2022-04-05T11:41:14.241Z</time>
      </trkpt>
      <trkpt lat="42.26996" lon="23.18097">
        <ele>654.988618</ele>
        <time>2022-04-05T11:41:18.252Z</time>
      </trkpt>
      <trkpt lat="42.27001" lon="23.18111">
        <ele>655.076911</ele>
        <time>2022-04-05T11:41:22.273Z</time>
      </trkpt>
      <trkpt lat="42.27005" lon="23.18125">
        <ele>655.170253</ele>
        <time>2022-04-05T11:41:26.246Z</time>
      </trkpt>
      <trkpt lat="42.27008" lon="23.18137">
        <ele>655.2428</ele>
        <time>2022-04-05T11:41:29.234Z</time>
      </trkpt>
      <trkpt lat="42.27012" lon="23.18153">
        <ele>655.33859</ele>
        <time>2022-04-05T11:41:33.248Z</time>
      </trkpt>
      <trkpt lat="42.27015" lon="23.18165">
        <ele>655.418039</ele>
        <time>2022-04-05T11:41:36.238Z</time>
      </trkpt>
      <trkpt lat="42.27019" lon="23.18178">
        <ele>655.497778</ele>
        <time>2022-04-05T11:41:39.261Z</time>
      </trkpt>
      <trkpt lat="42.27022" lon="23.1819">
        <ele>655.573082</ele>
        <time>2022-04-05T11:41:42.229Z</time>
      </trkpt>
      <trkpt lat="42.27025" lon="23.18202">
        <ele>655.645413</ele>
        <time>2022-04-05T11:41:45.296Z</time>
      </trkpt>
      <trkpt lat="42.27028" lon="23.18213">
        <ele>655.717133</ele>
        <time>2022-04-05T11:41:48.266Z</time>
      </trkpt>
      <trkpt lat="42.27032" lon="23.18225">
        <ele>655.801089</ele>
        <time>2022-04-05T11:41:51.227Z</time>
      </trkpt>
      <trkpt lat="42.27036" lon="23.18237">
        <ele>655.902103</ele>
        <time>2022-04-05T11:41:54.240Z</time>
      </trkpt>
      <trkpt lat="42.27041" lon="23.1825">
        <ele>656.003494</ele>
        <time>2022-04-05T11:41:57.251Z</time>
      </trkpt>
      <trkpt lat="42.27045" lon="23.18262">
        <ele>656.103357</ele>
        <time>2022-04-05T11:42:00.228Z</time>
      </trkpt>
      <trkpt lat="42.27049" lon="23.18274">
        <ele>656.197755</ele>
        <time>2022-04-05T11:42:03.274Z</time>
      </trkpt>
      <trkpt lat="42.27052" lon="23.18287">
        <ele>656.29532</ele>
        <time>2022-04-05T11:42:06.267Z</time>
      </trkpt>
      <trkpt lat="42.27055" lon="23.18298">
        <ele>656.387882</ele>
        <time>2022-04-05T11:42:09.241Z</time>
      </trkpt>
      <trkpt lat="42.2706" lon="23.18313">
        <ele>656.500033</ele>
        <time>2022-04-05T11:42:13.280Z</time>
      </trkpt>
      <trkpt lat="42.27063" lon="23.18326">
        <ele>656.60355</ele>
        <time>2022-04-05T11:42:16.251Z</time>
      </trkpt>
      <trkpt lat="42.27067" lon="23.18339">
        <ele>656.708866</ele>
        <time>2022-04-05T11:42:19.273Z</time>
      </trkpt>
      <trkpt lat="42.2707" lon="23.18354">
        <ele>656.82341</ele>
        <time>2022-04-05T11:42:23.241Z</time>
      </trkpt>
      <trkpt lat="42.27074" lon="23.18366">
        <ele>656.91357</ele>
        <time>2022-04-05T11:42:26.244Z</time>
      </trkpt>
      <trkpt lat="42.27079" lon="23.18378">
        <ele>657.015214</ele>
        <time>2022-04-05T11:42:29.231Z</time>
      </trkpt>
      <trkpt lat="42.27083" lon="23.18391">
        <ele>657.119856</ele>
        <time>2022-04-05T11:42:32.253Z</time>
      </trkpt>
      <trkpt lat="42.27086" lon="23.18404">
        <ele>657.22133</ele>
        <time>2022-04-05T11:42:35.292Z</time>
      </trkpt>
      <trkpt lat="42.27089" lon="23.18418">
        <ele>657.325764</ele>
        <time>2022-04-05T11:42:38.237Z</time>
      </trkpt>
      <trkpt lat="42.27092" lon="23.18431">
        <ele>657.424842</ele>
        <time>2022-04-05T11:42:41.237Z</time>
      </trkpt>
      <trkpt lat="42.27096" lon="23.18444">
        <ele>657.525274</ele>
        <time>2022-04-05T11:42:44.255Z</time>
      </trkpt>
      <trkpt lat="42.271" lon="23.18456">
        <ele>657.743091</ele>
        <time>2022-04-05T11:42:47.220Z</time>
      </trkpt>
      <trkpt lat="42.27103" lon="23.18468">
        <ele>657.963873</ele>
        <time>2022-04-05T11:42:50.243Z</time>
      </trkpt>
      <trkpt lat="42.27107" lon="23.18483">
        <ele>658.237642</ele>
        <time>2022-04-05T11:42:54.268Z</time>
      </trkpt>
      <trkpt lat="42.27111" lon="23.18494">
        <ele>658.450559</ele>
        <time>2022-04-05T11:42:57.231Z</time>
      </trkpt>
      <trkpt lat="42.27115" lon="23.18509">
        <ele>658.721183</ele>
        <time>2022-04-05T11:43:01.255Z</time>
      </trkpt>
      <trkpt lat="42.27119" lon="23.18524">
        <ele>658.988638</ele>
        <time>2022-04-05T11:43:05.263Z</time>
      </trkpt>
      <trkpt lat="42.27123" lon="23.18538">
        <ele>659.243147</ele>
        <time>2022-04-05T11:43:09.228Z</time>
      </trkpt>
      <trkpt lat="42.27127" lon="23.18551">
        <ele>659.490432</ele>
        <time>2022-04-05T11:43:13.250Z</time>
      </trkpt>
      <trkpt lat="42.27129" lon="23.18565">
        <ele>659.740876</ele>
        <time>2022-04-05T11:43:17.249Z</time>
      </trkpt>
      <trkpt lat="42.27131" lon="23.1858">
        <ele>659.992154</ele>
        <time>2022-04-05T11:43:21.276Z</time>
      </trkpt>
      <trkpt lat="42.27133" lon="23.18593">
        <ele>660.219021</ele>
        <time>2022-04-05T11:43:25.247Z</time>
      </trkpt>
      <trkpt lat="42.27135" lon="23.18606">
        <ele>660.444645</ele>
        <time>2022-04-05T11:43:29.241Z</time>
      </trkpt>
      <trkpt lat="42.27135" lon="23.18619">
        <ele>660.662273</ele>
        <time>2022-04-05T11:43:33.280Z</time>
      </trkpt>
      <trkpt lat="42.27136" lon="23.18633">
        <ele>660.90749</ele>
        <time>2022-04-05T11:43:38.245Z</time>
      </trkpt>
      <trkpt lat="42.27137" lon="23.18647">
        <ele>661.149677</ele>
        <time>2022-04-05T11:43:43.252Z</time>
      </trkpt>
      <trkpt lat="42.27137" lon="23.18661">
        <ele>661.398312</ele>
        <time>2022-04-05T11:43:48.248Z</time>
      </trkpt>
      <trkpt lat="42.27139" lon="23.18676">
        <ele>661.650422</ele>
        <time>2022-04-05T11:43:53.242Z</time>
      </trkpt>
      <trkpt lat="42.2714" lon="23.1869">
        <ele>662.232206</ele>
        <time>2022-04-05T11:43:58.249Z</time>
      </trkpt>
      <trkpt lat="42.27142" lon="23.18702">
        <ele>662.813718</ele>
        <time>2022-04-05T11:44:03.242Z</time>
      </trkpt>
      <trkpt lat="42.27142" lon="23.18716">
        <ele>663.459814</ele>
        <time>2022-04-05T11:44:08.287Z</time>
      </trkpt>
      <trkpt lat="42.27145" lon="23.1873">
        <ele>664.073984</ele>
        <time>2022-04-05T11:44:13.235Z</time>
      </trkpt>
      <trkpt lat="42.27146" lon="23.18742">
        <ele>664.663185</ele>
        <time>2022-04-05T11:44:18.257Z</time>
      </trkpt>
      <trkpt lat="42.27148" lon="23.18755">
        <ele>665.282704</ele>
        <time>2022-04-05T11:44:24.243Z</time>
      </trkpt>
      <trkpt lat="42.27149" lon="23.18769">
        <ele>665.897194</ele>
        <time>2022-04-05T11:44:29.256Z</time>
      </trkpt>
      <trkpt lat="42.27152" lon="23.18781">
        <ele>666.485966</ele>
        <time>2022-04-05T11:44:33.244Z</time>
      </trkpt>
      <trkpt lat="42.27153" lon="23.18793">
        <ele>667.065985</ele>
        <time>2022-04-05T11:44:38.252Z</time>
      </trkpt>
      <trkpt lat="42.27154" lon="23.18807">
        <ele>667.684455</ele>
        <time>2022-04-05T11:44:43.231Z</time>
      </trkpt>
      <trkpt lat="42.27156" lon="23.1882">
        <ele>668.285953</ele>
        <time>2022-04-05T11:44:48.256Z</time>
      </trkpt>
      <trkpt lat="42.27156" lon="23.18833">
        <ele>668.913965</ele>
        <time>2022-04-05T11:44:54.256Z</time>
      </trkpt>
      <trkpt lat="42.27158" lon="23.18846">
        <ele>669.487809</ele>
        <time>2022-04-05T11:44:59.259Z</time>
      </trkpt>
      <trkpt lat="42.2716" lon="23.1886">
        <ele>670.140439</ele>
        <time>2022-04-05T11:45:05.241Z</time>
      </trkpt>
      <trkpt lat="42.2716" lon="23.18873">
        <ele>670.745773</ele>
        <time>2022-04-05T11:45:10.242Z</time>
      </trkpt>
      <trkpt lat="42.27161" lon="23.18886">
        <ele>671.330351</ele>
        <time>2022-04-05T11:45:15.261Z</time>
      </trkpt>
      <trkpt lat="42.27164" lon="23.189">
        <ele>671.99916</ele>
        <time>2022-04-05T11:45:20.272Z</time>
      </trkpt>
      <trkpt lat="42.27164" lon="23.18913">
        <ele>672.583181</ele>
        <time>2022-04-05T11:45:25.243Z</time>
      </trkpt>
      <trkpt lat="42.27164" lon="23.18927">
        <ele>673.019636</ele>
        <time>2022-04-05T11:45:30.230Z</time>
      </trkpt>
      <trkpt lat="42.27165" lon="23.1894">
        <ele>673.306853</ele>
        <time>2022-04-05T11:45:35.236Z</time>
      </trkpt>
      <trkpt lat="42.27166" lon="23.18955">
        <ele>673.621905</ele>
        <time>2022-04-05T11:45:41.230Z</time>
      </trkpt>
      <trkpt lat="42.27167" lon="23.18967">
        <ele>673.88644</ele>
        <time>2022-04-05T11:45:46.262Z</time>
      </trkpt>
      <trkpt lat="42.27167" lon="23.1898">
        <ele>674.158529</ele>
        <time>2022-04-05T11:45:51.252Z</time>
      </trkpt>
      <trkpt lat="42.27166" lon="23.18993">
        <ele>674.447816</ele>
        <time>2022-04-05T11:45:56.239Z</time>
      </trkpt>
      <trkpt lat="42.27165" lon="23.19006">
        <ele>674.726018</ele>
        <time>2022-04-05T11:46:01.248Z</time>
      </trkpt>
      <trkpt lat="42.27165" lon="23.19018">
        <ele>674.989601</ele>
        <time>2022-04-05T11:46:06.278Z</time>
      </trkpt>
      <trkpt lat="42.27166" lon="23.19033">
        <ele>675.293676</ele>
        <time>2022-04-05T11:46:11.235Z</time>
      </trkpt>
      <trkpt lat="42.27168" lon="23.19046">
        <ele>675.58236</ele>
        <time>2022-04-05T11:46:16.250Z</time>
      </trkpt>
      <trkpt lat="42.27169" lon="23.19058">
        <ele>675.849297</ele>
        <time>2022-04-05T11:46:21.234Z</time>
      </trkpt>
      <trkpt lat="42.27169" lon="23.19072">
        <ele>676.144967</ele>
        <time>2022-04-05T11:46:26.237Z</time>
      </trkpt>
      <trkpt lat="42.27168" lon="23.19086">
        <ele>676.448434</ele>
        <time>2022-04-05T11:46:32.233Z</time>
      </trkpt>
      <trkpt lat="42.27168" lon="23.19099">
        <ele>676.716379</ele>
        <time>2022-04-05T11:46:37.252Z</time>
      </trkpt>
      <trkpt lat="42.27168" lon="23.19112">
        <ele>676.995136</ele>
        <time>2022-04-05T11:46:42.258Z</time>
      </trkpt>
      <trkpt lat="42.27168" lon="23.19125">
        <ele>677.271509</ele>
        <time>2022-04-05T11:46:48.217Z</time>
      </trkpt>
      <trkpt lat="42.27168" lon="23.19137">
        <ele>677.535172</ele>
        <time>2022-04-05T11:46:55.241Z</time>
      </trkpt>
      <trkpt lat="42.27168" lon="23.19151">
        <ele>677.839741</ele>
        <time>2022-04-05T11:47:01.237Z</time>
      </trkpt>
      <trkpt lat="42.27168" lon="23.19165">
        <ele>678.03908</ele>
        <time>2022-04-05T11:47:07.239Z</time>
      </trkpt>
      <trkpt lat="42.27167" lon="23.19178">
        <ele>678.03908</ele>
        <time>2022-04-05T11:47:13.275Z</time>
      </trkpt>
      <trkpt lat="42.27167" lon="23.19191">
        <ele>678.03908</ele>
        <time>2022-04-05T11:47:19.231Z</time>
      </trkpt>
      <trkpt lat="42.27167" lon="23.19204">
        <ele>678.03908</ele>
        <time>2022-04-05T11:47:25.248Z</time>
      </trkpt>
      <trkpt lat="42.27165" lon="23.19216">
        <ele>678.03908</ele>
        <time>2022-04-05T11:47:31.254Z</time>
      </trkpt>
      <trkpt lat="42.27164" lon="23.19229">
        <ele>678.03908</ele>
        <time>2022-04-05T11:47:38.238Z</time>
      </trkpt>
      <trkpt lat="42.27165" lon="23.19244">
        <ele>678.03908</ele>
        <time>2022-04-05T11:47:45.234Z</time>
      </trkpt>
      <trkpt lat="42.27164" lon="23.19256">
        <ele>678.03908</ele>
        <time>2022-04-05T11:47:51.259Z</time>
      </trkpt>
      <trkpt lat="42.27165" lon="23.19269">
        <ele>678.03908</ele>
        <time>2022-04-05T11:47:57.239Z</time>
      </trkpt>
      <trkpt lat="42.27167" lon="23.19282">
        <ele>678.03908</ele>
        <time>2022-04-05T11:48:03.245Z</time>
      </trkpt>
      <trkpt lat="42.27167" lon="23.19296">
        <ele>678.03908</ele>
        <time>2022-04-05T11:48:10.224Z</time>
      </trkpt>
      <trkpt lat="42.27165" lon="23.1931">
        <ele>678.03908</ele>
        <time>2022-04-05T11:48:17.235Z</time>
      </trkpt>
      <trkpt lat="42.27163" lon="23.19322">
        <ele>678.03908</ele>
        <time>2022-04-05T11:48:23.246Z</time>
      </trkpt>
      <trkpt lat="42.27161" lon="23.19336">
        <ele>678.03908</ele>
        <time>2022-04-05T11:48:29.252Z</time>
      </trkpt>
      <trkpt lat="42.2716" lon="23.1935">
        <ele>678.03908</ele>
        <time>2022-04-05T11:48:35.261Z</time>
      </trkpt>
      <trkpt lat="42.2716" lon="23.19363">
        <ele>678.03908</ele>
        <time>2022-04-05T11:48:41.235Z</time>
      </trkpt>
      <trkpt lat="42.27161" lon="23.19377">
        <ele>678.03908</ele>
        <time>2022-04-05T11:48:47.242Z</time>
      </trkpt>
      <trkpt lat="42.27159" lon="23.1939">
        <ele>678.03908</ele>
        <time>2022-04-05T11:48:54.254Z</time>
      </trkpt>
      <trkpt lat="42.27158" lon="23.19403">
        <ele>678.03908</ele>
        <time>2022-04-05T11:49:01.243Z</time>
      </trkpt>
      <trkpt lat="42.27156" lon="23.19417">
        <ele>678.03908</ele>
        <time>2022-04-05T11:49:08.227Z</time>
      </trkpt>
      <trkpt lat="42.27154" lon="23.1943">
        <ele>678.03908</ele>
        <time>2022-04-05T11:49:15.243Z</time>
      </trkpt>
      <trkpt lat="42.27152" lon="23.19444">
        <ele>678.03908</ele>
        <time>2022-04-05T11:49:22.232Z</time>
      </trkpt>
      <trkpt lat="42.27149" lon="23.19455">
        <ele>678.03908</ele>
        <time>2022-04-05T11:49:29.244Z</time>
      </trkpt>
      <trkpt lat="42.27146" lon="23.19468">
        <ele>678.03908</ele>
        <time>2022-04-05T11:49:37.228Z</time>
      </trkpt>
      <trkpt lat="42.27143" lon="23.1948">
        <ele>678.03908</ele>
        <time>2022-04-05T11:49:43.248Z</time>
      </trkpt>
      <trkpt lat="42.27141" lon="23.19492">
        <ele>678.03908</ele>
        <time>2022-04-05T11:49:49.232Z</time>
      </trkpt>
      <trkpt lat="42.27141" lon="23.19505">
        <ele>678.03908</ele>
        <time>2022-04-05T11:49:56.222Z</time>
      </trkpt>
      <trkpt lat="42.27141" lon="23.19512">
        <ele>678.03908</ele>
        <time>2022-04-05T11:51:29.835Z</time>
      </trkpt>
    </trkseg>
  </trk>
  <trk>
    <name><![CDATA[Tour d'Europe: étape 645]]></name>
    <extensions>
      <line xmlns="http://www.topografix.com/GPX/gpx_style/0/2">
        <color>0000FF</color>
        <width>4</width>
      </line>
    </extensions>
    <trkseg>
      <trkpt lat="42.67799" lon="23.28777">
        <ele>646.701211</ele>
        <time>2022-04-04T07:30:43.045Z</time>
      </trkpt>
      <trkpt lat="42.67788" lon="23.28776">
        <ele>646.701211</ele>
        <time>2022-04-04T07:30:44.844Z</time>
      </trkpt>
      <trkpt lat="42.67768" lon="23.28775">
        <ele>646.701211</ele>
        <time>2022-04-04T07:31:07.852Z</time>
      </trkpt>
      <trkpt lat="42.67758" lon="23.28736">
        <ele>646.701211</ele>
        <time>2022-04-04T07:31:23.861Z</time>
      </trkpt>
      <trkpt lat="42.67751" lon="23.28727">
        <ele>646.701211</ele>
        <time>2022-04-04T07:31:27.885Z</time>
      </trkpt>
      <trkpt lat="42.67743" lon="23.28716">
        <ele>646.701211</ele>
        <time>2022-04-04T07:31:31.870Z</time>
      </trkpt>
      <trkpt lat="42.67744" lon="23.28704">
        <ele>646.671185</ele>
        <time>2022-04-04T07:31:35.859Z</time>
      </trkpt>
      <trkpt lat="42.67748" lon="23.28691">
        <ele>646.436352</ele>
        <time>2022-04-04T07:31:40.957Z</time>
      </trkpt>
      <trkpt lat="42.67752" lon="23.28679">
        <ele>646.231454</ele>
        <time>2022-04-04T07:31:43.877Z</time>
      </trkpt>
      <trkpt lat="42.67755" lon="23.28667">
        <ele>646.021121</ele>
        <time>2022-04-04T07:31:46.859Z</time>
      </trkpt>
      <trkpt lat="42.67761" lon="23.28655">
        <ele>645.777208</ele>
        <time>2022-04-04T07:31:50.865Z</time>
      </trkpt>
      <trkpt lat="42.67765" lon="23.28643">
        <ele>645.559803</ele>
        <time>2022-04-04T07:31:54.905Z</time>
      </trkpt>
      <trkpt lat="42.67772" lon="23.28632">
        <ele>645.323878</ele>
        <time>2022-04-04T07:31:57.858Z</time>
      </trkpt>
      <trkpt lat="42.6778" lon="23.28621">
        <ele>645.064057</ele>
        <time>2022-04-04T07:32:01.867Z</time>
      </trkpt>
      <trkpt lat="42.67786" lon="23.2861">
        <ele>644.836195</ele>
        <time>2022-04-04T07:32:06.858Z</time>
      </trkpt>
      <trkpt lat="42.67793" lon="23.286">
        <ele>644.600114</ele>
        <time>2022-04-04T07:32:10.855Z</time>
      </trkpt>
      <trkpt lat="42.67802" lon="23.28594">
        <ele>644.37522</ele>
        <time>2022-04-04T07:32:13.985Z</time>
      </trkpt>
      <trkpt lat="42.6781" lon="23.28583">
        <ele>644.125793</ele>
        <time>2022-04-04T07:32:17.864Z</time>
      </trkpt>
      <trkpt lat="42.67818" lon="23.28575">
        <ele>643.906045</ele>
        <time>2022-04-04T07:32:21.860Z</time>
      </trkpt>
      <trkpt lat="42.67827" lon="23.28565">
        <ele>643.63452</ele>
        <time>2022-04-04T07:32:26.874Z</time>
      </trkpt>
      <trkpt lat="42.67836" lon="23.28559">
        <ele>643.419858</ele>
        <time>2022-04-04T07:32:29.841Z</time>
      </trkpt>
      <trkpt lat="42.67845" lon="23.28551">
        <ele>643.163159</ele>
        <time>2022-04-04T07:32:33.853Z</time>
      </trkpt>
      <trkpt lat="42.67852" lon="23.28537">
        <ele>642.895338</ele>
        <time>2022-04-04T07:32:37.859Z</time>
      </trkpt>
      <trkpt lat="42.67858" lon="23.28527">
        <ele>642.680777</ele>
        <time>2022-04-04T07:32:41.850Z</time>
      </trkpt>
      <trkpt lat="42.67866" lon="23.28518">
        <ele>642.759742</ele>
        <time>2022-04-04T07:32:46.873Z</time>
      </trkpt>
      <trkpt lat="42.67874" lon="23.28512">
        <ele>642.868501</ele>
        <time>2022-04-04T07:32:50.861Z</time>
      </trkpt>
      <trkpt lat="42.67888" lon="23.28495">
        <ele>643.097315</ele>
        <time>2022-04-04T07:34:18.901Z</time>
      </trkpt>
      <trkpt lat="42.6789" lon="23.28481">
        <ele>643.218819</ele>
        <time>2022-04-04T07:34:21.860Z</time>
      </trkpt>
      <trkpt lat="42.67895" lon="23.28469">
        <ele>643.336693</ele>
        <time>2022-04-04T07:34:24.866Z</time>
      </trkpt>
      <trkpt lat="42.679" lon="23.28458">
        <ele>643.453387</ele>
        <time>2022-04-04T07:34:27.885Z</time>
      </trkpt>
      <trkpt lat="42.67905" lon="23.28447">
        <ele>643.565691</ele>
        <time>2022-04-04T07:34:30.857Z</time>
      </trkpt>
      <trkpt lat="42.67912" lon="23.28434">
        <ele>643.705602</ele>
        <time>2022-04-04T07:34:34.865Z</time>
      </trkpt>
      <trkpt lat="42.67918" lon="23.28423">
        <ele>643.82498</ele>
        <time>2022-04-04T07:34:37.850Z</time>
      </trkpt>
      <trkpt lat="42.67922" lon="23.28411">
        <ele>643.941872</ele>
        <time>2022-04-04T07:34:40.857Z</time>
      </trkpt>
      <trkpt lat="42.67928" lon="23.284">
        <ele>644.057178</ele>
        <time>2022-04-04T07:34:43.869Z</time>
      </trkpt>
      <trkpt lat="42.67935" lon="23.28389">
        <ele>644.189609</ele>
        <time>2022-04-04T07:34:46.850Z</time>
      </trkpt>
      <trkpt lat="42.67941" lon="23.28375">
        <ele>644.331179</ele>
        <time>2022-04-04T07:34:49.859Z</time>
      </trkpt>
      <trkpt lat="42.67947" lon="23.28366">
        <ele>644.442425</ele>
        <time>2022-04-04T07:34:52.848Z</time>
      </trkpt>
      <trkpt lat="42.67956" lon="23.28358">
        <ele>644.570231</ele>
        <time>2022-04-04T07:34:55.847Z</time>
      </trkpt>
      <trkpt lat="42.67964" lon="23.28349">
        <ele>644.688316</ele>
        <time>2022-04-04T07:34:58.864Z</time>
      </trkpt>
      <trkpt lat="42.6797" lon="23.28338">
        <ele>644.835896</ele>
        <time>2022-04-04T07:35:01.862Z</time>
      </trkpt>
      <trkpt lat="42.67976" lon="23.28326">
        <ele>645.339851</ele>
        <time>2022-04-04T07:35:04.930Z</time>
      </trkpt>
      <trkpt lat="42.67981" lon="23.28314">
        <ele>645.845274</ele>
        <time>2022-04-04T07:35:07.864Z</time>
      </trkpt>
      <trkpt lat="42.67986" lon="23.283">
        <ele>646.376516</ele>
        <time>2022-04-04T07:35:10.859Z</time>
      </trkpt>
      <trkpt lat="42.6799" lon="23.28287">
        <ele>646.880319</ele>
        <time>2022-04-04T07:35:13.865Z</time>
      </trkpt>
      <trkpt lat="42.67994" lon="23.28271">
        <ele>647.479073</ele>
        <time>2022-04-04T07:35:16.842Z</time>
      </trkpt>
      <trkpt lat="42.67995" lon="23.28258">
        <ele>647.916431</ele>
        <time>2022-04-04T07:35:18.864Z</time>
      </trkpt>
      <trkpt lat="42.67998" lon="23.28243">
        <ele>648.456835</ele>
        <time>2022-04-04T07:35:21.891Z</time>
      </trkpt>
      <trkpt lat="42.68005" lon="23.2823">
        <ele>649.025966</ele>
        <time>2022-04-04T07:35:25.862Z</time>
      </trkpt>
      <trkpt lat="42.68015" lon="23.28224">
        <ele>649.553417</ele>
        <time>2022-04-04T07:35:28.842Z</time>
      </trkpt>
      <trkpt lat="42.68025" lon="23.28218">
        <ele>650.081842</ele>
        <time>2022-04-04T07:35:31.856Z</time>
      </trkpt>
      <trkpt lat="42.68034" lon="23.2821">
        <ele>650.574511</ele>
        <time>2022-04-04T07:35:34.863Z</time>
      </trkpt>
      <trkpt lat="42.68042" lon="23.28201">
        <ele>651.064373</ele>
        <time>2022-04-04T07:35:37.868Z</time>
      </trkpt>
      <trkpt lat="42.68047" lon="23.28189">
        <ele>651.57383</ele>
        <time>2022-04-04T07:35:41.850Z</time>
      </trkpt>
      <trkpt lat="42.68052" lon="23.28177">
        <ele>652.040285</ele>
        <time>2022-04-04T07:35:44.863Z</time>
      </trkpt>
      <trkpt lat="42.68058" lon="23.28165">
        <ele>652.55606</ele>
        <time>2022-04-04T07:35:47.852Z</time>
      </trkpt>
      <trkpt lat="42.68065" lon="23.28153">
        <ele>653.102486</ele>
        <time>2022-04-04T07:35:50.863Z</time>
      </trkpt>
      <trkpt lat="42.68072" lon="23.2814">
        <ele>652.912839</ele>
        <time>2022-04-04T07:35:53.870Z</time>
      </trkpt>
      <trkpt lat="42.6808" lon="23.28126">
        <ele>651.703253</ele>
        <time>2022-04-04T07:35:56.864Z</time>
      </trkpt>
      <trkpt lat="42.68087" lon="23.28117">
        <ele>650.870983</ele>
        <time>2022-04-04T07:35:58.861Z</time>
      </trkpt>
      <trkpt lat="42.68095" lon="23.28107">
        <ele>649.924753</ele>
        <time>2022-04-04T07:36:00.890Z</time>
      </trkpt>
      <trkpt lat="42.68102" lon="23.28095">
        <ele>648.931667</ele>
        <time>2022-04-04T07:36:02.879Z</time>
      </trkpt>
      <trkpt lat="42.68111" lon="23.28083">
        <ele>647.846841</ele>
        <time>2022-04-04T07:36:04.866Z</time>
      </trkpt>
      <trkpt lat="42.68122" lon="23.2807">
        <ele>646.511002</ele>
        <time>2022-04-04T07:36:06.893Z</time>
      </trkpt>
      <trkpt lat="42.68136" lon="23.28056">
        <ele>644.935968</ele>
        <time>2022-04-04T07:36:08.860Z</time>
      </trkpt>
      <trkpt lat="42.68143" lon="23.28048">
        <ele>644.108036</ele>
        <time>2022-04-04T07:36:09.885Z</time>
      </trkpt>
      <trkpt lat="42.6815" lon="23.2804">
        <ele>643.292387</ele>
        <time>2022-04-04T07:36:10.861Z</time>
      </trkpt>
      <trkpt lat="42.68158" lon="23.28032">
        <ele>642.468581</ele>
        <time>2022-04-04T07:36:11.856Z</time>
      </trkpt>
      <trkpt lat="42.68165" lon="23.28024">
        <ele>641.619563</ele>
        <time>2022-04-04T07:36:12.865Z</time>
      </trkpt>
      <trkpt lat="42.68172" lon="23.28015">
        <ele>640.759528</ele>
        <time>2022-04-04T07:36:13.859Z</time>
      </trkpt>
      <trkpt lat="42.68179" lon="23.28006">
        <ele>639.912878</ele>
        <time>2022-04-04T07:36:14.865Z</time>
      </trkpt>
      <trkpt lat="42.68186" lon="23.27998">
        <ele>639.081577</ele>
        <time>2022-04-04T07:36:15.876Z</time>
      </trkpt>
      <trkpt lat="42.68193" lon="23.27989">
        <ele>638.245931</ele>
        <time>2022-04-04T07:36:16.880Z</time>
      </trkpt>
      <trkpt lat="42.682" lon="23.27981">
        <ele>637.414573</ele>
        <time>2022-04-04T07:36:17.854Z</time>
      </trkpt>
      <trkpt lat="42.68207" lon="23.27972">
        <ele>636.955914</ele>
        <time>2022-04-04T07:36:18.860Z</time>
      </trkpt>
      <trkpt lat="42.68214" lon="23.27963">
        <ele>636.490385</ele>
        <time>2022-04-04T07:36:19.850Z</time>
      </trkpt>
      <trkpt lat="42.6822" lon="23.27953">
        <ele>636.024117</ele>
        <time>2022-04-04T07:36:20.867Z</time>
      </trkpt>
      <trkpt lat="42.68227" lon="23.27943">
        <ele>635.560362</ele>
        <time>2022-04-04T07:36:21.892Z</time>
      </trkpt>
      <trkpt lat="42.68233" lon="23.27934">
        <ele>635.123842</ele>
        <time>2022-04-04T07:36:22.886Z</time>
      </trkpt>
      <trkpt lat="42.6824" lon="23.27924">
        <ele>634.663627</ele>
        <time>2022-04-04T07:36:23.850Z</time>
      </trkpt>
      <trkpt lat="42.68246" lon="23.27913">
        <ele>634.172034</ele>
        <time>2022-04-04T07:36:24.865Z</time>
      </trkpt>
      <trkpt lat="42.68253" lon="23.27903">
        <ele>633.683267</ele>
        <time>2022-04-04T07:36:25.867Z</time>
      </trkpt>
      <trkpt lat="42.6826" lon="23.27894">
        <ele>633.244484</ele>
        <time>2022-04-04T07:36:26.859Z</time>
      </trkpt>
      <trkpt lat="42.68273" lon="23.27879">
        <ele>632.41152</ele>
        <time>2022-04-04T07:36:28.861Z</time>
      </trkpt>
      <trkpt lat="42.6828" lon="23.27871">
        <ele>631.978785</ele>
        <time>2022-04-04T07:36:29.909Z</time>
      </trkpt>
      <trkpt lat="42.68287" lon="23.27863">
        <ele>631.543043</ele>
        <time>2022-04-04T07:36:30.873Z</time>
      </trkpt>
      <trkpt lat="42.68298" lon="23.27846">
        <ele>630.757204</ele>
        <time>2022-04-04T07:36:32.868Z</time>
      </trkpt>
      <trkpt lat="42.68307" lon="23.27832">
        <ele>630.108567</ele>
        <time>2022-04-04T07:36:34.872Z</time>
      </trkpt>
      <trkpt lat="42.68314" lon="23.2782">
        <ele>629.578689</ele>
        <time>2022-04-04T07:36:36.871Z</time>
      </trkpt>
      <trkpt lat="42.68323" lon="23.27808">
        <ele>628.99586</ele>
        <time>2022-04-04T07:36:39.875Z</time>
      </trkpt>
      <trkpt lat="42.68331" lon="23.27795">
        <ele>628.534273</ele>
        <time>2022-04-04T07:36:42.865Z</time>
      </trkpt>
      <trkpt lat="42.68339" lon="23.27783">
        <ele>628.174543</ele>
        <time>2022-04-04T07:36:45.880Z</time>
      </trkpt>
      <trkpt lat="42.68349" lon="23.27772">
        <ele>627.802726</ele>
        <time>2022-04-04T07:36:48.867Z</time>
      </trkpt>
      <trkpt lat="42.68356" lon="23.27764">
        <ele>627.517411</ele>
        <time>2022-04-04T07:36:50.868Z</time>
      </trkpt>
      <trkpt lat="42.68364" lon="23.27752">
        <ele>627.147906</ele>
        <time>2022-04-04T07:36:53.867Z</time>
      </trkpt>
      <trkpt lat="42.68373" lon="23.2774">
        <ele>626.757316</ele>
        <time>2022-04-04T07:36:56.862Z</time>
      </trkpt>
      <trkpt lat="42.6838" lon="23.27731">
        <ele>626.470384</ele>
        <time>2022-04-04T07:36:58.868Z</time>
      </trkpt>
      <trkpt lat="42.68387" lon="23.27723">
        <ele>626.19407</ele>
        <time>2022-04-04T07:37:00.887Z</time>
      </trkpt>
      <trkpt lat="42.68396" lon="23.2771">
        <ele>625.802419</ele>
        <time>2022-04-04T07:37:03.921Z</time>
      </trkpt>
      <trkpt lat="42.68403" lon="23.27697">
        <ele>625.420601</ele>
        <time>2022-04-04T07:37:06.860Z</time>
      </trkpt>
      <trkpt lat="42.6841" lon="23.27683">
        <ele>625.059088</ele>
        <time>2022-04-04T07:37:09.880Z</time>
      </trkpt>
      <trkpt lat="42.68416" lon="23.2767">
        <ele>624.721639</ele>
        <time>2022-04-04T07:37:12.870Z</time>
      </trkpt>
      <trkpt lat="42.68424" lon="23.27657">
        <ele>624.322338</ele>
        <time>2022-04-04T07:37:15.860Z</time>
      </trkpt>
      <trkpt lat="42.68431" lon="23.27647">
        <ele>624.034305</ele>
        <time>2022-04-04T07:37:17.872Z</time>
      </trkpt>
      <trkpt lat="42.68438" lon="23.27637">
        <ele>623.721424</ele>
        <time>2022-04-04T07:37:19.909Z</time>
      </trkpt>
      <trkpt lat="42.68445" lon="23.27629">
        <ele>623.447693</ele>
        <time>2022-04-04T07:37:21.872Z</time>
      </trkpt>
      <trkpt lat="42.68451" lon="23.2762">
        <ele>623.366653</ele>
        <time>2022-04-04T07:37:23.867Z</time>
      </trkpt>
      <trkpt lat="42.68457" lon="23.2761">
        <ele>623.389164</ele>
        <time>2022-04-04T07:37:25.909Z</time>
      </trkpt>
      <trkpt lat="42.68464" lon="23.27596">
        <ele>623.42054</ele>
        <time>2022-04-04T07:37:28.869Z</time>
      </trkpt>
      <trkpt lat="42.6847" lon="23.27582">
        <ele>623.44888</ele>
        <time>2022-04-04T07:37:31.901Z</time>
      </trkpt>
      <trkpt lat="42.68474" lon="23.2757">
        <ele>623.473684</ele>
        <time>2022-04-04T07:37:34.973Z</time>
      </trkpt>
      <trkpt lat="42.68482" lon="23.27555">
        <ele>623.505356</ele>
        <time>2022-04-04T07:37:37.840Z</time>
      </trkpt>
      <trkpt lat="42.68488" lon="23.27546">
        <ele>623.527651</ele>
        <time>2022-04-04T07:37:39.859Z</time>
      </trkpt>
      <trkpt lat="42.68496" lon="23.27532">
        <ele>623.558653</ele>
        <time>2022-04-04T07:37:42.857Z</time>
      </trkpt>
      <trkpt lat="42.68503" lon="23.2752">
        <ele>623.585886</ele>
        <time>2022-04-04T07:37:45.873Z</time>
      </trkpt>
      <trkpt lat="42.68509" lon="23.27506">
        <ele>623.61574</ele>
        <time>2022-04-04T07:37:48.883Z</time>
      </trkpt>
      <trkpt lat="42.68515" lon="23.2749">
        <ele>623.647743</ele>
        <time>2022-04-04T07:37:51.867Z</time>
      </trkpt>
      <trkpt lat="42.6852" lon="23.27478">
        <ele>623.671376</ele>
        <time>2022-04-04T07:37:53.887Z</time>
      </trkpt>
      <trkpt lat="42.68524" lon="23.27466">
        <ele>623.695511</ele>
        <time>2022-04-04T07:37:55.889Z</time>
      </trkpt>
      <trkpt lat="42.68532" lon="23.27454">
        <ele>623.722664</ele>
        <time>2022-04-04T07:37:58.880Z</time>
      </trkpt>
      <trkpt lat="42.68538" lon="23.27441">
        <ele>623.74992</ele>
        <time>2022-04-04T07:38:01.905Z</time>
      </trkpt>
      <trkpt lat="42.68546" lon="23.27434">
        <ele>623.774141</ele>
        <time>2022-04-04T07:38:04.869Z</time>
      </trkpt>
      <trkpt lat="42.68559" lon="23.27437">
        <ele>623.464059</ele>
        <time>2022-04-04T07:38:07.923Z</time>
      </trkpt>
      <trkpt lat="42.6857" lon="23.27447">
        <ele>622.897929</ele>
        <time>2022-04-04T07:38:10.864Z</time>
      </trkpt>
      <trkpt lat="42.68577" lon="23.27455">
        <ele>622.472872</ele>
        <time>2022-04-04T07:38:12.919Z</time>
      </trkpt>
      <trkpt lat="42.68586" lon="23.27462">
        <ele>622.030285</ele>
        <time>2022-04-04T07:38:14.858Z</time>
      </trkpt>
      <trkpt lat="42.68595" lon="23.27469">
        <ele>621.586114</ele>
        <time>2022-04-04T07:38:16.875Z</time>
      </trkpt>
      <trkpt lat="42.68604" lon="23.27475">
        <ele>621.145095</ele>
        <time>2022-04-04T07:38:18.889Z</time>
      </trkpt>
      <trkpt lat="42.68612" lon="23.27484">
        <ele>620.69809</ele>
        <time>2022-04-04T07:38:20.863Z</time>
      </trkpt>
      <trkpt lat="42.6862" lon="23.27491">
        <ele>620.249477</ele>
        <time>2022-04-04T07:38:22.859Z</time>
      </trkpt>
      <trkpt lat="42.6863" lon="23.27498">
        <ele>619.793812</ele>
        <time>2022-04-04T07:38:24.862Z</time>
      </trkpt>
      <trkpt lat="42.68639" lon="23.27504">
        <ele>619.338147</ele>
        <time>2022-04-04T07:38:26.867Z</time>
      </trkpt>
      <trkpt lat="42.68648" lon="23.27512">
        <ele>618.838204</ele>
        <time>2022-04-04T07:38:28.871Z</time>
      </trkpt>
      <trkpt lat="42.68659" lon="23.2752">
        <ele>618.322401</ele>
        <time>2022-04-04T07:38:30.898Z</time>
      </trkpt>
      <trkpt lat="42.68668" lon="23.27527">
        <ele>617.851274</ele>
        <time>2022-04-04T07:38:32.867Z</time>
      </trkpt>
      <trkpt lat="42.68677" lon="23.27533">
        <ele>617.400189</ele>
        <time>2022-04-04T07:38:34.869Z</time>
      </trkpt>
      <trkpt lat="42.68687" lon="23.2754">
        <ele>616.929878</ele>
        <time>2022-04-04T07:38:36.874Z</time>
      </trkpt>
      <trkpt lat="42.68697" lon="23.27547">
        <ele>616.426223</ele>
        <time>2022-04-04T07:38:38.881Z</time>
      </trkpt>
      <trkpt lat="42.68709" lon="23.27553">
        <ele>615.881681</ele>
        <time>2022-04-04T07:38:40.856Z</time>
      </trkpt>
      <trkpt lat="42.6872" lon="23.2756">
        <ele>615.718032</ele>
        <time>2022-04-04T07:38:42.869Z</time>
      </trkpt>
      <trkpt lat="42.6873" lon="23.27568">
        <ele>615.554103</ele>
        <time>2022-04-04T07:38:44.895Z</time>
      </trkpt>
      <trkpt lat="42.68739" lon="23.27576">
        <ele>615.398233</ele>
        <time>2022-04-04T07:38:46.857Z</time>
      </trkpt>
      <trkpt lat="42.68748" lon="23.27582">
        <ele>615.261661</ele>
        <time>2022-04-04T07:38:48.883Z</time>
      </trkpt>
      <trkpt lat="42.68757" lon="23.27586">
        <ele>615.123736</ele>
        <time>2022-04-04T07:38:50.869Z</time>
      </trkpt>
      <trkpt lat="42.68767" lon="23.27592">
        <ele>614.975108</ele>
        <time>2022-04-04T07:38:52.861Z</time>
      </trkpt>
      <trkpt lat="42.68777" lon="23.27599">
        <ele>614.81136</ele>
        <time>2022-04-04T07:38:54.869Z</time>
      </trkpt>
      <trkpt lat="42.68788" lon="23.27608">
        <ele>614.631027</ele>
        <time>2022-04-04T07:38:56.879Z</time>
      </trkpt>
      <trkpt lat="42.688" lon="23.27619">
        <ele>614.430986</ele>
        <time>2022-04-04T07:38:58.857Z</time>
      </trkpt>
      <trkpt lat="42.6881" lon="23.27627">
        <ele>614.253294</ele>
        <time>2022-04-04T07:39:00.858Z</time>
      </trkpt>
      <trkpt lat="42.68821" lon="23.27635">
        <ele>614.086816</ele>
        <time>2022-04-04T07:39:02.867Z</time>
      </trkpt>
      <trkpt lat="42.68831" lon="23.27641">
        <ele>613.928792</ele>
        <time>2022-04-04T07:39:04.869Z</time>
      </trkpt>
      <trkpt lat="42.68841" lon="23.27647">
        <ele>613.780164</ele>
        <time>2022-04-04T07:39:06.872Z</time>
      </trkpt>
      <trkpt lat="42.68851" lon="23.27652">
        <ele>613.62008</ele>
        <time>2022-04-04T07:39:08.860Z</time>
      </trkpt>
      <trkpt lat="42.68862" lon="23.2766">
        <ele>613.443982</ele>
        <time>2022-04-04T07:39:10.860Z</time>
      </trkpt>
      <trkpt lat="42.68873" lon="23.27667">
        <ele>613.218462</ele>
        <time>2022-04-04T07:39:12.869Z</time>
      </trkpt>
      <trkpt lat="42.68884" lon="23.27674">
        <ele>612.924</ele>
        <time>2022-04-04T07:39:14.865Z</time>
      </trkpt>
      <trkpt lat="42.68894" lon="23.27682">
        <ele>612.645968</ele>
        <time>2022-04-04T07:39:16.887Z</time>
      </trkpt>
      <trkpt lat="42.68904" lon="23.2769">
        <ele>612.347971</ele>
        <time>2022-04-04T07:39:18.866Z</time>
      </trkpt>
      <trkpt lat="42.68914" lon="23.27698">
        <ele>612.054497</ele>
        <time>2022-04-04T07:39:20.867Z</time>
      </trkpt>
      <trkpt lat="42.68925" lon="23.27706">
        <ele>611.758285</ele>
        <time>2022-04-04T07:39:22.880Z</time>
      </trkpt>
      <trkpt lat="42.68936" lon="23.27714">
        <ele>611.448019</ele>
        <time>2022-04-04T07:39:24.866Z</time>
      </trkpt>
      <trkpt lat="42.68947" lon="23.27722">
        <ele>611.141341</ele>
        <time>2022-04-04T07:39:26.868Z</time>
      </trkpt>
      <trkpt lat="42.68959" lon="23.2773">
        <ele>610.820919</ele>
        <time>2022-04-04T07:39:28.866Z</time>
      </trkpt>
      <trkpt lat="42.6897" lon="23.27739">
        <ele>610.503475</ele>
        <time>2022-04-04T07:39:30.869Z</time>
      </trkpt>
      <trkpt lat="42.6898" lon="23.27748">
        <ele>610.199202</ele>
        <time>2022-04-04T07:39:32.897Z</time>
      </trkpt>
      <trkpt lat="42.6899" lon="23.27757">
        <ele>609.901917</ele>
        <time>2022-04-04T07:39:34.879Z</time>
      </trkpt>
      <trkpt lat="42.69001" lon="23.27765">
        <ele>609.598142</ele>
        <time>2022-04-04T07:39:36.867Z</time>
      </trkpt>
      <trkpt lat="42.6901" lon="23.27773">
        <ele>609.337415</ele>
        <time>2022-04-04T07:39:38.856Z</time>
      </trkpt>
      <trkpt lat="42.6902" lon="23.27782">
        <ele>609.038178</ele>
        <time>2022-04-04T07:39:40.862Z</time>
      </trkpt>
      <trkpt lat="42.69032" lon="23.27793">
        <ele>608.972395</ele>
        <time>2022-04-04T07:39:42.905Z</time>
      </trkpt>
      <trkpt lat="42.69042" lon="23.27804">
        <ele>609.043088</ele>
        <time>2022-04-04T07:39:44.863Z</time>
      </trkpt>
      <trkpt lat="42.69053" lon="23.27814">
        <ele>609.114431</ele>
        <time>2022-04-04T07:39:46.863Z</time>
      </trkpt>
      <trkpt lat="42.69065" lon="23.27824">
        <ele>609.18978</ele>
        <time>2022-04-04T07:39:48.873Z</time>
      </trkpt>
      <trkpt lat="42.69076" lon="23.27835">
        <ele>609.265606</ele>
        <time>2022-04-04T07:39:50.875Z</time>
      </trkpt>
      <trkpt lat="42.69086" lon="23.27847">
        <ele>609.335845</ele>
        <time>2022-04-04T07:39:52.867Z</time>
      </trkpt>
      <trkpt lat="42.69095" lon="23.2786">
        <ele>609.405609</ele>
        <time>2022-04-04T07:39:54.863Z</time>
      </trkpt>
      <trkpt lat="42.69103" lon="23.27873">
        <ele>609.471159</ele>
        <time>2022-04-04T07:39:56.870Z</time>
      </trkpt>
      <trkpt lat="42.69112" lon="23.27884">
        <ele>609.534616</ele>
        <time>2022-04-04T07:39:58.849Z</time>
      </trkpt>
      <trkpt lat="42.6912" lon="23.27896">
        <ele>609.600841</ele>
        <time>2022-04-04T07:40:00.902Z</time>
      </trkpt>
      <trkpt lat="42.69129" lon="23.27908">
        <ele>609.668481</ele>
        <time>2022-04-04T07:40:02.872Z</time>
      </trkpt>
      <trkpt lat="42.69138" lon="23.2792">
        <ele>609.737735</ele>
        <time>2022-04-04T07:40:04.875Z</time>
      </trkpt>
      <trkpt lat="42.69145" lon="23.27932">
        <ele>609.799976</ele>
        <time>2022-04-04T07:40:06.875Z</time>
      </trkpt>
      <trkpt lat="42.69154" lon="23.27945">
        <ele>609.8685</ele>
        <time>2022-04-04T07:40:08.869Z</time>
      </trkpt>
      <trkpt lat="42.69162" lon="23.27958">
        <ele>610.075861</ele>
        <time>2022-04-04T07:40:10.851Z</time>
      </trkpt>
      <trkpt lat="42.69172" lon="23.2797">
        <ele>610.352211</ele>
        <time>2022-04-04T07:40:12.858Z</time>
      </trkpt>
      <trkpt lat="42.6918" lon="23.27983">
        <ele>610.627814</ele>
        <time>2022-04-04T07:40:14.856Z</time>
      </trkpt>
      <trkpt lat="42.6919" lon="23.27996">
        <ele>610.918017</ele>
        <time>2022-04-04T07:40:16.857Z</time>
      </trkpt>
      <trkpt lat="42.692" lon="23.28008">
        <ele>611.199847</ele>
        <time>2022-04-04T07:40:18.863Z</time>
      </trkpt>
      <trkpt lat="42.69209" lon="23.28019">
        <ele>611.46827</ele>
        <time>2022-04-04T07:40:20.872Z</time>
      </trkpt>
      <trkpt lat="42.69219" lon="23.28031">
        <ele>611.746201</ele>
        <time>2022-04-04T07:40:22.861Z</time>
      </trkpt>
      <trkpt lat="42.69229" lon="23.28043">
        <ele>612.035188</ele>
        <time>2022-04-04T07:40:24.884Z</time>
      </trkpt>
      <trkpt lat="42.69236" lon="23.28056">
        <ele>612.291421</ele>
        <time>2022-04-04T07:40:26.875Z</time>
      </trkpt>
      <trkpt lat="42.69242" lon="23.28067">
        <ele>612.505352</ele>
        <time>2022-04-04T07:40:28.879Z</time>
      </trkpt>
      <trkpt lat="42.69248" lon="23.28077">
        <ele>612.702731</ele>
        <time>2022-04-04T07:40:30.880Z</time>
      </trkpt>
      <trkpt lat="42.69254" lon="23.28086">
        <ele>612.908483</ele>
        <time>2022-04-04T07:40:32.886Z</time>
      </trkpt>
      <trkpt lat="42.6926" lon="23.28097">
        <ele>613.120984</ele>
        <time>2022-04-04T07:40:34.857Z</time>
      </trkpt>
      <trkpt lat="42.69266" lon="23.28107">
        <ele>613.332676</ele>
        <time>2022-04-04T07:40:36.871Z</time>
      </trkpt>
      <trkpt lat="42.69272" lon="23.28118">
        <ele>613.5489</ele>
        <time>2022-04-04T07:40:38.903Z</time>
      </trkpt>
      <trkpt lat="42.69281" lon="23.28131">
        <ele>613.676377</ele>
        <time>2022-04-04T07:40:41.858Z</time>
      </trkpt>
      <trkpt lat="42.6929" lon="23.28142">
        <ele>613.411636</ele>
        <time>2022-04-04T07:40:44.902Z</time>
      </trkpt>
      <trkpt lat="42.69299" lon="23.28156">
        <ele>613.110212</ele>
        <time>2022-04-04T07:40:47.860Z</time>
      </trkpt>
      <trkpt lat="42.69307" lon="23.28167">
        <ele>612.858414</ele>
        <time>2022-04-04T07:40:49.874Z</time>
      </trkpt>
      <trkpt lat="42.69315" lon="23.28179">
        <ele>612.608686</ele>
        <time>2022-04-04T07:40:51.871Z</time>
      </trkpt>
      <trkpt lat="42.69321" lon="23.28191">
        <ele>612.361243</ele>
        <time>2022-04-04T07:40:53.870Z</time>
      </trkpt>
      <trkpt lat="42.69329" lon="23.28203">
        <ele>612.093592</ele>
        <time>2022-04-04T07:40:55.915Z</time>
      </trkpt>
      <trkpt lat="42.69335" lon="23.28216">
        <ele>611.849878</ele>
        <time>2022-04-04T07:40:57.870Z</time>
      </trkpt>
      <trkpt lat="42.69343" lon="23.28228">
        <ele>611.586727</ele>
        <time>2022-04-04T07:40:59.866Z</time>
      </trkpt>
      <trkpt lat="42.69353" lon="23.28239">
        <ele>611.303461</ele>
        <time>2022-04-04T07:41:01.904Z</time>
      </trkpt>
      <trkpt lat="42.69363" lon="23.28252">
        <ele>610.994594</ele>
        <time>2022-04-04T07:41:03.864Z</time>
      </trkpt>
      <trkpt lat="42.69373" lon="23.28264">
        <ele>610.707501</ele>
        <time>2022-04-04T07:41:05.856Z</time>
      </trkpt>
      <trkpt lat="42.69383" lon="23.28275">
        <ele>610.427355</ele>
        <time>2022-04-04T07:41:07.868Z</time>
      </trkpt>
      <trkpt lat="42.69393" lon="23.28285">
        <ele>610.144862</ele>
        <time>2022-04-04T07:41:09.864Z</time>
      </trkpt>
      <trkpt lat="42.69402" lon="23.28296">
        <ele>609.876928</ele>
        <time>2022-04-04T07:41:11.870Z</time>
      </trkpt>
      <trkpt lat="42.6941" lon="23.28307">
        <ele>609.709497</ele>
        <time>2022-04-04T07:41:13.871Z</time>
      </trkpt>
      <trkpt lat="42.69418" lon="23.28319">
        <ele>609.586211</ele>
        <time>2022-04-04T07:41:15.867Z</time>
      </trkpt>
      <trkpt lat="42.69425" lon="23.28334">
        <ele>609.45037</ele>
        <time>2022-04-04T07:41:17.865Z</time>
      </trkpt>
      <trkpt lat="42.69434" lon="23.28348">
        <ele>609.31309</ele>
        <time>2022-04-04T07:41:19.875Z</time>
      </trkpt>
      <trkpt lat="42.69441" lon="23.28361">
        <ele>609.190532</ele>
        <time>2022-04-04T07:41:21.861Z</time>
      </trkpt>
      <trkpt lat="42.69451" lon="23.28372">
        <ele>609.066552</ele>
        <time>2022-04-04T07:41:23.867Z</time>
      </trkpt>
      <trkpt lat="42.6946" lon="23.28382">
        <ele>608.944915</ele>
        <time>2022-04-04T07:41:25.860Z</time>
      </trkpt>
      <trkpt lat="42.69468" lon="23.28393">
        <ele>608.825576</ele>
        <time>2022-04-04T07:41:27.892Z</time>
      </trkpt>
      <trkpt lat="42.69477" lon="23.28405">
        <ele>608.69982</ele>
        <time>2022-04-04T07:41:29.900Z</time>
      </trkpt>
      <trkpt lat="42.69484" lon="23.28417">
        <ele>608.581952</ele>
        <time>2022-04-04T07:41:31.873Z</time>
      </trkpt>
      <trkpt lat="42.6949" lon="23.28428">
        <ele>608.482129</ele>
        <time>2022-04-04T07:41:33.869Z</time>
      </trkpt>
      <trkpt lat="42.69497" lon="23.28439">
        <ele>608.373456</ele>
        <time>2022-04-04T07:41:35.909Z</time>
      </trkpt>
      <trkpt lat="42.69503" lon="23.2845">
        <ele>608.268343</ele>
        <time>2022-04-04T07:41:37.879Z</time>
      </trkpt>
      <trkpt lat="42.6951" lon="23.28461">
        <ele>608.162642</ele>
        <time>2022-04-04T07:41:39.865Z</time>
      </trkpt>
      <trkpt lat="42.69516" lon="23.28473">
        <ele>608.053949</ele>
        <time>2022-04-04T07:41:41.872Z</time>
      </trkpt>
      <trkpt lat="42.69523" lon="23.28484">
        <ele>607.948138</ele>
        <time>2022-04-04T07:41:43.861Z</time>
      </trkpt>
      <trkpt lat="42.6953" lon="23.28495">
        <ele>608.277854</ele>
        <time>2022-04-04T07:41:45.866Z</time>
      </trkpt>
      <trkpt lat="42.69538" lon="23.28506">
        <ele>608.643208</ele>
        <time>2022-04-04T07:41:47.866Z</time>
      </trkpt>
      <trkpt lat="42.69545" lon="23.28516">
        <ele>608.975692</ele>
        <time>2022-04-04T07:41:49.875Z</time>
      </trkpt>
      <trkpt lat="42.69552" lon="23.28527">
        <ele>609.321614</ele>
        <time>2022-04-04T07:41:52.900Z</time>
      </trkpt>
      <trkpt lat="42.69557" lon="23.28541">
        <ele>609.671818</ele>
        <time>2022-04-04T07:41:56.863Z</time>
      </trkpt>
      <trkpt lat="42.69562" lon="23.28553">
        <ele>609.994486</ele>
        <time>2022-04-04T07:41:59.871Z</time>
      </trkpt>
      <trkpt lat="42.69565" lon="23.28568">
        <ele>610.367589</ele>
        <time>2022-04-04T07:42:02.972Z</time>
      </trkpt>
      <trkpt lat="42.69566" lon="23.28586">
        <ele>610.787305</ele>
        <time>2022-04-04T07:42:05.871Z</time>
      </trkpt>
      <trkpt lat="42.69566" lon="23.28599">
        <ele>611.080169</ele>
        <time>2022-04-04T07:42:07.895Z</time>
      </trkpt>
      <trkpt lat="42.69565" lon="23.28616">
        <ele>611.493653</ele>
        <time>2022-04-04T07:42:10.852Z</time>
      </trkpt>
      <trkpt lat="42.69564" lon="23.28635">
        <ele>611.92741</ele>
        <time>2022-04-04T07:42:13.905Z</time>
      </trkpt>
      <trkpt lat="42.69565" lon="23.28649">
        <ele>612.255478</ele>
        <time>2022-04-04T07:42:15.923Z</time>
      </trkpt>
      <trkpt lat="42.69565" lon="23.28662">
        <ele>612.56937</ele>
        <time>2022-04-04T07:42:17.882Z</time>
      </trkpt>
      <trkpt lat="42.69566" lon="23.28674">
        <ele>612.858903</ele>
        <time>2022-04-04T07:42:19.989Z</time>
      </trkpt>
      <trkpt lat="42.69566" lon="23.28692">
        <ele>613.282977</ele>
        <time>2022-04-04T07:42:22.859Z</time>
      </trkpt>
      <trkpt lat="42.69567" lon="23.28708">
        <ele>613.646071</ele>
        <time>2022-04-04T07:42:25.851Z</time>
      </trkpt>
      <trkpt lat="42.69563" lon="23.28719">
        <ele>613.719986</ele>
        <time>2022-04-04T07:42:29.868Z</time>
      </trkpt>
      <trkpt lat="42.69557" lon="23.28737">
        <ele>613.794824</ele>
        <time>2022-04-04T08:06:29.887Z</time>
      </trkpt>
      <trkpt lat="42.6955" lon="23.28728">
        <ele>613.843316</ele>
        <time>2022-04-04T08:06:53.878Z</time>
      </trkpt>
      <trkpt lat="42.69544" lon="23.28718">
        <ele>613.892426</ele>
        <time>2022-04-04T08:07:03.872Z</time>
      </trkpt>
      <trkpt lat="42.69552" lon="23.28705">
        <ele>613.957135</ele>
        <time>2022-04-04T08:07:07.895Z</time>
      </trkpt>
      <trkpt lat="42.69563" lon="23.28696">
        <ele>614.022092</ele>
        <time>2022-04-04T08:07:10.867Z</time>
      </trkpt>
      <trkpt lat="42.69572" lon="23.28688">
        <ele>614.077672</ele>
        <time>2022-04-04T08:07:14.877Z</time>
      </trkpt>
      <trkpt lat="42.69578" lon="23.28677">
        <ele>614.127414</ele>
        <time>2022-04-04T08:07:17.880Z</time>
      </trkpt>
      <trkpt lat="42.6958" lon="23.28661">
        <ele>614.189749</ele>
        <time>2022-04-04T08:07:20.867Z</time>
      </trkpt>
      <trkpt lat="42.69579" lon="23.28649">
        <ele>614.235778</ele>
        <time>2022-04-04T08:07:22.929Z</time>
      </trkpt>
      <trkpt lat="42.69581" lon="23.28631">
        <ele>614.301266</ele>
        <time>2022-04-04T08:07:25.894Z</time>
      </trkpt>
      <trkpt lat="42.69583" lon="23.28615">
        <ele>614.363637</ele>
        <time>2022-04-04T08:07:28.900Z</time>
      </trkpt>
      <trkpt lat="42.69583" lon="23.286">
        <ele>614.418282</ele>
        <time>2022-04-04T08:07:31.862Z</time>
      </trkpt>
      <trkpt lat="42.69582" lon="23.28586">
        <ele>614.472324</ele>
        <time>2022-04-04T08:07:34.890Z</time>
      </trkpt>
      <trkpt lat="42.69579" lon="23.28571">
        <ele>614.528297</ele>
        <time>2022-04-04T08:07:37.955Z</time>
      </trkpt>
      <trkpt lat="42.69574" lon="23.28556">
        <ele>614.607333</ele>
        <time>2022-04-04T08:07:40.905Z</time>
      </trkpt>
      <trkpt lat="42.6957" lon="23.2854">
        <ele>615.716946</ele>
        <time>2022-04-04T08:07:43.901Z</time>
      </trkpt>
      <trkpt lat="42.69566" lon="23.28524">
        <ele>616.830065</ele>
        <time>2022-04-04T08:07:46.878Z</time>
      </trkpt>
      <trkpt lat="42.69558" lon="23.28512">
        <ele>617.911956</ele>
        <time>2022-04-04T08:07:49.864Z</time>
      </trkpt>
      <trkpt lat="42.69551" lon="23.285">
        <ele>618.91442</ele>
        <time>2022-04-04T08:07:52.894Z</time>
      </trkpt>
      <trkpt lat="42.69546" lon="23.28489">
        <ele>619.79839</ele>
        <time>2022-04-04T08:07:55.922Z</time>
      </trkpt>
      <trkpt lat="42.69539" lon="23.28477">
        <ele>620.820668</ele>
        <time>2022-04-04T08:07:58.867Z</time>
      </trkpt>
      <trkpt lat="42.69531" lon="23.28467">
        <ele>621.780085</ele>
        <time>2022-04-04T08:08:01.928Z</time>
      </trkpt>
      <trkpt lat="42.69521" lon="23.28457">
        <ele>622.907138</ele>
        <time>2022-04-04T08:08:04.888Z</time>
      </trkpt>
      <trkpt lat="42.69511" lon="23.28447">
        <ele>624.016544</ele>
        <time>2022-04-04T08:08:07.877Z</time>
      </trkpt>
      <trkpt lat="42.69501" lon="23.28438">
        <ele>625.103766</ele>
        <time>2022-04-04T08:08:10.879Z</time>
      </trkpt>
      <trkpt lat="42.69493" lon="23.28429">
        <ele>626.065689</ele>
        <time>2022-04-04T08:08:13.887Z</time>
      </trkpt>
      <trkpt lat="42.69484" lon="23.28419">
        <ele>627.093182</ele>
        <time>2022-04-04T08:08:16.873Z</time>
      </trkpt>
      <trkpt lat="42.69477" lon="23.28408">
        <ele>628.045572</ele>
        <time>2022-04-04T08:08:19.886Z</time>
      </trkpt>
      <trkpt lat="42.69469" lon="23.28396">
        <ele>629.130328</ele>
        <time>2022-04-04T08:08:22.879Z</time>
      </trkpt>
      <trkpt lat="42.69461" lon="23.28385">
        <ele>630.166002</ele>
        <time>2022-04-04T08:08:25.851Z</time>
      </trkpt>
      <trkpt lat="42.69453" lon="23.28373">
        <ele>631.317783</ele>
        <time>2022-04-04T08:08:28.905Z</time>
      </trkpt>
      <trkpt lat="42.69445" lon="23.28361">
        <ele>632.606758</ele>
        <time>2022-04-04T08:08:31.938Z</time>
      </trkpt>
      <trkpt lat="42.69436" lon="23.28352">
        <ele>633.824391</ele>
        <time>2022-04-04T08:08:34.878Z</time>
      </trkpt>
      <trkpt lat="42.69428" lon="23.28345">
        <ele>634.876411</ele>
        <time>2022-04-04T08:08:36.872Z</time>
      </trkpt>
      <trkpt lat="42.69422" lon="23.28337">
        <ele>635.875998</ele>
        <time>2022-04-04T08:08:38.860Z</time>
      </trkpt>
      <trkpt lat="42.69412" lon="23.28327">
        <ele>637.230891</ele>
        <time>2022-04-04T08:08:41.886Z</time>
      </trkpt>
      <trkpt lat="42.69404" lon="23.28318">
        <ele>638.327603</ele>
        <time>2022-04-04T08:08:44.888Z</time>
      </trkpt>
      <trkpt lat="42.69396" lon="23.28308">
        <ele>639.518572</ele>
        <time>2022-04-04T08:08:47.871Z</time>
      </trkpt>
      <trkpt lat="42.69387" lon="23.28301">
        <ele>640.751148</ele>
        <time>2022-04-04T08:08:50.872Z</time>
      </trkpt>
      <trkpt lat="42.69378" lon="23.28289">
        <ele>642.089502</ele>
        <time>2022-04-04T08:08:53.880Z</time>
      </trkpt>
      <trkpt lat="42.6937" lon="23.28276">
        <ele>643.466364</ele>
        <time>2022-04-04T08:08:56.875Z</time>
      </trkpt>
      <trkpt lat="42.69365" lon="23.28266">
        <ele>644.475484</ele>
        <time>2022-04-04T08:08:58.877Z</time>
      </trkpt>
      <trkpt lat="42.69359" lon="23.28256">
        <ele>645.503967</ele>
        <time>2022-04-04T08:09:00.881Z</time>
      </trkpt>
      <trkpt lat="42.69351" lon="23.28244">
        <ele>646.829024</ele>
        <time>2022-04-04T08:09:03.856Z</time>
      </trkpt>
      <trkpt lat="42.69343" lon="23.28233">
        <ele>648.087028</ele>
        <time>2022-04-04T08:09:06.884Z</time>
      </trkpt>
      <trkpt lat="42.69336" lon="23.28221">
        <ele>649.371135</ele>
        <time>2022-04-04T08:09:09.879Z</time>
      </trkpt>
      <trkpt lat="42.69329" lon="23.28206">
        <ele>650.664785</ele>
        <time>2022-04-04T08:09:12.865Z</time>
      </trkpt>
      <trkpt lat="42.69322" lon="23.28192">
        <ele>648.740873</ele>
        <time>2022-04-04T08:09:15.874Z</time>
      </trkpt>
      <trkpt lat="42.69316" lon="23.28182">
        <ele>647.19663</ele>
        <time>2022-04-04T08:09:18.865Z</time>
      </trkpt>
      <trkpt lat="42.69309" lon="23.28172">
        <ele>645.666512</ele>
        <time>2022-04-04T08:09:26.892Z</time>
      </trkpt>
      <trkpt lat="42.69298" lon="23.28147">
        <ele>642.336444</ele>
        <time>2022-04-04T08:09:53.885Z</time>
      </trkpt>
      <trkpt lat="42.6929" lon="23.28137">
        <ele>640.609003</ele>
        <time>2022-04-04T08:09:57.868Z</time>
      </trkpt>
      <trkpt lat="42.69282" lon="23.28127">
        <ele>638.958931</ele>
        <time>2022-04-04T08:10:01.867Z</time>
      </trkpt>
      <trkpt lat="42.69276" lon="23.28116">
        <ele>637.368371</ele>
        <time>2022-04-04T08:10:05.875Z</time>
      </trkpt>
      <trkpt lat="42.69273" lon="23.28103">
        <ele>635.796215</ele>
        <time>2022-04-04T08:10:09.879Z</time>
      </trkpt>
      <trkpt lat="42.69266" lon="23.2809">
        <ele>634.001668</ele>
        <time>2022-04-04T08:10:13.873Z</time>
      </trkpt>
      <trkpt lat="42.69257" lon="23.2808">
        <ele>632.148958</ele>
        <time>2022-04-04T08:10:17.913Z</time>
      </trkpt>
      <trkpt lat="42.69249" lon="23.28071">
        <ele>630.555045</ele>
        <time>2022-04-04T08:10:20.880Z</time>
      </trkpt>
      <trkpt lat="42.69242" lon="23.2806">
        <ele>628.841828</ele>
        <time>2022-04-04T08:10:23.879Z</time>
      </trkpt>
      <trkpt lat="42.69235" lon="23.28047">
        <ele>626.946129</ele>
        <time>2022-04-04T08:10:26.859Z</time>
      </trkpt>
      <trkpt lat="42.69225" lon="23.28037">
        <ele>625.095603</ele>
        <time>2022-04-04T08:10:29.880Z</time>
      </trkpt>
      <trkpt lat="42.69217" lon="23.28026">
        <ele>623.297884</ele>
        <time>2022-04-04T08:10:32.882Z</time>
      </trkpt>
      <trkpt lat="42.6921" lon="23.28017">
        <ele>622.592591</ele>
        <time>2022-04-04T08:10:35.878Z</time>
      </trkpt>
      <trkpt lat="42.69202" lon="23.28007">
        <ele>622.480324</ele>
        <time>2022-04-04T08:10:38.871Z</time>
      </trkpt>
      <trkpt lat="42.69195" lon="23.27995">
        <ele>622.365397</ele>
        <time>2022-04-04T08:10:41.874Z</time>
      </trkpt>
      <trkpt lat="42.69186" lon="23.27982">
        <ele>622.224641</ele>
        <time>2022-04-04T08:10:44.900Z</time>
      </trkpt>
      <trkpt lat="42.69179" lon="23.27974">
        <ele>622.125754</ele>
        <time>2022-04-04T08:10:46.879Z</time>
      </trkpt>
      <trkpt lat="42.69173" lon="23.27965">
        <ele>622.026732</ele>
        <time>2022-04-04T08:10:48.870Z</time>
      </trkpt>
      <trkpt lat="42.69164" lon="23.27953">
        <ele>621.893107</ele>
        <time>2022-04-04T08:10:51.866Z</time>
      </trkpt>
      <trkpt lat="42.69156" lon="23.27941">
        <ele>621.770866</ele>
        <time>2022-04-04T08:10:54.886Z</time>
      </trkpt>
      <trkpt lat="42.69151" lon="23.27928">
        <ele>621.649006</ele>
        <time>2022-04-04T08:10:57.886Z</time>
      </trkpt>
      <trkpt lat="42.69142" lon="23.27916">
        <ele>621.515381</ele>
        <time>2022-04-04T08:11:00.877Z</time>
      </trkpt>
      <trkpt lat="42.69132" lon="23.27905">
        <ele>621.377226</ele>
        <time>2022-04-04T08:11:03.886Z</time>
      </trkpt>
      <trkpt lat="42.69122" lon="23.27893">
        <ele>621.231946</ele>
        <time>2022-04-04T08:11:06.858Z</time>
      </trkpt>
      <trkpt lat="42.69114" lon="23.27878">
        <ele>621.093278</ele>
        <time>2022-04-04T08:11:09.882Z</time>
      </trkpt>
      <trkpt lat="42.69108" lon="23.27864">
        <ele>620.967147</ele>
        <time>2022-04-04T08:11:12.895Z</time>
      </trkpt>
      <trkpt lat="42.69102" lon="23.27855">
        <ele>620.864621</ele>
        <time>2022-04-04T08:11:14.880Z</time>
      </trkpt>
      <trkpt lat="42.69096" lon="23.27846">
        <ele>620.767383</ele>
        <time>2022-04-04T08:11:16.859Z</time>
      </trkpt>
      <trkpt lat="42.69088" lon="23.27837">
        <ele>620.602497</ele>
        <time>2022-04-04T08:11:18.885Z</time>
      </trkpt>
      <trkpt lat="42.6908" lon="23.27829">
        <ele>620.402764</ele>
        <time>2022-04-04T08:11:20.868Z</time>
      </trkpt>
      <trkpt lat="42.69072" lon="23.27821">
        <ele>620.207642</ele>
        <time>2022-04-04T08:11:22.858Z</time>
      </trkpt>
      <trkpt lat="42.69065" lon="23.27814">
        <ele>620.028699</ele>
        <time>2022-04-04T08:11:24.872Z</time>
      </trkpt>
      <trkpt lat="42.69055" lon="23.27803">
        <ele>619.77505</ele>
        <time>2022-04-04T08:11:27.904Z</time>
      </trkpt>
      <trkpt lat="42.69045" lon="23.27793">
        <ele>619.532823</ele>
        <time>2022-04-04T08:11:30.875Z</time>
      </trkpt>
      <trkpt lat="42.69036" lon="23.27784">
        <ele>619.308492</ele>
        <time>2022-04-04T08:11:33.879Z</time>
      </trkpt>
      <trkpt lat="42.69028" lon="23.27772">
        <ele>619.071798</ele>
        <time>2022-04-04T08:11:36.878Z</time>
      </trkpt>
      <trkpt lat="42.69019" lon="23.27763">
        <ele>618.856703</ele>
        <time>2022-04-04T08:11:39.876Z</time>
      </trkpt>
      <trkpt lat="42.6901" lon="23.27753">
        <ele>618.617108</ele>
        <time>2022-04-04T08:11:42.874Z</time>
      </trkpt>
      <trkpt lat="42.69001" lon="23.27745">
        <ele>618.400656</ele>
        <time>2022-04-04T08:11:45.872Z</time>
      </trkpt>
      <trkpt lat="42.68991" lon="23.27738">
        <ele>618.187447</ele>
        <time>2022-04-04T08:11:48.878Z</time>
      </trkpt>
      <trkpt lat="42.68982" lon="23.27729">
        <ele>617.96855</ele>
        <time>2022-04-04T08:11:51.879Z</time>
      </trkpt>
      <trkpt lat="42.68973" lon="23.2772">
        <ele>617.742274</ele>
        <time>2022-04-04T08:11:54.879Z</time>
      </trkpt>
      <trkpt lat="42.68962" lon="23.27712">
        <ele>617.494115</ele>
        <time>2022-04-04T08:11:57.906Z</time>
      </trkpt>
      <trkpt lat="42.68951" lon="23.27704">
        <ele>617.244329</ele>
        <time>2022-04-04T08:12:00.878Z</time>
      </trkpt>
      <trkpt lat="42.6894" lon="23.27697">
        <ele>616.998033</ele>
        <time>2022-04-04T08:12:03.910Z</time>
      </trkpt>
      <trkpt lat="42.68928" lon="23.2769">
        <ele>616.720773</ele>
        <time>2022-04-04T08:12:06.901Z</time>
      </trkpt>
      <trkpt lat="42.68916" lon="23.27684">
        <ele>616.450778</ele>
        <time>2022-04-04T08:12:09.865Z</time>
      </trkpt>
      <trkpt lat="42.68905" lon="23.27677">
        <ele>616.201799</ele>
        <time>2022-04-04T08:12:12.866Z</time>
      </trkpt>
      <trkpt lat="42.68896" lon="23.2767">
        <ele>615.965812</ele>
        <time>2022-04-04T08:12:15.906Z</time>
      </trkpt>
      <trkpt lat="42.68885" lon="23.27664">
        <ele>615.716886</ele>
        <time>2022-04-04T08:12:18.880Z</time>
      </trkpt>
      <trkpt lat="42.68874" lon="23.27656">
        <ele>615.464645</ele>
        <time>2022-04-04T08:12:21.855Z</time>
      </trkpt>
      <trkpt lat="42.68864" lon="23.2765">
        <ele>615.233074</ele>
        <time>2022-04-04T08:12:24.869Z</time>
      </trkpt>
      <trkpt lat="42.68854" lon="23.27644">
        <ele>614.987983</ele>
        <time>2022-04-04T08:12:27.889Z</time>
      </trkpt>
      <trkpt lat="42.68843" lon="23.27636">
        <ele>614.734503</ele>
        <time>2022-04-04T08:12:30.893Z</time>
      </trkpt>
      <trkpt lat="42.68834" lon="23.27629">
        <ele>614.505938</ele>
        <time>2022-04-04T08:12:33.877Z</time>
      </trkpt>
      <trkpt lat="42.68824" lon="23.27621">
        <ele>614.255273</ele>
        <time>2022-04-04T08:12:36.881Z</time>
      </trkpt>
      <trkpt lat="42.68814" lon="23.27611">
        <ele>613.999273</ele>
        <time>2022-04-04T08:12:39.875Z</time>
      </trkpt>
      <trkpt lat="42.68806" lon="23.27604">
        <ele>613.802845</ele>
        <time>2022-04-04T08:12:41.867Z</time>
      </trkpt>
      <trkpt lat="42.68795" lon="23.27595">
        <ele>613.533252</ele>
        <time>2022-04-04T08:12:44.912Z</time>
      </trkpt>
      <trkpt lat="42.68785" lon="23.27588">
        <ele>613.348364</ele>
        <time>2022-04-04T08:12:47.871Z</time>
      </trkpt>
      <trkpt lat="42.68775" lon="23.27583">
        <ele>613.317337</ele>
        <time>2022-04-04T08:12:50.887Z</time>
      </trkpt>
      <trkpt lat="42.68767" lon="23.27577">
        <ele>613.291154</ele>
        <time>2022-04-04T08:12:52.862Z</time>
      </trkpt>
      <trkpt lat="42.68758" lon="23.2757">
        <ele>613.262604</ele>
        <time>2022-04-04T08:12:54.882Z</time>
      </trkpt>
      <trkpt lat="42.6875" lon="23.27564">
        <ele>613.234448</ele>
        <time>2022-04-04T08:12:56.868Z</time>
      </trkpt>
      <trkpt lat="42.68739" lon="23.27555">
        <ele>613.198635</ele>
        <time>2022-04-04T08:12:59.868Z</time>
      </trkpt>
      <trkpt lat="42.68729" lon="23.27547">
        <ele>613.164742</ele>
        <time>2022-04-04T08:13:02.886Z</time>
      </trkpt>
      <trkpt lat="42.68718" lon="23.27541">
        <ele>613.131679</ele>
        <time>2022-04-04T08:13:05.874Z</time>
      </trkpt>
      <trkpt lat="42.68707" lon="23.27533">
        <ele>613.095519</ele>
        <time>2022-04-04T08:13:08.879Z</time>
      </trkpt>
      <trkpt lat="42.68695" lon="23.27525">
        <ele>613.057287</ele>
        <time>2022-04-04T08:13:11.925Z</time>
      </trkpt>
      <trkpt lat="42.68683" lon="23.27517">
        <ele>613.020011</ele>
        <time>2022-04-04T08:13:14.880Z</time>
      </trkpt>
      <trkpt lat="42.68675" lon="23.27511">
        <ele>612.994029</ele>
        <time>2022-04-04T08:13:16.869Z</time>
      </trkpt>
      <trkpt lat="42.68665" lon="23.27504">
        <ele>612.960679</ele>
        <time>2022-04-04T08:13:19.876Z</time>
      </trkpt>
      <trkpt lat="42.68654" lon="23.27496">
        <ele>612.925764</ele>
        <time>2022-04-04T08:13:22.906Z</time>
      </trkpt>
      <trkpt lat="42.68643" lon="23.27487">
        <ele>612.888727</ele>
        <time>2022-04-04T08:13:25.896Z</time>
      </trkpt>
      <trkpt lat="42.68633" lon="23.27479">
        <ele>612.855666</ele>
        <time>2022-04-04T08:13:28.914Z</time>
      </trkpt>
      <trkpt lat="42.68624" lon="23.2747">
        <ele>613.056494</ele>
        <time>2022-04-04T08:13:31.889Z</time>
      </trkpt>
      <trkpt lat="42.68615" lon="23.27464">
        <ele>613.425735</ele>
        <time>2022-04-04T08:13:34.908Z</time>
      </trkpt>
      <trkpt lat="42.68605" lon="23.27457">
        <ele>613.799179</ele>
        <time>2022-04-04T08:13:37.876Z</time>
      </trkpt>
      <trkpt lat="42.68596" lon="23.2745">
        <ele>614.159813</ele>
        <time>2022-04-04T08:13:40.878Z</time>
      </trkpt>
      <trkpt lat="42.68587" lon="23.27442">
        <ele>614.518886</ele>
        <time>2022-04-04T08:13:43.880Z</time>
      </trkpt>
      <trkpt lat="42.68579" lon="23.27435">
        <ele>614.84253</ele>
        <time>2022-04-04T08:13:46.880Z</time>
      </trkpt>
      <trkpt lat="42.6857" lon="23.27427">
        <ele>615.207334</ele>
        <time>2022-04-04T08:13:50.867Z</time>
      </trkpt>
      <trkpt lat="42.68561" lon="23.27421">
        <ele>615.544116</ele>
        <time>2022-04-04T08:13:55.875Z</time>
      </trkpt>
      <trkpt lat="42.68552" lon="23.27411">
        <ele>615.946794</ele>
        <time>2022-04-04T08:14:03.860Z</time>
      </trkpt>
      <trkpt lat="42.68544" lon="23.27404">
        <ele>616.266185</ele>
        <time>2022-04-04T08:14:06.877Z</time>
      </trkpt>
      <trkpt lat="42.68535" lon="23.27399">
        <ele>616.614298</ele>
        <time>2022-04-04T08:14:09.865Z</time>
      </trkpt>
      <trkpt lat="42.68527" lon="23.27394">
        <ele>616.92487</ele>
        <time>2022-04-04T08:14:12.913Z</time>
      </trkpt>
      <trkpt lat="42.68519" lon="23.27386">
        <ele>617.266908</ele>
        <time>2022-04-04T08:14:15.863Z</time>
      </trkpt>
      <trkpt lat="42.68511" lon="23.27379">
        <ele>617.582046</ele>
        <time>2022-04-04T08:14:18.875Z</time>
      </trkpt>
      <trkpt lat="42.685" lon="23.27371">
        <ele>617.998924</ele>
        <time>2022-04-04T08:14:22.870Z</time>
      </trkpt>
      <trkpt lat="42.68491" lon="23.27363">
        <ele>618.368147</ele>
        <time>2022-04-04T08:14:25.887Z</time>
      </trkpt>
      <trkpt lat="42.68482" lon="23.27352">
        <ele>618.7971</ele>
        <time>2022-04-04T08:14:28.865Z</time>
      </trkpt>
      <trkpt lat="42.68474" lon="23.27343">
        <ele>619.235515</ele>
        <time>2022-04-04T08:14:31.875Z</time>
      </trkpt>
      <trkpt lat="42.68465" lon="23.27334">
        <ele>619.805838</ele>
        <time>2022-04-04T08:14:34.876Z</time>
      </trkpt>
      <trkpt lat="42.68455" lon="23.27326">
        <ele>620.4069</ele>
        <time>2022-04-04T08:14:37.868Z</time>
      </trkpt>
      <trkpt lat="42.68446" lon="23.27318">
        <ele>620.940689</ele>
        <time>2022-04-04T08:14:40.874Z</time>
      </trkpt>
      <trkpt lat="42.68436" lon="23.2731">
        <ele>621.538757</ele>
        <time>2022-04-04T08:14:43.876Z</time>
      </trkpt>
      <trkpt lat="42.68425" lon="23.27303">
        <ele>622.145192</ele>
        <time>2022-04-04T08:14:46.929Z</time>
      </trkpt>
      <trkpt lat="42.68417" lon="23.27295">
        <ele>622.672539</ele>
        <time>2022-04-04T08:14:49.878Z</time>
      </trkpt>
      <trkpt lat="42.68408" lon="23.27286">
        <ele>623.230098</ele>
        <time>2022-04-04T08:14:52.876Z</time>
      </trkpt>
      <trkpt lat="42.684" lon="23.27276">
        <ele>623.811008</ele>
        <time>2022-04-04T08:14:55.883Z</time>
      </trkpt>
      <trkpt lat="42.68391" lon="23.27266">
        <ele>624.406641</ele>
        <time>2022-04-04T08:14:58.879Z</time>
      </trkpt>
      <trkpt lat="42.68383" lon="23.27257">
        <ele>624.927791</ele>
        <time>2022-04-04T08:15:01.871Z</time>
      </trkpt>
      <trkpt lat="42.68375" lon="23.27248">
        <ele>625.460167</ele>
        <time>2022-04-04T08:15:04.884Z</time>
      </trkpt>
      <trkpt lat="42.68365" lon="23.27239">
        <ele>626.081701</ele>
        <time>2022-04-04T08:15:07.886Z</time>
      </trkpt>
      <trkpt lat="42.68355" lon="23.2723">
        <ele>626.715313</ele>
        <time>2022-04-04T08:15:10.868Z</time>
      </trkpt>
      <trkpt lat="42.68345" lon="23.27221">
        <ele>627.314916</ele>
        <time>2022-04-04T08:15:13.884Z</time>
      </trkpt>
      <trkpt lat="42.68337" lon="23.27212">
        <ele>627.873546</ele>
        <time>2022-04-04T08:15:16.870Z</time>
      </trkpt>
      <trkpt lat="42.68327" lon="23.27204">
        <ele>628.268391</ele>
        <time>2022-04-04T08:15:19.864Z</time>
      </trkpt>
      <trkpt lat="42.68319" lon="23.27197">
        <ele>628.274227</ele>
        <time>2022-04-04T08:15:22.894Z</time>
      </trkpt>
      <trkpt lat="42.68312" lon="23.27189">
        <ele>628.279654</ele>
        <time>2022-04-04T08:15:25.873Z</time>
      </trkpt>
      <trkpt lat="42.68304" lon="23.27182">
        <ele>628.285488</ele>
        <time>2022-04-04T08:15:28.876Z</time>
      </trkpt>
      <trkpt lat="42.68296" lon="23.27175">
        <ele>628.291096</ele>
        <time>2022-04-04T08:15:31.863Z</time>
      </trkpt>
      <trkpt lat="42.68288" lon="23.27166">
        <ele>628.297502</ele>
        <time>2022-04-04T08:15:35.870Z</time>
      </trkpt>
      <trkpt lat="42.68281" lon="23.27157">
        <ele>628.303308</ele>
        <time>2022-04-04T08:15:41.866Z</time>
      </trkpt>
      <trkpt lat="42.68276" lon="23.27139">
        <ele>628.312106</ele>
        <time>2022-04-04T08:16:23.885Z</time>
      </trkpt>
      <trkpt lat="42.6827" lon="23.27128">
        <ele>628.317999</ele>
        <time>2022-04-04T08:16:27.870Z</time>
      </trkpt>
      <trkpt lat="42.68262" lon="23.27117">
        <ele>628.324592</ele>
        <time>2022-04-04T08:16:31.873Z</time>
      </trkpt>
      <trkpt lat="42.68254" lon="23.27109">
        <ele>628.330631</ele>
        <time>2022-04-04T08:16:34.870Z</time>
      </trkpt>
      <trkpt lat="42.68246" lon="23.27101">
        <ele>628.336649</ele>
        <time>2022-04-04T08:16:37.874Z</time>
      </trkpt>
      <trkpt lat="42.6824" lon="23.2709">
        <ele>628.342543</ele>
        <time>2022-04-04T08:16:40.877Z</time>
      </trkpt>
      <trkpt lat="42.68233" lon="23.27078">
        <ele>628.349557</ele>
        <time>2022-04-04T08:16:44.868Z</time>
      </trkpt>
      <trkpt lat="42.68226" lon="23.27069">
        <ele>628.35518</ele>
        <time>2022-04-04T08:16:47.873Z</time>
      </trkpt>
      <trkpt lat="42.6822" lon="23.27059">
        <ele>628.361103</ele>
        <time>2022-04-04T08:16:50.879Z</time>
      </trkpt>
      <trkpt lat="42.68211" lon="23.2705">
        <ele>628.367511</ele>
        <time>2022-04-04T08:16:53.877Z</time>
      </trkpt>
      <trkpt lat="42.68203" lon="23.27041">
        <ele>628.374331</ele>
        <time>2022-04-04T08:16:56.853Z</time>
      </trkpt>
      <trkpt lat="42.68195" lon="23.27029">
        <ele>628.406423</ele>
        <time>2022-04-04T08:17:00.896Z</time>
      </trkpt>
      <trkpt lat="42.68185" lon="23.27019">
        <ele>628.442432</ele>
        <time>2022-04-04T08:17:04.881Z</time>
      </trkpt>
      <trkpt lat="42.68176" lon="23.2701">
        <ele>628.475214</ele>
        <time>2022-04-04T08:17:07.862Z</time>
      </trkpt>
      <trkpt lat="42.6817" lon="23.26999">
        <ele>628.506273</ele>
        <time>2022-04-04T08:17:10.886Z</time>
      </trkpt>
      <trkpt lat="42.68163" lon="23.26989">
        <ele>628.536739</ele>
        <time>2022-04-04T08:17:13.888Z</time>
      </trkpt>
      <trkpt lat="42.68154" lon="23.26979">
        <ele>628.570486</ele>
        <time>2022-04-04T08:17:16.866Z</time>
      </trkpt>
      <trkpt lat="42.68145" lon="23.2697">
        <ele>628.605166</ele>
        <time>2022-04-04T08:17:19.880Z</time>
      </trkpt>
      <trkpt lat="42.68136" lon="23.26963">
        <ele>628.634693</ele>
        <time>2022-04-04T08:17:22.890Z</time>
      </trkpt>
      <trkpt lat="42.68129" lon="23.26956">
        <ele>628.662413</ele>
        <time>2022-04-04T08:17:25.864Z</time>
      </trkpt>
      <trkpt lat="42.6812" lon="23.26948">
        <ele>628.692962</ele>
        <time>2022-04-04T08:17:28.911Z</time>
      </trkpt>
      <trkpt lat="42.68111" lon="23.26944">
        <ele>628.72251</ele>
        <time>2022-04-04T08:17:31.883Z</time>
      </trkpt>
      <trkpt lat="42.68101" lon="23.2694">
        <ele>628.752871</ele>
        <time>2022-04-04T08:17:34.877Z</time>
      </trkpt>
      <trkpt lat="42.68092" lon="23.26937">
        <ele>628.780586</ele>
        <time>2022-04-04T08:17:37.880Z</time>
      </trkpt>
      <trkpt lat="42.68082" lon="23.26933">
        <ele>628.812154</ele>
        <time>2022-04-04T08:17:40.866Z</time>
      </trkpt>
      <trkpt lat="42.68072" lon="23.26929">
        <ele>628.843102</ele>
        <time>2022-04-04T08:17:43.868Z</time>
      </trkpt>
      <trkpt lat="42.68061" lon="23.26926">
        <ele>628.875419</ele>
        <time>2022-04-04T08:17:47.879Z</time>
      </trkpt>
      <trkpt lat="42.68051" lon="23.26922">
        <ele>628.906822</ele>
        <time>2022-04-04T08:17:52.920Z</time>
      </trkpt>
      <trkpt lat="42.68031" lon="23.26916">
        <ele>629.302028</ele>
        <time>2022-04-04T08:18:22.887Z</time>
      </trkpt>
      <trkpt lat="42.68025" lon="23.26906">
        <ele>629.495</ele>
        <time>2022-04-04T08:18:26.883Z</time>
      </trkpt>
      <trkpt lat="42.68027" lon="23.26891">
        <ele>629.728762</ele>
        <time>2022-04-04T08:18:30.867Z</time>
      </trkpt>
      <trkpt lat="42.68028" lon="23.26879">
        <ele>629.918379</ele>
        <time>2022-04-04T08:18:33.880Z</time>
      </trkpt>
      <trkpt lat="42.68027" lon="23.26866">
        <ele>630.114336</ele>
        <time>2022-04-04T08:18:38.860Z</time>
      </trkpt>
      <trkpt lat="42.68029" lon="23.26852">
        <ele>630.333073</ele>
        <time>2022-04-04T08:18:42.878Z</time>
      </trkpt>
      <trkpt lat="42.68031" lon="23.26837">
        <ele>630.576138</ele>
        <time>2022-04-04T08:18:46.866Z</time>
      </trkpt>
      <trkpt lat="42.68033" lon="23.2682">
        <ele>630.838681</ele>
        <time>2022-04-04T08:18:50.875Z</time>
      </trkpt>
      <trkpt lat="42.68037" lon="23.26804">
        <ele>631.087223</ele>
        <time>2022-04-04T08:18:53.882Z</time>
      </trkpt>
      <trkpt lat="42.6804" lon="23.2679">
        <ele>631.308614</ele>
        <time>2022-04-04T08:18:57.919Z</time>
      </trkpt>
      <trkpt lat="42.68038" lon="23.26777">
        <ele>631.516951</ele>
        <time>2022-04-04T08:19:02.880Z</time>
      </trkpt>
      <trkpt lat="42.68039" lon="23.26764">
        <ele>631.712335</ele>
        <time>2022-04-04T08:19:05.881Z</time>
      </trkpt>
      <trkpt lat="42.6804" lon="23.26749">
        <ele>631.942896</ele>
        <time>2022-04-04T08:19:09.885Z</time>
      </trkpt>
      <trkpt lat="42.6804" lon="23.26736">
        <ele>632.145852</ele>
        <time>2022-04-04T08:19:14.872Z</time>
      </trkpt>
      <trkpt lat="42.6804" lon="23.26721">
        <ele>632.367109</ele>
        <time>2022-04-04T08:19:18.883Z</time>
      </trkpt>
      <trkpt lat="42.68041" lon="23.26707">
        <ele>632.587466</ele>
        <time>2022-04-04T08:19:22.867Z</time>
      </trkpt>
      <trkpt lat="42.68045" lon="23.26693">
        <ele>633.025387</ele>
        <time>2022-04-04T08:19:25.877Z</time>
      </trkpt>
      <trkpt lat="42.68049" lon="23.26681">
        <ele>633.434172</ele>
        <time>2022-04-04T08:19:27.901Z</time>
      </trkpt>
      <trkpt lat="42.68052" lon="23.26665">
        <ele>633.944829</ele>
        <time>2022-04-04T08:19:30.927Z</time>
      </trkpt>
      <trkpt lat="42.68051" lon="23.26651">
        <ele>634.401754</ele>
        <time>2022-04-04T08:19:34.877Z</time>
      </trkpt>
      <trkpt lat="42.68044" lon="23.2664">
        <ele>634.912351</ele>
        <time>2022-04-04T08:19:38.873Z</time>
      </trkpt>
      <trkpt lat="42.68039" lon="23.26625">
        <ele>635.419252</ele>
        <time>2022-04-04T08:19:42.869Z</time>
      </trkpt>
      <trkpt lat="42.68037" lon="23.26612">
        <ele>635.839252</ele>
        <time>2022-04-04T08:19:46.908Z</time>
      </trkpt>
      <trkpt lat="42.68039" lon="23.26598">
        <ele>636.315119</ele>
        <time>2022-04-04T08:19:50.877Z</time>
      </trkpt>
      <trkpt lat="42.68039" lon="23.26583">
        <ele>636.79404</ele>
        <time>2022-04-04T08:19:55.904Z</time>
      </trkpt>
      <trkpt lat="42.68034" lon="23.26571">
        <ele>637.230807</ele>
        <time>2022-04-04T08:19:59.886Z</time>
      </trkpt>
      <trkpt lat="42.68027" lon="23.26563">
        <ele>637.640658</ele>
        <time>2022-04-04T08:20:02.862Z</time>
      </trkpt>
      <trkpt lat="42.68017" lon="23.26554">
        <ele>638.156563</ele>
        <time>2022-04-04T08:20:05.875Z</time>
      </trkpt>
      <trkpt lat="42.68008" lon="23.26542">
        <ele>638.721988</ele>
        <time>2022-04-04T08:20:08.869Z</time>
      </trkpt>
      <trkpt lat="42.68004" lon="23.26525">
        <ele>639.303152</ele>
        <time>2022-04-04T08:20:11.875Z</time>
      </trkpt>
      <trkpt lat="42.68003" lon="23.2651">
        <ele>639.790861</ele>
        <time>2022-04-04T08:20:14.880Z</time>
      </trkpt>
      <trkpt lat="42.67995" lon="23.26496">
        <ele>640.36348</ele>
        <time>2022-04-04T08:20:17.879Z</time>
      </trkpt>
      <trkpt lat="42.67991" lon="23.26484">
        <ele>640.559212</ele>
        <time>2022-04-04T08:20:20.859Z</time>
      </trkpt>
      <trkpt lat="42.6799" lon="23.26468">
        <ele>640.666239</ele>
        <time>2022-04-04T08:20:24.896Z</time>
      </trkpt>
      <trkpt lat="42.67987" lon="23.26455">
        <ele>640.755127</ele>
        <time>2022-04-04T08:20:28.860Z</time>
      </trkpt>
      <trkpt lat="42.67978" lon="23.26447">
        <ele>640.856397</ele>
        <time>2022-04-04T08:20:32.909Z</time>
      </trkpt>
      <trkpt lat="42.6797" lon="23.26434">
        <ele>640.963503</ele>
        <time>2022-04-04T08:20:36.880Z</time>
      </trkpt>
      <trkpt lat="42.67963" lon="23.26424">
        <ele>641.056314</ele>
        <time>2022-04-04T08:20:40.883Z</time>
      </trkpt>
      <trkpt lat="42.67961" lon="23.26409">
        <ele>641.153852</ele>
        <time>2022-04-04T08:20:44.891Z</time>
      </trkpt>
      <trkpt lat="42.67957" lon="23.26397">
        <ele>641.240267</ele>
        <time>2022-04-04T08:20:47.865Z</time>
      </trkpt>
      <trkpt lat="42.67949" lon="23.26386">
        <ele>641.341136</ele>
        <time>2022-04-04T08:20:51.859Z</time>
      </trkpt>
      <trkpt lat="42.67945" lon="23.26373">
        <ele>641.43007</ele>
        <time>2022-04-04T08:20:55.874Z</time>
      </trkpt>
      <trkpt lat="42.67942" lon="23.26361">
        <ele>641.513383</ele>
        <time>2022-04-04T08:20:59.910Z</time>
      </trkpt>
      <trkpt lat="42.67941" lon="23.26347">
        <ele>641.611386</ele>
        <time>2022-04-04T08:21:03.888Z</time>
      </trkpt>
      <trkpt lat="42.67938" lon="23.26335">
        <ele>641.69229</ele>
        <time>2022-04-04T08:21:06.870Z</time>
      </trkpt>
      <trkpt lat="42.67934" lon="23.2632">
        <ele>641.793391</ele>
        <time>2022-04-04T08:21:10.941Z</time>
      </trkpt>
      <trkpt lat="42.67926" lon="23.2631">
        <ele>641.894206</ele>
        <time>2022-04-04T08:21:14.880Z</time>
      </trkpt>
      <trkpt lat="42.67921" lon="23.26298">
        <ele>641.987171</ele>
        <time>2022-04-04T08:21:18.867Z</time>
      </trkpt>
      <trkpt lat="42.67916" lon="23.26284">
        <ele>642.08536</ele>
        <time>2022-04-04T08:21:23.881Z</time>
      </trkpt>
      <trkpt lat="42.6791" lon="23.26273">
        <ele>642.199083</ele>
        <time>2022-04-04T08:21:27.874Z</time>
      </trkpt>
      <trkpt lat="42.67904" lon="23.2626">
        <ele>642.342355</ele>
        <time>2022-04-04T08:21:31.883Z</time>
      </trkpt>
      <trkpt lat="42.67901" lon="23.26247">
        <ele>642.4667</ele>
        <time>2022-04-04T08:21:35.875Z</time>
      </trkpt>
      <trkpt lat="42.67898" lon="23.26233">
        <ele>642.600333</ele>
        <time>2022-04-04T08:21:39.883Z</time>
      </trkpt>
      <trkpt lat="42.67895" lon="23.26218">
        <ele>642.738564</ele>
        <time>2022-04-04T08:21:43.914Z</time>
      </trkpt>
      <trkpt lat="42.67888" lon="23.26206">
        <ele>642.880919</ele>
        <time>2022-04-04T08:21:47.888Z</time>
      </trkpt>
      <trkpt lat="42.67881" lon="23.26197">
        <ele>642.993646</ele>
        <time>2022-04-04T08:21:50.871Z</time>
      </trkpt>
      <trkpt lat="42.67876" lon="23.26187">
        <ele>643.108753</ele>
        <time>2022-04-04T08:21:54.882Z</time>
      </trkpt>
      <trkpt lat="42.67876" lon="23.26174">
        <ele>643.229422</ele>
        <time>2022-04-04T08:21:58.870Z</time>
      </trkpt>
      <trkpt lat="42.67876" lon="23.26159">
        <ele>643.364695</ele>
        <time>2022-04-04T08:22:03.867Z</time>
      </trkpt>
      <trkpt lat="42.67874" lon="23.26146">
        <ele>643.485189</ele>
        <time>2022-04-04T08:22:07.878Z</time>
      </trkpt>
      <trkpt lat="42.6787" lon="23.26133">
        <ele>643.613867</ele>
        <time>2022-04-04T08:22:12.870Z</time>
      </trkpt>
      <trkpt lat="42.67862" lon="23.26128">
        <ele>643.728944</ele>
        <time>2022-04-04T08:22:16.872Z</time>
      </trkpt>
      <trkpt lat="42.67857" lon="23.26116">
        <ele>643.863406</ele>
        <time>2022-04-04T08:22:21.875Z</time>
      </trkpt>
      <trkpt lat="42.67848" lon="23.26107">
        <ele>643.991945</ele>
        <time>2022-04-04T08:22:25.878Z</time>
      </trkpt>
      <trkpt lat="42.67844" lon="23.26096">
        <ele>644.112406</ele>
        <time>2022-04-04T08:22:29.879Z</time>
      </trkpt>
      <trkpt lat="42.67842" lon="23.26082">
        <ele>644.238272</ele>
        <time>2022-04-04T08:22:34.878Z</time>
      </trkpt>
      <trkpt lat="42.67842" lon="23.26068">
        <ele>644.414597</ele>
        <time>2022-04-04T08:22:39.869Z</time>
      </trkpt>
      <trkpt lat="42.67836" lon="23.26056">
        <ele>644.888647</ele>
        <time>2022-04-04T08:22:44.867Z</time>
      </trkpt>
      <trkpt lat="42.67828" lon="23.26047">
        <ele>645.367805</ele>
        <time>2022-04-04T08:22:49.877Z</time>
      </trkpt>
      <trkpt lat="42.67822" lon="23.26036">
        <ele>645.838262</ele>
        <time>2022-04-04T08:22:54.885Z</time>
      </trkpt>
      <trkpt lat="42.67817" lon="23.26023">
        <ele>646.328879</ele>
        <time>2022-04-04T08:22:58.878Z</time>
      </trkpt>
      <trkpt lat="42.67815" lon="23.26008">
        <ele>646.82027</ele>
        <time>2022-04-04T08:23:02.874Z</time>
      </trkpt>
      <trkpt lat="42.67815" lon="23.25993">
        <ele>647.339821</ele>
        <time>2022-04-04T08:23:07.915Z</time>
      </trkpt>
      <trkpt lat="42.67809" lon="23.25981">
        <ele>647.835896</ele>
        <time>2022-04-04T08:23:11.870Z</time>
      </trkpt>
      <trkpt lat="42.67801" lon="23.2597">
        <ele>648.357727</ele>
        <time>2022-04-04T08:23:15.864Z</time>
      </trkpt>
      <trkpt lat="42.67793" lon="23.25962">
        <ele>648.809133</ele>
        <time>2022-04-04T08:23:18.882Z</time>
      </trkpt>
      <trkpt lat="42.6779" lon="23.25949">
        <ele>649.2829</ele>
        <time>2022-04-04T08:23:22.859Z</time>
      </trkpt>
      <trkpt lat="42.67789" lon="23.25934">
        <ele>649.782794</ele>
        <time>2022-04-04T08:23:27.892Z</time>
      </trkpt>
      <trkpt lat="42.67782" lon="23.2592">
        <ele>650.351014</ele>
        <time>2022-04-04T08:23:31.874Z</time>
      </trkpt>
      <trkpt lat="42.67776" lon="23.25907">
        <ele>650.879693</ele>
        <time>2022-04-04T08:23:36.861Z</time>
      </trkpt>
      <trkpt lat="42.67767" lon="23.25899">
        <ele>651.357643</ele>
        <time>2022-04-04T08:23:40.880Z</time>
      </trkpt>
      <trkpt lat="42.6776" lon="23.25889">
        <ele>651.840374</ele>
        <time>2022-04-04T08:23:44.867Z</time>
      </trkpt>
      <trkpt lat="42.67755" lon="23.25875">
        <ele>652.333471</ele>
        <time>2022-04-04T08:23:49.895Z</time>
      </trkpt>
      <trkpt lat="42.67751" lon="23.25863">
        <ele>652.764712</ele>
        <time>2022-04-04T08:23:54.864Z</time>
      </trkpt>
      <trkpt lat="42.67748" lon="23.25848">
        <ele>653.217462</ele>
        <time>2022-04-04T08:23:59.872Z</time>
      </trkpt>
      <trkpt lat="42.67745" lon="23.25833">
        <ele>653.699983</ele>
        <time>2022-04-04T08:24:03.876Z</time>
      </trkpt>
      <trkpt lat="42.67741" lon="23.2582">
        <ele>654.119391</ele>
        <time>2022-04-04T08:24:07.877Z</time>
      </trkpt>
      <trkpt lat="42.67736" lon="23.25808">
        <ele>654.535958</ele>
        <time>2022-04-04T08:24:12.875Z</time>
      </trkpt>
      <trkpt lat="42.67736" lon="23.25793">
        <ele>654.981206</ele>
        <time>2022-04-04T08:24:17.880Z</time>
      </trkpt>
      <trkpt lat="42.67735" lon="23.2578">
        <ele>655.362185</ele>
        <time>2022-04-04T08:24:21.869Z</time>
      </trkpt>
      <trkpt lat="42.67736" lon="23.25765">
        <ele>655.819572</ele>
        <time>2022-04-04T08:24:26.862Z</time>
      </trkpt>
      <trkpt lat="42.67738" lon="23.25749">
        <ele>656.274985</ele>
        <time>2022-04-04T08:24:30.859Z</time>
      </trkpt>
      <trkpt lat="42.67741" lon="23.25736">
        <ele>656.687317</ele>
        <time>2022-04-04T08:24:33.897Z</time>
      </trkpt>
      <trkpt lat="42.67744" lon="23.25722">
        <ele>657.135534</ele>
        <time>2022-04-04T08:24:38.876Z</time>
      </trkpt>
      <trkpt lat="42.67742" lon="23.25708">
        <ele>657.550803</ele>
        <time>2022-04-04T08:24:42.924Z</time>
      </trkpt>
      <trkpt lat="42.67737" lon="23.25697">
        <ele>657.953059</ele>
        <time>2022-04-04T08:24:46.882Z</time>
      </trkpt>
      <trkpt lat="42.67735" lon="23.25683">
        <ele>658.35015</ele>
        <time>2022-04-04T08:24:50.878Z</time>
      </trkpt>
      <trkpt lat="42.67733" lon="23.25669">
        <ele>658.798342</ele>
        <time>2022-04-04T08:24:55.872Z</time>
      </trkpt>
      <trkpt lat="42.6773" lon="23.25654">
        <ele>659.236346</ele>
        <time>2022-04-04T08:24:59.874Z</time>
      </trkpt>
      <trkpt lat="42.6773" lon="23.25641">
        <ele>659.646276</ele>
        <time>2022-04-04T08:25:03.872Z</time>
      </trkpt>
      <trkpt lat="42.67727" lon="23.25628">
        <ele>660.214161</ele>
        <time>2022-04-04T08:25:07.882Z</time>
      </trkpt>
      <trkpt lat="42.67724" lon="23.25616">
        <ele>661.034464</ele>
        <time>2022-04-04T08:25:12.876Z</time>
      </trkpt>
      <trkpt lat="42.67723" lon="23.25603">
        <ele>661.807607</ele>
        <time>2022-04-04T08:25:16.863Z</time>
      </trkpt>
      <trkpt lat="42.67721" lon="23.2559">
        <ele>662.667527</ele>
        <time>2022-04-04T08:25:21.876Z</time>
      </trkpt>
      <trkpt lat="42.67713" lon="23.25581">
        <ele>663.513927</ele>
        <time>2022-04-04T08:25:25.879Z</time>
      </trkpt>
      <trkpt lat="42.67714" lon="23.25565">
        <ele>664.480999</ele>
        <time>2022-04-04T08:25:30.879Z</time>
      </trkpt>
      <trkpt lat="42.67713" lon="23.25552">
        <ele>665.285864</ele>
        <time>2022-04-04T08:25:34.883Z</time>
      </trkpt>
      <trkpt lat="42.67715" lon="23.25539">
        <ele>666.145306</ele>
        <time>2022-04-04T08:25:40.867Z</time>
      </trkpt>
      <trkpt lat="42.67715" lon="23.25525">
        <ele>667.014028</ele>
        <time>2022-04-04T08:25:46.876Z</time>
      </trkpt>
      <trkpt lat="42.67713" lon="23.25511">
        <ele>667.892866</ele>
        <time>2022-04-04T08:25:52.883Z</time>
      </trkpt>
      <trkpt lat="42.67713" lon="23.25497">
        <ele>668.761917</ele>
        <time>2022-04-04T08:25:57.868Z</time>
      </trkpt>
      <trkpt lat="42.67714" lon="23.25483">
        <ele>669.641715</ele>
        <time>2022-04-04T08:26:02.876Z</time>
      </trkpt>
      <trkpt lat="42.67717" lon="23.25469">
        <ele>670.505536</ele>
        <time>2022-04-04T08:26:07.875Z</time>
      </trkpt>
      <trkpt lat="42.67709" lon="23.25461">
        <ele>671.356877</ele>
        <time>2022-04-04T08:26:10.884Z</time>
      </trkpt>
      <trkpt lat="42.67706" lon="23.25449">
        <ele>672.12272</ele>
        <time>2022-04-04T08:26:15.879Z</time>
      </trkpt>
      <trkpt lat="42.67711" lon="23.25438">
        <ele>672.932491</ele>
        <time>2022-04-04T08:26:19.863Z</time>
      </trkpt>
      <trkpt lat="42.67707" lon="23.25425">
        <ele>673.778386</ele>
        <time>2022-04-04T08:26:25.900Z</time>
      </trkpt>
      <trkpt lat="42.677" lon="23.25416">
        <ele>674.554075</ele>
        <time>2022-04-04T08:26:30.873Z</time>
      </trkpt>
      <trkpt lat="42.67703" lon="23.25405">
        <ele>674.958047</ele>
        <time>2022-04-04T08:26:34.870Z</time>
      </trkpt>
      <trkpt lat="42.67709" lon="23.25392">
        <ele>674.664885</ele>
        <time>2022-04-04T08:26:38.886Z</time>
      </trkpt>
      <trkpt lat="42.67712" lon="23.25378">
        <ele>674.370668</ele>
        <time>2022-04-04T08:26:42.874Z</time>
      </trkpt>
      <trkpt lat="42.67707" lon="23.25367">
        <ele>674.128704</ele>
        <time>2022-04-04T08:26:46.862Z</time>
      </trkpt>
      <trkpt lat="42.67703" lon="23.25356">
        <ele>673.884437</ele>
        <time>2022-04-04T08:26:50.864Z</time>
      </trkpt>
      <trkpt lat="42.67699" lon="23.25344">
        <ele>673.611939</ele>
        <time>2022-04-04T08:26:54.879Z</time>
      </trkpt>
      <trkpt lat="42.6769" lon="23.25335">
        <ele>673.325524</ele>
        <time>2022-04-04T08:27:00.870Z</time>
      </trkpt>
      <trkpt lat="42.6768" lon="23.25333">
        <ele>673.049915</ele>
        <time>2022-04-04T08:27:04.911Z</time>
      </trkpt>
      <trkpt lat="42.6767" lon="23.25332">
        <ele>672.795832</ele>
        <time>2022-04-04T08:27:08.863Z</time>
      </trkpt>
      <trkpt lat="42.67659" lon="23.2533">
        <ele>672.494994</ele>
        <time>2022-04-04T08:27:13.883Z</time>
      </trkpt>
      <trkpt lat="42.67651" lon="23.25325">
        <ele>672.238452</ele>
        <time>2022-04-04T08:27:17.892Z</time>
      </trkpt>
      <trkpt lat="42.67641" lon="23.25321">
        <ele>671.98612</ele>
        <time>2022-04-04T08:27:23.909Z</time>
      </trkpt>
      <trkpt lat="42.67632" lon="23.25317">
        <ele>671.729035</ele>
        <time>2022-04-04T08:27:28.887Z</time>
      </trkpt>
      <trkpt lat="42.67623" lon="23.25313">
        <ele>671.468924</ele>
        <time>2022-04-04T08:27:32.876Z</time>
      </trkpt>
      <trkpt lat="42.67613" lon="23.25309">
        <ele>671.183568</ele>
        <time>2022-04-04T08:27:36.919Z</time>
      </trkpt>
      <trkpt lat="42.67603" lon="23.25305">
        <ele>670.90572</ele>
        <time>2022-04-04T08:27:40.883Z</time>
      </trkpt>
      <trkpt lat="42.67594" lon="23.253">
        <ele>670.649399</ele>
        <time>2022-04-04T08:27:44.879Z</time>
      </trkpt>
      <trkpt lat="42.67584" lon="23.25296">
        <ele>670.374664</ele>
        <time>2022-04-04T08:27:48.878Z</time>
      </trkpt>
      <trkpt lat="42.67575" lon="23.25294">
        <ele>670.101288</ele>
        <time>2022-04-04T08:27:52.869Z</time>
      </trkpt>
      <trkpt lat="42.67565" lon="23.25292">
        <ele>669.774349</ele>
        <time>2022-04-04T08:27:56.883Z</time>
      </trkpt>
      <trkpt lat="42.67554" lon="23.25288">
        <ele>669.393591</ele>
        <time>2022-04-04T08:28:00.921Z</time>
      </trkpt>
      <trkpt lat="42.67545" lon="23.25284">
        <ele>669.07645</ele>
        <time>2022-04-04T08:28:03.883Z</time>
      </trkpt>
      <trkpt lat="42.67533" lon="23.2528">
        <ele>668.665371</ele>
        <time>2022-04-04T08:28:07.875Z</time>
      </trkpt>
      <trkpt lat="42.67523" lon="23.25276">
        <ele>668.300559</ele>
        <time>2022-04-04T08:28:10.911Z</time>
      </trkpt>
      <trkpt lat="42.67512" lon="23.25273">
        <ele>667.911158</ele>
        <time>2022-04-04T08:28:13.876Z</time>
      </trkpt>
      <trkpt lat="42.67499" lon="23.25271">
        <ele>667.4923</ele>
        <time>2022-04-04T08:28:16.883Z</time>
      </trkpt>
      <trkpt lat="42.67486" lon="23.25266">
        <ele>667.031993</ele>
        <time>2022-04-04T08:28:19.908Z</time>
      </trkpt>
      <trkpt lat="42.67475" lon="23.25261">
        <ele>666.665401</ele>
        <time>2022-04-04T08:28:21.863Z</time>
      </trkpt>
      <trkpt lat="42.67463" lon="23.25255">
        <ele>666.231699</ele>
        <time>2022-04-04T08:28:23.874Z</time>
      </trkpt>
      <trkpt lat="42.67453" lon="23.25249">
        <ele>665.850127</ele>
        <time>2022-04-04T08:28:25.895Z</time>
      </trkpt>
      <trkpt lat="42.67442" lon="23.25243">
        <ele>665.454428</ele>
        <time>2022-04-04T08:28:27.891Z</time>
      </trkpt>
      <trkpt lat="42.6743" lon="23.25239">
        <ele>665.032483</ele>
        <time>2022-04-04T08:28:29.890Z</time>
      </trkpt>
      <trkpt lat="42.67418" lon="23.25235">
        <ele>664.627066</ele>
        <time>2022-04-04T08:28:31.886Z</time>
      </trkpt>
      <trkpt lat="42.67407" lon="23.2523">
        <ele>664.241598</ele>
        <time>2022-04-04T08:28:33.913Z</time>
      </trkpt>
      <trkpt lat="42.67396" lon="23.25226">
        <ele>664.14671</ele>
        <time>2022-04-04T08:28:35.893Z</time>
      </trkpt>
      <trkpt lat="42.67385" lon="23.25224">
        <ele>664.079642</ele>
        <time>2022-04-04T08:28:37.896Z</time>
      </trkpt>
      <trkpt lat="42.67375" lon="23.2522">
        <ele>664.013944</ele>
        <time>2022-04-04T08:28:39.883Z</time>
      </trkpt>
      <trkpt lat="42.67365" lon="23.25216">
        <ele>663.948246</ele>
        <time>2022-04-04T08:28:41.939Z</time>
      </trkpt>
      <trkpt lat="42.67354" lon="23.25213">
        <ele>663.882321</ele>
        <time>2022-04-04T08:28:43.877Z</time>
      </trkpt>
      <trkpt lat="42.67343" lon="23.2521">
        <ele>663.811556</ele>
        <time>2022-04-04T08:28:45.887Z</time>
      </trkpt>
      <trkpt lat="42.67331" lon="23.25208">
        <ele>663.741067</ele>
        <time>2022-04-04T08:28:47.868Z</time>
      </trkpt>
      <trkpt lat="42.67322" lon="23.25205">
        <ele>663.68423</ele>
        <time>2022-04-04T08:28:49.896Z</time>
      </trkpt>
      <trkpt lat="42.67313" lon="23.25202">
        <ele>663.624421</ele>
        <time>2022-04-04T08:28:51.876Z</time>
      </trkpt>
      <trkpt lat="42.67303" lon="23.25198">
        <ele>663.564612</ele>
        <time>2022-04-04T08:28:53.885Z</time>
      </trkpt>
      <trkpt lat="42.67293" lon="23.25193">
        <ele>663.496871</ele>
        <time>2022-04-04T08:28:56.909Z</time>
      </trkpt>
      <trkpt lat="42.67283" lon="23.25189">
        <ele>663.434413</ele>
        <time>2022-04-04T08:29:00.878Z</time>
      </trkpt>
      <trkpt lat="42.67271" lon="23.25183">
        <ele>663.35399</ele>
        <time>2022-04-04T08:29:03.961Z</time>
      </trkpt>
      <trkpt lat="42.6726" lon="23.25177">
        <ele>663.285426</ele>
        <time>2022-04-04T08:29:05.898Z</time>
      </trkpt>
      <trkpt lat="42.67251" lon="23.25173">
        <ele>663.22732</ele>
        <time>2022-04-04T08:29:07.881Z</time>
      </trkpt>
      <trkpt lat="42.67242" lon="23.2517">
        <ele>663.169546</ele>
        <time>2022-04-04T08:29:09.988Z</time>
      </trkpt>
      <trkpt lat="42.6723" lon="23.25167">
        <ele>663.100594</ele>
        <time>2022-04-04T08:29:11.865Z</time>
      </trkpt>
      <trkpt lat="42.67219" lon="23.25166">
        <ele>663.066232</ele>
        <time>2022-04-04T08:29:13.890Z</time>
      </trkpt>
      <trkpt lat="42.6721" lon="23.25163">
        <ele>663.036192</ele>
        <time>2022-04-04T08:29:15.880Z</time>
      </trkpt>
      <trkpt lat="42.67198" lon="23.2516">
        <ele>662.995863</ele>
        <time>2022-04-04T08:29:18.920Z</time>
      </trkpt>
      <trkpt lat="42.67187" lon="23.25158">
        <ele>662.958146</ele>
        <time>2022-04-04T08:29:21.872Z</time>
      </trkpt>
      <trkpt lat="42.67175" lon="23.25163">
        <ele>662.918307</ele>
        <time>2022-04-04T08:29:24.983Z</time>
      </trkpt>
      <trkpt lat="42.67165" lon="23.25173">
        <ele>662.8799</ele>
        <time>2022-04-04T08:29:27.862Z</time>
      </trkpt>
      <trkpt lat="42.67157" lon="23.25183">
        <ele>662.844392</ele>
        <time>2022-04-04T08:29:30.878Z</time>
      </trkpt>
      <trkpt lat="42.67149" lon="23.25194">
        <ele>662.806057</ele>
        <time>2022-04-04T08:29:33.877Z</time>
      </trkpt>
      <trkpt lat="42.67142" lon="23.25204">
        <ele>662.775493</ele>
        <time>2022-04-04T08:29:35.858Z</time>
      </trkpt>
      <trkpt lat="42.67134" lon="23.25214">
        <ele>662.737741</ele>
        <time>2022-04-04T08:29:38.874Z</time>
      </trkpt>
      <trkpt lat="42.67124" lon="23.25226">
        <ele>662.697535</ele>
        <time>2022-04-04T08:29:41.874Z</time>
      </trkpt>
      <trkpt lat="42.67118" lon="23.25235">
        <ele>662.667968</ele>
        <time>2022-04-04T08:29:43.923Z</time>
      </trkpt>
      <trkpt lat="42.67111" lon="23.25246">
        <ele>662.633908</ele>
        <time>2022-04-04T08:29:45.895Z</time>
      </trkpt>
      <trkpt lat="42.67104" lon="23.25256">
        <ele>662.599756</ele>
        <time>2022-04-04T08:29:47.887Z</time>
      </trkpt>
      <trkpt lat="42.67097" lon="23.25268">
        <ele>662.564162</ele>
        <time>2022-04-04T08:29:49.885Z</time>
      </trkpt>
      <trkpt lat="42.67091" lon="23.25279">
        <ele>662.531399</ele>
        <time>2022-04-04T08:29:51.910Z</time>
      </trkpt>
      <trkpt lat="42.67084" lon="23.25292">
        <ele>662.486517</ele>
        <time>2022-04-04T08:29:54.866Z</time>
      </trkpt>
      <trkpt lat="42.67076" lon="23.25301">
        <ele>662.448432</ele>
        <time>2022-04-04T08:29:56.944Z</time>
      </trkpt>
      <trkpt lat="42.67064" lon="23.25312">
        <ele>662.397163</ele>
        <time>2022-04-04T08:29:58.900Z</time>
      </trkpt>
      <trkpt lat="42.67054" lon="23.25321">
        <ele>662.352168</ele>
        <time>2022-04-04T08:30:00.891Z</time>
      </trkpt>
      <trkpt lat="42.67044" lon="23.25332">
        <ele>662.302943</ele>
        <time>2022-04-04T08:30:03.874Z</time>
      </trkpt>
      <trkpt lat="42.67037" lon="23.2534">
        <ele>662.269381</ele>
        <time>2022-04-04T08:30:05.893Z</time>
      </trkpt>
      <trkpt lat="42.67027" lon="23.25343">
        <ele>662.231652</ele>
        <time>2022-04-04T08:30:08.875Z</time>
      </trkpt>
      <trkpt lat="42.67018" lon="23.25334">
        <ele>662.190601</ele>
        <time>2022-04-04T08:30:12.866Z</time>
      </trkpt>
      <trkpt lat="42.67013" lon="23.25323">
        <ele>662.1532</ele>
        <time>2022-04-04T08:30:16.871Z</time>
      </trkpt>
      <trkpt lat="42.67006" lon="23.25314">
        <ele>662.119899</ele>
        <time>2022-04-04T08:30:19.888Z</time>
      </trkpt>
      <trkpt lat="42.67001" lon="23.25304">
        <ele>662.085004</ele>
        <time>2022-04-04T08:30:22.870Z</time>
      </trkpt>
      <trkpt lat="42.66995" lon="23.25292">
        <ele>662.046579</ele>
        <time>2022-04-04T08:30:26.869Z</time>
      </trkpt>
      <trkpt lat="42.66988" lon="23.25282">
        <ele>662.007644</ele>
        <time>2022-04-04T08:30:29.856Z</time>
      </trkpt>
      <trkpt lat="42.66981" lon="23.25272">
        <ele>661.972014</ele>
        <time>2022-04-04T08:30:32.885Z</time>
      </trkpt>
      <trkpt lat="42.66975" lon="23.25263">
        <ele>661.937996</ele>
        <time>2022-04-04T08:30:35.866Z</time>
      </trkpt>
      <trkpt lat="42.66967" lon="23.25251">
        <ele>661.894124</ele>
        <time>2022-04-04T08:30:39.887Z</time>
      </trkpt>
      <trkpt lat="42.66958" lon="23.25241">
        <ele>661.979702</ele>
        <time>2022-04-04T08:30:42.882Z</time>
      </trkpt>
      <trkpt lat="42.66949" lon="23.25232">
        <ele>662.347834</ele>
        <time>2022-04-04T08:30:45.882Z</time>
      </trkpt>
      <trkpt lat="42.66941" lon="23.25223">
        <ele>662.699331</ele>
        <time>2022-04-04T08:30:48.896Z</time>
      </trkpt>
      <trkpt lat="42.66932" lon="23.25213">
        <ele>663.096333</ele>
        <time>2022-04-04T08:30:52.865Z</time>
      </trkpt>
      <trkpt lat="42.66925" lon="23.25204">
        <ele>663.418226</ele>
        <time>2022-04-04T08:30:55.886Z</time>
      </trkpt>
      <trkpt lat="42.66918" lon="23.25195">
        <ele>663.762024</ele>
        <time>2022-04-04T08:30:58.883Z</time>
      </trkpt>
      <trkpt lat="42.66908" lon="23.25187">
        <ele>664.136903</ele>
        <time>2022-04-04T08:31:02.880Z</time>
      </trkpt>
      <trkpt lat="42.669" lon="23.25181">
        <ele>664.451861</ele>
        <time>2022-04-04T08:31:05.863Z</time>
      </trkpt>
      <trkpt lat="42.66891" lon="23.25173">
        <ele>664.840721</ele>
        <time>2022-04-04T08:31:09.882Z</time>
      </trkpt>
      <trkpt lat="42.66882" lon="23.25165">
        <ele>665.203412</ele>
        <time>2022-04-04T08:31:13.867Z</time>
      </trkpt>
      <trkpt lat="42.66874" lon="23.25154">
        <ele>665.58177</ele>
        <time>2022-04-04T08:31:17.864Z</time>
      </trkpt>
      <trkpt lat="42.66868" lon="23.25141">
        <ele>665.987136</ele>
        <time>2022-04-04T08:31:21.884Z</time>
      </trkpt>
      <trkpt lat="42.66859" lon="23.2513">
        <ele>666.380058</ele>
        <time>2022-04-04T08:31:25.902Z</time>
      </trkpt>
      <trkpt lat="42.6685" lon="23.25118">
        <ele>666.812942</ele>
        <time>2022-04-04T08:31:29.864Z</time>
      </trkpt>
      <trkpt lat="42.66844" lon="23.25108">
        <ele>667.144021</ele>
        <time>2022-04-04T08:31:32.901Z</time>
      </trkpt>
      <trkpt lat="42.66836" lon="23.25098">
        <ele>667.492457</ele>
        <time>2022-04-04T08:31:36.867Z</time>
      </trkpt>
      <trkpt lat="42.66828" lon="23.25089">
        <ele>667.85824</ele>
        <time>2022-04-04T08:31:39.877Z</time>
      </trkpt>
      <trkpt lat="42.66819" lon="23.2508">
        <ele>668.078299</ele>
        <time>2022-04-04T08:31:42.882Z</time>
      </trkpt>
      <trkpt lat="42.6681" lon="23.25072">
        <ele>668.179589</ele>
        <time>2022-04-04T08:31:45.874Z</time>
      </trkpt>
      <trkpt lat="42.66803" lon="23.25064">
        <ele>668.267183</ele>
        <time>2022-04-04T08:31:48.879Z</time>
      </trkpt>
      <trkpt lat="42.66794" lon="23.25054">
        <ele>668.370866</ele>
        <time>2022-04-04T08:31:52.862Z</time>
      </trkpt>
      <trkpt lat="42.66785" lon="23.25044">
        <ele>668.479081</ele>
        <time>2022-04-04T08:31:56.867Z</time>
      </trkpt>
      <trkpt lat="42.66774" lon="23.25037">
        <ele>668.590955</ele>
        <time>2022-04-04T08:32:00.884Z</time>
      </trkpt>
      <trkpt lat="42.66768" lon="23.25028">
        <ele>668.675325</ele>
        <time>2022-04-04T08:32:03.883Z</time>
      </trkpt>
      <trkpt lat="42.6676" lon="23.25015">
        <ele>668.79004</ele>
        <time>2022-04-04T08:32:07.891Z</time>
      </trkpt>
      <trkpt lat="42.66755" lon="23.25003">
        <ele>668.886684</ele>
        <time>2022-04-04T08:32:11.886Z</time>
      </trkpt>
      <trkpt lat="42.66746" lon="23.24996">
        <ele>668.983018</ele>
        <time>2022-04-04T08:32:15.891Z</time>
      </trkpt>
      <trkpt lat="42.66736" lon="23.24989">
        <ele>669.086224</ele>
        <time>2022-04-04T08:32:18.879Z</time>
      </trkpt>
      <trkpt lat="42.66727" lon="23.2498">
        <ele>669.192532</ele>
        <time>2022-04-04T08:32:21.907Z</time>
      </trkpt>
      <trkpt lat="42.66719" lon="23.24971">
        <ele>669.288912</ele>
        <time>2022-04-04T08:32:24.865Z</time>
      </trkpt>
      <trkpt lat="42.66712" lon="23.24961">
        <ele>669.379832</ele>
        <time>2022-04-04T08:32:27.866Z</time>
      </trkpt>
      <trkpt lat="42.66704" lon="23.24954">
        <ele>669.467209</ele>
        <time>2022-04-04T08:32:30.885Z</time>
      </trkpt>
      <trkpt lat="42.66694" lon="23.24944">
        <ele>669.58399</ele>
        <time>2022-04-04T08:32:34.878Z</time>
      </trkpt>
      <trkpt lat="42.66686" lon="23.24934">
        <ele>669.683534</ele>
        <time>2022-04-04T08:32:37.890Z</time>
      </trkpt>
      <trkpt lat="42.66679" lon="23.24924">
        <ele>669.582092</ele>
        <time>2022-04-04T08:32:40.883Z</time>
      </trkpt>
      <trkpt lat="42.66672" lon="23.24914">
        <ele>669.463302</ele>
        <time>2022-04-04T08:32:44.849Z</time>
      </trkpt>
      <trkpt lat="42.66664" lon="23.24904">
        <ele>669.347839</ele>
        <time>2022-04-04T08:32:47.873Z</time>
      </trkpt>
      <trkpt lat="42.66656" lon="23.24897">
        <ele>669.238801</ele>
        <time>2022-04-04T08:32:50.877Z</time>
      </trkpt>
      <trkpt lat="42.66647" lon="23.24887">
        <ele>669.115949</ele>
        <time>2022-04-04T08:32:54.875Z</time>
      </trkpt>
      <trkpt lat="42.66639" lon="23.24878">
        <ele>669.000332</ele>
        <time>2022-04-04T08:32:58.875Z</time>
      </trkpt>
      <trkpt lat="42.6663" lon="23.24872">
        <ele>668.888752</ele>
        <time>2022-04-04T08:33:02.884Z</time>
      </trkpt>
      <trkpt lat="42.66622" lon="23.24865">
        <ele>668.779854</ele>
        <time>2022-04-04T08:33:09.879Z</time>
      </trkpt>
      <trkpt lat="42.66612" lon="23.24857">
        <ele>668.651444</ele>
        <time>2022-04-04T08:33:12.901Z</time>
      </trkpt>
      <trkpt lat="42.66602" lon="23.2485">
        <ele>668.530284</ele>
        <time>2022-04-04T08:33:15.873Z</time>
      </trkpt>
      <trkpt lat="42.66593" lon="23.24843">
        <ele>668.410476</ele>
        <time>2022-04-04T08:33:19.879Z</time>
      </trkpt>
      <trkpt lat="42.66584" lon="23.24838">
        <ele>668.306634</ele>
        <time>2022-04-04T08:33:23.884Z</time>
      </trkpt>
      <trkpt lat="42.66574" lon="23.24832">
        <ele>668.184959</ele>
        <time>2022-04-04T08:33:26.883Z</time>
      </trkpt>
      <trkpt lat="42.66566" lon="23.24825">
        <ele>668.080542</ele>
        <time>2022-04-04T08:33:29.877Z</time>
      </trkpt>
      <trkpt lat="42.66558" lon="23.24818">
        <ele>667.980661</ele>
        <time>2022-04-04T08:33:32.881Z</time>
      </trkpt>
      <trkpt lat="42.66547" lon="23.24812">
        <ele>667.845562</ele>
        <time>2022-04-04T08:33:36.870Z</time>
      </trkpt>
      <trkpt lat="42.66538" lon="23.24806">
        <ele>667.730926</ele>
        <time>2022-04-04T08:33:39.861Z</time>
      </trkpt>
      <trkpt lat="42.66529" lon="23.24799">
        <ele>668.096092</ele>
        <time>2022-04-04T08:33:43.897Z</time>
      </trkpt>
      <trkpt lat="42.6652" lon="23.2479">
        <ele>668.771338</ele>
        <time>2022-04-04T08:33:47.867Z</time>
      </trkpt>
      <trkpt lat="42.6651" lon="23.24782">
        <ele>669.397351</ele>
        <time>2022-04-04T08:33:51.888Z</time>
      </trkpt>
      <trkpt lat="42.66503" lon="23.24776">
        <ele>669.929646</ele>
        <time>2022-04-04T08:33:54.885Z</time>
      </trkpt>
      <trkpt lat="42.66496" lon="23.24768">
        <ele>670.457208</ele>
        <time>2022-04-04T08:33:57.886Z</time>
      </trkpt>
      <trkpt lat="42.66486" lon="23.24763">
        <ele>671.037632</ele>
        <time>2022-04-04T08:34:01.891Z</time>
      </trkpt>
      <trkpt lat="42.66477" lon="23.24756">
        <ele>671.667206</ele>
        <time>2022-04-04T08:34:06.867Z</time>
      </trkpt>
      <trkpt lat="42.66467" lon="23.24748">
        <ele>672.295417</ele>
        <time>2022-04-04T08:34:10.859Z</time>
      </trkpt>
      <trkpt lat="42.66458" lon="23.24739">
        <ele>672.957328</ele>
        <time>2022-04-04T08:34:14.883Z</time>
      </trkpt>
      <trkpt lat="42.6645" lon="23.24732">
        <ele>673.483594</ele>
        <time>2022-04-04T08:34:17.881Z</time>
      </trkpt>
      <trkpt lat="42.66441" lon="23.24729">
        <ele>674.042671</ele>
        <time>2022-04-04T08:34:21.864Z</time>
      </trkpt>
      <trkpt lat="42.6643" lon="23.24725">
        <ele>674.672032</ele>
        <time>2022-04-04T08:34:25.903Z</time>
      </trkpt>
      <trkpt lat="42.66423" lon="23.24715">
        <ele>675.265817</ele>
        <time>2022-04-04T08:34:29.876Z</time>
      </trkpt>
      <trkpt lat="42.66417" lon="23.24702">
        <ele>675.919662</ele>
        <time>2022-04-04T08:34:33.869Z</time>
      </trkpt>
      <trkpt lat="42.6641" lon="23.24688">
        <ele>676.648507</ele>
        <time>2022-04-04T08:34:37.879Z</time>
      </trkpt>
      <trkpt lat="42.66403" lon="23.24677">
        <ele>677.260767</ele>
        <time>2022-04-04T08:34:40.869Z</time>
      </trkpt>
      <trkpt lat="42.66396" lon="23.24667">
        <ele>677.836639</ele>
        <time>2022-04-04T08:34:44.876Z</time>
      </trkpt>
      <trkpt lat="42.66388" lon="23.24659">
        <ele>677.937605</ele>
        <time>2022-04-04T08:34:47.877Z</time>
      </trkpt>
      <trkpt lat="42.66381" lon="23.24647">
        <ele>677.654997</ele>
        <time>2022-04-04T08:34:51.882Z</time>
      </trkpt>
      <trkpt lat="42.66375" lon="23.24636">
        <ele>677.392915</ele>
        <time>2022-04-04T08:34:55.936Z</time>
      </trkpt>
      <trkpt lat="42.66367" lon="23.24625">
        <ele>677.122056</ele>
        <time>2022-04-04T08:34:59.888Z</time>
      </trkpt>
      <trkpt lat="42.6636" lon="23.24615">
        <ele>676.86336</ele>
        <time>2022-04-04T08:35:04.876Z</time>
      </trkpt>
      <trkpt lat="42.66354" lon="23.24604">
        <ele>676.6017</ele>
        <time>2022-04-04T08:35:10.900Z</time>
      </trkpt>
      <trkpt lat="42.66347" lon="23.24592">
        <ele>676.318939</ele>
        <time>2022-04-04T08:35:14.883Z</time>
      </trkpt>
      <trkpt lat="42.66343" lon="23.24579">
        <ele>676.078697</ele>
        <time>2022-04-04T08:35:17.885Z</time>
      </trkpt>
      <trkpt lat="42.66348" lon="23.24567">
        <ele>675.829863</ele>
        <time>2022-04-04T08:35:21.881Z</time>
      </trkpt>
      <trkpt lat="42.66357" lon="23.24557">
        <ele>675.54102</ele>
        <time>2022-04-04T08:35:24.859Z</time>
      </trkpt>
      <trkpt lat="42.66362" lon="23.24546">
        <ele>675.29953</ele>
        <time>2022-04-04T08:35:28.889Z</time>
      </trkpt>
      <trkpt lat="42.66369" lon="23.24537">
        <ele>675.042527</ele>
        <time>2022-04-04T08:35:31.870Z</time>
      </trkpt>
      <trkpt lat="42.66375" lon="23.24526">
        <ele>674.79713</ele>
        <time>2022-04-04T08:35:34.858Z</time>
      </trkpt>
      <trkpt lat="42.66368" lon="23.24515">
        <ele>674.526613</ele>
        <time>2022-04-04T08:35:40.926Z</time>
      </trkpt>
      <trkpt lat="42.66358" lon="23.24509">
        <ele>674.255138</ele>
        <time>2022-04-04T08:35:43.872Z</time>
      </trkpt>
      <trkpt lat="42.66351" lon="23.24498">
        <ele>673.991897</ele>
        <time>2022-04-04T08:35:47.908Z</time>
      </trkpt>
      <trkpt lat="42.66346" lon="23.24484">
        <ele>673.706684</ele>
        <time>2022-04-04T08:35:51.867Z</time>
      </trkpt>
      <trkpt lat="42.66344" lon="23.24471">
        <ele>673.877778</ele>
        <time>2022-04-04T08:35:55.880Z</time>
      </trkpt>
      <trkpt lat="42.66336" lon="23.24462">
        <ele>674.428436</ele>
        <time>2022-04-04T08:36:01.876Z</time>
      </trkpt>
      <trkpt lat="42.66327" lon="23.24454">
        <ele>674.988437</ele>
        <time>2022-04-04T08:36:05.868Z</time>
      </trkpt>
      <trkpt lat="42.66321" lon="23.24444">
        <ele>675.464981</ele>
        <time>2022-04-04T08:36:10.899Z</time>
      </trkpt>
      <trkpt lat="42.66315" lon="23.24434">
        <ele>675.98331</ele>
        <time>2022-04-04T08:36:14.920Z</time>
      </trkpt>
      <trkpt lat="42.66308" lon="23.24422">
        <ele>676.588141</ele>
        <time>2022-04-04T08:36:18.877Z</time>
      </trkpt>
      <trkpt lat="42.663" lon="23.24412">
        <ele>677.159417</ele>
        <time>2022-04-04T08:36:22.884Z</time>
      </trkpt>
      <trkpt lat="42.66293" lon="23.24402">
        <ele>677.690002</ele>
        <time>2022-04-04T08:36:26.881Z</time>
      </trkpt>
      <trkpt lat="42.66287" lon="23.24391">
        <ele>678.232381</ele>
        <time>2022-04-04T08:36:30.885Z</time>
      </trkpt>
      <trkpt lat="42.66281" lon="23.24381">
        <ele>678.739293</ele>
        <time>2022-04-04T08:36:34.897Z</time>
      </trkpt>
      <trkpt lat="42.66274" lon="23.24372">
        <ele>679.248053</ele>
        <time>2022-04-04T08:36:38.887Z</time>
      </trkpt>
      <trkpt lat="42.66267" lon="23.24363">
        <ele>679.726707</ele>
        <time>2022-04-04T08:36:42.887Z</time>
      </trkpt>
      <trkpt lat="42.66261" lon="23.24353">
        <ele>680.235162</ele>
        <time>2022-04-04T08:36:47.882Z</time>
      </trkpt>
      <trkpt lat="42.6625" lon="23.24352">
        <ele>680.794084</ele>
        <time>2022-04-04T08:36:52.878Z</time>
      </trkpt>
      <trkpt lat="42.66242" lon="23.24346">
        <ele>681.273977</ele>
        <time>2022-04-04T08:36:55.856Z</time>
      </trkpt>
      <trkpt lat="42.66234" lon="23.24336">
        <ele>681.864062</ele>
        <time>2022-04-04T08:36:59.894Z</time>
      </trkpt>
      <trkpt lat="42.66229" lon="23.24326">
        <ele>682.356415</ele>
        <time>2022-04-04T08:37:03.920Z</time>
      </trkpt>
      <trkpt lat="42.6622" lon="23.24315">
        <ele>682.978538</ele>
        <time>2022-04-04T08:37:08.870Z</time>
      </trkpt>
      <trkpt lat="42.66214" lon="23.24303">
        <ele>683.261011</ele>
        <time>2022-04-04T08:37:12.868Z</time>
      </trkpt>
      <trkpt lat="42.66211" lon="23.24291">
        <ele>683.478135</ele>
        <time>2022-04-04T08:37:17.882Z</time>
      </trkpt>
      <trkpt lat="42.66208" lon="23.24278">
        <ele>683.699884</ele>
        <time>2022-04-04T08:37:22.887Z</time>
      </trkpt>
      <trkpt lat="42.66204" lon="23.24265">
        <ele>683.918045</ele>
        <time>2022-04-04T08:37:27.868Z</time>
      </trkpt>
      <trkpt lat="42.66201" lon="23.24253">
        <ele>684.135847</ele>
        <time>2022-04-04T08:37:32.897Z</time>
      </trkpt>
      <trkpt lat="42.66195" lon="23.24243">
        <ele>684.341703</ele>
        <time>2022-04-04T08:37:36.872Z</time>
      </trkpt>
      <trkpt lat="42.66188" lon="23.24232">
        <ele>684.578827</ele>
        <time>2022-04-04T08:37:42.872Z</time>
      </trkpt>
      <trkpt lat="42.66183" lon="23.24218">
        <ele>684.822634</ele>
        <time>2022-04-04T08:37:47.869Z</time>
      </trkpt>
      <trkpt lat="42.66177" lon="23.24207">
        <ele>685.053151</ele>
        <time>2022-04-04T08:37:51.870Z</time>
      </trkpt>
      <trkpt lat="42.66167" lon="23.24199">
        <ele>685.307917</ele>
        <time>2022-04-04T08:37:55.871Z</time>
      </trkpt>
      <trkpt lat="42.66158" lon="23.24192">
        <ele>685.519233</ele>
        <time>2022-04-04T08:38:01.883Z</time>
      </trkpt>
      <trkpt lat="42.6615" lon="23.24186">
        <ele>685.737804</ele>
        <time>2022-04-04T08:38:07.866Z</time>
      </trkpt>
      <trkpt lat="42.6614" lon="23.24187">
        <ele>685.958917</ele>
        <time>2022-04-04T08:38:11.888Z</time>
      </trkpt>
      <trkpt lat="42.66129" lon="23.2419">
        <ele>686.193196</ele>
        <time>2022-04-04T08:38:16.901Z</time>
      </trkpt>
      <trkpt lat="42.6612" lon="23.24192">
        <ele>686.406646</ele>
        <time>2022-04-04T08:38:19.878Z</time>
      </trkpt>
      <trkpt lat="42.66109" lon="23.24193">
        <ele>686.63886</ele>
        <time>2022-04-04T08:38:22.851Z</time>
      </trkpt>
      <trkpt lat="42.66098" lon="23.24195">
        <ele>686.873441</ele>
        <time>2022-04-04T08:38:25.880Z</time>
      </trkpt>
      <trkpt lat="42.66086" lon="23.24197">
        <ele>687.02706</ele>
        <time>2022-04-04T08:38:28.860Z</time>
      </trkpt>
      <trkpt lat="42.66075" lon="23.24202">
        <ele>686.992858</ele>
        <time>2022-04-04T08:38:31.868Z</time>
      </trkpt>
      <trkpt lat="42.66064" lon="23.24201">
        <ele>686.96098</ele>
        <time>2022-04-04T08:38:35.865Z</time>
      </trkpt>
      <trkpt lat="42.66054" lon="23.24192">
        <ele>686.929169</ele>
        <time>2022-04-04T08:38:38.907Z</time>
      </trkpt>
      <trkpt lat="42.66048" lon="23.24182">
        <ele>686.900213</ele>
        <time>2022-04-04T08:38:41.880Z</time>
      </trkpt>
      <trkpt lat="42.66043" lon="23.24167">
        <ele>686.867628</ele>
        <time>2022-04-04T08:38:45.881Z</time>
      </trkpt>
      <trkpt lat="42.66039" lon="23.24155">
        <ele>686.838424</ele>
        <time>2022-04-04T08:38:49.876Z</time>
      </trkpt>
      <trkpt lat="42.66033" lon="23.24141">
        <ele>686.806341</ele>
        <time>2022-04-04T08:38:53.895Z</time>
      </trkpt>
      <trkpt lat="42.66026" lon="23.2413">
        <ele>686.775972</ele>
        <time>2022-04-04T08:38:57.886Z</time>
      </trkpt>
      <trkpt lat="42.6602" lon="23.24117">
        <ele>686.742964</ele>
        <time>2022-04-04T08:39:01.868Z</time>
      </trkpt>
      <trkpt lat="42.66015" lon="23.24105">
        <ele>686.714026</ele>
        <time>2022-04-04T08:39:05.868Z</time>
      </trkpt>
      <trkpt lat="42.66011" lon="23.24093">
        <ele>686.686213</ele>
        <time>2022-04-04T08:39:09.868Z</time>
      </trkpt>
      <trkpt lat="42.66006" lon="23.24081">
        <ele>686.657719</ele>
        <time>2022-04-04T08:39:14.899Z</time>
      </trkpt>
      <trkpt lat="42.66002" lon="23.24069">
        <ele>686.630351</ele>
        <time>2022-04-04T08:39:18.904Z</time>
      </trkpt>
      <trkpt lat="42.65997" lon="23.24055">
        <ele>686.599046</ele>
        <time>2022-04-04T08:39:22.873Z</time>
      </trkpt>
      <trkpt lat="42.65992" lon="23.24043">
        <ele>686.569202</ele>
        <time>2022-04-04T08:39:26.870Z</time>
      </trkpt>
      <trkpt lat="42.65988" lon="23.24029">
        <ele>686.5386</ele>
        <time>2022-04-04T08:39:30.873Z</time>
      </trkpt>
      <trkpt lat="42.65984" lon="23.24019">
        <ele>686.974357</ele>
        <time>2022-04-04T08:39:34.881Z</time>
      </trkpt>
      <trkpt lat="42.65974" lon="23.24018">
        <ele>687.795303</ele>
        <time>2022-04-04T08:39:39.893Z</time>
      </trkpt>
      <trkpt lat="42.65964" lon="23.24023">
        <ele>688.615776</ele>
        <time>2022-04-04T08:39:44.876Z</time>
      </trkpt>
      <trkpt lat="42.65953" lon="23.24031">
        <ele>689.538095</ele>
        <time>2022-04-04T08:39:48.894Z</time>
      </trkpt>
      <trkpt lat="42.65945" lon="23.24036">
        <ele>690.300816</ele>
        <time>2022-04-04T08:39:51.864Z</time>
      </trkpt>
      <trkpt lat="42.65935" lon="23.24038">
        <ele>691.07372</ele>
        <time>2022-04-04T08:39:56.877Z</time>
      </trkpt>
      <trkpt lat="42.65925" lon="23.24046">
        <ele>691.957607</ele>
        <time>2022-04-04T08:40:01.882Z</time>
      </trkpt>
      <trkpt lat="42.65916" lon="23.24052">
        <ele>692.737545</ele>
        <time>2022-04-04T08:40:05.867Z</time>
      </trkpt>
      <trkpt lat="42.65908" lon="23.24059">
        <ele>693.500964</ele>
        <time>2022-04-04T08:40:12.864Z</time>
      </trkpt>
      <trkpt lat="42.65898" lon="23.24061">
        <ele>694.251637</ele>
        <time>2022-04-04T08:40:18.882Z</time>
      </trkpt>
      <trkpt lat="42.65893" lon="23.2405">
        <ele>694.972965</ele>
        <time>2022-04-04T08:40:22.877Z</time>
      </trkpt>
      <trkpt lat="42.65888" lon="23.2404">
        <ele>695.687828</ele>
        <time>2022-04-04T08:40:26.893Z</time>
      </trkpt>
      <trkpt lat="42.65883" lon="23.24029">
        <ele>696.455523</ele>
        <time>2022-04-04T08:40:30.922Z</time>
      </trkpt>
      <trkpt lat="42.65877" lon="23.24018">
        <ele>697.213453</ele>
        <time>2022-04-04T08:40:33.885Z</time>
      </trkpt>
      <trkpt lat="42.65872" lon="23.24006">
        <ele>698.013494</ele>
        <time>2022-04-04T08:40:39.877Z</time>
      </trkpt>
      <trkpt lat="42.65869" lon="23.23991">
        <ele>698.885608</ele>
        <time>2022-04-04T08:40:45.881Z</time>
      </trkpt>
      <trkpt lat="42.65863" lon="23.23979">
        <ele>699.733356</ele>
        <time>2022-04-04T08:40:49.874Z</time>
      </trkpt>
      <trkpt lat="42.65861" lon="23.23966">
        <ele>700.483715</ele>
        <time>2022-04-04T08:40:53.877Z</time>
      </trkpt>
      <trkpt lat="42.65859" lon="23.23953">
        <ele>700.492534</ele>
        <time>2022-04-04T08:40:57.882Z</time>
      </trkpt>
      <trkpt lat="42.65853" lon="23.23942">
        <ele>700.418021</ele>
        <time>2022-04-04T08:41:01.875Z</time>
      </trkpt>
      <trkpt lat="42.65848" lon="23.23931">
        <ele>700.352237</ele>
        <time>2022-04-04T08:41:05.878Z</time>
      </trkpt>
      <trkpt lat="42.65842" lon="23.23918">
        <ele>700.26913</ele>
        <time>2022-04-04T08:41:09.867Z</time>
      </trkpt>
      <trkpt lat="42.65838" lon="23.23904">
        <ele>700.185925</ele>
        <time>2022-04-04T08:41:13.861Z</time>
      </trkpt>
      <trkpt lat="42.65833" lon="23.23891">
        <ele>700.109836</ele>
        <time>2022-04-04T08:41:17.877Z</time>
      </trkpt>
      <trkpt lat="42.65824" lon="23.23881">
        <ele>700.027135</ele>
        <time>2022-04-04T08:41:22.864Z</time>
      </trkpt>
      <trkpt lat="42.65821" lon="23.2387">
        <ele>699.959863</ele>
        <time>2022-04-04T08:41:26.873Z</time>
      </trkpt>
      <trkpt lat="42.65819" lon="23.23856">
        <ele>699.882758</ele>
        <time>2022-04-04T08:41:30.895Z</time>
      </trkpt>
      <trkpt lat="42.65818" lon="23.23841">
        <ele>699.805014</ele>
        <time>2022-04-04T08:41:35.894Z</time>
      </trkpt>
      <trkpt lat="42.65815" lon="23.23826">
        <ele>699.7213</ele>
        <time>2022-04-04T08:41:40.877Z</time>
      </trkpt>
      <trkpt lat="42.65809" lon="23.23814">
        <ele>699.642704</ele>
        <time>2022-04-04T08:41:44.903Z</time>
      </trkpt>
      <trkpt lat="42.65805" lon="23.23802">
        <ele>699.573661</ele>
        <time>2022-04-04T08:41:48.881Z</time>
      </trkpt>
      <trkpt lat="42.65801" lon="23.23791">
        <ele>699.504799</ele>
        <time>2022-04-04T08:41:52.885Z</time>
      </trkpt>
      <trkpt lat="42.65798" lon="23.23777">
        <ele>699.429086</ele>
        <time>2022-04-04T08:41:57.881Z</time>
      </trkpt>
      <trkpt lat="42.65792" lon="23.23765">
        <ele>699.348494</ele>
        <time>2022-04-04T08:42:02.871Z</time>
      </trkpt>
      <trkpt lat="42.65788" lon="23.23753">
        <ele>699.282056</ele>
        <time>2022-04-04T08:42:06.883Z</time>
      </trkpt>
      <trkpt lat="42.65784" lon="23.23742">
        <ele>699.435308</ele>
        <time>2022-04-04T08:42:12.868Z</time>
      </trkpt>
      <trkpt lat="42.65777" lon="23.23731">
        <ele>699.876128</ele>
        <time>2022-04-04T08:42:17.880Z</time>
      </trkpt>
      <trkpt lat="42.65771" lon="23.2372">
        <ele>700.331266</ele>
        <time>2022-04-04T08:42:23.895Z</time>
      </trkpt>
      <trkpt lat="42.65765" lon="23.23707">
        <ele>700.797089</ele>
        <time>2022-04-04T08:42:28.875Z</time>
      </trkpt>
      <trkpt lat="42.65761" lon="23.23696">
        <ele>701.202719</ele>
        <time>2022-04-04T08:42:32.877Z</time>
      </trkpt>
      <trkpt lat="42.65756" lon="23.23685">
        <ele>701.612432</ele>
        <time>2022-04-04T08:42:36.884Z</time>
      </trkpt>
      <trkpt lat="42.6575" lon="23.23673">
        <ele>702.057241</ele>
        <time>2022-04-04T08:42:41.908Z</time>
      </trkpt>
      <trkpt lat="42.65744" lon="23.23664">
        <ele>702.45087</ele>
        <time>2022-04-04T08:42:44.883Z</time>
      </trkpt>
      <trkpt lat="42.65739" lon="23.23652">
        <ele>702.886902</ele>
        <time>2022-04-04T08:42:48.886Z</time>
      </trkpt>
      <trkpt lat="42.65739" lon="23.23639">
        <ele>703.313607</ele>
        <time>2022-04-04T08:42:53.868Z</time>
      </trkpt>
      <trkpt lat="42.65735" lon="23.23624">
        <ele>703.797683</ele>
        <time>2022-04-04T08:42:58.870Z</time>
      </trkpt>
      <trkpt lat="42.65727" lon="23.23614">
        <ele>704.275864</ele>
        <time>2022-04-04T08:43:02.885Z</time>
      </trkpt>
      <trkpt lat="42.65723" lon="23.23601">
        <ele>704.716925</ele>
        <time>2022-04-04T08:43:07.912Z</time>
      </trkpt>
      <trkpt lat="42.65718" lon="23.23587">
        <ele>705.21007</ele>
        <time>2022-04-04T08:43:12.874Z</time>
      </trkpt>
      <trkpt lat="42.65713" lon="23.23574">
        <ele>705.65764</ele>
        <time>2022-04-04T08:43:16.877Z</time>
      </trkpt>
      <trkpt lat="42.65709" lon="23.23563">
        <ele>706.064801</ele>
        <time>2022-04-04T08:43:20.885Z</time>
      </trkpt>
      <trkpt lat="42.65704" lon="23.23552">
        <ele>706.465027</ele>
        <time>2022-04-04T08:43:23.891Z</time>
      </trkpt>
      <trkpt lat="42.657" lon="23.23541">
        <ele>706.867796</ele>
        <time>2022-04-04T08:43:26.876Z</time>
      </trkpt>
      <trkpt lat="42.65694" lon="23.23531">
        <ele>707.103241</ele>
        <time>2022-04-04T08:43:29.886Z</time>
      </trkpt>
      <trkpt lat="42.65688" lon="23.23519">
        <ele>707.273751</ele>
        <time>2022-04-04T08:43:33.873Z</time>
      </trkpt>
      <trkpt lat="42.65683" lon="23.23509">
        <ele>707.423946</ele>
        <time>2022-04-04T08:43:37.887Z</time>
      </trkpt>
      <trkpt lat="42.65675" lon="23.23497">
        <ele>707.609261</ele>
        <time>2022-04-04T08:43:41.908Z</time>
      </trkpt>
      <trkpt lat="42.65671" lon="23.23486">
        <ele>707.755481</ele>
        <time>2022-04-04T08:43:45.906Z</time>
      </trkpt>
      <trkpt lat="42.65668" lon="23.23473">
        <ele>707.917752</ele>
        <time>2022-04-04T08:43:49.880Z</time>
      </trkpt>
      <trkpt lat="42.65665" lon="23.23459">
        <ele>708.093688</ele>
        <time>2022-04-04T08:43:54.919Z</time>
      </trkpt>
      <trkpt lat="42.6566" lon="23.23448">
        <ele>708.252874</ele>
        <time>2022-04-04T08:43:58.887Z</time>
      </trkpt>
      <trkpt lat="42.65653" lon="23.23439">
        <ele>708.406144</ele>
        <time>2022-04-04T08:44:01.877Z</time>
      </trkpt>
      <trkpt lat="42.65649" lon="23.23426">
        <ele>708.576272</ele>
        <time>2022-04-04T08:44:06.877Z</time>
      </trkpt>
      <trkpt lat="42.65643" lon="23.23414">
        <ele>708.746295</ele>
        <time>2022-04-04T08:44:11.877Z</time>
      </trkpt>
      <trkpt lat="42.65638" lon="23.23401">
        <ele>708.915735</ele>
        <time>2022-04-04T08:44:16.881Z</time>
      </trkpt>
      <trkpt lat="42.65635" lon="23.23389">
        <ele>709.078457</ele>
        <time>2022-04-04T08:44:20.894Z</time>
      </trkpt>
      <trkpt lat="42.65632" lon="23.23376">
        <ele>709.240331</ele>
        <time>2022-04-04T08:44:25.886Z</time>
      </trkpt>
      <trkpt lat="42.65626" lon="23.23364">
        <ele>709.411436</ele>
        <time>2022-04-04T08:44:30.885Z</time>
      </trkpt>
      <trkpt lat="42.65622" lon="23.23351">
        <ele>709.572136</ele>
        <time>2022-04-04T08:44:35.870Z</time>
      </trkpt>
      <trkpt lat="42.65616" lon="23.23341">
        <ele>709.73166</ele>
        <time>2022-04-04T08:44:38.888Z</time>
      </trkpt>
      <trkpt lat="42.65609" lon="23.23329">
        <ele>709.910459</ele>
        <time>2022-04-04T08:44:42.886Z</time>
      </trkpt>
      <trkpt lat="42.65604" lon="23.23319">
        <ele>710.276878</ele>
        <time>2022-04-04T08:44:46.879Z</time>
      </trkpt>
      <trkpt lat="42.65601" lon="23.23306">
        <ele>710.679162</ele>
        <time>2022-04-04T08:44:50.919Z</time>
      </trkpt>
      <trkpt lat="42.65596" lon="23.23294">
        <ele>711.115088</ele>
        <time>2022-04-04T08:44:54.881Z</time>
      </trkpt>
      <trkpt lat="42.65592" lon="23.23281">
        <ele>711.554778</ele>
        <time>2022-04-04T08:44:58.881Z</time>
      </trkpt>
      <trkpt lat="42.65587" lon="23.23266">
        <ele>712.050753</ele>
        <time>2022-04-04T08:45:02.890Z</time>
      </trkpt>
      <trkpt lat="42.65582" lon="23.23254">
        <ele>712.474562</ele>
        <time>2022-04-04T08:45:06.888Z</time>
      </trkpt>
      <trkpt lat="42.6558" lon="23.2324">
        <ele>712.894462</ele>
        <time>2022-04-04T08:45:11.874Z</time>
      </trkpt>
      <trkpt lat="42.65576" lon="23.23227">
        <ele>713.320504</ele>
        <time>2022-04-04T08:45:15.873Z</time>
      </trkpt>
      <trkpt lat="42.65574" lon="23.23215">
        <ele>713.700973</ele>
        <time>2022-04-04T08:45:20.892Z</time>
      </trkpt>
      <trkpt lat="42.65573" lon="23.232">
        <ele>714.179199</ele>
        <time>2022-04-04T08:45:25.879Z</time>
      </trkpt>
      <trkpt lat="42.65567" lon="23.23187">
        <ele>714.611593</ele>
        <time>2022-04-04T08:45:29.890Z</time>
      </trkpt>
      <trkpt lat="42.65562" lon="23.23175">
        <ele>715.064548</ele>
        <time>2022-04-04T08:45:33.879Z</time>
      </trkpt>
      <trkpt lat="42.65555" lon="23.23162">
        <ele>715.5394</ele>
        <time>2022-04-04T08:45:37.887Z</time>
      </trkpt>
      <trkpt lat="42.65552" lon="23.23149">
        <ele>715.950585</ele>
        <time>2022-04-04T08:45:42.869Z</time>
      </trkpt>
      <trkpt lat="42.65547" lon="23.23135">
        <ele>716.421953</ele>
        <time>2022-04-04T08:45:46.900Z</time>
      </trkpt>
      <trkpt lat="42.6554" lon="23.23124">
        <ele>716.864554</ele>
        <time>2022-04-04T08:45:49.890Z</time>
      </trkpt>
      <trkpt lat="42.65535" lon="23.23113">
        <ele>717.253652</ele>
        <time>2022-04-04T08:45:52.874Z</time>
      </trkpt>
      <trkpt lat="42.65533" lon="23.23099">
        <ele>717.727512</ele>
        <time>2022-04-04T08:45:56.885Z</time>
      </trkpt>
      <trkpt lat="42.6553" lon="23.23087">
        <ele>718.164044</ele>
        <time>2022-04-04T08:46:00.874Z</time>
      </trkpt>
      <trkpt lat="42.65526" lon="23.23075">
        <ele>718.64553</ele>
        <time>2022-04-04T08:46:04.882Z</time>
      </trkpt>
      <trkpt lat="42.65521" lon="23.23064">
        <ele>719.092516</ele>
        <time>2022-04-04T08:46:08.890Z</time>
      </trkpt>
      <trkpt lat="42.65517" lon="23.23051">
        <ele>719.591143</ele>
        <time>2022-04-04T08:46:13.893Z</time>
      </trkpt>
      <trkpt lat="42.65512" lon="23.23039">
        <ele>720.081056</ele>
        <time>2022-04-04T08:46:18.882Z</time>
      </trkpt>
      <trkpt lat="42.6551" lon="23.23026">
        <ele>720.559711</ele>
        <time>2022-04-04T08:46:23.887Z</time>
      </trkpt>
      <trkpt lat="42.65509" lon="23.23013">
        <ele>721.009331</ele>
        <time>2022-04-04T08:46:27.899Z</time>
      </trkpt>
      <trkpt lat="42.65504" lon="23.22999">
        <ele>721.538326</ele>
        <time>2022-04-04T08:46:31.918Z</time>
      </trkpt>
      <trkpt lat="42.65497" lon="23.22986">
        <ele>722.117427</ele>
        <time>2022-04-04T08:46:35.890Z</time>
      </trkpt>
      <trkpt lat="42.6549" lon="23.22977">
        <ele>722.582457</ele>
        <time>2022-04-04T08:46:38.870Z</time>
      </trkpt>
      <trkpt lat="42.65484" lon="23.22963">
        <ele>723.138291</ele>
        <time>2022-04-04T08:46:42.918Z</time>
      </trkpt>
      <trkpt lat="42.6548" lon="23.22951">
        <ele>723.611718</ele>
        <time>2022-04-04T08:46:46.882Z</time>
      </trkpt>
      <trkpt lat="42.65475" lon="23.22938">
        <ele>724.13115</ele>
        <time>2022-04-04T08:46:50.878Z</time>
      </trkpt>
      <trkpt lat="42.65474" lon="23.22923">
        <ele>724.644551</ele>
        <time>2022-04-04T08:46:55.884Z</time>
      </trkpt>
      <trkpt lat="42.65469" lon="23.2291">
        <ele>725.17917</ele>
        <time>2022-04-04T08:47:00.867Z</time>
      </trkpt>
      <trkpt lat="42.65466" lon="23.22897">
        <ele>725.663291</ele>
        <time>2022-04-04T08:47:04.880Z</time>
      </trkpt>
      <trkpt lat="42.65463" lon="23.22883">
        <ele>726.007359</ele>
        <time>2022-04-04T08:47:09.867Z</time>
      </trkpt>
      <trkpt lat="42.65461" lon="23.2287">
        <ele>726.051792</ele>
        <time>2022-04-04T08:47:13.887Z</time>
      </trkpt>
      <trkpt lat="42.65457" lon="23.22856">
        <ele>726.101423</ele>
        <time>2022-04-04T08:47:17.894Z</time>
      </trkpt>
      <trkpt lat="42.65452" lon="23.22845">
        <ele>726.141996</ele>
        <time>2022-04-04T08:47:21.863Z</time>
      </trkpt>
      <trkpt lat="42.65452" lon="23.22832">
        <ele>726.184131</ele>
        <time>2022-04-04T08:47:25.887Z</time>
      </trkpt>
      <trkpt lat="42.65446" lon="23.22819">
        <ele>726.235855</ele>
        <time>2022-04-04T08:47:29.904Z</time>
      </trkpt>
      <trkpt lat="42.65444" lon="23.22805">
        <ele>726.282634</ele>
        <time>2022-04-04T08:47:33.893Z</time>
      </trkpt>
      <trkpt lat="42.6544" lon="23.2279">
        <ele>726.334209</ele>
        <time>2022-04-04T08:47:37.884Z</time>
      </trkpt>
      <trkpt lat="42.65435" lon="23.22776">
        <ele>726.386015</ele>
        <time>2022-04-04T08:47:41.899Z</time>
      </trkpt>
      <trkpt lat="42.65432" lon="23.22763">
        <ele>726.43172</ele>
        <time>2022-04-04T08:47:45.881Z</time>
      </trkpt>
      <trkpt lat="42.65434" lon="23.2275">
        <ele>726.477029</ele>
        <time>2022-04-04T08:47:49.882Z</time>
      </trkpt>
      <trkpt lat="42.65434" lon="23.22736">
        <ele>726.52277</ele>
        <time>2022-04-04T08:47:54.875Z</time>
      </trkpt>
      <trkpt lat="42.65428" lon="23.22726">
        <ele>726.563084</ele>
        <time>2022-04-04T08:47:57.880Z</time>
      </trkpt>
      <trkpt lat="42.65423" lon="23.22716">
        <ele>726.603381</ele>
        <time>2022-04-04T08:48:00.880Z</time>
      </trkpt>
      <trkpt lat="42.65416" lon="23.22705">
        <ele>726.652749</ele>
        <time>2022-04-04T08:48:04.871Z</time>
      </trkpt>
      <trkpt lat="42.65412" lon="23.22691">
        <ele>726.701746</ele>
        <time>2022-04-04T08:48:09.883Z</time>
      </trkpt>
      <trkpt lat="42.65413" lon="23.22678">
        <ele>726.743769</ele>
        <time>2022-04-04T08:48:13.903Z</time>
      </trkpt>
      <trkpt lat="42.65412" lon="23.22665">
        <ele>726.785465</ele>
        <time>2022-04-04T08:48:17.885Z</time>
      </trkpt>
      <trkpt lat="42.65412" lon="23.22651">
        <ele>726.835254</ele>
        <time>2022-04-04T08:48:22.881Z</time>
      </trkpt>
      <trkpt lat="42.65414" lon="23.22638">
        <ele>726.885622</ele>
        <time>2022-04-04T08:48:27.886Z</time>
      </trkpt>
      <trkpt lat="42.65411" lon="23.22623">
        <ele>726.942265</ele>
        <time>2022-04-04T08:48:32.879Z</time>
      </trkpt>
      <trkpt lat="42.65408" lon="23.2261">
        <ele>726.991018</ele>
        <time>2022-04-04T08:48:36.884Z</time>
      </trkpt>
      <trkpt lat="42.65405" lon="23.22598">
        <ele>727.038756</ele>
        <time>2022-04-04T08:48:41.869Z</time>
      </trkpt>
      <trkpt lat="42.65398" lon="23.22587">
        <ele>727.090026</ele>
        <time>2022-04-04T08:48:45.884Z</time>
      </trkpt>
      <trkpt lat="42.65396" lon="23.22572">
        <ele>727.144451</ele>
        <time>2022-04-04T08:48:50.865Z</time>
      </trkpt>
      <trkpt lat="42.6539" lon="23.22562">
        <ele>727.190555</ele>
        <time>2022-04-04T08:48:54.871Z</time>
      </trkpt>
      <trkpt lat="42.65384" lon="23.22551">
        <ele>727.241082</ele>
        <time>2022-04-04T08:48:58.883Z</time>
      </trkpt>
      <trkpt lat="42.65383" lon="23.22538">
        <ele>727.288903</ele>
        <time>2022-04-04T08:49:03.928Z</time>
      </trkpt>
      <trkpt lat="42.65377" lon="23.22526">
        <ele>727.340973</ele>
        <time>2022-04-04T08:49:08.877Z</time>
      </trkpt>
      <trkpt lat="42.6537" lon="23.22515">
        <ele>727.39363</ele>
        <time>2022-04-04T08:49:13.862Z</time>
      </trkpt>
      <trkpt lat="42.65365" lon="23.22505">
        <ele>727.439169</ele>
        <time>2022-04-04T08:49:18.923Z</time>
      </trkpt>
      <trkpt lat="42.6536" lon="23.22493">
        <ele>727.488998</ele>
        <time>2022-04-04T08:49:23.881Z</time>
      </trkpt>
      <trkpt lat="42.65355" lon="23.22481">
        <ele>727.540537</ele>
        <time>2022-04-04T08:49:28.863Z</time>
      </trkpt>
      <trkpt lat="42.65349" lon="23.2247">
        <ele>727.588703</ele>
        <time>2022-04-04T08:49:32.863Z</time>
      </trkpt>
      <trkpt lat="42.65343" lon="23.22458">
        <ele>727.64422</ele>
        <time>2022-04-04T08:49:37.867Z</time>
      </trkpt>
      <trkpt lat="42.65334" lon="23.22447">
        <ele>727.760255</ele>
        <time>2022-04-04T08:49:41.889Z</time>
      </trkpt>
      <trkpt lat="42.65327" lon="23.22437">
        <ele>728.0946</ele>
        <time>2022-04-04T08:49:46.876Z</time>
      </trkpt>
      <trkpt lat="42.6532" lon="23.22428">
        <ele>728.405085</ele>
        <time>2022-04-04T08:49:51.866Z</time>
      </trkpt>
      <trkpt lat="42.65311" lon="23.2242">
        <ele>728.782535</ele>
        <time>2022-04-04T08:49:55.873Z</time>
      </trkpt>
      <trkpt lat="42.65301" lon="23.22411">
        <ele>729.149244</ele>
        <time>2022-04-04T08:49:59.861Z</time>
      </trkpt>
      <trkpt lat="42.65295" lon="23.224">
        <ele>729.488641</ele>
        <time>2022-04-04T08:50:03.889Z</time>
      </trkpt>
      <trkpt lat="42.65287" lon="23.22392">
        <ele>729.80164</ele>
        <time>2022-04-04T08:50:07.867Z</time>
      </trkpt>
      <trkpt lat="42.65277" lon="23.22386">
        <ele>730.14422</ele>
        <time>2022-04-04T08:50:12.888Z</time>
      </trkpt>
      <trkpt lat="42.6527" lon="23.22376">
        <ele>730.468355</ele>
        <time>2022-04-04T08:50:16.864Z</time>
      </trkpt>
      <trkpt lat="42.65264" lon="23.22364">
        <ele>730.837903</ele>
        <time>2022-04-04T08:50:21.891Z</time>
      </trkpt>
      <trkpt lat="42.65256" lon="23.22353">
        <ele>731.184852</ele>
        <time>2022-04-04T08:50:25.862Z</time>
      </trkpt>
      <trkpt lat="42.6525" lon="23.22345">
        <ele>731.481813</ele>
        <time>2022-04-04T08:50:28.883Z</time>
      </trkpt>
      <trkpt lat="42.65246" lon="23.22333">
        <ele>731.78171</ele>
        <time>2022-04-04T08:50:32.890Z</time>
      </trkpt>
      <trkpt lat="42.6524" lon="23.22319">
        <ele>732.161457</ele>
        <time>2022-04-04T08:50:37.868Z</time>
      </trkpt>
      <trkpt lat="42.65235" lon="23.22307">
        <ele>732.49899</ele>
        <time>2022-04-04T08:50:41.871Z</time>
      </trkpt>
      <trkpt lat="42.6523" lon="23.22295">
        <ele>732.824831</ele>
        <time>2022-04-04T08:50:45.875Z</time>
      </trkpt>
      <trkpt lat="42.65226" lon="23.22283">
        <ele>733.152247</ele>
        <time>2022-04-04T08:50:49.914Z</time>
      </trkpt>
      <trkpt lat="42.6522" lon="23.22272">
        <ele>733.480149</ele>
        <time>2022-04-04T08:50:53.879Z</time>
      </trkpt>
      <trkpt lat="42.65217" lon="23.2226">
        <ele>733.841302</ele>
        <time>2022-04-04T08:50:57.901Z</time>
      </trkpt>
      <trkpt lat="42.65217" lon="23.22247">
        <ele>734.207925</ele>
        <time>2022-04-04T08:51:01.860Z</time>
      </trkpt>
      <trkpt lat="42.65212" lon="23.22234">
        <ele>734.602236</ele>
        <time>2022-04-04T08:51:05.879Z</time>
      </trkpt>
      <trkpt lat="42.65208" lon="23.22223">
        <ele>734.962075</ele>
        <time>2022-04-04T08:51:09.905Z</time>
      </trkpt>
      <trkpt lat="42.65206" lon="23.22209">
        <ele>735.38018</ele>
        <time>2022-04-04T08:51:14.883Z</time>
      </trkpt>
      <trkpt lat="42.65204" lon="23.22196">
        <ele>735.769872</ele>
        <time>2022-04-04T08:51:19.858Z</time>
      </trkpt>
      <trkpt lat="42.65201" lon="23.22182">
        <ele>736.195505</ele>
        <time>2022-04-04T08:51:24.903Z</time>
      </trkpt>
      <trkpt lat="42.65198" lon="23.22167">
        <ele>736.620451</ele>
        <time>2022-04-04T08:51:29.886Z</time>
      </trkpt>
      <trkpt lat="42.65193" lon="23.22155">
        <ele>737.01658</ele>
        <time>2022-04-04T08:51:33.885Z</time>
      </trkpt>
      <trkpt lat="42.6519" lon="23.22142">
        <ele>737.427282</ele>
        <time>2022-04-04T08:51:38.898Z</time>
      </trkpt>
      <trkpt lat="42.65188" lon="23.22127">
        <ele>737.847405</ele>
        <time>2022-04-04T08:51:43.862Z</time>
      </trkpt>
      <trkpt lat="42.65181" lon="23.22115">
        <ele>738.295625</ele>
        <time>2022-04-04T08:51:47.879Z</time>
      </trkpt>
      <trkpt lat="42.65175" lon="23.22103">
        <ele>738.712984</ele>
        <time>2022-04-04T08:51:51.883Z</time>
      </trkpt>
      <trkpt lat="42.65173" lon="23.22089">
        <ele>739.120365</ele>
        <time>2022-04-04T08:51:56.887Z</time>
      </trkpt>
      <trkpt lat="42.65167" lon="23.22077">
        <ele>739.537333</ele>
        <time>2022-04-04T08:52:00.910Z</time>
      </trkpt>
      <trkpt lat="42.65164" lon="23.22063">
        <ele>739.972069</ele>
        <time>2022-04-04T08:52:05.880Z</time>
      </trkpt>
      <trkpt lat="42.65159" lon="23.2205">
        <ele>740.379617</ele>
        <time>2022-04-04T08:52:09.888Z</time>
      </trkpt>
      <trkpt lat="42.65152" lon="23.22041">
        <ele>740.798688</ele>
        <time>2022-04-04T08:52:12.881Z</time>
      </trkpt>
      <trkpt lat="42.65146" lon="23.22029">
        <ele>741.355752</ele>
        <time>2022-04-04T08:52:16.901Z</time>
      </trkpt>
      <trkpt lat="42.65146" lon="23.22016">
        <ele>741.844062</ele>
        <time>2022-04-04T08:52:21.897Z</time>
      </trkpt>
      <trkpt lat="42.65143" lon="23.22004">
        <ele>742.309769</ele>
        <time>2022-04-04T08:52:25.878Z</time>
      </trkpt>
      <trkpt lat="42.65136" lon="23.21992">
        <ele>742.859768</ele>
        <time>2022-04-04T08:52:29.883Z</time>
      </trkpt>
      <trkpt lat="42.65131" lon="23.21981">
        <ele>743.344324</ele>
        <time>2022-04-04T08:52:33.896Z</time>
      </trkpt>
      <trkpt lat="42.6513" lon="23.21967">
        <ele>743.881707</ele>
        <time>2022-04-04T08:52:38.885Z</time>
      </trkpt>
      <trkpt lat="42.65127" lon="23.21953">
        <ele>744.436128</ele>
        <time>2022-04-04T08:52:43.926Z</time>
      </trkpt>
      <trkpt lat="42.65124" lon="23.21941">
        <ele>744.901836</ele>
        <time>2022-04-04T08:52:47.884Z</time>
      </trkpt>
      <trkpt lat="42.65121" lon="23.21927">
        <ele>745.456016</ele>
        <time>2022-04-04T08:52:52.883Z</time>
      </trkpt>
      <trkpt lat="42.65115" lon="23.21916">
        <ele>745.988522</ele>
        <time>2022-04-04T08:52:56.893Z</time>
      </trkpt>
      <trkpt lat="42.6511" lon="23.21904">
        <ele>746.521028</ele>
        <time>2022-04-04T08:53:00.907Z</time>
      </trkpt>
      <trkpt lat="42.65106" lon="23.2189">
        <ele>747.073335</ele>
        <time>2022-04-04T08:53:05.883Z</time>
      </trkpt>
      <trkpt lat="42.65099" lon="23.21881">
        <ele>747.555405</ele>
        <time>2022-04-04T08:53:08.866Z</time>
      </trkpt>
      <trkpt lat="42.65095" lon="23.21869">
        <ele>748.055825</ele>
        <time>2022-04-04T08:53:13.879Z</time>
      </trkpt>
      <trkpt lat="42.65093" lon="23.21857">
        <ele>748.525176</ele>
        <time>2022-04-04T08:53:18.887Z</time>
      </trkpt>
      <trkpt lat="42.65092" lon="23.21845">
        <ele>748.991958</ele>
        <time>2022-04-04T08:53:23.867Z</time>
      </trkpt>
      <trkpt lat="42.65084" lon="23.21822">
        <ele>749.96232</ele>
        <time>2022-04-04T08:54:37.888Z</time>
      </trkpt>
      <trkpt lat="42.65079" lon="23.21812">
        <ele>750.537248</ele>
        <time>2022-04-04T08:54:43.932Z</time>
      </trkpt>
      <trkpt lat="42.65075" lon="23.218">
        <ele>751.148943</ele>
        <time>2022-04-04T08:54:49.899Z</time>
      </trkpt>
      <trkpt lat="42.65069" lon="23.21789">
        <ele>751.782469</ele>
        <time>2022-04-04T08:54:55.920Z</time>
      </trkpt>
      <trkpt lat="42.65066" lon="23.21776">
        <ele>752.391664</ele>
        <time>2022-04-04T08:55:01.876Z</time>
      </trkpt>
      <trkpt lat="42.65061" lon="23.21764">
        <ele>753.045158</ele>
        <time>2022-04-04T08:55:07.879Z</time>
      </trkpt>
      <trkpt lat="42.65058" lon="23.21751">
        <ele>753.656279</ele>
        <time>2022-04-04T08:55:12.886Z</time>
      </trkpt>
      <trkpt lat="42.65056" lon="23.21739">
        <ele>754.258182</ele>
        <time>2022-04-04T08:55:18.884Z</time>
      </trkpt>
      <trkpt lat="42.65053" lon="23.21724">
        <ele>754.935237</ele>
        <time>2022-04-04T08:55:24.864Z</time>
      </trkpt>
      <trkpt lat="42.65052" lon="23.21711">
        <ele>755.547151</ele>
        <time>2022-04-04T08:55:30.886Z</time>
      </trkpt>
      <trkpt lat="42.65046" lon="23.21701">
        <ele>756.159744</ele>
        <time>2022-04-04T08:55:34.894Z</time>
      </trkpt>
      <trkpt lat="42.65043" lon="23.21688">
        <ele>756.788677</ele>
        <time>2022-04-04T08:55:39.860Z</time>
      </trkpt>
      <trkpt lat="42.65045" lon="23.21676">
        <ele>757.357344</ele>
        <time>2022-04-04T08:55:45.890Z</time>
      </trkpt>
      <trkpt lat="42.6504" lon="23.21664">
        <ele>757.970462</ele>
        <time>2022-04-04T08:55:50.926Z</time>
      </trkpt>
      <trkpt lat="42.65036" lon="23.21651">
        <ele>758.613227</ele>
        <time>2022-04-04T08:55:55.876Z</time>
      </trkpt>
      <trkpt lat="42.65029" lon="23.21641">
        <ele>759.252064</ele>
        <time>2022-04-04T08:55:59.889Z</time>
      </trkpt>
      <trkpt lat="42.65026" lon="23.21628">
        <ele>759.902391</ele>
        <time>2022-04-04T08:56:06.888Z</time>
      </trkpt>
      <trkpt lat="42.6502" lon="23.21616">
        <ele>760.532685</ele>
        <time>2022-04-04T08:56:11.919Z</time>
      </trkpt>
      <trkpt lat="42.65016" lon="23.21604">
        <ele>761.189223</ele>
        <time>2022-04-04T08:56:17.882Z</time>
      </trkpt>
      <trkpt lat="42.65013" lon="23.21591">
        <ele>761.818642</ele>
        <time>2022-04-04T08:56:23.883Z</time>
      </trkpt>
      <trkpt lat="42.65013" lon="23.21577">
        <ele>762.493815</ele>
        <time>2022-04-04T08:56:31.886Z</time>
      </trkpt>
      <trkpt lat="42.6501" lon="23.21565">
        <ele>763.14127</ele>
        <time>2022-04-04T08:56:36.922Z</time>
      </trkpt>
      <trkpt lat="42.65003" lon="23.21553">
        <ele>763.841688</ele>
        <time>2022-04-04T08:56:42.876Z</time>
      </trkpt>
      <trkpt lat="42.65001" lon="23.21541">
        <ele>764.455088</ele>
        <time>2022-04-04T08:56:47.922Z</time>
      </trkpt>
      <trkpt lat="42.64998" lon="23.21527">
        <ele>765.146654</ele>
        <time>2022-04-04T08:56:52.881Z</time>
      </trkpt>
      <trkpt lat="42.64993" lon="23.21517">
        <ele>765.75617</ele>
        <time>2022-04-04T08:56:56.887Z</time>
      </trkpt>
      <trkpt lat="42.64987" lon="23.21508">
        <ele>766.356137</ele>
        <time>2022-04-04T08:57:00.874Z</time>
      </trkpt>
      <trkpt lat="42.64984" lon="23.21496">
        <ele>766.964847</ele>
        <time>2022-04-04T08:57:07.937Z</time>
      </trkpt>
      <trkpt lat="42.64982" lon="23.21481">
        <ele>767.671089</ele>
        <time>2022-04-04T08:57:13.883Z</time>
      </trkpt>
      <trkpt lat="42.64974" lon="23.21472">
        <ele>768.34983</ele>
        <time>2022-04-04T08:57:18.876Z</time>
      </trkpt>
      <trkpt lat="42.64972" lon="23.2146">
        <ele>768.982085</ele>
        <time>2022-04-04T08:57:23.878Z</time>
      </trkpt>
      <trkpt lat="42.6497" lon="23.21448">
        <ele>769.586109</ele>
        <time>2022-04-04T08:57:28.887Z</time>
      </trkpt>
      <trkpt lat="42.64964" lon="23.21437">
        <ele>770.255241</ele>
        <time>2022-04-04T08:57:35.882Z</time>
      </trkpt>
      <trkpt lat="42.64959" lon="23.21426">
        <ele>770.874113</ele>
        <time>2022-04-04T08:57:42.869Z</time>
      </trkpt>
      <trkpt lat="42.64954" lon="23.21413">
        <ele>771.579773</ele>
        <time>2022-04-04T08:57:48.879Z</time>
      </trkpt>
      <trkpt lat="42.64953" lon="23.214">
        <ele>772.201988</ele>
        <time>2022-04-04T08:57:54.880Z</time>
      </trkpt>
      <trkpt lat="42.64948" lon="23.21387">
        <ele>772.893489</ele>
        <time>2022-04-04T08:58:00.873Z</time>
      </trkpt>
      <trkpt lat="42.64945" lon="23.21373">
        <ele>773.442432</ele>
        <time>2022-04-04T08:58:06.861Z</time>
      </trkpt>
      <trkpt lat="42.64941" lon="23.2136">
        <ele>773.903437</ele>
        <time>2022-04-04T08:58:11.927Z</time>
      </trkpt>
      <trkpt lat="42.64938" lon="23.21348">
        <ele>774.359694</ele>
        <time>2022-04-04T08:58:16.903Z</time>
      </trkpt>
      <trkpt lat="42.64937" lon="23.21334">
        <ele>774.834181</ele>
        <time>2022-04-04T08:58:22.929Z</time>
      </trkpt>
      <trkpt lat="42.64934" lon="23.2132">
        <ele>775.331629</ele>
        <time>2022-04-04T08:58:28.863Z</time>
      </trkpt>
      <trkpt lat="42.64931" lon="23.21307">
        <ele>775.783757</ele>
        <time>2022-04-04T08:58:35.871Z</time>
      </trkpt>
      <trkpt lat="42.64927" lon="23.21297">
        <ele>776.204274</ele>
        <time>2022-04-04T08:58:40.920Z</time>
      </trkpt>
      <trkpt lat="42.64922" lon="23.21286">
        <ele>776.640202</ele>
        <time>2022-04-04T08:58:45.876Z</time>
      </trkpt>
      <trkpt lat="42.64924" lon="23.21273">
        <ele>777.110344</ele>
        <time>2022-04-04T08:58:51.875Z</time>
      </trkpt>
      <trkpt lat="42.64923" lon="23.2126">
        <ele>777.559086</ele>
        <time>2022-04-04T08:58:56.877Z</time>
      </trkpt>
      <trkpt lat="42.64918" lon="23.21249">
        <ele>778.017002</ele>
        <time>2022-04-04T08:59:01.883Z</time>
      </trkpt>
      <trkpt lat="42.64915" lon="23.21237">
        <ele>778.45262</ele>
        <time>2022-04-04T08:59:06.880Z</time>
      </trkpt>
      <trkpt lat="42.64915" lon="23.21224">
        <ele>778.897135</ele>
        <time>2022-04-04T08:59:12.887Z</time>
      </trkpt>
      <trkpt lat="42.64909" lon="23.21213">
        <ele>779.363699</ele>
        <time>2022-04-04T08:59:16.880Z</time>
      </trkpt>
      <trkpt lat="42.64902" lon="23.21202">
        <ele>779.869686</ele>
        <time>2022-04-04T08:59:20.885Z</time>
      </trkpt>
      <trkpt lat="42.64897" lon="23.21191">
        <ele>780.315173</ele>
        <time>2022-04-04T08:59:24.880Z</time>
      </trkpt>
      <trkpt lat="42.6489" lon="23.2118">
        <ele>780.81586</ele>
        <time>2022-04-04T08:59:28.876Z</time>
      </trkpt>
      <trkpt lat="42.64882" lon="23.2117">
        <ele>781.306993</ele>
        <time>2022-04-04T08:59:32.874Z</time>
      </trkpt>
      <trkpt lat="42.64875" lon="23.21159">
        <ele>780.965135</ele>
        <time>2022-04-04T08:59:36.891Z</time>
      </trkpt>
      <trkpt lat="42.64867" lon="23.2115">
        <ele>780.39217</ele>
        <time>2022-04-04T08:59:39.867Z</time>
      </trkpt>
      <trkpt lat="42.6486" lon="23.21138">
        <ele>779.736713</ele>
        <time>2022-04-04T08:59:43.873Z</time>
      </trkpt>
      <trkpt lat="42.64851" lon="23.21128">
        <ele>779.083974</ele>
        <time>2022-04-04T08:59:46.884Z</time>
      </trkpt>
      <trkpt lat="42.64842" lon="23.21117">
        <ele>778.411661</ele>
        <time>2022-04-04T08:59:49.867Z</time>
      </trkpt>
      <trkpt lat="42.64833" lon="23.21107">
        <ele>777.76012</ele>
        <time>2022-04-04T08:59:52.871Z</time>
      </trkpt>
      <trkpt lat="42.64823" lon="23.21095">
        <ele>777.02003</ele>
        <time>2022-04-04T08:59:55.908Z</time>
      </trkpt>
      <trkpt lat="42.64816" lon="23.21087">
        <ele>776.491342</ele>
        <time>2022-04-04T08:59:57.873Z</time>
      </trkpt>
      <trkpt lat="42.64808" lon="23.21075">
        <ele>775.830988</ele>
        <time>2022-04-04T09:00:00.874Z</time>
      </trkpt>
      <trkpt lat="42.64802" lon="23.21063">
        <ele>775.236957</ele>
        <time>2022-04-04T09:00:03.878Z</time>
      </trkpt>
      <trkpt lat="42.648" lon="23.2105">
        <ele>774.704667</ele>
        <time>2022-04-04T09:00:06.887Z</time>
      </trkpt>
      <trkpt lat="42.64797" lon="23.21037">
        <ele>774.145053</ele>
        <time>2022-04-04T09:00:09.885Z</time>
      </trkpt>
      <trkpt lat="42.64795" lon="23.21025">
        <ele>773.615588</ele>
        <time>2022-04-04T09:00:12.876Z</time>
      </trkpt>
      <trkpt lat="42.6479" lon="23.21013">
        <ele>773.040266</ele>
        <time>2022-04-04T09:00:15.878Z</time>
      </trkpt>
      <trkpt lat="42.64785" lon="23.21002">
        <ele>772.498561</ele>
        <time>2022-04-04T09:00:18.922Z</time>
      </trkpt>
      <trkpt lat="42.64783" lon="23.20988">
        <ele>771.930136</ele>
        <time>2022-04-04T09:00:22.887Z</time>
      </trkpt>
      <trkpt lat="42.64781" lon="23.20975">
        <ele>771.39511</ele>
        <time>2022-04-04T09:00:25.865Z</time>
      </trkpt>
      <trkpt lat="42.64778" lon="23.20962">
        <ele>771.83315</ele>
        <time>2022-04-04T09:00:28.879Z</time>
      </trkpt>
      <trkpt lat="42.64769" lon="23.20949">
        <ele>772.466505</ele>
        <time>2022-04-04T09:00:31.890Z</time>
      </trkpt>
      <trkpt lat="42.64764" lon="23.20938">
        <ele>772.955832</ele>
        <time>2022-04-04T09:00:34.867Z</time>
      </trkpt>
      <trkpt lat="42.6476" lon="23.20926">
        <ele>773.455145</ele>
        <time>2022-04-04T09:00:38.890Z</time>
      </trkpt>
      <trkpt lat="42.64759" lon="23.20913">
        <ele>773.928537</ele>
        <time>2022-04-04T09:00:42.891Z</time>
      </trkpt>
      <trkpt lat="42.64754" lon="23.20901">
        <ele>774.430833</ele>
        <time>2022-04-04T09:00:47.859Z</time>
      </trkpt>
      <trkpt lat="42.64748" lon="23.20889">
        <ele>774.961569</ele>
        <time>2022-04-04T09:00:52.884Z</time>
      </trkpt>
      <trkpt lat="42.64741" lon="23.2088">
        <ele>775.441583</ele>
        <time>2022-04-04T09:00:56.869Z</time>
      </trkpt>
      <trkpt lat="42.64736" lon="23.20868">
        <ele>775.942773</ele>
        <time>2022-04-04T09:01:01.882Z</time>
      </trkpt>
      <trkpt lat="42.64731" lon="23.20857">
        <ele>776.452194</ele>
        <time>2022-04-04T09:01:05.950Z</time>
      </trkpt>
      <trkpt lat="42.64724" lon="23.20845">
        <ele>777.003737</ele>
        <time>2022-04-04T09:01:09.898Z</time>
      </trkpt>
      <trkpt lat="42.64715" lon="23.20836">
        <ele>777.542813</ele>
        <time>2022-04-04T09:01:12.872Z</time>
      </trkpt>
      <trkpt lat="42.64709" lon="23.20824">
        <ele>778.058679</ele>
        <time>2022-04-04T09:01:17.872Z</time>
      </trkpt>
      <trkpt lat="42.64702" lon="23.20814">
        <ele>778.595625</ele>
        <time>2022-04-04T09:01:21.871Z</time>
      </trkpt>
      <trkpt lat="42.64694" lon="23.20805">
        <ele>779.108222</ele>
        <time>2022-04-04T09:01:25.879Z</time>
      </trkpt>
      <trkpt lat="42.6469" lon="23.20793">
        <ele>779.59519</ele>
        <time>2022-04-04T09:01:30.886Z</time>
      </trkpt>
      <trkpt lat="42.64684" lon="23.20783">
        <ele>780.048922</ele>
        <time>2022-04-04T09:01:34.904Z</time>
      </trkpt>
      <trkpt lat="42.64679" lon="23.20771">
        <ele>780.490527</ele>
        <time>2022-04-04T09:01:39.878Z</time>
      </trkpt>
      <trkpt lat="42.64673" lon="23.20761">
        <ele>780.824219</ele>
        <time>2022-04-04T09:01:43.883Z</time>
      </trkpt>
      <trkpt lat="42.64667" lon="23.20749">
        <ele>781.176578</ele>
        <time>2022-04-04T09:01:49.873Z</time>
      </trkpt>
      <trkpt lat="42.64659" lon="23.20741">
        <ele>781.495384</ele>
        <time>2022-04-04T09:01:53.881Z</time>
      </trkpt>
      <trkpt lat="42.64653" lon="23.20732">
        <ele>781.797619</ele>
        <time>2022-04-04T09:01:57.874Z</time>
      </trkpt>
      <trkpt lat="42.64646" lon="23.2072">
        <ele>782.180686</ele>
        <time>2022-04-04T09:02:02.908Z</time>
      </trkpt>
      <trkpt lat="42.64639" lon="23.20709">
        <ele>782.545455</ele>
        <time>2022-04-04T09:02:07.880Z</time>
      </trkpt>
      <trkpt lat="42.64631" lon="23.207">
        <ele>782.873103</ele>
        <time>2022-04-04T09:02:10.890Z</time>
      </trkpt>
      <trkpt lat="42.64623" lon="23.2069">
        <ele>783.231466</ele>
        <time>2022-04-04T09:02:14.922Z</time>
      </trkpt>
      <trkpt lat="42.64616" lon="23.20681">
        <ele>783.55901</ele>
        <time>2022-04-04T09:02:18.877Z</time>
      </trkpt>
      <trkpt lat="42.64607" lon="23.20673">
        <ele>783.920821</ele>
        <time>2022-04-04T09:02:21.888Z</time>
      </trkpt>
      <trkpt lat="42.64599" lon="23.20665">
        <ele>784.27298</ele>
        <time>2022-04-04T09:02:25.892Z</time>
      </trkpt>
      <trkpt lat="42.64593" lon="23.20655">
        <ele>784.592093</ele>
        <time>2022-04-04T09:02:29.864Z</time>
      </trkpt>
      <trkpt lat="42.64587" lon="23.20644">
        <ele>784.906799</ele>
        <time>2022-04-04T09:02:35.884Z</time>
      </trkpt>
      <trkpt lat="42.64579" lon="23.20635">
        <ele>785.263955</ele>
        <time>2022-04-04T09:02:40.883Z</time>
      </trkpt>
      <trkpt lat="42.64573" lon="23.20625">
        <ele>785.570712</ele>
        <time>2022-04-04T09:02:45.879Z</time>
      </trkpt>
      <trkpt lat="42.64567" lon="23.20613">
        <ele>785.930944</ele>
        <time>2022-04-04T09:02:50.879Z</time>
      </trkpt>
      <trkpt lat="42.64559" lon="23.20605">
        <ele>786.259904</ele>
        <time>2022-04-04T09:02:55.883Z</time>
      </trkpt>
      <trkpt lat="42.64549" lon="23.206">
        <ele>786.981731</ele>
        <time>2022-04-04T09:02:58.865Z</time>
      </trkpt>
      <trkpt lat="42.64539" lon="23.20593">
        <ele>787.868701</ele>
        <time>2022-04-04T09:03:02.896Z</time>
      </trkpt>
      <trkpt lat="42.64531" lon="23.20587">
        <ele>788.588553</ele>
        <time>2022-04-04T09:03:06.883Z</time>
      </trkpt>
      <trkpt lat="42.64523" lon="23.20579">
        <ele>789.381761</ele>
        <time>2022-04-04T09:03:13.889Z</time>
      </trkpt>
      <trkpt lat="42.64515" lon="23.20572">
        <ele>790.113157</ele>
        <time>2022-04-04T09:03:19.876Z</time>
      </trkpt>
      <trkpt lat="42.64507" lon="23.20564">
        <ele>790.880123</ele>
        <time>2022-04-04T09:03:24.888Z</time>
      </trkpt>
      <trkpt lat="42.64501" lon="23.20555">
        <ele>791.609842</ele>
        <time>2022-04-04T09:03:30.896Z</time>
      </trkpt>
      <trkpt lat="42.64494" lon="23.20544">
        <ele>792.433942</ele>
        <time>2022-04-04T09:03:36.884Z</time>
      </trkpt>
      <trkpt lat="42.64487" lon="23.20534">
        <ele>793.216063</ele>
        <time>2022-04-04T09:03:42.921Z</time>
      </trkpt>
      <trkpt lat="42.64479" lon="23.20528">
        <ele>793.998363</ele>
        <time>2022-04-04T09:03:49.865Z</time>
      </trkpt>
      <trkpt lat="42.64469" lon="23.20527">
        <ele>794.734652</ele>
        <time>2022-04-04T09:03:56.935Z</time>
      </trkpt>
      <trkpt lat="42.64461" lon="23.20522">
        <ele>795.461942</ele>
        <time>2022-04-04T09:04:01.890Z</time>
      </trkpt>
      <trkpt lat="42.64453" lon="23.20516">
        <ele>796.217015</ele>
        <time>2022-04-04T09:04:05.882Z</time>
      </trkpt>
      <trkpt lat="42.64444" lon="23.20509">
        <ele>797.008957</ele>
        <time>2022-04-04T09:04:10.876Z</time>
      </trkpt>
      <trkpt lat="42.64435" lon="23.20503">
        <ele>797.762197</ele>
        <time>2022-04-04T09:04:15.878Z</time>
      </trkpt>
      <trkpt lat="42.64426" lon="23.20499">
        <ele>798.503857</ele>
        <time>2022-04-04T09:04:19.877Z</time>
      </trkpt>
      <trkpt lat="42.64418" lon="23.20491">
        <ele>799.299007</ele>
        <time>2022-04-04T09:04:26.890Z</time>
      </trkpt>
      <trkpt lat="42.64411" lon="23.20484">
        <ele>800.023691</ele>
        <time>2022-04-04T09:04:32.893Z</time>
      </trkpt>
      <trkpt lat="42.64402" lon="23.20477">
        <ele>800.825595</ele>
        <time>2022-04-04T09:04:37.880Z</time>
      </trkpt>
      <trkpt lat="42.64393" lon="23.20474">
        <ele>801.511599</ele>
        <time>2022-04-04T09:04:44.876Z</time>
      </trkpt>
      <trkpt lat="42.64384" lon="23.20468">
        <ele>802.203516</ele>
        <time>2022-04-04T09:04:52.879Z</time>
      </trkpt>
      <trkpt lat="42.64375" lon="23.20464">
        <ele>802.902406</ele>
        <time>2022-04-04T09:04:59.879Z</time>
      </trkpt>
      <trkpt lat="42.64365" lon="23.20463">
        <ele>803.645573</ele>
        <time>2022-04-04T09:05:04.870Z</time>
      </trkpt>
      <trkpt lat="42.64357" lon="23.20456">
        <ele>804.354648</ele>
        <time>2022-04-04T09:05:10.894Z</time>
      </trkpt>
      <trkpt lat="42.64347" lon="23.2045">
        <ele>805.145017</ele>
        <time>2022-04-04T09:05:17.888Z</time>
      </trkpt>
      <trkpt lat="42.6434" lon="23.20443">
        <ele>805.822442</ele>
        <time>2022-04-04T09:05:23.870Z</time>
      </trkpt>
      <trkpt lat="42.64332" lon="23.20436">
        <ele>806.493698</ele>
        <time>2022-04-04T09:05:28.885Z</time>
      </trkpt>
      <trkpt lat="42.64323" lon="23.20429">
        <ele>807.264732</ele>
        <time>2022-04-04T09:05:34.856Z</time>
      </trkpt>
      <trkpt lat="42.64313" lon="23.20424">
        <ele>808.015953</ele>
        <time>2022-04-04T09:05:39.856Z</time>
      </trkpt>
      <trkpt lat="42.64305" lon="23.2042">
        <ele>808.686665</ele>
        <time>2022-04-04T09:05:44.919Z</time>
      </trkpt>
      <trkpt lat="42.64297" lon="23.20414">
        <ele>809.361769</ele>
        <time>2022-04-04T09:05:49.881Z</time>
      </trkpt>
      <trkpt lat="42.64289" lon="23.20408">
        <ele>810.032927</ele>
        <time>2022-04-04T09:05:55.920Z</time>
      </trkpt>
      <trkpt lat="42.6428" lon="23.20402">
        <ele>810.769743</ele>
        <time>2022-04-04T09:06:02.874Z</time>
      </trkpt>
      <trkpt lat="42.64272" lon="23.20395">
        <ele>811.474269</ele>
        <time>2022-04-04T09:06:12.872Z</time>
      </trkpt>
      <trkpt lat="42.64263" lon="23.20388">
        <ele>812.197257</ele>
        <time>2022-04-04T09:06:17.936Z</time>
      </trkpt>
      <trkpt lat="42.64256" lon="23.20381">
        <ele>812.871485</ele>
        <time>2022-04-04T09:06:23.877Z</time>
      </trkpt>
      <trkpt lat="42.64248" lon="23.20374">
        <ele>813.551563</ele>
        <time>2022-04-04T09:06:30.882Z</time>
      </trkpt>
      <trkpt lat="42.6424" lon="23.20364">
        <ele>814.479196</ele>
        <time>2022-04-04T09:06:37.877Z</time>
      </trkpt>
      <trkpt lat="42.64231" lon="23.20357">
        <ele>815.358874</ele>
        <time>2022-04-04T09:06:42.880Z</time>
      </trkpt>
      <trkpt lat="42.64224" lon="23.20349">
        <ele>816.174639</ele>
        <time>2022-04-04T09:06:47.886Z</time>
      </trkpt>
      <trkpt lat="42.64215" lon="23.20343">
        <ele>817.014977</ele>
        <time>2022-04-04T09:06:52.885Z</time>
      </trkpt>
      <trkpt lat="42.64207" lon="23.20337">
        <ele>817.872153</ele>
        <time>2022-04-04T09:06:58.880Z</time>
      </trkpt>
      <trkpt lat="42.64199" lon="23.20329">
        <ele>818.725443</ele>
        <time>2022-04-04T09:07:05.887Z</time>
      </trkpt>
      <trkpt lat="42.64189" lon="23.20323">
        <ele>819.627965</ele>
        <time>2022-04-04T09:07:11.880Z</time>
      </trkpt>
      <trkpt lat="42.64184" lon="23.20314">
        <ele>820.431897</ele>
        <time>2022-04-04T09:07:19.876Z</time>
      </trkpt>
      <trkpt lat="42.64177" lon="23.20304">
        <ele>821.281682</ele>
        <time>2022-04-04T09:07:28.891Z</time>
      </trkpt>
      <trkpt lat="42.64169" lon="23.20296">
        <ele>822.129987</ele>
        <time>2022-04-04T09:07:33.873Z</time>
      </trkpt>
      <trkpt lat="42.64163" lon="23.20286">
        <ele>822.977879</ele>
        <time>2022-04-04T09:07:38.882Z</time>
      </trkpt>
      <trkpt lat="42.64155" lon="23.20277">
        <ele>823.894006</ele>
        <time>2022-04-04T09:07:43.882Z</time>
      </trkpt>
      <trkpt lat="42.64147" lon="23.20269">
        <ele>824.721148</ele>
        <time>2022-04-04T09:07:49.889Z</time>
      </trkpt>
      <trkpt lat="42.64139" lon="23.20263">
        <ele>825.57699</ele>
        <time>2022-04-04T09:07:55.884Z</time>
      </trkpt>
      <trkpt lat="42.64132" lon="23.20254">
        <ele>826.41269</ele>
        <time>2022-04-04T09:08:00.906Z</time>
      </trkpt>
      <trkpt lat="42.64124" lon="23.20245">
        <ele>827.307163</ele>
        <time>2022-04-04T09:08:06.877Z</time>
      </trkpt>
      <trkpt lat="42.6412" lon="23.20234">
        <ele>828.113983</ele>
        <time>2022-04-04T09:08:14.908Z</time>
      </trkpt>
      <trkpt lat="42.64113" lon="23.20225">
        <ele>828.956349</ele>
        <time>2022-04-04T09:08:20.899Z</time>
      </trkpt>
      <trkpt lat="42.64106" lon="23.20213">
        <ele>829.393379</ele>
        <time>2022-04-04T09:08:26.898Z</time>
      </trkpt>
      <trkpt lat="42.64102" lon="23.20201">
        <ele>829.062844</ele>
        <time>2022-04-04T09:08:35.882Z</time>
      </trkpt>
      <trkpt lat="42.64094" lon="23.20194">
        <ele>828.722197</ele>
        <time>2022-04-04T09:08:40.876Z</time>
      </trkpt>
      <trkpt lat="42.64085" lon="23.20186">
        <ele>828.364241</ele>
        <time>2022-04-04T09:08:46.872Z</time>
      </trkpt>
      <trkpt lat="42.64077" lon="23.20177">
        <ele>827.998871</ele>
        <time>2022-04-04T09:08:53.867Z</time>
      </trkpt>
      <trkpt lat="42.6407" lon="23.20166">
        <ele>827.642325</ele>
        <time>2022-04-04T09:08:59.914Z</time>
      </trkpt>
      <trkpt lat="42.64061" lon="23.20157">
        <ele>827.267213</ele>
        <time>2022-04-04T09:09:05.882Z</time>
      </trkpt>
      <trkpt lat="42.64051" lon="23.2015">
        <ele>826.883491</ele>
        <time>2022-04-04T09:09:10.900Z</time>
      </trkpt>
      <trkpt lat="42.64042" lon="23.20144">
        <ele>826.524256</ele>
        <time>2022-04-04T09:09:14.890Z</time>
      </trkpt>
      <trkpt lat="42.64036" lon="23.20134">
        <ele>826.205278</ele>
        <time>2022-04-04T09:09:22.895Z</time>
      </trkpt>
      <trkpt lat="42.64031" lon="23.20123">
        <ele>825.887904</ele>
        <time>2022-04-04T09:09:27.885Z</time>
      </trkpt>
      <trkpt lat="42.64021" lon="23.20113">
        <ele>825.474735</ele>
        <time>2022-04-04T09:09:38.868Z</time>
      </trkpt>
      <trkpt lat="42.64013" lon="23.20107">
        <ele>825.168883</ele>
        <time>2022-04-04T09:09:41.882Z</time>
      </trkpt>
      <trkpt lat="42.64005" lon="23.201">
        <ele>824.837138</ele>
        <time>2022-04-04T09:09:44.952Z</time>
      </trkpt>
      <trkpt lat="42.63998" lon="23.20091">
        <ele>824.522233</ele>
        <time>2022-04-04T09:09:49.876Z</time>
      </trkpt>
      <trkpt lat="42.6399" lon="23.20084">
        <ele>824.18834</ele>
        <time>2022-04-04T09:09:56.887Z</time>
      </trkpt>
      <trkpt lat="42.63983" lon="23.20075">
        <ele>823.87194</ele>
        <time>2022-04-04T09:10:03.869Z</time>
      </trkpt>
      <trkpt lat="42.63977" lon="23.20066">
        <ele>823.552849</ele>
        <time>2022-04-04T09:10:08.900Z</time>
      </trkpt>
      <trkpt lat="42.63968" lon="23.20058">
        <ele>823.665596</ele>
        <time>2022-04-04T09:10:12.878Z</time>
      </trkpt>
      <trkpt lat="42.63961" lon="23.20049">
        <ele>824.058741</ele>
        <time>2022-04-04T09:10:18.898Z</time>
      </trkpt>
      <trkpt lat="42.63953" lon="23.20042">
        <ele>824.455305</ele>
        <time>2022-04-04T09:10:22.867Z</time>
      </trkpt>
      <trkpt lat="42.63947" lon="23.20031">
        <ele>824.843764</ele>
        <time>2022-04-04T09:10:28.889Z</time>
      </trkpt>
      <trkpt lat="42.63948" lon="23.20018">
        <ele>825.210022</ele>
        <time>2022-04-04T09:10:34.903Z</time>
      </trkpt>
      <trkpt lat="42.63947" lon="23.20005">
        <ele>825.585473</ele>
        <time>2022-04-04T09:10:42.918Z</time>
      </trkpt>
      <trkpt lat="42.63942" lon="23.19994">
        <ele>825.96122</ele>
        <time>2022-04-04T09:10:48.883Z</time>
      </trkpt>
      <trkpt lat="42.6394" lon="23.19982">
        <ele>826.315528</ele>
        <time>2022-04-04T09:10:54.882Z</time>
      </trkpt>
      <trkpt lat="42.63935" lon="23.19971">
        <ele>826.711533</ele>
        <time>2022-04-04T09:10:59.891Z</time>
      </trkpt>
      <trkpt lat="42.63929" lon="23.19961">
        <ele>827.078729</ele>
        <time>2022-04-04T09:11:04.894Z</time>
      </trkpt>
      <trkpt lat="42.63928" lon="23.19946">
        <ele>827.500511</ele>
        <time>2022-04-04T09:11:11.863Z</time>
      </trkpt>
      <trkpt lat="42.63925" lon="23.19934">
        <ele>827.871058</ele>
        <time>2022-04-04T09:11:17.906Z</time>
      </trkpt>
      <trkpt lat="42.6392" lon="23.19922">
        <ele>828.281504</ele>
        <time>2022-04-04T09:11:24.918Z</time>
      </trkpt>
      <trkpt lat="42.63914" lon="23.19912">
        <ele>828.654125</ele>
        <time>2022-04-04T09:11:29.895Z</time>
      </trkpt>
      <trkpt lat="42.63912" lon="23.19899">
        <ele>829.033846</ele>
        <time>2022-04-04T09:11:37.882Z</time>
      </trkpt>
      <trkpt lat="42.63903" lon="23.1989">
        <ele>829.488841</ele>
        <time>2022-04-04T09:11:42.917Z</time>
      </trkpt>
      <trkpt lat="42.63901" lon="23.19877">
        <ele>829.854404</ele>
        <time>2022-04-04T09:11:48.917Z</time>
      </trkpt>
      <trkpt lat="42.63903" lon="23.19866">
        <ele>830.211946</ele>
        <time>2022-04-04T09:11:53.887Z</time>
      </trkpt>
      <trkpt lat="42.63898" lon="23.19854">
        <ele>830.723964</ele>
        <time>2022-04-04T09:11:58.886Z</time>
      </trkpt>
      <trkpt lat="42.63889" lon="23.19843">
        <ele>831.852098</ele>
        <time>2022-04-04T09:12:02.891Z</time>
      </trkpt>
      <trkpt lat="42.6388" lon="23.19833">
        <ele>832.862433</ele>
        <time>2022-04-04T09:12:06.886Z</time>
      </trkpt>
      <trkpt lat="42.63874" lon="23.19823">
        <ele>833.753495</ele>
        <time>2022-04-04T09:12:10.920Z</time>
      </trkpt>
      <trkpt lat="42.63868" lon="23.19812">
        <ele>834.603941</ele>
        <time>2022-04-04T09:12:15.897Z</time>
      </trkpt>
      <trkpt lat="42.63863" lon="23.198">
        <ele>835.559812</ele>
        <time>2022-04-04T09:12:22.899Z</time>
      </trkpt>
      <trkpt lat="42.63857" lon="23.19789">
        <ele>836.476124</ele>
        <time>2022-04-04T09:12:27.926Z</time>
      </trkpt>
      <trkpt lat="42.63849" lon="23.1978">
        <ele>837.437443</ele>
        <time>2022-04-04T09:12:31.891Z</time>
      </trkpt>
      <trkpt lat="42.63842" lon="23.1977">
        <ele>838.314506</ele>
        <time>2022-04-04T09:12:37.890Z</time>
      </trkpt>
      <trkpt lat="42.63834" lon="23.19761">
        <ele>839.261645</ele>
        <time>2022-04-04T09:12:41.878Z</time>
      </trkpt>
      <trkpt lat="42.63825" lon="23.19754">
        <ele>840.21034</ele>
        <time>2022-04-04T09:12:45.882Z</time>
      </trkpt>
      <trkpt lat="42.63817" lon="23.19744">
        <ele>841.158004</ele>
        <time>2022-04-04T09:12:51.884Z</time>
      </trkpt>
      <trkpt lat="42.63809" lon="23.19735">
        <ele>842.063453</ele>
        <time>2022-04-04T09:12:57.891Z</time>
      </trkpt>
      <trkpt lat="42.63801" lon="23.19728">
        <ele>842.985443</ele>
        <time>2022-04-04T09:13:01.896Z</time>
      </trkpt>
      <trkpt lat="42.63792" lon="23.19721">
        <ele>843.870416</ele>
        <time>2022-04-04T09:13:06.918Z</time>
      </trkpt>
      <trkpt lat="42.63783" lon="23.19714">
        <ele>844.806356</ele>
        <time>2022-04-04T09:13:10.863Z</time>
      </trkpt>
      <trkpt lat="42.63775" lon="23.1971">
        <ele>845.643002</ele>
        <time>2022-04-04T09:13:14.881Z</time>
      </trkpt>
      <trkpt lat="42.63766" lon="23.19703">
        <ele>846.56669</ele>
        <time>2022-04-04T09:13:21.877Z</time>
      </trkpt>
      <trkpt lat="42.63758" lon="23.19695">
        <ele>846.802832</ele>
        <time>2022-04-04T09:13:28.915Z</time>
      </trkpt>
      <trkpt lat="42.63749" lon="23.19688">
        <ele>846.874154</ele>
        <time>2022-04-04T09:13:34.886Z</time>
      </trkpt>
      <trkpt lat="42.63739" lon="23.19681">
        <ele>846.956573</ele>
        <time>2022-04-04T09:13:39.915Z</time>
      </trkpt>
      <trkpt lat="42.6373" lon="23.19677">
        <ele>847.023163</ele>
        <time>2022-04-04T09:13:42.871Z</time>
      </trkpt>
      <trkpt lat="42.63722" lon="23.19671">
        <ele>847.087381</ele>
        <time>2022-04-04T09:13:46.876Z</time>
      </trkpt>
      <trkpt lat="42.63712" lon="23.19665">
        <ele>847.166793</ele>
        <time>2022-04-04T09:13:50.897Z</time>
      </trkpt>
      <trkpt lat="42.63703" lon="23.19659">
        <ele>847.232921</ele>
        <time>2022-04-04T09:13:55.876Z</time>
      </trkpt>
      <trkpt lat="42.63694" lon="23.19654">
        <ele>847.300522</ele>
        <time>2022-04-04T09:14:00.889Z</time>
      </trkpt>
      <trkpt lat="42.63684" lon="23.19649">
        <ele>847.375833</ele>
        <time>2022-04-04T09:14:04.869Z</time>
      </trkpt>
      <trkpt lat="42.63676" lon="23.19644">
        <ele>847.442153</ele>
        <time>2022-04-04T09:14:08.891Z</time>
      </trkpt>
      <trkpt lat="42.63667" lon="23.19637">
        <ele>847.510216</ele>
        <time>2022-04-04T09:14:12.908Z</time>
      </trkpt>
      <trkpt lat="42.63658" lon="23.1963">
        <ele>847.584378</ele>
        <time>2022-04-04T09:14:17.902Z</time>
      </trkpt>
      <trkpt lat="42.6365" lon="23.19623">
        <ele>847.655926</ele>
        <time>2022-04-04T09:14:22.950Z</time>
      </trkpt>
      <trkpt lat="42.63641" lon="23.19618">
        <ele>847.721166</ele>
        <time>2022-04-04T09:14:26.901Z</time>
      </trkpt>
      <trkpt lat="42.63632" lon="23.19615">
        <ele>847.787475</ele>
        <time>2022-04-04T09:14:30.884Z</time>
      </trkpt>
      <trkpt lat="42.63622" lon="23.19613">
        <ele>847.861016</ele>
        <time>2022-04-04T09:14:34.881Z</time>
      </trkpt>
      <trkpt lat="42.6361" lon="23.19608">
        <ele>847.947704</ele>
        <time>2022-04-04T09:14:38.862Z</time>
      </trkpt>
      <trkpt lat="42.636" lon="23.19601">
        <ele>847.964121</ele>
        <time>2022-04-04T09:14:42.892Z</time>
      </trkpt>
      <trkpt lat="42.6359" lon="23.19594">
        <ele>847.58398</ele>
        <time>2022-04-04T09:14:46.879Z</time>
      </trkpt>
      <trkpt lat="42.6358" lon="23.1959">
        <ele>847.201579</ele>
        <time>2022-04-04T09:14:50.868Z</time>
      </trkpt>
      <trkpt lat="42.63569" lon="23.19587">
        <ele>846.838519</ele>
        <time>2022-04-04T09:14:54.899Z</time>
      </trkpt>
      <trkpt lat="42.63557" lon="23.19586">
        <ele>846.418477</ele>
        <time>2022-04-04T09:14:58.880Z</time>
      </trkpt>
      <trkpt lat="42.63547" lon="23.19584">
        <ele>846.055319</ele>
        <time>2022-04-04T09:15:01.887Z</time>
      </trkpt>
      <trkpt lat="42.63536" lon="23.19582">
        <ele>845.682701</ele>
        <time>2022-04-04T09:15:04.866Z</time>
      </trkpt>
      <trkpt lat="42.63526" lon="23.1958">
        <ele>845.318623</ele>
        <time>2022-04-04T09:15:07.882Z</time>
      </trkpt>
      <trkpt lat="42.63516" lon="23.19577">
        <ele>844.940911</ele>
        <time>2022-04-04T09:15:10.879Z</time>
      </trkpt>
      <trkpt lat="42.63505" lon="23.19575">
        <ele>844.561594</ele>
        <time>2022-04-04T09:15:13.876Z</time>
      </trkpt>
      <trkpt lat="42.63495" lon="23.19572">
        <ele>844.213456</ele>
        <time>2022-04-04T09:15:16.879Z</time>
      </trkpt>
      <trkpt lat="42.63484" lon="23.19568">
        <ele>843.822371</ele>
        <time>2022-04-04T09:15:19.869Z</time>
      </trkpt>
      <trkpt lat="42.63475" lon="23.19563">
        <ele>843.471032</ele>
        <time>2022-04-04T09:15:23.863Z</time>
      </trkpt>
      <trkpt lat="42.63466" lon="23.19557">
        <ele>843.118847</ele>
        <time>2022-04-04T09:15:27.886Z</time>
      </trkpt>
      <trkpt lat="42.63455" lon="23.1955">
        <ele>842.700816</ele>
        <time>2022-04-04T09:15:31.901Z</time>
      </trkpt>
      <trkpt lat="42.63447" lon="23.19543">
        <ele>842.378595</ele>
        <time>2022-04-04T09:15:34.867Z</time>
      </trkpt>
      <trkpt lat="42.63439" lon="23.19534">
        <ele>842.010368</ele>
        <time>2022-04-04T09:15:37.887Z</time>
      </trkpt>
      <trkpt lat="42.63431" lon="23.19524">
        <ele>841.858064</ele>
        <time>2022-04-04T09:15:41.886Z</time>
      </trkpt>
      <trkpt lat="42.63423" lon="23.19517">
        <ele>842.236964</ele>
        <time>2022-04-04T09:15:45.871Z</time>
      </trkpt>
      <trkpt lat="42.63414" lon="23.1951">
        <ele>842.633639</ele>
        <time>2022-04-04T09:15:48.889Z</time>
      </trkpt>
      <trkpt lat="42.63405" lon="23.19504">
        <ele>843.051128</ele>
        <time>2022-04-04T09:15:52.919Z</time>
      </trkpt>
      <trkpt lat="42.63395" lon="23.19496">
        <ele>843.509029</ele>
        <time>2022-04-04T09:15:57.883Z</time>
      </trkpt>
      <trkpt lat="42.63386" lon="23.19491">
        <ele>843.889607</ele>
        <time>2022-04-04T09:16:00.898Z</time>
      </trkpt>
      <trkpt lat="42.63378" lon="23.19485">
        <ele>844.251017</ele>
        <time>2022-04-04T09:16:03.878Z</time>
      </trkpt>
      <trkpt lat="42.63369" lon="23.19478">
        <ele>844.683351</ele>
        <time>2022-04-04T09:16:07.878Z</time>
      </trkpt>
      <trkpt lat="42.63359" lon="23.19469">
        <ele>845.146034</ele>
        <time>2022-04-04T09:16:11.894Z</time>
      </trkpt>
      <trkpt lat="42.6335" lon="23.19461">
        <ele>845.585727</ele>
        <time>2022-04-04T09:16:15.886Z</time>
      </trkpt>
      <trkpt lat="42.63341" lon="23.19455">
        <ele>845.953733</ele>
        <time>2022-04-04T09:16:19.886Z</time>
      </trkpt>
      <trkpt lat="42.63333" lon="23.19449">
        <ele>846.334528</ele>
        <time>2022-04-04T09:16:24.870Z</time>
      </trkpt>
      <trkpt lat="42.63324" lon="23.19442">
        <ele>846.763072</ele>
        <time>2022-04-04T09:16:30.887Z</time>
      </trkpt>
      <trkpt lat="42.63315" lon="23.19435">
        <ele>847.136167</ele>
        <time>2022-04-04T09:16:34.880Z</time>
      </trkpt>
      <trkpt lat="42.63308" lon="23.19427">
        <ele>847.513898</ele>
        <time>2022-04-04T09:16:39.889Z</time>
      </trkpt>
      <trkpt lat="42.633" lon="23.19422">
        <ele>847.874046</ele>
        <time>2022-04-04T09:16:44.891Z</time>
      </trkpt>
      <trkpt lat="42.63291" lon="23.19417">
        <ele>848.248705</ele>
        <time>2022-04-04T09:16:48.897Z</time>
      </trkpt>
      <trkpt lat="42.63282" lon="23.19413">
        <ele>848.623824</ele>
        <time>2022-04-04T09:16:53.930Z</time>
      </trkpt>
      <trkpt lat="42.63273" lon="23.19407">
        <ele>848.957293</ele>
        <time>2022-04-04T09:16:59.885Z</time>
      </trkpt>
      <trkpt lat="42.63264" lon="23.194">
        <ele>849.195088</ele>
        <time>2022-04-04T09:17:04.922Z</time>
      </trkpt>
      <trkpt lat="42.63254" lon="23.19396">
        <ele>849.423336</ele>
        <time>2022-04-04T09:17:09.904Z</time>
      </trkpt>
      <trkpt lat="42.63244" lon="23.19391">
        <ele>849.665071</ele>
        <time>2022-04-04T09:17:14.891Z</time>
      </trkpt>
      <trkpt lat="42.63235" lon="23.19387">
        <ele>849.888001</ele>
        <time>2022-04-04T09:17:19.889Z</time>
      </trkpt>
      <trkpt lat="42.63224" lon="23.19384">
        <ele>850.127035</ele>
        <time>2022-04-04T09:17:26.880Z</time>
      </trkpt>
      <trkpt lat="42.63215" lon="23.19382">
        <ele>850.351129</ele>
        <time>2022-04-04T09:17:32.881Z</time>
      </trkpt>
      <trkpt lat="42.63205" lon="23.19376">
        <ele>850.588901</ele>
        <time>2022-04-04T09:17:37.875Z</time>
      </trkpt>
      <trkpt lat="42.63196" lon="23.19372">
        <ele>850.81018</ele>
        <time>2022-04-04T09:17:42.887Z</time>
      </trkpt>
      <trkpt lat="42.63186" lon="23.19369">
        <ele>851.026133</ele>
        <time>2022-04-04T09:17:47.871Z</time>
      </trkpt>
      <trkpt lat="42.63176" lon="23.19368">
        <ele>851.257137</ele>
        <time>2022-04-04T09:17:54.870Z</time>
      </trkpt>
      <trkpt lat="42.63167" lon="23.19369">
        <ele>851.465465</ele>
        <time>2022-04-04T09:17:59.876Z</time>
      </trkpt>
      <trkpt lat="42.63157" lon="23.19371">
        <ele>851.701191</ele>
        <time>2022-04-04T09:18:04.897Z</time>
      </trkpt>
      <trkpt lat="42.63147" lon="23.19375">
        <ele>851.928446</ele>
        <time>2022-04-04T09:18:09.883Z</time>
      </trkpt>
      <trkpt lat="42.63138" lon="23.19377">
        <ele>852.143533</ele>
        <time>2022-04-04T09:18:14.881Z</time>
      </trkpt>
      <trkpt lat="42.63127" lon="23.1938">
        <ele>852.39521</ele>
        <time>2022-04-04T09:18:20.890Z</time>
      </trkpt>
      <trkpt lat="42.63117" lon="23.19383">
        <ele>852.62596</ele>
        <time>2022-04-04T09:18:24.891Z</time>
      </trkpt>
      <trkpt lat="42.63108" lon="23.19387">
        <ele>852.838647</ele>
        <time>2022-04-04T09:18:29.880Z</time>
      </trkpt>
      <trkpt lat="42.63099" lon="23.19391">
        <ele>853.321938</ele>
        <time>2022-04-04T09:18:35.882Z</time>
      </trkpt>
      <trkpt lat="42.6309" lon="23.19394">
        <ele>853.985454</ele>
        <time>2022-04-04T09:18:41.885Z</time>
      </trkpt>
      <trkpt lat="42.6308" lon="23.19396">
        <ele>854.701939</ele>
        <time>2022-04-04T09:18:46.879Z</time>
      </trkpt>
      <trkpt lat="42.6307" lon="23.19399">
        <ele>855.4595</ele>
        <time>2022-04-04T09:18:50.930Z</time>
      </trkpt>
      <trkpt lat="42.6306" lon="23.19405">
        <ele>856.213806</ele>
        <time>2022-04-04T09:18:57.888Z</time>
      </trkpt>
      <trkpt lat="42.63049" lon="23.19408">
        <ele>857.020282</ele>
        <time>2022-04-04T09:19:03.888Z</time>
      </trkpt>
      <trkpt lat="42.63039" lon="23.19411">
        <ele>857.811507</ele>
        <time>2022-04-04T09:19:08.882Z</time>
      </trkpt>
      <trkpt lat="42.6303" lon="23.19415">
        <ele>858.495342</ele>
        <time>2022-04-04T09:19:13.916Z</time>
      </trkpt>
      <trkpt lat="42.63021" lon="23.19421">
        <ele>859.181713</ele>
        <time>2022-04-04T09:19:18.900Z</time>
      </trkpt>
      <trkpt lat="42.63012" lon="23.19427">
        <ele>859.897587</ele>
        <time>2022-04-04T09:19:24.897Z</time>
      </trkpt>
      <trkpt lat="42.63006" lon="23.19437">
        <ele>860.570937</ele>
        <time>2022-04-04T09:19:29.871Z</time>
      </trkpt>
      <trkpt lat="42.62998" lon="23.19446">
        <ele>861.346696</ele>
        <time>2022-04-04T09:19:34.922Z</time>
      </trkpt>
      <trkpt lat="42.62992" lon="23.19456">
        <ele>862.001613</ele>
        <time>2022-04-04T09:19:39.892Z</time>
      </trkpt>
      <trkpt lat="42.62986" lon="23.19465">
        <ele>862.68818</ele>
        <time>2022-04-04T09:19:43.890Z</time>
      </trkpt>
      <trkpt lat="42.62984" lon="23.19478">
        <ele>863.365266</ele>
        <time>2022-04-04T09:19:47.883Z</time>
      </trkpt>
      <trkpt lat="42.62981" lon="23.1949">
        <ele>864.041286</ele>
        <time>2022-04-04T09:19:52.891Z</time>
      </trkpt>
      <trkpt lat="42.62977" lon="23.19502">
        <ele>864.76848</ele>
        <time>2022-04-04T09:19:58.883Z</time>
      </trkpt>
      <trkpt lat="42.62978" lon="23.19515">
        <ele>865.476112</ele>
        <time>2022-04-04T09:20:02.918Z</time>
      </trkpt>
      <trkpt lat="42.62978" lon="23.19528">
        <ele>865.968272</ele>
        <time>2022-04-04T09:20:06.883Z</time>
      </trkpt>
      <trkpt lat="42.62976" lon="23.1954">
        <ele>866.103426</ele>
        <time>2022-04-04T09:20:12.900Z</time>
      </trkpt>
      <trkpt lat="42.62974" lon="23.19553">
        <ele>866.238247</ele>
        <time>2022-04-04T09:20:17.869Z</time>
      </trkpt>
      <trkpt lat="42.62973" lon="23.19566">
        <ele>866.382558</ele>
        <time>2022-04-04T09:20:22.876Z</time>
      </trkpt>
      <trkpt lat="42.62965" lon="23.19577">
        <ele>866.537255</ele>
        <time>2022-04-04T09:20:27.895Z</time>
      </trkpt>
      <trkpt lat="42.62959" lon="23.19587">
        <ele>866.67305</ele>
        <time>2022-04-04T09:20:32.869Z</time>
      </trkpt>
      <trkpt lat="42.62951" lon="23.19594">
        <ele>866.806803</ele>
        <time>2022-04-04T09:20:36.879Z</time>
      </trkpt>
      <trkpt lat="42.6294" lon="23.19599">
        <ele>866.972133</ele>
        <time>2022-04-04T09:20:39.883Z</time>
      </trkpt>
      <trkpt lat="42.62928" lon="23.19599">
        <ele>867.143213</ele>
        <time>2022-04-04T09:20:42.882Z</time>
      </trkpt>
      <trkpt lat="42.62918" lon="23.19599">
        <ele>867.284274</ele>
        <time>2022-04-04T09:20:44.875Z</time>
      </trkpt>
      <trkpt lat="42.62909" lon="23.19597">
        <ele>867.419242</ele>
        <time>2022-04-04T09:20:46.905Z</time>
      </trkpt>
      <trkpt lat="42.62899" lon="23.19596">
        <ele>867.553966</ele>
        <time>2022-04-04T09:20:48.893Z</time>
      </trkpt>
      <trkpt lat="42.62886" lon="23.19592">
        <ele>867.752899</ele>
        <time>2022-04-04T09:20:51.880Z</time>
      </trkpt>
      <trkpt lat="42.62877" lon="23.19587">
        <ele>867.894455</ele>
        <time>2022-04-04T09:20:53.877Z</time>
      </trkpt>
      <trkpt lat="42.62867" lon="23.19579">
        <ele>868.055682</ele>
        <time>2022-04-04T09:20:55.894Z</time>
      </trkpt>
      <trkpt lat="42.62857" lon="23.19571">
        <ele>868.221876</ele>
        <time>2022-04-04T09:20:57.882Z</time>
      </trkpt>
      <trkpt lat="42.62848" lon="23.19558">
        <ele>868.406711</ele>
        <time>2022-04-04T09:21:00.881Z</time>
      </trkpt>
      <trkpt lat="42.62843" lon="23.19546">
        <ele>868.469359</ele>
        <time>2022-04-04T09:21:03.909Z</time>
      </trkpt>
      <trkpt lat="42.62839" lon="23.1953">
        <ele>868.397286</ele>
        <time>2022-04-04T09:21:07.874Z</time>
      </trkpt>
      <trkpt lat="42.62834" lon="23.19519">
        <ele>868.342885</ele>
        <time>2022-04-04T09:21:09.872Z</time>
      </trkpt>
      <trkpt lat="42.62827" lon="23.19508">
        <ele>868.281614</ele>
        <time>2022-04-04T09:21:11.883Z</time>
      </trkpt>
      <trkpt lat="42.6282" lon="23.19497">
        <ele>868.220742</ele>
        <time>2022-04-04T09:21:13.895Z</time>
      </trkpt>
      <trkpt lat="42.62812" lon="23.19484">
        <ele>868.148945</ele>
        <time>2022-04-04T09:21:16.881Z</time>
      </trkpt>
      <trkpt lat="42.62805" lon="23.19474">
        <ele>868.092103</ele>
        <time>2022-04-04T09:21:19.879Z</time>
      </trkpt>
      <trkpt lat="42.62798" lon="23.19462">
        <ele>868.027639</ele>
        <time>2022-04-04T09:21:22.880Z</time>
      </trkpt>
      <trkpt lat="42.62792" lon="23.19449">
        <ele>867.96109</ele>
        <time>2022-04-04T09:21:25.909Z</time>
      </trkpt>
      <trkpt lat="42.62783" lon="23.19434">
        <ele>867.880497</ele>
        <time>2022-04-04T09:21:28.884Z</time>
      </trkpt>
      <trkpt lat="42.62775" lon="23.19423">
        <ele>867.814328</ele>
        <time>2022-04-04T09:21:30.883Z</time>
      </trkpt>
      <trkpt lat="42.62768" lon="23.19409">
        <ele>867.743579</ele>
        <time>2022-04-04T09:21:32.885Z</time>
      </trkpt>
      <trkpt lat="42.62761" lon="23.19398">
        <ele>867.680997</ele>
        <time>2022-04-04T09:21:34.887Z</time>
      </trkpt>
      <trkpt lat="42.62755" lon="23.19388">
        <ele>867.626223</ele>
        <time>2022-04-04T09:21:36.888Z</time>
      </trkpt>
      <trkpt lat="42.62749" lon="23.19376">
        <ele>867.56708</ele>
        <time>2022-04-04T09:21:39.882Z</time>
      </trkpt>
      <trkpt lat="42.62741" lon="23.19363">
        <ele>867.496721</ele>
        <time>2022-04-04T09:21:43.892Z</time>
      </trkpt>
      <trkpt lat="42.62733" lon="23.19351">
        <ele>867.291903</ele>
        <time>2022-04-04T09:21:46.893Z</time>
      </trkpt>
      <trkpt lat="42.62724" lon="23.1934">
        <ele>866.943239</ele>
        <time>2022-04-04T09:21:49.882Z</time>
      </trkpt>
      <trkpt lat="42.62715" lon="23.19332">
        <ele>866.605346</ele>
        <time>2022-04-04T09:21:52.894Z</time>
      </trkpt>
      <trkpt lat="42.62705" lon="23.19322">
        <ele>866.262494</ele>
        <time>2022-04-04T09:21:55.882Z</time>
      </trkpt>
      <trkpt lat="42.62695" lon="23.19314">
        <ele>865.927722</ele>
        <time>2022-04-04T09:21:58.886Z</time>
      </trkpt>
      <trkpt lat="42.62683" lon="23.19307">
        <ele>865.534716</ele>
        <time>2022-04-04T09:22:01.899Z</time>
      </trkpt>
      <trkpt lat="42.62671" lon="23.193">
        <ele>865.158538</ele>
        <time>2022-04-04T09:22:04.876Z</time>
      </trkpt>
      <trkpt lat="42.6266" lon="23.19294">
        <ele>864.804816</ele>
        <time>2022-04-04T09:22:07.897Z</time>
      </trkpt>
      <trkpt lat="42.62651" lon="23.19291">
        <ele>864.532507</ele>
        <time>2022-04-04T09:22:09.881Z</time>
      </trkpt>
      <trkpt lat="42.62641" lon="23.19288">
        <ele>864.239687</ele>
        <time>2022-04-04T09:22:11.866Z</time>
      </trkpt>
      <trkpt lat="42.62631" lon="23.19285">
        <ele>863.920993</ele>
        <time>2022-04-04T09:22:14.872Z</time>
      </trkpt>
      <trkpt lat="42.62621" lon="23.19286">
        <ele>863.631072</ele>
        <time>2022-04-04T09:22:17.890Z</time>
      </trkpt>
      <trkpt lat="42.62609" lon="23.19284">
        <ele>863.274124</ele>
        <time>2022-04-04T09:22:20.879Z</time>
      </trkpt>
      <trkpt lat="42.626" lon="23.19283">
        <ele>863.010533</ele>
        <time>2022-04-04T09:22:23.902Z</time>
      </trkpt>
      <trkpt lat="42.6259" lon="23.19283">
        <ele>862.726477</ele>
        <time>2022-04-04T09:22:27.910Z</time>
      </trkpt>
      <trkpt lat="42.62579" lon="23.19285">
        <ele>862.407571</ele>
        <time>2022-04-04T09:22:32.870Z</time>
      </trkpt>
      <trkpt lat="42.62567" lon="23.19287">
        <ele>862.239524</ele>
        <time>2022-04-04T09:22:36.882Z</time>
      </trkpt>
      <trkpt lat="42.62558" lon="23.19287">
        <ele>862.335169</ele>
        <time>2022-04-04T09:22:39.888Z</time>
      </trkpt>
      <trkpt lat="42.62549" lon="23.19288">
        <ele>862.436362</ele>
        <time>2022-04-04T09:22:43.893Z</time>
      </trkpt>
      <trkpt lat="42.62539" lon="23.19287">
        <ele>862.540516</ele>
        <time>2022-04-04T09:22:48.901Z</time>
      </trkpt>
      <trkpt lat="42.6253" lon="23.19283">
        <ele>862.637813</ele>
        <time>2022-04-04T09:22:51.902Z</time>
      </trkpt>
      <trkpt lat="42.62521" lon="23.19276">
        <ele>862.742532</ele>
        <time>2022-04-04T09:22:55.880Z</time>
      </trkpt>
      <trkpt lat="42.62514" lon="23.19269">
        <ele>862.842509</ele>
        <time>2022-04-04T09:22:59.870Z</time>
      </trkpt>
      <trkpt lat="42.62505" lon="23.19261">
        <ele>862.949009</ele>
        <time>2022-04-04T09:23:03.891Z</time>
      </trkpt>
      <trkpt lat="42.62497" lon="23.19252">
        <ele>863.058159</ele>
        <time>2022-04-04T09:23:07.887Z</time>
      </trkpt>
      <trkpt lat="42.6249" lon="23.19243">
        <ele>863.163322</ele>
        <time>2022-04-04T09:23:12.931Z</time>
      </trkpt>
      <trkpt lat="42.62484" lon="23.19233">
        <ele>863.263959</ele>
        <time>2022-04-04T09:23:18.923Z</time>
      </trkpt>
      <trkpt lat="42.62476" lon="23.19224">
        <ele>863.371164</ele>
        <time>2022-04-04T09:23:24.878Z</time>
      </trkpt>
      <trkpt lat="42.62468" lon="23.19217">
        <ele>863.471585</ele>
        <time>2022-04-04T09:23:29.903Z</time>
      </trkpt>
      <trkpt lat="42.62459" lon="23.1921">
        <ele>863.58434</ele>
        <time>2022-04-04T09:23:35.870Z</time>
      </trkpt>
      <trkpt lat="42.6245" lon="23.19205">
        <ele>863.685399</ele>
        <time>2022-04-04T09:23:41.903Z</time>
      </trkpt>
      <trkpt lat="42.6244" lon="23.19203">
        <ele>863.791869</ele>
        <time>2022-04-04T09:23:46.874Z</time>
      </trkpt>
      <trkpt lat="42.6243" lon="23.19199">
        <ele>863.896959</ele>
        <time>2022-04-04T09:23:52.890Z</time>
      </trkpt>
      <trkpt lat="42.62419" lon="23.19196">
        <ele>864.011339</ele>
        <time>2022-04-04T09:23:58.887Z</time>
      </trkpt>
      <trkpt lat="42.6241" lon="23.19195">
        <ele>864.179262</ele>
        <time>2022-04-04T09:24:03.879Z</time>
      </trkpt>
      <trkpt lat="42.62399" lon="23.19195">
        <ele>864.648821</ele>
        <time>2022-04-04T09:24:09.879Z</time>
      </trkpt>
      <trkpt lat="42.62389" lon="23.19196">
        <ele>865.093157</ele>
        <time>2022-04-04T09:24:15.869Z</time>
      </trkpt>
      <trkpt lat="42.62378" lon="23.19197">
        <ele>865.548077</ele>
        <time>2022-04-04T09:24:21.864Z</time>
      </trkpt>
      <trkpt lat="42.62367" lon="23.19197">
        <ele>866.01772</ele>
        <time>2022-04-04T09:24:27.881Z</time>
      </trkpt>
      <trkpt lat="42.62357" lon="23.192">
        <ele>866.439156</ele>
        <time>2022-04-04T09:24:35.864Z</time>
      </trkpt>
      <trkpt lat="42.62348" lon="23.19196">
        <ele>866.875941</ele>
        <time>2022-04-04T09:24:41.869Z</time>
      </trkpt>
      <trkpt lat="42.6234" lon="23.19189">
        <ele>867.266222</ele>
        <time>2022-04-04T09:24:47.907Z</time>
      </trkpt>
      <trkpt lat="42.62332" lon="23.1918">
        <ele>867.707083</ele>
        <time>2022-04-04T09:24:52.890Z</time>
      </trkpt>
      <trkpt lat="42.62325" lon="23.19172">
        <ele>868.107383</ele>
        <time>2022-04-04T09:24:57.874Z</time>
      </trkpt>
      <trkpt lat="42.62321" lon="23.1916">
        <ele>868.508758</ele>
        <time>2022-04-04T09:25:03.887Z</time>
      </trkpt>
      <trkpt lat="42.62318" lon="23.19148">
        <ele>868.916762</ele>
        <time>2022-04-04T09:25:11.876Z</time>
      </trkpt>
      <trkpt lat="42.62314" lon="23.19136">
        <ele>869.342023</ele>
        <time>2022-04-04T09:25:18.881Z</time>
      </trkpt>
      <trkpt lat="42.62329" lon="23.19152">
        <ele>870.181656</ele>
        <time>2022-04-04T09:32:11.927Z</time>
      </trkpt>
      <trkpt lat="42.6236" lon="23.19188">
        <ele>871.928765</ele>
        <time>2022-04-04T09:36:09.883Z</time>
      </trkpt>
      <trkpt lat="42.6234" lon="23.19166">
        <ele>873.336141</ele>
        <time>2022-04-04T09:36:12.939Z</time>
      </trkpt>
      <trkpt lat="42.62311" lon="23.19146">
        <ele>875.158703</ele>
        <time>2022-04-04T09:44:30.871Z</time>
      </trkpt>
      <trkpt lat="42.62328" lon="23.19168">
        <ele>876.460516</ele>
        <time>2022-04-04T09:46:57.890Z</time>
      </trkpt>
      <trkpt lat="42.62322" lon="23.19158">
        <ele>876.995828</ele>
        <time>2022-04-04T09:47:07.898Z</time>
      </trkpt>
      <trkpt lat="42.62318" lon="23.19146">
        <ele>877.513943</ele>
        <time>2022-04-04T09:47:12.879Z</time>
      </trkpt>
      <trkpt lat="42.62313" lon="23.19134">
        <ele>878.071479</ele>
        <time>2022-04-04T09:47:16.936Z</time>
      </trkpt>
      <trkpt lat="42.62308" lon="23.19122">
        <ele>878.647198</ele>
        <time>2022-04-04T09:47:21.897Z</time>
      </trkpt>
      <trkpt lat="42.62304" lon="23.1911">
        <ele>879.205702</ele>
        <time>2022-04-04T09:47:26.880Z</time>
      </trkpt>
      <trkpt lat="42.623" lon="23.19098">
        <ele>879.742082</ele>
        <time>2022-04-04T09:47:32.870Z</time>
      </trkpt>
      <trkpt lat="42.62296" lon="23.19086">
        <ele>880.268636</ele>
        <time>2022-04-04T09:47:37.885Z</time>
      </trkpt>
      <trkpt lat="42.62294" lon="23.19074">
        <ele>880.78298</ele>
        <time>2022-04-04T09:47:42.894Z</time>
      </trkpt>
      <trkpt lat="42.62291" lon="23.1906">
        <ele>881.392533</ele>
        <time>2022-04-04T09:47:47.862Z</time>
      </trkpt>
      <trkpt lat="42.62289" lon="23.19046">
        <ele>881.884954</ele>
        <time>2022-04-04T09:47:52.879Z</time>
      </trkpt>
      <trkpt lat="42.62284" lon="23.19033">
        <ele>882.169216</ele>
        <time>2022-04-04T09:47:58.916Z</time>
      </trkpt>
      <trkpt lat="42.62277" lon="23.19023">
        <ele>882.456673</ele>
        <time>2022-04-04T09:48:04.877Z</time>
      </trkpt>
      <trkpt lat="42.6227" lon="23.19013">
        <ele>882.74616</ele>
        <time>2022-04-04T09:48:10.884Z</time>
      </trkpt>
      <trkpt lat="42.62262" lon="23.19005">
        <ele>883.019305</ele>
        <time>2022-04-04T09:48:15.900Z</time>
      </trkpt>
      <trkpt lat="42.62254" lon="23.18999">
        <ele>883.267434</ele>
        <time>2022-04-04T09:48:20.913Z</time>
      </trkpt>
      <trkpt lat="42.62246" lon="23.18992">
        <ele>883.533609</ele>
        <time>2022-04-04T09:48:26.870Z</time>
      </trkpt>
      <trkpt lat="42.62237" lon="23.18985">
        <ele>883.806202</ele>
        <time>2022-04-04T09:48:32.866Z</time>
      </trkpt>
      <trkpt lat="42.62229" lon="23.18979">
        <ele>884.059592</ele>
        <time>2022-04-04T09:48:38.876Z</time>
      </trkpt>
      <trkpt lat="42.62221" lon="23.18973">
        <ele>884.320042</ele>
        <time>2022-04-04T09:48:43.874Z</time>
      </trkpt>
      <trkpt lat="42.62212" lon="23.18966">
        <ele>884.610756</ele>
        <time>2022-04-04T09:48:49.861Z</time>
      </trkpt>
      <trkpt lat="42.62203" lon="23.18961">
        <ele>884.88216</ele>
        <time>2022-04-04T09:48:55.906Z</time>
      </trkpt>
      <trkpt lat="42.62193" lon="23.18958">
        <ele>885.147933</ele>
        <time>2022-04-04T09:49:00.871Z</time>
      </trkpt>
      <trkpt lat="42.62184" lon="23.18954">
        <ele>885.417205</ele>
        <time>2022-04-04T09:49:07.871Z</time>
      </trkpt>
      <trkpt lat="42.62174" lon="23.18949">
        <ele>885.720321</ele>
        <time>2022-04-04T09:49:12.913Z</time>
      </trkpt>
      <trkpt lat="42.62164" lon="23.18944">
        <ele>886.003645</ele>
        <time>2022-04-04T09:49:17.883Z</time>
      </trkpt>
      <trkpt lat="42.62155" lon="23.18941">
        <ele>886.258674</ele>
        <time>2022-04-04T09:49:24.880Z</time>
      </trkpt>
      <trkpt lat="42.62146" lon="23.18935">
        <ele>886.534831</ele>
        <time>2022-04-04T09:49:29.884Z</time>
      </trkpt>
      <trkpt lat="42.62137" lon="23.18931">
        <ele>886.857784</ele>
        <time>2022-04-04T09:49:35.891Z</time>
      </trkpt>
      <trkpt lat="42.62128" lon="23.18928">
        <ele>887.40719</ele>
        <time>2022-04-04T09:49:41.868Z</time>
      </trkpt>
      <trkpt lat="42.62119" lon="23.18923">
        <ele>887.974272</ele>
        <time>2022-04-04T09:49:46.877Z</time>
      </trkpt>
      <trkpt lat="42.62109" lon="23.18917">
        <ele>888.606307</ele>
        <time>2022-04-04T09:49:52.875Z</time>
      </trkpt>
      <trkpt lat="42.621" lon="23.18914">
        <ele>889.154348</ele>
        <time>2022-04-04T09:49:58.884Z</time>
      </trkpt>
      <trkpt lat="42.62091" lon="23.18912">
        <ele>889.688818</ele>
        <time>2022-04-04T09:50:04.893Z</time>
      </trkpt>
      <trkpt lat="42.62081" lon="23.18909">
        <ele>890.30152</ele>
        <time>2022-04-04T09:50:11.870Z</time>
      </trkpt>
      <trkpt lat="42.62072" lon="23.18903">
        <ele>890.882593</ele>
        <time>2022-04-04T09:50:16.886Z</time>
      </trkpt>
      <trkpt lat="42.62062" lon="23.189">
        <ele>891.478932</ele>
        <time>2022-04-04T09:50:21.888Z</time>
      </trkpt>
      <trkpt lat="42.62053" lon="23.18897">
        <ele>892.022156</ele>
        <time>2022-04-04T09:50:26.861Z</time>
      </trkpt>
      <trkpt lat="42.62044" lon="23.18898">
        <ele>892.560115</ele>
        <time>2022-04-04T09:50:33.880Z</time>
      </trkpt>
      <trkpt lat="42.62035" lon="23.18896">
        <ele>893.125537</ele>
        <time>2022-04-04T09:50:39.863Z</time>
      </trkpt>
      <trkpt lat="42.62025" lon="23.18892">
        <ele>893.699931</ele>
        <time>2022-04-04T09:50:44.884Z</time>
      </trkpt>
      <trkpt lat="42.62016" lon="23.18892">
        <ele>894.259747</ele>
        <time>2022-04-04T09:50:50.867Z</time>
      </trkpt>
      <trkpt lat="42.62006" lon="23.18886">
        <ele>894.866107</ele>
        <time>2022-04-04T09:50:57.863Z</time>
      </trkpt>
      <trkpt lat="42.61999" lon="23.18875">
        <ele>895.496865</ele>
        <time>2022-04-04T09:51:02.904Z</time>
      </trkpt>
      <trkpt lat="42.61994" lon="23.18862">
        <ele>896.148429</ele>
        <time>2022-04-04T09:51:07.893Z</time>
      </trkpt>
      <trkpt lat="42.61992" lon="23.1885">
        <ele>896.688493</ele>
        <time>2022-04-04T09:51:11.860Z</time>
      </trkpt>
      <trkpt lat="42.61991" lon="23.18837">
        <ele>897.253295</ele>
        <time>2022-04-04T09:51:16.872Z</time>
      </trkpt>
      <trkpt lat="42.61992" lon="23.18824">
        <ele>897.578085</ele>
        <time>2022-04-04T09:51:21.878Z</time>
      </trkpt>
      <trkpt lat="42.61993" lon="23.18809">
        <ele>897.915153</ele>
        <time>2022-04-04T09:51:26.868Z</time>
      </trkpt>
      <trkpt lat="42.61993" lon="23.18797">
        <ele>898.182429</ele>
        <time>2022-04-04T09:51:30.881Z</time>
      </trkpt>
      <trkpt lat="42.61993" lon="23.18784">
        <ele>898.460897</ele>
        <time>2022-04-04T09:51:35.885Z</time>
      </trkpt>
      <trkpt lat="42.61996" lon="23.18771">
        <ele>898.761609</ele>
        <time>2022-04-04T09:51:41.876Z</time>
      </trkpt>
      <trkpt lat="42.62" lon="23.18758">
        <ele>899.071844</ele>
        <time>2022-04-04T09:51:47.895Z</time>
      </trkpt>
      <trkpt lat="42.62002" lon="23.18745">
        <ele>899.368334</ele>
        <time>2022-04-04T09:51:52.882Z</time>
      </trkpt>
      <trkpt lat="42.62007" lon="23.18733">
        <ele>899.647619</ele>
        <time>2022-04-04T09:51:57.875Z</time>
      </trkpt>
      <trkpt lat="42.6201" lon="23.1872">
        <ele>899.956237</ele>
        <time>2022-04-04T09:52:03.881Z</time>
      </trkpt>
      <trkpt lat="42.62013" lon="23.18707">
        <ele>900.242473</ele>
        <time>2022-04-04T09:52:07.901Z</time>
      </trkpt>
      <trkpt lat="42.62018" lon="23.18698">
        <ele>900.519852</ele>
        <time>2022-04-04T09:52:12.882Z</time>
      </trkpt>
      <trkpt lat="42.62026" lon="23.1869">
        <ele>900.810553</ele>
        <time>2022-04-04T09:52:17.877Z</time>
      </trkpt>
      <trkpt lat="42.62033" lon="23.18681">
        <ele>901.078496</ele>
        <time>2022-04-04T09:52:21.900Z</time>
      </trkpt>
      <trkpt lat="42.62042" lon="23.18674">
        <ele>901.404475</ele>
        <time>2022-04-04T09:52:26.937Z</time>
      </trkpt>
      <trkpt lat="42.6205" lon="23.18664">
        <ele>901.724589</ele>
        <time>2022-04-04T09:52:31.859Z</time>
      </trkpt>
      <trkpt lat="42.62058" lon="23.18658">
        <ele>902.007741</ele>
        <time>2022-04-04T09:52:36.865Z</time>
      </trkpt>
      <trkpt lat="42.62068" lon="23.18651">
        <ele>902.33774</ele>
        <time>2022-04-04T09:52:41.871Z</time>
      </trkpt>
      <trkpt lat="42.62078" lon="23.18646">
        <ele>902.648748</ele>
        <time>2022-04-04T09:52:46.867Z</time>
      </trkpt>
      <trkpt lat="42.62088" lon="23.18644">
        <ele>902.743307</ele>
        <time>2022-04-04T09:52:50.907Z</time>
      </trkpt>
      <trkpt lat="42.62099" lon="23.18639">
        <ele>902.816334</ele>
        <time>2022-04-04T09:52:54.953Z</time>
      </trkpt>
      <trkpt lat="42.62111" lon="23.18637">
        <ele>902.88883</ele>
        <time>2022-04-04T09:52:58.883Z</time>
      </trkpt>
      <trkpt lat="42.62121" lon="23.18635">
        <ele>902.948664</ele>
        <time>2022-04-04T09:53:02.866Z</time>
      </trkpt>
      <trkpt lat="42.6213" lon="23.18633">
        <ele>903.004819</ele>
        <time>2022-04-04T09:53:06.877Z</time>
      </trkpt>
      <trkpt lat="42.6214" lon="23.18628">
        <ele>903.071101</ele>
        <time>2022-04-04T09:53:10.882Z</time>
      </trkpt>
      <trkpt lat="42.62151" lon="23.18622">
        <ele>903.140146</ele>
        <time>2022-04-04T09:53:14.888Z</time>
      </trkpt>
      <trkpt lat="42.6216" lon="23.18621">
        <ele>903.198916</ele>
        <time>2022-04-04T09:53:18.874Z</time>
      </trkpt>
      <trkpt lat="42.62171" lon="23.18623">
        <ele>903.263568</ele>
        <time>2022-04-04T09:53:23.883Z</time>
      </trkpt>
      <trkpt lat="42.62181" lon="23.1862">
        <ele>903.32559</ele>
        <time>2022-04-04T09:53:27.885Z</time>
      </trkpt>
      <trkpt lat="42.62192" lon="23.1862">
        <ele>903.393214</ele>
        <time>2022-04-04T09:53:32.869Z</time>
      </trkpt>
      <trkpt lat="42.62202" lon="23.18622">
        <ele>903.458405</ele>
        <time>2022-04-04T09:53:37.885Z</time>
      </trkpt>
      <trkpt lat="42.62211" lon="23.18623">
        <ele>903.514194</ele>
        <time>2022-04-04T09:53:41.912Z</time>
      </trkpt>
      <trkpt lat="42.62223" lon="23.18624">
        <ele>903.583067</ele>
        <time>2022-04-04T09:53:44.875Z</time>
      </trkpt>
      <trkpt lat="42.62234" lon="23.18625">
        <ele>903.653402</ele>
        <time>2022-04-04T09:53:47.892Z</time>
      </trkpt>
      <trkpt lat="42.62247" lon="23.18626">
        <ele>903.733833</ele>
        <time>2022-04-04T09:53:50.890Z</time>
      </trkpt>
      <trkpt lat="42.62259" lon="23.18626">
        <ele>903.824449</ele>
        <time>2022-04-04T09:53:52.862Z</time>
      </trkpt>
      <trkpt lat="42.62268" lon="23.18627">
        <ele>903.97605</ele>
        <time>2022-04-04T09:53:54.862Z</time>
      </trkpt>
      <trkpt lat="42.62278" lon="23.18628">
        <ele>904.143639</ele>
        <time>2022-04-04T09:53:57.858Z</time>
      </trkpt>
      <trkpt lat="42.62288" lon="23.18627">
        <ele>904.301816</ele>
        <time>2022-04-04T09:54:02.879Z</time>
      </trkpt>
      <trkpt lat="42.62296" lon="23.1862">
        <ele>904.45529</ele>
        <time>2022-04-04T09:54:09.893Z</time>
      </trkpt>
      <trkpt lat="42.62296" lon="23.18608">
        <ele>904.602591</ele>
        <time>2022-04-04T09:54:12.908Z</time>
      </trkpt>
      <trkpt lat="42.62294" lon="23.18594">
        <ele>904.772183</ele>
        <time>2022-04-04T09:54:16.884Z</time>
      </trkpt>
      <trkpt lat="42.62293" lon="23.18582">
        <ele>904.922716</ele>
        <time>2022-04-04T09:54:20.884Z</time>
      </trkpt>
      <trkpt lat="42.62291" lon="23.18569">
        <ele>905.07502</ele>
        <time>2022-04-04T09:54:24.883Z</time>
      </trkpt>
      <trkpt lat="42.62289" lon="23.18556">
        <ele>905.239075</ele>
        <time>2022-04-04T09:54:29.859Z</time>
      </trkpt>
      <trkpt lat="42.62288" lon="23.18541">
        <ele>905.413378</ele>
        <time>2022-04-04T09:54:34.910Z</time>
      </trkpt>
      <trkpt lat="42.62287" lon="23.18528">
        <ele>905.566649</ele>
        <time>2022-04-04T09:54:39.876Z</time>
      </trkpt>
      <trkpt lat="42.62288" lon="23.18515">
        <ele>905.725817</ele>
        <time>2022-04-04T09:54:45.872Z</time>
      </trkpt>
      <trkpt lat="42.62288" lon="23.18502">
        <ele>905.877686</ele>
        <time>2022-04-04T09:54:50.879Z</time>
      </trkpt>
      <trkpt lat="42.62289" lon="23.18488">
        <ele>906.045374</ele>
        <time>2022-04-04T09:54:56.883Z</time>
      </trkpt>
      <trkpt lat="42.62289" lon="23.18474">
        <ele>906.212091</ele>
        <time>2022-04-04T09:55:01.884Z</time>
      </trkpt>
      <trkpt lat="42.6229" lon="23.1846">
        <ele>906.383361</ele>
        <time>2022-04-04T09:55:07.859Z</time>
      </trkpt>
      <trkpt lat="42.6229" lon="23.18448">
        <ele>906.532909</ele>
        <time>2022-04-04T09:55:12.870Z</time>
      </trkpt>
      <trkpt lat="42.6229" lon="23.18435">
        <ele>906.689552</ele>
        <time>2022-04-04T09:55:17.862Z</time>
      </trkpt>
      <trkpt lat="42.62291" lon="23.18422">
        <ele>906.751851</ele>
        <time>2022-04-04T09:55:22.887Z</time>
      </trkpt>
      <trkpt lat="42.62291" lon="23.18409">
        <ele>906.798217</ele>
        <time>2022-04-04T09:55:27.868Z</time>
      </trkpt>
      <trkpt lat="42.62292" lon="23.18395">
        <ele>906.850492</ele>
        <time>2022-04-04T09:55:33.870Z</time>
      </trkpt>
      <trkpt lat="42.62291" lon="23.18383">
        <ele>906.897902</ele>
        <time>2022-04-04T09:55:39.864Z</time>
      </trkpt>
      <trkpt lat="42.62291" lon="23.18368">
        <ele>906.950894</ele>
        <time>2022-04-04T09:55:44.866Z</time>
      </trkpt>
      <trkpt lat="42.62291" lon="23.18356">
        <ele>906.997577</ele>
        <time>2022-04-04T09:55:49.876Z</time>
      </trkpt>
      <trkpt lat="42.62291" lon="23.18343">
        <ele>907.045719</ele>
        <time>2022-04-04T09:55:54.866Z</time>
      </trkpt>
      <trkpt lat="42.62289" lon="23.18328">
        <ele>907.101764</ele>
        <time>2022-04-04T09:55:59.863Z</time>
      </trkpt>
      <trkpt lat="42.62288" lon="23.18315">
        <ele>907.152416</ele>
        <time>2022-04-04T09:56:03.862Z</time>
      </trkpt>
      <trkpt lat="42.62286" lon="23.18302">
        <ele>907.201038</ele>
        <time>2022-04-04T09:56:07.873Z</time>
      </trkpt>
      <trkpt lat="42.62284" lon="23.18289">
        <ele>907.251063</ele>
        <time>2022-04-04T09:56:11.888Z</time>
      </trkpt>
      <trkpt lat="42.62281" lon="23.18277">
        <ele>907.297737</ele>
        <time>2022-04-04T09:56:15.856Z</time>
      </trkpt>
      <trkpt lat="42.62279" lon="23.18263">
        <ele>907.349804</ele>
        <time>2022-04-04T09:56:19.872Z</time>
      </trkpt>
      <trkpt lat="42.62276" lon="23.1825">
        <ele>907.402955</ele>
        <time>2022-04-04T09:56:23.884Z</time>
      </trkpt>
      <trkpt lat="42.62272" lon="23.18235">
        <ele>907.45883</ele>
        <time>2022-04-04T09:56:27.870Z</time>
      </trkpt>
      <trkpt lat="42.62268" lon="23.18222">
        <ele>907.512831</ele>
        <time>2022-04-04T09:56:31.874Z</time>
      </trkpt>
      <trkpt lat="42.62264" lon="23.1821">
        <ele>907.564543</ele>
        <time>2022-04-04T09:56:35.877Z</time>
      </trkpt>
      <trkpt lat="42.62259" lon="23.18198">
        <ele>907.613874</ele>
        <time>2022-04-04T09:56:39.858Z</time>
      </trkpt>
      <trkpt lat="42.62254" lon="23.18187">
        <ele>907.315033</ele>
        <time>2022-04-04T09:56:43.884Z</time>
      </trkpt>
      <trkpt lat="42.62249" lon="23.18175">
        <ele>906.919532</ele>
        <time>2022-04-04T09:56:47.884Z</time>
      </trkpt>
      <trkpt lat="42.62243" lon="23.18162">
        <ele>906.509571</ele>
        <time>2022-04-04T09:56:51.858Z</time>
      </trkpt>
      <trkpt lat="42.62237" lon="23.18151">
        <ele>906.104851</ele>
        <time>2022-04-04T09:56:55.887Z</time>
      </trkpt>
      <trkpt lat="42.6223" lon="23.1814">
        <ele>905.69863</ele>
        <time>2022-04-04T09:56:59.866Z</time>
      </trkpt>
      <trkpt lat="42.62222" lon="23.18129">
        <ele>905.280983</ele>
        <time>2022-04-04T09:57:03.859Z</time>
      </trkpt>
      <trkpt lat="42.62214" lon="23.18117">
        <ele>904.825506</ele>
        <time>2022-04-04T09:57:07.890Z</time>
      </trkpt>
      <trkpt lat="42.62207" lon="23.18108">
        <ele>904.455003</ele>
        <time>2022-04-04T09:57:10.859Z</time>
      </trkpt>
      <trkpt lat="42.62199" lon="23.18098">
        <ele>904.022842</ele>
        <time>2022-04-04T09:57:13.874Z</time>
      </trkpt>
      <trkpt lat="42.6219" lon="23.18087">
        <ele>903.554671</ele>
        <time>2022-04-04T09:57:16.878Z</time>
      </trkpt>
      <trkpt lat="42.6218" lon="23.18077">
        <ele>903.078437</ele>
        <time>2022-04-04T09:57:19.903Z</time>
      </trkpt>
      <trkpt lat="42.62173" lon="23.18069">
        <ele>902.715154</ele>
        <time>2022-04-04T09:57:21.860Z</time>
      </trkpt>
      <trkpt lat="42.62165" lon="23.1806">
        <ele>902.337606</ele>
        <time>2022-04-04T09:57:23.884Z</time>
      </trkpt>
      <trkpt lat="42.62157" lon="23.18053">
        <ele>901.97875</ele>
        <time>2022-04-04T09:57:25.875Z</time>
      </trkpt>
      <trkpt lat="42.62147" lon="23.18041">
        <ele>901.45548</ele>
        <time>2022-04-04T09:57:28.882Z</time>
      </trkpt>
      <trkpt lat="42.62139" lon="23.18033">
        <ele>901.076158</ele>
        <time>2022-04-04T09:57:30.864Z</time>
      </trkpt>
      <trkpt lat="42.62131" lon="23.18025">
        <ele>900.701331</ele>
        <time>2022-04-04T09:57:32.876Z</time>
      </trkpt>
      <trkpt lat="42.62122" lon="23.18016">
        <ele>900.404115</ele>
        <time>2022-04-04T09:57:34.889Z</time>
      </trkpt>
      <trkpt lat="42.62112" lon="23.18005">
        <ele>900.060258</ele>
        <time>2022-04-04T09:57:36.854Z</time>
      </trkpt>
      <trkpt lat="42.62102" lon="23.17994">
        <ele>899.710781</ele>
        <time>2022-04-04T09:57:38.876Z</time>
      </trkpt>
      <trkpt lat="42.62091" lon="23.17983">
        <ele>899.362235</ele>
        <time>2022-04-04T09:57:40.881Z</time>
      </trkpt>
      <trkpt lat="42.62081" lon="23.17972">
        <ele>899.006339</ele>
        <time>2022-04-04T09:57:42.866Z</time>
      </trkpt>
      <trkpt lat="42.62071" lon="23.17961">
        <ele>898.656585</ele>
        <time>2022-04-04T09:57:44.889Z</time>
      </trkpt>
      <trkpt lat="42.6206" lon="23.17951">
        <ele>898.323046</ele>
        <time>2022-04-04T09:57:46.887Z</time>
      </trkpt>
      <trkpt lat="42.62051" lon="23.17942">
        <ele>898.014859</ele>
        <time>2022-04-04T09:57:48.867Z</time>
      </trkpt>
      <trkpt lat="42.62043" lon="23.17934">
        <ele>897.741091</ele>
        <time>2022-04-04T09:57:50.873Z</time>
      </trkpt>
      <trkpt lat="42.62033" lon="23.17924">
        <ele>897.409742</ele>
        <time>2022-04-04T09:57:53.887Z</time>
      </trkpt>
      <trkpt lat="42.62015" lon="23.17909">
        <ele>896.859943</ele>
        <time>2022-04-04T09:59:36.934Z</time>
      </trkpt>
      <trkpt lat="42.62008" lon="23.17902">
        <ele>896.606916</ele>
        <time>2022-04-04T09:59:39.884Z</time>
      </trkpt>
      <trkpt lat="42.61999" lon="23.17891">
        <ele>896.281203</ele>
        <time>2022-04-04T09:59:42.874Z</time>
      </trkpt>
      <trkpt lat="42.61988" lon="23.1788">
        <ele>895.922362</ele>
        <time>2022-04-04T09:59:45.889Z</time>
      </trkpt>
      <trkpt lat="42.61981" lon="23.17872">
        <ele>895.795835</ele>
        <time>2022-04-04T09:59:47.919Z</time>
      </trkpt>
      <trkpt lat="42.61972" lon="23.17862">
        <ele>895.662345</ele>
        <time>2022-04-04T09:59:49.904Z</time>
      </trkpt>
      <trkpt lat="42.61964" lon="23.17853">
        <ele>895.524066</ele>
        <time>2022-04-04T09:59:51.885Z</time>
      </trkpt>
      <trkpt lat="42.61955" lon="23.17842">
        <ele>895.382231</ele>
        <time>2022-04-04T09:59:53.874Z</time>
      </trkpt>
      <trkpt lat="42.61946" lon="23.17832">
        <ele>895.236897</ele>
        <time>2022-04-04T09:59:55.889Z</time>
      </trkpt>
      <trkpt lat="42.61936" lon="23.17822">
        <ele>895.078346</ele>
        <time>2022-04-04T09:59:57.882Z</time>
      </trkpt>
      <trkpt lat="42.61925" lon="23.17811">
        <ele>894.919795</ele>
        <time>2022-04-04T09:59:59.898Z</time>
      </trkpt>
      <trkpt lat="42.61915" lon="23.17801">
        <ele>894.75558</ele>
        <time>2022-04-04T10:00:01.878Z</time>
      </trkpt>
      <trkpt lat="42.61904" lon="23.1779">
        <ele>894.594027</ele>
        <time>2022-04-04T10:00:03.885Z</time>
      </trkpt>
      <trkpt lat="42.61893" lon="23.1778">
        <ele>894.435044</ele>
        <time>2022-04-04T10:00:05.877Z</time>
      </trkpt>
      <trkpt lat="42.61884" lon="23.1777">
        <ele>894.289493</ele>
        <time>2022-04-04T10:00:07.903Z</time>
      </trkpt>
      <trkpt lat="42.61876" lon="23.1776">
        <ele>894.156476</ele>
        <time>2022-04-04T10:00:09.867Z</time>
      </trkpt>
      <trkpt lat="42.61869" lon="23.17749">
        <ele>894.020272</ele>
        <time>2022-04-04T10:00:11.944Z</time>
      </trkpt>
      <trkpt lat="42.61861" lon="23.17736">
        <ele>893.866787</ele>
        <time>2022-04-04T10:00:13.870Z</time>
      </trkpt>
      <trkpt lat="42.61854" lon="23.17722">
        <ele>893.713427</ele>
        <time>2022-04-04T10:00:15.889Z</time>
      </trkpt>
      <trkpt lat="42.61846" lon="23.17709">
        <ele>893.287205</ele>
        <time>2022-04-04T10:00:17.902Z</time>
      </trkpt>
      <trkpt lat="42.61839" lon="23.17695">
        <ele>892.814549</ele>
        <time>2022-04-04T10:00:19.887Z</time>
      </trkpt>
      <trkpt lat="42.61831" lon="23.17682">
        <ele>892.316544</ele>
        <time>2022-04-04T10:00:21.896Z</time>
      </trkpt>
      <trkpt lat="42.61822" lon="23.17667">
        <ele>891.780578</ele>
        <time>2022-04-04T10:00:23.869Z</time>
      </trkpt>
      <trkpt lat="42.61813" lon="23.17654">
        <ele>891.24853</ele>
        <time>2022-04-04T10:00:25.883Z</time>
      </trkpt>
      <trkpt lat="42.61803" lon="23.17641">
        <ele>890.737466</ele>
        <time>2022-04-04T10:00:27.898Z</time>
      </trkpt>
      <trkpt lat="42.61794" lon="23.17629">
        <ele>890.258938</ele>
        <time>2022-04-04T10:00:29.895Z</time>
      </trkpt>
      <trkpt lat="42.61786" lon="23.17619">
        <ele>889.817167</ele>
        <time>2022-04-04T10:00:31.893Z</time>
      </trkpt>
      <trkpt lat="42.61778" lon="23.17609">
        <ele>889.400137</ele>
        <time>2022-04-04T10:00:33.891Z</time>
      </trkpt>
      <trkpt lat="42.6177" lon="23.17598">
        <ele>888.96639</ele>
        <time>2022-04-04T10:00:35.894Z</time>
      </trkpt>
      <trkpt lat="42.61763" lon="23.17589">
        <ele>888.569528</ele>
        <time>2022-04-04T10:00:37.884Z</time>
      </trkpt>
      <trkpt lat="42.61754" lon="23.17578">
        <ele>888.13426</ele>
        <time>2022-04-04T10:00:39.875Z</time>
      </trkpt>
      <trkpt lat="42.61745" lon="23.17567">
        <ele>887.661896</ele>
        <time>2022-04-04T10:00:41.885Z</time>
      </trkpt>
      <trkpt lat="42.61736" lon="23.17555">
        <ele>887.169441</ele>
        <time>2022-04-04T10:00:43.885Z</time>
      </trkpt>
      <trkpt lat="42.61727" lon="23.17544">
        <ele>886.684015</ele>
        <time>2022-04-04T10:00:45.879Z</time>
      </trkpt>
      <trkpt lat="42.61718" lon="23.17532">
        <ele>886.113538</ele>
        <time>2022-04-04T10:00:47.894Z</time>
      </trkpt>
      <trkpt lat="42.61709" lon="23.17521">
        <ele>885.612291</ele>
        <time>2022-04-04T10:00:49.926Z</time>
      </trkpt>
      <trkpt lat="42.61703" lon="23.17513">
        <ele>885.207135</ele>
        <time>2022-04-04T10:00:51.904Z</time>
      </trkpt>
      <trkpt lat="42.61696" lon="23.17504">
        <ele>884.776909</ele>
        <time>2022-04-04T10:00:53.876Z</time>
      </trkpt>
      <trkpt lat="42.61689" lon="23.17495">
        <ele>884.355397</ele>
        <time>2022-04-04T10:00:55.911Z</time>
      </trkpt>
      <trkpt lat="42.61682" lon="23.17487">
        <ele>883.954652</ele>
        <time>2022-04-04T10:00:57.883Z</time>
      </trkpt>
      <trkpt lat="42.61672" lon="23.17474">
        <ele>883.345346</ele>
        <time>2022-04-04T10:01:00.883Z</time>
      </trkpt>
      <trkpt lat="42.61662" lon="23.17462">
        <ele>882.752414</ele>
        <time>2022-04-04T10:01:03.871Z</time>
      </trkpt>
      <trkpt lat="42.61654" lon="23.17453">
        <ele>882.304986</ele>
        <time>2022-04-04T10:01:05.872Z</time>
      </trkpt>
      <trkpt lat="42.61647" lon="23.17444">
        <ele>881.877696</ele>
        <time>2022-04-04T10:01:07.890Z</time>
      </trkpt>
      <trkpt lat="42.61638" lon="23.1743">
        <ele>881.283261</ele>
        <time>2022-04-04T10:01:10.873Z</time>
      </trkpt>
      <trkpt lat="42.61631" lon="23.17421">
        <ele>880.852174</ele>
        <time>2022-04-04T10:01:12.876Z</time>
      </trkpt>
      <trkpt lat="42.61624" lon="23.17411">
        <ele>880.40945</ele>
        <time>2022-04-04T10:01:14.863Z</time>
      </trkpt>
      <trkpt lat="42.61617" lon="23.17401">
        <ele>879.953575</ele>
        <time>2022-04-04T10:01:16.968Z</time>
      </trkpt>
      <trkpt lat="42.61609" lon="23.17391">
        <ele>879.469087</ele>
        <time>2022-04-04T10:01:18.883Z</time>
      </trkpt>
      <trkpt lat="42.61602" lon="23.17381">
        <ele>879.007785</ele>
        <time>2022-04-04T10:01:20.926Z</time>
      </trkpt>
      <trkpt lat="42.61595" lon="23.17371">
        <ele>878.62526</ele>
        <time>2022-04-04T10:01:22.906Z</time>
      </trkpt>
      <trkpt lat="42.61586" lon="23.17359">
        <ele>878.212621</ele>
        <time>2022-04-04T10:01:25.863Z</time>
      </trkpt>
      <trkpt lat="42.61579" lon="23.17347">
        <ele>877.846439</ele>
        <time>2022-04-04T10:01:28.895Z</time>
      </trkpt>
      <trkpt lat="42.61573" lon="23.17334">
        <ele>877.483109</ele>
        <time>2022-04-04T10:01:31.868Z</time>
      </trkpt>
      <trkpt lat="42.61569" lon="23.1732">
        <ele>877.11605</ele>
        <time>2022-04-04T10:01:34.915Z</time>
      </trkpt>
      <trkpt lat="42.61567" lon="23.17304">
        <ele>876.734956</ele>
        <time>2022-04-04T10:01:37.890Z</time>
      </trkpt>
      <trkpt lat="42.61568" lon="23.17288">
        <ele>876.358488</ele>
        <time>2022-04-04T10:01:40.930Z</time>
      </trkpt>
      <trkpt lat="42.61572" lon="23.17273">
        <ele>875.974795</ele>
        <time>2022-04-04T10:01:43.874Z</time>
      </trkpt>
      <trkpt lat="42.61578" lon="23.1726">
        <ele>875.593172</ele>
        <time>2022-04-04T10:01:46.900Z</time>
      </trkpt>
      <trkpt lat="42.61585" lon="23.1725">
        <ele>875.277859</ele>
        <time>2022-04-04T10:01:48.898Z</time>
      </trkpt>
      <trkpt lat="42.61593" lon="23.17242">
        <ele>874.952125</ele>
        <time>2022-04-04T10:01:50.884Z</time>
      </trkpt>
      <trkpt lat="42.61601" lon="23.17237">
        <ele>874.65402</ele>
        <time>2022-04-04T10:01:52.918Z</time>
      </trkpt>
      <trkpt lat="42.61614" lon="23.17232">
        <ele>874.225521</ele>
        <time>2022-04-04T10:01:55.990Z</time>
      </trkpt>
      <trkpt lat="42.61623" lon="23.17228">
        <ele>873.930693</ele>
        <time>2022-04-04T10:01:57.878Z</time>
      </trkpt>
      <trkpt lat="42.61635" lon="23.17221">
        <ele>873.50414</ele>
        <time>2022-04-04T10:02:00.893Z</time>
      </trkpt>
      <trkpt lat="42.61645" lon="23.17212">
        <ele>873.112084</ele>
        <time>2022-04-04T10:02:03.889Z</time>
      </trkpt>
      <trkpt lat="42.61652" lon="23.17199">
        <ele>872.585114</ele>
        <time>2022-04-04T10:02:06.886Z</time>
      </trkpt>
      <trkpt lat="42.61655" lon="23.17186">
        <ele>872.076458</ele>
        <time>2022-04-04T10:02:08.887Z</time>
      </trkpt>
      <trkpt lat="42.61656" lon="23.17172">
        <ele>871.53139</ele>
        <time>2022-04-04T10:02:10.879Z</time>
      </trkpt>
      <trkpt lat="42.61656" lon="23.17157">
        <ele>870.971421</ele>
        <time>2022-04-04T10:02:12.884Z</time>
      </trkpt>
      <trkpt lat="42.61655" lon="23.17141">
        <ele>870.36259</ele>
        <time>2022-04-04T10:02:14.917Z</time>
      </trkpt>
      <trkpt lat="42.61652" lon="23.17126">
        <ele>869.755274</ele>
        <time>2022-04-04T10:02:16.864Z</time>
      </trkpt>
      <trkpt lat="42.61648" lon="23.17112">
        <ele>869.172543</ele>
        <time>2022-04-04T10:02:18.892Z</time>
      </trkpt>
      <trkpt lat="42.61644" lon="23.17098">
        <ele>868.608945</ele>
        <time>2022-04-04T10:02:20.917Z</time>
      </trkpt>
      <trkpt lat="42.61641" lon="23.17084">
        <ele>868.074494</ele>
        <time>2022-04-04T10:02:22.883Z</time>
      </trkpt>
      <trkpt lat="42.61637" lon="23.1707">
        <ele>867.484089</ele>
        <time>2022-04-04T10:02:24.897Z</time>
      </trkpt>
      <trkpt lat="42.61632" lon="23.17054">
        <ele>866.821948</ele>
        <time>2022-04-04T10:02:26.923Z</time>
      </trkpt>
      <trkpt lat="42.61626" lon="23.17039">
        <ele>866.171623</ele>
        <time>2022-04-04T10:02:28.887Z</time>
      </trkpt>
      <trkpt lat="42.61619" lon="23.17026">
        <ele>865.562227</ele>
        <time>2022-04-04T10:02:30.903Z</time>
      </trkpt>
      <trkpt lat="42.61612" lon="23.17012">
        <ele>864.914886</ele>
        <time>2022-04-04T10:02:32.905Z</time>
      </trkpt>
      <trkpt lat="42.61605" lon="23.17">
        <ele>864.356169</ele>
        <time>2022-04-04T10:02:34.888Z</time>
      </trkpt>
      <trkpt lat="42.61597" lon="23.16989">
        <ele>863.739874</ele>
        <time>2022-04-04T10:02:37.895Z</time>
      </trkpt>
      <trkpt lat="42.61591" lon="23.16977">
        <ele>863.753396</ele>
        <time>2022-04-04T10:02:41.891Z</time>
      </trkpt>
      <trkpt lat="42.61582" lon="23.16967">
        <ele>863.925425</ele>
        <time>2022-04-04T10:02:45.884Z</time>
      </trkpt>
      <trkpt lat="42.61574" lon="23.16958">
        <ele>864.098312</ele>
        <time>2022-04-04T10:02:49.889Z</time>
      </trkpt>
      <trkpt lat="42.61565" lon="23.16949">
        <ele>864.278346</ele>
        <time>2022-04-04T10:02:53.886Z</time>
      </trkpt>
      <trkpt lat="42.61557" lon="23.16939">
        <ele>864.443485</ele>
        <time>2022-04-04T10:02:57.890Z</time>
      </trkpt>
      <trkpt lat="42.61549" lon="23.16929">
        <ele>864.616163</ele>
        <time>2022-04-04T10:03:01.886Z</time>
      </trkpt>
      <trkpt lat="42.61541" lon="23.16919">
        <ele>864.785507</ele>
        <time>2022-04-04T10:03:06.882Z</time>
      </trkpt>
      <trkpt lat="42.61531" lon="23.1691">
        <ele>864.973325</ele>
        <time>2022-04-04T10:03:10.894Z</time>
      </trkpt>
      <trkpt lat="42.61522" lon="23.16901">
        <ele>865.159838</ele>
        <time>2022-04-04T10:03:13.888Z</time>
      </trkpt>
      <trkpt lat="42.61513" lon="23.16892">
        <ele>865.33303</ele>
        <time>2022-04-04T10:03:17.888Z</time>
      </trkpt>
      <trkpt lat="42.61506" lon="23.16883">
        <ele>865.489784</ele>
        <time>2022-04-04T10:03:21.877Z</time>
      </trkpt>
      <trkpt lat="42.61498" lon="23.16873">
        <ele>865.661785</ele>
        <time>2022-04-04T10:03:25.893Z</time>
      </trkpt>
      <trkpt lat="42.61491" lon="23.16864">
        <ele>865.809573</ele>
        <time>2022-04-04T10:03:28.919Z</time>
      </trkpt>
      <trkpt lat="42.61483" lon="23.16855">
        <ele>865.966368</ele>
        <time>2022-04-04T10:03:33.881Z</time>
      </trkpt>
      <trkpt lat="42.61474" lon="23.16849">
        <ele>866.140348</ele>
        <time>2022-04-04T10:03:38.874Z</time>
      </trkpt>
      <trkpt lat="42.61465" lon="23.16843">
        <ele>866.291754</ele>
        <time>2022-04-04T10:03:42.896Z</time>
      </trkpt>
      <trkpt lat="42.61456" lon="23.16839">
        <ele>866.440456</ele>
        <time>2022-04-04T10:03:45.947Z</time>
      </trkpt>
      <trkpt lat="42.61447" lon="23.16836">
        <ele>865.520369</ele>
        <time>2022-04-04T10:03:48.905Z</time>
      </trkpt>
      <trkpt lat="42.61436" lon="23.16833">
        <ele>864.215245</ele>
        <time>2022-04-04T10:03:52.887Z</time>
      </trkpt>
      <trkpt lat="42.61425" lon="23.16827">
        <ele>862.788893</ele>
        <time>2022-04-04T10:03:56.920Z</time>
      </trkpt>
      <trkpt lat="42.61415" lon="23.16822">
        <ele>861.444975</ele>
        <time>2022-04-04T10:04:00.883Z</time>
      </trkpt>
      <trkpt lat="42.61405" lon="23.16815">
        <ele>860.109557</ele>
        <time>2022-04-04T10:04:04.894Z</time>
      </trkpt>
      <trkpt lat="42.61396" lon="23.16808">
        <ele>858.890913</ele>
        <time>2022-04-04T10:04:08.892Z</time>
      </trkpt>
      <trkpt lat="42.61388" lon="23.16799">
        <ele>857.594913</ele>
        <time>2022-04-04T10:04:13.879Z</time>
      </trkpt>
      <trkpt lat="42.61382" lon="23.16787">
        <ele>856.380834</ele>
        <time>2022-04-04T10:04:18.904Z</time>
      </trkpt>
      <trkpt lat="42.6138" lon="23.16774">
        <ele>855.197511</ele>
        <time>2022-04-04T10:04:23.888Z</time>
      </trkpt>
      <trkpt lat="42.61379" lon="23.1676">
        <ele>853.979632</ele>
        <time>2022-04-04T10:04:29.909Z</time>
      </trkpt>
      <trkpt lat="42.61382" lon="23.16748">
        <ele>852.807539</ele>
        <time>2022-04-04T10:04:34.879Z</time>
      </trkpt>
      <trkpt lat="42.61391" lon="23.16743">
        <ele>851.664885</ele>
        <time>2022-04-04T10:04:42.890Z</time>
      </trkpt>
      <trkpt lat="42.61401" lon="23.16738">
        <ele>850.407967</ele>
        <time>2022-04-04T10:04:47.024Z</time>
      </trkpt>
      <trkpt lat="42.61412" lon="23.16737">
        <ele>849.154366</ele>
        <time>2022-04-04T10:04:49.869Z</time>
      </trkpt>
      <trkpt lat="42.61421" lon="23.16739">
        <ele>848.045734</ele>
        <time>2022-04-04T10:04:53.901Z</time>
      </trkpt>
      <trkpt lat="42.61431" lon="23.16742">
        <ele>846.832738</ele>
        <time>2022-04-04T10:04:58.879Z</time>
      </trkpt>
      <trkpt lat="42.6144" lon="23.16747">
        <ele>845.638041</ele>
        <time>2022-04-04T10:05:03.886Z</time>
      </trkpt>
      <trkpt lat="42.61449" lon="23.16753">
        <ele>844.761853</ele>
        <time>2022-04-04T10:05:09.881Z</time>
      </trkpt>
      <trkpt lat="42.61459" lon="23.16757">
        <ele>844.377186</ele>
        <time>2022-04-04T10:05:15.887Z</time>
      </trkpt>
      <trkpt lat="42.61469" lon="23.1676">
        <ele>844.003469</ele>
        <time>2022-04-04T10:05:21.888Z</time>
      </trkpt>
      <trkpt lat="42.61479" lon="23.16762">
        <ele>843.659205</ele>
        <time>2022-04-04T10:05:26.882Z</time>
      </trkpt>
      <trkpt lat="42.61489" lon="23.16766">
        <ele>843.250299</ele>
        <time>2022-04-04T10:05:31.864Z</time>
      </trkpt>
      <trkpt lat="42.61498" lon="23.16771">
        <ele>842.907024</ele>
        <time>2022-04-04T10:05:36.879Z</time>
      </trkpt>
      <trkpt lat="42.61507" lon="23.16776">
        <ele>842.566202</ele>
        <time>2022-04-04T10:05:41.905Z</time>
      </trkpt>
      <trkpt lat="42.61516" lon="23.16778">
        <ele>842.224873</ele>
        <time>2022-04-04T10:05:46.886Z</time>
      </trkpt>
      <trkpt lat="42.61526" lon="23.16782">
        <ele>841.831479</ele>
        <time>2022-04-04T10:05:52.895Z</time>
      </trkpt>
      <trkpt lat="42.61534" lon="23.16789">
        <ele>841.497731</ele>
        <time>2022-04-04T10:05:57.888Z</time>
      </trkpt>
      <trkpt lat="42.61544" lon="23.16791">
        <ele>841.151233</ele>
        <time>2022-04-04T10:06:02.876Z</time>
      </trkpt>
      <trkpt lat="42.61553" lon="23.16795">
        <ele>840.791081</ele>
        <time>2022-04-04T10:06:07.876Z</time>
      </trkpt>
      <trkpt lat="42.61562" lon="23.16798">
        <ele>840.449997</ele>
        <time>2022-04-04T10:06:12.883Z</time>
      </trkpt>
      <trkpt lat="42.61572" lon="23.16799">
        <ele>840.085158</ele>
        <time>2022-04-04T10:06:18.892Z</time>
      </trkpt>
      <trkpt lat="42.6158" lon="23.16793">
        <ele>839.745099</ele>
        <time>2022-04-04T10:06:23.880Z</time>
      </trkpt>
      <trkpt lat="42.61587" lon="23.16784">
        <ele>839.396739</ele>
        <time>2022-04-04T10:06:30.891Z</time>
      </trkpt>
      <trkpt lat="42.61588" lon="23.1677">
        <ele>839.0436</ele>
        <time>2022-04-04T10:06:35.884Z</time>
      </trkpt>
      <trkpt lat="42.61589" lon="23.16758">
        <ele>838.714456</ele>
        <time>2022-04-04T10:06:40.873Z</time>
      </trkpt>
      <trkpt lat="42.6159" lon="23.16744">
        <ele>838.313937</ele>
        <time>2022-04-04T10:06:45.883Z</time>
      </trkpt>
      <trkpt lat="42.61589" lon="23.16731">
        <ele>837.683649</ele>
        <time>2022-04-04T10:06:49.884Z</time>
      </trkpt>
      <trkpt lat="42.61589" lon="23.16718">
        <ele>837.090512</ele>
        <time>2022-04-04T10:06:53.925Z</time>
      </trkpt>
      <trkpt lat="42.61586" lon="23.16704">
        <ele>836.412712</ele>
        <time>2022-04-04T10:06:57.893Z</time>
      </trkpt>
      <trkpt lat="42.61582" lon="23.16691">
        <ele>835.740156</ele>
        <time>2022-04-04T10:07:01.888Z</time>
      </trkpt>
      <trkpt lat="42.61577" lon="23.16677">
        <ele>835.001818</ele>
        <time>2022-04-04T10:07:05.901Z</time>
      </trkpt>
      <trkpt lat="42.61572" lon="23.16664">
        <ele>834.32983</ele>
        <time>2022-04-04T10:07:09.888Z</time>
      </trkpt>
      <trkpt lat="42.61568" lon="23.16651">
        <ele>833.662041</ele>
        <time>2022-04-04T10:07:13.896Z</time>
      </trkpt>
      <trkpt lat="42.61562" lon="23.16637">
        <ele>832.912745</ele>
        <time>2022-04-04T10:07:16.899Z</time>
      </trkpt>
      <trkpt lat="42.61559" lon="23.16626">
        <ele>832.329115</ele>
        <time>2022-04-04T10:07:18.906Z</time>
      </trkpt>
      <trkpt lat="42.61555" lon="23.16614">
        <ele>831.714544</ele>
        <time>2022-04-04T10:07:20.877Z</time>
      </trkpt>
      <trkpt lat="42.61549" lon="23.16598">
        <ele>830.88922</ele>
        <time>2022-04-04T10:07:23.891Z</time>
      </trkpt>
      <trkpt lat="42.61544" lon="23.16581">
        <ele>830.018551</ele>
        <time>2022-04-04T10:07:26.882Z</time>
      </trkpt>
      <trkpt lat="42.6154" lon="23.16568">
        <ele>829.376899</ele>
        <time>2022-04-04T10:07:28.893Z</time>
      </trkpt>
      <trkpt lat="42.61536" lon="23.16557">
        <ele>828.775121</ele>
        <time>2022-04-04T10:07:30.912Z</time>
      </trkpt>
      <trkpt lat="42.61531" lon="23.16546">
        <ele>828.15813</ele>
        <time>2022-04-04T10:07:32.895Z</time>
      </trkpt>
      <trkpt lat="42.61526" lon="23.16532">
        <ele>827.44109</ele>
        <time>2022-04-04T10:07:34.886Z</time>
      </trkpt>
      <trkpt lat="42.6152" lon="23.16517">
        <ele>826.778503</ele>
        <time>2022-04-04T10:07:36.896Z</time>
      </trkpt>
      <trkpt lat="42.61514" lon="23.16502">
        <ele>826.355748</ele>
        <time>2022-04-04T10:07:38.885Z</time>
      </trkpt>
      <trkpt lat="42.61507" lon="23.16485">
        <ele>825.902403</ele>
        <time>2022-04-04T10:07:40.885Z</time>
      </trkpt>
      <trkpt lat="42.615" lon="23.16468">
        <ele>825.453792</ele>
        <time>2022-04-04T10:07:42.879Z</time>
      </trkpt>
      <trkpt lat="42.61493" lon="23.16451">
        <ele>824.987691</ele>
        <time>2022-04-04T10:07:44.885Z</time>
      </trkpt>
      <trkpt lat="42.61485" lon="23.16436">
        <ele>824.568374</ele>
        <time>2022-04-04T10:07:46.889Z</time>
      </trkpt>
      <trkpt lat="42.61478" lon="23.16422">
        <ele>824.137714</ele>
        <time>2022-04-04T10:07:48.933Z</time>
      </trkpt>
      <trkpt lat="42.6147" lon="23.16407">
        <ele>823.714618</ele>
        <time>2022-04-04T10:07:50.895Z</time>
      </trkpt>
      <trkpt lat="42.61463" lon="23.16391">
        <ele>823.284568</ele>
        <time>2022-04-04T10:07:52.879Z</time>
      </trkpt>
      <trkpt lat="42.61456" lon="23.16376">
        <ele>822.870026</ele>
        <time>2022-04-04T10:07:54.886Z</time>
      </trkpt>
      <trkpt lat="42.6145" lon="23.16362">
        <ele>822.480601</ele>
        <time>2022-04-04T10:07:56.890Z</time>
      </trkpt>
      <trkpt lat="42.61443" lon="23.16349">
        <ele>822.113726</ele>
        <time>2022-04-04T10:07:58.885Z</time>
      </trkpt>
      <trkpt lat="42.61438" lon="23.16337">
        <ele>821.777034</ele>
        <time>2022-04-04T10:08:00.871Z</time>
      </trkpt>
      <trkpt lat="42.61433" lon="23.16325">
        <ele>821.454694</ele>
        <time>2022-04-04T10:08:02.879Z</time>
      </trkpt>
      <trkpt lat="42.61428" lon="23.16315">
        <ele>821.15952</ele>
        <time>2022-04-04T10:08:04.882Z</time>
      </trkpt>
      <trkpt lat="42.61423" lon="23.16304">
        <ele>821.054026</ele>
        <time>2022-04-04T10:08:06.893Z</time>
      </trkpt>
      <trkpt lat="42.61418" lon="23.16292">
        <ele>820.952542</ele>
        <time>2022-04-04T10:08:09.886Z</time>
      </trkpt>
      <trkpt lat="42.61411" lon="23.16278">
        <ele>820.833405</ele>
        <time>2022-04-04T10:08:13.879Z</time>
      </trkpt>
      <trkpt lat="42.61405" lon="23.16265">
        <ele>820.725185</ele>
        <time>2022-04-04T10:08:16.887Z</time>
      </trkpt>
      <trkpt lat="42.61398" lon="23.16252">
        <ele>820.616832</ele>
        <time>2022-04-04T10:08:19.883Z</time>
      </trkpt>
      <trkpt lat="42.61393" lon="23.1624">
        <ele>820.522355</ele>
        <time>2022-04-04T10:08:22.891Z</time>
      </trkpt>
      <trkpt lat="42.61389" lon="23.16227">
        <ele>820.419932</ele>
        <time>2022-04-04T10:08:26.890Z</time>
      </trkpt>
      <trkpt lat="42.61384" lon="23.16215">
        <ele>820.326339</ele>
        <time>2022-04-04T10:08:30.892Z</time>
      </trkpt>
      <trkpt lat="42.6138" lon="23.16203">
        <ele>820.228748</ele>
        <time>2022-04-04T10:08:34.914Z</time>
      </trkpt>
      <trkpt lat="42.61376" lon="23.1619">
        <ele>820.128969</ele>
        <time>2022-04-04T10:08:38.916Z</time>
      </trkpt>
      <trkpt lat="42.61371" lon="23.16177">
        <ele>820.028803</ele>
        <time>2022-04-04T10:08:42.883Z</time>
      </trkpt>
      <trkpt lat="42.61368" lon="23.16164">
        <ele>819.930907</ele>
        <time>2022-04-04T10:08:46.934Z</time>
      </trkpt>
      <trkpt lat="42.61364" lon="23.16151">
        <ele>819.832612</ele>
        <time>2022-04-04T10:08:50.876Z</time>
      </trkpt>
      <trkpt lat="42.6136" lon="23.16139">
        <ele>819.740604</ele>
        <time>2022-04-04T10:08:54.907Z</time>
      </trkpt>
      <trkpt lat="42.61357" lon="23.16127">
        <ele>819.647924</ele>
        <time>2022-04-04T10:08:58.892Z</time>
      </trkpt>
      <trkpt lat="42.61352" lon="23.16114">
        <ele>819.547147</ele>
        <time>2022-04-04T10:09:02.870Z</time>
      </trkpt>
      <trkpt lat="42.61348" lon="23.16101">
        <ele>819.44919</ele>
        <time>2022-04-04T10:09:06.891Z</time>
      </trkpt>
      <trkpt lat="42.61344" lon="23.16089">
        <ele>819.445539</ele>
        <time>2022-04-04T10:09:10.876Z</time>
      </trkpt>
      <trkpt lat="42.61338" lon="23.16078">
        <ele>819.49264</ele>
        <time>2022-04-04T10:09:14.910Z</time>
      </trkpt>
      <trkpt lat="42.61333" lon="23.16067">
        <ele>819.542011</ele>
        <time>2022-04-04T10:09:18.889Z</time>
      </trkpt>
      <trkpt lat="42.61329" lon="23.16053">
        <ele>819.597439</ele>
        <time>2022-04-04T10:09:22.908Z</time>
      </trkpt>
      <trkpt lat="42.61324" lon="23.16039">
        <ele>819.655415</ele>
        <time>2022-04-04T10:09:26.875Z</time>
      </trkpt>
      <trkpt lat="42.61319" lon="23.16027">
        <ele>819.708247</ele>
        <time>2022-04-04T10:09:30.873Z</time>
      </trkpt>
      <trkpt lat="42.61314" lon="23.16013">
        <ele>819.764883</ele>
        <time>2022-04-04T10:09:35.867Z</time>
      </trkpt>
      <trkpt lat="42.6131" lon="23.16002">
        <ele>819.810744</ele>
        <time>2022-04-04T10:09:39.910Z</time>
      </trkpt>
      <trkpt lat="42.61305" lon="23.1599">
        <ele>819.861281</ele>
        <time>2022-04-04T10:09:44.925Z</time>
      </trkpt>
      <trkpt lat="42.61299" lon="23.15979">
        <ele>819.911977</ele>
        <time>2022-04-04T10:09:48.883Z</time>
      </trkpt>
      <trkpt lat="42.61292" lon="23.15969">
        <ele>819.964406</ele>
        <time>2022-04-04T10:09:53.909Z</time>
      </trkpt>
      <trkpt lat="42.61286" lon="23.15959">
        <ele>820.01275</ele>
        <time>2022-04-04T10:09:58.882Z</time>
      </trkpt>
      <trkpt lat="42.61282" lon="23.15948">
        <ele>820.058905</ele>
        <time>2022-04-04T10:10:02.899Z</time>
      </trkpt>
      <trkpt lat="42.61278" lon="23.15933">
        <ele>820.116785</ele>
        <time>2022-04-04T10:10:06.877Z</time>
      </trkpt>
      <trkpt lat="42.61273" lon="23.15921">
        <ele>820.168279</ele>
        <time>2022-04-04T10:10:10.901Z</time>
      </trkpt>
      <trkpt lat="42.61268" lon="23.15911">
        <ele>820.216281</ele>
        <time>2022-04-04T10:10:14.885Z</time>
      </trkpt>
      <trkpt lat="42.61261" lon="23.15899">
        <ele>820.270359</ele>
        <time>2022-04-04T10:10:18.886Z</time>
      </trkpt>
      <trkpt lat="42.61253" lon="23.15889">
        <ele>820.307911</ele>
        <time>2022-04-04T10:10:22.861Z</time>
      </trkpt>
      <trkpt lat="42.61246" lon="23.15882">
        <ele>820.048888</ele>
        <time>2022-04-04T10:10:26.884Z</time>
      </trkpt>
      <trkpt lat="42.61238" lon="23.15873">
        <ele>819.772351</ele>
        <time>2022-04-04T10:10:30.915Z</time>
      </trkpt>
      <trkpt lat="42.61231" lon="23.15863">
        <ele>819.486713</ele>
        <time>2022-04-04T10:10:34.953Z</time>
      </trkpt>
      <trkpt lat="42.61223" lon="23.15854">
        <ele>819.182135</ele>
        <time>2022-04-04T10:10:39.893Z</time>
      </trkpt>
      <trkpt lat="42.61216" lon="23.15844">
        <ele>818.889751</ele>
        <time>2022-04-04T10:10:43.887Z</time>
      </trkpt>
      <trkpt lat="42.61207" lon="23.15834">
        <ele>818.574776</ele>
        <time>2022-04-04T10:10:48.886Z</time>
      </trkpt>
      <trkpt lat="42.61198" lon="23.15826">
        <ele>818.265304</ele>
        <time>2022-04-04T10:10:53.889Z</time>
      </trkpt>
      <trkpt lat="42.61191" lon="23.15816">
        <ele>817.98788</ele>
        <time>2022-04-04T10:10:57.875Z</time>
      </trkpt>
      <trkpt lat="42.61184" lon="23.15805">
        <ele>817.672309</ele>
        <time>2022-04-04T10:11:01.875Z</time>
      </trkpt>
      <trkpt lat="42.61176" lon="23.15796">
        <ele>817.376178</ele>
        <time>2022-04-04T10:11:06.877Z</time>
      </trkpt>
      <trkpt lat="42.61168" lon="23.15788">
        <ele>817.090951</ele>
        <time>2022-04-04T10:11:11.882Z</time>
      </trkpt>
      <trkpt lat="42.61162" lon="23.15778">
        <ele>816.830397</ele>
        <time>2022-04-04T10:11:15.883Z</time>
      </trkpt>
      <trkpt lat="42.61155" lon="23.15768">
        <ele>816.542992</ele>
        <time>2022-04-04T10:11:19.888Z</time>
      </trkpt>
      <trkpt lat="42.61149" lon="23.15756">
        <ele>816.241985</ele>
        <time>2022-04-04T10:11:24.888Z</time>
      </trkpt>
      <trkpt lat="42.61141" lon="23.15747">
        <ele>815.946334</ele>
        <time>2022-04-04T10:11:29.909Z</time>
      </trkpt>
      <trkpt lat="42.61133" lon="23.15737">
        <ele>815.643144</ele>
        <time>2022-04-04T10:11:34.889Z</time>
      </trkpt>
      <trkpt lat="42.61128" lon="23.15727">
        <ele>815.386118</ele>
        <time>2022-04-04T10:11:38.893Z</time>
      </trkpt>
      <trkpt lat="42.6112" lon="23.15716">
        <ele>815.156605</ele>
        <time>2022-04-04T10:11:44.894Z</time>
      </trkpt>
      <trkpt lat="42.61114" lon="23.15707">
        <ele>815.028477</ele>
        <time>2022-04-04T10:11:48.876Z</time>
      </trkpt>
      <trkpt lat="42.6111" lon="23.15696">
        <ele>814.902475</ele>
        <time>2022-04-04T10:11:52.878Z</time>
      </trkpt>
      <trkpt lat="42.61104" lon="23.15685">
        <ele>814.767126</ele>
        <time>2022-04-04T10:11:57.869Z</time>
      </trkpt>
      <trkpt lat="42.611" lon="23.15672">
        <ele>814.626071</ele>
        <time>2022-04-04T10:12:01.892Z</time>
      </trkpt>
      <trkpt lat="42.61094" lon="23.1566">
        <ele>814.478189</ele>
        <time>2022-04-04T10:12:06.883Z</time>
      </trkpt>
      <trkpt lat="42.61089" lon="23.15649">
        <ele>814.345172</ele>
        <time>2022-04-04T10:12:10.885Z</time>
      </trkpt>
      <trkpt lat="42.61083" lon="23.15639">
        <ele>814.207919</ele>
        <time>2022-04-04T10:12:14.930Z</time>
      </trkpt>
      <trkpt lat="42.61077" lon="23.15628">
        <ele>814.067646</ele>
        <time>2022-04-04T10:12:18.880Z</time>
      </trkpt>
      <trkpt lat="42.61073" lon="23.15617">
        <ele>813.941957</ele>
        <time>2022-04-04T10:12:21.915Z</time>
      </trkpt>
      <trkpt lat="42.61067" lon="23.15603">
        <ele>813.781216</ele>
        <time>2022-04-04T10:12:25.885Z</time>
      </trkpt>
      <trkpt lat="42.61061" lon="23.15593">
        <ele>813.645898</ele>
        <time>2022-04-04T10:12:29.884Z</time>
      </trkpt>
      <trkpt lat="42.61054" lon="23.1558">
        <ele>813.490042</ele>
        <time>2022-04-04T10:12:33.913Z</time>
      </trkpt>
      <trkpt lat="42.61048" lon="23.15567">
        <ele>813.334909</ele>
        <time>2022-04-04T10:12:37.889Z</time>
      </trkpt>
      <trkpt lat="42.61044" lon="23.15556">
        <ele>813.19919</ele>
        <time>2022-04-04T10:12:41.888Z</time>
      </trkpt>
      <trkpt lat="42.61039" lon="23.15541">
        <ele>813.039828</ele>
        <time>2022-04-04T10:12:45.893Z</time>
      </trkpt>
      <trkpt lat="42.61033" lon="23.1553">
        <ele>812.898759</ele>
        <time>2022-04-04T10:12:49.902Z</time>
      </trkpt>
      <trkpt lat="42.61028" lon="23.15518">
        <ele>812.761692</ele>
        <time>2022-04-04T10:12:53.891Z</time>
      </trkpt>
      <trkpt lat="42.61023" lon="23.15507">
        <ele>812.574277</ele>
        <time>2022-04-04T10:12:57.888Z</time>
      </trkpt>
      <trkpt lat="42.61019" lon="23.15496">
        <ele>812.380345</ele>
        <time>2022-04-04T10:13:02.922Z</time>
      </trkpt>
      <trkpt lat="42.61014" lon="23.15485">
        <ele>812.182254</ele>
        <time>2022-04-04T10:13:06.920Z</time>
      </trkpt>
      <trkpt lat="42.6101" lon="23.15473">
        <ele>811.981885</ele>
        <time>2022-04-04T10:13:09.885Z</time>
      </trkpt>
      <trkpt lat="42.61006" lon="23.15461">
        <ele>811.776414</ele>
        <time>2022-04-04T10:13:12.899Z</time>
      </trkpt>
      <trkpt lat="42.61002" lon="23.15448">
        <ele>811.547952</ele>
        <time>2022-04-04T10:13:16.888Z</time>
      </trkpt>
      <trkpt lat="42.60997" lon="23.15435">
        <ele>811.32348</ele>
        <time>2022-04-04T10:13:20.876Z</time>
      </trkpt>
      <trkpt lat="42.60993" lon="23.15423">
        <ele>811.129064</ele>
        <time>2022-04-04T10:13:23.917Z</time>
      </trkpt>
      <trkpt lat="42.60989" lon="23.15411">
        <ele>810.920181</ele>
        <time>2022-04-04T10:13:27.890Z</time>
      </trkpt>
      <trkpt lat="42.60986" lon="23.15396">
        <ele>810.680895</ele>
        <time>2022-04-04T10:13:31.892Z</time>
      </trkpt>
      <trkpt lat="42.60983" lon="23.15384">
        <ele>810.488974</ele>
        <time>2022-04-04T10:13:34.890Z</time>
      </trkpt>
      <trkpt lat="42.6098" lon="23.15372">
        <ele>810.289087</ele>
        <time>2022-04-04T10:13:37.891Z</time>
      </trkpt>
      <trkpt lat="42.60976" lon="23.15358">
        <ele>810.049149</ele>
        <time>2022-04-04T10:13:41.917Z</time>
      </trkpt>
      <trkpt lat="42.60973" lon="23.15344">
        <ele>809.825647</ele>
        <time>2022-04-04T10:13:45.889Z</time>
      </trkpt>
      <trkpt lat="42.60969" lon="23.1533">
        <ele>809.592864</ele>
        <time>2022-04-04T10:13:49.925Z</time>
      </trkpt>
      <trkpt lat="42.60966" lon="23.15318">
        <ele>809.394428</ele>
        <time>2022-04-04T10:13:53.872Z</time>
      </trkpt>
      <trkpt lat="42.60961" lon="23.15307">
        <ele>809.190188</ele>
        <time>2022-04-04T10:13:57.889Z</time>
      </trkpt>
      <trkpt lat="42.60956" lon="23.15294">
        <ele>808.957912</ele>
        <time>2022-04-04T10:14:02.890Z</time>
      </trkpt>
      <trkpt lat="42.60954" lon="23.1528">
        <ele>809.265801</ele>
        <time>2022-04-04T10:14:07.899Z</time>
      </trkpt>
      <trkpt lat="42.60951" lon="23.15266">
        <ele>809.596349</ele>
        <time>2022-04-04T10:14:11.883Z</time>
      </trkpt>
      <trkpt lat="42.60947" lon="23.15253">
        <ele>809.920616</ele>
        <time>2022-04-04T10:14:16.907Z</time>
      </trkpt>
      <trkpt lat="42.60945" lon="23.15241">
        <ele>810.202544</ele>
        <time>2022-04-04T10:14:20.887Z</time>
      </trkpt>
      <trkpt lat="42.60942" lon="23.15229">
        <ele>810.489056</ele>
        <time>2022-04-04T10:14:24.890Z</time>
      </trkpt>
      <trkpt lat="42.6094" lon="23.15214">
        <ele>810.819792</ele>
        <time>2022-04-04T10:14:29.898Z</time>
      </trkpt>
      <trkpt lat="42.60937" lon="23.15201">
        <ele>811.145077</ele>
        <time>2022-04-04T10:14:34.895Z</time>
      </trkpt>
      <trkpt lat="42.60934" lon="23.15187">
        <ele>811.464829</ele>
        <time>2022-04-04T10:14:39.875Z</time>
      </trkpt>
      <trkpt lat="42.60933" lon="23.15174">
        <ele>811.769943</ele>
        <time>2022-04-04T10:14:45.878Z</time>
      </trkpt>
      <trkpt lat="42.60931" lon="23.15159">
        <ele>812.107948</ele>
        <time>2022-04-04T10:14:51.884Z</time>
      </trkpt>
      <trkpt lat="42.60929" lon="23.15145">
        <ele>812.438142</ele>
        <time>2022-04-04T10:14:56.909Z</time>
      </trkpt>
      <trkpt lat="42.60925" lon="23.15134">
        <ele>812.725141</ele>
        <time>2022-04-04T10:15:01.891Z</time>
      </trkpt>
      <trkpt lat="42.60923" lon="23.1512">
        <ele>813.033017</ele>
        <time>2022-04-04T10:15:05.880Z</time>
      </trkpt>
      <trkpt lat="42.60921" lon="23.15108">
        <ele>813.334382</ele>
        <time>2022-04-04T10:15:09.878Z</time>
      </trkpt>
      <trkpt lat="42.60917" lon="23.15094">
        <ele>813.665176</ele>
        <time>2022-04-04T10:15:14.887Z</time>
      </trkpt>
      <trkpt lat="42.60915" lon="23.15079">
        <ele>814.015003</ele>
        <time>2022-04-04T10:15:19.879Z</time>
      </trkpt>
      <trkpt lat="42.60911" lon="23.15066">
        <ele>814.32851</ele>
        <time>2022-04-04T10:15:24.882Z</time>
      </trkpt>
      <trkpt lat="42.60907" lon="23.15052">
        <ele>814.412326</ele>
        <time>2022-04-04T10:15:29.927Z</time>
      </trkpt>
      <trkpt lat="42.60905" lon="23.15039">
        <ele>814.167029</ele>
        <time>2022-04-04T10:15:33.879Z</time>
      </trkpt>
      <trkpt lat="42.60901" lon="23.15025">
        <ele>813.912348</ele>
        <time>2022-04-04T10:15:38.888Z</time>
      </trkpt>
      <trkpt lat="42.60897" lon="23.15014">
        <ele>813.679787</ele>
        <time>2022-04-04T10:15:42.887Z</time>
      </trkpt>
      <trkpt lat="42.60892" lon="23.15001">
        <ele>813.426956</ele>
        <time>2022-04-04T10:15:46.907Z</time>
      </trkpt>
      <trkpt lat="42.60886" lon="23.14987">
        <ele>813.149774</ele>
        <time>2022-04-04T10:15:50.877Z</time>
      </trkpt>
      <trkpt lat="42.60881" lon="23.14975">
        <ele>812.902295</ele>
        <time>2022-04-04T10:15:53.880Z</time>
      </trkpt>
      <trkpt lat="42.60875" lon="23.14963">
        <ele>812.647406</ele>
        <time>2022-04-04T10:15:56.898Z</time>
      </trkpt>
      <trkpt lat="42.6087" lon="23.14951">
        <ele>812.407315</ele>
        <time>2022-04-04T10:15:59.905Z</time>
      </trkpt>
      <trkpt lat="42.60864" lon="23.14939">
        <ele>812.143884</ele>
        <time>2022-04-04T10:16:02.887Z</time>
      </trkpt>
      <trkpt lat="42.60857" lon="23.14924">
        <ele>811.840678</ele>
        <time>2022-04-04T10:16:05.920Z</time>
      </trkpt>
      <trkpt lat="42.60851" lon="23.14908">
        <ele>811.525662</ele>
        <time>2022-04-04T10:16:08.887Z</time>
      </trkpt>
      <trkpt lat="42.60847" lon="23.14897">
        <ele>811.299127</ele>
        <time>2022-04-04T10:16:10.896Z</time>
      </trkpt>
      <trkpt lat="42.60841" lon="23.14886">
        <ele>811.066729</ele>
        <time>2022-04-04T10:16:12.877Z</time>
      </trkpt>
      <trkpt lat="42.60837" lon="23.14876">
        <ele>810.849669</ele>
        <time>2022-04-04T10:16:14.943Z</time>
      </trkpt>
      <trkpt lat="42.60829" lon="23.14863">
        <ele>810.562075</ele>
        <time>2022-04-04T10:16:17.897Z</time>
      </trkpt>
      <trkpt lat="42.60821" lon="23.1485">
        <ele>810.256985</ele>
        <time>2022-04-04T10:16:20.880Z</time>
      </trkpt>
      <trkpt lat="42.60813" lon="23.14837">
        <ele>809.503923</ele>
        <time>2022-04-04T10:16:23.890Z</time>
      </trkpt>
      <trkpt lat="42.60808" lon="23.14826">
        <ele>808.842842</ele>
        <time>2022-04-04T10:16:25.932Z</time>
      </trkpt>
      <trkpt lat="42.608" lon="23.14812">
        <ele>807.887388</ele>
        <time>2022-04-04T10:16:28.876Z</time>
      </trkpt>
      <trkpt lat="42.60794" lon="23.148">
        <ele>807.199856</ele>
        <time>2022-04-04T10:16:30.894Z</time>
      </trkpt>
      <trkpt lat="42.60788" lon="23.14784">
        <ele>806.243976</ele>
        <time>2022-04-04T10:16:33.909Z</time>
      </trkpt>
      <trkpt lat="42.60784" lon="23.14771">
        <ele>805.53463</ele>
        <time>2022-04-04T10:16:35.927Z</time>
      </trkpt>
      <trkpt lat="42.6078" lon="23.14758">
        <ele>804.784672</ele>
        <time>2022-04-04T10:16:37.895Z</time>
      </trkpt>
      <trkpt lat="42.60775" lon="23.14747">
        <ele>804.108382</ele>
        <time>2022-04-04T10:16:39.886Z</time>
      </trkpt>
      <trkpt lat="42.60769" lon="23.14735">
        <ele>803.387894</ele>
        <time>2022-04-04T10:16:41.907Z</time>
      </trkpt>
      <trkpt lat="42.60763" lon="23.14722">
        <ele>802.598473</ele>
        <time>2022-04-04T10:16:43.868Z</time>
      </trkpt>
      <trkpt lat="42.60756" lon="23.14708">
        <ele>801.757676</ele>
        <time>2022-04-04T10:16:45.894Z</time>
      </trkpt>
      <trkpt lat="42.60749" lon="23.14693">
        <ele>800.829478</ele>
        <time>2022-04-04T10:16:47.886Z</time>
      </trkpt>
      <trkpt lat="42.60742" lon="23.14678">
        <ele>799.885518</ele>
        <time>2022-04-04T10:16:49.881Z</time>
      </trkpt>
      <trkpt lat="42.60733" lon="23.14664">
        <ele>798.965412</ele>
        <time>2022-04-04T10:16:51.886Z</time>
      </trkpt>
      <trkpt lat="42.60724" lon="23.14652">
        <ele>798.075995</ele>
        <time>2022-04-04T10:16:53.910Z</time>
      </trkpt>
      <trkpt lat="42.60716" lon="23.14639">
        <ele>797.61134</ele>
        <time>2022-04-04T10:16:55.874Z</time>
      </trkpt>
      <trkpt lat="42.60708" lon="23.14626">
        <ele>797.518632</ele>
        <time>2022-04-04T10:16:57.879Z</time>
      </trkpt>
      <trkpt lat="42.607" lon="23.14613">
        <ele>797.429016</ele>
        <time>2022-04-04T10:16:59.889Z</time>
      </trkpt>
      <trkpt lat="42.60693" lon="23.146">
        <ele>797.342108</ele>
        <time>2022-04-04T10:17:01.888Z</time>
      </trkpt>
      <trkpt lat="42.60687" lon="23.14589">
        <ele>797.263109</ele>
        <time>2022-04-04T10:17:03.880Z</time>
      </trkpt>
      <trkpt lat="42.60681" lon="23.14578">
        <ele>797.191574</ele>
        <time>2022-04-04T10:17:05.893Z</time>
      </trkpt>
      <trkpt lat="42.60674" lon="23.14565">
        <ele>797.102904</ele>
        <time>2022-04-04T10:17:08.898Z</time>
      </trkpt>
      <trkpt lat="42.60668" lon="23.14555">
        <ele>797.031917</ele>
        <time>2022-04-04T10:17:11.886Z</time>
      </trkpt>
      <trkpt lat="42.6066" lon="23.14546">
        <ele>796.953611</ele>
        <time>2022-04-04T10:17:15.920Z</time>
      </trkpt>
      <trkpt lat="42.60653" lon="23.14536">
        <ele>796.882424</ele>
        <time>2022-04-04T10:17:19.926Z</time>
      </trkpt>
      <trkpt lat="42.60647" lon="23.14526">
        <ele>796.811271</ele>
        <time>2022-04-04T10:17:23.899Z</time>
      </trkpt>
      <trkpt lat="42.60642" lon="23.14517">
        <ele>796.743591</ele>
        <time>2022-04-04T10:17:27.884Z</time>
      </trkpt>
      <trkpt lat="42.60635" lon="23.14506">
        <ele>796.66607</ele>
        <time>2022-04-04T10:17:32.865Z</time>
      </trkpt>
      <trkpt lat="42.60629" lon="23.14496">
        <ele>796.598857</ele>
        <time>2022-04-04T10:17:36.896Z</time>
      </trkpt>
      <trkpt lat="42.60623" lon="23.14486">
        <ele>796.525403</ele>
        <time>2022-04-04T10:17:40.893Z</time>
      </trkpt>
      <trkpt lat="42.60617" lon="23.14475">
        <ele>796.451219</ele>
        <time>2022-04-04T10:17:45.896Z</time>
      </trkpt>
      <trkpt lat="42.60609" lon="23.14465">
        <ele>796.373921</ele>
        <time>2022-04-04T10:17:51.902Z</time>
      </trkpt>
      <trkpt lat="42.60603" lon="23.14456">
        <ele>796.451821</ele>
        <time>2022-04-04T10:17:56.881Z</time>
      </trkpt>
      <trkpt lat="42.60596" lon="23.14446">
        <ele>796.849129</ele>
        <time>2022-04-04T10:18:01.884Z</time>
      </trkpt>
      <trkpt lat="42.60589" lon="23.14434">
        <ele>797.286387</ele>
        <time>2022-04-04T10:18:06.888Z</time>
      </trkpt>
      <trkpt lat="42.60583" lon="23.14423">
        <ele>797.690566</ele>
        <time>2022-04-04T10:18:11.890Z</time>
      </trkpt>
      <trkpt lat="42.60576" lon="23.14413">
        <ele>798.085821</ele>
        <time>2022-04-04T10:18:16.878Z</time>
      </trkpt>
      <trkpt lat="42.6057" lon="23.14402">
        <ele>798.52308</ele>
        <time>2022-04-04T10:18:21.888Z</time>
      </trkpt>
      <trkpt lat="42.60562" lon="23.14392">
        <ele>798.925953</ele>
        <time>2022-04-04T10:18:26.910Z</time>
      </trkpt>
      <trkpt lat="42.60555" lon="23.1438">
        <ele>799.375003</ele>
        <time>2022-04-04T10:18:31.888Z</time>
      </trkpt>
      <trkpt lat="42.60549" lon="23.14369">
        <ele>799.793423</ele>
        <time>2022-04-04T10:18:35.884Z</time>
      </trkpt>
      <trkpt lat="42.60542" lon="23.14356">
        <ele>800.240114</ele>
        <time>2022-04-04T10:18:39.902Z</time>
      </trkpt>
      <trkpt lat="42.60538" lon="23.14345">
        <ele>800.637704</ele>
        <time>2022-04-04T10:18:42.878Z</time>
      </trkpt>
      <trkpt lat="42.60533" lon="23.14332">
        <ele>801.05663</ele>
        <time>2022-04-04T10:18:45.891Z</time>
      </trkpt>
      <trkpt lat="42.60529" lon="23.14317">
        <ele>801.520834</ele>
        <time>2022-04-04T10:18:48.889Z</time>
      </trkpt>
      <trkpt lat="42.60524" lon="23.14303">
        <ele>801.962172</ele>
        <time>2022-04-04T10:18:51.893Z</time>
      </trkpt>
      <trkpt lat="42.60521" lon="23.1429">
        <ele>802.360401</ele>
        <time>2022-04-04T10:18:54.873Z</time>
      </trkpt>
      <trkpt lat="42.60519" lon="23.14277">
        <ele>802.763229</ele>
        <time>2022-04-04T10:18:57.880Z</time>
      </trkpt>
      <trkpt lat="42.60516" lon="23.14262">
        <ele>803.214562</ele>
        <time>2022-04-04T10:19:00.934Z</time>
      </trkpt>
      <trkpt lat="42.60513" lon="23.14244">
        <ele>803.525598</ele>
        <time>2022-04-04T10:19:03.882Z</time>
      </trkpt>
      <trkpt lat="42.6051" lon="23.14231">
        <ele>803.568835</ele>
        <time>2022-04-04T10:19:05.883Z</time>
      </trkpt>
      <trkpt lat="42.60507" lon="23.14218">
        <ele>803.610683</ele>
        <time>2022-04-04T10:19:07.898Z</time>
      </trkpt>
      <trkpt lat="42.60505" lon="23.14206">
        <ele>803.650477</ele>
        <time>2022-04-04T10:19:09.903Z</time>
      </trkpt>
      <trkpt lat="42.60502" lon="23.14189">
        <ele>803.705473</ele>
        <time>2022-04-04T10:19:12.927Z</time>
      </trkpt>
      <trkpt lat="42.60501" lon="23.14174">
        <ele>803.75455</ele>
        <time>2022-04-04T10:19:15.887Z</time>
      </trkpt>
      <trkpt lat="42.60499" lon="23.14157">
        <ele>803.806701</ele>
        <time>2022-04-04T10:19:18.928Z</time>
      </trkpt>
      <trkpt lat="42.60497" lon="23.14145">
        <ele>803.8464</ele>
        <time>2022-04-04T10:19:20.903Z</time>
      </trkpt>
      <trkpt lat="42.60495" lon="23.1413">
        <ele>803.893856</ele>
        <time>2022-04-04T10:19:23.902Z</time>
      </trkpt>
      <trkpt lat="42.60493" lon="23.14118">
        <ele>803.932939</ele>
        <time>2022-04-04T10:19:26.907Z</time>
      </trkpt>
      <trkpt lat="42.60491" lon="23.14104">
        <ele>803.977935</ele>
        <time>2022-04-04T10:19:29.916Z</time>
      </trkpt>
      <trkpt lat="42.60488" lon="23.1409">
        <ele>804.025485</ele>
        <time>2022-04-04T10:19:32.985Z</time>
      </trkpt>
      <trkpt lat="42.60483" lon="23.14074">
        <ele>804.079466</ele>
        <time>2022-04-04T10:19:35.890Z</time>
      </trkpt>
      <trkpt lat="42.60481" lon="23.1406">
        <ele>804.122116</ele>
        <time>2022-04-04T10:19:37.891Z</time>
      </trkpt>
      <trkpt lat="42.60479" lon="23.14049">
        <ele>804.160785</ele>
        <time>2022-04-04T10:19:39.880Z</time>
      </trkpt>
      <trkpt lat="42.60476" lon="23.14035">
        <ele>804.203229</ele>
        <time>2022-04-04T10:19:41.873Z</time>
      </trkpt>
      <trkpt lat="42.60474" lon="23.14022">
        <ele>804.247514</ele>
        <time>2022-04-04T10:19:43.894Z</time>
      </trkpt>
      <trkpt lat="42.60471" lon="23.14008">
        <ele>803.85711</ele>
        <time>2022-04-04T10:19:45.876Z</time>
      </trkpt>
      <trkpt lat="42.60469" lon="23.13993">
        <ele>803.019789</ele>
        <time>2022-04-04T10:19:47.886Z</time>
      </trkpt>
      <trkpt lat="42.60466" lon="23.13978">
        <ele>802.161072</ele>
        <time>2022-04-04T10:19:49.879Z</time>
      </trkpt>
      <trkpt lat="42.60464" lon="23.13964">
        <ele>801.376088</ele>
        <time>2022-04-04T10:19:51.890Z</time>
      </trkpt>
      <trkpt lat="42.60458" lon="23.13953">
        <ele>800.640923</ele>
        <time>2022-04-04T10:19:53.886Z</time>
      </trkpt>
      <trkpt lat="42.60448" lon="23.13957">
        <ele>799.827907</ele>
        <time>2022-04-04T10:19:56.869Z</time>
      </trkpt>
      <trkpt lat="42.6044" lon="23.13969">
        <ele>798.976408</ele>
        <time>2022-04-04T10:19:59.891Z</time>
      </trkpt>
      <trkpt lat="42.60433" lon="23.1398">
        <ele>798.197304</ele>
        <time>2022-04-04T10:20:02.881Z</time>
      </trkpt>
      <trkpt lat="42.60427" lon="23.13991">
        <ele>797.397261</ele>
        <time>2022-04-04T10:20:05.873Z</time>
      </trkpt>
      <trkpt lat="42.60421" lon="23.14003">
        <ele>796.59614</ele>
        <time>2022-04-04T10:20:08.892Z</time>
      </trkpt>
      <trkpt lat="42.60416" lon="23.14015">
        <ele>795.857897</ele>
        <time>2022-04-04T10:20:11.904Z</time>
      </trkpt>
      <trkpt lat="42.6041" lon="23.14028">
        <ele>795.04815</ele>
        <time>2022-04-04T10:20:14.922Z</time>
      </trkpt>
      <trkpt lat="42.60403" lon="23.1404">
        <ele>794.213091</ele>
        <time>2022-04-04T10:20:17.905Z</time>
      </trkpt>
      <trkpt lat="42.60395" lon="23.14053">
        <ele>793.262191</ele>
        <time>2022-04-04T10:20:20.934Z</time>
      </trkpt>
      <trkpt lat="42.60388" lon="23.14066">
        <ele>792.404225</ele>
        <time>2022-04-04T10:20:23.904Z</time>
      </trkpt>
      <trkpt lat="42.60383" lon="23.14079">
        <ele>791.607124</ele>
        <time>2022-04-04T10:20:26.908Z</time>
      </trkpt>
      <trkpt lat="42.60377" lon="23.14092">
        <ele>790.894614</ele>
        <time>2022-04-04T10:20:29.873Z</time>
      </trkpt>
      <trkpt lat="42.6037" lon="23.14104">
        <ele>790.69251</ele>
        <time>2022-04-04T10:20:32.909Z</time>
      </trkpt>
      <trkpt lat="42.60363" lon="23.14117">
        <ele>790.474008</ele>
        <time>2022-04-04T10:20:35.887Z</time>
      </trkpt>
      <trkpt lat="42.60356" lon="23.1413">
        <ele>790.253068</ele>
        <time>2022-04-04T10:20:38.878Z</time>
      </trkpt>
      <trkpt lat="42.60349" lon="23.1414">
        <ele>790.075236</ele>
        <time>2022-04-04T10:20:42.893Z</time>
      </trkpt>
      <trkpt lat="42.60343" lon="23.14152">
        <ele>789.869794</ele>
        <time>2022-04-04T10:20:47.870Z</time>
      </trkpt>
      <trkpt lat="42.60336" lon="23.14165">
        <ele>789.667652</ele>
        <time>2022-04-04T10:20:51.884Z</time>
      </trkpt>
      <trkpt lat="42.60329" lon="23.14178">
        <ele>789.44825</ele>
        <time>2022-04-04T10:20:55.887Z</time>
      </trkpt>
      <trkpt lat="42.60323" lon="23.14189">
        <ele>789.26884</ele>
        <time>2022-04-04T10:20:58.900Z</time>
      </trkpt>
      <trkpt lat="42.60318" lon="23.14199">
        <ele>789.096643</ele>
        <time>2022-04-04T10:21:01.885Z</time>
      </trkpt>
      <trkpt lat="42.60314" lon="23.14211">
        <ele>788.925932</ele>
        <time>2022-04-04T10:21:04.893Z</time>
      </trkpt>
      <trkpt lat="42.60309" lon="23.14222">
        <ele>788.748051</ele>
        <time>2022-04-04T10:21:07.884Z</time>
      </trkpt>
      <trkpt lat="42.60303" lon="23.14235">
        <ele>788.545375</ele>
        <time>2022-04-04T10:21:10.884Z</time>
      </trkpt>
      <trkpt lat="42.60296" lon="23.14249">
        <ele>788.318324</ele>
        <time>2022-04-04T10:21:13.887Z</time>
      </trkpt>
      <trkpt lat="42.6029" lon="23.14263">
        <ele>788.093519</ele>
        <time>2022-04-04T10:21:16.923Z</time>
      </trkpt>
      <trkpt lat="42.60284" lon="23.14277">
        <ele>787.884098</ele>
        <time>2022-04-04T10:21:19.892Z</time>
      </trkpt>
      <trkpt lat="42.60279" lon="23.14291">
        <ele>787.669645</ele>
        <time>2022-04-04T10:21:22.869Z</time>
      </trkpt>
      <trkpt lat="42.60275" lon="23.14302">
        <ele>787.548424</ele>
        <time>2022-04-04T10:21:24.883Z</time>
      </trkpt>
      <trkpt lat="42.60269" lon="23.14318">
        <ele>787.379787</ele>
        <time>2022-04-04T10:21:27.887Z</time>
      </trkpt>
      <trkpt lat="42.60263" lon="23.14331">
        <ele>787.232165</ele>
        <time>2022-04-04T10:21:30.886Z</time>
      </trkpt>
      <trkpt lat="42.60258" lon="23.14343">
        <ele>787.101788</ele>
        <time>2022-04-04T10:21:33.907Z</time>
      </trkpt>
      <trkpt lat="42.60252" lon="23.14354">
        <ele>786.970887</ele>
        <time>2022-04-04T10:21:36.886Z</time>
      </trkpt>
      <trkpt lat="42.60245" lon="23.14364">
        <ele>786.837533</ele>
        <time>2022-04-04T10:21:39.886Z</time>
      </trkpt>
      <trkpt lat="42.60238" lon="23.14373">
        <ele>786.71118</ele>
        <time>2022-04-04T10:21:42.892Z</time>
      </trkpt>
      <trkpt lat="42.60228" lon="23.1438">
        <ele>786.573297</ele>
        <time>2022-04-04T10:21:45.880Z</time>
      </trkpt>
      <trkpt lat="42.60217" lon="23.14384">
        <ele>786.425398</ele>
        <time>2022-04-04T10:21:48.894Z</time>
      </trkpt>
      <trkpt lat="42.60209" lon="23.14375">
        <ele>786.291711</ele>
        <time>2022-04-04T10:21:51.890Z</time>
      </trkpt>
      <trkpt lat="42.60208" lon="23.14358">
        <ele>786.129484</ele>
        <time>2022-04-04T10:21:54.899Z</time>
      </trkpt>
      <trkpt lat="42.60207" lon="23.1434">
        <ele>785.96198</ele>
        <time>2022-04-04T10:21:57.891Z</time>
      </trkpt>
      <trkpt lat="42.60206" lon="23.14327">
        <ele>785.837818</ele>
        <time>2022-04-04T10:21:59.882Z</time>
      </trkpt>
      <trkpt lat="42.60205" lon="23.14315">
        <ele>785.71662</ele>
        <time>2022-04-04T10:22:01.891Z</time>
      </trkpt>
      <trkpt lat="42.60204" lon="23.14301">
        <ele>785.590992</ele>
        <time>2022-04-04T10:22:03.882Z</time>
      </trkpt>
      <trkpt lat="42.60203" lon="23.14288">
        <ele>785.464486</ele>
        <time>2022-04-04T10:22:05.883Z</time>
      </trkpt>
      <trkpt lat="42.60203" lon="23.14274">
        <ele>785.337779</ele>
        <time>2022-04-04T10:22:07.883Z</time>
      </trkpt>
      <trkpt lat="42.60202" lon="23.14261">
        <ele>785.580332</ele>
        <time>2022-04-04T10:22:09.883Z</time>
      </trkpt>
      <trkpt lat="42.60201" lon="23.14249">
        <ele>785.81245</ele>
        <time>2022-04-04T10:22:11.879Z</time>
      </trkpt>
      <trkpt lat="42.602" lon="23.1423">
        <ele>786.156248</ele>
        <time>2022-04-04T10:22:14.879Z</time>
      </trkpt>
      <trkpt lat="42.60199" lon="23.14215">
        <ele>786.432304</ele>
        <time>2022-04-04T10:22:16.886Z</time>
      </trkpt>
      <trkpt lat="42.60199" lon="23.142">
        <ele>786.708509</ele>
        <time>2022-04-04T10:22:18.866Z</time>
      </trkpt>
      <trkpt lat="42.60198" lon="23.14186">
        <ele>786.972175</ele>
        <time>2022-04-04T10:22:20.875Z</time>
      </trkpt>
      <trkpt lat="42.60197" lon="23.14172">
        <ele>787.232155</ele>
        <time>2022-04-04T10:22:22.894Z</time>
      </trkpt>
      <trkpt lat="42.60196" lon="23.14158">
        <ele>787.501351</ele>
        <time>2022-04-04T10:22:24.906Z</time>
      </trkpt>
      <trkpt lat="42.60195" lon="23.14143">
        <ele>787.767086</ele>
        <time>2022-04-04T10:22:26.890Z</time>
      </trkpt>
      <trkpt lat="42.60194" lon="23.1413">
        <ele>788.022319</ele>
        <time>2022-04-04T10:22:28.915Z</time>
      </trkpt>
      <trkpt lat="42.60192" lon="23.14115">
        <ele>788.294696</ele>
        <time>2022-04-04T10:22:30.884Z</time>
      </trkpt>
      <trkpt lat="42.60192" lon="23.141">
        <ele>788.571266</ele>
        <time>2022-04-04T10:22:32.881Z</time>
      </trkpt>
      <trkpt lat="42.6019" lon="23.14086">
        <ele>788.843039</ele>
        <time>2022-04-04T10:22:34.930Z</time>
      </trkpt>
      <trkpt lat="42.60189" lon="23.14071">
        <ele>789.110617</ele>
        <time>2022-04-04T10:22:36.882Z</time>
      </trkpt>
      <trkpt lat="42.60188" lon="23.14057">
        <ele>789.372922</ele>
        <time>2022-04-04T10:22:38.897Z</time>
      </trkpt>
      <trkpt lat="42.60188" lon="23.14043">
        <ele>789.641743</ele>
        <time>2022-04-04T10:22:40.886Z</time>
      </trkpt>
      <trkpt lat="42.60187" lon="23.14028">
        <ele>789.807295</ele>
        <time>2022-04-04T10:22:42.890Z</time>
      </trkpt>
      <trkpt lat="42.60186" lon="23.14015">
        <ele>789.589788</ele>
        <time>2022-04-04T10:22:44.884Z</time>
      </trkpt>
      <trkpt lat="42.60185" lon="23.14001">
        <ele>789.359964</ele>
        <time>2022-04-04T10:22:46.870Z</time>
      </trkpt>
      <trkpt lat="42.60184" lon="23.13987">
        <ele>789.128942</ele>
        <time>2022-04-04T10:22:48.889Z</time>
      </trkpt>
      <trkpt lat="42.60183" lon="23.13972">
        <ele>788.89159</ele>
        <time>2022-04-04T10:22:50.881Z</time>
      </trkpt>
      <trkpt lat="42.60183" lon="23.13958">
        <ele>788.651474</ele>
        <time>2022-04-04T10:22:52.898Z</time>
      </trkpt>
      <trkpt lat="42.60182" lon="23.13943">
        <ele>788.406133</ele>
        <time>2022-04-04T10:22:54.882Z</time>
      </trkpt>
      <trkpt lat="42.60181" lon="23.13928">
        <ele>788.158845</ele>
        <time>2022-04-04T10:22:56.917Z</time>
      </trkpt>
      <trkpt lat="42.60181" lon="23.13913">
        <ele>787.918728</ele>
        <time>2022-04-04T10:22:58.895Z</time>
      </trkpt>
      <trkpt lat="42.6018" lon="23.13898">
        <ele>787.67632</ele>
        <time>2022-04-04T10:23:00.886Z</time>
      </trkpt>
      <trkpt lat="42.60179" lon="23.13883">
        <ele>787.422523</ele>
        <time>2022-04-04T10:23:02.933Z</time>
      </trkpt>
      <trkpt lat="42.60178" lon="23.13868">
        <ele>787.187829</ele>
        <time>2022-04-04T10:23:04.890Z</time>
      </trkpt>
      <trkpt lat="42.60177" lon="23.13854">
        <ele>786.955519</ele>
        <time>2022-04-04T10:23:06.884Z</time>
      </trkpt>
      <trkpt lat="42.60176" lon="23.1384">
        <ele>786.730793</ele>
        <time>2022-04-04T10:23:08.898Z</time>
      </trkpt>
      <trkpt lat="42.60175" lon="23.13825">
        <ele>786.474983</ele>
        <time>2022-04-04T10:23:10.914Z</time>
      </trkpt>
      <trkpt lat="42.60174" lon="23.13809">
        <ele>786.219559</ele>
        <time>2022-04-04T10:23:12.891Z</time>
      </trkpt>
      <trkpt lat="42.60173" lon="23.13794">
        <ele>785.976512</ele>
        <time>2022-04-04T10:23:14.878Z</time>
      </trkpt>
      <trkpt lat="42.60172" lon="23.13779">
        <ele>785.912233</ele>
        <time>2022-04-04T10:23:16.915Z</time>
      </trkpt>
      <trkpt lat="42.60171" lon="23.13763">
        <ele>785.997485</ele>
        <time>2022-04-04T10:23:18.876Z</time>
      </trkpt>
      <trkpt lat="42.60171" lon="23.13748">
        <ele>786.076401</ele>
        <time>2022-04-04T10:23:20.875Z</time>
      </trkpt>
      <trkpt lat="42.60171" lon="23.13733">
        <ele>786.156798</ele>
        <time>2022-04-04T10:23:22.886Z</time>
      </trkpt>
      <trkpt lat="42.6017" lon="23.13717">
        <ele>786.239904</ele>
        <time>2022-04-04T10:23:24.891Z</time>
      </trkpt>
      <trkpt lat="42.60169" lon="23.13702">
        <ele>786.320446</ele>
        <time>2022-04-04T10:23:26.887Z</time>
      </trkpt>
      <trkpt lat="42.60169" lon="23.13686">
        <ele>786.402043</ele>
        <time>2022-04-04T10:23:28.891Z</time>
      </trkpt>
      <trkpt lat="42.60168" lon="23.13671">
        <ele>786.482056</ele>
        <time>2022-04-04T10:23:30.963Z</time>
      </trkpt>
      <trkpt lat="42.60167" lon="23.13656">
        <ele>786.561119</ele>
        <time>2022-04-04T10:23:32.905Z</time>
      </trkpt>
      <trkpt lat="42.60166" lon="23.13641">
        <ele>786.640032</ele>
        <time>2022-04-04T10:23:34.927Z</time>
      </trkpt>
      <trkpt lat="42.60164" lon="23.13626">
        <ele>786.721659</ele>
        <time>2022-04-04T10:23:36.919Z</time>
      </trkpt>
      <trkpt lat="42.60163" lon="23.13611">
        <ele>786.80401</ele>
        <time>2022-04-04T10:23:38.895Z</time>
      </trkpt>
      <trkpt lat="42.60162" lon="23.13595">
        <ele>786.8846</ele>
        <time>2022-04-04T10:23:40.873Z</time>
      </trkpt>
      <trkpt lat="42.60162" lon="23.1358">
        <ele>786.967212</ele>
        <time>2022-04-04T10:23:42.869Z</time>
      </trkpt>
      <trkpt lat="42.60161" lon="23.13565">
        <ele>787.045284</ele>
        <time>2022-04-04T10:23:44.898Z</time>
      </trkpt>
      <trkpt lat="42.6016" lon="23.1355">
        <ele>787.127509</ele>
        <time>2022-04-04T10:23:46.897Z</time>
      </trkpt>
      <trkpt lat="42.60159" lon="23.13534">
        <ele>787.090658</ele>
        <time>2022-04-04T10:23:48.883Z</time>
      </trkpt>
      <trkpt lat="42.60158" lon="23.13518">
        <ele>786.984113</ele>
        <time>2022-04-04T10:23:50.886Z</time>
      </trkpt>
      <trkpt lat="42.60157" lon="23.13505">
        <ele>786.891267</ele>
        <time>2022-04-04T10:23:52.913Z</time>
      </trkpt>
      <trkpt lat="42.60155" lon="23.13491">
        <ele>786.797627</ele>
        <time>2022-04-04T10:23:54.910Z</time>
      </trkpt>
      <trkpt lat="42.60155" lon="23.13476">
        <ele>786.696715</ele>
        <time>2022-04-04T10:23:56.894Z</time>
      </trkpt>
      <trkpt lat="42.60155" lon="23.13461">
        <ele>786.593096</ele>
        <time>2022-04-04T10:23:58.871Z</time>
      </trkpt>
      <trkpt lat="42.60154" lon="23.13446">
        <ele>786.493469</ele>
        <time>2022-04-04T10:24:00.871Z</time>
      </trkpt>
      <trkpt lat="42.60153" lon="23.13432">
        <ele>786.396378</ele>
        <time>2022-04-04T10:24:02.877Z</time>
      </trkpt>
      <trkpt lat="42.60153" lon="23.13418">
        <ele>786.304866</ele>
        <time>2022-04-04T10:24:04.904Z</time>
      </trkpt>
      <trkpt lat="42.60152" lon="23.13405">
        <ele>786.215944</ele>
        <time>2022-04-04T10:24:06.892Z</time>
      </trkpt>
      <trkpt lat="42.60152" lon="23.13393">
        <ele>786.129841</ele>
        <time>2022-04-04T10:24:08.890Z</time>
      </trkpt>
      <trkpt lat="42.60151" lon="23.1338">
        <ele>786.046062</ele>
        <time>2022-04-04T10:24:10.931Z</time>
      </trkpt>
      <trkpt lat="42.60149" lon="23.13363">
        <ele>785.927073</ele>
        <time>2022-04-04T10:24:13.884Z</time>
      </trkpt>
      <trkpt lat="42.60149" lon="23.13347">
        <ele>785.819852</ele>
        <time>2022-04-04T10:24:16.914Z</time>
      </trkpt>
      <trkpt lat="42.60147" lon="23.13331">
        <ele>785.71097</ele>
        <time>2022-04-04T10:24:19.871Z</time>
      </trkpt>
      <trkpt lat="42.60147" lon="23.13316">
        <ele>785.609991</ele>
        <time>2022-04-04T10:24:22.890Z</time>
      </trkpt>
      <trkpt lat="42.60145" lon="23.133">
        <ele>785.515071</ele>
        <time>2022-04-04T10:24:25.875Z</time>
      </trkpt>
      <trkpt lat="42.60144" lon="23.13284">
        <ele>785.72262</ele>
        <time>2022-04-04T10:24:28.888Z</time>
      </trkpt>
      <trkpt lat="42.60144" lon="23.13269">
        <ele>785.934319</ele>
        <time>2022-04-04T10:24:31.893Z</time>
      </trkpt>
      <trkpt lat="42.60143" lon="23.13254">
        <ele>786.134382</ele>
        <time>2022-04-04T10:24:34.880Z</time>
      </trkpt>
      <trkpt lat="42.60142" lon="23.1324">
        <ele>786.327698</ele>
        <time>2022-04-04T10:24:37.906Z</time>
      </trkpt>
      <trkpt lat="42.60141" lon="23.13226">
        <ele>786.516645</ele>
        <time>2022-04-04T10:24:40.893Z</time>
      </trkpt>
      <trkpt lat="42.6014" lon="23.13212">
        <ele>786.705187</ele>
        <time>2022-04-04T10:24:43.898Z</time>
      </trkpt>
      <trkpt lat="42.60139" lon="23.13199">
        <ele>786.885018</ele>
        <time>2022-04-04T10:24:46.905Z</time>
      </trkpt>
      <trkpt lat="42.60137" lon="23.13186">
        <ele>787.062006</ele>
        <time>2022-04-04T10:24:49.896Z</time>
      </trkpt>
      <trkpt lat="42.60136" lon="23.13173">
        <ele>787.245173</ele>
        <time>2022-04-04T10:24:52.885Z</time>
      </trkpt>
      <trkpt lat="42.60135" lon="23.13157">
        <ele>787.454165</ele>
        <time>2022-04-04T10:24:55.884Z</time>
      </trkpt>
      <trkpt lat="42.60135" lon="23.13143">
        <ele>787.652443</ele>
        <time>2022-04-04T10:24:58.874Z</time>
      </trkpt>
      <trkpt lat="42.60134" lon="23.13129">
        <ele>787.842394</ele>
        <time>2022-04-04T10:25:01.908Z</time>
      </trkpt>
      <trkpt lat="42.60134" lon="23.13116">
        <ele>788.009094</ele>
        <time>2022-04-04T10:25:04.880Z</time>
      </trkpt>
      <trkpt lat="42.60133" lon="23.13104">
        <ele>788.181685</ele>
        <time>2022-04-04T10:25:07.884Z</time>
      </trkpt>
      <trkpt lat="42.60132" lon="23.13089">
        <ele>788.386162</ele>
        <time>2022-04-04T10:25:10.872Z</time>
      </trkpt>
      <trkpt lat="42.60131" lon="23.13074">
        <ele>788.582177</ele>
        <time>2022-04-04T10:25:13.917Z</time>
      </trkpt>
      <trkpt lat="42.6013" lon="23.13062">
        <ele>788.756617</ele>
        <time>2022-04-04T10:25:16.875Z</time>
      </trkpt>
      <trkpt lat="42.60129" lon="23.13046">
        <ele>788.763326</ele>
        <time>2022-04-04T10:25:20.889Z</time>
      </trkpt>
      <trkpt lat="42.60128" lon="23.13033">
        <ele>788.706432</ele>
        <time>2022-04-04T10:25:23.886Z</time>
      </trkpt>
      <trkpt lat="42.60127" lon="23.13016">
        <ele>788.630587</ele>
        <time>2022-04-04T10:25:26.890Z</time>
      </trkpt>
      <trkpt lat="42.60127" lon="23.12999">
        <ele>788.55658</ele>
        <time>2022-04-04T10:25:29.893Z</time>
      </trkpt>
      <trkpt lat="42.60126" lon="23.12983">
        <ele>788.485144</ele>
        <time>2022-04-04T10:25:32.887Z</time>
      </trkpt>
      <trkpt lat="42.60125" lon="23.12969">
        <ele>788.421705</ele>
        <time>2022-04-04T10:25:35.900Z</time>
      </trkpt>
      <trkpt lat="42.60125" lon="23.12957">
        <ele>788.364975</ele>
        <time>2022-04-04T10:25:38.891Z</time>
      </trkpt>
      <trkpt lat="42.60125" lon="23.1294">
        <ele>788.291919</ele>
        <time>2022-04-04T10:25:41.918Z</time>
      </trkpt>
      <trkpt lat="42.60125" lon="23.12923">
        <ele>788.216182</ele>
        <time>2022-04-04T10:25:44.896Z</time>
      </trkpt>
      <trkpt lat="42.60124" lon="23.12909">
        <ele>788.153269</ele>
        <time>2022-04-04T10:25:47.930Z</time>
      </trkpt>
      <trkpt lat="42.60124" lon="23.12892">
        <ele>788.077482</ele>
        <time>2022-04-04T10:25:50.889Z</time>
      </trkpt>
      <trkpt lat="42.60123" lon="23.12874">
        <ele>787.997913</ele>
        <time>2022-04-04T10:25:53.922Z</time>
      </trkpt>
      <trkpt lat="42.6012" lon="23.12857">
        <ele>787.920688</ele>
        <time>2022-04-04T10:25:56.891Z</time>
      </trkpt>
      <trkpt lat="42.60118" lon="23.1284">
        <ele>787.841218</ele>
        <time>2022-04-04T10:25:59.866Z</time>
      </trkpt>
      <trkpt lat="42.60115" lon="23.12827">
        <ele>787.784973</ele>
        <time>2022-04-04T10:26:01.872Z</time>
      </trkpt>
      <trkpt lat="42.60113" lon="23.12815">
        <ele>787.722801</ele>
        <time>2022-04-04T10:26:03.882Z</time>
      </trkpt>
      <trkpt lat="42.6011" lon="23.12802">
        <ele>787.310221</ele>
        <time>2022-04-04T10:26:05.896Z</time>
      </trkpt>
      <trkpt lat="42.60107" lon="23.1279">
        <ele>786.893342</ele>
        <time>2022-04-04T10:26:07.891Z</time>
      </trkpt>
      <trkpt lat="42.60104" lon="23.12776">
        <ele>786.45013</ele>
        <time>2022-04-04T10:26:09.889Z</time>
      </trkpt>
      <trkpt lat="42.601" lon="23.12764">
        <ele>786.021056</ele>
        <time>2022-04-04T10:26:11.902Z</time>
      </trkpt>
      <trkpt lat="42.60095" lon="23.12751">
        <ele>785.574135</ele>
        <time>2022-04-04T10:26:13.914Z</time>
      </trkpt>
      <trkpt lat="42.60091" lon="23.12738">
        <ele>785.122604</ele>
        <time>2022-04-04T10:26:15.889Z</time>
      </trkpt>
      <trkpt lat="42.60086" lon="23.12725">
        <ele>784.673187</ele>
        <time>2022-04-04T10:26:17.869Z</time>
      </trkpt>
      <trkpt lat="42.60081" lon="23.12712">
        <ele>784.207428</ele>
        <time>2022-04-04T10:26:19.902Z</time>
      </trkpt>
      <trkpt lat="42.60076" lon="23.12699">
        <ele>783.751261</ele>
        <time>2022-04-04T10:26:21.983Z</time>
      </trkpt>
      <trkpt lat="42.60071" lon="23.12685">
        <ele>783.262344</ele>
        <time>2022-04-04T10:26:23.884Z</time>
      </trkpt>
      <trkpt lat="42.60066" lon="23.12672">
        <ele>782.775132</ele>
        <time>2022-04-04T10:26:25.885Z</time>
      </trkpt>
      <trkpt lat="42.6006" lon="23.12658">
        <ele>782.295483</ele>
        <time>2022-04-04T10:26:27.888Z</time>
      </trkpt>
      <trkpt lat="42.60056" lon="23.12644">
        <ele>781.804633</ele>
        <time>2022-04-04T10:26:29.923Z</time>
      </trkpt>
      <trkpt lat="42.60051" lon="23.12631">
        <ele>781.352412</ele>
        <time>2022-04-04T10:26:31.932Z</time>
      </trkpt>
      <trkpt lat="42.60046" lon="23.12618">
        <ele>780.880449</ele>
        <time>2022-04-04T10:26:33.879Z</time>
      </trkpt>
      <trkpt lat="42.60041" lon="23.12603">
        <ele>780.373532</ele>
        <time>2022-04-04T10:26:35.881Z</time>
      </trkpt>
      <trkpt lat="42.60036" lon="23.12587">
        <ele>779.96941</ele>
        <time>2022-04-04T10:26:37.874Z</time>
      </trkpt>
      <trkpt lat="42.60032" lon="23.12572">
        <ele>779.807944</ele>
        <time>2022-04-04T10:26:39.972Z</time>
      </trkpt>
      <trkpt lat="42.60031" lon="23.12557">
        <ele>779.649375</ele>
        <time>2022-04-04T10:26:41.889Z</time>
      </trkpt>
      <trkpt lat="42.60031" lon="23.12541">
        <ele>779.483576</ele>
        <time>2022-04-04T10:26:43.896Z</time>
      </trkpt>
      <trkpt lat="42.60033" lon="23.12524">
        <ele>779.310957</ele>
        <time>2022-04-04T10:26:45.888Z</time>
      </trkpt>
      <trkpt lat="42.60038" lon="23.12508">
        <ele>779.132896</ele>
        <time>2022-04-04T10:26:47.888Z</time>
      </trkpt>
      <trkpt lat="42.60047" lon="23.12494">
        <ele>778.944355</ele>
        <time>2022-04-04T10:26:50.026Z</time>
      </trkpt>
      <trkpt lat="42.60058" lon="23.12482">
        <ele>778.750373</ele>
        <time>2022-04-04T10:26:51.914Z</time>
      </trkpt>
      <trkpt lat="42.60068" lon="23.12472">
        <ele>778.576613</ele>
        <time>2022-04-04T10:26:53.907Z</time>
      </trkpt>
      <trkpt lat="42.60077" lon="23.12462">
        <ele>778.411075</ele>
        <time>2022-04-04T10:26:55.884Z</time>
      </trkpt>
      <trkpt lat="42.60086" lon="23.1245">
        <ele>778.238612</ele>
        <time>2022-04-04T10:26:57.909Z</time>
      </trkpt>
      <trkpt lat="42.60091" lon="23.12438">
        <ele>778.097688</ele>
        <time>2022-04-04T10:26:59.885Z</time>
      </trkpt>
      <trkpt lat="42.60094" lon="23.12426">
        <ele>777.967069</ele>
        <time>2022-04-04T10:27:01.867Z</time>
      </trkpt>
      <trkpt lat="42.60099" lon="23.12414">
        <ele>777.824166</ele>
        <time>2022-04-04T10:27:03.903Z</time>
      </trkpt>
      <trkpt lat="42.60101" lon="23.12399">
        <ele>777.670171</ele>
        <time>2022-04-04T10:27:05.892Z</time>
      </trkpt>
      <trkpt lat="42.601" lon="23.12382">
        <ele>777.484058</ele>
        <time>2022-04-04T10:27:07.911Z</time>
      </trkpt>
      <trkpt lat="42.60097" lon="23.12364">
        <ele>777.270643</ele>
        <time>2022-04-04T10:27:09.884Z</time>
      </trkpt>
      <trkpt lat="42.60093" lon="23.12348">
        <ele>777.067965</ele>
        <time>2022-04-04T10:27:11.888Z</time>
      </trkpt>
      <trkpt lat="42.60087" lon="23.12333">
        <ele>776.871053</ele>
        <time>2022-04-04T10:27:13.885Z</time>
      </trkpt>
      <trkpt lat="42.60081" lon="23.1232">
        <ele>776.686763</ele>
        <time>2022-04-04T10:27:15.882Z</time>
      </trkpt>
      <trkpt lat="42.60075" lon="23.12307">
        <ele>776.508309</ele>
        <time>2022-04-04T10:27:17.898Z</time>
      </trkpt>
      <trkpt lat="42.60069" lon="23.12295">
        <ele>776.333128</ele>
        <time>2022-04-04T10:27:19.886Z</time>
      </trkpt>
      <trkpt lat="42.60065" lon="23.12281">
        <ele>776.154235</ele>
        <time>2022-04-04T10:27:21.881Z</time>
      </trkpt>
      <trkpt lat="42.60064" lon="23.12266">
        <ele>775.978369</ele>
        <time>2022-04-04T10:27:24.025Z</time>
      </trkpt>
      <trkpt lat="42.60065" lon="23.12251">
        <ele>775.800625</ele>
        <time>2022-04-04T10:27:25.898Z</time>
      </trkpt>
      <trkpt lat="42.60069" lon="23.12236">
        <ele>775.618097</ele>
        <time>2022-04-04T10:27:27.887Z</time>
      </trkpt>
      <trkpt lat="42.60073" lon="23.12221">
        <ele>775.429867</ele>
        <time>2022-04-04T10:27:29.909Z</time>
      </trkpt>
      <trkpt lat="42.60076" lon="23.12205">
        <ele>775.234816</ele>
        <time>2022-04-04T10:27:31.894Z</time>
      </trkpt>
      <trkpt lat="42.60079" lon="23.12188">
        <ele>775.021443</ele>
        <time>2022-04-04T10:27:33.893Z</time>
      </trkpt>
      <trkpt lat="42.60081" lon="23.1217">
        <ele>774.81109</ele>
        <time>2022-04-04T10:27:35.874Z</time>
      </trkpt>
      <trkpt lat="42.60083" lon="23.12155">
        <ele>774.623479</ele>
        <time>2022-04-04T10:27:37.892Z</time>
      </trkpt>
      <trkpt lat="42.60083" lon="23.12139">
        <ele>774.451336</ele>
        <time>2022-04-04T10:27:39.882Z</time>
      </trkpt>
      <trkpt lat="42.60083" lon="23.12121">
        <ele>774.260075</ele>
        <time>2022-04-04T10:27:41.890Z</time>
      </trkpt>
      <trkpt lat="42.60083" lon="23.12101">
        <ele>774.04915</ele>
        <time>2022-04-04T10:27:43.885Z</time>
      </trkpt>
      <trkpt lat="42.60082" lon="23.1208">
        <ele>773.818744</ele>
        <time>2022-04-04T10:27:45.901Z</time>
      </trkpt>
      <trkpt lat="42.60081" lon="23.12057">
        <ele>773.574618</ele>
        <time>2022-04-04T10:27:47.890Z</time>
      </trkpt>
      <trkpt lat="42.6008" lon="23.12034">
        <ele>773.324106</ele>
        <time>2022-04-04T10:27:49.896Z</time>
      </trkpt>
      <trkpt lat="42.6008" lon="23.1201">
        <ele>773.068371</ele>
        <time>2022-04-04T10:27:51.882Z</time>
      </trkpt>
      <trkpt lat="42.60081" lon="23.11998">
        <ele>772.937208</ele>
        <time>2022-04-04T10:27:52.889Z</time>
      </trkpt>
      <trkpt lat="42.60081" lon="23.11986">
        <ele>772.806046</ele>
        <time>2022-04-04T10:27:53.865Z</time>
      </trkpt>
      <trkpt lat="42.60082" lon="23.11962">
        <ele>772.549037</ele>
        <time>2022-04-04T10:27:55.890Z</time>
      </trkpt>
      <trkpt lat="42.60083" lon="23.11938">
        <ele>772.292707</ele>
        <time>2022-04-04T10:27:57.894Z</time>
      </trkpt>
      <trkpt lat="42.60084" lon="23.11915">
        <ele>772.047941</ele>
        <time>2022-04-04T10:27:59.870Z</time>
      </trkpt>
      <trkpt lat="42.60086" lon="23.11893">
        <ele>771.937006</ele>
        <time>2022-04-04T10:28:01.927Z</time>
      </trkpt>
      <trkpt lat="42.6009" lon="23.11874">
        <ele>771.853831</ele>
        <time>2022-04-04T10:28:03.890Z</time>
      </trkpt>
      <trkpt lat="42.60095" lon="23.11857">
        <ele>771.776149</ele>
        <time>2022-04-04T10:28:05.884Z</time>
      </trkpt>
      <trkpt lat="42.601" lon="23.11841">
        <ele>771.703742</ele>
        <time>2022-04-04T10:28:07.949Z</time>
      </trkpt>
      <trkpt lat="42.60104" lon="23.11826">
        <ele>771.634717</ele>
        <time>2022-04-04T10:28:09.883Z</time>
      </trkpt>
      <trkpt lat="42.60108" lon="23.11811">
        <ele>771.56899</ele>
        <time>2022-04-04T10:28:11.875Z</time>
      </trkpt>
      <trkpt lat="42.60112" lon="23.11797">
        <ele>771.508227</ele>
        <time>2022-04-04T10:28:13.895Z</time>
      </trkpt>
      <trkpt lat="42.60116" lon="23.11784">
        <ele>771.447058</ele>
        <time>2022-04-04T10:28:15.891Z</time>
      </trkpt>
      <trkpt lat="42.60119" lon="23.1177">
        <ele>771.387866</ele>
        <time>2022-04-04T10:28:17.872Z</time>
      </trkpt>
      <trkpt lat="42.60124" lon="23.11756">
        <ele>771.321752</ele>
        <time>2022-04-04T10:28:19.852Z</time>
      </trkpt>
      <trkpt lat="42.60127" lon="23.11741">
        <ele>771.256606</ele>
        <time>2022-04-04T10:28:21.892Z</time>
      </trkpt>
      <trkpt lat="42.60131" lon="23.11726">
        <ele>771.189327</ele>
        <time>2022-04-04T10:28:23.865Z</time>
      </trkpt>
      <trkpt lat="42.60136" lon="23.11709">
        <ele>771.114576</ele>
        <time>2022-04-04T10:28:25.875Z</time>
      </trkpt>
      <trkpt lat="42.6014" lon="23.11691">
        <ele>771.033527</ele>
        <time>2022-04-04T10:28:27.879Z</time>
      </trkpt>
      <trkpt lat="42.60143" lon="23.1167">
        <ele>770.68286</ele>
        <time>2022-04-04T10:28:29.888Z</time>
      </trkpt>
      <trkpt lat="42.60148" lon="23.11649">
        <ele>770.069982</ele>
        <time>2022-04-04T10:28:31.931Z</time>
      </trkpt>
      <trkpt lat="42.60152" lon="23.11628">
        <ele>769.467191</ele>
        <time>2022-04-04T10:28:33.898Z</time>
      </trkpt>
      <trkpt lat="42.60155" lon="23.11608">
        <ele>768.865351</ele>
        <time>2022-04-04T10:28:35.927Z</time>
      </trkpt>
      <trkpt lat="42.60159" lon="23.11588">
        <ele>768.291665</ele>
        <time>2022-04-04T10:28:37.985Z</time>
      </trkpt>
      <trkpt lat="42.60162" lon="23.11569">
        <ele>767.762403</ele>
        <time>2022-04-04T10:28:39.930Z</time>
      </trkpt>
      <trkpt lat="42.60165" lon="23.11554">
        <ele>767.303531</ele>
        <time>2022-04-04T10:28:41.915Z</time>
      </trkpt>
      <trkpt lat="42.60172" lon="23.11542">
        <ele>766.878776</ele>
        <time>2022-04-04T10:28:43.895Z</time>
      </trkpt>
      <trkpt lat="42.60181" lon="23.11536">
        <ele>766.501695</ele>
        <time>2022-04-04T10:28:45.892Z</time>
      </trkpt>
      <trkpt lat="42.60193" lon="23.11535">
        <ele>766.057549</ele>
        <time>2022-04-04T10:28:48.888Z</time>
      </trkpt>
      <trkpt lat="42.60202" lon="23.11532">
        <ele>765.703323</ele>
        <time>2022-04-04T10:28:50.936Z</time>
      </trkpt>
      <trkpt lat="42.60215" lon="23.11528">
        <ele>765.20051</ele>
        <time>2022-04-04T10:28:53.903Z</time>
      </trkpt>
      <trkpt lat="42.60228" lon="23.11523">
        <ele>764.687941</ele>
        <time>2022-04-04T10:28:56.959Z</time>
      </trkpt>
      <trkpt lat="42.60237" lon="23.11519">
        <ele>764.3362</ele>
        <time>2022-04-04T10:28:58.889Z</time>
      </trkpt>
      <trkpt lat="42.60249" lon="23.11514">
        <ele>764.213495</ele>
        <time>2022-04-04T10:29:01.875Z</time>
      </trkpt>
      <trkpt lat="42.60261" lon="23.11511">
        <ele>764.325334</ele>
        <time>2022-04-04T10:29:04.925Z</time>
      </trkpt>
      <trkpt lat="42.60272" lon="23.11506">
        <ele>764.442087</ele>
        <time>2022-04-04T10:29:07.899Z</time>
      </trkpt>
      <trkpt lat="42.60284" lon="23.11502">
        <ele>764.558287</ele>
        <time>2022-04-04T10:29:10.891Z</time>
      </trkpt>
      <trkpt lat="42.60297" lon="23.11497">
        <ele>764.682872</ele>
        <time>2022-04-04T10:29:13.892Z</time>
      </trkpt>
      <trkpt lat="42.60309" lon="23.11492">
        <ele>764.804736</ele>
        <time>2022-04-04T10:29:16.913Z</time>
      </trkpt>
      <trkpt lat="42.60322" lon="23.11488">
        <ele>764.926764</ele>
        <time>2022-04-04T10:29:19.893Z</time>
      </trkpt>
      <trkpt lat="42.60333" lon="23.11482">
        <ele>765.040924</ele>
        <time>2022-04-04T10:29:22.911Z</time>
      </trkpt>
      <trkpt lat="42.60346" lon="23.11477">
        <ele>765.160781</ele>
        <time>2022-04-04T10:29:25.931Z</time>
      </trkpt>
      <trkpt lat="42.60356" lon="23.11476">
        <ele>765.256586</ele>
        <time>2022-04-04T10:29:27.904Z</time>
      </trkpt>
      <trkpt lat="42.60366" lon="23.11476">
        <ele>765.35284</ele>
        <time>2022-04-04T10:29:29.889Z</time>
      </trkpt>
      <trkpt lat="42.60375" lon="23.11474">
        <ele>765.441115</ele>
        <time>2022-04-04T10:29:31.905Z</time>
      </trkpt>
      <trkpt lat="42.60382" lon="23.1146">
        <ele>765.552583</ele>
        <time>2022-04-04T10:29:34.903Z</time>
      </trkpt>
      <trkpt lat="42.60378" lon="23.11448">
        <ele>765.642887</ele>
        <time>2022-04-04T10:29:36.904Z</time>
      </trkpt>
      <trkpt lat="42.60372" lon="23.11439">
        <ele>765.72931</ele>
        <time>2022-04-04T10:29:38.902Z</time>
      </trkpt>
      <trkpt lat="42.60364" lon="23.11432">
        <ele>765.817525</ele>
        <time>2022-04-04T10:29:40.896Z</time>
      </trkpt>
      <trkpt lat="42.60356" lon="23.11424">
        <ele>766.269699</ele>
        <time>2022-04-04T10:29:42.931Z</time>
      </trkpt>
      <trkpt lat="42.6035" lon="23.11414">
        <ele>766.81245</ele>
        <time>2022-04-04T10:29:44.922Z</time>
      </trkpt>
      <trkpt lat="42.60342" lon="23.11405">
        <ele>767.336641</ele>
        <time>2022-04-04T10:29:46.910Z</time>
      </trkpt>
      <trkpt lat="42.60335" lon="23.11397">
        <ele>767.860751</ele>
        <time>2022-04-04T10:29:48.899Z</time>
      </trkpt>
      <trkpt lat="42.60329" lon="23.11388">
        <ele>768.357747</ele>
        <time>2022-04-04T10:29:50.915Z</time>
      </trkpt>
      <trkpt lat="42.60321" lon="23.11373">
        <ele>769.094911</ele>
        <time>2022-04-04T10:29:53.894Z</time>
      </trkpt>
      <trkpt lat="42.60318" lon="23.11355">
        <ele>769.832361</ele>
        <time>2022-04-04T10:29:56.906Z</time>
      </trkpt>
      <trkpt lat="42.60318" lon="23.11342">
        <ele>770.387509</ele>
        <time>2022-04-04T10:29:58.918Z</time>
      </trkpt>
      <trkpt lat="42.6032" lon="23.11328">
        <ele>770.938494</ele>
        <time>2022-04-04T10:30:00.889Z</time>
      </trkpt>
      <trkpt lat="42.60322" lon="23.11314">
        <ele>771.547163</ele>
        <time>2022-04-04T10:30:02.891Z</time>
      </trkpt>
      <trkpt lat="42.60324" lon="23.11299">
        <ele>772.133035</ele>
        <time>2022-04-04T10:30:04.902Z</time>
      </trkpt>
      <trkpt lat="42.60326" lon="23.11286">
        <ele>772.671035</ele>
        <time>2022-04-04T10:30:06.926Z</time>
      </trkpt>
      <trkpt lat="42.60327" lon="23.11274">
        <ele>773.172924</ele>
        <time>2022-04-04T10:30:08.906Z</time>
      </trkpt>
      <trkpt lat="42.60328" lon="23.11261">
        <ele>773.678136</ele>
        <time>2022-04-04T10:30:10.956Z</time>
      </trkpt>
      <trkpt lat="42.6033" lon="23.11249">
        <ele>774.181004</ele>
        <time>2022-04-04T10:30:12.871Z</time>
      </trkpt>
      <trkpt lat="42.60332" lon="23.11237">
        <ele>774.713971</ele>
        <time>2022-04-04T10:30:14.891Z</time>
      </trkpt>
      <trkpt lat="42.60335" lon="23.11225">
        <ele>775.211646</ele>
        <time>2022-04-04T10:30:16.922Z</time>
      </trkpt>
      <trkpt lat="42.60337" lon="23.11208">
        <ele>775.948923</ele>
        <time>2022-04-04T10:30:19.903Z</time>
      </trkpt>
      <trkpt lat="42.6034" lon="23.1119">
        <ele>776.901989</ele>
        <time>2022-04-04T10:30:22.898Z</time>
      </trkpt>
      <trkpt lat="42.60342" lon="23.11177">
        <ele>777.559269</ele>
        <time>2022-04-04T10:30:24.898Z</time>
      </trkpt>
      <trkpt lat="42.60344" lon="23.11164">
        <ele>778.256605</ele>
        <time>2022-04-04T10:30:26.901Z</time>
      </trkpt>
      <trkpt lat="42.60346" lon="23.11151">
        <ele>778.91834</ele>
        <time>2022-04-04T10:30:28.907Z</time>
      </trkpt>
      <trkpt lat="42.60349" lon="23.11134">
        <ele>779.82849</ele>
        <time>2022-04-04T10:30:31.948Z</time>
      </trkpt>
      <trkpt lat="42.60351" lon="23.11117">
        <ele>780.70575</ele>
        <time>2022-04-04T10:30:34.899Z</time>
      </trkpt>
      <trkpt lat="42.60355" lon="23.111">
        <ele>781.622574</ele>
        <time>2022-04-04T10:30:37.892Z</time>
      </trkpt>
      <trkpt lat="42.60358" lon="23.11088">
        <ele>782.274782</ele>
        <time>2022-04-04T10:30:39.894Z</time>
      </trkpt>
      <trkpt lat="42.60361" lon="23.11074">
        <ele>782.981182</ele>
        <time>2022-04-04T10:30:41.902Z</time>
      </trkpt>
      <trkpt lat="42.60363" lon="23.11061">
        <ele>783.65784</ele>
        <time>2022-04-04T10:30:43.906Z</time>
      </trkpt>
      <trkpt lat="42.60366" lon="23.11049">
        <ele>784.313731</ele>
        <time>2022-04-04T10:30:45.894Z</time>
      </trkpt>
      <trkpt lat="42.60368" lon="23.11037">
        <ele>784.972141</ele>
        <time>2022-04-04T10:30:47.897Z</time>
      </trkpt>
      <trkpt lat="42.60371" lon="23.11019">
        <ele>785.872307</ele>
        <time>2022-04-04T10:30:50.917Z</time>
      </trkpt>
      <trkpt lat="42.60373" lon="23.11007">
        <ele>786.504535</ele>
        <time>2022-04-04T10:30:52.898Z</time>
      </trkpt>
      <trkpt lat="42.60375" lon="23.10994">
        <ele>787.17467</ele>
        <time>2022-04-04T10:30:54.879Z</time>
      </trkpt>
      <trkpt lat="42.60377" lon="23.10982">
        <ele>787.826901</ele>
        <time>2022-04-04T10:30:56.902Z</time>
      </trkpt>
      <trkpt lat="42.60379" lon="23.1097">
        <ele>788.082037</ele>
        <time>2022-04-04T10:30:58.905Z</time>
      </trkpt>
      <trkpt lat="42.60382" lon="23.10957">
        <ele>787.744603</ele>
        <time>2022-04-04T10:31:00.883Z</time>
      </trkpt>
      <trkpt lat="42.60384" lon="23.10944">
        <ele>787.409247</ele>
        <time>2022-04-04T10:31:02.894Z</time>
      </trkpt>
      <trkpt lat="42.60386" lon="23.10932">
        <ele>787.084599</ele>
        <time>2022-04-04T10:31:04.894Z</time>
      </trkpt>
      <trkpt lat="42.60389" lon="23.10919">
        <ele>786.734956</ele>
        <time>2022-04-04T10:31:06.912Z</time>
      </trkpt>
      <trkpt lat="42.60392" lon="23.10906">
        <ele>786.395704</ele>
        <time>2022-04-04T10:31:08.879Z</time>
      </trkpt>
      <trkpt lat="42.60396" lon="23.10894">
        <ele>786.067271</ele>
        <time>2022-04-04T10:31:10.915Z</time>
      </trkpt>
      <trkpt lat="42.60399" lon="23.10881">
        <ele>785.714951</ele>
        <time>2022-04-04T10:31:12.912Z</time>
      </trkpt>
      <trkpt lat="42.60403" lon="23.10869">
        <ele>785.391147</ele>
        <time>2022-04-04T10:31:14.888Z</time>
      </trkpt>
      <trkpt lat="42.60411" lon="23.10855">
        <ele>784.9381</ele>
        <time>2022-04-04T10:31:17.928Z</time>
      </trkpt>
      <trkpt lat="42.60419" lon="23.10841">
        <ele>784.47145</ele>
        <time>2022-04-04T10:31:20.904Z</time>
      </trkpt>
      <trkpt lat="42.60427" lon="23.10826">
        <ele>784.021813</ele>
        <time>2022-04-04T10:31:23.916Z</time>
      </trkpt>
      <trkpt lat="42.60433" lon="23.10811">
        <ele>783.558585</ele>
        <time>2022-04-04T10:31:26.923Z</time>
      </trkpt>
      <trkpt lat="42.60439" lon="23.10801">
        <ele>783.244946</ele>
        <time>2022-04-04T10:31:28.927Z</time>
      </trkpt>
      <trkpt lat="42.60444" lon="23.10791">
        <ele>782.925135</ele>
        <time>2022-04-04T10:31:30.903Z</time>
      </trkpt>
      <trkpt lat="42.6045" lon="23.10779">
        <ele>782.568213</ele>
        <time>2022-04-04T10:31:32.907Z</time>
      </trkpt>
      <trkpt lat="42.60456" lon="23.10767">
        <ele>782.212725</ele>
        <time>2022-04-04T10:31:34.891Z</time>
      </trkpt>
      <trkpt lat="42.60461" lon="23.10757">
        <ele>782.079964</ele>
        <time>2022-04-04T10:31:36.879Z</time>
      </trkpt>
      <trkpt lat="42.60468" lon="23.10747">
        <ele>782.331013</ele>
        <time>2022-04-04T10:31:38.910Z</time>
      </trkpt>
      <trkpt lat="42.60475" lon="23.10737">
        <ele>782.594669</ele>
        <time>2022-04-04T10:31:40.929Z</time>
      </trkpt>
      <trkpt lat="42.60482" lon="23.10726">
        <ele>782.879614</ele>
        <time>2022-04-04T10:31:42.895Z</time>
      </trkpt>
      <trkpt lat="42.60488" lon="23.10716">
        <ele>783.140331</ele>
        <time>2022-04-04T10:31:44.930Z</time>
      </trkpt>
      <trkpt lat="42.60495" lon="23.10705">
        <ele>783.417497</ele>
        <time>2022-04-04T10:31:46.890Z</time>
      </trkpt>
      <trkpt lat="42.60499" lon="23.10694">
        <ele>783.659413</ele>
        <time>2022-04-04T10:31:48.921Z</time>
      </trkpt>
      <trkpt lat="42.60505" lon="23.10677">
        <ele>784.019389</ele>
        <time>2022-04-04T10:31:51.891Z</time>
      </trkpt>
      <trkpt lat="42.6051" lon="23.10665">
        <ele>784.287765</ele>
        <time>2022-04-04T10:31:53.892Z</time>
      </trkpt>
      <trkpt lat="42.60515" lon="23.10653">
        <ele>784.56367</ele>
        <time>2022-04-04T10:31:55.899Z</time>
      </trkpt>
      <trkpt lat="42.60521" lon="23.10642">
        <ele>784.823855</ele>
        <time>2022-04-04T10:31:57.912Z</time>
      </trkpt>
      <trkpt lat="42.60526" lon="23.10632">
        <ele>785.072725</ele>
        <time>2022-04-04T10:31:59.915Z</time>
      </trkpt>
      <trkpt lat="42.60532" lon="23.10621">
        <ele>785.32474</ele>
        <time>2022-04-04T10:32:01.883Z</time>
      </trkpt>
      <trkpt lat="42.60538" lon="23.10611">
        <ele>785.572151</ele>
        <time>2022-04-04T10:32:03.889Z</time>
      </trkpt>
      <trkpt lat="42.60544" lon="23.10597">
        <ele>785.889026</ele>
        <time>2022-04-04T10:32:06.910Z</time>
      </trkpt>
      <trkpt lat="42.60549" lon="23.10586">
        <ele>786.147246</ele>
        <time>2022-04-04T10:32:08.901Z</time>
      </trkpt>
      <trkpt lat="42.60556" lon="23.10577">
        <ele>786.391269</ele>
        <time>2022-04-04T10:32:10.913Z</time>
      </trkpt>
      <trkpt lat="42.60563" lon="23.10562">
        <ele>786.743599</ele>
        <time>2022-04-04T10:32:13.972Z</time>
      </trkpt>
      <trkpt lat="42.60568" lon="23.10551">
        <ele>786.924708</ele>
        <time>2022-04-04T10:32:15.892Z</time>
      </trkpt>
      <trkpt lat="42.60573" lon="23.10539">
        <ele>787.105443</ele>
        <time>2022-04-04T10:32:17.906Z</time>
      </trkpt>
      <trkpt lat="42.60577" lon="23.10528">
        <ele>787.276653</ele>
        <time>2022-04-04T10:32:19.906Z</time>
      </trkpt>
      <trkpt lat="42.60585" lon="23.10514">
        <ele>787.514346</ele>
        <time>2022-04-04T10:32:22.907Z</time>
      </trkpt>
      <trkpt lat="42.60591" lon="23.10504">
        <ele>787.69275</ele>
        <time>2022-04-04T10:32:24.883Z</time>
      </trkpt>
      <trkpt lat="42.60597" lon="23.10493">
        <ele>787.878752</ele>
        <time>2022-04-04T10:32:26.914Z</time>
      </trkpt>
      <trkpt lat="42.60602" lon="23.10483">
        <ele>788.047334</ele>
        <time>2022-04-04T10:32:28.905Z</time>
      </trkpt>
      <trkpt lat="42.60606" lon="23.10468">
        <ele>788.26289</ele>
        <time>2022-04-04T10:32:31.931Z</time>
      </trkpt>
      <trkpt lat="42.60614" lon="23.10453">
        <ele>788.515465</ele>
        <time>2022-04-04T10:32:34.888Z</time>
      </trkpt>
      <trkpt lat="42.6062" lon="23.10442">
        <ele>788.704909</ele>
        <time>2022-04-04T10:32:36.907Z</time>
      </trkpt>
      <trkpt lat="42.60626" lon="23.10431">
        <ele>788.882076</ele>
        <time>2022-04-04T10:32:38.918Z</time>
      </trkpt>
      <trkpt lat="42.60631" lon="23.10421">
        <ele>789.054258</ele>
        <time>2022-04-04T10:32:40.900Z</time>
      </trkpt>
      <trkpt lat="42.60636" lon="23.1041">
        <ele>789.233697</ele>
        <time>2022-04-04T10:32:42.965Z</time>
      </trkpt>
      <trkpt lat="42.60642" lon="23.10399">
        <ele>789.423046</ele>
        <time>2022-04-04T10:32:44.907Z</time>
      </trkpt>
      <trkpt lat="42.60649" lon="23.10387">
        <ele>789.634704</ele>
        <time>2022-04-04T10:32:46.909Z</time>
      </trkpt>
      <trkpt lat="42.60657" lon="23.10374">
        <ele>789.86376</ele>
        <time>2022-04-04T10:32:48.905Z</time>
      </trkpt>
      <trkpt lat="42.60664" lon="23.10361">
        <ele>790.074828</ele>
        <time>2022-04-04T10:32:50.904Z</time>
      </trkpt>
      <trkpt lat="42.60671" lon="23.10348">
        <ele>789.972699</ele>
        <time>2022-04-04T10:32:52.897Z</time>
      </trkpt>
      <trkpt lat="42.60677" lon="23.10337">
        <ele>789.882231</ele>
        <time>2022-04-04T10:32:54.905Z</time>
      </trkpt>
      <trkpt lat="42.60684" lon="23.10327">
        <ele>789.792109</ele>
        <time>2022-04-04T10:32:56.912Z</time>
      </trkpt>
      <trkpt lat="42.6069" lon="23.10317">
        <ele>789.709452</ele>
        <time>2022-04-04T10:32:58.907Z</time>
      </trkpt>
      <trkpt lat="42.60694" lon="23.10306">
        <ele>789.627875</ele>
        <time>2022-04-04T10:33:00.894Z</time>
      </trkpt>
      <trkpt lat="42.60697" lon="23.10289">
        <ele>789.512195</ele>
        <time>2022-04-04T10:33:03.909Z</time>
      </trkpt>
      <trkpt lat="42.60698" lon="23.10272">
        <ele>789.400828</ele>
        <time>2022-04-04T10:33:06.923Z</time>
      </trkpt>
      <trkpt lat="42.60699" lon="23.10256">
        <ele>789.296717</ele>
        <time>2022-04-04T10:33:09.898Z</time>
      </trkpt>
      <trkpt lat="42.607" lon="23.10239">
        <ele>789.184923</ele>
        <time>2022-04-04T10:33:12.889Z</time>
      </trkpt>
      <trkpt lat="42.60701" lon="23.10226">
        <ele>789.098103</ele>
        <time>2022-04-04T10:33:14.886Z</time>
      </trkpt>
      <trkpt lat="42.60701" lon="23.10213">
        <ele>789.008766</ele>
        <time>2022-04-04T10:33:16.896Z</time>
      </trkpt>
      <trkpt lat="42.60701" lon="23.10199">
        <ele>788.921181</ele>
        <time>2022-04-04T10:33:18.893Z</time>
      </trkpt>
      <trkpt lat="42.60702" lon="23.10186">
        <ele>788.836372</ele>
        <time>2022-04-04T10:33:20.989Z</time>
      </trkpt>
      <trkpt lat="42.60702" lon="23.10174">
        <ele>788.751407</ele>
        <time>2022-04-04T10:33:22.918Z</time>
      </trkpt>
      <trkpt lat="42.60703" lon="23.1016">
        <ele>788.663822</ele>
        <time>2022-04-04T10:33:24.915Z</time>
      </trkpt>
      <trkpt lat="42.60702" lon="23.10143">
        <ele>788.550902</ele>
        <time>2022-04-04T10:33:27.906Z</time>
      </trkpt>
      <trkpt lat="42.60702" lon="23.1013">
        <ele>788.507918</ele>
        <time>2022-04-04T10:33:29.893Z</time>
      </trkpt>
      <trkpt lat="42.60702" lon="23.10117">
        <ele>789.124406</ele>
        <time>2022-04-04T10:33:31.885Z</time>
      </trkpt>
      <trkpt lat="42.60704" lon="23.10101">
        <ele>789.850947</ele>
        <time>2022-04-04T10:33:33.908Z</time>
      </trkpt>
      <trkpt lat="42.60705" lon="23.10087">
        <ele>790.525924</ele>
        <time>2022-04-04T10:33:35.928Z</time>
      </trkpt>
      <trkpt lat="42.60707" lon="23.10073">
        <ele>791.151392</ele>
        <time>2022-04-04T10:33:37.878Z</time>
      </trkpt>
      <trkpt lat="42.60707" lon="23.1006">
        <ele>791.765291</ele>
        <time>2022-04-04T10:33:39.877Z</time>
      </trkpt>
      <trkpt lat="42.60708" lon="23.10047">
        <ele>792.355523</ele>
        <time>2022-04-04T10:33:41.940Z</time>
      </trkpt>
      <trkpt lat="42.60708" lon="23.10034">
        <ele>792.921885</ele>
        <time>2022-04-04T10:33:43.879Z</time>
      </trkpt>
      <trkpt lat="42.60709" lon="23.10016">
        <ele>793.749531</ele>
        <time>2022-04-04T10:33:46.890Z</time>
      </trkpt>
      <trkpt lat="42.60711" lon="23.10003">
        <ele>794.355901</ele>
        <time>2022-04-04T10:33:48.881Z</time>
      </trkpt>
      <trkpt lat="42.60711" lon="23.09991">
        <ele>794.922433</ele>
        <time>2022-04-04T10:33:50.891Z</time>
      </trkpt>
      <trkpt lat="42.60712" lon="23.09977">
        <ele>795.558637</ele>
        <time>2022-04-04T10:33:52.931Z</time>
      </trkpt>
      <trkpt lat="42.60712" lon="23.09963">
        <ele>796.186711</ele>
        <time>2022-04-04T10:33:54.897Z</time>
      </trkpt>
      <trkpt lat="42.60713" lon="23.0995">
        <ele>796.787501</ele>
        <time>2022-04-04T10:33:56.878Z</time>
      </trkpt>
      <trkpt lat="42.60714" lon="23.09937">
        <ele>797.387746</ele>
        <time>2022-04-04T10:33:58.893Z</time>
      </trkpt>
      <trkpt lat="42.60714" lon="23.09919">
        <ele>798.200647</ele>
        <time>2022-04-04T10:34:01.989Z</time>
      </trkpt>
      <trkpt lat="42.60716" lon="23.09902">
        <ele>798.989435</ele>
        <time>2022-04-04T10:34:04.899Z</time>
      </trkpt>
      <trkpt lat="42.60718" lon="23.09887">
        <ele>799.649603</ele>
        <time>2022-04-04T10:34:07.893Z</time>
      </trkpt>
      <trkpt lat="42.6072" lon="23.0987">
        <ele>799.868187</ele>
        <time>2022-04-04T10:34:10.879Z</time>
      </trkpt>
      <trkpt lat="42.60721" lon="23.09857">
        <ele>800.037708</ele>
        <time>2022-04-04T10:34:14.890Z</time>
      </trkpt>
      <trkpt lat="42.60721" lon="23.09844">
        <ele>800.208022</ele>
        <time>2022-04-04T10:34:20.910Z</time>
      </trkpt>
      <trkpt lat="42.60721" lon="23.09828">
        <ele>800.414827</ele>
        <time>2022-04-04T10:34:24.886Z</time>
      </trkpt>
      <trkpt lat="42.60723" lon="23.09813">
        <ele>800.613243</ele>
        <time>2022-04-04T10:34:27.899Z</time>
      </trkpt>
      <trkpt lat="42.60724" lon="23.09799">
        <ele>800.804925</ele>
        <time>2022-04-04T10:34:30.888Z</time>
      </trkpt>
      <trkpt lat="42.60725" lon="23.09784">
        <ele>801.001273</ele>
        <time>2022-04-04T10:34:33.888Z</time>
      </trkpt>
      <trkpt lat="42.60724" lon="23.09768">
        <ele>801.204267</ele>
        <time>2022-04-04T10:34:36.885Z</time>
      </trkpt>
      <trkpt lat="42.60724" lon="23.09755">
        <ele>801.366701</ele>
        <time>2022-04-04T10:34:38.889Z</time>
      </trkpt>
      <trkpt lat="42.60723" lon="23.09743">
        <ele>801.52559</ele>
        <time>2022-04-04T10:34:40.892Z</time>
      </trkpt>
      <trkpt lat="42.60723" lon="23.0973">
        <ele>801.698429</ele>
        <time>2022-04-04T10:34:42.880Z</time>
      </trkpt>
      <trkpt lat="42.60723" lon="23.09717">
        <ele>801.86737</ele>
        <time>2022-04-04T10:34:44.889Z</time>
      </trkpt>
      <trkpt lat="42.60723" lon="23.09705">
        <ele>802.025945</ele>
        <time>2022-04-04T10:34:46.886Z</time>
      </trkpt>
      <trkpt lat="42.60724" lon="23.09686">
        <ele>802.271647</ele>
        <time>2022-04-04T10:34:49.931Z</time>
      </trkpt>
      <trkpt lat="42.60724" lon="23.09672">
        <ele>802.451677</ele>
        <time>2022-04-04T10:34:51.890Z</time>
      </trkpt>
      <trkpt lat="42.60726" lon="23.09658">
        <ele>802.633757</ele>
        <time>2022-04-04T10:34:53.886Z</time>
      </trkpt>
      <trkpt lat="42.60726" lon="23.09644">
        <ele>802.749656</ele>
        <time>2022-04-04T10:34:55.881Z</time>
      </trkpt>
      <trkpt lat="42.60727" lon="23.09631">
        <ele>801.109919</ele>
        <time>2022-04-04T10:34:57.893Z</time>
      </trkpt>
      <trkpt lat="42.60728" lon="23.09618">
        <ele>799.466351</ele>
        <time>2022-04-04T10:34:59.884Z</time>
      </trkpt>
      <trkpt lat="42.60728" lon="23.09604">
        <ele>797.828918</ele>
        <time>2022-04-04T10:35:01.886Z</time>
      </trkpt>
      <trkpt lat="42.60729" lon="23.09588">
        <ele>795.759862</ele>
        <time>2022-04-04T10:35:04.885Z</time>
      </trkpt>
      <trkpt lat="42.60729" lon="23.09575">
        <ele>794.181535</ele>
        <time>2022-04-04T10:35:06.897Z</time>
      </trkpt>
      <trkpt lat="42.60731" lon="23.09561">
        <ele>792.490159</ele>
        <time>2022-04-04T10:35:08.899Z</time>
      </trkpt>
      <trkpt lat="42.60733" lon="23.09548">
        <ele>790.83503</ele>
        <time>2022-04-04T10:35:10.886Z</time>
      </trkpt>
      <trkpt lat="42.60735" lon="23.09535">
        <ele>789.23734</ele>
        <time>2022-04-04T10:35:12.880Z</time>
      </trkpt>
      <trkpt lat="42.60737" lon="23.09522">
        <ele>787.500411</ele>
        <time>2022-04-04T10:35:14.891Z</time>
      </trkpt>
      <trkpt lat="42.60739" lon="23.09508">
        <ele>785.845283</ele>
        <time>2022-04-04T10:35:16.906Z</time>
      </trkpt>
      <trkpt lat="42.60741" lon="23.09495">
        <ele>784.195439</ele>
        <time>2022-04-04T10:35:18.878Z</time>
      </trkpt>
      <trkpt lat="42.60744" lon="23.09482">
        <ele>782.49432</ele>
        <time>2022-04-04T10:35:20.903Z</time>
      </trkpt>
      <trkpt lat="42.60747" lon="23.0947">
        <ele>780.883006</ele>
        <time>2022-04-04T10:35:22.929Z</time>
      </trkpt>
      <trkpt lat="42.60752" lon="23.09458">
        <ele>779.141674</ele>
        <time>2022-04-04T10:35:24.892Z</time>
      </trkpt>
      <trkpt lat="42.60759" lon="23.09445">
        <ele>777.266313</ele>
        <time>2022-04-04T10:35:26.888Z</time>
      </trkpt>
      <trkpt lat="42.60765" lon="23.09433">
        <ele>775.511942</ele>
        <time>2022-04-04T10:35:28.891Z</time>
      </trkpt>
      <trkpt lat="42.60771" lon="23.09423">
        <ele>773.832976</ele>
        <time>2022-04-04T10:35:30.892Z</time>
      </trkpt>
      <trkpt lat="42.60777" lon="23.09413">
        <ele>772.575381</ele>
        <time>2022-04-04T10:35:32.887Z</time>
      </trkpt>
      <trkpt lat="42.60782" lon="23.09403">
        <ele>771.997283</ele>
        <time>2022-04-04T10:35:34.889Z</time>
      </trkpt>
      <trkpt lat="42.60789" lon="23.09394">
        <ele>771.41025</ele>
        <time>2022-04-04T10:35:36.888Z</time>
      </trkpt>
      <trkpt lat="42.60796" lon="23.09385">
        <ele>770.796031</ele>
        <time>2022-04-04T10:35:38.912Z</time>
      </trkpt>
      <trkpt lat="42.60807" lon="23.09378">
        <ele>769.961943</ele>
        <time>2022-04-04T10:35:41.895Z</time>
      </trkpt>
      <trkpt lat="42.60817" lon="23.09376">
        <ele>769.331028</ele>
        <time>2022-04-04T10:35:43.907Z</time>
      </trkpt>
      <trkpt lat="42.60826" lon="23.09376">
        <ele>768.744512</ele>
        <time>2022-04-04T10:35:45.899Z</time>
      </trkpt>
      <trkpt lat="42.6084" lon="23.09374">
        <ele>767.893115</ele>
        <time>2022-04-04T10:35:48.901Z</time>
      </trkpt>
      <trkpt lat="42.60852" lon="23.09375">
        <ele>767.127796</ele>
        <time>2022-04-04T10:35:51.898Z</time>
      </trkpt>
      <trkpt lat="42.60865" lon="23.09375">
        <ele>766.311523</ele>
        <time>2022-04-04T10:35:54.884Z</time>
      </trkpt>
      <trkpt lat="42.60877" lon="23.09377">
        <ele>765.486356</ele>
        <time>2022-04-04T10:35:57.909Z</time>
      </trkpt>
      <trkpt lat="42.60889" lon="23.09376">
        <ele>764.733586</ele>
        <time>2022-04-04T10:36:00.908Z</time>
      </trkpt>
      <trkpt lat="42.60902" lon="23.09376">
        <ele>763.904998</ele>
        <time>2022-04-04T10:36:03.880Z</time>
      </trkpt>
      <trkpt lat="42.60915" lon="23.09374">
        <ele>763.086571</ele>
        <time>2022-04-04T10:36:06.894Z</time>
      </trkpt>
      <trkpt lat="42.60929" lon="23.09367">
        <ele>762.15524</ele>
        <time>2022-04-04T10:36:09.948Z</time>
      </trkpt>
      <trkpt lat="42.60938" lon="23.09361">
        <ele>761.477907</ele>
        <time>2022-04-04T10:36:11.892Z</time>
      </trkpt>
      <trkpt lat="42.60949" lon="23.09355">
        <ele>761.262105</ele>
        <time>2022-04-04T10:36:14.892Z</time>
      </trkpt>
      <trkpt lat="42.60958" lon="23.09351">
        <ele>761.250082</ele>
        <time>2022-04-04T10:36:17.884Z</time>
      </trkpt>
      <trkpt lat="42.6097" lon="23.09348">
        <ele>761.235909</ele>
        <time>2022-04-04T10:36:20.924Z</time>
      </trkpt>
      <trkpt lat="42.60981" lon="23.09347">
        <ele>761.223149</ele>
        <time>2022-04-04T10:36:23.878Z</time>
      </trkpt>
      <trkpt lat="42.60991" lon="23.09342">
        <ele>761.210617</ele>
        <time>2022-04-04T10:36:26.885Z</time>
      </trkpt>
      <trkpt lat="42.60996" lon="23.09328">
        <ele>761.197967</ele>
        <time>2022-04-04T10:36:29.895Z</time>
      </trkpt>
      <trkpt lat="42.60998" lon="23.09312">
        <ele>761.183515</ele>
        <time>2022-04-04T10:36:32.939Z</time>
      </trkpt>
      <trkpt lat="42.61001" lon="23.09294">
        <ele>761.168103</ele>
        <time>2022-04-04T10:36:35.901Z</time>
      </trkpt>
      <trkpt lat="42.61004" lon="23.09283">
        <ele>761.157337</ele>
        <time>2022-04-04T10:36:37.932Z</time>
      </trkpt>
      <trkpt lat="42.61008" lon="23.09271">
        <ele>761.146506</ele>
        <time>2022-04-04T10:36:39.899Z</time>
      </trkpt>
      <trkpt lat="42.61012" lon="23.09259">
        <ele>761.135124</ele>
        <time>2022-04-04T10:36:41.878Z</time>
      </trkpt>
      <trkpt lat="42.61015" lon="23.09246">
        <ele>761.12378</ele>
        <time>2022-04-04T10:36:43.894Z</time>
      </trkpt>
      <trkpt lat="42.61018" lon="23.09233">
        <ele>761.112007</ele>
        <time>2022-04-04T10:36:45.897Z</time>
      </trkpt>
      <trkpt lat="42.61021" lon="23.09221">
        <ele>761.101011</ele>
        <time>2022-04-04T10:36:47.889Z</time>
      </trkpt>
      <trkpt lat="42.61024" lon="23.09205">
        <ele>761.086463</ele>
        <time>2022-04-04T10:36:50.895Z</time>
      </trkpt>
      <trkpt lat="42.61026" lon="23.09192">
        <ele>761.075447</ele>
        <time>2022-04-04T10:36:52.925Z</time>
      </trkpt>
      <trkpt lat="42.61028" lon="23.0918">
        <ele>761.064598</ele>
        <time>2022-04-04T10:36:54.913Z</time>
      </trkpt>
      <trkpt lat="42.61033" lon="23.09163">
        <ele>761.100055</ele>
        <time>2022-04-04T10:36:57.884Z</time>
      </trkpt>
      <trkpt lat="42.61037" lon="23.09148">
        <ele>761.143124</ele>
        <time>2022-04-04T10:37:00.901Z</time>
      </trkpt>
      <trkpt lat="42.61044" lon="23.09136">
        <ele>761.186312</ele>
        <time>2022-04-04T10:37:03.884Z</time>
      </trkpt>
      <trkpt lat="42.61055" lon="23.0913">
        <ele>761.229695</ele>
        <time>2022-04-04T10:37:06.879Z</time>
      </trkpt>
      <trkpt lat="42.61059" lon="23.09115">
        <ele>761.273136</ele>
        <time>2022-04-04T10:37:10.888Z</time>
      </trkpt>
      <trkpt lat="42.61059" lon="23.09101">
        <ele>761.310875</ele>
        <time>2022-04-04T10:37:16.020Z</time>
      </trkpt>
      <trkpt lat="42.61059" lon="23.09089">
        <ele>761.34454</ele>
        <time>2022-04-04T10:37:20.901Z</time>
      </trkpt>
      <trkpt lat="42.6106" lon="23.09074">
        <ele>761.385504</ele>
        <time>2022-04-04T10:37:24.891Z</time>
      </trkpt>
      <trkpt lat="42.61064" lon="23.09061">
        <ele>761.42172</ele>
        <time>2022-04-04T10:37:27.886Z</time>
      </trkpt>
      <trkpt lat="42.61066" lon="23.09048">
        <ele>761.459836</ele>
        <time>2022-04-04T10:37:30.869Z</time>
      </trkpt>
      <trkpt lat="42.61066" lon="23.09034">
        <ele>761.496487</ele>
        <time>2022-04-04T10:37:33.895Z</time>
      </trkpt>
      <trkpt lat="42.61066" lon="23.09021">
        <ele>761.531811</ele>
        <time>2022-04-04T10:37:36.895Z</time>
      </trkpt>
      <trkpt lat="42.61066" lon="23.09009">
        <ele>761.564935</ele>
        <time>2022-04-04T10:37:39.884Z</time>
      </trkpt>
      <trkpt lat="42.61066" lon="23.08996">
        <ele>761.600569</ele>
        <time>2022-04-04T10:37:43.919Z</time>
      </trkpt>
      <trkpt lat="42.61066" lon="23.08976">
        <ele>761.655743</ele>
        <time>2022-04-04T10:38:14.932Z</time>
      </trkpt>
      <trkpt lat="42.61065" lon="23.08962">
        <ele>761.693896</ele>
        <time>2022-04-04T10:38:18.895Z</time>
      </trkpt>
      <trkpt lat="42.61065" lon="23.08948">
        <ele>761.733274</ele>
        <time>2022-04-04T10:38:22.896Z</time>
      </trkpt>
      <trkpt lat="42.61065" lon="23.08934">
        <ele>761.782436</ele>
        <time>2022-04-04T10:38:25.887Z</time>
      </trkpt>
      <trkpt lat="42.61067" lon="23.0892">
        <ele>761.834893</ele>
        <time>2022-04-04T10:38:28.884Z</time>
      </trkpt>
      <trkpt lat="42.61067" lon="23.08903">
        <ele>761.896511</ele>
        <time>2022-04-04T10:38:32.889Z</time>
      </trkpt>
      <trkpt lat="42.61068" lon="23.08888">
        <ele>761.955055</ele>
        <time>2022-04-04T10:38:35.884Z</time>
      </trkpt>
      <trkpt lat="42.6107" lon="23.08871">
        <ele>762.015191</ele>
        <time>2022-04-04T10:38:38.906Z</time>
      </trkpt>
      <trkpt lat="42.6107" lon="23.08853">
        <ele>762.082276</ele>
        <time>2022-04-04T10:38:41.883Z</time>
      </trkpt>
      <trkpt lat="42.61069" lon="23.08834">
        <ele>762.150943</ele>
        <time>2022-04-04T10:38:44.881Z</time>
      </trkpt>
      <trkpt lat="42.61067" lon="23.0882">
        <ele>762.204933</ele>
        <time>2022-04-04T10:38:46.894Z</time>
      </trkpt>
      <trkpt lat="42.61067" lon="23.08806">
        <ele>762.255679</ele>
        <time>2022-04-04T10:38:48.932Z</time>
      </trkpt>
      <trkpt lat="42.61066" lon="23.08793">
        <ele>762.305178</ele>
        <time>2022-04-04T10:38:50.888Z</time>
      </trkpt>
      <trkpt lat="42.61067" lon="23.08779">
        <ele>762.355055</ele>
        <time>2022-04-04T10:38:52.892Z</time>
      </trkpt>
      <trkpt lat="42.61068" lon="23.08766">
        <ele>762.404118</ele>
        <time>2022-04-04T10:38:54.873Z</time>
      </trkpt>
      <trkpt lat="42.6107" lon="23.08752">
        <ele>762.45541</ele>
        <time>2022-04-04T10:38:56.890Z</time>
      </trkpt>
      <trkpt lat="42.61071" lon="23.08738">
        <ele>762.505025</ele>
        <time>2022-04-04T10:38:58.900Z</time>
      </trkpt>
      <trkpt lat="42.61071" lon="23.08721">
        <ele>762.568828</ele>
        <time>2022-04-04T10:39:01.887Z</time>
      </trkpt>
      <trkpt lat="42.6107" lon="23.08705">
        <ele>762.64354</ele>
        <time>2022-04-04T10:39:04.879Z</time>
      </trkpt>
      <trkpt lat="42.61072" lon="23.0869">
        <ele>762.787152</ele>
        <time>2022-04-04T10:39:07.899Z</time>
      </trkpt>
      <trkpt lat="42.61073" lon="23.08677">
        <ele>762.914408</ele>
        <time>2022-04-04T10:39:11.886Z</time>
      </trkpt>
      <trkpt lat="42.61072" lon="23.08663">
        <ele>763.048985</ele>
        <time>2022-04-04T10:39:25.894Z</time>
      </trkpt>
      <trkpt lat="42.61074" lon="23.08649">
        <ele>763.19373</ele>
        <time>2022-04-04T10:39:31.882Z</time>
      </trkpt>
      <trkpt lat="42.61074" lon="23.08633">
        <ele>763.349979</ele>
        <time>2022-04-04T10:39:35.901Z</time>
      </trkpt>
      <trkpt lat="42.61074" lon="23.0862">
        <ele>763.478989</ele>
        <time>2022-04-04T10:39:38.889Z</time>
      </trkpt>
      <trkpt lat="42.61075" lon="23.08606">
        <ele>763.611146</ele>
        <time>2022-04-04T10:39:41.890Z</time>
      </trkpt>
      <trkpt lat="42.61076" lon="23.08591">
        <ele>763.758349</ele>
        <time>2022-04-04T10:39:44.926Z</time>
      </trkpt>
      <trkpt lat="42.61076" lon="23.08577">
        <ele>763.894319</ele>
        <time>2022-04-04T10:39:47.892Z</time>
      </trkpt>
      <trkpt lat="42.61076" lon="23.08561">
        <ele>764.053497</ele>
        <time>2022-04-04T10:39:50.943Z</time>
      </trkpt>
      <trkpt lat="42.61076" lon="23.08546">
        <ele>764.201934</ele>
        <time>2022-04-04T10:39:53.885Z</time>
      </trkpt>
      <trkpt lat="42.61077" lon="23.0853">
        <ele>764.354738</ele>
        <time>2022-04-04T10:39:56.916Z</time>
      </trkpt>
      <trkpt lat="42.61078" lon="23.08512">
        <ele>764.527628</ele>
        <time>2022-04-04T10:39:59.886Z</time>
      </trkpt>
      <trkpt lat="42.61078" lon="23.08495">
        <ele>764.693975</ele>
        <time>2022-04-04T10:40:02.926Z</time>
      </trkpt>
      <trkpt lat="42.61079" lon="23.08478">
        <ele>764.867434</ele>
        <time>2022-04-04T10:40:05.907Z</time>
      </trkpt>
      <trkpt lat="42.6108" lon="23.08465">
        <ele>764.987663</ele>
        <time>2022-04-04T10:40:07.891Z</time>
      </trkpt>
      <trkpt lat="42.6108" lon="23.08453">
        <ele>764.944207</ele>
        <time>2022-04-04T10:40:09.887Z</time>
      </trkpt>
      <trkpt lat="42.61081" lon="23.0844">
        <ele>764.870167</ele>
        <time>2022-04-04T10:40:11.876Z</time>
      </trkpt>
      <trkpt lat="42.61081" lon="23.08424">
        <ele>764.773561</ele>
        <time>2022-04-04T10:40:14.908Z</time>
      </trkpt>
      <trkpt lat="42.61082" lon="23.08408">
        <ele>764.678409</ele>
        <time>2022-04-04T10:40:17.890Z</time>
      </trkpt>
      <trkpt lat="42.61082" lon="23.08389">
        <ele>764.565801</ele>
        <time>2022-04-04T10:40:20.894Z</time>
      </trkpt>
      <trkpt lat="42.61082" lon="23.08377">
        <ele>764.489978</ele>
        <time>2022-04-04T10:40:22.874Z</time>
      </trkpt>
      <trkpt lat="42.61081" lon="23.08358">
        <ele>764.381492</ele>
        <time>2022-04-04T10:40:25.874Z</time>
      </trkpt>
      <trkpt lat="42.61082" lon="23.08341">
        <ele>764.280152</ele>
        <time>2022-04-04T10:40:28.898Z</time>
      </trkpt>
      <trkpt lat="42.61082" lon="23.08329">
        <ele>764.205659</ele>
        <time>2022-04-04T10:40:30.886Z</time>
      </trkpt>
      <trkpt lat="42.61082" lon="23.08316">
        <ele>764.128199</ele>
        <time>2022-04-04T10:40:32.898Z</time>
      </trkpt>
      <trkpt lat="42.61082" lon="23.08303">
        <ele>764.052531</ele>
        <time>2022-04-04T10:40:34.909Z</time>
      </trkpt>
      <trkpt lat="42.61082" lon="23.08285">
        <ele>763.946465</ele>
        <time>2022-04-04T10:40:37.926Z</time>
      </trkpt>
      <trkpt lat="42.61081" lon="23.08271">
        <ele>763.858192</ele>
        <time>2022-04-04T10:40:39.906Z</time>
      </trkpt>
      <trkpt lat="42.61081" lon="23.08256">
        <ele>763.769413</ele>
        <time>2022-04-04T10:40:41.891Z</time>
      </trkpt>
      <trkpt lat="42.61082" lon="23.08241">
        <ele>763.68197</ele>
        <time>2022-04-04T10:40:43.921Z</time>
      </trkpt>
      <trkpt lat="42.61084" lon="23.08228">
        <ele>763.600624</ele>
        <time>2022-04-04T10:40:45.886Z</time>
      </trkpt>
      <trkpt lat="42.61085" lon="23.08215">
        <ele>763.511708</ele>
        <time>2022-04-04T10:40:47.902Z</time>
      </trkpt>
      <trkpt lat="42.61085" lon="23.082">
        <ele>763.36924</ele>
        <time>2022-04-04T10:40:50.869Z</time>
      </trkpt>
      <trkpt lat="42.61084" lon="23.08185">
        <ele>763.22361</ele>
        <time>2022-04-04T10:40:53.898Z</time>
      </trkpt>
      <trkpt lat="42.61085" lon="23.08168">
        <ele>763.067279</ele>
        <time>2022-04-04T10:40:56.893Z</time>
      </trkpt>
      <trkpt lat="42.61086" lon="23.08155">
        <ele>762.946367</ele>
        <time>2022-04-04T10:40:58.868Z</time>
      </trkpt>
      <trkpt lat="42.61086" lon="23.08141">
        <ele>762.813181</ele>
        <time>2022-04-04T10:41:00.895Z</time>
      </trkpt>
      <trkpt lat="42.61086" lon="23.08128">
        <ele>762.692109</ele>
        <time>2022-04-04T10:41:02.906Z</time>
      </trkpt>
      <trkpt lat="42.61087" lon="23.08115">
        <ele>762.566415</ele>
        <time>2022-04-04T10:41:04.891Z</time>
      </trkpt>
      <trkpt lat="42.61087" lon="23.08101">
        <ele>762.435101</ele>
        <time>2022-04-04T10:41:06.881Z</time>
      </trkpt>
      <trkpt lat="42.61087" lon="23.08086">
        <ele>762.301988</ele>
        <time>2022-04-04T10:41:08.893Z</time>
      </trkpt>
      <trkpt lat="42.61088" lon="23.08069">
        <ele>762.13795</ele>
        <time>2022-04-04T10:41:11.877Z</time>
      </trkpt>
      <trkpt lat="42.61087" lon="23.08052">
        <ele>761.983284</ele>
        <time>2022-04-04T10:41:14.896Z</time>
      </trkpt>
      <trkpt lat="42.61088" lon="23.08039">
        <ele>761.861951</ele>
        <time>2022-04-04T10:41:16.933Z</time>
      </trkpt>
      <trkpt lat="42.61089" lon="23.08026">
        <ele>761.73807</ele>
        <time>2022-04-04T10:41:18.884Z</time>
      </trkpt>
      <trkpt lat="42.61089" lon="23.08013">
        <ele>761.615989</ele>
        <time>2022-04-04T10:41:20.891Z</time>
      </trkpt>
      <trkpt lat="42.6109" lon="23.08">
        <ele>761.494542</ele>
        <time>2022-04-04T10:41:22.893Z</time>
      </trkpt>
      <trkpt lat="42.6109" lon="23.07983">
        <ele>761.332394</ele>
        <time>2022-04-04T10:41:25.890Z</time>
      </trkpt>
      <trkpt lat="42.6109" lon="23.07968">
        <ele>760.966681</ele>
        <time>2022-04-04T10:41:28.903Z</time>
      </trkpt>
      <trkpt lat="42.6109" lon="23.07951">
        <ele>760.309752</ele>
        <time>2022-04-04T10:41:31.892Z</time>
      </trkpt>
      <trkpt lat="42.6109" lon="23.07938">
        <ele>759.788699</ele>
        <time>2022-04-04T10:41:33.927Z</time>
      </trkpt>
      <trkpt lat="42.6109" lon="23.07925">
        <ele>759.282993</ele>
        <time>2022-04-04T10:41:35.898Z</time>
      </trkpt>
      <trkpt lat="42.61091" lon="23.07911">
        <ele>758.761753</ele>
        <time>2022-04-04T10:41:37.896Z</time>
      </trkpt>
      <trkpt lat="42.61092" lon="23.07898">
        <ele>758.245437</ele>
        <time>2022-04-04T10:41:39.928Z</time>
      </trkpt>
      <trkpt lat="42.61093" lon="23.07884">
        <ele>757.696305</ele>
        <time>2022-04-04T10:41:41.898Z</time>
      </trkpt>
      <trkpt lat="42.61094" lon="23.0787">
        <ele>757.166035</ele>
        <time>2022-04-04T10:41:43.898Z</time>
      </trkpt>
      <trkpt lat="42.61094" lon="23.07857">
        <ele>756.648679</ele>
        <time>2022-04-04T10:41:45.918Z</time>
      </trkpt>
      <trkpt lat="42.61095" lon="23.07844">
        <ele>756.15482</ele>
        <time>2022-04-04T10:41:47.883Z</time>
      </trkpt>
      <trkpt lat="42.61096" lon="23.07832">
        <ele>755.678273</ele>
        <time>2022-04-04T10:41:49.891Z</time>
      </trkpt>
      <trkpt lat="42.61096" lon="23.07815">
        <ele>755.001666</ele>
        <time>2022-04-04T10:41:52.885Z</time>
      </trkpt>
      <trkpt lat="42.61098" lon="23.07801">
        <ele>754.440349</ele>
        <time>2022-04-04T10:41:56.934Z</time>
      </trkpt>
      <trkpt lat="42.61099" lon="23.07789">
        <ele>753.967109</ele>
        <time>2022-04-04T10:41:59.898Z</time>
      </trkpt>
      <trkpt lat="42.61099" lon="23.07771">
        <ele>753.293703</ele>
        <time>2022-04-04T10:42:02.908Z</time>
      </trkpt>
      <trkpt lat="42.61099" lon="23.07754">
        <ele>752.609633</ele>
        <time>2022-04-04T10:42:05.872Z</time>
      </trkpt>
      <trkpt lat="42.61099" lon="23.07741">
        <ele>752.119915</ele>
        <time>2022-04-04T10:42:07.888Z</time>
      </trkpt>
      <trkpt lat="42.61098" lon="23.07728">
        <ele>751.74479</ele>
        <time>2022-04-04T10:42:09.891Z</time>
      </trkpt>
      <trkpt lat="42.61098" lon="23.07715">
        <ele>751.681024</ele>
        <time>2022-04-04T10:42:11.885Z</time>
      </trkpt>
      <trkpt lat="42.61098" lon="23.07702">
        <ele>751.615253</ele>
        <time>2022-04-04T10:42:13.949Z</time>
      </trkpt>
      <trkpt lat="42.61098" lon="23.07689">
        <ele>751.548083</ele>
        <time>2022-04-04T10:42:15.890Z</time>
      </trkpt>
      <trkpt lat="42.61098" lon="23.07675">
        <ele>751.479352</ele>
        <time>2022-04-04T10:42:17.896Z</time>
      </trkpt>
      <trkpt lat="42.61099" lon="23.07661">
        <ele>751.410158</ele>
        <time>2022-04-04T10:42:19.883Z</time>
      </trkpt>
      <trkpt lat="42.61099" lon="23.07648">
        <ele>751.345429</ele>
        <time>2022-04-04T10:42:21.895Z</time>
      </trkpt>
      <trkpt lat="42.61098" lon="23.07635">
        <ele>751.284236</ele>
        <time>2022-04-04T10:42:23.889Z</time>
      </trkpt>
      <trkpt lat="42.61098" lon="23.07619">
        <ele>751.203196</ele>
        <time>2022-04-04T10:42:26.867Z</time>
      </trkpt>
      <trkpt lat="42.61098" lon="23.07604">
        <ele>751.129581</ele>
        <time>2022-04-04T10:42:29.907Z</time>
      </trkpt>
      <trkpt lat="42.61098" lon="23.07588">
        <ele>751.050065</ele>
        <time>2022-04-04T10:42:32.901Z</time>
      </trkpt>
      <trkpt lat="42.61098" lon="23.07572">
        <ele>750.969563</ele>
        <time>2022-04-04T10:42:35.895Z</time>
      </trkpt>
      <trkpt lat="42.61097" lon="23.07555">
        <ele>750.889948</ele>
        <time>2022-04-04T10:42:38.885Z</time>
      </trkpt>
      <trkpt lat="42.61096" lon="23.07539">
        <ele>750.80939</ele>
        <time>2022-04-04T10:42:41.917Z</time>
      </trkpt>
      <trkpt lat="42.61093" lon="23.07522">
        <ele>750.723532</ele>
        <time>2022-04-04T10:42:44.890Z</time>
      </trkpt>
      <trkpt lat="42.6109" lon="23.07508">
        <ele>750.651703</ele>
        <time>2022-04-04T10:42:47.947Z</time>
      </trkpt>
      <trkpt lat="42.61086" lon="23.07494">
        <ele>750.576386</ele>
        <time>2022-04-04T10:42:52.873Z</time>
      </trkpt>
      <trkpt lat="42.61083" lon="23.07482">
        <ele>750.609077</ele>
        <time>2022-04-04T10:42:56.890Z</time>
      </trkpt>
      <trkpt lat="42.61081" lon="23.07469">
        <ele>750.698558</ele>
        <time>2022-04-04T10:43:02.878Z</time>
      </trkpt>
      <trkpt lat="42.61078" lon="23.07455">
        <ele>750.79541</ele>
        <time>2022-04-04T10:43:06.921Z</time>
      </trkpt>
      <trkpt lat="42.61076" lon="23.07441">
        <ele>750.889969</ele>
        <time>2022-04-04T10:43:09.884Z</time>
      </trkpt>
      <trkpt lat="42.61073" lon="23.07427">
        <ele>750.984588</ele>
        <time>2022-04-04T10:43:12.879Z</time>
      </trkpt>
      <trkpt lat="42.61068" lon="23.07414">
        <ele>751.083975</ele>
        <time>2022-04-04T10:43:15.893Z</time>
      </trkpt>
      <trkpt lat="42.61062" lon="23.07399">
        <ele>751.19628</ele>
        <time>2022-04-04T10:43:18.907Z</time>
      </trkpt>
      <trkpt lat="42.61055" lon="23.07385">
        <ele>751.309924</ele>
        <time>2022-04-04T10:43:21.873Z</time>
      </trkpt>
      <trkpt lat="42.61049" lon="23.0737">
        <ele>751.428294</ele>
        <time>2022-04-04T10:43:24.893Z</time>
      </trkpt>
      <trkpt lat="42.61042" lon="23.07354">
        <ele>751.544889</ele>
        <time>2022-04-04T10:43:27.902Z</time>
      </trkpt>
      <trkpt lat="42.61036" lon="23.0734">
        <ele>751.654101</ele>
        <time>2022-04-04T10:43:30.872Z</time>
      </trkpt>
      <trkpt lat="42.6103" lon="23.07325">
        <ele>751.771897</ele>
        <time>2022-04-04T10:43:33.894Z</time>
      </trkpt>
      <trkpt lat="42.61023" lon="23.0731">
        <ele>751.887639</ele>
        <time>2022-04-04T10:43:36.890Z</time>
      </trkpt>
      <trkpt lat="42.61017" lon="23.07294">
        <ele>752.001783</ele>
        <time>2022-04-04T10:43:39.889Z</time>
      </trkpt>
      <trkpt lat="42.61011" lon="23.07278">
        <ele>752.12567</ele>
        <time>2022-04-04T10:43:42.886Z</time>
      </trkpt>
      <trkpt lat="42.61006" lon="23.07267">
        <ele>752.092513</ele>
        <time>2022-04-04T10:43:44.905Z</time>
      </trkpt>
      <trkpt lat="42.61002" lon="23.07256">
        <ele>751.868399</ele>
        <time>2022-04-04T10:43:46.911Z</time>
      </trkpt>
      <trkpt lat="42.60996" lon="23.07241">
        <ele>751.547986</ele>
        <time>2022-04-04T10:43:49.870Z</time>
      </trkpt>
      <trkpt lat="42.60991" lon="23.0723">
        <ele>751.31777</ele>
        <time>2022-04-04T10:43:51.879Z</time>
      </trkpt>
      <trkpt lat="42.60987" lon="23.07219">
        <ele>751.092867</ele>
        <time>2022-04-04T10:43:53.895Z</time>
      </trkpt>
      <trkpt lat="42.6098" lon="23.07204">
        <ele>750.770938</ele>
        <time>2022-04-04T10:43:56.893Z</time>
      </trkpt>
      <trkpt lat="42.60974" lon="23.07188">
        <ele>750.453697</ele>
        <time>2022-04-04T10:43:59.875Z</time>
      </trkpt>
      <trkpt lat="42.60969" lon="23.07177">
        <ele>750.215731</ele>
        <time>2022-04-04T10:44:01.889Z</time>
      </trkpt>
      <trkpt lat="42.60963" lon="23.07166">
        <ele>749.961922</ele>
        <time>2022-04-04T10:44:03.882Z</time>
      </trkpt>
      <trkpt lat="42.60958" lon="23.07154">
        <ele>749.720862</ele>
        <time>2022-04-04T10:44:05.947Z</time>
      </trkpt>
      <trkpt lat="42.60953" lon="23.07143">
        <ele>749.472787</ele>
        <time>2022-04-04T10:44:07.879Z</time>
      </trkpt>
      <trkpt lat="42.60948" lon="23.07131">
        <ele>749.227601</ele>
        <time>2022-04-04T10:44:09.897Z</time>
      </trkpt>
      <trkpt lat="42.60944" lon="23.07119">
        <ele>748.99464</ele>
        <time>2022-04-04T10:44:11.908Z</time>
      </trkpt>
      <trkpt lat="42.6094" lon="23.07108">
        <ele>748.764371</ele>
        <time>2022-04-04T10:44:13.875Z</time>
      </trkpt>
      <trkpt lat="42.60936" lon="23.07096">
        <ele>748.532529</ele>
        <time>2022-04-04T10:44:15.905Z</time>
      </trkpt>
      <trkpt lat="42.60931" lon="23.07086">
        <ele>748.306832</ele>
        <time>2022-04-04T10:44:17.889Z</time>
      </trkpt>
      <trkpt lat="42.60927" lon="23.07074">
        <ele>748.074778</ele>
        <time>2022-04-04T10:44:19.879Z</time>
      </trkpt>
      <trkpt lat="42.60922" lon="23.07064">
        <ele>747.847496</ele>
        <time>2022-04-04T10:44:21.882Z</time>
      </trkpt>
      <trkpt lat="42.60918" lon="23.07053">
        <ele>747.69551</ele>
        <time>2022-04-04T10:44:23.893Z</time>
      </trkpt>
      <trkpt lat="42.60913" lon="23.07042">
        <ele>747.621212</ele>
        <time>2022-04-04T10:44:25.868Z</time>
      </trkpt>
      <trkpt lat="42.60908" lon="23.07031">
        <ele>747.544988</ele>
        <time>2022-04-04T10:44:27.897Z</time>
      </trkpt>
      <trkpt lat="42.60903" lon="23.0702">
        <ele>747.472533</ele>
        <time>2022-04-04T10:44:29.896Z</time>
      </trkpt>
      <trkpt lat="42.60898" lon="23.0701">
        <ele>747.399364</ele>
        <time>2022-04-04T10:44:31.871Z</time>
      </trkpt>
      <trkpt lat="42.60894" lon="23.06999">
        <ele>747.326708</ele>
        <time>2022-04-04T10:44:33.891Z</time>
      </trkpt>
      <trkpt lat="42.60888" lon="23.06983">
        <ele>747.220245</ele>
        <time>2022-04-04T10:44:36.886Z</time>
      </trkpt>
      <trkpt lat="42.60883" lon="23.06972">
        <ele>747.147185</ele>
        <time>2022-04-04T10:44:38.932Z</time>
      </trkpt>
      <trkpt lat="42.60879" lon="23.06961">
        <ele>747.072196</ele>
        <time>2022-04-04T10:44:40.881Z</time>
      </trkpt>
      <trkpt lat="42.60873" lon="23.06946">
        <ele>746.968188</ele>
        <time>2022-04-04T10:44:43.880Z</time>
      </trkpt>
      <trkpt lat="42.60868" lon="23.06935">
        <ele>746.894505</ele>
        <time>2022-04-04T10:44:45.886Z</time>
      </trkpt>
      <trkpt lat="42.60863" lon="23.06924">
        <ele>746.819516</ele>
        <time>2022-04-04T10:44:47.888Z</time>
      </trkpt>
      <trkpt lat="42.60859" lon="23.06912">
        <ele>746.744145</ele>
        <time>2022-04-04T10:44:49.871Z</time>
      </trkpt>
      <trkpt lat="42.60854" lon="23.06901">
        <ele>746.669948</ele>
        <time>2022-04-04T10:44:51.894Z</time>
      </trkpt>
      <trkpt lat="42.60851" lon="23.0689">
        <ele>746.596164</ele>
        <time>2022-04-04T10:44:53.895Z</time>
      </trkpt>
      <trkpt lat="42.60847" lon="23.06878">
        <ele>746.52119</ele>
        <time>2022-04-04T10:44:55.877Z</time>
      </trkpt>
      <trkpt lat="42.60843" lon="23.06867">
        <ele>746.446199</ele>
        <time>2022-04-04T10:44:57.890Z</time>
      </trkpt>
      <trkpt lat="42.60839" lon="23.0685">
        <ele>746.342175</ele>
        <time>2022-04-04T10:45:00.911Z</time>
      </trkpt>
      <trkpt lat="42.60835" lon="23.06834">
        <ele>746.382788</ele>
        <time>2022-04-04T10:45:03.886Z</time>
      </trkpt>
      <trkpt lat="42.60832" lon="23.06819">
        <ele>746.553594</ele>
        <time>2022-04-04T10:45:06.880Z</time>
      </trkpt>
      <trkpt lat="42.60827" lon="23.06802">
        <ele>746.744149</ele>
        <time>2022-04-04T10:45:09.889Z</time>
      </trkpt>
      <trkpt lat="42.60823" lon="23.06786">
        <ele>746.93119</ele>
        <time>2022-04-04T10:45:12.903Z</time>
      </trkpt>
      <trkpt lat="42.60821" lon="23.06769">
        <ele>747.116915</ele>
        <time>2022-04-04T10:45:15.894Z</time>
      </trkpt>
      <trkpt lat="42.60819" lon="23.0675">
        <ele>747.314909</ele>
        <time>2022-04-04T10:45:18.894Z</time>
      </trkpt>
      <trkpt lat="42.60817" lon="23.06738">
        <ele>747.453766</ele>
        <time>2022-04-04T10:45:20.895Z</time>
      </trkpt>
      <trkpt lat="42.60816" lon="23.06724">
        <ele>747.595379</ele>
        <time>2022-04-04T10:45:22.909Z</time>
      </trkpt>
      <trkpt lat="42.60814" lon="23.06709">
        <ele>747.767305</ele>
        <time>2022-04-04T10:45:25.886Z</time>
      </trkpt>
      <trkpt lat="42.60813" lon="23.06692">
        <ele>747.946807</ele>
        <time>2022-04-04T10:45:28.871Z</time>
      </trkpt>
      <trkpt lat="42.60813" lon="23.06675">
        <ele>748.130096</ele>
        <time>2022-04-04T10:45:31.875Z</time>
      </trkpt>
      <trkpt lat="42.60812" lon="23.06659">
        <ele>748.299591</ele>
        <time>2022-04-04T10:45:34.876Z</time>
      </trkpt>
      <trkpt lat="42.60812" lon="23.06642">
        <ele>748.476384</ele>
        <time>2022-04-04T10:45:37.894Z</time>
      </trkpt>
      <trkpt lat="42.60813" lon="23.0663">
        <ele>748.613891</ele>
        <time>2022-04-04T10:45:39.891Z</time>
      </trkpt>
      <trkpt lat="42.60814" lon="23.06617">
        <ele>748.745793</ele>
        <time>2022-04-04T10:45:41.896Z</time>
      </trkpt>
      <trkpt lat="42.60814" lon="23.06602">
        <ele>748.916308</ele>
        <time>2022-04-04T10:45:44.923Z</time>
      </trkpt>
      <trkpt lat="42.60815" lon="23.06589">
        <ele>749.081533</ele>
        <time>2022-04-04T10:45:47.899Z</time>
      </trkpt>
      <trkpt lat="42.60816" lon="23.06574">
        <ele>749.287912</ele>
        <time>2022-04-04T10:45:51.910Z</time>
      </trkpt>
      <trkpt lat="42.60817" lon="23.06558">
        <ele>749.505977</ele>
        <time>2022-04-04T10:45:55.887Z</time>
      </trkpt>
      <trkpt lat="42.60816" lon="23.06545">
        <ele>749.687142</ele>
        <time>2022-04-04T10:45:58.887Z</time>
      </trkpt>
      <trkpt lat="42.60816" lon="23.06532">
        <ele>749.858369</ele>
        <time>2022-04-04T10:46:01.927Z</time>
      </trkpt>
      <trkpt lat="42.60815" lon="23.06516">
        <ele>750.072661</ele>
        <time>2022-04-04T10:46:04.874Z</time>
      </trkpt>
      <trkpt lat="42.60816" lon="23.06499">
        <ele>750.301927</ele>
        <time>2022-04-04T10:46:07.897Z</time>
      </trkpt>
      <trkpt lat="42.60818" lon="23.06482">
        <ele>750.530203</ele>
        <time>2022-04-04T10:46:10.899Z</time>
      </trkpt>
      <trkpt lat="42.60818" lon="23.0647">
        <ele>750.697459</ele>
        <time>2022-04-04T10:46:12.926Z</time>
      </trkpt>
      <trkpt lat="42.60819" lon="23.06453">
        <ele>750.924321</ele>
        <time>2022-04-04T10:46:15.898Z</time>
      </trkpt>
      <trkpt lat="42.60819" lon="23.06435">
        <ele>751.164527</ele>
        <time>2022-04-04T10:46:18.884Z</time>
      </trkpt>
      <trkpt lat="42.6082" lon="23.06423">
        <ele>751.334328</ele>
        <time>2022-04-04T10:46:20.889Z</time>
      </trkpt>
      <trkpt lat="42.6082" lon="23.0641">
        <ele>751.504474</ele>
        <time>2022-04-04T10:46:22.892Z</time>
      </trkpt>
      <trkpt lat="42.60821" lon="23.06397">
        <ele>751.673077</ele>
        <time>2022-04-04T10:46:24.883Z</time>
      </trkpt>
      <trkpt lat="42.60821" lon="23.06384">
        <ele>751.850213</ele>
        <time>2022-04-04T10:46:26.891Z</time>
      </trkpt>
      <trkpt lat="42.60822" lon="23.06371">
        <ele>752.024287</ele>
        <time>2022-04-04T10:46:28.885Z</time>
      </trkpt>
      <trkpt lat="42.60822" lon="23.06359">
        <ele>752.19289</ele>
        <time>2022-04-04T10:46:30.906Z</time>
      </trkpt>
      <trkpt lat="42.60822" lon="23.06346">
        <ele>752.068675</ele>
        <time>2022-04-04T10:46:32.879Z</time>
      </trkpt>
      <trkpt lat="42.60823" lon="23.06328">
        <ele>751.868357</ele>
        <time>2022-04-04T10:46:35.880Z</time>
      </trkpt>
      <trkpt lat="42.60824" lon="23.0631">
        <ele>751.663297</ele>
        <time>2022-04-04T10:46:38.906Z</time>
      </trkpt>
      <trkpt lat="42.60824" lon="23.06296">
        <ele>751.508814</ele>
        <time>2022-04-04T10:46:40.916Z</time>
      </trkpt>
      <trkpt lat="42.60824" lon="23.06283">
        <ele>751.361154</ele>
        <time>2022-04-04T10:46:42.879Z</time>
      </trkpt>
      <trkpt lat="42.60824" lon="23.0627">
        <ele>751.221258</ele>
        <time>2022-04-04T10:46:44.881Z</time>
      </trkpt>
      <trkpt lat="42.60824" lon="23.06253">
        <ele>751.023264</ele>
        <time>2022-04-04T10:46:47.893Z</time>
      </trkpt>
      <trkpt lat="42.60824" lon="23.06234">
        <ele>750.81512</ele>
        <time>2022-04-04T10:46:50.899Z</time>
      </trkpt>
      <trkpt lat="42.60825" lon="23.0622">
        <ele>750.662508</ele>
        <time>2022-04-04T10:46:52.890Z</time>
      </trkpt>
      <trkpt lat="42.60825" lon="23.06207">
        <ele>750.51001</ele>
        <time>2022-04-04T10:46:54.871Z</time>
      </trkpt>
      <trkpt lat="42.60825" lon="23.06189">
        <ele>750.313135</ele>
        <time>2022-04-04T10:46:57.879Z</time>
      </trkpt>
      <trkpt lat="42.60824" lon="23.06172">
        <ele>750.120991</ele>
        <time>2022-04-04T10:47:00.895Z</time>
      </trkpt>
      <trkpt lat="42.60823" lon="23.06156">
        <ele>749.938537</ele>
        <time>2022-04-04T10:47:03.884Z</time>
      </trkpt>
      <trkpt lat="42.60821" lon="23.06139">
        <ele>749.74288</ele>
        <time>2022-04-04T10:47:06.883Z</time>
      </trkpt>
      <trkpt lat="42.60821" lon="23.06121">
        <ele>749.548224</ele>
        <time>2022-04-04T10:47:09.875Z</time>
      </trkpt>
      <trkpt lat="42.60822" lon="23.06108">
        <ele>749.512401</ele>
        <time>2022-04-04T10:47:12.892Z</time>
      </trkpt>
      <trkpt lat="42.60821" lon="23.06096">
        <ele>749.598756</ele>
        <time>2022-04-04T10:47:16.891Z</time>
      </trkpt>
      <trkpt lat="42.6082" lon="23.06084">
        <ele>749.683724</ele>
        <time>2022-04-04T10:47:19.886Z</time>
      </trkpt>
      <trkpt lat="42.60818" lon="23.06069">
        <ele>749.789519</ele>
        <time>2022-04-04T10:47:22.890Z</time>
      </trkpt>
      <trkpt lat="42.60818" lon="23.06052">
        <ele>749.90628</ele>
        <time>2022-04-04T10:47:25.885Z</time>
      </trkpt>
      <trkpt lat="42.60817" lon="23.06035">
        <ele>750.026871</ele>
        <time>2022-04-04T10:47:28.900Z</time>
      </trkpt>
      <trkpt lat="42.60815" lon="23.06018">
        <ele>750.142549</ele>
        <time>2022-04-04T10:47:31.903Z</time>
      </trkpt>
      <trkpt lat="42.60814" lon="23.06002">
        <ele>750.253799</ele>
        <time>2022-04-04T10:47:34.888Z</time>
      </trkpt>
      <trkpt lat="42.60814" lon="23.0599">
        <ele>750.340669</ele>
        <time>2022-04-04T10:47:36.912Z</time>
      </trkpt>
      <trkpt lat="42.60813" lon="23.05977">
        <ele>750.431149</ele>
        <time>2022-04-04T10:47:38.899Z</time>
      </trkpt>
      <trkpt lat="42.60812" lon="23.05964">
        <ele>750.525201</ele>
        <time>2022-04-04T10:47:40.871Z</time>
      </trkpt>
      <trkpt lat="42.60811" lon="23.0595">
        <ele>750.618626</ele>
        <time>2022-04-04T10:47:42.869Z</time>
      </trkpt>
      <trkpt lat="42.6081" lon="23.05938">
        <ele>750.70423</ele>
        <time>2022-04-04T10:47:44.885Z</time>
      </trkpt>
      <trkpt lat="42.6081" lon="23.05922">
        <ele>750.81706</ele>
        <time>2022-04-04T10:47:47.909Z</time>
      </trkpt>
      <trkpt lat="42.60808" lon="23.05903">
        <ele>750.944936</ele>
        <time>2022-04-04T10:47:50.897Z</time>
      </trkpt>
      <trkpt lat="42.60806" lon="23.05892">
        <ele>751.029555</ele>
        <time>2022-04-04T10:47:52.867Z</time>
      </trkpt>
      <trkpt lat="42.60803" lon="23.05875">
        <ele>751.148479</ele>
        <time>2022-04-04T10:47:55.888Z</time>
      </trkpt>
      <trkpt lat="42.60801" lon="23.05857">
        <ele>751.043954</ele>
        <time>2022-04-04T10:47:58.893Z</time>
      </trkpt>
      <trkpt lat="42.608" lon="23.05845">
        <ele>750.941968</ele>
        <time>2022-04-04T10:48:00.871Z</time>
      </trkpt>
      <trkpt lat="42.60798" lon="23.05829">
        <ele>750.811203</ele>
        <time>2022-04-04T10:48:03.891Z</time>
      </trkpt>
      <trkpt lat="42.60796" lon="23.05811">
        <ele>750.659693</ele>
        <time>2022-04-04T10:48:06.902Z</time>
      </trkpt>
      <trkpt lat="42.60794" lon="23.05798">
        <ele>750.553625</ele>
        <time>2022-04-04T10:48:08.873Z</time>
      </trkpt>
      <trkpt lat="42.60793" lon="23.05786">
        <ele>750.450812</ele>
        <time>2022-04-04T10:48:10.884Z</time>
      </trkpt>
      <trkpt lat="42.60792" lon="23.05768">
        <ele>750.300099</ele>
        <time>2022-04-04T10:48:13.885Z</time>
      </trkpt>
      <trkpt lat="42.60791" lon="23.05751">
        <ele>750.158413</ele>
        <time>2022-04-04T10:48:16.887Z</time>
      </trkpt>
      <trkpt lat="42.60791" lon="23.05738">
        <ele>750.052666</ele>
        <time>2022-04-04T10:48:19.891Z</time>
      </trkpt>
      <trkpt lat="42.60791" lon="23.05724">
        <ele>749.941707</ele>
        <time>2022-04-04T10:48:24.889Z</time>
      </trkpt>
      <trkpt lat="42.60792" lon="23.0571">
        <ele>749.824371</ele>
        <time>2022-04-04T10:48:27.895Z</time>
      </trkpt>
      <trkpt lat="42.60791" lon="23.05695">
        <ele>749.69452</ele>
        <time>2022-04-04T10:48:30.890Z</time>
      </trkpt>
      <trkpt lat="42.6079" lon="23.05679">
        <ele>749.565788</ele>
        <time>2022-04-04T10:48:33.887Z</time>
      </trkpt>
      <trkpt lat="42.60786" lon="23.05666">
        <ele>749.450929</ele>
        <time>2022-04-04T10:48:36.895Z</time>
      </trkpt>
      <trkpt lat="42.60782" lon="23.05653">
        <ele>749.333857</ele>
        <time>2022-04-04T10:48:40.878Z</time>
      </trkpt>
      <trkpt lat="42.60781" lon="23.05639">
        <ele>749.220344</ele>
        <time>2022-04-04T10:48:43.882Z</time>
      </trkpt>
      <trkpt lat="42.60779" lon="23.05624">
        <ele>748.981754</ele>
        <time>2022-04-04T10:48:46.893Z</time>
      </trkpt>
      <trkpt lat="42.60776" lon="23.05609">
        <ele>748.595583</ele>
        <time>2022-04-04T10:48:49.881Z</time>
      </trkpt>
      <trkpt lat="42.60774" lon="23.05593">
        <ele>748.202184</ele>
        <time>2022-04-04T10:48:52.939Z</time>
      </trkpt>
      <trkpt lat="42.60772" lon="23.05576">
        <ele>747.798586</ele>
        <time>2022-04-04T10:48:55.899Z</time>
      </trkpt>
      <trkpt lat="42.6077" lon="23.05564">
        <ele>747.500316</ele>
        <time>2022-04-04T10:48:57.889Z</time>
      </trkpt>
      <trkpt lat="42.6077" lon="23.05552">
        <ele>747.201236</ele>
        <time>2022-04-04T10:48:59.891Z</time>
      </trkpt>
      <trkpt lat="42.6077" lon="23.05539">
        <ele>746.893787</ele>
        <time>2022-04-04T10:49:01.891Z</time>
      </trkpt>
      <trkpt lat="42.6077" lon="23.05521">
        <ele>746.460676</ele>
        <time>2022-04-04T10:49:04.886Z</time>
      </trkpt>
      <trkpt lat="42.60769" lon="23.05505">
        <ele>746.067817</ele>
        <time>2022-04-04T10:49:07.899Z</time>
      </trkpt>
      <trkpt lat="42.60769" lon="23.05489">
        <ele>745.685292</ele>
        <time>2022-04-04T10:49:10.895Z</time>
      </trkpt>
      <trkpt lat="42.60768" lon="23.05473">
        <ele>745.290224</ele>
        <time>2022-04-04T10:49:13.892Z</time>
      </trkpt>
      <trkpt lat="42.60767" lon="23.05458">
        <ele>744.928967</ele>
        <time>2022-04-04T10:49:17.877Z</time>
      </trkpt>
      <trkpt lat="42.60767" lon="23.05442">
        <ele>744.54896</ele>
        <time>2022-04-04T10:49:20.918Z</time>
      </trkpt>
      <trkpt lat="42.60771" lon="23.05425">
        <ele>744.116104</ele>
        <time>2022-04-04T10:49:23.898Z</time>
      </trkpt>
      <trkpt lat="42.60773" lon="23.05412">
        <ele>743.777553</ele>
        <time>2022-04-04T10:49:25.901Z</time>
      </trkpt>
      <trkpt lat="42.60772" lon="23.05396">
        <ele>743.40457</ele>
        <time>2022-04-04T10:49:27.885Z</time>
      </trkpt>
      <trkpt lat="42.60772" lon="23.05382">
        <ele>743.468057</ele>
        <time>2022-04-04T10:49:29.919Z</time>
      </trkpt>
      <trkpt lat="42.60772" lon="23.05368">
        <ele>743.927526</ele>
        <time>2022-04-04T10:49:31.879Z</time>
      </trkpt>
      <trkpt lat="42.60772" lon="23.05354">
        <ele>744.377925</ele>
        <time>2022-04-04T10:49:33.890Z</time>
      </trkpt>
      <trkpt lat="42.60773" lon="23.0534">
        <ele>744.803692</ele>
        <time>2022-04-04T10:49:35.894Z</time>
      </trkpt>
      <trkpt lat="42.60773" lon="23.05324">
        <ele>745.330215</ele>
        <time>2022-04-04T10:49:38.878Z</time>
      </trkpt>
      <trkpt lat="42.60775" lon="23.05308">
        <ele>745.839691</ele>
        <time>2022-04-04T10:49:41.881Z</time>
      </trkpt>
      <trkpt lat="42.60776" lon="23.05291">
        <ele>746.385979</ele>
        <time>2022-04-04T10:49:44.887Z</time>
      </trkpt>
      <trkpt lat="42.60776" lon="23.05276">
        <ele>746.852313</ele>
        <time>2022-04-04T10:49:47.873Z</time>
      </trkpt>
      <trkpt lat="42.60775" lon="23.05261">
        <ele>747.33216</ele>
        <time>2022-04-04T10:49:50.891Z</time>
      </trkpt>
      <trkpt lat="42.60774" lon="23.05248">
        <ele>747.768244</ele>
        <time>2022-04-04T10:49:53.874Z</time>
      </trkpt>
      <trkpt lat="42.60774" lon="23.05234">
        <ele>748.195809</ele>
        <time>2022-04-04T10:49:56.879Z</time>
      </trkpt>
      <trkpt lat="42.60774" lon="23.05222">
        <ele>748.591825</ele>
        <time>2022-04-04T10:49:59.932Z</time>
      </trkpt>
      <trkpt lat="42.60775" lon="23.05207">
        <ele>749.085089</ele>
        <time>2022-04-04T10:50:02.929Z</time>
      </trkpt>
      <trkpt lat="42.60775" lon="23.05192">
        <ele>749.541676</ele>
        <time>2022-04-04T10:50:05.875Z</time>
      </trkpt>
      <trkpt lat="42.60775" lon="23.05179">
        <ele>749.978984</ele>
        <time>2022-04-04T10:50:09.886Z</time>
      </trkpt>
      <trkpt lat="42.60776" lon="23.05166">
        <ele>750.395595</ele>
        <time>2022-04-04T10:50:12.956Z</time>
      </trkpt>
      <trkpt lat="42.60776" lon="23.05151">
        <ele>750.875148</ele>
        <time>2022-04-04T10:50:15.887Z</time>
      </trkpt>
      <trkpt lat="42.60778" lon="23.05137">
        <ele>750.955837</ele>
        <time>2022-04-04T10:50:18.899Z</time>
      </trkpt>
      <trkpt lat="42.60781" lon="23.05122">
        <ele>750.829243</ele>
        <time>2022-04-04T10:50:21.905Z</time>
      </trkpt>
      <trkpt lat="42.60785" lon="23.05109">
        <ele>750.705302</ele>
        <time>2022-04-04T10:50:24.898Z</time>
      </trkpt>
      <trkpt lat="42.60786" lon="23.05095">
        <ele>750.585292</ele>
        <time>2022-04-04T10:50:27.894Z</time>
      </trkpt>
      <trkpt lat="42.60788" lon="23.05082">
        <ele>750.468888</ele>
        <time>2022-04-04T10:50:30.937Z</time>
      </trkpt>
      <trkpt lat="42.60788" lon="23.05068">
        <ele>750.354839</ele>
        <time>2022-04-04T10:50:33.905Z</time>
      </trkpt>
      <trkpt lat="42.60788" lon="23.05053">
        <ele>750.220211</ele>
        <time>2022-04-04T10:50:37.885Z</time>
      </trkpt>
      <trkpt lat="42.60788" lon="23.05038">
        <ele>750.098423</ele>
        <time>2022-04-04T10:50:41.892Z</time>
      </trkpt>
      <trkpt lat="42.6078" lon="23.05028">
        <ele>749.970912</ele>
        <time>2022-04-04T10:50:45.890Z</time>
      </trkpt>
      <trkpt lat="42.60769" lon="23.05021">
        <ele>749.831157</ele>
        <time>2022-04-04T10:50:48.924Z</time>
      </trkpt>
      <trkpt lat="42.60758" lon="23.0502">
        <ele>749.703597</ele>
        <time>2022-04-04T10:50:51.906Z</time>
      </trkpt>
      <trkpt lat="42.60748" lon="23.0502">
        <ele>749.587076</ele>
        <time>2022-04-04T10:50:53.884Z</time>
      </trkpt>
      <trkpt lat="42.60739" lon="23.0502">
        <ele>749.475228</ele>
        <time>2022-04-04T10:50:55.876Z</time>
      </trkpt>
      <trkpt lat="42.60728" lon="23.05018">
        <ele>749.347668</ele>
        <time>2022-04-04T10:50:58.890Z</time>
      </trkpt>
      <trkpt lat="42.60716" lon="23.05016">
        <ele>749.209325</ele>
        <time>2022-04-04T10:51:01.909Z</time>
      </trkpt>
      <trkpt lat="42.60704" lon="23.05017">
        <ele>749.069386</ele>
        <time>2022-04-04T10:51:04.889Z</time>
      </trkpt>
      <trkpt lat="42.60692" lon="23.05018">
        <ele>748.929682</ele>
        <time>2022-04-04T10:51:07.943Z</time>
      </trkpt>
      <trkpt lat="42.6068" lon="23.05018">
        <ele>748.475763</ele>
        <time>2022-04-04T10:51:10.905Z</time>
      </trkpt>
      <trkpt lat="42.6067" lon="23.05015">
        <ele>748.070485</ele>
        <time>2022-04-04T10:51:14.899Z</time>
      </trkpt>
      <trkpt lat="42.60669" lon="23.05">
        <ele>747.647649</ele>
        <time>2022-04-04T10:51:18.902Z</time>
      </trkpt>
      <trkpt lat="42.60672" lon="23.04986">
        <ele>747.260859</ele>
        <time>2022-04-04T10:51:21.882Z</time>
      </trkpt>
      <trkpt lat="42.60672" lon="23.04973">
        <ele>746.881548</ele>
        <time>2022-04-04T10:51:24.880Z</time>
      </trkpt>
      <trkpt lat="42.60675" lon="23.04959">
        <ele>746.500125</ele>
        <time>2022-04-04T10:51:27.881Z</time>
      </trkpt>
      <trkpt lat="42.60677" lon="23.04944">
        <ele>746.079122</ele>
        <time>2022-04-04T10:51:30.918Z</time>
      </trkpt>
      <trkpt lat="42.60678" lon="23.04931">
        <ele>745.690185</ele>
        <time>2022-04-04T10:51:33.925Z</time>
      </trkpt>
      <trkpt lat="42.6068" lon="23.04917">
        <ele>745.313382</ele>
        <time>2022-04-04T10:51:36.900Z</time>
      </trkpt>
      <trkpt lat="42.60681" lon="23.04905">
        <ele>744.972375</ele>
        <time>2022-04-04T10:51:39.945Z</time>
      </trkpt>
      <trkpt lat="42.60683" lon="23.04892">
        <ele>744.612305</ele>
        <time>2022-04-04T10:51:42.888Z</time>
      </trkpt>
      <trkpt lat="42.60684" lon="23.04879">
        <ele>744.241332</ele>
        <time>2022-04-04T10:51:45.916Z</time>
      </trkpt>
      <trkpt lat="42.60683" lon="23.04866">
        <ele>743.865466</ele>
        <time>2022-04-04T10:51:48.903Z</time>
      </trkpt>
      <trkpt lat="42.60685" lon="23.04852">
        <ele>743.487324</ele>
        <time>2022-04-04T10:51:51.906Z</time>
      </trkpt>
      <trkpt lat="42.60685" lon="23.0484">
        <ele>743.137656</ele>
        <time>2022-04-04T10:51:54.898Z</time>
      </trkpt>
      <trkpt lat="42.60686" lon="23.04825">
        <ele>742.733686</ele>
        <time>2022-04-04T10:51:58.890Z</time>
      </trkpt>
      <trkpt lat="42.60688" lon="23.04811">
        <ele>742.331178</ele>
        <time>2022-04-04T10:52:02.897Z</time>
      </trkpt>
      <trkpt lat="42.6069" lon="23.04796">
        <ele>742.209404</ele>
        <time>2022-04-04T10:52:07.918Z</time>
      </trkpt>
      <trkpt lat="42.60685" lon="23.04769">
        <ele>742.478349</ele>
        <time>2022-04-04T10:52:31.932Z</time>
      </trkpt>
      <trkpt lat="42.60681" lon="23.04757">
        <ele>742.609624</ele>
        <time>2022-04-04T10:52:35.919Z</time>
      </trkpt>
      <trkpt lat="42.60676" lon="23.04746">
        <ele>742.729978</ele>
        <time>2022-04-04T10:52:38.889Z</time>
      </trkpt>
      <trkpt lat="42.6067" lon="23.04732">
        <ele>742.883572</ele>
        <time>2022-04-04T10:52:41.923Z</time>
      </trkpt>
      <trkpt lat="42.60662" lon="23.04719">
        <ele>743.048429</ele>
        <time>2022-04-04T10:52:44.908Z</time>
      </trkpt>
      <trkpt lat="42.60654" lon="23.04707">
        <ele>743.210089</ele>
        <time>2022-04-04T10:52:47.914Z</time>
      </trkpt>
      <trkpt lat="42.60645" lon="23.04693">
        <ele>743.377358</ele>
        <time>2022-04-04T10:52:50.877Z</time>
      </trkpt>
      <trkpt lat="42.60637" lon="23.04681">
        <ele>743.542197</ele>
        <time>2022-04-04T10:52:53.902Z</time>
      </trkpt>
      <trkpt lat="42.60629" lon="23.04668">
        <ele>743.699954</ele>
        <time>2022-04-04T10:52:56.887Z</time>
      </trkpt>
      <trkpt lat="42.60623" lon="23.04656">
        <ele>743.840596</ele>
        <time>2022-04-04T10:52:59.876Z</time>
      </trkpt>
      <trkpt lat="42.60618" lon="23.04643">
        <ele>743.977497</ele>
        <time>2022-04-04T10:53:02.903Z</time>
      </trkpt>
      <trkpt lat="42.60613" lon="23.04631">
        <ele>744.113342</ele>
        <time>2022-04-04T10:53:05.888Z</time>
      </trkpt>
      <trkpt lat="42.60612" lon="23.04615">
        <ele>744.265465</ele>
        <time>2022-04-04T10:53:09.864Z</time>
      </trkpt>
      <trkpt lat="42.60612" lon="23.04601">
        <ele>744.394013</ele>
        <time>2022-04-04T10:53:13.886Z</time>
      </trkpt>
      <trkpt lat="42.60613" lon="23.04588">
        <ele>744.515983</ele>
        <time>2022-04-04T10:53:19.874Z</time>
      </trkpt>
      <trkpt lat="42.60616" lon="23.04564">
        <ele>744.715079</ele>
        <time>2022-04-04T10:53:50.892Z</time>
      </trkpt>
      <trkpt lat="42.60618" lon="23.04547">
        <ele>744.861555</ele>
        <time>2022-04-04T10:53:53.961Z</time>
      </trkpt>
      <trkpt lat="42.60621" lon="23.04533">
        <ele>744.980319</ele>
        <time>2022-04-04T10:53:55.888Z</time>
      </trkpt>
      <trkpt lat="42.60624" lon="23.0452">
        <ele>745.09859</ele>
        <time>2022-04-04T10:53:57.875Z</time>
      </trkpt>
      <trkpt lat="42.60627" lon="23.04506">
        <ele>745.215127</ele>
        <time>2022-04-04T10:53:59.882Z</time>
      </trkpt>
      <trkpt lat="42.60632" lon="23.04491">
        <ele>745.350383</ele>
        <time>2022-04-04T10:54:01.896Z</time>
      </trkpt>
      <trkpt lat="42.60638" lon="23.04474">
        <ele>745.509275</ele>
        <time>2022-04-04T10:54:03.883Z</time>
      </trkpt>
      <trkpt lat="42.60647" lon="23.04458">
        <ele>745.671712</ele>
        <time>2022-04-04T10:54:05.909Z</time>
      </trkpt>
      <trkpt lat="42.60653" lon="23.04443">
        <ele>745.815414</ele>
        <time>2022-04-04T10:54:07.914Z</time>
      </trkpt>
      <trkpt lat="42.60658" lon="23.04431">
        <ele>745.931652</ele>
        <time>2022-04-04T10:54:09.898Z</time>
      </trkpt>
      <trkpt lat="42.60662" lon="23.04419">
        <ele>746.045191</ele>
        <time>2022-04-04T10:54:11.925Z</time>
      </trkpt>
      <trkpt lat="42.60666" lon="23.04407">
        <ele>746.147043</ele>
        <time>2022-04-04T10:54:13.895Z</time>
      </trkpt>
      <trkpt lat="42.60672" lon="23.04391">
        <ele>746.301479</ele>
        <time>2022-04-04T10:54:16.895Z</time>
      </trkpt>
      <trkpt lat="42.60677" lon="23.04378">
        <ele>746.420972</ele>
        <time>2022-04-04T10:54:18.894Z</time>
      </trkpt>
      <trkpt lat="42.60683" lon="23.04366">
        <ele>746.487995</ele>
        <time>2022-04-04T10:54:20.927Z</time>
      </trkpt>
      <trkpt lat="42.60689" lon="23.04353">
        <ele>746.399006</ele>
        <time>2022-04-04T10:54:22.893Z</time>
      </trkpt>
      <trkpt lat="42.60697" lon="23.04339">
        <ele>746.303442</ele>
        <time>2022-04-04T10:54:24.905Z</time>
      </trkpt>
      <trkpt lat="42.60702" lon="23.04324">
        <ele>746.213353</ele>
        <time>2022-04-04T10:54:26.875Z</time>
      </trkpt>
      <trkpt lat="42.60703" lon="23.0431">
        <ele>746.134748</ele>
        <time>2022-04-04T10:54:28.885Z</time>
      </trkpt>
      <trkpt lat="42.60703" lon="23.04293">
        <ele>746.042353</ele>
        <time>2022-04-04T10:54:31.878Z</time>
      </trkpt>
      <trkpt lat="42.60702" lon="23.04279">
        <ele>745.966962</ele>
        <time>2022-04-04T10:54:34.890Z</time>
      </trkpt>
      <trkpt lat="42.60701" lon="23.04263">
        <ele>745.878069</ele>
        <time>2022-04-04T10:54:37.892Z</time>
      </trkpt>
      <trkpt lat="42.60699" lon="23.04248">
        <ele>745.790785</ele>
        <time>2022-04-04T10:54:40.896Z</time>
      </trkpt>
      <trkpt lat="42.60697" lon="23.0423">
        <ele>745.693274</ele>
        <time>2022-04-04T10:54:43.895Z</time>
      </trkpt>
      <trkpt lat="42.60696" lon="23.04217">
        <ele>745.621848</ele>
        <time>2022-04-04T10:54:45.888Z</time>
      </trkpt>
      <trkpt lat="42.60695" lon="23.04204">
        <ele>745.547782</ele>
        <time>2022-04-04T10:54:47.880Z</time>
      </trkpt>
      <trkpt lat="42.60694" lon="23.04191">
        <ele>745.477274</ele>
        <time>2022-04-04T10:54:49.899Z</time>
      </trkpt>
      <trkpt lat="42.60693" lon="23.04178">
        <ele>745.40664</ele>
        <time>2022-04-04T10:54:51.911Z</time>
      </trkpt>
      <trkpt lat="42.60693" lon="23.04162">
        <ele>745.318045</ele>
        <time>2022-04-04T10:54:53.878Z</time>
      </trkpt>
      <trkpt lat="42.60692" lon="23.04148">
        <ele>745.238717</ele>
        <time>2022-04-04T10:54:55.891Z</time>
      </trkpt>
      <trkpt lat="42.60691" lon="23.04134">
        <ele>745.16547</ele>
        <time>2022-04-04T10:54:57.861Z</time>
      </trkpt>
      <trkpt lat="42.60691" lon="23.04116">
        <ele>744.919777</ele>
        <time>2022-04-04T10:55:00.887Z</time>
      </trkpt>
      <trkpt lat="42.6069" lon="23.04101">
        <ele>744.716521</ele>
        <time>2022-04-04T10:55:02.890Z</time>
      </trkpt>
      <trkpt lat="42.6069" lon="23.04088">
        <ele>744.535122</ele>
        <time>2022-04-04T10:55:04.891Z</time>
      </trkpt>
      <trkpt lat="42.60691" lon="23.04075">
        <ele>744.368532</ele>
        <time>2022-04-04T10:55:06.931Z</time>
      </trkpt>
      <trkpt lat="42.60692" lon="23.04063">
        <ele>744.201918</ele>
        <time>2022-04-04T10:55:08.887Z</time>
      </trkpt>
      <trkpt lat="42.60694" lon="23.04046">
        <ele>743.967602</ele>
        <time>2022-04-04T10:55:11.884Z</time>
      </trkpt>
      <trkpt lat="42.60697" lon="23.04034">
        <ele>743.795345</ele>
        <time>2022-04-04T10:55:13.902Z</time>
      </trkpt>
      <trkpt lat="42.607" lon="23.04022">
        <ele>743.625117</ele>
        <time>2022-04-04T10:55:15.879Z</time>
      </trkpt>
      <trkpt lat="42.60704" lon="23.0401">
        <ele>743.449001</ele>
        <time>2022-04-04T10:55:17.877Z</time>
      </trkpt>
      <trkpt lat="42.60708" lon="23.03999">
        <ele>743.271977</ele>
        <time>2022-04-04T10:55:19.893Z</time>
      </trkpt>
      <trkpt lat="42.60714" lon="23.03987">
        <ele>743.087572</ele>
        <time>2022-04-04T10:55:21.993Z</time>
      </trkpt>
      <trkpt lat="42.6072" lon="23.03976">
        <ele>742.892369</ele>
        <time>2022-04-04T10:55:23.893Z</time>
      </trkpt>
      <trkpt lat="42.60726" lon="23.03965">
        <ele>742.705934</ele>
        <time>2022-04-04T10:55:25.904Z</time>
      </trkpt>
      <trkpt lat="42.60735" lon="23.03951">
        <ele>742.46374</ele>
        <time>2022-04-04T10:55:28.877Z</time>
      </trkpt>
      <trkpt lat="42.6074" lon="23.03942">
        <ele>742.298734</ele>
        <time>2022-04-04T10:55:30.891Z</time>
      </trkpt>
      <trkpt lat="42.60749" lon="23.03929">
        <ele>742.064132</ele>
        <time>2022-04-04T10:55:33.893Z</time>
      </trkpt>
      <trkpt lat="42.60756" lon="23.0392">
        <ele>741.888938</ele>
        <time>2022-04-04T10:55:35.881Z</time>
      </trkpt>
      <trkpt lat="42.60762" lon="23.03909">
        <ele>742.28277</ele>
        <time>2022-04-04T10:55:37.882Z</time>
      </trkpt>
      <trkpt lat="42.60769" lon="23.03898">
        <ele>742.825664</ele>
        <time>2022-04-04T10:55:39.890Z</time>
      </trkpt>
      <trkpt lat="42.60777" lon="23.03889">
        <ele>743.324021</ele>
        <time>2022-04-04T10:55:41.904Z</time>
      </trkpt>
      <trkpt lat="42.60783" lon="23.0388">
        <ele>743.775891</ele>
        <time>2022-04-04T10:55:43.934Z</time>
      </trkpt>
      <trkpt lat="42.6079" lon="23.03866">
        <ele>744.414144</ele>
        <time>2022-04-04T10:55:46.905Z</time>
      </trkpt>
      <trkpt lat="42.60798" lon="23.03852">
        <ele>745.064759</ele>
        <time>2022-04-04T10:55:49.897Z</time>
      </trkpt>
      <trkpt lat="42.60804" lon="23.03836">
        <ele>745.721127</ele>
        <time>2022-04-04T10:55:52.899Z</time>
      </trkpt>
      <trkpt lat="42.60805" lon="23.03823">
        <ele>746.211222</ele>
        <time>2022-04-04T10:55:54.897Z</time>
      </trkpt>
      <trkpt lat="42.60806" lon="23.03809">
        <ele>746.719068</ele>
        <time>2022-04-04T10:55:56.892Z</time>
      </trkpt>
      <trkpt lat="42.60806" lon="23.03797">
        <ele>747.196698</ele>
        <time>2022-04-04T10:55:58.888Z</time>
      </trkpt>
      <trkpt lat="42.60805" lon="23.0378">
        <ele>747.817035</ele>
        <time>2022-04-04T10:56:01.925Z</time>
      </trkpt>
      <trkpt lat="42.60802" lon="23.03762">
        <ele>748.474331</ele>
        <time>2022-04-04T10:56:04.900Z</time>
      </trkpt>
      <trkpt lat="42.60799" lon="23.03746">
        <ele>749.125038</ele>
        <time>2022-04-04T10:56:07.908Z</time>
      </trkpt>
      <trkpt lat="42.60794" lon="23.0373">
        <ele>749.755736</ele>
        <time>2022-04-04T10:56:10.898Z</time>
      </trkpt>
      <trkpt lat="42.6079" lon="23.03714">
        <ele>750.374349</ele>
        <time>2022-04-04T10:56:13.882Z</time>
      </trkpt>
      <trkpt lat="42.60787" lon="23.03698">
        <ele>750.827599</ele>
        <time>2022-04-04T10:56:16.893Z</time>
      </trkpt>
      <trkpt lat="42.60784" lon="23.03686">
        <ele>750.338259</ele>
        <time>2022-04-04T10:56:18.923Z</time>
      </trkpt>
      <trkpt lat="42.60781" lon="23.03674">
        <ele>749.817133</ele>
        <time>2022-04-04T10:56:20.880Z</time>
      </trkpt>
      <trkpt lat="42.60776" lon="23.03659">
        <ele>749.137262</ele>
        <time>2022-04-04T10:56:23.885Z</time>
      </trkpt>
      <trkpt lat="42.60771" lon="23.03645">
        <ele>748.537312</ele>
        <time>2022-04-04T10:56:26.890Z</time>
      </trkpt>
      <trkpt lat="42.60767" lon="23.03629">
        <ele>747.840974</ele>
        <time>2022-04-04T10:56:29.888Z</time>
      </trkpt>
      <trkpt lat="42.60765" lon="23.03615">
        <ele>747.277742</ele>
        <time>2022-04-04T10:56:32.889Z</time>
      </trkpt>
      <trkpt lat="42.60763" lon="23.036">
        <ele>746.663014</ele>
        <time>2022-04-04T10:56:35.886Z</time>
      </trkpt>
      <trkpt lat="42.60761" lon="23.03583">
        <ele>745.984904</ele>
        <time>2022-04-04T10:56:38.871Z</time>
      </trkpt>
      <trkpt lat="42.60757" lon="23.03567">
        <ele>745.285081</ele>
        <time>2022-04-04T10:56:41.906Z</time>
      </trkpt>
      <trkpt lat="42.60753" lon="23.03555">
        <ele>744.780867</ele>
        <time>2022-04-04T10:56:43.886Z</time>
      </trkpt>
      <trkpt lat="42.6075" lon="23.03542">
        <ele>744.242795</ele>
        <time>2022-04-04T10:56:45.890Z</time>
      </trkpt>
      <trkpt lat="42.60747" lon="23.03528">
        <ele>743.645246</ele>
        <time>2022-04-04T10:56:47.882Z</time>
      </trkpt>
      <trkpt lat="42.60743" lon="23.03513">
        <ele>743.014916</ele>
        <time>2022-04-04T10:56:49.906Z</time>
      </trkpt>
      <trkpt lat="42.6074" lon="23.03498">
        <ele>742.363853</ele>
        <time>2022-04-04T10:56:51.931Z</time>
      </trkpt>
      <trkpt lat="42.60736" lon="23.03482">
        <ele>741.711039</ele>
        <time>2022-04-04T10:56:53.890Z</time>
      </trkpt>
      <trkpt lat="42.60731" lon="23.03466">
        <ele>741.054306</ele>
        <time>2022-04-04T10:56:55.887Z</time>
      </trkpt>
      <trkpt lat="42.60728" lon="23.03451">
        <ele>740.661337</ele>
        <time>2022-04-04T10:56:57.900Z</time>
      </trkpt>
      <trkpt lat="42.60723" lon="23.03435">
        <ele>740.253843</ele>
        <time>2022-04-04T10:56:59.925Z</time>
      </trkpt>
      <trkpt lat="42.60719" lon="23.0342">
        <ele>739.851895</ele>
        <time>2022-04-04T10:57:01.906Z</time>
      </trkpt>
      <trkpt lat="42.60713" lon="23.03405">
        <ele>739.451496</ele>
        <time>2022-04-04T10:57:03.907Z</time>
      </trkpt>
      <trkpt lat="42.60708" lon="23.03391">
        <ele>739.061247</ele>
        <time>2022-04-04T10:57:05.882Z</time>
      </trkpt>
      <trkpt lat="42.60702" lon="23.03377">
        <ele>738.668198</ele>
        <time>2022-04-04T10:57:07.883Z</time>
      </trkpt>
      <trkpt lat="42.60697" lon="23.03363">
        <ele>738.289199</ele>
        <time>2022-04-04T10:57:09.896Z</time>
      </trkpt>
      <trkpt lat="42.6069" lon="23.03351">
        <ele>737.930755</ele>
        <time>2022-04-04T10:57:11.942Z</time>
      </trkpt>
      <trkpt lat="42.60684" lon="23.0334">
        <ele>737.586006</ele>
        <time>2022-04-04T10:57:13.891Z</time>
      </trkpt>
      <trkpt lat="42.60678" lon="23.03326">
        <ele>737.196941</ele>
        <time>2022-04-04T10:57:15.878Z</time>
      </trkpt>
      <trkpt lat="42.60671" lon="23.03312">
        <ele>736.797081</ele>
        <time>2022-04-04T10:57:17.887Z</time>
      </trkpt>
      <trkpt lat="42.60664" lon="23.03299">
        <ele>736.409204</ele>
        <time>2022-04-04T10:57:19.904Z</time>
      </trkpt>
      <trkpt lat="42.60659" lon="23.03288">
        <ele>736.069992</ele>
        <time>2022-04-04T10:57:21.898Z</time>
      </trkpt>
      <trkpt lat="42.60651" lon="23.03274">
        <ele>735.644951</ele>
        <time>2022-04-04T10:57:24.896Z</time>
      </trkpt>
      <trkpt lat="42.60643" lon="23.0326">
        <ele>735.21901</ele>
        <time>2022-04-04T10:57:27.887Z</time>
      </trkpt>
      <trkpt lat="42.60635" lon="23.03245">
        <ele>735.165797</ele>
        <time>2022-04-04T10:57:30.892Z</time>
      </trkpt>
      <trkpt lat="42.6063" lon="23.03231">
        <ele>735.165797</ele>
        <time>2022-04-04T10:57:32.888Z</time>
      </trkpt>
      <trkpt lat="42.60625" lon="23.03217">
        <ele>735.165797</ele>
        <time>2022-04-04T10:57:34.889Z</time>
      </trkpt>
      <trkpt lat="42.60622" lon="23.03203">
        <ele>735.165797</ele>
        <time>2022-04-04T10:57:36.880Z</time>
      </trkpt>
      <trkpt lat="42.6062" lon="23.03186">
        <ele>735.165797</ele>
        <time>2022-04-04T10:57:39.887Z</time>
      </trkpt>
      <trkpt lat="42.60618" lon="23.03173">
        <ele>735.165797</ele>
        <time>2022-04-04T10:57:42.929Z</time>
      </trkpt>
      <trkpt lat="42.60614" lon="23.0316">
        <ele>735.165797</ele>
        <time>2022-04-04T10:57:45.896Z</time>
      </trkpt>
      <trkpt lat="42.60607" lon="23.03148">
        <ele>735.165797</ele>
        <time>2022-04-04T10:57:48.921Z</time>
      </trkpt>
      <trkpt lat="42.60594" lon="23.03148">
        <ele>735.165797</ele>
        <time>2022-04-04T10:57:52.880Z</time>
      </trkpt>
      <trkpt lat="42.60584" lon="23.03149">
        <ele>735.165797</ele>
        <time>2022-04-04T10:57:55.959Z</time>
      </trkpt>
      <trkpt lat="42.60575" lon="23.03151">
        <ele>735.165797</ele>
        <time>2022-04-04T10:57:59.953Z</time>
      </trkpt>
      <trkpt lat="42.60547" lon="23.0315">
        <ele>735.165797</ele>
        <time>2022-04-04T10:58:37.902Z</time>
      </trkpt>
      <trkpt lat="42.60537" lon="23.03146">
        <ele>735.165797</ele>
        <time>2022-04-04T10:58:43.939Z</time>
      </trkpt>
      <trkpt lat="42.60528" lon="23.03144">
        <ele>735.165797</ele>
        <time>2022-04-04T10:58:47.927Z</time>
      </trkpt>
      <trkpt lat="42.60522" lon="23.03156">
        <ele>735.165797</ele>
        <time>2022-04-04T10:58:56.887Z</time>
      </trkpt>
      <trkpt lat="42.60516" lon="23.03168">
        <ele>735.165797</ele>
        <time>2022-04-04T10:59:00.936Z</time>
      </trkpt>
      <trkpt lat="42.60508" lon="23.03176">
        <ele>735.165797</ele>
        <time>2022-04-04T10:59:04.872Z</time>
      </trkpt>
      <trkpt lat="42.60498" lon="23.03179">
        <ele>735.165797</ele>
        <time>2022-04-04T10:59:08.893Z</time>
      </trkpt>
      <trkpt lat="42.60476" lon="23.03182">
        <ele>735.165797</ele>
        <time>2022-04-04T11:00:43.904Z</time>
      </trkpt>
      <trkpt lat="42.60496" lon="23.03185">
        <ele>735.165797</ele>
        <time>2022-04-04T11:01:06.716Z</time>
      </trkpt>
    </trkseg>
  </trk>
  <trk>
    <name><![CDATA[Tour d'Europe: étape 619]]></name>
    <extensions>
      <line xmlns="http://www.topografix.com/GPX/gpx_style/0/2">
        <color>00FF00</color>
        <width>4</width>
      </line>
    </extensions>
    <trkseg>
      <trkpt lat="42.71906" lon="23.72811">
        <ele>668.488593</ele>
        <time>2022-03-09T09:04:17.631Z</time>
      </trkpt>
      <trkpt lat="42.71897" lon="23.7278">
        <ele>668.488593</ele>
        <time>2022-03-09T09:08:59.423Z</time>
      </trkpt>
      <trkpt lat="42.71889" lon="23.72772">
        <ele>668.488593</ele>
        <time>2022-03-09T09:09:04.395Z</time>
      </trkpt>
      <trkpt lat="42.7188" lon="23.72762">
        <ele>668.488593</ele>
        <time>2022-03-09T09:09:10.393Z</time>
      </trkpt>
      <trkpt lat="42.71872" lon="23.72753">
        <ele>668.488593</ele>
        <time>2022-03-09T09:09:15.378Z</time>
      </trkpt>
      <trkpt lat="42.71863" lon="23.72744">
        <ele>668.488593</ele>
        <time>2022-03-09T09:09:20.397Z</time>
      </trkpt>
      <trkpt lat="42.71856" lon="23.72734">
        <ele>668.488593</ele>
        <time>2022-03-09T09:09:24.381Z</time>
      </trkpt>
      <trkpt lat="42.71847" lon="23.72725">
        <ele>668.488593</ele>
        <time>2022-03-09T09:09:29.402Z</time>
      </trkpt>
      <trkpt lat="42.71838" lon="23.72716">
        <ele>667.896796</ele>
        <time>2022-03-09T09:09:34.437Z</time>
      </trkpt>
      <trkpt lat="42.71831" lon="23.72707">
        <ele>667.305236</ele>
        <time>2022-03-09T09:09:38.395Z</time>
      </trkpt>
      <trkpt lat="42.71824" lon="23.72696">
        <ele>666.710888</ele>
        <time>2022-03-09T09:09:42.394Z</time>
      </trkpt>
      <trkpt lat="42.71818" lon="23.72685">
        <ele>666.088264</ele>
        <time>2022-03-09T09:09:48.395Z</time>
      </trkpt>
      <trkpt lat="42.7181" lon="23.72675">
        <ele>665.484477</ele>
        <time>2022-03-09T09:09:53.389Z</time>
      </trkpt>
      <trkpt lat="42.71804" lon="23.72666">
        <ele>664.952468</ele>
        <time>2022-03-09T09:09:57.403Z</time>
      </trkpt>
      <trkpt lat="42.71797" lon="23.72656">
        <ele>664.34975</ele>
        <time>2022-03-09T09:10:02.455Z</time>
      </trkpt>
      <trkpt lat="42.71789" lon="23.72647">
        <ele>663.762527</ele>
        <time>2022-03-09T09:10:07.396Z</time>
      </trkpt>
      <trkpt lat="42.71782" lon="23.72637">
        <ele>663.144865</ele>
        <time>2022-03-09T09:10:12.497Z</time>
      </trkpt>
      <trkpt lat="42.71775" lon="23.72627">
        <ele>662.5249</ele>
        <time>2022-03-09T09:10:17.398Z</time>
      </trkpt>
      <trkpt lat="42.71767" lon="23.72617">
        <ele>661.909524</ele>
        <time>2022-03-09T09:10:22.385Z</time>
      </trkpt>
      <trkpt lat="42.71758" lon="23.72611">
        <ele>661.336886</ele>
        <time>2022-03-09T09:10:26.391Z</time>
      </trkpt>
      <trkpt lat="42.7175" lon="23.72602">
        <ele>660.709064</ele>
        <time>2022-03-09T09:10:31.447Z</time>
      </trkpt>
      <trkpt lat="42.71742" lon="23.72594">
        <ele>660.169893</ele>
        <time>2022-03-09T09:10:35.408Z</time>
      </trkpt>
      <trkpt lat="42.71735" lon="23.72584">
        <ele>659.567942</ele>
        <time>2022-03-09T09:10:39.393Z</time>
      </trkpt>
      <trkpt lat="42.71735" lon="23.72571">
        <ele>658.990628</ele>
        <time>2022-03-09T09:10:43.399Z</time>
      </trkpt>
      <trkpt lat="42.71729" lon="23.7256">
        <ele>658.39023</ele>
        <time>2022-03-09T09:10:48.417Z</time>
      </trkpt>
      <trkpt lat="42.71722" lon="23.7255">
        <ele>658.037473</ele>
        <time>2022-03-09T09:10:51.388Z</time>
      </trkpt>
      <trkpt lat="42.71713" lon="23.72538">
        <ele>658.426061</ele>
        <time>2022-03-09T09:10:54.453Z</time>
      </trkpt>
      <trkpt lat="42.71706" lon="23.72528">
        <ele>658.74779</ele>
        <time>2022-03-09T09:10:58.432Z</time>
      </trkpt>
      <trkpt lat="42.71699" lon="23.72518">
        <ele>659.05952</ele>
        <time>2022-03-09T09:11:02.384Z</time>
      </trkpt>
      <trkpt lat="42.71693" lon="23.72507">
        <ele>659.382572</ele>
        <time>2022-03-09T09:11:06.377Z</time>
      </trkpt>
      <trkpt lat="42.71685" lon="23.72497">
        <ele>659.710333</ele>
        <time>2022-03-09T09:11:10.402Z</time>
      </trkpt>
      <trkpt lat="42.71678" lon="23.72488">
        <ele>660.026107</ele>
        <time>2022-03-09T09:11:16.397Z</time>
      </trkpt>
      <trkpt lat="42.71677" lon="23.72475">
        <ele>660.322944</ele>
        <time>2022-03-09T09:11:21.409Z</time>
      </trkpt>
      <trkpt lat="42.71681" lon="23.72464">
        <ele>660.604337</ele>
        <time>2022-03-09T09:11:25.402Z</time>
      </trkpt>
      <trkpt lat="42.71685" lon="23.72452">
        <ele>660.905627</ele>
        <time>2022-03-09T09:11:29.381Z</time>
      </trkpt>
      <trkpt lat="42.71689" lon="23.72439">
        <ele>661.237826</ele>
        <time>2022-03-09T09:11:33.423Z</time>
      </trkpt>
      <trkpt lat="42.71692" lon="23.72425">
        <ele>661.57293</ele>
        <time>2022-03-09T09:11:37.396Z</time>
      </trkpt>
      <trkpt lat="42.71695" lon="23.72412">
        <ele>661.87809</ele>
        <time>2022-03-09T09:11:40.386Z</time>
      </trkpt>
      <trkpt lat="42.717" lon="23.72402">
        <ele>662.16512</ele>
        <time>2022-03-09T09:11:43.407Z</time>
      </trkpt>
      <trkpt lat="42.71704" lon="23.7239">
        <ele>662.476752</ele>
        <time>2022-03-09T09:11:46.391Z</time>
      </trkpt>
      <trkpt lat="42.71708" lon="23.72376">
        <ele>662.812745</ele>
        <time>2022-03-09T09:11:49.386Z</time>
      </trkpt>
      <trkpt lat="42.71712" lon="23.72361">
        <ele>663.163332</ele>
        <time>2022-03-09T09:11:52.431Z</time>
      </trkpt>
      <trkpt lat="42.71715" lon="23.72348">
        <ele>663.49997</ele>
        <time>2022-03-09T09:11:55.388Z</time>
      </trkpt>
      <trkpt lat="42.71719" lon="23.72333">
        <ele>663.381377</ele>
        <time>2022-03-09T09:11:59.456Z</time>
      </trkpt>
      <trkpt lat="42.71723" lon="23.72319">
        <ele>663.152541</ele>
        <time>2022-03-09T09:12:02.409Z</time>
      </trkpt>
      <trkpt lat="42.71728" lon="23.72305">
        <ele>662.909103</ele>
        <time>2022-03-09T09:12:05.398Z</time>
      </trkpt>
      <trkpt lat="42.71733" lon="23.7229">
        <ele>662.653377</ele>
        <time>2022-03-09T09:12:09.399Z</time>
      </trkpt>
      <trkpt lat="42.71738" lon="23.72276">
        <ele>662.407619</ele>
        <time>2022-03-09T09:12:12.379Z</time>
      </trkpt>
      <trkpt lat="42.71742" lon="23.72263">
        <ele>662.176817</ele>
        <time>2022-03-09T09:12:15.399Z</time>
      </trkpt>
      <trkpt lat="42.71746" lon="23.72249">
        <ele>661.937811</ele>
        <time>2022-03-09T09:12:18.408Z</time>
      </trkpt>
      <trkpt lat="42.7175" lon="23.72231">
        <ele>661.656144</ele>
        <time>2022-03-09T09:12:21.437Z</time>
      </trkpt>
      <trkpt lat="42.71753" lon="23.72219">
        <ele>661.456892</ele>
        <time>2022-03-09T09:12:23.414Z</time>
      </trkpt>
      <trkpt lat="42.71756" lon="23.72208">
        <ele>661.261976</ele>
        <time>2022-03-09T09:12:25.388Z</time>
      </trkpt>
      <trkpt lat="42.7176" lon="23.72196">
        <ele>661.062633</ele>
        <time>2022-03-09T09:12:27.393Z</time>
      </trkpt>
      <trkpt lat="42.71763" lon="23.72184">
        <ele>660.863673</ele>
        <time>2022-03-09T09:12:29.397Z</time>
      </trkpt>
      <trkpt lat="42.71767" lon="23.72172">
        <ele>660.657792</ele>
        <time>2022-03-09T09:12:31.407Z</time>
      </trkpt>
      <trkpt lat="42.7177" lon="23.72159">
        <ele>660.445177</ele>
        <time>2022-03-09T09:12:33.480Z</time>
      </trkpt>
      <trkpt lat="42.71774" lon="23.72145">
        <ele>660.214894</ele>
        <time>2022-03-09T09:12:35.394Z</time>
      </trkpt>
      <trkpt lat="42.71778" lon="23.72133">
        <ele>660.002981</ele>
        <time>2022-03-09T09:12:37.406Z</time>
      </trkpt>
      <trkpt lat="42.71781" lon="23.7212">
        <ele>659.789031</ele>
        <time>2022-03-09T09:12:39.419Z</time>
      </trkpt>
      <trkpt lat="42.71785" lon="23.72108">
        <ele>659.262462</ele>
        <time>2022-03-09T09:12:41.432Z</time>
      </trkpt>
      <trkpt lat="42.71789" lon="23.72091">
        <ele>658.41809</ele>
        <time>2022-03-09T09:12:44.407Z</time>
      </trkpt>
      <trkpt lat="42.71793" lon="23.72075">
        <ele>657.596571</ele>
        <time>2022-03-09T09:12:47.392Z</time>
      </trkpt>
      <trkpt lat="42.71796" lon="23.72061">
        <ele>656.861117</ele>
        <time>2022-03-09T09:12:50.376Z</time>
      </trkpt>
      <trkpt lat="42.71798" lon="23.72045">
        <ele>656.081867</ele>
        <time>2022-03-09T09:12:53.390Z</time>
      </trkpt>
      <trkpt lat="42.718" lon="23.7203">
        <ele>655.340569</ele>
        <time>2022-03-09T09:12:56.399Z</time>
      </trkpt>
      <trkpt lat="42.71802" lon="23.72016">
        <ele>654.690781</ele>
        <time>2022-03-09T09:12:59.456Z</time>
      </trkpt>
      <trkpt lat="42.71803" lon="23.72002">
        <ele>654.016138</ele>
        <time>2022-03-09T09:13:02.417Z</time>
      </trkpt>
      <trkpt lat="42.71806" lon="23.71988">
        <ele>653.28811</ele>
        <time>2022-03-09T09:13:06.393Z</time>
      </trkpt>
      <trkpt lat="42.7181" lon="23.71973">
        <ele>652.536834</ele>
        <time>2022-03-09T09:13:10.412Z</time>
      </trkpt>
      <trkpt lat="42.71816" lon="23.71961">
        <ele>651.824989</ele>
        <time>2022-03-09T09:13:14.376Z</time>
      </trkpt>
      <trkpt lat="42.71825" lon="23.71954">
        <ele>651.141397</ele>
        <time>2022-03-09T09:13:19.411Z</time>
      </trkpt>
      <trkpt lat="42.71836" lon="23.71951">
        <ele>650.396589</ele>
        <time>2022-03-09T09:13:24.400Z</time>
      </trkpt>
      <trkpt lat="42.71845" lon="23.7195">
        <ele>649.783548</ele>
        <time>2022-03-09T09:13:30.416Z</time>
      </trkpt>
      <trkpt lat="42.71856" lon="23.71949">
        <ele>649.086863</ele>
        <time>2022-03-09T09:13:36.392Z</time>
      </trkpt>
      <trkpt lat="42.71865" lon="23.71949">
        <ele>648.462968</ele>
        <time>2022-03-09T09:13:43.378Z</time>
      </trkpt>
      <trkpt lat="42.71875" lon="23.71947">
        <ele>647.901894</ele>
        <time>2022-03-09T09:13:50.395Z</time>
      </trkpt>
      <trkpt lat="42.71882" lon="23.71937">
        <ele>647.706542</ele>
        <time>2022-03-09T09:13:59.397Z</time>
      </trkpt>
      <trkpt lat="42.7189" lon="23.7193">
        <ele>647.519301</ele>
        <time>2022-03-09T09:14:04.395Z</time>
      </trkpt>
      <trkpt lat="42.71896" lon="23.7192">
        <ele>647.339661</ele>
        <time>2022-03-09T09:14:10.390Z</time>
      </trkpt>
      <trkpt lat="42.71898" lon="23.71908">
        <ele>647.156863</ele>
        <time>2022-03-09T09:14:16.400Z</time>
      </trkpt>
      <trkpt lat="42.71898" lon="23.71894">
        <ele>646.965392</ele>
        <time>2022-03-09T09:14:22.401Z</time>
      </trkpt>
      <trkpt lat="42.71897" lon="23.7188">
        <ele>646.761989</ele>
        <time>2022-03-09T09:14:26.389Z</time>
      </trkpt>
      <trkpt lat="42.71897" lon="23.71866">
        <ele>646.554569</ele>
        <time>2022-03-09T09:14:31.385Z</time>
      </trkpt>
      <trkpt lat="42.71891" lon="23.71853">
        <ele>646.341552</ele>
        <time>2022-03-09T09:14:36.437Z</time>
      </trkpt>
      <trkpt lat="42.71881" lon="23.71846">
        <ele>646.129626</ele>
        <time>2022-03-09T09:14:40.393Z</time>
      </trkpt>
      <trkpt lat="42.71871" lon="23.71845">
        <ele>645.924666</ele>
        <time>2022-03-09T09:14:43.394Z</time>
      </trkpt>
      <trkpt lat="42.7186" lon="23.71844">
        <ele>645.717892</ele>
        <time>2022-03-09T09:14:46.423Z</time>
      </trkpt>
      <trkpt lat="42.7185" lon="23.71843">
        <ele>645.509764</ele>
        <time>2022-03-09T09:14:49.429Z</time>
      </trkpt>
      <trkpt lat="42.71839" lon="23.71841">
        <ele>645.304207</ele>
        <time>2022-03-09T09:14:52.418Z</time>
      </trkpt>
      <trkpt lat="42.71829" lon="23.7184">
        <ele>645.096366</ele>
        <time>2022-03-09T09:14:55.409Z</time>
      </trkpt>
      <trkpt lat="42.71818" lon="23.71838">
        <ele>644.882742</ele>
        <time>2022-03-09T09:14:58.399Z</time>
      </trkpt>
      <trkpt lat="42.71805" lon="23.71835">
        <ele>644.634783</ele>
        <time>2022-03-09T09:15:01.392Z</time>
      </trkpt>
      <trkpt lat="42.71795" lon="23.71833">
        <ele>644.443072</ele>
        <time>2022-03-09T09:15:03.395Z</time>
      </trkpt>
      <trkpt lat="42.71785" lon="23.71831">
        <ele>644.03693</ele>
        <time>2022-03-09T09:15:05.397Z</time>
      </trkpt>
      <trkpt lat="42.71774" lon="23.7183">
        <ele>643.62572</ele>
        <time>2022-03-09T09:15:07.401Z</time>
      </trkpt>
      <trkpt lat="42.71764" lon="23.71828">
        <ele>643.259094</ele>
        <time>2022-03-09T09:15:09.414Z</time>
      </trkpt>
      <trkpt lat="42.71755" lon="23.71826">
        <ele>642.901408</ele>
        <time>2022-03-09T09:15:11.403Z</time>
      </trkpt>
      <trkpt lat="42.71745" lon="23.71825">
        <ele>642.524632</ele>
        <time>2022-03-09T09:15:13.397Z</time>
      </trkpt>
      <trkpt lat="42.71735" lon="23.71823">
        <ele>642.133697</ele>
        <time>2022-03-09T09:15:15.408Z</time>
      </trkpt>
      <trkpt lat="42.71723" lon="23.71823">
        <ele>641.698938</ele>
        <time>2022-03-09T09:15:17.388Z</time>
      </trkpt>
      <trkpt lat="42.71711" lon="23.71823">
        <ele>641.241435</ele>
        <time>2022-03-09T09:15:19.378Z</time>
      </trkpt>
      <trkpt lat="42.71698" lon="23.71825">
        <ele>640.739489</ele>
        <time>2022-03-09T09:15:21.434Z</time>
      </trkpt>
      <trkpt lat="42.71684" lon="23.71829">
        <ele>640.207383</ele>
        <time>2022-03-09T09:15:23.396Z</time>
      </trkpt>
      <trkpt lat="42.71669" lon="23.71836">
        <ele>639.624059</ele>
        <time>2022-03-09T09:15:25.394Z</time>
      </trkpt>
      <trkpt lat="42.71658" lon="23.71849">
        <ele>639.064374</ele>
        <time>2022-03-09T09:15:27.440Z</time>
      </trkpt>
      <trkpt lat="42.71648" lon="23.71865">
        <ele>638.492655</ele>
        <time>2022-03-09T09:15:29.420Z</time>
      </trkpt>
      <trkpt lat="42.71639" lon="23.7188">
        <ele>637.940288</ele>
        <time>2022-03-09T09:15:31.408Z</time>
      </trkpt>
      <trkpt lat="42.71629" lon="23.71893">
        <ele>637.66733</ele>
        <time>2022-03-09T09:15:33.439Z</time>
      </trkpt>
      <trkpt lat="42.71621" lon="23.71906">
        <ele>637.720204</ele>
        <time>2022-03-09T09:15:35.408Z</time>
      </trkpt>
      <trkpt lat="42.71612" lon="23.71918">
        <ele>637.772283</ele>
        <time>2022-03-09T09:15:37.383Z</time>
      </trkpt>
      <trkpt lat="42.71604" lon="23.7193">
        <ele>637.822574</ele>
        <time>2022-03-09T09:15:39.409Z</time>
      </trkpt>
      <trkpt lat="42.71595" lon="23.7194">
        <ele>637.871974</ele>
        <time>2022-03-09T09:15:41.404Z</time>
      </trkpt>
      <trkpt lat="42.71586" lon="23.71949">
        <ele>637.918767</ele>
        <time>2022-03-09T09:15:43.395Z</time>
      </trkpt>
      <trkpt lat="42.71577" lon="23.71957">
        <ele>637.963991</ele>
        <time>2022-03-09T09:15:45.415Z</time>
      </trkpt>
      <trkpt lat="42.71568" lon="23.71965">
        <ele>638.00937</ele>
        <time>2022-03-09T09:15:47.391Z</time>
      </trkpt>
      <trkpt lat="42.71558" lon="23.71971">
        <ele>638.054324</ele>
        <time>2022-03-09T09:15:49.396Z</time>
      </trkpt>
      <trkpt lat="42.71548" lon="23.71976">
        <ele>638.098643</ele>
        <time>2022-03-09T09:15:51.398Z</time>
      </trkpt>
      <trkpt lat="42.71538" lon="23.71979">
        <ele>638.144352</ele>
        <time>2022-03-09T09:15:53.405Z</time>
      </trkpt>
      <trkpt lat="42.71528" lon="23.71982">
        <ele>638.185724</ele>
        <time>2022-03-09T09:15:55.449Z</time>
      </trkpt>
      <trkpt lat="42.71518" lon="23.71983">
        <ele>638.226831</ele>
        <time>2022-03-09T09:15:57.393Z</time>
      </trkpt>
      <trkpt lat="42.71509" lon="23.71985">
        <ele>638.267032</ele>
        <time>2022-03-09T09:15:59.398Z</time>
      </trkpt>
      <trkpt lat="42.71498" lon="23.71986">
        <ele>638.314379</ele>
        <time>2022-03-09T09:16:02.397Z</time>
      </trkpt>
      <trkpt lat="42.71488" lon="23.71988">
        <ele>638.35404</ele>
        <time>2022-03-09T09:16:05.393Z</time>
      </trkpt>
      <trkpt lat="42.71478" lon="23.7199">
        <ele>638.396102</ele>
        <time>2022-03-09T09:16:08.384Z</time>
      </trkpt>
      <trkpt lat="42.71466" lon="23.71991">
        <ele>638.270773</ele>
        <time>2022-03-09T09:16:11.439Z</time>
      </trkpt>
      <trkpt lat="42.71455" lon="23.71992">
        <ele>638.141455</ele>
        <time>2022-03-09T09:16:14.400Z</time>
      </trkpt>
      <trkpt lat="42.71445" lon="23.71993">
        <ele>638.029476</ele>
        <time>2022-03-09T09:16:17.400Z</time>
      </trkpt>
      <trkpt lat="42.71435" lon="23.71995">
        <ele>637.909696</ele>
        <time>2022-03-09T09:16:20.397Z</time>
      </trkpt>
      <trkpt lat="42.71424" lon="23.71996">
        <ele>637.791538</ele>
        <time>2022-03-09T09:16:23.389Z</time>
      </trkpt>
      <trkpt lat="42.71414" lon="23.71999">
        <ele>637.665072</ele>
        <time>2022-03-09T09:16:26.393Z</time>
      </trkpt>
      <trkpt lat="42.71404" lon="23.72">
        <ele>637.560787</ele>
        <time>2022-03-09T09:16:28.401Z</time>
      </trkpt>
      <trkpt lat="42.71391" lon="23.72003">
        <ele>637.40816</ele>
        <time>2022-03-09T09:16:31.393Z</time>
      </trkpt>
      <trkpt lat="42.71379" lon="23.72006">
        <ele>637.262652</ele>
        <time>2022-03-09T09:16:34.398Z</time>
      </trkpt>
      <trkpt lat="42.7137" lon="23.72011">
        <ele>637.155397</ele>
        <time>2022-03-09T09:16:36.386Z</time>
      </trkpt>
      <trkpt lat="42.71358" lon="23.72017">
        <ele>637.005963</ele>
        <time>2022-03-09T09:16:39.401Z</time>
      </trkpt>
      <trkpt lat="42.71349" lon="23.7202">
        <ele>636.899488</ele>
        <time>2022-03-09T09:16:41.403Z</time>
      </trkpt>
      <trkpt lat="42.71339" lon="23.72024">
        <ele>636.790668</ele>
        <time>2022-03-09T09:16:43.424Z</time>
      </trkpt>
      <trkpt lat="42.71329" lon="23.72028">
        <ele>636.667931</ele>
        <time>2022-03-09T09:16:45.379Z</time>
      </trkpt>
      <trkpt lat="42.71319" lon="23.72032">
        <ele>636.551381</ele>
        <time>2022-03-09T09:16:47.383Z</time>
      </trkpt>
      <trkpt lat="42.71311" lon="23.72036">
        <ele>636.447907</ele>
        <time>2022-03-09T09:16:49.417Z</time>
      </trkpt>
      <trkpt lat="42.71302" lon="23.72041">
        <ele>636.367069</ele>
        <time>2022-03-09T09:16:51.401Z</time>
      </trkpt>
      <trkpt lat="42.71292" lon="23.72044">
        <ele>636.572134</ele>
        <time>2022-03-09T09:16:53.395Z</time>
      </trkpt>
      <trkpt lat="42.71282" lon="23.72048">
        <ele>636.810822</ele>
        <time>2022-03-09T09:16:56.383Z</time>
      </trkpt>
      <trkpt lat="42.71271" lon="23.72052">
        <ele>637.053086</ele>
        <time>2022-03-09T09:16:59.409Z</time>
      </trkpt>
      <trkpt lat="42.71261" lon="23.72056">
        <ele>637.28632</ele>
        <time>2022-03-09T09:17:02.397Z</time>
      </trkpt>
      <trkpt lat="42.7125" lon="23.72061">
        <ele>637.530085</ele>
        <time>2022-03-09T09:17:05.386Z</time>
      </trkpt>
      <trkpt lat="42.71238" lon="23.72066">
        <ele>637.804527</ele>
        <time>2022-03-09T09:17:08.410Z</time>
      </trkpt>
      <trkpt lat="42.71229" lon="23.7207">
        <ele>638.010686</ele>
        <time>2022-03-09T09:17:10.394Z</time>
      </trkpt>
      <trkpt lat="42.71218" lon="23.72076">
        <ele>638.27774</ele>
        <time>2022-03-09T09:17:13.412Z</time>
      </trkpt>
      <trkpt lat="42.71205" lon="23.72082">
        <ele>638.5628</ele>
        <time>2022-03-09T09:17:16.392Z</time>
      </trkpt>
      <trkpt lat="42.71193" lon="23.72087">
        <ele>638.839781</ele>
        <time>2022-03-09T09:17:19.386Z</time>
      </trkpt>
      <trkpt lat="42.71182" lon="23.72092">
        <ele>639.104679</ele>
        <time>2022-03-09T09:17:22.385Z</time>
      </trkpt>
      <trkpt lat="42.71173" lon="23.72096">
        <ele>639.305686</ele>
        <time>2022-03-09T09:17:24.410Z</time>
      </trkpt>
      <trkpt lat="42.71164" lon="23.72101">
        <ele>639.519108</ele>
        <time>2022-03-09T09:17:26.406Z</time>
      </trkpt>
      <trkpt lat="42.71155" lon="23.72104">
        <ele>639.716206</ele>
        <time>2022-03-09T09:17:28.454Z</time>
      </trkpt>
      <trkpt lat="42.71145" lon="23.7211">
        <ele>639.95951</ele>
        <time>2022-03-09T09:17:31.408Z</time>
      </trkpt>
      <trkpt lat="42.71135" lon="23.72114">
        <ele>640.174977</ele>
        <time>2022-03-09T09:17:34.392Z</time>
      </trkpt>
      <trkpt lat="42.71124" lon="23.72119">
        <ele>640.455543</ele>
        <time>2022-03-09T09:17:38.384Z</time>
      </trkpt>
      <trkpt lat="42.71116" lon="23.72124">
        <ele>640.686791</ele>
        <time>2022-03-09T09:17:41.495Z</time>
      </trkpt>
      <trkpt lat="42.71107" lon="23.72128">
        <ele>640.922381</ele>
        <time>2022-03-09T09:17:44.399Z</time>
      </trkpt>
      <trkpt lat="42.71098" lon="23.72131">
        <ele>641.167461</ele>
        <time>2022-03-09T09:17:47.396Z</time>
      </trkpt>
      <trkpt lat="42.71089" lon="23.72134">
        <ele>641.418452</ele>
        <time>2022-03-09T09:17:50.401Z</time>
      </trkpt>
      <trkpt lat="42.71077" lon="23.72135">
        <ele>641.708704</ele>
        <time>2022-03-09T09:17:54.475Z</time>
      </trkpt>
      <trkpt lat="42.71069" lon="23.72129">
        <ele>641.945178</ele>
        <time>2022-03-09T09:17:58.395Z</time>
      </trkpt>
      <trkpt lat="42.71063" lon="23.72117">
        <ele>642.216962</ele>
        <time>2022-03-09T09:18:02.465Z</time>
      </trkpt>
      <trkpt lat="42.71057" lon="23.72106">
        <ele>642.461538</ele>
        <time>2022-03-09T09:18:06.420Z</time>
      </trkpt>
      <trkpt lat="42.71053" lon="23.72095">
        <ele>642.706388</ele>
        <time>2022-03-09T09:18:10.381Z</time>
      </trkpt>
      <trkpt lat="42.7105" lon="23.72082">
        <ele>642.966381</ele>
        <time>2022-03-09T09:18:15.401Z</time>
      </trkpt>
      <trkpt lat="42.71046" lon="23.72068">
        <ele>643.249404</ele>
        <time>2022-03-09T09:18:20.379Z</time>
      </trkpt>
      <trkpt lat="42.71042" lon="23.72055">
        <ele>643.506667</ele>
        <time>2022-03-09T09:18:24.390Z</time>
      </trkpt>
      <trkpt lat="42.71039" lon="23.72043">
        <ele>643.755155</ele>
        <time>2022-03-09T09:18:29.450Z</time>
      </trkpt>
      <trkpt lat="42.71035" lon="23.72029">
        <ele>644.032827</ele>
        <time>2022-03-09T09:18:34.392Z</time>
      </trkpt>
      <trkpt lat="42.71033" lon="23.72017">
        <ele>644.264031</ele>
        <time>2022-03-09T09:18:38.430Z</time>
      </trkpt>
      <trkpt lat="42.71029" lon="23.72004">
        <ele>644.531301</ele>
        <time>2022-03-09T09:18:43.378Z</time>
      </trkpt>
      <trkpt lat="42.71025" lon="23.7199">
        <ele>644.814324</ele>
        <time>2022-03-09T09:18:48.393Z</time>
      </trkpt>
      <trkpt lat="42.71022" lon="23.71976">
        <ele>645.451612</ele>
        <time>2022-03-09T09:18:53.409Z</time>
      </trkpt>
      <trkpt lat="42.71018" lon="23.71964">
        <ele>646.103769</ele>
        <time>2022-03-09T09:18:58.379Z</time>
      </trkpt>
      <trkpt lat="42.71015" lon="23.71952">
        <ele>646.750253</ele>
        <time>2022-03-09T09:19:04.396Z</time>
      </trkpt>
      <trkpt lat="42.71011" lon="23.7194">
        <ele>647.437102</ele>
        <time>2022-03-09T09:19:10.410Z</time>
      </trkpt>
      <trkpt lat="42.71007" lon="23.71929">
        <ele>648.062949</ele>
        <time>2022-03-09T09:19:16.416Z</time>
      </trkpt>
      <trkpt lat="42.71001" lon="23.71917">
        <ele>648.797746</ele>
        <time>2022-03-09T09:19:22.407Z</time>
      </trkpt>
      <trkpt lat="42.70999" lon="23.71905">
        <ele>649.450175</ele>
        <time>2022-03-09T09:19:27.468Z</time>
      </trkpt>
      <trkpt lat="42.70995" lon="23.71891">
        <ele>650.194278</ele>
        <time>2022-03-09T09:19:32.397Z</time>
      </trkpt>
      <trkpt lat="42.70992" lon="23.71878">
        <ele>650.912481</ele>
        <time>2022-03-09T09:19:37.391Z</time>
      </trkpt>
      <trkpt lat="42.70989" lon="23.71865">
        <ele>651.605047</ele>
        <time>2022-03-09T09:19:43.396Z</time>
      </trkpt>
      <trkpt lat="42.70987" lon="23.71852">
        <ele>652.277208</ele>
        <time>2022-03-09T09:19:49.405Z</time>
      </trkpt>
      <trkpt lat="42.70982" lon="23.7184">
        <ele>653.00617</ele>
        <time>2022-03-09T09:19:55.401Z</time>
      </trkpt>
      <trkpt lat="42.7098" lon="23.71827">
        <ele>653.658742</ele>
        <time>2022-03-09T09:19:59.409Z</time>
      </trkpt>
      <trkpt lat="42.70976" lon="23.71815">
        <ele>654.318785</ele>
        <time>2022-03-09T09:20:04.393Z</time>
      </trkpt>
      <trkpt lat="42.70973" lon="23.71802">
        <ele>655.029392</ele>
        <time>2022-03-09T09:20:11.395Z</time>
      </trkpt>
      <trkpt lat="42.7097" lon="23.71789">
        <ele>655.71806</ele>
        <time>2022-03-09T09:20:17.425Z</time>
      </trkpt>
      <trkpt lat="42.70966" lon="23.71776">
        <ele>656.421075</ele>
        <time>2022-03-09T09:20:23.398Z</time>
      </trkpt>
      <trkpt lat="42.70963" lon="23.71765">
        <ele>657.072263</ele>
        <time>2022-03-09T09:20:28.446Z</time>
      </trkpt>
      <trkpt lat="42.70958" lon="23.71752">
        <ele>657.518182</ele>
        <time>2022-03-09T09:20:34.397Z</time>
      </trkpt>
      <trkpt lat="42.70955" lon="23.7174">
        <ele>657.740957</ele>
        <time>2022-03-09T09:20:39.430Z</time>
      </trkpt>
      <trkpt lat="42.70953" lon="23.71728">
        <ele>657.95648</ele>
        <time>2022-03-09T09:20:44.397Z</time>
      </trkpt>
      <trkpt lat="42.7095" lon="23.71715">
        <ele>658.176107</ele>
        <time>2022-03-09T09:20:49.409Z</time>
      </trkpt>
      <trkpt lat="42.70948" lon="23.71703">
        <ele>658.391291</ele>
        <time>2022-03-09T09:20:54.403Z</time>
      </trkpt>
      <trkpt lat="42.70944" lon="23.7169">
        <ele>658.645868</ele>
        <time>2022-03-09T09:21:00.379Z</time>
      </trkpt>
      <trkpt lat="42.7094" lon="23.71678">
        <ele>658.863036</ele>
        <time>2022-03-09T09:21:05.396Z</time>
      </trkpt>
      <trkpt lat="42.70936" lon="23.71665">
        <ele>659.106914</ele>
        <time>2022-03-09T09:21:12.397Z</time>
      </trkpt>
      <trkpt lat="42.70932" lon="23.71652">
        <ele>659.343888</ele>
        <time>2022-03-09T09:21:18.440Z</time>
      </trkpt>
      <trkpt lat="42.70929" lon="23.71639">
        <ele>659.573917</ele>
        <time>2022-03-09T09:21:23.401Z</time>
      </trkpt>
      <trkpt lat="42.70927" lon="23.71626">
        <ele>659.804263</ele>
        <time>2022-03-09T09:21:28.391Z</time>
      </trkpt>
      <trkpt lat="42.70924" lon="23.71613">
        <ele>660.043508</ele>
        <time>2022-03-09T09:21:35.386Z</time>
      </trkpt>
      <trkpt lat="42.7092" lon="23.716">
        <ele>660.278126</ele>
        <time>2022-03-09T09:21:41.392Z</time>
      </trkpt>
      <trkpt lat="42.70916" lon="23.71588">
        <ele>660.517701</ele>
        <time>2022-03-09T09:21:47.405Z</time>
      </trkpt>
      <trkpt lat="42.70912" lon="23.71574">
        <ele>660.766976</ele>
        <time>2022-03-09T09:21:53.391Z</time>
      </trkpt>
      <trkpt lat="42.70909" lon="23.71562">
        <ele>660.995919</ele>
        <time>2022-03-09T09:21:58.393Z</time>
      </trkpt>
      <trkpt lat="42.70905" lon="23.7155">
        <ele>661.205616</ele>
        <time>2022-03-09T09:22:03.400Z</time>
      </trkpt>
      <trkpt lat="42.70901" lon="23.71539">
        <ele>661.427464</ele>
        <time>2022-03-09T09:22:09.392Z</time>
      </trkpt>
      <trkpt lat="42.70897" lon="23.71526">
        <ele>661.683067</ele>
        <time>2022-03-09T09:22:15.392Z</time>
      </trkpt>
      <trkpt lat="42.70894" lon="23.71512">
        <ele>661.988362</ele>
        <time>2022-03-09T09:22:21.427Z</time>
      </trkpt>
      <trkpt lat="42.70892" lon="23.715">
        <ele>662.249108</ele>
        <time>2022-03-09T09:22:26.389Z</time>
      </trkpt>
      <trkpt lat="42.70889" lon="23.71486">
        <ele>662.557633</ele>
        <time>2022-03-09T09:22:32.410Z</time>
      </trkpt>
      <trkpt lat="42.70884" lon="23.71474">
        <ele>662.849962</ele>
        <time>2022-03-09T09:22:38.401Z</time>
      </trkpt>
      <trkpt lat="42.70882" lon="23.71462">
        <ele>663.110359</ele>
        <time>2022-03-09T09:22:43.400Z</time>
      </trkpt>
      <trkpt lat="42.70878" lon="23.71448">
        <ele>663.420869</ele>
        <time>2022-03-09T09:22:49.401Z</time>
      </trkpt>
      <trkpt lat="42.70875" lon="23.71436">
        <ele>663.69573</ele>
        <time>2022-03-09T09:22:54.407Z</time>
      </trkpt>
      <trkpt lat="42.70873" lon="23.71424">
        <ele>663.961406</ele>
        <time>2022-03-09T09:23:00.398Z</time>
      </trkpt>
      <trkpt lat="42.7087" lon="23.71411">
        <ele>664.236009</ele>
        <time>2022-03-09T09:23:05.404Z</time>
      </trkpt>
      <trkpt lat="42.70866" lon="23.71399">
        <ele>664.516965</ele>
        <time>2022-03-09T09:23:10.403Z</time>
      </trkpt>
      <trkpt lat="42.70862" lon="23.71388">
        <ele>664.779245</ele>
        <time>2022-03-09T09:23:15.406Z</time>
      </trkpt>
      <trkpt lat="42.70859" lon="23.71375">
        <ele>665.081827</ele>
        <time>2022-03-09T09:23:21.400Z</time>
      </trkpt>
      <trkpt lat="42.70856" lon="23.71362">
        <ele>665.355644</ele>
        <time>2022-03-09T09:23:26.417Z</time>
      </trkpt>
      <trkpt lat="42.70854" lon="23.7135">
        <ele>665.622818</ele>
        <time>2022-03-09T09:23:31.392Z</time>
      </trkpt>
      <trkpt lat="42.70852" lon="23.71337">
        <ele>665.892626</ele>
        <time>2022-03-09T09:23:37.448Z</time>
      </trkpt>
      <trkpt lat="42.70849" lon="23.71324">
        <ele>666.194798</ele>
        <time>2022-03-09T09:23:42.387Z</time>
      </trkpt>
      <trkpt lat="42.70846" lon="23.71309">
        <ele>666.522927</ele>
        <time>2022-03-09T09:23:47.407Z</time>
      </trkpt>
      <trkpt lat="42.70842" lon="23.71295">
        <ele>666.906368</ele>
        <time>2022-03-09T09:23:51.392Z</time>
      </trkpt>
      <trkpt lat="42.70839" lon="23.71282">
        <ele>667.436493</ele>
        <time>2022-03-09T09:23:56.402Z</time>
      </trkpt>
      <trkpt lat="42.70836" lon="23.71269">
        <ele>667.96595</ele>
        <time>2022-03-09T09:24:02.402Z</time>
      </trkpt>
      <trkpt lat="42.70833" lon="23.71255">
        <ele>668.523315</ele>
        <time>2022-03-09T09:24:08.375Z</time>
      </trkpt>
      <trkpt lat="42.7083" lon="23.71241">
        <ele>669.087391</ele>
        <time>2022-03-09T09:24:13.406Z</time>
      </trkpt>
      <trkpt lat="42.70827" lon="23.71228">
        <ele>669.619493</ele>
        <time>2022-03-09T09:24:18.386Z</time>
      </trkpt>
      <trkpt lat="42.70823" lon="23.71214">
        <ele>670.19334</ele>
        <time>2022-03-09T09:24:23.408Z</time>
      </trkpt>
      <trkpt lat="42.7082" lon="23.71202">
        <ele>670.705346</ele>
        <time>2022-03-09T09:24:28.391Z</time>
      </trkpt>
      <trkpt lat="42.70819" lon="23.71189">
        <ele>671.212775</ele>
        <time>2022-03-09T09:24:33.416Z</time>
      </trkpt>
      <trkpt lat="42.70816" lon="23.71177">
        <ele>671.712053</ele>
        <time>2022-03-09T09:24:39.388Z</time>
      </trkpt>
      <trkpt lat="42.70813" lon="23.71164">
        <ele>672.220092</ele>
        <time>2022-03-09T09:24:44.393Z</time>
      </trkpt>
      <trkpt lat="42.70811" lon="23.71151">
        <ele>672.738351</ele>
        <time>2022-03-09T09:24:49.427Z</time>
      </trkpt>
      <trkpt lat="42.70807" lon="23.71138">
        <ele>673.293973</ele>
        <time>2022-03-09T09:24:53.415Z</time>
      </trkpt>
      <trkpt lat="42.70805" lon="23.71124">
        <ele>673.837351</ele>
        <time>2022-03-09T09:24:57.389Z</time>
      </trkpt>
      <trkpt lat="42.70803" lon="23.71111">
        <ele>674.374493</ele>
        <time>2022-03-09T09:25:01.401Z</time>
      </trkpt>
      <trkpt lat="42.708" lon="23.71095">
        <ele>674.996206</ele>
        <time>2022-03-09T09:25:05.387Z</time>
      </trkpt>
      <trkpt lat="42.70796" lon="23.7108">
        <ele>675.637806</ele>
        <time>2022-03-09T09:25:09.434Z</time>
      </trkpt>
      <trkpt lat="42.70792" lon="23.71066">
        <ele>676.223018</ele>
        <time>2022-03-09T09:25:13.404Z</time>
      </trkpt>
      <trkpt lat="42.7079" lon="23.71051">
        <ele>676.231404</ele>
        <time>2022-03-09T09:25:17.406Z</time>
      </trkpt>
      <trkpt lat="42.70788" lon="23.71038">
        <ele>676.16374</ele>
        <time>2022-03-09T09:25:20.386Z</time>
      </trkpt>
      <trkpt lat="42.70785" lon="23.71025">
        <ele>676.098073</ele>
        <time>2022-03-09T09:25:23.427Z</time>
      </trkpt>
      <trkpt lat="42.70783" lon="23.71013">
        <ele>676.033211</ele>
        <time>2022-03-09T09:25:26.420Z</time>
      </trkpt>
      <trkpt lat="42.7078" lon="23.70999">
        <ele>675.963844</ele>
        <time>2022-03-09T09:25:29.411Z</time>
      </trkpt>
      <trkpt lat="42.70777" lon="23.70987">
        <ele>675.89761</ele>
        <time>2022-03-09T09:25:32.430Z</time>
      </trkpt>
      <trkpt lat="42.70774" lon="23.70974">
        <ele>675.831115</ele>
        <time>2022-03-09T09:25:35.402Z</time>
      </trkpt>
      <trkpt lat="42.70771" lon="23.7096">
        <ele>675.759106</ele>
        <time>2022-03-09T09:25:38.409Z</time>
      </trkpt>
      <trkpt lat="42.70768" lon="23.70946">
        <ele>675.682418</ele>
        <time>2022-03-09T09:25:41.398Z</time>
      </trkpt>
      <trkpt lat="42.70765" lon="23.70929">
        <ele>675.5951</ele>
        <time>2022-03-09T09:25:44.448Z</time>
      </trkpt>
      <trkpt lat="42.70764" lon="23.70917">
        <ele>675.533612</ele>
        <time>2022-03-09T09:25:46.395Z</time>
      </trkpt>
      <trkpt lat="42.70761" lon="23.70904">
        <ele>675.464822</ele>
        <time>2022-03-09T09:25:48.390Z</time>
      </trkpt>
      <trkpt lat="42.70758" lon="23.7089">
        <ele>675.392375</ele>
        <time>2022-03-09T09:25:50.418Z</time>
      </trkpt>
      <trkpt lat="42.70755" lon="23.70876">
        <ele>675.321824</ele>
        <time>2022-03-09T09:25:52.407Z</time>
      </trkpt>
      <trkpt lat="42.70752" lon="23.70862">
        <ele>675.249157</ele>
        <time>2022-03-09T09:25:54.403Z</time>
      </trkpt>
      <trkpt lat="42.70749" lon="23.70848">
        <ele>675.176425</ele>
        <time>2022-03-09T09:25:56.397Z</time>
      </trkpt>
      <trkpt lat="42.70747" lon="23.70834">
        <ele>675.103582</ele>
        <time>2022-03-09T09:25:58.397Z</time>
      </trkpt>
      <trkpt lat="42.70744" lon="23.7082">
        <ele>674.811602</ele>
        <time>2022-03-09T09:26:00.415Z</time>
      </trkpt>
      <trkpt lat="42.7074" lon="23.70806">
        <ele>674.32388</ele>
        <time>2022-03-09T09:26:02.394Z</time>
      </trkpt>
      <trkpt lat="42.70737" lon="23.70789">
        <ele>673.763892</ele>
        <time>2022-03-09T09:26:04.416Z</time>
      </trkpt>
      <trkpt lat="42.70733" lon="23.70772">
        <ele>673.170156</ele>
        <time>2022-03-09T09:26:06.390Z</time>
      </trkpt>
      <trkpt lat="42.7073" lon="23.70753">
        <ele>672.546964</ele>
        <time>2022-03-09T09:26:08.400Z</time>
      </trkpt>
      <trkpt lat="42.70726" lon="23.70734">
        <ele>671.920622</ele>
        <time>2022-03-09T09:26:10.436Z</time>
      </trkpt>
      <trkpt lat="42.70723" lon="23.70715">
        <ele>671.269055</ele>
        <time>2022-03-09T09:26:12.400Z</time>
      </trkpt>
      <trkpt lat="42.70719" lon="23.70695">
        <ele>670.607917</ele>
        <time>2022-03-09T09:26:14.396Z</time>
      </trkpt>
      <trkpt lat="42.70716" lon="23.70676">
        <ele>669.955295</ele>
        <time>2022-03-09T09:26:16.399Z</time>
      </trkpt>
      <trkpt lat="42.70712" lon="23.70656">
        <ele>669.296321</ele>
        <time>2022-03-09T09:26:18.406Z</time>
      </trkpt>
      <trkpt lat="42.70708" lon="23.70636">
        <ele>668.620475</ele>
        <time>2022-03-09T09:26:20.398Z</time>
      </trkpt>
      <trkpt lat="42.70704" lon="23.70614">
        <ele>667.876144</ele>
        <time>2022-03-09T09:26:22.414Z</time>
      </trkpt>
      <trkpt lat="42.70699" lon="23.70591">
        <ele>667.104969</ele>
        <time>2022-03-09T09:26:24.409Z</time>
      </trkpt>
      <trkpt lat="42.70697" lon="23.70579">
        <ele>666.704496</ele>
        <time>2022-03-09T09:26:25.400Z</time>
      </trkpt>
      <trkpt lat="42.70694" lon="23.70567">
        <ele>666.296717</ele>
        <time>2022-03-09T09:26:26.387Z</time>
      </trkpt>
      <trkpt lat="42.70692" lon="23.70555">
        <ele>665.88778</ele>
        <time>2022-03-09T09:26:27.410Z</time>
      </trkpt>
      <trkpt lat="42.7069" lon="23.70543">
        <ele>665.493611</ele>
        <time>2022-03-09T09:26:28.409Z</time>
      </trkpt>
      <trkpt lat="42.70687" lon="23.70531">
        <ele>665.088811</ele>
        <time>2022-03-09T09:26:29.466Z</time>
      </trkpt>
      <trkpt lat="42.70682" lon="23.70508">
        <ele>664.321816</ele>
        <time>2022-03-09T09:26:31.408Z</time>
      </trkpt>
      <trkpt lat="42.70677" lon="23.70486">
        <ele>663.571548</ele>
        <time>2022-03-09T09:26:33.404Z</time>
      </trkpt>
      <trkpt lat="42.70672" lon="23.70463">
        <ele>662.808214</ele>
        <time>2022-03-09T09:26:35.397Z</time>
      </trkpt>
      <trkpt lat="42.70667" lon="23.70441">
        <ele>662.038118</ele>
        <time>2022-03-09T09:26:37.399Z</time>
      </trkpt>
      <trkpt lat="42.70662" lon="23.70419">
        <ele>661.29459</ele>
        <time>2022-03-09T09:26:39.409Z</time>
      </trkpt>
      <trkpt lat="42.70657" lon="23.70396">
        <ele>660.534778</ele>
        <time>2022-03-09T09:26:41.396Z</time>
      </trkpt>
      <trkpt lat="42.70654" lon="23.70384">
        <ele>660.139458</ele>
        <time>2022-03-09T09:26:42.399Z</time>
      </trkpt>
      <trkpt lat="42.70649" lon="23.70361">
        <ele>659.366857</ele>
        <time>2022-03-09T09:26:44.385Z</time>
      </trkpt>
      <trkpt lat="42.70644" lon="23.70339">
        <ele>658.025247</ele>
        <time>2022-03-09T09:26:46.389Z</time>
      </trkpt>
      <trkpt lat="42.7064" lon="23.70316">
        <ele>656.514179</ele>
        <time>2022-03-09T09:26:48.401Z</time>
      </trkpt>
      <trkpt lat="42.70637" lon="23.70304">
        <ele>655.703131</ele>
        <time>2022-03-09T09:26:49.405Z</time>
      </trkpt>
      <trkpt lat="42.70634" lon="23.70292">
        <ele>654.882102</ele>
        <time>2022-03-09T09:26:50.422Z</time>
      </trkpt>
      <trkpt lat="42.70632" lon="23.70278">
        <ele>653.958692</ele>
        <time>2022-03-09T09:26:51.437Z</time>
      </trkpt>
      <trkpt lat="42.70629" lon="23.70265">
        <ele>653.091917</ele>
        <time>2022-03-09T09:26:52.400Z</time>
      </trkpt>
      <trkpt lat="42.70626" lon="23.70252">
        <ele>652.204213</ele>
        <time>2022-03-09T09:26:53.385Z</time>
      </trkpt>
      <trkpt lat="42.70624" lon="23.70239">
        <ele>651.348108</ele>
        <time>2022-03-09T09:26:54.407Z</time>
      </trkpt>
      <trkpt lat="42.70621" lon="23.70226">
        <ele>650.485764</ele>
        <time>2022-03-09T09:26:55.426Z</time>
      </trkpt>
      <trkpt lat="42.70619" lon="23.70213">
        <ele>649.633687</ele>
        <time>2022-03-09T09:26:56.421Z</time>
      </trkpt>
      <trkpt lat="42.70617" lon="23.70201">
        <ele>648.810913</ele>
        <time>2022-03-09T09:26:57.416Z</time>
      </trkpt>
      <trkpt lat="42.70612" lon="23.70178">
        <ele>647.273442</ele>
        <time>2022-03-09T09:26:59.419Z</time>
      </trkpt>
      <trkpt lat="42.70608" lon="23.70154">
        <ele>645.742314</ele>
        <time>2022-03-09T09:27:01.411Z</time>
      </trkpt>
      <trkpt lat="42.70604" lon="23.70131">
        <ele>644.217456</ele>
        <time>2022-03-09T09:27:03.408Z</time>
      </trkpt>
      <trkpt lat="42.706" lon="23.70108">
        <ele>642.787929</ele>
        <time>2022-03-09T09:27:05.409Z</time>
      </trkpt>
      <trkpt lat="42.70597" lon="23.70096">
        <ele>642.125083</ele>
        <time>2022-03-09T09:27:06.416Z</time>
      </trkpt>
      <trkpt lat="42.70595" lon="23.70083">
        <ele>641.427314</ele>
        <time>2022-03-09T09:27:07.460Z</time>
      </trkpt>
      <trkpt lat="42.70592" lon="23.7007">
        <ele>640.693502</ele>
        <time>2022-03-09T09:27:08.433Z</time>
      </trkpt>
      <trkpt lat="42.70589" lon="23.70056">
        <ele>639.926777</ele>
        <time>2022-03-09T09:27:09.417Z</time>
      </trkpt>
      <trkpt lat="42.70586" lon="23.70043">
        <ele>639.166309</ele>
        <time>2022-03-09T09:27:10.408Z</time>
      </trkpt>
      <trkpt lat="42.70583" lon="23.7003">
        <ele>638.440793</ele>
        <time>2022-03-09T09:27:11.405Z</time>
      </trkpt>
      <trkpt lat="42.70581" lon="23.70017">
        <ele>637.710136</ele>
        <time>2022-03-09T09:27:12.405Z</time>
      </trkpt>
      <trkpt lat="42.70578" lon="23.70004">
        <ele>636.984619</ele>
        <time>2022-03-09T09:27:13.407Z</time>
      </trkpt>
      <trkpt lat="42.70575" lon="23.6999">
        <ele>636.236494</ele>
        <time>2022-03-09T09:27:14.400Z</time>
      </trkpt>
      <trkpt lat="42.70572" lon="23.69977">
        <ele>635.464365</ele>
        <time>2022-03-09T09:27:15.411Z</time>
      </trkpt>
      <trkpt lat="42.70568" lon="23.69963">
        <ele>634.687572</ele>
        <time>2022-03-09T09:27:16.418Z</time>
      </trkpt>
      <trkpt lat="42.70565" lon="23.69949">
        <ele>633.910351</ele>
        <time>2022-03-09T09:27:17.411Z</time>
      </trkpt>
      <trkpt lat="42.70562" lon="23.69935">
        <ele>633.14046</ele>
        <time>2022-03-09T09:27:18.449Z</time>
      </trkpt>
      <trkpt lat="42.70559" lon="23.69922">
        <ele>632.379989</ele>
        <time>2022-03-09T09:27:19.407Z</time>
      </trkpt>
      <trkpt lat="42.70555" lon="23.69908">
        <ele>631.581507</ele>
        <time>2022-03-09T09:27:20.408Z</time>
      </trkpt>
      <trkpt lat="42.70553" lon="23.69894">
        <ele>630.809614</ele>
        <time>2022-03-09T09:27:21.399Z</time>
      </trkpt>
      <trkpt lat="42.7055" lon="23.6988">
        <ele>630.115945</ele>
        <time>2022-03-09T09:27:22.401Z</time>
      </trkpt>
      <trkpt lat="42.70548" lon="23.69866">
        <ele>629.563668</ele>
        <time>2022-03-09T09:27:23.410Z</time>
      </trkpt>
      <trkpt lat="42.70545" lon="23.69852">
        <ele>629.007649</ele>
        <time>2022-03-09T09:27:24.399Z</time>
      </trkpt>
      <trkpt lat="42.70543" lon="23.69838">
        <ele>628.45541</ele>
        <time>2022-03-09T09:27:25.409Z</time>
      </trkpt>
      <trkpt lat="42.7054" lon="23.69825">
        <ele>627.921435</ele>
        <time>2022-03-09T09:27:26.403Z</time>
      </trkpt>
      <trkpt lat="42.70537" lon="23.69812">
        <ele>627.375236</ele>
        <time>2022-03-09T09:27:27.419Z</time>
      </trkpt>
      <trkpt lat="42.70533" lon="23.69799">
        <ele>626.832743</ele>
        <time>2022-03-09T09:27:28.411Z</time>
      </trkpt>
      <trkpt lat="42.7053" lon="23.69785">
        <ele>626.291892</ele>
        <time>2022-03-09T09:27:29.433Z</time>
      </trkpt>
      <trkpt lat="42.70527" lon="23.69773">
        <ele>625.771244</ele>
        <time>2022-03-09T09:27:30.418Z</time>
      </trkpt>
      <trkpt lat="42.70525" lon="23.6976">
        <ele>625.272106</ele>
        <time>2022-03-09T09:27:31.390Z</time>
      </trkpt>
      <trkpt lat="42.7052" lon="23.69738">
        <ele>624.350942</ele>
        <time>2022-03-09T09:27:33.403Z</time>
      </trkpt>
      <trkpt lat="42.70515" lon="23.69716">
        <ele>623.467537</ele>
        <time>2022-03-09T09:27:35.458Z</time>
      </trkpt>
      <trkpt lat="42.7051" lon="23.69695">
        <ele>622.603996</ele>
        <time>2022-03-09T09:27:37.400Z</time>
      </trkpt>
      <trkpt lat="42.70506" lon="23.69675">
        <ele>621.792921</ele>
        <time>2022-03-09T09:27:39.411Z</time>
      </trkpt>
      <trkpt lat="42.70502" lon="23.69658">
        <ele>621.110603</ele>
        <time>2022-03-09T09:27:41.422Z</time>
      </trkpt>
      <trkpt lat="42.70499" lon="23.69642">
        <ele>620.79932</ele>
        <time>2022-03-09T09:27:43.429Z</time>
      </trkpt>
      <trkpt lat="42.70495" lon="23.69626">
        <ele>620.826073</ele>
        <time>2022-03-09T09:27:45.402Z</time>
      </trkpt>
      <trkpt lat="42.70492" lon="23.69611">
        <ele>620.850074</ele>
        <time>2022-03-09T09:27:47.400Z</time>
      </trkpt>
      <trkpt lat="42.7049" lon="23.69598">
        <ele>620.871485</ele>
        <time>2022-03-09T09:27:49.402Z</time>
      </trkpt>
      <trkpt lat="42.70487" lon="23.69586">
        <ele>620.891246</ele>
        <time>2022-03-09T09:27:51.416Z</time>
      </trkpt>
      <trkpt lat="42.70483" lon="23.69569">
        <ele>620.918491</ele>
        <time>2022-03-09T09:27:54.423Z</time>
      </trkpt>
      <trkpt lat="42.7048" lon="23.69553">
        <ele>620.943524</ele>
        <time>2022-03-09T09:27:57.434Z</time>
      </trkpt>
      <trkpt lat="42.70477" lon="23.6954">
        <ele>620.96502</ele>
        <time>2022-03-09T09:28:00.407Z</time>
      </trkpt>
      <trkpt lat="42.70474" lon="23.69526">
        <ele>620.988155</ele>
        <time>2022-03-09T09:28:03.405Z</time>
      </trkpt>
      <trkpt lat="42.70471" lon="23.69513">
        <ele>621.009552</ele>
        <time>2022-03-09T09:28:06.413Z</time>
      </trkpt>
      <trkpt lat="42.70468" lon="23.695">
        <ele>621.030926</ele>
        <time>2022-03-09T09:28:09.396Z</time>
      </trkpt>
      <trkpt lat="42.70466" lon="23.69487">
        <ele>621.05098</ele>
        <time>2022-03-09T09:28:12.420Z</time>
      </trkpt>
      <trkpt lat="42.70463" lon="23.69475">
        <ele>621.071249</ele>
        <time>2022-03-09T09:28:15.416Z</time>
      </trkpt>
      <trkpt lat="42.70461" lon="23.69461">
        <ele>621.092404</ele>
        <time>2022-03-09T09:28:18.399Z</time>
      </trkpt>
      <trkpt lat="42.70458" lon="23.69449">
        <ele>621.113064</ele>
        <time>2022-03-09T09:28:21.419Z</time>
      </trkpt>
      <trkpt lat="42.70455" lon="23.69436">
        <ele>621.133946</ele>
        <time>2022-03-09T09:28:24.444Z</time>
      </trkpt>
      <trkpt lat="42.70452" lon="23.69422">
        <ele>621.156275</ele>
        <time>2022-03-09T09:28:27.388Z</time>
      </trkpt>
      <trkpt lat="42.70448" lon="23.69409">
        <ele>621.292566</ele>
        <time>2022-03-09T09:28:30.405Z</time>
      </trkpt>
      <trkpt lat="42.70445" lon="23.69395">
        <ele>621.568792</ele>
        <time>2022-03-09T09:28:33.414Z</time>
      </trkpt>
      <trkpt lat="42.70443" lon="23.69383">
        <ele>621.818495</ele>
        <time>2022-03-09T09:28:36.399Z</time>
      </trkpt>
      <trkpt lat="42.7044" lon="23.69369">
        <ele>622.081319</ele>
        <time>2022-03-09T09:28:39.416Z</time>
      </trkpt>
      <trkpt lat="42.70437" lon="23.69354">
        <ele>622.372263</ele>
        <time>2022-03-09T09:28:42.409Z</time>
      </trkpt>
      <trkpt lat="42.70434" lon="23.69339">
        <ele>622.659443</ele>
        <time>2022-03-09T09:28:45.410Z</time>
      </trkpt>
      <trkpt lat="42.70432" lon="23.69327">
        <ele>622.898523</ele>
        <time>2022-03-09T09:28:48.413Z</time>
      </trkpt>
      <trkpt lat="42.7043" lon="23.69314">
        <ele>623.146293</ele>
        <time>2022-03-09T09:28:51.414Z</time>
      </trkpt>
      <trkpt lat="42.70428" lon="23.69301">
        <ele>623.400549</ele>
        <time>2022-03-09T09:28:54.404Z</time>
      </trkpt>
      <trkpt lat="42.70427" lon="23.69285">
        <ele>623.703704</ele>
        <time>2022-03-09T09:28:58.430Z</time>
      </trkpt>
      <trkpt lat="42.70424" lon="23.69272">
        <ele>623.950657</ele>
        <time>2022-03-09T09:29:01.403Z</time>
      </trkpt>
      <trkpt lat="42.70422" lon="23.69259">
        <ele>624.206882</ele>
        <time>2022-03-09T09:29:04.402Z</time>
      </trkpt>
      <trkpt lat="42.70418" lon="23.69247">
        <ele>624.452609</ele>
        <time>2022-03-09T09:29:07.410Z</time>
      </trkpt>
      <trkpt lat="42.70416" lon="23.69234">
        <ele>624.712069</ele>
        <time>2022-03-09T09:29:10.411Z</time>
      </trkpt>
      <trkpt lat="42.70413" lon="23.69221">
        <ele>624.959673</ele>
        <time>2022-03-09T09:29:13.433Z</time>
      </trkpt>
      <trkpt lat="42.70411" lon="23.69208">
        <ele>625.206627</ele>
        <time>2022-03-09T09:29:16.404Z</time>
      </trkpt>
      <trkpt lat="42.70408" lon="23.69196">
        <ele>625.451758</ele>
        <time>2022-03-09T09:29:19.427Z</time>
      </trkpt>
      <trkpt lat="42.70405" lon="23.69183">
        <ele>625.700414</ele>
        <time>2022-03-09T09:29:22.419Z</time>
      </trkpt>
      <trkpt lat="42.70403" lon="23.69169">
        <ele>625.775018</ele>
        <time>2022-03-09T09:29:25.393Z</time>
      </trkpt>
      <trkpt lat="42.704" lon="23.69155">
        <ele>625.772717</ele>
        <time>2022-03-09T09:29:28.419Z</time>
      </trkpt>
      <trkpt lat="42.70398" lon="23.69143">
        <ele>625.770758</ele>
        <time>2022-03-09T09:29:31.412Z</time>
      </trkpt>
      <trkpt lat="42.70395" lon="23.6913">
        <ele>625.768666</ele>
        <time>2022-03-09T09:29:34.392Z</time>
      </trkpt>
      <trkpt lat="42.70391" lon="23.69116">
        <ele>625.766351</ele>
        <time>2022-03-09T09:29:37.441Z</time>
      </trkpt>
      <trkpt lat="42.70388" lon="23.69102">
        <ele>625.76391</ele>
        <time>2022-03-09T09:29:40.413Z</time>
      </trkpt>
      <trkpt lat="42.70384" lon="23.69088">
        <ele>625.761566</ele>
        <time>2022-03-09T09:29:43.405Z</time>
      </trkpt>
      <trkpt lat="42.70381" lon="23.69073">
        <ele>625.75908</ele>
        <time>2022-03-09T09:29:46.393Z</time>
      </trkpt>
      <trkpt lat="42.70377" lon="23.69056">
        <ele>625.756383</ele>
        <time>2022-03-09T09:29:49.431Z</time>
      </trkpt>
      <trkpt lat="42.70374" lon="23.69041">
        <ele>625.753919</ele>
        <time>2022-03-09T09:29:52.404Z</time>
      </trkpt>
      <trkpt lat="42.70371" lon="23.69027">
        <ele>625.751588</ele>
        <time>2022-03-09T09:29:55.421Z</time>
      </trkpt>
      <trkpt lat="42.70368" lon="23.69015">
        <ele>625.749481</ele>
        <time>2022-03-09T09:29:58.401Z</time>
      </trkpt>
      <trkpt lat="42.70365" lon="23.68999">
        <ele>625.746877</ele>
        <time>2022-03-09T09:30:01.411Z</time>
      </trkpt>
      <trkpt lat="42.70362" lon="23.68984">
        <ele>625.744458</ele>
        <time>2022-03-09T09:30:04.397Z</time>
      </trkpt>
      <trkpt lat="42.70359" lon="23.68969">
        <ele>625.742003</ele>
        <time>2022-03-09T09:30:07.408Z</time>
      </trkpt>
      <trkpt lat="42.70356" lon="23.68953">
        <ele>625.739384</ele>
        <time>2022-03-09T09:30:10.390Z</time>
      </trkpt>
      <trkpt lat="42.70353" lon="23.68937">
        <ele>625.736344</ele>
        <time>2022-03-09T09:30:13.389Z</time>
      </trkpt>
      <trkpt lat="42.7035" lon="23.68921">
        <ele>625.732706</ele>
        <time>2022-03-09T09:30:16.393Z</time>
      </trkpt>
      <trkpt lat="42.70347" lon="23.68905">
        <ele>625.729049</ele>
        <time>2022-03-09T09:30:19.408Z</time>
      </trkpt>
      <trkpt lat="42.70343" lon="23.6889">
        <ele>625.725567</ele>
        <time>2022-03-09T09:30:22.412Z</time>
      </trkpt>
      <trkpt lat="42.70339" lon="23.68873">
        <ele>625.721767</ele>
        <time>2022-03-09T09:30:25.414Z</time>
      </trkpt>
      <trkpt lat="42.70335" lon="23.68856">
        <ele>625.71789</ele>
        <time>2022-03-09T09:30:28.415Z</time>
      </trkpt>
      <trkpt lat="42.70332" lon="23.6884">
        <ele>625.714202</ele>
        <time>2022-03-09T09:30:31.402Z</time>
      </trkpt>
      <trkpt lat="42.70329" lon="23.68823">
        <ele>625.710295</ele>
        <time>2022-03-09T09:30:34.403Z</time>
      </trkpt>
      <trkpt lat="42.70327" lon="23.68811">
        <ele>625.707568</ele>
        <time>2022-03-09T09:30:36.391Z</time>
      </trkpt>
      <trkpt lat="42.70325" lon="23.68799">
        <ele>625.704903</ele>
        <time>2022-03-09T09:30:38.434Z</time>
      </trkpt>
      <trkpt lat="42.70321" lon="23.68782">
        <ele>625.701043</ele>
        <time>2022-03-09T09:30:41.422Z</time>
      </trkpt>
      <trkpt lat="42.70317" lon="23.68765">
        <ele>625.69719</ele>
        <time>2022-03-09T09:30:44.394Z</time>
      </trkpt>
      <trkpt lat="42.70313" lon="23.68749">
        <ele>625.693373</ele>
        <time>2022-03-09T09:30:47.411Z</time>
      </trkpt>
      <trkpt lat="42.7031" lon="23.68731">
        <ele>625.689338</ele>
        <time>2022-03-09T09:30:50.408Z</time>
      </trkpt>
      <trkpt lat="42.70306" lon="23.68715">
        <ele>625.685581</ele>
        <time>2022-03-09T09:30:53.401Z</time>
      </trkpt>
      <trkpt lat="42.70302" lon="23.68697">
        <ele>625.655117</ele>
        <time>2022-03-09T09:30:56.420Z</time>
      </trkpt>
      <trkpt lat="42.70299" lon="23.68681">
        <ele>625.614297</ele>
        <time>2022-03-09T09:30:59.437Z</time>
      </trkpt>
      <trkpt lat="42.70296" lon="23.68664">
        <ele>625.574077</ele>
        <time>2022-03-09T09:31:02.418Z</time>
      </trkpt>
      <trkpt lat="42.70294" lon="23.68652">
        <ele>625.543642</ele>
        <time>2022-03-09T09:31:04.414Z</time>
      </trkpt>
      <trkpt lat="42.70291" lon="23.6864">
        <ele>625.514214</ele>
        <time>2022-03-09T09:31:06.410Z</time>
      </trkpt>
      <trkpt lat="42.70288" lon="23.68623">
        <ele>625.473149</ele>
        <time>2022-03-09T09:31:09.395Z</time>
      </trkpt>
      <trkpt lat="42.70285" lon="23.68606">
        <ele>625.430969</ele>
        <time>2022-03-09T09:31:12.386Z</time>
      </trkpt>
      <trkpt lat="42.70281" lon="23.68589">
        <ele>625.388879</ele>
        <time>2022-03-09T09:31:15.409Z</time>
      </trkpt>
      <trkpt lat="42.70277" lon="23.68572">
        <ele>625.346992</ele>
        <time>2022-03-09T09:31:18.387Z</time>
      </trkpt>
      <trkpt lat="42.70274" lon="23.68556">
        <ele>625.307213</ele>
        <time>2022-03-09T09:31:21.426Z</time>
      </trkpt>
      <trkpt lat="42.7027" lon="23.68539">
        <ele>625.266804</ele>
        <time>2022-03-09T09:31:24.397Z</time>
      </trkpt>
      <trkpt lat="42.70266" lon="23.68522">
        <ele>625.225304</ele>
        <time>2022-03-09T09:31:27.404Z</time>
      </trkpt>
      <trkpt lat="42.70263" lon="23.68505">
        <ele>625.183301</ele>
        <time>2022-03-09T09:31:30.401Z</time>
      </trkpt>
      <trkpt lat="42.70261" lon="23.68493">
        <ele>625.154112</ele>
        <time>2022-03-09T09:31:32.423Z</time>
      </trkpt>
      <trkpt lat="42.70259" lon="23.68481">
        <ele>625.125225</ele>
        <time>2022-03-09T09:31:34.392Z</time>
      </trkpt>
      <trkpt lat="42.70256" lon="23.6847">
        <ele>625.081056</ele>
        <time>2022-03-09T09:31:36.396Z</time>
      </trkpt>
      <trkpt lat="42.70252" lon="23.68452">
        <ele>624.964484</ele>
        <time>2022-03-09T09:31:39.404Z</time>
      </trkpt>
      <trkpt lat="42.70249" lon="23.68435">
        <ele>624.850851</ele>
        <time>2022-03-09T09:31:42.414Z</time>
      </trkpt>
      <trkpt lat="42.70246" lon="23.68418">
        <ele>624.735817</ele>
        <time>2022-03-09T09:31:45.394Z</time>
      </trkpt>
      <trkpt lat="42.70244" lon="23.68406">
        <ele>624.657235</ele>
        <time>2022-03-09T09:31:47.394Z</time>
      </trkpt>
      <trkpt lat="42.70242" lon="23.68394">
        <ele>624.578654</ele>
        <time>2022-03-09T09:31:49.398Z</time>
      </trkpt>
      <trkpt lat="42.70239" lon="23.68377">
        <ele>624.468716</ele>
        <time>2022-03-09T09:31:52.428Z</time>
      </trkpt>
      <trkpt lat="42.70235" lon="23.68361">
        <ele>624.363231</ele>
        <time>2022-03-09T09:31:55.412Z</time>
      </trkpt>
      <trkpt lat="42.70231" lon="23.68344">
        <ele>624.248869</ele>
        <time>2022-03-09T09:31:58.413Z</time>
      </trkpt>
      <trkpt lat="42.70227" lon="23.68327">
        <ele>624.132417</ele>
        <time>2022-03-09T09:32:01.410Z</time>
      </trkpt>
      <trkpt lat="42.70224" lon="23.68315">
        <ele>624.050485</ele>
        <time>2022-03-09T09:32:03.392Z</time>
      </trkpt>
      <trkpt lat="42.70222" lon="23.68302">
        <ele>623.970069</ele>
        <time>2022-03-09T09:32:05.441Z</time>
      </trkpt>
      <trkpt lat="42.7022" lon="23.68291">
        <ele>623.891453</ele>
        <time>2022-03-09T09:32:07.412Z</time>
      </trkpt>
      <trkpt lat="42.70215" lon="23.68274">
        <ele>623.776678</ele>
        <time>2022-03-09T09:32:10.414Z</time>
      </trkpt>
      <trkpt lat="42.70211" lon="23.68256">
        <ele>623.660225</ele>
        <time>2022-03-09T09:32:13.410Z</time>
      </trkpt>
      <trkpt lat="42.70209" lon="23.68244">
        <ele>623.579597</ele>
        <time>2022-03-09T09:32:15.400Z</time>
      </trkpt>
      <trkpt lat="42.70207" lon="23.68232">
        <ele>623.538648</ele>
        <time>2022-03-09T09:32:17.412Z</time>
      </trkpt>
      <trkpt lat="42.70204" lon="23.68219">
        <ele>623.539184</ele>
        <time>2022-03-09T09:32:19.425Z</time>
      </trkpt>
      <trkpt lat="42.702" lon="23.68201">
        <ele>623.539935</ele>
        <time>2022-03-09T09:32:22.415Z</time>
      </trkpt>
      <trkpt lat="42.70197" lon="23.68189">
        <ele>623.540463</ele>
        <time>2022-03-09T09:32:24.441Z</time>
      </trkpt>
      <trkpt lat="42.70194" lon="23.68176">
        <ele>623.541004</ele>
        <time>2022-03-09T09:32:26.412Z</time>
      </trkpt>
      <trkpt lat="42.70192" lon="23.68162">
        <ele>623.54159</ele>
        <time>2022-03-09T09:32:28.413Z</time>
      </trkpt>
      <trkpt lat="42.70189" lon="23.68149">
        <ele>623.542145</ele>
        <time>2022-03-09T09:32:30.416Z</time>
      </trkpt>
      <trkpt lat="42.70187" lon="23.68131">
        <ele>623.542873</ele>
        <time>2022-03-09T09:32:33.458Z</time>
      </trkpt>
      <trkpt lat="42.70184" lon="23.68119">
        <ele>623.543376</ele>
        <time>2022-03-09T09:32:35.417Z</time>
      </trkpt>
      <trkpt lat="42.70181" lon="23.68102">
        <ele>623.544125</ele>
        <time>2022-03-09T09:32:38.409Z</time>
      </trkpt>
      <trkpt lat="42.70177" lon="23.68085">
        <ele>623.544852</ele>
        <time>2022-03-09T09:32:41.413Z</time>
      </trkpt>
      <trkpt lat="42.70174" lon="23.68068">
        <ele>623.54554</ele>
        <time>2022-03-09T09:32:44.439Z</time>
      </trkpt>
      <trkpt lat="42.70172" lon="23.68055">
        <ele>623.546068</ele>
        <time>2022-03-09T09:32:46.421Z</time>
      </trkpt>
      <trkpt lat="42.7017" lon="23.68043">
        <ele>623.546585</ele>
        <time>2022-03-09T09:32:48.407Z</time>
      </trkpt>
      <trkpt lat="42.70167" lon="23.68031">
        <ele>623.54709</ele>
        <time>2022-03-09T09:32:50.393Z</time>
      </trkpt>
      <trkpt lat="42.70165" lon="23.68019">
        <ele>623.547602</ele>
        <time>2022-03-09T09:32:52.392Z</time>
      </trkpt>
      <trkpt lat="42.7016" lon="23.68003">
        <ele>623.548316</ele>
        <time>2022-03-09T09:32:55.437Z</time>
      </trkpt>
      <trkpt lat="42.70157" lon="23.67986">
        <ele>623.526867</ele>
        <time>2022-03-09T09:32:58.412Z</time>
      </trkpt>
      <trkpt lat="42.70153" lon="23.67969">
        <ele>623.505097</ele>
        <time>2022-03-09T09:33:01.413Z</time>
      </trkpt>
      <trkpt lat="42.7015" lon="23.67953">
        <ele>623.484212</ele>
        <time>2022-03-09T09:33:04.417Z</time>
      </trkpt>
      <trkpt lat="42.70147" lon="23.67937">
        <ele>623.463315</ele>
        <time>2022-03-09T09:33:07.395Z</time>
      </trkpt>
      <trkpt lat="42.70143" lon="23.6792">
        <ele>623.44089</ele>
        <time>2022-03-09T09:33:10.417Z</time>
      </trkpt>
      <trkpt lat="42.7014" lon="23.67909">
        <ele>623.425499</ele>
        <time>2022-03-09T09:33:12.414Z</time>
      </trkpt>
      <trkpt lat="42.70136" lon="23.67892">
        <ele>623.403179</ele>
        <time>2022-03-09T09:33:15.396Z</time>
      </trkpt>
      <trkpt lat="42.70132" lon="23.67876">
        <ele>623.382234</ele>
        <time>2022-03-09T09:33:18.411Z</time>
      </trkpt>
      <trkpt lat="42.70127" lon="23.67861">
        <ele>623.360151</ele>
        <time>2022-03-09T09:33:21.409Z</time>
      </trkpt>
      <trkpt lat="42.70122" lon="23.67845">
        <ele>623.33881</ele>
        <time>2022-03-09T09:33:24.412Z</time>
      </trkpt>
      <trkpt lat="42.70117" lon="23.67829">
        <ele>623.316885</ele>
        <time>2022-03-09T09:33:27.407Z</time>
      </trkpt>
      <trkpt lat="42.70112" lon="23.67813">
        <ele>623.295038</ele>
        <time>2022-03-09T09:33:30.409Z</time>
      </trkpt>
      <trkpt lat="42.70108" lon="23.67797">
        <ele>623.272593</ele>
        <time>2022-03-09T09:33:33.411Z</time>
      </trkpt>
      <trkpt lat="42.70104" lon="23.67785">
        <ele>623.256914</ele>
        <time>2022-03-09T09:33:35.408Z</time>
      </trkpt>
      <trkpt lat="42.701" lon="23.67768">
        <ele>623.307614</ele>
        <time>2022-03-09T09:33:38.416Z</time>
      </trkpt>
      <trkpt lat="42.70094" lon="23.67752">
        <ele>623.641451</ele>
        <time>2022-03-09T09:33:41.406Z</time>
      </trkpt>
      <trkpt lat="42.7009" lon="23.67741">
        <ele>623.875526</ele>
        <time>2022-03-09T09:33:43.412Z</time>
      </trkpt>
      <trkpt lat="42.70085" lon="23.6773">
        <ele>624.110593</ele>
        <time>2022-03-09T09:33:45.392Z</time>
      </trkpt>
      <trkpt lat="42.70079" lon="23.67715">
        <ele>624.447624</ele>
        <time>2022-03-09T09:33:48.427Z</time>
      </trkpt>
      <trkpt lat="42.70073" lon="23.67699">
        <ele>624.785903</ele>
        <time>2022-03-09T09:33:51.404Z</time>
      </trkpt>
      <trkpt lat="42.70066" lon="23.67683">
        <ele>625.133308</ele>
        <time>2022-03-09T09:33:54.396Z</time>
      </trkpt>
      <trkpt lat="42.7006" lon="23.67669">
        <ele>625.449216</ele>
        <time>2022-03-09T09:33:57.410Z</time>
      </trkpt>
      <trkpt lat="42.70054" lon="23.67653">
        <ele>625.783796</ele>
        <time>2022-03-09T09:34:00.406Z</time>
      </trkpt>
      <trkpt lat="42.70049" lon="23.67643">
        <ele>626.015821</ele>
        <time>2022-03-09T09:34:02.589Z</time>
      </trkpt>
      <trkpt lat="42.70042" lon="23.67628">
        <ele>626.352054</ele>
        <time>2022-03-09T09:34:05.437Z</time>
      </trkpt>
      <trkpt lat="42.70034" lon="23.67613">
        <ele>626.698393</ele>
        <time>2022-03-09T09:34:08.512Z</time>
      </trkpt>
      <trkpt lat="42.70026" lon="23.67598">
        <ele>627.046256</ele>
        <time>2022-03-09T09:34:11.427Z</time>
      </trkpt>
      <trkpt lat="42.70019" lon="23.67583">
        <ele>627.391</ele>
        <time>2022-03-09T09:34:14.414Z</time>
      </trkpt>
      <trkpt lat="42.70014" lon="23.67573">
        <ele>627.622946</ele>
        <time>2022-03-09T09:34:16.415Z</time>
      </trkpt>
      <trkpt lat="42.70005" lon="23.6756">
        <ele>627.823913</ele>
        <time>2022-03-09T09:34:19.404Z</time>
      </trkpt>
      <trkpt lat="42.69999" lon="23.67551">
        <ele>627.696959</ele>
        <time>2022-03-09T09:34:21.417Z</time>
      </trkpt>
      <trkpt lat="42.69993" lon="23.67541">
        <ele>627.567861</ele>
        <time>2022-03-09T09:34:23.452Z</time>
      </trkpt>
      <trkpt lat="42.69987" lon="23.6753">
        <ele>627.432074</ele>
        <time>2022-03-09T09:34:25.408Z</time>
      </trkpt>
      <trkpt lat="42.69981" lon="23.6752">
        <ele>627.302105</ele>
        <time>2022-03-09T09:34:27.400Z</time>
      </trkpt>
      <trkpt lat="42.69976" lon="23.6751">
        <ele>627.172988</ele>
        <time>2022-03-09T09:34:29.413Z</time>
      </trkpt>
      <trkpt lat="42.69968" lon="23.67496">
        <ele>626.989055</ele>
        <time>2022-03-09T09:34:32.418Z</time>
      </trkpt>
      <trkpt lat="42.6996" lon="23.67484">
        <ele>626.822533</ele>
        <time>2022-03-09T09:34:35.399Z</time>
      </trkpt>
      <trkpt lat="42.6995" lon="23.67473">
        <ele>626.64219</ele>
        <time>2022-03-09T09:34:38.419Z</time>
      </trkpt>
      <trkpt lat="42.69938" lon="23.67474">
        <ele>626.471181</ele>
        <time>2022-03-09T09:34:41.395Z</time>
      </trkpt>
      <trkpt lat="42.69925" lon="23.67479">
        <ele>626.279428</ele>
        <time>2022-03-09T09:34:44.411Z</time>
      </trkpt>
      <trkpt lat="42.69914" lon="23.6748">
        <ele>626.130945</ele>
        <time>2022-03-09T09:34:46.406Z</time>
      </trkpt>
      <trkpt lat="42.69902" lon="23.6748">
        <ele>625.965968</ele>
        <time>2022-03-09T09:34:48.426Z</time>
      </trkpt>
      <trkpt lat="42.6989" lon="23.67478">
        <ele>625.799217</ele>
        <time>2022-03-09T09:34:50.442Z</time>
      </trkpt>
      <trkpt lat="42.69877" lon="23.67477">
        <ele>625.618003</ele>
        <time>2022-03-09T09:34:52.419Z</time>
      </trkpt>
      <trkpt lat="42.69864" lon="23.67474">
        <ele>625.422328</ele>
        <time>2022-03-09T09:34:54.409Z</time>
      </trkpt>
      <trkpt lat="42.69849" lon="23.67472">
        <ele>624.86575</ele>
        <time>2022-03-09T09:34:56.409Z</time>
      </trkpt>
      <trkpt lat="42.69835" lon="23.67468">
        <ele>624.150715</ele>
        <time>2022-03-09T09:34:58.401Z</time>
      </trkpt>
      <trkpt lat="42.6982" lon="23.67464">
        <ele>623.441776</ele>
        <time>2022-03-09T09:35:00.435Z</time>
      </trkpt>
      <trkpt lat="42.69807" lon="23.6746">
        <ele>622.753479</ele>
        <time>2022-03-09T09:35:02.394Z</time>
      </trkpt>
      <trkpt lat="42.69793" lon="23.67455">
        <ele>622.066395</ele>
        <time>2022-03-09T09:35:04.409Z</time>
      </trkpt>
      <trkpt lat="42.6978" lon="23.67451">
        <ele>621.412982</ele>
        <time>2022-03-09T09:35:06.449Z</time>
      </trkpt>
      <trkpt lat="42.69768" lon="23.67447">
        <ele>620.816831</ele>
        <time>2022-03-09T09:35:08.383Z</time>
      </trkpt>
      <trkpt lat="42.69756" lon="23.67444">
        <ele>620.232543</ele>
        <time>2022-03-09T09:35:10.424Z</time>
      </trkpt>
      <trkpt lat="42.69746" lon="23.67441">
        <ele>619.708563</ele>
        <time>2022-03-09T09:35:12.417Z</time>
      </trkpt>
      <trkpt lat="42.69736" lon="23.67438">
        <ele>619.207206</ele>
        <time>2022-03-09T09:35:14.405Z</time>
      </trkpt>
      <trkpt lat="42.69726" lon="23.67436">
        <ele>618.735959</ele>
        <time>2022-03-09T09:35:16.404Z</time>
      </trkpt>
      <trkpt lat="42.69717" lon="23.67434">
        <ele>618.265328</ele>
        <time>2022-03-09T09:35:18.419Z</time>
      </trkpt>
      <trkpt lat="42.69707" lon="23.67431">
        <ele>617.778379</ele>
        <time>2022-03-09T09:35:20.418Z</time>
      </trkpt>
      <trkpt lat="42.69697" lon="23.67429">
        <ele>617.296229</ele>
        <time>2022-03-09T09:35:22.408Z</time>
      </trkpt>
      <trkpt lat="42.69687" lon="23.67426">
        <ele>616.789417</ele>
        <time>2022-03-09T09:35:24.408Z</time>
      </trkpt>
      <trkpt lat="42.69677" lon="23.67424">
        <ele>616.426449</ele>
        <time>2022-03-09T09:35:26.410Z</time>
      </trkpt>
      <trkpt lat="42.69667" lon="23.67421">
        <ele>616.167951</ele>
        <time>2022-03-09T09:35:28.454Z</time>
      </trkpt>
      <trkpt lat="42.69656" lon="23.67419">
        <ele>615.909766</ele>
        <time>2022-03-09T09:35:30.417Z</time>
      </trkpt>
      <trkpt lat="42.69646" lon="23.67416">
        <ele>615.65788</ele>
        <time>2022-03-09T09:35:32.403Z</time>
      </trkpt>
      <trkpt lat="42.69636" lon="23.67414">
        <ele>615.40943</ele>
        <time>2022-03-09T09:35:34.424Z</time>
      </trkpt>
      <trkpt lat="42.69627" lon="23.67411">
        <ele>615.159227</ele>
        <time>2022-03-09T09:35:36.410Z</time>
      </trkpt>
      <trkpt lat="42.69617" lon="23.67408">
        <ele>614.919811</ele>
        <time>2022-03-09T09:35:38.426Z</time>
      </trkpt>
      <trkpt lat="42.69607" lon="23.67406">
        <ele>614.678319</ele>
        <time>2022-03-09T09:35:40.395Z</time>
      </trkpt>
      <trkpt lat="42.69598" lon="23.67403">
        <ele>614.432549</ele>
        <time>2022-03-09T09:35:42.400Z</time>
      </trkpt>
      <trkpt lat="42.69588" lon="23.674">
        <ele>614.178583</ele>
        <time>2022-03-09T09:35:44.442Z</time>
      </trkpt>
      <trkpt lat="42.69578" lon="23.67397">
        <ele>613.924273</ele>
        <time>2022-03-09T09:35:46.414Z</time>
      </trkpt>
      <trkpt lat="42.69567" lon="23.67394">
        <ele>613.666442</ele>
        <time>2022-03-09T09:35:48.406Z</time>
      </trkpt>
      <trkpt lat="42.69557" lon="23.67392">
        <ele>613.407281</ele>
        <time>2022-03-09T09:35:50.442Z</time>
      </trkpt>
      <trkpt lat="42.69547" lon="23.67388">
        <ele>613.146251</ele>
        <time>2022-03-09T09:35:52.403Z</time>
      </trkpt>
      <trkpt lat="42.69537" lon="23.67385">
        <ele>612.897248</ele>
        <time>2022-03-09T09:35:54.410Z</time>
      </trkpt>
      <trkpt lat="42.69527" lon="23.67382">
        <ele>612.64946</ele>
        <time>2022-03-09T09:35:56.415Z</time>
      </trkpt>
      <trkpt lat="42.69518" lon="23.67379">
        <ele>612.405686</ele>
        <time>2022-03-09T09:35:58.419Z</time>
      </trkpt>
      <trkpt lat="42.69508" lon="23.67376">
        <ele>612.163885</ele>
        <time>2022-03-09T09:36:00.412Z</time>
      </trkpt>
      <trkpt lat="42.69498" lon="23.67373">
        <ele>611.988464</ele>
        <time>2022-03-09T09:36:02.388Z</time>
      </trkpt>
      <trkpt lat="42.69486" lon="23.67369">
        <ele>611.801836</ele>
        <time>2022-03-09T09:36:04.410Z</time>
      </trkpt>
      <trkpt lat="42.69474" lon="23.67366">
        <ele>611.612846</ele>
        <time>2022-03-09T09:36:06.415Z</time>
      </trkpt>
      <trkpt lat="42.69461" lon="23.67363">
        <ele>611.41625</ele>
        <time>2022-03-09T09:36:08.439Z</time>
      </trkpt>
      <trkpt lat="42.69449" lon="23.6736">
        <ele>611.223563</ele>
        <time>2022-03-09T09:36:10.413Z</time>
      </trkpt>
      <trkpt lat="42.69436" lon="23.67356">
        <ele>611.016776</ele>
        <time>2022-03-09T09:36:12.415Z</time>
      </trkpt>
      <trkpt lat="42.69422" lon="23.67352">
        <ele>610.800439</ele>
        <time>2022-03-09T09:36:14.401Z</time>
      </trkpt>
      <trkpt lat="42.69409" lon="23.67349">
        <ele>610.587799</ele>
        <time>2022-03-09T09:36:16.414Z</time>
      </trkpt>
      <trkpt lat="42.69395" lon="23.67345">
        <ele>610.375158</ele>
        <time>2022-03-09T09:36:18.412Z</time>
      </trkpt>
      <trkpt lat="42.69382" lon="23.67342">
        <ele>610.160997</ele>
        <time>2022-03-09T09:36:20.401Z</time>
      </trkpt>
      <trkpt lat="42.69368" lon="23.67338">
        <ele>609.948141</ele>
        <time>2022-03-09T09:36:22.419Z</time>
      </trkpt>
      <trkpt lat="42.69355" lon="23.67335">
        <ele>609.73398</ele>
        <time>2022-03-09T09:36:24.420Z</time>
      </trkpt>
      <trkpt lat="42.69342" lon="23.67331">
        <ele>609.52545</ele>
        <time>2022-03-09T09:36:26.404Z</time>
      </trkpt>
      <trkpt lat="42.69328" lon="23.67328">
        <ele>609.307627</ele>
        <time>2022-03-09T09:36:28.408Z</time>
      </trkpt>
      <trkpt lat="42.69315" lon="23.67324">
        <ele>609.020336</ele>
        <time>2022-03-09T09:36:30.403Z</time>
      </trkpt>
      <trkpt lat="42.69302" lon="23.67321">
        <ele>608.730027</ele>
        <time>2022-03-09T09:36:32.409Z</time>
      </trkpt>
      <trkpt lat="42.69289" lon="23.67317">
        <ele>608.437291</ele>
        <time>2022-03-09T09:36:34.417Z</time>
      </trkpt>
      <trkpt lat="42.69276" lon="23.67313">
        <ele>608.143218</ele>
        <time>2022-03-09T09:36:36.414Z</time>
      </trkpt>
      <trkpt lat="42.69262" lon="23.67309">
        <ele>607.853701</ele>
        <time>2022-03-09T09:36:38.402Z</time>
      </trkpt>
      <trkpt lat="42.69249" lon="23.67305">
        <ele>607.558852</ele>
        <time>2022-03-09T09:36:40.418Z</time>
      </trkpt>
      <trkpt lat="42.69236" lon="23.67302">
        <ele>607.26491</ele>
        <time>2022-03-09T09:36:42.412Z</time>
      </trkpt>
      <trkpt lat="42.69223" lon="23.67299">
        <ele>606.981859</ele>
        <time>2022-03-09T09:36:44.417Z</time>
      </trkpt>
      <trkpt lat="42.69211" lon="23.67296">
        <ele>606.724819</ele>
        <time>2022-03-09T09:36:46.455Z</time>
      </trkpt>
      <trkpt lat="42.69199" lon="23.67292">
        <ele>606.469895</ele>
        <time>2022-03-09T09:36:48.413Z</time>
      </trkpt>
      <trkpt lat="42.69188" lon="23.67289">
        <ele>606.224542</ele>
        <time>2022-03-09T09:36:50.411Z</time>
      </trkpt>
      <trkpt lat="42.69177" lon="23.67285">
        <ele>605.970075</ele>
        <time>2022-03-09T09:36:52.408Z</time>
      </trkpt>
      <trkpt lat="42.69165" lon="23.67282">
        <ele>605.70509</ele>
        <time>2022-03-09T09:36:54.416Z</time>
      </trkpt>
      <trkpt lat="42.69153" lon="23.67279">
        <ele>605.455064</ele>
        <time>2022-03-09T09:36:56.416Z</time>
      </trkpt>
      <trkpt lat="42.69142" lon="23.67275">
        <ele>605.254728</ele>
        <time>2022-03-09T09:36:58.402Z</time>
      </trkpt>
      <trkpt lat="42.69131" lon="23.67272">
        <ele>605.0552</ele>
        <time>2022-03-09T09:37:00.397Z</time>
      </trkpt>
      <trkpt lat="42.69121" lon="23.6727">
        <ele>604.868392</ele>
        <time>2022-03-09T09:37:02.405Z</time>
      </trkpt>
      <trkpt lat="42.69111" lon="23.67267">
        <ele>604.689546</ele>
        <time>2022-03-09T09:37:04.409Z</time>
      </trkpt>
      <trkpt lat="42.69101" lon="23.67264">
        <ele>604.507967</ele>
        <time>2022-03-09T09:37:06.404Z</time>
      </trkpt>
      <trkpt lat="42.69091" lon="23.67262">
        <ele>604.325618</ele>
        <time>2022-03-09T09:37:08.393Z</time>
      </trkpt>
      <trkpt lat="42.6908" lon="23.6726">
        <ele>604.134915</ele>
        <time>2022-03-09T09:37:10.415Z</time>
      </trkpt>
      <trkpt lat="42.6907" lon="23.67257">
        <ele>603.952097</ele>
        <time>2022-03-09T09:37:12.416Z</time>
      </trkpt>
      <trkpt lat="42.69061" lon="23.67254">
        <ele>603.777481</ele>
        <time>2022-03-09T09:37:14.448Z</time>
      </trkpt>
      <trkpt lat="42.69052" lon="23.67252">
        <ele>603.610365</ele>
        <time>2022-03-09T09:37:16.398Z</time>
      </trkpt>
      <trkpt lat="42.69042" lon="23.67249">
        <ele>603.440502</ele>
        <time>2022-03-09T09:37:18.395Z</time>
      </trkpt>
      <trkpt lat="42.69033" lon="23.67247">
        <ele>603.266906</ele>
        <time>2022-03-09T09:37:20.416Z</time>
      </trkpt>
      <trkpt lat="42.69023" lon="23.67245">
        <ele>603.089811</ele>
        <time>2022-03-09T09:37:22.418Z</time>
      </trkpt>
      <trkpt lat="42.69013" lon="23.67242">
        <ele>602.921211</ele>
        <time>2022-03-09T09:37:24.441Z</time>
      </trkpt>
      <trkpt lat="42.69" lon="23.67239">
        <ele>602.677716</ele>
        <time>2022-03-09T09:37:27.406Z</time>
      </trkpt>
      <trkpt lat="42.68991" lon="23.67236">
        <ele>602.506851</ele>
        <time>2022-03-09T09:37:29.407Z</time>
      </trkpt>
      <trkpt lat="42.68982" lon="23.67234">
        <ele>602.345732</ele>
        <time>2022-03-09T09:37:31.406Z</time>
      </trkpt>
      <trkpt lat="42.68972" lon="23.67232">
        <ele>602.238709</ele>
        <time>2022-03-09T09:37:33.407Z</time>
      </trkpt>
      <trkpt lat="42.68963" lon="23.67229">
        <ele>602.181203</ele>
        <time>2022-03-09T09:37:35.420Z</time>
      </trkpt>
      <trkpt lat="42.68954" lon="23.67227">
        <ele>602.123176</ele>
        <time>2022-03-09T09:37:37.408Z</time>
      </trkpt>
      <trkpt lat="42.68942" lon="23.67224">
        <ele>602.048099</ele>
        <time>2022-03-09T09:37:40.417Z</time>
      </trkpt>
      <trkpt lat="42.68929" lon="23.6722">
        <ele>601.967894</ele>
        <time>2022-03-09T09:37:43.412Z</time>
      </trkpt>
      <trkpt lat="42.6892" lon="23.67217">
        <ele>601.913013</ele>
        <time>2022-03-09T09:37:45.400Z</time>
      </trkpt>
      <trkpt lat="42.68911" lon="23.67215">
        <ele>601.855659</ele>
        <time>2022-03-09T09:37:47.404Z</time>
      </trkpt>
      <trkpt lat="42.68901" lon="23.67212">
        <ele>601.794738</ele>
        <time>2022-03-09T09:37:49.387Z</time>
      </trkpt>
      <trkpt lat="42.68891" lon="23.67209">
        <ele>601.733908</ele>
        <time>2022-03-09T09:37:51.409Z</time>
      </trkpt>
      <trkpt lat="42.68882" lon="23.67207">
        <ele>601.675639</ele>
        <time>2022-03-09T09:37:53.447Z</time>
      </trkpt>
      <trkpt lat="42.68872" lon="23.67204">
        <ele>601.618649</ele>
        <time>2022-03-09T09:37:55.410Z</time>
      </trkpt>
      <trkpt lat="42.68863" lon="23.67202">
        <ele>601.561143</ele>
        <time>2022-03-09T09:37:57.415Z</time>
      </trkpt>
      <trkpt lat="42.6885" lon="23.67198">
        <ele>601.481625</ele>
        <time>2022-03-09T09:38:00.397Z</time>
      </trkpt>
      <trkpt lat="42.68838" lon="23.67195">
        <ele>601.402196</ele>
        <time>2022-03-09T09:38:03.405Z</time>
      </trkpt>
      <trkpt lat="42.68825" lon="23.67191">
        <ele>601.322586</ele>
        <time>2022-03-09T09:38:06.420Z</time>
      </trkpt>
      <trkpt lat="42.68812" lon="23.67187">
        <ele>601.240595</ele>
        <time>2022-03-09T09:38:09.413Z</time>
      </trkpt>
      <trkpt lat="42.68802" lon="23.67184">
        <ele>601.183142</ele>
        <time>2022-03-09T09:38:11.403Z</time>
      </trkpt>
      <trkpt lat="42.68789" lon="23.6718">
        <ele>601.159939</ele>
        <time>2022-03-09T09:38:14.398Z</time>
      </trkpt>
      <trkpt lat="42.68779" lon="23.67178">
        <ele>601.14686</ele>
        <time>2022-03-09T09:38:16.396Z</time>
      </trkpt>
      <trkpt lat="42.6877" lon="23.67175">
        <ele>601.13391</ele>
        <time>2022-03-09T09:38:18.397Z</time>
      </trkpt>
      <trkpt lat="42.68761" lon="23.67172">
        <ele>601.121733</ele>
        <time>2022-03-09T09:38:20.409Z</time>
      </trkpt>
      <trkpt lat="42.68751" lon="23.6717">
        <ele>601.109248</ele>
        <time>2022-03-09T09:38:22.419Z</time>
      </trkpt>
      <trkpt lat="42.68742" lon="23.67167">
        <ele>601.096874</ele>
        <time>2022-03-09T09:38:24.409Z</time>
      </trkpt>
      <trkpt lat="42.68733" lon="23.67164">
        <ele>601.084182</ele>
        <time>2022-03-09T09:38:26.426Z</time>
      </trkpt>
      <trkpt lat="42.68724" lon="23.67161">
        <ele>601.071619</ele>
        <time>2022-03-09T09:38:28.424Z</time>
      </trkpt>
      <trkpt lat="42.68714" lon="23.67159">
        <ele>601.059429</ele>
        <time>2022-03-09T09:38:30.423Z</time>
      </trkpt>
      <trkpt lat="42.68705" lon="23.67156">
        <ele>601.047123</ele>
        <time>2022-03-09T09:38:32.408Z</time>
      </trkpt>
      <trkpt lat="42.68696" lon="23.67154">
        <ele>601.034379</ele>
        <time>2022-03-09T09:38:34.395Z</time>
      </trkpt>
      <trkpt lat="42.68687" lon="23.67151">
        <ele>601.021794</ele>
        <time>2022-03-09T09:38:36.414Z</time>
      </trkpt>
      <trkpt lat="42.68677" lon="23.67149">
        <ele>601.00918</ele>
        <time>2022-03-09T09:38:38.408Z</time>
      </trkpt>
      <trkpt lat="42.68668" lon="23.67146">
        <ele>600.996379</ele>
        <time>2022-03-09T09:38:40.449Z</time>
      </trkpt>
      <trkpt lat="42.68659" lon="23.67143">
        <ele>600.984244</ele>
        <time>2022-03-09T09:38:42.406Z</time>
      </trkpt>
      <trkpt lat="42.6865" lon="23.67141">
        <ele>600.972018</ele>
        <time>2022-03-09T09:38:44.420Z</time>
      </trkpt>
      <trkpt lat="42.68641" lon="23.67139">
        <ele>600.960069</ele>
        <time>2022-03-09T09:38:46.430Z</time>
      </trkpt>
      <trkpt lat="42.68628" lon="23.67135">
        <ele>600.942361</ele>
        <time>2022-03-09T09:38:49.408Z</time>
      </trkpt>
      <trkpt lat="42.68618" lon="23.67133">
        <ele>600.950215</ele>
        <time>2022-03-09T09:38:51.446Z</time>
      </trkpt>
      <trkpt lat="42.68609" lon="23.6713">
        <ele>600.964866</ele>
        <time>2022-03-09T09:38:53.412Z</time>
      </trkpt>
      <trkpt lat="42.68599" lon="23.67128">
        <ele>600.97905</ele>
        <time>2022-03-09T09:38:55.419Z</time>
      </trkpt>
      <trkpt lat="42.6859" lon="23.67125">
        <ele>600.993107</ele>
        <time>2022-03-09T09:38:57.406Z</time>
      </trkpt>
      <trkpt lat="42.68581" lon="23.67123">
        <ele>601.006804</ele>
        <time>2022-03-09T09:38:59.424Z</time>
      </trkpt>
      <trkpt lat="42.68572" lon="23.67121">
        <ele>601.021009</ele>
        <time>2022-03-09T09:39:01.412Z</time>
      </trkpt>
      <trkpt lat="42.68563" lon="23.67118">
        <ele>601.035556</ele>
        <time>2022-03-09T09:39:03.393Z</time>
      </trkpt>
      <trkpt lat="42.68553" lon="23.67115">
        <ele>601.050275</ele>
        <time>2022-03-09T09:39:05.410Z</time>
      </trkpt>
      <trkpt lat="42.68544" lon="23.67113">
        <ele>601.065034</ele>
        <time>2022-03-09T09:39:07.399Z</time>
      </trkpt>
      <trkpt lat="42.68534" lon="23.6711">
        <ele>601.079686</ele>
        <time>2022-03-09T09:39:09.439Z</time>
      </trkpt>
      <trkpt lat="42.68525" lon="23.67107">
        <ele>601.093716</ele>
        <time>2022-03-09T09:39:11.406Z</time>
      </trkpt>
      <trkpt lat="42.68512" lon="23.67104">
        <ele>601.113999</ele>
        <time>2022-03-09T09:39:14.386Z</time>
      </trkpt>
      <trkpt lat="42.68502" lon="23.67102">
        <ele>601.128799</ele>
        <time>2022-03-09T09:39:16.410Z</time>
      </trkpt>
      <trkpt lat="42.68493" lon="23.67099">
        <ele>601.14273</ele>
        <time>2022-03-09T09:39:18.407Z</time>
      </trkpt>
      <trkpt lat="42.68484" lon="23.67096">
        <ele>601.157596</ele>
        <time>2022-03-09T09:39:20.410Z</time>
      </trkpt>
      <trkpt lat="42.68474" lon="23.67094">
        <ele>601.173182</ele>
        <time>2022-03-09T09:39:22.444Z</time>
      </trkpt>
      <trkpt lat="42.68464" lon="23.67091">
        <ele>601.187942</ele>
        <time>2022-03-09T09:39:24.427Z</time>
      </trkpt>
      <trkpt lat="42.68455" lon="23.67089">
        <ele>601.202572</ele>
        <time>2022-03-09T09:39:26.407Z</time>
      </trkpt>
      <trkpt lat="42.68445" lon="23.67087">
        <ele>601.193494</ele>
        <time>2022-03-09T09:39:28.420Z</time>
      </trkpt>
      <trkpt lat="42.68436" lon="23.67084">
        <ele>601.146008</ele>
        <time>2022-03-09T09:39:30.450Z</time>
      </trkpt>
      <trkpt lat="42.68426" lon="23.67081">
        <ele>601.097015</ele>
        <time>2022-03-09T09:39:32.404Z</time>
      </trkpt>
      <trkpt lat="42.68416" lon="23.67078">
        <ele>601.046319</ele>
        <time>2022-03-09T09:39:34.417Z</time>
      </trkpt>
      <trkpt lat="42.68406" lon="23.67076">
        <ele>600.997063</ele>
        <time>2022-03-09T09:39:36.413Z</time>
      </trkpt>
      <trkpt lat="42.68396" lon="23.67073">
        <ele>600.948835</ele>
        <time>2022-03-09T09:39:38.389Z</time>
      </trkpt>
      <trkpt lat="42.68386" lon="23.67071">
        <ele>600.899646</ele>
        <time>2022-03-09T09:39:40.401Z</time>
      </trkpt>
      <trkpt lat="42.68376" lon="23.67068">
        <ele>600.84991</ele>
        <time>2022-03-09T09:39:42.413Z</time>
      </trkpt>
      <trkpt lat="42.68367" lon="23.67066">
        <ele>600.803375</ele>
        <time>2022-03-09T09:39:44.410Z</time>
      </trkpt>
      <trkpt lat="42.68357" lon="23.67064">
        <ele>600.757133</ele>
        <time>2022-03-09T09:39:46.399Z</time>
      </trkpt>
      <trkpt lat="42.68348" lon="23.67062">
        <ele>600.712158</ele>
        <time>2022-03-09T09:39:48.420Z</time>
      </trkpt>
      <trkpt lat="42.68339" lon="23.6706">
        <ele>600.667459</ele>
        <time>2022-03-09T09:39:50.408Z</time>
      </trkpt>
      <trkpt lat="42.6833" lon="23.67058">
        <ele>600.622369</ele>
        <time>2022-03-09T09:39:52.437Z</time>
      </trkpt>
      <trkpt lat="42.68321" lon="23.67056">
        <ele>600.577338</ele>
        <time>2022-03-09T09:39:54.415Z</time>
      </trkpt>
      <trkpt lat="42.68308" lon="23.67053">
        <ele>600.511294</ele>
        <time>2022-03-09T09:39:57.417Z</time>
      </trkpt>
      <trkpt lat="42.68299" lon="23.67051">
        <ele>600.466319</ele>
        <time>2022-03-09T09:39:59.410Z</time>
      </trkpt>
      <trkpt lat="42.68289" lon="23.67049">
        <ele>600.420265</ele>
        <time>2022-03-09T09:40:01.428Z</time>
      </trkpt>
      <trkpt lat="42.68276" lon="23.67046">
        <ele>600.354828</ele>
        <time>2022-03-09T09:40:04.406Z</time>
      </trkpt>
      <trkpt lat="42.68263" lon="23.67043">
        <ele>600.69342</ele>
        <time>2022-03-09T09:40:07.396Z</time>
      </trkpt>
      <trkpt lat="42.68253" lon="23.67042">
        <ele>601.1051</ele>
        <time>2022-03-09T09:40:09.452Z</time>
      </trkpt>
      <trkpt lat="42.68243" lon="23.67043">
        <ele>601.523922</ele>
        <time>2022-03-09T09:40:11.412Z</time>
      </trkpt>
      <trkpt lat="42.68234" lon="23.67046">
        <ele>601.897471</ele>
        <time>2022-03-09T09:40:13.408Z</time>
      </trkpt>
      <trkpt lat="42.68225" lon="23.6705">
        <ele>602.269229</ele>
        <time>2022-03-09T09:40:15.429Z</time>
      </trkpt>
      <trkpt lat="42.68216" lon="23.67053">
        <ele>602.664937</ele>
        <time>2022-03-09T09:40:17.409Z</time>
      </trkpt>
      <trkpt lat="42.68207" lon="23.67056">
        <ele>603.058331</ele>
        <time>2022-03-09T09:40:19.412Z</time>
      </trkpt>
      <trkpt lat="42.68197" lon="23.6706">
        <ele>603.473128</ele>
        <time>2022-03-09T09:40:21.445Z</time>
      </trkpt>
      <trkpt lat="42.68188" lon="23.67064">
        <ele>603.860938</ele>
        <time>2022-03-09T09:40:23.424Z</time>
      </trkpt>
      <trkpt lat="42.68179" lon="23.67067">
        <ele>604.242581</ele>
        <time>2022-03-09T09:40:25.405Z</time>
      </trkpt>
      <trkpt lat="42.68171" lon="23.67072">
        <ele>604.614479</ele>
        <time>2022-03-09T09:40:27.448Z</time>
      </trkpt>
      <trkpt lat="42.68162" lon="23.67077">
        <ele>604.998017</ele>
        <time>2022-03-09T09:40:29.398Z</time>
      </trkpt>
      <trkpt lat="42.68149" lon="23.67082">
        <ele>605.563283</ele>
        <time>2022-03-09T09:40:32.401Z</time>
      </trkpt>
      <trkpt lat="42.68136" lon="23.67087">
        <ele>606.090362</ele>
        <time>2022-03-09T09:40:35.405Z</time>
      </trkpt>
      <trkpt lat="42.68124" lon="23.6709">
        <ele>606.618969</ele>
        <time>2022-03-09T09:40:38.453Z</time>
      </trkpt>
      <trkpt lat="42.68115" lon="23.67093">
        <ele>606.994986</ele>
        <time>2022-03-09T09:40:40.407Z</time>
      </trkpt>
      <trkpt lat="42.68103" lon="23.67098">
        <ele>607.497014</ele>
        <time>2022-03-09T09:40:43.403Z</time>
      </trkpt>
      <trkpt lat="42.68092" lon="23.67102">
        <ele>607.626661</ele>
        <time>2022-03-09T09:40:46.412Z</time>
      </trkpt>
      <trkpt lat="42.68083" lon="23.67105">
        <ele>607.512878</ele>
        <time>2022-03-09T09:40:48.405Z</time>
      </trkpt>
      <trkpt lat="42.68073" lon="23.6711">
        <ele>607.38499</ele>
        <time>2022-03-09T09:40:50.408Z</time>
      </trkpt>
      <trkpt lat="42.68063" lon="23.67112">
        <ele>607.262211</ele>
        <time>2022-03-09T09:40:52.403Z</time>
      </trkpt>
      <trkpt lat="42.68053" lon="23.67116">
        <ele>607.13969</ele>
        <time>2022-03-09T09:40:54.415Z</time>
      </trkpt>
      <trkpt lat="42.68044" lon="23.67119">
        <ele>607.022115</ele>
        <time>2022-03-09T09:40:56.413Z</time>
      </trkpt>
      <trkpt lat="42.68035" lon="23.67123">
        <ele>606.904054</ele>
        <time>2022-03-09T09:40:58.407Z</time>
      </trkpt>
      <trkpt lat="42.68022" lon="23.67129">
        <ele>606.73781</ele>
        <time>2022-03-09T09:41:01.411Z</time>
      </trkpt>
      <trkpt lat="42.68013" lon="23.67133">
        <ele>606.619519</ele>
        <time>2022-03-09T09:41:03.416Z</time>
      </trkpt>
      <trkpt lat="42.68003" lon="23.67138">
        <ele>606.492968</ele>
        <time>2022-03-09T09:41:05.450Z</time>
      </trkpt>
      <trkpt lat="42.67995" lon="23.67142">
        <ele>606.380637</ele>
        <time>2022-03-09T09:41:07.413Z</time>
      </trkpt>
      <trkpt lat="42.67982" lon="23.67148">
        <ele>606.214645</ele>
        <time>2022-03-09T09:41:10.412Z</time>
      </trkpt>
      <trkpt lat="42.67969" lon="23.67154">
        <ele>606.048104</ele>
        <time>2022-03-09T09:41:13.436Z</time>
      </trkpt>
      <trkpt lat="42.67956" lon="23.6716">
        <ele>605.883879</ele>
        <time>2022-03-09T09:41:16.412Z</time>
      </trkpt>
      <trkpt lat="42.67944" lon="23.67167">
        <ele>605.719095</ele>
        <time>2022-03-09T09:41:19.399Z</time>
      </trkpt>
      <trkpt lat="42.67931" lon="23.67175">
        <ele>605.54708</ele>
        <time>2022-03-09T09:41:22.430Z</time>
      </trkpt>
      <trkpt lat="42.67922" lon="23.67179">
        <ele>605.524278</ele>
        <time>2022-03-09T09:41:24.427Z</time>
      </trkpt>
      <trkpt lat="42.67912" lon="23.67184">
        <ele>605.561281</ele>
        <time>2022-03-09T09:41:26.388Z</time>
      </trkpt>
      <trkpt lat="42.67903" lon="23.67188">
        <ele>605.598621</ele>
        <time>2022-03-09T09:41:28.430Z</time>
      </trkpt>
      <trkpt lat="42.67893" lon="23.67187">
        <ele>605.63598</ele>
        <time>2022-03-09T09:41:30.414Z</time>
      </trkpt>
      <trkpt lat="42.67882" lon="23.67185">
        <ele>605.677228</ele>
        <time>2022-03-09T09:41:32.398Z</time>
      </trkpt>
      <trkpt lat="42.6787" lon="23.67178">
        <ele>605.727678</ele>
        <time>2022-03-09T09:41:35.452Z</time>
      </trkpt>
      <trkpt lat="42.67857" lon="23.67173">
        <ele>605.777419</ele>
        <time>2022-03-09T09:41:38.445Z</time>
      </trkpt>
      <trkpt lat="42.67846" lon="23.67167">
        <ele>605.822251</ele>
        <time>2022-03-09T09:41:41.396Z</time>
      </trkpt>
      <trkpt lat="42.67835" lon="23.67161">
        <ele>605.866923</ele>
        <time>2022-03-09T09:41:44.410Z</time>
      </trkpt>
      <trkpt lat="42.67823" lon="23.67157">
        <ele>605.913865</ele>
        <time>2022-03-09T09:41:47.409Z</time>
      </trkpt>
      <trkpt lat="42.67809" lon="23.67158">
        <ele>605.965538</ele>
        <time>2022-03-09T09:41:50.402Z</time>
      </trkpt>
      <trkpt lat="42.67799" lon="23.67161">
        <ele>606.003727</ele>
        <time>2022-03-09T09:41:52.417Z</time>
      </trkpt>
      <trkpt lat="42.67791" lon="23.67164">
        <ele>606.038408</ele>
        <time>2022-03-09T09:41:54.407Z</time>
      </trkpt>
      <trkpt lat="42.67778" lon="23.6717">
        <ele>606.087516</ele>
        <time>2022-03-09T09:41:57.404Z</time>
      </trkpt>
      <trkpt lat="42.67769" lon="23.67173">
        <ele>606.121676</ele>
        <time>2022-03-09T09:41:59.408Z</time>
      </trkpt>
      <trkpt lat="42.67757" lon="23.67176">
        <ele>606.170289</ele>
        <time>2022-03-09T09:42:02.420Z</time>
      </trkpt>
      <trkpt lat="42.67748" lon="23.67169">
        <ele>606.231131</ele>
        <time>2022-03-09T09:42:05.395Z</time>
      </trkpt>
      <trkpt lat="42.6774" lon="23.67161">
        <ele>606.304196</ele>
        <time>2022-03-09T09:42:08.418Z</time>
      </trkpt>
      <trkpt lat="42.67731" lon="23.67154">
        <ele>606.382031</ele>
        <time>2022-03-09T09:42:11.451Z</time>
      </trkpt>
      <trkpt lat="42.67734" lon="23.67167">
        <ele>606.455757</ele>
        <time>2022-03-09T09:42:21.436Z</time>
      </trkpt>
      <trkpt lat="42.67742" lon="23.67175">
        <ele>606.528442</ele>
        <time>2022-03-09T09:42:27.460Z</time>
      </trkpt>
      <trkpt lat="42.67736" lon="23.67162">
        <ele>606.608469</ele>
        <time>2022-03-09T09:42:35.421Z</time>
      </trkpt>
      <trkpt lat="42.67727" lon="23.67157">
        <ele>606.677796</ele>
        <time>2022-03-09T09:42:38.416Z</time>
      </trkpt>
      <trkpt lat="42.67719" lon="23.67151">
        <ele>606.742504</ele>
        <time>2022-03-09T09:42:41.408Z</time>
      </trkpt>
      <trkpt lat="42.6771" lon="23.67142">
        <ele>606.824712</ele>
        <time>2022-03-09T09:42:45.397Z</time>
      </trkpt>
      <trkpt lat="42.67701" lon="23.67134">
        <ele>606.897398</ele>
        <time>2022-03-09T09:42:48.395Z</time>
      </trkpt>
      <trkpt lat="42.67692" lon="23.67127">
        <ele>606.967997</ele>
        <time>2022-03-09T09:42:51.379Z</time>
      </trkpt>
      <trkpt lat="42.67683" lon="23.6712">
        <ele>607.042334</ele>
        <time>2022-03-09T09:42:54.396Z</time>
      </trkpt>
      <trkpt lat="42.67674" lon="23.67112">
        <ele>607.121783</ele>
        <time>2022-03-09T09:42:57.408Z</time>
      </trkpt>
      <trkpt lat="42.67667" lon="23.67104">
        <ele>607.188892</ele>
        <time>2022-03-09T09:43:00.404Z</time>
      </trkpt>
      <trkpt lat="42.67661" lon="23.67091">
        <ele>607.26802</ele>
        <time>2022-03-09T09:43:03.404Z</time>
      </trkpt>
      <trkpt lat="42.67658" lon="23.67076">
        <ele>607.349936</ele>
        <time>2022-03-09T09:43:06.411Z</time>
      </trkpt>
      <trkpt lat="42.67658" lon="23.67059">
        <ele>607.438295</ele>
        <time>2022-03-09T09:43:09.420Z</time>
      </trkpt>
      <trkpt lat="42.6766" lon="23.67042">
        <ele>607.344733</ele>
        <time>2022-03-09T09:43:12.397Z</time>
      </trkpt>
      <trkpt lat="42.67662" lon="23.67026">
        <ele>607.2088</ele>
        <time>2022-03-09T09:43:15.391Z</time>
      </trkpt>
      <trkpt lat="42.67665" lon="23.67011">
        <ele>607.086512</ele>
        <time>2022-03-09T09:43:18.430Z</time>
      </trkpt>
      <trkpt lat="42.67666" lon="23.66996">
        <ele>606.961999</ele>
        <time>2022-03-09T09:43:21.412Z</time>
      </trkpt>
      <trkpt lat="42.67668" lon="23.6698">
        <ele>606.831468</ele>
        <time>2022-03-09T09:43:24.391Z</time>
      </trkpt>
      <trkpt lat="42.6767" lon="23.66966">
        <ele>606.712038</ele>
        <time>2022-03-09T09:43:27.435Z</time>
      </trkpt>
      <trkpt lat="42.67673" lon="23.66952">
        <ele>606.597491</ele>
        <time>2022-03-09T09:43:30.415Z</time>
      </trkpt>
      <trkpt lat="42.67675" lon="23.66938">
        <ele>606.477236</ele>
        <time>2022-03-09T09:43:33.402Z</time>
      </trkpt>
      <trkpt lat="42.67676" lon="23.66923">
        <ele>606.351219</ele>
        <time>2022-03-09T09:43:36.412Z</time>
      </trkpt>
      <trkpt lat="42.67675" lon="23.66908">
        <ele>606.232649</ele>
        <time>2022-03-09T09:43:39.396Z</time>
      </trkpt>
      <trkpt lat="42.67673" lon="23.66895">
        <ele>606.121282</ele>
        <time>2022-03-09T09:43:42.379Z</time>
      </trkpt>
      <trkpt lat="42.67669" lon="23.66882">
        <ele>606.009743</ele>
        <time>2022-03-09T09:43:45.440Z</time>
      </trkpt>
      <trkpt lat="42.67665" lon="23.66867">
        <ele>605.874364</ele>
        <time>2022-03-09T09:43:48.393Z</time>
      </trkpt>
      <trkpt lat="42.6766" lon="23.66852">
        <ele>605.740499</ele>
        <time>2022-03-09T09:43:51.396Z</time>
      </trkpt>
      <trkpt lat="42.67656" lon="23.66837">
        <ele>605.616707</ele>
        <time>2022-03-09T09:43:54.392Z</time>
      </trkpt>
      <trkpt lat="42.67651" lon="23.66823">
        <ele>605.489234</ele>
        <time>2022-03-09T09:43:57.427Z</time>
      </trkpt>
      <trkpt lat="42.67646" lon="23.66811">
        <ele>605.265159</ele>
        <time>2022-03-09T09:44:00.397Z</time>
      </trkpt>
      <trkpt lat="42.67642" lon="23.66795">
        <ele>604.961955</ele>
        <time>2022-03-09T09:44:03.420Z</time>
      </trkpt>
      <trkpt lat="42.67638" lon="23.66781">
        <ele>604.69552</ele>
        <time>2022-03-09T09:44:06.400Z</time>
      </trkpt>
      <trkpt lat="42.67632" lon="23.66768">
        <ele>604.428071</ele>
        <time>2022-03-09T09:44:09.401Z</time>
      </trkpt>
      <trkpt lat="42.67626" lon="23.66754">
        <ele>604.131338</ele>
        <time>2022-03-09T09:44:12.398Z</time>
      </trkpt>
      <trkpt lat="42.6762" lon="23.6674">
        <ele>603.83296</ele>
        <time>2022-03-09T09:44:15.400Z</time>
      </trkpt>
      <trkpt lat="42.67615" lon="23.66729">
        <ele>603.604258</ele>
        <time>2022-03-09T09:44:17.401Z</time>
      </trkpt>
      <trkpt lat="42.67611" lon="23.66717">
        <ele>603.369816</ele>
        <time>2022-03-09T09:44:19.441Z</time>
      </trkpt>
      <trkpt lat="42.67607" lon="23.66706">
        <ele>603.147259</ele>
        <time>2022-03-09T09:44:21.466Z</time>
      </trkpt>
      <trkpt lat="42.67604" lon="23.66695">
        <ele>602.921421</ele>
        <time>2022-03-09T09:44:23.420Z</time>
      </trkpt>
      <trkpt lat="42.676" lon="23.66683">
        <ele>602.690642</ele>
        <time>2022-03-09T09:44:25.443Z</time>
      </trkpt>
      <trkpt lat="42.67596" lon="23.66672">
        <ele>602.464901</ele>
        <time>2022-03-09T09:44:27.399Z</time>
      </trkpt>
      <trkpt lat="42.6759" lon="23.66657">
        <ele>602.16071</ele>
        <time>2022-03-09T09:44:30.398Z</time>
      </trkpt>
      <trkpt lat="42.67585" lon="23.66642">
        <ele>601.867853</ele>
        <time>2022-03-09T09:44:33.400Z</time>
      </trkpt>
      <trkpt lat="42.67579" lon="23.66627">
        <ele>601.559751</ele>
        <time>2022-03-09T09:44:36.427Z</time>
      </trkpt>
      <trkpt lat="42.67576" lon="23.66616">
        <ele>601.339456</ele>
        <time>2022-03-09T09:44:38.385Z</time>
      </trkpt>
      <trkpt lat="42.67571" lon="23.66605">
        <ele>601.119015</ele>
        <time>2022-03-09T09:44:40.395Z</time>
      </trkpt>
      <trkpt lat="42.67567" lon="23.66593">
        <ele>600.859925</ele>
        <time>2022-03-09T09:44:42.419Z</time>
      </trkpt>
      <trkpt lat="42.67563" lon="23.66582">
        <ele>600.58097</ele>
        <time>2022-03-09T09:44:44.414Z</time>
      </trkpt>
      <trkpt lat="42.67558" lon="23.66567">
        <ele>600.22876</ele>
        <time>2022-03-09T09:44:47.418Z</time>
      </trkpt>
      <trkpt lat="42.67554" lon="23.66552">
        <ele>599.903697</ele>
        <time>2022-03-09T09:44:50.407Z</time>
      </trkpt>
      <trkpt lat="42.6755" lon="23.66541">
        <ele>599.640866</ele>
        <time>2022-03-09T09:44:52.437Z</time>
      </trkpt>
      <trkpt lat="42.67544" lon="23.66527">
        <ele>599.288595</ele>
        <time>2022-03-09T09:44:55.405Z</time>
      </trkpt>
      <trkpt lat="42.67538" lon="23.66512">
        <ele>598.937147</ele>
        <time>2022-03-09T09:44:58.445Z</time>
      </trkpt>
      <trkpt lat="42.67533" lon="23.66497">
        <ele>598.581146</ele>
        <time>2022-03-09T09:45:01.433Z</time>
      </trkpt>
      <trkpt lat="42.67527" lon="23.66481">
        <ele>598.197782</ele>
        <time>2022-03-09T09:45:04.407Z</time>
      </trkpt>
      <trkpt lat="42.67522" lon="23.66465">
        <ele>597.832815</ele>
        <time>2022-03-09T09:45:07.405Z</time>
      </trkpt>
      <trkpt lat="42.67518" lon="23.66452">
        <ele>597.525734</ele>
        <time>2022-03-09T09:45:10.428Z</time>
      </trkpt>
      <trkpt lat="42.67515" lon="23.66439">
        <ele>597.228658</ele>
        <time>2022-03-09T09:45:13.388Z</time>
      </trkpt>
      <trkpt lat="42.6751" lon="23.66425">
        <ele>596.89835</ele>
        <time>2022-03-09T09:45:16.401Z</time>
      </trkpt>
      <trkpt lat="42.67505" lon="23.6641">
        <ele>596.547577</ele>
        <time>2022-03-09T09:45:19.391Z</time>
      </trkpt>
      <trkpt lat="42.675" lon="23.66396">
        <ele>596.226131</ele>
        <time>2022-03-09T09:45:22.393Z</time>
      </trkpt>
      <trkpt lat="42.67495" lon="23.66382">
        <ele>595.894382</ele>
        <time>2022-03-09T09:45:25.403Z</time>
      </trkpt>
      <trkpt lat="42.6749" lon="23.66368">
        <ele>595.735515</ele>
        <time>2022-03-09T09:45:28.394Z</time>
      </trkpt>
      <trkpt lat="42.67484" lon="23.66353">
        <ele>595.617286</ele>
        <time>2022-03-09T09:45:31.420Z</time>
      </trkpt>
      <trkpt lat="42.67478" lon="23.66338">
        <ele>595.502332</ele>
        <time>2022-03-09T09:45:34.414Z</time>
      </trkpt>
      <trkpt lat="42.67474" lon="23.66325">
        <ele>595.400123</ele>
        <time>2022-03-09T09:45:37.428Z</time>
      </trkpt>
      <trkpt lat="42.67469" lon="23.6631">
        <ele>595.285723</ele>
        <time>2022-03-09T09:45:40.411Z</time>
      </trkpt>
      <trkpt lat="42.67464" lon="23.66294">
        <ele>595.164073</ele>
        <time>2022-03-09T09:45:43.429Z</time>
      </trkpt>
      <trkpt lat="42.67459" lon="23.66278">
        <ele>595.047004</ele>
        <time>2022-03-09T09:45:46.407Z</time>
      </trkpt>
      <trkpt lat="42.67454" lon="23.66262">
        <ele>594.927478</ele>
        <time>2022-03-09T09:45:49.401Z</time>
      </trkpt>
      <trkpt lat="42.67449" lon="23.66247">
        <ele>594.806464</ele>
        <time>2022-03-09T09:45:52.417Z</time>
      </trkpt>
      <trkpt lat="42.67443" lon="23.66231">
        <ele>594.683451</ele>
        <time>2022-03-09T09:45:55.438Z</time>
      </trkpt>
      <trkpt lat="42.67438" lon="23.66217">
        <ele>594.57459</ele>
        <time>2022-03-09T09:45:58.416Z</time>
      </trkpt>
      <trkpt lat="42.67433" lon="23.66203">
        <ele>594.466321</ele>
        <time>2022-03-09T09:46:01.419Z</time>
      </trkpt>
      <trkpt lat="42.67427" lon="23.6619">
        <ele>594.359489</ele>
        <time>2022-03-09T09:46:04.405Z</time>
      </trkpt>
      <trkpt lat="42.67421" lon="23.66176">
        <ele>594.247273</ele>
        <time>2022-03-09T09:46:07.413Z</time>
      </trkpt>
      <trkpt lat="42.67415" lon="23.66161">
        <ele>594.128973</ele>
        <time>2022-03-09T09:46:10.424Z</time>
      </trkpt>
      <trkpt lat="42.6741" lon="23.66146">
        <ele>593.998744</ele>
        <time>2022-03-09T09:46:13.395Z</time>
      </trkpt>
      <trkpt lat="42.67405" lon="23.66132">
        <ele>593.862704</ele>
        <time>2022-03-09T09:46:16.389Z</time>
      </trkpt>
      <trkpt lat="42.674" lon="23.66117">
        <ele>593.729907</ele>
        <time>2022-03-09T09:46:19.439Z</time>
      </trkpt>
      <trkpt lat="42.67396" lon="23.66103">
        <ele>593.598036</ele>
        <time>2022-03-09T09:46:22.445Z</time>
      </trkpt>
      <trkpt lat="42.67391" lon="23.66088">
        <ele>593.461275</ele>
        <time>2022-03-09T09:46:25.388Z</time>
      </trkpt>
      <trkpt lat="42.67386" lon="23.66074">
        <ele>593.326758</ele>
        <time>2022-03-09T09:46:28.401Z</time>
      </trkpt>
      <trkpt lat="42.6738" lon="23.6606">
        <ele>593.195016</ele>
        <time>2022-03-09T09:46:31.409Z</time>
      </trkpt>
      <trkpt lat="42.67376" lon="23.66045">
        <ele>593.061603</ele>
        <time>2022-03-09T09:46:34.387Z</time>
      </trkpt>
      <trkpt lat="42.67371" lon="23.6603">
        <ele>592.926038</ele>
        <time>2022-03-09T09:46:37.416Z</time>
      </trkpt>
      <trkpt lat="42.67367" lon="23.66015">
        <ele>592.79123</ele>
        <time>2022-03-09T09:46:40.404Z</time>
      </trkpt>
      <trkpt lat="42.67363" lon="23.66001">
        <ele>592.662727</ele>
        <time>2022-03-09T09:46:43.399Z</time>
      </trkpt>
      <trkpt lat="42.6736" lon="23.65986">
        <ele>592.53169</ele>
        <time>2022-03-09T09:46:46.399Z</time>
      </trkpt>
      <trkpt lat="42.67357" lon="23.65971">
        <ele>592.400819</ele>
        <time>2022-03-09T09:46:49.397Z</time>
      </trkpt>
      <trkpt lat="42.67354" lon="23.65956">
        <ele>592.273795</ele>
        <time>2022-03-09T09:46:52.421Z</time>
      </trkpt>
      <trkpt lat="42.6735" lon="23.65942">
        <ele>592.142758</ele>
        <time>2022-03-09T09:46:55.411Z</time>
      </trkpt>
      <trkpt lat="42.67347" lon="23.65926">
        <ele>592.200882</ele>
        <time>2022-03-09T09:46:58.397Z</time>
      </trkpt>
      <trkpt lat="42.67344" lon="23.65911">
        <ele>592.485374</ele>
        <time>2022-03-09T09:47:01.400Z</time>
      </trkpt>
      <trkpt lat="42.67342" lon="23.65897">
        <ele>592.749695</ele>
        <time>2022-03-09T09:47:04.414Z</time>
      </trkpt>
      <trkpt lat="42.6734" lon="23.65882">
        <ele>593.012033</ele>
        <time>2022-03-09T09:47:07.449Z</time>
      </trkpt>
      <trkpt lat="42.67337" lon="23.65869">
        <ele>593.267932</ele>
        <time>2022-03-09T09:47:10.397Z</time>
      </trkpt>
      <trkpt lat="42.67335" lon="23.65855">
        <ele>593.526173</ele>
        <time>2022-03-09T09:47:13.400Z</time>
      </trkpt>
      <trkpt lat="42.67332" lon="23.65841">
        <ele>593.78286</ele>
        <time>2022-03-09T09:47:16.398Z</time>
      </trkpt>
      <trkpt lat="42.67329" lon="23.65826">
        <ele>594.058204</ele>
        <time>2022-03-09T09:47:19.416Z</time>
      </trkpt>
      <trkpt lat="42.67326" lon="23.65812">
        <ele>594.32182</ele>
        <time>2022-03-09T09:47:22.403Z</time>
      </trkpt>
      <trkpt lat="42.67323" lon="23.65798">
        <ele>594.591299</ele>
        <time>2022-03-09T09:47:25.404Z</time>
      </trkpt>
      <trkpt lat="42.67319" lon="23.65784">
        <ele>594.855055</ele>
        <time>2022-03-09T09:47:28.403Z</time>
      </trkpt>
      <trkpt lat="42.67316" lon="23.65769">
        <ele>595.135953</ele>
        <time>2022-03-09T09:47:31.397Z</time>
      </trkpt>
      <trkpt lat="42.67312" lon="23.65754">
        <ele>595.41481</ele>
        <time>2022-03-09T09:47:34.411Z</time>
      </trkpt>
      <trkpt lat="42.67308" lon="23.6574">
        <ele>595.69799</ele>
        <time>2022-03-09T09:47:37.417Z</time>
      </trkpt>
      <trkpt lat="42.67304" lon="23.65726">
        <ele>595.965243</ele>
        <time>2022-03-09T09:47:40.449Z</time>
      </trkpt>
      <trkpt lat="42.67298" lon="23.65711">
        <ele>596.265955</ele>
        <time>2022-03-09T09:47:43.388Z</time>
      </trkpt>
      <trkpt lat="42.67295" lon="23.65696">
        <ele>596.515639</ele>
        <time>2022-03-09T09:47:46.471Z</time>
      </trkpt>
      <trkpt lat="42.6729" lon="23.65682">
        <ele>596.686789</ele>
        <time>2022-03-09T09:47:49.431Z</time>
      </trkpt>
      <trkpt lat="42.67286" lon="23.65669">
        <ele>596.845845</ele>
        <time>2022-03-09T09:47:52.392Z</time>
      </trkpt>
      <trkpt lat="42.67283" lon="23.65654">
        <ele>597.010758</ele>
        <time>2022-03-09T09:47:55.407Z</time>
      </trkpt>
      <trkpt lat="42.6728" lon="23.65639">
        <ele>597.188565</ele>
        <time>2022-03-09T09:47:58.403Z</time>
      </trkpt>
      <trkpt lat="42.67276" lon="23.65625">
        <ele>597.357105</ele>
        <time>2022-03-09T09:48:01.397Z</time>
      </trkpt>
      <trkpt lat="42.67269" lon="23.6561">
        <ele>597.543192</ele>
        <time>2022-03-09T09:48:04.401Z</time>
      </trkpt>
      <trkpt lat="42.67261" lon="23.65598">
        <ele>597.723886</ele>
        <time>2022-03-09T09:48:07.400Z</time>
      </trkpt>
      <trkpt lat="42.67253" lon="23.65586">
        <ele>597.897665</ele>
        <time>2022-03-09T09:48:10.394Z</time>
      </trkpt>
      <trkpt lat="42.67245" lon="23.65575">
        <ele>598.077277</ele>
        <time>2022-03-09T09:48:13.407Z</time>
      </trkpt>
      <trkpt lat="42.67236" lon="23.65565">
        <ele>598.246332</ele>
        <time>2022-03-09T09:48:16.394Z</time>
      </trkpt>
      <trkpt lat="42.67228" lon="23.65556">
        <ele>598.406723</ele>
        <time>2022-03-09T09:48:19.386Z</time>
      </trkpt>
      <trkpt lat="42.67221" lon="23.65547">
        <ele>598.543508</ele>
        <time>2022-03-09T09:48:22.405Z</time>
      </trkpt>
      <trkpt lat="42.67214" lon="23.65539">
        <ele>598.687052</ele>
        <time>2022-03-09T09:48:25.415Z</time>
      </trkpt>
      <trkpt lat="42.67205" lon="23.6553">
        <ele>598.854882</ele>
        <time>2022-03-09T09:48:28.392Z</time>
      </trkpt>
      <trkpt lat="42.67195" lon="23.65518">
        <ele>599.04574</ele>
        <time>2022-03-09T09:48:31.428Z</time>
      </trkpt>
      <trkpt lat="42.67186" lon="23.65508">
        <ele>599.248011</ele>
        <time>2022-03-09T09:48:34.410Z</time>
      </trkpt>
      <trkpt lat="42.67176" lon="23.65498">
        <ele>599.478818</ele>
        <time>2022-03-09T09:48:37.436Z</time>
      </trkpt>
      <trkpt lat="42.67168" lon="23.65489">
        <ele>599.696146</ele>
        <time>2022-03-09T09:48:40.405Z</time>
      </trkpt>
      <trkpt lat="42.67158" lon="23.6548">
        <ele>599.937989</ele>
        <time>2022-03-09T09:48:43.418Z</time>
      </trkpt>
      <trkpt lat="42.67148" lon="23.65469">
        <ele>600.177947</ele>
        <time>2022-03-09T09:48:46.412Z</time>
      </trkpt>
      <trkpt lat="42.67137" lon="23.65459">
        <ele>600.440154</ele>
        <time>2022-03-09T09:48:49.399Z</time>
      </trkpt>
      <trkpt lat="42.6713" lon="23.6545">
        <ele>600.623056</ele>
        <time>2022-03-09T09:48:51.390Z</time>
      </trkpt>
      <trkpt lat="42.67125" lon="23.65441">
        <ele>600.800942</ele>
        <time>2022-03-09T09:48:53.417Z</time>
      </trkpt>
      <trkpt lat="42.6712" lon="23.6543">
        <ele>600.985237</ele>
        <time>2022-03-09T09:48:55.413Z</time>
      </trkpt>
      <trkpt lat="42.67115" lon="23.6542">
        <ele>601.163168</ele>
        <time>2022-03-09T09:48:57.392Z</time>
      </trkpt>
      <trkpt lat="42.67109" lon="23.65404">
        <ele>601.418477</ele>
        <time>2022-03-09T09:49:00.395Z</time>
      </trkpt>
      <trkpt lat="42.67104" lon="23.65394">
        <ele>601.596346</ele>
        <time>2022-03-09T09:49:02.407Z</time>
      </trkpt>
      <trkpt lat="42.67097" lon="23.65379">
        <ele>601.862214</ele>
        <time>2022-03-09T09:49:05.448Z</time>
      </trkpt>
      <trkpt lat="42.67092" lon="23.65368">
        <ele>602.043883</ele>
        <time>2022-03-09T09:49:07.403Z</time>
      </trkpt>
      <trkpt lat="42.67087" lon="23.65358">
        <ele>602.221724</ele>
        <time>2022-03-09T09:49:09.397Z</time>
      </trkpt>
      <trkpt lat="42.67081" lon="23.65347">
        <ele>602.410289</ele>
        <time>2022-03-09T09:49:11.450Z</time>
      </trkpt>
      <trkpt lat="42.67076" lon="23.65337">
        <ele>602.594135</ele>
        <time>2022-03-09T09:49:13.384Z</time>
      </trkpt>
      <trkpt lat="42.67071" lon="23.65327">
        <ele>602.713391</ele>
        <time>2022-03-09T09:49:15.377Z</time>
      </trkpt>
      <trkpt lat="42.67064" lon="23.65312">
        <ele>602.688107</ele>
        <time>2022-03-09T09:49:18.401Z</time>
      </trkpt>
      <trkpt lat="42.67058" lon="23.65302">
        <ele>602.670427</ele>
        <time>2022-03-09T09:49:20.403Z</time>
      </trkpt>
      <trkpt lat="42.67051" lon="23.65288">
        <ele>602.646068</ele>
        <time>2022-03-09T09:49:23.398Z</time>
      </trkpt>
      <trkpt lat="42.67044" lon="23.65272">
        <ele>602.619975</ele>
        <time>2022-03-09T09:49:26.391Z</time>
      </trkpt>
      <trkpt lat="42.67039" lon="23.65262">
        <ele>602.601807</ele>
        <time>2022-03-09T09:49:28.384Z</time>
      </trkpt>
      <trkpt lat="42.67031" lon="23.65247">
        <ele>602.576314</ele>
        <time>2022-03-09T09:49:31.403Z</time>
      </trkpt>
      <trkpt lat="42.67024" lon="23.65232">
        <ele>602.55193</ele>
        <time>2022-03-09T09:49:34.397Z</time>
      </trkpt>
      <trkpt lat="42.67017" lon="23.65219">
        <ele>602.52782</ele>
        <time>2022-03-09T09:49:37.389Z</time>
      </trkpt>
      <trkpt lat="42.6701" lon="23.65204">
        <ele>602.503461</ele>
        <time>2022-03-09T09:49:40.406Z</time>
      </trkpt>
      <trkpt lat="42.67003" lon="23.65192">
        <ele>602.480381</ele>
        <time>2022-03-09T09:49:43.414Z</time>
      </trkpt>
      <trkpt lat="42.66997" lon="23.65179">
        <ele>602.458316</ele>
        <time>2022-03-09T09:49:46.394Z</time>
      </trkpt>
      <trkpt lat="42.66989" lon="23.65165">
        <ele>602.433489</ele>
        <time>2022-03-09T09:49:49.409Z</time>
      </trkpt>
      <trkpt lat="42.66983" lon="23.65156">
        <ele>602.415645</ele>
        <time>2022-03-09T09:49:51.400Z</time>
      </trkpt>
      <trkpt lat="42.66976" lon="23.65141">
        <ele>602.39157</ele>
        <time>2022-03-09T09:49:54.403Z</time>
      </trkpt>
      <trkpt lat="42.66971" lon="23.65127">
        <ele>602.357736</ele>
        <time>2022-03-09T09:49:57.387Z</time>
      </trkpt>
      <trkpt lat="42.66966" lon="23.65111">
        <ele>602.168586</ele>
        <time>2022-03-09T09:50:00.421Z</time>
      </trkpt>
      <trkpt lat="42.66962" lon="23.65099">
        <ele>602.024173</ele>
        <time>2022-03-09T09:50:02.436Z</time>
      </trkpt>
      <trkpt lat="42.66957" lon="23.65088">
        <ele>601.887922</ele>
        <time>2022-03-09T09:50:04.384Z</time>
      </trkpt>
      <trkpt lat="42.6695" lon="23.65073">
        <ele>601.692607</ele>
        <time>2022-03-09T09:50:07.384Z</time>
      </trkpt>
      <trkpt lat="42.66945" lon="23.65063">
        <ele>601.559302</ele>
        <time>2022-03-09T09:50:09.397Z</time>
      </trkpt>
      <trkpt lat="42.66937" lon="23.65048">
        <ele>601.368493</ele>
        <time>2022-03-09T09:50:12.408Z</time>
      </trkpt>
      <trkpt lat="42.6693" lon="23.65034">
        <ele>601.181738</ele>
        <time>2022-03-09T09:50:15.392Z</time>
      </trkpt>
      <trkpt lat="42.66921" lon="23.65021">
        <ele>600.991467</ele>
        <time>2022-03-09T09:50:18.445Z</time>
      </trkpt>
      <trkpt lat="42.66911" lon="23.6501">
        <ele>600.801371</ele>
        <time>2022-03-09T09:50:21.393Z</time>
      </trkpt>
      <trkpt lat="42.669" lon="23.65001">
        <ele>600.608605</ele>
        <time>2022-03-09T09:50:24.391Z</time>
      </trkpt>
      <trkpt lat="42.66891" lon="23.64995">
        <ele>600.467758</ele>
        <time>2022-03-09T09:50:26.388Z</time>
      </trkpt>
      <trkpt lat="42.66884" lon="23.64989">
        <ele>600.334165</ele>
        <time>2022-03-09T09:50:28.400Z</time>
      </trkpt>
      <trkpt lat="42.66872" lon="23.64981">
        <ele>600.140371</ele>
        <time>2022-03-09T09:50:31.396Z</time>
      </trkpt>
      <trkpt lat="42.6686" lon="23.64973">
        <ele>599.941565</ele>
        <time>2022-03-09T09:50:34.408Z</time>
      </trkpt>
      <trkpt lat="42.66848" lon="23.64965">
        <ele>599.75161</ele>
        <time>2022-03-09T09:50:37.399Z</time>
      </trkpt>
      <trkpt lat="42.66838" lon="23.64957">
        <ele>599.573933</ele>
        <time>2022-03-09T09:50:40.411Z</time>
      </trkpt>
      <trkpt lat="42.66829" lon="23.64951">
        <ele>599.416357</ele>
        <time>2022-03-09T09:50:43.445Z</time>
      </trkpt>
      <trkpt lat="42.66818" lon="23.64943">
        <ele>599.227992</ele>
        <time>2022-03-09T09:50:46.399Z</time>
      </trkpt>
      <trkpt lat="42.66807" lon="23.64934">
        <ele>599.032504</ele>
        <time>2022-03-09T09:50:49.425Z</time>
      </trkpt>
      <trkpt lat="42.66796" lon="23.64926">
        <ele>598.833826</ele>
        <time>2022-03-09T09:50:52.398Z</time>
      </trkpt>
      <trkpt lat="42.66785" lon="23.64917">
        <ele>598.638154</ele>
        <time>2022-03-09T09:50:55.436Z</time>
      </trkpt>
      <trkpt lat="42.66773" lon="23.64909">
        <ele>598.433028</ele>
        <time>2022-03-09T09:50:58.408Z</time>
      </trkpt>
      <trkpt lat="42.66765" lon="23.64904">
        <ele>598.291899</ele>
        <time>2022-03-09T09:51:00.412Z</time>
      </trkpt>
      <trkpt lat="42.66756" lon="23.64893">
        <ele>598.108238</ele>
        <time>2022-03-09T09:51:03.398Z</time>
      </trkpt>
      <trkpt lat="42.66748" lon="23.64881">
        <ele>597.911947</ele>
        <time>2022-03-09T09:51:06.437Z</time>
      </trkpt>
      <trkpt lat="42.66741" lon="23.64866">
        <ele>597.713423</ele>
        <time>2022-03-09T09:51:09.408Z</time>
      </trkpt>
      <trkpt lat="42.66732" lon="23.64853">
        <ele>597.510834</ele>
        <time>2022-03-09T09:51:12.423Z</time>
      </trkpt>
      <trkpt lat="42.66724" lon="23.64838">
        <ele>597.30243</ele>
        <time>2022-03-09T09:51:15.401Z</time>
      </trkpt>
      <trkpt lat="42.66718" lon="23.64822">
        <ele>597.100894</ele>
        <time>2022-03-09T09:51:18.413Z</time>
      </trkpt>
      <trkpt lat="42.66716" lon="23.64805">
        <ele>596.865036</ele>
        <time>2022-03-09T09:51:21.406Z</time>
      </trkpt>
      <trkpt lat="42.66715" lon="23.64792">
        <ele>596.622387</ele>
        <time>2022-03-09T09:51:23.430Z</time>
      </trkpt>
      <trkpt lat="42.66715" lon="23.6478">
        <ele>596.384179</ele>
        <time>2022-03-09T09:51:25.408Z</time>
      </trkpt>
      <trkpt lat="42.66715" lon="23.64768">
        <ele>596.147803</ele>
        <time>2022-03-09T09:51:27.395Z</time>
      </trkpt>
      <trkpt lat="42.66716" lon="23.64751">
        <ele>595.815053</ele>
        <time>2022-03-09T09:51:30.402Z</time>
      </trkpt>
      <trkpt lat="42.66717" lon="23.64734">
        <ele>595.495411</ele>
        <time>2022-03-09T09:51:33.401Z</time>
      </trkpt>
      <trkpt lat="42.66717" lon="23.64717">
        <ele>595.169849</ele>
        <time>2022-03-09T09:51:36.415Z</time>
      </trkpt>
      <trkpt lat="42.66717" lon="23.647">
        <ele>594.844628</ele>
        <time>2022-03-09T09:51:39.404Z</time>
      </trkpt>
      <trkpt lat="42.66717" lon="23.64684">
        <ele>594.529084</ele>
        <time>2022-03-09T09:51:42.389Z</time>
      </trkpt>
      <trkpt lat="42.66718" lon="23.64668">
        <ele>594.219379</ele>
        <time>2022-03-09T09:51:45.452Z</time>
      </trkpt>
      <trkpt lat="42.66718" lon="23.64652">
        <ele>593.913545</ele>
        <time>2022-03-09T09:51:48.398Z</time>
      </trkpt>
      <trkpt lat="42.66718" lon="23.64635">
        <ele>593.58025</ele>
        <time>2022-03-09T09:51:51.393Z</time>
      </trkpt>
      <trkpt lat="42.66719" lon="23.64619">
        <ele>593.270277</ele>
        <time>2022-03-09T09:51:54.412Z</time>
      </trkpt>
      <trkpt lat="42.66719" lon="23.64604">
        <ele>592.968223</ele>
        <time>2022-03-09T09:51:57.390Z</time>
      </trkpt>
      <trkpt lat="42.66719" lon="23.64588">
        <ele>592.668161</ele>
        <time>2022-03-09T09:52:00.398Z</time>
      </trkpt>
      <trkpt lat="42.66719" lon="23.64572">
        <ele>592.366198</ele>
        <time>2022-03-09T09:52:03.447Z</time>
      </trkpt>
      <trkpt lat="42.6672" lon="23.64558">
        <ele>592.184387</ele>
        <time>2022-03-09T09:52:06.407Z</time>
      </trkpt>
      <trkpt lat="42.6672" lon="23.64544">
        <ele>592.136302</ele>
        <time>2022-03-09T09:52:09.405Z</time>
      </trkpt>
      <trkpt lat="42.66721" lon="23.6453">
        <ele>592.088999</ele>
        <time>2022-03-09T09:52:12.434Z</time>
      </trkpt>
      <trkpt lat="42.6672" lon="23.64515">
        <ele>592.039313</ele>
        <time>2022-03-09T09:52:15.408Z</time>
      </trkpt>
      <trkpt lat="42.6672" lon="23.645">
        <ele>591.987611</ele>
        <time>2022-03-09T09:52:18.404Z</time>
      </trkpt>
      <trkpt lat="42.6672" lon="23.64485">
        <ele>591.936591</ele>
        <time>2022-03-09T09:52:21.396Z</time>
      </trkpt>
      <trkpt lat="42.6672" lon="23.6447">
        <ele>591.887884</ele>
        <time>2022-03-09T09:52:24.399Z</time>
      </trkpt>
      <trkpt lat="42.6672" lon="23.64456">
        <ele>591.84058</ele>
        <time>2022-03-09T09:52:27.397Z</time>
      </trkpt>
      <trkpt lat="42.6672" lon="23.64442">
        <ele>591.790574</ele>
        <time>2022-03-09T09:52:30.404Z</time>
      </trkpt>
      <trkpt lat="42.6672" lon="23.64427">
        <ele>591.741843</ele>
        <time>2022-03-09T09:52:33.417Z</time>
      </trkpt>
      <trkpt lat="42.66721" lon="23.64413">
        <ele>591.694148</ele>
        <time>2022-03-09T09:52:36.409Z</time>
      </trkpt>
      <trkpt lat="42.66722" lon="23.64399">
        <ele>591.647249</ele>
        <time>2022-03-09T09:52:39.411Z</time>
      </trkpt>
      <trkpt lat="42.66722" lon="23.64385">
        <ele>591.599252</ele>
        <time>2022-03-09T09:52:42.405Z</time>
      </trkpt>
      <trkpt lat="42.66722" lon="23.6437">
        <ele>591.549577</ele>
        <time>2022-03-09T09:52:45.391Z</time>
      </trkpt>
      <trkpt lat="42.66722" lon="23.64356">
        <ele>591.49991</ele>
        <time>2022-03-09T09:52:48.394Z</time>
      </trkpt>
      <trkpt lat="42.66722" lon="23.64341">
        <ele>591.448884</ele>
        <time>2022-03-09T09:52:51.405Z</time>
      </trkpt>
      <trkpt lat="42.66722" lon="23.64325">
        <ele>591.39719</ele>
        <time>2022-03-09T09:52:54.408Z</time>
      </trkpt>
      <trkpt lat="42.66722" lon="23.64311">
        <ele>591.316999</ele>
        <time>2022-03-09T09:52:57.396Z</time>
      </trkpt>
      <trkpt lat="42.66723" lon="23.64296">
        <ele>591.217979</ele>
        <time>2022-03-09T09:53:00.408Z</time>
      </trkpt>
      <trkpt lat="42.66723" lon="23.64281">
        <ele>591.117578</ele>
        <time>2022-03-09T09:53:03.399Z</time>
      </trkpt>
      <trkpt lat="42.66724" lon="23.64266">
        <ele>591.017259</ele>
        <time>2022-03-09T09:53:06.403Z</time>
      </trkpt>
      <trkpt lat="42.66724" lon="23.6425">
        <ele>590.913649</ele>
        <time>2022-03-09T09:53:09.402Z</time>
      </trkpt>
      <trkpt lat="42.66724" lon="23.64234">
        <ele>590.806678</ele>
        <time>2022-03-09T09:53:12.391Z</time>
      </trkpt>
      <trkpt lat="42.66724" lon="23.6422">
        <ele>590.70975</ele>
        <time>2022-03-09T09:53:15.402Z</time>
      </trkpt>
      <trkpt lat="42.66724" lon="23.64205">
        <ele>590.608681</ele>
        <time>2022-03-09T09:53:18.429Z</time>
      </trkpt>
      <trkpt lat="42.66725" lon="23.64189">
        <ele>590.506278</ele>
        <time>2022-03-09T09:53:21.395Z</time>
      </trkpt>
      <trkpt lat="42.66726" lon="23.64174">
        <ele>590.401155</ele>
        <time>2022-03-09T09:53:24.399Z</time>
      </trkpt>
      <trkpt lat="42.66726" lon="23.64158">
        <ele>590.294883</ele>
        <time>2022-03-09T09:53:27.393Z</time>
      </trkpt>
      <trkpt lat="42.66726" lon="23.64143">
        <ele>590.1959</ele>
        <time>2022-03-09T09:53:30.412Z</time>
      </trkpt>
      <trkpt lat="42.66726" lon="23.64128">
        <ele>590.09561</ele>
        <time>2022-03-09T09:53:33.400Z</time>
      </trkpt>
      <trkpt lat="42.66727" lon="23.64113">
        <ele>589.996628</ele>
        <time>2022-03-09T09:53:36.396Z</time>
      </trkpt>
      <trkpt lat="42.66727" lon="23.64099">
        <ele>589.902351</ele>
        <time>2022-03-09T09:53:39.397Z</time>
      </trkpt>
      <trkpt lat="42.66727" lon="23.64084">
        <ele>589.802617</ele>
        <time>2022-03-09T09:53:42.399Z</time>
      </trkpt>
      <trkpt lat="42.66728" lon="23.64069">
        <ele>589.731093</ele>
        <time>2022-03-09T09:53:45.392Z</time>
      </trkpt>
      <trkpt lat="42.66728" lon="23.64054">
        <ele>589.704364</ele>
        <time>2022-03-09T09:53:48.396Z</time>
      </trkpt>
      <trkpt lat="42.66728" lon="23.6404">
        <ele>589.677452</ele>
        <time>2022-03-09T09:53:51.415Z</time>
      </trkpt>
      <trkpt lat="42.66728" lon="23.64025">
        <ele>589.649803</ele>
        <time>2022-03-09T09:53:54.408Z</time>
      </trkpt>
      <trkpt lat="42.66728" lon="23.6401">
        <ele>589.62307</ele>
        <time>2022-03-09T09:53:57.402Z</time>
      </trkpt>
      <trkpt lat="42.66728" lon="23.63995">
        <ele>589.595601</ele>
        <time>2022-03-09T09:54:00.407Z</time>
      </trkpt>
      <trkpt lat="42.66728" lon="23.6398">
        <ele>589.567947</ele>
        <time>2022-03-09T09:54:03.399Z</time>
      </trkpt>
      <trkpt lat="42.66728" lon="23.63965">
        <ele>589.540112</ele>
        <time>2022-03-09T09:54:06.406Z</time>
      </trkpt>
      <trkpt lat="42.66728" lon="23.6395">
        <ele>589.512452</ele>
        <time>2022-03-09T09:54:09.408Z</time>
      </trkpt>
      <trkpt lat="42.66728" lon="23.63935">
        <ele>589.484793</ele>
        <time>2022-03-09T09:54:12.411Z</time>
      </trkpt>
      <trkpt lat="42.66728" lon="23.6392">
        <ele>589.457697</ele>
        <time>2022-03-09T09:54:15.406Z</time>
      </trkpt>
      <trkpt lat="42.66728" lon="23.63905">
        <ele>589.429493</ele>
        <time>2022-03-09T09:54:18.413Z</time>
      </trkpt>
      <trkpt lat="42.66728" lon="23.6389">
        <ele>589.400728</ele>
        <time>2022-03-09T09:54:21.416Z</time>
      </trkpt>
      <trkpt lat="42.66729" lon="23.63874">
        <ele>589.371234</ele>
        <time>2022-03-09T09:54:24.397Z</time>
      </trkpt>
      <trkpt lat="42.66729" lon="23.63858">
        <ele>589.343215</ele>
        <time>2022-03-09T09:54:27.408Z</time>
      </trkpt>
      <trkpt lat="42.66729" lon="23.63843">
        <ele>589.315372</ele>
        <time>2022-03-09T09:54:30.432Z</time>
      </trkpt>
      <trkpt lat="42.66729" lon="23.63828">
        <ele>589.281165</ele>
        <time>2022-03-09T09:54:33.449Z</time>
      </trkpt>
      <trkpt lat="42.66729" lon="23.63813">
        <ele>589.21</ele>
        <time>2022-03-09T09:54:36.413Z</time>
      </trkpt>
      <trkpt lat="42.66729" lon="23.63798">
        <ele>589.137409</ele>
        <time>2022-03-09T09:54:39.431Z</time>
      </trkpt>
      <trkpt lat="42.66729" lon="23.63782">
        <ele>589.064841</ele>
        <time>2022-03-09T09:54:42.398Z</time>
      </trkpt>
      <trkpt lat="42.66729" lon="23.63766">
        <ele>588.98991</ele>
        <time>2022-03-09T09:54:45.440Z</time>
      </trkpt>
      <trkpt lat="42.66729" lon="23.63752">
        <ele>588.921545</ele>
        <time>2022-03-09T09:54:48.406Z</time>
      </trkpt>
      <trkpt lat="42.66729" lon="23.63738">
        <ele>588.85647</ele>
        <time>2022-03-09T09:54:51.448Z</time>
      </trkpt>
      <trkpt lat="42.6673" lon="23.63724">
        <ele>588.792177</ele>
        <time>2022-03-09T09:54:54.427Z</time>
      </trkpt>
      <trkpt lat="42.66731" lon="23.6371">
        <ele>588.725548</ele>
        <time>2022-03-09T09:54:57.395Z</time>
      </trkpt>
      <trkpt lat="42.66731" lon="23.63696">
        <ele>588.659056</ele>
        <time>2022-03-09T09:55:00.405Z</time>
      </trkpt>
      <trkpt lat="42.66731" lon="23.63681">
        <ele>588.591145</ele>
        <time>2022-03-09T09:55:03.402Z</time>
      </trkpt>
      <trkpt lat="42.66731" lon="23.63666">
        <ele>588.52092</ele>
        <time>2022-03-09T09:55:06.425Z</time>
      </trkpt>
      <trkpt lat="42.66731" lon="23.63652">
        <ele>588.453009</ele>
        <time>2022-03-09T09:55:09.396Z</time>
      </trkpt>
      <trkpt lat="42.66731" lon="23.63637">
        <ele>588.384609</ele>
        <time>2022-03-09T09:55:12.395Z</time>
      </trkpt>
      <trkpt lat="42.66731" lon="23.63622">
        <ele>588.315309</ele>
        <time>2022-03-09T09:55:15.413Z</time>
      </trkpt>
      <trkpt lat="42.66732" lon="23.63606">
        <ele>588.241117</ele>
        <time>2022-03-09T09:55:18.388Z</time>
      </trkpt>
      <trkpt lat="42.66733" lon="23.63591">
        <ele>588.167858</ele>
        <time>2022-03-09T09:55:21.398Z</time>
      </trkpt>
      <trkpt lat="42.66733" lon="23.63576">
        <ele>588.149943</ele>
        <time>2022-03-09T09:55:24.437Z</time>
      </trkpt>
      <trkpt lat="42.66732" lon="23.63561">
        <ele>588.154078</ele>
        <time>2022-03-09T09:55:27.397Z</time>
      </trkpt>
      <trkpt lat="42.66732" lon="23.63547">
        <ele>588.158213</ele>
        <time>2022-03-09T09:55:30.428Z</time>
      </trkpt>
      <trkpt lat="42.66732" lon="23.63532">
        <ele>588.162319</ele>
        <time>2022-03-09T09:55:33.392Z</time>
      </trkpt>
      <trkpt lat="42.66733" lon="23.63518">
        <ele>588.166425</ele>
        <time>2022-03-09T09:55:36.414Z</time>
      </trkpt>
      <trkpt lat="42.66733" lon="23.63503">
        <ele>588.170429</ele>
        <time>2022-03-09T09:55:39.406Z</time>
      </trkpt>
      <trkpt lat="42.66734" lon="23.63489">
        <ele>588.17445</ele>
        <time>2022-03-09T09:55:42.402Z</time>
      </trkpt>
      <trkpt lat="42.66733" lon="23.63474">
        <ele>588.178639</ele>
        <time>2022-03-09T09:55:45.404Z</time>
      </trkpt>
      <trkpt lat="42.66734" lon="23.6346">
        <ele>588.182744</ele>
        <time>2022-03-09T09:55:48.408Z</time>
      </trkpt>
      <trkpt lat="42.66734" lon="23.63445">
        <ele>588.186933</ele>
        <time>2022-03-09T09:55:51.407Z</time>
      </trkpt>
      <trkpt lat="42.66734" lon="23.6343">
        <ele>588.19118</ele>
        <time>2022-03-09T09:55:54.400Z</time>
      </trkpt>
      <trkpt lat="42.66734" lon="23.63415">
        <ele>588.195285</ele>
        <time>2022-03-09T09:55:57.409Z</time>
      </trkpt>
      <trkpt lat="42.66734" lon="23.634">
        <ele>588.199446</ele>
        <time>2022-03-09T09:56:00.394Z</time>
      </trkpt>
      <trkpt lat="42.66734" lon="23.63385">
        <ele>588.20358</ele>
        <time>2022-03-09T09:56:03.397Z</time>
      </trkpt>
      <trkpt lat="42.66734" lon="23.63371">
        <ele>588.207573</ele>
        <time>2022-03-09T09:56:06.436Z</time>
      </trkpt>
      <trkpt lat="42.66734" lon="23.63357">
        <ele>588.21151</ele>
        <time>2022-03-09T09:56:09.469Z</time>
      </trkpt>
      <trkpt lat="42.66735" lon="23.63343">
        <ele>588.215621</ele>
        <time>2022-03-09T09:56:12.413Z</time>
      </trkpt>
      <trkpt lat="42.66735" lon="23.63328">
        <ele>588.328747</ele>
        <time>2022-03-09T09:56:15.410Z</time>
      </trkpt>
      <trkpt lat="42.66735" lon="23.63314">
        <ele>588.439566</ele>
        <time>2022-03-09T09:56:18.391Z</time>
      </trkpt>
      <trkpt lat="42.66735" lon="23.63299">
        <ele>588.558256</ele>
        <time>2022-03-09T09:56:21.408Z</time>
      </trkpt>
      <trkpt lat="42.66735" lon="23.63284">
        <ele>588.67696</ele>
        <time>2022-03-09T09:56:24.397Z</time>
      </trkpt>
      <trkpt lat="42.66736" lon="23.63269">
        <ele>588.79335</ele>
        <time>2022-03-09T09:56:27.396Z</time>
      </trkpt>
      <trkpt lat="42.66736" lon="23.63255">
        <ele>588.904206</ele>
        <time>2022-03-09T09:56:30.401Z</time>
      </trkpt>
      <trkpt lat="42.66737" lon="23.63241">
        <ele>589.014271</ele>
        <time>2022-03-09T09:56:33.394Z</time>
      </trkpt>
      <trkpt lat="42.66737" lon="23.63227">
        <ele>589.121884</ele>
        <time>2022-03-09T09:56:36.410Z</time>
      </trkpt>
      <trkpt lat="42.66737" lon="23.63214">
        <ele>589.230303</ele>
        <time>2022-03-09T09:56:39.389Z</time>
      </trkpt>
      <trkpt lat="42.66737" lon="23.632">
        <ele>589.341159</ele>
        <time>2022-03-09T09:56:42.407Z</time>
      </trkpt>
      <trkpt lat="42.66737" lon="23.63186">
        <ele>589.448766</ele>
        <time>2022-03-09T09:56:45.422Z</time>
      </trkpt>
      <trkpt lat="42.66737" lon="23.63172">
        <ele>589.563495</ele>
        <time>2022-03-09T09:56:48.432Z</time>
      </trkpt>
      <trkpt lat="42.66737" lon="23.63157">
        <ele>589.680617</ele>
        <time>2022-03-09T09:56:51.400Z</time>
      </trkpt>
      <trkpt lat="42.66737" lon="23.63143">
        <ele>589.792976</ele>
        <time>2022-03-09T09:56:54.397Z</time>
      </trkpt>
      <trkpt lat="42.66737" lon="23.63128">
        <ele>589.90771</ele>
        <time>2022-03-09T09:56:57.400Z</time>
      </trkpt>
      <trkpt lat="42.66737" lon="23.63114">
        <ele>590.020861</ele>
        <time>2022-03-09T09:57:00.410Z</time>
      </trkpt>
      <trkpt lat="42.66738" lon="23.631">
        <ele>590.131717</ele>
        <time>2022-03-09T09:57:03.416Z</time>
      </trkpt>
      <trkpt lat="42.66737" lon="23.63086">
        <ele>590.175406</ele>
        <time>2022-03-09T09:57:06.395Z</time>
      </trkpt>
      <trkpt lat="42.66738" lon="23.63073">
        <ele>590.204433</ele>
        <time>2022-03-09T09:57:09.406Z</time>
      </trkpt>
      <trkpt lat="42.66738" lon="23.63058">
        <ele>590.236076</ele>
        <time>2022-03-09T09:57:12.424Z</time>
      </trkpt>
      <trkpt lat="42.66738" lon="23.63043">
        <ele>590.269007</ele>
        <time>2022-03-09T09:57:15.405Z</time>
      </trkpt>
      <trkpt lat="42.66738" lon="23.63028">
        <ele>590.302362</ele>
        <time>2022-03-09T09:57:18.404Z</time>
      </trkpt>
      <trkpt lat="42.66738" lon="23.63012">
        <ele>590.335726</ele>
        <time>2022-03-09T09:57:21.398Z</time>
      </trkpt>
      <trkpt lat="42.66739" lon="23.62997">
        <ele>590.36908</ele>
        <time>2022-03-09T09:57:24.405Z</time>
      </trkpt>
      <trkpt lat="42.66739" lon="23.62982">
        <ele>590.400919</ele>
        <time>2022-03-09T09:57:27.435Z</time>
      </trkpt>
      <trkpt lat="42.66739" lon="23.62968">
        <ele>590.43083</ele>
        <time>2022-03-09T09:57:30.400Z</time>
      </trkpt>
      <trkpt lat="42.6674" lon="23.62954">
        <ele>590.461634</ele>
        <time>2022-03-09T09:57:33.412Z</time>
      </trkpt>
      <trkpt lat="42.66739" lon="23.6294">
        <ele>590.492827</ele>
        <time>2022-03-09T09:57:36.407Z</time>
      </trkpt>
      <trkpt lat="42.66739" lon="23.62926">
        <ele>590.522751</ele>
        <time>2022-03-09T09:57:39.406Z</time>
      </trkpt>
      <trkpt lat="42.6674" lon="23.62912">
        <ele>590.553556</ele>
        <time>2022-03-09T09:57:42.401Z</time>
      </trkpt>
      <trkpt lat="42.6674" lon="23.62897">
        <ele>590.586366</ele>
        <time>2022-03-09T09:57:45.419Z</time>
      </trkpt>
      <trkpt lat="42.66741" lon="23.62882">
        <ele>590.618702</ele>
        <time>2022-03-09T09:57:48.405Z</time>
      </trkpt>
      <trkpt lat="42.66742" lon="23.62867">
        <ele>590.650789</ele>
        <time>2022-03-09T09:57:51.404Z</time>
      </trkpt>
      <trkpt lat="42.66743" lon="23.62852">
        <ele>590.678792</ele>
        <time>2022-03-09T09:57:54.392Z</time>
      </trkpt>
      <trkpt lat="42.66743" lon="23.62836">
        <ele>590.648961</ele>
        <time>2022-03-09T09:57:57.396Z</time>
      </trkpt>
      <trkpt lat="42.66743" lon="23.6282">
        <ele>590.619652</ele>
        <time>2022-03-09T09:58:00.450Z</time>
      </trkpt>
      <trkpt lat="42.66742" lon="23.62806">
        <ele>590.592995</ele>
        <time>2022-03-09T09:58:03.441Z</time>
      </trkpt>
      <trkpt lat="42.66742" lon="23.62792">
        <ele>590.566644</ele>
        <time>2022-03-09T09:58:06.409Z</time>
      </trkpt>
      <trkpt lat="42.66741" lon="23.62777">
        <ele>590.539061</ele>
        <time>2022-03-09T09:58:09.400Z</time>
      </trkpt>
      <trkpt lat="42.66742" lon="23.62763">
        <ele>590.512709</ele>
        <time>2022-03-09T09:58:12.411Z</time>
      </trkpt>
      <trkpt lat="42.66742" lon="23.62749">
        <ele>590.486425</ele>
        <time>2022-03-09T09:58:15.403Z</time>
      </trkpt>
      <trkpt lat="42.66742" lon="23.62734">
        <ele>590.458473</ele>
        <time>2022-03-09T09:58:18.415Z</time>
      </trkpt>
      <trkpt lat="42.66742" lon="23.62719">
        <ele>590.430894</ele>
        <time>2022-03-09T09:58:21.405Z</time>
      </trkpt>
      <trkpt lat="42.66742" lon="23.62704">
        <ele>590.40406</ele>
        <time>2022-03-09T09:58:24.431Z</time>
      </trkpt>
      <trkpt lat="42.66742" lon="23.6269">
        <ele>590.376668</ele>
        <time>2022-03-09T09:58:27.409Z</time>
      </trkpt>
      <trkpt lat="42.66742" lon="23.62675">
        <ele>590.350002</ele>
        <time>2022-03-09T09:58:30.397Z</time>
      </trkpt>
      <trkpt lat="42.66743" lon="23.62661">
        <ele>590.323512</ele>
        <time>2022-03-09T09:58:33.392Z</time>
      </trkpt>
      <trkpt lat="42.66743" lon="23.62646">
        <ele>590.295719</ele>
        <time>2022-03-09T09:58:36.397Z</time>
      </trkpt>
      <trkpt lat="42.66744" lon="23.62631">
        <ele>590.267191</ele>
        <time>2022-03-09T09:58:39.397Z</time>
      </trkpt>
      <trkpt lat="42.66744" lon="23.62616">
        <ele>590.239798</ele>
        <time>2022-03-09T09:58:42.406Z</time>
      </trkpt>
      <trkpt lat="42.66743" lon="23.62601">
        <ele>590.145057</ele>
        <time>2022-03-09T09:58:45.400Z</time>
      </trkpt>
      <trkpt lat="42.66743" lon="23.62586">
        <ele>589.984328</ele>
        <time>2022-03-09T09:58:48.398Z</time>
      </trkpt>
      <trkpt lat="42.66743" lon="23.6257">
        <ele>589.817268</ele>
        <time>2022-03-09T09:58:51.442Z</time>
      </trkpt>
      <trkpt lat="42.66744" lon="23.62554">
        <ele>589.653388</ele>
        <time>2022-03-09T09:58:54.414Z</time>
      </trkpt>
      <trkpt lat="42.66744" lon="23.62538">
        <ele>589.48728</ele>
        <time>2022-03-09T09:58:57.415Z</time>
      </trkpt>
      <trkpt lat="42.66745" lon="23.62522">
        <ele>589.319072</ele>
        <time>2022-03-09T09:59:00.406Z</time>
      </trkpt>
      <trkpt lat="42.66745" lon="23.62507">
        <ele>589.159413</ele>
        <time>2022-03-09T09:59:03.411Z</time>
      </trkpt>
      <trkpt lat="42.66745" lon="23.62492">
        <ele>588.998703</ele>
        <time>2022-03-09T09:59:06.395Z</time>
      </trkpt>
      <trkpt lat="42.66745" lon="23.62476">
        <ele>588.829501</ele>
        <time>2022-03-09T09:59:09.408Z</time>
      </trkpt>
      <trkpt lat="42.66745" lon="23.6246">
        <ele>588.663546</ele>
        <time>2022-03-09T09:59:12.400Z</time>
      </trkpt>
      <trkpt lat="42.66746" lon="23.62443">
        <ele>588.488814</ele>
        <time>2022-03-09T09:59:15.405Z</time>
      </trkpt>
      <trkpt lat="42.66746" lon="23.62427">
        <ele>588.318562</ele>
        <time>2022-03-09T09:59:18.413Z</time>
      </trkpt>
      <trkpt lat="42.66747" lon="23.62412">
        <ele>588.162874</ele>
        <time>2022-03-09T09:59:21.398Z</time>
      </trkpt>
      <trkpt lat="42.66748" lon="23.62397">
        <ele>588.001765</ele>
        <time>2022-03-09T09:59:24.462Z</time>
      </trkpt>
      <trkpt lat="42.66748" lon="23.62381">
        <ele>587.828434</ele>
        <time>2022-03-09T09:59:27.381Z</time>
      </trkpt>
      <trkpt lat="42.66747" lon="23.62365">
        <ele>587.66553</ele>
        <time>2022-03-09T09:59:30.407Z</time>
      </trkpt>
      <trkpt lat="42.66747" lon="23.6235">
        <ele>587.756289</ele>
        <time>2022-03-09T09:59:33.390Z</time>
      </trkpt>
      <trkpt lat="42.66747" lon="23.62335">
        <ele>587.862345</ele>
        <time>2022-03-09T09:59:36.419Z</time>
      </trkpt>
      <trkpt lat="42.66748" lon="23.6232">
        <ele>587.96849</ele>
        <time>2022-03-09T09:59:39.396Z</time>
      </trkpt>
      <trkpt lat="42.66748" lon="23.62306">
        <ele>588.066656</ele>
        <time>2022-03-09T09:59:42.389Z</time>
      </trkpt>
      <trkpt lat="42.66748" lon="23.62292">
        <ele>588.172041</ele>
        <time>2022-03-09T09:59:45.408Z</time>
      </trkpt>
      <trkpt lat="42.66749" lon="23.62277">
        <ele>588.275186</ele>
        <time>2022-03-09T09:59:48.397Z</time>
      </trkpt>
      <trkpt lat="42.6675" lon="23.62262">
        <ele>588.380289</ele>
        <time>2022-03-09T09:59:51.427Z</time>
      </trkpt>
      <trkpt lat="42.6675" lon="23.62248">
        <ele>588.481338</ele>
        <time>2022-03-09T09:59:54.398Z</time>
      </trkpt>
      <trkpt lat="42.6675" lon="23.62234">
        <ele>588.579504</ele>
        <time>2022-03-09T09:59:57.407Z</time>
      </trkpt>
      <trkpt lat="42.6675" lon="23.6222">
        <ele>588.681974</ele>
        <time>2022-03-09T10:00:00.388Z</time>
      </trkpt>
      <trkpt lat="42.66751" lon="23.62206">
        <ele>588.780254</ele>
        <time>2022-03-09T10:00:03.413Z</time>
      </trkpt>
      <trkpt lat="42.66751" lon="23.62192">
        <ele>588.879127</ele>
        <time>2022-03-09T10:00:06.451Z</time>
      </trkpt>
      <trkpt lat="42.66751" lon="23.62178">
        <ele>588.980152</ele>
        <time>2022-03-09T10:00:09.402Z</time>
      </trkpt>
      <trkpt lat="42.6675" lon="23.62164">
        <ele>589.078389</ele>
        <time>2022-03-09T10:00:12.415Z</time>
      </trkpt>
      <trkpt lat="42.6675" lon="23.62151">
        <ele>589.176556</ele>
        <time>2022-03-09T10:00:15.393Z</time>
      </trkpt>
      <trkpt lat="42.6675" lon="23.62136">
        <ele>589.277562</ele>
        <time>2022-03-09T10:00:18.389Z</time>
      </trkpt>
      <trkpt lat="42.6675" lon="23.62122">
        <ele>589.379321</ele>
        <time>2022-03-09T10:00:21.465Z</time>
      </trkpt>
      <trkpt lat="42.6675" lon="23.62108">
        <ele>589.581466</ele>
        <time>2022-03-09T10:00:24.398Z</time>
      </trkpt>
      <trkpt lat="42.6675" lon="23.62095">
        <ele>589.796746</ele>
        <time>2022-03-09T10:00:27.397Z</time>
      </trkpt>
      <trkpt lat="42.6675" lon="23.62081">
        <ele>590.021738</ele>
        <time>2022-03-09T10:00:30.410Z</time>
      </trkpt>
      <trkpt lat="42.6675" lon="23.62067">
        <ele>590.248337</ele>
        <time>2022-03-09T10:00:33.412Z</time>
      </trkpt>
      <trkpt lat="42.6675" lon="23.62053">
        <ele>590.479834</ele>
        <time>2022-03-09T10:00:36.417Z</time>
      </trkpt>
      <trkpt lat="42.66751" lon="23.62038">
        <ele>590.714619</ele>
        <time>2022-03-09T10:00:39.409Z</time>
      </trkpt>
      <trkpt lat="42.66751" lon="23.62024">
        <ele>590.950971</ele>
        <time>2022-03-09T10:00:42.416Z</time>
      </trkpt>
      <trkpt lat="42.6675" lon="23.6201">
        <ele>591.171195</ele>
        <time>2022-03-09T10:00:45.432Z</time>
      </trkpt>
      <trkpt lat="42.6675" lon="23.61997">
        <ele>591.38028</ele>
        <time>2022-03-09T10:00:48.402Z</time>
      </trkpt>
      <trkpt lat="42.6675" lon="23.61984">
        <ele>591.598797</ele>
        <time>2022-03-09T10:00:51.404Z</time>
      </trkpt>
      <trkpt lat="42.6675" lon="23.61971">
        <ele>591.810841</ele>
        <time>2022-03-09T10:00:54.409Z</time>
      </trkpt>
      <trkpt lat="42.66751" lon="23.61956">
        <ele>592.046038</ele>
        <time>2022-03-09T10:00:57.401Z</time>
      </trkpt>
      <trkpt lat="42.66751" lon="23.6194">
        <ele>592.30686</ele>
        <time>2022-03-09T10:01:00.394Z</time>
      </trkpt>
      <trkpt lat="42.66751" lon="23.61926">
        <ele>592.525411</ele>
        <time>2022-03-09T10:01:03.397Z</time>
      </trkpt>
      <trkpt lat="42.66751" lon="23.61912">
        <ele>592.764959</ele>
        <time>2022-03-09T10:01:06.446Z</time>
      </trkpt>
      <trkpt lat="42.66751" lon="23.61897">
        <ele>593.00131</ele>
        <time>2022-03-09T10:01:09.413Z</time>
      </trkpt>
      <trkpt lat="42.66751" lon="23.61881">
        <ele>593.2687</ele>
        <time>2022-03-09T10:01:12.412Z</time>
      </trkpt>
      <trkpt lat="42.66752" lon="23.61864">
        <ele>593.294553</ele>
        <time>2022-03-09T10:01:15.406Z</time>
      </trkpt>
      <trkpt lat="42.66752" lon="23.61849">
        <ele>593.207209</ele>
        <time>2022-03-09T10:01:18.422Z</time>
      </trkpt>
      <trkpt lat="42.66752" lon="23.61835">
        <ele>593.12606</ele>
        <time>2022-03-09T10:01:21.406Z</time>
      </trkpt>
      <trkpt lat="42.66752" lon="23.6182">
        <ele>593.046038</ele>
        <time>2022-03-09T10:01:24.408Z</time>
      </trkpt>
      <trkpt lat="42.66752" lon="23.61805">
        <ele>592.95695</ele>
        <time>2022-03-09T10:01:27.393Z</time>
      </trkpt>
      <trkpt lat="42.66754" lon="23.61788">
        <ele>592.860637</ele>
        <time>2022-03-09T10:01:30.397Z</time>
      </trkpt>
      <trkpt lat="42.66754" lon="23.6177">
        <ele>592.761975</ele>
        <time>2022-03-09T10:01:33.414Z</time>
      </trkpt>
      <trkpt lat="42.66754" lon="23.61754">
        <ele>592.672859</ele>
        <time>2022-03-09T10:01:36.405Z</time>
      </trkpt>
      <trkpt lat="42.66754" lon="23.61738">
        <ele>592.579851</ele>
        <time>2022-03-09T10:01:39.434Z</time>
      </trkpt>
      <trkpt lat="42.66754" lon="23.61721">
        <ele>592.486305</ele>
        <time>2022-03-09T10:01:42.413Z</time>
      </trkpt>
      <trkpt lat="42.66754" lon="23.61705">
        <ele>592.395567</ele>
        <time>2022-03-09T10:01:45.394Z</time>
      </trkpt>
      <trkpt lat="42.66755" lon="23.6169">
        <ele>592.308939</ele>
        <time>2022-03-09T10:01:48.433Z</time>
      </trkpt>
      <trkpt lat="42.66756" lon="23.61674">
        <ele>592.220386</ele>
        <time>2022-03-09T10:01:51.435Z</time>
      </trkpt>
      <trkpt lat="42.66756" lon="23.61658">
        <ele>592.130172</ele>
        <time>2022-03-09T10:01:54.402Z</time>
      </trkpt>
      <trkpt lat="42.66756" lon="23.61642">
        <ele>592.041648</ele>
        <time>2022-03-09T10:01:57.403Z</time>
      </trkpt>
      <trkpt lat="42.66755" lon="23.61627">
        <ele>591.970634</ele>
        <time>2022-03-09T10:02:00.408Z</time>
      </trkpt>
      <trkpt lat="42.66756" lon="23.61613">
        <ele>591.944613</ele>
        <time>2022-03-09T10:02:03.391Z</time>
      </trkpt>
      <trkpt lat="42.66756" lon="23.61597">
        <ele>591.914778</ele>
        <time>2022-03-09T10:02:06.399Z</time>
      </trkpt>
      <trkpt lat="42.66757" lon="23.61579">
        <ele>591.883295</ele>
        <time>2022-03-09T10:02:09.419Z</time>
      </trkpt>
      <trkpt lat="42.66757" lon="23.61563">
        <ele>591.854026</ele>
        <time>2022-03-09T10:02:12.436Z</time>
      </trkpt>
      <trkpt lat="42.66757" lon="23.61547">
        <ele>591.824573</ele>
        <time>2022-03-09T10:02:15.405Z</time>
      </trkpt>
      <trkpt lat="42.66757" lon="23.6153">
        <ele>591.795304</ele>
        <time>2022-03-09T10:02:18.402Z</time>
      </trkpt>
      <trkpt lat="42.66756" lon="23.61516">
        <ele>591.769066</ele>
        <time>2022-03-09T10:02:21.416Z</time>
      </trkpt>
      <trkpt lat="42.66756" lon="23.61502">
        <ele>591.743771</ele>
        <time>2022-03-09T10:02:24.399Z</time>
      </trkpt>
      <trkpt lat="42.66756" lon="23.61486">
        <ele>591.714477</ele>
        <time>2022-03-09T10:02:27.400Z</time>
      </trkpt>
      <trkpt lat="42.66758" lon="23.61469">
        <ele>591.684261</ele>
        <time>2022-03-09T10:02:30.421Z</time>
      </trkpt>
      <trkpt lat="42.66758" lon="23.61455">
        <ele>591.658963</ele>
        <time>2022-03-09T10:02:33.399Z</time>
      </trkpt>
      <trkpt lat="42.66758" lon="23.61441">
        <ele>591.632584</ele>
        <time>2022-03-09T10:02:36.394Z</time>
      </trkpt>
      <trkpt lat="42.66759" lon="23.61424">
        <ele>591.603099</ele>
        <time>2022-03-09T10:02:39.399Z</time>
      </trkpt>
      <trkpt lat="42.66759" lon="23.61407">
        <ele>591.572381</ele>
        <time>2022-03-09T10:02:42.401Z</time>
      </trkpt>
      <trkpt lat="42.66759" lon="23.61392">
        <ele>591.544915</ele>
        <time>2022-03-09T10:02:45.387Z</time>
      </trkpt>
      <trkpt lat="42.6676" lon="23.61378">
        <ele>591.57218</ele>
        <time>2022-03-09T10:02:48.413Z</time>
      </trkpt>
      <trkpt lat="42.66759" lon="23.61362">
        <ele>591.638311</ele>
        <time>2022-03-09T10:02:51.447Z</time>
      </trkpt>
      <trkpt lat="42.66759" lon="23.61347">
        <ele>591.701494</ele>
        <time>2022-03-09T10:02:54.484Z</time>
      </trkpt>
      <trkpt lat="42.66759" lon="23.61331">
        <ele>591.765133</ele>
        <time>2022-03-09T10:02:57.434Z</time>
      </trkpt>
      <trkpt lat="42.66758" lon="23.61316">
        <ele>591.829173</ele>
        <time>2022-03-09T10:03:00.416Z</time>
      </trkpt>
      <trkpt lat="42.66759" lon="23.61301">
        <ele>591.894567</ele>
        <time>2022-03-09T10:03:03.390Z</time>
      </trkpt>
      <trkpt lat="42.66759" lon="23.61286">
        <ele>591.956934</ele>
        <time>2022-03-09T10:03:06.413Z</time>
      </trkpt>
      <trkpt lat="42.6676" lon="23.6127">
        <ele>592.022228</ele>
        <time>2022-03-09T10:03:09.393Z</time>
      </trkpt>
      <trkpt lat="42.66761" lon="23.61254">
        <ele>592.090716</ele>
        <time>2022-03-09T10:03:12.386Z</time>
      </trkpt>
      <trkpt lat="42.66761" lon="23.61237">
        <ele>592.159775</ele>
        <time>2022-03-09T10:03:15.475Z</time>
      </trkpt>
      <trkpt lat="42.66761" lon="23.61223">
        <ele>592.21961</ele>
        <time>2022-03-09T10:03:18.409Z</time>
      </trkpt>
      <trkpt lat="42.66761" lon="23.61209">
        <ele>592.279905</ele>
        <time>2022-03-09T10:03:21.401Z</time>
      </trkpt>
      <trkpt lat="42.66761" lon="23.61192">
        <ele>592.3502</ele>
        <time>2022-03-09T10:03:24.395Z</time>
      </trkpt>
      <trkpt lat="42.66761" lon="23.61176">
        <ele>592.415054</ele>
        <time>2022-03-09T10:03:27.409Z</time>
      </trkpt>
      <trkpt lat="42.66761" lon="23.6116">
        <ele>592.482428</ele>
        <time>2022-03-09T10:03:30.397Z</time>
      </trkpt>
      <trkpt lat="42.66762" lon="23.61144">
        <ele>592.549879</ele>
        <time>2022-03-09T10:03:33.450Z</time>
      </trkpt>
      <trkpt lat="42.66762" lon="23.61129">
        <ele>592.944233</ele>
        <time>2022-03-09T10:03:36.441Z</time>
      </trkpt>
      <trkpt lat="42.66761" lon="23.61115">
        <ele>593.357773</ele>
        <time>2022-03-09T10:03:39.406Z</time>
      </trkpt>
      <trkpt lat="42.66761" lon="23.61101">
        <ele>593.775556</ele>
        <time>2022-03-09T10:03:42.405Z</time>
      </trkpt>
      <trkpt lat="42.6676" lon="23.61087">
        <ele>594.194803</ele>
        <time>2022-03-09T10:03:45.414Z</time>
      </trkpt>
      <trkpt lat="42.6676" lon="23.61073">
        <ele>594.605372</ele>
        <time>2022-03-09T10:03:48.404Z</time>
      </trkpt>
      <trkpt lat="42.66759" lon="23.6106">
        <ele>595.00835</ele>
        <time>2022-03-09T10:03:51.413Z</time>
      </trkpt>
      <trkpt lat="42.66758" lon="23.61046">
        <ele>595.423059</ele>
        <time>2022-03-09T10:03:54.396Z</time>
      </trkpt>
      <trkpt lat="42.66758" lon="23.61031">
        <ele>595.85429</ele>
        <time>2022-03-09T10:03:57.412Z</time>
      </trkpt>
      <trkpt lat="42.66758" lon="23.61014">
        <ele>596.381039</ele>
        <time>2022-03-09T10:04:00.406Z</time>
      </trkpt>
      <trkpt lat="42.66759" lon="23.61001">
        <ele>596.747501</ele>
        <time>2022-03-09T10:04:02.402Z</time>
      </trkpt>
      <trkpt lat="42.6676" lon="23.60984">
        <ele>597.26372</ele>
        <time>2022-03-09T10:04:05.402Z</time>
      </trkpt>
      <trkpt lat="42.66761" lon="23.60968">
        <ele>597.746403</ele>
        <time>2022-03-09T10:04:08.405Z</time>
      </trkpt>
      <trkpt lat="42.66762" lon="23.60953">
        <ele>598.202125</ele>
        <time>2022-03-09T10:04:11.397Z</time>
      </trkpt>
      <trkpt lat="42.66761" lon="23.60939">
        <ele>598.618498</ele>
        <time>2022-03-09T10:04:14.397Z</time>
      </trkpt>
      <trkpt lat="42.66761" lon="23.60923">
        <ele>599.070385</ele>
        <time>2022-03-09T10:04:17.402Z</time>
      </trkpt>
      <trkpt lat="42.66761" lon="23.60909">
        <ele>599.510383</ele>
        <time>2022-03-09T10:04:20.400Z</time>
      </trkpt>
      <trkpt lat="42.66762" lon="23.60892">
        <ele>599.835811</ele>
        <time>2022-03-09T10:04:23.395Z</time>
      </trkpt>
      <trkpt lat="42.66761" lon="23.60877">
        <ele>599.851583</ele>
        <time>2022-03-09T10:04:26.419Z</time>
      </trkpt>
      <trkpt lat="42.66762" lon="23.60859">
        <ele>599.868657</ele>
        <time>2022-03-09T10:04:29.405Z</time>
      </trkpt>
      <trkpt lat="42.66763" lon="23.60842">
        <ele>599.886237</ele>
        <time>2022-03-09T10:04:32.448Z</time>
      </trkpt>
      <trkpt lat="42.66762" lon="23.60826">
        <ele>599.902388</ele>
        <time>2022-03-09T10:04:35.409Z</time>
      </trkpt>
      <trkpt lat="42.66762" lon="23.60808">
        <ele>599.919928</ele>
        <time>2022-03-09T10:04:38.411Z</time>
      </trkpt>
      <trkpt lat="42.66763" lon="23.60793">
        <ele>599.934825</ele>
        <time>2022-03-09T10:04:41.403Z</time>
      </trkpt>
      <trkpt lat="42.66764" lon="23.60777">
        <ele>599.950783</ele>
        <time>2022-03-09T10:04:44.409Z</time>
      </trkpt>
      <trkpt lat="42.66763" lon="23.60762">
        <ele>599.965436</ele>
        <time>2022-03-09T10:04:47.426Z</time>
      </trkpt>
      <trkpt lat="42.66764" lon="23.60748">
        <ele>599.980246</ele>
        <time>2022-03-09T10:04:50.390Z</time>
      </trkpt>
      <trkpt lat="42.66764" lon="23.60735">
        <ele>599.992912</ele>
        <time>2022-03-09T10:04:53.412Z</time>
      </trkpt>
      <trkpt lat="42.66765" lon="23.60721">
        <ele>600.007078</ele>
        <time>2022-03-09T10:04:56.404Z</time>
      </trkpt>
      <trkpt lat="42.66764" lon="23.60706">
        <ele>600.022254</ele>
        <time>2022-03-09T10:04:59.394Z</time>
      </trkpt>
      <trkpt lat="42.66763" lon="23.60691">
        <ele>600.036734</ele>
        <time>2022-03-09T10:05:02.426Z</time>
      </trkpt>
      <trkpt lat="42.66764" lon="23.60677">
        <ele>600.051192</ele>
        <time>2022-03-09T10:05:05.424Z</time>
      </trkpt>
      <trkpt lat="42.66765" lon="23.6066">
        <ele>600.067347</ele>
        <time>2022-03-09T10:05:09.397Z</time>
      </trkpt>
      <trkpt lat="42.66763" lon="23.60647">
        <ele>600.249565</ele>
        <time>2022-03-09T10:05:12.410Z</time>
      </trkpt>
      <trkpt lat="42.66763" lon="23.60631">
        <ele>600.621997</ele>
        <time>2022-03-09T10:05:15.406Z</time>
      </trkpt>
      <trkpt lat="42.66764" lon="23.60614">
        <ele>601.038152</ele>
        <time>2022-03-09T10:05:18.398Z</time>
      </trkpt>
      <trkpt lat="42.66764" lon="23.60598">
        <ele>601.434753</ele>
        <time>2022-03-09T10:05:21.404Z</time>
      </trkpt>
      <trkpt lat="42.66764" lon="23.60581">
        <ele>601.839265</ele>
        <time>2022-03-09T10:05:24.412Z</time>
      </trkpt>
      <trkpt lat="42.66765" lon="23.60564">
        <ele>602.246191</ele>
        <time>2022-03-09T10:05:27.388Z</time>
      </trkpt>
      <trkpt lat="42.66767" lon="23.60548">
        <ele>602.645848</ele>
        <time>2022-03-09T10:05:30.416Z</time>
      </trkpt>
      <trkpt lat="42.66768" lon="23.60532">
        <ele>603.034463</ele>
        <time>2022-03-09T10:05:33.408Z</time>
      </trkpt>
      <trkpt lat="42.66768" lon="23.60517">
        <ele>603.382946</ele>
        <time>2022-03-09T10:05:36.392Z</time>
      </trkpt>
      <trkpt lat="42.66768" lon="23.60503">
        <ele>603.738497</ele>
        <time>2022-03-09T10:05:39.427Z</time>
      </trkpt>
      <trkpt lat="42.66771" lon="23.60489">
        <ele>604.087026</ele>
        <time>2022-03-09T10:05:42.399Z</time>
      </trkpt>
      <trkpt lat="42.66777" lon="23.60476">
        <ele>604.451418</ele>
        <time>2022-03-09T10:05:45.454Z</time>
      </trkpt>
      <trkpt lat="42.66783" lon="23.60465">
        <ele>604.780724</ele>
        <time>2022-03-09T10:05:48.448Z</time>
      </trkpt>
      <trkpt lat="42.6679" lon="23.60455">
        <ele>605.105311</ele>
        <time>2022-03-09T10:05:51.419Z</time>
      </trkpt>
      <trkpt lat="42.66798" lon="23.6045">
        <ele>605.406879</ele>
        <time>2022-03-09T10:05:54.415Z</time>
      </trkpt>
      <trkpt lat="42.66808" lon="23.6045">
        <ele>605.739196</ele>
        <time>2022-03-09T10:05:57.387Z</time>
      </trkpt>
      <trkpt lat="42.6682" lon="23.6045">
        <ele>605.986904</ele>
        <time>2022-03-09T10:06:01.505Z</time>
      </trkpt>
      <trkpt lat="42.6683" lon="23.60448">
        <ele>605.979682</ele>
        <time>2022-03-09T10:06:05.392Z</time>
      </trkpt>
      <trkpt lat="42.66841" lon="23.60445">
        <ele>605.972469</ele>
        <time>2022-03-09T10:06:09.434Z</time>
      </trkpt>
      <trkpt lat="42.66851" lon="23.6044">
        <ele>605.964794</ele>
        <time>2022-03-09T10:06:13.396Z</time>
      </trkpt>
      <trkpt lat="42.66864" lon="23.6044">
        <ele>605.956612</ele>
        <time>2022-03-09T10:06:17.391Z</time>
      </trkpt>
      <trkpt lat="42.66874" lon="23.60438">
        <ele>605.949671</ele>
        <time>2022-03-09T10:06:20.404Z</time>
      </trkpt>
      <trkpt lat="42.66883" lon="23.60437">
        <ele>605.943251</ele>
        <time>2022-03-09T10:06:23.422Z</time>
      </trkpt>
      <trkpt lat="42.66894" lon="23.60434">
        <ele>605.935872</ele>
        <time>2022-03-09T10:06:26.417Z</time>
      </trkpt>
      <trkpt lat="42.66904" lon="23.60435">
        <ele>605.928844</ele>
        <time>2022-03-09T10:06:29.432Z</time>
      </trkpt>
      <trkpt lat="42.66915" lon="23.60435">
        <ele>605.921617</ele>
        <time>2022-03-09T10:06:32.415Z</time>
      </trkpt>
      <trkpt lat="42.66925" lon="23.60434">
        <ele>605.914725</ele>
        <time>2022-03-09T10:06:35.415Z</time>
      </trkpt>
      <trkpt lat="42.66936" lon="23.60433">
        <ele>605.907174</ele>
        <time>2022-03-09T10:06:38.472Z</time>
      </trkpt>
      <trkpt lat="42.66944" lon="23.60427">
        <ele>605.901063</ele>
        <time>2022-03-09T10:06:41.420Z</time>
      </trkpt>
      <trkpt lat="42.66951" lon="23.60417">
        <ele>605.894356</ele>
        <time>2022-03-09T10:06:44.387Z</time>
      </trkpt>
      <trkpt lat="42.6696" lon="23.60407">
        <ele>605.886832</ele>
        <time>2022-03-09T10:06:47.395Z</time>
      </trkpt>
      <trkpt lat="42.66965" lon="23.60396">
        <ele>605.880259</ele>
        <time>2022-03-09T10:06:50.405Z</time>
      </trkpt>
      <trkpt lat="42.6697" lon="23.60384">
        <ele>605.873255</ele>
        <time>2022-03-09T10:06:53.390Z</time>
      </trkpt>
      <trkpt lat="42.66976" lon="23.60371">
        <ele>605.690689</ele>
        <time>2022-03-09T10:06:56.447Z</time>
      </trkpt>
      <trkpt lat="42.66981" lon="23.6036">
        <ele>605.05553</ele>
        <time>2022-03-09T10:06:59.406Z</time>
      </trkpt>
      <trkpt lat="42.66986" lon="23.60348">
        <ele>604.408603</ele>
        <time>2022-03-09T10:07:02.404Z</time>
      </trkpt>
      <trkpt lat="42.66991" lon="23.60336">
        <ele>603.791036</ele>
        <time>2022-03-09T10:07:05.393Z</time>
      </trkpt>
      <trkpt lat="42.66996" lon="23.60322">
        <ele>603.050189</ele>
        <time>2022-03-09T10:07:08.433Z</time>
      </trkpt>
      <trkpt lat="42.67" lon="23.60305">
        <ele>602.230751</ele>
        <time>2022-03-09T10:07:11.396Z</time>
      </trkpt>
      <trkpt lat="42.67001" lon="23.60288">
        <ele>601.452426</ele>
        <time>2022-03-09T10:07:14.405Z</time>
      </trkpt>
      <trkpt lat="42.67002" lon="23.60271">
        <ele>600.679435</ele>
        <time>2022-03-09T10:07:17.388Z</time>
      </trkpt>
      <trkpt lat="42.67001" lon="23.60256">
        <ele>599.994289</ele>
        <time>2022-03-09T10:07:20.404Z</time>
      </trkpt>
      <trkpt lat="42.67001" lon="23.60242">
        <ele>599.341717</ele>
        <time>2022-03-09T10:07:23.416Z</time>
      </trkpt>
      <trkpt lat="42.67" lon="23.60229">
        <ele>598.706394</ele>
        <time>2022-03-09T10:07:27.388Z</time>
      </trkpt>
      <trkpt lat="42.67" lon="23.60216">
        <ele>598.104456</ele>
        <time>2022-03-09T10:07:30.405Z</time>
      </trkpt>
      <trkpt lat="42.67001" lon="23.60203">
        <ele>597.506479</ele>
        <time>2022-03-09T10:07:33.393Z</time>
      </trkpt>
      <trkpt lat="42.67001" lon="23.60189">
        <ele>596.886435</ele>
        <time>2022-03-09T10:07:36.398Z</time>
      </trkpt>
      <trkpt lat="42.67" lon="23.60177">
        <ele>596.295544</ele>
        <time>2022-03-09T10:07:39.404Z</time>
      </trkpt>
      <trkpt lat="42.67001" lon="23.60165">
        <ele>595.730185</ele>
        <time>2022-03-09T10:07:42.395Z</time>
      </trkpt>
      <trkpt lat="42.67009" lon="23.60151">
        <ele>594.954773</ele>
        <time>2022-03-09T10:07:46.439Z</time>
      </trkpt>
      <trkpt lat="42.67014" lon="23.60137">
        <ele>594.809324</ele>
        <time>2022-03-09T10:07:49.414Z</time>
      </trkpt>
      <trkpt lat="42.6702" lon="23.60123">
        <ele>595.40325</ele>
        <time>2022-03-09T10:07:52.440Z</time>
      </trkpt>
      <trkpt lat="42.67028" lon="23.60108">
        <ele>596.058501</ele>
        <time>2022-03-09T10:07:55.399Z</time>
      </trkpt>
      <trkpt lat="42.67036" lon="23.60095">
        <ele>596.700551</ele>
        <time>2022-03-09T10:07:58.416Z</time>
      </trkpt>
      <trkpt lat="42.67043" lon="23.60082">
        <ele>597.276755</ele>
        <time>2022-03-09T10:08:01.417Z</time>
      </trkpt>
      <trkpt lat="42.67048" lon="23.60069">
        <ele>597.811687</ele>
        <time>2022-03-09T10:08:04.407Z</time>
      </trkpt>
      <trkpt lat="42.67053" lon="23.60055">
        <ele>598.384445</ele>
        <time>2022-03-09T10:08:07.479Z</time>
      </trkpt>
      <trkpt lat="42.67058" lon="23.60043">
        <ele>598.881256</ele>
        <time>2022-03-09T10:08:10.404Z</time>
      </trkpt>
      <trkpt lat="42.67062" lon="23.6003">
        <ele>599.393439</ele>
        <time>2022-03-09T10:08:13.401Z</time>
      </trkpt>
      <trkpt lat="42.67065" lon="23.60017">
        <ele>599.870493</ele>
        <time>2022-03-09T10:08:16.418Z</time>
      </trkpt>
      <trkpt lat="42.67069" lon="23.60005">
        <ele>600.36643</ele>
        <time>2022-03-09T10:08:19.401Z</time>
      </trkpt>
      <trkpt lat="42.67073" lon="23.59992">
        <ele>600.866282</ele>
        <time>2022-03-09T10:08:22.446Z</time>
      </trkpt>
      <trkpt lat="42.67079" lon="23.59978">
        <ele>601.441696</ele>
        <time>2022-03-09T10:08:25.405Z</time>
      </trkpt>
      <trkpt lat="42.67084" lon="23.59966">
        <ele>601.954625</ele>
        <time>2022-03-09T10:08:28.405Z</time>
      </trkpt>
      <trkpt lat="42.67088" lon="23.59954">
        <ele>602.435994</ele>
        <time>2022-03-09T10:08:31.406Z</time>
      </trkpt>
      <trkpt lat="42.67093" lon="23.59941">
        <ele>602.958659</ele>
        <time>2022-03-09T10:08:35.383Z</time>
      </trkpt>
      <trkpt lat="42.67097" lon="23.59929">
        <ele>603.421722</ele>
        <time>2022-03-09T10:08:39.404Z</time>
      </trkpt>
      <trkpt lat="42.67105" lon="23.5992">
        <ele>603.467356</ele>
        <time>2022-03-09T10:08:42.392Z</time>
      </trkpt>
      <trkpt lat="42.67113" lon="23.59909">
        <ele>603.506963</ele>
        <time>2022-03-09T10:08:45.457Z</time>
      </trkpt>
      <trkpt lat="42.67116" lon="23.59894">
        <ele>603.544015</ele>
        <time>2022-03-09T10:08:49.410Z</time>
      </trkpt>
      <trkpt lat="42.67119" lon="23.59882">
        <ele>603.57497</ele>
        <time>2022-03-09T10:08:52.406Z</time>
      </trkpt>
      <trkpt lat="42.67122" lon="23.5987">
        <ele>603.606268</ele>
        <time>2022-03-09T10:08:55.399Z</time>
      </trkpt>
      <trkpt lat="42.67125" lon="23.59857">
        <ele>603.640451</ele>
        <time>2022-03-09T10:08:58.473Z</time>
      </trkpt>
      <trkpt lat="42.67131" lon="23.59843">
        <ele>603.680162</ele>
        <time>2022-03-09T10:09:01.426Z</time>
      </trkpt>
      <trkpt lat="42.67135" lon="23.59829">
        <ele>603.717949</ele>
        <time>2022-03-09T10:09:04.408Z</time>
      </trkpt>
      <trkpt lat="42.67141" lon="23.59815">
        <ele>603.757166</ele>
        <time>2022-03-09T10:09:07.434Z</time>
      </trkpt>
      <trkpt lat="42.67148" lon="23.59801">
        <ele>603.797653</ele>
        <time>2022-03-09T10:09:10.387Z</time>
      </trkpt>
      <trkpt lat="42.67152" lon="23.59787">
        <ele>603.833222</ele>
        <time>2022-03-09T10:09:13.429Z</time>
      </trkpt>
      <trkpt lat="42.67156" lon="23.59775">
        <ele>603.868648</ele>
        <time>2022-03-09T10:09:16.387Z</time>
      </trkpt>
      <trkpt lat="42.67163" lon="23.59762">
        <ele>603.905735</ele>
        <time>2022-03-09T10:09:19.431Z</time>
      </trkpt>
      <trkpt lat="42.67168" lon="23.59747">
        <ele>603.946831</ele>
        <time>2022-03-09T10:09:22.411Z</time>
      </trkpt>
      <trkpt lat="42.67172" lon="23.59734">
        <ele>603.982522</ele>
        <time>2022-03-09T10:09:25.430Z</time>
      </trkpt>
      <trkpt lat="42.67177" lon="23.59721">
        <ele>604.016786</ele>
        <time>2022-03-09T10:09:28.398Z</time>
      </trkpt>
      <trkpt lat="42.67183" lon="23.59708">
        <ele>603.816806</ele>
        <time>2022-03-09T10:09:31.446Z</time>
      </trkpt>
      <trkpt lat="42.67188" lon="23.59695">
        <ele>603.459169</ele>
        <time>2022-03-09T10:09:34.400Z</time>
      </trkpt>
      <trkpt lat="42.67194" lon="23.59681">
        <ele>603.053305</ele>
        <time>2022-03-09T10:09:37.421Z</time>
      </trkpt>
      <trkpt lat="42.672" lon="23.59666">
        <ele>602.634708</ele>
        <time>2022-03-09T10:09:40.406Z</time>
      </trkpt>
      <trkpt lat="42.67207" lon="23.59652">
        <ele>602.21648</ele>
        <time>2022-03-09T10:09:43.415Z</time>
      </trkpt>
      <trkpt lat="42.67211" lon="23.59639">
        <ele>601.849768</ele>
        <time>2022-03-09T10:09:46.397Z</time>
      </trkpt>
      <trkpt lat="42.67217" lon="23.59624">
        <ele>601.455606</ele>
        <time>2022-03-09T10:09:49.405Z</time>
      </trkpt>
      <trkpt lat="42.67221" lon="23.59612">
        <ele>601.11625</ele>
        <time>2022-03-09T10:09:52.417Z</time>
      </trkpt>
      <trkpt lat="42.67226" lon="23.59598">
        <ele>600.731016</ele>
        <time>2022-03-09T10:09:55.416Z</time>
      </trkpt>
      <trkpt lat="42.6723" lon="23.59586">
        <ele>600.403498</ele>
        <time>2022-03-09T10:09:58.393Z</time>
      </trkpt>
      <trkpt lat="42.67235" lon="23.59573">
        <ele>600.036621</ele>
        <time>2022-03-09T10:10:01.429Z</time>
      </trkpt>
      <trkpt lat="42.67239" lon="23.59558">
        <ele>599.643784</ele>
        <time>2022-03-09T10:10:04.392Z</time>
      </trkpt>
      <trkpt lat="42.67245" lon="23.59545">
        <ele>599.276833</ele>
        <time>2022-03-09T10:10:07.397Z</time>
      </trkpt>
      <trkpt lat="42.6725" lon="23.59533">
        <ele>598.933286</ele>
        <time>2022-03-09T10:10:10.436Z</time>
      </trkpt>
      <trkpt lat="42.67255" lon="23.5952">
        <ele>598.568023</ele>
        <time>2022-03-09T10:10:13.394Z</time>
      </trkpt>
      <trkpt lat="42.67261" lon="23.59508">
        <ele>598.199745</ele>
        <time>2022-03-09T10:10:16.396Z</time>
      </trkpt>
      <trkpt lat="42.67267" lon="23.59493">
        <ele>597.897586</ele>
        <time>2022-03-09T10:10:19.396Z</time>
      </trkpt>
      <trkpt lat="42.67273" lon="23.59477">
        <ele>597.724034</ele>
        <time>2022-03-09T10:10:22.424Z</time>
      </trkpt>
      <trkpt lat="42.67278" lon="23.59462">
        <ele>597.552563</ele>
        <time>2022-03-09T10:10:25.410Z</time>
      </trkpt>
      <trkpt lat="42.67282" lon="23.59451">
        <ele>597.42988</ele>
        <time>2022-03-09T10:10:27.450Z</time>
      </trkpt>
      <trkpt lat="42.67288" lon="23.59436">
        <ele>597.259913</ele>
        <time>2022-03-09T10:10:30.427Z</time>
      </trkpt>
      <trkpt lat="42.67295" lon="23.59422">
        <ele>597.09617</ele>
        <time>2022-03-09T10:10:33.403Z</time>
      </trkpt>
      <trkpt lat="42.673" lon="23.59409">
        <ele>596.94259</ele>
        <time>2022-03-09T10:10:36.405Z</time>
      </trkpt>
      <trkpt lat="42.67306" lon="23.59394">
        <ele>596.774045</ele>
        <time>2022-03-09T10:10:39.457Z</time>
      </trkpt>
      <trkpt lat="42.67312" lon="23.59381">
        <ele>596.625645</ele>
        <time>2022-03-09T10:10:42.415Z</time>
      </trkpt>
      <trkpt lat="42.67317" lon="23.59368">
        <ele>596.4796</ele>
        <time>2022-03-09T10:10:45.393Z</time>
      </trkpt>
      <trkpt lat="42.67322" lon="23.59355">
        <ele>596.32724</ele>
        <time>2022-03-09T10:10:48.497Z</time>
      </trkpt>
      <trkpt lat="42.67328" lon="23.5934">
        <ele>596.156925</ele>
        <time>2022-03-09T10:10:51.402Z</time>
      </trkpt>
      <trkpt lat="42.67334" lon="23.59326">
        <ele>596.001782</ele>
        <time>2022-03-09T10:10:54.387Z</time>
      </trkpt>
      <trkpt lat="42.67339" lon="23.59312">
        <ele>595.841687</ele>
        <time>2022-03-09T10:10:57.414Z</time>
      </trkpt>
      <trkpt lat="42.67345" lon="23.59298">
        <ele>595.676411</ele>
        <time>2022-03-09T10:11:00.407Z</time>
      </trkpt>
      <trkpt lat="42.67351" lon="23.59285">
        <ele>595.50495</ele>
        <time>2022-03-09T10:11:03.383Z</time>
      </trkpt>
      <trkpt lat="42.67357" lon="23.59271">
        <ele>595.040654</ele>
        <time>2022-03-09T10:11:06.401Z</time>
      </trkpt>
      <trkpt lat="42.67363" lon="23.59257">
        <ele>594.565918</ele>
        <time>2022-03-09T10:11:09.398Z</time>
      </trkpt>
      <trkpt lat="42.67368" lon="23.59243">
        <ele>594.110957</ele>
        <time>2022-03-09T10:11:12.414Z</time>
      </trkpt>
      <trkpt lat="42.67373" lon="23.59229">
        <ele>593.65517</ele>
        <time>2022-03-09T10:11:15.396Z</time>
      </trkpt>
      <trkpt lat="42.67378" lon="23.59215">
        <ele>593.203568</ele>
        <time>2022-03-09T10:11:18.412Z</time>
      </trkpt>
      <trkpt lat="42.67385" lon="23.59202">
        <ele>592.742309</ele>
        <time>2022-03-09T10:11:21.390Z</time>
      </trkpt>
      <trkpt lat="42.67391" lon="23.59188">
        <ele>592.267575</ele>
        <time>2022-03-09T10:11:24.420Z</time>
      </trkpt>
      <trkpt lat="42.67396" lon="23.59172">
        <ele>591.76115</ele>
        <time>2022-03-09T10:11:27.415Z</time>
      </trkpt>
      <trkpt lat="42.67402" lon="23.59159">
        <ele>591.306966</ele>
        <time>2022-03-09T10:11:30.389Z</time>
      </trkpt>
      <trkpt lat="42.67407" lon="23.59144">
        <ele>590.835011</ele>
        <time>2022-03-09T10:11:33.401Z</time>
      </trkpt>
      <trkpt lat="42.67413" lon="23.5913">
        <ele>590.34389</ele>
        <time>2022-03-09T10:11:36.408Z</time>
      </trkpt>
      <trkpt lat="42.67419" lon="23.59116">
        <ele>589.889173</ele>
        <time>2022-03-09T10:11:39.397Z</time>
      </trkpt>
      <trkpt lat="42.67424" lon="23.59103">
        <ele>589.458089</ele>
        <time>2022-03-09T10:11:42.400Z</time>
      </trkpt>
      <trkpt lat="42.67429" lon="23.59092">
        <ele>589.069543</ele>
        <time>2022-03-09T10:11:45.401Z</time>
      </trkpt>
      <trkpt lat="42.67434" lon="23.59078">
        <ele>588.629157</ele>
        <time>2022-03-09T10:11:48.407Z</time>
      </trkpt>
      <trkpt lat="42.67439" lon="23.59064">
        <ele>588.448397</ele>
        <time>2022-03-09T10:11:51.410Z</time>
      </trkpt>
      <trkpt lat="42.67445" lon="23.59049">
        <ele>588.557591</ele>
        <time>2022-03-09T10:11:54.405Z</time>
      </trkpt>
      <trkpt lat="42.6745" lon="23.59036">
        <ele>588.657566</ele>
        <time>2022-03-09T10:11:57.420Z</time>
      </trkpt>
      <trkpt lat="42.67455" lon="23.59023">
        <ele>588.750441</ele>
        <time>2022-03-09T10:12:00.416Z</time>
      </trkpt>
      <trkpt lat="42.67461" lon="23.59011">
        <ele>588.844003</ele>
        <time>2022-03-09T10:12:03.420Z</time>
      </trkpt>
      <trkpt lat="42.67465" lon="23.58997">
        <ele>588.939752</ele>
        <time>2022-03-09T10:12:06.417Z</time>
      </trkpt>
      <trkpt lat="42.6747" lon="23.58984">
        <ele>589.036735</ele>
        <time>2022-03-09T10:12:09.408Z</time>
      </trkpt>
      <trkpt lat="42.67475" lon="23.58971">
        <ele>589.131629</ele>
        <time>2022-03-09T10:12:12.408Z</time>
      </trkpt>
      <trkpt lat="42.67479" lon="23.58958">
        <ele>589.226201</ele>
        <time>2022-03-09T10:12:15.450Z</time>
      </trkpt>
      <trkpt lat="42.67483" lon="23.58944">
        <ele>589.323767</ele>
        <time>2022-03-09T10:12:18.412Z</time>
      </trkpt>
      <trkpt lat="42.67489" lon="23.5893">
        <ele>589.425365</ele>
        <time>2022-03-09T10:12:21.459Z</time>
      </trkpt>
      <trkpt lat="42.67494" lon="23.58917">
        <ele>589.525652</ele>
        <time>2022-03-09T10:12:24.426Z</time>
      </trkpt>
      <trkpt lat="42.675" lon="23.58904">
        <ele>589.624367</ele>
        <time>2022-03-09T10:12:27.413Z</time>
      </trkpt>
      <trkpt lat="42.67505" lon="23.5889">
        <ele>589.723422</ele>
        <time>2022-03-09T10:12:30.401Z</time>
      </trkpt>
      <trkpt lat="42.67511" lon="23.58875">
        <ele>589.836231</ele>
        <time>2022-03-09T10:12:33.407Z</time>
      </trkpt>
      <trkpt lat="42.67517" lon="23.5886">
        <ele>589.944911</ele>
        <time>2022-03-09T10:12:36.414Z</time>
      </trkpt>
      <trkpt lat="42.67522" lon="23.58845">
        <ele>589.831995</ele>
        <time>2022-03-09T10:12:39.403Z</time>
      </trkpt>
      <trkpt lat="42.67528" lon="23.58832">
        <ele>589.576324</ele>
        <time>2022-03-09T10:12:42.408Z</time>
      </trkpt>
      <trkpt lat="42.67532" lon="23.58818">
        <ele>589.329738</ele>
        <time>2022-03-09T10:12:45.438Z</time>
      </trkpt>
      <trkpt lat="42.67538" lon="23.58805">
        <ele>589.07973</ele>
        <time>2022-03-09T10:12:48.410Z</time>
      </trkpt>
      <trkpt lat="42.67543" lon="23.58791">
        <ele>588.82643</ele>
        <time>2022-03-09T10:12:51.419Z</time>
      </trkpt>
      <trkpt lat="42.67548" lon="23.58779">
        <ele>588.58726</ele>
        <time>2022-03-09T10:12:54.410Z</time>
      </trkpt>
      <trkpt lat="42.67553" lon="23.58765">
        <ele>588.334318</ele>
        <time>2022-03-09T10:12:57.405Z</time>
      </trkpt>
      <trkpt lat="42.67559" lon="23.5875">
        <ele>588.06348</ele>
        <time>2022-03-09T10:13:00.454Z</time>
      </trkpt>
      <trkpt lat="42.67565" lon="23.58736">
        <ele>587.789731</ele>
        <time>2022-03-09T10:13:03.414Z</time>
      </trkpt>
      <trkpt lat="42.67571" lon="23.58721">
        <ele>587.507376</ele>
        <time>2022-03-09T10:13:06.410Z</time>
      </trkpt>
      <trkpt lat="42.67577" lon="23.58708">
        <ele>587.253489</ele>
        <time>2022-03-09T10:13:09.439Z</time>
      </trkpt>
      <trkpt lat="42.67582" lon="23.58694">
        <ele>587.003228</ele>
        <time>2022-03-09T10:13:12.450Z</time>
      </trkpt>
      <trkpt lat="42.67588" lon="23.5868">
        <ele>586.734897</ele>
        <time>2022-03-09T10:13:15.396Z</time>
      </trkpt>
      <trkpt lat="42.67593" lon="23.58665">
        <ele>586.468632</ele>
        <time>2022-03-09T10:13:18.408Z</time>
      </trkpt>
      <trkpt lat="42.67599" lon="23.58651">
        <ele>586.20321</ele>
        <time>2022-03-09T10:13:21.440Z</time>
      </trkpt>
      <trkpt lat="42.67605" lon="23.58637">
        <ele>585.944866</ele>
        <time>2022-03-09T10:13:24.421Z</time>
      </trkpt>
      <trkpt lat="42.67611" lon="23.58621">
        <ele>585.762317</ele>
        <time>2022-03-09T10:13:27.436Z</time>
      </trkpt>
      <trkpt lat="42.67617" lon="23.58606">
        <ele>585.584593</ele>
        <time>2022-03-09T10:13:30.413Z</time>
      </trkpt>
      <trkpt lat="42.67623" lon="23.58591">
        <ele>585.401425</ele>
        <time>2022-03-09T10:13:33.410Z</time>
      </trkpt>
      <trkpt lat="42.67629" lon="23.58575">
        <ele>585.214854</ele>
        <time>2022-03-09T10:13:36.410Z</time>
      </trkpt>
      <trkpt lat="42.67633" lon="23.58564">
        <ele>585.085858</ele>
        <time>2022-03-09T10:13:38.416Z</time>
      </trkpt>
      <trkpt lat="42.67639" lon="23.58548">
        <ele>584.900659</ele>
        <time>2022-03-09T10:13:41.423Z</time>
      </trkpt>
      <trkpt lat="42.67646" lon="23.58533">
        <ele>584.72198</ele>
        <time>2022-03-09T10:13:44.412Z</time>
      </trkpt>
      <trkpt lat="42.6765" lon="23.58522">
        <ele>584.593358</ele>
        <time>2022-03-09T10:13:46.407Z</time>
      </trkpt>
      <trkpt lat="42.67654" lon="23.58511">
        <ele>584.465363</ele>
        <time>2022-03-09T10:13:48.418Z</time>
      </trkpt>
      <trkpt lat="42.6766" lon="23.58495">
        <ele>584.274419</ele>
        <time>2022-03-09T10:13:51.413Z</time>
      </trkpt>
      <trkpt lat="42.67667" lon="23.58479">
        <ele>584.090331</ele>
        <time>2022-03-09T10:13:54.417Z</time>
      </trkpt>
      <trkpt lat="42.67673" lon="23.58464">
        <ele>583.910117</ele>
        <time>2022-03-09T10:13:57.429Z</time>
      </trkpt>
      <trkpt lat="42.67679" lon="23.58448">
        <ele>583.723225</ele>
        <time>2022-03-09T10:14:00.422Z</time>
      </trkpt>
      <trkpt lat="42.67685" lon="23.58432">
        <ele>583.537785</ele>
        <time>2022-03-09T10:14:03.416Z</time>
      </trkpt>
      <trkpt lat="42.67691" lon="23.58417">
        <ele>583.475444</ele>
        <time>2022-03-09T10:14:06.404Z</time>
      </trkpt>
      <trkpt lat="42.67697" lon="23.58404">
        <ele>583.599441</ele>
        <time>2022-03-09T10:14:09.441Z</time>
      </trkpt>
      <trkpt lat="42.67702" lon="23.58389">
        <ele>583.729262</ele>
        <time>2022-03-09T10:14:12.409Z</time>
      </trkpt>
      <trkpt lat="42.67707" lon="23.58373">
        <ele>583.860949</ele>
        <time>2022-03-09T10:14:15.410Z</time>
      </trkpt>
      <trkpt lat="42.67714" lon="23.58358">
        <ele>583.998091</ele>
        <time>2022-03-09T10:14:18.407Z</time>
      </trkpt>
      <trkpt lat="42.67719" lon="23.58344">
        <ele>584.125489</ele>
        <time>2022-03-09T10:14:21.437Z</time>
      </trkpt>
      <trkpt lat="42.67725" lon="23.58329">
        <ele>584.257504</ele>
        <time>2022-03-09T10:14:24.406Z</time>
      </trkpt>
      <trkpt lat="42.67731" lon="23.58315">
        <ele>584.381776</ele>
        <time>2022-03-09T10:14:27.412Z</time>
      </trkpt>
      <trkpt lat="42.67737" lon="23.58301">
        <ele>584.507383</ele>
        <time>2022-03-09T10:14:30.415Z</time>
      </trkpt>
      <trkpt lat="42.67743" lon="23.58285">
        <ele>584.64584</ele>
        <time>2022-03-09T10:14:33.426Z</time>
      </trkpt>
      <trkpt lat="42.67747" lon="23.58274">
        <ele>584.746704</ele>
        <time>2022-03-09T10:14:35.406Z</time>
      </trkpt>
      <trkpt lat="42.67752" lon="23.58263">
        <ele>584.842701</ele>
        <time>2022-03-09T10:14:37.448Z</time>
      </trkpt>
      <trkpt lat="42.67757" lon="23.58253">
        <ele>584.938981</ele>
        <time>2022-03-09T10:14:39.414Z</time>
      </trkpt>
      <trkpt lat="42.67763" lon="23.58237">
        <ele>585.083143</ele>
        <time>2022-03-09T10:14:42.412Z</time>
      </trkpt>
      <trkpt lat="42.67768" lon="23.58226">
        <ele>585.179832</ele>
        <time>2022-03-09T10:14:44.404Z</time>
      </trkpt>
      <trkpt lat="42.67774" lon="23.5821">
        <ele>585.317661</ele>
        <time>2022-03-09T10:14:47.409Z</time>
      </trkpt>
      <trkpt lat="42.6778" lon="23.58194">
        <ele>585.39053</ele>
        <time>2022-03-09T10:14:50.412Z</time>
      </trkpt>
      <trkpt lat="42.67787" lon="23.58178">
        <ele>585.452905</ele>
        <time>2022-03-09T10:14:53.444Z</time>
      </trkpt>
      <trkpt lat="42.67793" lon="23.58162">
        <ele>585.515249</ele>
        <time>2022-03-09T10:14:56.421Z</time>
      </trkpt>
      <trkpt lat="42.67797" lon="23.58151">
        <ele>585.558574</ele>
        <time>2022-03-09T10:14:58.421Z</time>
      </trkpt>
      <trkpt lat="42.67803" lon="23.58136">
        <ele>585.618893</ele>
        <time>2022-03-09T10:15:01.401Z</time>
      </trkpt>
      <trkpt lat="42.67809" lon="23.58122">
        <ele>585.674659</ele>
        <time>2022-03-09T10:15:04.425Z</time>
      </trkpt>
      <trkpt lat="42.67815" lon="23.58107">
        <ele>585.735368</ele>
        <time>2022-03-09T10:15:07.391Z</time>
      </trkpt>
      <trkpt lat="42.67821" lon="23.58092">
        <ele>585.794937</ele>
        <time>2022-03-09T10:15:10.381Z</time>
      </trkpt>
      <trkpt lat="42.67827" lon="23.58077">
        <ele>585.853136</ele>
        <time>2022-03-09T10:15:13.388Z</time>
      </trkpt>
      <trkpt lat="42.67833" lon="23.58063">
        <ele>585.909897</ele>
        <time>2022-03-09T10:15:16.379Z</time>
      </trkpt>
      <trkpt lat="42.67839" lon="23.58048">
        <ele>585.96847</ele>
        <time>2022-03-09T10:15:19.384Z</time>
      </trkpt>
      <trkpt lat="42.67845" lon="23.58033">
        <ele>586.027203</ele>
        <time>2022-03-09T10:15:22.379Z</time>
      </trkpt>
      <trkpt lat="42.67851" lon="23.58019">
        <ele>586.083738</ele>
        <time>2022-03-09T10:15:25.387Z</time>
      </trkpt>
      <trkpt lat="42.67857" lon="23.58004">
        <ele>586.140974</ele>
        <time>2022-03-09T10:15:28.382Z</time>
      </trkpt>
      <trkpt lat="42.67863" lon="23.57989">
        <ele>586.20825</ele>
        <time>2022-03-09T10:15:31.399Z</time>
      </trkpt>
      <trkpt lat="42.6787" lon="23.57974">
        <ele>586.290802</ele>
        <time>2022-03-09T10:15:34.381Z</time>
      </trkpt>
      <trkpt lat="42.67876" lon="23.5796">
        <ele>586.368682</ele>
        <time>2022-03-09T10:15:37.385Z</time>
      </trkpt>
      <trkpt lat="42.67882" lon="23.57946">
        <ele>586.448998</ele>
        <time>2022-03-09T10:15:40.391Z</time>
      </trkpt>
      <trkpt lat="42.67888" lon="23.57929">
        <ele>586.537005</ele>
        <time>2022-03-09T10:15:43.382Z</time>
      </trkpt>
      <trkpt lat="42.67894" lon="23.57913">
        <ele>586.621742</ele>
        <time>2022-03-09T10:15:46.383Z</time>
      </trkpt>
      <trkpt lat="42.679" lon="23.57898">
        <ele>586.705053</ele>
        <time>2022-03-09T10:15:49.383Z</time>
      </trkpt>
      <trkpt lat="42.67905" lon="23.57882">
        <ele>586.790201</ele>
        <time>2022-03-09T10:15:52.380Z</time>
      </trkpt>
      <trkpt lat="42.67911" lon="23.57867">
        <ele>586.872665</ele>
        <time>2022-03-09T10:15:55.381Z</time>
      </trkpt>
      <trkpt lat="42.67917" lon="23.57851">
        <ele>586.955854</ele>
        <time>2022-03-09T10:15:58.384Z</time>
      </trkpt>
      <trkpt lat="42.67924" lon="23.57837">
        <ele>587.036658</ele>
        <time>2022-03-09T10:16:01.381Z</time>
      </trkpt>
      <trkpt lat="42.6793" lon="23.57822">
        <ele>587.115821</ele>
        <time>2022-03-09T10:16:04.415Z</time>
      </trkpt>
      <trkpt lat="42.67935" lon="23.57808">
        <ele>587.193699</ele>
        <time>2022-03-09T10:16:07.382Z</time>
      </trkpt>
      <trkpt lat="42.67941" lon="23.57793">
        <ele>587.275276</ele>
        <time>2022-03-09T10:16:10.396Z</time>
      </trkpt>
      <trkpt lat="42.67946" lon="23.57777">
        <ele>587.348619</ele>
        <time>2022-03-09T10:16:13.393Z</time>
      </trkpt>
      <trkpt lat="42.67952" lon="23.57761">
        <ele>587.294046</ele>
        <time>2022-03-09T10:16:16.389Z</time>
      </trkpt>
      <trkpt lat="42.67958" lon="23.57745">
        <ele>587.237059</ele>
        <time>2022-03-09T10:16:19.390Z</time>
      </trkpt>
      <trkpt lat="42.67964" lon="23.57729">
        <ele>587.183122</ele>
        <time>2022-03-09T10:16:22.393Z</time>
      </trkpt>
      <trkpt lat="42.6797" lon="23.57714">
        <ele>587.129609</ele>
        <time>2022-03-09T10:16:25.383Z</time>
      </trkpt>
      <trkpt lat="42.67976" lon="23.57698">
        <ele>587.073797</ele>
        <time>2022-03-09T10:16:28.386Z</time>
      </trkpt>
      <trkpt lat="42.67982" lon="23.57682">
        <ele>587.018947</ele>
        <time>2022-03-09T10:16:31.381Z</time>
      </trkpt>
      <trkpt lat="42.67988" lon="23.57666">
        <ele>586.963805</ele>
        <time>2022-03-09T10:16:34.391Z</time>
      </trkpt>
      <trkpt lat="42.67993" lon="23.57655">
        <ele>586.924093</ele>
        <time>2022-03-09T10:16:36.390Z</time>
      </trkpt>
      <trkpt lat="42.67997" lon="23.57643">
        <ele>586.883377</ele>
        <time>2022-03-09T10:16:38.385Z</time>
      </trkpt>
      <trkpt lat="42.68001" lon="23.57632">
        <ele>586.844606</ele>
        <time>2022-03-09T10:16:40.384Z</time>
      </trkpt>
      <trkpt lat="42.68006" lon="23.5762">
        <ele>586.802178</ele>
        <time>2022-03-09T10:16:42.381Z</time>
      </trkpt>
      <trkpt lat="42.68012" lon="23.57604">
        <ele>586.746123</ele>
        <time>2022-03-09T10:16:45.380Z</time>
      </trkpt>
      <trkpt lat="42.68018" lon="23.57589">
        <ele>586.693625</ele>
        <time>2022-03-09T10:16:48.383Z</time>
      </trkpt>
      <trkpt lat="42.68025" lon="23.57574">
        <ele>586.637946</ele>
        <time>2022-03-09T10:16:51.383Z</time>
      </trkpt>
      <trkpt lat="42.68032" lon="23.57558">
        <ele>586.673091</ele>
        <time>2022-03-09T10:16:54.407Z</time>
      </trkpt>
      <trkpt lat="42.68036" lon="23.57547">
        <ele>586.862073</ele>
        <time>2022-03-09T10:16:56.389Z</time>
      </trkpt>
      <trkpt lat="42.68041" lon="23.57532">
        <ele>587.116389</ele>
        <time>2022-03-09T10:16:59.390Z</time>
      </trkpt>
      <trkpt lat="42.68046" lon="23.57517">
        <ele>587.365059</ele>
        <time>2022-03-09T10:17:02.382Z</time>
      </trkpt>
      <trkpt lat="42.68052" lon="23.57502">
        <ele>587.625322</ele>
        <time>2022-03-09T10:17:05.386Z</time>
      </trkpt>
      <trkpt lat="42.68058" lon="23.57489">
        <ele>587.860996</ele>
        <time>2022-03-09T10:17:08.384Z</time>
      </trkpt>
      <trkpt lat="42.68064" lon="23.57474">
        <ele>588.11314</ele>
        <time>2022-03-09T10:17:11.386Z</time>
      </trkpt>
      <trkpt lat="42.68068" lon="23.5746">
        <ele>588.348362</ele>
        <time>2022-03-09T10:17:14.387Z</time>
      </trkpt>
      <trkpt lat="42.68074" lon="23.57445">
        <ele>588.607578</ele>
        <time>2022-03-09T10:17:17.416Z</time>
      </trkpt>
      <trkpt lat="42.6808" lon="23.57433">
        <ele>588.834259</ele>
        <time>2022-03-09T10:17:19.385Z</time>
      </trkpt>
      <trkpt lat="42.68085" lon="23.57422">
        <ele>589.03638</ele>
        <time>2022-03-09T10:17:21.387Z</time>
      </trkpt>
      <trkpt lat="42.6809" lon="23.57411">
        <ele>589.235462</ele>
        <time>2022-03-09T10:17:23.390Z</time>
      </trkpt>
      <trkpt lat="42.68095" lon="23.574">
        <ele>589.439858</ele>
        <time>2022-03-09T10:17:25.384Z</time>
      </trkpt>
      <trkpt lat="42.68099" lon="23.57388">
        <ele>589.637345</ele>
        <time>2022-03-09T10:17:27.381Z</time>
      </trkpt>
      <trkpt lat="42.68102" lon="23.57376">
        <ele>589.835592</ele>
        <time>2022-03-09T10:17:29.391Z</time>
      </trkpt>
      <trkpt lat="42.68106" lon="23.57364">
        <ele>590.034825</ele>
        <time>2022-03-09T10:17:31.381Z</time>
      </trkpt>
      <trkpt lat="42.6811" lon="23.57353">
        <ele>590.224213</ele>
        <time>2022-03-09T10:17:33.383Z</time>
      </trkpt>
      <trkpt lat="42.68116" lon="23.57338">
        <ele>590.343248</ele>
        <time>2022-03-09T10:17:36.389Z</time>
      </trkpt>
      <trkpt lat="42.68121" lon="23.57323">
        <ele>590.324928</ele>
        <time>2022-03-09T10:17:39.402Z</time>
      </trkpt>
      <trkpt lat="42.68127" lon="23.57308">
        <ele>590.30589</ele>
        <time>2022-03-09T10:17:42.380Z</time>
      </trkpt>
      <trkpt lat="42.68133" lon="23.57292">
        <ele>590.286069</ele>
        <time>2022-03-09T10:17:45.379Z</time>
      </trkpt>
      <trkpt lat="42.68139" lon="23.57276">
        <ele>590.266175</ele>
        <time>2022-03-09T10:17:48.385Z</time>
      </trkpt>
      <trkpt lat="42.68145" lon="23.57261">
        <ele>590.246617</ele>
        <time>2022-03-09T10:17:51.390Z</time>
      </trkpt>
      <trkpt lat="42.68151" lon="23.57244">
        <ele>590.226559</ele>
        <time>2022-03-09T10:17:54.393Z</time>
      </trkpt>
      <trkpt lat="42.68156" lon="23.57228">
        <ele>590.206666</ele>
        <time>2022-03-09T10:17:57.388Z</time>
      </trkpt>
      <trkpt lat="42.68162" lon="23.57213">
        <ele>590.187137</ele>
        <time>2022-03-09T10:18:00.398Z</time>
      </trkpt>
      <trkpt lat="42.68168" lon="23.57197">
        <ele>590.167182</ele>
        <time>2022-03-09T10:18:03.386Z</time>
      </trkpt>
      <trkpt lat="42.68175" lon="23.57181">
        <ele>590.1469</ele>
        <time>2022-03-09T10:18:06.381Z</time>
      </trkpt>
      <trkpt lat="42.68179" lon="23.5717">
        <ele>590.132523</ele>
        <time>2022-03-09T10:18:08.392Z</time>
      </trkpt>
      <trkpt lat="42.68183" lon="23.57157">
        <ele>590.117487</ele>
        <time>2022-03-09T10:18:10.435Z</time>
      </trkpt>
      <trkpt lat="42.68187" lon="23.57146">
        <ele>590.103405</ele>
        <time>2022-03-09T10:18:12.411Z</time>
      </trkpt>
      <trkpt lat="42.68192" lon="23.57135">
        <ele>590.089028</ele>
        <time>2022-03-09T10:18:14.396Z</time>
      </trkpt>
      <trkpt lat="42.68196" lon="23.57123">
        <ele>590.045466</ele>
        <time>2022-03-09T10:18:16.387Z</time>
      </trkpt>
      <trkpt lat="42.68202" lon="23.57113">
        <ele>589.95061</ele>
        <time>2022-03-09T10:18:18.389Z</time>
      </trkpt>
      <trkpt lat="42.68209" lon="23.57099">
        <ele>589.823944</ele>
        <time>2022-03-09T10:18:21.380Z</time>
      </trkpt>
      <trkpt lat="42.68216" lon="23.57086">
        <ele>589.703256</ele>
        <time>2022-03-09T10:18:24.401Z</time>
      </trkpt>
      <trkpt lat="42.68222" lon="23.57073">
        <ele>589.588476</ele>
        <time>2022-03-09T10:18:27.378Z</time>
      </trkpt>
      <trkpt lat="42.68229" lon="23.57059">
        <ele>589.46469</ele>
        <time>2022-03-09T10:18:30.397Z</time>
      </trkpt>
      <trkpt lat="42.68235" lon="23.57046">
        <ele>589.34817</ele>
        <time>2022-03-09T10:18:33.384Z</time>
      </trkpt>
      <trkpt lat="42.68242" lon="23.57034">
        <ele>589.232944</ele>
        <time>2022-03-09T10:18:36.393Z</time>
      </trkpt>
      <trkpt lat="42.68249" lon="23.57023">
        <ele>589.124291</ele>
        <time>2022-03-09T10:18:39.402Z</time>
      </trkpt>
      <trkpt lat="42.68254" lon="23.5701">
        <ele>589.01771</ele>
        <time>2022-03-09T10:18:44.397Z</time>
      </trkpt>
      <trkpt lat="42.68254" lon="23.56997">
        <ele>588.919073</ele>
        <time>2022-03-09T10:18:48.379Z</time>
      </trkpt>
      <trkpt lat="42.68247" lon="23.56988">
        <ele>588.822958</ele>
        <time>2022-03-09T10:18:51.380Z</time>
      </trkpt>
      <trkpt lat="42.68238" lon="23.5698">
        <ele>588.714444</ele>
        <time>2022-03-09T10:18:54.418Z</time>
      </trkpt>
      <trkpt lat="42.68232" lon="23.5697">
        <ele>588.61805</ele>
        <time>2022-03-09T10:18:57.385Z</time>
      </trkpt>
      <trkpt lat="42.68225" lon="23.56957">
        <ele>588.498042</ele>
        <time>2022-03-09T10:19:00.390Z</time>
      </trkpt>
      <trkpt lat="42.68217" lon="23.56943">
        <ele>588.369018</ele>
        <time>2022-03-09T10:19:03.387Z</time>
      </trkpt>
      <trkpt lat="42.68213" lon="23.56932">
        <ele>588.273472</ele>
        <time>2022-03-09T10:19:05.386Z</time>
      </trkpt>
      <trkpt lat="42.68205" lon="23.56918">
        <ele>588.105386</ele>
        <time>2022-03-09T10:19:08.386Z</time>
      </trkpt>
      <trkpt lat="42.68197" lon="23.56904">
        <ele>587.933626</ele>
        <time>2022-03-09T10:19:11.385Z</time>
      </trkpt>
      <trkpt lat="42.68192" lon="23.56894">
        <ele>587.809282</ele>
        <time>2022-03-09T10:19:13.408Z</time>
      </trkpt>
      <trkpt lat="42.68185" lon="23.56884">
        <ele>587.67088</ele>
        <time>2022-03-09T10:19:15.376Z</time>
      </trkpt>
      <trkpt lat="42.68179" lon="23.56874">
        <ele>587.542421</ele>
        <time>2022-03-09T10:19:17.379Z</time>
      </trkpt>
      <trkpt lat="42.68171" lon="23.56866">
        <ele>587.414351</ele>
        <time>2022-03-09T10:19:19.396Z</time>
      </trkpt>
      <trkpt lat="42.68165" lon="23.56858">
        <ele>587.291587</ele>
        <time>2022-03-09T10:19:21.380Z</time>
      </trkpt>
      <trkpt lat="42.68155" lon="23.56848">
        <ele>587.125855</ele>
        <time>2022-03-09T10:19:24.412Z</time>
      </trkpt>
      <trkpt lat="42.68144" lon="23.56837">
        <ele>586.943645</ele>
        <time>2022-03-09T10:19:27.388Z</time>
      </trkpt>
      <trkpt lat="42.68133" lon="23.56827">
        <ele>586.76945</ele>
        <time>2022-03-09T10:19:30.384Z</time>
      </trkpt>
      <trkpt lat="42.68123" lon="23.56818">
        <ele>586.600374</ele>
        <time>2022-03-09T10:19:33.379Z</time>
      </trkpt>
      <trkpt lat="42.68113" lon="23.56807">
        <ele>586.430999</ele>
        <time>2022-03-09T10:19:36.380Z</time>
      </trkpt>
      <trkpt lat="42.68102" lon="23.56797">
        <ele>586.254095</ele>
        <time>2022-03-09T10:19:39.383Z</time>
      </trkpt>
      <trkpt lat="42.68093" lon="23.56788">
        <ele>586.09509</ele>
        <time>2022-03-09T10:19:42.376Z</time>
      </trkpt>
      <trkpt lat="42.68082" lon="23.56777">
        <ele>585.916092</ele>
        <time>2022-03-09T10:19:45.380Z</time>
      </trkpt>
      <trkpt lat="42.68074" lon="23.56768">
        <ele>585.782567</ele>
        <time>2022-03-09T10:19:47.377Z</time>
      </trkpt>
      <trkpt lat="42.68066" lon="23.5676">
        <ele>585.657826</ele>
        <time>2022-03-09T10:19:49.381Z</time>
      </trkpt>
      <trkpt lat="42.6806" lon="23.56751">
        <ele>585.538254</ele>
        <time>2022-03-09T10:19:51.378Z</time>
      </trkpt>
      <trkpt lat="42.68054" lon="23.5674">
        <ele>585.415928</ele>
        <time>2022-03-09T10:19:53.385Z</time>
      </trkpt>
      <trkpt lat="42.6805" lon="23.56728">
        <ele>585.286291</ele>
        <time>2022-03-09T10:19:55.385Z</time>
      </trkpt>
      <trkpt lat="42.68045" lon="23.56716">
        <ele>585.163475</ele>
        <time>2022-03-09T10:19:57.382Z</time>
      </trkpt>
      <trkpt lat="42.6804" lon="23.56704">
        <ele>585.037636</ele>
        <time>2022-03-09T10:19:59.383Z</time>
      </trkpt>
      <trkpt lat="42.68036" lon="23.56693">
        <ele>584.922265</ele>
        <time>2022-03-09T10:20:01.386Z</time>
      </trkpt>
      <trkpt lat="42.68031" lon="23.56678">
        <ele>584.773088</ele>
        <time>2022-03-09T10:20:04.391Z</time>
      </trkpt>
      <trkpt lat="42.68027" lon="23.56666">
        <ele>584.656936</ele>
        <time>2022-03-09T10:20:06.386Z</time>
      </trkpt>
      <trkpt lat="42.68022" lon="23.56649">
        <ele>584.485149</ele>
        <time>2022-03-09T10:20:09.380Z</time>
      </trkpt>
      <trkpt lat="42.68018" lon="23.56635">
        <ele>584.348283</ele>
        <time>2022-03-09T10:20:11.385Z</time>
      </trkpt>
      <trkpt lat="42.68015" lon="23.56622">
        <ele>584.219635</ele>
        <time>2022-03-09T10:20:13.381Z</time>
      </trkpt>
      <trkpt lat="42.68012" lon="23.56609">
        <ele>584.10047</ele>
        <time>2022-03-09T10:20:15.378Z</time>
      </trkpt>
      <trkpt lat="42.68008" lon="23.56597">
        <ele>583.97463</ele>
        <time>2022-03-09T10:20:17.383Z</time>
      </trkpt>
      <trkpt lat="42.68002" lon="23.56586">
        <ele>583.849422</ele>
        <time>2022-03-09T10:20:19.386Z</time>
      </trkpt>
      <trkpt lat="42.67995" lon="23.56576">
        <ele>583.724836</ele>
        <time>2022-03-09T10:20:21.389Z</time>
      </trkpt>
      <trkpt lat="42.67988" lon="23.56568">
        <ele>583.602141</ele>
        <time>2022-03-09T10:20:23.383Z</time>
      </trkpt>
      <trkpt lat="42.67978" lon="23.56561">
        <ele>583.538444</ele>
        <time>2022-03-09T10:20:25.385Z</time>
      </trkpt>
      <trkpt lat="42.67969" lon="23.56557">
        <ele>583.495286</ele>
        <time>2022-03-09T10:20:27.384Z</time>
      </trkpt>
      <trkpt lat="42.67959" lon="23.56555">
        <ele>583.451676</ele>
        <time>2022-03-09T10:20:29.408Z</time>
      </trkpt>
      <trkpt lat="42.67949" lon="23.56555">
        <ele>583.408046</ele>
        <time>2022-03-09T10:20:31.378Z</time>
      </trkpt>
      <trkpt lat="42.67939" lon="23.56555">
        <ele>583.362217</ele>
        <time>2022-03-09T10:20:33.378Z</time>
      </trkpt>
      <trkpt lat="42.67929" lon="23.56556">
        <ele>583.320264</ele>
        <time>2022-03-09T10:20:35.404Z</time>
      </trkpt>
      <trkpt lat="42.6792" lon="23.56557">
        <ele>583.279617</ele>
        <time>2022-03-09T10:20:37.376Z</time>
      </trkpt>
      <trkpt lat="42.67907" lon="23.56557">
        <ele>583.22595</ele>
        <time>2022-03-09T10:20:40.380Z</time>
      </trkpt>
      <trkpt lat="42.67895" lon="23.56558">
        <ele>583.170806</ele>
        <time>2022-03-09T10:20:43.382Z</time>
      </trkpt>
      <trkpt lat="42.67886" lon="23.56558">
        <ele>583.130229</ele>
        <time>2022-03-09T10:20:45.382Z</time>
      </trkpt>
      <trkpt lat="42.67875" lon="23.56559">
        <ele>583.084411</ele>
        <time>2022-03-09T10:20:47.394Z</time>
      </trkpt>
      <trkpt lat="42.67865" lon="23.56559">
        <ele>583.0421</ele>
        <time>2022-03-09T10:20:49.386Z</time>
      </trkpt>
      <trkpt lat="42.67853" lon="23.56558">
        <ele>582.988414</ele>
        <time>2022-03-09T10:20:52.391Z</time>
      </trkpt>
      <trkpt lat="42.67844" lon="23.56558">
        <ele>582.948708</ele>
        <time>2022-03-09T10:20:54.382Z</time>
      </trkpt>
      <trkpt lat="42.67834" lon="23.56559">
        <ele>582.905864</ele>
        <time>2022-03-09T10:20:56.382Z</time>
      </trkpt>
      <trkpt lat="42.67825" lon="23.56561">
        <ele>582.865984</ele>
        <time>2022-03-09T10:20:58.385Z</time>
      </trkpt>
      <trkpt lat="42.67816" lon="23.56562">
        <ele>582.824701</ele>
        <time>2022-03-09T10:21:00.389Z</time>
      </trkpt>
      <trkpt lat="42.67803" lon="23.56562">
        <ele>582.773326</ele>
        <time>2022-03-09T10:21:03.381Z</time>
      </trkpt>
      <trkpt lat="42.67793" lon="23.56561">
        <ele>582.741496</ele>
        <time>2022-03-09T10:21:05.380Z</time>
      </trkpt>
      <trkpt lat="42.67783" lon="23.56559">
        <ele>582.709036</ele>
        <time>2022-03-09T10:21:07.389Z</time>
      </trkpt>
      <trkpt lat="42.67772" lon="23.56557">
        <ele>582.674101</ele>
        <time>2022-03-09T10:21:09.387Z</time>
      </trkpt>
      <trkpt lat="42.67761" lon="23.56554">
        <ele>582.637634</ele>
        <time>2022-03-09T10:21:11.383Z</time>
      </trkpt>
      <trkpt lat="42.6775" lon="23.5655">
        <ele>582.602642</ele>
        <time>2022-03-09T10:21:13.386Z</time>
      </trkpt>
      <trkpt lat="42.6774" lon="23.56546">
        <ele>582.569643</ele>
        <time>2022-03-09T10:21:15.382Z</time>
      </trkpt>
      <trkpt lat="42.67731" lon="23.56542">
        <ele>582.539341</ele>
        <time>2022-03-09T10:21:17.409Z</time>
      </trkpt>
      <trkpt lat="42.67719" lon="23.56537">
        <ele>582.496993</ele>
        <time>2022-03-09T10:21:20.413Z</time>
      </trkpt>
      <trkpt lat="42.6771" lon="23.56534">
        <ele>582.466964</ele>
        <time>2022-03-09T10:21:22.409Z</time>
      </trkpt>
      <trkpt lat="42.67701" lon="23.56529">
        <ele>582.436868</ele>
        <time>2022-03-09T10:21:24.424Z</time>
      </trkpt>
      <trkpt lat="42.67693" lon="23.56521">
        <ele>582.405698</ele>
        <time>2022-03-09T10:21:26.425Z</time>
      </trkpt>
      <trkpt lat="42.67686" lon="23.56511">
        <ele>582.37234</ele>
        <time>2022-03-09T10:21:28.401Z</time>
      </trkpt>
      <trkpt lat="42.67681" lon="23.565">
        <ele>582.341145</ele>
        <time>2022-03-09T10:21:30.447Z</time>
      </trkpt>
      <trkpt lat="42.67675" lon="23.56489">
        <ele>582.310163</ele>
        <time>2022-03-09T10:21:32.407Z</time>
      </trkpt>
      <trkpt lat="42.67667" lon="23.56475">
        <ele>582.26854</ele>
        <time>2022-03-09T10:21:35.427Z</time>
      </trkpt>
      <trkpt lat="42.67661" lon="23.56466">
        <ele>582.239146</ele>
        <time>2022-03-09T10:21:37.410Z</time>
      </trkpt>
      <trkpt lat="42.67652" lon="23.56453">
        <ele>582.122103</ele>
        <time>2022-03-09T10:21:40.414Z</time>
      </trkpt>
      <trkpt lat="42.67645" lon="23.56445">
        <ele>581.924235</ele>
        <time>2022-03-09T10:21:42.414Z</time>
      </trkpt>
      <trkpt lat="42.67639" lon="23.56435">
        <ele>581.718181</ele>
        <time>2022-03-09T10:21:44.400Z</time>
      </trkpt>
      <trkpt lat="42.6763" lon="23.56422">
        <ele>581.431944</ele>
        <time>2022-03-09T10:21:47.457Z</time>
      </trkpt>
      <trkpt lat="42.67621" lon="23.56409">
        <ele>581.152905</ele>
        <time>2022-03-09T10:21:50.417Z</time>
      </trkpt>
      <trkpt lat="42.67612" lon="23.56397">
        <ele>580.871328</ele>
        <time>2022-03-09T10:21:53.412Z</time>
      </trkpt>
      <trkpt lat="42.67604" lon="23.56385">
        <ele>580.613196</ele>
        <time>2022-03-09T10:21:56.420Z</time>
      </trkpt>
      <trkpt lat="42.67597" lon="23.56372">
        <ele>580.367478</ele>
        <time>2022-03-09T10:21:59.420Z</time>
      </trkpt>
      <trkpt lat="42.6759" lon="23.56361">
        <ele>580.132063</ele>
        <time>2022-03-09T10:22:02.426Z</time>
      </trkpt>
      <trkpt lat="42.67584" lon="23.56347">
        <ele>579.883516</ele>
        <time>2022-03-09T10:22:05.413Z</time>
      </trkpt>
      <trkpt lat="42.67578" lon="23.56334">
        <ele>579.630804</ele>
        <time>2022-03-09T10:22:08.412Z</time>
      </trkpt>
      <trkpt lat="42.67572" lon="23.56319">
        <ele>579.369377</ele>
        <time>2022-03-09T10:22:11.418Z</time>
      </trkpt>
      <trkpt lat="42.67566" lon="23.56305">
        <ele>579.10624</ele>
        <time>2022-03-09T10:22:14.404Z</time>
      </trkpt>
      <trkpt lat="42.67561" lon="23.5629">
        <ele>578.846926</ele>
        <time>2022-03-09T10:22:17.398Z</time>
      </trkpt>
      <trkpt lat="42.67555" lon="23.56276">
        <ele>578.590043</ele>
        <time>2022-03-09T10:22:20.410Z</time>
      </trkpt>
      <trkpt lat="42.67549" lon="23.56262">
        <ele>578.332443</ele>
        <time>2022-03-09T10:22:23.413Z</time>
      </trkpt>
      <trkpt lat="42.67543" lon="23.56248">
        <ele>578.273944</ele>
        <time>2022-03-09T10:22:26.412Z</time>
      </trkpt>
      <trkpt lat="42.67537" lon="23.56235">
        <ele>578.224602</ele>
        <time>2022-03-09T10:22:29.405Z</time>
      </trkpt>
      <trkpt lat="42.67532" lon="23.56222">
        <ele>578.176043</ele>
        <time>2022-03-09T10:22:32.440Z</time>
      </trkpt>
      <trkpt lat="42.67526" lon="23.56209">
        <ele>578.126259</ele>
        <time>2022-03-09T10:22:35.408Z</time>
      </trkpt>
      <trkpt lat="42.6752" lon="23.56195">
        <ele>578.075464</ele>
        <time>2022-03-09T10:22:38.410Z</time>
      </trkpt>
      <trkpt lat="42.67514" lon="23.56181">
        <ele>578.021754</ele>
        <time>2022-03-09T10:22:41.405Z</time>
      </trkpt>
      <trkpt lat="42.67508" lon="23.56167">
        <ele>577.970493</ele>
        <time>2022-03-09T10:22:44.386Z</time>
      </trkpt>
      <trkpt lat="42.67503" lon="23.56153">
        <ele>577.918164</ele>
        <time>2022-03-09T10:22:47.419Z</time>
      </trkpt>
      <trkpt lat="42.67497" lon="23.56138">
        <ele>577.86461</ele>
        <time>2022-03-09T10:22:50.396Z</time>
      </trkpt>
      <trkpt lat="42.67491" lon="23.56124">
        <ele>577.811347</ele>
        <time>2022-03-09T10:22:53.441Z</time>
      </trkpt>
      <trkpt lat="42.67484" lon="23.5611">
        <ele>577.755689</ele>
        <time>2022-03-09T10:22:56.405Z</time>
      </trkpt>
      <trkpt lat="42.67478" lon="23.56095">
        <ele>577.701641</ele>
        <time>2022-03-09T10:22:59.420Z</time>
      </trkpt>
      <trkpt lat="42.67473" lon="23.56082">
        <ele>577.652515</ele>
        <time>2022-03-09T10:23:02.409Z</time>
      </trkpt>
      <trkpt lat="42.67467" lon="23.56068">
        <ele>577.600095</ele>
        <time>2022-03-09T10:23:05.410Z</time>
      </trkpt>
      <trkpt lat="42.67461" lon="23.56054">
        <ele>577.546714</ele>
        <time>2022-03-09T10:23:08.444Z</time>
      </trkpt>
      <trkpt lat="42.67455" lon="23.56041">
        <ele>577.565948</ele>
        <time>2022-03-09T10:23:11.410Z</time>
      </trkpt>
      <trkpt lat="42.67449" lon="23.56027">
        <ele>577.61834</ele>
        <time>2022-03-09T10:23:14.418Z</time>
      </trkpt>
      <trkpt lat="42.67443" lon="23.56014">
        <ele>577.670576</ele>
        <time>2022-03-09T10:23:17.419Z</time>
      </trkpt>
      <trkpt lat="42.67438" lon="23.56001">
        <ele>577.721206</ele>
        <time>2022-03-09T10:23:20.412Z</time>
      </trkpt>
      <trkpt lat="42.67432" lon="23.55988">
        <ele>577.771073</ele>
        <time>2022-03-09T10:23:23.450Z</time>
      </trkpt>
      <trkpt lat="42.67426" lon="23.55975">
        <ele>577.822317</ele>
        <time>2022-03-09T10:23:26.411Z</time>
      </trkpt>
      <trkpt lat="42.6742" lon="23.55962">
        <ele>577.872421</ele>
        <time>2022-03-09T10:23:29.423Z</time>
      </trkpt>
      <trkpt lat="42.67416" lon="23.55949">
        <ele>577.920198</ele>
        <time>2022-03-09T10:23:32.420Z</time>
      </trkpt>
      <trkpt lat="42.67412" lon="23.55936">
        <ele>577.966492</ele>
        <time>2022-03-09T10:23:35.417Z</time>
      </trkpt>
      <trkpt lat="42.6741" lon="23.55922">
        <ele>578.014198</ele>
        <time>2022-03-09T10:23:38.428Z</time>
      </trkpt>
      <trkpt lat="42.67409" lon="23.55908">
        <ele>578.060095</ele>
        <time>2022-03-09T10:23:41.414Z</time>
      </trkpt>
      <trkpt lat="42.67408" lon="23.55895">
        <ele>578.104119</ele>
        <time>2022-03-09T10:23:44.412Z</time>
      </trkpt>
      <trkpt lat="42.67407" lon="23.55881">
        <ele>578.153514</ele>
        <time>2022-03-09T10:23:47.413Z</time>
      </trkpt>
      <trkpt lat="42.67405" lon="23.55866">
        <ele>578.2039</ele>
        <time>2022-03-09T10:23:50.413Z</time>
      </trkpt>
      <trkpt lat="42.67404" lon="23.55851">
        <ele>578.252172</ele>
        <time>2022-03-09T10:23:53.417Z</time>
      </trkpt>
      <trkpt lat="42.67402" lon="23.55837">
        <ele>578.30151</ele>
        <time>2022-03-09T10:23:56.437Z</time>
      </trkpt>
      <trkpt lat="42.67401" lon="23.55823">
        <ele>578.345764</ele>
        <time>2022-03-09T10:23:59.413Z</time>
      </trkpt>
      <trkpt lat="42.674" lon="23.55808">
        <ele>578.328989</ele>
        <time>2022-03-09T10:24:02.393Z</time>
      </trkpt>
      <trkpt lat="42.67399" lon="23.55795">
        <ele>578.312847</ele>
        <time>2022-03-09T10:24:05.436Z</time>
      </trkpt>
      <trkpt lat="42.67398" lon="23.55782">
        <ele>578.297717</ele>
        <time>2022-03-09T10:24:08.408Z</time>
      </trkpt>
      <trkpt lat="42.67396" lon="23.55768">
        <ele>578.282214</ele>
        <time>2022-03-09T10:24:11.399Z</time>
      </trkpt>
      <trkpt lat="42.67394" lon="23.55755">
        <ele>578.266531</ele>
        <time>2022-03-09T10:24:14.401Z</time>
      </trkpt>
      <trkpt lat="42.67392" lon="23.5574">
        <ele>578.249351</ele>
        <time>2022-03-09T10:24:17.411Z</time>
      </trkpt>
      <trkpt lat="42.67391" lon="23.55726">
        <ele>578.232426</ele>
        <time>2022-03-09T10:24:20.408Z</time>
      </trkpt>
      <trkpt lat="42.67389" lon="23.55711">
        <ele>578.215288</ele>
        <time>2022-03-09T10:24:23.417Z</time>
      </trkpt>
      <trkpt lat="42.67388" lon="23.55697">
        <ele>578.198184</ele>
        <time>2022-03-09T10:24:26.413Z</time>
      </trkpt>
      <trkpt lat="42.67387" lon="23.55683">
        <ele>578.181818</ele>
        <time>2022-03-09T10:24:29.442Z</time>
      </trkpt>
      <trkpt lat="42.67386" lon="23.55668">
        <ele>578.165026</ele>
        <time>2022-03-09T10:24:32.420Z</time>
      </trkpt>
      <trkpt lat="42.67385" lon="23.55653">
        <ele>578.147789</ele>
        <time>2022-03-09T10:24:35.448Z</time>
      </trkpt>
      <trkpt lat="42.67382" lon="23.55639">
        <ele>578.131096</ele>
        <time>2022-03-09T10:24:38.405Z</time>
      </trkpt>
      <trkpt lat="42.67381" lon="23.55625">
        <ele>578.113968</ele>
        <time>2022-03-09T10:24:41.460Z</time>
      </trkpt>
      <trkpt lat="42.6738" lon="23.55609">
        <ele>578.096054</ele>
        <time>2022-03-09T10:24:44.413Z</time>
      </trkpt>
      <trkpt lat="42.67378" lon="23.55596">
        <ele>578.07989</ele>
        <time>2022-03-09T10:24:47.419Z</time>
      </trkpt>
      <trkpt lat="42.67377" lon="23.55582">
        <ele>578.064045</ele>
        <time>2022-03-09T10:24:50.420Z</time>
      </trkpt>
      <trkpt lat="42.67376" lon="23.55568">
        <ele>577.782431</ele>
        <time>2022-03-09T10:24:53.416Z</time>
      </trkpt>
      <trkpt lat="42.67375" lon="23.55553">
        <ele>577.468897</ele>
        <time>2022-03-09T10:24:56.406Z</time>
      </trkpt>
      <trkpt lat="42.67374" lon="23.55538">
        <ele>577.156607</ele>
        <time>2022-03-09T10:24:59.430Z</time>
      </trkpt>
      <trkpt lat="42.67374" lon="23.55523">
        <ele>576.851577</ele>
        <time>2022-03-09T10:25:02.428Z</time>
      </trkpt>
      <trkpt lat="42.67373" lon="23.5551">
        <ele>576.578285</ele>
        <time>2022-03-09T10:25:05.407Z</time>
      </trkpt>
      <trkpt lat="42.67372" lon="23.55496">
        <ele>576.295382</ele>
        <time>2022-03-09T10:25:08.429Z</time>
      </trkpt>
      <trkpt lat="42.6737" lon="23.55483">
        <ele>576.019351</ele>
        <time>2022-03-09T10:25:11.408Z</time>
      </trkpt>
      <trkpt lat="42.67369" lon="23.5547">
        <ele>575.748402</ele>
        <time>2022-03-09T10:25:14.419Z</time>
      </trkpt>
      <trkpt lat="42.67369" lon="23.55457">
        <ele>575.483651</ele>
        <time>2022-03-09T10:25:17.418Z</time>
      </trkpt>
      <trkpt lat="42.67367" lon="23.55445">
        <ele>575.218325</ele>
        <time>2022-03-09T10:25:20.452Z</time>
      </trkpt>
      <trkpt lat="42.67365" lon="23.55431">
        <ele>574.929541</ele>
        <time>2022-03-09T10:25:23.422Z</time>
      </trkpt>
      <trkpt lat="42.67364" lon="23.55417">
        <ele>574.63055</ele>
        <time>2022-03-09T10:25:26.410Z</time>
      </trkpt>
      <trkpt lat="42.67362" lon="23.55403">
        <ele>574.339568</ele>
        <time>2022-03-09T10:25:29.418Z</time>
      </trkpt>
      <trkpt lat="42.67359" lon="23.55391">
        <ele>574.072188</ele>
        <time>2022-03-09T10:25:32.415Z</time>
      </trkpt>
      <trkpt lat="42.67357" lon="23.55377">
        <ele>573.789341</ele>
        <time>2022-03-09T10:25:35.412Z</time>
      </trkpt>
      <trkpt lat="42.67354" lon="23.55364">
        <ele>573.507031</ele>
        <time>2022-03-09T10:25:38.407Z</time>
      </trkpt>
      <trkpt lat="42.67351" lon="23.55351">
        <ele>573.209591</ele>
        <time>2022-03-09T10:25:41.455Z</time>
      </trkpt>
      <trkpt lat="42.67349" lon="23.55337">
        <ele>572.969887</ele>
        <time>2022-03-09T10:25:44.399Z</time>
      </trkpt>
      <trkpt lat="42.67346" lon="23.55324">
        <ele>572.893765</ele>
        <time>2022-03-09T10:25:47.408Z</time>
      </trkpt>
      <trkpt lat="42.67344" lon="23.5531">
        <ele>572.817644</ele>
        <time>2022-03-09T10:25:50.414Z</time>
      </trkpt>
      <trkpt lat="42.67341" lon="23.55297">
        <ele>572.740461</ele>
        <time>2022-03-09T10:25:53.456Z</time>
      </trkpt>
      <trkpt lat="42.67338" lon="23.55283">
        <ele>572.660931</ele>
        <time>2022-03-09T10:25:56.419Z</time>
      </trkpt>
      <trkpt lat="42.67336" lon="23.55269">
        <ele>572.583217</ele>
        <time>2022-03-09T10:25:59.446Z</time>
      </trkpt>
      <trkpt lat="42.67334" lon="23.55254">
        <ele>572.50376</ele>
        <time>2022-03-09T10:26:02.408Z</time>
      </trkpt>
      <trkpt lat="42.67332" lon="23.5524">
        <ele>572.423489</ele>
        <time>2022-03-09T10:26:05.408Z</time>
      </trkpt>
      <trkpt lat="42.6733" lon="23.55226">
        <ele>572.34658</ele>
        <time>2022-03-09T10:26:08.425Z</time>
      </trkpt>
      <trkpt lat="42.67327" lon="23.55213">
        <ele>572.269742</ele>
        <time>2022-03-09T10:26:11.422Z</time>
      </trkpt>
      <trkpt lat="42.67325" lon="23.55199">
        <ele>572.192906</ele>
        <time>2022-03-09T10:26:14.386Z</time>
      </trkpt>
      <trkpt lat="42.67323" lon="23.55186">
        <ele>572.119214</ele>
        <time>2022-03-09T10:26:17.425Z</time>
      </trkpt>
      <trkpt lat="42.67321" lon="23.55173">
        <ele>572.048402</ele>
        <time>2022-03-09T10:26:20.416Z</time>
      </trkpt>
      <trkpt lat="42.67318" lon="23.5516">
        <ele>571.976318</ele>
        <time>2022-03-09T10:26:23.410Z</time>
      </trkpt>
      <trkpt lat="42.67315" lon="23.55147">
        <ele>571.899325</ele>
        <time>2022-03-09T10:26:27.398Z</time>
      </trkpt>
      <trkpt lat="42.67312" lon="23.55132">
        <ele>571.817147</ele>
        <time>2022-03-09T10:26:31.410Z</time>
      </trkpt>
      <trkpt lat="42.6731" lon="23.5512">
        <ele>571.744567</ele>
        <time>2022-03-09T10:26:34.402Z</time>
      </trkpt>
      <trkpt lat="42.67308" lon="23.55107">
        <ele>571.675522</ele>
        <time>2022-03-09T10:26:37.409Z</time>
      </trkpt>
      <trkpt lat="42.67306" lon="23.55094">
        <ele>571.648853</ele>
        <time>2022-03-09T10:26:40.410Z</time>
      </trkpt>
      <trkpt lat="42.67305" lon="23.55082">
        <ele>571.648819</ele>
        <time>2022-03-09T10:26:43.403Z</time>
      </trkpt>
      <trkpt lat="42.67302" lon="23.55066">
        <ele>571.648776</ele>
        <time>2022-03-09T10:26:47.399Z</time>
      </trkpt>
      <trkpt lat="42.67299" lon="23.55052">
        <ele>571.648736</ele>
        <time>2022-03-09T10:26:51.416Z</time>
      </trkpt>
      <trkpt lat="42.67296" lon="23.55036">
        <ele>571.648692</ele>
        <time>2022-03-09T10:26:55.406Z</time>
      </trkpt>
      <trkpt lat="42.67293" lon="23.55023">
        <ele>571.648655</ele>
        <time>2022-03-09T10:26:58.410Z</time>
      </trkpt>
      <trkpt lat="42.67291" lon="23.5501">
        <ele>571.64862</ele>
        <time>2022-03-09T10:27:01.412Z</time>
      </trkpt>
      <trkpt lat="42.6729" lon="23.54997">
        <ele>571.648585</ele>
        <time>2022-03-09T10:27:04.451Z</time>
      </trkpt>
      <trkpt lat="42.67287" lon="23.54984">
        <ele>571.64855</ele>
        <time>2022-03-09T10:27:07.415Z</time>
      </trkpt>
      <trkpt lat="42.67285" lon="23.54972">
        <ele>571.648515</ele>
        <time>2022-03-09T10:27:10.428Z</time>
      </trkpt>
      <trkpt lat="42.67282" lon="23.5496">
        <ele>571.648482</ele>
        <time>2022-03-09T10:27:13.424Z</time>
      </trkpt>
      <trkpt lat="42.67279" lon="23.54948">
        <ele>571.648448</ele>
        <time>2022-03-09T10:27:16.424Z</time>
      </trkpt>
      <trkpt lat="42.67278" lon="23.54935">
        <ele>571.648414</ele>
        <time>2022-03-09T10:27:19.399Z</time>
      </trkpt>
      <trkpt lat="42.67275" lon="23.54922">
        <ele>571.648378</ele>
        <time>2022-03-09T10:27:22.404Z</time>
      </trkpt>
      <trkpt lat="42.67272" lon="23.5491">
        <ele>571.648344</ele>
        <time>2022-03-09T10:27:25.416Z</time>
      </trkpt>
      <trkpt lat="42.6727" lon="23.54897">
        <ele>571.648309</ele>
        <time>2022-03-09T10:27:28.433Z</time>
      </trkpt>
      <trkpt lat="42.67268" lon="23.54885">
        <ele>571.648274</ele>
        <time>2022-03-09T10:27:31.415Z</time>
      </trkpt>
      <trkpt lat="42.67266" lon="23.54872">
        <ele>571.648239</ele>
        <time>2022-03-09T10:27:34.399Z</time>
      </trkpt>
      <trkpt lat="42.67263" lon="23.54859">
        <ele>571.595424</ele>
        <time>2022-03-09T10:27:37.413Z</time>
      </trkpt>
      <trkpt lat="42.67261" lon="23.54845">
        <ele>571.486209</ele>
        <time>2022-03-09T10:27:40.415Z</time>
      </trkpt>
      <trkpt lat="42.67259" lon="23.54833">
        <ele>571.381654</ele>
        <time>2022-03-09T10:27:43.398Z</time>
      </trkpt>
      <trkpt lat="42.67256" lon="23.54821">
        <ele>571.281555</ele>
        <time>2022-03-09T10:27:46.416Z</time>
      </trkpt>
      <trkpt lat="42.67254" lon="23.54807">
        <ele>571.172013</ele>
        <time>2022-03-09T10:27:49.418Z</time>
      </trkpt>
      <trkpt lat="42.67252" lon="23.54795">
        <ele>571.067608</ele>
        <time>2022-03-09T10:27:52.415Z</time>
      </trkpt>
      <trkpt lat="42.6725" lon="23.54782">
        <ele>570.963331</ele>
        <time>2022-03-09T10:27:55.402Z</time>
      </trkpt>
      <trkpt lat="42.67247" lon="23.5477">
        <ele>570.85983</ele>
        <time>2022-03-09T10:27:58.448Z</time>
      </trkpt>
      <trkpt lat="42.67246" lon="23.54756">
        <ele>570.752276</ele>
        <time>2022-03-09T10:28:01.412Z</time>
      </trkpt>
      <trkpt lat="42.67243" lon="23.54743">
        <ele>570.639447</ele>
        <time>2022-03-09T10:28:04.435Z</time>
      </trkpt>
      <trkpt lat="42.67242" lon="23.54729">
        <ele>570.529429</ele>
        <time>2022-03-09T10:28:07.448Z</time>
      </trkpt>
      <trkpt lat="42.67239" lon="23.54716">
        <ele>570.422824</ele>
        <time>2022-03-09T10:28:10.425Z</time>
      </trkpt>
      <trkpt lat="42.67237" lon="23.54703">
        <ele>570.315442</ele>
        <time>2022-03-09T10:28:13.497Z</time>
      </trkpt>
      <trkpt lat="42.67234" lon="23.54691">
        <ele>570.21567</ele>
        <time>2022-03-09T10:28:16.435Z</time>
      </trkpt>
      <trkpt lat="42.67232" lon="23.54678">
        <ele>570.108987</ele>
        <time>2022-03-09T10:28:19.432Z</time>
      </trkpt>
      <trkpt lat="42.6723" lon="23.54666">
        <ele>570.003586</ele>
        <time>2022-03-09T10:28:22.432Z</time>
      </trkpt>
      <trkpt lat="42.67227" lon="23.54652">
        <ele>569.894649</ele>
        <time>2022-03-09T10:28:25.439Z</time>
      </trkpt>
      <trkpt lat="42.67225" lon="23.54639">
        <ele>569.781562</ele>
        <time>2022-03-09T10:28:28.419Z</time>
      </trkpt>
      <trkpt lat="42.67222" lon="23.54625">
        <ele>569.692415</ele>
        <time>2022-03-09T10:28:31.422Z</time>
      </trkpt>
      <trkpt lat="42.67219" lon="23.54611">
        <ele>569.712217</ele>
        <time>2022-03-09T10:28:34.431Z</time>
      </trkpt>
      <trkpt lat="42.67217" lon="23.54597">
        <ele>569.732384</ele>
        <time>2022-03-09T10:28:37.412Z</time>
      </trkpt>
      <trkpt lat="42.67215" lon="23.54583">
        <ele>569.752632</ele>
        <time>2022-03-09T10:28:40.426Z</time>
      </trkpt>
      <trkpt lat="42.67212" lon="23.5457">
        <ele>569.770756</ele>
        <time>2022-03-09T10:28:43.415Z</time>
      </trkpt>
      <trkpt lat="42.6721" lon="23.54557">
        <ele>569.789792</ele>
        <time>2022-03-09T10:28:46.416Z</time>
      </trkpt>
      <trkpt lat="42.67208" lon="23.54544">
        <ele>569.809232</ele>
        <time>2022-03-09T10:28:49.432Z</time>
      </trkpt>
      <trkpt lat="42.67205" lon="23.54529">
        <ele>569.830102</ele>
        <time>2022-03-09T10:28:52.433Z</time>
      </trkpt>
      <trkpt lat="42.67204" lon="23.54515">
        <ele>569.85035</ele>
        <time>2022-03-09T10:28:55.420Z</time>
      </trkpt>
      <trkpt lat="42.67201" lon="23.54502">
        <ele>569.869733</ele>
        <time>2022-03-09T10:28:58.425Z</time>
      </trkpt>
      <trkpt lat="42.67199" lon="23.54489">
        <ele>569.888327</ele>
        <time>2022-03-09T10:29:01.432Z</time>
      </trkpt>
      <trkpt lat="42.67196" lon="23.54475">
        <ele>569.907948</ele>
        <time>2022-03-09T10:29:04.402Z</time>
      </trkpt>
      <trkpt lat="42.67194" lon="23.54463">
        <ele>569.926032</ele>
        <time>2022-03-09T10:29:07.415Z</time>
      </trkpt>
      <trkpt lat="42.67193" lon="23.5445">
        <ele>569.944141</ele>
        <time>2022-03-09T10:29:10.424Z</time>
      </trkpt>
      <trkpt lat="42.67191" lon="23.54438">
        <ele>569.961499</ele>
        <time>2022-03-09T10:29:13.410Z</time>
      </trkpt>
      <trkpt lat="42.67188" lon="23.54426">
        <ele>569.979373</ele>
        <time>2022-03-09T10:29:16.426Z</time>
      </trkpt>
      <trkpt lat="42.67185" lon="23.54413">
        <ele>569.998376</ele>
        <time>2022-03-09T10:29:19.436Z</time>
      </trkpt>
      <trkpt lat="42.67184" lon="23.544">
        <ele>570.016782</ele>
        <time>2022-03-09T10:29:22.449Z</time>
      </trkpt>
      <trkpt lat="42.67181" lon="23.54386">
        <ele>570.033687</ele>
        <time>2022-03-09T10:29:25.436Z</time>
      </trkpt>
      <trkpt lat="42.67178" lon="23.54373">
        <ele>570.042448</ele>
        <time>2022-03-09T10:29:28.443Z</time>
      </trkpt>
      <trkpt lat="42.67176" lon="23.54359">
        <ele>570.05119</ele>
        <time>2022-03-09T10:29:31.414Z</time>
      </trkpt>
      <trkpt lat="42.67173" lon="23.54346">
        <ele>570.05976</ele>
        <time>2022-03-09T10:29:34.427Z</time>
      </trkpt>
      <trkpt lat="42.67171" lon="23.54333">
        <ele>570.068432</ele>
        <time>2022-03-09T10:29:37.427Z</time>
      </trkpt>
      <trkpt lat="42.67168" lon="23.54319">
        <ele>570.077377</ele>
        <time>2022-03-09T10:29:40.413Z</time>
      </trkpt>
      <trkpt lat="42.67167" lon="23.54305">
        <ele>570.085868</ele>
        <time>2022-03-09T10:29:43.425Z</time>
      </trkpt>
      <trkpt lat="42.67165" lon="23.54293">
        <ele>570.093786</ele>
        <time>2022-03-09T10:29:46.421Z</time>
      </trkpt>
      <trkpt lat="42.67162" lon="23.54277">
        <ele>570.103905</ele>
        <time>2022-03-09T10:29:50.456Z</time>
      </trkpt>
      <trkpt lat="42.6716" lon="23.54265">
        <ele>570.111919</ele>
        <time>2022-03-09T10:29:53.435Z</time>
      </trkpt>
      <trkpt lat="42.67158" lon="23.54252">
        <ele>570.120072</ele>
        <time>2022-03-09T10:29:56.428Z</time>
      </trkpt>
      <trkpt lat="42.67156" lon="23.54239">
        <ele>570.128437</ele>
        <time>2022-03-09T10:29:59.421Z</time>
      </trkpt>
      <trkpt lat="42.67153" lon="23.54226">
        <ele>570.136793</ele>
        <time>2022-03-09T10:30:02.427Z</time>
      </trkpt>
      <trkpt lat="42.67151" lon="23.54213">
        <ele>570.145169</ele>
        <time>2022-03-09T10:30:05.455Z</time>
      </trkpt>
      <trkpt lat="42.67148" lon="23.54201">
        <ele>570.153433</ele>
        <time>2022-03-09T10:30:08.416Z</time>
      </trkpt>
      <trkpt lat="42.67146" lon="23.54189">
        <ele>570.161141</ele>
        <time>2022-03-09T10:30:11.443Z</time>
      </trkpt>
      <trkpt lat="42.67145" lon="23.54176">
        <ele>570.169027</ele>
        <time>2022-03-09T10:30:14.434Z</time>
      </trkpt>
      <trkpt lat="42.67142" lon="23.54164">
        <ele>570.177059</ele>
        <time>2022-03-09T10:30:17.423Z</time>
      </trkpt>
      <trkpt lat="42.67139" lon="23.54151">
        <ele>570.18415</ele>
        <time>2022-03-09T10:30:20.420Z</time>
      </trkpt>
      <trkpt lat="42.67137" lon="23.54136">
        <ele>570.165236</ele>
        <time>2022-03-09T10:30:24.428Z</time>
      </trkpt>
      <trkpt lat="42.67135" lon="23.54124">
        <ele>570.150495</ele>
        <time>2022-03-09T10:30:27.404Z</time>
      </trkpt>
      <trkpt lat="42.67133" lon="23.54111">
        <ele>570.135486</ele>
        <time>2022-03-09T10:30:30.425Z</time>
      </trkpt>
      <trkpt lat="42.67131" lon="23.54099">
        <ele>570.1202</ele>
        <time>2022-03-09T10:30:33.468Z</time>
      </trkpt>
      <trkpt lat="42.67129" lon="23.54086">
        <ele>570.105076</ele>
        <time>2022-03-09T10:30:36.412Z</time>
      </trkpt>
      <trkpt lat="42.67127" lon="23.54073">
        <ele>570.089936</ele>
        <time>2022-03-09T10:30:39.421Z</time>
      </trkpt>
      <trkpt lat="42.67125" lon="23.54061">
        <ele>570.074681</ele>
        <time>2022-03-09T10:30:42.414Z</time>
      </trkpt>
      <trkpt lat="42.67123" lon="23.54048">
        <ele>570.058946</ele>
        <time>2022-03-09T10:30:45.413Z</time>
      </trkpt>
      <trkpt lat="42.6712" lon="23.54035">
        <ele>570.043781</ele>
        <time>2022-03-09T10:30:48.428Z</time>
      </trkpt>
      <trkpt lat="42.67118" lon="23.54023">
        <ele>570.028391</ele>
        <time>2022-03-09T10:30:51.426Z</time>
      </trkpt>
      <trkpt lat="42.67116" lon="23.54009">
        <ele>570.011801</ele>
        <time>2022-03-09T10:30:54.410Z</time>
      </trkpt>
      <trkpt lat="42.67114" lon="23.53995">
        <ele>569.995153</ele>
        <time>2022-03-09T10:30:57.421Z</time>
      </trkpt>
      <trkpt lat="42.67112" lon="23.53982">
        <ele>569.97919</ele>
        <time>2022-03-09T10:31:00.446Z</time>
      </trkpt>
      <trkpt lat="42.67109" lon="23.53969">
        <ele>569.96337</ele>
        <time>2022-03-09T10:31:03.441Z</time>
      </trkpt>
      <trkpt lat="42.67106" lon="23.53957">
        <ele>569.947921</ele>
        <time>2022-03-09T10:31:06.421Z</time>
      </trkpt>
      <trkpt lat="42.67103" lon="23.53944">
        <ele>569.932101</ele>
        <time>2022-03-09T10:31:09.429Z</time>
      </trkpt>
      <trkpt lat="42.67102" lon="23.5393">
        <ele>569.915481</ele>
        <time>2022-03-09T10:31:12.420Z</time>
      </trkpt>
      <trkpt lat="42.671" lon="23.53916">
        <ele>569.898601</ele>
        <time>2022-03-09T10:31:15.423Z</time>
      </trkpt>
      <trkpt lat="42.67097" lon="23.53902">
        <ele>569.985541</ele>
        <time>2022-03-09T10:31:18.430Z</time>
      </trkpt>
      <trkpt lat="42.67095" lon="23.53888">
        <ele>570.088391</ele>
        <time>2022-03-09T10:31:21.432Z</time>
      </trkpt>
      <trkpt lat="42.67092" lon="23.53875">
        <ele>570.186531</ele>
        <time>2022-03-09T10:31:24.408Z</time>
      </trkpt>
      <trkpt lat="42.67089" lon="23.53862">
        <ele>570.285185</ele>
        <time>2022-03-09T10:31:27.475Z</time>
      </trkpt>
      <trkpt lat="42.67086" lon="23.53848">
        <ele>570.387741</ele>
        <time>2022-03-09T10:31:30.413Z</time>
      </trkpt>
      <trkpt lat="42.67084" lon="23.53835">
        <ele>570.490134</ele>
        <time>2022-03-09T10:31:33.433Z</time>
      </trkpt>
      <trkpt lat="42.67082" lon="23.53819">
        <ele>570.605676</ele>
        <time>2022-03-09T10:31:36.434Z</time>
      </trkpt>
      <trkpt lat="42.6708" lon="23.53803">
        <ele>570.720898</ele>
        <time>2022-03-09T10:31:39.432Z</time>
      </trkpt>
      <trkpt lat="42.67078" lon="23.53788">
        <ele>570.831298</ele>
        <time>2022-03-09T10:31:42.412Z</time>
      </trkpt>
      <trkpt lat="42.67075" lon="23.53773">
        <ele>570.94568</ele>
        <time>2022-03-09T10:31:45.438Z</time>
      </trkpt>
      <trkpt lat="42.67073" lon="23.53758">
        <ele>571.056996</ele>
        <time>2022-03-09T10:31:48.420Z</time>
      </trkpt>
      <trkpt lat="42.67071" lon="23.53744">
        <ele>571.158804</ele>
        <time>2022-03-09T10:31:51.429Z</time>
      </trkpt>
      <trkpt lat="42.67068" lon="23.53731">
        <ele>571.261215</ele>
        <time>2022-03-09T10:31:54.417Z</time>
      </trkpt>
      <trkpt lat="42.67065" lon="23.53717">
        <ele>571.362095</ele>
        <time>2022-03-09T10:31:57.444Z</time>
      </trkpt>
      <trkpt lat="42.67061" lon="23.53705">
        <ele>571.457812</ele>
        <time>2022-03-09T10:32:00.469Z</time>
      </trkpt>
      <trkpt lat="42.67058" lon="23.53693">
        <ele>571.549391</ele>
        <time>2022-03-09T10:32:03.397Z</time>
      </trkpt>
      <trkpt lat="42.67055" lon="23.53681">
        <ele>571.644146</ele>
        <time>2022-03-09T10:32:06.427Z</time>
      </trkpt>
      <trkpt lat="42.67054" lon="23.53666">
        <ele>571.767111</ele>
        <time>2022-03-09T10:32:09.417Z</time>
      </trkpt>
      <trkpt lat="42.67052" lon="23.53651">
        <ele>571.894885</ele>
        <time>2022-03-09T10:32:12.395Z</time>
      </trkpt>
      <trkpt lat="42.6705" lon="23.53636">
        <ele>572.028094</ele>
        <time>2022-03-09T10:32:15.421Z</time>
      </trkpt>
      <trkpt lat="42.67047" lon="23.53621">
        <ele>572.152903</ele>
        <time>2022-03-09T10:32:18.420Z</time>
      </trkpt>
      <trkpt lat="42.67045" lon="23.53607">
        <ele>572.278618</ele>
        <time>2022-03-09T10:32:21.418Z</time>
      </trkpt>
      <trkpt lat="42.67042" lon="23.53593">
        <ele>572.404729</ele>
        <time>2022-03-09T10:32:24.408Z</time>
      </trkpt>
      <trkpt lat="42.67039" lon="23.53578">
        <ele>572.538165</ele>
        <time>2022-03-09T10:32:27.468Z</time>
      </trkpt>
      <trkpt lat="42.67037" lon="23.53561">
        <ele>572.683513</ele>
        <time>2022-03-09T10:32:30.443Z</time>
      </trkpt>
      <trkpt lat="42.67036" lon="23.53544">
        <ele>572.824301</ele>
        <time>2022-03-09T10:32:33.420Z</time>
      </trkpt>
      <trkpt lat="42.67032" lon="23.53529">
        <ele>572.957119</ele>
        <time>2022-03-09T10:32:36.422Z</time>
      </trkpt>
      <trkpt lat="42.67028" lon="23.53516">
        <ele>573.08145</ele>
        <time>2022-03-09T10:32:39.416Z</time>
      </trkpt>
      <trkpt lat="42.67025" lon="23.53501">
        <ele>573.210487</ele>
        <time>2022-03-09T10:32:42.426Z</time>
      </trkpt>
      <trkpt lat="42.67023" lon="23.53485">
        <ele>573.348796</ele>
        <time>2022-03-09T10:32:45.428Z</time>
      </trkpt>
      <trkpt lat="42.67021" lon="23.53472">
        <ele>573.464303</ele>
        <time>2022-03-09T10:32:48.427Z</time>
      </trkpt>
      <trkpt lat="42.67019" lon="23.53457">
        <ele>573.588143</ele>
        <time>2022-03-09T10:32:52.434Z</time>
      </trkpt>
      <trkpt lat="42.67018" lon="23.53444">
        <ele>573.698703</ele>
        <time>2022-03-09T10:32:56.447Z</time>
      </trkpt>
      <trkpt lat="42.67014" lon="23.5343">
        <ele>573.701845</ele>
        <time>2022-03-09T10:33:01.435Z</time>
      </trkpt>
      <trkpt lat="42.67013" lon="23.53416">
        <ele>573.629363</ele>
        <time>2022-03-09T10:33:06.409Z</time>
      </trkpt>
      <trkpt lat="42.67011" lon="23.53403">
        <ele>573.567201</ele>
        <time>2022-03-09T10:33:11.442Z</time>
      </trkpt>
      <trkpt lat="42.67008" lon="23.5339">
        <ele>573.500795</ele>
        <time>2022-03-09T10:33:17.418Z</time>
      </trkpt>
      <trkpt lat="42.67004" lon="23.53377">
        <ele>573.429173</ele>
        <time>2022-03-09T10:33:23.406Z</time>
      </trkpt>
      <trkpt lat="42.67003" lon="23.53363">
        <ele>573.363287</ele>
        <time>2022-03-09T10:33:27.422Z</time>
      </trkpt>
      <trkpt lat="42.67002" lon="23.5335">
        <ele>573.298788</ele>
        <time>2022-03-09T10:33:31.418Z</time>
      </trkpt>
      <trkpt lat="42.66999" lon="23.53338">
        <ele>573.235124</ele>
        <time>2022-03-09T10:33:35.417Z</time>
      </trkpt>
      <trkpt lat="42.66997" lon="23.53323">
        <ele>573.159737</ele>
        <time>2022-03-09T10:33:39.415Z</time>
      </trkpt>
      <trkpt lat="42.66994" lon="23.5331">
        <ele>573.091159</ele>
        <time>2022-03-09T10:33:42.421Z</time>
      </trkpt>
      <trkpt lat="42.6699" lon="23.53294">
        <ele>573.007243</ele>
        <time>2022-03-09T10:33:45.473Z</time>
      </trkpt>
      <trkpt lat="42.66988" lon="23.5328">
        <ele>572.939931</ele>
        <time>2022-03-09T10:33:47.428Z</time>
      </trkpt>
      <trkpt lat="42.66985" lon="23.53266">
        <ele>572.865653</ele>
        <time>2022-03-09T10:33:49.446Z</time>
      </trkpt>
      <trkpt lat="42.66982" lon="23.53251">
        <ele>572.791679</ele>
        <time>2022-03-09T10:33:51.407Z</time>
      </trkpt>
      <trkpt lat="42.66981" lon="23.53238">
        <ele>572.724952</ele>
        <time>2022-03-09T10:33:53.414Z</time>
      </trkpt>
      <trkpt lat="42.66984" lon="23.53221">
        <ele>572.640299</ele>
        <time>2022-03-09T10:33:56.418Z</time>
      </trkpt>
      <trkpt lat="42.66989" lon="23.53211">
        <ele>572.579128</ele>
        <time>2022-03-09T10:33:58.411Z</time>
      </trkpt>
      <trkpt lat="42.66994" lon="23.53198">
        <ele>572.674533</ele>
        <time>2022-03-09T10:34:00.409Z</time>
      </trkpt>
      <trkpt lat="42.66999" lon="23.53186">
        <ele>572.924644</ele>
        <time>2022-03-09T10:34:02.395Z</time>
      </trkpt>
      <trkpt lat="42.67005" lon="23.53171">
        <ele>573.237094</ele>
        <time>2022-03-09T10:34:05.395Z</time>
      </trkpt>
      <trkpt lat="42.6701" lon="23.53156">
        <ele>573.523495</ele>
        <time>2022-03-09T10:34:08.439Z</time>
      </trkpt>
      <trkpt lat="42.67013" lon="23.53144">
        <ele>573.755403</ele>
        <time>2022-03-09T10:34:11.406Z</time>
      </trkpt>
      <trkpt lat="42.67016" lon="23.53129">
        <ele>574.039994</ele>
        <time>2022-03-09T10:34:14.439Z</time>
      </trkpt>
      <trkpt lat="42.67019" lon="23.53114">
        <ele>574.313532</ele>
        <time>2022-03-09T10:34:17.430Z</time>
      </trkpt>
      <trkpt lat="42.67022" lon="23.53101">
        <ele>574.573271</ele>
        <time>2022-03-09T10:34:20.419Z</time>
      </trkpt>
      <trkpt lat="42.67024" lon="23.53086">
        <ele>574.843335</ele>
        <time>2022-03-09T10:34:23.406Z</time>
      </trkpt>
      <trkpt lat="42.67027" lon="23.53071">
        <ele>575.118558</ele>
        <time>2022-03-09T10:34:26.412Z</time>
      </trkpt>
      <trkpt lat="42.67029" lon="23.53057">
        <ele>575.382093</ele>
        <time>2022-03-09T10:34:29.428Z</time>
      </trkpt>
      <trkpt lat="42.67032" lon="23.53044">
        <ele>575.631987</ele>
        <time>2022-03-09T10:34:32.400Z</time>
      </trkpt>
      <trkpt lat="42.67036" lon="23.5303">
        <ele>575.900379</ele>
        <time>2022-03-09T10:34:35.427Z</time>
      </trkpt>
      <trkpt lat="42.6704" lon="23.53017">
        <ele>576.157682</ele>
        <time>2022-03-09T10:34:38.431Z</time>
      </trkpt>
      <trkpt lat="42.67043" lon="23.53">
        <ele>576.467959</ele>
        <time>2022-03-09T10:34:41.424Z</time>
      </trkpt>
      <trkpt lat="42.67047" lon="23.52985">
        <ele>576.75241</ele>
        <time>2022-03-09T10:34:44.409Z</time>
      </trkpt>
      <trkpt lat="42.67051" lon="23.52973">
        <ele>576.996773</ele>
        <time>2022-03-09T10:34:47.419Z</time>
      </trkpt>
      <trkpt lat="42.67055" lon="23.5296">
        <ele>577.217492</ele>
        <time>2022-03-09T10:34:50.409Z</time>
      </trkpt>
      <trkpt lat="42.67057" lon="23.52947">
        <ele>577.428686</ele>
        <time>2022-03-09T10:34:53.402Z</time>
      </trkpt>
      <trkpt lat="42.67059" lon="23.52934">
        <ele>577.641373</ele>
        <time>2022-03-09T10:34:56.399Z</time>
      </trkpt>
      <trkpt lat="42.6706" lon="23.52921">
        <ele>577.855141</ele>
        <time>2022-03-09T10:34:59.408Z</time>
      </trkpt>
      <trkpt lat="42.67062" lon="23.52906">
        <ele>578.106098</ele>
        <time>2022-03-09T10:35:02.445Z</time>
      </trkpt>
      <trkpt lat="42.67065" lon="23.52892">
        <ele>578.333406</ele>
        <time>2022-03-09T10:35:05.420Z</time>
      </trkpt>
      <trkpt lat="42.67065" lon="23.52878">
        <ele>578.567323</ele>
        <time>2022-03-09T10:35:08.459Z</time>
      </trkpt>
      <trkpt lat="42.67067" lon="23.52863">
        <ele>578.803035</ele>
        <time>2022-03-09T10:35:11.416Z</time>
      </trkpt>
      <trkpt lat="42.67068" lon="23.52848">
        <ele>579.046905</ele>
        <time>2022-03-09T10:35:14.433Z</time>
      </trkpt>
      <trkpt lat="42.67068" lon="23.52835">
        <ele>579.254575</ele>
        <time>2022-03-09T10:35:17.460Z</time>
      </trkpt>
      <trkpt lat="42.67067" lon="23.52823">
        <ele>579.453009</ele>
        <time>2022-03-09T10:35:20.412Z</time>
      </trkpt>
      <trkpt lat="42.67066" lon="23.52807">
        <ele>579.705282</ele>
        <time>2022-03-09T10:35:24.388Z</time>
      </trkpt>
      <trkpt lat="42.67065" lon="23.52791">
        <ele>579.965375</ele>
        <time>2022-03-09T10:35:28.420Z</time>
      </trkpt>
      <trkpt lat="42.67065" lon="23.52775">
        <ele>580.231561</ele>
        <time>2022-03-09T10:35:32.401Z</time>
      </trkpt>
      <trkpt lat="42.67065" lon="23.52762">
        <ele>580.434389</ele>
        <time>2022-03-09T10:35:35.415Z</time>
      </trkpt>
      <trkpt lat="42.67065" lon="23.52749">
        <ele>580.643657</ele>
        <time>2022-03-09T10:35:38.410Z</time>
      </trkpt>
      <trkpt lat="42.67065" lon="23.52736">
        <ele>580.852971</ele>
        <time>2022-03-09T10:35:41.404Z</time>
      </trkpt>
      <trkpt lat="42.67068" lon="23.52721">
        <ele>580.806499</ele>
        <time>2022-03-09T10:35:45.408Z</time>
      </trkpt>
      <trkpt lat="42.67075" lon="23.52709">
        <ele>580.684122</ele>
        <time>2022-03-09T10:35:48.414Z</time>
      </trkpt>
      <trkpt lat="42.67082" lon="23.52696">
        <ele>580.549801</ele>
        <time>2022-03-09T10:35:51.414Z</time>
      </trkpt>
      <trkpt lat="42.67091" lon="23.52685">
        <ele>580.420994</ele>
        <time>2022-03-09T10:35:54.402Z</time>
      </trkpt>
      <trkpt lat="42.67099" lon="23.52675">
        <ele>580.295226</ele>
        <time>2022-03-09T10:35:57.428Z</time>
      </trkpt>
      <trkpt lat="42.67106" lon="23.52664">
        <ele>580.178066</ele>
        <time>2022-03-09T10:36:00.426Z</time>
      </trkpt>
      <trkpt lat="42.67115" lon="23.52654">
        <ele>580.051977</ele>
        <time>2022-03-09T10:36:03.401Z</time>
      </trkpt>
      <trkpt lat="42.67122" lon="23.52641">
        <ele>579.917771</ele>
        <time>2022-03-09T10:36:06.429Z</time>
      </trkpt>
      <trkpt lat="42.67129" lon="23.52626">
        <ele>579.77636</ele>
        <time>2022-03-09T10:36:09.446Z</time>
      </trkpt>
      <trkpt lat="42.67133" lon="23.52611">
        <ele>579.644679</ele>
        <time>2022-03-09T10:36:12.413Z</time>
      </trkpt>
      <trkpt lat="42.67137" lon="23.52598">
        <ele>579.537179</ele>
        <time>2022-03-09T10:36:15.427Z</time>
      </trkpt>
      <trkpt lat="42.6714" lon="23.52586">
        <ele>579.42968</ele>
        <time>2022-03-09T10:36:18.408Z</time>
      </trkpt>
      <trkpt lat="42.67142" lon="23.52573">
        <ele>579.323181</ele>
        <time>2022-03-09T10:36:21.427Z</time>
      </trkpt>
      <trkpt lat="42.67145" lon="23.5256">
        <ele>579.213261</ele>
        <time>2022-03-09T10:36:24.444Z</time>
      </trkpt>
      <trkpt lat="42.67148" lon="23.52548">
        <ele>579.11032</ele>
        <time>2022-03-09T10:36:27.408Z</time>
      </trkpt>
      <trkpt lat="42.67151" lon="23.52536">
        <ele>579.00271</ele>
        <time>2022-03-09T10:36:30.402Z</time>
      </trkpt>
      <trkpt lat="42.67156" lon="23.52521">
        <ele>578.997648</ele>
        <time>2022-03-09T10:36:33.423Z</time>
      </trkpt>
      <trkpt lat="42.67157" lon="23.52509">
        <ele>579.170967</ele>
        <time>2022-03-09T10:36:35.433Z</time>
      </trkpt>
      <trkpt lat="42.67151" lon="23.52499">
        <ele>579.346918</ele>
        <time>2022-03-09T10:36:39.402Z</time>
      </trkpt>
      <trkpt lat="42.67144" lon="23.52508">
        <ele>579.533756</ele>
        <time>2022-03-09T10:36:44.391Z</time>
      </trkpt>
      <trkpt lat="42.67134" lon="23.52515">
        <ele>579.750079</ele>
        <time>2022-03-09T10:36:49.392Z</time>
      </trkpt>
      <trkpt lat="42.67125" lon="23.52509">
        <ele>579.931486</ele>
        <time>2022-03-09T10:36:53.458Z</time>
      </trkpt>
      <trkpt lat="42.67117" lon="23.52503">
        <ele>580.118558</ele>
        <time>2022-03-09T10:36:57.410Z</time>
      </trkpt>
      <trkpt lat="42.67108" lon="23.52498">
        <ele>580.298235</ele>
        <time>2022-03-09T10:37:01.522Z</time>
      </trkpt>
      <trkpt lat="42.67098" lon="23.5249">
        <ele>580.520225</ele>
        <time>2022-03-09T10:37:05.428Z</time>
      </trkpt>
      <trkpt lat="42.67089" lon="23.52481">
        <ele>580.728498</ele>
        <time>2022-03-09T10:37:09.396Z</time>
      </trkpt>
      <trkpt lat="42.67081" lon="23.52474">
        <ele>580.928272</ele>
        <time>2022-03-09T10:37:14.404Z</time>
      </trkpt>
      <trkpt lat="42.67072" lon="23.52466">
        <ele>581.131808</ele>
        <time>2022-03-09T10:37:19.404Z</time>
      </trkpt>
      <trkpt lat="42.67064" lon="23.52459">
        <ele>581.314106</ele>
        <time>2022-03-09T10:37:23.408Z</time>
      </trkpt>
      <trkpt lat="42.67055" lon="23.52452">
        <ele>581.497307</ele>
        <time>2022-03-09T10:37:27.449Z</time>
      </trkpt>
      <trkpt lat="42.67047" lon="23.52444">
        <ele>581.702458</ele>
        <time>2022-03-09T10:37:32.418Z</time>
      </trkpt>
      <trkpt lat="42.67039" lon="23.52437">
        <ele>581.881861</ele>
        <time>2022-03-09T10:37:35.455Z</time>
      </trkpt>
      <trkpt lat="42.6703" lon="23.52434">
        <ele>582.057465</ele>
        <time>2022-03-09T10:37:38.405Z</time>
      </trkpt>
      <trkpt lat="42.6702" lon="23.52428">
        <ele>582.256442</ele>
        <time>2022-03-09T10:37:42.400Z</time>
      </trkpt>
      <trkpt lat="42.67029" lon="23.52436">
        <ele>582.328589</ele>
        <time>2022-03-09T10:37:56.399Z</time>
      </trkpt>
      <trkpt lat="42.67039" lon="23.52444">
        <ele>582.239727</ele>
        <time>2022-03-09T10:38:00.423Z</time>
      </trkpt>
      <trkpt lat="42.67048" lon="23.5245">
        <ele>582.167627</ele>
        <time>2022-03-09T10:38:03.408Z</time>
      </trkpt>
      <trkpt lat="42.67057" lon="23.52455">
        <ele>582.098474</ele>
        <time>2022-03-09T10:38:06.413Z</time>
      </trkpt>
      <trkpt lat="42.67067" lon="23.52459">
        <ele>582.023205</ele>
        <time>2022-03-09T10:38:09.408Z</time>
      </trkpt>
      <trkpt lat="42.67076" lon="23.52468">
        <ele>581.941838</ele>
        <time>2022-03-09T10:38:13.391Z</time>
      </trkpt>
      <trkpt lat="42.67084" lon="23.52476">
        <ele>581.87021</ele>
        <time>2022-03-09T10:38:16.449Z</time>
      </trkpt>
      <trkpt lat="42.67094" lon="23.52482">
        <ele>581.789745</ele>
        <time>2022-03-09T10:38:19.400Z</time>
      </trkpt>
      <trkpt lat="42.67103" lon="23.5249">
        <ele>581.709195</ele>
        <time>2022-03-09T10:38:22.401Z</time>
      </trkpt>
      <trkpt lat="42.67111" lon="23.52497">
        <ele>581.640295</ele>
        <time>2022-03-09T10:38:25.394Z</time>
      </trkpt>
      <trkpt lat="42.67119" lon="23.52504">
        <ele>581.567979</ele>
        <time>2022-03-09T10:38:28.418Z</time>
      </trkpt>
      <trkpt lat="42.67129" lon="23.52511">
        <ele>581.484667</ele>
        <time>2022-03-09T10:38:31.389Z</time>
      </trkpt>
      <trkpt lat="42.6714" lon="23.52512">
        <ele>581.400899</ele>
        <time>2022-03-09T10:38:34.415Z</time>
      </trkpt>
      <trkpt lat="42.67151" lon="23.52505">
        <ele>581.316376</ele>
        <time>2022-03-09T10:38:38.399Z</time>
      </trkpt>
      <trkpt lat="42.67161" lon="23.52502">
        <ele>581.238446</ele>
        <time>2022-03-09T10:38:41.397Z</time>
      </trkpt>
      <trkpt lat="42.67169" lon="23.52493">
        <ele>581.165213</ele>
        <time>2022-03-09T10:38:44.403Z</time>
      </trkpt>
      <trkpt lat="42.67172" lon="23.52481">
        <ele>581.094796</ele>
        <time>2022-03-09T10:38:47.400Z</time>
      </trkpt>
      <trkpt lat="42.67177" lon="23.52468">
        <ele>580.904429</ele>
        <time>2022-03-09T10:38:50.409Z</time>
      </trkpt>
      <trkpt lat="42.67185" lon="23.52456">
        <ele>580.476526</ele>
        <time>2022-03-09T10:38:53.408Z</time>
      </trkpt>
      <trkpt lat="42.67192" lon="23.52444">
        <ele>580.060062</ele>
        <time>2022-03-09T10:38:56.397Z</time>
      </trkpt>
      <trkpt lat="42.67199" lon="23.52432">
        <ele>579.653811</ele>
        <time>2022-03-09T10:38:59.410Z</time>
      </trkpt>
      <trkpt lat="42.67207" lon="23.52421">
        <ele>579.251175</ele>
        <time>2022-03-09T10:39:02.391Z</time>
      </trkpt>
      <trkpt lat="42.67213" lon="23.5241">
        <ele>578.86072</ele>
        <time>2022-03-09T10:39:05.407Z</time>
      </trkpt>
      <trkpt lat="42.6722" lon="23.52398">
        <ele>578.472733</ele>
        <time>2022-03-09T10:39:08.412Z</time>
      </trkpt>
      <trkpt lat="42.67228" lon="23.52389">
        <ele>578.097374</ele>
        <time>2022-03-09T10:39:11.397Z</time>
      </trkpt>
      <trkpt lat="42.67236" lon="23.52379">
        <ele>577.689321</ele>
        <time>2022-03-09T10:39:14.433Z</time>
      </trkpt>
      <trkpt lat="42.67243" lon="23.52369">
        <ele>577.316232</ele>
        <time>2022-03-09T10:39:17.412Z</time>
      </trkpt>
      <trkpt lat="42.67251" lon="23.52357">
        <ele>576.898057</ele>
        <time>2022-03-09T10:39:20.391Z</time>
      </trkpt>
      <trkpt lat="42.6726" lon="23.52348">
        <ele>576.486606</ele>
        <time>2022-03-09T10:39:23.416Z</time>
      </trkpt>
      <trkpt lat="42.67269" lon="23.52338">
        <ele>576.069409</ele>
        <time>2022-03-09T10:39:26.407Z</time>
      </trkpt>
      <trkpt lat="42.67278" lon="23.52329">
        <ele>575.6477</ele>
        <time>2022-03-09T10:39:29.418Z</time>
      </trkpt>
      <trkpt lat="42.67286" lon="23.5232">
        <ele>575.271826</ele>
        <time>2022-03-09T10:39:32.396Z</time>
      </trkpt>
      <trkpt lat="42.67294" lon="23.52313">
        <ele>574.934989</ele>
        <time>2022-03-09T10:39:35.388Z</time>
      </trkpt>
      <trkpt lat="42.67305" lon="23.52304">
        <ele>574.50933</ele>
        <time>2022-03-09T10:39:38.397Z</time>
      </trkpt>
      <trkpt lat="42.67316" lon="23.52295">
        <ele>574.657345</ele>
        <time>2022-03-09T10:39:41.405Z</time>
      </trkpt>
      <trkpt lat="42.67328" lon="23.52288">
        <ele>574.808169</ele>
        <time>2022-03-09T10:39:44.409Z</time>
      </trkpt>
      <trkpt lat="42.67339" lon="23.52283">
        <ele>574.947843</ele>
        <time>2022-03-09T10:39:47.447Z</time>
      </trkpt>
      <trkpt lat="42.67351" lon="23.5228">
        <ele>575.08385</ele>
        <time>2022-03-09T10:39:50.397Z</time>
      </trkpt>
      <trkpt lat="42.67363" lon="23.52277">
        <ele>575.221072</ele>
        <time>2022-03-09T10:39:53.402Z</time>
      </trkpt>
      <trkpt lat="42.67375" lon="23.52274">
        <ele>575.361121</ele>
        <time>2022-03-09T10:39:56.437Z</time>
      </trkpt>
      <trkpt lat="42.67386" lon="23.52271">
        <ele>575.497884</ele>
        <time>2022-03-09T10:39:59.400Z</time>
      </trkpt>
      <trkpt lat="42.67397" lon="23.52269">
        <ele>575.626532</ele>
        <time>2022-03-09T10:40:02.409Z</time>
      </trkpt>
      <trkpt lat="42.67409" lon="23.52266">
        <ele>575.759899</ele>
        <time>2022-03-09T10:40:05.419Z</time>
      </trkpt>
      <trkpt lat="42.6742" lon="23.52264">
        <ele>575.888726</ele>
        <time>2022-03-09T10:40:08.437Z</time>
      </trkpt>
      <trkpt lat="42.67431" lon="23.5226">
        <ele>576.020647</ele>
        <time>2022-03-09T10:40:11.384Z</time>
      </trkpt>
      <trkpt lat="42.67441" lon="23.52257">
        <ele>576.1401</ele>
        <time>2022-03-09T10:40:14.438Z</time>
      </trkpt>
      <trkpt lat="42.67453" lon="23.52255">
        <ele>576.27446</ele>
        <time>2022-03-09T10:40:17.398Z</time>
      </trkpt>
      <trkpt lat="42.67464" lon="23.52251">
        <ele>576.414963</ele>
        <time>2022-03-09T10:40:20.444Z</time>
      </trkpt>
      <trkpt lat="42.67476" lon="23.52247">
        <ele>576.556967</ele>
        <time>2022-03-09T10:40:23.407Z</time>
      </trkpt>
      <trkpt lat="42.67487" lon="23.52244">
        <ele>576.548611</ele>
        <time>2022-03-09T10:40:26.407Z</time>
      </trkpt>
      <trkpt lat="42.67497" lon="23.52242">
        <ele>576.520694</ele>
        <time>2022-03-09T10:40:29.396Z</time>
      </trkpt>
      <trkpt lat="42.67507" lon="23.5224">
        <ele>576.493352</ele>
        <time>2022-03-09T10:40:32.407Z</time>
      </trkpt>
      <trkpt lat="42.67518" lon="23.52237">
        <ele>576.463465</ele>
        <time>2022-03-09T10:40:35.406Z</time>
      </trkpt>
      <trkpt lat="42.67529" lon="23.52234">
        <ele>576.432856</ele>
        <time>2022-03-09T10:40:38.398Z</time>
      </trkpt>
      <trkpt lat="42.67538" lon="23.52231">
        <ele>576.405616</ele>
        <time>2022-03-09T10:40:41.395Z</time>
      </trkpt>
      <trkpt lat="42.67548" lon="23.52228">
        <ele>576.376627</ele>
        <time>2022-03-09T10:40:44.401Z</time>
      </trkpt>
      <trkpt lat="42.67559" lon="23.52227">
        <ele>576.347257</ele>
        <time>2022-03-09T10:40:47.404Z</time>
      </trkpt>
      <trkpt lat="42.6757" lon="23.52225">
        <ele>576.315966</ele>
        <time>2022-03-09T10:40:50.416Z</time>
      </trkpt>
      <trkpt lat="42.67582" lon="23.52223">
        <ele>576.282509</ele>
        <time>2022-03-09T10:40:53.458Z</time>
      </trkpt>
      <trkpt lat="42.67594" lon="23.5222">
        <ele>576.250817</ele>
        <time>2022-03-09T10:40:56.390Z</time>
      </trkpt>
      <trkpt lat="42.67605" lon="23.52217">
        <ele>576.218584</ele>
        <time>2022-03-09T10:40:59.443Z</time>
      </trkpt>
      <trkpt lat="42.67616" lon="23.52215">
        <ele>576.187698</ele>
        <time>2022-03-09T10:41:02.394Z</time>
      </trkpt>
      <trkpt lat="42.67628" lon="23.52212">
        <ele>576.155697</ele>
        <time>2022-03-09T10:41:05.409Z</time>
      </trkpt>
      <trkpt lat="42.67639" lon="23.52208">
        <ele>576.122907</ele>
        <time>2022-03-09T10:41:08.389Z</time>
      </trkpt>
      <trkpt lat="42.6765" lon="23.52205">
        <ele>576.093068</ele>
        <time>2022-03-09T10:41:11.407Z</time>
      </trkpt>
      <trkpt lat="42.67662" lon="23.52202">
        <ele>576.048536</ele>
        <time>2022-03-09T10:41:14.405Z</time>
      </trkpt>
      <trkpt lat="42.67674" lon="23.52199">
        <ele>575.997378</ele>
        <time>2022-03-09T10:41:17.401Z</time>
      </trkpt>
      <trkpt lat="42.67685" lon="23.52198">
        <ele>575.949519</ele>
        <time>2022-03-09T10:41:20.399Z</time>
      </trkpt>
      <trkpt lat="42.67696" lon="23.52195">
        <ele>575.901332</ele>
        <time>2022-03-09T10:41:23.414Z</time>
      </trkpt>
      <trkpt lat="42.67709" lon="23.52192">
        <ele>575.846516</ele>
        <time>2022-03-09T10:41:26.396Z</time>
      </trkpt>
      <trkpt lat="42.6772" lon="23.52189">
        <ele>575.797973</ele>
        <time>2022-03-09T10:41:29.398Z</time>
      </trkpt>
      <trkpt lat="42.67731" lon="23.52187">
        <ele>575.748817</ele>
        <time>2022-03-09T10:41:32.430Z</time>
      </trkpt>
      <trkpt lat="42.67742" lon="23.52185">
        <ele>575.702002</ele>
        <time>2022-03-09T10:41:35.390Z</time>
      </trkpt>
      <trkpt lat="42.67753" lon="23.52183">
        <ele>575.657291</ele>
        <time>2022-03-09T10:41:38.408Z</time>
      </trkpt>
      <trkpt lat="42.67764" lon="23.5218">
        <ele>575.60959</ele>
        <time>2022-03-09T10:41:41.402Z</time>
      </trkpt>
      <trkpt lat="42.67774" lon="23.52179">
        <ele>575.565961</ele>
        <time>2022-03-09T10:41:44.407Z</time>
      </trkpt>
      <trkpt lat="42.67785" lon="23.52177">
        <ele>575.517325</ele>
        <time>2022-03-09T10:41:47.399Z</time>
      </trkpt>
      <trkpt lat="42.67797" lon="23.52173">
        <ele>575.467053</ele>
        <time>2022-03-09T10:41:50.418Z</time>
      </trkpt>
      <trkpt lat="42.67807" lon="23.52171">
        <ele>575.423603</ele>
        <time>2022-03-09T10:41:53.398Z</time>
      </trkpt>
      <trkpt lat="42.67817" lon="23.52168">
        <ele>575.381644</ele>
        <time>2022-03-09T10:41:56.411Z</time>
      </trkpt>
      <trkpt lat="42.67827" lon="23.52165">
        <ele>575.336008</ele>
        <time>2022-03-09T10:41:59.429Z</time>
      </trkpt>
      <trkpt lat="42.67838" lon="23.52163">
        <ele>575.297724</ele>
        <time>2022-03-09T10:42:02.398Z</time>
      </trkpt>
      <trkpt lat="42.67849" lon="23.5216">
        <ele>575.262287</ele>
        <time>2022-03-09T10:42:05.398Z</time>
      </trkpt>
      <trkpt lat="42.67859" lon="23.52157">
        <ele>575.232115</ele>
        <time>2022-03-09T10:42:08.402Z</time>
      </trkpt>
      <trkpt lat="42.67869" lon="23.52156">
        <ele>575.202741</ele>
        <time>2022-03-09T10:42:11.400Z</time>
      </trkpt>
      <trkpt lat="42.6788" lon="23.52154">
        <ele>575.170952</ele>
        <time>2022-03-09T10:42:14.393Z</time>
      </trkpt>
      <trkpt lat="42.6789" lon="23.52153">
        <ele>575.142101</ele>
        <time>2022-03-09T10:42:17.418Z</time>
      </trkpt>
      <trkpt lat="42.679" lon="23.52152">
        <ele>575.112414</ele>
        <time>2022-03-09T10:42:21.432Z</time>
      </trkpt>
      <trkpt lat="42.6791" lon="23.5215">
        <ele>575.083159</ele>
        <time>2022-03-09T10:42:25.401Z</time>
      </trkpt>
      <trkpt lat="42.67919" lon="23.52147">
        <ele>575.05377</ele>
        <time>2022-03-09T10:42:30.409Z</time>
      </trkpt>
      <trkpt lat="42.67929" lon="23.52145">
        <ele>575.024465</ele>
        <time>2022-03-09T10:42:35.412Z</time>
      </trkpt>
      <trkpt lat="42.67938" lon="23.52142">
        <ele>574.997361</ele>
        <time>2022-03-09T10:42:39.412Z</time>
      </trkpt>
      <trkpt lat="42.67949" lon="23.5214">
        <ele>574.96553</ele>
        <time>2022-03-09T10:42:43.393Z</time>
      </trkpt>
      <trkpt lat="42.6796" lon="23.52136">
        <ele>574.932432</ele>
        <time>2022-03-09T10:42:46.428Z</time>
      </trkpt>
      <trkpt lat="42.67968" lon="23.52134">
        <ele>574.905659</ele>
        <time>2022-03-09T10:42:48.413Z</time>
      </trkpt>
      <trkpt lat="42.67979" lon="23.52131">
        <ele>574.873498</ele>
        <time>2022-03-09T10:42:50.401Z</time>
      </trkpt>
      <trkpt lat="42.6799" lon="23.52128">
        <ele>574.840833</ele>
        <time>2022-03-09T10:42:52.445Z</time>
      </trkpt>
      <trkpt lat="42.68001" lon="23.52124">
        <ele>574.806784</ele>
        <time>2022-03-09T10:42:54.454Z</time>
      </trkpt>
      <trkpt lat="42.68011" lon="23.5212">
        <ele>574.746142</ele>
        <time>2022-03-09T10:42:56.398Z</time>
      </trkpt>
      <trkpt lat="42.68021" lon="23.52115">
        <ele>574.601869</ele>
        <time>2022-03-09T10:42:58.404Z</time>
      </trkpt>
      <trkpt lat="42.6803" lon="23.52109">
        <ele>574.454576</ele>
        <time>2022-03-09T10:43:00.417Z</time>
      </trkpt>
      <trkpt lat="42.68037" lon="23.52101">
        <ele>574.320851</ele>
        <time>2022-03-09T10:43:02.397Z</time>
      </trkpt>
      <trkpt lat="42.68044" lon="23.52093">
        <ele>574.191366</ele>
        <time>2022-03-09T10:43:04.399Z</time>
      </trkpt>
      <trkpt lat="42.68051" lon="23.52081">
        <ele>574.027409</ele>
        <time>2022-03-09T10:43:07.404Z</time>
      </trkpt>
      <trkpt lat="42.68056" lon="23.52068">
        <ele>573.871309</ele>
        <time>2022-03-09T10:43:10.403Z</time>
      </trkpt>
      <trkpt lat="42.68061" lon="23.52052">
        <ele>573.696363</ele>
        <time>2022-03-09T10:43:13.417Z</time>
      </trkpt>
      <trkpt lat="42.68066" lon="23.52036">
        <ele>573.506243</ele>
        <time>2022-03-09T10:43:16.454Z</time>
      </trkpt>
      <trkpt lat="42.6807" lon="23.52021">
        <ele>573.334671</ele>
        <time>2022-03-09T10:43:19.402Z</time>
      </trkpt>
      <trkpt lat="42.68075" lon="23.52005">
        <ele>573.151925</ele>
        <time>2022-03-09T10:43:22.388Z</time>
      </trkpt>
      <trkpt lat="42.68081" lon="23.51989">
        <ele>572.96666</ele>
        <time>2022-03-09T10:43:25.399Z</time>
      </trkpt>
      <trkpt lat="42.68087" lon="23.51973">
        <ele>572.779268</ele>
        <time>2022-03-09T10:43:28.417Z</time>
      </trkpt>
      <trkpt lat="42.68092" lon="23.51958">
        <ele>572.594779</ele>
        <time>2022-03-09T10:43:31.389Z</time>
      </trkpt>
      <trkpt lat="42.68096" lon="23.51946">
        <ele>572.463945</ele>
        <time>2022-03-09T10:43:33.407Z</time>
      </trkpt>
      <trkpt lat="42.68101" lon="23.5193">
        <ele>572.276891</ele>
        <time>2022-03-09T10:43:36.399Z</time>
      </trkpt>
      <trkpt lat="42.68105" lon="23.51919">
        <ele>572.167635</ele>
        <time>2022-03-09T10:43:38.409Z</time>
      </trkpt>
      <trkpt lat="42.68109" lon="23.51908">
        <ele>572.097721</ele>
        <time>2022-03-09T10:43:40.410Z</time>
      </trkpt>
      <trkpt lat="42.68115" lon="23.51894">
        <ele>572.004726</ele>
        <time>2022-03-09T10:43:43.405Z</time>
      </trkpt>
      <trkpt lat="42.6812" lon="23.51879">
        <ele>571.911771</ele>
        <time>2022-03-09T10:43:46.389Z</time>
      </trkpt>
      <trkpt lat="42.68125" lon="23.51865">
        <ele>571.821631</ele>
        <time>2022-03-09T10:43:49.399Z</time>
      </trkpt>
      <trkpt lat="42.68131" lon="23.51852">
        <ele>571.737292</ele>
        <time>2022-03-09T10:43:52.402Z</time>
      </trkpt>
      <trkpt lat="42.68136" lon="23.51837">
        <ele>571.645158</ele>
        <time>2022-03-09T10:43:55.409Z</time>
      </trkpt>
      <trkpt lat="42.68142" lon="23.51824">
        <ele>571.558103</ele>
        <time>2022-03-09T10:43:58.398Z</time>
      </trkpt>
      <trkpt lat="42.68146" lon="23.51809">
        <ele>571.465364</ele>
        <time>2022-03-09T10:44:01.403Z</time>
      </trkpt>
      <trkpt lat="42.68151" lon="23.51793">
        <ele>571.370242</ele>
        <time>2022-03-09T10:44:04.385Z</time>
      </trkpt>
      <trkpt lat="42.68157" lon="23.51779">
        <ele>571.278152</ele>
        <time>2022-03-09T10:44:07.415Z</time>
      </trkpt>
      <trkpt lat="42.68161" lon="23.51765">
        <ele>571.191478</ele>
        <time>2022-03-09T10:44:10.399Z</time>
      </trkpt>
      <trkpt lat="42.68166" lon="23.5175">
        <ele>571.100081</ele>
        <time>2022-03-09T10:44:13.398Z</time>
      </trkpt>
      <trkpt lat="42.6817" lon="23.51735">
        <ele>571.01329</ele>
        <time>2022-03-09T10:44:16.404Z</time>
      </trkpt>
      <trkpt lat="42.68174" lon="23.51721">
        <ele>570.927249</ele>
        <time>2022-03-09T10:44:19.399Z</time>
      </trkpt>
      <trkpt lat="42.68178" lon="23.51707">
        <ele>570.839346</ele>
        <time>2022-03-09T10:44:22.425Z</time>
      </trkpt>
      <trkpt lat="42.68182" lon="23.51692">
        <ele>570.800247</ele>
        <time>2022-03-09T10:44:25.404Z</time>
      </trkpt>
      <trkpt lat="42.68188" lon="23.51679">
        <ele>570.789051</ele>
        <time>2022-03-09T10:44:28.428Z</time>
      </trkpt>
      <trkpt lat="42.68193" lon="23.51665">
        <ele>570.778268</ele>
        <time>2022-03-09T10:44:31.410Z</time>
      </trkpt>
      <trkpt lat="42.68198" lon="23.51652">
        <ele>570.76795</ele>
        <time>2022-03-09T10:44:34.426Z</time>
      </trkpt>
      <trkpt lat="42.68202" lon="23.51639">
        <ele>570.757527</ele>
        <time>2022-03-09T10:44:37.392Z</time>
      </trkpt>
      <trkpt lat="42.68208" lon="23.51625">
        <ele>570.745956</ele>
        <time>2022-03-09T10:44:40.414Z</time>
      </trkpt>
      <trkpt lat="42.68212" lon="23.51611">
        <ele>570.734849</ele>
        <time>2022-03-09T10:44:43.408Z</time>
      </trkpt>
      <trkpt lat="42.68217" lon="23.51596">
        <ele>570.723505</ele>
        <time>2022-03-09T10:44:46.409Z</time>
      </trkpt>
      <trkpt lat="42.68221" lon="23.51582">
        <ele>570.712077</ele>
        <time>2022-03-09T10:44:49.412Z</time>
      </trkpt>
      <trkpt lat="42.68226" lon="23.51567">
        <ele>570.700667</ele>
        <time>2022-03-09T10:44:52.400Z</time>
      </trkpt>
      <trkpt lat="42.6823" lon="23.51554">
        <ele>570.690386</ele>
        <time>2022-03-09T10:44:55.405Z</time>
      </trkpt>
      <trkpt lat="42.68236" lon="23.51541">
        <ele>570.679239</ele>
        <time>2022-03-09T10:44:58.396Z</time>
      </trkpt>
      <trkpt lat="42.68241" lon="23.51526">
        <ele>570.667653</ele>
        <time>2022-03-09T10:45:01.412Z</time>
      </trkpt>
      <trkpt lat="42.68247" lon="23.51514">
        <ele>570.657485</ele>
        <time>2022-03-09T10:45:04.398Z</time>
      </trkpt>
      <trkpt lat="42.6825" lon="23.51502">
        <ele>570.64817</ele>
        <time>2022-03-09T10:45:07.399Z</time>
      </trkpt>
      <trkpt lat="42.68254" lon="23.5149">
        <ele>570.63826</ele>
        <time>2022-03-09T10:45:10.407Z</time>
      </trkpt>
      <trkpt lat="42.68259" lon="23.51475">
        <ele>570.710241</ele>
        <time>2022-03-09T10:45:13.433Z</time>
      </trkpt>
      <trkpt lat="42.68263" lon="23.5146">
        <ele>570.895906</ele>
        <time>2022-03-09T10:45:16.410Z</time>
      </trkpt>
      <trkpt lat="42.68268" lon="23.51445">
        <ele>571.079011</ele>
        <time>2022-03-09T10:45:19.450Z</time>
      </trkpt>
      <trkpt lat="42.68272" lon="23.51432">
        <ele>571.251338</ele>
        <time>2022-03-09T10:45:22.397Z</time>
      </trkpt>
      <trkpt lat="42.68277" lon="23.51419">
        <ele>571.413265</ele>
        <time>2022-03-09T10:45:25.406Z</time>
      </trkpt>
      <trkpt lat="42.68282" lon="23.51406">
        <ele>571.582244</ele>
        <time>2022-03-09T10:45:28.434Z</time>
      </trkpt>
      <trkpt lat="42.68287" lon="23.51394">
        <ele>571.747246</ele>
        <time>2022-03-09T10:45:31.402Z</time>
      </trkpt>
      <trkpt lat="42.68292" lon="23.51381">
        <ele>571.90634</ele>
        <time>2022-03-09T10:45:34.397Z</time>
      </trkpt>
      <trkpt lat="42.68297" lon="23.51368">
        <ele>572.078103</ele>
        <time>2022-03-09T10:45:37.392Z</time>
      </trkpt>
      <trkpt lat="42.68301" lon="23.51356">
        <ele>572.237887</ele>
        <time>2022-03-09T10:45:40.390Z</time>
      </trkpt>
      <trkpt lat="42.68306" lon="23.51343">
        <ele>572.405633</ele>
        <time>2022-03-09T10:45:43.411Z</time>
      </trkpt>
      <trkpt lat="42.68311" lon="23.5133">
        <ele>572.570336</ele>
        <time>2022-03-09T10:45:46.430Z</time>
      </trkpt>
      <trkpt lat="42.68315" lon="23.51318">
        <ele>572.731514</ele>
        <time>2022-03-09T10:45:49.399Z</time>
      </trkpt>
      <trkpt lat="42.68319" lon="23.51306">
        <ele>572.883757</ele>
        <time>2022-03-09T10:45:52.400Z</time>
      </trkpt>
      <trkpt lat="42.68323" lon="23.51294">
        <ele>573.035608</ele>
        <time>2022-03-09T10:45:55.396Z</time>
      </trkpt>
      <trkpt lat="42.68328" lon="23.51281">
        <ele>573.195391</ele>
        <time>2022-03-09T10:45:58.400Z</time>
      </trkpt>
      <trkpt lat="42.68333" lon="23.51268">
        <ele>573.363166</ele>
        <time>2022-03-09T10:46:01.399Z</time>
      </trkpt>
      <trkpt lat="42.68338" lon="23.51255">
        <ele>573.366531</ele>
        <time>2022-03-09T10:46:04.400Z</time>
      </trkpt>
      <trkpt lat="42.68343" lon="23.51241">
        <ele>573.174425</ele>
        <time>2022-03-09T10:46:07.409Z</time>
      </trkpt>
      <trkpt lat="42.68348" lon="23.51228">
        <ele>572.979442</ele>
        <time>2022-03-09T10:46:10.417Z</time>
      </trkpt>
      <trkpt lat="42.68353" lon="23.51215">
        <ele>572.791899</ele>
        <time>2022-03-09T10:46:13.405Z</time>
      </trkpt>
      <trkpt lat="42.68358" lon="23.51202">
        <ele>572.60781</ele>
        <time>2022-03-09T10:46:16.418Z</time>
      </trkpt>
      <trkpt lat="42.68363" lon="23.51189">
        <ele>572.428664</ele>
        <time>2022-03-09T10:46:19.443Z</time>
      </trkpt>
      <trkpt lat="42.68367" lon="23.51177">
        <ele>572.248721</ele>
        <time>2022-03-09T10:46:22.401Z</time>
      </trkpt>
      <trkpt lat="42.68373" lon="23.51163">
        <ele>572.047793</ele>
        <time>2022-03-09T10:46:25.445Z</time>
      </trkpt>
      <trkpt lat="42.68379" lon="23.5115">
        <ele>571.849771</ele>
        <time>2022-03-09T10:46:28.401Z</time>
      </trkpt>
      <trkpt lat="42.68384" lon="23.51137">
        <ele>571.661697</ele>
        <time>2022-03-09T10:46:31.405Z</time>
      </trkpt>
      <trkpt lat="42.6839" lon="23.51123">
        <ele>571.459316</ele>
        <time>2022-03-09T10:46:34.408Z</time>
      </trkpt>
      <trkpt lat="42.68396" lon="23.51112">
        <ele>571.28533</ele>
        <time>2022-03-09T10:46:37.390Z</time>
      </trkpt>
      <trkpt lat="42.68403" lon="23.511">
        <ele>571.090865</ele>
        <time>2022-03-09T10:46:40.395Z</time>
      </trkpt>
      <trkpt lat="42.6841" lon="23.51089">
        <ele>570.898497</ele>
        <time>2022-03-09T10:46:43.417Z</time>
      </trkpt>
      <trkpt lat="42.68418" lon="23.51078">
        <ele>570.706352</ele>
        <time>2022-03-09T10:46:46.399Z</time>
      </trkpt>
      <trkpt lat="42.68425" lon="23.51067">
        <ele>570.524071</ele>
        <time>2022-03-09T10:46:49.405Z</time>
      </trkpt>
      <trkpt lat="42.68431" lon="23.51056">
        <ele>570.341911</ele>
        <time>2022-03-09T10:46:52.391Z</time>
      </trkpt>
      <trkpt lat="42.68438" lon="23.51045">
        <ele>570.320299</ele>
        <time>2022-03-09T10:46:55.397Z</time>
      </trkpt>
      <trkpt lat="42.68444" lon="23.51034">
        <ele>570.304543</ele>
        <time>2022-03-09T10:46:58.401Z</time>
      </trkpt>
      <trkpt lat="42.68451" lon="23.51023">
        <ele>570.287867</ele>
        <time>2022-03-09T10:47:01.404Z</time>
      </trkpt>
      <trkpt lat="42.68458" lon="23.51012">
        <ele>570.270712</ele>
        <time>2022-03-09T10:47:04.390Z</time>
      </trkpt>
      <trkpt lat="42.68465" lon="23.51">
        <ele>570.253757</ele>
        <time>2022-03-09T10:47:07.414Z</time>
      </trkpt>
      <trkpt lat="42.68472" lon="23.5099">
        <ele>570.237222</ele>
        <time>2022-03-09T10:47:10.448Z</time>
      </trkpt>
      <trkpt lat="42.68478" lon="23.50979">
        <ele>570.221157</ele>
        <time>2022-03-09T10:47:13.410Z</time>
      </trkpt>
      <trkpt lat="42.68485" lon="23.50968">
        <ele>570.204652</ele>
        <time>2022-03-09T10:47:16.396Z</time>
      </trkpt>
      <trkpt lat="42.68491" lon="23.50958">
        <ele>570.188536</ele>
        <time>2022-03-09T10:47:19.393Z</time>
      </trkpt>
      <trkpt lat="42.68499" lon="23.50947">
        <ele>570.171426</ele>
        <time>2022-03-09T10:47:22.407Z</time>
      </trkpt>
      <trkpt lat="42.68505" lon="23.50937">
        <ele>570.155879</ele>
        <time>2022-03-09T10:47:25.385Z</time>
      </trkpt>
      <trkpt lat="42.68513" lon="23.50926">
        <ele>570.13862</ele>
        <time>2022-03-09T10:47:28.398Z</time>
      </trkpt>
      <trkpt lat="42.6852" lon="23.50915">
        <ele>570.122276</ele>
        <time>2022-03-09T10:47:31.397Z</time>
      </trkpt>
      <trkpt lat="42.68527" lon="23.50904">
        <ele>570.104848</ele>
        <time>2022-03-09T10:47:34.428Z</time>
      </trkpt>
      <trkpt lat="42.68534" lon="23.50896">
        <ele>570.090049</ele>
        <time>2022-03-09T10:47:37.413Z</time>
      </trkpt>
      <trkpt lat="42.68542" lon="23.50883">
        <ele>570.070738</ele>
        <time>2022-03-09T10:47:41.394Z</time>
      </trkpt>
      <trkpt lat="42.68549" lon="23.50871">
        <ele>570.053329</ele>
        <time>2022-03-09T10:47:45.419Z</time>
      </trkpt>
      <trkpt lat="42.68555" lon="23.50859">
        <ele>570.076398</ele>
        <time>2022-03-09T10:47:49.401Z</time>
      </trkpt>
      <trkpt lat="42.68562" lon="23.50848">
        <ele>570.101495</ele>
        <time>2022-03-09T10:47:53.428Z</time>
      </trkpt>
      <trkpt lat="42.6857" lon="23.50836">
        <ele>570.128296</ele>
        <time>2022-03-09T10:47:57.401Z</time>
      </trkpt>
      <trkpt lat="42.68576" lon="23.50826">
        <ele>570.148757</ele>
        <time>2022-03-09T10:48:00.398Z</time>
      </trkpt>
      <trkpt lat="42.68582" lon="23.50816">
        <ele>570.16981</ele>
        <time>2022-03-09T10:48:03.409Z</time>
      </trkpt>
      <trkpt lat="42.68588" lon="23.50807">
        <ele>570.190147</ele>
        <time>2022-03-09T10:48:06.403Z</time>
      </trkpt>
      <trkpt lat="42.68596" lon="23.50795">
        <ele>570.216922</ele>
        <time>2022-03-09T10:48:10.397Z</time>
      </trkpt>
      <trkpt lat="42.68603" lon="23.50784">
        <ele>570.242349</ele>
        <time>2022-03-09T10:48:14.412Z</time>
      </trkpt>
      <trkpt lat="42.68611" lon="23.50771">
        <ele>570.268937</ele>
        <time>2022-03-09T10:48:18.395Z</time>
      </trkpt>
      <trkpt lat="42.68617" lon="23.50761">
        <ele>570.2904</ele>
        <time>2022-03-09T10:48:21.404Z</time>
      </trkpt>
      <trkpt lat="42.68622" lon="23.50751">
        <ele>570.312384</ele>
        <time>2022-03-09T10:48:24.402Z</time>
      </trkpt>
      <trkpt lat="42.68628" lon="23.50741">
        <ele>570.333568</ele>
        <time>2022-03-09T10:48:27.433Z</time>
      </trkpt>
      <trkpt lat="42.68634" lon="23.50731">
        <ele>570.354932</ele>
        <time>2022-03-09T10:48:30.403Z</time>
      </trkpt>
      <trkpt lat="42.6864" lon="23.50721">
        <ele>570.376151</ele>
        <time>2022-03-09T10:48:33.456Z</time>
      </trkpt>
      <trkpt lat="42.68647" lon="23.5071">
        <ele>570.399409</ele>
        <time>2022-03-09T10:48:36.402Z</time>
      </trkpt>
      <trkpt lat="42.68653" lon="23.50701">
        <ele>570.420394</ele>
        <time>2022-03-09T10:48:39.391Z</time>
      </trkpt>
      <trkpt lat="42.68659" lon="23.50691">
        <ele>570.441654</ele>
        <time>2022-03-09T10:48:42.398Z</time>
      </trkpt>
      <trkpt lat="42.68667" lon="23.5068">
        <ele>570.484444</ele>
        <time>2022-03-09T10:48:45.426Z</time>
      </trkpt>
      <trkpt lat="42.68673" lon="23.5067">
        <ele>570.557668</ele>
        <time>2022-03-09T10:48:48.384Z</time>
      </trkpt>
      <trkpt lat="42.68679" lon="23.5066">
        <ele>570.627108</ele>
        <time>2022-03-09T10:48:51.409Z</time>
      </trkpt>
      <trkpt lat="42.68687" lon="23.50648">
        <ele>570.712179</ele>
        <time>2022-03-09T10:48:55.400Z</time>
      </trkpt>
      <trkpt lat="42.68693" lon="23.50639">
        <ele>570.780089</ele>
        <time>2022-03-09T10:48:58.407Z</time>
      </trkpt>
      <trkpt lat="42.68699" lon="23.5063">
        <ele>570.849899</ele>
        <time>2022-03-09T10:49:01.428Z</time>
      </trkpt>
      <trkpt lat="42.68706" lon="23.5062">
        <ele>570.9207</ele>
        <time>2022-03-09T10:49:04.411Z</time>
      </trkpt>
      <trkpt lat="42.68712" lon="23.5061">
        <ele>570.990411</ele>
        <time>2022-03-09T10:49:07.408Z</time>
      </trkpt>
      <trkpt lat="42.68719" lon="23.50601">
        <ele>571.063565</ele>
        <time>2022-03-09T10:49:10.419Z</time>
      </trkpt>
      <trkpt lat="42.68725" lon="23.5059">
        <ele>571.139195</ele>
        <time>2022-03-09T10:49:13.398Z</time>
      </trkpt>
      <trkpt lat="42.68732" lon="23.50579">
        <ele>571.213042</ele>
        <time>2022-03-09T10:49:16.408Z</time>
      </trkpt>
      <trkpt lat="42.68738" lon="23.50569">
        <ele>571.28708</ele>
        <time>2022-03-09T10:49:19.406Z</time>
      </trkpt>
      <trkpt lat="42.68745" lon="23.5056">
        <ele>571.358811</ele>
        <time>2022-03-09T10:49:22.400Z</time>
      </trkpt>
      <trkpt lat="42.68752" lon="23.50549">
        <ele>571.435809</ele>
        <time>2022-03-09T10:49:25.396Z</time>
      </trkpt>
      <trkpt lat="42.68757" lon="23.50539">
        <ele>571.504325</ele>
        <time>2022-03-09T10:49:28.411Z</time>
      </trkpt>
      <trkpt lat="42.68763" lon="23.50529">
        <ele>571.572451</ele>
        <time>2022-03-09T10:49:31.441Z</time>
      </trkpt>
      <trkpt lat="42.6877" lon="23.50518">
        <ele>571.652402</ele>
        <time>2022-03-09T10:49:34.408Z</time>
      </trkpt>
      <trkpt lat="42.68776" lon="23.50507">
        <ele>571.731501</ele>
        <time>2022-03-09T10:49:37.401Z</time>
      </trkpt>
      <trkpt lat="42.68783" lon="23.50496">
        <ele>571.778297</ele>
        <time>2022-03-09T10:49:40.407Z</time>
      </trkpt>
      <trkpt lat="42.6879" lon="23.50484">
        <ele>571.695782</ele>
        <time>2022-03-09T10:49:43.384Z</time>
      </trkpt>
      <trkpt lat="42.68797" lon="23.50473">
        <ele>571.617469</ele>
        <time>2022-03-09T10:49:46.424Z</time>
      </trkpt>
      <trkpt lat="42.68803" lon="23.50462">
        <ele>571.541552</ele>
        <time>2022-03-09T10:49:49.412Z</time>
      </trkpt>
      <trkpt lat="42.6881" lon="23.50452">
        <ele>571.467647</ele>
        <time>2022-03-09T10:49:52.393Z</time>
      </trkpt>
      <trkpt lat="42.68816" lon="23.50442">
        <ele>571.395458</ele>
        <time>2022-03-09T10:49:55.397Z</time>
      </trkpt>
      <trkpt lat="42.68823" lon="23.50433">
        <ele>571.325802</ele>
        <time>2022-03-09T10:49:58.395Z</time>
      </trkpt>
      <trkpt lat="42.6883" lon="23.50422">
        <ele>571.24863</ele>
        <time>2022-03-09T10:50:01.389Z</time>
      </trkpt>
      <trkpt lat="42.68837" lon="23.50412">
        <ele>571.170959</ele>
        <time>2022-03-09T10:50:04.412Z</time>
      </trkpt>
      <trkpt lat="42.68843" lon="23.50401">
        <ele>571.097241</ele>
        <time>2022-03-09T10:50:07.405Z</time>
      </trkpt>
      <trkpt lat="42.68849" lon="23.5039">
        <ele>571.023975</ele>
        <time>2022-03-09T10:50:10.402Z</time>
      </trkpt>
      <trkpt lat="42.68855" lon="23.5038">
        <ele>570.951076</ele>
        <time>2022-03-09T10:50:13.396Z</time>
      </trkpt>
      <trkpt lat="42.68862" lon="23.50369">
        <ele>570.873815</ele>
        <time>2022-03-09T10:50:16.442Z</time>
      </trkpt>
      <trkpt lat="42.68868" lon="23.50358">
        <ele>570.796585</ele>
        <time>2022-03-09T10:50:19.387Z</time>
      </trkpt>
      <trkpt lat="42.68873" lon="23.50347">
        <ele>570.72807</ele>
        <time>2022-03-09T10:50:22.408Z</time>
      </trkpt>
      <trkpt lat="42.68879" lon="23.50337">
        <ele>570.657325</ele>
        <time>2022-03-09T10:50:25.420Z</time>
      </trkpt>
      <trkpt lat="42.68886" lon="23.50327">
        <ele>570.582026</ele>
        <time>2022-03-09T10:50:28.416Z</time>
      </trkpt>
      <trkpt lat="42.68894" lon="23.50316">
        <ele>570.500041</ele>
        <time>2022-03-09T10:50:31.400Z</time>
      </trkpt>
      <trkpt lat="42.68901" lon="23.50306">
        <ele>570.450139</ele>
        <time>2022-03-09T10:50:34.398Z</time>
      </trkpt>
      <trkpt lat="42.68908" lon="23.50294">
        <ele>570.426068</ele>
        <time>2022-03-09T10:50:37.414Z</time>
      </trkpt>
      <trkpt lat="42.68915" lon="23.50283">
        <ele>570.401646</ele>
        <time>2022-03-09T10:50:40.412Z</time>
      </trkpt>
      <trkpt lat="42.68922" lon="23.50273">
        <ele>570.380125</ele>
        <time>2022-03-09T10:50:43.399Z</time>
      </trkpt>
      <trkpt lat="42.68929" lon="23.50262">
        <ele>570.358452</ele>
        <time>2022-03-09T10:50:46.395Z</time>
      </trkpt>
      <trkpt lat="42.68936" lon="23.50253">
        <ele>570.336931</ele>
        <time>2022-03-09T10:50:49.404Z</time>
      </trkpt>
      <trkpt lat="42.68942" lon="23.50243">
        <ele>570.316573</ele>
        <time>2022-03-09T10:50:52.428Z</time>
      </trkpt>
      <trkpt lat="42.68949" lon="23.50234">
        <ele>570.296129</ele>
        <time>2022-03-09T10:50:55.436Z</time>
      </trkpt>
      <trkpt lat="42.68955" lon="23.50224">
        <ele>570.275999</ele>
        <time>2022-03-09T10:50:58.404Z</time>
      </trkpt>
      <trkpt lat="42.68962" lon="23.50213">
        <ele>570.252647</ele>
        <time>2022-03-09T10:51:02.397Z</time>
      </trkpt>
      <trkpt lat="42.68969" lon="23.50201">
        <ele>570.228622</ele>
        <time>2022-03-09T10:51:06.449Z</time>
      </trkpt>
      <trkpt lat="42.68975" lon="23.50189">
        <ele>570.206124</ele>
        <time>2022-03-09T10:51:10.396Z</time>
      </trkpt>
      <trkpt lat="42.6898" lon="23.50179">
        <ele>570.186672</ele>
        <time>2022-03-09T10:51:13.407Z</time>
      </trkpt>
      <trkpt lat="42.68986" lon="23.50166">
        <ele>570.161809</ele>
        <time>2022-03-09T10:51:17.428Z</time>
      </trkpt>
      <trkpt lat="42.68991" lon="23.50155">
        <ele>570.142296</ele>
        <time>2022-03-09T10:51:20.399Z</time>
      </trkpt>
      <trkpt lat="42.68995" lon="23.50141">
        <ele>570.117673</ele>
        <time>2022-03-09T10:51:24.419Z</time>
      </trkpt>
      <trkpt lat="42.69" lon="23.50126">
        <ele>570.092648</ele>
        <time>2022-03-09T10:51:28.410Z</time>
      </trkpt>
      <trkpt lat="42.69004" lon="23.50115">
        <ele>570.071803</ele>
        <time>2022-03-09T10:51:31.409Z</time>
      </trkpt>
      <trkpt lat="42.69008" lon="23.50103">
        <ele>570.042305</ele>
        <time>2022-03-09T10:51:34.410Z</time>
      </trkpt>
      <trkpt lat="42.69012" lon="23.50091">
        <ele>570.0135</ele>
        <time>2022-03-09T10:51:37.391Z</time>
      </trkpt>
      <trkpt lat="42.69017" lon="23.5008">
        <ele>569.984964</ele>
        <time>2022-03-09T10:51:40.400Z</time>
      </trkpt>
      <trkpt lat="42.6902" lon="23.50068">
        <ele>569.957058</ele>
        <time>2022-03-09T10:51:43.415Z</time>
      </trkpt>
      <trkpt lat="42.69024" lon="23.50057">
        <ele>569.929563</ele>
        <time>2022-03-09T10:51:46.394Z</time>
      </trkpt>
      <trkpt lat="42.69028" lon="23.50045">
        <ele>569.901027</ele>
        <time>2022-03-09T10:51:49.409Z</time>
      </trkpt>
      <trkpt lat="42.69032" lon="23.50034">
        <ele>569.873487</ele>
        <time>2022-03-09T10:51:52.406Z</time>
      </trkpt>
      <trkpt lat="42.69035" lon="23.50022">
        <ele>569.84493</ele>
        <time>2022-03-09T10:51:55.398Z</time>
      </trkpt>
      <trkpt lat="42.69039" lon="23.5001">
        <ele>569.814288</ele>
        <time>2022-03-09T10:51:58.394Z</time>
      </trkpt>
      <trkpt lat="42.69044" lon="23.49997">
        <ele>569.782706</ele>
        <time>2022-03-09T10:52:01.406Z</time>
      </trkpt>
      <trkpt lat="42.69048" lon="23.49985">
        <ele>569.751615</ele>
        <time>2022-03-09T10:52:04.415Z</time>
      </trkpt>
      <trkpt lat="42.69052" lon="23.49972">
        <ele>569.721913</ele>
        <time>2022-03-09T10:52:07.432Z</time>
      </trkpt>
      <trkpt lat="42.69056" lon="23.4996">
        <ele>569.691802</ele>
        <time>2022-03-09T10:52:10.400Z</time>
      </trkpt>
      <trkpt lat="42.6906" lon="23.49949">
        <ele>569.664335</ele>
        <time>2022-03-09T10:52:13.410Z</time>
      </trkpt>
      <trkpt lat="42.69064" lon="23.49937">
        <ele>569.636513</ele>
        <time>2022-03-09T10:52:16.404Z</time>
      </trkpt>
      <trkpt lat="42.69068" lon="23.49924">
        <ele>569.604447</ele>
        <time>2022-03-09T10:52:19.395Z</time>
      </trkpt>
      <trkpt lat="42.69072" lon="23.49911">
        <ele>569.571353</ele>
        <time>2022-03-09T10:52:22.396Z</time>
      </trkpt>
      <trkpt lat="42.69077" lon="23.49898">
        <ele>569.540404</ele>
        <time>2022-03-09T10:52:25.431Z</time>
      </trkpt>
      <trkpt lat="42.69081" lon="23.49887">
        <ele>569.521983</ele>
        <time>2022-03-09T10:52:28.399Z</time>
      </trkpt>
      <trkpt lat="42.69085" lon="23.49875">
        <ele>569.510359</ele>
        <time>2022-03-09T10:52:31.411Z</time>
      </trkpt>
      <trkpt lat="42.69089" lon="23.49864">
        <ele>569.49932</ele>
        <time>2022-03-09T10:52:34.400Z</time>
      </trkpt>
      <trkpt lat="42.69094" lon="23.49853">
        <ele>569.488109</ele>
        <time>2022-03-09T10:52:37.393Z</time>
      </trkpt>
      <trkpt lat="42.69099" lon="23.49842">
        <ele>569.47647</ele>
        <time>2022-03-09T10:52:40.433Z</time>
      </trkpt>
      <trkpt lat="42.69106" lon="23.49829">
        <ele>569.462247</ele>
        <time>2022-03-09T10:52:44.393Z</time>
      </trkpt>
      <trkpt lat="42.69111" lon="23.49819">
        <ele>569.451105</ele>
        <time>2022-03-09T10:52:47.409Z</time>
      </trkpt>
      <trkpt lat="42.69116" lon="23.49809">
        <ele>569.439906</ele>
        <time>2022-03-09T10:52:50.385Z</time>
      </trkpt>
      <trkpt lat="42.69121" lon="23.49798">
        <ele>569.428839</ele>
        <time>2022-03-09T10:52:53.408Z</time>
      </trkpt>
      <trkpt lat="42.69128" lon="23.49785">
        <ele>569.414372</ele>
        <time>2022-03-09T10:52:57.417Z</time>
      </trkpt>
      <trkpt lat="42.69133" lon="23.49773">
        <ele>569.402702</ele>
        <time>2022-03-09T10:53:00.415Z</time>
      </trkpt>
      <trkpt lat="42.69138" lon="23.49761">
        <ele>569.389913</ele>
        <time>2022-03-09T10:53:03.411Z</time>
      </trkpt>
      <trkpt lat="42.69144" lon="23.4975">
        <ele>569.378207</ele>
        <time>2022-03-09T10:53:06.398Z</time>
      </trkpt>
      <trkpt lat="42.69149" lon="23.49739">
        <ele>569.365855</ele>
        <time>2022-03-09T10:53:09.395Z</time>
      </trkpt>
      <trkpt lat="42.69156" lon="23.49727">
        <ele>569.352792</ele>
        <time>2022-03-09T10:53:12.392Z</time>
      </trkpt>
      <trkpt lat="42.69162" lon="23.49715">
        <ele>569.339229</ele>
        <time>2022-03-09T10:53:15.397Z</time>
      </trkpt>
      <trkpt lat="42.69168" lon="23.49703">
        <ele>569.326241</ele>
        <time>2022-03-09T10:53:18.409Z</time>
      </trkpt>
      <trkpt lat="42.69174" lon="23.49692">
        <ele>569.314042</ele>
        <time>2022-03-09T10:53:21.397Z</time>
      </trkpt>
      <trkpt lat="42.6918" lon="23.49681">
        <ele>569.296259</ele>
        <time>2022-03-09T10:53:24.462Z</time>
      </trkpt>
      <trkpt lat="42.69185" lon="23.4967">
        <ele>569.27563</ele>
        <time>2022-03-09T10:53:27.404Z</time>
      </trkpt>
      <trkpt lat="42.69191" lon="23.49659">
        <ele>569.256134</ele>
        <time>2022-03-09T10:53:30.395Z</time>
      </trkpt>
      <trkpt lat="42.69196" lon="23.49649">
        <ele>569.236124</ele>
        <time>2022-03-09T10:53:33.390Z</time>
      </trkpt>
      <trkpt lat="42.69202" lon="23.49637">
        <ele>569.21427</ele>
        <time>2022-03-09T10:53:37.419Z</time>
      </trkpt>
      <trkpt lat="42.69208" lon="23.49626">
        <ele>569.192778</ele>
        <time>2022-03-09T10:53:40.441Z</time>
      </trkpt>
      <trkpt lat="42.69214" lon="23.49614">
        <ele>569.170531</ele>
        <time>2022-03-09T10:53:43.387Z</time>
      </trkpt>
      <trkpt lat="42.69219" lon="23.49602">
        <ele>569.150075</ele>
        <time>2022-03-09T10:53:46.384Z</time>
      </trkpt>
      <trkpt lat="42.69225" lon="23.49591">
        <ele>569.129455</ele>
        <time>2022-03-09T10:53:49.409Z</time>
      </trkpt>
      <trkpt lat="42.6923" lon="23.49581">
        <ele>569.110446</ele>
        <time>2022-03-09T10:53:52.446Z</time>
      </trkpt>
      <trkpt lat="42.69235" lon="23.4957">
        <ele>569.090405</ele>
        <time>2022-03-09T10:53:55.407Z</time>
      </trkpt>
      <trkpt lat="42.6924" lon="23.49559">
        <ele>569.070277</ele>
        <time>2022-03-09T10:53:58.402Z</time>
      </trkpt>
      <trkpt lat="42.69245" lon="23.49549">
        <ele>569.050895</ele>
        <time>2022-03-09T10:54:01.408Z</time>
      </trkpt>
      <trkpt lat="42.69251" lon="23.49538">
        <ele>569.031385</ele>
        <time>2022-03-09T10:54:04.408Z</time>
      </trkpt>
      <trkpt lat="42.69256" lon="23.49526">
        <ele>569.009679</ele>
        <time>2022-03-09T10:54:07.412Z</time>
      </trkpt>
      <trkpt lat="42.69262" lon="23.49513">
        <ele>568.986114</ele>
        <time>2022-03-09T10:54:10.404Z</time>
      </trkpt>
      <trkpt lat="42.69267" lon="23.49502">
        <ele>568.964995</ele>
        <time>2022-03-09T10:54:13.404Z</time>
      </trkpt>
      <trkpt lat="42.69274" lon="23.4949">
        <ele>568.942518</ele>
        <time>2022-03-09T10:54:16.408Z</time>
      </trkpt>
      <trkpt lat="42.69279" lon="23.49477">
        <ele>568.945953</ele>
        <time>2022-03-09T10:54:19.393Z</time>
      </trkpt>
      <trkpt lat="42.69284" lon="23.49466">
        <ele>568.965223</ele>
        <time>2022-03-09T10:54:22.395Z</time>
      </trkpt>
      <trkpt lat="42.69289" lon="23.49455">
        <ele>568.985097</ele>
        <time>2022-03-09T10:54:25.434Z</time>
      </trkpt>
      <trkpt lat="42.69295" lon="23.49444">
        <ele>569.004374</ele>
        <time>2022-03-09T10:54:28.402Z</time>
      </trkpt>
      <trkpt lat="42.69302" lon="23.49431">
        <ele>569.029023</ele>
        <time>2022-03-09T10:54:32.412Z</time>
      </trkpt>
      <trkpt lat="42.69308" lon="23.49417">
        <ele>569.052023</ele>
        <time>2022-03-09T10:54:36.427Z</time>
      </trkpt>
      <trkpt lat="42.69315" lon="23.49405">
        <ele>569.074747</ele>
        <time>2022-03-09T10:54:40.392Z</time>
      </trkpt>
      <trkpt lat="42.69321" lon="23.49394">
        <ele>569.095836</ele>
        <time>2022-03-09T10:54:44.409Z</time>
      </trkpt>
      <trkpt lat="42.69329" lon="23.49385">
        <ele>569.116626</ele>
        <time>2022-03-09T10:54:47.411Z</time>
      </trkpt>
      <trkpt lat="42.6934" lon="23.49377">
        <ele>569.140089</ele>
        <time>2022-03-09T10:54:50.398Z</time>
      </trkpt>
      <trkpt lat="42.6935" lon="23.49375">
        <ele>569.16198</ele>
        <time>2022-03-09T10:54:53.453Z</time>
      </trkpt>
      <trkpt lat="42.69361" lon="23.49377">
        <ele>569.183119</ele>
        <time>2022-03-09T10:54:56.404Z</time>
      </trkpt>
      <trkpt lat="42.6937" lon="23.49382">
        <ele>569.202721</ele>
        <time>2022-03-09T10:54:59.411Z</time>
      </trkpt>
      <trkpt lat="42.69379" lon="23.49388">
        <ele>569.221926</ele>
        <time>2022-03-09T10:55:02.389Z</time>
      </trkpt>
      <trkpt lat="42.69387" lon="23.49394">
        <ele>569.24112</ele>
        <time>2022-03-09T10:55:05.413Z</time>
      </trkpt>
      <trkpt lat="42.69397" lon="23.494">
        <ele>569.262526</ele>
        <time>2022-03-09T10:55:08.407Z</time>
      </trkpt>
      <trkpt lat="42.69406" lon="23.49408">
        <ele>569.285503</ele>
        <time>2022-03-09T10:55:11.394Z</time>
      </trkpt>
      <trkpt lat="42.69416" lon="23.49416">
        <ele>569.262935</ele>
        <time>2022-03-09T10:55:14.408Z</time>
      </trkpt>
      <trkpt lat="42.69428" lon="23.49424">
        <ele>569.20934</ele>
        <time>2022-03-09T10:55:17.413Z</time>
      </trkpt>
      <trkpt lat="42.69438" lon="23.49433">
        <ele>569.155618</ele>
        <time>2022-03-09T10:55:20.404Z</time>
      </trkpt>
      <trkpt lat="42.69447" lon="23.49442">
        <ele>569.109742</ele>
        <time>2022-03-09T10:55:23.390Z</time>
      </trkpt>
      <trkpt lat="42.69457" lon="23.49451">
        <ele>569.055118</ele>
        <time>2022-03-09T10:55:26.410Z</time>
      </trkpt>
      <trkpt lat="42.69469" lon="23.49458">
        <ele>569.001279</ele>
        <time>2022-03-09T10:55:29.395Z</time>
      </trkpt>
      <trkpt lat="42.69477" lon="23.49464">
        <ele>568.960889</ele>
        <time>2022-03-09T10:55:31.393Z</time>
      </trkpt>
      <trkpt lat="42.69486" lon="23.49471">
        <ele>568.915202</ele>
        <time>2022-03-09T10:55:33.459Z</time>
      </trkpt>
      <trkpt lat="42.69496" lon="23.49478">
        <ele>568.867755</ele>
        <time>2022-03-09T10:55:35.406Z</time>
      </trkpt>
      <trkpt lat="42.69504" lon="23.49484">
        <ele>568.828139</ele>
        <time>2022-03-09T10:55:37.409Z</time>
      </trkpt>
      <trkpt lat="42.69515" lon="23.49493">
        <ele>568.773662</ele>
        <time>2022-03-09T10:55:40.387Z</time>
      </trkpt>
      <trkpt lat="42.69526" lon="23.495">
        <ele>568.720309</ele>
        <time>2022-03-09T10:55:43.414Z</time>
      </trkpt>
      <trkpt lat="42.69534" lon="23.49506">
        <ele>568.680065</ele>
        <time>2022-03-09T10:55:45.396Z</time>
      </trkpt>
      <trkpt lat="42.69542" lon="23.49512">
        <ele>568.641021</ele>
        <time>2022-03-09T10:55:47.392Z</time>
      </trkpt>
      <trkpt lat="42.6955" lon="23.49518">
        <ele>568.601614</ele>
        <time>2022-03-09T10:55:49.413Z</time>
      </trkpt>
      <trkpt lat="42.69561" lon="23.49528">
        <ele>568.545556</ele>
        <time>2022-03-09T10:55:52.398Z</time>
      </trkpt>
      <trkpt lat="42.69571" lon="23.49535">
        <ele>568.545992</ele>
        <time>2022-03-09T10:55:55.400Z</time>
      </trkpt>
      <trkpt lat="42.69581" lon="23.49544">
        <ele>568.605452</ele>
        <time>2022-03-09T10:55:58.396Z</time>
      </trkpt>
      <trkpt lat="42.6959" lon="23.4955">
        <ele>568.660344</ele>
        <time>2022-03-09T10:56:01.425Z</time>
      </trkpt>
      <trkpt lat="42.69599" lon="23.49558">
        <ele>568.711341</ele>
        <time>2022-03-09T10:56:04.404Z</time>
      </trkpt>
      <trkpt lat="42.69608" lon="23.49564">
        <ele>568.763589</ele>
        <time>2022-03-09T10:56:07.399Z</time>
      </trkpt>
      <trkpt lat="42.69618" lon="23.49572">
        <ele>568.824005</ele>
        <time>2022-03-09T10:56:10.401Z</time>
      </trkpt>
      <trkpt lat="42.69628" lon="23.49579">
        <ele>568.880454</ele>
        <time>2022-03-09T10:56:13.419Z</time>
      </trkpt>
      <trkpt lat="42.69638" lon="23.49585">
        <ele>568.937846</ele>
        <time>2022-03-09T10:56:16.394Z</time>
      </trkpt>
      <trkpt lat="42.6965" lon="23.49592">
        <ele>569.003576</ele>
        <time>2022-03-09T10:56:19.409Z</time>
      </trkpt>
      <trkpt lat="42.69661" lon="23.49595">
        <ele>569.065364</ele>
        <time>2022-03-09T10:56:22.408Z</time>
      </trkpt>
      <trkpt lat="42.69673" lon="23.49598">
        <ele>569.123792</ele>
        <time>2022-03-09T10:56:25.447Z</time>
      </trkpt>
      <trkpt lat="42.69682" lon="23.496">
        <ele>569.17445</ele>
        <time>2022-03-09T10:56:28.412Z</time>
      </trkpt>
      <trkpt lat="42.69694" lon="23.496">
        <ele>569.233014</ele>
        <time>2022-03-09T10:56:31.421Z</time>
      </trkpt>
      <trkpt lat="42.69702" lon="23.4959">
        <ele>569.28983</ele>
        <time>2022-03-09T10:56:35.395Z</time>
      </trkpt>
      <trkpt lat="42.69707" lon="23.49577">
        <ele>569.343596</ele>
        <time>2022-03-09T10:56:38.396Z</time>
      </trkpt>
      <trkpt lat="42.69712" lon="23.49566">
        <ele>569.392364</ele>
        <time>2022-03-09T10:56:41.391Z</time>
      </trkpt>
      <trkpt lat="42.69717" lon="23.49554">
        <ele>569.440016</ele>
        <time>2022-03-09T10:56:44.387Z</time>
      </trkpt>
      <trkpt lat="42.69721" lon="23.4954">
        <ele>569.378949</ele>
        <time>2022-03-09T10:56:47.391Z</time>
      </trkpt>
      <trkpt lat="42.69726" lon="23.49528">
        <ele>569.322939</ele>
        <time>2022-03-09T10:56:50.384Z</time>
      </trkpt>
      <trkpt lat="42.6973" lon="23.49514">
        <ele>569.262145</ele>
        <time>2022-03-09T10:56:53.453Z</time>
      </trkpt>
      <trkpt lat="42.69736" lon="23.495">
        <ele>569.198402</ele>
        <time>2022-03-09T10:56:56.379Z</time>
      </trkpt>
      <trkpt lat="42.6974" lon="23.49485">
        <ele>569.130432</ele>
        <time>2022-03-09T10:56:59.378Z</time>
      </trkpt>
      <trkpt lat="42.69745" lon="23.49469">
        <ele>569.060483</ele>
        <time>2022-03-09T10:57:02.382Z</time>
      </trkpt>
      <trkpt lat="42.69752" lon="23.49455">
        <ele>568.989974</ele>
        <time>2022-03-09T10:57:05.385Z</time>
      </trkpt>
      <trkpt lat="42.69761" lon="23.49442">
        <ele>568.919081</ele>
        <time>2022-03-09T10:57:08.390Z</time>
      </trkpt>
      <trkpt lat="42.69768" lon="23.49428">
        <ele>568.851249</ele>
        <time>2022-03-09T10:57:11.385Z</time>
      </trkpt>
      <trkpt lat="42.69775" lon="23.49415">
        <ele>568.78602</ele>
        <time>2022-03-09T10:57:14.391Z</time>
      </trkpt>
      <trkpt lat="42.69782" lon="23.494">
        <ele>568.714864</ele>
        <time>2022-03-09T10:57:17.383Z</time>
      </trkpt>
      <trkpt lat="42.6979" lon="23.49386">
        <ele>568.642434</ele>
        <time>2022-03-09T10:57:20.382Z</time>
      </trkpt>
      <trkpt lat="42.69797" lon="23.49373">
        <ele>568.573628</ele>
        <time>2022-03-09T10:57:23.443Z</time>
      </trkpt>
      <trkpt lat="42.69804" lon="23.4936">
        <ele>568.509737</ele>
        <time>2022-03-09T10:57:26.403Z</time>
      </trkpt>
      <trkpt lat="42.69811" lon="23.49351">
        <ele>568.455644</ele>
        <time>2022-03-09T10:57:29.401Z</time>
      </trkpt>
      <trkpt lat="42.69819" lon="23.4934">
        <ele>568.454102</ele>
        <time>2022-03-09T10:57:32.413Z</time>
      </trkpt>
      <trkpt lat="42.69826" lon="23.4933">
        <ele>568.461159</ele>
        <time>2022-03-09T10:57:35.388Z</time>
      </trkpt>
      <trkpt lat="42.69834" lon="23.49321">
        <ele>568.468227</ele>
        <time>2022-03-09T10:57:38.401Z</time>
      </trkpt>
      <trkpt lat="42.69843" lon="23.49311">
        <ele>568.476214</ele>
        <time>2022-03-09T10:57:41.397Z</time>
      </trkpt>
      <trkpt lat="42.6985" lon="23.49301">
        <ele>568.483375</ele>
        <time>2022-03-09T10:57:44.386Z</time>
      </trkpt>
      <trkpt lat="42.69857" lon="23.49291">
        <ele>568.490057</ele>
        <time>2022-03-09T10:57:47.392Z</time>
      </trkpt>
      <trkpt lat="42.69864" lon="23.49283">
        <ele>568.49637</ele>
        <time>2022-03-09T10:57:50.448Z</time>
      </trkpt>
      <trkpt lat="42.69871" lon="23.49274">
        <ele>568.502669</ele>
        <time>2022-03-09T10:57:53.391Z</time>
      </trkpt>
      <trkpt lat="42.69879" lon="23.49268">
        <ele>568.508932</ele>
        <time>2022-03-09T10:57:56.431Z</time>
      </trkpt>
      <trkpt lat="42.69887" lon="23.4926">
        <ele>568.515811</ele>
        <time>2022-03-09T10:57:59.411Z</time>
      </trkpt>
      <trkpt lat="42.69894" lon="23.49251">
        <ele>568.52231</ele>
        <time>2022-03-09T10:58:02.402Z</time>
      </trkpt>
      <trkpt lat="42.69901" lon="23.49243">
        <ele>568.528555</ele>
        <time>2022-03-09T10:58:05.399Z</time>
      </trkpt>
      <trkpt lat="42.6991" lon="23.49235">
        <ele>568.535435</ele>
        <time>2022-03-09T10:58:08.429Z</time>
      </trkpt>
      <trkpt lat="42.69919" lon="23.49227">
        <ele>568.542823</ele>
        <time>2022-03-09T10:58:11.400Z</time>
      </trkpt>
      <trkpt lat="42.69928" lon="23.49221">
        <ele>568.549702</ele>
        <time>2022-03-09T10:58:14.391Z</time>
      </trkpt>
      <trkpt lat="42.69938" lon="23.49218">
        <ele>568.556942</ele>
        <time>2022-03-09T10:58:17.417Z</time>
      </trkpt>
      <trkpt lat="42.69948" lon="23.49215">
        <ele>568.563925</ele>
        <time>2022-03-09T10:58:20.403Z</time>
      </trkpt>
      <trkpt lat="42.69959" lon="23.49213">
        <ele>568.534885</ele>
        <time>2022-03-09T10:58:23.406Z</time>
      </trkpt>
      <trkpt lat="42.6997" lon="23.49213">
        <ele>568.253198</ele>
        <time>2022-03-09T10:58:26.389Z</time>
      </trkpt>
      <trkpt lat="42.69983" lon="23.49214">
        <ele>567.954076</ele>
        <time>2022-03-09T10:58:29.447Z</time>
      </trkpt>
      <trkpt lat="42.69994" lon="23.49219">
        <ele>567.670198</ele>
        <time>2022-03-09T10:58:32.394Z</time>
      </trkpt>
      <trkpt lat="42.70003" lon="23.49228">
        <ele>567.404248</ele>
        <time>2022-03-09T10:58:35.396Z</time>
      </trkpt>
      <trkpt lat="42.70013" lon="23.49236">
        <ele>567.112956</ele>
        <time>2022-03-09T10:58:38.410Z</time>
      </trkpt>
      <trkpt lat="42.70021" lon="23.49243">
        <ele>566.889461</ele>
        <time>2022-03-09T10:58:40.421Z</time>
      </trkpt>
      <trkpt lat="42.70032" lon="23.4925">
        <ele>566.596102</ele>
        <time>2022-03-09T10:58:43.408Z</time>
      </trkpt>
      <trkpt lat="42.70042" lon="23.49259">
        <ele>566.295799</ele>
        <time>2022-03-09T10:58:46.396Z</time>
      </trkpt>
      <trkpt lat="42.70053" lon="23.49266">
        <ele>565.997291</ele>
        <time>2022-03-09T10:58:49.411Z</time>
      </trkpt>
      <trkpt lat="42.70062" lon="23.49268">
        <ele>565.778595</ele>
        <time>2022-03-09T10:58:51.416Z</time>
      </trkpt>
      <trkpt lat="42.70072" lon="23.49271">
        <ele>565.538659</ele>
        <time>2022-03-09T10:58:53.409Z</time>
      </trkpt>
      <trkpt lat="42.70081" lon="23.49273">
        <ele>565.299638</ele>
        <time>2022-03-09T10:58:55.404Z</time>
      </trkpt>
      <trkpt lat="42.70091" lon="23.49276">
        <ele>565.059978</ele>
        <time>2022-03-09T10:58:57.427Z</time>
      </trkpt>
      <trkpt lat="42.70102" lon="23.49279">
        <ele>564.800328</ele>
        <time>2022-03-09T10:58:59.416Z</time>
      </trkpt>
      <trkpt lat="42.70115" lon="23.49283">
        <ele>564.47638</ele>
        <time>2022-03-09T10:59:02.408Z</time>
      </trkpt>
      <trkpt lat="42.70125" lon="23.49287">
        <ele>564.220122</ele>
        <time>2022-03-09T10:59:04.405Z</time>
      </trkpt>
      <trkpt lat="42.70135" lon="23.4929">
        <ele>564.2624</ele>
        <time>2022-03-09T10:59:06.408Z</time>
      </trkpt>
      <trkpt lat="42.70145" lon="23.49292">
        <ele>564.323274</ele>
        <time>2022-03-09T10:59:08.390Z</time>
      </trkpt>
      <trkpt lat="42.70154" lon="23.49294">
        <ele>564.383068</ele>
        <time>2022-03-09T10:59:10.405Z</time>
      </trkpt>
      <trkpt lat="42.70167" lon="23.49295">
        <ele>564.46309</ele>
        <time>2022-03-09T10:59:13.434Z</time>
      </trkpt>
      <trkpt lat="42.70181" lon="23.49296">
        <ele>564.543721</ele>
        <time>2022-03-09T10:59:16.412Z</time>
      </trkpt>
      <trkpt lat="42.70193" lon="23.49298">
        <ele>564.618948</ele>
        <time>2022-03-09T10:59:19.400Z</time>
      </trkpt>
      <trkpt lat="42.70205" lon="23.49299">
        <ele>564.690427</ele>
        <time>2022-03-09T10:59:22.399Z</time>
      </trkpt>
      <trkpt lat="42.70214" lon="23.49299">
        <ele>564.745891</ele>
        <time>2022-03-09T10:59:24.454Z</time>
      </trkpt>
      <trkpt lat="42.70227" lon="23.49298">
        <ele>564.826466</ele>
        <time>2022-03-09T10:59:27.411Z</time>
      </trkpt>
      <trkpt lat="42.7024" lon="23.49297">
        <ele>564.903881</ele>
        <time>2022-03-09T10:59:30.399Z</time>
      </trkpt>
      <trkpt lat="42.70252" lon="23.49296">
        <ele>564.977792</ele>
        <time>2022-03-09T10:59:33.444Z</time>
      </trkpt>
      <trkpt lat="42.70264" lon="23.49296">
        <ele>565.055201</ele>
        <time>2022-03-09T10:59:36.401Z</time>
      </trkpt>
      <trkpt lat="42.70274" lon="23.49296">
        <ele>565.112499</ele>
        <time>2022-03-09T10:59:38.410Z</time>
      </trkpt>
      <trkpt lat="42.70284" lon="23.49296">
        <ele>565.171619</ele>
        <time>2022-03-09T10:59:40.389Z</time>
      </trkpt>
      <trkpt lat="42.70297" lon="23.49295">
        <ele>565.252171</ele>
        <time>2022-03-09T10:59:43.399Z</time>
      </trkpt>
      <trkpt lat="42.7031" lon="23.49294">
        <ele>565.329769</ele>
        <time>2022-03-09T10:59:46.436Z</time>
      </trkpt>
      <trkpt lat="42.70323" lon="23.49293">
        <ele>565.402874</ele>
        <time>2022-03-09T10:59:49.405Z</time>
      </trkpt>
      <trkpt lat="42.70332" lon="23.49293">
        <ele>565.4543</ele>
        <time>2022-03-09T10:59:51.399Z</time>
      </trkpt>
      <trkpt lat="42.70345" lon="23.49292">
        <ele>565.526215</ele>
        <time>2022-03-09T10:59:54.407Z</time>
      </trkpt>
      <trkpt lat="42.70358" lon="23.4929">
        <ele>565.59458</ele>
        <time>2022-03-09T10:59:57.388Z</time>
      </trkpt>
      <trkpt lat="42.70369" lon="23.49287">
        <ele>565.66091</ele>
        <time>2022-03-09T11:00:00.394Z</time>
      </trkpt>
      <trkpt lat="42.70381" lon="23.49282">
        <ele>565.725841</ele>
        <time>2022-03-09T11:00:03.423Z</time>
      </trkpt>
      <trkpt lat="42.70392" lon="23.49277">
        <ele>565.792239</ele>
        <time>2022-03-09T11:00:06.481Z</time>
      </trkpt>
      <trkpt lat="42.70402" lon="23.49271">
        <ele>565.853526</ele>
        <time>2022-03-09T11:00:09.398Z</time>
      </trkpt>
      <trkpt lat="42.70413" lon="23.49266">
        <ele>565.918189</ele>
        <time>2022-03-09T11:00:12.406Z</time>
      </trkpt>
      <trkpt lat="42.70424" lon="23.49262">
        <ele>565.980212</ele>
        <time>2022-03-09T11:00:15.411Z</time>
      </trkpt>
      <trkpt lat="42.70436" lon="23.49258">
        <ele>566.045964</ele>
        <time>2022-03-09T11:00:18.409Z</time>
      </trkpt>
      <trkpt lat="42.70447" lon="23.49252">
        <ele>566.115909</ele>
        <time>2022-03-09T11:00:21.414Z</time>
      </trkpt>
      <trkpt lat="42.70456" lon="23.49244">
        <ele>566.174479</ele>
        <time>2022-03-09T11:00:24.401Z</time>
      </trkpt>
      <trkpt lat="42.70464" lon="23.49235">
        <ele>566.228407</ele>
        <time>2022-03-09T11:00:27.408Z</time>
      </trkpt>
      <trkpt lat="42.70471" lon="23.49224">
        <ele>566.291497</ele>
        <time>2022-03-09T11:00:30.408Z</time>
      </trkpt>
      <trkpt lat="42.70476" lon="23.49211">
        <ele>566.501624</ele>
        <time>2022-03-09T11:00:33.394Z</time>
      </trkpt>
      <trkpt lat="42.70482" lon="23.49195">
        <ele>566.763863</ele>
        <time>2022-03-09T11:00:36.401Z</time>
      </trkpt>
      <trkpt lat="42.70488" lon="23.49181">
        <ele>567.012956</ele>
        <time>2022-03-09T11:00:39.397Z</time>
      </trkpt>
      <trkpt lat="42.70494" lon="23.49166">
        <ele>567.266393</ele>
        <time>2022-03-09T11:00:42.414Z</time>
      </trkpt>
      <trkpt lat="42.70501" lon="23.49152">
        <ele>567.509238</ele>
        <time>2022-03-09T11:00:45.399Z</time>
      </trkpt>
      <trkpt lat="42.70506" lon="23.49139">
        <ele>567.728353</ele>
        <time>2022-03-09T11:00:48.385Z</time>
      </trkpt>
      <trkpt lat="42.70508" lon="23.49125">
        <ele>567.940629</ele>
        <time>2022-03-09T11:00:51.414Z</time>
      </trkpt>
      <trkpt lat="42.70509" lon="23.49112">
        <ele>568.139483</ele>
        <time>2022-03-09T11:00:54.396Z</time>
      </trkpt>
      <trkpt lat="42.70508" lon="23.491">
        <ele>568.331422</ele>
        <time>2022-03-09T11:00:57.533Z</time>
      </trkpt>
      <trkpt lat="42.70508" lon="23.49086">
        <ele>568.527682</ele>
        <time>2022-03-09T11:01:00.439Z</time>
      </trkpt>
      <trkpt lat="42.70509" lon="23.49072">
        <ele>568.745683</ele>
        <time>2022-03-09T11:01:03.400Z</time>
      </trkpt>
      <trkpt lat="42.70509" lon="23.49057">
        <ele>568.971721</ele>
        <time>2022-03-09T11:01:06.398Z</time>
      </trkpt>
      <trkpt lat="42.70511" lon="23.49042">
        <ele>569.191411</ele>
        <time>2022-03-09T11:01:09.388Z</time>
      </trkpt>
      <trkpt lat="42.70512" lon="23.49027">
        <ele>569.422462</ele>
        <time>2022-03-09T11:01:12.416Z</time>
      </trkpt>
      <trkpt lat="42.70513" lon="23.49012">
        <ele>569.645952</ele>
        <time>2022-03-09T11:01:15.399Z</time>
      </trkpt>
      <trkpt lat="42.70513" lon="23.48998">
        <ele>569.852882</ele>
        <time>2022-03-09T11:01:18.396Z</time>
      </trkpt>
      <trkpt lat="42.70515" lon="23.48984">
        <ele>569.913346</ele>
        <time>2022-03-09T11:01:21.394Z</time>
      </trkpt>
      <trkpt lat="42.70515" lon="23.4897">
        <ele>569.821728</ele>
        <time>2022-03-09T11:01:24.414Z</time>
      </trkpt>
      <trkpt lat="42.70516" lon="23.48956">
        <ele>569.732977</ele>
        <time>2022-03-09T11:01:27.398Z</time>
      </trkpt>
      <trkpt lat="42.70518" lon="23.48943">
        <ele>569.650987</ele>
        <time>2022-03-09T11:01:30.383Z</time>
      </trkpt>
      <trkpt lat="42.70518" lon="23.48929">
        <ele>569.562284</ele>
        <time>2022-03-09T11:01:33.466Z</time>
      </trkpt>
      <trkpt lat="42.70519" lon="23.48915">
        <ele>569.468361</ele>
        <time>2022-03-09T11:01:36.409Z</time>
      </trkpt>
      <trkpt lat="42.7052" lon="23.489">
        <ele>569.375621</ele>
        <time>2022-03-09T11:01:39.384Z</time>
      </trkpt>
      <trkpt lat="42.70521" lon="23.48886">
        <ele>569.286535</ele>
        <time>2022-03-09T11:01:42.430Z</time>
      </trkpt>
      <trkpt lat="42.70522" lon="23.48871">
        <ele>569.190787</ele>
        <time>2022-03-09T11:01:45.397Z</time>
      </trkpt>
      <trkpt lat="42.70523" lon="23.48858">
        <ele>569.109526</ele>
        <time>2022-03-09T11:01:48.392Z</time>
      </trkpt>
      <trkpt lat="42.70524" lon="23.48845">
        <ele>569.022904</ele>
        <time>2022-03-09T11:01:51.407Z</time>
      </trkpt>
      <trkpt lat="42.70525" lon="23.48831">
        <ele>568.934593</ele>
        <time>2022-03-09T11:01:54.465Z</time>
      </trkpt>
      <trkpt lat="42.70525" lon="23.48817">
        <ele>568.844185</ele>
        <time>2022-03-09T11:01:57.393Z</time>
      </trkpt>
      <trkpt lat="42.70526" lon="23.48802">
        <ele>568.750519</ele>
        <time>2022-03-09T11:02:00.393Z</time>
      </trkpt>
      <trkpt lat="42.70527" lon="23.48789">
        <ele>568.665687</ele>
        <time>2022-03-09T11:02:03.402Z</time>
      </trkpt>
      <trkpt lat="42.70528" lon="23.48773">
        <ele>568.566529</ele>
        <time>2022-03-09T11:02:07.397Z</time>
      </trkpt>
      <trkpt lat="42.70529" lon="23.48758">
        <ele>568.470098</ele>
        <time>2022-03-09T11:02:12.457Z</time>
      </trkpt>
      <trkpt lat="42.70533" lon="23.48746">
        <ele>568.406328</ele>
        <time>2022-03-09T11:02:17.415Z</time>
      </trkpt>
      <trkpt lat="42.70541" lon="23.48742">
        <ele>568.43279</ele>
        <time>2022-03-09T11:02:23.395Z</time>
      </trkpt>
      <trkpt lat="42.70557" lon="23.48736">
        <ele>568.479288</ele>
        <time>2022-03-09T11:02:41.418Z</time>
      </trkpt>
      <trkpt lat="42.70563" lon="23.48723">
        <ele>568.512419</ele>
        <time>2022-03-09T11:02:45.411Z</time>
      </trkpt>
      <trkpt lat="42.70562" lon="23.48708">
        <ele>568.544559</ele>
        <time>2022-03-09T11:02:48.435Z</time>
      </trkpt>
      <trkpt lat="42.7056" lon="23.48692">
        <ele>568.577538</ele>
        <time>2022-03-09T11:02:51.418Z</time>
      </trkpt>
      <trkpt lat="42.70559" lon="23.48677">
        <ele>568.609638</ele>
        <time>2022-03-09T11:02:54.394Z</time>
      </trkpt>
      <trkpt lat="42.70559" lon="23.48663">
        <ele>568.640243</ele>
        <time>2022-03-09T11:02:57.404Z</time>
      </trkpt>
      <trkpt lat="42.70558" lon="23.48649">
        <ele>568.669591</ele>
        <time>2022-03-09T11:03:00.404Z</time>
      </trkpt>
      <trkpt lat="42.70557" lon="23.48634">
        <ele>568.701075</ele>
        <time>2022-03-09T11:03:03.407Z</time>
      </trkpt>
      <trkpt lat="42.70557" lon="23.48618">
        <ele>568.736529</ele>
        <time>2022-03-09T11:03:06.388Z</time>
      </trkpt>
      <trkpt lat="42.70557" lon="23.48602">
        <ele>568.769466</ele>
        <time>2022-03-09T11:03:09.400Z</time>
      </trkpt>
      <trkpt lat="42.70557" lon="23.48586">
        <ele>568.804495</ele>
        <time>2022-03-09T11:03:12.410Z</time>
      </trkpt>
      <trkpt lat="42.70557" lon="23.48568">
        <ele>568.84101</ele>
        <time>2022-03-09T11:03:15.407Z</time>
      </trkpt>
      <trkpt lat="42.70557" lon="23.48552">
        <ele>568.875857</ele>
        <time>2022-03-09T11:03:18.407Z</time>
      </trkpt>
      <trkpt lat="42.70558" lon="23.48536">
        <ele>568.90941</ele>
        <time>2022-03-09T11:03:21.437Z</time>
      </trkpt>
      <trkpt lat="42.70559" lon="23.4852">
        <ele>568.653273</ele>
        <time>2022-03-09T11:03:24.400Z</time>
      </trkpt>
      <trkpt lat="42.70561" lon="23.48503">
        <ele>568.247358</ele>
        <time>2022-03-09T11:03:27.416Z</time>
      </trkpt>
      <trkpt lat="42.70563" lon="23.48485">
        <ele>567.839637</ele>
        <time>2022-03-09T11:03:30.402Z</time>
      </trkpt>
      <trkpt lat="42.70564" lon="23.48468">
        <ele>567.427472</ele>
        <time>2022-03-09T11:03:33.398Z</time>
      </trkpt>
      <trkpt lat="42.70566" lon="23.48451">
        <ele>567.02624</ele>
        <time>2022-03-09T11:03:36.399Z</time>
      </trkpt>
      <trkpt lat="42.70567" lon="23.48437">
        <ele>566.684268</ele>
        <time>2022-03-09T11:03:39.403Z</time>
      </trkpt>
      <trkpt lat="42.70568" lon="23.4842">
        <ele>566.283804</ele>
        <time>2022-03-09T11:03:42.396Z</time>
      </trkpt>
      <trkpt lat="42.70569" lon="23.48403">
        <ele>565.879612</ele>
        <time>2022-03-09T11:03:45.395Z</time>
      </trkpt>
      <trkpt lat="42.7057" lon="23.48385">
        <ele>565.468645</ele>
        <time>2022-03-09T11:03:48.416Z</time>
      </trkpt>
      <trkpt lat="42.70571" lon="23.48368">
        <ele>565.064719</ele>
        <time>2022-03-09T11:03:51.416Z</time>
      </trkpt>
      <trkpt lat="42.70572" lon="23.48351">
        <ele>564.6561</ele>
        <time>2022-03-09T11:03:54.407Z</time>
      </trkpt>
      <trkpt lat="42.70572" lon="23.48334">
        <ele>564.265103</ele>
        <time>2022-03-09T11:03:57.432Z</time>
      </trkpt>
      <trkpt lat="42.70573" lon="23.48318">
        <ele>563.875734</ele>
        <time>2022-03-09T11:04:00.403Z</time>
      </trkpt>
      <trkpt lat="42.70575" lon="23.483">
        <ele>563.461519</ele>
        <time>2022-03-09T11:04:03.428Z</time>
      </trkpt>
      <trkpt lat="42.70575" lon="23.48285">
        <ele>563.068512</ele>
        <time>2022-03-09T11:04:06.432Z</time>
      </trkpt>
      <trkpt lat="42.70575" lon="23.48269">
        <ele>562.393488</ele>
        <time>2022-03-09T11:04:09.398Z</time>
      </trkpt>
      <trkpt lat="42.70575" lon="23.48251">
        <ele>561.657484</ele>
        <time>2022-03-09T11:04:12.437Z</time>
      </trkpt>
      <trkpt lat="42.70576" lon="23.48234">
        <ele>560.996009</ele>
        <time>2022-03-09T11:04:15.403Z</time>
      </trkpt>
      <trkpt lat="42.70578" lon="23.48218">
        <ele>560.337032</ele>
        <time>2022-03-09T11:04:18.400Z</time>
      </trkpt>
      <trkpt lat="42.70579" lon="23.48202">
        <ele>559.666364</ele>
        <time>2022-03-09T11:04:21.393Z</time>
      </trkpt>
      <trkpt lat="42.70581" lon="23.48185">
        <ele>558.970203</ele>
        <time>2022-03-09T11:04:24.398Z</time>
      </trkpt>
      <trkpt lat="42.70583" lon="23.48168">
        <ele>558.27187</ele>
        <time>2022-03-09T11:04:27.475Z</time>
      </trkpt>
      <trkpt lat="42.70584" lon="23.48151">
        <ele>557.577493</ele>
        <time>2022-03-09T11:04:30.402Z</time>
      </trkpt>
      <trkpt lat="42.70585" lon="23.48134">
        <ele>556.905168</ele>
        <time>2022-03-09T11:04:33.408Z</time>
      </trkpt>
      <trkpt lat="42.70586" lon="23.48118">
        <ele>556.214285</ele>
        <time>2022-03-09T11:04:36.406Z</time>
      </trkpt>
      <trkpt lat="42.70587" lon="23.48101">
        <ele>555.553737</ele>
        <time>2022-03-09T11:04:39.393Z</time>
      </trkpt>
      <trkpt lat="42.70588" lon="23.48085">
        <ele>554.905351</ele>
        <time>2022-03-09T11:04:42.392Z</time>
      </trkpt>
      <trkpt lat="42.70589" lon="23.4807">
        <ele>554.26867</ele>
        <time>2022-03-09T11:04:45.445Z</time>
      </trkpt>
      <trkpt lat="42.7059" lon="23.48054">
        <ele>553.629685</ele>
        <time>2022-03-09T11:04:48.497Z</time>
      </trkpt>
      <trkpt lat="42.70591" lon="23.48038">
        <ele>553.230587</ele>
        <time>2022-03-09T11:04:51.395Z</time>
      </trkpt>
      <trkpt lat="42.70592" lon="23.48023">
        <ele>553.295752</ele>
        <time>2022-03-09T11:04:54.411Z</time>
      </trkpt>
      <trkpt lat="42.70592" lon="23.48007">
        <ele>553.364125</ele>
        <time>2022-03-09T11:04:57.440Z</time>
      </trkpt>
      <trkpt lat="42.70593" lon="23.47991">
        <ele>553.431803</ele>
        <time>2022-03-09T11:05:00.399Z</time>
      </trkpt>
      <trkpt lat="42.70593" lon="23.47975">
        <ele>553.500613</ele>
        <time>2022-03-09T11:05:03.378Z</time>
      </trkpt>
      <trkpt lat="42.70594" lon="23.47958">
        <ele>553.57477</ele>
        <time>2022-03-09T11:05:06.488Z</time>
      </trkpt>
      <trkpt lat="42.70595" lon="23.47941">
        <ele>553.644774</ele>
        <time>2022-03-09T11:05:09.393Z</time>
      </trkpt>
      <trkpt lat="42.70596" lon="23.47925">
        <ele>553.714352</ele>
        <time>2022-03-09T11:05:12.400Z</time>
      </trkpt>
      <trkpt lat="42.70598" lon="23.47909">
        <ele>553.782292</ele>
        <time>2022-03-09T11:05:15.401Z</time>
      </trkpt>
      <trkpt lat="42.70599" lon="23.47893">
        <ele>553.851717</ele>
        <time>2022-03-09T11:05:18.419Z</time>
      </trkpt>
      <trkpt lat="42.706" lon="23.47876">
        <ele>553.925549</ele>
        <time>2022-03-09T11:05:21.413Z</time>
      </trkpt>
      <trkpt lat="42.70601" lon="23.47859">
        <ele>554.000088</ele>
        <time>2022-03-09T11:05:24.411Z</time>
      </trkpt>
      <trkpt lat="42.70602" lon="23.47842">
        <ele>554.072276</ele>
        <time>2022-03-09T11:05:27.401Z</time>
      </trkpt>
      <trkpt lat="42.70603" lon="23.47825">
        <ele>554.145377</ele>
        <time>2022-03-09T11:05:30.408Z</time>
      </trkpt>
      <trkpt lat="42.70604" lon="23.47807">
        <ele>554.221035</ele>
        <time>2022-03-09T11:05:33.409Z</time>
      </trkpt>
      <trkpt lat="42.70604" lon="23.4779">
        <ele>554.283997</ele>
        <time>2022-03-09T11:05:36.415Z</time>
      </trkpt>
      <trkpt lat="42.70605" lon="23.47773">
        <ele>554.340898</ele>
        <time>2022-03-09T11:05:39.389Z</time>
      </trkpt>
      <trkpt lat="42.70606" lon="23.47755">
        <ele>554.398404</ele>
        <time>2022-03-09T11:05:42.399Z</time>
      </trkpt>
      <trkpt lat="42.70606" lon="23.47743">
        <ele>554.438802</ele>
        <time>2022-03-09T11:05:44.400Z</time>
      </trkpt>
      <trkpt lat="42.70607" lon="23.4773">
        <ele>554.482571</ele>
        <time>2022-03-09T11:05:46.395Z</time>
      </trkpt>
      <trkpt lat="42.70608" lon="23.47716">
        <ele>554.52635</ele>
        <time>2022-03-09T11:05:48.413Z</time>
      </trkpt>
      <trkpt lat="42.70609" lon="23.47704">
        <ele>554.56818</ele>
        <time>2022-03-09T11:05:50.409Z</time>
      </trkpt>
      <trkpt lat="42.7061" lon="23.47691">
        <ele>554.610715</ele>
        <time>2022-03-09T11:05:52.394Z</time>
      </trkpt>
      <trkpt lat="42.70611" lon="23.47678">
        <ele>554.651834</ele>
        <time>2022-03-09T11:05:54.549Z</time>
      </trkpt>
      <trkpt lat="42.70612" lon="23.47666">
        <ele>554.692694</ele>
        <time>2022-03-09T11:05:56.390Z</time>
      </trkpt>
      <trkpt lat="42.70613" lon="23.47648">
        <ele>554.751916</ele>
        <time>2022-03-09T11:05:59.409Z</time>
      </trkpt>
      <trkpt lat="42.70613" lon="23.47629">
        <ele>554.813012</ele>
        <time>2022-03-09T11:06:02.409Z</time>
      </trkpt>
      <trkpt lat="42.70614" lon="23.47611">
        <ele>554.873516</ele>
        <time>2022-03-09T11:06:05.384Z</time>
      </trkpt>
      <trkpt lat="42.70615" lon="23.47593">
        <ele>554.934194</ele>
        <time>2022-03-09T11:06:08.401Z</time>
      </trkpt>
      <trkpt lat="42.70616" lon="23.4758">
        <ele>554.975708</ele>
        <time>2022-03-09T11:06:10.405Z</time>
      </trkpt>
      <trkpt lat="42.70617" lon="23.47568">
        <ele>555.016437</ele>
        <time>2022-03-09T11:06:12.399Z</time>
      </trkpt>
      <trkpt lat="42.70618" lon="23.47555">
        <ele>555.058146</ele>
        <time>2022-03-09T11:06:14.412Z</time>
      </trkpt>
      <trkpt lat="42.70619" lon="23.47537">
        <ele>555.131231</ele>
        <time>2022-03-09T11:06:17.416Z</time>
      </trkpt>
      <trkpt lat="42.7062" lon="23.47524">
        <ele>555.18056</ele>
        <time>2022-03-09T11:06:19.419Z</time>
      </trkpt>
      <trkpt lat="42.70621" lon="23.47512">
        <ele>555.230233</ele>
        <time>2022-03-09T11:06:21.400Z</time>
      </trkpt>
      <trkpt lat="42.70623" lon="23.47494">
        <ele>555.301294</ele>
        <time>2022-03-09T11:06:24.411Z</time>
      </trkpt>
      <trkpt lat="42.70625" lon="23.47477">
        <ele>555.369453</ele>
        <time>2022-03-09T11:06:27.413Z</time>
      </trkpt>
      <trkpt lat="42.70625" lon="23.4746">
        <ele>555.43765</ele>
        <time>2022-03-09T11:06:30.400Z</time>
      </trkpt>
      <trkpt lat="42.70626" lon="23.47442">
        <ele>555.50695</ele>
        <time>2022-03-09T11:06:33.411Z</time>
      </trkpt>
      <trkpt lat="42.70627" lon="23.47425">
        <ele>555.5753</ele>
        <time>2022-03-09T11:06:36.393Z</time>
      </trkpt>
      <trkpt lat="42.70628" lon="23.47409">
        <ele>555.638919</ele>
        <time>2022-03-09T11:06:39.396Z</time>
      </trkpt>
      <trkpt lat="42.70629" lon="23.47393">
        <ele>555.705664</ele>
        <time>2022-03-09T11:06:42.399Z</time>
      </trkpt>
      <trkpt lat="42.7063" lon="23.47376">
        <ele>555.773019</ele>
        <time>2022-03-09T11:06:45.429Z</time>
      </trkpt>
      <trkpt lat="42.7063" lon="23.47358">
        <ele>555.841146</ele>
        <time>2022-03-09T11:06:48.408Z</time>
      </trkpt>
      <trkpt lat="42.70631" lon="23.47342">
        <ele>555.904966</ele>
        <time>2022-03-09T11:06:51.437Z</time>
      </trkpt>
      <trkpt lat="42.70632" lon="23.4733">
        <ele>555.953113</ele>
        <time>2022-03-09T11:06:53.399Z</time>
      </trkpt>
      <trkpt lat="42.70633" lon="23.47317">
        <ele>556.006948</ele>
        <time>2022-03-09T11:06:55.402Z</time>
      </trkpt>
      <trkpt lat="42.70634" lon="23.47304">
        <ele>556.123304</ele>
        <time>2022-03-09T11:06:57.414Z</time>
      </trkpt>
      <trkpt lat="42.70635" lon="23.47291">
        <ele>556.270959</ele>
        <time>2022-03-09T11:06:59.402Z</time>
      </trkpt>
      <trkpt lat="42.70636" lon="23.47273">
        <ele>556.480111</ele>
        <time>2022-03-09T11:07:02.453Z</time>
      </trkpt>
      <trkpt lat="42.70637" lon="23.47261">
        <ele>556.62862</ele>
        <time>2022-03-09T11:07:04.398Z</time>
      </trkpt>
      <trkpt lat="42.70637" lon="23.47248">
        <ele>556.773517</ele>
        <time>2022-03-09T11:07:06.406Z</time>
      </trkpt>
      <trkpt lat="42.70638" lon="23.4723">
        <ele>556.983615</ele>
        <time>2022-03-09T11:07:09.390Z</time>
      </trkpt>
      <trkpt lat="42.70639" lon="23.47212">
        <ele>557.191152</ele>
        <time>2022-03-09T11:07:12.437Z</time>
      </trkpt>
      <trkpt lat="42.7064" lon="23.47195">
        <ele>557.392604</ele>
        <time>2022-03-09T11:07:15.406Z</time>
      </trkpt>
      <trkpt lat="42.70641" lon="23.47177">
        <ele>557.601757</ele>
        <time>2022-03-09T11:07:18.401Z</time>
      </trkpt>
      <trkpt lat="42.70643" lon="23.4716">
        <ele>557.802595</ele>
        <time>2022-03-09T11:07:21.407Z</time>
      </trkpt>
      <trkpt lat="42.70643" lon="23.47143">
        <ele>558.003391</ele>
        <time>2022-03-09T11:07:24.420Z</time>
      </trkpt>
      <trkpt lat="42.70644" lon="23.47125">
        <ele>558.208599</ele>
        <time>2022-03-09T11:07:27.437Z</time>
      </trkpt>
      <trkpt lat="42.70645" lon="23.47113">
        <ele>558.351172</ele>
        <time>2022-03-09T11:07:29.385Z</time>
      </trkpt>
      <trkpt lat="42.70647" lon="23.47095">
        <ele>558.563768</ele>
        <time>2022-03-09T11:07:32.396Z</time>
      </trkpt>
      <trkpt lat="42.70649" lon="23.47078">
        <ele>558.770894</ele>
        <time>2022-03-09T11:07:35.439Z</time>
      </trkpt>
      <trkpt lat="42.70651" lon="23.47061">
        <ele>558.992162</ele>
        <time>2022-03-09T11:07:38.405Z</time>
      </trkpt>
      <trkpt lat="42.70655" lon="23.47045">
        <ele>559.237997</ele>
        <time>2022-03-09T11:07:41.404Z</time>
      </trkpt>
      <trkpt lat="42.70659" lon="23.47029">
        <ele>559.484188</ele>
        <time>2022-03-09T11:07:44.431Z</time>
      </trkpt>
      <trkpt lat="42.70663" lon="23.47014">
        <ele>559.717568</ele>
        <time>2022-03-09T11:07:47.400Z</time>
      </trkpt>
      <trkpt lat="42.70669" lon="23.47">
        <ele>559.95443</ele>
        <time>2022-03-09T11:07:50.420Z</time>
      </trkpt>
      <trkpt lat="42.70674" lon="23.46984">
        <ele>560.202694</ele>
        <time>2022-03-09T11:07:53.396Z</time>
      </trkpt>
      <trkpt lat="42.70681" lon="23.4697">
        <ele>560.453505</ele>
        <time>2022-03-09T11:07:56.433Z</time>
      </trkpt>
      <trkpt lat="42.70688" lon="23.46958">
        <ele>560.676671</ele>
        <time>2022-03-09T11:07:59.410Z</time>
      </trkpt>
      <trkpt lat="42.70695" lon="23.46946">
        <ele>560.901059</ele>
        <time>2022-03-09T11:08:02.408Z</time>
      </trkpt>
      <trkpt lat="42.70702" lon="23.46934">
        <ele>561.116043</ele>
        <time>2022-03-09T11:08:05.398Z</time>
      </trkpt>
      <trkpt lat="42.7071" lon="23.46923">
        <ele>561.344355</ele>
        <time>2022-03-09T11:08:08.411Z</time>
      </trkpt>
      <trkpt lat="42.70718" lon="23.46913">
        <ele>561.561293</ele>
        <time>2022-03-09T11:08:11.397Z</time>
      </trkpt>
      <trkpt lat="42.70727" lon="23.46902">
        <ele>561.802432</ele>
        <time>2022-03-09T11:08:14.411Z</time>
      </trkpt>
      <trkpt lat="42.70736" lon="23.46893">
        <ele>562.028813</ele>
        <time>2022-03-09T11:08:17.434Z</time>
      </trkpt>
      <trkpt lat="42.70746" lon="23.46883">
        <ele>562.268362</ele>
        <time>2022-03-09T11:08:20.405Z</time>
      </trkpt>
      <trkpt lat="42.70756" lon="23.46874">
        <ele>562.562651</ele>
        <time>2022-03-09T11:08:23.409Z</time>
      </trkpt>
      <trkpt lat="42.70765" lon="23.46865">
        <ele>563.019008</ele>
        <time>2022-03-09T11:08:26.416Z</time>
      </trkpt>
      <trkpt lat="42.70774" lon="23.46857">
        <ele>563.455552</ele>
        <time>2022-03-09T11:08:29.450Z</time>
      </trkpt>
      <trkpt lat="42.70783" lon="23.46849">
        <ele>563.883924</ele>
        <time>2022-03-09T11:08:32.422Z</time>
      </trkpt>
      <trkpt lat="42.70792" lon="23.46842">
        <ele>564.27762</ele>
        <time>2022-03-09T11:08:35.410Z</time>
      </trkpt>
      <trkpt lat="42.708" lon="23.46834">
        <ele>564.679406</ele>
        <time>2022-03-09T11:08:38.400Z</time>
      </trkpt>
      <trkpt lat="42.70809" lon="23.46825">
        <ele>565.144249</ele>
        <time>2022-03-09T11:08:42.414Z</time>
      </trkpt>
      <trkpt lat="42.70818" lon="23.46816">
        <ele>565.59944</ele>
        <time>2022-03-09T11:08:46.412Z</time>
      </trkpt>
      <trkpt lat="42.70827" lon="23.46807">
        <ele>566.030208</ele>
        <time>2022-03-09T11:08:50.414Z</time>
      </trkpt>
      <trkpt lat="42.70836" lon="23.46799">
        <ele>566.442137</ele>
        <time>2022-03-09T11:08:54.418Z</time>
      </trkpt>
      <trkpt lat="42.70844" lon="23.46791">
        <ele>566.862112</ele>
        <time>2022-03-09T11:08:58.395Z</time>
      </trkpt>
      <trkpt lat="42.70853" lon="23.46783">
        <ele>567.269125</ele>
        <time>2022-03-09T11:09:02.454Z</time>
      </trkpt>
      <trkpt lat="42.70861" lon="23.46775">
        <ele>567.689137</ele>
        <time>2022-03-09T11:09:06.403Z</time>
      </trkpt>
      <trkpt lat="42.70868" lon="23.46767">
        <ele>568.060368</ele>
        <time>2022-03-09T11:09:10.431Z</time>
      </trkpt>
      <trkpt lat="42.70876" lon="23.4676">
        <ele>568.424169</ele>
        <time>2022-03-09T11:09:14.396Z</time>
      </trkpt>
      <trkpt lat="42.70883" lon="23.46753">
        <ele>568.785478</ele>
        <time>2022-03-09T11:09:18.403Z</time>
      </trkpt>
      <trkpt lat="42.70892" lon="23.46744">
        <ele>569.203927</ele>
        <time>2022-03-09T11:09:22.414Z</time>
      </trkpt>
      <trkpt lat="42.709" lon="23.46736">
        <ele>569.599557</ele>
        <time>2022-03-09T11:09:26.397Z</time>
      </trkpt>
      <trkpt lat="42.70909" lon="23.46727">
        <ele>569.083605</ele>
        <time>2022-03-09T11:09:30.441Z</time>
      </trkpt>
      <trkpt lat="42.70916" lon="23.46718">
        <ele>568.564147</ele>
        <time>2022-03-09T11:09:34.393Z</time>
      </trkpt>
      <trkpt lat="42.70924" lon="23.46708">
        <ele>567.990138</ele>
        <time>2022-03-09T11:09:38.396Z</time>
      </trkpt>
      <trkpt lat="42.70932" lon="23.46697">
        <ele>567.40229</ele>
        <time>2022-03-09T11:09:42.411Z</time>
      </trkpt>
      <trkpt lat="42.7094" lon="23.46685">
        <ele>566.816509</ele>
        <time>2022-03-09T11:09:46.404Z</time>
      </trkpt>
      <trkpt lat="42.70946" lon="23.46675">
        <ele>566.270731</ele>
        <time>2022-03-09T11:09:50.443Z</time>
      </trkpt>
      <trkpt lat="42.70952" lon="23.46665">
        <ele>565.797522</ele>
        <time>2022-03-09T11:09:53.427Z</time>
      </trkpt>
      <trkpt lat="42.70959" lon="23.46652">
        <ele>565.175754</ele>
        <time>2022-03-09T11:09:57.436Z</time>
      </trkpt>
      <trkpt lat="42.70964" lon="23.4664">
        <ele>564.660308</ele>
        <time>2022-03-09T11:10:00.445Z</time>
      </trkpt>
      <trkpt lat="42.70968" lon="23.46628">
        <ele>564.142235</ele>
        <time>2022-03-09T11:10:03.411Z</time>
      </trkpt>
      <trkpt lat="42.70973" lon="23.46614">
        <ele>563.566375</ele>
        <time>2022-03-09T11:10:06.438Z</time>
      </trkpt>
      <trkpt lat="42.70977" lon="23.46598">
        <ele>562.901615</ele>
        <time>2022-03-09T11:10:09.390Z</time>
      </trkpt>
      <trkpt lat="42.7098" lon="23.46581">
        <ele>562.219454</ele>
        <time>2022-03-09T11:10:12.400Z</time>
      </trkpt>
      <trkpt lat="42.70982" lon="23.46568">
        <ele>561.727402</ele>
        <time>2022-03-09T11:10:14.396Z</time>
      </trkpt>
      <trkpt lat="42.70984" lon="23.46554">
        <ele>561.169756</ele>
        <time>2022-03-09T11:10:16.497Z</time>
      </trkpt>
      <trkpt lat="42.70986" lon="23.46538">
        <ele>560.550735</ele>
        <time>2022-03-09T11:10:18.392Z</time>
      </trkpt>
      <trkpt lat="42.70987" lon="23.46523">
        <ele>560.066126</ele>
        <time>2022-03-09T11:10:20.403Z</time>
      </trkpt>
      <trkpt lat="42.70988" lon="23.46509">
        <ele>559.672851</ele>
        <time>2022-03-09T11:10:22.433Z</time>
      </trkpt>
      <trkpt lat="42.70988" lon="23.46494">
        <ele>559.270529</ele>
        <time>2022-03-09T11:10:24.404Z</time>
      </trkpt>
      <trkpt lat="42.70987" lon="23.46477">
        <ele>558.839782</ele>
        <time>2022-03-09T11:10:26.438Z</time>
      </trkpt>
      <trkpt lat="42.70986" lon="23.46461">
        <ele>558.396083</ele>
        <time>2022-03-09T11:10:28.440Z</time>
      </trkpt>
      <trkpt lat="42.70984" lon="23.46444">
        <ele>557.938218</ele>
        <time>2022-03-09T11:10:30.411Z</time>
      </trkpt>
      <trkpt lat="42.7098" lon="23.46427">
        <ele>557.476778</ele>
        <time>2022-03-09T11:10:32.401Z</time>
      </trkpt>
      <trkpt lat="42.70976" lon="23.46411">
        <ele>557.020336</ele>
        <time>2022-03-09T11:10:34.427Z</time>
      </trkpt>
      <trkpt lat="42.70972" lon="23.46396">
        <ele>556.586935</ele>
        <time>2022-03-09T11:10:36.411Z</time>
      </trkpt>
      <trkpt lat="42.70966" lon="23.46382">
        <ele>556.158628</ele>
        <time>2022-03-09T11:10:38.397Z</time>
      </trkpt>
      <trkpt lat="42.7096" lon="23.46368">
        <ele>555.728158</ele>
        <time>2022-03-09T11:10:40.412Z</time>
      </trkpt>
      <trkpt lat="42.70954" lon="23.46354">
        <ele>555.312753</ele>
        <time>2022-03-09T11:10:42.429Z</time>
      </trkpt>
      <trkpt lat="42.70948" lon="23.46342">
        <ele>554.923419</ele>
        <time>2022-03-09T11:10:44.408Z</time>
      </trkpt>
      <trkpt lat="42.70942" lon="23.46331">
        <ele>554.545591</ele>
        <time>2022-03-09T11:10:46.429Z</time>
      </trkpt>
      <trkpt lat="42.70936" lon="23.46321">
        <ele>554.210371</ele>
        <time>2022-03-09T11:10:48.432Z</time>
      </trkpt>
      <trkpt lat="42.7093" lon="23.46312">
        <ele>553.877819</ele>
        <time>2022-03-09T11:10:50.424Z</time>
      </trkpt>
      <trkpt lat="42.70923" lon="23.46303">
        <ele>553.650189</ele>
        <time>2022-03-09T11:10:52.401Z</time>
      </trkpt>
      <trkpt lat="42.70916" lon="23.46294">
        <ele>553.513559</ele>
        <time>2022-03-09T11:10:54.417Z</time>
      </trkpt>
      <trkpt lat="42.70908" lon="23.46285">
        <ele>553.377885</ele>
        <time>2022-03-09T11:10:56.448Z</time>
      </trkpt>
      <trkpt lat="42.70901" lon="23.46276">
        <ele>553.251599</ele>
        <time>2022-03-09T11:10:58.411Z</time>
      </trkpt>
      <trkpt lat="42.70894" lon="23.46268">
        <ele>553.128544</ele>
        <time>2022-03-09T11:11:00.434Z</time>
      </trkpt>
      <trkpt lat="42.70887" lon="23.46261">
        <ele>553.006121</ele>
        <time>2022-03-09T11:11:02.441Z</time>
      </trkpt>
      <trkpt lat="42.70877" lon="23.46249">
        <ele>552.82561</ele>
        <time>2022-03-09T11:11:05.410Z</time>
      </trkpt>
      <trkpt lat="42.70867" lon="23.46238">
        <ele>552.654539</ele>
        <time>2022-03-09T11:11:08.430Z</time>
      </trkpt>
      <trkpt lat="42.70857" lon="23.46226">
        <ele>552.471314</ele>
        <time>2022-03-09T11:11:11.414Z</time>
      </trkpt>
      <trkpt lat="42.7085" lon="23.46218">
        <ele>552.347711</ele>
        <time>2022-03-09T11:11:13.451Z</time>
      </trkpt>
      <trkpt lat="42.7084" lon="23.46206">
        <ele>552.16861</ele>
        <time>2022-03-09T11:11:16.423Z</time>
      </trkpt>
      <trkpt lat="42.70834" lon="23.46196">
        <ele>552.042641</ele>
        <time>2022-03-09T11:11:18.412Z</time>
      </trkpt>
      <trkpt lat="42.70828" lon="23.46187">
        <ele>551.91896</ele>
        <time>2022-03-09T11:11:20.408Z</time>
      </trkpt>
      <trkpt lat="42.70822" lon="23.46177">
        <ele>551.791255</ele>
        <time>2022-03-09T11:11:22.405Z</time>
      </trkpt>
      <trkpt lat="42.70813" lon="23.46163">
        <ele>551.60882</ele>
        <time>2022-03-09T11:11:25.413Z</time>
      </trkpt>
      <trkpt lat="42.70805" lon="23.46149">
        <ele>551.433331</ele>
        <time>2022-03-09T11:11:28.416Z</time>
      </trkpt>
      <trkpt lat="42.70799" lon="23.46135">
        <ele>551.393032</ele>
        <time>2022-03-09T11:11:31.415Z</time>
      </trkpt>
      <trkpt lat="42.70793" lon="23.4612">
        <ele>552.192971</ele>
        <time>2022-03-09T11:11:34.403Z</time>
      </trkpt>
      <trkpt lat="42.7079" lon="23.46107">
        <ele>552.909625</ele>
        <time>2022-03-09T11:11:37.415Z</time>
      </trkpt>
      <trkpt lat="42.70787" lon="23.46093">
        <ele>553.595498</ele>
        <time>2022-03-09T11:11:40.409Z</time>
      </trkpt>
      <trkpt lat="42.70784" lon="23.46079">
        <ele>554.325673</ele>
        <time>2022-03-09T11:11:43.415Z</time>
      </trkpt>
      <trkpt lat="42.7078" lon="23.46064">
        <ele>555.077661</ele>
        <time>2022-03-09T11:11:46.447Z</time>
      </trkpt>
      <trkpt lat="42.70778" lon="23.4605">
        <ele>555.800956</ele>
        <time>2022-03-09T11:11:49.410Z</time>
      </trkpt>
      <trkpt lat="42.70776" lon="23.46035">
        <ele>556.553967</ele>
        <time>2022-03-09T11:11:52.408Z</time>
      </trkpt>
      <trkpt lat="42.70775" lon="23.46019">
        <ele>557.347728</ele>
        <time>2022-03-09T11:11:55.409Z</time>
      </trkpt>
      <trkpt lat="42.70773" lon="23.46003">
        <ele>558.1172</ele>
        <time>2022-03-09T11:11:58.404Z</time>
      </trkpt>
      <trkpt lat="42.70772" lon="23.45989">
        <ele>558.848282</ele>
        <time>2022-03-09T11:12:01.404Z</time>
      </trkpt>
      <trkpt lat="42.7077" lon="23.45975">
        <ele>559.542943</ele>
        <time>2022-03-09T11:12:04.432Z</time>
      </trkpt>
      <trkpt lat="42.7077" lon="23.45961">
        <ele>560.210696</ele>
        <time>2022-03-09T11:12:07.421Z</time>
      </trkpt>
      <trkpt lat="42.7077" lon="23.45947">
        <ele>560.898219</ele>
        <time>2022-03-09T11:12:10.478Z</time>
      </trkpt>
      <trkpt lat="42.70769" lon="23.45932">
        <ele>561.631294</ele>
        <time>2022-03-09T11:12:13.419Z</time>
      </trkpt>
      <trkpt lat="42.70769" lon="23.45916">
        <ele>562.412091</ele>
        <time>2022-03-09T11:12:16.409Z</time>
      </trkpt>
      <trkpt lat="42.70768" lon="23.45901">
        <ele>563.152241</ele>
        <time>2022-03-09T11:12:19.409Z</time>
      </trkpt>
      <trkpt lat="42.70767" lon="23.45886">
        <ele>564.30229</ele>
        <time>2022-03-09T11:12:22.435Z</time>
      </trkpt>
      <trkpt lat="42.70766" lon="23.45872">
        <ele>565.520553</ele>
        <time>2022-03-09T11:12:25.480Z</time>
      </trkpt>
      <trkpt lat="42.70765" lon="23.45857">
        <ele>566.747911</ele>
        <time>2022-03-09T11:12:28.409Z</time>
      </trkpt>
      <trkpt lat="42.70765" lon="23.45843">
        <ele>567.898988</ele>
        <time>2022-03-09T11:12:31.471Z</time>
      </trkpt>
      <trkpt lat="42.70764" lon="23.4583">
        <ele>568.987357</ele>
        <time>2022-03-09T11:12:34.415Z</time>
      </trkpt>
      <trkpt lat="42.70763" lon="23.45816">
        <ele>570.199009</ele>
        <time>2022-03-09T11:12:38.409Z</time>
      </trkpt>
      <trkpt lat="42.70764" lon="23.45803">
        <ele>571.24932</ele>
        <time>2022-03-09T11:12:42.413Z</time>
      </trkpt>
      <trkpt lat="42.70773" lon="23.45796">
        <ele>572.422552</ele>
        <time>2022-03-09T11:12:46.417Z</time>
      </trkpt>
      <trkpt lat="42.70782" lon="23.45792">
        <ele>573.465819</ele>
        <time>2022-03-09T11:12:49.409Z</time>
      </trkpt>
      <trkpt lat="42.70791" lon="23.45789">
        <ele>574.519456</ele>
        <time>2022-03-09T11:12:52.406Z</time>
      </trkpt>
      <trkpt lat="42.708" lon="23.45785">
        <ele>575.566524</ele>
        <time>2022-03-09T11:12:56.408Z</time>
      </trkpt>
      <trkpt lat="42.70786" lon="23.45802">
        <ele>577.695353</ele>
        <time>2022-03-09T11:40:55.431Z</time>
      </trkpt>
      <trkpt lat="42.70781" lon="23.45791">
        <ele>578.739196</ele>
        <time>2022-03-09T11:44:59.445Z</time>
      </trkpt>
      <trkpt lat="42.7077" lon="23.45793">
        <ele>579.934688</ele>
        <time>2022-03-09T11:45:05.434Z</time>
      </trkpt>
      <trkpt lat="42.70761" lon="23.45793">
        <ele>581.033863</ele>
        <time>2022-03-09T11:45:10.439Z</time>
      </trkpt>
      <trkpt lat="42.70758" lon="23.45781">
        <ele>582.050377</ele>
        <time>2022-03-09T11:45:13.447Z</time>
      </trkpt>
      <trkpt lat="42.70755" lon="23.45766">
        <ele>583.307794</ele>
        <time>2022-03-09T11:45:16.413Z</time>
      </trkpt>
      <trkpt lat="42.70754" lon="23.45751">
        <ele>583.055221</ele>
        <time>2022-03-09T11:45:19.413Z</time>
      </trkpt>
      <trkpt lat="42.70753" lon="23.45735">
        <ele>582.122877</ele>
        <time>2022-03-09T11:45:22.404Z</time>
      </trkpt>
      <trkpt lat="42.70752" lon="23.45718">
        <ele>581.067796</ele>
        <time>2022-03-09T11:45:25.421Z</time>
      </trkpt>
      <trkpt lat="42.70752" lon="23.45701">
        <ele>580.061893</ele>
        <time>2022-03-09T11:45:28.426Z</time>
      </trkpt>
      <trkpt lat="42.70753" lon="23.45683">
        <ele>579.030913</ele>
        <time>2022-03-09T11:45:31.423Z</time>
      </trkpt>
      <trkpt lat="42.70754" lon="23.45667">
        <ele>578.046136</ele>
        <time>2022-03-09T11:45:34.438Z</time>
      </trkpt>
      <trkpt lat="42.70754" lon="23.4565">
        <ele>577.085531</ele>
        <time>2022-03-09T11:45:37.413Z</time>
      </trkpt>
      <trkpt lat="42.70754" lon="23.45634">
        <ele>576.103292</ele>
        <time>2022-03-09T11:45:40.425Z</time>
      </trkpt>
      <trkpt lat="42.70754" lon="23.45618">
        <ele>575.192144</ele>
        <time>2022-03-09T11:45:43.426Z</time>
      </trkpt>
      <trkpt lat="42.70755" lon="23.45603">
        <ele>574.262028</ele>
        <time>2022-03-09T11:45:46.499Z</time>
      </trkpt>
      <trkpt lat="42.70756" lon="23.45586">
        <ele>573.277251</ele>
        <time>2022-03-09T11:45:49.408Z</time>
      </trkpt>
      <trkpt lat="42.70757" lon="23.45569">
        <ele>572.274772</ele>
        <time>2022-03-09T11:45:52.421Z</time>
      </trkpt>
      <trkpt lat="42.70758" lon="23.45553">
        <ele>571.309725</ele>
        <time>2022-03-09T11:45:55.412Z</time>
      </trkpt>
      <trkpt lat="42.7076" lon="23.45537">
        <ele>570.344994</ele>
        <time>2022-03-09T11:45:58.414Z</time>
      </trkpt>
      <trkpt lat="42.70761" lon="23.4552">
        <ele>569.326123</ele>
        <time>2022-03-09T11:46:01.404Z</time>
      </trkpt>
      <trkpt lat="42.70763" lon="23.45504">
        <ele>568.995956</ele>
        <time>2022-03-09T11:46:04.455Z</time>
      </trkpt>
      <trkpt lat="42.70765" lon="23.45488">
        <ele>568.754103</ele>
        <time>2022-03-09T11:46:07.434Z</time>
      </trkpt>
      <trkpt lat="42.70766" lon="23.45471">
        <ele>568.504503</ele>
        <time>2022-03-09T11:46:10.400Z</time>
      </trkpt>
      <trkpt lat="42.70767" lon="23.45454">
        <ele>568.253592</ele>
        <time>2022-03-09T11:46:13.424Z</time>
      </trkpt>
      <trkpt lat="42.70768" lon="23.45437">
        <ele>567.999867</ele>
        <time>2022-03-09T11:46:16.419Z</time>
      </trkpt>
      <trkpt lat="42.70769" lon="23.4542">
        <ele>567.749112</ele>
        <time>2022-03-09T11:46:19.406Z</time>
      </trkpt>
      <trkpt lat="42.70769" lon="23.45403">
        <ele>567.495525</ele>
        <time>2022-03-09T11:46:22.419Z</time>
      </trkpt>
      <trkpt lat="42.7077" lon="23.45387">
        <ele>567.248112</ele>
        <time>2022-03-09T11:46:25.449Z</time>
      </trkpt>
      <trkpt lat="42.7077" lon="23.4537">
        <ele>566.995035</ele>
        <time>2022-03-09T11:46:28.418Z</time>
      </trkpt>
      <trkpt lat="42.7077" lon="23.45352">
        <ele>566.72556</ele>
        <time>2022-03-09T11:46:31.419Z</time>
      </trkpt>
      <trkpt lat="42.70771" lon="23.45334">
        <ele>566.454015</ele>
        <time>2022-03-09T11:46:34.429Z</time>
      </trkpt>
      <trkpt lat="42.70773" lon="23.45316">
        <ele>566.190017</ele>
        <time>2022-03-09T11:46:37.484Z</time>
      </trkpt>
      <trkpt lat="42.70774" lon="23.45299">
        <ele>565.942496</ele>
        <time>2022-03-09T11:46:40.406Z</time>
      </trkpt>
      <trkpt lat="42.70774" lon="23.45282">
        <ele>565.684452</ele>
        <time>2022-03-09T11:46:43.413Z</time>
      </trkpt>
      <trkpt lat="42.70775" lon="23.45265">
        <ele>565.494727</ele>
        <time>2022-03-09T11:46:46.425Z</time>
      </trkpt>
      <trkpt lat="42.70777" lon="23.45248">
        <ele>565.36381</ele>
        <time>2022-03-09T11:46:49.414Z</time>
      </trkpt>
      <trkpt lat="42.70777" lon="23.45231">
        <ele>565.230874</ele>
        <time>2022-03-09T11:46:52.406Z</time>
      </trkpt>
      <trkpt lat="42.70778" lon="23.45214">
        <ele>565.097162</ele>
        <time>2022-03-09T11:46:55.439Z</time>
      </trkpt>
      <trkpt lat="42.70779" lon="23.45197">
        <ele>564.965658</ele>
        <time>2022-03-09T11:46:58.429Z</time>
      </trkpt>
      <trkpt lat="42.7078" lon="23.4518">
        <ele>564.834001</ele>
        <time>2022-03-09T11:47:01.407Z</time>
      </trkpt>
      <trkpt lat="42.7078" lon="23.45163">
        <ele>564.69882</ele>
        <time>2022-03-09T11:47:04.460Z</time>
      </trkpt>
      <trkpt lat="42.70781" lon="23.45145">
        <ele>564.558016</ele>
        <time>2022-03-09T11:47:07.415Z</time>
      </trkpt>
      <trkpt lat="42.70782" lon="23.45128">
        <ele>564.423854</ele>
        <time>2022-03-09T11:47:10.460Z</time>
      </trkpt>
      <trkpt lat="42.70784" lon="23.45111">
        <ele>564.29321</ele>
        <time>2022-03-09T11:47:13.417Z</time>
      </trkpt>
      <trkpt lat="42.70785" lon="23.45095">
        <ele>564.16873</ele>
        <time>2022-03-09T11:47:16.414Z</time>
      </trkpt>
      <trkpt lat="42.70787" lon="23.45078">
        <ele>564.033966</ele>
        <time>2022-03-09T11:47:19.413Z</time>
      </trkpt>
      <trkpt lat="42.70789" lon="23.4506">
        <ele>563.893244</ele>
        <time>2022-03-09T11:47:22.412Z</time>
      </trkpt>
      <trkpt lat="42.70792" lon="23.45047">
        <ele>563.791166</ele>
        <time>2022-03-09T11:47:24.427Z</time>
      </trkpt>
      <trkpt lat="42.70793" lon="23.45034">
        <ele>563.689909</ele>
        <time>2022-03-09T11:47:26.426Z</time>
      </trkpt>
      <trkpt lat="42.70794" lon="23.45021">
        <ele>563.687384</ele>
        <time>2022-03-09T11:47:28.435Z</time>
      </trkpt>
      <trkpt lat="42.70794" lon="23.45009">
        <ele>563.721268</ele>
        <time>2022-03-09T11:47:30.428Z</time>
      </trkpt>
      <trkpt lat="42.70795" lon="23.44996">
        <ele>563.754705</ele>
        <time>2022-03-09T11:47:32.419Z</time>
      </trkpt>
      <trkpt lat="42.70796" lon="23.4498">
        <ele>563.799533</ele>
        <time>2022-03-09T11:47:35.435Z</time>
      </trkpt>
      <trkpt lat="42.70794" lon="23.44964">
        <ele>563.840824</ele>
        <time>2022-03-09T11:47:38.423Z</time>
      </trkpt>
      <trkpt lat="42.70792" lon="23.44947">
        <ele>563.888597</ele>
        <time>2022-03-09T11:47:41.420Z</time>
      </trkpt>
      <trkpt lat="42.70794" lon="23.4493">
        <ele>563.933839</ele>
        <time>2022-03-09T11:47:43.425Z</time>
      </trkpt>
      <trkpt lat="42.70795" lon="23.44911">
        <ele>563.984548</ele>
        <time>2022-03-09T11:47:45.426Z</time>
      </trkpt>
      <trkpt lat="42.70796" lon="23.44894">
        <ele>564.030821</ele>
        <time>2022-03-09T11:47:47.409Z</time>
      </trkpt>
      <trkpt lat="42.70797" lon="23.44879">
        <ele>564.070705</ele>
        <time>2022-03-09T11:47:49.425Z</time>
      </trkpt>
      <trkpt lat="42.70798" lon="23.44865">
        <ele>564.109022</ele>
        <time>2022-03-09T11:47:51.428Z</time>
      </trkpt>
      <trkpt lat="42.708" lon="23.44852">
        <ele>564.145717</ele>
        <time>2022-03-09T11:47:53.425Z</time>
      </trkpt>
      <trkpt lat="42.70802" lon="23.44838">
        <ele>564.183131</ele>
        <time>2022-03-09T11:47:55.424Z</time>
      </trkpt>
      <trkpt lat="42.70803" lon="23.44824">
        <ele>564.22068</ele>
        <time>2022-03-09T11:47:57.407Z</time>
      </trkpt>
      <trkpt lat="42.70805" lon="23.44811">
        <ele>564.256951</ele>
        <time>2022-03-09T11:47:59.424Z</time>
      </trkpt>
      <trkpt lat="42.70806" lon="23.44797">
        <ele>564.293176</ele>
        <time>2022-03-09T11:48:01.411Z</time>
      </trkpt>
      <trkpt lat="42.70807" lon="23.44784">
        <ele>564.328556</ele>
        <time>2022-03-09T11:48:03.419Z</time>
      </trkpt>
      <trkpt lat="42.70808" lon="23.44771">
        <ele>564.361495</ele>
        <time>2022-03-09T11:48:05.527Z</time>
      </trkpt>
      <trkpt lat="42.70809" lon="23.44757">
        <ele>564.394065</ele>
        <time>2022-03-09T11:48:07.422Z</time>
      </trkpt>
      <trkpt lat="42.70811" lon="23.44744">
        <ele>564.426067</ele>
        <time>2022-03-09T11:48:09.431Z</time>
      </trkpt>
      <trkpt lat="42.70811" lon="23.44732">
        <ele>564.457269</ele>
        <time>2022-03-09T11:48:11.437Z</time>
      </trkpt>
      <trkpt lat="42.70812" lon="23.44719">
        <ele>564.487498</ele>
        <time>2022-03-09T11:48:13.442Z</time>
      </trkpt>
      <trkpt lat="42.70813" lon="23.44707">
        <ele>564.517483</ele>
        <time>2022-03-09T11:48:15.427Z</time>
      </trkpt>
      <trkpt lat="42.70814" lon="23.44695">
        <ele>564.547365</ele>
        <time>2022-03-09T11:48:17.404Z</time>
      </trkpt>
      <trkpt lat="42.70816" lon="23.44677">
        <ele>564.590784</ele>
        <time>2022-03-09T11:48:20.430Z</time>
      </trkpt>
      <trkpt lat="42.70818" lon="23.4466">
        <ele>564.634882</ele>
        <time>2022-03-09T11:48:23.412Z</time>
      </trkpt>
      <trkpt lat="42.70818" lon="23.44647">
        <ele>564.666229</ele>
        <time>2022-03-09T11:48:25.443Z</time>
      </trkpt>
      <trkpt lat="42.70819" lon="23.44634">
        <ele>564.69782</ele>
        <time>2022-03-09T11:48:27.442Z</time>
      </trkpt>
      <trkpt lat="42.70819" lon="23.44621">
        <ele>564.729941</ele>
        <time>2022-03-09T11:48:29.427Z</time>
      </trkpt>
      <trkpt lat="42.70821" lon="23.44607">
        <ele>564.763448</ele>
        <time>2022-03-09T11:48:31.427Z</time>
      </trkpt>
      <trkpt lat="42.70823" lon="23.44594">
        <ele>564.79626</ele>
        <time>2022-03-09T11:48:33.413Z</time>
      </trkpt>
      <trkpt lat="42.70823" lon="23.4458">
        <ele>564.829546</ele>
        <time>2022-03-09T11:48:35.406Z</time>
      </trkpt>
      <trkpt lat="42.70823" lon="23.44567">
        <ele>564.863539</ele>
        <time>2022-03-09T11:48:37.422Z</time>
      </trkpt>
      <trkpt lat="42.70823" lon="23.44553">
        <ele>564.896324</ele>
        <time>2022-03-09T11:48:39.405Z</time>
      </trkpt>
      <trkpt lat="42.70824" lon="23.44539">
        <ele>564.92789</ele>
        <time>2022-03-09T11:48:41.422Z</time>
      </trkpt>
      <trkpt lat="42.70824" lon="23.44525">
        <ele>564.954378</ele>
        <time>2022-03-09T11:48:43.413Z</time>
      </trkpt>
      <trkpt lat="42.70825" lon="23.44512">
        <ele>564.979927</ele>
        <time>2022-03-09T11:48:45.421Z</time>
      </trkpt>
      <trkpt lat="42.70825" lon="23.44498">
        <ele>565.005507</ele>
        <time>2022-03-09T11:48:47.422Z</time>
      </trkpt>
      <trkpt lat="42.70826" lon="23.44485">
        <ele>565.030707</ele>
        <time>2022-03-09T11:48:49.444Z</time>
      </trkpt>
      <trkpt lat="42.70827" lon="23.44472">
        <ele>565.056497</ele>
        <time>2022-03-09T11:48:51.409Z</time>
      </trkpt>
      <trkpt lat="42.70828" lon="23.44459">
        <ele>565.081299</ele>
        <time>2022-03-09T11:48:53.402Z</time>
      </trkpt>
      <trkpt lat="42.70828" lon="23.44446">
        <ele>565.10612</ele>
        <time>2022-03-09T11:48:55.401Z</time>
      </trkpt>
      <trkpt lat="42.70829" lon="23.44432">
        <ele>565.13172</ele>
        <time>2022-03-09T11:48:57.417Z</time>
      </trkpt>
      <trkpt lat="42.7083" lon="23.44419">
        <ele>565.157853</ele>
        <time>2022-03-09T11:48:59.408Z</time>
      </trkpt>
      <trkpt lat="42.7083" lon="23.44406">
        <ele>565.182293</ele>
        <time>2022-03-09T11:49:01.412Z</time>
      </trkpt>
      <trkpt lat="42.70832" lon="23.44387">
        <ele>565.217302</ele>
        <time>2022-03-09T11:49:04.401Z</time>
      </trkpt>
      <trkpt lat="42.70832" lon="23.44375">
        <ele>565.240414</ele>
        <time>2022-03-09T11:49:06.419Z</time>
      </trkpt>
      <trkpt lat="42.70833" lon="23.44357">
        <ele>565.275186</ele>
        <time>2022-03-09T11:49:09.406Z</time>
      </trkpt>
      <trkpt lat="42.70835" lon="23.44339">
        <ele>565.310384</ele>
        <time>2022-03-09T11:49:12.404Z</time>
      </trkpt>
      <trkpt lat="42.70836" lon="23.44326">
        <ele>565.334612</ele>
        <time>2022-03-09T11:49:14.408Z</time>
      </trkpt>
      <trkpt lat="42.70837" lon="23.44313">
        <ele>565.358883</ele>
        <time>2022-03-09T11:49:16.451Z</time>
      </trkpt>
      <trkpt lat="42.70837" lon="23.44296">
        <ele>565.391572</ele>
        <time>2022-03-09T11:49:19.421Z</time>
      </trkpt>
      <trkpt lat="42.70839" lon="23.44279">
        <ele>565.425527</ele>
        <time>2022-03-09T11:49:22.416Z</time>
      </trkpt>
      <trkpt lat="42.7084" lon="23.44266">
        <ele>565.448853</ele>
        <time>2022-03-09T11:49:24.407Z</time>
      </trkpt>
      <trkpt lat="42.70841" lon="23.44253">
        <ele>565.4731</ele>
        <time>2022-03-09T11:49:26.395Z</time>
      </trkpt>
      <trkpt lat="42.70842" lon="23.44241">
        <ele>565.496507</ele>
        <time>2022-03-09T11:49:28.408Z</time>
      </trkpt>
      <trkpt lat="42.70844" lon="23.44223">
        <ele>565.530227</ele>
        <time>2022-03-09T11:49:31.386Z</time>
      </trkpt>
      <trkpt lat="42.70845" lon="23.44206">
        <ele>565.563271</ele>
        <time>2022-03-09T11:49:34.424Z</time>
      </trkpt>
      <trkpt lat="42.70847" lon="23.44189">
        <ele>565.595053</ele>
        <time>2022-03-09T11:49:37.413Z</time>
      </trkpt>
      <trkpt lat="42.70847" lon="23.44174">
        <ele>565.623777</ele>
        <time>2022-03-09T11:49:40.434Z</time>
      </trkpt>
      <trkpt lat="42.70846" lon="23.44156">
        <ele>565.657543</ele>
        <time>2022-03-09T11:49:43.405Z</time>
      </trkpt>
      <trkpt lat="42.70846" lon="23.44144">
        <ele>565.681913</ele>
        <time>2022-03-09T11:49:45.403Z</time>
      </trkpt>
      <trkpt lat="42.70846" lon="23.4413">
        <ele>565.707436</ele>
        <time>2022-03-09T11:49:47.409Z</time>
      </trkpt>
      <trkpt lat="42.70848" lon="23.44117">
        <ele>565.732937</ele>
        <time>2022-03-09T11:49:49.457Z</time>
      </trkpt>
      <trkpt lat="42.70848" lon="23.44104">
        <ele>565.757528</ele>
        <time>2022-03-09T11:49:51.391Z</time>
      </trkpt>
      <trkpt lat="42.70849" lon="23.4409">
        <ele>565.782905</ele>
        <time>2022-03-09T11:49:53.411Z</time>
      </trkpt>
      <trkpt lat="42.70849" lon="23.44077">
        <ele>565.808051</ele>
        <time>2022-03-09T11:49:55.416Z</time>
      </trkpt>
      <trkpt lat="42.70849" lon="23.44064">
        <ele>565.832809</ele>
        <time>2022-03-09T11:49:57.419Z</time>
      </trkpt>
      <trkpt lat="42.7085" lon="23.4405">
        <ele>565.7816</ele>
        <time>2022-03-09T11:49:59.400Z</time>
      </trkpt>
      <trkpt lat="42.7085" lon="23.44037">
        <ele>565.650341</ele>
        <time>2022-03-09T11:50:01.403Z</time>
      </trkpt>
      <trkpt lat="42.70851" lon="23.44024">
        <ele>565.520984</ele>
        <time>2022-03-09T11:50:03.400Z</time>
      </trkpt>
      <trkpt lat="42.70852" lon="23.44012">
        <ele>565.394093</ele>
        <time>2022-03-09T11:50:05.430Z</time>
      </trkpt>
      <trkpt lat="42.70853" lon="23.43999">
        <ele>565.263633</ele>
        <time>2022-03-09T11:50:07.410Z</time>
      </trkpt>
      <trkpt lat="42.70854" lon="23.43986">
        <ele>565.136038</ele>
        <time>2022-03-09T11:50:09.408Z</time>
      </trkpt>
      <trkpt lat="42.70855" lon="23.43974">
        <ele>565.012425</ele>
        <time>2022-03-09T11:50:11.438Z</time>
      </trkpt>
      <trkpt lat="42.70856" lon="23.43961">
        <ele>564.886682</ele>
        <time>2022-03-09T11:50:13.412Z</time>
      </trkpt>
      <trkpt lat="42.70857" lon="23.43949">
        <ele>564.757955</ele>
        <time>2022-03-09T11:50:15.417Z</time>
      </trkpt>
      <trkpt lat="42.70858" lon="23.4393">
        <ele>564.576213</ele>
        <time>2022-03-09T11:50:18.412Z</time>
      </trkpt>
      <trkpt lat="42.70859" lon="23.43913">
        <ele>564.396195</ele>
        <time>2022-03-09T11:50:21.428Z</time>
      </trkpt>
      <trkpt lat="42.7086" lon="23.43896">
        <ele>564.227638</ele>
        <time>2022-03-09T11:50:24.419Z</time>
      </trkpt>
      <trkpt lat="42.70861" lon="23.4388">
        <ele>564.067262</ele>
        <time>2022-03-09T11:50:27.411Z</time>
      </trkpt>
      <trkpt lat="42.70861" lon="23.43867">
        <ele>563.936249</ele>
        <time>2022-03-09T11:50:29.404Z</time>
      </trkpt>
      <trkpt lat="42.70862" lon="23.43854">
        <ele>563.804793</ele>
        <time>2022-03-09T11:50:31.405Z</time>
      </trkpt>
      <trkpt lat="42.70863" lon="23.43841">
        <ele>563.679315</ele>
        <time>2022-03-09T11:50:33.423Z</time>
      </trkpt>
      <trkpt lat="42.70864" lon="23.43828">
        <ele>563.548961</ele>
        <time>2022-03-09T11:50:35.407Z</time>
      </trkpt>
      <trkpt lat="42.70864" lon="23.43815">
        <ele>563.41761</ele>
        <time>2022-03-09T11:50:37.421Z</time>
      </trkpt>
      <trkpt lat="42.70865" lon="23.43802">
        <ele>563.457488</ele>
        <time>2022-03-09T11:50:39.419Z</time>
      </trkpt>
      <trkpt lat="42.70865" lon="23.4379">
        <ele>563.527446</ele>
        <time>2022-03-09T11:50:41.416Z</time>
      </trkpt>
      <trkpt lat="42.70866" lon="23.43778">
        <ele>563.597901</ele>
        <time>2022-03-09T11:50:43.419Z</time>
      </trkpt>
      <trkpt lat="42.70867" lon="23.43765">
        <ele>563.66774</ele>
        <time>2022-03-09T11:50:45.440Z</time>
      </trkpt>
      <trkpt lat="42.70869" lon="23.43747">
        <ele>563.769277</ele>
        <time>2022-03-09T11:50:48.414Z</time>
      </trkpt>
      <trkpt lat="42.7087" lon="23.43735">
        <ele>563.838268</ele>
        <time>2022-03-09T11:50:50.413Z</time>
      </trkpt>
      <trkpt lat="42.70872" lon="23.43717">
        <ele>563.941283</ele>
        <time>2022-03-09T11:50:53.405Z</time>
      </trkpt>
      <trkpt lat="42.70873" lon="23.43699">
        <ele>564.041114</ele>
        <time>2022-03-09T11:50:56.409Z</time>
      </trkpt>
      <trkpt lat="42.70874" lon="23.43681">
        <ele>564.143323</ele>
        <time>2022-03-09T11:50:59.410Z</time>
      </trkpt>
      <trkpt lat="42.70876" lon="23.43664">
        <ele>564.242176</ele>
        <time>2022-03-09T11:51:02.420Z</time>
      </trkpt>
      <trkpt lat="42.70877" lon="23.43646">
        <ele>564.344828</ele>
        <time>2022-03-09T11:51:05.425Z</time>
      </trkpt>
      <trkpt lat="42.70879" lon="23.43628">
        <ele>564.44273</ele>
        <time>2022-03-09T11:51:08.455Z</time>
      </trkpt>
      <trkpt lat="42.7088" lon="23.43612">
        <ele>564.537284</ele>
        <time>2022-03-09T11:51:11.410Z</time>
      </trkpt>
      <trkpt lat="42.70881" lon="23.43594">
        <ele>564.636493</ele>
        <time>2022-03-09T11:51:14.420Z</time>
      </trkpt>
      <trkpt lat="42.70882" lon="23.43581">
        <ele>564.706948</ele>
        <time>2022-03-09T11:51:16.453Z</time>
      </trkpt>
      <trkpt lat="42.70883" lon="23.43569">
        <ele>564.781617</ele>
        <time>2022-03-09T11:51:18.402Z</time>
      </trkpt>
      <trkpt lat="42.70884" lon="23.43556">
        <ele>564.89479</ele>
        <time>2022-03-09T11:51:20.412Z</time>
      </trkpt>
      <trkpt lat="42.70885" lon="23.43539">
        <ele>565.058765</ele>
        <time>2022-03-09T11:51:23.425Z</time>
      </trkpt>
      <trkpt lat="42.70886" lon="23.4352">
        <ele>565.226023</ele>
        <time>2022-03-09T11:51:26.417Z</time>
      </trkpt>
      <trkpt lat="42.70886" lon="23.43508">
        <ele>565.339106</ele>
        <time>2022-03-09T11:51:28.418Z</time>
      </trkpt>
      <trkpt lat="42.70888" lon="23.43491">
        <ele>565.501792</ele>
        <time>2022-03-09T11:51:31.405Z</time>
      </trkpt>
      <trkpt lat="42.70889" lon="23.43474">
        <ele>565.652657</ele>
        <time>2022-03-09T11:51:34.432Z</time>
      </trkpt>
      <trkpt lat="42.70889" lon="23.43456">
        <ele>565.820608</ele>
        <time>2022-03-09T11:51:37.418Z</time>
      </trkpt>
      <trkpt lat="42.7089" lon="23.43438">
        <ele>565.985388</ele>
        <time>2022-03-09T11:51:40.415Z</time>
      </trkpt>
      <trkpt lat="42.70892" lon="23.43422">
        <ele>566.134274</ele>
        <time>2022-03-09T11:51:43.428Z</time>
      </trkpt>
      <trkpt lat="42.70895" lon="23.43405">
        <ele>566.291771</ele>
        <time>2022-03-09T11:51:46.415Z</time>
      </trkpt>
      <trkpt lat="42.70895" lon="23.43389">
        <ele>566.442471</ele>
        <time>2022-03-09T11:51:49.411Z</time>
      </trkpt>
      <trkpt lat="42.70896" lon="23.43373">
        <ele>566.591214</ele>
        <time>2022-03-09T11:51:52.420Z</time>
      </trkpt>
      <trkpt lat="42.70896" lon="23.43357">
        <ele>566.733453</ele>
        <time>2022-03-09T11:51:55.414Z</time>
      </trkpt>
      <trkpt lat="42.70897" lon="23.43341">
        <ele>566.88317</ele>
        <time>2022-03-09T11:51:58.449Z</time>
      </trkpt>
      <trkpt lat="42.70897" lon="23.43325">
        <ele>567.034465</ele>
        <time>2022-03-09T11:52:01.412Z</time>
      </trkpt>
      <trkpt lat="42.70898" lon="23.43308">
        <ele>567.254349</ele>
        <time>2022-03-09T11:52:04.425Z</time>
      </trkpt>
      <trkpt lat="42.709" lon="23.4329">
        <ele>567.487604</ele>
        <time>2022-03-09T11:52:07.418Z</time>
      </trkpt>
      <trkpt lat="42.70901" lon="23.43272">
        <ele>567.70997</ele>
        <time>2022-03-09T11:52:10.422Z</time>
      </trkpt>
      <trkpt lat="42.70903" lon="23.43255">
        <ele>567.930517</ele>
        <time>2022-03-09T11:52:13.414Z</time>
      </trkpt>
      <trkpt lat="42.70905" lon="23.43239">
        <ele>568.141436</ele>
        <time>2022-03-09T11:52:16.427Z</time>
      </trkpt>
      <trkpt lat="42.70905" lon="23.43223">
        <ele>568.343074</ele>
        <time>2022-03-09T11:52:19.401Z</time>
      </trkpt>
      <trkpt lat="42.70905" lon="23.43208">
        <ele>568.541883</ele>
        <time>2022-03-09T11:52:22.419Z</time>
      </trkpt>
      <trkpt lat="42.70906" lon="23.43192">
        <ele>568.742035</ele>
        <time>2022-03-09T11:52:25.403Z</time>
      </trkpt>
      <trkpt lat="42.70907" lon="23.43177">
        <ele>568.943401</ele>
        <time>2022-03-09T11:52:28.408Z</time>
      </trkpt>
      <trkpt lat="42.7091" lon="23.4316">
        <ele>569.164348</ele>
        <time>2022-03-09T11:52:31.436Z</time>
      </trkpt>
      <trkpt lat="42.70913" lon="23.43147">
        <ele>569.33125</ele>
        <time>2022-03-09T11:52:34.404Z</time>
      </trkpt>
      <trkpt lat="42.70907" lon="23.43125">
        <ele>569.642493</ele>
        <time>2022-03-09T11:52:57.407Z</time>
      </trkpt>
      <trkpt lat="42.70906" lon="23.43112">
        <ele>569.807983</ele>
        <time>2022-03-09T11:53:05.438Z</time>
      </trkpt>
      <trkpt lat="42.70892" lon="23.43116">
        <ele>570.073253</ele>
        <time>2022-03-09T11:53:24.425Z</time>
      </trkpt>
      <trkpt lat="42.70889" lon="23.43133">
        <ele>569.98765</ele>
        <time>2022-03-09T11:53:27.423Z</time>
      </trkpt>
      <trkpt lat="42.70887" lon="23.4315">
        <ele>569.704913</ele>
        <time>2022-03-09T11:53:30.426Z</time>
      </trkpt>
      <trkpt lat="42.70886" lon="23.43167">
        <ele>569.4275</ele>
        <time>2022-03-09T11:53:33.464Z</time>
      </trkpt>
      <trkpt lat="42.70885" lon="23.43184">
        <ele>569.151892</ele>
        <time>2022-03-09T11:53:36.428Z</time>
      </trkpt>
      <trkpt lat="42.70884" lon="23.43201">
        <ele>568.878075</ele>
        <time>2022-03-09T11:53:39.421Z</time>
      </trkpt>
      <trkpt lat="42.70883" lon="23.43219">
        <ele>568.591669</ele>
        <time>2022-03-09T11:53:42.412Z</time>
      </trkpt>
      <trkpt lat="42.70882" lon="23.43236">
        <ele>568.308982</ele>
        <time>2022-03-09T11:53:45.393Z</time>
      </trkpt>
      <trkpt lat="42.70877" lon="23.43252">
        <ele>568.023985</ele>
        <time>2022-03-09T11:53:48.416Z</time>
      </trkpt>
      <trkpt lat="42.70867" lon="23.43258">
        <ele>567.793605</ele>
        <time>2022-03-09T11:53:50.406Z</time>
      </trkpt>
      <trkpt lat="42.70857" lon="23.43263">
        <ele>567.55694</ele>
        <time>2022-03-09T11:53:52.453Z</time>
      </trkpt>
      <trkpt lat="42.70848" lon="23.43267">
        <ele>567.335766</ele>
        <time>2022-03-09T11:53:54.421Z</time>
      </trkpt>
      <trkpt lat="42.70838" lon="23.43269">
        <ele>567.127478</ele>
        <time>2022-03-09T11:53:56.424Z</time>
      </trkpt>
      <trkpt lat="42.70826" lon="23.43273">
        <ele>566.849985</ele>
        <time>2022-03-09T11:53:59.548Z</time>
      </trkpt>
      <trkpt lat="42.70814" lon="23.43277">
        <ele>566.574135</ele>
        <time>2022-03-09T11:54:02.421Z</time>
      </trkpt>
      <trkpt lat="42.70803" lon="23.43282">
        <ele>566.308666</ele>
        <time>2022-03-09T11:54:05.403Z</time>
      </trkpt>
      <trkpt lat="42.70792" lon="23.43286">
        <ele>566.167424</ele>
        <time>2022-03-09T11:54:08.411Z</time>
      </trkpt>
      <trkpt lat="42.70783" lon="23.43292">
        <ele>566.143049</ele>
        <time>2022-03-09T11:54:11.416Z</time>
      </trkpt>
      <trkpt lat="42.70774" lon="23.43297">
        <ele>566.120435</ele>
        <time>2022-03-09T11:54:14.397Z</time>
      </trkpt>
      <trkpt lat="42.70765" lon="23.43301">
        <ele>566.096134</ele>
        <time>2022-03-09T11:54:17.420Z</time>
      </trkpt>
      <trkpt lat="42.70755" lon="23.43304">
        <ele>566.070822</ele>
        <time>2022-03-09T11:54:20.405Z</time>
      </trkpt>
      <trkpt lat="42.70744" lon="23.43307">
        <ele>566.044408</ele>
        <time>2022-03-09T11:54:23.406Z</time>
      </trkpt>
      <trkpt lat="42.70734" lon="23.4331">
        <ele>566.01783</ele>
        <time>2022-03-09T11:54:26.403Z</time>
      </trkpt>
      <trkpt lat="42.70723" lon="23.43313">
        <ele>565.991263</ele>
        <time>2022-03-09T11:54:29.441Z</time>
      </trkpt>
      <trkpt lat="42.70712" lon="23.43315">
        <ele>565.964481</ele>
        <time>2022-03-09T11:54:32.409Z</time>
      </trkpt>
      <trkpt lat="42.70701" lon="23.43318">
        <ele>565.938459</ele>
        <time>2022-03-09T11:54:35.447Z</time>
      </trkpt>
      <trkpt lat="42.70692" lon="23.43323">
        <ele>565.913067</ele>
        <time>2022-03-09T11:54:38.407Z</time>
      </trkpt>
      <trkpt lat="42.70681" lon="23.43327">
        <ele>565.88658</ele>
        <time>2022-03-09T11:54:41.434Z</time>
      </trkpt>
      <trkpt lat="42.70671" lon="23.43332">
        <ele>565.859287</ele>
        <time>2022-03-09T11:54:44.408Z</time>
      </trkpt>
      <trkpt lat="42.7066" lon="23.43337">
        <ele>565.831016</ele>
        <time>2022-03-09T11:54:47.455Z</time>
      </trkpt>
      <trkpt lat="42.70649" lon="23.43343">
        <ele>565.80435</ele>
        <time>2022-03-09T11:54:50.411Z</time>
      </trkpt>
      <trkpt lat="42.70639" lon="23.43347">
        <ele>565.778264</ele>
        <time>2022-03-09T11:54:53.417Z</time>
      </trkpt>
      <trkpt lat="42.70629" lon="23.43352">
        <ele>565.752122</ele>
        <time>2022-03-09T11:54:56.412Z</time>
      </trkpt>
      <trkpt lat="42.70619" lon="23.43357">
        <ele>565.719361</ele>
        <time>2022-03-09T11:54:59.400Z</time>
      </trkpt>
      <trkpt lat="42.70609" lon="23.43363">
        <ele>565.684694</ele>
        <time>2022-03-09T11:55:02.415Z</time>
      </trkpt>
      <trkpt lat="42.70601" lon="23.4337">
        <ele>565.649123</ele>
        <time>2022-03-09T11:55:05.414Z</time>
      </trkpt>
      <trkpt lat="42.70591" lon="23.43379">
        <ele>565.611196</ele>
        <time>2022-03-09T11:55:08.400Z</time>
      </trkpt>
      <trkpt lat="42.70582" lon="23.43387">
        <ele>565.573826</ele>
        <time>2022-03-09T11:55:11.418Z</time>
      </trkpt>
      <trkpt lat="42.70574" lon="23.43396">
        <ele>565.537517</ele>
        <time>2022-03-09T11:55:14.416Z</time>
      </trkpt>
      <trkpt lat="42.70566" lon="23.43405">
        <ele>565.503333</ele>
        <time>2022-03-09T11:55:17.403Z</time>
      </trkpt>
      <trkpt lat="42.70558" lon="23.43414">
        <ele>565.467712</ele>
        <time>2022-03-09T11:55:20.449Z</time>
      </trkpt>
      <trkpt lat="42.70551" lon="23.43424">
        <ele>565.434046</ele>
        <time>2022-03-09T11:55:23.411Z</time>
      </trkpt>
      <trkpt lat="42.70544" lon="23.43434">
        <ele>565.400992</ele>
        <time>2022-03-09T11:55:26.419Z</time>
      </trkpt>
      <trkpt lat="42.70537" lon="23.43443">
        <ele>565.367976</ele>
        <time>2022-03-09T11:55:29.408Z</time>
      </trkpt>
      <trkpt lat="42.7053" lon="23.43451">
        <ele>565.336035</ele>
        <time>2022-03-09T11:55:32.413Z</time>
      </trkpt>
      <trkpt lat="42.70524" lon="23.43461">
        <ele>565.30413</ele>
        <time>2022-03-09T11:55:35.424Z</time>
      </trkpt>
      <trkpt lat="42.70519" lon="23.43473">
        <ele>565.271562</ele>
        <time>2022-03-09T11:55:38.415Z</time>
      </trkpt>
      <trkpt lat="42.70513" lon="23.43483">
        <ele>565.236778</ele>
        <time>2022-03-09T11:55:41.408Z</time>
      </trkpt>
      <trkpt lat="42.70506" lon="23.43493">
        <ele>565.203563</ele>
        <time>2022-03-09T11:55:44.421Z</time>
      </trkpt>
      <trkpt lat="42.70498" lon="23.43502">
        <ele>565.169888</ele>
        <time>2022-03-09T11:55:47.403Z</time>
      </trkpt>
      <trkpt lat="42.7049" lon="23.43509">
        <ele>565.136279</ele>
        <time>2022-03-09T11:55:50.450Z</time>
      </trkpt>
      <trkpt lat="42.70482" lon="23.43518">
        <ele>565.252543</ele>
        <time>2022-03-09T11:55:53.458Z</time>
      </trkpt>
      <trkpt lat="42.70475" lon="23.43527">
        <ele>565.375719</ele>
        <time>2022-03-09T11:55:56.408Z</time>
      </trkpt>
      <trkpt lat="42.70468" lon="23.43537">
        <ele>565.492718</ele>
        <time>2022-03-09T11:55:59.466Z</time>
      </trkpt>
      <trkpt lat="42.70461" lon="23.43546">
        <ele>565.61702</ele>
        <time>2022-03-09T11:56:02.416Z</time>
      </trkpt>
      <trkpt lat="42.70454" lon="23.43556">
        <ele>565.744625</ele>
        <time>2022-03-09T11:56:05.406Z</time>
      </trkpt>
      <trkpt lat="42.70447" lon="23.43567">
        <ele>565.878791</ele>
        <time>2022-03-09T11:56:08.413Z</time>
      </trkpt>
      <trkpt lat="42.70439" lon="23.43578">
        <ele>566.013131</ele>
        <time>2022-03-09T11:56:11.419Z</time>
      </trkpt>
      <trkpt lat="42.70431" lon="23.43589">
        <ele>566.155074</ele>
        <time>2022-03-09T11:56:14.412Z</time>
      </trkpt>
      <trkpt lat="42.70424" lon="23.436">
        <ele>566.290204</ele>
        <time>2022-03-09T11:56:17.412Z</time>
      </trkpt>
      <trkpt lat="42.70417" lon="23.43613">
        <ele>566.436088</ele>
        <time>2022-03-09T11:56:20.418Z</time>
      </trkpt>
      <trkpt lat="42.70411" lon="23.43624">
        <ele>566.571048</ele>
        <time>2022-03-09T11:56:23.407Z</time>
      </trkpt>
      <trkpt lat="42.70404" lon="23.43636">
        <ele>566.708927</ele>
        <time>2022-03-09T11:56:26.410Z</time>
      </trkpt>
      <trkpt lat="42.70397" lon="23.43648">
        <ele>566.850412</ele>
        <time>2022-03-09T11:56:29.412Z</time>
      </trkpt>
      <trkpt lat="42.7039" lon="23.4366">
        <ele>566.987651</ele>
        <time>2022-03-09T11:56:32.407Z</time>
      </trkpt>
      <trkpt lat="42.70383" lon="23.43673">
        <ele>567.132073</ele>
        <time>2022-03-09T11:56:35.417Z</time>
      </trkpt>
      <trkpt lat="42.70376" lon="23.43686">
        <ele>567.275792</ele>
        <time>2022-03-09T11:56:38.450Z</time>
      </trkpt>
      <trkpt lat="42.70369" lon="23.43697">
        <ele>567.403026</ele>
        <time>2022-03-09T11:56:41.401Z</time>
      </trkpt>
      <trkpt lat="42.70362" lon="23.43709">
        <ele>567.498026</ele>
        <time>2022-03-09T11:56:44.420Z</time>
      </trkpt>
      <trkpt lat="42.70355" lon="23.43721">
        <ele>567.595502</ele>
        <time>2022-03-09T11:56:47.410Z</time>
      </trkpt>
      <trkpt lat="42.70348" lon="23.43734">
        <ele>567.700178</ele>
        <time>2022-03-09T11:56:50.411Z</time>
      </trkpt>
      <trkpt lat="42.70341" lon="23.43748">
        <ele>567.804404</ele>
        <time>2022-03-09T11:56:53.399Z</time>
      </trkpt>
      <trkpt lat="42.70333" lon="23.43762">
        <ele>567.915257</ele>
        <time>2022-03-09T11:56:56.423Z</time>
      </trkpt>
      <trkpt lat="42.70325" lon="23.43776">
        <ele>568.028682</ele>
        <time>2022-03-09T11:56:59.418Z</time>
      </trkpt>
      <trkpt lat="42.70317" lon="23.4379">
        <ele>568.143614</ele>
        <time>2022-03-09T11:57:02.432Z</time>
      </trkpt>
      <trkpt lat="42.70308" lon="23.43802">
        <ele>568.255781</ele>
        <time>2022-03-09T11:57:05.405Z</time>
      </trkpt>
      <trkpt lat="42.70299" lon="23.43815">
        <ele>568.369609</ele>
        <time>2022-03-09T11:57:08.412Z</time>
      </trkpt>
      <trkpt lat="42.70291" lon="23.43829">
        <ele>568.480463</ele>
        <time>2022-03-09T11:57:11.418Z</time>
      </trkpt>
      <trkpt lat="42.70283" lon="23.43842">
        <ele>568.58952</ele>
        <time>2022-03-09T11:57:14.399Z</time>
      </trkpt>
      <trkpt lat="42.70275" lon="23.43855">
        <ele>568.697888</ele>
        <time>2022-03-09T11:57:17.451Z</time>
      </trkpt>
      <trkpt lat="42.70267" lon="23.43868">
        <ele>568.807915</ele>
        <time>2022-03-09T11:57:20.410Z</time>
      </trkpt>
      <trkpt lat="42.70259" lon="23.43882">
        <ele>568.919805</ele>
        <time>2022-03-09T11:57:23.398Z</time>
      </trkpt>
      <trkpt lat="42.70251" lon="23.43896">
        <ele>568.937636</ele>
        <time>2022-03-09T11:57:26.416Z</time>
      </trkpt>
      <trkpt lat="42.70243" lon="23.4391">
        <ele>568.946731</ele>
        <time>2022-03-09T11:57:29.417Z</time>
      </trkpt>
      <trkpt lat="42.70234" lon="23.43925">
        <ele>568.956026</ele>
        <time>2022-03-09T11:57:32.409Z</time>
      </trkpt>
      <trkpt lat="42.70226" lon="23.43938">
        <ele>568.96517</ele>
        <time>2022-03-09T11:57:35.425Z</time>
      </trkpt>
      <trkpt lat="42.70218" lon="23.43952">
        <ele>568.974221</ele>
        <time>2022-03-09T11:57:38.418Z</time>
      </trkpt>
      <trkpt lat="42.70209" lon="23.43966">
        <ele>568.983378</ele>
        <time>2022-03-09T11:57:41.424Z</time>
      </trkpt>
      <trkpt lat="42.70202" lon="23.4398">
        <ele>568.992421</ele>
        <time>2022-03-09T11:57:44.411Z</time>
      </trkpt>
      <trkpt lat="42.70193" lon="23.43993">
        <ele>569.001526</ele>
        <time>2022-03-09T11:57:47.408Z</time>
      </trkpt>
      <trkpt lat="42.70185" lon="23.44008">
        <ele>569.010859</ele>
        <time>2022-03-09T11:57:50.405Z</time>
      </trkpt>
      <trkpt lat="42.70177" lon="23.44022">
        <ele>569.019904</ele>
        <time>2022-03-09T11:57:53.437Z</time>
      </trkpt>
      <trkpt lat="42.70172" lon="23.44032">
        <ele>569.026305</ele>
        <time>2022-03-09T11:57:55.425Z</time>
      </trkpt>
      <trkpt lat="42.70163" lon="23.44046">
        <ele>569.035647</ele>
        <time>2022-03-09T11:57:58.418Z</time>
      </trkpt>
      <trkpt lat="42.70157" lon="23.44056">
        <ele>569.041989</ele>
        <time>2022-03-09T11:58:00.414Z</time>
      </trkpt>
      <trkpt lat="42.70152" lon="23.44065">
        <ele>569.048268</ele>
        <time>2022-03-09T11:58:02.404Z</time>
      </trkpt>
      <trkpt lat="42.70143" lon="23.44079">
        <ele>569.083481</ele>
        <time>2022-03-09T11:58:05.413Z</time>
      </trkpt>
      <trkpt lat="42.70138" lon="23.44089">
        <ele>569.142102</ele>
        <time>2022-03-09T11:58:07.406Z</time>
      </trkpt>
      <trkpt lat="42.7013" lon="23.44104">
        <ele>569.228857</ele>
        <time>2022-03-09T11:58:10.414Z</time>
      </trkpt>
      <trkpt lat="42.70121" lon="23.44117">
        <ele>569.313622</ele>
        <time>2022-03-09T11:58:13.412Z</time>
      </trkpt>
      <trkpt lat="42.70113" lon="23.44131">
        <ele>569.399777</ele>
        <time>2022-03-09T11:58:16.418Z</time>
      </trkpt>
      <trkpt lat="42.70102" lon="23.44142">
        <ele>569.486636</ele>
        <time>2022-03-09T11:58:19.400Z</time>
      </trkpt>
      <trkpt lat="42.70091" lon="23.44152">
        <ele>569.575493</ele>
        <time>2022-03-09T11:58:22.402Z</time>
      </trkpt>
      <trkpt lat="42.70083" lon="23.44159">
        <ele>569.63555</ele>
        <time>2022-03-09T11:58:24.405Z</time>
      </trkpt>
      <trkpt lat="42.70072" lon="23.44168">
        <ele>569.72065</ele>
        <time>2022-03-09T11:58:27.421Z</time>
      </trkpt>
      <trkpt lat="42.70061" lon="23.44176">
        <ele>569.80084</ele>
        <time>2022-03-09T11:58:30.421Z</time>
      </trkpt>
      <trkpt lat="42.70049" lon="23.44184">
        <ele>569.886094</ele>
        <time>2022-03-09T11:58:33.413Z</time>
      </trkpt>
      <trkpt lat="42.70038" lon="23.44192">
        <ele>569.968101</ele>
        <time>2022-03-09T11:58:36.445Z</time>
      </trkpt>
      <trkpt lat="42.70027" lon="23.442">
        <ele>570.050237</ele>
        <time>2022-03-09T11:58:39.410Z</time>
      </trkpt>
      <trkpt lat="42.70016" lon="23.44207">
        <ele>570.126537</ele>
        <time>2022-03-09T11:58:42.425Z</time>
      </trkpt>
      <trkpt lat="42.70006" lon="23.44214">
        <ele>570.204325</ele>
        <time>2022-03-09T11:58:45.407Z</time>
      </trkpt>
      <trkpt lat="42.69995" lon="23.44222">
        <ele>570.360308</ele>
        <time>2022-03-09T11:58:48.408Z</time>
      </trkpt>
      <trkpt lat="42.69984" lon="23.4423">
        <ele>570.540411</ele>
        <time>2022-03-09T11:58:51.400Z</time>
      </trkpt>
      <trkpt lat="42.69974" lon="23.44238">
        <ele>570.720249</ele>
        <time>2022-03-09T11:58:54.445Z</time>
      </trkpt>
      <trkpt lat="42.69963" lon="23.44246">
        <ele>570.899031</ele>
        <time>2022-03-09T11:58:57.433Z</time>
      </trkpt>
      <trkpt lat="42.69953" lon="23.44253">
        <ele>571.075634</ele>
        <time>2022-03-09T11:59:00.412Z</time>
      </trkpt>
      <trkpt lat="42.69942" lon="23.44259">
        <ele>571.251759</ele>
        <time>2022-03-09T11:59:03.420Z</time>
      </trkpt>
      <trkpt lat="42.69933" lon="23.44267">
        <ele>571.417906</ele>
        <time>2022-03-09T11:59:06.410Z</time>
      </trkpt>
      <trkpt lat="42.69923" lon="23.44275">
        <ele>571.591223</ele>
        <time>2022-03-09T11:59:09.411Z</time>
      </trkpt>
      <trkpt lat="42.69912" lon="23.44282">
        <ele>571.760619</ele>
        <time>2022-03-09T11:59:12.408Z</time>
      </trkpt>
      <trkpt lat="42.69903" lon="23.44288">
        <ele>571.926841</ele>
        <time>2022-03-09T11:59:15.425Z</time>
      </trkpt>
      <trkpt lat="42.69892" lon="23.44296">
        <ele>572.106149</ele>
        <time>2022-03-09T11:59:18.407Z</time>
      </trkpt>
      <trkpt lat="42.69883" lon="23.44304">
        <ele>572.269479</ele>
        <time>2022-03-09T11:59:21.419Z</time>
      </trkpt>
      <trkpt lat="42.69874" lon="23.44311">
        <ele>572.422824</ele>
        <time>2022-03-09T11:59:24.409Z</time>
      </trkpt>
      <trkpt lat="42.69864" lon="23.44318">
        <ele>572.585557</ele>
        <time>2022-03-09T11:59:27.402Z</time>
      </trkpt>
      <trkpt lat="42.69854" lon="23.44325">
        <ele>572.760959</ele>
        <time>2022-03-09T11:59:30.409Z</time>
      </trkpt>
      <trkpt lat="42.69843" lon="23.44333">
        <ele>572.921848</ele>
        <time>2022-03-09T11:59:33.413Z</time>
      </trkpt>
      <trkpt lat="42.69831" lon="23.44341">
        <ele>572.924436</ele>
        <time>2022-03-09T11:59:36.416Z</time>
      </trkpt>
      <trkpt lat="42.69821" lon="23.44348">
        <ele>572.926434</ele>
        <time>2022-03-09T11:59:38.408Z</time>
      </trkpt>
      <trkpt lat="42.69812" lon="23.44355">
        <ele>572.928494</ele>
        <time>2022-03-09T11:59:40.399Z</time>
      </trkpt>
      <trkpt lat="42.69802" lon="23.44361">
        <ele>572.930536</ele>
        <time>2022-03-09T11:59:42.415Z</time>
      </trkpt>
      <trkpt lat="42.69793" lon="23.44368">
        <ele>572.93251</ele>
        <time>2022-03-09T11:59:44.420Z</time>
      </trkpt>
      <trkpt lat="42.69783" lon="23.44375">
        <ele>572.934481</ele>
        <time>2022-03-09T11:59:46.409Z</time>
      </trkpt>
      <trkpt lat="42.69774" lon="23.44381">
        <ele>572.936421</ele>
        <time>2022-03-09T11:59:48.403Z</time>
      </trkpt>
      <trkpt lat="42.69765" lon="23.44387">
        <ele>572.938283</ele>
        <time>2022-03-09T11:59:50.417Z</time>
      </trkpt>
      <trkpt lat="42.69757" lon="23.44394">
        <ele>572.940058</ele>
        <time>2022-03-09T11:59:52.426Z</time>
      </trkpt>
      <trkpt lat="42.69749" lon="23.444">
        <ele>572.94175</ele>
        <time>2022-03-09T11:59:54.425Z</time>
      </trkpt>
      <trkpt lat="42.69742" lon="23.44406">
        <ele>572.943435</ele>
        <time>2022-03-09T11:59:56.405Z</time>
      </trkpt>
      <trkpt lat="42.69734" lon="23.44413">
        <ele>572.945167</ele>
        <time>2022-03-09T11:59:58.426Z</time>
      </trkpt>
      <trkpt lat="42.69726" lon="23.44419">
        <ele>572.946884</ele>
        <time>2022-03-09T12:00:00.403Z</time>
      </trkpt>
      <trkpt lat="42.69718" lon="23.44425">
        <ele>572.948602</ele>
        <time>2022-03-09T12:00:02.443Z</time>
      </trkpt>
      <trkpt lat="42.69706" lon="23.44433">
        <ele>572.951092</ele>
        <time>2022-03-09T12:00:05.409Z</time>
      </trkpt>
      <trkpt lat="42.69694" lon="23.44442">
        <ele>572.95357</ele>
        <time>2022-03-09T12:00:08.421Z</time>
      </trkpt>
      <trkpt lat="42.69683" lon="23.44451">
        <ele>572.933822</ele>
        <time>2022-03-09T12:00:11.413Z</time>
      </trkpt>
      <trkpt lat="42.69671" lon="23.44459">
        <ele>572.861216</ele>
        <time>2022-03-09T12:00:14.412Z</time>
      </trkpt>
      <trkpt lat="42.6966" lon="23.44468">
        <ele>572.790414</ele>
        <time>2022-03-09T12:00:17.417Z</time>
      </trkpt>
      <trkpt lat="42.69648" lon="23.44477">
        <ele>572.718741</ele>
        <time>2022-03-09T12:00:20.402Z</time>
      </trkpt>
      <trkpt lat="42.69637" lon="23.44486">
        <ele>572.648136</ele>
        <time>2022-03-09T12:00:23.432Z</time>
      </trkpt>
      <trkpt lat="42.69627" lon="23.44493">
        <ele>572.584608</ele>
        <time>2022-03-09T12:00:26.425Z</time>
      </trkpt>
      <trkpt lat="42.69616" lon="23.445">
        <ele>572.521998</ele>
        <time>2022-03-09T12:00:29.442Z</time>
      </trkpt>
      <trkpt lat="42.69605" lon="23.44507">
        <ele>572.455468</ele>
        <time>2022-03-09T12:00:32.416Z</time>
      </trkpt>
      <trkpt lat="42.69594" lon="23.44515">
        <ele>572.387895</ele>
        <time>2022-03-09T12:00:35.421Z</time>
      </trkpt>
      <trkpt lat="42.69583" lon="23.44523">
        <ele>572.316808</ele>
        <time>2022-03-09T12:00:38.424Z</time>
      </trkpt>
      <trkpt lat="42.69572" lon="23.44531">
        <ele>572.248872</ele>
        <time>2022-03-09T12:00:41.424Z</time>
      </trkpt>
      <trkpt lat="42.6956" lon="23.44539">
        <ele>572.179119</ele>
        <time>2022-03-09T12:00:44.418Z</time>
      </trkpt>
      <trkpt lat="42.69549" lon="23.44547">
        <ele>572.108699</ele>
        <time>2022-03-09T12:00:47.416Z</time>
      </trkpt>
      <trkpt lat="42.69538" lon="23.44555">
        <ele>572.040014</ele>
        <time>2022-03-09T12:00:50.423Z</time>
      </trkpt>
      <trkpt lat="42.69526" lon="23.44564">
        <ele>571.977098</ele>
        <time>2022-03-09T12:00:53.421Z</time>
      </trkpt>
      <trkpt lat="42.69515" lon="23.44574">
        <ele>571.976231</ele>
        <time>2022-03-09T12:00:56.416Z</time>
      </trkpt>
      <trkpt lat="42.69504" lon="23.44583">
        <ele>571.975345</ele>
        <time>2022-03-09T12:00:59.426Z</time>
      </trkpt>
      <trkpt lat="42.69496" lon="23.44589">
        <ele>571.974718</ele>
        <time>2022-03-09T12:01:01.425Z</time>
      </trkpt>
      <trkpt lat="42.69487" lon="23.44595">
        <ele>571.974095</ele>
        <time>2022-03-09T12:01:03.417Z</time>
      </trkpt>
      <trkpt lat="42.69479" lon="23.44601">
        <ele>571.97347</ele>
        <time>2022-03-09T12:01:05.423Z</time>
      </trkpt>
      <trkpt lat="42.69471" lon="23.44607">
        <ele>571.972844</ele>
        <time>2022-03-09T12:01:07.426Z</time>
      </trkpt>
      <trkpt lat="42.69462" lon="23.44613">
        <ele>571.972223</ele>
        <time>2022-03-09T12:01:09.425Z</time>
      </trkpt>
      <trkpt lat="42.69454" lon="23.44619">
        <ele>571.971582</ele>
        <time>2022-03-09T12:01:11.447Z</time>
      </trkpt>
      <trkpt lat="42.69445" lon="23.44625">
        <ele>571.97095</ele>
        <time>2022-03-09T12:01:13.421Z</time>
      </trkpt>
      <trkpt lat="42.69437" lon="23.44631">
        <ele>571.970317</ele>
        <time>2022-03-09T12:01:15.433Z</time>
      </trkpt>
      <trkpt lat="42.69424" lon="23.44636">
        <ele>571.969428</ele>
        <time>2022-03-09T12:01:18.419Z</time>
      </trkpt>
      <trkpt lat="42.69415" lon="23.44639">
        <ele>571.968822</ele>
        <time>2022-03-09T12:01:20.411Z</time>
      </trkpt>
      <trkpt lat="42.69403" lon="23.44643">
        <ele>571.967979</ele>
        <time>2022-03-09T12:01:23.398Z</time>
      </trkpt>
      <trkpt lat="42.69391" lon="23.44646">
        <ele>571.967182</ele>
        <time>2022-03-09T12:01:26.412Z</time>
      </trkpt>
      <trkpt lat="42.69379" lon="23.44648">
        <ele>571.966372</ele>
        <time>2022-03-09T12:01:29.414Z</time>
      </trkpt>
      <trkpt lat="42.69367" lon="23.4465">
        <ele>571.965557</ele>
        <time>2022-03-09T12:01:32.417Z</time>
      </trkpt>
      <trkpt lat="42.69355" lon="23.44652">
        <ele>571.97493</ele>
        <time>2022-03-09T12:01:35.406Z</time>
      </trkpt>
      <trkpt lat="42.69344" lon="23.44655">
        <ele>571.990716</ele>
        <time>2022-03-09T12:01:38.414Z</time>
      </trkpt>
      <trkpt lat="42.69333" lon="23.44658">
        <ele>572.006421</ele>
        <time>2022-03-09T12:01:41.406Z</time>
      </trkpt>
      <trkpt lat="42.69322" lon="23.4466">
        <ele>572.02293</ele>
        <time>2022-03-09T12:01:44.406Z</time>
      </trkpt>
      <trkpt lat="42.69309" lon="23.44662">
        <ele>572.041347</ele>
        <time>2022-03-09T12:01:47.420Z</time>
      </trkpt>
      <trkpt lat="42.69296" lon="23.44665">
        <ele>572.05999</ele>
        <time>2022-03-09T12:01:50.422Z</time>
      </trkpt>
      <trkpt lat="42.69284" lon="23.44667">
        <ele>572.077885</ele>
        <time>2022-03-09T12:01:53.451Z</time>
      </trkpt>
      <trkpt lat="42.69271" lon="23.4467">
        <ele>572.09586</ele>
        <time>2022-03-09T12:01:56.427Z</time>
      </trkpt>
      <trkpt lat="42.69259" lon="23.44673">
        <ele>572.113752</ele>
        <time>2022-03-09T12:01:59.428Z</time>
      </trkpt>
      <trkpt lat="42.69247" lon="23.44677">
        <ele>572.130829</ele>
        <time>2022-03-09T12:02:02.420Z</time>
      </trkpt>
      <trkpt lat="42.69235" lon="23.4468">
        <ele>572.147811</ele>
        <time>2022-03-09T12:02:05.407Z</time>
      </trkpt>
      <trkpt lat="42.69224" lon="23.44686">
        <ele>572.164957</ele>
        <time>2022-03-09T12:02:08.425Z</time>
      </trkpt>
      <trkpt lat="42.69214" lon="23.44693">
        <ele>572.181199</ele>
        <time>2022-03-09T12:02:11.423Z</time>
      </trkpt>
      <trkpt lat="42.69205" lon="23.44703">
        <ele>572.197548</ele>
        <time>2022-03-09T12:02:14.408Z</time>
      </trkpt>
      <trkpt lat="42.69196" lon="23.44715">
        <ele>572.215154</ele>
        <time>2022-03-09T12:02:17.417Z</time>
      </trkpt>
      <trkpt lat="42.69187" lon="23.44726">
        <ele>572.141082</ele>
        <time>2022-03-09T12:02:20.411Z</time>
      </trkpt>
      <trkpt lat="42.69178" lon="23.44738">
        <ele>572.036263</ele>
        <time>2022-03-09T12:02:23.416Z</time>
      </trkpt>
      <trkpt lat="42.69169" lon="23.44749">
        <ele>571.930366</ele>
        <time>2022-03-09T12:02:26.430Z</time>
      </trkpt>
      <trkpt lat="42.69161" lon="23.44761">
        <ele>571.823438</ele>
        <time>2022-03-09T12:02:29.417Z</time>
      </trkpt>
      <trkpt lat="42.69152" lon="23.44773">
        <ele>571.714045</ele>
        <time>2022-03-09T12:02:32.489Z</time>
      </trkpt>
      <trkpt lat="42.69143" lon="23.44785">
        <ele>571.605157</ele>
        <time>2022-03-09T12:02:35.415Z</time>
      </trkpt>
      <trkpt lat="42.69135" lon="23.44796">
        <ele>571.502044</ele>
        <time>2022-03-09T12:02:38.407Z</time>
      </trkpt>
      <trkpt lat="42.69126" lon="23.44807">
        <ele>571.395956</ele>
        <time>2022-03-09T12:02:41.413Z</time>
      </trkpt>
      <trkpt lat="42.69117" lon="23.44819">
        <ele>571.28898</ele>
        <time>2022-03-09T12:02:44.410Z</time>
      </trkpt>
      <trkpt lat="42.69108" lon="23.4483">
        <ele>571.180965</ele>
        <time>2022-03-09T12:02:47.412Z</time>
      </trkpt>
      <trkpt lat="42.69098" lon="23.44841">
        <ele>571.071178</ele>
        <time>2022-03-09T12:02:50.405Z</time>
      </trkpt>
      <trkpt lat="42.6909" lon="23.44853">
        <ele>570.964647</ele>
        <time>2022-03-09T12:02:53.415Z</time>
      </trkpt>
      <trkpt lat="42.69081" lon="23.44862">
        <ele>570.865758</ele>
        <time>2022-03-09T12:02:56.397Z</time>
      </trkpt>
      <trkpt lat="42.69071" lon="23.44875">
        <ele>570.749259</ele>
        <time>2022-03-09T12:02:59.413Z</time>
      </trkpt>
      <trkpt lat="42.69064" lon="23.44884">
        <ele>570.66266</ele>
        <time>2022-03-09T12:03:01.420Z</time>
      </trkpt>
      <trkpt lat="42.69057" lon="23.44894">
        <ele>570.529437</ele>
        <time>2022-03-09T12:03:03.413Z</time>
      </trkpt>
      <trkpt lat="42.69051" lon="23.44904">
        <ele>570.389026</ele>
        <time>2022-03-09T12:03:05.452Z</time>
      </trkpt>
      <trkpt lat="42.69044" lon="23.44912">
        <ele>570.248947</ele>
        <time>2022-03-09T12:03:07.417Z</time>
      </trkpt>
      <trkpt lat="42.69037" lon="23.44921">
        <ele>570.115896</ele>
        <time>2022-03-09T12:03:09.423Z</time>
      </trkpt>
      <trkpt lat="42.6903" lon="23.4493">
        <ele>569.981812</ele>
        <time>2022-03-09T12:03:11.420Z</time>
      </trkpt>
      <trkpt lat="42.69024" lon="23.44939">
        <ele>569.848261</ele>
        <time>2022-03-09T12:03:13.426Z</time>
      </trkpt>
      <trkpt lat="42.69015" lon="23.44952">
        <ele>569.657331</ele>
        <time>2022-03-09T12:03:16.448Z</time>
      </trkpt>
      <trkpt lat="42.69006" lon="23.44964">
        <ele>569.470963</ele>
        <time>2022-03-09T12:03:19.430Z</time>
      </trkpt>
      <trkpt lat="42.68996" lon="23.44978">
        <ele>569.27394</ele>
        <time>2022-03-09T12:03:22.415Z</time>
      </trkpt>
      <trkpt lat="42.68987" lon="23.4499">
        <ele>569.080395</ele>
        <time>2022-03-09T12:03:25.419Z</time>
      </trkpt>
      <trkpt lat="42.6898" lon="23.44998">
        <ele>568.94911</ele>
        <time>2022-03-09T12:03:27.441Z</time>
      </trkpt>
      <trkpt lat="42.68973" lon="23.45006">
        <ele>568.813978</ele>
        <time>2022-03-09T12:03:29.406Z</time>
      </trkpt>
      <trkpt lat="42.68967" lon="23.45015">
        <ele>568.681647</ele>
        <time>2022-03-09T12:03:31.453Z</time>
      </trkpt>
      <trkpt lat="42.6896" lon="23.45024">
        <ele>568.547841</ele>
        <time>2022-03-09T12:03:33.424Z</time>
      </trkpt>
      <trkpt lat="42.68954" lon="23.45034">
        <ele>568.413308</ele>
        <time>2022-03-09T12:03:35.414Z</time>
      </trkpt>
      <trkpt lat="42.68948" lon="23.45043">
        <ele>568.280375</ele>
        <time>2022-03-09T12:03:37.404Z</time>
      </trkpt>
      <trkpt lat="42.68941" lon="23.45052">
        <ele>568.147587</ele>
        <time>2022-03-09T12:03:39.404Z</time>
      </trkpt>
      <trkpt lat="42.68935" lon="23.45061">
        <ele>568.056167</ele>
        <time>2022-03-09T12:03:41.422Z</time>
      </trkpt>
      <trkpt lat="42.68926" lon="23.45074">
        <ele>568.30133</ele>
        <time>2022-03-09T12:03:44.423Z</time>
      </trkpt>
      <trkpt lat="42.68919" lon="23.45082">
        <ele>568.468469</ele>
        <time>2022-03-09T12:03:46.405Z</time>
      </trkpt>
      <trkpt lat="42.6891" lon="23.45095">
        <ele>568.710413</ele>
        <time>2022-03-09T12:03:49.452Z</time>
      </trkpt>
      <trkpt lat="42.68901" lon="23.45106">
        <ele>568.936679</ele>
        <time>2022-03-09T12:03:52.406Z</time>
      </trkpt>
      <trkpt lat="42.68892" lon="23.45118">
        <ele>569.165763</ele>
        <time>2022-03-09T12:03:55.538Z</time>
      </trkpt>
      <trkpt lat="42.68883" lon="23.4513">
        <ele>569.39511</ele>
        <time>2022-03-09T12:03:58.410Z</time>
      </trkpt>
      <trkpt lat="42.68875" lon="23.45143">
        <ele>569.628973</ele>
        <time>2022-03-09T12:04:01.424Z</time>
      </trkpt>
      <trkpt lat="42.68865" lon="23.45154">
        <ele>569.863395</ele>
        <time>2022-03-09T12:04:04.411Z</time>
      </trkpt>
      <trkpt lat="42.68858" lon="23.45162">
        <ele>570.029114</ele>
        <time>2022-03-09T12:04:06.443Z</time>
      </trkpt>
      <trkpt lat="42.6885" lon="23.45169">
        <ele>570.202288</ele>
        <time>2022-03-09T12:04:08.411Z</time>
      </trkpt>
      <trkpt lat="42.68841" lon="23.45174">
        <ele>570.382697</ele>
        <time>2022-03-09T12:04:10.427Z</time>
      </trkpt>
      <trkpt lat="42.68832" lon="23.45176">
        <ele>570.549692</ele>
        <time>2022-03-09T12:04:12.458Z</time>
      </trkpt>
      <trkpt lat="42.68823" lon="23.45178">
        <ele>570.719013</ele>
        <time>2022-03-09T12:04:14.414Z</time>
      </trkpt>
      <trkpt lat="42.68812" lon="23.4518">
        <ele>570.934731</ele>
        <time>2022-03-09T12:04:17.401Z</time>
      </trkpt>
      <trkpt lat="42.68801" lon="23.45182">
        <ele>571.133017</ele>
        <time>2022-03-09T12:04:20.404Z</time>
      </trkpt>
      <trkpt lat="42.68792" lon="23.45183">
        <ele>571.299473</ele>
        <time>2022-03-09T12:04:23.439Z</time>
      </trkpt>
      <trkpt lat="42.68781" lon="23.45185">
        <ele>571.686195</ele>
        <time>2022-03-09T12:04:27.444Z</time>
      </trkpt>
      <trkpt lat="42.68772" lon="23.45186">
        <ele>572.060653</ele>
        <time>2022-03-09T12:04:31.423Z</time>
      </trkpt>
      <trkpt lat="42.68762" lon="23.45189">
        <ele>572.476637</ele>
        <time>2022-03-09T12:04:36.414Z</time>
      </trkpt>
      <trkpt lat="42.68751" lon="23.45192">
        <ele>572.927249</ele>
        <time>2022-03-09T12:04:41.417Z</time>
      </trkpt>
      <trkpt lat="42.68742" lon="23.45195">
        <ele>573.29577</ele>
        <time>2022-03-09T12:04:45.468Z</time>
      </trkpt>
      <trkpt lat="42.68732" lon="23.452">
        <ele>573.692713</ele>
        <time>2022-03-09T12:04:50.400Z</time>
      </trkpt>
      <trkpt lat="42.68722" lon="23.45206">
        <ele>574.141163</ele>
        <time>2022-03-09T12:04:55.402Z</time>
      </trkpt>
      <trkpt lat="42.68713" lon="23.45213">
        <ele>574.555562</ele>
        <time>2022-03-09T12:05:00.423Z</time>
      </trkpt>
      <trkpt lat="42.68705" lon="23.45222">
        <ele>574.975502</ele>
        <time>2022-03-09T12:05:05.411Z</time>
      </trkpt>
      <trkpt lat="42.68697" lon="23.45232">
        <ele>575.407333</ele>
        <time>2022-03-09T12:05:10.413Z</time>
      </trkpt>
      <trkpt lat="42.6869" lon="23.45243">
        <ele>575.828298</ele>
        <time>2022-03-09T12:05:15.413Z</time>
      </trkpt>
      <trkpt lat="42.68684" lon="23.45255">
        <ele>576.260923</ele>
        <time>2022-03-09T12:05:20.446Z</time>
      </trkpt>
      <trkpt lat="42.68679" lon="23.45267">
        <ele>576.668262</ele>
        <time>2022-03-09T12:05:24.401Z</time>
      </trkpt>
      <trkpt lat="42.68675" lon="23.45279">
        <ele>577.06282</ele>
        <time>2022-03-09T12:05:28.432Z</time>
      </trkpt>
      <trkpt lat="42.68672" lon="23.45293">
        <ele>577.482666</ele>
        <time>2022-03-09T12:05:32.419Z</time>
      </trkpt>
      <trkpt lat="42.6867" lon="23.45305">
        <ele>577.858953</ele>
        <time>2022-03-09T12:05:36.422Z</time>
      </trkpt>
      <trkpt lat="42.68667" lon="23.45319">
        <ele>578.301385</ele>
        <time>2022-03-09T12:05:40.416Z</time>
      </trkpt>
      <trkpt lat="42.68662" lon="23.45334">
        <ele>578.438684</ele>
        <time>2022-03-09T12:05:44.420Z</time>
      </trkpt>
      <trkpt lat="42.68658" lon="23.45346">
        <ele>578.181623</ele>
        <time>2022-03-09T12:05:47.428Z</time>
      </trkpt>
      <trkpt lat="42.68654" lon="23.45358">
        <ele>577.925863</ele>
        <time>2022-03-09T12:05:50.419Z</time>
      </trkpt>
      <trkpt lat="42.68651" lon="23.45372">
        <ele>577.65073</ele>
        <time>2022-03-09T12:05:53.413Z</time>
      </trkpt>
      <trkpt lat="42.68648" lon="23.45386">
        <ele>577.360979</ele>
        <time>2022-03-09T12:05:56.412Z</time>
      </trkpt>
      <trkpt lat="42.68645" lon="23.45402">
        <ele>577.041967</ele>
        <time>2022-03-09T12:05:59.449Z</time>
      </trkpt>
      <trkpt lat="42.68642" lon="23.45415">
        <ele>576.794059</ele>
        <time>2022-03-09T12:06:01.414Z</time>
      </trkpt>
      <trkpt lat="42.68638" lon="23.45428">
        <ele>576.523252</ele>
        <time>2022-03-09T12:06:03.415Z</time>
      </trkpt>
      <trkpt lat="42.68635" lon="23.45441">
        <ele>576.258746</ele>
        <time>2022-03-09T12:06:05.413Z</time>
      </trkpt>
      <trkpt lat="42.6863" lon="23.45454">
        <ele>575.983295</ele>
        <time>2022-03-09T12:06:07.426Z</time>
      </trkpt>
      <trkpt lat="42.68623" lon="23.45467">
        <ele>575.663532</ele>
        <time>2022-03-09T12:06:09.393Z</time>
      </trkpt>
      <trkpt lat="42.68615" lon="23.45482">
        <ele>575.312752</ele>
        <time>2022-03-09T12:06:11.399Z</time>
      </trkpt>
      <trkpt lat="42.68607" lon="23.45497">
        <ele>574.949699</ele>
        <time>2022-03-09T12:06:13.410Z</time>
      </trkpt>
      <trkpt lat="42.68598" lon="23.45512">
        <ele>574.581808</ele>
        <time>2022-03-09T12:06:15.440Z</time>
      </trkpt>
      <trkpt lat="42.68588" lon="23.45527">
        <ele>574.203437</ele>
        <time>2022-03-09T12:06:17.432Z</time>
      </trkpt>
      <trkpt lat="42.68578" lon="23.45542">
        <ele>573.823651</ele>
        <time>2022-03-09T12:06:19.401Z</time>
      </trkpt>
      <trkpt lat="42.68567" lon="23.45556">
        <ele>573.516701</ele>
        <time>2022-03-09T12:06:21.454Z</time>
      </trkpt>
      <trkpt lat="42.68556" lon="23.45571">
        <ele>573.197177</ele>
        <time>2022-03-09T12:06:23.428Z</time>
      </trkpt>
      <trkpt lat="42.68544" lon="23.45586">
        <ele>572.868179</ele>
        <time>2022-03-09T12:06:25.413Z</time>
      </trkpt>
      <trkpt lat="42.68533" lon="23.45601">
        <ele>572.539629</ele>
        <time>2022-03-09T12:06:27.468Z</time>
      </trkpt>
      <trkpt lat="42.68521" lon="23.45616">
        <ele>572.205588</ele>
        <time>2022-03-09T12:06:29.416Z</time>
      </trkpt>
      <trkpt lat="42.6851" lon="23.45631">
        <ele>571.885012</ele>
        <time>2022-03-09T12:06:31.420Z</time>
      </trkpt>
      <trkpt lat="42.68499" lon="23.45645">
        <ele>571.588858</ele>
        <time>2022-03-09T12:06:33.409Z</time>
      </trkpt>
      <trkpt lat="42.68489" lon="23.45659">
        <ele>571.297636</ele>
        <time>2022-03-09T12:06:35.429Z</time>
      </trkpt>
      <trkpt lat="42.6848" lon="23.45672">
        <ele>571.024013</ele>
        <time>2022-03-09T12:06:37.423Z</time>
      </trkpt>
      <trkpt lat="42.68471" lon="23.45684">
        <ele>570.762946</ele>
        <time>2022-03-09T12:06:39.418Z</time>
      </trkpt>
      <trkpt lat="42.68462" lon="23.45696">
        <ele>570.505454</ele>
        <time>2022-03-09T12:06:41.411Z</time>
      </trkpt>
      <trkpt lat="42.68453" lon="23.45708">
        <ele>570.253648</ele>
        <time>2022-03-09T12:06:43.415Z</time>
      </trkpt>
      <trkpt lat="42.68445" lon="23.45719">
        <ele>570.366596</ele>
        <time>2022-03-09T12:06:45.425Z</time>
      </trkpt>
      <trkpt lat="42.68437" lon="23.45729">
        <ele>570.587124</ele>
        <time>2022-03-09T12:06:47.414Z</time>
      </trkpt>
      <trkpt lat="42.6843" lon="23.45739">
        <ele>570.79155</ele>
        <time>2022-03-09T12:06:49.420Z</time>
      </trkpt>
      <trkpt lat="42.68423" lon="23.45748">
        <ele>570.986761</ele>
        <time>2022-03-09T12:06:51.405Z</time>
      </trkpt>
      <trkpt lat="42.68417" lon="23.45756">
        <ele>571.175347</ele>
        <time>2022-03-09T12:06:53.428Z</time>
      </trkpt>
      <trkpt lat="42.68407" lon="23.45769">
        <ele>571.449084</ele>
        <time>2022-03-09T12:06:56.423Z</time>
      </trkpt>
      <trkpt lat="42.68401" lon="23.45779">
        <ele>571.643135</ele>
        <time>2022-03-09T12:06:58.405Z</time>
      </trkpt>
      <trkpt lat="42.68394" lon="23.45788">
        <ele>571.846119</ele>
        <time>2022-03-09T12:07:00.424Z</time>
      </trkpt>
      <trkpt lat="42.68387" lon="23.45798">
        <ele>572.04842</ele>
        <time>2022-03-09T12:07:02.441Z</time>
      </trkpt>
      <trkpt lat="42.68381" lon="23.45807">
        <ele>572.235113</ele>
        <time>2022-03-09T12:07:04.415Z</time>
      </trkpt>
      <trkpt lat="42.68374" lon="23.45822">
        <ele>572.496036</ele>
        <time>2022-03-09T12:07:07.417Z</time>
      </trkpt>
      <trkpt lat="42.68369" lon="23.45838">
        <ele>572.747943</ele>
        <time>2022-03-09T12:07:10.419Z</time>
      </trkpt>
      <trkpt lat="42.68365" lon="23.45854">
        <ele>573.01499</ele>
        <time>2022-03-09T12:07:13.410Z</time>
      </trkpt>
      <trkpt lat="42.68361" lon="23.45866">
        <ele>573.199065</ele>
        <time>2022-03-09T12:07:15.423Z</time>
      </trkpt>
      <trkpt lat="42.68358" lon="23.45877">
        <ele>573.385787</ele>
        <time>2022-03-09T12:07:17.417Z</time>
      </trkpt>
      <trkpt lat="42.68355" lon="23.45889">
        <ele>573.580246</ele>
        <time>2022-03-09T12:07:19.438Z</time>
      </trkpt>
      <trkpt lat="42.68352" lon="23.45901">
        <ele>573.771187</ele>
        <time>2022-03-09T12:07:21.410Z</time>
      </trkpt>
      <trkpt lat="42.68348" lon="23.45918">
        <ele>573.853921</ele>
        <time>2022-03-09T12:07:24.408Z</time>
      </trkpt>
      <trkpt lat="42.68344" lon="23.45935">
        <ele>573.834844</ele>
        <time>2022-03-09T12:07:27.414Z</time>
      </trkpt>
      <trkpt lat="42.68339" lon="23.45952">
        <ele>573.816178</ele>
        <time>2022-03-09T12:07:30.489Z</time>
      </trkpt>
      <trkpt lat="42.68335" lon="23.45967">
        <ele>573.798492</ele>
        <time>2022-03-09T12:07:33.422Z</time>
      </trkpt>
      <trkpt lat="42.68329" lon="23.45983">
        <ele>573.779505</ele>
        <time>2022-03-09T12:07:36.412Z</time>
      </trkpt>
      <trkpt lat="42.68324" lon="23.45994">
        <ele>573.766266</ele>
        <time>2022-03-09T12:07:38.405Z</time>
      </trkpt>
      <trkpt lat="42.68321" lon="23.46005">
        <ele>573.753242</ele>
        <time>2022-03-09T12:07:40.447Z</time>
      </trkpt>
      <trkpt lat="42.68317" lon="23.46018">
        <ele>573.738588</ele>
        <time>2022-03-09T12:07:42.425Z</time>
      </trkpt>
      <trkpt lat="42.68312" lon="23.46031">
        <ele>573.723914</ele>
        <time>2022-03-09T12:07:44.400Z</time>
      </trkpt>
      <trkpt lat="42.68308" lon="23.46042">
        <ele>573.710228</ele>
        <time>2022-03-09T12:07:46.404Z</time>
      </trkpt>
      <trkpt lat="42.68305" lon="23.46054">
        <ele>573.696687</ele>
        <time>2022-03-09T12:07:48.416Z</time>
      </trkpt>
      <trkpt lat="42.68302" lon="23.46066">
        <ele>573.68354</ele>
        <time>2022-03-09T12:07:50.457Z</time>
      </trkpt>
      <trkpt lat="42.68298" lon="23.46083">
        <ele>573.664765</ele>
        <time>2022-03-09T12:07:53.418Z</time>
      </trkpt>
      <trkpt lat="42.68292" lon="23.46099">
        <ele>573.645414</ele>
        <time>2022-03-09T12:07:56.412Z</time>
      </trkpt>
      <trkpt lat="42.68287" lon="23.46116">
        <ele>573.626441</ele>
        <time>2022-03-09T12:07:59.399Z</time>
      </trkpt>
      <trkpt lat="42.68284" lon="23.46127">
        <ele>573.613348</ele>
        <time>2022-03-09T12:08:01.411Z</time>
      </trkpt>
      <trkpt lat="42.68281" lon="23.4614">
        <ele>573.517528</ele>
        <time>2022-03-09T12:08:03.421Z</time>
      </trkpt>
      <trkpt lat="42.68277" lon="23.46157">
        <ele>573.2887</ele>
        <time>2022-03-09T12:08:06.408Z</time>
      </trkpt>
      <trkpt lat="42.68274" lon="23.46169">
        <ele>573.131743</ele>
        <time>2022-03-09T12:08:08.418Z</time>
      </trkpt>
      <trkpt lat="42.68271" lon="23.46181">
        <ele>572.968683</ele>
        <time>2022-03-09T12:08:10.421Z</time>
      </trkpt>
      <trkpt lat="42.68267" lon="23.46193">
        <ele>572.80353</ele>
        <time>2022-03-09T12:08:12.425Z</time>
      </trkpt>
      <trkpt lat="42.68264" lon="23.46204">
        <ele>572.642877</ele>
        <time>2022-03-09T12:08:14.405Z</time>
      </trkpt>
      <trkpt lat="42.6826" lon="23.46216">
        <ele>572.481207</ele>
        <time>2022-03-09T12:08:16.425Z</time>
      </trkpt>
      <trkpt lat="42.68254" lon="23.46225">
        <ele>572.323169</ele>
        <time>2022-03-09T12:08:18.413Z</time>
      </trkpt>
      <trkpt lat="42.68245" lon="23.46237">
        <ele>572.102615</ele>
        <time>2022-03-09T12:08:21.420Z</time>
      </trkpt>
      <trkpt lat="42.68233" lon="23.46246">
        <ele>571.874261</ele>
        <time>2022-03-09T12:08:24.428Z</time>
      </trkpt>
      <trkpt lat="42.68223" lon="23.46254">
        <ele>571.665658</ele>
        <time>2022-03-09T12:08:27.397Z</time>
      </trkpt>
      <trkpt lat="42.68212" lon="23.46263">
        <ele>571.438807</ele>
        <time>2022-03-09T12:08:30.443Z</time>
      </trkpt>
      <trkpt lat="42.68201" lon="23.46272">
        <ele>571.212945</ele>
        <time>2022-03-09T12:08:33.420Z</time>
      </trkpt>
      <trkpt lat="42.6819" lon="23.46281">
        <ele>570.993556</ele>
        <time>2022-03-09T12:08:36.408Z</time>
      </trkpt>
      <trkpt lat="42.68179" lon="23.4629">
        <ele>570.771193</ele>
        <time>2022-03-09T12:08:39.438Z</time>
      </trkpt>
      <trkpt lat="42.68169" lon="23.463">
        <ele>570.548398</ele>
        <time>2022-03-09T12:08:42.418Z</time>
      </trkpt>
      <trkpt lat="42.68158" lon="23.4631">
        <ele>570.580528</ele>
        <time>2022-03-09T12:08:45.415Z</time>
      </trkpt>
      <trkpt lat="42.68149" lon="23.46319">
        <ele>570.751674</ele>
        <time>2022-03-09T12:08:48.423Z</time>
      </trkpt>
      <trkpt lat="42.68137" lon="23.46328">
        <ele>570.936584</ele>
        <time>2022-03-09T12:08:51.421Z</time>
      </trkpt>
      <trkpt lat="42.68129" lon="23.46335">
        <ele>571.066962</ele>
        <time>2022-03-09T12:08:53.429Z</time>
      </trkpt>
      <trkpt lat="42.68122" lon="23.46342">
        <ele>571.196045</ele>
        <time>2022-03-09T12:08:55.410Z</time>
      </trkpt>
      <trkpt lat="42.68115" lon="23.4635">
        <ele>571.326671</ele>
        <time>2022-03-09T12:08:57.402Z</time>
      </trkpt>
      <trkpt lat="42.68106" lon="23.46357">
        <ele>571.466324</ele>
        <time>2022-03-09T12:08:59.424Z</time>
      </trkpt>
      <trkpt lat="42.68098" lon="23.46365">
        <ele>571.610535</ele>
        <time>2022-03-09T12:09:01.419Z</time>
      </trkpt>
      <trkpt lat="42.6809" lon="23.46372">
        <ele>571.748923</ele>
        <time>2022-03-09T12:09:03.405Z</time>
      </trkpt>
      <trkpt lat="42.68082" lon="23.4638">
        <ele>571.880905</ele>
        <time>2022-03-09T12:09:05.413Z</time>
      </trkpt>
      <trkpt lat="42.68075" lon="23.46388">
        <ele>572.016784</ele>
        <time>2022-03-09T12:09:07.417Z</time>
      </trkpt>
      <trkpt lat="42.68068" lon="23.46396">
        <ele>572.151033</ele>
        <time>2022-03-09T12:09:09.449Z</time>
      </trkpt>
      <trkpt lat="42.68061" lon="23.46405">
        <ele>572.284929</ele>
        <time>2022-03-09T12:09:11.413Z</time>
      </trkpt>
      <trkpt lat="42.68053" lon="23.46413">
        <ele>572.414262</ele>
        <time>2022-03-09T12:09:13.409Z</time>
      </trkpt>
      <trkpt lat="42.68047" lon="23.46421">
        <ele>572.541896</ele>
        <time>2022-03-09T12:09:15.409Z</time>
      </trkpt>
      <trkpt lat="42.68038" lon="23.46433">
        <ele>572.716266</ele>
        <time>2022-03-09T12:09:18.427Z</time>
      </trkpt>
      <trkpt lat="42.68029" lon="23.46444">
        <ele>572.883567</ele>
        <time>2022-03-09T12:09:21.428Z</time>
      </trkpt>
      <trkpt lat="42.6802" lon="23.46456">
        <ele>573.121797</ele>
        <time>2022-03-09T12:09:24.421Z</time>
      </trkpt>
      <trkpt lat="42.68009" lon="23.46465">
        <ele>573.480477</ele>
        <time>2022-03-09T12:09:27.423Z</time>
      </trkpt>
      <trkpt lat="42.68" lon="23.4647">
        <ele>573.736423</ele>
        <time>2022-03-09T12:09:29.408Z</time>
      </trkpt>
      <trkpt lat="42.67988" lon="23.46475">
        <ele>574.098336</ele>
        <time>2022-03-09T12:09:32.419Z</time>
      </trkpt>
      <trkpt lat="42.67976" lon="23.46477">
        <ele>574.428638</ele>
        <time>2022-03-09T12:09:35.451Z</time>
      </trkpt>
      <trkpt lat="42.67965" lon="23.46478">
        <ele>574.729801</ele>
        <time>2022-03-09T12:09:38.413Z</time>
      </trkpt>
      <trkpt lat="42.67953" lon="23.4648">
        <ele>575.07598</ele>
        <time>2022-03-09T12:09:41.420Z</time>
      </trkpt>
      <trkpt lat="42.6794" lon="23.4648">
        <ele>575.420468</ele>
        <time>2022-03-09T12:09:44.420Z</time>
      </trkpt>
      <trkpt lat="42.67928" lon="23.4648">
        <ele>575.773241</ele>
        <time>2022-03-09T12:09:47.449Z</time>
      </trkpt>
      <trkpt lat="42.67916" lon="23.4648">
        <ele>576.098334</ele>
        <time>2022-03-09T12:09:50.393Z</time>
      </trkpt>
      <trkpt lat="42.67904" lon="23.4648">
        <ele>576.431713</ele>
        <time>2022-03-09T12:09:53.404Z</time>
      </trkpt>
      <trkpt lat="42.67892" lon="23.46479">
        <ele>576.762769</ele>
        <time>2022-03-09T12:09:56.420Z</time>
      </trkpt>
      <trkpt lat="42.6788" lon="23.46478">
        <ele>577.093944</ele>
        <time>2022-03-09T12:09:59.429Z</time>
      </trkpt>
      <trkpt lat="42.67868" lon="23.46477">
        <ele>577.436478</ele>
        <time>2022-03-09T12:10:02.421Z</time>
      </trkpt>
      <trkpt lat="42.67856" lon="23.46476">
        <ele>577.751313</ele>
        <time>2022-03-09T12:10:05.414Z</time>
      </trkpt>
      <trkpt lat="42.67847" lon="23.46475">
        <ele>578.001438</ele>
        <time>2022-03-09T12:10:07.419Z</time>
      </trkpt>
      <trkpt lat="42.67835" lon="23.46475">
        <ele>578.367383</ele>
        <time>2022-03-09T12:10:10.417Z</time>
      </trkpt>
      <trkpt lat="42.67823" lon="23.46474">
        <ele>578.707553</ele>
        <time>2022-03-09T12:10:13.434Z</time>
      </trkpt>
      <trkpt lat="42.67811" lon="23.46473">
        <ele>579.062078</ele>
        <time>2022-03-09T12:10:16.412Z</time>
      </trkpt>
      <trkpt lat="42.67798" lon="23.46473">
        <ele>579.428366</ele>
        <time>2022-03-09T12:10:19.407Z</time>
      </trkpt>
      <trkpt lat="42.67786" lon="23.46472">
        <ele>579.777862</ele>
        <time>2022-03-09T12:10:22.419Z</time>
      </trkpt>
      <trkpt lat="42.67774" lon="23.46471">
        <ele>580.135648</ele>
        <time>2022-03-09T12:10:25.414Z</time>
      </trkpt>
      <trkpt lat="42.67762" lon="23.4647">
        <ele>580.499485</ele>
        <time>2022-03-09T12:10:28.425Z</time>
      </trkpt>
      <trkpt lat="42.67749" lon="23.46468">
        <ele>580.861276</ele>
        <time>2022-03-09T12:10:31.441Z</time>
      </trkpt>
      <trkpt lat="42.67737" lon="23.46467">
        <ele>581.228478</ele>
        <time>2022-03-09T12:10:34.413Z</time>
      </trkpt>
      <trkpt lat="42.67724" lon="23.46465">
        <ele>581.581032</ele>
        <time>2022-03-09T12:10:37.415Z</time>
      </trkpt>
      <trkpt lat="42.67712" lon="23.46464">
        <ele>581.956464</ele>
        <time>2022-03-09T12:10:40.425Z</time>
      </trkpt>
      <trkpt lat="42.677" lon="23.46465">
        <ele>582.293732</ele>
        <time>2022-03-09T12:10:43.408Z</time>
      </trkpt>
      <trkpt lat="42.67687" lon="23.46464">
        <ele>582.666266</ele>
        <time>2022-03-09T12:10:46.419Z</time>
      </trkpt>
      <trkpt lat="42.67675" lon="23.46461">
        <ele>583.026895</ele>
        <time>2022-03-09T12:10:49.420Z</time>
      </trkpt>
      <trkpt lat="42.67664" lon="23.4646">
        <ele>583.2127</ele>
        <time>2022-03-09T12:10:52.416Z</time>
      </trkpt>
      <trkpt lat="42.67653" lon="23.46461">
        <ele>583.168968</ele>
        <time>2022-03-09T12:10:55.412Z</time>
      </trkpt>
      <trkpt lat="42.67642" lon="23.46461">
        <ele>583.121406</ele>
        <time>2022-03-09T12:10:58.418Z</time>
      </trkpt>
      <trkpt lat="42.6763" lon="23.46463">
        <ele>583.06909</ele>
        <time>2022-03-09T12:11:01.425Z</time>
      </trkpt>
      <trkpt lat="42.67617" lon="23.46464">
        <ele>583.016773</ele>
        <time>2022-03-09T12:11:04.417Z</time>
      </trkpt>
      <trkpt lat="42.67605" lon="23.46465">
        <ele>582.963738</ele>
        <time>2022-03-09T12:11:07.403Z</time>
      </trkpt>
      <trkpt lat="42.67593" lon="23.46466">
        <ele>582.912768</ele>
        <time>2022-03-09T12:11:10.468Z</time>
      </trkpt>
      <trkpt lat="42.67581" lon="23.46468">
        <ele>582.865648</ele>
        <time>2022-03-09T12:11:13.405Z</time>
      </trkpt>
      <trkpt lat="42.67571" lon="23.46472">
        <ele>582.821009</ele>
        <time>2022-03-09T12:11:16.440Z</time>
      </trkpt>
      <trkpt lat="42.67562" lon="23.46476">
        <ele>582.781598</ele>
        <time>2022-03-09T12:11:19.411Z</time>
      </trkpt>
      <trkpt lat="42.67551" lon="23.46482">
        <ele>582.731802</ele>
        <time>2022-03-09T12:11:23.413Z</time>
      </trkpt>
      <trkpt lat="42.67542" lon="23.46487">
        <ele>582.691547</ele>
        <time>2022-03-09T12:11:26.401Z</time>
      </trkpt>
      <trkpt lat="42.67533" lon="23.46491">
        <ele>582.650226</ele>
        <time>2022-03-09T12:11:29.408Z</time>
      </trkpt>
      <trkpt lat="42.67523" lon="23.46497">
        <ele>582.605651</ele>
        <time>2022-03-09T12:11:32.416Z</time>
      </trkpt>
      <trkpt lat="42.67513" lon="23.46501">
        <ele>582.557845</ele>
        <time>2022-03-09T12:11:35.413Z</time>
      </trkpt>
      <trkpt lat="42.675" lon="23.46506">
        <ele>582.50485</ele>
        <time>2022-03-09T12:11:38.413Z</time>
      </trkpt>
      <trkpt lat="42.67488" lon="23.46512">
        <ele>582.396097</ele>
        <time>2022-03-09T12:11:41.425Z</time>
      </trkpt>
      <trkpt lat="42.67476" lon="23.46518">
        <ele>582.212915</ele>
        <time>2022-03-09T12:11:44.409Z</time>
      </trkpt>
      <trkpt lat="42.67465" lon="23.46524">
        <ele>582.050738</ele>
        <time>2022-03-09T12:11:47.448Z</time>
      </trkpt>
      <trkpt lat="42.67455" lon="23.4653">
        <ele>581.894768</ele>
        <time>2022-03-09T12:11:50.452Z</time>
      </trkpt>
      <trkpt lat="42.67445" lon="23.46536">
        <ele>581.746545</ele>
        <time>2022-03-09T12:11:53.424Z</time>
      </trkpt>
      <trkpt lat="42.67433" lon="23.4654">
        <ele>581.574588</ele>
        <time>2022-03-09T12:11:56.412Z</time>
      </trkpt>
      <trkpt lat="42.67421" lon="23.46545">
        <ele>581.403267</ele>
        <time>2022-03-09T12:11:59.407Z</time>
      </trkpt>
      <trkpt lat="42.6741" lon="23.4655">
        <ele>581.232957</ele>
        <time>2022-03-09T12:12:02.426Z</time>
      </trkpt>
      <trkpt lat="42.67398" lon="23.46556">
        <ele>581.062646</ele>
        <time>2022-03-09T12:12:05.421Z</time>
      </trkpt>
      <trkpt lat="42.67387" lon="23.4656">
        <ele>580.900539</ele>
        <time>2022-03-09T12:12:08.418Z</time>
      </trkpt>
      <trkpt lat="42.67377" lon="23.46565">
        <ele>580.748967</ele>
        <time>2022-03-09T12:12:11.429Z</time>
      </trkpt>
      <trkpt lat="42.67367" lon="23.4657">
        <ele>580.602028</ele>
        <time>2022-03-09T12:12:14.431Z</time>
      </trkpt>
      <trkpt lat="42.67358" lon="23.46574">
        <ele>580.462416</ele>
        <time>2022-03-09T12:12:17.406Z</time>
      </trkpt>
      <trkpt lat="42.67347" lon="23.46579">
        <ele>580.305971</ele>
        <time>2022-03-09T12:12:20.409Z</time>
      </trkpt>
      <trkpt lat="42.67336" lon="23.46584">
        <ele>580.149527</ele>
        <time>2022-03-09T12:12:23.422Z</time>
      </trkpt>
      <trkpt lat="42.67326" lon="23.46586">
        <ele>579.999636</ele>
        <time>2022-03-09T12:12:26.406Z</time>
      </trkpt>
      <trkpt lat="42.67315" lon="23.46584">
        <ele>580.131609</ele>
        <time>2022-03-09T12:12:29.445Z</time>
      </trkpt>
      <trkpt lat="42.67304" lon="23.46579">
        <ele>580.373668</ele>
        <time>2022-03-09T12:12:32.416Z</time>
      </trkpt>
      <trkpt lat="42.67293" lon="23.46573">
        <ele>580.613365</ele>
        <time>2022-03-09T12:12:35.450Z</time>
      </trkpt>
      <trkpt lat="42.67283" lon="23.46566">
        <ele>580.859243</ele>
        <time>2022-03-09T12:12:38.464Z</time>
      </trkpt>
      <trkpt lat="42.67272" lon="23.4656">
        <ele>581.100739</ele>
        <time>2022-03-09T12:12:41.453Z</time>
      </trkpt>
      <trkpt lat="42.6726" lon="23.46553">
        <ele>581.36921</ele>
        <time>2022-03-09T12:12:44.411Z</time>
      </trkpt>
      <trkpt lat="42.67249" lon="23.46546">
        <ele>581.617037</ele>
        <time>2022-03-09T12:12:47.432Z</time>
      </trkpt>
      <trkpt lat="42.67238" lon="23.46539">
        <ele>581.864219</ele>
        <time>2022-03-09T12:12:50.413Z</time>
      </trkpt>
      <trkpt lat="42.67227" lon="23.46533">
        <ele>582.112362</ele>
        <time>2022-03-09T12:12:53.415Z</time>
      </trkpt>
      <trkpt lat="42.67217" lon="23.46527">
        <ele>582.347662</ele>
        <time>2022-03-09T12:12:56.417Z</time>
      </trkpt>
      <trkpt lat="42.67206" lon="23.46521">
        <ele>582.587281</ele>
        <time>2022-03-09T12:12:59.413Z</time>
      </trkpt>
      <trkpt lat="42.67196" lon="23.46515">
        <ele>582.81999</ele>
        <time>2022-03-09T12:13:02.417Z</time>
      </trkpt>
      <trkpt lat="42.67185" lon="23.46508">
        <ele>583.056484</ele>
        <time>2022-03-09T12:13:05.420Z</time>
      </trkpt>
      <trkpt lat="42.67175" lon="23.46502">
        <ele>583.294203</ele>
        <time>2022-03-09T12:13:08.424Z</time>
      </trkpt>
      <trkpt lat="42.67164" lon="23.46495">
        <ele>583.528794</ele>
        <time>2022-03-09T12:13:11.422Z</time>
      </trkpt>
      <trkpt lat="42.67154" lon="23.46488">
        <ele>583.768034</ele>
        <time>2022-03-09T12:13:14.437Z</time>
      </trkpt>
      <trkpt lat="42.67144" lon="23.46482">
        <ele>583.985614</ele>
        <time>2022-03-09T12:13:17.413Z</time>
      </trkpt>
      <trkpt lat="42.67134" lon="23.46476">
        <ele>584.205595</ele>
        <time>2022-03-09T12:13:20.489Z</time>
      </trkpt>
      <trkpt lat="42.67123" lon="23.4647">
        <ele>584.436616</ele>
        <time>2022-03-09T12:13:23.432Z</time>
      </trkpt>
      <trkpt lat="42.67112" lon="23.46464">
        <ele>584.677186</ele>
        <time>2022-03-09T12:13:26.421Z</time>
      </trkpt>
      <trkpt lat="42.671" lon="23.46459">
        <ele>584.922428</ele>
        <time>2022-03-09T12:13:29.417Z</time>
      </trkpt>
      <trkpt lat="42.67089" lon="23.46455">
        <ele>585.154725</ele>
        <time>2022-03-09T12:13:32.444Z</time>
      </trkpt>
      <trkpt lat="42.67077" lon="23.4645">
        <ele>585.403238</ele>
        <time>2022-03-09T12:13:35.422Z</time>
      </trkpt>
      <trkpt lat="42.67066" lon="23.46446">
        <ele>585.64268</ele>
        <time>2022-03-09T12:13:38.404Z</time>
      </trkpt>
      <trkpt lat="42.67054" lon="23.46444">
        <ele>585.86856</ele>
        <time>2022-03-09T12:13:41.428Z</time>
      </trkpt>
      <trkpt lat="42.67043" lon="23.46442">
        <ele>586.104126</ele>
        <time>2022-03-09T12:13:44.420Z</time>
      </trkpt>
      <trkpt lat="42.67031" lon="23.46438">
        <ele>586.336127</ele>
        <time>2022-03-09T12:13:47.426Z</time>
      </trkpt>
      <trkpt lat="42.6702" lon="23.46436">
        <ele>586.564649</ele>
        <time>2022-03-09T12:13:50.404Z</time>
      </trkpt>
      <trkpt lat="42.67009" lon="23.46433">
        <ele>586.789475</ele>
        <time>2022-03-09T12:13:53.447Z</time>
      </trkpt>
      <trkpt lat="42.66997" lon="23.4643">
        <ele>587.029366</ele>
        <time>2022-03-09T12:13:56.428Z</time>
      </trkpt>
      <trkpt lat="42.66986" lon="23.46427">
        <ele>587.264034</ele>
        <time>2022-03-09T12:13:59.408Z</time>
      </trkpt>
      <trkpt lat="42.66975" lon="23.46425">
        <ele>587.148947</ele>
        <time>2022-03-09T12:14:02.421Z</time>
      </trkpt>
      <trkpt lat="42.66963" lon="23.46422">
        <ele>587.017118</ele>
        <time>2022-03-09T12:14:05.401Z</time>
      </trkpt>
      <trkpt lat="42.66952" lon="23.4642">
        <ele>586.887838</ele>
        <time>2022-03-09T12:14:08.422Z</time>
      </trkpt>
      <trkpt lat="42.66941" lon="23.46418">
        <ele>586.755288</ele>
        <time>2022-03-09T12:14:11.430Z</time>
      </trkpt>
      <trkpt lat="42.66929" lon="23.46416">
        <ele>586.620933</ele>
        <time>2022-03-09T12:14:14.419Z</time>
      </trkpt>
      <trkpt lat="42.66917" lon="23.46414">
        <ele>586.484755</ele>
        <time>2022-03-09T12:14:17.415Z</time>
      </trkpt>
      <trkpt lat="42.66906" lon="23.46412">
        <ele>586.349804</ele>
        <time>2022-03-09T12:14:20.500Z</time>
      </trkpt>
      <trkpt lat="42.66895" lon="23.46409">
        <ele>586.222051</ele>
        <time>2022-03-09T12:14:23.420Z</time>
      </trkpt>
      <trkpt lat="42.66884" lon="23.46408">
        <ele>586.098452</ele>
        <time>2022-03-09T12:14:26.415Z</time>
      </trkpt>
      <trkpt lat="42.66873" lon="23.46405">
        <ele>585.972427</ele>
        <time>2022-03-09T12:14:29.396Z</time>
      </trkpt>
      <trkpt lat="42.66862" lon="23.46403">
        <ele>585.838072</ele>
        <time>2022-03-09T12:14:32.421Z</time>
      </trkpt>
      <trkpt lat="42.6685" lon="23.464">
        <ele>585.697562</ele>
        <time>2022-03-09T12:14:35.422Z</time>
      </trkpt>
      <trkpt lat="42.66838" lon="23.46396">
        <ele>585.564507</ele>
        <time>2022-03-09T12:14:38.422Z</time>
      </trkpt>
      <trkpt lat="42.66827" lon="23.46391">
        <ele>585.431506</ele>
        <time>2022-03-09T12:14:41.414Z</time>
      </trkpt>
      <trkpt lat="42.66817" lon="23.46385">
        <ele>585.299464</ele>
        <time>2022-03-09T12:14:44.428Z</time>
      </trkpt>
      <trkpt lat="42.66807" lon="23.46379">
        <ele>585.282536</ele>
        <time>2022-03-09T12:14:47.418Z</time>
      </trkpt>
      <trkpt lat="42.66798" lon="23.46372">
        <ele>585.597908</ele>
        <time>2022-03-09T12:14:50.424Z</time>
      </trkpt>
      <trkpt lat="42.66789" lon="23.46365">
        <ele>585.914789</ele>
        <time>2022-03-09T12:14:53.425Z</time>
      </trkpt>
      <trkpt lat="42.6678" lon="23.46358">
        <ele>586.231752</ele>
        <time>2022-03-09T12:14:56.426Z</time>
      </trkpt>
      <trkpt lat="42.66771" lon="23.4635">
        <ele>586.54736</ele>
        <time>2022-03-09T12:14:59.468Z</time>
      </trkpt>
      <trkpt lat="42.66762" lon="23.46342">
        <ele>586.86165</ele>
        <time>2022-03-09T12:15:02.420Z</time>
      </trkpt>
      <trkpt lat="42.66753" lon="23.46336">
        <ele>587.168466</ele>
        <time>2022-03-09T12:15:05.435Z</time>
      </trkpt>
      <trkpt lat="42.66744" lon="23.46329">
        <ele>587.475282</ele>
        <time>2022-03-09T12:15:08.401Z</time>
      </trkpt>
      <trkpt lat="42.66735" lon="23.46321">
        <ele>587.799572</ele>
        <time>2022-03-09T12:15:11.402Z</time>
      </trkpt>
      <trkpt lat="42.66726" lon="23.46313">
        <ele>588.120506</ele>
        <time>2022-03-09T12:15:14.397Z</time>
      </trkpt>
      <trkpt lat="42.66718" lon="23.46307">
        <ele>588.420546</ele>
        <time>2022-03-09T12:15:17.422Z</time>
      </trkpt>
      <trkpt lat="42.66709" lon="23.46299">
        <ele>588.742929</ele>
        <time>2022-03-09T12:15:20.451Z</time>
      </trkpt>
      <trkpt lat="42.667" lon="23.46292">
        <ele>589.057557</ele>
        <time>2022-03-09T12:15:23.445Z</time>
      </trkpt>
      <trkpt lat="42.6669" lon="23.46284">
        <ele>589.38853</ele>
        <time>2022-03-09T12:15:26.421Z</time>
      </trkpt>
      <trkpt lat="42.66681" lon="23.46276">
        <ele>589.720652</ele>
        <time>2022-03-09T12:15:29.421Z</time>
      </trkpt>
      <trkpt lat="42.66672" lon="23.46268">
        <ele>590.053744</ele>
        <time>2022-03-09T12:15:32.419Z</time>
      </trkpt>
      <trkpt lat="42.66662" lon="23.4626">
        <ele>590.390573</ele>
        <time>2022-03-09T12:15:35.410Z</time>
      </trkpt>
      <trkpt lat="42.66653" lon="23.46252">
        <ele>590.659887</ele>
        <time>2022-03-09T12:15:38.425Z</time>
      </trkpt>
      <trkpt lat="42.66642" lon="23.46244">
        <ele>590.758813</ele>
        <time>2022-03-09T12:15:41.429Z</time>
      </trkpt>
      <trkpt lat="42.66632" lon="23.46239">
        <ele>590.856597</ele>
        <time>2022-03-09T12:15:44.424Z</time>
      </trkpt>
      <trkpt lat="42.66622" lon="23.46233">
        <ele>590.951499</ele>
        <time>2022-03-09T12:15:47.413Z</time>
      </trkpt>
      <trkpt lat="42.66611" lon="23.46228">
        <ele>591.047119</ele>
        <time>2022-03-09T12:15:50.430Z</time>
      </trkpt>
      <trkpt lat="42.66601" lon="23.46224">
        <ele>591.143989</ele>
        <time>2022-03-09T12:15:53.422Z</time>
      </trkpt>
      <trkpt lat="42.6659" lon="23.4622">
        <ele>591.242638</ele>
        <time>2022-03-09T12:15:56.407Z</time>
      </trkpt>
      <trkpt lat="42.66579" lon="23.46215">
        <ele>591.337955</ele>
        <time>2022-03-09T12:15:59.393Z</time>
      </trkpt>
      <trkpt lat="42.6657" lon="23.46212">
        <ele>591.421613</ele>
        <time>2022-03-09T12:16:02.432Z</time>
      </trkpt>
      <trkpt lat="42.6656" lon="23.46208">
        <ele>591.511767</ele>
        <time>2022-03-09T12:16:05.400Z</time>
      </trkpt>
      <trkpt lat="42.66549" lon="23.46205">
        <ele>591.606264</ele>
        <time>2022-03-09T12:16:08.417Z</time>
      </trkpt>
      <trkpt lat="42.66538" lon="23.46201">
        <ele>591.707936</ele>
        <time>2022-03-09T12:16:11.416Z</time>
      </trkpt>
      <trkpt lat="42.66527" lon="23.46198">
        <ele>591.805228</ele>
        <time>2022-03-09T12:16:14.402Z</time>
      </trkpt>
      <trkpt lat="42.66515" lon="23.46195">
        <ele>591.907978</ele>
        <time>2022-03-09T12:16:17.410Z</time>
      </trkpt>
      <trkpt lat="42.66503" lon="23.46193">
        <ele>592.008512</ele>
        <time>2022-03-09T12:16:20.412Z</time>
      </trkpt>
      <trkpt lat="42.66492" lon="23.4619">
        <ele>592.108192</ele>
        <time>2022-03-09T12:16:23.420Z</time>
      </trkpt>
      <trkpt lat="42.66482" lon="23.46188">
        <ele>592.225417</ele>
        <time>2022-03-09T12:16:26.449Z</time>
      </trkpt>
      <trkpt lat="42.66472" lon="23.46184">
        <ele>592.479979</ele>
        <time>2022-03-09T12:16:29.413Z</time>
      </trkpt>
      <trkpt lat="42.66462" lon="23.46182">
        <ele>592.714786</ele>
        <time>2022-03-09T12:16:32.428Z</time>
      </trkpt>
      <trkpt lat="42.66453" lon="23.46178">
        <ele>592.946818</ele>
        <time>2022-03-09T12:16:35.479Z</time>
      </trkpt>
      <trkpt lat="42.66444" lon="23.46173">
        <ele>593.192925</ele>
        <time>2022-03-09T12:16:38.426Z</time>
      </trkpt>
      <trkpt lat="42.66437" lon="23.4616">
        <ele>593.488719</ele>
        <time>2022-03-09T12:16:41.421Z</time>
      </trkpt>
      <trkpt lat="42.66437" lon="23.46144">
        <ele>593.781021</ele>
        <time>2022-03-09T12:16:44.427Z</time>
      </trkpt>
      <trkpt lat="42.66442" lon="23.46132">
        <ele>594.029787</ele>
        <time>2022-03-09T12:16:47.408Z</time>
      </trkpt>
      <trkpt lat="42.66447" lon="23.46118">
        <ele>594.315174</ele>
        <time>2022-03-09T12:16:50.440Z</time>
      </trkpt>
      <trkpt lat="42.66453" lon="23.46104">
        <ele>594.626306</ele>
        <time>2022-03-09T12:16:53.413Z</time>
      </trkpt>
      <trkpt lat="42.6646" lon="23.46089">
        <ele>594.943143</ele>
        <time>2022-03-09T12:16:56.408Z</time>
      </trkpt>
      <trkpt lat="42.66467" lon="23.46076">
        <ele>595.228789</ele>
        <time>2022-03-09T12:16:59.432Z</time>
      </trkpt>
      <trkpt lat="42.66473" lon="23.46064">
        <ele>595.507239</ele>
        <time>2022-03-09T12:17:02.408Z</time>
      </trkpt>
      <trkpt lat="42.66479" lon="23.46051">
        <ele>595.777458</ele>
        <time>2022-03-09T12:17:05.444Z</time>
      </trkpt>
      <trkpt lat="42.66485" lon="23.46039">
        <ele>596.038106</ele>
        <time>2022-03-09T12:17:08.424Z</time>
      </trkpt>
      <trkpt lat="42.66488" lon="23.46024">
        <ele>596.325577</ele>
        <time>2022-03-09T12:17:11.422Z</time>
      </trkpt>
      <trkpt lat="42.66489" lon="23.46009">
        <ele>596.607762</ele>
        <time>2022-03-09T12:17:14.406Z</time>
      </trkpt>
      <trkpt lat="42.66489" lon="23.45994">
        <ele>597.031524</ele>
        <time>2022-03-09T12:17:17.405Z</time>
      </trkpt>
      <trkpt lat="42.66491" lon="23.45979">
        <ele>597.497086</ele>
        <time>2022-03-09T12:17:20.415Z</time>
      </trkpt>
      <trkpt lat="42.66493" lon="23.45964">
        <ele>597.974459</ele>
        <time>2022-03-09T12:17:23.425Z</time>
      </trkpt>
      <trkpt lat="42.66496" lon="23.4595">
        <ele>598.435152</ele>
        <time>2022-03-09T12:17:26.403Z</time>
      </trkpt>
      <trkpt lat="42.66498" lon="23.45934">
        <ele>598.929479</ele>
        <time>2022-03-09T12:17:30.407Z</time>
      </trkpt>
      <trkpt lat="42.66499" lon="23.45921">
        <ele>599.346879</ele>
        <time>2022-03-09T12:17:33.470Z</time>
      </trkpt>
      <trkpt lat="42.66499" lon="23.45906">
        <ele>599.792679</ele>
        <time>2022-03-09T12:17:37.422Z</time>
      </trkpt>
      <trkpt lat="42.66501" lon="23.45893">
        <ele>600.193068</ele>
        <time>2022-03-09T12:17:41.429Z</time>
      </trkpt>
      <trkpt lat="42.66504" lon="23.45881">
        <ele>600.607142</ele>
        <time>2022-03-09T12:17:45.422Z</time>
      </trkpt>
      <trkpt lat="42.66505" lon="23.45868">
        <ele>600.990059</ele>
        <time>2022-03-09T12:17:49.421Z</time>
      </trkpt>
      <trkpt lat="42.66508" lon="23.45857">
        <ele>601.372627</ele>
        <time>2022-03-09T12:17:53.422Z</time>
      </trkpt>
      <trkpt lat="42.66506" lon="23.45844">
        <ele>601.774694</ele>
        <time>2022-03-09T12:17:58.420Z</time>
      </trkpt>
      <trkpt lat="42.66505" lon="23.45832">
        <ele>602.156603</ele>
        <time>2022-03-09T12:18:03.404Z</time>
      </trkpt>
      <trkpt lat="42.66509" lon="23.45818">
        <ele>602.588077</ele>
        <time>2022-03-09T12:18:09.410Z</time>
      </trkpt>
      <trkpt lat="42.66505" lon="23.45805">
        <ele>603.04025</ele>
        <time>2022-03-09T12:18:16.420Z</time>
      </trkpt>
      <trkpt lat="42.66506" lon="23.4579">
        <ele>603.492397</ele>
        <time>2022-03-09T12:18:22.425Z</time>
      </trkpt>
      <trkpt lat="42.66508" lon="23.45777">
        <ele>603.903312</ele>
        <time>2022-03-09T12:18:27.404Z</time>
      </trkpt>
      <trkpt lat="42.66508" lon="23.45764">
        <ele>604.243337</ele>
        <time>2022-03-09T12:18:32.406Z</time>
      </trkpt>
      <trkpt lat="42.66508" lon="23.4575">
        <ele>604.332661</ele>
        <time>2022-03-09T12:18:37.425Z</time>
      </trkpt>
      <trkpt lat="42.66508" lon="23.45736">
        <ele>604.422631</ele>
        <time>2022-03-09T12:18:42.422Z</time>
      </trkpt>
      <trkpt lat="42.66509" lon="23.45722">
        <ele>604.512232</ele>
        <time>2022-03-09T12:18:47.440Z</time>
      </trkpt>
      <trkpt lat="42.66508" lon="23.45709">
        <ele>604.601122</ele>
        <time>2022-03-09T12:18:52.420Z</time>
      </trkpt>
      <trkpt lat="42.66508" lon="23.45696">
        <ele>604.680814</ele>
        <time>2022-03-09T12:18:56.401Z</time>
      </trkpt>
      <trkpt lat="42.66508" lon="23.45682">
        <ele>604.773377</ele>
        <time>2022-03-09T12:19:00.411Z</time>
      </trkpt>
      <trkpt lat="42.66507" lon="23.45666">
        <ele>604.876327</ele>
        <time>2022-03-09T12:19:04.461Z</time>
      </trkpt>
      <trkpt lat="42.66505" lon="23.4565">
        <ele>604.983656</ele>
        <time>2022-03-09T12:19:08.414Z</time>
      </trkpt>
      <trkpt lat="42.66504" lon="23.45634">
        <ele>605.088237</ele>
        <time>2022-03-09T12:19:11.403Z</time>
      </trkpt>
      <trkpt lat="42.66503" lon="23.45615">
        <ele>605.207239</ele>
        <time>2022-03-09T12:19:14.406Z</time>
      </trkpt>
      <trkpt lat="42.66502" lon="23.45603">
        <ele>605.290003</ele>
        <time>2022-03-09T12:19:16.540Z</time>
      </trkpt>
      <trkpt lat="42.665" lon="23.45589">
        <ele>605.380591</ele>
        <time>2022-03-09T12:19:18.413Z</time>
      </trkpt>
      <trkpt lat="42.66499" lon="23.45573">
        <ele>605.482673</ele>
        <time>2022-03-09T12:19:20.401Z</time>
      </trkpt>
      <trkpt lat="42.66497" lon="23.45557">
        <ele>605.591214</ele>
        <time>2022-03-09T12:19:22.418Z</time>
      </trkpt>
      <trkpt lat="42.66495" lon="23.4554">
        <ele>605.70103</ele>
        <time>2022-03-09T12:19:24.432Z</time>
      </trkpt>
      <trkpt lat="42.66493" lon="23.45521">
        <ele>605.729742</ele>
        <time>2022-03-09T12:19:26.408Z</time>
      </trkpt>
      <trkpt lat="42.6649" lon="23.45501">
        <ele>605.100892</ele>
        <time>2022-03-09T12:19:28.403Z</time>
      </trkpt>
      <trkpt lat="42.66488" lon="23.45481">
        <ele>604.456623</ele>
        <time>2022-03-09T12:19:30.449Z</time>
      </trkpt>
      <trkpt lat="42.66487" lon="23.45461">
        <ele>603.836302</ele>
        <time>2022-03-09T12:19:32.409Z</time>
      </trkpt>
      <trkpt lat="42.66485" lon="23.45443">
        <ele>603.251753</ele>
        <time>2022-03-09T12:19:34.417Z</time>
      </trkpt>
      <trkpt lat="42.66485" lon="23.45424">
        <ele>602.655515</ele>
        <time>2022-03-09T12:19:36.425Z</time>
      </trkpt>
      <trkpt lat="42.66485" lon="23.45405">
        <ele>602.078091</ele>
        <time>2022-03-09T12:19:38.447Z</time>
      </trkpt>
      <trkpt lat="42.66486" lon="23.45388">
        <ele>601.527269</ele>
        <time>2022-03-09T12:19:40.437Z</time>
      </trkpt>
      <trkpt lat="42.66487" lon="23.45373">
        <ele>601.062126</ele>
        <time>2022-03-09T12:19:42.436Z</time>
      </trkpt>
      <trkpt lat="42.66488" lon="23.4536">
        <ele>600.652748</ele>
        <time>2022-03-09T12:19:44.453Z</time>
      </trkpt>
      <trkpt lat="42.66489" lon="23.45348">
        <ele>600.254588</ele>
        <time>2022-03-09T12:19:46.419Z</time>
      </trkpt>
      <trkpt lat="42.66492" lon="23.45335">
        <ele>599.848076</ele>
        <time>2022-03-09T12:19:48.422Z</time>
      </trkpt>
      <trkpt lat="42.66493" lon="23.45319">
        <ele>599.339807</ele>
        <time>2022-03-09T12:19:51.432Z</time>
      </trkpt>
      <trkpt lat="42.66495" lon="23.45305">
        <ele>598.89381</ele>
        <time>2022-03-09T12:19:54.422Z</time>
      </trkpt>
      <trkpt lat="42.66498" lon="23.45293">
        <ele>598.498735</ele>
        <time>2022-03-09T12:19:57.409Z</time>
      </trkpt>
      <trkpt lat="42.66501" lon="23.45279">
        <ele>598.034016</ele>
        <time>2022-03-09T12:20:00.419Z</time>
      </trkpt>
      <trkpt lat="42.66506" lon="23.45268">
        <ele>597.558088</ele>
        <time>2022-03-09T12:20:02.416Z</time>
      </trkpt>
      <trkpt lat="42.66511" lon="23.45258">
        <ele>597.107413</ele>
        <time>2022-03-09T12:20:04.411Z</time>
      </trkpt>
      <trkpt lat="42.66517" lon="23.45246">
        <ele>596.603382</ele>
        <time>2022-03-09T12:20:06.449Z</time>
      </trkpt>
      <trkpt lat="42.66522" lon="23.45236">
        <ele>596.146017</ele>
        <time>2022-03-09T12:20:08.394Z</time>
      </trkpt>
      <trkpt lat="42.66528" lon="23.4522">
        <ele>595.499267</ele>
        <time>2022-03-09T12:20:11.413Z</time>
      </trkpt>
      <trkpt lat="42.66533" lon="23.45206">
        <ele>594.901746</ele>
        <time>2022-03-09T12:20:14.406Z</time>
      </trkpt>
      <trkpt lat="42.66537" lon="23.45193">
        <ele>594.383138</ele>
        <time>2022-03-09T12:20:17.449Z</time>
      </trkpt>
      <trkpt lat="42.66542" lon="23.45179">
        <ele>593.845735</ele>
        <time>2022-03-09T12:20:20.411Z</time>
      </trkpt>
      <trkpt lat="42.66546" lon="23.45164">
        <ele>593.256319</ele>
        <time>2022-03-09T12:20:23.409Z</time>
      </trkpt>
      <trkpt lat="42.66551" lon="23.45154">
        <ele>592.806889</ele>
        <time>2022-03-09T12:20:25.420Z</time>
      </trkpt>
      <trkpt lat="42.66557" lon="23.45139">
        <ele>592.185438</ele>
        <time>2022-03-09T12:20:28.447Z</time>
      </trkpt>
      <trkpt lat="42.66562" lon="23.45125">
        <ele>591.606077</ele>
        <time>2022-03-09T12:20:31.422Z</time>
      </trkpt>
      <trkpt lat="42.66569" lon="23.45109">
        <ele>590.93958</ele>
        <time>2022-03-09T12:20:34.424Z</time>
      </trkpt>
      <trkpt lat="42.66575" lon="23.451">
        <ele>590.48494</ele>
        <time>2022-03-09T12:20:36.422Z</time>
      </trkpt>
      <trkpt lat="42.66582" lon="23.45087">
        <ele>589.906514</ele>
        <time>2022-03-09T12:20:39.434Z</time>
      </trkpt>
      <trkpt lat="42.66589" lon="23.45073">
        <ele>589.296733</ele>
        <time>2022-03-09T12:20:42.419Z</time>
      </trkpt>
      <trkpt lat="42.66596" lon="23.45064">
        <ele>588.740926</ele>
        <time>2022-03-09T12:20:44.434Z</time>
      </trkpt>
      <trkpt lat="42.66606" lon="23.45052">
        <ele>587.95172</ele>
        <time>2022-03-09T12:20:47.401Z</time>
      </trkpt>
      <trkpt lat="42.66614" lon="23.45041">
        <ele>587.253676</ele>
        <time>2022-03-09T12:20:50.400Z</time>
      </trkpt>
      <trkpt lat="42.66621" lon="23.45027">
        <ele>586.516545</ele>
        <time>2022-03-09T12:20:53.402Z</time>
      </trkpt>
      <trkpt lat="42.66628" lon="23.45016">
        <ele>585.87513</ele>
        <time>2022-03-09T12:20:56.434Z</time>
      </trkpt>
      <trkpt lat="42.66636" lon="23.45004">
        <ele>585.192012</ele>
        <time>2022-03-09T12:20:59.420Z</time>
      </trkpt>
      <trkpt lat="42.66644" lon="23.44992">
        <ele>584.469293</ele>
        <time>2022-03-09T12:21:02.445Z</time>
      </trkpt>
      <trkpt lat="42.66652" lon="23.44979">
        <ele>583.720097</ele>
        <time>2022-03-09T12:21:05.415Z</time>
      </trkpt>
      <trkpt lat="42.66659" lon="23.44966">
        <ele>583.01159</ele>
        <time>2022-03-09T12:21:08.459Z</time>
      </trkpt>
      <trkpt lat="42.66667" lon="23.44953">
        <ele>582.252284</ele>
        <time>2022-03-09T12:21:11.436Z</time>
      </trkpt>
      <trkpt lat="42.66674" lon="23.4494">
        <ele>581.550432</ele>
        <time>2022-03-09T12:21:14.456Z</time>
      </trkpt>
      <trkpt lat="42.6668" lon="23.44928">
        <ele>580.909273</ele>
        <time>2022-03-09T12:21:17.418Z</time>
      </trkpt>
      <trkpt lat="42.66687" lon="23.44916">
        <ele>580.236025</ele>
        <time>2022-03-09T12:21:20.470Z</time>
      </trkpt>
      <trkpt lat="42.66694" lon="23.44907">
        <ele>579.661382</ele>
        <time>2022-03-09T12:21:22.413Z</time>
      </trkpt>
      <trkpt lat="42.66702" lon="23.44896">
        <ele>579.00937</ele>
        <time>2022-03-09T12:21:24.433Z</time>
      </trkpt>
      <trkpt lat="42.66709" lon="23.44887">
        <ele>578.461682</ele>
        <time>2022-03-09T12:21:26.426Z</time>
      </trkpt>
      <trkpt lat="42.66718" lon="23.44875">
        <ele>579.037198</ele>
        <time>2022-03-09T12:21:29.499Z</time>
      </trkpt>
      <trkpt lat="42.66725" lon="23.44862">
        <ele>579.583276</ele>
        <time>2022-03-09T12:21:32.407Z</time>
      </trkpt>
      <trkpt lat="42.66732" lon="23.44848">
        <ele>580.14359</ele>
        <time>2022-03-09T12:21:35.433Z</time>
      </trkpt>
      <trkpt lat="42.66739" lon="23.44834">
        <ele>580.730707</ele>
        <time>2022-03-09T12:21:38.418Z</time>
      </trkpt>
      <trkpt lat="42.66745" lon="23.44823">
        <ele>581.172848</ele>
        <time>2022-03-09T12:21:40.421Z</time>
      </trkpt>
      <trkpt lat="42.6675" lon="23.44813">
        <ele>581.595735</ele>
        <time>2022-03-09T12:21:42.446Z</time>
      </trkpt>
      <trkpt lat="42.66758" lon="23.448">
        <ele>582.179594</ele>
        <time>2022-03-09T12:21:45.480Z</time>
      </trkpt>
      <trkpt lat="42.66763" lon="23.4479">
        <ele>582.600077</ele>
        <time>2022-03-09T12:21:47.435Z</time>
      </trkpt>
      <trkpt lat="42.6677" lon="23.44779">
        <ele>583.091642</ele>
        <time>2022-03-09T12:21:49.421Z</time>
      </trkpt>
      <trkpt lat="42.66776" lon="23.44768">
        <ele>583.55031</ele>
        <time>2022-03-09T12:21:51.406Z</time>
      </trkpt>
      <trkpt lat="42.66782" lon="23.44757">
        <ele>584.019565</ele>
        <time>2022-03-09T12:21:53.417Z</time>
      </trkpt>
      <trkpt lat="42.66788" lon="23.44747">
        <ele>584.445185</ele>
        <time>2022-03-09T12:21:55.453Z</time>
      </trkpt>
      <trkpt lat="42.66794" lon="23.44733">
        <ele>584.984184</ele>
        <time>2022-03-09T12:21:58.415Z</time>
      </trkpt>
      <trkpt lat="42.66801" lon="23.4472">
        <ele>585.524553</ele>
        <time>2022-03-09T12:22:01.426Z</time>
      </trkpt>
      <trkpt lat="42.66807" lon="23.44708">
        <ele>586.029766</ele>
        <time>2022-03-09T12:22:04.409Z</time>
      </trkpt>
      <trkpt lat="42.66814" lon="23.44694">
        <ele>586.616333</ele>
        <time>2022-03-09T12:22:07.432Z</time>
      </trkpt>
      <trkpt lat="42.6682" lon="23.44684">
        <ele>586.605163</ele>
        <time>2022-03-09T12:22:09.410Z</time>
      </trkpt>
      <trkpt lat="42.66825" lon="23.44673">
        <ele>586.452082</ele>
        <time>2022-03-09T12:22:11.423Z</time>
      </trkpt>
      <trkpt lat="42.66831" lon="23.44662">
        <ele>586.291216</ele>
        <time>2022-03-09T12:22:13.420Z</time>
      </trkpt>
      <trkpt lat="42.66837" lon="23.44652">
        <ele>586.131294</ele>
        <time>2022-03-09T12:22:15.426Z</time>
      </trkpt>
      <trkpt lat="42.66842" lon="23.44642">
        <ele>585.980064</ele>
        <time>2022-03-09T12:22:17.437Z</time>
      </trkpt>
      <trkpt lat="42.66849" lon="23.44627">
        <ele>585.761538</ele>
        <time>2022-03-09T12:22:20.407Z</time>
      </trkpt>
      <trkpt lat="42.66856" lon="23.44613">
        <ele>585.56642</ele>
        <time>2022-03-09T12:22:23.416Z</time>
      </trkpt>
      <trkpt lat="42.66861" lon="23.446">
        <ele>585.379706</ele>
        <time>2022-03-09T12:22:26.423Z</time>
      </trkpt>
      <trkpt lat="42.66868" lon="23.44585">
        <ele>585.176476</ele>
        <time>2022-03-09T12:22:29.414Z</time>
      </trkpt>
      <trkpt lat="42.66874" lon="23.44572">
        <ele>584.983918</ele>
        <time>2022-03-09T12:22:32.418Z</time>
      </trkpt>
      <trkpt lat="42.66882" lon="23.44557">
        <ele>584.755842</ele>
        <time>2022-03-09T12:22:35.420Z</time>
      </trkpt>
      <trkpt lat="42.66889" lon="23.44546">
        <ele>584.58117</ele>
        <time>2022-03-09T12:22:37.420Z</time>
      </trkpt>
      <trkpt lat="42.66897" lon="23.44534">
        <ele>584.3943</ele>
        <time>2022-03-09T12:22:39.452Z</time>
      </trkpt>
      <trkpt lat="42.66903" lon="23.44523">
        <ele>584.224697</ele>
        <time>2022-03-09T12:22:41.412Z</time>
      </trkpt>
      <trkpt lat="42.66908" lon="23.44512">
        <ele>584.076393</ele>
        <time>2022-03-09T12:22:43.418Z</time>
      </trkpt>
      <trkpt lat="42.66914" lon="23.44498">
        <ele>583.869216</ele>
        <time>2022-03-09T12:22:46.415Z</time>
      </trkpt>
      <trkpt lat="42.66922" lon="23.44483">
        <ele>584.007952</ele>
        <time>2022-03-09T12:22:49.404Z</time>
      </trkpt>
      <trkpt lat="42.66928" lon="23.44473">
        <ele>584.390016</ele>
        <time>2022-03-09T12:22:51.435Z</time>
      </trkpt>
      <trkpt lat="42.66933" lon="23.44463">
        <ele>584.750754</ele>
        <time>2022-03-09T12:22:53.415Z</time>
      </trkpt>
      <trkpt lat="42.66939" lon="23.44453">
        <ele>585.116324</ele>
        <time>2022-03-09T12:22:55.410Z</time>
      </trkpt>
      <trkpt lat="42.66944" lon="23.44443">
        <ele>585.46787</ele>
        <time>2022-03-09T12:22:57.414Z</time>
      </trkpt>
      <trkpt lat="42.6695" lon="23.44433">
        <ele>585.838326</ele>
        <time>2022-03-09T12:22:59.414Z</time>
      </trkpt>
      <trkpt lat="42.66957" lon="23.44422">
        <ele>586.227304</ele>
        <time>2022-03-09T12:23:01.404Z</time>
      </trkpt>
      <trkpt lat="42.66963" lon="23.44412">
        <ele>586.606906</ele>
        <time>2022-03-09T12:23:03.409Z</time>
      </trkpt>
      <trkpt lat="42.66971" lon="23.44398">
        <ele>587.113429</ele>
        <time>2022-03-09T12:23:06.451Z</time>
      </trkpt>
      <trkpt lat="42.66976" lon="23.44388">
        <ele>587.467321</ele>
        <time>2022-03-09T12:23:08.401Z</time>
      </trkpt>
      <trkpt lat="42.66982" lon="23.44377">
        <ele>587.863214</ele>
        <time>2022-03-09T12:23:10.421Z</time>
      </trkpt>
      <trkpt lat="42.66988" lon="23.44366">
        <ele>588.242521</ele>
        <time>2022-03-09T12:23:12.409Z</time>
      </trkpt>
      <trkpt lat="42.66995" lon="23.44352">
        <ele>588.751485</ele>
        <time>2022-03-09T12:23:15.423Z</time>
      </trkpt>
      <trkpt lat="42.67003" lon="23.44337">
        <ele>589.274124</ele>
        <time>2022-03-09T12:23:18.410Z</time>
      </trkpt>
      <trkpt lat="42.67008" lon="23.44327">
        <ele>589.627923</ele>
        <time>2022-03-09T12:23:20.421Z</time>
      </trkpt>
      <trkpt lat="42.67016" lon="23.44313">
        <ele>590.139009</ele>
        <time>2022-03-09T12:23:23.424Z</time>
      </trkpt>
      <trkpt lat="42.67023" lon="23.44299">
        <ele>590.62299</ele>
        <time>2022-03-09T12:23:26.420Z</time>
      </trkpt>
      <trkpt lat="42.67031" lon="23.44284">
        <ele>590.370833</ele>
        <time>2022-03-09T12:23:29.421Z</time>
      </trkpt>
      <trkpt lat="42.67038" lon="23.4427">
        <ele>589.786373</ele>
        <time>2022-03-09T12:23:32.425Z</time>
      </trkpt>
      <trkpt lat="42.67046" lon="23.44256">
        <ele>589.225534</ele>
        <time>2022-03-09T12:23:35.420Z</time>
      </trkpt>
      <trkpt lat="42.67054" lon="23.44242">
        <ele>588.648954</ele>
        <time>2022-03-09T12:23:38.407Z</time>
      </trkpt>
      <trkpt lat="42.67061" lon="23.44229">
        <ele>588.106376</ele>
        <time>2022-03-09T12:23:41.427Z</time>
      </trkpt>
      <trkpt lat="42.67068" lon="23.44216">
        <ele>587.574806</ele>
        <time>2022-03-09T12:23:44.421Z</time>
      </trkpt>
      <trkpt lat="42.67075" lon="23.44201">
        <ele>587.021298</ele>
        <time>2022-03-09T12:23:47.412Z</time>
      </trkpt>
      <trkpt lat="42.67082" lon="23.44188">
        <ele>586.463291</ele>
        <time>2022-03-09T12:23:50.466Z</time>
      </trkpt>
      <trkpt lat="42.6709" lon="23.44173">
        <ele>585.881446</ele>
        <time>2022-03-09T12:23:53.432Z</time>
      </trkpt>
      <trkpt lat="42.67097" lon="23.44159">
        <ele>585.310179</ele>
        <time>2022-03-09T12:23:56.412Z</time>
      </trkpt>
      <trkpt lat="42.67104" lon="23.44146">
        <ele>584.778027</ele>
        <time>2022-03-09T12:23:59.427Z</time>
      </trkpt>
      <trkpt lat="42.67111" lon="23.44132">
        <ele>584.227707</ele>
        <time>2022-03-09T12:24:02.444Z</time>
      </trkpt>
      <trkpt lat="42.67118" lon="23.44119">
        <ele>583.70669</ele>
        <time>2022-03-09T12:24:05.406Z</time>
      </trkpt>
      <trkpt lat="42.67125" lon="23.44105">
        <ele>583.132818</ele>
        <time>2022-03-09T12:24:08.415Z</time>
      </trkpt>
      <trkpt lat="42.6713" lon="23.44095">
        <ele>582.779659</ele>
        <time>2022-03-09T12:24:10.424Z</time>
      </trkpt>
      <trkpt lat="42.67136" lon="23.44085">
        <ele>583.260923</ele>
        <time>2022-03-09T12:24:12.446Z</time>
      </trkpt>
      <trkpt lat="42.67142" lon="23.44074">
        <ele>583.754293</ele>
        <time>2022-03-09T12:24:14.417Z</time>
      </trkpt>
      <trkpt lat="42.67147" lon="23.44064">
        <ele>584.226793</ele>
        <time>2022-03-09T12:24:16.392Z</time>
      </trkpt>
      <trkpt lat="42.67153" lon="23.44053">
        <ele>584.711224</ele>
        <time>2022-03-09T12:24:18.426Z</time>
      </trkpt>
      <trkpt lat="42.67158" lon="23.44043">
        <ele>585.186431</ele>
        <time>2022-03-09T12:24:20.411Z</time>
      </trkpt>
      <trkpt lat="42.67164" lon="23.44029">
        <ele>585.79198</ele>
        <time>2022-03-09T12:24:23.456Z</time>
      </trkpt>
      <trkpt lat="42.67171" lon="23.44016">
        <ele>586.418749</ele>
        <time>2022-03-09T12:24:26.421Z</time>
      </trkpt>
      <trkpt lat="42.67177" lon="23.44005">
        <ele>586.918557</ele>
        <time>2022-03-09T12:24:30.432Z</time>
      </trkpt>
      <trkpt lat="42.67185" lon="23.43994">
        <ele>587.480855</ele>
        <time>2022-03-09T12:24:34.457Z</time>
      </trkpt>
      <trkpt lat="42.67189" lon="23.43983">
        <ele>587.953228</ele>
        <time>2022-03-09T12:24:37.413Z</time>
      </trkpt>
      <trkpt lat="42.67195" lon="23.43971">
        <ele>588.498593</ele>
        <time>2022-03-09T12:24:40.466Z</time>
      </trkpt>
      <trkpt lat="42.67201" lon="23.43962">
        <ele>588.966804</ele>
        <time>2022-03-09T12:24:42.416Z</time>
      </trkpt>
      <trkpt lat="42.67207" lon="23.43952">
        <ele>589.44531</ele>
        <time>2022-03-09T12:24:44.444Z</time>
      </trkpt>
      <trkpt lat="42.67214" lon="23.43938">
        <ele>590.072278</ele>
        <time>2022-03-09T12:24:47.430Z</time>
      </trkpt>
      <trkpt lat="42.67221" lon="23.43925">
        <ele>590.674607</ele>
        <time>2022-03-09T12:24:50.435Z</time>
      </trkpt>
      <trkpt lat="42.6723" lon="23.43912">
        <ele>591.325378</ele>
        <time>2022-03-09T12:24:53.422Z</time>
      </trkpt>
      <trkpt lat="42.67237" lon="23.43898">
        <ele>591.952885</ele>
        <time>2022-03-09T12:24:56.416Z</time>
      </trkpt>
      <trkpt lat="42.67242" lon="23.43885">
        <ele>592.062375</ele>
        <time>2022-03-09T12:24:59.416Z</time>
      </trkpt>
      <trkpt lat="42.67247" lon="23.43872">
        <ele>592.171394</ele>
        <time>2022-03-09T12:25:02.413Z</time>
      </trkpt>
      <trkpt lat="42.67255" lon="23.43858">
        <ele>592.302662</ele>
        <time>2022-03-09T12:25:05.404Z</time>
      </trkpt>
      <trkpt lat="42.67264" lon="23.43844">
        <ele>592.439251</ele>
        <time>2022-03-09T12:25:08.425Z</time>
      </trkpt>
      <trkpt lat="42.67272" lon="23.43831">
        <ele>592.561078</ele>
        <time>2022-03-09T12:25:11.407Z</time>
      </trkpt>
      <trkpt lat="42.67277" lon="23.43818">
        <ele>592.673974</ele>
        <time>2022-03-09T12:25:14.456Z</time>
      </trkpt>
      <trkpt lat="42.67283" lon="23.43804">
        <ele>592.791192</ele>
        <time>2022-03-09T12:25:17.451Z</time>
      </trkpt>
      <trkpt lat="42.67289" lon="23.43792">
        <ele>592.90399</ele>
        <time>2022-03-09T12:25:20.462Z</time>
      </trkpt>
      <trkpt lat="42.67296" lon="23.43779">
        <ele>593.023134</ele>
        <time>2022-03-09T12:25:23.409Z</time>
      </trkpt>
      <trkpt lat="42.67302" lon="23.43768">
        <ele>593.121333</ele>
        <time>2022-03-09T12:25:25.421Z</time>
      </trkpt>
      <trkpt lat="42.67308" lon="23.43757">
        <ele>593.220752</ele>
        <time>2022-03-09T12:25:27.429Z</time>
      </trkpt>
      <trkpt lat="42.67315" lon="23.43745">
        <ele>593.336919</ele>
        <time>2022-03-09T12:25:30.413Z</time>
      </trkpt>
      <trkpt lat="42.67321" lon="23.43732">
        <ele>593.451941</ele>
        <time>2022-03-09T12:25:33.426Z</time>
      </trkpt>
      <trkpt lat="42.67329" lon="23.43719">
        <ele>593.576489</ele>
        <time>2022-03-09T12:25:36.429Z</time>
      </trkpt>
      <trkpt lat="42.67334" lon="23.43709">
        <ele>593.668692</ele>
        <time>2022-03-09T12:25:38.412Z</time>
      </trkpt>
      <trkpt lat="42.67342" lon="23.43695">
        <ele>593.941422</ele>
        <time>2022-03-09T12:25:41.434Z</time>
      </trkpt>
      <trkpt lat="42.67348" lon="23.43681">
        <ele>594.419523</ele>
        <time>2022-03-09T12:25:44.424Z</time>
      </trkpt>
      <trkpt lat="42.67354" lon="23.43667">
        <ele>594.928923</ele>
        <time>2022-03-09T12:25:47.412Z</time>
      </trkpt>
      <trkpt lat="42.67361" lon="23.43653">
        <ele>595.431546</ele>
        <time>2022-03-09T12:25:50.409Z</time>
      </trkpt>
      <trkpt lat="42.67367" lon="23.43641">
        <ele>595.902372</ele>
        <time>2022-03-09T12:25:53.426Z</time>
      </trkpt>
      <trkpt lat="42.67375" lon="23.43627">
        <ele>596.43196</ele>
        <time>2022-03-09T12:25:56.421Z</time>
      </trkpt>
      <trkpt lat="42.67381" lon="23.43618">
        <ele>596.837997</ele>
        <time>2022-03-09T12:25:58.412Z</time>
      </trkpt>
      <trkpt lat="42.67387" lon="23.43608">
        <ele>597.219628</ele>
        <time>2022-03-09T12:26:00.422Z</time>
      </trkpt>
      <trkpt lat="42.67394" lon="23.43596">
        <ele>597.67949</ele>
        <time>2022-03-09T12:26:03.432Z</time>
      </trkpt>
      <trkpt lat="42.67398" lon="23.43583">
        <ele>598.132148</ele>
        <time>2022-03-09T12:26:06.422Z</time>
      </trkpt>
      <trkpt lat="42.67405" lon="23.4357">
        <ele>598.621702</ele>
        <time>2022-03-09T12:26:09.456Z</time>
      </trkpt>
      <trkpt lat="42.67412" lon="23.43555">
        <ele>599.177953</ele>
        <time>2022-03-09T12:26:12.415Z</time>
      </trkpt>
      <trkpt lat="42.67421" lon="23.4354">
        <ele>599.766924</ele>
        <time>2022-03-09T12:26:15.431Z</time>
      </trkpt>
      <trkpt lat="42.67427" lon="23.43529">
        <ele>600.174867</ele>
        <time>2022-03-09T12:26:17.413Z</time>
      </trkpt>
      <trkpt lat="42.67433" lon="23.4352">
        <ele>600.564372</ele>
        <time>2022-03-09T12:26:19.415Z</time>
      </trkpt>
      <trkpt lat="42.67442" lon="23.43508">
        <ele>601.096993</ele>
        <time>2022-03-09T12:26:22.436Z</time>
      </trkpt>
      <trkpt lat="42.67451" lon="23.43496">
        <ele>601.46682</ele>
        <time>2022-03-09T12:26:25.428Z</time>
      </trkpt>
      <trkpt lat="42.67458" lon="23.43487">
        <ele>601.653545</ele>
        <time>2022-03-09T12:26:27.453Z</time>
      </trkpt>
      <trkpt lat="42.67466" lon="23.43476">
        <ele>601.890717</ele>
        <time>2022-03-09T12:26:30.408Z</time>
      </trkpt>
      <trkpt lat="42.67475" lon="23.43464">
        <ele>602.139717</ele>
        <time>2022-03-09T12:26:33.401Z</time>
      </trkpt>
      <trkpt lat="42.67483" lon="23.43455">
        <ele>602.355822</ele>
        <time>2022-03-09T12:26:36.425Z</time>
      </trkpt>
      <trkpt lat="42.67491" lon="23.43447">
        <ele>602.54329</ele>
        <time>2022-03-09T12:26:39.424Z</time>
      </trkpt>
      <trkpt lat="42.67498" lon="23.43436">
        <ele>602.762788</ele>
        <time>2022-03-09T12:26:43.424Z</time>
      </trkpt>
      <trkpt lat="42.67505" lon="23.43426">
        <ele>602.971025</ele>
        <time>2022-03-09T12:26:46.429Z</time>
      </trkpt>
      <trkpt lat="42.67513" lon="23.43417">
        <ele>603.17787</ele>
        <time>2022-03-09T12:26:49.411Z</time>
      </trkpt>
      <trkpt lat="42.67522" lon="23.43405">
        <ele>603.427886</ele>
        <time>2022-03-09T12:26:53.422Z</time>
      </trkpt>
      <trkpt lat="42.67531" lon="23.43395">
        <ele>603.659927</ele>
        <time>2022-03-09T12:26:56.485Z</time>
      </trkpt>
      <trkpt lat="42.67538" lon="23.43385">
        <ele>603.865152</ele>
        <time>2022-03-09T12:26:59.393Z</time>
      </trkpt>
      <trkpt lat="42.67546" lon="23.43374">
        <ele>604.08822</ele>
        <time>2022-03-09T12:27:02.416Z</time>
      </trkpt>
      <trkpt lat="42.67554" lon="23.43364">
        <ele>604.317795</ele>
        <time>2022-03-09T12:27:05.420Z</time>
      </trkpt>
      <trkpt lat="42.67562" lon="23.43353">
        <ele>604.540939</ele>
        <time>2022-03-09T12:27:08.413Z</time>
      </trkpt>
      <trkpt lat="42.67572" lon="23.43342">
        <ele>604.798093</ele>
        <time>2022-03-09T12:27:11.413Z</time>
      </trkpt>
      <trkpt lat="42.67581" lon="23.43333">
        <ele>604.660781</ele>
        <time>2022-03-09T12:27:14.401Z</time>
      </trkpt>
      <trkpt lat="42.67589" lon="23.4332">
        <ele>603.976902</ele>
        <time>2022-03-09T12:27:17.422Z</time>
      </trkpt>
      <trkpt lat="42.67594" lon="23.43306">
        <ele>603.402065</ele>
        <time>2022-03-09T12:27:20.456Z</time>
      </trkpt>
      <trkpt lat="42.67593" lon="23.43293">
        <ele>602.86727</ele>
        <time>2022-03-09T12:27:23.420Z</time>
      </trkpt>
      <trkpt lat="42.67587" lon="23.43283">
        <ele>602.358495</ele>
        <time>2022-03-09T12:27:26.418Z</time>
      </trkpt>
      <trkpt lat="42.67578" lon="23.43274">
        <ele>601.737563</ele>
        <time>2022-03-09T12:27:30.472Z</time>
      </trkpt>
      <trkpt lat="42.67571" lon="23.43264">
        <ele>601.17623</ele>
        <time>2022-03-09T12:27:33.427Z</time>
      </trkpt>
      <trkpt lat="42.67562" lon="23.43254">
        <ele>600.551876</ele>
        <time>2022-03-09T12:27:36.427Z</time>
      </trkpt>
      <trkpt lat="42.67552" lon="23.43246">
        <ele>599.928671</ele>
        <time>2022-03-09T12:27:39.429Z</time>
      </trkpt>
      <trkpt lat="42.67543" lon="23.43236">
        <ele>599.302442</ele>
        <time>2022-03-09T12:27:42.426Z</time>
      </trkpt>
      <trkpt lat="42.67534" lon="23.43227">
        <ele>598.716582</ele>
        <time>2022-03-09T12:27:45.459Z</time>
      </trkpt>
      <trkpt lat="42.67527" lon="23.43217">
        <ele>598.132107</ele>
        <time>2022-03-09T12:27:48.438Z</time>
      </trkpt>
      <trkpt lat="42.67518" lon="23.43205">
        <ele>597.487809</ele>
        <time>2022-03-09T12:27:51.423Z</time>
      </trkpt>
      <trkpt lat="42.67511" lon="23.43194">
        <ele>596.869996</ele>
        <time>2022-03-09T12:27:54.414Z</time>
      </trkpt>
      <trkpt lat="42.675" lon="23.43182">
        <ele>596.118719</ele>
        <time>2022-03-09T12:27:57.412Z</time>
      </trkpt>
      <trkpt lat="42.67492" lon="23.43173">
        <ele>595.570891</ele>
        <time>2022-03-09T12:27:59.424Z</time>
      </trkpt>
      <trkpt lat="42.67484" lon="23.43164">
        <ele>595.105391</ele>
        <time>2022-03-09T12:28:01.420Z</time>
      </trkpt>
      <trkpt lat="42.67476" lon="23.43156">
        <ele>594.86529</ele>
        <time>2022-03-09T12:28:03.418Z</time>
      </trkpt>
      <trkpt lat="42.67468" lon="23.43147">
        <ele>594.632344</ele>
        <time>2022-03-09T12:28:05.461Z</time>
      </trkpt>
      <trkpt lat="42.67461" lon="23.43139">
        <ele>594.408972</ele>
        <time>2022-03-09T12:28:07.455Z</time>
      </trkpt>
      <trkpt lat="42.67454" lon="23.4313">
        <ele>594.178545</ele>
        <time>2022-03-09T12:28:09.412Z</time>
      </trkpt>
      <trkpt lat="42.67447" lon="23.43122">
        <ele>593.968568</ele>
        <time>2022-03-09T12:28:11.431Z</time>
      </trkpt>
      <trkpt lat="42.67438" lon="23.4311">
        <ele>593.663465</ele>
        <time>2022-03-09T12:28:14.424Z</time>
      </trkpt>
      <trkpt lat="42.67427" lon="23.43098">
        <ele>593.348239</ele>
        <time>2022-03-09T12:28:17.427Z</time>
      </trkpt>
      <trkpt lat="42.67417" lon="23.43086">
        <ele>593.037336</ele>
        <time>2022-03-09T12:28:20.412Z</time>
      </trkpt>
      <trkpt lat="42.6741" lon="23.43079">
        <ele>592.826167</ele>
        <time>2022-03-09T12:28:22.442Z</time>
      </trkpt>
      <trkpt lat="42.67403" lon="23.43072">
        <ele>592.612503</ele>
        <time>2022-03-09T12:28:24.423Z</time>
      </trkpt>
      <trkpt lat="42.67393" lon="23.43062">
        <ele>592.332426</ele>
        <time>2022-03-09T12:28:27.413Z</time>
      </trkpt>
      <trkpt lat="42.67384" lon="23.43052">
        <ele>592.055264</ele>
        <time>2022-03-09T12:28:30.503Z</time>
      </trkpt>
      <trkpt lat="42.67375" lon="23.43042">
        <ele>591.778515</ele>
        <time>2022-03-09T12:28:33.403Z</time>
      </trkpt>
      <trkpt lat="42.67366" lon="23.4303">
        <ele>591.492336</ele>
        <time>2022-03-09T12:28:36.419Z</time>
      </trkpt>
      <trkpt lat="42.67359" lon="23.43023">
        <ele>591.27673</ele>
        <time>2022-03-09T12:28:38.404Z</time>
      </trkpt>
      <trkpt lat="42.67349" lon="23.43012">
        <ele>590.97203</ele>
        <time>2022-03-09T12:28:41.420Z</time>
      </trkpt>
      <trkpt lat="42.67339" lon="23.43">
        <ele>590.823086</ele>
        <time>2022-03-09T12:28:44.429Z</time>
      </trkpt>
      <trkpt lat="42.6733" lon="23.42988">
        <ele>590.68653</ele>
        <time>2022-03-09T12:28:47.527Z</time>
      </trkpt>
      <trkpt lat="42.67321" lon="23.42976">
        <ele>590.553816</ele>
        <time>2022-03-09T12:28:50.424Z</time>
      </trkpt>
      <trkpt lat="42.67312" lon="23.42965">
        <ele>590.425148</ele>
        <time>2022-03-09T12:28:53.411Z</time>
      </trkpt>
      <trkpt lat="42.67302" lon="23.42954">
        <ele>590.289844</ele>
        <time>2022-03-09T12:28:56.436Z</time>
      </trkpt>
      <trkpt lat="42.67293" lon="23.42943">
        <ele>590.161697</ele>
        <time>2022-03-09T12:28:59.433Z</time>
      </trkpt>
      <trkpt lat="42.67284" lon="23.42933">
        <ele>590.03861</ele>
        <time>2022-03-09T12:29:02.441Z</time>
      </trkpt>
      <trkpt lat="42.67275" lon="23.42922">
        <ele>589.907255</ele>
        <time>2022-03-09T12:29:05.488Z</time>
      </trkpt>
      <trkpt lat="42.67265" lon="23.42912">
        <ele>589.778895</ele>
        <time>2022-03-09T12:29:08.420Z</time>
      </trkpt>
      <trkpt lat="42.67256" lon="23.42902">
        <ele>589.654818</ele>
        <time>2022-03-09T12:29:11.427Z</time>
      </trkpt>
      <trkpt lat="42.67247" lon="23.42891">
        <ele>589.530243</ele>
        <time>2022-03-09T12:29:14.451Z</time>
      </trkpt>
      <trkpt lat="42.67238" lon="23.42882">
        <ele>589.404938</ele>
        <time>2022-03-09T12:29:17.433Z</time>
      </trkpt>
      <trkpt lat="42.67228" lon="23.42872">
        <ele>589.272486</ele>
        <time>2022-03-09T12:29:20.415Z</time>
      </trkpt>
      <trkpt lat="42.67218" lon="23.42862">
        <ele>589.1451</ele>
        <time>2022-03-09T12:29:23.425Z</time>
      </trkpt>
      <trkpt lat="42.6721" lon="23.42853">
        <ele>589.037277</ele>
        <time>2022-03-09T12:29:26.425Z</time>
      </trkpt>
      <trkpt lat="42.67202" lon="23.42843">
        <ele>588.971881</ele>
        <time>2022-03-09T12:29:29.447Z</time>
      </trkpt>
      <trkpt lat="42.67194" lon="23.42834">
        <ele>588.908318</ele>
        <time>2022-03-09T12:29:32.425Z</time>
      </trkpt>
      <trkpt lat="42.67186" lon="23.42825">
        <ele>588.845238</ele>
        <time>2022-03-09T12:29:35.435Z</time>
      </trkpt>
      <trkpt lat="42.67177" lon="23.42817">
        <ele>588.778264</ele>
        <time>2022-03-09T12:29:38.412Z</time>
      </trkpt>
      <trkpt lat="42.67168" lon="23.42808">
        <ele>588.706955</ele>
        <time>2022-03-09T12:29:41.419Z</time>
      </trkpt>
      <trkpt lat="42.67158" lon="23.42799">
        <ele>588.631329</ele>
        <time>2022-03-09T12:29:44.407Z</time>
      </trkpt>
      <trkpt lat="42.67148" lon="23.4279">
        <ele>588.561537</ele>
        <time>2022-03-09T12:29:47.415Z</time>
      </trkpt>
      <trkpt lat="42.67139" lon="23.42781">
        <ele>588.49148</ele>
        <time>2022-03-09T12:29:50.415Z</time>
      </trkpt>
      <trkpt lat="42.6713" lon="23.42771">
        <ele>588.421596</ele>
        <time>2022-03-09T12:29:53.422Z</time>
      </trkpt>
      <trkpt lat="42.67121" lon="23.42762">
        <ele>588.351358</ele>
        <time>2022-03-09T12:29:56.413Z</time>
      </trkpt>
      <trkpt lat="42.67113" lon="23.42752">
        <ele>588.285605</ele>
        <time>2022-03-09T12:29:59.401Z</time>
      </trkpt>
      <trkpt lat="42.67104" lon="23.42743">
        <ele>588.214019</ele>
        <time>2022-03-09T12:30:02.424Z</time>
      </trkpt>
      <trkpt lat="42.67094" lon="23.42734">
        <ele>588.142433</ele>
        <time>2022-03-09T12:30:05.406Z</time>
      </trkpt>
      <trkpt lat="42.67085" lon="23.42724">
        <ele>588.06858</ele>
        <time>2022-03-09T12:30:08.422Z</time>
      </trkpt>
      <trkpt lat="42.67074" lon="23.42715">
        <ele>587.993455</ele>
        <time>2022-03-09T12:30:11.410Z</time>
      </trkpt>
      <trkpt lat="42.67065" lon="23.42706">
        <ele>587.947366</ele>
        <time>2022-03-09T12:30:14.461Z</time>
      </trkpt>
      <trkpt lat="42.67057" lon="23.42698">
        <ele>588.036381</ele>
        <time>2022-03-09T12:30:17.427Z</time>
      </trkpt>
      <trkpt lat="42.67049" lon="23.42688">
        <ele>588.129606</ele>
        <time>2022-03-09T12:30:20.425Z</time>
      </trkpt>
      <trkpt lat="42.67039" lon="23.42679">
        <ele>588.229048</ele>
        <time>2022-03-09T12:30:23.449Z</time>
      </trkpt>
      <trkpt lat="42.6703" lon="23.42669">
        <ele>588.330521</ele>
        <time>2022-03-09T12:30:26.391Z</time>
      </trkpt>
      <trkpt lat="42.6702" lon="23.42659">
        <ele>588.432309</ele>
        <time>2022-03-09T12:30:29.410Z</time>
      </trkpt>
      <trkpt lat="42.67012" lon="23.4265">
        <ele>588.522012</ele>
        <time>2022-03-09T12:30:32.409Z</time>
      </trkpt>
      <trkpt lat="42.67003" lon="23.4264">
        <ele>588.616678</ele>
        <time>2022-03-09T12:30:35.420Z</time>
      </trkpt>
      <trkpt lat="42.66994" lon="23.42631">
        <ele>588.716684</ele>
        <time>2022-03-09T12:30:38.433Z</time>
      </trkpt>
      <trkpt lat="42.66982" lon="23.42623">
        <ele>588.828555</ele>
        <time>2022-03-09T12:30:41.451Z</time>
      </trkpt>
      <trkpt lat="42.66973" lon="23.42614">
        <ele>588.925029</ele>
        <time>2022-03-09T12:30:44.423Z</time>
      </trkpt>
      <trkpt lat="42.66965" lon="23.42605">
        <ele>589.014326</ele>
        <time>2022-03-09T12:30:47.429Z</time>
      </trkpt>
      <trkpt lat="42.66956" lon="23.42596">
        <ele>589.104215</ele>
        <time>2022-03-09T12:30:50.426Z</time>
      </trkpt>
      <trkpt lat="42.66946" lon="23.42588">
        <ele>589.200402</ele>
        <time>2022-03-09T12:30:53.402Z</time>
      </trkpt>
      <trkpt lat="42.66939" lon="23.4258">
        <ele>589.285995</ele>
        <time>2022-03-09T12:30:56.423Z</time>
      </trkpt>
      <trkpt lat="42.6693" lon="23.42571">
        <ele>589.373855</ele>
        <time>2022-03-09T12:30:59.435Z</time>
      </trkpt>
      <trkpt lat="42.66922" lon="23.42562">
        <ele>589.452613</ele>
        <time>2022-03-09T12:31:02.412Z</time>
      </trkpt>
      <trkpt lat="42.66913" lon="23.42554">
        <ele>589.278069</ele>
        <time>2022-03-09T12:31:05.412Z</time>
      </trkpt>
      <trkpt lat="42.66904" lon="23.42546">
        <ele>589.086789</ele>
        <time>2022-03-09T12:31:08.427Z</time>
      </trkpt>
      <trkpt lat="42.66895" lon="23.42536">
        <ele>588.897898</ele>
        <time>2022-03-09T12:31:11.447Z</time>
      </trkpt>
      <trkpt lat="42.66887" lon="23.42527">
        <ele>588.71557</ele>
        <time>2022-03-09T12:31:14.463Z</time>
      </trkpt>
      <trkpt lat="42.66879" lon="23.42518">
        <ele>588.541881</ele>
        <time>2022-03-09T12:31:17.409Z</time>
      </trkpt>
      <trkpt lat="42.6687" lon="23.42509">
        <ele>588.355848</ele>
        <time>2022-03-09T12:31:20.418Z</time>
      </trkpt>
      <trkpt lat="42.66861" lon="23.425">
        <ele>588.171463</ele>
        <time>2022-03-09T12:31:23.425Z</time>
      </trkpt>
      <trkpt lat="42.66852" lon="23.42492">
        <ele>587.990688</ele>
        <time>2022-03-09T12:31:26.446Z</time>
      </trkpt>
      <trkpt lat="42.66842" lon="23.42484">
        <ele>587.793571</ele>
        <time>2022-03-09T12:31:29.444Z</time>
      </trkpt>
      <trkpt lat="42.66835" lon="23.42475">
        <ele>587.623904</ele>
        <time>2022-03-09T12:31:32.421Z</time>
      </trkpt>
      <trkpt lat="42.66827" lon="23.42465">
        <ele>587.442565</ele>
        <time>2022-03-09T12:31:35.425Z</time>
      </trkpt>
      <trkpt lat="42.66818" lon="23.42455">
        <ele>587.249777</ele>
        <time>2022-03-09T12:31:38.415Z</time>
      </trkpt>
      <trkpt lat="42.66809" lon="23.42446">
        <ele>587.062005</ele>
        <time>2022-03-09T12:31:41.483Z</time>
      </trkpt>
      <trkpt lat="42.668" lon="23.42438">
        <ele>586.874817</ele>
        <time>2022-03-09T12:31:44.430Z</time>
      </trkpt>
      <trkpt lat="42.66791" lon="23.4243">
        <ele>586.687044</ele>
        <time>2022-03-09T12:31:47.425Z</time>
      </trkpt>
      <trkpt lat="42.66782" lon="23.4242">
        <ele>586.492953</ele>
        <time>2022-03-09T12:31:50.416Z</time>
      </trkpt>
      <trkpt lat="42.66773" lon="23.4241">
        <ele>586.579022</ele>
        <time>2022-03-09T12:31:53.432Z</time>
      </trkpt>
      <trkpt lat="42.66763" lon="23.42401">
        <ele>586.829326</ele>
        <time>2022-03-09T12:31:56.413Z</time>
      </trkpt>
      <trkpt lat="42.66753" lon="23.42394">
        <ele>587.079983</ele>
        <time>2022-03-09T12:31:59.409Z</time>
      </trkpt>
      <trkpt lat="42.66743" lon="23.42385">
        <ele>587.32144</ele>
        <time>2022-03-09T12:32:02.412Z</time>
      </trkpt>
      <trkpt lat="42.66735" lon="23.42377">
        <ele>587.544635</ele>
        <time>2022-03-09T12:32:05.423Z</time>
      </trkpt>
      <trkpt lat="42.66727" lon="23.42369">
        <ele>587.753606</ele>
        <time>2022-03-09T12:32:08.418Z</time>
      </trkpt>
      <trkpt lat="42.66718" lon="23.42361">
        <ele>587.995451</ele>
        <time>2022-03-09T12:32:11.414Z</time>
      </trkpt>
      <trkpt lat="42.66707" lon="23.42353">
        <ele>588.240108</ele>
        <time>2022-03-09T12:32:14.430Z</time>
      </trkpt>
      <trkpt lat="42.66698" lon="23.42346">
        <ele>588.474286</ele>
        <time>2022-03-09T12:32:17.407Z</time>
      </trkpt>
      <trkpt lat="42.66688" lon="23.42338">
        <ele>588.713742</ele>
        <time>2022-03-09T12:32:20.417Z</time>
      </trkpt>
      <trkpt lat="42.66677" lon="23.4233">
        <ele>588.984695</ele>
        <time>2022-03-09T12:32:23.435Z</time>
      </trkpt>
      <trkpt lat="42.66667" lon="23.42321">
        <ele>589.250339</ele>
        <time>2022-03-09T12:32:26.410Z</time>
      </trkpt>
      <trkpt lat="42.66657" lon="23.42313">
        <ele>589.486702</ele>
        <time>2022-03-09T12:32:29.446Z</time>
      </trkpt>
      <trkpt lat="42.66647" lon="23.42305">
        <ele>589.741767</ele>
        <time>2022-03-09T12:32:32.423Z</time>
      </trkpt>
      <trkpt lat="42.66636" lon="23.42296">
        <ele>590.013956</ele>
        <time>2022-03-09T12:32:35.422Z</time>
      </trkpt>
      <trkpt lat="42.66626" lon="23.42289">
        <ele>590.258994</ele>
        <time>2022-03-09T12:32:38.413Z</time>
      </trkpt>
      <trkpt lat="42.66614" lon="23.4228">
        <ele>591.275457</ele>
        <time>2022-03-09T12:32:41.442Z</time>
      </trkpt>
      <trkpt lat="42.66603" lon="23.42271">
        <ele>592.361275</ele>
        <time>2022-03-09T12:32:44.419Z</time>
      </trkpt>
      <trkpt lat="42.66591" lon="23.42262">
        <ele>593.400516</ele>
        <time>2022-03-09T12:32:47.404Z</time>
      </trkpt>
      <trkpt lat="42.66581" lon="23.42254">
        <ele>594.340527</ele>
        <time>2022-03-09T12:32:50.428Z</time>
      </trkpt>
      <trkpt lat="42.66571" lon="23.42246">
        <ele>595.268567</ele>
        <time>2022-03-09T12:32:53.417Z</time>
      </trkpt>
      <trkpt lat="42.66563" lon="23.42237">
        <ele>596.080188</ele>
        <time>2022-03-09T12:32:56.408Z</time>
      </trkpt>
      <trkpt lat="42.66555" lon="23.42228">
        <ele>596.917538</ele>
        <time>2022-03-09T12:32:59.421Z</time>
      </trkpt>
      <trkpt lat="42.66548" lon="23.42218">
        <ele>597.715214</ele>
        <time>2022-03-09T12:33:02.424Z</time>
      </trkpt>
      <trkpt lat="42.66542" lon="23.42207">
        <ele>598.524271</ele>
        <time>2022-03-09T12:33:05.433Z</time>
      </trkpt>
      <trkpt lat="42.66537" lon="23.42195">
        <ele>599.315473</ele>
        <time>2022-03-09T12:33:08.462Z</time>
      </trkpt>
      <trkpt lat="42.66532" lon="23.42183">
        <ele>600.121146</ele>
        <time>2022-03-09T12:33:11.431Z</time>
      </trkpt>
      <trkpt lat="42.66529" lon="23.42169">
        <ele>600.956839</ele>
        <time>2022-03-09T12:33:14.452Z</time>
      </trkpt>
      <trkpt lat="42.66526" lon="23.42153">
        <ele>601.906139</ele>
        <time>2022-03-09T12:33:18.424Z</time>
      </trkpt>
      <trkpt lat="42.66525" lon="23.42141">
        <ele>602.651363</ele>
        <time>2022-03-09T12:33:21.429Z</time>
      </trkpt>
      <trkpt lat="42.66523" lon="23.42127">
        <ele>603.474143</ele>
        <time>2022-03-09T12:33:24.430Z</time>
      </trkpt>
      <trkpt lat="42.6652" lon="23.42112">
        <ele>604.394917</ele>
        <time>2022-03-09T12:33:27.426Z</time>
      </trkpt>
      <trkpt lat="42.66519" lon="23.42098">
        <ele>604.439327</ele>
        <time>2022-03-09T12:33:30.413Z</time>
      </trkpt>
      <trkpt lat="42.6652" lon="23.42084">
        <ele>604.301342</ele>
        <time>2022-03-09T12:33:33.413Z</time>
      </trkpt>
      <trkpt lat="42.66519" lon="23.4207">
        <ele>604.155579</ele>
        <time>2022-03-09T12:33:36.416Z</time>
      </trkpt>
      <trkpt lat="42.66517" lon="23.42055">
        <ele>604.002029</ele>
        <time>2022-03-09T12:33:39.417Z</time>
      </trkpt>
      <trkpt lat="42.66517" lon="23.4204">
        <ele>603.8467</ele>
        <time>2022-03-09T12:33:42.425Z</time>
      </trkpt>
      <trkpt lat="42.66517" lon="23.42022">
        <ele>603.664171</ele>
        <time>2022-03-09T12:33:45.429Z</time>
      </trkpt>
      <trkpt lat="42.66516" lon="23.42009">
        <ele>603.534048</ele>
        <time>2022-03-09T12:33:47.417Z</time>
      </trkpt>
      <trkpt lat="42.66516" lon="23.41994">
        <ele>603.385978</ele>
        <time>2022-03-09T12:33:49.441Z</time>
      </trkpt>
      <trkpt lat="42.66512" lon="23.41981">
        <ele>603.241312</ele>
        <time>2022-03-09T12:33:51.429Z</time>
      </trkpt>
      <trkpt lat="42.66503" lon="23.41972">
        <ele>603.090818</ele>
        <time>2022-03-09T12:33:53.411Z</time>
      </trkpt>
      <trkpt lat="42.66493" lon="23.41968">
        <ele>602.933168</ele>
        <time>2022-03-09T12:33:55.436Z</time>
      </trkpt>
      <trkpt lat="42.66482" lon="23.41969">
        <ele>602.782019</ele>
        <time>2022-03-09T12:33:57.475Z</time>
      </trkpt>
      <trkpt lat="42.66471" lon="23.41971">
        <ele>602.627368</ele>
        <time>2022-03-09T12:33:59.422Z</time>
      </trkpt>
      <trkpt lat="42.6646" lon="23.41974">
        <ele>602.479045</ele>
        <time>2022-03-09T12:34:01.416Z</time>
      </trkpt>
      <trkpt lat="42.6645" lon="23.41976">
        <ele>602.33724</ele>
        <time>2022-03-09T12:34:03.451Z</time>
      </trkpt>
      <trkpt lat="42.66439" lon="23.41978">
        <ele>602.193334</ele>
        <time>2022-03-09T12:34:05.423Z</time>
      </trkpt>
      <trkpt lat="42.6643" lon="23.41981">
        <ele>601.978946</ele>
        <time>2022-03-09T12:34:07.430Z</time>
      </trkpt>
      <trkpt lat="42.66417" lon="23.41984">
        <ele>600.949356</ele>
        <time>2022-03-09T12:34:10.466Z</time>
      </trkpt>
      <trkpt lat="42.66404" lon="23.41988">
        <ele>599.943695</ele>
        <time>2022-03-09T12:34:13.413Z</time>
      </trkpt>
      <trkpt lat="42.66394" lon="23.4199">
        <ele>599.175495</ele>
        <time>2022-03-09T12:34:15.421Z</time>
      </trkpt>
      <trkpt lat="42.66383" lon="23.41991">
        <ele>598.327766</ele>
        <time>2022-03-09T12:34:17.419Z</time>
      </trkpt>
      <trkpt lat="42.66372" lon="23.41992">
        <ele>597.442553</ele>
        <time>2022-03-09T12:34:19.432Z</time>
      </trkpt>
      <trkpt lat="42.6636" lon="23.41992">
        <ele>596.512247</ele>
        <time>2022-03-09T12:34:21.438Z</time>
      </trkpt>
      <trkpt lat="42.66348" lon="23.4199">
        <ele>595.570369</ele>
        <time>2022-03-09T12:34:23.461Z</time>
      </trkpt>
      <trkpt lat="42.66336" lon="23.41989">
        <ele>594.636211</ele>
        <time>2022-03-09T12:34:25.429Z</time>
      </trkpt>
      <trkpt lat="42.66325" lon="23.41986">
        <ele>593.793244</ele>
        <time>2022-03-09T12:34:27.472Z</time>
      </trkpt>
      <trkpt lat="42.66315" lon="23.41983">
        <ele>593.006067</ele>
        <time>2022-03-09T12:34:29.425Z</time>
      </trkpt>
      <trkpt lat="42.66304" lon="23.4198">
        <ele>592.112595</ele>
        <time>2022-03-09T12:34:32.432Z</time>
      </trkpt>
      <trkpt lat="42.66291" lon="23.41975">
        <ele>591.100733</ele>
        <time>2022-03-09T12:34:35.421Z</time>
      </trkpt>
      <trkpt lat="42.6628" lon="23.41972">
        <ele>590.170152</ele>
        <time>2022-03-09T12:34:38.438Z</time>
      </trkpt>
      <trkpt lat="42.66269" lon="23.41969">
        <ele>589.293088</ele>
        <time>2022-03-09T12:34:41.416Z</time>
      </trkpt>
      <trkpt lat="42.66259" lon="23.41966">
        <ele>588.562264</ele>
        <time>2022-03-09T12:34:44.454Z</time>
      </trkpt>
      <trkpt lat="42.66248" lon="23.41964">
        <ele>588.872313</ele>
        <time>2022-03-09T12:34:48.476Z</time>
      </trkpt>
      <trkpt lat="42.66238" lon="23.41962">
        <ele>590.152084</ele>
        <time>2022-03-09T12:34:51.416Z</time>
      </trkpt>
      <trkpt lat="42.66228" lon="23.41959">
        <ele>591.553725</ele>
        <time>2022-03-09T12:34:54.424Z</time>
      </trkpt>
      <trkpt lat="42.66217" lon="23.41954">
        <ele>592.982416</ele>
        <time>2022-03-09T12:34:57.429Z</time>
      </trkpt>
      <trkpt lat="42.66212" lon="23.41941">
        <ele>594.416319</ele>
        <time>2022-03-09T12:35:01.430Z</time>
      </trkpt>
      <trkpt lat="42.66212" lon="23.41928">
        <ele>595.716815</ele>
        <time>2022-03-09T12:35:04.404Z</time>
      </trkpt>
      <trkpt lat="42.66215" lon="23.41912">
        <ele>597.215735</ele>
        <time>2022-03-09T12:35:07.464Z</time>
      </trkpt>
      <trkpt lat="42.66219" lon="23.419">
        <ele>598.518546</ele>
        <time>2022-03-09T12:35:10.400Z</time>
      </trkpt>
      <trkpt lat="42.66222" lon="23.41884">
        <ele>600.082639</ele>
        <time>2022-03-09T12:35:14.402Z</time>
      </trkpt>
      <trkpt lat="42.66226" lon="23.41872">
        <ele>601.371699</ele>
        <time>2022-03-09T12:35:17.411Z</time>
      </trkpt>
      <trkpt lat="42.6623" lon="23.41859">
        <ele>602.670897</ele>
        <time>2022-03-09T12:35:20.424Z</time>
      </trkpt>
      <trkpt lat="42.66232" lon="23.41847">
        <ele>603.885672</ele>
        <time>2022-03-09T12:35:23.428Z</time>
      </trkpt>
      <trkpt lat="42.66235" lon="23.41835">
        <ele>605.131387</ele>
        <time>2022-03-09T12:35:26.433Z</time>
      </trkpt>
      <trkpt lat="42.66237" lon="23.41822">
        <ele>606.34478</ele>
        <time>2022-03-09T12:35:29.430Z</time>
      </trkpt>
      <trkpt lat="42.66237" lon="23.41807">
        <ele>607.749435</ele>
        <time>2022-03-09T12:35:32.434Z</time>
      </trkpt>
      <trkpt lat="42.66237" lon="23.41792">
        <ele>609.200374</ele>
        <time>2022-03-09T12:35:35.426Z</time>
      </trkpt>
      <trkpt lat="42.66237" lon="23.41776">
        <ele>610.70875</ele>
        <time>2022-03-09T12:35:38.437Z</time>
      </trkpt>
      <trkpt lat="42.66239" lon="23.41762">
        <ele>611.594045</ele>
        <time>2022-03-09T12:35:41.409Z</time>
      </trkpt>
      <trkpt lat="42.66241" lon="23.41748">
        <ele>611.832067</ele>
        <time>2022-03-09T12:35:44.430Z</time>
      </trkpt>
      <trkpt lat="42.66244" lon="23.41732">
        <ele>612.099442</ele>
        <time>2022-03-09T12:35:47.427Z</time>
      </trkpt>
      <trkpt lat="42.66247" lon="23.41719">
        <ele>612.344872</ele>
        <time>2022-03-09T12:35:50.413Z</time>
      </trkpt>
      <trkpt lat="42.6625" lon="23.41704">
        <ele>612.598731</ele>
        <time>2022-03-09T12:35:53.444Z</time>
      </trkpt>
      <trkpt lat="42.66252" lon="23.41691">
        <ele>612.835482</ele>
        <time>2022-03-09T12:35:56.428Z</time>
      </trkpt>
      <trkpt lat="42.66256" lon="23.41676">
        <ele>613.101615</ele>
        <time>2022-03-09T12:35:59.428Z</time>
      </trkpt>
      <trkpt lat="42.66259" lon="23.4166">
        <ele>613.372766</ele>
        <time>2022-03-09T12:36:02.422Z</time>
      </trkpt>
      <trkpt lat="42.66263" lon="23.41646">
        <ele>613.63801</ele>
        <time>2022-03-09T12:36:05.425Z</time>
      </trkpt>
      <trkpt lat="42.66266" lon="23.41632">
        <ele>613.872763</ele>
        <time>2022-03-09T12:36:08.425Z</time>
      </trkpt>
      <trkpt lat="42.66269" lon="23.4162">
        <ele>614.092058</ele>
        <time>2022-03-09T12:36:11.416Z</time>
      </trkpt>
      <trkpt lat="42.66274" lon="23.41606">
        <ele>614.350001</ele>
        <time>2022-03-09T12:36:15.447Z</time>
      </trkpt>
      <trkpt lat="42.66278" lon="23.41591">
        <ele>614.621844</ele>
        <time>2022-03-09T12:36:19.421Z</time>
      </trkpt>
      <trkpt lat="42.66281" lon="23.41577">
        <ele>614.860982</ele>
        <time>2022-03-09T12:36:22.421Z</time>
      </trkpt>
      <trkpt lat="42.6628" lon="23.41561">
        <ele>615.133907</ele>
        <time>2022-03-09T12:36:26.459Z</time>
      </trkpt>
      <trkpt lat="42.66282" lon="23.41547">
        <ele>615.374028</ele>
        <time>2022-03-09T12:36:29.407Z</time>
      </trkpt>
      <trkpt lat="42.66286" lon="23.41532">
        <ele>615.550776</ele>
        <time>2022-03-09T12:36:32.526Z</time>
      </trkpt>
      <trkpt lat="42.66291" lon="23.41517">
        <ele>614.951751</ele>
        <time>2022-03-09T12:36:35.429Z</time>
      </trkpt>
      <trkpt lat="42.66295" lon="23.41502">
        <ele>614.380397</ele>
        <time>2022-03-09T12:36:38.424Z</time>
      </trkpt>
      <trkpt lat="42.66299" lon="23.41488">
        <ele>613.820887</ele>
        <time>2022-03-09T12:36:41.426Z</time>
      </trkpt>
      <trkpt lat="42.66303" lon="23.41474">
        <ele>613.27799</ele>
        <time>2022-03-09T12:36:44.425Z</time>
      </trkpt>
      <trkpt lat="42.66307" lon="23.41462">
        <ele>612.796012</ele>
        <time>2022-03-09T12:36:47.453Z</time>
      </trkpt>
      <trkpt lat="42.66311" lon="23.41447">
        <ele>612.243292</ele>
        <time>2022-03-09T12:36:51.413Z</time>
      </trkpt>
      <trkpt lat="42.66314" lon="23.41435">
        <ele>611.775352</ele>
        <time>2022-03-09T12:36:54.459Z</time>
      </trkpt>
      <trkpt lat="42.66318" lon="23.41422">
        <ele>611.287088</ele>
        <time>2022-03-09T12:36:57.439Z</time>
      </trkpt>
      <trkpt lat="42.6632" lon="23.41407">
        <ele>610.722174</ele>
        <time>2022-03-09T12:37:00.413Z</time>
      </trkpt>
      <trkpt lat="42.66325" lon="23.41394">
        <ele>610.201751</ele>
        <time>2022-03-09T12:37:03.429Z</time>
      </trkpt>
      <trkpt lat="42.6633" lon="23.4138">
        <ele>609.645463</ele>
        <time>2022-03-09T12:37:06.419Z</time>
      </trkpt>
      <trkpt lat="42.66334" lon="23.41366">
        <ele>609.082459</ele>
        <time>2022-03-09T12:37:09.428Z</time>
      </trkpt>
      <trkpt lat="42.66336" lon="23.41352">
        <ele>608.588783</ele>
        <time>2022-03-09T12:37:12.455Z</time>
      </trkpt>
      <trkpt lat="42.66339" lon="23.41339">
        <ele>608.092773</ele>
        <time>2022-03-09T12:37:15.427Z</time>
      </trkpt>
      <trkpt lat="42.66343" lon="23.41325">
        <ele>607.551321</ele>
        <time>2022-03-09T12:37:18.410Z</time>
      </trkpt>
      <trkpt lat="42.66347" lon="23.41312">
        <ele>607.037608</ele>
        <time>2022-03-09T12:37:21.430Z</time>
      </trkpt>
      <trkpt lat="42.66351" lon="23.41298">
        <ele>606.521537</ele>
        <time>2022-03-09T12:37:24.435Z</time>
      </trkpt>
      <trkpt lat="42.66356" lon="23.41283">
        <ele>606.008109</ele>
        <time>2022-03-09T12:37:27.465Z</time>
      </trkpt>
      <trkpt lat="42.6636" lon="23.41267">
        <ele>605.473709</ele>
        <time>2022-03-09T12:37:30.423Z</time>
      </trkpt>
      <trkpt lat="42.66361" lon="23.41251">
        <ele>604.984477</ele>
        <time>2022-03-09T12:37:33.449Z</time>
      </trkpt>
      <trkpt lat="42.66365" lon="23.41238">
        <ele>604.545919</ele>
        <time>2022-03-09T12:37:36.421Z</time>
      </trkpt>
      <trkpt lat="42.66372" lon="23.41224">
        <ele>604.003489</ele>
        <time>2022-03-09T12:37:39.421Z</time>
      </trkpt>
      <trkpt lat="42.66377" lon="23.41208">
        <ele>603.443741</ele>
        <time>2022-03-09T12:37:42.435Z</time>
      </trkpt>
      <trkpt lat="42.66381" lon="23.41191">
        <ele>602.890124</ele>
        <time>2022-03-09T12:37:45.413Z</time>
      </trkpt>
      <trkpt lat="42.66385" lon="23.41175">
        <ele>602.364225</ele>
        <time>2022-03-09T12:37:48.417Z</time>
      </trkpt>
      <trkpt lat="42.66389" lon="23.4116">
        <ele>601.862279</ele>
        <time>2022-03-09T12:37:51.429Z</time>
      </trkpt>
      <trkpt lat="42.66392" lon="23.41147">
        <ele>601.424677</ele>
        <time>2022-03-09T12:37:54.424Z</time>
      </trkpt>
      <trkpt lat="42.66396" lon="23.41133">
        <ele>600.965588</ele>
        <time>2022-03-09T12:37:57.438Z</time>
      </trkpt>
      <trkpt lat="42.66399" lon="23.41117">
        <ele>600.446193</ele>
        <time>2022-03-09T12:38:00.410Z</time>
      </trkpt>
      <trkpt lat="42.66404" lon="23.41103">
        <ele>599.933788</ele>
        <time>2022-03-09T12:38:03.441Z</time>
      </trkpt>
      <trkpt lat="42.6641" lon="23.41088">
        <ele>599.425352</ele>
        <time>2022-03-09T12:38:06.427Z</time>
      </trkpt>
      <trkpt lat="42.66414" lon="23.41073">
        <ele>599.050679</ele>
        <time>2022-03-09T12:38:09.422Z</time>
      </trkpt>
      <trkpt lat="42.66419" lon="23.41057">
        <ele>598.946917</ele>
        <time>2022-03-09T12:38:12.447Z</time>
      </trkpt>
      <trkpt lat="42.66424" lon="23.41042">
        <ele>598.840387</ele>
        <time>2022-03-09T12:38:15.419Z</time>
      </trkpt>
      <trkpt lat="42.66429" lon="23.41027">
        <ele>598.739292</ele>
        <time>2022-03-09T12:38:18.413Z</time>
      </trkpt>
      <trkpt lat="42.66433" lon="23.41012">
        <ele>598.64489</ele>
        <time>2022-03-09T12:38:21.425Z</time>
      </trkpt>
      <trkpt lat="42.66437" lon="23.40997">
        <ele>598.542272</ele>
        <time>2022-03-09T12:38:24.434Z</time>
      </trkpt>
      <trkpt lat="42.66443" lon="23.40981">
        <ele>598.435005</ele>
        <time>2022-03-09T12:38:27.439Z</time>
      </trkpt>
      <trkpt lat="42.66447" lon="23.40966">
        <ele>598.330921</ele>
        <time>2022-03-09T12:38:30.439Z</time>
      </trkpt>
      <trkpt lat="42.66453" lon="23.40951">
        <ele>598.231081</ele>
        <time>2022-03-09T12:38:33.424Z</time>
      </trkpt>
      <trkpt lat="42.66459" lon="23.40937">
        <ele>598.127572</ele>
        <time>2022-03-09T12:38:36.429Z</time>
      </trkpt>
      <trkpt lat="42.66464" lon="23.40922">
        <ele>598.02586</ele>
        <time>2022-03-09T12:38:39.419Z</time>
      </trkpt>
      <trkpt lat="42.66469" lon="23.40906">
        <ele>597.919154</ele>
        <time>2022-03-09T12:38:42.426Z</time>
      </trkpt>
      <trkpt lat="42.66473" lon="23.40895">
        <ele>597.840217</ele>
        <time>2022-03-09T12:38:44.442Z</time>
      </trkpt>
      <trkpt lat="42.66477" lon="23.40883">
        <ele>597.763319</ele>
        <time>2022-03-09T12:38:46.417Z</time>
      </trkpt>
      <trkpt lat="42.66481" lon="23.40872">
        <ele>597.687928</ele>
        <time>2022-03-09T12:38:48.417Z</time>
      </trkpt>
      <trkpt lat="42.66487" lon="23.40858">
        <ele>597.584533</ele>
        <time>2022-03-09T12:38:51.448Z</time>
      </trkpt>
      <trkpt lat="42.66493" lon="23.40842">
        <ele>597.50394</ele>
        <time>2022-03-09T12:38:54.420Z</time>
      </trkpt>
      <trkpt lat="42.665" lon="23.40827">
        <ele>597.426753</ele>
        <time>2022-03-09T12:38:57.433Z</time>
      </trkpt>
      <trkpt lat="42.66506" lon="23.40813">
        <ele>597.356083</ele>
        <time>2022-03-09T12:39:00.433Z</time>
      </trkpt>
      <trkpt lat="42.66514" lon="23.40799">
        <ele>597.280984</ele>
        <time>2022-03-09T12:39:03.431Z</time>
      </trkpt>
      <trkpt lat="42.66521" lon="23.40784">
        <ele>597.202064</ele>
        <time>2022-03-09T12:39:06.425Z</time>
      </trkpt>
      <trkpt lat="42.66528" lon="23.4077">
        <ele>597.128976</ele>
        <time>2022-03-09T12:39:09.425Z</time>
      </trkpt>
      <trkpt lat="42.66534" lon="23.4076">
        <ele>597.075199</ele>
        <time>2022-03-09T12:39:11.438Z</time>
      </trkpt>
      <trkpt lat="42.66538" lon="23.4075">
        <ele>597.022061</ele>
        <time>2022-03-09T12:39:13.426Z</time>
      </trkpt>
      <trkpt lat="42.66542" lon="23.40735">
        <ele>596.9555</ele>
        <time>2022-03-09T12:39:16.429Z</time>
      </trkpt>
      <trkpt lat="42.66548" lon="23.40722">
        <ele>596.887751</ele>
        <time>2022-03-09T12:39:19.422Z</time>
      </trkpt>
      <trkpt lat="42.66555" lon="23.40714">
        <ele>596.833013</ele>
        <time>2022-03-09T12:39:21.417Z</time>
      </trkpt>
      <trkpt lat="42.66562" lon="23.40705">
        <ele>596.778108</ele>
        <time>2022-03-09T12:39:23.428Z</time>
      </trkpt>
      <trkpt lat="42.66568" lon="23.40691">
        <ele>596.704612</ele>
        <time>2022-03-09T12:39:26.441Z</time>
      </trkpt>
      <trkpt lat="42.66574" lon="23.4068">
        <ele>596.648026</ele>
        <time>2022-03-09T12:39:29.434Z</time>
      </trkpt>
      <trkpt lat="42.66582" lon="23.4067">
        <ele>596.58645</ele>
        <time>2022-03-09T12:39:35.443Z</time>
      </trkpt>
      <trkpt lat="42.66588" lon="23.40659">
        <ele>596.524989</ele>
        <time>2022-03-09T12:39:41.463Z</time>
      </trkpt>
      <trkpt lat="42.66593" lon="23.40647">
        <ele>596.270161</ele>
        <time>2022-03-09T12:39:44.425Z</time>
      </trkpt>
      <trkpt lat="42.66601" lon="23.40633">
        <ele>595.890825</ele>
        <time>2022-03-09T12:39:47.431Z</time>
      </trkpt>
      <trkpt lat="42.66608" lon="23.4062">
        <ele>595.523846</ele>
        <time>2022-03-09T12:39:50.438Z</time>
      </trkpt>
      <trkpt lat="42.66615" lon="23.40605">
        <ele>595.149155</ele>
        <time>2022-03-09T12:39:53.428Z</time>
      </trkpt>
      <trkpt lat="42.66622" lon="23.40592">
        <ele>594.783901</ele>
        <time>2022-03-09T12:39:56.437Z</time>
      </trkpt>
      <trkpt lat="42.66629" lon="23.40579">
        <ele>594.420498</ele>
        <time>2022-03-09T12:39:59.419Z</time>
      </trkpt>
      <trkpt lat="42.66637" lon="23.40566">
        <ele>594.058779</ele>
        <time>2022-03-09T12:40:02.414Z</time>
      </trkpt>
      <trkpt lat="42.66644" lon="23.40552">
        <ele>593.698942</ele>
        <time>2022-03-09T12:40:05.423Z</time>
      </trkpt>
      <trkpt lat="42.66651" lon="23.40537">
        <ele>593.292331</ele>
        <time>2022-03-09T12:40:08.437Z</time>
      </trkpt>
      <trkpt lat="42.66656" lon="23.40526">
        <ele>593.01894</ele>
        <time>2022-03-09T12:40:10.460Z</time>
      </trkpt>
      <trkpt lat="42.66663" lon="23.40511">
        <ele>592.614174</ele>
        <time>2022-03-09T12:40:13.400Z</time>
      </trkpt>
      <trkpt lat="42.66669" lon="23.405">
        <ele>592.335462</ele>
        <time>2022-03-09T12:40:15.428Z</time>
      </trkpt>
      <trkpt lat="42.66674" lon="23.4049">
        <ele>592.048108</ele>
        <time>2022-03-09T12:40:17.411Z</time>
      </trkpt>
      <trkpt lat="42.66682" lon="23.40475">
        <ele>591.649125</ele>
        <time>2022-03-09T12:40:20.459Z</time>
      </trkpt>
      <trkpt lat="42.66687" lon="23.40465">
        <ele>591.375753</ele>
        <time>2022-03-09T12:40:22.419Z</time>
      </trkpt>
      <trkpt lat="42.66695" lon="23.40451">
        <ele>591.307525</ele>
        <time>2022-03-09T12:40:25.437Z</time>
      </trkpt>
      <trkpt lat="42.66701" lon="23.40437">
        <ele>591.764703</ele>
        <time>2022-03-09T12:40:28.423Z</time>
      </trkpt>
      <trkpt lat="42.66708" lon="23.40422">
        <ele>592.240225</ele>
        <time>2022-03-09T12:40:31.461Z</time>
      </trkpt>
      <trkpt lat="42.66715" lon="23.40408">
        <ele>592.710764</ele>
        <time>2022-03-09T12:40:34.439Z</time>
      </trkpt>
      <trkpt lat="42.66722" lon="23.40393">
        <ele>593.205129</ele>
        <time>2022-03-09T12:40:37.463Z</time>
      </trkpt>
      <trkpt lat="42.6673" lon="23.40379">
        <ele>593.68613</ele>
        <time>2022-03-09T12:40:40.408Z</time>
      </trkpt>
      <trkpt lat="42.66736" lon="23.40365">
        <ele>594.147231</ele>
        <time>2022-03-09T12:40:43.431Z</time>
      </trkpt>
      <trkpt lat="42.66742" lon="23.40351">
        <ele>594.59258</ele>
        <time>2022-03-09T12:40:46.435Z</time>
      </trkpt>
      <trkpt lat="42.66749" lon="23.40336">
        <ele>595.071273</ele>
        <time>2022-03-09T12:40:49.436Z</time>
      </trkpt>
      <trkpt lat="42.66755" lon="23.40322">
        <ele>595.512864</ele>
        <time>2022-03-09T12:40:52.449Z</time>
      </trkpt>
      <trkpt lat="42.66762" lon="23.40309">
        <ele>595.955925</ele>
        <time>2022-03-09T12:40:55.435Z</time>
      </trkpt>
      <trkpt lat="42.66767" lon="23.40297">
        <ele>596.359657</ele>
        <time>2022-03-09T12:40:58.441Z</time>
      </trkpt>
      <trkpt lat="42.66771" lon="23.40284">
        <ele>596.742891</ele>
        <time>2022-03-09T12:41:01.502Z</time>
      </trkpt>
      <trkpt lat="42.66778" lon="23.40271">
        <ele>597.175159</ele>
        <time>2022-03-09T12:41:04.434Z</time>
      </trkpt>
      <trkpt lat="42.66784" lon="23.4026">
        <ele>597.569262</ele>
        <time>2022-03-09T12:41:07.473Z</time>
      </trkpt>
      <trkpt lat="42.66792" lon="23.40249">
        <ele>597.890312</ele>
        <time>2022-03-09T12:41:11.439Z</time>
      </trkpt>
      <trkpt lat="42.66797" lon="23.40237">
        <ele>597.895667</ele>
        <time>2022-03-09T12:41:16.435Z</time>
      </trkpt>
      <trkpt lat="42.66803" lon="23.40228">
        <ele>597.900473</ele>
        <time>2022-03-09T12:41:19.444Z</time>
      </trkpt>
      <trkpt lat="42.6681" lon="23.40217">
        <ele>597.906263</ele>
        <time>2022-03-09T12:41:22.424Z</time>
      </trkpt>
      <trkpt lat="42.66815" lon="23.40206">
        <ele>597.911564</ele>
        <time>2022-03-09T12:41:25.453Z</time>
      </trkpt>
      <trkpt lat="42.66822" lon="23.40192">
        <ele>597.917943</ele>
        <time>2022-03-09T12:41:29.428Z</time>
      </trkpt>
      <trkpt lat="42.66829" lon="23.4018">
        <ele>597.923754</ele>
        <time>2022-03-09T12:41:32.455Z</time>
      </trkpt>
      <trkpt lat="42.66834" lon="23.40169">
        <ele>597.929186</ele>
        <time>2022-03-09T12:41:35.431Z</time>
      </trkpt>
      <trkpt lat="42.6684" lon="23.40158">
        <ele>597.934394</ele>
        <time>2022-03-09T12:41:38.429Z</time>
      </trkpt>
      <trkpt lat="42.66847" lon="23.40147">
        <ele>597.939989</ele>
        <time>2022-03-09T12:41:41.421Z</time>
      </trkpt>
      <trkpt lat="42.66852" lon="23.40136">
        <ele>597.945133</ele>
        <time>2022-03-09T12:41:44.438Z</time>
      </trkpt>
      <trkpt lat="42.66859" lon="23.40124">
        <ele>597.95116</ele>
        <time>2022-03-09T12:41:47.477Z</time>
      </trkpt>
      <trkpt lat="42.66866" lon="23.40111">
        <ele>597.957566</ele>
        <time>2022-03-09T12:41:50.432Z</time>
      </trkpt>
      <trkpt lat="42.66873" lon="23.40098">
        <ele>597.963846</ele>
        <time>2022-03-09T12:41:53.463Z</time>
      </trkpt>
      <trkpt lat="42.66881" lon="23.40085">
        <ele>597.970486</ele>
        <time>2022-03-09T12:41:56.439Z</time>
      </trkpt>
      <trkpt lat="42.66887" lon="23.40071">
        <ele>597.976832</ele>
        <time>2022-03-09T12:41:59.434Z</time>
      </trkpt>
      <trkpt lat="42.66893" lon="23.40057">
        <ele>597.982883</ele>
        <time>2022-03-09T12:42:02.455Z</time>
      </trkpt>
      <trkpt lat="42.669" lon="23.40044">
        <ele>598.180367</ele>
        <time>2022-03-09T12:42:05.435Z</time>
      </trkpt>
      <trkpt lat="42.66907" lon="23.40032">
        <ele>598.445699</ele>
        <time>2022-03-09T12:42:08.449Z</time>
      </trkpt>
      <trkpt lat="42.66914" lon="23.40019">
        <ele>598.720607</ele>
        <time>2022-03-09T12:42:11.429Z</time>
      </trkpt>
      <trkpt lat="42.66922" lon="23.40004">
        <ele>599.036745</ele>
        <time>2022-03-09T12:42:14.445Z</time>
      </trkpt>
      <trkpt lat="42.6693" lon="23.39989">
        <ele>599.344525</ele>
        <time>2022-03-09T12:42:17.424Z</time>
      </trkpt>
      <trkpt lat="42.66935" lon="23.39979">
        <ele>599.552634</ele>
        <time>2022-03-09T12:42:19.478Z</time>
      </trkpt>
      <trkpt lat="42.6694" lon="23.39969">
        <ele>599.764662</ele>
        <time>2022-03-09T12:42:21.458Z</time>
      </trkpt>
      <trkpt lat="42.66946" lon="23.39959">
        <ele>599.975304</ele>
        <time>2022-03-09T12:42:23.459Z</time>
      </trkpt>
      <trkpt lat="42.66953" lon="23.39946">
        <ele>600.250304</ele>
        <time>2022-03-09T12:42:26.430Z</time>
      </trkpt>
      <trkpt lat="42.66959" lon="23.39932">
        <ele>600.525515</ele>
        <time>2022-03-09T12:42:29.431Z</time>
      </trkpt>
      <trkpt lat="42.66966" lon="23.39918">
        <ele>600.816042</ele>
        <time>2022-03-09T12:42:32.460Z</time>
      </trkpt>
      <trkpt lat="42.66973" lon="23.39904">
        <ele>601.108742</ele>
        <time>2022-03-09T12:42:35.468Z</time>
      </trkpt>
      <trkpt lat="42.66981" lon="23.39889">
        <ele>601.415105</ele>
        <time>2022-03-09T12:42:38.439Z</time>
      </trkpt>
      <trkpt lat="42.66987" lon="23.39878">
        <ele>601.639523</ele>
        <time>2022-03-09T12:42:40.443Z</time>
      </trkpt>
      <trkpt lat="42.66992" lon="23.39868">
        <ele>601.858438</ele>
        <time>2022-03-09T12:42:42.441Z</time>
      </trkpt>
      <trkpt lat="42.66997" lon="23.39857">
        <ele>602.069555</ele>
        <time>2022-03-09T12:42:44.445Z</time>
      </trkpt>
      <trkpt lat="42.67002" lon="23.39847">
        <ele>601.717054</ele>
        <time>2022-03-09T12:42:46.452Z</time>
      </trkpt>
      <trkpt lat="42.67007" lon="23.39836">
        <ele>601.084279</ele>
        <time>2022-03-09T12:42:48.429Z</time>
      </trkpt>
      <trkpt lat="42.67013" lon="23.39821">
        <ele>600.227512</ele>
        <time>2022-03-09T12:42:51.430Z</time>
      </trkpt>
      <trkpt lat="42.67019" lon="23.39808">
        <ele>599.464857</ele>
        <time>2022-03-09T12:42:54.423Z</time>
      </trkpt>
      <trkpt lat="42.67024" lon="23.39797">
        <ele>598.807127</ele>
        <time>2022-03-09T12:42:56.431Z</time>
      </trkpt>
      <trkpt lat="42.6703" lon="23.39784">
        <ele>598.006271</ele>
        <time>2022-03-09T12:42:59.422Z</time>
      </trkpt>
      <trkpt lat="42.67035" lon="23.39772">
        <ele>597.3527</ele>
        <time>2022-03-09T12:43:02.428Z</time>
      </trkpt>
      <trkpt lat="42.67039" lon="23.3976">
        <ele>596.670584</ele>
        <time>2022-03-09T12:43:05.444Z</time>
      </trkpt>
      <trkpt lat="42.67046" lon="23.39749">
        <ele>595.940946</ele>
        <time>2022-03-09T12:43:08.456Z</time>
      </trkpt>
      <trkpt lat="42.67053" lon="23.39736">
        <ele>595.164449</ele>
        <time>2022-03-09T12:43:11.434Z</time>
      </trkpt>
      <trkpt lat="42.6706" lon="23.39722">
        <ele>594.314588</ele>
        <time>2022-03-09T12:43:14.421Z</time>
      </trkpt>
      <trkpt lat="42.67066" lon="23.3971">
        <ele>593.546182</ele>
        <time>2022-03-09T12:43:17.451Z</time>
      </trkpt>
      <trkpt lat="42.67073" lon="23.39697">
        <ele>592.773689</ele>
        <time>2022-03-09T12:43:20.435Z</time>
      </trkpt>
      <trkpt lat="42.6708" lon="23.39683">
        <ele>591.92383</ele>
        <time>2022-03-09T12:43:23.432Z</time>
      </trkpt>
      <trkpt lat="42.67085" lon="23.39673">
        <ele>591.294643</ele>
        <time>2022-03-09T12:43:25.431Z</time>
      </trkpt>
      <trkpt lat="42.6709" lon="23.39662">
        <ele>590.671304</ele>
        <time>2022-03-09T12:43:27.435Z</time>
      </trkpt>
      <trkpt lat="42.67097" lon="23.39648">
        <ele>589.832703</ele>
        <time>2022-03-09T12:43:30.449Z</time>
      </trkpt>
      <trkpt lat="42.67104" lon="23.39634">
        <ele>589.454428</ele>
        <time>2022-03-09T12:43:33.493Z</time>
      </trkpt>
      <trkpt lat="42.67111" lon="23.39619">
        <ele>589.068533</ele>
        <time>2022-03-09T12:43:36.446Z</time>
      </trkpt>
      <trkpt lat="42.67118" lon="23.39604">
        <ele>588.674828</ele>
        <time>2022-03-09T12:43:39.469Z</time>
      </trkpt>
      <trkpt lat="42.67124" lon="23.3959">
        <ele>588.300708</ele>
        <time>2022-03-09T12:43:42.452Z</time>
      </trkpt>
      <trkpt lat="42.67131" lon="23.39574">
        <ele>587.90438</ele>
        <time>2022-03-09T12:43:45.433Z</time>
      </trkpt>
      <trkpt lat="42.67137" lon="23.39558">
        <ele>587.493526</ele>
        <time>2022-03-09T12:43:48.464Z</time>
      </trkpt>
      <trkpt lat="42.67141" lon="23.39546">
        <ele>587.204423</ele>
        <time>2022-03-09T12:43:50.465Z</time>
      </trkpt>
      <trkpt lat="42.67144" lon="23.39533">
        <ele>586.896552</ele>
        <time>2022-03-09T12:43:52.433Z</time>
      </trkpt>
      <trkpt lat="42.67147" lon="23.39521">
        <ele>586.615701</ele>
        <time>2022-03-09T12:43:54.430Z</time>
      </trkpt>
      <trkpt lat="42.6715" lon="23.39504">
        <ele>586.216166</ele>
        <time>2022-03-09T12:43:57.435Z</time>
      </trkpt>
      <trkpt lat="42.67154" lon="23.39488">
        <ele>585.853927</ele>
        <time>2022-03-09T12:44:00.442Z</time>
      </trkpt>
      <trkpt lat="42.67159" lon="23.39472">
        <ele>585.465337</ele>
        <time>2022-03-09T12:44:03.435Z</time>
      </trkpt>
      <trkpt lat="42.67164" lon="23.39457">
        <ele>585.081995</ele>
        <time>2022-03-09T12:44:06.457Z</time>
      </trkpt>
      <trkpt lat="42.67167" lon="23.39444">
        <ele>584.789678</ele>
        <time>2022-03-09T12:44:09.434Z</time>
      </trkpt>
      <trkpt lat="42.67169" lon="23.39429">
        <ele>584.457837</ele>
        <time>2022-03-09T12:44:12.449Z</time>
      </trkpt>
      <trkpt lat="42.67171" lon="23.39417">
        <ele>584.741111</ele>
        <time>2022-03-09T12:44:14.444Z</time>
      </trkpt>
      <trkpt lat="42.67174" lon="23.39405">
        <ele>585.11104</ele>
        <time>2022-03-09T12:44:16.483Z</time>
      </trkpt>
      <trkpt lat="42.67176" lon="23.39392">
        <ele>585.49102</ele>
        <time>2022-03-09T12:44:18.451Z</time>
      </trkpt>
      <trkpt lat="42.67177" lon="23.3938">
        <ele>585.863746</ele>
        <time>2022-03-09T12:44:20.487Z</time>
      </trkpt>
      <trkpt lat="42.67182" lon="23.39364">
        <ele>586.357728</ele>
        <time>2022-03-09T12:44:23.424Z</time>
      </trkpt>
      <trkpt lat="42.67186" lon="23.39347">
        <ele>586.886388</ele>
        <time>2022-03-09T12:44:26.435Z</time>
      </trkpt>
      <trkpt lat="42.67188" lon="23.39331">
        <ele>587.377527</ele>
        <time>2022-03-09T12:44:29.451Z</time>
      </trkpt>
      <trkpt lat="42.6719" lon="23.39315">
        <ele>587.859707</ele>
        <time>2022-03-09T12:44:32.430Z</time>
      </trkpt>
      <trkpt lat="42.67193" lon="23.39298">
        <ele>588.367501</ele>
        <time>2022-03-09T12:44:35.438Z</time>
      </trkpt>
      <trkpt lat="42.67196" lon="23.39282">
        <ele>588.854516</ele>
        <time>2022-03-09T12:44:38.423Z</time>
      </trkpt>
      <trkpt lat="42.67201" lon="23.39266">
        <ele>589.367891</ele>
        <time>2022-03-09T12:44:41.437Z</time>
      </trkpt>
      <trkpt lat="42.67204" lon="23.39252">
        <ele>589.792734</ele>
        <time>2022-03-09T12:44:44.433Z</time>
      </trkpt>
      <trkpt lat="42.67206" lon="23.39234">
        <ele>590.337792</ele>
        <time>2022-03-09T12:44:47.456Z</time>
      </trkpt>
      <trkpt lat="42.67209" lon="23.39217">
        <ele>590.830324</ele>
        <time>2022-03-09T12:44:50.467Z</time>
      </trkpt>
      <trkpt lat="42.67212" lon="23.39202">
        <ele>591.298147</ele>
        <time>2022-03-09T12:44:53.444Z</time>
      </trkpt>
      <trkpt lat="42.67216" lon="23.39188">
        <ele>591.732236</ele>
        <time>2022-03-09T12:44:56.432Z</time>
      </trkpt>
      <trkpt lat="42.67219" lon="23.39174">
        <ele>592.105475</ele>
        <time>2022-03-09T12:44:59.448Z</time>
      </trkpt>
      <trkpt lat="42.67223" lon="23.39158">
        <ele>592.520127</ele>
        <time>2022-03-09T12:45:02.441Z</time>
      </trkpt>
      <trkpt lat="42.67227" lon="23.39141">
        <ele>592.962049</ele>
        <time>2022-03-09T12:45:05.429Z</time>
      </trkpt>
      <trkpt lat="42.67231" lon="23.39124">
        <ele>593.402593</ele>
        <time>2022-03-09T12:45:08.467Z</time>
      </trkpt>
      <trkpt lat="42.67233" lon="23.39107">
        <ele>593.827635</ele>
        <time>2022-03-09T12:45:11.444Z</time>
      </trkpt>
      <trkpt lat="42.67235" lon="23.39093">
        <ele>594.184266</ele>
        <time>2022-03-09T12:45:14.430Z</time>
      </trkpt>
      <trkpt lat="42.67237" lon="23.39078">
        <ele>594.568004</ele>
        <time>2022-03-09T12:45:17.472Z</time>
      </trkpt>
      <trkpt lat="42.6724" lon="23.39063">
        <ele>594.96876</ele>
        <time>2022-03-09T12:45:20.455Z</time>
      </trkpt>
      <trkpt lat="42.67242" lon="23.39048">
        <ele>595.355503</ele>
        <time>2022-03-09T12:45:23.436Z</time>
      </trkpt>
      <trkpt lat="42.67244" lon="23.39032">
        <ele>595.758874</ele>
        <time>2022-03-09T12:45:26.422Z</time>
      </trkpt>
      <trkpt lat="42.67247" lon="23.39016">
        <ele>596.164509</ele>
        <time>2022-03-09T12:45:29.437Z</time>
      </trkpt>
      <trkpt lat="42.6725" lon="23.38999">
        <ele>596.594392</ele>
        <time>2022-03-09T12:45:32.420Z</time>
      </trkpt>
      <trkpt lat="42.67252" lon="23.38983">
        <ele>597.000812</ele>
        <time>2022-03-09T12:45:35.472Z</time>
      </trkpt>
      <trkpt lat="42.67255" lon="23.38966">
        <ele>597.433274</ele>
        <time>2022-03-09T12:45:38.433Z</time>
      </trkpt>
      <trkpt lat="42.67258" lon="23.38949">
        <ele>597.741448</ele>
        <time>2022-03-09T12:45:41.439Z</time>
      </trkpt>
      <trkpt lat="42.6726" lon="23.38933">
        <ele>597.721345</ele>
        <time>2022-03-09T12:45:44.432Z</time>
      </trkpt>
      <trkpt lat="42.67263" lon="23.38917">
        <ele>597.702484</ele>
        <time>2022-03-09T12:45:47.435Z</time>
      </trkpt>
      <trkpt lat="42.67267" lon="23.38902">
        <ele>597.682829</ele>
        <time>2022-03-09T12:45:50.439Z</time>
      </trkpt>
      <trkpt lat="42.6727" lon="23.38886">
        <ele>597.6635</ele>
        <time>2022-03-09T12:45:53.431Z</time>
      </trkpt>
      <trkpt lat="42.67273" lon="23.38874">
        <ele>597.648851</ele>
        <time>2022-03-09T12:45:55.441Z</time>
      </trkpt>
      <trkpt lat="42.67275" lon="23.38856">
        <ele>597.627345</ele>
        <time>2022-03-09T12:45:58.431Z</time>
      </trkpt>
      <trkpt lat="42.67277" lon="23.38843">
        <ele>597.611683</ele>
        <time>2022-03-09T12:46:00.429Z</time>
      </trkpt>
      <trkpt lat="42.67279" lon="23.38827">
        <ele>597.591816</ele>
        <time>2022-03-09T12:46:03.482Z</time>
      </trkpt>
      <trkpt lat="42.6728" lon="23.38811">
        <ele>597.572987</ele>
        <time>2022-03-09T12:46:06.434Z</time>
      </trkpt>
      <trkpt lat="42.67282" lon="23.38797">
        <ele>597.555432</ele>
        <time>2022-03-09T12:46:09.424Z</time>
      </trkpt>
      <trkpt lat="42.67288" lon="23.38783">
        <ele>597.537249</ele>
        <time>2022-03-09T12:46:12.436Z</time>
      </trkpt>
      <trkpt lat="42.67293" lon="23.38769">
        <ele>597.51889</ele>
        <time>2022-03-09T12:46:15.454Z</time>
      </trkpt>
      <trkpt lat="42.67296" lon="23.38756">
        <ele>597.50157</ele>
        <time>2022-03-09T12:46:18.457Z</time>
      </trkpt>
      <trkpt lat="42.67299" lon="23.38744">
        <ele>597.486645</ele>
        <time>2022-03-09T12:46:21.431Z</time>
      </trkpt>
      <trkpt lat="42.673" lon="23.3873">
        <ele>597.47009</ele>
        <time>2022-03-09T12:46:24.435Z</time>
      </trkpt>
      <trkpt lat="42.67301" lon="23.38716">
        <ele>597.432299</ele>
        <time>2022-03-09T12:46:27.474Z</time>
      </trkpt>
      <trkpt lat="42.67303" lon="23.38703">
        <ele>597.291027</ele>
        <time>2022-03-09T12:46:30.433Z</time>
      </trkpt>
      <trkpt lat="42.67305" lon="23.38688">
        <ele>597.136623</ele>
        <time>2022-03-09T12:46:33.457Z</time>
      </trkpt>
      <trkpt lat="42.67308" lon="23.38672">
        <ele>596.976434</ele>
        <time>2022-03-09T12:46:36.435Z</time>
      </trkpt>
      <trkpt lat="42.67311" lon="23.38659">
        <ele>596.835691</ele>
        <time>2022-03-09T12:46:39.445Z</time>
      </trkpt>
      <trkpt lat="42.67314" lon="23.38644">
        <ele>596.678025</ele>
        <time>2022-03-09T12:46:42.461Z</time>
      </trkpt>
      <trkpt lat="42.67317" lon="23.38628">
        <ele>596.510996</ele>
        <time>2022-03-09T12:46:45.439Z</time>
      </trkpt>
      <trkpt lat="42.6732" lon="23.3861">
        <ele>596.330044</ele>
        <time>2022-03-09T12:46:48.465Z</time>
      </trkpt>
      <trkpt lat="42.67323" lon="23.38593">
        <ele>596.152892</ele>
        <time>2022-03-09T12:46:51.442Z</time>
      </trkpt>
      <trkpt lat="42.67326" lon="23.38579">
        <ele>596.002664</ele>
        <time>2022-03-09T12:46:54.465Z</time>
      </trkpt>
      <trkpt lat="42.67329" lon="23.38563">
        <ele>595.837933</ele>
        <time>2022-03-09T12:46:57.430Z</time>
      </trkpt>
      <trkpt lat="42.67332" lon="23.38547">
        <ele>595.666992</ele>
        <time>2022-03-09T12:47:00.437Z</time>
      </trkpt>
      <trkpt lat="42.67334" lon="23.38532">
        <ele>595.515348</ele>
        <time>2022-03-09T12:47:03.447Z</time>
      </trkpt>
      <trkpt lat="42.67337" lon="23.38517">
        <ele>595.358651</ele>
        <time>2022-03-09T12:47:06.439Z</time>
      </trkpt>
      <trkpt lat="42.6734" lon="23.38502">
        <ele>595.200131</ele>
        <time>2022-03-09T12:47:09.438Z</time>
      </trkpt>
      <trkpt lat="42.67343" lon="23.38486">
        <ele>595.033447</ele>
        <time>2022-03-09T12:47:12.432Z</time>
      </trkpt>
      <trkpt lat="42.67346" lon="23.38471">
        <ele>594.67003</ele>
        <time>2022-03-09T12:47:15.462Z</time>
      </trkpt>
      <trkpt lat="42.6735" lon="23.38456">
        <ele>594.219864</ele>
        <time>2022-03-09T12:47:18.443Z</time>
      </trkpt>
      <trkpt lat="42.67353" lon="23.38442">
        <ele>593.827094</ele>
        <time>2022-03-09T12:47:21.421Z</time>
      </trkpt>
      <trkpt lat="42.67355" lon="23.38429">
        <ele>593.447719</ele>
        <time>2022-03-09T12:47:25.439Z</time>
      </trkpt>
      <trkpt lat="42.67356" lon="23.38416">
        <ele>593.080612</ele>
        <time>2022-03-09T12:47:29.439Z</time>
      </trkpt>
      <trkpt lat="42.67358" lon="23.38401">
        <ele>592.630754</ele>
        <time>2022-03-09T12:47:33.435Z</time>
      </trkpt>
      <trkpt lat="42.67361" lon="23.38388">
        <ele>592.261276</ele>
        <time>2022-03-09T12:47:36.431Z</time>
      </trkpt>
      <trkpt lat="42.67363" lon="23.38373">
        <ele>591.839722</ele>
        <time>2022-03-09T12:47:39.457Z</time>
      </trkpt>
      <trkpt lat="42.67365" lon="23.38358">
        <ele>591.413413</ele>
        <time>2022-03-09T12:47:42.430Z</time>
      </trkpt>
      <trkpt lat="42.67367" lon="23.38343">
        <ele>590.981532</ele>
        <time>2022-03-09T12:47:45.445Z</time>
      </trkpt>
      <trkpt lat="42.67368" lon="23.38329">
        <ele>590.569773</ele>
        <time>2022-03-09T12:47:48.423Z</time>
      </trkpt>
      <trkpt lat="42.67371" lon="23.38313">
        <ele>590.109496</ele>
        <time>2022-03-09T12:47:51.423Z</time>
      </trkpt>
      <trkpt lat="42.67373" lon="23.38299">
        <ele>589.708862</ele>
        <time>2022-03-09T12:47:54.472Z</time>
      </trkpt>
      <trkpt lat="42.67374" lon="23.38284">
        <ele>589.29085</ele>
        <time>2022-03-09T12:47:57.438Z</time>
      </trkpt>
      <trkpt lat="42.67375" lon="23.3827">
        <ele>588.87519</ele>
        <time>2022-03-09T12:48:00.466Z</time>
      </trkpt>
      <trkpt lat="42.67376" lon="23.38255">
        <ele>588.47119</ele>
        <time>2022-03-09T12:48:03.440Z</time>
      </trkpt>
      <trkpt lat="42.67378" lon="23.38243">
        <ele>588.119884</ele>
        <time>2022-03-09T12:48:06.414Z</time>
      </trkpt>
      <trkpt lat="42.67381" lon="23.38232">
        <ele>588.021287</ele>
        <time>2022-03-09T12:48:09.446Z</time>
      </trkpt>
      <trkpt lat="42.67383" lon="23.38216">
        <ele>587.93705</ele>
        <time>2022-03-09T12:48:13.488Z</time>
      </trkpt>
      <trkpt lat="42.67386" lon="23.38203">
        <ele>587.861298</ele>
        <time>2022-03-09T12:48:18.422Z</time>
      </trkpt>
      <trkpt lat="42.67398" lon="23.38187">
        <ele>587.734888</ele>
        <time>2022-03-09T12:48:45.432Z</time>
      </trkpt>
      <trkpt lat="42.67402" lon="23.38175">
        <ele>587.665541</ele>
        <time>2022-03-09T12:48:58.448Z</time>
      </trkpt>
      <trkpt lat="42.67412" lon="23.3817">
        <ele>587.583058</ele>
        <time>2022-03-09T12:49:03.465Z</time>
      </trkpt>
      <trkpt lat="42.67423" lon="23.3817">
        <ele>587.504058</ele>
        <time>2022-03-09T12:49:06.419Z</time>
      </trkpt>
      <trkpt lat="42.67434" lon="23.38172">
        <ele>587.421589</ele>
        <time>2022-03-09T12:49:09.417Z</time>
      </trkpt>
      <trkpt lat="42.67446" lon="23.38175">
        <ele>587.332536</ele>
        <time>2022-03-09T12:49:12.445Z</time>
      </trkpt>
      <trkpt lat="42.67457" lon="23.38178">
        <ele>587.245459</ele>
        <time>2022-03-09T12:49:15.430Z</time>
      </trkpt>
      <trkpt lat="42.67469" lon="23.38181">
        <ele>587.15724</ele>
        <time>2022-03-09T12:49:18.422Z</time>
      </trkpt>
      <trkpt lat="42.6748" lon="23.38184">
        <ele>587.078444</ele>
        <time>2022-03-09T12:49:21.435Z</time>
      </trkpt>
      <trkpt lat="42.67489" lon="23.38188">
        <ele>587.006751</ele>
        <time>2022-03-09T12:49:26.429Z</time>
      </trkpt>
      <trkpt lat="42.67499" lon="23.38192">
        <ele>586.927103</ele>
        <time>2022-03-09T12:49:32.457Z</time>
      </trkpt>
      <trkpt lat="42.6751" lon="23.38193">
        <ele>586.850564</ele>
        <time>2022-03-09T12:49:35.421Z</time>
      </trkpt>
      <trkpt lat="42.6752" lon="23.38195">
        <ele>586.77243</ele>
        <time>2022-03-09T12:49:38.438Z</time>
      </trkpt>
      <trkpt lat="42.67531" lon="23.38197">
        <ele>586.969165</ele>
        <time>2022-03-09T12:49:41.447Z</time>
      </trkpt>
      <trkpt lat="42.67543" lon="23.38194">
        <ele>587.30321</ele>
        <time>2022-03-09T12:49:44.496Z</time>
      </trkpt>
      <trkpt lat="42.67556" lon="23.38195">
        <ele>587.665011</ele>
        <time>2022-03-09T12:49:47.437Z</time>
      </trkpt>
      <trkpt lat="42.67565" lon="23.38198">
        <ele>587.915773</ele>
        <time>2022-03-09T12:49:49.434Z</time>
      </trkpt>
      <trkpt lat="42.67574" lon="23.382">
        <ele>588.166592</ele>
        <time>2022-03-09T12:49:51.426Z</time>
      </trkpt>
      <trkpt lat="42.67587" lon="23.38199">
        <ele>588.533609</ele>
        <time>2022-03-09T12:49:54.415Z</time>
      </trkpt>
      <trkpt lat="42.67596" lon="23.38194">
        <ele>588.800536</ele>
        <time>2022-03-09T12:49:56.410Z</time>
      </trkpt>
      <trkpt lat="42.67605" lon="23.38182">
        <ele>589.145765</ele>
        <time>2022-03-09T12:49:59.451Z</time>
      </trkpt>
      <trkpt lat="42.67608" lon="23.38168">
        <ele>589.4439</ele>
        <time>2022-03-09T12:50:02.481Z</time>
      </trkpt>
      <trkpt lat="42.6761" lon="23.38152">
        <ele>589.76977</ele>
        <time>2022-03-09T12:50:05.429Z</time>
      </trkpt>
      <trkpt lat="42.67612" lon="23.38137">
        <ele>590.079823</ele>
        <time>2022-03-09T12:50:08.456Z</time>
      </trkpt>
      <trkpt lat="42.67614" lon="23.38122">
        <ele>590.375959</ele>
        <time>2022-03-09T12:50:11.429Z</time>
      </trkpt>
      <trkpt lat="42.67614" lon="23.38107">
        <ele>590.681624</ele>
        <time>2022-03-09T12:50:14.446Z</time>
      </trkpt>
      <trkpt lat="42.67614" lon="23.38093">
        <ele>590.9773</ele>
        <time>2022-03-09T12:50:17.423Z</time>
      </trkpt>
      <trkpt lat="42.67614" lon="23.38078">
        <ele>591.267296</ele>
        <time>2022-03-09T12:50:20.447Z</time>
      </trkpt>
      <trkpt lat="42.67612" lon="23.38063">
        <ele>591.58075</ele>
        <time>2022-03-09T12:50:23.438Z</time>
      </trkpt>
      <trkpt lat="42.6761" lon="23.38047">
        <ele>591.281204</ele>
        <time>2022-03-09T12:50:26.443Z</time>
      </trkpt>
      <trkpt lat="42.67609" lon="23.38029">
        <ele>590.685171</ele>
        <time>2022-03-09T12:50:29.438Z</time>
      </trkpt>
      <trkpt lat="42.67613" lon="23.38014">
        <ele>590.145979</ele>
        <time>2022-03-09T12:50:32.415Z</time>
      </trkpt>
      <trkpt lat="42.6762" lon="23.38005">
        <ele>589.695574</ele>
        <time>2022-03-09T12:50:34.412Z</time>
      </trkpt>
      <trkpt lat="42.67632" lon="23.37998">
        <ele>589.097549</ele>
        <time>2022-03-09T12:50:37.454Z</time>
      </trkpt>
      <trkpt lat="42.67643" lon="23.3799">
        <ele>588.529156</ele>
        <time>2022-03-09T12:50:40.445Z</time>
      </trkpt>
      <trkpt lat="42.67654" lon="23.37983">
        <ele>587.967235</ele>
        <time>2022-03-09T12:50:43.432Z</time>
      </trkpt>
      <trkpt lat="42.67665" lon="23.37976">
        <ele>587.401103</ele>
        <time>2022-03-09T12:50:46.433Z</time>
      </trkpt>
      <trkpt lat="42.67676" lon="23.3797">
        <ele>586.890546</ele>
        <time>2022-03-09T12:50:49.432Z</time>
      </trkpt>
      <trkpt lat="42.67685" lon="23.37962">
        <ele>586.395947</ele>
        <time>2022-03-09T12:50:52.441Z</time>
      </trkpt>
      <trkpt lat="42.67694" lon="23.37956">
        <ele>585.92121</ele>
        <time>2022-03-09T12:50:55.427Z</time>
      </trkpt>
      <trkpt lat="42.67705" lon="23.37949">
        <ele>585.377411</ele>
        <time>2022-03-09T12:50:58.444Z</time>
      </trkpt>
      <trkpt lat="42.67716" lon="23.37942">
        <ele>584.836024</ele>
        <time>2022-03-09T12:51:01.455Z</time>
      </trkpt>
      <trkpt lat="42.67726" lon="23.37935">
        <ele>584.319851</ele>
        <time>2022-03-09T12:51:04.432Z</time>
      </trkpt>
      <trkpt lat="42.67735" lon="23.37927">
        <ele>583.816522</ele>
        <time>2022-03-09T12:51:07.442Z</time>
      </trkpt>
      <trkpt lat="42.67745" lon="23.3792">
        <ele>583.546098</ele>
        <time>2022-03-09T12:51:10.518Z</time>
      </trkpt>
      <trkpt lat="42.67756" lon="23.37913">
        <ele>583.868743</ele>
        <time>2022-03-09T12:51:13.457Z</time>
      </trkpt>
      <trkpt lat="42.67767" lon="23.37906">
        <ele>584.204515</ele>
        <time>2022-03-09T12:51:16.430Z</time>
      </trkpt>
      <trkpt lat="42.67777" lon="23.379">
        <ele>584.490944</ele>
        <time>2022-03-09T12:51:19.433Z</time>
      </trkpt>
      <trkpt lat="42.67788" lon="23.37892">
        <ele>584.823273</ele>
        <time>2022-03-09T12:51:22.447Z</time>
      </trkpt>
      <trkpt lat="42.67799" lon="23.37885">
        <ele>585.153196</ele>
        <time>2022-03-09T12:51:25.439Z</time>
      </trkpt>
      <trkpt lat="42.67809" lon="23.3788">
        <ele>585.459581</ele>
        <time>2022-03-09T12:51:28.448Z</time>
      </trkpt>
      <trkpt lat="42.67819" lon="23.37874">
        <ele>585.733624</ele>
        <time>2022-03-09T12:51:31.432Z</time>
      </trkpt>
      <trkpt lat="42.67827" lon="23.37867">
        <ele>586.012242</ele>
        <time>2022-03-09T12:51:34.448Z</time>
      </trkpt>
      <trkpt lat="42.67837" lon="23.37861">
        <ele>586.306176</ele>
        <time>2022-03-09T12:51:37.449Z</time>
      </trkpt>
      <trkpt lat="42.67846" lon="23.37854">
        <ele>586.579483</ele>
        <time>2022-03-09T12:51:40.437Z</time>
      </trkpt>
      <trkpt lat="42.67855" lon="23.3785">
        <ele>586.829701</ele>
        <time>2022-03-09T12:51:43.528Z</time>
      </trkpt>
      <trkpt lat="42.67868" lon="23.37848">
        <ele>587.194822</ele>
        <time>2022-03-09T12:51:46.426Z</time>
      </trkpt>
      <trkpt lat="42.67877" lon="23.37848">
        <ele>587.444541</ele>
        <time>2022-03-09T12:51:48.403Z</time>
      </trkpt>
      <trkpt lat="42.67887" lon="23.37848">
        <ele>587.694157</ele>
        <time>2022-03-09T12:51:50.440Z</time>
      </trkpt>
      <trkpt lat="42.67896" lon="23.3785">
        <ele>587.964116</ele>
        <time>2022-03-09T12:51:52.524Z</time>
      </trkpt>
      <trkpt lat="42.67905" lon="23.37852">
        <ele>588.211258</ele>
        <time>2022-03-09T12:51:54.431Z</time>
      </trkpt>
      <trkpt lat="42.67915" lon="23.37854">
        <ele>588.364809</ele>
        <time>2022-03-09T12:51:56.427Z</time>
      </trkpt>
      <trkpt lat="42.67927" lon="23.3786">
        <ele>588.456031</ele>
        <time>2022-03-09T12:51:59.441Z</time>
      </trkpt>
      <trkpt lat="42.6794" lon="23.37863">
        <ele>588.543374</ele>
        <time>2022-03-09T12:52:02.482Z</time>
      </trkpt>
      <trkpt lat="42.67949" lon="23.37867">
        <ele>588.609773</ele>
        <time>2022-03-09T12:52:04.453Z</time>
      </trkpt>
      <trkpt lat="42.67958" lon="23.3787">
        <ele>588.673211</ele>
        <time>2022-03-09T12:52:06.428Z</time>
      </trkpt>
      <trkpt lat="42.67971" lon="23.3787">
        <ele>588.765342</ele>
        <time>2022-03-09T12:52:09.452Z</time>
      </trkpt>
      <trkpt lat="42.67979" lon="23.37866">
        <ele>588.829431</ele>
        <time>2022-03-09T12:52:11.431Z</time>
      </trkpt>
      <trkpt lat="42.6799" lon="23.37856">
        <ele>588.916284</ele>
        <time>2022-03-09T12:52:14.421Z</time>
      </trkpt>
      <trkpt lat="42.67993" lon="23.37843">
        <ele>588.987866</ele>
        <time>2022-03-09T12:52:17.411Z</time>
      </trkpt>
      <trkpt lat="42.67995" lon="23.37828">
        <ele>589.067848</ele>
        <time>2022-03-09T12:52:20.463Z</time>
      </trkpt>
      <trkpt lat="42.67998" lon="23.37813">
        <ele>589.147105</ele>
        <time>2022-03-09T12:52:23.437Z</time>
      </trkpt>
      <trkpt lat="42.68" lon="23.37794">
        <ele>589.243038</ele>
        <time>2022-03-09T12:52:26.435Z</time>
      </trkpt>
      <trkpt lat="42.68001" lon="23.37782">
        <ele>589.308377</ele>
        <time>2022-03-09T12:52:28.440Z</time>
      </trkpt>
      <trkpt lat="42.68003" lon="23.37765">
        <ele>589.394409</ele>
        <time>2022-03-09T12:52:31.475Z</time>
      </trkpt>
      <trkpt lat="42.68006" lon="23.37751">
        <ele>589.470325</ele>
        <time>2022-03-09T12:52:34.441Z</time>
      </trkpt>
      <trkpt lat="42.68009" lon="23.37738">
        <ele>589.543171</ele>
        <time>2022-03-09T12:52:37.440Z</time>
      </trkpt>
      <trkpt lat="42.68012" lon="23.37723">
        <ele>589.781795</ele>
        <time>2022-03-09T12:52:40.433Z</time>
      </trkpt>
      <trkpt lat="42.68014" lon="23.37707">
        <ele>590.247071</ele>
        <time>2022-03-09T12:52:43.436Z</time>
      </trkpt>
      <trkpt lat="42.68016" lon="23.37692">
        <ele>590.684448</ele>
        <time>2022-03-09T12:52:46.431Z</time>
      </trkpt>
      <trkpt lat="42.68019" lon="23.37675">
        <ele>591.157627</ele>
        <time>2022-03-09T12:52:49.483Z</time>
      </trkpt>
      <trkpt lat="42.68024" lon="23.3766">
        <ele>591.628739</ele>
        <time>2022-03-09T12:52:53.462Z</time>
      </trkpt>
      <trkpt lat="42.68026" lon="23.37643">
        <ele>592.129039</ele>
        <time>2022-03-09T12:52:56.460Z</time>
      </trkpt>
      <trkpt lat="42.68026" lon="23.3763">
        <ele>592.493227</ele>
        <time>2022-03-09T12:52:58.444Z</time>
      </trkpt>
      <trkpt lat="42.68027" lon="23.37617">
        <ele>592.854911</ele>
        <time>2022-03-09T12:53:00.426Z</time>
      </trkpt>
      <trkpt lat="42.68029" lon="23.37602">
        <ele>593.282225</ele>
        <time>2022-03-09T12:53:03.431Z</time>
      </trkpt>
      <trkpt lat="42.6803" lon="23.37589">
        <ele>593.64145</ele>
        <time>2022-03-09T12:53:06.422Z</time>
      </trkpt>
      <trkpt lat="42.68031" lon="23.37575">
        <ele>594.037573</ele>
        <time>2022-03-09T12:53:09.410Z</time>
      </trkpt>
      <trkpt lat="42.68033" lon="23.37557">
        <ele>594.563498</ele>
        <time>2022-03-09T12:53:12.430Z</time>
      </trkpt>
      <trkpt lat="42.68034" lon="23.37543">
        <ele>594.950436</ele>
        <time>2022-03-09T12:53:14.455Z</time>
      </trkpt>
      <trkpt lat="42.68035" lon="23.3753">
        <ele>595.318449</ele>
        <time>2022-03-09T12:53:16.423Z</time>
      </trkpt>
      <trkpt lat="42.68039" lon="23.37514">
        <ele>595.791485</ele>
        <time>2022-03-09T12:53:19.433Z</time>
      </trkpt>
      <trkpt lat="42.68041" lon="23.37501">
        <ele>596.168148</ele>
        <time>2022-03-09T12:53:21.440Z</time>
      </trkpt>
      <trkpt lat="42.68041" lon="23.37487">
        <ele>596.530915</ele>
        <time>2022-03-09T12:53:23.458Z</time>
      </trkpt>
      <trkpt lat="42.68041" lon="23.37473">
        <ele>596.815066</ele>
        <time>2022-03-09T12:53:25.441Z</time>
      </trkpt>
      <trkpt lat="42.68041" lon="23.3746">
        <ele>597.082906</ele>
        <time>2022-03-09T12:53:27.444Z</time>
      </trkpt>
      <trkpt lat="42.6804" lon="23.37448">
        <ele>597.340536</ele>
        <time>2022-03-09T12:53:29.474Z</time>
      </trkpt>
      <trkpt lat="42.6804" lon="23.3743">
        <ele>597.700032</ele>
        <time>2022-03-09T12:53:32.440Z</time>
      </trkpt>
      <trkpt lat="42.6804" lon="23.37414">
        <ele>598.022515</ele>
        <time>2022-03-09T12:53:35.424Z</time>
      </trkpt>
      <trkpt lat="42.6804" lon="23.37398">
        <ele>598.343005</ele>
        <time>2022-03-09T12:53:38.481Z</time>
      </trkpt>
      <trkpt lat="42.6804" lon="23.37383">
        <ele>598.653503</ele>
        <time>2022-03-09T12:53:41.436Z</time>
      </trkpt>
      <trkpt lat="42.6804" lon="23.37368">
        <ele>598.957921</ele>
        <time>2022-03-09T12:53:44.431Z</time>
      </trkpt>
      <trkpt lat="42.6804" lon="23.37351">
        <ele>599.298645</ele>
        <time>2022-03-09T12:53:47.425Z</time>
      </trkpt>
      <trkpt lat="42.6804" lon="23.37337">
        <ele>599.58089</ele>
        <time>2022-03-09T12:53:50.452Z</time>
      </trkpt>
      <trkpt lat="42.68043" lon="23.37324">
        <ele>599.850766</ele>
        <time>2022-03-09T12:53:53.463Z</time>
      </trkpt>
      <trkpt lat="42.68045" lon="23.37309">
        <ele>600.16607</ele>
        <time>2022-03-09T12:53:56.448Z</time>
      </trkpt>
      <trkpt lat="42.68049" lon="23.37296">
        <ele>600.459387</ele>
        <time>2022-03-09T12:53:59.429Z</time>
      </trkpt>
      <trkpt lat="42.68054" lon="23.37283">
        <ele>600.757331</ele>
        <time>2022-03-09T12:54:02.481Z</time>
      </trkpt>
      <trkpt lat="42.68058" lon="23.37271">
        <ele>601.021949</ele>
        <time>2022-03-09T12:54:05.460Z</time>
      </trkpt>
      <trkpt lat="42.68057" lon="23.37258">
        <ele>601.274176</ele>
        <time>2022-03-09T12:54:09.434Z</time>
      </trkpt>
      <trkpt lat="42.68058" lon="23.37245">
        <ele>601.48714</ele>
        <time>2022-03-09T12:54:15.471Z</time>
      </trkpt>
      <trkpt lat="42.68069" lon="23.37212">
        <ele>601.870761</ele>
        <time>2022-03-09T12:54:41.444Z</time>
      </trkpt>
      <trkpt lat="42.68074" lon="23.37198">
        <ele>602.036167</ele>
        <time>2022-03-09T12:54:45.481Z</time>
      </trkpt>
      <trkpt lat="42.68078" lon="23.37183">
        <ele>602.20255</ele>
        <time>2022-03-09T12:54:48.420Z</time>
      </trkpt>
      <trkpt lat="42.68083" lon="23.37172">
        <ele>602.346885</ele>
        <time>2022-03-09T12:54:51.426Z</time>
      </trkpt>
      <trkpt lat="42.68088" lon="23.37161">
        <ele>602.481466</ele>
        <time>2022-03-09T12:54:54.433Z</time>
      </trkpt>
      <trkpt lat="42.68093" lon="23.3715">
        <ele>602.616186</ele>
        <time>2022-03-09T12:54:57.450Z</time>
      </trkpt>
      <trkpt lat="42.68099" lon="23.37136">
        <ele>602.783565</ele>
        <time>2022-03-09T12:55:01.466Z</time>
      </trkpt>
      <trkpt lat="42.68103" lon="23.37124">
        <ele>602.919332</ele>
        <time>2022-03-09T12:55:04.439Z</time>
      </trkpt>
      <trkpt lat="42.68107" lon="23.37112">
        <ele>603.057678</ele>
        <time>2022-03-09T12:55:07.451Z</time>
      </trkpt>
      <trkpt lat="42.6811" lon="23.37097">
        <ele>603.224955</ele>
        <time>2022-03-09T12:55:11.438Z</time>
      </trkpt>
      <trkpt lat="42.68112" lon="23.37082">
        <ele>603.384664</ele>
        <time>2022-03-09T12:55:15.439Z</time>
      </trkpt>
      <trkpt lat="42.68116" lon="23.3707">
        <ele>603.522047</ele>
        <time>2022-03-09T12:55:19.439Z</time>
      </trkpt>
      <trkpt lat="42.68118" lon="23.37057">
        <ele>603.661682</ele>
        <time>2022-03-09T12:55:22.420Z</time>
      </trkpt>
      <trkpt lat="42.68124" lon="23.37045">
        <ele>603.822359</ele>
        <time>2022-03-09T12:55:26.444Z</time>
      </trkpt>
      <trkpt lat="42.68131" lon="23.37036">
        <ele>603.952</ele>
        <time>2022-03-09T12:55:30.428Z</time>
      </trkpt>
      <trkpt lat="42.68136" lon="23.37024">
        <ele>604.452892</ele>
        <time>2022-03-09T12:55:35.434Z</time>
      </trkpt>
      <trkpt lat="42.68141" lon="23.37012">
        <ele>605.227148</ele>
        <time>2022-03-09T12:55:41.447Z</time>
      </trkpt>
      <trkpt lat="42.68148" lon="23.37002">
        <ele>605.977973</ele>
        <time>2022-03-09T12:55:46.430Z</time>
      </trkpt>
      <trkpt lat="42.68155" lon="23.36994">
        <ele>606.694541</ele>
        <time>2022-03-09T12:55:51.463Z</time>
      </trkpt>
      <trkpt lat="42.6816" lon="23.36983">
        <ele>607.393992</ele>
        <time>2022-03-09T12:55:58.441Z</time>
      </trkpt>
      <trkpt lat="42.68163" lon="23.3697">
        <ele>608.126251</ele>
        <time>2022-03-09T12:56:04.429Z</time>
      </trkpt>
      <trkpt lat="42.68167" lon="23.36958">
        <ele>608.855905</ele>
        <time>2022-03-09T12:56:10.460Z</time>
      </trkpt>
      <trkpt lat="42.6817" lon="23.36945">
        <ele>609.58097</ele>
        <time>2022-03-09T12:56:16.437Z</time>
      </trkpt>
      <trkpt lat="42.68171" lon="23.36933">
        <ele>610.252215</ele>
        <time>2022-03-09T12:56:20.443Z</time>
      </trkpt>
      <trkpt lat="42.68171" lon="23.3692">
        <ele>610.964057</ele>
        <time>2022-03-09T12:56:26.454Z</time>
      </trkpt>
      <trkpt lat="42.68174" lon="23.36908">
        <ele>611.678345</ele>
        <time>2022-03-09T12:56:33.447Z</time>
      </trkpt>
      <trkpt lat="42.68182" lon="23.369">
        <ele>612.442463</ele>
        <time>2022-03-09T12:56:37.456Z</time>
      </trkpt>
      <trkpt lat="42.68185" lon="23.36888">
        <ele>613.13547</ele>
        <time>2022-03-09T12:56:44.451Z</time>
      </trkpt>
      <trkpt lat="42.68191" lon="23.36878">
        <ele>613.860031</ele>
        <time>2022-03-09T12:56:50.441Z</time>
      </trkpt>
      <trkpt lat="42.68197" lon="23.36868">
        <ele>614.58459</ele>
        <time>2022-03-09T12:56:55.457Z</time>
      </trkpt>
      <trkpt lat="42.68201" lon="23.36856">
        <ele>615.268861</ele>
        <time>2022-03-09T12:57:01.431Z</time>
      </trkpt>
      <trkpt lat="42.68207" lon="23.36844">
        <ele>616.050109</ele>
        <time>2022-03-09T12:57:06.455Z</time>
      </trkpt>
      <trkpt lat="42.68211" lon="23.36832">
        <ele>616.796441</ele>
        <time>2022-03-09T12:57:12.456Z</time>
      </trkpt>
      <trkpt lat="42.68216" lon="23.36822">
        <ele>617.452957</ele>
        <time>2022-03-09T12:57:17.441Z</time>
      </trkpt>
      <trkpt lat="42.68221" lon="23.36811">
        <ele>617.913213</ele>
        <time>2022-03-09T12:57:24.435Z</time>
      </trkpt>
      <trkpt lat="42.68224" lon="23.36799">
        <ele>618.369308</ele>
        <time>2022-03-09T12:57:31.423Z</time>
      </trkpt>
      <trkpt lat="42.6823" lon="23.3679">
        <ele>618.806528</ele>
        <time>2022-03-09T12:57:36.449Z</time>
      </trkpt>
      <trkpt lat="42.68235" lon="23.36779">
        <ele>619.265563</ele>
        <time>2022-03-09T12:57:40.433Z</time>
      </trkpt>
      <trkpt lat="42.68236" lon="23.36764">
        <ele>619.797338</ele>
        <time>2022-03-09T12:57:45.444Z</time>
      </trkpt>
      <trkpt lat="42.6824" lon="23.36749">
        <ele>620.358698</ele>
        <time>2022-03-09T12:57:49.430Z</time>
      </trkpt>
      <trkpt lat="42.68242" lon="23.36734">
        <ele>620.897132</ele>
        <time>2022-03-09T12:57:53.441Z</time>
      </trkpt>
      <trkpt lat="42.68248" lon="23.36722">
        <ele>621.417683</ele>
        <time>2022-03-09T12:57:57.453Z</time>
      </trkpt>
      <trkpt lat="42.6825" lon="23.36709">
        <ele>621.885573</ele>
        <time>2022-03-09T12:58:01.437Z</time>
      </trkpt>
      <trkpt lat="42.68251" lon="23.36695">
        <ele>622.377628</ele>
        <time>2022-03-09T12:58:05.440Z</time>
      </trkpt>
      <trkpt lat="42.68252" lon="23.36682">
        <ele>622.85579</ele>
        <time>2022-03-09T12:58:08.431Z</time>
      </trkpt>
      <trkpt lat="42.68252" lon="23.36668">
        <ele>623.347368</ele>
        <time>2022-03-09T12:58:11.449Z</time>
      </trkpt>
      <trkpt lat="42.68254" lon="23.36655">
        <ele>623.814728</ele>
        <time>2022-03-09T12:58:14.439Z</time>
      </trkpt>
      <trkpt lat="42.68256" lon="23.36643">
        <ele>624.264254</ele>
        <time>2022-03-09T12:58:17.436Z</time>
      </trkpt>
      <trkpt lat="42.68259" lon="23.3663">
        <ele>624.750711</ele>
        <time>2022-03-09T12:58:20.455Z</time>
      </trkpt>
      <trkpt lat="42.68261" lon="23.36616">
        <ele>625.236461</ele>
        <time>2022-03-09T12:58:23.453Z</time>
      </trkpt>
      <trkpt lat="42.68264" lon="23.36602">
        <ele>625.779392</ele>
        <time>2022-03-09T12:58:26.429Z</time>
      </trkpt>
      <trkpt lat="42.68265" lon="23.36589">
        <ele>626.201281</ele>
        <time>2022-03-09T12:58:29.425Z</time>
      </trkpt>
      <trkpt lat="42.68266" lon="23.36576">
        <ele>626.543469</ele>
        <time>2022-03-09T12:58:32.442Z</time>
      </trkpt>
      <trkpt lat="42.68267" lon="23.36562">
        <ele>626.930267</ele>
        <time>2022-03-09T12:58:36.452Z</time>
      </trkpt>
      <trkpt lat="42.68269" lon="23.36549">
        <ele>627.299152</ele>
        <time>2022-03-09T12:58:39.435Z</time>
      </trkpt>
      <trkpt lat="42.68271" lon="23.36533">
        <ele>627.725862</ele>
        <time>2022-03-09T12:58:42.442Z</time>
      </trkpt>
      <trkpt lat="42.68272" lon="23.36519">
        <ele>628.103757</ele>
        <time>2022-03-09T12:58:45.448Z</time>
      </trkpt>
      <trkpt lat="42.68274" lon="23.36506">
        <ele>628.460044</ele>
        <time>2022-03-09T12:58:48.445Z</time>
      </trkpt>
      <trkpt lat="42.68276" lon="23.36494">
        <ele>628.79787</ele>
        <time>2022-03-09T12:58:51.446Z</time>
      </trkpt>
      <trkpt lat="42.68278" lon="23.3648">
        <ele>629.186742</ele>
        <time>2022-03-09T12:58:54.429Z</time>
      </trkpt>
      <trkpt lat="42.6828" lon="23.36465">
        <ele>629.59754</ele>
        <time>2022-03-09T12:58:57.463Z</time>
      </trkpt>
      <trkpt lat="42.68284" lon="23.36451">
        <ele>630.007834</ele>
        <time>2022-03-09T12:59:00.464Z</time>
      </trkpt>
      <trkpt lat="42.6829" lon="23.36438">
        <ele>630.421644</ele>
        <time>2022-03-09T12:59:03.426Z</time>
      </trkpt>
      <trkpt lat="42.68294" lon="23.36426">
        <ele>630.794617</ele>
        <time>2022-03-09T12:59:06.432Z</time>
      </trkpt>
      <trkpt lat="42.68296" lon="23.36413">
        <ele>631.145543</ele>
        <time>2022-03-09T12:59:09.438Z</time>
      </trkpt>
      <trkpt lat="42.68298" lon="23.36399">
        <ele>631.522097</ele>
        <time>2022-03-09T12:59:12.433Z</time>
      </trkpt>
      <trkpt lat="42.68295" lon="23.36386">
        <ele>631.880898</ele>
        <time>2022-03-09T12:59:15.439Z</time>
      </trkpt>
      <trkpt lat="42.68294" lon="23.36373">
        <ele>632.244614</ele>
        <time>2022-03-09T12:59:20.442Z</time>
      </trkpt>
      <trkpt lat="42.68296" lon="23.3636">
        <ele>632.599115</ele>
        <time>2022-03-09T12:59:24.431Z</time>
      </trkpt>
      <trkpt lat="42.68298" lon="23.36347">
        <ele>632.337105</ele>
        <time>2022-03-09T12:59:27.446Z</time>
      </trkpt>
      <trkpt lat="42.68296" lon="23.36333">
        <ele>631.684158</ele>
        <time>2022-03-09T12:59:31.438Z</time>
      </trkpt>
      <trkpt lat="42.68298" lon="23.3632">
        <ele>631.08306</ele>
        <time>2022-03-09T12:59:37.464Z</time>
      </trkpt>
      <trkpt lat="42.68302" lon="23.36304">
        <ele>630.322647</ele>
        <time>2022-03-09T12:59:41.441Z</time>
      </trkpt>
      <trkpt lat="42.68306" lon="23.3629">
        <ele>629.651052</ele>
        <time>2022-03-09T12:59:44.442Z</time>
      </trkpt>
      <trkpt lat="42.6831" lon="23.36278">
        <ele>629.062201</ele>
        <time>2022-03-09T12:59:47.429Z</time>
      </trkpt>
      <trkpt lat="42.68314" lon="23.36263">
        <ele>628.348361</ele>
        <time>2022-03-09T12:59:51.440Z</time>
      </trkpt>
      <trkpt lat="42.6832" lon="23.36251">
        <ele>627.670335</ele>
        <time>2022-03-09T12:59:54.446Z</time>
      </trkpt>
      <trkpt lat="42.68326" lon="23.36239">
        <ele>627.026705</ele>
        <time>2022-03-09T12:59:57.433Z</time>
      </trkpt>
      <trkpt lat="42.68332" lon="23.36227">
        <ele>626.339219</ele>
        <time>2022-03-09T13:00:01.450Z</time>
      </trkpt>
      <trkpt lat="42.6834" lon="23.36214">
        <ele>625.585907</ele>
        <time>2022-03-09T13:00:06.445Z</time>
      </trkpt>
      <trkpt lat="42.68344" lon="23.36201">
        <ele>624.957044</ele>
        <time>2022-03-09T13:00:09.435Z</time>
      </trkpt>
      <trkpt lat="42.68348" lon="23.36189">
        <ele>624.357928</ele>
        <time>2022-03-09T13:00:12.468Z</time>
      </trkpt>
      <trkpt lat="42.68353" lon="23.36177">
        <ele>623.729903</ele>
        <time>2022-03-09T13:00:16.460Z</time>
      </trkpt>
      <trkpt lat="42.68355" lon="23.36164">
        <ele>623.137578</ele>
        <time>2022-03-09T13:00:20.430Z</time>
      </trkpt>
      <trkpt lat="42.68357" lon="23.36148">
        <ele>622.406558</ele>
        <time>2022-03-09T13:00:23.427Z</time>
      </trkpt>
      <trkpt lat="42.6836" lon="23.36135">
        <ele>621.766467</ele>
        <time>2022-03-09T13:00:26.449Z</time>
      </trkpt>
      <trkpt lat="42.68365" lon="23.36123">
        <ele>622.042218</ele>
        <time>2022-03-09T13:00:29.450Z</time>
      </trkpt>
      <trkpt lat="42.68369" lon="23.3611">
        <ele>622.593901</ele>
        <time>2022-03-09T13:00:32.433Z</time>
      </trkpt>
      <trkpt lat="42.68372" lon="23.36093">
        <ele>623.278018</ele>
        <time>2022-03-09T13:00:35.442Z</time>
      </trkpt>
      <trkpt lat="42.68377" lon="23.3608">
        <ele>623.83654</ele>
        <time>2022-03-09T13:00:38.453Z</time>
      </trkpt>
      <trkpt lat="42.68382" lon="23.36067">
        <ele>624.435032</ele>
        <time>2022-03-09T13:00:41.428Z</time>
      </trkpt>
      <trkpt lat="42.68386" lon="23.36052">
        <ele>625.04614</ele>
        <time>2022-03-09T13:00:44.438Z</time>
      </trkpt>
      <trkpt lat="42.6839" lon="23.36037">
        <ele>625.673101</ele>
        <time>2022-03-09T13:00:47.437Z</time>
      </trkpt>
      <trkpt lat="42.68394" lon="23.36021">
        <ele>626.357901</ele>
        <time>2022-03-09T13:00:50.446Z</time>
      </trkpt>
      <trkpt lat="42.68398" lon="23.36006">
        <ele>626.965045</ele>
        <time>2022-03-09T13:00:53.443Z</time>
      </trkpt>
      <trkpt lat="42.68403" lon="23.35994">
        <ele>627.497751</ele>
        <time>2022-03-09T13:00:56.431Z</time>
      </trkpt>
      <trkpt lat="42.68409" lon="23.35983">
        <ele>628.028552</ele>
        <time>2022-03-09T13:00:59.442Z</time>
      </trkpt>
      <trkpt lat="42.68414" lon="23.35973">
        <ele>628.512045</ele>
        <time>2022-03-09T13:01:02.458Z</time>
      </trkpt>
      <trkpt lat="42.68421" lon="23.35962">
        <ele>629.058902</ele>
        <time>2022-03-09T13:01:05.445Z</time>
      </trkpt>
      <trkpt lat="42.68426" lon="23.35951">
        <ele>629.595495</ele>
        <time>2022-03-09T13:01:08.471Z</time>
      </trkpt>
      <trkpt lat="42.68432" lon="23.35938">
        <ele>630.200542</ele>
        <time>2022-03-09T13:01:12.446Z</time>
      </trkpt>
      <trkpt lat="42.68437" lon="23.35927">
        <ele>630.695271</ele>
        <time>2022-03-09T13:01:15.483Z</time>
      </trkpt>
      <trkpt lat="42.68441" lon="23.35915">
        <ele>631.204649</ele>
        <time>2022-03-09T13:01:18.429Z</time>
      </trkpt>
      <trkpt lat="42.68444" lon="23.35902">
        <ele>631.342826</ele>
        <time>2022-03-09T13:01:21.462Z</time>
      </trkpt>
      <trkpt lat="42.68447" lon="23.35886">
        <ele>631.492765</ele>
        <time>2022-03-09T13:01:24.432Z</time>
      </trkpt>
      <trkpt lat="42.68451" lon="23.35873">
        <ele>631.630307</ele>
        <time>2022-03-09T13:01:27.437Z</time>
      </trkpt>
      <trkpt lat="42.68455" lon="23.3586">
        <ele>631.75572</ele>
        <time>2022-03-09T13:01:30.457Z</time>
      </trkpt>
      <trkpt lat="42.68461" lon="23.35845">
        <ele>631.915214</ele>
        <time>2022-03-09T13:01:34.460Z</time>
      </trkpt>
      <trkpt lat="42.68465" lon="23.35831">
        <ele>632.056605</ele>
        <time>2022-03-09T13:01:37.436Z</time>
      </trkpt>
      <trkpt lat="42.6847" lon="23.35818">
        <ele>632.187916</ele>
        <time>2022-03-09T13:01:40.434Z</time>
      </trkpt>
      <trkpt lat="42.68474" lon="23.35806">
        <ele>632.312474</ele>
        <time>2022-03-09T13:01:43.431Z</time>
      </trkpt>
      <trkpt lat="42.68476" lon="23.35791">
        <ele>632.457306</ele>
        <time>2022-03-09T13:01:47.443Z</time>
      </trkpt>
      <trkpt lat="42.68479" lon="23.35779">
        <ele>632.575156</ele>
        <time>2022-03-09T13:01:50.453Z</time>
      </trkpt>
      <trkpt lat="42.68483" lon="23.35767">
        <ele>632.698217</ele>
        <time>2022-03-09T13:01:53.444Z</time>
      </trkpt>
      <trkpt lat="42.68486" lon="23.35752">
        <ele>632.836403</ele>
        <time>2022-03-09T13:01:56.440Z</time>
      </trkpt>
      <trkpt lat="42.68488" lon="23.35738">
        <ele>632.973109</ele>
        <time>2022-03-09T13:02:00.448Z</time>
      </trkpt>
      <trkpt lat="42.68494" lon="23.35725">
        <ele>633.110558</ele>
        <time>2022-03-09T13:02:04.431Z</time>
      </trkpt>
      <trkpt lat="42.68501" lon="23.35716">
        <ele>633.227664</ele>
        <time>2022-03-09T13:02:07.462Z</time>
      </trkpt>
      <trkpt lat="42.68506" lon="23.35703">
        <ele>633.365741</ele>
        <time>2022-03-09T13:02:10.431Z</time>
      </trkpt>
      <trkpt lat="42.68511" lon="23.35687">
        <ele>633.479513</ele>
        <time>2022-03-09T13:02:13.445Z</time>
      </trkpt>
      <trkpt lat="42.68514" lon="23.35675">
        <ele>633.432057</ele>
        <time>2022-03-09T13:02:16.437Z</time>
      </trkpt>
      <trkpt lat="42.68518" lon="23.3566">
        <ele>633.375446</ele>
        <time>2022-03-09T13:02:19.472Z</time>
      </trkpt>
      <trkpt lat="42.68522" lon="23.35646">
        <ele>633.321163</ele>
        <time>2022-03-09T13:02:22.449Z</time>
      </trkpt>
      <trkpt lat="42.68527" lon="23.35632">
        <ele>633.267796</ele>
        <time>2022-03-09T13:02:25.445Z</time>
      </trkpt>
      <trkpt lat="42.68532" lon="23.35619">
        <ele>633.215253</ele>
        <time>2022-03-09T13:02:28.435Z</time>
      </trkpt>
      <trkpt lat="42.68534" lon="23.35607">
        <ele>633.169416</ele>
        <time>2022-03-09T13:02:30.427Z</time>
      </trkpt>
      <trkpt lat="42.68537" lon="23.35594">
        <ele>633.122771</ele>
        <time>2022-03-09T13:02:32.434Z</time>
      </trkpt>
      <trkpt lat="42.6854" lon="23.35579">
        <ele>633.066201</ele>
        <time>2022-03-09T13:02:35.439Z</time>
      </trkpt>
      <trkpt lat="42.68545" lon="23.35568">
        <ele>633.021816</ele>
        <time>2022-03-09T13:02:37.455Z</time>
      </trkpt>
      <trkpt lat="42.68551" lon="23.35554">
        <ele>632.964182</ele>
        <time>2022-03-09T13:02:40.435Z</time>
      </trkpt>
      <trkpt lat="42.68558" lon="23.35545">
        <ele>632.91964</ele>
        <time>2022-03-09T13:02:42.425Z</time>
      </trkpt>
      <trkpt lat="42.68563" lon="23.35536">
        <ele>632.87637</ele>
        <time>2022-03-09T13:02:44.443Z</time>
      </trkpt>
      <trkpt lat="42.68569" lon="23.35521">
        <ele>632.816778</ele>
        <time>2022-03-09T13:02:47.444Z</time>
      </trkpt>
      <trkpt lat="42.68573" lon="23.3551">
        <ele>632.772801</ele>
        <time>2022-03-09T13:02:49.432Z</time>
      </trkpt>
      <trkpt lat="42.6858" lon="23.35498">
        <ele>632.719885</ele>
        <time>2022-03-09T13:02:51.431Z</time>
      </trkpt>
      <trkpt lat="42.68587" lon="23.35487">
        <ele>632.668801</ele>
        <time>2022-03-09T13:02:53.465Z</time>
      </trkpt>
      <trkpt lat="42.68592" lon="23.35475">
        <ele>632.587361</ele>
        <time>2022-03-09T13:02:55.465Z</time>
      </trkpt>
      <trkpt lat="42.68596" lon="23.35463">
        <ele>632.07311</ele>
        <time>2022-03-09T13:02:57.434Z</time>
      </trkpt>
      <trkpt lat="42.686" lon="23.35451">
        <ele>631.558931</ele>
        <time>2022-03-09T13:02:59.389Z</time>
      </trkpt>
      <trkpt lat="42.68605" lon="23.3544">
        <ele>631.056431</ele>
        <time>2022-03-09T13:03:01.430Z</time>
      </trkpt>
      <trkpt lat="42.68609" lon="23.35428">
        <ele>630.550506</ele>
        <time>2022-03-09T13:03:03.427Z</time>
      </trkpt>
      <trkpt lat="42.68616" lon="23.35415">
        <ele>629.926979</ele>
        <time>2022-03-09T13:03:05.453Z</time>
      </trkpt>
      <trkpt lat="42.68623" lon="23.35402">
        <ele>629.303315</ele>
        <time>2022-03-09T13:03:07.467Z</time>
      </trkpt>
      <trkpt lat="42.68628" lon="23.3539">
        <ele>628.780277</ele>
        <time>2022-03-09T13:03:09.447Z</time>
      </trkpt>
      <trkpt lat="42.68633" lon="23.35373">
        <ele>628.095563</ele>
        <time>2022-03-09T13:03:12.421Z</time>
      </trkpt>
      <trkpt lat="42.68635" lon="23.35356">
        <ele>627.430888</ele>
        <time>2022-03-09T13:03:15.446Z</time>
      </trkpt>
      <trkpt lat="42.68641" lon="23.35342">
        <ele>626.796936</ele>
        <time>2022-03-09T13:03:18.427Z</time>
      </trkpt>
      <trkpt lat="42.68648" lon="23.35328">
        <ele>626.135824</ele>
        <time>2022-03-09T13:03:21.434Z</time>
      </trkpt>
      <trkpt lat="42.68656" lon="23.35315">
        <ele>625.507557</ele>
        <time>2022-03-09T13:03:23.434Z</time>
      </trkpt>
      <trkpt lat="42.68663" lon="23.35304">
        <ele>624.924322</ele>
        <time>2022-03-09T13:03:25.431Z</time>
      </trkpt>
      <trkpt lat="42.68669" lon="23.35294">
        <ele>624.449678</ele>
        <time>2022-03-09T13:03:27.477Z</time>
      </trkpt>
      <trkpt lat="42.68673" lon="23.35283">
        <ele>623.939786</ele>
        <time>2022-03-09T13:03:29.458Z</time>
      </trkpt>
      <trkpt lat="42.68679" lon="23.35271">
        <ele>623.41516</ele>
        <time>2022-03-09T13:03:31.463Z</time>
      </trkpt>
      <trkpt lat="42.68685" lon="23.35261">
        <ele>622.500619</ele>
        <time>2022-03-09T13:03:33.493Z</time>
      </trkpt>
      <trkpt lat="42.68689" lon="23.35247">
        <ele>621.116759</ele>
        <time>2022-03-09T13:03:36.420Z</time>
      </trkpt>
      <trkpt lat="42.68694" lon="23.35235">
        <ele>619.842743</ele>
        <time>2022-03-09T13:03:41.447Z</time>
      </trkpt>
      <trkpt lat="42.68702" lon="23.35213">
        <ele>617.495552</ele>
        <time>2022-03-09T13:04:56.481Z</time>
      </trkpt>
      <trkpt lat="42.687" lon="23.35197">
        <ele>616.01456</ele>
        <time>2022-03-09T13:05:01.426Z</time>
      </trkpt>
      <trkpt lat="42.68693" lon="23.35184">
        <ele>614.548965</ele>
        <time>2022-03-09T13:05:04.439Z</time>
      </trkpt>
      <trkpt lat="42.68686" lon="23.3517">
        <ele>612.977911</ele>
        <time>2022-03-09T13:05:07.411Z</time>
      </trkpt>
      <trkpt lat="42.68676" lon="23.35159">
        <ele>611.352597</ele>
        <time>2022-03-09T13:05:10.405Z</time>
      </trkpt>
      <trkpt lat="42.68666" lon="23.35149">
        <ele>609.801633</ele>
        <time>2022-03-09T13:05:13.426Z</time>
      </trkpt>
      <trkpt lat="42.68656" lon="23.35139">
        <ele>608.239605</ele>
        <time>2022-03-09T13:05:16.442Z</time>
      </trkpt>
      <trkpt lat="42.68646" lon="23.35129">
        <ele>606.714458</ele>
        <time>2022-03-09T13:05:19.484Z</time>
      </trkpt>
      <trkpt lat="42.68638" lon="23.35119">
        <ele>605.323643</ele>
        <time>2022-03-09T13:05:22.428Z</time>
      </trkpt>
      <trkpt lat="42.6863" lon="23.35111">
        <ele>604.060165</ele>
        <time>2022-03-09T13:05:25.454Z</time>
      </trkpt>
      <trkpt lat="42.68623" lon="23.351">
        <ele>602.718385</ele>
        <time>2022-03-09T13:05:28.427Z</time>
      </trkpt>
      <trkpt lat="42.68617" lon="23.35088">
        <ele>601.320151</ele>
        <time>2022-03-09T13:05:31.438Z</time>
      </trkpt>
      <trkpt lat="42.6861" lon="23.35076">
        <ele>600.562008</ele>
        <time>2022-03-09T13:05:34.438Z</time>
      </trkpt>
      <trkpt lat="42.68602" lon="23.35066">
        <ele>600.725756</ele>
        <time>2022-03-09T13:05:37.428Z</time>
      </trkpt>
      <trkpt lat="42.68594" lon="23.35055">
        <ele>600.883157</ele>
        <time>2022-03-09T13:05:40.467Z</time>
      </trkpt>
      <trkpt lat="42.68587" lon="23.35045">
        <ele>601.03903</ele>
        <time>2022-03-09T13:05:43.429Z</time>
      </trkpt>
      <trkpt lat="42.68587" lon="23.35029">
        <ele>601.211738</ele>
        <time>2022-03-09T13:05:46.417Z</time>
      </trkpt>
      <trkpt lat="42.68591" lon="23.35017">
        <ele>601.349594</ele>
        <time>2022-03-09T13:05:48.430Z</time>
      </trkpt>
      <trkpt lat="42.68596" lon="23.35007">
        <ele>601.480298</ele>
        <time>2022-03-09T13:05:50.475Z</time>
      </trkpt>
      <trkpt lat="42.68603" lon="23.34992">
        <ele>601.668505</ele>
        <time>2022-03-09T13:05:53.437Z</time>
      </trkpt>
      <trkpt lat="42.68608" lon="23.34981">
        <ele>601.805355</ele>
        <time>2022-03-09T13:05:55.428Z</time>
      </trkpt>
      <trkpt lat="42.68613" lon="23.34969">
        <ele>601.954919</ele>
        <time>2022-03-09T13:05:57.427Z</time>
      </trkpt>
      <trkpt lat="42.68621" lon="23.34955">
        <ele>602.139661</ele>
        <time>2022-03-09T13:05:59.427Z</time>
      </trkpt>
      <trkpt lat="42.68629" lon="23.34944">
        <ele>602.303404</ele>
        <time>2022-03-09T13:06:01.431Z</time>
      </trkpt>
      <trkpt lat="42.68636" lon="23.34934">
        <ele>602.447308</ele>
        <time>2022-03-09T13:06:03.427Z</time>
      </trkpt>
      <trkpt lat="42.68642" lon="23.34921">
        <ele>602.615806</ele>
        <time>2022-03-09T13:06:05.440Z</time>
      </trkpt>
      <trkpt lat="42.68647" lon="23.34907">
        <ele>602.786213</ele>
        <time>2022-03-09T13:06:07.446Z</time>
      </trkpt>
      <trkpt lat="42.68653" lon="23.34894">
        <ele>602.94548</ele>
        <time>2022-03-09T13:06:09.422Z</time>
      </trkpt>
      <trkpt lat="42.68659" lon="23.34885">
        <ele>603.079156</ele>
        <time>2022-03-09T13:06:11.462Z</time>
      </trkpt>
      <trkpt lat="42.68668" lon="23.34877">
        <ele>603.158744</ele>
        <time>2022-03-09T13:06:15.430Z</time>
      </trkpt>
      <trkpt lat="42.68675" lon="23.34868">
        <ele>603.212411</ele>
        <time>2022-03-09T13:06:18.435Z</time>
      </trkpt>
      <trkpt lat="42.68682" lon="23.34859">
        <ele>603.265321</ele>
        <time>2022-03-09T13:06:21.440Z</time>
      </trkpt>
      <trkpt lat="42.68688" lon="23.34847">
        <ele>603.32999</ele>
        <time>2022-03-09T13:06:25.453Z</time>
      </trkpt>
      <trkpt lat="42.68692" lon="23.34833">
        <ele>603.389937</ele>
        <time>2022-03-09T13:06:28.433Z</time>
      </trkpt>
      <trkpt lat="42.68699" lon="23.34823">
        <ele>603.450495</ele>
        <time>2022-03-09T13:06:33.418Z</time>
      </trkpt>
      <trkpt lat="42.68707" lon="23.34812">
        <ele>603.513033</ele>
        <time>2022-03-09T13:06:38.449Z</time>
      </trkpt>
      <trkpt lat="42.68713" lon="23.34802">
        <ele>603.567196</ele>
        <time>2022-03-09T13:06:42.439Z</time>
      </trkpt>
      <trkpt lat="42.68718" lon="23.34793">
        <ele>603.618683</ele>
        <time>2022-03-09T13:06:46.437Z</time>
      </trkpt>
      <trkpt lat="42.68725" lon="23.34783">
        <ele>603.673377</ele>
        <time>2022-03-09T13:06:50.463Z</time>
      </trkpt>
      <trkpt lat="42.68731" lon="23.34773">
        <ele>603.727647</ele>
        <time>2022-03-09T13:06:54.465Z</time>
      </trkpt>
      <trkpt lat="42.68736" lon="23.34763">
        <ele>603.780141</ele>
        <time>2022-03-09T13:06:58.421Z</time>
      </trkpt>
      <trkpt lat="42.68739" lon="23.34751">
        <ele>603.832233</ele>
        <time>2022-03-09T13:07:01.458Z</time>
      </trkpt>
      <trkpt lat="42.68744" lon="23.34739">
        <ele>603.888157</ele>
        <time>2022-03-09T13:07:05.453Z</time>
      </trkpt>
      <trkpt lat="42.6875" lon="23.3473">
        <ele>603.940775</ele>
        <time>2022-03-09T13:07:09.413Z</time>
      </trkpt>
      <trkpt lat="42.68758" lon="23.34722">
        <ele>603.997771</ele>
        <time>2022-03-09T13:07:14.463Z</time>
      </trkpt>
      <trkpt lat="42.68763" lon="23.34708">
        <ele>604.062017</ele>
        <time>2022-03-09T13:07:18.449Z</time>
      </trkpt>
      <trkpt lat="42.68771" lon="23.34699">
        <ele>604.12031</ele>
        <time>2022-03-09T13:07:22.444Z</time>
      </trkpt>
      <trkpt lat="42.68781" lon="23.34692">
        <ele>604.559394</ele>
        <time>2022-03-09T13:07:27.478Z</time>
      </trkpt>
      <trkpt lat="42.68789" lon="23.3468">
        <ele>605.14649</ele>
        <time>2022-03-09T13:07:31.441Z</time>
      </trkpt>
      <trkpt lat="42.68795" lon="23.34667">
        <ele>605.695474</ele>
        <time>2022-03-09T13:07:35.439Z</time>
      </trkpt>
      <trkpt lat="42.68803" lon="23.34658">
        <ele>606.189472</ele>
        <time>2022-03-09T13:07:39.461Z</time>
      </trkpt>
      <trkpt lat="42.68809" lon="23.34646">
        <ele>606.715757</ele>
        <time>2022-03-09T13:07:44.427Z</time>
      </trkpt>
      <trkpt lat="42.68813" lon="23.34633">
        <ele>607.216387</ele>
        <time>2022-03-09T13:07:48.429Z</time>
      </trkpt>
      <trkpt lat="42.68818" lon="23.34622">
        <ele>607.691184</ele>
        <time>2022-03-09T13:07:52.423Z</time>
      </trkpt>
      <trkpt lat="42.68823" lon="23.34609">
        <ele>608.216744</ele>
        <time>2022-03-09T13:07:56.438Z</time>
      </trkpt>
      <trkpt lat="42.68829" lon="23.34596">
        <ele>608.755568</ele>
        <time>2022-03-09T13:08:00.436Z</time>
      </trkpt>
      <trkpt lat="42.68836" lon="23.34585">
        <ele>609.315022</ele>
        <time>2022-03-09T13:08:04.439Z</time>
      </trkpt>
      <trkpt lat="42.68846" lon="23.34581">
        <ele>609.793222</ele>
        <time>2022-03-09T13:08:09.453Z</time>
      </trkpt>
      <trkpt lat="42.6885" lon="23.34592">
        <ele>610.252435</ele>
        <time>2022-03-09T13:08:15.428Z</time>
      </trkpt>
      <trkpt lat="42.68853" lon="23.34604">
        <ele>610.694991</ele>
        <time>2022-03-09T13:08:22.450Z</time>
      </trkpt>
      <trkpt lat="42.68862" lon="23.34611">
        <ele>611.216625</ele>
        <time>2022-03-09T13:08:26.452Z</time>
      </trkpt>
      <trkpt lat="42.6887" lon="23.3462">
        <ele>611.737726</ele>
        <time>2022-03-09T13:08:30.451Z</time>
      </trkpt>
      <trkpt lat="42.68879" lon="23.34623">
        <ele>612.201554</ele>
        <time>2022-03-09T13:08:34.483Z</time>
      </trkpt>
      <trkpt lat="42.68889" lon="23.34628">
        <ele>612.700558</ele>
        <time>2022-03-09T13:08:41.461Z</time>
      </trkpt>
      <trkpt lat="42.68896" lon="23.34639">
        <ele>612.801586</ele>
        <time>2022-03-09T13:08:46.441Z</time>
      </trkpt>
      <trkpt lat="42.68904" lon="23.34645">
        <ele>612.537758</ele>
        <time>2022-03-09T13:08:51.426Z</time>
      </trkpt>
      <trkpt lat="42.68909" lon="23.34657">
        <ele>612.262736</ele>
        <time>2022-03-09T13:08:56.418Z</time>
      </trkpt>
      <trkpt lat="42.68916" lon="23.34665">
        <ele>612.008894</ele>
        <time>2022-03-09T13:09:00.419Z</time>
      </trkpt>
      <trkpt lat="42.68925" lon="23.34671">
        <ele>611.717757</ele>
        <time>2022-03-09T13:09:05.418Z</time>
      </trkpt>
      <trkpt lat="42.68934" lon="23.34678">
        <ele>611.414081</ele>
        <time>2022-03-09T13:09:10.411Z</time>
      </trkpt>
      <trkpt lat="42.68944" lon="23.3467">
        <ele>611.101913</ele>
        <time>2022-03-09T13:09:15.417Z</time>
      </trkpt>
      <trkpt lat="42.68951" lon="23.34659">
        <ele>610.792838</ele>
        <time>2022-03-09T13:09:19.422Z</time>
      </trkpt>
      <trkpt lat="42.68958" lon="23.34649">
        <ele>610.500552</ele>
        <time>2022-03-09T13:09:23.433Z</time>
      </trkpt>
      <trkpt lat="42.68966" lon="23.3464">
        <ele>610.227452</ele>
        <time>2022-03-09T13:09:26.453Z</time>
      </trkpt>
      <trkpt lat="42.68972" lon="23.34631">
        <ele>609.957599</ele>
        <time>2022-03-09T13:09:29.439Z</time>
      </trkpt>
      <trkpt lat="42.68979" lon="23.3462">
        <ele>609.657589</ele>
        <time>2022-03-09T13:09:32.433Z</time>
      </trkpt>
      <trkpt lat="42.68985" lon="23.34606">
        <ele>609.341285</ele>
        <time>2022-03-09T13:09:35.430Z</time>
      </trkpt>
      <trkpt lat="42.68991" lon="23.34591">
        <ele>608.975001</ele>
        <time>2022-03-09T13:09:39.481Z</time>
      </trkpt>
      <trkpt lat="42.68998" lon="23.34578">
        <ele>608.644285</ele>
        <time>2022-03-09T13:09:42.429Z</time>
      </trkpt>
      <trkpt lat="42.69003" lon="23.34568">
        <ele>608.388695</ele>
        <time>2022-03-09T13:09:45.441Z</time>
      </trkpt>
      <trkpt lat="42.6901" lon="23.34558">
        <ele>608.118525</ele>
        <time>2022-03-09T13:09:49.441Z</time>
      </trkpt>
      <trkpt lat="42.69011" lon="23.34545">
        <ele>607.794775</ele>
        <time>2022-03-09T13:09:54.420Z</time>
      </trkpt>
      <trkpt lat="42.69002" lon="23.34535">
        <ele>607.188993</ele>
        <time>2022-03-09T13:09:59.419Z</time>
      </trkpt>
      <trkpt lat="42.68996" lon="23.34525">
        <ele>606.681387</ele>
        <time>2022-03-09T13:10:03.424Z</time>
      </trkpt>
      <trkpt lat="42.68987" lon="23.34517">
        <ele>606.081755</ele>
        <time>2022-03-09T13:10:08.433Z</time>
      </trkpt>
      <trkpt lat="42.68979" lon="23.34508">
        <ele>605.516533</ele>
        <time>2022-03-09T13:10:13.419Z</time>
      </trkpt>
      <trkpt lat="42.68971" lon="23.34501">
        <ele>605.026648</ele>
        <time>2022-03-09T13:10:17.414Z</time>
      </trkpt>
      <trkpt lat="42.68964" lon="23.34491">
        <ele>604.493158</ele>
        <time>2022-03-09T13:10:21.460Z</time>
      </trkpt>
      <trkpt lat="42.68957" lon="23.34482">
        <ele>603.937324</ele>
        <time>2022-03-09T13:10:25.432Z</time>
      </trkpt>
      <trkpt lat="42.68948" lon="23.34475">
        <ele>603.405559</ele>
        <time>2022-03-09T13:10:29.432Z</time>
      </trkpt>
      <trkpt lat="42.68942" lon="23.34465">
        <ele>602.883652</ele>
        <time>2022-03-09T13:10:33.442Z</time>
      </trkpt>
      <trkpt lat="42.68933" lon="23.34459">
        <ele>602.352872</ele>
        <time>2022-03-09T13:10:38.438Z</time>
      </trkpt>
      <trkpt lat="42.68925" lon="23.3445">
        <ele>601.810232</ele>
        <time>2022-03-09T13:10:43.507Z</time>
      </trkpt>
      <trkpt lat="42.68916" lon="23.34444">
        <ele>601.26071</ele>
        <time>2022-03-09T13:10:48.440Z</time>
      </trkpt>
      <trkpt lat="42.68912" lon="23.34432">
        <ele>600.709427</ele>
        <time>2022-03-09T13:10:54.423Z</time>
      </trkpt>
      <trkpt lat="42.68912" lon="23.34419">
        <ele>600.189481</ele>
        <time>2022-03-09T13:10:58.412Z</time>
      </trkpt>
      <trkpt lat="42.68915" lon="23.34406">
        <ele>599.679387</ele>
        <time>2022-03-09T13:11:03.431Z</time>
      </trkpt>
      <trkpt lat="42.68918" lon="23.34391">
        <ele>599.071645</ele>
        <time>2022-03-09T13:11:08.442Z</time>
      </trkpt>
      <trkpt lat="42.68923" lon="23.3438">
        <ele>598.525202</ele>
        <time>2022-03-09T13:11:12.428Z</time>
      </trkpt>
      <trkpt lat="42.68928" lon="23.34366">
        <ele>598.439736</ele>
        <time>2022-03-09T13:11:16.414Z</time>
      </trkpt>
      <trkpt lat="42.68931" lon="23.34352">
        <ele>598.952227</ele>
        <time>2022-03-09T13:11:19.407Z</time>
      </trkpt>
      <trkpt lat="42.68939" lon="23.34341">
        <ele>599.494934</ele>
        <time>2022-03-09T13:11:23.417Z</time>
      </trkpt>
      <trkpt lat="42.68945" lon="23.3433">
        <ele>599.982791</ele>
        <time>2022-03-09T13:11:31.414Z</time>
      </trkpt>
      <trkpt lat="42.68948" lon="23.34317">
        <ele>600.438612</ele>
        <time>2022-03-09T13:11:35.418Z</time>
      </trkpt>
      <trkpt lat="42.68951" lon="23.34304">
        <ele>600.931305</ele>
        <time>2022-03-09T13:11:39.408Z</time>
      </trkpt>
      <trkpt lat="42.68954" lon="23.34291">
        <ele>601.405089</ele>
        <time>2022-03-09T13:11:44.437Z</time>
      </trkpt>
      <trkpt lat="42.68957" lon="23.34278">
        <ele>601.881129</ele>
        <time>2022-03-09T13:11:47.419Z</time>
      </trkpt>
      <trkpt lat="42.68959" lon="23.34264">
        <ele>602.408439</ele>
        <time>2022-03-09T13:11:51.420Z</time>
      </trkpt>
      <trkpt lat="42.68964" lon="23.34253">
        <ele>602.859002</ele>
        <time>2022-03-09T13:11:54.424Z</time>
      </trkpt>
      <trkpt lat="42.68971" lon="23.34241">
        <ele>603.369249</ele>
        <time>2022-03-09T13:11:58.436Z</time>
      </trkpt>
      <trkpt lat="42.68978" lon="23.3423">
        <ele>603.904755</ele>
        <time>2022-03-09T13:12:03.438Z</time>
      </trkpt>
      <trkpt lat="42.6898" lon="23.34218">
        <ele>604.337541</ele>
        <time>2022-03-09T13:12:06.423Z</time>
      </trkpt>
      <trkpt lat="42.68985" lon="23.34206">
        <ele>604.836618</ele>
        <time>2022-03-09T13:12:11.433Z</time>
      </trkpt>
      <trkpt lat="42.68988" lon="23.3419">
        <ele>605.379007</ele>
        <time>2022-03-09T13:12:15.461Z</time>
      </trkpt>
      <trkpt lat="42.68992" lon="23.34179">
        <ele>605.842249</ele>
        <time>2022-03-09T13:12:19.437Z</time>
      </trkpt>
      <trkpt lat="42.69" lon="23.34165">
        <ele>606.454916</ele>
        <time>2022-03-09T13:12:23.427Z</time>
      </trkpt>
      <trkpt lat="42.69002" lon="23.34153">
        <ele>606.881137</ele>
        <time>2022-03-09T13:12:28.473Z</time>
      </trkpt>
      <trkpt lat="42.69002" lon="23.34138">
        <ele>607.35182</ele>
        <time>2022-03-09T13:12:33.433Z</time>
      </trkpt>
      <trkpt lat="42.69003" lon="23.34126">
        <ele>607.738052</ele>
        <time>2022-03-09T13:12:37.420Z</time>
      </trkpt>
      <trkpt lat="42.69004" lon="23.34113">
        <ele>608.13976</ele>
        <time>2022-03-09T13:12:43.413Z</time>
      </trkpt>
      <trkpt lat="42.69007" lon="23.341">
        <ele>608.563235</ele>
        <time>2022-03-09T13:12:47.418Z</time>
      </trkpt>
      <trkpt lat="42.69012" lon="23.34086">
        <ele>609.045829</ele>
        <time>2022-03-09T13:12:51.459Z</time>
      </trkpt>
      <trkpt lat="42.69015" lon="23.34071">
        <ele>609.527483</ele>
        <time>2022-03-09T13:12:55.458Z</time>
      </trkpt>
      <trkpt lat="42.6902" lon="23.34059">
        <ele>609.945493</ele>
        <time>2022-03-09T13:13:00.434Z</time>
      </trkpt>
      <trkpt lat="42.69021" lon="23.34045">
        <ele>610.38084</ele>
        <time>2022-03-09T13:13:04.460Z</time>
      </trkpt>
      <trkpt lat="42.69023" lon="23.34033">
        <ele>610.77047</ele>
        <time>2022-03-09T13:13:07.447Z</time>
      </trkpt>
      <trkpt lat="42.69025" lon="23.34019">
        <ele>611.210476</ele>
        <time>2022-03-09T13:13:10.420Z</time>
      </trkpt>
      <trkpt lat="42.69028" lon="23.34006">
        <ele>611.649479</ele>
        <time>2022-03-09T13:13:15.412Z</time>
      </trkpt>
      <trkpt lat="42.69031" lon="23.33993">
        <ele>612.050481</ele>
        <time>2022-03-09T13:13:22.421Z</time>
      </trkpt>
      <trkpt lat="42.6903" lon="23.33979">
        <ele>612.49866</ele>
        <time>2022-03-09T13:13:28.424Z</time>
      </trkpt>
      <trkpt lat="42.69028" lon="23.33967">
        <ele>612.891846</ele>
        <time>2022-03-09T13:13:34.424Z</time>
      </trkpt>
      <trkpt lat="42.69028" lon="23.33952">
        <ele>613.340788</ele>
        <time>2022-03-09T13:13:39.403Z</time>
      </trkpt>
      <trkpt lat="42.69028" lon="23.33936">
        <ele>613.839685</ele>
        <time>2022-03-09T13:13:43.415Z</time>
      </trkpt>
      <trkpt lat="42.69032" lon="23.33925">
        <ele>614.233432</ele>
        <time>2022-03-09T13:13:48.457Z</time>
      </trkpt>
      <trkpt lat="42.69033" lon="23.33911">
        <ele>613.550918</ele>
        <time>2022-03-09T13:13:53.407Z</time>
      </trkpt>
      <trkpt lat="42.69035" lon="23.33898">
        <ele>612.178202</ele>
        <time>2022-03-09T13:13:58.428Z</time>
      </trkpt>
      <trkpt lat="42.69039" lon="23.33885">
        <ele>610.552492</ele>
        <time>2022-03-09T13:14:03.460Z</time>
      </trkpt>
      <trkpt lat="42.69042" lon="23.3387">
        <ele>608.848148</ele>
        <time>2022-03-09T13:14:07.428Z</time>
      </trkpt>
      <trkpt lat="42.69046" lon="23.33856">
        <ele>607.177849</ele>
        <time>2022-03-09T13:14:10.425Z</time>
      </trkpt>
      <trkpt lat="42.69046" lon="23.33841">
        <ele>605.470462</ele>
        <time>2022-03-09T13:14:14.447Z</time>
      </trkpt>
      <trkpt lat="42.69047" lon="23.33828">
        <ele>604.004473</ele>
        <time>2022-03-09T13:14:18.428Z</time>
      </trkpt>
      <trkpt lat="42.69052" lon="23.33814">
        <ele>602.318575</ele>
        <time>2022-03-09T13:14:23.465Z</time>
      </trkpt>
      <trkpt lat="42.69058" lon="23.33804">
        <ele>600.794672</ele>
        <time>2022-03-09T13:14:26.433Z</time>
      </trkpt>
      <trkpt lat="42.69064" lon="23.33791">
        <ele>599.098692</ele>
        <time>2022-03-09T13:14:29.427Z</time>
      </trkpt>
      <trkpt lat="42.69069" lon="23.33777">
        <ele>597.339384</ele>
        <time>2022-03-09T13:14:32.421Z</time>
      </trkpt>
      <trkpt lat="42.69075" lon="23.33764">
        <ele>595.656521</ele>
        <time>2022-03-09T13:14:35.435Z</time>
      </trkpt>
      <trkpt lat="42.69081" lon="23.33752">
        <ele>594.037962</ele>
        <time>2022-03-09T13:14:39.488Z</time>
      </trkpt>
      <trkpt lat="42.69085" lon="23.3374">
        <ele>592.639228</ele>
        <time>2022-03-09T13:14:44.436Z</time>
      </trkpt>
      <trkpt lat="42.69075" lon="23.33717">
        <ele>589.684841</ele>
        <time>2022-03-09T13:15:07.439Z</time>
      </trkpt>
      <trkpt lat="42.6907" lon="23.33707">
        <ele>588.264321</ele>
        <time>2022-03-09T13:15:10.433Z</time>
      </trkpt>
      <trkpt lat="42.69065" lon="23.33695">
        <ele>587.123195</ele>
        <time>2022-03-09T13:15:13.435Z</time>
      </trkpt>
      <trkpt lat="42.69059" lon="23.33684">
        <ele>587.044459</ele>
        <time>2022-03-09T13:15:16.448Z</time>
      </trkpt>
      <trkpt lat="42.69052" lon="23.33673">
        <ele>586.965577</ele>
        <time>2022-03-09T13:15:19.468Z</time>
      </trkpt>
      <trkpt lat="42.69045" lon="23.33662">
        <ele>586.886371</ele>
        <time>2022-03-09T13:15:22.430Z</time>
      </trkpt>
      <trkpt lat="42.69037" lon="23.3365">
        <ele>586.79827</ele>
        <time>2022-03-09T13:15:26.466Z</time>
      </trkpt>
      <trkpt lat="42.69031" lon="23.33638">
        <ele>586.71417</ele>
        <time>2022-03-09T13:15:29.472Z</time>
      </trkpt>
      <trkpt lat="42.69023" lon="23.33625">
        <ele>586.621008</ele>
        <time>2022-03-09T13:15:32.443Z</time>
      </trkpt>
      <trkpt lat="42.69015" lon="23.33611">
        <ele>586.525242</ele>
        <time>2022-03-09T13:15:35.433Z</time>
      </trkpt>
      <trkpt lat="42.69007" lon="23.33599">
        <ele>586.43281</ele>
        <time>2022-03-09T13:15:38.433Z</time>
      </trkpt>
      <trkpt lat="42.68999" lon="23.33587">
        <ele>586.345018</ele>
        <time>2022-03-09T13:15:41.440Z</time>
      </trkpt>
      <trkpt lat="42.68991" lon="23.33576">
        <ele>586.259505</ele>
        <time>2022-03-09T13:15:44.468Z</time>
      </trkpt>
      <trkpt lat="42.68984" lon="23.33566">
        <ele>586.17809</ele>
        <time>2022-03-09T13:15:47.451Z</time>
      </trkpt>
      <trkpt lat="42.68977" lon="23.33555">
        <ele>586.098454</ele>
        <time>2022-03-09T13:15:50.443Z</time>
      </trkpt>
      <trkpt lat="42.68971" lon="23.33544">
        <ele>586.023428</ele>
        <time>2022-03-09T13:15:53.452Z</time>
      </trkpt>
      <trkpt lat="42.68964" lon="23.33535">
        <ele>585.954028</ele>
        <time>2022-03-09T13:15:56.438Z</time>
      </trkpt>
      <trkpt lat="42.68957" lon="23.33526">
        <ele>585.873281</ele>
        <time>2022-03-09T13:16:00.454Z</time>
      </trkpt>
      <trkpt lat="42.6895" lon="23.33516">
        <ele>585.80174</ele>
        <time>2022-03-09T13:16:05.449Z</time>
      </trkpt>
      <trkpt lat="42.68945" lon="23.33505">
        <ele>585.737833</ele>
        <time>2022-03-09T13:16:11.432Z</time>
      </trkpt>
      <trkpt lat="42.68938" lon="23.33495">
        <ele>585.674922</ele>
        <time>2022-03-09T13:16:15.431Z</time>
      </trkpt>
      <trkpt lat="42.68933" lon="23.33484">
        <ele>585.611798</ele>
        <time>2022-03-09T13:16:18.433Z</time>
      </trkpt>
      <trkpt lat="42.68924" lon="23.33473">
        <ele>585.537062</ele>
        <time>2022-03-09T13:16:21.427Z</time>
      </trkpt>
      <trkpt lat="42.68916" lon="23.33462">
        <ele>585.464001</ele>
        <time>2022-03-09T13:16:24.429Z</time>
      </trkpt>
      <trkpt lat="42.68909" lon="23.33451">
        <ele>585.394974</ele>
        <time>2022-03-09T13:16:27.449Z</time>
      </trkpt>
      <trkpt lat="42.68903" lon="23.3344">
        <ele>585.331227</ele>
        <time>2022-03-09T13:16:30.435Z</time>
      </trkpt>
      <trkpt lat="42.68896" lon="23.3343">
        <ele>585.268045</ele>
        <time>2022-03-09T13:16:33.452Z</time>
      </trkpt>
      <trkpt lat="42.6889" lon="23.3342">
        <ele>585.203098</ele>
        <time>2022-03-09T13:16:36.440Z</time>
      </trkpt>
      <trkpt lat="42.68883" lon="23.3341">
        <ele>585.142797</ele>
        <time>2022-03-09T13:16:39.473Z</time>
      </trkpt>
      <trkpt lat="42.68878" lon="23.33399">
        <ele>585.080744</ele>
        <time>2022-03-09T13:16:42.459Z</time>
      </trkpt>
      <trkpt lat="42.68877" lon="23.33386">
        <ele>585.019427</ele>
        <time>2022-03-09T13:16:45.419Z</time>
      </trkpt>
      <trkpt lat="42.68881" lon="23.33374">
        <ele>584.957774</ele>
        <time>2022-03-09T13:16:48.451Z</time>
      </trkpt>
      <trkpt lat="42.68887" lon="23.33363">
        <ele>584.893515</ele>
        <time>2022-03-09T13:16:51.453Z</time>
      </trkpt>
      <trkpt lat="42.68891" lon="23.33351">
        <ele>584.832821</ele>
        <time>2022-03-09T13:16:54.437Z</time>
      </trkpt>
      <trkpt lat="42.68897" lon="23.33341">
        <ele>584.771564</ele>
        <time>2022-03-09T13:16:57.455Z</time>
      </trkpt>
      <trkpt lat="42.68901" lon="23.33329">
        <ele>584.708235</ele>
        <time>2022-03-09T13:17:00.464Z</time>
      </trkpt>
      <trkpt lat="42.68907" lon="23.33318">
        <ele>584.648119</ele>
        <time>2022-03-09T13:17:03.445Z</time>
      </trkpt>
      <trkpt lat="42.68912" lon="23.33307">
        <ele>585.026576</ele>
        <time>2022-03-09T13:17:06.431Z</time>
      </trkpt>
      <trkpt lat="42.6892" lon="23.33297">
        <ele>585.562512</ele>
        <time>2022-03-09T13:17:09.434Z</time>
      </trkpt>
      <trkpt lat="42.68928" lon="23.33288">
        <ele>586.141811</ele>
        <time>2022-03-09T13:17:12.464Z</time>
      </trkpt>
      <trkpt lat="42.68934" lon="23.33278">
        <ele>586.617758</ele>
        <time>2022-03-09T13:17:15.442Z</time>
      </trkpt>
      <trkpt lat="42.68941" lon="23.33267">
        <ele>587.153787</ele>
        <time>2022-03-09T13:17:18.463Z</time>
      </trkpt>
      <trkpt lat="42.68946" lon="23.33256">
        <ele>587.678676</ele>
        <time>2022-03-09T13:17:21.449Z</time>
      </trkpt>
      <trkpt lat="42.68953" lon="23.33242">
        <ele>588.305639</ele>
        <time>2022-03-09T13:17:25.441Z</time>
      </trkpt>
      <trkpt lat="42.68959" lon="23.33233">
        <ele>588.783941</ele>
        <time>2022-03-09T13:17:28.442Z</time>
      </trkpt>
      <trkpt lat="42.68967" lon="23.3322">
        <ele>589.390537</ele>
        <time>2022-03-09T13:17:32.447Z</time>
      </trkpt>
      <trkpt lat="42.68975" lon="23.33209">
        <ele>589.981695</ele>
        <time>2022-03-09T13:17:36.436Z</time>
      </trkpt>
      <trkpt lat="42.68982" lon="23.33199">
        <ele>590.517229</ele>
        <time>2022-03-09T13:17:40.438Z</time>
      </trkpt>
      <trkpt lat="42.68985" lon="23.33185">
        <ele>591.08312</ele>
        <time>2022-03-09T13:17:45.428Z</time>
      </trkpt>
      <trkpt lat="42.6899" lon="23.33175">
        <ele>591.554501</ele>
        <time>2022-03-09T13:17:49.440Z</time>
      </trkpt>
      <trkpt lat="42.68999" lon="23.33168">
        <ele>592.065629</ele>
        <time>2022-03-09T13:17:54.461Z</time>
      </trkpt>
      <trkpt lat="42.69005" lon="23.33158">
        <ele>592.536785</ele>
        <time>2022-03-09T13:18:06.439Z</time>
      </trkpt>
      <trkpt lat="42.69009" lon="23.33145">
        <ele>593.095768</ele>
        <time>2022-03-09T13:18:10.454Z</time>
      </trkpt>
      <trkpt lat="42.69015" lon="23.33134">
        <ele>593.591246</ele>
        <time>2022-03-09T13:18:13.438Z</time>
      </trkpt>
      <trkpt lat="42.69022" lon="23.33122">
        <ele>593.922556</ele>
        <time>2022-03-09T13:18:16.437Z</time>
      </trkpt>
      <trkpt lat="42.69029" lon="23.3311">
        <ele>593.922556</ele>
        <time>2022-03-09T13:18:19.442Z</time>
      </trkpt>
      <trkpt lat="42.69037" lon="23.33101">
        <ele>593.922556</ele>
        <time>2022-03-09T13:18:22.432Z</time>
      </trkpt>
      <trkpt lat="42.69042" lon="23.33091">
        <ele>593.922556</ele>
        <time>2022-03-09T13:18:25.440Z</time>
      </trkpt>
      <trkpt lat="42.69048" lon="23.3308">
        <ele>593.922556</ele>
        <time>2022-03-09T13:18:28.438Z</time>
      </trkpt>
      <trkpt lat="42.69049" lon="23.33067">
        <ele>593.922556</ele>
        <time>2022-03-09T13:18:31.432Z</time>
      </trkpt>
      <trkpt lat="42.69052" lon="23.33055">
        <ele>593.922556</ele>
        <time>2022-03-09T13:18:34.436Z</time>
      </trkpt>
      <trkpt lat="42.69058" lon="23.33042">
        <ele>593.922556</ele>
        <time>2022-03-09T13:18:38.432Z</time>
      </trkpt>
      <trkpt lat="42.69063" lon="23.33031">
        <ele>593.922556</ele>
        <time>2022-03-09T13:18:42.464Z</time>
      </trkpt>
      <trkpt lat="42.69069" lon="23.33018">
        <ele>593.922556</ele>
        <time>2022-03-09T13:18:46.444Z</time>
      </trkpt>
      <trkpt lat="42.69075" lon="23.33005">
        <ele>593.922556</ele>
        <time>2022-03-09T13:18:50.445Z</time>
      </trkpt>
      <trkpt lat="42.6908" lon="23.32994">
        <ele>593.922556</ele>
        <time>2022-03-09T13:18:53.454Z</time>
      </trkpt>
      <trkpt lat="42.69087" lon="23.32985">
        <ele>593.922556</ele>
        <time>2022-03-09T13:18:56.427Z</time>
      </trkpt>
      <trkpt lat="42.69093" lon="23.32975">
        <ele>593.922556</ele>
        <time>2022-03-09T13:19:00.433Z</time>
      </trkpt>
      <trkpt lat="42.69097" lon="23.32961">
        <ele>593.922556</ele>
        <time>2022-03-09T13:19:05.431Z</time>
      </trkpt>
      <trkpt lat="42.69104" lon="23.32953">
        <ele>593.922556</ele>
        <time>2022-03-09T13:19:09.437Z</time>
      </trkpt>
      <trkpt lat="42.69113" lon="23.32953">
        <ele>593.922556</ele>
        <time>2022-03-09T13:19:13.424Z</time>
      </trkpt>
      <trkpt lat="42.69123" lon="23.32963">
        <ele>593.922556</ele>
        <time>2022-03-09T13:19:17.439Z</time>
      </trkpt>
      <trkpt lat="42.69131" lon="23.32974">
        <ele>593.922556</ele>
        <time>2022-03-09T13:19:21.409Z</time>
      </trkpt>
      <trkpt lat="42.69138" lon="23.32982">
        <ele>593.922556</ele>
        <time>2022-03-09T13:19:30.422Z</time>
      </trkpt>
      <trkpt lat="42.69142" lon="23.32978">
        <ele>593.922556</ele>
        <time>2022-03-09T13:19:56.965Z</time>
      </trkpt>
    </trkseg>
  </trk>
  <trk>
    <name><![CDATA[Tour d'Europe: étape 618]]></name>
    <extensions>
      <line xmlns="http://www.topografix.com/GPX/gpx_style/0/2">
        <color>FF0000</color>
        <width>4</width>
      </line>
    </extensions>
    <trkseg>
      <trkpt lat="42.51111" lon="24.18241">
        <ele>582.730514</ele>
        <time>2022-03-08T07:07:22.544Z</time>
      </trkpt>
      <trkpt lat="42.51125" lon="24.18243">
        <ele>582.730514</ele>
        <time>2022-03-08T07:07:24.506Z</time>
      </trkpt>
      <trkpt lat="42.51126" lon="24.18218">
        <ele>582.730514</ele>
        <time>2022-03-08T07:07:25.498Z</time>
      </trkpt>
      <trkpt lat="42.51123" lon="24.1824">
        <ele>582.730514</ele>
        <time>2022-03-08T07:07:26.475Z</time>
      </trkpt>
      <trkpt lat="42.51135" lon="24.18229">
        <ele>582.730514</ele>
        <time>2022-03-08T07:15:06.684Z</time>
      </trkpt>
      <trkpt lat="42.5114" lon="24.18203">
        <ele>582.730514</ele>
        <time>2022-03-08T07:15:26.679Z</time>
      </trkpt>
      <trkpt lat="42.51124" lon="24.18197">
        <ele>582.947845</ele>
        <time>2022-03-08T07:16:45.685Z</time>
      </trkpt>
      <trkpt lat="42.51113" lon="24.18193">
        <ele>583.210674</ele>
        <time>2022-03-08T07:16:48.682Z</time>
      </trkpt>
      <trkpt lat="42.511" lon="24.18188">
        <ele>583.483351</ele>
        <time>2022-03-08T07:16:51.716Z</time>
      </trkpt>
      <trkpt lat="42.51091" lon="24.18184">
        <ele>583.699126</ele>
        <time>2022-03-08T07:16:53.698Z</time>
      </trkpt>
      <trkpt lat="42.51079" lon="24.1818">
        <ele>583.950009</ele>
        <time>2022-03-08T07:16:55.679Z</time>
      </trkpt>
      <trkpt lat="42.51066" lon="24.18176">
        <ele>584.240133</ele>
        <time>2022-03-08T07:16:57.733Z</time>
      </trkpt>
      <trkpt lat="42.51053" lon="24.18173">
        <ele>584.528811</ele>
        <time>2022-03-08T07:16:59.676Z</time>
      </trkpt>
      <trkpt lat="42.51042" lon="24.18168">
        <ele>584.772695</ele>
        <time>2022-03-08T07:17:01.676Z</time>
      </trkpt>
      <trkpt lat="42.51031" lon="24.18162">
        <ele>585.022612</ele>
        <time>2022-03-08T07:17:03.697Z</time>
      </trkpt>
      <trkpt lat="42.51023" lon="24.18154">
        <ele>585.232202</ele>
        <time>2022-03-08T07:17:05.677Z</time>
      </trkpt>
      <trkpt lat="42.51015" lon="24.18148">
        <ele>585.431737</ele>
        <time>2022-03-08T07:17:07.688Z</time>
      </trkpt>
      <trkpt lat="42.51006" lon="24.18143">
        <ele>585.632329</ele>
        <time>2022-03-08T07:17:09.673Z</time>
      </trkpt>
      <trkpt lat="42.50998" lon="24.18137">
        <ele>585.835216</ele>
        <time>2022-03-08T07:17:11.687Z</time>
      </trkpt>
      <trkpt lat="42.50986" lon="24.18128">
        <ele>586.122638</ele>
        <time>2022-03-08T07:17:14.674Z</time>
      </trkpt>
      <trkpt lat="42.50974" lon="24.18121">
        <ele>586.402407</ele>
        <time>2022-03-08T07:17:17.687Z</time>
      </trkpt>
      <trkpt lat="42.50963" lon="24.18114">
        <ele>586.575586</ele>
        <time>2022-03-08T07:17:20.686Z</time>
      </trkpt>
      <trkpt lat="42.50954" lon="24.18106">
        <ele>586.578387</ele>
        <time>2022-03-08T07:17:23.688Z</time>
      </trkpt>
      <trkpt lat="42.50945" lon="24.18099">
        <ele>586.581187</ele>
        <time>2022-03-08T07:17:26.673Z</time>
      </trkpt>
      <trkpt lat="42.50935" lon="24.18091">
        <ele>586.584145</ele>
        <time>2022-03-08T07:17:29.704Z</time>
      </trkpt>
      <trkpt lat="42.50925" lon="24.18082">
        <ele>586.587445</ele>
        <time>2022-03-08T07:17:32.644Z</time>
      </trkpt>
      <trkpt lat="42.50914" lon="24.18072">
        <ele>586.590746</ele>
        <time>2022-03-08T07:17:35.672Z</time>
      </trkpt>
      <trkpt lat="42.50906" lon="24.18066">
        <ele>586.593247</ele>
        <time>2022-03-08T07:17:37.664Z</time>
      </trkpt>
      <trkpt lat="42.50897" lon="24.18059">
        <ele>586.595813</ele>
        <time>2022-03-08T07:17:39.666Z</time>
      </trkpt>
      <trkpt lat="42.50889" lon="24.18053">
        <ele>586.598289</ele>
        <time>2022-03-08T07:17:41.690Z</time>
      </trkpt>
      <trkpt lat="42.50881" lon="24.18047">
        <ele>586.600835</ele>
        <time>2022-03-08T07:17:43.711Z</time>
      </trkpt>
      <trkpt lat="42.50871" lon="24.18039">
        <ele>586.603858</ele>
        <time>2022-03-08T07:17:46.718Z</time>
      </trkpt>
      <trkpt lat="42.50863" lon="24.18031">
        <ele>586.606488</ele>
        <time>2022-03-08T07:17:49.683Z</time>
      </trkpt>
      <trkpt lat="42.50853" lon="24.18021">
        <ele>586.609557</ele>
        <time>2022-03-08T07:17:53.705Z</time>
      </trkpt>
      <trkpt lat="42.50844" lon="24.1801">
        <ele>586.612768</ele>
        <time>2022-03-08T07:17:57.689Z</time>
      </trkpt>
      <trkpt lat="42.50836" lon="24.18003">
        <ele>586.615395</ele>
        <time>2022-03-08T07:18:00.705Z</time>
      </trkpt>
      <trkpt lat="42.50828" lon="24.17995">
        <ele>586.617951</ele>
        <time>2022-03-08T07:18:03.698Z</time>
      </trkpt>
      <trkpt lat="42.5082" lon="24.17986">
        <ele>586.620617</ele>
        <time>2022-03-08T07:18:06.695Z</time>
      </trkpt>
      <trkpt lat="42.50811" lon="24.17978">
        <ele>586.671417</ele>
        <time>2022-03-08T07:18:09.709Z</time>
      </trkpt>
      <trkpt lat="42.50802" lon="24.1797">
        <ele>586.757205</ele>
        <time>2022-03-08T07:18:12.700Z</time>
      </trkpt>
      <trkpt lat="42.50793" lon="24.17961">
        <ele>586.839212</ele>
        <time>2022-03-08T07:18:15.704Z</time>
      </trkpt>
      <trkpt lat="42.50785" lon="24.17952">
        <ele>586.921686</ele>
        <time>2022-03-08T07:18:18.714Z</time>
      </trkpt>
      <trkpt lat="42.50776" lon="24.17944">
        <ele>587.003988</ele>
        <time>2022-03-08T07:18:21.696Z</time>
      </trkpt>
      <trkpt lat="42.50766" lon="24.17936">
        <ele>587.087917</ele>
        <time>2022-03-08T07:18:24.704Z</time>
      </trkpt>
      <trkpt lat="42.50757" lon="24.17928">
        <ele>587.175275</ele>
        <time>2022-03-08T07:18:27.726Z</time>
      </trkpt>
      <trkpt lat="42.50749" lon="24.17919">
        <ele>587.252654</ele>
        <time>2022-03-08T07:18:30.699Z</time>
      </trkpt>
      <trkpt lat="42.5074" lon="24.17911">
        <ele>587.335584</ele>
        <time>2022-03-08T07:18:33.710Z</time>
      </trkpt>
      <trkpt lat="42.50731" lon="24.17903">
        <ele>587.420423</ele>
        <time>2022-03-08T07:18:36.690Z</time>
      </trkpt>
      <trkpt lat="42.50722" lon="24.17895">
        <ele>587.501511</ele>
        <time>2022-03-08T07:18:39.705Z</time>
      </trkpt>
      <trkpt lat="42.50713" lon="24.17886">
        <ele>587.585714</ele>
        <time>2022-03-08T07:18:42.717Z</time>
      </trkpt>
      <trkpt lat="42.50704" lon="24.17877">
        <ele>587.672686</ele>
        <time>2022-03-08T07:18:45.685Z</time>
      </trkpt>
      <trkpt lat="42.50695" lon="24.17868">
        <ele>587.752572</ele>
        <time>2022-03-08T07:18:48.697Z</time>
      </trkpt>
      <trkpt lat="42.50687" lon="24.1786">
        <ele>587.829878</ele>
        <time>2022-03-08T07:18:51.690Z</time>
      </trkpt>
      <trkpt lat="42.50686" lon="24.17845">
        <ele>587.91392</ele>
        <time>2022-03-08T07:18:55.692Z</time>
      </trkpt>
      <trkpt lat="42.50693" lon="24.17834">
        <ele>587.992534</ele>
        <time>2022-03-08T07:18:58.718Z</time>
      </trkpt>
      <trkpt lat="42.50697" lon="24.1782">
        <ele>588.146257</ele>
        <time>2022-03-08T07:19:02.678Z</time>
      </trkpt>
      <trkpt lat="42.50696" lon="24.17805">
        <ele>588.3036</ele>
        <time>2022-03-08T07:19:06.734Z</time>
      </trkpt>
      <trkpt lat="42.50694" lon="24.17791">
        <ele>588.456459</ele>
        <time>2022-03-08T07:19:10.682Z</time>
      </trkpt>
      <trkpt lat="42.50693" lon="24.17777">
        <ele>588.601544</ele>
        <time>2022-03-08T07:19:14.699Z</time>
      </trkpt>
      <trkpt lat="42.50691" lon="24.17763">
        <ele>588.751131</ele>
        <time>2022-03-08T07:19:18.689Z</time>
      </trkpt>
      <trkpt lat="42.50689" lon="24.1775">
        <ele>588.887808</ele>
        <time>2022-03-08T07:19:22.705Z</time>
      </trkpt>
      <trkpt lat="42.50687" lon="24.17736">
        <ele>589.030848</ele>
        <time>2022-03-08T07:19:26.784Z</time>
      </trkpt>
      <trkpt lat="42.50685" lon="24.17724">
        <ele>589.16545</ele>
        <time>2022-03-08T07:19:29.688Z</time>
      </trkpt>
      <trkpt lat="42.50684" lon="24.17709">
        <ele>589.317166</ele>
        <time>2022-03-08T07:19:33.677Z</time>
      </trkpt>
      <trkpt lat="42.50682" lon="24.17694">
        <ele>589.475563</ele>
        <time>2022-03-08T07:19:37.696Z</time>
      </trkpt>
      <trkpt lat="42.5068" lon="24.1768">
        <ele>589.629363</ele>
        <time>2022-03-08T07:19:41.703Z</time>
      </trkpt>
      <trkpt lat="42.50679" lon="24.17666">
        <ele>589.769924</ele>
        <time>2022-03-08T07:19:45.692Z</time>
      </trkpt>
      <trkpt lat="42.50678" lon="24.17652">
        <ele>589.916952</ele>
        <time>2022-03-08T07:19:49.676Z</time>
      </trkpt>
      <trkpt lat="42.50672" lon="24.17641">
        <ele>590.059681</ele>
        <time>2022-03-08T07:19:53.686Z</time>
      </trkpt>
      <trkpt lat="42.50671" lon="24.17628">
        <ele>590.194693</ele>
        <time>2022-03-08T07:19:57.702Z</time>
      </trkpt>
      <trkpt lat="42.50668" lon="24.17616">
        <ele>590.326547</ele>
        <time>2022-03-08T07:20:00.671Z</time>
      </trkpt>
      <trkpt lat="42.50661" lon="24.17606">
        <ele>590.460461</ele>
        <time>2022-03-08T07:20:03.677Z</time>
      </trkpt>
      <trkpt lat="42.50655" lon="24.17596">
        <ele>590.767117</ele>
        <time>2022-03-08T07:20:06.682Z</time>
      </trkpt>
      <trkpt lat="42.50648" lon="24.17586">
        <ele>591.224708</ele>
        <time>2022-03-08T07:20:10.728Z</time>
      </trkpt>
      <trkpt lat="42.50644" lon="24.17575">
        <ele>591.641938</ele>
        <time>2022-03-08T07:20:14.697Z</time>
      </trkpt>
      <trkpt lat="42.50636" lon="24.17562">
        <ele>592.174942</ele>
        <time>2022-03-08T07:20:18.721Z</time>
      </trkpt>
      <trkpt lat="42.50629" lon="24.1755">
        <ele>592.676616</ele>
        <time>2022-03-08T07:20:22.698Z</time>
      </trkpt>
      <trkpt lat="42.50622" lon="24.17539">
        <ele>593.165605</ele>
        <time>2022-03-08T07:20:26.699Z</time>
      </trkpt>
      <trkpt lat="42.50616" lon="24.1753">
        <ele>593.588865</ele>
        <time>2022-03-08T07:20:29.713Z</time>
      </trkpt>
      <trkpt lat="42.50607" lon="24.17522">
        <ele>594.082074</ele>
        <time>2022-03-08T07:20:33.686Z</time>
      </trkpt>
      <trkpt lat="42.50599" lon="24.17511">
        <ele>594.561669</ele>
        <time>2022-03-08T07:20:37.698Z</time>
      </trkpt>
      <trkpt lat="42.50591" lon="24.17501">
        <ele>595.078332</ele>
        <time>2022-03-08T07:20:41.719Z</time>
      </trkpt>
      <trkpt lat="42.50583" lon="24.17494">
        <ele>595.515636</ele>
        <time>2022-03-08T07:20:44.698Z</time>
      </trkpt>
      <trkpt lat="42.50573" lon="24.17485">
        <ele>596.051677</ele>
        <time>2022-03-08T07:20:48.693Z</time>
      </trkpt>
      <trkpt lat="42.50566" lon="24.17476">
        <ele>596.482449</ele>
        <time>2022-03-08T07:20:51.703Z</time>
      </trkpt>
      <trkpt lat="42.50558" lon="24.17469">
        <ele>596.893564</ele>
        <time>2022-03-08T07:20:54.695Z</time>
      </trkpt>
      <trkpt lat="42.50551" lon="24.17462">
        <ele>597.298868</ele>
        <time>2022-03-08T07:20:57.681Z</time>
      </trkpt>
      <trkpt lat="42.50542" lon="24.17451">
        <ele>597.8305</ele>
        <time>2022-03-08T07:21:01.700Z</time>
      </trkpt>
      <trkpt lat="42.50535" lon="24.17443">
        <ele>598.261319</ele>
        <time>2022-03-08T07:21:04.680Z</time>
      </trkpt>
      <trkpt lat="42.50528" lon="24.1743">
        <ele>598.433369</ele>
        <time>2022-03-08T07:21:08.679Z</time>
      </trkpt>
      <trkpt lat="42.50518" lon="24.17422">
        <ele>597.793783</ele>
        <time>2022-03-08T07:21:11.744Z</time>
      </trkpt>
      <trkpt lat="42.50508" lon="24.17415">
        <ele>597.153735</ele>
        <time>2022-03-08T07:21:14.673Z</time>
      </trkpt>
      <trkpt lat="42.50498" lon="24.17406">
        <ele>596.481817</ele>
        <time>2022-03-08T07:21:17.679Z</time>
      </trkpt>
      <trkpt lat="42.5049" lon="24.17398">
        <ele>595.902046</ele>
        <time>2022-03-08T07:21:20.750Z</time>
      </trkpt>
      <trkpt lat="42.50482" lon="24.17389">
        <ele>595.330934</ele>
        <time>2022-03-08T07:21:23.684Z</time>
      </trkpt>
      <trkpt lat="42.50475" lon="24.17379">
        <ele>594.743916</ele>
        <time>2022-03-08T07:21:26.703Z</time>
      </trkpt>
      <trkpt lat="42.50467" lon="24.1737">
        <ele>594.136253</ele>
        <time>2022-03-08T07:21:29.697Z</time>
      </trkpt>
      <trkpt lat="42.50459" lon="24.17359">
        <ele>593.484696</ele>
        <time>2022-03-08T07:21:32.689Z</time>
      </trkpt>
      <trkpt lat="42.5045" lon="24.17348">
        <ele>592.787702</ele>
        <time>2022-03-08T07:21:35.720Z</time>
      </trkpt>
      <trkpt lat="42.50439" lon="24.17337">
        <ele>592.019749</ele>
        <time>2022-03-08T07:21:38.698Z</time>
      </trkpt>
      <trkpt lat="42.50432" lon="24.17329">
        <ele>591.48468</ele>
        <time>2022-03-08T07:21:40.710Z</time>
      </trkpt>
      <trkpt lat="42.50424" lon="24.17321">
        <ele>590.927014</ele>
        <time>2022-03-08T07:21:42.675Z</time>
      </trkpt>
      <trkpt lat="42.50417" lon="24.17312">
        <ele>590.34589</ele>
        <time>2022-03-08T07:21:44.690Z</time>
      </trkpt>
      <trkpt lat="42.50411" lon="24.173">
        <ele>589.738419</ele>
        <time>2022-03-08T07:21:46.686Z</time>
      </trkpt>
      <trkpt lat="42.50408" lon="24.17287">
        <ele>589.1871</ele>
        <time>2022-03-08T07:21:48.690Z</time>
      </trkpt>
      <trkpt lat="42.50407" lon="24.17274">
        <ele>588.632166</ele>
        <time>2022-03-08T07:21:50.698Z</time>
      </trkpt>
      <trkpt lat="42.50406" lon="24.17261">
        <ele>588.432874</ele>
        <time>2022-03-08T07:21:52.675Z</time>
      </trkpt>
      <trkpt lat="42.50404" lon="24.17245">
        <ele>588.602159</ele>
        <time>2022-03-08T07:21:55.686Z</time>
      </trkpt>
      <trkpt lat="42.50402" lon="24.17229">
        <ele>588.759737</ele>
        <time>2022-03-08T07:21:58.696Z</time>
      </trkpt>
      <trkpt lat="42.504" lon="24.17214">
        <ele>588.922528</ele>
        <time>2022-03-08T07:22:01.776Z</time>
      </trkpt>
      <trkpt lat="42.50398" lon="24.17198">
        <ele>589.091759</ele>
        <time>2022-03-08T07:22:04.690Z</time>
      </trkpt>
      <trkpt lat="42.50395" lon="24.17181">
        <ele>589.264063</ele>
        <time>2022-03-08T07:22:07.732Z</time>
      </trkpt>
      <trkpt lat="42.50392" lon="24.17165">
        <ele>589.43771</ele>
        <time>2022-03-08T07:22:10.709Z</time>
      </trkpt>
      <trkpt lat="42.50391" lon="24.17149">
        <ele>589.594844</ele>
        <time>2022-03-08T07:22:13.695Z</time>
      </trkpt>
      <trkpt lat="42.5039" lon="24.17133">
        <ele>589.759684</ele>
        <time>2022-03-08T07:22:16.698Z</time>
      </trkpt>
      <trkpt lat="42.50391" lon="24.17119">
        <ele>589.906159</ele>
        <time>2022-03-08T07:22:19.734Z</time>
      </trkpt>
      <trkpt lat="42.50393" lon="24.17107">
        <ele>590.034567</ele>
        <time>2022-03-08T07:22:22.679Z</time>
      </trkpt>
      <trkpt lat="42.50396" lon="24.17092">
        <ele>590.193683</ele>
        <time>2022-03-08T07:22:26.691Z</time>
      </trkpt>
      <trkpt lat="42.50398" lon="24.17076">
        <ele>590.352381</ele>
        <time>2022-03-08T07:22:30.752Z</time>
      </trkpt>
      <trkpt lat="42.50398" lon="24.17062">
        <ele>590.498305</ele>
        <time>2022-03-08T07:22:34.700Z</time>
      </trkpt>
      <trkpt lat="42.50399" lon="24.17048">
        <ele>590.636307</ele>
        <time>2022-03-08T07:22:38.697Z</time>
      </trkpt>
      <trkpt lat="42.504" lon="24.17034">
        <ele>590.780195</ele>
        <time>2022-03-08T07:22:42.677Z</time>
      </trkpt>
      <trkpt lat="42.50401" lon="24.17021">
        <ele>590.890912</ele>
        <time>2022-03-08T07:22:46.729Z</time>
      </trkpt>
      <trkpt lat="42.50402" lon="24.17006">
        <ele>590.975129</ele>
        <time>2022-03-08T07:22:50.699Z</time>
      </trkpt>
      <trkpt lat="42.50402" lon="24.16992">
        <ele>591.057969</ele>
        <time>2022-03-08T07:22:54.700Z</time>
      </trkpt>
      <trkpt lat="42.50402" lon="24.16978">
        <ele>591.137804</ele>
        <time>2022-03-08T07:22:58.689Z</time>
      </trkpt>
      <trkpt lat="42.50404" lon="24.16963">
        <ele>591.222957</ele>
        <time>2022-03-08T07:23:03.704Z</time>
      </trkpt>
      <trkpt lat="42.50405" lon="24.1695">
        <ele>591.299171</ele>
        <time>2022-03-08T07:23:07.706Z</time>
      </trkpt>
      <trkpt lat="42.50406" lon="24.16936">
        <ele>591.380122</ele>
        <time>2022-03-08T07:23:11.689Z</time>
      </trkpt>
      <trkpt lat="42.50409" lon="24.16922">
        <ele>591.461437</ele>
        <time>2022-03-08T07:23:15.703Z</time>
      </trkpt>
      <trkpt lat="42.50412" lon="24.16908">
        <ele>591.548489</ele>
        <time>2022-03-08T07:23:19.687Z</time>
      </trkpt>
      <trkpt lat="42.50415" lon="24.16894">
        <ele>591.63216</ele>
        <time>2022-03-08T07:23:23.717Z</time>
      </trkpt>
      <trkpt lat="42.50418" lon="24.1688">
        <ele>591.713304</ele>
        <time>2022-03-08T07:23:27.715Z</time>
      </trkpt>
      <trkpt lat="42.5042" lon="24.16866">
        <ele>591.79916</ele>
        <time>2022-03-08T07:23:31.694Z</time>
      </trkpt>
      <trkpt lat="42.50423" lon="24.1685">
        <ele>591.889894</ele>
        <time>2022-03-08T07:23:35.733Z</time>
      </trkpt>
      <trkpt lat="42.50426" lon="24.16836">
        <ele>591.972656</ele>
        <time>2022-03-08T07:23:39.700Z</time>
      </trkpt>
      <trkpt lat="42.50428" lon="24.16822">
        <ele>592.057947</ele>
        <time>2022-03-08T07:23:43.716Z</time>
      </trkpt>
      <trkpt lat="42.50431" lon="24.16807">
        <ele>592.144958</ele>
        <time>2022-03-08T07:23:47.683Z</time>
      </trkpt>
      <trkpt lat="42.50433" lon="24.16792">
        <ele>592.235317</ele>
        <time>2022-03-08T07:23:51.700Z</time>
      </trkpt>
      <trkpt lat="42.50436" lon="24.16778">
        <ele>592.393161</ele>
        <time>2022-03-08T07:23:55.696Z</time>
      </trkpt>
      <trkpt lat="42.50439" lon="24.16763">
        <ele>592.575549</ele>
        <time>2022-03-08T07:23:59.703Z</time>
      </trkpt>
      <trkpt lat="42.50441" lon="24.16749">
        <ele>592.755347</ele>
        <time>2022-03-08T07:24:03.763Z</time>
      </trkpt>
      <trkpt lat="42.50443" lon="24.16735">
        <ele>592.931164</ele>
        <time>2022-03-08T07:24:07.695Z</time>
      </trkpt>
      <trkpt lat="42.50444" lon="24.16721">
        <ele>593.110308</ele>
        <time>2022-03-08T07:24:11.700Z</time>
      </trkpt>
      <trkpt lat="42.50447" lon="24.16707">
        <ele>593.287904</ele>
        <time>2022-03-08T07:24:15.694Z</time>
      </trkpt>
      <trkpt lat="42.5045" lon="24.16693">
        <ele>593.468294</ele>
        <time>2022-03-08T07:24:19.701Z</time>
      </trkpt>
      <trkpt lat="42.50452" lon="24.16679">
        <ele>593.643227</ele>
        <time>2022-03-08T07:24:23.712Z</time>
      </trkpt>
      <trkpt lat="42.50454" lon="24.16665">
        <ele>593.817833</ele>
        <time>2022-03-08T07:24:27.709Z</time>
      </trkpt>
      <trkpt lat="42.50456" lon="24.16651">
        <ele>593.988249</ele>
        <time>2022-03-08T07:24:31.688Z</time>
      </trkpt>
      <trkpt lat="42.50458" lon="24.16638">
        <ele>594.155273</ele>
        <time>2022-03-08T07:24:35.701Z</time>
      </trkpt>
      <trkpt lat="42.5046" lon="24.16624">
        <ele>594.327302</ele>
        <time>2022-03-08T07:24:39.713Z</time>
      </trkpt>
      <trkpt lat="42.50462" lon="24.16611">
        <ele>594.498584</ele>
        <time>2022-03-08T07:24:43.694Z</time>
      </trkpt>
      <trkpt lat="42.50464" lon="24.16597">
        <ele>594.666635</ele>
        <time>2022-03-08T07:24:47.743Z</time>
      </trkpt>
      <trkpt lat="42.50468" lon="24.16584">
        <ele>594.845361</ele>
        <time>2022-03-08T07:24:51.683Z</time>
      </trkpt>
      <trkpt lat="42.5047" lon="24.1657">
        <ele>595.019653</ele>
        <time>2022-03-08T07:24:55.697Z</time>
      </trkpt>
      <trkpt lat="42.50472" lon="24.16556">
        <ele>595.199266</ele>
        <time>2022-03-08T07:24:59.712Z</time>
      </trkpt>
      <trkpt lat="42.50475" lon="24.16542">
        <ele>595.499222</ele>
        <time>2022-03-08T07:25:03.685Z</time>
      </trkpt>
      <trkpt lat="42.50477" lon="24.16529">
        <ele>595.86</ele>
        <time>2022-03-08T07:25:07.712Z</time>
      </trkpt>
      <trkpt lat="42.50479" lon="24.16516">
        <ele>596.214845</ele>
        <time>2022-03-08T07:25:11.705Z</time>
      </trkpt>
      <trkpt lat="42.50482" lon="24.16503">
        <ele>596.570535</ele>
        <time>2022-03-08T07:25:15.694Z</time>
      </trkpt>
      <trkpt lat="42.50484" lon="24.16489">
        <ele>596.94404</ele>
        <time>2022-03-08T07:25:19.711Z</time>
      </trkpt>
      <trkpt lat="42.50487" lon="24.16477">
        <ele>597.290077</ele>
        <time>2022-03-08T07:25:23.711Z</time>
      </trkpt>
      <trkpt lat="42.50488" lon="24.16463">
        <ele>597.645503</ele>
        <time>2022-03-08T07:25:27.705Z</time>
      </trkpt>
      <trkpt lat="42.5049" lon="24.1645">
        <ele>598.014001</ele>
        <time>2022-03-08T07:25:31.720Z</time>
      </trkpt>
      <trkpt lat="42.50493" lon="24.16435">
        <ele>598.402093</ele>
        <time>2022-03-08T07:25:35.699Z</time>
      </trkpt>
      <trkpt lat="42.50495" lon="24.16422">
        <ele>598.773117</ele>
        <time>2022-03-08T07:25:39.693Z</time>
      </trkpt>
      <trkpt lat="42.50499" lon="24.1641">
        <ele>599.121676</ele>
        <time>2022-03-08T07:25:43.725Z</time>
      </trkpt>
      <trkpt lat="42.50503" lon="24.16398">
        <ele>599.460504</ele>
        <time>2022-03-08T07:25:47.694Z</time>
      </trkpt>
      <trkpt lat="42.50507" lon="24.16385">
        <ele>599.840162</ele>
        <time>2022-03-08T07:25:52.700Z</time>
      </trkpt>
      <trkpt lat="42.50511" lon="24.16372">
        <ele>600.222943</ele>
        <time>2022-03-08T07:25:57.707Z</time>
      </trkpt>
      <trkpt lat="42.50515" lon="24.16359">
        <ele>600.583847</ele>
        <time>2022-03-08T07:26:02.703Z</time>
      </trkpt>
      <trkpt lat="42.50518" lon="24.16347">
        <ele>600.931306</ele>
        <time>2022-03-08T07:26:07.692Z</time>
      </trkpt>
      <trkpt lat="42.50522" lon="24.16334">
        <ele>601.304689</ele>
        <time>2022-03-08T07:26:12.706Z</time>
      </trkpt>
      <trkpt lat="42.50526" lon="24.16321">
        <ele>601.6574</ele>
        <time>2022-03-08T07:26:17.693Z</time>
      </trkpt>
      <trkpt lat="42.50529" lon="24.16309">
        <ele>601.969184</ele>
        <time>2022-03-08T07:26:22.698Z</time>
      </trkpt>
      <trkpt lat="42.50532" lon="24.16296">
        <ele>602.294787</ele>
        <time>2022-03-08T07:26:27.723Z</time>
      </trkpt>
      <trkpt lat="42.50536" lon="24.16284">
        <ele>602.615815</ele>
        <time>2022-03-08T07:26:32.707Z</time>
      </trkpt>
      <trkpt lat="42.5054" lon="24.16271">
        <ele>602.942591</ele>
        <time>2022-03-08T07:26:37.691Z</time>
      </trkpt>
      <trkpt lat="42.50543" lon="24.16257">
        <ele>603.2762</ele>
        <time>2022-03-08T07:26:42.700Z</time>
      </trkpt>
      <trkpt lat="42.50546" lon="24.16245">
        <ele>603.585784</ele>
        <time>2022-03-08T07:26:47.699Z</time>
      </trkpt>
      <trkpt lat="42.50548" lon="24.16233">
        <ele>603.886318</ele>
        <time>2022-03-08T07:26:52.719Z</time>
      </trkpt>
      <trkpt lat="42.50551" lon="24.1622">
        <ele>604.191</ele>
        <time>2022-03-08T07:26:57.710Z</time>
      </trkpt>
      <trkpt lat="42.50554" lon="24.16207">
        <ele>604.512806</ele>
        <time>2022-03-08T07:27:02.699Z</time>
      </trkpt>
      <trkpt lat="42.50556" lon="24.16194">
        <ele>604.827807</ele>
        <time>2022-03-08T07:27:07.710Z</time>
      </trkpt>
      <trkpt lat="42.50558" lon="24.16181">
        <ele>605.144527</ele>
        <time>2022-03-08T07:27:12.714Z</time>
      </trkpt>
      <trkpt lat="42.5056" lon="24.16167">
        <ele>605.477515</ele>
        <time>2022-03-08T07:27:17.696Z</time>
      </trkpt>
      <trkpt lat="42.50562" lon="24.16154">
        <ele>605.780485</ele>
        <time>2022-03-08T07:27:22.751Z</time>
      </trkpt>
      <trkpt lat="42.50563" lon="24.16141">
        <ele>606.108265</ele>
        <time>2022-03-08T07:27:27.687Z</time>
      </trkpt>
      <trkpt lat="42.50565" lon="24.16127">
        <ele>606.431428</ele>
        <time>2022-03-08T07:27:32.688Z</time>
      </trkpt>
      <trkpt lat="42.50566" lon="24.16115">
        <ele>606.725574</ele>
        <time>2022-03-08T07:27:37.692Z</time>
      </trkpt>
      <trkpt lat="42.50567" lon="24.16102">
        <ele>607.041337</ele>
        <time>2022-03-08T07:27:42.697Z</time>
      </trkpt>
      <trkpt lat="42.50568" lon="24.16088">
        <ele>607.373195</ele>
        <time>2022-03-08T07:27:47.692Z</time>
      </trkpt>
      <trkpt lat="42.5057" lon="24.16075">
        <ele>607.496043</ele>
        <time>2022-03-08T07:27:51.707Z</time>
      </trkpt>
      <trkpt lat="42.50572" lon="24.16062">
        <ele>607.506089</ele>
        <time>2022-03-08T07:27:55.718Z</time>
      </trkpt>
      <trkpt lat="42.50574" lon="24.16049">
        <ele>607.516323</ele>
        <time>2022-03-08T07:27:59.709Z</time>
      </trkpt>
      <trkpt lat="42.50575" lon="24.16037">
        <ele>607.526069</ele>
        <time>2022-03-08T07:28:03.707Z</time>
      </trkpt>
      <trkpt lat="42.50577" lon="24.16024">
        <ele>607.535948</ele>
        <time>2022-03-08T07:28:07.699Z</time>
      </trkpt>
      <trkpt lat="42.50578" lon="24.16011">
        <ele>607.545742</ele>
        <time>2022-03-08T07:28:11.700Z</time>
      </trkpt>
      <trkpt lat="42.5058" lon="24.15998">
        <ele>607.556219</ele>
        <time>2022-03-08T07:28:15.702Z</time>
      </trkpt>
      <trkpt lat="42.50581" lon="24.15985">
        <ele>607.5659</ele>
        <time>2022-03-08T07:28:19.693Z</time>
      </trkpt>
      <trkpt lat="42.50582" lon="24.15972">
        <ele>607.575718</ele>
        <time>2022-03-08T07:28:23.679Z</time>
      </trkpt>
      <trkpt lat="42.50584" lon="24.15959">
        <ele>607.585687</ele>
        <time>2022-03-08T07:28:27.697Z</time>
      </trkpt>
      <trkpt lat="42.50585" lon="24.15946">
        <ele>607.595508</ele>
        <time>2022-03-08T07:28:31.710Z</time>
      </trkpt>
      <trkpt lat="42.50586" lon="24.15933">
        <ele>607.605419</ele>
        <time>2022-03-08T07:28:35.703Z</time>
      </trkpt>
      <trkpt lat="42.50588" lon="24.15921">
        <ele>607.615321</ele>
        <time>2022-03-08T07:28:39.753Z</time>
      </trkpt>
      <trkpt lat="42.5059" lon="24.15908">
        <ele>607.625277</ele>
        <time>2022-03-08T07:28:43.711Z</time>
      </trkpt>
      <trkpt lat="42.50592" lon="24.15896">
        <ele>607.634631</ele>
        <time>2022-03-08T07:28:47.700Z</time>
      </trkpt>
      <trkpt lat="42.50593" lon="24.15883">
        <ele>607.644312</ele>
        <time>2022-03-08T07:28:51.701Z</time>
      </trkpt>
      <trkpt lat="42.50595" lon="24.15869">
        <ele>607.655293</ele>
        <time>2022-03-08T07:28:56.706Z</time>
      </trkpt>
      <trkpt lat="42.50598" lon="24.15855">
        <ele>607.666624</ele>
        <time>2022-03-08T07:29:01.716Z</time>
      </trkpt>
      <trkpt lat="42.506" lon="24.15842">
        <ele>607.67854</ele>
        <time>2022-03-08T07:29:05.704Z</time>
      </trkpt>
      <trkpt lat="42.50602" lon="24.15829">
        <ele>607.772499</ele>
        <time>2022-03-08T07:29:09.696Z</time>
      </trkpt>
      <trkpt lat="42.50604" lon="24.15815">
        <ele>607.873026</ele>
        <time>2022-03-08T07:29:13.704Z</time>
      </trkpt>
      <trkpt lat="42.50606" lon="24.15801">
        <ele>607.971699</ele>
        <time>2022-03-08T07:29:17.696Z</time>
      </trkpt>
      <trkpt lat="42.50607" lon="24.15788">
        <ele>608.062132</ele>
        <time>2022-03-08T07:29:21.698Z</time>
      </trkpt>
      <trkpt lat="42.50609" lon="24.15775">
        <ele>608.153674</ele>
        <time>2022-03-08T07:29:25.717Z</time>
      </trkpt>
      <trkpt lat="42.50611" lon="24.15762">
        <ele>608.243393</ele>
        <time>2022-03-08T07:29:29.760Z</time>
      </trkpt>
      <trkpt lat="42.50614" lon="24.15748">
        <ele>608.3394</ele>
        <time>2022-03-08T07:29:33.718Z</time>
      </trkpt>
      <trkpt lat="42.50617" lon="24.15736">
        <ele>608.42844</ele>
        <time>2022-03-08T07:29:37.701Z</time>
      </trkpt>
      <trkpt lat="42.50619" lon="24.15722">
        <ele>608.525091</ele>
        <time>2022-03-08T07:29:41.705Z</time>
      </trkpt>
      <trkpt lat="42.50621" lon="24.15709">
        <ele>608.619931</ele>
        <time>2022-03-08T07:29:45.716Z</time>
      </trkpt>
      <trkpt lat="42.50624" lon="24.15695">
        <ele>608.719226</ele>
        <time>2022-03-08T07:29:49.704Z</time>
      </trkpt>
      <trkpt lat="42.50626" lon="24.15681">
        <ele>608.815622</ele>
        <time>2022-03-08T07:29:53.708Z</time>
      </trkpt>
      <trkpt lat="42.50628" lon="24.15667">
        <ele>608.912905</ele>
        <time>2022-03-08T07:29:57.692Z</time>
      </trkpt>
      <trkpt lat="42.5063" lon="24.15654">
        <ele>609.008012</ele>
        <time>2022-03-08T07:30:01.702Z</time>
      </trkpt>
      <trkpt lat="42.50632" lon="24.15642">
        <ele>609.09329</ele>
        <time>2022-03-08T07:30:05.695Z</time>
      </trkpt>
      <trkpt lat="42.50634" lon="24.15628">
        <ele>609.193041</ele>
        <time>2022-03-08T07:30:10.693Z</time>
      </trkpt>
      <trkpt lat="42.50637" lon="24.15614">
        <ele>609.292337</ele>
        <time>2022-03-08T07:30:15.681Z</time>
      </trkpt>
      <trkpt lat="42.50639" lon="24.15599">
        <ele>609.549822</ele>
        <time>2022-03-08T07:30:20.698Z</time>
      </trkpt>
      <trkpt lat="42.50642" lon="24.15585">
        <ele>610.062555</ele>
        <time>2022-03-08T07:30:25.704Z</time>
      </trkpt>
      <trkpt lat="42.50644" lon="24.15572">
        <ele>610.540143</ele>
        <time>2022-03-08T07:30:30.735Z</time>
      </trkpt>
      <trkpt lat="42.50646" lon="24.15558">
        <ele>611.025808</ele>
        <time>2022-03-08T07:30:35.704Z</time>
      </trkpt>
      <trkpt lat="42.5065" lon="24.15546">
        <ele>611.465657</ele>
        <time>2022-03-08T07:30:40.700Z</time>
      </trkpt>
      <trkpt lat="42.50653" lon="24.15533">
        <ele>611.960235</ele>
        <time>2022-03-08T07:30:46.700Z</time>
      </trkpt>
      <trkpt lat="42.50656" lon="24.15521">
        <ele>612.396814</ele>
        <time>2022-03-08T07:30:51.692Z</time>
      </trkpt>
      <trkpt lat="42.5066" lon="24.1551">
        <ele>612.830421</ele>
        <time>2022-03-08T07:30:56.695Z</time>
      </trkpt>
      <trkpt lat="42.50665" lon="24.15497">
        <ele>613.341302</ele>
        <time>2022-03-08T07:31:02.701Z</time>
      </trkpt>
      <trkpt lat="42.5067" lon="24.15487">
        <ele>613.774054</ele>
        <time>2022-03-08T07:31:07.683Z</time>
      </trkpt>
      <trkpt lat="42.50675" lon="24.15476">
        <ele>614.249843</ele>
        <time>2022-03-08T07:31:13.681Z</time>
      </trkpt>
      <trkpt lat="42.50679" lon="24.15465">
        <ele>614.684809</ele>
        <time>2022-03-08T07:31:18.704Z</time>
      </trkpt>
      <trkpt lat="42.50683" lon="24.15453">
        <ele>615.123497</ele>
        <time>2022-03-08T07:31:22.696Z</time>
      </trkpt>
      <trkpt lat="42.50687" lon="24.15441">
        <ele>615.601967</ele>
        <time>2022-03-08T07:31:27.698Z</time>
      </trkpt>
      <trkpt lat="42.5069" lon="24.15428">
        <ele>616.074781</ele>
        <time>2022-03-08T07:31:33.705Z</time>
      </trkpt>
      <trkpt lat="42.50696" lon="24.15416">
        <ele>616.571997</ele>
        <time>2022-03-08T07:31:39.694Z</time>
      </trkpt>
      <trkpt lat="42.507" lon="24.15405">
        <ele>617.006962</ele>
        <time>2022-03-08T07:31:44.712Z</time>
      </trkpt>
      <trkpt lat="42.50704" lon="24.15392">
        <ele>617.499677</ele>
        <time>2022-03-08T07:31:50.717Z</time>
      </trkpt>
      <trkpt lat="42.50707" lon="24.1538">
        <ele>617.964786</ele>
        <time>2022-03-08T07:31:56.695Z</time>
      </trkpt>
      <trkpt lat="42.5071" lon="24.15367">
        <ele>618.472632</ele>
        <time>2022-03-08T07:32:03.716Z</time>
      </trkpt>
      <trkpt lat="42.50713" lon="24.15355">
        <ele>618.952815</ele>
        <time>2022-03-08T07:32:09.709Z</time>
      </trkpt>
      <trkpt lat="42.50715" lon="24.15343">
        <ele>619.443314</ele>
        <time>2022-03-08T07:32:15.695Z</time>
      </trkpt>
      <trkpt lat="42.50718" lon="24.1533">
        <ele>619.964834</ele>
        <time>2022-03-08T07:32:21.745Z</time>
      </trkpt>
      <trkpt lat="42.5072" lon="24.15317">
        <ele>620.466929</ele>
        <time>2022-03-08T07:32:27.703Z</time>
      </trkpt>
      <trkpt lat="42.50722" lon="24.15304">
        <ele>620.991728</ele>
        <time>2022-03-08T07:32:33.695Z</time>
      </trkpt>
      <trkpt lat="42.50724" lon="24.15291">
        <ele>621.481188</ele>
        <time>2022-03-08T07:32:40.699Z</time>
      </trkpt>
      <trkpt lat="42.50726" lon="24.15279">
        <ele>621.96511</ele>
        <time>2022-03-08T07:32:47.702Z</time>
      </trkpt>
      <trkpt lat="42.50729" lon="24.15267">
        <ele>622.442042</ele>
        <time>2022-03-08T07:32:53.696Z</time>
      </trkpt>
      <trkpt lat="42.50732" lon="24.15256">
        <ele>622.917808</ele>
        <time>2022-03-08T07:32:59.698Z</time>
      </trkpt>
      <trkpt lat="42.50735" lon="24.15244">
        <ele>623.415131</ele>
        <time>2022-03-08T07:33:05.734Z</time>
      </trkpt>
      <trkpt lat="42.50737" lon="24.15231">
        <ele>623.905054</ele>
        <time>2022-03-08T07:33:11.701Z</time>
      </trkpt>
      <trkpt lat="42.5074" lon="24.15218">
        <ele>624.442345</ele>
        <time>2022-03-08T07:33:18.701Z</time>
      </trkpt>
      <trkpt lat="42.50742" lon="24.15205">
        <ele>624.963465</ele>
        <time>2022-03-08T07:33:25.695Z</time>
      </trkpt>
      <trkpt lat="42.50744" lon="24.15192">
        <ele>625.445885</ele>
        <time>2022-03-08T07:33:31.695Z</time>
      </trkpt>
      <trkpt lat="42.50748" lon="24.1518">
        <ele>625.95894</ele>
        <time>2022-03-08T07:33:37.703Z</time>
      </trkpt>
      <trkpt lat="42.5075" lon="24.15167">
        <ele>626.451482</ele>
        <time>2022-03-08T07:33:43.697Z</time>
      </trkpt>
      <trkpt lat="42.50752" lon="24.15155">
        <ele>626.937705</ele>
        <time>2022-03-08T07:33:49.712Z</time>
      </trkpt>
      <trkpt lat="42.50755" lon="24.15142">
        <ele>627.475496</ele>
        <time>2022-03-08T07:33:55.695Z</time>
      </trkpt>
      <trkpt lat="42.50759" lon="24.15129">
        <ele>628.072823</ele>
        <time>2022-03-08T07:34:01.694Z</time>
      </trkpt>
      <trkpt lat="42.50762" lon="24.15116">
        <ele>628.646675</ele>
        <time>2022-03-08T07:34:07.695Z</time>
      </trkpt>
      <trkpt lat="42.50764" lon="24.15104">
        <ele>629.203033</ele>
        <time>2022-03-08T07:34:13.701Z</time>
      </trkpt>
      <trkpt lat="42.50767" lon="24.15092">
        <ele>629.727448</ele>
        <time>2022-03-08T07:34:19.709Z</time>
      </trkpt>
      <trkpt lat="42.50768" lon="24.1508">
        <ele>630.252429</ele>
        <time>2022-03-08T07:34:25.695Z</time>
      </trkpt>
      <trkpt lat="42.5077" lon="24.15068">
        <ele>630.783385</ele>
        <time>2022-03-08T07:34:31.740Z</time>
      </trkpt>
      <trkpt lat="42.50774" lon="24.15054">
        <ele>631.396924</ele>
        <time>2022-03-08T07:34:37.692Z</time>
      </trkpt>
      <trkpt lat="42.50778" lon="24.15042">
        <ele>631.972753</ele>
        <time>2022-03-08T07:34:43.708Z</time>
      </trkpt>
      <trkpt lat="42.50782" lon="24.15031">
        <ele>632.501875</ele>
        <time>2022-03-08T07:34:49.693Z</time>
      </trkpt>
      <trkpt lat="42.50787" lon="24.1502">
        <ele>633.042048</ele>
        <time>2022-03-08T07:34:55.672Z</time>
      </trkpt>
      <trkpt lat="42.50791" lon="24.15009">
        <ele>633.591711</ele>
        <time>2022-03-08T07:35:00.721Z</time>
      </trkpt>
      <trkpt lat="42.50797" lon="24.14997">
        <ele>634.189944</ele>
        <time>2022-03-08T07:35:05.681Z</time>
      </trkpt>
      <trkpt lat="42.50802" lon="24.14985">
        <ele>634.782426</ele>
        <time>2022-03-08T07:35:10.685Z</time>
      </trkpt>
      <trkpt lat="42.50807" lon="24.14972">
        <ele>635.387273</ele>
        <time>2022-03-08T07:35:15.710Z</time>
      </trkpt>
      <trkpt lat="42.50812" lon="24.14961">
        <ele>635.953862</ele>
        <time>2022-03-08T07:35:20.693Z</time>
      </trkpt>
      <trkpt lat="42.50817" lon="24.14949">
        <ele>636.52023</ele>
        <time>2022-03-08T07:35:25.718Z</time>
      </trkpt>
      <trkpt lat="42.50821" lon="24.14937">
        <ele>637.096807</ele>
        <time>2022-03-08T07:35:30.709Z</time>
      </trkpt>
      <trkpt lat="42.50825" lon="24.14927">
        <ele>637.620897</ele>
        <time>2022-03-08T07:35:35.696Z</time>
      </trkpt>
      <trkpt lat="42.50829" lon="24.14913">
        <ele>638.416595</ele>
        <time>2022-03-08T07:35:41.694Z</time>
      </trkpt>
      <trkpt lat="42.50831" lon="24.14901">
        <ele>639.139415</ele>
        <time>2022-03-08T07:35:46.705Z</time>
      </trkpt>
      <trkpt lat="42.50833" lon="24.14887">
        <ele>639.968231</ele>
        <time>2022-03-08T07:35:52.707Z</time>
      </trkpt>
      <trkpt lat="42.50833" lon="24.14873">
        <ele>640.787552</ele>
        <time>2022-03-08T07:35:58.717Z</time>
      </trkpt>
      <trkpt lat="42.50832" lon="24.14859">
        <ele>641.627203</ele>
        <time>2022-03-08T07:36:04.696Z</time>
      </trkpt>
      <trkpt lat="42.5083" lon="24.14844">
        <ele>642.484235</ele>
        <time>2022-03-08T07:36:10.693Z</time>
      </trkpt>
      <trkpt lat="42.50828" lon="24.14832">
        <ele>643.201384</ele>
        <time>2022-03-08T07:36:15.709Z</time>
      </trkpt>
      <trkpt lat="42.50826" lon="24.14819">
        <ele>644.012198</ele>
        <time>2022-03-08T07:36:21.701Z</time>
      </trkpt>
      <trkpt lat="42.50825" lon="24.14805">
        <ele>644.842828</ele>
        <time>2022-03-08T07:36:27.714Z</time>
      </trkpt>
      <trkpt lat="42.50823" lon="24.14791">
        <ele>645.642097</ele>
        <time>2022-03-08T07:36:33.690Z</time>
      </trkpt>
      <trkpt lat="42.50821" lon="24.14778">
        <ele>646.457719</ele>
        <time>2022-03-08T07:36:40.691Z</time>
      </trkpt>
      <trkpt lat="42.50819" lon="24.14765">
        <ele>647.234</ele>
        <time>2022-03-08T07:36:47.689Z</time>
      </trkpt>
      <trkpt lat="42.50819" lon="24.14752">
        <ele>647.95953</ele>
        <time>2022-03-08T07:36:53.679Z</time>
      </trkpt>
      <trkpt lat="42.50818" lon="24.14739">
        <ele>648.733734</ele>
        <time>2022-03-08T07:36:59.694Z</time>
      </trkpt>
      <trkpt lat="42.50818" lon="24.14725">
        <ele>649.535542</ele>
        <time>2022-03-08T07:37:05.697Z</time>
      </trkpt>
      <trkpt lat="42.50817" lon="24.14712">
        <ele>650.334469</ele>
        <time>2022-03-08T07:37:11.728Z</time>
      </trkpt>
      <trkpt lat="42.50815" lon="24.14699">
        <ele>651.097856</ele>
        <time>2022-03-08T07:37:17.690Z</time>
      </trkpt>
      <trkpt lat="42.50815" lon="24.14686">
        <ele>651.865087</ele>
        <time>2022-03-08T07:37:23.699Z</time>
      </trkpt>
      <trkpt lat="42.50813" lon="24.14674">
        <ele>652.399731</ele>
        <time>2022-03-08T07:37:29.692Z</time>
      </trkpt>
      <trkpt lat="42.50812" lon="24.14661">
        <ele>652.893939</ele>
        <time>2022-03-08T07:37:35.702Z</time>
      </trkpt>
      <trkpt lat="42.50811" lon="24.14648">
        <ele>653.395244</ele>
        <time>2022-03-08T07:37:41.690Z</time>
      </trkpt>
      <trkpt lat="42.50809" lon="24.14636">
        <ele>653.877813</ele>
        <time>2022-03-08T07:37:47.695Z</time>
      </trkpt>
      <trkpt lat="42.50808" lon="24.14623">
        <ele>654.393779</ele>
        <time>2022-03-08T07:37:53.731Z</time>
      </trkpt>
      <trkpt lat="42.50807" lon="24.1461">
        <ele>654.917542</ele>
        <time>2022-03-08T07:37:59.693Z</time>
      </trkpt>
      <trkpt lat="42.50806" lon="24.14598">
        <ele>655.408138</ele>
        <time>2022-03-08T07:38:05.692Z</time>
      </trkpt>
      <trkpt lat="42.50804" lon="24.14584">
        <ele>655.960748</ele>
        <time>2022-03-08T07:38:12.698Z</time>
      </trkpt>
      <trkpt lat="42.50803" lon="24.1457">
        <ele>656.49733</ele>
        <time>2022-03-08T07:38:18.685Z</time>
      </trkpt>
      <trkpt lat="42.50802" lon="24.14557">
        <ele>657.021826</ele>
        <time>2022-03-08T07:38:24.683Z</time>
      </trkpt>
      <trkpt lat="42.50801" lon="24.14545">
        <ele>657.518411</ele>
        <time>2022-03-08T07:38:30.698Z</time>
      </trkpt>
      <trkpt lat="42.508" lon="24.14532">
        <ele>658.038636</ele>
        <time>2022-03-08T07:38:37.681Z</time>
      </trkpt>
      <trkpt lat="42.50799" lon="24.14517">
        <ele>658.597753</ele>
        <time>2022-03-08T07:38:44.704Z</time>
      </trkpt>
      <trkpt lat="42.50798" lon="24.14503">
        <ele>659.150261</ele>
        <time>2022-03-08T07:38:51.697Z</time>
      </trkpt>
      <trkpt lat="42.50796" lon="24.14491">
        <ele>659.635069</ele>
        <time>2022-03-08T07:38:57.708Z</time>
      </trkpt>
      <trkpt lat="42.50796" lon="24.14479">
        <ele>660.119881</ele>
        <time>2022-03-08T07:39:03.712Z</time>
      </trkpt>
      <trkpt lat="42.50796" lon="24.14465">
        <ele>660.674454</ele>
        <time>2022-03-08T07:39:10.703Z</time>
      </trkpt>
      <trkpt lat="42.50796" lon="24.14451">
        <ele>661.205511</ele>
        <time>2022-03-08T07:39:17.706Z</time>
      </trkpt>
      <trkpt lat="42.50798" lon="24.14438">
        <ele>661.676078</ele>
        <time>2022-03-08T07:39:24.703Z</time>
      </trkpt>
      <trkpt lat="42.50799" lon="24.14426">
        <ele>661.982578</ele>
        <time>2022-03-08T07:39:30.693Z</time>
      </trkpt>
      <trkpt lat="42.50801" lon="24.14414">
        <ele>662.289886</ele>
        <time>2022-03-08T07:39:37.699Z</time>
      </trkpt>
      <trkpt lat="42.50804" lon="24.14402">
        <ele>662.603794</ele>
        <time>2022-03-08T07:39:44.714Z</time>
      </trkpt>
      <trkpt lat="42.50807" lon="24.1439">
        <ele>662.908634</ele>
        <time>2022-03-08T07:39:51.718Z</time>
      </trkpt>
      <trkpt lat="42.5081" lon="24.14378">
        <ele>663.211526</ele>
        <time>2022-03-08T07:39:58.721Z</time>
      </trkpt>
      <trkpt lat="42.50813" lon="24.14366">
        <ele>663.525678</ele>
        <time>2022-03-08T07:40:04.676Z</time>
      </trkpt>
      <trkpt lat="42.50816" lon="24.14352">
        <ele>663.883377</ele>
        <time>2022-03-08T07:40:10.703Z</time>
      </trkpt>
      <trkpt lat="42.5082" lon="24.1434">
        <ele>664.198057</ele>
        <time>2022-03-08T07:40:15.704Z</time>
      </trkpt>
      <trkpt lat="42.50825" lon="24.14329">
        <ele>664.512085</ele>
        <time>2022-03-08T07:40:20.716Z</time>
      </trkpt>
      <trkpt lat="42.5083" lon="24.14316">
        <ele>664.877868</ele>
        <time>2022-03-08T07:40:25.712Z</time>
      </trkpt>
      <trkpt lat="42.50834" lon="24.14305">
        <ele>665.180179</ele>
        <time>2022-03-08T07:40:29.710Z</time>
      </trkpt>
      <trkpt lat="42.50839" lon="24.14293">
        <ele>665.50481</ele>
        <time>2022-03-08T07:40:33.714Z</time>
      </trkpt>
      <trkpt lat="42.50843" lon="24.14282">
        <ele>665.812369</ele>
        <time>2022-03-08T07:40:37.698Z</time>
      </trkpt>
      <trkpt lat="42.50847" lon="24.1427">
        <ele>666.124019</ele>
        <time>2022-03-08T07:40:41.703Z</time>
      </trkpt>
      <trkpt lat="42.50852" lon="24.14258">
        <ele>666.456655</ele>
        <time>2022-03-08T07:40:45.704Z</time>
      </trkpt>
      <trkpt lat="42.50857" lon="24.14248">
        <ele>666.75376</ele>
        <time>2022-03-08T07:40:49.699Z</time>
      </trkpt>
      <trkpt lat="42.50862" lon="24.14238">
        <ele>667.059427</ele>
        <time>2022-03-08T07:40:53.712Z</time>
      </trkpt>
      <trkpt lat="42.50865" lon="24.14226">
        <ele>667.366572</ele>
        <time>2022-03-08T07:40:57.696Z</time>
      </trkpt>
      <trkpt lat="42.5087" lon="24.14214">
        <ele>667.638081</ele>
        <time>2022-03-08T07:41:01.738Z</time>
      </trkpt>
      <trkpt lat="42.50874" lon="24.14202">
        <ele>667.847355</ele>
        <time>2022-03-08T07:41:05.703Z</time>
      </trkpt>
      <trkpt lat="42.50878" lon="24.14191">
        <ele>668.048207</ele>
        <time>2022-03-08T07:41:09.702Z</time>
      </trkpt>
      <trkpt lat="42.50883" lon="24.14178">
        <ele>668.277438</ele>
        <time>2022-03-08T07:41:14.697Z</time>
      </trkpt>
      <trkpt lat="42.50887" lon="24.14167">
        <ele>668.476882</ele>
        <time>2022-03-08T07:41:18.746Z</time>
      </trkpt>
      <trkpt lat="42.50892" lon="24.14156">
        <ele>668.670785</ele>
        <time>2022-03-08T07:41:22.693Z</time>
      </trkpt>
      <trkpt lat="42.50897" lon="24.14143">
        <ele>668.904148</ele>
        <time>2022-03-08T07:41:27.730Z</time>
      </trkpt>
      <trkpt lat="42.50903" lon="24.14129">
        <ele>669.145173</ele>
        <time>2022-03-08T07:41:32.732Z</time>
      </trkpt>
      <trkpt lat="42.50908" lon="24.14118">
        <ele>669.355439</ele>
        <time>2022-03-08T07:41:36.708Z</time>
      </trkpt>
      <trkpt lat="42.50913" lon="24.14107">
        <ele>669.560307</ele>
        <time>2022-03-08T07:41:40.737Z</time>
      </trkpt>
      <trkpt lat="42.50918" lon="24.14095">
        <ele>669.770002</ele>
        <time>2022-03-08T07:41:44.722Z</time>
      </trkpt>
      <trkpt lat="42.50922" lon="24.14084">
        <ele>669.96512</ele>
        <time>2022-03-08T07:41:48.702Z</time>
      </trkpt>
      <trkpt lat="42.50926" lon="24.14073">
        <ele>670.161082</ele>
        <time>2022-03-08T07:41:52.701Z</time>
      </trkpt>
      <trkpt lat="42.5093" lon="24.1406">
        <ele>670.377695</ele>
        <time>2022-03-08T07:41:57.756Z</time>
      </trkpt>
      <trkpt lat="42.50933" lon="24.14049">
        <ele>670.569939</ele>
        <time>2022-03-08T07:42:01.712Z</time>
      </trkpt>
      <trkpt lat="42.50937" lon="24.14038">
        <ele>670.761369</ele>
        <time>2022-03-08T07:42:05.696Z</time>
      </trkpt>
      <trkpt lat="42.5094" lon="24.14023">
        <ele>670.996072</ele>
        <time>2022-03-08T07:42:10.702Z</time>
      </trkpt>
      <trkpt lat="42.50943" lon="24.14009">
        <ele>671.227151</ele>
        <time>2022-03-08T07:42:15.723Z</time>
      </trkpt>
      <trkpt lat="42.50948" lon="24.13997">
        <ele>671.495124</ele>
        <time>2022-03-08T07:42:20.701Z</time>
      </trkpt>
      <trkpt lat="42.5095" lon="24.13983">
        <ele>671.871622</ele>
        <time>2022-03-08T07:42:25.728Z</time>
      </trkpt>
      <trkpt lat="42.50953" lon="24.13971">
        <ele>672.23342</ele>
        <time>2022-03-08T07:42:30.751Z</time>
      </trkpt>
      <trkpt lat="42.50956" lon="24.13957">
        <ele>672.629091</ele>
        <time>2022-03-08T07:42:35.713Z</time>
      </trkpt>
      <trkpt lat="42.50958" lon="24.13942">
        <ele>673.027056</ele>
        <time>2022-03-08T07:42:40.692Z</time>
      </trkpt>
      <trkpt lat="42.50958" lon="24.13929">
        <ele>673.39937</ele>
        <time>2022-03-08T07:42:44.704Z</time>
      </trkpt>
      <trkpt lat="42.50959" lon="24.13915">
        <ele>673.766671</ele>
        <time>2022-03-08T07:42:48.692Z</time>
      </trkpt>
      <trkpt lat="42.50959" lon="24.13902">
        <ele>674.133523</ele>
        <time>2022-03-08T07:42:52.700Z</time>
      </trkpt>
      <trkpt lat="42.50959" lon="24.13888">
        <ele>674.52453</ele>
        <time>2022-03-08T07:42:56.706Z</time>
      </trkpt>
      <trkpt lat="42.50959" lon="24.13873">
        <ele>674.93466</ele>
        <time>2022-03-08T07:43:00.709Z</time>
      </trkpt>
      <trkpt lat="42.50959" lon="24.13857">
        <ele>675.36954</ele>
        <time>2022-03-08T07:43:04.697Z</time>
      </trkpt>
      <trkpt lat="42.50958" lon="24.13841">
        <ele>675.812868</ele>
        <time>2022-03-08T07:43:08.757Z</time>
      </trkpt>
      <trkpt lat="42.50958" lon="24.13825">
        <ele>676.236734</ele>
        <time>2022-03-08T07:43:12.691Z</time>
      </trkpt>
      <trkpt lat="42.50958" lon="24.13811">
        <ele>676.630895</ele>
        <time>2022-03-08T07:43:16.693Z</time>
      </trkpt>
      <trkpt lat="42.50957" lon="24.13797">
        <ele>677.016577</ele>
        <time>2022-03-08T07:43:20.699Z</time>
      </trkpt>
      <trkpt lat="42.50957" lon="24.13783">
        <ele>677.399653</ele>
        <time>2022-03-08T07:43:24.702Z</time>
      </trkpt>
      <trkpt lat="42.50956" lon="24.13769">
        <ele>677.76996</ele>
        <time>2022-03-08T07:43:28.693Z</time>
      </trkpt>
      <trkpt lat="42.50955" lon="24.13756">
        <ele>678.15509</ele>
        <time>2022-03-08T07:43:32.702Z</time>
      </trkpt>
      <trkpt lat="42.50955" lon="24.13741">
        <ele>678.732184</ele>
        <time>2022-03-08T07:43:37.697Z</time>
      </trkpt>
      <trkpt lat="42.50954" lon="24.13729">
        <ele>679.218706</ele>
        <time>2022-03-08T07:43:41.733Z</time>
      </trkpt>
      <trkpt lat="42.50953" lon="24.13715">
        <ele>679.77005</ele>
        <time>2022-03-08T07:43:46.715Z</time>
      </trkpt>
      <trkpt lat="42.50952" lon="24.13702">
        <ele>680.295275</ele>
        <time>2022-03-08T07:43:51.687Z</time>
      </trkpt>
      <trkpt lat="42.50952" lon="24.13687">
        <ele>680.875797</ele>
        <time>2022-03-08T07:43:56.703Z</time>
      </trkpt>
      <trkpt lat="42.50952" lon="24.13674">
        <ele>681.397376</ele>
        <time>2022-03-08T07:44:01.692Z</time>
      </trkpt>
      <trkpt lat="42.50951" lon="24.13661">
        <ele>681.907201</ele>
        <time>2022-03-08T07:44:06.713Z</time>
      </trkpt>
      <trkpt lat="42.50951" lon="24.13648">
        <ele>682.401126</ele>
        <time>2022-03-08T07:44:11.718Z</time>
      </trkpt>
      <trkpt lat="42.5095" lon="24.13635">
        <ele>682.937096</ele>
        <time>2022-03-08T07:44:16.693Z</time>
      </trkpt>
      <trkpt lat="42.50948" lon="24.1362">
        <ele>683.518803</ele>
        <time>2022-03-08T07:44:21.696Z</time>
      </trkpt>
      <trkpt lat="42.50946" lon="24.13608">
        <ele>684.004529</ele>
        <time>2022-03-08T07:44:25.727Z</time>
      </trkpt>
      <trkpt lat="42.50943" lon="24.13593">
        <ele>684.591887</ele>
        <time>2022-03-08T07:44:30.711Z</time>
      </trkpt>
      <trkpt lat="42.5094" lon="24.13582">
        <ele>685.084855</ele>
        <time>2022-03-08T07:44:34.700Z</time>
      </trkpt>
      <trkpt lat="42.50936" lon="24.13568">
        <ele>685.654968</ele>
        <time>2022-03-08T07:44:39.703Z</time>
      </trkpt>
      <trkpt lat="42.50932" lon="24.13557">
        <ele>686.143222</ele>
        <time>2022-03-08T07:44:43.714Z</time>
      </trkpt>
      <trkpt lat="42.50928" lon="24.13545">
        <ele>686.652322</ele>
        <time>2022-03-08T07:44:47.720Z</time>
      </trkpt>
      <trkpt lat="42.50924" lon="24.13533">
        <ele>687.163538</ele>
        <time>2022-03-08T07:44:51.699Z</time>
      </trkpt>
      <trkpt lat="42.50919" lon="24.1352">
        <ele>687.607838</ele>
        <time>2022-03-08T07:44:56.697Z</time>
      </trkpt>
      <trkpt lat="42.50915" lon="24.13508">
        <ele>687.578609</ele>
        <time>2022-03-08T07:45:00.704Z</time>
      </trkpt>
      <trkpt lat="42.50911" lon="24.13496">
        <ele>687.547856</ele>
        <time>2022-03-08T07:45:04.673Z</time>
      </trkpt>
      <trkpt lat="42.50907" lon="24.13484">
        <ele>687.517962</ele>
        <time>2022-03-08T07:45:08.695Z</time>
      </trkpt>
      <trkpt lat="42.50902" lon="24.13473">
        <ele>687.487761</ele>
        <time>2022-03-08T07:45:12.706Z</time>
      </trkpt>
      <trkpt lat="42.50897" lon="24.13459">
        <ele>687.45448</ele>
        <time>2022-03-08T07:45:17.700Z</time>
      </trkpt>
      <trkpt lat="42.50893" lon="24.13446">
        <ele>687.421168</ele>
        <time>2022-03-08T07:45:22.701Z</time>
      </trkpt>
      <trkpt lat="42.50888" lon="24.13432">
        <ele>687.387137</ele>
        <time>2022-03-08T07:45:27.724Z</time>
      </trkpt>
      <trkpt lat="42.50885" lon="24.13419">
        <ele>687.354835</ele>
        <time>2022-03-08T07:45:32.710Z</time>
      </trkpt>
      <trkpt lat="42.50881" lon="24.13405">
        <ele>687.321253</ele>
        <time>2022-03-08T07:45:37.735Z</time>
      </trkpt>
      <trkpt lat="42.50879" lon="24.13393">
        <ele>687.293571</ele>
        <time>2022-03-08T07:45:41.705Z</time>
      </trkpt>
      <trkpt lat="42.50877" lon="24.13381">
        <ele>687.265325</ele>
        <time>2022-03-08T07:45:45.696Z</time>
      </trkpt>
      <trkpt lat="42.50876" lon="24.13368">
        <ele>687.235195</ele>
        <time>2022-03-08T07:45:50.702Z</time>
      </trkpt>
      <trkpt lat="42.50875" lon="24.13355">
        <ele>687.204612</ele>
        <time>2022-03-08T07:45:55.696Z</time>
      </trkpt>
      <trkpt lat="42.50874" lon="24.13341">
        <ele>687.171914</ele>
        <time>2022-03-08T07:46:00.744Z</time>
      </trkpt>
      <trkpt lat="42.50874" lon="24.13327">
        <ele>687.141811</ele>
        <time>2022-03-08T07:46:05.704Z</time>
      </trkpt>
      <trkpt lat="42.50873" lon="24.13313">
        <ele>687.108689</ele>
        <time>2022-03-08T07:46:10.747Z</time>
      </trkpt>
      <trkpt lat="42.50873" lon="24.13298">
        <ele>687.074496</ele>
        <time>2022-03-08T07:46:15.725Z</time>
      </trkpt>
      <trkpt lat="42.50874" lon="24.13284">
        <ele>686.9063</ele>
        <time>2022-03-08T07:46:20.696Z</time>
      </trkpt>
      <trkpt lat="42.50874" lon="24.13271">
        <ele>686.633219</ele>
        <time>2022-03-08T07:46:25.689Z</time>
      </trkpt>
      <trkpt lat="42.50874" lon="24.13258">
        <ele>686.380508</ele>
        <time>2022-03-08T07:46:30.712Z</time>
      </trkpt>
      <trkpt lat="42.50875" lon="24.13244">
        <ele>686.081994</ele>
        <time>2022-03-08T07:46:35.716Z</time>
      </trkpt>
      <trkpt lat="42.50875" lon="24.13231">
        <ele>685.831</ele>
        <time>2022-03-08T07:46:39.697Z</time>
      </trkpt>
      <trkpt lat="42.50876" lon="24.13218">
        <ele>685.558873</ele>
        <time>2022-03-08T07:46:43.696Z</time>
      </trkpt>
      <trkpt lat="42.50878" lon="24.13204">
        <ele>685.271769</ele>
        <time>2022-03-08T07:46:47.684Z</time>
      </trkpt>
      <trkpt lat="42.50881" lon="24.1319">
        <ele>684.970796</ele>
        <time>2022-03-08T07:46:51.699Z</time>
      </trkpt>
      <trkpt lat="42.50885" lon="24.13175">
        <ele>684.659652</ele>
        <time>2022-03-08T07:46:55.708Z</time>
      </trkpt>
      <trkpt lat="42.50889" lon="24.13161">
        <ele>684.343094</ele>
        <time>2022-03-08T07:46:59.736Z</time>
      </trkpt>
      <trkpt lat="42.50893" lon="24.13146">
        <ele>684.025552</ele>
        <time>2022-03-08T07:47:03.704Z</time>
      </trkpt>
      <trkpt lat="42.50895" lon="24.13134">
        <ele>683.760921</ele>
        <time>2022-03-08T07:47:06.704Z</time>
      </trkpt>
      <trkpt lat="42.50899" lon="24.13121">
        <ele>683.487734</ele>
        <time>2022-03-08T07:47:09.695Z</time>
      </trkpt>
      <trkpt lat="42.50904" lon="24.13109">
        <ele>683.205971</ele>
        <time>2022-03-08T07:47:12.728Z</time>
      </trkpt>
      <trkpt lat="42.50909" lon="24.13097">
        <ele>682.922536</ele>
        <time>2022-03-08T07:47:15.714Z</time>
      </trkpt>
      <trkpt lat="42.50912" lon="24.13082">
        <ele>682.611393</ele>
        <time>2022-03-08T07:47:18.692Z</time>
      </trkpt>
      <trkpt lat="42.50915" lon="24.13067">
        <ele>682.300748</ele>
        <time>2022-03-08T07:47:21.693Z</time>
      </trkpt>
      <trkpt lat="42.50918" lon="24.13051">
        <ele>682.222006</ele>
        <time>2022-03-08T07:47:24.702Z</time>
      </trkpt>
      <trkpt lat="42.50924" lon="24.13034">
        <ele>682.563855</ele>
        <time>2022-03-08T07:47:27.702Z</time>
      </trkpt>
      <trkpt lat="42.50927" lon="24.13021">
        <ele>682.809406</ele>
        <time>2022-03-08T07:47:29.704Z</time>
      </trkpt>
      <trkpt lat="42.50931" lon="24.13009">
        <ele>683.061081</ele>
        <time>2022-03-08T07:47:31.691Z</time>
      </trkpt>
      <trkpt lat="42.50936" lon="24.12996">
        <ele>683.328404</ele>
        <time>2022-03-08T07:47:33.726Z</time>
      </trkpt>
      <trkpt lat="42.5094" lon="24.12983">
        <ele>683.588894</ele>
        <time>2022-03-08T07:47:35.699Z</time>
      </trkpt>
      <trkpt lat="42.50943" lon="24.12967">
        <ele>683.900424</ele>
        <time>2022-03-08T07:47:38.715Z</time>
      </trkpt>
      <trkpt lat="42.50946" lon="24.12955">
        <ele>684.136243</ele>
        <time>2022-03-08T07:47:40.693Z</time>
      </trkpt>
      <trkpt lat="42.50951" lon="24.12943">
        <ele>684.379065</ele>
        <time>2022-03-08T07:47:42.699Z</time>
      </trkpt>
      <trkpt lat="42.50956" lon="24.12931">
        <ele>684.644227</ele>
        <time>2022-03-08T07:47:44.725Z</time>
      </trkpt>
      <trkpt lat="42.50961" lon="24.12918">
        <ele>684.922118</ele>
        <time>2022-03-08T07:47:46.698Z</time>
      </trkpt>
      <trkpt lat="42.50965" lon="24.12905">
        <ele>685.187766</ele>
        <time>2022-03-08T07:47:48.698Z</time>
      </trkpt>
      <trkpt lat="42.5097" lon="24.12892">
        <ele>685.452927</ele>
        <time>2022-03-08T07:47:50.715Z</time>
      </trkpt>
      <trkpt lat="42.50974" lon="24.12879">
        <ele>685.720532</ele>
        <time>2022-03-08T07:47:52.710Z</time>
      </trkpt>
      <trkpt lat="42.50978" lon="24.12866">
        <ele>685.984298</ele>
        <time>2022-03-08T07:47:54.712Z</time>
      </trkpt>
      <trkpt lat="42.50982" lon="24.12853">
        <ele>686.24633</ele>
        <time>2022-03-08T07:47:56.714Z</time>
      </trkpt>
      <trkpt lat="42.50985" lon="24.12839">
        <ele>686.510951</ele>
        <time>2022-03-08T07:47:58.742Z</time>
      </trkpt>
      <trkpt lat="42.50988" lon="24.12825">
        <ele>686.514036</ele>
        <time>2022-03-08T07:48:00.718Z</time>
      </trkpt>
      <trkpt lat="42.5099" lon="24.12812">
        <ele>686.310785</ele>
        <time>2022-03-08T07:48:02.746Z</time>
      </trkpt>
      <trkpt lat="42.50993" lon="24.12799">
        <ele>686.113276</ele>
        <time>2022-03-08T07:48:04.718Z</time>
      </trkpt>
      <trkpt lat="42.50996" lon="24.12785">
        <ele>685.89892</ele>
        <time>2022-03-08T07:48:06.691Z</time>
      </trkpt>
      <trkpt lat="42.50998" lon="24.12771">
        <ele>685.675941</ele>
        <time>2022-03-08T07:48:08.744Z</time>
      </trkpt>
      <trkpt lat="42.51001" lon="24.12755">
        <ele>685.438876</ele>
        <time>2022-03-08T07:48:10.693Z</time>
      </trkpt>
      <trkpt lat="42.51003" lon="24.1274">
        <ele>685.209088</ele>
        <time>2022-03-08T07:48:12.709Z</time>
      </trkpt>
      <trkpt lat="42.51005" lon="24.12724">
        <ele>684.963598</ele>
        <time>2022-03-08T07:48:14.700Z</time>
      </trkpt>
      <trkpt lat="42.51006" lon="24.12706">
        <ele>684.6998</ele>
        <time>2022-03-08T07:48:16.712Z</time>
      </trkpt>
      <trkpt lat="42.51005" lon="24.12687">
        <ele>684.413606</ele>
        <time>2022-03-08T07:48:18.709Z</time>
      </trkpt>
      <trkpt lat="42.51003" lon="24.12666">
        <ele>684.097392</ele>
        <time>2022-03-08T07:48:20.723Z</time>
      </trkpt>
      <trkpt lat="42.51001" lon="24.12644">
        <ele>683.775023</ele>
        <time>2022-03-08T07:48:22.687Z</time>
      </trkpt>
      <trkpt lat="42.50998" lon="24.12622">
        <ele>683.431178</ele>
        <time>2022-03-08T07:48:24.704Z</time>
      </trkpt>
      <trkpt lat="42.50996" lon="24.12598">
        <ele>683.074838</ele>
        <time>2022-03-08T07:48:26.721Z</time>
      </trkpt>
      <trkpt lat="42.50996" lon="24.12586">
        <ele>682.695516</ele>
        <time>2022-03-08T07:48:27.703Z</time>
      </trkpt>
      <trkpt lat="42.50996" lon="24.12573">
        <ele>682.17106</ele>
        <time>2022-03-08T07:48:28.703Z</time>
      </trkpt>
      <trkpt lat="42.50997" lon="24.12561">
        <ele>681.649726</ele>
        <time>2022-03-08T07:48:29.705Z</time>
      </trkpt>
      <trkpt lat="42.50998" lon="24.12548">
        <ele>681.114869</ele>
        <time>2022-03-08T07:48:30.708Z</time>
      </trkpt>
      <trkpt lat="42.50998" lon="24.12536">
        <ele>680.57107</ele>
        <time>2022-03-08T07:48:31.677Z</time>
      </trkpt>
      <trkpt lat="42.51" lon="24.12523">
        <ele>680.021172</ele>
        <time>2022-03-08T07:48:32.701Z</time>
      </trkpt>
      <trkpt lat="42.51001" lon="24.1251">
        <ele>679.484565</ele>
        <time>2022-03-08T07:48:33.699Z</time>
      </trkpt>
      <trkpt lat="42.51002" lon="24.12497">
        <ele>678.94148</ele>
        <time>2022-03-08T07:48:34.690Z</time>
      </trkpt>
      <trkpt lat="42.51004" lon="24.12485">
        <ele>678.418386</ele>
        <time>2022-03-08T07:48:35.711Z</time>
      </trkpt>
      <trkpt lat="42.51005" lon="24.12473">
        <ele>677.895293</ele>
        <time>2022-03-08T07:48:36.751Z</time>
      </trkpt>
      <trkpt lat="42.51007" lon="24.1246">
        <ele>677.353558</ele>
        <time>2022-03-08T07:48:37.701Z</time>
      </trkpt>
      <trkpt lat="42.51009" lon="24.12448">
        <ele>676.824298</ele>
        <time>2022-03-08T07:48:38.703Z</time>
      </trkpt>
      <trkpt lat="42.51012" lon="24.12425">
        <ele>675.819767</ele>
        <time>2022-03-08T07:48:40.698Z</time>
      </trkpt>
      <trkpt lat="42.51014" lon="24.12413">
        <ele>675.303568</ele>
        <time>2022-03-08T07:48:41.697Z</time>
      </trkpt>
      <trkpt lat="42.51017" lon="24.12401">
        <ele>674.777516</ele>
        <time>2022-03-08T07:48:42.689Z</time>
      </trkpt>
      <trkpt lat="42.51021" lon="24.1239">
        <ele>674.25524</ele>
        <time>2022-03-08T07:48:43.700Z</time>
      </trkpt>
      <trkpt lat="42.51029" lon="24.12368">
        <ele>673.218996</ele>
        <time>2022-03-08T07:48:45.694Z</time>
      </trkpt>
      <trkpt lat="42.51033" lon="24.12357">
        <ele>672.694325</ele>
        <time>2022-03-08T07:48:46.713Z</time>
      </trkpt>
      <trkpt lat="42.51038" lon="24.12346">
        <ele>671.986962</ele>
        <time>2022-03-08T07:48:47.735Z</time>
      </trkpt>
      <trkpt lat="42.51042" lon="24.12335">
        <ele>671.24467</ele>
        <time>2022-03-08T07:48:48.708Z</time>
      </trkpt>
      <trkpt lat="42.51047" lon="24.12324">
        <ele>670.509571</ele>
        <time>2022-03-08T07:48:49.702Z</time>
      </trkpt>
      <trkpt lat="42.51052" lon="24.12314">
        <ele>669.784389</ele>
        <time>2022-03-08T07:48:50.712Z</time>
      </trkpt>
      <trkpt lat="42.51057" lon="24.12302">
        <ele>669.016383</ele>
        <time>2022-03-08T07:48:51.698Z</time>
      </trkpt>
      <trkpt lat="42.51062" lon="24.12291">
        <ele>668.252363</ele>
        <time>2022-03-08T07:48:52.711Z</time>
      </trkpt>
      <trkpt lat="42.51067" lon="24.1228">
        <ele>667.501182</ele>
        <time>2022-03-08T07:48:53.713Z</time>
      </trkpt>
      <trkpt lat="42.51072" lon="24.12269">
        <ele>666.776799</ele>
        <time>2022-03-08T07:48:54.693Z</time>
      </trkpt>
      <trkpt lat="42.51076" lon="24.12258">
        <ele>666.035682</ele>
        <time>2022-03-08T07:48:55.712Z</time>
      </trkpt>
      <trkpt lat="42.5108" lon="24.12247">
        <ele>665.318467</ele>
        <time>2022-03-08T07:48:56.699Z</time>
      </trkpt>
      <trkpt lat="42.51087" lon="24.12225">
        <ele>663.920533</ele>
        <time>2022-03-08T07:48:58.688Z</time>
      </trkpt>
      <trkpt lat="42.51093" lon="24.12202">
        <ele>662.518917</ele>
        <time>2022-03-08T07:49:00.693Z</time>
      </trkpt>
      <trkpt lat="42.51096" lon="24.1219">
        <ele>661.804637</ele>
        <time>2022-03-08T07:49:01.728Z</time>
      </trkpt>
      <trkpt lat="42.51098" lon="24.12178">
        <ele>661.078623</ele>
        <time>2022-03-08T07:49:02.698Z</time>
      </trkpt>
      <trkpt lat="42.51099" lon="24.12165">
        <ele>660.354098</ele>
        <time>2022-03-08T07:49:03.725Z</time>
      </trkpt>
      <trkpt lat="42.51101" lon="24.12153">
        <ele>659.646637</ele>
        <time>2022-03-08T07:49:04.703Z</time>
      </trkpt>
      <trkpt lat="42.51103" lon="24.12141">
        <ele>658.929218</ele>
        <time>2022-03-08T07:49:05.698Z</time>
      </trkpt>
      <trkpt lat="42.51104" lon="24.12129">
        <ele>658.152287</ele>
        <time>2022-03-08T07:49:06.718Z</time>
      </trkpt>
      <trkpt lat="42.51106" lon="24.12117">
        <ele>657.295371</ele>
        <time>2022-03-08T07:49:07.704Z</time>
      </trkpt>
      <trkpt lat="42.51108" lon="24.12104">
        <ele>656.45181</ele>
        <time>2022-03-08T07:49:08.695Z</time>
      </trkpt>
      <trkpt lat="42.51112" lon="24.12082">
        <ele>654.901278</ele>
        <time>2022-03-08T07:49:10.703Z</time>
      </trkpt>
      <trkpt lat="42.51117" lon="24.12062">
        <ele>653.47322</ele>
        <time>2022-03-08T07:49:12.730Z</time>
      </trkpt>
      <trkpt lat="42.51123" lon="24.12044">
        <ele>652.087589</ele>
        <time>2022-03-08T07:49:14.735Z</time>
      </trkpt>
      <trkpt lat="42.51129" lon="24.12027">
        <ele>650.849756</ele>
        <time>2022-03-08T07:49:16.714Z</time>
      </trkpt>
      <trkpt lat="42.51134" lon="24.12012">
        <ele>649.687134</ele>
        <time>2022-03-08T07:49:18.706Z</time>
      </trkpt>
      <trkpt lat="42.51139" lon="24.11997">
        <ele>648.560001</ele>
        <time>2022-03-08T07:49:20.732Z</time>
      </trkpt>
      <trkpt lat="42.51144" lon="24.11979">
        <ele>647.233846</ele>
        <time>2022-03-08T07:49:22.701Z</time>
      </trkpt>
      <trkpt lat="42.51149" lon="24.11957">
        <ele>645.734978</ele>
        <time>2022-03-08T07:49:24.705Z</time>
      </trkpt>
      <trkpt lat="42.51153" lon="24.11934">
        <ele>644.124805</ele>
        <time>2022-03-08T07:49:26.702Z</time>
      </trkpt>
      <trkpt lat="42.51156" lon="24.11922">
        <ele>643.280043</ele>
        <time>2022-03-08T07:49:27.694Z</time>
      </trkpt>
      <trkpt lat="42.51158" lon="24.1191">
        <ele>642.437648</ele>
        <time>2022-03-08T07:49:28.706Z</time>
      </trkpt>
      <trkpt lat="42.51162" lon="24.11887">
        <ele>641.067909</ele>
        <time>2022-03-08T07:49:30.713Z</time>
      </trkpt>
      <trkpt lat="42.51164" lon="24.11875">
        <ele>640.417697</ele>
        <time>2022-03-08T07:49:31.764Z</time>
      </trkpt>
      <trkpt lat="42.51166" lon="24.11863">
        <ele>639.770995</ele>
        <time>2022-03-08T07:49:32.681Z</time>
      </trkpt>
      <trkpt lat="42.51168" lon="24.11851">
        <ele>639.12086</ele>
        <time>2022-03-08T07:49:33.705Z</time>
      </trkpt>
      <trkpt lat="42.51171" lon="24.11839">
        <ele>638.457202</ele>
        <time>2022-03-08T07:49:34.704Z</time>
      </trkpt>
      <trkpt lat="42.51173" lon="24.11826">
        <ele>637.796913</ele>
        <time>2022-03-08T07:49:35.696Z</time>
      </trkpt>
      <trkpt lat="42.51175" lon="24.11814">
        <ele>637.119614</ele>
        <time>2022-03-08T07:49:36.728Z</time>
      </trkpt>
      <trkpt lat="42.51178" lon="24.11801">
        <ele>636.447389</ele>
        <time>2022-03-08T07:49:37.706Z</time>
      </trkpt>
      <trkpt lat="42.5118" lon="24.11789">
        <ele>635.790367</ele>
        <time>2022-03-08T07:49:38.712Z</time>
      </trkpt>
      <trkpt lat="42.51182" lon="24.11777">
        <ele>635.141986</ele>
        <time>2022-03-08T07:49:39.711Z</time>
      </trkpt>
      <trkpt lat="42.51184" lon="24.11765">
        <ele>634.490183</ele>
        <time>2022-03-08T07:49:40.701Z</time>
      </trkpt>
      <trkpt lat="42.51187" lon="24.11753">
        <ele>633.812834</ele>
        <time>2022-03-08T07:49:41.701Z</time>
      </trkpt>
      <trkpt lat="42.51189" lon="24.1174">
        <ele>633.154273</ele>
        <time>2022-03-08T07:49:42.727Z</time>
      </trkpt>
      <trkpt lat="42.51191" lon="24.11728">
        <ele>632.478734</ele>
        <time>2022-03-08T07:49:43.705Z</time>
      </trkpt>
      <trkpt lat="42.51193" lon="24.11716">
        <ele>631.81158</ele>
        <time>2022-03-08T07:49:44.705Z</time>
      </trkpt>
      <trkpt lat="42.51196" lon="24.11703">
        <ele>631.124131</ele>
        <time>2022-03-08T07:49:45.710Z</time>
      </trkpt>
      <trkpt lat="42.51198" lon="24.1169">
        <ele>630.41278</ele>
        <time>2022-03-08T07:49:46.704Z</time>
      </trkpt>
      <trkpt lat="42.51201" lon="24.11677">
        <ele>629.703246</ele>
        <time>2022-03-08T07:49:47.708Z</time>
      </trkpt>
      <trkpt lat="42.51203" lon="24.11664">
        <ele>628.984355</ele>
        <time>2022-03-08T07:49:48.744Z</time>
      </trkpt>
      <trkpt lat="42.51206" lon="24.11652">
        <ele>628.189816</ele>
        <time>2022-03-08T07:49:49.700Z</time>
      </trkpt>
      <trkpt lat="42.51208" lon="24.11639">
        <ele>627.399061</ele>
        <time>2022-03-08T07:49:50.755Z</time>
      </trkpt>
      <trkpt lat="42.5121" lon="24.11626">
        <ele>626.578315</ele>
        <time>2022-03-08T07:49:51.721Z</time>
      </trkpt>
      <trkpt lat="42.51212" lon="24.11614">
        <ele>625.749487</ele>
        <time>2022-03-08T07:49:52.699Z</time>
      </trkpt>
      <trkpt lat="42.51215" lon="24.11601">
        <ele>624.916362</ele>
        <time>2022-03-08T07:49:53.703Z</time>
      </trkpt>
      <trkpt lat="42.51217" lon="24.11588">
        <ele>624.107248</ele>
        <time>2022-03-08T07:49:54.699Z</time>
      </trkpt>
      <trkpt lat="42.5122" lon="24.11576">
        <ele>623.328065</ele>
        <time>2022-03-08T07:49:55.711Z</time>
      </trkpt>
      <trkpt lat="42.51222" lon="24.11564">
        <ele>622.5715</ele>
        <time>2022-03-08T07:49:56.697Z</time>
      </trkpt>
      <trkpt lat="42.51225" lon="24.11553">
        <ele>621.808932</ele>
        <time>2022-03-08T07:49:57.726Z</time>
      </trkpt>
      <trkpt lat="42.51229" lon="24.11529">
        <ele>620.31058</ele>
        <time>2022-03-08T07:49:59.752Z</time>
      </trkpt>
      <trkpt lat="42.51233" lon="24.11507">
        <ele>618.907039</ele>
        <time>2022-03-08T07:50:01.685Z</time>
      </trkpt>
      <trkpt lat="42.51237" lon="24.11487">
        <ele>617.582084</ele>
        <time>2022-03-08T07:50:03.795Z</time>
      </trkpt>
      <trkpt lat="42.5124" lon="24.11468">
        <ele>616.364074</ele>
        <time>2022-03-08T07:50:05.704Z</time>
      </trkpt>
      <trkpt lat="42.51243" lon="24.11451">
        <ele>615.262905</ele>
        <time>2022-03-08T07:50:07.702Z</time>
      </trkpt>
      <trkpt lat="42.51247" lon="24.11434">
        <ele>614.213596</ele>
        <time>2022-03-08T07:50:09.716Z</time>
      </trkpt>
      <trkpt lat="42.5125" lon="24.1142">
        <ele>613.753246</ele>
        <time>2022-03-08T07:50:11.701Z</time>
      </trkpt>
      <trkpt lat="42.51252" lon="24.11407">
        <ele>613.497744</ele>
        <time>2022-03-08T07:50:13.695Z</time>
      </trkpt>
      <trkpt lat="42.51254" lon="24.11395">
        <ele>613.253355</ele>
        <time>2022-03-08T07:50:15.702Z</time>
      </trkpt>
      <trkpt lat="42.51256" lon="24.11378">
        <ele>612.910723</ele>
        <time>2022-03-08T07:50:18.706Z</time>
      </trkpt>
      <trkpt lat="42.51257" lon="24.11364">
        <ele>612.634329</ele>
        <time>2022-03-08T07:50:21.736Z</time>
      </trkpt>
      <trkpt lat="42.51257" lon="24.11348">
        <ele>612.319385</ele>
        <time>2022-03-08T07:50:24.694Z</time>
      </trkpt>
      <trkpt lat="42.51257" lon="24.11331">
        <ele>611.990673</ele>
        <time>2022-03-08T07:50:27.699Z</time>
      </trkpt>
      <trkpt lat="42.51257" lon="24.11315">
        <ele>611.67574</ele>
        <time>2022-03-08T07:50:30.709Z</time>
      </trkpt>
      <trkpt lat="42.51257" lon="24.11299">
        <ele>611.354802</ele>
        <time>2022-03-08T07:50:33.699Z</time>
      </trkpt>
      <trkpt lat="42.51257" lon="24.11282">
        <ele>611.022154</ele>
        <time>2022-03-08T07:50:36.698Z</time>
      </trkpt>
      <trkpt lat="42.51258" lon="24.11265">
        <ele>610.682927</ele>
        <time>2022-03-08T07:50:39.697Z</time>
      </trkpt>
      <trkpt lat="42.51257" lon="24.11248">
        <ele>610.357265</ele>
        <time>2022-03-08T07:50:42.700Z</time>
      </trkpt>
      <trkpt lat="42.51256" lon="24.11231">
        <ele>610.020259</ele>
        <time>2022-03-08T07:50:45.746Z</time>
      </trkpt>
      <trkpt lat="42.51253" lon="24.11219">
        <ele>609.768578</ele>
        <time>2022-03-08T07:50:47.720Z</time>
      </trkpt>
      <trkpt lat="42.5125" lon="24.11202">
        <ele>609.425117</ele>
        <time>2022-03-08T07:50:50.704Z</time>
      </trkpt>
      <trkpt lat="42.51249" lon="24.11185">
        <ele>609.2758</ele>
        <time>2022-03-08T07:50:53.696Z</time>
      </trkpt>
      <trkpt lat="42.51249" lon="24.11169">
        <ele>609.668715</ele>
        <time>2022-03-08T07:50:56.736Z</time>
      </trkpt>
      <trkpt lat="42.51248" lon="24.11151">
        <ele>610.093525</ele>
        <time>2022-03-08T07:50:59.707Z</time>
      </trkpt>
      <trkpt lat="42.51247" lon="24.11134">
        <ele>610.517008</ele>
        <time>2022-03-08T07:51:02.691Z</time>
      </trkpt>
      <trkpt lat="42.51245" lon="24.11116">
        <ele>610.950521</ele>
        <time>2022-03-08T07:51:05.689Z</time>
      </trkpt>
      <trkpt lat="42.51244" lon="24.11104">
        <ele>611.254339</ele>
        <time>2022-03-08T07:51:07.731Z</time>
      </trkpt>
      <trkpt lat="42.51242" lon="24.11091">
        <ele>611.577341</ele>
        <time>2022-03-08T07:51:09.699Z</time>
      </trkpt>
      <trkpt lat="42.51238" lon="24.11077">
        <ele>611.931364</ele>
        <time>2022-03-08T07:51:11.679Z</time>
      </trkpt>
      <trkpt lat="42.51234" lon="24.11062">
        <ele>612.310177</ele>
        <time>2022-03-08T07:51:13.694Z</time>
      </trkpt>
      <trkpt lat="42.51228" lon="24.11047">
        <ele>612.718426</ele>
        <time>2022-03-08T07:51:15.684Z</time>
      </trkpt>
      <trkpt lat="42.5122" lon="24.11034">
        <ele>613.133868</ele>
        <time>2022-03-08T07:51:17.709Z</time>
      </trkpt>
      <trkpt lat="42.51211" lon="24.11022">
        <ele>613.553399</ele>
        <time>2022-03-08T07:51:19.699Z</time>
      </trkpt>
      <trkpt lat="42.51201" lon="24.11011">
        <ele>613.979928</ele>
        <time>2022-03-08T07:51:21.701Z</time>
      </trkpt>
      <trkpt lat="42.51189" lon="24.11001">
        <ele>614.425261</ele>
        <time>2022-03-08T07:51:23.702Z</time>
      </trkpt>
      <trkpt lat="42.51178" lon="24.10991">
        <ele>614.879998</ele>
        <time>2022-03-08T07:51:25.712Z</time>
      </trkpt>
      <trkpt lat="42.51166" lon="24.10981">
        <ele>615.119061</ele>
        <time>2022-03-08T07:51:27.699Z</time>
      </trkpt>
      <trkpt lat="42.51156" lon="24.10972">
        <ele>615.213014</ele>
        <time>2022-03-08T07:51:29.743Z</time>
      </trkpt>
      <trkpt lat="42.51146" lon="24.10963">
        <ele>615.303803</ele>
        <time>2022-03-08T07:51:31.705Z</time>
      </trkpt>
      <trkpt lat="42.51136" lon="24.10955">
        <ele>615.393412</ele>
        <time>2022-03-08T07:51:33.697Z</time>
      </trkpt>
      <trkpt lat="42.51125" lon="24.10945">
        <ele>615.491089</ele>
        <time>2022-03-08T07:51:35.701Z</time>
      </trkpt>
      <trkpt lat="42.51114" lon="24.10935">
        <ele>615.590315</ele>
        <time>2022-03-08T07:51:37.702Z</time>
      </trkpt>
      <trkpt lat="42.51103" lon="24.10925">
        <ele>615.690798</ele>
        <time>2022-03-08T07:51:39.722Z</time>
      </trkpt>
      <trkpt lat="42.51092" lon="24.10916">
        <ele>615.791935</ele>
        <time>2022-03-08T07:51:41.699Z</time>
      </trkpt>
      <trkpt lat="42.51081" lon="24.10905">
        <ele>615.894301</ele>
        <time>2022-03-08T07:51:43.703Z</time>
      </trkpt>
      <trkpt lat="42.51069" lon="24.10895">
        <ele>616.002008</ele>
        <time>2022-03-08T07:51:45.694Z</time>
      </trkpt>
      <trkpt lat="42.51057" lon="24.10884">
        <ele>616.109428</ele>
        <time>2022-03-08T07:51:47.702Z</time>
      </trkpt>
      <trkpt lat="42.51045" lon="24.10873">
        <ele>616.220954</ele>
        <time>2022-03-08T07:51:49.710Z</time>
      </trkpt>
      <trkpt lat="42.51033" lon="24.10861">
        <ele>616.335923</ele>
        <time>2022-03-08T07:51:51.740Z</time>
      </trkpt>
      <trkpt lat="42.5102" lon="24.10848">
        <ele>616.155039</ele>
        <time>2022-03-08T07:51:53.700Z</time>
      </trkpt>
      <trkpt lat="42.51006" lon="24.10834">
        <ele>615.096065</ele>
        <time>2022-03-08T07:51:55.709Z</time>
      </trkpt>
      <trkpt lat="42.50993" lon="24.10819">
        <ele>613.988306</ele>
        <time>2022-03-08T07:51:57.693Z</time>
      </trkpt>
      <trkpt lat="42.50982" lon="24.10801">
        <ele>612.89903</ele>
        <time>2022-03-08T07:51:59.703Z</time>
      </trkpt>
      <trkpt lat="42.50974" lon="24.10782">
        <ele>611.885757</ele>
        <time>2022-03-08T07:52:01.757Z</time>
      </trkpt>
      <trkpt lat="42.50972" lon="24.10761">
        <ele>610.88785</ele>
        <time>2022-03-08T07:52:03.697Z</time>
      </trkpt>
      <trkpt lat="42.50976" lon="24.1074">
        <ele>609.878008</ele>
        <time>2022-03-08T07:52:05.701Z</time>
      </trkpt>
      <trkpt lat="42.50982" lon="24.10719">
        <ele>608.831332</ele>
        <time>2022-03-08T07:52:07.717Z</time>
      </trkpt>
      <trkpt lat="42.5099" lon="24.10701">
        <ele>607.844246</ele>
        <time>2022-03-08T07:52:09.703Z</time>
      </trkpt>
      <trkpt lat="42.50997" lon="24.10686">
        <ele>607.023746</ele>
        <time>2022-03-08T07:52:11.717Z</time>
      </trkpt>
      <trkpt lat="42.51005" lon="24.10675">
        <ele>606.313327</ele>
        <time>2022-03-08T07:52:13.698Z</time>
      </trkpt>
      <trkpt lat="42.51014" lon="24.10664">
        <ele>605.545407</ele>
        <time>2022-03-08T07:52:15.720Z</time>
      </trkpt>
      <trkpt lat="42.51022" lon="24.10651">
        <ele>605.023461</ele>
        <time>2022-03-08T07:52:17.699Z</time>
      </trkpt>
      <trkpt lat="42.51029" lon="24.10639">
        <ele>604.910144</ele>
        <time>2022-03-08T07:52:19.704Z</time>
      </trkpt>
      <trkpt lat="42.51036" lon="24.10628">
        <ele>604.800772</ele>
        <time>2022-03-08T07:52:21.704Z</time>
      </trkpt>
      <trkpt lat="42.51043" lon="24.10617">
        <ele>604.699835</ele>
        <time>2022-03-08T07:52:23.693Z</time>
      </trkpt>
      <trkpt lat="42.5105" lon="24.10608">
        <ele>604.605107</ele>
        <time>2022-03-08T07:52:25.691Z</time>
      </trkpt>
      <trkpt lat="42.51056" lon="24.10597">
        <ele>604.508278</ele>
        <time>2022-03-08T07:52:27.710Z</time>
      </trkpt>
      <trkpt lat="42.51062" lon="24.10586">
        <ele>604.409703</ele>
        <time>2022-03-08T07:52:29.737Z</time>
      </trkpt>
      <trkpt lat="42.51068" lon="24.10577">
        <ele>604.318082</ele>
        <time>2022-03-08T07:52:31.709Z</time>
      </trkpt>
      <trkpt lat="42.51076" lon="24.10564">
        <ele>604.194795</ele>
        <time>2022-03-08T07:52:34.716Z</time>
      </trkpt>
      <trkpt lat="42.51084" lon="24.10552">
        <ele>604.081947</ele>
        <time>2022-03-08T07:52:37.685Z</time>
      </trkpt>
      <trkpt lat="42.51092" lon="24.10541">
        <ele>603.968305</ele>
        <time>2022-03-08T07:52:40.720Z</time>
      </trkpt>
      <trkpt lat="42.51099" lon="24.10533">
        <ele>603.876239</ele>
        <time>2022-03-08T07:52:43.718Z</time>
      </trkpt>
      <trkpt lat="42.51106" lon="24.10524">
        <ele>603.785387</ele>
        <time>2022-03-08T07:52:46.738Z</time>
      </trkpt>
      <trkpt lat="42.51113" lon="24.10514">
        <ele>603.685779</ele>
        <time>2022-03-08T07:52:49.712Z</time>
      </trkpt>
      <trkpt lat="42.5112" lon="24.10504">
        <ele>603.584463</ele>
        <time>2022-03-08T07:52:52.703Z</time>
      </trkpt>
      <trkpt lat="42.51129" lon="24.10492">
        <ele>603.462888</ele>
        <time>2022-03-08T07:52:55.710Z</time>
      </trkpt>
      <trkpt lat="42.51138" lon="24.10481">
        <ele>603.340911</ele>
        <time>2022-03-08T07:52:58.692Z</time>
      </trkpt>
      <trkpt lat="42.51147" lon="24.10469">
        <ele>604.023329</ele>
        <time>2022-03-08T07:53:01.720Z</time>
      </trkpt>
      <trkpt lat="42.51154" lon="24.10459">
        <ele>604.978798</ele>
        <time>2022-03-08T07:53:04.711Z</time>
      </trkpt>
      <trkpt lat="42.51161" lon="24.10449">
        <ele>605.834107</ele>
        <time>2022-03-08T07:53:07.700Z</time>
      </trkpt>
      <trkpt lat="42.51166" lon="24.10439">
        <ele>606.670197</ele>
        <time>2022-03-08T07:53:10.706Z</time>
      </trkpt>
      <trkpt lat="42.51173" lon="24.10425">
        <ele>607.730683</ele>
        <time>2022-03-08T07:53:14.713Z</time>
      </trkpt>
      <trkpt lat="42.5118" lon="24.10412">
        <ele>608.73415</ele>
        <time>2022-03-08T07:53:18.696Z</time>
      </trkpt>
      <trkpt lat="42.51187" lon="24.104">
        <ele>609.752835</ele>
        <time>2022-03-08T07:53:22.700Z</time>
      </trkpt>
      <trkpt lat="42.51192" lon="24.10389">
        <ele>610.647042</ele>
        <time>2022-03-08T07:53:26.709Z</time>
      </trkpt>
      <trkpt lat="42.51198" lon="24.10379">
        <ele>611.44616</ele>
        <time>2022-03-08T07:53:30.740Z</time>
      </trkpt>
      <trkpt lat="42.51203" lon="24.10368">
        <ele>612.277654</ele>
        <time>2022-03-08T07:53:35.705Z</time>
      </trkpt>
      <trkpt lat="42.51209" lon="24.10358">
        <ele>613.097781</ele>
        <time>2022-03-08T07:53:40.712Z</time>
      </trkpt>
      <trkpt lat="42.51214" lon="24.10346">
        <ele>614.00772</ele>
        <time>2022-03-08T07:53:46.707Z</time>
      </trkpt>
      <trkpt lat="42.51218" lon="24.10335">
        <ele>614.835289</ele>
        <time>2022-03-08T07:53:52.707Z</time>
      </trkpt>
      <trkpt lat="42.51224" lon="24.10324">
        <ele>615.650247</ele>
        <time>2022-03-08T07:53:58.734Z</time>
      </trkpt>
      <trkpt lat="42.51229" lon="24.10313">
        <ele>616.517973</ele>
        <time>2022-03-08T07:54:05.697Z</time>
      </trkpt>
      <trkpt lat="42.51236" lon="24.10302">
        <ele>617.442794</ele>
        <time>2022-03-08T07:54:12.723Z</time>
      </trkpt>
      <trkpt lat="42.51241" lon="24.10292">
        <ele>618.25228</ele>
        <time>2022-03-08T07:54:18.724Z</time>
      </trkpt>
      <trkpt lat="42.51245" lon="24.10281">
        <ele>619.044498</ele>
        <time>2022-03-08T07:54:24.714Z</time>
      </trkpt>
      <trkpt lat="42.51251" lon="24.10271">
        <ele>619.909725</ele>
        <time>2022-03-08T07:54:30.698Z</time>
      </trkpt>
      <trkpt lat="42.51256" lon="24.10259">
        <ele>620.811871</ele>
        <time>2022-03-08T07:54:37.705Z</time>
      </trkpt>
      <trkpt lat="42.51261" lon="24.10248">
        <ele>621.699394</ele>
        <time>2022-03-08T07:54:44.695Z</time>
      </trkpt>
      <trkpt lat="42.51266" lon="24.10237">
        <ele>622.589806</ele>
        <time>2022-03-08T07:54:52.711Z</time>
      </trkpt>
      <trkpt lat="42.5127" lon="24.10225">
        <ele>623.496401</ele>
        <time>2022-03-08T07:54:58.725Z</time>
      </trkpt>
      <trkpt lat="42.51275" lon="24.10213">
        <ele>624.447311</ele>
        <time>2022-03-08T07:55:05.708Z</time>
      </trkpt>
      <trkpt lat="42.51279" lon="24.10202">
        <ele>625.274275</ele>
        <time>2022-03-08T07:55:11.699Z</time>
      </trkpt>
      <trkpt lat="42.51284" lon="24.1019">
        <ele>626.174168</ele>
        <time>2022-03-08T07:55:18.706Z</time>
      </trkpt>
      <trkpt lat="42.51289" lon="24.10179">
        <ele>627.111711</ele>
        <time>2022-03-08T07:55:26.725Z</time>
      </trkpt>
      <trkpt lat="42.51294" lon="24.10167">
        <ele>628.036107</ele>
        <time>2022-03-08T07:55:33.709Z</time>
      </trkpt>
      <trkpt lat="42.51299" lon="24.10156">
        <ele>628.909014</ele>
        <time>2022-03-08T07:55:40.714Z</time>
      </trkpt>
      <trkpt lat="42.51305" lon="24.10145">
        <ele>629.778555</ele>
        <time>2022-03-08T07:55:48.701Z</time>
      </trkpt>
      <trkpt lat="42.5131" lon="24.10134">
        <ele>630.664325</ele>
        <time>2022-03-08T07:55:56.706Z</time>
      </trkpt>
      <trkpt lat="42.51314" lon="24.10122">
        <ele>631.56929</ele>
        <time>2022-03-08T07:56:04.700Z</time>
      </trkpt>
      <trkpt lat="42.51318" lon="24.1011">
        <ele>632.513521</ele>
        <time>2022-03-08T07:56:12.702Z</time>
      </trkpt>
      <trkpt lat="42.5132" lon="24.10096">
        <ele>633.439426</ele>
        <time>2022-03-08T07:56:19.709Z</time>
      </trkpt>
      <trkpt lat="42.51322" lon="24.10084">
        <ele>634.283689</ele>
        <time>2022-03-08T07:56:26.708Z</time>
      </trkpt>
      <trkpt lat="42.51325" lon="24.10072">
        <ele>635.138546</ele>
        <time>2022-03-08T07:56:33.699Z</time>
      </trkpt>
      <trkpt lat="42.51328" lon="24.10061">
        <ele>635.837376</ele>
        <time>2022-03-08T07:56:40.732Z</time>
      </trkpt>
      <trkpt lat="42.51331" lon="24.10048">
        <ele>636.293255</ele>
        <time>2022-03-08T07:56:48.702Z</time>
      </trkpt>
      <trkpt lat="42.51334" lon="24.10036">
        <ele>636.708499</ele>
        <time>2022-03-08T07:56:55.703Z</time>
      </trkpt>
      <trkpt lat="42.51337" lon="24.10024">
        <ele>637.160284</ele>
        <time>2022-03-08T07:57:03.741Z</time>
      </trkpt>
      <trkpt lat="42.51341" lon="24.10012">
        <ele>637.580718</ele>
        <time>2022-03-08T07:57:11.692Z</time>
      </trkpt>
      <trkpt lat="42.51344" lon="24.1">
        <ele>638.010281</ele>
        <time>2022-03-08T07:57:19.714Z</time>
      </trkpt>
      <trkpt lat="42.51347" lon="24.09989">
        <ele>638.430714</ele>
        <time>2022-03-08T07:57:27.704Z</time>
      </trkpt>
      <trkpt lat="42.51351" lon="24.09976">
        <ele>638.896414</ele>
        <time>2022-03-08T07:57:35.704Z</time>
      </trkpt>
      <trkpt lat="42.51356" lon="24.09964">
        <ele>639.360761</ele>
        <time>2022-03-08T07:57:44.694Z</time>
      </trkpt>
      <trkpt lat="42.51362" lon="24.09954">
        <ele>639.813828</ele>
        <time>2022-03-08T07:57:52.737Z</time>
      </trkpt>
      <trkpt lat="42.51368" lon="24.09943">
        <ele>640.242309</ele>
        <time>2022-03-08T07:58:01.699Z</time>
      </trkpt>
      <trkpt lat="42.51373" lon="24.09933">
        <ele>640.673529</ele>
        <time>2022-03-08T07:58:08.728Z</time>
      </trkpt>
      <trkpt lat="42.51378" lon="24.09923">
        <ele>641.098695</ele>
        <time>2022-03-08T07:58:17.703Z</time>
      </trkpt>
      <trkpt lat="42.51384" lon="24.09912">
        <ele>641.540797</ele>
        <time>2022-03-08T07:58:26.712Z</time>
      </trkpt>
      <trkpt lat="42.51389" lon="24.09901">
        <ele>641.980236</ele>
        <time>2022-03-08T07:58:36.765Z</time>
      </trkpt>
      <trkpt lat="42.51396" lon="24.09891">
        <ele>642.437799</ele>
        <time>2022-03-08T07:58:45.704Z</time>
      </trkpt>
      <trkpt lat="42.51401" lon="24.09881">
        <ele>642.866625</ele>
        <time>2022-03-08T07:58:53.703Z</time>
      </trkpt>
      <trkpt lat="42.51406" lon="24.0987">
        <ele>643.29545</ele>
        <time>2022-03-08T07:59:02.711Z</time>
      </trkpt>
      <trkpt lat="42.51411" lon="24.0986">
        <ele>643.716083</ele>
        <time>2022-03-08T07:59:11.711Z</time>
      </trkpt>
      <trkpt lat="42.51417" lon="24.09849">
        <ele>644.394881</ele>
        <time>2022-03-08T07:59:21.695Z</time>
      </trkpt>
      <trkpt lat="42.51422" lon="24.09839">
        <ele>645.280581</ele>
        <time>2022-03-08T07:59:29.710Z</time>
      </trkpt>
      <trkpt lat="42.51428" lon="24.09829">
        <ele>646.205429</ele>
        <time>2022-03-08T07:59:37.704Z</time>
      </trkpt>
      <trkpt lat="42.51433" lon="24.09819">
        <ele>647.115496</ele>
        <time>2022-03-08T07:59:47.704Z</time>
      </trkpt>
      <trkpt lat="42.51439" lon="24.09809">
        <ele>648.018649</ele>
        <time>2022-03-08T07:59:56.684Z</time>
      </trkpt>
      <trkpt lat="42.51446" lon="24.09799">
        <ele>649.00479</ele>
        <time>2022-03-08T08:00:04.717Z</time>
      </trkpt>
      <trkpt lat="42.51451" lon="24.09789">
        <ele>649.914855</ele>
        <time>2022-03-08T08:00:13.711Z</time>
      </trkpt>
      <trkpt lat="42.51456" lon="24.09779">
        <ele>650.80743</ele>
        <time>2022-03-08T08:00:22.762Z</time>
      </trkpt>
      <trkpt lat="42.51461" lon="24.09768">
        <ele>651.705443</ele>
        <time>2022-03-08T08:00:30.698Z</time>
      </trkpt>
      <trkpt lat="42.51467" lon="24.09758">
        <ele>652.596881</ele>
        <time>2022-03-08T08:00:38.705Z</time>
      </trkpt>
      <trkpt lat="42.51473" lon="24.09749">
        <ele>653.497845</ele>
        <time>2022-03-08T08:00:47.692Z</time>
      </trkpt>
      <trkpt lat="42.51479" lon="24.09739">
        <ele>654.460948</ele>
        <time>2022-03-08T08:00:56.691Z</time>
      </trkpt>
      <trkpt lat="42.51485" lon="24.09729">
        <ele>655.369822</ele>
        <time>2022-03-08T08:01:05.695Z</time>
      </trkpt>
      <trkpt lat="42.5149" lon="24.09717">
        <ele>656.356325</ele>
        <time>2022-03-08T08:01:15.705Z</time>
      </trkpt>
      <trkpt lat="42.51494" lon="24.09705">
        <ele>657.311425</ele>
        <time>2022-03-08T08:01:23.711Z</time>
      </trkpt>
      <trkpt lat="42.51498" lon="24.09694">
        <ele>658.194745</ele>
        <time>2022-03-08T08:01:32.696Z</time>
      </trkpt>
      <trkpt lat="42.51501" lon="24.09682">
        <ele>659.135262</ele>
        <time>2022-03-08T08:01:40.716Z</time>
      </trkpt>
      <trkpt lat="42.51505" lon="24.09669">
        <ele>660.131252</ele>
        <time>2022-03-08T08:01:48.715Z</time>
      </trkpt>
      <trkpt lat="42.51509" lon="24.09657">
        <ele>661.101634</ele>
        <time>2022-03-08T08:01:56.716Z</time>
      </trkpt>
      <trkpt lat="42.51514" lon="24.09645">
        <ele>662.060089</ele>
        <time>2022-03-08T08:02:04.726Z</time>
      </trkpt>
      <trkpt lat="42.51516" lon="24.09633">
        <ele>662.981569</ele>
        <time>2022-03-08T08:02:12.705Z</time>
      </trkpt>
      <trkpt lat="42.5152" lon="24.09622">
        <ele>663.932339</ele>
        <time>2022-03-08T08:02:20.744Z</time>
      </trkpt>
      <trkpt lat="42.51524" lon="24.0961">
        <ele>664.932429</ele>
        <time>2022-03-08T08:02:28.698Z</time>
      </trkpt>
      <trkpt lat="42.51528" lon="24.09599">
        <ele>665.871801</ele>
        <time>2022-03-08T08:02:35.706Z</time>
      </trkpt>
      <trkpt lat="42.51533" lon="24.09587">
        <ele>666.868174</ele>
        <time>2022-03-08T08:02:43.712Z</time>
      </trkpt>
      <trkpt lat="42.51537" lon="24.09576">
        <ele>667.820664</ele>
        <time>2022-03-08T08:02:51.703Z</time>
      </trkpt>
      <trkpt lat="42.51541" lon="24.09564">
        <ele>668.827599</ele>
        <time>2022-03-08T08:03:00.703Z</time>
      </trkpt>
      <trkpt lat="42.51544" lon="24.09551">
        <ele>669.836224</ele>
        <time>2022-03-08T08:03:09.690Z</time>
      </trkpt>
      <trkpt lat="42.51547" lon="24.09538">
        <ele>670.853524</ele>
        <time>2022-03-08T08:03:17.706Z</time>
      </trkpt>
      <trkpt lat="42.5155" lon="24.09525">
        <ele>671.876894</ele>
        <time>2022-03-08T08:03:25.709Z</time>
      </trkpt>
      <trkpt lat="42.51551" lon="24.09511">
        <ele>672.881768</ele>
        <time>2022-03-08T08:03:34.737Z</time>
      </trkpt>
      <trkpt lat="42.51553" lon="24.09498">
        <ele>673.894574</ele>
        <time>2022-03-08T08:03:43.749Z</time>
      </trkpt>
      <trkpt lat="42.51553" lon="24.09486">
        <ele>674.816725</ele>
        <time>2022-03-08T08:03:52.707Z</time>
      </trkpt>
      <trkpt lat="42.51554" lon="24.09473">
        <ele>675.746857</ele>
        <time>2022-03-08T08:04:00.699Z</time>
      </trkpt>
      <trkpt lat="42.51554" lon="24.0946">
        <ele>676.750963</ele>
        <time>2022-03-08T08:04:08.702Z</time>
      </trkpt>
      <trkpt lat="42.51552" lon="24.09447">
        <ele>677.729105</ele>
        <time>2022-03-08T08:04:17.710Z</time>
      </trkpt>
      <trkpt lat="42.51552" lon="24.09435">
        <ele>678.639019</ele>
        <time>2022-03-08T08:04:25.696Z</time>
      </trkpt>
      <trkpt lat="42.51552" lon="24.09422">
        <ele>679.613179</ele>
        <time>2022-03-08T08:04:34.708Z</time>
      </trkpt>
      <trkpt lat="42.51551" lon="24.09409">
        <ele>680.329201</ele>
        <time>2022-03-08T08:04:42.699Z</time>
      </trkpt>
      <trkpt lat="42.5155" lon="24.09397">
        <ele>680.931576</ele>
        <time>2022-03-08T08:04:50.746Z</time>
      </trkpt>
      <trkpt lat="42.51549" lon="24.09383">
        <ele>681.577637</ele>
        <time>2022-03-08T08:04:59.692Z</time>
      </trkpt>
      <trkpt lat="42.51547" lon="24.09372">
        <ele>682.169232</ele>
        <time>2022-03-08T08:05:07.702Z</time>
      </trkpt>
      <trkpt lat="42.51547" lon="24.09358">
        <ele>682.813647</ele>
        <time>2022-03-08T08:05:15.689Z</time>
      </trkpt>
      <trkpt lat="42.51547" lon="24.09345">
        <ele>683.458325</ele>
        <time>2022-03-08T08:05:24.773Z</time>
      </trkpt>
      <trkpt lat="42.51546" lon="24.09331">
        <ele>684.107445</ele>
        <time>2022-03-08T08:05:33.700Z</time>
      </trkpt>
      <trkpt lat="42.51544" lon="24.09319">
        <ele>684.722282</ele>
        <time>2022-03-08T08:05:40.698Z</time>
      </trkpt>
      <trkpt lat="42.51544" lon="24.09306">
        <ele>685.31409</ele>
        <time>2022-03-08T08:05:47.697Z</time>
      </trkpt>
      <trkpt lat="42.51543" lon="24.09294">
        <ele>685.938565</ele>
        <time>2022-03-08T08:05:55.690Z</time>
      </trkpt>
      <trkpt lat="42.51542" lon="24.0928">
        <ele>686.577373</ele>
        <time>2022-03-08T08:06:04.694Z</time>
      </trkpt>
      <trkpt lat="42.51541" lon="24.09267">
        <ele>687.241119</ele>
        <time>2022-03-08T08:06:12.706Z</time>
      </trkpt>
      <trkpt lat="42.51541" lon="24.09253">
        <ele>687.897198</ele>
        <time>2022-03-08T08:06:21.709Z</time>
      </trkpt>
      <trkpt lat="42.5154" lon="24.0924">
        <ele>688.507344</ele>
        <time>2022-03-08T08:06:28.703Z</time>
      </trkpt>
      <trkpt lat="42.51539" lon="24.09228">
        <ele>689.123012</ele>
        <time>2022-03-08T08:06:35.699Z</time>
      </trkpt>
      <trkpt lat="42.51539" lon="24.09214">
        <ele>689.75781</ele>
        <time>2022-03-08T08:06:42.693Z</time>
      </trkpt>
      <trkpt lat="42.51539" lon="24.09201">
        <ele>690.403017</ele>
        <time>2022-03-08T08:06:49.711Z</time>
      </trkpt>
      <trkpt lat="42.51539" lon="24.09187">
        <ele>691.081093</ele>
        <time>2022-03-08T08:06:55.711Z</time>
      </trkpt>
      <trkpt lat="42.51539" lon="24.09173">
        <ele>691.647484</ele>
        <time>2022-03-08T08:07:01.712Z</time>
      </trkpt>
      <trkpt lat="42.5154" lon="24.09159">
        <ele>691.649015</ele>
        <time>2022-03-08T08:07:07.735Z</time>
      </trkpt>
      <trkpt lat="42.5154" lon="24.09145">
        <ele>691.650467</ele>
        <time>2022-03-08T08:07:13.687Z</time>
      </trkpt>
      <trkpt lat="42.5154" lon="24.09133">
        <ele>691.651822</ele>
        <time>2022-03-08T08:07:19.710Z</time>
      </trkpt>
      <trkpt lat="42.5154" lon="24.09119">
        <ele>691.653351</ele>
        <time>2022-03-08T08:07:25.702Z</time>
      </trkpt>
      <trkpt lat="42.51541" lon="24.09106">
        <ele>691.654741</ele>
        <time>2022-03-08T08:07:31.721Z</time>
      </trkpt>
      <trkpt lat="42.51542" lon="24.09093">
        <ele>691.656124</ele>
        <time>2022-03-08T08:07:37.768Z</time>
      </trkpt>
      <trkpt lat="42.51542" lon="24.09079">
        <ele>691.657674</ele>
        <time>2022-03-08T08:07:44.697Z</time>
      </trkpt>
      <trkpt lat="42.51543" lon="24.09066">
        <ele>691.659036</ele>
        <time>2022-03-08T08:07:50.718Z</time>
      </trkpt>
      <trkpt lat="42.51544" lon="24.09053">
        <ele>691.660522</ele>
        <time>2022-03-08T08:07:57.718Z</time>
      </trkpt>
      <trkpt lat="42.51546" lon="24.0904">
        <ele>691.661922</ele>
        <time>2022-03-08T08:08:04.697Z</time>
      </trkpt>
      <trkpt lat="42.51547" lon="24.09028">
        <ele>691.663248</ele>
        <time>2022-03-08T08:08:10.739Z</time>
      </trkpt>
      <trkpt lat="42.51547" lon="24.09016">
        <ele>691.664581</ele>
        <time>2022-03-08T08:08:17.711Z</time>
      </trkpt>
      <trkpt lat="42.51547" lon="24.09003">
        <ele>691.665993</ele>
        <time>2022-03-08T08:08:24.700Z</time>
      </trkpt>
      <trkpt lat="42.51549" lon="24.08989">
        <ele>691.667447</ele>
        <time>2022-03-08T08:08:30.753Z</time>
      </trkpt>
      <trkpt lat="42.51549" lon="24.08976">
        <ele>691.668846</ele>
        <time>2022-03-08T08:08:36.710Z</time>
      </trkpt>
      <trkpt lat="42.5155" lon="24.08962">
        <ele>691.670387</ele>
        <time>2022-03-08T08:08:42.738Z</time>
      </trkpt>
      <trkpt lat="42.51549" lon="24.08948">
        <ele>691.671894</ele>
        <time>2022-03-08T08:08:49.700Z</time>
      </trkpt>
      <trkpt lat="42.5155" lon="24.08936">
        <ele>691.673262</ele>
        <time>2022-03-08T08:08:56.708Z</time>
      </trkpt>
      <trkpt lat="42.5155" lon="24.08924">
        <ele>692.063321</ele>
        <time>2022-03-08T08:09:01.702Z</time>
      </trkpt>
      <trkpt lat="42.51552" lon="24.08911">
        <ele>692.645316</ele>
        <time>2022-03-08T08:09:07.738Z</time>
      </trkpt>
      <trkpt lat="42.51552" lon="24.08898">
        <ele>693.238704</ele>
        <time>2022-03-08T08:09:13.722Z</time>
      </trkpt>
      <trkpt lat="42.51554" lon="24.08884">
        <ele>693.890105</ele>
        <time>2022-03-08T08:09:20.714Z</time>
      </trkpt>
      <trkpt lat="42.51554" lon="24.08872">
        <ele>694.454162</ele>
        <time>2022-03-08T08:09:26.746Z</time>
      </trkpt>
      <trkpt lat="42.51555" lon="24.0886">
        <ele>695.03235</ele>
        <time>2022-03-08T08:09:32.716Z</time>
      </trkpt>
      <trkpt lat="42.51557" lon="24.08847">
        <ele>695.629701</ele>
        <time>2022-03-08T08:09:38.712Z</time>
      </trkpt>
      <trkpt lat="42.51556" lon="24.08833">
        <ele>696.268186</ele>
        <time>2022-03-08T08:09:45.712Z</time>
      </trkpt>
      <trkpt lat="42.51556" lon="24.08821">
        <ele>696.851241</ele>
        <time>2022-03-08T08:09:51.730Z</time>
      </trkpt>
      <trkpt lat="42.51557" lon="24.08807">
        <ele>697.48712</ele>
        <time>2022-03-08T08:09:58.726Z</time>
      </trkpt>
      <trkpt lat="42.51557" lon="24.08795">
        <ele>698.051177</ele>
        <time>2022-03-08T08:10:05.710Z</time>
      </trkpt>
      <trkpt lat="42.51557" lon="24.08782">
        <ele>698.638314</ele>
        <time>2022-03-08T08:10:12.711Z</time>
      </trkpt>
      <trkpt lat="42.51558" lon="24.08769">
        <ele>699.255777</ele>
        <time>2022-03-08T08:10:19.739Z</time>
      </trkpt>
      <trkpt lat="42.51558" lon="24.08756">
        <ele>699.856783</ele>
        <time>2022-03-08T08:10:26.702Z</time>
      </trkpt>
      <trkpt lat="42.51559" lon="24.08743">
        <ele>700.449374</ele>
        <time>2022-03-08T08:10:32.717Z</time>
      </trkpt>
      <trkpt lat="42.51559" lon="24.08731">
        <ele>701.018157</ele>
        <time>2022-03-08T08:10:38.764Z</time>
      </trkpt>
      <trkpt lat="42.51559" lon="24.08718">
        <ele>701.606131</ele>
        <time>2022-03-08T08:10:44.703Z</time>
      </trkpt>
      <trkpt lat="42.5156" lon="24.08705">
        <ele>702.198073</ele>
        <time>2022-03-08T08:10:50.703Z</time>
      </trkpt>
      <trkpt lat="42.51564" lon="24.08692">
        <ele>702.840318</ele>
        <time>2022-03-08T08:10:57.701Z</time>
      </trkpt>
      <trkpt lat="42.51568" lon="24.08681">
        <ele>703.511676</ele>
        <time>2022-03-08T08:11:04.731Z</time>
      </trkpt>
      <trkpt lat="42.51574" lon="24.08671">
        <ele>704.218645</ele>
        <time>2022-03-08T08:11:10.713Z</time>
      </trkpt>
      <trkpt lat="42.51578" lon="24.0866">
        <ele>704.889031</ele>
        <time>2022-03-08T08:11:16.730Z</time>
      </trkpt>
      <trkpt lat="42.51584" lon="24.0865">
        <ele>705.614011</ele>
        <time>2022-03-08T08:11:23.696Z</time>
      </trkpt>
      <trkpt lat="42.51591" lon="24.08641">
        <ele>706.302046</ele>
        <time>2022-03-08T08:11:30.705Z</time>
      </trkpt>
      <trkpt lat="42.51597" lon="24.08631">
        <ele>707.000973</ele>
        <time>2022-03-08T08:11:37.703Z</time>
      </trkpt>
      <trkpt lat="42.51604" lon="24.08622">
        <ele>707.717384</ele>
        <time>2022-03-08T08:11:44.712Z</time>
      </trkpt>
      <trkpt lat="42.51612" lon="24.08614">
        <ele>708.504834</ele>
        <time>2022-03-08T08:11:51.701Z</time>
      </trkpt>
      <trkpt lat="42.51621" lon="24.08606">
        <ele>709.263957</ele>
        <time>2022-03-08T08:11:58.711Z</time>
      </trkpt>
      <trkpt lat="42.51629" lon="24.086">
        <ele>709.997322</ele>
        <time>2022-03-08T08:12:05.716Z</time>
      </trkpt>
      <trkpt lat="42.51638" lon="24.08593">
        <ele>710.735782</ele>
        <time>2022-03-08T08:12:11.706Z</time>
      </trkpt>
      <trkpt lat="42.51647" lon="24.08587">
        <ele>711.495843</ele>
        <time>2022-03-08T08:12:18.690Z</time>
      </trkpt>
      <trkpt lat="42.51654" lon="24.08579">
        <ele>712.219546</ele>
        <time>2022-03-08T08:12:24.696Z</time>
      </trkpt>
      <trkpt lat="42.51661" lon="24.08569">
        <ele>712.962544</ele>
        <time>2022-03-08T08:12:31.704Z</time>
      </trkpt>
      <trkpt lat="42.51664" lon="24.08555">
        <ele>713.751363</ele>
        <time>2022-03-08T08:12:38.719Z</time>
      </trkpt>
      <trkpt lat="42.51667" lon="24.08544">
        <ele>714.430817</ele>
        <time>2022-03-08T08:12:44.736Z</time>
      </trkpt>
      <trkpt lat="42.51671" lon="24.08531">
        <ele>715.179267</ele>
        <time>2022-03-08T08:12:50.751Z</time>
      </trkpt>
      <trkpt lat="42.51673" lon="24.08519">
        <ele>715.878168</ele>
        <time>2022-03-08T08:12:56.720Z</time>
      </trkpt>
      <trkpt lat="42.51675" lon="24.08506">
        <ele>716.551109</ele>
        <time>2022-03-08T08:13:02.731Z</time>
      </trkpt>
      <trkpt lat="42.51678" lon="24.08495">
        <ele>717.077236</ele>
        <time>2022-03-08T08:13:08.726Z</time>
      </trkpt>
      <trkpt lat="42.51681" lon="24.08482">
        <ele>717.646611</ele>
        <time>2022-03-08T08:13:15.698Z</time>
      </trkpt>
      <trkpt lat="42.51683" lon="24.08468">
        <ele>718.253059</ele>
        <time>2022-03-08T08:13:22.755Z</time>
      </trkpt>
      <trkpt lat="42.51685" lon="24.08455">
        <ele>718.839468</ele>
        <time>2022-03-08T08:13:28.738Z</time>
      </trkpt>
      <trkpt lat="42.51686" lon="24.08442">
        <ele>719.395511</ele>
        <time>2022-03-08T08:13:33.702Z</time>
      </trkpt>
      <trkpt lat="42.51685" lon="24.08429">
        <ele>719.919659</ele>
        <time>2022-03-08T08:13:38.707Z</time>
      </trkpt>
      <trkpt lat="42.51684" lon="24.08415">
        <ele>720.556307</ele>
        <time>2022-03-08T08:13:43.709Z</time>
      </trkpt>
      <trkpt lat="42.51681" lon="24.08401">
        <ele>721.163947</ele>
        <time>2022-03-08T08:13:47.719Z</time>
      </trkpt>
      <trkpt lat="42.51677" lon="24.08387">
        <ele>721.822893</ele>
        <time>2022-03-08T08:13:51.696Z</time>
      </trkpt>
      <trkpt lat="42.51673" lon="24.08374">
        <ele>722.4359</ele>
        <time>2022-03-08T08:13:55.712Z</time>
      </trkpt>
      <trkpt lat="42.51667" lon="24.08361">
        <ele>723.07397</ele>
        <time>2022-03-08T08:13:59.718Z</time>
      </trkpt>
      <trkpt lat="42.51661" lon="24.08348">
        <ele>723.735445</ele>
        <time>2022-03-08T08:14:03.710Z</time>
      </trkpt>
      <trkpt lat="42.51654" lon="24.08338">
        <ele>724.355417</ele>
        <time>2022-03-08T08:14:07.715Z</time>
      </trkpt>
      <trkpt lat="42.51646" lon="24.08327">
        <ele>725.00826</ele>
        <time>2022-03-08T08:14:12.713Z</time>
      </trkpt>
      <trkpt lat="42.51638" lon="24.08318">
        <ele>725.619397</ele>
        <time>2022-03-08T08:14:17.719Z</time>
      </trkpt>
      <trkpt lat="42.51629" lon="24.08311">
        <ele>726.190932</ele>
        <time>2022-03-08T08:14:22.700Z</time>
      </trkpt>
      <trkpt lat="42.51622" lon="24.08302">
        <ele>726.74705</ele>
        <time>2022-03-08T08:14:27.713Z</time>
      </trkpt>
      <trkpt lat="42.51615" lon="24.08294">
        <ele>726.93054</ele>
        <time>2022-03-08T08:14:32.713Z</time>
      </trkpt>
      <trkpt lat="42.51608" lon="24.08285">
        <ele>726.96762</ele>
        <time>2022-03-08T08:14:37.710Z</time>
      </trkpt>
      <trkpt lat="42.51601" lon="24.08276">
        <ele>727.004309</ele>
        <time>2022-03-08T08:14:42.724Z</time>
      </trkpt>
      <trkpt lat="42.51594" lon="24.08266">
        <ele>727.043423</ele>
        <time>2022-03-08T08:14:47.764Z</time>
      </trkpt>
      <trkpt lat="42.51587" lon="24.08257">
        <ele>727.079428</ele>
        <time>2022-03-08T08:14:52.698Z</time>
      </trkpt>
      <trkpt lat="42.51581" lon="24.08247">
        <ele>727.1154</ele>
        <time>2022-03-08T08:14:57.744Z</time>
      </trkpt>
      <trkpt lat="42.51577" lon="24.08235">
        <ele>727.154075</ele>
        <time>2022-03-08T08:15:01.714Z</time>
      </trkpt>
      <trkpt lat="42.51574" lon="24.08221">
        <ele>727.193276</ele>
        <time>2022-03-08T08:15:04.701Z</time>
      </trkpt>
      <trkpt lat="42.51572" lon="24.08204">
        <ele>727.243321</ele>
        <time>2022-03-08T08:15:07.700Z</time>
      </trkpt>
      <trkpt lat="42.51571" lon="24.0819">
        <ele>727.281839</ele>
        <time>2022-03-08T08:15:09.740Z</time>
      </trkpt>
      <trkpt lat="42.51572" lon="24.08176">
        <ele>727.322323</ele>
        <time>2022-03-08T08:15:11.698Z</time>
      </trkpt>
      <trkpt lat="42.51572" lon="24.0816">
        <ele>727.367289</ele>
        <time>2022-03-08T08:15:13.712Z</time>
      </trkpt>
      <trkpt lat="42.51572" lon="24.08145">
        <ele>727.407757</ele>
        <time>2022-03-08T08:15:15.705Z</time>
      </trkpt>
      <trkpt lat="42.51572" lon="24.08133">
        <ele>727.443547</ele>
        <time>2022-03-08T08:15:17.733Z</time>
      </trkpt>
      <trkpt lat="42.51573" lon="24.08119">
        <ele>727.48038</ele>
        <time>2022-03-08T08:15:19.725Z</time>
      </trkpt>
      <trkpt lat="42.51572" lon="24.08105">
        <ele>727.520034</ele>
        <time>2022-03-08T08:15:21.696Z</time>
      </trkpt>
      <trkpt lat="42.51572" lon="24.08091">
        <ele>727.561361</ele>
        <time>2022-03-08T08:15:23.734Z</time>
      </trkpt>
      <trkpt lat="42.51572" lon="24.08076">
        <ele>727.46056</ele>
        <time>2022-03-08T08:15:25.700Z</time>
      </trkpt>
      <trkpt lat="42.5157" lon="24.08061">
        <ele>726.983283</ele>
        <time>2022-03-08T08:15:27.711Z</time>
      </trkpt>
      <trkpt lat="42.51569" lon="24.08044">
        <ele>726.474185</ele>
        <time>2022-03-08T08:15:29.714Z</time>
      </trkpt>
      <trkpt lat="42.51569" lon="24.08027">
        <ele>725.94785</ele>
        <time>2022-03-08T08:15:31.734Z</time>
      </trkpt>
      <trkpt lat="42.51569" lon="24.08009">
        <ele>725.393705</ele>
        <time>2022-03-08T08:15:33.715Z</time>
      </trkpt>
      <trkpt lat="42.51568" lon="24.07992">
        <ele>724.85373</ele>
        <time>2022-03-08T08:15:35.711Z</time>
      </trkpt>
      <trkpt lat="42.51568" lon="24.07974">
        <ele>724.299601</ele>
        <time>2022-03-08T08:15:37.706Z</time>
      </trkpt>
      <trkpt lat="42.51568" lon="24.07954">
        <ele>723.68975</ele>
        <time>2022-03-08T08:15:39.714Z</time>
      </trkpt>
      <trkpt lat="42.51568" lon="24.07935">
        <ele>723.076285</ele>
        <time>2022-03-08T08:15:41.729Z</time>
      </trkpt>
      <trkpt lat="42.51567" lon="24.07916">
        <ele>722.496644</ele>
        <time>2022-03-08T08:15:43.687Z</time>
      </trkpt>
      <trkpt lat="42.51566" lon="24.079">
        <ele>721.990633</ele>
        <time>2022-03-08T08:15:45.697Z</time>
      </trkpt>
      <trkpt lat="42.51565" lon="24.07885">
        <ele>721.529228</ele>
        <time>2022-03-08T08:15:47.711Z</time>
      </trkpt>
      <trkpt lat="42.51564" lon="24.07869">
        <ele>721.045643</ele>
        <time>2022-03-08T08:15:49.726Z</time>
      </trkpt>
      <trkpt lat="42.51563" lon="24.07854">
        <ele>720.573582</ele>
        <time>2022-03-08T08:15:51.715Z</time>
      </trkpt>
      <trkpt lat="42.51562" lon="24.0784">
        <ele>720.128909</ele>
        <time>2022-03-08T08:15:53.755Z</time>
      </trkpt>
      <trkpt lat="42.51562" lon="24.07824">
        <ele>719.317755</ele>
        <time>2022-03-08T08:15:55.831Z</time>
      </trkpt>
      <trkpt lat="42.51562" lon="24.07807">
        <ele>718.372643</ele>
        <time>2022-03-08T08:15:57.719Z</time>
      </trkpt>
      <trkpt lat="42.51561" lon="24.07789">
        <ele>717.354749</ele>
        <time>2022-03-08T08:15:59.736Z</time>
      </trkpt>
      <trkpt lat="42.5156" lon="24.0777">
        <ele>716.290039</ele>
        <time>2022-03-08T08:16:01.705Z</time>
      </trkpt>
      <trkpt lat="42.5156" lon="24.07749">
        <ele>715.142032</ele>
        <time>2022-03-08T08:16:03.706Z</time>
      </trkpt>
      <trkpt lat="42.51561" lon="24.07728">
        <ele>713.941243</ele>
        <time>2022-03-08T08:16:05.702Z</time>
      </trkpt>
      <trkpt lat="42.51565" lon="24.07707">
        <ele>712.740985</ele>
        <time>2022-03-08T08:16:07.714Z</time>
      </trkpt>
      <trkpt lat="42.5157" lon="24.07687">
        <ele>711.55222</ele>
        <time>2022-03-08T08:16:09.733Z</time>
      </trkpt>
      <trkpt lat="42.51576" lon="24.07668">
        <ele>710.396298</ele>
        <time>2022-03-08T08:16:11.713Z</time>
      </trkpt>
      <trkpt lat="42.51581" lon="24.07654">
        <ele>709.50554</ele>
        <time>2022-03-08T08:16:13.692Z</time>
      </trkpt>
      <trkpt lat="42.51587" lon="24.07642">
        <ele>708.714524</ele>
        <time>2022-03-08T08:16:15.760Z</time>
      </trkpt>
      <trkpt lat="42.51592" lon="24.0763">
        <ele>707.924308</ele>
        <time>2022-03-08T08:16:17.709Z</time>
      </trkpt>
      <trkpt lat="42.516" lon="24.07619">
        <ele>707.059492</ele>
        <time>2022-03-08T08:16:19.711Z</time>
      </trkpt>
      <trkpt lat="42.51612" lon="24.07611">
        <ele>706.165274</ele>
        <time>2022-03-08T08:16:21.710Z</time>
      </trkpt>
      <trkpt lat="42.51626" lon="24.07605">
        <ele>705.435995</ele>
        <time>2022-03-08T08:16:23.747Z</time>
      </trkpt>
      <trkpt lat="42.51638" lon="24.07603">
        <ele>704.798124</ele>
        <time>2022-03-08T08:16:25.714Z</time>
      </trkpt>
      <trkpt lat="42.51648" lon="24.076">
        <ele>704.25713</ele>
        <time>2022-03-08T08:16:27.724Z</time>
      </trkpt>
      <trkpt lat="42.51657" lon="24.07593">
        <ele>703.726397</ele>
        <time>2022-03-08T08:16:29.719Z</time>
      </trkpt>
      <trkpt lat="42.51664" lon="24.07584">
        <ele>703.235458</ele>
        <time>2022-03-08T08:16:31.747Z</time>
      </trkpt>
      <trkpt lat="42.51669" lon="24.07568">
        <ele>702.562267</ele>
        <time>2022-03-08T08:16:34.732Z</time>
      </trkpt>
      <trkpt lat="42.51671" lon="24.07553">
        <ele>701.987196</ele>
        <time>2022-03-08T08:16:36.742Z</time>
      </trkpt>
      <trkpt lat="42.51675" lon="24.07538">
        <ele>701.381518</ele>
        <time>2022-03-08T08:16:38.715Z</time>
      </trkpt>
      <trkpt lat="42.51679" lon="24.07523">
        <ele>700.790261</ele>
        <time>2022-03-08T08:16:40.719Z</time>
      </trkpt>
      <trkpt lat="42.51683" lon="24.07508">
        <ele>700.184583</ele>
        <time>2022-03-08T08:16:42.759Z</time>
      </trkpt>
      <trkpt lat="42.51687" lon="24.07493">
        <ele>699.591346</ele>
        <time>2022-03-08T08:16:44.698Z</time>
      </trkpt>
      <trkpt lat="42.51691" lon="24.07479">
        <ele>699.001822</ele>
        <time>2022-03-08T08:16:46.711Z</time>
      </trkpt>
      <trkpt lat="42.51694" lon="24.07465">
        <ele>698.449716</ele>
        <time>2022-03-08T08:16:48.704Z</time>
      </trkpt>
      <trkpt lat="42.517" lon="24.07448">
        <ele>697.748945</ele>
        <time>2022-03-08T08:16:51.732Z</time>
      </trkpt>
      <trkpt lat="42.51703" lon="24.07436">
        <ele>697.264536</ele>
        <time>2022-03-08T08:16:53.742Z</time>
      </trkpt>
      <trkpt lat="42.51707" lon="24.07424">
        <ele>696.760782</ele>
        <time>2022-03-08T08:16:55.706Z</time>
      </trkpt>
      <trkpt lat="42.51709" lon="24.0741">
        <ele>696.219567</ele>
        <time>2022-03-08T08:16:57.713Z</time>
      </trkpt>
      <trkpt lat="42.51712" lon="24.07396">
        <ele>695.659948</ele>
        <time>2022-03-08T08:16:59.715Z</time>
      </trkpt>
      <trkpt lat="42.51715" lon="24.07381">
        <ele>695.064315</ele>
        <time>2022-03-08T08:17:01.700Z</time>
      </trkpt>
      <trkpt lat="42.51718" lon="24.07366">
        <ele>694.475075</ele>
        <time>2022-03-08T08:17:03.706Z</time>
      </trkpt>
      <trkpt lat="42.51722" lon="24.07351">
        <ele>693.892523</ele>
        <time>2022-03-08T08:17:05.701Z</time>
      </trkpt>
      <trkpt lat="42.51725" lon="24.07337">
        <ele>693.323248</ele>
        <time>2022-03-08T08:17:07.701Z</time>
      </trkpt>
      <trkpt lat="42.51728" lon="24.07323">
        <ele>692.778426</ele>
        <time>2022-03-08T08:17:09.707Z</time>
      </trkpt>
      <trkpt lat="42.51732" lon="24.0731">
        <ele>692.230353</ele>
        <time>2022-03-08T08:17:11.714Z</time>
      </trkpt>
      <trkpt lat="42.51737" lon="24.07296">
        <ele>691.665859</ele>
        <time>2022-03-08T08:17:13.710Z</time>
      </trkpt>
      <trkpt lat="42.51742" lon="24.07284">
        <ele>691.125018</ele>
        <time>2022-03-08T08:17:15.733Z</time>
      </trkpt>
      <trkpt lat="42.51748" lon="24.07273">
        <ele>690.624486</ele>
        <time>2022-03-08T08:17:17.720Z</time>
      </trkpt>
      <trkpt lat="42.51753" lon="24.07263">
        <ele>690.162016</ele>
        <time>2022-03-08T08:17:19.718Z</time>
      </trkpt>
      <trkpt lat="42.51758" lon="24.07252">
        <ele>689.665618</ele>
        <time>2022-03-08T08:17:21.718Z</time>
      </trkpt>
      <trkpt lat="42.51764" lon="24.07239">
        <ele>689.112764</ele>
        <time>2022-03-08T08:17:23.714Z</time>
      </trkpt>
      <trkpt lat="42.5177" lon="24.07227">
        <ele>688.544443</ele>
        <time>2022-03-08T08:17:25.716Z</time>
      </trkpt>
      <trkpt lat="42.51775" lon="24.07214">
        <ele>687.980387</ele>
        <time>2022-03-08T08:17:27.699Z</time>
      </trkpt>
      <trkpt lat="42.5178" lon="24.07201">
        <ele>687.326093</ele>
        <time>2022-03-08T08:17:29.735Z</time>
      </trkpt>
      <trkpt lat="42.51786" lon="24.07188">
        <ele>686.655017</ele>
        <time>2022-03-08T08:17:31.697Z</time>
      </trkpt>
      <trkpt lat="42.51793" lon="24.07175">
        <ele>685.957802</ele>
        <time>2022-03-08T08:17:33.712Z</time>
      </trkpt>
      <trkpt lat="42.518" lon="24.07162">
        <ele>685.221493</ele>
        <time>2022-03-08T08:17:35.705Z</time>
      </trkpt>
      <trkpt lat="42.51808" lon="24.07149">
        <ele>684.490194</ele>
        <time>2022-03-08T08:17:37.711Z</time>
      </trkpt>
      <trkpt lat="42.51815" lon="24.07138">
        <ele>683.816556</ele>
        <time>2022-03-08T08:17:39.731Z</time>
      </trkpt>
      <trkpt lat="42.51824" lon="24.07124">
        <ele>683.022445</ele>
        <time>2022-03-08T08:17:42.705Z</time>
      </trkpt>
      <trkpt lat="42.51833" lon="24.07111">
        <ele>682.215109</ele>
        <time>2022-03-08T08:17:45.730Z</time>
      </trkpt>
      <trkpt lat="42.51842" lon="24.07102">
        <ele>681.534344</ele>
        <time>2022-03-08T08:17:47.716Z</time>
      </trkpt>
      <trkpt lat="42.51852" lon="24.07093">
        <ele>680.812509</ele>
        <time>2022-03-08T08:17:49.762Z</time>
      </trkpt>
      <trkpt lat="42.51861" lon="24.07086">
        <ele>680.182948</ele>
        <time>2022-03-08T08:17:51.700Z</time>
      </trkpt>
      <trkpt lat="42.51868" lon="24.07077">
        <ele>679.572597</ele>
        <time>2022-03-08T08:17:53.711Z</time>
      </trkpt>
      <trkpt lat="42.51875" lon="24.07064">
        <ele>678.878425</ele>
        <time>2022-03-08T08:17:55.777Z</time>
      </trkpt>
      <trkpt lat="42.51878" lon="24.07049">
        <ele>678.13629</ele>
        <time>2022-03-08T08:17:57.705Z</time>
      </trkpt>
      <trkpt lat="42.51877" lon="24.07033">
        <ele>677.450402</ele>
        <time>2022-03-08T08:17:59.720Z</time>
      </trkpt>
      <trkpt lat="42.51872" lon="24.07022">
        <ele>676.861926</ele>
        <time>2022-03-08T08:18:01.704Z</time>
      </trkpt>
      <trkpt lat="42.51865" lon="24.07013">
        <ele>676.340833</ele>
        <time>2022-03-08T08:18:03.711Z</time>
      </trkpt>
      <trkpt lat="42.51854" lon="24.07003">
        <ele>675.610996</ele>
        <time>2022-03-08T08:18:06.793Z</time>
      </trkpt>
      <trkpt lat="42.51846" lon="24.06995">
        <ele>675.079096</ele>
        <time>2022-03-08T08:18:08.702Z</time>
      </trkpt>
      <trkpt lat="42.51836" lon="24.06987">
        <ele>674.452286</ele>
        <time>2022-03-08T08:18:10.705Z</time>
      </trkpt>
      <trkpt lat="42.51826" lon="24.06979">
        <ele>673.828296</ele>
        <time>2022-03-08T08:18:12.740Z</time>
      </trkpt>
      <trkpt lat="42.51817" lon="24.06973">
        <ele>673.269068</ele>
        <time>2022-03-08T08:18:14.709Z</time>
      </trkpt>
      <trkpt lat="42.51807" lon="24.06968">
        <ele>672.709261</ele>
        <time>2022-03-08T08:18:16.717Z</time>
      </trkpt>
      <trkpt lat="42.51798" lon="24.06965">
        <ele>672.166744</ele>
        <time>2022-03-08T08:18:18.716Z</time>
      </trkpt>
      <trkpt lat="42.51788" lon="24.06962">
        <ele>671.61701</ele>
        <time>2022-03-08T08:18:20.729Z</time>
      </trkpt>
      <trkpt lat="42.51777" lon="24.06959">
        <ele>671.032857</ele>
        <time>2022-03-08T08:18:22.769Z</time>
      </trkpt>
      <trkpt lat="42.51766" lon="24.06956">
        <ele>670.429288</ele>
        <time>2022-03-08T08:18:24.718Z</time>
      </trkpt>
      <trkpt lat="42.51756" lon="24.06951">
        <ele>669.824802</ele>
        <time>2022-03-08T08:18:26.718Z</time>
      </trkpt>
      <trkpt lat="42.51745" lon="24.06944">
        <ele>669.159458</ele>
        <time>2022-03-08T08:18:28.746Z</time>
      </trkpt>
      <trkpt lat="42.51735" lon="24.06934">
        <ele>668.515152</ele>
        <time>2022-03-08T08:18:30.713Z</time>
      </trkpt>
      <trkpt lat="42.51726" lon="24.06926">
        <ele>667.886656</ele>
        <time>2022-03-08T08:18:32.714Z</time>
      </trkpt>
      <trkpt lat="42.51716" lon="24.06917">
        <ele>667.267139</ele>
        <time>2022-03-08T08:18:34.715Z</time>
      </trkpt>
      <trkpt lat="42.51707" lon="24.06909">
        <ele>666.342178</ele>
        <time>2022-03-08T08:18:36.694Z</time>
      </trkpt>
      <trkpt lat="42.51696" lon="24.069">
        <ele>665.300441</ele>
        <time>2022-03-08T08:18:38.709Z</time>
      </trkpt>
      <trkpt lat="42.51686" lon="24.06889">
        <ele>664.229139</ele>
        <time>2022-03-08T08:18:40.731Z</time>
      </trkpt>
      <trkpt lat="42.51676" lon="24.06879">
        <ele>663.159301</ele>
        <time>2022-03-08T08:18:42.743Z</time>
      </trkpt>
      <trkpt lat="42.51666" lon="24.06868">
        <ele>662.053501</ele>
        <time>2022-03-08T08:18:44.719Z</time>
      </trkpt>
      <trkpt lat="42.51657" lon="24.06859">
        <ele>661.08239</ele>
        <time>2022-03-08T08:18:46.712Z</time>
      </trkpt>
      <trkpt lat="42.51649" lon="24.06849">
        <ele>660.168847</ele>
        <time>2022-03-08T08:18:48.712Z</time>
      </trkpt>
      <trkpt lat="42.5164" lon="24.0684">
        <ele>659.235829</ele>
        <time>2022-03-08T08:18:50.740Z</time>
      </trkpt>
      <trkpt lat="42.51632" lon="24.06828">
        <ele>658.214402</ele>
        <time>2022-03-08T08:18:52.711Z</time>
      </trkpt>
      <trkpt lat="42.51624" lon="24.06816">
        <ele>657.210595</ele>
        <time>2022-03-08T08:18:54.714Z</time>
      </trkpt>
      <trkpt lat="42.51616" lon="24.06804">
        <ele>656.236738</ele>
        <time>2022-03-08T08:18:56.703Z</time>
      </trkpt>
      <trkpt lat="42.51608" lon="24.06792">
        <ele>655.22855</ele>
        <time>2022-03-08T08:18:58.726Z</time>
      </trkpt>
      <trkpt lat="42.516" lon="24.0678">
        <ele>654.209761</ele>
        <time>2022-03-08T08:19:00.702Z</time>
      </trkpt>
      <trkpt lat="42.51593" lon="24.06768">
        <ele>653.218285</ele>
        <time>2022-03-08T08:19:02.739Z</time>
      </trkpt>
      <trkpt lat="42.51585" lon="24.06755">
        <ele>652.217102</ele>
        <time>2022-03-08T08:19:04.709Z</time>
      </trkpt>
      <trkpt lat="42.51578" lon="24.06743">
        <ele>651.746013</ele>
        <time>2022-03-08T08:19:06.722Z</time>
      </trkpt>
      <trkpt lat="42.51571" lon="24.0673">
        <ele>651.463271</ele>
        <time>2022-03-08T08:19:08.706Z</time>
      </trkpt>
      <trkpt lat="42.51564" lon="24.06718">
        <ele>651.180529</ele>
        <time>2022-03-08T08:19:10.702Z</time>
      </trkpt>
      <trkpt lat="42.51556" lon="24.06707">
        <ele>650.907328</ele>
        <time>2022-03-08T08:19:12.726Z</time>
      </trkpt>
      <trkpt lat="42.51549" lon="24.06695">
        <ele>650.620929</ele>
        <time>2022-03-08T08:19:14.732Z</time>
      </trkpt>
      <trkpt lat="42.51541" lon="24.06682">
        <ele>650.328848</ele>
        <time>2022-03-08T08:19:16.689Z</time>
      </trkpt>
      <trkpt lat="42.51533" lon="24.0667">
        <ele>650.038129</ele>
        <time>2022-03-08T08:19:18.694Z</time>
      </trkpt>
      <trkpt lat="42.51525" lon="24.06657">
        <ele>649.72853</ele>
        <time>2022-03-08T08:19:20.701Z</time>
      </trkpt>
      <trkpt lat="42.51516" lon="24.06643">
        <ele>649.398687</ele>
        <time>2022-03-08T08:19:22.717Z</time>
      </trkpt>
      <trkpt lat="42.51507" lon="24.06629">
        <ele>649.062927</ele>
        <time>2022-03-08T08:19:24.717Z</time>
      </trkpt>
      <trkpt lat="42.51498" lon="24.06615">
        <ele>648.733295</ele>
        <time>2022-03-08T08:19:26.714Z</time>
      </trkpt>
      <trkpt lat="42.51489" lon="24.06601">
        <ele>648.399128</ele>
        <time>2022-03-08T08:19:28.714Z</time>
      </trkpt>
      <trkpt lat="42.51481" lon="24.06587">
        <ele>648.071231</ele>
        <time>2022-03-08T08:19:30.713Z</time>
      </trkpt>
      <trkpt lat="42.51472" lon="24.06572">
        <ele>647.730462</ele>
        <time>2022-03-08T08:19:32.699Z</time>
      </trkpt>
      <trkpt lat="42.51464" lon="24.06557">
        <ele>647.360176</ele>
        <time>2022-03-08T08:19:34.736Z</time>
      </trkpt>
      <trkpt lat="42.51456" lon="24.06541">
        <ele>646.948328</ele>
        <time>2022-03-08T08:19:36.723Z</time>
      </trkpt>
      <trkpt lat="42.51448" lon="24.06525">
        <ele>646.53648</ele>
        <time>2022-03-08T08:19:38.696Z</time>
      </trkpt>
      <trkpt lat="42.5144" lon="24.06509">
        <ele>646.114075</ele>
        <time>2022-03-08T08:19:40.695Z</time>
      </trkpt>
      <trkpt lat="42.51431" lon="24.06492">
        <ele>645.675096</ele>
        <time>2022-03-08T08:19:42.715Z</time>
      </trkpt>
      <trkpt lat="42.51422" lon="24.06474">
        <ele>645.230584</ele>
        <time>2022-03-08T08:19:44.710Z</time>
      </trkpt>
      <trkpt lat="42.51414" lon="24.06458">
        <ele>644.815447</ele>
        <time>2022-03-08T08:19:46.724Z</time>
      </trkpt>
      <trkpt lat="42.51407" lon="24.06443">
        <ele>644.435639</ele>
        <time>2022-03-08T08:19:48.710Z</time>
      </trkpt>
      <trkpt lat="42.514" lon="24.06428">
        <ele>644.060939</ele>
        <time>2022-03-08T08:19:50.704Z</time>
      </trkpt>
      <trkpt lat="42.51393" lon="24.06413">
        <ele>643.680907</ele>
        <time>2022-03-08T08:19:52.709Z</time>
      </trkpt>
      <trkpt lat="42.51385" lon="24.06398">
        <ele>643.292944</ele>
        <time>2022-03-08T08:19:54.715Z</time>
      </trkpt>
      <trkpt lat="42.51379" lon="24.06384">
        <ele>642.940925</ele>
        <time>2022-03-08T08:19:56.752Z</time>
      </trkpt>
      <trkpt lat="42.51373" lon="24.06368">
        <ele>642.559254</ele>
        <time>2022-03-08T08:19:58.696Z</time>
      </trkpt>
      <trkpt lat="42.51366" lon="24.06352">
        <ele>642.058188</ele>
        <time>2022-03-08T08:20:00.731Z</time>
      </trkpt>
      <trkpt lat="42.5136" lon="24.06339">
        <ele>641.531728</ele>
        <time>2022-03-08T08:20:02.759Z</time>
      </trkpt>
      <trkpt lat="42.51353" lon="24.06326">
        <ele>641.017706</ele>
        <time>2022-03-08T08:20:04.748Z</time>
      </trkpt>
      <trkpt lat="42.51348" lon="24.06313">
        <ele>640.522696</ele>
        <time>2022-03-08T08:20:06.735Z</time>
      </trkpt>
      <trkpt lat="42.51342" lon="24.06299">
        <ele>640.010651</ele>
        <time>2022-03-08T08:20:08.694Z</time>
      </trkpt>
      <trkpt lat="42.51335" lon="24.06287">
        <ele>639.484086</ele>
        <time>2022-03-08T08:20:10.697Z</time>
      </trkpt>
      <trkpt lat="42.51326" lon="24.06275">
        <ele>638.929798</ele>
        <time>2022-03-08T08:20:12.704Z</time>
      </trkpt>
      <trkpt lat="42.51318" lon="24.06262">
        <ele>638.36694</ele>
        <time>2022-03-08T08:20:14.783Z</time>
      </trkpt>
      <trkpt lat="42.5131" lon="24.0625">
        <ele>637.829073</ele>
        <time>2022-03-08T08:20:16.665Z</time>
      </trkpt>
      <trkpt lat="42.51302" lon="24.06238">
        <ele>637.315345</ele>
        <time>2022-03-08T08:20:18.696Z</time>
      </trkpt>
      <trkpt lat="42.51295" lon="24.06226">
        <ele>636.785407</ele>
        <time>2022-03-08T08:20:20.690Z</time>
      </trkpt>
      <trkpt lat="42.51286" lon="24.06212">
        <ele>636.188335</ele>
        <time>2022-03-08T08:20:22.696Z</time>
      </trkpt>
      <trkpt lat="42.51276" lon="24.06199">
        <ele>635.551725</ele>
        <time>2022-03-08T08:20:24.716Z</time>
      </trkpt>
      <trkpt lat="42.51265" lon="24.06183">
        <ele>634.846036</ele>
        <time>2022-03-08T08:20:26.696Z</time>
      </trkpt>
      <trkpt lat="42.51256" lon="24.06168">
        <ele>634.19426</ele>
        <time>2022-03-08T08:20:28.743Z</time>
      </trkpt>
      <trkpt lat="42.51247" lon="24.06154">
        <ele>633.583157</ele>
        <time>2022-03-08T08:20:30.718Z</time>
      </trkpt>
      <trkpt lat="42.51238" lon="24.06141">
        <ele>632.984466</ele>
        <time>2022-03-08T08:20:32.702Z</time>
      </trkpt>
      <trkpt lat="42.51229" lon="24.0613">
        <ele>632.437203</ele>
        <time>2022-03-08T08:20:34.706Z</time>
      </trkpt>
      <trkpt lat="42.51221" lon="24.0612">
        <ele>631.943316</ele>
        <time>2022-03-08T08:20:36.704Z</time>
      </trkpt>
      <trkpt lat="42.51211" lon="24.06111">
        <ele>631.428701</ele>
        <time>2022-03-08T08:20:38.702Z</time>
      </trkpt>
      <trkpt lat="42.51203" lon="24.06101">
        <ele>630.919172</ele>
        <time>2022-03-08T08:20:40.754Z</time>
      </trkpt>
      <trkpt lat="42.51195" lon="24.06091">
        <ele>630.42521</ele>
        <time>2022-03-08T08:20:42.707Z</time>
      </trkpt>
      <trkpt lat="42.51186" lon="24.0608">
        <ele>629.895287</ele>
        <time>2022-03-08T08:20:44.703Z</time>
      </trkpt>
      <trkpt lat="42.51178" lon="24.06067">
        <ele>629.34704</ele>
        <time>2022-03-08T08:20:46.704Z</time>
      </trkpt>
      <trkpt lat="42.51171" lon="24.06054">
        <ele>628.791708</ele>
        <time>2022-03-08T08:20:48.702Z</time>
      </trkpt>
      <trkpt lat="42.51165" lon="24.06039">
        <ele>628.234952</ele>
        <time>2022-03-08T08:20:50.681Z</time>
      </trkpt>
      <trkpt lat="42.51161" lon="24.06023">
        <ele>627.65918</ele>
        <time>2022-03-08T08:20:52.716Z</time>
      </trkpt>
      <trkpt lat="42.51158" lon="24.06005">
        <ele>627.057817</ele>
        <time>2022-03-08T08:20:54.699Z</time>
      </trkpt>
      <trkpt lat="42.51156" lon="24.05986">
        <ele>626.417339</ele>
        <time>2022-03-08T08:20:56.734Z</time>
      </trkpt>
      <trkpt lat="42.51155" lon="24.05967">
        <ele>625.405031</ele>
        <time>2022-03-08T08:20:58.707Z</time>
      </trkpt>
      <trkpt lat="42.51154" lon="24.05951">
        <ele>624.431426</ele>
        <time>2022-03-08T08:21:00.705Z</time>
      </trkpt>
      <trkpt lat="42.51153" lon="24.05936">
        <ele>623.494085</ele>
        <time>2022-03-08T08:21:02.701Z</time>
      </trkpt>
      <trkpt lat="42.51152" lon="24.05922">
        <ele>622.600971</ele>
        <time>2022-03-08T08:21:04.714Z</time>
      </trkpt>
      <trkpt lat="42.51149" lon="24.05906">
        <ele>621.593142</ele>
        <time>2022-03-08T08:21:06.714Z</time>
      </trkpt>
      <trkpt lat="42.51142" lon="24.05889">
        <ele>620.374523</ele>
        <time>2022-03-08T08:21:08.757Z</time>
      </trkpt>
      <trkpt lat="42.51136" lon="24.05872">
        <ele>619.177201</ele>
        <time>2022-03-08T08:21:10.695Z</time>
      </trkpt>
      <trkpt lat="42.51133" lon="24.05855">
        <ele>618.120184</ele>
        <time>2022-03-08T08:21:12.712Z</time>
      </trkpt>
      <trkpt lat="42.5113" lon="24.0584">
        <ele>617.147463</ele>
        <time>2022-03-08T08:21:14.703Z</time>
      </trkpt>
      <trkpt lat="42.51127" lon="24.05825">
        <ele>616.176568</ele>
        <time>2022-03-08T08:21:16.706Z</time>
      </trkpt>
      <trkpt lat="42.51126" lon="24.05808">
        <ele>615.148514</ele>
        <time>2022-03-08T08:21:18.691Z</time>
      </trkpt>
      <trkpt lat="42.51127" lon="24.0579">
        <ele>614.036368</ele>
        <time>2022-03-08T08:21:20.696Z</time>
      </trkpt>
      <trkpt lat="42.51129" lon="24.05771">
        <ele>612.862914</ele>
        <time>2022-03-08T08:21:22.703Z</time>
      </trkpt>
      <trkpt lat="42.51131" lon="24.05753">
        <ele>611.699163</ele>
        <time>2022-03-08T08:21:24.703Z</time>
      </trkpt>
      <trkpt lat="42.51132" lon="24.05736">
        <ele>611.006912</ele>
        <time>2022-03-08T08:21:26.713Z</time>
      </trkpt>
      <trkpt lat="42.51131" lon="24.05718">
        <ele>610.755023</ele>
        <time>2022-03-08T08:21:28.694Z</time>
      </trkpt>
      <trkpt lat="42.51128" lon="24.05701">
        <ele>610.499789</ele>
        <time>2022-03-08T08:21:30.743Z</time>
      </trkpt>
      <trkpt lat="42.51126" lon="24.05683">
        <ele>610.251269</ele>
        <time>2022-03-08T08:21:32.716Z</time>
      </trkpt>
      <trkpt lat="42.51126" lon="24.05666">
        <ele>609.998139</ele>
        <time>2022-03-08T08:21:34.680Z</time>
      </trkpt>
      <trkpt lat="42.51126" lon="24.0565">
        <ele>609.766523</ele>
        <time>2022-03-08T08:21:36.690Z</time>
      </trkpt>
      <trkpt lat="42.51126" lon="24.05632">
        <ele>609.51629</ele>
        <time>2022-03-08T08:21:38.704Z</time>
      </trkpt>
      <trkpt lat="42.51126" lon="24.05611">
        <ele>609.218849</ele>
        <time>2022-03-08T08:21:40.692Z</time>
      </trkpt>
      <trkpt lat="42.51123" lon="24.0559">
        <ele>608.905861</ele>
        <time>2022-03-08T08:21:42.703Z</time>
      </trkpt>
      <trkpt lat="42.51113" lon="24.05571">
        <ele>608.581275</ele>
        <time>2022-03-08T08:21:44.698Z</time>
      </trkpt>
      <trkpt lat="42.51104" lon="24.05556">
        <ele>608.302419</ele>
        <time>2022-03-08T08:21:46.712Z</time>
      </trkpt>
      <trkpt lat="42.51096" lon="24.05542">
        <ele>608.042325</ele>
        <time>2022-03-08T08:21:48.754Z</time>
      </trkpt>
      <trkpt lat="42.5109" lon="24.05529">
        <ele>607.819891</ele>
        <time>2022-03-08T08:21:50.701Z</time>
      </trkpt>
      <trkpt lat="42.51084" lon="24.05515">
        <ele>607.489512</ele>
        <time>2022-03-08T08:21:52.720Z</time>
      </trkpt>
      <trkpt lat="42.5108" lon="24.055">
        <ele>606.717646</ele>
        <time>2022-03-08T08:21:54.706Z</time>
      </trkpt>
      <trkpt lat="42.51078" lon="24.05486">
        <ele>606.001891</ele>
        <time>2022-03-08T08:21:56.715Z</time>
      </trkpt>
      <trkpt lat="42.51078" lon="24.0547">
        <ele>605.232029</ele>
        <time>2022-03-08T08:21:58.714Z</time>
      </trkpt>
      <trkpt lat="42.51083" lon="24.05454">
        <ele>604.379256</ele>
        <time>2022-03-08T08:22:00.694Z</time>
      </trkpt>
      <trkpt lat="42.51089" lon="24.05438">
        <ele>603.4862</ele>
        <time>2022-03-08T08:22:02.695Z</time>
      </trkpt>
      <trkpt lat="42.51095" lon="24.05423">
        <ele>602.641756</ele>
        <time>2022-03-08T08:22:04.722Z</time>
      </trkpt>
      <trkpt lat="42.51101" lon="24.05406">
        <ele>601.731038</ele>
        <time>2022-03-08T08:22:06.712Z</time>
      </trkpt>
      <trkpt lat="42.51108" lon="24.0539">
        <ele>600.836273</ele>
        <time>2022-03-08T08:22:08.699Z</time>
      </trkpt>
      <trkpt lat="42.51112" lon="24.05373">
        <ele>599.948422</ele>
        <time>2022-03-08T08:22:10.698Z</time>
      </trkpt>
      <trkpt lat="42.51115" lon="24.05355">
        <ele>599.031555</ele>
        <time>2022-03-08T08:22:12.702Z</time>
      </trkpt>
      <trkpt lat="42.51117" lon="24.05338">
        <ele>598.198149</ele>
        <time>2022-03-08T08:22:14.708Z</time>
      </trkpt>
      <trkpt lat="42.51116" lon="24.05322">
        <ele>597.389312</ele>
        <time>2022-03-08T08:22:16.733Z</time>
      </trkpt>
      <trkpt lat="42.51116" lon="24.05306">
        <ele>596.581441</ele>
        <time>2022-03-08T08:22:18.715Z</time>
      </trkpt>
      <trkpt lat="42.51117" lon="24.0529">
        <ele>595.825388</ele>
        <time>2022-03-08T08:22:20.691Z</time>
      </trkpt>
      <trkpt lat="42.51117" lon="24.05274">
        <ele>595.364707</ele>
        <time>2022-03-08T08:22:22.713Z</time>
      </trkpt>
      <trkpt lat="42.51118" lon="24.05257">
        <ele>594.989391</ele>
        <time>2022-03-08T08:22:24.713Z</time>
      </trkpt>
      <trkpt lat="42.5112" lon="24.05238">
        <ele>594.59757</ele>
        <time>2022-03-08T08:22:26.712Z</time>
      </trkpt>
      <trkpt lat="42.51123" lon="24.05221">
        <ele>594.219264</ele>
        <time>2022-03-08T08:22:28.724Z</time>
      </trkpt>
      <trkpt lat="42.51128" lon="24.05203">
        <ele>593.813789</ele>
        <time>2022-03-08T08:22:30.708Z</time>
      </trkpt>
      <trkpt lat="42.51134" lon="24.05186">
        <ele>593.42059</ele>
        <time>2022-03-08T08:22:32.704Z</time>
      </trkpt>
      <trkpt lat="42.5114" lon="24.0517">
        <ele>593.033035</ele>
        <time>2022-03-08T08:22:34.702Z</time>
      </trkpt>
      <trkpt lat="42.51147" lon="24.05153">
        <ele>592.635339</ele>
        <time>2022-03-08T08:22:36.714Z</time>
      </trkpt>
      <trkpt lat="42.51152" lon="24.05135">
        <ele>592.229923</ele>
        <time>2022-03-08T08:22:38.709Z</time>
      </trkpt>
      <trkpt lat="42.51155" lon="24.05118">
        <ele>591.843873</ele>
        <time>2022-03-08T08:22:40.692Z</time>
      </trkpt>
      <trkpt lat="42.51156" lon="24.05099">
        <ele>591.444028</ele>
        <time>2022-03-08T08:22:42.688Z</time>
      </trkpt>
      <trkpt lat="42.51157" lon="24.05079">
        <ele>591.022766</ele>
        <time>2022-03-08T08:22:44.699Z</time>
      </trkpt>
      <trkpt lat="42.51158" lon="24.05059">
        <ele>590.601115</ele>
        <time>2022-03-08T08:22:46.738Z</time>
      </trkpt>
      <trkpt lat="42.51159" lon="24.0504">
        <ele>590.069088</ele>
        <time>2022-03-08T08:22:48.713Z</time>
      </trkpt>
      <trkpt lat="42.5116" lon="24.05023">
        <ele>589.49974</ele>
        <time>2022-03-08T08:22:50.712Z</time>
      </trkpt>
      <trkpt lat="42.51159" lon="24.05004">
        <ele>588.883307</ele>
        <time>2022-03-08T08:22:52.717Z</time>
      </trkpt>
      <trkpt lat="42.51155" lon="24.04984">
        <ele>588.211043</ele>
        <time>2022-03-08T08:22:54.705Z</time>
      </trkpt>
      <trkpt lat="42.51148" lon="24.04966">
        <ele>587.564209</ele>
        <time>2022-03-08T08:22:56.706Z</time>
      </trkpt>
      <trkpt lat="42.51139" lon="24.04952">
        <ele>586.958058</ele>
        <time>2022-03-08T08:22:58.711Z</time>
      </trkpt>
      <trkpt lat="42.51131" lon="24.0494">
        <ele>586.426435</ele>
        <time>2022-03-08T08:23:00.701Z</time>
      </trkpt>
      <trkpt lat="42.51123" lon="24.04929">
        <ele>585.949672</ele>
        <time>2022-03-08T08:23:02.685Z</time>
      </trkpt>
      <trkpt lat="42.51116" lon="24.04918">
        <ele>585.450619</ele>
        <time>2022-03-08T08:23:04.704Z</time>
      </trkpt>
      <trkpt lat="42.51107" lon="24.04907">
        <ele>584.933812</ele>
        <time>2022-03-08T08:23:06.746Z</time>
      </trkpt>
      <trkpt lat="42.511" lon="24.04895">
        <ele>584.440067</ele>
        <time>2022-03-08T08:23:08.713Z</time>
      </trkpt>
      <trkpt lat="42.51093" lon="24.04884">
        <ele>583.964259</ele>
        <time>2022-03-08T08:23:10.714Z</time>
      </trkpt>
      <trkpt lat="42.51084" lon="24.04875">
        <ele>583.474217</ele>
        <time>2022-03-08T08:23:12.705Z</time>
      </trkpt>
      <trkpt lat="42.51076" lon="24.04865">
        <ele>583.000113</ele>
        <time>2022-03-08T08:23:14.708Z</time>
      </trkpt>
      <trkpt lat="42.5107" lon="24.04854">
        <ele>582.564047</ele>
        <time>2022-03-08T08:23:16.728Z</time>
      </trkpt>
      <trkpt lat="42.51064" lon="24.04845">
        <ele>582.103992</ele>
        <time>2022-03-08T08:23:18.700Z</time>
      </trkpt>
      <trkpt lat="42.51055" lon="24.04831">
        <ele>581.42528</ele>
        <time>2022-03-08T08:23:21.714Z</time>
      </trkpt>
      <trkpt lat="42.51048" lon="24.04822">
        <ele>580.945009</ele>
        <time>2022-03-08T08:23:23.704Z</time>
      </trkpt>
      <trkpt lat="42.51041" lon="24.04813">
        <ele>580.459504</ele>
        <time>2022-03-08T08:23:25.709Z</time>
      </trkpt>
      <trkpt lat="42.51034" lon="24.04803">
        <ele>579.944899</ele>
        <time>2022-03-08T08:23:27.718Z</time>
      </trkpt>
      <trkpt lat="42.51027" lon="24.04793">
        <ele>579.432413</ele>
        <time>2022-03-08T08:23:29.741Z</time>
      </trkpt>
      <trkpt lat="42.51021" lon="24.04781">
        <ele>578.898233</ele>
        <time>2022-03-08T08:23:31.717Z</time>
      </trkpt>
      <trkpt lat="42.51015" lon="24.04768">
        <ele>578.341345</ele>
        <time>2022-03-08T08:23:33.752Z</time>
      </trkpt>
      <trkpt lat="42.51011" lon="24.04754">
        <ele>577.761639</ele>
        <time>2022-03-08T08:23:35.716Z</time>
      </trkpt>
      <trkpt lat="42.51006" lon="24.0474">
        <ele>577.181931</ele>
        <time>2022-03-08T08:23:37.715Z</time>
      </trkpt>
      <trkpt lat="42.51003" lon="24.04725">
        <ele>576.600274</ele>
        <time>2022-03-08T08:23:39.796Z</time>
      </trkpt>
      <trkpt lat="42.50999" lon="24.04709">
        <ele>575.996527</ele>
        <time>2022-03-08T08:23:41.722Z</time>
      </trkpt>
      <trkpt lat="42.50995" lon="24.04695">
        <ele>575.42067</ele>
        <time>2022-03-08T08:23:43.726Z</time>
      </trkpt>
      <trkpt lat="42.50991" lon="24.0468">
        <ele>574.831186</ele>
        <time>2022-03-08T08:23:45.711Z</time>
      </trkpt>
      <trkpt lat="42.50986" lon="24.04664">
        <ele>574.198097</ele>
        <time>2022-03-08T08:23:47.732Z</time>
      </trkpt>
      <trkpt lat="42.50983" lon="24.04647">
        <ele>573.570223</ele>
        <time>2022-03-08T08:23:49.731Z</time>
      </trkpt>
      <trkpt lat="42.50981" lon="24.04631">
        <ele>573.304549</ele>
        <time>2022-03-08T08:23:51.706Z</time>
      </trkpt>
      <trkpt lat="42.50977" lon="24.04615">
        <ele>573.059944</ele>
        <time>2022-03-08T08:23:53.705Z</time>
      </trkpt>
      <trkpt lat="42.50971" lon="24.04598">
        <ele>572.800769</ele>
        <time>2022-03-08T08:23:55.714Z</time>
      </trkpt>
      <trkpt lat="42.50962" lon="24.04587">
        <ele>572.571302</ele>
        <time>2022-03-08T08:23:57.725Z</time>
      </trkpt>
      <trkpt lat="42.50952" lon="24.04576">
        <ele>572.329206</ele>
        <time>2022-03-08T08:23:59.745Z</time>
      </trkpt>
      <trkpt lat="42.50944" lon="24.04564">
        <ele>572.096761</ele>
        <time>2022-03-08T08:24:01.717Z</time>
      </trkpt>
      <trkpt lat="42.50935" lon="24.04554">
        <ele>571.879859</ele>
        <time>2022-03-08T08:24:03.727Z</time>
      </trkpt>
      <trkpt lat="42.50927" lon="24.04545">
        <ele>571.68126</ele>
        <time>2022-03-08T08:24:05.731Z</time>
      </trkpt>
      <trkpt lat="42.5092" lon="24.04535">
        <ele>571.483119</ele>
        <time>2022-03-08T08:24:07.714Z</time>
      </trkpt>
      <trkpt lat="42.50914" lon="24.04525">
        <ele>571.304179</ele>
        <time>2022-03-08T08:24:09.703Z</time>
      </trkpt>
      <trkpt lat="42.50908" lon="24.04515">
        <ele>571.111242</ele>
        <time>2022-03-08T08:24:11.721Z</time>
      </trkpt>
      <trkpt lat="42.50901" lon="24.04505">
        <ele>570.919383</ele>
        <time>2022-03-08T08:24:13.703Z</time>
      </trkpt>
      <trkpt lat="42.50895" lon="24.04495">
        <ele>570.730921</ele>
        <time>2022-03-08T08:24:15.703Z</time>
      </trkpt>
      <trkpt lat="42.5089" lon="24.04483">
        <ele>570.535172</ele>
        <time>2022-03-08T08:24:17.755Z</time>
      </trkpt>
      <trkpt lat="42.50885" lon="24.0447">
        <ele>570.327305</ele>
        <time>2022-03-08T08:24:19.724Z</time>
      </trkpt>
      <trkpt lat="42.50878" lon="24.04456">
        <ele>570.101503</ele>
        <time>2022-03-08T08:24:21.700Z</time>
      </trkpt>
      <trkpt lat="42.50873" lon="24.04444">
        <ele>570.328497</ele>
        <time>2022-03-08T08:24:23.716Z</time>
      </trkpt>
      <trkpt lat="42.50868" lon="24.04427">
        <ele>570.74163</ele>
        <time>2022-03-08T08:24:26.724Z</time>
      </trkpt>
      <trkpt lat="42.50864" lon="24.04414">
        <ele>571.070543</ele>
        <time>2022-03-08T08:24:28.703Z</time>
      </trkpt>
      <trkpt lat="42.5086" lon="24.04399">
        <ele>571.422029</ele>
        <time>2022-03-08T08:24:30.735Z</time>
      </trkpt>
      <trkpt lat="42.50854" lon="24.04382">
        <ele>571.847246</ele>
        <time>2022-03-08T08:24:32.715Z</time>
      </trkpt>
      <trkpt lat="42.50847" lon="24.04366">
        <ele>572.275685</ele>
        <time>2022-03-08T08:24:34.724Z</time>
      </trkpt>
      <trkpt lat="42.50836" lon="24.04351">
        <ele>572.741072</ele>
        <time>2022-03-08T08:24:36.709Z</time>
      </trkpt>
      <trkpt lat="42.50826" lon="24.04341">
        <ele>573.124964</ele>
        <time>2022-03-08T08:24:38.735Z</time>
      </trkpt>
      <trkpt lat="42.50818" lon="24.04333">
        <ele>573.417887</ele>
        <time>2022-03-08T08:24:40.731Z</time>
      </trkpt>
      <trkpt lat="42.50806" lon="24.04323">
        <ele>573.827791</ele>
        <time>2022-03-08T08:24:43.716Z</time>
      </trkpt>
      <trkpt lat="42.50794" lon="24.04316">
        <ele>574.227348</ele>
        <time>2022-03-08T08:24:46.707Z</time>
      </trkpt>
      <trkpt lat="42.50785" lon="24.04309">
        <ele>574.548543</ele>
        <time>2022-03-08T08:24:49.722Z</time>
      </trkpt>
      <trkpt lat="42.50778" lon="24.04298">
        <ele>574.885772</ele>
        <time>2022-03-08T08:24:53.706Z</time>
      </trkpt>
      <trkpt lat="42.50768" lon="24.04291">
        <ele>575.20159</ele>
        <time>2022-03-08T08:24:57.718Z</time>
      </trkpt>
      <trkpt lat="42.5076" lon="24.04287">
        <ele>575.475715</ele>
        <time>2022-03-08T08:25:00.706Z</time>
      </trkpt>
      <trkpt lat="42.50752" lon="24.04281">
        <ele>575.59405</ele>
        <time>2022-03-08T08:25:03.721Z</time>
      </trkpt>
      <trkpt lat="42.50743" lon="24.04272">
        <ele>575.685682</ele>
        <time>2022-03-08T08:25:07.718Z</time>
      </trkpt>
      <trkpt lat="42.50734" lon="24.04264">
        <ele>575.777325</ele>
        <time>2022-03-08T08:25:10.707Z</time>
      </trkpt>
      <trkpt lat="42.50724" lon="24.04258">
        <ele>575.866175</ele>
        <time>2022-03-08T08:25:13.700Z</time>
      </trkpt>
      <trkpt lat="42.50715" lon="24.04251">
        <ele>575.955701</ele>
        <time>2022-03-08T08:25:16.727Z</time>
      </trkpt>
      <trkpt lat="42.50705" lon="24.04244">
        <ele>576.042336</ele>
        <time>2022-03-08T08:25:19.751Z</time>
      </trkpt>
      <trkpt lat="42.50698" lon="24.04236">
        <ele>576.119668</ele>
        <time>2022-03-08T08:25:22.758Z</time>
      </trkpt>
      <trkpt lat="42.50692" lon="24.04227">
        <ele>576.195877</ele>
        <time>2022-03-08T08:25:25.728Z</time>
      </trkpt>
      <trkpt lat="42.50681" lon="24.0422">
        <ele>576.292567</ele>
        <time>2022-03-08T08:25:29.701Z</time>
      </trkpt>
      <trkpt lat="42.50672" lon="24.04215">
        <ele>576.378849</ele>
        <time>2022-03-08T08:25:32.734Z</time>
      </trkpt>
      <trkpt lat="42.50663" lon="24.04209">
        <ele>576.458593</ele>
        <time>2022-03-08T08:25:35.712Z</time>
      </trkpt>
      <trkpt lat="42.50654" lon="24.04203">
        <ele>576.54055</ele>
        <time>2022-03-08T08:25:38.718Z</time>
      </trkpt>
      <trkpt lat="42.50644" lon="24.04196">
        <ele>576.632168</ele>
        <time>2022-03-08T08:25:42.713Z</time>
      </trkpt>
      <trkpt lat="42.50637" lon="24.04189">
        <ele>576.7079</ele>
        <time>2022-03-08T08:25:45.761Z</time>
      </trkpt>
      <trkpt lat="42.50628" lon="24.0418">
        <ele>576.79666</ele>
        <time>2022-03-08T08:25:49.730Z</time>
      </trkpt>
      <trkpt lat="42.50624" lon="24.04168">
        <ele>576.880405</ele>
        <time>2022-03-08T08:25:53.703Z</time>
      </trkpt>
      <trkpt lat="42.5062" lon="24.04154">
        <ele>576.975205</ele>
        <time>2022-03-08T08:25:57.712Z</time>
      </trkpt>
      <trkpt lat="42.50615" lon="24.04142">
        <ele>576.842867</ele>
        <time>2022-03-08T08:26:01.772Z</time>
      </trkpt>
      <trkpt lat="42.5061" lon="24.04128">
        <ele>576.34546</ele>
        <time>2022-03-08T08:26:05.719Z</time>
      </trkpt>
      <trkpt lat="42.50604" lon="24.04114">
        <ele>575.801805</ele>
        <time>2022-03-08T08:26:09.713Z</time>
      </trkpt>
      <trkpt lat="42.50599" lon="24.04103">
        <ele>575.375301</ele>
        <time>2022-03-08T08:26:12.716Z</time>
      </trkpt>
      <trkpt lat="42.50593" lon="24.04092">
        <ele>574.893497</ele>
        <time>2022-03-08T08:26:15.704Z</time>
      </trkpt>
      <trkpt lat="42.50586" lon="24.04078">
        <ele>574.34152</ele>
        <time>2022-03-08T08:26:18.726Z</time>
      </trkpt>
      <trkpt lat="42.5058" lon="24.04063">
        <ele>573.787077</ele>
        <time>2022-03-08T08:26:21.733Z</time>
      </trkpt>
      <trkpt lat="42.50574" lon="24.04048">
        <ele>573.2297</ele>
        <time>2022-03-08T08:26:24.716Z</time>
      </trkpt>
      <trkpt lat="42.5057" lon="24.04033">
        <ele>572.682872</ele>
        <time>2022-03-08T08:26:27.712Z</time>
      </trkpt>
      <trkpt lat="42.50565" lon="24.04018">
        <ele>572.141472</ele>
        <time>2022-03-08T08:26:30.724Z</time>
      </trkpt>
      <trkpt lat="42.50561" lon="24.04002">
        <ele>571.595366</ele>
        <time>2022-03-08T08:26:33.726Z</time>
      </trkpt>
      <trkpt lat="42.50558" lon="24.03986">
        <ele>571.030232</ele>
        <time>2022-03-08T08:26:36.741Z</time>
      </trkpt>
      <trkpt lat="42.50555" lon="24.03973">
        <ele>570.569012</ele>
        <time>2022-03-08T08:26:38.721Z</time>
      </trkpt>
      <trkpt lat="42.50552" lon="24.03958">
        <ele>570.050753</ele>
        <time>2022-03-08T08:26:40.730Z</time>
      </trkpt>
      <trkpt lat="42.50549" lon="24.03943">
        <ele>569.539352</ele>
        <time>2022-03-08T08:26:42.716Z</time>
      </trkpt>
      <trkpt lat="42.50548" lon="24.03927">
        <ele>569.005708</ele>
        <time>2022-03-08T08:26:44.736Z</time>
      </trkpt>
      <trkpt lat="42.50546" lon="24.0391">
        <ele>568.306354</ele>
        <time>2022-03-08T08:26:46.707Z</time>
      </trkpt>
      <trkpt lat="42.50546" lon="24.03892">
        <ele>567.50044</ele>
        <time>2022-03-08T08:26:48.711Z</time>
      </trkpt>
      <trkpt lat="42.50546" lon="24.03874">
        <ele>566.745213</ele>
        <time>2022-03-08T08:26:50.700Z</time>
      </trkpt>
      <trkpt lat="42.50548" lon="24.03858">
        <ele>566.047752</ele>
        <time>2022-03-08T08:26:52.731Z</time>
      </trkpt>
      <trkpt lat="42.5055" lon="24.03842">
        <ele>565.369035</ele>
        <time>2022-03-08T08:26:54.719Z</time>
      </trkpt>
      <trkpt lat="42.50551" lon="24.03828">
        <ele>564.760975</ele>
        <time>2022-03-08T08:26:56.775Z</time>
      </trkpt>
      <trkpt lat="42.50553" lon="24.03814">
        <ele>564.133436</ele>
        <time>2022-03-08T08:26:58.719Z</time>
      </trkpt>
      <trkpt lat="42.50555" lon="24.03798">
        <ele>563.441283</ele>
        <time>2022-03-08T08:27:00.716Z</time>
      </trkpt>
      <trkpt lat="42.50557" lon="24.03783">
        <ele>562.783901</ele>
        <time>2022-03-08T08:27:02.724Z</time>
      </trkpt>
      <trkpt lat="42.50559" lon="24.03767">
        <ele>562.053794</ele>
        <time>2022-03-08T08:27:04.728Z</time>
      </trkpt>
      <trkpt lat="42.50561" lon="24.0375">
        <ele>561.321373</ele>
        <time>2022-03-08T08:27:06.708Z</time>
      </trkpt>
      <trkpt lat="42.50564" lon="24.03733">
        <ele>560.551324</ele>
        <time>2022-03-08T08:27:08.722Z</time>
      </trkpt>
      <trkpt lat="42.50569" lon="24.03715">
        <ele>559.730528</ele>
        <time>2022-03-08T08:27:10.728Z</time>
      </trkpt>
      <trkpt lat="42.50576" lon="24.03696">
        <ele>558.830696</ele>
        <time>2022-03-08T08:27:12.755Z</time>
      </trkpt>
      <trkpt lat="42.50585" lon="24.03677">
        <ele>558.073795</ele>
        <time>2022-03-08T08:27:14.713Z</time>
      </trkpt>
      <trkpt lat="42.50591" lon="24.0366">
        <ele>557.547656</ele>
        <time>2022-03-08T08:27:16.724Z</time>
      </trkpt>
      <trkpt lat="42.50599" lon="24.03641">
        <ele>556.988325</ele>
        <time>2022-03-08T08:27:18.731Z</time>
      </trkpt>
      <trkpt lat="42.50607" lon="24.03626">
        <ele>556.486171</ele>
        <time>2022-03-08T08:27:20.722Z</time>
      </trkpt>
      <trkpt lat="42.50611" lon="24.03612">
        <ele>556.088597</ele>
        <time>2022-03-08T08:27:22.712Z</time>
      </trkpt>
      <trkpt lat="42.50614" lon="24.03596">
        <ele>555.657588</ele>
        <time>2022-03-08T08:27:24.700Z</time>
      </trkpt>
      <trkpt lat="42.50618" lon="24.03578">
        <ele>555.150271</ele>
        <time>2022-03-08T08:27:26.728Z</time>
      </trkpt>
      <trkpt lat="42.50625" lon="24.03558">
        <ele>554.572533</ele>
        <time>2022-03-08T08:27:28.704Z</time>
      </trkpt>
      <trkpt lat="42.5063" lon="24.03539">
        <ele>554.025258</ele>
        <time>2022-03-08T08:27:30.730Z</time>
      </trkpt>
      <trkpt lat="42.50637" lon="24.03519">
        <ele>553.451448</ele>
        <time>2022-03-08T08:27:32.723Z</time>
      </trkpt>
      <trkpt lat="42.50644" lon="24.03499">
        <ele>552.855254</ele>
        <time>2022-03-08T08:27:34.710Z</time>
      </trkpt>
      <trkpt lat="42.50649" lon="24.03478">
        <ele>552.261651</ele>
        <time>2022-03-08T08:27:36.726Z</time>
      </trkpt>
      <trkpt lat="42.50656" lon="24.03456">
        <ele>551.585872</ele>
        <time>2022-03-08T08:27:38.715Z</time>
      </trkpt>
      <trkpt lat="42.50661" lon="24.03434">
        <ele>550.82769</ele>
        <time>2022-03-08T08:27:40.746Z</time>
      </trkpt>
      <trkpt lat="42.50665" lon="24.0341">
        <ele>550.039766</ele>
        <time>2022-03-08T08:27:42.724Z</time>
      </trkpt>
      <trkpt lat="42.50667" lon="24.03398">
        <ele>549.643972</ele>
        <time>2022-03-08T08:27:43.732Z</time>
      </trkpt>
      <trkpt lat="42.5067" lon="24.03376">
        <ele>548.908227</ele>
        <time>2022-03-08T08:27:45.726Z</time>
      </trkpt>
      <trkpt lat="42.50673" lon="24.03356">
        <ele>548.262788</ele>
        <time>2022-03-08T08:27:47.712Z</time>
      </trkpt>
      <trkpt lat="42.50675" lon="24.03338">
        <ele>547.68286</ele>
        <time>2022-03-08T08:27:49.720Z</time>
      </trkpt>
      <trkpt lat="42.50677" lon="24.03321">
        <ele>547.116323</ele>
        <time>2022-03-08T08:27:51.713Z</time>
      </trkpt>
      <trkpt lat="42.50679" lon="24.03304">
        <ele>546.573725</ele>
        <time>2022-03-08T08:27:53.707Z</time>
      </trkpt>
      <trkpt lat="42.50682" lon="24.03285">
        <ele>545.962999</ele>
        <time>2022-03-08T08:27:55.713Z</time>
      </trkpt>
      <trkpt lat="42.50685" lon="24.03266">
        <ele>545.323878</ele>
        <time>2022-03-08T08:27:57.711Z</time>
      </trkpt>
      <trkpt lat="42.50688" lon="24.03246">
        <ele>544.65945</ele>
        <time>2022-03-08T08:27:59.703Z</time>
      </trkpt>
      <trkpt lat="42.50691" lon="24.03225">
        <ele>544.041251</ele>
        <time>2022-03-08T08:28:01.719Z</time>
      </trkpt>
      <trkpt lat="42.50697" lon="24.03204">
        <ele>543.962224</ele>
        <time>2022-03-08T08:28:03.734Z</time>
      </trkpt>
      <trkpt lat="42.50701" lon="24.03184">
        <ele>543.883128</ele>
        <time>2022-03-08T08:28:05.719Z</time>
      </trkpt>
      <trkpt lat="42.50706" lon="24.03163">
        <ele>543.802664</ele>
        <time>2022-03-08T08:28:07.746Z</time>
      </trkpt>
      <trkpt lat="42.5071" lon="24.03142">
        <ele>543.722017</ele>
        <time>2022-03-08T08:28:09.720Z</time>
      </trkpt>
      <trkpt lat="42.50714" lon="24.0312">
        <ele>543.639742</ele>
        <time>2022-03-08T08:28:11.727Z</time>
      </trkpt>
      <trkpt lat="42.50718" lon="24.03098">
        <ele>543.55628</ele>
        <time>2022-03-08T08:28:13.713Z</time>
      </trkpt>
      <trkpt lat="42.50721" lon="24.03075">
        <ele>543.470824</ele>
        <time>2022-03-08T08:28:15.724Z</time>
      </trkpt>
      <trkpt lat="42.50724" lon="24.03054">
        <ele>543.39041</ele>
        <time>2022-03-08T08:28:17.804Z</time>
      </trkpt>
      <trkpt lat="42.50726" lon="24.03034">
        <ele>543.317166</ele>
        <time>2022-03-08T08:28:19.728Z</time>
      </trkpt>
      <trkpt lat="42.5073" lon="24.03015">
        <ele>543.245258</ele>
        <time>2022-03-08T08:28:21.715Z</time>
      </trkpt>
      <trkpt lat="42.50732" lon="24.02997">
        <ele>543.179241</ele>
        <time>2022-03-08T08:28:23.763Z</time>
      </trkpt>
      <trkpt lat="42.50733" lon="24.0298">
        <ele>542.72892</ele>
        <time>2022-03-08T08:28:25.740Z</time>
      </trkpt>
      <trkpt lat="42.50728" lon="24.02964">
        <ele>542.035731</ele>
        <time>2022-03-08T08:28:27.748Z</time>
      </trkpt>
      <trkpt lat="42.50721" lon="24.02947">
        <ele>541.241</ele>
        <time>2022-03-08T08:28:29.705Z</time>
      </trkpt>
      <trkpt lat="42.50711" lon="24.02928">
        <ele>540.309667</ele>
        <time>2022-03-08T08:28:31.696Z</time>
      </trkpt>
      <trkpt lat="42.50702" lon="24.02913">
        <ele>539.504502</ele>
        <time>2022-03-08T08:28:33.711Z</time>
      </trkpt>
      <trkpt lat="42.50692" lon="24.029">
        <ele>538.801965</ele>
        <time>2022-03-08T08:28:35.707Z</time>
      </trkpt>
      <trkpt lat="42.50683" lon="24.02891">
        <ele>538.150218</ele>
        <time>2022-03-08T08:28:37.704Z</time>
      </trkpt>
      <trkpt lat="42.50675" lon="24.02883">
        <ele>537.607308</ele>
        <time>2022-03-08T08:28:39.724Z</time>
      </trkpt>
      <trkpt lat="42.50665" lon="24.0287">
        <ele>536.872844</ele>
        <time>2022-03-08T08:28:42.746Z</time>
      </trkpt>
      <trkpt lat="42.50659" lon="24.02861">
        <ele>536.375892</ele>
        <time>2022-03-08T08:28:44.692Z</time>
      </trkpt>
      <trkpt lat="42.5065" lon="24.02847">
        <ele>535.638407</ele>
        <time>2022-03-08T08:28:47.726Z</time>
      </trkpt>
      <trkpt lat="42.50644" lon="24.02838">
        <ele>535.13512</ele>
        <time>2022-03-08T08:28:49.695Z</time>
      </trkpt>
      <trkpt lat="42.50635" lon="24.02825">
        <ele>534.419071</ele>
        <time>2022-03-08T08:28:52.714Z</time>
      </trkpt>
      <trkpt lat="42.50629" lon="24.02812">
        <ele>533.804137</ele>
        <time>2022-03-08T08:28:55.691Z</time>
      </trkpt>
      <trkpt lat="42.50626" lon="24.02799">
        <ele>533.266046</ele>
        <time>2022-03-08T08:28:58.703Z</time>
      </trkpt>
      <trkpt lat="42.50621" lon="24.02785">
        <ele>532.783035</ele>
        <time>2022-03-08T08:29:01.707Z</time>
      </trkpt>
      <trkpt lat="42.50619" lon="24.02767">
        <ele>532.236745</ele>
        <time>2022-03-08T08:29:04.712Z</time>
      </trkpt>
      <trkpt lat="42.50617" lon="24.02751">
        <ele>531.741804</ele>
        <time>2022-03-08T08:29:07.714Z</time>
      </trkpt>
      <trkpt lat="42.50614" lon="24.02735">
        <ele>531.219532</ele>
        <time>2022-03-08T08:29:10.708Z</time>
      </trkpt>
      <trkpt lat="42.5061" lon="24.02719">
        <ele>530.690244</ele>
        <time>2022-03-08T08:29:13.754Z</time>
      </trkpt>
      <trkpt lat="42.50607" lon="24.02702">
        <ele>530.159684</ele>
        <time>2022-03-08T08:29:16.701Z</time>
      </trkpt>
      <trkpt lat="42.50606" lon="24.02688">
        <ele>529.748574</ele>
        <time>2022-03-08T08:29:18.704Z</time>
      </trkpt>
      <trkpt lat="42.50603" lon="24.02674">
        <ele>529.287941</ele>
        <time>2022-03-08T08:29:20.714Z</time>
      </trkpt>
      <trkpt lat="42.50599" lon="24.0266">
        <ele>528.823555</ele>
        <time>2022-03-08T08:29:22.712Z</time>
      </trkpt>
      <trkpt lat="42.50596" lon="24.02646">
        <ele>528.371848</ele>
        <time>2022-03-08T08:29:24.735Z</time>
      </trkpt>
      <trkpt lat="42.50593" lon="24.02633">
        <ele>527.960712</ele>
        <time>2022-03-08T08:29:26.705Z</time>
      </trkpt>
      <trkpt lat="42.5059" lon="24.02619">
        <ele>527.504798</ele>
        <time>2022-03-08T08:29:28.704Z</time>
      </trkpt>
      <trkpt lat="42.50585" lon="24.02606">
        <ele>527.066909</ele>
        <time>2022-03-08T08:29:30.693Z</time>
      </trkpt>
      <trkpt lat="42.50581" lon="24.02592">
        <ele>526.605977</ele>
        <time>2022-03-08T08:29:32.706Z</time>
      </trkpt>
      <trkpt lat="42.50577" lon="24.02579">
        <ele>526.166228</ele>
        <time>2022-03-08T08:29:34.718Z</time>
      </trkpt>
      <trkpt lat="42.50573" lon="24.02565">
        <ele>525.837339</ele>
        <time>2022-03-08T08:29:36.713Z</time>
      </trkpt>
      <trkpt lat="42.50571" lon="24.02552">
        <ele>525.908155</ele>
        <time>2022-03-08T08:29:38.713Z</time>
      </trkpt>
      <trkpt lat="42.50568" lon="24.02538">
        <ele>525.985983</ele>
        <time>2022-03-08T08:29:40.711Z</time>
      </trkpt>
      <trkpt lat="42.50564" lon="24.02524">
        <ele>526.066792</ele>
        <time>2022-03-08T08:29:42.703Z</time>
      </trkpt>
      <trkpt lat="42.50558" lon="24.0251">
        <ele>526.150732</ele>
        <time>2022-03-08T08:29:44.715Z</time>
      </trkpt>
      <trkpt lat="42.50553" lon="24.02496">
        <ele>526.229933</ele>
        <time>2022-03-08T08:29:46.732Z</time>
      </trkpt>
      <trkpt lat="42.5055" lon="24.02483">
        <ele>526.301704</ele>
        <time>2022-03-08T08:29:48.699Z</time>
      </trkpt>
      <trkpt lat="42.50548" lon="24.02471">
        <ele>526.367833</ele>
        <time>2022-03-08T08:29:50.704Z</time>
      </trkpt>
      <trkpt lat="42.50548" lon="24.02454">
        <ele>526.458375</ele>
        <time>2022-03-08T08:29:53.708Z</time>
      </trkpt>
      <trkpt lat="42.50546" lon="24.02441">
        <ele>526.528322</ele>
        <time>2022-03-08T08:29:55.712Z</time>
      </trkpt>
      <trkpt lat="42.50544" lon="24.02429">
        <ele>526.594535</ele>
        <time>2022-03-08T08:29:57.721Z</time>
      </trkpt>
      <trkpt lat="42.5054" lon="24.02412">
        <ele>526.686601</ele>
        <time>2022-03-08T08:30:00.735Z</time>
      </trkpt>
      <trkpt lat="42.50537" lon="24.02398">
        <ele>526.762206</ele>
        <time>2022-03-08T08:30:03.706Z</time>
      </trkpt>
      <trkpt lat="42.50537" lon="24.02384">
        <ele>526.836407</ele>
        <time>2022-03-08T08:30:06.713Z</time>
      </trkpt>
      <trkpt lat="42.50535" lon="24.02368">
        <ele>526.922598</ele>
        <time>2022-03-08T08:30:09.701Z</time>
      </trkpt>
      <trkpt lat="42.50533" lon="24.02351">
        <ele>527.013804</ele>
        <time>2022-03-08T08:30:12.734Z</time>
      </trkpt>
      <trkpt lat="42.50531" lon="24.02336">
        <ele>527.094103</ele>
        <time>2022-03-08T08:30:15.715Z</time>
      </trkpt>
      <trkpt lat="42.5053" lon="24.02322">
        <ele>527.274743</ele>
        <time>2022-03-08T08:30:18.714Z</time>
      </trkpt>
      <trkpt lat="42.5053" lon="24.02308">
        <ele>527.492593</ele>
        <time>2022-03-08T08:30:21.698Z</time>
      </trkpt>
      <trkpt lat="42.50528" lon="24.0229">
        <ele>527.767225</ele>
        <time>2022-03-08T08:30:24.715Z</time>
      </trkpt>
      <trkpt lat="42.50526" lon="24.02276">
        <ele>527.973444</ele>
        <time>2022-03-08T08:30:26.710Z</time>
      </trkpt>
      <trkpt lat="42.50523" lon="24.02264">
        <ele>528.168253</ele>
        <time>2022-03-08T08:30:28.713Z</time>
      </trkpt>
      <trkpt lat="42.50518" lon="24.02248">
        <ele>528.433837</ele>
        <time>2022-03-08T08:30:31.715Z</time>
      </trkpt>
      <trkpt lat="42.50512" lon="24.02237">
        <ele>528.636291</ele>
        <time>2022-03-08T08:30:33.743Z</time>
      </trkpt>
      <trkpt lat="42.50507" lon="24.02224">
        <ele>528.862747</ele>
        <time>2022-03-08T08:30:35.723Z</time>
      </trkpt>
      <trkpt lat="42.50501" lon="24.0221">
        <ele>529.09806</ele>
        <time>2022-03-08T08:30:37.714Z</time>
      </trkpt>
      <trkpt lat="42.50496" lon="24.02195">
        <ele>529.345869</ele>
        <time>2022-03-08T08:30:39.760Z</time>
      </trkpt>
      <trkpt lat="42.50489" lon="24.0218">
        <ele>529.605835</ele>
        <time>2022-03-08T08:30:41.703Z</time>
      </trkpt>
      <trkpt lat="42.50482" lon="24.02165">
        <ele>529.874576</ele>
        <time>2022-03-08T08:30:43.706Z</time>
      </trkpt>
      <trkpt lat="42.50475" lon="24.0215">
        <ele>530.153232</ele>
        <time>2022-03-08T08:30:45.706Z</time>
      </trkpt>
      <trkpt lat="42.50467" lon="24.02135">
        <ele>530.431372</ele>
        <time>2022-03-08T08:30:47.717Z</time>
      </trkpt>
      <trkpt lat="42.5046" lon="24.0212">
        <ele>530.694419</ele>
        <time>2022-03-08T08:30:49.712Z</time>
      </trkpt>
      <trkpt lat="42.50454" lon="24.02106">
        <ele>530.264808</ele>
        <time>2022-03-08T08:30:51.708Z</time>
      </trkpt>
      <trkpt lat="42.50449" lon="24.02093">
        <ele>529.514768</ele>
        <time>2022-03-08T08:30:53.708Z</time>
      </trkpt>
      <trkpt lat="42.50444" lon="24.02078">
        <ele>528.711211</ele>
        <time>2022-03-08T08:30:55.716Z</time>
      </trkpt>
      <trkpt lat="42.50439" lon="24.02063">
        <ele>527.92639</ele>
        <time>2022-03-08T08:30:57.709Z</time>
      </trkpt>
      <trkpt lat="42.50435" lon="24.02047">
        <ele>527.121112</ele>
        <time>2022-03-08T08:30:59.720Z</time>
      </trkpt>
      <trkpt lat="42.50435" lon="24.0203">
        <ele>526.311417</ele>
        <time>2022-03-08T08:31:01.702Z</time>
      </trkpt>
      <trkpt lat="42.50435" lon="24.02013">
        <ele>525.482412</ele>
        <time>2022-03-08T08:31:03.711Z</time>
      </trkpt>
      <trkpt lat="42.50435" lon="24.01996">
        <ele>524.643712</ele>
        <time>2022-03-08T08:31:05.714Z</time>
      </trkpt>
      <trkpt lat="42.50434" lon="24.01978">
        <ele>523.769098</ele>
        <time>2022-03-08T08:31:07.724Z</time>
      </trkpt>
      <trkpt lat="42.50431" lon="24.01961">
        <ele>522.904428</ele>
        <time>2022-03-08T08:31:09.704Z</time>
      </trkpt>
      <trkpt lat="42.50428" lon="24.01943">
        <ele>522.033134</ele>
        <time>2022-03-08T08:31:11.711Z</time>
      </trkpt>
      <trkpt lat="42.50425" lon="24.01927">
        <ele>521.227697</ele>
        <time>2022-03-08T08:31:13.720Z</time>
      </trkpt>
      <trkpt lat="42.50419" lon="24.01911">
        <ele>520.383646</ele>
        <time>2022-03-08T08:31:15.715Z</time>
      </trkpt>
      <trkpt lat="42.50412" lon="24.01899">
        <ele>519.602949</ele>
        <time>2022-03-08T08:31:17.759Z</time>
      </trkpt>
      <trkpt lat="42.50406" lon="24.01885">
        <ele>518.889949</ele>
        <time>2022-03-08T08:31:19.705Z</time>
      </trkpt>
      <trkpt lat="42.50401" lon="24.01873">
        <ele>518.546702</ele>
        <time>2022-03-08T08:31:21.706Z</time>
      </trkpt>
      <trkpt lat="42.50398" lon="24.01859">
        <ele>518.17915</ele>
        <time>2022-03-08T08:31:23.712Z</time>
      </trkpt>
      <trkpt lat="42.50393" lon="24.01842">
        <ele>517.723773</ele>
        <time>2022-03-08T08:31:25.718Z</time>
      </trkpt>
      <trkpt lat="42.50388" lon="24.01823">
        <ele>517.23819</ele>
        <time>2022-03-08T08:31:27.708Z</time>
      </trkpt>
      <trkpt lat="42.50386" lon="24.01802">
        <ele>516.715033</ele>
        <time>2022-03-08T08:31:29.711Z</time>
      </trkpt>
      <trkpt lat="42.50385" lon="24.01779">
        <ele>516.149607</ele>
        <time>2022-03-08T08:31:31.710Z</time>
      </trkpt>
      <trkpt lat="42.50383" lon="24.01757">
        <ele>515.616119</ele>
        <time>2022-03-08T08:31:33.711Z</time>
      </trkpt>
      <trkpt lat="42.50382" lon="24.01741">
        <ele>515.207116</ele>
        <time>2022-03-08T08:31:35.713Z</time>
      </trkpt>
      <trkpt lat="42.50382" lon="24.01727">
        <ele>514.857394</ele>
        <time>2022-03-08T08:31:37.708Z</time>
      </trkpt>
      <trkpt lat="42.50383" lon="24.01712">
        <ele>514.488748</ele>
        <time>2022-03-08T08:31:39.703Z</time>
      </trkpt>
      <trkpt lat="42.50385" lon="24.01694">
        <ele>514.060589</ele>
        <time>2022-03-08T08:31:41.700Z</time>
      </trkpt>
      <trkpt lat="42.50387" lon="24.01675">
        <ele>513.579397</ele>
        <time>2022-03-08T08:31:43.705Z</time>
      </trkpt>
      <trkpt lat="42.5039" lon="24.01656">
        <ele>513.10399</ele>
        <time>2022-03-08T08:31:45.748Z</time>
      </trkpt>
      <trkpt lat="42.50391" lon="24.01639">
        <ele>512.447733</ele>
        <time>2022-03-08T08:31:47.730Z</time>
      </trkpt>
      <trkpt lat="42.50392" lon="24.01622">
        <ele>511.707992</ele>
        <time>2022-03-08T08:31:49.718Z</time>
      </trkpt>
      <trkpt lat="42.50394" lon="24.01605">
        <ele>510.922097</ele>
        <time>2022-03-08T08:31:51.731Z</time>
      </trkpt>
      <trkpt lat="42.50393" lon="24.01586">
        <ele>510.048408</ele>
        <time>2022-03-08T08:31:53.699Z</time>
      </trkpt>
      <trkpt lat="42.5039" lon="24.01567">
        <ele>509.174374</ele>
        <time>2022-03-08T08:31:55.712Z</time>
      </trkpt>
      <trkpt lat="42.50388" lon="24.01549">
        <ele>508.366961</ele>
        <time>2022-03-08T08:31:57.710Z</time>
      </trkpt>
      <trkpt lat="42.50385" lon="24.0153">
        <ele>507.504288</ele>
        <time>2022-03-08T08:31:59.709Z</time>
      </trkpt>
      <trkpt lat="42.50381" lon="24.01509">
        <ele>506.536771</ele>
        <time>2022-03-08T08:32:01.691Z</time>
      </trkpt>
      <trkpt lat="42.50378" lon="24.0149">
        <ele>505.638728</ele>
        <time>2022-03-08T08:32:03.706Z</time>
      </trkpt>
      <trkpt lat="42.50374" lon="24.01471">
        <ele>504.764558</ele>
        <time>2022-03-08T08:32:05.711Z</time>
      </trkpt>
      <trkpt lat="42.50371" lon="24.01453">
        <ele>503.945859</ele>
        <time>2022-03-08T08:32:07.720Z</time>
      </trkpt>
      <trkpt lat="42.50371" lon="24.01437">
        <ele>503.230647</ele>
        <time>2022-03-08T08:32:09.719Z</time>
      </trkpt>
      <trkpt lat="42.50374" lon="24.01424">
        <ele>502.611083</ele>
        <time>2022-03-08T08:32:11.714Z</time>
      </trkpt>
      <trkpt lat="42.50375" lon="24.01409">
        <ele>501.955025</ele>
        <time>2022-03-08T08:32:13.749Z</time>
      </trkpt>
      <trkpt lat="42.50375" lon="24.01396">
        <ele>501.763246</ele>
        <time>2022-03-08T08:32:15.729Z</time>
      </trkpt>
      <trkpt lat="42.50378" lon="24.0138">
        <ele>501.526676</ele>
        <time>2022-03-08T08:32:18.703Z</time>
      </trkpt>
      <trkpt lat="42.50377" lon="24.01365">
        <ele>501.308569</ele>
        <time>2022-03-08T08:32:21.700Z</time>
      </trkpt>
      <trkpt lat="42.50381" lon="24.01351">
        <ele>501.090104</ele>
        <time>2022-03-08T08:32:25.690Z</time>
      </trkpt>
      <trkpt lat="42.50386" lon="24.01338">
        <ele>500.877816</ele>
        <time>2022-03-08T08:32:29.707Z</time>
      </trkpt>
      <trkpt lat="42.50388" lon="24.01325">
        <ele>500.687856</ele>
        <time>2022-03-08T08:32:33.720Z</time>
      </trkpt>
      <trkpt lat="42.50386" lon="24.01311">
        <ele>500.473154</ele>
        <time>2022-03-08T08:32:37.710Z</time>
      </trkpt>
      <trkpt lat="42.50388" lon="24.01297">
        <ele>500.272511</ele>
        <time>2022-03-08T08:32:40.704Z</time>
      </trkpt>
      <trkpt lat="42.50389" lon="24.01284">
        <ele>500.085086</ele>
        <time>2022-03-08T08:32:43.732Z</time>
      </trkpt>
      <trkpt lat="42.50389" lon="24.01271">
        <ele>499.888951</ele>
        <time>2022-03-08T08:32:46.754Z</time>
      </trkpt>
      <trkpt lat="42.50389" lon="24.01253">
        <ele>499.637627</ele>
        <time>2022-03-08T08:32:49.724Z</time>
      </trkpt>
      <trkpt lat="42.50389" lon="24.01235">
        <ele>499.377432</ele>
        <time>2022-03-08T08:32:52.741Z</time>
      </trkpt>
      <trkpt lat="42.50392" lon="24.01221">
        <ele>499.156434</ele>
        <time>2022-03-08T08:32:54.699Z</time>
      </trkpt>
      <trkpt lat="42.50395" lon="24.01206">
        <ele>498.941317</ele>
        <time>2022-03-08T08:32:56.692Z</time>
      </trkpt>
      <trkpt lat="42.50395" lon="24.01193">
        <ele>498.748117</ele>
        <time>2022-03-08T08:32:58.717Z</time>
      </trkpt>
      <trkpt lat="42.50396" lon="24.01176">
        <ele>498.497501</ele>
        <time>2022-03-08T08:33:00.710Z</time>
      </trkpt>
      <trkpt lat="42.50399" lon="24.01159">
        <ele>498.241181</ele>
        <time>2022-03-08T08:33:02.699Z</time>
      </trkpt>
      <trkpt lat="42.50402" lon="24.0114">
        <ele>497.97936</ele>
        <time>2022-03-08T08:33:04.701Z</time>
      </trkpt>
      <trkpt lat="42.50404" lon="24.01122">
        <ele>497.712663</ele>
        <time>2022-03-08T08:33:06.818Z</time>
      </trkpt>
      <trkpt lat="42.50405" lon="24.01106">
        <ele>497.485794</ele>
        <time>2022-03-08T08:33:08.716Z</time>
      </trkpt>
      <trkpt lat="42.50406" lon="24.0109">
        <ele>497.257143</ele>
        <time>2022-03-08T08:33:10.705Z</time>
      </trkpt>
      <trkpt lat="42.50408" lon="24.01073">
        <ele>497.013282</ele>
        <time>2022-03-08T08:33:12.706Z</time>
      </trkpt>
      <trkpt lat="42.5041" lon="24.01053">
        <ele>496.733337</ele>
        <time>2022-03-08T08:33:14.691Z</time>
      </trkpt>
      <trkpt lat="42.5041" lon="24.01033">
        <ele>496.454305</ele>
        <time>2022-03-08T08:33:16.713Z</time>
      </trkpt>
      <trkpt lat="42.50411" lon="24.01015">
        <ele>496.18649</ele>
        <time>2022-03-08T08:33:18.713Z</time>
      </trkpt>
      <trkpt lat="42.50409" lon="24.00996">
        <ele>495.929307</ele>
        <time>2022-03-08T08:33:20.716Z</time>
      </trkpt>
      <trkpt lat="42.50407" lon="24.00977">
        <ele>495.651054</ele>
        <time>2022-03-08T08:33:22.706Z</time>
      </trkpt>
      <trkpt lat="42.50406" lon="24.00957">
        <ele>495.362662</ele>
        <time>2022-03-08T08:33:24.706Z</time>
      </trkpt>
      <trkpt lat="42.50408" lon="24.00936">
        <ele>495.069302</ele>
        <time>2022-03-08T08:33:26.700Z</time>
      </trkpt>
      <trkpt lat="42.50412" lon="24.00925">
        <ele>494.915834</ele>
        <time>2022-03-08T08:33:27.710Z</time>
      </trkpt>
      <trkpt lat="42.50417" lon="24.00905">
        <ele>494.696839</ele>
        <time>2022-03-08T08:33:29.710Z</time>
      </trkpt>
      <trkpt lat="42.50422" lon="24.00885">
        <ele>494.479264</ele>
        <time>2022-03-08T08:33:31.720Z</time>
      </trkpt>
      <trkpt lat="42.50425" lon="24.00866">
        <ele>494.27923</ele>
        <time>2022-03-08T08:33:33.719Z</time>
      </trkpt>
      <trkpt lat="42.50429" lon="24.00846">
        <ele>494.077604</ele>
        <time>2022-03-08T08:33:35.721Z</time>
      </trkpt>
      <trkpt lat="42.50433" lon="24.00826">
        <ele>493.865376</ele>
        <time>2022-03-08T08:33:37.725Z</time>
      </trkpt>
      <trkpt lat="42.50436" lon="24.00808">
        <ele>493.672966</ele>
        <time>2022-03-08T08:33:39.702Z</time>
      </trkpt>
      <trkpt lat="42.50439" lon="24.00792">
        <ele>493.500965</ele>
        <time>2022-03-08T08:33:41.735Z</time>
      </trkpt>
      <trkpt lat="42.5044" lon="24.00777">
        <ele>493.345388</ele>
        <time>2022-03-08T08:33:43.713Z</time>
      </trkpt>
      <trkpt lat="42.50443" lon="24.00762">
        <ele>493.190224</ele>
        <time>2022-03-08T08:33:45.725Z</time>
      </trkpt>
      <trkpt lat="42.50442" lon="24.00749">
        <ele>493.056204</ele>
        <time>2022-03-08T08:33:47.704Z</time>
      </trkpt>
      <trkpt lat="42.5044" lon="24.00734">
        <ele>492.906754</ele>
        <time>2022-03-08T08:33:50.720Z</time>
      </trkpt>
      <trkpt lat="42.50436" lon="24.00722">
        <ele>492.771625</ele>
        <time>2022-03-08T08:33:54.721Z</time>
      </trkpt>
      <trkpt lat="42.50428" lon="24.0071">
        <ele>492.606993</ele>
        <time>2022-03-08T08:33:59.712Z</time>
      </trkpt>
      <trkpt lat="42.50421" lon="24.00701">
        <ele>492.470621</ele>
        <time>2022-03-08T08:34:03.709Z</time>
      </trkpt>
      <trkpt lat="42.50413" lon="24.0069">
        <ele>491.875928</ele>
        <time>2022-03-08T08:34:07.716Z</time>
      </trkpt>
      <trkpt lat="42.50406" lon="24.00678">
        <ele>491.258085</ele>
        <time>2022-03-08T08:34:11.704Z</time>
      </trkpt>
      <trkpt lat="42.50401" lon="24.00665">
        <ele>490.7037</ele>
        <time>2022-03-08T08:34:15.713Z</time>
      </trkpt>
      <trkpt lat="42.50397" lon="24.00654">
        <ele>490.235234</ele>
        <time>2022-03-08T08:34:18.713Z</time>
      </trkpt>
      <trkpt lat="42.50392" lon="24.00642">
        <ele>489.722122</ele>
        <time>2022-03-08T08:34:21.708Z</time>
      </trkpt>
      <trkpt lat="42.50388" lon="24.00629">
        <ele>489.172579</ele>
        <time>2022-03-08T08:34:24.714Z</time>
      </trkpt>
      <trkpt lat="42.50384" lon="24.00614">
        <ele>488.547956</ele>
        <time>2022-03-08T08:34:27.717Z</time>
      </trkpt>
      <trkpt lat="42.5038" lon="24.00598">
        <ele>487.938541</ele>
        <time>2022-03-08T08:34:30.759Z</time>
      </trkpt>
      <trkpt lat="42.50377" lon="24.00581">
        <ele>487.269086</ele>
        <time>2022-03-08T08:34:33.703Z</time>
      </trkpt>
      <trkpt lat="42.50375" lon="24.00569">
        <ele>486.786185</ele>
        <time>2022-03-08T08:34:35.714Z</time>
      </trkpt>
      <trkpt lat="42.50372" lon="24.00557">
        <ele>486.274535</ele>
        <time>2022-03-08T08:34:37.706Z</time>
      </trkpt>
      <trkpt lat="42.50368" lon="24.00543">
        <ele>485.73446</ele>
        <time>2022-03-08T08:34:39.706Z</time>
      </trkpt>
      <trkpt lat="42.50365" lon="24.0053">
        <ele>485.172839</ele>
        <time>2022-03-08T08:34:41.745Z</time>
      </trkpt>
      <trkpt lat="42.50361" lon="24.00516">
        <ele>484.602234</ele>
        <time>2022-03-08T08:34:43.740Z</time>
      </trkpt>
      <trkpt lat="42.50358" lon="24.00501">
        <ele>484.0123</ele>
        <time>2022-03-08T08:34:45.710Z</time>
      </trkpt>
      <trkpt lat="42.50356" lon="24.00485">
        <ele>483.390646</ele>
        <time>2022-03-08T08:34:47.711Z</time>
      </trkpt>
      <trkpt lat="42.50354" lon="24.00468">
        <ele>482.828278</ele>
        <time>2022-03-08T08:34:49.715Z</time>
      </trkpt>
      <trkpt lat="42.50353" lon="24.0045">
        <ele>482.302873</ele>
        <time>2022-03-08T08:34:51.695Z</time>
      </trkpt>
      <trkpt lat="42.50353" lon="24.00431">
        <ele>481.781022</ele>
        <time>2022-03-08T08:34:53.719Z</time>
      </trkpt>
      <trkpt lat="42.50352" lon="24.00414">
        <ele>481.293037</ele>
        <time>2022-03-08T08:34:55.708Z</time>
      </trkpt>
      <trkpt lat="42.50351" lon="24.004">
        <ele>480.867423</ele>
        <time>2022-03-08T08:34:57.697Z</time>
      </trkpt>
      <trkpt lat="42.5035" lon="24.00386">
        <ele>480.48527</ele>
        <time>2022-03-08T08:34:59.709Z</time>
      </trkpt>
      <trkpt lat="42.5035" lon="24.00371">
        <ele>480.052481</ele>
        <time>2022-03-08T08:35:01.709Z</time>
      </trkpt>
      <trkpt lat="42.50351" lon="24.00356">
        <ele>479.630027</ele>
        <time>2022-03-08T08:35:03.757Z</time>
      </trkpt>
      <trkpt lat="42.50351" lon="24.00343">
        <ele>479.237304</ele>
        <time>2022-03-08T08:35:05.691Z</time>
      </trkpt>
      <trkpt lat="42.5035" lon="24.00325">
        <ele>478.726779</ele>
        <time>2022-03-08T08:35:08.694Z</time>
      </trkpt>
      <trkpt lat="42.5035" lon="24.00313">
        <ele>478.374235</ele>
        <time>2022-03-08T08:35:10.699Z</time>
      </trkpt>
      <trkpt lat="42.5035" lon="24.00298">
        <ele>477.964373</ele>
        <time>2022-03-08T08:35:12.737Z</time>
      </trkpt>
      <trkpt lat="42.5035" lon="24.00284">
        <ele>477.557322</ele>
        <time>2022-03-08T08:35:14.711Z</time>
      </trkpt>
      <trkpt lat="42.5035" lon="24.00271">
        <ele>477.170329</ele>
        <time>2022-03-08T08:35:16.720Z</time>
      </trkpt>
      <trkpt lat="42.50348" lon="24.00258">
        <ele>476.808117</ele>
        <time>2022-03-08T08:35:18.710Z</time>
      </trkpt>
      <trkpt lat="42.50343" lon="24.00243">
        <ele>476.317586</ele>
        <time>2022-03-08T08:35:21.721Z</time>
      </trkpt>
      <trkpt lat="42.50336" lon="24.00229">
        <ele>475.821729</ele>
        <time>2022-03-08T08:35:24.874Z</time>
      </trkpt>
      <trkpt lat="42.50332" lon="24.00217">
        <ele>475.422687</ele>
        <time>2022-03-08T08:35:26.707Z</time>
      </trkpt>
      <trkpt lat="42.50327" lon="24.00204">
        <ele>474.981929</ele>
        <time>2022-03-08T08:35:28.712Z</time>
      </trkpt>
      <trkpt lat="42.50322" lon="24.00191">
        <ele>474.532437</ele>
        <time>2022-03-08T08:35:30.705Z</time>
      </trkpt>
      <trkpt lat="42.50317" lon="24.0018">
        <ele>474.117004</ele>
        <time>2022-03-08T08:35:32.706Z</time>
      </trkpt>
      <trkpt lat="42.50313" lon="24.00169">
        <ele>473.741681</ele>
        <time>2022-03-08T08:35:34.715Z</time>
      </trkpt>
      <trkpt lat="42.50308" lon="24.00153">
        <ele>473.21724</ele>
        <time>2022-03-08T08:35:37.695Z</time>
      </trkpt>
      <trkpt lat="42.50305" lon="24.00138">
        <ele>472.751527</ele>
        <time>2022-03-08T08:35:40.714Z</time>
      </trkpt>
      <trkpt lat="42.50298" lon="24.00122">
        <ele>472.180492</ele>
        <time>2022-03-08T08:35:43.728Z</time>
      </trkpt>
      <trkpt lat="42.50292" lon="24.00112">
        <ele>471.794662</ele>
        <time>2022-03-08T08:35:45.715Z</time>
      </trkpt>
      <trkpt lat="42.50285" lon="24.00097">
        <ele>471.251613</ele>
        <time>2022-03-08T08:35:48.700Z</time>
      </trkpt>
      <trkpt lat="42.5028" lon="24.00082">
        <ele>470.740131</ele>
        <time>2022-03-08T08:35:51.711Z</time>
      </trkpt>
      <trkpt lat="42.50277" lon="24.00066">
        <ele>470.239118</ele>
        <time>2022-03-08T08:35:54.710Z</time>
      </trkpt>
      <trkpt lat="42.50279" lon="24.0005">
        <ele>469.749698</ele>
        <time>2022-03-08T08:35:58.738Z</time>
      </trkpt>
      <trkpt lat="42.50288" lon="24.00043">
        <ele>469.32639</ele>
        <time>2022-03-08T08:36:01.777Z</time>
      </trkpt>
      <trkpt lat="42.50298" lon="24.00038">
        <ele>468.890067</ele>
        <time>2022-03-08T08:36:07.726Z</time>
      </trkpt>
      <trkpt lat="42.50306" lon="24.00034">
        <ele>468.591579</ele>
        <time>2022-03-08T08:36:12.723Z</time>
      </trkpt>
      <trkpt lat="42.50316" lon="24.0003">
        <ele>468.389624</ele>
        <time>2022-03-08T08:36:17.722Z</time>
      </trkpt>
      <trkpt lat="42.50322" lon="24.00019">
        <ele>468.179178</ele>
        <time>2022-03-08T08:36:23.725Z</time>
      </trkpt>
      <trkpt lat="42.50323" lon="24.00007">
        <ele>467.986256</ele>
        <time>2022-03-08T08:36:28.702Z</time>
      </trkpt>
      <trkpt lat="42.5033" lon="23.99995">
        <ele>467.747536</ele>
        <time>2022-03-08T08:36:33.705Z</time>
      </trkpt>
      <trkpt lat="42.50341" lon="23.99994">
        <ele>467.51279</ele>
        <time>2022-03-08T08:36:36.772Z</time>
      </trkpt>
      <trkpt lat="42.5035" lon="23.99997">
        <ele>467.318554</ele>
        <time>2022-03-08T08:36:39.702Z</time>
      </trkpt>
      <trkpt lat="42.50361" lon="24.00001">
        <ele>467.085899</ele>
        <time>2022-03-08T08:36:44.717Z</time>
      </trkpt>
      <trkpt lat="42.5037" lon="24.00001">
        <ele>466.882516</ele>
        <time>2022-03-08T08:36:48.709Z</time>
      </trkpt>
      <trkpt lat="42.5038" lon="24.00003">
        <ele>466.672068</ele>
        <time>2022-03-08T08:36:51.700Z</time>
      </trkpt>
      <trkpt lat="42.5039" lon="24.00004">
        <ele>466.479252</ele>
        <time>2022-03-08T08:36:54.710Z</time>
      </trkpt>
      <trkpt lat="42.50401" lon="24.00001">
        <ele>466.236512</ele>
        <time>2022-03-08T08:36:58.710Z</time>
      </trkpt>
      <trkpt lat="42.5041" lon="23.99997">
        <ele>466.047477</ele>
        <time>2022-03-08T08:37:01.706Z</time>
      </trkpt>
      <trkpt lat="42.50421" lon="23.99993">
        <ele>465.794686</ele>
        <time>2022-03-08T08:37:05.704Z</time>
      </trkpt>
      <trkpt lat="42.50431" lon="23.99989">
        <ele>465.574979</ele>
        <time>2022-03-08T08:37:08.722Z</time>
      </trkpt>
      <trkpt lat="42.50441" lon="23.99987">
        <ele>465.376027</ele>
        <time>2022-03-08T08:37:11.706Z</time>
      </trkpt>
      <trkpt lat="42.50451" lon="23.99984">
        <ele>465.147099</ele>
        <time>2022-03-08T08:37:14.708Z</time>
      </trkpt>
      <trkpt lat="42.50462" lon="23.99979">
        <ele>464.912463</ele>
        <time>2022-03-08T08:37:17.718Z</time>
      </trkpt>
      <trkpt lat="42.5047" lon="23.99973">
        <ele>464.682481</ele>
        <time>2022-03-08T08:37:20.690Z</time>
      </trkpt>
      <trkpt lat="42.5048" lon="23.99966">
        <ele>464.419767</ele>
        <time>2022-03-08T08:37:23.683Z</time>
      </trkpt>
      <trkpt lat="42.50488" lon="23.99959">
        <ele>464.178493</ele>
        <time>2022-03-08T08:37:26.745Z</time>
      </trkpt>
      <trkpt lat="42.50499" lon="23.99955">
        <ele>463.904413</ele>
        <time>2022-03-08T08:37:29.734Z</time>
      </trkpt>
      <trkpt lat="42.50511" lon="23.99949">
        <ele>463.593376</ele>
        <time>2022-03-08T08:37:32.714Z</time>
      </trkpt>
      <trkpt lat="42.50521" lon="23.99944">
        <ele>463.341862</ele>
        <time>2022-03-08T08:37:35.711Z</time>
      </trkpt>
      <trkpt lat="42.50531" lon="23.99936">
        <ele>463.058958</ele>
        <time>2022-03-08T08:37:39.711Z</time>
      </trkpt>
      <trkpt lat="42.5054" lon="23.9993">
        <ele>462.806986</ele>
        <time>2022-03-08T08:37:44.719Z</time>
      </trkpt>
      <trkpt lat="42.5055" lon="23.99928">
        <ele>462.566549</ele>
        <time>2022-03-08T08:37:48.752Z</time>
      </trkpt>
      <trkpt lat="42.50561" lon="23.99929">
        <ele>462.280293</ele>
        <time>2022-03-08T08:37:52.697Z</time>
      </trkpt>
      <trkpt lat="42.50571" lon="23.9993">
        <ele>462.052857</ele>
        <time>2022-03-08T08:37:55.719Z</time>
      </trkpt>
      <trkpt lat="42.5058" lon="23.99933">
        <ele>461.814269</ele>
        <time>2022-03-08T08:37:59.710Z</time>
      </trkpt>
      <trkpt lat="42.5059" lon="23.99936">
        <ele>461.563387</ele>
        <time>2022-03-08T08:38:03.734Z</time>
      </trkpt>
      <trkpt lat="42.50601" lon="23.99937">
        <ele>461.304332</ele>
        <time>2022-03-08T08:38:07.696Z</time>
      </trkpt>
      <trkpt lat="42.50612" lon="23.99936">
        <ele>461.028034</ele>
        <time>2022-03-08T08:38:10.722Z</time>
      </trkpt>
      <trkpt lat="42.50624" lon="23.99935">
        <ele>460.727257</ele>
        <time>2022-03-08T08:38:13.711Z</time>
      </trkpt>
      <trkpt lat="42.50635" lon="23.99935">
        <ele>460.500856</ele>
        <time>2022-03-08T08:38:16.745Z</time>
      </trkpt>
      <trkpt lat="42.50645" lon="23.99935">
        <ele>460.407252</ele>
        <time>2022-03-08T08:38:19.710Z</time>
      </trkpt>
      <trkpt lat="42.50656" lon="23.99931">
        <ele>460.303976</ele>
        <time>2022-03-08T08:38:22.702Z</time>
      </trkpt>
      <trkpt lat="42.50666" lon="23.99931">
        <ele>460.207584</ele>
        <time>2022-03-08T08:38:25.708Z</time>
      </trkpt>
      <trkpt lat="42.50677" lon="23.99931">
        <ele>460.109392</ele>
        <time>2022-03-08T08:38:28.708Z</time>
      </trkpt>
      <trkpt lat="42.50687" lon="23.99931">
        <ele>460.019421</ele>
        <time>2022-03-08T08:38:31.711Z</time>
      </trkpt>
      <trkpt lat="42.50698" lon="23.9993">
        <ele>459.918949</ele>
        <time>2022-03-08T08:38:34.709Z</time>
      </trkpt>
      <trkpt lat="42.50708" lon="23.9993">
        <ele>459.822557</ele>
        <time>2022-03-08T08:38:37.711Z</time>
      </trkpt>
      <trkpt lat="42.50718" lon="23.9993">
        <ele>459.729871</ele>
        <time>2022-03-08T08:38:40.718Z</time>
      </trkpt>
      <trkpt lat="42.50728" lon="23.9993">
        <ele>459.644312</ele>
        <time>2022-03-08T08:38:43.720Z</time>
      </trkpt>
      <trkpt lat="42.50737" lon="23.99933">
        <ele>459.554478</ele>
        <time>2022-03-08T08:38:46.725Z</time>
      </trkpt>
      <trkpt lat="42.50748" lon="23.99935">
        <ele>459.454625</ele>
        <time>2022-03-08T08:38:49.784Z</time>
      </trkpt>
      <trkpt lat="42.50758" lon="23.99937">
        <ele>459.361964</ele>
        <time>2022-03-08T08:38:52.708Z</time>
      </trkpt>
      <trkpt lat="42.50767" lon="23.99937">
        <ele>459.275704</ele>
        <time>2022-03-08T08:38:55.695Z</time>
      </trkpt>
      <trkpt lat="42.50779" lon="23.99937">
        <ele>459.169202</ele>
        <time>2022-03-08T08:38:58.705Z</time>
      </trkpt>
      <trkpt lat="42.5079" lon="23.99941">
        <ele>459.067703</ele>
        <time>2022-03-08T08:39:01.715Z</time>
      </trkpt>
      <trkpt lat="42.50799" lon="23.99946">
        <ele>458.971991</ele>
        <time>2022-03-08T08:39:04.717Z</time>
      </trkpt>
      <trkpt lat="42.5081" lon="23.9995">
        <ele>458.872793</ele>
        <time>2022-03-08T08:39:07.711Z</time>
      </trkpt>
      <trkpt lat="42.50821" lon="23.99954">
        <ele>458.806462</ele>
        <time>2022-03-08T08:39:10.723Z</time>
      </trkpt>
      <trkpt lat="42.50832" lon="23.99958">
        <ele>458.740811</ele>
        <time>2022-03-08T08:39:13.714Z</time>
      </trkpt>
      <trkpt lat="42.50843" lon="23.9996">
        <ele>458.682142</ele>
        <time>2022-03-08T08:39:16.693Z</time>
      </trkpt>
      <trkpt lat="42.50854" lon="23.99963">
        <ele>458.617806</ele>
        <time>2022-03-08T08:39:19.714Z</time>
      </trkpt>
      <trkpt lat="42.50866" lon="23.99967">
        <ele>458.54839</ele>
        <time>2022-03-08T08:39:22.739Z</time>
      </trkpt>
      <trkpt lat="42.50876" lon="23.99969">
        <ele>458.489337</ele>
        <time>2022-03-08T08:39:25.692Z</time>
      </trkpt>
      <trkpt lat="42.50887" lon="23.99972">
        <ele>458.426876</ele>
        <time>2022-03-08T08:39:28.695Z</time>
      </trkpt>
      <trkpt lat="42.50899" lon="23.99976">
        <ele>458.359415</ele>
        <time>2022-03-08T08:39:31.715Z</time>
      </trkpt>
      <trkpt lat="42.50908" lon="23.99981">
        <ele>458.304879</ele>
        <time>2022-03-08T08:39:33.733Z</time>
      </trkpt>
      <trkpt lat="42.50918" lon="23.99986">
        <ele>458.244374</ele>
        <time>2022-03-08T08:39:36.729Z</time>
      </trkpt>
      <trkpt lat="42.50927" lon="23.9999">
        <ele>458.193717</ele>
        <time>2022-03-08T08:39:39.752Z</time>
      </trkpt>
      <trkpt lat="42.50936" lon="23.99995">
        <ele>458.135501</ele>
        <time>2022-03-08T08:39:42.714Z</time>
      </trkpt>
      <trkpt lat="42.50945" lon="23.99999">
        <ele>458.080817</ele>
        <time>2022-03-08T08:39:45.720Z</time>
      </trkpt>
      <trkpt lat="42.50954" lon="24.00005">
        <ele>458.026211</ele>
        <time>2022-03-08T08:39:48.727Z</time>
      </trkpt>
      <trkpt lat="42.50964" lon="24.00008">
        <ele>457.971506</ele>
        <time>2022-03-08T08:39:51.726Z</time>
      </trkpt>
      <trkpt lat="42.50973" lon="24.00011">
        <ele>457.918702</ele>
        <time>2022-03-08T08:39:54.699Z</time>
      </trkpt>
      <trkpt lat="42.50983" lon="24.00015">
        <ele>457.859537</ele>
        <time>2022-03-08T08:39:57.757Z</time>
      </trkpt>
      <trkpt lat="42.50994" lon="24.00018">
        <ele>457.415684</ele>
        <time>2022-03-08T08:40:00.712Z</time>
      </trkpt>
      <trkpt lat="42.51004" lon="24.00024">
        <ele>456.969816</ele>
        <time>2022-03-08T08:40:03.711Z</time>
      </trkpt>
      <trkpt lat="42.51015" lon="24.00028">
        <ele>456.513418</ele>
        <time>2022-03-08T08:40:06.716Z</time>
      </trkpt>
      <trkpt lat="42.51026" lon="24.00033">
        <ele>456.047563</ele>
        <time>2022-03-08T08:40:09.700Z</time>
      </trkpt>
      <trkpt lat="42.51037" lon="24.00038">
        <ele>455.588416</ele>
        <time>2022-03-08T08:40:12.708Z</time>
      </trkpt>
      <trkpt lat="42.51046" lon="24.00044">
        <ele>455.19043</ele>
        <time>2022-03-08T08:40:15.714Z</time>
      </trkpt>
      <trkpt lat="42.51056" lon="24.00048">
        <ele>454.756794</ele>
        <time>2022-03-08T08:40:18.729Z</time>
      </trkpt>
      <trkpt lat="42.51066" lon="24.00052">
        <ele>454.348242</ele>
        <time>2022-03-08T08:40:21.711Z</time>
      </trkpt>
      <trkpt lat="42.51076" lon="24.00056">
        <ele>453.916281</ele>
        <time>2022-03-08T08:40:24.743Z</time>
      </trkpt>
      <trkpt lat="42.51087" lon="24.00061">
        <ele>453.476156</ele>
        <time>2022-03-08T08:40:27.712Z</time>
      </trkpt>
      <trkpt lat="42.51097" lon="24.00066">
        <ele>453.012081</ele>
        <time>2022-03-08T08:40:30.720Z</time>
      </trkpt>
      <trkpt lat="42.51108" lon="24.00071">
        <ele>452.550035</ele>
        <time>2022-03-08T08:40:33.708Z</time>
      </trkpt>
      <trkpt lat="42.51119" lon="24.00076">
        <ele>452.098336</ele>
        <time>2022-03-08T08:40:36.706Z</time>
      </trkpt>
      <trkpt lat="42.51128" lon="24.00081">
        <ele>451.700918</ele>
        <time>2022-03-08T08:40:39.705Z</time>
      </trkpt>
      <trkpt lat="42.51137" lon="24.00087">
        <ele>451.299189</ele>
        <time>2022-03-08T08:40:42.708Z</time>
      </trkpt>
      <trkpt lat="42.51145" lon="24.00093">
        <ele>450.933185</ele>
        <time>2022-03-08T08:40:45.704Z</time>
      </trkpt>
      <trkpt lat="42.51154" lon="24.00098">
        <ele>450.52212</ele>
        <time>2022-03-08T08:40:48.713Z</time>
      </trkpt>
      <trkpt lat="42.51165" lon="24.00101">
        <ele>450.040816</ele>
        <time>2022-03-08T08:40:51.718Z</time>
      </trkpt>
      <trkpt lat="42.51174" lon="24.00105">
        <ele>449.589955</ele>
        <time>2022-03-08T08:40:54.707Z</time>
      </trkpt>
      <trkpt lat="42.51183" lon="24.0011">
        <ele>449.176233</ele>
        <time>2022-03-08T08:40:57.738Z</time>
      </trkpt>
      <trkpt lat="42.51192" lon="24.00114">
        <ele>448.756281</ele>
        <time>2022-03-08T08:41:00.717Z</time>
      </trkpt>
      <trkpt lat="42.51201" lon="24.00117">
        <ele>448.325297</ele>
        <time>2022-03-08T08:41:03.751Z</time>
      </trkpt>
      <trkpt lat="42.51212" lon="24.00123">
        <ele>447.800318</ele>
        <time>2022-03-08T08:41:06.726Z</time>
      </trkpt>
      <trkpt lat="42.51223" lon="24.0013">
        <ele>447.264268</ele>
        <time>2022-03-08T08:41:09.733Z</time>
      </trkpt>
      <trkpt lat="42.51234" lon="24.00136">
        <ele>446.743441</ele>
        <time>2022-03-08T08:41:12.710Z</time>
      </trkpt>
      <trkpt lat="42.51244" lon="24.00143">
        <ele>446.216985</ele>
        <time>2022-03-08T08:41:15.732Z</time>
      </trkpt>
      <trkpt lat="42.51254" lon="24.0015">
        <ele>445.710911</ele>
        <time>2022-03-08T08:41:18.704Z</time>
      </trkpt>
      <trkpt lat="42.51266" lon="24.00155">
        <ele>445.147357</ele>
        <time>2022-03-08T08:41:21.700Z</time>
      </trkpt>
      <trkpt lat="42.51278" lon="24.00161">
        <ele>444.609217</ele>
        <time>2022-03-08T08:41:24.710Z</time>
      </trkpt>
      <trkpt lat="42.51288" lon="24.00167">
        <ele>444.088217</ele>
        <time>2022-03-08T08:41:27.711Z</time>
      </trkpt>
      <trkpt lat="42.51299" lon="24.00173">
        <ele>443.578408</ele>
        <time>2022-03-08T08:41:30.705Z</time>
      </trkpt>
      <trkpt lat="42.5131" lon="24.00177">
        <ele>443.075016</ele>
        <time>2022-03-08T08:41:33.703Z</time>
      </trkpt>
      <trkpt lat="42.5132" lon="24.00182">
        <ele>442.604419</ele>
        <time>2022-03-08T08:41:36.711Z</time>
      </trkpt>
      <trkpt lat="42.51329" lon="24.00187">
        <ele>443.281555</ele>
        <time>2022-03-08T08:41:39.703Z</time>
      </trkpt>
      <trkpt lat="42.51339" lon="24.00193">
        <ele>444.066018</ele>
        <time>2022-03-08T08:41:42.708Z</time>
      </trkpt>
      <trkpt lat="42.51349" lon="24.00198">
        <ele>444.878554</ele>
        <time>2022-03-08T08:41:45.712Z</time>
      </trkpt>
      <trkpt lat="42.51359" lon="24.00203">
        <ele>445.637814</ele>
        <time>2022-03-08T08:41:48.747Z</time>
      </trkpt>
      <trkpt lat="42.51368" lon="24.00208">
        <ele>446.390116</ele>
        <time>2022-03-08T08:41:51.702Z</time>
      </trkpt>
      <trkpt lat="42.51378" lon="24.00211">
        <ele>447.14411</ele>
        <time>2022-03-08T08:41:54.705Z</time>
      </trkpt>
      <trkpt lat="42.51388" lon="24.00214">
        <ele>447.88006</ele>
        <time>2022-03-08T08:41:57.725Z</time>
      </trkpt>
      <trkpt lat="42.51397" lon="24.00217">
        <ele>448.570506</ele>
        <time>2022-03-08T08:42:00.710Z</time>
      </trkpt>
      <trkpt lat="42.51408" lon="24.00219">
        <ele>449.416184</ele>
        <time>2022-03-08T08:42:04.712Z</time>
      </trkpt>
      <trkpt lat="42.51419" lon="24.00219">
        <ele>450.247497</ele>
        <time>2022-03-08T08:42:08.700Z</time>
      </trkpt>
      <trkpt lat="42.51432" lon="24.00221">
        <ele>451.157621</ele>
        <time>2022-03-08T08:42:12.703Z</time>
      </trkpt>
      <trkpt lat="42.51442" lon="24.00221">
        <ele>451.922472</ele>
        <time>2022-03-08T08:42:15.716Z</time>
      </trkpt>
      <trkpt lat="42.51452" lon="24.00221">
        <ele>452.680676</ele>
        <time>2022-03-08T08:42:18.738Z</time>
      </trkpt>
      <trkpt lat="42.51462" lon="24.00219">
        <ele>453.44095</ele>
        <time>2022-03-08T08:42:21.710Z</time>
      </trkpt>
      <trkpt lat="42.51475" lon="24.00219">
        <ele>454.354322</ele>
        <time>2022-03-08T08:42:24.720Z</time>
      </trkpt>
      <trkpt lat="42.51487" lon="24.00217">
        <ele>455.266941</ele>
        <time>2022-03-08T08:42:27.740Z</time>
      </trkpt>
      <trkpt lat="42.51498" lon="24.00212">
        <ele>456.024456</ele>
        <time>2022-03-08T08:42:30.703Z</time>
      </trkpt>
      <trkpt lat="42.5151" lon="24.00209">
        <ele>456.391398</ele>
        <time>2022-03-08T08:42:33.706Z</time>
      </trkpt>
      <trkpt lat="42.51522" lon="24.00205">
        <ele>456.765278</ele>
        <time>2022-03-08T08:42:36.708Z</time>
      </trkpt>
      <trkpt lat="42.51533" lon="24.00203">
        <ele>457.094956</ele>
        <time>2022-03-08T08:42:39.702Z</time>
      </trkpt>
      <trkpt lat="42.51543" lon="24.002">
        <ele>457.431816</ele>
        <time>2022-03-08T08:42:42.710Z</time>
      </trkpt>
      <trkpt lat="42.51555" lon="24.00197">
        <ele>457.806169</ele>
        <time>2022-03-08T08:42:45.719Z</time>
      </trkpt>
      <trkpt lat="42.51565" lon="24.00194">
        <ele>458.127043</ele>
        <time>2022-03-08T08:42:48.698Z</time>
      </trkpt>
      <trkpt lat="42.51576" lon="24.00191">
        <ele>458.447607</ele>
        <time>2022-03-08T08:42:51.715Z</time>
      </trkpt>
      <trkpt lat="42.51587" lon="24.00189">
        <ele>458.793915</ele>
        <time>2022-03-08T08:42:54.715Z</time>
      </trkpt>
      <trkpt lat="42.51597" lon="24.00185">
        <ele>459.122078</ele>
        <time>2022-03-08T08:42:57.704Z</time>
      </trkpt>
      <trkpt lat="42.51608" lon="24.0018">
        <ele>459.485446</ele>
        <time>2022-03-08T08:43:00.758Z</time>
      </trkpt>
      <trkpt lat="42.51619" lon="24.00175">
        <ele>459.838858</ele>
        <time>2022-03-08T08:43:03.735Z</time>
      </trkpt>
      <trkpt lat="42.51629" lon="24.00168">
        <ele>460.167709</ele>
        <time>2022-03-08T08:43:06.710Z</time>
      </trkpt>
      <trkpt lat="42.51638" lon="24.00161">
        <ele>460.49624</ele>
        <time>2022-03-08T08:43:09.711Z</time>
      </trkpt>
      <trkpt lat="42.51647" lon="24.00151">
        <ele>460.858274</ele>
        <time>2022-03-08T08:43:12.718Z</time>
      </trkpt>
      <trkpt lat="42.51655" lon="24.0014">
        <ele>461.20427</ele>
        <time>2022-03-08T08:43:15.714Z</time>
      </trkpt>
      <trkpt lat="42.51662" lon="24.00131">
        <ele>461.447924</ele>
        <time>2022-03-08T08:43:18.710Z</time>
      </trkpt>
      <trkpt lat="42.51669" lon="24.00123">
        <ele>461.422294</ele>
        <time>2022-03-08T08:43:21.714Z</time>
      </trkpt>
      <trkpt lat="42.51677" lon="24.00114">
        <ele>461.393783</ele>
        <time>2022-03-08T08:43:24.700Z</time>
      </trkpt>
      <trkpt lat="42.51685" lon="24.00102">
        <ele>461.360899</ele>
        <time>2022-03-08T08:43:27.706Z</time>
      </trkpt>
      <trkpt lat="42.51691" lon="24.00091">
        <ele>461.330927</ele>
        <time>2022-03-08T08:43:30.716Z</time>
      </trkpt>
      <trkpt lat="42.51698" lon="24.00081">
        <ele>461.302688</ele>
        <time>2022-03-08T08:43:33.703Z</time>
      </trkpt>
      <trkpt lat="42.51705" lon="24.00069">
        <ele>461.272428</ele>
        <time>2022-03-08T08:43:36.713Z</time>
      </trkpt>
      <trkpt lat="42.51711" lon="24.00058">
        <ele>461.244323</ele>
        <time>2022-03-08T08:43:39.707Z</time>
      </trkpt>
      <trkpt lat="42.51717" lon="24.00047">
        <ele>461.217376</ele>
        <time>2022-03-08T08:43:42.727Z</time>
      </trkpt>
      <trkpt lat="42.51722" lon="24.00037">
        <ele>461.191096</ele>
        <time>2022-03-08T08:43:45.726Z</time>
      </trkpt>
      <trkpt lat="42.51728" lon="24.00027">
        <ele>461.165143</ele>
        <time>2022-03-08T08:43:48.706Z</time>
      </trkpt>
      <trkpt lat="42.51733" lon="24.00017">
        <ele>461.139356</ele>
        <time>2022-03-08T08:43:51.728Z</time>
      </trkpt>
      <trkpt lat="42.51739" lon="24.00007">
        <ele>461.113389</ele>
        <time>2022-03-08T08:43:54.710Z</time>
      </trkpt>
      <trkpt lat="42.51748" lon="23.99995">
        <ele>461.079511</ele>
        <time>2022-03-08T08:43:58.724Z</time>
      </trkpt>
      <trkpt lat="42.51755" lon="23.99985">
        <ele>461.051047</ele>
        <time>2022-03-08T08:44:01.722Z</time>
      </trkpt>
      <trkpt lat="42.51762" lon="23.99976">
        <ele>461.023898</ele>
        <time>2022-03-08T08:44:04.699Z</time>
      </trkpt>
      <trkpt lat="42.51769" lon="23.99968">
        <ele>460.997281</ele>
        <time>2022-03-08T08:44:07.749Z</time>
      </trkpt>
      <trkpt lat="42.51778" lon="23.99959">
        <ele>460.965924</ele>
        <time>2022-03-08T08:44:10.707Z</time>
      </trkpt>
      <trkpt lat="42.51788" lon="23.99952">
        <ele>460.838239</ele>
        <time>2022-03-08T08:44:13.704Z</time>
      </trkpt>
      <trkpt lat="42.51797" lon="23.99945">
        <ele>460.622238</ele>
        <time>2022-03-08T08:44:16.718Z</time>
      </trkpt>
      <trkpt lat="42.51807" lon="23.99938">
        <ele>460.387344</ele>
        <time>2022-03-08T08:44:19.702Z</time>
      </trkpt>
      <trkpt lat="42.51816" lon="23.99933">
        <ele>460.172378</ele>
        <time>2022-03-08T08:44:22.693Z</time>
      </trkpt>
      <trkpt lat="42.51828" lon="23.9993">
        <ele>459.914443</ele>
        <time>2022-03-08T08:44:26.705Z</time>
      </trkpt>
      <trkpt lat="42.51838" lon="23.99928">
        <ele>459.697371</ele>
        <time>2022-03-08T08:44:29.728Z</time>
      </trkpt>
      <trkpt lat="42.51849" lon="23.99926">
        <ele>459.481326</ele>
        <time>2022-03-08T08:44:32.705Z</time>
      </trkpt>
      <trkpt lat="42.51859" lon="23.99924">
        <ele>459.263009</ele>
        <time>2022-03-08T08:44:35.699Z</time>
      </trkpt>
      <trkpt lat="42.51869" lon="23.99923">
        <ele>459.051484</ele>
        <time>2022-03-08T08:44:38.730Z</time>
      </trkpt>
      <trkpt lat="42.51879" lon="23.99921">
        <ele>458.843607</ele>
        <time>2022-03-08T08:44:41.716Z</time>
      </trkpt>
      <trkpt lat="42.51889" lon="23.99919">
        <ele>458.617491</ele>
        <time>2022-03-08T08:44:45.752Z</time>
      </trkpt>
      <trkpt lat="42.519" lon="23.99918">
        <ele>458.392163</ele>
        <time>2022-03-08T08:44:49.699Z</time>
      </trkpt>
      <trkpt lat="42.51912" lon="23.99919">
        <ele>458.139441</ele>
        <time>2022-03-08T08:44:53.702Z</time>
      </trkpt>
      <trkpt lat="42.51923" lon="23.99919">
        <ele>457.91422</ele>
        <time>2022-03-08T08:44:56.736Z</time>
      </trkpt>
      <trkpt lat="42.51933" lon="23.99917">
        <ele>457.69571</ele>
        <time>2022-03-08T08:44:59.708Z</time>
      </trkpt>
      <trkpt lat="42.51945" lon="23.99914">
        <ele>457.436329</ele>
        <time>2022-03-08T08:45:02.712Z</time>
      </trkpt>
      <trkpt lat="42.51957" lon="23.99914">
        <ele>457.18594</ele>
        <time>2022-03-08T08:45:05.697Z</time>
      </trkpt>
      <trkpt lat="42.51968" lon="23.99915">
        <ele>457.001016</ele>
        <time>2022-03-08T08:45:08.718Z</time>
      </trkpt>
      <trkpt lat="42.5198" lon="23.99918">
        <ele>456.79131</ele>
        <time>2022-03-08T08:45:11.715Z</time>
      </trkpt>
      <trkpt lat="42.51992" lon="23.99923">
        <ele>456.578623</ele>
        <time>2022-03-08T08:45:14.710Z</time>
      </trkpt>
      <trkpt lat="42.52005" lon="23.9993">
        <ele>456.347956</ele>
        <time>2022-03-08T08:45:17.711Z</time>
      </trkpt>
      <trkpt lat="42.52013" lon="23.99937">
        <ele>456.185411</ele>
        <time>2022-03-08T08:45:19.693Z</time>
      </trkpt>
      <trkpt lat="42.52021" lon="23.99945">
        <ele>456.015077</ele>
        <time>2022-03-08T08:45:21.715Z</time>
      </trkpt>
      <trkpt lat="42.52028" lon="23.99955">
        <ele>455.848498</ele>
        <time>2022-03-08T08:45:23.776Z</time>
      </trkpt>
      <trkpt lat="42.52035" lon="23.99969">
        <ele>455.632612</ele>
        <time>2022-03-08T08:45:26.710Z</time>
      </trkpt>
      <trkpt lat="42.52042" lon="23.99983">
        <ele>455.421791</ele>
        <time>2022-03-08T08:45:29.701Z</time>
      </trkpt>
      <trkpt lat="42.52047" lon="23.99997">
        <ele>455.221494</ele>
        <time>2022-03-08T08:45:32.708Z</time>
      </trkpt>
      <trkpt lat="42.52054" lon="24.0001">
        <ele>455.028469</ele>
        <time>2022-03-08T08:45:35.715Z</time>
      </trkpt>
      <trkpt lat="42.52059" lon="24.00021">
        <ele>454.866302</ele>
        <time>2022-03-08T08:45:38.705Z</time>
      </trkpt>
      <trkpt lat="42.52065" lon="24.00033">
        <ele>454.680617</ele>
        <time>2022-03-08T08:45:41.709Z</time>
      </trkpt>
      <trkpt lat="42.52073" lon="24.00045">
        <ele>454.479577</ele>
        <time>2022-03-08T08:45:44.723Z</time>
      </trkpt>
      <trkpt lat="42.5208" lon="24.00057">
        <ele>454.295911</ele>
        <time>2022-03-08T08:45:47.716Z</time>
      </trkpt>
      <trkpt lat="42.52085" lon="24.00069">
        <ele>454.128098</ele>
        <time>2022-03-08T08:45:50.708Z</time>
      </trkpt>
      <trkpt lat="42.52091" lon="24.00082">
        <ele>454.414403</ele>
        <time>2022-03-08T08:45:53.712Z</time>
      </trkpt>
      <trkpt lat="42.521" lon="24.00093">
        <ele>454.719262</ele>
        <time>2022-03-08T08:45:56.717Z</time>
      </trkpt>
      <trkpt lat="42.52106" lon="24.00104">
        <ele>454.974504</ele>
        <time>2022-03-08T08:45:59.711Z</time>
      </trkpt>
      <trkpt lat="42.52112" lon="24.00114">
        <ele>455.218604</ele>
        <time>2022-03-08T08:46:02.758Z</time>
      </trkpt>
      <trkpt lat="42.52119" lon="24.00125">
        <ele>455.495129</ele>
        <time>2022-03-08T08:46:05.724Z</time>
      </trkpt>
      <trkpt lat="42.52125" lon="24.00135">
        <ele>455.741169</ele>
        <time>2022-03-08T08:46:08.710Z</time>
      </trkpt>
      <trkpt lat="42.52132" lon="24.00148">
        <ele>456.022997</ele>
        <time>2022-03-08T08:46:12.716Z</time>
      </trkpt>
      <trkpt lat="42.52138" lon="24.00161">
        <ele>456.310365</ele>
        <time>2022-03-08T08:46:17.706Z</time>
      </trkpt>
      <trkpt lat="42.52143" lon="24.00173">
        <ele>456.571945</ele>
        <time>2022-03-08T08:46:21.705Z</time>
      </trkpt>
      <trkpt lat="42.52149" lon="24.00186">
        <ele>456.859057</ele>
        <time>2022-03-08T08:46:25.696Z</time>
      </trkpt>
      <trkpt lat="42.52155" lon="24.00198">
        <ele>457.147034</ele>
        <time>2022-03-08T08:46:29.711Z</time>
      </trkpt>
      <trkpt lat="42.5216" lon="24.00209">
        <ele>457.378311</ele>
        <time>2022-03-08T08:46:33.723Z</time>
      </trkpt>
      <trkpt lat="42.52166" lon="24.0022">
        <ele>457.625703</ele>
        <time>2022-03-08T08:46:37.719Z</time>
      </trkpt>
      <trkpt lat="42.52174" lon="24.00232">
        <ele>457.934172</ele>
        <time>2022-03-08T08:46:41.716Z</time>
      </trkpt>
      <trkpt lat="42.52181" lon="24.00244">
        <ele>458.220756</ele>
        <time>2022-03-08T08:46:45.712Z</time>
      </trkpt>
      <trkpt lat="42.52187" lon="24.00253">
        <ele>458.454099</ele>
        <time>2022-03-08T08:46:48.715Z</time>
      </trkpt>
      <trkpt lat="42.52193" lon="24.00263">
        <ele>458.68237</ele>
        <time>2022-03-08T08:46:51.741Z</time>
      </trkpt>
      <trkpt lat="42.52199" lon="24.00275">
        <ele>458.856143</ele>
        <time>2022-03-08T08:46:55.704Z</time>
      </trkpt>
      <trkpt lat="42.52207" lon="24.00285">
        <ele>459.034978</ele>
        <time>2022-03-08T08:46:59.723Z</time>
      </trkpt>
      <trkpt lat="42.52217" lon="24.00292">
        <ele>459.199574</ele>
        <time>2022-03-08T08:47:03.704Z</time>
      </trkpt>
      <trkpt lat="42.52227" lon="24.00296">
        <ele>459.373437</ele>
        <time>2022-03-08T08:47:07.719Z</time>
      </trkpt>
      <trkpt lat="42.52239" lon="24.00299">
        <ele>459.552653</ele>
        <time>2022-03-08T08:47:11.714Z</time>
      </trkpt>
      <trkpt lat="42.52249" lon="24.00302">
        <ele>459.72397</ele>
        <time>2022-03-08T08:47:15.718Z</time>
      </trkpt>
      <trkpt lat="42.52259" lon="24.00303">
        <ele>459.876709</ele>
        <time>2022-03-08T08:47:19.711Z</time>
      </trkpt>
      <trkpt lat="42.52269" lon="24.00305">
        <ele>460.026602</ele>
        <time>2022-03-08T08:47:23.706Z</time>
      </trkpt>
      <trkpt lat="42.52279" lon="24.00306">
        <ele>460.196027</ele>
        <time>2022-03-08T08:47:28.716Z</time>
      </trkpt>
      <trkpt lat="42.52289" lon="24.00308">
        <ele>460.347934</ele>
        <time>2022-03-08T08:47:32.699Z</time>
      </trkpt>
      <trkpt lat="42.52299" lon="24.0031">
        <ele>460.505204</ele>
        <time>2022-03-08T08:47:36.715Z</time>
      </trkpt>
      <trkpt lat="42.52308" lon="24.00312">
        <ele>460.650587</ele>
        <time>2022-03-08T08:47:40.707Z</time>
      </trkpt>
      <trkpt lat="42.52319" lon="24.00314">
        <ele>460.818159</ele>
        <time>2022-03-08T08:47:45.709Z</time>
      </trkpt>
      <trkpt lat="42.52328" lon="24.00315">
        <ele>460.970479</ele>
        <time>2022-03-08T08:47:50.712Z</time>
      </trkpt>
      <trkpt lat="42.52338" lon="24.00315">
        <ele>461.127267</ele>
        <time>2022-03-08T08:47:55.710Z</time>
      </trkpt>
      <trkpt lat="42.52349" lon="24.00314">
        <ele>461.288957</ele>
        <time>2022-03-08T08:47:59.711Z</time>
      </trkpt>
      <trkpt lat="42.52358" lon="24.00311">
        <ele>461.436748</ele>
        <time>2022-03-08T08:48:03.723Z</time>
      </trkpt>
      <trkpt lat="42.52368" lon="24.00307">
        <ele>462.072369</ele>
        <time>2022-03-08T08:48:08.715Z</time>
      </trkpt>
      <trkpt lat="42.52377" lon="24.00301">
        <ele>463.050894</ele>
        <time>2022-03-08T08:48:12.702Z</time>
      </trkpt>
      <trkpt lat="42.52387" lon="24.00295">
        <ele>464.049665</ele>
        <time>2022-03-08T08:48:17.714Z</time>
      </trkpt>
      <trkpt lat="42.52396" lon="24.0029">
        <ele>464.99169</ele>
        <time>2022-03-08T08:48:21.699Z</time>
      </trkpt>
      <trkpt lat="42.52406" lon="24.00285">
        <ele>466.023846</ele>
        <time>2022-03-08T08:48:27.764Z</time>
      </trkpt>
      <trkpt lat="42.52416" lon="24.00278">
        <ele>467.118124</ele>
        <time>2022-03-08T08:48:32.695Z</time>
      </trkpt>
      <trkpt lat="42.52425" lon="24.00273">
        <ele>468.064801</ele>
        <time>2022-03-08T08:48:36.717Z</time>
      </trkpt>
      <trkpt lat="42.52435" lon="24.00267">
        <ele>469.093267</ele>
        <time>2022-03-08T08:48:41.709Z</time>
      </trkpt>
      <trkpt lat="42.52446" lon="24.0026">
        <ele>470.208338</ele>
        <time>2022-03-08T08:48:46.712Z</time>
      </trkpt>
      <trkpt lat="42.52456" lon="24.00255">
        <ele>471.221868</ele>
        <time>2022-03-08T08:48:50.700Z</time>
      </trkpt>
      <trkpt lat="42.52464" lon="24.0025">
        <ele>472.086513</ele>
        <time>2022-03-08T08:48:54.714Z</time>
      </trkpt>
      <trkpt lat="42.52473" lon="24.00246">
        <ele>472.958743</ele>
        <time>2022-03-08T08:48:58.719Z</time>
      </trkpt>
      <trkpt lat="42.52483" lon="24.00239">
        <ele>474.046187</ele>
        <time>2022-03-08T08:49:02.707Z</time>
      </trkpt>
      <trkpt lat="42.52492" lon="24.00232">
        <ele>475.031473</ele>
        <time>2022-03-08T08:49:07.718Z</time>
      </trkpt>
      <trkpt lat="42.52501" lon="24.00227">
        <ele>475.924012</ele>
        <time>2022-03-08T08:49:11.740Z</time>
      </trkpt>
      <trkpt lat="42.5251" lon="24.00223">
        <ele>476.860482</ele>
        <time>2022-03-08T08:49:15.709Z</time>
      </trkpt>
      <trkpt lat="42.52519" lon="24.00217">
        <ele>477.842207</ele>
        <time>2022-03-08T08:49:19.713Z</time>
      </trkpt>
      <trkpt lat="42.52529" lon="24.00212">
        <ele>478.748072</ele>
        <time>2022-03-08T08:49:23.693Z</time>
      </trkpt>
      <trkpt lat="42.52539" lon="24.00207">
        <ele>479.459906</ele>
        <time>2022-03-08T08:49:27.705Z</time>
      </trkpt>
      <trkpt lat="42.52548" lon="24.002">
        <ele>480.174376</ele>
        <time>2022-03-08T08:49:32.704Z</time>
      </trkpt>
      <trkpt lat="42.52556" lon="24.00192">
        <ele>480.859686</ele>
        <time>2022-03-08T08:49:37.696Z</time>
      </trkpt>
      <trkpt lat="42.52562" lon="24.00182">
        <ele>481.469754</ele>
        <time>2022-03-08T08:49:42.715Z</time>
      </trkpt>
      <trkpt lat="42.52567" lon="24.00171">
        <ele>482.089898</ele>
        <time>2022-03-08T08:49:48.720Z</time>
      </trkpt>
      <trkpt lat="42.52571" lon="24.0016">
        <ele>482.739942</ele>
        <time>2022-03-08T08:49:54.702Z</time>
      </trkpt>
      <trkpt lat="42.52576" lon="24.00147">
        <ele>483.426042</ele>
        <time>2022-03-08T08:50:00.730Z</time>
      </trkpt>
      <trkpt lat="42.52583" lon="24.00139">
        <ele>484.032212</ele>
        <time>2022-03-08T08:50:04.710Z</time>
      </trkpt>
      <trkpt lat="42.5259" lon="24.00129">
        <ele>484.71056</ele>
        <time>2022-03-08T08:50:09.703Z</time>
      </trkpt>
      <trkpt lat="42.52596" lon="24.0012">
        <ele>485.308824</ele>
        <time>2022-03-08T08:50:14.747Z</time>
      </trkpt>
      <trkpt lat="42.52602" lon="24.00108">
        <ele>485.988766</ele>
        <time>2022-03-08T08:50:19.720Z</time>
      </trkpt>
      <trkpt lat="42.52608" lon="24.00099">
        <ele>486.610637</ele>
        <time>2022-03-08T08:50:24.744Z</time>
      </trkpt>
      <trkpt lat="42.52613" lon="24.00089">
        <ele>487.219411</ele>
        <time>2022-03-08T08:50:30.719Z</time>
      </trkpt>
      <trkpt lat="42.52619" lon="24.0008">
        <ele>487.840665</ele>
        <time>2022-03-08T08:50:36.712Z</time>
      </trkpt>
      <trkpt lat="42.52625" lon="24.00069">
        <ele>488.47318</ele>
        <time>2022-03-08T08:50:42.706Z</time>
      </trkpt>
      <trkpt lat="42.52633" lon="24.00059">
        <ele>489.17662</ele>
        <time>2022-03-08T08:50:48.714Z</time>
      </trkpt>
      <trkpt lat="42.52641" lon="24.00051">
        <ele>489.849404</ele>
        <time>2022-03-08T08:50:54.706Z</time>
      </trkpt>
      <trkpt lat="42.52648" lon="24.00043">
        <ele>490.452944</ele>
        <time>2022-03-08T08:50:58.712Z</time>
      </trkpt>
      <trkpt lat="42.52655" lon="24.00035">
        <ele>490.462239</ele>
        <time>2022-03-08T08:51:02.721Z</time>
      </trkpt>
      <trkpt lat="42.52662" lon="24.00027">
        <ele>490.22145</ele>
        <time>2022-03-08T08:51:06.701Z</time>
      </trkpt>
      <trkpt lat="42.52669" lon="24.00019">
        <ele>489.985877</ele>
        <time>2022-03-08T08:51:12.739Z</time>
      </trkpt>
      <trkpt lat="42.52677" lon="24.00013">
        <ele>489.742128</ele>
        <time>2022-03-08T08:51:20.712Z</time>
      </trkpt>
      <trkpt lat="42.52686" lon="24.00006">
        <ele>489.483112</ele>
        <time>2022-03-08T08:51:25.717Z</time>
      </trkpt>
      <trkpt lat="42.52694" lon="23.99999">
        <ele>489.235936</ele>
        <time>2022-03-08T08:51:29.765Z</time>
      </trkpt>
      <trkpt lat="42.52701" lon="23.99991">
        <ele>488.994669</ele>
        <time>2022-03-08T08:51:36.706Z</time>
      </trkpt>
      <trkpt lat="42.52708" lon="23.99982">
        <ele>488.744269</ele>
        <time>2022-03-08T08:51:42.712Z</time>
      </trkpt>
      <trkpt lat="42.52717" lon="23.99977">
        <ele>488.497994</ele>
        <time>2022-03-08T08:51:47.717Z</time>
      </trkpt>
      <trkpt lat="42.52726" lon="23.99972">
        <ele>488.228148</ele>
        <time>2022-03-08T08:51:52.719Z</time>
      </trkpt>
      <trkpt lat="42.52735" lon="23.99964">
        <ele>487.969211</ele>
        <time>2022-03-08T08:51:56.736Z</time>
      </trkpt>
      <trkpt lat="42.52743" lon="23.99956">
        <ele>487.704853</ele>
        <time>2022-03-08T08:52:02.752Z</time>
      </trkpt>
      <trkpt lat="42.52751" lon="23.99948">
        <ele>487.436244</ele>
        <time>2022-03-08T08:52:08.727Z</time>
      </trkpt>
      <trkpt lat="42.52759" lon="23.9994">
        <ele>487.196411</ele>
        <time>2022-03-08T08:52:13.715Z</time>
      </trkpt>
      <trkpt lat="42.52766" lon="23.99933">
        <ele>486.962772</ele>
        <time>2022-03-08T08:52:18.718Z</time>
      </trkpt>
      <trkpt lat="42.52775" lon="23.99924">
        <ele>486.681175</ele>
        <time>2022-03-08T08:52:24.715Z</time>
      </trkpt>
      <trkpt lat="42.52783" lon="23.99917">
        <ele>486.43825</ele>
        <time>2022-03-08T08:52:29.715Z</time>
      </trkpt>
      <trkpt lat="42.52792" lon="23.9991">
        <ele>486.157019</ele>
        <time>2022-03-08T08:52:34.706Z</time>
      </trkpt>
      <trkpt lat="42.52801" lon="23.99905">
        <ele>486.134777</ele>
        <time>2022-03-08T08:52:39.709Z</time>
      </trkpt>
      <trkpt lat="42.52811" lon="23.999">
        <ele>486.906843</ele>
        <time>2022-03-08T08:52:44.732Z</time>
      </trkpt>
      <trkpt lat="42.52821" lon="23.99896">
        <ele>487.583015</ele>
        <time>2022-03-08T08:52:48.773Z</time>
      </trkpt>
      <trkpt lat="42.52831" lon="23.99893">
        <ele>488.304482</ele>
        <time>2022-03-08T08:52:52.713Z</time>
      </trkpt>
      <trkpt lat="42.5284" lon="23.99891">
        <ele>488.945299</ele>
        <time>2022-03-08T08:52:56.714Z</time>
      </trkpt>
      <trkpt lat="42.52849" lon="23.99885">
        <ele>489.6245</ele>
        <time>2022-03-08T08:53:02.760Z</time>
      </trkpt>
      <trkpt lat="42.5286" lon="23.99882">
        <ele>490.361645</ele>
        <time>2022-03-08T08:53:08.714Z</time>
      </trkpt>
      <trkpt lat="42.5287" lon="23.99882">
        <ele>491.081914</ele>
        <time>2022-03-08T08:53:14.719Z</time>
      </trkpt>
      <trkpt lat="42.52881" lon="23.99882">
        <ele>491.857293</ele>
        <time>2022-03-08T08:53:19.717Z</time>
      </trkpt>
      <trkpt lat="42.52892" lon="23.99884">
        <ele>492.588212</ele>
        <time>2022-03-08T08:53:25.717Z</time>
      </trkpt>
      <trkpt lat="42.52901" lon="23.99885">
        <ele>493.224136</ele>
        <time>2022-03-08T08:53:29.708Z</time>
      </trkpt>
      <trkpt lat="42.52911" lon="23.99888">
        <ele>493.923206</ele>
        <time>2022-03-08T08:53:34.705Z</time>
      </trkpt>
      <trkpt lat="42.5292" lon="23.99893">
        <ele>494.608471</ele>
        <time>2022-03-08T08:53:40.737Z</time>
      </trkpt>
      <trkpt lat="42.52926" lon="23.99902">
        <ele>495.252059</ele>
        <time>2022-03-08T08:53:45.711Z</time>
      </trkpt>
      <trkpt lat="42.52932" lon="23.99912">
        <ele>495.926607</ele>
        <time>2022-03-08T08:53:49.703Z</time>
      </trkpt>
      <trkpt lat="42.52941" lon="23.99923">
        <ele>496.736234</ele>
        <time>2022-03-08T08:53:53.722Z</time>
      </trkpt>
      <trkpt lat="42.52945" lon="23.99937">
        <ele>497.4855</ele>
        <time>2022-03-08T08:53:57.696Z</time>
      </trkpt>
      <trkpt lat="42.52947" lon="23.9995">
        <ele>498.191686</ele>
        <time>2022-03-08T08:54:01.712Z</time>
      </trkpt>
      <trkpt lat="42.52948" lon="23.99966">
        <ele>498.470799</ele>
        <time>2022-03-08T08:54:05.720Z</time>
      </trkpt>
      <trkpt lat="42.52953" lon="23.99977">
        <ele>498.53559</ele>
        <time>2022-03-08T08:54:09.714Z</time>
      </trkpt>
      <trkpt lat="42.52958" lon="23.99988">
        <ele>498.59651</ele>
        <time>2022-03-08T08:54:13.722Z</time>
      </trkpt>
      <trkpt lat="42.52965" lon="23.99998">
        <ele>498.662782</ele>
        <time>2022-03-08T08:54:19.716Z</time>
      </trkpt>
      <trkpt lat="42.52975" lon="24.00003">
        <ele>498.733252</ele>
        <time>2022-03-08T08:54:24.728Z</time>
      </trkpt>
      <trkpt lat="42.52984" lon="24.00008">
        <ele>498.798353</ele>
        <time>2022-03-08T08:54:27.734Z</time>
      </trkpt>
      <trkpt lat="42.52996" lon="24.00015">
        <ele>498.88025</ele>
        <time>2022-03-08T08:54:31.717Z</time>
      </trkpt>
      <trkpt lat="42.53006" lon="24.00018">
        <ele>498.949941</ele>
        <time>2022-03-08T08:54:34.708Z</time>
      </trkpt>
      <trkpt lat="42.53017" lon="24.00021">
        <ele>499.022939</ele>
        <time>2022-03-08T08:54:37.710Z</time>
      </trkpt>
      <trkpt lat="42.53029" lon="24.00025">
        <ele>499.108464</ele>
        <time>2022-03-08T08:54:40.725Z</time>
      </trkpt>
      <trkpt lat="42.53044" lon="24.0003">
        <ele>499.20575</ele>
        <time>2022-03-08T08:54:43.751Z</time>
      </trkpt>
      <trkpt lat="42.53055" lon="24.00031">
        <ele>499.27882</ele>
        <time>2022-03-08T08:54:45.712Z</time>
      </trkpt>
      <trkpt lat="42.53064" lon="24.00035">
        <ele>499.342481</ele>
        <time>2022-03-08T08:54:47.711Z</time>
      </trkpt>
      <trkpt lat="42.53077" lon="24.00037">
        <ele>499.426529</ele>
        <time>2022-03-08T08:54:50.717Z</time>
      </trkpt>
      <trkpt lat="42.53088" lon="24.00036">
        <ele>499.495733</ele>
        <time>2022-03-08T08:54:52.712Z</time>
      </trkpt>
      <trkpt lat="42.53096" lon="24.00031">
        <ele>499.555288</ele>
        <time>2022-03-08T08:54:54.696Z</time>
      </trkpt>
      <trkpt lat="42.53106" lon="24.00019">
        <ele>499.187228</ele>
        <time>2022-03-08T08:54:57.711Z</time>
      </trkpt>
      <trkpt lat="42.53112" lon="24.00009">
        <ele>498.57603</ele>
        <time>2022-03-08T08:54:59.753Z</time>
      </trkpt>
      <trkpt lat="42.53119" lon="23.99996">
        <ele>497.863258</ele>
        <time>2022-03-08T08:55:01.716Z</time>
      </trkpt>
      <trkpt lat="42.53124" lon="23.99982">
        <ele>497.134756</ele>
        <time>2022-03-08T08:55:03.714Z</time>
      </trkpt>
      <trkpt lat="42.53127" lon="23.99966">
        <ele>496.417431</ele>
        <time>2022-03-08T08:55:05.728Z</time>
      </trkpt>
      <trkpt lat="42.53128" lon="23.9995">
        <ele>495.688204</ele>
        <time>2022-03-08T08:55:07.711Z</time>
      </trkpt>
      <trkpt lat="42.5313" lon="23.99934">
        <ele>494.938095</ele>
        <time>2022-03-08T08:55:09.720Z</time>
      </trkpt>
      <trkpt lat="42.5313" lon="23.99916">
        <ele>494.129473</ele>
        <time>2022-03-08T08:55:11.781Z</time>
      </trkpt>
      <trkpt lat="42.5313" lon="23.99899">
        <ele>493.352649</ele>
        <time>2022-03-08T08:55:13.728Z</time>
      </trkpt>
      <trkpt lat="42.5313" lon="23.99882">
        <ele>492.625426</ele>
        <time>2022-03-08T08:55:15.702Z</time>
      </trkpt>
      <trkpt lat="42.53131" lon="23.99868">
        <ele>491.957473</ele>
        <time>2022-03-08T08:55:17.712Z</time>
      </trkpt>
      <trkpt lat="42.53133" lon="23.99853">
        <ele>491.265645</ele>
        <time>2022-03-08T08:55:19.698Z</time>
      </trkpt>
      <trkpt lat="42.53136" lon="23.99838">
        <ele>490.565278</ele>
        <time>2022-03-08T08:55:21.717Z</time>
      </trkpt>
      <trkpt lat="42.5314" lon="23.99822">
        <ele>489.789765</ele>
        <time>2022-03-08T08:55:23.723Z</time>
      </trkpt>
      <trkpt lat="42.53145" lon="23.99804">
        <ele>488.95694</ele>
        <time>2022-03-08T08:55:25.706Z</time>
      </trkpt>
      <trkpt lat="42.53151" lon="23.99788">
        <ele>488.336109</ele>
        <time>2022-03-08T08:55:27.732Z</time>
      </trkpt>
      <trkpt lat="42.53157" lon="23.99771">
        <ele>487.901687</ele>
        <time>2022-03-08T08:55:29.716Z</time>
      </trkpt>
      <trkpt lat="42.53162" lon="23.99755">
        <ele>487.482706</ele>
        <time>2022-03-08T08:55:31.720Z</time>
      </trkpt>
      <trkpt lat="42.53166" lon="23.99741">
        <ele>487.115951</ele>
        <time>2022-03-08T08:55:33.735Z</time>
      </trkpt>
      <trkpt lat="42.53173" lon="23.99726">
        <ele>486.683119</ele>
        <time>2022-03-08T08:55:36.713Z</time>
      </trkpt>
      <trkpt lat="42.53182" lon="23.99714">
        <ele>486.281311</ele>
        <time>2022-03-08T08:55:38.713Z</time>
      </trkpt>
      <trkpt lat="42.53189" lon="23.99703">
        <ele>485.910417</ele>
        <time>2022-03-08T08:55:40.718Z</time>
      </trkpt>
      <trkpt lat="42.53199" lon="23.9969">
        <ele>485.468611</ele>
        <time>2022-03-08T08:55:42.713Z</time>
      </trkpt>
      <trkpt lat="42.53209" lon="23.99679">
        <ele>485.048516</ele>
        <time>2022-03-08T08:55:44.708Z</time>
      </trkpt>
      <trkpt lat="42.53219" lon="23.99667">
        <ele>484.626836</ele>
        <time>2022-03-08T08:55:46.712Z</time>
      </trkpt>
      <trkpt lat="42.53232" lon="23.99654">
        <ele>484.089597</ele>
        <time>2022-03-08T08:55:48.722Z</time>
      </trkpt>
      <trkpt lat="42.5324" lon="23.99647">
        <ele>483.783184</ele>
        <time>2022-03-08T08:55:49.753Z</time>
      </trkpt>
      <trkpt lat="42.53254" lon="23.99635">
        <ele>483.250057</ele>
        <time>2022-03-08T08:55:51.700Z</time>
      </trkpt>
      <trkpt lat="42.53266" lon="23.99625">
        <ele>482.7768</ele>
        <time>2022-03-08T08:55:53.715Z</time>
      </trkpt>
      <trkpt lat="42.53278" lon="23.99618">
        <ele>482.084112</ele>
        <time>2022-03-08T08:55:55.718Z</time>
      </trkpt>
      <trkpt lat="42.53289" lon="23.99613">
        <ele>481.387931</ele>
        <time>2022-03-08T08:55:57.711Z</time>
      </trkpt>
      <trkpt lat="42.53301" lon="23.99607">
        <ele>480.678086</ele>
        <time>2022-03-08T08:55:59.711Z</time>
      </trkpt>
      <trkpt lat="42.53312" lon="23.99602">
        <ele>480.026046</ele>
        <time>2022-03-08T08:56:01.713Z</time>
      </trkpt>
      <trkpt lat="42.53321" lon="23.99597">
        <ele>479.455329</ele>
        <time>2022-03-08T08:56:03.720Z</time>
      </trkpt>
      <trkpt lat="42.53333" lon="23.99591">
        <ele>478.708582</ele>
        <time>2022-03-08T08:56:06.715Z</time>
      </trkpt>
      <trkpt lat="42.53342" lon="23.99586">
        <ele>478.171001</ele>
        <time>2022-03-08T08:56:08.717Z</time>
      </trkpt>
      <trkpt lat="42.53353" lon="23.9958">
        <ele>477.458228</ele>
        <time>2022-03-08T08:56:11.748Z</time>
      </trkpt>
      <trkpt lat="42.53363" lon="23.99576">
        <ele>476.860344</ele>
        <time>2022-03-08T08:56:14.716Z</time>
      </trkpt>
      <trkpt lat="42.53374" lon="23.99568">
        <ele>476.16843</ele>
        <time>2022-03-08T08:56:18.725Z</time>
      </trkpt>
      <trkpt lat="42.53384" lon="23.99563">
        <ele>475.543137</ele>
        <time>2022-03-08T08:56:21.721Z</time>
      </trkpt>
      <trkpt lat="42.53396" lon="23.99559">
        <ele>474.848167</ele>
        <time>2022-03-08T08:56:24.712Z</time>
      </trkpt>
      <trkpt lat="42.53406" lon="23.99555">
        <ele>474.205167</ele>
        <time>2022-03-08T08:56:27.739Z</time>
      </trkpt>
      <trkpt lat="42.53417" lon="23.99553">
        <ele>473.567071</ele>
        <time>2022-03-08T08:56:30.715Z</time>
      </trkpt>
      <trkpt lat="42.53427" lon="23.99552">
        <ele>472.983976</ele>
        <time>2022-03-08T08:56:33.715Z</time>
      </trkpt>
      <trkpt lat="42.53439" lon="23.99553">
        <ele>472.34181</ele>
        <time>2022-03-08T08:56:36.723Z</time>
      </trkpt>
      <trkpt lat="42.53452" lon="23.99555">
        <ele>472.49325</ele>
        <time>2022-03-08T08:56:39.716Z</time>
      </trkpt>
      <trkpt lat="42.53464" lon="23.99558">
        <ele>472.641399</ele>
        <time>2022-03-08T08:56:42.710Z</time>
      </trkpt>
      <trkpt lat="42.53478" lon="23.99561">
        <ele>472.811835</ele>
        <time>2022-03-08T08:56:45.701Z</time>
      </trkpt>
      <trkpt lat="42.53489" lon="23.99566">
        <ele>472.947205</ele>
        <time>2022-03-08T08:56:48.714Z</time>
      </trkpt>
      <trkpt lat="42.535" lon="23.99571">
        <ele>473.086593</ele>
        <time>2022-03-08T08:56:52.745Z</time>
      </trkpt>
      <trkpt lat="42.53512" lon="23.99572">
        <ele>473.224389</ele>
        <time>2022-03-08T08:56:57.715Z</time>
      </trkpt>
      <trkpt lat="42.53523" lon="23.99571">
        <ele>473.367017</ele>
        <time>2022-03-08T08:57:00.705Z</time>
      </trkpt>
      <trkpt lat="42.53534" lon="23.99569">
        <ele>473.495448</ele>
        <time>2022-03-08T08:57:03.751Z</time>
      </trkpt>
      <trkpt lat="42.53544" lon="23.99566">
        <ele>473.610397</ele>
        <time>2022-03-08T08:57:06.719Z</time>
      </trkpt>
      <trkpt lat="42.53553" lon="23.99563">
        <ele>473.726993</ele>
        <time>2022-03-08T08:57:09.708Z</time>
      </trkpt>
      <trkpt lat="42.53565" lon="23.99558">
        <ele>473.876779</ele>
        <time>2022-03-08T08:57:12.718Z</time>
      </trkpt>
      <trkpt lat="42.53574" lon="23.99556">
        <ele>473.98587</ele>
        <time>2022-03-08T08:57:14.774Z</time>
      </trkpt>
      <trkpt lat="42.53587" lon="23.99551">
        <ele>474.149803</ele>
        <time>2022-03-08T08:57:17.720Z</time>
      </trkpt>
      <trkpt lat="42.536" lon="23.99547">
        <ele>474.298575</ele>
        <time>2022-03-08T08:57:20.722Z</time>
      </trkpt>
      <trkpt lat="42.5361" lon="23.99542">
        <ele>474.435078</ele>
        <time>2022-03-08T08:57:23.716Z</time>
      </trkpt>
      <trkpt lat="42.5362" lon="23.99537">
        <ele>474.812957</ele>
        <time>2022-03-08T08:57:26.723Z</time>
      </trkpt>
      <trkpt lat="42.53631" lon="23.99533">
        <ele>475.387459</ele>
        <time>2022-03-08T08:57:29.709Z</time>
      </trkpt>
      <trkpt lat="42.53642" lon="23.99529">
        <ele>475.971223</ele>
        <time>2022-03-08T08:57:32.718Z</time>
      </trkpt>
      <trkpt lat="42.53652" lon="23.99526">
        <ele>476.54829</ele>
        <time>2022-03-08T08:57:35.719Z</time>
      </trkpt>
      <trkpt lat="42.53664" lon="23.99521">
        <ele>477.162677</ele>
        <time>2022-03-08T08:57:38.695Z</time>
      </trkpt>
      <trkpt lat="42.53674" lon="23.99517">
        <ele>477.68764</ele>
        <time>2022-03-08T08:57:41.727Z</time>
      </trkpt>
      <trkpt lat="42.53686" lon="23.99512">
        <ele>478.374196</ele>
        <time>2022-03-08T08:57:44.712Z</time>
      </trkpt>
      <trkpt lat="42.53699" lon="23.99508">
        <ele>479.032777</ele>
        <time>2022-03-08T08:57:47.753Z</time>
      </trkpt>
      <trkpt lat="42.5371" lon="23.99505">
        <ele>479.606521</ele>
        <time>2022-03-08T08:57:50.712Z</time>
      </trkpt>
      <trkpt lat="42.5372" lon="23.99501">
        <ele>480.164045</ele>
        <time>2022-03-08T08:57:53.753Z</time>
      </trkpt>
      <trkpt lat="42.53729" lon="23.99497">
        <ele>480.664815</ele>
        <time>2022-03-08T08:57:56.715Z</time>
      </trkpt>
      <trkpt lat="42.5374" lon="23.99492">
        <ele>481.26795</ele>
        <time>2022-03-08T08:58:00.719Z</time>
      </trkpt>
      <trkpt lat="42.53749" lon="23.99487">
        <ele>481.757638</ele>
        <time>2022-03-08T08:58:03.724Z</time>
      </trkpt>
      <trkpt lat="42.53758" lon="23.9948">
        <ele>482.265552</ele>
        <time>2022-03-08T08:58:06.718Z</time>
      </trkpt>
      <trkpt lat="42.53766" lon="23.99471">
        <ele>482.855366</ele>
        <time>2022-03-08T08:58:09.712Z</time>
      </trkpt>
      <trkpt lat="42.53773" lon="23.99461">
        <ele>483.377767</ele>
        <time>2022-03-08T08:58:12.717Z</time>
      </trkpt>
      <trkpt lat="42.5378" lon="23.99451">
        <ele>483.861283</ele>
        <time>2022-03-08T08:58:15.738Z</time>
      </trkpt>
      <trkpt lat="42.53787" lon="23.99438">
        <ele>484.385975</ele>
        <time>2022-03-08T08:58:18.708Z</time>
      </trkpt>
      <trkpt lat="42.53793" lon="23.99425">
        <ele>484.854511</ele>
        <time>2022-03-08T08:58:21.738Z</time>
      </trkpt>
      <trkpt lat="42.538" lon="23.99414">
        <ele>485.302601</ele>
        <time>2022-03-08T08:58:24.711Z</time>
      </trkpt>
      <trkpt lat="42.53805" lon="23.99403">
        <ele>485.748638</ele>
        <time>2022-03-08T08:58:27.753Z</time>
      </trkpt>
      <trkpt lat="42.5381" lon="23.99392">
        <ele>486.149449</ele>
        <time>2022-03-08T08:58:30.724Z</time>
      </trkpt>
      <trkpt lat="42.53816" lon="23.99381">
        <ele>486.55917</ele>
        <time>2022-03-08T08:58:33.714Z</time>
      </trkpt>
      <trkpt lat="42.53822" lon="23.99366">
        <ele>487.105091</ele>
        <time>2022-03-08T08:58:36.709Z</time>
      </trkpt>
      <trkpt lat="42.53826" lon="23.99353">
        <ele>487.574198</ele>
        <time>2022-03-08T08:58:39.715Z</time>
      </trkpt>
      <trkpt lat="42.53829" lon="23.99341">
        <ele>487.971176</ele>
        <time>2022-03-08T08:58:42.721Z</time>
      </trkpt>
      <trkpt lat="42.53834" lon="23.99327">
        <ele>488.456116</ele>
        <time>2022-03-08T08:58:45.714Z</time>
      </trkpt>
      <trkpt lat="42.53839" lon="23.99314">
        <ele>488.937395</ele>
        <time>2022-03-08T08:58:48.732Z</time>
      </trkpt>
      <trkpt lat="42.53845" lon="23.99302">
        <ele>489.385286</ele>
        <time>2022-03-08T08:58:51.709Z</time>
      </trkpt>
      <trkpt lat="42.5385" lon="23.99291">
        <ele>489.802362</ele>
        <time>2022-03-08T08:58:54.704Z</time>
      </trkpt>
      <trkpt lat="42.53856" lon="23.9928">
        <ele>490.2426</ele>
        <time>2022-03-08T08:58:57.754Z</time>
      </trkpt>
      <trkpt lat="42.53862" lon="23.99271">
        <ele>490.631927</ele>
        <time>2022-03-08T08:59:00.713Z</time>
      </trkpt>
      <trkpt lat="42.53869" lon="23.99261">
        <ele>491.040986</ele>
        <time>2022-03-08T08:59:03.706Z</time>
      </trkpt>
      <trkpt lat="42.53875" lon="23.9925">
        <ele>491.48964</ele>
        <time>2022-03-08T08:59:06.713Z</time>
      </trkpt>
      <trkpt lat="42.53882" lon="23.99239">
        <ele>491.470902</ele>
        <time>2022-03-08T08:59:09.706Z</time>
      </trkpt>
      <trkpt lat="42.53889" lon="23.99227">
        <ele>491.404466</ele>
        <time>2022-03-08T08:59:12.762Z</time>
      </trkpt>
      <trkpt lat="42.53898" lon="23.99219">
        <ele>491.340194</ele>
        <time>2022-03-08T08:59:15.712Z</time>
      </trkpt>
      <trkpt lat="42.53905" lon="23.99208">
        <ele>491.276488</ele>
        <time>2022-03-08T08:59:18.719Z</time>
      </trkpt>
      <trkpt lat="42.53911" lon="23.99198">
        <ele>491.219226</ele>
        <time>2022-03-08T08:59:21.711Z</time>
      </trkpt>
      <trkpt lat="42.53918" lon="23.99186">
        <ele>491.153535</ele>
        <time>2022-03-08T08:59:24.711Z</time>
      </trkpt>
      <trkpt lat="42.53924" lon="23.99174">
        <ele>491.08851</ele>
        <time>2022-03-08T08:59:27.720Z</time>
      </trkpt>
      <trkpt lat="42.5393" lon="23.99163">
        <ele>491.024237</ele>
        <time>2022-03-08T08:59:30.737Z</time>
      </trkpt>
      <trkpt lat="42.53937" lon="23.99152">
        <ele>490.958402</ele>
        <time>2022-03-08T08:59:33.711Z</time>
      </trkpt>
      <trkpt lat="42.53945" lon="23.99142">
        <ele>490.894281</ele>
        <time>2022-03-08T08:59:36.723Z</time>
      </trkpt>
      <trkpt lat="42.53952" lon="23.99131">
        <ele>490.829714</ele>
        <time>2022-03-08T08:59:39.723Z</time>
      </trkpt>
      <trkpt lat="42.53959" lon="23.9912">
        <ele>490.76755</ele>
        <time>2022-03-08T08:59:42.714Z</time>
      </trkpt>
      <trkpt lat="42.53967" lon="23.99108">
        <ele>490.696924</ele>
        <time>2022-03-08T08:59:45.759Z</time>
      </trkpt>
      <trkpt lat="42.53974" lon="23.99097">
        <ele>490.629794</ele>
        <time>2022-03-08T08:59:48.709Z</time>
      </trkpt>
      <trkpt lat="42.53983" lon="23.99083">
        <ele>490.55095</ele>
        <time>2022-03-08T08:59:51.756Z</time>
      </trkpt>
      <trkpt lat="42.5399" lon="23.99071">
        <ele>490.480555</ele>
        <time>2022-03-08T08:59:54.736Z</time>
      </trkpt>
      <trkpt lat="42.53998" lon="23.99062">
        <ele>490.241509</ele>
        <time>2022-03-08T08:59:57.696Z</time>
      </trkpt>
      <trkpt lat="42.54006" lon="23.99049">
        <ele>489.712291</ele>
        <time>2022-03-08T09:00:00.715Z</time>
      </trkpt>
      <trkpt lat="42.54014" lon="23.99038">
        <ele>489.198752</ele>
        <time>2022-03-08T09:00:03.704Z</time>
      </trkpt>
      <trkpt lat="42.54022" lon="23.99025">
        <ele>488.664145</ele>
        <time>2022-03-08T09:00:06.703Z</time>
      </trkpt>
      <trkpt lat="42.54031" lon="23.99011">
        <ele>488.114792</ele>
        <time>2022-03-08T09:00:09.707Z</time>
      </trkpt>
      <trkpt lat="42.5404" lon="23.98999">
        <ele>487.578925</ele>
        <time>2022-03-08T09:00:12.692Z</time>
      </trkpt>
      <trkpt lat="42.54047" lon="23.98989">
        <ele>487.114083</ele>
        <time>2022-03-08T09:00:15.724Z</time>
      </trkpt>
      <trkpt lat="42.54055" lon="23.98978">
        <ele>486.626557</ele>
        <time>2022-03-08T09:00:18.751Z</time>
      </trkpt>
      <trkpt lat="42.54064" lon="23.98969">
        <ele>486.14989</ele>
        <time>2022-03-08T09:00:21.711Z</time>
      </trkpt>
      <trkpt lat="42.54073" lon="23.9896">
        <ele>485.671676</ele>
        <time>2022-03-08T09:00:25.722Z</time>
      </trkpt>
      <trkpt lat="42.54082" lon="23.98952">
        <ele>485.207874</ele>
        <time>2022-03-08T09:00:29.724Z</time>
      </trkpt>
      <trkpt lat="42.54093" lon="23.98944">
        <ele>484.706362</ele>
        <time>2022-03-08T09:00:32.702Z</time>
      </trkpt>
      <trkpt lat="42.54102" lon="23.98938">
        <ele>484.253634</ele>
        <time>2022-03-08T09:00:35.735Z</time>
      </trkpt>
      <trkpt lat="42.54111" lon="23.98932">
        <ele>483.8457</ele>
        <time>2022-03-08T09:00:38.743Z</time>
      </trkpt>
      <trkpt lat="42.54122" lon="23.98926">
        <ele>483.323121</ele>
        <time>2022-03-08T09:00:41.699Z</time>
      </trkpt>
      <trkpt lat="42.54132" lon="23.9892">
        <ele>482.871007</ele>
        <time>2022-03-08T09:00:44.720Z</time>
      </trkpt>
      <trkpt lat="42.5414" lon="23.98915">
        <ele>482.408526</ele>
        <time>2022-03-08T09:00:47.731Z</time>
      </trkpt>
      <trkpt lat="42.5415" lon="23.98907">
        <ele>481.77501</ele>
        <time>2022-03-08T09:00:50.713Z</time>
      </trkpt>
      <trkpt lat="42.54162" lon="23.98899">
        <ele>481.038859</ele>
        <time>2022-03-08T09:00:53.706Z</time>
      </trkpt>
      <trkpt lat="42.54171" lon="23.98894">
        <ele>480.493878</ele>
        <time>2022-03-08T09:00:55.714Z</time>
      </trkpt>
      <trkpt lat="42.5418" lon="23.9889">
        <ele>479.966763</ele>
        <time>2022-03-08T09:00:57.714Z</time>
      </trkpt>
      <trkpt lat="42.54191" lon="23.98884">
        <ele>479.299944</ele>
        <time>2022-03-08T09:01:00.704Z</time>
      </trkpt>
      <trkpt lat="42.542" lon="23.98879">
        <ele>478.762526</ele>
        <time>2022-03-08T09:01:03.711Z</time>
      </trkpt>
      <trkpt lat="42.54209" lon="23.98874">
        <ele>478.232408</ele>
        <time>2022-03-08T09:01:06.694Z</time>
      </trkpt>
      <trkpt lat="42.54221" lon="23.98869">
        <ele>477.539554</ele>
        <time>2022-03-08T09:01:10.717Z</time>
      </trkpt>
      <trkpt lat="42.54232" lon="23.98864">
        <ele>476.878314</ele>
        <time>2022-03-08T09:01:13.716Z</time>
      </trkpt>
      <trkpt lat="42.54244" lon="23.98859">
        <ele>476.207753</ele>
        <time>2022-03-08T09:01:16.723Z</time>
      </trkpt>
      <trkpt lat="42.54254" lon="23.98856">
        <ele>475.62004</ele>
        <time>2022-03-08T09:01:19.698Z</time>
      </trkpt>
      <trkpt lat="42.54264" lon="23.98855">
        <ele>475.077277</ele>
        <time>2022-03-08T09:01:22.707Z</time>
      </trkpt>
      <trkpt lat="42.54277" lon="23.9885">
        <ele>474.345376</ele>
        <time>2022-03-08T09:01:25.745Z</time>
      </trkpt>
      <trkpt lat="42.54287" lon="23.98846">
        <ele>473.787391</ele>
        <time>2022-03-08T09:01:27.719Z</time>
      </trkpt>
      <trkpt lat="42.54299" lon="23.98841">
        <ele>473.099134</ele>
        <time>2022-03-08T09:01:30.757Z</time>
      </trkpt>
      <trkpt lat="42.54308" lon="23.98837">
        <ele>473.269709</ele>
        <time>2022-03-08T09:01:33.716Z</time>
      </trkpt>
      <trkpt lat="42.54319" lon="23.98833">
        <ele>474.275749</ele>
        <time>2022-03-08T09:01:36.718Z</time>
      </trkpt>
      <trkpt lat="42.54331" lon="23.98829">
        <ele>475.376675</ele>
        <time>2022-03-08T09:01:39.720Z</time>
      </trkpt>
      <trkpt lat="42.5434" lon="23.98825">
        <ele>476.223113</ele>
        <time>2022-03-08T09:01:41.715Z</time>
      </trkpt>
      <trkpt lat="42.54351" lon="23.98821">
        <ele>477.188461</ele>
        <time>2022-03-08T09:01:44.712Z</time>
      </trkpt>
      <trkpt lat="42.54362" lon="23.98817">
        <ele>478.209496</ele>
        <time>2022-03-08T09:01:47.687Z</time>
      </trkpt>
      <trkpt lat="42.54371" lon="23.98814">
        <ele>479.009723</ele>
        <time>2022-03-08T09:01:49.715Z</time>
      </trkpt>
      <trkpt lat="42.54383" lon="23.9881">
        <ele>480.060057</ele>
        <time>2022-03-08T09:01:52.695Z</time>
      </trkpt>
      <trkpt lat="42.54395" lon="23.98807">
        <ele>481.212044</ele>
        <time>2022-03-08T09:01:55.718Z</time>
      </trkpt>
      <trkpt lat="42.54407" lon="23.98805">
        <ele>482.243898</ele>
        <time>2022-03-08T09:01:58.718Z</time>
      </trkpt>
      <trkpt lat="42.54419" lon="23.98806">
        <ele>483.260776</ele>
        <time>2022-03-08T09:02:02.708Z</time>
      </trkpt>
      <trkpt lat="42.54428" lon="23.98808">
        <ele>484.094632</ele>
        <time>2022-03-08T09:02:05.712Z</time>
      </trkpt>
      <trkpt lat="42.54439" lon="23.9881">
        <ele>485.072368</ele>
        <time>2022-03-08T09:02:08.720Z</time>
      </trkpt>
      <trkpt lat="42.5445" lon="23.98811">
        <ele>486.019866</ele>
        <time>2022-03-08T09:02:11.724Z</time>
      </trkpt>
      <trkpt lat="42.54461" lon="23.98813">
        <ele>487.067376</ele>
        <time>2022-03-08T09:02:14.720Z</time>
      </trkpt>
      <trkpt lat="42.54474" lon="23.98816">
        <ele>488.189155</ele>
        <time>2022-03-08T09:02:17.710Z</time>
      </trkpt>
      <trkpt lat="42.54487" lon="23.98817">
        <ele>488.369712</ele>
        <time>2022-03-08T09:02:20.728Z</time>
      </trkpt>
      <trkpt lat="42.54497" lon="23.9882">
        <ele>487.95548</ele>
        <time>2022-03-08T09:02:23.726Z</time>
      </trkpt>
      <trkpt lat="42.5451" lon="23.98824">
        <ele>487.428987</ele>
        <time>2022-03-08T09:02:26.713Z</time>
      </trkpt>
      <trkpt lat="42.54522" lon="23.98828">
        <ele>486.928124</ele>
        <time>2022-03-08T09:02:29.715Z</time>
      </trkpt>
      <trkpt lat="42.54534" lon="23.98832">
        <ele>486.4435</ele>
        <time>2022-03-08T09:02:32.714Z</time>
      </trkpt>
      <trkpt lat="42.54546" lon="23.98834">
        <ele>485.969088</ele>
        <time>2022-03-08T09:02:35.709Z</time>
      </trkpt>
      <trkpt lat="42.54556" lon="23.98835">
        <ele>485.588647</ele>
        <time>2022-03-08T09:02:38.717Z</time>
      </trkpt>
      <trkpt lat="42.54565" lon="23.98836">
        <ele>485.213476</ele>
        <time>2022-03-08T09:02:41.755Z</time>
      </trkpt>
      <trkpt lat="42.54576" lon="23.98839">
        <ele>484.78649</ele>
        <time>2022-03-08T09:02:44.711Z</time>
      </trkpt>
      <trkpt lat="42.54587" lon="23.98844">
        <ele>484.313722</ele>
        <time>2022-03-08T09:02:48.729Z</time>
      </trkpt>
      <trkpt lat="42.54597" lon="23.98846">
        <ele>483.938059</ele>
        <time>2022-03-08T09:02:51.717Z</time>
      </trkpt>
      <trkpt lat="42.54608" lon="23.98847">
        <ele>483.514681</ele>
        <time>2022-03-08T09:02:54.716Z</time>
      </trkpt>
      <trkpt lat="42.5462" lon="23.98851">
        <ele>483.003055</ele>
        <time>2022-03-08T09:02:57.708Z</time>
      </trkpt>
      <trkpt lat="42.54632" lon="23.98853">
        <ele>482.534476</ele>
        <time>2022-03-08T09:03:00.718Z</time>
      </trkpt>
      <trkpt lat="42.54642" lon="23.98855">
        <ele>482.12174</ele>
        <time>2022-03-08T09:03:03.719Z</time>
      </trkpt>
      <trkpt lat="42.54653" lon="23.98857">
        <ele>481.711841</ele>
        <time>2022-03-08T09:03:06.710Z</time>
      </trkpt>
      <trkpt lat="42.54662" lon="23.9886">
        <ele>481.225426</ele>
        <time>2022-03-08T09:03:09.725Z</time>
      </trkpt>
      <trkpt lat="42.54672" lon="23.98862">
        <ele>480.646946</ele>
        <time>2022-03-08T09:03:12.721Z</time>
      </trkpt>
      <trkpt lat="42.54682" lon="23.98865">
        <ele>480.066009</ele>
        <time>2022-03-08T09:03:15.710Z</time>
      </trkpt>
      <trkpt lat="42.54691" lon="23.98868">
        <ele>479.516541</ele>
        <time>2022-03-08T09:03:18.726Z</time>
      </trkpt>
      <trkpt lat="42.54701" lon="23.98869">
        <ele>478.931886</ele>
        <time>2022-03-08T09:03:21.719Z</time>
      </trkpt>
      <trkpt lat="42.54712" lon="23.98872">
        <ele>478.30178</ele>
        <time>2022-03-08T09:03:24.705Z</time>
      </trkpt>
      <trkpt lat="42.54723" lon="23.98874">
        <ele>477.645375</ele>
        <time>2022-03-08T09:03:27.751Z</time>
      </trkpt>
      <trkpt lat="42.54735" lon="23.98877">
        <ele>476.991151</ele>
        <time>2022-03-08T09:03:30.768Z</time>
      </trkpt>
      <trkpt lat="42.54746" lon="23.98878">
        <ele>476.340336</ele>
        <time>2022-03-08T09:03:33.712Z</time>
      </trkpt>
      <trkpt lat="42.54756" lon="23.9888">
        <ele>475.736925</ele>
        <time>2022-03-08T09:03:36.719Z</time>
      </trkpt>
      <trkpt lat="42.54766" lon="23.98882">
        <ele>475.189662</ele>
        <time>2022-03-08T09:03:39.715Z</time>
      </trkpt>
      <trkpt lat="42.54776" lon="23.98885">
        <ele>474.580578</ele>
        <time>2022-03-08T09:03:42.704Z</time>
      </trkpt>
      <trkpt lat="42.54785" lon="23.98887">
        <ele>474.042397</ele>
        <time>2022-03-08T09:03:45.723Z</time>
      </trkpt>
      <trkpt lat="42.54795" lon="23.98889">
        <ele>473.491932</ele>
        <time>2022-03-08T09:03:48.723Z</time>
      </trkpt>
      <trkpt lat="42.54805" lon="23.98892">
        <ele>472.907022</ele>
        <time>2022-03-08T09:03:51.715Z</time>
      </trkpt>
      <trkpt lat="42.54817" lon="23.98895">
        <ele>472.216572</ele>
        <time>2022-03-08T09:03:54.721Z</time>
      </trkpt>
      <trkpt lat="42.54828" lon="23.98898">
        <ele>471.538204</ele>
        <time>2022-03-08T09:03:57.720Z</time>
      </trkpt>
      <trkpt lat="42.54839" lon="23.98901">
        <ele>471.318308</ele>
        <time>2022-03-08T09:04:00.726Z</time>
      </trkpt>
      <trkpt lat="42.54851" lon="23.98904">
        <ele>471.516997</ele>
        <time>2022-03-08T09:04:03.719Z</time>
      </trkpt>
      <trkpt lat="42.54862" lon="23.98908">
        <ele>471.700978</ele>
        <time>2022-03-08T09:04:06.751Z</time>
      </trkpt>
      <trkpt lat="42.54873" lon="23.98913">
        <ele>471.876478</ele>
        <time>2022-03-08T09:04:09.718Z</time>
      </trkpt>
      <trkpt lat="42.54883" lon="23.98917">
        <ele>472.051118</ele>
        <time>2022-03-08T09:04:12.715Z</time>
      </trkpt>
      <trkpt lat="42.54892" lon="23.98923">
        <ele>472.207639</ele>
        <time>2022-03-08T09:04:15.718Z</time>
      </trkpt>
      <trkpt lat="42.54902" lon="23.98931">
        <ele>472.397181</ele>
        <time>2022-03-08T09:04:18.720Z</time>
      </trkpt>
      <trkpt lat="42.54913" lon="23.98938">
        <ele>472.587115</ele>
        <time>2022-03-08T09:04:21.712Z</time>
      </trkpt>
      <trkpt lat="42.54923" lon="23.98944">
        <ele>472.760252</ele>
        <time>2022-03-08T09:04:24.729Z</time>
      </trkpt>
      <trkpt lat="42.54932" lon="23.98951">
        <ele>472.926145</ele>
        <time>2022-03-08T09:04:27.747Z</time>
      </trkpt>
      <trkpt lat="42.54942" lon="23.98956">
        <ele>473.091494</ele>
        <time>2022-03-08T09:04:30.716Z</time>
      </trkpt>
      <trkpt lat="42.54951" lon="23.98962">
        <ele>473.247812</ele>
        <time>2022-03-08T09:04:33.723Z</time>
      </trkpt>
      <trkpt lat="42.54961" lon="23.98968">
        <ele>473.423287</ele>
        <time>2022-03-08T09:04:36.728Z</time>
      </trkpt>
      <trkpt lat="42.5497" lon="23.98975">
        <ele>473.593058</ele>
        <time>2022-03-08T09:04:39.741Z</time>
      </trkpt>
      <trkpt lat="42.5498" lon="23.98982">
        <ele>473.770596</ele>
        <time>2022-03-08T09:04:42.720Z</time>
      </trkpt>
      <trkpt lat="42.54991" lon="23.98989">
        <ele>473.965374</ele>
        <time>2022-03-08T09:04:45.760Z</time>
      </trkpt>
      <trkpt lat="42.55002" lon="23.98996">
        <ele>474.269453</ele>
        <time>2022-03-08T09:04:48.725Z</time>
      </trkpt>
      <trkpt lat="42.55012" lon="23.99003">
        <ele>474.704279</ele>
        <time>2022-03-08T09:04:51.715Z</time>
      </trkpt>
      <trkpt lat="42.5502" lon="23.99009">
        <ele>475.07714</ele>
        <time>2022-03-08T09:04:54.724Z</time>
      </trkpt>
      <trkpt lat="42.55028" lon="23.99014">
        <ele>475.452149</ele>
        <time>2022-03-08T09:04:57.730Z</time>
      </trkpt>
      <trkpt lat="42.55038" lon="23.9902">
        <ele>475.860874</ele>
        <time>2022-03-08T09:05:00.720Z</time>
      </trkpt>
      <trkpt lat="42.55049" lon="23.99027">
        <ele>476.350694</ele>
        <time>2022-03-08T09:05:04.702Z</time>
      </trkpt>
      <trkpt lat="42.55059" lon="23.99035">
        <ele>476.813789</ele>
        <time>2022-03-08T09:05:08.709Z</time>
      </trkpt>
      <trkpt lat="42.55069" lon="23.9904">
        <ele>477.282014</ele>
        <time>2022-03-08T09:05:12.736Z</time>
      </trkpt>
      <trkpt lat="42.5508" lon="23.99046">
        <ele>477.737474</ele>
        <time>2022-03-08T09:05:16.716Z</time>
      </trkpt>
      <trkpt lat="42.55091" lon="23.99054">
        <ele>478.233545</ele>
        <time>2022-03-08T09:05:20.714Z</time>
      </trkpt>
      <trkpt lat="42.55099" lon="23.99059">
        <ele>478.613964</ele>
        <time>2022-03-08T09:05:23.745Z</time>
      </trkpt>
      <trkpt lat="42.55109" lon="23.99066">
        <ele>479.060055</ele>
        <time>2022-03-08T09:05:27.719Z</time>
      </trkpt>
      <trkpt lat="42.55119" lon="23.99074">
        <ele>479.533149</ele>
        <time>2022-03-08T09:05:31.719Z</time>
      </trkpt>
      <trkpt lat="42.55128" lon="23.99081">
        <ele>479.937699</ele>
        <time>2022-03-08T09:05:34.739Z</time>
      </trkpt>
      <trkpt lat="42.55137" lon="23.99087">
        <ele>480.36363</ele>
        <time>2022-03-08T09:05:37.722Z</time>
      </trkpt>
      <trkpt lat="42.55146" lon="23.99093">
        <ele>480.736681</ele>
        <time>2022-03-08T09:05:40.724Z</time>
      </trkpt>
      <trkpt lat="42.55154" lon="23.99102">
        <ele>481.169224</ele>
        <time>2022-03-08T09:05:44.723Z</time>
      </trkpt>
      <trkpt lat="42.55163" lon="23.99112">
        <ele>481.584694</ele>
        <time>2022-03-08T09:05:48.725Z</time>
      </trkpt>
      <trkpt lat="42.5517" lon="23.99121">
        <ele>481.917935</ele>
        <time>2022-03-08T09:05:52.727Z</time>
      </trkpt>
      <trkpt lat="42.55178" lon="23.99133">
        <ele>482.291395</ele>
        <time>2022-03-08T09:05:56.699Z</time>
      </trkpt>
      <trkpt lat="42.55184" lon="23.99143">
        <ele>482.593939</ele>
        <time>2022-03-08T09:05:59.714Z</time>
      </trkpt>
      <trkpt lat="42.5519" lon="23.99153">
        <ele>482.901939</ele>
        <time>2022-03-08T09:06:02.776Z</time>
      </trkpt>
      <trkpt lat="42.55195" lon="23.99163">
        <ele>483.197955</ele>
        <time>2022-03-08T09:06:05.728Z</time>
      </trkpt>
      <trkpt lat="42.55199" lon="23.99176">
        <ele>483.527991</ele>
        <time>2022-03-08T09:06:09.734Z</time>
      </trkpt>
      <trkpt lat="42.55205" lon="23.99189">
        <ele>483.89614</ele>
        <time>2022-03-08T09:06:13.777Z</time>
      </trkpt>
      <trkpt lat="42.5521" lon="23.99199">
        <ele>484.190507</ele>
        <time>2022-03-08T09:06:16.706Z</time>
      </trkpt>
      <trkpt lat="42.55214" lon="23.9921">
        <ele>484.48183</ele>
        <time>2022-03-08T09:06:19.723Z</time>
      </trkpt>
      <trkpt lat="42.55216" lon="23.99222">
        <ele>484.778037</ele>
        <time>2022-03-08T09:06:22.721Z</time>
      </trkpt>
      <trkpt lat="42.55219" lon="23.99235">
        <ele>485.084968</ele>
        <time>2022-03-08T09:06:25.703Z</time>
      </trkpt>
      <trkpt lat="42.55223" lon="23.99249">
        <ele>485.451166</ele>
        <time>2022-03-08T09:06:29.755Z</time>
      </trkpt>
      <trkpt lat="42.55227" lon="23.99264">
        <ele>485.835761</ele>
        <time>2022-03-08T09:06:33.715Z</time>
      </trkpt>
      <trkpt lat="42.55229" lon="23.99276">
        <ele>486.133875</ele>
        <time>2022-03-08T09:06:36.714Z</time>
      </trkpt>
      <trkpt lat="42.55234" lon="23.99289">
        <ele>486.466042</ele>
        <time>2022-03-08T09:06:40.707Z</time>
      </trkpt>
      <trkpt lat="42.55239" lon="23.99302">
        <ele>486.8124</ele>
        <time>2022-03-08T09:06:44.712Z</time>
      </trkpt>
      <trkpt lat="42.55246" lon="23.99314">
        <ele>487.167847</ele>
        <time>2022-03-08T09:06:48.717Z</time>
      </trkpt>
      <trkpt lat="42.55252" lon="23.99326">
        <ele>486.851922</ele>
        <time>2022-03-08T09:06:52.727Z</time>
      </trkpt>
      <trkpt lat="42.55259" lon="23.99337">
        <ele>486.512422</ele>
        <time>2022-03-08T09:06:56.752Z</time>
      </trkpt>
      <trkpt lat="42.55269" lon="23.99344">
        <ele>486.163041</ele>
        <time>2022-03-08T09:07:00.715Z</time>
      </trkpt>
      <trkpt lat="42.55278" lon="23.99347">
        <ele>485.859835</ele>
        <time>2022-03-08T09:07:03.708Z</time>
      </trkpt>
      <trkpt lat="42.55288" lon="23.99348">
        <ele>485.548426</ele>
        <time>2022-03-08T09:07:06.714Z</time>
      </trkpt>
      <trkpt lat="42.55297" lon="23.99347">
        <ele>485.263977</ele>
        <time>2022-03-08T09:07:09.724Z</time>
      </trkpt>
      <trkpt lat="42.55305" lon="23.99342">
        <ele>484.978849</ele>
        <time>2022-03-08T09:07:12.733Z</time>
      </trkpt>
      <trkpt lat="42.55315" lon="23.99333">
        <ele>484.609924</ele>
        <time>2022-03-08T09:07:16.742Z</time>
      </trkpt>
      <trkpt lat="42.55324" lon="23.99323">
        <ele>484.238252</ele>
        <time>2022-03-08T09:07:20.710Z</time>
      </trkpt>
      <trkpt lat="42.55334" lon="23.99315">
        <ele>483.871917</ele>
        <time>2022-03-08T09:07:24.720Z</time>
      </trkpt>
      <trkpt lat="42.55343" lon="23.99307">
        <ele>483.541524</ele>
        <time>2022-03-08T09:07:27.709Z</time>
      </trkpt>
      <trkpt lat="42.55352" lon="23.993">
        <ele>483.209623</ele>
        <time>2022-03-08T09:07:30.732Z</time>
      </trkpt>
      <trkpt lat="42.55361" lon="23.99292">
        <ele>482.862767</ele>
        <time>2022-03-08T09:07:33.751Z</time>
      </trkpt>
      <trkpt lat="42.55371" lon="23.99283">
        <ele>482.491196</ele>
        <time>2022-03-08T09:07:37.736Z</time>
      </trkpt>
      <trkpt lat="42.5538" lon="23.99275">
        <ele>482.152025</ele>
        <time>2022-03-08T09:07:41.725Z</time>
      </trkpt>
      <trkpt lat="42.5539" lon="23.99267">
        <ele>481.80507</ele>
        <time>2022-03-08T09:07:45.749Z</time>
      </trkpt>
      <trkpt lat="42.55399" lon="23.99258">
        <ele>481.552969</ele>
        <time>2022-03-08T09:07:49.724Z</time>
      </trkpt>
      <trkpt lat="42.55409" lon="23.99249">
        <ele>481.640116</ele>
        <time>2022-03-08T09:07:53.718Z</time>
      </trkpt>
      <trkpt lat="42.55419" lon="23.9924">
        <ele>481.732152</ele>
        <time>2022-03-08T09:07:57.734Z</time>
      </trkpt>
      <trkpt lat="42.55428" lon="23.99232">
        <ele>481.807746</ele>
        <time>2022-03-08T09:08:00.719Z</time>
      </trkpt>
      <trkpt lat="42.55436" lon="23.99226">
        <ele>481.877176</ele>
        <time>2022-03-08T09:08:03.704Z</time>
      </trkpt>
      <trkpt lat="42.55443" lon="23.99219">
        <ele>481.945069</ele>
        <time>2022-03-08T09:08:06.729Z</time>
      </trkpt>
      <trkpt lat="42.55452" lon="23.99212">
        <ele>482.018833</ele>
        <time>2022-03-08T09:08:09.724Z</time>
      </trkpt>
      <trkpt lat="42.55461" lon="23.99204">
        <ele>482.096601</ele>
        <time>2022-03-08T09:08:12.711Z</time>
      </trkpt>
      <trkpt lat="42.5547" lon="23.99197">
        <ele>482.174725</ele>
        <time>2022-03-08T09:08:15.710Z</time>
      </trkpt>
      <trkpt lat="42.55478" lon="23.99189">
        <ele>482.250252</ele>
        <time>2022-03-08T09:08:18.725Z</time>
      </trkpt>
      <trkpt lat="42.55486" lon="23.99182">
        <ele>482.31936</ele>
        <time>2022-03-08T09:08:21.719Z</time>
      </trkpt>
      <trkpt lat="42.55495" lon="23.99175">
        <ele>482.392839</ele>
        <time>2022-03-08T09:08:24.719Z</time>
      </trkpt>
      <trkpt lat="42.55503" lon="23.99167">
        <ele>482.466239</ele>
        <time>2022-03-08T09:08:27.714Z</time>
      </trkpt>
      <trkpt lat="42.55513" lon="23.99159">
        <ele>482.553783</ele>
        <time>2022-03-08T09:08:31.708Z</time>
      </trkpt>
      <trkpt lat="42.55521" lon="23.99153">
        <ele>482.622692</ele>
        <time>2022-03-08T09:08:34.708Z</time>
      </trkpt>
      <trkpt lat="42.55529" lon="23.99145">
        <ele>482.697302</ele>
        <time>2022-03-08T09:08:37.720Z</time>
      </trkpt>
      <trkpt lat="42.55539" lon="23.99137">
        <ele>482.78018</ele>
        <time>2022-03-08T09:08:41.700Z</time>
      </trkpt>
      <trkpt lat="42.55548" lon="23.99129">
        <ele>482.858863</ele>
        <time>2022-03-08T09:08:45.711Z</time>
      </trkpt>
      <trkpt lat="42.55557" lon="23.99123">
        <ele>483.014256</ele>
        <time>2022-03-08T09:08:49.722Z</time>
      </trkpt>
      <trkpt lat="42.55568" lon="23.9912">
        <ele>483.183296</ele>
        <time>2022-03-08T09:08:52.722Z</time>
      </trkpt>
      <trkpt lat="42.55579" lon="23.99115">
        <ele>483.359701</ele>
        <time>2022-03-08T09:08:55.731Z</time>
      </trkpt>
      <trkpt lat="42.55589" lon="23.99114">
        <ele>483.51028</ele>
        <time>2022-03-08T09:08:58.723Z</time>
      </trkpt>
      <trkpt lat="42.55601" lon="23.99115">
        <ele>483.6944</ele>
        <time>2022-03-08T09:09:02.752Z</time>
      </trkpt>
      <trkpt lat="42.55611" lon="23.99116">
        <ele>483.840301</ele>
        <time>2022-03-08T09:09:05.720Z</time>
      </trkpt>
      <trkpt lat="42.55621" lon="23.99118">
        <ele>483.993867</ele>
        <time>2022-03-08T09:09:08.709Z</time>
      </trkpt>
      <trkpt lat="42.55632" lon="23.99119">
        <ele>484.157359</ele>
        <time>2022-03-08T09:09:11.706Z</time>
      </trkpt>
      <trkpt lat="42.55641" lon="23.99122">
        <ele>484.297485</ele>
        <time>2022-03-08T09:09:14.728Z</time>
      </trkpt>
      <trkpt lat="42.55649" lon="23.99124">
        <ele>484.434212</ele>
        <time>2022-03-08T09:09:17.711Z</time>
      </trkpt>
      <trkpt lat="42.5566" lon="23.99125">
        <ele>484.589206</ele>
        <time>2022-03-08T09:09:21.710Z</time>
      </trkpt>
      <trkpt lat="42.55671" lon="23.99124">
        <ele>484.759358</ele>
        <time>2022-03-08T09:09:25.748Z</time>
      </trkpt>
      <trkpt lat="42.5568" lon="23.99124">
        <ele>484.902123</ele>
        <time>2022-03-08T09:09:28.723Z</time>
      </trkpt>
      <trkpt lat="42.5569" lon="23.99125">
        <ele>485.051669</ele>
        <time>2022-03-08T09:09:31.714Z</time>
      </trkpt>
      <trkpt lat="42.557" lon="23.99126">
        <ele>485.196055</ele>
        <time>2022-03-08T09:09:34.718Z</time>
      </trkpt>
      <trkpt lat="42.55709" lon="23.99127">
        <ele>485.341074</ele>
        <time>2022-03-08T09:09:37.721Z</time>
      </trkpt>
      <trkpt lat="42.55719" lon="23.99129">
        <ele>485.49464</ele>
        <time>2022-03-08T09:09:40.755Z</time>
      </trkpt>
      <trkpt lat="42.55729" lon="23.9913">
        <ele>485.544134</ele>
        <time>2022-03-08T09:09:43.716Z</time>
      </trkpt>
      <trkpt lat="42.5574" lon="23.99132">
        <ele>485.395865</ele>
        <time>2022-03-08T09:09:46.746Z</time>
      </trkpt>
      <trkpt lat="42.55749" lon="23.99133">
        <ele>485.267544</ele>
        <time>2022-03-08T09:09:49.725Z</time>
      </trkpt>
      <trkpt lat="42.55758" lon="23.99134">
        <ele>485.138524</ele>
        <time>2022-03-08T09:09:52.724Z</time>
      </trkpt>
      <trkpt lat="42.55768" lon="23.99135">
        <ele>485.004835</ele>
        <time>2022-03-08T09:09:55.732Z</time>
      </trkpt>
      <trkpt lat="42.55777" lon="23.99136">
        <ele>484.878069</ele>
        <time>2022-03-08T09:09:58.723Z</time>
      </trkpt>
      <trkpt lat="42.55787" lon="23.99137">
        <ele>484.745556</ele>
        <time>2022-03-08T09:10:01.706Z</time>
      </trkpt>
      <trkpt lat="42.55797" lon="23.99137">
        <ele>484.606416</ele>
        <time>2022-03-08T09:10:04.754Z</time>
      </trkpt>
      <trkpt lat="42.55807" lon="23.99137">
        <ele>484.470147</ele>
        <time>2022-03-08T09:10:07.733Z</time>
      </trkpt>
      <trkpt lat="42.55817" lon="23.99138">
        <ele>484.32975</ele>
        <time>2022-03-08T09:10:10.719Z</time>
      </trkpt>
      <trkpt lat="42.55829" lon="23.99135">
        <ele>484.171275</ele>
        <time>2022-03-08T09:10:14.761Z</time>
      </trkpt>
      <trkpt lat="42.55839" lon="23.99129">
        <ele>484.00785</ele>
        <time>2022-03-08T09:10:18.724Z</time>
      </trkpt>
      <trkpt lat="42.55849" lon="23.99122">
        <ele>483.861435</ele>
        <time>2022-03-08T09:10:21.725Z</time>
      </trkpt>
      <trkpt lat="42.55859" lon="23.99114">
        <ele>483.703087</ele>
        <time>2022-03-08T09:10:24.716Z</time>
      </trkpt>
      <trkpt lat="42.55868" lon="23.99105">
        <ele>483.540249</ele>
        <time>2022-03-08T09:10:27.726Z</time>
      </trkpt>
      <trkpt lat="42.55877" lon="23.99098">
        <ele>483.399487</ele>
        <time>2022-03-08T09:10:30.720Z</time>
      </trkpt>
      <trkpt lat="42.55885" lon="23.9909">
        <ele>483.271883</ele>
        <time>2022-03-08T09:10:33.725Z</time>
      </trkpt>
      <trkpt lat="42.55894" lon="23.99083">
        <ele>483.128622</ele>
        <time>2022-03-08T09:10:36.768Z</time>
      </trkpt>
      <trkpt lat="42.55903" lon="23.99078">
        <ele>482.915002</ele>
        <time>2022-03-08T09:10:39.721Z</time>
      </trkpt>
      <trkpt lat="42.55914" lon="23.99073">
        <ele>482.63999</ele>
        <time>2022-03-08T09:10:42.729Z</time>
      </trkpt>
      <trkpt lat="42.55927" lon="23.99068">
        <ele>482.35174</ele>
        <time>2022-03-08T09:10:45.718Z</time>
      </trkpt>
      <trkpt lat="42.55939" lon="23.99062">
        <ele>482.064576</ele>
        <time>2022-03-08T09:10:48.708Z</time>
      </trkpt>
      <trkpt lat="42.55949" lon="23.99059">
        <ele>481.829576</ele>
        <time>2022-03-08T09:10:51.736Z</time>
      </trkpt>
      <trkpt lat="42.55958" lon="23.99056">
        <ele>481.62255</ele>
        <time>2022-03-08T09:10:54.721Z</time>
      </trkpt>
      <trkpt lat="42.55969" lon="23.99055">
        <ele>481.374846</ele>
        <time>2022-03-08T09:10:57.721Z</time>
      </trkpt>
      <trkpt lat="42.55979" lon="23.99056">
        <ele>481.160778</ele>
        <time>2022-03-08T09:11:00.727Z</time>
      </trkpt>
      <trkpt lat="42.55991" lon="23.99053">
        <ele>480.897401</ele>
        <time>2022-03-08T09:11:04.703Z</time>
      </trkpt>
      <trkpt lat="42.56" lon="23.99052">
        <ele>480.683516</ele>
        <time>2022-03-08T09:11:08.763Z</time>
      </trkpt>
      <trkpt lat="42.56012" lon="23.9905">
        <ele>480.427205</ele>
        <time>2022-03-08T09:11:12.705Z</time>
      </trkpt>
      <trkpt lat="42.56022" lon="23.99048">
        <ele>480.18322</ele>
        <time>2022-03-08T09:11:15.718Z</time>
      </trkpt>
      <trkpt lat="42.56033" lon="23.99047">
        <ele>479.941144</ele>
        <time>2022-03-08T09:11:18.736Z</time>
      </trkpt>
      <trkpt lat="42.56044" lon="23.99046">
        <ele>479.69952</ele>
        <time>2022-03-08T09:11:21.717Z</time>
      </trkpt>
      <trkpt lat="42.56056" lon="23.99043">
        <ele>479.439286</ele>
        <time>2022-03-08T09:11:24.711Z</time>
      </trkpt>
      <trkpt lat="42.56067" lon="23.99039">
        <ele>479.179027</ele>
        <time>2022-03-08T09:11:27.736Z</time>
      </trkpt>
      <trkpt lat="42.56079" lon="23.99036">
        <ele>479.01131</ele>
        <time>2022-03-08T09:11:30.719Z</time>
      </trkpt>
      <trkpt lat="42.5609" lon="23.99032">
        <ele>478.889347</ele>
        <time>2022-03-08T09:11:33.713Z</time>
      </trkpt>
      <trkpt lat="42.56102" lon="23.9903">
        <ele>478.755122</ele>
        <time>2022-03-08T09:11:36.726Z</time>
      </trkpt>
      <trkpt lat="42.56113" lon="23.99029">
        <ele>478.631551</ele>
        <time>2022-03-08T09:11:39.750Z</time>
      </trkpt>
      <trkpt lat="42.56125" lon="23.99027">
        <ele>478.50445</ele>
        <time>2022-03-08T09:11:42.711Z</time>
      </trkpt>
      <trkpt lat="42.56137" lon="23.99026">
        <ele>478.378947</ele>
        <time>2022-03-08T09:11:45.731Z</time>
      </trkpt>
      <trkpt lat="42.56148" lon="23.99024">
        <ele>478.26121</ele>
        <time>2022-03-08T09:11:48.756Z</time>
      </trkpt>
      <trkpt lat="42.56159" lon="23.99022">
        <ele>478.141331</ele>
        <time>2022-03-08T09:11:51.711Z</time>
      </trkpt>
      <trkpt lat="42.5617" lon="23.9902">
        <ele>478.01233</ele>
        <time>2022-03-08T09:11:54.724Z</time>
      </trkpt>
      <trkpt lat="42.56182" lon="23.99017">
        <ele>477.884745</ele>
        <time>2022-03-08T09:11:57.727Z</time>
      </trkpt>
      <trkpt lat="42.56194" lon="23.99016">
        <ele>477.758879</ele>
        <time>2022-03-08T09:12:00.723Z</time>
      </trkpt>
      <trkpt lat="42.56205" lon="23.99014">
        <ele>477.640455</ele>
        <time>2022-03-08T09:12:03.727Z</time>
      </trkpt>
      <trkpt lat="42.56215" lon="23.99012">
        <ele>477.522372</ele>
        <time>2022-03-08T09:12:06.725Z</time>
      </trkpt>
      <trkpt lat="42.56225" lon="23.99009">
        <ele>477.41254</ele>
        <time>2022-03-08T09:12:09.721Z</time>
      </trkpt>
      <trkpt lat="42.56235" lon="23.99007">
        <ele>477.302048</ele>
        <time>2022-03-08T09:12:12.732Z</time>
      </trkpt>
      <trkpt lat="42.56248" lon="23.99004">
        <ele>477.164628</ele>
        <time>2022-03-08T09:12:15.723Z</time>
      </trkpt>
      <trkpt lat="42.56257" lon="23.99001">
        <ele>477.049171</ele>
        <time>2022-03-08T09:12:17.726Z</time>
      </trkpt>
      <trkpt lat="42.56268" lon="23.98995">
        <ele>476.893912</ele>
        <time>2022-03-08T09:12:20.732Z</time>
      </trkpt>
      <trkpt lat="42.5628" lon="23.9899">
        <ele>476.730954</ele>
        <time>2022-03-08T09:12:23.730Z</time>
      </trkpt>
      <trkpt lat="42.56292" lon="23.98987">
        <ele>476.578362</ele>
        <time>2022-03-08T09:12:26.731Z</time>
      </trkpt>
      <trkpt lat="42.56304" lon="23.98983">
        <ele>476.419716</ele>
        <time>2022-03-08T09:12:29.703Z</time>
      </trkpt>
      <trkpt lat="42.56313" lon="23.98979">
        <ele>476.300155</ele>
        <time>2022-03-08T09:12:31.711Z</time>
      </trkpt>
      <trkpt lat="42.56326" lon="23.98974">
        <ele>476.13199</ele>
        <time>2022-03-08T09:12:34.714Z</time>
      </trkpt>
      <trkpt lat="42.56338" lon="23.98971">
        <ele>475.974034</ele>
        <time>2022-03-08T09:12:37.740Z</time>
      </trkpt>
      <trkpt lat="42.56349" lon="23.98968">
        <ele>475.831611</ele>
        <time>2022-03-08T09:12:40.733Z</time>
      </trkpt>
      <trkpt lat="42.5636" lon="23.98963">
        <ele>475.677227</ele>
        <time>2022-03-08T09:12:43.722Z</time>
      </trkpt>
      <trkpt lat="42.56369" lon="23.9896">
        <ele>475.558821</ele>
        <time>2022-03-08T09:12:46.721Z</time>
      </trkpt>
      <trkpt lat="42.56381" lon="23.98958">
        <ele>475.415761</ele>
        <time>2022-03-08T09:12:49.710Z</time>
      </trkpt>
      <trkpt lat="42.56392" lon="23.98957">
        <ele>475.270868</ele>
        <time>2022-03-08T09:12:52.726Z</time>
      </trkpt>
      <trkpt lat="42.56403" lon="23.98951">
        <ele>475.123432</ele>
        <time>2022-03-08T09:12:55.772Z</time>
      </trkpt>
      <trkpt lat="42.56414" lon="23.98946">
        <ele>474.973059</ele>
        <time>2022-03-08T09:12:58.728Z</time>
      </trkpt>
      <trkpt lat="42.56426" lon="23.98941">
        <ele>475.145845</ele>
        <time>2022-03-08T09:13:01.748Z</time>
      </trkpt>
      <trkpt lat="42.56437" lon="23.98936">
        <ele>475.873042</ele>
        <time>2022-03-08T09:13:04.712Z</time>
      </trkpt>
      <trkpt lat="42.56448" lon="23.98933">
        <ele>476.569302</ele>
        <time>2022-03-08T09:13:07.716Z</time>
      </trkpt>
      <trkpt lat="42.56459" lon="23.98931">
        <ele>477.258961</ele>
        <time>2022-03-08T09:13:10.726Z</time>
      </trkpt>
      <trkpt lat="42.56469" lon="23.9893">
        <ele>477.867767</ele>
        <time>2022-03-08T09:13:13.719Z</time>
      </trkpt>
      <trkpt lat="42.56479" lon="23.98929">
        <ele>478.482696</ele>
        <time>2022-03-08T09:13:16.739Z</time>
      </trkpt>
      <trkpt lat="42.56491" lon="23.98929">
        <ele>479.188446</ele>
        <time>2022-03-08T09:13:19.731Z</time>
      </trkpt>
      <trkpt lat="42.56503" lon="23.98928">
        <ele>479.962035</ele>
        <time>2022-03-08T09:13:22.720Z</time>
      </trkpt>
      <trkpt lat="42.56516" lon="23.98929">
        <ele>480.754021</ele>
        <time>2022-03-08T09:13:25.721Z</time>
      </trkpt>
      <trkpt lat="42.56529" lon="23.98932">
        <ele>481.555175</ele>
        <time>2022-03-08T09:13:28.716Z</time>
      </trkpt>
      <trkpt lat="42.56539" lon="23.98937">
        <ele>482.2148</ele>
        <time>2022-03-08T09:13:31.716Z</time>
      </trkpt>
      <trkpt lat="42.56549" lon="23.98945">
        <ele>482.906045</ele>
        <time>2022-03-08T09:13:34.763Z</time>
      </trkpt>
      <trkpt lat="42.56559" lon="23.98952">
        <ele>483.626486</ele>
        <time>2022-03-08T09:13:37.723Z</time>
      </trkpt>
      <trkpt lat="42.5657" lon="23.98959">
        <ele>484.337315</ele>
        <time>2022-03-08T09:13:40.716Z</time>
      </trkpt>
      <trkpt lat="42.5658" lon="23.98966">
        <ele>485.05111</ele>
        <time>2022-03-08T09:13:43.738Z</time>
      </trkpt>
      <trkpt lat="42.5659" lon="23.98973">
        <ele>485.733342</ele>
        <time>2022-03-08T09:13:46.724Z</time>
      </trkpt>
      <trkpt lat="42.56601" lon="23.9898">
        <ele>486.299535</ele>
        <time>2022-03-08T09:13:49.719Z</time>
      </trkpt>
      <trkpt lat="42.5661" lon="23.98988">
        <ele>486.782086</ele>
        <time>2022-03-08T09:13:52.751Z</time>
      </trkpt>
      <trkpt lat="42.5662" lon="23.98996">
        <ele>487.278467</ele>
        <time>2022-03-08T09:13:55.730Z</time>
      </trkpt>
      <trkpt lat="42.56629" lon="23.99005">
        <ele>487.772832</ele>
        <time>2022-03-08T09:13:58.702Z</time>
      </trkpt>
      <trkpt lat="42.56639" lon="23.99015">
        <ele>488.302088</ele>
        <time>2022-03-08T09:14:01.708Z</time>
      </trkpt>
      <trkpt lat="42.56649" lon="23.99024">
        <ele>488.816308</ele>
        <time>2022-03-08T09:14:04.712Z</time>
      </trkpt>
      <trkpt lat="42.56659" lon="23.99032">
        <ele>489.358252</ele>
        <time>2022-03-08T09:14:07.720Z</time>
      </trkpt>
      <trkpt lat="42.5667" lon="23.9904">
        <ele>489.895719</ele>
        <time>2022-03-08T09:14:10.722Z</time>
      </trkpt>
      <trkpt lat="42.56681" lon="23.99047">
        <ele>490.43347</ele>
        <time>2022-03-08T09:14:13.732Z</time>
      </trkpt>
      <trkpt lat="42.5669" lon="23.99055">
        <ele>490.897759</ele>
        <time>2022-03-08T09:14:16.722Z</time>
      </trkpt>
      <trkpt lat="42.56699" lon="23.99063">
        <ele>491.334431</ele>
        <time>2022-03-08T09:14:19.759Z</time>
      </trkpt>
      <trkpt lat="42.56706" lon="23.9907">
        <ele>491.747738</ele>
        <time>2022-03-08T09:14:22.724Z</time>
      </trkpt>
      <trkpt lat="42.56715" lon="23.99076">
        <ele>492.175789</ele>
        <time>2022-03-08T09:14:25.704Z</time>
      </trkpt>
      <trkpt lat="42.56723" lon="23.99083">
        <ele>492.576635</ele>
        <time>2022-03-08T09:14:28.716Z</time>
      </trkpt>
      <trkpt lat="42.56732" lon="23.99091">
        <ele>493.05296</ele>
        <time>2022-03-08T09:14:32.735Z</time>
      </trkpt>
      <trkpt lat="42.5674" lon="23.99097">
        <ele>493.460091</ele>
        <time>2022-03-08T09:14:36.753Z</time>
      </trkpt>
      <trkpt lat="42.56749" lon="23.99104">
        <ele>493.856001</ele>
        <time>2022-03-08T09:14:40.724Z</time>
      </trkpt>
      <trkpt lat="42.56758" lon="23.99113">
        <ele>494.162013</ele>
        <time>2022-03-08T09:14:44.717Z</time>
      </trkpt>
      <trkpt lat="42.56766" lon="23.9912">
        <ele>494.442108</ele>
        <time>2022-03-08T09:14:48.719Z</time>
      </trkpt>
      <trkpt lat="42.56775" lon="23.99125">
        <ele>494.709921</ele>
        <time>2022-03-08T09:14:52.733Z</time>
      </trkpt>
      <trkpt lat="42.56782" lon="23.99135">
        <ele>495.000279</ele>
        <time>2022-03-08T09:14:57.728Z</time>
      </trkpt>
      <trkpt lat="42.56791" lon="23.99143">
        <ele>495.305631</ele>
        <time>2022-03-08T09:15:01.721Z</time>
      </trkpt>
      <trkpt lat="42.56798" lon="23.99151">
        <ele>495.579194</ele>
        <time>2022-03-08T09:15:05.711Z</time>
      </trkpt>
      <trkpt lat="42.56806" lon="23.99157">
        <ele>495.8397</ele>
        <time>2022-03-08T09:15:09.754Z</time>
      </trkpt>
      <trkpt lat="42.56816" lon="23.99163">
        <ele>496.140341</ele>
        <time>2022-03-08T09:15:14.718Z</time>
      </trkpt>
      <trkpt lat="42.56825" lon="23.9917">
        <ele>496.445848</ele>
        <time>2022-03-08T09:15:19.732Z</time>
      </trkpt>
      <trkpt lat="42.56834" lon="23.99179">
        <ele>496.755078</ele>
        <time>2022-03-08T09:15:24.728Z</time>
      </trkpt>
      <trkpt lat="42.5684" lon="23.99189">
        <ele>497.023408</ele>
        <time>2022-03-08T09:15:28.721Z</time>
      </trkpt>
      <trkpt lat="42.56845" lon="23.99201">
        <ele>497.307631</ele>
        <time>2022-03-08T09:15:32.733Z</time>
      </trkpt>
      <trkpt lat="42.56849" lon="23.99212">
        <ele>497.564058</ele>
        <time>2022-03-08T09:15:35.707Z</time>
      </trkpt>
      <trkpt lat="42.56854" lon="23.99226">
        <ele>497.890703</ele>
        <time>2022-03-08T09:15:39.777Z</time>
      </trkpt>
      <trkpt lat="42.56858" lon="23.99241">
        <ele>498.219081</ele>
        <time>2022-03-08T09:15:43.728Z</time>
      </trkpt>
      <trkpt lat="42.56861" lon="23.99256">
        <ele>498.549378</ele>
        <time>2022-03-08T09:15:47.720Z</time>
      </trkpt>
      <trkpt lat="42.56862" lon="23.99271">
        <ele>498.859518</ele>
        <time>2022-03-08T09:15:51.718Z</time>
      </trkpt>
      <trkpt lat="42.56863" lon="23.99286">
        <ele>498.6739</ele>
        <time>2022-03-08T09:15:55.723Z</time>
      </trkpt>
      <trkpt lat="42.56865" lon="23.99301">
        <ele>498.465866</ele>
        <time>2022-03-08T09:15:59.739Z</time>
      </trkpt>
      <trkpt lat="42.56867" lon="23.99317">
        <ele>498.247849</ele>
        <time>2022-03-08T09:16:03.729Z</time>
      </trkpt>
      <trkpt lat="42.56869" lon="23.99332">
        <ele>498.042377</ele>
        <time>2022-03-08T09:16:07.718Z</time>
      </trkpt>
      <trkpt lat="42.56871" lon="23.99348">
        <ele>497.834285</ele>
        <time>2022-03-08T09:16:11.724Z</time>
      </trkpt>
      <trkpt lat="42.56873" lon="23.99362">
        <ele>497.638609</ele>
        <time>2022-03-08T09:16:15.729Z</time>
      </trkpt>
      <trkpt lat="42.56873" lon="23.99378">
        <ele>497.433646</ele>
        <time>2022-03-08T09:16:19.714Z</time>
      </trkpt>
      <trkpt lat="42.56872" lon="23.99393">
        <ele>497.225929</ele>
        <time>2022-03-08T09:16:23.726Z</time>
      </trkpt>
      <trkpt lat="42.56872" lon="23.99409">
        <ele>497.015668</ele>
        <time>2022-03-08T09:16:27.730Z</time>
      </trkpt>
      <trkpt lat="42.5687" lon="23.99424">
        <ele>496.809529</ele>
        <time>2022-03-08T09:16:31.720Z</time>
      </trkpt>
      <trkpt lat="42.56867" lon="23.99437">
        <ele>496.633427</ele>
        <time>2022-03-08T09:16:34.728Z</time>
      </trkpt>
      <trkpt lat="42.56863" lon="23.99451">
        <ele>496.42862</ele>
        <time>2022-03-08T09:16:38.721Z</time>
      </trkpt>
      <trkpt lat="42.5686" lon="23.99464">
        <ele>496.251298</ele>
        <time>2022-03-08T09:16:42.719Z</time>
      </trkpt>
      <trkpt lat="42.56856" lon="23.99476">
        <ele>496.068713</ele>
        <time>2022-03-08T09:16:46.729Z</time>
      </trkpt>
      <trkpt lat="42.5685" lon="23.99488">
        <ele>495.886097</ele>
        <time>2022-03-08T09:16:50.750Z</time>
      </trkpt>
      <trkpt lat="42.56845" lon="23.99499">
        <ele>495.712458</ele>
        <time>2022-03-08T09:16:54.719Z</time>
      </trkpt>
      <trkpt lat="42.56839" lon="23.99512">
        <ele>495.573856</ele>
        <time>2022-03-08T09:16:58.712Z</time>
      </trkpt>
      <trkpt lat="42.56833" lon="23.99525">
        <ele>495.494013</ele>
        <time>2022-03-08T09:17:02.727Z</time>
      </trkpt>
      <trkpt lat="42.5683" lon="23.99538">
        <ele>495.41712</ele>
        <time>2022-03-08T09:17:07.776Z</time>
      </trkpt>
      <trkpt lat="42.56826" lon="23.99551">
        <ele>495.339471</ele>
        <time>2022-03-08T09:17:12.711Z</time>
      </trkpt>
      <trkpt lat="42.56824" lon="23.99563">
        <ele>495.271484</ele>
        <time>2022-03-08T09:17:16.735Z</time>
      </trkpt>
      <trkpt lat="42.56824" lon="23.99577">
        <ele>495.194929</ele>
        <time>2022-03-08T09:17:21.723Z</time>
      </trkpt>
      <trkpt lat="42.56824" lon="23.9959">
        <ele>495.125963</ele>
        <time>2022-03-08T09:17:25.718Z</time>
      </trkpt>
      <trkpt lat="42.56825" lon="23.99603">
        <ele>495.05843</ele>
        <time>2022-03-08T09:17:29.747Z</time>
      </trkpt>
      <trkpt lat="42.56825" lon="23.99618">
        <ele>494.975303</ele>
        <time>2022-03-08T09:17:34.723Z</time>
      </trkpt>
      <trkpt lat="42.56828" lon="23.99632">
        <ele>494.896786</ele>
        <time>2022-03-08T09:17:39.715Z</time>
      </trkpt>
      <trkpt lat="42.56832" lon="23.99644">
        <ele>494.823085</ele>
        <time>2022-03-08T09:17:44.728Z</time>
      </trkpt>
      <trkpt lat="42.56837" lon="23.99655">
        <ele>494.752104</ele>
        <time>2022-03-08T09:17:48.707Z</time>
      </trkpt>
      <trkpt lat="42.56845" lon="23.99666">
        <ele>494.672096</ele>
        <time>2022-03-08T09:17:52.727Z</time>
      </trkpt>
      <trkpt lat="42.56853" lon="23.99673">
        <ele>494.602918</ele>
        <time>2022-03-08T09:17:56.712Z</time>
      </trkpt>
      <trkpt lat="42.56862" lon="23.99675">
        <ele>494.535965</ele>
        <time>2022-03-08T09:18:00.730Z</time>
      </trkpt>
      <trkpt lat="42.56873" lon="23.99676">
        <ele>494.456138</ele>
        <time>2022-03-08T09:18:05.728Z</time>
      </trkpt>
      <trkpt lat="42.56883" lon="23.99675">
        <ele>494.378557</ele>
        <time>2022-03-08T09:18:10.751Z</time>
      </trkpt>
      <trkpt lat="42.56892" lon="23.99671">
        <ele>494.307925</ele>
        <time>2022-03-08T09:18:15.703Z</time>
      </trkpt>
      <trkpt lat="42.56901" lon="23.99664">
        <ele>494.509535</ele>
        <time>2022-03-08T09:18:20.735Z</time>
      </trkpt>
      <trkpt lat="42.5691" lon="23.99656">
        <ele>494.767551</ele>
        <time>2022-03-08T09:18:25.735Z</time>
      </trkpt>
      <trkpt lat="42.56918" lon="23.99647">
        <ele>495.011044</ele>
        <time>2022-03-08T09:18:30.770Z</time>
      </trkpt>
      <trkpt lat="42.56925" lon="23.9964">
        <ele>495.233467</ele>
        <time>2022-03-08T09:18:35.711Z</time>
      </trkpt>
      <trkpt lat="42.56933" lon="23.99634">
        <ele>495.464229</ele>
        <time>2022-03-08T09:18:40.751Z</time>
      </trkpt>
      <trkpt lat="42.56941" lon="23.99626">
        <ele>495.700896</ele>
        <time>2022-03-08T09:18:45.729Z</time>
      </trkpt>
      <trkpt lat="42.5695" lon="23.99617">
        <ele>495.9743</ele>
        <time>2022-03-08T09:18:50.703Z</time>
      </trkpt>
      <trkpt lat="42.56958" lon="23.99608">
        <ele>496.241206</ele>
        <time>2022-03-08T09:18:55.720Z</time>
      </trkpt>
      <trkpt lat="42.56968" lon="23.99599">
        <ele>496.524704</ele>
        <time>2022-03-08T09:19:00.735Z</time>
      </trkpt>
      <trkpt lat="42.56975" lon="23.9959">
        <ele>496.759901</ele>
        <time>2022-03-08T09:19:04.714Z</time>
      </trkpt>
      <trkpt lat="42.56983" lon="23.99581">
        <ele>497.021395</ele>
        <time>2022-03-08T09:19:09.756Z</time>
      </trkpt>
      <trkpt lat="42.56991" lon="23.99573">
        <ele>497.27181</ele>
        <time>2022-03-08T09:19:13.699Z</time>
      </trkpt>
      <trkpt lat="42.56999" lon="23.99562">
        <ele>497.554217</ele>
        <time>2022-03-08T09:19:17.705Z</time>
      </trkpt>
      <trkpt lat="42.57006" lon="23.99552">
        <ele>497.802973</ele>
        <time>2022-03-08T09:19:20.718Z</time>
      </trkpt>
      <trkpt lat="42.57013" lon="23.99543">
        <ele>498.044907</ele>
        <time>2022-03-08T09:19:23.700Z</time>
      </trkpt>
      <trkpt lat="42.57021" lon="23.99534">
        <ele>498.288599</ele>
        <time>2022-03-08T09:19:26.705Z</time>
      </trkpt>
      <trkpt lat="42.57028" lon="23.99525">
        <ele>498.526847</ele>
        <time>2022-03-08T09:19:29.710Z</time>
      </trkpt>
      <trkpt lat="42.57036" lon="23.99516">
        <ele>498.687157</ele>
        <time>2022-03-08T09:19:32.742Z</time>
      </trkpt>
      <trkpt lat="42.57044" lon="23.99507">
        <ele>498.495519</ele>
        <time>2022-03-08T09:19:35.709Z</time>
      </trkpt>
      <trkpt lat="42.57053" lon="23.99499">
        <ele>498.29138</ele>
        <time>2022-03-08T09:19:38.720Z</time>
      </trkpt>
      <trkpt lat="42.57064" lon="23.99491">
        <ele>498.066191</ele>
        <time>2022-03-08T09:19:41.719Z</time>
      </trkpt>
      <trkpt lat="42.57075" lon="23.99485">
        <ele>497.843214</ele>
        <time>2022-03-08T09:19:44.709Z</time>
      </trkpt>
      <trkpt lat="42.57085" lon="23.99482">
        <ele>497.664301</ele>
        <time>2022-03-08T09:19:46.732Z</time>
      </trkpt>
      <trkpt lat="42.57094" lon="23.99479">
        <ele>497.494599</ele>
        <time>2022-03-08T09:19:48.720Z</time>
      </trkpt>
      <trkpt lat="42.57105" lon="23.99475">
        <ele>497.283275</ele>
        <time>2022-03-08T09:19:51.752Z</time>
      </trkpt>
      <trkpt lat="42.57118" lon="23.99473">
        <ele>497.042024</ele>
        <time>2022-03-08T09:19:54.727Z</time>
      </trkpt>
      <trkpt lat="42.57128" lon="23.99473">
        <ele>496.859132</ele>
        <time>2022-03-08T09:19:56.704Z</time>
      </trkpt>
      <trkpt lat="42.57139" lon="23.99473">
        <ele>496.672703</ele>
        <time>2022-03-08T09:19:58.735Z</time>
      </trkpt>
      <trkpt lat="42.57149" lon="23.99473">
        <ele>496.473372</ele>
        <time>2022-03-08T09:20:00.751Z</time>
      </trkpt>
      <trkpt lat="42.57161" lon="23.99475">
        <ele>496.266729</ele>
        <time>2022-03-08T09:20:02.710Z</time>
      </trkpt>
      <trkpt lat="42.57171" lon="23.99479">
        <ele>496.067968</ele>
        <time>2022-03-08T09:20:04.719Z</time>
      </trkpt>
      <trkpt lat="42.57182" lon="23.99482">
        <ele>495.871127</ele>
        <time>2022-03-08T09:20:06.715Z</time>
      </trkpt>
      <trkpt lat="42.57194" lon="23.99487">
        <ele>495.636541</ele>
        <time>2022-03-08T09:20:08.714Z</time>
      </trkpt>
      <trkpt lat="42.57207" lon="23.99492">
        <ele>495.393657</ele>
        <time>2022-03-08T09:20:10.722Z</time>
      </trkpt>
      <trkpt lat="42.5722" lon="23.99496">
        <ele>495.153404</ele>
        <time>2022-03-08T09:20:12.726Z</time>
      </trkpt>
      <trkpt lat="42.57233" lon="23.99502">
        <ele>494.90865</ele>
        <time>2022-03-08T09:20:14.719Z</time>
      </trkpt>
      <trkpt lat="42.57245" lon="23.99508">
        <ele>494.673134</ele>
        <time>2022-03-08T09:20:16.712Z</time>
      </trkpt>
      <trkpt lat="42.57256" lon="23.99517">
        <ele>494.445114</ele>
        <time>2022-03-08T09:20:18.756Z</time>
      </trkpt>
      <trkpt lat="42.57267" lon="23.99527">
        <ele>494.213805</ele>
        <time>2022-03-08T09:20:20.706Z</time>
      </trkpt>
      <trkpt lat="42.57277" lon="23.99536">
        <ele>493.997797</ele>
        <time>2022-03-08T09:20:22.720Z</time>
      </trkpt>
      <trkpt lat="42.57286" lon="23.99544">
        <ele>493.808369</ele>
        <time>2022-03-08T09:20:24.736Z</time>
      </trkpt>
      <trkpt lat="42.57295" lon="23.99551">
        <ele>493.627616</ele>
        <time>2022-03-08T09:20:26.705Z</time>
      </trkpt>
      <trkpt lat="42.57303" lon="23.99559">
        <ele>493.44627</ele>
        <time>2022-03-08T09:20:28.729Z</time>
      </trkpt>
      <trkpt lat="42.57311" lon="23.99567">
        <ele>493.270122</ele>
        <time>2022-03-08T09:20:30.740Z</time>
      </trkpt>
      <trkpt lat="42.57319" lon="23.99575">
        <ele>493.095411</ele>
        <time>2022-03-08T09:20:32.707Z</time>
      </trkpt>
      <trkpt lat="42.57327" lon="23.99582">
        <ele>492.931088</ele>
        <time>2022-03-08T09:20:34.735Z</time>
      </trkpt>
      <trkpt lat="42.57334" lon="23.99589">
        <ele>492.768287</ele>
        <time>2022-03-08T09:20:36.732Z</time>
      </trkpt>
      <trkpt lat="42.57342" lon="23.99596">
        <ele>492.597312</ele>
        <time>2022-03-08T09:20:38.758Z</time>
      </trkpt>
      <trkpt lat="42.5735" lon="23.99603">
        <ele>492.429235</ele>
        <time>2022-03-08T09:20:40.712Z</time>
      </trkpt>
      <trkpt lat="42.57358" lon="23.9961">
        <ele>492.268644</ele>
        <time>2022-03-08T09:20:42.734Z</time>
      </trkpt>
      <trkpt lat="42.57368" lon="23.99619">
        <ele>492.433699</ele>
        <time>2022-03-08T09:20:45.711Z</time>
      </trkpt>
      <trkpt lat="42.57379" lon="23.99628">
        <ele>492.685535</ele>
        <time>2022-03-08T09:20:48.721Z</time>
      </trkpt>
      <trkpt lat="42.57389" lon="23.99639">
        <ele>492.920666</ele>
        <time>2022-03-08T09:20:51.723Z</time>
      </trkpt>
      <trkpt lat="42.57398" lon="23.99651">
        <ele>493.160463</ele>
        <time>2022-03-08T09:20:54.730Z</time>
      </trkpt>
      <trkpt lat="42.57406" lon="23.99663">
        <ele>493.388896</ele>
        <time>2022-03-08T09:20:57.728Z</time>
      </trkpt>
      <trkpt lat="42.57413" lon="23.99674">
        <ele>493.588078</ele>
        <time>2022-03-08T09:21:00.710Z</time>
      </trkpt>
      <trkpt lat="42.5742" lon="23.99685">
        <ele>493.793793</ele>
        <time>2022-03-08T09:21:03.742Z</time>
      </trkpt>
      <trkpt lat="42.57426" lon="23.99697">
        <ele>493.992714</ele>
        <time>2022-03-08T09:21:06.761Z</time>
      </trkpt>
      <trkpt lat="42.57436" lon="23.99709">
        <ele>494.242402</ele>
        <time>2022-03-08T09:21:09.712Z</time>
      </trkpt>
      <trkpt lat="42.57443" lon="23.9972">
        <ele>494.446323</ele>
        <time>2022-03-08T09:21:12.721Z</time>
      </trkpt>
      <trkpt lat="42.57451" lon="23.99732">
        <ele>494.674756</ele>
        <time>2022-03-08T09:21:15.730Z</time>
      </trkpt>
      <trkpt lat="42.57457" lon="23.99746">
        <ele>494.89958</ele>
        <time>2022-03-08T09:21:18.718Z</time>
      </trkpt>
      <trkpt lat="42.57464" lon="23.99759">
        <ele>495.127672</ele>
        <time>2022-03-08T09:21:21.726Z</time>
      </trkpt>
      <trkpt lat="42.57471" lon="23.99771">
        <ele>495.341653</ele>
        <time>2022-03-08T09:21:24.720Z</time>
      </trkpt>
      <trkpt lat="42.57478" lon="23.99782">
        <ele>495.544205</ele>
        <time>2022-03-08T09:21:27.700Z</time>
      </trkpt>
      <trkpt lat="42.57485" lon="23.99794">
        <ele>495.66609</ele>
        <time>2022-03-08T09:21:30.722Z</time>
      </trkpt>
      <trkpt lat="42.57491" lon="23.99806">
        <ele>495.704997</ele>
        <time>2022-03-08T09:21:33.721Z</time>
      </trkpt>
      <trkpt lat="42.57497" lon="23.99819">
        <ele>495.747277</ele>
        <time>2022-03-08T09:21:36.718Z</time>
      </trkpt>
      <trkpt lat="42.57505" lon="23.9983">
        <ele>495.792371</ele>
        <time>2022-03-08T09:21:39.739Z</time>
      </trkpt>
      <trkpt lat="42.57513" lon="23.99841">
        <ele>495.834041</ele>
        <time>2022-03-08T09:21:42.732Z</time>
      </trkpt>
      <trkpt lat="42.57519" lon="23.99851">
        <ele>495.868087</ele>
        <time>2022-03-08T09:21:45.737Z</time>
      </trkpt>
      <trkpt lat="42.57524" lon="23.99861">
        <ele>495.901696</ele>
        <time>2022-03-08T09:21:48.700Z</time>
      </trkpt>
      <trkpt lat="42.5753" lon="23.99872">
        <ele>495.93816</ele>
        <time>2022-03-08T09:21:51.751Z</time>
      </trkpt>
      <trkpt lat="42.57536" lon="23.99881">
        <ele>495.971799</ele>
        <time>2022-03-08T09:21:54.732Z</time>
      </trkpt>
      <trkpt lat="42.57542" lon="23.99892">
        <ele>496.007168</ele>
        <time>2022-03-08T09:21:57.700Z</time>
      </trkpt>
      <trkpt lat="42.57547" lon="23.99903">
        <ele>496.043636</ele>
        <time>2022-03-08T09:22:00.716Z</time>
      </trkpt>
      <trkpt lat="42.57553" lon="23.99913">
        <ele>496.079222</ele>
        <time>2022-03-08T09:22:03.741Z</time>
      </trkpt>
      <trkpt lat="42.57561" lon="23.99925">
        <ele>496.123783</ele>
        <time>2022-03-08T09:22:07.719Z</time>
      </trkpt>
      <trkpt lat="42.57567" lon="23.99935">
        <ele>496.157553</ele>
        <time>2022-03-08T09:22:10.734Z</time>
      </trkpt>
      <trkpt lat="42.57574" lon="23.99947">
        <ele>496.198857</ele>
        <time>2022-03-08T09:22:14.735Z</time>
      </trkpt>
      <trkpt lat="42.57581" lon="23.99959">
        <ele>496.242361</ele>
        <time>2022-03-08T09:22:18.720Z</time>
      </trkpt>
      <trkpt lat="42.57587" lon="23.99968">
        <ele>496.276089</ele>
        <time>2022-03-08T09:22:21.739Z</time>
      </trkpt>
      <trkpt lat="42.57593" lon="23.99978">
        <ele>496.310716</ele>
        <time>2022-03-08T09:22:24.719Z</time>
      </trkpt>
      <trkpt lat="42.57599" lon="23.99989">
        <ele>496.490028</ele>
        <time>2022-03-08T09:22:27.708Z</time>
      </trkpt>
      <trkpt lat="42.57604" lon="24">
        <ele>496.679247</ele>
        <time>2022-03-08T09:22:30.760Z</time>
      </trkpt>
      <trkpt lat="42.5761" lon="24.00009">
        <ele>496.852691</ele>
        <time>2022-03-08T09:22:33.714Z</time>
      </trkpt>
      <trkpt lat="42.57616" lon="24.00021">
        <ele>497.06013</ele>
        <time>2022-03-08T09:22:37.718Z</time>
      </trkpt>
      <trkpt lat="42.57622" lon="24.00033">
        <ele>497.262005</ele>
        <time>2022-03-08T09:22:41.754Z</time>
      </trkpt>
      <trkpt lat="42.57629" lon="24.00046">
        <ele>497.489416</ele>
        <time>2022-03-08T09:22:45.719Z</time>
      </trkpt>
      <trkpt lat="42.57635" lon="24.00057">
        <ele>497.675298</ele>
        <time>2022-03-08T09:22:48.724Z</time>
      </trkpt>
      <trkpt lat="42.5764" lon="24.00067">
        <ele>497.861096</ele>
        <time>2022-03-08T09:22:51.724Z</time>
      </trkpt>
      <trkpt lat="42.57647" lon="24.0008">
        <ele>498.089058</ele>
        <time>2022-03-08T09:22:55.714Z</time>
      </trkpt>
      <trkpt lat="42.57654" lon="24.00093">
        <ele>498.309065</ele>
        <time>2022-03-08T09:22:59.711Z</time>
      </trkpt>
      <trkpt lat="42.57659" lon="24.00108">
        <ele>498.542107</ele>
        <time>2022-03-08T09:23:03.720Z</time>
      </trkpt>
      <trkpt lat="42.57663" lon="24.0012">
        <ele>498.727253</ele>
        <time>2022-03-08T09:23:06.731Z</time>
      </trkpt>
      <trkpt lat="42.57667" lon="24.00132">
        <ele>498.912329</ele>
        <time>2022-03-08T09:23:09.741Z</time>
      </trkpt>
      <trkpt lat="42.5767" lon="24.00144">
        <ele>499.093449</ele>
        <time>2022-03-08T09:23:12.726Z</time>
      </trkpt>
      <trkpt lat="42.5767" lon="24.00159">
        <ele>499.298712</ele>
        <time>2022-03-08T09:23:15.772Z</time>
      </trkpt>
      <trkpt lat="42.57668" lon="24.00173">
        <ele>499.49986</ele>
        <time>2022-03-08T09:23:18.728Z</time>
      </trkpt>
      <trkpt lat="42.57671" lon="24.00186">
        <ele>499.69873</ele>
        <time>2022-03-08T09:23:22.722Z</time>
      </trkpt>
      <trkpt lat="42.57671" lon="24.002">
        <ele>499.676469</ele>
        <time>2022-03-08T09:23:26.756Z</time>
      </trkpt>
      <trkpt lat="42.57671" lon="24.00215">
        <ele>499.516762</ele>
        <time>2022-03-08T09:23:30.725Z</time>
      </trkpt>
      <trkpt lat="42.5767" lon="24.0023">
        <ele>499.365261</ele>
        <time>2022-03-08T09:23:34.712Z</time>
      </trkpt>
      <trkpt lat="42.5767" lon="24.00243">
        <ele>499.228486</ele>
        <time>2022-03-08T09:23:38.728Z</time>
      </trkpt>
      <trkpt lat="42.5767" lon="24.00258">
        <ele>499.072002</ele>
        <time>2022-03-08T09:23:43.736Z</time>
      </trkpt>
      <trkpt lat="42.57669" lon="24.00271">
        <ele>498.934945</ele>
        <time>2022-03-08T09:23:47.723Z</time>
      </trkpt>
      <trkpt lat="42.5767" lon="24.00286">
        <ele>498.779195</ele>
        <time>2022-03-08T09:23:52.780Z</time>
      </trkpt>
      <trkpt lat="42.57669" lon="24.003">
        <ele>498.630893</ele>
        <time>2022-03-08T09:23:57.751Z</time>
      </trkpt>
      <trkpt lat="42.57669" lon="24.00313">
        <ele>498.497298</ele>
        <time>2022-03-08T09:24:01.714Z</time>
      </trkpt>
      <trkpt lat="42.57668" lon="24.00327">
        <ele>498.353275</ele>
        <time>2022-03-08T09:24:05.706Z</time>
      </trkpt>
      <trkpt lat="42.57669" lon="24.00339">
        <ele>498.21956</ele>
        <time>2022-03-08T09:24:09.731Z</time>
      </trkpt>
      <trkpt lat="42.57668" lon="24.00354">
        <ele>498.070752</ele>
        <time>2022-03-08T09:24:14.722Z</time>
      </trkpt>
      <trkpt lat="42.57668" lon="24.00367">
        <ele>497.927807</ele>
        <time>2022-03-08T09:24:19.726Z</time>
      </trkpt>
      <trkpt lat="42.57667" lon="24.0038">
        <ele>497.799113</ele>
        <time>2022-03-08T09:24:24.716Z</time>
      </trkpt>
      <trkpt lat="42.57666" lon="24.00394">
        <ele>497.646556</ele>
        <time>2022-03-08T09:24:29.726Z</time>
      </trkpt>
      <trkpt lat="42.57665" lon="24.00408">
        <ele>497.497748</ele>
        <time>2022-03-08T09:24:33.735Z</time>
      </trkpt>
      <trkpt lat="42.57665" lon="24.00422">
        <ele>497.349588</ele>
        <time>2022-03-08T09:24:37.744Z</time>
      </trkpt>
      <trkpt lat="42.57665" lon="24.00436">
        <ele>497.241098</ele>
        <time>2022-03-08T09:24:41.718Z</time>
      </trkpt>
      <trkpt lat="42.57665" lon="24.0045">
        <ele>497.436499</ele>
        <time>2022-03-08T09:24:45.718Z</time>
      </trkpt>
      <trkpt lat="42.57665" lon="24.00465">
        <ele>497.638759</ele>
        <time>2022-03-08T09:24:49.760Z</time>
      </trkpt>
      <trkpt lat="42.57664" lon="24.00479">
        <ele>497.84048</ele>
        <time>2022-03-08T09:24:53.733Z</time>
      </trkpt>
      <trkpt lat="42.57663" lon="24.00494">
        <ele>498.044228</ele>
        <time>2022-03-08T09:24:57.724Z</time>
      </trkpt>
      <trkpt lat="42.57664" lon="24.00508">
        <ele>498.236848</ele>
        <time>2022-03-08T09:25:01.794Z</time>
      </trkpt>
      <trkpt lat="42.57663" lon="24.00521">
        <ele>498.426582</ele>
        <time>2022-03-08T09:25:05.714Z</time>
      </trkpt>
      <trkpt lat="42.57662" lon="24.00534">
        <ele>498.611128</ele>
        <time>2022-03-08T09:25:09.727Z</time>
      </trkpt>
      <trkpt lat="42.57661" lon="24.00548">
        <ele>498.803597</ele>
        <time>2022-03-08T09:25:13.725Z</time>
      </trkpt>
      <trkpt lat="42.57661" lon="24.00561">
        <ele>498.987609</ele>
        <time>2022-03-08T09:25:17.727Z</time>
      </trkpt>
      <trkpt lat="42.57661" lon="24.00576">
        <ele>499.187005</ele>
        <time>2022-03-08T09:25:22.724Z</time>
      </trkpt>
      <trkpt lat="42.5766" lon="24.0059">
        <ele>499.38734</ele>
        <time>2022-03-08T09:25:26.710Z</time>
      </trkpt>
      <trkpt lat="42.57659" lon="24.00605">
        <ele>499.602052</ele>
        <time>2022-03-08T09:25:30.713Z</time>
      </trkpt>
      <trkpt lat="42.57658" lon="24.0062">
        <ele>499.810705</ele>
        <time>2022-03-08T09:25:34.718Z</time>
      </trkpt>
      <trkpt lat="42.57659" lon="24.00634">
        <ele>499.998962</ele>
        <time>2022-03-08T09:25:38.724Z</time>
      </trkpt>
      <trkpt lat="42.5766" lon="24.00648">
        <ele>500.198042</ele>
        <time>2022-03-08T09:25:42.734Z</time>
      </trkpt>
      <trkpt lat="42.57662" lon="24.00661">
        <ele>500.391319</ele>
        <time>2022-03-08T09:25:46.718Z</time>
      </trkpt>
      <trkpt lat="42.57665" lon="24.00674">
        <ele>500.570706</ele>
        <time>2022-03-08T09:25:50.725Z</time>
      </trkpt>
      <trkpt lat="42.5767" lon="24.00685">
        <ele>500.724092</ele>
        <time>2022-03-08T09:25:54.724Z</time>
      </trkpt>
      <trkpt lat="42.57677" lon="24.00697">
        <ele>500.890094</ele>
        <time>2022-03-08T09:25:59.715Z</time>
      </trkpt>
      <trkpt lat="42.57683" lon="24.00707">
        <ele>501.030175</ele>
        <time>2022-03-08T09:26:03.784Z</time>
      </trkpt>
      <trkpt lat="42.57691" lon="24.00717">
        <ele>501.189969</ele>
        <time>2022-03-08T09:26:07.731Z</time>
      </trkpt>
      <trkpt lat="42.57699" lon="24.00727">
        <ele>501.351003</ele>
        <time>2022-03-08T09:26:11.746Z</time>
      </trkpt>
      <trkpt lat="42.57708" lon="24.00737">
        <ele>501.522336</ele>
        <time>2022-03-08T09:26:15.722Z</time>
      </trkpt>
      <trkpt lat="42.57715" lon="24.00744">
        <ele>501.655753</ele>
        <time>2022-03-08T09:26:18.732Z</time>
      </trkpt>
      <trkpt lat="42.57723" lon="24.00755">
        <ele>501.821772</ele>
        <time>2022-03-08T09:26:22.726Z</time>
      </trkpt>
      <trkpt lat="42.5773" lon="24.00766">
        <ele>501.988315</ele>
        <time>2022-03-08T09:26:26.715Z</time>
      </trkpt>
      <trkpt lat="42.57739" lon="24.00775">
        <ele>502.141622</ele>
        <time>2022-03-08T09:26:30.716Z</time>
      </trkpt>
      <trkpt lat="42.57747" lon="24.00783">
        <ele>502.302192</ele>
        <time>2022-03-08T09:26:34.723Z</time>
      </trkpt>
      <trkpt lat="42.57757" lon="24.00793">
        <ele>502.477041</ele>
        <time>2022-03-08T09:26:38.724Z</time>
      </trkpt>
      <trkpt lat="42.57765" lon="24.00803">
        <ele>502.642887</ele>
        <time>2022-03-08T09:26:42.715Z</time>
      </trkpt>
      <trkpt lat="42.57774" lon="24.00812">
        <ele>502.802521</ele>
        <time>2022-03-08T09:26:46.743Z</time>
      </trkpt>
      <trkpt lat="42.57782" lon="24.00822">
        <ele>502.969695</ele>
        <time>2022-03-08T09:26:50.724Z</time>
      </trkpt>
      <trkpt lat="42.5779" lon="24.0083">
        <ele>503.117624</ele>
        <time>2022-03-08T09:26:54.732Z</time>
      </trkpt>
      <trkpt lat="42.578" lon="24.00838">
        <ele>503.285518</ele>
        <time>2022-03-08T09:26:58.716Z</time>
      </trkpt>
      <trkpt lat="42.57811" lon="24.00842">
        <ele>503.501885</ele>
        <time>2022-03-08T09:27:02.728Z</time>
      </trkpt>
      <trkpt lat="42.5782" lon="24.0085">
        <ele>503.7057</ele>
        <time>2022-03-08T09:27:06.716Z</time>
      </trkpt>
      <trkpt lat="42.57828" lon="24.00856">
        <ele>503.877172</ele>
        <time>2022-03-08T09:27:09.730Z</time>
      </trkpt>
      <trkpt lat="42.57837" lon="24.00862">
        <ele>504.074122</ele>
        <time>2022-03-08T09:27:12.732Z</time>
      </trkpt>
      <trkpt lat="42.57846" lon="24.00866">
        <ele>504.251994</ele>
        <time>2022-03-08T09:27:15.719Z</time>
      </trkpt>
      <trkpt lat="42.57856" lon="24.00872">
        <ele>504.459359</ele>
        <time>2022-03-08T09:27:19.751Z</time>
      </trkpt>
      <trkpt lat="42.57867" lon="24.00878">
        <ele>504.681505</ele>
        <time>2022-03-08T09:27:23.722Z</time>
      </trkpt>
      <trkpt lat="42.57878" lon="24.00883">
        <ele>504.901682</ele>
        <time>2022-03-08T09:27:27.731Z</time>
      </trkpt>
      <trkpt lat="42.57888" lon="24.00887">
        <ele>505.10076</ele>
        <time>2022-03-08T09:27:31.719Z</time>
      </trkpt>
      <trkpt lat="42.57898" lon="24.00891">
        <ele>505.292384</ele>
        <time>2022-03-08T09:27:35.724Z</time>
      </trkpt>
      <trkpt lat="42.57908" lon="24.00894">
        <ele>505.488723</ele>
        <time>2022-03-08T09:27:38.744Z</time>
      </trkpt>
      <trkpt lat="42.57918" lon="24.00895">
        <ele>505.680071</ele>
        <time>2022-03-08T09:27:41.728Z</time>
      </trkpt>
      <trkpt lat="42.5793" lon="24.00895">
        <ele>505.91212</ele>
        <time>2022-03-08T09:27:45.733Z</time>
      </trkpt>
      <trkpt lat="42.57942" lon="24.00894">
        <ele>506.139295</ele>
        <time>2022-03-08T09:27:49.731Z</time>
      </trkpt>
      <trkpt lat="42.57953" lon="24.00893">
        <ele>506.341597</ele>
        <time>2022-03-08T09:27:52.744Z</time>
      </trkpt>
      <trkpt lat="42.57965" lon="24.00888">
        <ele>506.589433</ele>
        <time>2022-03-08T09:27:55.725Z</time>
      </trkpt>
      <trkpt lat="42.57976" lon="24.00883">
        <ele>506.591639</ele>
        <time>2022-03-08T09:27:58.752Z</time>
      </trkpt>
      <trkpt lat="42.57987" lon="24.00876">
        <ele>506.352285</ele>
        <time>2022-03-08T09:28:01.720Z</time>
      </trkpt>
      <trkpt lat="42.57996" lon="24.00868">
        <ele>506.12663</ele>
        <time>2022-03-08T09:28:04.728Z</time>
      </trkpt>
      <trkpt lat="42.58004" lon="24.00859">
        <ele>505.912123</ele>
        <time>2022-03-08T09:28:07.745Z</time>
      </trkpt>
      <trkpt lat="42.5801" lon="24.00847">
        <ele>505.684534</ele>
        <time>2022-03-08T09:28:10.710Z</time>
      </trkpt>
      <trkpt lat="42.58018" lon="24.00834">
        <ele>505.428709</ele>
        <time>2022-03-08T09:28:13.729Z</time>
      </trkpt>
      <trkpt lat="42.58023" lon="24.00823">
        <ele>505.239134</ele>
        <time>2022-03-08T09:28:15.732Z</time>
      </trkpt>
      <trkpt lat="42.58028" lon="24.00813">
        <ele>505.04558</ele>
        <time>2022-03-08T09:28:17.729Z</time>
      </trkpt>
      <trkpt lat="42.58034" lon="24.00802">
        <ele>504.841376</ele>
        <time>2022-03-08T09:28:19.744Z</time>
      </trkpt>
      <trkpt lat="42.5804" lon="24.00791">
        <ele>504.637214</ele>
        <time>2022-03-08T09:28:21.718Z</time>
      </trkpt>
      <trkpt lat="42.58045" lon="24.0078">
        <ele>504.432871</ele>
        <time>2022-03-08T09:28:23.724Z</time>
      </trkpt>
      <trkpt lat="42.58052" lon="24.00767">
        <ele>504.178279</ele>
        <time>2022-03-08T09:28:26.716Z</time>
      </trkpt>
      <trkpt lat="42.58061" lon="24.00753">
        <ele>503.907314</ele>
        <time>2022-03-08T09:28:29.722Z</time>
      </trkpt>
      <trkpt lat="42.58069" lon="24.00739">
        <ele>503.633984</ele>
        <time>2022-03-08T09:28:32.725Z</time>
      </trkpt>
      <trkpt lat="42.58078" lon="24.00725">
        <ele>503.354188</ele>
        <time>2022-03-08T09:28:35.729Z</time>
      </trkpt>
      <trkpt lat="42.58085" lon="24.00712">
        <ele>503.105635</ele>
        <time>2022-03-08T09:28:38.723Z</time>
      </trkpt>
      <trkpt lat="42.5809" lon="24.00701">
        <ele>503.048599</ele>
        <time>2022-03-08T09:28:41.762Z</time>
      </trkpt>
      <trkpt lat="42.58096" lon="24.00691">
        <ele>503.237709</ele>
        <time>2022-03-08T09:28:44.711Z</time>
      </trkpt>
      <trkpt lat="42.58101" lon="24.0068">
        <ele>503.426343</ele>
        <time>2022-03-08T09:28:47.735Z</time>
      </trkpt>
      <trkpt lat="42.58106" lon="24.00669">
        <ele>503.610055</ele>
        <time>2022-03-08T09:28:50.726Z</time>
      </trkpt>
      <trkpt lat="42.58112" lon="24.00656">
        <ele>503.828799</ele>
        <time>2022-03-08T09:28:54.734Z</time>
      </trkpt>
      <trkpt lat="42.58119" lon="24.00643">
        <ele>504.056462</ele>
        <time>2022-03-08T09:28:58.713Z</time>
      </trkpt>
      <trkpt lat="42.58124" lon="24.00633">
        <ele>504.235075</ele>
        <time>2022-03-08T09:29:01.733Z</time>
      </trkpt>
      <trkpt lat="42.58131" lon="24.00621">
        <ele>504.469733</ele>
        <time>2022-03-08T09:29:05.738Z</time>
      </trkpt>
      <trkpt lat="42.58137" lon="24.00609">
        <ele>504.674198</ele>
        <time>2022-03-08T09:29:09.727Z</time>
      </trkpt>
      <trkpt lat="42.58143" lon="24.00597">
        <ele>504.876364</ele>
        <time>2022-03-08T09:29:13.732Z</time>
      </trkpt>
      <trkpt lat="42.58148" lon="24.00586">
        <ele>505.069223</ele>
        <time>2022-03-08T09:29:17.727Z</time>
      </trkpt>
      <trkpt lat="42.58153" lon="24.00573">
        <ele>505.278308</ele>
        <time>2022-03-08T09:29:21.719Z</time>
      </trkpt>
      <trkpt lat="42.58156" lon="24.0056">
        <ele>505.475584</ele>
        <time>2022-03-08T09:29:25.768Z</time>
      </trkpt>
      <trkpt lat="42.5816" lon="24.00548">
        <ele>505.675568</ele>
        <time>2022-03-08T09:29:30.732Z</time>
      </trkpt>
      <trkpt lat="42.58165" lon="24.00534">
        <ele>505.894633</ele>
        <time>2022-03-08T09:29:34.734Z</time>
      </trkpt>
      <trkpt lat="42.5817" lon="24.0052">
        <ele>506.117406</ele>
        <time>2022-03-08T09:29:38.713Z</time>
      </trkpt>
      <trkpt lat="42.58173" lon="24.00509">
        <ele>506.295358</ele>
        <time>2022-03-08T09:29:41.725Z</time>
      </trkpt>
      <trkpt lat="42.58178" lon="24.00498">
        <ele>506.479382</ele>
        <time>2022-03-08T09:29:44.734Z</time>
      </trkpt>
      <trkpt lat="42.58182" lon="24.00484">
        <ele>506.573435</ele>
        <time>2022-03-08T09:29:48.727Z</time>
      </trkpt>
      <trkpt lat="42.58188" lon="24.0047">
        <ele>506.641268</ele>
        <time>2022-03-08T09:29:52.753Z</time>
      </trkpt>
      <trkpt lat="42.58194" lon="24.00458">
        <ele>506.704029</ele>
        <time>2022-03-08T09:29:55.731Z</time>
      </trkpt>
      <trkpt lat="42.58199" lon="24.00447">
        <ele>506.763099</ele>
        <time>2022-03-08T09:29:58.717Z</time>
      </trkpt>
      <trkpt lat="42.58205" lon="24.00435">
        <ele>506.822213</ele>
        <time>2022-03-08T09:30:01.709Z</time>
      </trkpt>
      <trkpt lat="42.58211" lon="24.00426">
        <ele>506.875438</ele>
        <time>2022-03-08T09:30:04.765Z</time>
      </trkpt>
      <trkpt lat="42.58217" lon="24.00416">
        <ele>506.933077</ele>
        <time>2022-03-08T09:30:07.719Z</time>
      </trkpt>
      <trkpt lat="42.58225" lon="24.00407">
        <ele>506.991823</ele>
        <time>2022-03-08T09:30:10.728Z</time>
      </trkpt>
      <trkpt lat="42.58233" lon="24.00397">
        <ele>507.05608</ele>
        <time>2022-03-08T09:30:13.726Z</time>
      </trkpt>
      <trkpt lat="42.5824" lon="24.00389">
        <ele>507.113104</ele>
        <time>2022-03-08T09:30:16.704Z</time>
      </trkpt>
      <trkpt lat="42.58248" lon="24.0038">
        <ele>507.172981</ele>
        <time>2022-03-08T09:30:19.737Z</time>
      </trkpt>
      <trkpt lat="42.58255" lon="24.00371">
        <ele>507.231242</ele>
        <time>2022-03-08T09:30:22.723Z</time>
      </trkpt>
      <trkpt lat="42.58263" lon="24.00362">
        <ele>507.289215</ele>
        <time>2022-03-08T09:30:25.722Z</time>
      </trkpt>
      <trkpt lat="42.5827" lon="24.00354">
        <ele>507.344415</ele>
        <time>2022-03-08T09:30:28.727Z</time>
      </trkpt>
      <trkpt lat="42.58278" lon="24.00344">
        <ele>507.410028</ele>
        <time>2022-03-08T09:30:31.724Z</time>
      </trkpt>
      <trkpt lat="42.58287" lon="24.00334">
        <ele>507.477945</ele>
        <time>2022-03-08T09:30:34.722Z</time>
      </trkpt>
      <trkpt lat="42.58294" lon="24.00327">
        <ele>507.531313</ele>
        <time>2022-03-08T09:30:37.729Z</time>
      </trkpt>
      <trkpt lat="42.58304" lon="24.00316">
        <ele>507.534702</ele>
        <time>2022-03-08T09:30:41.746Z</time>
      </trkpt>
      <trkpt lat="42.58312" lon="24.00308">
        <ele>507.414315</ele>
        <time>2022-03-08T09:30:44.730Z</time>
      </trkpt>
      <trkpt lat="42.58323" lon="24.00302">
        <ele>507.286144</ele>
        <time>2022-03-08T09:30:47.736Z</time>
      </trkpt>
      <trkpt lat="42.58333" lon="24.003">
        <ele>507.169901</ele>
        <time>2022-03-08T09:30:50.743Z</time>
      </trkpt>
      <trkpt lat="42.58343" lon="24.00303">
        <ele>507.048439</ele>
        <time>2022-03-08T09:30:53.723Z</time>
      </trkpt>
      <trkpt lat="42.58354" lon="24.00308">
        <ele>506.914768</ele>
        <time>2022-03-08T09:30:56.744Z</time>
      </trkpt>
      <trkpt lat="42.58365" lon="24.00313">
        <ele>506.774271</ele>
        <time>2022-03-08T09:30:59.752Z</time>
      </trkpt>
      <trkpt lat="42.58377" lon="24.00319">
        <ele>506.632115</ele>
        <time>2022-03-08T09:31:02.752Z</time>
      </trkpt>
      <trkpt lat="42.58389" lon="24.00324">
        <ele>506.493251</ele>
        <time>2022-03-08T09:31:05.724Z</time>
      </trkpt>
      <trkpt lat="42.584" lon="24.00328">
        <ele>506.359167</ele>
        <time>2022-03-08T09:31:08.735Z</time>
      </trkpt>
      <trkpt lat="42.58411" lon="24.00333">
        <ele>506.227902</ele>
        <time>2022-03-08T09:31:11.731Z</time>
      </trkpt>
      <trkpt lat="42.58422" lon="24.00338">
        <ele>506.095593</ele>
        <time>2022-03-08T09:31:14.727Z</time>
      </trkpt>
      <trkpt lat="42.58432" lon="24.00344">
        <ele>505.966933</ele>
        <time>2022-03-08T09:31:17.736Z</time>
      </trkpt>
      <trkpt lat="42.58441" lon="24.00351">
        <ele>505.843825</ele>
        <time>2022-03-08T09:31:20.722Z</time>
      </trkpt>
      <trkpt lat="42.58451" lon="24.00357">
        <ele>505.72084</ele>
        <time>2022-03-08T09:31:23.710Z</time>
      </trkpt>
      <trkpt lat="42.58458" lon="24.00366">
        <ele>505.60488</ele>
        <time>2022-03-08T09:31:26.726Z</time>
      </trkpt>
      <trkpt lat="42.58465" lon="24.00377">
        <ele>505.5478</ele>
        <time>2022-03-08T09:31:29.760Z</time>
      </trkpt>
      <trkpt lat="42.58472" lon="24.00387">
        <ele>505.72137</ele>
        <time>2022-03-08T09:31:32.711Z</time>
      </trkpt>
      <trkpt lat="42.58479" lon="24.00398">
        <ele>505.90911</ele>
        <time>2022-03-08T09:31:35.752Z</time>
      </trkpt>
      <trkpt lat="42.58486" lon="24.00409">
        <ele>506.097343</ele>
        <time>2022-03-08T09:31:38.722Z</time>
      </trkpt>
      <trkpt lat="42.58493" lon="24.00419">
        <ele>506.266759</ele>
        <time>2022-03-08T09:31:41.723Z</time>
      </trkpt>
      <trkpt lat="42.585" lon="24.00428">
        <ele>506.434442</ele>
        <time>2022-03-08T09:31:44.727Z</time>
      </trkpt>
      <trkpt lat="42.58507" lon="24.00436">
        <ele>506.598687</ele>
        <time>2022-03-08T09:31:47.707Z</time>
      </trkpt>
      <trkpt lat="42.58516" lon="24.00447">
        <ele>506.806978</ele>
        <time>2022-03-08T09:31:51.751Z</time>
      </trkpt>
      <trkpt lat="42.58526" lon="24.00457">
        <ele>507.015984</ele>
        <time>2022-03-08T09:31:55.721Z</time>
      </trkpt>
      <trkpt lat="42.58535" lon="24.00467">
        <ele>507.215838</ele>
        <time>2022-03-08T09:31:59.731Z</time>
      </trkpt>
      <trkpt lat="42.58542" lon="24.00475">
        <ele>507.383904</ele>
        <time>2022-03-08T09:32:02.747Z</time>
      </trkpt>
      <trkpt lat="42.58549" lon="24.00484">
        <ele>507.553717</ele>
        <time>2022-03-08T09:32:05.722Z</time>
      </trkpt>
      <trkpt lat="42.58557" lon="24.00496">
        <ele>507.758093</ele>
        <time>2022-03-08T09:32:09.738Z</time>
      </trkpt>
      <trkpt lat="42.58565" lon="24.00508">
        <ele>507.963194</ele>
        <time>2022-03-08T09:32:13.796Z</time>
      </trkpt>
      <trkpt lat="42.58573" lon="24.0052">
        <ele>508.164775</ele>
        <time>2022-03-08T09:32:17.715Z</time>
      </trkpt>
      <trkpt lat="42.5858" lon="24.0053">
        <ele>508.347592</ele>
        <time>2022-03-08T09:32:21.732Z</time>
      </trkpt>
      <trkpt lat="42.58587" lon="24.00541">
        <ele>508.530174</ele>
        <time>2022-03-08T09:32:25.724Z</time>
      </trkpt>
      <trkpt lat="42.58593" lon="24.00551">
        <ele>508.746804</ele>
        <time>2022-03-08T09:32:28.732Z</time>
      </trkpt>
      <trkpt lat="42.58599" lon="24.00563">
        <ele>509.079587</ele>
        <time>2022-03-08T09:32:31.736Z</time>
      </trkpt>
      <trkpt lat="42.58603" lon="24.00575">
        <ele>509.379551</ele>
        <time>2022-03-08T09:32:34.739Z</time>
      </trkpt>
      <trkpt lat="42.58608" lon="24.00586">
        <ele>509.674681</ele>
        <time>2022-03-08T09:32:37.742Z</time>
      </trkpt>
      <trkpt lat="42.58613" lon="24.00597">
        <ele>509.958262</ele>
        <time>2022-03-08T09:32:40.771Z</time>
      </trkpt>
      <trkpt lat="42.58618" lon="24.0061">
        <ele>510.305671</ele>
        <time>2022-03-08T09:32:44.723Z</time>
      </trkpt>
      <trkpt lat="42.58624" lon="24.00624">
        <ele>510.676715</ele>
        <time>2022-03-08T09:32:48.722Z</time>
      </trkpt>
      <trkpt lat="42.5863" lon="24.00634">
        <ele>510.967262</ele>
        <time>2022-03-08T09:32:51.751Z</time>
      </trkpt>
      <trkpt lat="42.58638" lon="24.00643">
        <ele>511.285272</ele>
        <time>2022-03-08T09:32:54.715Z</time>
      </trkpt>
      <trkpt lat="42.58646" lon="24.00652">
        <ele>511.616692</ele>
        <time>2022-03-08T09:32:57.718Z</time>
      </trkpt>
      <trkpt lat="42.58656" lon="24.00661">
        <ele>511.979878</ele>
        <time>2022-03-08T09:33:00.730Z</time>
      </trkpt>
      <trkpt lat="42.58666" lon="24.00667">
        <ele>512.33583</ele>
        <time>2022-03-08T09:33:03.747Z</time>
      </trkpt>
      <trkpt lat="42.58679" lon="24.00672">
        <ele>512.731656</ele>
        <time>2022-03-08T09:33:06.732Z</time>
      </trkpt>
      <trkpt lat="42.58692" lon="24.00677">
        <ele>513.148813</ele>
        <time>2022-03-08T09:33:09.734Z</time>
      </trkpt>
      <trkpt lat="42.587" lon="24.00679">
        <ele>513.4276</ele>
        <time>2022-03-08T09:33:11.722Z</time>
      </trkpt>
      <trkpt lat="42.58714" lon="24.00681">
        <ele>513.845382</ele>
        <time>2022-03-08T09:33:14.725Z</time>
      </trkpt>
      <trkpt lat="42.58727" lon="24.00681">
        <ele>514.249554</ele>
        <time>2022-03-08T09:33:17.715Z</time>
      </trkpt>
      <trkpt lat="42.58737" lon="24.00678">
        <ele>514.520089</ele>
        <time>2022-03-08T09:33:19.718Z</time>
      </trkpt>
      <trkpt lat="42.58745" lon="24.00675">
        <ele>514.774779</ele>
        <time>2022-03-08T09:33:21.719Z</time>
      </trkpt>
      <trkpt lat="42.58757" lon="24.00671">
        <ele>515.12294</ele>
        <time>2022-03-08T09:33:24.700Z</time>
      </trkpt>
      <trkpt lat="42.5877" lon="24.00667">
        <ele>515.481054</ele>
        <time>2022-03-08T09:33:27.721Z</time>
      </trkpt>
      <trkpt lat="42.58782" lon="24.00663">
        <ele>515.837187</ele>
        <time>2022-03-08T09:33:30.726Z</time>
      </trkpt>
      <trkpt lat="42.58794" lon="24.00658">
        <ele>516.187924</ele>
        <time>2022-03-08T09:33:33.757Z</time>
      </trkpt>
      <trkpt lat="42.58807" lon="24.00654">
        <ele>516.546757</ele>
        <time>2022-03-08T09:33:36.756Z</time>
      </trkpt>
      <trkpt lat="42.58819" lon="24.00653">
        <ele>516.877431</ele>
        <time>2022-03-08T09:33:39.730Z</time>
      </trkpt>
      <trkpt lat="42.58831" lon="24.00651">
        <ele>517.226539</ele>
        <time>2022-03-08T09:33:42.738Z</time>
      </trkpt>
      <trkpt lat="42.58843" lon="24.00646">
        <ele>517.579439</ele>
        <time>2022-03-08T09:33:45.733Z</time>
      </trkpt>
      <trkpt lat="42.58854" lon="24.00642">
        <ele>517.889167</ele>
        <time>2022-03-08T09:33:48.771Z</time>
      </trkpt>
      <trkpt lat="42.58863" lon="24.00638">
        <ele>518.16978</ele>
        <time>2022-03-08T09:33:51.728Z</time>
      </trkpt>
      <trkpt lat="42.58874" lon="24.00634">
        <ele>518.484394</ele>
        <time>2022-03-08T09:33:54.755Z</time>
      </trkpt>
      <trkpt lat="42.58887" lon="24.00631">
        <ele>518.838472</ele>
        <time>2022-03-08T09:33:57.760Z</time>
      </trkpt>
      <trkpt lat="42.58898" lon="24.00628">
        <ele>519.154489</ele>
        <time>2022-03-08T09:34:00.730Z</time>
      </trkpt>
      <trkpt lat="42.5891" lon="24.00626">
        <ele>518.720497</ele>
        <time>2022-03-08T09:34:03.723Z</time>
      </trkpt>
      <trkpt lat="42.58922" lon="24.00624">
        <ele>518.00731</ele>
        <time>2022-03-08T09:34:06.745Z</time>
      </trkpt>
      <trkpt lat="42.58935" lon="24.00621">
        <ele>517.294943</ele>
        <time>2022-03-08T09:34:09.800Z</time>
      </trkpt>
      <trkpt lat="42.58947" lon="24.00617">
        <ele>516.613354</ele>
        <time>2022-03-08T09:34:12.755Z</time>
      </trkpt>
      <trkpt lat="42.58959" lon="24.00615">
        <ele>515.932581</ele>
        <time>2022-03-08T09:34:15.724Z</time>
      </trkpt>
      <trkpt lat="42.58971" lon="24.00611">
        <ele>515.275279</ele>
        <time>2022-03-08T09:34:18.756Z</time>
      </trkpt>
      <trkpt lat="42.58981" lon="24.00609">
        <ele>514.682127</ele>
        <time>2022-03-08T09:34:21.709Z</time>
      </trkpt>
      <trkpt lat="42.58991" lon="24.00607">
        <ele>514.155819</ele>
        <time>2022-03-08T09:34:24.717Z</time>
      </trkpt>
      <trkpt lat="42.59" lon="24.00604">
        <ele>513.633391</ele>
        <time>2022-03-08T09:34:27.722Z</time>
      </trkpt>
      <trkpt lat="42.59011" lon="24.00603">
        <ele>513.026939</ele>
        <time>2022-03-08T09:34:30.760Z</time>
      </trkpt>
      <trkpt lat="42.59023" lon="24.00599">
        <ele>512.353428</ele>
        <time>2022-03-08T09:34:33.738Z</time>
      </trkpt>
      <trkpt lat="42.59035" lon="24.00596">
        <ele>511.664217</ele>
        <time>2022-03-08T09:34:36.728Z</time>
      </trkpt>
      <trkpt lat="42.59047" lon="24.00594">
        <ele>511.023392</ele>
        <time>2022-03-08T09:34:39.735Z</time>
      </trkpt>
      <trkpt lat="42.59057" lon="24.00592">
        <ele>510.421502</ele>
        <time>2022-03-08T09:34:42.739Z</time>
      </trkpt>
      <trkpt lat="42.59068" lon="24.00593">
        <ele>509.815872</ele>
        <time>2022-03-08T09:34:46.750Z</time>
      </trkpt>
      <trkpt lat="42.5908" lon="24.00595">
        <ele>509.185364</ele>
        <time>2022-03-08T09:34:50.738Z</time>
      </trkpt>
      <trkpt lat="42.5909" lon="24.00597">
        <ele>508.70917</ele>
        <time>2022-03-08T09:34:53.732Z</time>
      </trkpt>
      <trkpt lat="42.59101" lon="24.006">
        <ele>508.199495</ele>
        <time>2022-03-08T09:34:56.735Z</time>
      </trkpt>
      <trkpt lat="42.59111" lon="24.00604">
        <ele>507.7048</ele>
        <time>2022-03-08T09:34:59.732Z</time>
      </trkpt>
      <trkpt lat="42.59121" lon="24.00609">
        <ele>507.224423</ele>
        <time>2022-03-08T09:35:02.751Z</time>
      </trkpt>
      <trkpt lat="42.5913" lon="24.00613">
        <ele>506.797378</ele>
        <time>2022-03-08T09:35:05.707Z</time>
      </trkpt>
      <trkpt lat="42.59139" lon="24.00618">
        <ele>506.345467</ele>
        <time>2022-03-08T09:35:08.730Z</time>
      </trkpt>
      <trkpt lat="42.59149" lon="24.00621">
        <ele>505.873634</ele>
        <time>2022-03-08T09:35:11.737Z</time>
      </trkpt>
      <trkpt lat="42.59158" lon="24.00627">
        <ele>505.400025</ele>
        <time>2022-03-08T09:35:14.716Z</time>
      </trkpt>
      <trkpt lat="42.59168" lon="24.00634">
        <ele>504.920617</ele>
        <time>2022-03-08T09:35:17.722Z</time>
      </trkpt>
      <trkpt lat="42.59177" lon="24.0064">
        <ele>504.459436</ele>
        <time>2022-03-08T09:35:20.760Z</time>
      </trkpt>
      <trkpt lat="42.59186" lon="24.00644">
        <ele>503.97906</ele>
        <time>2022-03-08T09:35:23.713Z</time>
      </trkpt>
      <trkpt lat="42.59197" lon="24.00649">
        <ele>503.467233</ele>
        <time>2022-03-08T09:35:26.710Z</time>
      </trkpt>
      <trkpt lat="42.59207" lon="24.00654">
        <ele>502.959306</ele>
        <time>2022-03-08T09:35:29.738Z</time>
      </trkpt>
      <trkpt lat="42.59217" lon="24.00658">
        <ele>502.478802</ele>
        <time>2022-03-08T09:35:32.724Z</time>
      </trkpt>
      <trkpt lat="42.59228" lon="24.00661">
        <ele>502.003218</ele>
        <time>2022-03-08T09:35:35.733Z</time>
      </trkpt>
      <trkpt lat="42.59238" lon="24.00662">
        <ele>501.503466</ele>
        <time>2022-03-08T09:35:38.716Z</time>
      </trkpt>
      <trkpt lat="42.59249" lon="24.00664">
        <ele>501.006557</ele>
        <time>2022-03-08T09:35:41.721Z</time>
      </trkpt>
      <trkpt lat="42.5926" lon="24.00666">
        <ele>501.071304</ele>
        <time>2022-03-08T09:35:44.723Z</time>
      </trkpt>
      <trkpt lat="42.59271" lon="24.00668">
        <ele>501.133718</ele>
        <time>2022-03-08T09:35:47.732Z</time>
      </trkpt>
      <trkpt lat="42.59281" lon="24.00672">
        <ele>501.194499</ele>
        <time>2022-03-08T09:35:50.754Z</time>
      </trkpt>
      <trkpt lat="42.59292" lon="24.00676">
        <ele>501.262214</ele>
        <time>2022-03-08T09:35:53.716Z</time>
      </trkpt>
      <trkpt lat="42.59304" lon="24.0068">
        <ele>501.329195</ele>
        <time>2022-03-08T09:35:56.723Z</time>
      </trkpt>
      <trkpt lat="42.59315" lon="24.00683">
        <ele>501.394455</ele>
        <time>2022-03-08T09:35:59.773Z</time>
      </trkpt>
      <trkpt lat="42.59325" lon="24.00685">
        <ele>501.455331</ele>
        <time>2022-03-08T09:36:02.732Z</time>
      </trkpt>
      <trkpt lat="42.59336" lon="24.00688">
        <ele>501.517993</ele>
        <time>2022-03-08T09:36:05.716Z</time>
      </trkpt>
      <trkpt lat="42.59346" lon="24.00691">
        <ele>501.577124</ele>
        <time>2022-03-08T09:36:08.735Z</time>
      </trkpt>
      <trkpt lat="42.59356" lon="24.00693">
        <ele>501.636766</ele>
        <time>2022-03-08T09:36:11.714Z</time>
      </trkpt>
      <trkpt lat="42.59365" lon="24.00695">
        <ele>501.692042</ele>
        <time>2022-03-08T09:36:14.720Z</time>
      </trkpt>
      <trkpt lat="42.59376" lon="24.00694">
        <ele>501.757095</ele>
        <time>2022-03-08T09:36:17.728Z</time>
      </trkpt>
      <trkpt lat="42.59388" lon="24.00692">
        <ele>501.825545</ele>
        <time>2022-03-08T09:36:20.714Z</time>
      </trkpt>
      <trkpt lat="42.594" lon="24.00692">
        <ele>501.890942</ele>
        <time>2022-03-08T09:36:23.736Z</time>
      </trkpt>
      <trkpt lat="42.59411" lon="24.00692">
        <ele>501.955216</ele>
        <time>2022-03-08T09:36:26.762Z</time>
      </trkpt>
      <trkpt lat="42.59422" lon="24.00692">
        <ele>502.018881</ele>
        <time>2022-03-08T09:36:29.726Z</time>
      </trkpt>
      <trkpt lat="42.59432" lon="24.00694">
        <ele>502.386699</ele>
        <time>2022-03-08T09:36:32.726Z</time>
      </trkpt>
      <trkpt lat="42.59442" lon="24.00697">
        <ele>503.066589</ele>
        <time>2022-03-08T09:36:35.732Z</time>
      </trkpt>
      <trkpt lat="42.59453" lon="24.007">
        <ele>503.714741</ele>
        <time>2022-03-08T09:36:38.779Z</time>
      </trkpt>
      <trkpt lat="42.59461" lon="24.00705">
        <ele>504.30697</ele>
        <time>2022-03-08T09:36:41.729Z</time>
      </trkpt>
      <trkpt lat="42.59469" lon="24.00712">
        <ele>504.909269</ele>
        <time>2022-03-08T09:36:44.725Z</time>
      </trkpt>
      <trkpt lat="42.59478" lon="24.00721">
        <ele>505.592692</ele>
        <time>2022-03-08T09:36:47.728Z</time>
      </trkpt>
      <trkpt lat="42.59486" lon="24.00731">
        <ele>506.277408</ele>
        <time>2022-03-08T09:36:50.712Z</time>
      </trkpt>
      <trkpt lat="42.59494" lon="24.00741">
        <ele>506.94074</ele>
        <time>2022-03-08T09:36:53.722Z</time>
      </trkpt>
      <trkpt lat="42.595" lon="24.00751">
        <ele>507.559877</ele>
        <time>2022-03-08T09:36:56.729Z</time>
      </trkpt>
      <trkpt lat="42.59508" lon="24.00762">
        <ele>508.264186</ele>
        <time>2022-03-08T09:37:00.713Z</time>
      </trkpt>
      <trkpt lat="42.59515" lon="24.00774">
        <ele>508.971519</ele>
        <time>2022-03-08T09:37:04.719Z</time>
      </trkpt>
      <trkpt lat="42.59521" lon="24.00784">
        <ele>509.56253</ele>
        <time>2022-03-08T09:37:07.736Z</time>
      </trkpt>
      <trkpt lat="42.59528" lon="24.00796">
        <ele>510.288108</ele>
        <time>2022-03-08T09:37:11.727Z</time>
      </trkpt>
      <trkpt lat="42.59534" lon="24.00808">
        <ele>510.957585</ele>
        <time>2022-03-08T09:37:15.720Z</time>
      </trkpt>
      <trkpt lat="42.59539" lon="24.00819">
        <ele>511.564316</ele>
        <time>2022-03-08T09:37:19.716Z</time>
      </trkpt>
      <trkpt lat="42.59544" lon="24.00833">
        <ele>512.249425</ele>
        <time>2022-03-08T09:37:24.724Z</time>
      </trkpt>
      <trkpt lat="42.5955" lon="24.00843">
        <ele>512.859514</ele>
        <time>2022-03-08T09:37:28.751Z</time>
      </trkpt>
      <trkpt lat="42.59556" lon="24.00854">
        <ele>513.331995</ele>
        <time>2022-03-08T09:37:32.771Z</time>
      </trkpt>
      <trkpt lat="42.59562" lon="24.00865">
        <ele>513.364862</ele>
        <time>2022-03-08T09:37:36.738Z</time>
      </trkpt>
      <trkpt lat="42.59569" lon="24.00875">
        <ele>513.400208</ele>
        <time>2022-03-08T09:37:41.723Z</time>
      </trkpt>
      <trkpt lat="42.59577" lon="24.00885">
        <ele>513.435233</ele>
        <time>2022-03-08T09:37:46.725Z</time>
      </trkpt>
      <trkpt lat="42.59585" lon="24.00894">
        <ele>513.468553</ele>
        <time>2022-03-08T09:37:50.763Z</time>
      </trkpt>
      <trkpt lat="42.59593" lon="24.00903">
        <ele>513.503602</ele>
        <time>2022-03-08T09:37:54.762Z</time>
      </trkpt>
      <trkpt lat="42.59602" lon="24.00911">
        <ele>513.541431</ele>
        <time>2022-03-08T09:37:58.716Z</time>
      </trkpt>
      <trkpt lat="42.5961" lon="24.00918">
        <ele>513.57123</ele>
        <time>2022-03-08T09:38:01.742Z</time>
      </trkpt>
      <trkpt lat="42.59618" lon="24.00925">
        <ele>513.602128</ele>
        <time>2022-03-08T09:38:04.769Z</time>
      </trkpt>
      <trkpt lat="42.59625" lon="24.00933">
        <ele>513.632777</ele>
        <time>2022-03-08T09:38:07.741Z</time>
      </trkpt>
      <trkpt lat="42.59634" lon="24.0094">
        <ele>513.666312</ele>
        <time>2022-03-08T09:38:10.730Z</time>
      </trkpt>
      <trkpt lat="42.59642" lon="24.00946">
        <ele>513.697524</ele>
        <time>2022-03-08T09:38:13.731Z</time>
      </trkpt>
      <trkpt lat="42.59652" lon="24.00954">
        <ele>513.736745</ele>
        <time>2022-03-08T09:38:17.735Z</time>
      </trkpt>
      <trkpt lat="42.5966" lon="24.00961">
        <ele>513.767533</ele>
        <time>2022-03-08T09:38:20.716Z</time>
      </trkpt>
      <trkpt lat="42.59669" lon="24.00964">
        <ele>513.798041</ele>
        <time>2022-03-08T09:38:23.735Z</time>
      </trkpt>
      <trkpt lat="42.5968" lon="24.00968">
        <ele>513.837066</ele>
        <time>2022-03-08T09:38:27.722Z</time>
      </trkpt>
      <trkpt lat="42.59691" lon="24.00973">
        <ele>513.873451</ele>
        <time>2022-03-08T09:38:31.724Z</time>
      </trkpt>
      <trkpt lat="42.59701" lon="24.00976">
        <ele>513.908374</ele>
        <time>2022-03-08T09:38:35.726Z</time>
      </trkpt>
      <trkpt lat="42.59712" lon="24.00979">
        <ele>513.729563</ele>
        <time>2022-03-08T09:38:39.735Z</time>
      </trkpt>
      <trkpt lat="42.59724" lon="24.00982">
        <ele>513.422894</ele>
        <time>2022-03-08T09:38:43.724Z</time>
      </trkpt>
      <trkpt lat="42.59732" lon="24.00985">
        <ele>513.192276</ele>
        <time>2022-03-08T09:38:46.738Z</time>
      </trkpt>
      <trkpt lat="42.59743" lon="24.00987">
        <ele>512.926643</ele>
        <time>2022-03-08T09:38:50.739Z</time>
      </trkpt>
      <trkpt lat="42.59752" lon="24.00989">
        <ele>512.693158</ele>
        <time>2022-03-08T09:38:53.738Z</time>
      </trkpt>
      <trkpt lat="42.59763" lon="24.00993">
        <ele>512.408463</ele>
        <time>2022-03-08T09:38:57.730Z</time>
      </trkpt>
      <trkpt lat="42.59774" lon="24.00994">
        <ele>512.128235</ele>
        <time>2022-03-08T09:39:01.744Z</time>
      </trkpt>
      <trkpt lat="42.59785" lon="24.00994">
        <ele>511.84091</ele>
        <time>2022-03-08T09:39:05.722Z</time>
      </trkpt>
      <trkpt lat="42.59797" lon="24.00989">
        <ele>511.529224</ele>
        <time>2022-03-08T09:39:09.735Z</time>
      </trkpt>
      <trkpt lat="42.59805" lon="24.00987">
        <ele>511.301028</ele>
        <time>2022-03-08T09:39:12.712Z</time>
      </trkpt>
      <trkpt lat="42.59815" lon="24.00985">
        <ele>511.053564</ele>
        <time>2022-03-08T09:39:16.732Z</time>
      </trkpt>
      <trkpt lat="42.59826" lon="24.00981">
        <ele>510.77672</ele>
        <time>2022-03-08T09:39:20.731Z</time>
      </trkpt>
      <trkpt lat="42.59838" lon="24.00979">
        <ele>510.468411</ele>
        <time>2022-03-08T09:39:24.807Z</time>
      </trkpt>
      <trkpt lat="42.59847" lon="24.00977">
        <ele>510.219303</ele>
        <time>2022-03-08T09:39:27.715Z</time>
      </trkpt>
      <trkpt lat="42.59857" lon="24.00977">
        <ele>509.967653</ele>
        <time>2022-03-08T09:39:30.743Z</time>
      </trkpt>
      <trkpt lat="42.59867" lon="24.00979">
        <ele>509.721807</ele>
        <time>2022-03-08T09:39:33.708Z</time>
      </trkpt>
      <trkpt lat="42.59876" lon="24.0098">
        <ele>509.482142</ele>
        <time>2022-03-08T09:39:36.727Z</time>
      </trkpt>
      <trkpt lat="42.59886" lon="24.0098">
        <ele>509.379898</ele>
        <time>2022-03-08T09:39:39.736Z</time>
      </trkpt>
      <trkpt lat="42.59895" lon="24.00979">
        <ele>509.447908</ele>
        <time>2022-03-08T09:39:42.715Z</time>
      </trkpt>
      <trkpt lat="42.59905" lon="24.00978">
        <ele>509.521918</ele>
        <time>2022-03-08T09:39:45.727Z</time>
      </trkpt>
      <trkpt lat="42.59916" lon="24.00977">
        <ele>509.594931</ele>
        <time>2022-03-08T09:39:48.720Z</time>
      </trkpt>
      <trkpt lat="42.59927" lon="24.00976">
        <ele>509.681221</ele>
        <time>2022-03-08T09:39:52.708Z</time>
      </trkpt>
      <trkpt lat="42.59937" lon="24.00976">
        <ele>509.750576</ele>
        <time>2022-03-08T09:39:55.721Z</time>
      </trkpt>
      <trkpt lat="42.59946" lon="24.00986">
        <ele>509.832905</ele>
        <time>2022-03-08T09:40:00.770Z</time>
      </trkpt>
      <trkpt lat="42.59947" lon="24.00998">
        <ele>509.899413</ele>
        <time>2022-03-08T09:40:03.726Z</time>
      </trkpt>
      <trkpt lat="42.59947" lon="24.01012">
        <ele>509.972855</ele>
        <time>2022-03-08T09:40:06.791Z</time>
      </trkpt>
      <trkpt lat="42.59948" lon="24.01026">
        <ele>510.04529</ele>
        <time>2022-03-08T09:40:09.717Z</time>
      </trkpt>
      <trkpt lat="42.59948" lon="24.01038">
        <ele>510.112829</ele>
        <time>2022-03-08T09:40:12.724Z</time>
      </trkpt>
      <trkpt lat="42.59948" lon="24.01051">
        <ele>510.180912</ele>
        <time>2022-03-08T09:40:15.719Z</time>
      </trkpt>
      <trkpt lat="42.59948" lon="24.01064">
        <ele>510.250668</ele>
        <time>2022-03-08T09:40:18.799Z</time>
      </trkpt>
      <trkpt lat="42.59947" lon="24.01077">
        <ele>510.318832</ele>
        <time>2022-03-08T09:40:21.705Z</time>
      </trkpt>
      <trkpt lat="42.59946" lon="24.01092">
        <ele>510.401641</ele>
        <time>2022-03-08T09:40:25.722Z</time>
      </trkpt>
      <trkpt lat="42.59942" lon="24.01108">
        <ele>510.487055</ele>
        <time>2022-03-08T09:40:29.730Z</time>
      </trkpt>
      <trkpt lat="42.5994" lon="24.01122">
        <ele>510.566088</ele>
        <time>2022-03-08T09:40:33.722Z</time>
      </trkpt>
      <trkpt lat="42.5994" lon="24.01136">
        <ele>510.638941</ele>
        <time>2022-03-08T09:40:38.717Z</time>
      </trkpt>
      <trkpt lat="42.59939" lon="24.01148">
        <ele>510.497966</ele>
        <time>2022-03-08T09:40:43.774Z</time>
      </trkpt>
      <trkpt lat="42.59931" lon="24.01133">
        <ele>510.233375</ele>
        <time>2022-03-08T09:44:48.731Z</time>
      </trkpt>
      <trkpt lat="42.59952" lon="24.01142">
        <ele>509.822902</ele>
        <time>2022-03-08T09:59:49.767Z</time>
      </trkpt>
      <trkpt lat="42.59946" lon="24.01113">
        <ele>509.398833</ele>
        <time>2022-03-08T10:04:00.736Z</time>
      </trkpt>
      <trkpt lat="42.5995" lon="24.01099">
        <ele>509.195272</ele>
        <time>2022-03-08T10:04:04.744Z</time>
      </trkpt>
      <trkpt lat="42.59953" lon="24.01087">
        <ele>509.022044</ele>
        <time>2022-03-08T10:04:07.733Z</time>
      </trkpt>
      <trkpt lat="42.59957" lon="24.01075">
        <ele>508.833825</ele>
        <time>2022-03-08T10:04:10.817Z</time>
      </trkpt>
      <trkpt lat="42.59959" lon="24.01063">
        <ele>508.658464</ele>
        <time>2022-03-08T10:04:13.739Z</time>
      </trkpt>
      <trkpt lat="42.59958" lon="24.01049">
        <ele>508.468317</ele>
        <time>2022-03-08T10:04:16.740Z</time>
      </trkpt>
      <trkpt lat="42.59957" lon="24.01035">
        <ele>508.267407</ele>
        <time>2022-03-08T10:04:20.735Z</time>
      </trkpt>
      <trkpt lat="42.59957" lon="24.01021">
        <ele>508.075861</ele>
        <time>2022-03-08T10:04:25.765Z</time>
      </trkpt>
      <trkpt lat="42.59956" lon="24.01007">
        <ele>507.871717</ele>
        <time>2022-03-08T10:04:31.783Z</time>
      </trkpt>
      <trkpt lat="42.59954" lon="24.00993">
        <ele>507.670734</ele>
        <time>2022-03-08T10:04:37.730Z</time>
      </trkpt>
      <trkpt lat="42.59954" lon="24.0098">
        <ele>507.483921</ele>
        <time>2022-03-08T10:04:42.755Z</time>
      </trkpt>
      <trkpt lat="42.59961" lon="24.00969">
        <ele>507.282503</ele>
        <time>2022-03-08T10:04:46.722Z</time>
      </trkpt>
      <trkpt lat="42.59968" lon="24.00962">
        <ele>507.467414</ele>
        <time>2022-03-08T10:04:50.725Z</time>
      </trkpt>
      <trkpt lat="42.59976" lon="24.00955">
        <ele>507.876664</ele>
        <time>2022-03-08T10:04:55.729Z</time>
      </trkpt>
      <trkpt lat="42.59983" lon="24.00946">
        <ele>508.278678</ele>
        <time>2022-03-08T10:04:59.728Z</time>
      </trkpt>
      <trkpt lat="42.59991" lon="24.00936">
        <ele>508.736497</ele>
        <time>2022-03-08T10:05:03.740Z</time>
      </trkpt>
      <trkpt lat="42.59999" lon="24.00927">
        <ele>509.209481</ele>
        <time>2022-03-08T10:05:07.737Z</time>
      </trkpt>
      <trkpt lat="42.60006" lon="24.00916">
        <ele>509.655727</ele>
        <time>2022-03-08T10:05:11.754Z</time>
      </trkpt>
      <trkpt lat="42.60014" lon="24.00905">
        <ele>510.135948</ele>
        <time>2022-03-08T10:05:15.777Z</time>
      </trkpt>
      <trkpt lat="42.6002" lon="24.00896">
        <ele>510.542574</ele>
        <time>2022-03-08T10:05:18.721Z</time>
      </trkpt>
      <trkpt lat="42.60027" lon="24.00888">
        <ele>510.938257</ele>
        <time>2022-03-08T10:05:21.735Z</time>
      </trkpt>
      <trkpt lat="42.60034" lon="24.0088">
        <ele>511.3513</ele>
        <time>2022-03-08T10:05:24.716Z</time>
      </trkpt>
      <trkpt lat="42.60041" lon="24.00868">
        <ele>511.826233</ele>
        <time>2022-03-08T10:05:28.746Z</time>
      </trkpt>
      <trkpt lat="42.60049" lon="24.00857">
        <ele>512.333325</ele>
        <time>2022-03-08T10:05:32.740Z</time>
      </trkpt>
      <trkpt lat="42.60056" lon="24.00848">
        <ele>512.746166</ele>
        <time>2022-03-08T10:05:35.721Z</time>
      </trkpt>
      <trkpt lat="42.60064" lon="24.0084">
        <ele>513.182936</ele>
        <time>2022-03-08T10:05:38.734Z</time>
      </trkpt>
      <trkpt lat="42.60076" lon="24.00837">
        <ele>513.67781</ele>
        <time>2022-03-08T10:05:42.735Z</time>
      </trkpt>
      <trkpt lat="42.60086" lon="24.00842">
        <ele>514.144138</ele>
        <time>2022-03-08T10:05:46.733Z</time>
      </trkpt>
      <trkpt lat="42.60094" lon="24.00852">
        <ele>514.632987</ele>
        <time>2022-03-08T10:05:50.736Z</time>
      </trkpt>
      <trkpt lat="42.601" lon="24.00863">
        <ele>515.102832</ele>
        <time>2022-03-08T10:05:54.733Z</time>
      </trkpt>
      <trkpt lat="42.60102" lon="24.00878">
        <ele>516.152558</ele>
        <time>2022-03-08T10:05:59.735Z</time>
      </trkpt>
      <trkpt lat="42.601" lon="24.0089">
        <ele>517.069446</ele>
        <time>2022-03-08T10:06:04.755Z</time>
      </trkpt>
      <trkpt lat="42.601" lon="24.00905">
        <ele>518.106718</ele>
        <time>2022-03-08T10:06:10.731Z</time>
      </trkpt>
      <trkpt lat="42.60098" lon="24.00918">
        <ele>519.075517</ele>
        <time>2022-03-08T10:06:16.746Z</time>
      </trkpt>
      <trkpt lat="42.60098" lon="24.00932">
        <ele>520.048071</ele>
        <time>2022-03-08T10:06:22.731Z</time>
      </trkpt>
      <trkpt lat="42.60097" lon="24.00945">
        <ele>521.02296</ele>
        <time>2022-03-08T10:06:28.726Z</time>
      </trkpt>
      <trkpt lat="42.60095" lon="24.00957">
        <ele>521.907269</ele>
        <time>2022-03-08T10:06:34.758Z</time>
      </trkpt>
      <trkpt lat="42.60093" lon="24.0097">
        <ele>522.851426</ele>
        <time>2022-03-08T10:06:41.739Z</time>
      </trkpt>
      <trkpt lat="42.60094" lon="24.00983">
        <ele>523.748493</ele>
        <time>2022-03-08T10:06:49.731Z</time>
      </trkpt>
      <trkpt lat="42.601" lon="24.00993">
        <ele>524.658902</ele>
        <time>2022-03-08T10:06:56.734Z</time>
      </trkpt>
      <trkpt lat="42.60107" lon="24.01003">
        <ele>525.66276</ele>
        <time>2022-03-08T10:07:03.719Z</time>
      </trkpt>
      <trkpt lat="42.60115" lon="24.0101">
        <ele>526.552666</ele>
        <time>2022-03-08T10:07:09.746Z</time>
      </trkpt>
      <trkpt lat="42.60123" lon="24.01014">
        <ele>527.431329</ele>
        <time>2022-03-08T10:07:15.737Z</time>
      </trkpt>
      <trkpt lat="42.60132" lon="24.01017">
        <ele>528.350457</ele>
        <time>2022-03-08T10:07:21.733Z</time>
      </trkpt>
      <trkpt lat="42.60142" lon="24.01019">
        <ele>529.270071</ele>
        <time>2022-03-08T10:07:27.724Z</time>
      </trkpt>
      <trkpt lat="42.60151" lon="24.01024">
        <ele>530.212926</ele>
        <time>2022-03-08T10:07:33.732Z</time>
      </trkpt>
      <trkpt lat="42.6016" lon="24.0103">
        <ele>531.210589</ele>
        <time>2022-03-08T10:07:39.759Z</time>
      </trkpt>
      <trkpt lat="42.60169" lon="24.01036">
        <ele>532.226597</ele>
        <time>2022-03-08T10:07:45.767Z</time>
      </trkpt>
      <trkpt lat="42.60178" lon="24.01041">
        <ele>532.724636</ele>
        <time>2022-03-08T10:07:50.756Z</time>
      </trkpt>
      <trkpt lat="42.60187" lon="24.01048">
        <ele>533.054104</ele>
        <time>2022-03-08T10:07:55.735Z</time>
      </trkpt>
      <trkpt lat="42.60194" lon="24.01056">
        <ele>533.373042</ele>
        <time>2022-03-08T10:08:00.747Z</time>
      </trkpt>
      <trkpt lat="42.60202" lon="24.01063">
        <ele>533.68741</ele>
        <time>2022-03-08T10:08:04.739Z</time>
      </trkpt>
      <trkpt lat="42.60211" lon="24.0107">
        <ele>534.028094</ele>
        <time>2022-03-08T10:08:08.799Z</time>
      </trkpt>
      <trkpt lat="42.60219" lon="24.01076">
        <ele>534.356024</ele>
        <time>2022-03-08T10:08:12.732Z</time>
      </trkpt>
      <trkpt lat="42.60228" lon="24.01081">
        <ele>534.695005</ele>
        <time>2022-03-08T10:08:16.743Z</time>
      </trkpt>
      <trkpt lat="42.60237" lon="24.01089">
        <ele>535.038178</ele>
        <time>2022-03-08T10:08:20.740Z</time>
      </trkpt>
      <trkpt lat="42.60245" lon="24.01096">
        <ele>535.37717</ele>
        <time>2022-03-08T10:08:24.769Z</time>
      </trkpt>
      <trkpt lat="42.60254" lon="24.01104">
        <ele>535.733017</ele>
        <time>2022-03-08T10:08:28.742Z</time>
      </trkpt>
      <trkpt lat="42.60262" lon="24.01114">
        <ele>536.100569</ele>
        <time>2022-03-08T10:08:32.740Z</time>
      </trkpt>
      <trkpt lat="42.60268" lon="24.01124">
        <ele>536.41051</ele>
        <time>2022-03-08T10:08:36.721Z</time>
      </trkpt>
      <trkpt lat="42.60273" lon="24.01136">
        <ele>536.755125</ele>
        <time>2022-03-08T10:08:41.746Z</time>
      </trkpt>
      <trkpt lat="42.60278" lon="24.01149">
        <ele>537.116159</ele>
        <time>2022-03-08T10:08:46.772Z</time>
      </trkpt>
      <trkpt lat="42.60284" lon="24.01161">
        <ele>537.486604</ele>
        <time>2022-03-08T10:08:51.740Z</time>
      </trkpt>
      <trkpt lat="42.6029" lon="24.01172">
        <ele>537.816495</ele>
        <time>2022-03-08T10:08:55.727Z</time>
      </trkpt>
      <trkpt lat="42.60294" lon="24.01183">
        <ele>538.122918</ele>
        <time>2022-03-08T10:08:59.734Z</time>
      </trkpt>
      <trkpt lat="42.60298" lon="24.01195">
        <ele>538.464896</ele>
        <time>2022-03-08T10:09:04.741Z</time>
      </trkpt>
      <trkpt lat="42.60301" lon="24.01209">
        <ele>538.381379</ele>
        <time>2022-03-08T10:09:09.737Z</time>
      </trkpt>
      <trkpt lat="42.60306" lon="24.01223">
        <ele>538.127548</ele>
        <time>2022-03-08T10:09:14.780Z</time>
      </trkpt>
      <trkpt lat="42.60311" lon="24.01233">
        <ele>537.912094</ele>
        <time>2022-03-08T10:09:18.738Z</time>
      </trkpt>
      <trkpt lat="42.60315" lon="24.01244">
        <ele>537.703583</ele>
        <time>2022-03-08T10:09:22.743Z</time>
      </trkpt>
      <trkpt lat="42.60318" lon="24.01256">
        <ele>537.494032</ele>
        <time>2022-03-08T10:09:26.737Z</time>
      </trkpt>
      <trkpt lat="42.60323" lon="24.01268">
        <ele>537.253892</ele>
        <time>2022-03-08T10:09:31.767Z</time>
      </trkpt>
      <trkpt lat="42.60327" lon="24.01281">
        <ele>537.015351</ele>
        <time>2022-03-08T10:09:35.734Z</time>
      </trkpt>
      <trkpt lat="42.60334" lon="24.0129">
        <ele>536.794479</ele>
        <time>2022-03-08T10:09:39.738Z</time>
      </trkpt>
      <trkpt lat="42.60343" lon="24.01298">
        <ele>536.54946</ele>
        <time>2022-03-08T10:09:43.728Z</time>
      </trkpt>
      <trkpt lat="42.60352" lon="24.01303">
        <ele>536.318638</ele>
        <time>2022-03-08T10:09:47.733Z</time>
      </trkpt>
      <trkpt lat="42.60361" lon="24.01306">
        <ele>536.103786</ele>
        <time>2022-03-08T10:09:51.727Z</time>
      </trkpt>
      <trkpt lat="42.6037" lon="24.01308">
        <ele>535.890736</ele>
        <time>2022-03-08T10:09:55.737Z</time>
      </trkpt>
      <trkpt lat="42.6038" lon="24.01308">
        <ele>535.675524</ele>
        <time>2022-03-08T10:09:59.737Z</time>
      </trkpt>
      <trkpt lat="42.60391" lon="24.01307">
        <ele>535.404012</ele>
        <time>2022-03-08T10:10:03.726Z</time>
      </trkpt>
      <trkpt lat="42.60402" lon="24.01307">
        <ele>535.156357</ele>
        <time>2022-03-08T10:10:06.744Z</time>
      </trkpt>
      <trkpt lat="42.60415" lon="24.01305">
        <ele>534.848021</ele>
        <time>2022-03-08T10:10:09.735Z</time>
      </trkpt>
      <trkpt lat="42.60425" lon="24.01304">
        <ele>534.610421</ele>
        <time>2022-03-08T10:10:11.750Z</time>
      </trkpt>
      <trkpt lat="42.60437" lon="24.01303">
        <ele>534.365928</ele>
        <time>2022-03-08T10:10:13.735Z</time>
      </trkpt>
      <trkpt lat="42.60448" lon="24.01304">
        <ele>534.172022</ele>
        <time>2022-03-08T10:10:15.774Z</time>
      </trkpt>
      <trkpt lat="42.6046" lon="24.01304">
        <ele>533.979708</ele>
        <time>2022-03-08T10:10:17.725Z</time>
      </trkpt>
      <trkpt lat="42.60473" lon="24.01303">
        <ele>533.762246</ele>
        <time>2022-03-08T10:10:19.746Z</time>
      </trkpt>
      <trkpt lat="42.60487" lon="24.01303">
        <ele>533.52809</ele>
        <time>2022-03-08T10:10:21.726Z</time>
      </trkpt>
      <trkpt lat="42.60501" lon="24.01302">
        <ele>533.293879</ele>
        <time>2022-03-08T10:10:23.740Z</time>
      </trkpt>
      <trkpt lat="42.60515" lon="24.01301">
        <ele>533.061337</ele>
        <time>2022-03-08T10:10:25.738Z</time>
      </trkpt>
      <trkpt lat="42.60527" lon="24.01301">
        <ele>532.859138</ele>
        <time>2022-03-08T10:10:27.732Z</time>
      </trkpt>
      <trkpt lat="42.60538" lon="24.01301">
        <ele>532.666949</ele>
        <time>2022-03-08T10:10:29.736Z</time>
      </trkpt>
      <trkpt lat="42.60549" lon="24.013">
        <ele>532.49138</ele>
        <time>2022-03-08T10:10:31.740Z</time>
      </trkpt>
      <trkpt lat="42.60559" lon="24.013">
        <ele>532.324232</ele>
        <time>2022-03-08T10:10:33.746Z</time>
      </trkpt>
      <trkpt lat="42.60571" lon="24.013">
        <ele>532.115334</ele>
        <time>2022-03-08T10:10:36.750Z</time>
      </trkpt>
      <trkpt lat="42.60583" lon="24.01298">
        <ele>531.917956</ele>
        <time>2022-03-08T10:10:39.731Z</time>
      </trkpt>
      <trkpt lat="42.60595" lon="24.01296">
        <ele>531.709811</ele>
        <time>2022-03-08T10:10:42.735Z</time>
      </trkpt>
      <trkpt lat="42.60607" lon="24.01295">
        <ele>531.505407</ele>
        <time>2022-03-08T10:10:45.751Z</time>
      </trkpt>
      <trkpt lat="42.60619" lon="24.01295">
        <ele>531.43684</ele>
        <time>2022-03-08T10:10:48.742Z</time>
      </trkpt>
      <trkpt lat="42.60631" lon="24.01294">
        <ele>531.542368</ele>
        <time>2022-03-08T10:10:51.733Z</time>
      </trkpt>
      <trkpt lat="42.60642" lon="24.01294">
        <ele>531.64601</ele>
        <time>2022-03-08T10:10:54.784Z</time>
      </trkpt>
      <trkpt lat="42.60653" lon="24.01294">
        <ele>531.742435</ele>
        <time>2022-03-08T10:10:57.724Z</time>
      </trkpt>
      <trkpt lat="42.60664" lon="24.01293">
        <ele>531.841775</ele>
        <time>2022-03-08T10:11:00.715Z</time>
      </trkpt>
      <trkpt lat="42.60675" lon="24.01291">
        <ele>531.942287</ele>
        <time>2022-03-08T10:11:03.741Z</time>
      </trkpt>
      <trkpt lat="42.60687" lon="24.0129">
        <ele>532.047115</ele>
        <time>2022-03-08T10:11:06.741Z</time>
      </trkpt>
      <trkpt lat="42.60698" lon="24.01289">
        <ele>532.145388</ele>
        <time>2022-03-08T10:11:09.758Z</time>
      </trkpt>
      <trkpt lat="42.60708" lon="24.01287">
        <ele>532.24201</ele>
        <time>2022-03-08T10:11:12.736Z</time>
      </trkpt>
      <trkpt lat="42.60719" lon="24.01285">
        <ele>532.338181</ele>
        <time>2022-03-08T10:11:15.747Z</time>
      </trkpt>
      <trkpt lat="42.60729" lon="24.01282">
        <ele>532.431694</ele>
        <time>2022-03-08T10:11:18.741Z</time>
      </trkpt>
      <trkpt lat="42.60738" lon="24.01278">
        <ele>532.521794</ele>
        <time>2022-03-08T10:11:21.744Z</time>
      </trkpt>
      <trkpt lat="42.60748" lon="24.01273">
        <ele>532.612999</ele>
        <time>2022-03-08T10:11:24.774Z</time>
      </trkpt>
      <trkpt lat="42.60757" lon="24.01267">
        <ele>532.708215</ele>
        <time>2022-03-08T10:11:27.778Z</time>
      </trkpt>
      <trkpt lat="42.60766" lon="24.01261">
        <ele>532.795831</ele>
        <time>2022-03-08T10:11:30.726Z</time>
      </trkpt>
      <trkpt lat="42.60775" lon="24.01255">
        <ele>532.884048</ele>
        <time>2022-03-08T10:11:33.736Z</time>
      </trkpt>
      <trkpt lat="42.60783" lon="24.01247">
        <ele>532.978363</ele>
        <time>2022-03-08T10:11:36.738Z</time>
      </trkpt>
      <trkpt lat="42.60792" lon="24.01239">
        <ele>533.031562</ele>
        <time>2022-03-08T10:11:39.713Z</time>
      </trkpt>
      <trkpt lat="42.608" lon="24.01232">
        <ele>533.060706</ele>
        <time>2022-03-08T10:11:42.745Z</time>
      </trkpt>
      <trkpt lat="42.6081" lon="24.01222">
        <ele>533.095011</ele>
        <time>2022-03-08T10:11:46.725Z</time>
      </trkpt>
      <trkpt lat="42.60818" lon="24.01215">
        <ele>533.123801</ele>
        <time>2022-03-08T10:11:49.780Z</time>
      </trkpt>
      <trkpt lat="42.60827" lon="24.01206">
        <ele>533.154146</ele>
        <time>2022-03-08T10:11:52.743Z</time>
      </trkpt>
      <trkpt lat="42.60835" lon="24.01199">
        <ele>533.182947</ele>
        <time>2022-03-08T10:11:55.737Z</time>
      </trkpt>
      <trkpt lat="42.60844" lon="24.01192">
        <ele>533.2133</ele>
        <time>2022-03-08T10:11:58.726Z</time>
      </trkpt>
      <trkpt lat="42.60852" lon="24.01184">
        <ele>533.242482</ele>
        <time>2022-03-08T10:12:01.724Z</time>
      </trkpt>
      <trkpt lat="42.6086" lon="24.01177">
        <ele>533.269707</ele>
        <time>2022-03-08T10:12:04.728Z</time>
      </trkpt>
      <trkpt lat="42.60868" lon="24.0117">
        <ele>533.297431</ele>
        <time>2022-03-08T10:12:07.726Z</time>
      </trkpt>
      <trkpt lat="42.60876" lon="24.01163">
        <ele>533.325376</ele>
        <time>2022-03-08T10:12:10.743Z</time>
      </trkpt>
      <trkpt lat="42.60884" lon="24.01156">
        <ele>533.352727</ele>
        <time>2022-03-08T10:12:13.738Z</time>
      </trkpt>
      <trkpt lat="42.60892" lon="24.01148">
        <ele>533.381032</ele>
        <time>2022-03-08T10:12:16.734Z</time>
      </trkpt>
      <trkpt lat="42.609" lon="24.01141">
        <ele>533.409101</ele>
        <time>2022-03-08T10:12:19.736Z</time>
      </trkpt>
      <trkpt lat="42.60908" lon="24.01134">
        <ele>533.436086</ele>
        <time>2022-03-08T10:12:22.767Z</time>
      </trkpt>
      <trkpt lat="42.60916" lon="24.01127">
        <ele>533.464415</ele>
        <time>2022-03-08T10:12:25.727Z</time>
      </trkpt>
      <trkpt lat="42.60924" lon="24.0112">
        <ele>533.492727</ele>
        <time>2022-03-08T10:12:28.735Z</time>
      </trkpt>
      <trkpt lat="42.60933" lon="24.01112">
        <ele>533.522117</ele>
        <time>2022-03-08T10:12:31.737Z</time>
      </trkpt>
      <trkpt lat="42.60942" lon="24.01105">
        <ele>533.571898</ele>
        <time>2022-03-08T10:12:34.738Z</time>
      </trkpt>
      <trkpt lat="42.60951" lon="24.01099">
        <ele>533.638684</ele>
        <time>2022-03-08T10:12:37.740Z</time>
      </trkpt>
      <trkpt lat="42.6096" lon="24.01093">
        <ele>533.705339</ele>
        <time>2022-03-08T10:12:40.734Z</time>
      </trkpt>
      <trkpt lat="42.60969" lon="24.01088">
        <ele>533.770094</ele>
        <time>2022-03-08T10:12:43.736Z</time>
      </trkpt>
      <trkpt lat="42.60978" lon="24.01082">
        <ele>533.829674</ele>
        <time>2022-03-08T10:12:46.739Z</time>
      </trkpt>
      <trkpt lat="42.60986" lon="24.01077">
        <ele>533.890814</ele>
        <time>2022-03-08T10:12:49.738Z</time>
      </trkpt>
      <trkpt lat="42.60995" lon="24.01071">
        <ele>533.954117</ele>
        <time>2022-03-08T10:12:52.744Z</time>
      </trkpt>
      <trkpt lat="42.61005" lon="24.01068">
        <ele>534.019219</ele>
        <time>2022-03-08T10:12:55.778Z</time>
      </trkpt>
      <trkpt lat="42.61014" lon="24.01065">
        <ele>534.078705</ele>
        <time>2022-03-08T10:12:58.725Z</time>
      </trkpt>
      <trkpt lat="42.61023" lon="24.01061">
        <ele>534.144433</ele>
        <time>2022-03-08T10:13:01.746Z</time>
      </trkpt>
      <trkpt lat="42.61034" lon="24.01056">
        <ele>534.213868</ele>
        <time>2022-03-08T10:13:04.726Z</time>
      </trkpt>
      <trkpt lat="42.61043" lon="24.01052">
        <ele>534.280399</ele>
        <time>2022-03-08T10:13:07.725Z</time>
      </trkpt>
      <trkpt lat="42.61053" lon="24.01047">
        <ele>534.349064</ele>
        <time>2022-03-08T10:13:10.748Z</time>
      </trkpt>
      <trkpt lat="42.61062" lon="24.01043">
        <ele>534.408529</ele>
        <time>2022-03-08T10:13:13.736Z</time>
      </trkpt>
      <trkpt lat="42.61071" lon="24.01039">
        <ele>534.470012</ele>
        <time>2022-03-08T10:13:16.739Z</time>
      </trkpt>
      <trkpt lat="42.6108" lon="24.01033">
        <ele>534.535477</ele>
        <time>2022-03-08T10:13:19.762Z</time>
      </trkpt>
      <trkpt lat="42.61089" lon="24.01026">
        <ele>534.603284</ele>
        <time>2022-03-08T10:13:22.737Z</time>
      </trkpt>
      <trkpt lat="42.61099" lon="24.01019">
        <ele>534.672994</ele>
        <time>2022-03-08T10:13:25.723Z</time>
      </trkpt>
      <trkpt lat="42.61108" lon="24.01011">
        <ele>534.738546</ele>
        <time>2022-03-08T10:13:28.732Z</time>
      </trkpt>
      <trkpt lat="42.61118" lon="24.01003">
        <ele>534.803165</ele>
        <time>2022-03-08T10:13:31.733Z</time>
      </trkpt>
      <trkpt lat="42.61128" lon="24.00995">
        <ele>534.873704</ele>
        <time>2022-03-08T10:13:34.726Z</time>
      </trkpt>
      <trkpt lat="42.61139" lon="24.00986">
        <ele>534.942448</ele>
        <time>2022-03-08T10:13:37.737Z</time>
      </trkpt>
      <trkpt lat="42.61148" lon="24.00977">
        <ele>535.006661</ele>
        <time>2022-03-08T10:13:40.738Z</time>
      </trkpt>
      <trkpt lat="42.61158" lon="24.00968">
        <ele>535.073945</ele>
        <time>2022-03-08T10:13:43.723Z</time>
      </trkpt>
      <trkpt lat="42.61168" lon="24.0096">
        <ele>535.140678</ele>
        <time>2022-03-08T10:13:46.745Z</time>
      </trkpt>
      <trkpt lat="42.61178" lon="24.00952">
        <ele>535.210936</ele>
        <time>2022-03-08T10:13:49.779Z</time>
      </trkpt>
      <trkpt lat="42.61188" lon="24.00943">
        <ele>535.275866</ele>
        <time>2022-03-08T10:13:52.755Z</time>
      </trkpt>
      <trkpt lat="42.61196" lon="24.00935">
        <ele>535.33418</ele>
        <time>2022-03-08T10:13:55.739Z</time>
      </trkpt>
      <trkpt lat="42.61204" lon="24.00928">
        <ele>535.391077</ele>
        <time>2022-03-08T10:13:58.741Z</time>
      </trkpt>
      <trkpt lat="42.61214" lon="24.0092">
        <ele>535.453948</ele>
        <time>2022-03-08T10:14:01.743Z</time>
      </trkpt>
      <trkpt lat="42.61225" lon="24.00912">
        <ele>535.523763</ele>
        <time>2022-03-08T10:14:04.767Z</time>
      </trkpt>
      <trkpt lat="42.61235" lon="24.00904">
        <ele>535.590434</ele>
        <time>2022-03-08T10:14:07.735Z</time>
      </trkpt>
      <trkpt lat="42.61244" lon="24.00896">
        <ele>535.654559</ele>
        <time>2022-03-08T10:14:10.736Z</time>
      </trkpt>
      <trkpt lat="42.61254" lon="24.00889">
        <ele>535.716782</ele>
        <time>2022-03-08T10:14:13.736Z</time>
      </trkpt>
      <trkpt lat="42.61263" lon="24.00881">
        <ele>535.89735</ele>
        <time>2022-03-08T10:14:16.736Z</time>
      </trkpt>
      <trkpt lat="42.61271" lon="24.00873">
        <ele>536.099869</ele>
        <time>2022-03-08T10:14:19.735Z</time>
      </trkpt>
      <trkpt lat="42.6128" lon="24.00863">
        <ele>536.316869</ele>
        <time>2022-03-08T10:14:22.736Z</time>
      </trkpt>
      <trkpt lat="42.61288" lon="24.00852">
        <ele>536.523507</ele>
        <time>2022-03-08T10:14:25.786Z</time>
      </trkpt>
      <trkpt lat="42.61295" lon="24.00842">
        <ele>536.726259</ele>
        <time>2022-03-08T10:14:28.740Z</time>
      </trkpt>
      <trkpt lat="42.61301" lon="24.00831">
        <ele>536.919351</ele>
        <time>2022-03-08T10:14:31.731Z</time>
      </trkpt>
      <trkpt lat="42.61308" lon="24.0082">
        <ele>537.126318</ele>
        <time>2022-03-08T10:14:34.742Z</time>
      </trkpt>
      <trkpt lat="42.61313" lon="24.00807">
        <ele>537.330846</ele>
        <time>2022-03-08T10:14:37.764Z</time>
      </trkpt>
      <trkpt lat="42.6132" lon="24.00795">
        <ele>537.547459</ele>
        <time>2022-03-08T10:14:40.736Z</time>
      </trkpt>
      <trkpt lat="42.61326" lon="24.00783">
        <ele>537.74819</ele>
        <time>2022-03-08T10:14:43.737Z</time>
      </trkpt>
      <trkpt lat="42.61333" lon="24.00772">
        <ele>537.954489</ele>
        <time>2022-03-08T10:14:46.740Z</time>
      </trkpt>
      <trkpt lat="42.61339" lon="24.0076">
        <ele>538.162096</ele>
        <time>2022-03-08T10:14:49.737Z</time>
      </trkpt>
      <trkpt lat="42.61346" lon="24.00749">
        <ele>538.363934</ele>
        <time>2022-03-08T10:14:52.739Z</time>
      </trkpt>
      <trkpt lat="42.61352" lon="24.00739">
        <ele>538.550643</ele>
        <time>2022-03-08T10:14:55.743Z</time>
      </trkpt>
      <trkpt lat="42.6136" lon="24.00729">
        <ele>538.746875</ele>
        <time>2022-03-08T10:14:58.783Z</time>
      </trkpt>
      <trkpt lat="42.61366" lon="24.00719">
        <ele>538.93719</ele>
        <time>2022-03-08T10:15:01.744Z</time>
      </trkpt>
      <trkpt lat="42.61373" lon="24.0071">
        <ele>539.113784</ele>
        <time>2022-03-08T10:15:04.743Z</time>
      </trkpt>
      <trkpt lat="42.61378" lon="24.007">
        <ele>539.184786</ele>
        <time>2022-03-08T10:15:07.745Z</time>
      </trkpt>
      <trkpt lat="42.61385" lon="24.00691">
        <ele>539.212435</ele>
        <time>2022-03-08T10:15:10.742Z</time>
      </trkpt>
      <trkpt lat="42.61391" lon="24.00681">
        <ele>539.241268</ele>
        <time>2022-03-08T10:15:13.740Z</time>
      </trkpt>
      <trkpt lat="42.61398" lon="24.00672">
        <ele>539.269731</ele>
        <time>2022-03-08T10:15:16.754Z</time>
      </trkpt>
      <trkpt lat="42.61404" lon="24.00662">
        <ele>539.2982</ele>
        <time>2022-03-08T10:15:19.736Z</time>
      </trkpt>
      <trkpt lat="42.61411" lon="24.00653">
        <ele>539.324964</ele>
        <time>2022-03-08T10:15:22.723Z</time>
      </trkpt>
      <trkpt lat="42.61417" lon="24.00644">
        <ele>539.353427</ele>
        <time>2022-03-08T10:15:25.757Z</time>
      </trkpt>
      <trkpt lat="42.61424" lon="24.00634">
        <ele>539.38305</ele>
        <time>2022-03-08T10:15:28.739Z</time>
      </trkpt>
      <trkpt lat="42.6143" lon="24.00624">
        <ele>539.411022</ele>
        <time>2022-03-08T10:15:31.736Z</time>
      </trkpt>
      <trkpt lat="42.61436" lon="24.00614">
        <ele>539.439292</ele>
        <time>2022-03-08T10:15:34.744Z</time>
      </trkpt>
      <trkpt lat="42.61442" lon="24.00605">
        <ele>539.467395</ele>
        <time>2022-03-08T10:15:37.771Z</time>
      </trkpt>
      <trkpt lat="42.61449" lon="24.00595">
        <ele>539.496655</ele>
        <time>2022-03-08T10:15:40.818Z</time>
      </trkpt>
      <trkpt lat="42.61456" lon="24.00586">
        <ele>539.524812</ele>
        <time>2022-03-08T10:15:43.731Z</time>
      </trkpt>
      <trkpt lat="42.61462" lon="24.00576">
        <ele>539.552555</ele>
        <time>2022-03-08T10:15:46.736Z</time>
      </trkpt>
      <trkpt lat="42.6147" lon="24.00564">
        <ele>539.588102</ele>
        <time>2022-03-08T10:15:50.736Z</time>
      </trkpt>
      <trkpt lat="42.61476" lon="24.00554">
        <ele>539.615876</ele>
        <time>2022-03-08T10:15:53.735Z</time>
      </trkpt>
      <trkpt lat="42.61483" lon="24.00545">
        <ele>539.644817</ele>
        <time>2022-03-08T10:15:56.749Z</time>
      </trkpt>
      <trkpt lat="42.6149" lon="24.00535">
        <ele>539.674378</ele>
        <time>2022-03-08T10:15:59.800Z</time>
      </trkpt>
      <trkpt lat="42.61497" lon="24.00525">
        <ele>539.696459</ele>
        <time>2022-03-08T10:16:02.736Z</time>
      </trkpt>
      <trkpt lat="42.61503" lon="24.00515">
        <ele>539.673542</ele>
        <time>2022-03-08T10:16:05.749Z</time>
      </trkpt>
      <trkpt lat="42.61509" lon="24.00506">
        <ele>539.650729</ele>
        <time>2022-03-08T10:16:08.727Z</time>
      </trkpt>
      <trkpt lat="42.61516" lon="24.00497">
        <ele>539.626883</ele>
        <time>2022-03-08T10:16:11.740Z</time>
      </trkpt>
      <trkpt lat="42.61522" lon="24.00487">
        <ele>539.602905</ele>
        <time>2022-03-08T10:16:14.750Z</time>
      </trkpt>
      <trkpt lat="42.61528" lon="24.00477">
        <ele>539.579691</ele>
        <time>2022-03-08T10:16:17.742Z</time>
      </trkpt>
      <trkpt lat="42.61534" lon="24.00467">
        <ele>539.556057</ele>
        <time>2022-03-08T10:16:20.754Z</time>
      </trkpt>
      <trkpt lat="42.61539" lon="24.00455">
        <ele>539.530736</ele>
        <time>2022-03-08T10:16:23.730Z</time>
      </trkpt>
      <trkpt lat="42.61545" lon="24.00442">
        <ele>539.50404</ele>
        <time>2022-03-08T10:16:26.736Z</time>
      </trkpt>
      <trkpt lat="42.6155" lon="24.0043">
        <ele>539.478664</ele>
        <time>2022-03-08T10:16:29.726Z</time>
      </trkpt>
      <trkpt lat="42.61555" lon="24.00417">
        <ele>539.451302</ele>
        <time>2022-03-08T10:16:32.740Z</time>
      </trkpt>
      <trkpt lat="42.6156" lon="24.00404">
        <ele>539.424199</ele>
        <time>2022-03-08T10:16:35.743Z</time>
      </trkpt>
      <trkpt lat="42.61565" lon="24.00391">
        <ele>539.398827</ele>
        <time>2022-03-08T10:16:38.732Z</time>
      </trkpt>
      <trkpt lat="42.61569" lon="24.00379">
        <ele>539.374055</ele>
        <time>2022-03-08T10:16:41.736Z</time>
      </trkpt>
      <trkpt lat="42.61573" lon="24.00367">
        <ele>539.34955</ele>
        <time>2022-03-08T10:16:44.783Z</time>
      </trkpt>
      <trkpt lat="42.61577" lon="24.00354">
        <ele>539.325046</ele>
        <time>2022-03-08T10:16:47.732Z</time>
      </trkpt>
      <trkpt lat="42.61582" lon="24.0034">
        <ele>539.296032</ele>
        <time>2022-03-08T10:16:51.738Z</time>
      </trkpt>
      <trkpt lat="42.61586" lon="24.00328">
        <ele>539.272523</ele>
        <time>2022-03-08T10:16:54.736Z</time>
      </trkpt>
      <trkpt lat="42.6159" lon="24.00317">
        <ele>539.272564</ele>
        <time>2022-03-08T10:16:57.743Z</time>
      </trkpt>
      <trkpt lat="42.61594" lon="24.00305">
        <ele>539.349981</ele>
        <time>2022-03-08T10:17:00.722Z</time>
      </trkpt>
      <trkpt lat="42.61599" lon="24.00293">
        <ele>539.430593</ele>
        <time>2022-03-08T10:17:03.771Z</time>
      </trkpt>
      <trkpt lat="42.61603" lon="24.00279">
        <ele>539.519871</ele>
        <time>2022-03-08T10:17:06.738Z</time>
      </trkpt>
      <trkpt lat="42.61608" lon="24.00265">
        <ele>539.604579</ele>
        <time>2022-03-08T10:17:09.730Z</time>
      </trkpt>
      <trkpt lat="42.61613" lon="24.00251">
        <ele>539.692094</ele>
        <time>2022-03-08T10:17:12.739Z</time>
      </trkpt>
      <trkpt lat="42.61618" lon="24.00237">
        <ele>539.785663</ele>
        <time>2022-03-08T10:17:15.743Z</time>
      </trkpt>
      <trkpt lat="42.61624" lon="24.00224">
        <ele>539.874282</ele>
        <time>2022-03-08T10:17:18.739Z</time>
      </trkpt>
      <trkpt lat="42.6163" lon="24.00211">
        <ele>539.961881</ele>
        <time>2022-03-08T10:17:21.751Z</time>
      </trkpt>
      <trkpt lat="42.61637" lon="24.00199">
        <ele>540.051761</ele>
        <time>2022-03-08T10:17:24.736Z</time>
      </trkpt>
      <trkpt lat="42.61643" lon="24.00187">
        <ele>540.136483</ele>
        <time>2022-03-08T10:17:27.733Z</time>
      </trkpt>
      <trkpt lat="42.6165" lon="24.00174">
        <ele>540.228649</ele>
        <time>2022-03-08T10:17:30.735Z</time>
      </trkpt>
      <trkpt lat="42.61657" lon="24.00162">
        <ele>540.316164</ele>
        <time>2022-03-08T10:17:33.738Z</time>
      </trkpt>
      <trkpt lat="42.61665" lon="24.0015">
        <ele>540.407747</ele>
        <time>2022-03-08T10:17:36.732Z</time>
      </trkpt>
      <trkpt lat="42.61673" lon="24.0014">
        <ele>540.494868</ele>
        <time>2022-03-08T10:17:39.738Z</time>
      </trkpt>
      <trkpt lat="42.61681" lon="24.0013">
        <ele>540.580629</ele>
        <time>2022-03-08T10:17:42.741Z</time>
      </trkpt>
      <trkpt lat="42.61689" lon="24.00121">
        <ele>540.664997</ele>
        <time>2022-03-08T10:17:45.756Z</time>
      </trkpt>
      <trkpt lat="42.61698" lon="24.00112">
        <ele>540.784954</ele>
        <time>2022-03-08T10:17:48.742Z</time>
      </trkpt>
      <trkpt lat="42.61704" lon="24.00101">
        <ele>540.899384</ele>
        <time>2022-03-08T10:17:51.780Z</time>
      </trkpt>
      <trkpt lat="42.61711" lon="24.0009">
        <ele>541.017584</ele>
        <time>2022-03-08T10:17:54.734Z</time>
      </trkpt>
      <trkpt lat="42.61716" lon="24.00078">
        <ele>541.131207</ele>
        <time>2022-03-08T10:17:57.741Z</time>
      </trkpt>
      <trkpt lat="42.61721" lon="24.00065">
        <ele>541.256154</ele>
        <time>2022-03-08T10:18:00.738Z</time>
      </trkpt>
      <trkpt lat="42.61726" lon="24.00052">
        <ele>541.380718</ele>
        <time>2022-03-08T10:18:03.727Z</time>
      </trkpt>
      <trkpt lat="42.61731" lon="24.00039">
        <ele>541.499019</ele>
        <time>2022-03-08T10:18:06.737Z</time>
      </trkpt>
      <trkpt lat="42.61735" lon="24.00026">
        <ele>541.61732</ele>
        <time>2022-03-08T10:18:09.725Z</time>
      </trkpt>
      <trkpt lat="42.6174" lon="24.00013">
        <ele>541.739765</ele>
        <time>2022-03-08T10:18:12.739Z</time>
      </trkpt>
      <trkpt lat="42.61744" lon="24">
        <ele>541.858215</ele>
        <time>2022-03-08T10:18:15.752Z</time>
      </trkpt>
      <trkpt lat="42.6175" lon="23.99988">
        <ele>541.982165</ele>
        <time>2022-03-08T10:18:18.753Z</time>
      </trkpt>
      <trkpt lat="42.61758" lon="23.99974">
        <ele>542.12931</ele>
        <time>2022-03-08T10:18:21.742Z</time>
      </trkpt>
      <trkpt lat="42.61768" lon="23.99962">
        <ele>542.276741</ele>
        <time>2022-03-08T10:18:24.755Z</time>
      </trkpt>
      <trkpt lat="42.61779" lon="23.99953">
        <ele>542.420435</ele>
        <time>2022-03-08T10:18:27.739Z</time>
      </trkpt>
      <trkpt lat="42.61788" lon="23.99945">
        <ele>542.546982</ele>
        <time>2022-03-08T10:18:30.750Z</time>
      </trkpt>
      <trkpt lat="42.61799" lon="23.99939">
        <ele>542.67628</ele>
        <time>2022-03-08T10:18:33.744Z</time>
      </trkpt>
      <trkpt lat="42.61809" lon="23.99934">
        <ele>542.389839</ele>
        <time>2022-03-08T10:18:36.748Z</time>
      </trkpt>
      <trkpt lat="42.6182" lon="23.99931">
        <ele>541.978793</ele>
        <time>2022-03-08T10:18:39.733Z</time>
      </trkpt>
      <trkpt lat="42.6183" lon="23.99929">
        <ele>541.592695</ele>
        <time>2022-03-08T10:18:42.739Z</time>
      </trkpt>
      <trkpt lat="42.61842" lon="23.99927">
        <ele>541.127897</ele>
        <time>2022-03-08T10:18:45.732Z</time>
      </trkpt>
      <trkpt lat="42.61851" lon="23.99927">
        <ele>540.774717</ele>
        <time>2022-03-08T10:18:47.775Z</time>
      </trkpt>
      <trkpt lat="42.61861" lon="23.99928">
        <ele>540.406478</ele>
        <time>2022-03-08T10:18:49.746Z</time>
      </trkpt>
      <trkpt lat="42.61871" lon="23.99928">
        <ele>540.026918</ele>
        <time>2022-03-08T10:18:51.738Z</time>
      </trkpt>
      <trkpt lat="42.61882" lon="23.99928">
        <ele>539.628625</ele>
        <time>2022-03-08T10:18:53.734Z</time>
      </trkpt>
      <trkpt lat="42.61892" lon="23.99928">
        <ele>539.234117</ele>
        <time>2022-03-08T10:18:55.771Z</time>
      </trkpt>
      <trkpt lat="42.61902" lon="23.99928">
        <ele>538.858365</ele>
        <time>2022-03-08T10:18:57.743Z</time>
      </trkpt>
      <trkpt lat="42.61912" lon="23.99927">
        <ele>538.497416</ele>
        <time>2022-03-08T10:18:59.752Z</time>
      </trkpt>
      <trkpt lat="42.61922" lon="23.99926">
        <ele>538.108768</ele>
        <time>2022-03-08T10:19:01.743Z</time>
      </trkpt>
      <trkpt lat="42.61933" lon="23.99923">
        <ele>537.691989</ele>
        <time>2022-03-08T10:19:03.731Z</time>
      </trkpt>
      <trkpt lat="42.61945" lon="23.99919">
        <ele>537.240803</ele>
        <time>2022-03-08T10:19:05.718Z</time>
      </trkpt>
      <trkpt lat="42.61955" lon="23.99913">
        <ele>536.806958</ele>
        <time>2022-03-08T10:19:07.728Z</time>
      </trkpt>
      <trkpt lat="42.61966" lon="23.99906">
        <ele>536.373457</ele>
        <time>2022-03-08T10:19:09.768Z</time>
      </trkpt>
      <trkpt lat="42.61976" lon="23.999">
        <ele>535.965887</ele>
        <time>2022-03-08T10:19:11.735Z</time>
      </trkpt>
      <trkpt lat="42.61985" lon="23.99893">
        <ele>535.982312</ele>
        <time>2022-03-08T10:19:13.737Z</time>
      </trkpt>
      <trkpt lat="42.61993" lon="23.99888">
        <ele>536.015505</ele>
        <time>2022-03-08T10:19:15.783Z</time>
      </trkpt>
      <trkpt lat="42.62005" lon="23.99882">
        <ele>536.059949</ele>
        <time>2022-03-08T10:19:18.747Z</time>
      </trkpt>
      <trkpt lat="42.62014" lon="23.99875">
        <ele>536.099321</ele>
        <time>2022-03-08T10:19:21.738Z</time>
      </trkpt>
      <trkpt lat="42.62024" lon="23.99868">
        <ele>536.138956</ele>
        <time>2022-03-08T10:19:24.736Z</time>
      </trkpt>
      <trkpt lat="42.62034" lon="23.9986">
        <ele>536.182533</ele>
        <time>2022-03-08T10:19:27.745Z</time>
      </trkpt>
      <trkpt lat="42.62044" lon="23.99852">
        <ele>536.223641</ele>
        <time>2022-03-08T10:19:30.733Z</time>
      </trkpt>
      <trkpt lat="42.62055" lon="23.99845">
        <ele>536.265206</ele>
        <time>2022-03-08T10:19:33.739Z</time>
      </trkpt>
      <trkpt lat="42.62066" lon="23.99838">
        <ele>536.310494</ele>
        <time>2022-03-08T10:19:36.740Z</time>
      </trkpt>
      <trkpt lat="42.62077" lon="23.99831">
        <ele>536.354346</ele>
        <time>2022-03-08T10:19:39.745Z</time>
      </trkpt>
      <trkpt lat="42.62087" lon="23.99826">
        <ele>536.394016</ele>
        <time>2022-03-08T10:19:42.722Z</time>
      </trkpt>
      <trkpt lat="42.62098" lon="23.99821">
        <ele>536.435377</ele>
        <time>2022-03-08T10:19:45.739Z</time>
      </trkpt>
      <trkpt lat="42.62108" lon="23.99812">
        <ele>536.478338</ele>
        <time>2022-03-08T10:19:48.776Z</time>
      </trkpt>
      <trkpt lat="42.62115" lon="23.99801">
        <ele>536.516433</ele>
        <time>2022-03-08T10:19:51.734Z</time>
      </trkpt>
      <trkpt lat="42.62118" lon="23.99789">
        <ele>536.549442</ele>
        <time>2022-03-08T10:19:54.737Z</time>
      </trkpt>
      <trkpt lat="42.62119" lon="23.99775">
        <ele>536.588002</ele>
        <time>2022-03-08T10:19:58.738Z</time>
      </trkpt>
      <trkpt lat="42.62119" lon="23.99762">
        <ele>537.23405</ele>
        <time>2022-03-08T10:20:02.732Z</time>
      </trkpt>
      <trkpt lat="42.62119" lon="23.9975">
        <ele>538.116003</ele>
        <time>2022-03-08T10:20:06.739Z</time>
      </trkpt>
      <trkpt lat="42.6212" lon="23.99735">
        <ele>539.130187</ele>
        <time>2022-03-08T10:20:11.753Z</time>
      </trkpt>
      <trkpt lat="42.62119" lon="23.99722">
        <ele>540.012702</ele>
        <time>2022-03-08T10:20:16.771Z</time>
      </trkpt>
      <trkpt lat="42.62117" lon="23.9971">
        <ele>540.880572</ele>
        <time>2022-03-08T10:20:22.733Z</time>
      </trkpt>
      <trkpt lat="42.62117" lon="23.99697">
        <ele>541.834172</ele>
        <time>2022-03-08T10:20:29.747Z</time>
      </trkpt>
      <trkpt lat="42.62115" lon="23.99685">
        <ele>542.694154</ele>
        <time>2022-03-08T10:20:34.743Z</time>
      </trkpt>
      <trkpt lat="42.62112" lon="23.99672">
        <ele>543.624168</ele>
        <time>2022-03-08T10:20:40.741Z</time>
      </trkpt>
      <trkpt lat="42.6211" lon="23.9966">
        <ele>544.492039</ele>
        <time>2022-03-08T10:20:46.737Z</time>
      </trkpt>
      <trkpt lat="42.62108" lon="23.99646">
        <ele>545.474202</ele>
        <time>2022-03-08T10:20:53.736Z</time>
      </trkpt>
      <trkpt lat="42.62106" lon="23.99633">
        <ele>546.403954</ele>
        <time>2022-03-08T10:21:00.772Z</time>
      </trkpt>
      <trkpt lat="42.62105" lon="23.99618">
        <ele>547.449502</ele>
        <time>2022-03-08T10:21:06.745Z</time>
      </trkpt>
      <trkpt lat="42.62104" lon="23.99606">
        <ele>548.320404</ele>
        <time>2022-03-08T10:21:11.796Z</time>
      </trkpt>
      <trkpt lat="42.62103" lon="23.99592">
        <ele>549.258171</ele>
        <time>2022-03-08T10:21:17.740Z</time>
      </trkpt>
      <trkpt lat="42.62102" lon="23.99579">
        <ele>550.156046</ele>
        <time>2022-03-08T10:21:23.752Z</time>
      </trkpt>
      <trkpt lat="42.62102" lon="23.99566">
        <ele>551.099818</ele>
        <time>2022-03-08T10:21:29.723Z</time>
      </trkpt>
      <trkpt lat="42.62101" lon="23.99552">
        <ele>552.06605</ele>
        <time>2022-03-08T10:21:35.739Z</time>
      </trkpt>
      <trkpt lat="42.62102" lon="23.99538">
        <ele>553.077945</ele>
        <time>2022-03-08T10:21:41.744Z</time>
      </trkpt>
      <trkpt lat="42.62104" lon="23.99525">
        <ele>553.830279</ele>
        <time>2022-03-08T10:21:47.737Z</time>
      </trkpt>
      <trkpt lat="42.62107" lon="23.99512">
        <ele>554.246951</ele>
        <time>2022-03-08T10:21:54.746Z</time>
      </trkpt>
      <trkpt lat="42.62108" lon="23.99499">
        <ele>554.66583</ele>
        <time>2022-03-08T10:22:00.724Z</time>
      </trkpt>
      <trkpt lat="42.62109" lon="23.99487">
        <ele>555.070571</ele>
        <time>2022-03-08T10:22:05.740Z</time>
      </trkpt>
      <trkpt lat="42.62111" lon="23.99474">
        <ele>555.480052</ele>
        <time>2022-03-08T10:22:10.726Z</time>
      </trkpt>
      <trkpt lat="42.62114" lon="23.99461">
        <ele>555.929033</ele>
        <time>2022-03-08T10:22:16.744Z</time>
      </trkpt>
      <trkpt lat="42.62116" lon="23.99449">
        <ele>556.321951</ele>
        <time>2022-03-08T10:22:22.737Z</time>
      </trkpt>
      <trkpt lat="42.62117" lon="23.99436">
        <ele>556.726691</ele>
        <time>2022-03-08T10:22:28.731Z</time>
      </trkpt>
      <trkpt lat="42.62118" lon="23.99423">
        <ele>557.159904</ele>
        <time>2022-03-08T10:22:34.719Z</time>
      </trkpt>
      <trkpt lat="42.6212" lon="23.99409">
        <ele>557.617995</ele>
        <time>2022-03-08T10:22:40.736Z</time>
      </trkpt>
      <trkpt lat="42.62122" lon="23.99396">
        <ele>558.048107</ele>
        <time>2022-03-08T10:22:47.746Z</time>
      </trkpt>
      <trkpt lat="42.62123" lon="23.99382">
        <ele>558.473858</ele>
        <time>2022-03-08T10:22:54.743Z</time>
      </trkpt>
      <trkpt lat="42.62124" lon="23.99369">
        <ele>558.891832</ele>
        <time>2022-03-08T10:23:00.748Z</time>
      </trkpt>
      <trkpt lat="42.62124" lon="23.99355">
        <ele>559.352783</ele>
        <time>2022-03-08T10:23:06.736Z</time>
      </trkpt>
      <trkpt lat="42.62125" lon="23.99341">
        <ele>559.795063</ele>
        <time>2022-03-08T10:23:12.756Z</time>
      </trkpt>
      <trkpt lat="42.62125" lon="23.99327">
        <ele>560.250361</ele>
        <time>2022-03-08T10:23:18.733Z</time>
      </trkpt>
      <trkpt lat="42.62125" lon="23.99314">
        <ele>560.67939</ele>
        <time>2022-03-08T10:23:24.753Z</time>
      </trkpt>
      <trkpt lat="42.62125" lon="23.99301">
        <ele>561.083308</ele>
        <time>2022-03-08T10:23:30.734Z</time>
      </trkpt>
      <trkpt lat="42.62124" lon="23.99287">
        <ele>561.52006</ele>
        <time>2022-03-08T10:23:36.746Z</time>
      </trkpt>
      <trkpt lat="42.62122" lon="23.99274">
        <ele>561.912622</ele>
        <time>2022-03-08T10:23:42.742Z</time>
      </trkpt>
      <trkpt lat="42.62121" lon="23.99261">
        <ele>562.297224</ele>
        <time>2022-03-08T10:23:48.755Z</time>
      </trkpt>
      <trkpt lat="42.62119" lon="23.99249">
        <ele>562.668698</ele>
        <time>2022-03-08T10:23:53.731Z</time>
      </trkpt>
      <trkpt lat="42.62118" lon="23.99236">
        <ele>563.057975</ele>
        <time>2022-03-08T10:23:59.752Z</time>
      </trkpt>
      <trkpt lat="42.62119" lon="23.99222">
        <ele>563.45311</ele>
        <time>2022-03-08T10:24:05.736Z</time>
      </trkpt>
      <trkpt lat="42.62119" lon="23.99208">
        <ele>563.864606</ele>
        <time>2022-03-08T10:24:11.735Z</time>
      </trkpt>
      <trkpt lat="42.62118" lon="23.99196">
        <ele>564.226367</ele>
        <time>2022-03-08T10:24:17.734Z</time>
      </trkpt>
      <trkpt lat="42.62115" lon="23.99182">
        <ele>564.6593</ele>
        <time>2022-03-08T10:24:23.739Z</time>
      </trkpt>
      <trkpt lat="42.62114" lon="23.99168">
        <ele>565.071124</ele>
        <time>2022-03-08T10:24:28.749Z</time>
      </trkpt>
      <trkpt lat="42.62113" lon="23.99154">
        <ele>565.47033</ele>
        <time>2022-03-08T10:24:33.787Z</time>
      </trkpt>
      <trkpt lat="42.62111" lon="23.99142">
        <ele>565.8295</ele>
        <time>2022-03-08T10:24:38.745Z</time>
      </trkpt>
      <trkpt lat="42.6211" lon="23.99129">
        <ele>566.210745</ele>
        <time>2022-03-08T10:24:44.788Z</time>
      </trkpt>
      <trkpt lat="42.62109" lon="23.99117">
        <ele>566.591085</ele>
        <time>2022-03-08T10:24:49.736Z</time>
      </trkpt>
      <trkpt lat="42.62107" lon="23.99102">
        <ele>567.022022</ele>
        <time>2022-03-08T10:24:55.778Z</time>
      </trkpt>
      <trkpt lat="42.62106" lon="23.99087">
        <ele>567.458774</ele>
        <time>2022-03-08T10:25:00.736Z</time>
      </trkpt>
      <trkpt lat="42.62105" lon="23.99073">
        <ele>567.870948</ele>
        <time>2022-03-08T10:25:05.846Z</time>
      </trkpt>
      <trkpt lat="42.62104" lon="23.9906">
        <ele>568.268713</ele>
        <time>2022-03-08T10:25:10.726Z</time>
      </trkpt>
      <trkpt lat="42.62103" lon="23.99046">
        <ele>568.686369</ele>
        <time>2022-03-08T10:25:15.757Z</time>
      </trkpt>
      <trkpt lat="42.62103" lon="23.99033">
        <ele>568.435986</ele>
        <time>2022-03-08T10:25:20.748Z</time>
      </trkpt>
      <trkpt lat="42.62103" lon="23.9902">
        <ele>568.194178</ele>
        <time>2022-03-08T10:25:24.746Z</time>
      </trkpt>
      <trkpt lat="42.62103" lon="23.99006">
        <ele>567.925081</ele>
        <time>2022-03-08T10:25:28.778Z</time>
      </trkpt>
      <trkpt lat="42.62103" lon="23.98992">
        <ele>567.648035</ele>
        <time>2022-03-08T10:25:32.744Z</time>
      </trkpt>
      <trkpt lat="42.62104" lon="23.98977">
        <ele>567.353216</ele>
        <time>2022-03-08T10:25:36.753Z</time>
      </trkpt>
      <trkpt lat="42.62104" lon="23.98963">
        <ele>567.076259</ele>
        <time>2022-03-08T10:25:40.747Z</time>
      </trkpt>
      <trkpt lat="42.62105" lon="23.98948">
        <ele>566.788446</ele>
        <time>2022-03-08T10:25:44.764Z</time>
      </trkpt>
      <trkpt lat="42.62107" lon="23.98933">
        <ele>566.499465</ele>
        <time>2022-03-08T10:25:48.759Z</time>
      </trkpt>
      <trkpt lat="42.62109" lon="23.98922">
        <ele>566.260786</ele>
        <time>2022-03-08T10:25:51.748Z</time>
      </trkpt>
      <trkpt lat="42.62113" lon="23.98907">
        <ele>565.953996</ele>
        <time>2022-03-08T10:25:55.755Z</time>
      </trkpt>
      <trkpt lat="42.62116" lon="23.98895">
        <ele>565.706911</ele>
        <time>2022-03-08T10:25:58.740Z</time>
      </trkpt>
      <trkpt lat="42.62118" lon="23.98882">
        <ele>565.456668</ele>
        <time>2022-03-08T10:26:01.732Z</time>
      </trkpt>
      <trkpt lat="42.62122" lon="23.98869">
        <ele>565.169404</ele>
        <time>2022-03-08T10:26:04.744Z</time>
      </trkpt>
      <trkpt lat="42.62125" lon="23.98855">
        <ele>564.897611</ele>
        <time>2022-03-08T10:26:07.794Z</time>
      </trkpt>
      <trkpt lat="42.62128" lon="23.98843">
        <ele>564.643865</ele>
        <time>2022-03-08T10:26:10.726Z</time>
      </trkpt>
      <trkpt lat="42.62131" lon="23.98829">
        <ele>564.364677</ele>
        <time>2022-03-08T10:26:13.727Z</time>
      </trkpt>
      <trkpt lat="42.62134" lon="23.98814">
        <ele>564.048945</ele>
        <time>2022-03-08T10:26:16.743Z</time>
      </trkpt>
      <trkpt lat="42.62138" lon="23.98797">
        <ele>563.76233</ele>
        <time>2022-03-08T10:26:19.733Z</time>
      </trkpt>
      <trkpt lat="42.62142" lon="23.9878">
        <ele>563.487668</ele>
        <time>2022-03-08T10:26:22.758Z</time>
      </trkpt>
      <trkpt lat="42.62145" lon="23.98767">
        <ele>563.284361</ele>
        <time>2022-03-08T10:26:24.747Z</time>
      </trkpt>
      <trkpt lat="42.62148" lon="23.98753">
        <ele>563.060374</ele>
        <time>2022-03-08T10:26:26.752Z</time>
      </trkpt>
      <trkpt lat="42.62151" lon="23.98739">
        <ele>562.83027</ele>
        <time>2022-03-08T10:26:28.760Z</time>
      </trkpt>
      <trkpt lat="42.62155" lon="23.98725">
        <ele>562.605147</ele>
        <time>2022-03-08T10:26:30.730Z</time>
      </trkpt>
      <trkpt lat="42.62158" lon="23.9871">
        <ele>562.375351</ele>
        <time>2022-03-08T10:26:32.732Z</time>
      </trkpt>
      <trkpt lat="42.62162" lon="23.98696">
        <ele>562.144335</ele>
        <time>2022-03-08T10:26:34.750Z</time>
      </trkpt>
      <trkpt lat="42.62165" lon="23.98681">
        <ele>561.911873</ele>
        <time>2022-03-08T10:26:36.741Z</time>
      </trkpt>
      <trkpt lat="42.62168" lon="23.98666">
        <ele>561.677121</ele>
        <time>2022-03-08T10:26:38.742Z</time>
      </trkpt>
      <trkpt lat="42.62172" lon="23.98651">
        <ele>561.433054</ele>
        <time>2022-03-08T10:26:40.719Z</time>
      </trkpt>
      <trkpt lat="42.62175" lon="23.98634">
        <ele>561.173843</ele>
        <time>2022-03-08T10:26:42.751Z</time>
      </trkpt>
      <trkpt lat="42.62179" lon="23.98618">
        <ele>560.905801</ele>
        <time>2022-03-08T10:26:44.752Z</time>
      </trkpt>
      <trkpt lat="42.62183" lon="23.986">
        <ele>560.631348</ele>
        <time>2022-03-08T10:26:46.749Z</time>
      </trkpt>
      <trkpt lat="42.62187" lon="23.98584">
        <ele>560.362664</ele>
        <time>2022-03-08T10:26:48.736Z</time>
      </trkpt>
      <trkpt lat="42.62192" lon="23.98568">
        <ele>560.157447</ele>
        <time>2022-03-08T10:26:50.736Z</time>
      </trkpt>
      <trkpt lat="42.62195" lon="23.98552">
        <ele>560.027206</ele>
        <time>2022-03-08T10:26:52.739Z</time>
      </trkpt>
      <trkpt lat="42.62198" lon="23.98537">
        <ele>559.89774</ele>
        <time>2022-03-08T10:26:54.731Z</time>
      </trkpt>
      <trkpt lat="42.62201" lon="23.98521">
        <ele>559.769051</ele>
        <time>2022-03-08T10:26:56.744Z</time>
      </trkpt>
      <trkpt lat="42.62205" lon="23.98506">
        <ele>559.641771</ele>
        <time>2022-03-08T10:26:58.738Z</time>
      </trkpt>
      <trkpt lat="42.62208" lon="23.98491">
        <ele>559.514925</ele>
        <time>2022-03-08T10:27:00.739Z</time>
      </trkpt>
      <trkpt lat="42.62211" lon="23.98475">
        <ele>559.381325</ele>
        <time>2022-03-08T10:27:02.754Z</time>
      </trkpt>
      <trkpt lat="42.62213" lon="23.98459">
        <ele>559.247908</ele>
        <time>2022-03-08T10:27:04.755Z</time>
      </trkpt>
      <trkpt lat="42.62216" lon="23.98443">
        <ele>559.113525</ele>
        <time>2022-03-08T10:27:06.746Z</time>
      </trkpt>
      <trkpt lat="42.6222" lon="23.98427">
        <ele>558.980528</ele>
        <time>2022-03-08T10:27:08.741Z</time>
      </trkpt>
      <trkpt lat="42.62223" lon="23.98411">
        <ele>558.849389</ele>
        <time>2022-03-08T10:27:10.749Z</time>
      </trkpt>
      <trkpt lat="42.62226" lon="23.98394">
        <ele>558.708734</ele>
        <time>2022-03-08T10:27:12.743Z</time>
      </trkpt>
      <trkpt lat="42.6223" lon="23.98377">
        <ele>558.564118</ele>
        <time>2022-03-08T10:27:14.744Z</time>
      </trkpt>
      <trkpt lat="42.62234" lon="23.9836">
        <ele>558.419988</ele>
        <time>2022-03-08T10:27:16.743Z</time>
      </trkpt>
      <trkpt lat="42.62238" lon="23.98345">
        <ele>558.289068</ele>
        <time>2022-03-08T10:27:18.737Z</time>
      </trkpt>
      <trkpt lat="42.62241" lon="23.98329">
        <ele>558.307271</ele>
        <time>2022-03-08T10:27:20.746Z</time>
      </trkpt>
      <trkpt lat="42.62246" lon="23.98313">
        <ele>558.399612</ele>
        <time>2022-03-08T10:27:22.775Z</time>
      </trkpt>
      <trkpt lat="42.62249" lon="23.98298">
        <ele>558.487368</ele>
        <time>2022-03-08T10:27:24.762Z</time>
      </trkpt>
      <trkpt lat="42.62252" lon="23.98282">
        <ele>558.579276</ele>
        <time>2022-03-08T10:27:26.751Z</time>
      </trkpt>
      <trkpt lat="42.62256" lon="23.98266">
        <ele>558.674521</ele>
        <time>2022-03-08T10:27:28.747Z</time>
      </trkpt>
      <trkpt lat="42.6226" lon="23.98249">
        <ele>558.769605</ele>
        <time>2022-03-08T10:27:30.759Z</time>
      </trkpt>
      <trkpt lat="42.62263" lon="23.98234">
        <ele>558.859375</ele>
        <time>2022-03-08T10:27:32.743Z</time>
      </trkpt>
      <trkpt lat="42.62266" lon="23.98219">
        <ele>558.944436</ele>
        <time>2022-03-08T10:27:34.748Z</time>
      </trkpt>
      <trkpt lat="42.62269" lon="23.98205">
        <ele>559.026123</ele>
        <time>2022-03-08T10:27:36.760Z</time>
      </trkpt>
      <trkpt lat="42.62273" lon="23.98192">
        <ele>559.102998</ele>
        <time>2022-03-08T10:27:38.745Z</time>
      </trkpt>
      <trkpt lat="42.62278" lon="23.98179">
        <ele>559.179974</ele>
        <time>2022-03-08T10:27:40.785Z</time>
      </trkpt>
      <trkpt lat="42.62282" lon="23.98169">
        <ele>559.247831</ele>
        <time>2022-03-08T10:27:42.739Z</time>
      </trkpt>
      <trkpt lat="42.62285" lon="23.98157">
        <ele>559.316896</ele>
        <time>2022-03-08T10:27:44.757Z</time>
      </trkpt>
      <trkpt lat="42.62289" lon="23.98145">
        <ele>559.387647</ele>
        <time>2022-03-08T10:27:46.721Z</time>
      </trkpt>
      <trkpt lat="42.62293" lon="23.98128">
        <ele>559.488312</ele>
        <time>2022-03-08T10:27:49.747Z</time>
      </trkpt>
      <trkpt lat="42.62298" lon="23.98113">
        <ele>559.580652</ele>
        <time>2022-03-08T10:27:52.737Z</time>
      </trkpt>
      <trkpt lat="42.62301" lon="23.98098">
        <ele>559.666187</ele>
        <time>2022-03-08T10:27:55.757Z</time>
      </trkpt>
      <trkpt lat="42.62305" lon="23.98083">
        <ele>559.759657</ele>
        <time>2022-03-08T10:27:58.750Z</time>
      </trkpt>
      <trkpt lat="42.62309" lon="23.98068">
        <ele>559.847307</ele>
        <time>2022-03-08T10:28:01.750Z</time>
      </trkpt>
      <trkpt lat="42.62314" lon="23.98054">
        <ele>559.933905</ele>
        <time>2022-03-08T10:28:04.738Z</time>
      </trkpt>
      <trkpt lat="42.62317" lon="23.9804">
        <ele>560.016522</ele>
        <time>2022-03-08T10:28:07.740Z</time>
      </trkpt>
      <trkpt lat="42.62321" lon="23.98025">
        <ele>560.104734</ele>
        <time>2022-03-08T10:28:10.736Z</time>
      </trkpt>
      <trkpt lat="42.62326" lon="23.9801">
        <ele>560.196727</ele>
        <time>2022-03-08T10:28:13.771Z</time>
      </trkpt>
      <trkpt lat="42.62331" lon="23.97996">
        <ele>560.286862</ele>
        <time>2022-03-08T10:28:16.746Z</time>
      </trkpt>
      <trkpt lat="42.62335" lon="23.97981">
        <ele>560.376997</ele>
        <time>2022-03-08T10:28:19.727Z</time>
      </trkpt>
      <trkpt lat="42.62341" lon="23.97965">
        <ele>560.476005</ele>
        <time>2022-03-08T10:28:22.755Z</time>
      </trkpt>
      <trkpt lat="42.62346" lon="23.97949">
        <ele>560.57409</ele>
        <time>2022-03-08T10:28:25.751Z</time>
      </trkpt>
      <trkpt lat="42.62351" lon="23.97934">
        <ele>560.665469</ele>
        <time>2022-03-08T10:28:28.746Z</time>
      </trkpt>
      <trkpt lat="42.62354" lon="23.9792">
        <ele>560.74915</ele>
        <time>2022-03-08T10:28:31.747Z</time>
      </trkpt>
      <trkpt lat="42.62358" lon="23.97908">
        <ele>560.824829</ele>
        <time>2022-03-08T10:28:34.750Z</time>
      </trkpt>
      <trkpt lat="42.62363" lon="23.97895">
        <ele>560.905715</ele>
        <time>2022-03-08T10:28:37.748Z</time>
      </trkpt>
      <trkpt lat="42.62367" lon="23.97881">
        <ele>561.011224</ele>
        <time>2022-03-08T10:28:40.752Z</time>
      </trkpt>
      <trkpt lat="42.62372" lon="23.97867">
        <ele>561.200026</ele>
        <time>2022-03-08T10:28:43.754Z</time>
      </trkpt>
      <trkpt lat="42.62376" lon="23.97853">
        <ele>561.387836</ele>
        <time>2022-03-08T10:28:46.760Z</time>
      </trkpt>
      <trkpt lat="42.6238" lon="23.97838">
        <ele>561.580637</ele>
        <time>2022-03-08T10:28:49.737Z</time>
      </trkpt>
      <trkpt lat="42.62385" lon="23.97825">
        <ele>561.765616</ele>
        <time>2022-03-08T10:28:52.764Z</time>
      </trkpt>
      <trkpt lat="42.6239" lon="23.97813">
        <ele>561.933248</ele>
        <time>2022-03-08T10:28:55.735Z</time>
      </trkpt>
      <trkpt lat="42.62395" lon="23.97799">
        <ele>562.134199</ele>
        <time>2022-03-08T10:28:59.747Z</time>
      </trkpt>
      <trkpt lat="42.624" lon="23.97784">
        <ele>562.327906</ele>
        <time>2022-03-08T10:29:03.742Z</time>
      </trkpt>
      <trkpt lat="42.62404" lon="23.9777">
        <ele>562.519011</ele>
        <time>2022-03-08T10:29:07.767Z</time>
      </trkpt>
      <trkpt lat="42.62408" lon="23.97755">
        <ele>562.720532</ele>
        <time>2022-03-08T10:29:11.746Z</time>
      </trkpt>
      <trkpt lat="42.62412" lon="23.97743">
        <ele>562.879266</ele>
        <time>2022-03-08T10:29:14.747Z</time>
      </trkpt>
      <trkpt lat="42.62416" lon="23.9773">
        <ele>563.057598</ele>
        <time>2022-03-08T10:29:17.752Z</time>
      </trkpt>
      <trkpt lat="42.62419" lon="23.97718">
        <ele>563.211423</ele>
        <time>2022-03-08T10:29:20.742Z</time>
      </trkpt>
      <trkpt lat="42.62422" lon="23.97706">
        <ele>563.372179</ele>
        <time>2022-03-08T10:29:23.748Z</time>
      </trkpt>
      <trkpt lat="42.62426" lon="23.97694">
        <ele>563.52831</ele>
        <time>2022-03-08T10:29:26.746Z</time>
      </trkpt>
      <trkpt lat="42.6243" lon="23.97683">
        <ele>563.691003</ele>
        <time>2022-03-08T10:29:29.742Z</time>
      </trkpt>
      <trkpt lat="42.62435" lon="23.97672">
        <ele>563.845886</ele>
        <time>2022-03-08T10:29:32.747Z</time>
      </trkpt>
      <trkpt lat="42.62439" lon="23.97659">
        <ele>564.017888</ele>
        <time>2022-03-08T10:29:35.747Z</time>
      </trkpt>
      <trkpt lat="42.62442" lon="23.97647">
        <ele>564.151657</ele>
        <time>2022-03-08T10:29:38.755Z</time>
      </trkpt>
      <trkpt lat="42.62446" lon="23.97635">
        <ele>564.275204</ele>
        <time>2022-03-08T10:29:41.753Z</time>
      </trkpt>
      <trkpt lat="42.6245" lon="23.97624">
        <ele>564.399723</ele>
        <time>2022-03-08T10:29:44.747Z</time>
      </trkpt>
      <trkpt lat="42.62454" lon="23.97609">
        <ele>564.556084</ele>
        <time>2022-03-08T10:29:48.746Z</time>
      </trkpt>
      <trkpt lat="42.62458" lon="23.97598">
        <ele>564.679243</ele>
        <time>2022-03-08T10:29:51.732Z</time>
      </trkpt>
      <trkpt lat="42.62462" lon="23.97584">
        <ele>564.834677</ele>
        <time>2022-03-08T10:29:55.738Z</time>
      </trkpt>
      <trkpt lat="42.62466" lon="23.97571">
        <ele>564.971558</ele>
        <time>2022-03-08T10:29:59.756Z</time>
      </trkpt>
      <trkpt lat="42.6247" lon="23.9756">
        <ele>565.096732</ele>
        <time>2022-03-08T10:30:03.752Z</time>
      </trkpt>
      <trkpt lat="42.62474" lon="23.97549">
        <ele>565.220663</ele>
        <time>2022-03-08T10:30:07.757Z</time>
      </trkpt>
      <trkpt lat="42.62478" lon="23.97536">
        <ele>565.355539</ele>
        <time>2022-03-08T10:30:11.734Z</time>
      </trkpt>
      <trkpt lat="42.62481" lon="23.97524">
        <ele>565.486203</ele>
        <time>2022-03-08T10:30:15.744Z</time>
      </trkpt>
      <trkpt lat="42.62485" lon="23.97512">
        <ele>565.617671</ele>
        <time>2022-03-08T10:30:19.757Z</time>
      </trkpt>
      <trkpt lat="42.62489" lon="23.975">
        <ele>565.747964</ele>
        <time>2022-03-08T10:30:23.743Z</time>
      </trkpt>
      <trkpt lat="42.62492" lon="23.97489">
        <ele>565.871122</ele>
        <time>2022-03-08T10:30:27.750Z</time>
      </trkpt>
      <trkpt lat="42.62496" lon="23.97478">
        <ele>565.994477</ele>
        <time>2022-03-08T10:30:31.733Z</time>
      </trkpt>
      <trkpt lat="42.625" lon="23.97467">
        <ele>566.117197</ele>
        <time>2022-03-08T10:30:35.747Z</time>
      </trkpt>
      <trkpt lat="42.62505" lon="23.97454">
        <ele>566.261473</ele>
        <time>2022-03-08T10:30:40.747Z</time>
      </trkpt>
      <trkpt lat="42.62509" lon="23.9744">
        <ele>566.407687</ele>
        <time>2022-03-08T10:30:45.743Z</time>
      </trkpt>
      <trkpt lat="42.62513" lon="23.97427">
        <ele>566.763658</ele>
        <time>2022-03-08T10:30:50.751Z</time>
      </trkpt>
      <trkpt lat="42.62516" lon="23.97415">
        <ele>567.217608</ele>
        <time>2022-03-08T10:30:55.745Z</time>
      </trkpt>
      <trkpt lat="42.6252" lon="23.97402">
        <ele>567.706264</ele>
        <time>2022-03-08T10:31:00.733Z</time>
      </trkpt>
      <trkpt lat="42.62524" lon="23.97388">
        <ele>568.212276</ele>
        <time>2022-03-08T10:31:05.772Z</time>
      </trkpt>
      <trkpt lat="42.62528" lon="23.97375">
        <ele>568.713314</ele>
        <time>2022-03-08T10:31:10.749Z</time>
      </trkpt>
      <trkpt lat="42.62531" lon="23.97363">
        <ele>569.149666</ele>
        <time>2022-03-08T10:31:15.736Z</time>
      </trkpt>
      <trkpt lat="42.62534" lon="23.9735">
        <ele>569.620372</ele>
        <time>2022-03-08T10:31:20.750Z</time>
      </trkpt>
      <trkpt lat="42.62538" lon="23.97336">
        <ele>570.121409</ele>
        <time>2022-03-08T10:31:25.742Z</time>
      </trkpt>
      <trkpt lat="42.62542" lon="23.97324">
        <ele>570.595513</ele>
        <time>2022-03-08T10:31:30.749Z</time>
      </trkpt>
      <trkpt lat="42.62545" lon="23.9731">
        <ele>571.088487</ele>
        <time>2022-03-08T10:31:35.747Z</time>
      </trkpt>
      <trkpt lat="42.62548" lon="23.97296">
        <ele>571.592264</ele>
        <time>2022-03-08T10:31:40.751Z</time>
      </trkpt>
      <trkpt lat="42.6255" lon="23.97282">
        <ele>572.097976</ele>
        <time>2022-03-08T10:31:45.739Z</time>
      </trkpt>
      <trkpt lat="42.62552" lon="23.97267">
        <ele>572.602606</ele>
        <time>2022-03-08T10:31:50.764Z</time>
      </trkpt>
      <trkpt lat="42.62554" lon="23.97255">
        <ele>573.051976</ele>
        <time>2022-03-08T10:31:54.740Z</time>
      </trkpt>
      <trkpt lat="42.62556" lon="23.97242">
        <ele>573.482809</ele>
        <time>2022-03-08T10:31:58.761Z</time>
      </trkpt>
      <trkpt lat="42.62558" lon="23.9723">
        <ele>573.922414</ele>
        <time>2022-03-08T10:32:02.750Z</time>
      </trkpt>
      <trkpt lat="42.6256" lon="23.97216">
        <ele>574.406717</ele>
        <time>2022-03-08T10:32:07.743Z</time>
      </trkpt>
      <trkpt lat="42.62562" lon="23.97202">
        <ele>574.916209</ele>
        <time>2022-03-08T10:32:12.745Z</time>
      </trkpt>
      <trkpt lat="42.62565" lon="23.97187">
        <ele>575.348215</ele>
        <time>2022-03-08T10:32:17.776Z</time>
      </trkpt>
      <trkpt lat="42.62567" lon="23.97173">
        <ele>575.759816</ele>
        <time>2022-03-08T10:32:22.746Z</time>
      </trkpt>
      <trkpt lat="42.62569" lon="23.97159">
        <ele>576.164628</ele>
        <time>2022-03-08T10:32:27.731Z</time>
      </trkpt>
      <trkpt lat="42.62571" lon="23.97145">
        <ele>576.590185</ele>
        <time>2022-03-08T10:32:32.754Z</time>
      </trkpt>
      <trkpt lat="42.62573" lon="23.97131">
        <ele>576.992915</ele>
        <time>2022-03-08T10:32:37.749Z</time>
      </trkpt>
      <trkpt lat="42.62576" lon="23.97117">
        <ele>577.415679</ele>
        <time>2022-03-08T10:32:42.734Z</time>
      </trkpt>
      <trkpt lat="42.62578" lon="23.97104">
        <ele>577.800414</ele>
        <time>2022-03-08T10:32:47.758Z</time>
      </trkpt>
      <trkpt lat="42.6258" lon="23.97091">
        <ele>578.157478</ele>
        <time>2022-03-08T10:32:52.754Z</time>
      </trkpt>
      <trkpt lat="42.62584" lon="23.97078">
        <ele>578.564621</ele>
        <time>2022-03-08T10:32:58.757Z</time>
      </trkpt>
      <trkpt lat="42.62587" lon="23.97066">
        <ele>578.920727</ele>
        <time>2022-03-08T10:33:03.749Z</time>
      </trkpt>
      <trkpt lat="42.6259" lon="23.97055">
        <ele>579.275494</ele>
        <time>2022-03-08T10:33:08.737Z</time>
      </trkpt>
      <trkpt lat="42.62594" lon="23.97042">
        <ele>579.67679</ele>
        <time>2022-03-08T10:33:14.745Z</time>
      </trkpt>
      <trkpt lat="42.62598" lon="23.97029">
        <ele>580.055692</ele>
        <time>2022-03-08T10:33:20.747Z</time>
      </trkpt>
      <trkpt lat="42.62601" lon="23.97017">
        <ele>580.430976</ele>
        <time>2022-03-08T10:33:25.742Z</time>
      </trkpt>
      <trkpt lat="42.62603" lon="23.97003">
        <ele>580.847422</ele>
        <time>2022-03-08T10:33:30.758Z</time>
      </trkpt>
      <trkpt lat="42.62607" lon="23.9699">
        <ele>581.249201</ele>
        <time>2022-03-08T10:33:35.752Z</time>
      </trkpt>
      <trkpt lat="42.62613" lon="23.96978">
        <ele>581.662695</ele>
        <time>2022-03-08T10:33:40.732Z</time>
      </trkpt>
      <trkpt lat="42.62618" lon="23.96966">
        <ele>581.886779</ele>
        <time>2022-03-08T10:33:45.774Z</time>
      </trkpt>
      <trkpt lat="42.62624" lon="23.96954">
        <ele>581.848356</ele>
        <time>2022-03-08T10:33:50.739Z</time>
      </trkpt>
      <trkpt lat="42.62629" lon="23.96944">
        <ele>581.814611</ele>
        <time>2022-03-08T10:33:54.755Z</time>
      </trkpt>
      <trkpt lat="42.62636" lon="23.96933">
        <ele>581.77368</ele>
        <time>2022-03-08T10:33:59.746Z</time>
      </trkpt>
      <trkpt lat="42.62643" lon="23.96921">
        <ele>581.732437</ele>
        <time>2022-03-08T10:34:04.742Z</time>
      </trkpt>
      <trkpt lat="42.62649" lon="23.96908">
        <ele>581.691772</ele>
        <time>2022-03-08T10:34:09.745Z</time>
      </trkpt>
      <trkpt lat="42.62656" lon="23.96898">
        <ele>581.653922</ele>
        <time>2022-03-08T10:34:13.767Z</time>
      </trkpt>
      <trkpt lat="42.62663" lon="23.96888">
        <ele>581.615587</ele>
        <time>2022-03-08T10:34:17.750Z</time>
      </trkpt>
      <trkpt lat="42.62671" lon="23.96877">
        <ele>581.575025</ele>
        <time>2022-03-08T10:34:21.747Z</time>
      </trkpt>
      <trkpt lat="42.62678" lon="23.96865">
        <ele>581.531732</ele>
        <time>2022-03-08T10:34:25.784Z</time>
      </trkpt>
      <trkpt lat="42.62684" lon="23.96855">
        <ele>581.497507</ele>
        <time>2022-03-08T10:34:28.754Z</time>
      </trkpt>
      <trkpt lat="42.6269" lon="23.96846">
        <ele>581.463038</ele>
        <time>2022-03-08T10:34:31.750Z</time>
      </trkpt>
      <trkpt lat="42.62697" lon="23.96837">
        <ele>581.427113</ele>
        <time>2022-03-08T10:34:34.760Z</time>
      </trkpt>
      <trkpt lat="42.62703" lon="23.96827">
        <ele>581.390371</ele>
        <time>2022-03-08T10:34:37.748Z</time>
      </trkpt>
      <trkpt lat="42.6271" lon="23.96817">
        <ele>581.354732</ele>
        <time>2022-03-08T10:34:40.756Z</time>
      </trkpt>
      <trkpt lat="42.62716" lon="23.96808">
        <ele>581.31921</ele>
        <time>2022-03-08T10:34:43.759Z</time>
      </trkpt>
      <trkpt lat="42.62723" lon="23.96796">
        <ele>581.277684</ele>
        <time>2022-03-08T10:34:46.738Z</time>
      </trkpt>
      <trkpt lat="42.62731" lon="23.96785">
        <ele>581.237617</ele>
        <time>2022-03-08T10:34:49.738Z</time>
      </trkpt>
      <trkpt lat="42.62738" lon="23.96773">
        <ele>580.976125</ele>
        <time>2022-03-08T10:34:52.752Z</time>
      </trkpt>
      <trkpt lat="42.62746" lon="23.96761">
        <ele>580.678289</ele>
        <time>2022-03-08T10:34:55.747Z</time>
      </trkpt>
      <trkpt lat="42.62753" lon="23.96748">
        <ele>580.383911</ele>
        <time>2022-03-08T10:34:58.769Z</time>
      </trkpt>
      <trkpt lat="42.62761" lon="23.96736">
        <ele>580.083936</ele>
        <time>2022-03-08T10:35:01.756Z</time>
      </trkpt>
      <trkpt lat="42.62768" lon="23.96722">
        <ele>579.778171</ele>
        <time>2022-03-08T10:35:04.782Z</time>
      </trkpt>
      <trkpt lat="42.62775" lon="23.96709">
        <ele>579.467917</ele>
        <time>2022-03-08T10:35:07.735Z</time>
      </trkpt>
      <trkpt lat="42.62782" lon="23.96696">
        <ele>579.175223</ele>
        <time>2022-03-08T10:35:10.748Z</time>
      </trkpt>
      <trkpt lat="42.62789" lon="23.96682">
        <ele>578.87374</ele>
        <time>2022-03-08T10:35:13.772Z</time>
      </trkpt>
      <trkpt lat="42.62795" lon="23.9667">
        <ele>578.602116</ele>
        <time>2022-03-08T10:35:16.737Z</time>
      </trkpt>
      <trkpt lat="42.62801" lon="23.96659">
        <ele>578.340882</ele>
        <time>2022-03-08T10:35:19.752Z</time>
      </trkpt>
      <trkpt lat="42.62807" lon="23.96647">
        <ele>578.085477</ele>
        <time>2022-03-08T10:35:22.743Z</time>
      </trkpt>
      <trkpt lat="42.62813" lon="23.96636">
        <ele>577.827031</ele>
        <time>2022-03-08T10:35:25.726Z</time>
      </trkpt>
      <trkpt lat="42.62818" lon="23.96625">
        <ele>577.588496</ele>
        <time>2022-03-08T10:35:28.751Z</time>
      </trkpt>
      <trkpt lat="42.62822" lon="23.96614">
        <ele>577.360438</ele>
        <time>2022-03-08T10:35:31.744Z</time>
      </trkpt>
      <trkpt lat="42.62828" lon="23.966">
        <ele>577.068412</ele>
        <time>2022-03-08T10:35:35.752Z</time>
      </trkpt>
      <trkpt lat="42.62834" lon="23.96588">
        <ele>576.794279</ele>
        <time>2022-03-08T10:35:39.765Z</time>
      </trkpt>
      <trkpt lat="42.62839" lon="23.96576">
        <ele>576.912269</ele>
        <time>2022-03-08T10:35:43.732Z</time>
      </trkpt>
      <trkpt lat="42.62844" lon="23.96564">
        <ele>577.163126</ele>
        <time>2022-03-08T10:35:47.738Z</time>
      </trkpt>
      <trkpt lat="42.62849" lon="23.96551">
        <ele>577.417987</ele>
        <time>2022-03-08T10:35:51.774Z</time>
      </trkpt>
      <trkpt lat="42.62855" lon="23.96539">
        <ele>577.673329</ele>
        <time>2022-03-08T10:35:55.747Z</time>
      </trkpt>
      <trkpt lat="42.6286" lon="23.96528">
        <ele>577.914787</ele>
        <time>2022-03-08T10:35:59.756Z</time>
      </trkpt>
      <trkpt lat="42.62865" lon="23.96516">
        <ele>578.163149</ele>
        <time>2022-03-08T10:36:03.753Z</time>
      </trkpt>
      <trkpt lat="42.6287" lon="23.96505">
        <ele>578.409972</ele>
        <time>2022-03-08T10:36:07.750Z</time>
      </trkpt>
      <trkpt lat="42.62876" lon="23.96493">
        <ele>578.659423</ele>
        <time>2022-03-08T10:36:11.761Z</time>
      </trkpt>
      <trkpt lat="42.6288" lon="23.96482">
        <ele>578.887498</ele>
        <time>2022-03-08T10:36:15.764Z</time>
      </trkpt>
      <trkpt lat="42.62885" lon="23.96471">
        <ele>579.12276</ele>
        <time>2022-03-08T10:36:19.749Z</time>
      </trkpt>
      <trkpt lat="42.6289" lon="23.9646">
        <ele>579.365775</ele>
        <time>2022-03-08T10:36:23.743Z</time>
      </trkpt>
      <trkpt lat="42.62895" lon="23.96448">
        <ele>579.609237</ele>
        <time>2022-03-08T10:36:27.762Z</time>
      </trkpt>
      <trkpt lat="42.629" lon="23.96436">
        <ele>579.863263</ele>
        <time>2022-03-08T10:36:31.753Z</time>
      </trkpt>
      <trkpt lat="42.62907" lon="23.96425">
        <ele>580.112252</ele>
        <time>2022-03-08T10:36:35.751Z</time>
      </trkpt>
      <trkpt lat="42.62913" lon="23.96414">
        <ele>580.361224</ele>
        <time>2022-03-08T10:36:39.747Z</time>
      </trkpt>
      <trkpt lat="42.62918" lon="23.96402">
        <ele>580.608794</ele>
        <time>2022-03-08T10:36:43.733Z</time>
      </trkpt>
      <trkpt lat="42.62924" lon="23.96392">
        <ele>580.840457</ele>
        <time>2022-03-08T10:36:47.751Z</time>
      </trkpt>
      <trkpt lat="42.62929" lon="23.96378">
        <ele>581.111559</ele>
        <time>2022-03-08T10:36:52.744Z</time>
      </trkpt>
      <trkpt lat="42.62934" lon="23.96365">
        <ele>581.539274</ele>
        <time>2022-03-08T10:36:57.758Z</time>
      </trkpt>
      <trkpt lat="42.62939" lon="23.96352">
        <ele>581.974358</ele>
        <time>2022-03-08T10:37:02.743Z</time>
      </trkpt>
      <trkpt lat="42.62944" lon="23.96341">
        <ele>582.376752</ele>
        <time>2022-03-08T10:37:07.788Z</time>
      </trkpt>
      <trkpt lat="42.6295" lon="23.96328">
        <ele>582.82787</ele>
        <time>2022-03-08T10:37:12.728Z</time>
      </trkpt>
      <trkpt lat="42.62956" lon="23.96315">
        <ele>583.26489</ele>
        <time>2022-03-08T10:37:17.752Z</time>
      </trkpt>
      <trkpt lat="42.62962" lon="23.96304">
        <ele>583.686214</ele>
        <time>2022-03-08T10:37:22.768Z</time>
      </trkpt>
      <trkpt lat="42.62968" lon="23.96293">
        <ele>584.0931</ele>
        <time>2022-03-08T10:37:27.754Z</time>
      </trkpt>
      <trkpt lat="42.62973" lon="23.96282">
        <ele>584.498067</ele>
        <time>2022-03-08T10:37:32.736Z</time>
      </trkpt>
      <trkpt lat="42.62979" lon="23.96271">
        <ele>584.900182</ele>
        <time>2022-03-08T10:37:37.747Z</time>
      </trkpt>
      <trkpt lat="42.62985" lon="23.9626">
        <ele>585.309551</ele>
        <time>2022-03-08T10:37:42.738Z</time>
      </trkpt>
      <trkpt lat="42.6299" lon="23.96249">
        <ele>585.708335</ele>
        <time>2022-03-08T10:37:47.742Z</time>
      </trkpt>
      <trkpt lat="42.62996" lon="23.96238">
        <ele>586.095955</ele>
        <time>2022-03-08T10:37:52.746Z</time>
      </trkpt>
      <trkpt lat="42.63001" lon="23.96228">
        <ele>586.471791</ele>
        <time>2022-03-08T10:37:57.794Z</time>
      </trkpt>
      <trkpt lat="42.63007" lon="23.96215">
        <ele>586.910405</ele>
        <time>2022-03-08T10:38:03.743Z</time>
      </trkpt>
      <trkpt lat="42.63013" lon="23.96203">
        <ele>587.337331</ele>
        <time>2022-03-08T10:38:09.754Z</time>
      </trkpt>
      <trkpt lat="42.63018" lon="23.96191">
        <ele>587.766473</ele>
        <time>2022-03-08T10:38:15.730Z</time>
      </trkpt>
      <trkpt lat="42.63024" lon="23.96182">
        <ele>588.132428</ele>
        <time>2022-03-08T10:38:20.777Z</time>
      </trkpt>
      <trkpt lat="42.63029" lon="23.96172">
        <ele>588.486481</ele>
        <time>2022-03-08T10:38:25.730Z</time>
      </trkpt>
      <trkpt lat="42.63035" lon="23.96161">
        <ele>588.768098</ele>
        <time>2022-03-08T10:38:30.752Z</time>
      </trkpt>
      <trkpt lat="42.63041" lon="23.9615">
        <ele>589.078445</ele>
        <time>2022-03-08T10:38:35.780Z</time>
      </trkpt>
      <trkpt lat="42.63047" lon="23.9614">
        <ele>589.366911</ele>
        <time>2022-03-08T10:38:40.752Z</time>
      </trkpt>
      <trkpt lat="42.63052" lon="23.96129">
        <ele>589.633101</ele>
        <time>2022-03-08T10:38:45.734Z</time>
      </trkpt>
      <trkpt lat="42.63056" lon="23.96118">
        <ele>589.904268</ele>
        <time>2022-03-08T10:38:50.747Z</time>
      </trkpt>
      <trkpt lat="42.63061" lon="23.96107">
        <ele>590.183148</ele>
        <time>2022-03-08T10:38:55.741Z</time>
      </trkpt>
      <trkpt lat="42.63067" lon="23.96097">
        <ele>590.461302</ele>
        <time>2022-03-08T10:39:00.766Z</time>
      </trkpt>
      <trkpt lat="42.63072" lon="23.96087">
        <ele>590.726951</ele>
        <time>2022-03-08T10:39:05.741Z</time>
      </trkpt>
      <trkpt lat="42.63077" lon="23.96076">
        <ele>591.020109</ele>
        <time>2022-03-08T10:39:11.754Z</time>
      </trkpt>
      <trkpt lat="42.63083" lon="23.96064">
        <ele>591.328295</ele>
        <time>2022-03-08T10:39:17.760Z</time>
      </trkpt>
      <trkpt lat="42.63089" lon="23.96053">
        <ele>591.641367</ele>
        <time>2022-03-08T10:39:23.744Z</time>
      </trkpt>
      <trkpt lat="42.63096" lon="23.96042">
        <ele>591.941221</ele>
        <time>2022-03-08T10:39:28.746Z</time>
      </trkpt>
      <trkpt lat="42.631" lon="23.96031">
        <ele>592.226524</ele>
        <time>2022-03-08T10:39:33.741Z</time>
      </trkpt>
      <trkpt lat="42.63106" lon="23.96019">
        <ele>592.533339</ele>
        <time>2022-03-08T10:39:39.747Z</time>
      </trkpt>
      <trkpt lat="42.6311" lon="23.96006">
        <ele>592.846872</ele>
        <time>2022-03-08T10:39:45.731Z</time>
      </trkpt>
      <trkpt lat="42.63115" lon="23.95996">
        <ele>593.115933</ele>
        <time>2022-03-08T10:39:50.746Z</time>
      </trkpt>
      <trkpt lat="42.63121" lon="23.95984">
        <ele>593.423814</ele>
        <time>2022-03-08T10:39:56.740Z</time>
      </trkpt>
      <trkpt lat="42.63126" lon="23.95974">
        <ele>593.699939</ele>
        <time>2022-03-08T10:40:02.736Z</time>
      </trkpt>
      <trkpt lat="42.63131" lon="23.95962">
        <ele>594.079384</ele>
        <time>2022-03-08T10:40:08.782Z</time>
      </trkpt>
      <trkpt lat="42.63137" lon="23.95952">
        <ele>594.463224</ele>
        <time>2022-03-08T10:40:13.740Z</time>
      </trkpt>
      <trkpt lat="42.63143" lon="23.95942">
        <ele>594.86001</ele>
        <time>2022-03-08T10:40:18.746Z</time>
      </trkpt>
      <trkpt lat="42.63149" lon="23.95932">
        <ele>595.249169</ele>
        <time>2022-03-08T10:40:23.730Z</time>
      </trkpt>
      <trkpt lat="42.63154" lon="23.95922">
        <ele>595.628096</ele>
        <time>2022-03-08T10:40:28.753Z</time>
      </trkpt>
      <trkpt lat="42.6316" lon="23.95911">
        <ele>596.046412</ele>
        <time>2022-03-08T10:40:34.757Z</time>
      </trkpt>
      <trkpt lat="42.63165" lon="23.959">
        <ele>596.428856</ele>
        <time>2022-03-08T10:40:39.734Z</time>
      </trkpt>
      <trkpt lat="42.63169" lon="23.95889">
        <ele>596.807973</ele>
        <time>2022-03-08T10:40:44.727Z</time>
      </trkpt>
      <trkpt lat="42.63174" lon="23.95879">
        <ele>597.188625</ele>
        <time>2022-03-08T10:40:49.746Z</time>
      </trkpt>
      <trkpt lat="42.63179" lon="23.95867">
        <ele>597.605167</ele>
        <time>2022-03-08T10:40:55.754Z</time>
      </trkpt>
      <trkpt lat="42.63184" lon="23.95855">
        <ele>598.021882</ele>
        <time>2022-03-08T10:41:01.745Z</time>
      </trkpt>
      <trkpt lat="42.6319" lon="23.95845">
        <ele>598.418071</ele>
        <time>2022-03-08T10:41:07.740Z</time>
      </trkpt>
      <trkpt lat="42.63195" lon="23.95833">
        <ele>598.848208</ele>
        <time>2022-03-08T10:41:14.752Z</time>
      </trkpt>
      <trkpt lat="42.632" lon="23.95823">
        <ele>599.224749</ele>
        <time>2022-03-08T10:41:20.739Z</time>
      </trkpt>
      <trkpt lat="42.63206" lon="23.95812">
        <ele>599.630992</ele>
        <time>2022-03-08T10:41:26.756Z</time>
      </trkpt>
      <trkpt lat="42.63213" lon="23.95801">
        <ele>600.071115</ele>
        <time>2022-03-08T10:41:32.751Z</time>
      </trkpt>
      <trkpt lat="42.63219" lon="23.95791">
        <ele>600.474678</ele>
        <time>2022-03-08T10:41:38.753Z</time>
      </trkpt>
      <trkpt lat="42.63224" lon="23.95779">
        <ele>600.890611</ele>
        <time>2022-03-08T10:41:45.764Z</time>
      </trkpt>
      <trkpt lat="42.6323" lon="23.95769">
        <ele>601.288489</ele>
        <time>2022-03-08T10:41:51.754Z</time>
      </trkpt>
      <trkpt lat="42.63236" lon="23.95758">
        <ele>601.889343</ele>
        <time>2022-03-08T10:41:57.752Z</time>
      </trkpt>
      <trkpt lat="42.6324" lon="23.95747">
        <ele>602.434235</ele>
        <time>2022-03-08T10:42:03.744Z</time>
      </trkpt>
      <trkpt lat="42.63245" lon="23.95736">
        <ele>603.015052</ele>
        <time>2022-03-08T10:42:09.735Z</time>
      </trkpt>
      <trkpt lat="42.6325" lon="23.95724">
        <ele>603.629032</ele>
        <time>2022-03-08T10:42:16.744Z</time>
      </trkpt>
      <trkpt lat="42.63256" lon="23.95715">
        <ele>604.174981</ele>
        <time>2022-03-08T10:42:22.721Z</time>
      </trkpt>
      <trkpt lat="42.63262" lon="23.95704">
        <ele>604.765227</ele>
        <time>2022-03-08T10:42:28.731Z</time>
      </trkpt>
      <trkpt lat="42.63268" lon="23.95693">
        <ele>605.380349</ele>
        <time>2022-03-08T10:42:34.744Z</time>
      </trkpt>
      <trkpt lat="42.63274" lon="23.95682">
        <ele>605.935351</ele>
        <time>2022-03-08T10:42:40.763Z</time>
      </trkpt>
      <trkpt lat="42.63278" lon="23.95671">
        <ele>606.49087</ele>
        <time>2022-03-08T10:42:46.797Z</time>
      </trkpt>
      <trkpt lat="42.63284" lon="23.9566">
        <ele>607.092574</ele>
        <time>2022-03-08T10:42:53.746Z</time>
      </trkpt>
      <trkpt lat="42.63288" lon="23.95649">
        <ele>607.641384</ele>
        <time>2022-03-08T10:42:59.755Z</time>
      </trkpt>
      <trkpt lat="42.63294" lon="23.95638">
        <ele>608.257453</ele>
        <time>2022-03-08T10:43:06.742Z</time>
      </trkpt>
      <trkpt lat="42.63299" lon="23.95626">
        <ele>608.825738</ele>
        <time>2022-03-08T10:43:12.744Z</time>
      </trkpt>
      <trkpt lat="42.63304" lon="23.95616">
        <ele>609.378278</ele>
        <time>2022-03-08T10:43:18.753Z</time>
      </trkpt>
      <trkpt lat="42.6331" lon="23.95606">
        <ele>609.966618</ele>
        <time>2022-03-08T10:43:24.760Z</time>
      </trkpt>
      <trkpt lat="42.63317" lon="23.95595">
        <ele>610.580083</ele>
        <time>2022-03-08T10:43:30.788Z</time>
      </trkpt>
      <trkpt lat="42.63323" lon="23.95585">
        <ele>611.163152</ele>
        <time>2022-03-08T10:43:36.754Z</time>
      </trkpt>
      <trkpt lat="42.63328" lon="23.95573">
        <ele>611.79036</ele>
        <time>2022-03-08T10:43:43.738Z</time>
      </trkpt>
      <trkpt lat="42.63334" lon="23.95562">
        <ele>612.170077</ele>
        <time>2022-03-08T10:43:49.753Z</time>
      </trkpt>
      <trkpt lat="42.63341" lon="23.95551">
        <ele>612.413795</ele>
        <time>2022-03-08T10:43:56.762Z</time>
      </trkpt>
      <trkpt lat="42.63347" lon="23.95541">
        <ele>612.64236</ele>
        <time>2022-03-08T10:44:02.744Z</time>
      </trkpt>
      <trkpt lat="42.63352" lon="23.9553">
        <ele>612.861577</ele>
        <time>2022-03-08T10:44:08.752Z</time>
      </trkpt>
      <trkpt lat="42.63358" lon="23.9552">
        <ele>613.071658</ele>
        <time>2022-03-08T10:44:14.745Z</time>
      </trkpt>
      <trkpt lat="42.63364" lon="23.95511">
        <ele>613.291688</ele>
        <time>2022-03-08T10:44:20.756Z</time>
      </trkpt>
      <trkpt lat="42.63372" lon="23.95503">
        <ele>613.518557</ele>
        <time>2022-03-08T10:44:26.758Z</time>
      </trkpt>
      <trkpt lat="42.6338" lon="23.95494">
        <ele>613.754019</ele>
        <time>2022-03-08T10:44:32.753Z</time>
      </trkpt>
      <trkpt lat="42.63387" lon="23.95485">
        <ele>613.963424</ele>
        <time>2022-03-08T10:44:37.755Z</time>
      </trkpt>
      <trkpt lat="42.63394" lon="23.95477">
        <ele>614.184297</ele>
        <time>2022-03-08T10:44:42.733Z</time>
      </trkpt>
      <trkpt lat="42.63403" lon="23.95469">
        <ele>614.42504</ele>
        <time>2022-03-08T10:44:48.751Z</time>
      </trkpt>
      <trkpt lat="42.6341" lon="23.95461">
        <ele>614.644885</ele>
        <time>2022-03-08T10:44:54.744Z</time>
      </trkpt>
      <trkpt lat="42.63419" lon="23.95453">
        <ele>614.887396</ele>
        <time>2022-03-08T10:45:01.755Z</time>
      </trkpt>
      <trkpt lat="42.63428" lon="23.95446">
        <ele>615.129591</ele>
        <time>2022-03-08T10:45:07.732Z</time>
      </trkpt>
      <trkpt lat="42.63437" lon="23.95439">
        <ele>615.365475</ele>
        <time>2022-03-08T10:45:13.735Z</time>
      </trkpt>
      <trkpt lat="42.63444" lon="23.95432">
        <ele>615.573604</ele>
        <time>2022-03-08T10:45:18.759Z</time>
      </trkpt>
      <trkpt lat="42.63454" lon="23.95426">
        <ele>615.813332</ele>
        <time>2022-03-08T10:45:24.738Z</time>
      </trkpt>
      <trkpt lat="42.63462" lon="23.95422">
        <ele>616.029792</ele>
        <time>2022-03-08T10:45:29.755Z</time>
      </trkpt>
      <trkpt lat="42.63471" lon="23.95416">
        <ele>616.216445</ele>
        <time>2022-03-08T10:45:34.762Z</time>
      </trkpt>
      <trkpt lat="42.63481" lon="23.95411">
        <ele>616.277715</ele>
        <time>2022-03-08T10:45:39.762Z</time>
      </trkpt>
      <trkpt lat="42.63489" lon="23.95404">
        <ele>616.335485</ele>
        <time>2022-03-08T10:45:44.735Z</time>
      </trkpt>
      <trkpt lat="42.63499" lon="23.95399">
        <ele>616.401057</ele>
        <time>2022-03-08T10:45:49.789Z</time>
      </trkpt>
      <trkpt lat="42.63509" lon="23.95395">
        <ele>616.463787</ele>
        <time>2022-03-08T10:45:54.744Z</time>
      </trkpt>
      <trkpt lat="42.63519" lon="23.95392">
        <ele>616.527111</ele>
        <time>2022-03-08T10:45:59.740Z</time>
      </trkpt>
      <trkpt lat="42.63529" lon="23.95387">
        <ele>616.590209</ele>
        <time>2022-03-08T10:46:04.749Z</time>
      </trkpt>
      <trkpt lat="42.63538" lon="23.95385">
        <ele>616.647586</ele>
        <time>2022-03-08T10:46:09.755Z</time>
      </trkpt>
      <trkpt lat="42.63548" lon="23.9538">
        <ele>616.714072</ele>
        <time>2022-03-08T10:46:14.749Z</time>
      </trkpt>
      <trkpt lat="42.63559" lon="23.95376">
        <ele>616.780436</ele>
        <time>2022-03-08T10:46:19.787Z</time>
      </trkpt>
      <trkpt lat="42.63569" lon="23.95372">
        <ele>616.846214</ele>
        <time>2022-03-08T10:46:24.721Z</time>
      </trkpt>
      <trkpt lat="42.63579" lon="23.95369">
        <ele>616.906117</ele>
        <time>2022-03-08T10:46:28.751Z</time>
      </trkpt>
      <trkpt lat="42.63589" lon="23.95365">
        <ele>616.96919</ele>
        <time>2022-03-08T10:46:32.746Z</time>
      </trkpt>
      <trkpt lat="42.63598" lon="23.95362">
        <ele>617.026746</ele>
        <time>2022-03-08T10:46:36.752Z</time>
      </trkpt>
      <trkpt lat="42.63607" lon="23.95358">
        <ele>617.086111</ele>
        <time>2022-03-08T10:46:40.756Z</time>
      </trkpt>
      <trkpt lat="42.63617" lon="23.95354">
        <ele>617.145309</ele>
        <time>2022-03-08T10:46:44.785Z</time>
      </trkpt>
      <trkpt lat="42.63626" lon="23.95351">
        <ele>617.204037</ele>
        <time>2022-03-08T10:46:48.759Z</time>
      </trkpt>
      <trkpt lat="42.63635" lon="23.95347">
        <ele>617.26081</ele>
        <time>2022-03-08T10:46:52.750Z</time>
      </trkpt>
      <trkpt lat="42.63645" lon="23.95342">
        <ele>617.360565</ele>
        <time>2022-03-08T10:46:57.735Z</time>
      </trkpt>
      <trkpt lat="42.63654" lon="23.95338">
        <ele>617.476521</ele>
        <time>2022-03-08T10:47:01.764Z</time>
      </trkpt>
      <trkpt lat="42.63663" lon="23.95334">
        <ele>617.595633</ele>
        <time>2022-03-08T10:47:05.752Z</time>
      </trkpt>
      <trkpt lat="42.63673" lon="23.95327">
        <ele>617.734922</ele>
        <time>2022-03-08T10:47:10.752Z</time>
      </trkpt>
      <trkpt lat="42.63682" lon="23.95321">
        <ele>617.85553</ele>
        <time>2022-03-08T10:47:14.743Z</time>
      </trkpt>
      <trkpt lat="42.63691" lon="23.95316">
        <ele>617.974997</ele>
        <time>2022-03-08T10:47:18.747Z</time>
      </trkpt>
      <trkpt lat="42.637" lon="23.95311">
        <ele>618.093759</ele>
        <time>2022-03-08T10:47:22.760Z</time>
      </trkpt>
      <trkpt lat="42.63708" lon="23.95305">
        <ele>618.210781</ele>
        <time>2022-03-08T10:47:26.738Z</time>
      </trkpt>
      <trkpt lat="42.63717" lon="23.95299">
        <ele>618.331502</ele>
        <time>2022-03-08T10:47:30.757Z</time>
      </trkpt>
      <trkpt lat="42.63725" lon="23.95293">
        <ele>618.446093</ele>
        <time>2022-03-08T10:47:34.786Z</time>
      </trkpt>
      <trkpt lat="42.63734" lon="23.95285">
        <ele>618.57258</ele>
        <time>2022-03-08T10:47:38.781Z</time>
      </trkpt>
      <trkpt lat="42.63742" lon="23.95279">
        <ele>618.685885</ele>
        <time>2022-03-08T10:47:42.754Z</time>
      </trkpt>
      <trkpt lat="42.6375" lon="23.95272">
        <ele>618.804255</ele>
        <time>2022-03-08T10:47:46.742Z</time>
      </trkpt>
      <trkpt lat="42.63758" lon="23.95264">
        <ele>618.927162</ele>
        <time>2022-03-08T10:47:50.760Z</time>
      </trkpt>
      <trkpt lat="42.63765" lon="23.95257">
        <ele>619.042451</ele>
        <time>2022-03-08T10:47:54.755Z</time>
      </trkpt>
      <trkpt lat="42.63773" lon="23.95248">
        <ele>619.162515</ele>
        <time>2022-03-08T10:47:58.747Z</time>
      </trkpt>
      <trkpt lat="42.6378" lon="23.95238">
        <ele>619.286892</ele>
        <time>2022-03-08T10:48:02.754Z</time>
      </trkpt>
      <trkpt lat="42.63787" lon="23.9523">
        <ele>619.406021</ele>
        <time>2022-03-08T10:48:06.736Z</time>
      </trkpt>
      <trkpt lat="42.63795" lon="23.95221">
        <ele>619.549904</ele>
        <time>2022-03-08T10:48:10.747Z</time>
      </trkpt>
      <trkpt lat="42.63802" lon="23.95213">
        <ele>619.960311</ele>
        <time>2022-03-08T10:48:14.753Z</time>
      </trkpt>
      <trkpt lat="42.63808" lon="23.95204">
        <ele>620.358481</ele>
        <time>2022-03-08T10:48:18.786Z</time>
      </trkpt>
      <trkpt lat="42.63815" lon="23.95193">
        <ele>620.826258</ele>
        <time>2022-03-08T10:48:23.749Z</time>
      </trkpt>
      <trkpt lat="42.63822" lon="23.95182">
        <ele>621.297431</ele>
        <time>2022-03-08T10:48:28.737Z</time>
      </trkpt>
      <trkpt lat="42.63827" lon="23.9517">
        <ele>621.75784</ele>
        <time>2022-03-08T10:48:33.754Z</time>
      </trkpt>
      <trkpt lat="42.63833" lon="23.95158">
        <ele>622.217604</ele>
        <time>2022-03-08T10:48:38.747Z</time>
      </trkpt>
      <trkpt lat="42.6384" lon="23.95147">
        <ele>622.680352</ele>
        <time>2022-03-08T10:48:43.741Z</time>
      </trkpt>
      <trkpt lat="42.63847" lon="23.95136">
        <ele>623.155818</ele>
        <time>2022-03-08T10:48:48.762Z</time>
      </trkpt>
      <trkpt lat="42.63852" lon="23.95123">
        <ele>623.627572</ele>
        <time>2022-03-08T10:48:53.736Z</time>
      </trkpt>
      <trkpt lat="42.63857" lon="23.95112">
        <ele>624.048452</ele>
        <time>2022-03-08T10:48:57.735Z</time>
      </trkpt>
      <trkpt lat="42.63862" lon="23.95101">
        <ele>624.464551</ele>
        <time>2022-03-08T10:49:01.759Z</time>
      </trkpt>
      <trkpt lat="42.63867" lon="23.95091">
        <ele>624.867368</ele>
        <time>2022-03-08T10:49:05.739Z</time>
      </trkpt>
      <trkpt lat="42.63872" lon="23.9508">
        <ele>625.276475</ele>
        <time>2022-03-08T10:49:09.754Z</time>
      </trkpt>
      <trkpt lat="42.63877" lon="23.95067">
        <ele>625.769942</ele>
        <time>2022-03-08T10:49:14.746Z</time>
      </trkpt>
      <trkpt lat="42.63882" lon="23.95056">
        <ele>626.177532</ele>
        <time>2022-03-08T10:49:18.752Z</time>
      </trkpt>
      <trkpt lat="42.63886" lon="23.95044">
        <ele>626.59493</ele>
        <time>2022-03-08T10:49:22.727Z</time>
      </trkpt>
      <trkpt lat="42.6389" lon="23.95034">
        <ele>626.995204</ele>
        <time>2022-03-08T10:49:26.771Z</time>
      </trkpt>
      <trkpt lat="42.63895" lon="23.95023">
        <ele>627.391283</ele>
        <time>2022-03-08T10:49:30.757Z</time>
      </trkpt>
      <trkpt lat="42.639" lon="23.95009">
        <ele>627.64433</ele>
        <time>2022-03-08T10:49:35.791Z</time>
      </trkpt>
      <trkpt lat="42.63905" lon="23.94996">
        <ele>627.874236</ele>
        <time>2022-03-08T10:49:40.778Z</time>
      </trkpt>
      <trkpt lat="42.6391" lon="23.94982">
        <ele>628.101721</ele>
        <time>2022-03-08T10:49:45.759Z</time>
      </trkpt>
      <trkpt lat="42.63914" lon="23.94971">
        <ele>628.297559</ele>
        <time>2022-03-08T10:49:49.756Z</time>
      </trkpt>
      <trkpt lat="42.63918" lon="23.9496">
        <ele>628.491399</ele>
        <time>2022-03-08T10:49:53.742Z</time>
      </trkpt>
      <trkpt lat="42.63924" lon="23.94947">
        <ele>628.714678</ele>
        <time>2022-03-08T10:49:58.758Z</time>
      </trkpt>
      <trkpt lat="42.63929" lon="23.94933">
        <ele>628.943078</ele>
        <time>2022-03-08T10:50:03.745Z</time>
      </trkpt>
      <trkpt lat="42.63933" lon="23.94922">
        <ele>629.129459</ele>
        <time>2022-03-08T10:50:07.764Z</time>
      </trkpt>
      <trkpt lat="42.63937" lon="23.94911">
        <ele>629.324</ele>
        <time>2022-03-08T10:50:11.769Z</time>
      </trkpt>
      <trkpt lat="42.63941" lon="23.94899">
        <ele>629.518963</ele>
        <time>2022-03-08T10:50:15.743Z</time>
      </trkpt>
      <trkpt lat="42.63945" lon="23.94887">
        <ele>629.714843</ele>
        <time>2022-03-08T10:50:19.743Z</time>
      </trkpt>
      <trkpt lat="42.63951" lon="23.94876">
        <ele>629.925936</ele>
        <time>2022-03-08T10:50:23.755Z</time>
      </trkpt>
      <trkpt lat="42.63956" lon="23.94863">
        <ele>630.149214</ele>
        <time>2022-03-08T10:50:27.751Z</time>
      </trkpt>
      <trkpt lat="42.63961" lon="23.94849">
        <ele>630.376461</ele>
        <time>2022-03-08T10:50:31.739Z</time>
      </trkpt>
      <trkpt lat="42.63968" lon="23.94836">
        <ele>630.616621</ele>
        <time>2022-03-08T10:50:35.788Z</time>
      </trkpt>
      <trkpt lat="42.63972" lon="23.94825">
        <ele>630.8125</ele>
        <time>2022-03-08T10:50:38.737Z</time>
      </trkpt>
      <trkpt lat="42.63977" lon="23.94814">
        <ele>630.998474</ele>
        <time>2022-03-08T10:50:41.753Z</time>
      </trkpt>
      <trkpt lat="42.63981" lon="23.94803">
        <ele>631.127279</ele>
        <time>2022-03-08T10:50:44.752Z</time>
      </trkpt>
      <trkpt lat="42.63986" lon="23.94792">
        <ele>631.090767</ele>
        <time>2022-03-08T10:50:47.784Z</time>
      </trkpt>
      <trkpt lat="42.63992" lon="23.9478">
        <ele>631.049497</ele>
        <time>2022-03-08T10:50:51.742Z</time>
      </trkpt>
      <trkpt lat="42.63998" lon="23.94765">
        <ele>631.00342</ele>
        <time>2022-03-08T10:50:55.738Z</time>
      </trkpt>
      <trkpt lat="42.64002" lon="23.94751">
        <ele>630.959714</ele>
        <time>2022-03-08T10:50:59.777Z</time>
      </trkpt>
      <trkpt lat="42.64008" lon="23.94737">
        <ele>630.914949</ele>
        <time>2022-03-08T10:51:03.786Z</time>
      </trkpt>
      <trkpt lat="42.64013" lon="23.94723">
        <ele>630.871524</ele>
        <time>2022-03-08T10:51:07.754Z</time>
      </trkpt>
      <trkpt lat="42.64018" lon="23.94709">
        <ele>630.827771</ele>
        <time>2022-03-08T10:51:11.749Z</time>
      </trkpt>
      <trkpt lat="42.64022" lon="23.94696">
        <ele>630.78679</ele>
        <time>2022-03-08T10:51:15.752Z</time>
      </trkpt>
      <trkpt lat="42.64028" lon="23.94683">
        <ele>630.743812</ele>
        <time>2022-03-08T10:51:19.756Z</time>
      </trkpt>
      <trkpt lat="42.64033" lon="23.94669">
        <ele>630.70046</ele>
        <time>2022-03-08T10:51:23.743Z</time>
      </trkpt>
      <trkpt lat="42.64039" lon="23.94657">
        <ele>630.657736</ele>
        <time>2022-03-08T10:51:27.755Z</time>
      </trkpt>
      <trkpt lat="42.64044" lon="23.94645">
        <ele>630.620973</ele>
        <time>2022-03-08T10:51:30.753Z</time>
      </trkpt>
      <trkpt lat="42.64049" lon="23.94635">
        <ele>630.586184</ele>
        <time>2022-03-08T10:51:33.748Z</time>
      </trkpt>
      <trkpt lat="42.64054" lon="23.94624">
        <ele>630.549761</ele>
        <time>2022-03-08T10:51:36.746Z</time>
      </trkpt>
      <trkpt lat="42.64059" lon="23.94612">
        <ele>630.51002</ele>
        <time>2022-03-08T10:51:40.747Z</time>
      </trkpt>
      <trkpt lat="42.64065" lon="23.946">
        <ele>630.470312</ele>
        <time>2022-03-08T10:51:44.755Z</time>
      </trkpt>
      <trkpt lat="42.64072" lon="23.94589">
        <ele>630.48268</ele>
        <time>2022-03-08T10:51:48.747Z</time>
      </trkpt>
      <trkpt lat="42.64079" lon="23.94578">
        <ele>630.553793</ele>
        <time>2022-03-08T10:51:52.756Z</time>
      </trkpt>
      <trkpt lat="42.64086" lon="23.94567">
        <ele>630.627176</ele>
        <time>2022-03-08T10:51:56.746Z</time>
      </trkpt>
      <trkpt lat="42.64093" lon="23.94555">
        <ele>630.702569</ele>
        <time>2022-03-08T10:52:00.736Z</time>
      </trkpt>
      <trkpt lat="42.64098" lon="23.94546">
        <ele>630.764518</ele>
        <time>2022-03-08T10:52:03.763Z</time>
      </trkpt>
      <trkpt lat="42.64106" lon="23.94534">
        <ele>630.843237</ele>
        <time>2022-03-08T10:52:07.739Z</time>
      </trkpt>
      <trkpt lat="42.64114" lon="23.94523">
        <ele>630.919442</ele>
        <time>2022-03-08T10:52:11.759Z</time>
      </trkpt>
      <trkpt lat="42.64121" lon="23.94513">
        <ele>630.991182</ele>
        <time>2022-03-08T10:52:15.743Z</time>
      </trkpt>
      <trkpt lat="42.64128" lon="23.94501">
        <ele>631.070559</ele>
        <time>2022-03-08T10:52:19.747Z</time>
      </trkpt>
      <trkpt lat="42.64136" lon="23.94489">
        <ele>631.151837</ele>
        <time>2022-03-08T10:52:23.745Z</time>
      </trkpt>
      <trkpt lat="42.64142" lon="23.9448">
        <ele>631.214086</ele>
        <time>2022-03-08T10:52:26.801Z</time>
      </trkpt>
      <trkpt lat="42.6415" lon="23.94469">
        <ele>631.291501</ele>
        <time>2022-03-08T10:52:30.783Z</time>
      </trkpt>
      <trkpt lat="42.64157" lon="23.94457">
        <ele>631.366971</ele>
        <time>2022-03-08T10:52:34.738Z</time>
      </trkpt>
      <trkpt lat="42.64164" lon="23.94446">
        <ele>631.442713</ele>
        <time>2022-03-08T10:52:38.738Z</time>
      </trkpt>
      <trkpt lat="42.64172" lon="23.94435">
        <ele>631.518547</ele>
        <time>2022-03-08T10:52:42.746Z</time>
      </trkpt>
      <trkpt lat="42.64179" lon="23.94424">
        <ele>631.595962</ele>
        <time>2022-03-08T10:52:46.745Z</time>
      </trkpt>
      <trkpt lat="42.64188" lon="23.94412">
        <ele>631.676345</ele>
        <time>2022-03-08T10:52:50.747Z</time>
      </trkpt>
      <trkpt lat="42.64195" lon="23.94402">
        <ele>631.851525</ele>
        <time>2022-03-08T10:52:54.732Z</time>
      </trkpt>
      <trkpt lat="42.64202" lon="23.94391">
        <ele>632.033546</ele>
        <time>2022-03-08T10:52:58.756Z</time>
      </trkpt>
      <trkpt lat="42.6421" lon="23.94379">
        <ele>632.230353</ele>
        <time>2022-03-08T10:53:02.749Z</time>
      </trkpt>
      <trkpt lat="42.64217" lon="23.94367">
        <ele>632.426217</ele>
        <time>2022-03-08T10:53:06.754Z</time>
      </trkpt>
      <trkpt lat="42.64224" lon="23.94355">
        <ele>632.627458</ele>
        <time>2022-03-08T10:53:10.755Z</time>
      </trkpt>
      <trkpt lat="42.6423" lon="23.94345">
        <ele>632.786052</ele>
        <time>2022-03-08T10:53:13.770Z</time>
      </trkpt>
      <trkpt lat="42.64237" lon="23.94335">
        <ele>632.958286</ele>
        <time>2022-03-08T10:53:16.772Z</time>
      </trkpt>
      <trkpt lat="42.64243" lon="23.94323">
        <ele>633.144155</ele>
        <time>2022-03-08T10:53:19.760Z</time>
      </trkpt>
      <trkpt lat="42.6425" lon="23.94312">
        <ele>633.323137</ele>
        <time>2022-03-08T10:53:22.744Z</time>
      </trkpt>
      <trkpt lat="42.64255" lon="23.94301">
        <ele>633.488835</ele>
        <time>2022-03-08T10:53:25.757Z</time>
      </trkpt>
      <trkpt lat="42.64261" lon="23.94288">
        <ele>633.679657</ele>
        <time>2022-03-08T10:53:29.758Z</time>
      </trkpt>
      <trkpt lat="42.64267" lon="23.94276">
        <ele>633.867603</ele>
        <time>2022-03-08T10:53:33.743Z</time>
      </trkpt>
      <trkpt lat="42.64273" lon="23.94264">
        <ele>634.03978</ele>
        <time>2022-03-08T10:53:37.781Z</time>
      </trkpt>
      <trkpt lat="42.64278" lon="23.94254">
        <ele>634.201319</ele>
        <time>2022-03-08T10:53:41.739Z</time>
      </trkpt>
      <trkpt lat="42.64283" lon="23.94242">
        <ele>634.365625</ele>
        <time>2022-03-08T10:53:45.766Z</time>
      </trkpt>
      <trkpt lat="42.6429" lon="23.9423">
        <ele>634.561856</ele>
        <time>2022-03-08T10:53:49.745Z</time>
      </trkpt>
      <trkpt lat="42.64296" lon="23.9422">
        <ele>634.73459</ele>
        <time>2022-03-08T10:53:52.758Z</time>
      </trkpt>
      <trkpt lat="42.64302" lon="23.94208">
        <ele>634.670558</ele>
        <time>2022-03-08T10:53:55.752Z</time>
      </trkpt>
      <trkpt lat="42.64307" lon="23.94196">
        <ele>634.548448</ele>
        <time>2022-03-08T10:53:58.749Z</time>
      </trkpt>
      <trkpt lat="42.64313" lon="23.94184">
        <ele>634.426104</ele>
        <time>2022-03-08T10:54:01.744Z</time>
      </trkpt>
      <trkpt lat="42.64319" lon="23.94172">
        <ele>634.298691</ele>
        <time>2022-03-08T10:54:04.761Z</time>
      </trkpt>
      <trkpt lat="42.64324" lon="23.94159">
        <ele>634.173228</ele>
        <time>2022-03-08T10:54:07.744Z</time>
      </trkpt>
      <trkpt lat="42.6433" lon="23.94146">
        <ele>634.042706</ele>
        <time>2022-03-08T10:54:10.760Z</time>
      </trkpt>
      <trkpt lat="42.64336" lon="23.94133">
        <ele>633.913402</ele>
        <time>2022-03-08T10:54:13.752Z</time>
      </trkpt>
      <trkpt lat="42.64341" lon="23.94121">
        <ele>633.787644</ele>
        <time>2022-03-08T10:54:16.778Z</time>
      </trkpt>
      <trkpt lat="42.64347" lon="23.94108">
        <ele>633.660271</ele>
        <time>2022-03-08T10:54:19.756Z</time>
      </trkpt>
      <trkpt lat="42.64353" lon="23.94095">
        <ele>633.534732</ele>
        <time>2022-03-08T10:54:22.764Z</time>
      </trkpt>
      <trkpt lat="42.64359" lon="23.94083">
        <ele>633.408559</ele>
        <time>2022-03-08T10:54:25.756Z</time>
      </trkpt>
      <trkpt lat="42.64365" lon="23.94071">
        <ele>633.279104</ele>
        <time>2022-03-08T10:54:28.753Z</time>
      </trkpt>
      <trkpt lat="42.64372" lon="23.94058">
        <ele>633.144117</ele>
        <time>2022-03-08T10:54:31.781Z</time>
      </trkpt>
      <trkpt lat="42.64379" lon="23.94045">
        <ele>633.00084</ele>
        <time>2022-03-08T10:54:34.753Z</time>
      </trkpt>
      <trkpt lat="42.64386" lon="23.94031">
        <ele>632.860332</ele>
        <time>2022-03-08T10:54:37.742Z</time>
      </trkpt>
      <trkpt lat="42.64393" lon="23.94019">
        <ele>632.72536</ele>
        <time>2022-03-08T10:54:40.752Z</time>
      </trkpt>
      <trkpt lat="42.644" lon="23.94007">
        <ele>632.527005</ele>
        <time>2022-03-08T10:54:43.729Z</time>
      </trkpt>
      <trkpt lat="42.64408" lon="23.93995">
        <ele>632.261269</ele>
        <time>2022-03-08T10:54:46.746Z</time>
      </trkpt>
      <trkpt lat="42.64416" lon="23.93983">
        <ele>631.990962</ele>
        <time>2022-03-08T10:54:49.752Z</time>
      </trkpt>
      <trkpt lat="42.64424" lon="23.93972">
        <ele>631.725512</ele>
        <time>2022-03-08T10:54:52.756Z</time>
      </trkpt>
      <trkpt lat="42.64432" lon="23.93961">
        <ele>631.469206</ele>
        <time>2022-03-08T10:54:55.782Z</time>
      </trkpt>
      <trkpt lat="42.6444" lon="23.9395">
        <ele>631.213275</ele>
        <time>2022-03-08T10:54:58.743Z</time>
      </trkpt>
      <trkpt lat="42.64448" lon="23.93938">
        <ele>630.954572</ele>
        <time>2022-03-08T10:55:01.752Z</time>
      </trkpt>
      <trkpt lat="42.64456" lon="23.93928">
        <ele>630.701531</ele>
        <time>2022-03-08T10:55:04.757Z</time>
      </trkpt>
      <trkpt lat="42.64465" lon="23.93918">
        <ele>630.43725</ele>
        <time>2022-03-08T10:55:07.750Z</time>
      </trkpt>
      <trkpt lat="42.64473" lon="23.93907">
        <ele>630.175819</ele>
        <time>2022-03-08T10:55:10.752Z</time>
      </trkpt>
      <trkpt lat="42.64482" lon="23.93896">
        <ele>629.907978</ele>
        <time>2022-03-08T10:55:13.751Z</time>
      </trkpt>
      <trkpt lat="42.6449" lon="23.93884">
        <ele>629.640111</ele>
        <time>2022-03-08T10:55:16.751Z</time>
      </trkpt>
      <trkpt lat="42.64498" lon="23.93873">
        <ele>629.373877</ele>
        <time>2022-03-08T10:55:19.734Z</time>
      </trkpt>
      <trkpt lat="42.64507" lon="23.93862">
        <ele>629.106247</ele>
        <time>2022-03-08T10:55:22.784Z</time>
      </trkpt>
      <trkpt lat="42.64515" lon="23.9385">
        <ele>628.834005</ele>
        <time>2022-03-08T10:55:25.786Z</time>
      </trkpt>
      <trkpt lat="42.64524" lon="23.93839">
        <ele>628.576341</ele>
        <time>2022-03-08T10:55:28.787Z</time>
      </trkpt>
      <trkpt lat="42.64532" lon="23.93828">
        <ele>628.383423</ele>
        <time>2022-03-08T10:55:31.769Z</time>
      </trkpt>
      <trkpt lat="42.64539" lon="23.93815">
        <ele>628.185911</ele>
        <time>2022-03-08T10:55:34.744Z</time>
      </trkpt>
      <trkpt lat="42.64547" lon="23.93803">
        <ele>627.99198</ele>
        <time>2022-03-08T10:55:37.752Z</time>
      </trkpt>
      <trkpt lat="42.64555" lon="23.9379">
        <ele>627.798049</ele>
        <time>2022-03-08T10:55:40.760Z</time>
      </trkpt>
      <trkpt lat="42.64561" lon="23.93777">
        <ele>627.608439</ele>
        <time>2022-03-08T10:55:43.758Z</time>
      </trkpt>
      <trkpt lat="42.64568" lon="23.93763">
        <ele>627.405183</ele>
        <time>2022-03-08T10:55:46.748Z</time>
      </trkpt>
      <trkpt lat="42.64575" lon="23.9375">
        <ele>627.201992</ele>
        <time>2022-03-08T10:55:49.824Z</time>
      </trkpt>
      <trkpt lat="42.64582" lon="23.93735">
        <ele>626.991452</ele>
        <time>2022-03-08T10:55:52.737Z</time>
      </trkpt>
      <trkpt lat="42.64587" lon="23.93724">
        <ele>626.845312</ele>
        <time>2022-03-08T10:55:54.757Z</time>
      </trkpt>
      <trkpt lat="42.64591" lon="23.93712">
        <ele>626.691079</ele>
        <time>2022-03-08T10:55:56.736Z</time>
      </trkpt>
      <trkpt lat="42.64594" lon="23.93701">
        <ele>626.540537</ele>
        <time>2022-03-08T10:55:58.756Z</time>
      </trkpt>
      <trkpt lat="42.64598" lon="23.93689">
        <ele>626.392214</ele>
        <time>2022-03-08T10:56:00.794Z</time>
      </trkpt>
      <trkpt lat="42.64601" lon="23.93678">
        <ele>626.237982</ele>
        <time>2022-03-08T10:56:02.742Z</time>
      </trkpt>
      <trkpt lat="42.64605" lon="23.93666">
        <ele>626.080012</ele>
        <time>2022-03-08T10:56:04.759Z</time>
      </trkpt>
      <trkpt lat="42.6461" lon="23.93654">
        <ele>625.927253</ele>
        <time>2022-03-08T10:56:06.751Z</time>
      </trkpt>
      <trkpt lat="42.64613" lon="23.93642">
        <ele>625.771025</ele>
        <time>2022-03-08T10:56:08.747Z</time>
      </trkpt>
      <trkpt lat="42.64617" lon="23.9363">
        <ele>625.651759</ele>
        <time>2022-03-08T10:56:10.745Z</time>
      </trkpt>
      <trkpt lat="42.6462" lon="23.93618">
        <ele>625.644882</ele>
        <time>2022-03-08T10:56:12.746Z</time>
      </trkpt>
      <trkpt lat="42.64624" lon="23.936">
        <ele>625.634998</ele>
        <time>2022-03-08T10:56:15.748Z</time>
      </trkpt>
      <trkpt lat="42.64628" lon="23.93588">
        <ele>625.627798</ele>
        <time>2022-03-08T10:56:17.790Z</time>
      </trkpt>
      <trkpt lat="42.64631" lon="23.93575">
        <ele>625.620624</ele>
        <time>2022-03-08T10:56:19.754Z</time>
      </trkpt>
      <trkpt lat="42.64635" lon="23.93563">
        <ele>625.613857</ele>
        <time>2022-03-08T10:56:21.748Z</time>
      </trkpt>
      <trkpt lat="42.64638" lon="23.93552">
        <ele>625.607251</ele>
        <time>2022-03-08T10:56:23.738Z</time>
      </trkpt>
      <trkpt lat="42.64642" lon="23.93539">
        <ele>625.600299</ele>
        <time>2022-03-08T10:56:25.753Z</time>
      </trkpt>
      <trkpt lat="42.64645" lon="23.93527">
        <ele>625.593497</ele>
        <time>2022-03-08T10:56:27.759Z</time>
      </trkpt>
      <trkpt lat="42.64648" lon="23.93515">
        <ele>625.586815</ele>
        <time>2022-03-08T10:56:29.741Z</time>
      </trkpt>
      <trkpt lat="42.64652" lon="23.93503">
        <ele>625.579988</ele>
        <time>2022-03-08T10:56:31.736Z</time>
      </trkpt>
      <trkpt lat="42.64655" lon="23.93491">
        <ele>625.572959</ele>
        <time>2022-03-08T10:56:33.734Z</time>
      </trkpt>
      <trkpt lat="42.64659" lon="23.93479">
        <ele>625.566018</ele>
        <time>2022-03-08T10:56:35.744Z</time>
      </trkpt>
      <trkpt lat="42.64663" lon="23.93467">
        <ele>625.559145</ele>
        <time>2022-03-08T10:56:37.756Z</time>
      </trkpt>
      <trkpt lat="42.64667" lon="23.93455">
        <ele>625.552175</ele>
        <time>2022-03-08T10:56:39.745Z</time>
      </trkpt>
      <trkpt lat="42.6467" lon="23.93443">
        <ele>625.545291</ele>
        <time>2022-03-08T10:56:41.735Z</time>
      </trkpt>
      <trkpt lat="42.64674" lon="23.93431">
        <ele>625.53831</ele>
        <time>2022-03-08T10:56:43.727Z</time>
      </trkpt>
      <trkpt lat="42.64677" lon="23.93419">
        <ele>625.531631</ele>
        <time>2022-03-08T10:56:45.792Z</time>
      </trkpt>
      <trkpt lat="42.6468" lon="23.93407">
        <ele>625.524912</ele>
        <time>2022-03-08T10:56:47.766Z</time>
      </trkpt>
      <trkpt lat="42.64684" lon="23.93393">
        <ele>625.405225</ele>
        <time>2022-03-08T10:56:49.753Z</time>
      </trkpt>
      <trkpt lat="42.64688" lon="23.9338">
        <ele>625.264397</ele>
        <time>2022-03-08T10:56:51.740Z</time>
      </trkpt>
      <trkpt lat="42.64694" lon="23.93367">
        <ele>625.121312</ele>
        <time>2022-03-08T10:56:53.767Z</time>
      </trkpt>
      <trkpt lat="42.64701" lon="23.93353">
        <ele>624.969803</ele>
        <time>2022-03-08T10:56:55.759Z</time>
      </trkpt>
      <trkpt lat="42.64706" lon="23.9334">
        <ele>624.820342</ele>
        <time>2022-03-08T10:56:57.753Z</time>
      </trkpt>
      <trkpt lat="42.64713" lon="23.93326">
        <ele>624.662079</ele>
        <time>2022-03-08T10:56:59.734Z</time>
      </trkpt>
      <trkpt lat="42.64721" lon="23.93312">
        <ele>624.504587</ele>
        <time>2022-03-08T10:57:01.743Z</time>
      </trkpt>
      <trkpt lat="42.64728" lon="23.93299">
        <ele>624.347835</ele>
        <time>2022-03-08T10:57:03.750Z</time>
      </trkpt>
      <trkpt lat="42.64735" lon="23.93286">
        <ele>624.194169</ele>
        <time>2022-03-08T10:57:05.763Z</time>
      </trkpt>
      <trkpt lat="42.64741" lon="23.93273">
        <ele>624.048094</ele>
        <time>2022-03-08T10:57:07.773Z</time>
      </trkpt>
      <trkpt lat="42.64748" lon="23.9326">
        <ele>623.896642</ele>
        <time>2022-03-08T10:57:09.755Z</time>
      </trkpt>
      <trkpt lat="42.64755" lon="23.93247">
        <ele>623.74825</ele>
        <time>2022-03-08T10:57:11.744Z</time>
      </trkpt>
      <trkpt lat="42.64761" lon="23.93235">
        <ele>623.60292</ele>
        <time>2022-03-08T10:57:13.752Z</time>
      </trkpt>
      <trkpt lat="42.64768" lon="23.93224">
        <ele>623.4695</ele>
        <time>2022-03-08T10:57:15.749Z</time>
      </trkpt>
      <trkpt lat="42.64775" lon="23.93213">
        <ele>623.33463</ele>
        <time>2022-03-08T10:57:17.733Z</time>
      </trkpt>
      <trkpt lat="42.64781" lon="23.93202">
        <ele>623.215513</ele>
        <time>2022-03-08T10:57:19.749Z</time>
      </trkpt>
      <trkpt lat="42.64787" lon="23.93191">
        <ele>623.224269</ele>
        <time>2022-03-08T10:57:21.758Z</time>
      </trkpt>
      <trkpt lat="42.64792" lon="23.9318">
        <ele>623.23316</ele>
        <time>2022-03-08T10:57:23.743Z</time>
      </trkpt>
      <trkpt lat="42.64796" lon="23.9317">
        <ele>623.241732</ele>
        <time>2022-03-08T10:57:25.746Z</time>
      </trkpt>
      <trkpt lat="42.64804" lon="23.93156">
        <ele>623.253178</ele>
        <time>2022-03-08T10:57:28.753Z</time>
      </trkpt>
      <trkpt lat="42.64811" lon="23.93141">
        <ele>623.265289</ele>
        <time>2022-03-08T10:57:31.760Z</time>
      </trkpt>
      <trkpt lat="42.64818" lon="23.93127">
        <ele>623.277015</ele>
        <time>2022-03-08T10:57:34.742Z</time>
      </trkpt>
      <trkpt lat="42.64825" lon="23.93112">
        <ele>623.289171</ele>
        <time>2022-03-08T10:57:37.786Z</time>
      </trkpt>
      <trkpt lat="42.64832" lon="23.93097">
        <ele>623.301151</ele>
        <time>2022-03-08T10:57:40.765Z</time>
      </trkpt>
      <trkpt lat="42.64837" lon="23.93082">
        <ele>623.31226</ele>
        <time>2022-03-08T10:57:43.763Z</time>
      </trkpt>
      <trkpt lat="42.64842" lon="23.93068">
        <ele>623.323087</ele>
        <time>2022-03-08T10:57:46.767Z</time>
      </trkpt>
      <trkpt lat="42.64846" lon="23.93053">
        <ele>623.33348</ele>
        <time>2022-03-08T10:57:49.760Z</time>
      </trkpt>
      <trkpt lat="42.64851" lon="23.9304">
        <ele>623.34375</ele>
        <time>2022-03-08T10:57:52.775Z</time>
      </trkpt>
      <trkpt lat="42.64855" lon="23.93026">
        <ele>623.353521</ele>
        <time>2022-03-08T10:57:55.764Z</time>
      </trkpt>
      <trkpt lat="42.64859" lon="23.93014">
        <ele>623.362751</ele>
        <time>2022-03-08T10:57:58.743Z</time>
      </trkpt>
      <trkpt lat="42.64864" lon="23.93002">
        <ele>623.371808</ele>
        <time>2022-03-08T10:58:01.766Z</time>
      </trkpt>
      <trkpt lat="42.64868" lon="23.9299">
        <ele>623.38248</ele>
        <time>2022-03-08T10:58:04.743Z</time>
      </trkpt>
      <trkpt lat="42.64872" lon="23.92978">
        <ele>623.552139</ele>
        <time>2022-03-08T10:58:07.736Z</time>
      </trkpt>
      <trkpt lat="42.64876" lon="23.92966">
        <ele>623.723174</ele>
        <time>2022-03-08T10:58:10.761Z</time>
      </trkpt>
      <trkpt lat="42.64881" lon="23.92955">
        <ele>623.896274</ele>
        <time>2022-03-08T10:58:13.745Z</time>
      </trkpt>
      <trkpt lat="42.64886" lon="23.92943">
        <ele>624.073668</ele>
        <time>2022-03-08T10:58:16.746Z</time>
      </trkpt>
      <trkpt lat="42.64891" lon="23.9293">
        <ele>624.263091</ele>
        <time>2022-03-08T10:58:19.753Z</time>
      </trkpt>
      <trkpt lat="42.64895" lon="23.92918">
        <ele>624.44528</ele>
        <time>2022-03-08T10:58:22.754Z</time>
      </trkpt>
      <trkpt lat="42.64899" lon="23.92905">
        <ele>624.627119</ele>
        <time>2022-03-08T10:58:25.772Z</time>
      </trkpt>
      <trkpt lat="42.64904" lon="23.92894">
        <ele>624.793243</ele>
        <time>2022-03-08T10:58:28.751Z</time>
      </trkpt>
      <trkpt lat="42.64907" lon="23.92883">
        <ele>624.953102</ele>
        <time>2022-03-08T10:58:31.772Z</time>
      </trkpt>
      <trkpt lat="42.64912" lon="23.92872">
        <ele>625.120772</ele>
        <time>2022-03-08T10:58:34.733Z</time>
      </trkpt>
      <trkpt lat="42.64917" lon="23.92861">
        <ele>625.285549</ele>
        <time>2022-03-08T10:58:37.778Z</time>
      </trkpt>
      <trkpt lat="42.64922" lon="23.9285">
        <ele>625.453902</ele>
        <time>2022-03-08T10:58:40.767Z</time>
      </trkpt>
      <trkpt lat="42.64927" lon="23.92838">
        <ele>625.63082</ele>
        <time>2022-03-08T10:58:43.737Z</time>
      </trkpt>
      <trkpt lat="42.64931" lon="23.92827">
        <ele>625.791859</ele>
        <time>2022-03-08T10:58:46.755Z</time>
      </trkpt>
      <trkpt lat="42.64935" lon="23.92816">
        <ele>625.956092</ele>
        <time>2022-03-08T10:58:49.785Z</time>
      </trkpt>
      <trkpt lat="42.64939" lon="23.92805">
        <ele>626.120604</ele>
        <time>2022-03-08T10:58:52.734Z</time>
      </trkpt>
      <trkpt lat="42.64944" lon="23.92794">
        <ele>626.28561</ele>
        <time>2022-03-08T10:58:55.774Z</time>
      </trkpt>
      <trkpt lat="42.64949" lon="23.92784">
        <ele>626.447856</ele>
        <time>2022-03-08T10:58:58.767Z</time>
      </trkpt>
      <trkpt lat="42.64953" lon="23.92773">
        <ele>626.606091</ele>
        <time>2022-03-08T10:59:01.735Z</time>
      </trkpt>
      <trkpt lat="42.64957" lon="23.92762">
        <ele>626.752958</ele>
        <time>2022-03-08T10:59:04.743Z</time>
      </trkpt>
      <trkpt lat="42.64962" lon="23.92751">
        <ele>626.900023</ele>
        <time>2022-03-08T10:59:07.760Z</time>
      </trkpt>
      <trkpt lat="42.64966" lon="23.9274">
        <ele>627.047781</ele>
        <time>2022-03-08T10:59:10.744Z</time>
      </trkpt>
      <trkpt lat="42.64971" lon="23.9273">
        <ele>627.193607</ele>
        <time>2022-03-08T10:59:13.755Z</time>
      </trkpt>
      <trkpt lat="42.64977" lon="23.92716">
        <ele>627.386291</ele>
        <time>2022-03-08T10:59:17.771Z</time>
      </trkpt>
      <trkpt lat="42.64983" lon="23.92706">
        <ele>627.532914</ele>
        <time>2022-03-08T10:59:20.780Z</time>
      </trkpt>
      <trkpt lat="42.6499" lon="23.92693">
        <ele>627.727446</ele>
        <time>2022-03-08T10:59:24.763Z</time>
      </trkpt>
      <trkpt lat="42.64996" lon="23.9268">
        <ele>627.910758</ele>
        <time>2022-03-08T10:59:28.771Z</time>
      </trkpt>
      <trkpt lat="42.65003" lon="23.92669">
        <ele>628.080781</ele>
        <time>2022-03-08T10:59:32.742Z</time>
      </trkpt>
      <trkpt lat="42.6501" lon="23.92658">
        <ele>628.252758</ele>
        <time>2022-03-08T10:59:36.743Z</time>
      </trkpt>
      <trkpt lat="42.65017" lon="23.92648">
        <ele>628.421336</ele>
        <time>2022-03-08T10:59:40.745Z</time>
      </trkpt>
      <trkpt lat="42.65024" lon="23.92637">
        <ele>628.592103</ele>
        <time>2022-03-08T10:59:44.761Z</time>
      </trkpt>
      <trkpt lat="42.65033" lon="23.92627">
        <ele>628.7759</ele>
        <time>2022-03-08T10:59:48.787Z</time>
      </trkpt>
      <trkpt lat="42.65041" lon="23.9262">
        <ele>628.933072</ele>
        <time>2022-03-08T10:59:52.752Z</time>
      </trkpt>
      <trkpt lat="42.65049" lon="23.92613">
        <ele>629.087988</ele>
        <time>2022-03-08T10:59:56.733Z</time>
      </trkpt>
      <trkpt lat="42.65058" lon="23.92607">
        <ele>629.259642</ele>
        <time>2022-03-08T11:00:00.743Z</time>
      </trkpt>
      <trkpt lat="42.65067" lon="23.926">
        <ele>629.427338</ele>
        <time>2022-03-08T11:00:04.758Z</time>
      </trkpt>
      <trkpt lat="42.65074" lon="23.92591">
        <ele>629.474664</ele>
        <time>2022-03-08T11:00:07.755Z</time>
      </trkpt>
      <trkpt lat="42.65081" lon="23.92583">
        <ele>629.444734</ele>
        <time>2022-03-08T11:00:10.743Z</time>
      </trkpt>
      <trkpt lat="42.65088" lon="23.92574">
        <ele>629.414729</ele>
        <time>2022-03-08T11:00:13.747Z</time>
      </trkpt>
      <trkpt lat="42.65096" lon="23.92564">
        <ele>629.378244</ele>
        <time>2022-03-08T11:00:17.751Z</time>
      </trkpt>
      <trkpt lat="42.65103" lon="23.92554">
        <ele>629.346181</ele>
        <time>2022-03-08T11:00:21.753Z</time>
      </trkpt>
      <trkpt lat="42.6511" lon="23.92544">
        <ele>629.313326</ele>
        <time>2022-03-08T11:00:25.760Z</time>
      </trkpt>
      <trkpt lat="42.65117" lon="23.92534">
        <ele>629.280919</ele>
        <time>2022-03-08T11:00:29.750Z</time>
      </trkpt>
      <trkpt lat="42.65124" lon="23.92524">
        <ele>629.247155</ele>
        <time>2022-03-08T11:00:33.758Z</time>
      </trkpt>
      <trkpt lat="42.6513" lon="23.92511">
        <ele>629.21149</ele>
        <time>2022-03-08T11:00:37.745Z</time>
      </trkpt>
      <trkpt lat="42.65135" lon="23.92498">
        <ele>629.175933</ele>
        <time>2022-03-08T11:00:41.767Z</time>
      </trkpt>
      <trkpt lat="42.6514" lon="23.92485">
        <ele>629.141794</ele>
        <time>2022-03-08T11:00:45.742Z</time>
      </trkpt>
      <trkpt lat="42.65144" lon="23.92473">
        <ele>629.109509</ele>
        <time>2022-03-08T11:00:49.747Z</time>
      </trkpt>
      <trkpt lat="42.65149" lon="23.9246">
        <ele>629.07509</ele>
        <time>2022-03-08T11:00:53.761Z</time>
      </trkpt>
      <trkpt lat="42.65153" lon="23.92446">
        <ele>629.038479</ele>
        <time>2022-03-08T11:00:57.747Z</time>
      </trkpt>
      <trkpt lat="42.65156" lon="23.9243">
        <ele>629.001</ele>
        <time>2022-03-08T11:01:01.757Z</time>
      </trkpt>
      <trkpt lat="42.65159" lon="23.92417">
        <ele>628.966715</ele>
        <time>2022-03-08T11:01:05.758Z</time>
      </trkpt>
      <trkpt lat="42.65163" lon="23.92404">
        <ele>628.933814</ele>
        <time>2022-03-08T11:01:09.753Z</time>
      </trkpt>
      <trkpt lat="42.65165" lon="23.92389">
        <ele>629.054584</ele>
        <time>2022-03-08T11:01:13.757Z</time>
      </trkpt>
      <trkpt lat="42.65167" lon="23.92375">
        <ele>629.506269</ele>
        <time>2022-03-08T11:01:17.745Z</time>
      </trkpt>
      <trkpt lat="42.65169" lon="23.92361">
        <ele>629.949149</ele>
        <time>2022-03-08T11:01:21.759Z</time>
      </trkpt>
      <trkpt lat="42.6517" lon="23.92346">
        <ele>630.433636</ele>
        <time>2022-03-08T11:01:25.753Z</time>
      </trkpt>
      <trkpt lat="42.65172" lon="23.92331">
        <ele>630.928481</ele>
        <time>2022-03-08T11:01:29.799Z</time>
      </trkpt>
      <trkpt lat="42.65175" lon="23.92316">
        <ele>631.417989</ele>
        <time>2022-03-08T11:01:33.748Z</time>
      </trkpt>
      <trkpt lat="42.65178" lon="23.92302">
        <ele>631.867625</ele>
        <time>2022-03-08T11:01:37.751Z</time>
      </trkpt>
      <trkpt lat="42.65181" lon="23.92289">
        <ele>632.308008</ele>
        <time>2022-03-08T11:01:41.752Z</time>
      </trkpt>
      <trkpt lat="42.65184" lon="23.92275">
        <ele>632.764135</ele>
        <time>2022-03-08T11:01:45.757Z</time>
      </trkpt>
      <trkpt lat="42.65188" lon="23.92263">
        <ele>633.173536</ele>
        <time>2022-03-08T11:01:49.768Z</time>
      </trkpt>
      <trkpt lat="42.65192" lon="23.9225">
        <ele>633.625939</ele>
        <time>2022-03-08T11:01:53.745Z</time>
      </trkpt>
      <trkpt lat="42.65197" lon="23.92236">
        <ele>634.097139</ele>
        <time>2022-03-08T11:01:57.774Z</time>
      </trkpt>
      <trkpt lat="42.65202" lon="23.92223">
        <ele>634.575884</ele>
        <time>2022-03-08T11:02:01.767Z</time>
      </trkpt>
      <trkpt lat="42.65207" lon="23.92209">
        <ele>635.046199</ele>
        <time>2022-03-08T11:02:05.751Z</time>
      </trkpt>
      <trkpt lat="42.65211" lon="23.92197">
        <ele>635.476638</ele>
        <time>2022-03-08T11:02:09.749Z</time>
      </trkpt>
      <trkpt lat="42.65214" lon="23.92183">
        <ele>635.921589</ele>
        <time>2022-03-08T11:02:13.727Z</time>
      </trkpt>
      <trkpt lat="42.65218" lon="23.92171">
        <ele>636.346799</ele>
        <time>2022-03-08T11:02:17.755Z</time>
      </trkpt>
      <trkpt lat="42.65222" lon="23.92158">
        <ele>636.752651</ele>
        <time>2022-03-08T11:02:21.746Z</time>
      </trkpt>
      <trkpt lat="42.65226" lon="23.92146">
        <ele>637.109873</ele>
        <time>2022-03-08T11:02:25.756Z</time>
      </trkpt>
      <trkpt lat="42.6523" lon="23.92132">
        <ele>637.490039</ele>
        <time>2022-03-08T11:02:29.776Z</time>
      </trkpt>
      <trkpt lat="42.65235" lon="23.92119">
        <ele>637.864661</ele>
        <time>2022-03-08T11:02:33.747Z</time>
      </trkpt>
      <trkpt lat="42.65239" lon="23.92106">
        <ele>638.233305</ele>
        <time>2022-03-08T11:02:37.758Z</time>
      </trkpt>
      <trkpt lat="42.65243" lon="23.92095">
        <ele>638.579768</ele>
        <time>2022-03-08T11:02:41.779Z</time>
      </trkpt>
      <trkpt lat="42.65248" lon="23.92082">
        <ele>638.948946</ele>
        <time>2022-03-08T11:02:45.760Z</time>
      </trkpt>
      <trkpt lat="42.65252" lon="23.92069">
        <ele>639.325783</ele>
        <time>2022-03-08T11:02:49.755Z</time>
      </trkpt>
      <trkpt lat="42.65256" lon="23.92056">
        <ele>639.677777</ele>
        <time>2022-03-08T11:02:53.742Z</time>
      </trkpt>
      <trkpt lat="42.6526" lon="23.92044">
        <ele>640.032591</ele>
        <time>2022-03-08T11:02:57.802Z</time>
      </trkpt>
      <trkpt lat="42.65266" lon="23.92031">
        <ele>640.427679</ele>
        <time>2022-03-08T11:03:02.740Z</time>
      </trkpt>
      <trkpt lat="42.65271" lon="23.9202">
        <ele>640.758943</ele>
        <time>2022-03-08T11:03:06.767Z</time>
      </trkpt>
      <trkpt lat="42.65277" lon="23.9201">
        <ele>641.115067</ele>
        <time>2022-03-08T11:03:10.742Z</time>
      </trkpt>
      <trkpt lat="42.65284" lon="23.92">
        <ele>641.457121</ele>
        <time>2022-03-08T11:03:14.762Z</time>
      </trkpt>
      <trkpt lat="42.65291" lon="23.91991">
        <ele>641.792468</ele>
        <time>2022-03-08T11:03:18.755Z</time>
      </trkpt>
      <trkpt lat="42.65298" lon="23.91984">
        <ele>642.118427</ele>
        <time>2022-03-08T11:03:22.745Z</time>
      </trkpt>
      <trkpt lat="42.65305" lon="23.91974">
        <ele>642.491641</ele>
        <time>2022-03-08T11:03:27.780Z</time>
      </trkpt>
      <trkpt lat="42.65314" lon="23.91965">
        <ele>642.875632</ele>
        <time>2022-03-08T11:03:32.758Z</time>
      </trkpt>
      <trkpt lat="42.65322" lon="23.91958">
        <ele>642.979085</ele>
        <time>2022-03-08T11:03:37.799Z</time>
      </trkpt>
      <trkpt lat="42.65331" lon="23.91951">
        <ele>642.943538</ele>
        <time>2022-03-08T11:03:42.737Z</time>
      </trkpt>
      <trkpt lat="42.65339" lon="23.91945">
        <ele>642.91159</ele>
        <time>2022-03-08T11:03:46.754Z</time>
      </trkpt>
      <trkpt lat="42.65347" lon="23.91936">
        <ele>642.874974</ele>
        <time>2022-03-08T11:03:51.751Z</time>
      </trkpt>
      <trkpt lat="42.65355" lon="23.91928">
        <ele>642.839818</ele>
        <time>2022-03-08T11:03:56.754Z</time>
      </trkpt>
      <trkpt lat="42.65363" lon="23.9192">
        <ele>642.804377</ele>
        <time>2022-03-08T11:04:01.753Z</time>
      </trkpt>
      <trkpt lat="42.65372" lon="23.91912">
        <ele>642.769068</ele>
        <time>2022-03-08T11:04:06.747Z</time>
      </trkpt>
      <trkpt lat="42.65379" lon="23.91905">
        <ele>642.737337</ele>
        <time>2022-03-08T11:04:11.800Z</time>
      </trkpt>
      <trkpt lat="42.65388" lon="23.91898">
        <ele>642.700498</ele>
        <time>2022-03-08T11:04:17.755Z</time>
      </trkpt>
      <trkpt lat="42.65396" lon="23.91892">
        <ele>642.66823</ele>
        <time>2022-03-08T11:04:22.793Z</time>
      </trkpt>
      <trkpt lat="42.65405" lon="23.91885">
        <ele>642.632253</ele>
        <time>2022-03-08T11:04:27.754Z</time>
      </trkpt>
      <trkpt lat="42.65413" lon="23.91878">
        <ele>642.598253</ele>
        <time>2022-03-08T11:04:32.775Z</time>
      </trkpt>
      <trkpt lat="42.65422" lon="23.91872">
        <ele>642.564857</ele>
        <time>2022-03-08T11:04:37.756Z</time>
      </trkpt>
      <trkpt lat="42.6543" lon="23.91867">
        <ele>642.532947</ele>
        <time>2022-03-08T11:04:42.762Z</time>
      </trkpt>
      <trkpt lat="42.65438" lon="23.9186">
        <ele>642.498952</ele>
        <time>2022-03-08T11:04:47.737Z</time>
      </trkpt>
      <trkpt lat="42.65447" lon="23.91854">
        <ele>642.462796</ele>
        <time>2022-03-08T11:04:52.775Z</time>
      </trkpt>
      <trkpt lat="42.65456" lon="23.91847">
        <ele>642.427505</ele>
        <time>2022-03-08T11:04:57.762Z</time>
      </trkpt>
      <trkpt lat="42.65464" lon="23.91839">
        <ele>642.392632</ele>
        <time>2022-03-08T11:05:02.760Z</time>
      </trkpt>
      <trkpt lat="42.65474" lon="23.91832">
        <ele>642.504188</ele>
        <time>2022-03-08T11:05:08.746Z</time>
      </trkpt>
      <trkpt lat="42.65482" lon="23.91827">
        <ele>642.801927</ele>
        <time>2022-03-08T11:05:13.737Z</time>
      </trkpt>
      <trkpt lat="42.65491" lon="23.9182">
        <ele>643.130718</ele>
        <time>2022-03-08T11:05:18.779Z</time>
      </trkpt>
      <trkpt lat="42.655" lon="23.91812">
        <ele>643.472382</ele>
        <time>2022-03-08T11:05:23.767Z</time>
      </trkpt>
      <trkpt lat="42.65508" lon="23.91807">
        <ele>643.772027</ele>
        <time>2022-03-08T11:05:28.792Z</time>
      </trkpt>
      <trkpt lat="42.65517" lon="23.91802">
        <ele>644.071649</ele>
        <time>2022-03-08T11:05:33.762Z</time>
      </trkpt>
      <trkpt lat="42.65525" lon="23.91796">
        <ele>644.374404</ele>
        <time>2022-03-08T11:05:38.752Z</time>
      </trkpt>
      <trkpt lat="42.65534" lon="23.91789">
        <ele>644.694631</ele>
        <time>2022-03-08T11:05:43.785Z</time>
      </trkpt>
      <trkpt lat="42.65543" lon="23.91782">
        <ele>645.04423</ele>
        <time>2022-03-08T11:05:48.751Z</time>
      </trkpt>
      <trkpt lat="42.65553" lon="23.91775">
        <ele>645.405871</ele>
        <time>2022-03-08T11:05:53.755Z</time>
      </trkpt>
      <trkpt lat="42.65563" lon="23.91768">
        <ele>645.77417</ele>
        <time>2022-03-08T11:05:58.749Z</time>
      </trkpt>
      <trkpt lat="42.65572" lon="23.91761">
        <ele>646.104571</ele>
        <time>2022-03-08T11:06:02.739Z</time>
      </trkpt>
      <trkpt lat="42.65581" lon="23.91754">
        <ele>646.428791</ele>
        <time>2022-03-08T11:06:06.759Z</time>
      </trkpt>
      <trkpt lat="42.65588" lon="23.91747">
        <ele>646.726187</ele>
        <time>2022-03-08T11:06:10.752Z</time>
      </trkpt>
      <trkpt lat="42.65596" lon="23.9174">
        <ele>647.027957</ele>
        <time>2022-03-08T11:06:14.738Z</time>
      </trkpt>
      <trkpt lat="42.65605" lon="23.91732">
        <ele>647.352052</ele>
        <time>2022-03-08T11:06:18.762Z</time>
      </trkpt>
      <trkpt lat="42.65612" lon="23.91724">
        <ele>647.682906</ele>
        <time>2022-03-08T11:06:22.781Z</time>
      </trkpt>
      <trkpt lat="42.6562" lon="23.91715">
        <ele>648.008819</ele>
        <time>2022-03-08T11:06:26.743Z</time>
      </trkpt>
      <trkpt lat="42.65627" lon="23.91703">
        <ele>648.136587</ele>
        <time>2022-03-08T11:06:30.770Z</time>
      </trkpt>
      <trkpt lat="42.65632" lon="23.91693">
        <ele>648.082839</ele>
        <time>2022-03-08T11:06:33.783Z</time>
      </trkpt>
      <trkpt lat="42.65637" lon="23.91681">
        <ele>648.021644</ele>
        <time>2022-03-08T11:06:37.766Z</time>
      </trkpt>
      <trkpt lat="42.65642" lon="23.91668">
        <ele>647.960469</ele>
        <time>2022-03-08T11:06:41.755Z</time>
      </trkpt>
      <trkpt lat="42.65647" lon="23.91656">
        <ele>647.904034</ele>
        <time>2022-03-08T11:06:45.764Z</time>
      </trkpt>
      <trkpt lat="42.65651" lon="23.91645">
        <ele>647.847228</ele>
        <time>2022-03-08T11:06:49.786Z</time>
      </trkpt>
      <trkpt lat="42.65656" lon="23.91633">
        <ele>647.788931</ele>
        <time>2022-03-08T11:06:53.753Z</time>
      </trkpt>
      <trkpt lat="42.6566" lon="23.91621">
        <ele>647.729656</ele>
        <time>2022-03-08T11:06:57.771Z</time>
      </trkpt>
      <trkpt lat="42.65664" lon="23.91608">
        <ele>647.670084</ele>
        <time>2022-03-08T11:07:01.740Z</time>
      </trkpt>
      <trkpt lat="42.65666" lon="23.91595">
        <ele>647.613109</ele>
        <time>2022-03-08T11:07:05.765Z</time>
      </trkpt>
      <trkpt lat="42.65668" lon="23.91582">
        <ele>647.554882</ele>
        <time>2022-03-08T11:07:09.769Z</time>
      </trkpt>
      <trkpt lat="42.65669" lon="23.91567">
        <ele>647.492458</ele>
        <time>2022-03-08T11:07:13.758Z</time>
      </trkpt>
      <trkpt lat="42.6567" lon="23.91554">
        <ele>647.435428</ele>
        <time>2022-03-08T11:07:17.759Z</time>
      </trkpt>
      <trkpt lat="42.6567" lon="23.9154">
        <ele>647.375188</ele>
        <time>2022-03-08T11:07:22.753Z</time>
      </trkpt>
      <trkpt lat="42.65669" lon="23.91527">
        <ele>647.31761</ele>
        <time>2022-03-08T11:07:26.752Z</time>
      </trkpt>
      <trkpt lat="42.65666" lon="23.91512">
        <ele>647.25312</ele>
        <time>2022-03-08T11:07:30.765Z</time>
      </trkpt>
      <trkpt lat="42.65663" lon="23.91497">
        <ele>647.188318</ele>
        <time>2022-03-08T11:07:34.756Z</time>
      </trkpt>
      <trkpt lat="42.65661" lon="23.91484">
        <ele>647.128961</ele>
        <time>2022-03-08T11:07:38.803Z</time>
      </trkpt>
      <trkpt lat="42.65657" lon="23.91472">
        <ele>647.109729</ele>
        <time>2022-03-08T11:07:42.755Z</time>
      </trkpt>
      <trkpt lat="42.65652" lon="23.91459">
        <ele>647.09911</ele>
        <time>2022-03-08T11:07:46.755Z</time>
      </trkpt>
      <trkpt lat="42.65647" lon="23.91446">
        <ele>647.088408</ele>
        <time>2022-03-08T11:07:50.751Z</time>
      </trkpt>
      <trkpt lat="42.65643" lon="23.91433">
        <ele>647.078426</ele>
        <time>2022-03-08T11:07:54.754Z</time>
      </trkpt>
      <trkpt lat="42.65638" lon="23.91421">
        <ele>647.068537</ele>
        <time>2022-03-08T11:07:58.750Z</time>
      </trkpt>
      <trkpt lat="42.65633" lon="23.91409">
        <ele>647.05841</ele>
        <time>2022-03-08T11:08:02.745Z</time>
      </trkpt>
      <trkpt lat="42.65628" lon="23.91397">
        <ele>647.04868</ele>
        <time>2022-03-08T11:08:06.753Z</time>
      </trkpt>
      <trkpt lat="42.65624" lon="23.91385">
        <ele>647.038937</ele>
        <time>2022-03-08T11:08:10.747Z</time>
      </trkpt>
      <trkpt lat="42.65619" lon="23.91373">
        <ele>647.029388</ele>
        <time>2022-03-08T11:08:14.765Z</time>
      </trkpt>
      <trkpt lat="42.65614" lon="23.91362">
        <ele>647.019266</ele>
        <time>2022-03-08T11:08:18.772Z</time>
      </trkpt>
      <trkpt lat="42.65609" lon="23.9135">
        <ele>647.009343</ele>
        <time>2022-03-08T11:08:22.760Z</time>
      </trkpt>
      <trkpt lat="42.65603" lon="23.91339">
        <ele>646.999179</ele>
        <time>2022-03-08T11:08:26.787Z</time>
      </trkpt>
      <trkpt lat="42.65597" lon="23.91327">
        <ele>646.989419</ele>
        <time>2022-03-08T11:08:30.758Z</time>
      </trkpt>
      <trkpt lat="42.65592" lon="23.91317">
        <ele>646.980059</ele>
        <time>2022-03-08T11:08:34.756Z</time>
      </trkpt>
      <trkpt lat="42.65586" lon="23.91304">
        <ele>646.969297</ele>
        <time>2022-03-08T11:08:39.752Z</time>
      </trkpt>
      <trkpt lat="42.6558" lon="23.91291">
        <ele>646.958548</ele>
        <time>2022-03-08T11:08:44.759Z</time>
      </trkpt>
      <trkpt lat="42.65574" lon="23.9128">
        <ele>646.948142</ele>
        <time>2022-03-08T11:08:49.836Z</time>
      </trkpt>
      <trkpt lat="42.65568" lon="23.9127">
        <ele>646.988561</ele>
        <time>2022-03-08T11:08:53.758Z</time>
      </trkpt>
      <trkpt lat="42.65562" lon="23.91259">
        <ele>647.30399</ele>
        <time>2022-03-08T11:08:57.759Z</time>
      </trkpt>
      <trkpt lat="42.65556" lon="23.91247">
        <ele>647.657331</ele>
        <time>2022-03-08T11:09:02.767Z</time>
      </trkpt>
      <trkpt lat="42.6555" lon="23.91237">
        <ele>647.949968</ele>
        <time>2022-03-08T11:09:06.746Z</time>
      </trkpt>
      <trkpt lat="42.65544" lon="23.91225">
        <ele>648.29736</ele>
        <time>2022-03-08T11:09:11.804Z</time>
      </trkpt>
      <trkpt lat="42.65538" lon="23.91212">
        <ele>648.644389</ele>
        <time>2022-03-08T11:09:16.758Z</time>
      </trkpt>
      <trkpt lat="42.65532" lon="23.91199">
        <ele>649.000116</ele>
        <time>2022-03-08T11:09:21.741Z</time>
      </trkpt>
      <trkpt lat="42.65527" lon="23.91188">
        <ele>649.319451</ele>
        <time>2022-03-08T11:09:25.755Z</time>
      </trkpt>
      <trkpt lat="42.65522" lon="23.91176">
        <ele>649.636178</ele>
        <time>2022-03-08T11:09:29.754Z</time>
      </trkpt>
      <trkpt lat="42.65517" lon="23.91166">
        <ele>649.92791</ele>
        <time>2022-03-08T11:09:33.790Z</time>
      </trkpt>
      <trkpt lat="42.65512" lon="23.91153">
        <ele>650.265295</ele>
        <time>2022-03-08T11:09:38.749Z</time>
      </trkpt>
      <trkpt lat="42.65508" lon="23.91142">
        <ele>650.552234</ele>
        <time>2022-03-08T11:09:42.758Z</time>
      </trkpt>
      <trkpt lat="42.65504" lon="23.91129">
        <ele>650.884441</ele>
        <time>2022-03-08T11:09:47.741Z</time>
      </trkpt>
      <trkpt lat="42.65502" lon="23.91117">
        <ele>651.176015</ele>
        <time>2022-03-08T11:09:51.775Z</time>
      </trkpt>
      <trkpt lat="42.65499" lon="23.91105">
        <ele>651.469194</ele>
        <time>2022-03-08T11:09:55.759Z</time>
      </trkpt>
      <trkpt lat="42.65497" lon="23.9109">
        <ele>651.816672</ele>
        <time>2022-03-08T11:10:00.764Z</time>
      </trkpt>
      <trkpt lat="42.65496" lon="23.91076">
        <ele>652.150434</ele>
        <time>2022-03-08T11:10:05.826Z</time>
      </trkpt>
      <trkpt lat="42.65495" lon="23.91061">
        <ele>652.493796</ele>
        <time>2022-03-08T11:10:10.753Z</time>
      </trkpt>
      <trkpt lat="42.65495" lon="23.91047">
        <ele>652.965716</ele>
        <time>2022-03-08T11:10:15.747Z</time>
      </trkpt>
      <trkpt lat="42.65494" lon="23.91033">
        <ele>653.585746</ele>
        <time>2022-03-08T11:10:20.752Z</time>
      </trkpt>
      <trkpt lat="42.65493" lon="23.91021">
        <ele>654.135823</ele>
        <time>2022-03-08T11:10:25.756Z</time>
      </trkpt>
      <trkpt lat="42.65494" lon="23.91008">
        <ele>654.710513</ele>
        <time>2022-03-08T11:10:31.760Z</time>
      </trkpt>
      <trkpt lat="42.65495" lon="23.90995">
        <ele>655.271406</ele>
        <time>2022-03-08T11:10:37.758Z</time>
      </trkpt>
      <trkpt lat="42.65496" lon="23.90983">
        <ele>655.834145</ele>
        <time>2022-03-08T11:10:43.790Z</time>
      </trkpt>
      <trkpt lat="42.65497" lon="23.90969">
        <ele>656.438786</ele>
        <time>2022-03-08T11:10:50.756Z</time>
      </trkpt>
      <trkpt lat="42.65499" lon="23.90957">
        <ele>656.982975</ele>
        <time>2022-03-08T11:10:56.731Z</time>
      </trkpt>
      <trkpt lat="42.655" lon="23.90944">
        <ele>657.576554</ele>
        <time>2022-03-08T11:11:03.732Z</time>
      </trkpt>
      <trkpt lat="42.65502" lon="23.9093">
        <ele>658.197989</ele>
        <time>2022-03-08T11:11:10.761Z</time>
      </trkpt>
      <trkpt lat="42.65503" lon="23.90917">
        <ele>658.78716</ele>
        <time>2022-03-08T11:11:16.796Z</time>
      </trkpt>
      <trkpt lat="42.65503" lon="23.90904">
        <ele>659.364849</ele>
        <time>2022-03-08T11:11:22.772Z</time>
      </trkpt>
      <trkpt lat="42.65505" lon="23.90892">
        <ele>659.921053</ele>
        <time>2022-03-08T11:11:28.758Z</time>
      </trkpt>
      <trkpt lat="42.65506" lon="23.90878">
        <ele>660.538584</ele>
        <time>2022-03-08T11:11:36.767Z</time>
      </trkpt>
      <trkpt lat="42.65507" lon="23.90865">
        <ele>661.105052</ele>
        <time>2022-03-08T11:11:42.734Z</time>
      </trkpt>
      <trkpt lat="42.65507" lon="23.90853">
        <ele>661.652192</ele>
        <time>2022-03-08T11:11:48.756Z</time>
      </trkpt>
      <trkpt lat="42.65507" lon="23.90839">
        <ele>662.256832</ele>
        <time>2022-03-08T11:11:55.767Z</time>
      </trkpt>
      <trkpt lat="42.65505" lon="23.90825">
        <ele>662.868647</ele>
        <time>2022-03-08T11:12:01.755Z</time>
      </trkpt>
      <trkpt lat="42.65504" lon="23.90812">
        <ele>663.459615</ele>
        <time>2022-03-08T11:12:07.756Z</time>
      </trkpt>
      <trkpt lat="42.65504" lon="23.90798">
        <ele>663.782578</ele>
        <time>2022-03-08T11:12:14.771Z</time>
      </trkpt>
      <trkpt lat="42.65503" lon="23.90785">
        <ele>664.073965</ele>
        <time>2022-03-08T11:12:21.755Z</time>
      </trkpt>
      <trkpt lat="42.65502" lon="23.90771">
        <ele>664.365158</ele>
        <time>2022-03-08T11:12:28.761Z</time>
      </trkpt>
      <trkpt lat="42.655" lon="23.90759">
        <ele>664.626886</ele>
        <time>2022-03-08T11:12:34.761Z</time>
      </trkpt>
      <trkpt lat="42.65497" lon="23.90746">
        <ele>664.899828</ele>
        <time>2022-03-08T11:12:40.753Z</time>
      </trkpt>
      <trkpt lat="42.65495" lon="23.90734">
        <ele>665.169047</ele>
        <time>2022-03-08T11:12:46.758Z</time>
      </trkpt>
      <trkpt lat="42.65493" lon="23.90721">
        <ele>665.455001</ele>
        <time>2022-03-08T11:12:53.760Z</time>
      </trkpt>
      <trkpt lat="42.65491" lon="23.90708">
        <ele>665.738883</ele>
        <time>2022-03-08T11:13:00.766Z</time>
      </trkpt>
      <trkpt lat="42.65489" lon="23.90695">
        <ele>666.004001</ele>
        <time>2022-03-08T11:13:06.762Z</time>
      </trkpt>
      <trkpt lat="42.65486" lon="23.90683">
        <ele>666.285048</ele>
        <time>2022-03-08T11:13:13.769Z</time>
      </trkpt>
      <trkpt lat="42.65483" lon="23.9067">
        <ele>666.55548</ele>
        <time>2022-03-08T11:13:19.743Z</time>
      </trkpt>
      <trkpt lat="42.65481" lon="23.90658">
        <ele>666.814553</ele>
        <time>2022-03-08T11:13:25.757Z</time>
      </trkpt>
      <trkpt lat="42.65479" lon="23.90646">
        <ele>667.096113</ele>
        <time>2022-03-08T11:13:32.771Z</time>
      </trkpt>
      <trkpt lat="42.65478" lon="23.90632">
        <ele>667.37859</ele>
        <time>2022-03-08T11:13:39.759Z</time>
      </trkpt>
      <trkpt lat="42.65476" lon="23.9062">
        <ele>667.642737</ele>
        <time>2022-03-08T11:13:45.769Z</time>
      </trkpt>
      <trkpt lat="42.65474" lon="23.90607">
        <ele>667.927778</ele>
        <time>2022-03-08T11:13:52.758Z</time>
      </trkpt>
      <trkpt lat="42.65471" lon="23.90595">
        <ele>668.190253</ele>
        <time>2022-03-08T11:13:58.761Z</time>
      </trkpt>
      <trkpt lat="42.6547" lon="23.90581">
        <ele>668.480555</ele>
        <time>2022-03-08T11:14:05.758Z</time>
      </trkpt>
      <trkpt lat="42.65467" lon="23.90569">
        <ele>668.897951</ele>
        <time>2022-03-08T11:14:12.763Z</time>
      </trkpt>
      <trkpt lat="42.65466" lon="23.90555">
        <ele>669.697065</ele>
        <time>2022-03-08T11:14:19.761Z</time>
      </trkpt>
      <trkpt lat="42.65466" lon="23.90542">
        <ele>670.474703</ele>
        <time>2022-03-08T11:14:26.755Z</time>
      </trkpt>
      <trkpt lat="42.65465" lon="23.90529">
        <ele>671.182952</ele>
        <time>2022-03-08T11:14:32.743Z</time>
      </trkpt>
      <trkpt lat="42.65466" lon="23.90516">
        <ele>671.95499</ele>
        <time>2022-03-08T11:14:39.782Z</time>
      </trkpt>
      <trkpt lat="42.65465" lon="23.90502">
        <ele>672.751283</ele>
        <time>2022-03-08T11:14:47.767Z</time>
      </trkpt>
      <trkpt lat="42.65465" lon="23.90489">
        <ele>673.535198</ele>
        <time>2022-03-08T11:14:54.757Z</time>
      </trkpt>
      <trkpt lat="42.65465" lon="23.90475">
        <ele>674.312716</ele>
        <time>2022-03-08T11:15:01.753Z</time>
      </trkpt>
      <trkpt lat="42.65465" lon="23.90463">
        <ele>675.055549</ele>
        <time>2022-03-08T11:15:08.766Z</time>
      </trkpt>
      <trkpt lat="42.65467" lon="23.90451">
        <ele>675.776883</ele>
        <time>2022-03-08T11:15:14.794Z</time>
      </trkpt>
      <trkpt lat="42.65469" lon="23.90438">
        <ele>676.508294</ele>
        <time>2022-03-08T11:15:21.743Z</time>
      </trkpt>
      <trkpt lat="42.6547" lon="23.90424">
        <ele>677.311938</ele>
        <time>2022-03-08T11:15:28.754Z</time>
      </trkpt>
      <trkpt lat="42.65472" lon="23.90412">
        <ele>678.041062</ele>
        <time>2022-03-08T11:15:34.752Z</time>
      </trkpt>
      <trkpt lat="42.65473" lon="23.90398">
        <ele>678.852902</ele>
        <time>2022-03-08T11:15:41.748Z</time>
      </trkpt>
      <trkpt lat="42.65475" lon="23.90386">
        <ele>679.565102</ele>
        <time>2022-03-08T11:15:47.767Z</time>
      </trkpt>
      <trkpt lat="42.65478" lon="23.90373">
        <ele>680.371229</ele>
        <time>2022-03-08T11:15:54.765Z</time>
      </trkpt>
      <trkpt lat="42.65479" lon="23.90361">
        <ele>681.086472</ele>
        <time>2022-03-08T11:16:00.742Z</time>
      </trkpt>
      <trkpt lat="42.65481" lon="23.90347">
        <ele>681.868402</ele>
        <time>2022-03-08T11:16:06.757Z</time>
      </trkpt>
      <trkpt lat="42.65481" lon="23.90334">
        <ele>682.617906</ele>
        <time>2022-03-08T11:16:12.764Z</time>
      </trkpt>
      <trkpt lat="42.65483" lon="23.90321">
        <ele>683.298947</ele>
        <time>2022-03-08T11:16:18.762Z</time>
      </trkpt>
      <trkpt lat="42.65486" lon="23.90308">
        <ele>683.886133</ele>
        <time>2022-03-08T11:16:24.766Z</time>
      </trkpt>
      <trkpt lat="42.65488" lon="23.90295">
        <ele>684.48952</ele>
        <time>2022-03-08T11:16:30.762Z</time>
      </trkpt>
      <trkpt lat="42.65492" lon="23.90283">
        <ele>685.099897</ele>
        <time>2022-03-08T11:16:36.756Z</time>
      </trkpt>
      <trkpt lat="42.65494" lon="23.90269">
        <ele>685.726882</ele>
        <time>2022-03-08T11:16:42.767Z</time>
      </trkpt>
      <trkpt lat="42.65498" lon="23.90257">
        <ele>686.318234</ele>
        <time>2022-03-08T11:16:48.737Z</time>
      </trkpt>
      <trkpt lat="42.655" lon="23.90245">
        <ele>686.873488</ele>
        <time>2022-03-08T11:16:54.755Z</time>
      </trkpt>
      <trkpt lat="42.65503" lon="23.90231">
        <ele>687.523855</ele>
        <time>2022-03-08T11:17:01.753Z</time>
      </trkpt>
      <trkpt lat="42.65506" lon="23.90218">
        <ele>688.141216</ele>
        <time>2022-03-08T11:17:08.754Z</time>
      </trkpt>
      <trkpt lat="42.65509" lon="23.90205">
        <ele>688.782882</ele>
        <time>2022-03-08T11:17:14.762Z</time>
      </trkpt>
      <trkpt lat="42.65511" lon="23.90192">
        <ele>689.350053</ele>
        <time>2022-03-08T11:17:20.796Z</time>
      </trkpt>
      <trkpt lat="42.65514" lon="23.90179">
        <ele>689.964904</ele>
        <time>2022-03-08T11:17:26.746Z</time>
      </trkpt>
      <trkpt lat="42.65517" lon="23.90166">
        <ele>690.60312</ele>
        <time>2022-03-08T11:17:32.754Z</time>
      </trkpt>
      <trkpt lat="42.6552" lon="23.90153">
        <ele>691.217477</ele>
        <time>2022-03-08T11:17:38.759Z</time>
      </trkpt>
      <trkpt lat="42.65524" lon="23.90141">
        <ele>691.782296</ele>
        <time>2022-03-08T11:17:44.748Z</time>
      </trkpt>
      <trkpt lat="42.65527" lon="23.9013">
        <ele>692.361168</ele>
        <time>2022-03-08T11:17:50.771Z</time>
      </trkpt>
      <trkpt lat="42.65532" lon="23.90119">
        <ele>692.916471</ele>
        <time>2022-03-08T11:17:56.790Z</time>
      </trkpt>
      <trkpt lat="42.65535" lon="23.90106">
        <ele>693.532909</ele>
        <time>2022-03-08T11:18:03.756Z</time>
      </trkpt>
      <trkpt lat="42.65539" lon="23.90094">
        <ele>694.052072</ele>
        <time>2022-03-08T11:18:09.770Z</time>
      </trkpt>
      <trkpt lat="42.65543" lon="23.90082">
        <ele>694.449544</ele>
        <time>2022-03-08T11:18:16.773Z</time>
      </trkpt>
      <trkpt lat="42.65548" lon="23.90071">
        <ele>694.833273</ele>
        <time>2022-03-08T11:18:22.760Z</time>
      </trkpt>
      <trkpt lat="42.65552" lon="23.90059">
        <ele>695.230721</ele>
        <time>2022-03-08T11:18:28.762Z</time>
      </trkpt>
      <trkpt lat="42.65555" lon="23.90046">
        <ele>695.625934</ele>
        <time>2022-03-08T11:18:35.755Z</time>
      </trkpt>
      <trkpt lat="42.6556" lon="23.90034">
        <ele>696.043868</ele>
        <time>2022-03-08T11:18:41.764Z</time>
      </trkpt>
      <trkpt lat="42.65563" lon="23.90021">
        <ele>696.46311</ele>
        <time>2022-03-08T11:18:47.782Z</time>
      </trkpt>
      <trkpt lat="42.65568" lon="23.90009">
        <ele>696.876942</ele>
        <time>2022-03-08T11:18:53.744Z</time>
      </trkpt>
      <trkpt lat="42.65572" lon="23.89998">
        <ele>697.243734</ele>
        <time>2022-03-08T11:18:59.761Z</time>
      </trkpt>
      <trkpt lat="42.65576" lon="23.89985">
        <ele>697.652633</ele>
        <time>2022-03-08T11:19:06.767Z</time>
      </trkpt>
      <trkpt lat="42.65581" lon="23.89973">
        <ele>698.078932</ele>
        <time>2022-03-08T11:19:13.764Z</time>
      </trkpt>
      <trkpt lat="42.65584" lon="23.8996">
        <ele>698.486521</ele>
        <time>2022-03-08T11:19:19.766Z</time>
      </trkpt>
      <trkpt lat="42.65586" lon="23.89947">
        <ele>698.888725</ele>
        <time>2022-03-08T11:19:25.766Z</time>
      </trkpt>
      <trkpt lat="42.65589" lon="23.89934">
        <ele>699.295233</ele>
        <time>2022-03-08T11:19:31.736Z</time>
      </trkpt>
      <trkpt lat="42.65592" lon="23.8992">
        <ele>699.711627</ele>
        <time>2022-03-08T11:19:37.757Z</time>
      </trkpt>
      <trkpt lat="42.65592" lon="23.89906">
        <ele>700.129037</ele>
        <time>2022-03-08T11:19:43.762Z</time>
      </trkpt>
      <trkpt lat="42.65592" lon="23.89894">
        <ele>700.49454</ele>
        <time>2022-03-08T11:19:48.744Z</time>
      </trkpt>
      <trkpt lat="42.65593" lon="23.89882">
        <ele>700.869828</ele>
        <time>2022-03-08T11:19:53.760Z</time>
      </trkpt>
      <trkpt lat="42.65593" lon="23.89869">
        <ele>701.221748</ele>
        <time>2022-03-08T11:19:58.748Z</time>
      </trkpt>
      <trkpt lat="42.65593" lon="23.89854">
        <ele>700.74014</ele>
        <time>2022-03-08T11:20:03.793Z</time>
      </trkpt>
      <trkpt lat="42.65593" lon="23.8984">
        <ele>700.33299</ele>
        <time>2022-03-08T11:20:07.759Z</time>
      </trkpt>
      <trkpt lat="42.65592" lon="23.89826">
        <ele>699.893395</ele>
        <time>2022-03-08T11:20:11.799Z</time>
      </trkpt>
      <trkpt lat="42.65591" lon="23.89812">
        <ele>699.464164</ele>
        <time>2022-03-08T11:20:15.756Z</time>
      </trkpt>
      <trkpt lat="42.65591" lon="23.89798">
        <ele>699.01046</ele>
        <time>2022-03-08T11:20:19.766Z</time>
      </trkpt>
      <trkpt lat="42.6559" lon="23.89782">
        <ele>698.510903</ele>
        <time>2022-03-08T11:20:23.775Z</time>
      </trkpt>
      <trkpt lat="42.65589" lon="23.89769">
        <ele>698.127874</ele>
        <time>2022-03-08T11:20:26.757Z</time>
      </trkpt>
      <trkpt lat="42.65589" lon="23.89754">
        <ele>697.655677</ele>
        <time>2022-03-08T11:20:30.753Z</time>
      </trkpt>
      <trkpt lat="42.65589" lon="23.89741">
        <ele>697.25463</ele>
        <time>2022-03-08T11:20:34.765Z</time>
      </trkpt>
      <trkpt lat="42.65588" lon="23.89728">
        <ele>696.860215</ele>
        <time>2022-03-08T11:20:39.756Z</time>
      </trkpt>
      <trkpt lat="42.65587" lon="23.89715">
        <ele>696.45478</ele>
        <time>2022-03-08T11:20:43.777Z</time>
      </trkpt>
      <trkpt lat="42.65587" lon="23.897">
        <ele>695.976253</ele>
        <time>2022-03-08T11:20:47.758Z</time>
      </trkpt>
      <trkpt lat="42.65585" lon="23.89687">
        <ele>695.596617</ele>
        <time>2022-03-08T11:20:50.794Z</time>
      </trkpt>
      <trkpt lat="42.65585" lon="23.89675">
        <ele>695.206165</ele>
        <time>2022-03-08T11:20:53.752Z</time>
      </trkpt>
      <trkpt lat="42.65583" lon="23.89662">
        <ele>694.801952</ele>
        <time>2022-03-08T11:20:56.755Z</time>
      </trkpt>
      <trkpt lat="42.65581" lon="23.89649">
        <ele>694.405868</ele>
        <time>2022-03-08T11:20:59.761Z</time>
      </trkpt>
      <trkpt lat="42.65579" lon="23.89636">
        <ele>693.989322</ele>
        <time>2022-03-08T11:21:02.747Z</time>
      </trkpt>
      <trkpt lat="42.65577" lon="23.89622">
        <ele>693.602333</ele>
        <time>2022-03-08T11:21:05.792Z</time>
      </trkpt>
      <trkpt lat="42.65574" lon="23.8961">
        <ele>693.343687</ele>
        <time>2022-03-08T11:21:08.765Z</time>
      </trkpt>
      <trkpt lat="42.65571" lon="23.89598">
        <ele>693.090844</ele>
        <time>2022-03-08T11:21:11.741Z</time>
      </trkpt>
      <trkpt lat="42.65567" lon="23.89585">
        <ele>692.831444</ele>
        <time>2022-03-08T11:21:14.764Z</time>
      </trkpt>
      <trkpt lat="42.65564" lon="23.89573">
        <ele>692.563816</ele>
        <time>2022-03-08T11:21:17.804Z</time>
      </trkpt>
      <trkpt lat="42.65561" lon="23.89561">
        <ele>692.309156</ele>
        <time>2022-03-08T11:21:20.754Z</time>
      </trkpt>
      <trkpt lat="42.65558" lon="23.89547">
        <ele>692.039195</ele>
        <time>2022-03-08T11:21:23.761Z</time>
      </trkpt>
      <trkpt lat="42.65555" lon="23.89534">
        <ele>691.761666</ele>
        <time>2022-03-08T11:21:26.775Z</time>
      </trkpt>
      <trkpt lat="42.65552" lon="23.89521">
        <ele>691.488673</ele>
        <time>2022-03-08T11:21:29.763Z</time>
      </trkpt>
      <trkpt lat="42.6555" lon="23.89508">
        <ele>691.23565</ele>
        <time>2022-03-08T11:21:32.776Z</time>
      </trkpt>
      <trkpt lat="42.65548" lon="23.89495">
        <ele>690.969148</ele>
        <time>2022-03-08T11:21:35.762Z</time>
      </trkpt>
      <trkpt lat="42.65546" lon="23.89482">
        <ele>690.707064</ele>
        <time>2022-03-08T11:21:38.754Z</time>
      </trkpt>
      <trkpt lat="42.65544" lon="23.89466">
        <ele>690.38766</ele>
        <time>2022-03-08T11:21:42.759Z</time>
      </trkpt>
      <trkpt lat="42.65541" lon="23.89452">
        <ele>690.102661</ele>
        <time>2022-03-08T11:21:46.758Z</time>
      </trkpt>
      <trkpt lat="42.65539" lon="23.89437">
        <ele>689.803594</ele>
        <time>2022-03-08T11:21:50.751Z</time>
      </trkpt>
      <trkpt lat="42.65537" lon="23.89423">
        <ele>689.514413</ele>
        <time>2022-03-08T11:21:54.743Z</time>
      </trkpt>
      <trkpt lat="42.65536" lon="23.8941">
        <ele>689.265988</ele>
        <time>2022-03-08T11:21:58.755Z</time>
      </trkpt>
      <trkpt lat="42.65536" lon="23.89397">
        <ele>689.011416</ele>
        <time>2022-03-08T11:22:02.798Z</time>
      </trkpt>
      <trkpt lat="42.65535" lon="23.89382">
        <ele>689.287424</ele>
        <time>2022-03-08T11:22:07.781Z</time>
      </trkpt>
      <trkpt lat="42.65534" lon="23.8937">
        <ele>689.999848</ele>
        <time>2022-03-08T11:22:11.753Z</time>
      </trkpt>
      <trkpt lat="42.65533" lon="23.89358">
        <ele>690.715024</ele>
        <time>2022-03-08T11:22:15.756Z</time>
      </trkpt>
      <trkpt lat="42.65532" lon="23.89345">
        <ele>691.412963</ele>
        <time>2022-03-08T11:22:19.742Z</time>
      </trkpt>
      <trkpt lat="42.6553" lon="23.89331">
        <ele>692.254977</ele>
        <time>2022-03-08T11:22:24.785Z</time>
      </trkpt>
      <trkpt lat="42.65528" lon="23.89319">
        <ele>692.949281</ele>
        <time>2022-03-08T11:22:28.766Z</time>
      </trkpt>
      <trkpt lat="42.65526" lon="23.89305">
        <ele>693.752435</ele>
        <time>2022-03-08T11:22:33.757Z</time>
      </trkpt>
      <trkpt lat="42.65523" lon="23.89293">
        <ele>694.481745</ele>
        <time>2022-03-08T11:22:37.751Z</time>
      </trkpt>
      <trkpt lat="42.6552" lon="23.89279">
        <ele>695.30712</ele>
        <time>2022-03-08T11:22:42.754Z</time>
      </trkpt>
      <trkpt lat="42.65514" lon="23.89267">
        <ele>696.087369</ele>
        <time>2022-03-08T11:22:47.779Z</time>
      </trkpt>
      <trkpt lat="42.65511" lon="23.89256">
        <ele>696.784774</ele>
        <time>2022-03-08T11:22:51.765Z</time>
      </trkpt>
      <trkpt lat="42.65507" lon="23.89245">
        <ele>697.500906</ele>
        <time>2022-03-08T11:22:55.756Z</time>
      </trkpt>
      <trkpt lat="42.65505" lon="23.89232">
        <ele>698.224661</ele>
        <time>2022-03-08T11:22:59.760Z</time>
      </trkpt>
      <trkpt lat="42.65502" lon="23.89218">
        <ele>699.054077</ele>
        <time>2022-03-08T11:23:04.762Z</time>
      </trkpt>
      <trkpt lat="42.65501" lon="23.89206">
        <ele>699.747749</ele>
        <time>2022-03-08T11:23:08.767Z</time>
      </trkpt>
      <trkpt lat="42.65498" lon="23.89194">
        <ele>700.475132</ele>
        <time>2022-03-08T11:23:13.752Z</time>
      </trkpt>
      <trkpt lat="42.65495" lon="23.8918">
        <ele>701.289311</ele>
        <time>2022-03-08T11:23:18.796Z</time>
      </trkpt>
      <trkpt lat="42.65491" lon="23.89167">
        <ele>702.117151</ele>
        <time>2022-03-08T11:23:23.751Z</time>
      </trkpt>
      <trkpt lat="42.65485" lon="23.89155">
        <ele>702.916321</ele>
        <time>2022-03-08T11:23:28.760Z</time>
      </trkpt>
      <trkpt lat="42.6548" lon="23.89145">
        <ele>703.548435</ele>
        <time>2022-03-08T11:23:32.762Z</time>
      </trkpt>
      <trkpt lat="42.65474" lon="23.89135">
        <ele>704.212535</ele>
        <time>2022-03-08T11:23:36.764Z</time>
      </trkpt>
      <trkpt lat="42.65469" lon="23.89125">
        <ele>704.847682</ele>
        <time>2022-03-08T11:23:40.806Z</time>
      </trkpt>
      <trkpt lat="42.65462" lon="23.89113">
        <ele>705.628688</ele>
        <time>2022-03-08T11:23:45.756Z</time>
      </trkpt>
      <trkpt lat="42.65455" lon="23.89101">
        <ele>706.405692</ele>
        <time>2022-03-08T11:23:50.755Z</time>
      </trkpt>
      <trkpt lat="42.65449" lon="23.89091">
        <ele>707.044817</ele>
        <time>2022-03-08T11:23:54.759Z</time>
      </trkpt>
      <trkpt lat="42.65443" lon="23.8908">
        <ele>707.785716</ele>
        <time>2022-03-08T11:23:59.764Z</time>
      </trkpt>
      <trkpt lat="42.65435" lon="23.8907">
        <ele>708.530085</ele>
        <time>2022-03-08T11:24:04.750Z</time>
      </trkpt>
      <trkpt lat="42.65428" lon="23.8906">
        <ele>709.235113</ele>
        <time>2022-03-08T11:24:09.773Z</time>
      </trkpt>
      <trkpt lat="42.65421" lon="23.8905">
        <ele>709.960979</ele>
        <time>2022-03-08T11:24:14.770Z</time>
      </trkpt>
      <trkpt lat="42.65414" lon="23.8904">
        <ele>710.694195</ele>
        <time>2022-03-08T11:24:20.757Z</time>
      </trkpt>
      <trkpt lat="42.65407" lon="23.89031">
        <ele>711.350311</ele>
        <time>2022-03-08T11:24:25.770Z</time>
      </trkpt>
      <trkpt lat="42.65399" lon="23.89022">
        <ele>712.061576</ele>
        <time>2022-03-08T11:24:30.753Z</time>
      </trkpt>
      <trkpt lat="42.65391" lon="23.89014">
        <ele>712.771269</ele>
        <time>2022-03-08T11:24:35.783Z</time>
      </trkpt>
      <trkpt lat="42.65383" lon="23.89004">
        <ele>713.530854</ele>
        <time>2022-03-08T11:24:40.759Z</time>
      </trkpt>
      <trkpt lat="42.65376" lon="23.88994">
        <ele>714.244479</ele>
        <time>2022-03-08T11:24:45.759Z</time>
      </trkpt>
      <trkpt lat="42.65368" lon="23.88986">
        <ele>714.951436</ele>
        <time>2022-03-08T11:24:50.757Z</time>
      </trkpt>
      <trkpt lat="42.65358" lon="23.88979">
        <ele>715.302314</ele>
        <time>2022-03-08T11:24:55.778Z</time>
      </trkpt>
      <trkpt lat="42.65349" lon="23.8897">
        <ele>715.133196</ele>
        <time>2022-03-08T11:25:00.754Z</time>
      </trkpt>
      <trkpt lat="42.6534" lon="23.88963">
        <ele>714.970388</ele>
        <time>2022-03-08T11:25:05.766Z</time>
      </trkpt>
      <trkpt lat="42.65332" lon="23.88955">
        <ele>714.808183</ele>
        <time>2022-03-08T11:25:10.764Z</time>
      </trkpt>
      <trkpt lat="42.65323" lon="23.88947">
        <ele>714.645834</ele>
        <time>2022-03-08T11:25:15.741Z</time>
      </trkpt>
      <trkpt lat="42.65315" lon="23.88939">
        <ele>714.485689</ele>
        <time>2022-03-08T11:25:20.765Z</time>
      </trkpt>
      <trkpt lat="42.65306" lon="23.8893">
        <ele>714.317387</ele>
        <time>2022-03-08T11:25:25.795Z</time>
      </trkpt>
      <trkpt lat="42.65298" lon="23.8892">
        <ele>714.149317</ele>
        <time>2022-03-08T11:25:30.762Z</time>
      </trkpt>
      <trkpt lat="42.6529" lon="23.88912">
        <ele>713.99615</ele>
        <time>2022-03-08T11:25:35.753Z</time>
      </trkpt>
      <trkpt lat="42.65283" lon="23.88902">
        <ele>713.83723</ele>
        <time>2022-03-08T11:25:40.756Z</time>
      </trkpt>
      <trkpt lat="42.65277" lon="23.88892">
        <ele>713.693085</ele>
        <time>2022-03-08T11:25:44.768Z</time>
      </trkpt>
      <trkpt lat="42.6527" lon="23.88882">
        <ele>713.530951</ele>
        <time>2022-03-08T11:25:49.759Z</time>
      </trkpt>
      <trkpt lat="42.65263" lon="23.88872">
        <ele>713.380729</ele>
        <time>2022-03-08T11:25:55.749Z</time>
      </trkpt>
      <trkpt lat="42.65256" lon="23.88861">
        <ele>713.217736</ele>
        <time>2022-03-08T11:26:01.758Z</time>
      </trkpt>
      <trkpt lat="42.65249" lon="23.88853">
        <ele>713.065516</ele>
        <time>2022-03-08T11:26:08.755Z</time>
      </trkpt>
      <trkpt lat="42.65241" lon="23.88843">
        <ele>712.901464</ele>
        <time>2022-03-08T11:26:15.755Z</time>
      </trkpt>
      <trkpt lat="42.65235" lon="23.88833">
        <ele>712.748555</ele>
        <time>2022-03-08T11:26:21.756Z</time>
      </trkpt>
      <trkpt lat="42.65227" lon="23.88823">
        <ele>712.592017</ele>
        <time>2022-03-08T11:26:28.759Z</time>
      </trkpt>
      <trkpt lat="42.6522" lon="23.88814">
        <ele>713.332097</ele>
        <time>2022-03-08T11:26:36.758Z</time>
      </trkpt>
      <trkpt lat="42.65214" lon="23.88805">
        <ele>714.063141</ele>
        <time>2022-03-08T11:26:43.767Z</time>
      </trkpt>
      <trkpt lat="42.65206" lon="23.88796">
        <ele>714.802948</ele>
        <time>2022-03-08T11:26:50.743Z</time>
      </trkpt>
      <trkpt lat="42.65199" lon="23.88788">
        <ele>715.514768</ele>
        <time>2022-03-08T11:26:56.776Z</time>
      </trkpt>
      <trkpt lat="42.65192" lon="23.88778">
        <ele>716.320158</ele>
        <time>2022-03-08T11:27:03.753Z</time>
      </trkpt>
      <trkpt lat="42.65185" lon="23.88769">
        <ele>717.063855</ele>
        <time>2022-03-08T11:27:10.750Z</time>
      </trkpt>
      <trkpt lat="42.65179" lon="23.88759">
        <ele>717.829395</ele>
        <time>2022-03-08T11:27:18.766Z</time>
      </trkpt>
      <trkpt lat="42.65171" lon="23.88751">
        <ele>718.530471</ele>
        <time>2022-03-08T11:27:25.767Z</time>
      </trkpt>
      <trkpt lat="42.65165" lon="23.88742">
        <ele>719.275009</ele>
        <time>2022-03-08T11:27:32.775Z</time>
      </trkpt>
      <trkpt lat="42.65158" lon="23.88733">
        <ele>719.984226</ele>
        <time>2022-03-08T11:27:39.763Z</time>
      </trkpt>
      <trkpt lat="42.65151" lon="23.88724">
        <ele>720.737435</ele>
        <time>2022-03-08T11:27:46.804Z</time>
      </trkpt>
      <trkpt lat="42.65142" lon="23.88717">
        <ele>721.523082</ele>
        <time>2022-03-08T11:27:53.755Z</time>
      </trkpt>
      <trkpt lat="42.65136" lon="23.88707">
        <ele>722.255795</ele>
        <time>2022-03-08T11:27:59.756Z</time>
      </trkpt>
      <trkpt lat="42.65129" lon="23.88697">
        <ele>723.043207</ele>
        <time>2022-03-08T11:28:05.777Z</time>
      </trkpt>
      <trkpt lat="42.65122" lon="23.88688">
        <ele>723.786907</ele>
        <time>2022-03-08T11:28:11.764Z</time>
      </trkpt>
      <trkpt lat="42.65115" lon="23.88678">
        <ele>724.545528</ele>
        <time>2022-03-08T11:28:17.766Z</time>
      </trkpt>
      <trkpt lat="42.65108" lon="23.88668">
        <ele>725.349205</ele>
        <time>2022-03-08T11:28:23.764Z</time>
      </trkpt>
      <trkpt lat="42.65101" lon="23.88659">
        <ele>726.096819</ele>
        <time>2022-03-08T11:28:30.798Z</time>
      </trkpt>
      <trkpt lat="42.65094" lon="23.8865">
        <ele>726.645992</ele>
        <time>2022-03-08T11:28:37.759Z</time>
      </trkpt>
      <trkpt lat="42.65088" lon="23.88641">
        <ele>726.996007</ele>
        <time>2022-03-08T11:28:43.750Z</time>
      </trkpt>
      <trkpt lat="42.65081" lon="23.88631">
        <ele>727.360367</ele>
        <time>2022-03-08T11:28:50.754Z</time>
      </trkpt>
      <trkpt lat="42.65073" lon="23.88622">
        <ele>727.748298</ele>
        <time>2022-03-08T11:28:56.755Z</time>
      </trkpt>
      <trkpt lat="42.65066" lon="23.88613">
        <ele>728.125184</ele>
        <time>2022-03-08T11:29:03.807Z</time>
      </trkpt>
      <trkpt lat="42.65059" lon="23.88603">
        <ele>728.494345</ele>
        <time>2022-03-08T11:29:09.762Z</time>
      </trkpt>
      <trkpt lat="42.65052" lon="23.88594">
        <ele>728.859343</ele>
        <time>2022-03-08T11:29:15.757Z</time>
      </trkpt>
      <trkpt lat="42.65046" lon="23.88584">
        <ele>729.228072</ele>
        <time>2022-03-08T11:29:21.784Z</time>
      </trkpt>
      <trkpt lat="42.65039" lon="23.88574">
        <ele>729.603012</ele>
        <time>2022-03-08T11:29:26.762Z</time>
      </trkpt>
      <trkpt lat="42.65032" lon="23.88566">
        <ele>729.952601</ele>
        <time>2022-03-08T11:29:31.758Z</time>
      </trkpt>
      <trkpt lat="42.65024" lon="23.88557">
        <ele>730.33992</ele>
        <time>2022-03-08T11:29:37.763Z</time>
      </trkpt>
      <trkpt lat="42.65015" lon="23.88551">
        <ele>730.705632</ele>
        <time>2022-03-08T11:29:43.779Z</time>
      </trkpt>
      <trkpt lat="42.65007" lon="23.88545">
        <ele>731.045185</ele>
        <time>2022-03-08T11:29:49.738Z</time>
      </trkpt>
      <trkpt lat="42.64998" lon="23.88544">
        <ele>731.385841</ele>
        <time>2022-03-08T11:29:57.759Z</time>
      </trkpt>
      <trkpt lat="42.64988" lon="23.88543">
        <ele>731.774153</ele>
        <time>2022-03-08T11:30:05.777Z</time>
      </trkpt>
      <trkpt lat="42.64978" lon="23.88545">
        <ele>732.16002</ele>
        <time>2022-03-08T11:30:12.813Z</time>
      </trkpt>
      <trkpt lat="42.64968" lon="23.88542">
        <ele>732.532054</ele>
        <time>2022-03-08T11:30:19.814Z</time>
      </trkpt>
      <trkpt lat="42.64959" lon="23.88538">
        <ele>732.883637</ele>
        <time>2022-03-08T11:30:24.806Z</time>
      </trkpt>
      <trkpt lat="42.6495" lon="23.88534">
        <ele>733.277606</ele>
        <time>2022-03-08T11:30:30.810Z</time>
      </trkpt>
      <trkpt lat="42.64941" lon="23.88529">
        <ele>734.009706</ele>
        <time>2022-03-08T11:30:36.744Z</time>
      </trkpt>
      <trkpt lat="42.64932" lon="23.88526">
        <ele>734.690292</ele>
        <time>2022-03-08T11:30:42.748Z</time>
      </trkpt>
      <trkpt lat="42.64923" lon="23.88521">
        <ele>735.445427</ele>
        <time>2022-03-08T11:30:48.747Z</time>
      </trkpt>
      <trkpt lat="42.64914" lon="23.88516">
        <ele>736.170589</ele>
        <time>2022-03-08T11:30:54.760Z</time>
      </trkpt>
      <trkpt lat="42.64905" lon="23.8851">
        <ele>736.898595</ele>
        <time>2022-03-08T11:31:00.753Z</time>
      </trkpt>
      <trkpt lat="42.64897" lon="23.88504">
        <ele>737.619863</ele>
        <time>2022-03-08T11:31:06.767Z</time>
      </trkpt>
      <trkpt lat="42.64888" lon="23.88499">
        <ele>738.347259</ele>
        <time>2022-03-08T11:31:12.764Z</time>
      </trkpt>
      <trkpt lat="42.64879" lon="23.88491">
        <ele>739.138153</ele>
        <time>2022-03-08T11:31:19.767Z</time>
      </trkpt>
      <trkpt lat="42.64871" lon="23.88483">
        <ele>739.891336</ele>
        <time>2022-03-08T11:31:25.761Z</time>
      </trkpt>
      <trkpt lat="42.64864" lon="23.88475">
        <ele>740.602638</ele>
        <time>2022-03-08T11:31:31.764Z</time>
      </trkpt>
      <trkpt lat="42.64857" lon="23.88467">
        <ele>741.280228</ele>
        <time>2022-03-08T11:31:37.795Z</time>
      </trkpt>
      <trkpt lat="42.64849" lon="23.88457">
        <ele>742.096597</ele>
        <time>2022-03-08T11:31:43.795Z</time>
      </trkpt>
      <trkpt lat="42.64843" lon="23.88448">
        <ele>742.779854</ele>
        <time>2022-03-08T11:31:48.759Z</time>
      </trkpt>
      <trkpt lat="42.64834" lon="23.8844">
        <ele>743.571223</ele>
        <time>2022-03-08T11:31:54.785Z</time>
      </trkpt>
      <trkpt lat="42.64827" lon="23.88432">
        <ele>744.304486</ele>
        <time>2022-03-08T11:32:00.739Z</time>
      </trkpt>
      <trkpt lat="42.64819" lon="23.88424">
        <ele>745.008742</ele>
        <time>2022-03-08T11:32:06.748Z</time>
      </trkpt>
      <trkpt lat="42.64811" lon="23.88416">
        <ele>745.768661</ele>
        <time>2022-03-08T11:32:12.744Z</time>
      </trkpt>
      <trkpt lat="42.64802" lon="23.88409">
        <ele>746.53751</ele>
        <time>2022-03-08T11:32:18.737Z</time>
      </trkpt>
      <trkpt lat="42.64794" lon="23.88404">
        <ele>747.100871</ele>
        <time>2022-03-08T11:32:23.795Z</time>
      </trkpt>
      <trkpt lat="42.64784" lon="23.88398">
        <ele>747.621205</ele>
        <time>2022-03-08T11:32:30.751Z</time>
      </trkpt>
      <trkpt lat="42.64774" lon="23.88393">
        <ele>748.122663</ele>
        <time>2022-03-08T11:32:36.744Z</time>
      </trkpt>
      <trkpt lat="42.64766" lon="23.88389">
        <ele>748.568709</ele>
        <time>2022-03-08T11:32:41.758Z</time>
      </trkpt>
      <trkpt lat="42.64756" lon="23.88386">
        <ele>749.06158</ele>
        <time>2022-03-08T11:32:47.755Z</time>
      </trkpt>
      <trkpt lat="42.64746" lon="23.88382">
        <ele>749.559637</ele>
        <time>2022-03-08T11:32:53.766Z</time>
      </trkpt>
      <trkpt lat="42.64736" lon="23.88377">
        <ele>750.069323</ele>
        <time>2022-03-08T11:32:59.786Z</time>
      </trkpt>
      <trkpt lat="42.64728" lon="23.88373">
        <ele>750.520579</ele>
        <time>2022-03-08T11:33:04.759Z</time>
      </trkpt>
      <trkpt lat="42.64717" lon="23.88371">
        <ele>751.032608</ele>
        <time>2022-03-08T11:33:10.759Z</time>
      </trkpt>
      <trkpt lat="42.64708" lon="23.88365">
        <ele>751.539498</ele>
        <time>2022-03-08T11:33:16.763Z</time>
      </trkpt>
      <trkpt lat="42.64699" lon="23.88359">
        <ele>752.018252</ele>
        <time>2022-03-08T11:33:21.752Z</time>
      </trkpt>
      <trkpt lat="42.64689" lon="23.88353">
        <ele>752.532632</ele>
        <time>2022-03-08T11:33:27.746Z</time>
      </trkpt>
      <trkpt lat="42.64681" lon="23.88347">
        <ele>753.008668</ele>
        <time>2022-03-08T11:33:34.756Z</time>
      </trkpt>
      <trkpt lat="42.64673" lon="23.88339">
        <ele>753.497173</ele>
        <time>2022-03-08T11:33:40.758Z</time>
      </trkpt>
      <trkpt lat="42.64664" lon="23.88331">
        <ele>753.989686</ele>
        <time>2022-03-08T11:33:46.764Z</time>
      </trkpt>
      <trkpt lat="42.64656" lon="23.88324">
        <ele>754.470103</ele>
        <time>2022-03-08T11:33:52.775Z</time>
      </trkpt>
      <trkpt lat="42.64648" lon="23.88315">
        <ele>754.976219</ele>
        <time>2022-03-08T11:33:58.753Z</time>
      </trkpt>
      <trkpt lat="42.64639" lon="23.88307">
        <ele>755.491027</ele>
        <time>2022-03-08T11:34:05.755Z</time>
      </trkpt>
      <trkpt lat="42.64631" lon="23.88299">
        <ele>756.185835</ele>
        <time>2022-03-08T11:34:11.761Z</time>
      </trkpt>
      <trkpt lat="42.64623" lon="23.88292">
        <ele>756.971599</ele>
        <time>2022-03-08T11:34:18.751Z</time>
      </trkpt>
      <trkpt lat="42.64615" lon="23.88284">
        <ele>757.724615</ele>
        <time>2022-03-08T11:34:25.749Z</time>
      </trkpt>
      <trkpt lat="42.64606" lon="23.88277">
        <ele>758.497651</ele>
        <time>2022-03-08T11:34:32.775Z</time>
      </trkpt>
      <trkpt lat="42.64599" lon="23.88269">
        <ele>759.252585</ele>
        <time>2022-03-08T11:34:40.823Z</time>
      </trkpt>
      <trkpt lat="42.6459" lon="23.88262">
        <ele>760.04563</ele>
        <time>2022-03-08T11:34:47.770Z</time>
      </trkpt>
      <trkpt lat="42.64583" lon="23.88254">
        <ele>760.772899</ele>
        <time>2022-03-08T11:34:56.745Z</time>
      </trkpt>
      <trkpt lat="42.64575" lon="23.88248">
        <ele>761.510283</ele>
        <time>2022-03-08T11:35:04.749Z</time>
      </trkpt>
      <trkpt lat="42.64568" lon="23.8824">
        <ele>762.233402</ele>
        <time>2022-03-08T11:35:11.762Z</time>
      </trkpt>
      <trkpt lat="42.64559" lon="23.88233">
        <ele>762.983175</ele>
        <time>2022-03-08T11:35:19.775Z</time>
      </trkpt>
      <trkpt lat="42.64551" lon="23.88226">
        <ele>763.730236</ele>
        <time>2022-03-08T11:35:27.762Z</time>
      </trkpt>
      <trkpt lat="42.64543" lon="23.88219">
        <ele>764.470376</ele>
        <time>2022-03-08T11:35:35.775Z</time>
      </trkpt>
      <trkpt lat="42.64536" lon="23.88211">
        <ele>765.188798</ele>
        <time>2022-03-08T11:35:42.759Z</time>
      </trkpt>
      <trkpt lat="42.64528" lon="23.88206">
        <ele>765.893869</ele>
        <time>2022-03-08T11:35:49.759Z</time>
      </trkpt>
      <trkpt lat="42.6452" lon="23.88196">
        <ele>766.71618</ele>
        <time>2022-03-08T11:35:57.783Z</time>
      </trkpt>
      <trkpt lat="42.64512" lon="23.88189">
        <ele>767.488645</ele>
        <time>2022-03-08T11:36:04.778Z</time>
      </trkpt>
      <trkpt lat="42.64505" lon="23.88179">
        <ele>768.25522</ele>
        <time>2022-03-08T11:36:11.768Z</time>
      </trkpt>
      <trkpt lat="42.64498" lon="23.88171">
        <ele>768.997726</ele>
        <time>2022-03-08T11:36:18.806Z</time>
      </trkpt>
      <trkpt lat="42.64491" lon="23.88162">
        <ele>769.710265</ele>
        <time>2022-03-08T11:36:25.772Z</time>
      </trkpt>
      <trkpt lat="42.64484" lon="23.88153">
        <ele>770.466665</ele>
        <time>2022-03-08T11:36:33.782Z</time>
      </trkpt>
      <trkpt lat="42.64476" lon="23.88146">
        <ele>771.181678</ele>
        <time>2022-03-08T11:36:41.767Z</time>
      </trkpt>
      <trkpt lat="42.64469" lon="23.88136">
        <ele>771.935431</ele>
        <time>2022-03-08T11:36:48.755Z</time>
      </trkpt>
      <trkpt lat="42.64462" lon="23.88127">
        <ele>772.684162</ele>
        <time>2022-03-08T11:36:56.768Z</time>
      </trkpt>
      <trkpt lat="42.64455" lon="23.88117">
        <ele>773.40973</ele>
        <time>2022-03-08T11:37:03.768Z</time>
      </trkpt>
      <trkpt lat="42.6445" lon="23.88106">
        <ele>774.123714</ele>
        <time>2022-03-08T11:37:10.767Z</time>
      </trkpt>
      <trkpt lat="42.64444" lon="23.88095">
        <ele>774.886483</ele>
        <time>2022-03-08T11:37:17.776Z</time>
      </trkpt>
      <trkpt lat="42.64439" lon="23.88085">
        <ele>775.57507</ele>
        <time>2022-03-08T11:37:23.766Z</time>
      </trkpt>
      <trkpt lat="42.64433" lon="23.88074">
        <ele>776.316896</ele>
        <time>2022-03-08T11:37:30.760Z</time>
      </trkpt>
      <trkpt lat="42.64428" lon="23.88062">
        <ele>777.085931</ele>
        <time>2022-03-08T11:37:39.758Z</time>
      </trkpt>
      <trkpt lat="42.64424" lon="23.8805">
        <ele>777.771067</ele>
        <time>2022-03-08T11:37:47.766Z</time>
      </trkpt>
      <trkpt lat="42.64419" lon="23.88039">
        <ele>778.485705</ele>
        <time>2022-03-08T11:37:56.754Z</time>
      </trkpt>
      <trkpt lat="42.64415" lon="23.88026">
        <ele>779.256382</ele>
        <time>2022-03-08T11:38:05.765Z</time>
      </trkpt>
      <trkpt lat="42.64411" lon="23.88015">
        <ele>779.969043</ele>
        <time>2022-03-08T11:38:12.752Z</time>
      </trkpt>
      <trkpt lat="42.64406" lon="23.88004">
        <ele>780.656216</ele>
        <time>2022-03-08T11:38:19.767Z</time>
      </trkpt>
      <trkpt lat="42.64402" lon="23.87993">
        <ele>781.334743</ele>
        <time>2022-03-08T11:38:27.778Z</time>
      </trkpt>
      <trkpt lat="42.64399" lon="23.87981">
        <ele>782.01814</ele>
        <time>2022-03-08T11:38:35.778Z</time>
      </trkpt>
      <trkpt lat="42.64396" lon="23.87969">
        <ele>782.75963</ele>
        <time>2022-03-08T11:38:43.787Z</time>
      </trkpt>
      <trkpt lat="42.64391" lon="23.87957">
        <ele>783.168782</ele>
        <time>2022-03-08T11:38:51.745Z</time>
      </trkpt>
      <trkpt lat="42.64386" lon="23.87946">
        <ele>783.238209</ele>
        <time>2022-03-08T11:38:58.770Z</time>
      </trkpt>
      <trkpt lat="42.64382" lon="23.87935">
        <ele>783.303022</ele>
        <time>2022-03-08T11:39:04.768Z</time>
      </trkpt>
      <trkpt lat="42.64378" lon="23.87924">
        <ele>783.370303</ele>
        <time>2022-03-08T11:39:11.796Z</time>
      </trkpt>
      <trkpt lat="42.64375" lon="23.87911">
        <ele>783.441667</ele>
        <time>2022-03-08T11:39:19.770Z</time>
      </trkpt>
      <trkpt lat="42.64373" lon="23.87898">
        <ele>783.51263</ele>
        <time>2022-03-08T11:39:26.773Z</time>
      </trkpt>
      <trkpt lat="42.64369" lon="23.87885">
        <ele>783.584138</ele>
        <time>2022-03-08T11:39:33.804Z</time>
      </trkpt>
      <trkpt lat="42.64365" lon="23.87873">
        <ele>783.65931</ele>
        <time>2022-03-08T11:39:40.754Z</time>
      </trkpt>
      <trkpt lat="42.6436" lon="23.87861">
        <ele>783.732573</ele>
        <time>2022-03-08T11:39:47.781Z</time>
      </trkpt>
      <trkpt lat="42.64357" lon="23.87849">
        <ele>783.801614</ele>
        <time>2022-03-08T11:39:54.786Z</time>
      </trkpt>
      <trkpt lat="42.64352" lon="23.87838">
        <ele>783.867844</ele>
        <time>2022-03-08T11:40:00.775Z</time>
      </trkpt>
      <trkpt lat="42.64348" lon="23.87825">
        <ele>783.944359</ele>
        <time>2022-03-08T11:40:07.758Z</time>
      </trkpt>
      <trkpt lat="42.64344" lon="23.87814">
        <ele>784.011214</ele>
        <time>2022-03-08T11:40:13.764Z</time>
      </trkpt>
      <trkpt lat="42.64341" lon="23.878">
        <ele>784.088628</ele>
        <time>2022-03-08T11:40:19.765Z</time>
      </trkpt>
      <trkpt lat="42.64337" lon="23.87786">
        <ele>784.165873</ele>
        <time>2022-03-08T11:40:25.771Z</time>
      </trkpt>
      <trkpt lat="42.64334" lon="23.87774">
        <ele>784.23735</ele>
        <time>2022-03-08T11:40:30.766Z</time>
      </trkpt>
      <trkpt lat="42.6433" lon="23.87762">
        <ele>784.305343</ele>
        <time>2022-03-08T11:40:35.763Z</time>
      </trkpt>
      <trkpt lat="42.64327" lon="23.87749">
        <ele>784.379075</ele>
        <time>2022-03-08T11:40:41.749Z</time>
      </trkpt>
      <trkpt lat="42.64322" lon="23.87737">
        <ele>784.479956</ele>
        <time>2022-03-08T11:40:47.770Z</time>
      </trkpt>
      <trkpt lat="42.64317" lon="23.87725">
        <ele>784.710461</ele>
        <time>2022-03-08T11:40:54.758Z</time>
      </trkpt>
      <trkpt lat="42.64312" lon="23.87715">
        <ele>784.924447</ele>
        <time>2022-03-08T11:40:59.783Z</time>
      </trkpt>
      <trkpt lat="42.64307" lon="23.87704">
        <ele>785.137082</ele>
        <time>2022-03-08T11:41:05.746Z</time>
      </trkpt>
      <trkpt lat="42.64302" lon="23.87693">
        <ele>785.367588</ele>
        <time>2022-03-08T11:41:11.764Z</time>
      </trkpt>
      <trkpt lat="42.64296" lon="23.87683">
        <ele>785.595158</ele>
        <time>2022-03-08T11:41:17.784Z</time>
      </trkpt>
      <trkpt lat="42.6429" lon="23.87673">
        <ele>785.807463</ele>
        <time>2022-03-08T11:41:23.785Z</time>
      </trkpt>
      <trkpt lat="42.64284" lon="23.87663">
        <ele>786.031399</ele>
        <time>2022-03-08T11:41:29.757Z</time>
      </trkpt>
      <trkpt lat="42.64278" lon="23.87653">
        <ele>786.251697</ele>
        <time>2022-03-08T11:41:35.768Z</time>
      </trkpt>
      <trkpt lat="42.6427" lon="23.87645">
        <ele>786.488161</ele>
        <time>2022-03-08T11:41:41.780Z</time>
      </trkpt>
      <trkpt lat="42.64261" lon="23.87637">
        <ele>786.731305</ele>
        <time>2022-03-08T11:41:48.766Z</time>
      </trkpt>
      <trkpt lat="42.64253" lon="23.8763">
        <ele>786.963708</ele>
        <time>2022-03-08T11:41:55.767Z</time>
      </trkpt>
      <trkpt lat="42.64246" lon="23.87623">
        <ele>787.178653</ele>
        <time>2022-03-08T11:42:01.767Z</time>
      </trkpt>
      <trkpt lat="42.64238" lon="23.87616">
        <ele>787.389733</ele>
        <time>2022-03-08T11:42:08.781Z</time>
      </trkpt>
      <trkpt lat="42.6423" lon="23.87608">
        <ele>787.63082</ele>
        <time>2022-03-08T11:42:15.767Z</time>
      </trkpt>
      <trkpt lat="42.64222" lon="23.876">
        <ele>787.858565</ele>
        <time>2022-03-08T11:42:21.770Z</time>
      </trkpt>
      <trkpt lat="42.64214" lon="23.87592">
        <ele>788.09025</ele>
        <time>2022-03-08T11:42:27.766Z</time>
      </trkpt>
      <trkpt lat="42.64206" lon="23.87584">
        <ele>788.317433</ele>
        <time>2022-03-08T11:42:33.773Z</time>
      </trkpt>
      <trkpt lat="42.64199" lon="23.87574">
        <ele>788.557455</ele>
        <time>2022-03-08T11:42:40.773Z</time>
      </trkpt>
      <trkpt lat="42.64192" lon="23.87565">
        <ele>789.217865</ele>
        <time>2022-03-08T11:42:47.769Z</time>
      </trkpt>
      <trkpt lat="42.64185" lon="23.87555">
        <ele>790.202787</ele>
        <time>2022-03-08T11:42:54.766Z</time>
      </trkpt>
      <trkpt lat="42.64178" lon="23.87545">
        <ele>791.179958</ele>
        <time>2022-03-08T11:43:02.760Z</time>
      </trkpt>
      <trkpt lat="42.64172" lon="23.87536">
        <ele>792.117972</ele>
        <time>2022-03-08T11:43:09.833Z</time>
      </trkpt>
      <trkpt lat="42.64166" lon="23.87525">
        <ele>793.109284</ele>
        <time>2022-03-08T11:43:17.778Z</time>
      </trkpt>
      <trkpt lat="42.64161" lon="23.87513">
        <ele>794.082001</ele>
        <time>2022-03-08T11:43:25.775Z</time>
      </trkpt>
      <trkpt lat="42.64156" lon="23.87502">
        <ele>795.04221</ele>
        <time>2022-03-08T11:43:33.759Z</time>
      </trkpt>
      <trkpt lat="42.64152" lon="23.8749">
        <ele>795.948437</ele>
        <time>2022-03-08T11:43:40.768Z</time>
      </trkpt>
      <trkpt lat="42.64148" lon="23.87478">
        <ele>796.947714</ele>
        <time>2022-03-08T11:43:48.797Z</time>
      </trkpt>
      <trkpt lat="42.64145" lon="23.87466">
        <ele>797.908028</ele>
        <time>2022-03-08T11:43:55.780Z</time>
      </trkpt>
      <trkpt lat="42.64142" lon="23.87453">
        <ele>798.851197</ele>
        <time>2022-03-08T11:44:03.755Z</time>
      </trkpt>
      <trkpt lat="42.6414" lon="23.87439">
        <ele>799.882855</ele>
        <time>2022-03-08T11:44:11.776Z</time>
      </trkpt>
      <trkpt lat="42.64138" lon="23.87427">
        <ele>800.815645</ele>
        <time>2022-03-08T11:44:18.767Z</time>
      </trkpt>
      <trkpt lat="42.64136" lon="23.87415">
        <ele>801.721161</ele>
        <time>2022-03-08T11:44:25.764Z</time>
      </trkpt>
      <trkpt lat="42.64134" lon="23.87403">
        <ele>802.631179</ele>
        <time>2022-03-08T11:44:32.791Z</time>
      </trkpt>
      <trkpt lat="42.64131" lon="23.87391">
        <ele>803.545842</ele>
        <time>2022-03-08T11:44:39.759Z</time>
      </trkpt>
      <trkpt lat="42.6413" lon="23.87377">
        <ele>804.547214</ele>
        <time>2022-03-08T11:44:47.770Z</time>
      </trkpt>
      <trkpt lat="42.64128" lon="23.87364">
        <ele>805.503296</ele>
        <time>2022-03-08T11:44:55.769Z</time>
      </trkpt>
      <trkpt lat="42.64126" lon="23.87352">
        <ele>806.400301</ele>
        <time>2022-03-08T11:45:02.759Z</time>
      </trkpt>
      <trkpt lat="42.64125" lon="23.87339">
        <ele>807.187399</ele>
        <time>2022-03-08T11:45:09.766Z</time>
      </trkpt>
      <trkpt lat="42.64124" lon="23.87326">
        <ele>807.92946</ele>
        <time>2022-03-08T11:45:16.776Z</time>
      </trkpt>
      <trkpt lat="42.64122" lon="23.87313">
        <ele>808.723557</ele>
        <time>2022-03-08T11:45:24.773Z</time>
      </trkpt>
      <trkpt lat="42.6412" lon="23.873">
        <ele>809.522326</ele>
        <time>2022-03-08T11:45:33.769Z</time>
      </trkpt>
      <trkpt lat="42.64117" lon="23.87287">
        <ele>810.29913</ele>
        <time>2022-03-08T11:45:41.773Z</time>
      </trkpt>
      <trkpt lat="42.64115" lon="23.87276">
        <ele>811.028443</ele>
        <time>2022-03-08T11:45:48.763Z</time>
      </trkpt>
      <trkpt lat="42.64112" lon="23.87264">
        <ele>811.748955</ele>
        <time>2022-03-08T11:45:55.797Z</time>
      </trkpt>
      <trkpt lat="42.64108" lon="23.87252">
        <ele>812.529951</ele>
        <time>2022-03-08T11:46:02.768Z</time>
      </trkpt>
      <trkpt lat="42.64106" lon="23.87239">
        <ele>813.313315</ele>
        <time>2022-03-08T11:46:09.762Z</time>
      </trkpt>
      <trkpt lat="42.64103" lon="23.87226">
        <ele>814.116556</ele>
        <time>2022-03-08T11:46:17.765Z</time>
      </trkpt>
      <trkpt lat="42.64099" lon="23.87213">
        <ele>814.92801</ele>
        <time>2022-03-08T11:46:25.784Z</time>
      </trkpt>
      <trkpt lat="42.64096" lon="23.872">
        <ele>815.717715</ele>
        <time>2022-03-08T11:46:33.795Z</time>
      </trkpt>
      <trkpt lat="42.64092" lon="23.87189">
        <ele>816.471924</ele>
        <time>2022-03-08T11:46:40.765Z</time>
      </trkpt>
      <trkpt lat="42.64088" lon="23.87177">
        <ele>817.217337</ele>
        <time>2022-03-08T11:46:48.772Z</time>
      </trkpt>
      <trkpt lat="42.64085" lon="23.87165">
        <ele>817.979801</ele>
        <time>2022-03-08T11:46:56.792Z</time>
      </trkpt>
      <trkpt lat="42.64081" lon="23.87154">
        <ele>818.734612</ele>
        <time>2022-03-08T11:47:03.770Z</time>
      </trkpt>
      <trkpt lat="42.64077" lon="23.87141">
        <ele>819.519671</ele>
        <time>2022-03-08T11:47:11.764Z</time>
      </trkpt>
      <trkpt lat="42.64073" lon="23.8713">
        <ele>820.293313</ele>
        <time>2022-03-08T11:47:19.771Z</time>
      </trkpt>
      <trkpt lat="42.64068" lon="23.87118">
        <ele>820.959106</ele>
        <time>2022-03-08T11:47:26.764Z</time>
      </trkpt>
      <trkpt lat="42.64064" lon="23.87107">
        <ele>821.340458</ele>
        <time>2022-03-08T11:47:34.771Z</time>
      </trkpt>
      <trkpt lat="42.64061" lon="23.87095">
        <ele>821.711528</ele>
        <time>2022-03-08T11:47:41.776Z</time>
      </trkpt>
      <trkpt lat="42.64057" lon="23.87083">
        <ele>822.080428</ele>
        <time>2022-03-08T11:47:48.777Z</time>
      </trkpt>
      <trkpt lat="42.64053" lon="23.87071">
        <ele>822.468833</ele>
        <time>2022-03-08T11:47:55.773Z</time>
      </trkpt>
      <trkpt lat="42.6405" lon="23.87059">
        <ele>822.84183</ele>
        <time>2022-03-08T11:48:02.804Z</time>
      </trkpt>
      <trkpt lat="42.64046" lon="23.87048">
        <ele>823.205653</ele>
        <time>2022-03-08T11:48:09.789Z</time>
      </trkpt>
      <trkpt lat="42.64041" lon="23.87037">
        <ele>823.579273</ele>
        <time>2022-03-08T11:48:18.806Z</time>
      </trkpt>
      <trkpt lat="42.64037" lon="23.87024">
        <ele>823.97874</ele>
        <time>2022-03-08T11:48:27.767Z</time>
      </trkpt>
      <trkpt lat="42.64034" lon="23.87013">
        <ele>824.339725</ele>
        <time>2022-03-08T11:48:34.778Z</time>
      </trkpt>
      <trkpt lat="42.6403" lon="23.87001">
        <ele>824.713468</ele>
        <time>2022-03-08T11:48:43.754Z</time>
      </trkpt>
      <trkpt lat="42.64025" lon="23.86991">
        <ele>825.07898</ele>
        <time>2022-03-08T11:48:51.807Z</time>
      </trkpt>
      <trkpt lat="42.64022" lon="23.86978">
        <ele>825.458926</ele>
        <time>2022-03-08T11:49:00.778Z</time>
      </trkpt>
      <trkpt lat="42.64018" lon="23.86966">
        <ele>825.858097</ele>
        <time>2022-03-08T11:49:08.791Z</time>
      </trkpt>
      <trkpt lat="42.64015" lon="23.86954">
        <ele>826.216008</ele>
        <time>2022-03-08T11:49:16.759Z</time>
      </trkpt>
      <trkpt lat="42.64012" lon="23.86942">
        <ele>826.589063</ele>
        <time>2022-03-08T11:49:24.781Z</time>
      </trkpt>
      <trkpt lat="42.64009" lon="23.8693">
        <ele>826.950714</ele>
        <time>2022-03-08T11:49:31.775Z</time>
      </trkpt>
      <trkpt lat="42.64007" lon="23.86918">
        <ele>827.334897</ele>
        <time>2022-03-08T11:49:39.776Z</time>
      </trkpt>
      <trkpt lat="42.64006" lon="23.86905">
        <ele>827.715537</ele>
        <time>2022-03-08T11:49:47.802Z</time>
      </trkpt>
      <trkpt lat="42.64005" lon="23.86891">
        <ele>828.112813</ele>
        <time>2022-03-08T11:49:56.764Z</time>
      </trkpt>
      <trkpt lat="42.64004" lon="23.86879">
        <ele>828.51451</ele>
        <time>2022-03-08T11:50:04.772Z</time>
      </trkpt>
      <trkpt lat="42.64005" lon="23.86865">
        <ele>828.934425</ele>
        <time>2022-03-08T11:50:12.762Z</time>
      </trkpt>
      <trkpt lat="42.64004" lon="23.86852">
        <ele>829.350865</ele>
        <time>2022-03-08T11:50:21.810Z</time>
      </trkpt>
      <trkpt lat="42.64005" lon="23.8684">
        <ele>829.740151</ele>
        <time>2022-03-08T11:50:30.776Z</time>
      </trkpt>
      <trkpt lat="42.64005" lon="23.86827">
        <ele>830.124092</ele>
        <time>2022-03-08T11:50:39.775Z</time>
      </trkpt>
      <trkpt lat="42.64005" lon="23.86814">
        <ele>830.529873</ele>
        <time>2022-03-08T11:50:47.772Z</time>
      </trkpt>
      <trkpt lat="42.64005" lon="23.86801">
        <ele>830.932467</ele>
        <time>2022-03-08T11:50:55.777Z</time>
      </trkpt>
      <trkpt lat="42.64004" lon="23.86788">
        <ele>831.348907</ele>
        <time>2022-03-08T11:51:03.772Z</time>
      </trkpt>
      <trkpt lat="42.64004" lon="23.86775">
        <ele>831.754621</ele>
        <time>2022-03-08T11:51:11.819Z</time>
      </trkpt>
      <trkpt lat="42.64005" lon="23.86763">
        <ele>832.145286</ele>
        <time>2022-03-08T11:51:20.781Z</time>
      </trkpt>
      <trkpt lat="42.64004" lon="23.8675">
        <ele>832.539958</ele>
        <time>2022-03-08T11:51:28.774Z</time>
      </trkpt>
      <trkpt lat="42.64004" lon="23.86737">
        <ele>832.958219</ele>
        <time>2022-03-08T11:51:36.757Z</time>
      </trkpt>
      <trkpt lat="42.64003" lon="23.86724">
        <ele>833.352</ele>
        <time>2022-03-08T11:51:43.768Z</time>
      </trkpt>
      <trkpt lat="42.64005" lon="23.8671">
        <ele>833.782558</ele>
        <time>2022-03-08T11:51:51.773Z</time>
      </trkpt>
      <trkpt lat="42.64006" lon="23.86697">
        <ele>834.190925</ele>
        <time>2022-03-08T11:52:00.803Z</time>
      </trkpt>
      <trkpt lat="42.64006" lon="23.86684">
        <ele>834.590466</ele>
        <time>2022-03-08T11:52:08.754Z</time>
      </trkpt>
      <trkpt lat="42.64004" lon="23.86671">
        <ele>835.006659</ele>
        <time>2022-03-08T11:52:17.783Z</time>
      </trkpt>
      <trkpt lat="42.64003" lon="23.86658">
        <ele>835.407549</ele>
        <time>2022-03-08T11:52:26.771Z</time>
      </trkpt>
      <trkpt lat="42.64003" lon="23.86645">
        <ele>835.809297</ele>
        <time>2022-03-08T11:52:34.764Z</time>
      </trkpt>
      <trkpt lat="42.64002" lon="23.86632">
        <ele>836.192938</ele>
        <time>2022-03-08T11:52:43.752Z</time>
      </trkpt>
      <trkpt lat="42.63999" lon="23.8662">
        <ele>836.558804</ele>
        <time>2022-03-08T11:52:51.819Z</time>
      </trkpt>
      <trkpt lat="42.63996" lon="23.86607">
        <ele>836.93401</ele>
        <time>2022-03-08T11:52:59.764Z</time>
      </trkpt>
      <trkpt lat="42.63993" lon="23.86595">
        <ele>837.315677</ele>
        <time>2022-03-08T11:53:07.810Z</time>
      </trkpt>
      <trkpt lat="42.63989" lon="23.86583">
        <ele>837.676101</ele>
        <time>2022-03-08T11:53:14.766Z</time>
      </trkpt>
      <trkpt lat="42.63985" lon="23.8657">
        <ele>838.070331</ele>
        <time>2022-03-08T11:53:23.770Z</time>
      </trkpt>
      <trkpt lat="42.6398" lon="23.86559">
        <ele>838.452044</ele>
        <time>2022-03-08T11:53:30.760Z</time>
      </trkpt>
      <trkpt lat="42.63975" lon="23.86547">
        <ele>838.844143</ele>
        <time>2022-03-08T11:53:37.784Z</time>
      </trkpt>
      <trkpt lat="42.63971" lon="23.86536">
        <ele>839.193949</ele>
        <time>2022-03-08T11:53:43.760Z</time>
      </trkpt>
      <trkpt lat="42.63965" lon="23.86525">
        <ele>839.559901</ele>
        <time>2022-03-08T11:53:49.778Z</time>
      </trkpt>
      <trkpt lat="42.6396" lon="23.86513">
        <ele>839.961326</ele>
        <time>2022-03-08T11:53:55.771Z</time>
      </trkpt>
      <trkpt lat="42.63955" lon="23.86503">
        <ele>840.317811</ele>
        <time>2022-03-08T11:54:01.772Z</time>
      </trkpt>
      <trkpt lat="42.63949" lon="23.86492">
        <ele>840.695188</ele>
        <time>2022-03-08T11:54:07.765Z</time>
      </trkpt>
      <trkpt lat="42.63945" lon="23.86481">
        <ele>841.066228</ele>
        <time>2022-03-08T11:54:12.804Z</time>
      </trkpt>
      <trkpt lat="42.6394" lon="23.86469">
        <ele>841.462266</ele>
        <time>2022-03-08T11:54:18.808Z</time>
      </trkpt>
      <trkpt lat="42.63934" lon="23.86456">
        <ele>841.877478</ele>
        <time>2022-03-08T11:54:24.761Z</time>
      </trkpt>
      <trkpt lat="42.63929" lon="23.86444">
        <ele>842.290675</ele>
        <time>2022-03-08T11:54:29.807Z</time>
      </trkpt>
      <trkpt lat="42.63923" lon="23.86432">
        <ele>842.570662</ele>
        <time>2022-03-08T11:54:34.764Z</time>
      </trkpt>
      <trkpt lat="42.63917" lon="23.86419">
        <ele>842.186777</ele>
        <time>2022-03-08T11:54:39.778Z</time>
      </trkpt>
      <trkpt lat="42.63912" lon="23.86409">
        <ele>841.848324</ele>
        <time>2022-03-08T11:54:43.763Z</time>
      </trkpt>
      <trkpt lat="42.63907" lon="23.86395">
        <ele>841.422872</ele>
        <time>2022-03-08T11:54:47.759Z</time>
      </trkpt>
      <trkpt lat="42.63902" lon="23.86381">
        <ele>840.994394</ele>
        <time>2022-03-08T11:54:51.766Z</time>
      </trkpt>
      <trkpt lat="42.63898" lon="23.86367">
        <ele>840.584394</ele>
        <time>2022-03-08T11:54:55.777Z</time>
      </trkpt>
      <trkpt lat="42.63894" lon="23.86354">
        <ele>840.206934</ele>
        <time>2022-03-08T11:54:59.788Z</time>
      </trkpt>
      <trkpt lat="42.63892" lon="23.86341">
        <ele>839.822155</ele>
        <time>2022-03-08T11:55:03.751Z</time>
      </trkpt>
      <trkpt lat="42.6389" lon="23.86324">
        <ele>839.373377</ele>
        <time>2022-03-08T11:55:07.771Z</time>
      </trkpt>
      <trkpt lat="42.63889" lon="23.8631">
        <ele>838.993</ele>
        <time>2022-03-08T11:55:10.776Z</time>
      </trkpt>
      <trkpt lat="42.63888" lon="23.86295">
        <ele>838.585141</ele>
        <time>2022-03-08T11:55:13.775Z</time>
      </trkpt>
      <trkpt lat="42.63888" lon="23.86281">
        <ele>838.183993</ele>
        <time>2022-03-08T11:55:16.769Z</time>
      </trkpt>
      <trkpt lat="42.63888" lon="23.86266">
        <ele>837.78593</ele>
        <time>2022-03-08T11:55:19.776Z</time>
      </trkpt>
      <trkpt lat="42.63888" lon="23.8625">
        <ele>837.338853</ele>
        <time>2022-03-08T11:55:22.774Z</time>
      </trkpt>
      <trkpt lat="42.63889" lon="23.86233">
        <ele>836.868522</ele>
        <time>2022-03-08T11:55:25.764Z</time>
      </trkpt>
      <trkpt lat="42.6389" lon="23.86214">
        <ele>836.365287</ele>
        <time>2022-03-08T11:55:28.781Z</time>
      </trkpt>
      <trkpt lat="42.63891" lon="23.86201">
        <ele>836.007242</ele>
        <time>2022-03-08T11:55:30.774Z</time>
      </trkpt>
      <trkpt lat="42.63892" lon="23.86188">
        <ele>835.576971</ele>
        <time>2022-03-08T11:55:32.759Z</time>
      </trkpt>
      <trkpt lat="42.63893" lon="23.86175">
        <ele>835.154015</ele>
        <time>2022-03-08T11:55:34.764Z</time>
      </trkpt>
      <trkpt lat="42.63894" lon="23.8616">
        <ele>834.695551</ele>
        <time>2022-03-08T11:55:36.760Z</time>
      </trkpt>
      <trkpt lat="42.63894" lon="23.86144">
        <ele>834.167531</ele>
        <time>2022-03-08T11:55:38.777Z</time>
      </trkpt>
      <trkpt lat="42.63894" lon="23.86127">
        <ele>833.616197</ele>
        <time>2022-03-08T11:55:40.777Z</time>
      </trkpt>
      <trkpt lat="42.63895" lon="23.86109">
        <ele>833.028982</ele>
        <time>2022-03-08T11:55:42.815Z</time>
      </trkpt>
      <trkpt lat="42.63897" lon="23.8609">
        <ele>832.418293</ele>
        <time>2022-03-08T11:55:44.767Z</time>
      </trkpt>
      <trkpt lat="42.63897" lon="23.86071">
        <ele>831.821955</ele>
        <time>2022-03-08T11:55:46.776Z</time>
      </trkpt>
      <trkpt lat="42.63898" lon="23.86054">
        <ele>831.251554</ele>
        <time>2022-03-08T11:55:48.807Z</time>
      </trkpt>
      <trkpt lat="42.63899" lon="23.86035">
        <ele>830.661127</ele>
        <time>2022-03-08T11:55:50.769Z</time>
      </trkpt>
      <trkpt lat="42.639" lon="23.86016">
        <ele>830.047231</ele>
        <time>2022-03-08T11:55:52.757Z</time>
      </trkpt>
      <trkpt lat="42.63901" lon="23.85996">
        <ele>829.402189</ele>
        <time>2022-03-08T11:55:54.756Z</time>
      </trkpt>
      <trkpt lat="42.63902" lon="23.85975">
        <ele>828.726184</ele>
        <time>2022-03-08T11:55:56.776Z</time>
      </trkpt>
      <trkpt lat="42.63904" lon="23.85955">
        <ele>828.03727</ele>
        <time>2022-03-08T11:55:58.763Z</time>
      </trkpt>
      <trkpt lat="42.63905" lon="23.85933">
        <ele>827.149562</ele>
        <time>2022-03-08T11:56:00.795Z</time>
      </trkpt>
      <trkpt lat="42.63907" lon="23.85912">
        <ele>826.24324</ele>
        <time>2022-03-08T11:56:02.758Z</time>
      </trkpt>
      <trkpt lat="42.63909" lon="23.85889">
        <ele>825.278214</ele>
        <time>2022-03-08T11:56:04.765Z</time>
      </trkpt>
      <trkpt lat="42.63911" lon="23.85867">
        <ele>824.328254</ele>
        <time>2022-03-08T11:56:06.777Z</time>
      </trkpt>
      <trkpt lat="42.63915" lon="23.85845">
        <ele>823.411086</ele>
        <time>2022-03-08T11:56:08.764Z</time>
      </trkpt>
      <trkpt lat="42.6392" lon="23.85825">
        <ele>822.497289</ele>
        <time>2022-03-08T11:56:10.779Z</time>
      </trkpt>
      <trkpt lat="42.63927" lon="23.85805">
        <ele>821.561565</ele>
        <time>2022-03-08T11:56:12.761Z</time>
      </trkpt>
      <trkpt lat="42.63935" lon="23.85785">
        <ele>820.617231</ele>
        <time>2022-03-08T11:56:14.768Z</time>
      </trkpt>
      <trkpt lat="42.63944" lon="23.85766">
        <ele>819.660755</ele>
        <time>2022-03-08T11:56:16.777Z</time>
      </trkpt>
      <trkpt lat="42.63953" lon="23.85747">
        <ele>818.733778</ele>
        <time>2022-03-08T11:56:18.772Z</time>
      </trkpt>
      <trkpt lat="42.63963" lon="23.8573">
        <ele>817.819459</ele>
        <time>2022-03-08T11:56:20.774Z</time>
      </trkpt>
      <trkpt lat="42.63972" lon="23.85713">
        <ele>817.002528</ele>
        <time>2022-03-08T11:56:22.769Z</time>
      </trkpt>
      <trkpt lat="42.63981" lon="23.85696">
        <ele>816.182433</ele>
        <time>2022-03-08T11:56:24.779Z</time>
      </trkpt>
      <trkpt lat="42.6399" lon="23.85678">
        <ele>815.349335</ele>
        <time>2022-03-08T11:56:26.770Z</time>
      </trkpt>
      <trkpt lat="42.63999" lon="23.8566">
        <ele>814.494548</ele>
        <time>2022-03-08T11:56:28.771Z</time>
      </trkpt>
      <trkpt lat="42.64008" lon="23.85642">
        <ele>813.667843</ele>
        <time>2022-03-08T11:56:30.757Z</time>
      </trkpt>
      <trkpt lat="42.64017" lon="23.85624">
        <ele>812.822418</ele>
        <time>2022-03-08T11:56:32.768Z</time>
      </trkpt>
      <trkpt lat="42.64028" lon="23.85607">
        <ele>811.93562</ele>
        <time>2022-03-08T11:56:34.813Z</time>
      </trkpt>
      <trkpt lat="42.64039" lon="23.85591">
        <ele>811.091847</ele>
        <time>2022-03-08T11:56:36.786Z</time>
      </trkpt>
      <trkpt lat="42.64052" lon="23.85578">
        <ele>810.247209</ele>
        <time>2022-03-08T11:56:38.776Z</time>
      </trkpt>
      <trkpt lat="42.64067" lon="23.85568">
        <ele>809.364092</ele>
        <time>2022-03-08T11:56:40.782Z</time>
      </trkpt>
      <trkpt lat="42.64083" lon="23.85558">
        <ele>808.44225</ele>
        <time>2022-03-08T11:56:42.753Z</time>
      </trkpt>
      <trkpt lat="42.64099" lon="23.85549">
        <ele>807.872594</ele>
        <time>2022-03-08T11:56:44.771Z</time>
      </trkpt>
      <trkpt lat="42.64115" lon="23.85539">
        <ele>807.336946</ele>
        <time>2022-03-08T11:56:46.788Z</time>
      </trkpt>
      <trkpt lat="42.64123" lon="23.85534">
        <ele>807.054031</ele>
        <time>2022-03-08T11:56:47.775Z</time>
      </trkpt>
      <trkpt lat="42.64131" lon="23.85529">
        <ele>806.770087</ele>
        <time>2022-03-08T11:56:48.755Z</time>
      </trkpt>
      <trkpt lat="42.64147" lon="23.85519">
        <ele>806.220217</ele>
        <time>2022-03-08T11:56:50.775Z</time>
      </trkpt>
      <trkpt lat="42.64163" lon="23.85509">
        <ele>805.700768</ele>
        <time>2022-03-08T11:56:52.772Z</time>
      </trkpt>
      <trkpt lat="42.64177" lon="23.85501">
        <ele>805.22463</ele>
        <time>2022-03-08T11:56:54.762Z</time>
      </trkpt>
      <trkpt lat="42.64191" lon="23.85498">
        <ele>804.769546</ele>
        <time>2022-03-08T11:56:56.768Z</time>
      </trkpt>
      <trkpt lat="42.64207" lon="23.85498">
        <ele>804.286509</ele>
        <time>2022-03-08T11:56:58.765Z</time>
      </trkpt>
      <trkpt lat="42.64223" lon="23.85501">
        <ele>803.783175</ele>
        <time>2022-03-08T11:57:00.780Z</time>
      </trkpt>
      <trkpt lat="42.64238" lon="23.85509">
        <ele>803.25322</ele>
        <time>2022-03-08T11:57:02.766Z</time>
      </trkpt>
      <trkpt lat="42.64247" lon="23.85516">
        <ele>802.955076</ele>
        <time>2022-03-08T11:57:03.775Z</time>
      </trkpt>
      <trkpt lat="42.64255" lon="23.85522">
        <ele>802.664703</ele>
        <time>2022-03-08T11:57:04.769Z</time>
      </trkpt>
      <trkpt lat="42.64264" lon="23.85529">
        <ele>802.391173</ele>
        <time>2022-03-08T11:57:05.764Z</time>
      </trkpt>
      <trkpt lat="42.64272" lon="23.85536">
        <ele>802.124761</ele>
        <time>2022-03-08T11:57:06.762Z</time>
      </trkpt>
      <trkpt lat="42.6428" lon="23.85542">
        <ele>801.864123</ele>
        <time>2022-03-08T11:57:07.765Z</time>
      </trkpt>
      <trkpt lat="42.64289" lon="23.85548">
        <ele>801.610237</ele>
        <time>2022-03-08T11:57:08.763Z</time>
      </trkpt>
      <trkpt lat="42.64304" lon="23.85559">
        <ele>801.12504</ele>
        <time>2022-03-08T11:57:10.759Z</time>
      </trkpt>
      <trkpt lat="42.64319" lon="23.85569">
        <ele>800.673851</ele>
        <time>2022-03-08T11:57:12.764Z</time>
      </trkpt>
      <trkpt lat="42.64334" lon="23.85575">
        <ele>800.247414</ele>
        <time>2022-03-08T11:57:14.773Z</time>
      </trkpt>
      <trkpt lat="42.64349" lon="23.85577">
        <ele>799.846917</ele>
        <time>2022-03-08T11:57:16.771Z</time>
      </trkpt>
      <trkpt lat="42.64362" lon="23.85575">
        <ele>799.462216</ele>
        <time>2022-03-08T11:57:18.811Z</time>
      </trkpt>
      <trkpt lat="42.64375" lon="23.85568">
        <ele>799.097391</ele>
        <time>2022-03-08T11:57:20.756Z</time>
      </trkpt>
      <trkpt lat="42.64383" lon="23.85558">
        <ele>798.800686</ele>
        <time>2022-03-08T11:57:22.759Z</time>
      </trkpt>
      <trkpt lat="42.64389" lon="23.85548">
        <ele>798.540731</ele>
        <time>2022-03-08T11:57:24.771Z</time>
      </trkpt>
      <trkpt lat="42.64395" lon="23.85534">
        <ele>798.215321</ele>
        <time>2022-03-08T11:57:27.767Z</time>
      </trkpt>
      <trkpt lat="42.64399" lon="23.85522">
        <ele>797.94954</ele>
        <time>2022-03-08T11:57:30.763Z</time>
      </trkpt>
      <trkpt lat="42.64402" lon="23.85509">
        <ele>797.800271</ele>
        <time>2022-03-08T11:57:34.771Z</time>
      </trkpt>
      <trkpt lat="42.64404" lon="23.85493">
        <ele>797.731349</ele>
        <time>2022-03-08T11:57:39.789Z</time>
      </trkpt>
      <trkpt lat="42.64403" lon="23.85478">
        <ele>797.664518</ele>
        <time>2022-03-08T11:57:43.771Z</time>
      </trkpt>
      <trkpt lat="42.64402" lon="23.85463">
        <ele>797.597396</ele>
        <time>2022-03-08T11:57:47.780Z</time>
      </trkpt>
      <trkpt lat="42.64404" lon="23.8545">
        <ele>797.538749</ele>
        <time>2022-03-08T11:57:51.791Z</time>
      </trkpt>
      <trkpt lat="42.64405" lon="23.85437">
        <ele>797.478985</ele>
        <time>2022-03-08T11:57:55.773Z</time>
      </trkpt>
      <trkpt lat="42.64405" lon="23.85422">
        <ele>797.411832</ele>
        <time>2022-03-08T11:57:59.781Z</time>
      </trkpt>
      <trkpt lat="42.64405" lon="23.85407">
        <ele>797.345223</ele>
        <time>2022-03-08T11:58:03.760Z</time>
      </trkpt>
      <trkpt lat="42.64404" lon="23.85393">
        <ele>797.279283</ele>
        <time>2022-03-08T11:58:07.783Z</time>
      </trkpt>
      <trkpt lat="42.64404" lon="23.85377">
        <ele>797.210375</ele>
        <time>2022-03-08T11:58:11.762Z</time>
      </trkpt>
      <trkpt lat="42.64403" lon="23.85364">
        <ele>797.152233</ele>
        <time>2022-03-08T11:58:14.794Z</time>
      </trkpt>
      <trkpt lat="42.64404" lon="23.8535">
        <ele>797.087836</ele>
        <time>2022-03-08T11:58:17.775Z</time>
      </trkpt>
      <trkpt lat="42.64404" lon="23.85334">
        <ele>797.017971</ele>
        <time>2022-03-08T11:58:20.755Z</time>
      </trkpt>
      <trkpt lat="42.64404" lon="23.85317">
        <ele>796.940037</ele>
        <time>2022-03-08T11:58:23.758Z</time>
      </trkpt>
      <trkpt lat="42.64403" lon="23.85305">
        <ele>796.885497</ele>
        <time>2022-03-08T11:58:25.779Z</time>
      </trkpt>
      <trkpt lat="42.64405" lon="23.85287">
        <ele>796.807251</ele>
        <time>2022-03-08T11:58:28.764Z</time>
      </trkpt>
      <trkpt lat="42.64405" lon="23.85275">
        <ele>796.750808</ele>
        <time>2022-03-08T11:58:30.813Z</time>
      </trkpt>
      <trkpt lat="42.64406" lon="23.85256">
        <ele>796.758717</ele>
        <time>2022-03-08T11:58:33.753Z</time>
      </trkpt>
      <trkpt lat="42.64407" lon="23.85244">
        <ele>796.766541</ele>
        <time>2022-03-08T11:58:35.763Z</time>
      </trkpt>
      <trkpt lat="42.64408" lon="23.85231">
        <ele>796.774874</ele>
        <time>2022-03-08T11:58:37.767Z</time>
      </trkpt>
      <trkpt lat="42.64411" lon="23.85218">
        <ele>796.78364</ele>
        <time>2022-03-08T11:58:39.783Z</time>
      </trkpt>
      <trkpt lat="42.64415" lon="23.85204">
        <ele>796.793237</ele>
        <time>2022-03-08T11:58:41.799Z</time>
      </trkpt>
      <trkpt lat="42.64421" lon="23.85192">
        <ele>796.802553</ele>
        <time>2022-03-08T11:58:43.762Z</time>
      </trkpt>
      <trkpt lat="42.64427" lon="23.8518">
        <ele>796.811704</ele>
        <time>2022-03-08T11:58:45.784Z</time>
      </trkpt>
      <trkpt lat="42.64435" lon="23.85169">
        <ele>796.821412</ele>
        <time>2022-03-08T11:58:47.773Z</time>
      </trkpt>
      <trkpt lat="42.64445" lon="23.85161">
        <ele>796.83152</ele>
        <time>2022-03-08T11:58:49.759Z</time>
      </trkpt>
      <trkpt lat="42.64457" lon="23.85154">
        <ele>796.842687</ele>
        <time>2022-03-08T11:58:51.761Z</time>
      </trkpt>
      <trkpt lat="42.6447" lon="23.85147">
        <ele>796.85529</ele>
        <time>2022-03-08T11:58:53.785Z</time>
      </trkpt>
      <trkpt lat="42.64484" lon="23.85139">
        <ele>796.868206</ele>
        <time>2022-03-08T11:58:55.792Z</time>
      </trkpt>
      <trkpt lat="42.64499" lon="23.85131">
        <ele>796.882118</ele>
        <time>2022-03-08T11:58:57.782Z</time>
      </trkpt>
      <trkpt lat="42.64514" lon="23.85123">
        <ele>796.896603</ele>
        <time>2022-03-08T11:58:59.770Z</time>
      </trkpt>
      <trkpt lat="42.64531" lon="23.85114">
        <ele>796.3009</ele>
        <time>2022-03-08T11:59:01.779Z</time>
      </trkpt>
      <trkpt lat="42.64539" lon="23.85108">
        <ele>795.733461</ele>
        <time>2022-03-08T11:59:02.777Z</time>
      </trkpt>
      <trkpt lat="42.64547" lon="23.85101">
        <ele>795.157612</ele>
        <time>2022-03-08T11:59:03.791Z</time>
      </trkpt>
      <trkpt lat="42.64554" lon="23.85092">
        <ele>794.565418</ele>
        <time>2022-03-08T11:59:04.777Z</time>
      </trkpt>
      <trkpt lat="42.64561" lon="23.85083">
        <ele>793.963571</ele>
        <time>2022-03-08T11:59:05.779Z</time>
      </trkpt>
      <trkpt lat="42.64567" lon="23.85073">
        <ele>793.381753</ele>
        <time>2022-03-08T11:59:06.772Z</time>
      </trkpt>
      <trkpt lat="42.64572" lon="23.85063">
        <ele>792.808355</ele>
        <time>2022-03-08T11:59:07.757Z</time>
      </trkpt>
      <trkpt lat="42.64577" lon="23.85052">
        <ele>792.241885</ele>
        <time>2022-03-08T11:59:08.785Z</time>
      </trkpt>
      <trkpt lat="42.64586" lon="23.85032">
        <ele>791.171576</ele>
        <time>2022-03-08T11:59:10.775Z</time>
      </trkpt>
      <trkpt lat="42.64595" lon="23.85012">
        <ele>790.113826</ele>
        <time>2022-03-08T11:59:12.772Z</time>
      </trkpt>
      <trkpt lat="42.64604" lon="23.84991">
        <ele>789.019362</ele>
        <time>2022-03-08T11:59:14.779Z</time>
      </trkpt>
      <trkpt lat="42.64613" lon="23.8497">
        <ele>787.934963</ele>
        <time>2022-03-08T11:59:16.765Z</time>
      </trkpt>
      <trkpt lat="42.64621" lon="23.8495">
        <ele>786.902149</ele>
        <time>2022-03-08T11:59:18.757Z</time>
      </trkpt>
      <trkpt lat="42.64628" lon="23.84931">
        <ele>785.916072</ele>
        <time>2022-03-08T11:59:20.796Z</time>
      </trkpt>
      <trkpt lat="42.64633" lon="23.8491">
        <ele>784.670426</ele>
        <time>2022-03-08T11:59:22.755Z</time>
      </trkpt>
      <trkpt lat="42.64638" lon="23.8489">
        <ele>783.429012</ele>
        <time>2022-03-08T11:59:24.763Z</time>
      </trkpt>
      <trkpt lat="42.64641" lon="23.84871">
        <ele>782.27156</ele>
        <time>2022-03-08T11:59:26.778Z</time>
      </trkpt>
      <trkpt lat="42.64644" lon="23.84853">
        <ele>781.180279</ele>
        <time>2022-03-08T11:59:28.760Z</time>
      </trkpt>
      <trkpt lat="42.64648" lon="23.84835">
        <ele>780.12525</ele>
        <time>2022-03-08T11:59:30.775Z</time>
      </trkpt>
      <trkpt lat="42.64651" lon="23.84818">
        <ele>779.094195</ele>
        <time>2022-03-08T11:59:32.766Z</time>
      </trkpt>
      <trkpt lat="42.64654" lon="23.84802">
        <ele>778.13227</ele>
        <time>2022-03-08T11:59:34.783Z</time>
      </trkpt>
      <trkpt lat="42.64656" lon="23.84787">
        <ele>777.2302</ele>
        <time>2022-03-08T11:59:36.769Z</time>
      </trkpt>
      <trkpt lat="42.64659" lon="23.84773">
        <ele>776.361292</ele>
        <time>2022-03-08T11:59:38.760Z</time>
      </trkpt>
      <trkpt lat="42.64662" lon="23.84758">
        <ele>775.477112</ele>
        <time>2022-03-08T11:59:40.771Z</time>
      </trkpt>
      <trkpt lat="42.64664" lon="23.84745">
        <ele>774.649641</ele>
        <time>2022-03-08T11:59:42.776Z</time>
      </trkpt>
      <trkpt lat="42.64666" lon="23.84732">
        <ele>773.867889</ele>
        <time>2022-03-08T11:59:44.767Z</time>
      </trkpt>
      <trkpt lat="42.64669" lon="23.8472">
        <ele>773.134802</ele>
        <time>2022-03-08T11:59:46.776Z</time>
      </trkpt>
      <trkpt lat="42.64673" lon="23.84702">
        <ele>772.052991</ele>
        <time>2022-03-08T11:59:49.780Z</time>
      </trkpt>
      <trkpt lat="42.64676" lon="23.84686">
        <ele>771.523103</ele>
        <time>2022-03-08T11:59:52.793Z</time>
      </trkpt>
      <trkpt lat="42.64678" lon="23.8467">
        <ele>771.59151</ele>
        <time>2022-03-08T11:59:55.777Z</time>
      </trkpt>
      <trkpt lat="42.6468" lon="23.84654">
        <ele>771.662025</ele>
        <time>2022-03-08T11:59:58.757Z</time>
      </trkpt>
      <trkpt lat="42.64683" lon="23.84638">
        <ele>771.736361</ele>
        <time>2022-03-08T12:00:01.780Z</time>
      </trkpt>
      <trkpt lat="42.64685" lon="23.8462">
        <ele>771.813187</ele>
        <time>2022-03-08T12:00:04.785Z</time>
      </trkpt>
      <trkpt lat="42.64687" lon="23.84602">
        <ele>771.890087</ele>
        <time>2022-03-08T12:00:07.762Z</time>
      </trkpt>
      <trkpt lat="42.64687" lon="23.84586">
        <ele>771.962493</ele>
        <time>2022-03-08T12:00:10.765Z</time>
      </trkpt>
      <trkpt lat="42.64686" lon="23.84568">
        <ele>772.039317</ele>
        <time>2022-03-08T12:00:13.801Z</time>
      </trkpt>
      <trkpt lat="42.64686" lon="23.84555">
        <ele>772.095647</ele>
        <time>2022-03-08T12:00:15.813Z</time>
      </trkpt>
      <trkpt lat="42.64686" lon="23.84542">
        <ele>772.153745</ele>
        <time>2022-03-08T12:00:17.774Z</time>
      </trkpt>
      <trkpt lat="42.64685" lon="23.84528">
        <ele>772.211942</ele>
        <time>2022-03-08T12:00:19.796Z</time>
      </trkpt>
      <trkpt lat="42.64684" lon="23.84515">
        <ele>772.267506</ele>
        <time>2022-03-08T12:00:21.787Z</time>
      </trkpt>
      <trkpt lat="42.64684" lon="23.84503">
        <ele>772.321737</ele>
        <time>2022-03-08T12:00:23.771Z</time>
      </trkpt>
      <trkpt lat="42.64684" lon="23.8449">
        <ele>772.375456</ele>
        <time>2022-03-08T12:00:25.760Z</time>
      </trkpt>
      <trkpt lat="42.64683" lon="23.84477">
        <ele>772.432402</ele>
        <time>2022-03-08T12:00:27.752Z</time>
      </trkpt>
      <trkpt lat="42.64682" lon="23.84464">
        <ele>772.488809</ele>
        <time>2022-03-08T12:00:29.773Z</time>
      </trkpt>
      <trkpt lat="42.64681" lon="23.84451">
        <ele>772.545645</ele>
        <time>2022-03-08T12:00:31.813Z</time>
      </trkpt>
      <trkpt lat="42.6468" lon="23.84439">
        <ele>772.724408</ele>
        <time>2022-03-08T12:00:33.766Z</time>
      </trkpt>
      <trkpt lat="42.64679" lon="23.84426">
        <ele>772.908404</ele>
        <time>2022-03-08T12:00:35.782Z</time>
      </trkpt>
      <trkpt lat="42.64679" lon="23.84414">
        <ele>773.093826</ele>
        <time>2022-03-08T12:00:37.796Z</time>
      </trkpt>
      <trkpt lat="42.64679" lon="23.84401">
        <ele>773.28518</ele>
        <time>2022-03-08T12:00:39.763Z</time>
      </trkpt>
      <trkpt lat="42.64679" lon="23.84388">
        <ele>773.472042</ele>
        <time>2022-03-08T12:00:41.776Z</time>
      </trkpt>
      <trkpt lat="42.6468" lon="23.84376">
        <ele>773.659296</ele>
        <time>2022-03-08T12:00:43.767Z</time>
      </trkpt>
      <trkpt lat="42.64681" lon="23.84362">
        <ele>773.858273</ele>
        <time>2022-03-08T12:00:45.758Z</time>
      </trkpt>
      <trkpt lat="42.64683" lon="23.84348">
        <ele>774.067683</ele>
        <time>2022-03-08T12:00:47.775Z</time>
      </trkpt>
      <trkpt lat="42.64686" lon="23.84334">
        <ele>774.28376</ele>
        <time>2022-03-08T12:00:49.777Z</time>
      </trkpt>
      <trkpt lat="42.64689" lon="23.84321">
        <ele>774.496784</ele>
        <time>2022-03-08T12:00:51.774Z</time>
      </trkpt>
      <trkpt lat="42.64694" lon="23.84308">
        <ele>774.706726</ele>
        <time>2022-03-08T12:00:53.773Z</time>
      </trkpt>
      <trkpt lat="42.64699" lon="23.84295">
        <ele>774.923921</ele>
        <time>2022-03-08T12:00:55.768Z</time>
      </trkpt>
      <trkpt lat="42.64704" lon="23.84282">
        <ele>775.13981</ele>
        <time>2022-03-08T12:00:57.764Z</time>
      </trkpt>
      <trkpt lat="42.6471" lon="23.84268">
        <ele>775.383008</ele>
        <time>2022-03-08T12:00:59.823Z</time>
      </trkpt>
      <trkpt lat="42.64718" lon="23.84253">
        <ele>775.653219</ele>
        <time>2022-03-08T12:01:01.780Z</time>
      </trkpt>
      <trkpt lat="42.64726" lon="23.84236">
        <ele>775.959687</ele>
        <time>2022-03-08T12:01:03.753Z</time>
      </trkpt>
      <trkpt lat="42.64734" lon="23.84216">
        <ele>776.133353</ele>
        <time>2022-03-08T12:01:05.762Z</time>
      </trkpt>
      <trkpt lat="42.64738" lon="23.84205">
        <ele>776.06692</ele>
        <time>2022-03-08T12:01:06.773Z</time>
      </trkpt>
      <trkpt lat="42.64741" lon="23.84193">
        <ele>775.996825</ele>
        <time>2022-03-08T12:01:07.767Z</time>
      </trkpt>
      <trkpt lat="42.64743" lon="23.8418">
        <ele>775.926397</ele>
        <time>2022-03-08T12:01:08.807Z</time>
      </trkpt>
      <trkpt lat="42.64745" lon="23.84168">
        <ele>775.858549</ele>
        <time>2022-03-08T12:01:09.778Z</time>
      </trkpt>
      <trkpt lat="42.64746" lon="23.84155">
        <ele>775.787911</ele>
        <time>2022-03-08T12:01:10.802Z</time>
      </trkpt>
      <trkpt lat="42.64746" lon="23.84143">
        <ele>775.720214</ele>
        <time>2022-03-08T12:01:11.796Z</time>
      </trkpt>
      <trkpt lat="42.64746" lon="23.84119">
        <ele>775.59101</ele>
        <time>2022-03-08T12:01:13.779Z</time>
      </trkpt>
      <trkpt lat="42.64743" lon="23.84097">
        <ele>775.467503</ele>
        <time>2022-03-08T12:01:15.771Z</time>
      </trkpt>
      <trkpt lat="42.64739" lon="23.84077">
        <ele>775.357711</ele>
        <time>2022-03-08T12:01:17.763Z</time>
      </trkpt>
      <trkpt lat="42.64733" lon="23.84062">
        <ele>775.264532</ele>
        <time>2022-03-08T12:01:19.754Z</time>
      </trkpt>
      <trkpt lat="42.64729" lon="23.84049">
        <ele>775.188338</ele>
        <time>2022-03-08T12:01:21.775Z</time>
      </trkpt>
      <trkpt lat="42.64724" lon="23.84034">
        <ele>775.095276</ele>
        <time>2022-03-08T12:01:24.769Z</time>
      </trkpt>
      <trkpt lat="42.64721" lon="23.84021">
        <ele>775.018993</ele>
        <time>2022-03-08T12:01:27.758Z</time>
      </trkpt>
      <trkpt lat="42.64717" lon="23.84009">
        <ele>774.950174</ele>
        <time>2022-03-08T12:01:30.782Z</time>
      </trkpt>
      <trkpt lat="42.64713" lon="23.83995">
        <ele>774.867386</ele>
        <time>2022-03-08T12:01:34.765Z</time>
      </trkpt>
      <trkpt lat="42.64708" lon="23.83982">
        <ele>774.830461</ele>
        <time>2022-03-08T12:01:38.772Z</time>
      </trkpt>
      <trkpt lat="42.64703" lon="23.83968">
        <ele>774.810471</ele>
        <time>2022-03-08T12:01:42.766Z</time>
      </trkpt>
      <trkpt lat="42.64699" lon="23.83955">
        <ele>774.791164</ele>
        <time>2022-03-08T12:01:46.769Z</time>
      </trkpt>
      <trkpt lat="42.64696" lon="23.8394">
        <ele>774.770337</ele>
        <time>2022-03-08T12:01:50.766Z</time>
      </trkpt>
      <trkpt lat="42.64692" lon="23.83928">
        <ele>774.753376</ele>
        <time>2022-03-08T12:01:53.767Z</time>
      </trkpt>
      <trkpt lat="42.6469" lon="23.83915">
        <ele>774.735836</ele>
        <time>2022-03-08T12:01:57.767Z</time>
      </trkpt>
      <trkpt lat="42.64689" lon="23.83901">
        <ele>774.716581</ele>
        <time>2022-03-08T12:02:01.765Z</time>
      </trkpt>
      <trkpt lat="42.64688" lon="23.83887">
        <ele>774.697222</ele>
        <time>2022-03-08T12:02:05.816Z</time>
      </trkpt>
      <trkpt lat="42.64687" lon="23.83872">
        <ele>774.677518</ele>
        <time>2022-03-08T12:02:09.772Z</time>
      </trkpt>
      <trkpt lat="42.64687" lon="23.83858">
        <ele>774.657964</ele>
        <time>2022-03-08T12:02:13.766Z</time>
      </trkpt>
      <trkpt lat="42.64688" lon="23.83843">
        <ele>774.639005</ele>
        <time>2022-03-08T12:02:17.780Z</time>
      </trkpt>
      <trkpt lat="42.64689" lon="23.83829">
        <ele>774.61901</ele>
        <time>2022-03-08T12:02:21.800Z</time>
      </trkpt>
      <trkpt lat="42.64691" lon="23.83814">
        <ele>774.599755</ele>
        <time>2022-03-08T12:02:25.763Z</time>
      </trkpt>
      <trkpt lat="42.64692" lon="23.838">
        <ele>774.580205</ele>
        <time>2022-03-08T12:02:29.790Z</time>
      </trkpt>
      <trkpt lat="42.64694" lon="23.83785">
        <ele>774.560475</ele>
        <time>2022-03-08T12:02:33.776Z</time>
      </trkpt>
      <trkpt lat="42.64696" lon="23.83771">
        <ele>774.540266</ele>
        <time>2022-03-08T12:02:37.786Z</time>
      </trkpt>
      <trkpt lat="42.64698" lon="23.83755">
        <ele>774.519628</ele>
        <time>2022-03-08T12:02:41.758Z</time>
      </trkpt>
      <trkpt lat="42.647" lon="23.83741">
        <ele>774.513444</ele>
        <time>2022-03-08T12:02:45.774Z</time>
      </trkpt>
      <trkpt lat="42.64701" lon="23.83728">
        <ele>774.50919</ele>
        <time>2022-03-08T12:02:49.781Z</time>
      </trkpt>
      <trkpt lat="42.64701" lon="23.83712">
        <ele>774.504338</ele>
        <time>2022-03-08T12:02:53.802Z</time>
      </trkpt>
      <trkpt lat="42.64703" lon="23.83698">
        <ele>774.499992</ele>
        <time>2022-03-08T12:02:57.762Z</time>
      </trkpt>
      <trkpt lat="42.64705" lon="23.83684">
        <ele>774.495411</ele>
        <time>2022-03-08T12:03:01.776Z</time>
      </trkpt>
      <trkpt lat="42.64707" lon="23.83668">
        <ele>774.490636</ele>
        <time>2022-03-08T12:03:05.783Z</time>
      </trkpt>
      <trkpt lat="42.64708" lon="23.83654">
        <ele>774.486044</ele>
        <time>2022-03-08T12:03:09.778Z</time>
      </trkpt>
      <trkpt lat="42.6471" lon="23.83638">
        <ele>774.481287</ele>
        <time>2022-03-08T12:03:13.779Z</time>
      </trkpt>
      <trkpt lat="42.64712" lon="23.83624">
        <ele>774.476695</ele>
        <time>2022-03-08T12:03:17.799Z</time>
      </trkpt>
      <trkpt lat="42.64713" lon="23.8361">
        <ele>774.472355</ele>
        <time>2022-03-08T12:03:21.765Z</time>
      </trkpt>
      <trkpt lat="42.64715" lon="23.83597">
        <ele>774.468168</ele>
        <time>2022-03-08T12:03:25.780Z</time>
      </trkpt>
      <trkpt lat="42.64716" lon="23.83583">
        <ele>774.463961</ele>
        <time>2022-03-08T12:03:29.746Z</time>
      </trkpt>
      <trkpt lat="42.64718" lon="23.8357">
        <ele>774.459754</ele>
        <time>2022-03-08T12:03:33.782Z</time>
      </trkpt>
      <trkpt lat="42.64719" lon="23.83555">
        <ele>774.455126</ele>
        <time>2022-03-08T12:03:37.781Z</time>
      </trkpt>
      <trkpt lat="42.6472" lon="23.83539">
        <ele>774.450191</ele>
        <time>2022-03-08T12:03:41.770Z</time>
      </trkpt>
      <trkpt lat="42.64722" lon="23.83526">
        <ele>774.446217</ele>
        <time>2022-03-08T12:03:44.786Z</time>
      </trkpt>
      <trkpt lat="42.64725" lon="23.83513">
        <ele>774.441883</ele>
        <time>2022-03-08T12:03:47.768Z</time>
      </trkpt>
      <trkpt lat="42.64729" lon="23.83498">
        <ele>774.190316</ele>
        <time>2022-03-08T12:03:50.773Z</time>
      </trkpt>
      <trkpt lat="42.64736" lon="23.83481">
        <ele>773.886261</ele>
        <time>2022-03-08T12:03:53.775Z</time>
      </trkpt>
      <trkpt lat="42.64741" lon="23.83467">
        <ele>773.644245</ele>
        <time>2022-03-08T12:03:55.767Z</time>
      </trkpt>
      <trkpt lat="42.64748" lon="23.83454">
        <ele>773.379161</ele>
        <time>2022-03-08T12:03:57.765Z</time>
      </trkpt>
      <trkpt lat="42.64757" lon="23.83441">
        <ele>773.094867</ele>
        <time>2022-03-08T12:03:59.763Z</time>
      </trkpt>
      <trkpt lat="42.64767" lon="23.83427">
        <ele>772.784179</ele>
        <time>2022-03-08T12:04:01.763Z</time>
      </trkpt>
      <trkpt lat="42.64779" lon="23.83413">
        <ele>772.444666</ele>
        <time>2022-03-08T12:04:03.766Z</time>
      </trkpt>
      <trkpt lat="42.64791" lon="23.83399">
        <ele>772.094254</ele>
        <time>2022-03-08T12:04:05.782Z</time>
      </trkpt>
      <trkpt lat="42.64804" lon="23.83384">
        <ele>771.727705</ele>
        <time>2022-03-08T12:04:07.798Z</time>
      </trkpt>
      <trkpt lat="42.64817" lon="23.83368">
        <ele>771.34742</ele>
        <time>2022-03-08T12:04:09.796Z</time>
      </trkpt>
      <trkpt lat="42.64829" lon="23.83353">
        <ele>770.992346</ele>
        <time>2022-03-08T12:04:11.772Z</time>
      </trkpt>
      <trkpt lat="42.64841" lon="23.83337">
        <ele>770.631584</ele>
        <time>2022-03-08T12:04:13.804Z</time>
      </trkpt>
      <trkpt lat="42.64851" lon="23.83317">
        <ele>769.906586</ele>
        <time>2022-03-08T12:04:15.767Z</time>
      </trkpt>
      <trkpt lat="42.64858" lon="23.83296">
        <ele>769.086695</ele>
        <time>2022-03-08T12:04:17.764Z</time>
      </trkpt>
      <trkpt lat="42.64861" lon="23.83285">
        <ele>768.651144</ele>
        <time>2022-03-08T12:04:18.772Z</time>
      </trkpt>
      <trkpt lat="42.64864" lon="23.83272">
        <ele>768.19054</ele>
        <time>2022-03-08T12:04:19.814Z</time>
      </trkpt>
      <trkpt lat="42.64867" lon="23.8326">
        <ele>767.731217</ele>
        <time>2022-03-08T12:04:20.759Z</time>
      </trkpt>
      <trkpt lat="42.6487" lon="23.83248">
        <ele>767.263146</ele>
        <time>2022-03-08T12:04:21.765Z</time>
      </trkpt>
      <trkpt lat="42.64872" lon="23.83235">
        <ele>766.789617</ele>
        <time>2022-03-08T12:04:22.768Z</time>
      </trkpt>
      <trkpt lat="42.64875" lon="23.83222">
        <ele>766.323326</ele>
        <time>2022-03-08T12:04:23.781Z</time>
      </trkpt>
      <trkpt lat="42.64877" lon="23.83209">
        <ele>765.857989</ele>
        <time>2022-03-08T12:04:24.765Z</time>
      </trkpt>
      <trkpt lat="42.64879" lon="23.83197">
        <ele>765.399607</ele>
        <time>2022-03-08T12:04:25.772Z</time>
      </trkpt>
      <trkpt lat="42.64881" lon="23.83184">
        <ele>764.950579</ele>
        <time>2022-03-08T12:04:26.759Z</time>
      </trkpt>
      <trkpt lat="42.64883" lon="23.83173">
        <ele>764.51769</ele>
        <time>2022-03-08T12:04:27.769Z</time>
      </trkpt>
      <trkpt lat="42.64887" lon="23.8315">
        <ele>763.67941</ele>
        <time>2022-03-08T12:04:29.775Z</time>
      </trkpt>
      <trkpt lat="42.64891" lon="23.83128">
        <ele>762.882711</ele>
        <time>2022-03-08T12:04:31.780Z</time>
      </trkpt>
      <trkpt lat="42.64894" lon="23.83107">
        <ele>762.106759</ele>
        <time>2022-03-08T12:04:33.768Z</time>
      </trkpt>
      <trkpt lat="42.64898" lon="23.83087">
        <ele>761.25417</ele>
        <time>2022-03-08T12:04:35.753Z</time>
      </trkpt>
      <trkpt lat="42.64901" lon="23.83068">
        <ele>760.359905</ele>
        <time>2022-03-08T12:04:37.774Z</time>
      </trkpt>
      <trkpt lat="42.64904" lon="23.83049">
        <ele>759.470161</ele>
        <time>2022-03-08T12:04:39.778Z</time>
      </trkpt>
      <trkpt lat="42.64907" lon="23.8303">
        <ele>758.568652</ele>
        <time>2022-03-08T12:04:41.816Z</time>
      </trkpt>
      <trkpt lat="42.6491" lon="23.83011">
        <ele>757.671165</ele>
        <time>2022-03-08T12:04:43.798Z</time>
      </trkpt>
      <trkpt lat="42.64914" lon="23.82991">
        <ele>756.688893</ele>
        <time>2022-03-08T12:04:45.763Z</time>
      </trkpt>
      <trkpt lat="42.64918" lon="23.82969">
        <ele>755.678173</ele>
        <time>2022-03-08T12:04:47.763Z</time>
      </trkpt>
      <trkpt lat="42.64922" lon="23.82947">
        <ele>754.615048</ele>
        <time>2022-03-08T12:04:49.779Z</time>
      </trkpt>
      <trkpt lat="42.64927" lon="23.82924">
        <ele>753.488038</ele>
        <time>2022-03-08T12:04:51.778Z</time>
      </trkpt>
      <trkpt lat="42.64929" lon="23.82912">
        <ele>752.903218</ele>
        <time>2022-03-08T12:04:52.813Z</time>
      </trkpt>
      <trkpt lat="42.64932" lon="23.82899">
        <ele>752.297007</ele>
        <time>2022-03-08T12:04:53.776Z</time>
      </trkpt>
      <trkpt lat="42.64936" lon="23.82887">
        <ele>751.680487</ele>
        <time>2022-03-08T12:04:54.781Z</time>
      </trkpt>
      <trkpt lat="42.64939" lon="23.82874">
        <ele>751.044428</ele>
        <time>2022-03-08T12:04:55.758Z</time>
      </trkpt>
      <trkpt lat="42.64942" lon="23.8286">
        <ele>750.500181</ele>
        <time>2022-03-08T12:04:56.772Z</time>
      </trkpt>
      <trkpt lat="42.64946" lon="23.82847">
        <ele>750.359968</ele>
        <time>2022-03-08T12:04:57.770Z</time>
      </trkpt>
      <trkpt lat="42.64949" lon="23.82834">
        <ele>750.218839</ele>
        <time>2022-03-08T12:04:58.772Z</time>
      </trkpt>
      <trkpt lat="42.64953" lon="23.82821">
        <ele>750.074853</ele>
        <time>2022-03-08T12:04:59.776Z</time>
      </trkpt>
      <trkpt lat="42.64957" lon="23.82807">
        <ele>749.928485</ele>
        <time>2022-03-08T12:05:00.783Z</time>
      </trkpt>
      <trkpt lat="42.6496" lon="23.82794">
        <ele>749.782604</ele>
        <time>2022-03-08T12:05:01.771Z</time>
      </trkpt>
      <trkpt lat="42.64964" lon="23.8278">
        <ele>749.63815</ele>
        <time>2022-03-08T12:05:02.768Z</time>
      </trkpt>
      <trkpt lat="42.64967" lon="23.82767">
        <ele>749.497021</ele>
        <time>2022-03-08T12:05:03.794Z</time>
      </trkpt>
      <trkpt lat="42.64971" lon="23.82755">
        <ele>749.360639</ele>
        <time>2022-03-08T12:05:04.755Z</time>
      </trkpt>
      <trkpt lat="42.64975" lon="23.82742">
        <ele>749.22514</ele>
        <time>2022-03-08T12:05:05.757Z</time>
      </trkpt>
      <trkpt lat="42.64978" lon="23.8273">
        <ele>749.095366</ele>
        <time>2022-03-08T12:05:06.765Z</time>
      </trkpt>
      <trkpt lat="42.64984" lon="23.82709">
        <ele>748.860622</ele>
        <time>2022-03-08T12:05:08.753Z</time>
      </trkpt>
      <trkpt lat="42.64989" lon="23.82691">
        <ele>748.668651</ele>
        <time>2022-03-08T12:05:10.760Z</time>
      </trkpt>
      <trkpt lat="42.64993" lon="23.82676">
        <ele>748.510405</ele>
        <time>2022-03-08T12:05:12.763Z</time>
      </trkpt>
      <trkpt lat="42.64996" lon="23.82665">
        <ele>748.38448</ele>
        <time>2022-03-08T12:05:14.770Z</time>
      </trkpt>
      <trkpt lat="42.65" lon="23.82651">
        <ele>748.237627</ele>
        <time>2022-03-08T12:05:17.757Z</time>
      </trkpt>
      <trkpt lat="42.65003" lon="23.82639">
        <ele>748.103472</ele>
        <time>2022-03-08T12:05:21.761Z</time>
      </trkpt>
      <trkpt lat="42.65007" lon="23.82627">
        <ele>748.453366</ele>
        <time>2022-03-08T12:05:26.764Z</time>
      </trkpt>
      <trkpt lat="42.6501" lon="23.82614">
        <ele>749.162804</ele>
        <time>2022-03-08T12:05:32.768Z</time>
      </trkpt>
      <trkpt lat="42.65012" lon="23.82602">
        <ele>749.77827</ele>
        <time>2022-03-08T12:05:38.756Z</time>
      </trkpt>
      <trkpt lat="42.65015" lon="23.82589">
        <ele>750.462086</ele>
        <time>2022-03-08T12:05:44.746Z</time>
      </trkpt>
      <trkpt lat="42.65018" lon="23.82576">
        <ele>751.128379</ele>
        <time>2022-03-08T12:05:50.784Z</time>
      </trkpt>
      <trkpt lat="42.65021" lon="23.82564">
        <ele>751.790847</ele>
        <time>2022-03-08T12:05:56.778Z</time>
      </trkpt>
      <trkpt lat="42.65024" lon="23.82551">
        <ele>752.481571</ele>
        <time>2022-03-08T12:06:02.754Z</time>
      </trkpt>
      <trkpt lat="42.65027" lon="23.82538">
        <ele>753.127513</ele>
        <time>2022-03-08T12:06:08.767Z</time>
      </trkpt>
      <trkpt lat="42.6503" lon="23.82526">
        <ele>753.782536</ele>
        <time>2022-03-08T12:06:15.792Z</time>
      </trkpt>
      <trkpt lat="42.65034" lon="23.82514">
        <ele>754.456322</ele>
        <time>2022-03-08T12:06:22.779Z</time>
      </trkpt>
      <trkpt lat="42.65037" lon="23.82502">
        <ele>755.080231</ele>
        <time>2022-03-08T12:06:29.780Z</time>
      </trkpt>
      <trkpt lat="42.65041" lon="23.82489">
        <ele>755.801267</ele>
        <time>2022-03-08T12:06:36.775Z</time>
      </trkpt>
      <trkpt lat="42.65044" lon="23.82477">
        <ele>756.434571</ele>
        <time>2022-03-08T12:06:42.813Z</time>
      </trkpt>
      <trkpt lat="42.65048" lon="23.82466">
        <ele>757.077528</ele>
        <time>2022-03-08T12:06:48.749Z</time>
      </trkpt>
      <trkpt lat="42.65052" lon="23.82454">
        <ele>757.735989</ele>
        <time>2022-03-08T12:06:54.784Z</time>
      </trkpt>
      <trkpt lat="42.65056" lon="23.82441">
        <ele>758.453635</ele>
        <time>2022-03-08T12:07:00.755Z</time>
      </trkpt>
      <trkpt lat="42.6506" lon="23.82427">
        <ele>759.222116</ele>
        <time>2022-03-08T12:07:05.796Z</time>
      </trkpt>
      <trkpt lat="42.65063" lon="23.82414">
        <ele>759.881532</ele>
        <time>2022-03-08T12:07:09.774Z</time>
      </trkpt>
      <trkpt lat="42.65067" lon="23.824">
        <ele>760.474828</ele>
        <time>2022-03-08T12:07:13.770Z</time>
      </trkpt>
      <trkpt lat="42.6507" lon="23.82389">
        <ele>760.657708</ele>
        <time>2022-03-08T12:07:16.780Z</time>
      </trkpt>
      <trkpt lat="42.65073" lon="23.82377">
        <ele>760.841962</ele>
        <time>2022-03-08T12:07:19.785Z</time>
      </trkpt>
      <trkpt lat="42.65077" lon="23.82363">
        <ele>761.054385</ele>
        <time>2022-03-08T12:07:22.773Z</time>
      </trkpt>
      <trkpt lat="42.65081" lon="23.82349">
        <ele>761.277012</ele>
        <time>2022-03-08T12:07:25.778Z</time>
      </trkpt>
      <trkpt lat="42.65085" lon="23.82333">
        <ele>761.515382</ele>
        <time>2022-03-08T12:07:28.773Z</time>
      </trkpt>
      <trkpt lat="42.65089" lon="23.82318">
        <ele>761.764753</ele>
        <time>2022-03-08T12:07:31.772Z</time>
      </trkpt>
      <trkpt lat="42.65093" lon="23.82301">
        <ele>762.020967</ele>
        <time>2022-03-08T12:07:34.801Z</time>
      </trkpt>
      <trkpt lat="42.65099" lon="23.82284">
        <ele>762.284306</ele>
        <time>2022-03-08T12:07:37.786Z</time>
      </trkpt>
      <trkpt lat="42.65103" lon="23.82274">
        <ele>762.464501</ele>
        <time>2022-03-08T12:07:39.774Z</time>
      </trkpt>
      <trkpt lat="42.65111" lon="23.82259">
        <ele>762.72553</ele>
        <time>2022-03-08T12:07:42.760Z</time>
      </trkpt>
      <trkpt lat="42.6512" lon="23.8225">
        <ele>762.960415</ele>
        <time>2022-03-08T12:07:45.780Z</time>
      </trkpt>
      <trkpt lat="42.65133" lon="23.82245">
        <ele>763.212435</ele>
        <time>2022-03-08T12:07:48.832Z</time>
      </trkpt>
      <trkpt lat="42.65144" lon="23.82248">
        <ele>763.435067</ele>
        <time>2022-03-08T12:07:51.776Z</time>
      </trkpt>
      <trkpt lat="42.65154" lon="23.82253">
        <ele>763.657324</ele>
        <time>2022-03-08T12:07:54.793Z</time>
      </trkpt>
      <trkpt lat="42.65165" lon="23.82258">
        <ele>763.88046</ele>
        <time>2022-03-08T12:07:57.783Z</time>
      </trkpt>
      <trkpt lat="42.65176" lon="23.82263">
        <ele>764.001523</ele>
        <time>2022-03-08T12:08:00.776Z</time>
      </trkpt>
      <trkpt lat="42.65186" lon="23.82267">
        <ele>764.03411</ele>
        <time>2022-03-08T12:08:03.785Z</time>
      </trkpt>
      <trkpt lat="42.65195" lon="23.82271">
        <ele>764.061963</ele>
        <time>2022-03-08T12:08:06.776Z</time>
      </trkpt>
      <trkpt lat="42.65206" lon="23.82278">
        <ele>764.097147</ele>
        <time>2022-03-08T12:08:10.780Z</time>
      </trkpt>
      <trkpt lat="42.65217" lon="23.82283">
        <ele>764.130437</ele>
        <time>2022-03-08T12:08:14.775Z</time>
      </trkpt>
      <trkpt lat="42.65226" lon="23.82285">
        <ele>764.158003</ele>
        <time>2022-03-08T12:08:17.774Z</time>
      </trkpt>
      <trkpt lat="42.65237" lon="23.8229">
        <ele>764.193132</ele>
        <time>2022-03-08T12:08:21.816Z</time>
      </trkpt>
      <trkpt lat="42.65248" lon="23.82294">
        <ele>764.229048</ele>
        <time>2022-03-08T12:08:25.776Z</time>
      </trkpt>
      <trkpt lat="42.65259" lon="23.82298">
        <ele>764.260715</ele>
        <time>2022-03-08T12:08:29.786Z</time>
      </trkpt>
      <trkpt lat="42.65269" lon="23.82303">
        <ele>764.292535</ele>
        <time>2022-03-08T12:08:33.775Z</time>
      </trkpt>
      <trkpt lat="42.65279" lon="23.82307">
        <ele>764.323884</ele>
        <time>2022-03-08T12:08:37.807Z</time>
      </trkpt>
      <trkpt lat="42.6529" lon="23.82312">
        <ele>764.358447</ele>
        <time>2022-03-08T12:08:41.772Z</time>
      </trkpt>
      <trkpt lat="42.65299" lon="23.82317">
        <ele>764.38828</ele>
        <time>2022-03-08T12:08:44.779Z</time>
      </trkpt>
      <trkpt lat="42.65308" lon="23.82322">
        <ele>764.418776</ele>
        <time>2022-03-08T12:08:47.781Z</time>
      </trkpt>
      <trkpt lat="42.65318" lon="23.82327">
        <ele>764.449731</ele>
        <time>2022-03-08T12:08:50.775Z</time>
      </trkpt>
      <trkpt lat="42.65328" lon="23.82331">
        <ele>764.47936</ele>
        <time>2022-03-08T12:08:53.808Z</time>
      </trkpt>
      <trkpt lat="42.65339" lon="23.82334">
        <ele>764.514161</ele>
        <time>2022-03-08T12:08:57.783Z</time>
      </trkpt>
      <trkpt lat="42.65349" lon="23.82333">
        <ele>764.140184</ele>
        <time>2022-03-08T12:09:00.778Z</time>
      </trkpt>
      <trkpt lat="42.65358" lon="23.82324">
        <ele>763.610657</ele>
        <time>2022-03-08T12:09:03.773Z</time>
      </trkpt>
      <trkpt lat="42.65367" lon="23.82314">
        <ele>763.016926</ele>
        <time>2022-03-08T12:09:06.788Z</time>
      </trkpt>
      <trkpt lat="42.65377" lon="23.82303">
        <ele>762.416319</ele>
        <time>2022-03-08T12:09:09.828Z</time>
      </trkpt>
      <trkpt lat="42.65388" lon="23.82295">
        <ele>761.81443</ele>
        <time>2022-03-08T12:09:12.785Z</time>
      </trkpt>
      <trkpt lat="42.65396" lon="23.8229">
        <ele>761.375016</ele>
        <time>2022-03-08T12:09:14.776Z</time>
      </trkpt>
      <trkpt lat="42.65406" lon="23.82287">
        <ele>760.913234</ele>
        <time>2022-03-08T12:09:16.798Z</time>
      </trkpt>
      <trkpt lat="42.65416" lon="23.82287">
        <ele>760.430091</ele>
        <time>2022-03-08T12:09:18.784Z</time>
      </trkpt>
      <trkpt lat="42.65427" lon="23.8229">
        <ele>759.879916</ele>
        <time>2022-03-08T12:09:20.812Z</time>
      </trkpt>
      <trkpt lat="42.65438" lon="23.82294">
        <ele>759.303692</ele>
        <time>2022-03-08T12:09:22.778Z</time>
      </trkpt>
      <trkpt lat="42.6545" lon="23.823">
        <ele>758.726188</ele>
        <time>2022-03-08T12:09:24.793Z</time>
      </trkpt>
      <trkpt lat="42.65461" lon="23.82307">
        <ele>758.126263</ele>
        <time>2022-03-08T12:09:26.768Z</time>
      </trkpt>
      <trkpt lat="42.65473" lon="23.82316">
        <ele>757.455399</ele>
        <time>2022-03-08T12:09:28.785Z</time>
      </trkpt>
      <trkpt lat="42.65485" lon="23.82325">
        <ele>756.812829</ele>
        <time>2022-03-08T12:09:30.781Z</time>
      </trkpt>
      <trkpt lat="42.65496" lon="23.82331">
        <ele>756.208376</ele>
        <time>2022-03-08T12:09:32.779Z</time>
      </trkpt>
      <trkpt lat="42.65508" lon="23.82333">
        <ele>756.039364</ele>
        <time>2022-03-08T12:09:34.772Z</time>
      </trkpt>
      <trkpt lat="42.65519" lon="23.82327">
        <ele>756.61559</ele>
        <time>2022-03-08T12:09:36.815Z</time>
      </trkpt>
      <trkpt lat="42.65525" lon="23.82316">
        <ele>757.160965</ele>
        <time>2022-03-08T12:09:38.769Z</time>
      </trkpt>
      <trkpt lat="42.65531" lon="23.82303">
        <ele>757.717971</ele>
        <time>2022-03-08T12:09:40.777Z</time>
      </trkpt>
      <trkpt lat="42.65533" lon="23.82291">
        <ele>758.179002</ele>
        <time>2022-03-08T12:09:42.831Z</time>
      </trkpt>
      <trkpt lat="42.65534" lon="23.82275">
        <ele>758.773449</ele>
        <time>2022-03-08T12:09:45.780Z</time>
      </trkpt>
      <trkpt lat="42.65535" lon="23.82262">
        <ele>759.278265</ele>
        <time>2022-03-08T12:09:48.797Z</time>
      </trkpt>
      <trkpt lat="42.65538" lon="23.82246">
        <ele>759.88526</ele>
        <time>2022-03-08T12:09:52.778Z</time>
      </trkpt>
      <trkpt lat="42.65543" lon="23.82234">
        <ele>760.428799</ele>
        <time>2022-03-08T12:09:56.761Z</time>
      </trkpt>
      <trkpt lat="42.65548" lon="23.82223">
        <ele>760.906843</ele>
        <time>2022-03-08T12:10:00.823Z</time>
      </trkpt>
      <trkpt lat="42.65553" lon="23.82212">
        <ele>761.376504</ele>
        <time>2022-03-08T12:10:05.777Z</time>
      </trkpt>
      <trkpt lat="42.65558" lon="23.822">
        <ele>761.910491</ele>
        <time>2022-03-08T12:10:11.775Z</time>
      </trkpt>
      <trkpt lat="42.65564" lon="23.82189">
        <ele>762.407412</ele>
        <time>2022-03-08T12:10:17.766Z</time>
      </trkpt>
      <trkpt lat="42.65569" lon="23.82178">
        <ele>762.902907</ele>
        <time>2022-03-08T12:10:23.768Z</time>
      </trkpt>
      <trkpt lat="42.65574" lon="23.82167">
        <ele>763.402487</ele>
        <time>2022-03-08T12:10:29.792Z</time>
      </trkpt>
      <trkpt lat="42.6558" lon="23.82157">
        <ele>763.871898</ele>
        <time>2022-03-08T12:10:35.770Z</time>
      </trkpt>
      <trkpt lat="42.65586" lon="23.82146">
        <ele>764.399158</ele>
        <time>2022-03-08T12:10:42.774Z</time>
      </trkpt>
      <trkpt lat="42.65591" lon="23.82136">
        <ele>764.859258</ele>
        <time>2022-03-08T12:10:48.792Z</time>
      </trkpt>
      <trkpt lat="42.65592" lon="23.82161">
        <ele>765.920557</ele>
        <time>2022-03-08T12:12:54.759Z</time>
      </trkpt>
      <trkpt lat="42.65571" lon="23.82108">
        <ele>768.526939</ele>
        <time>2022-03-08T12:28:09.776Z</time>
      </trkpt>
      <trkpt lat="42.65585" lon="23.82124">
        <ele>769.609428</ele>
        <time>2022-03-08T12:28:15.775Z</time>
      </trkpt>
      <trkpt lat="42.65595" lon="23.82144">
        <ele>770.669083</ele>
        <time>2022-03-08T12:28:35.764Z</time>
      </trkpt>
      <trkpt lat="42.65586" lon="23.82123">
        <ele>771.726822</ele>
        <time>2022-03-08T12:29:45.767Z</time>
      </trkpt>
      <trkpt lat="42.6559" lon="23.82149">
        <ele>772.867234</ele>
        <time>2022-03-08T12:32:03.801Z</time>
      </trkpt>
      <trkpt lat="42.65586" lon="23.82169">
        <ele>773.73823</ele>
        <time>2022-03-08T12:34:44.775Z</time>
      </trkpt>
      <trkpt lat="42.65588" lon="23.82157">
        <ele>774.265358</ele>
        <time>2022-03-08T12:34:55.784Z</time>
      </trkpt>
      <trkpt lat="42.65601" lon="23.82133">
        <ele>775.523563</ele>
        <time>2022-03-08T12:38:40.777Z</time>
      </trkpt>
      <trkpt lat="42.65608" lon="23.82123">
        <ele>775.421849</ele>
        <time>2022-03-08T12:38:45.766Z</time>
      </trkpt>
      <trkpt lat="42.65615" lon="23.82114">
        <ele>775.300825</ele>
        <time>2022-03-08T12:38:51.771Z</time>
      </trkpt>
      <trkpt lat="42.65624" lon="23.82105">
        <ele>775.16651</ele>
        <time>2022-03-08T12:38:56.787Z</time>
      </trkpt>
      <trkpt lat="42.65633" lon="23.82097">
        <ele>775.035478</ele>
        <time>2022-03-08T12:39:01.899Z</time>
      </trkpt>
      <trkpt lat="42.6564" lon="23.82088">
        <ele>774.911736</ele>
        <time>2022-03-08T12:39:06.779Z</time>
      </trkpt>
      <trkpt lat="42.65649" lon="23.82078">
        <ele>774.782177</ele>
        <time>2022-03-08T12:39:11.772Z</time>
      </trkpt>
      <trkpt lat="42.65654" lon="23.82066">
        <ele>774.652082</ele>
        <time>2022-03-08T12:39:16.786Z</time>
      </trkpt>
      <trkpt lat="42.65657" lon="23.82051">
        <ele>774.516217</ele>
        <time>2022-03-08T12:39:20.774Z</time>
      </trkpt>
      <trkpt lat="42.65659" lon="23.82037">
        <ele>774.38835</ele>
        <time>2022-03-08T12:39:23.818Z</time>
      </trkpt>
      <trkpt lat="42.6566" lon="23.8202">
        <ele>774.235165</ele>
        <time>2022-03-08T12:39:26.773Z</time>
      </trkpt>
      <trkpt lat="42.6566" lon="23.82005">
        <ele>774.096053</ele>
        <time>2022-03-08T12:39:29.794Z</time>
      </trkpt>
      <trkpt lat="42.65659" lon="23.8199">
        <ele>773.969095</ele>
        <time>2022-03-08T12:39:32.768Z</time>
      </trkpt>
      <trkpt lat="42.65658" lon="23.81976">
        <ele>773.837859</ele>
        <time>2022-03-08T12:39:35.771Z</time>
      </trkpt>
      <trkpt lat="42.65654" lon="23.81964">
        <ele>773.719026</ele>
        <time>2022-03-08T12:39:39.784Z</time>
      </trkpt>
      <trkpt lat="42.65646" lon="23.81953">
        <ele>773.583665</ele>
        <time>2022-03-08T12:39:43.785Z</time>
      </trkpt>
      <trkpt lat="42.65638" lon="23.81944">
        <ele>773.450443</ele>
        <time>2022-03-08T12:39:46.782Z</time>
      </trkpt>
      <trkpt lat="42.65629" lon="23.81933">
        <ele>773.145498</ele>
        <time>2022-03-08T12:39:49.773Z</time>
      </trkpt>
      <trkpt lat="42.65623" lon="23.81924">
        <ele>772.587542</ele>
        <time>2022-03-08T12:39:51.778Z</time>
      </trkpt>
      <trkpt lat="42.65617" lon="23.81913">
        <ele>771.959502</ele>
        <time>2022-03-08T12:39:53.768Z</time>
      </trkpt>
      <trkpt lat="42.65613" lon="23.819">
        <ele>771.314097</ele>
        <time>2022-03-08T12:39:55.796Z</time>
      </trkpt>
      <trkpt lat="42.65608" lon="23.81886">
        <ele>770.616549</ele>
        <time>2022-03-08T12:39:57.783Z</time>
      </trkpt>
      <trkpt lat="42.65604" lon="23.81868">
        <ele>769.798177</ele>
        <time>2022-03-08T12:39:59.775Z</time>
      </trkpt>
      <trkpt lat="42.65601" lon="23.81849">
        <ele>768.923891</ele>
        <time>2022-03-08T12:40:01.772Z</time>
      </trkpt>
      <trkpt lat="42.65598" lon="23.8183">
        <ele>768.03681</ele>
        <time>2022-03-08T12:40:03.774Z</time>
      </trkpt>
      <trkpt lat="42.65594" lon="23.81811">
        <ele>767.167242</ele>
        <time>2022-03-08T12:40:05.774Z</time>
      </trkpt>
      <trkpt lat="42.65591" lon="23.81794">
        <ele>766.349698</ele>
        <time>2022-03-08T12:40:07.775Z</time>
      </trkpt>
      <trkpt lat="42.65586" lon="23.81775">
        <ele>765.474942</ele>
        <time>2022-03-08T12:40:09.783Z</time>
      </trkpt>
      <trkpt lat="42.65582" lon="23.81755">
        <ele>764.506369</ele>
        <time>2022-03-08T12:40:11.809Z</time>
      </trkpt>
      <trkpt lat="42.65577" lon="23.81734">
        <ele>763.542967</ele>
        <time>2022-03-08T12:40:13.791Z</time>
      </trkpt>
      <trkpt lat="42.65573" lon="23.81714">
        <ele>762.605016</ele>
        <time>2022-03-08T12:40:15.758Z</time>
      </trkpt>
      <trkpt lat="42.65567" lon="23.81696">
        <ele>761.432443</ele>
        <time>2022-03-08T12:40:17.809Z</time>
      </trkpt>
      <trkpt lat="42.65563" lon="23.81678">
        <ele>760.172419</ele>
        <time>2022-03-08T12:40:19.765Z</time>
      </trkpt>
      <trkpt lat="42.65558" lon="23.81661">
        <ele>758.983338</ele>
        <time>2022-03-08T12:40:21.764Z</time>
      </trkpt>
      <trkpt lat="42.65553" lon="23.81644">
        <ele>757.756871</ele>
        <time>2022-03-08T12:40:23.760Z</time>
      </trkpt>
      <trkpt lat="42.65548" lon="23.81626">
        <ele>756.521246</ele>
        <time>2022-03-08T12:40:25.785Z</time>
      </trkpt>
      <trkpt lat="42.65544" lon="23.81608">
        <ele>755.254772</ele>
        <time>2022-03-08T12:40:27.777Z</time>
      </trkpt>
      <trkpt lat="42.65539" lon="23.81589">
        <ele>753.938178</ele>
        <time>2022-03-08T12:40:29.757Z</time>
      </trkpt>
      <trkpt lat="42.65534" lon="23.81568">
        <ele>752.486485</ele>
        <time>2022-03-08T12:40:31.789Z</time>
      </trkpt>
      <trkpt lat="42.65529" lon="23.81546">
        <ele>750.961756</ele>
        <time>2022-03-08T12:40:33.783Z</time>
      </trkpt>
      <trkpt lat="42.65523" lon="23.81525">
        <ele>749.465217</ele>
        <time>2022-03-08T12:40:35.767Z</time>
      </trkpt>
      <trkpt lat="42.65516" lon="23.81504">
        <ele>747.918341</ele>
        <time>2022-03-08T12:40:37.779Z</time>
      </trkpt>
      <trkpt lat="42.65512" lon="23.81492">
        <ele>747.09059</ele>
        <time>2022-03-08T12:40:38.756Z</time>
      </trkpt>
      <trkpt lat="42.65509" lon="23.81481">
        <ele>746.242242</ele>
        <time>2022-03-08T12:40:39.804Z</time>
      </trkpt>
      <trkpt lat="42.65505" lon="23.81469">
        <ele>745.670465</ele>
        <time>2022-03-08T12:40:40.771Z</time>
      </trkpt>
      <trkpt lat="42.65502" lon="23.81456">
        <ele>745.128623</ele>
        <time>2022-03-08T12:40:41.750Z</time>
      </trkpt>
      <trkpt lat="42.65498" lon="23.81444">
        <ele>744.57693</ele>
        <time>2022-03-08T12:40:42.778Z</time>
      </trkpt>
      <trkpt lat="42.65495" lon="23.81432">
        <ele>744.013515</ele>
        <time>2022-03-08T12:40:43.769Z</time>
      </trkpt>
      <trkpt lat="42.65491" lon="23.81419">
        <ele>743.440259</ele>
        <time>2022-03-08T12:40:44.783Z</time>
      </trkpt>
      <trkpt lat="42.65487" lon="23.81406">
        <ele>742.861051</ele>
        <time>2022-03-08T12:40:45.772Z</time>
      </trkpt>
      <trkpt lat="42.65484" lon="23.81393">
        <ele>742.285738</ele>
        <time>2022-03-08T12:40:46.796Z</time>
      </trkpt>
      <trkpt lat="42.6548" lon="23.8138">
        <ele>741.70832</ele>
        <time>2022-03-08T12:40:47.780Z</time>
      </trkpt>
      <trkpt lat="42.65476" lon="23.81367">
        <ele>741.124882</ele>
        <time>2022-03-08T12:40:48.783Z</time>
      </trkpt>
      <trkpt lat="42.65472" lon="23.81355">
        <ele>740.54531</ele>
        <time>2022-03-08T12:40:49.793Z</time>
      </trkpt>
      <trkpt lat="42.65468" lon="23.81342">
        <ele>739.965738</ele>
        <time>2022-03-08T12:40:50.767Z</time>
      </trkpt>
      <trkpt lat="42.65464" lon="23.81329">
        <ele>739.382299</ele>
        <time>2022-03-08T12:40:51.790Z</time>
      </trkpt>
      <trkpt lat="42.6546" lon="23.81316">
        <ele>738.800525</ele>
        <time>2022-03-08T12:40:52.774Z</time>
      </trkpt>
      <trkpt lat="42.65456" lon="23.81303">
        <ele>738.210387</ele>
        <time>2022-03-08T12:40:53.767Z</time>
      </trkpt>
      <trkpt lat="42.65452" lon="23.8129">
        <ele>737.617042</ele>
        <time>2022-03-08T12:40:54.766Z</time>
      </trkpt>
      <trkpt lat="42.65448" lon="23.81277">
        <ele>737.029731</ele>
        <time>2022-03-08T12:40:55.814Z</time>
      </trkpt>
      <trkpt lat="42.65445" lon="23.81264">
        <ele>736.464277</ele>
        <time>2022-03-08T12:40:56.763Z</time>
      </trkpt>
      <trkpt lat="42.65441" lon="23.81252">
        <ele>735.900778</ele>
        <time>2022-03-08T12:40:57.775Z</time>
      </trkpt>
      <trkpt lat="42.65437" lon="23.8124">
        <ele>735.335332</ele>
        <time>2022-03-08T12:40:58.787Z</time>
      </trkpt>
      <trkpt lat="42.65431" lon="23.81218">
        <ele>734.312877</ele>
        <time>2022-03-08T12:41:00.783Z</time>
      </trkpt>
      <trkpt lat="42.65426" lon="23.81198">
        <ele>733.396418</ele>
        <time>2022-03-08T12:41:02.759Z</time>
      </trkpt>
      <trkpt lat="42.65422" lon="23.8118">
        <ele>732.573945</ele>
        <time>2022-03-08T12:41:04.788Z</time>
      </trkpt>
      <trkpt lat="42.65418" lon="23.81163">
        <ele>731.787042</ele>
        <time>2022-03-08T12:41:06.773Z</time>
      </trkpt>
      <trkpt lat="42.65414" lon="23.81145">
        <ele>731.00255</ele>
        <time>2022-03-08T12:41:08.765Z</time>
      </trkpt>
      <trkpt lat="42.65411" lon="23.81128">
        <ele>730.227999</ele>
        <time>2022-03-08T12:41:10.771Z</time>
      </trkpt>
      <trkpt lat="42.65407" lon="23.81111">
        <ele>729.430298</ele>
        <time>2022-03-08T12:41:12.807Z</time>
      </trkpt>
      <trkpt lat="42.65403" lon="23.81093">
        <ele>728.641641</ele>
        <time>2022-03-08T12:41:14.764Z</time>
      </trkpt>
      <trkpt lat="42.65399" lon="23.81076">
        <ele>727.843362</ele>
        <time>2022-03-08T12:41:16.774Z</time>
      </trkpt>
      <trkpt lat="42.65394" lon="23.81059">
        <ele>727.045339</ele>
        <time>2022-03-08T12:41:18.779Z</time>
      </trkpt>
      <trkpt lat="42.65389" lon="23.81042">
        <ele>726.231289</ele>
        <time>2022-03-08T12:41:20.759Z</time>
      </trkpt>
      <trkpt lat="42.65381" lon="23.81024">
        <ele>725.363897</ele>
        <time>2022-03-08T12:41:22.788Z</time>
      </trkpt>
      <trkpt lat="42.65372" lon="23.81007">
        <ele>725.052143</ele>
        <time>2022-03-08T12:41:24.785Z</time>
      </trkpt>
      <trkpt lat="42.65362" lon="23.8099">
        <ele>724.766503</ele>
        <time>2022-03-08T12:41:26.762Z</time>
      </trkpt>
      <trkpt lat="42.65352" lon="23.80971">
        <ele>724.469385</ele>
        <time>2022-03-08T12:41:28.764Z</time>
      </trkpt>
      <trkpt lat="42.65341" lon="23.80953">
        <ele>724.173126</ele>
        <time>2022-03-08T12:41:30.780Z</time>
      </trkpt>
      <trkpt lat="42.65331" lon="23.80936">
        <ele>723.87787</ele>
        <time>2022-03-08T12:41:32.769Z</time>
      </trkpt>
      <trkpt lat="42.6532" lon="23.80918">
        <ele>723.590822</ele>
        <time>2022-03-08T12:41:34.792Z</time>
      </trkpt>
      <trkpt lat="42.6531" lon="23.80902">
        <ele>723.310517</ele>
        <time>2022-03-08T12:41:36.787Z</time>
      </trkpt>
      <trkpt lat="42.653" lon="23.80887">
        <ele>723.050479</ele>
        <time>2022-03-08T12:41:38.756Z</time>
      </trkpt>
      <trkpt lat="42.65291" lon="23.80873">
        <ele>722.81132</ele>
        <time>2022-03-08T12:41:40.791Z</time>
      </trkpt>
      <trkpt lat="42.65283" lon="23.8086">
        <ele>722.59082</ele>
        <time>2022-03-08T12:41:42.791Z</time>
      </trkpt>
      <trkpt lat="42.65276" lon="23.80846">
        <ele>722.368298</ele>
        <time>2022-03-08T12:41:44.764Z</time>
      </trkpt>
      <trkpt lat="42.65269" lon="23.80832">
        <ele>722.153599</ele>
        <time>2022-03-08T12:41:46.772Z</time>
      </trkpt>
      <trkpt lat="42.65264" lon="23.80818">
        <ele>721.803245</ele>
        <time>2022-03-08T12:41:48.772Z</time>
      </trkpt>
      <trkpt lat="42.65259" lon="23.80804">
        <ele>721.460996</ele>
        <time>2022-03-08T12:41:50.803Z</time>
      </trkpt>
      <trkpt lat="42.65255" lon="23.8079">
        <ele>721.119666</ele>
        <time>2022-03-08T12:41:52.777Z</time>
      </trkpt>
      <trkpt lat="42.65251" lon="23.80775">
        <ele>720.761635</ele>
        <time>2022-03-08T12:41:54.805Z</time>
      </trkpt>
      <trkpt lat="42.65246" lon="23.80759">
        <ele>720.382605</ele>
        <time>2022-03-08T12:41:56.817Z</time>
      </trkpt>
      <trkpt lat="42.65241" lon="23.80742">
        <ele>719.987069</ele>
        <time>2022-03-08T12:41:58.790Z</time>
      </trkpt>
      <trkpt lat="42.65237" lon="23.80725">
        <ele>719.5798</ele>
        <time>2022-03-08T12:42:00.785Z</time>
      </trkpt>
      <trkpt lat="42.65233" lon="23.80708">
        <ele>719.188012</ele>
        <time>2022-03-08T12:42:02.797Z</time>
      </trkpt>
      <trkpt lat="42.65229" lon="23.80691">
        <ele>718.796649</ele>
        <time>2022-03-08T12:42:04.763Z</time>
      </trkpt>
      <trkpt lat="42.65223" lon="23.80675">
        <ele>718.395013</ele>
        <time>2022-03-08T12:42:06.779Z</time>
      </trkpt>
      <trkpt lat="42.65218" lon="23.80659">
        <ele>717.997436</ele>
        <time>2022-03-08T12:42:08.774Z</time>
      </trkpt>
      <trkpt lat="42.65212" lon="23.80643">
        <ele>717.614301</ele>
        <time>2022-03-08T12:42:10.775Z</time>
      </trkpt>
      <trkpt lat="42.65205" lon="23.80629">
        <ele>717.239105</ele>
        <time>2022-03-08T12:42:12.779Z</time>
      </trkpt>
      <trkpt lat="42.65198" lon="23.80616">
        <ele>716.871535</ele>
        <time>2022-03-08T12:42:14.781Z</time>
      </trkpt>
      <trkpt lat="42.65191" lon="23.80603">
        <ele>716.588394</ele>
        <time>2022-03-08T12:42:16.783Z</time>
      </trkpt>
      <trkpt lat="42.65184" lon="23.8059">
        <ele>716.363975</ele>
        <time>2022-03-08T12:42:18.825Z</time>
      </trkpt>
      <trkpt lat="42.65177" lon="23.80577">
        <ele>716.132805</ele>
        <time>2022-03-08T12:42:20.780Z</time>
      </trkpt>
      <trkpt lat="42.6517" lon="23.80564">
        <ele>715.911833</ele>
        <time>2022-03-08T12:42:22.777Z</time>
      </trkpt>
      <trkpt lat="42.65163" lon="23.80553">
        <ele>715.699238</ele>
        <time>2022-03-08T12:42:24.769Z</time>
      </trkpt>
      <trkpt lat="42.65156" lon="23.80542">
        <ele>715.493749</ele>
        <time>2022-03-08T12:42:26.771Z</time>
      </trkpt>
      <trkpt lat="42.65149" lon="23.80531">
        <ele>715.291477</ele>
        <time>2022-03-08T12:42:28.775Z</time>
      </trkpt>
      <trkpt lat="42.65142" lon="23.80519">
        <ele>715.079347</ele>
        <time>2022-03-08T12:42:30.776Z</time>
      </trkpt>
      <trkpt lat="42.65135" lon="23.80507">
        <ele>714.869609</ele>
        <time>2022-03-08T12:42:32.775Z</time>
      </trkpt>
      <trkpt lat="42.65128" lon="23.80496">
        <ele>714.65518</ele>
        <time>2022-03-08T12:42:34.775Z</time>
      </trkpt>
      <trkpt lat="42.65121" lon="23.80483">
        <ele>714.435176</ele>
        <time>2022-03-08T12:42:36.774Z</time>
      </trkpt>
      <trkpt lat="42.65114" lon="23.80471">
        <ele>714.218754</ele>
        <time>2022-03-08T12:42:38.775Z</time>
      </trkpt>
      <trkpt lat="42.65107" lon="23.80459">
        <ele>713.998898</ele>
        <time>2022-03-08T12:42:40.790Z</time>
      </trkpt>
      <trkpt lat="42.651" lon="23.80446">
        <ele>713.769818</ele>
        <time>2022-03-08T12:42:42.764Z</time>
      </trkpt>
      <trkpt lat="42.65092" lon="23.80432">
        <ele>713.527251</ele>
        <time>2022-03-08T12:42:44.768Z</time>
      </trkpt>
      <trkpt lat="42.65084" lon="23.80418">
        <ele>713.280245</ele>
        <time>2022-03-08T12:42:46.813Z</time>
      </trkpt>
      <trkpt lat="42.65076" lon="23.80405">
        <ele>712.790901</ele>
        <time>2022-03-08T12:42:48.763Z</time>
      </trkpt>
      <trkpt lat="42.65068" lon="23.8039">
        <ele>712.257278</ele>
        <time>2022-03-08T12:42:50.790Z</time>
      </trkpt>
      <trkpt lat="42.65059" lon="23.80374">
        <ele>711.677273</ele>
        <time>2022-03-08T12:42:52.775Z</time>
      </trkpt>
      <trkpt lat="42.65051" lon="23.80358">
        <ele>711.113218</ele>
        <time>2022-03-08T12:42:54.778Z</time>
      </trkpt>
      <trkpt lat="42.65043" lon="23.80341">
        <ele>710.553831</ele>
        <time>2022-03-08T12:42:56.776Z</time>
      </trkpt>
      <trkpt lat="42.65037" lon="23.80324">
        <ele>709.983185</ele>
        <time>2022-03-08T12:42:58.788Z</time>
      </trkpt>
      <trkpt lat="42.65031" lon="23.80306">
        <ele>709.411512</ele>
        <time>2022-03-08T12:43:00.786Z</time>
      </trkpt>
      <trkpt lat="42.65025" lon="23.80288">
        <ele>708.850542</ele>
        <time>2022-03-08T12:43:02.759Z</time>
      </trkpt>
      <trkpt lat="42.65021" lon="23.80269">
        <ele>708.28003</ele>
        <time>2022-03-08T12:43:04.764Z</time>
      </trkpt>
      <trkpt lat="42.65017" lon="23.80249">
        <ele>707.682797</ele>
        <time>2022-03-08T12:43:06.781Z</time>
      </trkpt>
      <trkpt lat="42.65013" lon="23.80229">
        <ele>707.089906</ele>
        <time>2022-03-08T12:43:08.812Z</time>
      </trkpt>
      <trkpt lat="42.6501" lon="23.80209">
        <ele>706.497233</ele>
        <time>2022-03-08T12:43:10.788Z</time>
      </trkpt>
      <trkpt lat="42.65009" lon="23.80188">
        <ele>705.694363</ele>
        <time>2022-03-08T12:43:12.778Z</time>
      </trkpt>
      <trkpt lat="42.6501" lon="23.80167">
        <ele>704.739244</ele>
        <time>2022-03-08T12:43:14.786Z</time>
      </trkpt>
      <trkpt lat="42.6501" lon="23.80146">
        <ele>703.769309</ele>
        <time>2022-03-08T12:43:16.774Z</time>
      </trkpt>
      <trkpt lat="42.65012" lon="23.80125">
        <ele>702.782032</ele>
        <time>2022-03-08T12:43:18.789Z</time>
      </trkpt>
      <trkpt lat="42.65014" lon="23.80102">
        <ele>701.71385</ele>
        <time>2022-03-08T12:43:20.767Z</time>
      </trkpt>
      <trkpt lat="42.65017" lon="23.80078">
        <ele>700.624576</ele>
        <time>2022-03-08T12:43:22.768Z</time>
      </trkpt>
      <trkpt lat="42.65019" lon="23.80055">
        <ele>699.531538</ele>
        <time>2022-03-08T12:43:24.776Z</time>
      </trkpt>
      <trkpt lat="42.6502" lon="23.80032">
        <ele>698.472682</ele>
        <time>2022-03-08T12:43:26.772Z</time>
      </trkpt>
      <trkpt lat="42.65021" lon="23.8001">
        <ele>697.469482</ele>
        <time>2022-03-08T12:43:28.784Z</time>
      </trkpt>
      <trkpt lat="42.65022" lon="23.7999">
        <ele>696.545827</ele>
        <time>2022-03-08T12:43:30.764Z</time>
      </trkpt>
      <trkpt lat="42.65024" lon="23.79972">
        <ele>695.675136</ele>
        <time>2022-03-08T12:43:32.779Z</time>
      </trkpt>
      <trkpt lat="42.65024" lon="23.79953">
        <ele>694.891037</ele>
        <time>2022-03-08T12:43:34.770Z</time>
      </trkpt>
      <trkpt lat="42.65025" lon="23.79936">
        <ele>694.472927</ele>
        <time>2022-03-08T12:43:36.774Z</time>
      </trkpt>
      <trkpt lat="42.65026" lon="23.79919">
        <ele>694.085066</ele>
        <time>2022-03-08T12:43:38.772Z</time>
      </trkpt>
      <trkpt lat="42.65027" lon="23.79903">
        <ele>693.712808</ele>
        <time>2022-03-08T12:43:40.759Z</time>
      </trkpt>
      <trkpt lat="42.65029" lon="23.79887">
        <ele>693.320514</ele>
        <time>2022-03-08T12:43:42.819Z</time>
      </trkpt>
      <trkpt lat="42.6503" lon="23.7987">
        <ele>692.923564</ele>
        <time>2022-03-08T12:43:44.771Z</time>
      </trkpt>
      <trkpt lat="42.65032" lon="23.79853">
        <ele>692.525044</ele>
        <time>2022-03-08T12:43:46.783Z</time>
      </trkpt>
      <trkpt lat="42.65035" lon="23.79836">
        <ele>692.107493</ele>
        <time>2022-03-08T12:43:48.776Z</time>
      </trkpt>
      <trkpt lat="42.65037" lon="23.79819">
        <ele>691.696858</ele>
        <time>2022-03-08T12:43:50.780Z</time>
      </trkpt>
      <trkpt lat="42.6504" lon="23.79801">
        <ele>691.282986</ele>
        <time>2022-03-08T12:43:52.774Z</time>
      </trkpt>
      <trkpt lat="42.65044" lon="23.79784">
        <ele>690.860014</ele>
        <time>2022-03-08T12:43:54.764Z</time>
      </trkpt>
      <trkpt lat="42.65047" lon="23.79767">
        <ele>690.442259</ele>
        <time>2022-03-08T12:43:56.788Z</time>
      </trkpt>
      <trkpt lat="42.6505" lon="23.79749">
        <ele>690.021404</ele>
        <time>2022-03-08T12:43:58.772Z</time>
      </trkpt>
      <trkpt lat="42.65054" lon="23.79732">
        <ele>689.60147</ele>
        <time>2022-03-08T12:44:00.762Z</time>
      </trkpt>
      <trkpt lat="42.65058" lon="23.79716">
        <ele>689.211057</ele>
        <time>2022-03-08T12:44:02.767Z</time>
      </trkpt>
      <trkpt lat="42.65061" lon="23.797">
        <ele>689.100439</ele>
        <time>2022-03-08T12:44:04.766Z</time>
      </trkpt>
      <trkpt lat="42.65065" lon="23.79683">
        <ele>688.988322</ele>
        <time>2022-03-08T12:44:06.782Z</time>
      </trkpt>
      <trkpt lat="42.65068" lon="23.79667">
        <ele>688.880919</ele>
        <time>2022-03-08T12:44:08.779Z</time>
      </trkpt>
      <trkpt lat="42.65071" lon="23.79651">
        <ele>688.770301</ele>
        <time>2022-03-08T12:44:10.802Z</time>
      </trkpt>
      <trkpt lat="42.65074" lon="23.79634">
        <ele>688.65518</ele>
        <time>2022-03-08T12:44:12.776Z</time>
      </trkpt>
      <trkpt lat="42.65078" lon="23.79618">
        <ele>688.542433</ele>
        <time>2022-03-08T12:44:14.785Z</time>
      </trkpt>
      <trkpt lat="42.65082" lon="23.79601">
        <ele>688.43028</ele>
        <time>2022-03-08T12:44:16.783Z</time>
      </trkpt>
      <trkpt lat="42.65085" lon="23.79585">
        <ele>688.316788</ele>
        <time>2022-03-08T12:44:18.778Z</time>
      </trkpt>
      <trkpt lat="42.65089" lon="23.79569">
        <ele>688.208075</ele>
        <time>2022-03-08T12:44:20.777Z</time>
      </trkpt>
      <trkpt lat="42.65093" lon="23.79554">
        <ele>688.103592</ele>
        <time>2022-03-08T12:44:22.765Z</time>
      </trkpt>
      <trkpt lat="42.65096" lon="23.79539">
        <ele>688.00339</ele>
        <time>2022-03-08T12:44:24.783Z</time>
      </trkpt>
      <trkpt lat="42.651" lon="23.79525">
        <ele>687.906216</ele>
        <time>2022-03-08T12:44:26.776Z</time>
      </trkpt>
      <trkpt lat="42.65103" lon="23.79511">
        <ele>687.81231</ele>
        <time>2022-03-08T12:44:28.779Z</time>
      </trkpt>
      <trkpt lat="42.65105" lon="23.79498">
        <ele>687.722798</ele>
        <time>2022-03-08T12:44:30.776Z</time>
      </trkpt>
      <trkpt lat="42.65108" lon="23.79486">
        <ele>687.638433</ele>
        <time>2022-03-08T12:44:32.809Z</time>
      </trkpt>
      <trkpt lat="42.65111" lon="23.79473">
        <ele>687.6811</ele>
        <time>2022-03-08T12:44:34.796Z</time>
      </trkpt>
      <trkpt lat="42.65114" lon="23.7946">
        <ele>687.774823</ele>
        <time>2022-03-08T12:44:36.787Z</time>
      </trkpt>
      <trkpt lat="42.65118" lon="23.79443">
        <ele>687.901593</ele>
        <time>2022-03-08T12:44:39.783Z</time>
      </trkpt>
      <trkpt lat="42.65121" lon="23.79427">
        <ele>688.024208</ele>
        <time>2022-03-08T12:44:42.775Z</time>
      </trkpt>
      <trkpt lat="42.65125" lon="23.79412">
        <ele>688.132988</ele>
        <time>2022-03-08T12:44:45.794Z</time>
      </trkpt>
      <trkpt lat="42.65128" lon="23.79397">
        <ele>688.242987</ele>
        <time>2022-03-08T12:44:48.772Z</time>
      </trkpt>
      <trkpt lat="42.65131" lon="23.79382">
        <ele>688.35611</ele>
        <time>2022-03-08T12:44:51.782Z</time>
      </trkpt>
      <trkpt lat="42.65134" lon="23.79366">
        <ele>688.466931</ele>
        <time>2022-03-08T12:44:54.788Z</time>
      </trkpt>
      <trkpt lat="42.65137" lon="23.79352">
        <ele>688.569926</ele>
        <time>2022-03-08T12:44:57.786Z</time>
      </trkpt>
      <trkpt lat="42.65139" lon="23.79339">
        <ele>688.668792</ele>
        <time>2022-03-08T12:45:00.785Z</time>
      </trkpt>
      <trkpt lat="42.65142" lon="23.79326">
        <ele>688.762622</ele>
        <time>2022-03-08T12:45:03.787Z</time>
      </trkpt>
      <trkpt lat="42.65143" lon="23.79313">
        <ele>688.857702</ele>
        <time>2022-03-08T12:45:06.811Z</time>
      </trkpt>
      <trkpt lat="42.65146" lon="23.79301">
        <ele>688.944678</ele>
        <time>2022-03-08T12:45:09.787Z</time>
      </trkpt>
      <trkpt lat="42.65148" lon="23.79286">
        <ele>689.05409</ele>
        <time>2022-03-08T12:45:13.775Z</time>
      </trkpt>
      <trkpt lat="42.6515" lon="23.79273">
        <ele>689.142048</ele>
        <time>2022-03-08T12:45:16.773Z</time>
      </trkpt>
      <trkpt lat="42.65152" lon="23.79261">
        <ele>689.231585</ele>
        <time>2022-03-08T12:45:19.795Z</time>
      </trkpt>
      <trkpt lat="42.65154" lon="23.79249">
        <ele>689.321813</ele>
        <time>2022-03-08T12:45:22.779Z</time>
      </trkpt>
      <trkpt lat="42.65157" lon="23.79235">
        <ele>689.096055</ele>
        <time>2022-03-08T12:45:25.789Z</time>
      </trkpt>
      <trkpt lat="42.6516" lon="23.79221">
        <ele>688.780209</ele>
        <time>2022-03-08T12:45:28.776Z</time>
      </trkpt>
      <trkpt lat="42.65163" lon="23.79207">
        <ele>688.459572</ele>
        <time>2022-03-08T12:45:31.772Z</time>
      </trkpt>
      <trkpt lat="42.65167" lon="23.79193">
        <ele>688.122299</ele>
        <time>2022-03-08T12:45:34.827Z</time>
      </trkpt>
      <trkpt lat="42.65172" lon="23.79177">
        <ele>687.741379</ele>
        <time>2022-03-08T12:45:37.772Z</time>
      </trkpt>
      <trkpt lat="42.65176" lon="23.79165">
        <ele>687.432046</ele>
        <time>2022-03-08T12:45:39.777Z</time>
      </trkpt>
      <trkpt lat="42.65181" lon="23.79151">
        <ele>687.100516</ele>
        <time>2022-03-08T12:45:41.788Z</time>
      </trkpt>
      <trkpt lat="42.65185" lon="23.79136">
        <ele>686.74753</ele>
        <time>2022-03-08T12:45:43.779Z</time>
      </trkpt>
      <trkpt lat="42.6519" lon="23.79121">
        <ele>686.388105</ele>
        <time>2022-03-08T12:45:45.779Z</time>
      </trkpt>
      <trkpt lat="42.65195" lon="23.79106">
        <ele>686.011673</ele>
        <time>2022-03-08T12:45:47.783Z</time>
      </trkpt>
      <trkpt lat="42.652" lon="23.7909">
        <ele>685.637694</ele>
        <time>2022-03-08T12:45:49.808Z</time>
      </trkpt>
      <trkpt lat="42.65205" lon="23.79075">
        <ele>685.264277</ele>
        <time>2022-03-08T12:45:51.783Z</time>
      </trkpt>
      <trkpt lat="42.6521" lon="23.79059">
        <ele>684.884219</ele>
        <time>2022-03-08T12:45:53.790Z</time>
      </trkpt>
      <trkpt lat="42.65215" lon="23.79043">
        <ele>684.495686</ele>
        <time>2022-03-08T12:45:55.775Z</time>
      </trkpt>
      <trkpt lat="42.6522" lon="23.79026">
        <ele>684.10978</ele>
        <time>2022-03-08T12:45:57.789Z</time>
      </trkpt>
      <trkpt lat="42.65224" lon="23.79011">
        <ele>683.798489</ele>
        <time>2022-03-08T12:45:59.768Z</time>
      </trkpt>
      <trkpt lat="42.65229" lon="23.78995">
        <ele>683.529874</ele>
        <time>2022-03-08T12:46:01.809Z</time>
      </trkpt>
      <trkpt lat="42.65234" lon="23.78981">
        <ele>683.276975</ele>
        <time>2022-03-08T12:46:03.773Z</time>
      </trkpt>
      <trkpt lat="42.65238" lon="23.78967">
        <ele>683.034553</ele>
        <time>2022-03-08T12:46:05.768Z</time>
      </trkpt>
      <trkpt lat="42.65243" lon="23.78955">
        <ele>682.816514</ele>
        <time>2022-03-08T12:46:07.827Z</time>
      </trkpt>
      <trkpt lat="42.65248" lon="23.78939">
        <ele>682.53326</ele>
        <time>2022-03-08T12:46:10.789Z</time>
      </trkpt>
      <trkpt lat="42.65253" lon="23.78923">
        <ele>682.26661</ele>
        <time>2022-03-08T12:46:13.771Z</time>
      </trkpt>
      <trkpt lat="42.65258" lon="23.78907">
        <ele>681.987807</ele>
        <time>2022-03-08T12:46:16.778Z</time>
      </trkpt>
      <trkpt lat="42.65262" lon="23.78895">
        <ele>681.787294</ele>
        <time>2022-03-08T12:46:18.825Z</time>
      </trkpt>
      <trkpt lat="42.65266" lon="23.78883">
        <ele>681.573063</ele>
        <time>2022-03-08T12:46:20.775Z</time>
      </trkpt>
      <trkpt lat="42.65271" lon="23.78871">
        <ele>681.3536</ele>
        <time>2022-03-08T12:46:22.774Z</time>
      </trkpt>
      <trkpt lat="42.65277" lon="23.78859">
        <ele>681.11833</ele>
        <time>2022-03-08T12:46:24.775Z</time>
      </trkpt>
      <trkpt lat="42.65283" lon="23.78846">
        <ele>680.881065</ele>
        <time>2022-03-08T12:46:26.779Z</time>
      </trkpt>
      <trkpt lat="42.65289" lon="23.78834">
        <ele>680.65017</ele>
        <time>2022-03-08T12:46:28.780Z</time>
      </trkpt>
      <trkpt lat="42.65295" lon="23.78823">
        <ele>680.420756</ele>
        <time>2022-03-08T12:46:30.788Z</time>
      </trkpt>
      <trkpt lat="42.65302" lon="23.78812">
        <ele>680.204684</ele>
        <time>2022-03-08T12:46:32.780Z</time>
      </trkpt>
      <trkpt lat="42.65308" lon="23.78803">
        <ele>680.032826</ele>
        <time>2022-03-08T12:46:34.767Z</time>
      </trkpt>
      <trkpt lat="42.65315" lon="23.78793">
        <ele>679.972981</ele>
        <time>2022-03-08T12:46:36.778Z</time>
      </trkpt>
      <trkpt lat="42.65323" lon="23.7878">
        <ele>679.88819</ele>
        <time>2022-03-08T12:46:39.787Z</time>
      </trkpt>
      <trkpt lat="42.65331" lon="23.78767">
        <ele>679.808937</ele>
        <time>2022-03-08T12:46:42.793Z</time>
      </trkpt>
      <trkpt lat="42.65339" lon="23.78754">
        <ele>679.726651</ele>
        <time>2022-03-08T12:46:45.766Z</time>
      </trkpt>
      <trkpt lat="42.65347" lon="23.7874">
        <ele>679.642759</ele>
        <time>2022-03-08T12:46:48.793Z</time>
      </trkpt>
      <trkpt lat="42.65353" lon="23.7873">
        <ele>679.583967</ele>
        <time>2022-03-08T12:46:50.782Z</time>
      </trkpt>
      <trkpt lat="42.65361" lon="23.78717">
        <ele>679.498092</ele>
        <time>2022-03-08T12:46:53.779Z</time>
      </trkpt>
      <trkpt lat="42.65369" lon="23.78704">
        <ele>679.418007</ele>
        <time>2022-03-08T12:46:56.779Z</time>
      </trkpt>
      <trkpt lat="42.65378" lon="23.78692">
        <ele>679.339999</ele>
        <time>2022-03-08T12:46:59.794Z</time>
      </trkpt>
      <trkpt lat="42.65385" lon="23.78679">
        <ele>679.262206</ele>
        <time>2022-03-08T12:47:02.814Z</time>
      </trkpt>
      <trkpt lat="42.65394" lon="23.78668">
        <ele>679.186182</ele>
        <time>2022-03-08T12:47:05.782Z</time>
      </trkpt>
      <trkpt lat="42.65401" lon="23.78655">
        <ele>679.109306</ele>
        <time>2022-03-08T12:47:08.777Z</time>
      </trkpt>
      <trkpt lat="42.65408" lon="23.78644">
        <ele>679.037834</ele>
        <time>2022-03-08T12:47:11.768Z</time>
      </trkpt>
      <trkpt lat="42.65414" lon="23.78633">
        <ele>678.970521</ele>
        <time>2022-03-08T12:47:14.775Z</time>
      </trkpt>
      <trkpt lat="42.65423" lon="23.78622">
        <ele>678.897828</ele>
        <time>2022-03-08T12:47:17.788Z</time>
      </trkpt>
      <trkpt lat="42.65431" lon="23.78611">
        <ele>678.572753</ele>
        <time>2022-03-08T12:47:20.768Z</time>
      </trkpt>
      <trkpt lat="42.6544" lon="23.78598">
        <ele>678.173875</ele>
        <time>2022-03-08T12:47:23.783Z</time>
      </trkpt>
      <trkpt lat="42.65446" lon="23.78588">
        <ele>677.89544</ele>
        <time>2022-03-08T12:47:25.781Z</time>
      </trkpt>
      <trkpt lat="42.65452" lon="23.78579">
        <ele>677.615267</ele>
        <time>2022-03-08T12:47:27.774Z</time>
      </trkpt>
      <trkpt lat="42.65458" lon="23.7857">
        <ele>677.335526</ele>
        <time>2022-03-08T12:47:29.787Z</time>
      </trkpt>
      <trkpt lat="42.65468" lon="23.78556">
        <ele>676.914723</ele>
        <time>2022-03-08T12:47:32.781Z</time>
      </trkpt>
      <trkpt lat="42.65474" lon="23.78547">
        <ele>676.618372</ele>
        <time>2022-03-08T12:47:34.785Z</time>
      </trkpt>
      <trkpt lat="42.65482" lon="23.78537">
        <ele>676.302784</ele>
        <time>2022-03-08T12:47:36.774Z</time>
      </trkpt>
      <trkpt lat="42.65489" lon="23.78526">
        <ele>675.966799</ele>
        <time>2022-03-08T12:47:38.791Z</time>
      </trkpt>
      <trkpt lat="42.65498" lon="23.78515">
        <ele>675.609202</ele>
        <time>2022-03-08T12:47:40.781Z</time>
      </trkpt>
      <trkpt lat="42.65507" lon="23.78503">
        <ele>675.223286</ele>
        <time>2022-03-08T12:47:42.771Z</time>
      </trkpt>
      <trkpt lat="42.65516" lon="23.78491">
        <ele>674.83771</ele>
        <time>2022-03-08T12:47:44.800Z</time>
      </trkpt>
      <trkpt lat="42.65525" lon="23.78479">
        <ele>674.43633</ele>
        <time>2022-03-08T12:47:46.795Z</time>
      </trkpt>
      <trkpt lat="42.65534" lon="23.78467">
        <ele>674.038611</ele>
        <time>2022-03-08T12:47:48.783Z</time>
      </trkpt>
      <trkpt lat="42.65543" lon="23.78454">
        <ele>673.638759</ele>
        <time>2022-03-08T12:47:50.767Z</time>
      </trkpt>
      <trkpt lat="42.65552" lon="23.78441">
        <ele>673.324115</ele>
        <time>2022-03-08T12:47:52.796Z</time>
      </trkpt>
      <trkpt lat="42.6556" lon="23.78429">
        <ele>673.188034</ele>
        <time>2022-03-08T12:47:54.788Z</time>
      </trkpt>
      <trkpt lat="42.65567" lon="23.78417">
        <ele>673.060327</ele>
        <time>2022-03-08T12:47:56.783Z</time>
      </trkpt>
      <trkpt lat="42.65574" lon="23.78405">
        <ele>672.939468</ele>
        <time>2022-03-08T12:47:58.777Z</time>
      </trkpt>
      <trkpt lat="42.6558" lon="23.78394">
        <ele>672.823962</ele>
        <time>2022-03-08T12:48:00.784Z</time>
      </trkpt>
      <trkpt lat="42.65586" lon="23.78383">
        <ele>672.71313</ele>
        <time>2022-03-08T12:48:02.783Z</time>
      </trkpt>
      <trkpt lat="42.65591" lon="23.78373">
        <ele>672.6043</ele>
        <time>2022-03-08T12:48:04.778Z</time>
      </trkpt>
      <trkpt lat="42.65597" lon="23.78363">
        <ele>672.500814</ele>
        <time>2022-03-08T12:48:06.781Z</time>
      </trkpt>
      <trkpt lat="42.65604" lon="23.78349">
        <ele>672.361939</ele>
        <time>2022-03-08T12:48:09.780Z</time>
      </trkpt>
      <trkpt lat="42.65611" lon="23.78335">
        <ele>672.222817</ele>
        <time>2022-03-08T12:48:12.775Z</time>
      </trkpt>
      <trkpt lat="42.65619" lon="23.7832">
        <ele>672.073181</ele>
        <time>2022-03-08T12:48:15.785Z</time>
      </trkpt>
      <trkpt lat="42.65624" lon="23.7831">
        <ele>671.970357</ele>
        <time>2022-03-08T12:48:17.799Z</time>
      </trkpt>
      <trkpt lat="42.65629" lon="23.783">
        <ele>671.864816</ele>
        <time>2022-03-08T12:48:19.785Z</time>
      </trkpt>
      <trkpt lat="42.65635" lon="23.78289">
        <ele>671.755322</ele>
        <time>2022-03-08T12:48:21.775Z</time>
      </trkpt>
      <trkpt lat="42.65641" lon="23.78279">
        <ele>671.646454</ele>
        <time>2022-03-08T12:48:23.791Z</time>
      </trkpt>
      <trkpt lat="42.65646" lon="23.78268">
        <ele>671.538781</ele>
        <time>2022-03-08T12:48:25.820Z</time>
      </trkpt>
      <trkpt lat="42.65651" lon="23.78257">
        <ele>671.432494</ele>
        <time>2022-03-08T12:48:27.780Z</time>
      </trkpt>
      <trkpt lat="42.65656" lon="23.78246">
        <ele>671.320096</ele>
        <time>2022-03-08T12:48:29.789Z</time>
      </trkpt>
      <trkpt lat="42.65661" lon="23.78236">
        <ele>671.172908</ele>
        <time>2022-03-08T12:48:31.777Z</time>
      </trkpt>
      <trkpt lat="42.65666" lon="23.78225">
        <ele>671.029892</ele>
        <time>2022-03-08T12:48:33.768Z</time>
      </trkpt>
      <trkpt lat="42.65671" lon="23.78214">
        <ele>670.883864</ele>
        <time>2022-03-08T12:48:35.790Z</time>
      </trkpt>
      <trkpt lat="42.65676" lon="23.78203">
        <ele>670.731781</ele>
        <time>2022-03-08T12:48:37.783Z</time>
      </trkpt>
      <trkpt lat="42.65681" lon="23.78192">
        <ele>670.577722</ele>
        <time>2022-03-08T12:48:39.787Z</time>
      </trkpt>
      <trkpt lat="42.65686" lon="23.7818">
        <ele>670.42429</ele>
        <time>2022-03-08T12:48:41.783Z</time>
      </trkpt>
      <trkpt lat="42.65691" lon="23.78169">
        <ele>670.26924</ele>
        <time>2022-03-08T12:48:43.782Z</time>
      </trkpt>
      <trkpt lat="42.65696" lon="23.78158">
        <ele>670.119402</ele>
        <time>2022-03-08T12:48:45.776Z</time>
      </trkpt>
      <trkpt lat="42.657" lon="23.78147">
        <ele>669.969965</ele>
        <time>2022-03-08T12:48:47.767Z</time>
      </trkpt>
      <trkpt lat="42.65706" lon="23.78136">
        <ele>669.816058</ele>
        <time>2022-03-08T12:48:49.794Z</time>
      </trkpt>
      <trkpt lat="42.65711" lon="23.78124">
        <ele>669.660014</ele>
        <time>2022-03-08T12:48:51.772Z</time>
      </trkpt>
      <trkpt lat="42.65716" lon="23.78113">
        <ele>669.51157</ele>
        <time>2022-03-08T12:48:53.806Z</time>
      </trkpt>
      <trkpt lat="42.65721" lon="23.78103">
        <ele>669.361667</ele>
        <time>2022-03-08T12:48:55.784Z</time>
      </trkpt>
      <trkpt lat="42.65727" lon="23.78092">
        <ele>669.209044</ele>
        <time>2022-03-08T12:48:57.763Z</time>
      </trkpt>
      <trkpt lat="42.65733" lon="23.78082">
        <ele>669.050304</ele>
        <time>2022-03-08T12:48:59.756Z</time>
      </trkpt>
      <trkpt lat="42.65741" lon="23.78072">
        <ele>668.880922</ele>
        <time>2022-03-08T12:49:01.777Z</time>
      </trkpt>
      <trkpt lat="42.6575" lon="23.78062">
        <ele>668.704623</ele>
        <time>2022-03-08T12:49:03.795Z</time>
      </trkpt>
      <trkpt lat="42.65758" lon="23.78053">
        <ele>668.534408</ele>
        <time>2022-03-08T12:49:05.771Z</time>
      </trkpt>
      <trkpt lat="42.65767" lon="23.78045">
        <ele>668.283273</ele>
        <time>2022-03-08T12:49:07.780Z</time>
      </trkpt>
      <trkpt lat="42.65775" lon="23.78036">
        <ele>668.015682</ele>
        <time>2022-03-08T12:49:09.788Z</time>
      </trkpt>
      <trkpt lat="42.65783" lon="23.78029">
        <ele>667.756069</ele>
        <time>2022-03-08T12:49:11.778Z</time>
      </trkpt>
      <trkpt lat="42.65791" lon="23.78021">
        <ele>667.501909</ele>
        <time>2022-03-08T12:49:13.786Z</time>
      </trkpt>
      <trkpt lat="42.65799" lon="23.78014">
        <ele>667.249917</ele>
        <time>2022-03-08T12:49:15.808Z</time>
      </trkpt>
      <trkpt lat="42.65806" lon="23.78007">
        <ele>667.009766</ele>
        <time>2022-03-08T12:49:17.777Z</time>
      </trkpt>
      <trkpt lat="42.65817" lon="23.77996">
        <ele>666.667189</ele>
        <time>2022-03-08T12:49:20.773Z</time>
      </trkpt>
      <trkpt lat="42.65827" lon="23.77985">
        <ele>666.328475</ele>
        <time>2022-03-08T12:49:23.777Z</time>
      </trkpt>
      <trkpt lat="42.65836" lon="23.77973">
        <ele>665.983898</ele>
        <time>2022-03-08T12:49:26.768Z</time>
      </trkpt>
      <trkpt lat="42.65843" lon="23.77964">
        <ele>665.738367</ele>
        <time>2022-03-08T12:49:28.783Z</time>
      </trkpt>
      <trkpt lat="42.65849" lon="23.77954">
        <ele>665.489113</ele>
        <time>2022-03-08T12:49:30.793Z</time>
      </trkpt>
      <trkpt lat="42.65856" lon="23.77944">
        <ele>665.234174</ele>
        <time>2022-03-08T12:49:32.775Z</time>
      </trkpt>
      <trkpt lat="42.65862" lon="23.77935">
        <ele>664.982724</ele>
        <time>2022-03-08T12:49:34.781Z</time>
      </trkpt>
      <trkpt lat="42.65868" lon="23.77924">
        <ele>664.735265</ele>
        <time>2022-03-08T12:49:36.775Z</time>
      </trkpt>
      <trkpt lat="42.65873" lon="23.77914">
        <ele>664.487819</ele>
        <time>2022-03-08T12:49:38.782Z</time>
      </trkpt>
      <trkpt lat="42.6588" lon="23.77904">
        <ele>664.218668</ele>
        <time>2022-03-08T12:49:40.785Z</time>
      </trkpt>
      <trkpt lat="42.65887" lon="23.77893">
        <ele>663.949223</ele>
        <time>2022-03-08T12:49:42.789Z</time>
      </trkpt>
      <trkpt lat="42.65892" lon="23.77881">
        <ele>663.685142</ele>
        <time>2022-03-08T12:49:44.827Z</time>
      </trkpt>
      <trkpt lat="42.65897" lon="23.77868">
        <ele>663.41469</ele>
        <time>2022-03-08T12:49:46.775Z</time>
      </trkpt>
      <trkpt lat="42.65901" lon="23.77855">
        <ele>663.13794</ele>
        <time>2022-03-08T12:49:48.777Z</time>
      </trkpt>
      <trkpt lat="42.65906" lon="23.77842">
        <ele>662.864762</ele>
        <time>2022-03-08T12:49:50.756Z</time>
      </trkpt>
      <trkpt lat="42.6591" lon="23.77828">
        <ele>662.593721</ele>
        <time>2022-03-08T12:49:52.773Z</time>
      </trkpt>
      <trkpt lat="42.65915" lon="23.77815">
        <ele>662.313165</ele>
        <time>2022-03-08T12:49:54.779Z</time>
      </trkpt>
      <trkpt lat="42.65918" lon="23.778">
        <ele>662.032482</ele>
        <time>2022-03-08T12:49:56.792Z</time>
      </trkpt>
      <trkpt lat="42.65922" lon="23.77786">
        <ele>661.75275</ele>
        <time>2022-03-08T12:49:58.778Z</time>
      </trkpt>
      <trkpt lat="42.65926" lon="23.77773">
        <ele>661.468785</ele>
        <time>2022-03-08T12:50:00.813Z</time>
      </trkpt>
      <trkpt lat="42.6593" lon="23.77758">
        <ele>661.18558</ele>
        <time>2022-03-08T12:50:02.788Z</time>
      </trkpt>
      <trkpt lat="42.65934" lon="23.77744">
        <ele>660.893505</ele>
        <time>2022-03-08T12:50:04.772Z</time>
      </trkpt>
      <trkpt lat="42.65939" lon="23.7773">
        <ele>660.596748</ele>
        <time>2022-03-08T12:50:06.767Z</time>
      </trkpt>
      <trkpt lat="42.65945" lon="23.77716">
        <ele>660.304219</ele>
        <time>2022-03-08T12:50:08.780Z</time>
      </trkpt>
      <trkpt lat="42.65951" lon="23.77703">
        <ele>660.009093</ele>
        <time>2022-03-08T12:50:10.778Z</time>
      </trkpt>
      <trkpt lat="42.65957" lon="23.7769">
        <ele>659.715896</ele>
        <time>2022-03-08T12:50:12.768Z</time>
      </trkpt>
      <trkpt lat="42.65965" lon="23.77677">
        <ele>659.413796</ele>
        <time>2022-03-08T12:50:14.768Z</time>
      </trkpt>
      <trkpt lat="42.65972" lon="23.77664">
        <ele>659.150474</ele>
        <time>2022-03-08T12:50:16.778Z</time>
      </trkpt>
      <trkpt lat="42.65979" lon="23.77653">
        <ele>658.999368</ele>
        <time>2022-03-08T12:50:18.770Z</time>
      </trkpt>
      <trkpt lat="42.65986" lon="23.77641">
        <ele>658.852689</ele>
        <time>2022-03-08T12:50:20.776Z</time>
      </trkpt>
      <trkpt lat="42.65993" lon="23.7763">
        <ele>658.703019</ele>
        <time>2022-03-08T12:50:22.776Z</time>
      </trkpt>
      <trkpt lat="42.65999" lon="23.77618">
        <ele>658.560572</ele>
        <time>2022-03-08T12:50:24.756Z</time>
      </trkpt>
      <trkpt lat="42.66004" lon="23.77606">
        <ele>658.424746</ele>
        <time>2022-03-08T12:50:26.775Z</time>
      </trkpt>
      <trkpt lat="42.6601" lon="23.77595">
        <ele>658.286363</ele>
        <time>2022-03-08T12:50:28.821Z</time>
      </trkpt>
      <trkpt lat="42.66017" lon="23.77585">
        <ele>658.148692</ele>
        <time>2022-03-08T12:50:30.785Z</time>
      </trkpt>
      <trkpt lat="42.66024" lon="23.77575">
        <ele>658.012258</ele>
        <time>2022-03-08T12:50:32.777Z</time>
      </trkpt>
      <trkpt lat="42.66031" lon="23.77565">
        <ele>657.874384</ele>
        <time>2022-03-08T12:50:34.774Z</time>
      </trkpt>
      <trkpt lat="42.66038" lon="23.77555">
        <ele>657.738368</ele>
        <time>2022-03-08T12:50:36.799Z</time>
      </trkpt>
      <trkpt lat="42.66044" lon="23.77545">
        <ele>657.608378</ele>
        <time>2022-03-08T12:50:38.767Z</time>
      </trkpt>
      <trkpt lat="42.6605" lon="23.77536">
        <ele>657.481181</ele>
        <time>2022-03-08T12:50:40.790Z</time>
      </trkpt>
      <trkpt lat="42.6606" lon="23.77525">
        <ele>657.310479</ele>
        <time>2022-03-08T12:50:43.794Z</time>
      </trkpt>
      <trkpt lat="42.66069" lon="23.77515">
        <ele>657.149629</ele>
        <time>2022-03-08T12:50:46.778Z</time>
      </trkpt>
      <trkpt lat="42.66078" lon="23.77504">
        <ele>656.987286</ele>
        <time>2022-03-08T12:50:49.799Z</time>
      </trkpt>
      <trkpt lat="42.66087" lon="23.77492">
        <ele>656.814714</ele>
        <time>2022-03-08T12:50:52.783Z</time>
      </trkpt>
      <trkpt lat="42.66093" lon="23.77482">
        <ele>656.691905</ele>
        <time>2022-03-08T12:50:54.781Z</time>
      </trkpt>
      <trkpt lat="42.66099" lon="23.77471">
        <ele>656.555306</ele>
        <time>2022-03-08T12:50:56.777Z</time>
      </trkpt>
      <trkpt lat="42.66106" lon="23.77459">
        <ele>656.405885</ele>
        <time>2022-03-08T12:50:58.776Z</time>
      </trkpt>
      <trkpt lat="42.66112" lon="23.77447">
        <ele>656.254104</ele>
        <time>2022-03-08T12:51:00.778Z</time>
      </trkpt>
      <trkpt lat="42.66119" lon="23.77435">
        <ele>656.10146</ele>
        <time>2022-03-08T12:51:02.774Z</time>
      </trkpt>
      <trkpt lat="42.66126" lon="23.77423">
        <ele>655.946467</ele>
        <time>2022-03-08T12:51:04.761Z</time>
      </trkpt>
      <trkpt lat="42.66133" lon="23.7741">
        <ele>655.792259</ele>
        <time>2022-03-08T12:51:06.778Z</time>
      </trkpt>
      <trkpt lat="42.66141" lon="23.77397">
        <ele>655.63169</ele>
        <time>2022-03-08T12:51:08.778Z</time>
      </trkpt>
      <trkpt lat="42.66147" lon="23.77384">
        <ele>655.471701</ele>
        <time>2022-03-08T12:51:10.784Z</time>
      </trkpt>
      <trkpt lat="42.66153" lon="23.77371">
        <ele>655.31987</ele>
        <time>2022-03-08T12:51:12.825Z</time>
      </trkpt>
      <trkpt lat="42.6616" lon="23.77359">
        <ele>655.175233</ele>
        <time>2022-03-08T12:51:14.776Z</time>
      </trkpt>
      <trkpt lat="42.66166" lon="23.77348">
        <ele>655.039426</ele>
        <time>2022-03-08T12:51:16.785Z</time>
      </trkpt>
      <trkpt lat="42.66172" lon="23.77338">
        <ele>654.903655</ele>
        <time>2022-03-08T12:51:18.797Z</time>
      </trkpt>
      <trkpt lat="42.66179" lon="23.77328">
        <ele>654.76507</ele>
        <time>2022-03-08T12:51:20.781Z</time>
      </trkpt>
      <trkpt lat="42.66187" lon="23.77318">
        <ele>654.623452</ele>
        <time>2022-03-08T12:51:22.776Z</time>
      </trkpt>
      <trkpt lat="42.66195" lon="23.77308">
        <ele>654.475512</ele>
        <time>2022-03-08T12:51:24.784Z</time>
      </trkpt>
      <trkpt lat="42.66203" lon="23.773">
        <ele>654.341516</ele>
        <time>2022-03-08T12:51:26.765Z</time>
      </trkpt>
      <trkpt lat="42.66211" lon="23.77294">
        <ele>654.314505</ele>
        <time>2022-03-08T12:51:28.788Z</time>
      </trkpt>
      <trkpt lat="42.6622" lon="23.77289">
        <ele>654.304433</ele>
        <time>2022-03-08T12:51:30.788Z</time>
      </trkpt>
      <trkpt lat="42.66229" lon="23.77285">
        <ele>654.294212</ele>
        <time>2022-03-08T12:51:32.771Z</time>
      </trkpt>
      <trkpt lat="42.66242" lon="23.77281">
        <ele>654.279313</ele>
        <time>2022-03-08T12:51:35.784Z</time>
      </trkpt>
      <trkpt lat="42.66251" lon="23.77278">
        <ele>654.269078</ele>
        <time>2022-03-08T12:51:37.772Z</time>
      </trkpt>
      <trkpt lat="42.6626" lon="23.77276">
        <ele>654.258655</ele>
        <time>2022-03-08T12:51:39.792Z</time>
      </trkpt>
      <trkpt lat="42.66269" lon="23.77274">
        <ele>654.248245</ele>
        <time>2022-03-08T12:51:41.775Z</time>
      </trkpt>
      <trkpt lat="42.66279" lon="23.77272">
        <ele>654.237265</ele>
        <time>2022-03-08T12:51:43.795Z</time>
      </trkpt>
      <trkpt lat="42.66289" lon="23.77269">
        <ele>654.225712</ele>
        <time>2022-03-08T12:51:45.785Z</time>
      </trkpt>
      <trkpt lat="42.663" lon="23.77266">
        <ele>654.214046</ele>
        <time>2022-03-08T12:51:47.797Z</time>
      </trkpt>
      <trkpt lat="42.66309" lon="23.77262">
        <ele>654.203405</ele>
        <time>2022-03-08T12:51:49.791Z</time>
      </trkpt>
      <trkpt lat="42.66317" lon="23.77257">
        <ele>654.19308</ele>
        <time>2022-03-08T12:51:51.807Z</time>
      </trkpt>
      <trkpt lat="42.66326" lon="23.77251">
        <ele>654.182777</ele>
        <time>2022-03-08T12:51:53.773Z</time>
      </trkpt>
      <trkpt lat="42.66333" lon="23.77244">
        <ele>654.172595</ele>
        <time>2022-03-08T12:51:55.771Z</time>
      </trkpt>
      <trkpt lat="42.66344" lon="23.77234">
        <ele>654.158147</ele>
        <time>2022-03-08T12:51:58.782Z</time>
      </trkpt>
      <trkpt lat="42.66355" lon="23.77225">
        <ele>654.144536</ele>
        <time>2022-03-08T12:52:01.785Z</time>
      </trkpt>
      <trkpt lat="42.66364" lon="23.77217">
        <ele>654.132117</ele>
        <time>2022-03-08T12:52:04.777Z</time>
      </trkpt>
      <trkpt lat="42.66373" lon="23.77209">
        <ele>654.207867</ele>
        <time>2022-03-08T12:52:07.823Z</time>
      </trkpt>
      <trkpt lat="42.66382" lon="23.77202">
        <ele>654.421663</ele>
        <time>2022-03-08T12:52:10.779Z</time>
      </trkpt>
      <trkpt lat="42.6639" lon="23.77195">
        <ele>654.635459</ele>
        <time>2022-03-08T12:52:13.779Z</time>
      </trkpt>
      <trkpt lat="42.66398" lon="23.77188">
        <ele>654.839533</ele>
        <time>2022-03-08T12:52:16.779Z</time>
      </trkpt>
      <trkpt lat="42.66407" lon="23.7718">
        <ele>655.050719</ele>
        <time>2022-03-08T12:52:19.811Z</time>
      </trkpt>
      <trkpt lat="42.66415" lon="23.77173">
        <ele>655.251366</ele>
        <time>2022-03-08T12:52:22.774Z</time>
      </trkpt>
      <trkpt lat="42.66423" lon="23.77165">
        <ele>655.458022</ele>
        <time>2022-03-08T12:52:25.780Z</time>
      </trkpt>
      <trkpt lat="42.66431" lon="23.77157">
        <ele>655.672566</ele>
        <time>2022-03-08T12:52:28.789Z</time>
      </trkpt>
      <trkpt lat="42.66439" lon="23.7715">
        <ele>655.872306</ele>
        <time>2022-03-08T12:52:31.795Z</time>
      </trkpt>
      <trkpt lat="42.66447" lon="23.77142">
        <ele>656.078998</ele>
        <time>2022-03-08T12:52:34.803Z</time>
      </trkpt>
      <trkpt lat="42.66454" lon="23.77133">
        <ele>656.296742</ele>
        <time>2022-03-08T12:52:37.794Z</time>
      </trkpt>
      <trkpt lat="42.66463" lon="23.77125">
        <ele>656.510375</ele>
        <time>2022-03-08T12:52:40.766Z</time>
      </trkpt>
      <trkpt lat="42.66471" lon="23.77117">
        <ele>656.724919</ele>
        <time>2022-03-08T12:52:43.788Z</time>
      </trkpt>
      <trkpt lat="42.6648" lon="23.77108">
        <ele>656.957932</ele>
        <time>2022-03-08T12:52:46.822Z</time>
      </trkpt>
      <trkpt lat="42.66489" lon="23.77096">
        <ele>657.21471</ele>
        <time>2022-03-08T12:52:49.791Z</time>
      </trkpt>
      <trkpt lat="42.66498" lon="23.77084">
        <ele>657.489203</ele>
        <time>2022-03-08T12:52:52.766Z</time>
      </trkpt>
      <trkpt lat="42.66509" lon="23.77073">
        <ele>657.773519</ele>
        <time>2022-03-08T12:52:55.775Z</time>
      </trkpt>
      <trkpt lat="42.66516" lon="23.77065">
        <ele>657.871695</ele>
        <time>2022-03-08T12:52:57.801Z</time>
      </trkpt>
      <trkpt lat="42.66524" lon="23.77058">
        <ele>657.701428</ele>
        <time>2022-03-08T12:52:59.804Z</time>
      </trkpt>
      <trkpt lat="42.66534" lon="23.77047">
        <ele>657.46334</ele>
        <time>2022-03-08T12:53:02.773Z</time>
      </trkpt>
      <trkpt lat="42.66544" lon="23.77037">
        <ele>657.228802</ele>
        <time>2022-03-08T12:53:05.775Z</time>
      </trkpt>
      <trkpt lat="42.66554" lon="23.77026">
        <ele>656.985906</ele>
        <time>2022-03-08T12:53:08.804Z</time>
      </trkpt>
      <trkpt lat="42.66565" lon="23.77016">
        <ele>656.738962</ele>
        <time>2022-03-08T12:53:11.778Z</time>
      </trkpt>
      <trkpt lat="42.66573" lon="23.77009">
        <ele>656.571782</ele>
        <time>2022-03-08T12:53:13.768Z</time>
      </trkpt>
      <trkpt lat="42.6658" lon="23.77002">
        <ele>656.399205</ele>
        <time>2022-03-08T12:53:15.784Z</time>
      </trkpt>
      <trkpt lat="42.66592" lon="23.76993">
        <ele>656.158079</ele>
        <time>2022-03-08T12:53:18.767Z</time>
      </trkpt>
      <trkpt lat="42.66603" lon="23.76987">
        <ele>655.934471</ele>
        <time>2022-03-08T12:53:21.792Z</time>
      </trkpt>
      <trkpt lat="42.66615" lon="23.76981">
        <ele>655.687699</ele>
        <time>2022-03-08T12:53:24.773Z</time>
      </trkpt>
      <trkpt lat="42.66624" lon="23.76976">
        <ele>655.511593</ele>
        <time>2022-03-08T12:53:26.778Z</time>
      </trkpt>
      <trkpt lat="42.66633" lon="23.76972">
        <ele>655.332006</ele>
        <time>2022-03-08T12:53:28.779Z</time>
      </trkpt>
      <trkpt lat="42.66642" lon="23.76967">
        <ele>655.153202</ele>
        <time>2022-03-08T12:53:30.774Z</time>
      </trkpt>
      <trkpt lat="42.66651" lon="23.76962">
        <ele>654.976127</ele>
        <time>2022-03-08T12:53:32.802Z</time>
      </trkpt>
      <trkpt lat="42.66661" lon="23.76958">
        <ele>654.793503</ele>
        <time>2022-03-08T12:53:34.781Z</time>
      </trkpt>
      <trkpt lat="42.66669" lon="23.76953">
        <ele>654.617653</ele>
        <time>2022-03-08T12:53:36.807Z</time>
      </trkpt>
      <trkpt lat="42.66678" lon="23.76948">
        <ele>654.466017</ele>
        <time>2022-03-08T12:53:38.777Z</time>
      </trkpt>
      <trkpt lat="42.66687" lon="23.76943">
        <ele>654.318771</ele>
        <time>2022-03-08T12:53:40.789Z</time>
      </trkpt>
      <trkpt lat="42.66696" lon="23.76939">
        <ele>654.175626</ele>
        <time>2022-03-08T12:53:42.777Z</time>
      </trkpt>
      <trkpt lat="42.66708" lon="23.76932">
        <ele>653.972011</ele>
        <time>2022-03-08T12:53:45.764Z</time>
      </trkpt>
      <trkpt lat="42.66716" lon="23.76927">
        <ele>653.834096</ele>
        <time>2022-03-08T12:53:47.810Z</time>
      </trkpt>
      <trkpt lat="42.66729" lon="23.7692">
        <ele>653.632484</ele>
        <time>2022-03-08T12:53:50.776Z</time>
      </trkpt>
      <trkpt lat="42.66741" lon="23.76914">
        <ele>653.435546</ele>
        <time>2022-03-08T12:53:53.779Z</time>
      </trkpt>
      <trkpt lat="42.66752" lon="23.76907">
        <ele>653.248924</ele>
        <time>2022-03-08T12:53:56.773Z</time>
      </trkpt>
      <trkpt lat="42.66762" lon="23.76901">
        <ele>653.071123</ele>
        <time>2022-03-08T12:53:59.792Z</time>
      </trkpt>
      <trkpt lat="42.66772" lon="23.76895">
        <ele>652.903991</ele>
        <time>2022-03-08T12:54:02.789Z</time>
      </trkpt>
      <trkpt lat="42.66782" lon="23.7689">
        <ele>652.745136</ele>
        <time>2022-03-08T12:54:05.771Z</time>
      </trkpt>
      <trkpt lat="42.66793" lon="23.76883">
        <ele>652.566395</ele>
        <time>2022-03-08T12:54:08.791Z</time>
      </trkpt>
      <trkpt lat="42.66804" lon="23.76875">
        <ele>652.37618</ele>
        <time>2022-03-08T12:54:11.774Z</time>
      </trkpt>
      <trkpt lat="42.66814" lon="23.76866">
        <ele>652.189657</ele>
        <time>2022-03-08T12:54:14.770Z</time>
      </trkpt>
      <trkpt lat="42.66822" lon="23.76852">
        <ele>651.986266</ele>
        <time>2022-03-08T12:54:17.785Z</time>
      </trkpt>
      <trkpt lat="42.66828" lon="23.76842">
        <ele>651.843114</ele>
        <time>2022-03-08T12:54:19.827Z</time>
      </trkpt>
      <trkpt lat="42.66834" lon="23.76832">
        <ele>651.825704</ele>
        <time>2022-03-08T12:54:21.776Z</time>
      </trkpt>
      <trkpt lat="42.66841" lon="23.76822">
        <ele>651.818628</ele>
        <time>2022-03-08T12:54:23.770Z</time>
      </trkpt>
      <trkpt lat="42.66848" lon="23.76811">
        <ele>651.811485</ele>
        <time>2022-03-08T12:54:25.777Z</time>
      </trkpt>
      <trkpt lat="42.66853" lon="23.768">
        <ele>651.804639</ele>
        <time>2022-03-08T12:54:27.784Z</time>
      </trkpt>
      <trkpt lat="42.66859" lon="23.7679">
        <ele>651.798289</ele>
        <time>2022-03-08T12:54:29.790Z</time>
      </trkpt>
      <trkpt lat="42.66864" lon="23.76775">
        <ele>651.789738</ele>
        <time>2022-03-08T12:54:32.775Z</time>
      </trkpt>
      <trkpt lat="42.66869" lon="23.7676">
        <ele>651.78115</ele>
        <time>2022-03-08T12:54:35.784Z</time>
      </trkpt>
      <trkpt lat="42.66873" lon="23.76744">
        <ele>651.772719</ele>
        <time>2022-03-08T12:54:38.794Z</time>
      </trkpt>
      <trkpt lat="42.66878" lon="23.76729">
        <ele>651.764433</ele>
        <time>2022-03-08T12:54:41.812Z</time>
      </trkpt>
      <trkpt lat="42.66882" lon="23.76715">
        <ele>651.75662</ele>
        <time>2022-03-08T12:54:44.778Z</time>
      </trkpt>
      <trkpt lat="42.66886" lon="23.767">
        <ele>651.748622</ele>
        <time>2022-03-08T12:54:47.786Z</time>
      </trkpt>
      <trkpt lat="42.6689" lon="23.76686">
        <ele>651.74052</ele>
        <time>2022-03-08T12:54:50.774Z</time>
      </trkpt>
      <trkpt lat="42.66895" lon="23.76671">
        <ele>651.732344</ele>
        <time>2022-03-08T12:54:53.788Z</time>
      </trkpt>
      <trkpt lat="42.66899" lon="23.76657">
        <ele>651.724457</ele>
        <time>2022-03-08T12:54:56.778Z</time>
      </trkpt>
      <trkpt lat="42.66905" lon="23.76644">
        <ele>651.716869</ele>
        <time>2022-03-08T12:54:59.794Z</time>
      </trkpt>
      <trkpt lat="42.66912" lon="23.76632">
        <ele>651.708906</ele>
        <time>2022-03-08T12:55:02.786Z</time>
      </trkpt>
      <trkpt lat="42.6692" lon="23.7662">
        <ele>651.643274</ele>
        <time>2022-03-08T12:55:05.782Z</time>
      </trkpt>
      <trkpt lat="42.66929" lon="23.76611">
        <ele>651.559043</ele>
        <time>2022-03-08T12:55:08.783Z</time>
      </trkpt>
      <trkpt lat="42.66938" lon="23.76602">
        <ele>651.475403</ele>
        <time>2022-03-08T12:55:11.788Z</time>
      </trkpt>
      <trkpt lat="42.66947" lon="23.76592">
        <ele>651.385628</ele>
        <time>2022-03-08T12:55:14.775Z</time>
      </trkpt>
      <trkpt lat="42.66956" lon="23.76585">
        <ele>651.312213</ele>
        <time>2022-03-08T12:55:16.771Z</time>
      </trkpt>
      <trkpt lat="42.66965" lon="23.76576">
        <ele>651.226715</ele>
        <time>2022-03-08T12:55:18.783Z</time>
      </trkpt>
      <trkpt lat="42.66974" lon="23.76566">
        <ele>651.138536</ele>
        <time>2022-03-08T12:55:20.812Z</time>
      </trkpt>
      <trkpt lat="42.66982" lon="23.76556">
        <ele>651.055133</ele>
        <time>2022-03-08T12:55:22.780Z</time>
      </trkpt>
      <trkpt lat="42.6699" lon="23.76545">
        <ele>650.972547</ele>
        <time>2022-03-08T12:55:24.768Z</time>
      </trkpt>
      <trkpt lat="42.66996" lon="23.76534">
        <ele>650.89759</ele>
        <time>2022-03-08T12:55:26.779Z</time>
      </trkpt>
      <trkpt lat="42.67002" lon="23.76524">
        <ele>650.829968</ele>
        <time>2022-03-08T12:55:28.779Z</time>
      </trkpt>
      <trkpt lat="42.6701" lon="23.76512">
        <ele>650.735094</ele>
        <time>2022-03-08T12:55:31.815Z</time>
      </trkpt>
      <trkpt lat="42.67018" lon="23.765">
        <ele>650.650469</ele>
        <time>2022-03-08T12:55:34.765Z</time>
      </trkpt>
      <trkpt lat="42.67025" lon="23.76489">
        <ele>650.565017</ele>
        <time>2022-03-08T12:55:37.784Z</time>
      </trkpt>
      <trkpt lat="42.67035" lon="23.76477">
        <ele>650.470335</ele>
        <time>2022-03-08T12:55:40.777Z</time>
      </trkpt>
      <trkpt lat="42.67043" lon="23.76465">
        <ele>650.375724</ele>
        <time>2022-03-08T12:55:43.770Z</time>
      </trkpt>
      <trkpt lat="42.67053" lon="23.76452">
        <ele>649.997958</ele>
        <time>2022-03-08T12:55:46.796Z</time>
      </trkpt>
      <trkpt lat="42.67059" lon="23.76443">
        <ele>649.706997</ele>
        <time>2022-03-08T12:55:48.776Z</time>
      </trkpt>
      <trkpt lat="42.67065" lon="23.76434">
        <ele>649.421623</ele>
        <time>2022-03-08T12:55:50.770Z</time>
      </trkpt>
      <trkpt lat="42.67075" lon="23.76421">
        <ele>648.994122</ele>
        <time>2022-03-08T12:55:53.815Z</time>
      </trkpt>
      <trkpt lat="42.67084" lon="23.76408">
        <ele>648.585516</ele>
        <time>2022-03-08T12:55:56.788Z</time>
      </trkpt>
      <trkpt lat="42.67092" lon="23.76395">
        <ele>648.190823</ele>
        <time>2022-03-08T12:55:59.853Z</time>
      </trkpt>
      <trkpt lat="42.67099" lon="23.76382">
        <ele>647.800223</ele>
        <time>2022-03-08T12:56:02.787Z</time>
      </trkpt>
      <trkpt lat="42.67108" lon="23.7637">
        <ele>647.399391</ele>
        <time>2022-03-08T12:56:05.772Z</time>
      </trkpt>
      <trkpt lat="42.67117" lon="23.76357">
        <ele>646.971892</ele>
        <time>2022-03-08T12:56:08.768Z</time>
      </trkpt>
      <trkpt lat="42.67123" lon="23.76347">
        <ele>646.663552</ele>
        <time>2022-03-08T12:56:10.836Z</time>
      </trkpt>
      <trkpt lat="42.6713" lon="23.76336">
        <ele>646.330628</ele>
        <time>2022-03-08T12:56:12.778Z</time>
      </trkpt>
      <trkpt lat="42.67137" lon="23.76325">
        <ele>645.994367</ele>
        <time>2022-03-08T12:56:14.763Z</time>
      </trkpt>
      <trkpt lat="42.67142" lon="23.76312">
        <ele>645.653284</ele>
        <time>2022-03-08T12:56:16.769Z</time>
      </trkpt>
      <trkpt lat="42.67148" lon="23.763">
        <ele>645.310874</ele>
        <time>2022-03-08T12:56:18.787Z</time>
      </trkpt>
      <trkpt lat="42.67154" lon="23.76288">
        <ele>644.983747</ele>
        <time>2022-03-08T12:56:20.783Z</time>
      </trkpt>
      <trkpt lat="42.67159" lon="23.76277">
        <ele>644.671298</ele>
        <time>2022-03-08T12:56:22.784Z</time>
      </trkpt>
      <trkpt lat="42.67164" lon="23.76265">
        <ele>644.321619</ele>
        <time>2022-03-08T12:56:24.776Z</time>
      </trkpt>
      <trkpt lat="42.67169" lon="23.76255">
        <ele>643.968624</ele>
        <time>2022-03-08T12:56:26.780Z</time>
      </trkpt>
      <trkpt lat="42.67175" lon="23.76239">
        <ele>643.483155</ele>
        <time>2022-03-08T12:56:29.796Z</time>
      </trkpt>
      <trkpt lat="42.67181" lon="23.76224">
        <ele>642.999151</ele>
        <time>2022-03-08T12:56:32.818Z</time>
      </trkpt>
      <trkpt lat="42.67187" lon="23.76208">
        <ele>642.524999</ele>
        <time>2022-03-08T12:56:35.834Z</time>
      </trkpt>
      <trkpt lat="42.67193" lon="23.76192">
        <ele>642.033504</ele>
        <time>2022-03-08T12:56:38.794Z</time>
      </trkpt>
      <trkpt lat="42.67197" lon="23.76181">
        <ele>641.683589</ele>
        <time>2022-03-08T12:56:40.776Z</time>
      </trkpt>
      <trkpt lat="42.67203" lon="23.76165">
        <ele>641.197116</ele>
        <time>2022-03-08T12:56:43.772Z</time>
      </trkpt>
      <trkpt lat="42.67209" lon="23.76149">
        <ele>640.690181</ele>
        <time>2022-03-08T12:56:46.783Z</time>
      </trkpt>
      <trkpt lat="42.67214" lon="23.76138">
        <ele>640.351682</ele>
        <time>2022-03-08T12:56:48.775Z</time>
      </trkpt>
      <trkpt lat="42.6722" lon="23.76123">
        <ele>639.861885</ele>
        <time>2022-03-08T12:56:51.773Z</time>
      </trkpt>
      <trkpt lat="42.67225" lon="23.76106">
        <ele>639.371168</ele>
        <time>2022-03-08T12:56:54.776Z</time>
      </trkpt>
      <trkpt lat="42.6723" lon="23.76089">
        <ele>638.872931</ele>
        <time>2022-03-08T12:56:57.769Z</time>
      </trkpt>
      <trkpt lat="42.67235" lon="23.76073">
        <ele>638.379239</ele>
        <time>2022-03-08T12:57:00.790Z</time>
      </trkpt>
      <trkpt lat="42.6724" lon="23.76056">
        <ele>637.908727</ele>
        <time>2022-03-08T12:57:03.824Z</time>
      </trkpt>
      <trkpt lat="42.67245" lon="23.7604">
        <ele>638.003319</ele>
        <time>2022-03-08T12:57:06.788Z</time>
      </trkpt>
      <trkpt lat="42.67249" lon="23.76028">
        <ele>638.070256</ele>
        <time>2022-03-08T12:57:08.776Z</time>
      </trkpt>
      <trkpt lat="42.67254" lon="23.76017">
        <ele>638.136185</ele>
        <time>2022-03-08T12:57:10.787Z</time>
      </trkpt>
      <trkpt lat="42.67258" lon="23.76006">
        <ele>638.20236</ele>
        <time>2022-03-08T12:57:12.782Z</time>
      </trkpt>
      <trkpt lat="42.67262" lon="23.75995">
        <ele>638.267742</ele>
        <time>2022-03-08T12:57:14.806Z</time>
      </trkpt>
      <trkpt lat="42.67268" lon="23.75979">
        <ele>638.357881</ele>
        <time>2022-03-08T12:57:17.767Z</time>
      </trkpt>
      <trkpt lat="42.67274" lon="23.75964">
        <ele>638.449586</ele>
        <time>2022-03-08T12:57:20.814Z</time>
      </trkpt>
      <trkpt lat="42.6728" lon="23.75947">
        <ele>638.545569</ele>
        <time>2022-03-08T12:57:23.779Z</time>
      </trkpt>
      <trkpt lat="42.67286" lon="23.75931">
        <ele>638.640293</ele>
        <time>2022-03-08T12:57:26.814Z</time>
      </trkpt>
      <trkpt lat="42.67292" lon="23.75917">
        <ele>638.726826</ele>
        <time>2022-03-08T12:57:29.803Z</time>
      </trkpt>
      <trkpt lat="42.67297" lon="23.75903">
        <ele>638.808974</ele>
        <time>2022-03-08T12:57:32.768Z</time>
      </trkpt>
      <trkpt lat="42.67301" lon="23.7589">
        <ele>638.883122</ele>
        <time>2022-03-08T12:57:35.766Z</time>
      </trkpt>
      <trkpt lat="42.67306" lon="23.75877">
        <ele>638.957587</ele>
        <time>2022-03-08T12:57:38.788Z</time>
      </trkpt>
      <trkpt lat="42.6731" lon="23.75864">
        <ele>639.033553</ele>
        <time>2022-03-08T12:57:41.784Z</time>
      </trkpt>
      <trkpt lat="42.67314" lon="23.7585">
        <ele>639.109085</ele>
        <time>2022-03-08T12:57:44.781Z</time>
      </trkpt>
      <trkpt lat="42.67319" lon="23.75837">
        <ele>639.189104</ele>
        <time>2022-03-08T12:57:47.776Z</time>
      </trkpt>
      <trkpt lat="42.67325" lon="23.75824">
        <ele>639.396879</ele>
        <time>2022-03-08T12:57:50.795Z</time>
      </trkpt>
      <trkpt lat="42.6733" lon="23.7581">
        <ele>639.604214</ele>
        <time>2022-03-08T12:57:53.779Z</time>
      </trkpt>
      <trkpt lat="42.67335" lon="23.75797">
        <ele>639.806328</ele>
        <time>2022-03-08T12:57:56.780Z</time>
      </trkpt>
      <trkpt lat="42.6734" lon="23.75783">
        <ele>640.005603</ele>
        <time>2022-03-08T12:57:59.792Z</time>
      </trkpt>
      <trkpt lat="42.67345" lon="23.7577">
        <ele>640.209722</ele>
        <time>2022-03-08T12:58:02.786Z</time>
      </trkpt>
      <trkpt lat="42.6735" lon="23.75757">
        <ele>640.409095</ele>
        <time>2022-03-08T12:58:05.813Z</time>
      </trkpt>
      <trkpt lat="42.67354" lon="23.75743">
        <ele>640.606691</ele>
        <time>2022-03-08T12:58:08.781Z</time>
      </trkpt>
      <trkpt lat="42.67358" lon="23.7573">
        <ele>640.797195</ele>
        <time>2022-03-08T12:58:11.810Z</time>
      </trkpt>
      <trkpt lat="42.67363" lon="23.75717">
        <ele>640.990031</ele>
        <time>2022-03-08T12:58:14.799Z</time>
      </trkpt>
      <trkpt lat="42.67368" lon="23.75704">
        <ele>641.188554</ele>
        <time>2022-03-08T12:58:17.785Z</time>
      </trkpt>
      <trkpt lat="42.67373" lon="23.75691">
        <ele>641.388788</ele>
        <time>2022-03-08T12:58:20.779Z</time>
      </trkpt>
      <trkpt lat="42.67378" lon="23.75678">
        <ele>641.586973</ele>
        <time>2022-03-08T12:58:23.778Z</time>
      </trkpt>
      <trkpt lat="42.67383" lon="23.75665">
        <ele>641.783836</ele>
        <time>2022-03-08T12:58:26.764Z</time>
      </trkpt>
      <trkpt lat="42.67387" lon="23.75651">
        <ele>641.984319</ele>
        <time>2022-03-08T12:58:29.785Z</time>
      </trkpt>
      <trkpt lat="42.67392" lon="23.75638">
        <ele>642.178796</ele>
        <time>2022-03-08T12:58:32.787Z</time>
      </trkpt>
      <trkpt lat="42.67396" lon="23.75626">
        <ele>642.363196</ele>
        <time>2022-03-08T12:58:35.778Z</time>
      </trkpt>
      <trkpt lat="42.67401" lon="23.75614">
        <ele>642.476608</ele>
        <time>2022-03-08T12:58:38.830Z</time>
      </trkpt>
      <trkpt lat="42.67405" lon="23.75601">
        <ele>642.477862</ele>
        <time>2022-03-08T12:58:41.770Z</time>
      </trkpt>
      <trkpt lat="42.67409" lon="23.75588">
        <ele>642.479114</ele>
        <time>2022-03-08T12:58:44.784Z</time>
      </trkpt>
      <trkpt lat="42.67414" lon="23.75576">
        <ele>642.480355</ele>
        <time>2022-03-08T12:58:47.793Z</time>
      </trkpt>
      <trkpt lat="42.67418" lon="23.75563">
        <ele>642.481638</ele>
        <time>2022-03-08T12:58:50.787Z</time>
      </trkpt>
      <trkpt lat="42.67423" lon="23.7555">
        <ele>642.482906</ele>
        <time>2022-03-08T12:58:53.776Z</time>
      </trkpt>
      <trkpt lat="42.67427" lon="23.75538">
        <ele>642.484102</ele>
        <time>2022-03-08T12:58:56.778Z</time>
      </trkpt>
      <trkpt lat="42.67431" lon="23.75526">
        <ele>642.485304</ele>
        <time>2022-03-08T12:58:59.783Z</time>
      </trkpt>
      <trkpt lat="42.67435" lon="23.75513">
        <ele>642.486529</ele>
        <time>2022-03-08T12:59:02.767Z</time>
      </trkpt>
      <trkpt lat="42.67439" lon="23.755">
        <ele>642.487848</ele>
        <time>2022-03-08T12:59:05.822Z</time>
      </trkpt>
      <trkpt lat="42.67444" lon="23.75486">
        <ele>642.489162</ele>
        <time>2022-03-08T12:59:08.778Z</time>
      </trkpt>
      <trkpt lat="42.67448" lon="23.75473">
        <ele>642.490491</ele>
        <time>2022-03-08T12:59:11.783Z</time>
      </trkpt>
      <trkpt lat="42.67453" lon="23.75459">
        <ele>642.491823</ele>
        <time>2022-03-08T12:59:14.779Z</time>
      </trkpt>
      <trkpt lat="42.67457" lon="23.75445">
        <ele>642.493203</ele>
        <time>2022-03-08T12:59:17.777Z</time>
      </trkpt>
      <trkpt lat="42.67462" lon="23.75431">
        <ele>642.494589</ele>
        <time>2022-03-08T12:59:20.790Z</time>
      </trkpt>
      <trkpt lat="42.67467" lon="23.75417">
        <ele>642.495988</ele>
        <time>2022-03-08T12:59:23.789Z</time>
      </trkpt>
      <trkpt lat="42.67472" lon="23.75404">
        <ele>642.497331</ele>
        <time>2022-03-08T12:59:26.771Z</time>
      </trkpt>
      <trkpt lat="42.67477" lon="23.7539">
        <ele>642.465349</ele>
        <time>2022-03-08T12:59:29.783Z</time>
      </trkpt>
      <trkpt lat="42.67482" lon="23.75376">
        <ele>642.394079</ele>
        <time>2022-03-08T12:59:32.780Z</time>
      </trkpt>
      <trkpt lat="42.67487" lon="23.75361">
        <ele>642.317872</ele>
        <time>2022-03-08T12:59:35.773Z</time>
      </trkpt>
      <trkpt lat="42.67492" lon="23.75346">
        <ele>642.239595</ele>
        <time>2022-03-08T12:59:38.825Z</time>
      </trkpt>
      <trkpt lat="42.67498" lon="23.75331">
        <ele>642.163938</ele>
        <time>2022-03-08T12:59:41.793Z</time>
      </trkpt>
      <trkpt lat="42.67504" lon="23.75315">
        <ele>642.084706</ele>
        <time>2022-03-08T12:59:44.770Z</time>
      </trkpt>
      <trkpt lat="42.67509" lon="23.753">
        <ele>642.006855</ele>
        <time>2022-03-08T12:59:47.787Z</time>
      </trkpt>
      <trkpt lat="42.67515" lon="23.75286">
        <ele>641.932017</ele>
        <time>2022-03-08T12:59:50.779Z</time>
      </trkpt>
      <trkpt lat="42.6752" lon="23.75271">
        <ele>641.856492</ele>
        <time>2022-03-08T12:59:53.786Z</time>
      </trkpt>
      <trkpt lat="42.67525" lon="23.75255">
        <ele>641.778813</ele>
        <time>2022-03-08T12:59:56.795Z</time>
      </trkpt>
      <trkpt lat="42.6753" lon="23.75239">
        <ele>641.699178</ele>
        <time>2022-03-08T12:59:59.785Z</time>
      </trkpt>
      <trkpt lat="42.67536" lon="23.75224">
        <ele>641.619272</ele>
        <time>2022-03-08T13:00:02.808Z</time>
      </trkpt>
      <trkpt lat="42.67542" lon="23.75208">
        <ele>641.540448</ele>
        <time>2022-03-08T13:00:05.765Z</time>
      </trkpt>
      <trkpt lat="42.67547" lon="23.75193">
        <ele>641.460118</ele>
        <time>2022-03-08T13:00:08.760Z</time>
      </trkpt>
      <trkpt lat="42.67553" lon="23.75177">
        <ele>641.3795</ele>
        <time>2022-03-08T13:00:11.774Z</time>
      </trkpt>
      <trkpt lat="42.67559" lon="23.75161">
        <ele>641.332933</ele>
        <time>2022-03-08T13:00:14.779Z</time>
      </trkpt>
      <trkpt lat="42.67565" lon="23.75145">
        <ele>641.287111</ele>
        <time>2022-03-08T13:00:17.812Z</time>
      </trkpt>
      <trkpt lat="42.6757" lon="23.75129">
        <ele>641.241447</ele>
        <time>2022-03-08T13:00:20.773Z</time>
      </trkpt>
      <trkpt lat="42.67575" lon="23.75114">
        <ele>641.197901</ele>
        <time>2022-03-08T13:00:23.779Z</time>
      </trkpt>
      <trkpt lat="42.67581" lon="23.75099">
        <ele>641.155468</ele>
        <time>2022-03-08T13:00:26.782Z</time>
      </trkpt>
      <trkpt lat="42.67585" lon="23.75084">
        <ele>641.113617</ele>
        <time>2022-03-08T13:00:29.778Z</time>
      </trkpt>
      <trkpt lat="42.67591" lon="23.75069">
        <ele>641.070242</ele>
        <time>2022-03-08T13:00:32.784Z</time>
      </trkpt>
      <trkpt lat="42.67597" lon="23.75054">
        <ele>641.027259</ele>
        <time>2022-03-08T13:00:35.778Z</time>
      </trkpt>
      <trkpt lat="42.67602" lon="23.75039">
        <ele>640.984982</ele>
        <time>2022-03-08T13:00:38.775Z</time>
      </trkpt>
      <trkpt lat="42.67608" lon="23.75024">
        <ele>640.941771</ele>
        <time>2022-03-08T13:00:41.786Z</time>
      </trkpt>
      <trkpt lat="42.67613" lon="23.7501">
        <ele>640.900186</ele>
        <time>2022-03-08T13:00:44.778Z</time>
      </trkpt>
      <trkpt lat="42.67618" lon="23.74995">
        <ele>640.857669</ele>
        <time>2022-03-08T13:00:47.781Z</time>
      </trkpt>
      <trkpt lat="42.67623" lon="23.7498">
        <ele>640.815346</ele>
        <time>2022-03-08T13:00:50.828Z</time>
      </trkpt>
      <trkpt lat="42.67628" lon="23.74965">
        <ele>640.772609</ele>
        <time>2022-03-08T13:00:53.783Z</time>
      </trkpt>
      <trkpt lat="42.67634" lon="23.7495">
        <ele>640.677288</ele>
        <time>2022-03-08T13:00:56.794Z</time>
      </trkpt>
      <trkpt lat="42.67639" lon="23.74935">
        <ele>640.512352</ele>
        <time>2022-03-08T13:00:59.775Z</time>
      </trkpt>
      <trkpt lat="42.67644" lon="23.74919">
        <ele>640.34853</ele>
        <time>2022-03-08T13:01:02.779Z</time>
      </trkpt>
      <trkpt lat="42.6765" lon="23.74905">
        <ele>640.188551</ele>
        <time>2022-03-08T13:01:05.773Z</time>
      </trkpt>
      <trkpt lat="42.67656" lon="23.7489">
        <ele>640.026718</ele>
        <time>2022-03-08T13:01:08.776Z</time>
      </trkpt>
      <trkpt lat="42.67661" lon="23.74874">
        <ele>639.856241</ele>
        <time>2022-03-08T13:01:11.798Z</time>
      </trkpt>
      <trkpt lat="42.67666" lon="23.74859">
        <ele>639.689857</ele>
        <time>2022-03-08T13:01:14.783Z</time>
      </trkpt>
      <trkpt lat="42.67672" lon="23.74844">
        <ele>639.526923</ele>
        <time>2022-03-08T13:01:17.806Z</time>
      </trkpt>
      <trkpt lat="42.67677" lon="23.74829">
        <ele>639.366646</ele>
        <time>2022-03-08T13:01:20.764Z</time>
      </trkpt>
      <trkpt lat="42.67682" lon="23.74814">
        <ele>639.202313</ele>
        <time>2022-03-08T13:01:23.788Z</time>
      </trkpt>
      <trkpt lat="42.67688" lon="23.74799">
        <ele>639.039126</ele>
        <time>2022-03-08T13:01:26.766Z</time>
      </trkpt>
      <trkpt lat="42.67693" lon="23.74783">
        <ele>638.873867</ele>
        <time>2022-03-08T13:01:29.798Z</time>
      </trkpt>
      <trkpt lat="42.67698" lon="23.74768">
        <ele>638.707483</ele>
        <time>2022-03-08T13:01:32.794Z</time>
      </trkpt>
      <trkpt lat="42.67704" lon="23.74752">
        <ele>638.540219</ele>
        <time>2022-03-08T13:01:35.823Z</time>
      </trkpt>
      <trkpt lat="42.6771" lon="23.74737">
        <ele>638.373217</ele>
        <time>2022-03-08T13:01:38.775Z</time>
      </trkpt>
      <trkpt lat="42.67715" lon="23.74722">
        <ele>638.267586</ele>
        <time>2022-03-08T13:01:41.809Z</time>
      </trkpt>
      <trkpt lat="42.6772" lon="23.74708">
        <ele>638.169295</ele>
        <time>2022-03-08T13:01:44.787Z</time>
      </trkpt>
      <trkpt lat="42.67724" lon="23.74693">
        <ele>638.068745</ele>
        <time>2022-03-08T13:01:47.788Z</time>
      </trkpt>
      <trkpt lat="42.6773" lon="23.74679">
        <ele>637.970506</ele>
        <time>2022-03-08T13:01:50.785Z</time>
      </trkpt>
      <trkpt lat="42.67734" lon="23.74666">
        <ele>637.880589</ele>
        <time>2022-03-08T13:01:53.791Z</time>
      </trkpt>
      <trkpt lat="42.67739" lon="23.74652">
        <ele>637.785121</ele>
        <time>2022-03-08T13:01:56.787Z</time>
      </trkpt>
      <trkpt lat="42.67745" lon="23.74638">
        <ele>637.68904</ele>
        <time>2022-03-08T13:01:59.795Z</time>
      </trkpt>
      <trkpt lat="42.6775" lon="23.74624">
        <ele>637.58819</ele>
        <time>2022-03-08T13:02:02.787Z</time>
      </trkpt>
      <trkpt lat="42.67755" lon="23.7461">
        <ele>637.490874</ele>
        <time>2022-03-08T13:02:05.758Z</time>
      </trkpt>
      <trkpt lat="42.6776" lon="23.74594">
        <ele>637.387558</ele>
        <time>2022-03-08T13:02:08.784Z</time>
      </trkpt>
      <trkpt lat="42.67764" lon="23.74579">
        <ele>637.284554</ele>
        <time>2022-03-08T13:02:11.779Z</time>
      </trkpt>
      <trkpt lat="42.67769" lon="23.74563">
        <ele>637.182632</ele>
        <time>2022-03-08T13:02:14.770Z</time>
      </trkpt>
      <trkpt lat="42.67774" lon="23.74549">
        <ele>637.08308</ele>
        <time>2022-03-08T13:02:17.795Z</time>
      </trkpt>
      <trkpt lat="42.67779" lon="23.74533">
        <ele>636.974483</ele>
        <time>2022-03-08T13:02:20.792Z</time>
      </trkpt>
      <trkpt lat="42.67785" lon="23.74518">
        <ele>636.868659</ele>
        <time>2022-03-08T13:02:23.773Z</time>
      </trkpt>
      <trkpt lat="42.67791" lon="23.74501">
        <ele>636.761881</ele>
        <time>2022-03-08T13:02:26.799Z</time>
      </trkpt>
      <trkpt lat="42.67796" lon="23.74486">
        <ele>636.662836</ele>
        <time>2022-03-08T13:02:29.826Z</time>
      </trkpt>
      <trkpt lat="42.67802" lon="23.74472">
        <ele>636.566072</ele>
        <time>2022-03-08T13:02:32.776Z</time>
      </trkpt>
      <trkpt lat="42.67808" lon="23.74457">
        <ele>636.466372</ele>
        <time>2022-03-08T13:02:35.779Z</time>
      </trkpt>
      <trkpt lat="42.67813" lon="23.74443">
        <ele>636.37473</ele>
        <time>2022-03-08T13:02:38.781Z</time>
      </trkpt>
      <trkpt lat="42.67818" lon="23.74428">
        <ele>636.277953</ele>
        <time>2022-03-08T13:02:41.788Z</time>
      </trkpt>
      <trkpt lat="42.67822" lon="23.74416">
        <ele>636.204508</ele>
        <time>2022-03-08T13:02:43.786Z</time>
      </trkpt>
      <trkpt lat="42.67827" lon="23.744">
        <ele>636.101593</ele>
        <time>2022-03-08T13:02:46.818Z</time>
      </trkpt>
      <trkpt lat="42.67832" lon="23.74385">
        <ele>636.004281</ele>
        <time>2022-03-08T13:02:49.792Z</time>
      </trkpt>
      <trkpt lat="42.67837" lon="23.7437">
        <ele>635.903149</ele>
        <time>2022-03-08T13:02:52.767Z</time>
      </trkpt>
      <trkpt lat="42.67843" lon="23.74354">
        <ele>635.801667</ele>
        <time>2022-03-08T13:02:55.784Z</time>
      </trkpt>
      <trkpt lat="42.67849" lon="23.74339">
        <ele>635.700536</ele>
        <time>2022-03-08T13:02:58.774Z</time>
      </trkpt>
      <trkpt lat="42.67854" lon="23.74324">
        <ele>635.604501</ele>
        <time>2022-03-08T13:03:01.768Z</time>
      </trkpt>
      <trkpt lat="42.67859" lon="23.74308">
        <ele>635.502453</ele>
        <time>2022-03-08T13:03:04.821Z</time>
      </trkpt>
      <trkpt lat="42.67865" lon="23.74292">
        <ele>635.405163</ele>
        <time>2022-03-08T13:03:07.790Z</time>
      </trkpt>
      <trkpt lat="42.67871" lon="23.74277">
        <ele>635.360326</ele>
        <time>2022-03-08T13:03:10.788Z</time>
      </trkpt>
      <trkpt lat="42.67877" lon="23.74262">
        <ele>635.315185</ele>
        <time>2022-03-08T13:03:13.816Z</time>
      </trkpt>
      <trkpt lat="42.67882" lon="23.74247">
        <ele>635.271386</ele>
        <time>2022-03-08T13:03:16.799Z</time>
      </trkpt>
      <trkpt lat="42.67887" lon="23.74231">
        <ele>635.226454</ele>
        <time>2022-03-08T13:03:19.824Z</time>
      </trkpt>
      <trkpt lat="42.67892" lon="23.74217">
        <ele>635.184777</ele>
        <time>2022-03-08T13:03:22.795Z</time>
      </trkpt>
      <trkpt lat="42.67897" lon="23.74203">
        <ele>635.144599</ele>
        <time>2022-03-08T13:03:25.770Z</time>
      </trkpt>
      <trkpt lat="42.67902" lon="23.74189">
        <ele>635.103554</ele>
        <time>2022-03-08T13:03:28.777Z</time>
      </trkpt>
      <trkpt lat="42.67908" lon="23.74175">
        <ele>635.062474</ele>
        <time>2022-03-08T13:03:31.775Z</time>
      </trkpt>
      <trkpt lat="42.67913" lon="23.7416">
        <ele>635.018124</ele>
        <time>2022-03-08T13:03:34.777Z</time>
      </trkpt>
      <trkpt lat="42.67919" lon="23.74146">
        <ele>634.975036</ele>
        <time>2022-03-08T13:03:37.785Z</time>
      </trkpt>
      <trkpt lat="42.67924" lon="23.74131">
        <ele>634.933285</ele>
        <time>2022-03-08T13:03:40.791Z</time>
      </trkpt>
      <trkpt lat="42.67929" lon="23.74117">
        <ele>634.890116</ele>
        <time>2022-03-08T13:03:43.788Z</time>
      </trkpt>
      <trkpt lat="42.67934" lon="23.74102">
        <ele>634.846709</ele>
        <time>2022-03-08T13:03:46.820Z</time>
      </trkpt>
      <trkpt lat="42.67939" lon="23.74087">
        <ele>634.804281</ele>
        <time>2022-03-08T13:03:49.790Z</time>
      </trkpt>
      <trkpt lat="42.67943" lon="23.74071">
        <ele>634.784833</ele>
        <time>2022-03-08T13:03:52.786Z</time>
      </trkpt>
      <trkpt lat="42.67949" lon="23.74056">
        <ele>634.860615</ele>
        <time>2022-03-08T13:03:55.780Z</time>
      </trkpt>
      <trkpt lat="42.67955" lon="23.74041">
        <ele>634.932599</ele>
        <time>2022-03-08T13:03:58.777Z</time>
      </trkpt>
      <trkpt lat="42.6796" lon="23.74026">
        <ele>635.006812</ele>
        <time>2022-03-08T13:04:01.773Z</time>
      </trkpt>
      <trkpt lat="42.67965" lon="23.74011">
        <ele>635.076294</ele>
        <time>2022-03-08T13:04:04.782Z</time>
      </trkpt>
      <trkpt lat="42.67971" lon="23.73998">
        <ele>635.145367</ele>
        <time>2022-03-08T13:04:07.780Z</time>
      </trkpt>
      <trkpt lat="42.67976" lon="23.73984">
        <ele>635.21314</ele>
        <time>2022-03-08T13:04:10.777Z</time>
      </trkpt>
      <trkpt lat="42.67981" lon="23.7397">
        <ele>635.279596</ele>
        <time>2022-03-08T13:04:13.838Z</time>
      </trkpt>
      <trkpt lat="42.67985" lon="23.73956">
        <ele>635.346584</ele>
        <time>2022-03-08T13:04:16.792Z</time>
      </trkpt>
      <trkpt lat="42.6799" lon="23.73943">
        <ele>635.41267</ele>
        <time>2022-03-08T13:04:19.786Z</time>
      </trkpt>
      <trkpt lat="42.67995" lon="23.73929">
        <ele>635.478213</ele>
        <time>2022-03-08T13:04:22.780Z</time>
      </trkpt>
      <trkpt lat="42.67999" lon="23.73916">
        <ele>635.543653</ele>
        <time>2022-03-08T13:04:25.792Z</time>
      </trkpt>
      <trkpt lat="42.68004" lon="23.73903">
        <ele>635.606826</ele>
        <time>2022-03-08T13:04:28.776Z</time>
      </trkpt>
      <trkpt lat="42.68008" lon="23.7389">
        <ele>635.669376</ele>
        <time>2022-03-08T13:04:31.778Z</time>
      </trkpt>
      <trkpt lat="42.68013" lon="23.73877">
        <ele>635.730201</ele>
        <time>2022-03-08T13:04:34.787Z</time>
      </trkpt>
      <trkpt lat="42.68018" lon="23.73865">
        <ele>635.793374</ele>
        <time>2022-03-08T13:04:37.760Z</time>
      </trkpt>
      <trkpt lat="42.68022" lon="23.73852">
        <ele>635.845315</ele>
        <time>2022-03-08T13:04:40.802Z</time>
      </trkpt>
      <trkpt lat="42.68027" lon="23.73838">
        <ele>635.860127</ele>
        <time>2022-03-08T13:04:43.775Z</time>
      </trkpt>
      <trkpt lat="42.68032" lon="23.73824">
        <ele>635.875449</ele>
        <time>2022-03-08T13:04:46.819Z</time>
      </trkpt>
      <trkpt lat="42.68036" lon="23.73811">
        <ele>635.890469</ele>
        <time>2022-03-08T13:04:49.788Z</time>
      </trkpt>
      <trkpt lat="42.68041" lon="23.73797">
        <ele>635.905229</ele>
        <time>2022-03-08T13:04:52.784Z</time>
      </trkpt>
      <trkpt lat="42.68045" lon="23.73784">
        <ele>635.91933</ele>
        <time>2022-03-08T13:04:55.798Z</time>
      </trkpt>
      <trkpt lat="42.6805" lon="23.73772">
        <ele>635.932364</ele>
        <time>2022-03-08T13:04:58.788Z</time>
      </trkpt>
      <trkpt lat="42.68054" lon="23.7376">
        <ele>635.946465</ele>
        <time>2022-03-08T13:05:01.786Z</time>
      </trkpt>
      <trkpt lat="42.68059" lon="23.73747">
        <ele>635.960744</ele>
        <time>2022-03-08T13:05:04.796Z</time>
      </trkpt>
      <trkpt lat="42.68064" lon="23.73733">
        <ele>635.97597</ele>
        <time>2022-03-08T13:05:07.782Z</time>
      </trkpt>
      <trkpt lat="42.68068" lon="23.7372">
        <ele>635.990192</ele>
        <time>2022-03-08T13:05:10.778Z</time>
      </trkpt>
      <trkpt lat="42.68073" lon="23.73707">
        <ele>636.004474</ele>
        <time>2022-03-08T13:05:13.800Z</time>
      </trkpt>
      <trkpt lat="42.68077" lon="23.73694">
        <ele>636.018516</ele>
        <time>2022-03-08T13:05:16.779Z</time>
      </trkpt>
      <trkpt lat="42.68082" lon="23.73681">
        <ele>636.032558</ele>
        <time>2022-03-08T13:05:19.794Z</time>
      </trkpt>
      <trkpt lat="42.68086" lon="23.73669">
        <ele>636.045362</ele>
        <time>2022-03-08T13:05:22.782Z</time>
      </trkpt>
      <trkpt lat="42.6809" lon="23.73657">
        <ele>636.058818</ele>
        <time>2022-03-08T13:05:25.813Z</time>
      </trkpt>
      <trkpt lat="42.68095" lon="23.73645">
        <ele>636.072626</ele>
        <time>2022-03-08T13:05:28.767Z</time>
      </trkpt>
      <trkpt lat="42.68099" lon="23.73632">
        <ele>636.118831</ele>
        <time>2022-03-08T13:05:31.774Z</time>
      </trkpt>
      <trkpt lat="42.68104" lon="23.7362">
        <ele>636.407012</ele>
        <time>2022-03-08T13:05:34.777Z</time>
      </trkpt>
      <trkpt lat="42.68108" lon="23.73608">
        <ele>636.684031</ele>
        <time>2022-03-08T13:05:37.776Z</time>
      </trkpt>
      <trkpt lat="42.68113" lon="23.73596">
        <ele>636.981</ele>
        <time>2022-03-08T13:05:40.768Z</time>
      </trkpt>
      <trkpt lat="42.68117" lon="23.73583">
        <ele>637.282346</ele>
        <time>2022-03-08T13:05:43.791Z</time>
      </trkpt>
      <trkpt lat="42.68122" lon="23.73571">
        <ele>637.564194</ele>
        <time>2022-03-08T13:05:46.774Z</time>
      </trkpt>
      <trkpt lat="42.68126" lon="23.73559">
        <ele>637.83229</ele>
        <time>2022-03-08T13:05:49.799Z</time>
      </trkpt>
      <trkpt lat="42.6813" lon="23.73548">
        <ele>638.089646</ele>
        <time>2022-03-08T13:05:52.808Z</time>
      </trkpt>
      <trkpt lat="42.68133" lon="23.73537">
        <ele>638.350819</ele>
        <time>2022-03-08T13:05:55.767Z</time>
      </trkpt>
      <trkpt lat="42.68138" lon="23.73525">
        <ele>638.62071</ele>
        <time>2022-03-08T13:05:58.786Z</time>
      </trkpt>
      <trkpt lat="42.68142" lon="23.73514">
        <ele>638.878054</ele>
        <time>2022-03-08T13:06:01.792Z</time>
      </trkpt>
      <trkpt lat="42.68146" lon="23.73499">
        <ele>639.218404</ele>
        <time>2022-03-08T13:06:05.779Z</time>
      </trkpt>
      <trkpt lat="42.6815" lon="23.73488">
        <ele>639.477062</ele>
        <time>2022-03-08T13:06:08.776Z</time>
      </trkpt>
      <trkpt lat="42.68154" lon="23.73477">
        <ele>639.735637</ele>
        <time>2022-03-08T13:06:11.792Z</time>
      </trkpt>
      <trkpt lat="42.68159" lon="23.73466">
        <ele>639.998387</ele>
        <time>2022-03-08T13:06:14.796Z</time>
      </trkpt>
      <trkpt lat="42.68164" lon="23.73452">
        <ele>640.334337</ele>
        <time>2022-03-08T13:06:18.767Z</time>
      </trkpt>
      <trkpt lat="42.68169" lon="23.73437">
        <ele>640.675492</ele>
        <time>2022-03-08T13:06:22.786Z</time>
      </trkpt>
      <trkpt lat="42.68174" lon="23.73423">
        <ele>641.00074</ele>
        <time>2022-03-08T13:06:26.780Z</time>
      </trkpt>
      <trkpt lat="42.68179" lon="23.73409">
        <ele>641.235887</ele>
        <time>2022-03-08T13:06:30.788Z</time>
      </trkpt>
      <trkpt lat="42.68182" lon="23.73397">
        <ele>641.258178</ele>
        <time>2022-03-08T13:06:33.764Z</time>
      </trkpt>
      <trkpt lat="42.68186" lon="23.73386">
        <ele>641.280034</ele>
        <time>2022-03-08T13:06:36.818Z</time>
      </trkpt>
      <trkpt lat="42.6819" lon="23.73374">
        <ele>641.303699</ele>
        <time>2022-03-08T13:06:39.801Z</time>
      </trkpt>
      <trkpt lat="42.68195" lon="23.73364">
        <ele>641.326061</ele>
        <time>2022-03-08T13:06:42.791Z</time>
      </trkpt>
      <trkpt lat="42.68201" lon="23.73349">
        <ele>641.354656</ele>
        <time>2022-03-08T13:06:46.782Z</time>
      </trkpt>
      <trkpt lat="42.68206" lon="23.73335">
        <ele>641.383167</ele>
        <time>2022-03-08T13:06:50.779Z</time>
      </trkpt>
      <trkpt lat="42.68212" lon="23.73321">
        <ele>641.411593</ele>
        <time>2022-03-08T13:06:54.775Z</time>
      </trkpt>
      <trkpt lat="42.68217" lon="23.73306">
        <ele>641.439971</ele>
        <time>2022-03-08T13:06:58.846Z</time>
      </trkpt>
      <trkpt lat="42.68221" lon="23.73296">
        <ele>641.461506</ele>
        <time>2022-03-08T13:07:01.776Z</time>
      </trkpt>
      <trkpt lat="42.68224" lon="23.73284">
        <ele>641.483797</ele>
        <time>2022-03-08T13:07:04.779Z</time>
      </trkpt>
      <trkpt lat="42.68228" lon="23.73272">
        <ele>641.506342</ele>
        <time>2022-03-08T13:07:07.787Z</time>
      </trkpt>
      <trkpt lat="42.68231" lon="23.7326">
        <ele>641.529216</ele>
        <time>2022-03-08T13:07:10.787Z</time>
      </trkpt>
      <trkpt lat="42.68237" lon="23.73246">
        <ele>641.557301</ele>
        <time>2022-03-08T13:07:14.819Z</time>
      </trkpt>
      <trkpt lat="42.68241" lon="23.73235">
        <ele>641.579479</ele>
        <time>2022-03-08T13:07:17.772Z</time>
      </trkpt>
      <trkpt lat="42.68245" lon="23.73223">
        <ele>641.603239</ele>
        <time>2022-03-08T13:07:20.820Z</time>
      </trkpt>
      <trkpt lat="42.6825" lon="23.73212">
        <ele>641.62597</ele>
        <time>2022-03-08T13:07:23.784Z</time>
      </trkpt>
      <trkpt lat="42.68254" lon="23.732">
        <ele>641.648783</ele>
        <time>2022-03-08T13:07:26.779Z</time>
      </trkpt>
      <trkpt lat="42.68258" lon="23.73189">
        <ele>641.618534</ele>
        <time>2022-03-08T13:07:29.805Z</time>
      </trkpt>
      <trkpt lat="42.68262" lon="23.73178">
        <ele>641.526696</ele>
        <time>2022-03-08T13:07:32.793Z</time>
      </trkpt>
      <trkpt lat="42.68266" lon="23.73167">
        <ele>641.438712</ele>
        <time>2022-03-08T13:07:35.816Z</time>
      </trkpt>
      <trkpt lat="42.68271" lon="23.73155">
        <ele>641.341274</ele>
        <time>2022-03-08T13:07:38.794Z</time>
      </trkpt>
      <trkpt lat="42.68275" lon="23.73142">
        <ele>641.242939</ele>
        <time>2022-03-08T13:07:41.788Z</time>
      </trkpt>
      <trkpt lat="42.68279" lon="23.7313">
        <ele>641.14432</ele>
        <time>2022-03-08T13:07:44.771Z</time>
      </trkpt>
      <trkpt lat="42.68283" lon="23.73118">
        <ele>641.049386</ele>
        <time>2022-03-08T13:07:47.787Z</time>
      </trkpt>
      <trkpt lat="42.68287" lon="23.73106">
        <ele>640.956159</ele>
        <time>2022-03-08T13:07:50.787Z</time>
      </trkpt>
      <trkpt lat="42.68292" lon="23.73095">
        <ele>640.86139</ele>
        <time>2022-03-08T13:07:53.807Z</time>
      </trkpt>
      <trkpt lat="42.68296" lon="23.73082">
        <ele>640.765001</ele>
        <time>2022-03-08T13:07:56.788Z</time>
      </trkpt>
      <trkpt lat="42.68301" lon="23.73071">
        <ele>640.671652</ele>
        <time>2022-03-08T13:07:59.814Z</time>
      </trkpt>
      <trkpt lat="42.68305" lon="23.73058">
        <ele>640.57185</ele>
        <time>2022-03-08T13:08:02.767Z</time>
      </trkpt>
      <trkpt lat="42.6831" lon="23.73047">
        <ele>640.477604</ele>
        <time>2022-03-08T13:08:05.802Z</time>
      </trkpt>
      <trkpt lat="42.68314" lon="23.73035">
        <ele>640.382753</ele>
        <time>2022-03-08T13:08:08.779Z</time>
      </trkpt>
      <trkpt lat="42.68318" lon="23.73023">
        <ele>640.286767</ele>
        <time>2022-03-08T13:08:11.770Z</time>
      </trkpt>
      <trkpt lat="42.68322" lon="23.7301">
        <ele>640.188664</ele>
        <time>2022-03-08T13:08:14.783Z</time>
      </trkpt>
      <trkpt lat="42.68326" lon="23.72998">
        <ele>640.091752</ele>
        <time>2022-03-08T13:08:17.782Z</time>
      </trkpt>
      <trkpt lat="42.6833" lon="23.72985">
        <ele>639.994841</ele>
        <time>2022-03-08T13:08:20.773Z</time>
      </trkpt>
      <trkpt lat="42.68335" lon="23.72974">
        <ele>639.905187</ele>
        <time>2022-03-08T13:08:23.782Z</time>
      </trkpt>
      <trkpt lat="42.68339" lon="23.72961">
        <ele>640.207135</ele>
        <time>2022-03-08T13:08:27.773Z</time>
      </trkpt>
      <trkpt lat="42.68344" lon="23.72946">
        <ele>640.543546</ele>
        <time>2022-03-08T13:08:31.785Z</time>
      </trkpt>
      <trkpt lat="42.68348" lon="23.72936">
        <ele>640.798201</ele>
        <time>2022-03-08T13:08:34.787Z</time>
      </trkpt>
      <trkpt lat="42.68353" lon="23.72924">
        <ele>641.066564</ele>
        <time>2022-03-08T13:08:37.782Z</time>
      </trkpt>
      <trkpt lat="42.68357" lon="23.72913">
        <ele>641.331728</ele>
        <time>2022-03-08T13:08:40.801Z</time>
      </trkpt>
      <trkpt lat="42.68362" lon="23.72898">
        <ele>641.671107</ele>
        <time>2022-03-08T13:08:44.787Z</time>
      </trkpt>
      <trkpt lat="42.68366" lon="23.72887">
        <ele>641.929407</ele>
        <time>2022-03-08T13:08:47.768Z</time>
      </trkpt>
      <trkpt lat="42.6837" lon="23.72876">
        <ele>642.183323</ele>
        <time>2022-03-08T13:08:50.780Z</time>
      </trkpt>
      <trkpt lat="42.68374" lon="23.72865">
        <ele>642.447234</ele>
        <time>2022-03-08T13:08:53.789Z</time>
      </trkpt>
      <trkpt lat="42.68378" lon="23.72854">
        <ele>642.702441</ele>
        <time>2022-03-08T13:08:56.780Z</time>
      </trkpt>
      <trkpt lat="42.68383" lon="23.72839">
        <ele>643.033166</ele>
        <time>2022-03-08T13:09:00.783Z</time>
      </trkpt>
      <trkpt lat="42.68388" lon="23.72825">
        <ele>643.36009</ele>
        <time>2022-03-08T13:09:04.791Z</time>
      </trkpt>
      <trkpt lat="42.68393" lon="23.72812">
        <ele>643.675155</ele>
        <time>2022-03-08T13:09:08.791Z</time>
      </trkpt>
      <trkpt lat="42.68399" lon="23.72798">
        <ele>644.007348</ele>
        <time>2022-03-08T13:09:12.815Z</time>
      </trkpt>
      <trkpt lat="42.68404" lon="23.72785">
        <ele>644.316841</ele>
        <time>2022-03-08T13:09:16.794Z</time>
      </trkpt>
      <trkpt lat="42.68409" lon="23.72771">
        <ele>644.638196</ele>
        <time>2022-03-08T13:09:20.784Z</time>
      </trkpt>
      <trkpt lat="42.68414" lon="23.72757">
        <ele>644.956391</ele>
        <time>2022-03-08T13:09:24.784Z</time>
      </trkpt>
      <trkpt lat="42.68419" lon="23.72743">
        <ele>645.086623</ele>
        <time>2022-03-08T13:09:28.794Z</time>
      </trkpt>
      <trkpt lat="42.68423" lon="23.72731">
        <ele>645.164681</ele>
        <time>2022-03-08T13:09:31.788Z</time>
      </trkpt>
      <trkpt lat="42.68427" lon="23.7272">
        <ele>645.243421</ele>
        <time>2022-03-08T13:09:34.797Z</time>
      </trkpt>
      <trkpt lat="42.68432" lon="23.72709">
        <ele>645.321348</ele>
        <time>2022-03-08T13:09:37.785Z</time>
      </trkpt>
      <trkpt lat="42.68435" lon="23.72697">
        <ele>645.399155</ele>
        <time>2022-03-08T13:09:40.784Z</time>
      </trkpt>
      <trkpt lat="42.68439" lon="23.72686">
        <ele>645.475379</ele>
        <time>2022-03-08T13:09:43.784Z</time>
      </trkpt>
      <trkpt lat="42.68444" lon="23.72672">
        <ele>645.573789</ele>
        <time>2022-03-08T13:09:47.784Z</time>
      </trkpt>
      <trkpt lat="42.68449" lon="23.72658">
        <ele>645.672004</ele>
        <time>2022-03-08T13:09:51.784Z</time>
      </trkpt>
      <trkpt lat="42.68455" lon="23.72644">
        <ele>645.771185</ele>
        <time>2022-03-08T13:09:55.782Z</time>
      </trkpt>
      <trkpt lat="42.6846" lon="23.7263">
        <ele>645.866443</ele>
        <time>2022-03-08T13:09:59.810Z</time>
      </trkpt>
      <trkpt lat="42.68465" lon="23.72615">
        <ele>645.963022</ele>
        <time>2022-03-08T13:10:03.786Z</time>
      </trkpt>
      <trkpt lat="42.68468" lon="23.72604">
        <ele>646.039363</ele>
        <time>2022-03-08T13:10:06.792Z</time>
      </trkpt>
      <trkpt lat="42.68472" lon="23.72593">
        <ele>646.116307</ele>
        <time>2022-03-08T13:10:09.799Z</time>
      </trkpt>
      <trkpt lat="42.68476" lon="23.72582">
        <ele>646.193251</ele>
        <time>2022-03-08T13:10:12.790Z</time>
      </trkpt>
      <trkpt lat="42.6848" lon="23.7257">
        <ele>646.271722</ele>
        <time>2022-03-08T13:10:15.784Z</time>
      </trkpt>
      <trkpt lat="42.68485" lon="23.72556">
        <ele>646.368516</ele>
        <time>2022-03-08T13:10:19.800Z</time>
      </trkpt>
      <trkpt lat="42.68489" lon="23.72542">
        <ele>646.465706</ele>
        <time>2022-03-08T13:10:23.777Z</time>
      </trkpt>
      <trkpt lat="42.68491" lon="23.72526">
        <ele>646.621539</ele>
        <time>2022-03-08T13:10:27.789Z</time>
      </trkpt>
      <trkpt lat="42.68492" lon="23.7251">
        <ele>646.853186</ele>
        <time>2022-03-08T13:10:31.789Z</time>
      </trkpt>
      <trkpt lat="42.68492" lon="23.72495">
        <ele>647.075558</ele>
        <time>2022-03-08T13:10:35.786Z</time>
      </trkpt>
      <trkpt lat="42.68492" lon="23.72482">
        <ele>647.253467</ele>
        <time>2022-03-08T13:10:38.775Z</time>
      </trkpt>
      <trkpt lat="42.68492" lon="23.7247">
        <ele>647.429941</ele>
        <time>2022-03-08T13:10:41.784Z</time>
      </trkpt>
      <trkpt lat="42.68492" lon="23.72458">
        <ele>647.60498</ele>
        <time>2022-03-08T13:10:44.776Z</time>
      </trkpt>
      <trkpt lat="42.68492" lon="23.72442">
        <ele>647.83769</ele>
        <time>2022-03-08T13:10:48.799Z</time>
      </trkpt>
      <trkpt lat="42.68492" lon="23.7243">
        <ele>648.012762</ele>
        <time>2022-03-08T13:10:51.812Z</time>
      </trkpt>
      <trkpt lat="42.68492" lon="23.72414">
        <ele>648.235349</ele>
        <time>2022-03-08T13:10:55.782Z</time>
      </trkpt>
      <trkpt lat="42.68493" lon="23.72402">
        <ele>648.411985</ele>
        <time>2022-03-08T13:10:58.790Z</time>
      </trkpt>
      <trkpt lat="42.68493" lon="23.72389">
        <ele>648.588459</ele>
        <time>2022-03-08T13:11:01.788Z</time>
      </trkpt>
      <trkpt lat="42.68492" lon="23.72376">
        <ele>648.775128</ele>
        <time>2022-03-08T13:11:04.799Z</time>
      </trkpt>
      <trkpt lat="42.68492" lon="23.72363">
        <ele>648.962286</ele>
        <time>2022-03-08T13:11:07.783Z</time>
      </trkpt>
      <trkpt lat="42.68491" lon="23.7235">
        <ele>649.148884</ele>
        <time>2022-03-08T13:11:10.793Z</time>
      </trkpt>
      <trkpt lat="42.68491" lon="23.72337">
        <ele>649.341287</ele>
        <time>2022-03-08T13:11:13.852Z</time>
      </trkpt>
      <trkpt lat="42.6849" lon="23.72324">
        <ele>649.526523</ele>
        <time>2022-03-08T13:11:16.794Z</time>
      </trkpt>
      <trkpt lat="42.6849" lon="23.72311">
        <ele>649.711604</ele>
        <time>2022-03-08T13:11:19.813Z</time>
      </trkpt>
      <trkpt lat="42.6849" lon="23.72299">
        <ele>649.8939</ele>
        <time>2022-03-08T13:11:22.793Z</time>
      </trkpt>
      <trkpt lat="42.6849" lon="23.72286">
        <ele>650.040496</ele>
        <time>2022-03-08T13:11:25.795Z</time>
      </trkpt>
      <trkpt lat="42.68489" lon="23.72274">
        <ele>650.103948</ele>
        <time>2022-03-08T13:11:28.791Z</time>
      </trkpt>
      <trkpt lat="42.68489" lon="23.7226">
        <ele>650.174123</ele>
        <time>2022-03-08T13:11:31.776Z</time>
      </trkpt>
      <trkpt lat="42.68489" lon="23.72246">
        <ele>650.243797</ele>
        <time>2022-03-08T13:11:34.789Z</time>
      </trkpt>
      <trkpt lat="42.68489" lon="23.72232">
        <ele>650.314484</ele>
        <time>2022-03-08T13:11:37.811Z</time>
      </trkpt>
      <trkpt lat="42.6849" lon="23.72218">
        <ele>650.383774</ele>
        <time>2022-03-08T13:11:40.793Z</time>
      </trkpt>
      <trkpt lat="42.6849" lon="23.72204">
        <ele>650.455452</ele>
        <time>2022-03-08T13:11:43.775Z</time>
      </trkpt>
      <trkpt lat="42.6849" lon="23.72188">
        <ele>650.532669</ele>
        <time>2022-03-08T13:11:46.796Z</time>
      </trkpt>
      <trkpt lat="42.6849" lon="23.72173">
        <ele>650.610362</ele>
        <time>2022-03-08T13:11:49.791Z</time>
      </trkpt>
      <trkpt lat="42.6849" lon="23.72157">
        <ele>650.688052</ele>
        <time>2022-03-08T13:11:52.807Z</time>
      </trkpt>
      <trkpt lat="42.6849" lon="23.72142">
        <ele>650.762735</ele>
        <time>2022-03-08T13:11:55.789Z</time>
      </trkpt>
      <trkpt lat="42.6849" lon="23.72127">
        <ele>650.839927</ele>
        <time>2022-03-08T13:11:58.779Z</time>
      </trkpt>
      <trkpt lat="42.6849" lon="23.72112">
        <ele>650.915612</ele>
        <time>2022-03-08T13:12:01.778Z</time>
      </trkpt>
      <trkpt lat="42.6849" lon="23.72096">
        <ele>650.993806</ele>
        <time>2022-03-08T13:12:04.770Z</time>
      </trkpt>
      <trkpt lat="42.6849" lon="23.7208">
        <ele>651.073106</ele>
        <time>2022-03-08T13:12:07.789Z</time>
      </trkpt>
      <trkpt lat="42.68491" lon="23.72064">
        <ele>651.153907</ele>
        <time>2022-03-08T13:12:10.771Z</time>
      </trkpt>
      <trkpt lat="42.68491" lon="23.72048">
        <ele>651.233148</ele>
        <time>2022-03-08T13:12:13.774Z</time>
      </trkpt>
      <trkpt lat="42.68493" lon="23.72033">
        <ele>651.154996</ele>
        <time>2022-03-08T13:12:16.796Z</time>
      </trkpt>
      <trkpt lat="42.68495" lon="23.72017">
        <ele>651.033444</ele>
        <time>2022-03-08T13:12:19.778Z</time>
      </trkpt>
      <trkpt lat="42.68497" lon="23.72002">
        <ele>650.911127</ele>
        <time>2022-03-08T13:12:22.773Z</time>
      </trkpt>
      <trkpt lat="42.68498" lon="23.71986">
        <ele>650.790517</ele>
        <time>2022-03-08T13:12:25.795Z</time>
      </trkpt>
      <trkpt lat="42.68501" lon="23.71971">
        <ele>650.67163</ele>
        <time>2022-03-08T13:12:28.787Z</time>
      </trkpt>
      <trkpt lat="42.68504" lon="23.71958">
        <ele>650.559324</ele>
        <time>2022-03-08T13:12:31.787Z</time>
      </trkpt>
      <trkpt lat="42.68506" lon="23.71944">
        <ele>650.453364</ele>
        <time>2022-03-08T13:12:34.804Z</time>
      </trkpt>
      <trkpt lat="42.68508" lon="23.71928">
        <ele>650.327554</ele>
        <time>2022-03-08T13:12:38.790Z</time>
      </trkpt>
      <trkpt lat="42.6851" lon="23.71916">
        <ele>650.226603</ele>
        <time>2022-03-08T13:12:41.788Z</time>
      </trkpt>
      <trkpt lat="42.68511" lon="23.71903">
        <ele>650.124322</ele>
        <time>2022-03-08T13:12:44.779Z</time>
      </trkpt>
      <trkpt lat="42.68513" lon="23.71889">
        <ele>650.019737</ele>
        <time>2022-03-08T13:12:47.765Z</time>
      </trkpt>
      <trkpt lat="42.68514" lon="23.71876">
        <ele>649.916916</ele>
        <time>2022-03-08T13:12:50.784Z</time>
      </trkpt>
      <trkpt lat="42.68516" lon="23.71863">
        <ele>649.812332</ele>
        <time>2022-03-08T13:12:53.774Z</time>
      </trkpt>
      <trkpt lat="42.68517" lon="23.71849">
        <ele>649.7031</ele>
        <time>2022-03-08T13:12:56.808Z</time>
      </trkpt>
      <trkpt lat="42.68519" lon="23.71833">
        <ele>649.574218</ele>
        <time>2022-03-08T13:12:59.796Z</time>
      </trkpt>
      <trkpt lat="42.68522" lon="23.71816">
        <ele>649.445009</ele>
        <time>2022-03-08T13:13:02.783Z</time>
      </trkpt>
      <trkpt lat="42.68525" lon="23.71799">
        <ele>649.23574</ele>
        <time>2022-03-08T13:13:05.795Z</time>
      </trkpt>
      <trkpt lat="42.68527" lon="23.71782">
        <ele>648.875701</ele>
        <time>2022-03-08T13:13:08.791Z</time>
      </trkpt>
      <trkpt lat="42.68529" lon="23.7177">
        <ele>648.623145</ele>
        <time>2022-03-08T13:13:10.779Z</time>
      </trkpt>
      <trkpt lat="42.68531" lon="23.71752">
        <ele>648.250509</ele>
        <time>2022-03-08T13:13:13.776Z</time>
      </trkpt>
      <trkpt lat="42.68534" lon="23.71734">
        <ele>647.869315</ele>
        <time>2022-03-08T13:13:16.791Z</time>
      </trkpt>
      <trkpt lat="42.68536" lon="23.71722">
        <ele>647.608151</ele>
        <time>2022-03-08T13:13:18.820Z</time>
      </trkpt>
      <trkpt lat="42.68538" lon="23.71708">
        <ele>647.331511</ele>
        <time>2022-03-08T13:13:20.778Z</time>
      </trkpt>
      <trkpt lat="42.68539" lon="23.71696">
        <ele>647.060783</ele>
        <time>2022-03-08T13:13:22.769Z</time>
      </trkpt>
      <trkpt lat="42.68541" lon="23.71683">
        <ele>646.797018</ele>
        <time>2022-03-08T13:13:24.790Z</time>
      </trkpt>
      <trkpt lat="42.68543" lon="23.7167">
        <ele>646.531345</ele>
        <time>2022-03-08T13:13:26.789Z</time>
      </trkpt>
      <trkpt lat="42.68545" lon="23.71657">
        <ele>646.252511</ele>
        <time>2022-03-08T13:13:28.783Z</time>
      </trkpt>
      <trkpt lat="42.68547" lon="23.71644">
        <ele>645.972806</ele>
        <time>2022-03-08T13:13:30.793Z</time>
      </trkpt>
      <trkpt lat="42.68549" lon="23.71631">
        <ele>645.691723</ele>
        <time>2022-03-08T13:13:32.784Z</time>
      </trkpt>
      <trkpt lat="42.68551" lon="23.71617">
        <ele>645.409227</ele>
        <time>2022-03-08T13:13:34.819Z</time>
      </trkpt>
      <trkpt lat="42.68553" lon="23.71604">
        <ele>645.128855</ele>
        <time>2022-03-08T13:13:36.796Z</time>
      </trkpt>
      <trkpt lat="42.68555" lon="23.7159">
        <ele>644.847144</ele>
        <time>2022-03-08T13:13:38.794Z</time>
      </trkpt>
      <trkpt lat="42.68558" lon="23.71577">
        <ele>644.565379</ele>
        <time>2022-03-08T13:13:40.798Z</time>
      </trkpt>
      <trkpt lat="42.68561" lon="23.71564">
        <ele>644.299887</ele>
        <time>2022-03-08T13:13:42.785Z</time>
      </trkpt>
      <trkpt lat="42.68563" lon="23.71551">
        <ele>644.207003</ele>
        <time>2022-03-08T13:13:44.792Z</time>
      </trkpt>
      <trkpt lat="42.68566" lon="23.71539">
        <ele>644.119906</ele>
        <time>2022-03-08T13:13:46.786Z</time>
      </trkpt>
      <trkpt lat="42.68569" lon="23.71527">
        <ele>644.030684</ele>
        <time>2022-03-08T13:13:48.795Z</time>
      </trkpt>
      <trkpt lat="42.68572" lon="23.71514">
        <ele>643.94174</ele>
        <time>2022-03-08T13:13:50.795Z</time>
      </trkpt>
      <trkpt lat="42.68575" lon="23.71502">
        <ele>643.85163</ele>
        <time>2022-03-08T13:13:52.801Z</time>
      </trkpt>
      <trkpt lat="42.68578" lon="23.7149">
        <ele>643.759578</ele>
        <time>2022-03-08T13:13:54.792Z</time>
      </trkpt>
      <trkpt lat="42.68583" lon="23.71477">
        <ele>643.664471</ele>
        <time>2022-03-08T13:13:56.790Z</time>
      </trkpt>
      <trkpt lat="42.68587" lon="23.71464">
        <ele>643.569651</ele>
        <time>2022-03-08T13:13:58.778Z</time>
      </trkpt>
      <trkpt lat="42.68592" lon="23.71452">
        <ele>643.474475</ele>
        <time>2022-03-08T13:14:00.794Z</time>
      </trkpt>
      <trkpt lat="42.68597" lon="23.71441">
        <ele>643.381549</ele>
        <time>2022-03-08T13:14:02.806Z</time>
      </trkpt>
      <trkpt lat="42.68602" lon="23.71429">
        <ele>643.289079</ele>
        <time>2022-03-08T13:14:04.787Z</time>
      </trkpt>
      <trkpt lat="42.68607" lon="23.71417">
        <ele>643.197207</ele>
        <time>2022-03-08T13:14:06.800Z</time>
      </trkpt>
      <trkpt lat="42.68612" lon="23.71406">
        <ele>643.105299</ele>
        <time>2022-03-08T13:14:08.790Z</time>
      </trkpt>
      <trkpt lat="42.68618" lon="23.71396">
        <ele>643.016304</ele>
        <time>2022-03-08T13:14:10.788Z</time>
      </trkpt>
      <trkpt lat="42.68623" lon="23.71386">
        <ele>642.931735</ele>
        <time>2022-03-08T13:14:12.792Z</time>
      </trkpt>
      <trkpt lat="42.68629" lon="23.71376">
        <ele>642.844932</ele>
        <time>2022-03-08T13:14:14.800Z</time>
      </trkpt>
      <trkpt lat="42.68635" lon="23.71366">
        <ele>642.758708</ele>
        <time>2022-03-08T13:14:16.790Z</time>
      </trkpt>
      <trkpt lat="42.68641" lon="23.71356">
        <ele>642.672974</ele>
        <time>2022-03-08T13:14:18.781Z</time>
      </trkpt>
      <trkpt lat="42.68646" lon="23.71346">
        <ele>642.622088</ele>
        <time>2022-03-08T13:14:20.775Z</time>
      </trkpt>
      <trkpt lat="42.68653" lon="23.71331">
        <ele>642.609236</ele>
        <time>2022-03-08T13:14:23.807Z</time>
      </trkpt>
      <trkpt lat="42.68658" lon="23.7132">
        <ele>642.600463</ele>
        <time>2022-03-08T13:14:25.789Z</time>
      </trkpt>
      <trkpt lat="42.68663" lon="23.7131">
        <ele>642.591399</ele>
        <time>2022-03-08T13:14:27.782Z</time>
      </trkpt>
      <trkpt lat="42.68669" lon="23.71299">
        <ele>642.582236</ele>
        <time>2022-03-08T13:14:29.792Z</time>
      </trkpt>
      <trkpt lat="42.68675" lon="23.71289">
        <ele>642.572541</ele>
        <time>2022-03-08T13:14:31.796Z</time>
      </trkpt>
      <trkpt lat="42.68681" lon="23.71278">
        <ele>642.562633</ele>
        <time>2022-03-08T13:14:33.789Z</time>
      </trkpt>
      <trkpt lat="42.68687" lon="23.71266">
        <ele>642.553</ele>
        <time>2022-03-08T13:14:35.827Z</time>
      </trkpt>
      <trkpt lat="42.68693" lon="23.71255">
        <ele>642.543265</ele>
        <time>2022-03-08T13:14:37.782Z</time>
      </trkpt>
      <trkpt lat="42.68699" lon="23.71244">
        <ele>642.533122</ele>
        <time>2022-03-08T13:14:39.792Z</time>
      </trkpt>
      <trkpt lat="42.68705" lon="23.71233">
        <ele>642.523615</ele>
        <time>2022-03-08T13:14:41.789Z</time>
      </trkpt>
      <trkpt lat="42.68711" lon="23.71222">
        <ele>642.514278</ele>
        <time>2022-03-08T13:14:43.779Z</time>
      </trkpt>
      <trkpt lat="42.68716" lon="23.71212">
        <ele>642.505167</ele>
        <time>2022-03-08T13:14:45.780Z</time>
      </trkpt>
      <trkpt lat="42.68721" lon="23.71201">
        <ele>642.496114</ele>
        <time>2022-03-08T13:14:47.785Z</time>
      </trkpt>
      <trkpt lat="42.68727" lon="23.71191">
        <ele>642.487006</ele>
        <time>2022-03-08T13:14:49.773Z</time>
      </trkpt>
      <trkpt lat="42.68733" lon="23.71181">
        <ele>642.477825</ele>
        <time>2022-03-08T13:14:51.828Z</time>
      </trkpt>
      <trkpt lat="42.68739" lon="23.71172">
        <ele>642.468739</ele>
        <time>2022-03-08T13:14:53.783Z</time>
      </trkpt>
      <trkpt lat="42.68746" lon="23.71162">
        <ele>642.459422</ele>
        <time>2022-03-08T13:14:55.788Z</time>
      </trkpt>
      <trkpt lat="42.68752" lon="23.71152">
        <ele>642.437806</ele>
        <time>2022-03-08T13:14:57.819Z</time>
      </trkpt>
      <trkpt lat="42.68759" lon="23.71143">
        <ele>642.379717</ele>
        <time>2022-03-08T13:14:59.805Z</time>
      </trkpt>
      <trkpt lat="42.68766" lon="23.71133">
        <ele>642.318959</ele>
        <time>2022-03-08T13:15:01.793Z</time>
      </trkpt>
      <trkpt lat="42.68773" lon="23.71123">
        <ele>642.25803</ele>
        <time>2022-03-08T13:15:03.787Z</time>
      </trkpt>
      <trkpt lat="42.68779" lon="23.71113">
        <ele>642.200441</ele>
        <time>2022-03-08T13:15:05.777Z</time>
      </trkpt>
      <trkpt lat="42.68786" lon="23.71103">
        <ele>642.143176</ele>
        <time>2022-03-08T13:15:07.785Z</time>
      </trkpt>
      <trkpt lat="42.68793" lon="23.71094">
        <ele>642.08561</ele>
        <time>2022-03-08T13:15:09.796Z</time>
      </trkpt>
      <trkpt lat="42.68799" lon="23.71085">
        <ele>642.028345</ele>
        <time>2022-03-08T13:15:11.783Z</time>
      </trkpt>
      <trkpt lat="42.68805" lon="23.71074">
        <ele>641.969264</ele>
        <time>2022-03-08T13:15:13.768Z</time>
      </trkpt>
      <trkpt lat="42.68812" lon="23.71065">
        <ele>641.910534</ele>
        <time>2022-03-08T13:15:15.884Z</time>
      </trkpt>
      <trkpt lat="42.68818" lon="23.71055">
        <ele>641.853023</ele>
        <time>2022-03-08T13:15:17.786Z</time>
      </trkpt>
      <trkpt lat="42.68825" lon="23.71046">
        <ele>641.795457</ele>
        <time>2022-03-08T13:15:19.804Z</time>
      </trkpt>
      <trkpt lat="42.68833" lon="23.71037">
        <ele>641.733308</ele>
        <time>2022-03-08T13:15:21.775Z</time>
      </trkpt>
      <trkpt lat="42.68842" lon="23.7103">
        <ele>641.672253</ele>
        <time>2022-03-08T13:15:23.783Z</time>
      </trkpt>
      <trkpt lat="42.6885" lon="23.71023">
        <ele>641.613623</ele>
        <time>2022-03-08T13:15:25.775Z</time>
      </trkpt>
      <trkpt lat="42.6886" lon="23.71018">
        <ele>641.554477</ele>
        <time>2022-03-08T13:15:27.772Z</time>
      </trkpt>
      <trkpt lat="42.68869" lon="23.71014">
        <ele>641.493528</ele>
        <time>2022-03-08T13:15:29.795Z</time>
      </trkpt>
      <trkpt lat="42.68879" lon="23.71009">
        <ele>641.432011</ele>
        <time>2022-03-08T13:15:31.779Z</time>
      </trkpt>
      <trkpt lat="42.68889" lon="23.71005">
        <ele>641.369496</ele>
        <time>2022-03-08T13:15:33.775Z</time>
      </trkpt>
      <trkpt lat="42.68899" lon="23.71">
        <ele>641.30887</ele>
        <time>2022-03-08T13:15:35.797Z</time>
      </trkpt>
      <trkpt lat="42.68909" lon="23.70997">
        <ele>641.249561</ele>
        <time>2022-03-08T13:15:37.795Z</time>
      </trkpt>
      <trkpt lat="42.68919" lon="23.70993">
        <ele>641.192346</ele>
        <time>2022-03-08T13:15:39.780Z</time>
      </trkpt>
      <trkpt lat="42.68929" lon="23.70989">
        <ele>641.131869</ele>
        <time>2022-03-08T13:15:41.809Z</time>
      </trkpt>
      <trkpt lat="42.68939" lon="23.70983">
        <ele>641.070116</ele>
        <time>2022-03-08T13:15:43.798Z</time>
      </trkpt>
      <trkpt lat="42.68948" lon="23.70979">
        <ele>641.012874</ele>
        <time>2022-03-08T13:15:45.774Z</time>
      </trkpt>
      <trkpt lat="42.68958" lon="23.70974">
        <ele>640.952531</ele>
        <time>2022-03-08T13:15:47.771Z</time>
      </trkpt>
      <trkpt lat="42.68969" lon="23.70969">
        <ele>640.891226</ele>
        <time>2022-03-08T13:15:49.854Z</time>
      </trkpt>
      <trkpt lat="42.68979" lon="23.70963">
        <ele>640.829003</ele>
        <time>2022-03-08T13:15:51.790Z</time>
      </trkpt>
      <trkpt lat="42.68988" lon="23.70958">
        <ele>640.773204</ele>
        <time>2022-03-08T13:15:53.790Z</time>
      </trkpt>
      <trkpt lat="42.68997" lon="23.70953">
        <ele>640.71607</ele>
        <time>2022-03-08T13:15:55.788Z</time>
      </trkpt>
      <trkpt lat="42.69007" lon="23.70948">
        <ele>640.65651</ele>
        <time>2022-03-08T13:15:57.777Z</time>
      </trkpt>
      <trkpt lat="42.69016" lon="23.70942">
        <ele>640.599494</ele>
        <time>2022-03-08T13:15:59.800Z</time>
      </trkpt>
      <trkpt lat="42.69025" lon="23.70937">
        <ele>640.54214</ele>
        <time>2022-03-08T13:16:01.825Z</time>
      </trkpt>
      <trkpt lat="42.69034" lon="23.70931">
        <ele>640.484096</ele>
        <time>2022-03-08T13:16:03.786Z</time>
      </trkpt>
      <trkpt lat="42.69044" lon="23.70926">
        <ele>640.424983</ele>
        <time>2022-03-08T13:16:05.772Z</time>
      </trkpt>
      <trkpt lat="42.69053" lon="23.7092">
        <ele>640.36846</ele>
        <time>2022-03-08T13:16:07.783Z</time>
      </trkpt>
      <trkpt lat="42.69062" lon="23.70913">
        <ele>640.218852</ele>
        <time>2022-03-08T13:16:09.790Z</time>
      </trkpt>
      <trkpt lat="42.69071" lon="23.70906">
        <ele>640.021785</ele>
        <time>2022-03-08T13:16:11.793Z</time>
      </trkpt>
      <trkpt lat="42.6908" lon="23.70897">
        <ele>639.816243</ele>
        <time>2022-03-08T13:16:13.783Z</time>
      </trkpt>
      <trkpt lat="42.69088" lon="23.70888">
        <ele>639.605481</ele>
        <time>2022-03-08T13:16:15.771Z</time>
      </trkpt>
      <trkpt lat="42.69097" lon="23.70878">
        <ele>639.394694</ele>
        <time>2022-03-08T13:16:17.792Z</time>
      </trkpt>
      <trkpt lat="42.69105" lon="23.70869">
        <ele>639.19713</ele>
        <time>2022-03-08T13:16:19.803Z</time>
      </trkpt>
      <trkpt lat="42.69112" lon="23.70859">
        <ele>638.993771</ele>
        <time>2022-03-08T13:16:21.780Z</time>
      </trkpt>
      <trkpt lat="42.6912" lon="23.70849">
        <ele>638.790571</ele>
        <time>2022-03-08T13:16:23.779Z</time>
      </trkpt>
      <trkpt lat="42.69129" lon="23.7084">
        <ele>638.583892</ele>
        <time>2022-03-08T13:16:25.788Z</time>
      </trkpt>
      <trkpt lat="42.69136" lon="23.70832">
        <ele>638.40281</ele>
        <time>2022-03-08T13:16:27.766Z</time>
      </trkpt>
      <trkpt lat="42.69143" lon="23.70823">
        <ele>638.220305</ele>
        <time>2022-03-08T13:16:29.788Z</time>
      </trkpt>
      <trkpt lat="42.69149" lon="23.70813">
        <ele>638.036259</ele>
        <time>2022-03-08T13:16:31.798Z</time>
      </trkpt>
      <trkpt lat="42.69157" lon="23.70804">
        <ele>637.844831</ele>
        <time>2022-03-08T13:16:33.770Z</time>
      </trkpt>
      <trkpt lat="42.69164" lon="23.70795">
        <ele>637.656686</ele>
        <time>2022-03-08T13:16:35.805Z</time>
      </trkpt>
      <trkpt lat="42.69171" lon="23.70786">
        <ele>637.473222</ele>
        <time>2022-03-08T13:16:37.789Z</time>
      </trkpt>
      <trkpt lat="42.69178" lon="23.70778">
        <ele>637.298504</ele>
        <time>2022-03-08T13:16:39.782Z</time>
      </trkpt>
      <trkpt lat="42.69188" lon="23.70767">
        <ele>637.053418</ele>
        <time>2022-03-08T13:16:42.773Z</time>
      </trkpt>
      <trkpt lat="42.69195" lon="23.70758">
        <ele>636.902817</ele>
        <time>2022-03-08T13:16:44.788Z</time>
      </trkpt>
      <trkpt lat="42.69202" lon="23.70748">
        <ele>636.816767</ele>
        <time>2022-03-08T13:16:46.788Z</time>
      </trkpt>
      <trkpt lat="42.69208" lon="23.70738">
        <ele>636.731413</ele>
        <time>2022-03-08T13:16:48.782Z</time>
      </trkpt>
      <trkpt lat="42.69215" lon="23.70728">
        <ele>636.646378</ele>
        <time>2022-03-08T13:16:50.857Z</time>
      </trkpt>
      <trkpt lat="42.69221" lon="23.70718">
        <ele>636.56593</ele>
        <time>2022-03-08T13:16:52.783Z</time>
      </trkpt>
      <trkpt lat="42.69226" lon="23.70707">
        <ele>636.484541</ele>
        <time>2022-03-08T13:16:54.769Z</time>
      </trkpt>
      <trkpt lat="42.69232" lon="23.70696">
        <ele>636.400617</ele>
        <time>2022-03-08T13:16:56.776Z</time>
      </trkpt>
      <trkpt lat="42.69238" lon="23.70685">
        <ele>636.316703</ele>
        <time>2022-03-08T13:16:58.784Z</time>
      </trkpt>
      <trkpt lat="42.69244" lon="23.70674">
        <ele>636.228239</ele>
        <time>2022-03-08T13:17:00.788Z</time>
      </trkpt>
      <trkpt lat="42.6925" lon="23.70662">
        <ele>636.13775</ele>
        <time>2022-03-08T13:17:02.827Z</time>
      </trkpt>
      <trkpt lat="42.69257" lon="23.70651">
        <ele>636.048253</ele>
        <time>2022-03-08T13:17:04.800Z</time>
      </trkpt>
      <trkpt lat="42.69263" lon="23.7064">
        <ele>635.957737</ele>
        <time>2022-03-08T13:17:06.772Z</time>
      </trkpt>
      <trkpt lat="42.6927" lon="23.70628">
        <ele>635.864211</ele>
        <time>2022-03-08T13:17:08.790Z</time>
      </trkpt>
      <trkpt lat="42.69277" lon="23.70616">
        <ele>635.767637</ele>
        <time>2022-03-08T13:17:10.776Z</time>
      </trkpt>
      <trkpt lat="42.69283" lon="23.70603">
        <ele>635.674069</ele>
        <time>2022-03-08T13:17:12.773Z</time>
      </trkpt>
      <trkpt lat="42.69289" lon="23.70591">
        <ele>635.578519</ele>
        <time>2022-03-08T13:17:14.804Z</time>
      </trkpt>
      <trkpt lat="42.69296" lon="23.70578">
        <ele>635.480954</ele>
        <time>2022-03-08T13:17:16.819Z</time>
      </trkpt>
      <trkpt lat="42.69302" lon="23.70566">
        <ele>635.387903</ele>
        <time>2022-03-08T13:17:18.812Z</time>
      </trkpt>
      <trkpt lat="42.69309" lon="23.70554">
        <ele>635.253812</ele>
        <time>2022-03-08T13:17:20.801Z</time>
      </trkpt>
      <trkpt lat="42.69316" lon="23.70543">
        <ele>635.115556</ele>
        <time>2022-03-08T13:17:22.844Z</time>
      </trkpt>
      <trkpt lat="42.69323" lon="23.70532">
        <ele>634.978688</ele>
        <time>2022-03-08T13:17:24.783Z</time>
      </trkpt>
      <trkpt lat="42.69332" lon="23.70522">
        <ele>634.839643</ele>
        <time>2022-03-08T13:17:26.784Z</time>
      </trkpt>
      <trkpt lat="42.69339" lon="23.70512">
        <ele>634.707085</ele>
        <time>2022-03-08T13:17:28.766Z</time>
      </trkpt>
      <trkpt lat="42.69348" lon="23.70503">
        <ele>634.573279</ele>
        <time>2022-03-08T13:17:30.778Z</time>
      </trkpt>
      <trkpt lat="42.69356" lon="23.70494">
        <ele>634.445288</ele>
        <time>2022-03-08T13:17:32.788Z</time>
      </trkpt>
      <trkpt lat="42.69364" lon="23.70486">
        <ele>634.31783</ele>
        <time>2022-03-08T13:17:34.789Z</time>
      </trkpt>
      <trkpt lat="42.69372" lon="23.70477">
        <ele>634.185576</ele>
        <time>2022-03-08T13:17:36.782Z</time>
      </trkpt>
      <trkpt lat="42.6938" lon="23.70469">
        <ele>634.063037</ele>
        <time>2022-03-08T13:17:38.796Z</time>
      </trkpt>
      <trkpt lat="42.69387" lon="23.70459">
        <ele>633.937252</ele>
        <time>2022-03-08T13:17:40.815Z</time>
      </trkpt>
      <trkpt lat="42.69394" lon="23.70448">
        <ele>633.802452</ele>
        <time>2022-03-08T13:17:42.788Z</time>
      </trkpt>
      <trkpt lat="42.69401" lon="23.70437">
        <ele>633.666614</ele>
        <time>2022-03-08T13:17:44.791Z</time>
      </trkpt>
      <trkpt lat="42.69407" lon="23.70426">
        <ele>633.536166</ele>
        <time>2022-03-08T13:17:46.783Z</time>
      </trkpt>
      <trkpt lat="42.69413" lon="23.70413">
        <ele>633.39822</ele>
        <time>2022-03-08T13:17:48.786Z</time>
      </trkpt>
      <trkpt lat="42.6942" lon="23.70401">
        <ele>633.25885</ele>
        <time>2022-03-08T13:17:50.786Z</time>
      </trkpt>
      <trkpt lat="42.69426" lon="23.70387">
        <ele>633.070026</ele>
        <time>2022-03-08T13:17:52.789Z</time>
      </trkpt>
      <trkpt lat="42.69433" lon="23.70374">
        <ele>632.7217</ele>
        <time>2022-03-08T13:17:54.771Z</time>
      </trkpt>
      <trkpt lat="42.6944" lon="23.70361">
        <ele>632.380331</ele>
        <time>2022-03-08T13:17:56.785Z</time>
      </trkpt>
      <trkpt lat="42.69448" lon="23.70349">
        <ele>632.033626</ele>
        <time>2022-03-08T13:17:58.779Z</time>
      </trkpt>
      <trkpt lat="42.69455" lon="23.70336">
        <ele>631.697301</ele>
        <time>2022-03-08T13:18:00.786Z</time>
      </trkpt>
      <trkpt lat="42.69462" lon="23.70324">
        <ele>631.348786</ele>
        <time>2022-03-08T13:18:02.813Z</time>
      </trkpt>
      <trkpt lat="42.69469" lon="23.70311">
        <ele>631.010788</ele>
        <time>2022-03-08T13:18:04.798Z</time>
      </trkpt>
      <trkpt lat="42.69474" lon="23.70298">
        <ele>630.693801</ele>
        <time>2022-03-08T13:18:06.789Z</time>
      </trkpt>
      <trkpt lat="42.69479" lon="23.70286">
        <ele>630.395689</ele>
        <time>2022-03-08T13:18:08.787Z</time>
      </trkpt>
      <trkpt lat="42.69484" lon="23.7027">
        <ele>630.030029</ele>
        <time>2022-03-08T13:18:10.794Z</time>
      </trkpt>
      <trkpt lat="42.69489" lon="23.70255">
        <ele>629.674273</ele>
        <time>2022-03-08T13:18:12.778Z</time>
      </trkpt>
      <trkpt lat="42.69494" lon="23.70239">
        <ele>629.313004</ele>
        <time>2022-03-08T13:18:14.784Z</time>
      </trkpt>
      <trkpt lat="42.69499" lon="23.70224">
        <ele>628.947333</ele>
        <time>2022-03-08T13:18:16.786Z</time>
      </trkpt>
      <trkpt lat="42.69504" lon="23.70209">
        <ele>628.591857</ele>
        <time>2022-03-08T13:18:18.773Z</time>
      </trkpt>
      <trkpt lat="42.69509" lon="23.70194">
        <ele>628.232547</ele>
        <time>2022-03-08T13:18:20.772Z</time>
      </trkpt>
      <trkpt lat="42.69515" lon="23.70179">
        <ele>627.873244</ele>
        <time>2022-03-08T13:18:22.779Z</time>
      </trkpt>
      <trkpt lat="42.69522" lon="23.70165">
        <ele>627.648348</ele>
        <time>2022-03-08T13:18:24.784Z</time>
      </trkpt>
      <trkpt lat="42.69531" lon="23.70151">
        <ele>627.418815</ele>
        <time>2022-03-08T13:18:26.799Z</time>
      </trkpt>
      <trkpt lat="42.69541" lon="23.70138">
        <ele>627.18422</ele>
        <time>2022-03-08T13:18:28.772Z</time>
      </trkpt>
      <trkpt lat="42.69551" lon="23.70126">
        <ele>626.948834</ele>
        <time>2022-03-08T13:18:30.827Z</time>
      </trkpt>
      <trkpt lat="42.69561" lon="23.70113">
        <ele>626.712475</ele>
        <time>2022-03-08T13:18:32.779Z</time>
      </trkpt>
      <trkpt lat="42.6957" lon="23.70101">
        <ele>626.495057</ele>
        <time>2022-03-08T13:18:34.785Z</time>
      </trkpt>
      <trkpt lat="42.69579" lon="23.7009">
        <ele>626.275854</ele>
        <time>2022-03-08T13:18:36.788Z</time>
      </trkpt>
      <trkpt lat="42.69589" lon="23.70078">
        <ele>626.052022</ele>
        <time>2022-03-08T13:18:38.782Z</time>
      </trkpt>
      <trkpt lat="42.69598" lon="23.70066">
        <ele>625.832705</ele>
        <time>2022-03-08T13:18:40.776Z</time>
      </trkpt>
      <trkpt lat="42.69606" lon="23.70054">
        <ele>625.617145</ele>
        <time>2022-03-08T13:18:42.769Z</time>
      </trkpt>
      <trkpt lat="42.69614" lon="23.7004">
        <ele>625.397374</ele>
        <time>2022-03-08T13:18:44.796Z</time>
      </trkpt>
      <trkpt lat="42.69621" lon="23.70026">
        <ele>625.177596</ele>
        <time>2022-03-08T13:18:46.791Z</time>
      </trkpt>
      <trkpt lat="42.69628" lon="23.70011">
        <ele>624.959395</ele>
        <time>2022-03-08T13:18:48.803Z</time>
      </trkpt>
      <trkpt lat="42.69635" lon="23.69997">
        <ele>624.740731</ele>
        <time>2022-03-08T13:18:50.784Z</time>
      </trkpt>
      <trkpt lat="42.69642" lon="23.69982">
        <ele>624.527877</ele>
        <time>2022-03-08T13:18:52.827Z</time>
      </trkpt>
      <trkpt lat="42.69648" lon="23.69968">
        <ele>624.316053</ele>
        <time>2022-03-08T13:18:54.788Z</time>
      </trkpt>
      <trkpt lat="42.69655" lon="23.69954">
        <ele>624.116841</ele>
        <time>2022-03-08T13:18:56.792Z</time>
      </trkpt>
      <trkpt lat="42.69661" lon="23.69941">
        <ele>623.929638</ele>
        <time>2022-03-08T13:18:58.793Z</time>
      </trkpt>
      <trkpt lat="42.69666" lon="23.69928">
        <ele>623.747161</ele>
        <time>2022-03-08T13:19:00.771Z</time>
      </trkpt>
      <trkpt lat="42.69672" lon="23.69915">
        <ele>623.560481</ele>
        <time>2022-03-08T13:19:02.779Z</time>
      </trkpt>
      <trkpt lat="42.69677" lon="23.69902">
        <ele>623.379471</ele>
        <time>2022-03-08T13:19:04.784Z</time>
      </trkpt>
      <trkpt lat="42.69682" lon="23.69888">
        <ele>623.187106</ele>
        <time>2022-03-08T13:19:06.798Z</time>
      </trkpt>
      <trkpt lat="42.69687" lon="23.69873">
        <ele>622.992316</ele>
        <time>2022-03-08T13:19:08.879Z</time>
      </trkpt>
      <trkpt lat="42.69691" lon="23.69858">
        <ele>622.794335</ele>
        <time>2022-03-08T13:19:10.786Z</time>
      </trkpt>
      <trkpt lat="42.69695" lon="23.69842">
        <ele>622.581971</ele>
        <time>2022-03-08T13:19:12.793Z</time>
      </trkpt>
      <trkpt lat="42.69699" lon="23.69825">
        <ele>622.36955</ele>
        <time>2022-03-08T13:19:14.788Z</time>
      </trkpt>
      <trkpt lat="42.69704" lon="23.6981">
        <ele>622.164095</ele>
        <time>2022-03-08T13:19:16.783Z</time>
      </trkpt>
      <trkpt lat="42.69708" lon="23.69795">
        <ele>621.970084</ele>
        <time>2022-03-08T13:19:18.796Z</time>
      </trkpt>
      <trkpt lat="42.69711" lon="23.6978">
        <ele>621.774287</ele>
        <time>2022-03-08T13:19:20.779Z</time>
      </trkpt>
      <trkpt lat="42.69714" lon="23.69765">
        <ele>621.273331</ele>
        <time>2022-03-08T13:19:22.785Z</time>
      </trkpt>
      <trkpt lat="42.69717" lon="23.69751">
        <ele>620.788077</ele>
        <time>2022-03-08T13:19:24.790Z</time>
      </trkpt>
      <trkpt lat="42.69718" lon="23.69737">
        <ele>620.312706</ele>
        <time>2022-03-08T13:19:26.795Z</time>
      </trkpt>
      <trkpt lat="42.69718" lon="23.69723">
        <ele>619.819803</ele>
        <time>2022-03-08T13:19:28.794Z</time>
      </trkpt>
      <trkpt lat="42.69718" lon="23.69708">
        <ele>619.309787</ele>
        <time>2022-03-08T13:19:30.836Z</time>
      </trkpt>
      <trkpt lat="42.69719" lon="23.69693">
        <ele>618.783981</ele>
        <time>2022-03-08T13:19:32.786Z</time>
      </trkpt>
      <trkpt lat="42.69722" lon="23.69678">
        <ele>618.259049</ele>
        <time>2022-03-08T13:19:34.793Z</time>
      </trkpt>
      <trkpt lat="42.69727" lon="23.69664">
        <ele>617.700954</ele>
        <time>2022-03-08T13:19:36.791Z</time>
      </trkpt>
      <trkpt lat="42.69733" lon="23.69649">
        <ele>617.119139</ele>
        <time>2022-03-08T13:19:38.799Z</time>
      </trkpt>
      <trkpt lat="42.6974" lon="23.69634">
        <ele>616.524518</ele>
        <time>2022-03-08T13:19:40.775Z</time>
      </trkpt>
      <trkpt lat="42.69746" lon="23.69619">
        <ele>615.932249</ele>
        <time>2022-03-08T13:19:42.786Z</time>
      </trkpt>
      <trkpt lat="42.69752" lon="23.69603">
        <ele>615.317383</ele>
        <time>2022-03-08T13:19:44.773Z</time>
      </trkpt>
      <trkpt lat="42.69759" lon="23.69587">
        <ele>614.678889</ele>
        <time>2022-03-08T13:19:46.798Z</time>
      </trkpt>
      <trkpt lat="42.69765" lon="23.69571">
        <ele>614.055715</ele>
        <time>2022-03-08T13:19:48.799Z</time>
      </trkpt>
      <trkpt lat="42.69771" lon="23.69556">
        <ele>613.456435</ele>
        <time>2022-03-08T13:19:50.787Z</time>
      </trkpt>
      <trkpt lat="42.69776" lon="23.69541">
        <ele>613.008235</ele>
        <time>2022-03-08T13:19:52.809Z</time>
      </trkpt>
      <trkpt lat="42.69781" lon="23.69525">
        <ele>612.603171</ele>
        <time>2022-03-08T13:19:54.799Z</time>
      </trkpt>
      <trkpt lat="42.69786" lon="23.6951">
        <ele>612.193196</ele>
        <time>2022-03-08T13:19:56.792Z</time>
      </trkpt>
      <trkpt lat="42.69791" lon="23.69495">
        <ele>611.785692</ele>
        <time>2022-03-08T13:19:58.835Z</time>
      </trkpt>
      <trkpt lat="42.69796" lon="23.69479">
        <ele>611.373168</ele>
        <time>2022-03-08T13:20:00.786Z</time>
      </trkpt>
      <trkpt lat="42.69801" lon="23.69464">
        <ele>610.975728</ele>
        <time>2022-03-08T13:20:02.789Z</time>
      </trkpt>
      <trkpt lat="42.69805" lon="23.69451">
        <ele>610.611281</ele>
        <time>2022-03-08T13:20:04.783Z</time>
      </trkpt>
      <trkpt lat="42.69808" lon="23.69438">
        <ele>610.292984</ele>
        <time>2022-03-08T13:20:06.799Z</time>
      </trkpt>
      <trkpt lat="42.69812" lon="23.69425">
        <ele>609.925988</ele>
        <time>2022-03-08T13:20:08.785Z</time>
      </trkpt>
      <trkpt lat="42.69817" lon="23.6941">
        <ele>609.533485</ele>
        <time>2022-03-08T13:20:10.810Z</time>
      </trkpt>
      <trkpt lat="42.69822" lon="23.69396">
        <ele>609.162474</ele>
        <time>2022-03-08T13:20:12.805Z</time>
      </trkpt>
      <trkpt lat="42.69826" lon="23.69383">
        <ele>608.79749</ele>
        <time>2022-03-08T13:20:14.821Z</time>
      </trkpt>
      <trkpt lat="42.69831" lon="23.69369">
        <ele>608.438145</ele>
        <time>2022-03-08T13:20:16.824Z</time>
      </trkpt>
      <trkpt lat="42.69836" lon="23.69354">
        <ele>608.035707</ele>
        <time>2022-03-08T13:20:18.804Z</time>
      </trkpt>
      <trkpt lat="42.6984" lon="23.6934">
        <ele>607.654838</ele>
        <time>2022-03-08T13:20:20.762Z</time>
      </trkpt>
      <trkpt lat="42.69844" lon="23.69327">
        <ele>607.33822</ele>
        <time>2022-03-08T13:20:22.773Z</time>
      </trkpt>
      <trkpt lat="42.69849" lon="23.69314">
        <ele>607.416197</ele>
        <time>2022-03-08T13:20:24.794Z</time>
      </trkpt>
      <trkpt lat="42.69853" lon="23.69302">
        <ele>607.493015</ele>
        <time>2022-03-08T13:20:26.815Z</time>
      </trkpt>
      <trkpt lat="42.69858" lon="23.69289">
        <ele>607.57</ele>
        <time>2022-03-08T13:20:28.793Z</time>
      </trkpt>
      <trkpt lat="42.69868" lon="23.69279">
        <ele>607.664921</ele>
        <time>2022-03-08T13:20:31.783Z</time>
      </trkpt>
      <trkpt lat="42.69878" lon="23.69284">
        <ele>607.744559</ele>
        <time>2022-03-08T13:20:34.788Z</time>
      </trkpt>
      <trkpt lat="42.69884" lon="23.69297">
        <ele>607.828301</ele>
        <time>2022-03-08T13:20:37.797Z</time>
      </trkpt>
      <trkpt lat="42.69889" lon="23.6931">
        <ele>607.911446</ele>
        <time>2022-03-08T13:20:40.784Z</time>
      </trkpt>
      <trkpt lat="42.69893" lon="23.69323">
        <ele>607.989423</ele>
        <time>2022-03-08T13:20:43.798Z</time>
      </trkpt>
      <trkpt lat="42.69899" lon="23.69335">
        <ele>608.073239</ele>
        <time>2022-03-08T13:20:46.799Z</time>
      </trkpt>
      <trkpt lat="42.69905" lon="23.69348">
        <ele>608.155243</ele>
        <time>2022-03-08T13:20:49.794Z</time>
      </trkpt>
      <trkpt lat="42.69911" lon="23.69361">
        <ele>608.240728</ele>
        <time>2022-03-08T13:20:52.787Z</time>
      </trkpt>
      <trkpt lat="42.69917" lon="23.69375">
        <ele>608.328258</ele>
        <time>2022-03-08T13:20:55.807Z</time>
      </trkpt>
      <trkpt lat="42.69922" lon="23.69388">
        <ele>608.41478</ele>
        <time>2022-03-08T13:20:58.783Z</time>
      </trkpt>
      <trkpt lat="42.69928" lon="23.69403">
        <ele>608.504097</ele>
        <time>2022-03-08T13:21:01.798Z</time>
      </trkpt>
      <trkpt lat="42.69934" lon="23.69416">
        <ele>608.590199</ele>
        <time>2022-03-08T13:21:04.838Z</time>
      </trkpt>
      <trkpt lat="42.6994" lon="23.69429">
        <ele>608.674194</ele>
        <time>2022-03-08T13:21:07.784Z</time>
      </trkpt>
      <trkpt lat="42.69945" lon="23.69441">
        <ele>609.046168</ele>
        <time>2022-03-08T13:21:10.746Z</time>
      </trkpt>
      <trkpt lat="42.69952" lon="23.69455">
        <ele>609.500437</ele>
        <time>2022-03-08T13:21:13.811Z</time>
      </trkpt>
      <trkpt lat="42.69958" lon="23.69466">
        <ele>609.914979</ele>
        <time>2022-03-08T13:21:16.792Z</time>
      </trkpt>
      <trkpt lat="42.69963" lon="23.69478">
        <ele>610.303976</ele>
        <time>2022-03-08T13:21:19.791Z</time>
      </trkpt>
      <trkpt lat="42.6997" lon="23.69489">
        <ele>610.718253</ele>
        <time>2022-03-08T13:21:22.789Z</time>
      </trkpt>
      <trkpt lat="42.69977" lon="23.69499">
        <ele>611.120729</ele>
        <time>2022-03-08T13:21:25.798Z</time>
      </trkpt>
      <trkpt lat="42.69984" lon="23.69511">
        <ele>611.555205</ele>
        <time>2022-03-08T13:21:28.787Z</time>
      </trkpt>
      <trkpt lat="42.69991" lon="23.69521">
        <ele>611.955044</ele>
        <time>2022-03-08T13:21:31.843Z</time>
      </trkpt>
      <trkpt lat="42.69998" lon="23.69531">
        <ele>612.369681</ele>
        <time>2022-03-08T13:21:34.807Z</time>
      </trkpt>
      <trkpt lat="42.70006" lon="23.69542">
        <ele>612.814163</ele>
        <time>2022-03-08T13:21:37.785Z</time>
      </trkpt>
      <trkpt lat="42.70013" lon="23.69554">
        <ele>613.255182</ele>
        <time>2022-03-08T13:21:40.804Z</time>
      </trkpt>
      <trkpt lat="42.7002" lon="23.69566">
        <ele>613.688212</ele>
        <time>2022-03-08T13:21:43.786Z</time>
      </trkpt>
      <trkpt lat="42.70027" lon="23.69577">
        <ele>614.119173</ele>
        <time>2022-03-08T13:21:46.798Z</time>
      </trkpt>
      <trkpt lat="42.70033" lon="23.69588">
        <ele>614.516395</ele>
        <time>2022-03-08T13:21:49.792Z</time>
      </trkpt>
      <trkpt lat="42.70041" lon="23.69598">
        <ele>614.941487</ele>
        <time>2022-03-08T13:21:52.788Z</time>
      </trkpt>
      <trkpt lat="42.70049" lon="23.69608">
        <ele>615.364582</ele>
        <time>2022-03-08T13:21:55.789Z</time>
      </trkpt>
      <trkpt lat="42.70057" lon="23.69619">
        <ele>615.754849</ele>
        <time>2022-03-08T13:21:58.789Z</time>
      </trkpt>
      <trkpt lat="42.70066" lon="23.6963">
        <ele>615.749283</ele>
        <time>2022-03-08T13:22:01.793Z</time>
      </trkpt>
      <trkpt lat="42.70074" lon="23.69639">
        <ele>615.743903</ele>
        <time>2022-03-08T13:22:04.835Z</time>
      </trkpt>
      <trkpt lat="42.70085" lon="23.69648">
        <ele>615.738215</ele>
        <time>2022-03-08T13:22:07.773Z</time>
      </trkpt>
      <trkpt lat="42.70095" lon="23.69655">
        <ele>615.732525</ele>
        <time>2022-03-08T13:22:10.799Z</time>
      </trkpt>
      <trkpt lat="42.70106" lon="23.6966">
        <ele>615.727048</ele>
        <time>2022-03-08T13:22:13.795Z</time>
      </trkpt>
      <trkpt lat="42.70117" lon="23.69663">
        <ele>615.721978</ele>
        <time>2022-03-08T13:22:16.772Z</time>
      </trkpt>
      <trkpt lat="42.70128" lon="23.69662">
        <ele>615.716598</ele>
        <time>2022-03-08T13:22:19.806Z</time>
      </trkpt>
      <trkpt lat="42.70139" lon="23.6966">
        <ele>615.711169</ele>
        <time>2022-03-08T13:22:22.790Z</time>
      </trkpt>
      <trkpt lat="42.7015" lon="23.69656">
        <ele>615.705716</ele>
        <time>2022-03-08T13:22:25.786Z</time>
      </trkpt>
      <trkpt lat="42.70161" lon="23.6965">
        <ele>615.700289</ele>
        <time>2022-03-08T13:22:28.794Z</time>
      </trkpt>
      <trkpt lat="42.70173" lon="23.69646">
        <ele>615.694551</ele>
        <time>2022-03-08T13:22:31.784Z</time>
      </trkpt>
      <trkpt lat="42.70184" lon="23.69642">
        <ele>615.688943</ele>
        <time>2022-03-08T13:22:34.783Z</time>
      </trkpt>
      <trkpt lat="42.70195" lon="23.69639">
        <ele>615.683439</ele>
        <time>2022-03-08T13:22:37.791Z</time>
      </trkpt>
      <trkpt lat="42.70206" lon="23.69635">
        <ele>615.678136</ele>
        <time>2022-03-08T13:22:40.786Z</time>
      </trkpt>
      <trkpt lat="42.70216" lon="23.69632">
        <ele>615.673266</ele>
        <time>2022-03-08T13:22:43.810Z</time>
      </trkpt>
      <trkpt lat="42.70227" lon="23.69629">
        <ele>615.671017</ele>
        <time>2022-03-08T13:22:46.791Z</time>
      </trkpt>
      <trkpt lat="42.70237" lon="23.69627">
        <ele>615.674369</ele>
        <time>2022-03-08T13:22:49.796Z</time>
      </trkpt>
      <trkpt lat="42.70248" lon="23.69626">
        <ele>615.677864</ele>
        <time>2022-03-08T13:22:52.795Z</time>
      </trkpt>
      <trkpt lat="42.70259" lon="23.69626">
        <ele>615.681542</ele>
        <time>2022-03-08T13:22:55.802Z</time>
      </trkpt>
      <trkpt lat="42.7027" lon="23.69626">
        <ele>615.685057</ele>
        <time>2022-03-08T13:22:58.837Z</time>
      </trkpt>
      <trkpt lat="42.70281" lon="23.69626">
        <ele>615.688572</ele>
        <time>2022-03-08T13:23:01.796Z</time>
      </trkpt>
      <trkpt lat="42.70292" lon="23.69625">
        <ele>615.692216</ele>
        <time>2022-03-08T13:23:04.786Z</time>
      </trkpt>
      <trkpt lat="42.70303" lon="23.69626">
        <ele>615.69564</ele>
        <time>2022-03-08T13:23:07.773Z</time>
      </trkpt>
      <trkpt lat="42.70314" lon="23.69627">
        <ele>615.699189</ele>
        <time>2022-03-08T13:23:10.804Z</time>
      </trkpt>
      <trkpt lat="42.70325" lon="23.69627">
        <ele>615.702673</ele>
        <time>2022-03-08T13:23:13.787Z</time>
      </trkpt>
      <trkpt lat="42.70336" lon="23.69628">
        <ele>615.706324</ele>
        <time>2022-03-08T13:23:16.786Z</time>
      </trkpt>
      <trkpt lat="42.70347" lon="23.69629">
        <ele>615.710036</ele>
        <time>2022-03-08T13:23:19.807Z</time>
      </trkpt>
      <trkpt lat="42.70359" lon="23.69629">
        <ele>615.713682</ele>
        <time>2022-03-08T13:23:22.828Z</time>
      </trkpt>
      <trkpt lat="42.7037" lon="23.6963">
        <ele>615.717361</ele>
        <time>2022-03-08T13:23:25.814Z</time>
      </trkpt>
      <trkpt lat="42.70381" lon="23.69631">
        <ele>615.720883</ele>
        <time>2022-03-08T13:23:28.790Z</time>
      </trkpt>
      <trkpt lat="42.70392" lon="23.6963">
        <ele>615.724431</ele>
        <time>2022-03-08T13:23:31.788Z</time>
      </trkpt>
      <trkpt lat="42.70403" lon="23.6963">
        <ele>615.759845</ele>
        <time>2022-03-08T13:23:34.785Z</time>
      </trkpt>
      <trkpt lat="42.70415" lon="23.69629">
        <ele>616.36721</ele>
        <time>2022-03-08T13:23:37.795Z</time>
      </trkpt>
      <trkpt lat="42.70424" lon="23.69621">
        <ele>616.954778</ele>
        <time>2022-03-08T13:23:40.790Z</time>
      </trkpt>
      <trkpt lat="42.70431" lon="23.69612">
        <ele>617.466848</ele>
        <time>2022-03-08T13:23:43.870Z</time>
      </trkpt>
      <trkpt lat="42.70432" lon="23.69599">
        <ele>617.9668</ele>
        <time>2022-03-08T13:23:48.772Z</time>
      </trkpt>
      <trkpt lat="42.70429" lon="23.69585">
        <ele>618.524245</ele>
        <time>2022-03-08T13:23:54.815Z</time>
      </trkpt>
      <trkpt lat="42.70428" lon="23.6957">
        <ele>619.085783</ele>
        <time>2022-03-08T13:24:00.806Z</time>
      </trkpt>
      <trkpt lat="42.70431" lon="23.69558">
        <ele>619.604786</ele>
        <time>2022-03-08T13:24:06.828Z</time>
      </trkpt>
      <trkpt lat="42.70438" lon="23.69549">
        <ele>620.090054</ele>
        <time>2022-03-08T13:24:12.785Z</time>
      </trkpt>
      <trkpt lat="42.70445" lon="23.69541">
        <ele>620.569712</ele>
        <time>2022-03-08T13:24:17.826Z</time>
      </trkpt>
      <trkpt lat="42.70455" lon="23.69536">
        <ele>621.136512</ele>
        <time>2022-03-08T13:24:23.798Z</time>
      </trkpt>
      <trkpt lat="42.70464" lon="23.69535">
        <ele>621.63289</ele>
        <time>2022-03-08T13:24:29.791Z</time>
      </trkpt>
      <trkpt lat="42.70474" lon="23.69542">
        <ele>622.207728</ele>
        <time>2022-03-08T13:24:36.783Z</time>
      </trkpt>
      <trkpt lat="42.70479" lon="23.69554">
        <ele>622.757557</ele>
        <time>2022-03-08T13:24:40.790Z</time>
      </trkpt>
      <trkpt lat="42.70483" lon="23.69569">
        <ele>623.363122</ele>
        <time>2022-03-08T13:24:44.845Z</time>
      </trkpt>
      <trkpt lat="42.70486" lon="23.69582">
        <ele>623.897531</ele>
        <time>2022-03-08T13:24:47.799Z</time>
      </trkpt>
      <trkpt lat="42.70488" lon="23.69595">
        <ele>624.433323</ele>
        <time>2022-03-08T13:24:50.778Z</time>
      </trkpt>
      <trkpt lat="42.70491" lon="23.69609">
        <ele>624.990327</ele>
        <time>2022-03-08T13:24:53.796Z</time>
      </trkpt>
      <trkpt lat="42.70494" lon="23.69622">
        <ele>625.318543</ele>
        <time>2022-03-08T13:24:56.789Z</time>
      </trkpt>
      <trkpt lat="42.70496" lon="23.69636">
        <ele>625.508807</ele>
        <time>2022-03-08T13:24:59.795Z</time>
      </trkpt>
      <trkpt lat="42.70499" lon="23.69652">
        <ele>625.724319</ele>
        <time>2022-03-08T13:25:02.771Z</time>
      </trkpt>
      <trkpt lat="42.70501" lon="23.69669">
        <ele>625.960956</ele>
        <time>2022-03-08T13:25:05.790Z</time>
      </trkpt>
      <trkpt lat="42.70505" lon="23.69685">
        <ele>626.189218</ele>
        <time>2022-03-08T13:25:08.808Z</time>
      </trkpt>
      <trkpt lat="42.70508" lon="23.69701">
        <ele>626.409285</ele>
        <time>2022-03-08T13:25:11.830Z</time>
      </trkpt>
      <trkpt lat="42.70512" lon="23.69717">
        <ele>626.625511</ele>
        <time>2022-03-08T13:25:14.788Z</time>
      </trkpt>
      <trkpt lat="42.70515" lon="23.69731">
        <ele>626.827884</ele>
        <time>2022-03-08T13:25:17.779Z</time>
      </trkpt>
      <trkpt lat="42.70519" lon="23.69746">
        <ele>627.034616</ele>
        <time>2022-03-08T13:25:20.794Z</time>
      </trkpt>
      <trkpt lat="42.70524" lon="23.6976">
        <ele>627.249624</ele>
        <time>2022-03-08T13:25:23.798Z</time>
      </trkpt>
      <trkpt lat="42.70528" lon="23.69776">
        <ele>627.468154</ele>
        <time>2022-03-08T13:25:26.783Z</time>
      </trkpt>
      <trkpt lat="42.70532" lon="23.69791">
        <ele>627.684253</ele>
        <time>2022-03-08T13:25:29.815Z</time>
      </trkpt>
      <trkpt lat="42.70537" lon="23.69805">
        <ele>627.894705</ele>
        <time>2022-03-08T13:25:32.796Z</time>
      </trkpt>
      <trkpt lat="42.7054" lon="23.69818">
        <ele>628.072113</ele>
        <time>2022-03-08T13:25:35.787Z</time>
      </trkpt>
      <trkpt lat="42.70542" lon="23.69831">
        <ele>628.249722</ele>
        <time>2022-03-08T13:25:38.826Z</time>
      </trkpt>
      <trkpt lat="42.70545" lon="23.69844">
        <ele>628.430978</ele>
        <time>2022-03-08T13:25:41.816Z</time>
      </trkpt>
      <trkpt lat="42.70548" lon="23.69859">
        <ele>628.748603</ele>
        <time>2022-03-08T13:25:45.803Z</time>
      </trkpt>
      <trkpt lat="42.7055" lon="23.69874">
        <ele>629.1023</ele>
        <time>2022-03-08T13:25:49.803Z</time>
      </trkpt>
      <trkpt lat="42.70552" lon="23.69886">
        <ele>629.385275</ele>
        <time>2022-03-08T13:25:52.798Z</time>
      </trkpt>
      <trkpt lat="42.70555" lon="23.69898">
        <ele>629.666594</ele>
        <time>2022-03-08T13:25:55.829Z</time>
      </trkpt>
      <trkpt lat="42.70558" lon="23.69913">
        <ele>630.014061</ele>
        <time>2022-03-08T13:25:59.792Z</time>
      </trkpt>
      <trkpt lat="42.70562" lon="23.69926">
        <ele>630.3251</ele>
        <time>2022-03-08T13:26:03.792Z</time>
      </trkpt>
      <trkpt lat="42.70565" lon="23.69938">
        <ele>630.619158</ele>
        <time>2022-03-08T13:26:07.781Z</time>
      </trkpt>
      <trkpt lat="42.70568" lon="23.69949">
        <ele>630.896163</ele>
        <time>2022-03-08T13:26:11.786Z</time>
      </trkpt>
      <trkpt lat="42.70571" lon="23.69962">
        <ele>631.197879</ele>
        <time>2022-03-08T13:26:16.791Z</time>
      </trkpt>
      <trkpt lat="42.70574" lon="23.69976">
        <ele>631.529604</ele>
        <time>2022-03-08T13:26:22.803Z</time>
      </trkpt>
      <trkpt lat="42.70577" lon="23.69989">
        <ele>631.82699</ele>
        <time>2022-03-08T13:26:27.810Z</time>
      </trkpt>
      <trkpt lat="42.70579" lon="23.70001">
        <ele>632.116392</ele>
        <time>2022-03-08T13:26:32.796Z</time>
      </trkpt>
      <trkpt lat="42.70582" lon="23.70013">
        <ele>632.402981</ele>
        <time>2022-03-08T13:26:37.778Z</time>
      </trkpt>
      <trkpt lat="42.70585" lon="23.70025">
        <ele>632.701311</ele>
        <time>2022-03-08T13:26:43.796Z</time>
      </trkpt>
      <trkpt lat="42.70587" lon="23.70038">
        <ele>632.991543</ele>
        <time>2022-03-08T13:26:49.807Z</time>
      </trkpt>
      <trkpt lat="42.7059" lon="23.70051">
        <ele>633.303774</ele>
        <time>2022-03-08T13:26:55.787Z</time>
      </trkpt>
      <trkpt lat="42.70593" lon="23.70063">
        <ele>633.584907</ele>
        <time>2022-03-08T13:27:01.788Z</time>
      </trkpt>
      <trkpt lat="42.70596" lon="23.70075">
        <ele>633.882061</ele>
        <time>2022-03-08T13:27:07.795Z</time>
      </trkpt>
      <trkpt lat="42.70598" lon="23.70089">
        <ele>634.310054</ele>
        <time>2022-03-08T13:27:13.780Z</time>
      </trkpt>
      <trkpt lat="42.70601" lon="23.70101">
        <ele>634.836261</ele>
        <time>2022-03-08T13:27:19.839Z</time>
      </trkpt>
      <trkpt lat="42.70603" lon="23.70114">
        <ele>635.350973</ele>
        <time>2022-03-08T13:27:25.800Z</time>
      </trkpt>
      <trkpt lat="42.70605" lon="23.70127">
        <ele>635.880022</ele>
        <time>2022-03-08T13:27:32.792Z</time>
      </trkpt>
      <trkpt lat="42.70607" lon="23.70139">
        <ele>636.391747</ele>
        <time>2022-03-08T13:27:38.828Z</time>
      </trkpt>
      <trkpt lat="42.70609" lon="23.70152">
        <ele>636.914008</ele>
        <time>2022-03-08T13:27:45.796Z</time>
      </trkpt>
      <trkpt lat="42.70612" lon="23.70165">
        <ele>637.462418</ele>
        <time>2022-03-08T13:27:52.798Z</time>
      </trkpt>
      <trkpt lat="42.70616" lon="23.70177">
        <ele>637.973254</ele>
        <time>2022-03-08T13:27:58.815Z</time>
      </trkpt>
      <trkpt lat="42.70618" lon="23.70189">
        <ele>638.468168</ele>
        <time>2022-03-08T13:28:04.813Z</time>
      </trkpt>
      <trkpt lat="42.7062" lon="23.70203">
        <ele>639.045741</ele>
        <time>2022-03-08T13:28:11.777Z</time>
      </trkpt>
      <trkpt lat="42.70621" lon="23.70216">
        <ele>639.593835</ele>
        <time>2022-03-08T13:28:18.804Z</time>
      </trkpt>
      <trkpt lat="42.70624" lon="23.70229">
        <ele>640.122559</ele>
        <time>2022-03-08T13:28:24.779Z</time>
      </trkpt>
      <trkpt lat="42.70625" lon="23.70242">
        <ele>640.62241</ele>
        <time>2022-03-08T13:28:30.826Z</time>
      </trkpt>
      <trkpt lat="42.70628" lon="23.70256">
        <ele>641.197679</ele>
        <time>2022-03-08T13:28:36.812Z</time>
      </trkpt>
      <trkpt lat="42.7063" lon="23.70268">
        <ele>641.708359</ele>
        <time>2022-03-08T13:28:42.813Z</time>
      </trkpt>
      <trkpt lat="42.70634" lon="23.7028">
        <ele>642.25837</ele>
        <time>2022-03-08T13:28:49.795Z</time>
      </trkpt>
      <trkpt lat="42.70638" lon="23.70294">
        <ele>642.816314</ele>
        <time>2022-03-08T13:28:56.795Z</time>
      </trkpt>
      <trkpt lat="42.70642" lon="23.70306">
        <ele>643.379506</ele>
        <time>2022-03-08T13:29:04.839Z</time>
      </trkpt>
      <trkpt lat="42.70645" lon="23.7032">
        <ele>643.999168</ele>
        <time>2022-03-08T13:29:11.776Z</time>
      </trkpt>
      <trkpt lat="42.70648" lon="23.70331">
        <ele>644.896573</ele>
        <time>2022-03-08T13:29:17.794Z</time>
      </trkpt>
      <trkpt lat="42.7065" lon="23.70345">
        <ele>645.932286</ele>
        <time>2022-03-08T13:29:24.791Z</time>
      </trkpt>
      <trkpt lat="42.70652" lon="23.70359">
        <ele>646.984645</ele>
        <time>2022-03-08T13:29:31.827Z</time>
      </trkpt>
      <trkpt lat="42.70656" lon="23.70371">
        <ele>647.976537</ele>
        <time>2022-03-08T13:29:37.799Z</time>
      </trkpt>
      <trkpt lat="42.70658" lon="23.70383">
        <ele>648.906037</ele>
        <time>2022-03-08T13:29:45.791Z</time>
      </trkpt>
      <trkpt lat="42.70662" lon="23.70396">
        <ele>649.926132</ele>
        <time>2022-03-08T13:29:52.796Z</time>
      </trkpt>
      <trkpt lat="42.70666" lon="23.70408">
        <ele>650.849334</ele>
        <time>2022-03-08T13:29:59.809Z</time>
      </trkpt>
      <trkpt lat="42.70668" lon="23.70421">
        <ele>651.868436</ele>
        <time>2022-03-08T13:30:07.789Z</time>
      </trkpt>
      <trkpt lat="42.7067" lon="23.70433">
        <ele>652.780483</ele>
        <time>2022-03-08T13:30:14.829Z</time>
      </trkpt>
      <trkpt lat="42.70673" lon="23.70446">
        <ele>653.728092</ele>
        <time>2022-03-08T13:30:21.814Z</time>
      </trkpt>
      <trkpt lat="42.70676" lon="23.70459">
        <ele>654.753887</ele>
        <time>2022-03-08T13:30:28.793Z</time>
      </trkpt>
      <trkpt lat="42.70679" lon="23.70471">
        <ele>655.721912</ele>
        <time>2022-03-08T13:30:35.792Z</time>
      </trkpt>
      <trkpt lat="42.7068" lon="23.70484">
        <ele>656.673929</ele>
        <time>2022-03-08T13:30:42.797Z</time>
      </trkpt>
      <trkpt lat="42.70682" lon="23.70497">
        <ele>657.65495</ele>
        <time>2022-03-08T13:30:50.787Z</time>
      </trkpt>
      <trkpt lat="42.70685" lon="23.70509">
        <ele>658.558048</ele>
        <time>2022-03-08T13:30:57.795Z</time>
      </trkpt>
      <trkpt lat="42.70688" lon="23.70521">
        <ele>659.541747</ele>
        <time>2022-03-08T13:31:05.776Z</time>
      </trkpt>
      <trkpt lat="42.7069" lon="23.70535">
        <ele>660.52251</ele>
        <time>2022-03-08T13:31:12.801Z</time>
      </trkpt>
      <trkpt lat="42.70692" lon="23.70547">
        <ele>661.470116</ele>
        <time>2022-03-08T13:31:19.837Z</time>
      </trkpt>
      <trkpt lat="42.70694" lon="23.70559">
        <ele>662.27402</ele>
        <time>2022-03-08T13:31:25.789Z</time>
      </trkpt>
      <trkpt lat="42.70697" lon="23.70571">
        <ele>663.067898</ele>
        <time>2022-03-08T13:31:32.786Z</time>
      </trkpt>
      <trkpt lat="42.707" lon="23.70584">
        <ele>663.905427</ele>
        <time>2022-03-08T13:31:40.793Z</time>
      </trkpt>
      <trkpt lat="42.70703" lon="23.70597">
        <ele>664.706173</ele>
        <time>2022-03-08T13:31:47.808Z</time>
      </trkpt>
      <trkpt lat="42.70704" lon="23.7061">
        <ele>665.477428</ele>
        <time>2022-03-08T13:31:54.787Z</time>
      </trkpt>
      <trkpt lat="42.70707" lon="23.70621">
        <ele>666.231429</ele>
        <time>2022-03-08T13:32:01.787Z</time>
      </trkpt>
      <trkpt lat="42.70709" lon="23.70634">
        <ele>666.990081</ele>
        <time>2022-03-08T13:32:08.795Z</time>
      </trkpt>
      <trkpt lat="42.7071" lon="23.70646">
        <ele>667.740208</ele>
        <time>2022-03-08T13:32:16.789Z</time>
      </trkpt>
      <trkpt lat="42.70712" lon="23.70658">
        <ele>668.488687</ele>
        <time>2022-03-08T13:32:23.779Z</time>
      </trkpt>
      <trkpt lat="42.70715" lon="23.70671">
        <ele>669.313802</ele>
        <time>2022-03-08T13:32:30.818Z</time>
      </trkpt>
      <trkpt lat="42.70719" lon="23.70683">
        <ele>670.096398</ele>
        <time>2022-03-08T13:32:37.795Z</time>
      </trkpt>
      <trkpt lat="42.70719" lon="23.70695">
        <ele>670.856966</ele>
        <time>2022-03-08T13:32:44.812Z</time>
      </trkpt>
      <trkpt lat="42.70723" lon="23.70707">
        <ele>671.605877</ele>
        <time>2022-03-08T13:32:51.792Z</time>
      </trkpt>
      <trkpt lat="42.70725" lon="23.7072">
        <ele>672.410969</ele>
        <time>2022-03-08T13:32:58.786Z</time>
      </trkpt>
      <trkpt lat="42.70728" lon="23.70731">
        <ele>673.159318</ele>
        <time>2022-03-08T13:33:05.791Z</time>
      </trkpt>
      <trkpt lat="42.70732" lon="23.70744">
        <ele>673.990512</ele>
        <time>2022-03-08T13:33:13.847Z</time>
      </trkpt>
      <trkpt lat="42.70734" lon="23.70757">
        <ele>674.826544</ele>
        <time>2022-03-08T13:33:20.820Z</time>
      </trkpt>
      <trkpt lat="42.70737" lon="23.7077">
        <ele>675.611804</ele>
        <time>2022-03-08T13:33:27.794Z</time>
      </trkpt>
      <trkpt lat="42.7074" lon="23.70782">
        <ele>676.351911</ele>
        <time>2022-03-08T13:33:34.816Z</time>
      </trkpt>
      <trkpt lat="42.70743" lon="23.70794">
        <ele>676.754329</ele>
        <time>2022-03-08T13:33:41.804Z</time>
      </trkpt>
      <trkpt lat="42.70746" lon="23.70805">
        <ele>676.887622</ele>
        <time>2022-03-08T13:33:47.799Z</time>
      </trkpt>
      <trkpt lat="42.70749" lon="23.70818">
        <ele>677.024922</ele>
        <time>2022-03-08T13:33:54.791Z</time>
      </trkpt>
      <trkpt lat="42.70751" lon="23.70831">
        <ele>677.167937</ele>
        <time>2022-03-08T13:34:01.795Z</time>
      </trkpt>
      <trkpt lat="42.70755" lon="23.70843">
        <ele>677.306004</ele>
        <time>2022-03-08T13:34:07.797Z</time>
      </trkpt>
      <trkpt lat="42.70756" lon="23.70856">
        <ele>677.445077</ele>
        <time>2022-03-08T13:34:13.792Z</time>
      </trkpt>
      <trkpt lat="42.70759" lon="23.70868">
        <ele>677.579605</ele>
        <time>2022-03-08T13:34:18.780Z</time>
      </trkpt>
      <trkpt lat="42.70762" lon="23.70879">
        <ele>677.712389</ele>
        <time>2022-03-08T13:34:23.797Z</time>
      </trkpt>
      <trkpt lat="42.70764" lon="23.70893">
        <ele>677.859745</ele>
        <time>2022-03-08T13:34:29.792Z</time>
      </trkpt>
      <trkpt lat="42.70767" lon="23.70906">
        <ele>678.004145</ele>
        <time>2022-03-08T13:34:35.798Z</time>
      </trkpt>
      <trkpt lat="42.70768" lon="23.7092">
        <ele>678.154012</ele>
        <time>2022-03-08T13:34:41.796Z</time>
      </trkpt>
      <trkpt lat="42.7077" lon="23.70934">
        <ele>678.308181</ele>
        <time>2022-03-08T13:34:47.789Z</time>
      </trkpt>
      <trkpt lat="42.70773" lon="23.70947">
        <ele>678.451443</ele>
        <time>2022-03-08T13:34:52.793Z</time>
      </trkpt>
      <trkpt lat="42.70777" lon="23.7096">
        <ele>678.607062</ele>
        <time>2022-03-08T13:34:57.807Z</time>
      </trkpt>
      <trkpt lat="42.70779" lon="23.70975">
        <ele>678.764109</ele>
        <time>2022-03-08T13:35:02.817Z</time>
      </trkpt>
      <trkpt lat="42.70781" lon="23.70989">
        <ele>678.916186</ele>
        <time>2022-03-08T13:35:07.798Z</time>
      </trkpt>
      <trkpt lat="42.70784" lon="23.71003">
        <ele>679.074782</ele>
        <time>2022-03-08T13:35:12.795Z</time>
      </trkpt>
      <trkpt lat="42.70786" lon="23.71017">
        <ele>679.227322</ele>
        <time>2022-03-08T13:35:17.804Z</time>
      </trkpt>
      <trkpt lat="42.70788" lon="23.71031">
        <ele>679.029557</ele>
        <time>2022-03-08T13:35:22.791Z</time>
      </trkpt>
      <trkpt lat="42.70791" lon="23.71042">
        <ele>678.660655</ele>
        <time>2022-03-08T13:35:26.833Z</time>
      </trkpt>
      <trkpt lat="42.70794" lon="23.71054">
        <ele>678.287917</ele>
        <time>2022-03-08T13:35:30.769Z</time>
      </trkpt>
      <trkpt lat="42.70797" lon="23.71068">
        <ele>677.857399</ele>
        <time>2022-03-08T13:35:34.808Z</time>
      </trkpt>
      <trkpt lat="42.708" lon="23.71083">
        <ele>677.393612</ele>
        <time>2022-03-08T13:35:38.801Z</time>
      </trkpt>
      <trkpt lat="42.70803" lon="23.71099">
        <ele>676.900435</ele>
        <time>2022-03-08T13:35:42.796Z</time>
      </trkpt>
      <trkpt lat="42.70805" lon="23.71111">
        <ele>676.520773</ele>
        <time>2022-03-08T13:35:45.798Z</time>
      </trkpt>
      <trkpt lat="42.70808" lon="23.71124">
        <ele>676.118994</ele>
        <time>2022-03-08T13:35:48.782Z</time>
      </trkpt>
      <trkpt lat="42.7081" lon="23.71137">
        <ele>675.709477</ele>
        <time>2022-03-08T13:35:51.797Z</time>
      </trkpt>
      <trkpt lat="42.70813" lon="23.71151">
        <ele>675.267402</ele>
        <time>2022-03-08T13:35:54.788Z</time>
      </trkpt>
      <trkpt lat="42.70816" lon="23.71166">
        <ele>674.812983</ele>
        <time>2022-03-08T13:35:57.791Z</time>
      </trkpt>
      <trkpt lat="42.70818" lon="23.71181">
        <ele>674.343896</ele>
        <time>2022-03-08T13:36:00.800Z</time>
      </trkpt>
      <trkpt lat="42.70822" lon="23.71195">
        <ele>673.885907</ele>
        <time>2022-03-08T13:36:03.796Z</time>
      </trkpt>
      <trkpt lat="42.70827" lon="23.71209">
        <ele>673.431225</ele>
        <time>2022-03-08T13:36:06.814Z</time>
      </trkpt>
      <trkpt lat="42.7083" lon="23.71224">
        <ele>672.958486</ele>
        <time>2022-03-08T13:36:09.807Z</time>
      </trkpt>
      <trkpt lat="42.70834" lon="23.71241">
        <ele>672.42742</ele>
        <time>2022-03-08T13:36:12.788Z</time>
      </trkpt>
      <trkpt lat="42.70836" lon="23.71253">
        <ele>672.038336</ele>
        <time>2022-03-08T13:36:14.782Z</time>
      </trkpt>
      <trkpt lat="42.70838" lon="23.7127">
        <ele>671.860957</ele>
        <time>2022-03-08T13:36:17.828Z</time>
      </trkpt>
      <trkpt lat="42.70841" lon="23.71282">
        <ele>671.804571</ele>
        <time>2022-03-08T13:36:19.808Z</time>
      </trkpt>
      <trkpt lat="42.70844" lon="23.71293">
        <ele>671.749484</ele>
        <time>2022-03-08T13:36:21.791Z</time>
      </trkpt>
      <trkpt lat="42.70846" lon="23.71307">
        <ele>671.687976</ele>
        <time>2022-03-08T13:36:23.796Z</time>
      </trkpt>
      <trkpt lat="42.70849" lon="23.7132">
        <ele>671.62612</ele>
        <time>2022-03-08T13:36:25.792Z</time>
      </trkpt>
      <trkpt lat="42.70852" lon="23.71333">
        <ele>671.563408</ele>
        <time>2022-03-08T13:36:27.789Z</time>
      </trkpt>
      <trkpt lat="42.70855" lon="23.71346">
        <ele>671.501901</ele>
        <time>2022-03-08T13:36:29.810Z</time>
      </trkpt>
      <trkpt lat="42.70859" lon="23.7136">
        <ele>671.438447</ele>
        <time>2022-03-08T13:36:31.798Z</time>
      </trkpt>
      <trkpt lat="42.70862" lon="23.71373">
        <ele>671.373514</ele>
        <time>2022-03-08T13:36:33.783Z</time>
      </trkpt>
      <trkpt lat="42.70865" lon="23.71387">
        <ele>671.31001</ele>
        <time>2022-03-08T13:36:35.792Z</time>
      </trkpt>
      <trkpt lat="42.70869" lon="23.71401">
        <ele>671.244425</ele>
        <time>2022-03-08T13:36:37.773Z</time>
      </trkpt>
      <trkpt lat="42.70872" lon="23.71415">
        <ele>671.178107</ele>
        <time>2022-03-08T13:36:39.804Z</time>
      </trkpt>
      <trkpt lat="42.70876" lon="23.7143">
        <ele>671.108739</ele>
        <time>2022-03-08T13:36:41.787Z</time>
      </trkpt>
      <trkpt lat="42.70879" lon="23.71445">
        <ele>671.037954</ele>
        <time>2022-03-08T13:36:43.794Z</time>
      </trkpt>
      <trkpt lat="42.70882" lon="23.71461">
        <ele>670.964679</ele>
        <time>2022-03-08T13:36:45.788Z</time>
      </trkpt>
      <trkpt lat="42.70886" lon="23.71477">
        <ele>670.88817</ele>
        <time>2022-03-08T13:36:47.794Z</time>
      </trkpt>
      <trkpt lat="42.70891" lon="23.71493">
        <ele>670.758852</ele>
        <time>2022-03-08T13:36:49.813Z</time>
      </trkpt>
      <trkpt lat="42.70896" lon="23.7151">
        <ele>670.217448</ele>
        <time>2022-03-08T13:36:51.798Z</time>
      </trkpt>
      <trkpt lat="42.70901" lon="23.71528">
        <ele>669.696284</ele>
        <time>2022-03-08T13:36:53.790Z</time>
      </trkpt>
      <trkpt lat="42.70906" lon="23.71546">
        <ele>669.15255</ele>
        <time>2022-03-08T13:36:55.792Z</time>
      </trkpt>
      <trkpt lat="42.7091" lon="23.71563">
        <ele>668.620743</ele>
        <time>2022-03-08T13:36:57.820Z</time>
      </trkpt>
      <trkpt lat="42.70915" lon="23.71581">
        <ele>668.082307</ele>
        <time>2022-03-08T13:36:59.805Z</time>
      </trkpt>
      <trkpt lat="42.7092" lon="23.716">
        <ele>667.527838</ele>
        <time>2022-03-08T13:37:01.789Z</time>
      </trkpt>
      <trkpt lat="42.70924" lon="23.71618">
        <ele>666.976045</ele>
        <time>2022-03-08T13:37:03.791Z</time>
      </trkpt>
      <trkpt lat="42.70929" lon="23.71637">
        <ele>666.421673</ele>
        <time>2022-03-08T13:37:05.824Z</time>
      </trkpt>
      <trkpt lat="42.70934" lon="23.71655">
        <ele>665.869925</ele>
        <time>2022-03-08T13:37:07.788Z</time>
      </trkpt>
      <trkpt lat="42.70939" lon="23.71674">
        <ele>665.303588</ele>
        <time>2022-03-08T13:37:09.818Z</time>
      </trkpt>
      <trkpt lat="42.70944" lon="23.71691">
        <ele>664.765155</ele>
        <time>2022-03-08T13:37:11.784Z</time>
      </trkpt>
      <trkpt lat="42.70949" lon="23.71709">
        <ele>664.232034</ele>
        <time>2022-03-08T13:37:13.783Z</time>
      </trkpt>
      <trkpt lat="42.70954" lon="23.71727">
        <ele>663.509153</ele>
        <time>2022-03-08T13:37:15.801Z</time>
      </trkpt>
      <trkpt lat="42.70958" lon="23.71746">
        <ele>662.531608</ele>
        <time>2022-03-08T13:37:17.790Z</time>
      </trkpt>
      <trkpt lat="42.70963" lon="23.71764">
        <ele>661.520639</ele>
        <time>2022-03-08T13:37:19.792Z</time>
      </trkpt>
      <trkpt lat="42.70968" lon="23.71784">
        <ele>660.454975</ele>
        <time>2022-03-08T13:37:21.807Z</time>
      </trkpt>
      <trkpt lat="42.70973" lon="23.71803">
        <ele>659.406074</ele>
        <time>2022-03-08T13:37:23.786Z</time>
      </trkpt>
      <trkpt lat="42.70978" lon="23.71821">
        <ele>658.433892</ele>
        <time>2022-03-08T13:37:25.797Z</time>
      </trkpt>
      <trkpt lat="42.70984" lon="23.7184">
        <ele>657.408776</ele>
        <time>2022-03-08T13:37:27.792Z</time>
      </trkpt>
      <trkpt lat="42.70989" lon="23.7186">
        <ele>656.314466</ele>
        <time>2022-03-08T13:37:29.808Z</time>
      </trkpt>
      <trkpt lat="42.70994" lon="23.7188">
        <ele>655.231784</ele>
        <time>2022-03-08T13:37:31.796Z</time>
      </trkpt>
      <trkpt lat="42.70999" lon="23.71899">
        <ele>654.216346</ele>
        <time>2022-03-08T13:37:33.806Z</time>
      </trkpt>
      <trkpt lat="42.71004" lon="23.71918">
        <ele>653.181862</ele>
        <time>2022-03-08T13:37:35.796Z</time>
      </trkpt>
      <trkpt lat="42.71009" lon="23.71937">
        <ele>652.166426</ele>
        <time>2022-03-08T13:37:37.808Z</time>
      </trkpt>
      <trkpt lat="42.71014" lon="23.71956">
        <ele>651.121051</ele>
        <time>2022-03-08T13:37:39.803Z</time>
      </trkpt>
      <trkpt lat="42.71019" lon="23.71977">
        <ele>650.050662</ele>
        <time>2022-03-08T13:37:41.803Z</time>
      </trkpt>
      <trkpt lat="42.71024" lon="23.71996">
        <ele>649.021998</ele>
        <time>2022-03-08T13:37:43.788Z</time>
      </trkpt>
      <trkpt lat="42.71029" lon="23.72015">
        <ele>648.030428</ele>
        <time>2022-03-08T13:37:45.778Z</time>
      </trkpt>
      <trkpt lat="42.71035" lon="23.72033">
        <ele>647.078175</ele>
        <time>2022-03-08T13:37:47.814Z</time>
      </trkpt>
      <trkpt lat="42.71041" lon="23.72051">
        <ele>646.094044</ele>
        <time>2022-03-08T13:37:49.845Z</time>
      </trkpt>
      <trkpt lat="42.71047" lon="23.7207">
        <ele>645.080022</ele>
        <time>2022-03-08T13:37:51.795Z</time>
      </trkpt>
      <trkpt lat="42.71053" lon="23.72089">
        <ele>644.067823</ele>
        <time>2022-03-08T13:37:53.807Z</time>
      </trkpt>
      <trkpt lat="42.71059" lon="23.72107">
        <ele>643.082681</ele>
        <time>2022-03-08T13:37:55.794Z</time>
      </trkpt>
      <trkpt lat="42.71064" lon="23.72123">
        <ele>642.198545</ele>
        <time>2022-03-08T13:37:57.804Z</time>
      </trkpt>
      <trkpt lat="42.71069" lon="23.72137">
        <ele>641.416269</ele>
        <time>2022-03-08T13:37:59.788Z</time>
      </trkpt>
      <trkpt lat="42.71078" lon="23.72149">
        <ele>640.559692</ele>
        <time>2022-03-08T13:38:02.788Z</time>
      </trkpt>
      <trkpt lat="42.71092" lon="23.72144">
        <ele>639.606542</ele>
        <time>2022-03-08T13:38:05.816Z</time>
      </trkpt>
      <trkpt lat="42.71102" lon="23.72135">
        <ele>639.145861</ele>
        <time>2022-03-08T13:38:07.797Z</time>
      </trkpt>
      <trkpt lat="42.71112" lon="23.72128">
        <ele>638.899093</ele>
        <time>2022-03-08T13:38:09.791Z</time>
      </trkpt>
      <trkpt lat="42.71124" lon="23.72121">
        <ele>638.625299</ele>
        <time>2022-03-08T13:38:11.811Z</time>
      </trkpt>
      <trkpt lat="42.71135" lon="23.72114">
        <ele>638.350057</ele>
        <time>2022-03-08T13:38:13.808Z</time>
      </trkpt>
      <trkpt lat="42.71147" lon="23.72109">
        <ele>638.084478</ele>
        <time>2022-03-08T13:38:15.791Z</time>
      </trkpt>
      <trkpt lat="42.71159" lon="23.72104">
        <ele>637.820337</ele>
        <time>2022-03-08T13:38:17.792Z</time>
      </trkpt>
      <trkpt lat="42.7117" lon="23.72099">
        <ele>637.563366</ele>
        <time>2022-03-08T13:38:19.807Z</time>
      </trkpt>
      <trkpt lat="42.71181" lon="23.72094">
        <ele>637.314486</ele>
        <time>2022-03-08T13:38:21.783Z</time>
      </trkpt>
      <trkpt lat="42.71192" lon="23.72089">
        <ele>637.081285</ele>
        <time>2022-03-08T13:38:23.811Z</time>
      </trkpt>
      <trkpt lat="42.71201" lon="23.72085">
        <ele>636.873295</ele>
        <time>2022-03-08T13:38:25.799Z</time>
      </trkpt>
      <trkpt lat="42.71211" lon="23.7208">
        <ele>636.650215</ele>
        <time>2022-03-08T13:38:27.793Z</time>
      </trkpt>
      <trkpt lat="42.7122" lon="23.72076">
        <ele>636.443617</ele>
        <time>2022-03-08T13:38:29.803Z</time>
      </trkpt>
      <trkpt lat="42.71232" lon="23.7207">
        <ele>636.176525</ele>
        <time>2022-03-08T13:38:32.805Z</time>
      </trkpt>
      <trkpt lat="42.71242" lon="23.72066">
        <ele>635.949386</ele>
        <time>2022-03-08T13:38:35.792Z</time>
      </trkpt>
      <trkpt lat="42.71251" lon="23.72062">
        <ele>635.736849</ele>
        <time>2022-03-08T13:38:38.783Z</time>
      </trkpt>
      <trkpt lat="42.71261" lon="23.72058">
        <ele>635.524771</ele>
        <time>2022-03-08T13:38:41.795Z</time>
      </trkpt>
      <trkpt lat="42.71272" lon="23.72054">
        <ele>635.59121</ele>
        <time>2022-03-08T13:38:44.829Z</time>
      </trkpt>
      <trkpt lat="42.71282" lon="23.72049">
        <ele>635.819842</ele>
        <time>2022-03-08T13:38:47.778Z</time>
      </trkpt>
      <trkpt lat="42.71293" lon="23.72044">
        <ele>636.032437</ele>
        <time>2022-03-08T13:38:50.784Z</time>
      </trkpt>
      <trkpt lat="42.71303" lon="23.7204">
        <ele>636.243653</ele>
        <time>2022-03-08T13:38:53.791Z</time>
      </trkpt>
      <trkpt lat="42.71313" lon="23.72035">
        <ele>636.453891</ele>
        <time>2022-03-08T13:38:56.786Z</time>
      </trkpt>
      <trkpt lat="42.71322" lon="23.7203">
        <ele>636.660842</ele>
        <time>2022-03-08T13:38:59.795Z</time>
      </trkpt>
      <trkpt lat="42.71332" lon="23.72026">
        <ele>636.868267</ele>
        <time>2022-03-08T13:39:02.777Z</time>
      </trkpt>
      <trkpt lat="42.71342" lon="23.72022">
        <ele>637.061077</ele>
        <time>2022-03-08T13:39:05.801Z</time>
      </trkpt>
      <trkpt lat="42.71351" lon="23.72018">
        <ele>637.266761</ele>
        <time>2022-03-08T13:39:08.805Z</time>
      </trkpt>
      <trkpt lat="42.71361" lon="23.72014">
        <ele>637.470961</ele>
        <time>2022-03-08T13:39:11.798Z</time>
      </trkpt>
      <trkpt lat="42.7137" lon="23.7201">
        <ele>637.654403</ele>
        <time>2022-03-08T13:39:14.792Z</time>
      </trkpt>
      <trkpt lat="42.71379" lon="23.72006">
        <ele>637.848661</ele>
        <time>2022-03-08T13:39:17.799Z</time>
      </trkpt>
      <trkpt lat="42.71388" lon="23.72003">
        <ele>638.035857</ele>
        <time>2022-03-08T13:39:20.791Z</time>
      </trkpt>
      <trkpt lat="42.71398" lon="23.72001">
        <ele>638.225825</ele>
        <time>2022-03-08T13:39:23.795Z</time>
      </trkpt>
      <trkpt lat="42.71407" lon="23.71998">
        <ele>638.41631</ele>
        <time>2022-03-08T13:39:26.818Z</time>
      </trkpt>
      <trkpt lat="42.71417" lon="23.71996">
        <ele>638.607654</ele>
        <time>2022-03-08T13:39:29.806Z</time>
      </trkpt>
      <trkpt lat="42.71429" lon="23.71994">
        <ele>638.849399</ele>
        <time>2022-03-08T13:39:33.840Z</time>
      </trkpt>
      <trkpt lat="42.7144" lon="23.71993">
        <ele>639.016232</ele>
        <time>2022-03-08T13:39:36.785Z</time>
      </trkpt>
      <trkpt lat="42.71452" lon="23.71993">
        <ele>638.953444</ele>
        <time>2022-03-08T13:39:39.841Z</time>
      </trkpt>
      <trkpt lat="42.71463" lon="23.71992">
        <ele>638.895315</ele>
        <time>2022-03-08T13:39:42.817Z</time>
      </trkpt>
      <trkpt lat="42.71474" lon="23.71991">
        <ele>638.834599</ele>
        <time>2022-03-08T13:39:45.790Z</time>
      </trkpt>
      <trkpt lat="42.71486" lon="23.7199">
        <ele>638.771835</ele>
        <time>2022-03-08T13:39:48.791Z</time>
      </trkpt>
      <trkpt lat="42.71497" lon="23.71989">
        <ele>638.713679</ele>
        <time>2022-03-08T13:39:51.791Z</time>
      </trkpt>
      <trkpt lat="42.71508" lon="23.71987">
        <ele>638.654691</ele>
        <time>2022-03-08T13:39:54.800Z</time>
      </trkpt>
      <trkpt lat="42.7152" lon="23.71986">
        <ele>638.593655</ele>
        <time>2022-03-08T13:39:57.807Z</time>
      </trkpt>
      <trkpt lat="42.71532" lon="23.71985">
        <ele>638.530833</ele>
        <time>2022-03-08T13:40:00.796Z</time>
      </trkpt>
      <trkpt lat="42.71541" lon="23.71982">
        <ele>638.478112</ele>
        <time>2022-03-08T13:40:03.802Z</time>
      </trkpt>
      <trkpt lat="42.71554" lon="23.71976">
        <ele>638.409582</ele>
        <time>2022-03-08T13:40:07.771Z</time>
      </trkpt>
      <trkpt lat="42.71562" lon="23.7197">
        <ele>638.357384</ele>
        <time>2022-03-08T13:40:10.770Z</time>
      </trkpt>
      <trkpt lat="42.71571" lon="23.71964">
        <ele>638.307648</ele>
        <time>2022-03-08T13:40:13.804Z</time>
      </trkpt>
      <trkpt lat="42.71579" lon="23.71957">
        <ele>638.255916</ele>
        <time>2022-03-08T13:40:16.763Z</time>
      </trkpt>
      <trkpt lat="42.7159" lon="23.71947">
        <ele>638.187243</ele>
        <time>2022-03-08T13:40:20.777Z</time>
      </trkpt>
      <trkpt lat="42.71598" lon="23.71938">
        <ele>638.13211</ele>
        <time>2022-03-08T13:40:23.852Z</time>
      </trkpt>
      <trkpt lat="42.71605" lon="23.71929">
        <ele>638.080038</ele>
        <time>2022-03-08T13:40:26.776Z</time>
      </trkpt>
      <trkpt lat="42.71613" lon="23.71919">
        <ele>638.318783</ele>
        <time>2022-03-08T13:40:29.770Z</time>
      </trkpt>
      <trkpt lat="42.71619" lon="23.71908">
        <ele>638.564247</ele>
        <time>2022-03-08T13:40:32.772Z</time>
      </trkpt>
      <trkpt lat="42.71627" lon="23.71898">
        <ele>638.823436</ele>
        <time>2022-03-08T13:40:35.811Z</time>
      </trkpt>
      <trkpt lat="42.71635" lon="23.71887">
        <ele>639.091916</ele>
        <time>2022-03-08T13:40:38.776Z</time>
      </trkpt>
      <trkpt lat="42.71642" lon="23.71877">
        <ele>639.337379</ele>
        <time>2022-03-08T13:40:41.844Z</time>
      </trkpt>
      <trkpt lat="42.71649" lon="23.71866">
        <ele>639.581774</ele>
        <time>2022-03-08T13:40:44.782Z</time>
      </trkpt>
      <trkpt lat="42.71656" lon="23.71855">
        <ele>639.848125</ele>
        <time>2022-03-08T13:40:47.789Z</time>
      </trkpt>
      <trkpt lat="42.71665" lon="23.71846">
        <ele>640.114991</ele>
        <time>2022-03-08T13:40:50.785Z</time>
      </trkpt>
      <trkpt lat="42.71673" lon="23.71838">
        <ele>640.365854</ele>
        <time>2022-03-08T13:40:53.779Z</time>
      </trkpt>
      <trkpt lat="42.71683" lon="23.71833">
        <ele>640.600992</ele>
        <time>2022-03-08T13:40:56.794Z</time>
      </trkpt>
      <trkpt lat="42.71693" lon="23.71829">
        <ele>640.869833</ele>
        <time>2022-03-08T13:41:00.774Z</time>
      </trkpt>
      <trkpt lat="42.71704" lon="23.71826">
        <ele>641.126298</ele>
        <time>2022-03-08T13:41:05.816Z</time>
      </trkpt>
      <trkpt lat="42.71714" lon="23.71826">
        <ele>641.367847</ele>
        <time>2022-03-08T13:41:10.784Z</time>
      </trkpt>
      <trkpt lat="42.71723" lon="23.71825">
        <ele>641.583342</ele>
        <time>2022-03-08T13:41:15.810Z</time>
      </trkpt>
      <trkpt lat="42.71732" lon="23.71824">
        <ele>641.805991</ele>
        <time>2022-03-08T13:41:20.776Z</time>
      </trkpt>
      <trkpt lat="42.71743" lon="23.71826">
        <ele>642.055524</ele>
        <time>2022-03-08T13:41:27.786Z</time>
      </trkpt>
      <trkpt lat="42.71753" lon="23.71826">
        <ele>642.299259</ele>
        <time>2022-03-08T13:41:32.777Z</time>
      </trkpt>
      <trkpt lat="42.71762" lon="23.71827">
        <ele>642.508865</ele>
        <time>2022-03-08T13:41:37.830Z</time>
      </trkpt>
      <trkpt lat="42.71772" lon="23.71829">
        <ele>642.736328</ele>
        <time>2022-03-08T13:41:43.795Z</time>
      </trkpt>
      <trkpt lat="42.71783" lon="23.71832">
        <ele>642.972737</ele>
        <time>2022-03-08T13:41:49.800Z</time>
      </trkpt>
      <trkpt lat="42.71793" lon="23.71834">
        <ele>643.201413</ele>
        <time>2022-03-08T13:41:55.790Z</time>
      </trkpt>
      <trkpt lat="42.71803" lon="23.71836">
        <ele>643.419427</ele>
        <time>2022-03-08T13:42:01.786Z</time>
      </trkpt>
      <trkpt lat="42.71812" lon="23.71837">
        <ele>643.623476</ele>
        <time>2022-03-08T13:42:06.782Z</time>
      </trkpt>
      <trkpt lat="42.71822" lon="23.71839">
        <ele>643.84802</ele>
        <time>2022-03-08T13:42:12.776Z</time>
      </trkpt>
      <trkpt lat="42.71832" lon="23.71841">
        <ele>644.068708</ele>
        <time>2022-03-08T13:42:18.791Z</time>
      </trkpt>
      <trkpt lat="42.71843" lon="23.71843">
        <ele>644.310271</ele>
        <time>2022-03-08T13:42:23.796Z</time>
      </trkpt>
      <trkpt lat="42.71853" lon="23.71845">
        <ele>644.533975</ele>
        <time>2022-03-08T13:42:28.850Z</time>
      </trkpt>
      <trkpt lat="42.71863" lon="23.71846">
        <ele>644.74438</ele>
        <time>2022-03-08T13:42:33.870Z</time>
      </trkpt>
      <trkpt lat="42.71872" lon="23.7185">
        <ele>644.950582</ele>
        <time>2022-03-08T13:42:37.787Z</time>
      </trkpt>
      <trkpt lat="42.71881" lon="23.71858">
        <ele>645.192787</ele>
        <time>2022-03-08T13:42:41.794Z</time>
      </trkpt>
      <trkpt lat="42.71889" lon="23.71869">
        <ele>645.449918</ele>
        <time>2022-03-08T13:42:45.802Z</time>
      </trkpt>
      <trkpt lat="42.71895" lon="23.71882">
        <ele>645.690715</ele>
        <time>2022-03-08T13:42:49.801Z</time>
      </trkpt>
      <trkpt lat="42.71895" lon="23.71899">
        <ele>645.956024</ele>
        <time>2022-03-08T13:42:53.806Z</time>
      </trkpt>
      <trkpt lat="42.71892" lon="23.71912">
        <ele>646.183672</ele>
        <time>2022-03-08T13:42:56.784Z</time>
      </trkpt>
      <trkpt lat="42.71887" lon="23.71926">
        <ele>646.216175</ele>
        <time>2022-03-08T13:42:59.795Z</time>
      </trkpt>
      <trkpt lat="42.71878" lon="23.71935">
        <ele>645.912683</ele>
        <time>2022-03-08T13:43:02.938Z</time>
      </trkpt>
      <trkpt lat="42.71869" lon="23.7194">
        <ele>645.652158</ele>
        <time>2022-03-08T13:43:04.819Z</time>
      </trkpt>
      <trkpt lat="42.7186" lon="23.71943">
        <ele>645.385113</ele>
        <time>2022-03-08T13:43:06.806Z</time>
      </trkpt>
      <trkpt lat="42.7185" lon="23.71943">
        <ele>645.110717</ele>
        <time>2022-03-08T13:43:08.804Z</time>
      </trkpt>
      <trkpt lat="42.71839" lon="23.71939">
        <ele>644.8269</ele>
        <time>2022-03-08T13:43:10.892Z</time>
      </trkpt>
      <trkpt lat="42.7183" lon="23.71936">
        <ele>644.552789</ele>
        <time>2022-03-08T13:43:12.792Z</time>
      </trkpt>
      <trkpt lat="42.71817" lon="23.71934">
        <ele>644.209479</ele>
        <time>2022-03-08T13:43:15.788Z</time>
      </trkpt>
      <trkpt lat="42.71808" lon="23.71947">
        <ele>643.867387</ele>
        <time>2022-03-08T13:43:18.785Z</time>
      </trkpt>
      <trkpt lat="42.71806" lon="23.71959">
        <ele>643.605061</ele>
        <time>2022-03-08T13:43:20.810Z</time>
      </trkpt>
      <trkpt lat="42.71804" lon="23.71973">
        <ele>643.331065</ele>
        <time>2022-03-08T13:43:22.771Z</time>
      </trkpt>
      <trkpt lat="42.71803" lon="23.71986">
        <ele>643.063367</ele>
        <time>2022-03-08T13:43:24.787Z</time>
      </trkpt>
      <trkpt lat="42.718" lon="23.71999">
        <ele>642.799927</ele>
        <time>2022-03-08T13:43:26.825Z</time>
      </trkpt>
      <trkpt lat="42.71799" lon="23.72012">
        <ele>642.542367</ele>
        <time>2022-03-08T13:43:28.820Z</time>
      </trkpt>
      <trkpt lat="42.71796" lon="23.72027">
        <ele>642.222956</ele>
        <time>2022-03-08T13:43:31.803Z</time>
      </trkpt>
      <trkpt lat="42.71795" lon="23.7204">
        <ele>641.961935</ele>
        <time>2022-03-08T13:43:34.830Z</time>
      </trkpt>
      <trkpt lat="42.71791" lon="23.72055">
        <ele>641.641398</ele>
        <time>2022-03-08T13:43:37.795Z</time>
      </trkpt>
      <trkpt lat="42.71788" lon="23.72069">
        <ele>641.567775</ele>
        <time>2022-03-08T13:43:40.834Z</time>
      </trkpt>
      <trkpt lat="42.71786" lon="23.72081">
        <ele>641.913984</ele>
        <time>2022-03-08T13:43:43.823Z</time>
      </trkpt>
      <trkpt lat="42.71782" lon="23.72095">
        <ele>642.284948</ele>
        <time>2022-03-08T13:43:46.808Z</time>
      </trkpt>
      <trkpt lat="42.71779" lon="23.72107">
        <ele>642.631989</ele>
        <time>2022-03-08T13:43:49.815Z</time>
      </trkpt>
      <trkpt lat="42.71776" lon="23.72119">
        <ele>642.96913</ele>
        <time>2022-03-08T13:43:52.823Z</time>
      </trkpt>
      <trkpt lat="42.71772" lon="23.72131">
        <ele>643.311086</ele>
        <time>2022-03-08T13:43:55.846Z</time>
      </trkpt>
      <trkpt lat="42.71768" lon="23.72145">
        <ele>643.717946</ele>
        <time>2022-03-08T13:43:59.829Z</time>
      </trkpt>
      <trkpt lat="42.71763" lon="23.7216">
        <ele>644.156054</ele>
        <time>2022-03-08T13:44:03.812Z</time>
      </trkpt>
      <trkpt lat="42.71761" lon="23.72173">
        <ele>644.525904</ele>
        <time>2022-03-08T13:44:08.802Z</time>
      </trkpt>
      <trkpt lat="42.71757" lon="23.72186">
        <ele>644.903131</ele>
        <time>2022-03-08T13:44:13.813Z</time>
      </trkpt>
      <trkpt lat="42.71752" lon="23.72199">
        <ele>645.290624</ele>
        <time>2022-03-08T13:44:18.804Z</time>
      </trkpt>
      <trkpt lat="42.71748" lon="23.72213">
        <ele>645.683939</ele>
        <time>2022-03-08T13:44:23.809Z</time>
      </trkpt>
      <trkpt lat="42.71745" lon="23.72225">
        <ele>646.029662</ele>
        <time>2022-03-08T13:44:28.821Z</time>
      </trkpt>
      <trkpt lat="42.71742" lon="23.72237">
        <ele>646.376623</ele>
        <time>2022-03-08T13:44:33.817Z</time>
      </trkpt>
      <trkpt lat="42.71738" lon="23.7225">
        <ele>646.743626</ele>
        <time>2022-03-08T13:44:38.808Z</time>
      </trkpt>
      <trkpt lat="42.71735" lon="23.72264">
        <ele>647.121989</ele>
        <time>2022-03-08T13:44:43.849Z</time>
      </trkpt>
      <trkpt lat="42.71731" lon="23.72275">
        <ele>647.459488</ele>
        <time>2022-03-08T13:44:47.810Z</time>
      </trkpt>
      <trkpt lat="42.71727" lon="23.72287">
        <ele>647.806807</ele>
        <time>2022-03-08T13:44:51.806Z</time>
      </trkpt>
      <trkpt lat="42.71723" lon="23.72299">
        <ele>648.146634</ele>
        <time>2022-03-08T13:44:55.824Z</time>
      </trkpt>
      <trkpt lat="42.71719" lon="23.7231">
        <ele>648.468718</ele>
        <time>2022-03-08T13:44:59.838Z</time>
      </trkpt>
      <trkpt lat="42.71716" lon="23.72322">
        <ele>648.775044</ele>
        <time>2022-03-08T13:45:03.826Z</time>
      </trkpt>
      <trkpt lat="42.71712" lon="23.72334">
        <ele>649.090777</ele>
        <time>2022-03-08T13:45:07.818Z</time>
      </trkpt>
      <trkpt lat="42.71708" lon="23.72346">
        <ele>649.425914</ele>
        <time>2022-03-08T13:45:11.819Z</time>
      </trkpt>
      <trkpt lat="42.71705" lon="23.72358">
        <ele>649.768746</ele>
        <time>2022-03-08T13:45:15.801Z</time>
      </trkpt>
      <trkpt lat="42.71702" lon="23.72371">
        <ele>650.095397</ele>
        <time>2022-03-08T13:45:19.825Z</time>
      </trkpt>
      <trkpt lat="42.717" lon="23.72385">
        <ele>650.467587</ele>
        <time>2022-03-08T13:45:24.791Z</time>
      </trkpt>
      <trkpt lat="42.71697" lon="23.724">
        <ele>650.839071</ele>
        <time>2022-03-08T13:45:29.843Z</time>
      </trkpt>
      <trkpt lat="42.71694" lon="23.72413">
        <ele>651.194928</ele>
        <time>2022-03-08T13:45:34.824Z</time>
      </trkpt>
      <trkpt lat="42.71692" lon="23.72425">
        <ele>651.509462</ele>
        <time>2022-03-08T13:45:38.801Z</time>
      </trkpt>
      <trkpt lat="42.71688" lon="23.72437">
        <ele>651.833444</ele>
        <time>2022-03-08T13:45:42.823Z</time>
      </trkpt>
      <trkpt lat="42.71685" lon="23.72449">
        <ele>652.145649</ele>
        <time>2022-03-08T13:45:46.794Z</time>
      </trkpt>
      <trkpt lat="42.71682" lon="23.72462">
        <ele>652.496949</ele>
        <time>2022-03-08T13:45:50.838Z</time>
      </trkpt>
      <trkpt lat="42.71678" lon="23.72476">
        <ele>652.852739</ele>
        <time>2022-03-08T13:45:54.798Z</time>
      </trkpt>
      <trkpt lat="42.71683" lon="23.72487">
        <ele>653.18256</ele>
        <time>2022-03-08T13:45:59.824Z</time>
      </trkpt>
      <trkpt lat="42.7169" lon="23.72497">
        <ele>653.515837</ele>
        <time>2022-03-08T13:46:04.785Z</time>
      </trkpt>
      <trkpt lat="42.71696" lon="23.72507">
        <ele>653.855135</ele>
        <time>2022-03-08T13:46:10.810Z</time>
      </trkpt>
      <trkpt lat="42.71703" lon="23.72517">
        <ele>654.192201</ele>
        <time>2022-03-08T13:46:16.805Z</time>
      </trkpt>
      <trkpt lat="42.71709" lon="23.72528">
        <ele>654.569202</ele>
        <time>2022-03-08T13:46:23.851Z</time>
      </trkpt>
      <trkpt lat="42.71717" lon="23.72537">
        <ele>654.936212</ele>
        <time>2022-03-08T13:46:29.850Z</time>
      </trkpt>
      <trkpt lat="42.71723" lon="23.72546">
        <ele>655.266616</ele>
        <time>2022-03-08T13:46:34.823Z</time>
      </trkpt>
      <trkpt lat="42.71732" lon="23.72554">
        <ele>655.652181</ele>
        <time>2022-03-08T13:46:41.807Z</time>
      </trkpt>
      <trkpt lat="42.71737" lon="23.72565">
        <ele>655.981082</ele>
        <time>2022-03-08T13:46:48.833Z</time>
      </trkpt>
      <trkpt lat="42.71733" lon="23.72578">
        <ele>656.359059</ele>
        <time>2022-03-08T13:46:56.829Z</time>
      </trkpt>
      <trkpt lat="42.71737" lon="23.7259">
        <ele>656.71336</ele>
        <time>2022-03-08T13:47:02.835Z</time>
      </trkpt>
      <trkpt lat="42.71744" lon="23.72598">
        <ele>657.053464</ele>
        <time>2022-03-08T13:47:08.824Z</time>
      </trkpt>
      <trkpt lat="42.71751" lon="23.72608">
        <ele>657.408172</ele>
        <time>2022-03-08T13:47:14.812Z</time>
      </trkpt>
      <trkpt lat="42.71759" lon="23.72614">
        <ele>657.749516</ele>
        <time>2022-03-08T13:47:20.816Z</time>
      </trkpt>
      <trkpt lat="42.71768" lon="23.72621">
        <ele>658.130208</ele>
        <time>2022-03-08T13:47:27.849Z</time>
      </trkpt>
      <trkpt lat="42.71776" lon="23.72628">
        <ele>658.476161</ele>
        <time>2022-03-08T13:47:32.810Z</time>
      </trkpt>
      <trkpt lat="42.71783" lon="23.72636">
        <ele>658.811578</ele>
        <time>2022-03-08T13:47:39.854Z</time>
      </trkpt>
      <trkpt lat="42.7179" lon="23.72644">
        <ele>659.147942</ele>
        <time>2022-03-08T13:47:46.798Z</time>
      </trkpt>
      <trkpt lat="42.71795" lon="23.72654">
        <ele>659.483169</ele>
        <time>2022-03-08T13:47:54.812Z</time>
      </trkpt>
      <trkpt lat="42.71802" lon="23.72665">
        <ele>659.855538</ele>
        <time>2022-03-08T13:48:02.802Z</time>
      </trkpt>
      <trkpt lat="42.71808" lon="23.72673">
        <ele>660.18377</ele>
        <time>2022-03-08T13:48:08.838Z</time>
      </trkpt>
      <trkpt lat="42.71816" lon="23.72682">
        <ele>660.540851</ele>
        <time>2022-03-08T13:48:15.830Z</time>
      </trkpt>
      <trkpt lat="42.71823" lon="23.72691">
        <ele>660.697779</ele>
        <time>2022-03-08T13:48:21.807Z</time>
      </trkpt>
      <trkpt lat="42.7183" lon="23.727">
        <ele>660.697779</ele>
        <time>2022-03-08T13:48:28.813Z</time>
      </trkpt>
      <trkpt lat="42.71838" lon="23.72708">
        <ele>660.697779</ele>
        <time>2022-03-08T13:48:36.818Z</time>
      </trkpt>
      <trkpt lat="42.71845" lon="23.72717">
        <ele>660.697779</ele>
        <time>2022-03-08T13:48:44.834Z</time>
      </trkpt>
      <trkpt lat="42.71853" lon="23.72725">
        <ele>660.697779</ele>
        <time>2022-03-08T13:48:52.808Z</time>
      </trkpt>
      <trkpt lat="42.71859" lon="23.72735">
        <ele>660.697779</ele>
        <time>2022-03-08T13:48:59.839Z</time>
      </trkpt>
      <trkpt lat="42.71865" lon="23.72744">
        <ele>660.697779</ele>
        <time>2022-03-08T13:49:06.806Z</time>
      </trkpt>
      <trkpt lat="42.71871" lon="23.72753">
        <ele>660.697779</ele>
        <time>2022-03-08T13:49:14.810Z</time>
      </trkpt>
      <trkpt lat="42.71879" lon="23.72761">
        <ele>660.697779</ele>
        <time>2022-03-08T13:49:23.833Z</time>
      </trkpt>
      <trkpt lat="42.71886" lon="23.7277">
        <ele>660.697779</ele>
        <time>2022-03-08T13:49:30.814Z</time>
      </trkpt>
      <trkpt lat="42.71895" lon="23.72776">
        <ele>660.697779</ele>
        <time>2022-03-08T13:49:38.804Z</time>
      </trkpt>
      <trkpt lat="42.71902" lon="23.72785">
        <ele>660.697779</ele>
        <time>2022-03-08T13:49:46.806Z</time>
      </trkpt>
      <trkpt lat="42.7191" lon="23.72792">
        <ele>660.697779</ele>
        <time>2022-03-08T13:49:54.792Z</time>
      </trkpt>
      <trkpt lat="42.71918" lon="23.72799">
        <ele>660.697779</ele>
        <time>2022-03-08T13:50:00.793Z</time>
      </trkpt>
      <trkpt lat="42.71922" lon="23.7281">
        <ele>660.697779</ele>
        <time>2022-03-08T13:50:08.799Z</time>
      </trkpt>
      <trkpt lat="42.71915" lon="23.72821">
        <ele>660.697779</ele>
        <time>2022-03-08T13:54:37.061Z</time>
      </trkpt>
    </trkseg>
  </trk>
  <trk>
    <name><![CDATA[Tour d'Europe: étape 617]]></name>
    <extensions>
      <line xmlns="http://www.topografix.com/GPX/gpx_style/0/2">
        <color>00FFFF</color>
        <width>4</width>
      </line>
    </extensions>
    <trkseg>
      <trkpt lat="42.14748" lon="24.75414">
        <ele>237.94926</ele>
        <time>2022-03-07T06:57:35.630Z</time>
      </trkpt>
      <trkpt lat="42.14736" lon="24.75415">
        <ele>237.94926</ele>
        <time>2022-03-07T07:00:09.445Z</time>
      </trkpt>
      <trkpt lat="42.14734" lon="24.7543">
        <ele>237.94926</ele>
        <time>2022-03-07T07:01:24.460Z</time>
      </trkpt>
      <trkpt lat="42.14737" lon="24.75442">
        <ele>237.94926</ele>
        <time>2022-03-07T07:01:31.457Z</time>
      </trkpt>
      <trkpt lat="42.14736" lon="24.75455">
        <ele>237.94926</ele>
        <time>2022-03-07T07:01:41.450Z</time>
      </trkpt>
      <trkpt lat="42.14734" lon="24.75467">
        <ele>237.94926</ele>
        <time>2022-03-07T07:01:50.475Z</time>
      </trkpt>
      <trkpt lat="42.14734" lon="24.75479">
        <ele>237.94926</ele>
        <time>2022-03-07T07:02:02.447Z</time>
      </trkpt>
      <trkpt lat="42.14749" lon="24.75493">
        <ele>237.94926</ele>
        <time>2022-03-07T07:03:12.440Z</time>
      </trkpt>
      <trkpt lat="42.14759" lon="24.75496">
        <ele>237.94926</ele>
        <time>2022-03-07T07:03:16.462Z</time>
      </trkpt>
      <trkpt lat="42.14768" lon="24.75501">
        <ele>237.086961</ele>
        <time>2022-03-07T07:03:19.469Z</time>
      </trkpt>
      <trkpt lat="42.14777" lon="24.75504">
        <ele>236.260994</ele>
        <time>2022-03-07T07:03:22.462Z</time>
      </trkpt>
      <trkpt lat="42.14788" lon="24.75509">
        <ele>235.152252</ele>
        <time>2022-03-07T07:03:26.443Z</time>
      </trkpt>
      <trkpt lat="42.14798" lon="24.75513">
        <ele>234.255613</ele>
        <time>2022-03-07T07:03:29.455Z</time>
      </trkpt>
      <trkpt lat="42.14809" lon="24.75518">
        <ele>233.220494</ele>
        <time>2022-03-07T07:03:33.454Z</time>
      </trkpt>
      <trkpt lat="42.14819" lon="24.7552">
        <ele>232.23863</ele>
        <time>2022-03-07T07:03:37.464Z</time>
      </trkpt>
      <trkpt lat="42.14828" lon="24.75524">
        <ele>231.396942</ele>
        <time>2022-03-07T07:03:40.437Z</time>
      </trkpt>
      <trkpt lat="42.14839" lon="24.75531">
        <ele>230.312053</ele>
        <time>2022-03-07T07:03:44.444Z</time>
      </trkpt>
      <trkpt lat="42.14847" lon="24.75538">
        <ele>229.40566</ele>
        <time>2022-03-07T07:03:47.457Z</time>
      </trkpt>
      <trkpt lat="42.14857" lon="24.75543">
        <ele>228.498142</ele>
        <time>2022-03-07T07:03:50.456Z</time>
      </trkpt>
      <trkpt lat="42.14867" lon="24.75548">
        <ele>227.514598</ele>
        <time>2022-03-07T07:03:53.450Z</time>
      </trkpt>
      <trkpt lat="42.14877" lon="24.75553">
        <ele>226.548925</ele>
        <time>2022-03-07T07:03:56.433Z</time>
      </trkpt>
      <trkpt lat="42.14886" lon="24.75557">
        <ele>225.681809</ele>
        <time>2022-03-07T07:03:59.447Z</time>
      </trkpt>
      <trkpt lat="42.14894" lon="24.75564">
        <ele>224.804096</ele>
        <time>2022-03-07T07:04:02.456Z</time>
      </trkpt>
      <trkpt lat="42.14899" lon="24.75575">
        <ele>223.94316</ele>
        <time>2022-03-07T07:04:05.457Z</time>
      </trkpt>
      <trkpt lat="42.14906" lon="24.75584">
        <ele>223.029867</ele>
        <time>2022-03-07T07:04:08.451Z</time>
      </trkpt>
      <trkpt lat="42.14918" lon="24.75582">
        <ele>221.992105</ele>
        <time>2022-03-07T07:04:11.456Z</time>
      </trkpt>
      <trkpt lat="42.14928" lon="24.75573">
        <ele>221.405438</ele>
        <time>2022-03-07T07:04:14.434Z</time>
      </trkpt>
      <trkpt lat="42.14936" lon="24.75564">
        <ele>221.139659</ele>
        <time>2022-03-07T07:04:17.442Z</time>
      </trkpt>
      <trkpt lat="42.14944" lon="24.75555">
        <ele>220.898122</ele>
        <time>2022-03-07T07:04:20.441Z</time>
      </trkpt>
      <trkpt lat="42.14953" lon="24.75547">
        <ele>220.640837</ele>
        <time>2022-03-07T07:04:23.485Z</time>
      </trkpt>
      <trkpt lat="42.14962" lon="24.75539">
        <ele>220.364287</ele>
        <time>2022-03-07T07:04:26.458Z</time>
      </trkpt>
      <trkpt lat="42.14972" lon="24.75531">
        <ele>220.075708</ele>
        <time>2022-03-07T07:04:29.444Z</time>
      </trkpt>
      <trkpt lat="42.14983" lon="24.75521">
        <ele>219.764126</ele>
        <time>2022-03-07T07:04:32.450Z</time>
      </trkpt>
      <trkpt lat="42.14992" lon="24.75512">
        <ele>219.49059</ele>
        <time>2022-03-07T07:04:35.466Z</time>
      </trkpt>
      <trkpt lat="42.15001" lon="24.75504">
        <ele>219.228316</ele>
        <time>2022-03-07T07:04:38.475Z</time>
      </trkpt>
      <trkpt lat="42.15011" lon="24.75498">
        <ele>218.957054</ele>
        <time>2022-03-07T07:04:41.450Z</time>
      </trkpt>
      <trkpt lat="42.1502" lon="24.75489">
        <ele>218.705518</ele>
        <time>2022-03-07T07:04:44.486Z</time>
      </trkpt>
      <trkpt lat="42.15027" lon="24.75482">
        <ele>218.477413</ele>
        <time>2022-03-07T07:04:47.461Z</time>
      </trkpt>
      <trkpt lat="42.15036" lon="24.75476">
        <ele>218.251638</ele>
        <time>2022-03-07T07:04:50.453Z</time>
      </trkpt>
      <trkpt lat="42.15045" lon="24.7547">
        <ele>218.0063</ele>
        <time>2022-03-07T07:04:53.458Z</time>
      </trkpt>
      <trkpt lat="42.15055" lon="24.75462">
        <ele>217.715187</ele>
        <time>2022-03-07T07:04:56.494Z</time>
      </trkpt>
      <trkpt lat="42.15066" lon="24.75454">
        <ele>217.405828</ele>
        <time>2022-03-07T07:04:59.444Z</time>
      </trkpt>
      <trkpt lat="42.15076" lon="24.75447">
        <ele>217.123668</ele>
        <time>2022-03-07T07:05:02.443Z</time>
      </trkpt>
      <trkpt lat="42.15086" lon="24.75443">
        <ele>216.807687</ele>
        <time>2022-03-07T07:05:05.525Z</time>
      </trkpt>
      <trkpt lat="42.15098" lon="24.75441">
        <ele>216.437264</ele>
        <time>2022-03-07T07:05:08.444Z</time>
      </trkpt>
      <trkpt lat="42.15108" lon="24.7544">
        <ele>216.133682</ele>
        <time>2022-03-07T07:05:10.490Z</time>
      </trkpt>
      <trkpt lat="42.15121" lon="24.7544">
        <ele>215.770436</ele>
        <time>2022-03-07T07:05:13.454Z</time>
      </trkpt>
      <trkpt lat="42.1513" lon="24.75439">
        <ele>215.499532</ele>
        <time>2022-03-07T07:05:18.454Z</time>
      </trkpt>
      <trkpt lat="42.1514" lon="24.7544">
        <ele>215.199145</ele>
        <time>2022-03-07T07:05:25.472Z</time>
      </trkpt>
      <trkpt lat="42.15149" lon="24.75443">
        <ele>214.916517</ele>
        <time>2022-03-07T07:05:28.467Z</time>
      </trkpt>
      <trkpt lat="42.15158" lon="24.75446">
        <ele>214.622041</ele>
        <time>2022-03-07T07:05:31.444Z</time>
      </trkpt>
      <trkpt lat="42.15171" lon="24.75448">
        <ele>214.235727</ele>
        <time>2022-03-07T07:05:34.447Z</time>
      </trkpt>
      <trkpt lat="42.15184" lon="24.75449">
        <ele>213.854082</ele>
        <time>2022-03-07T07:05:37.466Z</time>
      </trkpt>
      <trkpt lat="42.15195" lon="24.75448">
        <ele>213.511811</ele>
        <time>2022-03-07T07:05:40.461Z</time>
      </trkpt>
      <trkpt lat="42.15206" lon="24.75447">
        <ele>213.186518</ele>
        <time>2022-03-07T07:05:43.450Z</time>
      </trkpt>
      <trkpt lat="42.15218" lon="24.75445">
        <ele>212.82979</ele>
        <time>2022-03-07T07:05:46.455Z</time>
      </trkpt>
      <trkpt lat="42.1523" lon="24.75447">
        <ele>212.474008</ele>
        <time>2022-03-07T07:05:49.482Z</time>
      </trkpt>
      <trkpt lat="42.15241" lon="24.75451">
        <ele>212.126783</ele>
        <time>2022-03-07T07:05:52.461Z</time>
      </trkpt>
      <trkpt lat="42.15252" lon="24.75455">
        <ele>211.880627</ele>
        <time>2022-03-07T07:05:55.464Z</time>
      </trkpt>
      <trkpt lat="42.15264" lon="24.75455">
        <ele>212.276281</ele>
        <time>2022-03-07T07:05:58.470Z</time>
      </trkpt>
      <trkpt lat="42.15276" lon="24.75455">
        <ele>212.655407</ele>
        <time>2022-03-07T07:06:01.446Z</time>
      </trkpt>
      <trkpt lat="42.15288" lon="24.75456">
        <ele>213.045675</ele>
        <time>2022-03-07T07:06:04.465Z</time>
      </trkpt>
      <trkpt lat="42.153" lon="24.75458">
        <ele>213.429705</ele>
        <time>2022-03-07T07:06:07.460Z</time>
      </trkpt>
      <trkpt lat="42.15311" lon="24.75462">
        <ele>213.808238</ele>
        <time>2022-03-07T07:06:10.455Z</time>
      </trkpt>
      <trkpt lat="42.15323" lon="24.75465">
        <ele>214.189699</ele>
        <time>2022-03-07T07:06:13.462Z</time>
      </trkpt>
      <trkpt lat="42.15334" lon="24.75468">
        <ele>214.566388</ele>
        <time>2022-03-07T07:06:16.461Z</time>
      </trkpt>
      <trkpt lat="42.15345" lon="24.75466">
        <ele>214.912861</ele>
        <time>2022-03-07T07:06:19.477Z</time>
      </trkpt>
      <trkpt lat="42.15349" lon="24.75453">
        <ele>215.24739</ele>
        <time>2022-03-07T07:06:24.444Z</time>
      </trkpt>
      <trkpt lat="42.1535" lon="24.7544">
        <ele>215.57673</ele>
        <time>2022-03-07T07:06:28.434Z</time>
      </trkpt>
      <trkpt lat="42.15349" lon="24.75427">
        <ele>215.884348</ele>
        <time>2022-03-07T07:06:31.493Z</time>
      </trkpt>
      <trkpt lat="42.1535" lon="24.75415">
        <ele>216.180673</ele>
        <time>2022-03-07T07:06:34.470Z</time>
      </trkpt>
      <trkpt lat="42.15351" lon="24.75402">
        <ele>216.473912</ele>
        <time>2022-03-07T07:06:37.452Z</time>
      </trkpt>
      <trkpt lat="42.15352" lon="24.75388">
        <ele>216.821325</ele>
        <time>2022-03-07T07:06:40.458Z</time>
      </trkpt>
      <trkpt lat="42.15352" lon="24.75374">
        <ele>217.15338</ele>
        <time>2022-03-07T07:06:43.461Z</time>
      </trkpt>
      <trkpt lat="42.1535" lon="24.75359">
        <ele>217.532851</ele>
        <time>2022-03-07T07:06:46.477Z</time>
      </trkpt>
      <trkpt lat="42.15347" lon="24.75346">
        <ele>217.265518</ele>
        <time>2022-03-07T07:06:49.480Z</time>
      </trkpt>
      <trkpt lat="42.15342" lon="24.75332">
        <ele>216.587963</ele>
        <time>2022-03-07T07:06:52.461Z</time>
      </trkpt>
      <trkpt lat="42.15348" lon="24.75321">
        <ele>215.967804</ele>
        <time>2022-03-07T07:06:56.466Z</time>
      </trkpt>
      <trkpt lat="42.15357" lon="24.75314">
        <ele>215.363576</ele>
        <time>2022-03-07T07:06:59.485Z</time>
      </trkpt>
      <trkpt lat="42.15366" lon="24.75308">
        <ele>214.758845</ele>
        <time>2022-03-07T07:07:02.439Z</time>
      </trkpt>
      <trkpt lat="42.15375" lon="24.75303">
        <ele>214.161447</ele>
        <time>2022-03-07T07:07:05.442Z</time>
      </trkpt>
      <trkpt lat="42.15384" lon="24.75299">
        <ele>213.585554</ele>
        <time>2022-03-07T07:07:08.500Z</time>
      </trkpt>
      <trkpt lat="42.15393" lon="24.75294">
        <ele>213.007526</ele>
        <time>2022-03-07T07:07:11.509Z</time>
      </trkpt>
      <trkpt lat="42.15404" lon="24.7529">
        <ele>212.376276</ele>
        <time>2022-03-07T07:07:15.452Z</time>
      </trkpt>
      <trkpt lat="42.15414" lon="24.75286">
        <ele>211.74656</ele>
        <time>2022-03-07T07:07:19.471Z</time>
      </trkpt>
      <trkpt lat="42.15418" lon="24.75275">
        <ele>211.191213</ele>
        <time>2022-03-07T07:07:24.438Z</time>
      </trkpt>
      <trkpt lat="42.15426" lon="24.75267">
        <ele>210.616079</ele>
        <time>2022-03-07T07:07:35.462Z</time>
      </trkpt>
      <trkpt lat="42.1543" lon="24.75254">
        <ele>209.990548</ele>
        <time>2022-03-07T07:07:39.475Z</time>
      </trkpt>
      <trkpt lat="42.15428" lon="24.75241">
        <ele>209.408763</ele>
        <time>2022-03-07T07:07:42.536Z</time>
      </trkpt>
      <trkpt lat="42.15427" lon="24.75228">
        <ele>208.804697</ele>
        <time>2022-03-07T07:07:45.474Z</time>
      </trkpt>
      <trkpt lat="42.15427" lon="24.75214">
        <ele>208.188515</ele>
        <time>2022-03-07T07:07:48.486Z</time>
      </trkpt>
      <trkpt lat="42.15425" lon="24.75201">
        <ele>207.593717</ele>
        <time>2022-03-07T07:07:51.493Z</time>
      </trkpt>
      <trkpt lat="42.15423" lon="24.75189">
        <ele>207.052092</ele>
        <time>2022-03-07T07:07:54.529Z</time>
      </trkpt>
      <trkpt lat="42.1542" lon="24.75174">
        <ele>206.692012</ele>
        <time>2022-03-07T07:07:57.463Z</time>
      </trkpt>
      <trkpt lat="42.15417" lon="24.75159">
        <ele>206.393831</ele>
        <time>2022-03-07T07:08:00.463Z</time>
      </trkpt>
      <trkpt lat="42.15416" lon="24.75144">
        <ele>206.114983</ele>
        <time>2022-03-07T07:08:03.469Z</time>
      </trkpt>
      <trkpt lat="42.15413" lon="24.75129">
        <ele>205.820755</ele>
        <time>2022-03-07T07:08:06.467Z</time>
      </trkpt>
      <trkpt lat="42.15411" lon="24.75113">
        <ele>205.528657</ele>
        <time>2022-03-07T07:08:09.435Z</time>
      </trkpt>
      <trkpt lat="42.1541" lon="24.75098">
        <ele>205.235981</ele>
        <time>2022-03-07T07:08:12.477Z</time>
      </trkpt>
      <trkpt lat="42.15408" lon="24.75083">
        <ele>204.952682</ele>
        <time>2022-03-07T07:08:15.458Z</time>
      </trkpt>
      <trkpt lat="42.15406" lon="24.75069">
        <ele>204.689515</ele>
        <time>2022-03-07T07:08:18.526Z</time>
      </trkpt>
      <trkpt lat="42.15403" lon="24.75055">
        <ele>204.427626</ele>
        <time>2022-03-07T07:08:21.474Z</time>
      </trkpt>
      <trkpt lat="42.15401" lon="24.75041">
        <ele>204.15189</ele>
        <time>2022-03-07T07:08:25.468Z</time>
      </trkpt>
      <trkpt lat="42.15395" lon="24.75029">
        <ele>203.889311</ele>
        <time>2022-03-07T07:08:31.532Z</time>
      </trkpt>
      <trkpt lat="42.15395" lon="24.75014">
        <ele>203.60215</ele>
        <time>2022-03-07T07:08:35.462Z</time>
      </trkpt>
      <trkpt lat="42.15397" lon="24.74998">
        <ele>203.313712</ele>
        <time>2022-03-07T07:08:38.508Z</time>
      </trkpt>
      <trkpt lat="42.15392" lon="24.74985">
        <ele>203.039951</ele>
        <time>2022-03-07T07:08:41.502Z</time>
      </trkpt>
      <trkpt lat="42.15385" lon="24.74973">
        <ele>202.755383</ele>
        <time>2022-03-07T07:08:44.472Z</time>
      </trkpt>
      <trkpt lat="42.15392" lon="24.74964">
        <ele>202.512895</ele>
        <time>2022-03-07T07:08:48.481Z</time>
      </trkpt>
      <trkpt lat="42.15392" lon="24.74948">
        <ele>202.325776</ele>
        <time>2022-03-07T07:08:52.466Z</time>
      </trkpt>
      <trkpt lat="42.15389" lon="24.74934">
        <ele>202.231864</ele>
        <time>2022-03-07T07:08:55.460Z</time>
      </trkpt>
      <trkpt lat="42.15387" lon="24.74918">
        <ele>202.12431</ele>
        <time>2022-03-07T07:08:58.471Z</time>
      </trkpt>
      <trkpt lat="42.15386" lon="24.749">
        <ele>202.010847</ele>
        <time>2022-03-07T07:09:01.485Z</time>
      </trkpt>
      <trkpt lat="42.15383" lon="24.74884">
        <ele>201.902274</ele>
        <time>2022-03-07T07:09:04.471Z</time>
      </trkpt>
      <trkpt lat="42.15381" lon="24.74869">
        <ele>201.801049</ele>
        <time>2022-03-07T07:09:07.487Z</time>
      </trkpt>
      <trkpt lat="42.15379" lon="24.74853">
        <ele>201.699011</ele>
        <time>2022-03-07T07:09:10.481Z</time>
      </trkpt>
      <trkpt lat="42.15377" lon="24.74839">
        <ele>201.603337</ele>
        <time>2022-03-07T07:09:13.479Z</time>
      </trkpt>
      <trkpt lat="42.15375" lon="24.74826">
        <ele>201.517106</ele>
        <time>2022-03-07T07:09:16.495Z</time>
      </trkpt>
      <trkpt lat="42.15372" lon="24.7481">
        <ele>201.414317</ele>
        <time>2022-03-07T07:09:19.471Z</time>
      </trkpt>
      <trkpt lat="42.1537" lon="24.74793">
        <ele>201.301918</ele>
        <time>2022-03-07T07:09:22.469Z</time>
      </trkpt>
      <trkpt lat="42.15367" lon="24.74776">
        <ele>201.182957</ele>
        <time>2022-03-07T07:09:25.470Z</time>
      </trkpt>
      <trkpt lat="42.15364" lon="24.74758">
        <ele>201.064172</ele>
        <time>2022-03-07T07:09:28.475Z</time>
      </trkpt>
      <trkpt lat="42.15363" lon="24.74745">
        <ele>200.982423</ele>
        <time>2022-03-07T07:09:30.473Z</time>
      </trkpt>
      <trkpt lat="42.15361" lon="24.74733">
        <ele>200.903541</ele>
        <time>2022-03-07T07:09:32.478Z</time>
      </trkpt>
      <trkpt lat="42.15359" lon="24.74718">
        <ele>200.80677</ele>
        <time>2022-03-07T07:09:35.478Z</time>
      </trkpt>
      <trkpt lat="42.15357" lon="24.74701">
        <ele>200.760059</ele>
        <time>2022-03-07T07:09:38.494Z</time>
      </trkpt>
      <trkpt lat="42.15354" lon="24.74684">
        <ele>200.71165</ele>
        <time>2022-03-07T07:09:41.493Z</time>
      </trkpt>
      <trkpt lat="42.15351" lon="24.74668">
        <ele>200.665955</ele>
        <time>2022-03-07T07:09:44.476Z</time>
      </trkpt>
      <trkpt lat="42.15348" lon="24.74653">
        <ele>200.622936</ele>
        <time>2022-03-07T07:09:47.493Z</time>
      </trkpt>
      <trkpt lat="42.15344" lon="24.74637">
        <ele>200.576779</ele>
        <time>2022-03-07T07:09:50.462Z</time>
      </trkpt>
      <trkpt lat="42.15336" lon="24.74622">
        <ele>200.527142</ele>
        <time>2022-03-07T07:09:53.493Z</time>
      </trkpt>
      <trkpt lat="42.15329" lon="24.74609">
        <ele>200.481062</ele>
        <time>2022-03-07T07:09:56.500Z</time>
      </trkpt>
      <trkpt lat="42.15324" lon="24.74595">
        <ele>200.440288</ele>
        <time>2022-03-07T07:09:59.464Z</time>
      </trkpt>
      <trkpt lat="42.1532" lon="24.74581">
        <ele>200.39759</ele>
        <time>2022-03-07T07:10:02.462Z</time>
      </trkpt>
      <trkpt lat="42.15317" lon="24.74569">
        <ele>200.362934</ele>
        <time>2022-03-07T07:10:05.475Z</time>
      </trkpt>
      <trkpt lat="42.15317" lon="24.74557">
        <ele>200.328737</ele>
        <time>2022-03-07T07:10:10.465Z</time>
      </trkpt>
      <trkpt lat="42.15313" lon="24.74545">
        <ele>200.29331</ele>
        <time>2022-03-07T07:10:14.475Z</time>
      </trkpt>
      <trkpt lat="42.1531" lon="24.74526">
        <ele>200.241779</ele>
        <time>2022-03-07T07:10:17.464Z</time>
      </trkpt>
      <trkpt lat="42.1531" lon="24.7451">
        <ele>200.195171</ele>
        <time>2022-03-07T07:10:20.449Z</time>
      </trkpt>
      <trkpt lat="42.15312" lon="24.7449">
        <ele>200.158691</ele>
        <time>2022-03-07T07:10:22.460Z</time>
      </trkpt>
      <trkpt lat="42.15312" lon="24.74477">
        <ele>200.575933</ele>
        <time>2022-03-07T07:10:24.501Z</time>
      </trkpt>
      <trkpt lat="42.1531" lon="24.7446">
        <ele>201.126041</ele>
        <time>2022-03-07T07:10:27.452Z</time>
      </trkpt>
      <trkpt lat="42.15307" lon="24.74443">
        <ele>201.680703</ele>
        <time>2022-03-07T07:10:30.451Z</time>
      </trkpt>
      <trkpt lat="42.15302" lon="24.74433">
        <ele>202.075207</ele>
        <time>2022-03-07T07:10:33.455Z</time>
      </trkpt>
      <trkpt lat="42.15298" lon="24.7442">
        <ele>202.527663</ele>
        <time>2022-03-07T07:10:38.471Z</time>
      </trkpt>
      <trkpt lat="42.15297" lon="24.74406">
        <ele>202.956818</ele>
        <time>2022-03-07T07:10:41.460Z</time>
      </trkpt>
      <trkpt lat="42.15293" lon="24.74392">
        <ele>203.43688</ele>
        <time>2022-03-07T07:10:44.456Z</time>
      </trkpt>
      <trkpt lat="42.15292" lon="24.74377">
        <ele>203.898419</ele>
        <time>2022-03-07T07:10:47.466Z</time>
      </trkpt>
      <trkpt lat="42.15291" lon="24.74363">
        <ele>204.376269</ele>
        <time>2022-03-07T07:10:50.464Z</time>
      </trkpt>
      <trkpt lat="42.1529" lon="24.74347">
        <ele>204.889417</ele>
        <time>2022-03-07T07:10:53.497Z</time>
      </trkpt>
      <trkpt lat="42.15288" lon="24.74331">
        <ele>205.399235</ele>
        <time>2022-03-07T07:10:56.466Z</time>
      </trkpt>
      <trkpt lat="42.15285" lon="24.74315">
        <ele>205.918338</ele>
        <time>2022-03-07T07:10:59.459Z</time>
      </trkpt>
      <trkpt lat="42.15284" lon="24.74299">
        <ele>206.438328</ele>
        <time>2022-03-07T07:11:02.458Z</time>
      </trkpt>
      <trkpt lat="42.15283" lon="24.74282">
        <ele>206.956095</ele>
        <time>2022-03-07T07:11:05.462Z</time>
      </trkpt>
      <trkpt lat="42.15283" lon="24.74267">
        <ele>207.446615</ele>
        <time>2022-03-07T07:11:08.455Z</time>
      </trkpt>
      <trkpt lat="42.15282" lon="24.7425">
        <ele>207.903762</ele>
        <time>2022-03-07T07:11:11.449Z</time>
      </trkpt>
      <trkpt lat="42.15281" lon="24.74238">
        <ele>208.022783</ele>
        <time>2022-03-07T07:11:13.463Z</time>
      </trkpt>
      <trkpt lat="42.15278" lon="24.74226">
        <ele>208.142332</ele>
        <time>2022-03-07T07:11:15.466Z</time>
      </trkpt>
      <trkpt lat="42.15276" lon="24.74214">
        <ele>208.26429</ele>
        <time>2022-03-07T07:11:17.472Z</time>
      </trkpt>
      <trkpt lat="42.15273" lon="24.74197">
        <ele>208.430273</ele>
        <time>2022-03-07T07:11:20.454Z</time>
      </trkpt>
      <trkpt lat="42.15273" lon="24.74184">
        <ele>208.553689</ele>
        <time>2022-03-07T07:11:22.463Z</time>
      </trkpt>
      <trkpt lat="42.15273" lon="24.7417">
        <ele>208.688525</ele>
        <time>2022-03-07T07:11:24.465Z</time>
      </trkpt>
      <trkpt lat="42.15273" lon="24.74155">
        <ele>208.823453</ele>
        <time>2022-03-07T07:11:26.484Z</time>
      </trkpt>
      <trkpt lat="42.15272" lon="24.74143">
        <ele>208.946184</ele>
        <time>2022-03-07T07:11:28.472Z</time>
      </trkpt>
      <trkpt lat="42.15271" lon="24.7413">
        <ele>209.063301</ele>
        <time>2022-03-07T07:11:30.443Z</time>
      </trkpt>
      <trkpt lat="42.15271" lon="24.74112">
        <ele>209.239292</ele>
        <time>2022-03-07T07:11:33.458Z</time>
      </trkpt>
      <trkpt lat="42.15272" lon="24.74096">
        <ele>209.391683</ele>
        <time>2022-03-07T07:11:36.452Z</time>
      </trkpt>
      <trkpt lat="42.15272" lon="24.74081">
        <ele>209.540862</ele>
        <time>2022-03-07T07:11:39.479Z</time>
      </trkpt>
      <trkpt lat="42.15271" lon="24.74068">
        <ele>209.656826</ele>
        <time>2022-03-07T07:11:41.462Z</time>
      </trkpt>
      <trkpt lat="42.15271" lon="24.74056">
        <ele>209.780349</ele>
        <time>2022-03-07T07:11:43.445Z</time>
      </trkpt>
      <trkpt lat="42.15269" lon="24.74043">
        <ele>209.902618</ele>
        <time>2022-03-07T07:11:45.474Z</time>
      </trkpt>
      <trkpt lat="42.15268" lon="24.7403">
        <ele>210.024094</ele>
        <time>2022-03-07T07:11:47.459Z</time>
      </trkpt>
      <trkpt lat="42.15268" lon="24.74013">
        <ele>210.184763</ele>
        <time>2022-03-07T07:11:50.437Z</time>
      </trkpt>
      <trkpt lat="42.15268" lon="24.73996">
        <ele>209.75897</ele>
        <time>2022-03-07T07:11:53.462Z</time>
      </trkpt>
      <trkpt lat="42.15267" lon="24.73984">
        <ele>209.43571</ele>
        <time>2022-03-07T07:11:55.515Z</time>
      </trkpt>
      <trkpt lat="42.15267" lon="24.73971">
        <ele>209.112831</ele>
        <time>2022-03-07T07:11:57.472Z</time>
      </trkpt>
      <trkpt lat="42.15267" lon="24.73954">
        <ele>208.654649</ele>
        <time>2022-03-07T07:12:00.466Z</time>
      </trkpt>
      <trkpt lat="42.15267" lon="24.73938">
        <ele>208.233207</ele>
        <time>2022-03-07T07:12:03.462Z</time>
      </trkpt>
      <trkpt lat="42.15267" lon="24.7392">
        <ele>207.783165</ele>
        <time>2022-03-07T07:12:06.508Z</time>
      </trkpt>
      <trkpt lat="42.15264" lon="24.73904">
        <ele>207.338521</ele>
        <time>2022-03-07T07:12:09.459Z</time>
      </trkpt>
      <trkpt lat="42.15262" lon="24.73892">
        <ele>207.021099</ele>
        <time>2022-03-07T07:12:11.464Z</time>
      </trkpt>
      <trkpt lat="42.15264" lon="24.73876">
        <ele>206.616038</ele>
        <time>2022-03-07T07:12:14.460Z</time>
      </trkpt>
      <trkpt lat="42.15265" lon="24.73862">
        <ele>206.246415</ele>
        <time>2022-03-07T07:12:18.453Z</time>
      </trkpt>
      <trkpt lat="42.15258" lon="24.73852">
        <ele>205.89533</ele>
        <time>2022-03-07T07:12:22.446Z</time>
      </trkpt>
      <trkpt lat="42.15256" lon="24.73834">
        <ele>205.419274</ele>
        <time>2022-03-07T07:12:25.469Z</time>
      </trkpt>
      <trkpt lat="42.15263" lon="24.7382">
        <ele>204.98768</ele>
        <time>2022-03-07T07:12:27.473Z</time>
      </trkpt>
      <trkpt lat="42.15269" lon="24.73807">
        <ele>204.566741</ele>
        <time>2022-03-07T07:12:30.462Z</time>
      </trkpt>
      <trkpt lat="42.15271" lon="24.73792">
        <ele>204.174071</ele>
        <time>2022-03-07T07:12:34.481Z</time>
      </trkpt>
      <trkpt lat="42.15272" lon="24.73776">
        <ele>203.935837</ele>
        <time>2022-03-07T07:12:38.469Z</time>
      </trkpt>
      <trkpt lat="42.15272" lon="24.73764">
        <ele>204.091506</ele>
        <time>2022-03-07T07:12:41.458Z</time>
      </trkpt>
      <trkpt lat="42.15271" lon="24.7375">
        <ele>204.263715</ele>
        <time>2022-03-07T07:12:44.473Z</time>
      </trkpt>
      <trkpt lat="42.15271" lon="24.73735">
        <ele>204.457437</ele>
        <time>2022-03-07T07:12:47.462Z</time>
      </trkpt>
      <trkpt lat="42.15271" lon="24.73719">
        <ele>204.665112</ele>
        <time>2022-03-07T07:12:50.471Z</time>
      </trkpt>
      <trkpt lat="42.1527" lon="24.73702">
        <ele>204.87423</ele>
        <time>2022-03-07T07:12:53.469Z</time>
      </trkpt>
      <trkpt lat="42.1527" lon="24.73687">
        <ele>205.071713</ele>
        <time>2022-03-07T07:12:56.455Z</time>
      </trkpt>
      <trkpt lat="42.15269" lon="24.73671">
        <ele>205.271203</ele>
        <time>2022-03-07T07:12:59.454Z</time>
      </trkpt>
      <trkpt lat="42.1527" lon="24.73656">
        <ele>205.470072</ele>
        <time>2022-03-07T07:13:02.462Z</time>
      </trkpt>
      <trkpt lat="42.15271" lon="24.7364">
        <ele>205.668152</ele>
        <time>2022-03-07T07:13:05.491Z</time>
      </trkpt>
      <trkpt lat="42.1527" lon="24.73624">
        <ele>205.873336</ele>
        <time>2022-03-07T07:13:08.517Z</time>
      </trkpt>
      <trkpt lat="42.1527" lon="24.73609">
        <ele>206.068634</ele>
        <time>2022-03-07T07:13:11.482Z</time>
      </trkpt>
      <trkpt lat="42.1527" lon="24.73595">
        <ele>206.249751</ele>
        <time>2022-03-07T07:13:14.452Z</time>
      </trkpt>
      <trkpt lat="42.15271" lon="24.73579">
        <ele>206.453369</ele>
        <time>2022-03-07T07:13:17.456Z</time>
      </trkpt>
      <trkpt lat="42.15272" lon="24.73562">
        <ele>206.668791</ele>
        <time>2022-03-07T07:13:20.469Z</time>
      </trkpt>
      <trkpt lat="42.15272" lon="24.73549">
        <ele>206.828045</ele>
        <time>2022-03-07T07:13:22.464Z</time>
      </trkpt>
      <trkpt lat="42.1527" lon="24.73537">
        <ele>206.980464</ele>
        <time>2022-03-07T07:13:24.467Z</time>
      </trkpt>
      <trkpt lat="42.15271" lon="24.73525">
        <ele>207.108679</ele>
        <time>2022-03-07T07:13:26.462Z</time>
      </trkpt>
      <trkpt lat="42.1527" lon="24.73507">
        <ele>207.290908</ele>
        <time>2022-03-07T07:13:29.507Z</time>
      </trkpt>
      <trkpt lat="42.15269" lon="24.7349">
        <ele>207.467041</ele>
        <time>2022-03-07T07:13:32.464Z</time>
      </trkpt>
      <trkpt lat="42.15268" lon="24.73473">
        <ele>207.646023</ele>
        <time>2022-03-07T07:13:35.443Z</time>
      </trkpt>
      <trkpt lat="42.15267" lon="24.73456">
        <ele>207.820228</ele>
        <time>2022-03-07T07:13:38.463Z</time>
      </trkpt>
      <trkpt lat="42.15266" lon="24.73441">
        <ele>207.976782</ele>
        <time>2022-03-07T07:13:41.466Z</time>
      </trkpt>
      <trkpt lat="42.15266" lon="24.73428">
        <ele>208.114577</ele>
        <time>2022-03-07T07:13:44.451Z</time>
      </trkpt>
      <trkpt lat="42.15266" lon="24.73412">
        <ele>208.27618</ele>
        <time>2022-03-07T07:13:47.457Z</time>
      </trkpt>
      <trkpt lat="42.15266" lon="24.73396">
        <ele>208.440551</ele>
        <time>2022-03-07T07:13:50.475Z</time>
      </trkpt>
      <trkpt lat="42.15267" lon="24.73383">
        <ele>208.582688</ele>
        <time>2022-03-07T07:13:52.458Z</time>
      </trkpt>
      <trkpt lat="42.15268" lon="24.73368">
        <ele>208.735377</ele>
        <time>2022-03-07T07:13:54.491Z</time>
      </trkpt>
      <trkpt lat="42.15269" lon="24.73355">
        <ele>208.866194</ele>
        <time>2022-03-07T07:13:56.467Z</time>
      </trkpt>
      <trkpt lat="42.1527" lon="24.73338">
        <ele>209.043463</ele>
        <time>2022-03-07T07:13:59.458Z</time>
      </trkpt>
      <trkpt lat="42.1527" lon="24.73321">
        <ele>209.227548</ele>
        <time>2022-03-07T07:14:02.485Z</time>
      </trkpt>
      <trkpt lat="42.1527" lon="24.73308">
        <ele>209.352603</ele>
        <time>2022-03-07T07:14:04.446Z</time>
      </trkpt>
      <trkpt lat="42.15271" lon="24.73296">
        <ele>209.476656</ele>
        <time>2022-03-07T07:14:06.454Z</time>
      </trkpt>
      <trkpt lat="42.15272" lon="24.73284">
        <ele>209.446185</ele>
        <time>2022-03-07T07:14:08.491Z</time>
      </trkpt>
      <trkpt lat="42.15272" lon="24.73271">
        <ele>209.415015</ele>
        <time>2022-03-07T07:14:10.463Z</time>
      </trkpt>
      <trkpt lat="42.15272" lon="24.73258">
        <ele>209.38409</ele>
        <time>2022-03-07T07:14:12.464Z</time>
      </trkpt>
      <trkpt lat="42.15272" lon="24.73246">
        <ele>209.353423</ele>
        <time>2022-03-07T07:14:14.467Z</time>
      </trkpt>
      <trkpt lat="42.15272" lon="24.73233">
        <ele>209.321518</ele>
        <time>2022-03-07T07:14:16.470Z</time>
      </trkpt>
      <trkpt lat="42.15273" lon="24.73219">
        <ele>209.288798</ele>
        <time>2022-03-07T07:14:18.464Z</time>
      </trkpt>
      <trkpt lat="42.15273" lon="24.73207">
        <ele>209.257654</ele>
        <time>2022-03-07T07:14:20.448Z</time>
      </trkpt>
      <trkpt lat="42.15273" lon="24.73194">
        <ele>209.226496</ele>
        <time>2022-03-07T07:14:22.463Z</time>
      </trkpt>
      <trkpt lat="42.15273" lon="24.73182">
        <ele>209.196045</ele>
        <time>2022-03-07T07:14:24.478Z</time>
      </trkpt>
      <trkpt lat="42.15272" lon="24.73169">
        <ele>209.165882</ele>
        <time>2022-03-07T07:14:26.530Z</time>
      </trkpt>
      <trkpt lat="42.15273" lon="24.73157">
        <ele>209.135474</ele>
        <time>2022-03-07T07:14:28.458Z</time>
      </trkpt>
      <trkpt lat="42.15273" lon="24.73144">
        <ele>209.104823</ele>
        <time>2022-03-07T07:14:30.454Z</time>
      </trkpt>
      <trkpt lat="42.15273" lon="24.73128">
        <ele>209.063377</ele>
        <time>2022-03-07T07:14:33.472Z</time>
      </trkpt>
      <trkpt lat="42.15273" lon="24.73115">
        <ele>209.031743</ele>
        <time>2022-03-07T07:14:36.463Z</time>
      </trkpt>
      <trkpt lat="42.15268" lon="24.731">
        <ele>208.991939</ele>
        <time>2022-03-07T07:14:39.472Z</time>
      </trkpt>
      <trkpt lat="42.15263" lon="24.73087">
        <ele>208.957167</ele>
        <time>2022-03-07T07:14:41.469Z</time>
      </trkpt>
      <trkpt lat="42.15261" lon="24.73075">
        <ele>208.926767</ele>
        <time>2022-03-07T07:14:43.465Z</time>
      </trkpt>
      <trkpt lat="42.15262" lon="24.73062">
        <ele>208.893378</ele>
        <time>2022-03-07T07:14:45.486Z</time>
      </trkpt>
      <trkpt lat="42.15263" lon="24.73048">
        <ele>208.914406</ele>
        <time>2022-03-07T07:14:47.463Z</time>
      </trkpt>
      <trkpt lat="42.15266" lon="24.73032">
        <ele>208.97318</ele>
        <time>2022-03-07T07:14:50.458Z</time>
      </trkpt>
      <trkpt lat="42.15268" lon="24.73015">
        <ele>209.029671</ele>
        <time>2022-03-07T07:14:53.450Z</time>
      </trkpt>
      <trkpt lat="42.15268" lon="24.72999">
        <ele>209.087552</ele>
        <time>2022-03-07T07:14:56.505Z</time>
      </trkpt>
      <trkpt lat="42.1527" lon="24.72986">
        <ele>209.130903</ele>
        <time>2022-03-07T07:14:59.469Z</time>
      </trkpt>
      <trkpt lat="42.15268" lon="24.72973">
        <ele>209.176149</ele>
        <time>2022-03-07T07:15:12.470Z</time>
      </trkpt>
      <trkpt lat="42.15265" lon="24.72959">
        <ele>209.226212</ele>
        <time>2022-03-07T07:15:16.460Z</time>
      </trkpt>
      <trkpt lat="42.15255" lon="24.72954">
        <ele>209.27438</ele>
        <time>2022-03-07T07:15:19.527Z</time>
      </trkpt>
      <trkpt lat="42.15244" lon="24.72951">
        <ele>209.326503</ele>
        <time>2022-03-07T07:15:22.455Z</time>
      </trkpt>
      <trkpt lat="42.15234" lon="24.72955">
        <ele>209.378107</ele>
        <time>2022-03-07T07:15:25.463Z</time>
      </trkpt>
      <trkpt lat="42.15226" lon="24.72963">
        <ele>209.423975</ele>
        <time>2022-03-07T07:15:28.454Z</time>
      </trkpt>
      <trkpt lat="42.15221" lon="24.72974">
        <ele>209.467406</ele>
        <time>2022-03-07T07:15:31.466Z</time>
      </trkpt>
      <trkpt lat="42.1522" lon="24.72986">
        <ele>209.509661</ele>
        <time>2022-03-07T07:15:34.534Z</time>
      </trkpt>
      <trkpt lat="42.15222" lon="24.73001">
        <ele>209.55928</ele>
        <time>2022-03-07T07:15:38.462Z</time>
      </trkpt>
      <trkpt lat="42.15222" lon="24.73014">
        <ele>209.605091</ele>
        <time>2022-03-07T07:15:42.448Z</time>
      </trkpt>
      <trkpt lat="42.15221" lon="24.73028">
        <ele>209.653111</ele>
        <time>2022-03-07T07:15:46.499Z</time>
      </trkpt>
      <trkpt lat="42.1522" lon="24.73042">
        <ele>209.703088</ele>
        <time>2022-03-07T07:15:50.463Z</time>
      </trkpt>
      <trkpt lat="42.15218" lon="24.73057">
        <ele>209.820457</ele>
        <time>2022-03-07T07:15:54.515Z</time>
      </trkpt>
      <trkpt lat="42.15218" lon="24.73069">
        <ele>209.935963</ele>
        <time>2022-03-07T07:15:57.466Z</time>
      </trkpt>
      <trkpt lat="42.15217" lon="24.73085">
        <ele>210.079404</ele>
        <time>2022-03-07T07:16:01.479Z</time>
      </trkpt>
      <trkpt lat="42.15221" lon="24.73097">
        <ele>210.205464</ele>
        <time>2022-03-07T07:16:05.480Z</time>
      </trkpt>
      <trkpt lat="42.15233" lon="24.73098">
        <ele>210.355931</ele>
        <time>2022-03-07T07:16:09.494Z</time>
      </trkpt>
      <trkpt lat="42.15243" lon="24.73099">
        <ele>210.489904</ele>
        <time>2022-03-07T07:16:13.468Z</time>
      </trkpt>
      <trkpt lat="42.15254" lon="24.731">
        <ele>210.626137</ele>
        <time>2022-03-07T07:16:18.494Z</time>
      </trkpt>
      <trkpt lat="42.15265" lon="24.731">
        <ele>210.766119</ele>
        <time>2022-03-07T07:16:22.456Z</time>
      </trkpt>
      <trkpt lat="42.15274" lon="24.731">
        <ele>210.885701</ele>
        <time>2022-03-07T07:16:25.518Z</time>
      </trkpt>
      <trkpt lat="42.15286" lon="24.73099">
        <ele>211.037225</ele>
        <time>2022-03-07T07:16:29.461Z</time>
      </trkpt>
      <trkpt lat="42.15295" lon="24.73099">
        <ele>211.155546</ele>
        <time>2022-03-07T07:16:32.477Z</time>
      </trkpt>
      <trkpt lat="42.15305" lon="24.73099">
        <ele>211.273856</ele>
        <time>2022-03-07T07:16:35.484Z</time>
      </trkpt>
      <trkpt lat="42.15314" lon="24.731">
        <ele>211.394838</ele>
        <time>2022-03-07T07:16:38.474Z</time>
      </trkpt>
      <trkpt lat="42.15324" lon="24.731">
        <ele>211.518247</ele>
        <time>2022-03-07T07:16:41.460Z</time>
      </trkpt>
      <trkpt lat="42.15333" lon="24.731">
        <ele>211.635466</ele>
        <time>2022-03-07T07:16:44.463Z</time>
      </trkpt>
      <trkpt lat="42.15343" lon="24.73101">
        <ele>211.758918</ele>
        <time>2022-03-07T07:16:47.499Z</time>
      </trkpt>
      <trkpt lat="42.15353" lon="24.73101">
        <ele>211.889949</ele>
        <time>2022-03-07T07:16:50.456Z</time>
      </trkpt>
      <trkpt lat="42.15363" lon="24.73101">
        <ele>212.002005</ele>
        <time>2022-03-07T07:16:53.473Z</time>
      </trkpt>
      <trkpt lat="42.15373" lon="24.73101">
        <ele>211.933404</ele>
        <time>2022-03-07T07:16:56.456Z</time>
      </trkpt>
      <trkpt lat="42.15383" lon="24.73101">
        <ele>211.865493</ele>
        <time>2022-03-07T07:16:59.489Z</time>
      </trkpt>
      <trkpt lat="42.15393" lon="24.73101">
        <ele>211.796196</ele>
        <time>2022-03-07T07:17:02.461Z</time>
      </trkpt>
      <trkpt lat="42.15403" lon="24.73101">
        <ele>211.72482</ele>
        <time>2022-03-07T07:17:05.457Z</time>
      </trkpt>
      <trkpt lat="42.15413" lon="24.73101">
        <ele>211.652708</ele>
        <time>2022-03-07T07:17:08.481Z</time>
      </trkpt>
      <trkpt lat="42.15424" lon="24.73101">
        <ele>211.581327</ele>
        <time>2022-03-07T07:17:11.481Z</time>
      </trkpt>
      <trkpt lat="42.15434" lon="24.73101">
        <ele>211.507153</ele>
        <time>2022-03-07T07:17:14.455Z</time>
      </trkpt>
      <trkpt lat="42.15445" lon="24.73102">
        <ele>211.433</ele>
        <time>2022-03-07T07:17:17.476Z</time>
      </trkpt>
      <trkpt lat="42.15457" lon="24.73102">
        <ele>211.351924</ele>
        <time>2022-03-07T07:17:20.463Z</time>
      </trkpt>
      <trkpt lat="42.15468" lon="24.73102">
        <ele>211.277057</ele>
        <time>2022-03-07T07:17:23.466Z</time>
      </trkpt>
      <trkpt lat="42.15479" lon="24.73102">
        <ele>211.198754</ele>
        <time>2022-03-07T07:17:26.465Z</time>
      </trkpt>
      <trkpt lat="42.15491" lon="24.73102">
        <ele>211.114214</ele>
        <time>2022-03-07T07:17:29.467Z</time>
      </trkpt>
      <trkpt lat="42.155" lon="24.73103">
        <ele>211.049639</ele>
        <time>2022-03-07T07:17:32.497Z</time>
      </trkpt>
      <trkpt lat="42.1551" lon="24.73102">
        <ele>210.985176</ele>
        <time>2022-03-07T07:17:35.437Z</time>
      </trkpt>
      <trkpt lat="42.15521" lon="24.73102">
        <ele>210.906098</ele>
        <time>2022-03-07T07:17:39.479Z</time>
      </trkpt>
      <trkpt lat="42.15531" lon="24.73102">
        <ele>210.839478</ele>
        <time>2022-03-07T07:17:42.492Z</time>
      </trkpt>
      <trkpt lat="42.15541" lon="24.73101">
        <ele>210.769862</ele>
        <time>2022-03-07T07:17:45.476Z</time>
      </trkpt>
      <trkpt lat="42.15551" lon="24.731">
        <ele>210.684776</ele>
        <time>2022-03-07T07:17:48.482Z</time>
      </trkpt>
      <trkpt lat="42.15559" lon="24.73095">
        <ele>210.60838</ele>
        <time>2022-03-07T07:17:51.473Z</time>
      </trkpt>
      <trkpt lat="42.15569" lon="24.73093">
        <ele>210.528697</ele>
        <time>2022-03-07T07:17:54.502Z</time>
      </trkpt>
      <trkpt lat="42.15581" lon="24.73093">
        <ele>210.427709</ele>
        <time>2022-03-07T07:17:57.496Z</time>
      </trkpt>
      <trkpt lat="42.15593" lon="24.73092">
        <ele>210.321526</ele>
        <time>2022-03-07T07:18:00.453Z</time>
      </trkpt>
      <trkpt lat="42.15603" lon="24.73091">
        <ele>210.238024</ele>
        <time>2022-03-07T07:18:02.463Z</time>
      </trkpt>
      <trkpt lat="42.15613" lon="24.7309">
        <ele>210.156201</ele>
        <time>2022-03-07T07:18:04.465Z</time>
      </trkpt>
      <trkpt lat="42.15623" lon="24.73089">
        <ele>210.071093</ele>
        <time>2022-03-07T07:18:06.473Z</time>
      </trkpt>
      <trkpt lat="42.15632" lon="24.73089">
        <ele>209.994388</ele>
        <time>2022-03-07T07:18:08.467Z</time>
      </trkpt>
      <trkpt lat="42.15642" lon="24.73088">
        <ele>209.907527</ele>
        <time>2022-03-07T07:18:12.465Z</time>
      </trkpt>
      <trkpt lat="42.15652" lon="24.73086">
        <ele>209.822921</ele>
        <time>2022-03-07T07:18:18.458Z</time>
      </trkpt>
      <trkpt lat="42.15662" lon="24.73088">
        <ele>209.743401</ele>
        <time>2022-03-07T07:18:22.488Z</time>
      </trkpt>
      <trkpt lat="42.15671" lon="24.73087">
        <ele>209.663298</ele>
        <time>2022-03-07T07:18:25.473Z</time>
      </trkpt>
      <trkpt lat="42.15682" lon="24.73085">
        <ele>209.57172</ele>
        <time>2022-03-07T07:18:28.512Z</time>
      </trkpt>
      <trkpt lat="42.15692" lon="24.73084">
        <ele>209.486578</ele>
        <time>2022-03-07T07:18:31.461Z</time>
      </trkpt>
      <trkpt lat="42.15704" lon="24.73083">
        <ele>209.387479</ele>
        <time>2022-03-07T07:18:34.474Z</time>
      </trkpt>
      <trkpt lat="42.15717" lon="24.73082">
        <ele>209.280486</ele>
        <time>2022-03-07T07:18:37.501Z</time>
      </trkpt>
      <trkpt lat="42.15726" lon="24.7308">
        <ele>209.236863</ele>
        <time>2022-03-07T07:18:39.498Z</time>
      </trkpt>
      <trkpt lat="42.15738" lon="24.7308">
        <ele>209.214567</ele>
        <time>2022-03-07T07:18:42.471Z</time>
      </trkpt>
      <trkpt lat="42.15748" lon="24.7308">
        <ele>209.195232</ele>
        <time>2022-03-07T07:18:45.472Z</time>
      </trkpt>
      <trkpt lat="42.1576" lon="24.73081">
        <ele>209.174591</ele>
        <time>2022-03-07T07:18:48.470Z</time>
      </trkpt>
      <trkpt lat="42.15771" lon="24.73081">
        <ele>209.153582</ele>
        <time>2022-03-07T07:18:52.473Z</time>
      </trkpt>
      <trkpt lat="42.15781" lon="24.73078">
        <ele>209.135125</ele>
        <time>2022-03-07T07:18:58.451Z</time>
      </trkpt>
      <trkpt lat="42.15803" lon="24.73059">
        <ele>209.087399</ele>
        <time>2022-03-07T07:19:31.474Z</time>
      </trkpt>
      <trkpt lat="42.15812" lon="24.73059">
        <ele>209.070089</ele>
        <time>2022-03-07T07:19:34.468Z</time>
      </trkpt>
      <trkpt lat="42.15822" lon="24.73062">
        <ele>209.05042</ele>
        <time>2022-03-07T07:19:37.471Z</time>
      </trkpt>
      <trkpt lat="42.15834" lon="24.7306">
        <ele>209.029503</ele>
        <time>2022-03-07T07:19:40.466Z</time>
      </trkpt>
      <trkpt lat="42.15846" lon="24.73057">
        <ele>209.005873</ele>
        <time>2022-03-07T07:19:43.462Z</time>
      </trkpt>
      <trkpt lat="42.15858" lon="24.73054">
        <ele>208.983922</ele>
        <time>2022-03-07T07:19:46.464Z</time>
      </trkpt>
      <trkpt lat="42.15871" lon="24.73051">
        <ele>208.959665</ele>
        <time>2022-03-07T07:19:49.473Z</time>
      </trkpt>
      <trkpt lat="42.15883" lon="24.73048">
        <ele>208.936758</ele>
        <time>2022-03-07T07:19:52.510Z</time>
      </trkpt>
      <trkpt lat="42.15893" lon="24.73045">
        <ele>208.919273</ele>
        <time>2022-03-07T07:19:54.463Z</time>
      </trkpt>
      <trkpt lat="42.15902" lon="24.73043">
        <ele>208.949047</ele>
        <time>2022-03-07T07:19:56.445Z</time>
      </trkpt>
      <trkpt lat="42.15912" lon="24.7304">
        <ele>208.992604</ele>
        <time>2022-03-07T07:19:58.475Z</time>
      </trkpt>
      <trkpt lat="42.15922" lon="24.73038">
        <ele>209.037726</ele>
        <time>2022-03-07T07:20:00.466Z</time>
      </trkpt>
      <trkpt lat="42.15935" lon="24.73035">
        <ele>209.095479</ele>
        <time>2022-03-07T07:20:03.494Z</time>
      </trkpt>
      <trkpt lat="42.15945" lon="24.73032">
        <ele>209.140125</ele>
        <time>2022-03-07T07:20:05.463Z</time>
      </trkpt>
      <trkpt lat="42.15957" lon="24.73027">
        <ele>209.198165</ele>
        <time>2022-03-07T07:20:08.479Z</time>
      </trkpt>
      <trkpt lat="42.15967" lon="24.73025">
        <ele>209.240392</ele>
        <time>2022-03-07T07:20:10.481Z</time>
      </trkpt>
      <trkpt lat="42.15979" lon="24.73021">
        <ele>209.298038</ele>
        <time>2022-03-07T07:20:13.473Z</time>
      </trkpt>
      <trkpt lat="42.15992" lon="24.73017">
        <ele>209.354467</ele>
        <time>2022-03-07T07:20:16.459Z</time>
      </trkpt>
      <trkpt lat="42.16003" lon="24.73013">
        <ele>209.407389</ele>
        <time>2022-03-07T07:20:19.472Z</time>
      </trkpt>
      <trkpt lat="42.16016" lon="24.73008">
        <ele>209.463933</ele>
        <time>2022-03-07T07:20:22.476Z</time>
      </trkpt>
      <trkpt lat="42.16028" lon="24.73003">
        <ele>209.520691</ele>
        <time>2022-03-07T07:20:25.463Z</time>
      </trkpt>
      <trkpt lat="42.16041" lon="24.72999">
        <ele>209.579487</ele>
        <time>2022-03-07T07:20:28.525Z</time>
      </trkpt>
      <trkpt lat="42.16053" lon="24.72997">
        <ele>209.633752</ele>
        <time>2022-03-07T07:20:31.468Z</time>
      </trkpt>
      <trkpt lat="42.16065" lon="24.72993">
        <ele>209.687518</ele>
        <time>2022-03-07T07:20:34.455Z</time>
      </trkpt>
      <trkpt lat="42.16076" lon="24.72989">
        <ele>209.715067</ele>
        <time>2022-03-07T07:20:37.519Z</time>
      </trkpt>
      <trkpt lat="42.16086" lon="24.72985">
        <ele>209.723</ele>
        <time>2022-03-07T07:20:40.460Z</time>
      </trkpt>
      <trkpt lat="42.16096" lon="24.72982">
        <ele>209.730818</ele>
        <time>2022-03-07T07:20:43.454Z</time>
      </trkpt>
      <trkpt lat="42.16107" lon="24.72977">
        <ele>209.739389</ele>
        <time>2022-03-07T07:20:46.477Z</time>
      </trkpt>
      <trkpt lat="42.16119" lon="24.72971">
        <ele>209.748626</ele>
        <time>2022-03-07T07:20:49.483Z</time>
      </trkpt>
      <trkpt lat="42.16127" lon="24.72963">
        <ele>209.756097</ele>
        <time>2022-03-07T07:20:52.452Z</time>
      </trkpt>
      <trkpt lat="42.16133" lon="24.72954">
        <ele>209.762898</ele>
        <time>2022-03-07T07:20:55.506Z</time>
      </trkpt>
      <trkpt lat="42.16138" lon="24.72943">
        <ele>209.769854</ele>
        <time>2022-03-07T07:20:59.473Z</time>
      </trkpt>
      <trkpt lat="42.16157" lon="24.72956">
        <ele>209.785678</ele>
        <time>2022-03-07T07:22:17.500Z</time>
      </trkpt>
      <trkpt lat="42.16168" lon="24.72956">
        <ele>209.794016</ele>
        <time>2022-03-07T07:22:20.469Z</time>
      </trkpt>
      <trkpt lat="42.16177" lon="24.72947">
        <ele>209.802539</ele>
        <time>2022-03-07T07:22:23.479Z</time>
      </trkpt>
      <trkpt lat="42.16186" lon="24.72934">
        <ele>209.812392</ele>
        <time>2022-03-07T07:22:26.463Z</time>
      </trkpt>
      <trkpt lat="42.16193" lon="24.72923">
        <ele>209.819903</ele>
        <time>2022-03-07T07:22:28.463Z</time>
      </trkpt>
      <trkpt lat="42.162" lon="24.72913">
        <ele>209.827986</ele>
        <time>2022-03-07T07:22:30.503Z</time>
      </trkpt>
      <trkpt lat="42.16209" lon="24.72902">
        <ele>209.836423</ele>
        <time>2022-03-07T07:22:32.475Z</time>
      </trkpt>
      <trkpt lat="42.16216" lon="24.72892">
        <ele>209.843056</ele>
        <time>2022-03-07T07:22:34.464Z</time>
      </trkpt>
      <trkpt lat="42.16223" lon="24.72881">
        <ele>209.743899</ele>
        <time>2022-03-07T07:22:36.486Z</time>
      </trkpt>
      <trkpt lat="42.16232" lon="24.72869">
        <ele>209.631695</ele>
        <time>2022-03-07T07:22:38.477Z</time>
      </trkpt>
      <trkpt lat="42.1624" lon="24.72857">
        <ele>209.520841</ele>
        <time>2022-03-07T07:22:40.503Z</time>
      </trkpt>
      <trkpt lat="42.16248" lon="24.72847">
        <ele>209.422039</ele>
        <time>2022-03-07T07:22:42.507Z</time>
      </trkpt>
      <trkpt lat="42.16255" lon="24.72837">
        <ele>209.329335</ele>
        <time>2022-03-07T07:22:44.477Z</time>
      </trkpt>
      <trkpt lat="42.16262" lon="24.72826">
        <ele>209.231165</ele>
        <time>2022-03-07T07:22:46.459Z</time>
      </trkpt>
      <trkpt lat="42.1627" lon="24.72816">
        <ele>209.133647</ele>
        <time>2022-03-07T07:22:48.469Z</time>
      </trkpt>
      <trkpt lat="42.16277" lon="24.72806">
        <ele>209.039822</ele>
        <time>2022-03-07T07:22:50.477Z</time>
      </trkpt>
      <trkpt lat="42.16285" lon="24.72796">
        <ele>208.938267</ele>
        <time>2022-03-07T07:22:52.474Z</time>
      </trkpt>
      <trkpt lat="42.16293" lon="24.72784">
        <ele>208.826291</ele>
        <time>2022-03-07T07:22:54.466Z</time>
      </trkpt>
      <trkpt lat="42.16301" lon="24.72773">
        <ele>208.727135</ele>
        <time>2022-03-07T07:22:56.471Z</time>
      </trkpt>
      <trkpt lat="42.16307" lon="24.72762">
        <ele>208.630667</ele>
        <time>2022-03-07T07:22:58.502Z</time>
      </trkpt>
      <trkpt lat="42.16315" lon="24.72751">
        <ele>208.530516</ele>
        <time>2022-03-07T07:23:00.483Z</time>
      </trkpt>
      <trkpt lat="42.16323" lon="24.7274">
        <ele>208.422081</ele>
        <time>2022-03-07T07:23:02.509Z</time>
      </trkpt>
      <trkpt lat="42.16332" lon="24.7273">
        <ele>208.316509</ele>
        <time>2022-03-07T07:23:04.470Z</time>
      </trkpt>
      <trkpt lat="42.16339" lon="24.72721">
        <ele>208.224069</ele>
        <time>2022-03-07T07:23:06.490Z</time>
      </trkpt>
      <trkpt lat="42.16348" lon="24.72709">
        <ele>208.499369</ele>
        <time>2022-03-07T07:23:09.503Z</time>
      </trkpt>
      <trkpt lat="42.16357" lon="24.72698">
        <ele>208.857918</ele>
        <time>2022-03-07T07:23:12.455Z</time>
      </trkpt>
      <trkpt lat="42.16365" lon="24.72687">
        <ele>209.209384</ele>
        <time>2022-03-07T07:23:15.460Z</time>
      </trkpt>
      <trkpt lat="42.16373" lon="24.72676">
        <ele>209.550153</ele>
        <time>2022-03-07T07:23:18.476Z</time>
      </trkpt>
      <trkpt lat="42.16381" lon="24.72663">
        <ele>209.940354</ele>
        <time>2022-03-07T07:23:21.475Z</time>
      </trkpt>
      <trkpt lat="42.16389" lon="24.72651">
        <ele>210.31363</ele>
        <time>2022-03-07T07:23:24.476Z</time>
      </trkpt>
      <trkpt lat="42.16397" lon="24.72641">
        <ele>210.627715</ele>
        <time>2022-03-07T07:23:27.474Z</time>
      </trkpt>
      <trkpt lat="42.16404" lon="24.7263">
        <ele>210.973312</ele>
        <time>2022-03-07T07:23:30.474Z</time>
      </trkpt>
      <trkpt lat="42.16411" lon="24.72619">
        <ele>211.282523</ele>
        <time>2022-03-07T07:23:33.477Z</time>
      </trkpt>
      <trkpt lat="42.16418" lon="24.7261">
        <ele>211.570337</ele>
        <time>2022-03-07T07:23:36.470Z</time>
      </trkpt>
      <trkpt lat="42.16425" lon="24.726">
        <ele>211.885274</ele>
        <time>2022-03-07T07:23:39.492Z</time>
      </trkpt>
      <trkpt lat="42.16432" lon="24.72589">
        <ele>212.232916</ele>
        <time>2022-03-07T07:23:42.511Z</time>
      </trkpt>
      <trkpt lat="42.1644" lon="24.72578">
        <ele>212.573155</ele>
        <time>2022-03-07T07:23:45.487Z</time>
      </trkpt>
      <trkpt lat="42.16448" lon="24.72567">
        <ele>212.915012</ele>
        <time>2022-03-07T07:23:48.478Z</time>
      </trkpt>
      <trkpt lat="42.16455" lon="24.72556">
        <ele>213.247298</ele>
        <time>2022-03-07T07:23:51.458Z</time>
      </trkpt>
      <trkpt lat="42.16464" lon="24.72545">
        <ele>213.614923</ele>
        <time>2022-03-07T07:23:54.493Z</time>
      </trkpt>
      <trkpt lat="42.16472" lon="24.72534">
        <ele>213.760937</ele>
        <time>2022-03-07T07:23:57.477Z</time>
      </trkpt>
      <trkpt lat="42.16481" lon="24.72524">
        <ele>213.870005</ele>
        <time>2022-03-07T07:24:00.474Z</time>
      </trkpt>
      <trkpt lat="42.16489" lon="24.72513">
        <ele>213.978205</ele>
        <time>2022-03-07T07:24:03.507Z</time>
      </trkpt>
      <trkpt lat="42.16497" lon="24.72503">
        <ele>214.081487</ele>
        <time>2022-03-07T07:24:06.465Z</time>
      </trkpt>
      <trkpt lat="42.16504" lon="24.72492">
        <ele>214.183406</ele>
        <time>2022-03-07T07:24:09.479Z</time>
      </trkpt>
      <trkpt lat="42.16513" lon="24.72484">
        <ele>214.280652</ele>
        <time>2022-03-07T07:24:12.503Z</time>
      </trkpt>
      <trkpt lat="42.1652" lon="24.72476">
        <ele>214.372114</ele>
        <time>2022-03-07T07:24:15.470Z</time>
      </trkpt>
      <trkpt lat="42.16528" lon="24.72466">
        <ele>214.471202</ele>
        <time>2022-03-07T07:24:18.477Z</time>
      </trkpt>
      <trkpt lat="42.16537" lon="24.72456">
        <ele>214.577481</ele>
        <time>2022-03-07T07:24:21.449Z</time>
      </trkpt>
      <trkpt lat="42.16545" lon="24.72446">
        <ele>214.67825</ele>
        <time>2022-03-07T07:24:24.475Z</time>
      </trkpt>
      <trkpt lat="42.16554" lon="24.72434">
        <ele>214.800106</ele>
        <time>2022-03-07T07:24:27.511Z</time>
      </trkpt>
      <trkpt lat="42.16565" lon="24.72423">
        <ele>214.928332</ele>
        <time>2022-03-07T07:24:30.473Z</time>
      </trkpt>
      <trkpt lat="42.16573" lon="24.72414">
        <ele>215.029122</ele>
        <time>2022-03-07T07:24:32.462Z</time>
      </trkpt>
      <trkpt lat="42.16581" lon="24.72406">
        <ele>215.120584</ele>
        <time>2022-03-07T07:24:34.516Z</time>
      </trkpt>
      <trkpt lat="42.16591" lon="24.72393">
        <ele>215.246865</ele>
        <time>2022-03-07T07:24:37.479Z</time>
      </trkpt>
      <trkpt lat="42.16599" lon="24.72384">
        <ele>215.347572</ele>
        <time>2022-03-07T07:24:39.483Z</time>
      </trkpt>
      <trkpt lat="42.16606" lon="24.72374">
        <ele>215.17483</ele>
        <time>2022-03-07T07:24:41.460Z</time>
      </trkpt>
      <trkpt lat="42.16616" lon="24.72362">
        <ele>214.888109</ele>
        <time>2022-03-07T07:24:44.470Z</time>
      </trkpt>
      <trkpt lat="42.16625" lon="24.7235">
        <ele>214.606173</ele>
        <time>2022-03-07T07:24:47.464Z</time>
      </trkpt>
      <trkpt lat="42.16635" lon="24.72339">
        <ele>214.326473</ele>
        <time>2022-03-07T07:24:50.463Z</time>
      </trkpt>
      <trkpt lat="42.16644" lon="24.72327">
        <ele>214.046773</ele>
        <time>2022-03-07T07:24:53.469Z</time>
      </trkpt>
      <trkpt lat="42.16654" lon="24.72316">
        <ele>213.759669</ele>
        <time>2022-03-07T07:24:56.531Z</time>
      </trkpt>
      <trkpt lat="42.16664" lon="24.72304">
        <ele>213.470731</ele>
        <time>2022-03-07T07:24:59.455Z</time>
      </trkpt>
      <trkpt lat="42.1667" lon="24.72295">
        <ele>213.273058</ele>
        <time>2022-03-07T07:25:01.455Z</time>
      </trkpt>
      <trkpt lat="42.16677" lon="24.72287">
        <ele>213.064014</ele>
        <time>2022-03-07T07:25:03.481Z</time>
      </trkpt>
      <trkpt lat="42.16684" lon="24.72278">
        <ele>212.864733</ele>
        <time>2022-03-07T07:25:05.472Z</time>
      </trkpt>
      <trkpt lat="42.16692" lon="24.7227">
        <ele>212.654255</ele>
        <time>2022-03-07T07:25:07.462Z</time>
      </trkpt>
      <trkpt lat="42.16699" lon="24.72263">
        <ele>212.449514</ele>
        <time>2022-03-07T07:25:09.458Z</time>
      </trkpt>
      <trkpt lat="42.16706" lon="24.72255">
        <ele>212.25061</ele>
        <time>2022-03-07T07:25:11.482Z</time>
      </trkpt>
      <trkpt lat="42.16713" lon="24.72247">
        <ele>212.047508</ele>
        <time>2022-03-07T07:25:13.507Z</time>
      </trkpt>
      <trkpt lat="42.16723" lon="24.72235">
        <ele>211.767172</ele>
        <time>2022-03-07T07:25:16.473Z</time>
      </trkpt>
      <trkpt lat="42.16732" lon="24.72225">
        <ele>211.495391</ele>
        <time>2022-03-07T07:25:19.461Z</time>
      </trkpt>
      <trkpt lat="42.16742" lon="24.72214">
        <ele>211.279338</ele>
        <time>2022-03-07T07:25:22.507Z</time>
      </trkpt>
      <trkpt lat="42.16751" lon="24.72202">
        <ele>211.084153</ele>
        <time>2022-03-07T07:25:25.465Z</time>
      </trkpt>
      <trkpt lat="42.16758" lon="24.72194">
        <ele>210.946624</ele>
        <time>2022-03-07T07:25:27.475Z</time>
      </trkpt>
      <trkpt lat="42.16765" lon="24.72186">
        <ele>210.809094</ele>
        <time>2022-03-07T07:25:29.476Z</time>
      </trkpt>
      <trkpt lat="42.16772" lon="24.72178">
        <ele>210.670121</ele>
        <time>2022-03-07T07:25:31.461Z</time>
      </trkpt>
      <trkpt lat="42.16779" lon="24.72169">
        <ele>210.530812</ele>
        <time>2022-03-07T07:25:33.473Z</time>
      </trkpt>
      <trkpt lat="42.16786" lon="24.72161">
        <ele>210.390757</ele>
        <time>2022-03-07T07:25:35.500Z</time>
      </trkpt>
      <trkpt lat="42.16796" lon="24.72149">
        <ele>210.194296</ele>
        <time>2022-03-07T07:25:38.477Z</time>
      </trkpt>
      <trkpt lat="42.16805" lon="24.72138">
        <ele>210.002306</ele>
        <time>2022-03-07T07:25:41.495Z</time>
      </trkpt>
      <trkpt lat="42.16815" lon="24.72127">
        <ele>209.814654</ele>
        <time>2022-03-07T07:25:44.463Z</time>
      </trkpt>
      <trkpt lat="42.16825" lon="24.72116">
        <ele>209.624125</ele>
        <time>2022-03-07T07:25:47.471Z</time>
      </trkpt>
      <trkpt lat="42.16834" lon="24.72104">
        <ele>209.429916</ele>
        <time>2022-03-07T07:25:50.478Z</time>
      </trkpt>
      <trkpt lat="42.16844" lon="24.72093">
        <ele>209.233093</ele>
        <time>2022-03-07T07:25:53.464Z</time>
      </trkpt>
      <trkpt lat="42.16851" lon="24.72085">
        <ele>209.092532</ele>
        <time>2022-03-07T07:25:55.471Z</time>
      </trkpt>
      <trkpt lat="42.16861" lon="24.72073">
        <ele>208.891921</ele>
        <time>2022-03-07T07:25:58.476Z</time>
      </trkpt>
      <trkpt lat="42.16869" lon="24.72065">
        <ele>208.748019</ele>
        <time>2022-03-07T07:26:00.478Z</time>
      </trkpt>
      <trkpt lat="42.16877" lon="24.72057">
        <ele>208.810029</ele>
        <time>2022-03-07T07:26:02.492Z</time>
      </trkpt>
      <trkpt lat="42.16884" lon="24.72049">
        <ele>208.9372</ele>
        <time>2022-03-07T07:26:04.484Z</time>
      </trkpt>
      <trkpt lat="42.16894" lon="24.72037">
        <ele>209.112039</ele>
        <time>2022-03-07T07:26:07.475Z</time>
      </trkpt>
      <trkpt lat="42.16903" lon="24.72027">
        <ele>209.274576</ele>
        <time>2022-03-07T07:26:10.476Z</time>
      </trkpt>
      <trkpt lat="42.16911" lon="24.72017">
        <ele>209.419905</ele>
        <time>2022-03-07T07:26:13.475Z</time>
      </trkpt>
      <trkpt lat="42.1692" lon="24.72006">
        <ele>209.576205</ele>
        <time>2022-03-07T07:26:16.475Z</time>
      </trkpt>
      <trkpt lat="42.16926" lon="24.71998">
        <ele>209.701604</ele>
        <time>2022-03-07T07:26:18.461Z</time>
      </trkpt>
      <trkpt lat="42.16936" lon="24.71986">
        <ele>209.874183</ele>
        <time>2022-03-07T07:26:21.471Z</time>
      </trkpt>
      <trkpt lat="42.16945" lon="24.71973">
        <ele>210.049992</ele>
        <time>2022-03-07T07:26:24.463Z</time>
      </trkpt>
      <trkpt lat="42.16951" lon="24.71965">
        <ele>210.170992</ele>
        <time>2022-03-07T07:26:26.454Z</time>
      </trkpt>
      <trkpt lat="42.16961" lon="24.71953">
        <ele>210.347147</ele>
        <time>2022-03-07T07:26:29.469Z</time>
      </trkpt>
      <trkpt lat="42.16968" lon="24.71945">
        <ele>210.469132</ele>
        <time>2022-03-07T07:26:31.491Z</time>
      </trkpt>
      <trkpt lat="42.16978" lon="24.71933">
        <ele>210.647297</ele>
        <time>2022-03-07T07:26:34.465Z</time>
      </trkpt>
      <trkpt lat="42.16985" lon="24.71925">
        <ele>210.768421</ele>
        <time>2022-03-07T07:26:36.493Z</time>
      </trkpt>
      <trkpt lat="42.16992" lon="24.71917">
        <ele>210.891635</ele>
        <time>2022-03-07T07:26:38.472Z</time>
      </trkpt>
      <trkpt lat="42.16999" lon="24.7191">
        <ele>211.0138</ele>
        <time>2022-03-07T07:26:40.477Z</time>
      </trkpt>
      <trkpt lat="42.17006" lon="24.71902">
        <ele>211.154694</ele>
        <time>2022-03-07T07:26:42.467Z</time>
      </trkpt>
      <trkpt lat="42.17016" lon="24.7189">
        <ele>211.629414</ele>
        <time>2022-03-07T07:26:45.483Z</time>
      </trkpt>
      <trkpt lat="42.17026" lon="24.71879">
        <ele>212.094904</ele>
        <time>2022-03-07T07:26:48.461Z</time>
      </trkpt>
      <trkpt lat="42.17036" lon="24.71868">
        <ele>212.562717</ele>
        <time>2022-03-07T07:26:51.473Z</time>
      </trkpt>
      <trkpt lat="42.17046" lon="24.71857">
        <ele>213.015991</ele>
        <time>2022-03-07T07:26:54.486Z</time>
      </trkpt>
      <trkpt lat="42.17054" lon="24.71846">
        <ele>213.421789</ele>
        <time>2022-03-07T07:26:57.475Z</time>
      </trkpt>
      <trkpt lat="42.17062" lon="24.71839">
        <ele>213.765423</ele>
        <time>2022-03-07T07:27:00.505Z</time>
      </trkpt>
      <trkpt lat="42.17072" lon="24.71827">
        <ele>214.228236</ele>
        <time>2022-03-07T07:28:51.458Z</time>
      </trkpt>
      <trkpt lat="42.17077" lon="24.71815">
        <ele>214.599051</ele>
        <time>2022-03-07T07:28:55.488Z</time>
      </trkpt>
      <trkpt lat="42.17083" lon="24.71801">
        <ele>215.018691</ele>
        <time>2022-03-07T07:28:59.457Z</time>
      </trkpt>
      <trkpt lat="42.1709" lon="24.71787">
        <ele>215.460049</ele>
        <time>2022-03-07T07:29:02.473Z</time>
      </trkpt>
      <trkpt lat="42.17096" lon="24.71777">
        <ele>215.813255</ele>
        <time>2022-03-07T07:29:04.486Z</time>
      </trkpt>
      <trkpt lat="42.17102" lon="24.71767">
        <ele>216.155676</ele>
        <time>2022-03-07T07:29:06.506Z</time>
      </trkpt>
      <trkpt lat="42.1711" lon="24.71754">
        <ele>216.611224</ele>
        <time>2022-03-07T07:29:09.469Z</time>
      </trkpt>
      <trkpt lat="42.17116" lon="24.71744">
        <ele>216.938954</ele>
        <time>2022-03-07T07:29:11.458Z</time>
      </trkpt>
      <trkpt lat="42.17123" lon="24.71731">
        <ele>217.379688</ele>
        <time>2022-03-07T07:29:14.472Z</time>
      </trkpt>
      <trkpt lat="42.17132" lon="24.71718">
        <ele>217.463773</ele>
        <time>2022-03-07T07:29:17.458Z</time>
      </trkpt>
      <trkpt lat="42.17141" lon="24.71706">
        <ele>217.317251</ele>
        <time>2022-03-07T07:29:20.455Z</time>
      </trkpt>
      <trkpt lat="42.17151" lon="24.71695">
        <ele>217.169665</ele>
        <time>2022-03-07T07:29:23.472Z</time>
      </trkpt>
      <trkpt lat="42.1716" lon="24.71682">
        <ele>217.0246</ele>
        <time>2022-03-07T07:29:26.461Z</time>
      </trkpt>
      <trkpt lat="42.17168" lon="24.71667">
        <ele>216.869331</ele>
        <time>2022-03-07T07:29:29.478Z</time>
      </trkpt>
      <trkpt lat="42.17173" lon="24.71657">
        <ele>216.758129</ele>
        <time>2022-03-07T07:29:31.475Z</time>
      </trkpt>
      <trkpt lat="42.1718" lon="24.71646">
        <ele>216.644175</ele>
        <time>2022-03-07T07:29:33.472Z</time>
      </trkpt>
      <trkpt lat="42.17186" lon="24.71636">
        <ele>216.532954</ele>
        <time>2022-03-07T07:29:35.477Z</time>
      </trkpt>
      <trkpt lat="42.17191" lon="24.71626">
        <ele>216.429217</ele>
        <time>2022-03-07T07:29:37.473Z</time>
      </trkpt>
      <trkpt lat="42.17197" lon="24.71616">
        <ele>216.324621</ele>
        <time>2022-03-07T07:29:39.511Z</time>
      </trkpt>
      <trkpt lat="42.17203" lon="24.71607">
        <ele>216.2201</ele>
        <time>2022-03-07T07:29:41.462Z</time>
      </trkpt>
      <trkpt lat="42.17212" lon="24.71594">
        <ele>216.072601</ele>
        <time>2022-03-07T07:29:44.482Z</time>
      </trkpt>
      <trkpt lat="42.1722" lon="24.71582">
        <ele>215.932522</ele>
        <time>2022-03-07T07:29:47.471Z</time>
      </trkpt>
      <trkpt lat="42.17226" lon="24.71573">
        <ele>215.827926</ele>
        <time>2022-03-07T07:29:49.475Z</time>
      </trkpt>
      <trkpt lat="42.17235" lon="24.71559">
        <ele>215.673099</ele>
        <time>2022-03-07T07:29:52.463Z</time>
      </trkpt>
      <trkpt lat="42.17241" lon="24.71549">
        <ele>215.567663</ele>
        <time>2022-03-07T07:29:54.449Z</time>
      </trkpt>
      <trkpt lat="42.17247" lon="24.7154">
        <ele>215.359452</ele>
        <time>2022-03-07T07:29:56.470Z</time>
      </trkpt>
      <trkpt lat="42.17253" lon="24.71531">
        <ele>214.965616</ele>
        <time>2022-03-07T07:29:58.475Z</time>
      </trkpt>
      <trkpt lat="42.1726" lon="24.71521">
        <ele>214.563854</ele>
        <time>2022-03-07T07:30:00.471Z</time>
      </trkpt>
      <trkpt lat="42.17267" lon="24.71512">
        <ele>214.16719</ele>
        <time>2022-03-07T07:30:02.469Z</time>
      </trkpt>
      <trkpt lat="42.17273" lon="24.71502">
        <ele>213.774307</ele>
        <time>2022-03-07T07:30:04.484Z</time>
      </trkpt>
      <trkpt lat="42.17279" lon="24.71493">
        <ele>213.394577</ele>
        <time>2022-03-07T07:30:06.540Z</time>
      </trkpt>
      <trkpt lat="42.17285" lon="24.71485">
        <ele>213.016365</ele>
        <time>2022-03-07T07:30:08.472Z</time>
      </trkpt>
      <trkpt lat="42.17292" lon="24.71475">
        <ele>212.628114</ele>
        <time>2022-03-07T07:30:10.462Z</time>
      </trkpt>
      <trkpt lat="42.17298" lon="24.71465">
        <ele>212.23325</ele>
        <time>2022-03-07T07:30:12.489Z</time>
      </trkpt>
      <trkpt lat="42.17304" lon="24.71456">
        <ele>211.84105</ele>
        <time>2022-03-07T07:30:14.474Z</time>
      </trkpt>
      <trkpt lat="42.1731" lon="24.71446">
        <ele>211.441145</ele>
        <time>2022-03-07T07:30:16.472Z</time>
      </trkpt>
      <trkpt lat="42.17316" lon="24.71436">
        <ele>211.045033</ele>
        <time>2022-03-07T07:30:18.490Z</time>
      </trkpt>
      <trkpt lat="42.17322" lon="24.71427">
        <ele>210.666922</ele>
        <time>2022-03-07T07:30:20.508Z</time>
      </trkpt>
      <trkpt lat="42.17328" lon="24.71418">
        <ele>210.281815</ele>
        <time>2022-03-07T07:30:22.470Z</time>
      </trkpt>
      <trkpt lat="42.17334" lon="24.71408">
        <ele>209.899394</ele>
        <time>2022-03-07T07:30:24.458Z</time>
      </trkpt>
      <trkpt lat="42.1734" lon="24.71399">
        <ele>209.514287</ele>
        <time>2022-03-07T07:30:26.458Z</time>
      </trkpt>
      <trkpt lat="42.17349" lon="24.71385">
        <ele>208.960341</ele>
        <time>2022-03-07T07:30:29.478Z</time>
      </trkpt>
      <trkpt lat="42.17357" lon="24.71371">
        <ele>208.407187</ele>
        <time>2022-03-07T07:30:32.486Z</time>
      </trkpt>
      <trkpt lat="42.17363" lon="24.71361">
        <ele>208.035245</ele>
        <time>2022-03-07T07:30:34.464Z</time>
      </trkpt>
      <trkpt lat="42.17369" lon="24.71352">
        <ele>208.071931</ele>
        <time>2022-03-07T07:30:36.450Z</time>
      </trkpt>
      <trkpt lat="42.17375" lon="24.71343">
        <ele>208.131019</ele>
        <time>2022-03-07T07:30:38.469Z</time>
      </trkpt>
      <trkpt lat="42.17381" lon="24.71333">
        <ele>208.189676</ele>
        <time>2022-03-07T07:30:40.479Z</time>
      </trkpt>
      <trkpt lat="42.17387" lon="24.71324">
        <ele>208.247908</ele>
        <time>2022-03-07T07:30:42.492Z</time>
      </trkpt>
      <trkpt lat="42.17393" lon="24.71315">
        <ele>208.305788</ele>
        <time>2022-03-07T07:30:44.466Z</time>
      </trkpt>
      <trkpt lat="42.17402" lon="24.71301">
        <ele>208.391308</ele>
        <time>2022-03-07T07:30:47.485Z</time>
      </trkpt>
      <trkpt lat="42.17411" lon="24.71288">
        <ele>208.47506</ele>
        <time>2022-03-07T07:30:50.475Z</time>
      </trkpt>
      <trkpt lat="42.17419" lon="24.71274">
        <ele>208.559664</ele>
        <time>2022-03-07T07:30:53.490Z</time>
      </trkpt>
      <trkpt lat="42.17428" lon="24.7126">
        <ele>208.644671</ele>
        <time>2022-03-07T07:30:56.467Z</time>
      </trkpt>
      <trkpt lat="42.17437" lon="24.71247">
        <ele>208.729062</ele>
        <time>2022-03-07T07:30:59.442Z</time>
      </trkpt>
      <trkpt lat="42.17443" lon="24.71237">
        <ele>208.788712</ele>
        <time>2022-03-07T07:31:01.479Z</time>
      </trkpt>
      <trkpt lat="42.17449" lon="24.71228">
        <ele>208.846819</ele>
        <time>2022-03-07T07:31:03.473Z</time>
      </trkpt>
      <trkpt lat="42.17457" lon="24.71214">
        <ele>208.931463</ele>
        <time>2022-03-07T07:31:06.471Z</time>
      </trkpt>
      <trkpt lat="42.17465" lon="24.712">
        <ele>209.014933</ele>
        <time>2022-03-07T07:31:09.471Z</time>
      </trkpt>
      <trkpt lat="42.17473" lon="24.71187">
        <ele>209.095703</ele>
        <time>2022-03-07T07:31:12.466Z</time>
      </trkpt>
      <trkpt lat="42.17481" lon="24.71174">
        <ele>209.202139</ele>
        <time>2022-03-07T07:31:15.470Z</time>
      </trkpt>
      <trkpt lat="42.1749" lon="24.71161">
        <ele>209.414652</ele>
        <time>2022-03-07T07:31:18.515Z</time>
      </trkpt>
      <trkpt lat="42.17498" lon="24.71147">
        <ele>209.631217</ele>
        <time>2022-03-07T07:31:21.454Z</time>
      </trkpt>
      <trkpt lat="42.17506" lon="24.71134">
        <ele>209.837549</ele>
        <time>2022-03-07T07:31:24.494Z</time>
      </trkpt>
      <trkpt lat="42.17514" lon="24.71121">
        <ele>210.046859</ele>
        <time>2022-03-07T07:31:27.474Z</time>
      </trkpt>
      <trkpt lat="42.17522" lon="24.71108">
        <ele>210.270452</ele>
        <time>2022-03-07T07:31:30.475Z</time>
      </trkpt>
      <trkpt lat="42.1753" lon="24.71093">
        <ele>210.493511</ele>
        <time>2022-03-07T07:31:33.475Z</time>
      </trkpt>
      <trkpt lat="42.17538" lon="24.71079">
        <ele>210.708581</ele>
        <time>2022-03-07T07:31:36.535Z</time>
      </trkpt>
      <trkpt lat="42.17546" lon="24.71066">
        <ele>210.922799</ele>
        <time>2022-03-07T07:31:39.482Z</time>
      </trkpt>
      <trkpt lat="42.17552" lon="24.71057">
        <ele>211.074677</ele>
        <time>2022-03-07T07:31:41.467Z</time>
      </trkpt>
      <trkpt lat="42.17558" lon="24.71047">
        <ele>211.230828</ele>
        <time>2022-03-07T07:31:43.500Z</time>
      </trkpt>
      <trkpt lat="42.17565" lon="24.71038">
        <ele>211.395976</ele>
        <time>2022-03-07T07:31:45.474Z</time>
      </trkpt>
      <trkpt lat="42.17572" lon="24.71029">
        <ele>211.553043</ele>
        <time>2022-03-07T07:31:47.510Z</time>
      </trkpt>
      <trkpt lat="42.17578" lon="24.71019">
        <ele>211.711032</ele>
        <time>2022-03-07T07:31:49.465Z</time>
      </trkpt>
      <trkpt lat="42.17584" lon="24.7101">
        <ele>211.861668</ele>
        <time>2022-03-07T07:31:51.461Z</time>
      </trkpt>
      <trkpt lat="42.1759" lon="24.71001">
        <ele>212.016906</ele>
        <time>2022-03-07T07:31:53.454Z</time>
      </trkpt>
      <trkpt lat="42.17596" lon="24.70992">
        <ele>212.167724</ele>
        <time>2022-03-07T07:31:55.454Z</time>
      </trkpt>
      <trkpt lat="42.17603" lon="24.70983">
        <ele>212.150954</ele>
        <time>2022-03-07T07:31:57.479Z</time>
      </trkpt>
      <trkpt lat="42.17609" lon="24.70973">
        <ele>212.134109</ele>
        <time>2022-03-07T07:31:59.474Z</time>
      </trkpt>
      <trkpt lat="42.17617" lon="24.7096">
        <ele>212.110151</ele>
        <time>2022-03-07T07:32:02.460Z</time>
      </trkpt>
      <trkpt lat="42.17626" lon="24.70947">
        <ele>212.087428</ele>
        <time>2022-03-07T07:32:05.478Z</time>
      </trkpt>
      <trkpt lat="42.17634" lon="24.70934">
        <ele>212.064684</ele>
        <time>2022-03-07T07:32:08.454Z</time>
      </trkpt>
      <trkpt lat="42.17642" lon="24.70921">
        <ele>212.041781</ele>
        <time>2022-03-07T07:32:11.459Z</time>
      </trkpt>
      <trkpt lat="42.17651" lon="24.70908">
        <ele>212.017891</ele>
        <time>2022-03-07T07:32:14.467Z</time>
      </trkpt>
      <trkpt lat="42.17657" lon="24.70899">
        <ele>212.001303</ele>
        <time>2022-03-07T07:32:16.483Z</time>
      </trkpt>
      <trkpt lat="42.17665" lon="24.70885">
        <ele>211.977873</ele>
        <time>2022-03-07T07:32:19.479Z</time>
      </trkpt>
      <trkpt lat="42.17674" lon="24.70872">
        <ele>211.953915</ele>
        <time>2022-03-07T07:32:22.470Z</time>
      </trkpt>
      <trkpt lat="42.17682" lon="24.70858">
        <ele>211.930096</ele>
        <time>2022-03-07T07:32:25.480Z</time>
      </trkpt>
      <trkpt lat="42.1769" lon="24.70844">
        <ele>211.905734</ele>
        <time>2022-03-07T07:32:28.463Z</time>
      </trkpt>
      <trkpt lat="42.17698" lon="24.7083">
        <ele>211.88202</ele>
        <time>2022-03-07T07:32:31.503Z</time>
      </trkpt>
      <trkpt lat="42.17706" lon="24.70817">
        <ele>211.859265</ele>
        <time>2022-03-07T07:32:34.474Z</time>
      </trkpt>
      <trkpt lat="42.17714" lon="24.70803">
        <ele>211.808144</ele>
        <time>2022-03-07T07:32:37.479Z</time>
      </trkpt>
      <trkpt lat="42.17722" lon="24.70791">
        <ele>211.662974</ele>
        <time>2022-03-07T07:32:40.463Z</time>
      </trkpt>
      <trkpt lat="42.1773" lon="24.70778">
        <ele>211.514906</ele>
        <time>2022-03-07T07:32:43.481Z</time>
      </trkpt>
      <trkpt lat="42.17739" lon="24.70766">
        <ele>211.363938</ele>
        <time>2022-03-07T07:32:46.487Z</time>
      </trkpt>
      <trkpt lat="42.17747" lon="24.70753">
        <ele>211.214139</ele>
        <time>2022-03-07T07:32:49.478Z</time>
      </trkpt>
      <trkpt lat="42.17756" lon="24.7074">
        <ele>211.057698</ele>
        <time>2022-03-07T07:32:52.482Z</time>
      </trkpt>
      <trkpt lat="42.17765" lon="24.70727">
        <ele>210.902505</ele>
        <time>2022-03-07T07:32:55.467Z</time>
      </trkpt>
      <trkpt lat="42.17773" lon="24.70713">
        <ele>210.748443</ele>
        <time>2022-03-07T07:32:58.460Z</time>
      </trkpt>
      <trkpt lat="42.17781" lon="24.707">
        <ele>210.599237</ele>
        <time>2022-03-07T07:33:01.478Z</time>
      </trkpt>
      <trkpt lat="42.17789" lon="24.70687">
        <ele>210.444707</ele>
        <time>2022-03-07T07:33:04.473Z</time>
      </trkpt>
      <trkpt lat="42.17798" lon="24.70674">
        <ele>210.291941</ele>
        <time>2022-03-07T07:33:07.475Z</time>
      </trkpt>
      <trkpt lat="42.17806" lon="24.70661">
        <ele>210.133055</ele>
        <time>2022-03-07T07:33:10.519Z</time>
      </trkpt>
      <trkpt lat="42.17813" lon="24.70652">
        <ele>210.023553</ele>
        <time>2022-03-07T07:33:12.458Z</time>
      </trkpt>
      <trkpt lat="42.17822" lon="24.70638">
        <ele>209.864915</ele>
        <time>2022-03-07T07:33:15.471Z</time>
      </trkpt>
      <trkpt lat="42.1783" lon="24.70625">
        <ele>209.711286</ele>
        <time>2022-03-07T07:33:18.459Z</time>
      </trkpt>
      <trkpt lat="42.17838" lon="24.70611">
        <ele>209.598846</ele>
        <time>2022-03-07T07:33:21.460Z</time>
      </trkpt>
      <trkpt lat="42.17844" lon="24.70602">
        <ele>209.521112</ele>
        <time>2022-03-07T07:33:23.498Z</time>
      </trkpt>
      <trkpt lat="42.17853" lon="24.70588">
        <ele>209.409541</ele>
        <time>2022-03-07T07:33:26.513Z</time>
      </trkpt>
      <trkpt lat="42.17862" lon="24.70575">
        <ele>209.300094</ele>
        <time>2022-03-07T07:33:29.458Z</time>
      </trkpt>
      <trkpt lat="42.17868" lon="24.70567">
        <ele>209.224724</ele>
        <time>2022-03-07T07:33:31.461Z</time>
      </trkpt>
      <trkpt lat="42.17875" lon="24.70558">
        <ele>209.148326</ele>
        <time>2022-03-07T07:33:33.479Z</time>
      </trkpt>
      <trkpt lat="42.17883" lon="24.70544">
        <ele>209.038367</ele>
        <time>2022-03-07T07:33:36.469Z</time>
      </trkpt>
      <trkpt lat="42.17889" lon="24.70535">
        <ele>208.963399</ele>
        <time>2022-03-07T07:33:38.469Z</time>
      </trkpt>
      <trkpt lat="42.17899" lon="24.70523">
        <ele>208.852554</ele>
        <time>2022-03-07T07:33:41.475Z</time>
      </trkpt>
      <trkpt lat="42.17911" lon="24.7052">
        <ele>208.751176</ele>
        <time>2022-03-07T07:33:44.463Z</time>
      </trkpt>
      <trkpt lat="42.17921" lon="24.70529">
        <ele>208.649446</ele>
        <time>2022-03-07T07:33:47.516Z</time>
      </trkpt>
      <trkpt lat="42.17932" lon="24.70535">
        <ele>208.548736</ele>
        <time>2022-03-07T07:33:50.480Z</time>
      </trkpt>
      <trkpt lat="42.17941" lon="24.70539">
        <ele>208.472979</ele>
        <time>2022-03-07T07:33:53.475Z</time>
      </trkpt>
      <trkpt lat="42.17953" lon="24.70545">
        <ele>208.370745</ele>
        <time>2022-03-07T07:33:57.478Z</time>
      </trkpt>
      <trkpt lat="42.17963" lon="24.70547">
        <ele>208.280425</ele>
        <time>2022-03-07T07:34:00.475Z</time>
      </trkpt>
      <trkpt lat="42.17973" lon="24.70541">
        <ele>208.197786</ele>
        <time>2022-03-07T07:34:03.479Z</time>
      </trkpt>
      <trkpt lat="42.1798" lon="24.70528">
        <ele>208.214739</ele>
        <time>2022-03-07T07:34:06.474Z</time>
      </trkpt>
      <trkpt lat="42.17984" lon="24.70517">
        <ele>208.227724</ele>
        <time>2022-03-07T07:34:08.470Z</time>
      </trkpt>
      <trkpt lat="42.17988" lon="24.70505">
        <ele>208.241365</ele>
        <time>2022-03-07T07:34:10.498Z</time>
      </trkpt>
      <trkpt lat="42.17993" lon="24.70493">
        <ele>208.254882</ele>
        <time>2022-03-07T07:34:12.481Z</time>
      </trkpt>
      <trkpt lat="42.17997" lon="24.70482">
        <ele>208.268457</ele>
        <time>2022-03-07T07:34:14.456Z</time>
      </trkpt>
      <trkpt lat="42.18001" lon="24.7047">
        <ele>208.281725</ele>
        <time>2022-03-07T07:34:16.491Z</time>
      </trkpt>
      <trkpt lat="42.18006" lon="24.7046">
        <ele>208.294536</ele>
        <time>2022-03-07T07:34:18.459Z</time>
      </trkpt>
      <trkpt lat="42.18013" lon="24.70444">
        <ele>208.312919</ele>
        <time>2022-03-07T07:34:21.489Z</time>
      </trkpt>
      <trkpt lat="42.18018" lon="24.70429">
        <ele>208.331216</ele>
        <time>2022-03-07T07:34:24.459Z</time>
      </trkpt>
      <trkpt lat="42.18024" lon="24.70413">
        <ele>208.349585</ele>
        <time>2022-03-07T07:34:27.455Z</time>
      </trkpt>
      <trkpt lat="42.1803" lon="24.70397">
        <ele>208.36767</ele>
        <time>2022-03-07T07:34:30.497Z</time>
      </trkpt>
      <trkpt lat="42.18034" lon="24.70387">
        <ele>208.38039</ele>
        <time>2022-03-07T07:34:32.494Z</time>
      </trkpt>
      <trkpt lat="42.18039" lon="24.70376">
        <ele>208.393569</ele>
        <time>2022-03-07T07:34:34.459Z</time>
      </trkpt>
      <trkpt lat="42.18044" lon="24.70365">
        <ele>208.406629</ele>
        <time>2022-03-07T07:34:36.485Z</time>
      </trkpt>
      <trkpt lat="42.18048" lon="24.70354">
        <ele>208.419647</ele>
        <time>2022-03-07T07:34:38.470Z</time>
      </trkpt>
      <trkpt lat="42.18053" lon="24.70343">
        <ele>208.432936</ele>
        <time>2022-03-07T07:34:40.473Z</time>
      </trkpt>
      <trkpt lat="42.18058" lon="24.70332">
        <ele>208.446134</ele>
        <time>2022-03-07T07:34:42.467Z</time>
      </trkpt>
      <trkpt lat="42.18063" lon="24.70316">
        <ele>208.524262</ele>
        <time>2022-03-07T07:34:45.470Z</time>
      </trkpt>
      <trkpt lat="42.18068" lon="24.703">
        <ele>208.612186</ele>
        <time>2022-03-07T07:34:48.511Z</time>
      </trkpt>
      <trkpt lat="42.18072" lon="24.70283">
        <ele>208.700018</ele>
        <time>2022-03-07T07:34:51.461Z</time>
      </trkpt>
      <trkpt lat="42.18073" lon="24.70271">
        <ele>208.762151</ele>
        <time>2022-03-07T07:34:53.473Z</time>
      </trkpt>
      <trkpt lat="42.18076" lon="24.70258">
        <ele>208.826556</ele>
        <time>2022-03-07T07:34:55.478Z</time>
      </trkpt>
      <trkpt lat="42.18078" lon="24.70247">
        <ele>208.888337</ele>
        <time>2022-03-07T07:34:57.487Z</time>
      </trkpt>
      <trkpt lat="42.18081" lon="24.70235">
        <ele>208.950091</ele>
        <time>2022-03-07T07:34:59.503Z</time>
      </trkpt>
      <trkpt lat="42.18087" lon="24.70221">
        <ele>209.035295</ele>
        <time>2022-03-07T07:35:02.474Z</time>
      </trkpt>
      <trkpt lat="42.18095" lon="24.70208">
        <ele>209.120033</ele>
        <time>2022-03-07T07:35:05.493Z</time>
      </trkpt>
      <trkpt lat="42.18104" lon="24.70195">
        <ele>209.209029</ele>
        <time>2022-03-07T07:35:08.474Z</time>
      </trkpt>
      <trkpt lat="42.1811" lon="24.70185">
        <ele>209.271019</ele>
        <time>2022-03-07T07:35:10.511Z</time>
      </trkpt>
      <trkpt lat="42.18118" lon="24.70172">
        <ele>209.359504</ele>
        <time>2022-03-07T07:35:13.476Z</time>
      </trkpt>
      <trkpt lat="42.18126" lon="24.70159">
        <ele>209.444989</ele>
        <time>2022-03-07T07:35:16.494Z</time>
      </trkpt>
      <trkpt lat="42.18134" lon="24.70145">
        <ele>209.531269</ele>
        <time>2022-03-07T07:35:19.486Z</time>
      </trkpt>
      <trkpt lat="42.18142" lon="24.70132">
        <ele>209.619263</ele>
        <time>2022-03-07T07:35:22.479Z</time>
      </trkpt>
      <trkpt lat="42.1815" lon="24.70118">
        <ele>209.777061</ele>
        <time>2022-03-07T07:35:25.453Z</time>
      </trkpt>
      <trkpt lat="42.18158" lon="24.70105">
        <ele>210.113291</ele>
        <time>2022-03-07T07:35:28.477Z</time>
      </trkpt>
      <trkpt lat="42.18167" lon="24.70093">
        <ele>210.428405</ele>
        <time>2022-03-07T07:35:31.503Z</time>
      </trkpt>
      <trkpt lat="42.18174" lon="24.70082">
        <ele>210.706436</ele>
        <time>2022-03-07T07:35:34.476Z</time>
      </trkpt>
      <trkpt lat="42.1818" lon="24.70072">
        <ele>210.935007</ele>
        <time>2022-03-07T07:35:37.481Z</time>
      </trkpt>
      <trkpt lat="42.18187" lon="24.70059">
        <ele>211.231212</ele>
        <time>2022-03-07T07:35:40.460Z</time>
      </trkpt>
      <trkpt lat="42.18194" lon="24.70046">
        <ele>211.548467</ele>
        <time>2022-03-07T07:35:43.467Z</time>
      </trkpt>
      <trkpt lat="42.18203" lon="24.70032">
        <ele>211.881234</ele>
        <time>2022-03-07T07:35:46.481Z</time>
      </trkpt>
      <trkpt lat="42.18209" lon="24.70023">
        <ele>212.110144</ele>
        <time>2022-03-07T07:35:48.480Z</time>
      </trkpt>
      <trkpt lat="42.18215" lon="24.70014">
        <ele>212.343577</ele>
        <time>2022-03-07T07:35:50.459Z</time>
      </trkpt>
      <trkpt lat="42.18221" lon="24.70005">
        <ele>212.573911</ele>
        <time>2022-03-07T07:35:52.497Z</time>
      </trkpt>
      <trkpt lat="42.18227" lon="24.69995">
        <ele>212.806085</ele>
        <time>2022-03-07T07:35:54.460Z</time>
      </trkpt>
      <trkpt lat="42.18233" lon="24.69986">
        <ele>213.034655</ele>
        <time>2022-03-07T07:35:56.459Z</time>
      </trkpt>
      <trkpt lat="42.18242" lon="24.69972">
        <ele>213.371408</ele>
        <time>2022-03-07T07:35:59.510Z</time>
      </trkpt>
      <trkpt lat="42.18248" lon="24.69963">
        <ele>213.604126</ele>
        <time>2022-03-07T07:36:01.461Z</time>
      </trkpt>
      <trkpt lat="42.18256" lon="24.6995">
        <ele>213.93305</ele>
        <time>2022-03-07T07:36:04.514Z</time>
      </trkpt>
      <trkpt lat="42.18264" lon="24.69938">
        <ele>214.217138</ele>
        <time>2022-03-07T07:36:07.470Z</time>
      </trkpt>
      <trkpt lat="42.18272" lon="24.69925">
        <ele>214.140049</ele>
        <time>2022-03-07T07:36:10.461Z</time>
      </trkpt>
      <trkpt lat="42.1828" lon="24.69911">
        <ele>214.050603</ele>
        <time>2022-03-07T07:36:13.480Z</time>
      </trkpt>
      <trkpt lat="42.18286" lon="24.69902">
        <ele>213.989453</ele>
        <time>2022-03-07T07:36:15.482Z</time>
      </trkpt>
      <trkpt lat="42.18292" lon="24.69892">
        <ele>213.929779</ele>
        <time>2022-03-07T07:36:17.472Z</time>
      </trkpt>
      <trkpt lat="42.18301" lon="24.6988">
        <ele>213.846961</ele>
        <time>2022-03-07T07:36:20.475Z</time>
      </trkpt>
      <trkpt lat="42.18307" lon="24.6987">
        <ele>213.785858</ele>
        <time>2022-03-07T07:36:22.506Z</time>
      </trkpt>
      <trkpt lat="42.18313" lon="24.6986">
        <ele>213.72396</ele>
        <time>2022-03-07T07:36:24.492Z</time>
      </trkpt>
      <trkpt lat="42.18319" lon="24.69851">
        <ele>213.663606</ele>
        <time>2022-03-07T07:36:26.477Z</time>
      </trkpt>
      <trkpt lat="42.18325" lon="24.69841">
        <ele>213.603496</ele>
        <time>2022-03-07T07:36:28.493Z</time>
      </trkpt>
      <trkpt lat="42.18331" lon="24.69832">
        <ele>213.542143</ele>
        <time>2022-03-07T07:36:30.469Z</time>
      </trkpt>
      <trkpt lat="42.1834" lon="24.69818">
        <ele>213.454293</ele>
        <time>2022-03-07T07:36:33.522Z</time>
      </trkpt>
      <trkpt lat="42.18348" lon="24.69805">
        <ele>213.366442</ele>
        <time>2022-03-07T07:36:36.480Z</time>
      </trkpt>
      <trkpt lat="42.18357" lon="24.69791">
        <ele>213.279759</ele>
        <time>2022-03-07T07:36:39.459Z</time>
      </trkpt>
      <trkpt lat="42.18365" lon="24.69778">
        <ele>213.197373</ele>
        <time>2022-03-07T07:36:42.469Z</time>
      </trkpt>
      <trkpt lat="42.18373" lon="24.69766">
        <ele>213.118176</ele>
        <time>2022-03-07T07:36:45.466Z</time>
      </trkpt>
      <trkpt lat="42.18382" lon="24.69753">
        <ele>213.052929</ele>
        <time>2022-03-07T07:36:48.477Z</time>
      </trkpt>
      <trkpt lat="42.1839" lon="24.6974">
        <ele>213.270774</ele>
        <time>2022-03-07T07:36:51.482Z</time>
      </trkpt>
      <trkpt lat="42.18398" lon="24.69728">
        <ele>213.475235</ele>
        <time>2022-03-07T07:36:54.478Z</time>
      </trkpt>
      <trkpt lat="42.18406" lon="24.69717">
        <ele>213.671584</ele>
        <time>2022-03-07T07:36:57.466Z</time>
      </trkpt>
      <trkpt lat="42.18413" lon="24.69705">
        <ele>213.865861</ele>
        <time>2022-03-07T07:37:00.513Z</time>
      </trkpt>
      <trkpt lat="42.1842" lon="24.69693">
        <ele>214.061697</ele>
        <time>2022-03-07T07:37:03.472Z</time>
      </trkpt>
      <trkpt lat="42.18428" lon="24.69679">
        <ele>214.280765</ele>
        <time>2022-03-07T07:37:06.455Z</time>
      </trkpt>
      <trkpt lat="42.18437" lon="24.69666">
        <ele>214.502134</ele>
        <time>2022-03-07T07:37:09.467Z</time>
      </trkpt>
      <trkpt lat="42.18445" lon="24.69653">
        <ele>214.718685</ele>
        <time>2022-03-07T07:37:12.478Z</time>
      </trkpt>
      <trkpt lat="42.18453" lon="24.69639">
        <ele>214.933644</ele>
        <time>2022-03-07T07:37:15.477Z</time>
      </trkpt>
      <trkpt lat="42.1846" lon="24.69625">
        <ele>215.150637</ele>
        <time>2022-03-07T07:37:18.471Z</time>
      </trkpt>
      <trkpt lat="42.18469" lon="24.69613">
        <ele>215.362447</ele>
        <time>2022-03-07T07:37:21.472Z</time>
      </trkpt>
      <trkpt lat="42.18478" lon="24.69599">
        <ele>215.591611</ele>
        <time>2022-03-07T07:37:24.466Z</time>
      </trkpt>
      <trkpt lat="42.18487" lon="24.69587">
        <ele>215.815462</ele>
        <time>2022-03-07T07:37:27.471Z</time>
      </trkpt>
      <trkpt lat="42.18495" lon="24.69574">
        <ele>216.034883</ele>
        <time>2022-03-07T07:37:30.469Z</time>
      </trkpt>
      <trkpt lat="42.18504" lon="24.69561">
        <ele>216.069947</ele>
        <time>2022-03-07T07:37:33.487Z</time>
      </trkpt>
      <trkpt lat="42.18511" lon="24.69547">
        <ele>216.024209</ele>
        <time>2022-03-07T07:37:36.468Z</time>
      </trkpt>
      <trkpt lat="42.18519" lon="24.69534">
        <ele>215.978904</ele>
        <time>2022-03-07T07:37:39.458Z</time>
      </trkpt>
      <trkpt lat="42.18527" lon="24.6952">
        <ele>215.930931</ele>
        <time>2022-03-07T07:37:42.466Z</time>
      </trkpt>
      <trkpt lat="42.18534" lon="24.69511">
        <ele>215.897083</ele>
        <time>2022-03-07T07:37:44.503Z</time>
      </trkpt>
      <trkpt lat="42.18542" lon="24.69497">
        <ele>215.848254</ele>
        <time>2022-03-07T07:37:47.480Z</time>
      </trkpt>
      <trkpt lat="42.18548" lon="24.69488">
        <ele>215.814504</ele>
        <time>2022-03-07T07:37:49.482Z</time>
      </trkpt>
      <trkpt lat="42.18557" lon="24.69474">
        <ele>215.766641</ele>
        <time>2022-03-07T07:37:52.491Z</time>
      </trkpt>
      <trkpt lat="42.18566" lon="24.69461">
        <ele>215.719138</ele>
        <time>2022-03-07T07:37:55.460Z</time>
      </trkpt>
      <trkpt lat="42.18574" lon="24.69448">
        <ele>215.673521</ele>
        <time>2022-03-07T07:37:58.458Z</time>
      </trkpt>
      <trkpt lat="42.18583" lon="24.69435">
        <ele>215.625618</ele>
        <time>2022-03-07T07:38:01.464Z</time>
      </trkpt>
      <trkpt lat="42.18591" lon="24.69422">
        <ele>215.578199</ele>
        <time>2022-03-07T07:38:04.481Z</time>
      </trkpt>
      <trkpt lat="42.186" lon="24.69409">
        <ele>215.530134</ele>
        <time>2022-03-07T07:38:07.509Z</time>
      </trkpt>
      <trkpt lat="42.18608" lon="24.69395">
        <ele>215.481929</ele>
        <time>2022-03-07T07:38:10.475Z</time>
      </trkpt>
      <trkpt lat="42.18615" lon="24.69386">
        <ele>215.44847</ele>
        <time>2022-03-07T07:38:12.473Z</time>
      </trkpt>
      <trkpt lat="42.18622" lon="24.69377">
        <ele>215.317917</ele>
        <time>2022-03-07T07:38:14.475Z</time>
      </trkpt>
      <trkpt lat="42.18628" lon="24.69368">
        <ele>215.182732</ele>
        <time>2022-03-07T07:38:16.480Z</time>
      </trkpt>
      <trkpt lat="42.18637" lon="24.69355">
        <ele>214.988367</ele>
        <time>2022-03-07T07:38:19.467Z</time>
      </trkpt>
      <trkpt lat="42.18643" lon="24.69346">
        <ele>214.856373</ele>
        <time>2022-03-07T07:38:21.475Z</time>
      </trkpt>
      <trkpt lat="42.18652" lon="24.69332">
        <ele>214.660536</ele>
        <time>2022-03-07T07:38:24.456Z</time>
      </trkpt>
      <trkpt lat="42.1866" lon="24.69319">
        <ele>214.4708</ele>
        <time>2022-03-07T07:38:27.481Z</time>
      </trkpt>
      <trkpt lat="42.18669" lon="24.69305">
        <ele>214.277665</ele>
        <time>2022-03-07T07:38:30.463Z</time>
      </trkpt>
      <trkpt lat="42.18677" lon="24.69291">
        <ele>214.085566</ele>
        <time>2022-03-07T07:38:33.463Z</time>
      </trkpt>
      <trkpt lat="42.18686" lon="24.69278">
        <ele>213.896646</ele>
        <time>2022-03-07T07:38:36.465Z</time>
      </trkpt>
      <trkpt lat="42.18694" lon="24.69265">
        <ele>213.709349</ele>
        <time>2022-03-07T07:38:39.482Z</time>
      </trkpt>
      <trkpt lat="42.18702" lon="24.69252">
        <ele>213.525922</ele>
        <time>2022-03-07T07:38:42.474Z</time>
      </trkpt>
      <trkpt lat="42.18711" lon="24.69239">
        <ele>213.337501</ele>
        <time>2022-03-07T07:38:45.471Z</time>
      </trkpt>
      <trkpt lat="42.18719" lon="24.69226">
        <ele>213.163362</ele>
        <time>2022-03-07T07:38:48.477Z</time>
      </trkpt>
      <trkpt lat="42.18727" lon="24.69214">
        <ele>212.981052</ele>
        <time>2022-03-07T07:38:51.470Z</time>
      </trkpt>
      <trkpt lat="42.18735" lon="24.69201">
        <ele>212.848846</ele>
        <time>2022-03-07T07:38:54.475Z</time>
      </trkpt>
      <trkpt lat="42.18743" lon="24.69188">
        <ele>212.907873</ele>
        <time>2022-03-07T07:38:57.464Z</time>
      </trkpt>
      <trkpt lat="42.18751" lon="24.69175">
        <ele>212.967205</ele>
        <time>2022-03-07T07:39:00.477Z</time>
      </trkpt>
      <trkpt lat="42.18759" lon="24.69162">
        <ele>213.026744</ele>
        <time>2022-03-07T07:39:03.513Z</time>
      </trkpt>
      <trkpt lat="42.18767" lon="24.6915">
        <ele>213.081917</ele>
        <time>2022-03-07T07:39:06.457Z</time>
      </trkpt>
      <trkpt lat="42.18775" lon="24.69136">
        <ele>213.143741</ele>
        <time>2022-03-07T07:39:09.464Z</time>
      </trkpt>
      <trkpt lat="42.18784" lon="24.69122">
        <ele>213.20644</ele>
        <time>2022-03-07T07:39:12.477Z</time>
      </trkpt>
      <trkpt lat="42.1879" lon="24.69113">
        <ele>213.250976</ele>
        <time>2022-03-07T07:39:14.522Z</time>
      </trkpt>
      <trkpt lat="42.18796" lon="24.69104">
        <ele>213.293981</ele>
        <time>2022-03-07T07:39:16.483Z</time>
      </trkpt>
      <trkpt lat="42.18805" lon="24.69091">
        <ele>213.356604</ele>
        <time>2022-03-07T07:39:19.482Z</time>
      </trkpt>
      <trkpt lat="42.18813" lon="24.69077">
        <ele>213.417784</ele>
        <time>2022-03-07T07:39:22.460Z</time>
      </trkpt>
      <trkpt lat="42.18821" lon="24.69063">
        <ele>213.479581</ele>
        <time>2022-03-07T07:39:25.471Z</time>
      </trkpt>
      <trkpt lat="42.18829" lon="24.6905">
        <ele>213.53984</ele>
        <time>2022-03-07T07:39:28.470Z</time>
      </trkpt>
      <trkpt lat="42.18836" lon="24.69041">
        <ele>213.583999</ele>
        <time>2022-03-07T07:39:30.503Z</time>
      </trkpt>
      <trkpt lat="42.18844" lon="24.69027">
        <ele>213.647043</ele>
        <time>2022-03-07T07:39:33.461Z</time>
      </trkpt>
      <trkpt lat="42.18852" lon="24.69014">
        <ele>213.714857</ele>
        <time>2022-03-07T07:39:36.525Z</time>
      </trkpt>
      <trkpt lat="42.18861" lon="24.69001">
        <ele>213.79479</ele>
        <time>2022-03-07T07:39:39.484Z</time>
      </trkpt>
      <trkpt lat="42.18869" lon="24.68988">
        <ele>213.876803</ele>
        <time>2022-03-07T07:39:42.456Z</time>
      </trkpt>
      <trkpt lat="42.18877" lon="24.68975">
        <ele>213.955925</ele>
        <time>2022-03-07T07:39:45.491Z</time>
      </trkpt>
      <trkpt lat="42.18885" lon="24.68962">
        <ele>214.035813</ele>
        <time>2022-03-07T07:39:48.477Z</time>
      </trkpt>
      <trkpt lat="42.18893" lon="24.68948">
        <ele>214.117163</ele>
        <time>2022-03-07T07:39:51.463Z</time>
      </trkpt>
      <trkpt lat="42.18902" lon="24.68934">
        <ele>214.201614</ele>
        <time>2022-03-07T07:39:54.476Z</time>
      </trkpt>
      <trkpt lat="42.1891" lon="24.68921">
        <ele>214.282079</ele>
        <time>2022-03-07T07:39:57.471Z</time>
      </trkpt>
      <trkpt lat="42.18917" lon="24.68908">
        <ele>214.36035</ele>
        <time>2022-03-07T07:40:00.459Z</time>
      </trkpt>
      <trkpt lat="42.18925" lon="24.68895">
        <ele>214.43599</ele>
        <time>2022-03-07T07:40:03.474Z</time>
      </trkpt>
      <trkpt lat="42.18933" lon="24.68882">
        <ele>214.516284</ele>
        <time>2022-03-07T07:40:06.497Z</time>
      </trkpt>
      <trkpt lat="42.18941" lon="24.6887">
        <ele>214.595272</ele>
        <time>2022-03-07T07:40:09.496Z</time>
      </trkpt>
      <trkpt lat="42.1895" lon="24.68858">
        <ele>214.676177</ele>
        <time>2022-03-07T07:40:12.474Z</time>
      </trkpt>
      <trkpt lat="42.18958" lon="24.68845">
        <ele>214.757768</ele>
        <time>2022-03-07T07:40:15.474Z</time>
      </trkpt>
      <trkpt lat="42.18967" lon="24.68832">
        <ele>214.834196</ele>
        <time>2022-03-07T07:40:18.476Z</time>
      </trkpt>
      <trkpt lat="42.18975" lon="24.68819">
        <ele>214.871799</ele>
        <time>2022-03-07T07:40:21.473Z</time>
      </trkpt>
      <trkpt lat="42.18983" lon="24.68806">
        <ele>214.909187</ele>
        <time>2022-03-07T07:40:24.480Z</time>
      </trkpt>
      <trkpt lat="42.18991" lon="24.68793">
        <ele>214.94775</ele>
        <time>2022-03-07T07:40:27.481Z</time>
      </trkpt>
      <trkpt lat="42.18999" lon="24.68781">
        <ele>214.984059</ele>
        <time>2022-03-07T07:40:30.475Z</time>
      </trkpt>
      <trkpt lat="42.19007" lon="24.68768">
        <ele>215.021123</ele>
        <time>2022-03-07T07:40:33.466Z</time>
      </trkpt>
      <trkpt lat="42.19015" lon="24.68755">
        <ele>215.060562</ele>
        <time>2022-03-07T07:40:36.482Z</time>
      </trkpt>
      <trkpt lat="42.19023" lon="24.68742">
        <ele>215.098682</ele>
        <time>2022-03-07T07:40:39.473Z</time>
      </trkpt>
      <trkpt lat="42.19032" lon="24.68729">
        <ele>215.137245</ele>
        <time>2022-03-07T07:40:42.496Z</time>
      </trkpt>
      <trkpt lat="42.1904" lon="24.68716">
        <ele>215.176685</ele>
        <time>2022-03-07T07:40:45.479Z</time>
      </trkpt>
      <trkpt lat="42.19047" lon="24.68707">
        <ele>215.204906</ele>
        <time>2022-03-07T07:40:47.468Z</time>
      </trkpt>
      <trkpt lat="42.19055" lon="24.68693">
        <ele>215.245082</ele>
        <time>2022-03-07T07:40:50.468Z</time>
      </trkpt>
      <trkpt lat="42.19061" lon="24.68684">
        <ele>215.272471</ele>
        <time>2022-03-07T07:40:52.473Z</time>
      </trkpt>
      <trkpt lat="42.1907" lon="24.68671">
        <ele>215.312713</ele>
        <time>2022-03-07T07:40:55.473Z</time>
      </trkpt>
      <trkpt lat="42.19076" lon="24.68662">
        <ele>215.340035</ele>
        <time>2022-03-07T07:40:57.470Z</time>
      </trkpt>
      <trkpt lat="42.19084" lon="24.68648">
        <ele>215.378544</ele>
        <time>2022-03-07T07:41:00.476Z</time>
      </trkpt>
      <trkpt lat="42.19093" lon="24.68635">
        <ele>215.403514</ele>
        <time>2022-03-07T07:41:03.485Z</time>
      </trkpt>
      <trkpt lat="42.19101" lon="24.68621">
        <ele>215.428664</ele>
        <time>2022-03-07T07:41:06.480Z</time>
      </trkpt>
      <trkpt lat="42.19108" lon="24.68612">
        <ele>215.446167</ele>
        <time>2022-03-07T07:41:08.470Z</time>
      </trkpt>
      <trkpt lat="42.19114" lon="24.68603">
        <ele>215.464548</ele>
        <time>2022-03-07T07:41:10.510Z</time>
      </trkpt>
      <trkpt lat="42.19123" lon="24.6859">
        <ele>215.490172</ele>
        <time>2022-03-07T07:41:13.472Z</time>
      </trkpt>
      <trkpt lat="42.19132" lon="24.68577">
        <ele>215.515828</ele>
        <time>2022-03-07T07:41:16.531Z</time>
      </trkpt>
      <trkpt lat="42.19141" lon="24.68563">
        <ele>215.540868</ele>
        <time>2022-03-07T07:41:19.467Z</time>
      </trkpt>
      <trkpt lat="42.19149" lon="24.6855">
        <ele>215.566224</ele>
        <time>2022-03-07T07:41:22.473Z</time>
      </trkpt>
      <trkpt lat="42.19157" lon="24.68537">
        <ele>215.589726</ele>
        <time>2022-03-07T07:41:25.482Z</time>
      </trkpt>
      <trkpt lat="42.19164" lon="24.68524">
        <ele>215.614142</ele>
        <time>2022-03-07T07:41:28.479Z</time>
      </trkpt>
      <trkpt lat="42.19172" lon="24.6851">
        <ele>215.638687</ele>
        <time>2022-03-07T07:41:31.479Z</time>
      </trkpt>
      <trkpt lat="42.1918" lon="24.68496">
        <ele>215.663438</ele>
        <time>2022-03-07T07:41:34.481Z</time>
      </trkpt>
      <trkpt lat="42.19188" lon="24.68484">
        <ele>215.686839</ele>
        <time>2022-03-07T07:41:37.479Z</time>
      </trkpt>
      <trkpt lat="42.19194" lon="24.68474">
        <ele>215.704382</ele>
        <time>2022-03-07T07:41:39.471Z</time>
      </trkpt>
      <trkpt lat="42.19202" lon="24.68461">
        <ele>215.758806</ele>
        <time>2022-03-07T07:41:42.476Z</time>
      </trkpt>
      <trkpt lat="42.19211" lon="24.68448">
        <ele>215.892544</ele>
        <time>2022-03-07T07:41:45.490Z</time>
      </trkpt>
      <trkpt lat="42.1922" lon="24.68435">
        <ele>216.030641</ele>
        <time>2022-03-07T07:41:48.478Z</time>
      </trkpt>
      <trkpt lat="42.19229" lon="24.68421">
        <ele>216.16978</ele>
        <time>2022-03-07T07:41:51.467Z</time>
      </trkpt>
      <trkpt lat="42.19235" lon="24.68412">
        <ele>216.263834</ele>
        <time>2022-03-07T07:41:53.457Z</time>
      </trkpt>
      <trkpt lat="42.19243" lon="24.68399">
        <ele>216.394179</ele>
        <time>2022-03-07T07:41:56.470Z</time>
      </trkpt>
      <trkpt lat="42.19251" lon="24.68386">
        <ele>216.523796</ele>
        <time>2022-03-07T07:41:59.465Z</time>
      </trkpt>
      <trkpt lat="42.19259" lon="24.68372">
        <ele>216.655807</ele>
        <time>2022-03-07T07:42:02.460Z</time>
      </trkpt>
      <trkpt lat="42.19266" lon="24.68359">
        <ele>216.78714</ele>
        <time>2022-03-07T07:42:05.458Z</time>
      </trkpt>
      <trkpt lat="42.19274" lon="24.68345">
        <ele>216.919197</ele>
        <time>2022-03-07T07:42:08.470Z</time>
      </trkpt>
      <trkpt lat="42.19283" lon="24.68332">
        <ele>217.05466</ele>
        <time>2022-03-07T07:42:11.486Z</time>
      </trkpt>
      <trkpt lat="42.1929" lon="24.68319">
        <ele>217.179339</ele>
        <time>2022-03-07T07:42:14.457Z</time>
      </trkpt>
      <trkpt lat="42.19298" lon="24.68307">
        <ele>217.305336</ele>
        <time>2022-03-07T07:42:17.516Z</time>
      </trkpt>
      <trkpt lat="42.19306" lon="24.68293">
        <ele>217.437451</ele>
        <time>2022-03-07T07:42:20.451Z</time>
      </trkpt>
      <trkpt lat="42.19315" lon="24.6828">
        <ele>217.573401</ele>
        <time>2022-03-07T07:42:23.471Z</time>
      </trkpt>
      <trkpt lat="42.19324" lon="24.68267">
        <ele>217.710981</ele>
        <time>2022-03-07T07:42:26.470Z</time>
      </trkpt>
      <trkpt lat="42.1933" lon="24.68258">
        <ele>217.808351</ele>
        <time>2022-03-07T07:42:28.505Z</time>
      </trkpt>
      <trkpt lat="42.19336" lon="24.68249">
        <ele>217.905325</ele>
        <time>2022-03-07T07:42:30.465Z</time>
      </trkpt>
      <trkpt lat="42.19344" lon="24.68237">
        <ele>218.033568</ele>
        <time>2022-03-07T07:42:33.470Z</time>
      </trkpt>
      <trkpt lat="42.19352" lon="24.68224">
        <ele>218.164061</ele>
        <time>2022-03-07T07:42:36.461Z</time>
      </trkpt>
      <trkpt lat="42.1936" lon="24.68212">
        <ele>218.294064</ele>
        <time>2022-03-07T07:42:39.502Z</time>
      </trkpt>
      <trkpt lat="42.19368" lon="24.682">
        <ele>218.419278</ele>
        <time>2022-03-07T07:42:42.475Z</time>
      </trkpt>
      <trkpt lat="42.19375" lon="24.68187">
        <ele>218.545769</ele>
        <time>2022-03-07T07:42:45.462Z</time>
      </trkpt>
      <trkpt lat="42.19384" lon="24.68175">
        <ele>218.675891</ele>
        <time>2022-03-07T07:42:48.486Z</time>
      </trkpt>
      <trkpt lat="42.19392" lon="24.68163">
        <ele>218.805304</ele>
        <time>2022-03-07T07:42:51.461Z</time>
      </trkpt>
      <trkpt lat="42.19399" lon="24.68149">
        <ele>218.937468</ele>
        <time>2022-03-07T07:42:54.493Z</time>
      </trkpt>
      <trkpt lat="42.19407" lon="24.68137">
        <ele>219.068477</ele>
        <time>2022-03-07T07:42:57.486Z</time>
      </trkpt>
      <trkpt lat="42.19416" lon="24.68124">
        <ele>219.202244</ele>
        <time>2022-03-07T07:43:00.475Z</time>
      </trkpt>
      <trkpt lat="42.19423" lon="24.68111">
        <ele>219.333184</ele>
        <time>2022-03-07T07:43:03.481Z</time>
      </trkpt>
      <trkpt lat="42.19432" lon="24.68099">
        <ele>219.463186</ele>
        <time>2022-03-07T07:43:06.482Z</time>
      </trkpt>
      <trkpt lat="42.1944" lon="24.68086">
        <ele>219.550846</ele>
        <time>2022-03-07T07:43:09.474Z</time>
      </trkpt>
      <trkpt lat="42.19448" lon="24.68072">
        <ele>219.627505</ele>
        <time>2022-03-07T07:43:12.514Z</time>
      </trkpt>
      <trkpt lat="42.19456" lon="24.68059">
        <ele>219.704314</ele>
        <time>2022-03-07T07:43:15.482Z</time>
      </trkpt>
      <trkpt lat="42.19465" lon="24.68046">
        <ele>219.782387</ele>
        <time>2022-03-07T07:43:18.503Z</time>
      </trkpt>
      <trkpt lat="42.19473" lon="24.68034">
        <ele>219.857416</ele>
        <time>2022-03-07T07:43:21.472Z</time>
      </trkpt>
      <trkpt lat="42.19481" lon="24.68021">
        <ele>219.931578</ele>
        <time>2022-03-07T07:43:24.476Z</time>
      </trkpt>
      <trkpt lat="42.19489" lon="24.68008">
        <ele>220.004048</ele>
        <time>2022-03-07T07:43:27.480Z</time>
      </trkpt>
      <trkpt lat="42.19497" lon="24.67995">
        <ele>220.079213</ele>
        <time>2022-03-07T07:43:30.461Z</time>
      </trkpt>
      <trkpt lat="42.19505" lon="24.67981">
        <ele>220.154776</ele>
        <time>2022-03-07T07:43:33.475Z</time>
      </trkpt>
      <trkpt lat="42.19511" lon="24.67972">
        <ele>220.20878</ele>
        <time>2022-03-07T07:43:35.465Z</time>
      </trkpt>
      <trkpt lat="42.1952" lon="24.67959">
        <ele>220.289039</ele>
        <time>2022-03-07T07:43:38.462Z</time>
      </trkpt>
      <trkpt lat="42.19526" lon="24.6795">
        <ele>220.343495</ele>
        <time>2022-03-07T07:43:40.500Z</time>
      </trkpt>
      <trkpt lat="42.19535" lon="24.67936">
        <ele>220.421492</ele>
        <time>2022-03-07T07:43:43.512Z</time>
      </trkpt>
      <trkpt lat="42.19543" lon="24.67924">
        <ele>220.497244</ele>
        <time>2022-03-07T07:43:46.494Z</time>
      </trkpt>
      <trkpt lat="42.19552" lon="24.67911">
        <ele>220.560186</ele>
        <time>2022-03-07T07:43:49.486Z</time>
      </trkpt>
      <trkpt lat="42.19561" lon="24.67898">
        <ele>220.503205</ele>
        <time>2022-03-07T07:43:52.514Z</time>
      </trkpt>
      <trkpt lat="42.19569" lon="24.67886">
        <ele>220.44779</ele>
        <time>2022-03-07T07:43:55.467Z</time>
      </trkpt>
      <trkpt lat="42.19578" lon="24.67872">
        <ele>220.391203</ele>
        <time>2022-03-07T07:43:58.473Z</time>
      </trkpt>
      <trkpt lat="42.19586" lon="24.67859">
        <ele>220.335374</ele>
        <time>2022-03-07T07:44:01.464Z</time>
      </trkpt>
      <trkpt lat="42.19594" lon="24.67847">
        <ele>220.282119</ele>
        <time>2022-03-07T07:44:04.463Z</time>
      </trkpt>
      <trkpt lat="42.19601" lon="24.67835">
        <ele>220.228689</ele>
        <time>2022-03-07T07:44:07.473Z</time>
      </trkpt>
      <trkpt lat="42.19609" lon="24.67822">
        <ele>220.174546</ele>
        <time>2022-03-07T07:44:10.468Z</time>
      </trkpt>
      <trkpt lat="42.19616" lon="24.6781">
        <ele>220.122369</ele>
        <time>2022-03-07T07:44:13.485Z</time>
      </trkpt>
      <trkpt lat="42.19624" lon="24.67798">
        <ele>220.070687</ele>
        <time>2022-03-07T07:44:16.461Z</time>
      </trkpt>
      <trkpt lat="42.19632" lon="24.67786">
        <ele>220.019685</ele>
        <time>2022-03-07T07:44:19.473Z</time>
      </trkpt>
      <trkpt lat="42.19639" lon="24.67775">
        <ele>219.970535</ele>
        <time>2022-03-07T07:44:22.468Z</time>
      </trkpt>
      <trkpt lat="42.19646" lon="24.67763">
        <ele>219.919885</ele>
        <time>2022-03-07T07:44:25.475Z</time>
      </trkpt>
      <trkpt lat="42.19654" lon="24.67751">
        <ele>219.865634</ele>
        <time>2022-03-07T07:44:28.525Z</time>
      </trkpt>
      <trkpt lat="42.19661" lon="24.67741">
        <ele>219.823188</ele>
        <time>2022-03-07T07:44:30.462Z</time>
      </trkpt>
      <trkpt lat="42.1967" lon="24.67728">
        <ele>219.753267</ele>
        <time>2022-03-07T07:44:33.508Z</time>
      </trkpt>
      <trkpt lat="42.19678" lon="24.67714">
        <ele>219.519387</ele>
        <time>2022-03-07T07:44:36.517Z</time>
      </trkpt>
      <trkpt lat="42.19686" lon="24.677">
        <ele>219.284166</ele>
        <time>2022-03-07T07:44:39.468Z</time>
      </trkpt>
      <trkpt lat="42.19692" lon="24.67683">
        <ele>219.05193</ele>
        <time>2022-03-07T07:44:42.475Z</time>
      </trkpt>
      <trkpt lat="42.19695" lon="24.67672">
        <ele>218.890315</ele>
        <time>2022-03-07T07:44:44.505Z</time>
      </trkpt>
      <trkpt lat="42.19696" lon="24.67654">
        <ele>218.663966</ele>
        <time>2022-03-07T07:44:47.493Z</time>
      </trkpt>
      <trkpt lat="42.19696" lon="24.67638">
        <ele>218.454379</ele>
        <time>2022-03-07T07:44:50.459Z</time>
      </trkpt>
      <trkpt lat="42.19697" lon="24.67621">
        <ele>218.235786</ele>
        <time>2022-03-07T07:44:53.516Z</time>
      </trkpt>
      <trkpt lat="42.19703" lon="24.67605">
        <ele>217.995154</ele>
        <time>2022-03-07T07:44:56.446Z</time>
      </trkpt>
      <trkpt lat="42.19711" lon="24.67598">
        <ele>217.836498</ele>
        <time>2022-03-07T07:44:58.515Z</time>
      </trkpt>
      <trkpt lat="42.19724" lon="24.67592">
        <ele>217.598183</ele>
        <time>2022-03-07T07:45:01.463Z</time>
      </trkpt>
      <trkpt lat="42.19735" lon="24.67585">
        <ele>217.368081</ele>
        <time>2022-03-07T07:45:04.485Z</time>
      </trkpt>
      <trkpt lat="42.19746" lon="24.67576">
        <ele>217.15576</ele>
        <time>2022-03-07T07:45:07.478Z</time>
      </trkpt>
      <trkpt lat="42.19756" lon="24.67567">
        <ele>216.938891</ele>
        <time>2022-03-07T07:45:10.465Z</time>
      </trkpt>
      <trkpt lat="42.19766" lon="24.67557">
        <ele>216.720515</ele>
        <time>2022-03-07T07:45:13.477Z</time>
      </trkpt>
      <trkpt lat="42.19776" lon="24.67547">
        <ele>216.652853</ele>
        <time>2022-03-07T07:45:16.457Z</time>
      </trkpt>
      <trkpt lat="42.19785" lon="24.67537">
        <ele>216.742156</ele>
        <time>2022-03-07T07:45:19.460Z</time>
      </trkpt>
      <trkpt lat="42.19794" lon="24.67527">
        <ele>216.828855</ele>
        <time>2022-03-07T07:45:22.446Z</time>
      </trkpt>
      <trkpt lat="42.19803" lon="24.67516">
        <ele>216.915466</ele>
        <time>2022-03-07T07:45:25.476Z</time>
      </trkpt>
      <trkpt lat="42.19812" lon="24.67504">
        <ele>217.004429</ele>
        <time>2022-03-07T07:45:28.463Z</time>
      </trkpt>
      <trkpt lat="42.1982" lon="24.67491">
        <ele>217.097652</ele>
        <time>2022-03-07T07:45:31.485Z</time>
      </trkpt>
      <trkpt lat="42.19828" lon="24.67478">
        <ele>217.191882</ele>
        <time>2022-03-07T07:45:34.478Z</time>
      </trkpt>
      <trkpt lat="42.19837" lon="24.67464">
        <ele>217.28617</ele>
        <time>2022-03-07T07:45:37.473Z</time>
      </trkpt>
      <trkpt lat="42.19845" lon="24.67451">
        <ele>217.380399</ele>
        <time>2022-03-07T07:45:40.474Z</time>
      </trkpt>
      <trkpt lat="42.19853" lon="24.67438">
        <ele>217.471158</ele>
        <time>2022-03-07T07:45:43.503Z</time>
      </trkpt>
      <trkpt lat="42.19862" lon="24.67425">
        <ele>217.56616</ele>
        <time>2022-03-07T07:45:46.472Z</time>
      </trkpt>
      <trkpt lat="42.19868" lon="24.67416">
        <ele>217.632285</ele>
        <time>2022-03-07T07:45:48.459Z</time>
      </trkpt>
      <trkpt lat="42.19876" lon="24.67402">
        <ele>217.724251</ele>
        <time>2022-03-07T07:45:51.486Z</time>
      </trkpt>
      <trkpt lat="42.19884" lon="24.6739">
        <ele>217.812834</ele>
        <time>2022-03-07T07:45:54.473Z</time>
      </trkpt>
      <trkpt lat="42.19892" lon="24.67377">
        <ele>217.905895</ele>
        <time>2022-03-07T07:45:57.463Z</time>
      </trkpt>
      <trkpt lat="42.199" lon="24.67363">
        <ele>217.906959</ele>
        <time>2022-03-07T07:46:00.491Z</time>
      </trkpt>
      <trkpt lat="42.19909" lon="24.6735">
        <ele>217.890896</ele>
        <time>2022-03-07T07:46:03.485Z</time>
      </trkpt>
      <trkpt lat="42.19918" lon="24.67337">
        <ele>217.875422</ele>
        <time>2022-03-07T07:46:06.516Z</time>
      </trkpt>
      <trkpt lat="42.19925" lon="24.67324">
        <ele>217.860118</ele>
        <time>2022-03-07T07:46:09.470Z</time>
      </trkpt>
      <trkpt lat="42.19934" lon="24.6731">
        <ele>217.844003</ele>
        <time>2022-03-07T07:46:12.503Z</time>
      </trkpt>
      <trkpt lat="42.19942" lon="24.67296">
        <ele>217.827781</ele>
        <time>2022-03-07T07:46:15.470Z</time>
      </trkpt>
      <trkpt lat="42.19948" lon="24.67287">
        <ele>217.816769</ele>
        <time>2022-03-07T07:46:17.472Z</time>
      </trkpt>
      <trkpt lat="42.19957" lon="24.67273">
        <ele>217.800332</ele>
        <time>2022-03-07T07:46:20.477Z</time>
      </trkpt>
      <trkpt lat="42.19963" lon="24.67264">
        <ele>217.789332</ele>
        <time>2022-03-07T07:46:22.487Z</time>
      </trkpt>
      <trkpt lat="42.19973" lon="24.67251">
        <ele>217.773077</ele>
        <time>2022-03-07T07:46:25.479Z</time>
      </trkpt>
      <trkpt lat="42.19981" lon="24.67237">
        <ele>217.75715</ele>
        <time>2022-03-07T07:46:28.484Z</time>
      </trkpt>
      <trkpt lat="42.19987" lon="24.67228">
        <ele>217.746218</ele>
        <time>2022-03-07T07:46:30.462Z</time>
      </trkpt>
      <trkpt lat="42.19996" lon="24.67215">
        <ele>217.730164</ele>
        <time>2022-03-07T07:46:33.477Z</time>
      </trkpt>
      <trkpt lat="42.20002" lon="24.67205">
        <ele>217.719165</ele>
        <time>2022-03-07T07:46:35.459Z</time>
      </trkpt>
      <trkpt lat="42.2001" lon="24.67192">
        <ele>217.703404</ele>
        <time>2022-03-07T07:46:38.482Z</time>
      </trkpt>
      <trkpt lat="42.20019" lon="24.67179">
        <ele>217.90905</ele>
        <time>2022-03-07T07:46:41.498Z</time>
      </trkpt>
      <trkpt lat="42.20025" lon="24.67169">
        <ele>218.065796</ele>
        <time>2022-03-07T07:46:43.459Z</time>
      </trkpt>
      <trkpt lat="42.20031" lon="24.6716">
        <ele>218.221276</ele>
        <time>2022-03-07T07:46:45.514Z</time>
      </trkpt>
      <trkpt lat="42.20039" lon="24.67146">
        <ele>218.446496</ele>
        <time>2022-03-07T07:46:48.456Z</time>
      </trkpt>
      <trkpt lat="42.20047" lon="24.67132">
        <ele>218.661565</ele>
        <time>2022-03-07T07:46:51.483Z</time>
      </trkpt>
      <trkpt lat="42.20055" lon="24.67119">
        <ele>218.87584</ele>
        <time>2022-03-07T07:46:54.479Z</time>
      </trkpt>
      <trkpt lat="42.20063" lon="24.67106">
        <ele>219.085339</ele>
        <time>2022-03-07T07:46:57.462Z</time>
      </trkpt>
      <trkpt lat="42.20072" lon="24.67094">
        <ele>219.297936</ele>
        <time>2022-03-07T07:47:00.483Z</time>
      </trkpt>
      <trkpt lat="42.2008" lon="24.67082">
        <ele>219.501294</ele>
        <time>2022-03-07T07:47:03.478Z</time>
      </trkpt>
      <trkpt lat="42.20087" lon="24.6707">
        <ele>219.689669</ele>
        <time>2022-03-07T07:47:06.473Z</time>
      </trkpt>
      <trkpt lat="42.20094" lon="24.6706">
        <ele>219.866469</ele>
        <time>2022-03-07T07:47:09.492Z</time>
      </trkpt>
      <trkpt lat="42.20101" lon="24.6705">
        <ele>220.027921</ele>
        <time>2022-03-07T07:47:12.455Z</time>
      </trkpt>
      <trkpt lat="42.20108" lon="24.67038">
        <ele>220.227191</ele>
        <time>2022-03-07T07:47:16.454Z</time>
      </trkpt>
      <trkpt lat="42.20116" lon="24.67026">
        <ele>220.418561</ele>
        <time>2022-03-07T07:47:20.496Z</time>
      </trkpt>
      <trkpt lat="42.20123" lon="24.67016">
        <ele>220.600641</ele>
        <time>2022-03-07T07:47:24.472Z</time>
      </trkpt>
      <trkpt lat="42.2013" lon="24.67005">
        <ele>220.803329</ele>
        <time>2022-03-07T07:47:28.486Z</time>
      </trkpt>
      <trkpt lat="42.20137" lon="24.66996">
        <ele>221.053016</ele>
        <time>2022-03-07T07:47:32.486Z</time>
      </trkpt>
      <trkpt lat="42.20144" lon="24.66986">
        <ele>221.308894</ele>
        <time>2022-03-07T07:47:36.476Z</time>
      </trkpt>
      <trkpt lat="42.20152" lon="24.66976">
        <ele>221.559999</ele>
        <time>2022-03-07T07:47:40.516Z</time>
      </trkpt>
      <trkpt lat="42.20158" lon="24.66966">
        <ele>221.810006</ele>
        <time>2022-03-07T07:47:44.476Z</time>
      </trkpt>
      <trkpt lat="42.20166" lon="24.66959">
        <ele>222.046317</ele>
        <time>2022-03-07T07:47:48.477Z</time>
      </trkpt>
      <trkpt lat="42.20174" lon="24.6695">
        <ele>222.305703</ele>
        <time>2022-03-07T07:47:52.497Z</time>
      </trkpt>
      <trkpt lat="42.20181" lon="24.66943">
        <ele>222.543139</ele>
        <time>2022-03-07T07:47:56.482Z</time>
      </trkpt>
      <trkpt lat="42.2019" lon="24.66933">
        <ele>222.829156</ele>
        <time>2022-03-07T07:48:00.455Z</time>
      </trkpt>
      <trkpt lat="42.20199" lon="24.66924">
        <ele>223.100875</ele>
        <time>2022-03-07T07:48:04.480Z</time>
      </trkpt>
      <trkpt lat="42.20205" lon="24.66916">
        <ele>223.326943</ele>
        <time>2022-03-07T07:48:07.477Z</time>
      </trkpt>
      <trkpt lat="42.20213" lon="24.66906">
        <ele>223.600418</ele>
        <time>2022-03-07T07:48:11.452Z</time>
      </trkpt>
      <trkpt lat="42.20222" lon="24.66897">
        <ele>223.879749</ele>
        <time>2022-03-07T07:48:15.492Z</time>
      </trkpt>
      <trkpt lat="42.20231" lon="24.66888">
        <ele>224.157083</ele>
        <time>2022-03-07T07:48:19.513Z</time>
      </trkpt>
      <trkpt lat="42.2024" lon="24.66878">
        <ele>224.455227</ele>
        <time>2022-03-07T07:48:23.476Z</time>
      </trkpt>
      <trkpt lat="42.20247" lon="24.66871">
        <ele>224.685138</ele>
        <time>2022-03-07T07:48:26.477Z</time>
      </trkpt>
      <trkpt lat="42.20255" lon="24.66863">
        <ele>224.921716</ele>
        <time>2022-03-07T07:48:29.470Z</time>
      </trkpt>
      <trkpt lat="42.20262" lon="24.66854">
        <ele>225.168048</ele>
        <time>2022-03-07T07:48:32.481Z</time>
      </trkpt>
      <trkpt lat="42.2027" lon="24.66845">
        <ele>225.12162</ele>
        <time>2022-03-07T07:48:35.464Z</time>
      </trkpt>
      <trkpt lat="42.20279" lon="24.66834">
        <ele>224.870029</ele>
        <time>2022-03-07T07:48:38.465Z</time>
      </trkpt>
      <trkpt lat="42.20288" lon="24.66822">
        <ele>224.604897</ele>
        <time>2022-03-07T07:48:41.523Z</time>
      </trkpt>
      <trkpt lat="42.20293" lon="24.66812">
        <ele>224.40905</ele>
        <time>2022-03-07T07:48:43.461Z</time>
      </trkpt>
      <trkpt lat="42.203" lon="24.66801">
        <ele>224.182523</ele>
        <time>2022-03-07T07:48:45.484Z</time>
      </trkpt>
      <trkpt lat="42.20306" lon="24.66788">
        <ele>223.941908</ele>
        <time>2022-03-07T07:48:47.516Z</time>
      </trkpt>
      <trkpt lat="42.20312" lon="24.66776">
        <ele>223.710376</ele>
        <time>2022-03-07T07:48:49.462Z</time>
      </trkpt>
      <trkpt lat="42.20317" lon="24.66762">
        <ele>223.452483</ele>
        <time>2022-03-07T07:48:51.475Z</time>
      </trkpt>
      <trkpt lat="42.20323" lon="24.66747">
        <ele>223.18202</ele>
        <time>2022-03-07T07:48:53.485Z</time>
      </trkpt>
      <trkpt lat="42.20329" lon="24.66732">
        <ele>222.913041</ele>
        <time>2022-03-07T07:48:55.479Z</time>
      </trkpt>
      <trkpt lat="42.20332" lon="24.66717">
        <ele>222.662088</ele>
        <time>2022-03-07T07:48:57.484Z</time>
      </trkpt>
      <trkpt lat="42.20336" lon="24.667">
        <ele>222.391823</ele>
        <time>2022-03-07T07:48:59.522Z</time>
      </trkpt>
      <trkpt lat="42.2034" lon="24.66683">
        <ele>222.109653</ele>
        <time>2022-03-07T07:49:01.474Z</time>
      </trkpt>
      <trkpt lat="42.20342" lon="24.66667">
        <ele>221.840082</ele>
        <time>2022-03-07T07:49:03.479Z</time>
      </trkpt>
      <trkpt lat="42.20345" lon="24.66649">
        <ele>221.555839</ele>
        <time>2022-03-07T07:49:05.473Z</time>
      </trkpt>
      <trkpt lat="42.20346" lon="24.66632">
        <ele>221.336739</ele>
        <time>2022-03-07T07:49:07.469Z</time>
      </trkpt>
      <trkpt lat="42.20347" lon="24.66616">
        <ele>221.191181</ele>
        <time>2022-03-07T07:49:09.505Z</time>
      </trkpt>
      <trkpt lat="42.20348" lon="24.666">
        <ele>221.052294</ele>
        <time>2022-03-07T07:49:11.484Z</time>
      </trkpt>
      <trkpt lat="42.20348" lon="24.66584">
        <ele>220.915096</ele>
        <time>2022-03-07T07:49:13.509Z</time>
      </trkpt>
      <trkpt lat="42.20349" lon="24.66571">
        <ele>220.798542</ele>
        <time>2022-03-07T07:49:15.471Z</time>
      </trkpt>
      <trkpt lat="42.2035" lon="24.66557">
        <ele>220.678696</ele>
        <time>2022-03-07T07:49:17.474Z</time>
      </trkpt>
      <trkpt lat="42.2035" lon="24.66544">
        <ele>220.565189</ele>
        <time>2022-03-07T07:49:19.463Z</time>
      </trkpt>
      <trkpt lat="42.2035" lon="24.66532">
        <ele>220.459564</ele>
        <time>2022-03-07T07:49:21.478Z</time>
      </trkpt>
      <trkpt lat="42.20351" lon="24.6652">
        <ele>220.353861</ele>
        <time>2022-03-07T07:49:23.474Z</time>
      </trkpt>
      <trkpt lat="42.20352" lon="24.66507">
        <ele>220.241262</ele>
        <time>2022-03-07T07:49:25.480Z</time>
      </trkpt>
      <trkpt lat="42.20353" lon="24.66494">
        <ele>220.130239</ele>
        <time>2022-03-07T07:49:27.453Z</time>
      </trkpt>
      <trkpt lat="42.20355" lon="24.66481">
        <ele>220.016092</ele>
        <time>2022-03-07T07:49:29.470Z</time>
      </trkpt>
      <trkpt lat="42.20357" lon="24.66469">
        <ele>219.905818</ele>
        <time>2022-03-07T07:49:31.481Z</time>
      </trkpt>
      <trkpt lat="42.20359" lon="24.66457">
        <ele>219.797932</ele>
        <time>2022-03-07T07:49:33.482Z</time>
      </trkpt>
      <trkpt lat="42.20361" lon="24.66445">
        <ele>219.692291</ele>
        <time>2022-03-07T07:49:35.485Z</time>
      </trkpt>
      <trkpt lat="42.20365" lon="24.66428">
        <ele>219.536978</ele>
        <time>2022-03-07T07:49:38.511Z</time>
      </trkpt>
      <trkpt lat="42.20368" lon="24.66417">
        <ele>219.430537</ele>
        <time>2022-03-07T07:49:40.483Z</time>
      </trkpt>
      <trkpt lat="42.20374" lon="24.66401">
        <ele>219.288787</ele>
        <time>2022-03-07T07:49:43.503Z</time>
      </trkpt>
      <trkpt lat="42.20377" lon="24.6639">
        <ele>219.370487</ele>
        <time>2022-03-07T07:49:45.459Z</time>
      </trkpt>
      <trkpt lat="42.2038" lon="24.66378">
        <ele>219.455083</ele>
        <time>2022-03-07T07:49:47.467Z</time>
      </trkpt>
      <trkpt lat="42.20384" lon="24.66367">
        <ele>219.537718</ele>
        <time>2022-03-07T07:49:49.516Z</time>
      </trkpt>
      <trkpt lat="42.20388" lon="24.66356">
        <ele>219.61959</ele>
        <time>2022-03-07T07:49:51.471Z</time>
      </trkpt>
      <trkpt lat="42.20394" lon="24.66339">
        <ele>219.74228</ele>
        <time>2022-03-07T07:49:54.474Z</time>
      </trkpt>
      <trkpt lat="42.20398" lon="24.66328">
        <ele>219.82792</ele>
        <time>2022-03-07T07:49:56.464Z</time>
      </trkpt>
      <trkpt lat="42.20403" lon="24.66317">
        <ele>219.913107</ele>
        <time>2022-03-07T07:49:58.496Z</time>
      </trkpt>
      <trkpt lat="42.20407" lon="24.66306">
        <ele>219.995424</ele>
        <time>2022-03-07T07:50:00.533Z</time>
      </trkpt>
      <trkpt lat="42.20413" lon="24.6629">
        <ele>220.114636</ele>
        <time>2022-03-07T07:50:03.484Z</time>
      </trkpt>
      <trkpt lat="42.20419" lon="24.66275">
        <ele>220.235329</ele>
        <time>2022-03-07T07:50:06.492Z</time>
      </trkpt>
      <trkpt lat="42.20426" lon="24.66259">
        <ele>220.35293</ele>
        <time>2022-03-07T07:50:09.490Z</time>
      </trkpt>
      <trkpt lat="42.20432" lon="24.66244">
        <ele>220.468779</ele>
        <time>2022-03-07T07:50:12.476Z</time>
      </trkpt>
      <trkpt lat="42.20438" lon="24.66229">
        <ele>220.585817</ele>
        <time>2022-03-07T07:50:15.472Z</time>
      </trkpt>
      <trkpt lat="42.20443" lon="24.66213">
        <ele>220.701418</ele>
        <time>2022-03-07T07:50:18.481Z</time>
      </trkpt>
      <trkpt lat="42.20449" lon="24.66198">
        <ele>220.815202</ele>
        <time>2022-03-07T07:50:21.485Z</time>
      </trkpt>
      <trkpt lat="42.20454" lon="24.66183">
        <ele>220.908094</ele>
        <time>2022-03-07T07:50:24.470Z</time>
      </trkpt>
      <trkpt lat="42.2046" lon="24.66168">
        <ele>220.796733</ele>
        <time>2022-03-07T07:50:27.473Z</time>
      </trkpt>
      <trkpt lat="42.20467" lon="24.66153">
        <ele>220.681418</ele>
        <time>2022-03-07T07:50:30.484Z</time>
      </trkpt>
      <trkpt lat="42.20473" lon="24.66138">
        <ele>220.571484</ele>
        <time>2022-03-07T07:50:33.502Z</time>
      </trkpt>
      <trkpt lat="42.20479" lon="24.66123">
        <ele>220.459544</ele>
        <time>2022-03-07T07:50:36.466Z</time>
      </trkpt>
      <trkpt lat="42.20485" lon="24.66108">
        <ele>220.348665</ele>
        <time>2022-03-07T07:50:39.472Z</time>
      </trkpt>
      <trkpt lat="42.20491" lon="24.66094">
        <ele>220.241752</ele>
        <time>2022-03-07T07:50:42.476Z</time>
      </trkpt>
      <trkpt lat="42.20497" lon="24.66079">
        <ele>220.133835</ele>
        <time>2022-03-07T07:50:45.456Z</time>
      </trkpt>
      <trkpt lat="42.20502" lon="24.66063">
        <ele>220.020388</ele>
        <time>2022-03-07T07:50:48.506Z</time>
      </trkpt>
      <trkpt lat="42.20507" lon="24.66047">
        <ele>219.902468</ele>
        <time>2022-03-07T07:50:51.476Z</time>
      </trkpt>
      <trkpt lat="42.20512" lon="24.66031">
        <ele>219.788546</ele>
        <time>2022-03-07T07:50:54.471Z</time>
      </trkpt>
      <trkpt lat="42.20518" lon="24.66016">
        <ele>219.677096</ele>
        <time>2022-03-07T07:50:57.479Z</time>
      </trkpt>
      <trkpt lat="42.20524" lon="24.66001">
        <ele>219.568045</ele>
        <time>2022-03-07T07:51:00.480Z</time>
      </trkpt>
      <trkpt lat="42.2053" lon="24.65986">
        <ele>219.457841</ele>
        <time>2022-03-07T07:51:03.466Z</time>
      </trkpt>
      <trkpt lat="42.20536" lon="24.65971">
        <ele>219.347957</ele>
        <time>2022-03-07T07:51:06.517Z</time>
      </trkpt>
      <trkpt lat="42.20542" lon="24.65956">
        <ele>219.336812</ele>
        <time>2022-03-07T07:51:09.480Z</time>
      </trkpt>
      <trkpt lat="42.20548" lon="24.65941">
        <ele>219.338061</ele>
        <time>2022-03-07T07:51:12.471Z</time>
      </trkpt>
      <trkpt lat="42.20554" lon="24.65926">
        <ele>219.339289</ele>
        <time>2022-03-07T07:51:15.478Z</time>
      </trkpt>
      <trkpt lat="42.20559" lon="24.65911">
        <ele>219.340482</ele>
        <time>2022-03-07T07:51:18.475Z</time>
      </trkpt>
      <trkpt lat="42.20565" lon="24.65896">
        <ele>219.341661</ele>
        <time>2022-03-07T07:51:21.477Z</time>
      </trkpt>
      <trkpt lat="42.20571" lon="24.65882">
        <ele>219.342829</ele>
        <time>2022-03-07T07:51:24.474Z</time>
      </trkpt>
      <trkpt lat="42.20576" lon="24.65867">
        <ele>219.343978</ele>
        <time>2022-03-07T07:51:27.475Z</time>
      </trkpt>
      <trkpt lat="42.20581" lon="24.65853">
        <ele>219.345126</ele>
        <time>2022-03-07T07:51:30.477Z</time>
      </trkpt>
      <trkpt lat="42.20586" lon="24.65839">
        <ele>219.346183</ele>
        <time>2022-03-07T07:51:33.482Z</time>
      </trkpt>
      <trkpt lat="42.20591" lon="24.65825">
        <ele>219.347303</ele>
        <time>2022-03-07T07:51:36.477Z</time>
      </trkpt>
      <trkpt lat="42.20596" lon="24.65811">
        <ele>219.348458</ele>
        <time>2022-03-07T07:51:39.499Z</time>
      </trkpt>
      <trkpt lat="42.20602" lon="24.65796">
        <ele>219.349654</ele>
        <time>2022-03-07T07:51:42.474Z</time>
      </trkpt>
      <trkpt lat="42.20608" lon="24.65781">
        <ele>219.350861</ele>
        <time>2022-03-07T07:51:45.511Z</time>
      </trkpt>
      <trkpt lat="42.20614" lon="24.65765">
        <ele>219.352133</ele>
        <time>2022-03-07T07:51:48.484Z</time>
      </trkpt>
      <trkpt lat="42.2062" lon="24.6575">
        <ele>219.40666</ele>
        <time>2022-03-07T07:51:51.472Z</time>
      </trkpt>
      <trkpt lat="42.20626" lon="24.65735">
        <ele>219.639861</ele>
        <time>2022-03-07T07:51:54.455Z</time>
      </trkpt>
      <trkpt lat="42.20632" lon="24.6572">
        <ele>219.867626</ele>
        <time>2022-03-07T07:51:57.510Z</time>
      </trkpt>
      <trkpt lat="42.20637" lon="24.65705">
        <ele>220.099547</ele>
        <time>2022-03-07T07:52:00.447Z</time>
      </trkpt>
      <trkpt lat="42.20643" lon="24.6569">
        <ele>220.340217</ele>
        <time>2022-03-07T07:52:03.476Z</time>
      </trkpt>
      <trkpt lat="42.20649" lon="24.65675">
        <ele>220.57463</ele>
        <time>2022-03-07T07:52:06.479Z</time>
      </trkpt>
      <trkpt lat="42.20655" lon="24.65659">
        <ele>220.80773</ele>
        <time>2022-03-07T07:52:09.473Z</time>
      </trkpt>
      <trkpt lat="42.20661" lon="24.65646">
        <ele>221.024352</ele>
        <time>2022-03-07T07:52:12.473Z</time>
      </trkpt>
      <trkpt lat="42.20667" lon="24.65632">
        <ele>221.253051</ele>
        <time>2022-03-07T07:52:15.488Z</time>
      </trkpt>
      <trkpt lat="42.20673" lon="24.65616">
        <ele>221.487801</ele>
        <time>2022-03-07T07:52:18.505Z</time>
      </trkpt>
      <trkpt lat="42.20678" lon="24.65601">
        <ele>221.715673</ele>
        <time>2022-03-07T07:52:21.461Z</time>
      </trkpt>
      <trkpt lat="42.20683" lon="24.65586">
        <ele>221.948553</ele>
        <time>2022-03-07T07:52:24.492Z</time>
      </trkpt>
      <trkpt lat="42.20687" lon="24.65571">
        <ele>222.170681</ele>
        <time>2022-03-07T07:52:27.480Z</time>
      </trkpt>
      <trkpt lat="42.20692" lon="24.65557">
        <ele>222.377217</ele>
        <time>2022-03-07T07:52:30.473Z</time>
      </trkpt>
      <trkpt lat="42.20697" lon="24.65543">
        <ele>222.588587</ele>
        <time>2022-03-07T07:52:33.481Z</time>
      </trkpt>
      <trkpt lat="42.20703" lon="24.65529">
        <ele>222.569487</ele>
        <time>2022-03-07T07:52:36.481Z</time>
      </trkpt>
      <trkpt lat="42.20709" lon="24.65515">
        <ele>222.345589</ele>
        <time>2022-03-07T07:52:39.464Z</time>
      </trkpt>
      <trkpt lat="42.20715" lon="24.655">
        <ele>222.119676</ele>
        <time>2022-03-07T07:52:42.484Z</time>
      </trkpt>
      <trkpt lat="42.2072" lon="24.65485">
        <ele>221.911623</ele>
        <time>2022-03-07T07:52:45.471Z</time>
      </trkpt>
      <trkpt lat="42.20724" lon="24.6547">
        <ele>221.699106</ele>
        <time>2022-03-07T07:52:48.472Z</time>
      </trkpt>
      <trkpt lat="42.20727" lon="24.65454">
        <ele>221.479101</ele>
        <time>2022-03-07T07:52:51.473Z</time>
      </trkpt>
      <trkpt lat="42.2073" lon="24.65438">
        <ele>221.259438</ele>
        <time>2022-03-07T07:52:54.513Z</time>
      </trkpt>
      <trkpt lat="42.20731" lon="24.6542">
        <ele>221.018971</ele>
        <time>2022-03-07T07:52:57.480Z</time>
      </trkpt>
      <trkpt lat="42.20731" lon="24.65403">
        <ele>220.789704</ele>
        <time>2022-03-07T07:53:00.478Z</time>
      </trkpt>
      <trkpt lat="42.20733" lon="24.65385">
        <ele>220.555809</ele>
        <time>2022-03-07T07:53:03.464Z</time>
      </trkpt>
      <trkpt lat="42.20735" lon="24.65373">
        <ele>220.390315</ele>
        <time>2022-03-07T07:53:05.514Z</time>
      </trkpt>
      <trkpt lat="42.20736" lon="24.65356">
        <ele>220.166277</ele>
        <time>2022-03-07T07:53:08.469Z</time>
      </trkpt>
      <trkpt lat="42.20737" lon="24.65339">
        <ele>219.937999</ele>
        <time>2022-03-07T07:53:11.507Z</time>
      </trkpt>
      <trkpt lat="42.20739" lon="24.65322">
        <ele>219.712786</ele>
        <time>2022-03-07T07:53:14.476Z</time>
      </trkpt>
      <trkpt lat="42.20742" lon="24.65305">
        <ele>219.481271</ele>
        <time>2022-03-07T07:53:17.526Z</time>
      </trkpt>
      <trkpt lat="42.20745" lon="24.65289">
        <ele>219.565499</ele>
        <time>2022-03-07T07:53:20.481Z</time>
      </trkpt>
      <trkpt lat="42.20748" lon="24.65273">
        <ele>219.664154</ele>
        <time>2022-03-07T07:53:23.499Z</time>
      </trkpt>
      <trkpt lat="42.20751" lon="24.65257">
        <ele>219.764955</ele>
        <time>2022-03-07T07:53:26.480Z</time>
      </trkpt>
      <trkpt lat="42.20754" lon="24.6524">
        <ele>219.868882</ele>
        <time>2022-03-07T07:53:29.471Z</time>
      </trkpt>
      <trkpt lat="42.20757" lon="24.65223">
        <ele>219.972241</ele>
        <time>2022-03-07T07:53:32.467Z</time>
      </trkpt>
      <trkpt lat="42.20761" lon="24.65208">
        <ele>220.070875</ele>
        <time>2022-03-07T07:53:35.482Z</time>
      </trkpt>
      <trkpt lat="42.20764" lon="24.65191">
        <ele>220.175209</ele>
        <time>2022-03-07T07:53:38.480Z</time>
      </trkpt>
      <trkpt lat="42.20767" lon="24.65174">
        <ele>220.279928</ele>
        <time>2022-03-07T07:53:41.467Z</time>
      </trkpt>
      <trkpt lat="42.20771" lon="24.65157">
        <ele>220.387119</ele>
        <time>2022-03-07T07:53:44.473Z</time>
      </trkpt>
      <trkpt lat="42.20775" lon="24.65141">
        <ele>220.493275</ele>
        <time>2022-03-07T07:53:47.476Z</time>
      </trkpt>
      <trkpt lat="42.20777" lon="24.65129">
        <ele>220.56656</ele>
        <time>2022-03-07T07:53:49.486Z</time>
      </trkpt>
      <trkpt lat="42.2078" lon="24.65112">
        <ele>220.669998</ele>
        <time>2022-03-07T07:53:52.467Z</time>
      </trkpt>
      <trkpt lat="42.20782" lon="24.65096">
        <ele>220.770755</ele>
        <time>2022-03-07T07:53:55.512Z</time>
      </trkpt>
      <trkpt lat="42.20785" lon="24.65078">
        <ele>220.879959</ele>
        <time>2022-03-07T07:53:58.473Z</time>
      </trkpt>
      <trkpt lat="42.20788" lon="24.65061">
        <ele>220.992321</ele>
        <time>2022-03-07T07:54:01.511Z</time>
      </trkpt>
      <trkpt lat="42.2079" lon="24.65049">
        <ele>221.080457</ele>
        <time>2022-03-07T07:54:03.482Z</time>
      </trkpt>
      <trkpt lat="42.20794" lon="24.65032">
        <ele>221.206917</ele>
        <time>2022-03-07T07:54:06.472Z</time>
      </trkpt>
      <trkpt lat="42.20798" lon="24.65016">
        <ele>221.325601</ele>
        <time>2022-03-07T07:54:09.476Z</time>
      </trkpt>
      <trkpt lat="42.20801" lon="24.65">
        <ele>221.446764</ele>
        <time>2022-03-07T07:54:12.523Z</time>
      </trkpt>
      <trkpt lat="42.20804" lon="24.64983">
        <ele>221.570232</ele>
        <time>2022-03-07T07:54:15.463Z</time>
      </trkpt>
      <trkpt lat="42.20808" lon="24.64967">
        <ele>221.690501</ele>
        <time>2022-03-07T07:54:18.500Z</time>
      </trkpt>
      <trkpt lat="42.20815" lon="24.64952">
        <ele>221.812728</ele>
        <time>2022-03-07T07:54:21.477Z</time>
      </trkpt>
      <trkpt lat="42.20821" lon="24.64938">
        <ele>221.933021</ele>
        <time>2022-03-07T07:54:24.473Z</time>
      </trkpt>
      <trkpt lat="42.20828" lon="24.64924">
        <ele>222.045256</ele>
        <time>2022-03-07T07:54:27.472Z</time>
      </trkpt>
      <trkpt lat="42.20834" lon="24.64911">
        <ele>222.161817</ele>
        <time>2022-03-07T07:54:30.475Z</time>
      </trkpt>
      <trkpt lat="42.20841" lon="24.64897">
        <ele>222.279462</ele>
        <time>2022-03-07T07:54:33.480Z</time>
      </trkpt>
      <trkpt lat="42.20849" lon="24.64884">
        <ele>222.399338</ele>
        <time>2022-03-07T07:54:36.468Z</time>
      </trkpt>
      <trkpt lat="42.20856" lon="24.6487">
        <ele>222.518794</ele>
        <time>2022-03-07T07:54:39.487Z</time>
      </trkpt>
      <trkpt lat="42.20863" lon="24.64856">
        <ele>222.639866</ele>
        <time>2022-03-07T07:54:42.482Z</time>
      </trkpt>
      <trkpt lat="42.2087" lon="24.64842">
        <ele>222.805618</ele>
        <time>2022-03-07T07:54:45.479Z</time>
      </trkpt>
      <trkpt lat="42.20877" lon="24.64827">
        <ele>222.986139</ele>
        <time>2022-03-07T07:54:48.457Z</time>
      </trkpt>
      <trkpt lat="42.20885" lon="24.64814">
        <ele>223.157736</ele>
        <time>2022-03-07T07:54:51.497Z</time>
      </trkpt>
      <trkpt lat="42.20894" lon="24.648">
        <ele>223.342525</ele>
        <time>2022-03-07T07:54:54.473Z</time>
      </trkpt>
      <trkpt lat="42.20902" lon="24.64787">
        <ele>223.518832</ele>
        <time>2022-03-07T07:54:57.483Z</time>
      </trkpt>
      <trkpt lat="42.20908" lon="24.64773">
        <ele>223.685427</ele>
        <time>2022-03-07T07:55:00.483Z</time>
      </trkpt>
      <trkpt lat="42.20916" lon="24.64758">
        <ele>223.87174</ele>
        <time>2022-03-07T07:55:03.502Z</time>
      </trkpt>
      <trkpt lat="42.20923" lon="24.64743">
        <ele>224.058052</ele>
        <time>2022-03-07T07:55:06.477Z</time>
      </trkpt>
      <trkpt lat="42.20931" lon="24.64728">
        <ele>224.238722</ele>
        <time>2022-03-07T07:55:09.473Z</time>
      </trkpt>
      <trkpt lat="42.20938" lon="24.64714">
        <ele>224.418325</ele>
        <time>2022-03-07T07:55:12.474Z</time>
      </trkpt>
      <trkpt lat="42.20946" lon="24.647">
        <ele>224.593813</ele>
        <time>2022-03-07T07:55:15.485Z</time>
      </trkpt>
      <trkpt lat="42.20954" lon="24.64686">
        <ele>224.774275</ele>
        <time>2022-03-07T07:55:18.485Z</time>
      </trkpt>
      <trkpt lat="42.20961" lon="24.64673">
        <ele>224.951399</ele>
        <time>2022-03-07T07:55:21.452Z</time>
      </trkpt>
      <trkpt lat="42.20969" lon="24.64659">
        <ele>225.126117</ele>
        <time>2022-03-07T07:55:24.472Z</time>
      </trkpt>
      <trkpt lat="42.20976" lon="24.64645">
        <ele>224.954765</ele>
        <time>2022-03-07T07:55:27.486Z</time>
      </trkpt>
      <trkpt lat="42.20983" lon="24.64632">
        <ele>224.743397</ele>
        <time>2022-03-07T07:55:30.490Z</time>
      </trkpt>
      <trkpt lat="42.2099" lon="24.64619">
        <ele>224.529854</ele>
        <time>2022-03-07T07:55:33.463Z</time>
      </trkpt>
      <trkpt lat="42.20998" lon="24.64606">
        <ele>224.30559</ele>
        <time>2022-03-07T07:55:36.502Z</time>
      </trkpt>
      <trkpt lat="42.21005" lon="24.64592">
        <ele>224.085694</ele>
        <time>2022-03-07T07:55:39.474Z</time>
      </trkpt>
      <trkpt lat="42.21012" lon="24.64579">
        <ele>223.866906</ele>
        <time>2022-03-07T07:55:42.474Z</time>
      </trkpt>
      <trkpt lat="42.2102" lon="24.64565">
        <ele>223.628902</ele>
        <time>2022-03-07T07:55:45.463Z</time>
      </trkpt>
      <trkpt lat="42.21028" lon="24.64552">
        <ele>223.414297</ele>
        <time>2022-03-07T07:55:48.491Z</time>
      </trkpt>
      <trkpt lat="42.21035" lon="24.64538">
        <ele>223.189027</ele>
        <time>2022-03-07T07:55:51.463Z</time>
      </trkpt>
      <trkpt lat="42.21042" lon="24.64524">
        <ele>222.95315</ele>
        <time>2022-03-07T07:55:54.480Z</time>
      </trkpt>
      <trkpt lat="42.2105" lon="24.6451">
        <ele>222.724762</ele>
        <time>2022-03-07T07:55:57.483Z</time>
      </trkpt>
      <trkpt lat="42.21058" lon="24.64496">
        <ele>222.495306</ele>
        <time>2022-03-07T07:56:00.466Z</time>
      </trkpt>
      <trkpt lat="42.21066" lon="24.64482">
        <ele>222.259417</ele>
        <time>2022-03-07T07:56:03.495Z</time>
      </trkpt>
      <trkpt lat="42.21073" lon="24.64468">
        <ele>222.033116</ele>
        <time>2022-03-07T07:56:06.477Z</time>
      </trkpt>
      <trkpt lat="42.21081" lon="24.64455">
        <ele>221.892746</ele>
        <time>2022-03-07T07:56:09.478Z</time>
      </trkpt>
      <trkpt lat="42.21088" lon="24.64441">
        <ele>221.833449</ele>
        <time>2022-03-07T07:56:12.483Z</time>
      </trkpt>
      <trkpt lat="42.21095" lon="24.64427">
        <ele>221.770962</ele>
        <time>2022-03-07T07:56:15.475Z</time>
      </trkpt>
      <trkpt lat="42.21103" lon="24.64413">
        <ele>221.709924</ele>
        <time>2022-03-07T07:56:18.484Z</time>
      </trkpt>
      <trkpt lat="42.21109" lon="24.64399">
        <ele>221.650552</ele>
        <time>2022-03-07T07:56:21.475Z</time>
      </trkpt>
      <trkpt lat="42.21117" lon="24.64385">
        <ele>221.588065</ele>
        <time>2022-03-07T07:56:24.479Z</time>
      </trkpt>
      <trkpt lat="42.21124" lon="24.64371">
        <ele>221.526752</ele>
        <time>2022-03-07T07:56:27.486Z</time>
      </trkpt>
      <trkpt lat="42.21131" lon="24.64358">
        <ele>221.466858</ele>
        <time>2022-03-07T07:56:30.479Z</time>
      </trkpt>
      <trkpt lat="42.21138" lon="24.64344">
        <ele>221.407216</ele>
        <time>2022-03-07T07:56:33.516Z</time>
      </trkpt>
      <trkpt lat="42.21146" lon="24.6433">
        <ele>221.346762</ele>
        <time>2022-03-07T07:56:36.493Z</time>
      </trkpt>
      <trkpt lat="42.21153" lon="24.64317">
        <ele>221.287466</ele>
        <time>2022-03-07T07:56:39.502Z</time>
      </trkpt>
      <trkpt lat="42.2116" lon="24.64303">
        <ele>221.227881</ele>
        <time>2022-03-07T07:56:42.464Z</time>
      </trkpt>
      <trkpt lat="42.21168" lon="24.6429">
        <ele>221.168837</ele>
        <time>2022-03-07T07:56:45.483Z</time>
      </trkpt>
      <trkpt lat="42.21175" lon="24.64277">
        <ele>221.109827</ele>
        <time>2022-03-07T07:56:48.505Z</time>
      </trkpt>
      <trkpt lat="42.21182" lon="24.64263">
        <ele>221.058764</ele>
        <time>2022-03-07T07:56:51.473Z</time>
      </trkpt>
      <trkpt lat="42.21189" lon="24.64248">
        <ele>221.092285</ele>
        <time>2022-03-07T07:56:54.482Z</time>
      </trkpt>
      <trkpt lat="42.21197" lon="24.64235">
        <ele>221.125273</ele>
        <time>2022-03-07T07:56:57.465Z</time>
      </trkpt>
      <trkpt lat="42.21204" lon="24.64222">
        <ele>221.157479</ele>
        <time>2022-03-07T07:57:00.473Z</time>
      </trkpt>
      <trkpt lat="42.21212" lon="24.64209">
        <ele>221.190339</ele>
        <time>2022-03-07T07:57:03.460Z</time>
      </trkpt>
      <trkpt lat="42.21219" lon="24.64196">
        <ele>221.222537</ele>
        <time>2022-03-07T07:57:06.471Z</time>
      </trkpt>
      <trkpt lat="42.21226" lon="24.64181">
        <ele>221.256326</ele>
        <time>2022-03-07T07:57:09.462Z</time>
      </trkpt>
      <trkpt lat="42.21234" lon="24.64168">
        <ele>221.289628</ele>
        <time>2022-03-07T07:57:12.512Z</time>
      </trkpt>
      <trkpt lat="42.21241" lon="24.64155">
        <ele>221.322148</ele>
        <time>2022-03-07T07:57:15.476Z</time>
      </trkpt>
      <trkpt lat="42.21249" lon="24.64141">
        <ele>221.355136</ele>
        <time>2022-03-07T07:57:18.490Z</time>
      </trkpt>
      <trkpt lat="42.21256" lon="24.64128">
        <ele>221.388284</ele>
        <time>2022-03-07T07:57:21.479Z</time>
      </trkpt>
      <trkpt lat="42.21264" lon="24.64114">
        <ele>221.422061</ele>
        <time>2022-03-07T07:57:24.485Z</time>
      </trkpt>
      <trkpt lat="42.21271" lon="24.64101">
        <ele>221.453159</ele>
        <time>2022-03-07T07:57:27.470Z</time>
      </trkpt>
      <trkpt lat="42.21278" lon="24.64088">
        <ele>221.4852</ele>
        <time>2022-03-07T07:57:30.469Z</time>
      </trkpt>
      <trkpt lat="42.21284" lon="24.64075">
        <ele>221.516298</ele>
        <time>2022-03-07T07:57:33.491Z</time>
      </trkpt>
      <trkpt lat="42.21292" lon="24.64061">
        <ele>221.542076</ele>
        <time>2022-03-07T07:57:36.478Z</time>
      </trkpt>
      <trkpt lat="42.21299" lon="24.64047">
        <ele>221.560977</ele>
        <time>2022-03-07T07:57:39.479Z</time>
      </trkpt>
      <trkpt lat="42.21307" lon="24.64033">
        <ele>221.580233</ele>
        <time>2022-03-07T07:57:42.459Z</time>
      </trkpt>
      <trkpt lat="42.21314" lon="24.6402">
        <ele>221.598326</ele>
        <time>2022-03-07T07:57:45.485Z</time>
      </trkpt>
      <trkpt lat="42.21321" lon="24.64007">
        <ele>221.616516</ele>
        <time>2022-03-07T07:57:48.469Z</time>
      </trkpt>
      <trkpt lat="42.21328" lon="24.63993">
        <ele>221.635686</ele>
        <time>2022-03-07T07:57:51.475Z</time>
      </trkpt>
      <trkpt lat="42.21335" lon="24.63978">
        <ele>221.654958</ele>
        <time>2022-03-07T07:57:54.477Z</time>
      </trkpt>
      <trkpt lat="42.21343" lon="24.63965">
        <ele>221.673412</ele>
        <time>2022-03-07T07:57:57.488Z</time>
      </trkpt>
      <trkpt lat="42.2135" lon="24.63953">
        <ele>221.690881</ele>
        <time>2022-03-07T07:58:00.479Z</time>
      </trkpt>
      <trkpt lat="42.21357" lon="24.6394">
        <ele>221.708438</ele>
        <time>2022-03-07T07:58:03.482Z</time>
      </trkpt>
      <trkpt lat="42.21364" lon="24.63927">
        <ele>221.726712</ele>
        <time>2022-03-07T07:58:06.474Z</time>
      </trkpt>
      <trkpt lat="42.21372" lon="24.63914">
        <ele>221.744996</ele>
        <time>2022-03-07T07:58:09.489Z</time>
      </trkpt>
      <trkpt lat="42.2138" lon="24.63902">
        <ele>221.763311</ele>
        <time>2022-03-07T07:58:12.471Z</time>
      </trkpt>
      <trkpt lat="42.21388" lon="24.63889">
        <ele>221.781939</ele>
        <time>2022-03-07T07:58:15.471Z</time>
      </trkpt>
      <trkpt lat="42.21397" lon="24.63878">
        <ele>221.800586</ele>
        <time>2022-03-07T07:58:18.502Z</time>
      </trkpt>
      <trkpt lat="42.21407" lon="24.63867">
        <ele>221.930061</ele>
        <time>2022-03-07T07:58:21.482Z</time>
      </trkpt>
      <trkpt lat="42.21417" lon="24.63856">
        <ele>222.070106</ele>
        <time>2022-03-07T07:58:24.504Z</time>
      </trkpt>
      <trkpt lat="42.21426" lon="24.63845">
        <ele>222.206836</ele>
        <time>2022-03-07T07:58:27.463Z</time>
      </trkpt>
      <trkpt lat="42.21436" lon="24.63833">
        <ele>222.345733</ele>
        <time>2022-03-07T07:58:30.480Z</time>
      </trkpt>
      <trkpt lat="42.21446" lon="24.63823">
        <ele>222.48596</ele>
        <time>2022-03-07T07:58:33.488Z</time>
      </trkpt>
      <trkpt lat="42.21457" lon="24.63812">
        <ele>222.622886</ele>
        <time>2022-03-07T07:58:36.545Z</time>
      </trkpt>
      <trkpt lat="42.21466" lon="24.63801">
        <ele>222.761266</ele>
        <time>2022-03-07T07:58:39.481Z</time>
      </trkpt>
      <trkpt lat="42.21476" lon="24.6379">
        <ele>222.894491</ele>
        <time>2022-03-07T07:58:42.474Z</time>
      </trkpt>
      <trkpt lat="42.21485" lon="24.6378">
        <ele>223.029832</ele>
        <time>2022-03-07T07:58:45.461Z</time>
      </trkpt>
      <trkpt lat="42.21495" lon="24.63769">
        <ele>223.158291</ele>
        <time>2022-03-07T07:58:48.475Z</time>
      </trkpt>
      <trkpt lat="42.21504" lon="24.6376">
        <ele>223.284075</ele>
        <time>2022-03-07T07:58:51.475Z</time>
      </trkpt>
      <trkpt lat="42.21513" lon="24.63749">
        <ele>223.421326</ele>
        <time>2022-03-07T07:58:54.472Z</time>
      </trkpt>
      <trkpt lat="42.21523" lon="24.63737">
        <ele>223.556674</ele>
        <time>2022-03-07T07:58:57.487Z</time>
      </trkpt>
      <trkpt lat="42.21531" lon="24.63726">
        <ele>223.684599</ele>
        <time>2022-03-07T07:59:00.467Z</time>
      </trkpt>
      <trkpt lat="42.2154" lon="24.63715">
        <ele>223.852819</ele>
        <time>2022-03-07T07:59:03.465Z</time>
      </trkpt>
      <trkpt lat="42.21549" lon="24.63704">
        <ele>224.076666</ele>
        <time>2022-03-07T07:59:06.511Z</time>
      </trkpt>
      <trkpt lat="42.21559" lon="24.63692">
        <ele>224.302694</ele>
        <time>2022-03-07T07:59:09.472Z</time>
      </trkpt>
      <trkpt lat="42.2157" lon="24.63682">
        <ele>224.53688</ele>
        <time>2022-03-07T07:59:12.459Z</time>
      </trkpt>
      <trkpt lat="42.2158" lon="24.63672">
        <ele>224.761973</ele>
        <time>2022-03-07T07:59:15.500Z</time>
      </trkpt>
      <trkpt lat="42.2159" lon="24.63661">
        <ele>224.978302</ele>
        <time>2022-03-07T07:59:18.477Z</time>
      </trkpt>
      <trkpt lat="42.21598" lon="24.63652">
        <ele>225.169059</ele>
        <time>2022-03-07T07:59:21.482Z</time>
      </trkpt>
      <trkpt lat="42.21607" lon="24.63641">
        <ele>225.378116</ele>
        <time>2022-03-07T07:59:24.478Z</time>
      </trkpt>
      <trkpt lat="42.21616" lon="24.6363">
        <ele>225.595906</ele>
        <time>2022-03-07T07:59:27.478Z</time>
      </trkpt>
      <trkpt lat="42.21626" lon="24.6362">
        <ele>225.813213</ele>
        <time>2022-03-07T07:59:30.471Z</time>
      </trkpt>
      <trkpt lat="42.21637" lon="24.63609">
        <ele>226.054579</ele>
        <time>2022-03-07T07:59:33.483Z</time>
      </trkpt>
      <trkpt lat="42.21644" lon="24.63601">
        <ele>226.217207</ele>
        <time>2022-03-07T07:59:35.476Z</time>
      </trkpt>
      <trkpt lat="42.21651" lon="24.63593">
        <ele>226.379453</ele>
        <time>2022-03-07T07:59:37.475Z</time>
      </trkpt>
      <trkpt lat="42.21661" lon="24.63582">
        <ele>226.606709</ele>
        <time>2022-03-07T07:59:40.478Z</time>
      </trkpt>
      <trkpt lat="42.2167" lon="24.63572">
        <ele>226.812398</ele>
        <time>2022-03-07T07:59:43.475Z</time>
      </trkpt>
      <trkpt lat="42.2168" lon="24.63562">
        <ele>226.852894</ele>
        <time>2022-03-07T07:59:46.483Z</time>
      </trkpt>
      <trkpt lat="42.21688" lon="24.63551">
        <ele>226.751291</ele>
        <time>2022-03-07T07:59:49.478Z</time>
      </trkpt>
      <trkpt lat="42.21697" lon="24.63539">
        <ele>226.640386</ele>
        <time>2022-03-07T07:59:52.483Z</time>
      </trkpt>
      <trkpt lat="42.21707" lon="24.63528">
        <ele>226.528198</ele>
        <time>2022-03-07T07:59:55.507Z</time>
      </trkpt>
      <trkpt lat="42.21716" lon="24.63517">
        <ele>226.422233</ele>
        <time>2022-03-07T07:59:58.500Z</time>
      </trkpt>
      <trkpt lat="42.21725" lon="24.63506">
        <ele>226.314591</ele>
        <time>2022-03-07T08:00:01.495Z</time>
      </trkpt>
      <trkpt lat="42.21734" lon="24.63496">
        <ele>226.208273</ele>
        <time>2022-03-07T08:00:04.493Z</time>
      </trkpt>
      <trkpt lat="42.21743" lon="24.63484">
        <ele>226.099571</ele>
        <time>2022-03-07T08:00:07.482Z</time>
      </trkpt>
      <trkpt lat="42.21754" lon="24.63474">
        <ele>225.986514</ele>
        <time>2022-03-07T08:00:10.468Z</time>
      </trkpt>
      <trkpt lat="42.21764" lon="24.63463">
        <ele>225.871468</ele>
        <time>2022-03-07T08:00:13.473Z</time>
      </trkpt>
      <trkpt lat="42.21774" lon="24.63453">
        <ele>225.761881</ele>
        <time>2022-03-07T08:00:16.473Z</time>
      </trkpt>
      <trkpt lat="42.21785" lon="24.63442">
        <ele>225.645743</ele>
        <time>2022-03-07T08:00:19.458Z</time>
      </trkpt>
      <trkpt lat="42.21795" lon="24.63432">
        <ele>225.534281</ele>
        <time>2022-03-07T08:00:22.492Z</time>
      </trkpt>
      <trkpt lat="42.21804" lon="24.63422">
        <ele>225.426393</ele>
        <time>2022-03-07T08:00:25.475Z</time>
      </trkpt>
      <trkpt lat="42.21813" lon="24.63412">
        <ele>225.32618</ele>
        <time>2022-03-07T08:00:28.464Z</time>
      </trkpt>
      <trkpt lat="42.21823" lon="24.63401">
        <ele>225.255989</ele>
        <time>2022-03-07T08:00:31.463Z</time>
      </trkpt>
      <trkpt lat="42.21833" lon="24.6339">
        <ele>225.180218</ele>
        <time>2022-03-07T08:00:34.466Z</time>
      </trkpt>
      <trkpt lat="42.21843" lon="24.63379">
        <ele>225.103278</ele>
        <time>2022-03-07T08:00:37.498Z</time>
      </trkpt>
      <trkpt lat="42.21853" lon="24.63368">
        <ele>225.031373</ele>
        <time>2022-03-07T08:00:40.472Z</time>
      </trkpt>
      <trkpt lat="42.21862" lon="24.63356">
        <ele>224.958217</ele>
        <time>2022-03-07T08:00:43.465Z</time>
      </trkpt>
      <trkpt lat="42.21872" lon="24.63345">
        <ele>224.883759</ele>
        <time>2022-03-07T08:00:46.464Z</time>
      </trkpt>
      <trkpt lat="42.21881" lon="24.63335">
        <ele>224.815007</ele>
        <time>2022-03-07T08:00:49.478Z</time>
      </trkpt>
      <trkpt lat="42.21891" lon="24.63324">
        <ele>224.743204</ele>
        <time>2022-03-07T08:00:52.481Z</time>
      </trkpt>
      <trkpt lat="42.219" lon="24.63313">
        <ele>224.671336</ele>
        <time>2022-03-07T08:00:55.495Z</time>
      </trkpt>
      <trkpt lat="42.2191" lon="24.63302">
        <ele>224.595116</ele>
        <time>2022-03-07T08:00:58.471Z</time>
      </trkpt>
      <trkpt lat="42.2192" lon="24.6329">
        <ele>224.51917</ele>
        <time>2022-03-07T08:01:01.484Z</time>
      </trkpt>
      <trkpt lat="42.2193" lon="24.63279">
        <ele>224.446431</ele>
        <time>2022-03-07T08:01:04.479Z</time>
      </trkpt>
      <trkpt lat="42.21939" lon="24.63268">
        <ele>224.373189</ele>
        <time>2022-03-07T08:01:07.473Z</time>
      </trkpt>
      <trkpt lat="42.21949" lon="24.63258">
        <ele>224.302445</ele>
        <time>2022-03-07T08:01:10.477Z</time>
      </trkpt>
      <trkpt lat="42.21958" lon="24.63247">
        <ele>224.431495</ele>
        <time>2022-03-07T08:01:13.471Z</time>
      </trkpt>
      <trkpt lat="42.21966" lon="24.63236">
        <ele>224.604071</ele>
        <time>2022-03-07T08:01:16.479Z</time>
      </trkpt>
      <trkpt lat="42.21976" lon="24.63225">
        <ele>224.780592</ele>
        <time>2022-03-07T08:01:19.481Z</time>
      </trkpt>
      <trkpt lat="42.21985" lon="24.63214">
        <ele>224.956389</ele>
        <time>2022-03-07T08:01:22.478Z</time>
      </trkpt>
      <trkpt lat="42.21994" lon="24.63203">
        <ele>225.134808</ele>
        <time>2022-03-07T08:01:25.479Z</time>
      </trkpt>
      <trkpt lat="42.22004" lon="24.63193">
        <ele>225.310522</ele>
        <time>2022-03-07T08:01:28.474Z</time>
      </trkpt>
      <trkpt lat="42.22012" lon="24.63182">
        <ele>225.483472</ele>
        <time>2022-03-07T08:01:31.472Z</time>
      </trkpt>
      <trkpt lat="42.22021" lon="24.63171">
        <ele>225.655336</ele>
        <time>2022-03-07T08:01:34.507Z</time>
      </trkpt>
      <trkpt lat="42.22031" lon="24.63161">
        <ele>225.832493</ele>
        <time>2022-03-07T08:01:37.470Z</time>
      </trkpt>
      <trkpt lat="42.22041" lon="24.63151">
        <ele>226.011793</ele>
        <time>2022-03-07T08:01:40.476Z</time>
      </trkpt>
      <trkpt lat="42.22049" lon="24.6314">
        <ele>226.177223</ele>
        <time>2022-03-07T08:01:43.471Z</time>
      </trkpt>
      <trkpt lat="42.22059" lon="24.6313">
        <ele>226.352489</ele>
        <time>2022-03-07T08:01:46.470Z</time>
      </trkpt>
      <trkpt lat="42.22068" lon="24.63119">
        <ele>226.531594</ele>
        <time>2022-03-07T08:01:49.483Z</time>
      </trkpt>
      <trkpt lat="42.22078" lon="24.63109">
        <ele>226.707978</ele>
        <time>2022-03-07T08:01:52.473Z</time>
      </trkpt>
      <trkpt lat="42.22087" lon="24.63099">
        <ele>226.876337</ele>
        <time>2022-03-07T08:01:55.462Z</time>
      </trkpt>
      <trkpt lat="42.22095" lon="24.63088">
        <ele>226.972679</ele>
        <time>2022-03-07T08:01:58.478Z</time>
      </trkpt>
      <trkpt lat="42.22104" lon="24.63077">
        <ele>227.071111</ele>
        <time>2022-03-07T08:02:01.483Z</time>
      </trkpt>
      <trkpt lat="42.22114" lon="24.63066">
        <ele>227.168565</ele>
        <time>2022-03-07T08:02:04.484Z</time>
      </trkpt>
      <trkpt lat="42.22123" lon="24.63055">
        <ele>227.270978</ele>
        <time>2022-03-07T08:02:07.533Z</time>
      </trkpt>
      <trkpt lat="42.22133" lon="24.63045">
        <ele>227.369064</ele>
        <time>2022-03-07T08:02:10.479Z</time>
      </trkpt>
      <trkpt lat="42.22143" lon="24.63036">
        <ele>227.468121</ele>
        <time>2022-03-07T08:02:13.474Z</time>
      </trkpt>
      <trkpt lat="42.22153" lon="24.63025">
        <ele>227.570487</ele>
        <time>2022-03-07T08:02:16.478Z</time>
      </trkpt>
      <trkpt lat="42.22163" lon="24.63015">
        <ele>227.663537</ele>
        <time>2022-03-07T08:02:19.481Z</time>
      </trkpt>
      <trkpt lat="42.22171" lon="24.63005">
        <ele>227.754872</ele>
        <time>2022-03-07T08:02:22.468Z</time>
      </trkpt>
      <trkpt lat="42.22182" lon="24.62995">
        <ele>227.858275</ele>
        <time>2022-03-07T08:02:25.480Z</time>
      </trkpt>
      <trkpt lat="42.22189" lon="24.62987">
        <ele>227.935583</ele>
        <time>2022-03-07T08:02:27.479Z</time>
      </trkpt>
      <trkpt lat="42.22199" lon="24.62975">
        <ele>228.039982</ele>
        <time>2022-03-07T08:02:30.510Z</time>
      </trkpt>
      <trkpt lat="42.22209" lon="24.62965">
        <ele>228.137635</ele>
        <time>2022-03-07T08:02:33.487Z</time>
      </trkpt>
      <trkpt lat="42.22217" lon="24.62954">
        <ele>228.230915</ele>
        <time>2022-03-07T08:02:36.522Z</time>
      </trkpt>
      <trkpt lat="42.22226" lon="24.62944">
        <ele>228.319651</ele>
        <time>2022-03-07T08:02:39.473Z</time>
      </trkpt>
      <trkpt lat="42.22235" lon="24.62934">
        <ele>228.191778</ele>
        <time>2022-03-07T08:02:42.470Z</time>
      </trkpt>
      <trkpt lat="42.22243" lon="24.62923">
        <ele>228.059189</ele>
        <time>2022-03-07T08:02:45.501Z</time>
      </trkpt>
      <trkpt lat="42.22253" lon="24.62913">
        <ele>227.922603</ele>
        <time>2022-03-07T08:02:48.465Z</time>
      </trkpt>
      <trkpt lat="42.22263" lon="24.62902">
        <ele>227.778091</ele>
        <time>2022-03-07T08:02:51.474Z</time>
      </trkpt>
      <trkpt lat="42.22272" lon="24.62892">
        <ele>227.640105</ele>
        <time>2022-03-07T08:02:54.475Z</time>
      </trkpt>
      <trkpt lat="42.22281" lon="24.6288">
        <ele>227.49998</ele>
        <time>2022-03-07T08:02:57.463Z</time>
      </trkpt>
      <trkpt lat="42.2229" lon="24.62869">
        <ele>227.359446</ele>
        <time>2022-03-07T08:03:00.485Z</time>
      </trkpt>
      <trkpt lat="42.223" lon="24.62857">
        <ele>227.2168</ele>
        <time>2022-03-07T08:03:03.478Z</time>
      </trkpt>
      <trkpt lat="42.2231" lon="24.62845">
        <ele>227.066546</ele>
        <time>2022-03-07T08:03:06.464Z</time>
      </trkpt>
      <trkpt lat="42.2232" lon="24.62835">
        <ele>226.924331</ele>
        <time>2022-03-07T08:03:09.522Z</time>
      </trkpt>
      <trkpt lat="42.2233" lon="24.62825">
        <ele>226.782115</ele>
        <time>2022-03-07T08:03:12.469Z</time>
      </trkpt>
      <trkpt lat="42.22339" lon="24.62814">
        <ele>226.6459</ele>
        <time>2022-03-07T08:03:15.460Z</time>
      </trkpt>
      <trkpt lat="42.22348" lon="24.62804">
        <ele>226.515232</ele>
        <time>2022-03-07T08:03:18.474Z</time>
      </trkpt>
      <trkpt lat="42.22357" lon="24.62793">
        <ele>226.37551</ele>
        <time>2022-03-07T08:03:21.459Z</time>
      </trkpt>
      <trkpt lat="42.22366" lon="24.62782">
        <ele>226.351044</ele>
        <time>2022-03-07T08:03:24.468Z</time>
      </trkpt>
      <trkpt lat="42.22375" lon="24.62772">
        <ele>226.490072</ele>
        <time>2022-03-07T08:03:27.471Z</time>
      </trkpt>
      <trkpt lat="42.22384" lon="24.62762">
        <ele>226.620449</ele>
        <time>2022-03-07T08:03:30.477Z</time>
      </trkpt>
      <trkpt lat="42.22392" lon="24.62751">
        <ele>226.75861</ele>
        <time>2022-03-07T08:03:33.473Z</time>
      </trkpt>
      <trkpt lat="42.22401" lon="24.62741">
        <ele>226.895742</ele>
        <time>2022-03-07T08:03:36.478Z</time>
      </trkpt>
      <trkpt lat="42.22411" lon="24.6273">
        <ele>227.036127</ele>
        <time>2022-03-07T08:03:39.479Z</time>
      </trkpt>
      <trkpt lat="42.2242" lon="24.6272">
        <ele>227.175806</ele>
        <time>2022-03-07T08:03:42.506Z</time>
      </trkpt>
      <trkpt lat="42.22428" lon="24.6271">
        <ele>227.302132</ele>
        <time>2022-03-07T08:03:45.480Z</time>
      </trkpt>
      <trkpt lat="42.22436" lon="24.627">
        <ele>227.433644</ele>
        <time>2022-03-07T08:03:48.466Z</time>
      </trkpt>
      <trkpt lat="42.22446" lon="24.62689">
        <ele>227.581662</ele>
        <time>2022-03-07T08:03:51.482Z</time>
      </trkpt>
      <trkpt lat="42.22455" lon="24.62678">
        <ele>227.717533</ele>
        <time>2022-03-07T08:03:54.472Z</time>
      </trkpt>
      <trkpt lat="42.22464" lon="24.62668">
        <ele>227.855765</ele>
        <time>2022-03-07T08:03:57.489Z</time>
      </trkpt>
      <trkpt lat="42.22471" lon="24.62656">
        <ele>227.99277</ele>
        <time>2022-03-07T08:04:00.482Z</time>
      </trkpt>
      <trkpt lat="42.22479" lon="24.62644">
        <ele>228.130309</ele>
        <time>2022-03-07T08:04:03.486Z</time>
      </trkpt>
      <trkpt lat="42.22487" lon="24.6263">
        <ele>228.280043</ele>
        <time>2022-03-07T08:04:06.475Z</time>
      </trkpt>
      <trkpt lat="42.22494" lon="24.62618">
        <ele>228.398039</ele>
        <time>2022-03-07T08:04:09.483Z</time>
      </trkpt>
      <trkpt lat="42.22501" lon="24.62605">
        <ele>228.455238</ele>
        <time>2022-03-07T08:04:12.491Z</time>
      </trkpt>
      <trkpt lat="42.22508" lon="24.62591">
        <ele>228.513625</ele>
        <time>2022-03-07T08:04:15.486Z</time>
      </trkpt>
      <trkpt lat="42.22515" lon="24.62579">
        <ele>228.570528</ele>
        <time>2022-03-07T08:04:18.500Z</time>
      </trkpt>
      <trkpt lat="42.22521" lon="24.62564">
        <ele>228.630284</ele>
        <time>2022-03-07T08:04:21.527Z</time>
      </trkpt>
      <trkpt lat="42.22528" lon="24.62549">
        <ele>228.693416</ele>
        <time>2022-03-07T08:04:24.465Z</time>
      </trkpt>
      <trkpt lat="42.22535" lon="24.62535">
        <ele>228.752867</ele>
        <time>2022-03-07T08:04:27.479Z</time>
      </trkpt>
      <trkpt lat="42.22541" lon="24.62522">
        <ele>228.807975</ele>
        <time>2022-03-07T08:04:30.522Z</time>
      </trkpt>
      <trkpt lat="42.22547" lon="24.62508">
        <ele>228.866362</ele>
        <time>2022-03-07T08:04:33.465Z</time>
      </trkpt>
      <trkpt lat="42.22554" lon="24.62494">
        <ele>228.924854</ele>
        <time>2022-03-07T08:04:36.523Z</time>
      </trkpt>
      <trkpt lat="42.22561" lon="24.62479">
        <ele>228.987534</ele>
        <time>2022-03-07T08:04:39.546Z</time>
      </trkpt>
      <trkpt lat="42.22568" lon="24.62465">
        <ele>229.048396</ele>
        <time>2022-03-07T08:04:42.465Z</time>
      </trkpt>
      <trkpt lat="42.22574" lon="24.62453">
        <ele>229.101316</ele>
        <time>2022-03-07T08:04:45.478Z</time>
      </trkpt>
      <trkpt lat="42.2258" lon="24.62441">
        <ele>229.152811</ele>
        <time>2022-03-07T08:04:48.475Z</time>
      </trkpt>
      <trkpt lat="42.22586" lon="24.62427">
        <ele>229.208571</ele>
        <time>2022-03-07T08:04:51.473Z</time>
      </trkpt>
      <trkpt lat="42.22592" lon="24.62413">
        <ele>229.238465</ele>
        <time>2022-03-07T08:04:54.474Z</time>
      </trkpt>
      <trkpt lat="42.22597" lon="24.62399">
        <ele>229.178209</ele>
        <time>2022-03-07T08:04:57.495Z</time>
      </trkpt>
      <trkpt lat="42.22603" lon="24.62386">
        <ele>229.120872</ele>
        <time>2022-03-07T08:05:00.465Z</time>
      </trkpt>
      <trkpt lat="42.22608" lon="24.62372">
        <ele>229.062702</ele>
        <time>2022-03-07T08:05:03.482Z</time>
      </trkpt>
      <trkpt lat="42.22614" lon="24.6236">
        <ele>229.007092</ele>
        <time>2022-03-07T08:05:06.477Z</time>
      </trkpt>
      <trkpt lat="42.2262" lon="24.62347">
        <ele>228.948995</ele>
        <time>2022-03-07T08:05:09.475Z</time>
      </trkpt>
      <trkpt lat="42.22625" lon="24.62333">
        <ele>228.89024</ele>
        <time>2022-03-07T08:05:12.480Z</time>
      </trkpt>
      <trkpt lat="42.22631" lon="24.62321">
        <ele>228.835715</ele>
        <time>2022-03-07T08:05:15.490Z</time>
      </trkpt>
      <trkpt lat="42.22637" lon="24.62309">
        <ele>228.780913</ele>
        <time>2022-03-07T08:05:18.452Z</time>
      </trkpt>
      <trkpt lat="42.22643" lon="24.62296">
        <ele>228.722158</ele>
        <time>2022-03-07T08:05:21.481Z</time>
      </trkpt>
      <trkpt lat="42.22649" lon="24.62283">
        <ele>228.664406</ele>
        <time>2022-03-07T08:05:24.482Z</time>
      </trkpt>
      <trkpt lat="42.22656" lon="24.6227">
        <ele>228.602957</ele>
        <time>2022-03-07T08:05:27.516Z</time>
      </trkpt>
      <trkpt lat="42.22663" lon="24.62256">
        <ele>228.540535</ele>
        <time>2022-03-07T08:05:30.475Z</time>
      </trkpt>
      <trkpt lat="42.22669" lon="24.62243">
        <ele>228.481699</ele>
        <time>2022-03-07T08:05:33.458Z</time>
      </trkpt>
      <trkpt lat="42.22674" lon="24.6223">
        <ele>228.424695</ele>
        <time>2022-03-07T08:05:36.473Z</time>
      </trkpt>
      <trkpt lat="42.22679" lon="24.62218">
        <ele>228.370922</ele>
        <time>2022-03-07T08:05:39.477Z</time>
      </trkpt>
      <trkpt lat="42.22684" lon="24.62205">
        <ele>228.332252</ele>
        <time>2022-03-07T08:05:42.484Z</time>
      </trkpt>
      <trkpt lat="42.2269" lon="24.62193">
        <ele>228.342947</ele>
        <time>2022-03-07T08:05:45.479Z</time>
      </trkpt>
      <trkpt lat="42.22695" lon="24.6218">
        <ele>228.353161</ele>
        <time>2022-03-07T08:05:48.471Z</time>
      </trkpt>
      <trkpt lat="42.22701" lon="24.62169">
        <ele>228.363227</ele>
        <time>2022-03-07T08:05:51.478Z</time>
      </trkpt>
      <trkpt lat="42.22707" lon="24.62155">
        <ele>228.374302</ele>
        <time>2022-03-07T08:05:54.516Z</time>
      </trkpt>
      <trkpt lat="42.22712" lon="24.62143">
        <ele>228.385242</ele>
        <time>2022-03-07T08:05:57.483Z</time>
      </trkpt>
      <trkpt lat="42.22718" lon="24.62129">
        <ele>228.396185</ele>
        <time>2022-03-07T08:06:00.465Z</time>
      </trkpt>
      <trkpt lat="42.22724" lon="24.62115">
        <ele>228.408247</ele>
        <time>2022-03-07T08:06:03.483Z</time>
      </trkpt>
      <trkpt lat="42.22731" lon="24.62102">
        <ele>228.419932</ele>
        <time>2022-03-07T08:06:06.473Z</time>
      </trkpt>
      <trkpt lat="42.22737" lon="24.62088">
        <ele>228.431502</ele>
        <time>2022-03-07T08:06:09.462Z</time>
      </trkpt>
      <trkpt lat="42.22743" lon="24.62075">
        <ele>228.443081</ele>
        <time>2022-03-07T08:06:12.475Z</time>
      </trkpt>
      <trkpt lat="42.22749" lon="24.62061">
        <ele>228.454443</ele>
        <time>2022-03-07T08:06:15.483Z</time>
      </trkpt>
      <trkpt lat="42.22756" lon="24.62048">
        <ele>228.465611</ele>
        <time>2022-03-07T08:06:18.462Z</time>
      </trkpt>
      <trkpt lat="42.22762" lon="24.62036">
        <ele>228.476709</ele>
        <time>2022-03-07T08:06:21.507Z</time>
      </trkpt>
      <trkpt lat="42.22768" lon="24.62023">
        <ele>228.487677</ele>
        <time>2022-03-07T08:06:24.484Z</time>
      </trkpt>
      <trkpt lat="42.22774" lon="24.62011">
        <ele>228.498144</ele>
        <time>2022-03-07T08:06:27.460Z</time>
      </trkpt>
      <trkpt lat="42.2278" lon="24.61997">
        <ele>228.474837</ele>
        <time>2022-03-07T08:06:30.478Z</time>
      </trkpt>
      <trkpt lat="42.22786" lon="24.61983">
        <ele>228.374627</ele>
        <time>2022-03-07T08:06:33.486Z</time>
      </trkpt>
      <trkpt lat="42.22792" lon="24.6197">
        <ele>228.278198</ele>
        <time>2022-03-07T08:06:36.475Z</time>
      </trkpt>
      <trkpt lat="42.22799" lon="24.61957">
        <ele>228.181946</ele>
        <time>2022-03-07T08:06:39.471Z</time>
      </trkpt>
      <trkpt lat="42.22805" lon="24.61943">
        <ele>228.088187</ele>
        <time>2022-03-07T08:06:42.483Z</time>
      </trkpt>
      <trkpt lat="42.22811" lon="24.6193">
        <ele>227.993802</ele>
        <time>2022-03-07T08:06:45.476Z</time>
      </trkpt>
      <trkpt lat="42.22816" lon="24.61917">
        <ele>227.902328</ele>
        <time>2022-03-07T08:06:48.469Z</time>
      </trkpt>
      <trkpt lat="42.22822" lon="24.61905">
        <ele>227.819094</ele>
        <time>2022-03-07T08:06:51.482Z</time>
      </trkpt>
      <trkpt lat="42.22828" lon="24.61893">
        <ele>227.732032</ele>
        <time>2022-03-07T08:06:54.511Z</time>
      </trkpt>
      <trkpt lat="42.22834" lon="24.61881">
        <ele>227.645816</ele>
        <time>2022-03-07T08:06:57.484Z</time>
      </trkpt>
      <trkpt lat="42.22839" lon="24.61868">
        <ele>227.555149</ele>
        <time>2022-03-07T08:07:00.471Z</time>
      </trkpt>
      <trkpt lat="42.22845" lon="24.61855">
        <ele>227.459933</ele>
        <time>2022-03-07T08:07:03.479Z</time>
      </trkpt>
      <trkpt lat="42.22851" lon="24.61842">
        <ele>227.367943</ele>
        <time>2022-03-07T08:07:06.482Z</time>
      </trkpt>
      <trkpt lat="42.22858" lon="24.61828">
        <ele>227.266693</ele>
        <time>2022-03-07T08:07:09.462Z</time>
      </trkpt>
      <trkpt lat="42.22864" lon="24.61815">
        <ele>227.173748</ele>
        <time>2022-03-07T08:07:12.475Z</time>
      </trkpt>
      <trkpt lat="42.22871" lon="24.61802">
        <ele>227.078779</ele>
        <time>2022-03-07T08:07:15.471Z</time>
      </trkpt>
      <trkpt lat="42.22877" lon="24.6179">
        <ele>227.045578</ele>
        <time>2022-03-07T08:07:18.484Z</time>
      </trkpt>
      <trkpt lat="42.22882" lon="24.61776">
        <ele>227.062683</ele>
        <time>2022-03-07T08:07:21.482Z</time>
      </trkpt>
      <trkpt lat="42.22888" lon="24.61763">
        <ele>227.079597</ele>
        <time>2022-03-07T08:07:24.479Z</time>
      </trkpt>
      <trkpt lat="42.22894" lon="24.61749">
        <ele>227.096677</ele>
        <time>2022-03-07T08:07:27.518Z</time>
      </trkpt>
      <trkpt lat="42.229" lon="24.61736">
        <ele>227.113173</ele>
        <time>2022-03-07T08:07:30.505Z</time>
      </trkpt>
      <trkpt lat="42.22906" lon="24.61724">
        <ele>227.128755</ele>
        <time>2022-03-07T08:07:33.475Z</time>
      </trkpt>
      <trkpt lat="42.22911" lon="24.61712">
        <ele>227.14445</ele>
        <time>2022-03-07T08:07:36.465Z</time>
      </trkpt>
      <trkpt lat="42.22916" lon="24.61699">
        <ele>227.160268</ele>
        <time>2022-03-07T08:07:39.487Z</time>
      </trkpt>
      <trkpt lat="42.22922" lon="24.61687">
        <ele>227.176424</ele>
        <time>2022-03-07T08:07:42.481Z</time>
      </trkpt>
      <trkpt lat="42.22927" lon="24.61674">
        <ele>227.192178</ele>
        <time>2022-03-07T08:07:45.469Z</time>
      </trkpt>
      <trkpt lat="42.22934" lon="24.61661">
        <ele>227.209251</ele>
        <time>2022-03-07T08:07:48.472Z</time>
      </trkpt>
      <trkpt lat="42.2294" lon="24.61649">
        <ele>227.225614</ele>
        <time>2022-03-07T08:07:51.486Z</time>
      </trkpt>
      <trkpt lat="42.22946" lon="24.61635">
        <ele>227.243652</ele>
        <time>2022-03-07T08:07:54.465Z</time>
      </trkpt>
      <trkpt lat="42.22952" lon="24.61622">
        <ele>227.260461</ele>
        <time>2022-03-07T08:07:57.476Z</time>
      </trkpt>
      <trkpt lat="42.22958" lon="24.61609">
        <ele>227.277007</ele>
        <time>2022-03-07T08:08:00.481Z</time>
      </trkpt>
      <trkpt lat="42.22964" lon="24.61595">
        <ele>227.294111</ele>
        <time>2022-03-07T08:08:03.474Z</time>
      </trkpt>
      <trkpt lat="42.22969" lon="24.61582">
        <ele>227.315194</ele>
        <time>2022-03-07T08:08:06.531Z</time>
      </trkpt>
      <trkpt lat="42.22975" lon="24.61569">
        <ele>227.338503</ele>
        <time>2022-03-07T08:08:09.481Z</time>
      </trkpt>
      <trkpt lat="42.2298" lon="24.61557">
        <ele>227.360896</ele>
        <time>2022-03-07T08:08:12.519Z</time>
      </trkpt>
      <trkpt lat="42.22986" lon="24.61545">
        <ele>227.384457</ele>
        <time>2022-03-07T08:08:15.490Z</time>
      </trkpt>
      <trkpt lat="42.22992" lon="24.61533">
        <ele>227.408344</ele>
        <time>2022-03-07T08:08:18.471Z</time>
      </trkpt>
      <trkpt lat="42.22998" lon="24.6152">
        <ele>227.432431</ele>
        <time>2022-03-07T08:08:21.470Z</time>
      </trkpt>
      <trkpt lat="42.23004" lon="24.61507">
        <ele>227.457512</ele>
        <time>2022-03-07T08:08:24.476Z</time>
      </trkpt>
      <trkpt lat="42.2301" lon="24.61495">
        <ele>227.480526</ele>
        <time>2022-03-07T08:08:27.491Z</time>
      </trkpt>
      <trkpt lat="42.23015" lon="24.61482">
        <ele>227.504277</ele>
        <time>2022-03-07T08:08:30.465Z</time>
      </trkpt>
      <trkpt lat="42.23021" lon="24.6147">
        <ele>227.52736</ele>
        <time>2022-03-07T08:08:33.486Z</time>
      </trkpt>
      <trkpt lat="42.23027" lon="24.61457">
        <ele>227.552205</ele>
        <time>2022-03-07T08:08:36.466Z</time>
      </trkpt>
      <trkpt lat="42.23034" lon="24.61444">
        <ele>227.577906</ele>
        <time>2022-03-07T08:08:39.489Z</time>
      </trkpt>
      <trkpt lat="42.2304" lon="24.61432">
        <ele>227.601779</ele>
        <time>2022-03-07T08:08:42.474Z</time>
      </trkpt>
      <trkpt lat="42.23046" lon="24.6142">
        <ele>227.625364</ele>
        <time>2022-03-07T08:08:45.505Z</time>
      </trkpt>
      <trkpt lat="42.23051" lon="24.61406">
        <ele>227.650141</ele>
        <time>2022-03-07T08:08:48.487Z</time>
      </trkpt>
      <trkpt lat="42.23057" lon="24.61393">
        <ele>227.67453</ele>
        <time>2022-03-07T08:08:51.504Z</time>
      </trkpt>
      <trkpt lat="42.23063" lon="24.6138">
        <ele>227.693263</ele>
        <time>2022-03-07T08:08:54.471Z</time>
      </trkpt>
      <trkpt lat="42.23069" lon="24.61367">
        <ele>227.686031</ele>
        <time>2022-03-07T08:08:57.479Z</time>
      </trkpt>
      <trkpt lat="42.23075" lon="24.61355">
        <ele>227.678918</ele>
        <time>2022-03-07T08:09:00.462Z</time>
      </trkpt>
      <trkpt lat="42.23081" lon="24.61342">
        <ele>227.671883</ele>
        <time>2022-03-07T08:09:03.473Z</time>
      </trkpt>
      <trkpt lat="42.23087" lon="24.6133">
        <ele>227.665156</ele>
        <time>2022-03-07T08:09:06.523Z</time>
      </trkpt>
      <trkpt lat="42.23092" lon="24.61317">
        <ele>227.657991</ele>
        <time>2022-03-07T08:09:09.466Z</time>
      </trkpt>
      <trkpt lat="42.23099" lon="24.61304">
        <ele>227.650799</ele>
        <time>2022-03-07T08:09:12.475Z</time>
      </trkpt>
      <trkpt lat="42.23105" lon="24.6129">
        <ele>227.64332</ele>
        <time>2022-03-07T08:09:15.465Z</time>
      </trkpt>
      <trkpt lat="42.23111" lon="24.61277">
        <ele>227.636088</ele>
        <time>2022-03-07T08:09:18.478Z</time>
      </trkpt>
      <trkpt lat="42.23117" lon="24.61264">
        <ele>227.628697</ele>
        <time>2022-03-07T08:09:21.473Z</time>
      </trkpt>
      <trkpt lat="42.23123" lon="24.61251">
        <ele>227.621283</ele>
        <time>2022-03-07T08:09:24.521Z</time>
      </trkpt>
      <trkpt lat="42.23129" lon="24.61237">
        <ele>227.614012</ele>
        <time>2022-03-07T08:09:27.487Z</time>
      </trkpt>
      <trkpt lat="42.23135" lon="24.61225">
        <ele>227.607026</ele>
        <time>2022-03-07T08:09:30.511Z</time>
      </trkpt>
      <trkpt lat="42.23141" lon="24.61212">
        <ele>227.600088</ele>
        <time>2022-03-07T08:09:33.479Z</time>
      </trkpt>
      <trkpt lat="42.23146" lon="24.61199">
        <ele>227.592948</ele>
        <time>2022-03-07T08:09:36.480Z</time>
      </trkpt>
      <trkpt lat="42.23152" lon="24.61185">
        <ele>227.585582</ele>
        <time>2022-03-07T08:09:39.460Z</time>
      </trkpt>
      <trkpt lat="42.23159" lon="24.61172">
        <ele>227.560061</ele>
        <time>2022-03-07T08:09:42.491Z</time>
      </trkpt>
      <trkpt lat="42.23165" lon="24.61159">
        <ele>227.495885</ele>
        <time>2022-03-07T08:09:45.480Z</time>
      </trkpt>
      <trkpt lat="42.2317" lon="24.61146">
        <ele>227.433044</ele>
        <time>2022-03-07T08:09:48.467Z</time>
      </trkpt>
      <trkpt lat="42.23176" lon="24.61134">
        <ele>227.371187</ele>
        <time>2022-03-07T08:09:51.485Z</time>
      </trkpt>
      <trkpt lat="42.23182" lon="24.61121">
        <ele>227.308978</ele>
        <time>2022-03-07T08:09:54.473Z</time>
      </trkpt>
      <trkpt lat="42.23188" lon="24.61108">
        <ele>227.245762</ele>
        <time>2022-03-07T08:09:57.467Z</time>
      </trkpt>
      <trkpt lat="42.23194" lon="24.61095">
        <ele>227.181186</ele>
        <time>2022-03-07T08:10:00.480Z</time>
      </trkpt>
      <trkpt lat="42.23201" lon="24.61082">
        <ele>227.11639</ele>
        <time>2022-03-07T08:10:03.529Z</time>
      </trkpt>
      <trkpt lat="42.23207" lon="24.61069">
        <ele>227.051461</ele>
        <time>2022-03-07T08:10:06.470Z</time>
      </trkpt>
      <trkpt lat="42.23212" lon="24.61056">
        <ele>226.986332</ele>
        <time>2022-03-07T08:10:09.532Z</time>
      </trkpt>
      <trkpt lat="42.23218" lon="24.61042">
        <ele>226.919837</ele>
        <time>2022-03-07T08:10:12.487Z</time>
      </trkpt>
      <trkpt lat="42.23224" lon="24.61029">
        <ele>226.854908</ele>
        <time>2022-03-07T08:10:15.474Z</time>
      </trkpt>
      <trkpt lat="42.2323" lon="24.61016">
        <ele>226.792346</ele>
        <time>2022-03-07T08:10:18.490Z</time>
      </trkpt>
      <trkpt lat="42.23236" lon="24.61003">
        <ele>226.731738</ele>
        <time>2022-03-07T08:10:21.465Z</time>
      </trkpt>
      <trkpt lat="42.23242" lon="24.6099">
        <ele>226.667613</ele>
        <time>2022-03-07T08:10:24.492Z</time>
      </trkpt>
      <trkpt lat="42.23248" lon="24.60977">
        <ele>226.601975</ele>
        <time>2022-03-07T08:10:27.479Z</time>
      </trkpt>
      <trkpt lat="42.23254" lon="24.60963">
        <ele>226.63081</ele>
        <time>2022-03-07T08:10:30.469Z</time>
      </trkpt>
      <trkpt lat="42.2326" lon="24.6095">
        <ele>226.768338</ele>
        <time>2022-03-07T08:10:33.481Z</time>
      </trkpt>
      <trkpt lat="42.23266" lon="24.60937">
        <ele>226.905115</ele>
        <time>2022-03-07T08:10:36.487Z</time>
      </trkpt>
      <trkpt lat="42.23272" lon="24.60924">
        <ele>227.043823</ele>
        <time>2022-03-07T08:10:39.494Z</time>
      </trkpt>
      <trkpt lat="42.23278" lon="24.6091">
        <ele>227.184372</ele>
        <time>2022-03-07T08:10:42.482Z</time>
      </trkpt>
      <trkpt lat="42.23284" lon="24.60897">
        <ele>227.324044</ele>
        <time>2022-03-07T08:10:45.481Z</time>
      </trkpt>
      <trkpt lat="42.2329" lon="24.60884">
        <ele>227.465858</ele>
        <time>2022-03-07T08:10:48.509Z</time>
      </trkpt>
      <trkpt lat="42.23297" lon="24.6087">
        <ele>227.609713</ele>
        <time>2022-03-07T08:10:51.490Z</time>
      </trkpt>
      <trkpt lat="42.23303" lon="24.60857">
        <ele>227.746887</ele>
        <time>2022-03-07T08:10:54.506Z</time>
      </trkpt>
      <trkpt lat="42.23308" lon="24.60844">
        <ele>227.881315</ele>
        <time>2022-03-07T08:10:57.477Z</time>
      </trkpt>
      <trkpt lat="42.23314" lon="24.60831">
        <ele>228.013803</ele>
        <time>2022-03-07T08:11:00.496Z</time>
      </trkpt>
      <trkpt lat="42.2332" lon="24.60818">
        <ele>228.145654</ele>
        <time>2022-03-07T08:11:03.477Z</time>
      </trkpt>
      <trkpt lat="42.23325" lon="24.60806">
        <ele>228.273498</ele>
        <time>2022-03-07T08:11:06.471Z</time>
      </trkpt>
      <trkpt lat="42.23331" lon="24.60793">
        <ele>228.401692</ele>
        <time>2022-03-07T08:11:09.490Z</time>
      </trkpt>
      <trkpt lat="42.23336" lon="24.6078">
        <ele>228.53612</ele>
        <time>2022-03-07T08:11:12.483Z</time>
      </trkpt>
      <trkpt lat="42.23342" lon="24.60767">
        <ele>228.673012</ele>
        <time>2022-03-07T08:11:15.459Z</time>
      </trkpt>
      <trkpt lat="42.23348" lon="24.60754">
        <ele>228.728476</ele>
        <time>2022-03-07T08:11:18.480Z</time>
      </trkpt>
      <trkpt lat="42.23354" lon="24.60741">
        <ele>228.733165</ele>
        <time>2022-03-07T08:11:21.517Z</time>
      </trkpt>
      <trkpt lat="42.23361" lon="24.6073">
        <ele>228.737644</ele>
        <time>2022-03-07T08:11:24.472Z</time>
      </trkpt>
      <trkpt lat="42.23367" lon="24.60717">
        <ele>228.742079</ele>
        <time>2022-03-07T08:11:27.487Z</time>
      </trkpt>
      <trkpt lat="42.23373" lon="24.60704">
        <ele>228.746872</ele>
        <time>2022-03-07T08:11:30.473Z</time>
      </trkpt>
      <trkpt lat="42.23379" lon="24.6069">
        <ele>228.751726</ele>
        <time>2022-03-07T08:11:33.486Z</time>
      </trkpt>
      <trkpt lat="42.23386" lon="24.60677">
        <ele>228.756636</ele>
        <time>2022-03-07T08:11:36.492Z</time>
      </trkpt>
      <trkpt lat="42.23391" lon="24.60663">
        <ele>228.761406</ele>
        <time>2022-03-07T08:11:39.480Z</time>
      </trkpt>
      <trkpt lat="42.23397" lon="24.6065">
        <ele>228.766143</ele>
        <time>2022-03-07T08:11:42.481Z</time>
      </trkpt>
      <trkpt lat="42.23403" lon="24.60637">
        <ele>228.770776</ele>
        <time>2022-03-07T08:11:45.477Z</time>
      </trkpt>
      <trkpt lat="42.2341" lon="24.60624">
        <ele>228.775461</ele>
        <time>2022-03-07T08:11:48.480Z</time>
      </trkpt>
      <trkpt lat="42.23415" lon="24.60612">
        <ele>228.779814</ele>
        <time>2022-03-07T08:11:51.477Z</time>
      </trkpt>
      <trkpt lat="42.23421" lon="24.60598">
        <ele>228.784723</ele>
        <time>2022-03-07T08:11:54.515Z</time>
      </trkpt>
      <trkpt lat="42.23427" lon="24.60585">
        <ele>228.789407</ele>
        <time>2022-03-07T08:11:57.469Z</time>
      </trkpt>
      <trkpt lat="42.23433" lon="24.60572">
        <ele>228.793846</ele>
        <time>2022-03-07T08:12:00.476Z</time>
      </trkpt>
      <trkpt lat="42.23439" lon="24.6056">
        <ele>228.798333</ele>
        <time>2022-03-07T08:12:03.485Z</time>
      </trkpt>
      <trkpt lat="42.23444" lon="24.60548">
        <ele>228.752494</ele>
        <time>2022-03-07T08:12:06.469Z</time>
      </trkpt>
      <trkpt lat="42.2345" lon="24.60535">
        <ele>228.685463</ele>
        <time>2022-03-07T08:12:09.491Z</time>
      </trkpt>
      <trkpt lat="42.23456" lon="24.60522">
        <ele>228.616834</ele>
        <time>2022-03-07T08:12:12.485Z</time>
      </trkpt>
      <trkpt lat="42.23462" lon="24.60509">
        <ele>228.548592</ele>
        <time>2022-03-07T08:12:15.487Z</time>
      </trkpt>
      <trkpt lat="42.23468" lon="24.60496">
        <ele>228.479011</ele>
        <time>2022-03-07T08:12:18.496Z</time>
      </trkpt>
      <trkpt lat="42.23474" lon="24.60482">
        <ele>228.408985</ele>
        <time>2022-03-07T08:12:21.474Z</time>
      </trkpt>
      <trkpt lat="42.2348" lon="24.60469">
        <ele>228.336854</ele>
        <time>2022-03-07T08:12:24.499Z</time>
      </trkpt>
      <trkpt lat="42.23486" lon="24.60455">
        <ele>228.263639</ele>
        <time>2022-03-07T08:12:27.518Z</time>
      </trkpt>
      <trkpt lat="42.23493" lon="24.60442">
        <ele>228.19253</ele>
        <time>2022-03-07T08:12:30.476Z</time>
      </trkpt>
      <trkpt lat="42.23499" lon="24.60428">
        <ele>228.122187</ele>
        <time>2022-03-07T08:12:33.492Z</time>
      </trkpt>
      <trkpt lat="42.23504" lon="24.60415">
        <ele>228.052398</ele>
        <time>2022-03-07T08:12:36.482Z</time>
      </trkpt>
      <trkpt lat="42.2351" lon="24.60402">
        <ele>227.984924</ele>
        <time>2022-03-07T08:12:39.518Z</time>
      </trkpt>
      <trkpt lat="42.23516" lon="24.60389">
        <ele>227.917765</ele>
        <time>2022-03-07T08:12:42.475Z</time>
      </trkpt>
      <trkpt lat="42.23522" lon="24.60376">
        <ele>227.849323</ele>
        <time>2022-03-07T08:12:45.484Z</time>
      </trkpt>
      <trkpt lat="42.23528" lon="24.60363">
        <ele>227.780616</ele>
        <time>2022-03-07T08:12:48.481Z</time>
      </trkpt>
      <trkpt lat="42.23534" lon="24.60351">
        <ele>227.713259</ele>
        <time>2022-03-07T08:12:51.484Z</time>
      </trkpt>
      <trkpt lat="42.2354" lon="24.60338">
        <ele>227.716434</ele>
        <time>2022-03-07T08:12:54.480Z</time>
      </trkpt>
      <trkpt lat="42.23546" lon="24.60325">
        <ele>227.726978</ele>
        <time>2022-03-07T08:12:57.486Z</time>
      </trkpt>
      <trkpt lat="42.23553" lon="24.60312">
        <ele>227.737233</ele>
        <time>2022-03-07T08:13:00.465Z</time>
      </trkpt>
      <trkpt lat="42.23559" lon="24.603">
        <ele>227.747245</ele>
        <time>2022-03-07T08:13:03.479Z</time>
      </trkpt>
      <trkpt lat="42.23565" lon="24.60287">
        <ele>227.757237</ele>
        <time>2022-03-07T08:13:06.487Z</time>
      </trkpt>
      <trkpt lat="42.23571" lon="24.60275">
        <ele>227.766758</ele>
        <time>2022-03-07T08:13:09.466Z</time>
      </trkpt>
      <trkpt lat="42.23576" lon="24.60263">
        <ele>227.776629</ele>
        <time>2022-03-07T08:13:12.477Z</time>
      </trkpt>
      <trkpt lat="42.23581" lon="24.6025">
        <ele>227.785926</ele>
        <time>2022-03-07T08:13:15.482Z</time>
      </trkpt>
      <trkpt lat="42.23587" lon="24.60238">
        <ele>227.795912</ele>
        <time>2022-03-07T08:13:18.477Z</time>
      </trkpt>
      <trkpt lat="42.23593" lon="24.60225">
        <ele>227.805991</ele>
        <time>2022-03-07T08:13:21.487Z</time>
      </trkpt>
      <trkpt lat="42.23598" lon="24.60212">
        <ele>227.816092</ele>
        <time>2022-03-07T08:13:24.515Z</time>
      </trkpt>
      <trkpt lat="42.23604" lon="24.602">
        <ele>227.825648</ele>
        <time>2022-03-07T08:13:27.475Z</time>
      </trkpt>
      <trkpt lat="42.2361" lon="24.60187">
        <ele>227.835955</ele>
        <time>2022-03-07T08:13:30.474Z</time>
      </trkpt>
      <trkpt lat="42.23616" lon="24.60173">
        <ele>227.846552</ele>
        <time>2022-03-07T08:13:33.473Z</time>
      </trkpt>
      <trkpt lat="42.23622" lon="24.6016">
        <ele>227.85699</ele>
        <time>2022-03-07T08:13:36.463Z</time>
      </trkpt>
      <trkpt lat="42.23628" lon="24.60147">
        <ele>227.866886</ele>
        <time>2022-03-07T08:13:39.484Z</time>
      </trkpt>
      <trkpt lat="42.23634" lon="24.60134">
        <ele>227.9099</ele>
        <time>2022-03-07T08:13:42.481Z</time>
      </trkpt>
      <trkpt lat="42.2364" lon="24.60121">
        <ele>227.964832</ele>
        <time>2022-03-07T08:13:45.489Z</time>
      </trkpt>
      <trkpt lat="42.23646" lon="24.60109">
        <ele>228.019764</ele>
        <time>2022-03-07T08:13:48.487Z</time>
      </trkpt>
      <trkpt lat="42.23652" lon="24.60096">
        <ele>228.074737</ele>
        <time>2022-03-07T08:13:51.499Z</time>
      </trkpt>
      <trkpt lat="42.23658" lon="24.60083">
        <ele>228.130123</ele>
        <time>2022-03-07T08:13:54.482Z</time>
      </trkpt>
      <trkpt lat="42.23663" lon="24.6007">
        <ele>228.184324</ele>
        <time>2022-03-07T08:13:57.511Z</time>
      </trkpt>
      <trkpt lat="42.23669" lon="24.60057">
        <ele>228.240896</ele>
        <time>2022-03-07T08:14:00.469Z</time>
      </trkpt>
      <trkpt lat="42.23675" lon="24.60044">
        <ele>228.295972</ele>
        <time>2022-03-07T08:14:03.527Z</time>
      </trkpt>
      <trkpt lat="42.23681" lon="24.60031">
        <ele>228.35182</ele>
        <time>2022-03-07T08:14:06.471Z</time>
      </trkpt>
      <trkpt lat="42.23687" lon="24.60018">
        <ele>228.405091</ele>
        <time>2022-03-07T08:14:09.474Z</time>
      </trkpt>
      <trkpt lat="42.23692" lon="24.60006">
        <ele>228.457118</ele>
        <time>2022-03-07T08:14:12.476Z</time>
      </trkpt>
      <trkpt lat="42.23699" lon="24.59992">
        <ele>228.515821</ele>
        <time>2022-03-07T08:14:15.473Z</time>
      </trkpt>
      <trkpt lat="42.23705" lon="24.59978">
        <ele>228.57465</ele>
        <time>2022-03-07T08:14:18.472Z</time>
      </trkpt>
      <trkpt lat="42.23711" lon="24.59966">
        <ele>228.629277</ele>
        <time>2022-03-07T08:14:21.482Z</time>
      </trkpt>
      <trkpt lat="42.23717" lon="24.59953">
        <ele>228.684663</ele>
        <time>2022-03-07T08:14:24.484Z</time>
      </trkpt>
      <trkpt lat="42.23723" lon="24.5994">
        <ele>228.738761</ele>
        <time>2022-03-07T08:14:27.455Z</time>
      </trkpt>
      <trkpt lat="42.23728" lon="24.59927">
        <ele>228.711148</ele>
        <time>2022-03-07T08:14:30.492Z</time>
      </trkpt>
      <trkpt lat="42.23734" lon="24.59914">
        <ele>228.655926</ele>
        <time>2022-03-07T08:14:33.506Z</time>
      </trkpt>
      <trkpt lat="42.2374" lon="24.59902">
        <ele>228.602395</ele>
        <time>2022-03-07T08:14:36.465Z</time>
      </trkpt>
      <trkpt lat="42.23746" lon="24.59889">
        <ele>228.547737</ele>
        <time>2022-03-07T08:14:39.481Z</time>
      </trkpt>
      <trkpt lat="42.23752" lon="24.59876">
        <ele>228.493079</ele>
        <time>2022-03-07T08:14:42.477Z</time>
      </trkpt>
      <trkpt lat="42.23758" lon="24.59863">
        <ele>228.438379</ele>
        <time>2022-03-07T08:14:45.472Z</time>
      </trkpt>
      <trkpt lat="42.23764" lon="24.5985">
        <ele>228.383678</ele>
        <time>2022-03-07T08:14:48.483Z</time>
      </trkpt>
      <trkpt lat="42.2377" lon="24.59837">
        <ele>228.328315</ele>
        <time>2022-03-07T08:14:51.515Z</time>
      </trkpt>
      <trkpt lat="42.23777" lon="24.59824">
        <ele>228.271017</ele>
        <time>2022-03-07T08:14:54.475Z</time>
      </trkpt>
      <trkpt lat="42.23783" lon="24.59811">
        <ele>228.21596</ele>
        <time>2022-03-07T08:14:57.486Z</time>
      </trkpt>
      <trkpt lat="42.23789" lon="24.59798">
        <ele>228.160134</ele>
        <time>2022-03-07T08:15:00.480Z</time>
      </trkpt>
      <trkpt lat="42.23795" lon="24.59784">
        <ele>228.104519</ele>
        <time>2022-03-07T08:15:03.476Z</time>
      </trkpt>
      <trkpt lat="42.23801" lon="24.59771">
        <ele>228.049769</ele>
        <time>2022-03-07T08:15:06.479Z</time>
      </trkpt>
      <trkpt lat="42.23807" lon="24.59758">
        <ele>227.993288</ele>
        <time>2022-03-07T08:15:09.474Z</time>
      </trkpt>
      <trkpt lat="42.23812" lon="24.59746">
        <ele>227.942867</ele>
        <time>2022-03-07T08:15:12.485Z</time>
      </trkpt>
      <trkpt lat="42.23818" lon="24.59732">
        <ele>227.884908</ele>
        <time>2022-03-07T08:15:15.493Z</time>
      </trkpt>
      <trkpt lat="42.23824" lon="24.59719">
        <ele>227.903899</ele>
        <time>2022-03-07T08:15:18.508Z</time>
      </trkpt>
      <trkpt lat="42.2383" lon="24.59707">
        <ele>227.931531</ele>
        <time>2022-03-07T08:15:21.480Z</time>
      </trkpt>
      <trkpt lat="42.23835" lon="24.59695">
        <ele>227.957745</ele>
        <time>2022-03-07T08:15:24.516Z</time>
      </trkpt>
      <trkpt lat="42.2384" lon="24.59684">
        <ele>227.982058</ele>
        <time>2022-03-07T08:15:27.494Z</time>
      </trkpt>
      <trkpt lat="42.23846" lon="24.59672">
        <ele>228.009829</ele>
        <time>2022-03-07T08:15:30.496Z</time>
      </trkpt>
      <trkpt lat="42.23852" lon="24.59659">
        <ele>228.038711</ele>
        <time>2022-03-07T08:15:33.494Z</time>
      </trkpt>
      <trkpt lat="42.23858" lon="24.59646">
        <ele>228.068004</ele>
        <time>2022-03-07T08:15:36.486Z</time>
      </trkpt>
      <trkpt lat="42.23864" lon="24.59633">
        <ele>228.096886</ele>
        <time>2022-03-07T08:15:39.493Z</time>
      </trkpt>
      <trkpt lat="42.2387" lon="24.59619">
        <ele>228.126223</ele>
        <time>2022-03-07T08:15:42.472Z</time>
      </trkpt>
      <trkpt lat="42.23877" lon="24.59606">
        <ele>228.15524</ele>
        <time>2022-03-07T08:15:45.474Z</time>
      </trkpt>
      <trkpt lat="42.23882" lon="24.59594">
        <ele>228.183079</ele>
        <time>2022-03-07T08:15:48.499Z</time>
      </trkpt>
      <trkpt lat="42.23888" lon="24.59581">
        <ele>228.211621</ele>
        <time>2022-03-07T08:15:51.492Z</time>
      </trkpt>
      <trkpt lat="42.23895" lon="24.59568">
        <ele>228.24123</ele>
        <time>2022-03-07T08:15:54.483Z</time>
      </trkpt>
      <trkpt lat="42.239" lon="24.59555">
        <ele>228.269846</ele>
        <time>2022-03-07T08:15:57.517Z</time>
      </trkpt>
      <trkpt lat="42.23906" lon="24.59542">
        <ele>228.297364</ele>
        <time>2022-03-07T08:16:00.478Z</time>
      </trkpt>
      <trkpt lat="42.23912" lon="24.5953">
        <ele>228.323972</ele>
        <time>2022-03-07T08:16:03.472Z</time>
      </trkpt>
      <trkpt lat="42.23917" lon="24.59518">
        <ele>228.37376</ele>
        <time>2022-03-07T08:16:06.493Z</time>
      </trkpt>
      <trkpt lat="42.23922" lon="24.59508">
        <ele>228.437634</ele>
        <time>2022-03-07T08:16:09.480Z</time>
      </trkpt>
      <trkpt lat="42.23928" lon="24.59495">
        <ele>228.516175</ele>
        <time>2022-03-07T08:16:12.468Z</time>
      </trkpt>
      <trkpt lat="42.23934" lon="24.59482">
        <ele>228.591391</ele>
        <time>2022-03-07T08:16:15.487Z</time>
      </trkpt>
      <trkpt lat="42.23939" lon="24.5947">
        <ele>228.665745</ele>
        <time>2022-03-07T08:16:18.476Z</time>
      </trkpt>
      <trkpt lat="42.23945" lon="24.59457">
        <ele>228.738656</ele>
        <time>2022-03-07T08:16:21.479Z</time>
      </trkpt>
      <trkpt lat="42.2395" lon="24.59446">
        <ele>228.809691</ele>
        <time>2022-03-07T08:16:24.480Z</time>
      </trkpt>
      <trkpt lat="42.23956" lon="24.59434">
        <ele>228.878832</ele>
        <time>2022-03-07T08:16:27.478Z</time>
      </trkpt>
      <trkpt lat="42.23961" lon="24.59422">
        <ele>228.952818</ele>
        <time>2022-03-07T08:16:30.465Z</time>
      </trkpt>
      <trkpt lat="42.23967" lon="24.59409">
        <ele>229.027311</ele>
        <time>2022-03-07T08:16:33.479Z</time>
      </trkpt>
      <trkpt lat="42.23972" lon="24.59397">
        <ele>229.097417</ele>
        <time>2022-03-07T08:16:36.479Z</time>
      </trkpt>
      <trkpt lat="42.23977" lon="24.59385">
        <ele>229.169296</ele>
        <time>2022-03-07T08:16:39.475Z</time>
      </trkpt>
      <trkpt lat="42.23982" lon="24.59373">
        <ele>229.239231</ele>
        <time>2022-03-07T08:16:42.515Z</time>
      </trkpt>
      <trkpt lat="42.23988" lon="24.59361">
        <ele>229.312419</ele>
        <time>2022-03-07T08:16:45.478Z</time>
      </trkpt>
      <trkpt lat="42.23994" lon="24.59348">
        <ele>229.390836</ele>
        <time>2022-03-07T08:16:48.473Z</time>
      </trkpt>
      <trkpt lat="42.24" lon="24.59336">
        <ele>229.464821</ele>
        <time>2022-03-07T08:16:51.487Z</time>
      </trkpt>
      <trkpt lat="42.24006" lon="24.59323">
        <ele>229.543665</ele>
        <time>2022-03-07T08:16:54.476Z</time>
      </trkpt>
      <trkpt lat="42.24012" lon="24.5931">
        <ele>229.52983</ele>
        <time>2022-03-07T08:16:57.486Z</time>
      </trkpt>
      <trkpt lat="42.24018" lon="24.59297">
        <ele>229.451211</ele>
        <time>2022-03-07T08:17:00.469Z</time>
      </trkpt>
      <trkpt lat="42.24024" lon="24.59284">
        <ele>229.370937</ele>
        <time>2022-03-07T08:17:03.474Z</time>
      </trkpt>
      <trkpt lat="42.2403" lon="24.59272">
        <ele>229.296531</ele>
        <time>2022-03-07T08:17:06.482Z</time>
      </trkpt>
      <trkpt lat="42.24037" lon="24.59259">
        <ele>229.219626</ele>
        <time>2022-03-07T08:17:09.476Z</time>
      </trkpt>
      <trkpt lat="42.24042" lon="24.59247">
        <ele>229.147062</ele>
        <time>2022-03-07T08:17:12.474Z</time>
      </trkpt>
      <trkpt lat="42.24048" lon="24.59234">
        <ele>229.071808</ele>
        <time>2022-03-07T08:17:15.493Z</time>
      </trkpt>
      <trkpt lat="42.24054" lon="24.59221">
        <ele>228.99408</ele>
        <time>2022-03-07T08:17:18.495Z</time>
      </trkpt>
      <trkpt lat="42.24059" lon="24.59209">
        <ele>228.919568</ele>
        <time>2022-03-07T08:17:21.475Z</time>
      </trkpt>
      <trkpt lat="42.24065" lon="24.59196">
        <ele>228.842605</ele>
        <time>2022-03-07T08:17:24.491Z</time>
      </trkpt>
      <trkpt lat="42.24071" lon="24.59183">
        <ele>228.766367</ele>
        <time>2022-03-07T08:17:27.518Z</time>
      </trkpt>
      <trkpt lat="42.24077" lon="24.5917">
        <ele>228.691274</ele>
        <time>2022-03-07T08:17:30.466Z</time>
      </trkpt>
      <trkpt lat="42.24083" lon="24.59157">
        <ele>228.610265</ele>
        <time>2022-03-07T08:17:33.529Z</time>
      </trkpt>
      <trkpt lat="42.24089" lon="24.59144">
        <ele>228.535172</ele>
        <time>2022-03-07T08:17:36.485Z</time>
      </trkpt>
      <trkpt lat="42.24094" lon="24.59132">
        <ele>228.460866</ele>
        <time>2022-03-07T08:17:39.511Z</time>
      </trkpt>
      <trkpt lat="42.241" lon="24.59119">
        <ele>228.386783</ele>
        <time>2022-03-07T08:17:42.487Z</time>
      </trkpt>
      <trkpt lat="42.24106" lon="24.59107">
        <ele>228.393676</ele>
        <time>2022-03-07T08:17:45.475Z</time>
      </trkpt>
      <trkpt lat="42.24111" lon="24.59094">
        <ele>228.532962</ele>
        <time>2022-03-07T08:17:48.464Z</time>
      </trkpt>
      <trkpt lat="42.24118" lon="24.5908">
        <ele>228.691902</ele>
        <time>2022-03-07T08:17:51.481Z</time>
      </trkpt>
      <trkpt lat="42.24125" lon="24.59066">
        <ele>228.853144</ele>
        <time>2022-03-07T08:17:54.479Z</time>
      </trkpt>
      <trkpt lat="42.24131" lon="24.59053">
        <ele>228.999067</ele>
        <time>2022-03-07T08:17:57.486Z</time>
      </trkpt>
      <trkpt lat="42.24137" lon="24.59041">
        <ele>229.141987</ele>
        <time>2022-03-07T08:18:00.487Z</time>
      </trkpt>
      <trkpt lat="42.24143" lon="24.59027">
        <ele>229.295721</ele>
        <time>2022-03-07T08:18:03.484Z</time>
      </trkpt>
      <trkpt lat="42.24149" lon="24.59013">
        <ele>229.447746</ele>
        <time>2022-03-07T08:18:06.466Z</time>
      </trkpt>
      <trkpt lat="42.24155" lon="24.59">
        <ele>229.594701</ele>
        <time>2022-03-07T08:18:09.480Z</time>
      </trkpt>
      <trkpt lat="42.24161" lon="24.58987">
        <ele>229.738369</ele>
        <time>2022-03-07T08:18:12.476Z</time>
      </trkpt>
      <trkpt lat="42.24166" lon="24.58974">
        <ele>229.875985</ele>
        <time>2022-03-07T08:18:15.484Z</time>
      </trkpt>
      <trkpt lat="42.24171" lon="24.58961">
        <ele>230.019023</ele>
        <time>2022-03-07T08:18:18.514Z</time>
      </trkpt>
      <trkpt lat="42.24177" lon="24.58948">
        <ele>230.164488</ele>
        <time>2022-03-07T08:18:21.496Z</time>
      </trkpt>
      <trkpt lat="42.24183" lon="24.58936">
        <ele>230.308908</ele>
        <time>2022-03-07T08:18:24.471Z</time>
      </trkpt>
      <trkpt lat="42.24189" lon="24.58923">
        <ele>230.453865</ele>
        <time>2022-03-07T08:18:27.480Z</time>
      </trkpt>
      <trkpt lat="42.24195" lon="24.5891">
        <ele>230.596362</ele>
        <time>2022-03-07T08:18:30.483Z</time>
      </trkpt>
      <trkpt lat="42.24201" lon="24.58896">
        <ele>230.701685</ele>
        <time>2022-03-07T08:18:33.511Z</time>
      </trkpt>
      <trkpt lat="42.24207" lon="24.58884">
        <ele>230.770981</ele>
        <time>2022-03-07T08:18:36.477Z</time>
      </trkpt>
      <trkpt lat="42.24213" lon="24.58871">
        <ele>230.843179</ele>
        <time>2022-03-07T08:18:39.478Z</time>
      </trkpt>
      <trkpt lat="42.24219" lon="24.58857">
        <ele>230.914122</ele>
        <time>2022-03-07T08:18:42.481Z</time>
      </trkpt>
      <trkpt lat="42.24224" lon="24.58845">
        <ele>230.981581</ele>
        <time>2022-03-07T08:18:45.504Z</time>
      </trkpt>
      <trkpt lat="42.2423" lon="24.58831">
        <ele>231.054922</ele>
        <time>2022-03-07T08:18:48.485Z</time>
      </trkpt>
      <trkpt lat="42.24236" lon="24.58818">
        <ele>231.125003</ele>
        <time>2022-03-07T08:18:51.532Z</time>
      </trkpt>
      <trkpt lat="42.24243" lon="24.58805">
        <ele>231.199044</ele>
        <time>2022-03-07T08:18:54.478Z</time>
      </trkpt>
      <trkpt lat="42.24249" lon="24.58792">
        <ele>231.268284</ele>
        <time>2022-03-07T08:18:57.471Z</time>
      </trkpt>
      <trkpt lat="42.24255" lon="24.5878">
        <ele>231.336409</ele>
        <time>2022-03-07T08:19:00.458Z</time>
      </trkpt>
      <trkpt lat="42.2426" lon="24.58767">
        <ele>231.404728</ele>
        <time>2022-03-07T08:19:03.506Z</time>
      </trkpt>
      <trkpt lat="42.24266" lon="24.58755">
        <ele>231.471933</ele>
        <time>2022-03-07T08:19:06.481Z</time>
      </trkpt>
      <trkpt lat="42.24271" lon="24.58742">
        <ele>231.541846</ele>
        <time>2022-03-07T08:19:09.473Z</time>
      </trkpt>
      <trkpt lat="42.24278" lon="24.58729">
        <ele>231.612117</ele>
        <time>2022-03-07T08:19:12.494Z</time>
      </trkpt>
      <trkpt lat="42.24283" lon="24.58716">
        <ele>231.682029</ele>
        <time>2022-03-07T08:19:15.487Z</time>
      </trkpt>
      <trkpt lat="42.2429" lon="24.58703">
        <ele>231.753007</ele>
        <time>2022-03-07T08:19:18.496Z</time>
      </trkpt>
      <trkpt lat="42.24295" lon="24.58691">
        <ele>231.788782</ele>
        <time>2022-03-07T08:19:21.497Z</time>
      </trkpt>
      <trkpt lat="42.24302" lon="24.58678">
        <ele>231.801745</ele>
        <time>2022-03-07T08:19:24.500Z</time>
      </trkpt>
      <trkpt lat="42.24308" lon="24.58665">
        <ele>231.815295</ele>
        <time>2022-03-07T08:19:27.485Z</time>
      </trkpt>
      <trkpt lat="42.24314" lon="24.58651">
        <ele>231.829294</ele>
        <time>2022-03-07T08:19:30.481Z</time>
      </trkpt>
      <trkpt lat="42.2432" lon="24.58637">
        <ele>231.842858</ele>
        <time>2022-03-07T08:19:33.463Z</time>
      </trkpt>
      <trkpt lat="42.24327" lon="24.58624">
        <ele>231.856786</ele>
        <time>2022-03-07T08:19:36.507Z</time>
      </trkpt>
      <trkpt lat="42.24334" lon="24.5861">
        <ele>231.870777</ele>
        <time>2022-03-07T08:19:39.559Z</time>
      </trkpt>
      <trkpt lat="42.2434" lon="24.58597">
        <ele>231.884556</ele>
        <time>2022-03-07T08:19:42.481Z</time>
      </trkpt>
      <trkpt lat="42.24347" lon="24.58584">
        <ele>231.897774</ele>
        <time>2022-03-07T08:19:45.484Z</time>
      </trkpt>
      <trkpt lat="42.24354" lon="24.58571">
        <ele>231.911267</ele>
        <time>2022-03-07T08:19:48.485Z</time>
      </trkpt>
      <trkpt lat="42.24362" lon="24.58559">
        <ele>231.924905</ele>
        <time>2022-03-07T08:19:51.481Z</time>
      </trkpt>
      <trkpt lat="42.24369" lon="24.58547">
        <ele>231.938287</ele>
        <time>2022-03-07T08:19:54.483Z</time>
      </trkpt>
      <trkpt lat="42.24376" lon="24.58536">
        <ele>231.950939</ele>
        <time>2022-03-07T08:19:57.491Z</time>
      </trkpt>
      <trkpt lat="42.24384" lon="24.58525">
        <ele>231.964183</ele>
        <time>2022-03-07T08:20:00.485Z</time>
      </trkpt>
      <trkpt lat="42.24392" lon="24.58513">
        <ele>231.977911</ele>
        <time>2022-03-07T08:20:03.484Z</time>
      </trkpt>
      <trkpt lat="42.24401" lon="24.58501">
        <ele>231.981795</ele>
        <time>2022-03-07T08:20:06.514Z</time>
      </trkpt>
      <trkpt lat="42.24409" lon="24.58489">
        <ele>231.945737</ele>
        <time>2022-03-07T08:20:09.505Z</time>
      </trkpt>
      <trkpt lat="42.24417" lon="24.58478">
        <ele>231.909798</ele>
        <time>2022-03-07T08:20:12.478Z</time>
      </trkpt>
      <trkpt lat="42.24425" lon="24.58466">
        <ele>231.87381</ele>
        <time>2022-03-07T08:20:15.527Z</time>
      </trkpt>
      <trkpt lat="42.24434" lon="24.58454">
        <ele>231.837128</ele>
        <time>2022-03-07T08:20:18.470Z</time>
      </trkpt>
      <trkpt lat="42.24442" lon="24.58443">
        <ele>231.800068</ele>
        <time>2022-03-07T08:20:21.461Z</time>
      </trkpt>
      <trkpt lat="42.2445" lon="24.58431">
        <ele>231.765049</ele>
        <time>2022-03-07T08:20:24.480Z</time>
      </trkpt>
      <trkpt lat="42.24457" lon="24.58419">
        <ele>231.730201</ele>
        <time>2022-03-07T08:20:27.486Z</time>
      </trkpt>
      <trkpt lat="42.24466" lon="24.58408">
        <ele>231.693573</ele>
        <time>2022-03-07T08:20:30.495Z</time>
      </trkpt>
      <trkpt lat="42.24474" lon="24.58396">
        <ele>231.658063</ele>
        <time>2022-03-07T08:20:33.489Z</time>
      </trkpt>
      <trkpt lat="42.24482" lon="24.58385">
        <ele>231.621799</ele>
        <time>2022-03-07T08:20:36.486Z</time>
      </trkpt>
      <trkpt lat="42.24491" lon="24.58372">
        <ele>231.584744</ele>
        <time>2022-03-07T08:20:39.488Z</time>
      </trkpt>
      <trkpt lat="42.24498" lon="24.58361">
        <ele>231.549261</ele>
        <time>2022-03-07T08:20:42.473Z</time>
      </trkpt>
      <trkpt lat="42.24506" lon="24.58348">
        <ele>231.513762</ele>
        <time>2022-03-07T08:20:45.483Z</time>
      </trkpt>
      <trkpt lat="42.24513" lon="24.58337">
        <ele>231.47922</ele>
        <time>2022-03-07T08:20:48.505Z</time>
      </trkpt>
      <trkpt lat="42.24522" lon="24.58324">
        <ele>231.450757</ele>
        <time>2022-03-07T08:20:51.477Z</time>
      </trkpt>
      <trkpt lat="42.24531" lon="24.58313">
        <ele>231.50632</ele>
        <time>2022-03-07T08:20:54.493Z</time>
      </trkpt>
      <trkpt lat="42.2454" lon="24.58301">
        <ele>231.56898</ele>
        <time>2022-03-07T08:20:57.493Z</time>
      </trkpt>
      <trkpt lat="42.24546" lon="24.58291">
        <ele>231.613845</ele>
        <time>2022-03-07T08:20:59.485Z</time>
      </trkpt>
      <trkpt lat="42.24553" lon="24.58282">
        <ele>231.657141</ele>
        <time>2022-03-07T08:21:01.478Z</time>
      </trkpt>
      <trkpt lat="42.24559" lon="24.58273">
        <ele>231.700375</ele>
        <time>2022-03-07T08:21:03.478Z</time>
      </trkpt>
      <trkpt lat="42.24565" lon="24.58264">
        <ele>231.744988</ele>
        <time>2022-03-07T08:21:05.484Z</time>
      </trkpt>
      <trkpt lat="42.24574" lon="24.58252">
        <ele>231.805229</ele>
        <time>2022-03-07T08:21:08.486Z</time>
      </trkpt>
      <trkpt lat="42.24583" lon="24.5824">
        <ele>231.866559</ele>
        <time>2022-03-07T08:21:11.491Z</time>
      </trkpt>
      <trkpt lat="42.24592" lon="24.58228">
        <ele>231.924562</ele>
        <time>2022-03-07T08:21:14.506Z</time>
      </trkpt>
      <trkpt lat="42.246" lon="24.58217">
        <ele>231.979881</ele>
        <time>2022-03-07T08:21:17.475Z</time>
      </trkpt>
      <trkpt lat="42.24607" lon="24.58205">
        <ele>232.033499</ele>
        <time>2022-03-07T08:21:20.483Z</time>
      </trkpt>
      <trkpt lat="42.24616" lon="24.58193">
        <ele>232.09258</ele>
        <time>2022-03-07T08:21:23.476Z</time>
      </trkpt>
      <trkpt lat="42.24624" lon="24.5818">
        <ele>232.153329</ele>
        <time>2022-03-07T08:21:26.484Z</time>
      </trkpt>
      <trkpt lat="42.24634" lon="24.58168">
        <ele>232.21574</ele>
        <time>2022-03-07T08:21:29.486Z</time>
      </trkpt>
      <trkpt lat="42.24642" lon="24.58155">
        <ele>232.275906</ele>
        <time>2022-03-07T08:21:32.518Z</time>
      </trkpt>
      <trkpt lat="42.24651" lon="24.58144">
        <ele>232.364943</ele>
        <time>2022-03-07T08:21:35.478Z</time>
      </trkpt>
      <trkpt lat="42.24659" lon="24.58132">
        <ele>232.486218</ele>
        <time>2022-03-07T08:21:38.478Z</time>
      </trkpt>
      <trkpt lat="42.24667" lon="24.5812">
        <ele>232.608569</ele>
        <time>2022-03-07T08:21:41.496Z</time>
      </trkpt>
      <trkpt lat="42.24675" lon="24.58108">
        <ele>232.726115</ele>
        <time>2022-03-07T08:21:44.480Z</time>
      </trkpt>
      <trkpt lat="42.24683" lon="24.58095">
        <ele>232.851696</ele>
        <time>2022-03-07T08:21:47.482Z</time>
      </trkpt>
      <trkpt lat="42.24692" lon="24.58082">
        <ele>232.980578</ele>
        <time>2022-03-07T08:21:50.486Z</time>
      </trkpt>
      <trkpt lat="42.24701" lon="24.5807">
        <ele>233.10537</ele>
        <time>2022-03-07T08:21:53.479Z</time>
      </trkpt>
      <trkpt lat="42.24709" lon="24.58058">
        <ele>233.228411</ele>
        <time>2022-03-07T08:21:56.478Z</time>
      </trkpt>
      <trkpt lat="42.24718" lon="24.58046">
        <ele>233.348479</ele>
        <time>2022-03-07T08:21:59.539Z</time>
      </trkpt>
      <trkpt lat="42.24725" lon="24.58035">
        <ele>233.462709</ele>
        <time>2022-03-07T08:22:02.489Z</time>
      </trkpt>
      <trkpt lat="42.24734" lon="24.58022">
        <ele>233.590814</ele>
        <time>2022-03-07T08:22:05.481Z</time>
      </trkpt>
      <trkpt lat="42.24744" lon="24.5801">
        <ele>233.72102</ele>
        <time>2022-03-07T08:22:08.515Z</time>
      </trkpt>
      <trkpt lat="42.24752" lon="24.57997">
        <ele>233.847412</ele>
        <time>2022-03-07T08:22:11.477Z</time>
      </trkpt>
      <trkpt lat="42.24761" lon="24.57985">
        <ele>233.971907</ele>
        <time>2022-03-07T08:22:14.491Z</time>
      </trkpt>
      <trkpt lat="42.24769" lon="24.57972">
        <ele>234.083832</ele>
        <time>2022-03-07T08:22:17.479Z</time>
      </trkpt>
      <trkpt lat="42.24778" lon="24.5796">
        <ele>233.952219</ele>
        <time>2022-03-07T08:22:20.481Z</time>
      </trkpt>
      <trkpt lat="42.24787" lon="24.57948">
        <ele>233.823313</ele>
        <time>2022-03-07T08:22:23.497Z</time>
      </trkpt>
      <trkpt lat="42.24795" lon="24.57936">
        <ele>233.700636</ele>
        <time>2022-03-07T08:22:26.482Z</time>
      </trkpt>
      <trkpt lat="42.24803" lon="24.57924">
        <ele>233.575147</ele>
        <time>2022-03-07T08:22:29.483Z</time>
      </trkpt>
      <trkpt lat="42.24811" lon="24.57913">
        <ele>233.460261</ele>
        <time>2022-03-07T08:22:32.480Z</time>
      </trkpt>
      <trkpt lat="42.2482" lon="24.57902">
        <ele>233.338736</ele>
        <time>2022-03-07T08:22:35.483Z</time>
      </trkpt>
      <trkpt lat="42.24828" lon="24.57889">
        <ele>233.211599</ele>
        <time>2022-03-07T08:22:38.510Z</time>
      </trkpt>
      <trkpt lat="42.24836" lon="24.57877">
        <ele>233.085163</ele>
        <time>2022-03-07T08:22:41.498Z</time>
      </trkpt>
      <trkpt lat="42.24845" lon="24.57866">
        <ele>232.963994</ele>
        <time>2022-03-07T08:22:44.468Z</time>
      </trkpt>
      <trkpt lat="42.24853" lon="24.57854">
        <ele>232.839367</ele>
        <time>2022-03-07T08:22:47.510Z</time>
      </trkpt>
      <trkpt lat="42.24862" lon="24.57841">
        <ele>232.705239</ele>
        <time>2022-03-07T08:22:50.496Z</time>
      </trkpt>
      <trkpt lat="42.24871" lon="24.57829">
        <ele>232.576847</ele>
        <time>2022-03-07T08:22:53.480Z</time>
      </trkpt>
      <trkpt lat="42.24879" lon="24.57817">
        <ele>232.450966</ele>
        <time>2022-03-07T08:22:56.496Z</time>
      </trkpt>
      <trkpt lat="42.24887" lon="24.57804">
        <ele>232.32354</ele>
        <time>2022-03-07T08:22:59.487Z</time>
      </trkpt>
      <trkpt lat="42.24895" lon="24.57793">
        <ele>232.273058</ele>
        <time>2022-03-07T08:23:02.479Z</time>
      </trkpt>
      <trkpt lat="42.24904" lon="24.57781">
        <ele>232.349347</ele>
        <time>2022-03-07T08:23:05.491Z</time>
      </trkpt>
      <trkpt lat="42.24912" lon="24.5777">
        <ele>232.423125</ele>
        <time>2022-03-07T08:23:08.488Z</time>
      </trkpt>
      <trkpt lat="42.24921" lon="24.57758">
        <ele>232.498887</ele>
        <time>2022-03-07T08:23:11.502Z</time>
      </trkpt>
      <trkpt lat="42.24929" lon="24.57746">
        <ele>232.577215</ele>
        <time>2022-03-07T08:23:14.497Z</time>
      </trkpt>
      <trkpt lat="42.24937" lon="24.57733">
        <ele>232.655888</ele>
        <time>2022-03-07T08:23:17.470Z</time>
      </trkpt>
      <trkpt lat="42.24946" lon="24.57721">
        <ele>232.733447</ele>
        <time>2022-03-07T08:23:20.471Z</time>
      </trkpt>
      <trkpt lat="42.24955" lon="24.57709">
        <ele>232.812606</ele>
        <time>2022-03-07T08:23:23.476Z</time>
      </trkpt>
      <trkpt lat="42.24963" lon="24.57697">
        <ele>232.889137</ele>
        <time>2022-03-07T08:23:26.492Z</time>
      </trkpt>
      <trkpt lat="42.24972" lon="24.57684">
        <ele>232.968752</ele>
        <time>2022-03-07T08:23:29.483Z</time>
      </trkpt>
      <trkpt lat="42.2498" lon="24.57672">
        <ele>233.046055</ele>
        <time>2022-03-07T08:23:32.502Z</time>
      </trkpt>
      <trkpt lat="42.24988" lon="24.5766">
        <ele>233.124726</ele>
        <time>2022-03-07T08:23:35.479Z</time>
      </trkpt>
      <trkpt lat="42.24997" lon="24.57647">
        <ele>233.203139</ele>
        <time>2022-03-07T08:23:38.516Z</time>
      </trkpt>
      <trkpt lat="42.25005" lon="24.57635">
        <ele>233.279671</ele>
        <time>2022-03-07T08:23:41.521Z</time>
      </trkpt>
      <trkpt lat="42.25013" lon="24.57624">
        <ele>233.354851</ele>
        <time>2022-03-07T08:23:44.478Z</time>
      </trkpt>
      <trkpt lat="42.25022" lon="24.57612">
        <ele>233.386971</ele>
        <time>2022-03-07T08:23:47.488Z</time>
      </trkpt>
      <trkpt lat="42.25029" lon="24.57601">
        <ele>233.397597</ele>
        <time>2022-03-07T08:23:50.499Z</time>
      </trkpt>
      <trkpt lat="42.25038" lon="24.57588">
        <ele>233.410822</ele>
        <time>2022-03-07T08:23:53.491Z</time>
      </trkpt>
      <trkpt lat="42.25047" lon="24.57575">
        <ele>233.423604</ele>
        <time>2022-03-07T08:23:56.487Z</time>
      </trkpt>
      <trkpt lat="42.25056" lon="24.57563">
        <ele>233.435915</ele>
        <time>2022-03-07T08:23:59.482Z</time>
      </trkpt>
      <trkpt lat="42.25064" lon="24.57551">
        <ele>233.448261</ele>
        <time>2022-03-07T08:24:02.464Z</time>
      </trkpt>
      <trkpt lat="42.25073" lon="24.5754">
        <ele>233.460018</ele>
        <time>2022-03-07T08:24:05.487Z</time>
      </trkpt>
      <trkpt lat="42.2508" lon="24.57528">
        <ele>233.471749</ele>
        <time>2022-03-07T08:24:08.481Z</time>
      </trkpt>
      <trkpt lat="42.25089" lon="24.57516">
        <ele>233.483939</ele>
        <time>2022-03-07T08:24:11.491Z</time>
      </trkpt>
      <trkpt lat="42.25098" lon="24.57504">
        <ele>233.496388</ele>
        <time>2022-03-07T08:24:14.491Z</time>
      </trkpt>
      <trkpt lat="42.25107" lon="24.57491">
        <ele>233.509325</ele>
        <time>2022-03-07T08:24:17.480Z</time>
      </trkpt>
      <trkpt lat="42.25116" lon="24.57478">
        <ele>233.522419</ele>
        <time>2022-03-07T08:24:20.476Z</time>
      </trkpt>
      <trkpt lat="42.25125" lon="24.57465">
        <ele>233.535294</ele>
        <time>2022-03-07T08:24:23.482Z</time>
      </trkpt>
      <trkpt lat="42.25133" lon="24.57453">
        <ele>233.547497</ele>
        <time>2022-03-07T08:24:26.475Z</time>
      </trkpt>
      <trkpt lat="42.25141" lon="24.57441">
        <ele>233.559916</ele>
        <time>2022-03-07T08:24:29.479Z</time>
      </trkpt>
      <trkpt lat="42.25149" lon="24.57429">
        <ele>233.57409</ele>
        <time>2022-03-07T08:24:32.498Z</time>
      </trkpt>
      <trkpt lat="42.25157" lon="24.57417">
        <ele>233.588724</ele>
        <time>2022-03-07T08:24:35.514Z</time>
      </trkpt>
      <trkpt lat="42.25166" lon="24.57405">
        <ele>233.604405</ele>
        <time>2022-03-07T08:24:38.489Z</time>
      </trkpt>
      <trkpt lat="42.25175" lon="24.57393">
        <ele>233.619865</ele>
        <time>2022-03-07T08:24:41.524Z</time>
      </trkpt>
      <trkpt lat="42.25184" lon="24.5738">
        <ele>233.635922</ele>
        <time>2022-03-07T08:24:44.487Z</time>
      </trkpt>
      <trkpt lat="42.25193" lon="24.57367">
        <ele>233.6514</ele>
        <time>2022-03-07T08:24:47.521Z</time>
      </trkpt>
      <trkpt lat="42.25202" lon="24.57355">
        <ele>233.667093</ele>
        <time>2022-03-07T08:24:50.469Z</time>
      </trkpt>
      <trkpt lat="42.2521" lon="24.57343">
        <ele>233.681726</ele>
        <time>2022-03-07T08:24:53.475Z</time>
      </trkpt>
      <trkpt lat="42.25218" lon="24.57331">
        <ele>233.695981</ele>
        <time>2022-03-07T08:24:56.477Z</time>
      </trkpt>
      <trkpt lat="42.25225" lon="24.5732">
        <ele>233.709672</ele>
        <time>2022-03-07T08:24:59.475Z</time>
      </trkpt>
      <trkpt lat="42.25233" lon="24.57309">
        <ele>233.723397</ele>
        <time>2022-03-07T08:25:02.486Z</time>
      </trkpt>
      <trkpt lat="42.25242" lon="24.57297">
        <ele>233.738127</ele>
        <time>2022-03-07T08:25:05.474Z</time>
      </trkpt>
      <trkpt lat="42.25251" lon="24.57285">
        <ele>233.753583</ele>
        <time>2022-03-07T08:25:08.492Z</time>
      </trkpt>
      <trkpt lat="42.25259" lon="24.57273">
        <ele>233.768334</ele>
        <time>2022-03-07T08:25:11.470Z</time>
      </trkpt>
      <trkpt lat="42.25267" lon="24.57261">
        <ele>233.811387</ele>
        <time>2022-03-07T08:25:14.471Z</time>
      </trkpt>
      <trkpt lat="42.25276" lon="24.57249">
        <ele>233.881709</ele>
        <time>2022-03-07T08:25:17.483Z</time>
      </trkpt>
      <trkpt lat="42.25285" lon="24.57237">
        <ele>233.954812</ele>
        <time>2022-03-07T08:25:20.483Z</time>
      </trkpt>
      <trkpt lat="42.25293" lon="24.57224">
        <ele>234.023424</ele>
        <time>2022-03-07T08:25:23.500Z</time>
      </trkpt>
      <trkpt lat="42.25302" lon="24.57213">
        <ele>234.092356</ele>
        <time>2022-03-07T08:25:26.479Z</time>
      </trkpt>
      <trkpt lat="42.2531" lon="24.572">
        <ele>234.160905</ele>
        <time>2022-03-07T08:25:29.492Z</time>
      </trkpt>
      <trkpt lat="42.25318" lon="24.57188">
        <ele>234.230206</ele>
        <time>2022-03-07T08:25:32.496Z</time>
      </trkpt>
      <trkpt lat="42.25326" lon="24.57176">
        <ele>234.296276</ele>
        <time>2022-03-07T08:25:35.526Z</time>
      </trkpt>
      <trkpt lat="42.25334" lon="24.57165">
        <ele>234.362346</ele>
        <time>2022-03-07T08:25:38.481Z</time>
      </trkpt>
      <trkpt lat="42.25342" lon="24.57153">
        <ele>234.431491</ele>
        <time>2022-03-07T08:25:41.481Z</time>
      </trkpt>
      <trkpt lat="42.25351" lon="24.57141">
        <ele>234.503502</ele>
        <time>2022-03-07T08:25:44.473Z</time>
      </trkpt>
      <trkpt lat="42.2536" lon="24.57128">
        <ele>234.574948</ele>
        <time>2022-03-07T08:25:47.483Z</time>
      </trkpt>
      <trkpt lat="42.25367" lon="24.57117">
        <ele>234.6388</ele>
        <time>2022-03-07T08:25:50.479Z</time>
      </trkpt>
      <trkpt lat="42.25376" lon="24.57105">
        <ele>234.70679</ele>
        <time>2022-03-07T08:25:53.484Z</time>
      </trkpt>
      <trkpt lat="42.25384" lon="24.57093">
        <ele>234.777321</ele>
        <time>2022-03-07T08:25:56.487Z</time>
      </trkpt>
      <trkpt lat="42.25393" lon="24.57081">
        <ele>234.872333</ele>
        <time>2022-03-07T08:25:59.492Z</time>
      </trkpt>
      <trkpt lat="42.25401" lon="24.57068">
        <ele>234.980222</ele>
        <time>2022-03-07T08:26:02.495Z</time>
      </trkpt>
      <trkpt lat="42.2541" lon="24.57056">
        <ele>235.089422</ele>
        <time>2022-03-07T08:26:05.504Z</time>
      </trkpt>
      <trkpt lat="42.25419" lon="24.57044">
        <ele>235.194902</ele>
        <time>2022-03-07T08:26:08.478Z</time>
      </trkpt>
      <trkpt lat="42.25427" lon="24.57031">
        <ele>235.30096</ele>
        <time>2022-03-07T08:26:11.492Z</time>
      </trkpt>
      <trkpt lat="42.25436" lon="24.57019">
        <ele>235.405853</ele>
        <time>2022-03-07T08:26:14.489Z</time>
      </trkpt>
      <trkpt lat="42.25444" lon="24.57007">
        <ele>235.512374</ele>
        <time>2022-03-07T08:26:17.496Z</time>
      </trkpt>
      <trkpt lat="42.25452" lon="24.56995">
        <ele>235.611954</ele>
        <time>2022-03-07T08:26:20.489Z</time>
      </trkpt>
      <trkpt lat="42.25461" lon="24.56983">
        <ele>235.717184</ele>
        <time>2022-03-07T08:26:23.490Z</time>
      </trkpt>
      <trkpt lat="42.2547" lon="24.56971">
        <ele>235.825936</ele>
        <time>2022-03-07T08:26:26.493Z</time>
      </trkpt>
      <trkpt lat="42.25479" lon="24.56958">
        <ele>235.935585</ele>
        <time>2022-03-07T08:26:29.478Z</time>
      </trkpt>
      <trkpt lat="42.25487" lon="24.56945">
        <ele>236.044513</ele>
        <time>2022-03-07T08:26:32.487Z</time>
      </trkpt>
      <trkpt lat="42.25496" lon="24.56933">
        <ele>236.148705</ele>
        <time>2022-03-07T08:26:35.487Z</time>
      </trkpt>
      <trkpt lat="42.25504" lon="24.56921">
        <ele>236.253826</ele>
        <time>2022-03-07T08:26:38.514Z</time>
      </trkpt>
      <trkpt lat="42.25512" lon="24.56909">
        <ele>236.339369</ele>
        <time>2022-03-07T08:26:41.483Z</time>
      </trkpt>
      <trkpt lat="42.2552" lon="24.56898">
        <ele>236.395279</ele>
        <time>2022-03-07T08:26:44.483Z</time>
      </trkpt>
      <trkpt lat="42.25529" lon="24.56885">
        <ele>236.45524</ele>
        <time>2022-03-07T08:26:47.482Z</time>
      </trkpt>
      <trkpt lat="42.25537" lon="24.56873">
        <ele>236.514825</ele>
        <time>2022-03-07T08:26:50.483Z</time>
      </trkpt>
      <trkpt lat="42.25546" lon="24.56861">
        <ele>236.573827</ele>
        <time>2022-03-07T08:26:53.470Z</time>
      </trkpt>
      <trkpt lat="42.25554" lon="24.56848">
        <ele>236.633338</ele>
        <time>2022-03-07T08:26:56.494Z</time>
      </trkpt>
      <trkpt lat="42.25563" lon="24.56836">
        <ele>236.691174</ele>
        <time>2022-03-07T08:26:59.478Z</time>
      </trkpt>
      <trkpt lat="42.25571" lon="24.56825">
        <ele>236.747845</ele>
        <time>2022-03-07T08:27:02.493Z</time>
      </trkpt>
      <trkpt lat="42.25579" lon="24.56813">
        <ele>236.805288</ele>
        <time>2022-03-07T08:27:05.488Z</time>
      </trkpt>
      <trkpt lat="42.25587" lon="24.56801">
        <ele>236.861249</ele>
        <time>2022-03-07T08:27:08.498Z</time>
      </trkpt>
      <trkpt lat="42.25595" lon="24.5679">
        <ele>236.917241</ele>
        <time>2022-03-07T08:27:11.486Z</time>
      </trkpt>
      <trkpt lat="42.25604" lon="24.56777">
        <ele>236.977489</ele>
        <time>2022-03-07T08:27:14.492Z</time>
      </trkpt>
      <trkpt lat="42.25613" lon="24.56765">
        <ele>237.036417</ele>
        <time>2022-03-07T08:27:17.483Z</time>
      </trkpt>
      <trkpt lat="42.25621" lon="24.56754">
        <ele>237.091669</ele>
        <time>2022-03-07T08:27:20.591Z</time>
      </trkpt>
      <trkpt lat="42.25629" lon="24.56743">
        <ele>237.147327</ele>
        <time>2022-03-07T08:27:23.488Z</time>
      </trkpt>
      <trkpt lat="42.25637" lon="24.56731">
        <ele>237.219309</ele>
        <time>2022-03-07T08:27:26.488Z</time>
      </trkpt>
      <trkpt lat="42.25646" lon="24.5672">
        <ele>237.310463</ele>
        <time>2022-03-07T08:27:29.496Z</time>
      </trkpt>
      <trkpt lat="42.25654" lon="24.56708">
        <ele>237.401045</ele>
        <time>2022-03-07T08:27:32.470Z</time>
      </trkpt>
      <trkpt lat="42.25662" lon="24.56697">
        <ele>237.491097</ele>
        <time>2022-03-07T08:27:35.510Z</time>
      </trkpt>
      <trkpt lat="42.2567" lon="24.56685">
        <ele>237.580333</ele>
        <time>2022-03-07T08:27:38.485Z</time>
      </trkpt>
      <trkpt lat="42.25677" lon="24.56674">
        <ele>237.666347</ele>
        <time>2022-03-07T08:27:41.486Z</time>
      </trkpt>
      <trkpt lat="42.25685" lon="24.56662">
        <ele>237.754148</ele>
        <time>2022-03-07T08:27:44.471Z</time>
      </trkpt>
      <trkpt lat="42.25693" lon="24.56651">
        <ele>237.844405</ele>
        <time>2022-03-07T08:27:47.493Z</time>
      </trkpt>
      <trkpt lat="42.257" lon="24.56639">
        <ele>237.93018</ele>
        <time>2022-03-07T08:27:50.472Z</time>
      </trkpt>
      <trkpt lat="42.25706" lon="24.5663">
        <ele>238.000398</ele>
        <time>2022-03-07T08:27:53.497Z</time>
      </trkpt>
      <trkpt lat="42.25714" lon="24.56617">
        <ele>238.098561</ele>
        <time>2022-03-07T08:27:56.488Z</time>
      </trkpt>
      <trkpt lat="42.25723" lon="24.56605">
        <ele>238.193983</ele>
        <time>2022-03-07T08:27:59.559Z</time>
      </trkpt>
      <trkpt lat="42.25732" lon="24.56594">
        <ele>238.285775</ele>
        <time>2022-03-07T08:28:02.524Z</time>
      </trkpt>
      <trkpt lat="42.2574" lon="24.56581">
        <ele>238.37988</ele>
        <time>2022-03-07T08:28:05.521Z</time>
      </trkpt>
      <trkpt lat="42.25748" lon="24.56569">
        <ele>238.472942</ele>
        <time>2022-03-07T08:28:08.497Z</time>
      </trkpt>
      <trkpt lat="42.25757" lon="24.56558">
        <ele>238.539737</ele>
        <time>2022-03-07T08:28:11.503Z</time>
      </trkpt>
      <trkpt lat="42.25765" lon="24.56547">
        <ele>238.433082</ele>
        <time>2022-03-07T08:28:14.477Z</time>
      </trkpt>
      <trkpt lat="42.25773" lon="24.56536">
        <ele>238.323727</ele>
        <time>2022-03-07T08:28:17.472Z</time>
      </trkpt>
      <trkpt lat="42.25781" lon="24.56525">
        <ele>238.212999</ele>
        <time>2022-03-07T08:28:20.493Z</time>
      </trkpt>
      <trkpt lat="42.25788" lon="24.56514">
        <ele>238.108973</ele>
        <time>2022-03-07T08:28:23.473Z</time>
      </trkpt>
      <trkpt lat="42.25796" lon="24.56503">
        <ele>237.998601</ele>
        <time>2022-03-07T08:28:26.490Z</time>
      </trkpt>
      <trkpt lat="42.25804" lon="24.56493">
        <ele>237.888864</ele>
        <time>2022-03-07T08:28:29.491Z</time>
      </trkpt>
      <trkpt lat="42.25812" lon="24.56482">
        <ele>237.780516</ele>
        <time>2022-03-07T08:28:32.495Z</time>
      </trkpt>
      <trkpt lat="42.25819" lon="24.56472">
        <ele>237.677549</ele>
        <time>2022-03-07T08:28:35.513Z</time>
      </trkpt>
      <trkpt lat="42.25826" lon="24.56461">
        <ele>237.574053</ele>
        <time>2022-03-07T08:28:38.479Z</time>
      </trkpt>
      <trkpt lat="42.25834" lon="24.5645">
        <ele>237.471086</ele>
        <time>2022-03-07T08:28:41.483Z</time>
      </trkpt>
      <trkpt lat="42.25841" lon="24.5644">
        <ele>237.368506</ele>
        <time>2022-03-07T08:28:44.479Z</time>
      </trkpt>
      <trkpt lat="42.25848" lon="24.5643">
        <ele>237.268294</ele>
        <time>2022-03-07T08:28:47.498Z</time>
      </trkpt>
      <trkpt lat="42.25855" lon="24.56419">
        <ele>237.161782</ele>
        <time>2022-03-07T08:28:50.484Z</time>
      </trkpt>
      <trkpt lat="42.25863" lon="24.56407">
        <ele>237.050146</ele>
        <time>2022-03-07T08:28:53.490Z</time>
      </trkpt>
      <trkpt lat="42.25871" lon="24.56396">
        <ele>236.944941</ele>
        <time>2022-03-07T08:28:56.473Z</time>
      </trkpt>
      <trkpt lat="42.25878" lon="24.56385">
        <ele>236.84166</ele>
        <time>2022-03-07T08:28:59.473Z</time>
      </trkpt>
      <trkpt lat="42.25885" lon="24.56375">
        <ele>236.879727</ele>
        <time>2022-03-07T08:29:02.499Z</time>
      </trkpt>
      <trkpt lat="42.25893" lon="24.56364">
        <ele>236.968669</ele>
        <time>2022-03-07T08:29:05.494Z</time>
      </trkpt>
      <trkpt lat="42.259" lon="24.56353">
        <ele>237.059597</ele>
        <time>2022-03-07T08:29:08.495Z</time>
      </trkpt>
      <trkpt lat="42.25908" lon="24.56343">
        <ele>237.150632</ele>
        <time>2022-03-07T08:29:11.493Z</time>
      </trkpt>
      <trkpt lat="42.25916" lon="24.56332">
        <ele>237.240514</ele>
        <time>2022-03-07T08:29:14.494Z</time>
      </trkpt>
      <trkpt lat="42.25923" lon="24.56322">
        <ele>237.325547</ele>
        <time>2022-03-07T08:29:17.543Z</time>
      </trkpt>
      <trkpt lat="42.25931" lon="24.56311">
        <ele>237.412061</ele>
        <time>2022-03-07T08:29:20.482Z</time>
      </trkpt>
      <trkpt lat="42.25938" lon="24.56301">
        <ele>237.497934</ele>
        <time>2022-03-07T08:29:23.480Z</time>
      </trkpt>
      <trkpt lat="42.25945" lon="24.56289">
        <ele>237.590739</ele>
        <time>2022-03-07T08:29:26.482Z</time>
      </trkpt>
      <trkpt lat="42.25953" lon="24.56278">
        <ele>237.682008</ele>
        <time>2022-03-07T08:29:29.489Z</time>
      </trkpt>
      <trkpt lat="42.2596" lon="24.56267">
        <ele>237.773641</ele>
        <time>2022-03-07T08:29:32.482Z</time>
      </trkpt>
      <trkpt lat="42.25968" lon="24.56255">
        <ele>237.868106</ele>
        <time>2022-03-07T08:29:35.492Z</time>
      </trkpt>
      <trkpt lat="42.25976" lon="24.56245">
        <ele>237.955421</ele>
        <time>2022-03-07T08:29:38.497Z</time>
      </trkpt>
      <trkpt lat="42.25984" lon="24.56234">
        <ele>238.047157</ele>
        <time>2022-03-07T08:29:41.495Z</time>
      </trkpt>
      <trkpt lat="42.25991" lon="24.56223">
        <ele>238.137466</ele>
        <time>2022-03-07T08:29:44.495Z</time>
      </trkpt>
      <trkpt lat="42.26" lon="24.56213">
        <ele>238.229844</ele>
        <time>2022-03-07T08:29:47.491Z</time>
      </trkpt>
      <trkpt lat="42.26008" lon="24.56201">
        <ele>238.302954</ele>
        <time>2022-03-07T08:29:50.487Z</time>
      </trkpt>
      <trkpt lat="42.26015" lon="24.56191">
        <ele>238.352463</ele>
        <time>2022-03-07T08:29:53.490Z</time>
      </trkpt>
      <trkpt lat="42.26023" lon="24.5618">
        <ele>238.404024</ele>
        <time>2022-03-07T08:29:56.497Z</time>
      </trkpt>
      <trkpt lat="42.2603" lon="24.56169">
        <ele>238.451563</ele>
        <time>2022-03-07T08:29:59.526Z</time>
      </trkpt>
      <trkpt lat="42.26037" lon="24.56158">
        <ele>238.50058</ele>
        <time>2022-03-07T08:30:02.504Z</time>
      </trkpt>
      <trkpt lat="42.26045" lon="24.56148">
        <ele>238.549427</ele>
        <time>2022-03-07T08:30:05.475Z</time>
      </trkpt>
      <trkpt lat="42.26052" lon="24.56137">
        <ele>238.599127</ele>
        <time>2022-03-07T08:30:08.501Z</time>
      </trkpt>
      <trkpt lat="42.2606" lon="24.56126">
        <ele>238.651353</ele>
        <time>2022-03-07T08:30:11.497Z</time>
      </trkpt>
      <trkpt lat="42.26067" lon="24.56115">
        <ele>238.700683</ele>
        <time>2022-03-07T08:30:14.485Z</time>
      </trkpt>
      <trkpt lat="42.26075" lon="24.56104">
        <ele>238.750192</ele>
        <time>2022-03-07T08:30:17.483Z</time>
      </trkpt>
      <trkpt lat="42.26082" lon="24.56093">
        <ele>238.800257</ele>
        <time>2022-03-07T08:30:20.495Z</time>
      </trkpt>
      <trkpt lat="42.2609" lon="24.56083">
        <ele>238.850145</ele>
        <time>2022-03-07T08:30:23.485Z</time>
      </trkpt>
      <trkpt lat="42.26098" lon="24.56072">
        <ele>238.901784</ele>
        <time>2022-03-07T08:30:26.490Z</time>
      </trkpt>
      <trkpt lat="42.26105" lon="24.56061">
        <ele>238.95063</ele>
        <time>2022-03-07T08:30:29.504Z</time>
      </trkpt>
      <trkpt lat="42.26113" lon="24.56051">
        <ele>238.998474</ele>
        <time>2022-03-07T08:30:32.484Z</time>
      </trkpt>
      <trkpt lat="42.2612" lon="24.5604">
        <ele>239.047675</ele>
        <time>2022-03-07T08:30:35.490Z</time>
      </trkpt>
      <trkpt lat="42.26127" lon="24.5603">
        <ele>239.093994</ele>
        <time>2022-03-07T08:30:38.519Z</time>
      </trkpt>
      <trkpt lat="42.26135" lon="24.56019">
        <ele>239.09641</ele>
        <time>2022-03-07T08:30:41.491Z</time>
      </trkpt>
      <trkpt lat="42.26142" lon="24.56008">
        <ele>239.098787</ele>
        <time>2022-03-07T08:30:44.490Z</time>
      </trkpt>
      <trkpt lat="42.26149" lon="24.55999">
        <ele>239.101002</ele>
        <time>2022-03-07T08:30:47.493Z</time>
      </trkpt>
      <trkpt lat="42.26156" lon="24.55988">
        <ele>239.103283</ele>
        <time>2022-03-07T08:30:50.486Z</time>
      </trkpt>
      <trkpt lat="42.26163" lon="24.55977">
        <ele>239.105697</ele>
        <time>2022-03-07T08:30:53.482Z</time>
      </trkpt>
      <trkpt lat="42.2617" lon="24.55966">
        <ele>239.108066</ele>
        <time>2022-03-07T08:30:56.482Z</time>
      </trkpt>
      <trkpt lat="42.26177" lon="24.55956">
        <ele>239.110427</ele>
        <time>2022-03-07T08:30:59.481Z</time>
      </trkpt>
      <trkpt lat="42.26185" lon="24.55946">
        <ele>239.112766</ele>
        <time>2022-03-07T08:31:02.493Z</time>
      </trkpt>
      <trkpt lat="42.26193" lon="24.55936">
        <ele>239.115139</ele>
        <time>2022-03-07T08:31:05.503Z</time>
      </trkpt>
      <trkpt lat="42.262" lon="24.55925">
        <ele>239.117522</ele>
        <time>2022-03-07T08:31:08.497Z</time>
      </trkpt>
      <trkpt lat="42.26207" lon="24.55915">
        <ele>239.119857</ele>
        <time>2022-03-07T08:31:11.514Z</time>
      </trkpt>
      <trkpt lat="42.26214" lon="24.55904">
        <ele>239.122243</ele>
        <time>2022-03-07T08:31:14.472Z</time>
      </trkpt>
      <trkpt lat="42.26222" lon="24.55894">
        <ele>239.12473</ele>
        <time>2022-03-07T08:31:17.522Z</time>
      </trkpt>
      <trkpt lat="42.2623" lon="24.55883">
        <ele>239.127165</ele>
        <time>2022-03-07T08:31:20.517Z</time>
      </trkpt>
      <trkpt lat="42.26238" lon="24.55872">
        <ele>239.129593</ele>
        <time>2022-03-07T08:31:23.494Z</time>
      </trkpt>
      <trkpt lat="42.26245" lon="24.55861">
        <ele>239.132021</ele>
        <time>2022-03-07T08:31:26.495Z</time>
      </trkpt>
      <trkpt lat="42.26252" lon="24.55851">
        <ele>239.14538</ele>
        <time>2022-03-07T08:31:29.503Z</time>
      </trkpt>
      <trkpt lat="42.2626" lon="24.55841">
        <ele>239.188639</ele>
        <time>2022-03-07T08:31:32.492Z</time>
      </trkpt>
      <trkpt lat="42.26267" lon="24.5583">
        <ele>239.23291</ele>
        <time>2022-03-07T08:31:35.482Z</time>
      </trkpt>
      <trkpt lat="42.26274" lon="24.55819">
        <ele>239.277016</ele>
        <time>2022-03-07T08:31:38.522Z</time>
      </trkpt>
      <trkpt lat="42.26281" lon="24.55809">
        <ele>239.320442</ele>
        <time>2022-03-07T08:31:41.474Z</time>
      </trkpt>
      <trkpt lat="42.26289" lon="24.55798">
        <ele>239.365945</ele>
        <time>2022-03-07T08:31:44.491Z</time>
      </trkpt>
      <trkpt lat="42.26296" lon="24.55787">
        <ele>239.410721</ele>
        <time>2022-03-07T08:31:47.467Z</time>
      </trkpt>
      <trkpt lat="42.26304" lon="24.55776">
        <ele>239.457116</ele>
        <time>2022-03-07T08:31:50.489Z</time>
      </trkpt>
      <trkpt lat="42.26311" lon="24.55765">
        <ele>239.50041</ele>
        <time>2022-03-07T08:31:53.488Z</time>
      </trkpt>
      <trkpt lat="42.26318" lon="24.55754">
        <ele>239.54759</ele>
        <time>2022-03-07T08:31:56.483Z</time>
      </trkpt>
      <trkpt lat="42.26327" lon="24.55743">
        <ele>239.594324</ele>
        <time>2022-03-07T08:31:59.484Z</time>
      </trkpt>
      <trkpt lat="42.26334" lon="24.55733">
        <ele>239.640181</ele>
        <time>2022-03-07T08:32:02.504Z</time>
      </trkpt>
      <trkpt lat="42.26342" lon="24.55722">
        <ele>239.684881</ele>
        <time>2022-03-07T08:32:05.482Z</time>
      </trkpt>
      <trkpt lat="42.2635" lon="24.55711">
        <ele>239.732188</ele>
        <time>2022-03-07T08:32:08.501Z</time>
      </trkpt>
      <trkpt lat="42.26358" lon="24.557">
        <ele>239.779428</ele>
        <time>2022-03-07T08:32:11.514Z</time>
      </trkpt>
      <trkpt lat="42.26366" lon="24.55689">
        <ele>239.824931</ele>
        <time>2022-03-07T08:32:14.490Z</time>
      </trkpt>
      <trkpt lat="42.26372" lon="24.55679">
        <ele>239.867124</ele>
        <time>2022-03-07T08:32:17.526Z</time>
      </trkpt>
      <trkpt lat="42.26379" lon="24.55669">
        <ele>239.954106</ele>
        <time>2022-03-07T08:32:20.492Z</time>
      </trkpt>
      <trkpt lat="42.26386" lon="24.55657">
        <ele>240.068212</ele>
        <time>2022-03-07T08:32:23.513Z</time>
      </trkpt>
      <trkpt lat="42.26393" lon="24.55648">
        <ele>240.169813</ele>
        <time>2022-03-07T08:32:26.488Z</time>
      </trkpt>
      <trkpt lat="42.26399" lon="24.55638">
        <ele>240.272282</ele>
        <time>2022-03-07T08:32:29.535Z</time>
      </trkpt>
      <trkpt lat="42.26407" lon="24.55627">
        <ele>240.387804</ele>
        <time>2022-03-07T08:32:32.494Z</time>
      </trkpt>
      <trkpt lat="42.26415" lon="24.55616">
        <ele>240.509296</ele>
        <time>2022-03-07T08:32:35.486Z</time>
      </trkpt>
      <trkpt lat="42.26423" lon="24.55605">
        <ele>240.623122</ele>
        <time>2022-03-07T08:32:38.475Z</time>
      </trkpt>
      <trkpt lat="42.2643" lon="24.55594">
        <ele>240.733043</ele>
        <time>2022-03-07T08:32:41.500Z</time>
      </trkpt>
      <trkpt lat="42.26438" lon="24.55583">
        <ele>240.852</ele>
        <time>2022-03-07T08:32:44.498Z</time>
      </trkpt>
      <trkpt lat="42.26447" lon="24.55573">
        <ele>240.968017</ele>
        <time>2022-03-07T08:32:47.475Z</time>
      </trkpt>
      <trkpt lat="42.26455" lon="24.55562">
        <ele>241.082099</ele>
        <time>2022-03-07T08:32:50.491Z</time>
      </trkpt>
      <trkpt lat="42.26462" lon="24.55552">
        <ele>241.189344</ele>
        <time>2022-03-07T08:32:53.496Z</time>
      </trkpt>
      <trkpt lat="42.26469" lon="24.55541">
        <ele>241.305451</ele>
        <time>2022-03-07T08:32:56.475Z</time>
      </trkpt>
      <trkpt lat="42.26476" lon="24.55529">
        <ele>241.418143</ele>
        <time>2022-03-07T08:32:59.480Z</time>
      </trkpt>
      <trkpt lat="42.26484" lon="24.55518">
        <ele>241.534762</ele>
        <time>2022-03-07T08:33:02.519Z</time>
      </trkpt>
      <trkpt lat="42.26492" lon="24.55507">
        <ele>241.65879</ele>
        <time>2022-03-07T08:33:05.485Z</time>
      </trkpt>
      <trkpt lat="42.26501" lon="24.55495">
        <ele>241.706893</ele>
        <time>2022-03-07T08:33:08.486Z</time>
      </trkpt>
      <trkpt lat="42.26509" lon="24.55483">
        <ele>241.663227</ele>
        <time>2022-03-07T08:33:11.495Z</time>
      </trkpt>
      <trkpt lat="42.26517" lon="24.55473">
        <ele>241.620022</ele>
        <time>2022-03-07T08:33:14.483Z</time>
      </trkpt>
      <trkpt lat="42.26525" lon="24.55462">
        <ele>241.577818</ele>
        <time>2022-03-07T08:33:17.481Z</time>
      </trkpt>
      <trkpt lat="42.26533" lon="24.5545">
        <ele>241.533594</ele>
        <time>2022-03-07T08:33:20.493Z</time>
      </trkpt>
      <trkpt lat="42.26541" lon="24.55439">
        <ele>241.488675</ele>
        <time>2022-03-07T08:33:23.475Z</time>
      </trkpt>
      <trkpt lat="42.26549" lon="24.55426">
        <ele>241.442831</ele>
        <time>2022-03-07T08:33:26.487Z</time>
      </trkpt>
      <trkpt lat="42.26557" lon="24.55414">
        <ele>241.396506</ele>
        <time>2022-03-07T08:33:29.470Z</time>
      </trkpt>
      <trkpt lat="42.26565" lon="24.55404">
        <ele>241.356821</ele>
        <time>2022-03-07T08:33:32.489Z</time>
      </trkpt>
      <trkpt lat="42.26572" lon="24.55392">
        <ele>241.312719</ele>
        <time>2022-03-07T08:33:35.480Z</time>
      </trkpt>
      <trkpt lat="42.2658" lon="24.5538">
        <ele>241.269459</ele>
        <time>2022-03-07T08:33:38.513Z</time>
      </trkpt>
      <trkpt lat="42.26587" lon="24.55369">
        <ele>241.227439</ele>
        <time>2022-03-07T08:33:41.478Z</time>
      </trkpt>
      <trkpt lat="42.26596" lon="24.55358">
        <ele>241.181652</ele>
        <time>2022-03-07T08:33:44.505Z</time>
      </trkpt>
      <trkpt lat="42.26605" lon="24.55348">
        <ele>241.13697</ele>
        <time>2022-03-07T08:33:47.485Z</time>
      </trkpt>
      <trkpt lat="42.26613" lon="24.55338">
        <ele>241.098341</ele>
        <time>2022-03-07T08:33:50.495Z</time>
      </trkpt>
      <trkpt lat="42.26621" lon="24.55327">
        <ele>241.055012</ele>
        <time>2022-03-07T08:33:53.496Z</time>
      </trkpt>
      <trkpt lat="42.26629" lon="24.55316">
        <ele>241.186269</ele>
        <time>2022-03-07T08:33:56.483Z</time>
      </trkpt>
      <trkpt lat="42.26637" lon="24.55306">
        <ele>241.338901</ele>
        <time>2022-03-07T08:33:59.485Z</time>
      </trkpt>
      <trkpt lat="42.26645" lon="24.55295">
        <ele>241.494915</ele>
        <time>2022-03-07T08:34:02.502Z</time>
      </trkpt>
      <trkpt lat="42.26651" lon="24.55284">
        <ele>241.642541</ele>
        <time>2022-03-07T08:34:05.487Z</time>
      </trkpt>
      <trkpt lat="42.26658" lon="24.55273">
        <ele>241.792999</ele>
        <time>2022-03-07T08:34:08.534Z</time>
      </trkpt>
      <trkpt lat="42.26666" lon="24.55262">
        <ele>241.942078</ele>
        <time>2022-03-07T08:34:11.501Z</time>
      </trkpt>
      <trkpt lat="42.26672" lon="24.55252">
        <ele>242.085414</ele>
        <time>2022-03-07T08:34:14.493Z</time>
      </trkpt>
      <trkpt lat="42.26681" lon="24.55243">
        <ele>242.236155</ele>
        <time>2022-03-07T08:34:17.500Z</time>
      </trkpt>
      <trkpt lat="42.26688" lon="24.55234">
        <ele>242.370468</ele>
        <time>2022-03-07T08:34:20.464Z</time>
      </trkpt>
      <trkpt lat="42.26695" lon="24.55224">
        <ele>242.512281</ele>
        <time>2022-03-07T08:34:23.472Z</time>
      </trkpt>
      <trkpt lat="42.26702" lon="24.55214">
        <ele>242.658082</ele>
        <time>2022-03-07T08:34:26.501Z</time>
      </trkpt>
      <trkpt lat="42.26709" lon="24.55203">
        <ele>242.810688</ele>
        <time>2022-03-07T08:34:29.483Z</time>
      </trkpt>
      <trkpt lat="42.26716" lon="24.55191">
        <ele>242.960148</ele>
        <time>2022-03-07T08:34:32.491Z</time>
      </trkpt>
      <trkpt lat="42.26723" lon="24.5518">
        <ele>243.115679</ele>
        <time>2022-03-07T08:34:35.494Z</time>
      </trkpt>
      <trkpt lat="42.26732" lon="24.55169">
        <ele>243.278955</ele>
        <time>2022-03-07T08:34:38.484Z</time>
      </trkpt>
      <trkpt lat="42.26739" lon="24.55158">
        <ele>243.431461</ele>
        <time>2022-03-07T08:34:41.534Z</time>
      </trkpt>
      <trkpt lat="42.26747" lon="24.55148">
        <ele>243.565876</ele>
        <time>2022-03-07T08:34:44.503Z</time>
      </trkpt>
      <trkpt lat="42.26755" lon="24.55137">
        <ele>243.621317</ele>
        <time>2022-03-07T08:34:47.493Z</time>
      </trkpt>
      <trkpt lat="42.26762" lon="24.55126">
        <ele>243.676274</ele>
        <time>2022-03-07T08:34:50.482Z</time>
      </trkpt>
      <trkpt lat="42.2677" lon="24.55117">
        <ele>243.727881</ele>
        <time>2022-03-07T08:34:53.492Z</time>
      </trkpt>
      <trkpt lat="42.26778" lon="24.55108">
        <ele>243.780888</ele>
        <time>2022-03-07T08:34:56.495Z</time>
      </trkpt>
      <trkpt lat="42.26787" lon="24.55099">
        <ele>243.836362</ele>
        <time>2022-03-07T08:34:59.493Z</time>
      </trkpt>
      <trkpt lat="42.26797" lon="24.55091">
        <ele>243.894369</ele>
        <time>2022-03-07T08:35:02.503Z</time>
      </trkpt>
      <trkpt lat="42.26806" lon="24.55082">
        <ele>243.952568</ele>
        <time>2022-03-07T08:35:05.486Z</time>
      </trkpt>
      <trkpt lat="42.26815" lon="24.55072">
        <ele>244.009393</ele>
        <time>2022-03-07T08:35:08.499Z</time>
      </trkpt>
      <trkpt lat="42.26824" lon="24.55064">
        <ele>244.064034</ele>
        <time>2022-03-07T08:35:11.481Z</time>
      </trkpt>
      <trkpt lat="42.26832" lon="24.55056">
        <ele>244.112173</ele>
        <time>2022-03-07T08:35:14.541Z</time>
      </trkpt>
      <trkpt lat="42.2684" lon="24.55047">
        <ele>244.163171</ele>
        <time>2022-03-07T08:35:17.487Z</time>
      </trkpt>
      <trkpt lat="42.26848" lon="24.55038">
        <ele>244.216802</ele>
        <time>2022-03-07T08:35:20.483Z</time>
      </trkpt>
      <trkpt lat="42.26856" lon="24.55029">
        <ele>244.267661</ele>
        <time>2022-03-07T08:35:23.505Z</time>
      </trkpt>
      <trkpt lat="42.26865" lon="24.55021">
        <ele>244.321681</ele>
        <time>2022-03-07T08:35:26.500Z</time>
      </trkpt>
      <trkpt lat="42.26874" lon="24.55013">
        <ele>244.375094</ele>
        <time>2022-03-07T08:35:29.487Z</time>
      </trkpt>
      <trkpt lat="42.26882" lon="24.55004">
        <ele>244.428585</ele>
        <time>2022-03-07T08:35:32.503Z</time>
      </trkpt>
      <trkpt lat="42.26891" lon="24.54997">
        <ele>244.508955</ele>
        <time>2022-03-07T08:35:35.496Z</time>
      </trkpt>
      <trkpt lat="42.26899" lon="24.54988">
        <ele>244.624466</ele>
        <time>2022-03-07T08:35:38.491Z</time>
      </trkpt>
      <trkpt lat="42.26907" lon="24.54979">
        <ele>244.731845</ele>
        <time>2022-03-07T08:35:41.530Z</time>
      </trkpt>
      <trkpt lat="42.26915" lon="24.54971">
        <ele>244.844023</ele>
        <time>2022-03-07T08:35:44.503Z</time>
      </trkpt>
      <trkpt lat="42.26923" lon="24.54964">
        <ele>244.948409</ele>
        <time>2022-03-07T08:35:47.527Z</time>
      </trkpt>
      <trkpt lat="42.26932" lon="24.54955">
        <ele>245.070951</ele>
        <time>2022-03-07T08:35:50.499Z</time>
      </trkpt>
      <trkpt lat="42.2694" lon="24.54946">
        <ele>245.186462</ele>
        <time>2022-03-07T08:35:53.493Z</time>
      </trkpt>
      <trkpt lat="42.26949" lon="24.54938">
        <ele>245.302099</ele>
        <time>2022-03-07T08:35:56.482Z</time>
      </trkpt>
      <trkpt lat="42.26958" lon="24.5493">
        <ele>245.415922</ele>
        <time>2022-03-07T08:35:59.494Z</time>
      </trkpt>
      <trkpt lat="42.26967" lon="24.54921">
        <ele>245.53808</ele>
        <time>2022-03-07T08:36:02.475Z</time>
      </trkpt>
      <trkpt lat="42.26975" lon="24.54912">
        <ele>245.656004</ele>
        <time>2022-03-07T08:36:05.490Z</time>
      </trkpt>
      <trkpt lat="42.26983" lon="24.54904">
        <ele>245.764113</ele>
        <time>2022-03-07T08:36:08.493Z</time>
      </trkpt>
      <trkpt lat="42.26991" lon="24.54895">
        <ele>245.87708</ele>
        <time>2022-03-07T08:36:11.490Z</time>
      </trkpt>
      <trkpt lat="42.26999" lon="24.54888">
        <ele>245.978796</ele>
        <time>2022-03-07T08:36:14.491Z</time>
      </trkpt>
      <trkpt lat="42.27007" lon="24.54881">
        <ele>246.083924</ele>
        <time>2022-03-07T08:36:17.488Z</time>
      </trkpt>
      <trkpt lat="42.27015" lon="24.54874">
        <ele>246.186519</ele>
        <time>2022-03-07T08:36:20.489Z</time>
      </trkpt>
      <trkpt lat="42.27022" lon="24.54865">
        <ele>246.295595</ele>
        <time>2022-03-07T08:36:23.496Z</time>
      </trkpt>
      <trkpt lat="42.27031" lon="24.54854">
        <ele>246.414775</ele>
        <time>2022-03-07T08:36:27.490Z</time>
      </trkpt>
      <trkpt lat="42.2704" lon="24.54846">
        <ele>246.397171</ele>
        <time>2022-03-07T08:36:30.502Z</time>
      </trkpt>
      <trkpt lat="42.27047" lon="24.54836">
        <ele>246.380912</ele>
        <time>2022-03-07T08:36:33.482Z</time>
      </trkpt>
      <trkpt lat="42.27056" lon="24.54827">
        <ele>246.362089</ele>
        <time>2022-03-07T08:36:37.508Z</time>
      </trkpt>
      <trkpt lat="42.27063" lon="24.54819">
        <ele>246.346174</ele>
        <time>2022-03-07T08:36:43.541Z</time>
      </trkpt>
      <trkpt lat="42.27072" lon="24.54813">
        <ele>246.329408</ele>
        <time>2022-03-07T08:36:47.521Z</time>
      </trkpt>
      <trkpt lat="42.27081" lon="24.54807">
        <ele>246.313378</ele>
        <time>2022-03-07T08:36:50.493Z</time>
      </trkpt>
      <trkpt lat="42.27088" lon="24.54799">
        <ele>246.297988</ele>
        <time>2022-03-07T08:36:53.494Z</time>
      </trkpt>
      <trkpt lat="42.27095" lon="24.5479">
        <ele>246.281376</ele>
        <time>2022-03-07T08:36:56.526Z</time>
      </trkpt>
      <trkpt lat="42.27104" lon="24.54781">
        <ele>246.262948</ele>
        <time>2022-03-07T08:36:59.519Z</time>
      </trkpt>
      <trkpt lat="42.27114" lon="24.54772">
        <ele>246.243661</ele>
        <time>2022-03-07T08:37:02.480Z</time>
      </trkpt>
      <trkpt lat="42.27122" lon="24.54764">
        <ele>246.22685</ele>
        <time>2022-03-07T08:37:05.522Z</time>
      </trkpt>
      <trkpt lat="42.2713" lon="24.54757">
        <ele>246.211342</ele>
        <time>2022-03-07T08:37:08.539Z</time>
      </trkpt>
      <trkpt lat="42.27138" lon="24.54751">
        <ele>246.196369</ele>
        <time>2022-03-07T08:37:11.502Z</time>
      </trkpt>
      <trkpt lat="42.27146" lon="24.54745">
        <ele>246.180745</ele>
        <time>2022-03-07T08:37:15.474Z</time>
      </trkpt>
      <trkpt lat="42.27151" lon="24.54734">
        <ele>246.165454</ele>
        <time>2022-03-07T08:37:19.514Z</time>
      </trkpt>
      <trkpt lat="42.27148" lon="24.54723">
        <ele>246.150167</ele>
        <time>2022-03-07T08:37:23.530Z</time>
      </trkpt>
      <trkpt lat="42.2715" lon="24.54708">
        <ele>246.131512</ele>
        <time>2022-03-07T08:37:27.477Z</time>
      </trkpt>
      <trkpt lat="42.27155" lon="24.54696">
        <ele>246.162649</ele>
        <time>2022-03-07T08:37:30.480Z</time>
      </trkpt>
      <trkpt lat="42.27163" lon="24.54686">
        <ele>246.456802</ele>
        <time>2022-03-07T08:37:34.485Z</time>
      </trkpt>
      <trkpt lat="42.27171" lon="24.54693">
        <ele>246.72615</ele>
        <time>2022-03-07T08:37:39.466Z</time>
      </trkpt>
      <trkpt lat="42.2718" lon="24.54689">
        <ele>246.986765</ele>
        <time>2022-03-07T08:37:45.456Z</time>
      </trkpt>
      <trkpt lat="42.27167" lon="24.54681">
        <ele>247.399797</ele>
        <time>2022-03-07T08:58:20.485Z</time>
      </trkpt>
      <trkpt lat="42.27156" lon="24.54688">
        <ele>247.734252</ele>
        <time>2022-03-07T08:58:23.487Z</time>
      </trkpt>
      <trkpt lat="42.2715" lon="24.54699">
        <ele>248.016387</ele>
        <time>2022-03-07T08:58:26.557Z</time>
      </trkpt>
      <trkpt lat="42.27144" lon="24.54711">
        <ele>248.287472</ele>
        <time>2022-03-07T08:58:29.496Z</time>
      </trkpt>
      <trkpt lat="42.27139" lon="24.54722">
        <ele>248.56342</ele>
        <time>2022-03-07T08:58:32.576Z</time>
      </trkpt>
      <trkpt lat="42.27133" lon="24.54733">
        <ele>248.840566</ele>
        <time>2022-03-07T08:58:36.494Z</time>
      </trkpt>
      <trkpt lat="42.27121" lon="24.54732">
        <ele>249.148554</ele>
        <time>2022-03-07T08:58:41.498Z</time>
      </trkpt>
      <trkpt lat="42.27111" lon="24.54727">
        <ele>249.441626</ele>
        <time>2022-03-07T08:58:45.495Z</time>
      </trkpt>
      <trkpt lat="42.27101" lon="24.5472">
        <ele>249.752019</ele>
        <time>2022-03-07T08:58:49.474Z</time>
      </trkpt>
      <trkpt lat="42.27092" lon="24.54715">
        <ele>250.019391</ele>
        <time>2022-03-07T08:58:52.479Z</time>
      </trkpt>
      <trkpt lat="42.27083" lon="24.5471">
        <ele>250.284511</ele>
        <time>2022-03-07T08:58:55.503Z</time>
      </trkpt>
      <trkpt lat="42.27073" lon="24.54705">
        <ele>250.569462</ele>
        <time>2022-03-07T08:58:58.506Z</time>
      </trkpt>
      <trkpt lat="42.27063" lon="24.547">
        <ele>250.859157</ele>
        <time>2022-03-07T08:59:01.487Z</time>
      </trkpt>
      <trkpt lat="42.27052" lon="24.54695">
        <ele>251.151962</ele>
        <time>2022-03-07T08:59:04.499Z</time>
      </trkpt>
      <trkpt lat="42.27042" lon="24.54689">
        <ele>251.407436</ele>
        <time>2022-03-07T08:59:07.492Z</time>
      </trkpt>
      <trkpt lat="42.27031" lon="24.54683">
        <ele>251.671537</ele>
        <time>2022-03-07T08:59:10.477Z</time>
      </trkpt>
      <trkpt lat="42.27019" lon="24.54678">
        <ele>251.942367</ele>
        <time>2022-03-07T08:59:13.480Z</time>
      </trkpt>
      <trkpt lat="42.27008" lon="24.54672">
        <ele>252.217468</ele>
        <time>2022-03-07T08:59:16.517Z</time>
      </trkpt>
      <trkpt lat="42.26996" lon="24.54667">
        <ele>252.497414</ele>
        <time>2022-03-07T08:59:19.483Z</time>
      </trkpt>
      <trkpt lat="42.26984" lon="24.54663">
        <ele>252.777944</ele>
        <time>2022-03-07T08:59:22.475Z</time>
      </trkpt>
      <trkpt lat="42.26972" lon="24.5466">
        <ele>253.048958</ele>
        <time>2022-03-07T08:59:25.488Z</time>
      </trkpt>
      <trkpt lat="42.26961" lon="24.5466">
        <ele>253.302062</ele>
        <time>2022-03-07T08:59:28.498Z</time>
      </trkpt>
      <trkpt lat="42.26948" lon="24.54662">
        <ele>253.599778</ele>
        <time>2022-03-07T08:59:31.508Z</time>
      </trkpt>
      <trkpt lat="42.26935" lon="24.54666">
        <ele>253.894232</ele>
        <time>2022-03-07T08:59:34.492Z</time>
      </trkpt>
      <trkpt lat="42.26922" lon="24.54667">
        <ele>254.196109</ele>
        <time>2022-03-07T08:59:37.508Z</time>
      </trkpt>
      <trkpt lat="42.26913" lon="24.54668">
        <ele>254.402715</ele>
        <time>2022-03-07T08:59:39.495Z</time>
      </trkpt>
      <trkpt lat="42.26904" lon="24.54669">
        <ele>254.606771</ele>
        <time>2022-03-07T08:59:41.506Z</time>
      </trkpt>
      <trkpt lat="42.26891" lon="24.54671">
        <ele>254.903584</ele>
        <time>2022-03-07T08:59:44.475Z</time>
      </trkpt>
      <trkpt lat="42.26878" lon="24.54673">
        <ele>255.099321</ele>
        <time>2022-03-07T08:59:47.522Z</time>
      </trkpt>
      <trkpt lat="42.26868" lon="24.54675">
        <ele>255.134056</ele>
        <time>2022-03-07T08:59:49.527Z</time>
      </trkpt>
      <trkpt lat="42.26859" lon="24.54677">
        <ele>255.166148</ele>
        <time>2022-03-07T08:59:51.486Z</time>
      </trkpt>
      <trkpt lat="42.26846" lon="24.54679">
        <ele>255.212833</ele>
        <time>2022-03-07T08:59:54.480Z</time>
      </trkpt>
      <trkpt lat="42.26834" lon="24.54681">
        <ele>255.256496</ele>
        <time>2022-03-07T08:59:57.504Z</time>
      </trkpt>
      <trkpt lat="42.26821" lon="24.54683">
        <ele>255.299836</ele>
        <time>2022-03-07T09:00:00.538Z</time>
      </trkpt>
      <trkpt lat="42.26812" lon="24.54683">
        <ele>255.334813</ele>
        <time>2022-03-07T09:00:03.493Z</time>
      </trkpt>
      <trkpt lat="42.268" lon="24.54682">
        <ele>255.377219</ele>
        <time>2022-03-07T09:00:07.492Z</time>
      </trkpt>
      <trkpt lat="42.26789" lon="24.54682">
        <ele>255.413669</ele>
        <time>2022-03-07T09:00:10.494Z</time>
      </trkpt>
      <trkpt lat="42.26778" lon="24.54681">
        <ele>255.451809</ele>
        <time>2022-03-07T09:00:13.486Z</time>
      </trkpt>
      <trkpt lat="42.26767" lon="24.54682">
        <ele>255.490663</ele>
        <time>2022-03-07T09:00:16.489Z</time>
      </trkpt>
      <trkpt lat="42.26756" lon="24.54682">
        <ele>255.52951</ele>
        <time>2022-03-07T09:00:19.498Z</time>
      </trkpt>
      <trkpt lat="42.26745" lon="24.54682">
        <ele>255.570835</ele>
        <time>2022-03-07T09:00:22.497Z</time>
      </trkpt>
      <trkpt lat="42.26732" lon="24.54683">
        <ele>255.614322</ele>
        <time>2022-03-07T09:00:25.477Z</time>
      </trkpt>
      <trkpt lat="42.2672" lon="24.54683">
        <ele>255.656703</ele>
        <time>2022-03-07T09:00:28.495Z</time>
      </trkpt>
      <trkpt lat="42.26709" lon="24.54683">
        <ele>255.697675</ele>
        <time>2022-03-07T09:00:31.501Z</time>
      </trkpt>
      <trkpt lat="42.26698" lon="24.54683">
        <ele>255.642676</ele>
        <time>2022-03-07T09:00:34.489Z</time>
      </trkpt>
      <trkpt lat="42.26688" lon="24.5468">
        <ele>255.519934</ele>
        <time>2022-03-07T09:00:37.506Z</time>
      </trkpt>
      <trkpt lat="42.26679" lon="24.54675">
        <ele>255.38838</ele>
        <time>2022-03-07T09:00:40.497Z</time>
      </trkpt>
      <trkpt lat="42.26668" lon="24.5467">
        <ele>255.250412</ele>
        <time>2022-03-07T09:00:43.480Z</time>
      </trkpt>
      <trkpt lat="42.26657" lon="24.54664">
        <ele>255.102848</ele>
        <time>2022-03-07T09:00:46.492Z</time>
      </trkpt>
      <trkpt lat="42.26647" lon="24.54657">
        <ele>254.955396</ele>
        <time>2022-03-07T09:00:49.511Z</time>
      </trkpt>
      <trkpt lat="42.26636" lon="24.5465">
        <ele>254.801296</ele>
        <time>2022-03-07T09:00:52.496Z</time>
      </trkpt>
      <trkpt lat="42.26624" lon="24.54643">
        <ele>254.637816</ele>
        <time>2022-03-07T09:00:55.483Z</time>
      </trkpt>
      <trkpt lat="42.26612" lon="24.54637">
        <ele>254.477689</ele>
        <time>2022-03-07T09:00:58.519Z</time>
      </trkpt>
      <trkpt lat="42.26603" lon="24.54631">
        <ele>254.346384</ele>
        <time>2022-03-07T09:01:01.495Z</time>
      </trkpt>
      <trkpt lat="42.26594" lon="24.54627">
        <ele>254.227152</ele>
        <time>2022-03-07T09:01:05.497Z</time>
      </trkpt>
      <trkpt lat="42.26585" lon="24.54623">
        <ele>254.110533</ele>
        <time>2022-03-07T09:01:08.500Z</time>
      </trkpt>
      <trkpt lat="42.26575" lon="24.54618">
        <ele>253.980867</ele>
        <time>2022-03-07T09:01:11.528Z</time>
      </trkpt>
      <trkpt lat="42.26566" lon="24.5461">
        <ele>253.848322</ele>
        <time>2022-03-07T09:01:14.494Z</time>
      </trkpt>
      <trkpt lat="42.26558" lon="24.54602">
        <ele>253.714727</ele>
        <time>2022-03-07T09:01:17.501Z</time>
      </trkpt>
      <trkpt lat="42.26548" lon="24.54595">
        <ele>253.576966</ele>
        <time>2022-03-07T09:01:20.485Z</time>
      </trkpt>
      <trkpt lat="42.26537" lon="24.54588">
        <ele>253.459859</ele>
        <time>2022-03-07T09:01:23.493Z</time>
      </trkpt>
      <trkpt lat="42.26526" lon="24.5458">
        <ele>253.498773</ele>
        <time>2022-03-07T09:01:26.491Z</time>
      </trkpt>
      <trkpt lat="42.26515" lon="24.54573">
        <ele>253.538904</ele>
        <time>2022-03-07T09:01:29.487Z</time>
      </trkpt>
      <trkpt lat="42.26503" lon="24.54564">
        <ele>253.581051</ele>
        <time>2022-03-07T09:01:32.511Z</time>
      </trkpt>
      <trkpt lat="42.26492" lon="24.54556">
        <ele>253.62067</ele>
        <time>2022-03-07T09:01:35.514Z</time>
      </trkpt>
      <trkpt lat="42.26481" lon="24.54548">
        <ele>253.658587</ele>
        <time>2022-03-07T09:01:38.494Z</time>
      </trkpt>
      <trkpt lat="42.2647" lon="24.5454">
        <ele>253.698153</ele>
        <time>2022-03-07T09:01:41.493Z</time>
      </trkpt>
      <trkpt lat="42.26459" lon="24.54532">
        <ele>253.737113</ele>
        <time>2022-03-07T09:01:44.528Z</time>
      </trkpt>
      <trkpt lat="42.26447" lon="24.54524">
        <ele>253.777348</ele>
        <time>2022-03-07T09:01:47.495Z</time>
      </trkpt>
      <trkpt lat="42.26436" lon="24.54515">
        <ele>253.816483</ele>
        <time>2022-03-07T09:01:50.493Z</time>
      </trkpt>
      <trkpt lat="42.26425" lon="24.54507">
        <ele>253.855503</ele>
        <time>2022-03-07T09:01:53.475Z</time>
      </trkpt>
      <trkpt lat="42.26416" lon="24.54498">
        <ele>253.892363</ele>
        <time>2022-03-07T09:01:56.498Z</time>
      </trkpt>
      <trkpt lat="42.26408" lon="24.54487">
        <ele>253.9284</ele>
        <time>2022-03-07T09:01:59.493Z</time>
      </trkpt>
      <trkpt lat="42.26399" lon="24.54476">
        <ele>253.965167</ele>
        <time>2022-03-07T09:02:02.506Z</time>
      </trkpt>
      <trkpt lat="42.2639" lon="24.54466">
        <ele>254.001395</ele>
        <time>2022-03-07T09:02:05.492Z</time>
      </trkpt>
      <trkpt lat="42.26383" lon="24.54454">
        <ele>253.938133</ele>
        <time>2022-03-07T09:02:08.498Z</time>
      </trkpt>
      <trkpt lat="42.26375" lon="24.54444">
        <ele>253.822673</ele>
        <time>2022-03-07T09:02:11.526Z</time>
      </trkpt>
      <trkpt lat="42.26365" lon="24.54434">
        <ele>253.694766</ele>
        <time>2022-03-07T09:02:14.485Z</time>
      </trkpt>
      <trkpt lat="42.26355" lon="24.54424">
        <ele>253.565532</ele>
        <time>2022-03-07T09:02:17.502Z</time>
      </trkpt>
      <trkpt lat="42.26346" lon="24.54412">
        <ele>253.434549</ele>
        <time>2022-03-07T09:02:20.500Z</time>
      </trkpt>
      <trkpt lat="42.26336" lon="24.544">
        <ele>253.296773</ele>
        <time>2022-03-07T09:02:23.491Z</time>
      </trkpt>
      <trkpt lat="42.26326" lon="24.54388">
        <ele>253.161301</ele>
        <time>2022-03-07T09:02:26.483Z</time>
      </trkpt>
      <trkpt lat="42.26317" lon="24.54376">
        <ele>253.025301</ele>
        <time>2022-03-07T09:02:29.494Z</time>
      </trkpt>
      <trkpt lat="42.2631" lon="24.54367">
        <ele>252.930523</ele>
        <time>2022-03-07T09:02:31.480Z</time>
      </trkpt>
      <trkpt lat="42.26303" lon="24.54359">
        <ele>252.833765</ele>
        <time>2022-03-07T09:02:33.484Z</time>
      </trkpt>
      <trkpt lat="42.26296" lon="24.54351">
        <ele>252.737503</ele>
        <time>2022-03-07T09:02:35.475Z</time>
      </trkpt>
      <trkpt lat="42.26286" lon="24.54339">
        <ele>252.599981</ele>
        <time>2022-03-07T09:02:38.499Z</time>
      </trkpt>
      <trkpt lat="42.26276" lon="24.54326">
        <ele>252.460593</ele>
        <time>2022-03-07T09:02:41.488Z</time>
      </trkpt>
      <trkpt lat="42.2627" lon="24.54318">
        <ele>252.366176</ele>
        <time>2022-03-07T09:02:43.494Z</time>
      </trkpt>
      <trkpt lat="42.2626" lon="24.54307">
        <ele>252.231924</ele>
        <time>2022-03-07T09:02:46.492Z</time>
      </trkpt>
      <trkpt lat="42.26251" lon="24.54296">
        <ele>252.105957</ele>
        <time>2022-03-07T09:02:49.485Z</time>
      </trkpt>
      <trkpt lat="42.26242" lon="24.54285">
        <ele>251.978106</ele>
        <time>2022-03-07T09:02:52.496Z</time>
      </trkpt>
      <trkpt lat="42.26233" lon="24.54274">
        <ele>251.853121</ele>
        <time>2022-03-07T09:02:55.492Z</time>
      </trkpt>
      <trkpt lat="42.26226" lon="24.54266">
        <ele>251.75546</ele>
        <time>2022-03-07T09:02:58.491Z</time>
      </trkpt>
      <trkpt lat="42.26217" lon="24.54256">
        <ele>251.633919</ele>
        <time>2022-03-07T09:03:02.481Z</time>
      </trkpt>
      <trkpt lat="42.2621" lon="24.54247">
        <ele>251.52757</ele>
        <time>2022-03-07T09:03:05.497Z</time>
      </trkpt>
      <trkpt lat="42.26202" lon="24.54236">
        <ele>251.40707</ele>
        <time>2022-03-07T09:03:08.494Z</time>
      </trkpt>
      <trkpt lat="42.26194" lon="24.54228">
        <ele>251.298043</ele>
        <time>2022-03-07T09:03:11.523Z</time>
      </trkpt>
      <trkpt lat="42.26186" lon="24.54218">
        <ele>251.18669</ele>
        <time>2022-03-07T09:03:15.486Z</time>
      </trkpt>
      <trkpt lat="42.26177" lon="24.54209">
        <ele>251.066592</ele>
        <time>2022-03-07T09:03:19.498Z</time>
      </trkpt>
      <trkpt lat="42.2617" lon="24.542">
        <ele>250.964996</ele>
        <time>2022-03-07T09:03:22.494Z</time>
      </trkpt>
      <trkpt lat="42.26162" lon="24.54192">
        <ele>250.862087</ele>
        <time>2022-03-07T09:03:25.488Z</time>
      </trkpt>
      <trkpt lat="42.26156" lon="24.54182">
        <ele>250.760086</ele>
        <time>2022-03-07T09:03:28.519Z</time>
      </trkpt>
      <trkpt lat="42.26148" lon="24.54174">
        <ele>250.656625</ele>
        <time>2022-03-07T09:03:31.495Z</time>
      </trkpt>
      <trkpt lat="42.26138" lon="24.54166">
        <ele>250.53526</ele>
        <time>2022-03-07T09:03:34.487Z</time>
      </trkpt>
      <trkpt lat="42.26127" lon="24.54159">
        <ele>250.400915</ele>
        <time>2022-03-07T09:03:37.477Z</time>
      </trkpt>
      <trkpt lat="42.26116" lon="24.54152">
        <ele>250.273966</ele>
        <time>2022-03-07T09:03:40.497Z</time>
      </trkpt>
      <trkpt lat="42.26104" lon="24.54147">
        <ele>250.602118</ele>
        <time>2022-03-07T09:03:43.496Z</time>
      </trkpt>
      <trkpt lat="42.26092" lon="24.54142">
        <ele>251.0663</ele>
        <time>2022-03-07T09:03:46.495Z</time>
      </trkpt>
      <trkpt lat="42.26079" lon="24.54138">
        <ele>251.540929</ele>
        <time>2022-03-07T09:03:49.490Z</time>
      </trkpt>
      <trkpt lat="42.26066" lon="24.54134">
        <ele>252.017217</ele>
        <time>2022-03-07T09:03:52.490Z</time>
      </trkpt>
      <trkpt lat="42.26054" lon="24.5413">
        <ele>252.482797</ele>
        <time>2022-03-07T09:03:55.491Z</time>
      </trkpt>
      <trkpt lat="42.26042" lon="24.54126">
        <ele>252.944019</ele>
        <time>2022-03-07T09:03:58.493Z</time>
      </trkpt>
      <trkpt lat="42.2603" lon="24.54122">
        <ele>253.367217</ele>
        <time>2022-03-07T09:04:01.519Z</time>
      </trkpt>
      <trkpt lat="42.26021" lon="24.54118">
        <ele>253.742562</ele>
        <time>2022-03-07T09:04:04.510Z</time>
      </trkpt>
      <trkpt lat="42.2601" lon="24.54112">
        <ele>254.154257</ele>
        <time>2022-03-07T09:04:07.491Z</time>
      </trkpt>
      <trkpt lat="42.26" lon="24.54107">
        <ele>254.561569</ele>
        <time>2022-03-07T09:04:10.479Z</time>
      </trkpt>
      <trkpt lat="42.25989" lon="24.54101">
        <ele>254.967503</ele>
        <time>2022-03-07T09:04:13.487Z</time>
      </trkpt>
      <trkpt lat="42.25979" lon="24.54094">
        <ele>255.381489</ele>
        <time>2022-03-07T09:04:16.492Z</time>
      </trkpt>
      <trkpt lat="42.25969" lon="24.54086">
        <ele>255.798095</ele>
        <time>2022-03-07T09:04:19.486Z</time>
      </trkpt>
      <trkpt lat="42.25959" lon="24.54078">
        <ele>256.236581</ele>
        <time>2022-03-07T09:04:22.478Z</time>
      </trkpt>
      <trkpt lat="42.25949" lon="24.54069">
        <ele>256.694604</ele>
        <time>2022-03-07T09:04:25.493Z</time>
      </trkpt>
      <trkpt lat="42.25939" lon="24.5406">
        <ele>256.825573</ele>
        <time>2022-03-07T09:04:28.475Z</time>
      </trkpt>
      <trkpt lat="42.25928" lon="24.54053">
        <ele>256.8563</ele>
        <time>2022-03-07T09:04:31.527Z</time>
      </trkpt>
      <trkpt lat="42.25918" lon="24.54045">
        <ele>256.88625</ele>
        <time>2022-03-07T09:04:34.520Z</time>
      </trkpt>
      <trkpt lat="42.25909" lon="24.54037">
        <ele>256.915031</ele>
        <time>2022-03-07T09:04:37.484Z</time>
      </trkpt>
      <trkpt lat="42.25899" lon="24.54027">
        <ele>256.945201</ele>
        <time>2022-03-07T09:04:40.525Z</time>
      </trkpt>
      <trkpt lat="42.25891" lon="24.54019">
        <ele>256.972102</ele>
        <time>2022-03-07T09:04:43.482Z</time>
      </trkpt>
      <trkpt lat="42.25883" lon="24.54012">
        <ele>256.996472</ele>
        <time>2022-03-07T09:04:46.523Z</time>
      </trkpt>
      <trkpt lat="42.25873" lon="24.54005">
        <ele>257.023985</ele>
        <time>2022-03-07T09:04:49.477Z</time>
      </trkpt>
      <trkpt lat="42.25863" lon="24.53997">
        <ele>257.054486</ele>
        <time>2022-03-07T09:04:52.536Z</time>
      </trkpt>
      <trkpt lat="42.25853" lon="24.53988">
        <ele>257.084122</ele>
        <time>2022-03-07T09:04:55.486Z</time>
      </trkpt>
      <trkpt lat="42.25842" lon="24.5398">
        <ele>257.116145</ele>
        <time>2022-03-07T09:04:58.484Z</time>
      </trkpt>
      <trkpt lat="42.25832" lon="24.53973">
        <ele>257.146412</ele>
        <time>2022-03-07T09:05:01.489Z</time>
      </trkpt>
      <trkpt lat="42.25822" lon="24.53964">
        <ele>257.176595</ele>
        <time>2022-03-07T09:05:04.494Z</time>
      </trkpt>
      <trkpt lat="42.25813" lon="24.53955">
        <ele>257.206018</ele>
        <time>2022-03-07T09:05:07.513Z</time>
      </trkpt>
      <trkpt lat="42.25803" lon="24.53946">
        <ele>257.236633</ele>
        <time>2022-03-07T09:05:10.490Z</time>
      </trkpt>
      <trkpt lat="42.25793" lon="24.53936">
        <ele>257.194865</ele>
        <time>2022-03-07T09:05:13.481Z</time>
      </trkpt>
      <trkpt lat="42.25784" lon="24.53927">
        <ele>256.345287</ele>
        <time>2022-03-07T09:05:16.494Z</time>
      </trkpt>
      <trkpt lat="42.25774" lon="24.53917">
        <ele>255.443437</ele>
        <time>2022-03-07T09:05:19.483Z</time>
      </trkpt>
      <trkpt lat="42.25764" lon="24.53907">
        <ele>254.499142</ele>
        <time>2022-03-07T09:05:22.487Z</time>
      </trkpt>
      <trkpt lat="42.25753" lon="24.53899">
        <ele>253.604606</ele>
        <time>2022-03-07T09:05:25.486Z</time>
      </trkpt>
      <trkpt lat="42.25744" lon="24.53894">
        <ele>252.871127</ele>
        <time>2022-03-07T09:05:28.484Z</time>
      </trkpt>
      <trkpt lat="42.25734" lon="24.53888">
        <ele>252.037026</ele>
        <time>2022-03-07T09:05:32.490Z</time>
      </trkpt>
      <trkpt lat="42.25725" lon="24.53879">
        <ele>251.22794</ele>
        <time>2022-03-07T09:05:35.505Z</time>
      </trkpt>
      <trkpt lat="42.25718" lon="24.53866">
        <ele>250.381047</ele>
        <time>2022-03-07T09:05:38.506Z</time>
      </trkpt>
      <trkpt lat="42.25712" lon="24.53852">
        <ele>249.472553</ele>
        <time>2022-03-07T09:05:41.541Z</time>
      </trkpt>
      <trkpt lat="42.25707" lon="24.53837">
        <ele>248.559504</ele>
        <time>2022-03-07T09:05:44.488Z</time>
      </trkpt>
      <trkpt lat="42.25702" lon="24.53822">
        <ele>247.680314</ele>
        <time>2022-03-07T09:05:47.487Z</time>
      </trkpt>
      <trkpt lat="42.25696" lon="24.53807">
        <ele>246.7495</ele>
        <time>2022-03-07T09:05:50.491Z</time>
      </trkpt>
      <trkpt lat="42.2569" lon="24.53792">
        <ele>245.844906</ele>
        <time>2022-03-07T09:05:53.488Z</time>
      </trkpt>
      <trkpt lat="42.25685" lon="24.53778">
        <ele>244.965297</ele>
        <time>2022-03-07T09:05:56.498Z</time>
      </trkpt>
      <trkpt lat="42.25681" lon="24.53763">
        <ele>244.097315</ele>
        <time>2022-03-07T09:05:59.511Z</time>
      </trkpt>
      <trkpt lat="42.25676" lon="24.53748">
        <ele>244.046182</ele>
        <time>2022-03-07T09:06:02.505Z</time>
      </trkpt>
      <trkpt lat="42.25671" lon="24.53734">
        <ele>244.098131</ele>
        <time>2022-03-07T09:06:05.492Z</time>
      </trkpt>
      <trkpt lat="42.25666" lon="24.53719">
        <ele>244.152579</ele>
        <time>2022-03-07T09:06:08.493Z</time>
      </trkpt>
      <trkpt lat="42.25662" lon="24.53703">
        <ele>244.207623</ele>
        <time>2022-03-07T09:06:11.501Z</time>
      </trkpt>
      <trkpt lat="42.25658" lon="24.53688">
        <ele>244.263907</ele>
        <time>2022-03-07T09:06:14.478Z</time>
      </trkpt>
      <trkpt lat="42.25653" lon="24.53671">
        <ele>244.322837</ele>
        <time>2022-03-07T09:06:17.486Z</time>
      </trkpt>
      <trkpt lat="42.25648" lon="24.53655">
        <ele>244.379605</ele>
        <time>2022-03-07T09:06:20.522Z</time>
      </trkpt>
      <trkpt lat="42.25643" lon="24.5364">
        <ele>244.436301</ele>
        <time>2022-03-07T09:06:23.492Z</time>
      </trkpt>
      <trkpt lat="42.25637" lon="24.53625">
        <ele>244.491522</ele>
        <time>2022-03-07T09:06:26.497Z</time>
      </trkpt>
      <trkpt lat="42.25632" lon="24.53609">
        <ele>244.548135</ele>
        <time>2022-03-07T09:06:29.490Z</time>
      </trkpt>
      <trkpt lat="42.25627" lon="24.53594">
        <ele>244.604259</ele>
        <time>2022-03-07T09:06:32.470Z</time>
      </trkpt>
      <trkpt lat="42.25622" lon="24.53578">
        <ele>244.66072</ele>
        <time>2022-03-07T09:06:35.491Z</time>
      </trkpt>
      <trkpt lat="42.25618" lon="24.53563">
        <ele>244.714985</ele>
        <time>2022-03-07T09:06:38.506Z</time>
      </trkpt>
      <trkpt lat="42.25613" lon="24.53547">
        <ele>244.770664</ele>
        <time>2022-03-07T09:06:41.502Z</time>
      </trkpt>
      <trkpt lat="42.25608" lon="24.53531">
        <ele>244.869754</ele>
        <time>2022-03-07T09:06:44.471Z</time>
      </trkpt>
      <trkpt lat="42.25604" lon="24.53516">
        <ele>245.034188</ele>
        <time>2022-03-07T09:06:47.503Z</time>
      </trkpt>
      <trkpt lat="42.25598" lon="24.535">
        <ele>245.206413</ele>
        <time>2022-03-07T09:06:50.488Z</time>
      </trkpt>
      <trkpt lat="42.25593" lon="24.53484">
        <ele>245.373146</ele>
        <time>2022-03-07T09:06:53.535Z</time>
      </trkpt>
      <trkpt lat="42.25589" lon="24.53468">
        <ele>245.537969</ele>
        <time>2022-03-07T09:06:56.499Z</time>
      </trkpt>
      <trkpt lat="42.25584" lon="24.53452">
        <ele>245.701397</ele>
        <time>2022-03-07T09:06:59.484Z</time>
      </trkpt>
      <trkpt lat="42.25579" lon="24.53437">
        <ele>245.860341</ele>
        <time>2022-03-07T09:07:02.492Z</time>
      </trkpt>
      <trkpt lat="42.25574" lon="24.53423">
        <ele>246.021032</ele>
        <time>2022-03-07T09:07:05.508Z</time>
      </trkpt>
      <trkpt lat="42.25568" lon="24.53407">
        <ele>246.186649</ele>
        <time>2022-03-07T09:07:08.495Z</time>
      </trkpt>
      <trkpt lat="42.25562" lon="24.53391">
        <ele>246.358072</ele>
        <time>2022-03-07T09:07:11.476Z</time>
      </trkpt>
      <trkpt lat="42.25557" lon="24.53375">
        <ele>246.52878</ele>
        <time>2022-03-07T09:07:14.498Z</time>
      </trkpt>
      <trkpt lat="42.25553" lon="24.53359">
        <ele>246.692142</ele>
        <time>2022-03-07T09:07:17.495Z</time>
      </trkpt>
      <trkpt lat="42.25548" lon="24.53344">
        <ele>246.854299</ele>
        <time>2022-03-07T09:07:20.483Z</time>
      </trkpt>
      <trkpt lat="42.25542" lon="24.5333">
        <ele>247.010934</ele>
        <time>2022-03-07T09:07:23.501Z</time>
      </trkpt>
      <trkpt lat="42.25537" lon="24.53315">
        <ele>247.164298</ele>
        <time>2022-03-07T09:07:26.502Z</time>
      </trkpt>
      <trkpt lat="42.25532" lon="24.53299">
        <ele>247.196572</ele>
        <time>2022-03-07T09:07:29.486Z</time>
      </trkpt>
      <trkpt lat="42.25527" lon="24.53284">
        <ele>247.228463</ele>
        <time>2022-03-07T09:07:32.553Z</time>
      </trkpt>
      <trkpt lat="42.25522" lon="24.5327">
        <ele>247.259054</ele>
        <time>2022-03-07T09:07:35.499Z</time>
      </trkpt>
      <trkpt lat="42.25517" lon="24.53255">
        <ele>247.290207</ele>
        <time>2022-03-07T09:07:38.481Z</time>
      </trkpt>
      <trkpt lat="42.25512" lon="24.5324">
        <ele>247.321359</ele>
        <time>2022-03-07T09:07:41.498Z</time>
      </trkpt>
      <trkpt lat="42.25507" lon="24.53225">
        <ele>247.351951</ele>
        <time>2022-03-07T09:07:44.480Z</time>
      </trkpt>
      <trkpt lat="42.25503" lon="24.53211">
        <ele>247.38204</ele>
        <time>2022-03-07T09:07:47.487Z</time>
      </trkpt>
      <trkpt lat="42.25498" lon="24.53196">
        <ele>247.413891</ele>
        <time>2022-03-07T09:07:50.499Z</time>
      </trkpt>
      <trkpt lat="42.25493" lon="24.5318">
        <ele>247.446898</ele>
        <time>2022-03-07T09:07:53.507Z</time>
      </trkpt>
      <trkpt lat="42.25488" lon="24.53164">
        <ele>247.479683</ele>
        <time>2022-03-07T09:07:56.478Z</time>
      </trkpt>
      <trkpt lat="42.25483" lon="24.53148">
        <ele>247.511743</ele>
        <time>2022-03-07T09:07:59.493Z</time>
      </trkpt>
      <trkpt lat="42.25479" lon="24.53133">
        <ele>247.543842</ele>
        <time>2022-03-07T09:08:02.490Z</time>
      </trkpt>
      <trkpt lat="42.25474" lon="24.53118">
        <ele>247.575033</ele>
        <time>2022-03-07T09:08:05.511Z</time>
      </trkpt>
      <trkpt lat="42.25468" lon="24.53102">
        <ele>247.608358</ele>
        <time>2022-03-07T09:08:08.499Z</time>
      </trkpt>
      <trkpt lat="42.25463" lon="24.53086">
        <ele>247.658196</ele>
        <time>2022-03-07T09:08:11.534Z</time>
      </trkpt>
      <trkpt lat="42.25458" lon="24.53071">
        <ele>247.724801</ele>
        <time>2022-03-07T09:08:14.495Z</time>
      </trkpt>
      <trkpt lat="42.25453" lon="24.53055">
        <ele>247.789457</ele>
        <time>2022-03-07T09:08:17.530Z</time>
      </trkpt>
      <trkpt lat="42.25448" lon="24.53041">
        <ele>247.852335</ele>
        <time>2022-03-07T09:08:20.490Z</time>
      </trkpt>
      <trkpt lat="42.25443" lon="24.53026">
        <ele>247.91642</ele>
        <time>2022-03-07T09:08:23.506Z</time>
      </trkpt>
      <trkpt lat="42.25438" lon="24.5301">
        <ele>247.982298</ele>
        <time>2022-03-07T09:08:26.530Z</time>
      </trkpt>
      <trkpt lat="42.25433" lon="24.52995">
        <ele>248.047184</ele>
        <time>2022-03-07T09:08:29.492Z</time>
      </trkpt>
      <trkpt lat="42.25428" lon="24.5298">
        <ele>248.112555</ele>
        <time>2022-03-07T09:08:32.496Z</time>
      </trkpt>
      <trkpt lat="42.25424" lon="24.52964">
        <ele>248.178725</ele>
        <time>2022-03-07T09:08:35.496Z</time>
      </trkpt>
      <trkpt lat="42.25418" lon="24.52948">
        <ele>248.247102</ele>
        <time>2022-03-07T09:08:38.496Z</time>
      </trkpt>
      <trkpt lat="42.25413" lon="24.52933">
        <ele>248.312422</ele>
        <time>2022-03-07T09:08:41.501Z</time>
      </trkpt>
      <trkpt lat="42.25408" lon="24.52918">
        <ele>248.376941</ele>
        <time>2022-03-07T09:08:44.488Z</time>
      </trkpt>
      <trkpt lat="42.25403" lon="24.52903">
        <ele>248.440623</ele>
        <time>2022-03-07T09:08:47.497Z</time>
      </trkpt>
      <trkpt lat="42.25398" lon="24.52888">
        <ele>248.50537</ele>
        <time>2022-03-07T09:08:50.485Z</time>
      </trkpt>
      <trkpt lat="42.25394" lon="24.52872">
        <ele>248.571369</ele>
        <time>2022-03-07T09:08:53.492Z</time>
      </trkpt>
      <trkpt lat="42.25389" lon="24.52857">
        <ele>248.836784</ele>
        <time>2022-03-07T09:08:56.503Z</time>
      </trkpt>
      <trkpt lat="42.25384" lon="24.52842">
        <ele>249.106592</ele>
        <time>2022-03-07T09:08:59.496Z</time>
      </trkpt>
      <trkpt lat="42.25378" lon="24.52828">
        <ele>249.380008</ele>
        <time>2022-03-07T09:09:02.503Z</time>
      </trkpt>
      <trkpt lat="42.25373" lon="24.52813">
        <ele>249.668648</ele>
        <time>2022-03-07T09:09:05.490Z</time>
      </trkpt>
      <trkpt lat="42.25368" lon="24.52798">
        <ele>249.953975</ele>
        <time>2022-03-07T09:09:08.546Z</time>
      </trkpt>
      <trkpt lat="42.25363" lon="24.52783">
        <ele>250.224357</ele>
        <time>2022-03-07T09:09:11.493Z</time>
      </trkpt>
      <trkpt lat="42.25358" lon="24.52769">
        <ele>250.492089</ele>
        <time>2022-03-07T09:09:14.478Z</time>
      </trkpt>
      <trkpt lat="42.25353" lon="24.52755">
        <ele>250.758289</ele>
        <time>2022-03-07T09:09:17.494Z</time>
      </trkpt>
      <trkpt lat="42.25348" lon="24.5274">
        <ele>251.031122</ele>
        <time>2022-03-07T09:09:20.499Z</time>
      </trkpt>
      <trkpt lat="42.25344" lon="24.52726">
        <ele>251.301635</ele>
        <time>2022-03-07T09:09:23.481Z</time>
      </trkpt>
      <trkpt lat="42.2534" lon="24.5271">
        <ele>251.57765</ele>
        <time>2022-03-07T09:09:26.489Z</time>
      </trkpt>
      <trkpt lat="42.25336" lon="24.52695">
        <ele>251.849222</ele>
        <time>2022-03-07T09:09:29.497Z</time>
      </trkpt>
      <trkpt lat="42.25333" lon="24.5268">
        <ele>252.112059</ele>
        <time>2022-03-07T09:09:32.487Z</time>
      </trkpt>
      <trkpt lat="42.2533" lon="24.52666">
        <ele>252.368303</ele>
        <time>2022-03-07T09:09:35.515Z</time>
      </trkpt>
      <trkpt lat="42.25328" lon="24.52651">
        <ele>252.624488</ele>
        <time>2022-03-07T09:09:38.510Z</time>
      </trkpt>
      <trkpt lat="42.25326" lon="24.52636">
        <ele>252.862641</ele>
        <time>2022-03-07T09:09:41.511Z</time>
      </trkpt>
      <trkpt lat="42.25326" lon="24.52619">
        <ele>253.087606</ele>
        <time>2022-03-07T09:09:44.492Z</time>
      </trkpt>
      <trkpt lat="42.25324" lon="24.52603">
        <ele>253.315941</ele>
        <time>2022-03-07T09:09:47.495Z</time>
      </trkpt>
      <trkpt lat="42.25323" lon="24.52587">
        <ele>253.544454</ele>
        <time>2022-03-07T09:09:50.491Z</time>
      </trkpt>
      <trkpt lat="42.25322" lon="24.52571">
        <ele>253.7702</ele>
        <time>2022-03-07T09:09:53.498Z</time>
      </trkpt>
      <trkpt lat="42.25321" lon="24.52554">
        <ele>253.997492</ele>
        <time>2022-03-07T09:09:56.478Z</time>
      </trkpt>
      <trkpt lat="42.2532" lon="24.52538">
        <ele>254.225859</ele>
        <time>2022-03-07T09:09:59.493Z</time>
      </trkpt>
      <trkpt lat="42.2532" lon="24.52522">
        <ele>254.448245</ele>
        <time>2022-03-07T09:10:02.485Z</time>
      </trkpt>
      <trkpt lat="42.25318" lon="24.52505">
        <ele>254.683015</ele>
        <time>2022-03-07T09:10:05.493Z</time>
      </trkpt>
      <trkpt lat="42.25317" lon="24.52489">
        <ele>254.904324</ele>
        <time>2022-03-07T09:10:08.499Z</time>
      </trkpt>
      <trkpt lat="42.25316" lon="24.52473">
        <ele>255.124154</ele>
        <time>2022-03-07T09:10:11.485Z</time>
      </trkpt>
      <trkpt lat="42.25315" lon="24.52457">
        <ele>255.353906</ele>
        <time>2022-03-07T09:10:14.485Z</time>
      </trkpt>
      <trkpt lat="42.25314" lon="24.52441">
        <ele>255.576482</ele>
        <time>2022-03-07T09:10:17.509Z</time>
      </trkpt>
      <trkpt lat="42.25313" lon="24.52424">
        <ele>255.810389</ele>
        <time>2022-03-07T09:10:20.523Z</time>
      </trkpt>
      <trkpt lat="42.25312" lon="24.52408">
        <ele>256.036477</ele>
        <time>2022-03-07T09:10:23.494Z</time>
      </trkpt>
      <trkpt lat="42.2531" lon="24.52391">
        <ele>255.836343</ele>
        <time>2022-03-07T09:10:26.512Z</time>
      </trkpt>
      <trkpt lat="42.25309" lon="24.52374">
        <ele>255.481397</ele>
        <time>2022-03-07T09:10:29.496Z</time>
      </trkpt>
      <trkpt lat="42.25308" lon="24.52356">
        <ele>255.132057</ele>
        <time>2022-03-07T09:10:32.483Z</time>
      </trkpt>
      <trkpt lat="42.25307" lon="24.5234">
        <ele>254.795357</ele>
        <time>2022-03-07T09:10:35.509Z</time>
      </trkpt>
      <trkpt lat="42.25306" lon="24.52323">
        <ele>254.455562</ele>
        <time>2022-03-07T09:10:38.497Z</time>
      </trkpt>
      <trkpt lat="42.25305" lon="24.52306">
        <ele>254.10725</ele>
        <time>2022-03-07T09:10:41.485Z</time>
      </trkpt>
      <trkpt lat="42.25304" lon="24.52289">
        <ele>253.756563</ele>
        <time>2022-03-07T09:10:44.499Z</time>
      </trkpt>
      <trkpt lat="42.25303" lon="24.52272">
        <ele>253.405199</ele>
        <time>2022-03-07T09:10:47.494Z</time>
      </trkpt>
      <trkpt lat="42.25302" lon="24.52255">
        <ele>253.058918</ele>
        <time>2022-03-07T09:10:50.490Z</time>
      </trkpt>
      <trkpt lat="42.25301" lon="24.52238">
        <ele>252.72019</ele>
        <time>2022-03-07T09:10:53.502Z</time>
      </trkpt>
      <trkpt lat="42.25299" lon="24.52222">
        <ele>252.389034</ele>
        <time>2022-03-07T09:10:56.492Z</time>
      </trkpt>
      <trkpt lat="42.25298" lon="24.52206">
        <ele>252.059339</ele>
        <time>2022-03-07T09:10:59.505Z</time>
      </trkpt>
      <trkpt lat="42.25298" lon="24.5219">
        <ele>251.72575</ele>
        <time>2022-03-07T09:11:02.499Z</time>
      </trkpt>
      <trkpt lat="42.25298" lon="24.52174">
        <ele>251.398204</ele>
        <time>2022-03-07T09:11:05.521Z</time>
      </trkpt>
      <trkpt lat="42.25297" lon="24.52157">
        <ele>251.027403</ele>
        <time>2022-03-07T09:11:08.483Z</time>
      </trkpt>
      <trkpt lat="42.25295" lon="24.5214">
        <ele>250.578511</ele>
        <time>2022-03-07T09:11:11.502Z</time>
      </trkpt>
      <trkpt lat="42.25294" lon="24.52122">
        <ele>250.107868</ele>
        <time>2022-03-07T09:11:14.485Z</time>
      </trkpt>
      <trkpt lat="42.25293" lon="24.52105">
        <ele>249.642286</ele>
        <time>2022-03-07T09:11:17.483Z</time>
      </trkpt>
      <trkpt lat="42.25292" lon="24.52088">
        <ele>249.189897</ele>
        <time>2022-03-07T09:11:20.489Z</time>
      </trkpt>
      <trkpt lat="42.2529" lon="24.52072">
        <ele>248.752359</ele>
        <time>2022-03-07T09:11:23.489Z</time>
      </trkpt>
      <trkpt lat="42.25289" lon="24.52056">
        <ele>248.332866</ele>
        <time>2022-03-07T09:11:26.496Z</time>
      </trkpt>
      <trkpt lat="42.25288" lon="24.5204">
        <ele>247.923071</ele>
        <time>2022-03-07T09:11:29.490Z</time>
      </trkpt>
      <trkpt lat="42.25287" lon="24.52024">
        <ele>247.492117</ele>
        <time>2022-03-07T09:11:32.486Z</time>
      </trkpt>
      <trkpt lat="42.25286" lon="24.52008">
        <ele>247.060567</ele>
        <time>2022-03-07T09:11:35.506Z</time>
      </trkpt>
      <trkpt lat="42.25285" lon="24.51991">
        <ele>246.618449</ele>
        <time>2022-03-07T09:11:38.534Z</time>
      </trkpt>
      <trkpt lat="42.25283" lon="24.51975">
        <ele>246.180089</ele>
        <time>2022-03-07T09:11:41.490Z</time>
      </trkpt>
      <trkpt lat="42.25283" lon="24.51958">
        <ele>245.728424</ele>
        <time>2022-03-07T09:11:44.489Z</time>
      </trkpt>
      <trkpt lat="42.25282" lon="24.51941">
        <ele>245.281596</ele>
        <time>2022-03-07T09:11:47.495Z</time>
      </trkpt>
      <trkpt lat="42.25281" lon="24.51924">
        <ele>244.82683</ele>
        <time>2022-03-07T09:11:50.496Z</time>
      </trkpt>
      <trkpt lat="42.2528" lon="24.51907">
        <ele>244.91322</ele>
        <time>2022-03-07T09:11:53.507Z</time>
      </trkpt>
      <trkpt lat="42.25279" lon="24.5189">
        <ele>245.188498</ele>
        <time>2022-03-07T09:11:56.496Z</time>
      </trkpt>
      <trkpt lat="42.25278" lon="24.51874">
        <ele>245.458722</ele>
        <time>2022-03-07T09:11:59.486Z</time>
      </trkpt>
      <trkpt lat="42.25278" lon="24.51857">
        <ele>245.730171</ele>
        <time>2022-03-07T09:12:02.492Z</time>
      </trkpt>
      <trkpt lat="42.25277" lon="24.51841">
        <ele>245.998358</ele>
        <time>2022-03-07T09:12:05.522Z</time>
      </trkpt>
      <trkpt lat="42.25276" lon="24.51825">
        <ele>246.261651</ele>
        <time>2022-03-07T09:12:08.487Z</time>
      </trkpt>
      <trkpt lat="42.25276" lon="24.51808">
        <ele>246.542889</ele>
        <time>2022-03-07T09:12:11.524Z</time>
      </trkpt>
      <trkpt lat="42.25275" lon="24.51791">
        <ele>246.823052</ele>
        <time>2022-03-07T09:12:14.487Z</time>
      </trkpt>
      <trkpt lat="42.25274" lon="24.51774">
        <ele>247.098517</ele>
        <time>2022-03-07T09:12:17.532Z</time>
      </trkpt>
      <trkpt lat="42.25273" lon="24.51758">
        <ele>247.357519</ele>
        <time>2022-03-07T09:12:20.502Z</time>
      </trkpt>
      <trkpt lat="42.25272" lon="24.51742">
        <ele>247.616342</ele>
        <time>2022-03-07T09:12:23.495Z</time>
      </trkpt>
      <trkpt lat="42.25271" lon="24.51726">
        <ele>247.881524</ele>
        <time>2022-03-07T09:12:26.477Z</time>
      </trkpt>
      <trkpt lat="42.2527" lon="24.5171">
        <ele>248.150689</ele>
        <time>2022-03-07T09:12:29.508Z</time>
      </trkpt>
      <trkpt lat="42.25269" lon="24.51693">
        <ele>248.423106</ele>
        <time>2022-03-07T09:12:32.510Z</time>
      </trkpt>
      <trkpt lat="42.25267" lon="24.51676">
        <ele>248.688912</ele>
        <time>2022-03-07T09:12:35.482Z</time>
      </trkpt>
      <trkpt lat="42.25267" lon="24.5166">
        <ele>248.844241</ele>
        <time>2022-03-07T09:12:38.499Z</time>
      </trkpt>
      <trkpt lat="42.25266" lon="24.51644">
        <ele>248.998391</ele>
        <time>2022-03-07T09:12:41.500Z</time>
      </trkpt>
      <trkpt lat="42.25265" lon="24.51627">
        <ele>249.153553</ele>
        <time>2022-03-07T09:12:44.495Z</time>
      </trkpt>
      <trkpt lat="42.25264" lon="24.51611">
        <ele>249.308793</ele>
        <time>2022-03-07T09:12:47.486Z</time>
      </trkpt>
      <trkpt lat="42.25263" lon="24.51594">
        <ele>249.463392</ele>
        <time>2022-03-07T09:12:50.547Z</time>
      </trkpt>
      <trkpt lat="42.25262" lon="24.51578">
        <ele>249.618931</ele>
        <time>2022-03-07T09:12:53.490Z</time>
      </trkpt>
      <trkpt lat="42.25261" lon="24.51562">
        <ele>249.773318</ele>
        <time>2022-03-07T09:12:56.481Z</time>
      </trkpt>
      <trkpt lat="42.2526" lon="24.51545">
        <ele>249.928038</ele>
        <time>2022-03-07T09:12:59.488Z</time>
      </trkpt>
      <trkpt lat="42.25259" lon="24.51529">
        <ele>250.086399</ele>
        <time>2022-03-07T09:13:02.493Z</time>
      </trkpt>
      <trkpt lat="42.25258" lon="24.51512">
        <ele>250.244467</ele>
        <time>2022-03-07T09:13:05.497Z</time>
      </trkpt>
      <trkpt lat="42.25257" lon="24.51495">
        <ele>250.402623</ele>
        <time>2022-03-07T09:13:08.482Z</time>
      </trkpt>
      <trkpt lat="42.25256" lon="24.51479">
        <ele>250.560876</ele>
        <time>2022-03-07T09:13:11.503Z</time>
      </trkpt>
      <trkpt lat="42.25255" lon="24.51461">
        <ele>250.724057</ele>
        <time>2022-03-07T09:13:14.479Z</time>
      </trkpt>
      <trkpt lat="42.25254" lon="24.51445">
        <ele>250.884544</ele>
        <time>2022-03-07T09:13:17.490Z</time>
      </trkpt>
      <trkpt lat="42.25254" lon="24.51428">
        <ele>250.991596</ele>
        <time>2022-03-07T09:13:20.487Z</time>
      </trkpt>
      <trkpt lat="42.25252" lon="24.51411">
        <ele>251.032552</ele>
        <time>2022-03-07T09:13:23.512Z</time>
      </trkpt>
      <trkpt lat="42.25252" lon="24.51394">
        <ele>251.073379</ele>
        <time>2022-03-07T09:13:26.479Z</time>
      </trkpt>
      <trkpt lat="42.25251" lon="24.51378">
        <ele>251.114717</ele>
        <time>2022-03-07T09:13:29.501Z</time>
      </trkpt>
      <trkpt lat="42.2525" lon="24.51361">
        <ele>251.155183</ele>
        <time>2022-03-07T09:13:32.515Z</time>
      </trkpt>
      <trkpt lat="42.25249" lon="24.51345">
        <ele>251.194806</ele>
        <time>2022-03-07T09:13:35.509Z</time>
      </trkpt>
      <trkpt lat="42.25248" lon="24.5133">
        <ele>251.231054</ele>
        <time>2022-03-07T09:13:38.499Z</time>
      </trkpt>
      <trkpt lat="42.25247" lon="24.51314">
        <ele>251.2707</ele>
        <time>2022-03-07T09:13:41.514Z</time>
      </trkpt>
      <trkpt lat="42.25246" lon="24.51296">
        <ele>251.314805</ele>
        <time>2022-03-07T09:13:44.501Z</time>
      </trkpt>
      <trkpt lat="42.25245" lon="24.51279">
        <ele>251.356632</ele>
        <time>2022-03-07T09:13:47.494Z</time>
      </trkpt>
      <trkpt lat="42.25244" lon="24.51263">
        <ele>251.398291</ele>
        <time>2022-03-07T09:13:50.514Z</time>
      </trkpt>
      <trkpt lat="42.25243" lon="24.51246">
        <ele>251.439873</ele>
        <time>2022-03-07T09:13:53.501Z</time>
      </trkpt>
      <trkpt lat="42.25242" lon="24.51228">
        <ele>251.482172</ele>
        <time>2022-03-07T09:13:56.478Z</time>
      </trkpt>
      <trkpt lat="42.25241" lon="24.51212">
        <ele>251.522394</ele>
        <time>2022-03-07T09:13:59.506Z</time>
      </trkpt>
      <trkpt lat="42.2524" lon="24.51196">
        <ele>251.562483</ele>
        <time>2022-03-07T09:14:02.499Z</time>
      </trkpt>
      <trkpt lat="42.25239" lon="24.51179">
        <ele>251.351876</ele>
        <time>2022-03-07T09:14:05.502Z</time>
      </trkpt>
      <trkpt lat="42.25238" lon="24.51162">
        <ele>251.085553</ele>
        <time>2022-03-07T09:14:08.499Z</time>
      </trkpt>
      <trkpt lat="42.25237" lon="24.51145">
        <ele>250.832048</ele>
        <time>2022-03-07T09:14:11.522Z</time>
      </trkpt>
      <trkpt lat="42.25236" lon="24.51129">
        <ele>250.589034</ele>
        <time>2022-03-07T09:14:14.477Z</time>
      </trkpt>
      <trkpt lat="42.25235" lon="24.51113">
        <ele>250.334532</ele>
        <time>2022-03-07T09:14:17.540Z</time>
      </trkpt>
      <trkpt lat="42.25234" lon="24.51096">
        <ele>250.074034</ele>
        <time>2022-03-07T09:14:20.517Z</time>
      </trkpt>
      <trkpt lat="42.25233" lon="24.51079">
        <ele>249.813972</ele>
        <time>2022-03-07T09:14:23.481Z</time>
      </trkpt>
      <trkpt lat="42.25232" lon="24.51062">
        <ele>249.553002</ele>
        <time>2022-03-07T09:14:26.500Z</time>
      </trkpt>
      <trkpt lat="42.25231" lon="24.51045">
        <ele>249.289663</ele>
        <time>2022-03-07T09:14:29.486Z</time>
      </trkpt>
      <trkpt lat="42.2523" lon="24.51029">
        <ele>249.034006</ele>
        <time>2022-03-07T09:14:32.492Z</time>
      </trkpt>
      <trkpt lat="42.2523" lon="24.51012">
        <ele>248.77797</ele>
        <time>2022-03-07T09:14:35.486Z</time>
      </trkpt>
      <trkpt lat="42.25229" lon="24.50996">
        <ele>248.529751</ele>
        <time>2022-03-07T09:14:38.499Z</time>
      </trkpt>
      <trkpt lat="42.25228" lon="24.50979">
        <ele>248.267421</ele>
        <time>2022-03-07T09:14:41.497Z</time>
      </trkpt>
      <trkpt lat="42.25227" lon="24.50963">
        <ele>248.020423</ele>
        <time>2022-03-07T09:14:44.487Z</time>
      </trkpt>
      <trkpt lat="42.25226" lon="24.50947">
        <ele>247.838483</ele>
        <time>2022-03-07T09:14:47.501Z</time>
      </trkpt>
      <trkpt lat="42.25225" lon="24.5093">
        <ele>247.867271</ele>
        <time>2022-03-07T09:14:50.524Z</time>
      </trkpt>
      <trkpt lat="42.25224" lon="24.50912">
        <ele>247.896346</ele>
        <time>2022-03-07T09:14:53.495Z</time>
      </trkpt>
      <trkpt lat="42.25223" lon="24.50895">
        <ele>247.92536</ele>
        <time>2022-03-07T09:14:56.494Z</time>
      </trkpt>
      <trkpt lat="42.25222" lon="24.50877">
        <ele>247.95454</ele>
        <time>2022-03-07T09:14:59.492Z</time>
      </trkpt>
      <trkpt lat="42.2522" lon="24.50861">
        <ele>247.982535</ele>
        <time>2022-03-07T09:15:02.504Z</time>
      </trkpt>
      <trkpt lat="42.2522" lon="24.50844">
        <ele>248.010444</ele>
        <time>2022-03-07T09:15:05.490Z</time>
      </trkpt>
      <trkpt lat="42.25219" lon="24.50827">
        <ele>248.038716</ele>
        <time>2022-03-07T09:15:08.507Z</time>
      </trkpt>
      <trkpt lat="42.25218" lon="24.5081">
        <ele>248.067004</ele>
        <time>2022-03-07T09:15:11.498Z</time>
      </trkpt>
      <trkpt lat="42.25217" lon="24.50793">
        <ele>248.096308</ele>
        <time>2022-03-07T09:15:14.486Z</time>
      </trkpt>
      <trkpt lat="42.25215" lon="24.50775">
        <ele>248.125322</ele>
        <time>2022-03-07T09:15:17.544Z</time>
      </trkpt>
      <trkpt lat="42.25215" lon="24.50758">
        <ele>248.154093</ele>
        <time>2022-03-07T09:15:20.491Z</time>
      </trkpt>
      <trkpt lat="42.25214" lon="24.50741">
        <ele>248.18288</ele>
        <time>2022-03-07T09:15:23.486Z</time>
      </trkpt>
      <trkpt lat="42.25212" lon="24.50724">
        <ele>248.211728</ele>
        <time>2022-03-07T09:15:26.492Z</time>
      </trkpt>
      <trkpt lat="42.25211" lon="24.50708">
        <ele>248.251751</ele>
        <time>2022-03-07T09:15:29.485Z</time>
      </trkpt>
      <trkpt lat="42.2521" lon="24.50691">
        <ele>248.473749</ele>
        <time>2022-03-07T09:15:32.489Z</time>
      </trkpt>
      <trkpt lat="42.25209" lon="24.50675">
        <ele>248.697748</ele>
        <time>2022-03-07T09:15:35.498Z</time>
      </trkpt>
      <trkpt lat="42.25208" lon="24.50658">
        <ele>248.922202</ele>
        <time>2022-03-07T09:15:38.490Z</time>
      </trkpt>
      <trkpt lat="42.25207" lon="24.50642">
        <ele>249.136272</ele>
        <time>2022-03-07T09:15:41.481Z</time>
      </trkpt>
      <trkpt lat="42.25206" lon="24.50626">
        <ele>249.351086</ele>
        <time>2022-03-07T09:15:44.513Z</time>
      </trkpt>
      <trkpt lat="42.25205" lon="24.50613">
        <ele>249.536755</ele>
        <time>2022-03-07T09:15:47.492Z</time>
      </trkpt>
      <trkpt lat="42.25204" lon="24.50597">
        <ele>249.75159</ele>
        <time>2022-03-07T09:15:51.492Z</time>
      </trkpt>
      <trkpt lat="42.25204" lon="24.50581">
        <ele>249.971638</ele>
        <time>2022-03-07T09:15:55.521Z</time>
      </trkpt>
      <trkpt lat="42.25204" lon="24.50565">
        <ele>250.180888</ele>
        <time>2022-03-07T09:15:58.494Z</time>
      </trkpt>
      <trkpt lat="42.25203" lon="24.50552">
        <ele>250.357166</ele>
        <time>2022-03-07T09:16:00.508Z</time>
      </trkpt>
      <trkpt lat="42.25201" lon="24.50534">
        <ele>250.597106</ele>
        <time>2022-03-07T09:16:03.476Z</time>
      </trkpt>
      <trkpt lat="42.25201" lon="24.50521">
        <ele>250.773205</ele>
        <time>2022-03-07T09:16:05.555Z</time>
      </trkpt>
      <trkpt lat="42.252" lon="24.50508">
        <ele>250.960388</ele>
        <time>2022-03-07T09:16:07.486Z</time>
      </trkpt>
      <trkpt lat="42.25199" lon="24.50494">
        <ele>251.139177</ele>
        <time>2022-03-07T09:16:09.495Z</time>
      </trkpt>
      <trkpt lat="42.25198" lon="24.50479">
        <ele>251.347716</ele>
        <time>2022-03-07T09:16:12.497Z</time>
      </trkpt>
      <trkpt lat="42.25198" lon="24.50464">
        <ele>251.53452</ele>
        <time>2022-03-07T09:16:15.500Z</time>
      </trkpt>
      <trkpt lat="42.25197" lon="24.50445">
        <ele>251.644144</ele>
        <time>2022-03-07T09:16:18.491Z</time>
      </trkpt>
      <trkpt lat="42.25196" lon="24.50433">
        <ele>251.718565</ele>
        <time>2022-03-07T09:16:20.486Z</time>
      </trkpt>
      <trkpt lat="42.25194" lon="24.50416">
        <ele>251.821143</ele>
        <time>2022-03-07T09:16:23.491Z</time>
      </trkpt>
      <trkpt lat="42.25194" lon="24.50401">
        <ele>251.913337</ele>
        <time>2022-03-07T09:16:26.473Z</time>
      </trkpt>
      <trkpt lat="42.25192" lon="24.50383">
        <ele>252.020629</ele>
        <time>2022-03-07T09:16:29.474Z</time>
      </trkpt>
      <trkpt lat="42.25191" lon="24.50367">
        <ele>252.116481</ele>
        <time>2022-03-07T09:16:32.505Z</time>
      </trkpt>
      <trkpt lat="42.2519" lon="24.5035">
        <ele>252.22138</ele>
        <time>2022-03-07T09:16:35.495Z</time>
      </trkpt>
      <trkpt lat="42.2519" lon="24.50333">
        <ele>252.320012</ele>
        <time>2022-03-07T09:16:38.496Z</time>
      </trkpt>
      <trkpt lat="42.25189" lon="24.50317">
        <ele>252.420354</ele>
        <time>2022-03-07T09:16:41.508Z</time>
      </trkpt>
      <trkpt lat="42.25189" lon="24.503">
        <ele>252.521386</ele>
        <time>2022-03-07T09:16:44.523Z</time>
      </trkpt>
      <trkpt lat="42.25188" lon="24.50283">
        <ele>252.621151</ele>
        <time>2022-03-07T09:16:47.495Z</time>
      </trkpt>
      <trkpt lat="42.25187" lon="24.50266">
        <ele>252.724494</ele>
        <time>2022-03-07T09:16:50.494Z</time>
      </trkpt>
      <trkpt lat="42.25186" lon="24.50254">
        <ele>252.798737</ele>
        <time>2022-03-07T09:16:52.497Z</time>
      </trkpt>
      <trkpt lat="42.25185" lon="24.50241">
        <ele>252.875454</ele>
        <time>2022-03-07T09:16:54.534Z</time>
      </trkpt>
      <trkpt lat="42.25184" lon="24.50229">
        <ele>252.949555</ele>
        <time>2022-03-07T09:16:56.490Z</time>
      </trkpt>
      <trkpt lat="42.25184" lon="24.50217">
        <ele>252.805847</ele>
        <time>2022-03-07T09:16:58.491Z</time>
      </trkpt>
      <trkpt lat="42.25183" lon="24.50204">
        <ele>252.519303</ele>
        <time>2022-03-07T09:17:00.515Z</time>
      </trkpt>
      <trkpt lat="42.25182" lon="24.50192">
        <ele>252.231331</ele>
        <time>2022-03-07T09:17:02.510Z</time>
      </trkpt>
      <trkpt lat="42.25181" lon="24.50179">
        <ele>251.952449</ele>
        <time>2022-03-07T09:17:04.496Z</time>
      </trkpt>
      <trkpt lat="42.25181" lon="24.50167">
        <ele>251.675839</ele>
        <time>2022-03-07T09:17:06.525Z</time>
      </trkpt>
      <trkpt lat="42.2518" lon="24.5015">
        <ele>251.268484</ele>
        <time>2022-03-07T09:17:09.488Z</time>
      </trkpt>
      <trkpt lat="42.25178" lon="24.50132">
        <ele>250.858569</ele>
        <time>2022-03-07T09:17:12.495Z</time>
      </trkpt>
      <trkpt lat="42.25177" lon="24.50114">
        <ele>250.457065</ele>
        <time>2022-03-07T09:17:15.499Z</time>
      </trkpt>
      <trkpt lat="42.25176" lon="24.50097">
        <ele>250.061056</ele>
        <time>2022-03-07T09:17:18.491Z</time>
      </trkpt>
      <trkpt lat="42.25174" lon="24.50081">
        <ele>249.690001</ele>
        <time>2022-03-07T09:17:21.498Z</time>
      </trkpt>
      <trkpt lat="42.25173" lon="24.50065">
        <ele>249.320892</ele>
        <time>2022-03-07T09:17:24.510Z</time>
      </trkpt>
      <trkpt lat="42.25172" lon="24.50048">
        <ele>248.946666</ele>
        <time>2022-03-07T09:17:27.507Z</time>
      </trkpt>
      <trkpt lat="42.25171" lon="24.50031">
        <ele>248.557744</ele>
        <time>2022-03-07T09:17:30.494Z</time>
      </trkpt>
      <trkpt lat="42.2517" lon="24.50013">
        <ele>248.1509</ele>
        <time>2022-03-07T09:17:33.491Z</time>
      </trkpt>
      <trkpt lat="42.25169" lon="24.49996">
        <ele>247.761978</ele>
        <time>2022-03-07T09:17:36.503Z</time>
      </trkpt>
      <trkpt lat="42.25168" lon="24.49979">
        <ele>247.457284</ele>
        <time>2022-03-07T09:17:39.532Z</time>
      </trkpt>
      <trkpt lat="42.25167" lon="24.49961">
        <ele>247.564915</ele>
        <time>2022-03-07T09:17:42.520Z</time>
      </trkpt>
      <trkpt lat="42.25167" lon="24.49944">
        <ele>247.671896</ele>
        <time>2022-03-07T09:17:45.493Z</time>
      </trkpt>
      <trkpt lat="42.25166" lon="24.49926">
        <ele>247.776515</ele>
        <time>2022-03-07T09:17:48.498Z</time>
      </trkpt>
      <trkpt lat="42.25165" lon="24.4991">
        <ele>247.877707</ele>
        <time>2022-03-07T09:17:51.500Z</time>
      </trkpt>
      <trkpt lat="42.25164" lon="24.49893">
        <ele>247.976252</ele>
        <time>2022-03-07T09:17:54.506Z</time>
      </trkpt>
      <trkpt lat="42.25163" lon="24.49877">
        <ele>248.07837</ele>
        <time>2022-03-07T09:17:57.481Z</time>
      </trkpt>
      <trkpt lat="42.25162" lon="24.4986">
        <ele>248.179903</ele>
        <time>2022-03-07T09:18:00.503Z</time>
      </trkpt>
      <trkpt lat="42.25161" lon="24.49842">
        <ele>248.285237</ele>
        <time>2022-03-07T09:18:03.496Z</time>
      </trkpt>
      <trkpt lat="42.2516" lon="24.49826">
        <ele>248.386192</ele>
        <time>2022-03-07T09:18:06.534Z</time>
      </trkpt>
      <trkpt lat="42.2516" lon="24.49809">
        <ele>248.486502</ele>
        <time>2022-03-07T09:18:09.495Z</time>
      </trkpt>
      <trkpt lat="42.25158" lon="24.49792">
        <ele>248.589572</ele>
        <time>2022-03-07T09:18:12.495Z</time>
      </trkpt>
      <trkpt lat="42.25157" lon="24.49775">
        <ele>248.694907</ele>
        <time>2022-03-07T09:18:15.486Z</time>
      </trkpt>
      <trkpt lat="42.25157" lon="24.49758">
        <ele>248.796464</ele>
        <time>2022-03-07T09:18:18.499Z</time>
      </trkpt>
      <trkpt lat="42.25156" lon="24.49741">
        <ele>248.897469</ele>
        <time>2022-03-07T09:18:21.498Z</time>
      </trkpt>
      <trkpt lat="42.25155" lon="24.49723">
        <ele>249.070065</ele>
        <time>2022-03-07T09:18:24.496Z</time>
      </trkpt>
      <trkpt lat="42.25154" lon="24.49706">
        <ele>249.239789</ele>
        <time>2022-03-07T09:18:27.505Z</time>
      </trkpt>
      <trkpt lat="42.25154" lon="24.49689">
        <ele>249.408535</ele>
        <time>2022-03-07T09:18:30.501Z</time>
      </trkpt>
      <trkpt lat="42.25153" lon="24.49671">
        <ele>249.582403</ele>
        <time>2022-03-07T09:18:33.500Z</time>
      </trkpt>
      <trkpt lat="42.25152" lon="24.49653">
        <ele>249.755495</ele>
        <time>2022-03-07T09:18:36.499Z</time>
      </trkpt>
      <trkpt lat="42.25151" lon="24.49637">
        <ele>249.920267</ele>
        <time>2022-03-07T09:18:39.535Z</time>
      </trkpt>
      <trkpt lat="42.2515" lon="24.49619">
        <ele>250.088868</ele>
        <time>2022-03-07T09:18:42.495Z</time>
      </trkpt>
      <trkpt lat="42.25149" lon="24.49602">
        <ele>250.261855</ele>
        <time>2022-03-07T09:18:45.517Z</time>
      </trkpt>
      <trkpt lat="42.25148" lon="24.49585">
        <ele>250.43129</ele>
        <time>2022-03-07T09:18:48.504Z</time>
      </trkpt>
      <trkpt lat="42.25146" lon="24.49568">
        <ele>250.595852</ele>
        <time>2022-03-07T09:18:51.495Z</time>
      </trkpt>
      <trkpt lat="42.25145" lon="24.49551">
        <ele>250.761999</ele>
        <time>2022-03-07T09:18:54.487Z</time>
      </trkpt>
      <trkpt lat="42.25145" lon="24.49534">
        <ele>250.928856</ele>
        <time>2022-03-07T09:18:57.494Z</time>
      </trkpt>
      <trkpt lat="42.25143" lon="24.49518">
        <ele>251.09064</ele>
        <time>2022-03-07T09:19:00.486Z</time>
      </trkpt>
      <trkpt lat="42.25142" lon="24.49501">
        <ele>251.253755</ele>
        <time>2022-03-07T09:19:03.499Z</time>
      </trkpt>
      <trkpt lat="42.25142" lon="24.49484">
        <ele>251.372805</ele>
        <time>2022-03-07T09:19:06.495Z</time>
      </trkpt>
      <trkpt lat="42.25141" lon="24.49467">
        <ele>251.484333</ele>
        <time>2022-03-07T09:19:09.492Z</time>
      </trkpt>
      <trkpt lat="42.2514" lon="24.4945">
        <ele>251.595295</ele>
        <time>2022-03-07T09:19:12.501Z</time>
      </trkpt>
      <trkpt lat="42.25138" lon="24.49432">
        <ele>251.707145</ele>
        <time>2022-03-07T09:19:15.489Z</time>
      </trkpt>
      <trkpt lat="42.25137" lon="24.49415">
        <ele>251.817521</ele>
        <time>2022-03-07T09:19:18.492Z</time>
      </trkpt>
      <trkpt lat="42.25135" lon="24.49398">
        <ele>251.927563</ele>
        <time>2022-03-07T09:19:21.497Z</time>
      </trkpt>
      <trkpt lat="42.25134" lon="24.4938">
        <ele>252.039666</ele>
        <time>2022-03-07T09:19:24.532Z</time>
      </trkpt>
      <trkpt lat="42.25133" lon="24.49363">
        <ele>252.151024</ele>
        <time>2022-03-07T09:19:27.489Z</time>
      </trkpt>
      <trkpt lat="42.25133" lon="24.49346">
        <ele>252.261106</ele>
        <time>2022-03-07T09:19:30.496Z</time>
      </trkpt>
      <trkpt lat="42.25132" lon="24.49329">
        <ele>252.369867</ele>
        <time>2022-03-07T09:19:33.492Z</time>
      </trkpt>
      <trkpt lat="42.25131" lon="24.49313">
        <ele>252.472192</ele>
        <time>2022-03-07T09:19:36.493Z</time>
      </trkpt>
      <trkpt lat="42.2513" lon="24.49297">
        <ele>252.573607</ele>
        <time>2022-03-07T09:19:39.508Z</time>
      </trkpt>
      <trkpt lat="42.25129" lon="24.49281">
        <ele>252.678639</ele>
        <time>2022-03-07T09:19:42.497Z</time>
      </trkpt>
      <trkpt lat="42.25128" lon="24.49264">
        <ele>252.78373</ele>
        <time>2022-03-07T09:19:45.497Z</time>
      </trkpt>
      <trkpt lat="42.25128" lon="24.49248">
        <ele>252.98336</ele>
        <time>2022-03-07T09:19:48.489Z</time>
      </trkpt>
      <trkpt lat="42.25127" lon="24.49232">
        <ele>253.322592</ele>
        <time>2022-03-07T09:19:51.543Z</time>
      </trkpt>
      <trkpt lat="42.25126" lon="24.49215">
        <ele>253.653366</ele>
        <time>2022-03-07T09:19:54.493Z</time>
      </trkpt>
      <trkpt lat="42.25124" lon="24.492">
        <ele>253.956402</ele>
        <time>2022-03-07T09:19:57.514Z</time>
      </trkpt>
      <trkpt lat="42.25124" lon="24.49184">
        <ele>254.281797</ele>
        <time>2022-03-07T09:20:00.495Z</time>
      </trkpt>
      <trkpt lat="42.25123" lon="24.49167">
        <ele>254.633918</ele>
        <time>2022-03-07T09:20:03.492Z</time>
      </trkpt>
      <trkpt lat="42.25122" lon="24.4915">
        <ele>254.982485</ele>
        <time>2022-03-07T09:20:06.480Z</time>
      </trkpt>
      <trkpt lat="42.25121" lon="24.49133">
        <ele>255.314494</ele>
        <time>2022-03-07T09:20:09.501Z</time>
      </trkpt>
      <trkpt lat="42.2512" lon="24.49116">
        <ele>255.659549</ele>
        <time>2022-03-07T09:20:12.498Z</time>
      </trkpt>
      <trkpt lat="42.2512" lon="24.49099">
        <ele>256.001059</ele>
        <time>2022-03-07T09:20:15.509Z</time>
      </trkpt>
      <trkpt lat="42.25119" lon="24.49083">
        <ele>256.340904</ele>
        <time>2022-03-07T09:20:18.490Z</time>
      </trkpt>
      <trkpt lat="42.25118" lon="24.49065">
        <ele>256.689472</ele>
        <time>2022-03-07T09:20:21.493Z</time>
      </trkpt>
      <trkpt lat="42.25117" lon="24.49048">
        <ele>257.043227</ele>
        <time>2022-03-07T09:20:24.530Z</time>
      </trkpt>
      <trkpt lat="42.25116" lon="24.4903">
        <ele>257.401383</ele>
        <time>2022-03-07T09:20:27.505Z</time>
      </trkpt>
      <trkpt lat="42.25115" lon="24.49013">
        <ele>257.737426</ele>
        <time>2022-03-07T09:20:30.514Z</time>
      </trkpt>
      <trkpt lat="42.25114" lon="24.49">
        <ele>257.631973</ele>
        <time>2022-03-07T09:20:32.515Z</time>
      </trkpt>
      <trkpt lat="42.25113" lon="24.48983">
        <ele>257.477972</ele>
        <time>2022-03-07T09:20:35.510Z</time>
      </trkpt>
      <trkpt lat="42.25112" lon="24.48965">
        <ele>257.323971</ele>
        <time>2022-03-07T09:20:38.502Z</time>
      </trkpt>
      <trkpt lat="42.25111" lon="24.48953">
        <ele>257.218154</ele>
        <time>2022-03-07T09:20:40.501Z</time>
      </trkpt>
      <trkpt lat="42.2511" lon="24.48941">
        <ele>257.113449</ele>
        <time>2022-03-07T09:20:42.489Z</time>
      </trkpt>
      <trkpt lat="42.25109" lon="24.48928">
        <ele>257.007631</ele>
        <time>2022-03-07T09:20:44.494Z</time>
      </trkpt>
      <trkpt lat="42.25108" lon="24.48916">
        <ele>256.902927</ele>
        <time>2022-03-07T09:20:46.479Z</time>
      </trkpt>
      <trkpt lat="42.25107" lon="24.48899">
        <ele>256.750946</ele>
        <time>2022-03-07T09:20:49.491Z</time>
      </trkpt>
      <trkpt lat="42.25106" lon="24.48881">
        <ele>256.602199</ele>
        <time>2022-03-07T09:20:52.487Z</time>
      </trkpt>
      <trkpt lat="42.25105" lon="24.48865">
        <ele>256.456574</ele>
        <time>2022-03-07T09:20:55.476Z</time>
      </trkpt>
      <trkpt lat="42.25105" lon="24.48847">
        <ele>256.302347</ele>
        <time>2022-03-07T09:20:58.514Z</time>
      </trkpt>
      <trkpt lat="42.25104" lon="24.48834">
        <ele>256.191747</ele>
        <time>2022-03-07T09:21:00.491Z</time>
      </trkpt>
      <trkpt lat="42.25103" lon="24.48822">
        <ele>256.085685</ele>
        <time>2022-03-07T09:21:02.493Z</time>
      </trkpt>
      <trkpt lat="42.25102" lon="24.48804">
        <ele>255.931212</ele>
        <time>2022-03-07T09:21:05.505Z</time>
      </trkpt>
      <trkpt lat="42.25102" lon="24.48787">
        <ele>255.783757</ele>
        <time>2022-03-07T09:21:08.488Z</time>
      </trkpt>
      <trkpt lat="42.25103" lon="24.4877">
        <ele>255.646371</ele>
        <time>2022-03-07T09:21:11.497Z</time>
      </trkpt>
      <trkpt lat="42.25104" lon="24.48752">
        <ele>255.572009</ele>
        <time>2022-03-07T09:21:14.494Z</time>
      </trkpt>
      <trkpt lat="42.25104" lon="24.48739">
        <ele>255.51771</ele>
        <time>2022-03-07T09:21:16.502Z</time>
      </trkpt>
      <trkpt lat="42.25104" lon="24.48727">
        <ele>255.467481</ele>
        <time>2022-03-07T09:21:18.479Z</time>
      </trkpt>
      <trkpt lat="42.25105" lon="24.48715">
        <ele>255.416037</ele>
        <time>2022-03-07T09:21:20.525Z</time>
      </trkpt>
      <trkpt lat="42.25105" lon="24.48697">
        <ele>255.342598</ele>
        <time>2022-03-07T09:21:23.490Z</time>
      </trkpt>
      <trkpt lat="42.25106" lon="24.4868">
        <ele>255.271703</ele>
        <time>2022-03-07T09:21:26.520Z</time>
      </trkpt>
      <trkpt lat="42.25106" lon="24.48663">
        <ele>255.201637</ele>
        <time>2022-03-07T09:21:29.497Z</time>
      </trkpt>
      <trkpt lat="42.25106" lon="24.48645">
        <ele>255.128655</ele>
        <time>2022-03-07T09:21:32.546Z</time>
      </trkpt>
      <trkpt lat="42.25106" lon="24.48628">
        <ele>255.055293</ele>
        <time>2022-03-07T09:21:35.502Z</time>
      </trkpt>
      <trkpt lat="42.25106" lon="24.48615">
        <ele>255.004727</ele>
        <time>2022-03-07T09:21:37.487Z</time>
      </trkpt>
      <trkpt lat="42.25106" lon="24.48603">
        <ele>254.954576</ele>
        <time>2022-03-07T09:21:39.482Z</time>
      </trkpt>
      <trkpt lat="42.25106" lon="24.48586">
        <ele>254.880798</ele>
        <time>2022-03-07T09:21:42.487Z</time>
      </trkpt>
      <trkpt lat="42.25106" lon="24.48568">
        <ele>254.807019</ele>
        <time>2022-03-07T09:21:45.499Z</time>
      </trkpt>
      <trkpt lat="42.25107" lon="24.48556">
        <ele>254.756342</ele>
        <time>2022-03-07T09:21:47.477Z</time>
      </trkpt>
      <trkpt lat="42.25108" lon="24.48538">
        <ele>254.682903</ele>
        <time>2022-03-07T09:21:50.489Z</time>
      </trkpt>
      <trkpt lat="42.25108" lon="24.48521">
        <ele>254.655911</ele>
        <time>2022-03-07T09:21:53.505Z</time>
      </trkpt>
      <trkpt lat="42.25109" lon="24.48503">
        <ele>254.684066</ele>
        <time>2022-03-07T09:21:56.509Z</time>
      </trkpt>
      <trkpt lat="42.25109" lon="24.48486">
        <ele>254.712533</ele>
        <time>2022-03-07T09:21:59.494Z</time>
      </trkpt>
      <trkpt lat="42.2511" lon="24.48468">
        <ele>254.741191</ele>
        <time>2022-03-07T09:22:02.505Z</time>
      </trkpt>
      <trkpt lat="42.2511" lon="24.4845">
        <ele>254.769826</ele>
        <time>2022-03-07T09:22:05.522Z</time>
      </trkpt>
      <trkpt lat="42.2511" lon="24.48432">
        <ele>254.798453</ele>
        <time>2022-03-07T09:22:08.494Z</time>
      </trkpt>
      <trkpt lat="42.25111" lon="24.48415">
        <ele>254.82696</ele>
        <time>2022-03-07T09:22:11.523Z</time>
      </trkpt>
      <trkpt lat="42.25111" lon="24.48398">
        <ele>254.854164</ele>
        <time>2022-03-07T09:22:14.498Z</time>
      </trkpt>
      <trkpt lat="42.25112" lon="24.48382">
        <ele>254.880711</ele>
        <time>2022-03-07T09:22:17.481Z</time>
      </trkpt>
      <trkpt lat="42.25112" lon="24.48364">
        <ele>254.909501</ele>
        <time>2022-03-07T09:22:20.549Z</time>
      </trkpt>
      <trkpt lat="42.25112" lon="24.48351">
        <ele>254.929729</ele>
        <time>2022-03-07T09:22:22.493Z</time>
      </trkpt>
      <trkpt lat="42.25112" lon="24.48333">
        <ele>254.959007</ele>
        <time>2022-03-07T09:22:25.520Z</time>
      </trkpt>
      <trkpt lat="42.25112" lon="24.48315">
        <ele>254.987797</ele>
        <time>2022-03-07T09:22:28.486Z</time>
      </trkpt>
      <trkpt lat="42.25113" lon="24.48298">
        <ele>255.016454</ele>
        <time>2022-03-07T09:22:31.503Z</time>
      </trkpt>
      <trkpt lat="42.25113" lon="24.4828">
        <ele>255.050338</ele>
        <time>2022-03-07T09:22:34.499Z</time>
      </trkpt>
      <trkpt lat="42.25114" lon="24.48263">
        <ele>255.097142</ele>
        <time>2022-03-07T09:22:37.481Z</time>
      </trkpt>
      <trkpt lat="42.25114" lon="24.48246">
        <ele>255.143386</ele>
        <time>2022-03-07T09:22:40.526Z</time>
      </trkpt>
      <trkpt lat="42.25115" lon="24.48229">
        <ele>255.189701</ele>
        <time>2022-03-07T09:22:43.498Z</time>
      </trkpt>
      <trkpt lat="42.25116" lon="24.48213">
        <ele>255.236099</ele>
        <time>2022-03-07T09:22:46.489Z</time>
      </trkpt>
      <trkpt lat="42.25117" lon="24.48195">
        <ele>255.283506</ele>
        <time>2022-03-07T09:22:49.494Z</time>
      </trkpt>
      <trkpt lat="42.25117" lon="24.48178">
        <ele>255.331107</ele>
        <time>2022-03-07T09:22:52.496Z</time>
      </trkpt>
      <trkpt lat="42.25117" lon="24.4816">
        <ele>255.380337</ele>
        <time>2022-03-07T09:22:55.480Z</time>
      </trkpt>
      <trkpt lat="42.25117" lon="24.48143">
        <ele>255.427128</ele>
        <time>2022-03-07T09:22:58.500Z</time>
      </trkpt>
      <trkpt lat="42.25118" lon="24.48126">
        <ele>255.472534</ele>
        <time>2022-03-07T09:23:01.497Z</time>
      </trkpt>
      <trkpt lat="42.25118" lon="24.48109">
        <ele>255.519871</ele>
        <time>2022-03-07T09:23:04.490Z</time>
      </trkpt>
      <trkpt lat="42.25118" lon="24.48092">
        <ele>255.565277</ele>
        <time>2022-03-07T09:23:07.499Z</time>
      </trkpt>
      <trkpt lat="42.25118" lon="24.48076">
        <ele>255.610143</ele>
        <time>2022-03-07T09:23:10.532Z</time>
      </trkpt>
      <trkpt lat="42.25119" lon="24.4806">
        <ele>255.654488</ele>
        <time>2022-03-07T09:23:13.509Z</time>
      </trkpt>
      <trkpt lat="42.25119" lon="24.48043">
        <ele>255.70071</ele>
        <time>2022-03-07T09:23:16.499Z</time>
      </trkpt>
      <trkpt lat="42.25119" lon="24.48026">
        <ele>255.783126</ele>
        <time>2022-03-07T09:23:19.498Z</time>
      </trkpt>
      <trkpt lat="42.2512" lon="24.48009">
        <ele>255.865664</ele>
        <time>2022-03-07T09:23:22.479Z</time>
      </trkpt>
      <trkpt lat="42.2512" lon="24.47991">
        <ele>255.95016</ele>
        <time>2022-03-07T09:23:25.498Z</time>
      </trkpt>
      <trkpt lat="42.25121" lon="24.47975">
        <ele>256.031833</ele>
        <time>2022-03-07T09:23:28.495Z</time>
      </trkpt>
      <trkpt lat="42.25121" lon="24.47958">
        <ele>256.114441</ele>
        <time>2022-03-07T09:23:31.499Z</time>
      </trkpt>
      <trkpt lat="42.25122" lon="24.47941">
        <ele>256.196997</ele>
        <time>2022-03-07T09:23:34.494Z</time>
      </trkpt>
      <trkpt lat="42.25122" lon="24.47924">
        <ele>256.276696</ele>
        <time>2022-03-07T09:23:37.499Z</time>
      </trkpt>
      <trkpt lat="42.25123" lon="24.47908">
        <ele>256.35688</ele>
        <time>2022-03-07T09:23:40.502Z</time>
      </trkpt>
      <trkpt lat="42.25124" lon="24.47891">
        <ele>256.439561</ele>
        <time>2022-03-07T09:23:43.497Z</time>
      </trkpt>
      <trkpt lat="42.25124" lon="24.47873">
        <ele>256.524997</ele>
        <time>2022-03-07T09:23:46.490Z</time>
      </trkpt>
      <trkpt lat="42.25125" lon="24.47855">
        <ele>256.610487</ele>
        <time>2022-03-07T09:23:49.501Z</time>
      </trkpt>
      <trkpt lat="42.25125" lon="24.47843">
        <ele>256.669794</ele>
        <time>2022-03-07T09:23:51.489Z</time>
      </trkpt>
      <trkpt lat="42.25125" lon="24.47831">
        <ele>256.729068</ele>
        <time>2022-03-07T09:23:53.494Z</time>
      </trkpt>
      <trkpt lat="42.25126" lon="24.47813">
        <ele>256.81599</ele>
        <time>2022-03-07T09:23:56.507Z</time>
      </trkpt>
      <trkpt lat="42.25126" lon="24.47795">
        <ele>256.896701</ele>
        <time>2022-03-07T09:23:59.491Z</time>
      </trkpt>
      <trkpt lat="42.25127" lon="24.47777">
        <ele>256.961305</ele>
        <time>2022-03-07T09:24:02.492Z</time>
      </trkpt>
      <trkpt lat="42.25127" lon="24.4776">
        <ele>257.024145</ele>
        <time>2022-03-07T09:24:05.502Z</time>
      </trkpt>
      <trkpt lat="42.25128" lon="24.47742">
        <ele>257.086955</ele>
        <time>2022-03-07T09:24:08.508Z</time>
      </trkpt>
      <trkpt lat="42.25127" lon="24.47725">
        <ele>257.150473</ele>
        <time>2022-03-07T09:24:11.499Z</time>
      </trkpt>
      <trkpt lat="42.25128" lon="24.47707">
        <ele>257.213274</ele>
        <time>2022-03-07T09:24:14.507Z</time>
      </trkpt>
      <trkpt lat="42.25128" lon="24.4769">
        <ele>257.27468</ele>
        <time>2022-03-07T09:24:17.494Z</time>
      </trkpt>
      <trkpt lat="42.25128" lon="24.47673">
        <ele>257.336758</ele>
        <time>2022-03-07T09:24:20.501Z</time>
      </trkpt>
      <trkpt lat="42.25129" lon="24.47656">
        <ele>257.398146</ele>
        <time>2022-03-07T09:24:23.497Z</time>
      </trkpt>
      <trkpt lat="42.2513" lon="24.47638">
        <ele>257.460451</ele>
        <time>2022-03-07T09:24:26.530Z</time>
      </trkpt>
      <trkpt lat="42.2513" lon="24.47621">
        <ele>257.523633</ele>
        <time>2022-03-07T09:24:29.500Z</time>
      </trkpt>
      <trkpt lat="42.25131" lon="24.47605">
        <ele>257.581453</ele>
        <time>2022-03-07T09:24:32.491Z</time>
      </trkpt>
      <trkpt lat="42.25131" lon="24.47588">
        <ele>257.6396</ele>
        <time>2022-03-07T09:24:35.491Z</time>
      </trkpt>
      <trkpt lat="42.25131" lon="24.47571">
        <ele>257.700989</ele>
        <time>2022-03-07T09:24:38.490Z</time>
      </trkpt>
      <trkpt lat="42.25132" lon="24.47555">
        <ele>257.768658</ele>
        <time>2022-03-07T09:24:41.494Z</time>
      </trkpt>
      <trkpt lat="42.25132" lon="24.47539">
        <ele>257.912904</ele>
        <time>2022-03-07T09:24:44.487Z</time>
      </trkpt>
      <trkpt lat="42.25133" lon="24.47523">
        <ele>258.060647</ele>
        <time>2022-03-07T09:24:47.515Z</time>
      </trkpt>
      <trkpt lat="42.25133" lon="24.47506">
        <ele>258.213732</ele>
        <time>2022-03-07T09:24:50.480Z</time>
      </trkpt>
      <trkpt lat="42.25133" lon="24.47489">
        <ele>258.36324</ele>
        <time>2022-03-07T09:24:53.497Z</time>
      </trkpt>
      <trkpt lat="42.25133" lon="24.47473">
        <ele>258.510923</ele>
        <time>2022-03-07T09:24:56.508Z</time>
      </trkpt>
      <trkpt lat="42.25133" lon="24.47456">
        <ele>258.660511</ele>
        <time>2022-03-07T09:24:59.553Z</time>
      </trkpt>
      <trkpt lat="42.25134" lon="24.47439">
        <ele>258.811898</ele>
        <time>2022-03-07T09:25:02.490Z</time>
      </trkpt>
      <trkpt lat="42.25134" lon="24.47422">
        <ele>258.967683</ele>
        <time>2022-03-07T09:25:05.499Z</time>
      </trkpt>
      <trkpt lat="42.25134" lon="24.47404">
        <ele>259.129825</ele>
        <time>2022-03-07T09:25:08.517Z</time>
      </trkpt>
      <trkpt lat="42.25135" lon="24.47386">
        <ele>259.292009</ele>
        <time>2022-03-07T09:25:11.544Z</time>
      </trkpt>
      <trkpt lat="42.25136" lon="24.47369">
        <ele>259.446209</ele>
        <time>2022-03-07T09:25:14.500Z</time>
      </trkpt>
      <trkpt lat="42.25136" lon="24.47352">
        <ele>259.598452</ele>
        <time>2022-03-07T09:25:17.505Z</time>
      </trkpt>
      <trkpt lat="42.25136" lon="24.47336">
        <ele>259.742519</ele>
        <time>2022-03-07T09:25:20.518Z</time>
      </trkpt>
      <trkpt lat="42.25137" lon="24.47319">
        <ele>259.895077</ele>
        <time>2022-03-07T09:25:23.507Z</time>
      </trkpt>
      <trkpt lat="42.25137" lon="24.47302">
        <ele>259.974942</ele>
        <time>2022-03-07T09:25:26.496Z</time>
      </trkpt>
      <trkpt lat="42.25138" lon="24.47289">
        <ele>260.009201</ele>
        <time>2022-03-07T09:25:28.531Z</time>
      </trkpt>
      <trkpt lat="42.25138" lon="24.47277">
        <ele>260.043176</ele>
        <time>2022-03-07T09:25:30.500Z</time>
      </trkpt>
      <trkpt lat="42.25138" lon="24.47264">
        <ele>260.077722</ele>
        <time>2022-03-07T09:25:32.478Z</time>
      </trkpt>
      <trkpt lat="42.25138" lon="24.47246">
        <ele>260.127443</ele>
        <time>2022-03-07T09:25:35.492Z</time>
      </trkpt>
      <trkpt lat="42.25138" lon="24.47234">
        <ele>260.161451</ele>
        <time>2022-03-07T09:25:37.481Z</time>
      </trkpt>
      <trkpt lat="42.25138" lon="24.47222">
        <ele>260.194876</ele>
        <time>2022-03-07T09:25:39.486Z</time>
      </trkpt>
      <trkpt lat="42.25139" lon="24.4721">
        <ele>260.22916</ele>
        <time>2022-03-07T09:25:41.501Z</time>
      </trkpt>
      <trkpt lat="42.25139" lon="24.47197">
        <ele>260.263695</ele>
        <time>2022-03-07T09:25:43.491Z</time>
      </trkpt>
      <trkpt lat="42.2514" lon="24.47185">
        <ele>260.297997</ele>
        <time>2022-03-07T09:25:45.513Z</time>
      </trkpt>
      <trkpt lat="42.2514" lon="24.47173">
        <ele>260.331748</ele>
        <time>2022-03-07T09:25:47.485Z</time>
      </trkpt>
      <trkpt lat="42.2514" lon="24.47155">
        <ele>260.381214</ele>
        <time>2022-03-07T09:25:50.515Z</time>
      </trkpt>
      <trkpt lat="42.25141" lon="24.47142">
        <ele>260.415565</ele>
        <time>2022-03-07T09:25:52.507Z</time>
      </trkpt>
      <trkpt lat="42.25142" lon="24.4713">
        <ele>260.450742</ele>
        <time>2022-03-07T09:25:54.511Z</time>
      </trkpt>
      <trkpt lat="42.25143" lon="24.47117">
        <ele>260.485368</ele>
        <time>2022-03-07T09:25:56.490Z</time>
      </trkpt>
      <trkpt lat="42.25143" lon="24.47099">
        <ele>260.534847</ele>
        <time>2022-03-07T09:25:59.506Z</time>
      </trkpt>
      <trkpt lat="42.25143" lon="24.47082">
        <ele>260.583198</ele>
        <time>2022-03-07T09:26:02.496Z</time>
      </trkpt>
      <trkpt lat="42.25144" lon="24.47064">
        <ele>260.506895</ele>
        <time>2022-03-07T09:26:05.517Z</time>
      </trkpt>
      <trkpt lat="42.25144" lon="24.47048">
        <ele>260.26338</ele>
        <time>2022-03-07T09:26:08.495Z</time>
      </trkpt>
      <trkpt lat="42.25145" lon="24.47031">
        <ele>260.010642</ele>
        <time>2022-03-07T09:26:11.481Z</time>
      </trkpt>
      <trkpt lat="42.25145" lon="24.47014">
        <ele>259.750842</ele>
        <time>2022-03-07T09:26:14.507Z</time>
      </trkpt>
      <trkpt lat="42.25145" lon="24.46996">
        <ele>259.485135</ele>
        <time>2022-03-07T09:26:17.552Z</time>
      </trkpt>
      <trkpt lat="42.25145" lon="24.46978">
        <ele>259.226842</ele>
        <time>2022-03-07T09:26:20.497Z</time>
      </trkpt>
      <trkpt lat="42.25145" lon="24.46961">
        <ele>258.977455</ele>
        <time>2022-03-07T09:26:23.519Z</time>
      </trkpt>
      <trkpt lat="42.25145" lon="24.46945">
        <ele>258.738467</ele>
        <time>2022-03-07T09:26:26.484Z</time>
      </trkpt>
      <trkpt lat="42.25145" lon="24.46929">
        <ele>258.497995</ele>
        <time>2022-03-07T09:26:29.492Z</time>
      </trkpt>
      <trkpt lat="42.25146" lon="24.46912">
        <ele>258.246739</ele>
        <time>2022-03-07T09:26:32.491Z</time>
      </trkpt>
      <trkpt lat="42.25146" lon="24.46896">
        <ele>258.000297</ele>
        <time>2022-03-07T09:26:35.502Z</time>
      </trkpt>
      <trkpt lat="42.25146" lon="24.46879">
        <ele>257.747822</ele>
        <time>2022-03-07T09:26:38.490Z</time>
      </trkpt>
      <trkpt lat="42.25147" lon="24.46861">
        <ele>257.484893</ele>
        <time>2022-03-07T09:26:41.501Z</time>
      </trkpt>
      <trkpt lat="42.25147" lon="24.46843">
        <ele>257.225115</ele>
        <time>2022-03-07T09:26:44.496Z</time>
      </trkpt>
      <trkpt lat="42.25147" lon="24.46831">
        <ele>257.045324</ele>
        <time>2022-03-07T09:26:46.499Z</time>
      </trkpt>
      <trkpt lat="42.25148" lon="24.46813">
        <ele>257.122621</ele>
        <time>2022-03-07T09:26:49.499Z</time>
      </trkpt>
      <trkpt lat="42.25148" lon="24.46796">
        <ele>257.255154</ele>
        <time>2022-03-07T09:26:52.503Z</time>
      </trkpt>
      <trkpt lat="42.25148" lon="24.4678">
        <ele>257.383069</ele>
        <time>2022-03-07T09:26:55.509Z</time>
      </trkpt>
      <trkpt lat="42.25149" lon="24.46764">
        <ele>257.504937</ele>
        <time>2022-03-07T09:26:58.491Z</time>
      </trkpt>
      <trkpt lat="42.2515" lon="24.46748">
        <ele>257.62695</ele>
        <time>2022-03-07T09:27:01.501Z</time>
      </trkpt>
      <trkpt lat="42.25151" lon="24.4673">
        <ele>257.76667</ele>
        <time>2022-03-07T09:27:04.492Z</time>
      </trkpt>
      <trkpt lat="42.25151" lon="24.46718">
        <ele>257.861343</ele>
        <time>2022-03-07T09:27:06.495Z</time>
      </trkpt>
      <trkpt lat="42.25152" lon="24.46706">
        <ele>257.959173</ele>
        <time>2022-03-07T09:27:08.487Z</time>
      </trkpt>
      <trkpt lat="42.25152" lon="24.46693">
        <ele>258.056824</ele>
        <time>2022-03-07T09:27:10.499Z</time>
      </trkpt>
      <trkpt lat="42.25152" lon="24.4668">
        <ele>258.155583</ele>
        <time>2022-03-07T09:27:12.509Z</time>
      </trkpt>
      <trkpt lat="42.25153" lon="24.46668">
        <ele>258.250204</ele>
        <time>2022-03-07T09:27:14.500Z</time>
      </trkpt>
      <trkpt lat="42.25153" lon="24.46651">
        <ele>258.385815</ele>
        <time>2022-03-07T09:27:17.509Z</time>
      </trkpt>
      <trkpt lat="42.25153" lon="24.46634">
        <ele>258.517553</ele>
        <time>2022-03-07T09:27:20.497Z</time>
      </trkpt>
      <trkpt lat="42.25154" lon="24.46617">
        <ele>258.645438</ele>
        <time>2022-03-07T09:27:23.495Z</time>
      </trkpt>
      <trkpt lat="42.25154" lon="24.46601">
        <ele>258.769626</ele>
        <time>2022-03-07T09:27:26.496Z</time>
      </trkpt>
      <trkpt lat="42.25154" lon="24.46585">
        <ele>258.886641</ele>
        <time>2022-03-07T09:27:29.495Z</time>
      </trkpt>
      <trkpt lat="42.25155" lon="24.46568">
        <ele>258.879342</ele>
        <time>2022-03-07T09:27:32.497Z</time>
      </trkpt>
      <trkpt lat="42.25155" lon="24.4655">
        <ele>258.871567</ele>
        <time>2022-03-07T09:27:35.492Z</time>
      </trkpt>
      <trkpt lat="42.25155" lon="24.46533">
        <ele>258.863973</ele>
        <time>2022-03-07T09:27:38.488Z</time>
      </trkpt>
      <trkpt lat="42.25155" lon="24.46516">
        <ele>258.85655</ele>
        <time>2022-03-07T09:27:41.493Z</time>
      </trkpt>
      <trkpt lat="42.25155" lon="24.46498">
        <ele>258.849085</ele>
        <time>2022-03-07T09:27:44.511Z</time>
      </trkpt>
      <trkpt lat="42.25155" lon="24.46481">
        <ele>258.841618</ele>
        <time>2022-03-07T09:27:47.496Z</time>
      </trkpt>
      <trkpt lat="42.25156" lon="24.46464">
        <ele>258.834139</ele>
        <time>2022-03-07T09:27:50.495Z</time>
      </trkpt>
      <trkpt lat="42.25157" lon="24.46447">
        <ele>258.826787</ele>
        <time>2022-03-07T09:27:53.494Z</time>
      </trkpt>
      <trkpt lat="42.25158" lon="24.4643">
        <ele>258.81923</ele>
        <time>2022-03-07T09:27:56.503Z</time>
      </trkpt>
      <trkpt lat="42.25158" lon="24.46413">
        <ele>258.811847</ele>
        <time>2022-03-07T09:27:59.504Z</time>
      </trkpt>
      <trkpt lat="42.25158" lon="24.46396">
        <ele>258.8046</ele>
        <time>2022-03-07T09:28:02.494Z</time>
      </trkpt>
      <trkpt lat="42.25159" lon="24.46379">
        <ele>258.797176</ele>
        <time>2022-03-07T09:28:05.487Z</time>
      </trkpt>
      <trkpt lat="42.25158" lon="24.46362">
        <ele>258.789797</ele>
        <time>2022-03-07T09:28:08.527Z</time>
      </trkpt>
      <trkpt lat="42.25158" lon="24.46345">
        <ele>258.782332</ele>
        <time>2022-03-07T09:28:11.483Z</time>
      </trkpt>
      <trkpt lat="42.25158" lon="24.46328">
        <ele>258.956083</ele>
        <time>2022-03-07T09:28:14.495Z</time>
      </trkpt>
      <trkpt lat="42.25159" lon="24.46311">
        <ele>259.152146</ele>
        <time>2022-03-07T09:28:17.511Z</time>
      </trkpt>
      <trkpt lat="42.2516" lon="24.46293">
        <ele>259.349446</ele>
        <time>2022-03-07T09:28:20.499Z</time>
      </trkpt>
      <trkpt lat="42.25161" lon="24.46281">
        <ele>259.489513</ele>
        <time>2022-03-07T09:28:22.495Z</time>
      </trkpt>
      <trkpt lat="42.25161" lon="24.46264">
        <ele>259.679899</ele>
        <time>2022-03-07T09:28:25.498Z</time>
      </trkpt>
      <trkpt lat="42.25162" lon="24.46248">
        <ele>259.869943</ele>
        <time>2022-03-07T09:28:28.512Z</time>
      </trkpt>
      <trkpt lat="42.25162" lon="24.46231">
        <ele>260.061223</ele>
        <time>2022-03-07T09:28:31.507Z</time>
      </trkpt>
      <trkpt lat="42.25163" lon="24.46214">
        <ele>260.24682</ele>
        <time>2022-03-07T09:28:34.495Z</time>
      </trkpt>
      <trkpt lat="42.25163" lon="24.46197">
        <ele>260.442648</ele>
        <time>2022-03-07T09:28:37.514Z</time>
      </trkpt>
      <trkpt lat="42.25163" lon="24.4618">
        <ele>260.638379</ele>
        <time>2022-03-07T09:28:40.492Z</time>
      </trkpt>
      <trkpt lat="42.25164" lon="24.46163">
        <ele>260.828392</ele>
        <time>2022-03-07T09:28:43.494Z</time>
      </trkpt>
      <trkpt lat="42.25164" lon="24.46146">
        <ele>261.023028</ele>
        <time>2022-03-07T09:28:46.510Z</time>
      </trkpt>
      <trkpt lat="42.25164" lon="24.46129">
        <ele>261.219939</ele>
        <time>2022-03-07T09:28:49.494Z</time>
      </trkpt>
      <trkpt lat="42.25165" lon="24.46112">
        <ele>261.414696</ele>
        <time>2022-03-07T09:28:52.495Z</time>
      </trkpt>
      <trkpt lat="42.25166" lon="24.46096">
        <ele>261.529767</ele>
        <time>2022-03-07T09:28:55.506Z</time>
      </trkpt>
      <trkpt lat="42.25166" lon="24.46078">
        <ele>261.460107</ele>
        <time>2022-03-07T09:28:58.539Z</time>
      </trkpt>
      <trkpt lat="42.25166" lon="24.4606">
        <ele>261.390056</ele>
        <time>2022-03-07T09:29:01.493Z</time>
      </trkpt>
      <trkpt lat="42.25167" lon="24.46043">
        <ele>261.322728</ele>
        <time>2022-03-07T09:29:04.500Z</time>
      </trkpt>
      <trkpt lat="42.25167" lon="24.46026">
        <ele>261.256607</ele>
        <time>2022-03-07T09:29:07.492Z</time>
      </trkpt>
      <trkpt lat="42.25167" lon="24.46009">
        <ele>261.189651</ele>
        <time>2022-03-07T09:29:10.486Z</time>
      </trkpt>
      <trkpt lat="42.25168" lon="24.45992">
        <ele>261.123063</ele>
        <time>2022-03-07T09:29:13.499Z</time>
      </trkpt>
      <trkpt lat="42.25168" lon="24.45976">
        <ele>261.057706</ele>
        <time>2022-03-07T09:29:16.500Z</time>
      </trkpt>
      <trkpt lat="42.25168" lon="24.45959">
        <ele>260.993115</ele>
        <time>2022-03-07T09:29:19.493Z</time>
      </trkpt>
      <trkpt lat="42.25169" lon="24.45942">
        <ele>260.926859</ele>
        <time>2022-03-07T09:29:22.501Z</time>
      </trkpt>
      <trkpt lat="42.2517" lon="24.45925">
        <ele>260.85787</ele>
        <time>2022-03-07T09:29:25.494Z</time>
      </trkpt>
      <trkpt lat="42.2517" lon="24.45907">
        <ele>260.790182</ele>
        <time>2022-03-07T09:29:28.485Z</time>
      </trkpt>
      <trkpt lat="42.2517" lon="24.4589">
        <ele>260.720913</ele>
        <time>2022-03-07T09:29:31.507Z</time>
      </trkpt>
      <trkpt lat="42.25171" lon="24.45872">
        <ele>260.652021</ele>
        <time>2022-03-07T09:29:34.493Z</time>
      </trkpt>
      <trkpt lat="42.25171" lon="24.45855">
        <ele>260.596607</ele>
        <time>2022-03-07T09:29:37.486Z</time>
      </trkpt>
      <trkpt lat="42.25171" lon="24.45838">
        <ele>260.604682</ele>
        <time>2022-03-07T09:29:40.498Z</time>
      </trkpt>
      <trkpt lat="42.25172" lon="24.45821">
        <ele>260.612662</ele>
        <time>2022-03-07T09:29:43.490Z</time>
      </trkpt>
      <trkpt lat="42.25172" lon="24.45804">
        <ele>260.620548</ele>
        <time>2022-03-07T09:29:46.492Z</time>
      </trkpt>
      <trkpt lat="42.25173" lon="24.45787">
        <ele>260.628399</ele>
        <time>2022-03-07T09:29:49.495Z</time>
      </trkpt>
      <trkpt lat="42.25173" lon="24.4577">
        <ele>260.636468</ele>
        <time>2022-03-07T09:29:52.549Z</time>
      </trkpt>
      <trkpt lat="42.25173" lon="24.45753">
        <ele>260.644445</ele>
        <time>2022-03-07T09:29:55.507Z</time>
      </trkpt>
      <trkpt lat="42.25174" lon="24.45736">
        <ele>260.652376</ele>
        <time>2022-03-07T09:29:58.524Z</time>
      </trkpt>
      <trkpt lat="42.25174" lon="24.45719">
        <ele>260.660414</ele>
        <time>2022-03-07T09:30:01.512Z</time>
      </trkpt>
      <trkpt lat="42.25175" lon="24.45702">
        <ele>260.668345</ele>
        <time>2022-03-07T09:30:04.503Z</time>
      </trkpt>
      <trkpt lat="42.25175" lon="24.45685">
        <ele>260.676133</ele>
        <time>2022-03-07T09:30:07.496Z</time>
      </trkpt>
      <trkpt lat="42.25175" lon="24.45669">
        <ele>260.68374</ele>
        <time>2022-03-07T09:30:10.501Z</time>
      </trkpt>
      <trkpt lat="42.25176" lon="24.45653">
        <ele>260.69132</ele>
        <time>2022-03-07T09:30:13.504Z</time>
      </trkpt>
      <trkpt lat="42.25176" lon="24.45637">
        <ele>260.698873</ele>
        <time>2022-03-07T09:30:16.492Z</time>
      </trkpt>
      <trkpt lat="42.25177" lon="24.45621">
        <ele>260.706537</ele>
        <time>2022-03-07T09:30:19.503Z</time>
      </trkpt>
      <trkpt lat="42.25178" lon="24.45604">
        <ele>260.859168</ele>
        <time>2022-03-07T09:30:22.509Z</time>
      </trkpt>
      <trkpt lat="42.25178" lon="24.45587">
        <ele>261.094019</ele>
        <time>2022-03-07T09:30:25.495Z</time>
      </trkpt>
      <trkpt lat="42.25179" lon="24.45571">
        <ele>261.320374</ele>
        <time>2022-03-07T09:30:28.497Z</time>
      </trkpt>
      <trkpt lat="42.25179" lon="24.45555">
        <ele>261.5468</ele>
        <time>2022-03-07T09:30:31.493Z</time>
      </trkpt>
      <trkpt lat="42.25179" lon="24.45539">
        <ele>261.774441</ele>
        <time>2022-03-07T09:30:34.510Z</time>
      </trkpt>
      <trkpt lat="42.25179" lon="24.45523">
        <ele>261.999463</ele>
        <time>2022-03-07T09:30:37.546Z</time>
      </trkpt>
      <trkpt lat="42.2518" lon="24.45507">
        <ele>262.227167</ele>
        <time>2022-03-07T09:30:40.510Z</time>
      </trkpt>
      <trkpt lat="42.2518" lon="24.4549">
        <ele>262.466109</ele>
        <time>2022-03-07T09:30:43.512Z</time>
      </trkpt>
      <trkpt lat="42.2518" lon="24.45473">
        <ele>262.705103</ele>
        <time>2022-03-07T09:30:46.491Z</time>
      </trkpt>
      <trkpt lat="42.25181" lon="24.45456">
        <ele>262.937448</ele>
        <time>2022-03-07T09:30:49.510Z</time>
      </trkpt>
      <trkpt lat="42.25182" lon="24.4544">
        <ele>263.166989</ele>
        <time>2022-03-07T09:30:52.507Z</time>
      </trkpt>
      <trkpt lat="42.25182" lon="24.45424">
        <ele>263.394693</ele>
        <time>2022-03-07T09:30:55.487Z</time>
      </trkpt>
      <trkpt lat="42.25183" lon="24.45408">
        <ele>263.621119</ele>
        <time>2022-03-07T09:30:58.496Z</time>
      </trkpt>
      <trkpt lat="42.25183" lon="24.45391">
        <ele>263.850227</ele>
        <time>2022-03-07T09:31:01.493Z</time>
      </trkpt>
      <trkpt lat="42.25184" lon="24.45375">
        <ele>264.0785</ele>
        <time>2022-03-07T09:31:04.496Z</time>
      </trkpt>
      <trkpt lat="42.25184" lon="24.45359">
        <ele>264.147826</ele>
        <time>2022-03-07T09:31:07.505Z</time>
      </trkpt>
      <trkpt lat="42.25185" lon="24.45343">
        <ele>264.178578</ele>
        <time>2022-03-07T09:31:10.543Z</time>
      </trkpt>
      <trkpt lat="42.25186" lon="24.45326">
        <ele>264.210843</ele>
        <time>2022-03-07T09:31:13.498Z</time>
      </trkpt>
      <trkpt lat="42.25187" lon="24.45309">
        <ele>264.243107</ele>
        <time>2022-03-07T09:31:16.505Z</time>
      </trkpt>
      <trkpt lat="42.25187" lon="24.45293">
        <ele>264.272848</ele>
        <time>2022-03-07T09:31:19.506Z</time>
      </trkpt>
      <trkpt lat="42.25187" lon="24.45278">
        <ele>264.301259</ele>
        <time>2022-03-07T09:31:22.511Z</time>
      </trkpt>
      <trkpt lat="42.25187" lon="24.45263">
        <ele>264.330811</ele>
        <time>2022-03-07T09:31:25.498Z</time>
      </trkpt>
      <trkpt lat="42.25187" lon="24.45247">
        <ele>264.360398</ele>
        <time>2022-03-07T09:31:28.501Z</time>
      </trkpt>
      <trkpt lat="42.25187" lon="24.45232">
        <ele>264.388246</ele>
        <time>2022-03-07T09:31:31.506Z</time>
      </trkpt>
      <trkpt lat="42.25188" lon="24.45218">
        <ele>264.415342</ele>
        <time>2022-03-07T09:31:34.492Z</time>
      </trkpt>
      <trkpt lat="42.25188" lon="24.45204">
        <ele>264.442238</ele>
        <time>2022-03-07T09:31:37.497Z</time>
      </trkpt>
      <trkpt lat="42.25188" lon="24.45189">
        <ele>264.470459</ele>
        <time>2022-03-07T09:31:40.508Z</time>
      </trkpt>
      <trkpt lat="42.25188" lon="24.45174">
        <ele>264.499249</ele>
        <time>2022-03-07T09:31:43.535Z</time>
      </trkpt>
      <trkpt lat="42.25188" lon="24.45158">
        <ele>264.528807</ele>
        <time>2022-03-07T09:31:46.499Z</time>
      </trkpt>
      <trkpt lat="42.25188" lon="24.45143">
        <ele>264.557804</ele>
        <time>2022-03-07T09:31:49.508Z</time>
      </trkpt>
      <trkpt lat="42.25189" lon="24.45127">
        <ele>264.560235</ele>
        <time>2022-03-07T09:31:52.510Z</time>
      </trkpt>
      <trkpt lat="42.2519" lon="24.45112">
        <ele>264.352975</ele>
        <time>2022-03-07T09:31:55.489Z</time>
      </trkpt>
      <trkpt lat="42.2519" lon="24.45096">
        <ele>264.1419</ele>
        <time>2022-03-07T09:31:58.503Z</time>
      </trkpt>
      <trkpt lat="42.25191" lon="24.4508">
        <ele>263.926242</ele>
        <time>2022-03-07T09:32:01.503Z</time>
      </trkpt>
      <trkpt lat="42.25192" lon="24.45064">
        <ele>263.708767</ele>
        <time>2022-03-07T09:32:04.494Z</time>
      </trkpt>
      <trkpt lat="42.25193" lon="24.45048">
        <ele>263.49579</ele>
        <time>2022-03-07T09:32:07.519Z</time>
      </trkpt>
      <trkpt lat="42.25193" lon="24.45032">
        <ele>263.282066</ele>
        <time>2022-03-07T09:32:10.496Z</time>
      </trkpt>
      <trkpt lat="42.25193" lon="24.45017">
        <ele>263.075061</ele>
        <time>2022-03-07T09:32:13.487Z</time>
      </trkpt>
      <trkpt lat="42.25194" lon="24.45002">
        <ele>262.874405</ele>
        <time>2022-03-07T09:32:16.530Z</time>
      </trkpt>
      <trkpt lat="42.25195" lon="24.44987">
        <ele>262.675198</ele>
        <time>2022-03-07T09:32:19.510Z</time>
      </trkpt>
      <trkpt lat="42.25195" lon="24.44972">
        <ele>262.464067</ele>
        <time>2022-03-07T09:32:22.527Z</time>
      </trkpt>
      <trkpt lat="42.25195" lon="24.44956">
        <ele>262.25421</ele>
        <time>2022-03-07T09:32:25.503Z</time>
      </trkpt>
      <trkpt lat="42.25196" lon="24.4494">
        <ele>262.041791</ele>
        <time>2022-03-07T09:32:28.505Z</time>
      </trkpt>
      <trkpt lat="42.25196" lon="24.44924">
        <ele>261.829318</ele>
        <time>2022-03-07T09:32:31.495Z</time>
      </trkpt>
      <trkpt lat="42.25197" lon="24.44909">
        <ele>261.627516</ele>
        <time>2022-03-07T09:32:34.504Z</time>
      </trkpt>
      <trkpt lat="42.25198" lon="24.44895">
        <ele>261.42778</ele>
        <time>2022-03-07T09:32:37.501Z</time>
      </trkpt>
      <trkpt lat="42.25198" lon="24.44879">
        <ele>261.429489</ele>
        <time>2022-03-07T09:32:40.495Z</time>
      </trkpt>
      <trkpt lat="42.25199" lon="24.44864">
        <ele>261.671322</ele>
        <time>2022-03-07T09:32:43.513Z</time>
      </trkpt>
      <trkpt lat="42.25199" lon="24.44848">
        <ele>261.918227</ele>
        <time>2022-03-07T09:32:46.503Z</time>
      </trkpt>
      <trkpt lat="42.252" lon="24.44833">
        <ele>262.163703</ele>
        <time>2022-03-07T09:32:49.488Z</time>
      </trkpt>
      <trkpt lat="42.252" lon="24.44817">
        <ele>262.41645</ele>
        <time>2022-03-07T09:32:52.502Z</time>
      </trkpt>
      <trkpt lat="42.25201" lon="24.44801">
        <ele>262.660222</ele>
        <time>2022-03-07T09:32:55.558Z</time>
      </trkpt>
      <trkpt lat="42.25202" lon="24.44786">
        <ele>262.903772</ele>
        <time>2022-03-07T09:32:58.499Z</time>
      </trkpt>
      <trkpt lat="42.25202" lon="24.44769">
        <ele>263.159728</ele>
        <time>2022-03-07T09:33:01.500Z</time>
      </trkpt>
      <trkpt lat="42.25202" lon="24.44753">
        <ele>263.414116</ele>
        <time>2022-03-07T09:33:04.496Z</time>
      </trkpt>
      <trkpt lat="42.25203" lon="24.44737">
        <ele>263.672269</ele>
        <time>2022-03-07T09:33:07.486Z</time>
      </trkpt>
      <trkpt lat="42.25204" lon="24.44721">
        <ele>263.926895</ele>
        <time>2022-03-07T09:33:10.494Z</time>
      </trkpt>
      <trkpt lat="42.25204" lon="24.44704">
        <ele>264.191167</ele>
        <time>2022-03-07T09:33:13.503Z</time>
      </trkpt>
      <trkpt lat="42.25205" lon="24.44686">
        <ele>264.47393</ele>
        <time>2022-03-07T09:33:16.516Z</time>
      </trkpt>
      <trkpt lat="42.25206" lon="24.44668">
        <ele>264.750735</ele>
        <time>2022-03-07T09:33:19.497Z</time>
      </trkpt>
      <trkpt lat="42.25206" lon="24.44651">
        <ele>265.016243</ele>
        <time>2022-03-07T09:33:22.530Z</time>
      </trkpt>
      <trkpt lat="42.25207" lon="24.44634">
        <ele>265.135476</ele>
        <time>2022-03-07T09:33:25.503Z</time>
      </trkpt>
      <trkpt lat="42.25208" lon="24.44617">
        <ele>265.140302</ele>
        <time>2022-03-07T09:33:28.547Z</time>
      </trkpt>
      <trkpt lat="42.25208" lon="24.44601">
        <ele>265.144986</ele>
        <time>2022-03-07T09:33:31.503Z</time>
      </trkpt>
      <trkpt lat="42.25209" lon="24.44583">
        <ele>265.149927</ele>
        <time>2022-03-07T09:33:34.509Z</time>
      </trkpt>
      <trkpt lat="42.2521" lon="24.44567">
        <ele>265.154583</ele>
        <time>2022-03-07T09:33:37.490Z</time>
      </trkpt>
      <trkpt lat="42.2521" lon="24.4455">
        <ele>265.159288</ele>
        <time>2022-03-07T09:33:40.506Z</time>
      </trkpt>
      <trkpt lat="42.2521" lon="24.44534">
        <ele>265.163998</ele>
        <time>2022-03-07T09:33:43.515Z</time>
      </trkpt>
      <trkpt lat="42.25211" lon="24.44517">
        <ele>265.168801</ele>
        <time>2022-03-07T09:33:46.493Z</time>
      </trkpt>
      <trkpt lat="42.25212" lon="24.44501">
        <ele>265.173366</ele>
        <time>2022-03-07T09:33:49.489Z</time>
      </trkpt>
      <trkpt lat="42.25213" lon="24.44485">
        <ele>265.177971</ele>
        <time>2022-03-07T09:33:52.517Z</time>
      </trkpt>
      <trkpt lat="42.25213" lon="24.44469">
        <ele>265.182534</ele>
        <time>2022-03-07T09:33:55.505Z</time>
      </trkpt>
      <trkpt lat="42.25212" lon="24.44453">
        <ele>265.186986</ele>
        <time>2022-03-07T09:33:58.494Z</time>
      </trkpt>
      <trkpt lat="42.25212" lon="24.44437">
        <ele>265.191467</ele>
        <time>2022-03-07T09:34:01.530Z</time>
      </trkpt>
      <trkpt lat="42.25212" lon="24.44421">
        <ele>265.19606</ele>
        <time>2022-03-07T09:34:04.505Z</time>
      </trkpt>
      <trkpt lat="42.25212" lon="24.44405">
        <ele>265.200651</ele>
        <time>2022-03-07T09:34:07.494Z</time>
      </trkpt>
      <trkpt lat="42.25213" lon="24.44388">
        <ele>265.528157</ele>
        <time>2022-03-07T09:34:10.504Z</time>
      </trkpt>
      <trkpt lat="42.25212" lon="24.44372">
        <ele>265.945626</ele>
        <time>2022-03-07T09:34:13.495Z</time>
      </trkpt>
      <trkpt lat="42.25211" lon="24.44356">
        <ele>266.351523</ele>
        <time>2022-03-07T09:34:16.501Z</time>
      </trkpt>
      <trkpt lat="42.2521" lon="24.4434">
        <ele>266.768306</ele>
        <time>2022-03-07T09:34:19.510Z</time>
      </trkpt>
      <trkpt lat="42.2521" lon="24.44324">
        <ele>267.177908</ele>
        <time>2022-03-07T09:34:22.496Z</time>
      </trkpt>
      <trkpt lat="42.25209" lon="24.44307">
        <ele>267.60792</ele>
        <time>2022-03-07T09:34:25.492Z</time>
      </trkpt>
      <trkpt lat="42.25209" lon="24.44292">
        <ele>268.004166</ele>
        <time>2022-03-07T09:34:28.544Z</time>
      </trkpt>
      <trkpt lat="42.25208" lon="24.44276">
        <ele>268.404324</ele>
        <time>2022-03-07T09:34:31.507Z</time>
      </trkpt>
      <trkpt lat="42.25206" lon="24.44261">
        <ele>268.784448</ele>
        <time>2022-03-07T09:34:34.505Z</time>
      </trkpt>
      <trkpt lat="42.25206" lon="24.44245">
        <ele>269.198577</ele>
        <time>2022-03-07T09:34:37.505Z</time>
      </trkpt>
      <trkpt lat="42.25206" lon="24.44229">
        <ele>269.617915</ele>
        <time>2022-03-07T09:34:40.500Z</time>
      </trkpt>
      <trkpt lat="42.25205" lon="24.44211">
        <ele>270.060887</ele>
        <time>2022-03-07T09:34:43.507Z</time>
      </trkpt>
      <trkpt lat="42.25204" lon="24.44194">
        <ele>270.49899</ele>
        <time>2022-03-07T09:34:46.501Z</time>
      </trkpt>
      <trkpt lat="42.25203" lon="24.44177">
        <ele>270.934804</ele>
        <time>2022-03-07T09:34:49.504Z</time>
      </trkpt>
      <trkpt lat="42.25202" lon="24.44161">
        <ele>271.349494</ele>
        <time>2022-03-07T09:34:52.494Z</time>
      </trkpt>
      <trkpt lat="42.25201" lon="24.44145">
        <ele>271.364277</ele>
        <time>2022-03-07T09:34:55.517Z</time>
      </trkpt>
      <trkpt lat="42.252" lon="24.44129">
        <ele>271.308429</ele>
        <time>2022-03-07T09:34:58.510Z</time>
      </trkpt>
      <trkpt lat="42.25199" lon="24.44112">
        <ele>271.250619</ele>
        <time>2022-03-07T09:35:01.534Z</time>
      </trkpt>
      <trkpt lat="42.25199" lon="24.44096">
        <ele>271.192946</ele>
        <time>2022-03-07T09:35:04.505Z</time>
      </trkpt>
      <trkpt lat="42.25198" lon="24.44079">
        <ele>271.13452</ele>
        <time>2022-03-07T09:35:07.523Z</time>
      </trkpt>
      <trkpt lat="42.25197" lon="24.44062">
        <ele>271.076364</ele>
        <time>2022-03-07T09:35:10.522Z</time>
      </trkpt>
      <trkpt lat="42.25196" lon="24.44044">
        <ele>271.01344</ele>
        <time>2022-03-07T09:35:13.497Z</time>
      </trkpt>
      <trkpt lat="42.25195" lon="24.44032">
        <ele>270.969531</ele>
        <time>2022-03-07T09:35:15.507Z</time>
      </trkpt>
      <trkpt lat="42.25194" lon="24.44019">
        <ele>270.92507</ele>
        <time>2022-03-07T09:35:17.504Z</time>
      </trkpt>
      <trkpt lat="42.25194" lon="24.44006">
        <ele>270.879512</ele>
        <time>2022-03-07T09:35:19.500Z</time>
      </trkpt>
      <trkpt lat="42.25193" lon="24.43988">
        <ele>270.81721</ele>
        <time>2022-03-07T09:35:22.528Z</time>
      </trkpt>
      <trkpt lat="42.25193" lon="24.43976">
        <ele>270.774545</ele>
        <time>2022-03-07T09:35:24.509Z</time>
      </trkpt>
      <trkpt lat="42.25192" lon="24.43958">
        <ele>270.714124</ele>
        <time>2022-03-07T09:35:27.500Z</time>
      </trkpt>
      <trkpt lat="42.25192" lon="24.4394">
        <ele>270.652375</ele>
        <time>2022-03-07T09:35:30.504Z</time>
      </trkpt>
      <trkpt lat="42.25192" lon="24.43922">
        <ele>270.589937</ele>
        <time>2022-03-07T09:35:33.614Z</time>
      </trkpt>
      <trkpt lat="42.25191" lon="24.43909">
        <ele>270.405329</ele>
        <time>2022-03-07T09:35:35.510Z</time>
      </trkpt>
      <trkpt lat="42.25189" lon="24.43894">
        <ele>270.08203</ele>
        <time>2022-03-07T09:35:37.493Z</time>
      </trkpt>
      <trkpt lat="42.25188" lon="24.43879">
        <ele>269.734393</ele>
        <time>2022-03-07T09:35:39.505Z</time>
      </trkpt>
      <trkpt lat="42.25186" lon="24.43863">
        <ele>269.396351</ele>
        <time>2022-03-07T09:35:41.511Z</time>
      </trkpt>
      <trkpt lat="42.25184" lon="24.43849">
        <ele>269.067578</ele>
        <time>2022-03-07T09:35:43.485Z</time>
      </trkpt>
      <trkpt lat="42.25182" lon="24.43834">
        <ele>268.748526</ele>
        <time>2022-03-07T09:35:45.495Z</time>
      </trkpt>
      <trkpt lat="42.2518" lon="24.43821">
        <ele>268.454789</ele>
        <time>2022-03-07T09:35:47.503Z</time>
      </trkpt>
      <trkpt lat="42.25179" lon="24.43808">
        <ele>268.152379</ele>
        <time>2022-03-07T09:35:49.519Z</time>
      </trkpt>
      <trkpt lat="42.25178" lon="24.43794">
        <ele>267.863173</ele>
        <time>2022-03-07T09:35:51.499Z</time>
      </trkpt>
      <trkpt lat="42.25177" lon="24.43782">
        <ele>267.593619</ele>
        <time>2022-03-07T09:35:53.503Z</time>
      </trkpt>
      <trkpt lat="42.25174" lon="24.43765">
        <ele>267.216268</ele>
        <time>2022-03-07T09:35:56.486Z</time>
      </trkpt>
      <trkpt lat="42.25173" lon="24.43749">
        <ele>266.858094</ele>
        <time>2022-03-07T09:35:59.516Z</time>
      </trkpt>
      <trkpt lat="42.25171" lon="24.43735">
        <ele>266.552535</ele>
        <time>2022-03-07T09:36:02.500Z</time>
      </trkpt>
      <trkpt lat="42.2517" lon="24.43722">
        <ele>266.264839</ele>
        <time>2022-03-07T09:36:05.512Z</time>
      </trkpt>
      <trkpt lat="42.25168" lon="24.43706">
        <ele>265.902473</ele>
        <time>2022-03-07T09:36:08.515Z</time>
      </trkpt>
      <trkpt lat="42.25167" lon="24.4369">
        <ele>265.534853</ele>
        <time>2022-03-07T09:36:11.502Z</time>
      </trkpt>
      <trkpt lat="42.25165" lon="24.43674">
        <ele>265.281622</ele>
        <time>2022-03-07T09:36:14.497Z</time>
      </trkpt>
      <trkpt lat="42.25163" lon="24.43661">
        <ele>265.635063</ele>
        <time>2022-03-07T09:36:17.519Z</time>
      </trkpt>
      <trkpt lat="42.25162" lon="24.43647">
        <ele>265.997226</ele>
        <time>2022-03-07T09:36:20.504Z</time>
      </trkpt>
      <trkpt lat="42.25161" lon="24.43633">
        <ele>266.346785</ele>
        <time>2022-03-07T09:36:23.509Z</time>
      </trkpt>
      <trkpt lat="42.25159" lon="24.43619">
        <ele>266.715639</ele>
        <time>2022-03-07T09:36:26.513Z</time>
      </trkpt>
      <trkpt lat="42.25157" lon="24.43605">
        <ele>267.091087</ele>
        <time>2022-03-07T09:36:29.510Z</time>
      </trkpt>
      <trkpt lat="42.25157" lon="24.43592">
        <ele>267.431027</ele>
        <time>2022-03-07T09:36:32.488Z</time>
      </trkpt>
      <trkpt lat="42.25156" lon="24.43578">
        <ele>267.794621</ele>
        <time>2022-03-07T09:36:35.543Z</time>
      </trkpt>
      <trkpt lat="42.25155" lon="24.43564">
        <ele>268.166443</ele>
        <time>2022-03-07T09:36:38.514Z</time>
      </trkpt>
      <trkpt lat="42.25155" lon="24.4355">
        <ele>268.528213</ele>
        <time>2022-03-07T09:36:41.489Z</time>
      </trkpt>
      <trkpt lat="42.25153" lon="24.43535">
        <ele>268.901764</ele>
        <time>2022-03-07T09:36:44.508Z</time>
      </trkpt>
      <trkpt lat="42.25152" lon="24.4352">
        <ele>269.296858</ele>
        <time>2022-03-07T09:36:47.510Z</time>
      </trkpt>
      <trkpt lat="42.25151" lon="24.43505">
        <ele>269.69749</ele>
        <time>2022-03-07T09:36:50.489Z</time>
      </trkpt>
      <trkpt lat="42.2515" lon="24.4349">
        <ele>270.090561</ele>
        <time>2022-03-07T09:36:53.506Z</time>
      </trkpt>
      <trkpt lat="42.25149" lon="24.43474">
        <ele>270.490092</ele>
        <time>2022-03-07T09:36:56.534Z</time>
      </trkpt>
      <trkpt lat="42.25149" lon="24.43458">
        <ele>270.912945</ele>
        <time>2022-03-07T09:36:59.485Z</time>
      </trkpt>
      <trkpt lat="42.25149" lon="24.43443">
        <ele>271.312476</ele>
        <time>2022-03-07T09:37:02.576Z</time>
      </trkpt>
      <trkpt lat="42.25148" lon="24.43426">
        <ele>271.488644</ele>
        <time>2022-03-07T09:37:05.497Z</time>
      </trkpt>
      <trkpt lat="42.25146" lon="24.43409">
        <ele>271.395094</ele>
        <time>2022-03-07T09:37:08.500Z</time>
      </trkpt>
      <trkpt lat="42.25146" lon="24.43393">
        <ele>271.308084</ele>
        <time>2022-03-07T09:37:11.505Z</time>
      </trkpt>
      <trkpt lat="42.25145" lon="24.43376">
        <ele>271.215466</ele>
        <time>2022-03-07T09:37:14.506Z</time>
      </trkpt>
      <trkpt lat="42.25144" lon="24.43361">
        <ele>271.131462</ele>
        <time>2022-03-07T09:37:17.498Z</time>
      </trkpt>
      <trkpt lat="42.25145" lon="24.43349">
        <ele>271.062452</ele>
        <time>2022-03-07T09:37:19.491Z</time>
      </trkpt>
      <trkpt lat="42.25144" lon="24.43331">
        <ele>270.967763</ele>
        <time>2022-03-07T09:37:22.502Z</time>
      </trkpt>
      <trkpt lat="42.25146" lon="24.43314">
        <ele>270.874129</ele>
        <time>2022-03-07T09:37:25.506Z</time>
      </trkpt>
      <trkpt lat="42.25146" lon="24.433">
        <ele>270.798564</ele>
        <time>2022-03-07T09:37:27.509Z</time>
      </trkpt>
      <trkpt lat="42.25147" lon="24.43287">
        <ele>270.722912</ele>
        <time>2022-03-07T09:37:29.543Z</time>
      </trkpt>
      <trkpt lat="42.25147" lon="24.43274">
        <ele>270.654447</ele>
        <time>2022-03-07T09:37:31.505Z</time>
      </trkpt>
      <trkpt lat="42.25148" lon="24.43262">
        <ele>270.586433</ele>
        <time>2022-03-07T09:37:33.504Z</time>
      </trkpt>
      <trkpt lat="42.25148" lon="24.43244">
        <ele>270.489056</ele>
        <time>2022-03-07T09:37:36.508Z</time>
      </trkpt>
      <trkpt lat="42.2515" lon="24.43232">
        <ele>270.421204</ele>
        <time>2022-03-07T09:37:38.497Z</time>
      </trkpt>
      <trkpt lat="42.25151" lon="24.43216">
        <ele>270.333249</ele>
        <time>2022-03-07T09:37:41.494Z</time>
      </trkpt>
      <trkpt lat="42.25153" lon="24.43201">
        <ele>270.25014</ele>
        <time>2022-03-07T09:37:44.509Z</time>
      </trkpt>
      <trkpt lat="42.25154" lon="24.43185">
        <ele>270.174711</ele>
        <time>2022-03-07T09:37:47.506Z</time>
      </trkpt>
      <trkpt lat="42.25154" lon="24.43169">
        <ele>270.107862</ele>
        <time>2022-03-07T09:37:50.505Z</time>
      </trkpt>
      <trkpt lat="42.25155" lon="24.43152">
        <ele>270.038788</ele>
        <time>2022-03-07T09:37:53.505Z</time>
      </trkpt>
      <trkpt lat="42.25156" lon="24.43136">
        <ele>269.974327</ele>
        <time>2022-03-07T09:37:56.505Z</time>
      </trkpt>
      <trkpt lat="42.25158" lon="24.43119">
        <ele>269.90715</ele>
        <time>2022-03-07T09:37:59.506Z</time>
      </trkpt>
      <trkpt lat="42.2516" lon="24.43102">
        <ele>269.837125</ele>
        <time>2022-03-07T09:38:02.485Z</time>
      </trkpt>
      <trkpt lat="42.25161" lon="24.43084">
        <ele>269.76492</ele>
        <time>2022-03-07T09:38:05.511Z</time>
      </trkpt>
      <trkpt lat="42.25162" lon="24.43067">
        <ele>269.695538</ele>
        <time>2022-03-07T09:38:08.535Z</time>
      </trkpt>
      <trkpt lat="42.25162" lon="24.4305">
        <ele>269.624678</ele>
        <time>2022-03-07T09:38:11.514Z</time>
      </trkpt>
      <trkpt lat="42.25163" lon="24.43032">
        <ele>269.553319</ele>
        <time>2022-03-07T09:38:14.540Z</time>
      </trkpt>
      <trkpt lat="42.25162" lon="24.43015">
        <ele>269.484341</ele>
        <time>2022-03-07T09:38:17.493Z</time>
      </trkpt>
      <trkpt lat="42.2516" lon="24.42998">
        <ele>269.416129</ele>
        <time>2022-03-07T09:38:20.506Z</time>
      </trkpt>
      <trkpt lat="42.25158" lon="24.42982">
        <ele>269.346524</ele>
        <time>2022-03-07T09:38:23.501Z</time>
      </trkpt>
      <trkpt lat="42.25155" lon="24.42964">
        <ele>269.275406</ele>
        <time>2022-03-07T09:38:26.491Z</time>
      </trkpt>
      <trkpt lat="42.25152" lon="24.42947">
        <ele>269.155214</ele>
        <time>2022-03-07T09:38:29.501Z</time>
      </trkpt>
      <trkpt lat="42.2515" lon="24.42929">
        <ele>268.874038</ele>
        <time>2022-03-07T09:38:32.510Z</time>
      </trkpt>
      <trkpt lat="42.25148" lon="24.42912">
        <ele>268.600034</ele>
        <time>2022-03-07T09:38:35.495Z</time>
      </trkpt>
      <trkpt lat="42.25146" lon="24.429">
        <ele>268.408619</ele>
        <time>2022-03-07T09:38:37.492Z</time>
      </trkpt>
      <trkpt lat="42.25144" lon="24.42888">
        <ele>268.214935</ele>
        <time>2022-03-07T09:38:39.500Z</time>
      </trkpt>
      <trkpt lat="42.25142" lon="24.42876">
        <ele>268.015162</ele>
        <time>2022-03-07T09:38:41.513Z</time>
      </trkpt>
      <trkpt lat="42.25139" lon="24.42864">
        <ele>267.825025</ele>
        <time>2022-03-07T09:38:43.537Z</time>
      </trkpt>
      <trkpt lat="42.25136" lon="24.42847">
        <ele>267.544132</ele>
        <time>2022-03-07T09:38:46.507Z</time>
      </trkpt>
      <trkpt lat="42.25132" lon="24.4283">
        <ele>267.264661</ele>
        <time>2022-03-07T09:38:49.510Z</time>
      </trkpt>
      <trkpt lat="42.25129" lon="24.42813">
        <ele>266.991554</ele>
        <time>2022-03-07T09:38:52.507Z</time>
      </trkpt>
      <trkpt lat="42.25127" lon="24.42797">
        <ele>266.741102</ele>
        <time>2022-03-07T09:38:55.508Z</time>
      </trkpt>
      <trkpt lat="42.25125" lon="24.42785">
        <ele>266.548147</ele>
        <time>2022-03-07T09:38:57.504Z</time>
      </trkpt>
      <trkpt lat="42.25123" lon="24.42768">
        <ele>266.28276</ele>
        <time>2022-03-07T09:39:00.523Z</time>
      </trkpt>
      <trkpt lat="42.25121" lon="24.42756">
        <ele>266.091344</ele>
        <time>2022-03-07T09:39:02.541Z</time>
      </trkpt>
      <trkpt lat="42.25119" lon="24.4274">
        <ele>265.826633</ele>
        <time>2022-03-07T09:39:05.507Z</time>
      </trkpt>
      <trkpt lat="42.25117" lon="24.42722">
        <ele>265.549527</ele>
        <time>2022-03-07T09:39:08.492Z</time>
      </trkpt>
      <trkpt lat="42.25115" lon="24.42705">
        <ele>265.552944</ele>
        <time>2022-03-07T09:39:11.500Z</time>
      </trkpt>
      <trkpt lat="42.25112" lon="24.42687">
        <ele>265.823661</ele>
        <time>2022-03-07T09:39:14.502Z</time>
      </trkpt>
      <trkpt lat="42.25109" lon="24.42669">
        <ele>266.102097</ele>
        <time>2022-03-07T09:39:17.505Z</time>
      </trkpt>
      <trkpt lat="42.25107" lon="24.42657">
        <ele>266.292072</ele>
        <time>2022-03-07T09:39:19.503Z</time>
      </trkpt>
      <trkpt lat="42.25104" lon="24.42639">
        <ele>266.570654</ele>
        <time>2022-03-07T09:39:22.549Z</time>
      </trkpt>
      <trkpt lat="42.25103" lon="24.42627">
        <ele>266.759853</ele>
        <time>2022-03-07T09:39:24.515Z</time>
      </trkpt>
      <trkpt lat="42.25101" lon="24.42609">
        <ele>267.028223</ele>
        <time>2022-03-07T09:39:27.513Z</time>
      </trkpt>
      <trkpt lat="42.25099" lon="24.42597">
        <ele>267.21479</ele>
        <time>2022-03-07T09:39:29.498Z</time>
      </trkpt>
      <trkpt lat="42.25097" lon="24.42585">
        <ele>267.402035</ele>
        <time>2022-03-07T09:39:31.498Z</time>
      </trkpt>
      <trkpt lat="42.25098" lon="24.42568">
        <ele>267.667084</ele>
        <time>2022-03-07T09:39:34.512Z</time>
      </trkpt>
      <trkpt lat="42.25103" lon="24.42553">
        <ele>267.914421</ele>
        <time>2022-03-07T09:39:37.501Z</time>
      </trkpt>
      <trkpt lat="42.25109" lon="24.42539">
        <ele>268.155022</ele>
        <time>2022-03-07T09:39:40.508Z</time>
      </trkpt>
      <trkpt lat="42.25114" lon="24.42525">
        <ele>268.399638</ele>
        <time>2022-03-07T09:39:43.510Z</time>
      </trkpt>
      <trkpt lat="42.25121" lon="24.4251">
        <ele>268.667624</ele>
        <time>2022-03-07T09:39:46.503Z</time>
      </trkpt>
      <trkpt lat="42.25127" lon="24.42501">
        <ele>268.854601</ele>
        <time>2022-03-07T09:39:48.495Z</time>
      </trkpt>
      <trkpt lat="42.25135" lon="24.42487">
        <ele>269.148034</ele>
        <time>2022-03-07T09:39:51.510Z</time>
      </trkpt>
      <trkpt lat="42.25141" lon="24.42477">
        <ele>269.5607</ele>
        <time>2022-03-07T09:39:53.502Z</time>
      </trkpt>
      <trkpt lat="42.25147" lon="24.42468">
        <ele>269.971222</ele>
        <time>2022-03-07T09:39:55.509Z</time>
      </trkpt>
      <trkpt lat="42.25153" lon="24.42459">
        <ele>270.389202</ele>
        <time>2022-03-07T09:39:57.536Z</time>
      </trkpt>
      <trkpt lat="42.25162" lon="24.42445">
        <ele>270.994032</ele>
        <time>2022-03-07T09:40:00.498Z</time>
      </trkpt>
      <trkpt lat="42.25169" lon="24.42431">
        <ele>271.568662</ele>
        <time>2022-03-07T09:40:03.499Z</time>
      </trkpt>
      <trkpt lat="42.25176" lon="24.42417">
        <ele>272.151068</ele>
        <time>2022-03-07T09:40:06.495Z</time>
      </trkpt>
      <trkpt lat="42.25184" lon="24.42403">
        <ele>272.703868</ele>
        <time>2022-03-07T09:40:09.509Z</time>
      </trkpt>
      <trkpt lat="42.25191" lon="24.4239">
        <ele>273.254423</ele>
        <time>2022-03-07T09:40:12.500Z</time>
      </trkpt>
      <trkpt lat="42.25199" lon="24.42376">
        <ele>273.850509</ele>
        <time>2022-03-07T09:40:15.494Z</time>
      </trkpt>
      <trkpt lat="42.25207" lon="24.42364">
        <ele>274.391749</ele>
        <time>2022-03-07T09:40:18.512Z</time>
      </trkpt>
      <trkpt lat="42.25214" lon="24.42352">
        <ele>274.910216</ele>
        <time>2022-03-07T09:40:21.514Z</time>
      </trkpt>
      <trkpt lat="42.25221" lon="24.4234">
        <ele>275.420625</ele>
        <time>2022-03-07T09:40:24.500Z</time>
      </trkpt>
      <trkpt lat="42.25229" lon="24.42329">
        <ele>275.927855</ele>
        <time>2022-03-07T09:40:27.502Z</time>
      </trkpt>
      <trkpt lat="42.25236" lon="24.42318">
        <ele>276.434031</ele>
        <time>2022-03-07T09:40:30.525Z</time>
      </trkpt>
      <trkpt lat="42.25245" lon="24.42307">
        <ele>276.969794</ele>
        <time>2022-03-07T09:40:33.510Z</time>
      </trkpt>
      <trkpt lat="42.25253" lon="24.42296">
        <ele>277.24039</ele>
        <time>2022-03-07T09:40:36.524Z</time>
      </trkpt>
      <trkpt lat="42.2526" lon="24.42286">
        <ele>277.198995</ele>
        <time>2022-03-07T09:40:39.499Z</time>
      </trkpt>
      <trkpt lat="42.25268" lon="24.42277">
        <ele>277.157275</ele>
        <time>2022-03-07T09:40:42.538Z</time>
      </trkpt>
      <trkpt lat="42.25275" lon="24.42267">
        <ele>277.114942</ele>
        <time>2022-03-07T09:40:45.492Z</time>
      </trkpt>
      <trkpt lat="42.25283" lon="24.42256">
        <ele>277.070991</ele>
        <time>2022-03-07T09:40:48.491Z</time>
      </trkpt>
      <trkpt lat="42.25292" lon="24.42247">
        <ele>277.025472</ele>
        <time>2022-03-07T09:40:51.500Z</time>
      </trkpt>
      <trkpt lat="42.25301" lon="24.42237">
        <ele>276.978766</ele>
        <time>2022-03-07T09:40:54.504Z</time>
      </trkpt>
      <trkpt lat="42.2531" lon="24.42227">
        <ele>276.929851</ele>
        <time>2022-03-07T09:40:57.495Z</time>
      </trkpt>
      <trkpt lat="42.25319" lon="24.42216">
        <ele>276.880131</ele>
        <time>2022-03-07T09:41:00.511Z</time>
      </trkpt>
      <trkpt lat="42.25328" lon="24.42205">
        <ele>276.831229</ele>
        <time>2022-03-07T09:41:03.500Z</time>
      </trkpt>
      <trkpt lat="42.25338" lon="24.42194">
        <ele>276.779925</ele>
        <time>2022-03-07T09:41:06.508Z</time>
      </trkpt>
      <trkpt lat="42.25347" lon="24.42181">
        <ele>276.726906</ele>
        <time>2022-03-07T09:41:09.510Z</time>
      </trkpt>
      <trkpt lat="42.25357" lon="24.4217">
        <ele>276.675904</ele>
        <time>2022-03-07T09:41:12.495Z</time>
      </trkpt>
      <trkpt lat="42.25366" lon="24.42158">
        <ele>276.624583</ele>
        <time>2022-03-07T09:41:15.497Z</time>
      </trkpt>
      <trkpt lat="42.25375" lon="24.42146">
        <ele>276.57405</ele>
        <time>2022-03-07T09:41:18.506Z</time>
      </trkpt>
      <trkpt lat="42.25384" lon="24.42134">
        <ele>276.481821</ele>
        <time>2022-03-07T09:41:21.497Z</time>
      </trkpt>
      <trkpt lat="42.25393" lon="24.42122">
        <ele>276.274993</ele>
        <time>2022-03-07T09:41:24.515Z</time>
      </trkpt>
      <trkpt lat="42.25402" lon="24.4211">
        <ele>276.060304</ele>
        <time>2022-03-07T09:41:27.511Z</time>
      </trkpt>
      <trkpt lat="42.25412" lon="24.42097">
        <ele>275.84043</ele>
        <time>2022-03-07T09:41:30.499Z</time>
      </trkpt>
      <trkpt lat="42.25421" lon="24.42086">
        <ele>275.628739</ele>
        <time>2022-03-07T09:41:33.497Z</time>
      </trkpt>
      <trkpt lat="42.25431" lon="24.42075">
        <ele>275.412249</ele>
        <time>2022-03-07T09:41:36.505Z</time>
      </trkpt>
      <trkpt lat="42.25441" lon="24.42062">
        <ele>275.18983</ele>
        <time>2022-03-07T09:41:39.562Z</time>
      </trkpt>
      <trkpt lat="42.2545" lon="24.4205">
        <ele>274.968199</ele>
        <time>2022-03-07T09:41:42.485Z</time>
      </trkpt>
      <trkpt lat="42.2546" lon="24.42038">
        <ele>274.748276</ele>
        <time>2022-03-07T09:41:45.519Z</time>
      </trkpt>
      <trkpt lat="42.25467" lon="24.4203">
        <ele>274.597088</ele>
        <time>2022-03-07T09:41:47.494Z</time>
      </trkpt>
      <trkpt lat="42.25474" lon="24.42021">
        <ele>274.448372</ele>
        <time>2022-03-07T09:41:49.509Z</time>
      </trkpt>
      <trkpt lat="42.25483" lon="24.42009">
        <ele>274.228378</ele>
        <time>2022-03-07T09:41:52.514Z</time>
      </trkpt>
      <trkpt lat="42.25493" lon="24.41997">
        <ele>274.013338</ele>
        <time>2022-03-07T09:41:55.509Z</time>
      </trkpt>
      <trkpt lat="42.25502" lon="24.41985">
        <ele>273.800351</ele>
        <time>2022-03-07T09:41:58.510Z</time>
      </trkpt>
      <trkpt lat="42.25511" lon="24.41973">
        <ele>273.586517</ele>
        <time>2022-03-07T09:42:01.504Z</time>
      </trkpt>
      <trkpt lat="42.2552" lon="24.41961">
        <ele>273.527231</ele>
        <time>2022-03-07T09:42:04.514Z</time>
      </trkpt>
      <trkpt lat="42.2553" lon="24.41949">
        <ele>273.506389</ele>
        <time>2022-03-07T09:42:07.494Z</time>
      </trkpt>
      <trkpt lat="42.25539" lon="24.41938">
        <ele>273.485548</ele>
        <time>2022-03-07T09:42:10.493Z</time>
      </trkpt>
      <trkpt lat="42.25549" lon="24.41926">
        <ele>273.464292</ele>
        <time>2022-03-07T09:42:13.524Z</time>
      </trkpt>
      <trkpt lat="42.25558" lon="24.41914">
        <ele>273.443086</ele>
        <time>2022-03-07T09:42:16.501Z</time>
      </trkpt>
      <trkpt lat="42.25567" lon="24.41903">
        <ele>273.422806</ele>
        <time>2022-03-07T09:42:19.540Z</time>
      </trkpt>
      <trkpt lat="42.25576" lon="24.41892">
        <ele>273.402735</ele>
        <time>2022-03-07T09:42:22.487Z</time>
      </trkpt>
      <trkpt lat="42.25585" lon="24.41881">
        <ele>273.38387</ele>
        <time>2022-03-07T09:42:25.506Z</time>
      </trkpt>
      <trkpt lat="42.25594" lon="24.4187">
        <ele>273.364407</ele>
        <time>2022-03-07T09:42:28.497Z</time>
      </trkpt>
      <trkpt lat="42.25602" lon="24.41858">
        <ele>273.344163</ele>
        <time>2022-03-07T09:42:31.504Z</time>
      </trkpt>
      <trkpt lat="42.25612" lon="24.41847">
        <ele>273.323764</ele>
        <time>2022-03-07T09:42:34.499Z</time>
      </trkpt>
      <trkpt lat="42.25621" lon="24.41836">
        <ele>273.303187</ele>
        <time>2022-03-07T09:42:37.512Z</time>
      </trkpt>
      <trkpt lat="42.25631" lon="24.41825">
        <ele>273.282749</ele>
        <time>2022-03-07T09:42:40.504Z</time>
      </trkpt>
      <trkpt lat="42.2564" lon="24.41814">
        <ele>273.26215</ele>
        <time>2022-03-07T09:42:43.505Z</time>
      </trkpt>
      <trkpt lat="42.25649" lon="24.41802">
        <ele>273.339109</ele>
        <time>2022-03-07T09:42:46.506Z</time>
      </trkpt>
      <trkpt lat="42.25658" lon="24.41792">
        <ele>273.578431</ele>
        <time>2022-03-07T09:42:49.502Z</time>
      </trkpt>
      <trkpt lat="42.25667" lon="24.41781">
        <ele>273.814343</ele>
        <time>2022-03-07T09:42:52.546Z</time>
      </trkpt>
      <trkpt lat="42.25676" lon="24.4177">
        <ele>274.038255</ele>
        <time>2022-03-07T09:42:55.509Z</time>
      </trkpt>
      <trkpt lat="42.25684" lon="24.4176">
        <ele>274.262669</ele>
        <time>2022-03-07T09:42:58.508Z</time>
      </trkpt>
      <trkpt lat="42.25693" lon="24.41748">
        <ele>274.495861</ele>
        <time>2022-03-07T09:43:01.487Z</time>
      </trkpt>
      <trkpt lat="42.25702" lon="24.41737">
        <ele>274.730058</ele>
        <time>2022-03-07T09:43:04.502Z</time>
      </trkpt>
      <trkpt lat="42.2571" lon="24.41725">
        <ele>274.968672</ele>
        <time>2022-03-07T09:43:07.498Z</time>
      </trkpt>
      <trkpt lat="42.25719" lon="24.41714">
        <ele>275.208058</ele>
        <time>2022-03-07T09:43:10.515Z</time>
      </trkpt>
      <trkpt lat="42.25728" lon="24.41703">
        <ele>275.439639</ele>
        <time>2022-03-07T09:43:13.496Z</time>
      </trkpt>
      <trkpt lat="42.25737" lon="24.41692">
        <ele>275.676517</ele>
        <time>2022-03-07T09:43:16.507Z</time>
      </trkpt>
      <trkpt lat="42.25746" lon="24.41681">
        <ele>275.918688</ele>
        <time>2022-03-07T09:43:19.517Z</time>
      </trkpt>
      <trkpt lat="42.25756" lon="24.41669">
        <ele>276.164227</ele>
        <time>2022-03-07T09:43:22.496Z</time>
      </trkpt>
      <trkpt lat="42.25765" lon="24.41658">
        <ele>276.408412</ele>
        <time>2022-03-07T09:43:25.507Z</time>
      </trkpt>
      <trkpt lat="42.25774" lon="24.41647">
        <ele>276.645289</ele>
        <time>2022-03-07T09:43:28.495Z</time>
      </trkpt>
      <trkpt lat="42.25783" lon="24.41635">
        <ele>276.612776</ele>
        <time>2022-03-07T09:43:31.512Z</time>
      </trkpt>
      <trkpt lat="42.25792" lon="24.41623">
        <ele>276.381287</ele>
        <time>2022-03-07T09:43:34.499Z</time>
      </trkpt>
      <trkpt lat="42.25801" lon="24.41611">
        <ele>276.153517</ele>
        <time>2022-03-07T09:43:37.509Z</time>
      </trkpt>
      <trkpt lat="42.2581" lon="24.416">
        <ele>275.926326</ele>
        <time>2022-03-07T09:43:40.520Z</time>
      </trkpt>
      <trkpt lat="42.25819" lon="24.41587">
        <ele>275.692278</ele>
        <time>2022-03-07T09:43:43.505Z</time>
      </trkpt>
      <trkpt lat="42.25828" lon="24.41575">
        <ele>275.458535</ele>
        <time>2022-03-07T09:43:46.528Z</time>
      </trkpt>
      <trkpt lat="42.25837" lon="24.41564">
        <ele>275.230872</ele>
        <time>2022-03-07T09:43:49.502Z</time>
      </trkpt>
      <trkpt lat="42.25846" lon="24.41553">
        <ele>275.003682</ele>
        <time>2022-03-07T09:43:52.514Z</time>
      </trkpt>
      <trkpt lat="42.25855" lon="24.41541">
        <ele>274.778957</ele>
        <time>2022-03-07T09:43:55.496Z</time>
      </trkpt>
      <trkpt lat="42.25864" lon="24.4153">
        <ele>274.549024</ele>
        <time>2022-03-07T09:43:58.515Z</time>
      </trkpt>
      <trkpt lat="42.25874" lon="24.41518">
        <ele>274.316791</ele>
        <time>2022-03-07T09:44:01.526Z</time>
      </trkpt>
      <trkpt lat="42.25883" lon="24.41507">
        <ele>274.087337</ele>
        <time>2022-03-07T09:44:04.502Z</time>
      </trkpt>
      <trkpt lat="42.25892" lon="24.41496">
        <ele>273.859675</ele>
        <time>2022-03-07T09:44:07.504Z</time>
      </trkpt>
      <trkpt lat="42.25901" lon="24.41484">
        <ele>273.63432</ele>
        <time>2022-03-07T09:44:10.503Z</time>
      </trkpt>
      <trkpt lat="42.2591" lon="24.41473">
        <ele>273.465018</ele>
        <time>2022-03-07T09:44:13.533Z</time>
      </trkpt>
      <trkpt lat="42.25919" lon="24.41461">
        <ele>273.528049</ele>
        <time>2022-03-07T09:44:16.501Z</time>
      </trkpt>
      <trkpt lat="42.25929" lon="24.41449">
        <ele>273.591423</ele>
        <time>2022-03-07T09:44:19.513Z</time>
      </trkpt>
      <trkpt lat="42.25939" lon="24.41438">
        <ele>273.656556</ele>
        <time>2022-03-07T09:44:22.504Z</time>
      </trkpt>
      <trkpt lat="42.25948" lon="24.41426">
        <ele>273.720828</ele>
        <time>2022-03-07T09:44:25.519Z</time>
      </trkpt>
      <trkpt lat="42.25957" lon="24.41414">
        <ele>273.78322</ele>
        <time>2022-03-07T09:44:28.510Z</time>
      </trkpt>
      <trkpt lat="42.25966" lon="24.41403">
        <ele>273.84315</ele>
        <time>2022-03-07T09:44:31.495Z</time>
      </trkpt>
      <trkpt lat="42.25975" lon="24.41392">
        <ele>273.902455</ele>
        <time>2022-03-07T09:44:34.503Z</time>
      </trkpt>
      <trkpt lat="42.25984" lon="24.41382">
        <ele>273.962751</ele>
        <time>2022-03-07T09:44:37.490Z</time>
      </trkpt>
      <trkpt lat="42.25993" lon="24.4137">
        <ele>274.024768</ele>
        <time>2022-03-07T09:44:40.527Z</time>
      </trkpt>
      <trkpt lat="42.26003" lon="24.4136">
        <ele>274.085792</ele>
        <time>2022-03-07T09:44:43.513Z</time>
      </trkpt>
      <trkpt lat="42.26012" lon="24.4135">
        <ele>274.146308</ele>
        <time>2022-03-07T09:44:46.492Z</time>
      </trkpt>
      <trkpt lat="42.26022" lon="24.4134">
        <ele>274.207723</ele>
        <time>2022-03-07T09:44:49.508Z</time>
      </trkpt>
      <trkpt lat="42.26032" lon="24.4133">
        <ele>274.268292</ele>
        <time>2022-03-07T09:44:52.505Z</time>
      </trkpt>
      <trkpt lat="42.26041" lon="24.4132">
        <ele>274.326222</ele>
        <time>2022-03-07T09:44:55.496Z</time>
      </trkpt>
      <trkpt lat="42.26051" lon="24.41311">
        <ele>274.455991</ele>
        <time>2022-03-07T09:44:58.512Z</time>
      </trkpt>
      <trkpt lat="42.2606" lon="24.41302">
        <ele>274.608231</ele>
        <time>2022-03-07T09:45:01.494Z</time>
      </trkpt>
      <trkpt lat="42.26069" lon="24.41292">
        <ele>274.771382</ele>
        <time>2022-03-07T09:45:04.505Z</time>
      </trkpt>
      <trkpt lat="42.26079" lon="24.41283">
        <ele>274.937967</ele>
        <time>2022-03-07T09:45:07.529Z</time>
      </trkpt>
      <trkpt lat="42.26089" lon="24.41274">
        <ele>275.102706</ele>
        <time>2022-03-07T09:45:10.519Z</time>
      </trkpt>
      <trkpt lat="42.26099" lon="24.41264">
        <ele>275.276019</ele>
        <time>2022-03-07T09:45:13.532Z</time>
      </trkpt>
      <trkpt lat="42.26109" lon="24.41255">
        <ele>275.440799</ele>
        <time>2022-03-07T09:45:16.507Z</time>
      </trkpt>
      <trkpt lat="42.26119" lon="24.41244">
        <ele>275.618198</ele>
        <time>2022-03-07T09:45:19.504Z</time>
      </trkpt>
      <trkpt lat="42.2613" lon="24.41234">
        <ele>275.801956</ele>
        <time>2022-03-07T09:45:22.494Z</time>
      </trkpt>
      <trkpt lat="42.26141" lon="24.41223">
        <ele>275.988174</ele>
        <time>2022-03-07T09:45:25.497Z</time>
      </trkpt>
      <trkpt lat="42.26152" lon="24.41212">
        <ele>276.173155</ele>
        <time>2022-03-07T09:45:28.513Z</time>
      </trkpt>
      <trkpt lat="42.26162" lon="24.41201">
        <ele>276.353601</ele>
        <time>2022-03-07T09:45:31.510Z</time>
      </trkpt>
      <trkpt lat="42.26172" lon="24.41191">
        <ele>276.529382</ele>
        <time>2022-03-07T09:45:34.513Z</time>
      </trkpt>
      <trkpt lat="42.26183" lon="24.41181">
        <ele>276.709552</ele>
        <time>2022-03-07T09:45:37.502Z</time>
      </trkpt>
      <trkpt lat="42.26194" lon="24.41172">
        <ele>276.936859</ele>
        <time>2022-03-07T09:45:40.516Z</time>
      </trkpt>
      <trkpt lat="42.26203" lon="24.41161">
        <ele>277.290414</ele>
        <time>2022-03-07T09:45:43.514Z</time>
      </trkpt>
      <trkpt lat="42.26212" lon="24.4115">
        <ele>277.644359</ele>
        <time>2022-03-07T09:45:46.499Z</time>
      </trkpt>
      <trkpt lat="42.26221" lon="24.41136">
        <ele>278.020724</ele>
        <time>2022-03-07T09:45:49.500Z</time>
      </trkpt>
      <trkpt lat="42.26229" lon="24.41122">
        <ele>278.39573</ele>
        <time>2022-03-07T09:45:52.546Z</time>
      </trkpt>
      <trkpt lat="42.26237" lon="24.41108">
        <ele>278.771161</ele>
        <time>2022-03-07T09:45:55.494Z</time>
      </trkpt>
      <trkpt lat="42.26245" lon="24.41093">
        <ele>279.132999</ele>
        <time>2022-03-07T09:45:58.498Z</time>
      </trkpt>
      <trkpt lat="42.26252" lon="24.41079">
        <ele>279.499885</ele>
        <time>2022-03-07T09:46:01.510Z</time>
      </trkpt>
      <trkpt lat="42.26257" lon="24.41069">
        <ele>279.756304</ele>
        <time>2022-03-07T09:46:03.538Z</time>
      </trkpt>
      <trkpt lat="42.26261" lon="24.41058">
        <ele>280.016614</ele>
        <time>2022-03-07T09:46:05.509Z</time>
      </trkpt>
      <trkpt lat="42.26269" lon="24.41044">
        <ele>280.376535</ele>
        <time>2022-03-07T09:46:08.499Z</time>
      </trkpt>
      <trkpt lat="42.26276" lon="24.41029">
        <ele>280.756987</ele>
        <time>2022-03-07T09:46:11.494Z</time>
      </trkpt>
      <trkpt lat="42.26284" lon="24.41016">
        <ele>281.100052</ele>
        <time>2022-03-07T09:46:14.511Z</time>
      </trkpt>
      <trkpt lat="42.26291" lon="24.41002">
        <ele>281.45511</ele>
        <time>2022-03-07T09:46:17.509Z</time>
      </trkpt>
      <trkpt lat="42.26297" lon="24.40988">
        <ele>281.800864</ele>
        <time>2022-03-07T09:46:20.510Z</time>
      </trkpt>
      <trkpt lat="42.26304" lon="24.40974">
        <ele>282.096578</ele>
        <time>2022-03-07T09:46:23.515Z</time>
      </trkpt>
      <trkpt lat="42.26311" lon="24.40962">
        <ele>282.356211</ele>
        <time>2022-03-07T09:46:26.499Z</time>
      </trkpt>
      <trkpt lat="42.26318" lon="24.40949">
        <ele>282.621267</ele>
        <time>2022-03-07T09:46:29.519Z</time>
      </trkpt>
      <trkpt lat="42.26325" lon="24.40937">
        <ele>282.88145</ele>
        <time>2022-03-07T09:46:32.537Z</time>
      </trkpt>
      <trkpt lat="42.26334" lon="24.40925">
        <ele>283.159309</ele>
        <time>2022-03-07T09:46:35.506Z</time>
      </trkpt>
      <trkpt lat="42.26343" lon="24.40912">
        <ele>283.459997</ele>
        <time>2022-03-07T09:46:38.505Z</time>
      </trkpt>
      <trkpt lat="42.26349" lon="24.40903">
        <ele>283.671175</ele>
        <time>2022-03-07T09:46:40.534Z</time>
      </trkpt>
      <trkpt lat="42.26358" lon="24.4089">
        <ele>283.973755</ele>
        <time>2022-03-07T09:46:43.507Z</time>
      </trkpt>
      <trkpt lat="42.26364" lon="24.40881">
        <ele>284.179365</ele>
        <time>2022-03-07T09:46:45.520Z</time>
      </trkpt>
      <trkpt lat="42.26373" lon="24.40869">
        <ele>284.473588</ele>
        <time>2022-03-07T09:46:48.490Z</time>
      </trkpt>
      <trkpt lat="42.26381" lon="24.40857">
        <ele>284.736307</ele>
        <time>2022-03-07T09:46:51.507Z</time>
      </trkpt>
      <trkpt lat="42.2639" lon="24.40846">
        <ele>285.011328</ele>
        <time>2022-03-07T09:46:54.505Z</time>
      </trkpt>
      <trkpt lat="42.26396" lon="24.40837">
        <ele>285.219079</ele>
        <time>2022-03-07T09:46:56.503Z</time>
      </trkpt>
      <trkpt lat="42.26406" lon="24.40825">
        <ele>285.51353</ele>
        <time>2022-03-07T09:46:59.506Z</time>
      </trkpt>
      <trkpt lat="42.26415" lon="24.40813">
        <ele>285.809128</ele>
        <time>2022-03-07T09:47:02.481Z</time>
      </trkpt>
      <trkpt lat="42.26425" lon="24.40801">
        <ele>285.830495</ele>
        <time>2022-03-07T09:47:05.509Z</time>
      </trkpt>
      <trkpt lat="42.26434" lon="24.40789">
        <ele>285.341301</ele>
        <time>2022-03-07T09:47:08.551Z</time>
      </trkpt>
      <trkpt lat="42.26443" lon="24.40777">
        <ele>284.85557</ele>
        <time>2022-03-07T09:47:11.518Z</time>
      </trkpt>
      <trkpt lat="42.26452" lon="24.40766">
        <ele>284.376212</ele>
        <time>2022-03-07T09:47:14.494Z</time>
      </trkpt>
      <trkpt lat="42.26461" lon="24.40754">
        <ele>283.887019</ele>
        <time>2022-03-07T09:47:17.498Z</time>
      </trkpt>
      <trkpt lat="42.2647" lon="24.40742">
        <ele>283.396206</ele>
        <time>2022-03-07T09:47:20.520Z</time>
      </trkpt>
      <trkpt lat="42.2648" lon="24.4073">
        <ele>282.902624</ele>
        <time>2022-03-07T09:47:23.506Z</time>
      </trkpt>
      <trkpt lat="42.26487" lon="24.40722">
        <ele>282.550077</ele>
        <time>2022-03-07T09:47:25.514Z</time>
      </trkpt>
      <trkpt lat="42.26496" lon="24.40711">
        <ele>282.084106</ele>
        <time>2022-03-07T09:47:28.502Z</time>
      </trkpt>
      <trkpt lat="42.26505" lon="24.40699">
        <ele>281.586184</ele>
        <time>2022-03-07T09:47:31.544Z</time>
      </trkpt>
      <trkpt lat="42.26514" lon="24.40687">
        <ele>281.109215</ele>
        <time>2022-03-07T09:47:34.515Z</time>
      </trkpt>
      <trkpt lat="42.26524" lon="24.40675">
        <ele>280.599384</ele>
        <time>2022-03-07T09:47:37.499Z</time>
      </trkpt>
      <trkpt lat="42.26533" lon="24.40664">
        <ele>280.129537</ele>
        <time>2022-03-07T09:47:40.510Z</time>
      </trkpt>
      <trkpt lat="42.26542" lon="24.40651">
        <ele>279.624176</ele>
        <time>2022-03-07T09:47:43.503Z</time>
      </trkpt>
      <trkpt lat="42.2655" lon="24.40639">
        <ele>279.147208</ele>
        <time>2022-03-07T09:47:46.538Z</time>
      </trkpt>
      <trkpt lat="42.26559" lon="24.40627">
        <ele>279.081057</ele>
        <time>2022-03-07T09:47:49.513Z</time>
      </trkpt>
      <trkpt lat="42.26568" lon="24.40614">
        <ele>279.077071</ele>
        <time>2022-03-07T09:47:52.521Z</time>
      </trkpt>
      <trkpt lat="42.26578" lon="24.40603">
        <ele>279.073162</ele>
        <time>2022-03-07T09:47:55.497Z</time>
      </trkpt>
      <trkpt lat="42.26587" lon="24.40592">
        <ele>279.069397</ele>
        <time>2022-03-07T09:47:58.547Z</time>
      </trkpt>
      <trkpt lat="42.26598" lon="24.40581">
        <ele>279.065333</ele>
        <time>2022-03-07T09:48:01.509Z</time>
      </trkpt>
      <trkpt lat="42.26609" lon="24.40571">
        <ele>279.061345</ele>
        <time>2022-03-07T09:48:04.537Z</time>
      </trkpt>
      <trkpt lat="42.26621" lon="24.40563">
        <ele>279.057447</ele>
        <time>2022-03-07T09:48:07.514Z</time>
      </trkpt>
      <trkpt lat="42.26633" lon="24.40555">
        <ele>279.053373</ele>
        <time>2022-03-07T09:48:10.500Z</time>
      </trkpt>
      <trkpt lat="42.26644" lon="24.40547">
        <ele>279.049453</ele>
        <time>2022-03-07T09:48:13.528Z</time>
      </trkpt>
      <trkpt lat="42.26655" lon="24.40538">
        <ele>279.045672</ele>
        <time>2022-03-07T09:48:16.512Z</time>
      </trkpt>
      <trkpt lat="42.26665" lon="24.4053">
        <ele>279.041908</ele>
        <time>2022-03-07T09:48:19.494Z</time>
      </trkpt>
      <trkpt lat="42.26676" lon="24.40522">
        <ele>279.038128</ele>
        <time>2022-03-07T09:48:22.518Z</time>
      </trkpt>
      <trkpt lat="42.26687" lon="24.40513">
        <ele>279.034425</ele>
        <time>2022-03-07T09:48:25.507Z</time>
      </trkpt>
      <trkpt lat="42.26697" lon="24.40504">
        <ele>279.030663</ele>
        <time>2022-03-07T09:48:28.516Z</time>
      </trkpt>
      <trkpt lat="42.26708" lon="24.40497">
        <ele>278.955079</ele>
        <time>2022-03-07T09:48:31.513Z</time>
      </trkpt>
      <trkpt lat="42.2672" lon="24.40489">
        <ele>278.851845</ele>
        <time>2022-03-07T09:48:34.514Z</time>
      </trkpt>
      <trkpt lat="42.26731" lon="24.4048">
        <ele>278.751292</ele>
        <time>2022-03-07T09:48:37.530Z</time>
      </trkpt>
      <trkpt lat="42.26741" lon="24.40471">
        <ele>278.650386</ele>
        <time>2022-03-07T09:48:40.511Z</time>
      </trkpt>
      <trkpt lat="42.26752" lon="24.40462">
        <ele>278.547856</ele>
        <time>2022-03-07T09:48:43.505Z</time>
      </trkpt>
      <trkpt lat="42.26763" lon="24.40454">
        <ele>278.45124</ele>
        <time>2022-03-07T09:48:46.510Z</time>
      </trkpt>
      <trkpt lat="42.26773" lon="24.40446">
        <ele>278.354338</ele>
        <time>2022-03-07T09:48:49.522Z</time>
      </trkpt>
      <trkpt lat="42.26784" lon="24.40438">
        <ele>278.254769</ele>
        <time>2022-03-07T09:48:52.511Z</time>
      </trkpt>
      <trkpt lat="42.26795" lon="24.4043">
        <ele>278.155524</ele>
        <time>2022-03-07T09:48:55.506Z</time>
      </trkpt>
      <trkpt lat="42.26806" lon="24.40424">
        <ele>278.062835</ele>
        <time>2022-03-07T09:48:58.513Z</time>
      </trkpt>
      <trkpt lat="42.26816" lon="24.40419">
        <ele>277.979229</ele>
        <time>2022-03-07T09:49:01.504Z</time>
      </trkpt>
      <trkpt lat="42.26827" lon="24.40414">
        <ele>277.884319</ele>
        <time>2022-03-07T09:49:04.509Z</time>
      </trkpt>
      <trkpt lat="42.26838" lon="24.40408">
        <ele>277.791661</ele>
        <time>2022-03-07T09:49:07.514Z</time>
      </trkpt>
      <trkpt lat="42.2685" lon="24.40403">
        <ele>277.687498</ele>
        <time>2022-03-07T09:49:10.535Z</time>
      </trkpt>
      <trkpt lat="42.26863" lon="24.40397">
        <ele>277.627234</ele>
        <time>2022-03-07T09:49:13.514Z</time>
      </trkpt>
      <trkpt lat="42.26875" lon="24.4039">
        <ele>277.917433</ele>
        <time>2022-03-07T09:49:16.509Z</time>
      </trkpt>
      <trkpt lat="42.26887" lon="24.40384">
        <ele>278.201996</ele>
        <time>2022-03-07T09:49:19.509Z</time>
      </trkpt>
      <trkpt lat="42.26898" lon="24.40378">
        <ele>278.475069</ele>
        <time>2022-03-07T09:49:22.492Z</time>
      </trkpt>
      <trkpt lat="42.26909" lon="24.40369">
        <ele>278.747529</ele>
        <time>2022-03-07T09:49:25.527Z</time>
      </trkpt>
      <trkpt lat="42.26919" lon="24.40361">
        <ele>279.013025</ele>
        <time>2022-03-07T09:49:28.514Z</time>
      </trkpt>
      <trkpt lat="42.26928" lon="24.40352">
        <ele>279.271942</ele>
        <time>2022-03-07T09:49:31.528Z</time>
      </trkpt>
      <trkpt lat="42.26938" lon="24.40342">
        <ele>279.540172</ele>
        <time>2022-03-07T09:49:34.523Z</time>
      </trkpt>
      <trkpt lat="42.26948" lon="24.40334">
        <ele>279.802808</ele>
        <time>2022-03-07T09:49:37.491Z</time>
      </trkpt>
      <trkpt lat="42.26958" lon="24.40324">
        <ele>280.06467</ele>
        <time>2022-03-07T09:49:40.490Z</time>
      </trkpt>
      <trkpt lat="42.26968" lon="24.40315">
        <ele>280.332817</ele>
        <time>2022-03-07T09:49:43.515Z</time>
      </trkpt>
      <trkpt lat="42.26978" lon="24.40306">
        <ele>280.601879</ele>
        <time>2022-03-07T09:49:46.529Z</time>
      </trkpt>
      <trkpt lat="42.26988" lon="24.40297">
        <ele>280.874614</ele>
        <time>2022-03-07T09:49:49.545Z</time>
      </trkpt>
      <trkpt lat="42.26997" lon="24.40288">
        <ele>281.131778</ele>
        <time>2022-03-07T09:49:52.511Z</time>
      </trkpt>
      <trkpt lat="42.27007" lon="24.40278">
        <ele>281.409269</ele>
        <time>2022-03-07T09:49:55.513Z</time>
      </trkpt>
      <trkpt lat="42.27018" lon="24.40267">
        <ele>281.752797</ele>
        <time>2022-03-07T09:49:58.496Z</time>
      </trkpt>
      <trkpt lat="42.27028" lon="24.40257">
        <ele>282.19087</ele>
        <time>2022-03-07T09:50:01.494Z</time>
      </trkpt>
      <trkpt lat="42.27039" lon="24.40247">
        <ele>282.644276</ele>
        <time>2022-03-07T09:50:04.497Z</time>
      </trkpt>
      <trkpt lat="42.2705" lon="24.40238">
        <ele>283.096772</ele>
        <time>2022-03-07T09:50:07.500Z</time>
      </trkpt>
      <trkpt lat="42.27061" lon="24.40229">
        <ele>283.539397</ele>
        <time>2022-03-07T09:50:10.498Z</time>
      </trkpt>
      <trkpt lat="42.27071" lon="24.4022">
        <ele>283.948832</ele>
        <time>2022-03-07T09:50:13.499Z</time>
      </trkpt>
      <trkpt lat="42.27081" lon="24.40211">
        <ele>284.353607</ele>
        <time>2022-03-07T09:50:16.513Z</time>
      </trkpt>
      <trkpt lat="42.2709" lon="24.40202">
        <ele>284.763139</ele>
        <time>2022-03-07T09:50:19.507Z</time>
      </trkpt>
      <trkpt lat="42.271" lon="24.40192">
        <ele>285.188326</ele>
        <time>2022-03-07T09:50:22.598Z</time>
      </trkpt>
      <trkpt lat="42.2711" lon="24.40183">
        <ele>285.613123</ele>
        <time>2022-03-07T09:50:25.511Z</time>
      </trkpt>
      <trkpt lat="42.2712" lon="24.40173">
        <ele>286.029374</ele>
        <time>2022-03-07T09:50:28.513Z</time>
      </trkpt>
      <trkpt lat="42.2713" lon="24.40164">
        <ele>286.436147</ele>
        <time>2022-03-07T09:50:31.501Z</time>
      </trkpt>
      <trkpt lat="42.27139" lon="24.40155">
        <ele>286.845241</ele>
        <time>2022-03-07T09:50:34.516Z</time>
      </trkpt>
      <trkpt lat="42.27149" lon="24.40145">
        <ele>287.267657</ele>
        <time>2022-03-07T09:50:37.508Z</time>
      </trkpt>
      <trkpt lat="42.2716" lon="24.40136">
        <ele>287.698194</ele>
        <time>2022-03-07T09:50:40.518Z</time>
      </trkpt>
      <trkpt lat="42.27169" lon="24.40126">
        <ele>287.566075</ele>
        <time>2022-03-07T09:50:43.480Z</time>
      </trkpt>
      <trkpt lat="42.27179" lon="24.40116">
        <ele>287.261446</ele>
        <time>2022-03-07T09:50:46.531Z</time>
      </trkpt>
      <trkpt lat="42.27187" lon="24.40107">
        <ele>286.973181</ele>
        <time>2022-03-07T09:50:49.510Z</time>
      </trkpt>
      <trkpt lat="42.27196" lon="24.40099">
        <ele>286.681022</ele>
        <time>2022-03-07T09:50:52.479Z</time>
      </trkpt>
      <trkpt lat="42.27205" lon="24.40089">
        <ele>286.390008</ele>
        <time>2022-03-07T09:50:55.545Z</time>
      </trkpt>
      <trkpt lat="42.27214" lon="24.40081">
        <ele>286.097849</ele>
        <time>2022-03-07T09:50:58.549Z</time>
      </trkpt>
      <trkpt lat="42.27224" lon="24.40074">
        <ele>285.799734</ele>
        <time>2022-03-07T09:51:01.508Z</time>
      </trkpt>
      <trkpt lat="42.27235" lon="24.40069">
        <ele>285.512436</ele>
        <time>2022-03-07T09:51:04.490Z</time>
      </trkpt>
      <trkpt lat="42.27245" lon="24.40076">
        <ele>285.216133</ele>
        <time>2022-03-07T09:51:07.505Z</time>
      </trkpt>
      <trkpt lat="42.2725" lon="24.40089">
        <ele>284.937343</ele>
        <time>2022-03-07T09:51:10.545Z</time>
      </trkpt>
      <trkpt lat="42.27255" lon="24.40101">
        <ele>284.652539</ele>
        <time>2022-03-07T09:51:13.511Z</time>
      </trkpt>
      <trkpt lat="42.27261" lon="24.40115">
        <ele>284.345252</ele>
        <time>2022-03-07T09:51:16.504Z</time>
      </trkpt>
      <trkpt lat="42.27268" lon="24.40129">
        <ele>284.022077</ele>
        <time>2022-03-07T09:51:19.521Z</time>
      </trkpt>
      <trkpt lat="42.27275" lon="24.40142">
        <ele>283.696557</ele>
        <time>2022-03-07T09:51:22.511Z</time>
      </trkpt>
      <trkpt lat="42.27282" lon="24.40157">
        <ele>283.364197</ele>
        <time>2022-03-07T09:51:25.555Z</time>
      </trkpt>
      <trkpt lat="42.27289" lon="24.4017">
        <ele>283.057957</ele>
        <time>2022-03-07T09:51:28.534Z</time>
      </trkpt>
      <trkpt lat="42.27296" lon="24.40184">
        <ele>282.928621</ele>
        <time>2022-03-07T09:51:31.508Z</time>
      </trkpt>
      <trkpt lat="42.27303" lon="24.40197">
        <ele>282.798138</ele>
        <time>2022-03-07T09:51:34.508Z</time>
      </trkpt>
      <trkpt lat="42.27316" lon="24.40203">
        <ele>282.651786</ele>
        <time>2022-03-07T09:51:37.495Z</time>
      </trkpt>
      <trkpt lat="42.27328" lon="24.40198">
        <ele>282.507759</ele>
        <time>2022-03-07T09:51:40.502Z</time>
      </trkpt>
      <trkpt lat="42.2734" lon="24.40199">
        <ele>282.378242</ele>
        <time>2022-03-07T09:51:43.515Z</time>
      </trkpt>
      <trkpt lat="42.27352" lon="24.40201">
        <ele>282.249299</ele>
        <time>2022-03-07T09:51:46.513Z</time>
      </trkpt>
      <trkpt lat="42.27365" lon="24.402">
        <ele>282.107626</ele>
        <time>2022-03-07T09:51:49.507Z</time>
      </trkpt>
      <trkpt lat="42.27378" lon="24.402">
        <ele>281.964295</ele>
        <time>2022-03-07T09:51:52.513Z</time>
      </trkpt>
      <trkpt lat="42.27391" lon="24.40199">
        <ele>281.821968</ele>
        <time>2022-03-07T09:51:55.526Z</time>
      </trkpt>
      <trkpt lat="42.27404" lon="24.40197">
        <ele>281.681861</ele>
        <time>2022-03-07T09:51:58.517Z</time>
      </trkpt>
      <trkpt lat="42.27416" lon="24.40196">
        <ele>281.554655</ele>
        <time>2022-03-07T09:52:01.523Z</time>
      </trkpt>
      <trkpt lat="42.27427" lon="24.40194">
        <ele>281.4308</ele>
        <time>2022-03-07T09:52:04.531Z</time>
      </trkpt>
      <trkpt lat="42.27439" lon="24.40192">
        <ele>281.301945</ele>
        <time>2022-03-07T09:52:07.526Z</time>
      </trkpt>
      <trkpt lat="42.27452" lon="24.40191">
        <ele>281.161593</ele>
        <time>2022-03-07T09:52:10.510Z</time>
      </trkpt>
      <trkpt lat="42.27464" lon="24.40191">
        <ele>281.456186</ele>
        <time>2022-03-07T09:52:13.517Z</time>
      </trkpt>
      <trkpt lat="42.27475" lon="24.40193">
        <ele>281.891137</ele>
        <time>2022-03-07T09:52:16.506Z</time>
      </trkpt>
      <trkpt lat="42.27486" lon="24.40197">
        <ele>282.339141</ele>
        <time>2022-03-07T09:52:19.531Z</time>
      </trkpt>
      <trkpt lat="42.27496" lon="24.40202">
        <ele>282.76671</ele>
        <time>2022-03-07T09:52:22.557Z</time>
      </trkpt>
      <trkpt lat="42.27505" lon="24.40205">
        <ele>283.14456</ele>
        <time>2022-03-07T09:52:25.551Z</time>
      </trkpt>
      <trkpt lat="42.27517" lon="24.40209">
        <ele>283.63546</ele>
        <time>2022-03-07T09:52:29.527Z</time>
      </trkpt>
      <trkpt lat="42.27527" lon="24.40212">
        <ele>284.043395</ele>
        <time>2022-03-07T09:52:32.508Z</time>
      </trkpt>
      <trkpt lat="42.27536" lon="24.40216">
        <ele>284.422781</ele>
        <time>2022-03-07T09:52:35.514Z</time>
      </trkpt>
      <trkpt lat="42.27545" lon="24.40219">
        <ele>284.804622</ele>
        <time>2022-03-07T09:52:38.560Z</time>
      </trkpt>
      <trkpt lat="42.27556" lon="24.40217">
        <ele>285.237913</ele>
        <time>2022-03-07T09:52:41.499Z</time>
      </trkpt>
      <trkpt lat="42.27563" lon="24.40209">
        <ele>285.621657</ele>
        <time>2022-03-07T09:52:44.485Z</time>
      </trkpt>
      <trkpt lat="42.27569" lon="24.40199">
        <ele>285.990181</ele>
        <time>2022-03-07T09:52:47.491Z</time>
      </trkpt>
      <trkpt lat="42.27575" lon="24.40188">
        <ele>286.379877</ele>
        <time>2022-03-07T09:52:50.520Z</time>
      </trkpt>
      <trkpt lat="42.2758" lon="24.40176">
        <ele>286.807592</ele>
        <time>2022-03-07T09:52:53.502Z</time>
      </trkpt>
      <trkpt lat="42.27587" lon="24.40163">
        <ele>287.254509</ele>
        <time>2022-03-07T09:52:56.516Z</time>
      </trkpt>
      <trkpt lat="42.27594" lon="24.40152">
        <ele>287.704857</ele>
        <time>2022-03-07T09:52:59.520Z</time>
      </trkpt>
      <trkpt lat="42.276" lon="24.40139">
        <ele>288.142979</ele>
        <time>2022-03-07T09:53:02.521Z</time>
      </trkpt>
      <trkpt lat="42.27606" lon="24.40127">
        <ele>288.604422</ele>
        <time>2022-03-07T09:53:05.515Z</time>
      </trkpt>
      <trkpt lat="42.27613" lon="24.40116">
        <ele>289.080082</ele>
        <time>2022-03-07T09:53:08.521Z</time>
      </trkpt>
      <trkpt lat="42.27619" lon="24.40103">
        <ele>289.571521</ele>
        <time>2022-03-07T09:53:11.512Z</time>
      </trkpt>
      <trkpt lat="42.27626" lon="24.40092">
        <ele>290.03411</ele>
        <time>2022-03-07T09:53:14.530Z</time>
      </trkpt>
      <trkpt lat="42.27632" lon="24.40081">
        <ele>290.486244</ele>
        <time>2022-03-07T09:53:17.502Z</time>
      </trkpt>
      <trkpt lat="42.27639" lon="24.40069">
        <ele>290.980336</ele>
        <time>2022-03-07T09:53:20.524Z</time>
      </trkpt>
      <trkpt lat="42.27645" lon="24.40056">
        <ele>291.498094</ele>
        <time>2022-03-07T09:53:23.514Z</time>
      </trkpt>
      <trkpt lat="42.27652" lon="24.40045">
        <ele>291.963224</ele>
        <time>2022-03-07T09:53:26.494Z</time>
      </trkpt>
      <trkpt lat="42.27658" lon="24.40033">
        <ele>292.45462</ele>
        <time>2022-03-07T09:53:29.512Z</time>
      </trkpt>
      <trkpt lat="42.27665" lon="24.4002">
        <ele>292.95941</ele>
        <time>2022-03-07T09:53:32.509Z</time>
      </trkpt>
      <trkpt lat="42.2767" lon="24.40008">
        <ele>293.412531</ele>
        <time>2022-03-07T09:53:35.552Z</time>
      </trkpt>
      <trkpt lat="42.27676" lon="24.39998">
        <ele>293.83842</ele>
        <time>2022-03-07T09:53:38.511Z</time>
      </trkpt>
      <trkpt lat="42.27679" lon="24.39985">
        <ele>294.281429</ele>
        <time>2022-03-07T09:53:41.534Z</time>
      </trkpt>
      <trkpt lat="42.27683" lon="24.39973">
        <ele>294.723617</ele>
        <time>2022-03-07T09:53:44.516Z</time>
      </trkpt>
      <trkpt lat="42.27689" lon="24.3996">
        <ele>295.20747</ele>
        <time>2022-03-07T09:53:47.497Z</time>
      </trkpt>
      <trkpt lat="42.27694" lon="24.39947">
        <ele>295.694247</ele>
        <time>2022-03-07T09:53:50.510Z</time>
      </trkpt>
      <trkpt lat="42.27699" lon="24.39932">
        <ele>296.205738</ele>
        <time>2022-03-07T09:53:53.494Z</time>
      </trkpt>
      <trkpt lat="42.27705" lon="24.39921">
        <ele>296.527014</ele>
        <time>2022-03-07T09:53:56.533Z</time>
      </trkpt>
      <trkpt lat="42.2771" lon="24.39907">
        <ele>296.849634</ele>
        <time>2022-03-07T09:53:59.514Z</time>
      </trkpt>
      <trkpt lat="42.27715" lon="24.39892">
        <ele>297.182878</ele>
        <time>2022-03-07T09:54:02.508Z</time>
      </trkpt>
      <trkpt lat="42.2772" lon="24.39879">
        <ele>297.504909</ele>
        <time>2022-03-07T09:54:05.507Z</time>
      </trkpt>
      <trkpt lat="42.27727" lon="24.39865">
        <ele>297.835191</ele>
        <time>2022-03-07T09:54:08.517Z</time>
      </trkpt>
      <trkpt lat="42.27735" lon="24.39854">
        <ele>298.159767</ele>
        <time>2022-03-07T09:54:11.506Z</time>
      </trkpt>
      <trkpt lat="42.27742" lon="24.39845">
        <ele>298.452388</ele>
        <time>2022-03-07T09:54:14.527Z</time>
      </trkpt>
      <trkpt lat="42.27752" lon="24.39835">
        <ele>298.778696</ele>
        <time>2022-03-07T09:54:17.510Z</time>
      </trkpt>
      <trkpt lat="42.27759" lon="24.39826">
        <ele>299.071548</ele>
        <time>2022-03-07T09:54:20.527Z</time>
      </trkpt>
      <trkpt lat="42.27766" lon="24.39816">
        <ele>299.361876</ele>
        <time>2022-03-07T09:54:23.519Z</time>
      </trkpt>
      <trkpt lat="42.27776" lon="24.39808">
        <ele>299.670428</ele>
        <time>2022-03-07T09:54:26.507Z</time>
      </trkpt>
      <trkpt lat="42.27784" lon="24.39799">
        <ele>299.984387</ele>
        <time>2022-03-07T09:54:29.506Z</time>
      </trkpt>
      <trkpt lat="42.27792" lon="24.39789">
        <ele>300.285629</ele>
        <time>2022-03-07T09:54:32.527Z</time>
      </trkpt>
      <trkpt lat="42.27801" lon="24.3978">
        <ele>300.592563</ele>
        <time>2022-03-07T09:54:35.514Z</time>
      </trkpt>
      <trkpt lat="42.27809" lon="24.3977">
        <ele>300.893594</ele>
        <time>2022-03-07T09:54:38.498Z</time>
      </trkpt>
      <trkpt lat="42.27817" lon="24.3976">
        <ele>301.205109</ele>
        <time>2022-03-07T09:54:41.521Z</time>
      </trkpt>
      <trkpt lat="42.27824" lon="24.39751">
        <ele>301.070253</ele>
        <time>2022-03-07T09:54:44.511Z</time>
      </trkpt>
      <trkpt lat="42.27832" lon="24.39742">
        <ele>300.571731</ele>
        <time>2022-03-07T09:54:47.514Z</time>
      </trkpt>
      <trkpt lat="42.27839" lon="24.39732">
        <ele>300.081369</ele>
        <time>2022-03-07T09:54:50.540Z</time>
      </trkpt>
      <trkpt lat="42.27848" lon="24.39723">
        <ele>299.543033</ele>
        <time>2022-03-07T09:54:53.511Z</time>
      </trkpt>
      <trkpt lat="42.27856" lon="24.39713">
        <ele>299.027833</ele>
        <time>2022-03-07T09:54:56.497Z</time>
      </trkpt>
      <trkpt lat="42.27864" lon="24.39704">
        <ele>298.518577</ele>
        <time>2022-03-07T09:54:59.500Z</time>
      </trkpt>
      <trkpt lat="42.2787" lon="24.39693">
        <ele>298.022987</ele>
        <time>2022-03-07T09:55:02.541Z</time>
      </trkpt>
      <trkpt lat="42.27877" lon="24.39681">
        <ele>297.508357</ele>
        <time>2022-03-07T09:55:05.501Z</time>
      </trkpt>
      <trkpt lat="42.27882" lon="24.39669">
        <ele>296.994965</ele>
        <time>2022-03-07T09:55:08.506Z</time>
      </trkpt>
      <trkpt lat="42.27889" lon="24.39656">
        <ele>296.44914</ele>
        <time>2022-03-07T09:55:11.506Z</time>
      </trkpt>
      <trkpt lat="42.27896" lon="24.39643">
        <ele>295.880103</ele>
        <time>2022-03-07T09:55:14.493Z</time>
      </trkpt>
      <trkpt lat="42.27902" lon="24.39632">
        <ele>295.374204</ele>
        <time>2022-03-07T09:55:17.495Z</time>
      </trkpt>
      <trkpt lat="42.27907" lon="24.39619">
        <ele>294.866772</ele>
        <time>2022-03-07T09:55:20.549Z</time>
      </trkpt>
      <trkpt lat="42.27912" lon="24.39606">
        <ele>294.320395</ele>
        <time>2022-03-07T09:55:23.516Z</time>
      </trkpt>
      <trkpt lat="42.27919" lon="24.3959">
        <ele>293.689408</ele>
        <time>2022-03-07T09:55:26.510Z</time>
      </trkpt>
      <trkpt lat="42.27924" lon="24.39576">
        <ele>293.109174</ele>
        <time>2022-03-07T09:55:29.553Z</time>
      </trkpt>
      <trkpt lat="42.2793" lon="24.3956">
        <ele>292.54486</ele>
        <time>2022-03-07T09:55:32.504Z</time>
      </trkpt>
      <trkpt lat="42.27934" lon="24.39545">
        <ele>292.098182</ele>
        <time>2022-03-07T09:55:35.509Z</time>
      </trkpt>
      <trkpt lat="42.2794" lon="24.39533">
        <ele>291.715024</ele>
        <time>2022-03-07T09:55:38.512Z</time>
      </trkpt>
      <trkpt lat="42.27946" lon="24.39521">
        <ele>291.300895</ele>
        <time>2022-03-07T09:55:41.515Z</time>
      </trkpt>
      <trkpt lat="42.2795" lon="24.39507">
        <ele>290.890096</ele>
        <time>2022-03-07T09:55:44.510Z</time>
      </trkpt>
      <trkpt lat="42.27956" lon="24.39495">
        <ele>290.49581</ele>
        <time>2022-03-07T09:55:47.509Z</time>
      </trkpt>
      <trkpt lat="42.27967" lon="24.39492">
        <ele>290.06258</ele>
        <time>2022-03-07T09:55:50.513Z</time>
      </trkpt>
      <trkpt lat="42.27979" lon="24.39493">
        <ele>289.634664</ele>
        <time>2022-03-07T09:55:53.499Z</time>
      </trkpt>
      <trkpt lat="42.27991" lon="24.39494">
        <ele>289.179487</ele>
        <time>2022-03-07T09:55:56.506Z</time>
      </trkpt>
      <trkpt lat="42.28003" lon="24.39494">
        <ele>288.754099</ele>
        <time>2022-03-07T09:55:59.527Z</time>
      </trkpt>
      <trkpt lat="42.28014" lon="24.39494">
        <ele>288.343506</ele>
        <time>2022-03-07T09:56:02.553Z</time>
      </trkpt>
      <trkpt lat="42.28026" lon="24.39491">
        <ele>287.886659</ele>
        <time>2022-03-07T09:56:05.507Z</time>
      </trkpt>
      <trkpt lat="42.28038" lon="24.3949">
        <ele>287.438075</ele>
        <time>2022-03-07T09:56:08.511Z</time>
      </trkpt>
      <trkpt lat="42.28051" lon="24.3949">
        <ele>286.956931</ele>
        <time>2022-03-07T09:56:11.519Z</time>
      </trkpt>
      <trkpt lat="42.28064" lon="24.39489">
        <ele>286.47236</ele>
        <time>2022-03-07T09:56:14.504Z</time>
      </trkpt>
      <trkpt lat="42.28077" lon="24.39489">
        <ele>286.025503</ele>
        <time>2022-03-07T09:56:17.516Z</time>
      </trkpt>
      <trkpt lat="42.28089" lon="24.39489">
        <ele>285.882799</ele>
        <time>2022-03-07T09:56:20.513Z</time>
      </trkpt>
      <trkpt lat="42.28101" lon="24.39488">
        <ele>285.745914</ele>
        <time>2022-03-07T09:56:23.495Z</time>
      </trkpt>
      <trkpt lat="42.28114" lon="24.39488">
        <ele>285.600879</ele>
        <time>2022-03-07T09:56:26.521Z</time>
      </trkpt>
      <trkpt lat="42.28126" lon="24.39488">
        <ele>285.460566</ele>
        <time>2022-03-07T09:56:29.484Z</time>
      </trkpt>
      <trkpt lat="42.28139" lon="24.39487">
        <ele>285.313331</ele>
        <time>2022-03-07T09:56:32.492Z</time>
      </trkpt>
      <trkpt lat="42.28152" lon="24.39487">
        <ele>285.161432</ele>
        <time>2022-03-07T09:56:35.546Z</time>
      </trkpt>
      <trkpt lat="42.28165" lon="24.39486">
        <ele>285.015211</ele>
        <time>2022-03-07T09:56:38.511Z</time>
      </trkpt>
      <trkpt lat="42.28176" lon="24.39485">
        <ele>284.879049</ele>
        <time>2022-03-07T09:56:41.499Z</time>
      </trkpt>
      <trkpt lat="42.28188" lon="24.39484">
        <ele>284.746457</ele>
        <time>2022-03-07T09:56:44.510Z</time>
      </trkpt>
      <trkpt lat="42.28199" lon="24.39483">
        <ele>284.614097</ele>
        <time>2022-03-07T09:56:47.510Z</time>
      </trkpt>
      <trkpt lat="42.28212" lon="24.39483">
        <ele>284.474924</ele>
        <time>2022-03-07T09:56:50.495Z</time>
      </trkpt>
      <trkpt lat="42.28224" lon="24.39483">
        <ele>284.333439</ele>
        <time>2022-03-07T09:56:53.529Z</time>
      </trkpt>
      <trkpt lat="42.28236" lon="24.39482">
        <ele>284.189674</ele>
        <time>2022-03-07T09:56:56.506Z</time>
      </trkpt>
      <trkpt lat="42.28249" lon="24.39482">
        <ele>284.045788</ele>
        <time>2022-03-07T09:56:59.492Z</time>
      </trkpt>
      <trkpt lat="42.28261" lon="24.39482">
        <ele>283.963424</ele>
        <time>2022-03-07T09:57:02.558Z</time>
      </trkpt>
      <trkpt lat="42.28274" lon="24.39482">
        <ele>283.951582</ele>
        <time>2022-03-07T09:57:05.496Z</time>
      </trkpt>
      <trkpt lat="42.28287" lon="24.39481">
        <ele>283.938962</ele>
        <time>2022-03-07T09:57:08.499Z</time>
      </trkpt>
      <trkpt lat="42.28301" lon="24.39479">
        <ele>283.926386</ele>
        <time>2022-03-07T09:57:11.517Z</time>
      </trkpt>
      <trkpt lat="42.28313" lon="24.39477">
        <ele>283.914511</ele>
        <time>2022-03-07T09:57:14.508Z</time>
      </trkpt>
      <trkpt lat="42.28326" lon="24.39476">
        <ele>283.90236</ele>
        <time>2022-03-07T09:57:17.508Z</time>
      </trkpt>
      <trkpt lat="42.28339" lon="24.39475">
        <ele>283.89018</ele>
        <time>2022-03-07T09:57:20.507Z</time>
      </trkpt>
      <trkpt lat="42.28351" lon="24.39474">
        <ele>283.878796</ele>
        <time>2022-03-07T09:57:23.513Z</time>
      </trkpt>
      <trkpt lat="42.28363" lon="24.39473">
        <ele>283.867508</ele>
        <time>2022-03-07T09:57:26.513Z</time>
      </trkpt>
      <trkpt lat="42.28375" lon="24.39473">
        <ele>283.856232</ele>
        <time>2022-03-07T09:57:29.540Z</time>
      </trkpt>
      <trkpt lat="42.28387" lon="24.39473">
        <ele>283.844858</ele>
        <time>2022-03-07T09:57:32.513Z</time>
      </trkpt>
      <trkpt lat="42.28399" lon="24.39473">
        <ele>283.833581</ele>
        <time>2022-03-07T09:57:35.530Z</time>
      </trkpt>
      <trkpt lat="42.28411" lon="24.39473">
        <ele>283.822586</ele>
        <time>2022-03-07T09:57:38.538Z</time>
      </trkpt>
      <trkpt lat="42.28422" lon="24.39474">
        <ele>283.812319</ele>
        <time>2022-03-07T09:57:41.515Z</time>
      </trkpt>
      <trkpt lat="42.28434" lon="24.39475">
        <ele>283.800458</ele>
        <time>2022-03-07T09:57:44.502Z</time>
      </trkpt>
      <trkpt lat="42.28448" lon="24.39475">
        <ele>283.966011</ele>
        <time>2022-03-07T09:57:47.519Z</time>
      </trkpt>
      <trkpt lat="42.2846" lon="24.39476">
        <ele>284.13153</ele>
        <time>2022-03-07T09:57:50.495Z</time>
      </trkpt>
      <trkpt lat="42.28472" lon="24.39478">
        <ele>284.285928</ele>
        <time>2022-03-07T09:57:53.505Z</time>
      </trkpt>
      <trkpt lat="42.28483" lon="24.39479">
        <ele>284.43879</ele>
        <time>2022-03-07T09:57:56.519Z</time>
      </trkpt>
      <trkpt lat="42.28495" lon="24.39481">
        <ele>284.594279</ele>
        <time>2022-03-07T09:57:59.559Z</time>
      </trkpt>
      <trkpt lat="42.28507" lon="24.39482">
        <ele>284.754461</ele>
        <time>2022-03-07T09:58:02.497Z</time>
      </trkpt>
      <trkpt lat="42.2852" lon="24.39483">
        <ele>284.920046</ele>
        <time>2022-03-07T09:58:05.515Z</time>
      </trkpt>
      <trkpt lat="42.28531" lon="24.39484">
        <ele>285.076161</ele>
        <time>2022-03-07T09:58:08.520Z</time>
      </trkpt>
      <trkpt lat="42.28543" lon="24.39484">
        <ele>285.236072</ele>
        <time>2022-03-07T09:58:11.497Z</time>
      </trkpt>
      <trkpt lat="42.28556" lon="24.39483">
        <ele>285.400025</ele>
        <time>2022-03-07T09:58:14.512Z</time>
      </trkpt>
      <trkpt lat="42.28568" lon="24.39482">
        <ele>285.554996</ele>
        <time>2022-03-07T09:58:17.516Z</time>
      </trkpt>
      <trkpt lat="42.2858" lon="24.39482">
        <ele>285.722819</ele>
        <time>2022-03-07T09:58:20.493Z</time>
      </trkpt>
      <trkpt lat="42.2859" lon="24.39482">
        <ele>285.847061</ele>
        <time>2022-03-07T09:58:22.496Z</time>
      </trkpt>
      <trkpt lat="42.28599" lon="24.39481">
        <ele>285.9691</ele>
        <time>2022-03-07T09:58:24.511Z</time>
      </trkpt>
      <trkpt lat="42.2861" lon="24.39481">
        <ele>286.12239</ele>
        <time>2022-03-07T09:58:27.526Z</time>
      </trkpt>
      <trkpt lat="42.28623" lon="24.3948">
        <ele>286.197006</ele>
        <time>2022-03-07T09:58:30.525Z</time>
      </trkpt>
      <trkpt lat="42.28635" lon="24.3948">
        <ele>286.228273</ele>
        <time>2022-03-07T09:58:33.507Z</time>
      </trkpt>
      <trkpt lat="42.28646" lon="24.3948">
        <ele>286.256698</ele>
        <time>2022-03-07T09:58:36.524Z</time>
      </trkpt>
      <trkpt lat="42.28658" lon="24.39483">
        <ele>286.287758</ele>
        <time>2022-03-07T09:58:39.510Z</time>
      </trkpt>
      <trkpt lat="42.28669" lon="24.39486">
        <ele>286.316915</ele>
        <time>2022-03-07T09:58:42.513Z</time>
      </trkpt>
      <trkpt lat="42.2868" lon="24.39488">
        <ele>286.345607</ele>
        <time>2022-03-07T09:58:45.527Z</time>
      </trkpt>
      <trkpt lat="42.28692" lon="24.39492">
        <ele>286.378129</ele>
        <time>2022-03-07T09:58:48.514Z</time>
      </trkpt>
      <trkpt lat="42.28705" lon="24.39497">
        <ele>286.411396</ele>
        <time>2022-03-07T09:58:51.507Z</time>
      </trkpt>
      <trkpt lat="42.28718" lon="24.39502">
        <ele>286.445012</ele>
        <time>2022-03-07T09:58:54.530Z</time>
      </trkpt>
      <trkpt lat="42.2873" lon="24.39507">
        <ele>286.478479</ele>
        <time>2022-03-07T09:58:57.515Z</time>
      </trkpt>
      <trkpt lat="42.28741" lon="24.39512">
        <ele>286.509346</ele>
        <time>2022-03-07T09:59:00.546Z</time>
      </trkpt>
      <trkpt lat="42.28753" lon="24.39517">
        <ele>286.539449</ele>
        <time>2022-03-07T09:59:03.525Z</time>
      </trkpt>
      <trkpt lat="42.28764" lon="24.39521">
        <ele>286.568659</ele>
        <time>2022-03-07T09:59:06.509Z</time>
      </trkpt>
      <trkpt lat="42.28773" lon="24.39524">
        <ele>286.592729</ele>
        <time>2022-03-07T09:59:09.531Z</time>
      </trkpt>
      <trkpt lat="42.28782" lon="24.39527">
        <ele>286.616257</ele>
        <time>2022-03-07T09:59:12.519Z</time>
      </trkpt>
      <trkpt lat="42.28792" lon="24.39531">
        <ele>286.69372</ele>
        <time>2022-03-07T09:59:15.502Z</time>
      </trkpt>
      <trkpt lat="42.28804" lon="24.39535">
        <ele>286.908993</ele>
        <time>2022-03-07T09:59:18.501Z</time>
      </trkpt>
      <trkpt lat="42.28816" lon="24.39538">
        <ele>287.141341</ele>
        <time>2022-03-07T09:59:21.497Z</time>
      </trkpt>
      <trkpt lat="42.28828" lon="24.39539">
        <ele>287.370912</ele>
        <time>2022-03-07T09:59:24.508Z</time>
      </trkpt>
      <trkpt lat="42.28837" lon="24.39538">
        <ele>287.545955</ele>
        <time>2022-03-07T09:59:26.509Z</time>
      </trkpt>
      <trkpt lat="42.28846" lon="24.39536">
        <ele>287.720003</ele>
        <time>2022-03-07T09:59:28.556Z</time>
      </trkpt>
      <trkpt lat="42.28859" lon="24.39534">
        <ele>287.963547</ele>
        <time>2022-03-07T09:59:31.505Z</time>
      </trkpt>
      <trkpt lat="42.28872" lon="24.39533">
        <ele>288.205095</ele>
        <time>2022-03-07T09:59:34.518Z</time>
      </trkpt>
      <trkpt lat="42.28884" lon="24.39532">
        <ele>288.431046</ele>
        <time>2022-03-07T09:59:37.514Z</time>
      </trkpt>
      <trkpt lat="42.28895" lon="24.39531">
        <ele>288.647894</ele>
        <time>2022-03-07T09:59:40.516Z</time>
      </trkpt>
      <trkpt lat="42.28908" lon="24.39529">
        <ele>288.881154</ele>
        <time>2022-03-07T09:59:43.517Z</time>
      </trkpt>
      <trkpt lat="42.28919" lon="24.39527">
        <ele>289.099877</ele>
        <time>2022-03-07T09:59:46.510Z</time>
      </trkpt>
      <trkpt lat="42.28932" lon="24.39526">
        <ele>289.332327</ele>
        <time>2022-03-07T09:59:49.512Z</time>
      </trkpt>
      <trkpt lat="42.28945" lon="24.39524">
        <ele>289.581255</ele>
        <time>2022-03-07T09:59:52.518Z</time>
      </trkpt>
      <trkpt lat="42.28954" lon="24.39523">
        <ele>289.758765</ele>
        <time>2022-03-07T09:59:54.505Z</time>
      </trkpt>
      <trkpt lat="42.28966" lon="24.39523">
        <ele>289.984374</ele>
        <time>2022-03-07T09:59:57.508Z</time>
      </trkpt>
      <trkpt lat="42.28978" lon="24.39523">
        <ele>290.143182</ele>
        <time>2022-03-07T10:00:00.502Z</time>
      </trkpt>
      <trkpt lat="42.2899" lon="24.39523">
        <ele>290.288693</ele>
        <time>2022-03-07T10:00:03.498Z</time>
      </trkpt>
      <trkpt lat="42.29002" lon="24.39524">
        <ele>290.428406</ele>
        <time>2022-03-07T10:00:06.528Z</time>
      </trkpt>
      <trkpt lat="42.29014" lon="24.39526">
        <ele>290.575436</ele>
        <time>2022-03-07T10:00:09.506Z</time>
      </trkpt>
      <trkpt lat="42.29023" lon="24.39526">
        <ele>290.685778</ele>
        <time>2022-03-07T10:00:11.529Z</time>
      </trkpt>
      <trkpt lat="42.29032" lon="24.39526">
        <ele>290.794984</ele>
        <time>2022-03-07T10:00:13.504Z</time>
      </trkpt>
      <trkpt lat="42.29045" lon="24.39526">
        <ele>290.94896</ele>
        <time>2022-03-07T10:00:16.497Z</time>
      </trkpt>
      <trkpt lat="42.29057" lon="24.39527">
        <ele>291.098151</ele>
        <time>2022-03-07T10:00:19.518Z</time>
      </trkpt>
      <trkpt lat="42.2907" lon="24.39526">
        <ele>291.254641</ele>
        <time>2022-03-07T10:00:22.516Z</time>
      </trkpt>
      <trkpt lat="42.29083" lon="24.39522">
        <ele>291.41669</ele>
        <time>2022-03-07T10:00:25.496Z</time>
      </trkpt>
      <trkpt lat="42.29094" lon="24.39512">
        <ele>291.574892</ele>
        <time>2022-03-07T10:00:28.544Z</time>
      </trkpt>
      <trkpt lat="42.29102" lon="24.395">
        <ele>291.721763</ele>
        <time>2022-03-07T10:00:31.585Z</time>
      </trkpt>
      <trkpt lat="42.2911" lon="24.39487">
        <ele>291.87534</ele>
        <time>2022-03-07T10:00:34.530Z</time>
      </trkpt>
      <trkpt lat="42.29117" lon="24.39472">
        <ele>292.033257</ele>
        <time>2022-03-07T10:00:37.511Z</time>
      </trkpt>
      <trkpt lat="42.29125" lon="24.39459">
        <ele>292.186119</ele>
        <time>2022-03-07T10:00:40.494Z</time>
      </trkpt>
      <trkpt lat="42.29132" lon="24.39448">
        <ele>292.247262</ele>
        <time>2022-03-07T10:00:43.516Z</time>
      </trkpt>
      <trkpt lat="42.29138" lon="24.39435">
        <ele>292.302055</ele>
        <time>2022-03-07T10:00:46.512Z</time>
      </trkpt>
      <trkpt lat="42.29145" lon="24.39422">
        <ele>292.359442</ele>
        <time>2022-03-07T10:00:49.505Z</time>
      </trkpt>
      <trkpt lat="42.29152" lon="24.39408">
        <ele>292.422008</ele>
        <time>2022-03-07T10:00:52.500Z</time>
      </trkpt>
      <trkpt lat="42.2916" lon="24.39394">
        <ele>292.486045</ele>
        <time>2022-03-07T10:00:55.521Z</time>
      </trkpt>
      <trkpt lat="42.29166" lon="24.39384">
        <ele>292.531369</ele>
        <time>2022-03-07T10:00:57.504Z</time>
      </trkpt>
      <trkpt lat="42.29173" lon="24.3937">
        <ele>292.596265</ele>
        <time>2022-03-07T10:01:00.495Z</time>
      </trkpt>
      <trkpt lat="42.29181" lon="24.39355">
        <ele>292.662074</ele>
        <time>2022-03-07T10:01:03.504Z</time>
      </trkpt>
      <trkpt lat="42.29186" lon="24.39344">
        <ele>292.70954</ele>
        <time>2022-03-07T10:01:05.487Z</time>
      </trkpt>
      <trkpt lat="42.29192" lon="24.39334">
        <ele>292.757196</ele>
        <time>2022-03-07T10:01:07.515Z</time>
      </trkpt>
      <trkpt lat="42.29198" lon="24.39324">
        <ele>292.801924</ele>
        <time>2022-03-07T10:01:09.506Z</time>
      </trkpt>
      <trkpt lat="42.29206" lon="24.3931">
        <ele>292.865979</ele>
        <time>2022-03-07T10:01:12.546Z</time>
      </trkpt>
      <trkpt lat="42.29214" lon="24.39296">
        <ele>292.928854</ele>
        <time>2022-03-07T10:01:15.511Z</time>
      </trkpt>
      <trkpt lat="42.2922" lon="24.39286">
        <ele>292.976935</ele>
        <time>2022-03-07T10:01:17.516Z</time>
      </trkpt>
      <trkpt lat="42.29226" lon="24.39272">
        <ele>293.037203</ele>
        <time>2022-03-07T10:01:20.514Z</time>
      </trkpt>
      <trkpt lat="42.29233" lon="24.39259">
        <ele>293.053894</ele>
        <time>2022-03-07T10:01:23.527Z</time>
      </trkpt>
      <trkpt lat="42.2924" lon="24.39246">
        <ele>292.904663</ele>
        <time>2022-03-07T10:01:26.503Z</time>
      </trkpt>
      <trkpt lat="42.29247" lon="24.39232">
        <ele>292.745727</ele>
        <time>2022-03-07T10:01:29.521Z</time>
      </trkpt>
      <trkpt lat="42.29255" lon="24.39218">
        <ele>292.592811</ele>
        <time>2022-03-07T10:01:32.521Z</time>
      </trkpt>
      <trkpt lat="42.29262" lon="24.39205">
        <ele>292.443548</ele>
        <time>2022-03-07T10:01:35.529Z</time>
      </trkpt>
      <trkpt lat="42.29269" lon="24.39193">
        <ele>292.30098</ele>
        <time>2022-03-07T10:01:38.507Z</time>
      </trkpt>
      <trkpt lat="42.29276" lon="24.3918">
        <ele>292.149504</ele>
        <time>2022-03-07T10:01:41.512Z</time>
      </trkpt>
      <trkpt lat="42.29283" lon="24.39168">
        <ele>292.006187</ele>
        <time>2022-03-07T10:01:44.512Z</time>
      </trkpt>
      <trkpt lat="42.2929" lon="24.39154">
        <ele>291.859635</ele>
        <time>2022-03-07T10:01:47.492Z</time>
      </trkpt>
      <trkpt lat="42.29297" lon="24.39139">
        <ele>291.691581</ele>
        <time>2022-03-07T10:01:50.512Z</time>
      </trkpt>
      <trkpt lat="42.29305" lon="24.39124">
        <ele>291.523152</ele>
        <time>2022-03-07T10:01:53.539Z</time>
      </trkpt>
      <trkpt lat="42.2931" lon="24.39114">
        <ele>291.409272</ele>
        <time>2022-03-07T10:01:55.511Z</time>
      </trkpt>
      <trkpt lat="42.29316" lon="24.39104">
        <ele>291.293991</ele>
        <time>2022-03-07T10:01:57.495Z</time>
      </trkpt>
      <trkpt lat="42.29324" lon="24.39089">
        <ele>291.127708</ele>
        <time>2022-03-07T10:02:00.519Z</time>
      </trkpt>
      <trkpt lat="42.29329" lon="24.3908">
        <ele>291.016166</ele>
        <time>2022-03-07T10:02:02.491Z</time>
      </trkpt>
      <trkpt lat="42.29335" lon="24.3907">
        <ele>290.903883</ele>
        <time>2022-03-07T10:02:04.514Z</time>
      </trkpt>
      <trkpt lat="42.29342" lon="24.39055">
        <ele>290.995115</ele>
        <time>2022-03-07T10:02:07.517Z</time>
      </trkpt>
      <trkpt lat="42.2935" lon="24.39042">
        <ele>291.208179</ele>
        <time>2022-03-07T10:02:10.505Z</time>
      </trkpt>
      <trkpt lat="42.29357" lon="24.39029">
        <ele>291.41129</ele>
        <time>2022-03-07T10:02:13.512Z</time>
      </trkpt>
      <trkpt lat="42.29365" lon="24.39016">
        <ele>291.621694</ele>
        <time>2022-03-07T10:02:16.499Z</time>
      </trkpt>
      <trkpt lat="42.29373" lon="24.39003">
        <ele>291.828035</ele>
        <time>2022-03-07T10:02:19.518Z</time>
      </trkpt>
      <trkpt lat="42.2938" lon="24.38991">
        <ele>292.017289</ele>
        <time>2022-03-07T10:02:22.516Z</time>
      </trkpt>
      <trkpt lat="42.29388" lon="24.38979">
        <ele>292.214942</ele>
        <time>2022-03-07T10:02:25.497Z</time>
      </trkpt>
      <trkpt lat="42.29396" lon="24.38967">
        <ele>292.414637</ele>
        <time>2022-03-07T10:02:28.510Z</time>
      </trkpt>
      <trkpt lat="42.29403" lon="24.38955">
        <ele>292.61451</ele>
        <time>2022-03-07T10:02:31.508Z</time>
      </trkpt>
      <trkpt lat="42.29411" lon="24.38943">
        <ele>292.817034</ele>
        <time>2022-03-07T10:02:34.496Z</time>
      </trkpt>
      <trkpt lat="42.29419" lon="24.3893">
        <ele>293.017669</ele>
        <time>2022-03-07T10:02:37.504Z</time>
      </trkpt>
      <trkpt lat="42.29427" lon="24.38919">
        <ele>293.214564</ele>
        <time>2022-03-07T10:02:40.539Z</time>
      </trkpt>
      <trkpt lat="42.29434" lon="24.38906">
        <ele>293.411936</ele>
        <time>2022-03-07T10:02:43.511Z</time>
      </trkpt>
      <trkpt lat="42.29443" lon="24.38895">
        <ele>293.612455</ele>
        <time>2022-03-07T10:02:46.521Z</time>
      </trkpt>
      <trkpt lat="42.2945" lon="24.38884">
        <ele>293.801559</ele>
        <time>2022-03-07T10:02:49.517Z</time>
      </trkpt>
      <trkpt lat="42.29458" lon="24.38872">
        <ele>293.869308</ele>
        <time>2022-03-07T10:02:52.496Z</time>
      </trkpt>
      <trkpt lat="42.29465" lon="24.38863">
        <ele>293.862944</ele>
        <time>2022-03-07T10:02:54.499Z</time>
      </trkpt>
      <trkpt lat="42.29474" lon="24.38851">
        <ele>293.853666</ele>
        <time>2022-03-07T10:02:57.495Z</time>
      </trkpt>
      <trkpt lat="42.29483" lon="24.38838">
        <ele>293.844537</ele>
        <time>2022-03-07T10:03:00.517Z</time>
      </trkpt>
      <trkpt lat="42.29492" lon="24.38825">
        <ele>293.835611</ele>
        <time>2022-03-07T10:03:03.505Z</time>
      </trkpt>
      <trkpt lat="42.29501" lon="24.38814">
        <ele>293.827264</ele>
        <time>2022-03-07T10:03:06.520Z</time>
      </trkpt>
      <trkpt lat="42.29509" lon="24.38803">
        <ele>293.818867</ele>
        <time>2022-03-07T10:03:09.520Z</time>
      </trkpt>
      <trkpt lat="42.29518" lon="24.3879">
        <ele>293.809818</ele>
        <time>2022-03-07T10:03:12.501Z</time>
      </trkpt>
      <trkpt lat="42.29527" lon="24.38777">
        <ele>293.800684</ele>
        <time>2022-03-07T10:03:15.509Z</time>
      </trkpt>
      <trkpt lat="42.29535" lon="24.38764">
        <ele>293.791898</ele>
        <time>2022-03-07T10:03:18.502Z</time>
      </trkpt>
      <trkpt lat="42.29545" lon="24.38751">
        <ele>293.782548</ele>
        <time>2022-03-07T10:03:21.509Z</time>
      </trkpt>
      <trkpt lat="42.29554" lon="24.38738">
        <ele>293.773366</ele>
        <time>2022-03-07T10:03:24.499Z</time>
      </trkpt>
      <trkpt lat="42.29563" lon="24.38725">
        <ele>293.764151</ele>
        <time>2022-03-07T10:03:27.507Z</time>
      </trkpt>
      <trkpt lat="42.29572" lon="24.38713">
        <ele>293.755156</ele>
        <time>2022-03-07T10:03:30.507Z</time>
      </trkpt>
      <trkpt lat="42.29581" lon="24.38701">
        <ele>293.686748</ele>
        <time>2022-03-07T10:03:33.510Z</time>
      </trkpt>
      <trkpt lat="42.2959" lon="24.38689">
        <ele>293.465161</ele>
        <time>2022-03-07T10:03:36.514Z</time>
      </trkpt>
      <trkpt lat="42.29599" lon="24.38676">
        <ele>293.243596</ele>
        <time>2022-03-07T10:03:39.505Z</time>
      </trkpt>
      <trkpt lat="42.29607" lon="24.38665">
        <ele>293.031801</ele>
        <time>2022-03-07T10:03:42.506Z</time>
      </trkpt>
      <trkpt lat="42.29617" lon="24.38653">
        <ele>292.804532</ele>
        <time>2022-03-07T10:03:45.501Z</time>
      </trkpt>
      <trkpt lat="42.29626" lon="24.3864">
        <ele>292.581529</ele>
        <time>2022-03-07T10:03:48.519Z</time>
      </trkpt>
      <trkpt lat="42.29634" lon="24.38628">
        <ele>292.369783</ele>
        <time>2022-03-07T10:03:51.504Z</time>
      </trkpt>
      <trkpt lat="42.29642" lon="24.38616">
        <ele>292.16837</ele>
        <time>2022-03-07T10:03:54.520Z</time>
      </trkpt>
      <trkpt lat="42.2965" lon="24.38605">
        <ele>291.96208</ele>
        <time>2022-03-07T10:03:57.514Z</time>
      </trkpt>
      <trkpt lat="42.29658" lon="24.38593">
        <ele>291.757603</ele>
        <time>2022-03-07T10:04:00.526Z</time>
      </trkpt>
      <trkpt lat="42.29666" lon="24.38581">
        <ele>291.55272</ele>
        <time>2022-03-07T10:04:03.538Z</time>
      </trkpt>
      <trkpt lat="42.29675" lon="24.38569">
        <ele>291.333685</ele>
        <time>2022-03-07T10:04:06.503Z</time>
      </trkpt>
      <trkpt lat="42.29683" lon="24.38557">
        <ele>291.120576</ele>
        <time>2022-03-07T10:04:09.499Z</time>
      </trkpt>
      <trkpt lat="42.29692" lon="24.38544">
        <ele>290.904182</ele>
        <time>2022-03-07T10:04:12.509Z</time>
      </trkpt>
      <trkpt lat="42.29699" lon="24.38531">
        <ele>290.698364</ele>
        <time>2022-03-07T10:04:15.513Z</time>
      </trkpt>
      <trkpt lat="42.29707" lon="24.38517">
        <ele>290.62291</ele>
        <time>2022-03-07T10:04:18.514Z</time>
      </trkpt>
      <trkpt lat="42.29713" lon="24.38502">
        <ele>290.603888</ele>
        <time>2022-03-07T10:04:21.514Z</time>
      </trkpt>
      <trkpt lat="42.29719" lon="24.38485">
        <ele>290.583732</ele>
        <time>2022-03-07T10:04:24.508Z</time>
      </trkpt>
      <trkpt lat="42.29723" lon="24.38474">
        <ele>290.569989</ele>
        <time>2022-03-07T10:04:26.518Z</time>
      </trkpt>
      <trkpt lat="42.29727" lon="24.38462">
        <ele>290.555721</ele>
        <time>2022-03-07T10:04:28.512Z</time>
      </trkpt>
      <trkpt lat="42.29731" lon="24.38451">
        <ele>290.542255</ele>
        <time>2022-03-07T10:04:30.528Z</time>
      </trkpt>
      <trkpt lat="42.29735" lon="24.3844">
        <ele>290.528742</ele>
        <time>2022-03-07T10:04:32.502Z</time>
      </trkpt>
      <trkpt lat="42.29738" lon="24.38429">
        <ele>290.515194</ele>
        <time>2022-03-07T10:04:34.552Z</time>
      </trkpt>
      <trkpt lat="42.29742" lon="24.38418">
        <ele>290.501843</ele>
        <time>2022-03-07T10:04:36.496Z</time>
      </trkpt>
      <trkpt lat="42.29747" lon="24.38401">
        <ele>290.482574</ele>
        <time>2022-03-07T10:04:39.512Z</time>
      </trkpt>
      <trkpt lat="42.29751" lon="24.3839">
        <ele>290.469088</ele>
        <time>2022-03-07T10:04:41.540Z</time>
      </trkpt>
      <trkpt lat="42.29755" lon="24.38379">
        <ele>290.455304</ele>
        <time>2022-03-07T10:04:43.512Z</time>
      </trkpt>
      <trkpt lat="42.2976" lon="24.38362">
        <ele>290.435675</ele>
        <time>2022-03-07T10:04:46.519Z</time>
      </trkpt>
      <trkpt lat="42.29763" lon="24.38351">
        <ele>290.422379</ele>
        <time>2022-03-07T10:04:48.510Z</time>
      </trkpt>
      <trkpt lat="42.29767" lon="24.3834">
        <ele>290.408794</ele>
        <time>2022-03-07T10:04:50.508Z</time>
      </trkpt>
      <trkpt lat="42.29772" lon="24.38324">
        <ele>290.389807</ele>
        <time>2022-03-07T10:04:53.518Z</time>
      </trkpt>
      <trkpt lat="42.29778" lon="24.38308">
        <ele>290.370577</ele>
        <time>2022-03-07T10:04:56.510Z</time>
      </trkpt>
      <trkpt lat="42.29782" lon="24.38292">
        <ele>290.49366</ele>
        <time>2022-03-07T10:04:59.511Z</time>
      </trkpt>
      <trkpt lat="42.29786" lon="24.38279">
        <ele>290.599808</ele>
        <time>2022-03-07T10:05:02.520Z</time>
      </trkpt>
      <trkpt lat="42.29791" lon="24.38264">
        <ele>290.718342</ele>
        <time>2022-03-07T10:05:06.536Z</time>
      </trkpt>
      <trkpt lat="42.29796" lon="24.38251">
        <ele>290.829964</ele>
        <time>2022-03-07T10:05:10.510Z</time>
      </trkpt>
      <trkpt lat="42.298" lon="24.3824">
        <ele>290.921609</ele>
        <time>2022-03-07T10:05:13.513Z</time>
      </trkpt>
      <trkpt lat="42.29805" lon="24.38229">
        <ele>291.014889</ele>
        <time>2022-03-07T10:05:16.499Z</time>
      </trkpt>
      <trkpt lat="42.29812" lon="24.38217">
        <ele>291.129628</ele>
        <time>2022-03-07T10:05:20.547Z</time>
      </trkpt>
      <trkpt lat="42.29818" lon="24.38207">
        <ele>291.224511</ele>
        <time>2022-03-07T10:05:23.518Z</time>
      </trkpt>
      <trkpt lat="42.29827" lon="24.38197">
        <ele>291.339843</ele>
        <time>2022-03-07T10:05:26.521Z</time>
      </trkpt>
      <trkpt lat="42.29834" lon="24.38187">
        <ele>291.442859</ele>
        <time>2022-03-07T10:05:29.507Z</time>
      </trkpt>
      <trkpt lat="42.29842" lon="24.38175">
        <ele>291.559369</ele>
        <time>2022-03-07T10:05:32.514Z</time>
      </trkpt>
      <trkpt lat="42.29852" lon="24.38163">
        <ele>291.689613</ele>
        <time>2022-03-07T10:05:35.511Z</time>
      </trkpt>
      <trkpt lat="42.29862" lon="24.38152">
        <ele>291.820652</ele>
        <time>2022-03-07T10:05:38.548Z</time>
      </trkpt>
      <trkpt lat="42.29872" lon="24.38141">
        <ele>291.945638</ele>
        <time>2022-03-07T10:05:41.530Z</time>
      </trkpt>
      <trkpt lat="42.29882" lon="24.38132">
        <ele>292.071531</ele>
        <time>2022-03-07T10:05:44.512Z</time>
      </trkpt>
      <trkpt lat="42.29891" lon="24.38124">
        <ele>292.157192</ele>
        <time>2022-03-07T10:05:47.552Z</time>
      </trkpt>
      <trkpt lat="42.29901" lon="24.38116">
        <ele>292.078505</ele>
        <time>2022-03-07T10:05:50.510Z</time>
      </trkpt>
      <trkpt lat="42.29911" lon="24.38111">
        <ele>292.004362</ele>
        <time>2022-03-07T10:05:53.520Z</time>
      </trkpt>
      <trkpt lat="42.2992" lon="24.38106">
        <ele>291.933624</ele>
        <time>2022-03-07T10:05:56.519Z</time>
      </trkpt>
      <trkpt lat="42.2993" lon="24.38102">
        <ele>291.862011</ele>
        <time>2022-03-07T10:05:59.515Z</time>
      </trkpt>
      <trkpt lat="42.29941" lon="24.38098">
        <ele>291.783374</ele>
        <time>2022-03-07T10:06:02.517Z</time>
      </trkpt>
      <trkpt lat="42.29952" lon="24.38094">
        <ele>291.701308</ele>
        <time>2022-03-07T10:06:05.510Z</time>
      </trkpt>
      <trkpt lat="42.29964" lon="24.38091">
        <ele>291.621368</ele>
        <time>2022-03-07T10:06:08.518Z</time>
      </trkpt>
      <trkpt lat="42.29975" lon="24.38088">
        <ele>291.539954</ele>
        <time>2022-03-07T10:06:11.514Z</time>
      </trkpt>
      <trkpt lat="42.29986" lon="24.38085">
        <ele>291.459126</ele>
        <time>2022-03-07T10:06:14.514Z</time>
      </trkpt>
      <trkpt lat="42.29998" lon="24.38083">
        <ele>291.37955</ele>
        <time>2022-03-07T10:06:17.507Z</time>
      </trkpt>
      <trkpt lat="42.30008" lon="24.38079">
        <ele>291.302378</ele>
        <time>2022-03-07T10:06:20.549Z</time>
      </trkpt>
      <trkpt lat="42.30018" lon="24.38076">
        <ele>291.230774</ele>
        <time>2022-03-07T10:06:23.506Z</time>
      </trkpt>
      <trkpt lat="42.30027" lon="24.38071">
        <ele>291.162849</ele>
        <time>2022-03-07T10:06:26.535Z</time>
      </trkpt>
      <trkpt lat="42.30036" lon="24.38066">
        <ele>291.094034</ele>
        <time>2022-03-07T10:06:29.505Z</time>
      </trkpt>
      <trkpt lat="42.30045" lon="24.38059">
        <ele>291.023328</ele>
        <time>2022-03-07T10:06:32.514Z</time>
      </trkpt>
      <trkpt lat="42.30053" lon="24.38051">
        <ele>290.953341</ele>
        <time>2022-03-07T10:06:35.509Z</time>
      </trkpt>
      <trkpt lat="42.30061" lon="24.38044">
        <ele>290.94178</ele>
        <time>2022-03-07T10:06:38.515Z</time>
      </trkpt>
      <trkpt lat="42.30069" lon="24.38036">
        <ele>291.042838</ele>
        <time>2022-03-07T10:06:41.518Z</time>
      </trkpt>
      <trkpt lat="42.30076" lon="24.38028">
        <ele>291.144591</ele>
        <time>2022-03-07T10:06:44.518Z</time>
      </trkpt>
      <trkpt lat="42.30084" lon="24.38019">
        <ele>291.254411</ele>
        <time>2022-03-07T10:06:47.519Z</time>
      </trkpt>
      <trkpt lat="42.30093" lon="24.3801">
        <ele>291.374327</ele>
        <time>2022-03-07T10:06:50.513Z</time>
      </trkpt>
      <trkpt lat="42.30102" lon="24.38002">
        <ele>291.48981</ele>
        <time>2022-03-07T10:06:53.512Z</time>
      </trkpt>
      <trkpt lat="42.30111" lon="24.37993">
        <ele>291.599711</ele>
        <time>2022-03-07T10:06:56.504Z</time>
      </trkpt>
      <trkpt lat="42.3012" lon="24.37987">
        <ele>291.713092</ele>
        <time>2022-03-07T10:06:59.517Z</time>
      </trkpt>
      <trkpt lat="42.3013" lon="24.37979">
        <ele>291.832628</ele>
        <time>2022-03-07T10:07:02.509Z</time>
      </trkpt>
      <trkpt lat="42.3014" lon="24.37972">
        <ele>291.949753</ele>
        <time>2022-03-07T10:07:05.550Z</time>
      </trkpt>
      <trkpt lat="42.3015" lon="24.37966">
        <ele>292.069268</ele>
        <time>2022-03-07T10:07:08.525Z</time>
      </trkpt>
      <trkpt lat="42.3016" lon="24.37961">
        <ele>292.184755</ele>
        <time>2022-03-07T10:07:11.497Z</time>
      </trkpt>
      <trkpt lat="42.30171" lon="24.37956">
        <ele>292.305513</ele>
        <time>2022-03-07T10:07:14.516Z</time>
      </trkpt>
      <trkpt lat="42.30183" lon="24.37951">
        <ele>292.438853</ele>
        <time>2022-03-07T10:07:17.517Z</time>
      </trkpt>
      <trkpt lat="42.30194" lon="24.37946">
        <ele>292.563881</ele>
        <time>2022-03-07T10:07:20.499Z</time>
      </trkpt>
      <trkpt lat="42.30206" lon="24.3794">
        <ele>292.693558</ele>
        <time>2022-03-07T10:07:23.506Z</time>
      </trkpt>
      <trkpt lat="42.30217" lon="24.37935">
        <ele>292.817306</ele>
        <time>2022-03-07T10:07:26.520Z</time>
      </trkpt>
      <trkpt lat="42.30228" lon="24.37929">
        <ele>292.882565</ele>
        <time>2022-03-07T10:07:29.507Z</time>
      </trkpt>
      <trkpt lat="42.30239" lon="24.37924">
        <ele>292.949022</ele>
        <time>2022-03-07T10:07:32.509Z</time>
      </trkpt>
      <trkpt lat="42.30251" lon="24.37918">
        <ele>293.018125</ele>
        <time>2022-03-07T10:07:35.511Z</time>
      </trkpt>
      <trkpt lat="42.30262" lon="24.37913">
        <ele>293.084873</ele>
        <time>2022-03-07T10:07:38.509Z</time>
      </trkpt>
      <trkpt lat="42.30274" lon="24.37907">
        <ele>293.158102</ele>
        <time>2022-03-07T10:07:41.506Z</time>
      </trkpt>
      <trkpt lat="42.30286" lon="24.37901">
        <ele>293.227873</ele>
        <time>2022-03-07T10:07:44.549Z</time>
      </trkpt>
      <trkpt lat="42.30297" lon="24.37895">
        <ele>293.295387</ele>
        <time>2022-03-07T10:07:47.515Z</time>
      </trkpt>
      <trkpt lat="42.30308" lon="24.37889">
        <ele>293.365661</ele>
        <time>2022-03-07T10:07:50.516Z</time>
      </trkpt>
      <trkpt lat="42.3032" lon="24.37881">
        <ele>293.437298</ele>
        <time>2022-03-07T10:07:53.498Z</time>
      </trkpt>
      <trkpt lat="42.30328" lon="24.37875">
        <ele>293.488928</ele>
        <time>2022-03-07T10:07:55.567Z</time>
      </trkpt>
      <trkpt lat="42.3034" lon="24.37866">
        <ele>293.56666</ele>
        <time>2022-03-07T10:07:58.510Z</time>
      </trkpt>
      <trkpt lat="42.30351" lon="24.37855">
        <ele>293.64308</ele>
        <time>2022-03-07T10:08:01.519Z</time>
      </trkpt>
      <trkpt lat="42.30358" lon="24.37848">
        <ele>293.69437</ele>
        <time>2022-03-07T10:08:03.510Z</time>
      </trkpt>
      <trkpt lat="42.30366" lon="24.37841">
        <ele>293.745133</ele>
        <time>2022-03-07T10:08:05.510Z</time>
      </trkpt>
      <trkpt lat="42.30373" lon="24.37834">
        <ele>293.796226</ele>
        <time>2022-03-07T10:08:07.509Z</time>
      </trkpt>
      <trkpt lat="42.30383" lon="24.37822">
        <ele>293.735964</ele>
        <time>2022-03-07T10:08:10.547Z</time>
      </trkpt>
      <trkpt lat="42.3039" lon="24.37814">
        <ele>293.633161</ele>
        <time>2022-03-07T10:08:12.506Z</time>
      </trkpt>
      <trkpt lat="42.30399" lon="24.37803">
        <ele>293.495622</ele>
        <time>2022-03-07T10:08:15.510Z</time>
      </trkpt>
      <trkpt lat="42.3041" lon="24.37793">
        <ele>293.354103</ele>
        <time>2022-03-07T10:08:18.511Z</time>
      </trkpt>
      <trkpt lat="42.3042" lon="24.37784">
        <ele>293.215401</ele>
        <time>2022-03-07T10:08:21.507Z</time>
      </trkpt>
      <trkpt lat="42.30429" lon="24.37773">
        <ele>293.078417</ele>
        <time>2022-03-07T10:08:24.503Z</time>
      </trkpt>
      <trkpt lat="42.30439" lon="24.37763">
        <ele>292.940426</ele>
        <time>2022-03-07T10:08:27.511Z</time>
      </trkpt>
      <trkpt lat="42.30449" lon="24.37753">
        <ele>292.801542</ele>
        <time>2022-03-07T10:08:30.506Z</time>
      </trkpt>
      <trkpt lat="42.30457" lon="24.37744">
        <ele>292.677979</ele>
        <time>2022-03-07T10:08:33.501Z</time>
      </trkpt>
      <trkpt lat="42.30467" lon="24.37734">
        <ele>292.545164</ele>
        <time>2022-03-07T10:08:36.521Z</time>
      </trkpt>
      <trkpt lat="42.30478" lon="24.37725">
        <ele>292.403527</ele>
        <time>2022-03-07T10:08:39.576Z</time>
      </trkpt>
      <trkpt lat="42.30489" lon="24.37717">
        <ele>292.260073</ele>
        <time>2022-03-07T10:08:42.515Z</time>
      </trkpt>
      <trkpt lat="42.30501" lon="24.37712">
        <ele>292.119767</ele>
        <time>2022-03-07T10:08:45.510Z</time>
      </trkpt>
      <trkpt lat="42.30514" lon="24.37708">
        <ele>291.97629</ele>
        <time>2022-03-07T10:08:48.520Z</time>
      </trkpt>
      <trkpt lat="42.30526" lon="24.37705">
        <ele>291.833295</ele>
        <time>2022-03-07T10:08:51.510Z</time>
      </trkpt>
      <trkpt lat="42.30539" lon="24.37703">
        <ele>292.218597</ele>
        <time>2022-03-07T10:08:54.506Z</time>
      </trkpt>
      <trkpt lat="42.30551" lon="24.377">
        <ele>292.700229</ele>
        <time>2022-03-07T10:08:57.520Z</time>
      </trkpt>
      <trkpt lat="42.30564" lon="24.37697">
        <ele>293.178112</ele>
        <time>2022-03-07T10:09:00.494Z</time>
      </trkpt>
      <trkpt lat="42.30575" lon="24.37695">
        <ele>293.632132</ele>
        <time>2022-03-07T10:09:03.507Z</time>
      </trkpt>
      <trkpt lat="42.30587" lon="24.37692">
        <ele>294.074714</ele>
        <time>2022-03-07T10:09:06.554Z</time>
      </trkpt>
      <trkpt lat="42.30597" lon="24.37689">
        <ele>294.470351</ele>
        <time>2022-03-07T10:09:09.509Z</time>
      </trkpt>
      <trkpt lat="42.30607" lon="24.37687">
        <ele>294.870064</ele>
        <time>2022-03-07T10:09:12.509Z</time>
      </trkpt>
      <trkpt lat="42.30618" lon="24.37684">
        <ele>295.280084</ele>
        <time>2022-03-07T10:09:15.533Z</time>
      </trkpt>
      <trkpt lat="42.30628" lon="24.37682">
        <ele>295.666973</ele>
        <time>2022-03-07T10:09:18.551Z</time>
      </trkpt>
      <trkpt lat="42.30637" lon="24.37681">
        <ele>296.014266</ele>
        <time>2022-03-07T10:09:21.506Z</time>
      </trkpt>
      <trkpt lat="42.30648" lon="24.3768">
        <ele>296.426961</ele>
        <time>2022-03-07T10:09:25.511Z</time>
      </trkpt>
      <trkpt lat="42.30659" lon="24.37679">
        <ele>296.831078</ele>
        <time>2022-03-07T10:09:29.524Z</time>
      </trkpt>
      <trkpt lat="42.30668" lon="24.37678">
        <ele>297.182417</ele>
        <time>2022-03-07T10:09:32.515Z</time>
      </trkpt>
      <trkpt lat="42.30677" lon="24.37675">
        <ele>297.533816</ele>
        <time>2022-03-07T10:09:35.506Z</time>
      </trkpt>
      <trkpt lat="42.30686" lon="24.37673">
        <ele>297.877734</ele>
        <time>2022-03-07T10:09:38.515Z</time>
      </trkpt>
      <trkpt lat="42.30695" lon="24.37671">
        <ele>298.223991</ele>
        <time>2022-03-07T10:09:41.513Z</time>
      </trkpt>
      <trkpt lat="42.30705" lon="24.37669">
        <ele>298.602083</ele>
        <time>2022-03-07T10:09:44.538Z</time>
      </trkpt>
      <trkpt lat="42.30715" lon="24.37667">
        <ele>298.735289</ele>
        <time>2022-03-07T10:09:47.495Z</time>
      </trkpt>
      <trkpt lat="42.30725" lon="24.37665">
        <ele>298.831082</ele>
        <time>2022-03-07T10:09:50.521Z</time>
      </trkpt>
      <trkpt lat="42.30737" lon="24.37663">
        <ele>298.939091</ele>
        <time>2022-03-07T10:09:53.507Z</time>
      </trkpt>
      <trkpt lat="42.30747" lon="24.37661">
        <ele>299.037072</ele>
        <time>2022-03-07T10:09:56.514Z</time>
      </trkpt>
      <trkpt lat="42.30759" lon="24.3766">
        <ele>299.144231</ele>
        <time>2022-03-07T10:09:59.508Z</time>
      </trkpt>
      <trkpt lat="42.30769" lon="24.37656">
        <ele>299.247607</ele>
        <time>2022-03-07T10:10:02.502Z</time>
      </trkpt>
      <trkpt lat="42.3078" lon="24.37653">
        <ele>299.351601</ele>
        <time>2022-03-07T10:10:05.517Z</time>
      </trkpt>
      <trkpt lat="42.30791" lon="24.37649">
        <ele>299.45444</ele>
        <time>2022-03-07T10:10:08.525Z</time>
      </trkpt>
      <trkpt lat="42.30801" lon="24.37644">
        <ele>299.557727</ele>
        <time>2022-03-07T10:10:11.543Z</time>
      </trkpt>
      <trkpt lat="42.3081" lon="24.37637">
        <ele>299.653176</ele>
        <time>2022-03-07T10:10:14.515Z</time>
      </trkpt>
      <trkpt lat="42.30819" lon="24.37629">
        <ele>299.755275</ele>
        <time>2022-03-07T10:10:17.541Z</time>
      </trkpt>
      <trkpt lat="42.30829" lon="24.37621">
        <ele>299.86163</ele>
        <time>2022-03-07T10:10:20.523Z</time>
      </trkpt>
      <trkpt lat="42.30839" lon="24.3761">
        <ele>299.980156</ele>
        <time>2022-03-07T10:10:23.521Z</time>
      </trkpt>
      <trkpt lat="42.30849" lon="24.376">
        <ele>300.096467</ele>
        <time>2022-03-07T10:10:26.514Z</time>
      </trkpt>
      <trkpt lat="42.30858" lon="24.37589">
        <ele>300.209862</ele>
        <time>2022-03-07T10:10:29.513Z</time>
      </trkpt>
      <trkpt lat="42.30867" lon="24.37579">
        <ele>300.317183</ele>
        <time>2022-03-07T10:10:32.506Z</time>
      </trkpt>
      <trkpt lat="42.30876" lon="24.3757">
        <ele>300.300362</ele>
        <time>2022-03-07T10:10:35.521Z</time>
      </trkpt>
      <trkpt lat="42.30884" lon="24.3756">
        <ele>300.272133</ele>
        <time>2022-03-07T10:10:38.507Z</time>
      </trkpt>
      <trkpt lat="42.30892" lon="24.3755">
        <ele>300.243429</ele>
        <time>2022-03-07T10:10:41.520Z</time>
      </trkpt>
      <trkpt lat="42.309" lon="24.37541">
        <ele>300.216155</ele>
        <time>2022-03-07T10:10:44.504Z</time>
      </trkpt>
      <trkpt lat="42.30907" lon="24.37532">
        <ele>300.189557</ele>
        <time>2022-03-07T10:10:47.515Z</time>
      </trkpt>
      <trkpt lat="42.30915" lon="24.37524">
        <ele>300.163426</ele>
        <time>2022-03-07T10:10:50.535Z</time>
      </trkpt>
      <trkpt lat="42.30924" lon="24.37514">
        <ele>300.132881</ele>
        <time>2022-03-07T10:10:54.525Z</time>
      </trkpt>
      <trkpt lat="42.30933" lon="24.37503">
        <ele>300.101784</ele>
        <time>2022-03-07T10:10:58.499Z</time>
      </trkpt>
      <trkpt lat="42.30941" lon="24.37495">
        <ele>300.075859</ele>
        <time>2022-03-07T10:11:01.546Z</time>
      </trkpt>
      <trkpt lat="42.30948" lon="24.37487">
        <ele>300.051276</ele>
        <time>2022-03-07T10:11:04.501Z</time>
      </trkpt>
      <trkpt lat="42.30957" lon="24.37477">
        <ele>300.020321</ele>
        <time>2022-03-07T10:11:08.511Z</time>
      </trkpt>
      <trkpt lat="42.30965" lon="24.37467">
        <ele>299.991345</ele>
        <time>2022-03-07T10:11:12.551Z</time>
      </trkpt>
      <trkpt lat="42.30973" lon="24.37457">
        <ele>299.961879</ele>
        <time>2022-03-07T10:11:16.523Z</time>
      </trkpt>
      <trkpt lat="42.30981" lon="24.37449">
        <ele>299.936849</ele>
        <time>2022-03-07T10:11:19.507Z</time>
      </trkpt>
      <trkpt lat="42.30989" lon="24.37442">
        <ele>299.911983</ele>
        <time>2022-03-07T10:11:22.520Z</time>
      </trkpt>
      <trkpt lat="42.30997" lon="24.37434">
        <ele>299.886574</ele>
        <time>2022-03-07T10:11:25.514Z</time>
      </trkpt>
      <trkpt lat="42.31006" lon="24.37428">
        <ele>299.859569</ele>
        <time>2022-03-07T10:11:28.536Z</time>
      </trkpt>
      <trkpt lat="42.31016" lon="24.37423">
        <ele>299.943371</ele>
        <time>2022-03-07T10:11:31.512Z</time>
      </trkpt>
      <trkpt lat="42.31027" lon="24.37417">
        <ele>300.072671</ele>
        <time>2022-03-07T10:11:34.546Z</time>
      </trkpt>
      <trkpt lat="42.31036" lon="24.37412">
        <ele>300.170354</ele>
        <time>2022-03-07T10:11:36.510Z</time>
      </trkpt>
      <trkpt lat="42.31045" lon="24.37408">
        <ele>300.268151</ele>
        <time>2022-03-07T10:11:38.510Z</time>
      </trkpt>
      <trkpt lat="42.31056" lon="24.37402">
        <ele>300.395712</ele>
        <time>2022-03-07T10:11:41.528Z</time>
      </trkpt>
      <trkpt lat="42.31067" lon="24.37398">
        <ele>300.516522</ele>
        <time>2022-03-07T10:11:44.510Z</time>
      </trkpt>
      <trkpt lat="42.31077" lon="24.37395">
        <ele>300.62335</ele>
        <time>2022-03-07T10:11:47.520Z</time>
      </trkpt>
      <trkpt lat="42.31087" lon="24.3739">
        <ele>300.734759</ele>
        <time>2022-03-07T10:11:50.512Z</time>
      </trkpt>
      <trkpt lat="42.31098" lon="24.37384">
        <ele>300.856676</ele>
        <time>2022-03-07T10:11:53.516Z</time>
      </trkpt>
      <trkpt lat="42.31107" lon="24.3738">
        <ele>300.955454</ele>
        <time>2022-03-07T10:11:56.551Z</time>
      </trkpt>
      <trkpt lat="42.31117" lon="24.37376">
        <ele>301.067756</ele>
        <time>2022-03-07T10:11:59.513Z</time>
      </trkpt>
      <trkpt lat="42.31129" lon="24.3737">
        <ele>301.197061</ele>
        <time>2022-03-07T10:12:02.522Z</time>
      </trkpt>
      <trkpt lat="42.3114" lon="24.37365">
        <ele>301.32638</ele>
        <time>2022-03-07T10:12:05.539Z</time>
      </trkpt>
      <trkpt lat="42.31151" lon="24.3736">
        <ele>301.442263</ele>
        <time>2022-03-07T10:12:08.502Z</time>
      </trkpt>
      <trkpt lat="42.31161" lon="24.37355">
        <ele>301.555654</ele>
        <time>2022-03-07T10:12:11.531Z</time>
      </trkpt>
      <trkpt lat="42.3117" lon="24.37351">
        <ele>301.66233</ele>
        <time>2022-03-07T10:12:14.530Z</time>
      </trkpt>
      <trkpt lat="42.3118" lon="24.37347">
        <ele>301.795227</ele>
        <time>2022-03-07T10:12:17.517Z</time>
      </trkpt>
      <trkpt lat="42.3119" lon="24.37342">
        <ele>302.029502</ele>
        <time>2022-03-07T10:12:20.510Z</time>
      </trkpt>
      <trkpt lat="42.31199" lon="24.37337">
        <ele>302.252058</ele>
        <time>2022-03-07T10:12:23.507Z</time>
      </trkpt>
      <trkpt lat="42.31209" lon="24.37333">
        <ele>302.462316</ele>
        <time>2022-03-07T10:12:26.511Z</time>
      </trkpt>
      <trkpt lat="42.3122" lon="24.37328">
        <ele>302.715804</ele>
        <time>2022-03-07T10:12:30.570Z</time>
      </trkpt>
      <trkpt lat="42.31231" lon="24.37324">
        <ele>302.968807</ele>
        <time>2022-03-07T10:12:34.499Z</time>
      </trkpt>
      <trkpt lat="42.31241" lon="24.37319">
        <ele>303.219643</ele>
        <time>2022-03-07T10:12:38.511Z</time>
      </trkpt>
      <trkpt lat="42.31253" lon="24.37313">
        <ele>303.485229</ele>
        <time>2022-03-07T10:12:42.513Z</time>
      </trkpt>
      <trkpt lat="42.31264" lon="24.37308">
        <ele>303.746484</ele>
        <time>2022-03-07T10:12:46.501Z</time>
      </trkpt>
      <trkpt lat="42.31275" lon="24.37303">
        <ele>304.011374</ele>
        <time>2022-03-07T10:12:50.503Z</time>
      </trkpt>
      <trkpt lat="42.31284" lon="24.37298">
        <ele>304.217975</ele>
        <time>2022-03-07T10:12:53.515Z</time>
      </trkpt>
      <trkpt lat="42.31295" lon="24.37294">
        <ele>304.465691</ele>
        <time>2022-03-07T10:12:57.504Z</time>
      </trkpt>
      <trkpt lat="42.31305" lon="24.37289">
        <ele>304.696245</ele>
        <time>2022-03-07T10:13:01.515Z</time>
      </trkpt>
      <trkpt lat="42.31313" lon="24.37284">
        <ele>304.90259</ele>
        <time>2022-03-07T10:13:05.535Z</time>
      </trkpt>
      <trkpt lat="42.31323" lon="24.37279">
        <ele>305.11909</ele>
        <time>2022-03-07T10:13:09.508Z</time>
      </trkpt>
      <trkpt lat="42.31333" lon="24.37274">
        <ele>305.357146</ele>
        <time>2022-03-07T10:13:13.511Z</time>
      </trkpt>
      <trkpt lat="42.31342" lon="24.37267">
        <ele>305.587528</ele>
        <time>2022-03-07T10:13:17.499Z</time>
      </trkpt>
      <trkpt lat="42.31351" lon="24.3726">
        <ele>305.80218</ele>
        <time>2022-03-07T10:13:21.527Z</time>
      </trkpt>
      <trkpt lat="42.31359" lon="24.3725">
        <ele>305.999167</ele>
        <time>2022-03-07T10:13:25.502Z</time>
      </trkpt>
      <trkpt lat="42.31367" lon="24.37242">
        <ele>306.188234</ele>
        <time>2022-03-07T10:13:29.506Z</time>
      </trkpt>
      <trkpt lat="42.31374" lon="24.37233">
        <ele>306.375894</ele>
        <time>2022-03-07T10:13:33.508Z</time>
      </trkpt>
      <trkpt lat="42.31381" lon="24.37222">
        <ele>306.578896</ele>
        <time>2022-03-07T10:13:37.512Z</time>
      </trkpt>
      <trkpt lat="42.31387" lon="24.37213">
        <ele>306.757024</ele>
        <time>2022-03-07T10:13:41.506Z</time>
      </trkpt>
      <trkpt lat="42.31394" lon="24.37202">
        <ele>306.94827</ele>
        <time>2022-03-07T10:13:45.516Z</time>
      </trkpt>
      <trkpt lat="42.31402" lon="24.37192">
        <ele>307.154307</ele>
        <time>2022-03-07T10:13:49.511Z</time>
      </trkpt>
      <trkpt lat="42.31408" lon="24.37182">
        <ele>307.336554</ele>
        <time>2022-03-07T10:13:53.519Z</time>
      </trkpt>
      <trkpt lat="42.31414" lon="24.37171">
        <ele>307.527631</ele>
        <time>2022-03-07T10:13:57.509Z</time>
      </trkpt>
      <trkpt lat="42.31422" lon="24.37159">
        <ele>307.749052</ele>
        <time>2022-03-07T10:14:01.511Z</time>
      </trkpt>
      <trkpt lat="42.3143" lon="24.37147">
        <ele>307.972021</ele>
        <time>2022-03-07T10:14:05.529Z</time>
      </trkpt>
      <trkpt lat="42.31435" lon="24.37138">
        <ele>308.14282</ele>
        <time>2022-03-07T10:14:08.512Z</time>
      </trkpt>
      <trkpt lat="42.31441" lon="24.37128">
        <ele>308.319554</ele>
        <time>2022-03-07T10:14:11.512Z</time>
      </trkpt>
      <trkpt lat="42.31447" lon="24.37118">
        <ele>308.502741</ele>
        <time>2022-03-07T10:14:14.529Z</time>
      </trkpt>
      <trkpt lat="42.31452" lon="24.37107">
        <ele>308.685053</ele>
        <time>2022-03-07T10:14:17.511Z</time>
      </trkpt>
      <trkpt lat="42.31457" lon="24.37095">
        <ele>308.871489</ele>
        <time>2022-03-07T10:14:20.519Z</time>
      </trkpt>
      <trkpt lat="42.31462" lon="24.37082">
        <ele>309.073796</ele>
        <time>2022-03-07T10:14:23.512Z</time>
      </trkpt>
      <trkpt lat="42.31466" lon="24.37068">
        <ele>308.867004</ele>
        <time>2022-03-07T10:14:26.515Z</time>
      </trkpt>
      <trkpt lat="42.3147" lon="24.37051">
        <ele>308.593472</ele>
        <time>2022-03-07T10:14:29.511Z</time>
      </trkpt>
      <trkpt lat="42.31474" lon="24.37039">
        <ele>308.384908</ele>
        <time>2022-03-07T10:14:31.508Z</time>
      </trkpt>
      <trkpt lat="42.31476" lon="24.37026">
        <ele>308.1661</ele>
        <time>2022-03-07T10:14:33.508Z</time>
      </trkpt>
      <trkpt lat="42.3148" lon="24.37013">
        <ele>307.946274</ele>
        <time>2022-03-07T10:14:35.516Z</time>
      </trkpt>
      <trkpt lat="42.31482" lon="24.36999">
        <ele>307.719886</ele>
        <time>2022-03-07T10:14:37.513Z</time>
      </trkpt>
      <trkpt lat="42.31486" lon="24.36984">
        <ele>307.469445</ele>
        <time>2022-03-07T10:14:39.510Z</time>
      </trkpt>
      <trkpt lat="42.3149" lon="24.36969">
        <ele>307.215295</ele>
        <time>2022-03-07T10:14:41.499Z</time>
      </trkpt>
      <trkpt lat="42.31493" lon="24.36954">
        <ele>306.96495</ele>
        <time>2022-03-07T10:14:43.511Z</time>
      </trkpt>
      <trkpt lat="42.31498" lon="24.36939">
        <ele>306.712919</ele>
        <time>2022-03-07T10:14:45.538Z</time>
      </trkpt>
      <trkpt lat="42.31502" lon="24.36924">
        <ele>306.449701</ele>
        <time>2022-03-07T10:14:47.535Z</time>
      </trkpt>
      <trkpt lat="42.31506" lon="24.36908">
        <ele>306.177566</ele>
        <time>2022-03-07T10:14:49.523Z</time>
      </trkpt>
      <trkpt lat="42.3151" lon="24.36891">
        <ele>305.90762</ele>
        <time>2022-03-07T10:14:51.504Z</time>
      </trkpt>
      <trkpt lat="42.31513" lon="24.36875">
        <ele>305.63682</ele>
        <time>2022-03-07T10:14:53.505Z</time>
      </trkpt>
      <trkpt lat="42.31518" lon="24.36859">
        <ele>305.367008</ele>
        <time>2022-03-07T10:14:55.514Z</time>
      </trkpt>
      <trkpt lat="42.31521" lon="24.36844">
        <ele>305.197727</ele>
        <time>2022-03-07T10:14:57.530Z</time>
      </trkpt>
      <trkpt lat="42.31523" lon="24.36828">
        <ele>305.149343</ele>
        <time>2022-03-07T10:14:59.511Z</time>
      </trkpt>
      <trkpt lat="42.31526" lon="24.36812">
        <ele>305.102072</ele>
        <time>2022-03-07T10:15:01.500Z</time>
      </trkpt>
      <trkpt lat="42.31529" lon="24.36797">
        <ele>305.056585</ele>
        <time>2022-03-07T10:15:03.523Z</time>
      </trkpt>
      <trkpt lat="42.31531" lon="24.36783">
        <ele>305.013448</ele>
        <time>2022-03-07T10:15:05.550Z</time>
      </trkpt>
      <trkpt lat="42.31534" lon="24.36769">
        <ele>304.970587</ele>
        <time>2022-03-07T10:15:07.507Z</time>
      </trkpt>
      <trkpt lat="42.31536" lon="24.36756">
        <ele>304.930421</ele>
        <time>2022-03-07T10:15:09.546Z</time>
      </trkpt>
      <trkpt lat="42.31538" lon="24.36744">
        <ele>304.893411</ele>
        <time>2022-03-07T10:15:11.516Z</time>
      </trkpt>
      <trkpt lat="42.3154" lon="24.36727">
        <ele>304.841216</ele>
        <time>2022-03-07T10:15:14.531Z</time>
      </trkpt>
      <trkpt lat="42.31542" lon="24.36711">
        <ele>304.793731</ele>
        <time>2022-03-07T10:15:17.540Z</time>
      </trkpt>
      <trkpt lat="42.31542" lon="24.36696">
        <ele>304.750345</ele>
        <time>2022-03-07T10:15:20.515Z</time>
      </trkpt>
      <trkpt lat="42.31546" lon="24.36683">
        <ele>304.708983</ele>
        <time>2022-03-07T10:15:23.506Z</time>
      </trkpt>
      <trkpt lat="42.31548" lon="24.36669">
        <ele>304.665645</ele>
        <time>2022-03-07T10:15:26.529Z</time>
      </trkpt>
      <trkpt lat="42.31549" lon="24.36654">
        <ele>304.621825</ele>
        <time>2022-03-07T10:15:29.515Z</time>
      </trkpt>
      <trkpt lat="42.31551" lon="24.36639">
        <ele>304.575544</ele>
        <time>2022-03-07T10:15:32.509Z</time>
      </trkpt>
      <trkpt lat="42.31552" lon="24.36623">
        <ele>304.528829</ele>
        <time>2022-03-07T10:15:35.510Z</time>
      </trkpt>
      <trkpt lat="42.31554" lon="24.36607">
        <ele>304.505485</ele>
        <time>2022-03-07T10:15:38.515Z</time>
      </trkpt>
      <trkpt lat="42.31557" lon="24.36596">
        <ele>304.529992</ele>
        <time>2022-03-07T10:15:42.562Z</time>
      </trkpt>
      <trkpt lat="42.31558" lon="24.36583">
        <ele>304.554741</ele>
        <time>2022-03-07T10:15:45.520Z</time>
      </trkpt>
      <trkpt lat="42.3156" lon="24.36568">
        <ele>304.584287</ele>
        <time>2022-03-07T10:15:48.506Z</time>
      </trkpt>
      <trkpt lat="42.31562" lon="24.36552">
        <ele>304.617339</ele>
        <time>2022-03-07T10:15:51.507Z</time>
      </trkpt>
      <trkpt lat="42.31567" lon="24.36536">
        <ele>304.650472</ele>
        <time>2022-03-07T10:15:54.513Z</time>
      </trkpt>
      <trkpt lat="42.31573" lon="24.3652">
        <ele>304.684834</ele>
        <time>2022-03-07T10:15:57.517Z</time>
      </trkpt>
      <trkpt lat="42.31578" lon="24.3651">
        <ele>304.708784</ele>
        <time>2022-03-07T10:15:59.510Z</time>
      </trkpt>
      <trkpt lat="42.31586" lon="24.36496">
        <ele>304.743572</ele>
        <time>2022-03-07T10:16:02.518Z</time>
      </trkpt>
      <trkpt lat="42.31594" lon="24.36484">
        <ele>304.775548</ele>
        <time>2022-03-07T10:16:05.539Z</time>
      </trkpt>
      <trkpt lat="42.31602" lon="24.36472">
        <ele>304.806598</ele>
        <time>2022-03-07T10:16:08.515Z</time>
      </trkpt>
      <trkpt lat="42.3161" lon="24.36459">
        <ele>304.839226</ele>
        <time>2022-03-07T10:16:11.496Z</time>
      </trkpt>
      <trkpt lat="42.31618" lon="24.36447">
        <ele>304.872396</ele>
        <time>2022-03-07T10:16:14.572Z</time>
      </trkpt>
      <trkpt lat="42.31626" lon="24.36433">
        <ele>304.906135</ele>
        <time>2022-03-07T10:16:17.527Z</time>
      </trkpt>
      <trkpt lat="42.31634" lon="24.36421">
        <ele>304.937056</ele>
        <time>2022-03-07T10:16:20.511Z</time>
      </trkpt>
      <trkpt lat="42.31643" lon="24.36407">
        <ele>304.974614</ele>
        <time>2022-03-07T10:16:23.504Z</time>
      </trkpt>
      <trkpt lat="42.31651" lon="24.36396">
        <ele>305.110071</ele>
        <time>2022-03-07T10:16:26.507Z</time>
      </trkpt>
      <trkpt lat="42.31659" lon="24.36385">
        <ele>305.236575</ele>
        <time>2022-03-07T10:16:29.507Z</time>
      </trkpt>
      <trkpt lat="42.31666" lon="24.36373">
        <ele>305.364402</ele>
        <time>2022-03-07T10:16:32.514Z</time>
      </trkpt>
      <trkpt lat="42.31672" lon="24.36361">
        <ele>305.489909</ele>
        <time>2022-03-07T10:16:35.516Z</time>
      </trkpt>
      <trkpt lat="42.31679" lon="24.36351">
        <ele>305.606932</ele>
        <time>2022-03-07T10:16:38.521Z</time>
      </trkpt>
      <trkpt lat="42.31686" lon="24.3634">
        <ele>305.72896</ele>
        <time>2022-03-07T10:16:41.503Z</time>
      </trkpt>
      <trkpt lat="42.31694" lon="24.3633">
        <ele>305.851745</ele>
        <time>2022-03-07T10:16:44.518Z</time>
      </trkpt>
      <trkpt lat="42.31704" lon="24.36323">
        <ele>305.973528</ele>
        <time>2022-03-07T10:16:47.554Z</time>
      </trkpt>
      <trkpt lat="42.31713" lon="24.36317">
        <ele>306.092722</ele>
        <time>2022-03-07T10:16:50.530Z</time>
      </trkpt>
      <trkpt lat="42.31722" lon="24.36312">
        <ele>306.196543</ele>
        <time>2022-03-07T10:16:53.509Z</time>
      </trkpt>
      <trkpt lat="42.31732" lon="24.36304">
        <ele>306.329911</ele>
        <time>2022-03-07T10:16:57.511Z</time>
      </trkpt>
      <trkpt lat="42.31742" lon="24.36298">
        <ele>306.451378</ele>
        <time>2022-03-07T10:17:01.530Z</time>
      </trkpt>
      <trkpt lat="42.31752" lon="24.36293">
        <ele>306.575088</ele>
        <time>2022-03-07T10:17:05.521Z</time>
      </trkpt>
      <trkpt lat="42.31761" lon="24.36288">
        <ele>306.684786</ele>
        <time>2022-03-07T10:17:09.561Z</time>
      </trkpt>
      <trkpt lat="42.31769" lon="24.36282">
        <ele>306.79552</ele>
        <time>2022-03-07T10:17:13.510Z</time>
      </trkpt>
      <trkpt lat="42.31778" lon="24.36275">
        <ele>306.90557</ele>
        <time>2022-03-07T10:17:17.525Z</time>
      </trkpt>
      <trkpt lat="42.31788" lon="24.36269">
        <ele>307.049646</ele>
        <time>2022-03-07T10:17:22.525Z</time>
      </trkpt>
      <trkpt lat="42.31797" lon="24.36263">
        <ele>307.263314</ele>
        <time>2022-03-07T10:17:26.514Z</time>
      </trkpt>
      <trkpt lat="42.31807" lon="24.36257">
        <ele>307.49199</ele>
        <time>2022-03-07T10:17:31.509Z</time>
      </trkpt>
      <trkpt lat="42.31816" lon="24.36249">
        <ele>307.715126</ele>
        <time>2022-03-07T10:17:36.554Z</time>
      </trkpt>
      <trkpt lat="42.31823" lon="24.3624">
        <ele>307.912693</ele>
        <time>2022-03-07T10:17:40.515Z</time>
      </trkpt>
      <trkpt lat="42.31831" lon="24.3623">
        <ele>308.132752</ele>
        <time>2022-03-07T10:17:44.521Z</time>
      </trkpt>
      <trkpt lat="42.31839" lon="24.36219">
        <ele>308.36625</ele>
        <time>2022-03-07T10:17:48.520Z</time>
      </trkpt>
      <trkpt lat="42.31846" lon="24.36207">
        <ele>308.597938</ele>
        <time>2022-03-07T10:17:52.506Z</time>
      </trkpt>
      <trkpt lat="42.31853" lon="24.36194">
        <ele>308.840715</ele>
        <time>2022-03-07T10:17:56.514Z</time>
      </trkpt>
      <trkpt lat="42.31858" lon="24.36184">
        <ele>309.036595</ele>
        <time>2022-03-07T10:17:59.517Z</time>
      </trkpt>
      <trkpt lat="42.31864" lon="24.36174">
        <ele>309.23252</ele>
        <time>2022-03-07T10:18:02.508Z</time>
      </trkpt>
      <trkpt lat="42.3187" lon="24.36163">
        <ele>309.44079</ele>
        <time>2022-03-07T10:18:05.503Z</time>
      </trkpt>
      <trkpt lat="42.31877" lon="24.36153">
        <ele>309.646769</ele>
        <time>2022-03-07T10:18:08.546Z</time>
      </trkpt>
      <trkpt lat="42.31883" lon="24.36142">
        <ele>309.86112</ele>
        <time>2022-03-07T10:18:11.529Z</time>
      </trkpt>
      <trkpt lat="42.31888" lon="24.3613">
        <ele>310.073364</ele>
        <time>2022-03-07T10:18:14.533Z</time>
      </trkpt>
      <trkpt lat="42.31895" lon="24.36119">
        <ele>310.292248</ele>
        <time>2022-03-07T10:18:17.514Z</time>
      </trkpt>
      <trkpt lat="42.31904" lon="24.3611">
        <ele>310.514295</ele>
        <time>2022-03-07T10:18:20.546Z</time>
      </trkpt>
      <trkpt lat="42.3191" lon="24.361">
        <ele>310.727943</ele>
        <time>2022-03-07T10:18:23.551Z</time>
      </trkpt>
      <trkpt lat="42.31917" lon="24.36088">
        <ele>310.854306</ele>
        <time>2022-03-07T10:18:26.550Z</time>
      </trkpt>
      <trkpt lat="42.31923" lon="24.36075">
        <ele>310.978352</ele>
        <time>2022-03-07T10:18:29.528Z</time>
      </trkpt>
      <trkpt lat="42.31929" lon="24.36063">
        <ele>311.097203</ele>
        <time>2022-03-07T10:18:32.507Z</time>
      </trkpt>
      <trkpt lat="42.31934" lon="24.36051">
        <ele>311.213797</ele>
        <time>2022-03-07T10:18:35.521Z</time>
      </trkpt>
      <trkpt lat="42.31939" lon="24.3604">
        <ele>311.323757</ele>
        <time>2022-03-07T10:18:38.525Z</time>
      </trkpt>
      <trkpt lat="42.31945" lon="24.36028">
        <ele>311.439335</ele>
        <time>2022-03-07T10:18:42.555Z</time>
      </trkpt>
      <trkpt lat="42.3195" lon="24.36017">
        <ele>311.542282</ele>
        <time>2022-03-07T10:18:45.499Z</time>
      </trkpt>
      <trkpt lat="42.31957" lon="24.36007">
        <ele>311.657883</ele>
        <time>2022-03-07T10:18:48.516Z</time>
      </trkpt>
      <trkpt lat="42.31964" lon="24.35997">
        <ele>311.768296</ele>
        <time>2022-03-07T10:18:51.509Z</time>
      </trkpt>
      <trkpt lat="42.31972" lon="24.35988">
        <ele>311.885808</ele>
        <time>2022-03-07T10:18:54.516Z</time>
      </trkpt>
      <trkpt lat="42.31979" lon="24.35976">
        <ele>312.013402</ele>
        <time>2022-03-07T10:18:57.519Z</time>
      </trkpt>
      <trkpt lat="42.31985" lon="24.35964">
        <ele>312.131569</ele>
        <time>2022-03-07T10:19:00.525Z</time>
      </trkpt>
      <trkpt lat="42.31991" lon="24.3595">
        <ele>312.258872</ele>
        <time>2022-03-07T10:19:03.515Z</time>
      </trkpt>
      <trkpt lat="42.31997" lon="24.35936">
        <ele>312.390852</ele>
        <time>2022-03-07T10:19:06.503Z</time>
      </trkpt>
      <trkpt lat="42.32002" lon="24.35923">
        <ele>312.516196</ele>
        <time>2022-03-07T10:19:09.524Z</time>
      </trkpt>
      <trkpt lat="42.32008" lon="24.35909">
        <ele>312.648332</ele>
        <time>2022-03-07T10:19:12.524Z</time>
      </trkpt>
      <trkpt lat="42.32015" lon="24.35895">
        <ele>312.675802</ele>
        <time>2022-03-07T10:19:15.538Z</time>
      </trkpt>
      <trkpt lat="42.32021" lon="24.3588">
        <ele>312.512648</ele>
        <time>2022-03-07T10:19:18.511Z</time>
      </trkpt>
      <trkpt lat="42.32027" lon="24.35865">
        <ele>312.347745</ele>
        <time>2022-03-07T10:19:21.506Z</time>
      </trkpt>
      <trkpt lat="42.32033" lon="24.35851">
        <ele>312.194643</ele>
        <time>2022-03-07T10:19:24.518Z</time>
      </trkpt>
      <trkpt lat="42.3204" lon="24.35837">
        <ele>312.035589</ele>
        <time>2022-03-07T10:19:27.512Z</time>
      </trkpt>
      <trkpt lat="42.32045" lon="24.35823">
        <ele>311.881647</ele>
        <time>2022-03-07T10:19:30.511Z</time>
      </trkpt>
      <trkpt lat="42.32051" lon="24.35808">
        <ele>311.724563</ele>
        <time>2022-03-07T10:19:33.500Z</time>
      </trkpt>
      <trkpt lat="42.32057" lon="24.35794">
        <ele>311.562873</ele>
        <time>2022-03-07T10:19:36.532Z</time>
      </trkpt>
      <trkpt lat="42.32063" lon="24.35779">
        <ele>311.400109</ele>
        <time>2022-03-07T10:19:39.512Z</time>
      </trkpt>
      <trkpt lat="42.3207" lon="24.35765">
        <ele>311.245266</ele>
        <time>2022-03-07T10:19:42.531Z</time>
      </trkpt>
      <trkpt lat="42.32077" lon="24.35752">
        <ele>311.088096</ele>
        <time>2022-03-07T10:19:45.514Z</time>
      </trkpt>
      <trkpt lat="42.32083" lon="24.35738">
        <ele>310.934719</ele>
        <time>2022-03-07T10:19:48.517Z</time>
      </trkpt>
      <trkpt lat="42.3209" lon="24.35726">
        <ele>310.786057</ele>
        <time>2022-03-07T10:19:51.555Z</time>
      </trkpt>
      <trkpt lat="42.32097" lon="24.35714">
        <ele>310.64344</ele>
        <time>2022-03-07T10:19:54.527Z</time>
      </trkpt>
      <trkpt lat="42.32105" lon="24.35704">
        <ele>310.498341</ele>
        <time>2022-03-07T10:19:57.510Z</time>
      </trkpt>
      <trkpt lat="42.32114" lon="24.35695">
        <ele>310.420329</ele>
        <time>2022-03-07T10:20:00.514Z</time>
      </trkpt>
      <trkpt lat="42.32125" lon="24.35687">
        <ele>310.468801</ele>
        <time>2022-03-07T10:20:03.521Z</time>
      </trkpt>
      <trkpt lat="42.32135" lon="24.3568">
        <ele>310.516211</ele>
        <time>2022-03-07T10:20:06.504Z</time>
      </trkpt>
      <trkpt lat="42.32144" lon="24.35673">
        <ele>310.56007</ele>
        <time>2022-03-07T10:20:09.513Z</time>
      </trkpt>
      <trkpt lat="42.32154" lon="24.35666">
        <ele>310.602068</ele>
        <time>2022-03-07T10:20:12.510Z</time>
      </trkpt>
      <trkpt lat="42.32162" lon="24.3566">
        <ele>310.641583</ele>
        <time>2022-03-07T10:20:15.512Z</time>
      </trkpt>
      <trkpt lat="42.3217" lon="24.35653">
        <ele>310.679291</ele>
        <time>2022-03-07T10:20:18.507Z</time>
      </trkpt>
      <trkpt lat="42.3218" lon="24.35646">
        <ele>310.723636</ele>
        <time>2022-03-07T10:20:21.510Z</time>
      </trkpt>
      <trkpt lat="42.3219" lon="24.3564">
        <ele>310.768272</ele>
        <time>2022-03-07T10:20:24.514Z</time>
      </trkpt>
      <trkpt lat="42.322" lon="24.35634">
        <ele>310.814628</ele>
        <time>2022-03-07T10:20:27.487Z</time>
      </trkpt>
      <trkpt lat="42.32211" lon="24.35628">
        <ele>310.860634</ele>
        <time>2022-03-07T10:20:30.535Z</time>
      </trkpt>
      <trkpt lat="42.32221" lon="24.35621">
        <ele>310.908629</ele>
        <time>2022-03-07T10:20:33.519Z</time>
      </trkpt>
      <trkpt lat="42.32233" lon="24.35613">
        <ele>310.960955</ele>
        <time>2022-03-07T10:20:36.502Z</time>
      </trkpt>
      <trkpt lat="42.32244" lon="24.35605">
        <ele>311.012723</ele>
        <time>2022-03-07T10:20:39.516Z</time>
      </trkpt>
      <trkpt lat="42.32257" lon="24.35598">
        <ele>311.067198</ele>
        <time>2022-03-07T10:20:42.512Z</time>
      </trkpt>
      <trkpt lat="42.32265" lon="24.35592">
        <ele>311.104595</ele>
        <time>2022-03-07T10:20:44.517Z</time>
      </trkpt>
      <trkpt lat="42.32277" lon="24.35584">
        <ele>311.139734</ele>
        <time>2022-03-07T10:20:47.496Z</time>
      </trkpt>
      <trkpt lat="42.32285" lon="24.35578">
        <ele>311.150021</ele>
        <time>2022-03-07T10:20:49.508Z</time>
      </trkpt>
      <trkpt lat="42.32296" lon="24.35569">
        <ele>311.164903</ele>
        <time>2022-03-07T10:20:52.534Z</time>
      </trkpt>
      <trkpt lat="42.32306" lon="24.35562">
        <ele>311.178241</ele>
        <time>2022-03-07T10:20:55.511Z</time>
      </trkpt>
      <trkpt lat="42.32316" lon="24.35556">
        <ele>311.190908</ele>
        <time>2022-03-07T10:20:58.507Z</time>
      </trkpt>
      <trkpt lat="42.32327" lon="24.35549">
        <ele>311.204751</ele>
        <time>2022-03-07T10:21:01.515Z</time>
      </trkpt>
      <trkpt lat="42.32339" lon="24.35543">
        <ele>311.219066</ele>
        <time>2022-03-07T10:21:04.506Z</time>
      </trkpt>
      <trkpt lat="42.32351" lon="24.35535">
        <ele>311.234201</ele>
        <time>2022-03-07T10:21:07.510Z</time>
      </trkpt>
      <trkpt lat="42.32362" lon="24.35527">
        <ele>311.247977</ele>
        <time>2022-03-07T10:21:10.513Z</time>
      </trkpt>
      <trkpt lat="42.32372" lon="24.35519">
        <ele>311.261815</ele>
        <time>2022-03-07T10:21:13.518Z</time>
      </trkpt>
      <trkpt lat="42.32384" lon="24.35511">
        <ele>311.276376</ele>
        <time>2022-03-07T10:21:16.520Z</time>
      </trkpt>
      <trkpt lat="42.32395" lon="24.35504">
        <ele>311.290618</ele>
        <time>2022-03-07T10:21:19.546Z</time>
      </trkpt>
      <trkpt lat="42.32406" lon="24.35496">
        <ele>311.304657</ele>
        <time>2022-03-07T10:21:22.509Z</time>
      </trkpt>
      <trkpt lat="42.32417" lon="24.35488">
        <ele>311.31918</ele>
        <time>2022-03-07T10:21:25.509Z</time>
      </trkpt>
      <trkpt lat="42.32428" lon="24.35481">
        <ele>311.332964</ele>
        <time>2022-03-07T10:21:28.520Z</time>
      </trkpt>
      <trkpt lat="42.32438" lon="24.35474">
        <ele>311.367038</ele>
        <time>2022-03-07T10:21:31.521Z</time>
      </trkpt>
      <trkpt lat="42.3245" lon="24.35467">
        <ele>311.415795</ele>
        <time>2022-03-07T10:21:34.521Z</time>
      </trkpt>
      <trkpt lat="42.32461" lon="24.35459">
        <ele>311.465288</ele>
        <time>2022-03-07T10:21:37.509Z</time>
      </trkpt>
      <trkpt lat="42.32472" lon="24.35451">
        <ele>311.515448</ele>
        <time>2022-03-07T10:21:40.507Z</time>
      </trkpt>
      <trkpt lat="42.32481" lon="24.35447">
        <ele>311.551383</ele>
        <time>2022-03-07T10:21:42.517Z</time>
      </trkpt>
      <trkpt lat="42.3249" lon="24.35441">
        <ele>311.588727</ele>
        <time>2022-03-07T10:21:44.514Z</time>
      </trkpt>
      <trkpt lat="42.32499" lon="24.35435">
        <ele>311.628699</ele>
        <time>2022-03-07T10:21:46.519Z</time>
      </trkpt>
      <trkpt lat="42.32508" lon="24.35429">
        <ele>311.667116</ele>
        <time>2022-03-07T10:21:48.526Z</time>
      </trkpt>
      <trkpt lat="42.32516" lon="24.35423">
        <ele>311.705753</ele>
        <time>2022-03-07T10:21:50.517Z</time>
      </trkpt>
      <trkpt lat="42.32526" lon="24.35415">
        <ele>311.750306</ele>
        <time>2022-03-07T10:21:52.516Z</time>
      </trkpt>
      <trkpt lat="42.32535" lon="24.35409">
        <ele>311.79032</ele>
        <time>2022-03-07T10:21:54.518Z</time>
      </trkpt>
      <trkpt lat="42.32545" lon="24.35403">
        <ele>311.830748</ele>
        <time>2022-03-07T10:21:56.508Z</time>
      </trkpt>
      <trkpt lat="42.32554" lon="24.35397">
        <ele>311.870347</ele>
        <time>2022-03-07T10:21:58.530Z</time>
      </trkpt>
      <trkpt lat="42.32562" lon="24.35392">
        <ele>311.906631</ele>
        <time>2022-03-07T10:22:00.518Z</time>
      </trkpt>
      <trkpt lat="42.32571" lon="24.35387">
        <ele>311.944212</ele>
        <time>2022-03-07T10:22:02.527Z</time>
      </trkpt>
      <trkpt lat="42.32581" lon="24.35382">
        <ele>311.983045</ele>
        <time>2022-03-07T10:22:04.510Z</time>
      </trkpt>
      <trkpt lat="42.3259" lon="24.35378">
        <ele>312.023438</ele>
        <time>2022-03-07T10:22:06.517Z</time>
      </trkpt>
      <trkpt lat="42.32601" lon="24.35374">
        <ele>312.240086</ele>
        <time>2022-03-07T10:22:08.520Z</time>
      </trkpt>
      <trkpt lat="42.3261" lon="24.35372">
        <ele>312.547693</ele>
        <time>2022-03-07T10:22:10.558Z</time>
      </trkpt>
      <trkpt lat="42.32623" lon="24.3537">
        <ele>312.948176</ele>
        <time>2022-03-07T10:22:13.512Z</time>
      </trkpt>
      <trkpt lat="42.32636" lon="24.35367">
        <ele>313.352328</ele>
        <time>2022-03-07T10:22:16.514Z</time>
      </trkpt>
      <trkpt lat="42.32648" lon="24.35366">
        <ele>313.729402</ele>
        <time>2022-03-07T10:22:19.524Z</time>
      </trkpt>
      <trkpt lat="42.32659" lon="24.35364">
        <ele>314.092576</ele>
        <time>2022-03-07T10:22:22.533Z</time>
      </trkpt>
      <trkpt lat="42.32669" lon="24.35362">
        <ele>314.401765</ele>
        <time>2022-03-07T10:22:25.514Z</time>
      </trkpt>
      <trkpt lat="42.32681" lon="24.35361">
        <ele>314.781474</ele>
        <time>2022-03-07T10:22:29.515Z</time>
      </trkpt>
      <trkpt lat="42.32691" lon="24.35361">
        <ele>315.08274</ele>
        <time>2022-03-07T10:22:32.565Z</time>
      </trkpt>
      <trkpt lat="42.327" lon="24.35359">
        <ele>315.372993</ele>
        <time>2022-03-07T10:22:35.517Z</time>
      </trkpt>
      <trkpt lat="42.32709" lon="24.35358">
        <ele>315.660137</ele>
        <time>2022-03-07T10:22:38.512Z</time>
      </trkpt>
      <trkpt lat="42.32719" lon="24.35356">
        <ele>315.966505</ele>
        <time>2022-03-07T10:22:41.512Z</time>
      </trkpt>
      <trkpt lat="42.32728" lon="24.35355">
        <ele>316.250266</ele>
        <time>2022-03-07T10:22:44.517Z</time>
      </trkpt>
      <trkpt lat="42.32739" lon="24.35353">
        <ele>316.602367</ele>
        <time>2022-03-07T10:22:48.519Z</time>
      </trkpt>
      <trkpt lat="42.3275" lon="24.35353">
        <ele>316.934676</ele>
        <time>2022-03-07T10:22:52.499Z</time>
      </trkpt>
      <trkpt lat="42.32759" lon="24.35351">
        <ele>317.238918</ele>
        <time>2022-03-07T10:22:56.513Z</time>
      </trkpt>
      <trkpt lat="42.3277" lon="24.3535">
        <ele>317.568326</ele>
        <time>2022-03-07T10:23:01.520Z</time>
      </trkpt>
      <trkpt lat="42.32779" lon="24.35348">
        <ele>317.937994</ele>
        <time>2022-03-07T10:23:06.518Z</time>
      </trkpt>
      <trkpt lat="42.3279" lon="24.35347">
        <ele>318.38877</ele>
        <time>2022-03-07T10:23:11.506Z</time>
      </trkpt>
      <trkpt lat="42.32801" lon="24.35346">
        <ele>318.834981</ele>
        <time>2022-03-07T10:23:16.521Z</time>
      </trkpt>
      <trkpt lat="42.32811" lon="24.35345">
        <ele>319.237078</ele>
        <time>2022-03-07T10:23:20.505Z</time>
      </trkpt>
      <trkpt lat="42.32821" lon="24.35344">
        <ele>319.650632</ele>
        <time>2022-03-07T10:23:25.526Z</time>
      </trkpt>
      <trkpt lat="42.3283" lon="24.35342">
        <ele>320.048631</ele>
        <time>2022-03-07T10:23:30.521Z</time>
      </trkpt>
      <trkpt lat="42.3284" lon="24.35341">
        <ele>320.463027</ele>
        <time>2022-03-07T10:23:35.515Z</time>
      </trkpt>
      <trkpt lat="42.3285" lon="24.3534">
        <ele>320.855368</ele>
        <time>2022-03-07T10:23:40.514Z</time>
      </trkpt>
      <trkpt lat="42.32859" lon="24.3534">
        <ele>321.238902</ele>
        <time>2022-03-07T10:23:44.552Z</time>
      </trkpt>
      <trkpt lat="42.32869" lon="24.3534">
        <ele>321.642863</ele>
        <time>2022-03-07T10:23:48.517Z</time>
      </trkpt>
      <trkpt lat="42.32879" lon="24.35341">
        <ele>322.047226</ele>
        <time>2022-03-07T10:23:52.522Z</time>
      </trkpt>
      <trkpt lat="42.32888" lon="24.35342">
        <ele>322.441469</ele>
        <time>2022-03-07T10:23:56.521Z</time>
      </trkpt>
      <trkpt lat="42.32898" lon="24.35343">
        <ele>322.825788</ele>
        <time>2022-03-07T10:24:00.496Z</time>
      </trkpt>
      <trkpt lat="42.32909" lon="24.35345">
        <ele>323.285308</ele>
        <time>2022-03-07T10:24:05.513Z</time>
      </trkpt>
      <trkpt lat="42.3292" lon="24.35346">
        <ele>323.746119</ele>
        <time>2022-03-07T10:24:09.533Z</time>
      </trkpt>
      <trkpt lat="42.32931" lon="24.3535">
        <ele>324.209899</ele>
        <time>2022-03-07T10:24:13.504Z</time>
      </trkpt>
      <trkpt lat="42.32942" lon="24.35352">
        <ele>324.675172</ele>
        <time>2022-03-07T10:24:17.550Z</time>
      </trkpt>
      <trkpt lat="42.32953" lon="24.35354">
        <ele>325.128353</ele>
        <time>2022-03-07T10:24:21.518Z</time>
      </trkpt>
      <trkpt lat="42.32964" lon="24.35357">
        <ele>325.423984</ele>
        <time>2022-03-07T10:24:25.510Z</time>
      </trkpt>
      <trkpt lat="42.32974" lon="24.35359">
        <ele>325.720102</ele>
        <time>2022-03-07T10:24:29.520Z</time>
      </trkpt>
      <trkpt lat="42.32984" lon="24.35361">
        <ele>326.0128</ele>
        <time>2022-03-07T10:24:33.502Z</time>
      </trkpt>
      <trkpt lat="42.32995" lon="24.35365">
        <ele>326.330334</ele>
        <time>2022-03-07T10:24:37.506Z</time>
      </trkpt>
      <trkpt lat="42.33005" lon="24.35367">
        <ele>326.616873</ele>
        <time>2022-03-07T10:24:41.516Z</time>
      </trkpt>
      <trkpt lat="42.33014" lon="24.35369">
        <ele>326.873868</ele>
        <time>2022-03-07T10:24:45.548Z</time>
      </trkpt>
      <trkpt lat="42.33024" lon="24.35371">
        <ele>327.150241</ele>
        <time>2022-03-07T10:24:49.516Z</time>
      </trkpt>
      <trkpt lat="42.33035" lon="24.35373">
        <ele>327.449724</ele>
        <time>2022-03-07T10:24:53.512Z</time>
      </trkpt>
      <trkpt lat="42.33045" lon="24.35373">
        <ele>327.736372</ele>
        <time>2022-03-07T10:24:57.530Z</time>
      </trkpt>
      <trkpt lat="42.33054" lon="24.35375">
        <ele>328.003443</ele>
        <time>2022-03-07T10:25:01.541Z</time>
      </trkpt>
      <trkpt lat="42.33063" lon="24.35377">
        <ele>328.262845</ele>
        <time>2022-03-07T10:25:05.522Z</time>
      </trkpt>
      <trkpt lat="42.33074" lon="24.35381">
        <ele>328.568271</ele>
        <time>2022-03-07T10:25:09.505Z</time>
      </trkpt>
      <trkpt lat="42.33084" lon="24.35383">
        <ele>328.843987</ele>
        <time>2022-03-07T10:25:13.519Z</time>
      </trkpt>
      <trkpt lat="42.33094" lon="24.35385">
        <ele>329.14876</ele>
        <time>2022-03-07T10:25:18.564Z</time>
      </trkpt>
      <trkpt lat="42.33104" lon="24.35387">
        <ele>329.418034</ele>
        <time>2022-03-07T10:25:22.504Z</time>
      </trkpt>
      <trkpt lat="42.33113" lon="24.35389">
        <ele>329.682024</ele>
        <time>2022-03-07T10:25:26.523Z</time>
      </trkpt>
      <trkpt lat="42.33123" lon="24.3539">
        <ele>329.960986</ele>
        <time>2022-03-07T10:25:30.506Z</time>
      </trkpt>
      <trkpt lat="42.33132" lon="24.35392">
        <ele>330.274403</ele>
        <time>2022-03-07T10:25:34.516Z</time>
      </trkpt>
      <trkpt lat="42.33141" lon="24.35394">
        <ele>330.748496</ele>
        <time>2022-03-07T10:25:38.521Z</time>
      </trkpt>
      <trkpt lat="42.33152" lon="24.35396">
        <ele>331.301824</ele>
        <time>2022-03-07T10:25:43.513Z</time>
      </trkpt>
      <trkpt lat="42.33162" lon="24.35399">
        <ele>331.805701</ele>
        <time>2022-03-07T10:25:48.518Z</time>
      </trkpt>
      <trkpt lat="42.33172" lon="24.35401">
        <ele>332.281351</ele>
        <time>2022-03-07T10:25:53.514Z</time>
      </trkpt>
      <trkpt lat="42.33181" lon="24.35404">
        <ele>332.755444</ele>
        <time>2022-03-07T10:25:58.527Z</time>
      </trkpt>
      <trkpt lat="42.33192" lon="24.35404">
        <ele>333.280252</ele>
        <time>2022-03-07T10:26:03.518Z</time>
      </trkpt>
      <trkpt lat="42.33202" lon="24.35407">
        <ele>333.797334</ele>
        <time>2022-03-07T10:26:08.521Z</time>
      </trkpt>
      <trkpt lat="42.33211" lon="24.3541">
        <ele>334.261937</ele>
        <time>2022-03-07T10:26:13.555Z</time>
      </trkpt>
      <trkpt lat="42.33221" lon="24.35412">
        <ele>334.744365</ele>
        <time>2022-03-07T10:26:18.516Z</time>
      </trkpt>
      <trkpt lat="42.3323" lon="24.35413">
        <ele>335.208082</ele>
        <time>2022-03-07T10:26:22.506Z</time>
      </trkpt>
      <trkpt lat="42.3324" lon="24.35416">
        <ele>335.681457</ele>
        <time>2022-03-07T10:26:27.544Z</time>
      </trkpt>
      <trkpt lat="42.3325" lon="24.3542">
        <ele>336.197785</ele>
        <time>2022-03-07T10:26:32.519Z</time>
      </trkpt>
      <trkpt lat="42.3326" lon="24.35422">
        <ele>336.69627</ele>
        <time>2022-03-07T10:26:37.533Z</time>
      </trkpt>
      <trkpt lat="42.3327" lon="24.35424">
        <ele>337.198116</ele>
        <time>2022-03-07T10:26:42.509Z</time>
      </trkpt>
      <trkpt lat="42.3328" lon="24.35426">
        <ele>337.691704</ele>
        <time>2022-03-07T10:26:47.522Z</time>
      </trkpt>
      <trkpt lat="42.3329" lon="24.35428">
        <ele>338.228555</ele>
        <time>2022-03-07T10:26:53.501Z</time>
      </trkpt>
      <trkpt lat="42.333" lon="24.35427">
        <ele>338.722806</ele>
        <time>2022-03-07T10:26:59.520Z</time>
      </trkpt>
      <trkpt lat="42.3331" lon="24.35428">
        <ele>339.107819</ele>
        <time>2022-03-07T10:27:04.528Z</time>
      </trkpt>
      <trkpt lat="42.33321" lon="24.35427">
        <ele>339.322303</ele>
        <time>2022-03-07T10:27:09.509Z</time>
      </trkpt>
      <trkpt lat="42.33331" lon="24.35426">
        <ele>339.526776</ele>
        <time>2022-03-07T10:27:14.510Z</time>
      </trkpt>
      <trkpt lat="42.3334" lon="24.35425">
        <ele>339.72702</ele>
        <time>2022-03-07T10:27:19.514Z</time>
      </trkpt>
      <trkpt lat="42.3335" lon="24.35424">
        <ele>339.914966</ele>
        <time>2022-03-07T10:27:25.507Z</time>
      </trkpt>
      <trkpt lat="42.33359" lon="24.35419">
        <ele>340.115698</ele>
        <time>2022-03-07T10:27:29.511Z</time>
      </trkpt>
      <trkpt lat="42.33367" lon="24.35414">
        <ele>340.311155</ele>
        <time>2022-03-07T10:27:33.528Z</time>
      </trkpt>
      <trkpt lat="42.33376" lon="24.3541">
        <ele>340.496255</ele>
        <time>2022-03-07T10:27:37.521Z</time>
      </trkpt>
      <trkpt lat="42.33385" lon="24.35404">
        <ele>340.704508</ele>
        <time>2022-03-07T10:27:42.511Z</time>
      </trkpt>
      <trkpt lat="42.33394" lon="24.35399">
        <ele>340.910379</ele>
        <time>2022-03-07T10:27:47.526Z</time>
      </trkpt>
      <trkpt lat="42.33403" lon="24.35394">
        <ele>341.09986</ele>
        <time>2022-03-07T10:27:52.551Z</time>
      </trkpt>
      <trkpt lat="42.33412" lon="24.35389">
        <ele>341.300241</ele>
        <time>2022-03-07T10:27:57.501Z</time>
      </trkpt>
      <trkpt lat="42.33422" lon="24.35384">
        <ele>341.522309</ele>
        <time>2022-03-07T10:28:03.548Z</time>
      </trkpt>
      <trkpt lat="42.33431" lon="24.35379">
        <ele>341.717766</ele>
        <time>2022-03-07T10:28:08.509Z</time>
      </trkpt>
      <trkpt lat="42.33441" lon="24.35373">
        <ele>341.942894</ele>
        <time>2022-03-07T10:28:13.508Z</time>
      </trkpt>
      <trkpt lat="42.3345" lon="24.35367">
        <ele>342.150662</ele>
        <time>2022-03-07T10:28:18.499Z</time>
      </trkpt>
      <trkpt lat="42.33458" lon="24.35363">
        <ele>342.335761</ele>
        <time>2022-03-07T10:28:23.520Z</time>
      </trkpt>
      <trkpt lat="42.33467" lon="24.35357">
        <ele>342.542676</ele>
        <time>2022-03-07T10:28:28.530Z</time>
      </trkpt>
      <trkpt lat="42.33477" lon="24.35351">
        <ele>342.757515</ele>
        <time>2022-03-07T10:28:33.505Z</time>
      </trkpt>
      <trkpt lat="42.33486" lon="24.35345">
        <ele>342.956131</ele>
        <time>2022-03-07T10:28:38.549Z</time>
      </trkpt>
      <trkpt lat="42.33493" lon="24.35339">
        <ele>343.141111</ele>
        <time>2022-03-07T10:28:43.520Z</time>
      </trkpt>
      <trkpt lat="42.33503" lon="24.35337">
        <ele>343.339897</ele>
        <time>2022-03-07T10:28:48.513Z</time>
      </trkpt>
      <trkpt lat="42.33512" lon="24.35331">
        <ele>343.547213</ele>
        <time>2022-03-07T10:28:53.515Z</time>
      </trkpt>
      <trkpt lat="42.33521" lon="24.35326">
        <ele>343.741497</ele>
        <time>2022-03-07T10:28:58.566Z</time>
      </trkpt>
      <trkpt lat="42.3353" lon="24.3532">
        <ele>343.940184</ele>
        <time>2022-03-07T10:29:03.504Z</time>
      </trkpt>
      <trkpt lat="42.33538" lon="24.35315">
        <ele>344.131995</ele>
        <time>2022-03-07T10:29:08.516Z</time>
      </trkpt>
      <trkpt lat="42.33547" lon="24.3531">
        <ele>344.324469</ele>
        <time>2022-03-07T10:29:13.550Z</time>
      </trkpt>
      <trkpt lat="42.33556" lon="24.35304">
        <ele>344.536253</ele>
        <time>2022-03-07T10:29:18.509Z</time>
      </trkpt>
      <trkpt lat="42.33566" lon="24.35298">
        <ele>344.756059</ele>
        <time>2022-03-07T10:29:22.523Z</time>
      </trkpt>
      <trkpt lat="42.33576" lon="24.35293">
        <ele>344.968515</ele>
        <time>2022-03-07T10:29:26.511Z</time>
      </trkpt>
      <trkpt lat="42.33585" lon="24.35288">
        <ele>345.170964</ele>
        <time>2022-03-07T10:29:30.499Z</time>
      </trkpt>
      <trkpt lat="42.33595" lon="24.35282">
        <ele>345.385668</ele>
        <time>2022-03-07T10:29:34.515Z</time>
      </trkpt>
      <trkpt lat="42.33604" lon="24.35276">
        <ele>345.598518</ele>
        <time>2022-03-07T10:29:38.524Z</time>
      </trkpt>
      <trkpt lat="42.33614" lon="24.35269">
        <ele>345.831046</ele>
        <time>2022-03-07T10:29:43.528Z</time>
      </trkpt>
      <trkpt lat="42.33624" lon="24.35263">
        <ele>346.043329</ele>
        <time>2022-03-07T10:29:47.536Z</time>
      </trkpt>
      <trkpt lat="42.33634" lon="24.35258">
        <ele>346.252257</ele>
        <time>2022-03-07T10:29:51.509Z</time>
      </trkpt>
      <trkpt lat="42.33644" lon="24.35251">
        <ele>346.45438</ele>
        <time>2022-03-07T10:29:55.530Z</time>
      </trkpt>
      <trkpt lat="42.33654" lon="24.35247">
        <ele>346.61741</ele>
        <time>2022-03-07T10:30:00.507Z</time>
      </trkpt>
      <trkpt lat="42.33663" lon="24.35243">
        <ele>346.755386</ele>
        <time>2022-03-07T10:30:04.540Z</time>
      </trkpt>
      <trkpt lat="42.33673" lon="24.35238">
        <ele>346.906496</ele>
        <time>2022-03-07T10:30:08.518Z</time>
      </trkpt>
      <trkpt lat="42.33682" lon="24.35231">
        <ele>347.054587</ele>
        <time>2022-03-07T10:30:12.518Z</time>
      </trkpt>
      <trkpt lat="42.33691" lon="24.35226">
        <ele>347.196961</ele>
        <time>2022-03-07T10:30:16.525Z</time>
      </trkpt>
      <trkpt lat="42.337" lon="24.35221">
        <ele>347.333557</ele>
        <time>2022-03-07T10:30:20.517Z</time>
      </trkpt>
      <trkpt lat="42.33709" lon="24.35217">
        <ele>347.477329</ele>
        <time>2022-03-07T10:30:24.521Z</time>
      </trkpt>
      <trkpt lat="42.33719" lon="24.3521">
        <ele>347.630131</ele>
        <time>2022-03-07T10:30:29.515Z</time>
      </trkpt>
      <trkpt lat="42.33728" lon="24.35205">
        <ele>347.77117</ele>
        <time>2022-03-07T10:30:33.513Z</time>
      </trkpt>
      <trkpt lat="42.33738" lon="24.35199">
        <ele>347.931096</ele>
        <time>2022-03-07T10:30:37.507Z</time>
      </trkpt>
      <trkpt lat="42.33748" lon="24.35194">
        <ele>348.085194</ele>
        <time>2022-03-07T10:30:41.512Z</time>
      </trkpt>
      <trkpt lat="42.33758" lon="24.35187">
        <ele>348.248623</ele>
        <time>2022-03-07T10:30:45.523Z</time>
      </trkpt>
      <trkpt lat="42.33768" lon="24.35182">
        <ele>348.406804</ele>
        <time>2022-03-07T10:30:49.503Z</time>
      </trkpt>
      <trkpt lat="42.33778" lon="24.35176">
        <ele>348.569322</ele>
        <time>2022-03-07T10:30:53.568Z</time>
      </trkpt>
      <trkpt lat="42.33789" lon="24.3517">
        <ele>348.733255</ele>
        <time>2022-03-07T10:30:57.518Z</time>
      </trkpt>
      <trkpt lat="42.33799" lon="24.35165">
        <ele>348.893454</ele>
        <time>2022-03-07T10:31:01.509Z</time>
      </trkpt>
      <trkpt lat="42.33808" lon="24.35162">
        <ele>349.008384</ele>
        <time>2022-03-07T10:31:04.554Z</time>
      </trkpt>
      <trkpt lat="42.33819" lon="24.35157">
        <ele>349.096159</ele>
        <time>2022-03-07T10:31:08.527Z</time>
      </trkpt>
      <trkpt lat="42.3383" lon="24.35152">
        <ele>349.179791</ele>
        <time>2022-03-07T10:31:12.519Z</time>
      </trkpt>
      <trkpt lat="42.33841" lon="24.35148">
        <ele>349.263914</ele>
        <time>2022-03-07T10:31:16.516Z</time>
      </trkpt>
      <trkpt lat="42.33852" lon="24.35145">
        <ele>349.350799</ele>
        <time>2022-03-07T10:31:20.531Z</time>
      </trkpt>
      <trkpt lat="42.33863" lon="24.35141">
        <ele>349.438383</ele>
        <time>2022-03-07T10:31:24.503Z</time>
      </trkpt>
      <trkpt lat="42.33875" lon="24.35137">
        <ele>349.529045</ele>
        <time>2022-03-07T10:31:28.527Z</time>
      </trkpt>
      <trkpt lat="42.33887" lon="24.35133">
        <ele>349.618534</ele>
        <time>2022-03-07T10:31:32.506Z</time>
      </trkpt>
      <trkpt lat="42.33896" lon="24.3513">
        <ele>349.694681</ele>
        <time>2022-03-07T10:31:35.515Z</time>
      </trkpt>
      <trkpt lat="42.33907" lon="24.35125">
        <ele>349.776785</ele>
        <time>2022-03-07T10:31:38.529Z</time>
      </trkpt>
      <trkpt lat="42.33918" lon="24.35122">
        <ele>349.861349</ele>
        <time>2022-03-07T10:31:41.519Z</time>
      </trkpt>
      <trkpt lat="42.33928" lon="24.35118">
        <ele>349.938084</ele>
        <time>2022-03-07T10:31:44.506Z</time>
      </trkpt>
      <trkpt lat="42.33938" lon="24.35115">
        <ele>350.016695</ele>
        <time>2022-03-07T10:31:47.575Z</time>
      </trkpt>
      <trkpt lat="42.33948" lon="24.3511">
        <ele>350.098077</ele>
        <time>2022-03-07T10:31:50.511Z</time>
      </trkpt>
      <trkpt lat="42.3396" lon="24.35106">
        <ele>350.187283</ele>
        <time>2022-03-07T10:31:53.520Z</time>
      </trkpt>
      <trkpt lat="42.3397" lon="24.35103">
        <ele>350.270716</ele>
        <time>2022-03-07T10:31:56.513Z</time>
      </trkpt>
      <trkpt lat="42.3398" lon="24.351">
        <ele>350.34752</ele>
        <time>2022-03-07T10:31:59.516Z</time>
      </trkpt>
      <trkpt lat="42.33991" lon="24.35096">
        <ele>350.425235</ele>
        <time>2022-03-07T10:32:02.514Z</time>
      </trkpt>
      <trkpt lat="42.34002" lon="24.35092">
        <ele>350.507778</ele>
        <time>2022-03-07T10:32:05.530Z</time>
      </trkpt>
      <trkpt lat="42.34014" lon="24.35087">
        <ele>350.598039</ele>
        <time>2022-03-07T10:32:08.527Z</time>
      </trkpt>
      <trkpt lat="42.34026" lon="24.35081">
        <ele>350.687973</ele>
        <time>2022-03-07T10:32:11.521Z</time>
      </trkpt>
      <trkpt lat="42.34037" lon="24.35077">
        <ele>350.766402</ele>
        <time>2022-03-07T10:32:14.531Z</time>
      </trkpt>
      <trkpt lat="42.34047" lon="24.35072">
        <ele>350.84607</ele>
        <time>2022-03-07T10:32:18.515Z</time>
      </trkpt>
      <trkpt lat="42.34058" lon="24.3507">
        <ele>350.922958</ele>
        <time>2022-03-07T10:32:22.551Z</time>
      </trkpt>
      <trkpt lat="42.34068" lon="24.35067">
        <ele>350.994041</ele>
        <time>2022-03-07T10:32:25.552Z</time>
      </trkpt>
      <trkpt lat="42.34079" lon="24.35064">
        <ele>351.07507</ele>
        <time>2022-03-07T10:32:28.517Z</time>
      </trkpt>
      <trkpt lat="42.3409" lon="24.3506">
        <ele>351.154908</ele>
        <time>2022-03-07T10:32:31.502Z</time>
      </trkpt>
      <trkpt lat="42.34099" lon="24.35058">
        <ele>351.226186</ele>
        <time>2022-03-07T10:32:34.520Z</time>
      </trkpt>
      <trkpt lat="42.3411" lon="24.35054">
        <ele>351.306024</ele>
        <time>2022-03-07T10:32:37.519Z</time>
      </trkpt>
      <trkpt lat="42.3412" lon="24.3505">
        <ele>351.376679</ele>
        <time>2022-03-07T10:32:40.547Z</time>
      </trkpt>
      <trkpt lat="42.3413" lon="24.35046">
        <ele>351.454828</ele>
        <time>2022-03-07T10:32:44.526Z</time>
      </trkpt>
      <trkpt lat="42.34139" lon="24.35042">
        <ele>351.521086</ele>
        <time>2022-03-07T10:32:47.571Z</time>
      </trkpt>
      <trkpt lat="42.3415" lon="24.35038">
        <ele>351.60129</ele>
        <time>2022-03-07T10:32:51.522Z</time>
      </trkpt>
      <trkpt lat="42.34161" lon="24.35034">
        <ele>351.746744</ele>
        <time>2022-03-07T10:32:55.524Z</time>
      </trkpt>
      <trkpt lat="42.34172" lon="24.3503">
        <ele>351.918114</ele>
        <time>2022-03-07T10:32:59.532Z</time>
      </trkpt>
      <trkpt lat="42.34183" lon="24.35026">
        <ele>352.091138</ele>
        <time>2022-03-07T10:33:03.517Z</time>
      </trkpt>
      <trkpt lat="42.34192" lon="24.35023">
        <ele>352.247343</ele>
        <time>2022-03-07T10:33:07.534Z</time>
      </trkpt>
      <trkpt lat="42.34203" lon="24.35019">
        <ele>352.41329</ele>
        <time>2022-03-07T10:33:11.523Z</time>
      </trkpt>
      <trkpt lat="42.34212" lon="24.35016">
        <ele>352.562743</ele>
        <time>2022-03-07T10:33:15.515Z</time>
      </trkpt>
      <trkpt lat="42.34222" lon="24.35013">
        <ele>352.717461</ele>
        <time>2022-03-07T10:33:19.511Z</time>
      </trkpt>
      <trkpt lat="42.34231" lon="24.35009">
        <ele>352.865856</ele>
        <time>2022-03-07T10:33:23.506Z</time>
      </trkpt>
      <trkpt lat="42.34241" lon="24.35005">
        <ele>353.02661</ele>
        <time>2022-03-07T10:33:27.520Z</time>
      </trkpt>
      <trkpt lat="42.34251" lon="24.35002">
        <ele>353.181058</ele>
        <time>2022-03-07T10:33:31.521Z</time>
      </trkpt>
      <trkpt lat="42.3426" lon="24.34998">
        <ele>353.325393</ele>
        <time>2022-03-07T10:33:35.518Z</time>
      </trkpt>
      <trkpt lat="42.34269" lon="24.34995">
        <ele>353.469727</ele>
        <time>2022-03-07T10:33:39.512Z</time>
      </trkpt>
      <trkpt lat="42.34279" lon="24.34992">
        <ele>353.618217</ele>
        <time>2022-03-07T10:33:43.521Z</time>
      </trkpt>
      <trkpt lat="42.34288" lon="24.34989">
        <ele>353.762937</ele>
        <time>2022-03-07T10:33:47.525Z</time>
      </trkpt>
      <trkpt lat="42.34297" lon="24.34985">
        <ele>353.900811</ele>
        <time>2022-03-07T10:33:51.523Z</time>
      </trkpt>
      <trkpt lat="42.34307" lon="24.34982">
        <ele>354.070436</ele>
        <time>2022-03-07T10:33:56.515Z</time>
      </trkpt>
      <trkpt lat="42.34316" lon="24.34978">
        <ele>354.213414</ele>
        <time>2022-03-07T10:34:00.517Z</time>
      </trkpt>
      <trkpt lat="42.34326" lon="24.34975">
        <ele>354.367346</ele>
        <time>2022-03-07T10:34:04.560Z</time>
      </trkpt>
      <trkpt lat="42.34336" lon="24.34973">
        <ele>354.615749</ele>
        <time>2022-03-07T10:34:08.520Z</time>
      </trkpt>
      <trkpt lat="42.34345" lon="24.34969">
        <ele>354.867899</ele>
        <time>2022-03-07T10:34:12.507Z</time>
      </trkpt>
      <trkpt lat="42.34354" lon="24.34967">
        <ele>355.118943</ele>
        <time>2022-03-07T10:34:16.530Z</time>
      </trkpt>
      <trkpt lat="42.34363" lon="24.34964">
        <ele>355.366031</ele>
        <time>2022-03-07T10:34:20.508Z</time>
      </trkpt>
      <trkpt lat="42.34374" lon="24.3496">
        <ele>355.660471</ele>
        <time>2022-03-07T10:34:25.513Z</time>
      </trkpt>
      <trkpt lat="42.34383" lon="24.34952">
        <ele>355.955709</ele>
        <time>2022-03-07T10:34:30.521Z</time>
      </trkpt>
      <trkpt lat="42.34394" lon="24.34947">
        <ele>356.246783</ele>
        <time>2022-03-07T10:34:35.527Z</time>
      </trkpt>
      <trkpt lat="42.34404" lon="24.34942">
        <ele>356.53922</ele>
        <time>2022-03-07T10:34:40.526Z</time>
      </trkpt>
      <trkpt lat="42.34415" lon="24.34938">
        <ele>356.828033</ele>
        <time>2022-03-07T10:34:45.526Z</time>
      </trkpt>
      <trkpt lat="42.34426" lon="24.34934">
        <ele>357.12666</ele>
        <time>2022-03-07T10:34:50.521Z</time>
      </trkpt>
      <trkpt lat="42.34435" lon="24.34932">
        <ele>357.372777</ele>
        <time>2022-03-07T10:34:54.527Z</time>
      </trkpt>
      <trkpt lat="42.34444" lon="24.34929">
        <ele>357.613089</ele>
        <time>2022-03-07T10:34:58.518Z</time>
      </trkpt>
      <trkpt lat="42.34453" lon="24.34927">
        <ele>357.865709</ele>
        <time>2022-03-07T10:35:02.504Z</time>
      </trkpt>
      <trkpt lat="42.34463" lon="24.34927">
        <ele>358.130827</ele>
        <time>2022-03-07T10:35:06.500Z</time>
      </trkpt>
      <trkpt lat="42.34472" lon="24.34924">
        <ele>358.384468</ele>
        <time>2022-03-07T10:35:10.518Z</time>
      </trkpt>
      <trkpt lat="42.34482" lon="24.34922">
        <ele>358.641484</ele>
        <time>2022-03-07T10:35:14.510Z</time>
      </trkpt>
      <trkpt lat="42.34491" lon="24.34919">
        <ele>358.888144</ele>
        <time>2022-03-07T10:35:18.541Z</time>
      </trkpt>
      <trkpt lat="42.345" lon="24.34915">
        <ele>359.132128</ele>
        <time>2022-03-07T10:35:22.510Z</time>
      </trkpt>
      <trkpt lat="42.34509" lon="24.34912">
        <ele>359.322486</ele>
        <time>2022-03-07T10:35:26.552Z</time>
      </trkpt>
      <trkpt lat="42.34519" lon="24.34909">
        <ele>359.522837</ele>
        <time>2022-03-07T10:35:30.531Z</time>
      </trkpt>
      <trkpt lat="42.34529" lon="24.34905">
        <ele>359.724083</ele>
        <time>2022-03-07T10:35:34.501Z</time>
      </trkpt>
      <trkpt lat="42.34538" lon="24.34901">
        <ele>359.91677</ele>
        <time>2022-03-07T10:35:38.524Z</time>
      </trkpt>
      <trkpt lat="42.34547" lon="24.34898">
        <ele>360.10963</ele>
        <time>2022-03-07T10:35:42.546Z</time>
      </trkpt>
      <trkpt lat="42.34557" lon="24.34895">
        <ele>360.309209</ele>
        <time>2022-03-07T10:35:46.525Z</time>
      </trkpt>
      <trkpt lat="42.34566" lon="24.34892">
        <ele>360.498541</ele>
        <time>2022-03-07T10:35:50.511Z</time>
      </trkpt>
      <trkpt lat="42.34576" lon="24.34888">
        <ele>360.701678</ele>
        <time>2022-03-07T10:35:54.519Z</time>
      </trkpt>
      <trkpt lat="42.34586" lon="24.34884">
        <ele>360.899397</ele>
        <time>2022-03-07T10:35:58.524Z</time>
      </trkpt>
      <trkpt lat="42.34596" lon="24.3488">
        <ele>361.111606</ele>
        <time>2022-03-07T10:36:02.523Z</time>
      </trkpt>
      <trkpt lat="42.34606" lon="24.34876">
        <ele>361.313744</ele>
        <time>2022-03-07T10:36:06.527Z</time>
      </trkpt>
      <trkpt lat="42.34616" lon="24.34872">
        <ele>361.526361</ele>
        <time>2022-03-07T10:36:10.535Z</time>
      </trkpt>
      <trkpt lat="42.34626" lon="24.34868">
        <ele>361.730912</ele>
        <time>2022-03-07T10:36:14.550Z</time>
      </trkpt>
      <trkpt lat="42.34636" lon="24.34864">
        <ele>361.931727</ele>
        <time>2022-03-07T10:36:18.511Z</time>
      </trkpt>
      <trkpt lat="42.34646" lon="24.34861">
        <ele>362.137421</ele>
        <time>2022-03-07T10:36:22.525Z</time>
      </trkpt>
      <trkpt lat="42.34656" lon="24.34858">
        <ele>362.338805</ele>
        <time>2022-03-07T10:36:26.555Z</time>
      </trkpt>
      <trkpt lat="42.34666" lon="24.34854">
        <ele>362.539198</ele>
        <time>2022-03-07T10:36:30.518Z</time>
      </trkpt>
      <trkpt lat="42.34675" lon="24.34852">
        <ele>362.743064</ele>
        <time>2022-03-07T10:36:34.524Z</time>
      </trkpt>
      <trkpt lat="42.34684" lon="24.34848">
        <ele>363.04978</ele>
        <time>2022-03-07T10:36:38.522Z</time>
      </trkpt>
      <trkpt lat="42.34693" lon="24.34844">
        <ele>363.372233</ele>
        <time>2022-03-07T10:36:42.546Z</time>
      </trkpt>
      <trkpt lat="42.34702" lon="24.34841">
        <ele>363.694395</ele>
        <time>2022-03-07T10:36:46.518Z</time>
      </trkpt>
      <trkpt lat="42.34711" lon="24.34838">
        <ele>364.016764</ele>
        <time>2022-03-07T10:36:50.527Z</time>
      </trkpt>
      <trkpt lat="42.34721" lon="24.34834">
        <ele>364.360224</ele>
        <time>2022-03-07T10:36:54.521Z</time>
      </trkpt>
      <trkpt lat="42.34729" lon="24.3483">
        <ele>364.665878</ele>
        <time>2022-03-07T10:36:58.534Z</time>
      </trkpt>
      <trkpt lat="42.34739" lon="24.34826">
        <ele>365.01331</ele>
        <time>2022-03-07T10:37:02.526Z</time>
      </trkpt>
      <trkpt lat="42.3475" lon="24.34821">
        <ele>365.39112</ele>
        <time>2022-03-07T10:37:06.519Z</time>
      </trkpt>
      <trkpt lat="42.34759" lon="24.34818">
        <ele>365.72332</ele>
        <time>2022-03-07T10:37:10.560Z</time>
      </trkpt>
      <trkpt lat="42.34769" lon="24.34815">
        <ele>366.060901</ele>
        <time>2022-03-07T10:37:14.514Z</time>
      </trkpt>
      <trkpt lat="42.34779" lon="24.34812">
        <ele>366.406848</ele>
        <time>2022-03-07T10:37:18.509Z</time>
      </trkpt>
      <trkpt lat="42.34788" lon="24.34808">
        <ele>366.726601</ele>
        <time>2022-03-07T10:37:22.520Z</time>
      </trkpt>
      <trkpt lat="42.34799" lon="24.34803">
        <ele>367.114282</ele>
        <time>2022-03-07T10:37:27.510Z</time>
      </trkpt>
      <trkpt lat="42.34808" lon="24.34799">
        <ele>367.432719</ele>
        <time>2022-03-07T10:37:31.530Z</time>
      </trkpt>
      <trkpt lat="42.34818" lon="24.34794">
        <ele>367.800323</ele>
        <time>2022-03-07T10:37:36.517Z</time>
      </trkpt>
      <trkpt lat="42.34828" lon="24.34791">
        <ele>368.135154</ele>
        <time>2022-03-07T10:37:40.516Z</time>
      </trkpt>
      <trkpt lat="42.34838" lon="24.34787">
        <ele>368.507424</ele>
        <time>2022-03-07T10:37:45.507Z</time>
      </trkpt>
      <trkpt lat="42.34848" lon="24.34783">
        <ele>368.823524</ele>
        <time>2022-03-07T10:37:50.513Z</time>
      </trkpt>
      <trkpt lat="42.34857" lon="24.3478">
        <ele>368.996796</ele>
        <time>2022-03-07T10:37:55.525Z</time>
      </trkpt>
      <trkpt lat="42.34867" lon="24.34777">
        <ele>369.166359</ele>
        <time>2022-03-07T10:37:59.499Z</time>
      </trkpt>
      <trkpt lat="42.34876" lon="24.34774">
        <ele>369.328798</ele>
        <time>2022-03-07T10:38:03.519Z</time>
      </trkpt>
      <trkpt lat="42.34885" lon="24.34772">
        <ele>369.488563</ele>
        <time>2022-03-07T10:38:07.511Z</time>
      </trkpt>
      <trkpt lat="42.34895" lon="24.3477">
        <ele>369.675294</ele>
        <time>2022-03-07T10:38:12.527Z</time>
      </trkpt>
      <trkpt lat="42.34904" lon="24.34766">
        <ele>369.838107</ele>
        <time>2022-03-07T10:38:16.527Z</time>
      </trkpt>
      <trkpt lat="42.34914" lon="24.34763">
        <ele>370.009634</ele>
        <time>2022-03-07T10:38:20.518Z</time>
      </trkpt>
      <trkpt lat="42.34923" lon="24.3476">
        <ele>370.178694</ele>
        <time>2022-03-07T10:38:24.530Z</time>
      </trkpt>
      <trkpt lat="42.34934" lon="24.34758">
        <ele>370.363705</ele>
        <time>2022-03-07T10:38:28.581Z</time>
      </trkpt>
      <trkpt lat="42.34943" lon="24.34755">
        <ele>370.531807</ele>
        <time>2022-03-07T10:38:32.518Z</time>
      </trkpt>
      <trkpt lat="42.34953" lon="24.34752">
        <ele>370.70371</ele>
        <time>2022-03-07T10:38:36.530Z</time>
      </trkpt>
      <trkpt lat="42.34963" lon="24.34748">
        <ele>370.893207</ele>
        <time>2022-03-07T10:38:40.518Z</time>
      </trkpt>
      <trkpt lat="42.34974" lon="24.34744">
        <ele>371.085713</ele>
        <time>2022-03-07T10:38:44.575Z</time>
      </trkpt>
      <trkpt lat="42.34985" lon="24.3474">
        <ele>371.28835</ele>
        <time>2022-03-07T10:38:48.521Z</time>
      </trkpt>
      <trkpt lat="42.34996" lon="24.34736">
        <ele>371.493134</ele>
        <time>2022-03-07T10:38:52.521Z</time>
      </trkpt>
      <trkpt lat="42.35008" lon="24.34732">
        <ele>371.698522</ele>
        <time>2022-03-07T10:38:56.529Z</time>
      </trkpt>
      <trkpt lat="42.35018" lon="24.34729">
        <ele>371.892208</ele>
        <time>2022-03-07T10:39:00.508Z</time>
      </trkpt>
      <trkpt lat="42.3503" lon="24.34725">
        <ele>371.983988</ele>
        <time>2022-03-07T10:39:04.544Z</time>
      </trkpt>
      <trkpt lat="42.35041" lon="24.34722">
        <ele>372.035423</ele>
        <time>2022-03-07T10:39:08.523Z</time>
      </trkpt>
      <trkpt lat="42.35053" lon="24.34719">
        <ele>372.088356</ele>
        <time>2022-03-07T10:39:12.516Z</time>
      </trkpt>
      <trkpt lat="42.35064" lon="24.34715">
        <ele>372.14025</ele>
        <time>2022-03-07T10:39:16.527Z</time>
      </trkpt>
      <trkpt lat="42.35073" lon="24.34711">
        <ele>372.181933</ele>
        <time>2022-03-07T10:39:19.518Z</time>
      </trkpt>
      <trkpt lat="42.35085" lon="24.34708">
        <ele>372.236577</ele>
        <time>2022-03-07T10:39:23.517Z</time>
      </trkpt>
      <trkpt lat="42.35094" lon="24.34705">
        <ele>372.278016</ele>
        <time>2022-03-07T10:39:26.521Z</time>
      </trkpt>
      <trkpt lat="42.35105" lon="24.34704">
        <ele>372.330722</ele>
        <time>2022-03-07T10:39:30.523Z</time>
      </trkpt>
      <trkpt lat="42.35117" lon="24.34704">
        <ele>372.3828</ele>
        <time>2022-03-07T10:39:34.519Z</time>
      </trkpt>
      <trkpt lat="42.35127" lon="24.34706">
        <ele>372.42688</ele>
        <time>2022-03-07T10:39:37.521Z</time>
      </trkpt>
      <trkpt lat="42.35137" lon="24.34709">
        <ele>372.472404</ele>
        <time>2022-03-07T10:39:40.523Z</time>
      </trkpt>
      <trkpt lat="42.35146" lon="24.34713">
        <ele>372.518058</ele>
        <time>2022-03-07T10:39:43.524Z</time>
      </trkpt>
      <trkpt lat="42.35156" lon="24.34717">
        <ele>372.562375</ele>
        <time>2022-03-07T10:39:46.513Z</time>
      </trkpt>
      <trkpt lat="42.35165" lon="24.34721">
        <ele>372.603937</ele>
        <time>2022-03-07T10:39:49.527Z</time>
      </trkpt>
      <trkpt lat="42.35176" lon="24.34727">
        <ele>372.65733</ele>
        <time>2022-03-07T10:39:53.531Z</time>
      </trkpt>
      <trkpt lat="42.35184" lon="24.34731">
        <ele>372.697822</ele>
        <time>2022-03-07T10:39:56.519Z</time>
      </trkpt>
      <trkpt lat="42.35194" lon="24.34736">
        <ele>372.747038</ele>
        <time>2022-03-07T10:40:00.526Z</time>
      </trkpt>
      <trkpt lat="42.35204" lon="24.34742">
        <ele>373.262829</ele>
        <time>2022-03-07T10:40:04.532Z</time>
      </trkpt>
      <trkpt lat="42.35213" lon="24.34747">
        <ele>373.810799</ele>
        <time>2022-03-07T10:40:08.506Z</time>
      </trkpt>
      <trkpt lat="42.35223" lon="24.34752">
        <ele>374.37556</ele>
        <time>2022-03-07T10:40:13.523Z</time>
      </trkpt>
      <trkpt lat="42.35233" lon="24.34757">
        <ele>374.929784</ele>
        <time>2022-03-07T10:40:18.523Z</time>
      </trkpt>
      <trkpt lat="42.35243" lon="24.34759">
        <ele>375.481431</ele>
        <time>2022-03-07T10:40:23.516Z</time>
      </trkpt>
      <trkpt lat="42.35253" lon="24.34764">
        <ele>376.049862</ele>
        <time>2022-03-07T10:40:29.528Z</time>
      </trkpt>
      <trkpt lat="42.35262" lon="24.34765">
        <ele>376.555266</ele>
        <time>2022-03-07T10:40:34.513Z</time>
      </trkpt>
      <trkpt lat="42.35271" lon="24.34766">
        <ele>377.066759</ele>
        <time>2022-03-07T10:40:39.515Z</time>
      </trkpt>
      <trkpt lat="42.35281" lon="24.34767">
        <ele>377.584452</ele>
        <time>2022-03-07T10:40:44.554Z</time>
      </trkpt>
      <trkpt lat="42.35292" lon="24.34769">
        <ele>378.167213</ele>
        <time>2022-03-07T10:40:50.523Z</time>
      </trkpt>
      <trkpt lat="42.35301" lon="24.34766">
        <ele>378.697595</ele>
        <time>2022-03-07T10:40:55.506Z</time>
      </trkpt>
      <trkpt lat="42.35311" lon="24.34764">
        <ele>379.217835</ele>
        <time>2022-03-07T10:41:00.567Z</time>
      </trkpt>
      <trkpt lat="42.3532" lon="24.34763">
        <ele>379.741358</ele>
        <time>2022-03-07T10:41:05.521Z</time>
      </trkpt>
      <trkpt lat="42.3533" lon="24.34761">
        <ele>380.242898</ele>
        <time>2022-03-07T10:41:10.514Z</time>
      </trkpt>
      <trkpt lat="42.35339" lon="24.34761">
        <ele>380.742083</ele>
        <time>2022-03-07T10:41:16.506Z</time>
      </trkpt>
      <trkpt lat="42.35349" lon="24.34758">
        <ele>381.307556</ele>
        <time>2022-03-07T10:41:22.556Z</time>
      </trkpt>
      <trkpt lat="42.35358" lon="24.34756">
        <ele>381.799308</ele>
        <time>2022-03-07T10:41:27.559Z</time>
      </trkpt>
      <trkpt lat="42.35369" lon="24.34755">
        <ele>382.375903</ele>
        <time>2022-03-07T10:41:33.514Z</time>
      </trkpt>
      <trkpt lat="42.35378" lon="24.34753">
        <ele>382.866682</ele>
        <time>2022-03-07T10:41:38.520Z</time>
      </trkpt>
      <trkpt lat="42.35388" lon="24.34751">
        <ele>383.374642</ele>
        <time>2022-03-07T10:41:43.564Z</time>
      </trkpt>
      <trkpt lat="42.35397" lon="24.3475">
        <ele>383.85327</ele>
        <time>2022-03-07T10:41:48.531Z</time>
      </trkpt>
      <trkpt lat="42.35407" lon="24.34748">
        <ele>384.36474</ele>
        <time>2022-03-07T10:41:53.523Z</time>
      </trkpt>
      <trkpt lat="42.35417" lon="24.34747">
        <ele>384.866413</ele>
        <time>2022-03-07T10:41:58.532Z</time>
      </trkpt>
      <trkpt lat="42.35427" lon="24.34746">
        <ele>385.362331</ele>
        <time>2022-03-07T10:42:03.515Z</time>
      </trkpt>
      <trkpt lat="42.35436" lon="24.34746">
        <ele>385.851422</ele>
        <time>2022-03-07T10:42:08.517Z</time>
      </trkpt>
      <trkpt lat="42.35446" lon="24.34745">
        <ele>386.337522</ele>
        <time>2022-03-07T10:42:13.517Z</time>
      </trkpt>
      <trkpt lat="42.35457" lon="24.34743">
        <ele>386.897926</ele>
        <time>2022-03-07T10:42:19.534Z</time>
      </trkpt>
      <trkpt lat="42.35466" lon="24.34741">
        <ele>387.359914</ele>
        <time>2022-03-07T10:42:24.515Z</time>
      </trkpt>
      <trkpt lat="42.35475" lon="24.34739">
        <ele>387.85447</ele>
        <time>2022-03-07T10:42:29.528Z</time>
      </trkpt>
      <trkpt lat="42.35485" lon="24.34737">
        <ele>388.33669</ele>
        <time>2022-03-07T10:42:34.535Z</time>
      </trkpt>
      <trkpt lat="42.35495" lon="24.34735">
        <ele>388.857293</ele>
        <time>2022-03-07T10:42:39.526Z</time>
      </trkpt>
      <trkpt lat="42.35505" lon="24.34731">
        <ele>389.40711</ele>
        <time>2022-03-07T10:42:44.558Z</time>
      </trkpt>
      <trkpt lat="42.35515" lon="24.34727">
        <ele>389.951017</ele>
        <time>2022-03-07T10:42:49.540Z</time>
      </trkpt>
      <trkpt lat="42.35525" lon="24.34723">
        <ele>390.456795</ele>
        <time>2022-03-07T10:42:54.531Z</time>
      </trkpt>
      <trkpt lat="42.35535" lon="24.34721">
        <ele>390.997028</ele>
        <time>2022-03-07T10:42:59.536Z</time>
      </trkpt>
      <trkpt lat="42.35544" lon="24.34716">
        <ele>391.480413</ele>
        <time>2022-03-07T10:43:03.517Z</time>
      </trkpt>
      <trkpt lat="42.35554" lon="24.34712">
        <ele>391.811938</ele>
        <time>2022-03-07T10:43:07.517Z</time>
      </trkpt>
      <trkpt lat="42.35564" lon="24.34708">
        <ele>392.042057</ele>
        <time>2022-03-07T10:43:11.550Z</time>
      </trkpt>
      <trkpt lat="42.35573" lon="24.34704">
        <ele>392.260128</ele>
        <time>2022-03-07T10:43:15.515Z</time>
      </trkpt>
      <trkpt lat="42.35583" lon="24.34699">
        <ele>392.487039</ele>
        <time>2022-03-07T10:43:19.525Z</time>
      </trkpt>
      <trkpt lat="42.35592" lon="24.34695">
        <ele>392.705595</ele>
        <time>2022-03-07T10:43:23.530Z</time>
      </trkpt>
      <trkpt lat="42.35602" lon="24.34692">
        <ele>392.92699</ele>
        <time>2022-03-07T10:43:28.525Z</time>
      </trkpt>
      <trkpt lat="42.35611" lon="24.34687">
        <ele>393.13889</ele>
        <time>2022-03-07T10:43:32.531Z</time>
      </trkpt>
      <trkpt lat="42.3562" lon="24.34683">
        <ele>393.34168</ele>
        <time>2022-03-07T10:43:36.520Z</time>
      </trkpt>
      <trkpt lat="42.35629" lon="24.34676">
        <ele>393.57434</ele>
        <time>2022-03-07T10:43:41.527Z</time>
      </trkpt>
      <trkpt lat="42.35639" lon="24.34672">
        <ele>393.81863</ele>
        <time>2022-03-07T10:43:46.502Z</time>
      </trkpt>
      <trkpt lat="42.35649" lon="24.34667">
        <ele>394.047981</ele>
        <time>2022-03-07T10:43:50.560Z</time>
      </trkpt>
      <trkpt lat="42.35658" lon="24.34661">
        <ele>394.275797</ele>
        <time>2022-03-07T10:43:54.531Z</time>
      </trkpt>
      <trkpt lat="42.35667" lon="24.34656">
        <ele>394.480308</ele>
        <time>2022-03-07T10:43:58.538Z</time>
      </trkpt>
      <trkpt lat="42.35675" lon="24.34651">
        <ele>394.684511</ele>
        <time>2022-03-07T10:44:02.527Z</time>
      </trkpt>
      <trkpt lat="42.35684" lon="24.34647">
        <ele>394.887279</ele>
        <time>2022-03-07T10:44:06.520Z</time>
      </trkpt>
      <trkpt lat="42.35693" lon="24.34643">
        <ele>395.092386</ele>
        <time>2022-03-07T10:44:10.548Z</time>
      </trkpt>
      <trkpt lat="42.35702" lon="24.34636">
        <ele>395.32652</ele>
        <time>2022-03-07T10:44:14.538Z</time>
      </trkpt>
      <trkpt lat="42.35711" lon="24.34631">
        <ele>395.535492</ele>
        <time>2022-03-07T10:44:18.518Z</time>
      </trkpt>
      <trkpt lat="42.35719" lon="24.34625">
        <ele>395.830647</ele>
        <time>2022-03-07T10:44:22.530Z</time>
      </trkpt>
      <trkpt lat="42.35729" lon="24.34619">
        <ele>396.251187</ele>
        <time>2022-03-07T10:44:26.515Z</time>
      </trkpt>
      <trkpt lat="42.35738" lon="24.34611">
        <ele>396.684164</ele>
        <time>2022-03-07T10:44:30.516Z</time>
      </trkpt>
      <trkpt lat="42.35742" lon="24.34599">
        <ele>397.094885</ele>
        <time>2022-03-07T10:44:34.567Z</time>
      </trkpt>
      <trkpt lat="42.35745" lon="24.34587">
        <ele>397.455307</ele>
        <time>2022-03-07T10:44:38.539Z</time>
      </trkpt>
      <trkpt lat="42.35749" lon="24.34576">
        <ele>397.823855</ele>
        <time>2022-03-07T10:44:42.558Z</time>
      </trkpt>
      <trkpt lat="42.35754" lon="24.34563">
        <ele>398.256976</ele>
        <time>2022-03-07T10:44:47.517Z</time>
      </trkpt>
      <trkpt lat="42.35759" lon="24.34551">
        <ele>398.648646</ele>
        <time>2022-03-07T10:44:51.560Z</time>
      </trkpt>
      <trkpt lat="42.35764" lon="24.34541">
        <ele>399.022201</ele>
        <time>2022-03-07T10:44:55.525Z</time>
      </trkpt>
      <trkpt lat="42.35769" lon="24.3453">
        <ele>399.410611</ele>
        <time>2022-03-07T10:44:59.520Z</time>
      </trkpt>
      <trkpt lat="42.35774" lon="24.34519">
        <ele>399.775944</ele>
        <time>2022-03-07T10:45:03.519Z</time>
      </trkpt>
      <trkpt lat="42.35778" lon="24.34508">
        <ele>400.140915</ele>
        <time>2022-03-07T10:45:07.523Z</time>
      </trkpt>
      <trkpt lat="42.35783" lon="24.34495">
        <ele>400.580386</ele>
        <time>2022-03-07T10:45:12.537Z</time>
      </trkpt>
      <trkpt lat="42.35787" lon="24.34484">
        <ele>400.948157</ele>
        <time>2022-03-07T10:45:16.537Z</time>
      </trkpt>
      <trkpt lat="42.35793" lon="24.34473">
        <ele>401.342791</ele>
        <time>2022-03-07T10:45:20.537Z</time>
      </trkpt>
      <trkpt lat="42.35798" lon="24.34462">
        <ele>401.722151</ele>
        <time>2022-03-07T10:45:24.533Z</time>
      </trkpt>
      <trkpt lat="42.35803" lon="24.3445">
        <ele>402.125647</ele>
        <time>2022-03-07T10:45:29.571Z</time>
      </trkpt>
      <trkpt lat="42.35808" lon="24.34439">
        <ele>402.510306</ele>
        <time>2022-03-07T10:45:34.527Z</time>
      </trkpt>
      <trkpt lat="42.35813" lon="24.34426">
        <ele>402.938537</ele>
        <time>2022-03-07T10:45:39.514Z</time>
      </trkpt>
      <trkpt lat="42.35819" lon="24.34416">
        <ele>403.308493</ele>
        <time>2022-03-07T10:45:43.536Z</time>
      </trkpt>
      <trkpt lat="42.35824" lon="24.34405">
        <ele>403.681478</ele>
        <time>2022-03-07T10:45:47.529Z</time>
      </trkpt>
      <trkpt lat="42.35829" lon="24.34395">
        <ele>404.047739</ele>
        <time>2022-03-07T10:45:51.531Z</time>
      </trkpt>
      <trkpt lat="42.35835" lon="24.34382">
        <ele>404.491179</ele>
        <time>2022-03-07T10:45:56.549Z</time>
      </trkpt>
      <trkpt lat="42.3584" lon="24.3437">
        <ele>404.917341</ele>
        <time>2022-03-07T10:46:01.524Z</time>
      </trkpt>
      <trkpt lat="42.35845" lon="24.34357">
        <ele>405.333712</ele>
        <time>2022-03-07T10:46:06.528Z</time>
      </trkpt>
      <trkpt lat="42.35849" lon="24.34345">
        <ele>405.720021</ele>
        <time>2022-03-07T10:46:11.524Z</time>
      </trkpt>
      <trkpt lat="42.35855" lon="24.34333">
        <ele>406.132588</ele>
        <time>2022-03-07T10:46:16.515Z</time>
      </trkpt>
      <trkpt lat="42.35859" lon="24.34321">
        <ele>406.520622</ele>
        <time>2022-03-07T10:46:21.528Z</time>
      </trkpt>
      <trkpt lat="42.35864" lon="24.34309">
        <ele>406.91457</ele>
        <time>2022-03-07T10:46:26.528Z</time>
      </trkpt>
      <trkpt lat="42.35867" lon="24.34297">
        <ele>407.307625</ele>
        <time>2022-03-07T10:46:31.533Z</time>
      </trkpt>
      <trkpt lat="42.3587" lon="24.34285">
        <ele>407.678632</ele>
        <time>2022-03-07T10:46:36.527Z</time>
      </trkpt>
      <trkpt lat="42.35874" lon="24.34272">
        <ele>408.078516</ele>
        <time>2022-03-07T10:46:41.527Z</time>
      </trkpt>
      <trkpt lat="42.35876" lon="24.34259">
        <ele>408.481842</ele>
        <time>2022-03-07T10:46:46.586Z</time>
      </trkpt>
      <trkpt lat="42.35878" lon="24.34245">
        <ele>408.886567</ele>
        <time>2022-03-07T10:46:52.535Z</time>
      </trkpt>
      <trkpt lat="42.3588" lon="24.3423">
        <ele>409.324413</ele>
        <time>2022-03-07T10:46:58.533Z</time>
      </trkpt>
      <trkpt lat="42.3588" lon="24.34216">
        <ele>409.729608</ele>
        <time>2022-03-07T10:47:04.516Z</time>
      </trkpt>
      <trkpt lat="42.3588" lon="24.34204">
        <ele>409.993553</ele>
        <time>2022-03-07T10:47:09.539Z</time>
      </trkpt>
      <trkpt lat="42.3588" lon="24.34192">
        <ele>410.063341</ele>
        <time>2022-03-07T10:47:14.517Z</time>
      </trkpt>
      <trkpt lat="42.35877" lon="24.34179">
        <ele>410.142897</ele>
        <time>2022-03-07T10:47:20.527Z</time>
      </trkpt>
      <trkpt lat="42.35873" lon="24.34168">
        <ele>410.211948</ele>
        <time>2022-03-07T10:47:25.522Z</time>
      </trkpt>
      <trkpt lat="42.35869" lon="24.34155">
        <ele>410.288312</ele>
        <time>2022-03-07T10:47:30.562Z</time>
      </trkpt>
      <trkpt lat="42.35865" lon="24.34142">
        <ele>410.372991</ele>
        <time>2022-03-07T10:47:35.522Z</time>
      </trkpt>
      <trkpt lat="42.35862" lon="24.34128">
        <ele>410.452891</ele>
        <time>2022-03-07T10:47:39.506Z</time>
      </trkpt>
      <trkpt lat="42.35859" lon="24.34113">
        <ele>410.541412</ele>
        <time>2022-03-07T10:47:43.531Z</time>
      </trkpt>
      <trkpt lat="42.35856" lon="24.34101">
        <ele>410.613046</ele>
        <time>2022-03-07T10:47:46.509Z</time>
      </trkpt>
      <trkpt lat="42.35853" lon="24.34089">
        <ele>410.68576</ele>
        <time>2022-03-07T10:47:49.527Z</time>
      </trkpt>
      <trkpt lat="42.3585" lon="24.34076">
        <ele>410.761879</ele>
        <time>2022-03-07T10:47:52.556Z</time>
      </trkpt>
      <trkpt lat="42.35846" lon="24.34064">
        <ele>410.838261</ele>
        <time>2022-03-07T10:47:55.537Z</time>
      </trkpt>
      <trkpt lat="42.35842" lon="24.34051">
        <ele>410.918556</ele>
        <time>2022-03-07T10:47:58.555Z</time>
      </trkpt>
      <trkpt lat="42.35839" lon="24.34037">
        <ele>411.00295</ele>
        <time>2022-03-07T10:48:01.518Z</time>
      </trkpt>
      <trkpt lat="42.35836" lon="24.34023">
        <ele>411.081915</ele>
        <time>2022-03-07T10:48:04.521Z</time>
      </trkpt>
      <trkpt lat="42.35833" lon="24.34008">
        <ele>411.171166</ele>
        <time>2022-03-07T10:48:08.515Z</time>
      </trkpt>
      <trkpt lat="42.3583" lon="24.33993">
        <ele>411.261498</ele>
        <time>2022-03-07T10:48:12.546Z</time>
      </trkpt>
      <trkpt lat="42.35827" lon="24.33981">
        <ele>411.333348</ele>
        <time>2022-03-07T10:48:15.550Z</time>
      </trkpt>
      <trkpt lat="42.35824" lon="24.33969">
        <ele>411.637978</ele>
        <time>2022-03-07T10:48:18.528Z</time>
      </trkpt>
      <trkpt lat="42.3582" lon="24.33956">
        <ele>412.051309</ele>
        <time>2022-03-07T10:48:21.537Z</time>
      </trkpt>
      <trkpt lat="42.35817" lon="24.33944">
        <ele>412.451681</ele>
        <time>2022-03-07T10:48:24.536Z</time>
      </trkpt>
      <trkpt lat="42.35813" lon="24.33932">
        <ele>412.839094</ele>
        <time>2022-03-07T10:48:27.544Z</time>
      </trkpt>
      <trkpt lat="42.35811" lon="24.33918">
        <ele>413.293346</ele>
        <time>2022-03-07T10:48:31.550Z</time>
      </trkpt>
      <trkpt lat="42.35807" lon="24.33905">
        <ele>413.721083</ele>
        <time>2022-03-07T10:48:35.575Z</time>
      </trkpt>
      <trkpt lat="42.35803" lon="24.33892">
        <ele>414.156749</ele>
        <time>2022-03-07T10:48:39.530Z</time>
      </trkpt>
      <trkpt lat="42.35799" lon="24.33879">
        <ele>414.566584</ele>
        <time>2022-03-07T10:48:43.534Z</time>
      </trkpt>
      <trkpt lat="42.35795" lon="24.33866">
        <ele>415.024624</ele>
        <time>2022-03-07T10:48:48.528Z</time>
      </trkpt>
      <trkpt lat="42.35792" lon="24.33852">
        <ele>415.473398</ele>
        <time>2022-03-07T10:48:53.549Z</time>
      </trkpt>
      <trkpt lat="42.35789" lon="24.33839">
        <ele>415.876963</ele>
        <time>2022-03-07T10:48:58.534Z</time>
      </trkpt>
      <trkpt lat="42.35786" lon="24.33827">
        <ele>416.278922</ele>
        <time>2022-03-07T10:49:03.534Z</time>
      </trkpt>
      <trkpt lat="42.35782" lon="24.33814">
        <ele>416.680733</ele>
        <time>2022-03-07T10:49:08.529Z</time>
      </trkpt>
      <trkpt lat="42.3578" lon="24.33803">
        <ele>417.061291</ele>
        <time>2022-03-07T10:49:13.556Z</time>
      </trkpt>
      <trkpt lat="42.35777" lon="24.33789">
        <ele>417.488288</ele>
        <time>2022-03-07T10:49:19.527Z</time>
      </trkpt>
      <trkpt lat="42.35773" lon="24.33777">
        <ele>417.897294</ele>
        <time>2022-03-07T10:49:25.527Z</time>
      </trkpt>
      <trkpt lat="42.3577" lon="24.33764">
        <ele>418.314974</ele>
        <time>2022-03-07T10:49:31.525Z</time>
      </trkpt>
      <trkpt lat="42.35767" lon="24.33752">
        <ele>418.705607</ele>
        <time>2022-03-07T10:49:37.532Z</time>
      </trkpt>
      <trkpt lat="42.35764" lon="24.3374">
        <ele>418.858328</ele>
        <time>2022-03-07T10:49:43.522Z</time>
      </trkpt>
      <trkpt lat="42.35761" lon="24.33728">
        <ele>418.907111</ele>
        <time>2022-03-07T10:49:49.547Z</time>
      </trkpt>
      <trkpt lat="42.35757" lon="24.33715">
        <ele>418.960004</ele>
        <time>2022-03-07T10:49:56.534Z</time>
      </trkpt>
      <trkpt lat="42.35753" lon="24.33702">
        <ele>419.011233</ele>
        <time>2022-03-07T10:50:03.528Z</time>
      </trkpt>
      <trkpt lat="42.35751" lon="24.3369">
        <ele>419.057435</ele>
        <time>2022-03-07T10:50:09.538Z</time>
      </trkpt>
      <trkpt lat="42.35747" lon="24.33679">
        <ele>419.10272</ele>
        <time>2022-03-07T10:50:15.555Z</time>
      </trkpt>
      <trkpt lat="42.35745" lon="24.33667">
        <ele>419.148124</ele>
        <time>2022-03-07T10:50:21.531Z</time>
      </trkpt>
      <trkpt lat="42.35742" lon="24.33654">
        <ele>419.19739</ele>
        <time>2022-03-07T10:50:27.548Z</time>
      </trkpt>
      <trkpt lat="42.35738" lon="24.33643">
        <ele>419.245212</ele>
        <time>2022-03-07T10:50:33.565Z</time>
      </trkpt>
      <trkpt lat="42.35735" lon="24.33631">
        <ele>419.290508</ele>
        <time>2022-03-07T10:50:38.539Z</time>
      </trkpt>
      <trkpt lat="42.35731" lon="24.33617">
        <ele>419.345252</ele>
        <time>2022-03-07T10:50:43.535Z</time>
      </trkpt>
      <trkpt lat="42.35728" lon="24.33602">
        <ele>419.405267</ele>
        <time>2022-03-07T10:50:47.647Z</time>
      </trkpt>
      <trkpt lat="42.35724" lon="24.33588">
        <ele>419.462645</ele>
        <time>2022-03-07T10:50:50.535Z</time>
      </trkpt>
      <trkpt lat="42.35721" lon="24.3357">
        <ele>419.530022</ele>
        <time>2022-03-07T10:50:53.538Z</time>
      </trkpt>
      <trkpt lat="42.35719" lon="24.33557">
        <ele>419.578174</ele>
        <time>2022-03-07T10:50:55.614Z</time>
      </trkpt>
      <trkpt lat="42.35717" lon="24.33545">
        <ele>419.623925</ele>
        <time>2022-03-07T10:50:57.538Z</time>
      </trkpt>
      <trkpt lat="42.35716" lon="24.33528">
        <ele>419.687878</ele>
        <time>2022-03-07T10:51:00.650Z</time>
      </trkpt>
      <trkpt lat="42.35713" lon="24.33513">
        <ele>419.556858</ele>
        <time>2022-03-07T10:51:03.531Z</time>
      </trkpt>
      <trkpt lat="42.35711" lon="24.335">
        <ele>418.819444</ele>
        <time>2022-03-07T10:51:06.520Z</time>
      </trkpt>
      <trkpt lat="42.35708" lon="24.33488">
        <ele>418.1265</ele>
        <time>2022-03-07T10:51:10.514Z</time>
      </trkpt>
      <trkpt lat="42.35707" lon="24.33475">
        <ele>417.401371</ele>
        <time>2022-03-07T10:51:16.531Z</time>
      </trkpt>
      <trkpt lat="42.35703" lon="24.3346">
        <ele>416.48731</ele>
        <time>2022-03-07T10:51:20.589Z</time>
      </trkpt>
      <trkpt lat="42.35696" lon="24.3345">
        <ele>415.716038</ele>
        <time>2022-03-07T10:51:23.528Z</time>
      </trkpt>
      <trkpt lat="42.35685" lon="24.33444">
        <ele>414.849797</ele>
        <time>2022-03-07T10:51:27.535Z</time>
      </trkpt>
      <trkpt lat="42.35675" lon="24.33447">
        <ele>414.048498</ele>
        <time>2022-03-07T10:51:32.528Z</time>
      </trkpt>
      <trkpt lat="42.35669" lon="24.33459">
        <ele>413.274761</ele>
        <time>2022-03-07T10:51:37.518Z</time>
      </trkpt>
      <trkpt lat="42.35664" lon="24.33469">
        <ele>412.560407</ele>
        <time>2022-03-07T10:51:41.537Z</time>
      </trkpt>
      <trkpt lat="42.35657" lon="24.33479">
        <ele>411.764772</ele>
        <time>2022-03-07T10:51:47.524Z</time>
      </trkpt>
      <trkpt lat="42.35648" lon="24.33487">
        <ele>410.991216</ele>
        <time>2022-03-07T10:51:52.534Z</time>
      </trkpt>
      <trkpt lat="42.3564" lon="24.33495">
        <ele>410.227321</ele>
        <time>2022-03-07T10:51:57.534Z</time>
      </trkpt>
      <trkpt lat="42.35631" lon="24.33504">
        <ele>409.409446</ele>
        <time>2022-03-07T10:52:01.534Z</time>
      </trkpt>
      <trkpt lat="42.35624" lon="24.33512">
        <ele>408.693716</ele>
        <time>2022-03-07T10:52:05.516Z</time>
      </trkpt>
      <trkpt lat="42.35616" lon="24.33522">
        <ele>407.842712</ele>
        <time>2022-03-07T10:52:11.574Z</time>
      </trkpt>
      <trkpt lat="42.35607" lon="24.33532">
        <ele>407.013985</ele>
        <time>2022-03-07T10:52:16.513Z</time>
      </trkpt>
      <trkpt lat="42.35599" lon="24.33539">
        <ele>406.306471</ele>
        <time>2022-03-07T10:52:20.526Z</time>
      </trkpt>
      <trkpt lat="42.35591" lon="24.33547">
        <ele>405.296564</ele>
        <time>2022-03-07T10:52:24.538Z</time>
      </trkpt>
      <trkpt lat="42.35583" lon="24.33556">
        <ele>404.219777</ele>
        <time>2022-03-07T10:52:28.528Z</time>
      </trkpt>
      <trkpt lat="42.35576" lon="24.33564">
        <ele>403.278614</ele>
        <time>2022-03-07T10:52:32.511Z</time>
      </trkpt>
      <trkpt lat="42.35567" lon="24.33572">
        <ele>402.177768</ele>
        <time>2022-03-07T10:52:37.522Z</time>
      </trkpt>
      <trkpt lat="42.35559" lon="24.3358">
        <ele>401.111671</ele>
        <time>2022-03-07T10:52:41.529Z</time>
      </trkpt>
      <trkpt lat="42.3555" lon="24.33588">
        <ele>400.006318</ele>
        <time>2022-03-07T10:52:45.508Z</time>
      </trkpt>
      <trkpt lat="42.35541" lon="24.33595">
        <ele>398.92364</ele>
        <time>2022-03-07T10:52:50.520Z</time>
      </trkpt>
      <trkpt lat="42.35533" lon="24.33602">
        <ele>397.960596</ele>
        <time>2022-03-07T10:52:54.530Z</time>
      </trkpt>
      <trkpt lat="42.35524" lon="24.33611">
        <ele>396.75008</ele>
        <time>2022-03-07T10:52:58.517Z</time>
      </trkpt>
      <trkpt lat="42.35517" lon="24.33623">
        <ele>395.587274</ele>
        <time>2022-03-07T10:53:03.520Z</time>
      </trkpt>
      <trkpt lat="42.3551" lon="24.33631">
        <ele>394.631635</ele>
        <time>2022-03-07T10:53:07.527Z</time>
      </trkpt>
      <trkpt lat="42.35502" lon="24.33641">
        <ele>393.531958</ele>
        <time>2022-03-07T10:53:12.515Z</time>
      </trkpt>
      <trkpt lat="42.35495" lon="24.33651">
        <ele>392.47947</ele>
        <time>2022-03-07T10:53:16.510Z</time>
      </trkpt>
      <trkpt lat="42.35487" lon="24.33657">
        <ele>391.490004</ele>
        <time>2022-03-07T10:53:20.527Z</time>
      </trkpt>
      <trkpt lat="42.35479" lon="24.33664">
        <ele>390.466713</ele>
        <time>2022-03-07T10:53:24.520Z</time>
      </trkpt>
      <trkpt lat="42.35472" lon="24.33674">
        <ele>389.470425</ele>
        <time>2022-03-07T10:53:28.505Z</time>
      </trkpt>
      <trkpt lat="42.35464" lon="24.33683">
        <ele>388.359601</ele>
        <time>2022-03-07T10:53:33.510Z</time>
      </trkpt>
      <trkpt lat="42.35455" lon="24.33688">
        <ele>387.424482</ele>
        <time>2022-03-07T10:53:37.561Z</time>
      </trkpt>
      <trkpt lat="42.35446" lon="24.33696">
        <ele>386.888328</ele>
        <time>2022-03-07T10:53:41.530Z</time>
      </trkpt>
      <trkpt lat="42.35437" lon="24.33706">
        <ele>386.343188</ele>
        <time>2022-03-07T10:53:45.520Z</time>
      </trkpt>
      <trkpt lat="42.35431" lon="24.33718">
        <ele>385.80412</ele>
        <time>2022-03-07T10:53:49.622Z</time>
      </trkpt>
      <trkpt lat="42.35423" lon="24.33727">
        <ele>385.311356</ele>
        <time>2022-03-07T10:53:53.576Z</time>
      </trkpt>
      <trkpt lat="42.35413" lon="24.3373">
        <ele>384.785954</ele>
        <time>2022-03-07T10:53:57.532Z</time>
      </trkpt>
      <trkpt lat="42.35402" lon="24.33732">
        <ele>384.268084</ele>
        <time>2022-03-07T10:54:02.510Z</time>
      </trkpt>
      <trkpt lat="42.35391" lon="24.33729">
        <ele>383.690967</ele>
        <time>2022-03-07T10:54:07.549Z</time>
      </trkpt>
      <trkpt lat="42.35381" lon="24.33723">
        <ele>383.18427</ele>
        <time>2022-03-07T10:54:11.538Z</time>
      </trkpt>
      <trkpt lat="42.35373" lon="24.33712">
        <ele>382.622442</ele>
        <time>2022-03-07T10:54:16.537Z</time>
      </trkpt>
      <trkpt lat="42.35366" lon="24.33703">
        <ele>382.144027</ele>
        <time>2022-03-07T10:54:20.542Z</time>
      </trkpt>
      <trkpt lat="42.3536" lon="24.33691">
        <ele>381.602052</ele>
        <time>2022-03-07T10:54:25.553Z</time>
      </trkpt>
      <trkpt lat="42.35355" lon="24.33679">
        <ele>381.121095</ele>
        <time>2022-03-07T10:54:29.531Z</time>
      </trkpt>
      <trkpt lat="42.35349" lon="24.33667">
        <ele>380.595074</ele>
        <time>2022-03-07T10:54:33.533Z</time>
      </trkpt>
      <trkpt lat="42.35344" lon="24.33656">
        <ele>380.122333</ele>
        <time>2022-03-07T10:54:37.529Z</time>
      </trkpt>
      <trkpt lat="42.35337" lon="24.33646">
        <ele>379.643466</ele>
        <time>2022-03-07T10:54:41.526Z</time>
      </trkpt>
      <trkpt lat="42.35332" lon="24.33635">
        <ele>379.16262</ele>
        <time>2022-03-07T10:54:45.601Z</time>
      </trkpt>
      <trkpt lat="42.35327" lon="24.33625">
        <ele>378.716629</ele>
        <time>2022-03-07T10:54:49.510Z</time>
      </trkpt>
      <trkpt lat="42.3532" lon="24.33614">
        <ele>377.862025</ele>
        <time>2022-03-07T10:54:54.517Z</time>
      </trkpt>
      <trkpt lat="42.35312" lon="24.33604">
        <ele>376.948171</ele>
        <time>2022-03-07T10:54:59.539Z</time>
      </trkpt>
      <trkpt lat="42.35305" lon="24.33596">
        <ele>376.176003</ele>
        <time>2022-03-07T10:55:04.523Z</time>
      </trkpt>
      <trkpt lat="42.35295" lon="24.33588">
        <ele>375.20746</ele>
        <time>2022-03-07T10:55:09.528Z</time>
      </trkpt>
      <trkpt lat="42.35286" lon="24.3358">
        <ele>374.306975</ele>
        <time>2022-03-07T10:55:14.536Z</time>
      </trkpt>
      <trkpt lat="42.35277" lon="24.33572">
        <ele>373.380239</ele>
        <time>2022-03-07T10:55:19.566Z</time>
      </trkpt>
      <trkpt lat="42.35269" lon="24.33566">
        <ele>372.581911</ele>
        <time>2022-03-07T10:55:23.555Z</time>
      </trkpt>
      <trkpt lat="42.35259" lon="24.33559">
        <ele>371.655529</ele>
        <time>2022-03-07T10:55:27.536Z</time>
      </trkpt>
      <trkpt lat="42.3525" lon="24.33553">
        <ele>370.847642</ele>
        <time>2022-03-07T10:55:31.540Z</time>
      </trkpt>
      <trkpt lat="42.35241" lon="24.33546">
        <ele>369.944713</ele>
        <time>2022-03-07T10:55:36.539Z</time>
      </trkpt>
      <trkpt lat="42.35232" lon="24.33539">
        <ele>369.073738</ele>
        <time>2022-03-07T10:55:41.559Z</time>
      </trkpt>
      <trkpt lat="42.35224" lon="24.33532">
        <ele>368.262252</ele>
        <time>2022-03-07T10:55:45.511Z</time>
      </trkpt>
      <trkpt lat="42.35216" lon="24.33526">
        <ele>367.458484</ele>
        <time>2022-03-07T10:55:49.515Z</time>
      </trkpt>
      <trkpt lat="42.35206" lon="24.33519">
        <ele>366.529394</ele>
        <time>2022-03-07T10:55:54.529Z</time>
      </trkpt>
      <trkpt lat="42.35197" lon="24.33514">
        <ele>365.74351</ele>
        <time>2022-03-07T10:55:58.516Z</time>
      </trkpt>
      <trkpt lat="42.35189" lon="24.33507">
        <ele>364.948381</ele>
        <time>2022-03-07T10:56:02.534Z</time>
      </trkpt>
      <trkpt lat="42.35181" lon="24.33499">
        <ele>364.112171</ele>
        <time>2022-03-07T10:56:06.534Z</time>
      </trkpt>
      <trkpt lat="42.35173" lon="24.33493">
        <ele>363.281779</ele>
        <time>2022-03-07T10:56:11.523Z</time>
      </trkpt>
      <trkpt lat="42.35163" lon="24.33486">
        <ele>362.338722</ele>
        <time>2022-03-07T10:56:16.520Z</time>
      </trkpt>
      <trkpt lat="42.35153" lon="24.33479">
        <ele>361.380993</ele>
        <time>2022-03-07T10:56:21.526Z</time>
      </trkpt>
      <trkpt lat="42.35145" lon="24.3347">
        <ele>360.50967</ele>
        <time>2022-03-07T10:56:24.539Z</time>
      </trkpt>
      <trkpt lat="42.35138" lon="24.33459">
        <ele>359.615052</ele>
        <time>2022-03-07T10:56:27.523Z</time>
      </trkpt>
      <trkpt lat="42.35132" lon="24.33447">
        <ele>358.740828</ele>
        <time>2022-03-07T10:56:30.586Z</time>
      </trkpt>
      <trkpt lat="42.35128" lon="24.33434">
        <ele>357.819295</ele>
        <time>2022-03-07T10:56:33.536Z</time>
      </trkpt>
      <trkpt lat="42.35123" lon="24.33422">
        <ele>356.96847</ele>
        <time>2022-03-07T10:56:36.536Z</time>
      </trkpt>
      <trkpt lat="42.35123" lon="24.33408">
        <ele>356.087454</ele>
        <time>2022-03-07T10:56:40.534Z</time>
      </trkpt>
      <trkpt lat="42.35123" lon="24.33394">
        <ele>355.230742</ele>
        <time>2022-03-07T10:56:43.562Z</time>
      </trkpt>
      <trkpt lat="42.35124" lon="24.33381">
        <ele>354.403535</ele>
        <time>2022-03-07T10:56:46.523Z</time>
      </trkpt>
      <trkpt lat="42.35124" lon="24.33368">
        <ele>353.578013</ele>
        <time>2022-03-07T10:56:52.562Z</time>
      </trkpt>
      <trkpt lat="42.35123" lon="24.33337">
        <ele>351.678382</ele>
        <time>2022-03-07T10:59:21.538Z</time>
      </trkpt>
      <trkpt lat="42.35122" lon="24.33324">
        <ele>350.816724</ele>
        <time>2022-03-07T10:59:26.533Z</time>
      </trkpt>
      <trkpt lat="42.35122" lon="24.33307">
        <ele>349.790713</ele>
        <time>2022-03-07T10:59:30.516Z</time>
      </trkpt>
      <trkpt lat="42.3512" lon="24.33293">
        <ele>348.856773</ele>
        <time>2022-03-07T10:59:34.521Z</time>
      </trkpt>
      <trkpt lat="42.35115" lon="24.33279">
        <ele>348.185794</ele>
        <time>2022-03-07T10:59:38.530Z</time>
      </trkpt>
      <trkpt lat="42.35114" lon="24.33266">
        <ele>347.998287</ele>
        <time>2022-03-07T10:59:42.531Z</time>
      </trkpt>
      <trkpt lat="42.35117" lon="24.33252">
        <ele>347.804354</ele>
        <time>2022-03-07T10:59:46.526Z</time>
      </trkpt>
      <trkpt lat="42.35122" lon="24.33239">
        <ele>347.593482</ele>
        <time>2022-03-07T10:59:50.552Z</time>
      </trkpt>
      <trkpt lat="42.35127" lon="24.33225">
        <ele>347.381843</ele>
        <time>2022-03-07T10:59:54.537Z</time>
      </trkpt>
      <trkpt lat="42.35132" lon="24.33213">
        <ele>347.18175</ele>
        <time>2022-03-07T10:59:59.531Z</time>
      </trkpt>
      <trkpt lat="42.35137" lon="24.33202">
        <ele>346.995268</ele>
        <time>2022-03-07T11:00:04.519Z</time>
      </trkpt>
      <trkpt lat="42.35143" lon="24.3319">
        <ele>346.801322</ele>
        <time>2022-03-07T11:00:09.521Z</time>
      </trkpt>
      <trkpt lat="42.35148" lon="24.33179">
        <ele>346.614159</ele>
        <time>2022-03-07T11:00:13.561Z</time>
      </trkpt>
      <trkpt lat="42.35153" lon="24.33168">
        <ele>346.423927</ele>
        <time>2022-03-07T11:00:17.524Z</time>
      </trkpt>
      <trkpt lat="42.35157" lon="24.33155">
        <ele>346.231265</ele>
        <time>2022-03-07T11:00:22.528Z</time>
      </trkpt>
      <trkpt lat="42.35162" lon="24.33143">
        <ele>346.039426</ele>
        <time>2022-03-07T11:00:28.529Z</time>
      </trkpt>
      <trkpt lat="42.35165" lon="24.33129">
        <ele>345.830672</ele>
        <time>2022-03-07T11:00:33.528Z</time>
      </trkpt>
      <trkpt lat="42.35169" lon="24.33115">
        <ele>345.620068</ele>
        <time>2022-03-07T11:00:37.524Z</time>
      </trkpt>
      <trkpt lat="42.35173" lon="24.331">
        <ele>345.389957</ele>
        <time>2022-03-07T11:00:41.539Z</time>
      </trkpt>
      <trkpt lat="42.35176" lon="24.33086">
        <ele>345.189555</ele>
        <time>2022-03-07T11:00:44.519Z</time>
      </trkpt>
      <trkpt lat="42.35179" lon="24.33071">
        <ele>344.963655</ele>
        <time>2022-03-07T11:00:47.527Z</time>
      </trkpt>
      <trkpt lat="42.35181" lon="24.33053">
        <ele>344.722515</ele>
        <time>2022-03-07T11:00:50.535Z</time>
      </trkpt>
      <trkpt lat="42.35181" lon="24.33039">
        <ele>344.538479</ele>
        <time>2022-03-07T11:00:52.566Z</time>
      </trkpt>
      <trkpt lat="42.35181" lon="24.33025">
        <ele>344.344</ele>
        <time>2022-03-07T11:00:54.536Z</time>
      </trkpt>
      <trkpt lat="42.35181" lon="24.33012">
        <ele>344.177024</ele>
        <time>2022-03-07T11:00:56.514Z</time>
      </trkpt>
      <trkpt lat="42.35181" lon="24.32997">
        <ele>343.975894</ele>
        <time>2022-03-07T11:00:59.552Z</time>
      </trkpt>
      <trkpt lat="42.35184" lon="24.32979">
        <ele>343.731247</ele>
        <time>2022-03-07T11:01:02.531Z</time>
      </trkpt>
      <trkpt lat="42.35186" lon="24.32966">
        <ele>343.555075</ele>
        <time>2022-03-07T11:01:04.527Z</time>
      </trkpt>
      <trkpt lat="42.35186" lon="24.3295">
        <ele>343.332516</ele>
        <time>2022-03-07T11:01:07.531Z</time>
      </trkpt>
      <trkpt lat="42.35185" lon="24.32934">
        <ele>343.130022</ele>
        <time>2022-03-07T11:01:10.521Z</time>
      </trkpt>
      <trkpt lat="42.35187" lon="24.32917">
        <ele>342.897074</ele>
        <time>2022-03-07T11:01:13.518Z</time>
      </trkpt>
      <trkpt lat="42.35188" lon="24.32901">
        <ele>342.685512</ele>
        <time>2022-03-07T11:01:16.531Z</time>
      </trkpt>
      <trkpt lat="42.35191" lon="24.32886">
        <ele>342.48073</ele>
        <time>2022-03-07T11:01:19.520Z</time>
      </trkpt>
      <trkpt lat="42.35194" lon="24.32873">
        <ele>342.293156</ele>
        <time>2022-03-07T11:01:22.517Z</time>
      </trkpt>
      <trkpt lat="42.35198" lon="24.3286">
        <ele>342.101173</ele>
        <time>2022-03-07T11:01:25.517Z</time>
      </trkpt>
      <trkpt lat="42.35204" lon="24.32848">
        <ele>341.905853</ele>
        <time>2022-03-07T11:01:28.508Z</time>
      </trkpt>
      <trkpt lat="42.35212" lon="24.32838">
        <ele>341.718938</ele>
        <time>2022-03-07T11:01:31.553Z</time>
      </trkpt>
      <trkpt lat="42.35218" lon="24.32829">
        <ele>341.576433</ele>
        <time>2022-03-07T11:01:34.511Z</time>
      </trkpt>
      <trkpt lat="42.35224" lon="24.32818">
        <ele>341.502568</ele>
        <time>2022-03-07T11:01:37.513Z</time>
      </trkpt>
      <trkpt lat="42.3523" lon="24.32807">
        <ele>341.425012</ele>
        <time>2022-03-07T11:01:40.516Z</time>
      </trkpt>
      <trkpt lat="42.35236" lon="24.32795">
        <ele>341.346562</ele>
        <time>2022-03-07T11:01:43.513Z</time>
      </trkpt>
      <trkpt lat="42.35242" lon="24.32782">
        <ele>341.260269</ele>
        <time>2022-03-07T11:01:46.509Z</time>
      </trkpt>
      <trkpt lat="42.35246" lon="24.32769">
        <ele>341.179055</ele>
        <time>2022-03-07T11:01:49.507Z</time>
      </trkpt>
      <trkpt lat="42.35251" lon="24.32758">
        <ele>341.101642</ele>
        <time>2022-03-07T11:01:52.519Z</time>
      </trkpt>
      <trkpt lat="42.35259" lon="24.32746">
        <ele>341.016339</ele>
        <time>2022-03-07T11:01:55.516Z</time>
      </trkpt>
      <trkpt lat="42.35266" lon="24.32732">
        <ele>340.921593</ele>
        <time>2022-03-07T11:01:58.505Z</time>
      </trkpt>
      <trkpt lat="42.35271" lon="24.3272">
        <ele>340.839788</ele>
        <time>2022-03-07T11:02:01.511Z</time>
      </trkpt>
      <trkpt lat="42.35279" lon="24.32708">
        <ele>340.751835</ele>
        <time>2022-03-07T11:02:05.530Z</time>
      </trkpt>
      <trkpt lat="42.35285" lon="24.32698">
        <ele>340.678406</ele>
        <time>2022-03-07T11:02:08.518Z</time>
      </trkpt>
      <trkpt lat="42.35291" lon="24.32688">
        <ele>340.608538</ele>
        <time>2022-03-07T11:02:11.534Z</time>
      </trkpt>
      <trkpt lat="42.35298" lon="24.3268">
        <ele>340.535373</ele>
        <time>2022-03-07T11:02:15.565Z</time>
      </trkpt>
      <trkpt lat="42.35307" lon="24.32673">
        <ele>340.457322</ele>
        <time>2022-03-07T11:02:20.529Z</time>
      </trkpt>
      <trkpt lat="42.35314" lon="24.32665">
        <ele>340.388249</ele>
        <time>2022-03-07T11:02:24.523Z</time>
      </trkpt>
      <trkpt lat="42.35317" lon="24.32653">
        <ele>340.313706</ele>
        <time>2022-03-07T11:02:29.527Z</time>
      </trkpt>
      <trkpt lat="42.35317" lon="24.32638">
        <ele>340.233691</ele>
        <time>2022-03-07T11:02:34.545Z</time>
      </trkpt>
      <trkpt lat="42.35321" lon="24.32627">
        <ele>340.576445</ele>
        <time>2022-03-07T11:02:38.537Z</time>
      </trkpt>
      <trkpt lat="42.35328" lon="24.32616">
        <ele>341.019075</ele>
        <time>2022-03-07T11:02:42.522Z</time>
      </trkpt>
      <trkpt lat="42.35335" lon="24.32606">
        <ele>341.45814</ele>
        <time>2022-03-07T11:02:46.507Z</time>
      </trkpt>
      <trkpt lat="42.35341" lon="24.32595">
        <ele>341.920764</ele>
        <time>2022-03-07T11:02:50.537Z</time>
      </trkpt>
      <trkpt lat="42.35348" lon="24.32584">
        <ele>342.376367</ele>
        <time>2022-03-07T11:02:54.554Z</time>
      </trkpt>
      <trkpt lat="42.35354" lon="24.32574">
        <ele>342.801092</ele>
        <time>2022-03-07T11:02:58.522Z</time>
      </trkpt>
      <trkpt lat="42.3536" lon="24.32564">
        <ele>343.228278</ele>
        <time>2022-03-07T11:03:02.527Z</time>
      </trkpt>
      <trkpt lat="42.35366" lon="24.32552">
        <ele>343.670212</ele>
        <time>2022-03-07T11:03:06.556Z</time>
      </trkpt>
      <trkpt lat="42.35372" lon="24.32542">
        <ele>344.083722</ele>
        <time>2022-03-07T11:03:10.517Z</time>
      </trkpt>
      <trkpt lat="42.35378" lon="24.32532">
        <ele>344.484321</ele>
        <time>2022-03-07T11:03:14.535Z</time>
      </trkpt>
      <trkpt lat="42.35382" lon="24.3252">
        <ele>344.910198</ele>
        <time>2022-03-07T11:03:19.510Z</time>
      </trkpt>
      <trkpt lat="42.35388" lon="24.32509">
        <ele>345.354762</ele>
        <time>2022-03-07T11:03:24.539Z</time>
      </trkpt>
      <trkpt lat="42.35394" lon="24.32498">
        <ele>345.815043</ele>
        <time>2022-03-07T11:03:29.525Z</time>
      </trkpt>
      <trkpt lat="42.35401" lon="24.32486">
        <ele>346.272484</ele>
        <time>2022-03-07T11:03:34.547Z</time>
      </trkpt>
      <trkpt lat="42.35409" lon="24.32476">
        <ele>346.754002</ele>
        <time>2022-03-07T11:03:39.517Z</time>
      </trkpt>
      <trkpt lat="42.35415" lon="24.32463">
        <ele>347.235111</ele>
        <time>2022-03-07T11:03:44.519Z</time>
      </trkpt>
      <trkpt lat="42.35421" lon="24.32451">
        <ele>347.712135</ele>
        <time>2022-03-07T11:03:49.517Z</time>
      </trkpt>
      <trkpt lat="42.35427" lon="24.32438">
        <ele>348.144081</ele>
        <time>2022-03-07T11:03:54.530Z</time>
      </trkpt>
      <trkpt lat="42.35433" lon="24.3243">
        <ele>348.40784</ele>
        <time>2022-03-07T11:03:58.515Z</time>
      </trkpt>
      <trkpt lat="42.35439" lon="24.3242">
        <ele>348.671088</ele>
        <time>2022-03-07T11:04:02.528Z</time>
      </trkpt>
      <trkpt lat="42.35444" lon="24.32409">
        <ele>348.955635</ele>
        <time>2022-03-07T11:04:07.519Z</time>
      </trkpt>
      <trkpt lat="42.3545" lon="24.324">
        <ele>349.216892</ele>
        <time>2022-03-07T11:04:12.552Z</time>
      </trkpt>
      <trkpt lat="42.35456" lon="24.32389">
        <ele>349.506183</ele>
        <time>2022-03-07T11:04:17.537Z</time>
      </trkpt>
      <trkpt lat="42.35462" lon="24.32377">
        <ele>349.809953</ele>
        <time>2022-03-07T11:04:22.518Z</time>
      </trkpt>
      <trkpt lat="42.35466" lon="24.32365">
        <ele>350.103282</ele>
        <time>2022-03-07T11:04:27.542Z</time>
      </trkpt>
      <trkpt lat="42.35471" lon="24.32354">
        <ele>350.390967</ele>
        <time>2022-03-07T11:04:32.531Z</time>
      </trkpt>
      <trkpt lat="42.35478" lon="24.32343">
        <ele>350.692452</ele>
        <time>2022-03-07T11:04:37.551Z</time>
      </trkpt>
      <trkpt lat="42.35484" lon="24.32331">
        <ele>350.997766</ele>
        <time>2022-03-07T11:04:42.528Z</time>
      </trkpt>
      <trkpt lat="42.35489" lon="24.32319">
        <ele>351.297887</ele>
        <time>2022-03-07T11:04:47.530Z</time>
      </trkpt>
      <trkpt lat="42.35496" lon="24.32309">
        <ele>351.596321</ele>
        <time>2022-03-07T11:04:52.523Z</time>
      </trkpt>
      <trkpt lat="42.35501" lon="24.32298">
        <ele>351.873618</ele>
        <time>2022-03-07T11:04:57.531Z</time>
      </trkpt>
      <trkpt lat="42.35506" lon="24.32286">
        <ele>352.163647</ele>
        <time>2022-03-07T11:05:02.579Z</time>
      </trkpt>
      <trkpt lat="42.35512" lon="24.32276">
        <ele>352.44915</ele>
        <time>2022-03-07T11:05:07.529Z</time>
      </trkpt>
      <trkpt lat="42.35518" lon="24.32266">
        <ele>352.717572</ele>
        <time>2022-03-07T11:05:12.533Z</time>
      </trkpt>
      <trkpt lat="42.35524" lon="24.32257">
        <ele>352.985424</ele>
        <time>2022-03-07T11:05:17.525Z</time>
      </trkpt>
      <trkpt lat="42.3553" lon="24.32245">
        <ele>353.292763</ele>
        <time>2022-03-07T11:05:22.530Z</time>
      </trkpt>
      <trkpt lat="42.35536" lon="24.32232">
        <ele>353.509009</ele>
        <time>2022-03-07T11:05:26.535Z</time>
      </trkpt>
      <trkpt lat="42.35542" lon="24.3222">
        <ele>353.719198</ele>
        <time>2022-03-07T11:05:30.535Z</time>
      </trkpt>
      <trkpt lat="42.35548" lon="24.32209">
        <ele>353.914244</ele>
        <time>2022-03-07T11:05:34.539Z</time>
      </trkpt>
      <trkpt lat="42.35554" lon="24.32198">
        <ele>354.10583</ele>
        <time>2022-03-07T11:05:38.518Z</time>
      </trkpt>
      <trkpt lat="42.35559" lon="24.32188">
        <ele>354.284811</ele>
        <time>2022-03-07T11:05:42.540Z</time>
      </trkpt>
      <trkpt lat="42.35565" lon="24.32176">
        <ele>354.496181</ele>
        <time>2022-03-07T11:05:47.531Z</time>
      </trkpt>
      <trkpt lat="42.35571" lon="24.32165">
        <ele>354.697029</ele>
        <time>2022-03-07T11:05:51.527Z</time>
      </trkpt>
      <trkpt lat="42.35578" lon="24.32152">
        <ele>354.926902</ele>
        <time>2022-03-07T11:05:55.537Z</time>
      </trkpt>
      <trkpt lat="42.35585" lon="24.3214">
        <ele>355.148734</ele>
        <time>2022-03-07T11:05:59.532Z</time>
      </trkpt>
      <trkpt lat="42.35591" lon="24.32129">
        <ele>355.34736</ele>
        <time>2022-03-07T11:06:03.577Z</time>
      </trkpt>
      <trkpt lat="42.35597" lon="24.32119">
        <ele>355.534432</ele>
        <time>2022-03-07T11:06:07.530Z</time>
      </trkpt>
      <trkpt lat="42.35602" lon="24.32108">
        <ele>355.719631</ele>
        <time>2022-03-07T11:06:11.525Z</time>
      </trkpt>
      <trkpt lat="42.35609" lon="24.32096">
        <ele>355.934448</ele>
        <time>2022-03-07T11:06:16.549Z</time>
      </trkpt>
      <trkpt lat="42.35615" lon="24.32086">
        <ele>356.117904</ele>
        <time>2022-03-07T11:06:20.555Z</time>
      </trkpt>
      <trkpt lat="42.35621" lon="24.32077">
        <ele>356.294197</ele>
        <time>2022-03-07T11:06:25.544Z</time>
      </trkpt>
      <trkpt lat="42.35627" lon="24.32065">
        <ele>356.517111</ele>
        <time>2022-03-07T11:06:30.528Z</time>
      </trkpt>
      <trkpt lat="42.35634" lon="24.32053">
        <ele>356.72609</ele>
        <time>2022-03-07T11:06:34.518Z</time>
      </trkpt>
      <trkpt lat="42.3564" lon="24.32041">
        <ele>356.974006</ele>
        <time>2022-03-07T11:06:38.543Z</time>
      </trkpt>
      <trkpt lat="42.35646" lon="24.3203">
        <ele>357.21282</ele>
        <time>2022-03-07T11:06:42.570Z</time>
      </trkpt>
      <trkpt lat="42.35652" lon="24.32018">
        <ele>357.464509</ele>
        <time>2022-03-07T11:06:46.535Z</time>
      </trkpt>
      <trkpt lat="42.35659" lon="24.32007">
        <ele>357.717376</ele>
        <time>2022-03-07T11:06:50.526Z</time>
      </trkpt>
      <trkpt lat="42.35665" lon="24.31996">
        <ele>357.956123</ele>
        <time>2022-03-07T11:06:54.531Z</time>
      </trkpt>
      <trkpt lat="42.35671" lon="24.31984">
        <ele>358.208965</ele>
        <time>2022-03-07T11:06:58.548Z</time>
      </trkpt>
      <trkpt lat="42.35677" lon="24.31974">
        <ele>358.437805</ele>
        <time>2022-03-07T11:07:02.533Z</time>
      </trkpt>
      <trkpt lat="42.35683" lon="24.31963">
        <ele>358.672388</ele>
        <time>2022-03-07T11:07:06.533Z</time>
      </trkpt>
      <trkpt lat="42.35689" lon="24.31952">
        <ele>358.92105</ele>
        <time>2022-03-07T11:07:10.528Z</time>
      </trkpt>
      <trkpt lat="42.35695" lon="24.31942">
        <ele>359.152724</ele>
        <time>2022-03-07T11:07:14.516Z</time>
      </trkpt>
      <trkpt lat="42.357" lon="24.3193">
        <ele>359.388019</ele>
        <time>2022-03-07T11:07:18.546Z</time>
      </trkpt>
      <trkpt lat="42.35705" lon="24.31919">
        <ele>359.610006</ele>
        <time>2022-03-07T11:07:22.540Z</time>
      </trkpt>
      <trkpt lat="42.35711" lon="24.31909">
        <ele>359.836013</ele>
        <time>2022-03-07T11:07:26.573Z</time>
      </trkpt>
      <trkpt lat="42.35717" lon="24.31897">
        <ele>360.098788</ele>
        <time>2022-03-07T11:07:31.562Z</time>
      </trkpt>
      <trkpt lat="42.35722" lon="24.31886">
        <ele>360.323894</ele>
        <time>2022-03-07T11:07:35.541Z</time>
      </trkpt>
      <trkpt lat="42.35728" lon="24.31875">
        <ele>360.565437</ele>
        <time>2022-03-07T11:07:40.533Z</time>
      </trkpt>
      <trkpt lat="42.35735" lon="24.31863">
        <ele>360.825338</ele>
        <time>2022-03-07T11:07:46.541Z</time>
      </trkpt>
      <trkpt lat="42.3574" lon="24.31852">
        <ele>361.054362</ele>
        <time>2022-03-07T11:07:50.532Z</time>
      </trkpt>
      <trkpt lat="42.35746" lon="24.31841">
        <ele>361.322778</ele>
        <time>2022-03-07T11:07:54.539Z</time>
      </trkpt>
      <trkpt lat="42.35751" lon="24.3183">
        <ele>361.585879</ele>
        <time>2022-03-07T11:07:58.540Z</time>
      </trkpt>
      <trkpt lat="42.35755" lon="24.31817">
        <ele>361.863103</ele>
        <time>2022-03-07T11:08:03.524Z</time>
      </trkpt>
      <trkpt lat="42.35761" lon="24.31805">
        <ele>362.133282</ele>
        <time>2022-03-07T11:08:08.544Z</time>
      </trkpt>
      <trkpt lat="42.35765" lon="24.31793">
        <ele>362.398882</ele>
        <time>2022-03-07T11:08:13.538Z</time>
      </trkpt>
      <trkpt lat="42.35769" lon="24.31782">
        <ele>362.645914</ele>
        <time>2022-03-07T11:08:18.542Z</time>
      </trkpt>
      <trkpt lat="42.35771" lon="24.3177">
        <ele>362.894626</ele>
        <time>2022-03-07T11:08:23.537Z</time>
      </trkpt>
      <trkpt lat="42.35775" lon="24.31756">
        <ele>363.182913</ele>
        <time>2022-03-07T11:08:28.531Z</time>
      </trkpt>
      <trkpt lat="42.35779" lon="24.31743">
        <ele>363.450054</ele>
        <time>2022-03-07T11:08:33.533Z</time>
      </trkpt>
      <trkpt lat="42.35782" lon="24.31729">
        <ele>363.74111</ele>
        <time>2022-03-07T11:08:38.570Z</time>
      </trkpt>
      <trkpt lat="42.35784" lon="24.31717">
        <ele>363.98258</ele>
        <time>2022-03-07T11:08:42.530Z</time>
      </trkpt>
      <trkpt lat="42.35787" lon="24.31705">
        <ele>364.240456</ele>
        <time>2022-03-07T11:08:46.534Z</time>
      </trkpt>
      <trkpt lat="42.3579" lon="24.31693">
        <ele>364.484252</ele>
        <time>2022-03-07T11:08:50.532Z</time>
      </trkpt>
      <trkpt lat="42.35793" lon="24.31682">
        <ele>364.726864</ele>
        <time>2022-03-07T11:08:54.526Z</time>
      </trkpt>
      <trkpt lat="42.35795" lon="24.31668">
        <ele>364.999527</ele>
        <time>2022-03-07T11:08:58.521Z</time>
      </trkpt>
      <trkpt lat="42.35799" lon="24.31655">
        <ele>365.278551</ele>
        <time>2022-03-07T11:09:02.535Z</time>
      </trkpt>
      <trkpt lat="42.358" lon="24.31641">
        <ele>365.546825</ele>
        <time>2022-03-07T11:09:06.534Z</time>
      </trkpt>
      <trkpt lat="42.35804" lon="24.31629">
        <ele>365.824364</ele>
        <time>2022-03-07T11:09:10.525Z</time>
      </trkpt>
      <trkpt lat="42.35809" lon="24.31616">
        <ele>365.857983</ele>
        <time>2022-03-07T11:09:14.524Z</time>
      </trkpt>
      <trkpt lat="42.35813" lon="24.31602">
        <ele>365.829601</ele>
        <time>2022-03-07T11:09:18.528Z</time>
      </trkpt>
      <trkpt lat="42.35816" lon="24.31587">
        <ele>365.798978</ele>
        <time>2022-03-07T11:09:22.567Z</time>
      </trkpt>
      <trkpt lat="42.35819" lon="24.31572">
        <ele>365.769163</ele>
        <time>2022-03-07T11:09:26.538Z</time>
      </trkpt>
      <trkpt lat="42.35822" lon="24.3156">
        <ele>365.745497</ele>
        <time>2022-03-07T11:09:29.544Z</time>
      </trkpt>
      <trkpt lat="42.35823" lon="24.31547">
        <ele>365.721576</ele>
        <time>2022-03-07T11:09:32.528Z</time>
      </trkpt>
      <trkpt lat="42.35826" lon="24.31532">
        <ele>365.691642</ele>
        <time>2022-03-07T11:09:36.534Z</time>
      </trkpt>
      <trkpt lat="42.35829" lon="24.3152">
        <ele>365.667548</ele>
        <time>2022-03-07T11:09:39.523Z</time>
      </trkpt>
      <trkpt lat="42.35831" lon="24.31508">
        <ele>365.642888</ele>
        <time>2022-03-07T11:09:42.570Z</time>
      </trkpt>
      <trkpt lat="42.35834" lon="24.31496">
        <ele>365.618561</ele>
        <time>2022-03-07T11:09:45.526Z</time>
      </trkpt>
      <trkpt lat="42.35836" lon="24.31484">
        <ele>365.595079</ele>
        <time>2022-03-07T11:09:48.575Z</time>
      </trkpt>
      <trkpt lat="42.35839" lon="24.31472">
        <ele>365.571598</ele>
        <time>2022-03-07T11:09:51.538Z</time>
      </trkpt>
      <trkpt lat="42.35842" lon="24.31456">
        <ele>365.540536</ele>
        <time>2022-03-07T11:09:55.566Z</time>
      </trkpt>
      <trkpt lat="42.35845" lon="24.31445">
        <ele>365.516859</ele>
        <time>2022-03-07T11:09:58.521Z</time>
      </trkpt>
      <trkpt lat="42.35848" lon="24.31433">
        <ele>365.49219</ele>
        <time>2022-03-07T11:10:01.543Z</time>
      </trkpt>
      <trkpt lat="42.35851" lon="24.3142">
        <ele>365.46768</ele>
        <time>2022-03-07T11:10:04.536Z</time>
      </trkpt>
      <trkpt lat="42.35853" lon="24.31408">
        <ele>365.443773</ele>
        <time>2022-03-07T11:10:07.526Z</time>
      </trkpt>
      <trkpt lat="42.35856" lon="24.31396">
        <ele>365.419812</ele>
        <time>2022-03-07T11:10:10.530Z</time>
      </trkpt>
      <trkpt lat="42.35859" lon="24.31383">
        <ele>365.64626</ele>
        <time>2022-03-07T11:10:13.538Z</time>
      </trkpt>
      <trkpt lat="42.35863" lon="24.31371">
        <ele>365.944267</ele>
        <time>2022-03-07T11:10:16.530Z</time>
      </trkpt>
      <trkpt lat="42.35865" lon="24.31357">
        <ele>366.246498</ele>
        <time>2022-03-07T11:10:19.536Z</time>
      </trkpt>
      <trkpt lat="42.35868" lon="24.31345">
        <ele>366.520204</ele>
        <time>2022-03-07T11:10:22.550Z</time>
      </trkpt>
      <trkpt lat="42.35871" lon="24.3133">
        <ele>366.878777</ele>
        <time>2022-03-07T11:10:26.560Z</time>
      </trkpt>
      <trkpt lat="42.35874" lon="24.31318">
        <ele>367.153774</ele>
        <time>2022-03-07T11:10:29.574Z</time>
      </trkpt>
      <trkpt lat="42.35878" lon="24.31307">
        <ele>367.433712</ele>
        <time>2022-03-07T11:10:32.538Z</time>
      </trkpt>
      <trkpt lat="42.35881" lon="24.31294">
        <ele>367.730336</ele>
        <time>2022-03-07T11:10:35.519Z</time>
      </trkpt>
      <trkpt lat="42.35884" lon="24.31282">
        <ele>368.011578</ele>
        <time>2022-03-07T11:10:38.535Z</time>
      </trkpt>
      <trkpt lat="42.35888" lon="24.31271">
        <ele>368.282999</ele>
        <time>2022-03-07T11:10:41.539Z</time>
      </trkpt>
      <trkpt lat="42.35892" lon="24.31257">
        <ele>368.612669</ele>
        <time>2022-03-07T11:10:45.551Z</time>
      </trkpt>
      <trkpt lat="42.35897" lon="24.31244">
        <ele>368.942211</ele>
        <time>2022-03-07T11:10:49.543Z</time>
      </trkpt>
      <trkpt lat="42.35902" lon="24.31233">
        <ele>369.216755</ele>
        <time>2022-03-07T11:10:52.547Z</time>
      </trkpt>
      <trkpt lat="42.35905" lon="24.3122">
        <ele>369.51769</ele>
        <time>2022-03-07T11:10:55.516Z</time>
      </trkpt>
      <trkpt lat="42.35909" lon="24.31209">
        <ele>369.790257</ele>
        <time>2022-03-07T11:10:58.527Z</time>
      </trkpt>
      <trkpt lat="42.35915" lon="24.31195">
        <ele>370.141608</ele>
        <time>2022-03-07T11:11:02.542Z</time>
      </trkpt>
      <trkpt lat="42.35919" lon="24.31184">
        <ele>370.428487</ele>
        <time>2022-03-07T11:11:05.532Z</time>
      </trkpt>
      <trkpt lat="42.35924" lon="24.31172">
        <ele>370.718337</ele>
        <time>2022-03-07T11:11:08.535Z</time>
      </trkpt>
      <trkpt lat="42.35929" lon="24.31158">
        <ele>371.555058</ele>
        <time>2022-03-07T11:11:12.537Z</time>
      </trkpt>
      <trkpt lat="42.35935" lon="24.31146">
        <ele>372.437737</ele>
        <time>2022-03-07T11:11:16.534Z</time>
      </trkpt>
      <trkpt lat="42.35939" lon="24.31132">
        <ele>373.391337</ele>
        <time>2022-03-07T11:11:20.555Z</time>
      </trkpt>
      <trkpt lat="42.35944" lon="24.31118">
        <ele>374.363022</ele>
        <time>2022-03-07T11:11:24.520Z</time>
      </trkpt>
      <trkpt lat="42.35949" lon="24.31106">
        <ele>375.259843</ele>
        <time>2022-03-07T11:11:28.540Z</time>
      </trkpt>
      <trkpt lat="42.35954" lon="24.31094">
        <ele>376.074788</ele>
        <time>2022-03-07T11:11:32.564Z</time>
      </trkpt>
      <trkpt lat="42.35959" lon="24.31083">
        <ele>376.878984</ele>
        <time>2022-03-07T11:11:36.541Z</time>
      </trkpt>
      <trkpt lat="42.35963" lon="24.31073">
        <ele>377.654062</ele>
        <time>2022-03-07T11:11:40.516Z</time>
      </trkpt>
      <trkpt lat="42.35968" lon="24.31062">
        <ele>378.433227</ele>
        <time>2022-03-07T11:11:44.519Z</time>
      </trkpt>
      <trkpt lat="42.35973" lon="24.3105">
        <ele>379.26762</ele>
        <time>2022-03-07T11:11:49.578Z</time>
      </trkpt>
      <trkpt lat="42.35977" lon="24.31035">
        <ele>380.274861</ele>
        <time>2022-03-07T11:11:54.567Z</time>
      </trkpt>
      <trkpt lat="42.35976" lon="24.31021">
        <ele>381.164953</ele>
        <time>2022-03-07T11:11:57.538Z</time>
      </trkpt>
      <trkpt lat="42.35978" lon="24.31008">
        <ele>381.98258</ele>
        <time>2022-03-07T11:12:01.558Z</time>
      </trkpt>
      <trkpt lat="42.35981" lon="24.30995">
        <ele>382.816021</ele>
        <time>2022-03-07T11:12:05.572Z</time>
      </trkpt>
      <trkpt lat="42.35986" lon="24.30985">
        <ele>383.587632</ele>
        <time>2022-03-07T11:12:09.538Z</time>
      </trkpt>
      <trkpt lat="42.35991" lon="24.30975">
        <ele>384.373487</ele>
        <time>2022-03-07T11:12:13.528Z</time>
      </trkpt>
      <trkpt lat="42.35996" lon="24.30963">
        <ele>385.262115</ele>
        <time>2022-03-07T11:12:18.531Z</time>
      </trkpt>
      <trkpt lat="42.36002" lon="24.30951">
        <ele>386.084426</ele>
        <time>2022-03-07T11:12:23.517Z</time>
      </trkpt>
      <trkpt lat="42.36006" lon="24.30939">
        <ele>386.54549</ele>
        <time>2022-03-07T11:12:28.546Z</time>
      </trkpt>
      <trkpt lat="42.36009" lon="24.30926">
        <ele>387.014672</ele>
        <time>2022-03-07T11:12:33.525Z</time>
      </trkpt>
      <trkpt lat="42.36013" lon="24.30914">
        <ele>387.443094</ele>
        <time>2022-03-07T11:12:38.585Z</time>
      </trkpt>
      <trkpt lat="42.36018" lon="24.30901">
        <ele>387.959956</ele>
        <time>2022-03-07T11:12:43.532Z</time>
      </trkpt>
      <trkpt lat="42.36025" lon="24.30891">
        <ele>388.399313</ele>
        <time>2022-03-07T11:12:47.537Z</time>
      </trkpt>
      <trkpt lat="42.3603" lon="24.30881">
        <ele>388.818958</ele>
        <time>2022-03-07T11:12:52.526Z</time>
      </trkpt>
      <trkpt lat="42.36034" lon="24.30868">
        <ele>389.30145</ele>
        <time>2022-03-07T11:12:58.513Z</time>
      </trkpt>
      <trkpt lat="42.36039" lon="24.30857">
        <ele>389.750259</ele>
        <time>2022-03-07T11:13:04.531Z</time>
      </trkpt>
      <trkpt lat="42.36043" lon="24.30845">
        <ele>390.217365</ele>
        <time>2022-03-07T11:13:10.569Z</time>
      </trkpt>
      <trkpt lat="42.36047" lon="24.30833">
        <ele>390.664207</ele>
        <time>2022-03-07T11:13:16.532Z</time>
      </trkpt>
      <trkpt lat="42.36053" lon="24.3082">
        <ele>391.168824</ele>
        <time>2022-03-07T11:13:22.537Z</time>
      </trkpt>
      <trkpt lat="42.36058" lon="24.30807">
        <ele>391.681351</ele>
        <time>2022-03-07T11:13:27.521Z</time>
      </trkpt>
      <trkpt lat="42.36062" lon="24.30795">
        <ele>392.140932</ele>
        <time>2022-03-07T11:13:31.538Z</time>
      </trkpt>
      <trkpt lat="42.36066" lon="24.30782">
        <ele>392.61666</ele>
        <time>2022-03-07T11:13:36.541Z</time>
      </trkpt>
      <trkpt lat="42.36069" lon="24.30768">
        <ele>393.116337</ele>
        <time>2022-03-07T11:13:41.531Z</time>
      </trkpt>
      <trkpt lat="42.36073" lon="24.30755">
        <ele>393.608017</ele>
        <time>2022-03-07T11:13:46.537Z</time>
      </trkpt>
      <trkpt lat="42.36077" lon="24.30743">
        <ele>394.067138</ele>
        <time>2022-03-07T11:13:52.526Z</time>
      </trkpt>
      <trkpt lat="42.36082" lon="24.3073">
        <ele>394.578554</ele>
        <time>2022-03-07T11:13:58.539Z</time>
      </trkpt>
      <trkpt lat="42.36084" lon="24.30717">
        <ele>395.12474</ele>
        <time>2022-03-07T11:14:03.534Z</time>
      </trkpt>
      <trkpt lat="42.36088" lon="24.30704">
        <ele>395.705579</ele>
        <time>2022-03-07T11:14:08.577Z</time>
      </trkpt>
      <trkpt lat="42.36093" lon="24.30691">
        <ele>396.277951</ele>
        <time>2022-03-07T11:14:13.548Z</time>
      </trkpt>
      <trkpt lat="42.36097" lon="24.30678">
        <ele>396.831401</ele>
        <time>2022-03-07T11:14:18.532Z</time>
      </trkpt>
      <trkpt lat="42.361" lon="24.30667">
        <ele>397.322987</ele>
        <time>2022-03-07T11:14:23.539Z</time>
      </trkpt>
      <trkpt lat="42.36105" lon="24.30656">
        <ele>397.846949</ele>
        <time>2022-03-07T11:14:28.528Z</time>
      </trkpt>
      <trkpt lat="42.36109" lon="24.30643">
        <ele>398.413284</ele>
        <time>2022-03-07T11:14:34.534Z</time>
      </trkpt>
      <trkpt lat="42.36113" lon="24.3063">
        <ele>398.980814</ele>
        <time>2022-03-07T11:14:39.528Z</time>
      </trkpt>
      <trkpt lat="42.36115" lon="24.30618">
        <ele>399.486877</ele>
        <time>2022-03-07T11:14:44.547Z</time>
      </trkpt>
      <trkpt lat="42.36122" lon="24.30607">
        <ele>400.071294</ele>
        <time>2022-03-07T11:14:50.527Z</time>
      </trkpt>
      <trkpt lat="42.36128" lon="24.30595">
        <ele>400.648593</ele>
        <time>2022-03-07T11:14:55.530Z</time>
      </trkpt>
      <trkpt lat="42.36131" lon="24.30584">
        <ele>401.151906</ele>
        <time>2022-03-07T11:14:59.534Z</time>
      </trkpt>
      <trkpt lat="42.36133" lon="24.3057">
        <ele>401.694136</ele>
        <time>2022-03-07T11:15:03.530Z</time>
      </trkpt>
      <trkpt lat="42.36136" lon="24.30557">
        <ele>402.269572</ele>
        <time>2022-03-07T11:15:09.535Z</time>
      </trkpt>
      <trkpt lat="42.3614" lon="24.30545">
        <ele>402.809701</ele>
        <time>2022-03-07T11:15:14.527Z</time>
      </trkpt>
      <trkpt lat="42.36146" lon="24.30532">
        <ele>403.382415</ele>
        <time>2022-03-07T11:15:19.570Z</time>
      </trkpt>
      <trkpt lat="42.36149" lon="24.3052">
        <ele>403.934733</ele>
        <time>2022-03-07T11:15:24.538Z</time>
      </trkpt>
      <trkpt lat="42.36153" lon="24.30507">
        <ele>404.336186</ele>
        <time>2022-03-07T11:15:28.536Z</time>
      </trkpt>
      <trkpt lat="42.36157" lon="24.30496">
        <ele>404.562495</ele>
        <time>2022-03-07T11:15:32.534Z</time>
      </trkpt>
      <trkpt lat="42.3616" lon="24.30483">
        <ele>404.815637</ele>
        <time>2022-03-07T11:15:37.539Z</time>
      </trkpt>
      <trkpt lat="42.36164" lon="24.30471">
        <ele>405.043922</ele>
        <time>2022-03-07T11:15:41.527Z</time>
      </trkpt>
      <trkpt lat="42.36167" lon="24.30459">
        <ele>405.280003</ele>
        <time>2022-03-07T11:15:46.536Z</time>
      </trkpt>
      <trkpt lat="42.36173" lon="24.30449">
        <ele>405.518973</ele>
        <time>2022-03-07T11:15:51.528Z</time>
      </trkpt>
      <trkpt lat="42.36178" lon="24.30436">
        <ele>405.781282</ele>
        <time>2022-03-07T11:15:57.543Z</time>
      </trkpt>
      <trkpt lat="42.36181" lon="24.30425">
        <ele>406.008758</ele>
        <time>2022-03-07T11:16:02.539Z</time>
      </trkpt>
      <trkpt lat="42.36185" lon="24.30413">
        <ele>406.238389</ele>
        <time>2022-03-07T11:16:06.541Z</time>
      </trkpt>
      <trkpt lat="42.36188" lon="24.30401">
        <ele>406.470937</ele>
        <time>2022-03-07T11:16:10.536Z</time>
      </trkpt>
      <trkpt lat="42.36192" lon="24.30387">
        <ele>406.735111</ele>
        <time>2022-03-07T11:16:15.520Z</time>
      </trkpt>
      <trkpt lat="42.36195" lon="24.30374">
        <ele>406.984113</ele>
        <time>2022-03-07T11:16:20.535Z</time>
      </trkpt>
      <trkpt lat="42.362" lon="24.30362">
        <ele>407.246421</ele>
        <time>2022-03-07T11:16:25.527Z</time>
      </trkpt>
      <trkpt lat="42.36204" lon="24.30349">
        <ele>407.502953</ele>
        <time>2022-03-07T11:16:30.565Z</time>
      </trkpt>
      <trkpt lat="42.36208" lon="24.30337">
        <ele>407.737888</ele>
        <time>2022-03-07T11:16:35.537Z</time>
      </trkpt>
      <trkpt lat="42.36214" lon="24.30326">
        <ele>407.985649</ele>
        <time>2022-03-07T11:16:40.536Z</time>
      </trkpt>
      <trkpt lat="42.36218" lon="24.30312">
        <ele>408.25851</ele>
        <time>2022-03-07T11:16:45.530Z</time>
      </trkpt>
      <trkpt lat="42.36221" lon="24.303">
        <ele>408.483361</ele>
        <time>2022-03-07T11:16:49.536Z</time>
      </trkpt>
      <trkpt lat="42.36225" lon="24.30288">
        <ele>408.639124</ele>
        <time>2022-03-07T11:16:54.523Z</time>
      </trkpt>
      <trkpt lat="42.36229" lon="24.30275">
        <ele>408.537553</ele>
        <time>2022-03-07T11:16:59.534Z</time>
      </trkpt>
      <trkpt lat="42.36232" lon="24.30264">
        <ele>408.448421</ele>
        <time>2022-03-07T11:17:04.538Z</time>
      </trkpt>
      <trkpt lat="42.36236" lon="24.30251">
        <ele>408.343476</ele>
        <time>2022-03-07T11:17:10.541Z</time>
      </trkpt>
      <trkpt lat="42.36239" lon="24.30239">
        <ele>408.251949</ele>
        <time>2022-03-07T11:17:15.538Z</time>
      </trkpt>
      <trkpt lat="42.36244" lon="24.30227">
        <ele>408.154697</ele>
        <time>2022-03-07T11:17:20.563Z</time>
      </trkpt>
      <trkpt lat="42.36247" lon="24.30213">
        <ele>408.045499</ele>
        <time>2022-03-07T11:17:25.512Z</time>
      </trkpt>
      <trkpt lat="42.36251" lon="24.302">
        <ele>407.945659</ele>
        <time>2022-03-07T11:17:30.544Z</time>
      </trkpt>
      <trkpt lat="42.36255" lon="24.30188">
        <ele>407.844467</ele>
        <time>2022-03-07T11:17:36.530Z</time>
      </trkpt>
      <trkpt lat="42.36259" lon="24.30175">
        <ele>407.746921</ele>
        <time>2022-03-07T11:17:41.529Z</time>
      </trkpt>
      <trkpt lat="42.36262" lon="24.30162">
        <ele>407.642589</ele>
        <time>2022-03-07T11:17:46.522Z</time>
      </trkpt>
      <trkpt lat="42.36266" lon="24.30149">
        <ele>407.539651</ele>
        <time>2022-03-07T11:17:51.539Z</time>
      </trkpt>
      <trkpt lat="42.3627" lon="24.30135">
        <ele>407.430987</ele>
        <time>2022-03-07T11:17:56.542Z</time>
      </trkpt>
      <trkpt lat="42.36275" lon="24.30122">
        <ele>407.32739</ele>
        <time>2022-03-07T11:18:01.534Z</time>
      </trkpt>
      <trkpt lat="42.36278" lon="24.30109">
        <ele>407.22214</ele>
        <time>2022-03-07T11:18:06.537Z</time>
      </trkpt>
      <trkpt lat="42.36282" lon="24.30097">
        <ele>407.133266</ele>
        <time>2022-03-07T11:18:10.539Z</time>
      </trkpt>
      <trkpt lat="42.36285" lon="24.30085">
        <ele>407.035893</ele>
        <time>2022-03-07T11:18:15.534Z</time>
      </trkpt>
      <trkpt lat="42.36289" lon="24.30072">
        <ele>406.932956</ele>
        <time>2022-03-07T11:18:20.540Z</time>
      </trkpt>
      <trkpt lat="42.36293" lon="24.30061">
        <ele>406.850582</ele>
        <time>2022-03-07T11:18:24.538Z</time>
      </trkpt>
      <trkpt lat="42.36297" lon="24.30048">
        <ele>406.765189</ele>
        <time>2022-03-07T11:18:29.527Z</time>
      </trkpt>
      <trkpt lat="42.363" lon="24.30036">
        <ele>406.689277</ele>
        <time>2022-03-07T11:18:34.560Z</time>
      </trkpt>
      <trkpt lat="42.36303" lon="24.30023">
        <ele>406.607628</ele>
        <time>2022-03-07T11:18:39.525Z</time>
      </trkpt>
      <trkpt lat="42.36306" lon="24.30009">
        <ele>406.519264</ele>
        <time>2022-03-07T11:18:44.574Z</time>
      </trkpt>
      <trkpt lat="42.3631" lon="24.29995">
        <ele>406.430182</ele>
        <time>2022-03-07T11:18:49.521Z</time>
      </trkpt>
      <trkpt lat="42.36315" lon="24.29982">
        <ele>406.340428</ele>
        <time>2022-03-07T11:18:54.535Z</time>
      </trkpt>
      <trkpt lat="42.36319" lon="24.29969">
        <ele>406.255195</ele>
        <time>2022-03-07T11:18:59.532Z</time>
      </trkpt>
      <trkpt lat="42.36323" lon="24.29957">
        <ele>406.176815</ele>
        <time>2022-03-07T11:19:04.537Z</time>
      </trkpt>
      <trkpt lat="42.36327" lon="24.29945">
        <ele>406.098086</ele>
        <time>2022-03-07T11:19:09.538Z</time>
      </trkpt>
      <trkpt lat="42.36331" lon="24.29933">
        <ele>406.016952</ele>
        <time>2022-03-07T11:19:14.548Z</time>
      </trkpt>
      <trkpt lat="42.36335" lon="24.29919">
        <ele>405.929628</ele>
        <time>2022-03-07T11:19:20.521Z</time>
      </trkpt>
      <trkpt lat="42.36339" lon="24.29908">
        <ele>405.850357</ele>
        <time>2022-03-07T11:19:25.524Z</time>
      </trkpt>
      <trkpt lat="42.36343" lon="24.29896">
        <ele>405.773267</ele>
        <time>2022-03-07T11:19:30.543Z</time>
      </trkpt>
      <trkpt lat="42.36347" lon="24.29884">
        <ele>405.6965</ele>
        <time>2022-03-07T11:19:35.526Z</time>
      </trkpt>
      <trkpt lat="42.3635" lon="24.29872">
        <ele>405.616924</ele>
        <time>2022-03-07T11:19:40.535Z</time>
      </trkpt>
      <trkpt lat="42.36354" lon="24.29859">
        <ele>405.529829</ele>
        <time>2022-03-07T11:19:46.538Z</time>
      </trkpt>
      <trkpt lat="42.36359" lon="24.29846">
        <ele>405.442795</ele>
        <time>2022-03-07T11:19:52.542Z</time>
      </trkpt>
      <trkpt lat="42.36363" lon="24.29833">
        <ele>405.79992</ele>
        <time>2022-03-07T11:19:58.535Z</time>
      </trkpt>
      <trkpt lat="42.36367" lon="24.29821">
        <ele>406.355136</ele>
        <time>2022-03-07T11:20:04.539Z</time>
      </trkpt>
      <trkpt lat="42.36371" lon="24.29809">
        <ele>406.909341</ele>
        <time>2022-03-07T11:20:10.515Z</time>
      </trkpt>
      <trkpt lat="42.36375" lon="24.29796">
        <ele>407.477219</ele>
        <time>2022-03-07T11:20:16.519Z</time>
      </trkpt>
      <trkpt lat="42.36378" lon="24.29784">
        <ele>408.006149</ele>
        <time>2022-03-07T11:20:22.533Z</time>
      </trkpt>
      <trkpt lat="42.36383" lon="24.29773">
        <ele>408.551957</ele>
        <time>2022-03-07T11:20:28.528Z</time>
      </trkpt>
      <trkpt lat="42.36386" lon="24.2976">
        <ele>409.125898</ele>
        <time>2022-03-07T11:20:34.533Z</time>
      </trkpt>
      <trkpt lat="42.3639" lon="24.29748">
        <ele>409.661348</ele>
        <time>2022-03-07T11:20:40.574Z</time>
      </trkpt>
      <trkpt lat="42.36392" lon="24.29735">
        <ele>410.210524</ele>
        <time>2022-03-07T11:20:46.580Z</time>
      </trkpt>
      <trkpt lat="42.36394" lon="24.29722">
        <ele>410.783272</ele>
        <time>2022-03-07T11:20:52.530Z</time>
      </trkpt>
      <trkpt lat="42.36396" lon="24.29709">
        <ele>411.311454</ele>
        <time>2022-03-07T11:20:58.541Z</time>
      </trkpt>
      <trkpt lat="42.36398" lon="24.29696">
        <ele>411.867885</ele>
        <time>2022-03-07T11:21:04.527Z</time>
      </trkpt>
      <trkpt lat="42.36398" lon="24.29682">
        <ele>412.443286</ele>
        <time>2022-03-07T11:21:11.532Z</time>
      </trkpt>
      <trkpt lat="42.36398" lon="24.2967">
        <ele>412.972059</ele>
        <time>2022-03-07T11:21:17.537Z</time>
      </trkpt>
      <trkpt lat="42.36398" lon="24.29657">
        <ele>413.492519</ele>
        <time>2022-03-07T11:21:23.536Z</time>
      </trkpt>
      <trkpt lat="42.36397" lon="24.29645">
        <ele>414.015531</ele>
        <time>2022-03-07T11:21:29.533Z</time>
      </trkpt>
      <trkpt lat="42.36396" lon="24.29633">
        <ele>414.524158</ele>
        <time>2022-03-07T11:21:35.538Z</time>
      </trkpt>
      <trkpt lat="42.36394" lon="24.2962">
        <ele>415.043992</ele>
        <time>2022-03-07T11:21:41.549Z</time>
      </trkpt>
      <trkpt lat="42.36393" lon="24.29607">
        <ele>415.604079</ele>
        <time>2022-03-07T11:21:47.518Z</time>
      </trkpt>
      <trkpt lat="42.3639" lon="24.29595">
        <ele>416.196662</ele>
        <time>2022-03-07T11:21:53.518Z</time>
      </trkpt>
      <trkpt lat="42.36387" lon="24.29582">
        <ele>416.806378</ele>
        <time>2022-03-07T11:21:59.547Z</time>
      </trkpt>
      <trkpt lat="42.36385" lon="24.2957">
        <ele>417.364088</ele>
        <time>2022-03-07T11:22:05.587Z</time>
      </trkpt>
      <trkpt lat="42.36383" lon="24.29557">
        <ele>417.988812</ele>
        <time>2022-03-07T11:22:12.517Z</time>
      </trkpt>
      <trkpt lat="42.36381" lon="24.29543">
        <ele>418.634729</ele>
        <time>2022-03-07T11:22:19.566Z</time>
      </trkpt>
      <trkpt lat="42.36378" lon="24.2953">
        <ele>419.244624</ele>
        <time>2022-03-07T11:22:25.530Z</time>
      </trkpt>
      <trkpt lat="42.36376" lon="24.29518">
        <ele>419.808566</ele>
        <time>2022-03-07T11:22:31.543Z</time>
      </trkpt>
      <trkpt lat="42.36373" lon="24.29507">
        <ele>420.361475</ele>
        <time>2022-03-07T11:22:37.544Z</time>
      </trkpt>
      <trkpt lat="42.3637" lon="24.29493">
        <ele>421.002735</ele>
        <time>2022-03-07T11:22:44.541Z</time>
      </trkpt>
      <trkpt lat="42.36367" lon="24.29481">
        <ele>421.604146</ele>
        <time>2022-03-07T11:22:50.522Z</time>
      </trkpt>
      <trkpt lat="42.36364" lon="24.29468">
        <ele>422.227908</ele>
        <time>2022-03-07T11:22:56.532Z</time>
      </trkpt>
      <trkpt lat="42.36362" lon="24.29455">
        <ele>422.814469</ele>
        <time>2022-03-07T11:23:02.540Z</time>
      </trkpt>
      <trkpt lat="42.3636" lon="24.29443">
        <ele>423.400738</ele>
        <time>2022-03-07T11:23:08.569Z</time>
      </trkpt>
      <trkpt lat="42.36358" lon="24.2943">
        <ele>423.989826</ele>
        <time>2022-03-07T11:23:14.559Z</time>
      </trkpt>
      <trkpt lat="42.36355" lon="24.29417">
        <ele>424.601014</ele>
        <time>2022-03-07T11:23:20.565Z</time>
      </trkpt>
      <trkpt lat="42.36354" lon="24.29403">
        <ele>425.249929</ele>
        <time>2022-03-07T11:23:26.590Z</time>
      </trkpt>
      <trkpt lat="42.36353" lon="24.29389">
        <ele>425.896018</ele>
        <time>2022-03-07T11:23:32.530Z</time>
      </trkpt>
      <trkpt lat="42.36353" lon="24.29377">
        <ele>426.44879</ele>
        <time>2022-03-07T11:23:37.558Z</time>
      </trkpt>
      <trkpt lat="42.36354" lon="24.29364">
        <ele>426.926182</ele>
        <time>2022-03-07T11:23:42.557Z</time>
      </trkpt>
      <trkpt lat="42.36355" lon="24.29351">
        <ele>427.352386</ele>
        <time>2022-03-07T11:23:47.531Z</time>
      </trkpt>
      <trkpt lat="42.36359" lon="24.29338">
        <ele>427.790149</ele>
        <time>2022-03-07T11:23:52.518Z</time>
      </trkpt>
      <trkpt lat="42.36362" lon="24.29325">
        <ele>428.232216</ele>
        <time>2022-03-07T11:23:57.574Z</time>
      </trkpt>
      <trkpt lat="42.36366" lon="24.29311">
        <ele>428.687904</ele>
        <time>2022-03-07T11:24:02.523Z</time>
      </trkpt>
      <trkpt lat="42.36369" lon="24.29298">
        <ele>429.122352</ele>
        <time>2022-03-07T11:24:07.537Z</time>
      </trkpt>
      <trkpt lat="42.36371" lon="24.29286">
        <ele>429.538277</ele>
        <time>2022-03-07T11:24:12.596Z</time>
      </trkpt>
      <trkpt lat="42.36374" lon="24.29274">
        <ele>429.950326</ele>
        <time>2022-03-07T11:24:17.556Z</time>
      </trkpt>
      <trkpt lat="42.36378" lon="24.29261">
        <ele>430.369678</ele>
        <time>2022-03-07T11:24:22.538Z</time>
      </trkpt>
      <trkpt lat="42.36381" lon="24.29249">
        <ele>430.802838</ele>
        <time>2022-03-07T11:24:27.545Z</time>
      </trkpt>
      <trkpt lat="42.36384" lon="24.29237">
        <ele>431.210964</ele>
        <time>2022-03-07T11:24:32.529Z</time>
      </trkpt>
      <trkpt lat="42.36386" lon="24.29224">
        <ele>431.619635</ele>
        <time>2022-03-07T11:24:37.519Z</time>
      </trkpt>
      <trkpt lat="42.36389" lon="24.29212">
        <ele>432.028644</ele>
        <time>2022-03-07T11:24:42.546Z</time>
      </trkpt>
      <trkpt lat="42.36392" lon="24.29201">
        <ele>432.419715</ele>
        <time>2022-03-07T11:24:47.542Z</time>
      </trkpt>
      <trkpt lat="42.36395" lon="24.29187">
        <ele>432.866635</ele>
        <time>2022-03-07T11:24:53.544Z</time>
      </trkpt>
      <trkpt lat="42.36398" lon="24.29175">
        <ele>433.273538</ele>
        <time>2022-03-07T11:24:59.533Z</time>
      </trkpt>
      <trkpt lat="42.36401" lon="24.29163">
        <ele>433.693042</ele>
        <time>2022-03-07T11:25:05.538Z</time>
      </trkpt>
      <trkpt lat="42.36404" lon="24.29149">
        <ele>434.136221</ele>
        <time>2022-03-07T11:25:12.544Z</time>
      </trkpt>
      <trkpt lat="42.36407" lon="24.29136">
        <ele>434.639496</ele>
        <time>2022-03-07T11:25:19.539Z</time>
      </trkpt>
      <trkpt lat="42.3641" lon="24.29123">
        <ele>435.205365</ele>
        <time>2022-03-07T11:25:25.546Z</time>
      </trkpt>
      <trkpt lat="42.36413" lon="24.29111">
        <ele>435.7824</ele>
        <time>2022-03-07T11:25:32.566Z</time>
      </trkpt>
      <trkpt lat="42.36416" lon="24.29099">
        <ele>436.348954</ele>
        <time>2022-03-07T11:25:39.539Z</time>
      </trkpt>
      <trkpt lat="42.36419" lon="24.29087">
        <ele>436.889293</ele>
        <time>2022-03-07T11:25:46.573Z</time>
      </trkpt>
      <trkpt lat="42.36422" lon="24.29074">
        <ele>437.462206</ele>
        <time>2022-03-07T11:25:53.531Z</time>
      </trkpt>
      <trkpt lat="42.36424" lon="24.29062">
        <ele>438.025229</ele>
        <time>2022-03-07T11:25:59.530Z</time>
      </trkpt>
      <trkpt lat="42.36427" lon="24.29049">
        <ele>438.606959</ele>
        <time>2022-03-07T11:26:05.534Z</time>
      </trkpt>
      <trkpt lat="42.3643" lon="24.29036">
        <ele>439.212234</ele>
        <time>2022-03-07T11:26:12.538Z</time>
      </trkpt>
      <trkpt lat="42.36432" lon="24.29022">
        <ele>439.81257</ele>
        <time>2022-03-07T11:26:20.532Z</time>
      </trkpt>
      <trkpt lat="42.36436" lon="24.29009">
        <ele>440.421115</ele>
        <time>2022-03-07T11:26:26.532Z</time>
      </trkpt>
      <trkpt lat="42.3644" lon="24.28996">
        <ele>441.044766</ele>
        <time>2022-03-07T11:26:33.544Z</time>
      </trkpt>
      <trkpt lat="42.36443" lon="24.28983">
        <ele>441.65666</ele>
        <time>2022-03-07T11:26:39.530Z</time>
      </trkpt>
      <trkpt lat="42.36447" lon="24.2897">
        <ele>442.243802</ele>
        <time>2022-03-07T11:26:45.536Z</time>
      </trkpt>
      <trkpt lat="42.3645" lon="24.28958">
        <ele>442.815075</ele>
        <time>2022-03-07T11:26:51.533Z</time>
      </trkpt>
      <trkpt lat="42.36453" lon="24.28946">
        <ele>443.366009</ele>
        <time>2022-03-07T11:26:57.534Z</time>
      </trkpt>
      <trkpt lat="42.36456" lon="24.28933">
        <ele>443.924692</ele>
        <time>2022-03-07T11:27:03.535Z</time>
      </trkpt>
      <trkpt lat="42.36459" lon="24.28921">
        <ele>444.496395</ele>
        <time>2022-03-07T11:27:09.569Z</time>
      </trkpt>
      <trkpt lat="42.36462" lon="24.28907">
        <ele>445.081346</ele>
        <time>2022-03-07T11:27:15.541Z</time>
      </trkpt>
      <trkpt lat="42.36465" lon="24.28894">
        <ele>445.512551</ele>
        <time>2022-03-07T11:27:21.544Z</time>
      </trkpt>
      <trkpt lat="42.36467" lon="24.28882">
        <ele>445.916419</ele>
        <time>2022-03-07T11:27:27.529Z</time>
      </trkpt>
      <trkpt lat="42.36467" lon="24.28868">
        <ele>446.352307</ele>
        <time>2022-03-07T11:27:34.523Z</time>
      </trkpt>
      <trkpt lat="42.36466" lon="24.28855">
        <ele>446.762275</ele>
        <time>2022-03-07T11:27:40.534Z</time>
      </trkpt>
      <trkpt lat="42.36464" lon="24.28842">
        <ele>447.197035</ele>
        <time>2022-03-07T11:27:47.547Z</time>
      </trkpt>
      <trkpt lat="42.36459" lon="24.28829">
        <ele>447.633622</ele>
        <time>2022-03-07T11:27:54.571Z</time>
      </trkpt>
      <trkpt lat="42.36455" lon="24.28816">
        <ele>448.078768</ele>
        <time>2022-03-07T11:28:01.540Z</time>
      </trkpt>
      <trkpt lat="42.36451" lon="24.28804">
        <ele>448.488772</ele>
        <time>2022-03-07T11:28:07.524Z</time>
      </trkpt>
      <trkpt lat="42.36447" lon="24.28792">
        <ele>448.917892</ele>
        <time>2022-03-07T11:28:14.532Z</time>
      </trkpt>
      <trkpt lat="42.36442" lon="24.28782">
        <ele>449.301029</ele>
        <time>2022-03-07T11:28:20.549Z</time>
      </trkpt>
      <trkpt lat="42.36437" lon="24.2877">
        <ele>449.730335</ele>
        <time>2022-03-07T11:28:26.538Z</time>
      </trkpt>
      <trkpt lat="42.3643" lon="24.28759">
        <ele>450.171679</ele>
        <time>2022-03-07T11:28:32.541Z</time>
      </trkpt>
      <trkpt lat="42.36424" lon="24.28749">
        <ele>450.586055</ele>
        <time>2022-03-07T11:28:37.538Z</time>
      </trkpt>
      <trkpt lat="42.36418" lon="24.28739">
        <ele>450.976849</ele>
        <time>2022-03-07T11:28:42.527Z</time>
      </trkpt>
      <trkpt lat="42.36412" lon="24.2873">
        <ele>451.373709</ele>
        <time>2022-03-07T11:28:47.515Z</time>
      </trkpt>
      <trkpt lat="42.36406" lon="24.28718">
        <ele>451.835315</ele>
        <time>2022-03-07T11:28:52.530Z</time>
      </trkpt>
      <trkpt lat="42.364" lon="24.28708">
        <ele>452.243955</ele>
        <time>2022-03-07T11:28:56.543Z</time>
      </trkpt>
      <trkpt lat="42.36393" lon="24.28697">
        <ele>452.688085</ele>
        <time>2022-03-07T11:29:00.533Z</time>
      </trkpt>
      <trkpt lat="42.36386" lon="24.28684">
        <ele>452.368198</ele>
        <time>2022-03-07T11:29:04.536Z</time>
      </trkpt>
      <trkpt lat="42.3638" lon="24.28675">
        <ele>452.097211</ele>
        <time>2022-03-07T11:29:07.534Z</time>
      </trkpt>
      <trkpt lat="42.36374" lon="24.28663">
        <ele>451.792032</ele>
        <time>2022-03-07T11:29:10.528Z</time>
      </trkpt>
      <trkpt lat="42.36366" lon="24.28651">
        <ele>451.442403</ele>
        <time>2022-03-07T11:29:13.537Z</time>
      </trkpt>
      <trkpt lat="42.36358" lon="24.28638">
        <ele>451.08054</ele>
        <time>2022-03-07T11:29:16.546Z</time>
      </trkpt>
      <trkpt lat="42.36352" lon="24.28628">
        <ele>450.820113</ele>
        <time>2022-03-07T11:29:18.540Z</time>
      </trkpt>
      <trkpt lat="42.36346" lon="24.28618">
        <ele>450.542163</ele>
        <time>2022-03-07T11:29:20.527Z</time>
      </trkpt>
      <trkpt lat="42.36339" lon="24.28608">
        <ele>450.251227</ele>
        <time>2022-03-07T11:29:22.540Z</time>
      </trkpt>
      <trkpt lat="42.36332" lon="24.28598">
        <ele>449.948375</ele>
        <time>2022-03-07T11:29:24.545Z</time>
      </trkpt>
      <trkpt lat="42.36324" lon="24.28587">
        <ele>449.634345</ele>
        <time>2022-03-07T11:29:26.539Z</time>
      </trkpt>
      <trkpt lat="42.36317" lon="24.28576">
        <ele>449.313144</ele>
        <time>2022-03-07T11:29:28.553Z</time>
      </trkpt>
      <trkpt lat="42.3631" lon="24.28564">
        <ele>448.994056</ele>
        <time>2022-03-07T11:29:30.530Z</time>
      </trkpt>
      <trkpt lat="42.36302" lon="24.28553">
        <ele>448.658155</ele>
        <time>2022-03-07T11:29:32.530Z</time>
      </trkpt>
      <trkpt lat="42.36294" lon="24.28541">
        <ele>448.327715</ele>
        <time>2022-03-07T11:29:34.525Z</time>
      </trkpt>
      <trkpt lat="42.36287" lon="24.28529">
        <ele>447.996015</ele>
        <time>2022-03-07T11:29:36.529Z</time>
      </trkpt>
      <trkpt lat="42.3628" lon="24.28517">
        <ele>447.655223</ele>
        <time>2022-03-07T11:29:38.538Z</time>
      </trkpt>
      <trkpt lat="42.36272" lon="24.28504">
        <ele>447.529696</ele>
        <time>2022-03-07T11:29:40.532Z</time>
      </trkpt>
      <trkpt lat="42.36265" lon="24.28492">
        <ele>447.551307</ele>
        <time>2022-03-07T11:29:42.535Z</time>
      </trkpt>
      <trkpt lat="42.36259" lon="24.28479">
        <ele>447.573369</ele>
        <time>2022-03-07T11:29:44.566Z</time>
      </trkpt>
      <trkpt lat="42.36252" lon="24.28466">
        <ele>447.595215</ele>
        <time>2022-03-07T11:29:46.551Z</time>
      </trkpt>
      <trkpt lat="42.36246" lon="24.28453">
        <ele>447.617099</ele>
        <time>2022-03-07T11:29:48.530Z</time>
      </trkpt>
      <trkpt lat="42.3624" lon="24.2844">
        <ele>447.638645</ele>
        <time>2022-03-07T11:29:50.540Z</time>
      </trkpt>
      <trkpt lat="42.36234" lon="24.28427">
        <ele>447.659511</ele>
        <time>2022-03-07T11:29:52.537Z</time>
      </trkpt>
      <trkpt lat="42.3623" lon="24.28414">
        <ele>447.679761</ele>
        <time>2022-03-07T11:29:54.536Z</time>
      </trkpt>
      <trkpt lat="42.36225" lon="24.28402">
        <ele>447.698964</ele>
        <time>2022-03-07T11:29:56.533Z</time>
      </trkpt>
      <trkpt lat="42.36221" lon="24.28389">
        <ele>447.718084</ele>
        <time>2022-03-07T11:29:58.530Z</time>
      </trkpt>
      <trkpt lat="42.36216" lon="24.28378">
        <ele>447.736168</ele>
        <time>2022-03-07T11:30:00.535Z</time>
      </trkpt>
      <trkpt lat="42.36213" lon="24.28367">
        <ele>447.753284</ele>
        <time>2022-03-07T11:30:02.545Z</time>
      </trkpt>
      <trkpt lat="42.36208" lon="24.28352">
        <ele>447.775847</ele>
        <time>2022-03-07T11:30:05.537Z</time>
      </trkpt>
      <trkpt lat="42.36203" lon="24.28338">
        <ele>447.796748</ele>
        <time>2022-03-07T11:30:08.524Z</time>
      </trkpt>
      <trkpt lat="42.36201" lon="24.28324">
        <ele>447.817081</ele>
        <time>2022-03-07T11:30:11.584Z</time>
      </trkpt>
      <trkpt lat="42.36198" lon="24.28312">
        <ele>447.835132</ele>
        <time>2022-03-07T11:30:14.535Z</time>
      </trkpt>
      <trkpt lat="42.36194" lon="24.28301">
        <ele>447.852963</ele>
        <time>2022-03-07T11:30:17.532Z</time>
      </trkpt>
      <trkpt lat="42.36191" lon="24.28289">
        <ele>447.996723</ele>
        <time>2022-03-07T11:30:20.579Z</time>
      </trkpt>
      <trkpt lat="42.36187" lon="24.28277">
        <ele>448.175858</ele>
        <time>2022-03-07T11:30:23.536Z</time>
      </trkpt>
      <trkpt lat="42.36181" lon="24.28263">
        <ele>448.407884</ele>
        <time>2022-03-07T11:30:27.530Z</time>
      </trkpt>
      <trkpt lat="42.36176" lon="24.28252">
        <ele>448.597087</ele>
        <time>2022-03-07T11:30:30.526Z</time>
      </trkpt>
      <trkpt lat="42.36171" lon="24.28241">
        <ele>448.783264</ele>
        <time>2022-03-07T11:30:33.546Z</time>
      </trkpt>
      <trkpt lat="42.36166" lon="24.28226">
        <ele>449.007924</ele>
        <time>2022-03-07T11:30:37.528Z</time>
      </trkpt>
      <trkpt lat="42.36162" lon="24.28213">
        <ele>449.205237</ele>
        <time>2022-03-07T11:30:42.574Z</time>
      </trkpt>
      <trkpt lat="42.36159" lon="24.28201">
        <ele>449.39049</ele>
        <time>2022-03-07T11:30:46.515Z</time>
      </trkpt>
      <trkpt lat="42.36154" lon="24.28186">
        <ele>449.62354</ele>
        <time>2022-03-07T11:30:50.528Z</time>
      </trkpt>
      <trkpt lat="42.36151" lon="24.28175">
        <ele>449.796933</ele>
        <time>2022-03-07T11:30:53.595Z</time>
      </trkpt>
      <trkpt lat="42.36148" lon="24.28163">
        <ele>449.986505</ele>
        <time>2022-03-07T11:30:56.541Z</time>
      </trkpt>
      <trkpt lat="42.36145" lon="24.2815">
        <ele>450.180194</ele>
        <time>2022-03-07T11:30:59.533Z</time>
      </trkpt>
      <trkpt lat="42.36142" lon="24.28136">
        <ele>450.380655</ele>
        <time>2022-03-07T11:31:02.547Z</time>
      </trkpt>
      <trkpt lat="42.36139" lon="24.28123">
        <ele>450.579367</ele>
        <time>2022-03-07T11:31:05.530Z</time>
      </trkpt>
      <trkpt lat="42.36135" lon="24.2811">
        <ele>450.777086</ele>
        <time>2022-03-07T11:31:08.541Z</time>
      </trkpt>
      <trkpt lat="42.36132" lon="24.28098">
        <ele>450.960234</ele>
        <time>2022-03-07T11:31:11.545Z</time>
      </trkpt>
      <trkpt lat="42.3613" lon="24.28085">
        <ele>451.157976</ele>
        <time>2022-03-07T11:31:14.558Z</time>
      </trkpt>
      <trkpt lat="42.36127" lon="24.28071">
        <ele>451.354149</ele>
        <time>2022-03-07T11:31:17.533Z</time>
      </trkpt>
      <trkpt lat="42.36126" lon="24.28059">
        <ele>451.49277</ele>
        <time>2022-03-07T11:31:20.534Z</time>
      </trkpt>
      <trkpt lat="42.36123" lon="24.28046">
        <ele>451.642551</ele>
        <time>2022-03-07T11:31:23.541Z</time>
      </trkpt>
      <trkpt lat="42.3612" lon="24.28034">
        <ele>451.779715</ele>
        <time>2022-03-07T11:31:26.559Z</time>
      </trkpt>
      <trkpt lat="42.36116" lon="24.28019">
        <ele>451.958632</ele>
        <time>2022-03-07T11:31:30.531Z</time>
      </trkpt>
      <trkpt lat="42.36113" lon="24.28004">
        <ele>452.132239</ele>
        <time>2022-03-07T11:31:34.531Z</time>
      </trkpt>
      <trkpt lat="42.3611" lon="24.27992">
        <ele>452.274291</ele>
        <time>2022-03-07T11:31:37.516Z</time>
      </trkpt>
      <trkpt lat="42.36107" lon="24.2798">
        <ele>452.409526</ele>
        <time>2022-03-07T11:31:40.539Z</time>
      </trkpt>
      <trkpt lat="42.36104" lon="24.27968">
        <ele>452.547513</ele>
        <time>2022-03-07T11:31:43.573Z</time>
      </trkpt>
      <trkpt lat="42.36101" lon="24.27953">
        <ele>452.723943</ele>
        <time>2022-03-07T11:31:47.541Z</time>
      </trkpt>
      <trkpt lat="42.36097" lon="24.27938">
        <ele>452.901431</ele>
        <time>2022-03-07T11:31:51.548Z</time>
      </trkpt>
      <trkpt lat="42.36093" lon="24.27923">
        <ele>453.078755</ele>
        <time>2022-03-07T11:31:55.516Z</time>
      </trkpt>
      <trkpt lat="42.36089" lon="24.27908">
        <ele>453.258212</ele>
        <time>2022-03-07T11:31:59.586Z</time>
      </trkpt>
      <trkpt lat="42.36086" lon="24.27896">
        <ele>453.400132</ele>
        <time>2022-03-07T11:32:02.535Z</time>
      </trkpt>
      <trkpt lat="42.36084" lon="24.27884">
        <ele>453.537613</ele>
        <time>2022-03-07T11:32:05.538Z</time>
      </trkpt>
      <trkpt lat="42.36081" lon="24.27872">
        <ele>453.674777</ele>
        <time>2022-03-07T11:32:08.541Z</time>
      </trkpt>
      <trkpt lat="42.36078" lon="24.27858">
        <ele>453.842206</ele>
        <time>2022-03-07T11:32:12.527Z</time>
      </trkpt>
      <trkpt lat="42.36074" lon="24.27845">
        <ele>453.991903</ele>
        <time>2022-03-07T11:32:16.546Z</time>
      </trkpt>
      <trkpt lat="42.36071" lon="24.27831">
        <ele>454.155054</ele>
        <time>2022-03-07T11:32:20.549Z</time>
      </trkpt>
      <trkpt lat="42.36068" lon="24.27817">
        <ele>454.320878</ele>
        <time>2022-03-07T11:32:24.570Z</time>
      </trkpt>
      <trkpt lat="42.36066" lon="24.27802">
        <ele>454.484743</ele>
        <time>2022-03-07T11:32:28.526Z</time>
      </trkpt>
      <trkpt lat="42.36068" lon="24.27789">
        <ele>454.635595</ele>
        <time>2022-03-07T11:32:32.541Z</time>
      </trkpt>
      <trkpt lat="42.36075" lon="24.27779">
        <ele>454.781032</ele>
        <time>2022-03-07T11:32:36.531Z</time>
      </trkpt>
      <trkpt lat="42.36085" lon="24.27776">
        <ele>454.931524</ele>
        <time>2022-03-07T11:32:40.532Z</time>
      </trkpt>
      <trkpt lat="42.36094" lon="24.27775">
        <ele>455.073876</ele>
        <time>2022-03-07T11:32:44.538Z</time>
      </trkpt>
      <trkpt lat="42.36105" lon="24.27773">
        <ele>455.236974</ele>
        <time>2022-03-07T11:32:49.531Z</time>
      </trkpt>
      <trkpt lat="42.36116" lon="24.27771">
        <ele>455.402893</ele>
        <time>2022-03-07T11:32:54.544Z</time>
      </trkpt>
      <trkpt lat="42.36126" lon="24.2777">
        <ele>455.559269</ele>
        <time>2022-03-07T11:33:00.533Z</time>
      </trkpt>
      <trkpt lat="42.36145" lon="24.27772">
        <ele>455.840215</ele>
        <time>2022-03-07T12:03:39.575Z</time>
      </trkpt>
      <trkpt lat="42.36156" lon="24.2777">
        <ele>456.002318</ele>
        <time>2022-03-07T12:03:43.534Z</time>
      </trkpt>
      <trkpt lat="42.36166" lon="24.27768">
        <ele>456.156086</ele>
        <time>2022-03-07T12:03:47.537Z</time>
      </trkpt>
      <trkpt lat="42.36177" lon="24.27767">
        <ele>456.321119</ele>
        <time>2022-03-07T12:03:51.530Z</time>
      </trkpt>
      <trkpt lat="42.36188" lon="24.27766">
        <ele>456.48633</ele>
        <time>2022-03-07T12:03:56.555Z</time>
      </trkpt>
      <trkpt lat="42.36198" lon="24.27764">
        <ele>456.633895</ele>
        <time>2022-03-07T12:04:00.540Z</time>
      </trkpt>
      <trkpt lat="42.36207" lon="24.27762">
        <ele>456.81734</ele>
        <time>2022-03-07T12:04:04.543Z</time>
      </trkpt>
      <trkpt lat="42.36217" lon="24.27761">
        <ele>457.125697</ele>
        <time>2022-03-07T12:04:08.555Z</time>
      </trkpt>
      <trkpt lat="42.36226" lon="24.27761">
        <ele>457.41117</ele>
        <time>2022-03-07T12:04:12.544Z</time>
      </trkpt>
      <trkpt lat="42.36235" lon="24.27761">
        <ele>457.703182</ele>
        <time>2022-03-07T12:04:16.546Z</time>
      </trkpt>
      <trkpt lat="42.36244" lon="24.27761">
        <ele>457.99814</ele>
        <time>2022-03-07T12:04:20.537Z</time>
      </trkpt>
      <trkpt lat="42.36255" lon="24.27759">
        <ele>458.338653</ele>
        <time>2022-03-07T12:04:25.535Z</time>
      </trkpt>
      <trkpt lat="42.36264" lon="24.2776">
        <ele>458.627867</ele>
        <time>2022-03-07T12:04:29.551Z</time>
      </trkpt>
      <trkpt lat="42.36274" lon="24.2776">
        <ele>458.958002</ele>
        <time>2022-03-07T12:04:34.540Z</time>
      </trkpt>
      <trkpt lat="42.36283" lon="24.27757">
        <ele>459.24848</ele>
        <time>2022-03-07T12:04:39.544Z</time>
      </trkpt>
      <trkpt lat="42.36294" lon="24.27757">
        <ele>459.581561</ele>
        <time>2022-03-07T12:04:44.569Z</time>
      </trkpt>
      <trkpt lat="42.36303" lon="24.27755">
        <ele>459.878597</ele>
        <time>2022-03-07T12:04:48.596Z</time>
      </trkpt>
      <trkpt lat="42.36313" lon="24.27755">
        <ele>460.186375</ele>
        <time>2022-03-07T12:04:52.530Z</time>
      </trkpt>
      <trkpt lat="42.36323" lon="24.27754">
        <ele>460.501409</ele>
        <time>2022-03-07T12:04:56.536Z</time>
      </trkpt>
      <trkpt lat="42.36332" lon="24.27752">
        <ele>460.789295</ele>
        <time>2022-03-07T12:05:00.546Z</time>
      </trkpt>
      <trkpt lat="42.36342" lon="24.27749">
        <ele>461.127547</ele>
        <time>2022-03-07T12:05:05.539Z</time>
      </trkpt>
      <trkpt lat="42.36351" lon="24.27747">
        <ele>461.419411</ele>
        <time>2022-03-07T12:05:09.537Z</time>
      </trkpt>
      <trkpt lat="42.3636" lon="24.27744">
        <ele>461.706112</ele>
        <time>2022-03-07T12:05:13.533Z</time>
      </trkpt>
      <trkpt lat="42.36369" lon="24.27741">
        <ele>462.000645</ele>
        <time>2022-03-07T12:05:17.525Z</time>
      </trkpt>
      <trkpt lat="42.36379" lon="24.27737">
        <ele>462.31785</ele>
        <time>2022-03-07T12:05:22.544Z</time>
      </trkpt>
      <trkpt lat="42.36389" lon="24.27734">
        <ele>462.579935</ele>
        <time>2022-03-07T12:05:27.546Z</time>
      </trkpt>
      <trkpt lat="42.36399" lon="24.2773">
        <ele>462.79274</ele>
        <time>2022-03-07T12:05:32.571Z</time>
      </trkpt>
      <trkpt lat="42.36409" lon="24.27727">
        <ele>463.020954</ele>
        <time>2022-03-07T12:05:37.541Z</time>
      </trkpt>
      <trkpt lat="42.36418" lon="24.27723">
        <ele>463.2128</ele>
        <time>2022-03-07T12:05:41.537Z</time>
      </trkpt>
      <trkpt lat="42.36427" lon="24.2772">
        <ele>463.404646</ele>
        <time>2022-03-07T12:05:45.533Z</time>
      </trkpt>
      <trkpt lat="42.36436" lon="24.27716">
        <ele>463.607239</ele>
        <time>2022-03-07T12:05:49.536Z</time>
      </trkpt>
      <trkpt lat="42.36446" lon="24.27711">
        <ele>463.834692</ele>
        <time>2022-03-07T12:05:54.583Z</time>
      </trkpt>
      <trkpt lat="42.36457" lon="24.27707">
        <ele>464.058612</ele>
        <time>2022-03-07T12:05:59.524Z</time>
      </trkpt>
      <trkpt lat="42.36467" lon="24.27701">
        <ele>464.284971</ele>
        <time>2022-03-07T12:06:04.537Z</time>
      </trkpt>
      <trkpt lat="42.36475" lon="24.27695">
        <ele>464.49038</ele>
        <time>2022-03-07T12:06:08.541Z</time>
      </trkpt>
      <trkpt lat="42.36484" lon="24.27689">
        <ele>464.692753</ele>
        <time>2022-03-07T12:06:12.542Z</time>
      </trkpt>
      <trkpt lat="42.36493" lon="24.27684">
        <ele>464.90314</ele>
        <time>2022-03-07T12:06:16.527Z</time>
      </trkpt>
      <trkpt lat="42.36502" lon="24.27677">
        <ele>465.10253</ele>
        <time>2022-03-07T12:06:20.535Z</time>
      </trkpt>
      <trkpt lat="42.3651" lon="24.27671">
        <ele>465.311137</ele>
        <time>2022-03-07T12:06:24.534Z</time>
      </trkpt>
      <trkpt lat="42.36519" lon="24.27664">
        <ele>465.525242</ele>
        <time>2022-03-07T12:06:28.542Z</time>
      </trkpt>
      <trkpt lat="42.36527" lon="24.27657">
        <ele>465.724007</ele>
        <time>2022-03-07T12:06:32.547Z</time>
      </trkpt>
      <trkpt lat="42.36535" lon="24.27651">
        <ele>465.921995</ele>
        <time>2022-03-07T12:06:36.542Z</time>
      </trkpt>
      <trkpt lat="42.36544" lon="24.27644">
        <ele>466.123142</ele>
        <time>2022-03-07T12:06:40.542Z</time>
      </trkpt>
      <trkpt lat="42.36551" lon="24.27636">
        <ele>466.289417</ele>
        <time>2022-03-07T12:06:43.542Z</time>
      </trkpt>
      <trkpt lat="42.36559" lon="24.27629">
        <ele>466.447281</ele>
        <time>2022-03-07T12:06:47.546Z</time>
      </trkpt>
      <trkpt lat="42.36568" lon="24.27622">
        <ele>466.619153</ele>
        <time>2022-03-07T12:06:51.548Z</time>
      </trkpt>
      <trkpt lat="42.36577" lon="24.27615">
        <ele>466.787891</ele>
        <time>2022-03-07T12:06:55.537Z</time>
      </trkpt>
      <trkpt lat="42.36587" lon="24.27609">
        <ele>466.955729</ele>
        <time>2022-03-07T12:06:59.537Z</time>
      </trkpt>
      <trkpt lat="42.36597" lon="24.27603">
        <ele>467.137315</ele>
        <time>2022-03-07T12:07:03.547Z</time>
      </trkpt>
      <trkpt lat="42.36607" lon="24.27595">
        <ele>467.327542</ele>
        <time>2022-03-07T12:07:07.537Z</time>
      </trkpt>
      <trkpt lat="42.36617" lon="24.27587">
        <ele>467.510563</ele>
        <time>2022-03-07T12:07:11.546Z</time>
      </trkpt>
      <trkpt lat="42.36627" lon="24.27578">
        <ele>467.703288</ele>
        <time>2022-03-07T12:07:15.554Z</time>
      </trkpt>
      <trkpt lat="42.36638" lon="24.27571">
        <ele>467.900782</ele>
        <time>2022-03-07T12:07:19.540Z</time>
      </trkpt>
      <trkpt lat="42.36647" lon="24.27565">
        <ele>468.071647</ele>
        <time>2022-03-07T12:07:22.541Z</time>
      </trkpt>
      <trkpt lat="42.36657" lon="24.27559">
        <ele>468.235068</ele>
        <time>2022-03-07T12:07:25.539Z</time>
      </trkpt>
      <trkpt lat="42.36666" lon="24.27554">
        <ele>468.396096</ele>
        <time>2022-03-07T12:07:28.544Z</time>
      </trkpt>
      <trkpt lat="42.36676" lon="24.27548">
        <ele>468.565956</ele>
        <time>2022-03-07T12:07:31.559Z</time>
      </trkpt>
      <trkpt lat="42.36685" lon="24.27544">
        <ele>468.728129</ele>
        <time>2022-03-07T12:07:34.574Z</time>
      </trkpt>
      <trkpt lat="42.36695" lon="24.2754">
        <ele>468.887149</ele>
        <time>2022-03-07T12:07:37.553Z</time>
      </trkpt>
      <trkpt lat="42.36704" lon="24.27537">
        <ele>469.046281</ele>
        <time>2022-03-07T12:07:40.531Z</time>
      </trkpt>
      <trkpt lat="42.36714" lon="24.27535">
        <ele>469.295947</ele>
        <time>2022-03-07T12:07:43.552Z</time>
      </trkpt>
      <trkpt lat="42.36723" lon="24.27532">
        <ele>469.601591</ele>
        <time>2022-03-07T12:07:46.518Z</time>
      </trkpt>
      <trkpt lat="42.36733" lon="24.27529">
        <ele>469.892243</ele>
        <time>2022-03-07T12:07:49.543Z</time>
      </trkpt>
      <trkpt lat="42.36742" lon="24.27527">
        <ele>470.187308</ele>
        <time>2022-03-07T12:07:52.547Z</time>
      </trkpt>
      <trkpt lat="42.36751" lon="24.27524">
        <ele>470.487443</ele>
        <time>2022-03-07T12:07:55.552Z</time>
      </trkpt>
      <trkpt lat="42.36761" lon="24.2752">
        <ele>470.791701</ele>
        <time>2022-03-07T12:07:58.542Z</time>
      </trkpt>
      <trkpt lat="42.3677" lon="24.27517">
        <ele>471.088789</ele>
        <time>2022-03-07T12:08:01.538Z</time>
      </trkpt>
      <trkpt lat="42.36781" lon="24.27513">
        <ele>471.442351</ele>
        <time>2022-03-07T12:08:05.550Z</time>
      </trkpt>
      <trkpt lat="42.36792" lon="24.2751">
        <ele>471.799142</ele>
        <time>2022-03-07T12:08:09.541Z</time>
      </trkpt>
      <trkpt lat="42.36802" lon="24.27507">
        <ele>472.109412</ele>
        <time>2022-03-07T12:08:13.529Z</time>
      </trkpt>
      <trkpt lat="42.36812" lon="24.27503">
        <ele>472.411849</ele>
        <time>2022-03-07T12:08:17.541Z</time>
      </trkpt>
      <trkpt lat="42.36822" lon="24.275">
        <ele>472.75745</ele>
        <time>2022-03-07T12:08:22.575Z</time>
      </trkpt>
      <trkpt lat="42.36832" lon="24.27497">
        <ele>473.065614</ele>
        <time>2022-03-07T12:08:26.542Z</time>
      </trkpt>
      <trkpt lat="42.36842" lon="24.27494">
        <ele>473.371257</ele>
        <time>2022-03-07T12:08:30.520Z</time>
      </trkpt>
      <trkpt lat="42.36851" lon="24.27491">
        <ele>473.673878</ele>
        <time>2022-03-07T12:08:34.600Z</time>
      </trkpt>
      <trkpt lat="42.36862" lon="24.27486">
        <ele>474.016244</ele>
        <time>2022-03-07T12:08:39.545Z</time>
      </trkpt>
      <trkpt lat="42.36872" lon="24.27483">
        <ele>474.343832</ele>
        <time>2022-03-07T12:08:44.555Z</time>
      </trkpt>
      <trkpt lat="42.36882" lon="24.2748">
        <ele>474.651998</ele>
        <time>2022-03-07T12:08:49.543Z</time>
      </trkpt>
      <trkpt lat="42.36892" lon="24.27477">
        <ele>475.145843</ele>
        <time>2022-03-07T12:08:54.556Z</time>
      </trkpt>
      <trkpt lat="42.36901" lon="24.27474">
        <ele>475.607753</ele>
        <time>2022-03-07T12:08:59.542Z</time>
      </trkpt>
      <trkpt lat="42.3691" lon="24.27471">
        <ele>476.097144</ele>
        <time>2022-03-07T12:09:05.546Z</time>
      </trkpt>
      <trkpt lat="42.36919" lon="24.27468">
        <ele>476.563037</ele>
        <time>2022-03-07T12:09:10.552Z</time>
      </trkpt>
      <trkpt lat="42.36929" lon="24.27465">
        <ele>477.076862</ele>
        <time>2022-03-07T12:09:15.548Z</time>
      </trkpt>
      <trkpt lat="42.36939" lon="24.27461">
        <ele>477.560805</ele>
        <time>2022-03-07T12:09:20.561Z</time>
      </trkpt>
      <trkpt lat="42.36948" lon="24.27459">
        <ele>478.045325</ele>
        <time>2022-03-07T12:09:25.555Z</time>
      </trkpt>
      <trkpt lat="42.36958" lon="24.27456">
        <ele>478.54529</ele>
        <time>2022-03-07T12:09:30.530Z</time>
      </trkpt>
      <trkpt lat="42.36968" lon="24.27453">
        <ele>479.031134</ele>
        <time>2022-03-07T12:09:35.547Z</time>
      </trkpt>
      <trkpt lat="42.36977" lon="24.2745">
        <ele>479.518124</ele>
        <time>2022-03-07T12:09:40.539Z</time>
      </trkpt>
      <trkpt lat="42.36986" lon="24.27446">
        <ele>479.998192</ele>
        <time>2022-03-07T12:09:45.567Z</time>
      </trkpt>
      <trkpt lat="42.36995" lon="24.27443">
        <ele>480.466933</ele>
        <time>2022-03-07T12:09:50.522Z</time>
      </trkpt>
      <trkpt lat="42.37005" lon="24.2744">
        <ele>480.948221</ele>
        <time>2022-03-07T12:09:55.547Z</time>
      </trkpt>
      <trkpt lat="42.37015" lon="24.27437">
        <ele>481.466879</ele>
        <time>2022-03-07T12:10:01.545Z</time>
      </trkpt>
      <trkpt lat="42.37024" lon="24.27435">
        <ele>481.942914</ele>
        <time>2022-03-07T12:10:06.530Z</time>
      </trkpt>
      <trkpt lat="42.37035" lon="24.27432">
        <ele>482.476957</ele>
        <time>2022-03-07T12:10:11.541Z</time>
      </trkpt>
      <trkpt lat="42.37046" lon="24.27429">
        <ele>483.032808</ele>
        <time>2022-03-07T12:10:16.549Z</time>
      </trkpt>
      <trkpt lat="42.37056" lon="24.27427">
        <ele>483.563477</ele>
        <time>2022-03-07T12:10:21.545Z</time>
      </trkpt>
      <trkpt lat="42.37066" lon="24.27425">
        <ele>483.878815</ele>
        <time>2022-03-07T12:10:26.545Z</time>
      </trkpt>
      <trkpt lat="42.37076" lon="24.27424">
        <ele>484.140565</ele>
        <time>2022-03-07T12:10:31.538Z</time>
      </trkpt>
      <trkpt lat="42.37085" lon="24.27423">
        <ele>484.38901</ele>
        <time>2022-03-07T12:10:36.550Z</time>
      </trkpt>
      <trkpt lat="42.37095" lon="24.2742">
        <ele>484.667215</ele>
        <time>2022-03-07T12:10:42.574Z</time>
      </trkpt>
      <trkpt lat="42.37105" lon="24.27418">
        <ele>484.94215</ele>
        <time>2022-03-07T12:10:47.539Z</time>
      </trkpt>
      <trkpt lat="42.37116" lon="24.27417">
        <ele>485.227996</ele>
        <time>2022-03-07T12:10:52.539Z</time>
      </trkpt>
      <trkpt lat="42.37126" lon="24.27415">
        <ele>485.504346</ele>
        <time>2022-03-07T12:10:57.543Z</time>
      </trkpt>
      <trkpt lat="42.37136" lon="24.27414">
        <ele>485.774931</ele>
        <time>2022-03-07T12:11:02.575Z</time>
      </trkpt>
      <trkpt lat="42.37146" lon="24.27413">
        <ele>486.044872</ele>
        <time>2022-03-07T12:11:07.555Z</time>
      </trkpt>
      <trkpt lat="42.37156" lon="24.27412">
        <ele>486.314813</ele>
        <time>2022-03-07T12:11:12.539Z</time>
      </trkpt>
      <trkpt lat="42.37166" lon="24.27411">
        <ele>486.588275</ele>
        <time>2022-03-07T12:11:17.566Z</time>
      </trkpt>
      <trkpt lat="42.37177" lon="24.2741">
        <ele>486.888366</ele>
        <time>2022-03-07T12:11:22.538Z</time>
      </trkpt>
      <trkpt lat="42.37188" lon="24.27408">
        <ele>487.180408</ele>
        <time>2022-03-07T12:11:27.538Z</time>
      </trkpt>
      <trkpt lat="42.37199" lon="24.27407">
        <ele>487.467912</ele>
        <time>2022-03-07T12:11:32.531Z</time>
      </trkpt>
      <trkpt lat="42.37209" lon="24.27405">
        <ele>487.732191</ele>
        <time>2022-03-07T12:11:37.545Z</time>
      </trkpt>
      <trkpt lat="42.37218" lon="24.27403">
        <ele>487.98178</ele>
        <time>2022-03-07T12:11:42.568Z</time>
      </trkpt>
      <trkpt lat="42.37227" lon="24.27402">
        <ele>488.244135</ele>
        <time>2022-03-07T12:11:47.548Z</time>
      </trkpt>
      <trkpt lat="42.37238" lon="24.27401">
        <ele>488.550579</ele>
        <time>2022-03-07T12:11:52.552Z</time>
      </trkpt>
      <trkpt lat="42.37248" lon="24.274">
        <ele>488.983637</ele>
        <time>2022-03-07T12:11:57.583Z</time>
      </trkpt>
      <trkpt lat="42.37259" lon="24.27398">
        <ele>489.461819</ele>
        <time>2022-03-07T12:12:02.547Z</time>
      </trkpt>
      <trkpt lat="42.3727" lon="24.27397">
        <ele>489.90592</ele>
        <time>2022-03-07T12:12:07.557Z</time>
      </trkpt>
      <trkpt lat="42.37279" lon="24.27395">
        <ele>490.307158</ele>
        <time>2022-03-07T12:12:11.548Z</time>
      </trkpt>
      <trkpt lat="42.37289" lon="24.27394">
        <ele>490.71991</ele>
        <time>2022-03-07T12:12:15.540Z</time>
      </trkpt>
      <trkpt lat="42.37298" lon="24.27393">
        <ele>491.122285</ele>
        <time>2022-03-07T12:12:19.548Z</time>
      </trkpt>
      <trkpt lat="42.37309" lon="24.27392">
        <ele>491.57715</ele>
        <time>2022-03-07T12:12:24.563Z</time>
      </trkpt>
      <trkpt lat="42.37319" lon="24.27391">
        <ele>492.014448</ele>
        <time>2022-03-07T12:12:29.563Z</time>
      </trkpt>
      <trkpt lat="42.3733" lon="24.2739">
        <ele>492.488413</ele>
        <time>2022-03-07T12:12:34.533Z</time>
      </trkpt>
      <trkpt lat="42.37341" lon="24.27387">
        <ele>492.930837</ele>
        <time>2022-03-07T12:12:39.539Z</time>
      </trkpt>
      <trkpt lat="42.37351" lon="24.27386">
        <ele>493.36769</ele>
        <time>2022-03-07T12:12:44.538Z</time>
      </trkpt>
      <trkpt lat="42.3736" lon="24.27384">
        <ele>493.774271</ele>
        <time>2022-03-07T12:12:49.558Z</time>
      </trkpt>
      <trkpt lat="42.3737" lon="24.27382">
        <ele>494.183742</ele>
        <time>2022-03-07T12:12:54.542Z</time>
      </trkpt>
      <trkpt lat="42.3738" lon="24.2738">
        <ele>494.626602</ele>
        <time>2022-03-07T12:13:00.539Z</time>
      </trkpt>
      <trkpt lat="42.37391" lon="24.27378">
        <ele>495.080696</ele>
        <time>2022-03-07T12:13:06.543Z</time>
      </trkpt>
      <trkpt lat="42.37402" lon="24.27377">
        <ele>495.535992</ele>
        <time>2022-03-07T12:13:12.554Z</time>
      </trkpt>
      <trkpt lat="42.37412" lon="24.27376">
        <ele>495.973728</ele>
        <time>2022-03-07T12:13:18.551Z</time>
      </trkpt>
      <trkpt lat="42.37422" lon="24.27375">
        <ele>496.253262</ele>
        <time>2022-03-07T12:13:24.551Z</time>
      </trkpt>
      <trkpt lat="42.37431" lon="24.27373">
        <ele>496.449008</ele>
        <time>2022-03-07T12:13:30.539Z</time>
      </trkpt>
      <trkpt lat="42.37441" lon="24.27372">
        <ele>496.650823</ele>
        <time>2022-03-07T12:13:36.555Z</time>
      </trkpt>
      <trkpt lat="42.3745" lon="24.27371">
        <ele>496.844676</ele>
        <time>2022-03-07T12:13:41.565Z</time>
      </trkpt>
      <trkpt lat="42.3746" lon="24.27369">
        <ele>497.050806</ele>
        <time>2022-03-07T12:13:47.540Z</time>
      </trkpt>
      <trkpt lat="42.37469" lon="24.27367">
        <ele>497.243236</ele>
        <time>2022-03-07T12:13:53.543Z</time>
      </trkpt>
      <trkpt lat="42.37479" lon="24.27366">
        <ele>497.434013</ele>
        <time>2022-03-07T12:13:59.546Z</time>
      </trkpt>
      <trkpt lat="42.37488" lon="24.27363">
        <ele>497.620769</ele>
        <time>2022-03-07T12:14:04.534Z</time>
      </trkpt>
      <trkpt lat="42.37497" lon="24.27361">
        <ele>497.821348</ele>
        <time>2022-03-07T12:14:09.562Z</time>
      </trkpt>
      <trkpt lat="42.37506" lon="24.27357">
        <ele>498.010944</ele>
        <time>2022-03-07T12:14:13.563Z</time>
      </trkpt>
      <trkpt lat="42.37515" lon="24.27354">
        <ele>498.205103</ele>
        <time>2022-03-07T12:14:17.549Z</time>
      </trkpt>
      <trkpt lat="42.37525" lon="24.27349">
        <ele>498.414338</ele>
        <time>2022-03-07T12:14:21.547Z</time>
      </trkpt>
      <trkpt lat="42.37533" lon="24.27344">
        <ele>498.608486</ele>
        <time>2022-03-07T12:14:25.554Z</time>
      </trkpt>
      <trkpt lat="42.37542" lon="24.27337">
        <ele>498.826072</ele>
        <time>2022-03-07T12:14:29.539Z</time>
      </trkpt>
      <trkpt lat="42.37551" lon="24.2733">
        <ele>499.021902</ele>
        <time>2022-03-07T12:14:33.535Z</time>
      </trkpt>
      <trkpt lat="42.37559" lon="24.27324">
        <ele>499.219833</ele>
        <time>2022-03-07T12:14:37.538Z</time>
      </trkpt>
      <trkpt lat="42.37568" lon="24.27318">
        <ele>499.426186</ele>
        <time>2022-03-07T12:14:41.532Z</time>
      </trkpt>
      <trkpt lat="42.37578" lon="24.27311">
        <ele>499.646727</ele>
        <time>2022-03-07T12:14:45.551Z</time>
      </trkpt>
      <trkpt lat="42.37587" lon="24.27305">
        <ele>499.795767</ele>
        <time>2022-03-07T12:14:49.559Z</time>
      </trkpt>
      <trkpt lat="42.37596" lon="24.27297">
        <ele>499.646015</ele>
        <time>2022-03-07T12:14:53.546Z</time>
      </trkpt>
      <trkpt lat="42.37605" lon="24.27291">
        <ele>499.5001</ele>
        <time>2022-03-07T12:14:57.541Z</time>
      </trkpt>
      <trkpt lat="42.37615" lon="24.27284">
        <ele>499.348015</ele>
        <time>2022-03-07T12:15:01.532Z</time>
      </trkpt>
      <trkpt lat="42.37625" lon="24.27277">
        <ele>499.187977</ele>
        <time>2022-03-07T12:15:05.525Z</time>
      </trkpt>
      <trkpt lat="42.37633" lon="24.2727">
        <ele>499.054249</ele>
        <time>2022-03-07T12:15:08.547Z</time>
      </trkpt>
      <trkpt lat="42.37642" lon="24.27264">
        <ele>498.916533</ele>
        <time>2022-03-07T12:15:11.543Z</time>
      </trkpt>
      <trkpt lat="42.3765" lon="24.27257">
        <ele>498.778092</ele>
        <time>2022-03-07T12:15:14.545Z</time>
      </trkpt>
      <trkpt lat="42.3766" lon="24.2725">
        <ele>498.625012</ele>
        <time>2022-03-07T12:15:17.543Z</time>
      </trkpt>
      <trkpt lat="42.37669" lon="24.27244">
        <ele>498.473902</ele>
        <time>2022-03-07T12:15:20.530Z</time>
      </trkpt>
      <trkpt lat="42.37679" lon="24.27237">
        <ele>498.321817</ele>
        <time>2022-03-07T12:15:23.542Z</time>
      </trkpt>
      <trkpt lat="42.37689" lon="24.27229">
        <ele>498.157324</ele>
        <time>2022-03-07T12:15:26.553Z</time>
      </trkpt>
      <trkpt lat="42.377" lon="24.27222">
        <ele>497.984839</ele>
        <time>2022-03-07T12:15:29.596Z</time>
      </trkpt>
      <trkpt lat="42.37711" lon="24.27214">
        <ele>497.805711</ele>
        <time>2022-03-07T12:15:32.548Z</time>
      </trkpt>
      <trkpt lat="42.37722" lon="24.27206">
        <ele>497.637253</ele>
        <time>2022-03-07T12:15:35.540Z</time>
      </trkpt>
      <trkpt lat="42.37732" lon="24.27199">
        <ele>497.474778</ele>
        <time>2022-03-07T12:15:38.543Z</time>
      </trkpt>
      <trkpt lat="42.37743" lon="24.27191">
        <ele>497.291909</ele>
        <time>2022-03-07T12:15:41.554Z</time>
      </trkpt>
      <trkpt lat="42.37754" lon="24.27182">
        <ele>497.210615</ele>
        <time>2022-03-07T12:15:44.549Z</time>
      </trkpt>
      <trkpt lat="42.37762" lon="24.27176">
        <ele>497.155621</ele>
        <time>2022-03-07T12:15:46.537Z</time>
      </trkpt>
      <trkpt lat="42.3777" lon="24.27169">
        <ele>497.097414</ele>
        <time>2022-03-07T12:15:48.537Z</time>
      </trkpt>
      <trkpt lat="42.37779" lon="24.27163">
        <ele>497.040402</ele>
        <time>2022-03-07T12:15:50.553Z</time>
      </trkpt>
      <trkpt lat="42.37787" lon="24.27157">
        <ele>496.983294</ele>
        <time>2022-03-07T12:15:52.553Z</time>
      </trkpt>
      <trkpt lat="42.37795" lon="24.27151">
        <ele>496.928952</ele>
        <time>2022-03-07T12:15:54.539Z</time>
      </trkpt>
      <trkpt lat="42.37803" lon="24.27145">
        <ele>496.870779</ele>
        <time>2022-03-07T12:15:56.542Z</time>
      </trkpt>
      <trkpt lat="42.37812" lon="24.27138">
        <ele>496.809509</ele>
        <time>2022-03-07T12:15:58.544Z</time>
      </trkpt>
      <trkpt lat="42.37821" lon="24.27131">
        <ele>496.746339</ele>
        <time>2022-03-07T12:16:00.542Z</time>
      </trkpt>
      <trkpt lat="42.37831" lon="24.27124">
        <ele>496.67847</ele>
        <time>2022-03-07T12:16:02.581Z</time>
      </trkpt>
      <trkpt lat="42.37842" lon="24.27119">
        <ele>496.608697</ele>
        <time>2022-03-07T12:16:04.543Z</time>
      </trkpt>
      <trkpt lat="42.37853" lon="24.27115">
        <ele>496.539354</ele>
        <time>2022-03-07T12:16:06.535Z</time>
      </trkpt>
      <trkpt lat="42.37866" lon="24.27112">
        <ele>496.464146</ele>
        <time>2022-03-07T12:16:08.566Z</time>
      </trkpt>
      <trkpt lat="42.37878" lon="24.2711">
        <ele>496.386009</ele>
        <time>2022-03-07T12:16:10.550Z</time>
      </trkpt>
      <trkpt lat="42.37892" lon="24.27107">
        <ele>496.303425</ele>
        <time>2022-03-07T12:16:12.534Z</time>
      </trkpt>
      <trkpt lat="42.37906" lon="24.27105">
        <ele>496.215748</ele>
        <time>2022-03-07T12:16:14.597Z</time>
      </trkpt>
      <trkpt lat="42.37921" lon="24.27103">
        <ele>495.553239</ele>
        <time>2022-03-07T12:16:16.542Z</time>
      </trkpt>
      <trkpt lat="42.37937" lon="24.27101">
        <ele>494.709529</ele>
        <time>2022-03-07T12:16:18.546Z</time>
      </trkpt>
      <trkpt lat="42.37953" lon="24.27099">
        <ele>493.853582</ele>
        <time>2022-03-07T12:16:20.538Z</time>
      </trkpt>
      <trkpt lat="42.3797" lon="24.27096">
        <ele>492.942992</ele>
        <time>2022-03-07T12:16:22.523Z</time>
      </trkpt>
      <trkpt lat="42.37987" lon="24.27093">
        <ele>492.01918</ele>
        <time>2022-03-07T12:16:24.552Z</time>
      </trkpt>
      <trkpt lat="42.38003" lon="24.27091">
        <ele>491.157954</ele>
        <time>2022-03-07T12:16:26.547Z</time>
      </trkpt>
      <trkpt lat="42.38019" lon="24.27089">
        <ele>490.3252</ele>
        <time>2022-03-07T12:16:28.548Z</time>
      </trkpt>
      <trkpt lat="42.38035" lon="24.27087">
        <ele>489.450781</ele>
        <time>2022-03-07T12:16:30.540Z</time>
      </trkpt>
      <trkpt lat="42.38051" lon="24.27085">
        <ele>488.597214</ele>
        <time>2022-03-07T12:16:32.532Z</time>
      </trkpt>
      <trkpt lat="42.38068" lon="24.27083">
        <ele>487.715704</ele>
        <time>2022-03-07T12:16:34.560Z</time>
      </trkpt>
      <trkpt lat="42.38084" lon="24.27079">
        <ele>486.825566</ele>
        <time>2022-03-07T12:16:36.591Z</time>
      </trkpt>
      <trkpt lat="42.38097" lon="24.27071">
        <ele>486.00797</ele>
        <time>2022-03-07T12:16:38.556Z</time>
      </trkpt>
      <trkpt lat="42.38107" lon="24.27056">
        <ele>485.161434</ele>
        <time>2022-03-07T12:16:40.547Z</time>
      </trkpt>
      <trkpt lat="42.38116" lon="24.27038">
        <ele>484.21498</ele>
        <time>2022-03-07T12:16:42.542Z</time>
      </trkpt>
      <trkpt lat="42.38126" lon="24.27018">
        <ele>483.181792</ele>
        <time>2022-03-07T12:16:44.552Z</time>
      </trkpt>
      <trkpt lat="42.38135" lon="24.26998">
        <ele>482.175711</ele>
        <time>2022-03-07T12:16:46.566Z</time>
      </trkpt>
      <trkpt lat="42.38144" lon="24.2698">
        <ele>481.259494</ele>
        <time>2022-03-07T12:16:48.564Z</time>
      </trkpt>
      <trkpt lat="42.38152" lon="24.26962">
        <ele>480.353666</ele>
        <time>2022-03-07T12:16:50.564Z</time>
      </trkpt>
      <trkpt lat="42.3816" lon="24.26944">
        <ele>479.434327</ele>
        <time>2022-03-07T12:16:52.543Z</time>
      </trkpt>
      <trkpt lat="42.38169" lon="24.26927">
        <ele>478.530789</ele>
        <time>2022-03-07T12:16:54.525Z</time>
      </trkpt>
      <trkpt lat="42.38178" lon="24.26911">
        <ele>477.655023</ele>
        <time>2022-03-07T12:16:56.543Z</time>
      </trkpt>
      <trkpt lat="42.38189" lon="24.26895">
        <ele>476.731413</ele>
        <time>2022-03-07T12:16:58.585Z</time>
      </trkpt>
      <trkpt lat="42.38201" lon="24.26879">
        <ele>475.761231</ele>
        <time>2022-03-07T12:17:00.555Z</time>
      </trkpt>
      <trkpt lat="42.38213" lon="24.26866">
        <ele>474.823399</ele>
        <time>2022-03-07T12:17:02.551Z</time>
      </trkpt>
      <trkpt lat="42.38226" lon="24.26853">
        <ele>473.880621</ele>
        <time>2022-03-07T12:17:04.539Z</time>
      </trkpt>
      <trkpt lat="42.38241" lon="24.26838">
        <ele>472.799619</ele>
        <time>2022-03-07T12:17:06.554Z</time>
      </trkpt>
      <trkpt lat="42.38249" lon="24.26831">
        <ele>472.254853</ele>
        <time>2022-03-07T12:17:07.549Z</time>
      </trkpt>
      <trkpt lat="42.38263" lon="24.26816">
        <ele>471.23094</ele>
        <time>2022-03-07T12:17:09.567Z</time>
      </trkpt>
      <trkpt lat="42.38276" lon="24.26802">
        <ele>470.232894</ele>
        <time>2022-03-07T12:17:11.542Z</time>
      </trkpt>
      <trkpt lat="42.3829" lon="24.26789">
        <ele>469.21022</ele>
        <time>2022-03-07T12:17:13.561Z</time>
      </trkpt>
      <trkpt lat="42.38304" lon="24.26774">
        <ele>468.188924</ele>
        <time>2022-03-07T12:17:15.564Z</time>
      </trkpt>
      <trkpt lat="42.38318" lon="24.2676">
        <ele>467.165014</ele>
        <time>2022-03-07T12:17:17.621Z</time>
      </trkpt>
      <trkpt lat="42.38332" lon="24.26746">
        <ele>466.127761</ele>
        <time>2022-03-07T12:17:19.534Z</time>
      </trkpt>
      <trkpt lat="42.3834" lon="24.26739">
        <ele>465.605735</ele>
        <time>2022-03-07T12:17:20.551Z</time>
      </trkpt>
      <trkpt lat="42.38348" lon="24.26732">
        <ele>465.439689</ele>
        <time>2022-03-07T12:17:21.547Z</time>
      </trkpt>
      <trkpt lat="42.38355" lon="24.26725">
        <ele>465.276583</ele>
        <time>2022-03-07T12:17:22.539Z</time>
      </trkpt>
      <trkpt lat="42.3837" lon="24.26711">
        <ele>464.964993</ele>
        <time>2022-03-07T12:17:24.555Z</time>
      </trkpt>
      <trkpt lat="42.38383" lon="24.26702">
        <ele>464.696838</ele>
        <time>2022-03-07T12:17:26.553Z</time>
      </trkpt>
      <trkpt lat="42.38397" lon="24.26697">
        <ele>464.440338</ele>
        <time>2022-03-07T12:17:28.536Z</time>
      </trkpt>
      <trkpt lat="42.3841" lon="24.26702">
        <ele>464.206345</ele>
        <time>2022-03-07T12:17:30.532Z</time>
      </trkpt>
      <trkpt lat="42.38418" lon="24.26716">
        <ele>463.971103</ele>
        <time>2022-03-07T12:17:32.546Z</time>
      </trkpt>
      <trkpt lat="42.38423" lon="24.26734">
        <ele>463.730473</ele>
        <time>2022-03-07T12:17:34.537Z</time>
      </trkpt>
      <trkpt lat="42.38425" lon="24.26749">
        <ele>463.529313</ele>
        <time>2022-03-07T12:17:36.548Z</time>
      </trkpt>
      <trkpt lat="42.38428" lon="24.26761">
        <ele>463.364578</ele>
        <time>2022-03-07T12:17:38.534Z</time>
      </trkpt>
      <trkpt lat="42.38435" lon="24.26773">
        <ele>463.160737</ele>
        <time>2022-03-07T12:17:41.544Z</time>
      </trkpt>
      <trkpt lat="42.38444" lon="24.26779">
        <ele>462.98453</ele>
        <time>2022-03-07T12:17:44.556Z</time>
      </trkpt>
      <trkpt lat="42.38454" lon="24.26782">
        <ele>462.802405</ele>
        <time>2022-03-07T12:17:47.556Z</time>
      </trkpt>
      <trkpt lat="42.38464" lon="24.26783">
        <ele>462.629254</ele>
        <time>2022-03-07T12:17:50.545Z</time>
      </trkpt>
      <trkpt lat="42.38474" lon="24.26782">
        <ele>462.452133</ele>
        <time>2022-03-07T12:17:53.552Z</time>
      </trkpt>
      <trkpt lat="42.38484" lon="24.26779">
        <ele>462.872111</ele>
        <time>2022-03-07T12:17:56.554Z</time>
      </trkpt>
      <trkpt lat="42.38494" lon="24.26775">
        <ele>463.355126</ele>
        <time>2022-03-07T12:17:59.540Z</time>
      </trkpt>
      <trkpt lat="42.38503" lon="24.26769">
        <ele>463.801626</ele>
        <time>2022-03-07T12:18:02.545Z</time>
      </trkpt>
      <trkpt lat="42.38511" lon="24.26761">
        <ele>464.27019</ele>
        <time>2022-03-07T12:18:05.546Z</time>
      </trkpt>
      <trkpt lat="42.3852" lon="24.26752">
        <ele>464.78723</ele>
        <time>2022-03-07T12:18:09.549Z</time>
      </trkpt>
      <trkpt lat="42.38528" lon="24.26743">
        <ele>465.283491</ele>
        <time>2022-03-07T12:18:12.539Z</time>
      </trkpt>
      <trkpt lat="42.38537" lon="24.26736">
        <ele>465.753476</ele>
        <time>2022-03-07T12:18:15.525Z</time>
      </trkpt>
      <trkpt lat="42.38547" lon="24.2673">
        <ele>466.218776</ele>
        <time>2022-03-07T12:18:18.548Z</time>
      </trkpt>
      <trkpt lat="42.38557" lon="24.26725">
        <ele>466.716521</ele>
        <time>2022-03-07T12:18:21.554Z</time>
      </trkpt>
      <trkpt lat="42.38568" lon="24.26724">
        <ele>467.238691</ele>
        <time>2022-03-07T12:18:24.543Z</time>
      </trkpt>
      <trkpt lat="42.3858" lon="24.26724">
        <ele>467.79976</ele>
        <time>2022-03-07T12:18:27.546Z</time>
      </trkpt>
      <trkpt lat="42.38592" lon="24.26725">
        <ele>468.340572</ele>
        <time>2022-03-07T12:18:30.541Z</time>
      </trkpt>
      <trkpt lat="42.38602" lon="24.26729">
        <ele>468.804189</ele>
        <time>2022-03-07T12:18:33.526Z</time>
      </trkpt>
      <trkpt lat="42.38611" lon="24.26733">
        <ele>469.234446</ele>
        <time>2022-03-07T12:18:36.548Z</time>
      </trkpt>
      <trkpt lat="42.3862" lon="24.26737">
        <ele>469.666036</ele>
        <time>2022-03-07T12:18:40.540Z</time>
      </trkpt>
      <trkpt lat="42.38629" lon="24.2674">
        <ele>470.125184</ele>
        <time>2022-03-07T12:18:44.538Z</time>
      </trkpt>
      <trkpt lat="42.3864" lon="24.26742">
        <ele>470.621053</ele>
        <time>2022-03-07T12:18:48.542Z</time>
      </trkpt>
      <trkpt lat="42.3865" lon="24.26742">
        <ele>471.042362</ele>
        <time>2022-03-07T12:18:52.548Z</time>
      </trkpt>
      <trkpt lat="42.3866" lon="24.26741">
        <ele>471.438108</ele>
        <time>2022-03-07T12:18:56.543Z</time>
      </trkpt>
      <trkpt lat="42.3867" lon="24.26738">
        <ele>471.867348</ele>
        <time>2022-03-07T12:19:01.546Z</time>
      </trkpt>
      <trkpt lat="42.38679" lon="24.26735">
        <ele>472.237431</ele>
        <time>2022-03-07T12:19:07.558Z</time>
      </trkpt>
      <trkpt lat="42.38689" lon="24.26732">
        <ele>472.675141</ele>
        <time>2022-03-07T12:19:13.514Z</time>
      </trkpt>
      <trkpt lat="42.387" lon="24.26729">
        <ele>473.100411</ele>
        <time>2022-03-07T12:19:19.546Z</time>
      </trkpt>
      <trkpt lat="42.38709" lon="24.26726">
        <ele>473.514469</ele>
        <time>2022-03-07T12:19:25.539Z</time>
      </trkpt>
      <trkpt lat="42.38718" lon="24.26723">
        <ele>473.889077</ele>
        <time>2022-03-07T12:19:30.554Z</time>
      </trkpt>
      <trkpt lat="42.38729" lon="24.26718">
        <ele>474.332216</ele>
        <time>2022-03-07T12:19:36.561Z</time>
      </trkpt>
      <trkpt lat="42.38738" lon="24.26716">
        <ele>474.708266</ele>
        <time>2022-03-07T12:19:41.544Z</time>
      </trkpt>
      <trkpt lat="42.38747" lon="24.26713">
        <ele>475.092857</ele>
        <time>2022-03-07T12:19:46.542Z</time>
      </trkpt>
      <trkpt lat="42.38757" lon="24.26712">
        <ele>475.500773</ele>
        <time>2022-03-07T12:19:51.539Z</time>
      </trkpt>
      <trkpt lat="42.38767" lon="24.26713">
        <ele>475.919881</ele>
        <time>2022-03-07T12:19:56.549Z</time>
      </trkpt>
      <trkpt lat="42.38778" lon="24.26713">
        <ele>476.343345</ele>
        <time>2022-03-07T12:20:01.554Z</time>
      </trkpt>
      <trkpt lat="42.38787" lon="24.26714">
        <ele>476.72744</ele>
        <time>2022-03-07T12:20:05.555Z</time>
      </trkpt>
      <trkpt lat="42.38798" lon="24.26717">
        <ele>477.180233</ele>
        <time>2022-03-07T12:20:10.543Z</time>
      </trkpt>
      <trkpt lat="42.38808" lon="24.26719">
        <ele>477.600892</ele>
        <time>2022-03-07T12:20:14.546Z</time>
      </trkpt>
      <trkpt lat="42.38818" lon="24.26721">
        <ele>477.999184</ele>
        <time>2022-03-07T12:20:18.533Z</time>
      </trkpt>
      <trkpt lat="42.38827" lon="24.26724">
        <ele>478.254403</ele>
        <time>2022-03-07T12:20:22.589Z</time>
      </trkpt>
      <trkpt lat="42.38837" lon="24.26727">
        <ele>478.501317</ele>
        <time>2022-03-07T12:20:26.538Z</time>
      </trkpt>
      <trkpt lat="42.38846" lon="24.26729">
        <ele>478.738714</ele>
        <time>2022-03-07T12:20:30.541Z</time>
      </trkpt>
      <trkpt lat="42.38855" lon="24.26731">
        <ele>478.975744</ele>
        <time>2022-03-07T12:20:34.535Z</time>
      </trkpt>
      <trkpt lat="42.38864" lon="24.26733">
        <ele>479.213138</ele>
        <time>2022-03-07T12:20:38.531Z</time>
      </trkpt>
      <trkpt lat="42.38874" lon="24.26737">
        <ele>479.46587</ele>
        <time>2022-03-07T12:20:42.553Z</time>
      </trkpt>
      <trkpt lat="42.38884" lon="24.2674">
        <ele>479.729836</ele>
        <time>2022-03-07T12:20:46.551Z</time>
      </trkpt>
      <trkpt lat="42.38894" lon="24.26742">
        <ele>479.995867</ele>
        <time>2022-03-07T12:20:50.549Z</time>
      </trkpt>
      <trkpt lat="42.38904" lon="24.26745">
        <ele>480.24776</ele>
        <time>2022-03-07T12:20:54.553Z</time>
      </trkpt>
      <trkpt lat="42.38914" lon="24.26747">
        <ele>480.50961</ele>
        <time>2022-03-07T12:20:58.539Z</time>
      </trkpt>
      <trkpt lat="42.38923" lon="24.2675">
        <ele>480.757406</ele>
        <time>2022-03-07T12:21:02.552Z</time>
      </trkpt>
      <trkpt lat="42.38932" lon="24.26752">
        <ele>480.987292</ele>
        <time>2022-03-07T12:21:06.581Z</time>
      </trkpt>
      <trkpt lat="42.38943" lon="24.26754">
        <ele>481.268516</ele>
        <time>2022-03-07T12:21:10.546Z</time>
      </trkpt>
      <trkpt lat="42.38954" lon="24.26757">
        <ele>481.564402</ele>
        <time>2022-03-07T12:21:14.561Z</time>
      </trkpt>
      <trkpt lat="42.38964" lon="24.2676">
        <ele>481.805484</ele>
        <time>2022-03-07T12:21:17.544Z</time>
      </trkpt>
      <trkpt lat="42.38973" lon="24.26762">
        <ele>482.037496</ele>
        <time>2022-03-07T12:21:20.544Z</time>
      </trkpt>
      <trkpt lat="42.38984" lon="24.26766">
        <ele>482.332243</ele>
        <time>2022-03-07T12:21:24.546Z</time>
      </trkpt>
      <trkpt lat="42.38993" lon="24.26768">
        <ele>482.575819</ele>
        <time>2022-03-07T12:21:27.545Z</time>
      </trkpt>
      <trkpt lat="42.39002" lon="24.2677">
        <ele>482.553537</ele>
        <time>2022-03-07T12:21:30.546Z</time>
      </trkpt>
      <trkpt lat="42.39012" lon="24.26772">
        <ele>482.467907</ele>
        <time>2022-03-07T12:21:33.537Z</time>
      </trkpt>
      <trkpt lat="42.39021" lon="24.26774">
        <ele>482.382602</ele>
        <time>2022-03-07T12:21:36.549Z</time>
      </trkpt>
      <trkpt lat="42.3903" lon="24.26777">
        <ele>482.294186</ele>
        <time>2022-03-07T12:21:39.597Z</time>
      </trkpt>
      <trkpt lat="42.39039" lon="24.2678">
        <ele>482.209983</ele>
        <time>2022-03-07T12:21:42.541Z</time>
      </trkpt>
      <trkpt lat="42.39048" lon="24.26782">
        <ele>482.126614</ele>
        <time>2022-03-07T12:21:45.533Z</time>
      </trkpt>
      <trkpt lat="42.39057" lon="24.26784">
        <ele>482.043602</ele>
        <time>2022-03-07T12:21:48.546Z</time>
      </trkpt>
      <trkpt lat="42.39068" lon="24.26787">
        <ele>481.9336</ele>
        <time>2022-03-07T12:21:52.545Z</time>
      </trkpt>
      <trkpt lat="42.3908" lon="24.2679">
        <ele>481.827376</ele>
        <time>2022-03-07T12:21:56.532Z</time>
      </trkpt>
      <trkpt lat="42.3909" lon="24.26793">
        <ele>481.734455</ele>
        <time>2022-03-07T12:21:59.546Z</time>
      </trkpt>
      <trkpt lat="42.391" lon="24.26795">
        <ele>481.637144</ele>
        <time>2022-03-07T12:22:02.535Z</time>
      </trkpt>
      <trkpt lat="42.39113" lon="24.26798">
        <ele>481.517842</ele>
        <time>2022-03-07T12:22:05.558Z</time>
      </trkpt>
      <trkpt lat="42.39122" lon="24.26801">
        <ele>481.432537</ele>
        <time>2022-03-07T12:22:07.552Z</time>
      </trkpt>
      <trkpt lat="42.39132" lon="24.26803">
        <ele>481.341279</ele>
        <time>2022-03-07T12:22:09.573Z</time>
      </trkpt>
      <trkpt lat="42.39142" lon="24.26806">
        <ele>481.245517</ele>
        <time>2022-03-07T12:22:11.536Z</time>
      </trkpt>
      <trkpt lat="42.39154" lon="24.26809">
        <ele>481.134496</ele>
        <time>2022-03-07T12:22:13.532Z</time>
      </trkpt>
      <trkpt lat="42.39167" lon="24.26812">
        <ele>481.013573</ele>
        <time>2022-03-07T12:22:15.547Z</time>
      </trkpt>
      <trkpt lat="42.3918" lon="24.26816">
        <ele>480.987568</ele>
        <time>2022-03-07T12:22:17.572Z</time>
      </trkpt>
      <trkpt lat="42.39193" lon="24.2682">
        <ele>481.020799</ele>
        <time>2022-03-07T12:22:19.548Z</time>
      </trkpt>
      <trkpt lat="42.39206" lon="24.26823">
        <ele>481.054628</ele>
        <time>2022-03-07T12:22:21.541Z</time>
      </trkpt>
      <trkpt lat="42.39219" lon="24.26826">
        <ele>481.085951</ele>
        <time>2022-03-07T12:22:23.543Z</time>
      </trkpt>
      <trkpt lat="42.39233" lon="24.26829">
        <ele>481.119508</ele>
        <time>2022-03-07T12:22:25.540Z</time>
      </trkpt>
      <trkpt lat="42.39245" lon="24.26832">
        <ele>481.150137</ele>
        <time>2022-03-07T12:22:27.526Z</time>
      </trkpt>
      <trkpt lat="42.39257" lon="24.26836">
        <ele>481.180259</ele>
        <time>2022-03-07T12:22:29.544Z</time>
      </trkpt>
      <trkpt lat="42.39268" lon="24.26839">
        <ele>481.208312</ele>
        <time>2022-03-07T12:22:31.542Z</time>
      </trkpt>
      <trkpt lat="42.39279" lon="24.26842">
        <ele>481.236258</ele>
        <time>2022-03-07T12:22:33.533Z</time>
      </trkpt>
      <trkpt lat="42.3929" lon="24.26845">
        <ele>481.262595</ele>
        <time>2022-03-07T12:22:35.555Z</time>
      </trkpt>
      <trkpt lat="42.39299" lon="24.26849">
        <ele>481.286914</ele>
        <time>2022-03-07T12:22:37.544Z</time>
      </trkpt>
      <trkpt lat="42.39312" lon="24.26853">
        <ele>481.318477</ele>
        <time>2022-03-07T12:22:40.553Z</time>
      </trkpt>
      <trkpt lat="42.39325" lon="24.26856">
        <ele>481.351236</ele>
        <time>2022-03-07T12:22:43.533Z</time>
      </trkpt>
      <trkpt lat="42.39338" lon="24.2686">
        <ele>481.383073</ele>
        <time>2022-03-07T12:22:46.539Z</time>
      </trkpt>
      <trkpt lat="42.39347" lon="24.26862">
        <ele>481.405425</ele>
        <time>2022-03-07T12:22:48.545Z</time>
      </trkpt>
      <trkpt lat="42.39358" lon="24.26864">
        <ele>481.711635</ele>
        <time>2022-03-07T12:22:51.558Z</time>
      </trkpt>
      <trkpt lat="42.3937" lon="24.26867">
        <ele>482.059022</ele>
        <time>2022-03-07T12:22:54.554Z</time>
      </trkpt>
      <trkpt lat="42.3938" lon="24.2687">
        <ele>482.360152</ele>
        <time>2022-03-07T12:22:57.553Z</time>
      </trkpt>
      <trkpt lat="42.39389" lon="24.26873">
        <ele>482.626048</ele>
        <time>2022-03-07T12:23:00.537Z</time>
      </trkpt>
      <trkpt lat="42.394" lon="24.26876">
        <ele>482.941783</ele>
        <time>2022-03-07T12:23:04.532Z</time>
      </trkpt>
      <trkpt lat="42.3941" lon="24.26878">
        <ele>483.238859</ele>
        <time>2022-03-07T12:23:08.555Z</time>
      </trkpt>
      <trkpt lat="42.39419" lon="24.26881">
        <ele>483.517808</ele>
        <time>2022-03-07T12:23:12.566Z</time>
      </trkpt>
      <trkpt lat="42.39429" lon="24.26883">
        <ele>483.792494</ele>
        <time>2022-03-07T12:23:16.542Z</time>
      </trkpt>
      <trkpt lat="42.39438" lon="24.26885">
        <ele>484.072356</ele>
        <time>2022-03-07T12:23:20.535Z</time>
      </trkpt>
      <trkpt lat="42.39448" lon="24.26886">
        <ele>484.366342</ele>
        <time>2022-03-07T12:23:24.539Z</time>
      </trkpt>
      <trkpt lat="42.39458" lon="24.26888">
        <ele>484.643333</ele>
        <time>2022-03-07T12:23:28.555Z</time>
      </trkpt>
      <trkpt lat="42.39467" lon="24.26889">
        <ele>484.904797</ele>
        <time>2022-03-07T12:23:32.545Z</time>
      </trkpt>
      <trkpt lat="42.39476" lon="24.26889">
        <ele>485.17967</ele>
        <time>2022-03-07T12:23:36.546Z</time>
      </trkpt>
      <trkpt lat="42.39486" lon="24.26889">
        <ele>485.457436</ele>
        <time>2022-03-07T12:23:41.557Z</time>
      </trkpt>
      <trkpt lat="42.39496" lon="24.26888">
        <ele>485.756382</ele>
        <time>2022-03-07T12:23:46.537Z</time>
      </trkpt>
      <trkpt lat="42.39507" lon="24.26888">
        <ele>486.060196</ele>
        <time>2022-03-07T12:23:51.567Z</time>
      </trkpt>
      <trkpt lat="42.39517" lon="24.26887">
        <ele>486.349819</ele>
        <time>2022-03-07T12:23:56.544Z</time>
      </trkpt>
      <trkpt lat="42.39527" lon="24.26887">
        <ele>486.59956</ele>
        <time>2022-03-07T12:24:01.538Z</time>
      </trkpt>
      <trkpt lat="42.39538" lon="24.26886">
        <ele>486.404764</ele>
        <time>2022-03-07T12:24:06.557Z</time>
      </trkpt>
      <trkpt lat="42.39548" lon="24.26887">
        <ele>486.229198</ele>
        <time>2022-03-07T12:24:10.554Z</time>
      </trkpt>
      <trkpt lat="42.3956" lon="24.26886">
        <ele>486.013148</ele>
        <time>2022-03-07T12:24:14.542Z</time>
      </trkpt>
      <trkpt lat="42.39572" lon="24.26885">
        <ele>485.805693</ele>
        <time>2022-03-07T12:24:17.540Z</time>
      </trkpt>
      <trkpt lat="42.39585" lon="24.26884">
        <ele>485.572058</ele>
        <time>2022-03-07T12:24:20.557Z</time>
      </trkpt>
      <trkpt lat="42.39595" lon="24.26883">
        <ele>485.392987</ele>
        <time>2022-03-07T12:24:22.535Z</time>
      </trkpt>
      <trkpt lat="42.39606" lon="24.26883">
        <ele>485.200036</ele>
        <time>2022-03-07T12:24:24.565Z</time>
      </trkpt>
      <trkpt lat="42.39617" lon="24.26883">
        <ele>485.00359</ele>
        <time>2022-03-07T12:24:26.546Z</time>
      </trkpt>
      <trkpt lat="42.39629" lon="24.26882">
        <ele>484.806803</ele>
        <time>2022-03-07T12:24:28.569Z</time>
      </trkpt>
      <trkpt lat="42.39641" lon="24.26881">
        <ele>484.597826</ele>
        <time>2022-03-07T12:24:30.555Z</time>
      </trkpt>
      <trkpt lat="42.39653" lon="24.26881">
        <ele>484.378522</ele>
        <time>2022-03-07T12:24:32.543Z</time>
      </trkpt>
      <trkpt lat="42.39666" lon="24.2688">
        <ele>484.146639</ele>
        <time>2022-03-07T12:24:34.541Z</time>
      </trkpt>
      <trkpt lat="42.39679" lon="24.26879">
        <ele>483.923752</ele>
        <time>2022-03-07T12:24:36.544Z</time>
      </trkpt>
      <trkpt lat="42.39692" lon="24.26879">
        <ele>483.69042</ele>
        <time>2022-03-07T12:24:38.534Z</time>
      </trkpt>
      <trkpt lat="42.39705" lon="24.26878">
        <ele>483.471039</ele>
        <time>2022-03-07T12:24:40.543Z</time>
      </trkpt>
      <trkpt lat="42.39717" lon="24.26878">
        <ele>483.355136</ele>
        <time>2022-03-07T12:24:42.539Z</time>
      </trkpt>
      <trkpt lat="42.39728" lon="24.26877">
        <ele>483.251173</ele>
        <time>2022-03-07T12:24:44.547Z</time>
      </trkpt>
      <trkpt lat="42.39739" lon="24.26877">
        <ele>483.152585</ele>
        <time>2022-03-07T12:24:46.614Z</time>
      </trkpt>
      <trkpt lat="42.3975" lon="24.26876">
        <ele>483.0549</ele>
        <time>2022-03-07T12:24:48.545Z</time>
      </trkpt>
      <trkpt lat="42.39761" lon="24.26875">
        <ele>482.959859</ele>
        <time>2022-03-07T12:24:50.582Z</time>
      </trkpt>
      <trkpt lat="42.39771" lon="24.26876">
        <ele>482.867676</ele>
        <time>2022-03-07T12:24:52.597Z</time>
      </trkpt>
      <trkpt lat="42.3978" lon="24.26875">
        <ele>482.783606</ele>
        <time>2022-03-07T12:24:54.573Z</time>
      </trkpt>
      <trkpt lat="42.39793" lon="24.26875">
        <ele>482.664312</ele>
        <time>2022-03-07T12:24:57.546Z</time>
      </trkpt>
      <trkpt lat="42.39807" lon="24.26876">
        <ele>482.544049</ele>
        <time>2022-03-07T12:25:00.557Z</time>
      </trkpt>
      <trkpt lat="42.39816" lon="24.26876">
        <ele>482.458195</ele>
        <time>2022-03-07T12:25:02.539Z</time>
      </trkpt>
      <trkpt lat="42.3983" lon="24.26875">
        <ele>482.334296</ele>
        <time>2022-03-07T12:25:05.571Z</time>
      </trkpt>
      <trkpt lat="42.39839" lon="24.26874">
        <ele>482.25008</ele>
        <time>2022-03-07T12:25:07.575Z</time>
      </trkpt>
      <trkpt lat="42.39852" lon="24.26873">
        <ele>482.130637</ele>
        <time>2022-03-07T12:25:10.556Z</time>
      </trkpt>
      <trkpt lat="42.39865" lon="24.26872">
        <ele>482.014804</ele>
        <time>2022-03-07T12:25:13.554Z</time>
      </trkpt>
      <trkpt lat="42.39878" lon="24.26872">
        <ele>481.898101</ele>
        <time>2022-03-07T12:25:16.543Z</time>
      </trkpt>
      <trkpt lat="42.39891" lon="24.26871">
        <ele>482.055555</ele>
        <time>2022-03-07T12:25:19.556Z</time>
      </trkpt>
      <trkpt lat="42.39903" lon="24.26871">
        <ele>482.551425</ele>
        <time>2022-03-07T12:25:22.546Z</time>
      </trkpt>
      <trkpt lat="42.39914" lon="24.26871">
        <ele>483.01007</ele>
        <time>2022-03-07T12:25:25.563Z</time>
      </trkpt>
      <trkpt lat="42.39923" lon="24.26871">
        <ele>483.406783</ele>
        <time>2022-03-07T12:25:28.565Z</time>
      </trkpt>
      <trkpt lat="42.39933" lon="24.26871">
        <ele>483.786934</ele>
        <time>2022-03-07T12:25:31.547Z</time>
      </trkpt>
      <trkpt lat="42.39942" lon="24.2687">
        <ele>484.159421</ele>
        <time>2022-03-07T12:25:34.552Z</time>
      </trkpt>
      <trkpt lat="42.39953" lon="24.26869">
        <ele>484.623012</ele>
        <time>2022-03-07T12:25:38.558Z</time>
      </trkpt>
      <trkpt lat="42.39964" lon="24.26869">
        <ele>485.082306</ele>
        <time>2022-03-07T12:25:42.541Z</time>
      </trkpt>
      <trkpt lat="42.39975" lon="24.26868">
        <ele>485.541113</ele>
        <time>2022-03-07T12:25:46.544Z</time>
      </trkpt>
      <trkpt lat="42.39986" lon="24.26868">
        <ele>485.995995</ele>
        <time>2022-03-07T12:25:50.564Z</time>
      </trkpt>
      <trkpt lat="42.39996" lon="24.26867">
        <ele>486.417729</ele>
        <time>2022-03-07T12:25:54.553Z</time>
      </trkpt>
      <trkpt lat="42.40007" lon="24.26866">
        <ele>486.882764</ele>
        <time>2022-03-07T12:25:59.551Z</time>
      </trkpt>
      <trkpt lat="42.40017" lon="24.26865">
        <ele>487.263892</ele>
        <time>2022-03-07T12:26:03.558Z</time>
      </trkpt>
      <trkpt lat="42.40027" lon="24.26863">
        <ele>487.701208</ele>
        <time>2022-03-07T12:26:08.549Z</time>
      </trkpt>
      <trkpt lat="42.40036" lon="24.2686">
        <ele>488.09421</ele>
        <time>2022-03-07T12:26:13.541Z</time>
      </trkpt>
      <trkpt lat="42.40046" lon="24.26856">
        <ele>488.530769</ele>
        <time>2022-03-07T12:26:19.552Z</time>
      </trkpt>
      <trkpt lat="42.40056" lon="24.26851">
        <ele>488.947642</ele>
        <time>2022-03-07T12:26:24.563Z</time>
      </trkpt>
      <trkpt lat="42.40065" lon="24.26846">
        <ele>489.24199</ele>
        <time>2022-03-07T12:26:28.577Z</time>
      </trkpt>
      <trkpt lat="42.40074" lon="24.2684">
        <ele>489.123024</ele>
        <time>2022-03-07T12:26:32.561Z</time>
      </trkpt>
      <trkpt lat="42.40084" lon="24.26833">
        <ele>488.991513</ele>
        <time>2022-03-07T12:26:36.563Z</time>
      </trkpt>
      <trkpt lat="42.40093" lon="24.26827">
        <ele>488.869559</ele>
        <time>2022-03-07T12:26:40.547Z</time>
      </trkpt>
      <trkpt lat="42.40101" lon="24.26821">
        <ele>488.762167</ele>
        <time>2022-03-07T12:26:43.537Z</time>
      </trkpt>
      <trkpt lat="42.4011" lon="24.26816">
        <ele>488.651821</ele>
        <time>2022-03-07T12:26:46.576Z</time>
      </trkpt>
      <trkpt lat="42.40118" lon="24.26809">
        <ele>488.543518</ele>
        <time>2022-03-07T12:26:49.553Z</time>
      </trkpt>
      <trkpt lat="42.40128" lon="24.26802">
        <ele>488.403152</ele>
        <time>2022-03-07T12:26:52.559Z</time>
      </trkpt>
      <trkpt lat="42.4014" lon="24.26794">
        <ele>488.251584</ele>
        <time>2022-03-07T12:26:55.540Z</time>
      </trkpt>
      <trkpt lat="42.40152" lon="24.26786">
        <ele>488.093324</ele>
        <time>2022-03-07T12:26:58.548Z</time>
      </trkpt>
      <trkpt lat="42.40164" lon="24.26778">
        <ele>487.937312</ele>
        <time>2022-03-07T12:27:01.593Z</time>
      </trkpt>
      <trkpt lat="42.40172" lon="24.26772">
        <ele>487.831347</ele>
        <time>2022-03-07T12:27:03.598Z</time>
      </trkpt>
      <trkpt lat="42.40181" lon="24.26767">
        <ele>487.720409</ele>
        <time>2022-03-07T12:27:05.558Z</time>
      </trkpt>
      <trkpt lat="42.40189" lon="24.26761">
        <ele>487.610301</ele>
        <time>2022-03-07T12:27:07.570Z</time>
      </trkpt>
      <trkpt lat="42.40197" lon="24.26755">
        <ele>487.498754</ele>
        <time>2022-03-07T12:27:09.547Z</time>
      </trkpt>
      <trkpt lat="42.40205" lon="24.26749">
        <ele>487.392023</ele>
        <time>2022-03-07T12:27:11.552Z</time>
      </trkpt>
      <trkpt lat="42.40213" lon="24.26742">
        <ele>487.282008</ele>
        <time>2022-03-07T12:27:13.551Z</time>
      </trkpt>
      <trkpt lat="42.40221" lon="24.26734">
        <ele>487.170567</ele>
        <time>2022-03-07T12:27:15.568Z</time>
      </trkpt>
      <trkpt lat="42.40229" lon="24.26726">
        <ele>487.025607</ele>
        <time>2022-03-07T12:27:17.560Z</time>
      </trkpt>
      <trkpt lat="42.40236" lon="24.26717">
        <ele>486.873115</ele>
        <time>2022-03-07T12:27:19.589Z</time>
      </trkpt>
      <trkpt lat="42.40243" lon="24.26707">
        <ele>486.723284</ele>
        <time>2022-03-07T12:27:21.547Z</time>
      </trkpt>
      <trkpt lat="42.40249" lon="24.26697">
        <ele>486.579434</ele>
        <time>2022-03-07T12:27:23.580Z</time>
      </trkpt>
      <trkpt lat="42.40255" lon="24.26687">
        <ele>486.432757</ele>
        <time>2022-03-07T12:27:25.551Z</time>
      </trkpt>
      <trkpt lat="42.40261" lon="24.26677">
        <ele>486.289159</ele>
        <time>2022-03-07T12:27:27.552Z</time>
      </trkpt>
      <trkpt lat="42.40267" lon="24.26667">
        <ele>486.1447</ele>
        <time>2022-03-07T12:27:29.579Z</time>
      </trkpt>
      <trkpt lat="42.40272" lon="24.26656">
        <ele>485.996624</ele>
        <time>2022-03-07T12:27:31.542Z</time>
      </trkpt>
      <trkpt lat="42.40278" lon="24.26646">
        <ele>485.850354</ele>
        <time>2022-03-07T12:27:33.548Z</time>
      </trkpt>
      <trkpt lat="42.40284" lon="24.26636">
        <ele>485.709498</ele>
        <time>2022-03-07T12:27:35.542Z</time>
      </trkpt>
      <trkpt lat="42.40289" lon="24.26626">
        <ele>485.568654</ele>
        <time>2022-03-07T12:27:37.550Z</time>
      </trkpt>
      <trkpt lat="42.40297" lon="24.26611">
        <ele>485.368221</ele>
        <time>2022-03-07T12:27:40.593Z</time>
      </trkpt>
      <trkpt lat="42.40303" lon="24.26602">
        <ele>485.231711</ele>
        <time>2022-03-07T12:27:42.554Z</time>
      </trkpt>
      <trkpt lat="42.40309" lon="24.26592">
        <ele>485.086022</ele>
        <time>2022-03-07T12:27:44.544Z</time>
      </trkpt>
      <trkpt lat="42.40316" lon="24.26582">
        <ele>484.931663</ele>
        <time>2022-03-07T12:27:46.550Z</time>
      </trkpt>
      <trkpt lat="42.40325" lon="24.26573">
        <ele>484.755954</ele>
        <time>2022-03-07T12:27:48.625Z</time>
      </trkpt>
      <trkpt lat="42.40337" lon="24.26565">
        <ele>484.562693</ele>
        <time>2022-03-07T12:27:50.554Z</time>
      </trkpt>
      <trkpt lat="42.40349" lon="24.26559">
        <ele>484.310798</ele>
        <time>2022-03-07T12:27:52.553Z</time>
      </trkpt>
      <trkpt lat="42.40361" lon="24.26556">
        <ele>483.9311</ele>
        <time>2022-03-07T12:27:54.574Z</time>
      </trkpt>
      <trkpt lat="42.40374" lon="24.26556">
        <ele>483.548681</ele>
        <time>2022-03-07T12:27:56.571Z</time>
      </trkpt>
      <trkpt lat="42.40386" lon="24.26562">
        <ele>483.158451</ele>
        <time>2022-03-07T12:27:58.551Z</time>
      </trkpt>
      <trkpt lat="42.40395" lon="24.26572">
        <ele>482.790075</ele>
        <time>2022-03-07T12:28:00.550Z</time>
      </trkpt>
      <trkpt lat="42.40401" lon="24.26585">
        <ele>482.45734</ele>
        <time>2022-03-07T12:28:02.676Z</time>
      </trkpt>
      <trkpt lat="42.40406" lon="24.26598">
        <ele>482.113518</ele>
        <time>2022-03-07T12:28:04.567Z</time>
      </trkpt>
      <trkpt lat="42.40411" lon="24.26612">
        <ele>481.770886</ele>
        <time>2022-03-07T12:28:06.541Z</time>
      </trkpt>
      <trkpt lat="42.40418" lon="24.26626">
        <ele>481.398075</ele>
        <time>2022-03-07T12:28:08.552Z</time>
      </trkpt>
      <trkpt lat="42.40425" lon="24.26642">
        <ele>480.985161</ele>
        <time>2022-03-07T12:28:10.574Z</time>
      </trkpt>
      <trkpt lat="42.40432" lon="24.26657">
        <ele>480.579572</ele>
        <time>2022-03-07T12:28:12.558Z</time>
      </trkpt>
      <trkpt lat="42.40439" lon="24.26673">
        <ele>480.16</ele>
        <time>2022-03-07T12:28:14.563Z</time>
      </trkpt>
      <trkpt lat="42.40446" lon="24.26688">
        <ele>479.758834</ele>
        <time>2022-03-07T12:28:16.543Z</time>
      </trkpt>
      <trkpt lat="42.40452" lon="24.26704">
        <ele>479.360869</ele>
        <time>2022-03-07T12:28:18.582Z</time>
      </trkpt>
      <trkpt lat="42.40458" lon="24.26719">
        <ele>478.976836</ele>
        <time>2022-03-07T12:28:20.558Z</time>
      </trkpt>
      <trkpt lat="42.40463" lon="24.26734">
        <ele>478.806751</ele>
        <time>2022-03-07T12:28:22.543Z</time>
      </trkpt>
      <trkpt lat="42.40467" lon="24.26749">
        <ele>478.644892</ele>
        <time>2022-03-07T12:28:24.543Z</time>
      </trkpt>
      <trkpt lat="42.40471" lon="24.26764">
        <ele>478.486328</ele>
        <time>2022-03-07T12:28:26.565Z</time>
      </trkpt>
      <trkpt lat="42.40474" lon="24.26779">
        <ele>478.337727</ele>
        <time>2022-03-07T12:28:28.557Z</time>
      </trkpt>
      <trkpt lat="42.40477" lon="24.26793">
        <ele>478.192376</ele>
        <time>2022-03-07T12:28:30.547Z</time>
      </trkpt>
      <trkpt lat="42.4048" lon="24.26806">
        <ele>478.050369</ele>
        <time>2022-03-07T12:28:32.550Z</time>
      </trkpt>
      <trkpt lat="42.40483" lon="24.26819">
        <ele>477.918002</ele>
        <time>2022-03-07T12:28:34.542Z</time>
      </trkpt>
      <trkpt lat="42.40485" lon="24.26832">
        <ele>477.784048</ele>
        <time>2022-03-07T12:28:36.562Z</time>
      </trkpt>
      <trkpt lat="42.40487" lon="24.26846">
        <ele>477.64783</ele>
        <time>2022-03-07T12:28:38.567Z</time>
      </trkpt>
      <trkpt lat="42.4049" lon="24.26858">
        <ele>477.515187</ele>
        <time>2022-03-07T12:28:40.543Z</time>
      </trkpt>
      <trkpt lat="42.40492" lon="24.26871">
        <ele>477.390866</ele>
        <time>2022-03-07T12:28:42.566Z</time>
      </trkpt>
      <trkpt lat="42.40494" lon="24.26883">
        <ele>477.260946</ele>
        <time>2022-03-07T12:28:44.552Z</time>
      </trkpt>
      <trkpt lat="42.40496" lon="24.26897">
        <ele>477.123657</ele>
        <time>2022-03-07T12:28:46.545Z</time>
      </trkpt>
      <trkpt lat="42.40498" lon="24.26909">
        <ele>476.99553</ele>
        <time>2022-03-07T12:28:48.557Z</time>
      </trkpt>
      <trkpt lat="42.40501" lon="24.26927">
        <ele>476.817705</ele>
        <time>2022-03-07T12:28:51.595Z</time>
      </trkpt>
      <trkpt lat="42.40503" lon="24.26939">
        <ele>476.696018</ele>
        <time>2022-03-07T12:28:53.547Z</time>
      </trkpt>
      <trkpt lat="42.40505" lon="24.26951">
        <ele>476.572083</ele>
        <time>2022-03-07T12:28:55.539Z</time>
      </trkpt>
      <trkpt lat="42.40507" lon="24.26963">
        <ele>476.466916</ele>
        <time>2022-03-07T12:28:57.567Z</time>
      </trkpt>
      <trkpt lat="42.4051" lon="24.26975">
        <ele>476.369934</ele>
        <time>2022-03-07T12:28:59.537Z</time>
      </trkpt>
      <trkpt lat="42.40512" lon="24.26987">
        <ele>476.26862</ele>
        <time>2022-03-07T12:29:01.542Z</time>
      </trkpt>
      <trkpt lat="42.40514" lon="24.26999">
        <ele>476.170372</ele>
        <time>2022-03-07T12:29:03.551Z</time>
      </trkpt>
      <trkpt lat="42.40516" lon="24.27012">
        <ele>476.071297</ele>
        <time>2022-03-07T12:29:05.574Z</time>
      </trkpt>
      <trkpt lat="42.40518" lon="24.27024">
        <ele>475.971755</ele>
        <time>2022-03-07T12:29:07.536Z</time>
      </trkpt>
      <trkpt lat="42.40523" lon="24.27041">
        <ele>475.831216</ele>
        <time>2022-03-07T12:29:10.538Z</time>
      </trkpt>
      <trkpt lat="42.40529" lon="24.27055">
        <ele>475.699643</ele>
        <time>2022-03-07T12:29:13.581Z</time>
      </trkpt>
      <trkpt lat="42.40538" lon="24.27068">
        <ele>475.555798</ele>
        <time>2022-03-07T12:29:16.564Z</time>
      </trkpt>
      <trkpt lat="42.40547" lon="24.27075">
        <ele>475.451305</ele>
        <time>2022-03-07T12:29:18.567Z</time>
      </trkpt>
      <trkpt lat="42.40557" lon="24.2708">
        <ele>475.339028</ele>
        <time>2022-03-07T12:29:20.565Z</time>
      </trkpt>
      <trkpt lat="42.40568" lon="24.27083">
        <ele>475.215258</ele>
        <time>2022-03-07T12:29:22.546Z</time>
      </trkpt>
      <trkpt lat="42.40579" lon="24.27087">
        <ele>475.092348</ele>
        <time>2022-03-07T12:29:24.548Z</time>
      </trkpt>
      <trkpt lat="42.4059" lon="24.27091">
        <ele>474.969065</ele>
        <time>2022-03-07T12:29:26.541Z</time>
      </trkpt>
      <trkpt lat="42.40602" lon="24.27095">
        <ele>474.842672</ele>
        <time>2022-03-07T12:29:28.558Z</time>
      </trkpt>
      <trkpt lat="42.40613" lon="24.27098">
        <ele>474.718519</ele>
        <time>2022-03-07T12:29:30.551Z</time>
      </trkpt>
      <trkpt lat="42.40625" lon="24.271">
        <ele>474.46735</ele>
        <time>2022-03-07T12:29:32.562Z</time>
      </trkpt>
      <trkpt lat="42.40638" lon="24.27101">
        <ele>473.741872</ele>
        <time>2022-03-07T12:29:34.559Z</time>
      </trkpt>
      <trkpt lat="42.40653" lon="24.271">
        <ele>472.915367</ele>
        <time>2022-03-07T12:29:36.558Z</time>
      </trkpt>
      <trkpt lat="42.40667" lon="24.27098">
        <ele>472.077051</ele>
        <time>2022-03-07T12:29:38.568Z</time>
      </trkpt>
      <trkpt lat="42.40682" lon="24.27094">
        <ele>471.251658</ele>
        <time>2022-03-07T12:29:40.562Z</time>
      </trkpt>
      <trkpt lat="42.40695" lon="24.27089">
        <ele>470.447497</ele>
        <time>2022-03-07T12:29:42.552Z</time>
      </trkpt>
      <trkpt lat="42.4071" lon="24.27084">
        <ele>469.585395</ele>
        <time>2022-03-07T12:29:44.586Z</time>
      </trkpt>
      <trkpt lat="42.40726" lon="24.2708">
        <ele>468.653471</ele>
        <time>2022-03-07T12:29:46.518Z</time>
      </trkpt>
      <trkpt lat="42.40743" lon="24.27075">
        <ele>467.685705</ele>
        <time>2022-03-07T12:29:48.550Z</time>
      </trkpt>
      <trkpt lat="42.4076" lon="24.27069">
        <ele>466.693106</ele>
        <time>2022-03-07T12:29:50.540Z</time>
      </trkpt>
      <trkpt lat="42.40776" lon="24.27065">
        <ele>465.748342</ele>
        <time>2022-03-07T12:29:52.544Z</time>
      </trkpt>
      <trkpt lat="42.40793" lon="24.27059">
        <ele>464.800782</ele>
        <time>2022-03-07T12:29:54.541Z</time>
      </trkpt>
      <trkpt lat="42.4081" lon="24.27054">
        <ele>463.896574</ele>
        <time>2022-03-07T12:29:56.551Z</time>
      </trkpt>
      <trkpt lat="42.40819" lon="24.27051">
        <ele>463.443827</ele>
        <time>2022-03-07T12:29:57.547Z</time>
      </trkpt>
      <trkpt lat="42.40829" lon="24.27048">
        <ele>462.976448</ele>
        <time>2022-03-07T12:29:58.531Z</time>
      </trkpt>
      <trkpt lat="42.40838" lon="24.27045">
        <ele>462.522877</ele>
        <time>2022-03-07T12:29:59.545Z</time>
      </trkpt>
      <trkpt lat="42.40848" lon="24.27042">
        <ele>462.06091</ele>
        <time>2022-03-07T12:30:00.538Z</time>
      </trkpt>
      <trkpt lat="42.40857" lon="24.27039">
        <ele>461.600481</ele>
        <time>2022-03-07T12:30:01.535Z</time>
      </trkpt>
      <trkpt lat="42.40867" lon="24.27036">
        <ele>461.149302</ele>
        <time>2022-03-07T12:30:02.575Z</time>
      </trkpt>
      <trkpt lat="42.40876" lon="24.27033">
        <ele>460.701966</ele>
        <time>2022-03-07T12:30:03.541Z</time>
      </trkpt>
      <trkpt lat="42.40885" lon="24.2703">
        <ele>460.250015</ele>
        <time>2022-03-07T12:30:04.549Z</time>
      </trkpt>
      <trkpt lat="42.40894" lon="24.27028">
        <ele>459.798837</ele>
        <time>2022-03-07T12:30:05.548Z</time>
      </trkpt>
      <trkpt lat="42.40904" lon="24.27025">
        <ele>459.3515</ele>
        <time>2022-03-07T12:30:06.565Z</time>
      </trkpt>
      <trkpt lat="42.40913" lon="24.27022">
        <ele>458.904944</ele>
        <time>2022-03-07T12:30:07.535Z</time>
      </trkpt>
      <trkpt lat="42.40922" lon="24.27019">
        <ele>458.463768</ele>
        <time>2022-03-07T12:30:08.556Z</time>
      </trkpt>
      <trkpt lat="42.40931" lon="24.27016">
        <ele>458.017964</ele>
        <time>2022-03-07T12:30:09.556Z</time>
      </trkpt>
      <trkpt lat="42.4094" lon="24.27014">
        <ele>457.576788</ele>
        <time>2022-03-07T12:30:10.550Z</time>
      </trkpt>
      <trkpt lat="42.40949" lon="24.27011">
        <ele>457.130985</ele>
        <time>2022-03-07T12:30:11.586Z</time>
      </trkpt>
      <trkpt lat="42.40958" lon="24.27008">
        <ele>456.693665</ele>
        <time>2022-03-07T12:30:12.538Z</time>
      </trkpt>
      <trkpt lat="42.40968" lon="24.27006">
        <ele>456.247862</ele>
        <time>2022-03-07T12:30:13.568Z</time>
      </trkpt>
      <trkpt lat="42.40977" lon="24.27003">
        <ele>455.840217</ele>
        <time>2022-03-07T12:30:14.547Z</time>
      </trkpt>
      <trkpt lat="42.40986" lon="24.27">
        <ele>455.553023</ele>
        <time>2022-03-07T12:30:15.562Z</time>
      </trkpt>
      <trkpt lat="42.40995" lon="24.26997">
        <ele>455.264755</ele>
        <time>2022-03-07T12:30:16.534Z</time>
      </trkpt>
      <trkpt lat="42.41004" lon="24.26994">
        <ele>454.981066</ele>
        <time>2022-03-07T12:30:17.551Z</time>
      </trkpt>
      <trkpt lat="42.41013" lon="24.26991">
        <ele>454.698358</ele>
        <time>2022-03-07T12:30:18.543Z</time>
      </trkpt>
      <trkpt lat="42.41022" lon="24.26989">
        <ele>454.419124</ele>
        <time>2022-03-07T12:30:19.534Z</time>
      </trkpt>
      <trkpt lat="42.41031" lon="24.26986">
        <ele>454.142422</ele>
        <time>2022-03-07T12:30:20.548Z</time>
      </trkpt>
      <trkpt lat="42.41048" lon="24.26981">
        <ele>453.599495</ele>
        <time>2022-03-07T12:30:22.534Z</time>
      </trkpt>
      <trkpt lat="42.41065" lon="24.26975">
        <ele>453.076066</ele>
        <time>2022-03-07T12:30:24.570Z</time>
      </trkpt>
      <trkpt lat="42.4108" lon="24.26971">
        <ele>452.594595</ele>
        <time>2022-03-07T12:30:26.561Z</time>
      </trkpt>
      <trkpt lat="42.41094" lon="24.26968">
        <ele>452.146299</ele>
        <time>2022-03-07T12:30:28.539Z</time>
      </trkpt>
      <trkpt lat="42.41107" lon="24.26966">
        <ele>451.745667</ele>
        <time>2022-03-07T12:30:30.547Z</time>
      </trkpt>
      <trkpt lat="42.41122" lon="24.26969">
        <ele>451.282206</ele>
        <time>2022-03-07T12:30:32.542Z</time>
      </trkpt>
      <trkpt lat="42.41137" lon="24.26979">
        <ele>450.772612</ele>
        <time>2022-03-07T12:30:34.558Z</time>
      </trkpt>
      <trkpt lat="42.41149" lon="24.26992">
        <ele>450.310923</ele>
        <time>2022-03-07T12:30:36.555Z</time>
      </trkpt>
      <trkpt lat="42.41159" lon="24.27006">
        <ele>449.887367</ele>
        <time>2022-03-07T12:30:38.551Z</time>
      </trkpt>
      <trkpt lat="42.41168" lon="24.27022">
        <ele>449.455869</ele>
        <time>2022-03-07T12:30:40.539Z</time>
      </trkpt>
      <trkpt lat="42.41177" lon="24.27039">
        <ele>448.989548</ele>
        <time>2022-03-07T12:30:42.549Z</time>
      </trkpt>
      <trkpt lat="42.41184" lon="24.27059">
        <ele>448.513342</ele>
        <time>2022-03-07T12:30:44.550Z</time>
      </trkpt>
      <trkpt lat="42.41187" lon="24.27081">
        <ele>448.034276</ele>
        <time>2022-03-07T12:30:46.540Z</time>
      </trkpt>
      <trkpt lat="42.41186" lon="24.27103">
        <ele>447.551268</ele>
        <time>2022-03-07T12:30:48.547Z</time>
      </trkpt>
      <trkpt lat="42.41182" lon="24.27124">
        <ele>447.089842</ele>
        <time>2022-03-07T12:30:50.551Z</time>
      </trkpt>
      <trkpt lat="42.41178" lon="24.27144">
        <ele>446.643203</ele>
        <time>2022-03-07T12:30:52.565Z</time>
      </trkpt>
      <trkpt lat="42.41175" lon="24.27164">
        <ele>446.196389</ele>
        <time>2022-03-07T12:30:54.552Z</time>
      </trkpt>
      <trkpt lat="42.41171" lon="24.27185">
        <ele>445.740661</ele>
        <time>2022-03-07T12:30:56.553Z</time>
      </trkpt>
      <trkpt lat="42.41168" lon="24.27205">
        <ele>445.296796</ele>
        <time>2022-03-07T12:30:58.547Z</time>
      </trkpt>
      <trkpt lat="42.41165" lon="24.27223">
        <ele>444.682875</ele>
        <time>2022-03-07T12:31:00.545Z</time>
      </trkpt>
      <trkpt lat="42.41163" lon="24.27242">
        <ele>443.92962</ele>
        <time>2022-03-07T12:31:02.562Z</time>
      </trkpt>
      <trkpt lat="42.4116" lon="24.27262">
        <ele>443.122479</ele>
        <time>2022-03-07T12:31:04.542Z</time>
      </trkpt>
      <trkpt lat="42.41157" lon="24.27281">
        <ele>442.356139</ele>
        <time>2022-03-07T12:31:06.551Z</time>
      </trkpt>
      <trkpt lat="42.41155" lon="24.27296">
        <ele>441.742911</ele>
        <time>2022-03-07T12:31:08.556Z</time>
      </trkpt>
      <trkpt lat="42.41154" lon="24.27311">
        <ele>441.133101</ele>
        <time>2022-03-07T12:31:11.539Z</time>
      </trkpt>
      <trkpt lat="42.41159" lon="24.27323">
        <ele>440.598065</ele>
        <time>2022-03-07T12:31:14.546Z</time>
      </trkpt>
      <trkpt lat="42.41168" lon="24.27332">
        <ele>439.954603</ele>
        <time>2022-03-07T12:31:17.547Z</time>
      </trkpt>
      <trkpt lat="42.41182" lon="24.27331">
        <ele>439.235542</ele>
        <time>2022-03-07T12:31:20.553Z</time>
      </trkpt>
      <trkpt lat="42.41192" lon="24.27323">
        <ele>438.592077</ele>
        <time>2022-03-07T12:31:22.556Z</time>
      </trkpt>
      <trkpt lat="42.41203" lon="24.27313">
        <ele>437.89039</ele>
        <time>2022-03-07T12:31:24.575Z</time>
      </trkpt>
      <trkpt lat="42.41213" lon="24.27303">
        <ele>437.192772</ele>
        <time>2022-03-07T12:31:26.553Z</time>
      </trkpt>
      <trkpt lat="42.41224" lon="24.27293">
        <ele>436.506898</ele>
        <time>2022-03-07T12:31:28.541Z</time>
      </trkpt>
      <trkpt lat="42.41235" lon="24.27284">
        <ele>435.799918</ele>
        <time>2022-03-07T12:31:30.544Z</time>
      </trkpt>
      <trkpt lat="42.41248" lon="24.27278">
        <ele>435.094198</ele>
        <time>2022-03-07T12:31:32.548Z</time>
      </trkpt>
      <trkpt lat="42.41262" lon="24.27276">
        <ele>434.444213</ele>
        <time>2022-03-07T12:31:34.537Z</time>
      </trkpt>
      <trkpt lat="42.41276" lon="24.27279">
        <ele>433.738738</ele>
        <time>2022-03-07T12:31:36.546Z</time>
      </trkpt>
      <trkpt lat="42.41291" lon="24.27286">
        <ele>433.015962</ele>
        <time>2022-03-07T12:31:38.539Z</time>
      </trkpt>
      <trkpt lat="42.41305" lon="24.27295">
        <ele>432.251578</ele>
        <time>2022-03-07T12:31:40.556Z</time>
      </trkpt>
      <trkpt lat="42.4132" lon="24.27304">
        <ele>431.491712</ele>
        <time>2022-03-07T12:31:42.557Z</time>
      </trkpt>
      <trkpt lat="42.41333" lon="24.27313">
        <ele>430.780728</ele>
        <time>2022-03-07T12:31:44.539Z</time>
      </trkpt>
      <trkpt lat="42.41346" lon="24.27322">
        <ele>430.106915</ele>
        <time>2022-03-07T12:31:46.547Z</time>
      </trkpt>
      <trkpt lat="42.41358" lon="24.27331">
        <ele>429.459336</ele>
        <time>2022-03-07T12:31:48.554Z</time>
      </trkpt>
      <trkpt lat="42.4137" lon="24.27339">
        <ele>428.790797</ele>
        <time>2022-03-07T12:31:50.549Z</time>
      </trkpt>
      <trkpt lat="42.41384" lon="24.27349">
        <ele>428.056177</ele>
        <time>2022-03-07T12:31:52.581Z</time>
      </trkpt>
      <trkpt lat="42.41398" lon="24.27358">
        <ele>427.317732</ele>
        <time>2022-03-07T12:31:54.526Z</time>
      </trkpt>
      <trkpt lat="42.41412" lon="24.27366">
        <ele>426.565709</ele>
        <time>2022-03-07T12:31:56.545Z</time>
      </trkpt>
      <trkpt lat="42.41425" lon="24.27371">
        <ele>425.769657</ele>
        <time>2022-03-07T12:31:58.552Z</time>
      </trkpt>
      <trkpt lat="42.41437" lon="24.27371">
        <ele>425.05499</ele>
        <time>2022-03-07T12:32:00.559Z</time>
      </trkpt>
      <trkpt lat="42.41448" lon="24.27368">
        <ele>424.393124</ele>
        <time>2022-03-07T12:32:02.544Z</time>
      </trkpt>
      <trkpt lat="42.41459" lon="24.27361">
        <ele>423.667086</ele>
        <time>2022-03-07T12:32:04.548Z</time>
      </trkpt>
      <trkpt lat="42.4147" lon="24.27351">
        <ele>422.890159</ele>
        <time>2022-03-07T12:32:06.532Z</time>
      </trkpt>
      <trkpt lat="42.41481" lon="24.27341">
        <ele>422.098863</ele>
        <time>2022-03-07T12:32:08.545Z</time>
      </trkpt>
      <trkpt lat="42.41491" lon="24.27332">
        <ele>421.387768</ele>
        <time>2022-03-07T12:32:10.560Z</time>
      </trkpt>
      <trkpt lat="42.41501" lon="24.27323">
        <ele>420.711259</ele>
        <time>2022-03-07T12:32:12.556Z</time>
      </trkpt>
      <trkpt lat="42.4151" lon="24.27314">
        <ele>420.004708</ele>
        <time>2022-03-07T12:32:14.571Z</time>
      </trkpt>
      <trkpt lat="42.4152" lon="24.27304">
        <ele>419.269482</ele>
        <time>2022-03-07T12:32:16.544Z</time>
      </trkpt>
      <trkpt lat="42.41531" lon="24.27294">
        <ele>418.483063</ele>
        <time>2022-03-07T12:32:18.544Z</time>
      </trkpt>
      <trkpt lat="42.41543" lon="24.27283">
        <ele>417.66733</ele>
        <time>2022-03-07T12:32:20.557Z</time>
      </trkpt>
      <trkpt lat="42.41554" lon="24.27273">
        <ele>416.841844</ele>
        <time>2022-03-07T12:32:22.548Z</time>
      </trkpt>
      <trkpt lat="42.41566" lon="24.27262">
        <ele>416.001876</ele>
        <time>2022-03-07T12:32:24.554Z</time>
      </trkpt>
      <trkpt lat="42.41578" lon="24.27253">
        <ele>415.256359</ele>
        <time>2022-03-07T12:32:26.550Z</time>
      </trkpt>
      <trkpt lat="42.41588" lon="24.27244">
        <ele>414.573558</ele>
        <time>2022-03-07T12:32:28.560Z</time>
      </trkpt>
      <trkpt lat="42.41597" lon="24.27237">
        <ele>413.950984</ele>
        <time>2022-03-07T12:32:30.541Z</time>
      </trkpt>
      <trkpt lat="42.41606" lon="24.27229">
        <ele>413.335803</ele>
        <time>2022-03-07T12:32:32.551Z</time>
      </trkpt>
      <trkpt lat="42.41616" lon="24.27221">
        <ele>412.709965</ele>
        <time>2022-03-07T12:32:34.544Z</time>
      </trkpt>
      <trkpt lat="42.41626" lon="24.27215">
        <ele>412.049357</ele>
        <time>2022-03-07T12:32:36.561Z</time>
      </trkpt>
      <trkpt lat="42.41638" lon="24.27207">
        <ele>411.304093</ele>
        <time>2022-03-07T12:32:38.556Z</time>
      </trkpt>
      <trkpt lat="42.41651" lon="24.272">
        <ele>410.548342</ele>
        <time>2022-03-07T12:32:40.547Z</time>
      </trkpt>
      <trkpt lat="42.41662" lon="24.27193">
        <ele>409.825362</ele>
        <time>2022-03-07T12:32:42.578Z</time>
      </trkpt>
      <trkpt lat="42.41673" lon="24.27187">
        <ele>409.164832</ele>
        <time>2022-03-07T12:32:44.546Z</time>
      </trkpt>
      <trkpt lat="42.41683" lon="24.27181">
        <ele>408.519795</ele>
        <time>2022-03-07T12:32:46.554Z</time>
      </trkpt>
      <trkpt lat="42.41694" lon="24.27175">
        <ele>407.867537</ele>
        <time>2022-03-07T12:32:48.548Z</time>
      </trkpt>
      <trkpt lat="42.41705" lon="24.27168">
        <ele>407.177583</ele>
        <time>2022-03-07T12:32:50.557Z</time>
      </trkpt>
      <trkpt lat="42.41717" lon="24.27162">
        <ele>406.452565</ele>
        <time>2022-03-07T12:32:52.547Z</time>
      </trkpt>
      <trkpt lat="42.41729" lon="24.27157">
        <ele>405.799196</ele>
        <time>2022-03-07T12:32:54.540Z</time>
      </trkpt>
      <trkpt lat="42.41743" lon="24.27154">
        <ele>405.251479</ele>
        <time>2022-03-07T12:32:56.540Z</time>
      </trkpt>
      <trkpt lat="42.41756" lon="24.27154">
        <ele>404.752557</ele>
        <time>2022-03-07T12:32:58.550Z</time>
      </trkpt>
      <trkpt lat="42.41767" lon="24.27154">
        <ele>404.281317</ele>
        <time>2022-03-07T12:33:00.553Z</time>
      </trkpt>
      <trkpt lat="42.41779" lon="24.27156">
        <ele>403.804084</ele>
        <time>2022-03-07T12:33:02.536Z</time>
      </trkpt>
      <trkpt lat="42.4179" lon="24.27158">
        <ele>403.37811</ele>
        <time>2022-03-07T12:33:04.595Z</time>
      </trkpt>
      <trkpt lat="42.41799" lon="24.27159">
        <ele>402.992109</ele>
        <time>2022-03-07T12:33:06.553Z</time>
      </trkpt>
      <trkpt lat="42.4181" lon="24.27161">
        <ele>402.585944</ele>
        <time>2022-03-07T12:33:08.541Z</time>
      </trkpt>
      <trkpt lat="42.4182" lon="24.27162">
        <ele>402.176803</ele>
        <time>2022-03-07T12:33:10.547Z</time>
      </trkpt>
      <trkpt lat="42.4183" lon="24.27162">
        <ele>401.765239</ele>
        <time>2022-03-07T12:33:12.556Z</time>
      </trkpt>
      <trkpt lat="42.41839" lon="24.27158">
        <ele>401.376195</ele>
        <time>2022-03-07T12:33:14.551Z</time>
      </trkpt>
      <trkpt lat="42.41849" lon="24.27152">
        <ele>400.944549</ele>
        <time>2022-03-07T12:33:16.537Z</time>
      </trkpt>
      <trkpt lat="42.41859" lon="24.27145">
        <ele>400.496795</ele>
        <time>2022-03-07T12:33:18.538Z</time>
      </trkpt>
      <trkpt lat="42.41869" lon="24.27136">
        <ele>400.021938</ele>
        <time>2022-03-07T12:33:20.543Z</time>
      </trkpt>
      <trkpt lat="42.4188" lon="24.27128">
        <ele>399.537205</ele>
        <time>2022-03-07T12:33:22.540Z</time>
      </trkpt>
      <trkpt lat="42.4189" lon="24.27119">
        <ele>399.031175</ele>
        <time>2022-03-07T12:33:24.545Z</time>
      </trkpt>
      <trkpt lat="42.41901" lon="24.2711">
        <ele>398.557326</ele>
        <time>2022-03-07T12:33:26.550Z</time>
      </trkpt>
      <trkpt lat="42.41912" lon="24.27102">
        <ele>398.106206</ele>
        <time>2022-03-07T12:33:28.555Z</time>
      </trkpt>
      <trkpt lat="42.41921" lon="24.27093">
        <ele>397.686578</ele>
        <time>2022-03-07T12:33:30.579Z</time>
      </trkpt>
      <trkpt lat="42.41931" lon="24.27084">
        <ele>397.259198</ele>
        <time>2022-03-07T12:33:32.575Z</time>
      </trkpt>
      <trkpt lat="42.4194" lon="24.27076">
        <ele>396.851571</ele>
        <time>2022-03-07T12:33:34.546Z</time>
      </trkpt>
      <trkpt lat="42.4195" lon="24.27067">
        <ele>396.396651</ele>
        <time>2022-03-07T12:33:36.542Z</time>
      </trkpt>
      <trkpt lat="42.4196" lon="24.27058">
        <ele>395.948714</ele>
        <time>2022-03-07T12:33:38.549Z</time>
      </trkpt>
      <trkpt lat="42.41971" lon="24.27048">
        <ele>395.455459</ele>
        <time>2022-03-07T12:33:40.549Z</time>
      </trkpt>
      <trkpt lat="42.41983" lon="24.2704">
        <ele>394.97967</ele>
        <time>2022-03-07T12:33:42.555Z</time>
      </trkpt>
      <trkpt lat="42.41994" lon="24.27031">
        <ele>394.505675</ele>
        <time>2022-03-07T12:33:44.546Z</time>
      </trkpt>
      <trkpt lat="42.42005" lon="24.27021">
        <ele>394.013678</ele>
        <time>2022-03-07T12:33:46.537Z</time>
      </trkpt>
      <trkpt lat="42.42017" lon="24.27011">
        <ele>393.481207</ele>
        <time>2022-03-07T12:33:48.555Z</time>
      </trkpt>
      <trkpt lat="42.4203" lon="24.27">
        <ele>392.93273</ele>
        <time>2022-03-07T12:33:50.547Z</time>
      </trkpt>
      <trkpt lat="42.42042" lon="24.2699">
        <ele>392.388309</ele>
        <time>2022-03-07T12:33:52.545Z</time>
      </trkpt>
      <trkpt lat="42.42056" lon="24.2698">
        <ele>391.98942</ele>
        <time>2022-03-07T12:33:54.585Z</time>
      </trkpt>
      <trkpt lat="42.42069" lon="24.26969">
        <ele>391.674674</ele>
        <time>2022-03-07T12:33:56.535Z</time>
      </trkpt>
      <trkpt lat="42.42082" lon="24.26959">
        <ele>391.35735</ele>
        <time>2022-03-07T12:33:58.542Z</time>
      </trkpt>
      <trkpt lat="42.42095" lon="24.26948">
        <ele>391.037448</ele>
        <time>2022-03-07T12:34:00.552Z</time>
      </trkpt>
      <trkpt lat="42.42108" lon="24.26938">
        <ele>390.723074</ele>
        <time>2022-03-07T12:34:02.532Z</time>
      </trkpt>
      <trkpt lat="42.42121" lon="24.26926">
        <ele>390.406235</ele>
        <time>2022-03-07T12:34:04.554Z</time>
      </trkpt>
      <trkpt lat="42.42134" lon="24.26916">
        <ele>390.087333</ele>
        <time>2022-03-07T12:34:06.557Z</time>
      </trkpt>
      <trkpt lat="42.42146" lon="24.26905">
        <ele>389.780709</ele>
        <time>2022-03-07T12:34:08.561Z</time>
      </trkpt>
      <trkpt lat="42.42159" lon="24.26895">
        <ele>389.468919</ele>
        <time>2022-03-07T12:34:10.548Z</time>
      </trkpt>
      <trkpt lat="42.42171" lon="24.26884">
        <ele>389.170177</ele>
        <time>2022-03-07T12:34:12.555Z</time>
      </trkpt>
      <trkpt lat="42.42183" lon="24.26874">
        <ele>388.870325</ele>
        <time>2022-03-07T12:34:14.538Z</time>
      </trkpt>
      <trkpt lat="42.42195" lon="24.26865">
        <ele>388.583919</ele>
        <time>2022-03-07T12:34:16.575Z</time>
      </trkpt>
      <trkpt lat="42.42207" lon="24.26855">
        <ele>388.529618</ele>
        <time>2022-03-07T12:34:18.547Z</time>
      </trkpt>
      <trkpt lat="42.42218" lon="24.26845">
        <ele>388.65524</ele>
        <time>2022-03-07T12:34:20.556Z</time>
      </trkpt>
      <trkpt lat="42.42228" lon="24.26834">
        <ele>388.777353</ele>
        <time>2022-03-07T12:34:22.547Z</time>
      </trkpt>
      <trkpt lat="42.42237" lon="24.26821">
        <ele>388.897891</ele>
        <time>2022-03-07T12:34:24.549Z</time>
      </trkpt>
      <trkpt lat="42.42244" lon="24.26808">
        <ele>389.015797</ele>
        <time>2022-03-07T12:34:26.551Z</time>
      </trkpt>
      <trkpt lat="42.42252" lon="24.26793">
        <ele>389.139874</ele>
        <time>2022-03-07T12:34:28.560Z</time>
      </trkpt>
      <trkpt lat="42.4226" lon="24.2678">
        <ele>389.260034</ele>
        <time>2022-03-07T12:34:30.554Z</time>
      </trkpt>
      <trkpt lat="42.42267" lon="24.26767">
        <ele>389.376346</ele>
        <time>2022-03-07T12:34:32.533Z</time>
      </trkpt>
      <trkpt lat="42.42274" lon="24.26755">
        <ele>389.483121</ele>
        <time>2022-03-07T12:34:34.544Z</time>
      </trkpt>
      <trkpt lat="42.42281" lon="24.26744">
        <ele>389.583853</ele>
        <time>2022-03-07T12:34:36.557Z</time>
      </trkpt>
      <trkpt lat="42.42288" lon="24.26733">
        <ele>389.679326</ele>
        <time>2022-03-07T12:34:38.554Z</time>
      </trkpt>
      <trkpt lat="42.42293" lon="24.26723">
        <ele>389.766918</ele>
        <time>2022-03-07T12:34:40.548Z</time>
      </trkpt>
      <trkpt lat="42.423" lon="24.2671">
        <ele>389.879244</ele>
        <time>2022-03-07T12:34:43.585Z</time>
      </trkpt>
      <trkpt lat="42.42306" lon="24.26698">
        <ele>389.980918</ele>
        <time>2022-03-07T12:34:46.550Z</time>
      </trkpt>
      <trkpt lat="42.42313" lon="24.26687">
        <ele>390.080436</ele>
        <time>2022-03-07T12:34:49.539Z</time>
      </trkpt>
      <trkpt lat="42.42319" lon="24.26676">
        <ele>390.16186</ele>
        <time>2022-03-07T12:34:52.541Z</time>
      </trkpt>
      <trkpt lat="42.42325" lon="24.26665">
        <ele>390.187011</ele>
        <time>2022-03-07T12:34:55.550Z</time>
      </trkpt>
      <trkpt lat="42.42331" lon="24.26654">
        <ele>390.211581</ele>
        <time>2022-03-07T12:34:58.531Z</time>
      </trkpt>
      <trkpt lat="42.42338" lon="24.26642">
        <ele>390.237872</ele>
        <time>2022-03-07T12:35:01.556Z</time>
      </trkpt>
      <trkpt lat="42.42345" lon="24.2663">
        <ele>390.265776</ele>
        <time>2022-03-07T12:35:04.551Z</time>
      </trkpt>
      <trkpt lat="42.42353" lon="24.26617">
        <ele>390.295415</ele>
        <time>2022-03-07T12:35:07.560Z</time>
      </trkpt>
      <trkpt lat="42.4236" lon="24.26604">
        <ele>390.324728</ele>
        <time>2022-03-07T12:35:10.578Z</time>
      </trkpt>
      <trkpt lat="42.42368" lon="24.26589">
        <ele>390.357493</ele>
        <time>2022-03-07T12:35:13.562Z</time>
      </trkpt>
      <trkpt lat="42.42373" lon="24.26579">
        <ele>390.379628</ele>
        <time>2022-03-07T12:35:15.546Z</time>
      </trkpt>
      <trkpt lat="42.42378" lon="24.26569">
        <ele>390.401641</ele>
        <time>2022-03-07T12:35:17.547Z</time>
      </trkpt>
      <trkpt lat="42.42384" lon="24.26558">
        <ele>390.42523</ele>
        <time>2022-03-07T12:35:19.541Z</time>
      </trkpt>
      <trkpt lat="42.42389" lon="24.26547">
        <ele>390.448806</ele>
        <time>2022-03-07T12:35:21.634Z</time>
      </trkpt>
      <trkpt lat="42.42395" lon="24.26536">
        <ele>390.472814</ele>
        <time>2022-03-07T12:35:23.543Z</time>
      </trkpt>
      <trkpt lat="42.424" lon="24.26524">
        <ele>390.496744</ele>
        <time>2022-03-07T12:35:25.537Z</time>
      </trkpt>
      <trkpt lat="42.42406" lon="24.26513">
        <ele>390.521627</ele>
        <time>2022-03-07T12:35:27.551Z</time>
      </trkpt>
      <trkpt lat="42.42411" lon="24.265">
        <ele>390.546904</ele>
        <time>2022-03-07T12:35:29.554Z</time>
      </trkpt>
      <trkpt lat="42.42416" lon="24.26489">
        <ele>390.57065</ele>
        <time>2022-03-07T12:35:31.551Z</time>
      </trkpt>
      <trkpt lat="42.4242" lon="24.26478">
        <ele>390.598828</ele>
        <time>2022-03-07T12:35:33.558Z</time>
      </trkpt>
      <trkpt lat="42.42424" lon="24.26466">
        <ele>390.736762</ele>
        <time>2022-03-07T12:35:35.550Z</time>
      </trkpt>
      <trkpt lat="42.42426" lon="24.26454">
        <ele>390.877782</ele>
        <time>2022-03-07T12:35:37.563Z</time>
      </trkpt>
      <trkpt lat="42.42428" lon="24.26438">
        <ele>391.062932</ele>
        <time>2022-03-07T12:35:40.553Z</time>
      </trkpt>
      <trkpt lat="42.4243" lon="24.26424">
        <ele>391.222973</ele>
        <time>2022-03-07T12:35:43.586Z</time>
      </trkpt>
      <trkpt lat="42.42432" lon="24.2641">
        <ele>391.382211</ele>
        <time>2022-03-07T12:35:46.556Z</time>
      </trkpt>
      <trkpt lat="42.42434" lon="24.26396">
        <ele>391.540597</ele>
        <time>2022-03-07T12:35:49.568Z</time>
      </trkpt>
      <trkpt lat="42.42435" lon="24.26383">
        <ele>391.689522</ele>
        <time>2022-03-07T12:35:52.553Z</time>
      </trkpt>
      <trkpt lat="42.42436" lon="24.26367">
        <ele>391.864064</ele>
        <time>2022-03-07T12:35:56.562Z</time>
      </trkpt>
      <trkpt lat="42.42438" lon="24.26355">
        <ele>392.006999</ele>
        <time>2022-03-07T12:35:59.545Z</time>
      </trkpt>
      <trkpt lat="42.42439" lon="24.26343">
        <ele>392.144336</ele>
        <time>2022-03-07T12:36:02.546Z</time>
      </trkpt>
      <trkpt lat="42.4244" lon="24.26328">
        <ele>392.310685</ele>
        <time>2022-03-07T12:36:06.561Z</time>
      </trkpt>
      <trkpt lat="42.42441" lon="24.26315">
        <ele>392.456428</ele>
        <time>2022-03-07T12:36:10.543Z</time>
      </trkpt>
      <trkpt lat="42.42442" lon="24.263">
        <ele>392.621585</ele>
        <time>2022-03-07T12:36:16.557Z</time>
      </trkpt>
      <trkpt lat="42.42444" lon="24.26287">
        <ele>392.778364</ele>
        <time>2022-03-07T12:36:21.557Z</time>
      </trkpt>
      <trkpt lat="42.42445" lon="24.26274">
        <ele>392.923821</ele>
        <time>2022-03-07T12:36:26.553Z</time>
      </trkpt>
      <trkpt lat="42.42446" lon="24.26262">
        <ele>393.060842</ele>
        <time>2022-03-07T12:36:31.536Z</time>
      </trkpt>
      <trkpt lat="42.42446" lon="24.26249">
        <ele>393.2045</ele>
        <time>2022-03-07T12:36:36.558Z</time>
      </trkpt>
      <trkpt lat="42.42447" lon="24.26237">
        <ele>393.415246</ele>
        <time>2022-03-07T12:36:41.569Z</time>
      </trkpt>
      <trkpt lat="42.42447" lon="24.26224">
        <ele>394.1175</ele>
        <time>2022-03-07T12:36:46.559Z</time>
      </trkpt>
      <trkpt lat="42.42446" lon="24.2621">
        <ele>394.950319</ele>
        <time>2022-03-07T12:36:52.558Z</time>
      </trkpt>
      <trkpt lat="42.42446" lon="24.26196">
        <ele>395.750782</ele>
        <time>2022-03-07T12:36:58.537Z</time>
      </trkpt>
      <trkpt lat="42.42447" lon="24.26183">
        <ele>396.499377</ele>
        <time>2022-03-07T12:37:04.548Z</time>
      </trkpt>
      <trkpt lat="42.42447" lon="24.26171">
        <ele>397.235758</ele>
        <time>2022-03-07T12:37:10.563Z</time>
      </trkpt>
      <trkpt lat="42.42447" lon="24.26159">
        <ele>397.943282</ele>
        <time>2022-03-07T12:37:16.553Z</time>
      </trkpt>
      <trkpt lat="42.42446" lon="24.26146">
        <ele>398.669556</ele>
        <time>2022-03-07T12:37:22.548Z</time>
      </trkpt>
      <trkpt lat="42.42446" lon="24.26134">
        <ele>399.376905</ele>
        <time>2022-03-07T12:37:28.555Z</time>
      </trkpt>
      <trkpt lat="42.42446" lon="24.26121">
        <ele>400.102329</ele>
        <time>2022-03-07T12:37:34.543Z</time>
      </trkpt>
      <trkpt lat="42.42448" lon="24.26108">
        <ele>400.890899</ele>
        <time>2022-03-07T12:37:41.583Z</time>
      </trkpt>
      <trkpt lat="42.4245" lon="24.26095">
        <ele>401.644953</ele>
        <time>2022-03-07T12:37:48.546Z</time>
      </trkpt>
      <trkpt lat="42.42452" lon="24.26082">
        <ele>402.431976</ele>
        <time>2022-03-07T12:37:56.543Z</time>
      </trkpt>
      <trkpt lat="42.42453" lon="24.26069">
        <ele>403.168916</ele>
        <time>2022-03-07T12:38:03.569Z</time>
      </trkpt>
      <trkpt lat="42.42455" lon="24.26057">
        <ele>403.920225</ele>
        <time>2022-03-07T12:38:10.571Z</time>
      </trkpt>
      <trkpt lat="42.42457" lon="24.26043">
        <ele>404.725873</ele>
        <time>2022-03-07T12:38:18.553Z</time>
      </trkpt>
      <trkpt lat="42.42458" lon="24.26031">
        <ele>405.447447</ele>
        <time>2022-03-07T12:38:24.553Z</time>
      </trkpt>
      <trkpt lat="42.4246" lon="24.26017">
        <ele>406.254678</ele>
        <time>2022-03-07T12:38:31.555Z</time>
      </trkpt>
      <trkpt lat="42.42463" lon="24.26005">
        <ele>406.996488</ele>
        <time>2022-03-07T12:38:37.543Z</time>
      </trkpt>
      <trkpt lat="42.42465" lon="24.25992">
        <ele>407.55723</ele>
        <time>2022-03-07T12:38:43.592Z</time>
      </trkpt>
      <trkpt lat="42.42467" lon="24.25978">
        <ele>407.841995</ele>
        <time>2022-03-07T12:38:49.546Z</time>
      </trkpt>
      <trkpt lat="42.42469" lon="24.25964">
        <ele>408.11081</ele>
        <time>2022-03-07T12:38:55.549Z</time>
      </trkpt>
      <trkpt lat="42.42471" lon="24.25951">
        <ele>408.381419</ele>
        <time>2022-03-07T12:39:01.555Z</time>
      </trkpt>
      <trkpt lat="42.42474" lon="24.25937">
        <ele>408.668811</ele>
        <time>2022-03-07T12:39:07.554Z</time>
      </trkpt>
      <trkpt lat="42.42476" lon="24.25925">
        <ele>408.917029</ele>
        <time>2022-03-07T12:39:12.558Z</time>
      </trkpt>
      <trkpt lat="42.42478" lon="24.25912">
        <ele>409.172331</ele>
        <time>2022-03-07T12:39:17.554Z</time>
      </trkpt>
      <trkpt lat="42.42481" lon="24.25899">
        <ele>409.442351</ele>
        <time>2022-03-07T12:39:22.595Z</time>
      </trkpt>
      <trkpt lat="42.42483" lon="24.25885">
        <ele>409.718723</ele>
        <time>2022-03-07T12:39:27.564Z</time>
      </trkpt>
      <trkpt lat="42.42486" lon="24.25871">
        <ele>410.008018</ele>
        <time>2022-03-07T12:39:32.559Z</time>
      </trkpt>
      <trkpt lat="42.42488" lon="24.25858">
        <ele>410.285125</ele>
        <time>2022-03-07T12:39:37.547Z</time>
      </trkpt>
      <trkpt lat="42.42491" lon="24.25845">
        <ele>410.550881</ele>
        <time>2022-03-07T12:39:42.554Z</time>
      </trkpt>
      <trkpt lat="42.42494" lon="24.25831">
        <ele>410.826873</ele>
        <time>2022-03-07T12:39:47.601Z</time>
      </trkpt>
      <trkpt lat="42.42497" lon="24.25818">
        <ele>411.105798</ele>
        <time>2022-03-07T12:39:52.556Z</time>
      </trkpt>
      <trkpt lat="42.42498" lon="24.25803">
        <ele>411.395567</ele>
        <time>2022-03-07T12:39:57.538Z</time>
      </trkpt>
      <trkpt lat="42.42501" lon="24.25791">
        <ele>411.640104</ele>
        <time>2022-03-07T12:40:01.554Z</time>
      </trkpt>
      <trkpt lat="42.42503" lon="24.25778">
        <ele>411.915279</ele>
        <time>2022-03-07T12:40:06.538Z</time>
      </trkpt>
      <trkpt lat="42.42505" lon="24.25765">
        <ele>412.165052</ele>
        <time>2022-03-07T12:40:11.531Z</time>
      </trkpt>
      <trkpt lat="42.42507" lon="24.25751">
        <ele>412.37826</ele>
        <time>2022-03-07T12:40:16.565Z</time>
      </trkpt>
      <trkpt lat="42.42509" lon="24.25736">
        <ele>412.549709</ele>
        <time>2022-03-07T12:40:21.577Z</time>
      </trkpt>
      <trkpt lat="42.42511" lon="24.25722">
        <ele>412.713127</ele>
        <time>2022-03-07T12:40:26.538Z</time>
      </trkpt>
      <trkpt lat="42.42513" lon="24.25708">
        <ele>412.878444</ele>
        <time>2022-03-07T12:40:31.549Z</time>
      </trkpt>
      <trkpt lat="42.42516" lon="24.25695">
        <ele>413.042607</ele>
        <time>2022-03-07T12:40:35.538Z</time>
      </trkpt>
      <trkpt lat="42.42518" lon="24.2568">
        <ele>413.208719</ele>
        <time>2022-03-07T12:40:39.545Z</time>
      </trkpt>
      <trkpt lat="42.4252" lon="24.25666">
        <ele>413.375345</ele>
        <time>2022-03-07T12:40:43.564Z</time>
      </trkpt>
      <trkpt lat="42.42522" lon="24.25651">
        <ele>413.55193</ele>
        <time>2022-03-07T12:40:47.577Z</time>
      </trkpt>
      <trkpt lat="42.42524" lon="24.25639">
        <ele>413.698229</ele>
        <time>2022-03-07T12:40:50.563Z</time>
      </trkpt>
      <trkpt lat="42.42526" lon="24.25626">
        <ele>413.84533</ele>
        <time>2022-03-07T12:40:53.542Z</time>
      </trkpt>
      <trkpt lat="42.42528" lon="24.25613">
        <ele>413.997505</ele>
        <time>2022-03-07T12:40:56.559Z</time>
      </trkpt>
      <trkpt lat="42.4253" lon="24.256">
        <ele>414.150815</ele>
        <time>2022-03-07T12:40:59.578Z</time>
      </trkpt>
      <trkpt lat="42.42532" lon="24.25587">
        <ele>414.310356</ele>
        <time>2022-03-07T12:41:02.557Z</time>
      </trkpt>
      <trkpt lat="42.42534" lon="24.25571">
        <ele>414.48805</ele>
        <time>2022-03-07T12:41:05.544Z</time>
      </trkpt>
      <trkpt lat="42.42537" lon="24.25555">
        <ele>414.688397</ele>
        <time>2022-03-07T12:41:08.556Z</time>
      </trkpt>
      <trkpt lat="42.4254" lon="24.25537">
        <ele>414.892108</ele>
        <time>2022-03-07T12:41:11.566Z</time>
      </trkpt>
      <trkpt lat="42.42541" lon="24.25519">
        <ele>415.061577</ele>
        <time>2022-03-07T12:41:14.575Z</time>
      </trkpt>
      <trkpt lat="42.42543" lon="24.25507">
        <ele>414.96621</ele>
        <time>2022-03-07T12:41:16.544Z</time>
      </trkpt>
      <trkpt lat="42.42545" lon="24.2549">
        <ele>414.832004</ele>
        <time>2022-03-07T12:41:19.527Z</time>
      </trkpt>
      <trkpt lat="42.42549" lon="24.25473">
        <ele>414.696701</ele>
        <time>2022-03-07T12:41:22.545Z</time>
      </trkpt>
      <trkpt lat="42.42553" lon="24.25456">
        <ele>414.555467</ele>
        <time>2022-03-07T12:41:25.591Z</time>
      </trkpt>
      <trkpt lat="42.42556" lon="24.25439">
        <ele>414.418992</ele>
        <time>2022-03-07T12:41:28.555Z</time>
      </trkpt>
      <trkpt lat="42.42558" lon="24.25422">
        <ele>414.288312</ele>
        <time>2022-03-07T12:41:31.565Z</time>
      </trkpt>
      <trkpt lat="42.4256" lon="24.25407">
        <ele>414.166391</ele>
        <time>2022-03-07T12:41:34.546Z</time>
      </trkpt>
      <trkpt lat="42.42562" lon="24.25393">
        <ele>414.057985</ele>
        <time>2022-03-07T12:41:37.602Z</time>
      </trkpt>
      <trkpt lat="42.42563" lon="24.2538">
        <ele>413.957579</ele>
        <time>2022-03-07T12:41:40.547Z</time>
      </trkpt>
      <trkpt lat="42.42565" lon="24.25366">
        <ele>413.845178</ele>
        <time>2022-03-07T12:41:43.539Z</time>
      </trkpt>
      <trkpt lat="42.42567" lon="24.2535">
        <ele>413.722669</ele>
        <time>2022-03-07T12:41:46.548Z</time>
      </trkpt>
      <trkpt lat="42.42569" lon="24.25336">
        <ele>413.60874</ele>
        <time>2022-03-07T12:41:49.545Z</time>
      </trkpt>
      <trkpt lat="42.42571" lon="24.25322">
        <ele>413.49825</ele>
        <time>2022-03-07T12:41:52.565Z</time>
      </trkpt>
      <trkpt lat="42.42573" lon="24.25306">
        <ele>413.372143</ele>
        <time>2022-03-07T12:41:56.547Z</time>
      </trkpt>
      <trkpt lat="42.42575" lon="24.25293">
        <ele>413.272497</ele>
        <time>2022-03-07T12:41:59.546Z</time>
      </trkpt>
      <trkpt lat="42.42577" lon="24.25281">
        <ele>413.186776</ele>
        <time>2022-03-07T12:42:02.559Z</time>
      </trkpt>
      <trkpt lat="42.4258" lon="24.25265">
        <ele>413.16063</ele>
        <time>2022-03-07T12:42:06.563Z</time>
      </trkpt>
      <trkpt lat="42.42582" lon="24.25251">
        <ele>413.135832</ele>
        <time>2022-03-07T12:42:10.556Z</time>
      </trkpt>
      <trkpt lat="42.42586" lon="24.25236">
        <ele>413.110403</ele>
        <time>2022-03-07T12:42:14.538Z</time>
      </trkpt>
      <trkpt lat="42.42589" lon="24.25223">
        <ele>413.086653</ele>
        <time>2022-03-07T12:42:18.565Z</time>
      </trkpt>
      <trkpt lat="42.42593" lon="24.2521">
        <ele>413.063915</ele>
        <time>2022-03-07T12:42:22.551Z</time>
      </trkpt>
      <trkpt lat="42.42596" lon="24.25196">
        <ele>413.039825</ele>
        <time>2022-03-07T12:42:26.605Z</time>
      </trkpt>
      <trkpt lat="42.426" lon="24.25183">
        <ele>413.015682</ele>
        <time>2022-03-07T12:42:30.539Z</time>
      </trkpt>
      <trkpt lat="42.42605" lon="24.25168">
        <ele>412.988482</ele>
        <time>2022-03-07T12:42:34.542Z</time>
      </trkpt>
      <trkpt lat="42.4261" lon="24.25157">
        <ele>412.967013</ele>
        <time>2022-03-07T12:42:37.583Z</time>
      </trkpt>
      <trkpt lat="42.42615" lon="24.25144">
        <ele>412.941716</ele>
        <time>2022-03-07T12:42:40.537Z</time>
      </trkpt>
      <trkpt lat="42.4262" lon="24.25129">
        <ele>412.915515</ele>
        <time>2022-03-07T12:42:43.582Z</time>
      </trkpt>
      <trkpt lat="42.42626" lon="24.25113">
        <ele>412.885875</ele>
        <time>2022-03-07T12:42:46.549Z</time>
      </trkpt>
      <trkpt lat="42.4263" lon="24.25101">
        <ele>412.863859</ele>
        <time>2022-03-07T12:42:48.560Z</time>
      </trkpt>
      <trkpt lat="42.42635" lon="24.25089">
        <ele>412.839742</ele>
        <time>2022-03-07T12:42:50.553Z</time>
      </trkpt>
      <trkpt lat="42.4264" lon="24.25076">
        <ele>412.816082</ele>
        <time>2022-03-07T12:42:52.542Z</time>
      </trkpt>
      <trkpt lat="42.42646" lon="24.25061">
        <ele>412.788534</ele>
        <time>2022-03-07T12:42:54.583Z</time>
      </trkpt>
      <trkpt lat="42.42651" lon="24.25047">
        <ele>412.449326</ele>
        <time>2022-03-07T12:42:56.559Z</time>
      </trkpt>
      <trkpt lat="42.42657" lon="24.25032">
        <ele>412.056255</ele>
        <time>2022-03-07T12:42:58.550Z</time>
      </trkpt>
      <trkpt lat="42.42663" lon="24.25016">
        <ele>411.6485</ele>
        <time>2022-03-07T12:43:00.556Z</time>
      </trkpt>
      <trkpt lat="42.42668" lon="24.25001">
        <ele>411.246381</ele>
        <time>2022-03-07T12:43:02.586Z</time>
      </trkpt>
      <trkpt lat="42.42674" lon="24.24987">
        <ele>410.874027</ele>
        <time>2022-03-07T12:43:04.549Z</time>
      </trkpt>
      <trkpt lat="42.42679" lon="24.24973">
        <ele>410.500596</ele>
        <time>2022-03-07T12:43:06.575Z</time>
      </trkpt>
      <trkpt lat="42.42685" lon="24.24959">
        <ele>410.121715</ele>
        <time>2022-03-07T12:43:08.562Z</time>
      </trkpt>
      <trkpt lat="42.4269" lon="24.24944">
        <ele>409.7414</ele>
        <time>2022-03-07T12:43:10.539Z</time>
      </trkpt>
      <trkpt lat="42.42695" lon="24.2493">
        <ele>409.370924</ele>
        <time>2022-03-07T12:43:12.554Z</time>
      </trkpt>
      <trkpt lat="42.42701" lon="24.24916">
        <ele>408.99333</ele>
        <time>2022-03-07T12:43:14.559Z</time>
      </trkpt>
      <trkpt lat="42.42706" lon="24.24902">
        <ele>408.622195</ele>
        <time>2022-03-07T12:43:16.587Z</time>
      </trkpt>
      <trkpt lat="42.42712" lon="24.24888">
        <ele>408.248766</ele>
        <time>2022-03-07T12:43:18.555Z</time>
      </trkpt>
      <trkpt lat="42.42717" lon="24.24874">
        <ele>407.881159</ele>
        <time>2022-03-07T12:43:20.595Z</time>
      </trkpt>
      <trkpt lat="42.42722" lon="24.24861">
        <ele>407.525513</ele>
        <time>2022-03-07T12:43:22.581Z</time>
      </trkpt>
      <trkpt lat="42.42727" lon="24.24848">
        <ele>407.185356</ele>
        <time>2022-03-07T12:43:24.557Z</time>
      </trkpt>
      <trkpt lat="42.42731" lon="24.24835">
        <ele>406.986975</ele>
        <time>2022-03-07T12:43:26.562Z</time>
      </trkpt>
      <trkpt lat="42.42735" lon="24.24824">
        <ele>406.88635</ele>
        <time>2022-03-07T12:43:28.538Z</time>
      </trkpt>
      <trkpt lat="42.4274" lon="24.24812">
        <ele>406.789171</ele>
        <time>2022-03-07T12:43:30.543Z</time>
      </trkpt>
      <trkpt lat="42.42744" lon="24.24801">
        <ele>406.69291</ele>
        <time>2022-03-07T12:43:32.574Z</time>
      </trkpt>
      <trkpt lat="42.42747" lon="24.2479">
        <ele>406.59753</ele>
        <time>2022-03-07T12:43:34.561Z</time>
      </trkpt>
      <trkpt lat="42.42751" lon="24.24778">
        <ele>406.501451</ele>
        <time>2022-03-07T12:43:36.550Z</time>
      </trkpt>
      <trkpt lat="42.42755" lon="24.24767">
        <ele>406.402143</ele>
        <time>2022-03-07T12:43:38.559Z</time>
      </trkpt>
      <trkpt lat="42.42759" lon="24.24755">
        <ele>406.302134</ele>
        <time>2022-03-07T12:43:40.544Z</time>
      </trkpt>
      <trkpt lat="42.42763" lon="24.24743">
        <ele>406.202201</ele>
        <time>2022-03-07T12:43:42.543Z</time>
      </trkpt>
      <trkpt lat="42.42768" lon="24.24731">
        <ele>406.097177</ele>
        <time>2022-03-07T12:43:44.578Z</time>
      </trkpt>
      <trkpt lat="42.42772" lon="24.24719">
        <ele>405.99586</ele>
        <time>2022-03-07T12:43:46.548Z</time>
      </trkpt>
      <trkpt lat="42.42777" lon="24.24707">
        <ele>405.891515</ele>
        <time>2022-03-07T12:43:48.551Z</time>
      </trkpt>
      <trkpt lat="42.42782" lon="24.24694">
        <ele>405.78231</ele>
        <time>2022-03-07T12:43:50.564Z</time>
      </trkpt>
      <trkpt lat="42.42787" lon="24.24682">
        <ele>405.673598</ele>
        <time>2022-03-07T12:43:52.556Z</time>
      </trkpt>
      <trkpt lat="42.42791" lon="24.24669">
        <ele>405.564474</ele>
        <time>2022-03-07T12:43:54.558Z</time>
      </trkpt>
      <trkpt lat="42.42796" lon="24.24656">
        <ele>405.453039</ele>
        <time>2022-03-07T12:43:56.535Z</time>
      </trkpt>
      <trkpt lat="42.42801" lon="24.24643">
        <ele>405.334027</ele>
        <time>2022-03-07T12:43:58.540Z</time>
      </trkpt>
      <trkpt lat="42.42807" lon="24.24628">
        <ele>405.213421</ele>
        <time>2022-03-07T12:44:00.555Z</time>
      </trkpt>
      <trkpt lat="42.42812" lon="24.24614">
        <ele>405.059574</ele>
        <time>2022-03-07T12:44:02.558Z</time>
      </trkpt>
      <trkpt lat="42.42817" lon="24.24599">
        <ele>404.885774</ele>
        <time>2022-03-07T12:44:04.551Z</time>
      </trkpt>
      <trkpt lat="42.42823" lon="24.24584">
        <ele>404.70502</ele>
        <time>2022-03-07T12:44:06.559Z</time>
      </trkpt>
      <trkpt lat="42.42828" lon="24.24569">
        <ele>404.521414</ele>
        <time>2022-03-07T12:44:08.556Z</time>
      </trkpt>
      <trkpt lat="42.42834" lon="24.24553">
        <ele>404.337504</ele>
        <time>2022-03-07T12:44:10.555Z</time>
      </trkpt>
      <trkpt lat="42.4284" lon="24.24537">
        <ele>404.153246</ele>
        <time>2022-03-07T12:44:12.544Z</time>
      </trkpt>
      <trkpt lat="42.42846" lon="24.24522">
        <ele>403.9718</ele>
        <time>2022-03-07T12:44:14.546Z</time>
      </trkpt>
      <trkpt lat="42.42852" lon="24.24507">
        <ele>403.785008</ele>
        <time>2022-03-07T12:44:16.544Z</time>
      </trkpt>
      <trkpt lat="42.42858" lon="24.24492">
        <ele>403.606757</ele>
        <time>2022-03-07T12:44:18.585Z</time>
      </trkpt>
      <trkpt lat="42.42863" lon="24.24477">
        <ele>403.438262</ele>
        <time>2022-03-07T12:44:20.561Z</time>
      </trkpt>
      <trkpt lat="42.42869" lon="24.24464">
        <ele>403.273492</ele>
        <time>2022-03-07T12:44:22.596Z</time>
      </trkpt>
      <trkpt lat="42.42874" lon="24.2445">
        <ele>403.113542</ele>
        <time>2022-03-07T12:44:24.550Z</time>
      </trkpt>
      <trkpt lat="42.42878" lon="24.24438">
        <ele>402.965654</ele>
        <time>2022-03-07T12:44:26.535Z</time>
      </trkpt>
      <trkpt lat="42.42882" lon="24.24426">
        <ele>402.835045</ele>
        <time>2022-03-07T12:44:28.547Z</time>
      </trkpt>
      <trkpt lat="42.42889" lon="24.24411">
        <ele>402.643935</ele>
        <time>2022-03-07T12:44:31.545Z</time>
      </trkpt>
      <trkpt lat="42.42895" lon="24.24395">
        <ele>402.889838</ele>
        <time>2022-03-07T12:44:34.539Z</time>
      </trkpt>
      <trkpt lat="42.429" lon="24.24379">
        <ele>403.251043</ele>
        <time>2022-03-07T12:44:37.567Z</time>
      </trkpt>
      <trkpt lat="42.42906" lon="24.24364">
        <ele>403.599883</ele>
        <time>2022-03-07T12:44:40.539Z</time>
      </trkpt>
      <trkpt lat="42.42911" lon="24.2435">
        <ele>403.934933</ele>
        <time>2022-03-07T12:44:43.548Z</time>
      </trkpt>
      <trkpt lat="42.42916" lon="24.24335">
        <ele>404.269634</ele>
        <time>2022-03-07T12:44:46.605Z</time>
      </trkpt>
      <trkpt lat="42.42922" lon="24.2432">
        <ele>404.627182</ele>
        <time>2022-03-07T12:44:49.542Z</time>
      </trkpt>
      <trkpt lat="42.42927" lon="24.24305">
        <ele>404.974684</ele>
        <time>2022-03-07T12:44:52.552Z</time>
      </trkpt>
      <trkpt lat="42.42933" lon="24.2429">
        <ele>405.331763</ele>
        <time>2022-03-07T12:44:55.603Z</time>
      </trkpt>
      <trkpt lat="42.4294" lon="24.24276">
        <ele>405.67998</ele>
        <time>2022-03-07T12:44:58.554Z</time>
      </trkpt>
      <trkpt lat="42.42947" lon="24.24261">
        <ele>406.047042</ele>
        <time>2022-03-07T12:45:01.551Z</time>
      </trkpt>
      <trkpt lat="42.42953" lon="24.24251">
        <ele>406.311739</ele>
        <time>2022-03-07T12:45:03.563Z</time>
      </trkpt>
      <trkpt lat="42.42959" lon="24.24241">
        <ele>406.579791</ele>
        <time>2022-03-07T12:45:05.542Z</time>
      </trkpt>
      <trkpt lat="42.42965" lon="24.2423">
        <ele>406.853004</ele>
        <time>2022-03-07T12:45:07.549Z</time>
      </trkpt>
      <trkpt lat="42.4297" lon="24.2422">
        <ele>407.114371</ele>
        <time>2022-03-07T12:45:09.557Z</time>
      </trkpt>
      <trkpt lat="42.42976" lon="24.2421">
        <ele>407.375737</ele>
        <time>2022-03-07T12:45:11.557Z</time>
      </trkpt>
      <trkpt lat="42.42981" lon="24.242">
        <ele>407.640443</ele>
        <time>2022-03-07T12:45:13.558Z</time>
      </trkpt>
      <trkpt lat="42.42987" lon="24.24189">
        <ele>407.544231</ele>
        <time>2022-03-07T12:45:15.560Z</time>
      </trkpt>
      <trkpt lat="42.42992" lon="24.24178">
        <ele>407.396661</ele>
        <time>2022-03-07T12:45:17.591Z</time>
      </trkpt>
      <trkpt lat="42.42998" lon="24.24168">
        <ele>407.250083</ele>
        <time>2022-03-07T12:45:19.539Z</time>
      </trkpt>
      <trkpt lat="42.43003" lon="24.24157">
        <ele>407.098965</ele>
        <time>2022-03-07T12:45:21.535Z</time>
      </trkpt>
      <trkpt lat="42.43009" lon="24.24146">
        <ele>406.945143</ele>
        <time>2022-03-07T12:45:23.561Z</time>
      </trkpt>
      <trkpt lat="42.43016" lon="24.24135">
        <ele>406.791186</ele>
        <time>2022-03-07T12:45:25.542Z</time>
      </trkpt>
      <trkpt lat="42.43022" lon="24.24124">
        <ele>406.635545</ele>
        <time>2022-03-07T12:45:27.540Z</time>
      </trkpt>
      <trkpt lat="42.43028" lon="24.24113">
        <ele>406.478963</ele>
        <time>2022-03-07T12:45:29.549Z</time>
      </trkpt>
      <trkpt lat="42.43034" lon="24.24102">
        <ele>406.316935</ele>
        <time>2022-03-07T12:45:31.565Z</time>
      </trkpt>
      <trkpt lat="42.4304" lon="24.2409">
        <ele>406.159474</ele>
        <time>2022-03-07T12:45:33.558Z</time>
      </trkpt>
      <trkpt lat="42.43046" lon="24.2408">
        <ele>406.011089</ele>
        <time>2022-03-07T12:45:35.555Z</time>
      </trkpt>
      <trkpt lat="42.43051" lon="24.24069">
        <ele>405.865388</ele>
        <time>2022-03-07T12:45:37.562Z</time>
      </trkpt>
      <trkpt lat="42.43056" lon="24.24058">
        <ele>405.719516</ele>
        <time>2022-03-07T12:45:39.551Z</time>
      </trkpt>
      <trkpt lat="42.43062" lon="24.24048">
        <ele>405.581165</ele>
        <time>2022-03-07T12:45:41.550Z</time>
      </trkpt>
      <trkpt lat="42.43067" lon="24.24039">
        <ele>405.441695</ele>
        <time>2022-03-07T12:45:43.541Z</time>
      </trkpt>
      <trkpt lat="42.43073" lon="24.24029">
        <ele>405.296037</ele>
        <time>2022-03-07T12:45:45.548Z</time>
      </trkpt>
      <trkpt lat="42.43079" lon="24.24018">
        <ele>405.144945</ele>
        <time>2022-03-07T12:45:47.554Z</time>
      </trkpt>
      <trkpt lat="42.43085" lon="24.24007">
        <ele>404.994766</ele>
        <time>2022-03-07T12:45:49.550Z</time>
      </trkpt>
      <trkpt lat="42.4309" lon="24.23997">
        <ele>404.77026</ele>
        <time>2022-03-07T12:45:51.555Z</time>
      </trkpt>
      <trkpt lat="42.43096" lon="24.23987">
        <ele>404.475579</ele>
        <time>2022-03-07T12:45:53.544Z</time>
      </trkpt>
      <trkpt lat="42.431" lon="24.23975">
        <ele>404.149499</ele>
        <time>2022-03-07T12:45:55.566Z</time>
      </trkpt>
      <trkpt lat="42.43105" lon="24.23964">
        <ele>403.849518</ele>
        <time>2022-03-07T12:45:57.543Z</time>
      </trkpt>
      <trkpt lat="42.43109" lon="24.23952">
        <ele>403.533087</ele>
        <time>2022-03-07T12:45:59.562Z</time>
      </trkpt>
      <trkpt lat="42.43112" lon="24.2394">
        <ele>403.241077</ele>
        <time>2022-03-07T12:46:01.546Z</time>
      </trkpt>
      <trkpt lat="42.43117" lon="24.23923">
        <ele>402.808902</ele>
        <time>2022-03-07T12:46:04.554Z</time>
      </trkpt>
      <trkpt lat="42.43121" lon="24.23908">
        <ele>402.412658</ele>
        <time>2022-03-07T12:46:07.541Z</time>
      </trkpt>
      <trkpt lat="42.43125" lon="24.23893">
        <ele>402.04671</ele>
        <time>2022-03-07T12:46:10.527Z</time>
      </trkpt>
      <trkpt lat="42.43128" lon="24.23881">
        <ele>401.735782</ele>
        <time>2022-03-07T12:46:12.522Z</time>
      </trkpt>
      <trkpt lat="42.43132" lon="24.23866">
        <ele>401.337298</ele>
        <time>2022-03-07T12:46:15.542Z</time>
      </trkpt>
      <trkpt lat="42.43137" lon="24.23851">
        <ele>400.958687</ele>
        <time>2022-03-07T12:46:18.541Z</time>
      </trkpt>
      <trkpt lat="42.43141" lon="24.23835">
        <ele>400.55218</ele>
        <time>2022-03-07T12:46:21.559Z</time>
      </trkpt>
      <trkpt lat="42.43146" lon="24.23818">
        <ele>400.121094</ele>
        <time>2022-03-07T12:46:24.552Z</time>
      </trkpt>
      <trkpt lat="42.4315" lon="24.23803">
        <ele>399.728168</ele>
        <time>2022-03-07T12:46:27.547Z</time>
      </trkpt>
      <trkpt lat="42.43153" lon="24.23787">
        <ele>399.347441</ele>
        <time>2022-03-07T12:46:30.615Z</time>
      </trkpt>
      <trkpt lat="42.43157" lon="24.23774">
        <ele>399.151457</ele>
        <time>2022-03-07T12:46:33.557Z</time>
      </trkpt>
      <trkpt lat="42.43161" lon="24.23759">
        <ele>399.417425</ele>
        <time>2022-03-07T12:46:36.544Z</time>
      </trkpt>
      <trkpt lat="42.43165" lon="24.23744">
        <ele>399.704336</ele>
        <time>2022-03-07T12:46:39.545Z</time>
      </trkpt>
      <trkpt lat="42.43169" lon="24.2373">
        <ele>399.979472</ele>
        <time>2022-03-07T12:46:42.539Z</time>
      </trkpt>
      <trkpt lat="42.43174" lon="24.23715">
        <ele>400.255491</ele>
        <time>2022-03-07T12:46:45.541Z</time>
      </trkpt>
      <trkpt lat="42.43178" lon="24.23701">
        <ele>400.535566</ele>
        <time>2022-03-07T12:46:48.544Z</time>
      </trkpt>
      <trkpt lat="42.43182" lon="24.23686">
        <ele>400.819799</ele>
        <time>2022-03-07T12:46:51.571Z</time>
      </trkpt>
      <trkpt lat="42.43187" lon="24.23671">
        <ele>401.106959</ele>
        <time>2022-03-07T12:46:54.557Z</time>
      </trkpt>
      <trkpt lat="42.43191" lon="24.23656">
        <ele>401.384797</ele>
        <time>2022-03-07T12:46:57.550Z</time>
      </trkpt>
      <trkpt lat="42.43196" lon="24.23642">
        <ele>401.655196</ele>
        <time>2022-03-07T12:47:00.556Z</time>
      </trkpt>
      <trkpt lat="42.432" lon="24.23628">
        <ele>401.918673</ele>
        <time>2022-03-07T12:47:03.581Z</time>
      </trkpt>
      <trkpt lat="42.43203" lon="24.23614">
        <ele>402.190568</ele>
        <time>2022-03-07T12:47:06.560Z</time>
      </trkpt>
      <trkpt lat="42.43206" lon="24.236">
        <ele>402.442981</ele>
        <time>2022-03-07T12:47:09.554Z</time>
      </trkpt>
      <trkpt lat="42.4321" lon="24.23587">
        <ele>402.689148</ele>
        <time>2022-03-07T12:47:12.563Z</time>
      </trkpt>
      <trkpt lat="42.43213" lon="24.23573">
        <ele>402.946006</ele>
        <time>2022-03-07T12:47:15.567Z</time>
      </trkpt>
      <trkpt lat="42.43217" lon="24.23561">
        <ele>403.178001</ele>
        <time>2022-03-07T12:47:18.591Z</time>
      </trkpt>
      <trkpt lat="42.43221" lon="24.23548">
        <ele>403.441706</ele>
        <time>2022-03-07T12:47:21.570Z</time>
      </trkpt>
      <trkpt lat="42.43224" lon="24.23534">
        <ele>403.80971</ele>
        <time>2022-03-07T12:47:24.542Z</time>
      </trkpt>
      <trkpt lat="42.43228" lon="24.23522">
        <ele>404.1355</ele>
        <time>2022-03-07T12:47:27.555Z</time>
      </trkpt>
      <trkpt lat="42.43232" lon="24.23509">
        <ele>404.518097</ele>
        <time>2022-03-07T12:47:31.555Z</time>
      </trkpt>
      <trkpt lat="42.43236" lon="24.23495">
        <ele>404.909447</ele>
        <time>2022-03-07T12:47:36.544Z</time>
      </trkpt>
      <trkpt lat="42.4324" lon="24.23481">
        <ele>405.284299</ele>
        <time>2022-03-07T12:47:40.555Z</time>
      </trkpt>
      <trkpt lat="42.43244" lon="24.23469">
        <ele>405.620939</ele>
        <time>2022-03-07T12:47:44.549Z</time>
      </trkpt>
      <trkpt lat="42.43246" lon="24.23456">
        <ele>405.961472</ele>
        <time>2022-03-07T12:47:48.547Z</time>
      </trkpt>
      <trkpt lat="42.43249" lon="24.23444">
        <ele>406.291114</ele>
        <time>2022-03-07T12:47:52.589Z</time>
      </trkpt>
      <trkpt lat="42.43253" lon="24.23432">
        <ele>406.636425</ele>
        <time>2022-03-07T12:47:56.551Z</time>
      </trkpt>
      <trkpt lat="42.43258" lon="24.23417">
        <ele>407.039977</ele>
        <time>2022-03-07T12:48:00.604Z</time>
      </trkpt>
      <trkpt lat="42.43261" lon="24.23406">
        <ele>407.356065</ele>
        <time>2022-03-07T12:48:03.547Z</time>
      </trkpt>
      <trkpt lat="42.43265" lon="24.23391">
        <ele>407.767511</ele>
        <time>2022-03-07T12:48:07.573Z</time>
      </trkpt>
      <trkpt lat="42.43269" lon="24.23376">
        <ele>408.174187</ele>
        <time>2022-03-07T12:48:11.545Z</time>
      </trkpt>
      <trkpt lat="42.43273" lon="24.23362">
        <ele>408.560338</ele>
        <time>2022-03-07T12:48:15.593Z</time>
      </trkpt>
      <trkpt lat="42.43277" lon="24.23347">
        <ele>408.959668</ele>
        <time>2022-03-07T12:48:19.561Z</time>
      </trkpt>
      <trkpt lat="42.43282" lon="24.23333">
        <ele>409.365819</ele>
        <time>2022-03-07T12:48:23.538Z</time>
      </trkpt>
      <trkpt lat="42.43286" lon="24.23319">
        <ele>409.615906</ele>
        <time>2022-03-07T12:48:27.581Z</time>
      </trkpt>
      <trkpt lat="42.43291" lon="24.23304">
        <ele>409.447232</ele>
        <time>2022-03-07T12:48:31.552Z</time>
      </trkpt>
      <trkpt lat="42.43294" lon="24.2329">
        <ele>409.287168</ele>
        <time>2022-03-07T12:48:35.556Z</time>
      </trkpt>
      <trkpt lat="42.43298" lon="24.23277">
        <ele>409.132525</ele>
        <time>2022-03-07T12:48:39.559Z</time>
      </trkpt>
      <trkpt lat="42.43302" lon="24.23262">
        <ele>408.972361</ele>
        <time>2022-03-07T12:48:43.587Z</time>
      </trkpt>
      <trkpt lat="42.43306" lon="24.23248">
        <ele>408.80933</ele>
        <time>2022-03-07T12:48:47.551Z</time>
      </trkpt>
      <trkpt lat="42.43309" lon="24.23236">
        <ele>408.678293</ele>
        <time>2022-03-07T12:48:50.543Z</time>
      </trkpt>
      <trkpt lat="42.43312" lon="24.23223">
        <ele>408.531772</ele>
        <time>2022-03-07T12:48:53.557Z</time>
      </trkpt>
      <trkpt lat="42.43316" lon="24.23209">
        <ele>408.370746</ele>
        <time>2022-03-07T12:48:56.544Z</time>
      </trkpt>
      <trkpt lat="42.4332" lon="24.23193">
        <ele>408.190716</ele>
        <time>2022-03-07T12:48:59.562Z</time>
      </trkpt>
      <trkpt lat="42.43324" lon="24.23182">
        <ele>408.061055</ele>
        <time>2022-03-07T12:49:01.554Z</time>
      </trkpt>
      <trkpt lat="42.43328" lon="24.2317">
        <ele>407.913417</ele>
        <time>2022-03-07T12:49:03.545Z</time>
      </trkpt>
      <trkpt lat="42.43333" lon="24.23156">
        <ele>407.7549</ele>
        <time>2022-03-07T12:49:05.551Z</time>
      </trkpt>
      <trkpt lat="42.43338" lon="24.23144">
        <ele>407.603738</ele>
        <time>2022-03-07T12:49:07.555Z</time>
      </trkpt>
      <trkpt lat="42.43343" lon="24.23131">
        <ele>407.440135</ele>
        <time>2022-03-07T12:49:09.552Z</time>
      </trkpt>
      <trkpt lat="42.4335" lon="24.23117">
        <ele>407.270227</ele>
        <time>2022-03-07T12:49:11.597Z</time>
      </trkpt>
      <trkpt lat="42.43356" lon="24.23105">
        <ele>407.109742</ele>
        <time>2022-03-07T12:49:13.549Z</time>
      </trkpt>
      <trkpt lat="42.43362" lon="24.23093">
        <ele>407.011931</ele>
        <time>2022-03-07T12:49:15.563Z</time>
      </trkpt>
      <trkpt lat="42.43367" lon="24.23082">
        <ele>406.943787</ele>
        <time>2022-03-07T12:49:17.538Z</time>
      </trkpt>
      <trkpt lat="42.43372" lon="24.23071">
        <ele>406.877833</ele>
        <time>2022-03-07T12:49:19.535Z</time>
      </trkpt>
      <trkpt lat="42.43377" lon="24.23061">
        <ele>406.811818</ele>
        <time>2022-03-07T12:49:21.545Z</time>
      </trkpt>
      <trkpt lat="42.43382" lon="24.2305">
        <ele>406.746538</ele>
        <time>2022-03-07T12:49:23.555Z</time>
      </trkpt>
      <trkpt lat="42.43387" lon="24.23039">
        <ele>406.683024</ele>
        <time>2022-03-07T12:49:25.549Z</time>
      </trkpt>
      <trkpt lat="42.43393" lon="24.23025">
        <ele>406.598748</ele>
        <time>2022-03-07T12:49:28.565Z</time>
      </trkpt>
      <trkpt lat="42.43399" lon="24.23011">
        <ele>406.513223</ele>
        <time>2022-03-07T12:49:31.549Z</time>
      </trkpt>
      <trkpt lat="42.43405" lon="24.22995">
        <ele>406.422918</ele>
        <time>2022-03-07T12:49:34.539Z</time>
      </trkpt>
      <trkpt lat="42.43409" lon="24.22979">
        <ele>406.332785</ele>
        <time>2022-03-07T12:49:37.663Z</time>
      </trkpt>
      <trkpt lat="42.43414" lon="24.22962">
        <ele>406.240469</ele>
        <time>2022-03-07T12:49:40.560Z</time>
      </trkpt>
      <trkpt lat="42.43419" lon="24.22946">
        <ele>406.146615</ele>
        <time>2022-03-07T12:49:43.543Z</time>
      </trkpt>
      <trkpt lat="42.43424" lon="24.22929">
        <ele>406.05383</ele>
        <time>2022-03-07T12:49:46.560Z</time>
      </trkpt>
      <trkpt lat="42.43429" lon="24.22912">
        <ele>405.959422</ele>
        <time>2022-03-07T12:49:49.547Z</time>
      </trkpt>
      <trkpt lat="42.43434" lon="24.22896">
        <ele>405.867328</ele>
        <time>2022-03-07T12:49:52.586Z</time>
      </trkpt>
      <trkpt lat="42.43439" lon="24.22881">
        <ele>405.838329</ele>
        <time>2022-03-07T12:49:55.566Z</time>
      </trkpt>
      <trkpt lat="42.43443" lon="24.22866">
        <ele>406.055835</ele>
        <time>2022-03-07T12:49:58.554Z</time>
      </trkpt>
      <trkpt lat="42.43448" lon="24.2285">
        <ele>406.30109</ele>
        <time>2022-03-07T12:50:01.562Z</time>
      </trkpt>
      <trkpt lat="42.43454" lon="24.22833">
        <ele>406.557413</ele>
        <time>2022-03-07T12:50:04.563Z</time>
      </trkpt>
      <trkpt lat="42.43457" lon="24.22821">
        <ele>406.734651</ele>
        <time>2022-03-07T12:50:06.539Z</time>
      </trkpt>
      <trkpt lat="42.43463" lon="24.22805">
        <ele>406.980637</ele>
        <time>2022-03-07T12:50:09.552Z</time>
      </trkpt>
      <trkpt lat="42.43467" lon="24.2279">
        <ele>407.203779</ele>
        <time>2022-03-07T12:50:12.552Z</time>
      </trkpt>
      <trkpt lat="42.43471" lon="24.22774">
        <ele>407.429395</ele>
        <time>2022-03-07T12:50:15.559Z</time>
      </trkpt>
      <trkpt lat="42.43476" lon="24.22759">
        <ele>407.658257</ele>
        <time>2022-03-07T12:50:18.557Z</time>
      </trkpt>
      <trkpt lat="42.43481" lon="24.22744">
        <ele>407.888255</ele>
        <time>2022-03-07T12:50:21.546Z</time>
      </trkpt>
      <trkpt lat="42.43487" lon="24.22728">
        <ele>408.135427</ele>
        <time>2022-03-07T12:50:24.557Z</time>
      </trkpt>
      <trkpt lat="42.43491" lon="24.22717">
        <ele>408.305043</ele>
        <time>2022-03-07T12:50:26.547Z</time>
      </trkpt>
      <trkpt lat="42.43496" lon="24.22699">
        <ele>408.557802</ele>
        <time>2022-03-07T12:50:29.591Z</time>
      </trkpt>
      <trkpt lat="42.43498" lon="24.22687">
        <ele>408.734125</ele>
        <time>2022-03-07T12:50:31.555Z</time>
      </trkpt>
      <trkpt lat="42.43501" lon="24.22675">
        <ele>408.90612</ele>
        <time>2022-03-07T12:50:33.571Z</time>
      </trkpt>
      <trkpt lat="42.43504" lon="24.22663">
        <ele>409.08133</ele>
        <time>2022-03-07T12:50:35.571Z</time>
      </trkpt>
      <trkpt lat="42.43508" lon="24.22651">
        <ele>409.136647</ele>
        <time>2022-03-07T12:50:37.539Z</time>
      </trkpt>
      <trkpt lat="42.43511" lon="24.22639">
        <ele>409.100326</ele>
        <time>2022-03-07T12:50:39.552Z</time>
      </trkpt>
      <trkpt lat="42.43516" lon="24.22623">
        <ele>409.048703</ele>
        <time>2022-03-07T12:50:42.552Z</time>
      </trkpt>
      <trkpt lat="42.43519" lon="24.22611">
        <ele>409.013724</ele>
        <time>2022-03-07T12:50:44.555Z</time>
      </trkpt>
      <trkpt lat="42.43522" lon="24.22599">
        <ele>408.978745</ele>
        <time>2022-03-07T12:50:46.582Z</time>
      </trkpt>
      <trkpt lat="42.43526" lon="24.22588">
        <ele>408.943093</ele>
        <time>2022-03-07T12:50:48.547Z</time>
      </trkpt>
      <trkpt lat="42.43529" lon="24.22576">
        <ele>408.907299</ele>
        <time>2022-03-07T12:50:50.549Z</time>
      </trkpt>
      <trkpt lat="42.43533" lon="24.22564">
        <ele>408.87099</ele>
        <time>2022-03-07T12:50:52.601Z</time>
      </trkpt>
      <trkpt lat="42.43536" lon="24.22552">
        <ele>408.836007</ele>
        <time>2022-03-07T12:50:54.561Z</time>
      </trkpt>
      <trkpt lat="42.43539" lon="24.22541">
        <ele>408.799805</ele>
        <time>2022-03-07T12:50:56.562Z</time>
      </trkpt>
      <trkpt lat="42.43543" lon="24.22529">
        <ele>408.763895</ele>
        <time>2022-03-07T12:50:58.542Z</time>
      </trkpt>
      <trkpt lat="42.43546" lon="24.22517">
        <ele>408.727693</ele>
        <time>2022-03-07T12:51:00.546Z</time>
      </trkpt>
      <trkpt lat="42.4355" lon="24.22505">
        <ele>408.692275</ele>
        <time>2022-03-07T12:51:02.568Z</time>
      </trkpt>
      <trkpt lat="42.43553" lon="24.22494">
        <ele>408.657006</ele>
        <time>2022-03-07T12:51:04.553Z</time>
      </trkpt>
      <trkpt lat="42.43556" lon="24.22482">
        <ele>408.621475</ele>
        <time>2022-03-07T12:51:06.546Z</time>
      </trkpt>
      <trkpt lat="42.43559" lon="24.2247">
        <ele>408.586357</ele>
        <time>2022-03-07T12:51:08.547Z</time>
      </trkpt>
      <trkpt lat="42.43564" lon="24.22453">
        <ele>408.534327</ele>
        <time>2022-03-07T12:51:11.585Z</time>
      </trkpt>
      <trkpt lat="42.43569" lon="24.22437">
        <ele>408.483493</ele>
        <time>2022-03-07T12:51:14.588Z</time>
      </trkpt>
      <trkpt lat="42.43574" lon="24.22422">
        <ele>408.541636</ele>
        <time>2022-03-07T12:51:17.540Z</time>
      </trkpt>
      <trkpt lat="42.43579" lon="24.22406">
        <ele>408.657013</ele>
        <time>2022-03-07T12:51:20.597Z</time>
      </trkpt>
      <trkpt lat="42.43583" lon="24.22392">
        <ele>408.766755</ele>
        <time>2022-03-07T12:51:23.561Z</time>
      </trkpt>
      <trkpt lat="42.43587" lon="24.22378">
        <ele>408.871776</ele>
        <time>2022-03-07T12:51:26.540Z</time>
      </trkpt>
      <trkpt lat="42.43591" lon="24.22365">
        <ele>408.973486</ele>
        <time>2022-03-07T12:51:29.549Z</time>
      </trkpt>
      <trkpt lat="42.43594" lon="24.22351">
        <ele>409.074095</ele>
        <time>2022-03-07T12:51:32.587Z</time>
      </trkpt>
      <trkpt lat="42.43597" lon="24.22339">
        <ele>409.170455</ele>
        <time>2022-03-07T12:51:35.582Z</time>
      </trkpt>
      <trkpt lat="42.43601" lon="24.22326">
        <ele>409.268508</ele>
        <time>2022-03-07T12:51:38.542Z</time>
      </trkpt>
      <trkpt lat="42.43605" lon="24.22312">
        <ele>409.371974</ele>
        <time>2022-03-07T12:51:41.565Z</time>
      </trkpt>
      <trkpt lat="42.4361" lon="24.223">
        <ele>409.470816</ele>
        <time>2022-03-07T12:51:44.539Z</time>
      </trkpt>
      <trkpt lat="42.43614" lon="24.22286">
        <ele>409.578306</ele>
        <time>2022-03-07T12:51:47.552Z</time>
      </trkpt>
      <trkpt lat="42.43618" lon="24.22272">
        <ele>409.682001</ele>
        <time>2022-03-07T12:51:50.557Z</time>
      </trkpt>
      <trkpt lat="42.43621" lon="24.22259">
        <ele>409.780681</ele>
        <time>2022-03-07T12:51:53.592Z</time>
      </trkpt>
      <trkpt lat="42.43626" lon="24.22246">
        <ele>409.883492</ele>
        <time>2022-03-07T12:51:56.550Z</time>
      </trkpt>
      <trkpt lat="42.43629" lon="24.22233">
        <ele>409.979505</ele>
        <time>2022-03-07T12:51:59.557Z</time>
      </trkpt>
      <trkpt lat="42.43633" lon="24.22222">
        <ele>410.068938</ele>
        <time>2022-03-07T12:52:02.552Z</time>
      </trkpt>
      <trkpt lat="42.43636" lon="24.22208">
        <ele>410.17228</ele>
        <time>2022-03-07T12:52:06.542Z</time>
      </trkpt>
      <trkpt lat="42.43639" lon="24.22195">
        <ele>410.247719</ele>
        <time>2022-03-07T12:52:09.567Z</time>
      </trkpt>
      <trkpt lat="42.43644" lon="24.22182">
        <ele>410.320847</ele>
        <time>2022-03-07T12:52:12.550Z</time>
      </trkpt>
      <trkpt lat="42.43648" lon="24.22168">
        <ele>410.400216</ele>
        <time>2022-03-07T12:52:15.622Z</time>
      </trkpt>
      <trkpt lat="42.43651" lon="24.22151">
        <ele>410.486604</ele>
        <time>2022-03-07T12:52:18.582Z</time>
      </trkpt>
      <trkpt lat="42.43653" lon="24.22139">
        <ele>410.54953</ele>
        <time>2022-03-07T12:52:20.591Z</time>
      </trkpt>
      <trkpt lat="42.43656" lon="24.22126">
        <ele>410.617003</ele>
        <time>2022-03-07T12:52:22.536Z</time>
      </trkpt>
      <trkpt lat="42.43658" lon="24.22112">
        <ele>410.691497</ele>
        <time>2022-03-07T12:52:24.541Z</time>
      </trkpt>
      <trkpt lat="42.43662" lon="24.22097">
        <ele>410.768475</ele>
        <time>2022-03-07T12:52:26.597Z</time>
      </trkpt>
      <trkpt lat="42.43664" lon="24.22082">
        <ele>410.844432</ele>
        <time>2022-03-07T12:52:28.534Z</time>
      </trkpt>
      <trkpt lat="42.43666" lon="24.22069">
        <ele>410.913762</ele>
        <time>2022-03-07T12:52:30.549Z</time>
      </trkpt>
      <trkpt lat="42.43668" lon="24.22055">
        <ele>410.983373</ele>
        <time>2022-03-07T12:52:32.561Z</time>
      </trkpt>
      <trkpt lat="42.43671" lon="24.22041">
        <ele>411.054761</ele>
        <time>2022-03-07T12:52:34.595Z</time>
      </trkpt>
      <trkpt lat="42.43673" lon="24.22027">
        <ele>411.126435</ele>
        <time>2022-03-07T12:52:36.544Z</time>
      </trkpt>
      <trkpt lat="42.43674" lon="24.22014">
        <ele>411.192086</ele>
        <time>2022-03-07T12:52:38.566Z</time>
      </trkpt>
      <trkpt lat="42.43676" lon="24.22001">
        <ele>411.259242</ele>
        <time>2022-03-07T12:52:40.559Z</time>
      </trkpt>
      <trkpt lat="42.43678" lon="24.21989">
        <ele>411.321261</ele>
        <time>2022-03-07T12:52:42.538Z</time>
      </trkpt>
      <trkpt lat="42.43679" lon="24.21977">
        <ele>411.383232</ele>
        <time>2022-03-07T12:52:44.553Z</time>
      </trkpt>
      <trkpt lat="42.43681" lon="24.21964">
        <ele>411.466265</ele>
        <time>2022-03-07T12:52:46.546Z</time>
      </trkpt>
      <trkpt lat="42.43683" lon="24.21951">
        <ele>411.566728</ele>
        <time>2022-03-07T12:52:48.603Z</time>
      </trkpt>
      <trkpt lat="42.43683" lon="24.21939">
        <ele>411.667831</ele>
        <time>2022-03-07T12:52:50.557Z</time>
      </trkpt>
      <trkpt lat="42.43685" lon="24.21927">
        <ele>411.766529</ele>
        <time>2022-03-07T12:52:52.554Z</time>
      </trkpt>
      <trkpt lat="42.43685" lon="24.21908">
        <ele>411.91048</ele>
        <time>2022-03-07T12:52:55.551Z</time>
      </trkpt>
      <trkpt lat="42.43687" lon="24.21892">
        <ele>412.044217</ele>
        <time>2022-03-07T12:52:58.550Z</time>
      </trkpt>
      <trkpt lat="42.43688" lon="24.21876">
        <ele>412.16849</ele>
        <time>2022-03-07T12:53:01.542Z</time>
      </trkpt>
      <trkpt lat="42.4369" lon="24.2186">
        <ele>412.297781</ele>
        <time>2022-03-07T12:53:04.584Z</time>
      </trkpt>
      <trkpt lat="42.43693" lon="24.21844">
        <ele>412.426181</ele>
        <time>2022-03-07T12:53:07.546Z</time>
      </trkpt>
      <trkpt lat="42.43696" lon="24.21828">
        <ele>412.5569</ele>
        <time>2022-03-07T12:53:10.584Z</time>
      </trkpt>
      <trkpt lat="42.43699" lon="24.21814">
        <ele>412.680567</ele>
        <time>2022-03-07T12:53:13.542Z</time>
      </trkpt>
      <trkpt lat="42.43702" lon="24.21801">
        <ele>412.78647</ele>
        <time>2022-03-07T12:53:16.559Z</time>
      </trkpt>
      <trkpt lat="42.43706" lon="24.21789">
        <ele>412.888526</ele>
        <time>2022-03-07T12:53:19.555Z</time>
      </trkpt>
      <trkpt lat="42.43711" lon="24.21776">
        <ele>413.005844</ele>
        <time>2022-03-07T12:53:22.545Z</time>
      </trkpt>
      <trkpt lat="42.43716" lon="24.2176">
        <ele>413.140923</ele>
        <time>2022-03-07T12:53:25.558Z</time>
      </trkpt>
      <trkpt lat="42.43722" lon="24.21746">
        <ele>413.276374</ele>
        <time>2022-03-07T12:53:28.563Z</time>
      </trkpt>
      <trkpt lat="42.43727" lon="24.21732">
        <ele>413.351686</ele>
        <time>2022-03-07T12:53:31.550Z</time>
      </trkpt>
      <trkpt lat="42.43732" lon="24.21719">
        <ele>413.31595</ele>
        <time>2022-03-07T12:53:34.549Z</time>
      </trkpt>
      <trkpt lat="42.43737" lon="24.21706">
        <ele>413.281842</ele>
        <time>2022-03-07T12:53:37.573Z</time>
      </trkpt>
      <trkpt lat="42.43742" lon="24.21694">
        <ele>413.246999</ele>
        <time>2022-03-07T12:53:40.554Z</time>
      </trkpt>
      <trkpt lat="42.43747" lon="24.21681">
        <ele>413.212384</ele>
        <time>2022-03-07T12:53:43.546Z</time>
      </trkpt>
      <trkpt lat="42.43753" lon="24.21669">
        <ele>413.177124</ele>
        <time>2022-03-07T12:53:46.542Z</time>
      </trkpt>
      <trkpt lat="42.43758" lon="24.21657">
        <ele>413.142214</ele>
        <time>2022-03-07T12:53:49.563Z</time>
      </trkpt>
      <trkpt lat="42.43764" lon="24.21645">
        <ele>413.106596</ele>
        <time>2022-03-07T12:53:52.577Z</time>
      </trkpt>
      <trkpt lat="42.43769" lon="24.21633">
        <ele>413.073414</ele>
        <time>2022-03-07T12:53:55.571Z</time>
      </trkpt>
      <trkpt lat="42.43774" lon="24.21621">
        <ele>413.039808</ele>
        <time>2022-03-07T12:53:58.557Z</time>
      </trkpt>
      <trkpt lat="42.43779" lon="24.21608">
        <ele>413.003577</ele>
        <time>2022-03-07T12:54:01.535Z</time>
      </trkpt>
      <trkpt lat="42.43784" lon="24.21595">
        <ele>412.968962</ele>
        <time>2022-03-07T12:54:04.553Z</time>
      </trkpt>
      <trkpt lat="42.43789" lon="24.21583">
        <ele>412.93371</ele>
        <time>2022-03-07T12:54:07.548Z</time>
      </trkpt>
      <trkpt lat="42.43794" lon="24.21571">
        <ele>412.900434</ele>
        <time>2022-03-07T12:54:10.564Z</time>
      </trkpt>
      <trkpt lat="42.438" lon="24.21558">
        <ele>412.864897</ele>
        <time>2022-03-07T12:54:13.571Z</time>
      </trkpt>
      <trkpt lat="42.43805" lon="24.21545">
        <ele>412.828469</ele>
        <time>2022-03-07T12:54:16.549Z</time>
      </trkpt>
      <trkpt lat="42.43811" lon="24.21532">
        <ele>412.791454</ele>
        <time>2022-03-07T12:54:19.555Z</time>
      </trkpt>
      <trkpt lat="42.43816" lon="24.21519">
        <ele>412.756274</ele>
        <time>2022-03-07T12:54:22.584Z</time>
      </trkpt>
      <trkpt lat="42.43821" lon="24.21506">
        <ele>412.722366</ele>
        <time>2022-03-07T12:54:25.570Z</time>
      </trkpt>
      <trkpt lat="42.43827" lon="24.21492">
        <ele>412.686839</ele>
        <time>2022-03-07T12:54:28.587Z</time>
      </trkpt>
      <trkpt lat="42.43833" lon="24.21478">
        <ele>412.651119</ele>
        <time>2022-03-07T12:54:31.549Z</time>
      </trkpt>
      <trkpt lat="42.43839" lon="24.21464">
        <ele>412.614465</ele>
        <time>2022-03-07T12:54:34.556Z</time>
      </trkpt>
      <trkpt lat="42.43844" lon="24.21449">
        <ele>412.576934</ele>
        <time>2022-03-07T12:54:37.554Z</time>
      </trkpt>
      <trkpt lat="42.43851" lon="24.21433">
        <ele>412.536763</ele>
        <time>2022-03-07T12:54:40.555Z</time>
      </trkpt>
      <trkpt lat="42.43855" lon="24.21422">
        <ele>412.508594</ele>
        <time>2022-03-07T12:54:42.545Z</time>
      </trkpt>
      <trkpt lat="42.4386" lon="24.21411">
        <ele>412.47978</ele>
        <time>2022-03-07T12:54:44.602Z</time>
      </trkpt>
      <trkpt lat="42.43864" lon="24.214">
        <ele>412.451243</ele>
        <time>2022-03-07T12:54:46.559Z</time>
      </trkpt>
      <trkpt lat="42.43868" lon="24.21388">
        <ele>412.423041</ele>
        <time>2022-03-07T12:54:48.595Z</time>
      </trkpt>
      <trkpt lat="42.43873" lon="24.21372">
        <ele>412.383269</ele>
        <time>2022-03-07T12:54:51.560Z</time>
      </trkpt>
      <trkpt lat="42.43876" lon="24.21361">
        <ele>412.355842</ele>
        <time>2022-03-07T12:54:53.545Z</time>
      </trkpt>
      <trkpt lat="42.4388" lon="24.21349">
        <ele>412.327578</ele>
        <time>2022-03-07T12:54:55.583Z</time>
      </trkpt>
      <trkpt lat="42.43882" lon="24.21331">
        <ele>412.287158</ele>
        <time>2022-03-07T12:54:58.536Z</time>
      </trkpt>
      <trkpt lat="42.43884" lon="24.21314">
        <ele>412.248108</ele>
        <time>2022-03-07T12:55:01.557Z</time>
      </trkpt>
      <trkpt lat="42.43884" lon="24.21297">
        <ele>412.245835</ele>
        <time>2022-03-07T12:55:04.547Z</time>
      </trkpt>
      <trkpt lat="42.43884" lon="24.2128">
        <ele>412.317917</ele>
        <time>2022-03-07T12:55:07.551Z</time>
      </trkpt>
      <trkpt lat="42.43884" lon="24.21264">
        <ele>412.38823</ele>
        <time>2022-03-07T12:55:10.570Z</time>
      </trkpt>
      <trkpt lat="42.43884" lon="24.21249">
        <ele>412.458581</ele>
        <time>2022-03-07T12:55:13.553Z</time>
      </trkpt>
      <trkpt lat="42.43884" lon="24.21232">
        <ele>412.529776</ele>
        <time>2022-03-07T12:55:16.542Z</time>
      </trkpt>
      <trkpt lat="42.43884" lon="24.21217">
        <ele>412.59876</ele>
        <time>2022-03-07T12:55:19.553Z</time>
      </trkpt>
      <trkpt lat="42.43884" lon="24.21202">
        <ele>412.662879</ele>
        <time>2022-03-07T12:55:22.542Z</time>
      </trkpt>
      <trkpt lat="42.43884" lon="24.21188">
        <ele>412.724372</ele>
        <time>2022-03-07T12:55:25.566Z</time>
      </trkpt>
      <trkpt lat="42.43884" lon="24.21175">
        <ele>412.785841</ele>
        <time>2022-03-07T12:55:28.582Z</time>
      </trkpt>
      <trkpt lat="42.43884" lon="24.21161">
        <ele>412.84645</ele>
        <time>2022-03-07T12:55:31.556Z</time>
      </trkpt>
      <trkpt lat="42.43884" lon="24.21147">
        <ele>412.907079</ele>
        <time>2022-03-07T12:55:34.546Z</time>
      </trkpt>
      <trkpt lat="42.43885" lon="24.21133">
        <ele>412.969433</ele>
        <time>2022-03-07T12:55:37.554Z</time>
      </trkpt>
      <trkpt lat="42.43884" lon="24.2112">
        <ele>413.026085</ele>
        <time>2022-03-07T12:55:40.545Z</time>
      </trkpt>
      <trkpt lat="42.43884" lon="24.21104">
        <ele>413.097303</ele>
        <time>2022-03-07T12:55:44.558Z</time>
      </trkpt>
      <trkpt lat="42.43884" lon="24.21091">
        <ele>413.15526</ele>
        <time>2022-03-07T12:55:47.547Z</time>
      </trkpt>
      <trkpt lat="42.43884" lon="24.21078">
        <ele>413.21098</ele>
        <time>2022-03-07T12:55:50.592Z</time>
      </trkpt>
      <trkpt lat="42.43884" lon="24.21066">
        <ele>413.267143</ele>
        <time>2022-03-07T12:55:53.557Z</time>
      </trkpt>
      <trkpt lat="42.43884" lon="24.21053">
        <ele>413.446693</ele>
        <time>2022-03-07T12:55:56.584Z</time>
      </trkpt>
      <trkpt lat="42.43884" lon="24.2104">
        <ele>413.780352</ele>
        <time>2022-03-07T12:55:59.552Z</time>
      </trkpt>
      <trkpt lat="42.43885" lon="24.21024">
        <ele>414.214747</ele>
        <time>2022-03-07T12:56:03.546Z</time>
      </trkpt>
      <trkpt lat="42.43884" lon="24.21011">
        <ele>414.556407</ele>
        <time>2022-03-07T12:56:06.564Z</time>
      </trkpt>
      <trkpt lat="42.43884" lon="24.20999">
        <ele>414.882122</ele>
        <time>2022-03-07T12:56:09.566Z</time>
      </trkpt>
      <trkpt lat="42.43885" lon="24.20986">
        <ele>415.213134</ele>
        <time>2022-03-07T12:56:12.554Z</time>
      </trkpt>
      <trkpt lat="42.43884" lon="24.20971">
        <ele>415.626274</ele>
        <time>2022-03-07T12:56:16.572Z</time>
      </trkpt>
      <trkpt lat="42.43884" lon="24.20958">
        <ele>415.949323</ele>
        <time>2022-03-07T12:56:19.553Z</time>
      </trkpt>
      <trkpt lat="42.43884" lon="24.20943">
        <ele>416.357168</ele>
        <time>2022-03-07T12:56:23.543Z</time>
      </trkpt>
      <trkpt lat="42.43884" lon="24.20927">
        <ele>416.772956</ele>
        <time>2022-03-07T12:56:27.554Z</time>
      </trkpt>
      <trkpt lat="42.43885" lon="24.20912">
        <ele>417.186423</ele>
        <time>2022-03-07T12:56:31.553Z</time>
      </trkpt>
      <trkpt lat="42.43885" lon="24.20896">
        <ele>417.597418</ele>
        <time>2022-03-07T12:56:35.606Z</time>
      </trkpt>
      <trkpt lat="42.43887" lon="24.20884">
        <ele>417.923322</ele>
        <time>2022-03-07T12:56:38.551Z</time>
      </trkpt>
      <trkpt lat="42.43888" lon="24.20868">
        <ele>418.343554</ele>
        <time>2022-03-07T12:56:42.554Z</time>
      </trkpt>
      <trkpt lat="42.43889" lon="24.20856">
        <ele>418.678893</ele>
        <time>2022-03-07T12:56:45.556Z</time>
      </trkpt>
      <trkpt lat="42.43891" lon="24.20844">
        <ele>419.003142</ele>
        <time>2022-03-07T12:56:48.563Z</time>
      </trkpt>
      <trkpt lat="42.43893" lon="24.20828">
        <ele>419.41136</ele>
        <time>2022-03-07T12:56:52.544Z</time>
      </trkpt>
      <trkpt lat="42.43895" lon="24.20816">
        <ele>419.74153</ele>
        <time>2022-03-07T12:56:55.560Z</time>
      </trkpt>
      <trkpt lat="42.43899" lon="24.20804">
        <ele>419.957538</ele>
        <time>2022-03-07T12:56:58.542Z</time>
      </trkpt>
      <trkpt lat="42.43901" lon="24.20792">
        <ele>420.167748</ele>
        <time>2022-03-07T12:57:01.568Z</time>
      </trkpt>
      <trkpt lat="42.43903" lon="24.2078">
        <ele>420.369059</ele>
        <time>2022-03-07T12:57:04.580Z</time>
      </trkpt>
      <trkpt lat="42.43906" lon="24.20768">
        <ele>420.577287</ele>
        <time>2022-03-07T12:57:07.559Z</time>
      </trkpt>
      <trkpt lat="42.43908" lon="24.20756">
        <ele>420.78482</ele>
        <time>2022-03-07T12:57:10.555Z</time>
      </trkpt>
      <trkpt lat="42.43911" lon="24.20743">
        <ele>420.991298</ele>
        <time>2022-03-07T12:57:13.573Z</time>
      </trkpt>
      <trkpt lat="42.43913" lon="24.20732">
        <ele>421.193685</ele>
        <time>2022-03-07T12:57:16.561Z</time>
      </trkpt>
      <trkpt lat="42.43917" lon="24.20719">
        <ele>421.405999</ele>
        <time>2022-03-07T12:57:19.568Z</time>
      </trkpt>
      <trkpt lat="42.43921" lon="24.20707">
        <ele>421.623409</ele>
        <time>2022-03-07T12:57:22.560Z</time>
      </trkpt>
      <trkpt lat="42.43925" lon="24.20696">
        <ele>421.842916</ele>
        <time>2022-03-07T12:57:25.537Z</time>
      </trkpt>
      <trkpt lat="42.4393" lon="24.20684">
        <ele>422.061659</ele>
        <time>2022-03-07T12:57:28.568Z</time>
      </trkpt>
      <trkpt lat="42.43935" lon="24.20672">
        <ele>422.28307</ele>
        <time>2022-03-07T12:57:31.560Z</time>
      </trkpt>
      <trkpt lat="42.43941" lon="24.2066">
        <ele>422.516697</ele>
        <time>2022-03-07T12:57:34.573Z</time>
      </trkpt>
      <trkpt lat="42.43947" lon="24.20649">
        <ele>422.741008</ele>
        <time>2022-03-07T12:57:37.571Z</time>
      </trkpt>
      <trkpt lat="42.43954" lon="24.20639">
        <ele>422.972122</ele>
        <time>2022-03-07T12:57:40.572Z</time>
      </trkpt>
      <trkpt lat="42.43961" lon="24.20629">
        <ele>423.198487</ele>
        <time>2022-03-07T12:57:43.574Z</time>
      </trkpt>
      <trkpt lat="42.43969" lon="24.2062">
        <ele>423.423837</ele>
        <time>2022-03-07T12:57:46.573Z</time>
      </trkpt>
      <trkpt lat="42.43976" lon="24.20611">
        <ele>423.647978</ele>
        <time>2022-03-07T12:57:49.561Z</time>
      </trkpt>
      <trkpt lat="42.43984" lon="24.20603">
        <ele>423.736838</ele>
        <time>2022-03-07T12:57:52.553Z</time>
      </trkpt>
      <trkpt lat="42.43992" lon="24.20594">
        <ele>423.713782</ele>
        <time>2022-03-07T12:57:55.554Z</time>
      </trkpt>
      <trkpt lat="42.44" lon="24.20585">
        <ele>423.689974</ele>
        <time>2022-03-07T12:57:58.558Z</time>
      </trkpt>
      <trkpt lat="42.44008" lon="24.20576">
        <ele>423.666523</ele>
        <time>2022-03-07T12:58:01.545Z</time>
      </trkpt>
      <trkpt lat="42.44016" lon="24.20568">
        <ele>423.643216</ele>
        <time>2022-03-07T12:58:04.557Z</time>
      </trkpt>
      <trkpt lat="42.44023" lon="24.20559">
        <ele>423.620294</ele>
        <time>2022-03-07T12:58:07.559Z</time>
      </trkpt>
      <trkpt lat="42.44031" lon="24.2055">
        <ele>423.595983</ele>
        <time>2022-03-07T12:58:10.555Z</time>
      </trkpt>
      <trkpt lat="42.44039" lon="24.2054">
        <ele>423.571807</ele>
        <time>2022-03-07T12:58:13.586Z</time>
      </trkpt>
      <trkpt lat="42.44047" lon="24.20531">
        <ele>423.547453</ele>
        <time>2022-03-07T12:58:16.558Z</time>
      </trkpt>
      <trkpt lat="42.44054" lon="24.20522">
        <ele>423.525336</ele>
        <time>2022-03-07T12:58:19.537Z</time>
      </trkpt>
      <trkpt lat="42.44062" lon="24.20514">
        <ele>423.502602</ele>
        <time>2022-03-07T12:58:22.553Z</time>
      </trkpt>
      <trkpt lat="42.44069" lon="24.20506">
        <ele>423.481111</ele>
        <time>2022-03-07T12:58:25.565Z</time>
      </trkpt>
      <trkpt lat="42.44078" lon="24.20495">
        <ele>423.453273</ele>
        <time>2022-03-07T12:58:29.554Z</time>
      </trkpt>
      <trkpt lat="42.44085" lon="24.20486">
        <ele>423.430984</ele>
        <time>2022-03-07T12:58:32.555Z</time>
      </trkpt>
      <trkpt lat="42.44092" lon="24.20478">
        <ele>423.408808</ele>
        <time>2022-03-07T12:58:35.594Z</time>
      </trkpt>
      <trkpt lat="42.441" lon="24.2047">
        <ele>423.386936</ele>
        <time>2022-03-07T12:58:38.554Z</time>
      </trkpt>
      <trkpt lat="42.44107" lon="24.20462">
        <ele>423.365456</ele>
        <time>2022-03-07T12:58:41.549Z</time>
      </trkpt>
      <trkpt lat="42.44116" lon="24.20452">
        <ele>423.338959</ele>
        <time>2022-03-07T12:58:45.547Z</time>
      </trkpt>
      <trkpt lat="42.44124" lon="24.20444">
        <ele>423.470782</ele>
        <time>2022-03-07T12:58:49.553Z</time>
      </trkpt>
      <trkpt lat="42.44131" lon="24.20436">
        <ele>423.620039</ele>
        <time>2022-03-07T12:58:52.603Z</time>
      </trkpt>
      <trkpt lat="42.44139" lon="24.20429">
        <ele>423.77154</ele>
        <time>2022-03-07T12:58:55.554Z</time>
      </trkpt>
      <trkpt lat="42.44146" lon="24.20419">
        <ele>423.935385</ele>
        <time>2022-03-07T12:58:59.560Z</time>
      </trkpt>
      <trkpt lat="42.44153" lon="24.2041">
        <ele>424.097679</ele>
        <time>2022-03-07T12:59:03.593Z</time>
      </trkpt>
      <trkpt lat="42.4416" lon="24.20401">
        <ele>424.255819</ele>
        <time>2022-03-07T12:59:07.571Z</time>
      </trkpt>
      <trkpt lat="42.44168" lon="24.20393">
        <ele>424.415485</ele>
        <time>2022-03-07T12:59:11.557Z</time>
      </trkpt>
      <trkpt lat="42.44176" lon="24.20385">
        <ele>424.585902</ele>
        <time>2022-03-07T12:59:15.547Z</time>
      </trkpt>
      <trkpt lat="42.44184" lon="24.20376">
        <ele>424.75117</ele>
        <time>2022-03-07T12:59:19.542Z</time>
      </trkpt>
      <trkpt lat="42.44191" lon="24.20368">
        <ele>424.907318</ele>
        <time>2022-03-07T12:59:23.556Z</time>
      </trkpt>
      <trkpt lat="42.44199" lon="24.20358">
        <ele>425.084177</ele>
        <time>2022-03-07T12:59:27.558Z</time>
      </trkpt>
      <trkpt lat="42.44208" lon="24.20349">
        <ele>425.262763</ele>
        <time>2022-03-07T12:59:31.573Z</time>
      </trkpt>
      <trkpt lat="42.44216" lon="24.20338">
        <ele>425.452616</ele>
        <time>2022-03-07T12:59:35.543Z</time>
      </trkpt>
      <trkpt lat="42.44223" lon="24.2033">
        <ele>425.60469</ele>
        <time>2022-03-07T12:59:38.566Z</time>
      </trkpt>
      <trkpt lat="42.44231" lon="24.20322">
        <ele>425.765113</ele>
        <time>2022-03-07T12:59:41.563Z</time>
      </trkpt>
      <trkpt lat="42.44239" lon="24.20312">
        <ele>425.939139</ele>
        <time>2022-03-07T12:59:44.535Z</time>
      </trkpt>
      <trkpt lat="42.44247" lon="24.20302">
        <ele>426.124141</ele>
        <time>2022-03-07T12:59:47.565Z</time>
      </trkpt>
      <trkpt lat="42.44256" lon="24.20292">
        <ele>426.260754</ele>
        <time>2022-03-07T12:59:50.564Z</time>
      </trkpt>
      <trkpt lat="42.44266" lon="24.20281">
        <ele>426.073366</ele>
        <time>2022-03-07T12:59:53.561Z</time>
      </trkpt>
      <trkpt lat="42.44275" lon="24.2027">
        <ele>425.88976</ele>
        <time>2022-03-07T12:59:56.553Z</time>
      </trkpt>
      <trkpt lat="42.44285" lon="24.2026">
        <ele>425.709946</ele>
        <time>2022-03-07T12:59:59.552Z</time>
      </trkpt>
      <trkpt lat="42.44293" lon="24.20251">
        <ele>425.550507</ele>
        <time>2022-03-07T13:00:02.541Z</time>
      </trkpt>
      <trkpt lat="42.44302" lon="24.20241">
        <ele>425.378615</ele>
        <time>2022-03-07T13:00:06.547Z</time>
      </trkpt>
      <trkpt lat="42.44309" lon="24.2023">
        <ele>425.222752</ele>
        <time>2022-03-07T13:00:10.551Z</time>
      </trkpt>
      <trkpt lat="42.44314" lon="24.20219">
        <ele>425.081719</ele>
        <time>2022-03-07T13:00:13.551Z</time>
      </trkpt>
      <trkpt lat="42.44318" lon="24.20205">
        <ele>424.917375</ele>
        <time>2022-03-07T13:00:16.556Z</time>
      </trkpt>
      <trkpt lat="42.44322" lon="24.20191">
        <ele>424.751075</ele>
        <time>2022-03-07T13:00:19.548Z</time>
      </trkpt>
      <trkpt lat="42.44324" lon="24.20174">
        <ele>424.559615</ele>
        <time>2022-03-07T13:00:22.535Z</time>
      </trkpt>
      <trkpt lat="42.44325" lon="24.20161">
        <ele>424.414418</ele>
        <time>2022-03-07T13:00:24.536Z</time>
      </trkpt>
      <trkpt lat="42.44326" lon="24.20148">
        <ele>424.27121</ele>
        <time>2022-03-07T13:00:26.551Z</time>
      </trkpt>
      <trkpt lat="42.44327" lon="24.20134">
        <ele>424.121973</ele>
        <time>2022-03-07T13:00:28.556Z</time>
      </trkpt>
      <trkpt lat="42.44329" lon="24.20121">
        <ele>423.968544</ele>
        <time>2022-03-07T13:00:30.557Z</time>
      </trkpt>
      <trkpt lat="42.44331" lon="24.20107">
        <ele>423.813252</ele>
        <time>2022-03-07T13:00:32.548Z</time>
      </trkpt>
      <trkpt lat="42.44334" lon="24.20093">
        <ele>423.652479</ele>
        <time>2022-03-07T13:00:34.559Z</time>
      </trkpt>
      <trkpt lat="42.44338" lon="24.20079">
        <ele>423.703348</ele>
        <time>2022-03-07T13:00:36.590Z</time>
      </trkpt>
      <trkpt lat="42.44342" lon="24.20066">
        <ele>423.818905</ele>
        <time>2022-03-07T13:00:38.568Z</time>
      </trkpt>
      <trkpt lat="42.44345" lon="24.20055">
        <ele>423.924382</ele>
        <time>2022-03-07T13:00:40.554Z</time>
      </trkpt>
      <trkpt lat="42.4435" lon="24.2004">
        <ele>424.062939</ele>
        <time>2022-03-07T13:00:43.555Z</time>
      </trkpt>
      <trkpt lat="42.44356" lon="24.20022">
        <ele>424.224177</ele>
        <time>2022-03-07T13:00:46.555Z</time>
      </trkpt>
      <trkpt lat="42.4436" lon="24.20011">
        <ele>424.331202</ele>
        <time>2022-03-07T13:00:48.558Z</time>
      </trkpt>
      <trkpt lat="42.44364" lon="24.19999">
        <ele>424.44019</ele>
        <time>2022-03-07T13:00:50.554Z</time>
      </trkpt>
      <trkpt lat="42.44368" lon="24.19988">
        <ele>424.546143</ele>
        <time>2022-03-07T13:00:52.544Z</time>
      </trkpt>
      <trkpt lat="42.44372" lon="24.19977">
        <ele>424.652595</ele>
        <time>2022-03-07T13:00:54.557Z</time>
      </trkpt>
      <trkpt lat="42.44377" lon="24.19962">
        <ele>424.790688</ele>
        <time>2022-03-07T13:00:57.563Z</time>
      </trkpt>
      <trkpt lat="42.44381" lon="24.19949">
        <ele>424.914022</ele>
        <time>2022-03-07T13:01:00.556Z</time>
      </trkpt>
      <trkpt lat="42.44387" lon="24.19933">
        <ele>425.058353</ele>
        <time>2022-03-07T13:01:03.555Z</time>
      </trkpt>
      <trkpt lat="42.44393" lon="24.19919">
        <ele>425.200695</ele>
        <time>2022-03-07T13:01:06.537Z</time>
      </trkpt>
      <trkpt lat="42.44399" lon="24.19906">
        <ele>425.330581</ele>
        <time>2022-03-07T13:01:09.564Z</time>
      </trkpt>
      <trkpt lat="42.44407" lon="24.19895">
        <ele>425.459541</ele>
        <time>2022-03-07T13:01:12.557Z</time>
      </trkpt>
      <trkpt lat="42.44413" lon="24.19884">
        <ele>425.578201</ele>
        <time>2022-03-07T13:01:15.565Z</time>
      </trkpt>
      <trkpt lat="42.4442" lon="24.19875">
        <ele>425.68624</ele>
        <time>2022-03-07T13:01:18.547Z</time>
      </trkpt>
      <trkpt lat="42.44427" lon="24.19864">
        <ele>425.846524</ele>
        <time>2022-03-07T13:01:22.549Z</time>
      </trkpt>
      <trkpt lat="42.44435" lon="24.19852">
        <ele>426.010698</ele>
        <time>2022-03-07T13:01:26.558Z</time>
      </trkpt>
      <trkpt lat="42.44442" lon="24.19841">
        <ele>426.163233</ele>
        <time>2022-03-07T13:01:30.588Z</time>
      </trkpt>
      <trkpt lat="42.44448" lon="24.19831">
        <ele>426.299768</ele>
        <time>2022-03-07T13:01:33.564Z</time>
      </trkpt>
      <trkpt lat="42.44455" lon="24.19821">
        <ele>426.441217</ele>
        <time>2022-03-07T13:01:36.573Z</time>
      </trkpt>
      <trkpt lat="42.44462" lon="24.19811">
        <ele>426.585636</ele>
        <time>2022-03-07T13:01:39.563Z</time>
      </trkpt>
      <trkpt lat="42.44469" lon="24.19803">
        <ele>426.717184</ele>
        <time>2022-03-07T13:01:42.578Z</time>
      </trkpt>
      <trkpt lat="42.44477" lon="24.19791">
        <ele>426.884717</ele>
        <time>2022-03-07T13:01:46.553Z</time>
      </trkpt>
      <trkpt lat="42.44486" lon="24.19779">
        <ele>427.057222</ele>
        <time>2022-03-07T13:01:50.543Z</time>
      </trkpt>
      <trkpt lat="42.44493" lon="24.19769">
        <ele>427.202175</ele>
        <time>2022-03-07T13:01:53.589Z</time>
      </trkpt>
      <trkpt lat="42.445" lon="24.19757">
        <ele>427.370801</ele>
        <time>2022-03-07T13:01:57.554Z</time>
      </trkpt>
      <trkpt lat="42.44508" lon="24.19745">
        <ele>427.532473</ele>
        <time>2022-03-07T13:02:01.566Z</time>
      </trkpt>
      <trkpt lat="42.44515" lon="24.19734">
        <ele>427.692092</ele>
        <time>2022-03-07T13:02:05.557Z</time>
      </trkpt>
      <trkpt lat="42.44523" lon="24.19723">
        <ele>427.844739</ele>
        <time>2022-03-07T13:02:09.561Z</time>
      </trkpt>
      <trkpt lat="42.44529" lon="24.19714">
        <ele>427.979501</ele>
        <time>2022-03-07T13:02:12.556Z</time>
      </trkpt>
      <trkpt lat="42.44536" lon="24.19704">
        <ele>428.119695</ele>
        <time>2022-03-07T13:02:15.557Z</time>
      </trkpt>
      <trkpt lat="42.44542" lon="24.19693">
        <ele>428.212943</ele>
        <time>2022-03-07T13:02:18.536Z</time>
      </trkpt>
      <trkpt lat="42.44548" lon="24.19682">
        <ele>428.147536</ele>
        <time>2022-03-07T13:02:21.561Z</time>
      </trkpt>
      <trkpt lat="42.44553" lon="24.1967">
        <ele>428.08466</ele>
        <time>2022-03-07T13:02:24.557Z</time>
      </trkpt>
      <trkpt lat="42.44559" lon="24.19659">
        <ele>428.021098</ele>
        <time>2022-03-07T13:02:27.559Z</time>
      </trkpt>
      <trkpt lat="42.44564" lon="24.19648">
        <ele>427.955999</ele>
        <time>2022-03-07T13:02:30.554Z</time>
      </trkpt>
      <trkpt lat="42.4457" lon="24.19636">
        <ele>427.888271</ele>
        <time>2022-03-07T13:02:33.554Z</time>
      </trkpt>
      <trkpt lat="42.44576" lon="24.19623">
        <ele>427.820148</ele>
        <time>2022-03-07T13:02:36.548Z</time>
      </trkpt>
      <trkpt lat="42.44581" lon="24.19613">
        <ele>427.757804</ele>
        <time>2022-03-07T13:02:39.595Z</time>
      </trkpt>
      <trkpt lat="42.44587" lon="24.19601">
        <ele>427.692788</ele>
        <time>2022-03-07T13:02:42.542Z</time>
      </trkpt>
      <trkpt lat="42.44594" lon="24.19588">
        <ele>427.617939</ele>
        <time>2022-03-07T13:02:45.546Z</time>
      </trkpt>
      <trkpt lat="42.446" lon="24.19576">
        <ele>427.545719</ele>
        <time>2022-03-07T13:02:48.551Z</time>
      </trkpt>
      <trkpt lat="42.44607" lon="24.19563">
        <ele>427.47352</ele>
        <time>2022-03-07T13:02:51.567Z</time>
      </trkpt>
      <trkpt lat="42.44613" lon="24.19551">
        <ele>427.404373</ele>
        <time>2022-03-07T13:02:54.557Z</time>
      </trkpt>
      <trkpt lat="42.44619" lon="24.19539">
        <ele>427.332514</ele>
        <time>2022-03-07T13:02:57.565Z</time>
      </trkpt>
      <trkpt lat="42.44625" lon="24.19526">
        <ele>427.261011</ele>
        <time>2022-03-07T13:03:00.555Z</time>
      </trkpt>
      <trkpt lat="42.44632" lon="24.19513">
        <ele>427.186546</ele>
        <time>2022-03-07T13:03:03.559Z</time>
      </trkpt>
      <trkpt lat="42.4464" lon="24.19501">
        <ele>427.112755</ele>
        <time>2022-03-07T13:03:06.598Z</time>
      </trkpt>
      <trkpt lat="42.44647" lon="24.19489">
        <ele>427.243951</ele>
        <time>2022-03-07T13:03:09.558Z</time>
      </trkpt>
      <trkpt lat="42.44654" lon="24.19477">
        <ele>427.559381</ele>
        <time>2022-03-07T13:03:12.562Z</time>
      </trkpt>
      <trkpt lat="42.44662" lon="24.19466">
        <ele>427.875429</ele>
        <time>2022-03-07T13:03:15.561Z</time>
      </trkpt>
      <trkpt lat="42.4467" lon="24.19456">
        <ele>428.189928</ele>
        <time>2022-03-07T13:03:18.546Z</time>
      </trkpt>
      <trkpt lat="42.44679" lon="24.19446">
        <ele>428.496422</ele>
        <time>2022-03-07T13:03:21.548Z</time>
      </trkpt>
      <trkpt lat="42.44687" lon="24.19437">
        <ele>428.791212</ele>
        <time>2022-03-07T13:03:24.553Z</time>
      </trkpt>
      <trkpt lat="42.44696" lon="24.19428">
        <ele>429.080976</ele>
        <time>2022-03-07T13:03:27.551Z</time>
      </trkpt>
      <trkpt lat="42.44705" lon="24.1942">
        <ele>429.391567</ele>
        <time>2022-03-07T13:03:30.559Z</time>
      </trkpt>
      <trkpt lat="42.44714" lon="24.19411">
        <ele>429.705822</ele>
        <time>2022-03-07T13:03:33.551Z</time>
      </trkpt>
      <trkpt lat="42.44723" lon="24.19404">
        <ele>429.992034</ele>
        <time>2022-03-07T13:03:36.562Z</time>
      </trkpt>
      <trkpt lat="42.44733" lon="24.19399">
        <ele>430.264426</ele>
        <time>2022-03-07T13:03:39.582Z</time>
      </trkpt>
      <trkpt lat="42.44743" lon="24.19394">
        <ele>430.568739</ele>
        <time>2022-03-07T13:03:42.557Z</time>
      </trkpt>
      <trkpt lat="42.44752" lon="24.19389">
        <ele>430.853558</ele>
        <time>2022-03-07T13:03:45.570Z</time>
      </trkpt>
      <trkpt lat="42.44762" lon="24.19385">
        <ele>431.12132</ele>
        <time>2022-03-07T13:03:48.597Z</time>
      </trkpt>
      <trkpt lat="42.44773" lon="24.19382">
        <ele>431.446302</ele>
        <time>2022-03-07T13:03:52.554Z</time>
      </trkpt>
      <trkpt lat="42.44783" lon="24.19379">
        <ele>431.728795</ele>
        <time>2022-03-07T13:03:56.542Z</time>
      </trkpt>
      <trkpt lat="42.44793" lon="24.19376">
        <ele>432.005836</ele>
        <time>2022-03-07T13:04:00.554Z</time>
      </trkpt>
      <trkpt lat="42.44803" lon="24.19374">
        <ele>432.567092</ele>
        <time>2022-03-07T13:04:04.566Z</time>
      </trkpt>
      <trkpt lat="42.44812" lon="24.19374">
        <ele>433.145026</ele>
        <time>2022-03-07T13:04:08.542Z</time>
      </trkpt>
      <trkpt lat="42.44823" lon="24.19373">
        <ele>433.816903</ele>
        <time>2022-03-07T13:04:13.566Z</time>
      </trkpt>
      <trkpt lat="42.44834" lon="24.19374">
        <ele>434.507496</ele>
        <time>2022-03-07T13:04:18.539Z</time>
      </trkpt>
      <trkpt lat="42.44843" lon="24.19375">
        <ele>435.093461</ele>
        <time>2022-03-07T13:04:23.599Z</time>
      </trkpt>
      <trkpt lat="42.44852" lon="24.19376">
        <ele>435.674559</ele>
        <time>2022-03-07T13:04:29.540Z</time>
      </trkpt>
      <trkpt lat="42.44862" lon="24.19377">
        <ele>436.296587</ele>
        <time>2022-03-07T13:04:35.555Z</time>
      </trkpt>
      <trkpt lat="42.44872" lon="24.19379">
        <ele>436.935419</ele>
        <time>2022-03-07T13:04:41.551Z</time>
      </trkpt>
      <trkpt lat="42.44881" lon="24.1938">
        <ele>437.523285</ele>
        <time>2022-03-07T13:04:47.547Z</time>
      </trkpt>
      <trkpt lat="42.44891" lon="24.19381">
        <ele>438.135108</ele>
        <time>2022-03-07T13:04:54.543Z</time>
      </trkpt>
      <trkpt lat="42.449" lon="24.19382">
        <ele>438.708568</ele>
        <time>2022-03-07T13:05:00.556Z</time>
      </trkpt>
      <trkpt lat="42.4491" lon="24.19384">
        <ele>439.340085</ele>
        <time>2022-03-07T13:05:06.552Z</time>
      </trkpt>
      <trkpt lat="42.4492" lon="24.19386">
        <ele>439.95462</ele>
        <time>2022-03-07T13:05:13.582Z</time>
      </trkpt>
      <trkpt lat="42.44929" lon="24.19387">
        <ele>440.539541</ele>
        <time>2022-03-07T13:05:19.545Z</time>
      </trkpt>
      <trkpt lat="42.44938" lon="24.19388">
        <ele>441.120141</ele>
        <time>2022-03-07T13:05:26.549Z</time>
      </trkpt>
      <trkpt lat="42.44947" lon="24.1939">
        <ele>441.695888</ele>
        <time>2022-03-07T13:05:32.548Z</time>
      </trkpt>
      <trkpt lat="42.44957" lon="24.19392">
        <ele>442.308185</ele>
        <time>2022-03-07T13:05:38.543Z</time>
      </trkpt>
      <trkpt lat="42.44967" lon="24.19392">
        <ele>442.911207</ele>
        <time>2022-03-07T13:05:44.545Z</time>
      </trkpt>
      <trkpt lat="42.44976" lon="24.19392">
        <ele>443.531521</ele>
        <time>2022-03-07T13:05:50.547Z</time>
      </trkpt>
      <trkpt lat="42.44986" lon="24.19392">
        <ele>444.124145</ele>
        <time>2022-03-07T13:05:57.582Z</time>
      </trkpt>
      <trkpt lat="42.44996" lon="24.19392">
        <ele>444.81334</ele>
        <time>2022-03-07T13:06:04.566Z</time>
      </trkpt>
      <trkpt lat="42.45007" lon="24.19391">
        <ele>445.471031</ele>
        <time>2022-03-07T13:06:10.586Z</time>
      </trkpt>
      <trkpt lat="42.45016" lon="24.1939">
        <ele>446.065784</ele>
        <time>2022-03-07T13:06:16.578Z</time>
      </trkpt>
      <trkpt lat="42.45025" lon="24.19389">
        <ele>446.674259</ele>
        <time>2022-03-07T13:06:22.563Z</time>
      </trkpt>
      <trkpt lat="42.45035" lon="24.19388">
        <ele>447.295094</ele>
        <time>2022-03-07T13:06:29.555Z</time>
      </trkpt>
      <trkpt lat="42.45044" lon="24.19386">
        <ele>447.924354</ele>
        <time>2022-03-07T13:06:36.553Z</time>
      </trkpt>
      <trkpt lat="42.45054" lon="24.19382">
        <ele>448.545112</ele>
        <time>2022-03-07T13:06:42.556Z</time>
      </trkpt>
      <trkpt lat="42.45063" lon="24.19381">
        <ele>449.134888</ele>
        <time>2022-03-07T13:06:48.541Z</time>
      </trkpt>
      <trkpt lat="42.45071" lon="24.19377">
        <ele>449.722079</ele>
        <time>2022-03-07T13:06:54.572Z</time>
      </trkpt>
      <trkpt lat="42.4508" lon="24.19374">
        <ele>450.302599</ele>
        <time>2022-03-07T13:07:00.548Z</time>
      </trkpt>
      <trkpt lat="42.45089" lon="24.19371">
        <ele>450.893193</ele>
        <time>2022-03-07T13:07:06.537Z</time>
      </trkpt>
      <trkpt lat="42.45098" lon="24.19367">
        <ele>451.477608</ele>
        <time>2022-03-07T13:07:12.558Z</time>
      </trkpt>
      <trkpt lat="42.45106" lon="24.19362">
        <ele>452.082119</ele>
        <time>2022-03-07T13:07:18.574Z</time>
      </trkpt>
      <trkpt lat="42.45115" lon="24.19357">
        <ele>452.692535</ele>
        <time>2022-03-07T13:07:24.538Z</time>
      </trkpt>
      <trkpt lat="42.45124" lon="24.19352">
        <ele>453.338596</ele>
        <time>2022-03-07T13:07:31.581Z</time>
      </trkpt>
      <trkpt lat="42.45133" lon="24.19347">
        <ele>453.916054</ele>
        <time>2022-03-07T13:07:37.554Z</time>
      </trkpt>
      <trkpt lat="42.45142" lon="24.19341">
        <ele>454.570562</ele>
        <time>2022-03-07T13:07:44.543Z</time>
      </trkpt>
      <trkpt lat="42.4515" lon="24.19335">
        <ele>455.105376</ele>
        <time>2022-03-07T13:07:50.546Z</time>
      </trkpt>
      <trkpt lat="42.45158" lon="24.1933">
        <ele>455.564092</ele>
        <time>2022-03-07T13:07:56.554Z</time>
      </trkpt>
      <trkpt lat="42.45166" lon="24.19323">
        <ele>456.055718</ele>
        <time>2022-03-07T13:08:02.537Z</time>
      </trkpt>
      <trkpt lat="42.45175" lon="24.19318">
        <ele>456.534932</ele>
        <time>2022-03-07T13:08:08.558Z</time>
      </trkpt>
      <trkpt lat="42.45184" lon="24.19312">
        <ele>457.052764</ele>
        <time>2022-03-07T13:08:15.551Z</time>
      </trkpt>
      <trkpt lat="42.45192" lon="24.19305">
        <ele>457.523099</ele>
        <time>2022-03-07T13:08:21.568Z</time>
      </trkpt>
      <trkpt lat="42.452" lon="24.19299">
        <ele>458.002882</ele>
        <time>2022-03-07T13:08:27.557Z</time>
      </trkpt>
      <trkpt lat="42.45209" lon="24.19293">
        <ele>458.492839</ele>
        <time>2022-03-07T13:08:33.580Z</time>
      </trkpt>
      <trkpt lat="42.45217" lon="24.19286">
        <ele>458.983201</ele>
        <time>2022-03-07T13:08:39.563Z</time>
      </trkpt>
      <trkpt lat="42.45226" lon="24.1928">
        <ele>459.460577</ele>
        <time>2022-03-07T13:08:45.554Z</time>
      </trkpt>
      <trkpt lat="42.45234" lon="24.19275">
        <ele>459.918306</ele>
        <time>2022-03-07T13:08:51.560Z</time>
      </trkpt>
      <trkpt lat="42.45242" lon="24.19268">
        <ele>460.408064</ele>
        <time>2022-03-07T13:08:57.560Z</time>
      </trkpt>
      <trkpt lat="42.45251" lon="24.19262">
        <ele>460.901191</ele>
        <time>2022-03-07T13:09:03.583Z</time>
      </trkpt>
      <trkpt lat="42.4526" lon="24.19256">
        <ele>461.426524</ele>
        <time>2022-03-07T13:09:09.533Z</time>
      </trkpt>
      <trkpt lat="42.45269" lon="24.19251">
        <ele>461.904368</ele>
        <time>2022-03-07T13:09:15.566Z</time>
      </trkpt>
      <trkpt lat="42.45277" lon="24.19244">
        <ele>462.38279</ele>
        <time>2022-03-07T13:09:21.552Z</time>
      </trkpt>
      <trkpt lat="42.45286" lon="24.19238">
        <ele>462.883278</ele>
        <time>2022-03-07T13:09:27.561Z</time>
      </trkpt>
      <trkpt lat="42.45294" lon="24.19231">
        <ele>463.367381</ele>
        <time>2022-03-07T13:09:33.550Z</time>
      </trkpt>
      <trkpt lat="42.45302" lon="24.19226">
        <ele>463.831239</ele>
        <time>2022-03-07T13:09:39.588Z</time>
      </trkpt>
      <trkpt lat="42.45311" lon="24.1922">
        <ele>464.404194</ele>
        <time>2022-03-07T13:09:46.547Z</time>
      </trkpt>
      <trkpt lat="42.45319" lon="24.19212">
        <ele>464.942592</ele>
        <time>2022-03-07T13:09:52.559Z</time>
      </trkpt>
      <trkpt lat="42.45327" lon="24.19206">
        <ele>465.495126</ele>
        <time>2022-03-07T13:09:58.539Z</time>
      </trkpt>
      <trkpt lat="42.45336" lon="24.19199">
        <ele>466.071027</ele>
        <time>2022-03-07T13:10:05.543Z</time>
      </trkpt>
      <trkpt lat="42.45345" lon="24.19194">
        <ele>466.623541</ele>
        <time>2022-03-07T13:10:11.562Z</time>
      </trkpt>
      <trkpt lat="42.45353" lon="24.19189">
        <ele>467.148815</ele>
        <time>2022-03-07T13:10:16.565Z</time>
      </trkpt>
      <trkpt lat="42.45361" lon="24.19182">
        <ele>467.686306</ele>
        <time>2022-03-07T13:10:22.540Z</time>
      </trkpt>
      <trkpt lat="42.4537" lon="24.19177">
        <ele>468.273737</ele>
        <time>2022-03-07T13:10:28.565Z</time>
      </trkpt>
      <trkpt lat="42.45379" lon="24.19169">
        <ele>468.862642</ele>
        <time>2022-03-07T13:10:34.553Z</time>
      </trkpt>
      <trkpt lat="42.45387" lon="24.19163">
        <ele>469.398993</ele>
        <time>2022-03-07T13:10:40.583Z</time>
      </trkpt>
      <trkpt lat="42.45396" lon="24.19156">
        <ele>469.979904</ele>
        <time>2022-03-07T13:10:46.544Z</time>
      </trkpt>
      <trkpt lat="42.45405" lon="24.1915">
        <ele>470.562202</ele>
        <time>2022-03-07T13:10:52.569Z</time>
      </trkpt>
      <trkpt lat="42.45413" lon="24.19145">
        <ele>471.087475</ele>
        <time>2022-03-07T13:10:58.564Z</time>
      </trkpt>
      <trkpt lat="42.45422" lon="24.19138">
        <ele>471.647868</ele>
        <time>2022-03-07T13:11:04.546Z</time>
      </trkpt>
      <trkpt lat="42.45431" lon="24.19132">
        <ele>472.239202</ele>
        <time>2022-03-07T13:11:10.551Z</time>
      </trkpt>
      <trkpt lat="42.45439" lon="24.19126">
        <ele>472.78314</ele>
        <time>2022-03-07T13:11:16.558Z</time>
      </trkpt>
      <trkpt lat="42.45447" lon="24.19121">
        <ele>473.300805</ele>
        <time>2022-03-07T13:11:22.582Z</time>
      </trkpt>
      <trkpt lat="42.45455" lon="24.19115">
        <ele>473.830045</ele>
        <time>2022-03-07T13:11:28.543Z</time>
      </trkpt>
      <trkpt lat="42.45464" lon="24.19109">
        <ele>474.379863</ele>
        <time>2022-03-07T13:11:34.565Z</time>
      </trkpt>
      <trkpt lat="42.45473" lon="24.19102">
        <ele>474.870569</ele>
        <time>2022-03-07T13:11:40.560Z</time>
      </trkpt>
      <trkpt lat="42.45482" lon="24.19096">
        <ele>475.355643</ele>
        <time>2022-03-07T13:11:46.558Z</time>
      </trkpt>
      <trkpt lat="42.45492" lon="24.1909">
        <ele>475.841858</ele>
        <time>2022-03-07T13:11:53.563Z</time>
      </trkpt>
      <trkpt lat="42.45501" lon="24.19083">
        <ele>476.344931</ele>
        <time>2022-03-07T13:12:00.544Z</time>
      </trkpt>
      <trkpt lat="42.4551" lon="24.19075">
        <ele>476.830153</ele>
        <time>2022-03-07T13:12:07.552Z</time>
      </trkpt>
      <trkpt lat="42.45519" lon="24.19068">
        <ele>477.318475</ele>
        <time>2022-03-07T13:12:14.588Z</time>
      </trkpt>
      <trkpt lat="42.45528" lon="24.19061">
        <ele>477.812608</ele>
        <time>2022-03-07T13:12:21.552Z</time>
      </trkpt>
      <trkpt lat="42.45537" lon="24.19055">
        <ele>478.308807</ele>
        <time>2022-03-07T13:12:27.526Z</time>
      </trkpt>
      <trkpt lat="42.45546" lon="24.19049">
        <ele>478.775055</ele>
        <time>2022-03-07T13:12:33.590Z</time>
      </trkpt>
      <trkpt lat="42.45555" lon="24.19043">
        <ele>479.238445</ele>
        <time>2022-03-07T13:12:39.554Z</time>
      </trkpt>
      <trkpt lat="42.45563" lon="24.19037">
        <ele>479.670555</ele>
        <time>2022-03-07T13:12:45.563Z</time>
      </trkpt>
      <trkpt lat="42.45572" lon="24.19031">
        <ele>480.144099</ele>
        <time>2022-03-07T13:12:51.561Z</time>
      </trkpt>
      <trkpt lat="42.4558" lon="24.19025">
        <ele>480.586178</ele>
        <time>2022-03-07T13:12:57.559Z</time>
      </trkpt>
      <trkpt lat="42.45589" lon="24.19019">
        <ele>481.024712</ele>
        <time>2022-03-07T13:13:03.561Z</time>
      </trkpt>
      <trkpt lat="42.45598" lon="24.19013">
        <ele>481.507178</ele>
        <time>2022-03-07T13:13:09.565Z</time>
      </trkpt>
      <trkpt lat="42.45607" lon="24.19006">
        <ele>482.01115</ele>
        <time>2022-03-07T13:13:15.559Z</time>
      </trkpt>
      <trkpt lat="42.45616" lon="24.19">
        <ele>482.487841</ele>
        <time>2022-03-07T13:13:21.551Z</time>
      </trkpt>
      <trkpt lat="42.45626" lon="24.18993">
        <ele>483.063428</ele>
        <time>2022-03-07T13:13:28.598Z</time>
      </trkpt>
      <trkpt lat="42.45634" lon="24.18987">
        <ele>483.782168</ele>
        <time>2022-03-07T13:13:34.553Z</time>
      </trkpt>
      <trkpt lat="42.45643" lon="24.18981">
        <ele>484.43591</ele>
        <time>2022-03-07T13:13:40.554Z</time>
      </trkpt>
      <trkpt lat="42.45652" lon="24.18975">
        <ele>485.181021</ele>
        <time>2022-03-07T13:13:47.610Z</time>
      </trkpt>
      <trkpt lat="42.4566" lon="24.18969">
        <ele>485.842357</ele>
        <time>2022-03-07T13:13:53.553Z</time>
      </trkpt>
      <trkpt lat="42.45669" lon="24.18961">
        <ele>486.563761</ele>
        <time>2022-03-07T13:14:00.573Z</time>
      </trkpt>
      <trkpt lat="42.45678" lon="24.18955">
        <ele>487.277583</ele>
        <time>2022-03-07T13:14:06.554Z</time>
      </trkpt>
      <trkpt lat="42.45687" lon="24.18949">
        <ele>487.998946</ele>
        <time>2022-03-07T13:14:12.599Z</time>
      </trkpt>
      <trkpt lat="42.45695" lon="24.18944">
        <ele>488.666324</ele>
        <time>2022-03-07T13:14:18.598Z</time>
      </trkpt>
      <trkpt lat="42.45704" lon="24.18937">
        <ele>489.382941</ele>
        <time>2022-03-07T13:14:25.576Z</time>
      </trkpt>
      <trkpt lat="42.45712" lon="24.18931">
        <ele>490.061818</ele>
        <time>2022-03-07T13:14:31.552Z</time>
      </trkpt>
      <trkpt lat="42.4572" lon="24.18924">
        <ele>490.716129</ele>
        <time>2022-03-07T13:14:37.567Z</time>
      </trkpt>
      <trkpt lat="42.45728" lon="24.18919">
        <ele>491.362569</ele>
        <time>2022-03-07T13:14:43.560Z</time>
      </trkpt>
      <trkpt lat="42.45738" lon="24.18914">
        <ele>492.058699</ele>
        <time>2022-03-07T13:14:50.558Z</time>
      </trkpt>
      <trkpt lat="42.45746" lon="24.18907">
        <ele>492.777331</ele>
        <time>2022-03-07T13:14:56.553Z</time>
      </trkpt>
      <trkpt lat="42.45755" lon="24.189">
        <ele>493.479934</ele>
        <time>2022-03-07T13:15:02.563Z</time>
      </trkpt>
      <trkpt lat="42.45763" lon="24.18894">
        <ele>494.141267</ele>
        <time>2022-03-07T13:15:08.557Z</time>
      </trkpt>
      <trkpt lat="42.45772" lon="24.18888">
        <ele>494.841075</ele>
        <time>2022-03-07T13:15:15.562Z</time>
      </trkpt>
      <trkpt lat="42.4578" lon="24.18883">
        <ele>495.491134</ele>
        <time>2022-03-07T13:15:21.558Z</time>
      </trkpt>
      <trkpt lat="42.45788" lon="24.18877">
        <ele>495.87424</ele>
        <time>2022-03-07T13:15:27.549Z</time>
      </trkpt>
      <trkpt lat="42.45796" lon="24.18871">
        <ele>496.202883</ele>
        <time>2022-03-07T13:15:33.556Z</time>
      </trkpt>
      <trkpt lat="42.45805" lon="24.18864">
        <ele>496.539203</ele>
        <time>2022-03-07T13:15:40.549Z</time>
      </trkpt>
      <trkpt lat="42.45813" lon="24.18857">
        <ele>496.882471</ele>
        <time>2022-03-07T13:15:46.554Z</time>
      </trkpt>
      <trkpt lat="42.45821" lon="24.18851">
        <ele>497.196503</ele>
        <time>2022-03-07T13:15:52.547Z</time>
      </trkpt>
      <trkpt lat="42.4583" lon="24.18845">
        <ele>497.533691</ele>
        <time>2022-03-07T13:15:59.558Z</time>
      </trkpt>
      <trkpt lat="42.45837" lon="24.18837">
        <ele>497.853867</ele>
        <time>2022-03-07T13:16:05.542Z</time>
      </trkpt>
      <trkpt lat="42.45845" lon="24.18828">
        <ele>498.205526</ele>
        <time>2022-03-07T13:16:11.559Z</time>
      </trkpt>
      <trkpt lat="42.45854" lon="24.1882">
        <ele>498.574601</ele>
        <time>2022-03-07T13:16:17.561Z</time>
      </trkpt>
      <trkpt lat="42.45862" lon="24.18811">
        <ele>498.946048</ele>
        <time>2022-03-07T13:16:23.557Z</time>
      </trkpt>
      <trkpt lat="42.45869" lon="24.188">
        <ele>499.308564</ele>
        <time>2022-03-07T13:16:29.545Z</time>
      </trkpt>
      <trkpt lat="42.45876" lon="24.18789">
        <ele>499.682491</ele>
        <time>2022-03-07T13:16:35.554Z</time>
      </trkpt>
      <trkpt lat="42.45882" lon="24.18778">
        <ele>500.043255</ele>
        <time>2022-03-07T13:16:41.577Z</time>
      </trkpt>
      <trkpt lat="42.45889" lon="24.18768">
        <ele>500.381633</ele>
        <time>2022-03-07T13:16:47.546Z</time>
      </trkpt>
      <trkpt lat="42.45905" lon="24.18747">
        <ele>501.162276</ele>
        <time>2022-03-07T13:18:19.560Z</time>
      </trkpt>
      <trkpt lat="42.45912" lon="24.18735">
        <ele>501.553537</ele>
        <time>2022-03-07T13:18:24.561Z</time>
      </trkpt>
      <trkpt lat="42.45918" lon="24.18723">
        <ele>501.898846</ele>
        <time>2022-03-07T13:18:28.542Z</time>
      </trkpt>
      <trkpt lat="42.45925" lon="24.18712">
        <ele>502.096635</ele>
        <time>2022-03-07T13:18:32.559Z</time>
      </trkpt>
      <trkpt lat="42.45931" lon="24.18701">
        <ele>502.29179</ele>
        <time>2022-03-07T13:18:36.561Z</time>
      </trkpt>
      <trkpt lat="42.45937" lon="24.1869">
        <ele>502.499952</ele>
        <time>2022-03-07T13:18:40.562Z</time>
      </trkpt>
      <trkpt lat="42.45944" lon="24.18679">
        <ele>502.698755</ele>
        <time>2022-03-07T13:18:44.555Z</time>
      </trkpt>
      <trkpt lat="42.4595" lon="24.18668">
        <ele>502.912889</ele>
        <time>2022-03-07T13:18:48.565Z</time>
      </trkpt>
      <trkpt lat="42.45957" lon="24.18657">
        <ele>503.122411</ele>
        <time>2022-03-07T13:18:52.558Z</time>
      </trkpt>
      <trkpt lat="42.45963" lon="24.18647">
        <ele>503.309887</ele>
        <time>2022-03-07T13:18:56.559Z</time>
      </trkpt>
      <trkpt lat="42.45971" lon="24.18636">
        <ele>503.531488</ele>
        <time>2022-03-07T13:19:00.561Z</time>
      </trkpt>
      <trkpt lat="42.45977" lon="24.18626">
        <ele>503.712711</ele>
        <time>2022-03-07T13:19:03.556Z</time>
      </trkpt>
      <trkpt lat="42.45984" lon="24.18613">
        <ele>503.949192</ele>
        <time>2022-03-07T13:19:07.580Z</time>
      </trkpt>
      <trkpt lat="42.45992" lon="24.18601">
        <ele>504.178858</ele>
        <time>2022-03-07T13:19:11.631Z</time>
      </trkpt>
      <trkpt lat="42.45998" lon="24.18589">
        <ele>504.398573</ele>
        <time>2022-03-07T13:19:15.558Z</time>
      </trkpt>
      <trkpt lat="42.46006" lon="24.18577">
        <ele>504.627726</ele>
        <time>2022-03-07T13:19:19.555Z</time>
      </trkpt>
      <trkpt lat="42.46013" lon="24.18565">
        <ele>504.84988</ele>
        <time>2022-03-07T13:19:23.552Z</time>
      </trkpt>
      <trkpt lat="42.4602" lon="24.18553">
        <ele>505.073261</ele>
        <time>2022-03-07T13:19:27.541Z</time>
      </trkpt>
      <trkpt lat="42.46027" lon="24.18542">
        <ele>505.285724</ele>
        <time>2022-03-07T13:19:31.563Z</time>
      </trkpt>
      <trkpt lat="42.46034" lon="24.18531">
        <ele>505.568646</ele>
        <time>2022-03-07T13:19:35.543Z</time>
      </trkpt>
      <trkpt lat="42.46041" lon="24.18519">
        <ele>505.93097</ele>
        <time>2022-03-07T13:19:39.557Z</time>
      </trkpt>
      <trkpt lat="42.46047" lon="24.18509">
        <ele>506.262419</ele>
        <time>2022-03-07T13:19:43.552Z</time>
      </trkpt>
      <trkpt lat="42.46054" lon="24.18498">
        <ele>506.595583</ele>
        <time>2022-03-07T13:19:47.552Z</time>
      </trkpt>
      <trkpt lat="42.4606" lon="24.18487">
        <ele>506.938896</ele>
        <time>2022-03-07T13:19:51.543Z</time>
      </trkpt>
      <trkpt lat="42.46067" lon="24.18476">
        <ele>507.276167</ele>
        <time>2022-03-07T13:19:55.554Z</time>
      </trkpt>
      <trkpt lat="42.46073" lon="24.18464">
        <ele>507.646142</ele>
        <time>2022-03-07T13:20:00.545Z</time>
      </trkpt>
      <trkpt lat="42.46079" lon="24.18454">
        <ele>507.954101</ele>
        <time>2022-03-07T13:20:04.553Z</time>
      </trkpt>
      <trkpt lat="42.46085" lon="24.18444">
        <ele>508.271671</ele>
        <time>2022-03-07T13:20:08.544Z</time>
      </trkpt>
      <trkpt lat="42.46092" lon="24.18433">
        <ele>508.597533</ele>
        <time>2022-03-07T13:20:12.550Z</time>
      </trkpt>
      <trkpt lat="42.46099" lon="24.18422">
        <ele>508.964122</ele>
        <time>2022-03-07T13:20:17.594Z</time>
      </trkpt>
      <trkpt lat="42.46105" lon="24.18412">
        <ele>509.279018</ele>
        <time>2022-03-07T13:20:21.567Z</time>
      </trkpt>
      <trkpt lat="42.46111" lon="24.18402">
        <ele>509.587755</ele>
        <time>2022-03-07T13:20:25.573Z</time>
      </trkpt>
      <trkpt lat="42.46118" lon="24.18393">
        <ele>509.894675</ele>
        <time>2022-03-07T13:20:29.570Z</time>
      </trkpt>
      <trkpt lat="42.46125" lon="24.18382">
        <ele>510.264685</ele>
        <time>2022-03-07T13:20:34.555Z</time>
      </trkpt>
      <trkpt lat="42.46131" lon="24.18373">
        <ele>510.562651</ele>
        <time>2022-03-07T13:20:38.560Z</time>
      </trkpt>
      <trkpt lat="42.46138" lon="24.18361">
        <ele>510.913883</ele>
        <time>2022-03-07T13:20:43.560Z</time>
      </trkpt>
      <trkpt lat="42.46146" lon="24.1835">
        <ele>511.27916</ele>
        <time>2022-03-07T13:20:48.561Z</time>
      </trkpt>
      <trkpt lat="42.46151" lon="24.1834">
        <ele>511.677982</ele>
        <time>2022-03-07T13:20:52.561Z</time>
      </trkpt>
      <trkpt lat="42.46156" lon="24.1833">
        <ele>512.077519</ele>
        <time>2022-03-07T13:20:56.562Z</time>
      </trkpt>
      <trkpt lat="42.46162" lon="24.18318">
        <ele>512.540051</ele>
        <time>2022-03-07T13:21:01.612Z</time>
      </trkpt>
      <trkpt lat="42.46169" lon="24.18307">
        <ele>513.005405</ele>
        <time>2022-03-07T13:21:06.561Z</time>
      </trkpt>
      <trkpt lat="42.46175" lon="24.18298">
        <ele>513.411083</ele>
        <time>2022-03-07T13:21:10.553Z</time>
      </trkpt>
      <trkpt lat="42.46181" lon="24.18289">
        <ele>513.80711</ele>
        <time>2022-03-07T13:21:14.558Z</time>
      </trkpt>
      <trkpt lat="42.46187" lon="24.18278">
        <ele>514.258387</ele>
        <time>2022-03-07T13:21:19.548Z</time>
      </trkpt>
      <trkpt lat="42.46194" lon="24.18267">
        <ele>514.710958</ele>
        <time>2022-03-07T13:21:24.556Z</time>
      </trkpt>
      <trkpt lat="42.462" lon="24.18258">
        <ele>515.143534</ele>
        <time>2022-03-07T13:21:29.601Z</time>
      </trkpt>
      <trkpt lat="42.46206" lon="24.18248">
        <ele>515.548748</ele>
        <time>2022-03-07T13:21:34.555Z</time>
      </trkpt>
      <trkpt lat="42.46212" lon="24.18238">
        <ele>515.950117</ele>
        <time>2022-03-07T13:21:39.566Z</time>
      </trkpt>
      <trkpt lat="42.46217" lon="24.18228">
        <ele>516.365775</ele>
        <time>2022-03-07T13:21:44.580Z</time>
      </trkpt>
      <trkpt lat="42.46223" lon="24.18216">
        <ele>516.832778</ele>
        <time>2022-03-07T13:21:50.543Z</time>
      </trkpt>
      <trkpt lat="42.46229" lon="24.18204">
        <ele>517.287432</ele>
        <time>2022-03-07T13:21:56.558Z</time>
      </trkpt>
      <trkpt lat="42.46234" lon="24.18194">
        <ele>517.713004</ele>
        <time>2022-03-07T13:22:02.534Z</time>
      </trkpt>
      <trkpt lat="42.4624" lon="24.18183">
        <ele>518.13828</ele>
        <time>2022-03-07T13:22:08.557Z</time>
      </trkpt>
      <trkpt lat="42.46246" lon="24.18173">
        <ele>518.547556</ele>
        <time>2022-03-07T13:22:13.549Z</time>
      </trkpt>
      <trkpt lat="42.46252" lon="24.18163">
        <ele>518.977949</ele>
        <time>2022-03-07T13:22:19.548Z</time>
      </trkpt>
      <trkpt lat="42.46258" lon="24.18153">
        <ele>519.339686</ele>
        <time>2022-03-07T13:22:25.561Z</time>
      </trkpt>
      <trkpt lat="42.46265" lon="24.18144">
        <ele>519.571576</ele>
        <time>2022-03-07T13:22:30.543Z</time>
      </trkpt>
      <trkpt lat="42.46271" lon="24.18135">
        <ele>519.807269</ele>
        <time>2022-03-07T13:22:35.559Z</time>
      </trkpt>
      <trkpt lat="42.46277" lon="24.18124">
        <ele>520.062982</ele>
        <time>2022-03-07T13:22:40.564Z</time>
      </trkpt>
      <trkpt lat="42.46284" lon="24.18113">
        <ele>520.317511</ele>
        <time>2022-03-07T13:22:45.544Z</time>
      </trkpt>
      <trkpt lat="42.4629" lon="24.18103">
        <ele>520.559055</ele>
        <time>2022-03-07T13:22:50.596Z</time>
      </trkpt>
      <trkpt lat="42.46297" lon="24.18094">
        <ele>520.800603</ele>
        <time>2022-03-07T13:22:55.559Z</time>
      </trkpt>
      <trkpt lat="42.46303" lon="24.18084">
        <ele>521.053887</ele>
        <time>2022-03-07T13:23:01.556Z</time>
      </trkpt>
      <trkpt lat="42.46309" lon="24.18073">
        <ele>521.311087</ele>
        <time>2022-03-07T13:23:07.602Z</time>
      </trkpt>
      <trkpt lat="42.46316" lon="24.18062">
        <ele>521.568649</ele>
        <time>2022-03-07T13:23:12.565Z</time>
      </trkpt>
      <trkpt lat="42.46322" lon="24.18052">
        <ele>521.809501</ele>
        <time>2022-03-07T13:23:17.563Z</time>
      </trkpt>
      <trkpt lat="42.46328" lon="24.18041">
        <ele>522.057966</ele>
        <time>2022-03-07T13:23:23.561Z</time>
      </trkpt>
      <trkpt lat="42.46335" lon="24.18031">
        <ele>522.311747</ele>
        <time>2022-03-07T13:23:29.553Z</time>
      </trkpt>
      <trkpt lat="42.46341" lon="24.18021">
        <ele>522.563615</ele>
        <time>2022-03-07T13:23:35.553Z</time>
      </trkpt>
      <trkpt lat="42.46348" lon="24.18009">
        <ele>522.8373</ele>
        <time>2022-03-07T13:23:41.565Z</time>
      </trkpt>
      <trkpt lat="42.46354" lon="24.18">
        <ele>523.069685</ele>
        <time>2022-03-07T13:23:46.543Z</time>
      </trkpt>
      <trkpt lat="42.46361" lon="24.17989">
        <ele>523.339406</ele>
        <time>2022-03-07T13:23:52.556Z</time>
      </trkpt>
      <trkpt lat="42.46367" lon="24.17978">
        <ele>523.584991</ele>
        <time>2022-03-07T13:23:57.542Z</time>
      </trkpt>
      <trkpt lat="42.46373" lon="24.17969">
        <ele>523.806451</ele>
        <time>2022-03-07T13:24:02.592Z</time>
      </trkpt>
      <trkpt lat="42.46379" lon="24.17958">
        <ele>524.037092</ele>
        <time>2022-03-07T13:24:07.585Z</time>
      </trkpt>
      <trkpt lat="42.46385" lon="24.17948">
        <ele>524.266773</ele>
        <time>2022-03-07T13:24:12.599Z</time>
      </trkpt>
      <trkpt lat="42.46391" lon="24.17938">
        <ele>524.48669</ele>
        <time>2022-03-07T13:24:17.555Z</time>
      </trkpt>
      <trkpt lat="42.46397" lon="24.17928">
        <ele>524.692826</ele>
        <time>2022-03-07T13:24:22.562Z</time>
      </trkpt>
      <trkpt lat="42.46403" lon="24.17916">
        <ele>524.941226</ele>
        <time>2022-03-07T13:24:28.541Z</time>
      </trkpt>
      <trkpt lat="42.46409" lon="24.17906">
        <ele>525.170509</ele>
        <time>2022-03-07T13:24:33.541Z</time>
      </trkpt>
      <trkpt lat="42.46415" lon="24.17895">
        <ele>525.397164</ele>
        <time>2022-03-07T13:24:38.552Z</time>
      </trkpt>
      <trkpt lat="42.46422" lon="24.17884">
        <ele>525.641229</ele>
        <time>2022-03-07T13:24:43.559Z</time>
      </trkpt>
      <trkpt lat="42.46428" lon="24.17875">
        <ele>525.853543</ele>
        <time>2022-03-07T13:24:48.551Z</time>
      </trkpt>
      <trkpt lat="42.46434" lon="24.17865">
        <ele>526.069303</ele>
        <time>2022-03-07T13:24:52.562Z</time>
      </trkpt>
      <trkpt lat="42.4644" lon="24.17853">
        <ele>526.317756</ele>
        <time>2022-03-07T13:24:57.553Z</time>
      </trkpt>
      <trkpt lat="42.46447" lon="24.17842">
        <ele>526.560049</ele>
        <time>2022-03-07T13:25:02.591Z</time>
      </trkpt>
      <trkpt lat="42.46453" lon="24.17832">
        <ele>526.772136</ele>
        <time>2022-03-07T13:25:06.582Z</time>
      </trkpt>
      <trkpt lat="42.4646" lon="24.17822">
        <ele>527.003108</ele>
        <time>2022-03-07T13:25:10.533Z</time>
      </trkpt>
      <trkpt lat="42.46467" lon="24.17811">
        <ele>527.258903</ele>
        <time>2022-03-07T13:25:15.533Z</time>
      </trkpt>
      <trkpt lat="42.46473" lon="24.178">
        <ele>527.495013</ele>
        <time>2022-03-07T13:25:19.561Z</time>
      </trkpt>
      <trkpt lat="42.46479" lon="24.1779">
        <ele>527.719769</ele>
        <time>2022-03-07T13:25:23.571Z</time>
      </trkpt>
      <trkpt lat="42.46487" lon="24.17779">
        <ele>527.979389</ele>
        <time>2022-03-07T13:25:27.563Z</time>
      </trkpt>
      <trkpt lat="42.46493" lon="24.17769">
        <ele>528.228189</ele>
        <time>2022-03-07T13:25:31.565Z</time>
      </trkpt>
      <trkpt lat="42.46499" lon="24.17759">
        <ele>528.477477</ele>
        <time>2022-03-07T13:25:35.551Z</time>
      </trkpt>
      <trkpt lat="42.46505" lon="24.17749">
        <ele>528.721365</ele>
        <time>2022-03-07T13:25:39.552Z</time>
      </trkpt>
      <trkpt lat="42.46511" lon="24.17738">
        <ele>528.971205</ele>
        <time>2022-03-07T13:25:43.563Z</time>
      </trkpt>
      <trkpt lat="42.46517" lon="24.17727">
        <ele>529.238159</ele>
        <time>2022-03-07T13:25:47.584Z</time>
      </trkpt>
      <trkpt lat="42.46523" lon="24.17717">
        <ele>529.488252</ele>
        <time>2022-03-07T13:25:51.558Z</time>
      </trkpt>
      <trkpt lat="42.46529" lon="24.17708">
        <ele>529.719865</ele>
        <time>2022-03-07T13:25:55.562Z</time>
      </trkpt>
      <trkpt lat="42.46535" lon="24.17698">
        <ele>529.955914</ele>
        <time>2022-03-07T13:25:59.557Z</time>
      </trkpt>
      <trkpt lat="42.4654" lon="24.17688">
        <ele>530.189321</ele>
        <time>2022-03-07T13:26:03.599Z</time>
      </trkpt>
      <trkpt lat="42.46548" lon="24.17678">
        <ele>530.474984</ele>
        <time>2022-03-07T13:26:08.560Z</time>
      </trkpt>
      <trkpt lat="42.46554" lon="24.17668">
        <ele>530.714175</ele>
        <time>2022-03-07T13:26:12.566Z</time>
      </trkpt>
      <trkpt lat="42.46561" lon="24.17657">
        <ele>530.992559</ele>
        <time>2022-03-07T13:26:16.556Z</time>
      </trkpt>
      <trkpt lat="42.46566" lon="24.17646">
        <ele>531.239617</ele>
        <time>2022-03-07T13:26:20.550Z</time>
      </trkpt>
      <trkpt lat="42.46572" lon="24.17636">
        <ele>531.488232</ele>
        <time>2022-03-07T13:26:24.559Z</time>
      </trkpt>
      <trkpt lat="42.46578" lon="24.17626">
        <ele>531.730437</ele>
        <time>2022-03-07T13:26:28.554Z</time>
      </trkpt>
      <trkpt lat="42.46584" lon="24.17615">
        <ele>531.986492</ele>
        <time>2022-03-07T13:26:32.588Z</time>
      </trkpt>
      <trkpt lat="42.4659" lon="24.17604">
        <ele>532.236327</ele>
        <time>2022-03-07T13:26:36.563Z</time>
      </trkpt>
      <trkpt lat="42.46595" lon="24.17594">
        <ele>532.480108</ele>
        <time>2022-03-07T13:26:40.558Z</time>
      </trkpt>
      <trkpt lat="42.46602" lon="24.17584">
        <ele>532.686087</ele>
        <time>2022-03-07T13:26:44.551Z</time>
      </trkpt>
      <trkpt lat="42.46609" lon="24.17574">
        <ele>532.895447</ele>
        <time>2022-03-07T13:26:48.562Z</time>
      </trkpt>
      <trkpt lat="42.46616" lon="24.17563">
        <ele>533.109796</ele>
        <time>2022-03-07T13:26:52.554Z</time>
      </trkpt>
      <trkpt lat="42.46622" lon="24.17552">
        <ele>533.300145</ele>
        <time>2022-03-07T13:26:56.556Z</time>
      </trkpt>
      <trkpt lat="42.46628" lon="24.17542">
        <ele>533.489004</ele>
        <time>2022-03-07T13:27:00.542Z</time>
      </trkpt>
      <trkpt lat="42.46634" lon="24.17531">
        <ele>533.686202</ele>
        <time>2022-03-07T13:27:04.573Z</time>
      </trkpt>
      <trkpt lat="42.46641" lon="24.17521">
        <ele>533.87544</ele>
        <time>2022-03-07T13:27:08.562Z</time>
      </trkpt>
      <trkpt lat="42.46647" lon="24.17511">
        <ele>534.072215</ele>
        <time>2022-03-07T13:27:12.556Z</time>
      </trkpt>
      <trkpt lat="42.46653" lon="24.17502">
        <ele>534.252496</ele>
        <time>2022-03-07T13:27:16.573Z</time>
      </trkpt>
      <trkpt lat="42.4666" lon="24.1749">
        <ele>534.468486</ele>
        <time>2022-03-07T13:27:21.552Z</time>
      </trkpt>
      <trkpt lat="42.46667" lon="24.17479">
        <ele>534.67607</ele>
        <time>2022-03-07T13:27:26.581Z</time>
      </trkpt>
      <trkpt lat="42.46674" lon="24.17468">
        <ele>534.892059</ele>
        <time>2022-03-07T13:27:31.560Z</time>
      </trkpt>
      <trkpt lat="42.4668" lon="24.17458">
        <ele>535.075251</ele>
        <time>2022-03-07T13:27:35.578Z</time>
      </trkpt>
      <trkpt lat="42.46687" lon="24.17448">
        <ele>535.269237</ele>
        <time>2022-03-07T13:27:40.575Z</time>
      </trkpt>
      <trkpt lat="42.46694" lon="24.17438">
        <ele>535.475827</ele>
        <time>2022-03-07T13:27:46.562Z</time>
      </trkpt>
      <trkpt lat="42.46702" lon="24.1743">
        <ele>535.668397</ele>
        <time>2022-03-07T13:27:51.574Z</time>
      </trkpt>
      <trkpt lat="42.46709" lon="24.17422">
        <ele>535.848091</ele>
        <time>2022-03-07T13:27:56.579Z</time>
      </trkpt>
      <trkpt lat="42.46717" lon="24.17413">
        <ele>536.049502</ele>
        <time>2022-03-07T13:28:02.586Z</time>
      </trkpt>
      <trkpt lat="42.46724" lon="24.17406">
        <ele>536.373998</ele>
        <time>2022-03-07T13:28:07.568Z</time>
      </trkpt>
      <trkpt lat="42.46733" lon="24.17397">
        <ele>536.7631</ele>
        <time>2022-03-07T13:28:12.554Z</time>
      </trkpt>
      <trkpt lat="42.46741" lon="24.17391">
        <ele>537.12004</ele>
        <time>2022-03-07T13:28:17.566Z</time>
      </trkpt>
      <trkpt lat="42.4675" lon="24.17384">
        <ele>537.512484</ele>
        <time>2022-03-07T13:28:23.554Z</time>
      </trkpt>
      <trkpt lat="42.46759" lon="24.17379">
        <ele>537.876177</ele>
        <time>2022-03-07T13:28:28.597Z</time>
      </trkpt>
      <trkpt lat="42.46769" lon="24.17373">
        <ele>538.266741</ele>
        <time>2022-03-07T13:28:33.559Z</time>
      </trkpt>
      <trkpt lat="42.46778" lon="24.17367">
        <ele>538.651496</ele>
        <time>2022-03-07T13:28:38.574Z</time>
      </trkpt>
      <trkpt lat="42.46787" lon="24.17362">
        <ele>539.018076</ele>
        <time>2022-03-07T13:28:43.597Z</time>
      </trkpt>
      <trkpt lat="42.46795" lon="24.17357">
        <ele>539.356367</ele>
        <time>2022-03-07T13:28:48.548Z</time>
      </trkpt>
      <trkpt lat="42.46804" lon="24.17352">
        <ele>539.70599</ele>
        <time>2022-03-07T13:28:53.554Z</time>
      </trkpt>
      <trkpt lat="42.46813" lon="24.17347">
        <ele>540.069354</ele>
        <time>2022-03-07T13:28:58.562Z</time>
      </trkpt>
      <trkpt lat="42.46823" lon="24.17343">
        <ele>540.439998</ele>
        <time>2022-03-07T13:29:03.566Z</time>
      </trkpt>
      <trkpt lat="42.46831" lon="24.17338">
        <ele>540.773467</ele>
        <time>2022-03-07T13:29:08.552Z</time>
      </trkpt>
      <trkpt lat="42.46841" lon="24.17334">
        <ele>541.161572</ele>
        <time>2022-03-07T13:29:13.574Z</time>
      </trkpt>
      <trkpt lat="42.4685" lon="24.17329">
        <ele>541.523843</ele>
        <time>2022-03-07T13:29:18.563Z</time>
      </trkpt>
      <trkpt lat="42.46859" lon="24.17325">
        <ele>541.894834</ele>
        <time>2022-03-07T13:29:23.553Z</time>
      </trkpt>
      <trkpt lat="42.46869" lon="24.17321">
        <ele>542.268752</ele>
        <time>2022-03-07T13:29:28.561Z</time>
      </trkpt>
      <trkpt lat="42.46879" lon="24.17317">
        <ele>542.654122</ele>
        <time>2022-03-07T13:29:33.565Z</time>
      </trkpt>
      <trkpt lat="42.46888" lon="24.17311">
        <ele>543.230409</ele>
        <time>2022-03-07T13:29:38.603Z</time>
      </trkpt>
      <trkpt lat="42.46897" lon="24.17307">
        <ele>543.833966</ele>
        <time>2022-03-07T13:29:43.546Z</time>
      </trkpt>
      <trkpt lat="42.46907" lon="24.17302">
        <ele>544.534654</ele>
        <time>2022-03-07T13:29:48.552Z</time>
      </trkpt>
      <trkpt lat="42.46916" lon="24.17297">
        <ele>545.160055</ele>
        <time>2022-03-07T13:29:53.568Z</time>
      </trkpt>
      <trkpt lat="42.46926" lon="24.17293">
        <ele>545.825386</ele>
        <time>2022-03-07T13:29:58.562Z</time>
      </trkpt>
      <trkpt lat="42.46935" lon="24.17288">
        <ele>546.429682</ele>
        <time>2022-03-07T13:30:03.560Z</time>
      </trkpt>
      <trkpt lat="42.46944" lon="24.17284">
        <ele>547.084323</ele>
        <time>2022-03-07T13:30:09.559Z</time>
      </trkpt>
      <trkpt lat="42.46953" lon="24.1728">
        <ele>547.67754</ele>
        <time>2022-03-07T13:30:14.593Z</time>
      </trkpt>
      <trkpt lat="42.46962" lon="24.17276">
        <ele>548.2937</ele>
        <time>2022-03-07T13:30:19.557Z</time>
      </trkpt>
      <trkpt lat="42.46971" lon="24.17272">
        <ele>548.896032</ele>
        <time>2022-03-07T13:30:24.593Z</time>
      </trkpt>
      <trkpt lat="42.4698" lon="24.17269">
        <ele>549.509004</ele>
        <time>2022-03-07T13:30:29.587Z</time>
      </trkpt>
      <trkpt lat="42.46989" lon="24.17266">
        <ele>550.158015</ele>
        <time>2022-03-07T13:30:34.563Z</time>
      </trkpt>
      <trkpt lat="42.46999" lon="24.17262">
        <ele>550.829468</ele>
        <time>2022-03-07T13:30:40.576Z</time>
      </trkpt>
      <trkpt lat="42.47008" lon="24.17261">
        <ele>551.415903</ele>
        <time>2022-03-07T13:30:45.578Z</time>
      </trkpt>
      <trkpt lat="42.47019" lon="24.17258">
        <ele>552.118632</ele>
        <time>2022-03-07T13:30:50.562Z</time>
      </trkpt>
      <trkpt lat="42.47028" lon="24.17257">
        <ele>552.703952</ele>
        <time>2022-03-07T13:30:54.587Z</time>
      </trkpt>
      <trkpt lat="42.47039" lon="24.17259">
        <ele>553.397838</ele>
        <time>2022-03-07T13:30:59.557Z</time>
      </trkpt>
      <trkpt lat="42.47048" lon="24.17261">
        <ele>553.986301</ele>
        <time>2022-03-07T13:31:04.555Z</time>
      </trkpt>
      <trkpt lat="42.47057" lon="24.17264">
        <ele>554.497358</ele>
        <time>2022-03-07T13:31:09.561Z</time>
      </trkpt>
      <trkpt lat="42.47066" lon="24.17267">
        <ele>554.70716</ele>
        <time>2022-03-07T13:31:14.557Z</time>
      </trkpt>
      <trkpt lat="42.47075" lon="24.17271">
        <ele>554.922056</ele>
        <time>2022-03-07T13:31:19.578Z</time>
      </trkpt>
      <trkpt lat="42.47084" lon="24.17275">
        <ele>555.136271</ele>
        <time>2022-03-07T13:31:24.559Z</time>
      </trkpt>
      <trkpt lat="42.47093" lon="24.17281">
        <ele>555.354962</ele>
        <time>2022-03-07T13:31:29.576Z</time>
      </trkpt>
      <trkpt lat="42.47101" lon="24.17288">
        <ele>555.567488</ele>
        <time>2022-03-07T13:31:34.564Z</time>
      </trkpt>
      <trkpt lat="42.4711" lon="24.17294">
        <ele>555.784225</ele>
        <time>2022-03-07T13:31:40.561Z</time>
      </trkpt>
      <trkpt lat="42.47118" lon="24.17303">
        <ele>556.019877</ele>
        <time>2022-03-07T13:31:47.552Z</time>
      </trkpt>
      <trkpt lat="42.47123" lon="24.17314">
        <ele>556.230037</ele>
        <time>2022-03-07T13:31:52.566Z</time>
      </trkpt>
      <trkpt lat="42.47128" lon="24.17325">
        <ele>556.436251</ele>
        <time>2022-03-07T13:31:58.562Z</time>
      </trkpt>
      <trkpt lat="42.47133" lon="24.17337">
        <ele>556.655573</ele>
        <time>2022-03-07T13:32:05.547Z</time>
      </trkpt>
      <trkpt lat="42.47136" lon="24.1735">
        <ele>556.881901</ele>
        <time>2022-03-07T13:32:13.558Z</time>
      </trkpt>
      <trkpt lat="42.4714" lon="24.17361">
        <ele>557.085937</ele>
        <time>2022-03-07T13:32:19.562Z</time>
      </trkpt>
      <trkpt lat="42.47145" lon="24.17373">
        <ele>557.309609</ele>
        <time>2022-03-07T13:32:26.557Z</time>
      </trkpt>
      <trkpt lat="42.47148" lon="24.17385">
        <ele>557.519487</ele>
        <time>2022-03-07T13:32:32.564Z</time>
      </trkpt>
      <trkpt lat="42.4715" lon="24.17399">
        <ele>557.750298</ele>
        <time>2022-03-07T13:32:39.567Z</time>
      </trkpt>
      <trkpt lat="42.47153" lon="24.17412">
        <ele>557.976855</ele>
        <time>2022-03-07T13:32:46.553Z</time>
      </trkpt>
      <trkpt lat="42.47155" lon="24.17426">
        <ele>558.206862</ele>
        <time>2022-03-07T13:32:53.550Z</time>
      </trkpt>
      <trkpt lat="42.47158" lon="24.17438">
        <ele>558.418947</ele>
        <time>2022-03-07T13:32:59.556Z</time>
      </trkpt>
      <trkpt lat="42.4716" lon="24.17451">
        <ele>558.868137</ele>
        <time>2022-03-07T13:33:06.563Z</time>
      </trkpt>
      <trkpt lat="42.4716" lon="24.17465">
        <ele>559.357416</ele>
        <time>2022-03-07T13:33:13.559Z</time>
      </trkpt>
      <trkpt lat="42.47161" lon="24.17479">
        <ele>559.82718</ele>
        <time>2022-03-07T13:33:21.564Z</time>
      </trkpt>
      <trkpt lat="42.47164" lon="24.17492">
        <ele>560.324077</ele>
        <time>2022-03-07T13:33:27.573Z</time>
      </trkpt>
      <trkpt lat="42.47166" lon="24.17504">
        <ele>560.771572</ele>
        <time>2022-03-07T13:33:33.552Z</time>
      </trkpt>
      <trkpt lat="42.47169" lon="24.17518">
        <ele>561.253413</ele>
        <time>2022-03-07T13:33:41.561Z</time>
      </trkpt>
      <trkpt lat="42.47173" lon="24.17529">
        <ele>561.702676</ele>
        <time>2022-03-07T13:33:48.605Z</time>
      </trkpt>
      <trkpt lat="42.47175" lon="24.17542">
        <ele>562.168408</ele>
        <time>2022-03-07T13:33:55.555Z</time>
      </trkpt>
      <trkpt lat="42.47177" lon="24.17554">
        <ele>562.606158</ele>
        <time>2022-03-07T13:34:01.560Z</time>
      </trkpt>
      <trkpt lat="42.4718" lon="24.17566">
        <ele>563.05182</ele>
        <time>2022-03-07T13:34:07.560Z</time>
      </trkpt>
      <trkpt lat="42.47181" lon="24.17579">
        <ele>563.512636</ele>
        <time>2022-03-07T13:34:13.573Z</time>
      </trkpt>
      <trkpt lat="42.47184" lon="24.17592">
        <ele>563.98956</ele>
        <time>2022-03-07T13:34:20.558Z</time>
      </trkpt>
      <trkpt lat="42.47188" lon="24.17603">
        <ele>564.429693</ele>
        <time>2022-03-07T13:34:25.554Z</time>
      </trkpt>
      <trkpt lat="42.47192" lon="24.17616">
        <ele>564.912177</ele>
        <time>2022-03-07T13:34:32.597Z</time>
      </trkpt>
      <trkpt lat="42.47196" lon="24.17628">
        <ele>565.37474</ele>
        <time>2022-03-07T13:34:38.541Z</time>
      </trkpt>
      <trkpt lat="42.47201" lon="24.1764">
        <ele>565.851034</ele>
        <time>2022-03-07T13:34:45.577Z</time>
      </trkpt>
      <trkpt lat="42.47207" lon="24.17651">
        <ele>566.3379</ele>
        <time>2022-03-07T13:34:52.564Z</time>
      </trkpt>
      <trkpt lat="42.47215" lon="24.1766">
        <ele>566.833618</ele>
        <time>2022-03-07T13:34:59.566Z</time>
      </trkpt>
      <trkpt lat="42.47224" lon="24.17667">
        <ele>567.43651</ele>
        <time>2022-03-07T13:35:05.585Z</time>
      </trkpt>
      <trkpt lat="42.47232" lon="24.17674">
        <ele>568.143988</ele>
        <time>2022-03-07T13:35:12.569Z</time>
      </trkpt>
      <trkpt lat="42.47239" lon="24.17682">
        <ele>568.778641</ele>
        <time>2022-03-07T13:35:19.567Z</time>
      </trkpt>
      <trkpt lat="42.47246" lon="24.1769">
        <ele>569.416781</ele>
        <time>2022-03-07T13:35:26.555Z</time>
      </trkpt>
      <trkpt lat="42.47254" lon="24.17695">
        <ele>570.066122</ele>
        <time>2022-03-07T13:35:33.565Z</time>
      </trkpt>
      <trkpt lat="42.47263" lon="24.17699">
        <ele>570.720386</ele>
        <time>2022-03-07T13:35:39.566Z</time>
      </trkpt>
      <trkpt lat="42.47272" lon="24.17701">
        <ele>571.352572</ele>
        <time>2022-03-07T13:35:45.562Z</time>
      </trkpt>
      <trkpt lat="42.47281" lon="24.17702">
        <ele>571.994512</ele>
        <time>2022-03-07T13:35:54.561Z</time>
      </trkpt>
      <trkpt lat="42.47291" lon="24.17703">
        <ele>572.727596</ele>
        <time>2022-03-07T13:36:02.564Z</time>
      </trkpt>
      <trkpt lat="42.47301" lon="24.17702">
        <ele>573.404583</ele>
        <time>2022-03-07T13:36:09.556Z</time>
      </trkpt>
      <trkpt lat="42.47311" lon="24.17703">
        <ele>574.10345</ele>
        <time>2022-03-07T13:36:15.574Z</time>
      </trkpt>
      <trkpt lat="42.47321" lon="24.17704">
        <ele>574.834991</ele>
        <time>2022-03-07T13:36:22.611Z</time>
      </trkpt>
      <trkpt lat="42.47331" lon="24.17701">
        <ele>575.555122</ele>
        <time>2022-03-07T13:36:28.565Z</time>
      </trkpt>
      <trkpt lat="42.47341" lon="24.177">
        <ele>576.211509</ele>
        <time>2022-03-07T13:36:34.561Z</time>
      </trkpt>
      <trkpt lat="42.47351" lon="24.17698">
        <ele>576.927772</ele>
        <time>2022-03-07T13:36:41.561Z</time>
      </trkpt>
      <trkpt lat="42.4736" lon="24.17696">
        <ele>577.565999</ele>
        <time>2022-03-07T13:36:47.559Z</time>
      </trkpt>
      <trkpt lat="42.47369" lon="24.17693">
        <ele>578.24383</ele>
        <time>2022-03-07T13:36:54.574Z</time>
      </trkpt>
      <trkpt lat="42.47379" lon="24.17691">
        <ele>578.946973</ele>
        <time>2022-03-07T13:37:01.560Z</time>
      </trkpt>
      <trkpt lat="42.47389" lon="24.17689">
        <ele>579.672022</ele>
        <time>2022-03-07T13:37:08.579Z</time>
      </trkpt>
      <trkpt lat="42.47398" lon="24.17688">
        <ele>580.20894</ele>
        <time>2022-03-07T13:37:15.556Z</time>
      </trkpt>
      <trkpt lat="42.47407" lon="24.17688">
        <ele>580.756238</ele>
        <time>2022-03-07T13:37:22.601Z</time>
      </trkpt>
      <trkpt lat="42.47417" lon="24.17688">
        <ele>581.3092</ele>
        <time>2022-03-07T13:37:29.559Z</time>
      </trkpt>
      <trkpt lat="42.47426" lon="24.17688">
        <ele>581.85027</ele>
        <time>2022-03-07T13:37:35.573Z</time>
      </trkpt>
      <trkpt lat="42.47435" lon="24.17689">
        <ele>582.399042</ele>
        <time>2022-03-07T13:37:42.570Z</time>
      </trkpt>
      <trkpt lat="42.47445" lon="24.17692">
        <ele>583.005209</ele>
        <time>2022-03-07T13:37:49.561Z</time>
      </trkpt>
      <trkpt lat="42.47455" lon="24.17696">
        <ele>583.610652</ele>
        <time>2022-03-07T13:37:56.570Z</time>
      </trkpt>
      <trkpt lat="42.47464" lon="24.177">
        <ele>584.184522</ele>
        <time>2022-03-07T13:38:02.549Z</time>
      </trkpt>
      <trkpt lat="42.47474" lon="24.17704">
        <ele>584.790576</ele>
        <time>2022-03-07T13:38:09.563Z</time>
      </trkpt>
      <trkpt lat="42.47483" lon="24.17709">
        <ele>585.392115</ele>
        <time>2022-03-07T13:38:16.564Z</time>
      </trkpt>
      <trkpt lat="42.47492" lon="24.17715">
        <ele>585.986312</ele>
        <time>2022-03-07T13:38:23.603Z</time>
      </trkpt>
      <trkpt lat="42.47501" lon="24.17719">
        <ele>586.54249</ele>
        <time>2022-03-07T13:38:30.565Z</time>
      </trkpt>
      <trkpt lat="42.47508" lon="24.17728">
        <ele>587.120387</ele>
        <time>2022-03-07T13:38:37.567Z</time>
      </trkpt>
      <trkpt lat="42.47515" lon="24.17736">
        <ele>587.671113</ele>
        <time>2022-03-07T13:38:45.636Z</time>
      </trkpt>
      <trkpt lat="42.47523" lon="24.17744">
        <ele>588.259704</ele>
        <time>2022-03-07T13:38:53.562Z</time>
      </trkpt>
      <trkpt lat="42.4753" lon="24.17752">
        <ele>588.813817</ele>
        <time>2022-03-07T13:39:00.580Z</time>
      </trkpt>
      <trkpt lat="42.47538" lon="24.17759">
        <ele>589.367493</ele>
        <time>2022-03-07T13:39:08.577Z</time>
      </trkpt>
      <trkpt lat="42.47547" lon="24.17766">
        <ele>589.95605</ele>
        <time>2022-03-07T13:39:15.546Z</time>
      </trkpt>
      <trkpt lat="42.47555" lon="24.17772">
        <ele>590.519939</ele>
        <time>2022-03-07T13:39:21.562Z</time>
      </trkpt>
      <trkpt lat="42.47563" lon="24.17779">
        <ele>591.081221</ele>
        <time>2022-03-07T13:39:29.550Z</time>
      </trkpt>
      <trkpt lat="42.47571" lon="24.17786">
        <ele>591.602442</ele>
        <time>2022-03-07T13:39:35.545Z</time>
      </trkpt>
      <trkpt lat="42.47579" lon="24.17794">
        <ele>592.154707</ele>
        <time>2022-03-07T13:39:42.616Z</time>
      </trkpt>
      <trkpt lat="42.47587" lon="24.17801">
        <ele>592.715988</ele>
        <time>2022-03-07T13:39:50.556Z</time>
      </trkpt>
      <trkpt lat="42.47595" lon="24.17808">
        <ele>593.247421</ele>
        <time>2022-03-07T13:39:57.559Z</time>
      </trkpt>
      <trkpt lat="42.47602" lon="24.17815">
        <ele>593.775719</ele>
        <time>2022-03-07T13:40:05.567Z</time>
      </trkpt>
      <trkpt lat="42.4761" lon="24.17823">
        <ele>594.327673</ele>
        <time>2022-03-07T13:40:13.564Z</time>
      </trkpt>
      <trkpt lat="42.47618" lon="24.1783">
        <ele>594.867939</ele>
        <time>2022-03-07T13:40:20.555Z</time>
      </trkpt>
      <trkpt lat="42.47627" lon="24.17838">
        <ele>595.464582</ele>
        <time>2022-03-07T13:40:28.569Z</time>
      </trkpt>
      <trkpt lat="42.47635" lon="24.17844">
        <ele>595.977032</ele>
        <time>2022-03-07T13:40:34.549Z</time>
      </trkpt>
      <trkpt lat="42.47643" lon="24.17852">
        <ele>596.536375</ele>
        <time>2022-03-07T13:40:41.575Z</time>
      </trkpt>
      <trkpt lat="42.47651" lon="24.17859">
        <ele>597.103654</ele>
        <time>2022-03-07T13:40:49.566Z</time>
      </trkpt>
      <trkpt lat="42.4766" lon="24.17865">
        <ele>597.671899</ele>
        <time>2022-03-07T13:40:56.561Z</time>
      </trkpt>
      <trkpt lat="42.47668" lon="24.17872">
        <ele>598.212133</ele>
        <time>2022-03-07T13:41:03.555Z</time>
      </trkpt>
      <trkpt lat="42.47676" lon="24.17878">
        <ele>598.732256</ele>
        <time>2022-03-07T13:41:10.603Z</time>
      </trkpt>
      <trkpt lat="42.47685" lon="24.17885">
        <ele>599.318536</ele>
        <time>2022-03-07T13:41:17.557Z</time>
      </trkpt>
      <trkpt lat="42.47693" lon="24.17893">
        <ele>599.887058</ele>
        <time>2022-03-07T13:41:24.568Z</time>
      </trkpt>
      <trkpt lat="42.47701" lon="24.17901">
        <ele>600.448435</ele>
        <time>2022-03-07T13:41:32.598Z</time>
      </trkpt>
      <trkpt lat="42.47709" lon="24.17908">
        <ele>600.856466</ele>
        <time>2022-03-07T13:41:39.558Z</time>
      </trkpt>
      <trkpt lat="42.47717" lon="24.17916">
        <ele>601.209798</ele>
        <time>2022-03-07T13:41:48.557Z</time>
      </trkpt>
      <trkpt lat="42.47727" lon="24.1792">
        <ele>601.580863</ele>
        <time>2022-03-07T13:41:56.561Z</time>
      </trkpt>
      <trkpt lat="42.47736" lon="24.17923">
        <ele>601.907376</ele>
        <time>2022-03-07T13:42:01.567Z</time>
      </trkpt>
      <trkpt lat="42.47745" lon="24.17925">
        <ele>602.24037</ele>
        <time>2022-03-07T13:42:06.556Z</time>
      </trkpt>
      <trkpt lat="42.47755" lon="24.17927">
        <ele>602.628906</ele>
        <time>2022-03-07T13:42:12.561Z</time>
      </trkpt>
      <trkpt lat="42.47764" lon="24.17927">
        <ele>602.95531</ele>
        <time>2022-03-07T13:42:17.553Z</time>
      </trkpt>
      <trkpt lat="42.47775" lon="24.17927">
        <ele>603.32486</ele>
        <time>2022-03-07T13:42:22.558Z</time>
      </trkpt>
      <trkpt lat="42.47785" lon="24.17924">
        <ele>603.700605</ele>
        <time>2022-03-07T13:42:27.578Z</time>
      </trkpt>
      <trkpt lat="42.47796" lon="24.17921">
        <ele>604.088956</ele>
        <time>2022-03-07T13:42:32.562Z</time>
      </trkpt>
      <trkpt lat="42.47806" lon="24.17917">
        <ele>604.462136</ele>
        <time>2022-03-07T13:42:37.566Z</time>
      </trkpt>
      <trkpt lat="42.47815" lon="24.17911">
        <ele>604.82504</ele>
        <time>2022-03-07T13:42:42.541Z</time>
      </trkpt>
      <trkpt lat="42.47823" lon="24.17905">
        <ele>605.154208</ele>
        <time>2022-03-07T13:42:47.558Z</time>
      </trkpt>
      <trkpt lat="42.47831" lon="24.17897">
        <ele>605.515902</ele>
        <time>2022-03-07T13:42:52.581Z</time>
      </trkpt>
      <trkpt lat="42.47839" lon="24.17887">
        <ele>605.915874</ele>
        <time>2022-03-07T13:42:57.549Z</time>
      </trkpt>
      <trkpt lat="42.47847" lon="24.17877">
        <ele>606.300101</ele>
        <time>2022-03-07T13:43:01.560Z</time>
      </trkpt>
      <trkpt lat="42.47855" lon="24.17865">
        <ele>606.735156</ele>
        <time>2022-03-07T13:43:05.558Z</time>
      </trkpt>
      <trkpt lat="42.47861" lon="24.17855">
        <ele>607.049771</ele>
        <time>2022-03-07T13:43:08.554Z</time>
      </trkpt>
      <trkpt lat="42.47866" lon="24.17843">
        <ele>606.800411</ele>
        <time>2022-03-07T13:43:12.556Z</time>
      </trkpt>
      <trkpt lat="42.47873" lon="24.1783">
        <ele>606.542693</ele>
        <time>2022-03-07T13:43:16.553Z</time>
      </trkpt>
      <trkpt lat="42.47878" lon="24.17819">
        <ele>606.330782</ele>
        <time>2022-03-07T13:43:19.559Z</time>
      </trkpt>
      <trkpt lat="42.47883" lon="24.17809">
        <ele>606.125774</ele>
        <time>2022-03-07T13:43:22.565Z</time>
      </trkpt>
      <trkpt lat="42.47889" lon="24.17798">
        <ele>605.894519</ele>
        <time>2022-03-07T13:43:25.572Z</time>
      </trkpt>
      <trkpt lat="42.47893" lon="24.17785">
        <ele>605.655422</ele>
        <time>2022-03-07T13:43:28.573Z</time>
      </trkpt>
      <trkpt lat="42.47898" lon="24.17771">
        <ele>605.401817</ele>
        <time>2022-03-07T13:43:31.577Z</time>
      </trkpt>
      <trkpt lat="42.47904" lon="24.17757">
        <ele>605.126771</ele>
        <time>2022-03-07T13:43:34.562Z</time>
      </trkpt>
      <trkpt lat="42.47909" lon="24.17747">
        <ele>604.920167</ele>
        <time>2022-03-07T13:43:36.548Z</time>
      </trkpt>
      <trkpt lat="42.47915" lon="24.17736">
        <ele>604.705767</ele>
        <time>2022-03-07T13:43:38.560Z</time>
      </trkpt>
      <trkpt lat="42.4792" lon="24.17725">
        <ele>604.477523</ele>
        <time>2022-03-07T13:43:40.557Z</time>
      </trkpt>
      <trkpt lat="42.47926" lon="24.17713">
        <ele>604.239126</ele>
        <time>2022-03-07T13:43:42.549Z</time>
      </trkpt>
      <trkpt lat="42.47931" lon="24.177">
        <ele>603.996092</ele>
        <time>2022-03-07T13:43:44.587Z</time>
      </trkpt>
      <trkpt lat="42.47937" lon="24.17687">
        <ele>603.733438</ele>
        <time>2022-03-07T13:43:46.564Z</time>
      </trkpt>
      <trkpt lat="42.47943" lon="24.17673">
        <ele>603.462434</ele>
        <time>2022-03-07T13:43:48.546Z</time>
      </trkpt>
      <trkpt lat="42.4795" lon="24.1766">
        <ele>603.188701</ele>
        <time>2022-03-07T13:43:50.564Z</time>
      </trkpt>
      <trkpt lat="42.47958" lon="24.17647">
        <ele>602.872202</ele>
        <time>2022-03-07T13:43:52.570Z</time>
      </trkpt>
      <trkpt lat="42.47968" lon="24.17634">
        <ele>602.40025</ele>
        <time>2022-03-07T13:43:54.550Z</time>
      </trkpt>
      <trkpt lat="42.47978" lon="24.17622">
        <ele>601.913432</ele>
        <time>2022-03-07T13:43:56.591Z</time>
      </trkpt>
      <trkpt lat="42.47991" lon="24.17613">
        <ele>601.411977</ele>
        <time>2022-03-07T13:43:58.562Z</time>
      </trkpt>
      <trkpt lat="42.48004" lon="24.17606">
        <ele>600.907518</ele>
        <time>2022-03-07T13:44:00.551Z</time>
      </trkpt>
      <trkpt lat="42.48019" lon="24.17605">
        <ele>600.393044</ele>
        <time>2022-03-07T13:44:02.564Z</time>
      </trkpt>
      <trkpt lat="42.48034" lon="24.17606">
        <ele>599.851819</ele>
        <time>2022-03-07T13:44:04.558Z</time>
      </trkpt>
      <trkpt lat="42.4805" lon="24.17608">
        <ele>599.285303</ele>
        <time>2022-03-07T13:44:06.581Z</time>
      </trkpt>
      <trkpt lat="42.48066" lon="24.17614">
        <ele>598.697367</ele>
        <time>2022-03-07T13:44:08.577Z</time>
      </trkpt>
      <trkpt lat="42.48081" lon="24.17623">
        <ele>598.129601</ele>
        <time>2022-03-07T13:44:10.555Z</time>
      </trkpt>
      <trkpt lat="42.48094" lon="24.17635">
        <ele>597.566622</ele>
        <time>2022-03-07T13:44:12.601Z</time>
      </trkpt>
      <trkpt lat="42.48106" lon="24.1765">
        <ele>596.980259</ele>
        <time>2022-03-07T13:44:14.604Z</time>
      </trkpt>
      <trkpt lat="42.48117" lon="24.17668">
        <ele>596.357476</ele>
        <time>2022-03-07T13:44:16.565Z</time>
      </trkpt>
      <trkpt lat="42.48126" lon="24.17688">
        <ele>595.701569</ele>
        <time>2022-03-07T13:44:18.548Z</time>
      </trkpt>
      <trkpt lat="42.48134" lon="24.17707">
        <ele>595.06016</ele>
        <time>2022-03-07T13:44:20.566Z</time>
      </trkpt>
      <trkpt lat="42.48141" lon="24.17729">
        <ele>594.381533</ele>
        <time>2022-03-07T13:44:22.566Z</time>
      </trkpt>
      <trkpt lat="42.48145" lon="24.1774">
        <ele>594.030603</ele>
        <time>2022-03-07T13:44:23.590Z</time>
      </trkpt>
      <trkpt lat="42.48149" lon="24.17752">
        <ele>593.674512</ele>
        <time>2022-03-07T13:44:24.546Z</time>
      </trkpt>
      <trkpt lat="42.48152" lon="24.17763">
        <ele>593.326157</ele>
        <time>2022-03-07T13:44:25.601Z</time>
      </trkpt>
      <trkpt lat="42.48159" lon="24.17784">
        <ele>592.673099</ele>
        <time>2022-03-07T13:44:27.542Z</time>
      </trkpt>
      <trkpt lat="42.48166" lon="24.17804">
        <ele>592.028323</ele>
        <time>2022-03-07T13:44:29.571Z</time>
      </trkpt>
      <trkpt lat="42.48173" lon="24.17825">
        <ele>591.369932</ele>
        <time>2022-03-07T13:44:31.558Z</time>
      </trkpt>
      <trkpt lat="42.48181" lon="24.17846">
        <ele>590.704701</ele>
        <time>2022-03-07T13:44:33.569Z</time>
      </trkpt>
      <trkpt lat="42.48186" lon="24.17857">
        <ele>590.338807</ele>
        <time>2022-03-07T13:44:34.583Z</time>
      </trkpt>
      <trkpt lat="42.4819" lon="24.17868">
        <ele>589.984763</ele>
        <time>2022-03-07T13:44:35.562Z</time>
      </trkpt>
      <trkpt lat="42.48195" lon="24.17879">
        <ele>589.606636</ele>
        <time>2022-03-07T13:44:36.573Z</time>
      </trkpt>
      <trkpt lat="42.48202" lon="24.17901">
        <ele>588.771532</ele>
        <time>2022-03-07T13:44:38.562Z</time>
      </trkpt>
      <trkpt lat="42.48209" lon="24.17922">
        <ele>587.949974</ele>
        <time>2022-03-07T13:44:40.583Z</time>
      </trkpt>
      <trkpt lat="42.48216" lon="24.17944">
        <ele>587.122006</ele>
        <time>2022-03-07T13:44:42.547Z</time>
      </trkpt>
      <trkpt lat="42.4822" lon="24.17955">
        <ele>586.685673</ele>
        <time>2022-03-07T13:44:43.563Z</time>
      </trkpt>
      <trkpt lat="42.48225" lon="24.17966">
        <ele>586.24092</ele>
        <time>2022-03-07T13:44:44.557Z</time>
      </trkpt>
      <trkpt lat="42.48233" lon="24.17988">
        <ele>585.387983</ele>
        <time>2022-03-07T13:44:46.547Z</time>
      </trkpt>
      <trkpt lat="42.48237" lon="24.17998">
        <ele>584.949634</ele>
        <time>2022-03-07T13:44:47.565Z</time>
      </trkpt>
      <trkpt lat="42.48242" lon="24.18009">
        <ele>584.519047</ele>
        <time>2022-03-07T13:44:48.554Z</time>
      </trkpt>
      <trkpt lat="42.48251" lon="24.1803">
        <ele>583.662336</ele>
        <time>2022-03-07T13:44:50.557Z</time>
      </trkpt>
      <trkpt lat="42.48256" lon="24.18041">
        <ele>583.225612</ele>
        <time>2022-03-07T13:44:51.586Z</time>
      </trkpt>
      <trkpt lat="42.48261" lon="24.18051">
        <ele>582.786321</ele>
        <time>2022-03-07T13:44:52.557Z</time>
      </trkpt>
      <trkpt lat="42.48266" lon="24.18062">
        <ele>582.333661</ele>
        <time>2022-03-07T13:44:53.565Z</time>
      </trkpt>
      <trkpt lat="42.48272" lon="24.18072">
        <ele>581.881069</ele>
        <time>2022-03-07T13:44:54.595Z</time>
      </trkpt>
      <trkpt lat="42.48278" lon="24.18083">
        <ele>581.417165</ele>
        <time>2022-03-07T13:44:55.562Z</time>
      </trkpt>
      <trkpt lat="42.48284" lon="24.18093">
        <ele>580.973904</ele>
        <time>2022-03-07T13:44:56.555Z</time>
      </trkpt>
      <trkpt lat="42.48289" lon="24.18104">
        <ele>580.586226</ele>
        <time>2022-03-07T13:44:57.597Z</time>
      </trkpt>
      <trkpt lat="42.48295" lon="24.18114">
        <ele>580.198547</ele>
        <time>2022-03-07T13:44:58.567Z</time>
      </trkpt>
      <trkpt lat="42.48301" lon="24.18124">
        <ele>579.820358</ele>
        <time>2022-03-07T13:44:59.574Z</time>
      </trkpt>
      <trkpt lat="42.48307" lon="24.18134">
        <ele>579.453936</ele>
        <time>2022-03-07T13:45:00.564Z</time>
      </trkpt>
      <trkpt lat="42.48312" lon="24.18144">
        <ele>579.089839</ele>
        <time>2022-03-07T13:45:01.570Z</time>
      </trkpt>
      <trkpt lat="42.48318" lon="24.18154">
        <ele>578.728168</ele>
        <time>2022-03-07T13:45:02.557Z</time>
      </trkpt>
      <trkpt lat="42.48323" lon="24.18164">
        <ele>578.366212</ele>
        <time>2022-03-07T13:45:03.547Z</time>
      </trkpt>
      <trkpt lat="42.48329" lon="24.18173">
        <ele>578.00904</ele>
        <time>2022-03-07T13:45:04.556Z</time>
      </trkpt>
      <trkpt lat="42.48335" lon="24.18183">
        <ele>577.647085</ele>
        <time>2022-03-07T13:45:05.565Z</time>
      </trkpt>
      <trkpt lat="42.48341" lon="24.18192">
        <ele>577.282619</ele>
        <time>2022-03-07T13:45:06.551Z</time>
      </trkpt>
      <trkpt lat="42.48346" lon="24.18202">
        <ele>576.913761</ele>
        <time>2022-03-07T13:45:07.555Z</time>
      </trkpt>
      <trkpt lat="42.48352" lon="24.18212">
        <ele>576.545005</ele>
        <time>2022-03-07T13:45:08.561Z</time>
      </trkpt>
      <trkpt lat="42.48357" lon="24.18222">
        <ele>576.171554</ele>
        <time>2022-03-07T13:45:09.543Z</time>
      </trkpt>
      <trkpt lat="42.48363" lon="24.18233">
        <ele>575.795713</ele>
        <time>2022-03-07T13:45:10.551Z</time>
      </trkpt>
      <trkpt lat="42.48369" lon="24.18243">
        <ele>575.417526</ele>
        <time>2022-03-07T13:45:11.561Z</time>
      </trkpt>
      <trkpt lat="42.48375" lon="24.18253">
        <ele>575.03934</ele>
        <time>2022-03-07T13:45:12.731Z</time>
      </trkpt>
      <trkpt lat="42.48386" lon="24.18274">
        <ele>574.290056</ele>
        <time>2022-03-07T13:45:14.598Z</time>
      </trkpt>
      <trkpt lat="42.48391" lon="24.18283">
        <ele>573.925962</ele>
        <time>2022-03-07T13:45:15.552Z</time>
      </trkpt>
      <trkpt lat="42.48397" lon="24.18294">
        <ele>573.680044</ele>
        <time>2022-03-07T13:45:16.624Z</time>
      </trkpt>
      <trkpt lat="42.48402" lon="24.18304">
        <ele>573.435881</ele>
        <time>2022-03-07T13:45:17.531Z</time>
      </trkpt>
      <trkpt lat="42.48408" lon="24.18314">
        <ele>573.193236</ele>
        <time>2022-03-07T13:45:18.543Z</time>
      </trkpt>
      <trkpt lat="42.48413" lon="24.18324">
        <ele>572.950591</ele>
        <time>2022-03-07T13:45:19.534Z</time>
      </trkpt>
      <trkpt lat="42.48418" lon="24.18335">
        <ele>572.712387</ele>
        <time>2022-03-07T13:45:20.525Z</time>
      </trkpt>
      <trkpt lat="42.48423" lon="24.18345">
        <ele>572.475624</ele>
        <time>2022-03-07T13:45:21.571Z</time>
      </trkpt>
      <trkpt lat="42.48433" lon="24.18365">
        <ele>572.021655</ele>
        <time>2022-03-07T13:45:23.546Z</time>
      </trkpt>
      <trkpt lat="42.48441" lon="24.18385">
        <ele>571.571192</ele>
        <time>2022-03-07T13:45:25.566Z</time>
      </trkpt>
      <trkpt lat="42.48453" lon="24.18416">
        <ele>570.915192</ele>
        <time>2022-03-07T13:45:28.554Z</time>
      </trkpt>
      <trkpt lat="42.4846" lon="24.18436">
        <ele>570.485006</ele>
        <time>2022-03-07T13:45:30.548Z</time>
      </trkpt>
      <trkpt lat="42.48468" lon="24.18456">
        <ele>570.050225</ele>
        <time>2022-03-07T13:45:32.538Z</time>
      </trkpt>
      <trkpt lat="42.48475" lon="24.18476">
        <ele>569.628635</ele>
        <time>2022-03-07T13:45:34.544Z</time>
      </trkpt>
      <trkpt lat="42.48481" lon="24.18494">
        <ele>569.245453</ele>
        <time>2022-03-07T13:45:36.550Z</time>
      </trkpt>
      <trkpt lat="42.48487" lon="24.1851">
        <ele>569.459061</ele>
        <time>2022-03-07T13:45:38.545Z</time>
      </trkpt>
      <trkpt lat="42.48493" lon="24.18526">
        <ele>569.673653</ele>
        <time>2022-03-07T13:45:40.551Z</time>
      </trkpt>
      <trkpt lat="42.48498" lon="24.1854">
        <ele>569.875401</ele>
        <time>2022-03-07T13:45:42.555Z</time>
      </trkpt>
      <trkpt lat="42.48504" lon="24.18553">
        <ele>570.063329</ele>
        <time>2022-03-07T13:45:44.547Z</time>
      </trkpt>
      <trkpt lat="42.48508" lon="24.18566">
        <ele>570.245897</ele>
        <time>2022-03-07T13:45:46.558Z</time>
      </trkpt>
      <trkpt lat="42.48513" lon="24.18579">
        <ele>570.421384</ele>
        <time>2022-03-07T13:45:48.561Z</time>
      </trkpt>
      <trkpt lat="42.48517" lon="24.18591">
        <ele>570.589674</ele>
        <time>2022-03-07T13:45:50.546Z</time>
      </trkpt>
      <trkpt lat="42.48522" lon="24.18607">
        <ele>570.80789</ele>
        <time>2022-03-07T13:45:53.536Z</time>
      </trkpt>
      <trkpt lat="42.48526" lon="24.18622">
        <ele>571.007599</ele>
        <time>2022-03-07T13:45:56.564Z</time>
      </trkpt>
      <trkpt lat="42.4853" lon="24.18636">
        <ele>571.197928</ele>
        <time>2022-03-07T13:45:59.567Z</time>
      </trkpt>
      <trkpt lat="42.48535" lon="24.18648">
        <ele>571.378419</ele>
        <time>2022-03-07T13:46:02.547Z</time>
      </trkpt>
      <trkpt lat="42.4854" lon="24.18661">
        <ele>571.556486</ele>
        <time>2022-03-07T13:46:05.561Z</time>
      </trkpt>
      <trkpt lat="42.48545" lon="24.18674">
        <ele>571.734922</ele>
        <time>2022-03-07T13:46:08.547Z</time>
      </trkpt>
      <trkpt lat="42.4855" lon="24.18687">
        <ele>571.918434</ele>
        <time>2022-03-07T13:46:11.626Z</time>
      </trkpt>
      <trkpt lat="42.48555" lon="24.187">
        <ele>572.110807</ele>
        <time>2022-03-07T13:46:14.544Z</time>
      </trkpt>
      <trkpt lat="42.4856" lon="24.18714">
        <ele>572.293336</ele>
        <time>2022-03-07T13:46:17.562Z</time>
      </trkpt>
      <trkpt lat="42.48566" lon="24.18727">
        <ele>572.21777</ele>
        <time>2022-03-07T13:46:20.553Z</time>
      </trkpt>
      <trkpt lat="42.48571" lon="24.18741">
        <ele>572.140915</ele>
        <time>2022-03-07T13:46:23.554Z</time>
      </trkpt>
      <trkpt lat="42.48576" lon="24.18754">
        <ele>572.071351</ele>
        <time>2022-03-07T13:46:26.558Z</time>
      </trkpt>
      <trkpt lat="42.48582" lon="24.18767">
        <ele>571.996739</ele>
        <time>2022-03-07T13:46:29.549Z</time>
      </trkpt>
      <trkpt lat="42.48589" lon="24.1878">
        <ele>571.918661</ele>
        <time>2022-03-07T13:46:32.554Z</time>
      </trkpt>
      <trkpt lat="42.48596" lon="24.18792">
        <ele>571.839742</ele>
        <time>2022-03-07T13:46:35.560Z</time>
      </trkpt>
      <trkpt lat="42.48605" lon="24.18804">
        <ele>571.760438</ele>
        <time>2022-03-07T13:46:38.615Z</time>
      </trkpt>
      <trkpt lat="42.48613" lon="24.18814">
        <ele>571.686174</ele>
        <time>2022-03-07T13:46:41.557Z</time>
      </trkpt>
      <trkpt lat="42.48622" lon="24.18823">
        <ele>571.610762</ele>
        <time>2022-03-07T13:46:44.567Z</time>
      </trkpt>
      <trkpt lat="42.48632" lon="24.1883">
        <ele>571.53481</ele>
        <time>2022-03-07T13:46:47.548Z</time>
      </trkpt>
      <trkpt lat="42.48643" lon="24.18835">
        <ele>571.457541</ele>
        <time>2022-03-07T13:46:50.541Z</time>
      </trkpt>
      <trkpt lat="42.48654" lon="24.18839">
        <ele>571.385851</ele>
        <time>2022-03-07T13:46:53.553Z</time>
      </trkpt>
      <trkpt lat="42.48663" lon="24.18841">
        <ele>571.321702</ele>
        <time>2022-03-07T13:46:56.543Z</time>
      </trkpt>
      <trkpt lat="42.48674" lon="24.1884">
        <ele>571.251832</ele>
        <time>2022-03-07T13:46:59.548Z</time>
      </trkpt>
      <trkpt lat="42.48684" lon="24.18838">
        <ele>571.181167</ele>
        <time>2022-03-07T13:47:02.548Z</time>
      </trkpt>
      <trkpt lat="42.48695" lon="24.18833">
        <ele>571.107516</ele>
        <time>2022-03-07T13:47:05.551Z</time>
      </trkpt>
      <trkpt lat="42.48706" lon="24.18829">
        <ele>570.900326</ele>
        <time>2022-03-07T13:47:08.542Z</time>
      </trkpt>
      <trkpt lat="42.48717" lon="24.18825">
        <ele>570.685927</ele>
        <time>2022-03-07T13:47:11.609Z</time>
      </trkpt>
      <trkpt lat="42.48728" lon="24.18819">
        <ele>570.455362</ele>
        <time>2022-03-07T13:47:14.556Z</time>
      </trkpt>
      <trkpt lat="42.48739" lon="24.18813">
        <ele>570.235948</ele>
        <time>2022-03-07T13:47:17.544Z</time>
      </trkpt>
      <trkpt lat="42.4875" lon="24.18807">
        <ele>570.007431</ele>
        <time>2022-03-07T13:47:20.555Z</time>
      </trkpt>
      <trkpt lat="42.4876" lon="24.18801">
        <ele>569.798705</ele>
        <time>2022-03-07T13:47:23.543Z</time>
      </trkpt>
      <trkpt lat="42.48771" lon="24.18793">
        <ele>569.562744</ele>
        <time>2022-03-07T13:47:26.552Z</time>
      </trkpt>
      <trkpt lat="42.48779" lon="24.18787">
        <ele>569.388924</ele>
        <time>2022-03-07T13:47:28.555Z</time>
      </trkpt>
      <trkpt lat="42.48788" lon="24.18781">
        <ele>569.212113</ele>
        <time>2022-03-07T13:47:30.578Z</time>
      </trkpt>
      <trkpt lat="42.48797" lon="24.18775">
        <ele>569.019916</ele>
        <time>2022-03-07T13:47:32.538Z</time>
      </trkpt>
      <trkpt lat="42.48806" lon="24.1877">
        <ele>568.824446</ele>
        <time>2022-03-07T13:47:34.564Z</time>
      </trkpt>
      <trkpt lat="42.48816" lon="24.18764">
        <ele>568.621428</ele>
        <time>2022-03-07T13:47:36.568Z</time>
      </trkpt>
      <trkpt lat="42.48826" lon="24.1876">
        <ele>568.414082</ele>
        <time>2022-03-07T13:47:38.576Z</time>
      </trkpt>
      <trkpt lat="42.48838" lon="24.18756">
        <ele>568.184413</ele>
        <time>2022-03-07T13:47:40.563Z</time>
      </trkpt>
      <trkpt lat="42.48851" lon="24.18751">
        <ele>567.926134</ele>
        <time>2022-03-07T13:47:42.548Z</time>
      </trkpt>
      <trkpt lat="42.48865" lon="24.18747">
        <ele>567.652006</ele>
        <time>2022-03-07T13:47:44.603Z</time>
      </trkpt>
      <trkpt lat="42.48878" lon="24.18743">
        <ele>567.180421</ele>
        <time>2022-03-07T13:47:46.555Z</time>
      </trkpt>
      <trkpt lat="42.48893" lon="24.18739">
        <ele>566.693514</ele>
        <time>2022-03-07T13:47:48.569Z</time>
      </trkpt>
      <trkpt lat="42.48908" lon="24.18736">
        <ele>566.181298</ele>
        <time>2022-03-07T13:47:50.554Z</time>
      </trkpt>
      <trkpt lat="42.48923" lon="24.18732">
        <ele>565.676514</ele>
        <time>2022-03-07T13:47:52.567Z</time>
      </trkpt>
      <trkpt lat="42.48938" lon="24.18728">
        <ele>565.15444</ele>
        <time>2022-03-07T13:47:54.555Z</time>
      </trkpt>
      <trkpt lat="42.48953" lon="24.18724">
        <ele>564.631836</ele>
        <time>2022-03-07T13:47:56.551Z</time>
      </trkpt>
      <trkpt lat="42.48969" lon="24.1872">
        <ele>564.100443</ele>
        <time>2022-03-07T13:47:58.575Z</time>
      </trkpt>
      <trkpt lat="42.48985" lon="24.18715">
        <ele>563.551712</ele>
        <time>2022-03-07T13:48:00.559Z</time>
      </trkpt>
      <trkpt lat="42.49002" lon="24.18711">
        <ele>562.995038</ele>
        <time>2022-03-07T13:48:02.554Z</time>
      </trkpt>
      <trkpt lat="42.49019" lon="24.18707">
        <ele>562.419903</ele>
        <time>2022-03-07T13:48:04.559Z</time>
      </trkpt>
      <trkpt lat="42.49035" lon="24.18703">
        <ele>561.851541</ele>
        <time>2022-03-07T13:48:06.618Z</time>
      </trkpt>
      <trkpt lat="42.49052" lon="24.18698">
        <ele>561.332808</ele>
        <time>2022-03-07T13:48:08.574Z</time>
      </trkpt>
      <trkpt lat="42.49069" lon="24.18693">
        <ele>560.821533</ele>
        <time>2022-03-07T13:48:10.551Z</time>
      </trkpt>
      <trkpt lat="42.49086" lon="24.18689">
        <ele>560.323575</ele>
        <time>2022-03-07T13:48:12.577Z</time>
      </trkpt>
      <trkpt lat="42.49103" lon="24.18684">
        <ele>559.838283</ele>
        <time>2022-03-07T13:48:14.558Z</time>
      </trkpt>
      <trkpt lat="42.49119" lon="24.1868">
        <ele>559.356517</ele>
        <time>2022-03-07T13:48:16.556Z</time>
      </trkpt>
      <trkpt lat="42.49135" lon="24.18677">
        <ele>558.889038</ele>
        <time>2022-03-07T13:48:18.562Z</time>
      </trkpt>
      <trkpt lat="42.49151" lon="24.18673">
        <ele>558.415113</ele>
        <time>2022-03-07T13:48:20.596Z</time>
      </trkpt>
      <trkpt lat="42.49167" lon="24.18669">
        <ele>557.950121</ele>
        <time>2022-03-07T13:48:22.558Z</time>
      </trkpt>
      <trkpt lat="42.49182" lon="24.18665">
        <ele>557.489407</ele>
        <time>2022-03-07T13:48:24.580Z</time>
      </trkpt>
      <trkpt lat="42.49198" lon="24.18663">
        <ele>557.042029</ele>
        <time>2022-03-07T13:48:26.560Z</time>
      </trkpt>
      <trkpt lat="42.49213" lon="24.18661">
        <ele>556.608152</ele>
        <time>2022-03-07T13:48:28.564Z</time>
      </trkpt>
      <trkpt lat="42.49227" lon="24.1866">
        <ele>556.473111</ele>
        <time>2022-03-07T13:48:30.559Z</time>
      </trkpt>
      <trkpt lat="42.4924" lon="24.18661">
        <ele>556.474591</ele>
        <time>2022-03-07T13:48:32.552Z</time>
      </trkpt>
      <trkpt lat="42.49253" lon="24.18662">
        <ele>556.47603</ele>
        <time>2022-03-07T13:48:34.555Z</time>
      </trkpt>
      <trkpt lat="42.49266" lon="24.18664">
        <ele>556.477399</ele>
        <time>2022-03-07T13:48:36.548Z</time>
      </trkpt>
      <trkpt lat="42.49277" lon="24.18666">
        <ele>556.478655</ele>
        <time>2022-03-07T13:48:38.547Z</time>
      </trkpt>
      <trkpt lat="42.49288" lon="24.18668">
        <ele>556.479793</ele>
        <time>2022-03-07T13:48:40.567Z</time>
      </trkpt>
      <trkpt lat="42.49297" lon="24.1867">
        <ele>556.480886</ele>
        <time>2022-03-07T13:48:42.575Z</time>
      </trkpt>
      <trkpt lat="42.49307" lon="24.18671">
        <ele>556.481913</ele>
        <time>2022-03-07T13:48:44.623Z</time>
      </trkpt>
      <trkpt lat="42.49319" lon="24.18674">
        <ele>556.48323</ele>
        <time>2022-03-07T13:48:47.575Z</time>
      </trkpt>
      <trkpt lat="42.49329" lon="24.18675">
        <ele>556.484394</ele>
        <time>2022-03-07T13:48:50.565Z</time>
      </trkpt>
      <trkpt lat="42.49339" lon="24.18676">
        <ele>556.485513</ele>
        <time>2022-03-07T13:48:53.575Z</time>
      </trkpt>
      <trkpt lat="42.49352" lon="24.18677">
        <ele>556.486862</ele>
        <time>2022-03-07T13:48:57.564Z</time>
      </trkpt>
      <trkpt lat="42.49362" lon="24.18678">
        <ele>556.487972</ele>
        <time>2022-03-07T13:49:00.594Z</time>
      </trkpt>
      <trkpt lat="42.49372" lon="24.18681">
        <ele>556.489115</ele>
        <time>2022-03-07T13:49:03.567Z</time>
      </trkpt>
      <trkpt lat="42.49382" lon="24.18684">
        <ele>556.49019</ele>
        <time>2022-03-07T13:49:06.549Z</time>
      </trkpt>
      <trkpt lat="42.49391" lon="24.18686">
        <ele>556.491254</ele>
        <time>2022-03-07T13:49:09.562Z</time>
      </trkpt>
      <trkpt lat="42.49402" lon="24.18688">
        <ele>556.522226</ele>
        <time>2022-03-07T13:49:12.562Z</time>
      </trkpt>
      <trkpt lat="42.49412" lon="24.18689">
        <ele>556.577979</ele>
        <time>2022-03-07T13:49:15.570Z</time>
      </trkpt>
      <trkpt lat="42.49423" lon="24.18691">
        <ele>556.63579</ele>
        <time>2022-03-07T13:49:18.558Z</time>
      </trkpt>
      <trkpt lat="42.49434" lon="24.18693">
        <ele>556.697389</ele>
        <time>2022-03-07T13:49:21.563Z</time>
      </trkpt>
      <trkpt lat="42.49446" lon="24.18695">
        <ele>556.757884</ele>
        <time>2022-03-07T13:49:24.562Z</time>
      </trkpt>
      <trkpt lat="42.49457" lon="24.18697">
        <ele>556.818481</ele>
        <time>2022-03-07T13:49:27.589Z</time>
      </trkpt>
      <trkpt lat="42.49468" lon="24.18699">
        <ele>556.878804</ele>
        <time>2022-03-07T13:49:30.568Z</time>
      </trkpt>
      <trkpt lat="42.49481" lon="24.18701">
        <ele>556.94646</ele>
        <time>2022-03-07T13:49:33.596Z</time>
      </trkpt>
      <trkpt lat="42.49493" lon="24.18703">
        <ele>557.010647</ele>
        <time>2022-03-07T13:49:36.599Z</time>
      </trkpt>
      <trkpt lat="42.49505" lon="24.18705">
        <ele>557.075985</ele>
        <time>2022-03-07T13:49:39.546Z</time>
      </trkpt>
      <trkpt lat="42.49517" lon="24.18706">
        <ele>557.138269</ele>
        <time>2022-03-07T13:49:42.566Z</time>
      </trkpt>
      <trkpt lat="42.49529" lon="24.18707">
        <ele>557.201523</ele>
        <time>2022-03-07T13:49:45.565Z</time>
      </trkpt>
      <trkpt lat="42.4954" lon="24.18709">
        <ele>557.265184</ele>
        <time>2022-03-07T13:49:48.550Z</time>
      </trkpt>
      <trkpt lat="42.49552" lon="24.18711">
        <ele>557.328316</ele>
        <time>2022-03-07T13:49:51.575Z</time>
      </trkpt>
      <trkpt lat="42.49564" lon="24.18713">
        <ele>557.392024</ele>
        <time>2022-03-07T13:49:54.554Z</time>
      </trkpt>
      <trkpt lat="42.49575" lon="24.18715">
        <ele>557.467109</ele>
        <time>2022-03-07T13:49:57.568Z</time>
      </trkpt>
      <trkpt lat="42.49586" lon="24.18716">
        <ele>557.832391</ele>
        <time>2022-03-07T13:50:00.571Z</time>
      </trkpt>
      <trkpt lat="42.49598" lon="24.18716">
        <ele>558.208725</ele>
        <time>2022-03-07T13:50:03.567Z</time>
      </trkpt>
      <trkpt lat="42.49609" lon="24.18718">
        <ele>558.590533</ele>
        <time>2022-03-07T13:50:06.553Z</time>
      </trkpt>
      <trkpt lat="42.49621" lon="24.1872">
        <ele>558.965835</ele>
        <time>2022-03-07T13:50:09.600Z</time>
      </trkpt>
      <trkpt lat="42.49632" lon="24.18721">
        <ele>559.35325</ele>
        <time>2022-03-07T13:50:12.572Z</time>
      </trkpt>
      <trkpt lat="42.49644" lon="24.18722">
        <ele>559.726802</ele>
        <time>2022-03-07T13:50:15.529Z</time>
      </trkpt>
      <trkpt lat="42.49655" lon="24.18722">
        <ele>560.083502</ele>
        <time>2022-03-07T13:50:18.543Z</time>
      </trkpt>
      <trkpt lat="42.49666" lon="24.18722">
        <ele>560.453668</ele>
        <time>2022-03-07T13:50:21.539Z</time>
      </trkpt>
      <trkpt lat="42.49677" lon="24.18723">
        <ele>560.804114</ele>
        <time>2022-03-07T13:50:24.559Z</time>
      </trkpt>
      <trkpt lat="42.49687" lon="24.18723">
        <ele>561.141309</ele>
        <time>2022-03-07T13:50:27.558Z</time>
      </trkpt>
      <trkpt lat="42.49698" lon="24.18724">
        <ele>561.491531</ele>
        <time>2022-03-07T13:50:30.555Z</time>
      </trkpt>
      <trkpt lat="42.49708" lon="24.18724">
        <ele>561.81267</ele>
        <time>2022-03-07T13:50:33.563Z</time>
      </trkpt>
      <trkpt lat="42.49719" lon="24.18724">
        <ele>562.182577</ele>
        <time>2022-03-07T13:50:37.548Z</time>
      </trkpt>
      <trkpt lat="42.49731" lon="24.18724">
        <ele>562.578538</ele>
        <time>2022-03-07T13:50:41.563Z</time>
      </trkpt>
      <trkpt lat="42.4974" lon="24.18724">
        <ele>562.876336</ele>
        <time>2022-03-07T13:50:44.559Z</time>
      </trkpt>
      <trkpt lat="42.49751" lon="24.18724">
        <ele>563.223344</ele>
        <time>2022-03-07T13:50:48.560Z</time>
      </trkpt>
      <trkpt lat="42.4976" lon="24.18723">
        <ele>563.572561</ele>
        <time>2022-03-07T13:50:52.550Z</time>
      </trkpt>
      <trkpt lat="42.49772" lon="24.18722">
        <ele>564.003074</ele>
        <time>2022-03-07T13:50:56.551Z</time>
      </trkpt>
      <trkpt lat="42.49783" lon="24.18721">
        <ele>564.414933</ele>
        <time>2022-03-07T13:51:00.557Z</time>
      </trkpt>
      <trkpt lat="42.49794" lon="24.18721">
        <ele>564.82967</ele>
        <time>2022-03-07T13:51:04.553Z</time>
      </trkpt>
      <trkpt lat="42.49804" lon="24.18722">
        <ele>565.205032</ele>
        <time>2022-03-07T13:51:08.595Z</time>
      </trkpt>
      <trkpt lat="42.49815" lon="24.18721">
        <ele>565.612868</ele>
        <time>2022-03-07T13:51:12.574Z</time>
      </trkpt>
      <trkpt lat="42.49827" lon="24.18722">
        <ele>566.047074</ele>
        <time>2022-03-07T13:51:16.551Z</time>
      </trkpt>
      <trkpt lat="42.49839" lon="24.18724">
        <ele>566.475663</ele>
        <time>2022-03-07T13:51:20.565Z</time>
      </trkpt>
      <trkpt lat="42.4985" lon="24.18726">
        <ele>566.908583</ele>
        <time>2022-03-07T13:51:24.566Z</time>
      </trkpt>
      <trkpt lat="42.49861" lon="24.18729">
        <ele>567.306456</ele>
        <time>2022-03-07T13:51:28.569Z</time>
      </trkpt>
      <trkpt lat="42.49872" lon="24.18732">
        <ele>567.724763</ele>
        <time>2022-03-07T13:51:32.563Z</time>
      </trkpt>
      <trkpt lat="42.49882" lon="24.18736">
        <ele>568.125735</ele>
        <time>2022-03-07T13:51:36.599Z</time>
      </trkpt>
      <trkpt lat="42.49893" lon="24.18739">
        <ele>568.515857</ele>
        <time>2022-03-07T13:51:41.564Z</time>
      </trkpt>
      <trkpt lat="42.49903" lon="24.18739">
        <ele>568.916458</ele>
        <time>2022-03-07T13:51:45.554Z</time>
      </trkpt>
      <trkpt lat="42.49913" lon="24.18742">
        <ele>569.291097</ele>
        <time>2022-03-07T13:51:49.554Z</time>
      </trkpt>
      <trkpt lat="42.49923" lon="24.18742">
        <ele>569.653921</ele>
        <time>2022-03-07T13:51:52.582Z</time>
      </trkpt>
      <trkpt lat="42.49934" lon="24.18746">
        <ele>569.981436</ele>
        <time>2022-03-07T13:51:56.579Z</time>
      </trkpt>
      <trkpt lat="42.49943" lon="24.1875">
        <ele>569.937926</ele>
        <time>2022-03-07T13:51:59.575Z</time>
      </trkpt>
      <trkpt lat="42.49954" lon="24.18752">
        <ele>569.886875</ele>
        <time>2022-03-07T13:52:03.567Z</time>
      </trkpt>
      <trkpt lat="42.49963" lon="24.18753">
        <ele>569.842602</ele>
        <time>2022-03-07T13:52:07.570Z</time>
      </trkpt>
      <trkpt lat="42.49975" lon="24.18757">
        <ele>569.785774</ele>
        <time>2022-03-07T13:52:11.554Z</time>
      </trkpt>
      <trkpt lat="42.49987" lon="24.18759">
        <ele>569.730677</ele>
        <time>2022-03-07T13:52:15.572Z</time>
      </trkpt>
      <trkpt lat="42.49997" lon="24.18763">
        <ele>569.677746</ele>
        <time>2022-03-07T13:52:19.567Z</time>
      </trkpt>
      <trkpt lat="42.50006" lon="24.18768">
        <ele>569.634465</ele>
        <time>2022-03-07T13:52:22.589Z</time>
      </trkpt>
      <trkpt lat="42.50016" lon="24.18774">
        <ele>569.584687</ele>
        <time>2022-03-07T13:52:26.559Z</time>
      </trkpt>
      <trkpt lat="42.50025" lon="24.18779">
        <ele>569.535524</ele>
        <time>2022-03-07T13:52:31.559Z</time>
      </trkpt>
      <trkpt lat="42.50033" lon="24.18785">
        <ele>569.492601</ele>
        <time>2022-03-07T13:52:38.554Z</time>
      </trkpt>
      <trkpt lat="42.50051" lon="24.18793">
        <ele>569.403664</ele>
        <time>2022-03-07T13:53:03.569Z</time>
      </trkpt>
      <trkpt lat="42.50061" lon="24.18795">
        <ele>569.3598</ele>
        <time>2022-03-07T13:53:07.598Z</time>
      </trkpt>
      <trkpt lat="42.5007" lon="24.18796">
        <ele>569.315127</ele>
        <time>2022-03-07T13:53:11.583Z</time>
      </trkpt>
      <trkpt lat="42.50081" lon="24.18796">
        <ele>569.263467</ele>
        <time>2022-03-07T13:53:15.568Z</time>
      </trkpt>
      <trkpt lat="42.50093" lon="24.18798">
        <ele>569.209028</ele>
        <time>2022-03-07T13:53:19.560Z</time>
      </trkpt>
      <trkpt lat="42.50102" lon="24.18798">
        <ele>569.166231</ele>
        <time>2022-03-07T13:53:22.612Z</time>
      </trkpt>
      <trkpt lat="42.50111" lon="24.18799">
        <ele>569.467</ele>
        <time>2022-03-07T13:53:25.571Z</time>
      </trkpt>
      <trkpt lat="42.5012" lon="24.18801">
        <ele>570.04085</ele>
        <time>2022-03-07T13:53:28.576Z</time>
      </trkpt>
      <trkpt lat="42.50129" lon="24.18801">
        <ele>570.635488</ele>
        <time>2022-03-07T13:53:32.565Z</time>
      </trkpt>
      <trkpt lat="42.50139" lon="24.18802">
        <ele>571.279956</ele>
        <time>2022-03-07T13:53:36.564Z</time>
      </trkpt>
      <trkpt lat="42.50151" lon="24.18803">
        <ele>572.026187</ele>
        <time>2022-03-07T13:53:40.565Z</time>
      </trkpt>
      <trkpt lat="42.50163" lon="24.18802">
        <ele>572.727639</ele>
        <time>2022-03-07T13:53:45.595Z</time>
      </trkpt>
      <trkpt lat="42.50174" lon="24.18802">
        <ele>573.441234</ele>
        <time>2022-03-07T13:53:49.557Z</time>
      </trkpt>
      <trkpt lat="42.50185" lon="24.18804">
        <ele>574.122</ele>
        <time>2022-03-07T13:53:52.598Z</time>
      </trkpt>
      <trkpt lat="42.50194" lon="24.18805">
        <ele>574.710746</ele>
        <time>2022-03-07T13:53:55.597Z</time>
      </trkpt>
      <trkpt lat="42.50204" lon="24.18804">
        <ele>575.349159</ele>
        <time>2022-03-07T13:53:59.564Z</time>
      </trkpt>
      <trkpt lat="42.50214" lon="24.18806">
        <ele>575.949281</ele>
        <time>2022-03-07T13:54:02.560Z</time>
      </trkpt>
      <trkpt lat="42.50225" lon="24.18809">
        <ele>576.645119</ele>
        <time>2022-03-07T13:54:05.566Z</time>
      </trkpt>
      <trkpt lat="42.50237" lon="24.18814">
        <ele>577.418015</ele>
        <time>2022-03-07T13:54:08.551Z</time>
      </trkpt>
      <trkpt lat="42.50249" lon="24.18818">
        <ele>578.20546</ele>
        <time>2022-03-07T13:54:11.563Z</time>
      </trkpt>
      <trkpt lat="42.50258" lon="24.1882">
        <ele>578.77955</ele>
        <time>2022-03-07T13:54:14.569Z</time>
      </trkpt>
      <trkpt lat="42.50269" lon="24.1882">
        <ele>579.46149</ele>
        <time>2022-03-07T13:54:18.665Z</time>
      </trkpt>
      <trkpt lat="42.5028" lon="24.18819">
        <ele>580.176515</ele>
        <time>2022-03-07T13:54:21.584Z</time>
      </trkpt>
      <trkpt lat="42.50293" lon="24.18818">
        <ele>579.76717</ele>
        <time>2022-03-07T13:54:24.563Z</time>
      </trkpt>
      <trkpt lat="42.50303" lon="24.1881">
        <ele>578.904522</ele>
        <time>2022-03-07T13:54:27.561Z</time>
      </trkpt>
      <trkpt lat="42.50311" lon="24.18797">
        <ele>578.009355</ele>
        <time>2022-03-07T13:54:30.556Z</time>
      </trkpt>
      <trkpt lat="42.50317" lon="24.18787">
        <ele>577.319444</ele>
        <time>2022-03-07T13:54:32.570Z</time>
      </trkpt>
      <trkpt lat="42.50321" lon="24.18775">
        <ele>576.651835</ele>
        <time>2022-03-07T13:54:34.602Z</time>
      </trkpt>
      <trkpt lat="42.50325" lon="24.18764">
        <ele>575.962173</ele>
        <time>2022-03-07T13:54:36.570Z</time>
      </trkpt>
      <trkpt lat="42.50332" lon="24.18748">
        <ele>574.99635</ele>
        <time>2022-03-07T13:54:39.564Z</time>
      </trkpt>
      <trkpt lat="42.50338" lon="24.18733">
        <ele>574.126467</ele>
        <time>2022-03-07T13:54:42.564Z</time>
      </trkpt>
      <trkpt lat="42.50342" lon="24.18722">
        <ele>573.436782</ele>
        <time>2022-03-07T13:54:46.592Z</time>
      </trkpt>
      <trkpt lat="42.50351" lon="24.18715">
        <ele>572.693655</ele>
        <time>2022-03-07T13:54:49.543Z</time>
      </trkpt>
      <trkpt lat="42.50361" lon="24.18713">
        <ele>571.954594</ele>
        <time>2022-03-07T13:54:52.566Z</time>
      </trkpt>
      <trkpt lat="42.50372" lon="24.18714">
        <ele>571.156474</ele>
        <time>2022-03-07T13:54:56.543Z</time>
      </trkpt>
      <trkpt lat="42.50384" lon="24.18716">
        <ele>570.342502</ele>
        <time>2022-03-07T13:55:00.571Z</time>
      </trkpt>
      <trkpt lat="42.50393" lon="24.18717">
        <ele>569.639013</ele>
        <time>2022-03-07T13:55:04.565Z</time>
      </trkpt>
      <trkpt lat="42.50403" lon="24.18718">
        <ele>568.967397</ele>
        <time>2022-03-07T13:55:07.572Z</time>
      </trkpt>
      <trkpt lat="42.50413" lon="24.1872">
        <ele>568.244671</ele>
        <time>2022-03-07T13:55:10.577Z</time>
      </trkpt>
      <trkpt lat="42.50422" lon="24.18722">
        <ele>567.575649</ele>
        <time>2022-03-07T13:55:13.563Z</time>
      </trkpt>
      <trkpt lat="42.50433" lon="24.18724">
        <ele>567.265743</ele>
        <time>2022-03-07T13:55:16.573Z</time>
      </trkpt>
      <trkpt lat="42.50442" lon="24.18726">
        <ele>567.032399</ele>
        <time>2022-03-07T13:55:19.549Z</time>
      </trkpt>
      <trkpt lat="42.50451" lon="24.1873">
        <ele>566.808514</ele>
        <time>2022-03-07T13:55:22.547Z</time>
      </trkpt>
      <trkpt lat="42.50461" lon="24.18738">
        <ele>566.533304</ele>
        <time>2022-03-07T13:55:26.542Z</time>
      </trkpt>
      <trkpt lat="42.5047" lon="24.18745">
        <ele>566.282682</ele>
        <time>2022-03-07T13:55:29.598Z</time>
      </trkpt>
      <trkpt lat="42.50478" lon="24.18752">
        <ele>566.044928</ele>
        <time>2022-03-07T13:55:32.619Z</time>
      </trkpt>
      <trkpt lat="42.50485" lon="24.1876">
        <ele>565.805692</ele>
        <time>2022-03-07T13:55:35.570Z</time>
      </trkpt>
      <trkpt lat="42.50493" lon="24.18768">
        <ele>565.567548</ele>
        <time>2022-03-07T13:55:38.568Z</time>
      </trkpt>
      <trkpt lat="42.50502" lon="24.18778">
        <ele>565.287243</ele>
        <time>2022-03-07T13:55:42.579Z</time>
      </trkpt>
      <trkpt lat="42.50512" lon="24.18784">
        <ele>565.030255</ele>
        <time>2022-03-07T13:55:46.582Z</time>
      </trkpt>
      <trkpt lat="42.50523" lon="24.1879">
        <ele>564.739623</ele>
        <time>2022-03-07T13:55:50.578Z</time>
      </trkpt>
      <trkpt lat="42.50533" lon="24.18794">
        <ele>564.48475</ele>
        <time>2022-03-07T13:55:54.585Z</time>
      </trkpt>
      <trkpt lat="42.50542" lon="24.18799">
        <ele>564.251217</ele>
        <time>2022-03-07T13:55:58.558Z</time>
      </trkpt>
      <trkpt lat="42.50552" lon="24.18807">
        <ele>563.976933</ele>
        <time>2022-03-07T13:56:02.573Z</time>
      </trkpt>
      <trkpt lat="42.50562" lon="24.18802">
        <ele>563.709495</ele>
        <time>2022-03-07T13:56:07.555Z</time>
      </trkpt>
      <trkpt lat="42.50568" lon="24.18791">
        <ele>563.474882</ele>
        <time>2022-03-07T13:56:10.549Z</time>
      </trkpt>
      <trkpt lat="42.50575" lon="24.1878">
        <ele>563.207952</ele>
        <time>2022-03-07T13:56:14.569Z</time>
      </trkpt>
      <trkpt lat="42.50582" lon="24.18769">
        <ele>563.338036</ele>
        <time>2022-03-07T13:56:18.574Z</time>
      </trkpt>
      <trkpt lat="42.50588" lon="24.18756">
        <ele>563.604607</ele>
        <time>2022-03-07T13:56:22.606Z</time>
      </trkpt>
      <trkpt lat="42.50593" lon="24.18743">
        <ele>563.869899</ele>
        <time>2022-03-07T13:56:26.605Z</time>
      </trkpt>
      <trkpt lat="42.50598" lon="24.18731">
        <ele>564.137267</ele>
        <time>2022-03-07T13:56:31.578Z</time>
      </trkpt>
      <trkpt lat="42.50603" lon="24.18719">
        <ele>564.381656</ele>
        <time>2022-03-07T13:56:35.588Z</time>
      </trkpt>
      <trkpt lat="42.50608" lon="24.18707">
        <ele>564.625116</ele>
        <time>2022-03-07T13:56:39.577Z</time>
      </trkpt>
      <trkpt lat="42.50611" lon="24.18694">
        <ele>564.873175</ele>
        <time>2022-03-07T13:56:43.565Z</time>
      </trkpt>
      <trkpt lat="42.50616" lon="24.18681">
        <ele>565.144182</ele>
        <time>2022-03-07T13:56:48.602Z</time>
      </trkpt>
      <trkpt lat="42.50619" lon="24.18668">
        <ele>565.386938</ele>
        <time>2022-03-07T13:56:53.561Z</time>
      </trkpt>
      <trkpt lat="42.50622" lon="24.18654">
        <ele>565.640442</ele>
        <time>2022-03-07T13:56:58.573Z</time>
      </trkpt>
      <trkpt lat="42.50624" lon="24.18641">
        <ele>565.894445</ele>
        <time>2022-03-07T13:57:03.566Z</time>
      </trkpt>
      <trkpt lat="42.50626" lon="24.18628">
        <ele>566.134808</ele>
        <time>2022-03-07T13:57:08.596Z</time>
      </trkpt>
      <trkpt lat="42.5063" lon="24.18615">
        <ele>566.388586</ele>
        <time>2022-03-07T13:57:13.552Z</time>
      </trkpt>
      <trkpt lat="42.50635" lon="24.18603">
        <ele>566.63685</ele>
        <time>2022-03-07T13:57:18.556Z</time>
      </trkpt>
      <trkpt lat="42.50644" lon="24.18594">
        <ele>566.904821</ele>
        <time>2022-03-07T13:57:23.573Z</time>
      </trkpt>
      <trkpt lat="42.50651" lon="24.18587">
        <ele>567.13731</ele>
        <time>2022-03-07T13:57:27.587Z</time>
      </trkpt>
      <trkpt lat="42.50658" lon="24.18579">
        <ele>567.363863</ele>
        <time>2022-03-07T13:57:31.586Z</time>
      </trkpt>
      <trkpt lat="42.50666" lon="24.18569">
        <ele>567.655006</ele>
        <time>2022-03-07T13:57:36.603Z</time>
      </trkpt>
      <trkpt lat="42.50674" lon="24.1856">
        <ele>568.041084</ele>
        <time>2022-03-07T13:57:41.594Z</time>
      </trkpt>
      <trkpt lat="42.50682" lon="24.18553">
        <ele>568.394695</ele>
        <time>2022-03-07T13:57:45.589Z</time>
      </trkpt>
      <trkpt lat="42.50691" lon="24.18546">
        <ele>568.785936</ele>
        <time>2022-03-07T13:57:49.561Z</time>
      </trkpt>
      <trkpt lat="42.50701" lon="24.18541">
        <ele>569.19899</ele>
        <time>2022-03-07T13:57:53.560Z</time>
      </trkpt>
      <trkpt lat="42.50712" lon="24.18537">
        <ele>569.624671</ele>
        <time>2022-03-07T13:57:57.558Z</time>
      </trkpt>
      <trkpt lat="42.50722" lon="24.18533">
        <ele>570.003532</ele>
        <time>2022-03-07T13:58:01.605Z</time>
      </trkpt>
      <trkpt lat="42.50731" lon="24.18529">
        <ele>570.361602</ele>
        <time>2022-03-07T13:58:05.607Z</time>
      </trkpt>
      <trkpt lat="42.50742" lon="24.18523">
        <ele>570.780983</ele>
        <time>2022-03-07T13:58:10.579Z</time>
      </trkpt>
      <trkpt lat="42.50751" lon="24.1852">
        <ele>571.152229</ele>
        <time>2022-03-07T13:58:14.616Z</time>
      </trkpt>
      <trkpt lat="42.50762" lon="24.18518">
        <ele>571.564738</ele>
        <time>2022-03-07T13:58:19.554Z</time>
      </trkpt>
      <trkpt lat="42.50772" lon="24.18513">
        <ele>571.94286</ele>
        <time>2022-03-07T13:58:23.565Z</time>
      </trkpt>
      <trkpt lat="42.50783" lon="24.1851">
        <ele>572.354788</ele>
        <time>2022-03-07T13:58:27.567Z</time>
      </trkpt>
      <trkpt lat="42.50793" lon="24.18505">
        <ele>572.757656</ele>
        <time>2022-03-07T13:58:31.580Z</time>
      </trkpt>
      <trkpt lat="42.50801" lon="24.18501">
        <ele>573.095681</ele>
        <time>2022-03-07T13:58:35.586Z</time>
      </trkpt>
      <trkpt lat="42.50811" lon="24.18496">
        <ele>573.499782</ele>
        <time>2022-03-07T13:58:40.590Z</time>
      </trkpt>
      <trkpt lat="42.50821" lon="24.18492">
        <ele>573.861422</ele>
        <time>2022-03-07T13:58:44.597Z</time>
      </trkpt>
      <trkpt lat="42.5083" lon="24.1849">
        <ele>574.201731</ele>
        <time>2022-03-07T13:58:48.592Z</time>
      </trkpt>
      <trkpt lat="42.50839" lon="24.18486">
        <ele>574.442578</ele>
        <time>2022-03-07T13:58:52.615Z</time>
      </trkpt>
      <trkpt lat="42.50848" lon="24.18481">
        <ele>574.632221</ele>
        <time>2022-03-07T13:58:56.601Z</time>
      </trkpt>
      <trkpt lat="42.50858" lon="24.18476">
        <ele>574.86276</ele>
        <time>2022-03-07T13:59:01.567Z</time>
      </trkpt>
      <trkpt lat="42.50869" lon="24.18473">
        <ele>575.094933</ele>
        <time>2022-03-07T13:59:05.596Z</time>
      </trkpt>
      <trkpt lat="42.5088" lon="24.1847">
        <ele>575.313964</ele>
        <time>2022-03-07T13:59:09.568Z</time>
      </trkpt>
      <trkpt lat="42.5089" lon="24.18467">
        <ele>575.526322</ele>
        <time>2022-03-07T13:59:13.593Z</time>
      </trkpt>
      <trkpt lat="42.509" lon="24.18464">
        <ele>575.737006</ele>
        <time>2022-03-07T13:59:17.572Z</time>
      </trkpt>
      <trkpt lat="42.50909" lon="24.18461">
        <ele>575.935344</ele>
        <time>2022-03-07T13:59:21.577Z</time>
      </trkpt>
      <trkpt lat="42.50918" lon="24.18458">
        <ele>576.121725</ele>
        <time>2022-03-07T13:59:25.583Z</time>
      </trkpt>
      <trkpt lat="42.50928" lon="24.18453">
        <ele>576.336734</ele>
        <time>2022-03-07T13:59:30.587Z</time>
      </trkpt>
      <trkpt lat="42.50938" lon="24.18454">
        <ele>576.54021</ele>
        <time>2022-03-07T13:59:34.598Z</time>
      </trkpt>
      <trkpt lat="42.50947" lon="24.18458">
        <ele>576.733363</ele>
        <time>2022-03-07T13:59:38.580Z</time>
      </trkpt>
      <trkpt lat="42.50957" lon="24.1846">
        <ele>576.948828</ele>
        <time>2022-03-07T13:59:42.581Z</time>
      </trkpt>
      <trkpt lat="42.50966" lon="24.18465">
        <ele>577.141986</ele>
        <time>2022-03-07T13:59:46.585Z</time>
      </trkpt>
      <trkpt lat="42.50976" lon="24.18469">
        <ele>577.345845</ele>
        <time>2022-03-07T13:59:50.571Z</time>
      </trkpt>
      <trkpt lat="42.50984" lon="24.18478">
        <ele>577.571291</ele>
        <time>2022-03-07T13:59:55.558Z</time>
      </trkpt>
      <trkpt lat="42.50995" lon="24.18482">
        <ele>577.800073</ele>
        <time>2022-03-07T14:00:00.614Z</time>
      </trkpt>
      <trkpt lat="42.51004" lon="24.18487">
        <ele>578.011681</ele>
        <time>2022-03-07T14:00:04.606Z</time>
      </trkpt>
      <trkpt lat="42.51013" lon="24.18491">
        <ele>578.429092</ele>
        <time>2022-03-07T14:00:08.605Z</time>
      </trkpt>
      <trkpt lat="42.51023" lon="24.18497">
        <ele>578.904286</ele>
        <time>2022-03-07T14:00:13.628Z</time>
      </trkpt>
      <trkpt lat="42.51032" lon="24.185">
        <ele>579.291502</ele>
        <time>2022-03-07T14:00:17.577Z</time>
      </trkpt>
      <trkpt lat="42.51043" lon="24.18504">
        <ele>579.779415</ele>
        <time>2022-03-07T14:00:22.583Z</time>
      </trkpt>
      <trkpt lat="42.51053" lon="24.18506">
        <ele>580.205129</ele>
        <time>2022-03-07T14:00:26.575Z</time>
      </trkpt>
      <trkpt lat="42.51063" lon="24.18507">
        <ele>580.639537</ele>
        <time>2022-03-07T14:00:30.574Z</time>
      </trkpt>
      <trkpt lat="42.51072" lon="24.18506">
        <ele>581.027048</ele>
        <time>2022-03-07T14:00:34.578Z</time>
      </trkpt>
      <trkpt lat="42.5108" lon="24.18498">
        <ele>581.459643</ele>
        <time>2022-03-07T14:00:39.559Z</time>
      </trkpt>
      <trkpt lat="42.51083" lon="24.18485">
        <ele>581.881254</ele>
        <time>2022-03-07T14:00:45.581Z</time>
      </trkpt>
      <trkpt lat="42.51086" lon="24.18473">
        <ele>582.29643</ele>
        <time>2022-03-07T14:00:51.617Z</time>
      </trkpt>
      <trkpt lat="42.51088" lon="24.18459">
        <ele>582.735497</ele>
        <time>2022-03-07T14:00:57.571Z</time>
      </trkpt>
      <trkpt lat="42.51089" lon="24.18446">
        <ele>583.124853</ele>
        <time>2022-03-07T14:01:02.582Z</time>
      </trkpt>
      <trkpt lat="42.51091" lon="24.18434">
        <ele>583.529174</ele>
        <time>2022-03-07T14:01:07.603Z</time>
      </trkpt>
      <trkpt lat="42.51092" lon="24.18419">
        <ele>583.98444</ele>
        <time>2022-03-07T14:01:13.565Z</time>
      </trkpt>
      <trkpt lat="42.51093" lon="24.18406">
        <ele>584.391958</ele>
        <time>2022-03-07T14:01:18.586Z</time>
      </trkpt>
      <trkpt lat="42.51093" lon="24.18392">
        <ele>584.856576</ele>
        <time>2022-03-07T14:01:23.567Z</time>
      </trkpt>
      <trkpt lat="42.51094" lon="24.18379">
        <ele>585.245913</ele>
        <time>2022-03-07T14:01:27.572Z</time>
      </trkpt>
      <trkpt lat="42.51096" lon="24.18367">
        <ele>585.63368</ele>
        <time>2022-03-07T14:01:31.580Z</time>
      </trkpt>
      <trkpt lat="42.51098" lon="24.18354">
        <ele>585.63368</ele>
        <time>2022-03-07T14:01:35.620Z</time>
      </trkpt>
      <trkpt lat="42.51099" lon="24.18341">
        <ele>585.63368</ele>
        <time>2022-03-07T14:01:39.586Z</time>
      </trkpt>
      <trkpt lat="42.511" lon="24.18328">
        <ele>585.63368</ele>
        <time>2022-03-07T14:01:43.590Z</time>
      </trkpt>
      <trkpt lat="42.51102" lon="24.18314">
        <ele>585.63368</ele>
        <time>2022-03-07T14:01:47.592Z</time>
      </trkpt>
      <trkpt lat="42.51104" lon="24.183">
        <ele>585.63368</ele>
        <time>2022-03-07T14:01:52.586Z</time>
      </trkpt>
      <trkpt lat="42.51105" lon="24.18288">
        <ele>585.63368</ele>
        <time>2022-03-07T14:01:56.578Z</time>
      </trkpt>
      <trkpt lat="42.51106" lon="24.18273">
        <ele>585.63368</ele>
        <time>2022-03-07T14:02:01.572Z</time>
      </trkpt>
      <trkpt lat="42.51106" lon="24.1826">
        <ele>585.63368</ele>
        <time>2022-03-07T14:02:05.576Z</time>
      </trkpt>
      <trkpt lat="42.51107" lon="24.18248">
        <ele>585.63368</ele>
        <time>2022-03-07T14:02:09.611Z</time>
      </trkpt>
      <trkpt lat="42.5111" lon="24.18236">
        <ele>585.63368</ele>
        <time>2022-03-07T14:02:13.594Z</time>
      </trkpt>
      <trkpt lat="42.51111" lon="24.18223">
        <ele>585.63368</ele>
        <time>2022-03-07T14:02:17.591Z</time>
      </trkpt>
      <trkpt lat="42.51114" lon="24.18211">
        <ele>585.63368</ele>
        <time>2022-03-07T14:02:21.578Z</time>
      </trkpt>
      <trkpt lat="42.51122" lon="24.18205">
        <ele>585.63368</ele>
        <time>2022-03-07T14:02:26.547Z</time>
      </trkpt>
      <trkpt lat="42.51131" lon="24.18205">
        <ele>585.63368</ele>
        <time>2022-03-07T14:02:34.568Z</time>
      </trkpt>
      <trkpt lat="42.51138" lon="24.18223">
        <ele>585.63368</ele>
        <time>2022-03-07T14:04:33.571Z</time>
      </trkpt>
      <trkpt lat="42.51134" lon="24.18226">
        <ele>585.63368</ele>
        <time>2022-03-07T14:10:29.135Z</time>
      </trkpt>
    </trkseg>
  </trk>
  <trk>
    <name><![CDATA[Tour d'Europe: étape 613]]></name>
    <extensions>
      <line xmlns="http://www.topografix.com/GPX/gpx_style/0/2">
        <color>FF00FF</color>
        <width>4</width>
      </line>
    </extensions>
    <trkseg>
      <trkpt lat="42.0801" lon="25.1897">
        <ele>193.734324</ele>
        <time>2022-03-03T07:51:04.390Z</time>
      </trkpt>
      <trkpt lat="42.0801" lon="25.18955">
        <ele>193.734324</ele>
        <time>2022-03-03T07:51:05.371Z</time>
      </trkpt>
      <trkpt lat="42.08015" lon="25.18944">
        <ele>193.734324</ele>
        <time>2022-03-03T07:51:10.406Z</time>
      </trkpt>
      <trkpt lat="42.08022" lon="25.18933">
        <ele>193.734324</ele>
        <time>2022-03-03T07:51:14.415Z</time>
      </trkpt>
      <trkpt lat="42.08026" lon="25.18922">
        <ele>193.734324</ele>
        <time>2022-03-03T07:51:17.423Z</time>
      </trkpt>
      <trkpt lat="42.08028" lon="25.18908">
        <ele>193.734324</ele>
        <time>2022-03-03T07:51:21.431Z</time>
      </trkpt>
      <trkpt lat="42.08029" lon="25.18893">
        <ele>193.734324</ele>
        <time>2022-03-03T07:51:26.389Z</time>
      </trkpt>
      <trkpt lat="42.08029" lon="25.18879">
        <ele>193.734324</ele>
        <time>2022-03-03T07:51:31.407Z</time>
      </trkpt>
      <trkpt lat="42.0803" lon="25.18865">
        <ele>193.734324</ele>
        <time>2022-03-03T07:51:36.407Z</time>
      </trkpt>
      <trkpt lat="42.0803" lon="25.18853">
        <ele>193.781762</ele>
        <time>2022-03-03T07:51:40.414Z</time>
      </trkpt>
      <trkpt lat="42.08028" lon="25.18839">
        <ele>193.948148</ele>
        <time>2022-03-03T07:51:45.384Z</time>
      </trkpt>
      <trkpt lat="42.08024" lon="25.18825">
        <ele>194.13066</ele>
        <time>2022-03-03T07:51:53.390Z</time>
      </trkpt>
      <trkpt lat="42.08022" lon="25.18812">
        <ele>194.294043</ele>
        <time>2022-03-03T07:51:59.368Z</time>
      </trkpt>
      <trkpt lat="42.08013" lon="25.18797">
        <ele>194.533051</ele>
        <time>2022-03-03T07:52:29.414Z</time>
      </trkpt>
      <trkpt lat="42.08006" lon="25.18789">
        <ele>194.685413</ele>
        <time>2022-03-03T07:52:33.398Z</time>
      </trkpt>
      <trkpt lat="42.07998" lon="25.1878">
        <ele>194.840243</ele>
        <time>2022-03-03T07:52:37.421Z</time>
      </trkpt>
      <trkpt lat="42.07991" lon="25.1877">
        <ele>195.020117</ele>
        <time>2022-03-03T07:52:41.401Z</time>
      </trkpt>
      <trkpt lat="42.07984" lon="25.18759">
        <ele>195.189777</ele>
        <time>2022-03-03T07:52:45.409Z</time>
      </trkpt>
      <trkpt lat="42.07977" lon="25.18749">
        <ele>195.353362</ele>
        <time>2022-03-03T07:52:49.437Z</time>
      </trkpt>
      <trkpt lat="42.0797" lon="25.18737">
        <ele>195.54341</ele>
        <time>2022-03-03T07:52:53.389Z</time>
      </trkpt>
      <trkpt lat="42.07964" lon="25.18726">
        <ele>195.710923</ele>
        <time>2022-03-03T07:52:57.411Z</time>
      </trkpt>
      <trkpt lat="42.07958" lon="25.18715">
        <ele>195.873831</ele>
        <time>2022-03-03T07:53:01.428Z</time>
      </trkpt>
      <trkpt lat="42.07951" lon="25.18705">
        <ele>196.033049</ele>
        <time>2022-03-03T07:53:05.410Z</time>
      </trkpt>
      <trkpt lat="42.07945" lon="25.18693">
        <ele>196.214924</ele>
        <time>2022-03-03T07:53:09.403Z</time>
      </trkpt>
      <trkpt lat="42.07939" lon="25.18681">
        <ele>196.399016</ele>
        <time>2022-03-03T07:53:13.403Z</time>
      </trkpt>
      <trkpt lat="42.07929" lon="25.18679">
        <ele>196.549301</ele>
        <time>2022-03-03T07:53:17.374Z</time>
      </trkpt>
      <trkpt lat="42.07919" lon="25.18679">
        <ele>196.570281</ele>
        <time>2022-03-03T07:53:20.384Z</time>
      </trkpt>
      <trkpt lat="42.07908" lon="25.18678">
        <ele>196.202919</ele>
        <time>2022-03-03T07:53:23.396Z</time>
      </trkpt>
      <trkpt lat="42.07898" lon="25.1868">
        <ele>195.866337</ele>
        <time>2022-03-03T07:53:26.406Z</time>
      </trkpt>
      <trkpt lat="42.07887" lon="25.18684">
        <ele>195.510562</ele>
        <time>2022-03-03T07:53:29.401Z</time>
      </trkpt>
      <trkpt lat="42.07876" lon="25.18688">
        <ele>195.13472</ele>
        <time>2022-03-03T07:53:33.428Z</time>
      </trkpt>
      <trkpt lat="42.07867" lon="25.18693">
        <ele>194.805046</ele>
        <time>2022-03-03T07:53:37.393Z</time>
      </trkpt>
      <trkpt lat="42.07857" lon="25.18695">
        <ele>194.459593</ele>
        <time>2022-03-03T07:53:40.394Z</time>
      </trkpt>
      <trkpt lat="42.07847" lon="25.18697">
        <ele>194.129964</ele>
        <time>2022-03-03T07:53:43.391Z</time>
      </trkpt>
      <trkpt lat="42.07837" lon="25.187">
        <ele>193.788679</ele>
        <time>2022-03-03T07:53:46.394Z</time>
      </trkpt>
      <trkpt lat="42.07827" lon="25.18703">
        <ele>193.463183</ele>
        <time>2022-03-03T07:53:49.413Z</time>
      </trkpt>
      <trkpt lat="42.07816" lon="25.18705">
        <ele>193.0862</ele>
        <time>2022-03-03T07:53:53.386Z</time>
      </trkpt>
      <trkpt lat="42.07804" lon="25.18709">
        <ele>192.685243</ele>
        <time>2022-03-03T07:53:57.397Z</time>
      </trkpt>
      <trkpt lat="42.07794" lon="25.18712">
        <ele>192.360394</ele>
        <time>2022-03-03T07:54:00.395Z</time>
      </trkpt>
      <trkpt lat="42.07785" lon="25.18713">
        <ele>192.045821</ele>
        <time>2022-03-03T07:54:03.411Z</time>
      </trkpt>
      <trkpt lat="42.07774" lon="25.18715">
        <ele>191.692737</ele>
        <time>2022-03-03T07:54:07.407Z</time>
      </trkpt>
      <trkpt lat="42.07763" lon="25.18718">
        <ele>191.328306</ele>
        <time>2022-03-03T07:54:11.409Z</time>
      </trkpt>
      <trkpt lat="42.07752" lon="25.1872">
        <ele>190.9384</ele>
        <time>2022-03-03T07:54:15.400Z</time>
      </trkpt>
      <trkpt lat="42.07741" lon="25.18721">
        <ele>190.819654</ele>
        <time>2022-03-03T07:54:19.396Z</time>
      </trkpt>
      <trkpt lat="42.07731" lon="25.18724">
        <ele>191.019799</ele>
        <time>2022-03-03T07:54:23.420Z</time>
      </trkpt>
      <trkpt lat="42.07721" lon="25.18728">
        <ele>191.232078</ele>
        <time>2022-03-03T07:54:27.393Z</time>
      </trkpt>
      <trkpt lat="42.07712" lon="25.18731">
        <ele>191.425201</ele>
        <time>2022-03-03T07:54:31.407Z</time>
      </trkpt>
      <trkpt lat="42.077" lon="25.18733">
        <ele>191.667049</ele>
        <time>2022-03-03T07:54:35.392Z</time>
      </trkpt>
      <trkpt lat="42.07691" lon="25.18736">
        <ele>191.856077</ele>
        <time>2022-03-03T07:54:38.410Z</time>
      </trkpt>
      <trkpt lat="42.07682" lon="25.18737">
        <ele>192.042743</ele>
        <time>2022-03-03T07:54:41.437Z</time>
      </trkpt>
      <trkpt lat="42.07673" lon="25.18738">
        <ele>192.233836</ele>
        <time>2022-03-03T07:54:44.402Z</time>
      </trkpt>
      <trkpt lat="42.07663" lon="25.1874">
        <ele>192.428937</ele>
        <time>2022-03-03T07:54:47.507Z</time>
      </trkpt>
      <trkpt lat="42.07652" lon="25.18744">
        <ele>192.66264</ele>
        <time>2022-03-03T07:54:51.420Z</time>
      </trkpt>
      <trkpt lat="42.07642" lon="25.18745">
        <ele>192.874952</ele>
        <time>2022-03-03T07:54:55.427Z</time>
      </trkpt>
      <trkpt lat="42.07632" lon="25.18749">
        <ele>193.067159</ele>
        <time>2022-03-03T07:54:59.473Z</time>
      </trkpt>
      <trkpt lat="42.07623" lon="25.18751">
        <ele>193.255375</ele>
        <time>2022-03-03T07:55:02.395Z</time>
      </trkpt>
      <trkpt lat="42.07615" lon="25.18756">
        <ele>193.439914</ele>
        <time>2022-03-03T07:55:05.375Z</time>
      </trkpt>
      <trkpt lat="42.07606" lon="25.18761">
        <ele>193.624245</ele>
        <time>2022-03-03T07:55:08.414Z</time>
      </trkpt>
      <trkpt lat="42.07595" lon="25.18763">
        <ele>193.850076</ele>
        <time>2022-03-03T07:55:12.400Z</time>
      </trkpt>
      <trkpt lat="42.07586" lon="25.18764">
        <ele>194.037014</ele>
        <time>2022-03-03T07:55:15.385Z</time>
      </trkpt>
      <trkpt lat="42.07577" lon="25.18766">
        <ele>194.223244</ele>
        <time>2022-03-03T07:55:18.393Z</time>
      </trkpt>
      <trkpt lat="42.07566" lon="25.1877">
        <ele>194.440574</ele>
        <time>2022-03-03T07:55:22.395Z</time>
      </trkpt>
      <trkpt lat="42.07556" lon="25.18772">
        <ele>194.628484</ele>
        <time>2022-03-03T07:55:26.413Z</time>
      </trkpt>
      <trkpt lat="42.07546" lon="25.18774">
        <ele>194.811901</ele>
        <time>2022-03-03T07:55:30.411Z</time>
      </trkpt>
      <trkpt lat="42.07534" lon="25.18775">
        <ele>195.025129</ele>
        <time>2022-03-03T07:55:34.397Z</time>
      </trkpt>
      <trkpt lat="42.07522" lon="25.18777">
        <ele>195.23558</ele>
        <time>2022-03-03T07:55:38.407Z</time>
      </trkpt>
      <trkpt lat="42.07511" lon="25.1878">
        <ele>195.440679</ele>
        <time>2022-03-03T07:55:42.418Z</time>
      </trkpt>
      <trkpt lat="42.07501" lon="25.18783">
        <ele>195.617819</ele>
        <time>2022-03-03T07:55:46.403Z</time>
      </trkpt>
      <trkpt lat="42.07492" lon="25.18784">
        <ele>195.789058</ele>
        <time>2022-03-03T07:55:50.388Z</time>
      </trkpt>
      <trkpt lat="42.0748" lon="25.18784">
        <ele>195.988966</ele>
        <time>2022-03-03T07:55:54.405Z</time>
      </trkpt>
      <trkpt lat="42.07472" lon="25.18776">
        <ele>196.173226</ele>
        <time>2022-03-03T07:55:57.386Z</time>
      </trkpt>
      <trkpt lat="42.07464" lon="25.18766">
        <ele>196.36896</ele>
        <time>2022-03-03T07:56:00.383Z</time>
      </trkpt>
      <trkpt lat="42.07456" lon="25.18756">
        <ele>196.556532</ele>
        <time>2022-03-03T07:56:03.406Z</time>
      </trkpt>
      <trkpt lat="42.07448" lon="25.18745">
        <ele>196.764477</ele>
        <time>2022-03-03T07:56:07.382Z</time>
      </trkpt>
      <trkpt lat="42.0744" lon="25.18736">
        <ele>196.947244</ele>
        <time>2022-03-03T07:56:10.390Z</time>
      </trkpt>
      <trkpt lat="42.07431" lon="25.18726">
        <ele>197.159778</ele>
        <time>2022-03-03T07:56:13.379Z</time>
      </trkpt>
      <trkpt lat="42.07421" lon="25.18717">
        <ele>197.367717</ele>
        <time>2022-03-03T07:56:16.410Z</time>
      </trkpt>
      <trkpt lat="42.07412" lon="25.18707">
        <ele>197.57742</ele>
        <time>2022-03-03T07:56:19.394Z</time>
      </trkpt>
      <trkpt lat="42.07403" lon="25.18698">
        <ele>197.574222</ele>
        <time>2022-03-03T07:56:22.393Z</time>
      </trkpt>
      <trkpt lat="42.07395" lon="25.18689">
        <ele>197.567546</ele>
        <time>2022-03-03T07:56:25.371Z</time>
      </trkpt>
      <trkpt lat="42.07386" lon="25.1868">
        <ele>197.560879</ele>
        <time>2022-03-03T07:56:28.395Z</time>
      </trkpt>
      <trkpt lat="42.07379" lon="25.18671">
        <ele>197.554731</ele>
        <time>2022-03-03T07:56:31.399Z</time>
      </trkpt>
      <trkpt lat="42.07371" lon="25.18662">
        <ele>197.548446</ele>
        <time>2022-03-03T07:56:34.381Z</time>
      </trkpt>
      <trkpt lat="42.07364" lon="25.18653">
        <ele>197.542649</ele>
        <time>2022-03-03T07:56:37.383Z</time>
      </trkpt>
      <trkpt lat="42.07356" lon="25.18645">
        <ele>197.536328</ele>
        <time>2022-03-03T07:56:41.382Z</time>
      </trkpt>
      <trkpt lat="42.07349" lon="25.18636">
        <ele>197.530313</ele>
        <time>2022-03-03T07:56:44.380Z</time>
      </trkpt>
      <trkpt lat="42.07341" lon="25.18628">
        <ele>197.52444</ele>
        <time>2022-03-03T07:56:47.386Z</time>
      </trkpt>
      <trkpt lat="42.07332" lon="25.18618">
        <ele>197.517198</ele>
        <time>2022-03-03T07:56:51.386Z</time>
      </trkpt>
      <trkpt lat="42.07323" lon="25.18608">
        <ele>197.510139</ele>
        <time>2022-03-03T07:56:55.392Z</time>
      </trkpt>
      <trkpt lat="42.07315" lon="25.18598">
        <ele>197.50324</ele>
        <time>2022-03-03T07:56:59.387Z</time>
      </trkpt>
      <trkpt lat="42.07306" lon="25.18589">
        <ele>197.496228</ele>
        <time>2022-03-03T07:57:03.394Z</time>
      </trkpt>
      <trkpt lat="42.07299" lon="25.18581">
        <ele>197.490567</ele>
        <time>2022-03-03T07:57:06.391Z</time>
      </trkpt>
      <trkpt lat="42.07291" lon="25.18573">
        <ele>197.484599</ele>
        <time>2022-03-03T07:57:09.393Z</time>
      </trkpt>
      <trkpt lat="42.07282" lon="25.18563">
        <ele>197.477347</ele>
        <time>2022-03-03T07:57:13.418Z</time>
      </trkpt>
      <trkpt lat="42.07273" lon="25.18552">
        <ele>197.464739</ele>
        <time>2022-03-03T07:57:17.398Z</time>
      </trkpt>
      <trkpt lat="42.07265" lon="25.18544">
        <ele>197.385761</ele>
        <time>2022-03-03T07:57:20.400Z</time>
      </trkpt>
      <trkpt lat="42.07258" lon="25.18535">
        <ele>197.308771</ele>
        <time>2022-03-03T07:57:23.393Z</time>
      </trkpt>
      <trkpt lat="42.07251" lon="25.18526">
        <ele>197.229017</ele>
        <time>2022-03-03T07:57:26.397Z</time>
      </trkpt>
      <trkpt lat="42.07244" lon="25.18517">
        <ele>197.153851</ele>
        <time>2022-03-03T07:57:29.432Z</time>
      </trkpt>
      <trkpt lat="42.07238" lon="25.18506">
        <ele>197.074742</ele>
        <time>2022-03-03T07:57:32.390Z</time>
      </trkpt>
      <trkpt lat="42.07231" lon="25.18493">
        <ele>196.980853</ele>
        <time>2022-03-03T07:57:36.382Z</time>
      </trkpt>
      <trkpt lat="42.07225" lon="25.18481">
        <ele>196.891724</ele>
        <time>2022-03-03T07:57:40.390Z</time>
      </trkpt>
      <trkpt lat="42.07218" lon="25.1847">
        <ele>196.805387</ele>
        <time>2022-03-03T07:57:44.381Z</time>
      </trkpt>
      <trkpt lat="42.07212" lon="25.18457">
        <ele>196.713791</ele>
        <time>2022-03-03T07:57:48.393Z</time>
      </trkpt>
      <trkpt lat="42.07206" lon="25.18447">
        <ele>196.641828</ele>
        <time>2022-03-03T07:57:51.432Z</time>
      </trkpt>
      <trkpt lat="42.07199" lon="25.18435">
        <ele>196.546935</ele>
        <time>2022-03-03T07:57:55.394Z</time>
      </trkpt>
      <trkpt lat="42.07191" lon="25.18423">
        <ele>196.451891</ele>
        <time>2022-03-03T07:57:59.390Z</time>
      </trkpt>
      <trkpt lat="42.07184" lon="25.1841">
        <ele>196.356557</ele>
        <time>2022-03-03T07:58:03.371Z</time>
      </trkpt>
      <trkpt lat="42.07177" lon="25.18398">
        <ele>196.263587</ele>
        <time>2022-03-03T07:58:07.382Z</time>
      </trkpt>
      <trkpt lat="42.07171" lon="25.18388">
        <ele>196.189103</ele>
        <time>2022-03-03T07:58:10.407Z</time>
      </trkpt>
      <trkpt lat="42.07165" lon="25.18378">
        <ele>196.116176</ele>
        <time>2022-03-03T07:58:13.389Z</time>
      </trkpt>
      <trkpt lat="42.0716" lon="25.18367">
        <ele>196.039334</ele>
        <time>2022-03-03T07:58:16.387Z</time>
      </trkpt>
      <trkpt lat="42.07156" lon="25.18355">
        <ele>196.130127</ele>
        <time>2022-03-03T07:58:19.398Z</time>
      </trkpt>
      <trkpt lat="42.07151" lon="25.18342">
        <ele>196.252945</ele>
        <time>2022-03-03T07:58:22.446Z</time>
      </trkpt>
      <trkpt lat="42.07147" lon="25.18329">
        <ele>196.374665</ele>
        <time>2022-03-03T07:58:25.402Z</time>
      </trkpt>
      <trkpt lat="42.07143" lon="25.18315">
        <ele>196.498189</ele>
        <time>2022-03-03T07:58:28.403Z</time>
      </trkpt>
      <trkpt lat="42.07139" lon="25.18301">
        <ele>196.620936</ele>
        <time>2022-03-03T07:58:31.423Z</time>
      </trkpt>
      <trkpt lat="42.07136" lon="25.18288">
        <ele>196.738032</ele>
        <time>2022-03-03T07:58:34.384Z</time>
      </trkpt>
      <trkpt lat="42.07134" lon="25.18275">
        <ele>196.849294</ele>
        <time>2022-03-03T07:58:37.422Z</time>
      </trkpt>
      <trkpt lat="42.07131" lon="25.18262">
        <ele>196.957693</ele>
        <time>2022-03-03T07:58:40.395Z</time>
      </trkpt>
      <trkpt lat="42.07129" lon="25.18249">
        <ele>197.068167</ele>
        <time>2022-03-03T07:58:43.382Z</time>
      </trkpt>
      <trkpt lat="42.07127" lon="25.18236">
        <ele>197.18335</ele>
        <time>2022-03-03T07:58:46.419Z</time>
      </trkpt>
      <trkpt lat="42.07125" lon="25.18223">
        <ele>197.293427</ele>
        <time>2022-03-03T07:58:49.426Z</time>
      </trkpt>
      <trkpt lat="42.07122" lon="25.1821">
        <ele>197.40581</ele>
        <time>2022-03-03T07:58:52.378Z</time>
      </trkpt>
      <trkpt lat="42.07119" lon="25.18197">
        <ele>197.52299</ele>
        <time>2022-03-03T07:58:55.386Z</time>
      </trkpt>
      <trkpt lat="42.07116" lon="25.18183">
        <ele>197.646259</ele>
        <time>2022-03-03T07:58:58.380Z</time>
      </trkpt>
      <trkpt lat="42.07112" lon="25.18169">
        <ele>197.765559</ele>
        <time>2022-03-03T07:59:01.374Z</time>
      </trkpt>
      <trkpt lat="42.0711" lon="25.18156">
        <ele>197.873797</ele>
        <time>2022-03-03T07:59:04.382Z</time>
      </trkpt>
      <trkpt lat="42.07105" lon="25.18143">
        <ele>197.993396</ele>
        <time>2022-03-03T07:59:07.383Z</time>
      </trkpt>
      <trkpt lat="42.07099" lon="25.18131">
        <ele>198.198946</ele>
        <time>2022-03-03T07:59:10.373Z</time>
      </trkpt>
      <trkpt lat="42.07093" lon="25.18119">
        <ele>198.462707</ele>
        <time>2022-03-03T07:59:13.390Z</time>
      </trkpt>
      <trkpt lat="42.07086" lon="25.18109">
        <ele>198.721247</ele>
        <time>2022-03-03T07:59:16.391Z</time>
      </trkpt>
      <trkpt lat="42.07079" lon="25.18099">
        <ele>198.973587</ele>
        <time>2022-03-03T07:59:19.415Z</time>
      </trkpt>
      <trkpt lat="42.07072" lon="25.18088">
        <ele>199.255469</ele>
        <time>2022-03-03T07:59:22.403Z</time>
      </trkpt>
      <trkpt lat="42.07064" lon="25.18078">
        <ele>199.528475</ele>
        <time>2022-03-03T07:59:25.407Z</time>
      </trkpt>
      <trkpt lat="42.07056" lon="25.18067">
        <ele>199.803247</ele>
        <time>2022-03-03T07:59:28.374Z</time>
      </trkpt>
      <trkpt lat="42.07049" lon="25.18057">
        <ele>200.053189</ele>
        <time>2022-03-03T07:59:31.386Z</time>
      </trkpt>
      <trkpt lat="42.07043" lon="25.18046">
        <ele>200.310335</ele>
        <time>2022-03-03T07:59:34.385Z</time>
      </trkpt>
      <trkpt lat="42.07035" lon="25.18035">
        <ele>200.601602</ele>
        <time>2022-03-03T07:59:38.394Z</time>
      </trkpt>
      <trkpt lat="42.07028" lon="25.18022">
        <ele>200.892488</ele>
        <time>2022-03-03T07:59:42.407Z</time>
      </trkpt>
      <trkpt lat="42.07022" lon="25.18013">
        <ele>201.125548</ele>
        <time>2022-03-03T07:59:45.390Z</time>
      </trkpt>
      <trkpt lat="42.07015" lon="25.18004">
        <ele>201.360528</ele>
        <time>2022-03-03T07:59:48.386Z</time>
      </trkpt>
      <trkpt lat="42.07009" lon="25.17994">
        <ele>201.60299</ele>
        <time>2022-03-03T07:59:51.404Z</time>
      </trkpt>
      <trkpt lat="42.07002" lon="25.17984">
        <ele>201.85267</ele>
        <time>2022-03-03T07:59:54.400Z</time>
      </trkpt>
      <trkpt lat="42.06995" lon="25.17974">
        <ele>202.106751</ele>
        <time>2022-03-03T07:59:57.393Z</time>
      </trkpt>
      <trkpt lat="42.06987" lon="25.17963">
        <ele>202.381654</ele>
        <time>2022-03-03T08:00:00.389Z</time>
      </trkpt>
      <trkpt lat="42.06979" lon="25.17953">
        <ele>202.649899</ele>
        <time>2022-03-03T08:00:03.411Z</time>
      </trkpt>
      <trkpt lat="42.06972" lon="25.17942">
        <ele>202.889625</ele>
        <time>2022-03-03T08:00:06.426Z</time>
      </trkpt>
      <trkpt lat="42.06964" lon="25.17931">
        <ele>203.132327</ele>
        <time>2022-03-03T08:00:09.384Z</time>
      </trkpt>
      <trkpt lat="42.06957" lon="25.17921">
        <ele>203.36008</ele>
        <time>2022-03-03T08:00:12.392Z</time>
      </trkpt>
      <trkpt lat="42.06949" lon="25.1791">
        <ele>203.599682</ele>
        <time>2022-03-03T08:00:15.402Z</time>
      </trkpt>
      <trkpt lat="42.06942" lon="25.17901">
        <ele>203.820941</ele>
        <time>2022-03-03T08:00:18.419Z</time>
      </trkpt>
      <trkpt lat="42.06936" lon="25.17891">
        <ele>204.02723</ele>
        <time>2022-03-03T08:00:21.344Z</time>
      </trkpt>
      <trkpt lat="42.0693" lon="25.17881">
        <ele>204.226737</ele>
        <time>2022-03-03T08:00:24.382Z</time>
      </trkpt>
      <trkpt lat="42.06922" lon="25.17869">
        <ele>204.497294</ele>
        <time>2022-03-03T08:00:28.398Z</time>
      </trkpt>
      <trkpt lat="42.06915" lon="25.17859">
        <ele>204.707625</ele>
        <time>2022-03-03T08:00:31.411Z</time>
      </trkpt>
      <trkpt lat="42.06908" lon="25.1785">
        <ele>204.919002</ele>
        <time>2022-03-03T08:00:34.388Z</time>
      </trkpt>
      <trkpt lat="42.06902" lon="25.1784">
        <ele>205.125037</ele>
        <time>2022-03-03T08:00:37.373Z</time>
      </trkpt>
      <trkpt lat="42.06895" lon="25.17831">
        <ele>205.346296</ele>
        <time>2022-03-03T08:00:40.388Z</time>
      </trkpt>
      <trkpt lat="42.06887" lon="25.17821">
        <ele>205.568888</ele>
        <time>2022-03-03T08:00:43.391Z</time>
      </trkpt>
      <trkpt lat="42.06881" lon="25.17812">
        <ele>205.765758</ele>
        <time>2022-03-03T08:00:46.464Z</time>
      </trkpt>
      <trkpt lat="42.06874" lon="25.17803">
        <ele>205.985126</ele>
        <time>2022-03-03T08:00:49.387Z</time>
      </trkpt>
      <trkpt lat="42.06867" lon="25.17792">
        <ele>206.211103</ele>
        <time>2022-03-03T08:00:52.394Z</time>
      </trkpt>
      <trkpt lat="42.0686" lon="25.17783">
        <ele>206.417839</ele>
        <time>2022-03-03T08:00:55.387Z</time>
      </trkpt>
      <trkpt lat="42.06854" lon="25.17773">
        <ele>206.40911</ele>
        <time>2022-03-03T08:00:58.402Z</time>
      </trkpt>
      <trkpt lat="42.06847" lon="25.17762">
        <ele>206.340733</ele>
        <time>2022-03-03T08:01:02.388Z</time>
      </trkpt>
      <trkpt lat="42.06841" lon="25.17751">
        <ele>206.273918</ele>
        <time>2022-03-03T08:01:06.386Z</time>
      </trkpt>
      <trkpt lat="42.06833" lon="25.17741">
        <ele>206.203196</ele>
        <time>2022-03-03T08:01:10.386Z</time>
      </trkpt>
      <trkpt lat="42.06827" lon="25.17732">
        <ele>206.14628</ele>
        <time>2022-03-03T08:01:13.382Z</time>
      </trkpt>
      <trkpt lat="42.0682" lon="25.17722">
        <ele>206.086365</ele>
        <time>2022-03-03T08:01:16.404Z</time>
      </trkpt>
      <trkpt lat="42.06814" lon="25.17713">
        <ele>206.027219</ele>
        <time>2022-03-03T08:01:19.427Z</time>
      </trkpt>
      <trkpt lat="42.06806" lon="25.17701">
        <ele>205.953776</ele>
        <time>2022-03-03T08:01:23.393Z</time>
      </trkpt>
      <trkpt lat="42.06799" lon="25.17691">
        <ele>205.890516</ele>
        <time>2022-03-03T08:01:27.400Z</time>
      </trkpt>
      <trkpt lat="42.06794" lon="25.17681">
        <ele>205.833831</ele>
        <time>2022-03-03T08:01:31.398Z</time>
      </trkpt>
      <trkpt lat="42.06786" lon="25.1767">
        <ele>205.762689</ele>
        <time>2022-03-03T08:01:36.387Z</time>
      </trkpt>
      <trkpt lat="42.06778" lon="25.17661">
        <ele>205.697295</ele>
        <time>2022-03-03T08:01:40.366Z</time>
      </trkpt>
      <trkpt lat="42.06771" lon="25.17651">
        <ele>205.630129</ele>
        <time>2022-03-03T08:01:44.386Z</time>
      </trkpt>
      <trkpt lat="42.06763" lon="25.17641">
        <ele>205.566395</ele>
        <time>2022-03-03T08:01:48.384Z</time>
      </trkpt>
      <trkpt lat="42.06756" lon="25.17631">
        <ele>205.500407</ele>
        <time>2022-03-03T08:01:52.397Z</time>
      </trkpt>
      <trkpt lat="42.0675" lon="25.1762">
        <ele>205.438904</ele>
        <time>2022-03-03T08:01:56.395Z</time>
      </trkpt>
      <trkpt lat="42.06744" lon="25.1761">
        <ele>205.37541</ele>
        <time>2022-03-03T08:02:00.392Z</time>
      </trkpt>
      <trkpt lat="42.06737" lon="25.17599">
        <ele>205.374807</ele>
        <time>2022-03-03T08:02:04.385Z</time>
      </trkpt>
      <trkpt lat="42.06731" lon="25.1759">
        <ele>205.597753</ele>
        <time>2022-03-03T08:02:08.440Z</time>
      </trkpt>
      <trkpt lat="42.06724" lon="25.17579">
        <ele>205.849035</ele>
        <time>2022-03-03T08:02:12.394Z</time>
      </trkpt>
      <trkpt lat="42.06717" lon="25.17567">
        <ele>206.103654</ele>
        <time>2022-03-03T08:02:16.392Z</time>
      </trkpt>
      <trkpt lat="42.06711" lon="25.17557">
        <ele>206.330468</ele>
        <time>2022-03-03T08:02:20.403Z</time>
      </trkpt>
      <trkpt lat="42.06705" lon="25.17547">
        <ele>206.55879</ele>
        <time>2022-03-03T08:02:24.380Z</time>
      </trkpt>
      <trkpt lat="42.067" lon="25.17537">
        <ele>206.770356</ele>
        <time>2022-03-03T08:02:28.403Z</time>
      </trkpt>
      <trkpt lat="42.06694" lon="25.17527">
        <ele>206.981844</ele>
        <time>2022-03-03T08:02:32.394Z</time>
      </trkpt>
      <trkpt lat="42.06689" lon="25.17517">
        <ele>207.206047</ele>
        <time>2022-03-03T08:02:36.398Z</time>
      </trkpt>
      <trkpt lat="42.06684" lon="25.17506">
        <ele>207.421893</ele>
        <time>2022-03-03T08:02:40.390Z</time>
      </trkpt>
      <trkpt lat="42.06677" lon="25.17494">
        <ele>207.675346</ele>
        <time>2022-03-03T08:02:45.392Z</time>
      </trkpt>
      <trkpt lat="42.0667" lon="25.17483">
        <ele>207.931301</ele>
        <time>2022-03-03T08:02:50.404Z</time>
      </trkpt>
      <trkpt lat="42.06664" lon="25.17471">
        <ele>208.183323</ele>
        <time>2022-03-03T08:02:55.382Z</time>
      </trkpt>
      <trkpt lat="42.06658" lon="25.17458">
        <ele>208.445273</ele>
        <time>2022-03-03T08:03:00.423Z</time>
      </trkpt>
      <trkpt lat="42.06654" lon="25.17447">
        <ele>208.671503</ele>
        <time>2022-03-03T08:03:04.382Z</time>
      </trkpt>
      <trkpt lat="42.06649" lon="25.17435">
        <ele>208.908767</ele>
        <time>2022-03-03T08:03:08.415Z</time>
      </trkpt>
      <trkpt lat="42.06643" lon="25.17424">
        <ele>209.143984</ele>
        <time>2022-03-03T08:03:12.400Z</time>
      </trkpt>
      <trkpt lat="42.06638" lon="25.17412">
        <ele>209.382975</ele>
        <time>2022-03-03T08:03:16.393Z</time>
      </trkpt>
      <trkpt lat="42.06632" lon="25.17401">
        <ele>209.546522</ele>
        <time>2022-03-03T08:03:20.390Z</time>
      </trkpt>
      <trkpt lat="42.06627" lon="25.1739">
        <ele>209.606785</ele>
        <time>2022-03-03T08:03:24.383Z</time>
      </trkpt>
      <trkpt lat="42.06622" lon="25.17379">
        <ele>209.666364</ele>
        <time>2022-03-03T08:03:28.407Z</time>
      </trkpt>
      <trkpt lat="42.06616" lon="25.17367">
        <ele>209.732406</ele>
        <time>2022-03-03T08:03:32.393Z</time>
      </trkpt>
      <trkpt lat="42.0661" lon="25.17355">
        <ele>209.800963</ele>
        <time>2022-03-03T08:03:36.408Z</time>
      </trkpt>
      <trkpt lat="42.06605" lon="25.17343">
        <ele>209.86879</ele>
        <time>2022-03-03T08:03:40.384Z</time>
      </trkpt>
      <trkpt lat="42.066" lon="25.17331">
        <ele>209.930346</ele>
        <time>2022-03-03T08:03:44.373Z</time>
      </trkpt>
      <trkpt lat="42.06594" lon="25.17319">
        <ele>209.999634</ele>
        <time>2022-03-03T08:03:48.378Z</time>
      </trkpt>
      <trkpt lat="42.06587" lon="25.17306">
        <ele>210.071508</ele>
        <time>2022-03-03T08:03:52.404Z</time>
      </trkpt>
      <trkpt lat="42.06582" lon="25.17294">
        <ele>210.137947</ele>
        <time>2022-03-03T08:03:56.390Z</time>
      </trkpt>
      <trkpt lat="42.06576" lon="25.17281">
        <ele>210.205906</ele>
        <time>2022-03-03T08:04:00.386Z</time>
      </trkpt>
      <trkpt lat="42.06571" lon="25.17269">
        <ele>210.272707</ele>
        <time>2022-03-03T08:04:04.423Z</time>
      </trkpt>
      <trkpt lat="42.06566" lon="25.17255">
        <ele>210.345615</ele>
        <time>2022-03-03T08:04:08.388Z</time>
      </trkpt>
      <trkpt lat="42.06561" lon="25.17244">
        <ele>210.404207</ele>
        <time>2022-03-03T08:04:11.388Z</time>
      </trkpt>
      <trkpt lat="42.06556" lon="25.17234">
        <ele>210.460881</ele>
        <time>2022-03-03T08:04:14.384Z</time>
      </trkpt>
      <trkpt lat="42.0655" lon="25.17221">
        <ele>210.532135</ele>
        <time>2022-03-03T08:04:18.404Z</time>
      </trkpt>
      <trkpt lat="42.06544" lon="25.17207">
        <ele>210.604181</ele>
        <time>2022-03-03T08:04:22.388Z</time>
      </trkpt>
      <trkpt lat="42.06538" lon="25.17195">
        <ele>210.67923</ele>
        <time>2022-03-03T08:04:26.373Z</time>
      </trkpt>
      <trkpt lat="42.06532" lon="25.17182">
        <ele>210.759823</ele>
        <time>2022-03-03T08:04:30.387Z</time>
      </trkpt>
      <trkpt lat="42.06527" lon="25.17169">
        <ele>210.837443</ele>
        <time>2022-03-03T08:04:34.379Z</time>
      </trkpt>
      <trkpt lat="42.06522" lon="25.17155">
        <ele>210.92215</ele>
        <time>2022-03-03T08:04:38.391Z</time>
      </trkpt>
      <trkpt lat="42.06515" lon="25.17143">
        <ele>211.001056</ele>
        <time>2022-03-03T08:04:42.391Z</time>
      </trkpt>
      <trkpt lat="42.0651" lon="25.17132">
        <ele>211.075443</ele>
        <time>2022-03-03T08:04:46.371Z</time>
      </trkpt>
      <trkpt lat="42.06505" lon="25.17119">
        <ele>211.1527</ele>
        <time>2022-03-03T08:04:50.382Z</time>
      </trkpt>
      <trkpt lat="42.065" lon="25.17107">
        <ele>211.228418</ele>
        <time>2022-03-03T08:04:54.426Z</time>
      </trkpt>
      <trkpt lat="42.06495" lon="25.17094">
        <ele>211.306856</ele>
        <time>2022-03-03T08:04:58.402Z</time>
      </trkpt>
      <trkpt lat="42.06489" lon="25.17081">
        <ele>211.389182</ele>
        <time>2022-03-03T08:05:02.398Z</time>
      </trkpt>
      <trkpt lat="42.06485" lon="25.1707">
        <ele>211.454548</ele>
        <time>2022-03-03T08:05:05.386Z</time>
      </trkpt>
      <trkpt lat="42.06479" lon="25.17057">
        <ele>211.535702</ele>
        <time>2022-03-03T08:05:09.391Z</time>
      </trkpt>
      <trkpt lat="42.06474" lon="25.17045">
        <ele>211.614838</ele>
        <time>2022-03-03T08:05:13.403Z</time>
      </trkpt>
      <trkpt lat="42.06468" lon="25.17033">
        <ele>211.689852</ele>
        <time>2022-03-03T08:05:17.426Z</time>
      </trkpt>
      <trkpt lat="42.06462" lon="25.17022">
        <ele>211.763782</ele>
        <time>2022-03-03T08:05:21.400Z</time>
      </trkpt>
      <trkpt lat="42.06456" lon="25.17009">
        <ele>211.846821</ele>
        <time>2022-03-03T08:05:25.408Z</time>
      </trkpt>
      <trkpt lat="42.0645" lon="25.16995">
        <ele>211.930478</ele>
        <time>2022-03-03T08:05:29.373Z</time>
      </trkpt>
      <trkpt lat="42.06445" lon="25.16982">
        <ele>212.117778</ele>
        <time>2022-03-03T08:05:33.402Z</time>
      </trkpt>
      <trkpt lat="42.0644" lon="25.1697">
        <ele>212.340905</ele>
        <time>2022-03-03T08:05:37.416Z</time>
      </trkpt>
      <trkpt lat="42.06434" lon="25.16958">
        <ele>212.567578</ele>
        <time>2022-03-03T08:05:41.400Z</time>
      </trkpt>
      <trkpt lat="42.06428" lon="25.16946">
        <ele>212.794453</ele>
        <time>2022-03-03T08:05:45.401Z</time>
      </trkpt>
      <trkpt lat="42.06423" lon="25.16934">
        <ele>213.016367</ele>
        <time>2022-03-03T08:05:49.390Z</time>
      </trkpt>
      <trkpt lat="42.06417" lon="25.16921">
        <ele>213.264718</ele>
        <time>2022-03-03T08:05:53.374Z</time>
      </trkpt>
      <trkpt lat="42.06411" lon="25.16909">
        <ele>213.495059</ele>
        <time>2022-03-03T08:05:57.391Z</time>
      </trkpt>
      <trkpt lat="42.06406" lon="25.16897">
        <ele>213.712313</ele>
        <time>2022-03-03T08:06:01.431Z</time>
      </trkpt>
      <trkpt lat="42.064" lon="25.16885">
        <ele>213.93152</ele>
        <time>2022-03-03T08:06:05.380Z</time>
      </trkpt>
      <trkpt lat="42.06395" lon="25.16874">
        <ele>214.144412</ele>
        <time>2022-03-03T08:06:09.392Z</time>
      </trkpt>
      <trkpt lat="42.06389" lon="25.16863">
        <ele>214.356636</ele>
        <time>2022-03-03T08:06:13.391Z</time>
      </trkpt>
      <trkpt lat="42.06383" lon="25.16852">
        <ele>214.577758</ele>
        <time>2022-03-03T08:06:17.384Z</time>
      </trkpt>
      <trkpt lat="42.06377" lon="25.16841">
        <ele>214.796392</ele>
        <time>2022-03-03T08:06:21.404Z</time>
      </trkpt>
      <trkpt lat="42.0637" lon="25.16831">
        <ele>215.005076</ele>
        <time>2022-03-03T08:06:25.389Z</time>
      </trkpt>
      <trkpt lat="42.06364" lon="25.1682">
        <ele>215.218431</ele>
        <time>2022-03-03T08:06:29.388Z</time>
      </trkpt>
      <trkpt lat="42.06358" lon="25.1681">
        <ele>215.435727</ele>
        <time>2022-03-03T08:06:33.403Z</time>
      </trkpt>
      <trkpt lat="42.06351" lon="25.16799">
        <ele>215.668679</ele>
        <time>2022-03-03T08:06:37.388Z</time>
      </trkpt>
      <trkpt lat="42.06345" lon="25.16789">
        <ele>215.841217</ele>
        <time>2022-03-03T08:06:41.391Z</time>
      </trkpt>
      <trkpt lat="42.06338" lon="25.16777">
        <ele>215.963496</ele>
        <time>2022-03-03T08:06:45.428Z</time>
      </trkpt>
      <trkpt lat="42.0633" lon="25.16765">
        <ele>216.080786</ele>
        <time>2022-03-03T08:06:49.384Z</time>
      </trkpt>
      <trkpt lat="42.06323" lon="25.16755">
        <ele>216.19029</ele>
        <time>2022-03-03T08:06:53.390Z</time>
      </trkpt>
      <trkpt lat="42.06317" lon="25.16744">
        <ele>216.296484</ele>
        <time>2022-03-03T08:06:57.398Z</time>
      </trkpt>
      <trkpt lat="42.0631" lon="25.16733">
        <ele>216.407751</ele>
        <time>2022-03-03T08:07:01.379Z</time>
      </trkpt>
      <trkpt lat="42.06303" lon="25.16722">
        <ele>216.525077</ele>
        <time>2022-03-03T08:07:05.409Z</time>
      </trkpt>
      <trkpt lat="42.06296" lon="25.16712">
        <ele>216.624722</ele>
        <time>2022-03-03T08:07:09.404Z</time>
      </trkpt>
      <trkpt lat="42.0629" lon="25.16702">
        <ele>216.728327</ele>
        <time>2022-03-03T08:07:13.430Z</time>
      </trkpt>
      <trkpt lat="42.06283" lon="25.16691">
        <ele>216.841206</ele>
        <time>2022-03-03T08:07:17.382Z</time>
      </trkpt>
      <trkpt lat="42.06275" lon="25.16681">
        <ele>216.955492</ele>
        <time>2022-03-03T08:07:21.376Z</time>
      </trkpt>
      <trkpt lat="42.06268" lon="25.16671">
        <ele>217.063877</ele>
        <time>2022-03-03T08:07:25.405Z</time>
      </trkpt>
      <trkpt lat="42.06261" lon="25.16661">
        <ele>217.172642</ele>
        <time>2022-03-03T08:07:29.397Z</time>
      </trkpt>
      <trkpt lat="42.06253" lon="25.16649">
        <ele>217.294788</ele>
        <time>2022-03-03T08:07:33.388Z</time>
      </trkpt>
      <trkpt lat="42.06245" lon="25.16638">
        <ele>217.410942</ele>
        <time>2022-03-03T08:07:37.403Z</time>
      </trkpt>
      <trkpt lat="42.06238" lon="25.16627">
        <ele>217.527721</ele>
        <time>2022-03-03T08:07:41.423Z</time>
      </trkpt>
      <trkpt lat="42.06231" lon="25.16614">
        <ele>217.652465</ele>
        <time>2022-03-03T08:07:45.408Z</time>
      </trkpt>
      <trkpt lat="42.06226" lon="25.16603">
        <ele>217.494105</ele>
        <time>2022-03-03T08:07:48.409Z</time>
      </trkpt>
      <trkpt lat="42.0622" lon="25.16593">
        <ele>217.136631</ele>
        <time>2022-03-03T08:07:51.392Z</time>
      </trkpt>
      <trkpt lat="42.06215" lon="25.16583">
        <ele>216.790568</ele>
        <time>2022-03-03T08:07:54.388Z</time>
      </trkpt>
      <trkpt lat="42.06209" lon="25.16573">
        <ele>216.453074</ele>
        <time>2022-03-03T08:07:57.406Z</time>
      </trkpt>
      <trkpt lat="42.06204" lon="25.16563">
        <ele>216.108806</ele>
        <time>2022-03-03T08:08:00.393Z</time>
      </trkpt>
      <trkpt lat="42.06198" lon="25.16552">
        <ele>215.738067</ele>
        <time>2022-03-03T08:08:03.399Z</time>
      </trkpt>
      <trkpt lat="42.06192" lon="25.1654">
        <ele>215.328523</ele>
        <time>2022-03-03T08:08:06.387Z</time>
      </trkpt>
      <trkpt lat="42.06187" lon="25.16527">
        <ele>214.911085</ele>
        <time>2022-03-03T08:08:09.405Z</time>
      </trkpt>
      <trkpt lat="42.06181" lon="25.16513">
        <ele>214.46991</ele>
        <time>2022-03-03T08:08:12.382Z</time>
      </trkpt>
      <trkpt lat="42.06176" lon="25.16497">
        <ele>214.008033</ele>
        <time>2022-03-03T08:08:15.389Z</time>
      </trkpt>
      <trkpt lat="42.06171" lon="25.16481">
        <ele>213.522782</ele>
        <time>2022-03-03T08:08:18.399Z</time>
      </trkpt>
      <trkpt lat="42.06164" lon="25.16466">
        <ele>213.021079</ele>
        <time>2022-03-03T08:08:21.428Z</time>
      </trkpt>
      <trkpt lat="42.06158" lon="25.1645">
        <ele>212.525959</ele>
        <time>2022-03-03T08:08:24.381Z</time>
      </trkpt>
      <trkpt lat="42.06153" lon="25.16434">
        <ele>212.055516</ele>
        <time>2022-03-03T08:08:27.438Z</time>
      </trkpt>
      <trkpt lat="42.06149" lon="25.16418">
        <ele>211.577038</ele>
        <time>2022-03-03T08:08:30.397Z</time>
      </trkpt>
      <trkpt lat="42.06144" lon="25.16402">
        <ele>211.076316</ele>
        <time>2022-03-03T08:08:33.402Z</time>
      </trkpt>
      <trkpt lat="42.0614" lon="25.1639">
        <ele>210.939234</ele>
        <time>2022-03-03T08:08:35.388Z</time>
      </trkpt>
      <trkpt lat="42.06136" lon="25.16378">
        <ele>210.911136</ele>
        <time>2022-03-03T08:08:37.387Z</time>
      </trkpt>
      <trkpt lat="42.06132" lon="25.16367">
        <ele>210.882247</ele>
        <time>2022-03-03T08:08:39.379Z</time>
      </trkpt>
      <trkpt lat="42.06127" lon="25.16355">
        <ele>210.85374</ele>
        <time>2022-03-03T08:08:41.390Z</time>
      </trkpt>
      <trkpt lat="42.06121" lon="25.1634">
        <ele>210.814619</ele>
        <time>2022-03-03T08:08:44.374Z</time>
      </trkpt>
      <trkpt lat="42.06117" lon="25.16324">
        <ele>210.775989</ele>
        <time>2022-03-03T08:08:47.368Z</time>
      </trkpt>
      <trkpt lat="42.06111" lon="25.16308">
        <ele>210.738243</ele>
        <time>2022-03-03T08:08:50.387Z</time>
      </trkpt>
      <trkpt lat="42.06106" lon="25.16293">
        <ele>210.70019</ele>
        <time>2022-03-03T08:08:53.402Z</time>
      </trkpt>
      <trkpt lat="42.06101" lon="25.16279">
        <ele>210.665212</ele>
        <time>2022-03-03T08:08:56.397Z</time>
      </trkpt>
      <trkpt lat="42.06095" lon="25.16266">
        <ele>210.631564</ele>
        <time>2022-03-03T08:08:59.389Z</time>
      </trkpt>
      <trkpt lat="42.0609" lon="25.16252">
        <ele>210.596051</ele>
        <time>2022-03-03T08:09:02.402Z</time>
      </trkpt>
      <trkpt lat="42.06086" lon="25.16237">
        <ele>210.559606</ele>
        <time>2022-03-03T08:09:05.430Z</time>
      </trkpt>
      <trkpt lat="42.06081" lon="25.16223">
        <ele>210.525968</ele>
        <time>2022-03-03T08:09:08.404Z</time>
      </trkpt>
      <trkpt lat="42.06076" lon="25.1621">
        <ele>210.493868</ele>
        <time>2022-03-03T08:09:11.414Z</time>
      </trkpt>
      <trkpt lat="42.06071" lon="25.16196">
        <ele>210.458889</ele>
        <time>2022-03-03T08:09:14.384Z</time>
      </trkpt>
      <trkpt lat="42.06066" lon="25.16184">
        <ele>210.428595</ele>
        <time>2022-03-03T08:09:17.376Z</time>
      </trkpt>
      <trkpt lat="42.06062" lon="25.16172">
        <ele>210.767346</ele>
        <time>2022-03-03T08:09:20.385Z</time>
      </trkpt>
      <trkpt lat="42.06058" lon="25.1616">
        <ele>211.351161</ele>
        <time>2022-03-03T08:09:23.390Z</time>
      </trkpt>
      <trkpt lat="42.06054" lon="25.16149">
        <ele>211.890017</ele>
        <time>2022-03-03T08:09:26.392Z</time>
      </trkpt>
      <trkpt lat="42.0605" lon="25.16135">
        <ele>212.563517</ele>
        <time>2022-03-03T08:09:30.384Z</time>
      </trkpt>
      <trkpt lat="42.06045" lon="25.16121">
        <ele>213.258095</ele>
        <time>2022-03-03T08:09:34.403Z</time>
      </trkpt>
      <trkpt lat="42.06041" lon="25.16109">
        <ele>213.853974</ele>
        <time>2022-03-03T08:09:38.375Z</time>
      </trkpt>
      <trkpt lat="42.06035" lon="25.16097">
        <ele>214.467256</ele>
        <time>2022-03-03T08:09:42.388Z</time>
      </trkpt>
      <trkpt lat="42.06031" lon="25.16083">
        <ele>215.138388</ele>
        <time>2022-03-03T08:09:47.403Z</time>
      </trkpt>
      <trkpt lat="42.06026" lon="25.16071">
        <ele>215.754051</ele>
        <time>2022-03-03T08:09:52.397Z</time>
      </trkpt>
      <trkpt lat="42.06022" lon="25.16059">
        <ele>216.348835</ele>
        <time>2022-03-03T08:09:57.385Z</time>
      </trkpt>
      <trkpt lat="42.06018" lon="25.16048">
        <ele>216.901842</ele>
        <time>2022-03-03T08:10:02.393Z</time>
      </trkpt>
      <trkpt lat="42.06013" lon="25.16037">
        <ele>217.45966</ele>
        <time>2022-03-03T08:10:07.433Z</time>
      </trkpt>
      <trkpt lat="42.06007" lon="25.16025">
        <ele>218.088199</ele>
        <time>2022-03-03T08:10:12.406Z</time>
      </trkpt>
      <trkpt lat="42.06002" lon="25.16014">
        <ele>218.680961</ele>
        <time>2022-03-03T08:10:17.453Z</time>
      </trkpt>
      <trkpt lat="42.05998" lon="25.16002">
        <ele>219.228968</ele>
        <time>2022-03-03T08:10:22.388Z</time>
      </trkpt>
      <trkpt lat="42.05994" lon="25.15991">
        <ele>219.803572</ele>
        <time>2022-03-03T08:10:28.387Z</time>
      </trkpt>
      <trkpt lat="42.05989" lon="25.1598">
        <ele>220.38525</ele>
        <time>2022-03-03T08:10:33.380Z</time>
      </trkpt>
      <trkpt lat="42.05984" lon="25.15968">
        <ele>221.007572</ele>
        <time>2022-03-03T08:10:39.393Z</time>
      </trkpt>
      <trkpt lat="42.05978" lon="25.15957">
        <ele>221.260648</ele>
        <time>2022-03-03T08:10:44.411Z</time>
      </trkpt>
      <trkpt lat="42.05973" lon="25.15946">
        <ele>221.390337</ele>
        <time>2022-03-03T08:10:49.390Z</time>
      </trkpt>
      <trkpt lat="42.05969" lon="25.15935">
        <ele>221.509767</ele>
        <time>2022-03-03T08:10:54.386Z</time>
      </trkpt>
      <trkpt lat="42.05963" lon="25.15924">
        <ele>221.638759</ele>
        <time>2022-03-03T08:10:59.393Z</time>
      </trkpt>
      <trkpt lat="42.05957" lon="25.15912">
        <ele>221.773752</ele>
        <time>2022-03-03T08:11:04.429Z</time>
      </trkpt>
      <trkpt lat="42.05953" lon="25.15901">
        <ele>221.889892</ele>
        <time>2022-03-03T08:11:08.399Z</time>
      </trkpt>
      <trkpt lat="42.05948" lon="25.1589">
        <ele>222.017405</ele>
        <time>2022-03-03T08:11:13.426Z</time>
      </trkpt>
      <trkpt lat="42.05942" lon="25.15879">
        <ele>222.144633</ele>
        <time>2022-03-03T08:11:18.393Z</time>
      </trkpt>
      <trkpt lat="42.05936" lon="25.15867">
        <ele>222.27725</ele>
        <time>2022-03-03T08:11:23.396Z</time>
      </trkpt>
      <trkpt lat="42.0593" lon="25.15855">
        <ele>222.42004</ele>
        <time>2022-03-03T08:11:28.397Z</time>
      </trkpt>
      <trkpt lat="42.05924" lon="25.15845">
        <ele>222.542763</ele>
        <time>2022-03-03T08:11:33.385Z</time>
      </trkpt>
      <trkpt lat="42.05919" lon="25.15833">
        <ele>222.673869</ele>
        <time>2022-03-03T08:11:38.395Z</time>
      </trkpt>
      <trkpt lat="42.05912" lon="25.15822">
        <ele>222.812501</ele>
        <time>2022-03-03T08:11:43.403Z</time>
      </trkpt>
      <trkpt lat="42.05906" lon="25.15811">
        <ele>222.938878</ele>
        <time>2022-03-03T08:11:47.384Z</time>
      </trkpt>
      <trkpt lat="42.05901" lon="25.15801">
        <ele>223.058422</ele>
        <time>2022-03-03T08:11:51.384Z</time>
      </trkpt>
      <trkpt lat="42.05895" lon="25.15789">
        <ele>223.188682</ele>
        <time>2022-03-03T08:11:55.404Z</time>
      </trkpt>
      <trkpt lat="42.05889" lon="25.15779">
        <ele>223.320647</ele>
        <time>2022-03-03T08:11:59.399Z</time>
      </trkpt>
      <trkpt lat="42.05882" lon="25.15768">
        <ele>223.449371</ele>
        <time>2022-03-03T08:12:03.383Z</time>
      </trkpt>
      <trkpt lat="42.05876" lon="25.15758">
        <ele>223.482495</ele>
        <time>2022-03-03T08:12:07.385Z</time>
      </trkpt>
      <trkpt lat="42.05868" lon="25.15746">
        <ele>223.474486</ele>
        <time>2022-03-03T08:12:11.397Z</time>
      </trkpt>
      <trkpt lat="42.05861" lon="25.15735">
        <ele>223.466698</ele>
        <time>2022-03-03T08:12:15.377Z</time>
      </trkpt>
      <trkpt lat="42.05855" lon="25.15723">
        <ele>223.459505</ele>
        <time>2022-03-03T08:12:19.428Z</time>
      </trkpt>
      <trkpt lat="42.05848" lon="25.15714">
        <ele>223.453223</ele>
        <time>2022-03-03T08:12:22.396Z</time>
      </trkpt>
      <trkpt lat="42.0584" lon="25.15703">
        <ele>223.445026</ele>
        <time>2022-03-03T08:12:26.408Z</time>
      </trkpt>
      <trkpt lat="42.05833" lon="25.15692">
        <ele>223.437462</ele>
        <time>2022-03-03T08:12:30.438Z</time>
      </trkpt>
      <trkpt lat="42.05824" lon="25.15681">
        <ele>223.429516</ele>
        <time>2022-03-03T08:12:34.395Z</time>
      </trkpt>
      <trkpt lat="42.05816" lon="25.15672">
        <ele>223.421933</ele>
        <time>2022-03-03T08:12:38.387Z</time>
      </trkpt>
      <trkpt lat="42.0581" lon="25.15663">
        <ele>223.415422</ele>
        <time>2022-03-03T08:12:41.387Z</time>
      </trkpt>
      <trkpt lat="42.05804" lon="25.15653">
        <ele>223.409125</ele>
        <time>2022-03-03T08:12:44.375Z</time>
      </trkpt>
      <trkpt lat="42.05797" lon="25.15641">
        <ele>223.401024</ele>
        <time>2022-03-03T08:12:48.399Z</time>
      </trkpt>
      <trkpt lat="42.05791" lon="25.15631">
        <ele>223.394649</ele>
        <time>2022-03-03T08:12:51.399Z</time>
      </trkpt>
      <trkpt lat="42.05784" lon="25.15621">
        <ele>223.387477</ele>
        <time>2022-03-03T08:12:54.397Z</time>
      </trkpt>
      <trkpt lat="42.05777" lon="25.15611">
        <ele>223.380648</ele>
        <time>2022-03-03T08:12:57.400Z</time>
      </trkpt>
      <trkpt lat="42.0577" lon="25.15602">
        <ele>223.373474</ele>
        <time>2022-03-03T08:13:00.388Z</time>
      </trkpt>
      <trkpt lat="42.05763" lon="25.15592">
        <ele>223.366341</ele>
        <time>2022-03-03T08:13:03.393Z</time>
      </trkpt>
      <trkpt lat="42.05755" lon="25.15582">
        <ele>223.339545</ele>
        <time>2022-03-03T08:13:06.389Z</time>
      </trkpt>
      <trkpt lat="42.05748" lon="25.15573">
        <ele>223.300313</ele>
        <time>2022-03-03T08:13:09.401Z</time>
      </trkpt>
      <trkpt lat="42.05741" lon="25.15564">
        <ele>223.261751</ele>
        <time>2022-03-03T08:13:12.411Z</time>
      </trkpt>
      <trkpt lat="42.05734" lon="25.15553">
        <ele>223.220088</ele>
        <time>2022-03-03T08:13:15.441Z</time>
      </trkpt>
      <trkpt lat="42.05727" lon="25.15544">
        <ele>223.180738</ele>
        <time>2022-03-03T08:13:18.382Z</time>
      </trkpt>
      <trkpt lat="42.0572" lon="25.15534">
        <ele>223.138968</ele>
        <time>2022-03-03T08:13:21.414Z</time>
      </trkpt>
      <trkpt lat="42.05713" lon="25.15524">
        <ele>223.098616</ele>
        <time>2022-03-03T08:13:24.387Z</time>
      </trkpt>
      <trkpt lat="42.05706" lon="25.15515">
        <ele>223.057777</ele>
        <time>2022-03-03T08:13:27.398Z</time>
      </trkpt>
      <trkpt lat="42.05699" lon="25.15505">
        <ele>223.015588</ele>
        <time>2022-03-03T08:13:30.422Z</time>
      </trkpt>
      <trkpt lat="42.05691" lon="25.15494">
        <ele>222.969984</ele>
        <time>2022-03-03T08:13:33.398Z</time>
      </trkpt>
      <trkpt lat="42.05684" lon="25.15483">
        <ele>222.927913</ele>
        <time>2022-03-03T08:13:36.373Z</time>
      </trkpt>
      <trkpt lat="42.05677" lon="25.15473">
        <ele>222.884494</ele>
        <time>2022-03-03T08:13:39.413Z</time>
      </trkpt>
      <trkpt lat="42.05669" lon="25.15461">
        <ele>222.83601</ele>
        <time>2022-03-03T08:13:42.403Z</time>
      </trkpt>
      <trkpt lat="42.05659" lon="25.15448">
        <ele>222.780732</ele>
        <time>2022-03-03T08:13:45.428Z</time>
      </trkpt>
      <trkpt lat="42.05652" lon="25.15439">
        <ele>222.742313</ele>
        <time>2022-03-03T08:13:47.383Z</time>
      </trkpt>
      <trkpt lat="42.05643" lon="25.15427">
        <ele>222.688537</ele>
        <time>2022-03-03T08:13:50.394Z</time>
      </trkpt>
      <trkpt lat="42.05633" lon="25.15414">
        <ele>222.632448</ele>
        <time>2022-03-03T08:13:53.405Z</time>
      </trkpt>
      <trkpt lat="42.05624" lon="25.15402">
        <ele>222.375807</ele>
        <time>2022-03-03T08:13:56.402Z</time>
      </trkpt>
      <trkpt lat="42.05615" lon="25.15391">
        <ele>222.144254</ele>
        <time>2022-03-03T08:13:59.393Z</time>
      </trkpt>
      <trkpt lat="42.05608" lon="25.1538">
        <ele>221.934216</ele>
        <time>2022-03-03T08:14:02.390Z</time>
      </trkpt>
      <trkpt lat="42.05601" lon="25.1537">
        <ele>221.721266</ele>
        <time>2022-03-03T08:14:05.390Z</time>
      </trkpt>
      <trkpt lat="42.05593" lon="25.15359">
        <ele>221.503963</ele>
        <time>2022-03-03T08:14:08.396Z</time>
      </trkpt>
      <trkpt lat="42.05586" lon="25.15349">
        <ele>221.307824</ele>
        <time>2022-03-03T08:14:11.433Z</time>
      </trkpt>
      <trkpt lat="42.05578" lon="25.15339">
        <ele>221.093392</ele>
        <time>2022-03-03T08:14:14.382Z</time>
      </trkpt>
      <trkpt lat="42.05571" lon="25.15328">
        <ele>220.876392</ele>
        <time>2022-03-03T08:14:17.380Z</time>
      </trkpt>
      <trkpt lat="42.05564" lon="25.15317">
        <ele>220.662794</ele>
        <time>2022-03-03T08:14:20.399Z</time>
      </trkpt>
      <trkpt lat="42.05556" lon="25.15307">
        <ele>220.449843</ele>
        <time>2022-03-03T08:14:23.379Z</time>
      </trkpt>
      <trkpt lat="42.05549" lon="25.15296">
        <ele>220.226937</ele>
        <time>2022-03-03T08:14:26.410Z</time>
      </trkpt>
      <trkpt lat="42.05541" lon="25.15284">
        <ele>219.998412</ele>
        <time>2022-03-03T08:14:29.405Z</time>
      </trkpt>
      <trkpt lat="42.05533" lon="25.15273">
        <ele>219.772022</ele>
        <time>2022-03-03T08:14:32.403Z</time>
      </trkpt>
      <trkpt lat="42.05524" lon="25.15262">
        <ele>219.528588</ele>
        <time>2022-03-03T08:14:35.404Z</time>
      </trkpt>
      <trkpt lat="42.05514" lon="25.1525">
        <ele>219.266176</ele>
        <time>2022-03-03T08:14:38.402Z</time>
      </trkpt>
      <trkpt lat="42.05507" lon="25.15242">
        <ele>219.087</ele>
        <time>2022-03-03T08:14:40.395Z</time>
      </trkpt>
      <trkpt lat="42.05498" lon="25.15229">
        <ele>219.35804</ele>
        <time>2022-03-03T08:14:43.406Z</time>
      </trkpt>
      <trkpt lat="42.0549" lon="25.15217">
        <ele>219.628887</ele>
        <time>2022-03-03T08:14:46.396Z</time>
      </trkpt>
      <trkpt lat="42.05481" lon="25.15205">
        <ele>219.884411</ele>
        <time>2022-03-03T08:14:49.399Z</time>
      </trkpt>
      <trkpt lat="42.05474" lon="25.15194">
        <ele>220.128717</ele>
        <time>2022-03-03T08:14:52.391Z</time>
      </trkpt>
      <trkpt lat="42.05465" lon="25.15182">
        <ele>220.386166</ele>
        <time>2022-03-03T08:14:55.401Z</time>
      </trkpt>
      <trkpt lat="42.05457" lon="25.1517">
        <ele>220.659914</ele>
        <time>2022-03-03T08:14:58.404Z</time>
      </trkpt>
      <trkpt lat="42.05449" lon="25.15157">
        <ele>220.926103</ele>
        <time>2022-03-03T08:15:01.395Z</time>
      </trkpt>
      <trkpt lat="42.05442" lon="25.15147">
        <ele>221.147084</ele>
        <time>2022-03-03T08:15:04.395Z</time>
      </trkpt>
      <trkpt lat="42.05434" lon="25.15136">
        <ele>221.387932</ele>
        <time>2022-03-03T08:15:08.392Z</time>
      </trkpt>
      <trkpt lat="42.05426" lon="25.15125">
        <ele>221.616787</ele>
        <time>2022-03-03T08:15:12.436Z</time>
      </trkpt>
      <trkpt lat="42.05419" lon="25.15114">
        <ele>221.849881</ele>
        <time>2022-03-03T08:15:16.410Z</time>
      </trkpt>
      <trkpt lat="42.05412" lon="25.15104">
        <ele>222.077277</ele>
        <time>2022-03-03T08:15:20.383Z</time>
      </trkpt>
      <trkpt lat="42.05405" lon="25.15094">
        <ele>222.307179</ele>
        <time>2022-03-03T08:15:24.394Z</time>
      </trkpt>
      <trkpt lat="42.05397" lon="25.15083">
        <ele>222.544782</ele>
        <time>2022-03-03T08:15:28.391Z</time>
      </trkpt>
      <trkpt lat="42.05389" lon="25.15073">
        <ele>222.772885</ele>
        <time>2022-03-03T08:15:32.383Z</time>
      </trkpt>
      <trkpt lat="42.05383" lon="25.15063">
        <ele>222.989527</ele>
        <time>2022-03-03T08:15:36.400Z</time>
      </trkpt>
      <trkpt lat="42.05375" lon="25.15054">
        <ele>223.246436</ele>
        <time>2022-03-03T08:15:40.391Z</time>
      </trkpt>
      <trkpt lat="42.05369" lon="25.15044">
        <ele>223.487725</ele>
        <time>2022-03-03T08:15:44.394Z</time>
      </trkpt>
      <trkpt lat="42.05362" lon="25.15035">
        <ele>223.74246</ele>
        <time>2022-03-03T08:15:49.399Z</time>
      </trkpt>
      <trkpt lat="42.05354" lon="25.15025">
        <ele>224.014723</ele>
        <time>2022-03-03T08:15:54.375Z</time>
      </trkpt>
      <trkpt lat="42.05347" lon="25.15015">
        <ele>224.266342</ele>
        <time>2022-03-03T08:15:58.406Z</time>
      </trkpt>
      <trkpt lat="42.05341" lon="25.15006">
        <ele>224.503155</ele>
        <time>2022-03-03T08:16:02.442Z</time>
      </trkpt>
      <trkpt lat="42.05334" lon="25.14998">
        <ele>224.734402</ele>
        <time>2022-03-03T08:16:06.404Z</time>
      </trkpt>
      <trkpt lat="42.05326" lon="25.14988">
        <ele>225.000287</ele>
        <time>2022-03-03T08:16:11.401Z</time>
      </trkpt>
      <trkpt lat="42.0532" lon="25.14979">
        <ele>225.233238</ele>
        <time>2022-03-03T08:16:15.399Z</time>
      </trkpt>
      <trkpt lat="42.05313" lon="25.14968">
        <ele>225.513718</ele>
        <time>2022-03-03T08:16:20.388Z</time>
      </trkpt>
      <trkpt lat="42.05306" lon="25.14957">
        <ele>225.788949</ele>
        <time>2022-03-03T08:16:25.395Z</time>
      </trkpt>
      <trkpt lat="42.05299" lon="25.14948">
        <ele>226.027513</ele>
        <time>2022-03-03T08:16:29.402Z</time>
      </trkpt>
      <trkpt lat="42.05293" lon="25.14938">
        <ele>226.264409</ele>
        <time>2022-03-03T08:16:33.410Z</time>
      </trkpt>
      <trkpt lat="42.05287" lon="25.14928">
        <ele>226.517736</ele>
        <time>2022-03-03T08:16:37.403Z</time>
      </trkpt>
      <trkpt lat="42.0528" lon="25.1492">
        <ele>226.750266</ele>
        <time>2022-03-03T08:16:41.394Z</time>
      </trkpt>
      <trkpt lat="42.05272" lon="25.14909">
        <ele>227.029968</ele>
        <time>2022-03-03T08:16:46.386Z</time>
      </trkpt>
      <trkpt lat="42.05265" lon="25.149">
        <ele>227.273807</ele>
        <time>2022-03-03T08:16:50.414Z</time>
      </trkpt>
      <trkpt lat="42.05258" lon="25.1489">
        <ele>227.517633</ele>
        <time>2022-03-03T08:16:54.386Z</time>
      </trkpt>
      <trkpt lat="42.05251" lon="25.1488">
        <ele>227.601675</ele>
        <time>2022-03-03T08:16:58.446Z</time>
      </trkpt>
      <trkpt lat="42.05245" lon="25.14871">
        <ele>227.682012</ele>
        <time>2022-03-03T08:17:02.388Z</time>
      </trkpt>
      <trkpt lat="42.05237" lon="25.14861">
        <ele>227.764203</ele>
        <time>2022-03-03T08:17:06.404Z</time>
      </trkpt>
      <trkpt lat="42.0523" lon="25.14851">
        <ele>227.849903</ele>
        <time>2022-03-03T08:17:10.397Z</time>
      </trkpt>
      <trkpt lat="42.05224" lon="25.14841">
        <ele>227.929797</ele>
        <time>2022-03-03T08:17:14.387Z</time>
      </trkpt>
      <trkpt lat="42.05216" lon="25.14831">
        <ele>228.018922</ele>
        <time>2022-03-03T08:17:18.397Z</time>
      </trkpt>
      <trkpt lat="42.05209" lon="25.1482">
        <ele>228.109338</ele>
        <time>2022-03-03T08:17:22.412Z</time>
      </trkpt>
      <trkpt lat="42.05201" lon="25.14809">
        <ele>228.200756</ele>
        <time>2022-03-03T08:17:26.437Z</time>
      </trkpt>
      <trkpt lat="42.05193" lon="25.14798">
        <ele>228.292767</ele>
        <time>2022-03-03T08:17:30.383Z</time>
      </trkpt>
      <trkpt lat="42.05186" lon="25.14787">
        <ele>228.382618</ele>
        <time>2022-03-03T08:17:34.379Z</time>
      </trkpt>
      <trkpt lat="42.05178" lon="25.14776">
        <ele>228.478599</ele>
        <time>2022-03-03T08:17:38.397Z</time>
      </trkpt>
      <trkpt lat="42.05169" lon="25.14765">
        <ele>228.574985</ele>
        <time>2022-03-03T08:17:42.404Z</time>
      </trkpt>
      <trkpt lat="42.05163" lon="25.14756">
        <ele>228.652431</ele>
        <time>2022-03-03T08:17:45.375Z</time>
      </trkpt>
      <trkpt lat="42.05154" lon="25.14744">
        <ele>228.74953</ele>
        <time>2022-03-03T08:17:49.405Z</time>
      </trkpt>
      <trkpt lat="42.05148" lon="25.14735">
        <ele>228.826663</ele>
        <time>2022-03-03T08:17:52.382Z</time>
      </trkpt>
      <trkpt lat="42.05141" lon="25.14726">
        <ele>228.908169</ele>
        <time>2022-03-03T08:17:55.418Z</time>
      </trkpt>
      <trkpt lat="42.05134" lon="25.14717">
        <ele>228.975849</ele>
        <time>2022-03-03T08:17:58.402Z</time>
      </trkpt>
      <trkpt lat="42.05127" lon="25.14707">
        <ele>228.815571</ele>
        <time>2022-03-03T08:18:01.384Z</time>
      </trkpt>
      <trkpt lat="42.05121" lon="25.14698">
        <ele>228.660629</ele>
        <time>2022-03-03T08:18:04.389Z</time>
      </trkpt>
      <trkpt lat="42.05115" lon="25.14687">
        <ele>228.504123</ele>
        <time>2022-03-03T08:18:07.401Z</time>
      </trkpt>
      <trkpt lat="42.05109" lon="25.14679">
        <ele>228.350116</ele>
        <time>2022-03-03T08:18:10.434Z</time>
      </trkpt>
      <trkpt lat="42.05103" lon="25.14669">
        <ele>228.193898</ele>
        <time>2022-03-03T08:18:13.402Z</time>
      </trkpt>
      <trkpt lat="42.05096" lon="25.1466">
        <ele>228.02966</ele>
        <time>2022-03-03T08:18:16.399Z</time>
      </trkpt>
      <trkpt lat="42.05088" lon="25.1465">
        <ele>227.852567</ele>
        <time>2022-03-03T08:18:19.393Z</time>
      </trkpt>
      <trkpt lat="42.05081" lon="25.1464">
        <ele>227.686191</ele>
        <time>2022-03-03T08:18:22.404Z</time>
      </trkpt>
      <trkpt lat="42.05074" lon="25.1463">
        <ele>227.519319</ele>
        <time>2022-03-03T08:18:25.409Z</time>
      </trkpt>
      <trkpt lat="42.05066" lon="25.14621">
        <ele>227.349467</ele>
        <time>2022-03-03T08:18:28.390Z</time>
      </trkpt>
      <trkpt lat="42.05059" lon="25.14612">
        <ele>227.18669</ele>
        <time>2022-03-03T08:18:31.398Z</time>
      </trkpt>
      <trkpt lat="42.05053" lon="25.14602">
        <ele>227.026774</ele>
        <time>2022-03-03T08:18:34.385Z</time>
      </trkpt>
      <trkpt lat="42.05047" lon="25.14592">
        <ele>226.868295</ele>
        <time>2022-03-03T08:18:37.398Z</time>
      </trkpt>
      <trkpt lat="42.05041" lon="25.14583">
        <ele>226.712416</ele>
        <time>2022-03-03T08:18:40.395Z</time>
      </trkpt>
      <trkpt lat="42.05034" lon="25.14573">
        <ele>226.555483</ele>
        <time>2022-03-03T08:18:43.437Z</time>
      </trkpt>
      <trkpt lat="42.05028" lon="25.14564">
        <ele>226.393546</ele>
        <time>2022-03-03T08:18:46.398Z</time>
      </trkpt>
      <trkpt lat="42.0502" lon="25.14553">
        <ele>226.20447</ele>
        <time>2022-03-03T08:18:49.415Z</time>
      </trkpt>
      <trkpt lat="42.05013" lon="25.14542">
        <ele>226.027377</ele>
        <time>2022-03-03T08:18:52.389Z</time>
      </trkpt>
      <trkpt lat="42.05005" lon="25.14532">
        <ele>225.983001</ele>
        <time>2022-03-03T08:18:55.406Z</time>
      </trkpt>
      <trkpt lat="42.04997" lon="25.14523">
        <ele>225.966122</ele>
        <time>2022-03-03T08:18:58.398Z</time>
      </trkpt>
      <trkpt lat="42.0499" lon="25.14513">
        <ele>225.95017</ele>
        <time>2022-03-03T08:19:01.381Z</time>
      </trkpt>
      <trkpt lat="42.04983" lon="25.14503">
        <ele>225.933723</ele>
        <time>2022-03-03T08:19:04.420Z</time>
      </trkpt>
      <trkpt lat="42.04976" lon="25.14493">
        <ele>225.918072</ele>
        <time>2022-03-03T08:19:07.433Z</time>
      </trkpt>
      <trkpt lat="42.04969" lon="25.14483">
        <ele>225.902284</ele>
        <time>2022-03-03T08:19:10.394Z</time>
      </trkpt>
      <trkpt lat="42.04963" lon="25.14472">
        <ele>225.886791</ele>
        <time>2022-03-03T08:19:13.412Z</time>
      </trkpt>
      <trkpt lat="42.04956" lon="25.14463">
        <ele>225.871614</ele>
        <time>2022-03-03T08:19:16.400Z</time>
      </trkpt>
      <trkpt lat="42.04949" lon="25.14455">
        <ele>225.857149</ele>
        <time>2022-03-03T08:19:19.394Z</time>
      </trkpt>
      <trkpt lat="42.04941" lon="25.14443">
        <ele>225.83846</ele>
        <time>2022-03-03T08:19:23.402Z</time>
      </trkpt>
      <trkpt lat="42.04934" lon="25.14434">
        <ele>225.823171</ele>
        <time>2022-03-03T08:19:26.387Z</time>
      </trkpt>
      <trkpt lat="42.04928" lon="25.14424">
        <ele>225.808308</ele>
        <time>2022-03-03T08:19:29.400Z</time>
      </trkpt>
      <trkpt lat="42.04922" lon="25.14415">
        <ele>225.793597</ele>
        <time>2022-03-03T08:19:32.411Z</time>
      </trkpt>
      <trkpt lat="42.04915" lon="25.14407">
        <ele>225.779289</ele>
        <time>2022-03-03T08:19:35.391Z</time>
      </trkpt>
      <trkpt lat="42.04908" lon="25.14398">
        <ele>225.764194</ele>
        <time>2022-03-03T08:19:38.440Z</time>
      </trkpt>
      <trkpt lat="42.04901" lon="25.14389">
        <ele>225.749293</ele>
        <time>2022-03-03T08:19:41.394Z</time>
      </trkpt>
      <trkpt lat="42.04894" lon="25.1438">
        <ele>225.734062</ele>
        <time>2022-03-03T08:19:44.397Z</time>
      </trkpt>
      <trkpt lat="42.04888" lon="25.14371">
        <ele>225.719905</ele>
        <time>2022-03-03T08:19:47.389Z</time>
      </trkpt>
      <trkpt lat="42.04879" lon="25.1436">
        <ele>225.74314</ele>
        <time>2022-03-03T08:19:51.409Z</time>
      </trkpt>
      <trkpt lat="42.04871" lon="25.14352">
        <ele>225.775627</ele>
        <time>2022-03-03T08:19:54.395Z</time>
      </trkpt>
      <trkpt lat="42.04864" lon="25.14343">
        <ele>225.80875</ele>
        <time>2022-03-03T08:19:57.404Z</time>
      </trkpt>
      <trkpt lat="42.04858" lon="25.14334">
        <ele>225.839222</ele>
        <time>2022-03-03T08:20:00.419Z</time>
      </trkpt>
      <trkpt lat="42.04851" lon="25.14325">
        <ele>225.869834</ele>
        <time>2022-03-03T08:20:03.391Z</time>
      </trkpt>
      <trkpt lat="42.04844" lon="25.14313">
        <ele>225.906844</ele>
        <time>2022-03-03T08:20:07.402Z</time>
      </trkpt>
      <trkpt lat="42.04838" lon="25.14304">
        <ele>225.936826</ele>
        <time>2022-03-03T08:20:10.413Z</time>
      </trkpt>
      <trkpt lat="42.04829" lon="25.14294">
        <ele>225.975372</ele>
        <time>2022-03-03T08:20:14.383Z</time>
      </trkpt>
      <trkpt lat="42.04821" lon="25.14284">
        <ele>226.013593</ele>
        <time>2022-03-03T08:20:18.404Z</time>
      </trkpt>
      <trkpt lat="42.04812" lon="25.14273">
        <ele>226.052468</ele>
        <time>2022-03-03T08:20:22.425Z</time>
      </trkpt>
      <trkpt lat="42.04805" lon="25.14265">
        <ele>226.082549</ele>
        <time>2022-03-03T08:20:25.398Z</time>
      </trkpt>
      <trkpt lat="42.04797" lon="25.14254">
        <ele>226.120083</ele>
        <time>2022-03-03T08:20:29.403Z</time>
      </trkpt>
      <trkpt lat="42.0479" lon="25.14243">
        <ele>226.15588</ele>
        <time>2022-03-03T08:20:33.410Z</time>
      </trkpt>
      <trkpt lat="42.04781" lon="25.14233">
        <ele>226.194024</ele>
        <time>2022-03-03T08:20:37.401Z</time>
      </trkpt>
      <trkpt lat="42.04775" lon="25.14224">
        <ele>226.2241</ele>
        <time>2022-03-03T08:20:40.413Z</time>
      </trkpt>
      <trkpt lat="42.04767" lon="25.14213">
        <ele>226.262514</ele>
        <time>2022-03-03T08:20:44.390Z</time>
      </trkpt>
      <trkpt lat="42.04759" lon="25.14203">
        <ele>226.299701</ele>
        <time>2022-03-03T08:20:48.429Z</time>
      </trkpt>
      <trkpt lat="42.04751" lon="25.14192">
        <ele>226.346292</ele>
        <time>2022-03-03T08:20:52.389Z</time>
      </trkpt>
      <trkpt lat="42.04743" lon="25.14182">
        <ele>226.399017</ele>
        <time>2022-03-03T08:20:56.442Z</time>
      </trkpt>
      <trkpt lat="42.04735" lon="25.1417">
        <ele>226.453137</ele>
        <time>2022-03-03T08:21:00.391Z</time>
      </trkpt>
      <trkpt lat="42.04728" lon="25.14161">
        <ele>226.500823</ele>
        <time>2022-03-03T08:21:04.389Z</time>
      </trkpt>
      <trkpt lat="42.0472" lon="25.14152">
        <ele>226.550137</ele>
        <time>2022-03-03T08:21:08.398Z</time>
      </trkpt>
      <trkpt lat="42.04713" lon="25.14143">
        <ele>226.596181</ele>
        <time>2022-03-03T08:21:12.409Z</time>
      </trkpt>
      <trkpt lat="42.04705" lon="25.14133">
        <ele>226.64491</ele>
        <time>2022-03-03T08:21:16.377Z</time>
      </trkpt>
      <trkpt lat="42.04697" lon="25.14123">
        <ele>226.697501</ele>
        <time>2022-03-03T08:21:20.414Z</time>
      </trkpt>
      <trkpt lat="42.04689" lon="25.14113">
        <ele>226.748723</ele>
        <time>2022-03-03T08:21:24.382Z</time>
      </trkpt>
      <trkpt lat="42.04682" lon="25.14102">
        <ele>226.799945</ele>
        <time>2022-03-03T08:21:28.404Z</time>
      </trkpt>
      <trkpt lat="42.04675" lon="25.14094">
        <ele>226.843767</ele>
        <time>2022-03-03T08:21:31.386Z</time>
      </trkpt>
      <trkpt lat="42.04667" lon="25.14084">
        <ele>226.896013</ele>
        <time>2022-03-03T08:21:35.406Z</time>
      </trkpt>
      <trkpt lat="42.04659" lon="25.14073">
        <ele>226.947817</ele>
        <time>2022-03-03T08:21:39.398Z</time>
      </trkpt>
      <trkpt lat="42.04651" lon="25.14063">
        <ele>226.99904</ele>
        <time>2022-03-03T08:21:43.404Z</time>
      </trkpt>
      <trkpt lat="42.04644" lon="25.14052">
        <ele>227.051703</ele>
        <time>2022-03-03T08:21:47.425Z</time>
      </trkpt>
      <trkpt lat="42.04637" lon="25.14043">
        <ele>227.097035</ele>
        <time>2022-03-03T08:21:51.389Z</time>
      </trkpt>
      <trkpt lat="42.0463" lon="25.14033">
        <ele>227.145651</ele>
        <time>2022-03-03T08:21:55.399Z</time>
      </trkpt>
      <trkpt lat="42.04622" lon="25.14023">
        <ele>227.225501</ele>
        <time>2022-03-03T08:21:59.394Z</time>
      </trkpt>
      <trkpt lat="42.04614" lon="25.14013">
        <ele>227.318255</ele>
        <time>2022-03-03T08:22:03.406Z</time>
      </trkpt>
      <trkpt lat="42.04607" lon="25.14004">
        <ele>227.402625</ele>
        <time>2022-03-03T08:22:07.389Z</time>
      </trkpt>
      <trkpt lat="42.046" lon="25.13994">
        <ele>227.487985</ele>
        <time>2022-03-03T08:22:11.405Z</time>
      </trkpt>
      <trkpt lat="42.04591" lon="25.13984">
        <ele>227.580448</ele>
        <time>2022-03-03T08:22:15.393Z</time>
      </trkpt>
      <trkpt lat="42.04583" lon="25.13974">
        <ele>227.668956</ele>
        <time>2022-03-03T08:22:19.434Z</time>
      </trkpt>
      <trkpt lat="42.04575" lon="25.13964">
        <ele>227.761836</ele>
        <time>2022-03-03T08:22:23.399Z</time>
      </trkpt>
      <trkpt lat="42.04568" lon="25.13954">
        <ele>227.852807</ele>
        <time>2022-03-03T08:22:27.434Z</time>
      </trkpt>
      <trkpt lat="42.0456" lon="25.13943">
        <ele>227.947913</ele>
        <time>2022-03-03T08:22:31.420Z</time>
      </trkpt>
      <trkpt lat="42.04552" lon="25.13933">
        <ele>228.035652</ele>
        <time>2022-03-03T08:22:35.448Z</time>
      </trkpt>
      <trkpt lat="42.04544" lon="25.13923">
        <ele>228.128844</ele>
        <time>2022-03-03T08:22:39.412Z</time>
      </trkpt>
      <trkpt lat="42.04536" lon="25.13912">
        <ele>228.225921</ele>
        <time>2022-03-03T08:22:43.391Z</time>
      </trkpt>
      <trkpt lat="42.04527" lon="25.13902">
        <ele>228.32361</ele>
        <time>2022-03-03T08:22:47.383Z</time>
      </trkpt>
      <trkpt lat="42.04519" lon="25.13892">
        <ele>228.416351</ele>
        <time>2022-03-03T08:22:51.386Z</time>
      </trkpt>
      <trkpt lat="42.0451" lon="25.13881">
        <ele>228.514655</ele>
        <time>2022-03-03T08:22:55.412Z</time>
      </trkpt>
      <trkpt lat="42.04503" lon="25.13873">
        <ele>228.592142</ele>
        <time>2022-03-03T08:22:58.393Z</time>
      </trkpt>
      <trkpt lat="42.04496" lon="25.13865">
        <ele>228.659268</ele>
        <time>2022-03-03T08:23:01.409Z</time>
      </trkpt>
      <trkpt lat="42.04487" lon="25.13857">
        <ele>228.356356</ele>
        <time>2022-03-03T08:23:05.385Z</time>
      </trkpt>
      <trkpt lat="42.0448" lon="25.1385">
        <ele>228.102324</ele>
        <time>2022-03-03T08:23:08.393Z</time>
      </trkpt>
      <trkpt lat="42.04471" lon="25.13843">
        <ele>227.827013</ele>
        <time>2022-03-03T08:23:11.399Z</time>
      </trkpt>
      <trkpt lat="42.04463" lon="25.13837">
        <ele>227.564663</ele>
        <time>2022-03-03T08:23:14.394Z</time>
      </trkpt>
      <trkpt lat="42.04453" lon="25.13829">
        <ele>227.248115</ele>
        <time>2022-03-03T08:23:18.398Z</time>
      </trkpt>
      <trkpt lat="42.04443" lon="25.13821">
        <ele>226.91816</ele>
        <time>2022-03-03T08:23:22.408Z</time>
      </trkpt>
      <trkpt lat="42.04435" lon="25.13815">
        <ele>226.649896</ele>
        <time>2022-03-03T08:23:25.419Z</time>
      </trkpt>
      <trkpt lat="42.04426" lon="25.13809">
        <ele>226.377677</ele>
        <time>2022-03-03T08:23:28.409Z</time>
      </trkpt>
      <trkpt lat="42.04417" lon="25.13803">
        <ele>226.097578</ele>
        <time>2022-03-03T08:23:31.436Z</time>
      </trkpt>
      <trkpt lat="42.04408" lon="25.13796">
        <ele>225.81801</ele>
        <time>2022-03-03T08:23:34.387Z</time>
      </trkpt>
      <trkpt lat="42.044" lon="25.1379">
        <ele>225.534995</ele>
        <time>2022-03-03T08:23:37.395Z</time>
      </trkpt>
      <trkpt lat="42.0439" lon="25.13782">
        <ele>225.233294</ele>
        <time>2022-03-03T08:23:40.406Z</time>
      </trkpt>
      <trkpt lat="42.04381" lon="25.13775">
        <ele>224.946228</ele>
        <time>2022-03-03T08:23:43.419Z</time>
      </trkpt>
      <trkpt lat="42.04373" lon="25.13769">
        <ele>224.674009</ele>
        <time>2022-03-03T08:23:46.398Z</time>
      </trkpt>
      <trkpt lat="42.04363" lon="25.13761">
        <ele>224.340592</ele>
        <time>2022-03-03T08:23:50.407Z</time>
      </trkpt>
      <trkpt lat="42.04354" lon="25.13754">
        <ele>224.0722</ele>
        <time>2022-03-03T08:23:53.393Z</time>
      </trkpt>
      <trkpt lat="42.04346" lon="25.13748">
        <ele>223.798972</ele>
        <time>2022-03-03T08:23:56.384Z</time>
      </trkpt>
      <trkpt lat="42.04336" lon="25.13742">
        <ele>223.735645</ele>
        <time>2022-03-03T08:23:59.384Z</time>
      </trkpt>
      <trkpt lat="42.04327" lon="25.13735">
        <ele>223.918177</ele>
        <time>2022-03-03T08:24:02.410Z</time>
      </trkpt>
      <trkpt lat="42.04319" lon="25.13727">
        <ele>224.111267</ele>
        <time>2022-03-03T08:24:05.394Z</time>
      </trkpt>
      <trkpt lat="42.0431" lon="25.13719">
        <ele>224.295905</ele>
        <time>2022-03-03T08:24:08.405Z</time>
      </trkpt>
      <trkpt lat="42.04302" lon="25.13712">
        <ele>224.488128</ele>
        <time>2022-03-03T08:24:11.405Z</time>
      </trkpt>
      <trkpt lat="42.04293" lon="25.13704">
        <ele>224.671255</ele>
        <time>2022-03-03T08:24:14.388Z</time>
      </trkpt>
      <trkpt lat="42.04285" lon="25.13696">
        <ele>224.863556</ele>
        <time>2022-03-03T08:24:17.390Z</time>
      </trkpt>
      <trkpt lat="42.04278" lon="25.13688">
        <ele>225.032076</ele>
        <time>2022-03-03T08:24:20.397Z</time>
      </trkpt>
      <trkpt lat="42.04268" lon="25.1368">
        <ele>225.24718</ele>
        <time>2022-03-03T08:24:24.387Z</time>
      </trkpt>
      <trkpt lat="42.0426" lon="25.1367">
        <ele>225.440703</ele>
        <time>2022-03-03T08:24:28.386Z</time>
      </trkpt>
      <trkpt lat="42.04254" lon="25.13661">
        <ele>225.610415</ele>
        <time>2022-03-03T08:24:31.405Z</time>
      </trkpt>
      <trkpt lat="42.04245" lon="25.13654">
        <ele>225.795781</ele>
        <time>2022-03-03T08:24:34.390Z</time>
      </trkpt>
      <trkpt lat="42.04237" lon="25.13644">
        <ele>225.994362</ele>
        <time>2022-03-03T08:24:37.411Z</time>
      </trkpt>
      <trkpt lat="42.04229" lon="25.13636">
        <ele>226.175189</ele>
        <time>2022-03-03T08:24:40.397Z</time>
      </trkpt>
      <trkpt lat="42.0422" lon="25.13626">
        <ele>226.391909</ele>
        <time>2022-03-03T08:24:44.467Z</time>
      </trkpt>
      <trkpt lat="42.04213" lon="25.13615">
        <ele>226.590558</ele>
        <time>2022-03-03T08:24:48.410Z</time>
      </trkpt>
      <trkpt lat="42.04206" lon="25.13607">
        <ele>226.769386</ele>
        <time>2022-03-03T08:24:52.391Z</time>
      </trkpt>
      <trkpt lat="42.04197" lon="25.13596">
        <ele>226.953678</ele>
        <time>2022-03-03T08:24:56.438Z</time>
      </trkpt>
      <trkpt lat="42.0419" lon="25.13587">
        <ele>226.990436</ele>
        <time>2022-03-03T08:24:59.403Z</time>
      </trkpt>
      <trkpt lat="42.04182" lon="25.13578">
        <ele>227.028908</ele>
        <time>2022-03-03T08:25:02.396Z</time>
      </trkpt>
      <trkpt lat="42.04174" lon="25.13568">
        <ele>227.067055</ele>
        <time>2022-03-03T08:25:05.406Z</time>
      </trkpt>
      <trkpt lat="42.04166" lon="25.13559">
        <ele>227.106196</ele>
        <time>2022-03-03T08:25:08.409Z</time>
      </trkpt>
      <trkpt lat="42.04158" lon="25.13551">
        <ele>227.142552</ele>
        <time>2022-03-03T08:25:11.391Z</time>
      </trkpt>
      <trkpt lat="42.04151" lon="25.13543">
        <ele>227.17717</ele>
        <time>2022-03-03T08:25:14.388Z</time>
      </trkpt>
      <trkpt lat="42.04142" lon="25.13534">
        <ele>227.216376</ele>
        <time>2022-03-03T08:25:18.395Z</time>
      </trkpt>
      <trkpt lat="42.04133" lon="25.13524">
        <ele>227.259046</ele>
        <time>2022-03-03T08:25:22.410Z</time>
      </trkpt>
      <trkpt lat="42.04126" lon="25.13513">
        <ele>227.299154</ele>
        <time>2022-03-03T08:25:26.404Z</time>
      </trkpt>
      <trkpt lat="42.04117" lon="25.13504">
        <ele>227.339152</ele>
        <time>2022-03-03T08:25:30.382Z</time>
      </trkpt>
      <trkpt lat="42.04108" lon="25.13494">
        <ele>227.383079</ele>
        <time>2022-03-03T08:25:34.420Z</time>
      </trkpt>
      <trkpt lat="42.04101" lon="25.13486">
        <ele>227.416906</ele>
        <time>2022-03-03T08:25:37.406Z</time>
      </trkpt>
      <trkpt lat="42.04093" lon="25.13479">
        <ele>227.451272</ele>
        <time>2022-03-03T08:25:40.393Z</time>
      </trkpt>
      <trkpt lat="42.04085" lon="25.13468">
        <ele>227.493292</ele>
        <time>2022-03-03T08:25:44.382Z</time>
      </trkpt>
      <trkpt lat="42.04076" lon="25.13458">
        <ele>227.536701</ele>
        <time>2022-03-03T08:25:48.394Z</time>
      </trkpt>
      <trkpt lat="42.04069" lon="25.1345">
        <ele>227.570355</ele>
        <time>2022-03-03T08:25:51.392Z</time>
      </trkpt>
      <trkpt lat="42.04062" lon="25.13441">
        <ele>227.60512</ele>
        <time>2022-03-03T08:25:54.397Z</time>
      </trkpt>
      <trkpt lat="42.04055" lon="25.13433">
        <ele>227.531842</ele>
        <time>2022-03-03T08:25:57.408Z</time>
      </trkpt>
      <trkpt lat="42.04048" lon="25.13423">
        <ele>227.455753</ele>
        <time>2022-03-03T08:26:00.404Z</time>
      </trkpt>
      <trkpt lat="42.04041" lon="25.13411">
        <ele>227.364559</ele>
        <time>2022-03-03T08:26:04.402Z</time>
      </trkpt>
      <trkpt lat="42.04034" lon="25.13398">
        <ele>227.267842</ele>
        <time>2022-03-03T08:26:08.422Z</time>
      </trkpt>
      <trkpt lat="42.04028" lon="25.13388">
        <ele>227.189555</ele>
        <time>2022-03-03T08:26:11.395Z</time>
      </trkpt>
      <trkpt lat="42.04022" lon="25.13377">
        <ele>227.112678</ele>
        <time>2022-03-03T08:26:14.406Z</time>
      </trkpt>
      <trkpt lat="42.04017" lon="25.13366">
        <ele>227.034324</ele>
        <time>2022-03-03T08:26:17.397Z</time>
      </trkpt>
      <trkpt lat="42.04013" lon="25.13354">
        <ele>226.960593</ele>
        <time>2022-03-03T08:26:20.406Z</time>
      </trkpt>
      <trkpt lat="42.04009" lon="25.13343">
        <ele>226.885504</ele>
        <time>2022-03-03T08:26:23.401Z</time>
      </trkpt>
      <trkpt lat="42.04006" lon="25.13329">
        <ele>226.799682</ele>
        <time>2022-03-03T08:26:27.453Z</time>
      </trkpt>
      <trkpt lat="42.04004" lon="25.13313">
        <ele>226.706767</ele>
        <time>2022-03-03T08:26:31.419Z</time>
      </trkpt>
      <trkpt lat="42.04002" lon="25.13301">
        <ele>226.634544</ele>
        <time>2022-03-03T08:26:34.389Z</time>
      </trkpt>
      <trkpt lat="42.04" lon="25.13289">
        <ele>226.562352</ele>
        <time>2022-03-03T08:26:37.386Z</time>
      </trkpt>
      <trkpt lat="42.03999" lon="25.13274">
        <ele>226.473083</ele>
        <time>2022-03-03T08:26:41.389Z</time>
      </trkpt>
      <trkpt lat="42.03998" lon="25.13259">
        <ele>226.381649</ele>
        <time>2022-03-03T08:26:45.393Z</time>
      </trkpt>
      <trkpt lat="42.03996" lon="25.13244">
        <ele>226.291661</ele>
        <time>2022-03-03T08:26:49.436Z</time>
      </trkpt>
      <trkpt lat="42.03995" lon="25.13229">
        <ele>226.205392</ele>
        <time>2022-03-03T08:26:53.408Z</time>
      </trkpt>
      <trkpt lat="42.03995" lon="25.13215">
        <ele>226.34769</ele>
        <time>2022-03-03T08:26:57.402Z</time>
      </trkpt>
      <trkpt lat="42.03995" lon="25.132">
        <ele>226.628029</ele>
        <time>2022-03-03T08:27:01.394Z</time>
      </trkpt>
      <trkpt lat="42.03994" lon="25.13187">
        <ele>226.855947</ele>
        <time>2022-03-03T08:27:05.432Z</time>
      </trkpt>
      <trkpt lat="42.03993" lon="25.13175">
        <ele>227.078379</ele>
        <time>2022-03-03T08:27:09.405Z</time>
      </trkpt>
      <trkpt lat="42.03991" lon="25.13162">
        <ele>227.32073</ele>
        <time>2022-03-03T08:27:13.414Z</time>
      </trkpt>
      <trkpt lat="42.0399" lon="25.1315">
        <ele>227.546781</ele>
        <time>2022-03-03T08:27:17.451Z</time>
      </trkpt>
      <trkpt lat="42.03988" lon="25.13135">
        <ele>227.830065</ele>
        <time>2022-03-03T08:27:22.403Z</time>
      </trkpt>
      <trkpt lat="42.03986" lon="25.1312">
        <ele>228.099077</ele>
        <time>2022-03-03T08:27:27.389Z</time>
      </trkpt>
      <trkpt lat="42.03984" lon="25.13108">
        <ele>228.336804</ele>
        <time>2022-03-03T08:27:32.407Z</time>
      </trkpt>
      <trkpt lat="42.03982" lon="25.13096">
        <ele>228.558426</ele>
        <time>2022-03-03T08:27:36.385Z</time>
      </trkpt>
      <trkpt lat="42.03978" lon="25.13082">
        <ele>228.833373</ele>
        <time>2022-03-03T08:27:41.405Z</time>
      </trkpt>
      <trkpt lat="42.03975" lon="25.1307">
        <ele>229.058251</ele>
        <time>2022-03-03T08:27:45.434Z</time>
      </trkpt>
      <trkpt lat="42.03972" lon="25.13058">
        <ele>229.284112</ele>
        <time>2022-03-03T08:27:49.389Z</time>
      </trkpt>
      <trkpt lat="42.03969" lon="25.13044">
        <ele>229.557316</ele>
        <time>2022-03-03T08:27:54.405Z</time>
      </trkpt>
      <trkpt lat="42.03966" lon="25.13031">
        <ele>229.809794</ele>
        <time>2022-03-03T08:27:59.399Z</time>
      </trkpt>
      <trkpt lat="42.03964" lon="25.13019">
        <ele>230.032575</ele>
        <time>2022-03-03T08:28:03.419Z</time>
      </trkpt>
      <trkpt lat="42.03961" lon="25.13007">
        <ele>230.263654</ele>
        <time>2022-03-03T08:28:07.448Z</time>
      </trkpt>
      <trkpt lat="42.03958" lon="25.12993">
        <ele>230.537138</ele>
        <time>2022-03-03T08:28:12.406Z</time>
      </trkpt>
      <trkpt lat="42.03955" lon="25.12981">
        <ele>230.652416</ele>
        <time>2022-03-03T08:28:16.433Z</time>
      </trkpt>
      <trkpt lat="42.03952" lon="25.12968">
        <ele>230.71626</ele>
        <time>2022-03-03T08:28:20.406Z</time>
      </trkpt>
      <trkpt lat="42.0395" lon="25.12955">
        <ele>230.77687</ele>
        <time>2022-03-03T08:28:24.385Z</time>
      </trkpt>
      <trkpt lat="42.03948" lon="25.12943">
        <ele>230.837124</ele>
        <time>2022-03-03T08:28:28.401Z</time>
      </trkpt>
      <trkpt lat="42.03945" lon="25.1293">
        <ele>230.902836</ele>
        <time>2022-03-03T08:28:32.406Z</time>
      </trkpt>
      <trkpt lat="42.03941" lon="25.12917">
        <ele>230.967855</ele>
        <time>2022-03-03T08:28:36.417Z</time>
      </trkpt>
      <trkpt lat="42.03937" lon="25.12904">
        <ele>231.034209</ele>
        <time>2022-03-03T08:28:40.408Z</time>
      </trkpt>
      <trkpt lat="42.03934" lon="25.12892">
        <ele>231.095911</ele>
        <time>2022-03-03T08:28:44.394Z</time>
      </trkpt>
      <trkpt lat="42.03931" lon="25.12879">
        <ele>231.158575</ele>
        <time>2022-03-03T08:28:48.395Z</time>
      </trkpt>
      <trkpt lat="42.03928" lon="25.12867">
        <ele>231.217803</ele>
        <time>2022-03-03T08:28:52.404Z</time>
      </trkpt>
      <trkpt lat="42.03925" lon="25.12856">
        <ele>231.275294</ele>
        <time>2022-03-03T08:28:56.407Z</time>
      </trkpt>
      <trkpt lat="42.03922" lon="25.12842">
        <ele>231.34326</ele>
        <time>2022-03-03T08:29:00.398Z</time>
      </trkpt>
      <trkpt lat="42.03919" lon="25.12829">
        <ele>231.408501</ele>
        <time>2022-03-03T08:29:04.386Z</time>
      </trkpt>
      <trkpt lat="42.03917" lon="25.12815">
        <ele>231.479275</ele>
        <time>2022-03-03T08:29:09.431Z</time>
      </trkpt>
      <trkpt lat="42.03914" lon="25.12803">
        <ele>231.538656</ele>
        <time>2022-03-03T08:29:13.414Z</time>
      </trkpt>
      <trkpt lat="42.03911" lon="25.1279">
        <ele>231.599507</ele>
        <time>2022-03-03T08:29:17.406Z</time>
      </trkpt>
      <trkpt lat="42.03908" lon="25.12777">
        <ele>231.66567</ele>
        <time>2022-03-03T08:29:21.403Z</time>
      </trkpt>
      <trkpt lat="42.03905" lon="25.12762">
        <ele>231.738719</ele>
        <time>2022-03-03T08:29:25.443Z</time>
      </trkpt>
      <trkpt lat="42.03901" lon="25.12748">
        <ele>231.980539</ele>
        <time>2022-03-03T08:29:29.394Z</time>
      </trkpt>
      <trkpt lat="42.03898" lon="25.12736">
        <ele>232.24447</ele>
        <time>2022-03-03T08:29:32.397Z</time>
      </trkpt>
      <trkpt lat="42.03894" lon="25.12721">
        <ele>232.561462</ele>
        <time>2022-03-03T08:29:36.402Z</time>
      </trkpt>
      <trkpt lat="42.03892" lon="25.1271">
        <ele>232.810853</ele>
        <time>2022-03-03T08:29:39.407Z</time>
      </trkpt>
      <trkpt lat="42.03889" lon="25.12694">
        <ele>233.136906</ele>
        <time>2022-03-03T08:29:43.401Z</time>
      </trkpt>
      <trkpt lat="42.03886" lon="25.12679">
        <ele>233.465986</ele>
        <time>2022-03-03T08:29:47.399Z</time>
      </trkpt>
      <trkpt lat="42.03883" lon="25.12667">
        <ele>233.721038</ele>
        <time>2022-03-03T08:29:50.403Z</time>
      </trkpt>
      <trkpt lat="42.0388" lon="25.12653">
        <ele>234.023269</ele>
        <time>2022-03-03T08:29:54.387Z</time>
      </trkpt>
      <trkpt lat="42.03876" lon="25.12639">
        <ele>234.329448</ele>
        <time>2022-03-03T08:29:58.399Z</time>
      </trkpt>
      <trkpt lat="42.03873" lon="25.12626">
        <ele>234.606873</ele>
        <time>2022-03-03T08:30:02.400Z</time>
      </trkpt>
      <trkpt lat="42.03869" lon="25.12614">
        <ele>234.876783</ele>
        <time>2022-03-03T08:30:06.407Z</time>
      </trkpt>
      <trkpt lat="42.03865" lon="25.12603">
        <ele>235.142089</ele>
        <time>2022-03-03T08:30:10.406Z</time>
      </trkpt>
      <trkpt lat="42.0386" lon="25.12591">
        <ele>235.420664</ele>
        <time>2022-03-03T08:30:14.415Z</time>
      </trkpt>
      <trkpt lat="42.03855" lon="25.1258">
        <ele>235.690294</ele>
        <time>2022-03-03T08:30:18.393Z</time>
      </trkpt>
      <trkpt lat="42.03849" lon="25.1257">
        <ele>235.943405</ele>
        <time>2022-03-03T08:30:22.391Z</time>
      </trkpt>
      <trkpt lat="42.03843" lon="25.12558">
        <ele>236.241891</ele>
        <time>2022-03-03T08:30:27.449Z</time>
      </trkpt>
      <trkpt lat="42.03836" lon="25.12549">
        <ele>236.513291</ele>
        <time>2022-03-03T08:30:31.394Z</time>
      </trkpt>
      <trkpt lat="42.03829" lon="25.12538">
        <ele>236.684409</ele>
        <time>2022-03-03T08:30:35.402Z</time>
      </trkpt>
      <trkpt lat="42.03821" lon="25.12528">
        <ele>236.34233</ele>
        <time>2022-03-03T08:30:39.422Z</time>
      </trkpt>
      <trkpt lat="42.03812" lon="25.12517">
        <ele>236.001755</ele>
        <time>2022-03-03T08:30:43.395Z</time>
      </trkpt>
      <trkpt lat="42.03805" lon="25.12507">
        <ele>235.683056</ele>
        <time>2022-03-03T08:30:47.387Z</time>
      </trkpt>
      <trkpt lat="42.03796" lon="25.12498">
        <ele>235.369627</ele>
        <time>2022-03-03T08:30:51.404Z</time>
      </trkpt>
      <trkpt lat="42.03789" lon="25.1249">
        <ele>235.080135</ele>
        <time>2022-03-03T08:30:55.454Z</time>
      </trkpt>
      <trkpt lat="42.03781" lon="25.12481">
        <ele>234.767856</ele>
        <time>2022-03-03T08:30:59.398Z</time>
      </trkpt>
      <trkpt lat="42.03772" lon="25.12474">
        <ele>234.470484</ele>
        <time>2022-03-03T08:31:03.407Z</time>
      </trkpt>
      <trkpt lat="42.03762" lon="25.12467">
        <ele>234.132042</ele>
        <time>2022-03-03T08:31:07.435Z</time>
      </trkpt>
      <trkpt lat="42.03754" lon="25.12461">
        <ele>233.862831</ele>
        <time>2022-03-03T08:31:10.407Z</time>
      </trkpt>
      <trkpt lat="42.03744" lon="25.12454">
        <ele>233.519114</ele>
        <time>2022-03-03T08:31:14.405Z</time>
      </trkpt>
      <trkpt lat="42.03736" lon="25.12448">
        <ele>233.24267</ele>
        <time>2022-03-03T08:31:17.429Z</time>
      </trkpt>
      <trkpt lat="42.03728" lon="25.12443">
        <ele>232.964939</ele>
        <time>2022-03-03T08:31:20.407Z</time>
      </trkpt>
      <trkpt lat="42.03719" lon="25.12438">
        <ele>232.68157</ele>
        <time>2022-03-03T08:31:23.447Z</time>
      </trkpt>
      <trkpt lat="42.03709" lon="25.12433">
        <ele>232.371907</ele>
        <time>2022-03-03T08:31:26.403Z</time>
      </trkpt>
      <trkpt lat="42.037" lon="25.12427">
        <ele>232.082354</ele>
        <time>2022-03-03T08:31:29.437Z</time>
      </trkpt>
      <trkpt lat="42.03691" lon="25.12422">
        <ele>231.776292</ele>
        <time>2022-03-03T08:31:32.429Z</time>
      </trkpt>
      <trkpt lat="42.03682" lon="25.12417">
        <ele>231.486192</ele>
        <time>2022-03-03T08:31:35.441Z</time>
      </trkpt>
      <trkpt lat="42.03673" lon="25.12414">
        <ele>231.571612</ele>
        <time>2022-03-03T08:31:38.392Z</time>
      </trkpt>
      <trkpt lat="42.03664" lon="25.1241">
        <ele>231.874494</ele>
        <time>2022-03-03T08:31:41.406Z</time>
      </trkpt>
      <trkpt lat="42.03654" lon="25.12405">
        <ele>232.190907</ele>
        <time>2022-03-03T08:31:44.422Z</time>
      </trkpt>
      <trkpt lat="42.03645" lon="25.124">
        <ele>232.513558</ele>
        <time>2022-03-03T08:31:47.405Z</time>
      </trkpt>
      <trkpt lat="42.03636" lon="25.12395">
        <ele>232.810841</ele>
        <time>2022-03-03T08:31:50.408Z</time>
      </trkpt>
      <trkpt lat="42.03627" lon="25.12387">
        <ele>233.160117</ele>
        <time>2022-03-03T08:31:54.383Z</time>
      </trkpt>
      <trkpt lat="42.03618" lon="25.12379">
        <ele>233.510044</ele>
        <time>2022-03-03T08:31:58.409Z</time>
      </trkpt>
      <trkpt lat="42.0361" lon="25.12372">
        <ele>233.803804</ele>
        <time>2022-03-03T08:32:01.400Z</time>
      </trkpt>
      <trkpt lat="42.03602" lon="25.12361">
        <ele>234.155552</ele>
        <time>2022-03-03T08:32:05.387Z</time>
      </trkpt>
      <trkpt lat="42.03594" lon="25.12351">
        <ele>234.513552</ele>
        <time>2022-03-03T08:32:09.384Z</time>
      </trkpt>
      <trkpt lat="42.03585" lon="25.12341">
        <ele>234.884918</ele>
        <time>2022-03-03T08:32:13.402Z</time>
      </trkpt>
      <trkpt lat="42.03577" lon="25.12329">
        <ele>235.25655</ele>
        <time>2022-03-03T08:32:17.398Z</time>
      </trkpt>
      <trkpt lat="42.03571" lon="25.1232">
        <ele>235.546731</ele>
        <time>2022-03-03T08:32:20.394Z</time>
      </trkpt>
      <trkpt lat="42.03563" lon="25.12308">
        <ele>235.928002</ele>
        <time>2022-03-03T08:32:24.394Z</time>
      </trkpt>
      <trkpt lat="42.03557" lon="25.12298">
        <ele>236.221342</ele>
        <time>2022-03-03T08:32:27.408Z</time>
      </trkpt>
      <trkpt lat="42.0355" lon="25.12286">
        <ele>236.580777</ele>
        <time>2022-03-03T08:32:31.398Z</time>
      </trkpt>
      <trkpt lat="42.03543" lon="25.12274">
        <ele>236.936403</ele>
        <time>2022-03-03T08:32:35.397Z</time>
      </trkpt>
      <trkpt lat="42.03536" lon="25.12263">
        <ele>237.169205</ele>
        <time>2022-03-03T08:32:39.404Z</time>
      </trkpt>
      <trkpt lat="42.03531" lon="25.12253">
        <ele>237.291223</ele>
        <time>2022-03-03T08:32:42.397Z</time>
      </trkpt>
      <trkpt lat="42.03525" lon="25.12243">
        <ele>237.413243</ele>
        <time>2022-03-03T08:32:45.399Z</time>
      </trkpt>
      <trkpt lat="42.0352" lon="25.12233">
        <ele>237.532307</ele>
        <time>2022-03-03T08:32:48.402Z</time>
      </trkpt>
      <trkpt lat="42.03514" lon="25.12223">
        <ele>237.653581</ele>
        <time>2022-03-03T08:32:51.411Z</time>
      </trkpt>
      <trkpt lat="42.03508" lon="25.12214">
        <ele>237.77247</ele>
        <time>2022-03-03T08:32:54.386Z</time>
      </trkpt>
      <trkpt lat="42.03501" lon="25.12201">
        <ele>237.926768</ele>
        <time>2022-03-03T08:32:58.400Z</time>
      </trkpt>
      <trkpt lat="42.03495" lon="25.12192">
        <ele>238.045755</ele>
        <time>2022-03-03T08:33:01.388Z</time>
      </trkpt>
      <trkpt lat="42.03488" lon="25.1218">
        <ele>238.20156</ele>
        <time>2022-03-03T08:33:05.400Z</time>
      </trkpt>
      <trkpt lat="42.03482" lon="25.1217">
        <ele>238.320846</ele>
        <time>2022-03-03T08:33:08.412Z</time>
      </trkpt>
      <trkpt lat="42.03474" lon="25.12158">
        <ele>238.476831</ele>
        <time>2022-03-03T08:33:12.389Z</time>
      </trkpt>
      <trkpt lat="42.03469" lon="25.12146">
        <ele>238.61408</ele>
        <time>2022-03-03T08:33:16.400Z</time>
      </trkpt>
      <trkpt lat="42.03462" lon="25.12133">
        <ele>238.76435</ele>
        <time>2022-03-03T08:33:20.399Z</time>
      </trkpt>
      <trkpt lat="42.03456" lon="25.12121">
        <ele>238.910725</ele>
        <time>2022-03-03T08:33:24.382Z</time>
      </trkpt>
      <trkpt lat="42.03449" lon="25.12109">
        <ele>239.053128</ele>
        <time>2022-03-03T08:33:28.390Z</time>
      </trkpt>
      <trkpt lat="42.03443" lon="25.121">
        <ele>239.176343</ele>
        <time>2022-03-03T08:33:31.439Z</time>
      </trkpt>
      <trkpt lat="42.03437" lon="25.12088">
        <ele>239.318701</ele>
        <time>2022-03-03T08:33:35.479Z</time>
      </trkpt>
      <trkpt lat="42.0343" lon="25.12077">
        <ele>239.465848</ele>
        <time>2022-03-03T08:33:39.381Z</time>
      </trkpt>
      <trkpt lat="42.03423" lon="25.12068">
        <ele>239.624125</ele>
        <time>2022-03-03T08:33:42.403Z</time>
      </trkpt>
      <trkpt lat="42.03417" lon="25.12058">
        <ele>239.780665</ele>
        <time>2022-03-03T08:33:45.383Z</time>
      </trkpt>
      <trkpt lat="42.03411" lon="25.12046">
        <ele>239.974725</ele>
        <time>2022-03-03T08:33:49.445Z</time>
      </trkpt>
      <trkpt lat="42.03404" lon="25.12034">
        <ele>240.159646</ele>
        <time>2022-03-03T08:33:53.409Z</time>
      </trkpt>
      <trkpt lat="42.03398" lon="25.12022">
        <ele>240.348829</ele>
        <time>2022-03-03T08:33:57.409Z</time>
      </trkpt>
      <trkpt lat="42.03392" lon="25.12013">
        <ele>240.501889</ele>
        <time>2022-03-03T08:34:00.462Z</time>
      </trkpt>
      <trkpt lat="42.03386" lon="25.12003">
        <ele>240.666096</ele>
        <time>2022-03-03T08:34:03.405Z</time>
      </trkpt>
      <trkpt lat="42.03378" lon="25.11991">
        <ele>240.864373</ele>
        <time>2022-03-03T08:34:07.389Z</time>
      </trkpt>
      <trkpt lat="42.03371" lon="25.11978">
        <ele>241.071645</ele>
        <time>2022-03-03T08:34:11.438Z</time>
      </trkpt>
      <trkpt lat="42.03365" lon="25.11966">
        <ele>241.256563</ele>
        <time>2022-03-03T08:34:15.401Z</time>
      </trkpt>
      <trkpt lat="42.03358" lon="25.11954">
        <ele>241.445543</ele>
        <time>2022-03-03T08:34:19.401Z</time>
      </trkpt>
      <trkpt lat="42.03352" lon="25.11942">
        <ele>241.638735</ele>
        <time>2022-03-03T08:34:23.439Z</time>
      </trkpt>
      <trkpt lat="42.03346" lon="25.11928">
        <ele>241.827841</ele>
        <time>2022-03-03T08:34:27.405Z</time>
      </trkpt>
      <trkpt lat="42.03341" lon="25.11915">
        <ele>242.018042</ele>
        <time>2022-03-03T08:34:31.409Z</time>
      </trkpt>
      <trkpt lat="42.03335" lon="25.11902">
        <ele>242.210194</ele>
        <time>2022-03-03T08:34:35.389Z</time>
      </trkpt>
      <trkpt lat="42.03331" lon="25.11891">
        <ele>242.368638</ele>
        <time>2022-03-03T08:34:38.399Z</time>
      </trkpt>
      <trkpt lat="42.03327" lon="25.1188">
        <ele>242.486955</ele>
        <time>2022-03-03T08:34:41.399Z</time>
      </trkpt>
      <trkpt lat="42.03323" lon="25.11867">
        <ele>242.273703</ele>
        <time>2022-03-03T08:34:44.390Z</time>
      </trkpt>
      <trkpt lat="42.0332" lon="25.11855">
        <ele>242.076648</ele>
        <time>2022-03-03T08:34:47.421Z</time>
      </trkpt>
      <trkpt lat="42.03316" lon="25.11844">
        <ele>241.884186</ele>
        <time>2022-03-03T08:34:50.410Z</time>
      </trkpt>
      <trkpt lat="42.03311" lon="25.11833">
        <ele>241.676317</ele>
        <time>2022-03-03T08:34:53.411Z</time>
      </trkpt>
      <trkpt lat="42.03307" lon="25.11822">
        <ele>241.470911</ele>
        <time>2022-03-03T08:34:56.387Z</time>
      </trkpt>
      <trkpt lat="42.03302" lon="25.11811">
        <ele>241.269424</ele>
        <time>2022-03-03T08:34:59.393Z</time>
      </trkpt>
      <trkpt lat="42.03299" lon="25.11799">
        <ele>241.072368</ele>
        <time>2022-03-03T08:35:02.418Z</time>
      </trkpt>
      <trkpt lat="42.03295" lon="25.11787">
        <ele>240.86806</ele>
        <time>2022-03-03T08:35:05.408Z</time>
      </trkpt>
      <trkpt lat="42.03291" lon="25.11774">
        <ele>240.631788</ele>
        <time>2022-03-03T08:35:08.404Z</time>
      </trkpt>
      <trkpt lat="42.03286" lon="25.11759">
        <ele>240.371852</ele>
        <time>2022-03-03T08:35:11.400Z</time>
      </trkpt>
      <trkpt lat="42.03279" lon="25.11746">
        <ele>240.124107</ele>
        <time>2022-03-03T08:35:14.391Z</time>
      </trkpt>
      <trkpt lat="42.03271" lon="25.11736">
        <ele>239.887875</ele>
        <time>2022-03-03T08:35:17.401Z</time>
      </trkpt>
      <trkpt lat="42.03263" lon="25.11725">
        <ele>239.643723</ele>
        <time>2022-03-03T08:35:20.403Z</time>
      </trkpt>
      <trkpt lat="42.03255" lon="25.11716">
        <ele>239.427996</ele>
        <time>2022-03-03T08:35:23.472Z</time>
      </trkpt>
      <trkpt lat="42.03246" lon="25.11708">
        <ele>239.196839</ele>
        <time>2022-03-03T08:35:26.384Z</time>
      </trkpt>
      <trkpt lat="42.03239" lon="25.11698">
        <ele>238.981594</ele>
        <time>2022-03-03T08:35:29.391Z</time>
      </trkpt>
      <trkpt lat="42.03231" lon="25.11689">
        <ele>238.760979</ele>
        <time>2022-03-03T08:35:32.410Z</time>
      </trkpt>
      <trkpt lat="42.03223" lon="25.1168">
        <ele>238.675422</ele>
        <time>2022-03-03T08:35:35.389Z</time>
      </trkpt>
      <trkpt lat="42.03215" lon="25.11671">
        <ele>238.702657</ele>
        <time>2022-03-03T08:35:38.419Z</time>
      </trkpt>
      <trkpt lat="42.03207" lon="25.1166">
        <ele>238.730649</ele>
        <time>2022-03-03T08:35:41.393Z</time>
      </trkpt>
      <trkpt lat="42.03199" lon="25.11651">
        <ele>238.756889</ele>
        <time>2022-03-03T08:35:44.390Z</time>
      </trkpt>
      <trkpt lat="42.0319" lon="25.11642">
        <ele>238.784415</ele>
        <time>2022-03-03T08:35:47.416Z</time>
      </trkpt>
      <trkpt lat="42.03182" lon="25.11632">
        <ele>238.812031</ele>
        <time>2022-03-03T08:35:50.390Z</time>
      </trkpt>
      <trkpt lat="42.03174" lon="25.11624">
        <ele>238.837909</ele>
        <time>2022-03-03T08:35:53.403Z</time>
      </trkpt>
      <trkpt lat="42.03167" lon="25.11615">
        <ele>238.863266</ele>
        <time>2022-03-03T08:35:56.406Z</time>
      </trkpt>
      <trkpt lat="42.03158" lon="25.11606">
        <ele>238.890046</ele>
        <time>2022-03-03T08:35:59.397Z</time>
      </trkpt>
      <trkpt lat="42.0315" lon="25.11598">
        <ele>238.916233</ele>
        <time>2022-03-03T08:36:02.412Z</time>
      </trkpt>
      <trkpt lat="42.03142" lon="25.11588">
        <ele>238.9431</ele>
        <time>2022-03-03T08:36:05.404Z</time>
      </trkpt>
      <trkpt lat="42.03134" lon="25.11579">
        <ele>238.969646</ele>
        <time>2022-03-03T08:36:08.398Z</time>
      </trkpt>
      <trkpt lat="42.03126" lon="25.11568">
        <ele>238.997895</ele>
        <time>2022-03-03T08:36:11.406Z</time>
      </trkpt>
      <trkpt lat="42.03118" lon="25.11558">
        <ele>239.025963</ele>
        <time>2022-03-03T08:36:14.383Z</time>
      </trkpt>
      <trkpt lat="42.0311" lon="25.11549">
        <ele>239.051603</ele>
        <time>2022-03-03T08:36:17.401Z</time>
      </trkpt>
      <trkpt lat="42.03102" lon="25.11541">
        <ele>239.077482</ele>
        <time>2022-03-03T08:36:20.413Z</time>
      </trkpt>
      <trkpt lat="42.03095" lon="25.11532">
        <ele>239.102337</ele>
        <time>2022-03-03T08:36:23.403Z</time>
      </trkpt>
      <trkpt lat="42.03088" lon="25.11523">
        <ele>239.180853</ele>
        <time>2022-03-03T08:36:26.446Z</time>
      </trkpt>
      <trkpt lat="42.03081" lon="25.11515">
        <ele>239.314589</ele>
        <time>2022-03-03T08:36:29.402Z</time>
      </trkpt>
      <trkpt lat="42.03074" lon="25.11507">
        <ele>239.458288</ele>
        <time>2022-03-03T08:36:32.401Z</time>
      </trkpt>
      <trkpt lat="42.03066" lon="25.11498">
        <ele>239.602278</ele>
        <time>2022-03-03T08:36:35.424Z</time>
      </trkpt>
      <trkpt lat="42.03059" lon="25.1149">
        <ele>239.747809</ele>
        <time>2022-03-03T08:36:38.438Z</time>
      </trkpt>
      <trkpt lat="42.03051" lon="25.11481">
        <ele>239.89287</ele>
        <time>2022-03-03T08:36:41.445Z</time>
      </trkpt>
      <trkpt lat="42.03044" lon="25.11471">
        <ele>240.039272</ele>
        <time>2022-03-03T08:36:44.386Z</time>
      </trkpt>
      <trkpt lat="42.03036" lon="25.11463">
        <ele>240.190748</ele>
        <time>2022-03-03T08:36:47.402Z</time>
      </trkpt>
      <trkpt lat="42.03029" lon="25.11454">
        <ele>240.339248</ele>
        <time>2022-03-03T08:36:50.401Z</time>
      </trkpt>
      <trkpt lat="42.0302" lon="25.11446">
        <ele>240.493912</ele>
        <time>2022-03-03T08:36:53.409Z</time>
      </trkpt>
      <trkpt lat="42.03011" lon="25.11438">
        <ele>240.645489</ele>
        <time>2022-03-03T08:36:56.391Z</time>
      </trkpt>
      <trkpt lat="42.03003" lon="25.1143">
        <ele>240.805657</ele>
        <time>2022-03-03T08:36:59.409Z</time>
      </trkpt>
      <trkpt lat="42.02995" lon="25.11421">
        <ele>240.954423</ele>
        <time>2022-03-03T08:37:02.384Z</time>
      </trkpt>
      <trkpt lat="42.02986" lon="25.11414">
        <ele>241.105348</ele>
        <time>2022-03-03T08:37:05.428Z</time>
      </trkpt>
      <trkpt lat="42.02977" lon="25.11404">
        <ele>241.270132</ele>
        <time>2022-03-03T08:37:08.395Z</time>
      </trkpt>
      <trkpt lat="42.02968" lon="25.11396">
        <ele>241.4302</ele>
        <time>2022-03-03T08:37:11.393Z</time>
      </trkpt>
      <trkpt lat="42.02959" lon="25.11388">
        <ele>241.589658</ele>
        <time>2022-03-03T08:37:14.391Z</time>
      </trkpt>
      <trkpt lat="42.0295" lon="25.1138">
        <ele>241.752808</ele>
        <time>2022-03-03T08:37:17.414Z</time>
      </trkpt>
      <trkpt lat="42.02942" lon="25.11372">
        <ele>242.022741</ele>
        <time>2022-03-03T08:37:20.388Z</time>
      </trkpt>
      <trkpt lat="42.02933" lon="25.11364">
        <ele>242.295963</ele>
        <time>2022-03-03T08:37:23.396Z</time>
      </trkpt>
      <trkpt lat="42.02925" lon="25.11356">
        <ele>242.570053</ele>
        <time>2022-03-03T08:37:26.443Z</time>
      </trkpt>
      <trkpt lat="42.02917" lon="25.11349">
        <ele>242.840785</ele>
        <time>2022-03-03T08:37:29.409Z</time>
      </trkpt>
      <trkpt lat="42.02909" lon="25.11341">
        <ele>243.108133</ele>
        <time>2022-03-03T08:37:32.408Z</time>
      </trkpt>
      <trkpt lat="42.02901" lon="25.11335">
        <ele>243.356351</ele>
        <time>2022-03-03T08:37:35.410Z</time>
      </trkpt>
      <trkpt lat="42.02894" lon="25.11327">
        <ele>243.608141</ele>
        <time>2022-03-03T08:37:38.387Z</time>
      </trkpt>
      <trkpt lat="42.02887" lon="25.11318">
        <ele>243.864293</ele>
        <time>2022-03-03T08:37:41.393Z</time>
      </trkpt>
      <trkpt lat="42.0288" lon="25.11308">
        <ele>244.131135</ele>
        <time>2022-03-03T08:37:44.400Z</time>
      </trkpt>
      <trkpt lat="42.02874" lon="25.11298">
        <ele>244.394875</ele>
        <time>2022-03-03T08:37:47.399Z</time>
      </trkpt>
      <trkpt lat="42.02868" lon="25.11289">
        <ele>244.648769</ele>
        <time>2022-03-03T08:37:50.401Z</time>
      </trkpt>
      <trkpt lat="42.02861" lon="25.11279">
        <ele>244.924443</ele>
        <time>2022-03-03T08:37:53.408Z</time>
      </trkpt>
      <trkpt lat="42.02854" lon="25.11268">
        <ele>245.208225</ele>
        <time>2022-03-03T08:37:56.400Z</time>
      </trkpt>
      <trkpt lat="42.02847" lon="25.11258">
        <ele>245.48489</ele>
        <time>2022-03-03T08:37:59.434Z</time>
      </trkpt>
      <trkpt lat="42.0284" lon="25.11247">
        <ele>245.765691</ele>
        <time>2022-03-03T08:38:02.393Z</time>
      </trkpt>
      <trkpt lat="42.02834" lon="25.11236">
        <ele>246.050461</ele>
        <time>2022-03-03T08:38:05.409Z</time>
      </trkpt>
      <trkpt lat="42.02827" lon="25.11228">
        <ele>246.305335</ele>
        <time>2022-03-03T08:38:08.411Z</time>
      </trkpt>
      <trkpt lat="42.0282" lon="25.11219">
        <ele>246.551883</ele>
        <time>2022-03-03T08:38:11.402Z</time>
      </trkpt>
      <trkpt lat="42.02813" lon="25.11211">
        <ele>246.59761</ele>
        <time>2022-03-03T08:38:14.405Z</time>
      </trkpt>
      <trkpt lat="42.02806" lon="25.11201">
        <ele>246.540229</ele>
        <time>2022-03-03T08:38:17.401Z</time>
      </trkpt>
      <trkpt lat="42.028" lon="25.11191">
        <ele>246.488435</ele>
        <time>2022-03-03T08:38:20.402Z</time>
      </trkpt>
      <trkpt lat="42.02793" lon="25.11181">
        <ele>246.436034</ele>
        <time>2022-03-03T08:38:23.416Z</time>
      </trkpt>
      <trkpt lat="42.02787" lon="25.11171">
        <ele>246.381329</ele>
        <time>2022-03-03T08:38:26.402Z</time>
      </trkpt>
      <trkpt lat="42.02781" lon="25.11162">
        <ele>246.330465</ele>
        <time>2022-03-03T08:38:29.402Z</time>
      </trkpt>
      <trkpt lat="42.02773" lon="25.11151">
        <ele>246.273377</ele>
        <time>2022-03-03T08:38:32.431Z</time>
      </trkpt>
      <trkpt lat="42.02766" lon="25.11141">
        <ele>246.21763</ele>
        <time>2022-03-03T08:38:35.408Z</time>
      </trkpt>
      <trkpt lat="42.0276" lon="25.11131">
        <ele>246.163413</ele>
        <time>2022-03-03T08:38:38.420Z</time>
      </trkpt>
      <trkpt lat="42.02752" lon="25.1112">
        <ele>246.098525</ele>
        <time>2022-03-03T08:38:42.409Z</time>
      </trkpt>
      <trkpt lat="42.02743" lon="25.11107">
        <ele>246.030959</ele>
        <time>2022-03-03T08:38:46.402Z</time>
      </trkpt>
      <trkpt lat="42.02737" lon="25.11098">
        <ele>245.979291</ele>
        <time>2022-03-03T08:38:49.398Z</time>
      </trkpt>
      <trkpt lat="42.02731" lon="25.11086">
        <ele>245.920474</ele>
        <time>2022-03-03T08:38:53.397Z</time>
      </trkpt>
      <trkpt lat="42.02727" lon="25.11071">
        <ele>245.857527</ele>
        <time>2022-03-03T08:38:57.394Z</time>
      </trkpt>
      <trkpt lat="42.02726" lon="25.11058">
        <ele>245.803748</ele>
        <time>2022-03-03T08:39:00.403Z</time>
      </trkpt>
      <trkpt lat="42.02726" lon="25.11043">
        <ele>245.741151</ele>
        <time>2022-03-03T08:39:04.383Z</time>
      </trkpt>
      <trkpt lat="42.02726" lon="25.11029">
        <ele>245.685437</ele>
        <time>2022-03-03T08:39:08.405Z</time>
      </trkpt>
      <trkpt lat="42.02729" lon="25.11014">
        <ele>245.671742</ele>
        <time>2022-03-03T08:39:12.389Z</time>
      </trkpt>
      <trkpt lat="42.02732" lon="25.11">
        <ele>245.716797</ele>
        <time>2022-03-03T08:39:16.392Z</time>
      </trkpt>
      <trkpt lat="42.02734" lon="25.10985">
        <ele>245.765993</ele>
        <time>2022-03-03T08:39:20.391Z</time>
      </trkpt>
      <trkpt lat="42.02737" lon="25.10973">
        <ele>245.804497</ele>
        <time>2022-03-03T08:39:23.395Z</time>
      </trkpt>
      <trkpt lat="42.02738" lon="25.1096">
        <ele>245.84445</ele>
        <time>2022-03-03T08:39:26.402Z</time>
      </trkpt>
      <trkpt lat="42.02739" lon="25.10948">
        <ele>245.885071</ele>
        <time>2022-03-03T08:39:29.401Z</time>
      </trkpt>
      <trkpt lat="42.0274" lon="25.10935">
        <ele>245.926106</ele>
        <time>2022-03-03T08:39:32.403Z</time>
      </trkpt>
      <trkpt lat="42.02741" lon="25.10922">
        <ele>245.964242</ele>
        <time>2022-03-03T08:39:35.394Z</time>
      </trkpt>
      <trkpt lat="42.02742" lon="25.1091">
        <ele>246.003145</ele>
        <time>2022-03-03T08:39:38.388Z</time>
      </trkpt>
      <trkpt lat="42.02741" lon="25.10897">
        <ele>246.044965</ele>
        <time>2022-03-03T08:39:41.405Z</time>
      </trkpt>
      <trkpt lat="42.02738" lon="25.10884">
        <ele>246.087128</ele>
        <time>2022-03-03T08:39:44.388Z</time>
      </trkpt>
      <trkpt lat="42.02733" lon="25.1087">
        <ele>246.135347</ele>
        <time>2022-03-03T08:39:48.390Z</time>
      </trkpt>
      <trkpt lat="42.02727" lon="25.10858">
        <ele>246.182825</ele>
        <time>2022-03-03T08:39:52.411Z</time>
      </trkpt>
      <trkpt lat="42.0272" lon="25.10846">
        <ele>246.230066</ele>
        <time>2022-03-03T08:39:56.405Z</time>
      </trkpt>
      <trkpt lat="42.02712" lon="25.10835">
        <ele>246.275802</ele>
        <time>2022-03-03T08:40:00.387Z</time>
      </trkpt>
      <trkpt lat="42.02705" lon="25.10825">
        <ele>246.317238</ele>
        <time>2022-03-03T08:40:03.386Z</time>
      </trkpt>
      <trkpt lat="42.02699" lon="25.10816">
        <ele>246.35806</ele>
        <time>2022-03-03T08:40:06.403Z</time>
      </trkpt>
      <trkpt lat="42.02692" lon="25.10805">
        <ele>246.401403</ele>
        <time>2022-03-03T08:40:09.407Z</time>
      </trkpt>
      <trkpt lat="42.02687" lon="25.10796">
        <ele>246.622298</ele>
        <time>2022-03-03T08:40:12.408Z</time>
      </trkpt>
      <trkpt lat="42.02681" lon="25.10785">
        <ele>246.906387</ele>
        <time>2022-03-03T08:40:15.413Z</time>
      </trkpt>
      <trkpt lat="42.02674" lon="25.10775">
        <ele>247.195006</ele>
        <time>2022-03-03T08:40:18.402Z</time>
      </trkpt>
      <trkpt lat="42.02669" lon="25.10764">
        <ele>247.475652</ele>
        <time>2022-03-03T08:40:21.408Z</time>
      </trkpt>
      <trkpt lat="42.02662" lon="25.10753">
        <ele>247.799948</ele>
        <time>2022-03-03T08:40:25.414Z</time>
      </trkpt>
      <trkpt lat="42.02655" lon="25.1074">
        <ele>248.132596</ele>
        <time>2022-03-03T08:40:29.399Z</time>
      </trkpt>
      <trkpt lat="42.02649" lon="25.10727">
        <ele>248.463134</ele>
        <time>2022-03-03T08:40:33.405Z</time>
      </trkpt>
      <trkpt lat="42.02643" lon="25.10714">
        <ele>248.807119</ele>
        <time>2022-03-03T08:40:37.399Z</time>
      </trkpt>
      <trkpt lat="42.02636" lon="25.10702">
        <ele>249.131012</ele>
        <time>2022-03-03T08:40:41.393Z</time>
      </trkpt>
      <trkpt lat="42.02629" lon="25.10689">
        <ele>249.477572</ele>
        <time>2022-03-03T08:40:45.445Z</time>
      </trkpt>
      <trkpt lat="42.02622" lon="25.10675">
        <ele>249.835085</ele>
        <time>2022-03-03T08:40:49.400Z</time>
      </trkpt>
      <trkpt lat="42.02615" lon="25.10663">
        <ele>250.169475</ele>
        <time>2022-03-03T08:40:53.409Z</time>
      </trkpt>
      <trkpt lat="42.02608" lon="25.10652">
        <ele>250.490687</ele>
        <time>2022-03-03T08:40:57.403Z</time>
      </trkpt>
      <trkpt lat="42.026" lon="25.1064">
        <ele>250.81543</ele>
        <time>2022-03-03T08:41:01.389Z</time>
      </trkpt>
      <trkpt lat="42.02593" lon="25.10628">
        <ele>251.150275</ele>
        <time>2022-03-03T08:41:05.395Z</time>
      </trkpt>
      <trkpt lat="42.02585" lon="25.10617">
        <ele>251.489151</ele>
        <time>2022-03-03T08:41:09.407Z</time>
      </trkpt>
      <trkpt lat="42.02578" lon="25.10608">
        <ele>251.671279</ele>
        <time>2022-03-03T08:41:12.386Z</time>
      </trkpt>
      <trkpt lat="42.0257" lon="25.10598">
        <ele>251.772426</ele>
        <time>2022-03-03T08:41:16.405Z</time>
      </trkpt>
      <trkpt lat="42.02563" lon="25.10588">
        <ele>251.856937</ele>
        <time>2022-03-03T08:41:20.400Z</time>
      </trkpt>
      <trkpt lat="42.02558" lon="25.10577">
        <ele>251.94588</ele>
        <time>2022-03-03T08:41:25.378Z</time>
      </trkpt>
      <trkpt lat="42.02552" lon="25.10567">
        <ele>252.027246</ele>
        <time>2022-03-03T08:41:29.400Z</time>
      </trkpt>
      <trkpt lat="42.02546" lon="25.10557">
        <ele>252.110571</ele>
        <time>2022-03-03T08:41:33.394Z</time>
      </trkpt>
      <trkpt lat="42.02538" lon="25.10547">
        <ele>252.19983</ele>
        <time>2022-03-03T08:41:37.390Z</time>
      </trkpt>
      <trkpt lat="42.02532" lon="25.10539">
        <ele>252.280113</ele>
        <time>2022-03-03T08:41:40.381Z</time>
      </trkpt>
      <trkpt lat="42.02525" lon="25.10529">
        <ele>252.370131</ele>
        <time>2022-03-03T08:41:43.395Z</time>
      </trkpt>
      <trkpt lat="42.02518" lon="25.10519">
        <ele>252.458332</ele>
        <time>2022-03-03T08:41:46.400Z</time>
      </trkpt>
      <trkpt lat="42.02512" lon="25.10509">
        <ele>252.54059</ele>
        <time>2022-03-03T08:41:49.397Z</time>
      </trkpt>
      <trkpt lat="42.02505" lon="25.105">
        <ele>252.628319</ele>
        <time>2022-03-03T08:41:52.397Z</time>
      </trkpt>
      <trkpt lat="42.02498" lon="25.1049">
        <ele>252.714164</ele>
        <time>2022-03-03T08:41:55.422Z</time>
      </trkpt>
      <trkpt lat="42.02492" lon="25.1048">
        <ele>252.794563</ele>
        <time>2022-03-03T08:41:58.402Z</time>
      </trkpt>
      <trkpt lat="42.02486" lon="25.10469">
        <ele>252.889498</ele>
        <time>2022-03-03T08:42:01.388Z</time>
      </trkpt>
      <trkpt lat="42.02479" lon="25.10458">
        <ele>252.977804</ele>
        <time>2022-03-03T08:42:04.386Z</time>
      </trkpt>
      <trkpt lat="42.02473" lon="25.10448">
        <ele>253.064934</ele>
        <time>2022-03-03T08:42:07.404Z</time>
      </trkpt>
      <trkpt lat="42.02466" lon="25.10439">
        <ele>253.148743</ele>
        <time>2022-03-03T08:42:10.393Z</time>
      </trkpt>
      <trkpt lat="42.0246" lon="25.10429">
        <ele>253.144759</ele>
        <time>2022-03-03T08:42:13.405Z</time>
      </trkpt>
      <trkpt lat="42.02454" lon="25.1042">
        <ele>252.942078</ele>
        <time>2022-03-03T08:42:16.387Z</time>
      </trkpt>
      <trkpt lat="42.02448" lon="25.10409">
        <ele>252.721346</ele>
        <time>2022-03-03T08:42:19.435Z</time>
      </trkpt>
      <trkpt lat="42.02442" lon="25.104">
        <ele>252.510831</ele>
        <time>2022-03-03T08:42:22.507Z</time>
      </trkpt>
      <trkpt lat="42.02435" lon="25.1039">
        <ele>252.304374</ele>
        <time>2022-03-03T08:42:25.386Z</time>
      </trkpt>
      <trkpt lat="42.02426" lon="25.10379">
        <ele>252.03504</ele>
        <time>2022-03-03T08:42:29.400Z</time>
      </trkpt>
      <trkpt lat="42.02419" lon="25.10368">
        <ele>251.803669</ele>
        <time>2022-03-03T08:42:32.390Z</time>
      </trkpt>
      <trkpt lat="42.02413" lon="25.10358">
        <ele>251.588243</ele>
        <time>2022-03-03T08:42:35.405Z</time>
      </trkpt>
      <trkpt lat="42.02407" lon="25.10347">
        <ele>251.366364</ele>
        <time>2022-03-03T08:42:38.396Z</time>
      </trkpt>
      <trkpt lat="42.02401" lon="25.10336">
        <ele>251.13921</ele>
        <time>2022-03-03T08:42:41.382Z</time>
      </trkpt>
      <trkpt lat="42.02395" lon="25.10325">
        <ele>250.917087</ele>
        <time>2022-03-03T08:42:44.391Z</time>
      </trkpt>
      <trkpt lat="42.02389" lon="25.10316">
        <ele>250.7181</ele>
        <time>2022-03-03T08:42:47.436Z</time>
      </trkpt>
      <trkpt lat="42.02381" lon="25.10306">
        <ele>250.478699</ele>
        <time>2022-03-03T08:42:51.407Z</time>
      </trkpt>
      <trkpt lat="42.02373" lon="25.10295">
        <ele>250.225399</ele>
        <time>2022-03-03T08:42:55.387Z</time>
      </trkpt>
      <trkpt lat="42.02365" lon="25.10284">
        <ele>249.979407</ele>
        <time>2022-03-03T08:42:59.390Z</time>
      </trkpt>
      <trkpt lat="42.02358" lon="25.10273">
        <ele>249.727909</ele>
        <time>2022-03-03T08:43:03.432Z</time>
      </trkpt>
      <trkpt lat="42.0235" lon="25.10264">
        <ele>249.51375</ele>
        <time>2022-03-03T08:43:06.406Z</time>
      </trkpt>
      <trkpt lat="42.02342" lon="25.10256">
        <ele>249.290389</ele>
        <time>2022-03-03T08:43:09.407Z</time>
      </trkpt>
      <trkpt lat="42.02334" lon="25.10247">
        <ele>249.291892</ele>
        <time>2022-03-03T08:43:12.394Z</time>
      </trkpt>
      <trkpt lat="42.02327" lon="25.10239">
        <ele>249.346158</ele>
        <time>2022-03-03T08:43:15.410Z</time>
      </trkpt>
      <trkpt lat="42.0232" lon="25.10231">
        <ele>249.39972</ele>
        <time>2022-03-03T08:43:18.407Z</time>
      </trkpt>
      <trkpt lat="42.02312" lon="25.10223">
        <ele>249.454644</ele>
        <time>2022-03-03T08:43:21.393Z</time>
      </trkpt>
      <trkpt lat="42.02305" lon="25.10214">
        <ele>249.51027</ele>
        <time>2022-03-03T08:43:24.393Z</time>
      </trkpt>
      <trkpt lat="42.02297" lon="25.10204">
        <ele>249.572782</ele>
        <time>2022-03-03T08:43:27.409Z</time>
      </trkpt>
      <trkpt lat="42.0229" lon="25.10194">
        <ele>249.628269</ele>
        <time>2022-03-03T08:43:30.397Z</time>
      </trkpt>
      <trkpt lat="42.02284" lon="25.10184">
        <ele>249.681962</ele>
        <time>2022-03-03T08:43:33.407Z</time>
      </trkpt>
      <trkpt lat="42.0228" lon="25.10171">
        <ele>249.743305</ele>
        <time>2022-03-03T08:43:37.413Z</time>
      </trkpt>
      <trkpt lat="42.02278" lon="25.10155">
        <ele>249.81031</ele>
        <time>2022-03-03T08:43:41.395Z</time>
      </trkpt>
      <trkpt lat="42.02277" lon="25.10141">
        <ele>249.869104</ele>
        <time>2022-03-03T08:43:45.408Z</time>
      </trkpt>
      <trkpt lat="42.02276" lon="25.10128">
        <ele>249.922712</ele>
        <time>2022-03-03T08:43:49.387Z</time>
      </trkpt>
      <trkpt lat="42.02276" lon="25.10116">
        <ele>249.974449</ele>
        <time>2022-03-03T08:43:53.416Z</time>
      </trkpt>
      <trkpt lat="42.02275" lon="25.10102">
        <ele>250.034725</ele>
        <time>2022-03-03T08:43:58.382Z</time>
      </trkpt>
      <trkpt lat="42.02276" lon="25.10089">
        <ele>250.089975</ele>
        <time>2022-03-03T08:44:03.384Z</time>
      </trkpt>
      <trkpt lat="42.02278" lon="25.10075">
        <ele>250.149419</ele>
        <time>2022-03-03T08:44:08.403Z</time>
      </trkpt>
      <trkpt lat="42.02278" lon="25.10062">
        <ele>250.20368</ele>
        <time>2022-03-03T08:44:13.404Z</time>
      </trkpt>
      <trkpt lat="42.02279" lon="25.10049">
        <ele>250.257964</ele>
        <time>2022-03-03T08:44:18.401Z</time>
      </trkpt>
      <trkpt lat="42.0228" lon="25.10034">
        <ele>250.631064</ele>
        <time>2022-03-03T08:44:23.405Z</time>
      </trkpt>
      <trkpt lat="42.0228" lon="25.1002">
        <ele>251.00396</ele>
        <time>2022-03-03T08:44:28.399Z</time>
      </trkpt>
      <trkpt lat="42.02282" lon="25.10008">
        <ele>251.339098</ele>
        <time>2022-03-03T08:44:33.438Z</time>
      </trkpt>
      <trkpt lat="42.02283" lon="25.09995">
        <ele>251.678647</ele>
        <time>2022-03-03T08:44:39.390Z</time>
      </trkpt>
      <trkpt lat="42.02284" lon="25.09981">
        <ele>252.061487</ele>
        <time>2022-03-03T08:44:44.450Z</time>
      </trkpt>
      <trkpt lat="42.02284" lon="25.09968">
        <ele>252.420424</ele>
        <time>2022-03-03T08:44:49.406Z</time>
      </trkpt>
      <trkpt lat="42.02285" lon="25.09956">
        <ele>252.756176</ele>
        <time>2022-03-03T08:44:54.394Z</time>
      </trkpt>
      <trkpt lat="42.02287" lon="25.09943">
        <ele>253.111417</ele>
        <time>2022-03-03T08:44:59.406Z</time>
      </trkpt>
      <trkpt lat="42.02288" lon="25.09931">
        <ele>253.444819</ele>
        <time>2022-03-03T08:45:04.414Z</time>
      </trkpt>
      <trkpt lat="42.02289" lon="25.09917">
        <ele>253.817715</ele>
        <time>2022-03-03T08:45:10.407Z</time>
      </trkpt>
      <trkpt lat="42.02291" lon="25.09903">
        <ele>254.192396</ele>
        <time>2022-03-03T08:45:15.402Z</time>
      </trkpt>
      <trkpt lat="42.02292" lon="25.09891">
        <ele>254.531167</ele>
        <time>2022-03-03T08:45:20.413Z</time>
      </trkpt>
      <trkpt lat="42.02293" lon="25.09878">
        <ele>254.887238</ele>
        <time>2022-03-03T08:45:25.403Z</time>
      </trkpt>
      <trkpt lat="42.02296" lon="25.09865">
        <ele>255.246865</ele>
        <time>2022-03-03T08:45:30.390Z</time>
      </trkpt>
      <trkpt lat="42.02295" lon="25.09851">
        <ele>255.614016</ele>
        <time>2022-03-03T08:45:35.391Z</time>
      </trkpt>
      <trkpt lat="42.02296" lon="25.09837">
        <ele>255.9948</ele>
        <time>2022-03-03T08:45:40.447Z</time>
      </trkpt>
      <trkpt lat="42.02297" lon="25.09823">
        <ele>256.36849</ele>
        <time>2022-03-03T08:45:45.407Z</time>
      </trkpt>
      <trkpt lat="42.02298" lon="25.09809">
        <ele>256.752639</ele>
        <time>2022-03-03T08:45:50.396Z</time>
      </trkpt>
      <trkpt lat="42.02299" lon="25.09796">
        <ele>257.04234</ele>
        <time>2022-03-03T08:45:56.457Z</time>
      </trkpt>
      <trkpt lat="42.023" lon="25.09781">
        <ele>257.335218</ele>
        <time>2022-03-03T08:46:01.398Z</time>
      </trkpt>
      <trkpt lat="42.02299" lon="25.09767">
        <ele>257.62166</ele>
        <time>2022-03-03T08:46:05.406Z</time>
      </trkpt>
      <trkpt lat="42.02298" lon="25.09753">
        <ele>257.923577</ele>
        <time>2022-03-03T08:46:09.398Z</time>
      </trkpt>
      <trkpt lat="42.02297" lon="25.09739">
        <ele>258.217293</ele>
        <time>2022-03-03T08:46:13.427Z</time>
      </trkpt>
      <trkpt lat="42.02296" lon="25.09726">
        <ele>258.47897</ele>
        <time>2022-03-03T08:46:17.406Z</time>
      </trkpt>
      <trkpt lat="42.02293" lon="25.09713">
        <ele>258.765469</ele>
        <time>2022-03-03T08:46:22.393Z</time>
      </trkpt>
      <trkpt lat="42.02291" lon="25.09698">
        <ele>259.077761</ele>
        <time>2022-03-03T08:46:27.407Z</time>
      </trkpt>
      <trkpt lat="42.02288" lon="25.09685">
        <ele>259.342667</ele>
        <time>2022-03-03T08:46:31.395Z</time>
      </trkpt>
      <trkpt lat="42.02287" lon="25.09673">
        <ele>259.607919</ele>
        <time>2022-03-03T08:46:35.390Z</time>
      </trkpt>
      <trkpt lat="42.02284" lon="25.0966">
        <ele>259.884481</ele>
        <time>2022-03-03T08:46:39.401Z</time>
      </trkpt>
      <trkpt lat="42.02281" lon="25.09647">
        <ele>260.168326</ele>
        <time>2022-03-03T08:46:43.409Z</time>
      </trkpt>
      <trkpt lat="42.02277" lon="25.09635">
        <ele>260.423198</ele>
        <time>2022-03-03T08:46:47.437Z</time>
      </trkpt>
      <trkpt lat="42.02275" lon="25.09621">
        <ele>260.727404</ele>
        <time>2022-03-03T08:46:52.391Z</time>
      </trkpt>
      <trkpt lat="42.02273" lon="25.09608">
        <ele>261.003368</ele>
        <time>2022-03-03T08:46:56.392Z</time>
      </trkpt>
      <trkpt lat="42.02271" lon="25.09595">
        <ele>261.263887</ele>
        <time>2022-03-03T08:47:00.392Z</time>
      </trkpt>
      <trkpt lat="42.02269" lon="25.09581">
        <ele>261.577262</ele>
        <time>2022-03-03T08:47:05.416Z</time>
      </trkpt>
      <trkpt lat="42.02265" lon="25.09569">
        <ele>261.80877</ele>
        <time>2022-03-03T08:47:09.389Z</time>
      </trkpt>
      <trkpt lat="42.02262" lon="25.09557">
        <ele>261.938768</ele>
        <time>2022-03-03T08:47:13.407Z</time>
      </trkpt>
      <trkpt lat="42.02261" lon="25.09542">
        <ele>262.091347</ele>
        <time>2022-03-03T08:47:17.413Z</time>
      </trkpt>
      <trkpt lat="42.02259" lon="25.09529">
        <ele>262.231951</ele>
        <time>2022-03-03T08:47:21.410Z</time>
      </trkpt>
      <trkpt lat="42.02257" lon="25.09516">
        <ele>262.370602</ele>
        <time>2022-03-03T08:47:25.437Z</time>
      </trkpt>
      <trkpt lat="42.02255" lon="25.09503">
        <ele>262.500564</ele>
        <time>2022-03-03T08:47:29.376Z</time>
      </trkpt>
      <trkpt lat="42.02254" lon="25.09491">
        <ele>262.630048</ele>
        <time>2022-03-03T08:47:33.405Z</time>
      </trkpt>
      <trkpt lat="42.02251" lon="25.09479">
        <ele>262.759777</ele>
        <time>2022-03-03T08:47:37.430Z</time>
      </trkpt>
      <trkpt lat="42.02248" lon="25.09466">
        <ele>262.895532</ele>
        <time>2022-03-03T08:47:41.403Z</time>
      </trkpt>
      <trkpt lat="42.02245" lon="25.09453">
        <ele>263.039384</ele>
        <time>2022-03-03T08:47:45.398Z</time>
      </trkpt>
      <trkpt lat="42.02242" lon="25.0944">
        <ele>263.178448</ele>
        <time>2022-03-03T08:47:49.396Z</time>
      </trkpt>
      <trkpt lat="42.0224" lon="25.09427">
        <ele>263.311516</ele>
        <time>2022-03-03T08:47:53.400Z</time>
      </trkpt>
      <trkpt lat="42.02237" lon="25.09415">
        <ele>263.44272</ele>
        <time>2022-03-03T08:47:57.397Z</time>
      </trkpt>
      <trkpt lat="42.02236" lon="25.09402">
        <ele>263.57845</ele>
        <time>2022-03-03T08:48:01.398Z</time>
      </trkpt>
      <trkpt lat="42.02234" lon="25.0939">
        <ele>263.707844</ele>
        <time>2022-03-03T08:48:05.398Z</time>
      </trkpt>
      <trkpt lat="42.02232" lon="25.09378">
        <ele>263.838241</ele>
        <time>2022-03-03T08:48:09.405Z</time>
      </trkpt>
      <trkpt lat="42.0223" lon="25.09365">
        <ele>263.97003</ele>
        <time>2022-03-03T08:48:13.395Z</time>
      </trkpt>
      <trkpt lat="42.02228" lon="25.09353">
        <ele>264.099104</ele>
        <time>2022-03-03T08:48:17.411Z</time>
      </trkpt>
      <trkpt lat="42.02226" lon="25.0934">
        <ele>264.233918</ele>
        <time>2022-03-03T08:48:21.438Z</time>
      </trkpt>
      <trkpt lat="42.02223" lon="25.09327">
        <ele>264.171763</ele>
        <time>2022-03-03T08:48:25.418Z</time>
      </trkpt>
      <trkpt lat="42.02221" lon="25.09313">
        <ele>264.017693</ele>
        <time>2022-03-03T08:48:29.401Z</time>
      </trkpt>
      <trkpt lat="42.02218" lon="25.09301">
        <ele>263.884806</ele>
        <time>2022-03-03T08:48:33.397Z</time>
      </trkpt>
      <trkpt lat="42.02215" lon="25.09289">
        <ele>263.751478</ele>
        <time>2022-03-03T08:48:37.495Z</time>
      </trkpt>
      <trkpt lat="42.02213" lon="25.09277">
        <ele>263.616684</ele>
        <time>2022-03-03T08:48:41.376Z</time>
      </trkpt>
      <trkpt lat="42.02211" lon="25.09265">
        <ele>263.479413</ele>
        <time>2022-03-03T08:48:45.402Z</time>
      </trkpt>
      <trkpt lat="42.02208" lon="25.09253">
        <ele>263.339021</ele>
        <time>2022-03-03T08:48:49.407Z</time>
      </trkpt>
      <trkpt lat="42.02206" lon="25.09239">
        <ele>263.190517</ele>
        <time>2022-03-03T08:48:53.401Z</time>
      </trkpt>
      <trkpt lat="42.02204" lon="25.09227">
        <ele>263.052125</ele>
        <time>2022-03-03T08:48:57.403Z</time>
      </trkpt>
      <trkpt lat="42.02202" lon="25.09215">
        <ele>262.921568</ele>
        <time>2022-03-03T08:49:01.423Z</time>
      </trkpt>
      <trkpt lat="42.02199" lon="25.09204">
        <ele>262.78868</ele>
        <time>2022-03-03T08:49:05.436Z</time>
      </trkpt>
      <trkpt lat="42.02197" lon="25.09191">
        <ele>262.651105</ele>
        <time>2022-03-03T08:49:09.421Z</time>
      </trkpt>
      <trkpt lat="42.02195" lon="25.09178">
        <ele>262.507106</ele>
        <time>2022-03-03T08:49:13.406Z</time>
      </trkpt>
      <trkpt lat="42.02193" lon="25.09166">
        <ele>262.372652</ele>
        <time>2022-03-03T08:49:17.394Z</time>
      </trkpt>
      <trkpt lat="42.02189" lon="25.09154">
        <ele>262.231274</ele>
        <time>2022-03-03T08:49:21.399Z</time>
      </trkpt>
      <trkpt lat="42.02186" lon="25.09141">
        <ele>262.086724</ele>
        <time>2022-03-03T08:49:25.390Z</time>
      </trkpt>
      <trkpt lat="42.02183" lon="25.09128">
        <ele>261.935186</ele>
        <time>2022-03-03T08:49:29.407Z</time>
      </trkpt>
      <trkpt lat="42.02178" lon="25.09115">
        <ele>261.772213</ele>
        <time>2022-03-03T08:49:33.436Z</time>
      </trkpt>
      <trkpt lat="42.02172" lon="25.09102">
        <ele>261.619378</ele>
        <time>2022-03-03T08:49:37.410Z</time>
      </trkpt>
      <trkpt lat="42.02167" lon="25.09091">
        <ele>261.510361</ele>
        <time>2022-03-03T08:49:40.399Z</time>
      </trkpt>
      <trkpt lat="42.02162" lon="25.0908">
        <ele>261.399543</ele>
        <time>2022-03-03T08:49:43.394Z</time>
      </trkpt>
      <trkpt lat="42.02157" lon="25.09069">
        <ele>261.290371</ele>
        <time>2022-03-03T08:49:46.399Z</time>
      </trkpt>
      <trkpt lat="42.02151" lon="25.09057">
        <ele>261.173998</ele>
        <time>2022-03-03T08:49:49.422Z</time>
      </trkpt>
      <trkpt lat="42.02146" lon="25.09046">
        <ele>261.0617</ele>
        <time>2022-03-03T08:49:52.395Z</time>
      </trkpt>
      <trkpt lat="42.0214" lon="25.09032">
        <ele>260.926215</ele>
        <time>2022-03-03T08:49:56.396Z</time>
      </trkpt>
      <trkpt lat="42.02135" lon="25.09018">
        <ele>260.797032</ele>
        <time>2022-03-03T08:50:00.445Z</time>
      </trkpt>
      <trkpt lat="42.02127" lon="25.09005">
        <ele>260.656286</ele>
        <time>2022-03-03T08:50:04.407Z</time>
      </trkpt>
      <trkpt lat="42.02122" lon="25.08994">
        <ele>260.54466</ele>
        <time>2022-03-03T08:50:07.403Z</time>
      </trkpt>
      <trkpt lat="42.02116" lon="25.08982">
        <ele>260.42308</ele>
        <time>2022-03-03T08:50:10.396Z</time>
      </trkpt>
      <trkpt lat="42.0211" lon="25.08969">
        <ele>260.296331</ele>
        <time>2022-03-03T08:50:13.398Z</time>
      </trkpt>
      <trkpt lat="42.02104" lon="25.08956">
        <ele>260.166501</ele>
        <time>2022-03-03T08:50:16.396Z</time>
      </trkpt>
      <trkpt lat="42.02098" lon="25.08943">
        <ele>260.033608</ele>
        <time>2022-03-03T08:50:19.417Z</time>
      </trkpt>
      <trkpt lat="42.02093" lon="25.08929">
        <ele>259.90513</ele>
        <time>2022-03-03T08:50:22.420Z</time>
      </trkpt>
      <trkpt lat="42.02088" lon="25.08916">
        <ele>259.781521</ele>
        <time>2022-03-03T08:50:25.396Z</time>
      </trkpt>
      <trkpt lat="42.02083" lon="25.08903">
        <ele>259.657621</ele>
        <time>2022-03-03T08:50:28.414Z</time>
      </trkpt>
      <trkpt lat="42.02078" lon="25.08889">
        <ele>259.621276</ele>
        <time>2022-03-03T08:50:31.409Z</time>
      </trkpt>
      <trkpt lat="42.02073" lon="25.08874">
        <ele>259.639068</ele>
        <time>2022-03-03T08:50:34.391Z</time>
      </trkpt>
      <trkpt lat="42.02068" lon="25.08858">
        <ele>259.658617</ele>
        <time>2022-03-03T08:50:37.408Z</time>
      </trkpt>
      <trkpt lat="42.02063" lon="25.08843">
        <ele>259.676509</ele>
        <time>2022-03-03T08:50:40.445Z</time>
      </trkpt>
      <trkpt lat="42.02058" lon="25.08829">
        <ele>259.693575</ele>
        <time>2022-03-03T08:50:43.404Z</time>
      </trkpt>
      <trkpt lat="42.02055" lon="25.08815">
        <ele>259.709918</ele>
        <time>2022-03-03T08:50:46.417Z</time>
      </trkpt>
      <trkpt lat="42.02053" lon="25.08802">
        <ele>259.724193</ele>
        <time>2022-03-03T08:50:49.398Z</time>
      </trkpt>
      <trkpt lat="42.02049" lon="25.08791">
        <ele>259.737973</ele>
        <time>2022-03-03T08:50:52.398Z</time>
      </trkpt>
      <trkpt lat="42.02045" lon="25.08776">
        <ele>259.755659</ele>
        <time>2022-03-03T08:50:56.398Z</time>
      </trkpt>
      <trkpt lat="42.02042" lon="25.08763">
        <ele>259.770597</ele>
        <time>2022-03-03T08:50:59.411Z</time>
      </trkpt>
      <trkpt lat="42.02038" lon="25.08749">
        <ele>259.787603</ele>
        <time>2022-03-03T08:51:02.463Z</time>
      </trkpt>
      <trkpt lat="42.02034" lon="25.08735">
        <ele>259.803628</ele>
        <time>2022-03-03T08:51:05.411Z</time>
      </trkpt>
      <trkpt lat="42.0203" lon="25.08723">
        <ele>259.818262</ele>
        <time>2022-03-03T08:51:08.403Z</time>
      </trkpt>
      <trkpt lat="42.02026" lon="25.0871">
        <ele>259.833029</ele>
        <time>2022-03-03T08:51:11.406Z</time>
      </trkpt>
      <trkpt lat="42.02022" lon="25.08698">
        <ele>259.847879</ele>
        <time>2022-03-03T08:51:14.397Z</time>
      </trkpt>
      <trkpt lat="42.02018" lon="25.08686">
        <ele>259.862045</ele>
        <time>2022-03-03T08:51:17.417Z</time>
      </trkpt>
      <trkpt lat="42.02015" lon="25.08675">
        <ele>259.875433</ele>
        <time>2022-03-03T08:51:20.405Z</time>
      </trkpt>
      <trkpt lat="42.0201" lon="25.08661">
        <ele>259.843617</ele>
        <time>2022-03-03T08:51:24.448Z</time>
      </trkpt>
      <trkpt lat="42.02006" lon="25.08647">
        <ele>259.808122</ele>
        <time>2022-03-03T08:51:28.393Z</time>
      </trkpt>
      <trkpt lat="42.02002" lon="25.08636">
        <ele>259.777902</ele>
        <time>2022-03-03T08:51:31.406Z</time>
      </trkpt>
      <trkpt lat="42.01998" lon="25.08624">
        <ele>259.745865</ele>
        <time>2022-03-03T08:51:34.388Z</time>
      </trkpt>
      <trkpt lat="42.01994" lon="25.08612">
        <ele>259.713747</ele>
        <time>2022-03-03T08:51:37.391Z</time>
      </trkpt>
      <trkpt lat="42.0199" lon="25.086">
        <ele>259.68127</ele>
        <time>2022-03-03T08:51:40.393Z</time>
      </trkpt>
      <trkpt lat="42.01986" lon="25.08588">
        <ele>259.649891</ele>
        <time>2022-03-03T08:51:43.410Z</time>
      </trkpt>
      <trkpt lat="42.01981" lon="25.08576">
        <ele>259.617712</ele>
        <time>2022-03-03T08:51:46.448Z</time>
      </trkpt>
      <trkpt lat="42.01977" lon="25.08565">
        <ele>259.585752</ele>
        <time>2022-03-03T08:51:49.397Z</time>
      </trkpt>
      <trkpt lat="42.01972" lon="25.08553">
        <ele>259.554473</ele>
        <time>2022-03-03T08:51:52.402Z</time>
      </trkpt>
      <trkpt lat="42.01968" lon="25.08542">
        <ele>259.522651</ele>
        <time>2022-03-03T08:51:55.401Z</time>
      </trkpt>
      <trkpt lat="42.01964" lon="25.0853">
        <ele>259.490472</ele>
        <time>2022-03-03T08:51:58.399Z</time>
      </trkpt>
      <trkpt lat="42.0196" lon="25.08518">
        <ele>259.458711</ele>
        <time>2022-03-03T08:52:01.400Z</time>
      </trkpt>
      <trkpt lat="42.01956" lon="25.08506">
        <ele>259.426149</ele>
        <time>2022-03-03T08:52:04.405Z</time>
      </trkpt>
      <trkpt lat="42.01952" lon="25.08493">
        <ele>259.393893</ele>
        <time>2022-03-03T08:52:07.408Z</time>
      </trkpt>
      <trkpt lat="42.01949" lon="25.08481">
        <ele>259.362545</ele>
        <time>2022-03-03T08:52:10.387Z</time>
      </trkpt>
      <trkpt lat="42.01947" lon="25.08467">
        <ele>259.32698</ele>
        <time>2022-03-03T08:52:14.396Z</time>
      </trkpt>
      <trkpt lat="42.01944" lon="25.08455">
        <ele>259.295165</ele>
        <time>2022-03-03T08:52:17.398Z</time>
      </trkpt>
      <trkpt lat="42.01941" lon="25.08441">
        <ele>259.530802</ele>
        <time>2022-03-03T08:52:20.408Z</time>
      </trkpt>
      <trkpt lat="42.01939" lon="25.08429">
        <ele>259.796891</ele>
        <time>2022-03-03T08:52:23.431Z</time>
      </trkpt>
      <trkpt lat="42.01936" lon="25.08414">
        <ele>260.134635</ele>
        <time>2022-03-03T08:52:27.375Z</time>
      </trkpt>
      <trkpt lat="42.01933" lon="25.08399">
        <ele>260.478886</ele>
        <time>2022-03-03T08:52:31.411Z</time>
      </trkpt>
      <trkpt lat="42.01931" lon="25.08387">
        <ele>260.748844</ele>
        <time>2022-03-03T08:52:34.396Z</time>
      </trkpt>
      <trkpt lat="42.01929" lon="25.08371">
        <ele>261.092559</ele>
        <time>2022-03-03T08:52:38.411Z</time>
      </trkpt>
      <trkpt lat="42.01927" lon="25.08355">
        <ele>261.445262</ele>
        <time>2022-03-03T08:52:42.405Z</time>
      </trkpt>
      <trkpt lat="42.01925" lon="25.08343">
        <ele>261.714596</ele>
        <time>2022-03-03T08:52:45.398Z</time>
      </trkpt>
      <trkpt lat="42.01924" lon="25.0833">
        <ele>261.985188</ele>
        <time>2022-03-03T08:52:48.419Z</time>
      </trkpt>
      <trkpt lat="42.01922" lon="25.08315">
        <ele>262.327254</ele>
        <time>2022-03-03T08:52:52.408Z</time>
      </trkpt>
      <trkpt lat="42.0192" lon="25.083">
        <ele>262.645346</ele>
        <time>2022-03-03T08:52:56.420Z</time>
      </trkpt>
      <trkpt lat="42.01918" lon="25.08285">
        <ele>262.964559</ele>
        <time>2022-03-03T08:53:00.382Z</time>
      </trkpt>
      <trkpt lat="42.01916" lon="25.08274">
        <ele>263.226746</ele>
        <time>2022-03-03T08:53:03.405Z</time>
      </trkpt>
      <trkpt lat="42.01914" lon="25.08258">
        <ele>263.565604</ele>
        <time>2022-03-03T08:53:07.402Z</time>
      </trkpt>
      <trkpt lat="42.01912" lon="25.08243">
        <ele>263.89174</ele>
        <time>2022-03-03T08:53:11.417Z</time>
      </trkpt>
      <trkpt lat="42.01909" lon="25.08228">
        <ele>264.239355</ele>
        <time>2022-03-03T08:53:15.398Z</time>
      </trkpt>
      <trkpt lat="42.01906" lon="25.08216">
        <ele>264.503644</ele>
        <time>2022-03-03T08:53:18.406Z</time>
      </trkpt>
      <trkpt lat="42.01904" lon="25.08201">
        <ele>264.586419</ele>
        <time>2022-03-03T08:53:22.411Z</time>
      </trkpt>
      <trkpt lat="42.01901" lon="25.08189">
        <ele>264.640635</ele>
        <time>2022-03-03T08:53:25.399Z</time>
      </trkpt>
      <trkpt lat="42.01898" lon="25.08174">
        <ele>264.709556</ele>
        <time>2022-03-03T08:53:29.405Z</time>
      </trkpt>
      <trkpt lat="42.01896" lon="25.0816">
        <ele>264.776977</ele>
        <time>2022-03-03T08:53:33.393Z</time>
      </trkpt>
      <trkpt lat="42.01895" lon="25.08145">
        <ele>264.84196</ele>
        <time>2022-03-03T08:53:37.453Z</time>
      </trkpt>
      <trkpt lat="42.01893" lon="25.08131">
        <ele>264.904283</ele>
        <time>2022-03-03T08:53:41.411Z</time>
      </trkpt>
      <trkpt lat="42.01891" lon="25.08118">
        <ele>264.965214</ele>
        <time>2022-03-03T08:53:45.406Z</time>
      </trkpt>
      <trkpt lat="42.0189" lon="25.08105">
        <ele>265.024081</ele>
        <time>2022-03-03T08:53:49.409Z</time>
      </trkpt>
      <trkpt lat="42.01888" lon="25.08091">
        <ele>265.086045</ele>
        <time>2022-03-03T08:53:53.399Z</time>
      </trkpt>
      <trkpt lat="42.01887" lon="25.08078">
        <ele>265.148638</ele>
        <time>2022-03-03T08:53:57.405Z</time>
      </trkpt>
      <trkpt lat="42.01885" lon="25.08064">
        <ele>265.212213</ele>
        <time>2022-03-03T08:54:01.407Z</time>
      </trkpt>
      <trkpt lat="42.01883" lon="25.0805">
        <ele>265.272055</ele>
        <time>2022-03-03T08:54:05.413Z</time>
      </trkpt>
      <trkpt lat="42.01881" lon="25.08037">
        <ele>265.332022</ele>
        <time>2022-03-03T08:54:09.413Z</time>
      </trkpt>
      <trkpt lat="42.01879" lon="25.08024">
        <ele>265.391086</ele>
        <time>2022-03-03T08:54:13.398Z</time>
      </trkpt>
      <trkpt lat="42.01877" lon="25.08011">
        <ele>265.452625</ele>
        <time>2022-03-03T08:54:17.401Z</time>
      </trkpt>
      <trkpt lat="42.01875" lon="25.07997">
        <ele>265.517426</ele>
        <time>2022-03-03T08:54:21.398Z</time>
      </trkpt>
      <trkpt lat="42.01873" lon="25.07983">
        <ele>265.578267</ele>
        <time>2022-03-03T08:54:25.404Z</time>
      </trkpt>
      <trkpt lat="42.0187" lon="25.07969">
        <ele>265.546758</ele>
        <time>2022-03-03T08:54:29.413Z</time>
      </trkpt>
      <trkpt lat="42.01865" lon="25.07957">
        <ele>265.46391</ele>
        <time>2022-03-03T08:54:33.395Z</time>
      </trkpt>
      <trkpt lat="42.01861" lon="25.07946">
        <ele>265.38392</ele>
        <time>2022-03-03T08:54:37.438Z</time>
      </trkpt>
      <trkpt lat="42.01856" lon="25.07935">
        <ele>265.309132</ele>
        <time>2022-03-03T08:54:41.407Z</time>
      </trkpt>
      <trkpt lat="42.01851" lon="25.07924">
        <ele>265.232014</ele>
        <time>2022-03-03T08:54:45.410Z</time>
      </trkpt>
      <trkpt lat="42.01847" lon="25.07913">
        <ele>265.155588</ele>
        <time>2022-03-03T08:54:49.426Z</time>
      </trkpt>
      <trkpt lat="42.01842" lon="25.07902">
        <ele>265.074658</ele>
        <time>2022-03-03T08:54:53.417Z</time>
      </trkpt>
      <trkpt lat="42.01837" lon="25.0789">
        <ele>264.993193</ele>
        <time>2022-03-03T08:54:57.391Z</time>
      </trkpt>
      <trkpt lat="42.01832" lon="25.07878">
        <ele>264.906838</ele>
        <time>2022-03-03T08:55:01.405Z</time>
      </trkpt>
      <trkpt lat="42.01826" lon="25.07868">
        <ele>264.828904</ele>
        <time>2022-03-03T08:55:05.413Z</time>
      </trkpt>
      <trkpt lat="42.01822" lon="25.07857">
        <ele>264.753185</ele>
        <time>2022-03-03T08:55:09.397Z</time>
      </trkpt>
      <trkpt lat="42.01818" lon="25.07845">
        <ele>264.675625</ele>
        <time>2022-03-03T08:55:13.404Z</time>
      </trkpt>
      <trkpt lat="42.01813" lon="25.07834">
        <ele>264.59402</ele>
        <time>2022-03-03T08:55:17.415Z</time>
      </trkpt>
      <trkpt lat="42.01808" lon="25.07822">
        <ele>264.507942</ele>
        <time>2022-03-03T08:55:21.406Z</time>
      </trkpt>
      <trkpt lat="42.01802" lon="25.0781">
        <ele>264.421587</ele>
        <time>2022-03-03T08:55:25.423Z</time>
      </trkpt>
      <trkpt lat="42.01797" lon="25.07798">
        <ele>264.338556</ele>
        <time>2022-03-03T08:55:29.395Z</time>
      </trkpt>
      <trkpt lat="42.01793" lon="25.07787">
        <ele>264.262792</ele>
        <time>2022-03-03T08:55:33.444Z</time>
      </trkpt>
      <trkpt lat="42.01788" lon="25.07776">
        <ele>264.182516</ele>
        <time>2022-03-03T08:55:37.420Z</time>
      </trkpt>
      <trkpt lat="42.01784" lon="25.07765">
        <ele>264.13801</ele>
        <time>2022-03-03T08:55:41.402Z</time>
      </trkpt>
      <trkpt lat="42.01778" lon="25.07754">
        <ele>264.267642</ele>
        <time>2022-03-03T08:55:45.405Z</time>
      </trkpt>
      <trkpt lat="42.01774" lon="25.07742">
        <ele>264.394793</ele>
        <time>2022-03-03T08:55:49.399Z</time>
      </trkpt>
      <trkpt lat="42.01768" lon="25.07731">
        <ele>264.525573</ele>
        <time>2022-03-03T08:55:53.399Z</time>
      </trkpt>
      <trkpt lat="42.01763" lon="25.07718">
        <ele>264.667237</ele>
        <time>2022-03-03T08:55:58.393Z</time>
      </trkpt>
      <trkpt lat="42.01758" lon="25.07707">
        <ele>264.787358</ele>
        <time>2022-03-03T08:56:02.485Z</time>
      </trkpt>
      <trkpt lat="42.01752" lon="25.07696">
        <ele>264.916773</ele>
        <time>2022-03-03T08:56:06.406Z</time>
      </trkpt>
      <trkpt lat="42.01747" lon="25.07685">
        <ele>265.042579</ele>
        <time>2022-03-03T08:56:10.408Z</time>
      </trkpt>
      <trkpt lat="42.01743" lon="25.07674">
        <ele>265.164377</ele>
        <time>2022-03-03T08:56:14.411Z</time>
      </trkpt>
      <trkpt lat="42.01739" lon="25.07662">
        <ele>265.293951</ele>
        <time>2022-03-03T08:56:18.419Z</time>
      </trkpt>
      <trkpt lat="42.01734" lon="25.0765">
        <ele>265.426575</ele>
        <time>2022-03-03T08:56:22.421Z</time>
      </trkpt>
      <trkpt lat="42.01729" lon="25.07637">
        <ele>265.561961</ele>
        <time>2022-03-03T08:56:26.416Z</time>
      </trkpt>
      <trkpt lat="42.01724" lon="25.07626">
        <ele>265.691892</ele>
        <time>2022-03-03T08:56:30.410Z</time>
      </trkpt>
      <trkpt lat="42.01719" lon="25.07615">
        <ele>265.8147</ele>
        <time>2022-03-03T08:56:34.386Z</time>
      </trkpt>
      <trkpt lat="42.01714" lon="25.07604">
        <ele>265.933541</ele>
        <time>2022-03-03T08:56:38.408Z</time>
      </trkpt>
      <trkpt lat="42.01709" lon="25.07594">
        <ele>266.055027</ele>
        <time>2022-03-03T08:56:42.406Z</time>
      </trkpt>
      <trkpt lat="42.01704" lon="25.07582">
        <ele>266.180318</ele>
        <time>2022-03-03T08:56:46.417Z</time>
      </trkpt>
      <trkpt lat="42.01699" lon="25.0757">
        <ele>266.315259</ele>
        <time>2022-03-03T08:56:50.409Z</time>
      </trkpt>
      <trkpt lat="42.01694" lon="25.07558">
        <ele>266.453195</ele>
        <time>2022-03-03T08:56:54.411Z</time>
      </trkpt>
      <trkpt lat="42.01689" lon="25.07546">
        <ele>266.598889</ele>
        <time>2022-03-03T08:56:58.412Z</time>
      </trkpt>
      <trkpt lat="42.01685" lon="25.07534">
        <ele>266.745926</ele>
        <time>2022-03-03T08:57:02.402Z</time>
      </trkpt>
      <trkpt lat="42.01681" lon="25.07522">
        <ele>266.903002</ele>
        <time>2022-03-03T08:57:06.413Z</time>
      </trkpt>
      <trkpt lat="42.01677" lon="25.0751">
        <ele>267.050711</ele>
        <time>2022-03-03T08:57:10.450Z</time>
      </trkpt>
      <trkpt lat="42.01674" lon="25.07495">
        <ele>267.221998</ele>
        <time>2022-03-03T08:57:15.410Z</time>
      </trkpt>
      <trkpt lat="42.01671" lon="25.07482">
        <ele>267.376295</ele>
        <time>2022-03-03T08:57:19.424Z</time>
      </trkpt>
      <trkpt lat="42.01668" lon="25.07468">
        <ele>267.52937</ele>
        <time>2022-03-03T08:57:23.406Z</time>
      </trkpt>
      <trkpt lat="42.01665" lon="25.07455">
        <ele>267.693825</ele>
        <time>2022-03-03T08:57:27.446Z</time>
      </trkpt>
      <trkpt lat="42.01661" lon="25.07441">
        <ele>267.856798</ele>
        <time>2022-03-03T08:57:31.414Z</time>
      </trkpt>
      <trkpt lat="42.01657" lon="25.07427">
        <ele>268.021252</ele>
        <time>2022-03-03T08:57:35.421Z</time>
      </trkpt>
      <trkpt lat="42.01655" lon="25.07414">
        <ele>268.177581</ele>
        <time>2022-03-03T08:57:39.417Z</time>
      </trkpt>
      <trkpt lat="42.01652" lon="25.07401">
        <ele>268.319441</ele>
        <time>2022-03-03T08:57:43.405Z</time>
      </trkpt>
      <trkpt lat="42.0165" lon="25.07389">
        <ele>268.464716</ele>
        <time>2022-03-03T08:57:47.397Z</time>
      </trkpt>
      <trkpt lat="42.01646" lon="25.07374">
        <ele>268.638816</ele>
        <time>2022-03-03T08:57:52.407Z</time>
      </trkpt>
      <trkpt lat="42.01641" lon="25.0736">
        <ele>268.814604</ele>
        <time>2022-03-03T08:57:56.410Z</time>
      </trkpt>
      <trkpt lat="42.01637" lon="25.07346">
        <ele>268.98065</ele>
        <time>2022-03-03T08:58:00.420Z</time>
      </trkpt>
      <trkpt lat="42.01634" lon="25.07333">
        <ele>269.135226</ele>
        <time>2022-03-03T08:58:04.405Z</time>
      </trkpt>
      <trkpt lat="42.01632" lon="25.07321">
        <ele>269.317488</ele>
        <time>2022-03-03T08:58:08.413Z</time>
      </trkpt>
      <trkpt lat="42.0163" lon="25.07307">
        <ele>269.545309</ele>
        <time>2022-03-03T08:58:13.411Z</time>
      </trkpt>
      <trkpt lat="42.01628" lon="25.07293">
        <ele>269.776743</ele>
        <time>2022-03-03T08:58:18.412Z</time>
      </trkpt>
      <trkpt lat="42.01626" lon="25.0728">
        <ele>269.991293</ele>
        <time>2022-03-03T08:58:22.409Z</time>
      </trkpt>
      <trkpt lat="42.01625" lon="25.07267">
        <ele>270.186323</ele>
        <time>2022-03-03T08:58:26.411Z</time>
      </trkpt>
      <trkpt lat="42.01624" lon="25.07255">
        <ele>270.382586</ele>
        <time>2022-03-03T08:58:30.401Z</time>
      </trkpt>
      <trkpt lat="42.01624" lon="25.07243">
        <ele>270.576873</ele>
        <time>2022-03-03T08:58:34.385Z</time>
      </trkpt>
      <trkpt lat="42.01624" lon="25.07231">
        <ele>270.77116</ele>
        <time>2022-03-03T08:58:38.433Z</time>
      </trkpt>
      <trkpt lat="42.01624" lon="25.07218">
        <ele>270.970212</ele>
        <time>2022-03-03T08:58:42.411Z</time>
      </trkpt>
      <trkpt lat="42.01624" lon="25.07206">
        <ele>271.167718</ele>
        <time>2022-03-03T08:58:46.416Z</time>
      </trkpt>
      <trkpt lat="42.01624" lon="25.07194">
        <ele>271.365283</ele>
        <time>2022-03-03T08:58:50.442Z</time>
      </trkpt>
      <trkpt lat="42.01623" lon="25.07181">
        <ele>271.573006</ele>
        <time>2022-03-03T08:58:54.403Z</time>
      </trkpt>
      <trkpt lat="42.01623" lon="25.07168">
        <ele>271.772162</ele>
        <time>2022-03-03T08:58:58.423Z</time>
      </trkpt>
      <trkpt lat="42.01623" lon="25.07154">
        <ele>271.991926</ele>
        <time>2022-03-03T08:59:02.413Z</time>
      </trkpt>
      <trkpt lat="42.01622" lon="25.07142">
        <ele>272.185037</ele>
        <time>2022-03-03T08:59:06.411Z</time>
      </trkpt>
      <trkpt lat="42.01621" lon="25.07128">
        <ele>272.411291</ele>
        <time>2022-03-03T08:59:11.404Z</time>
      </trkpt>
      <trkpt lat="42.01621" lon="25.07113">
        <ele>272.655166</ele>
        <time>2022-03-03T08:59:16.418Z</time>
      </trkpt>
      <trkpt lat="42.01621" lon="25.071">
        <ele>272.863773</ele>
        <time>2022-03-03T08:59:20.405Z</time>
      </trkpt>
      <trkpt lat="42.01621" lon="25.07087">
        <ele>273.05785</ele>
        <time>2022-03-03T08:59:24.418Z</time>
      </trkpt>
      <trkpt lat="42.01621" lon="25.07073">
        <ele>273.221816</ele>
        <time>2022-03-03T08:59:28.390Z</time>
      </trkpt>
      <trkpt lat="42.0162" lon="25.07058">
        <ele>273.402433</ele>
        <time>2022-03-03T08:59:33.414Z</time>
      </trkpt>
      <trkpt lat="42.0162" lon="25.07044">
        <ele>273.579754</ele>
        <time>2022-03-03T08:59:38.410Z</time>
      </trkpt>
      <trkpt lat="42.0162" lon="25.0703">
        <ele>273.753595</ele>
        <time>2022-03-03T08:59:43.399Z</time>
      </trkpt>
      <trkpt lat="42.01621" lon="25.07014">
        <ele>273.941463</ele>
        <time>2022-03-03T08:59:48.396Z</time>
      </trkpt>
      <trkpt lat="42.01622" lon="25.07001">
        <ele>274.107417</ele>
        <time>2022-03-03T08:59:52.414Z</time>
      </trkpt>
      <trkpt lat="42.01624" lon="25.06987">
        <ele>274.270154</ele>
        <time>2022-03-03T08:59:56.410Z</time>
      </trkpt>
      <trkpt lat="42.01624" lon="25.06974">
        <ele>274.434088</ele>
        <time>2022-03-03T09:00:00.408Z</time>
      </trkpt>
      <trkpt lat="42.01626" lon="25.06961">
        <ele>274.596167</ele>
        <time>2022-03-03T09:00:04.409Z</time>
      </trkpt>
      <trkpt lat="42.01627" lon="25.06948">
        <ele>274.752832</ele>
        <time>2022-03-03T09:00:08.396Z</time>
      </trkpt>
      <trkpt lat="42.01627" lon="25.06935">
        <ele>274.910703</ele>
        <time>2022-03-03T09:00:12.407Z</time>
      </trkpt>
      <trkpt lat="42.01627" lon="25.0692">
        <ele>275.09043</ele>
        <time>2022-03-03T09:00:17.387Z</time>
      </trkpt>
      <trkpt lat="42.01627" lon="25.06907">
        <ele>275.2568</ele>
        <time>2022-03-03T09:00:21.416Z</time>
      </trkpt>
      <trkpt lat="42.01626" lon="25.06893">
        <ele>275.42413</ele>
        <time>2022-03-03T09:00:25.416Z</time>
      </trkpt>
      <trkpt lat="42.01625" lon="25.06879">
        <ele>275.598707</ele>
        <time>2022-03-03T09:00:29.410Z</time>
      </trkpt>
      <trkpt lat="42.01624" lon="25.06865">
        <ele>275.766635</ele>
        <time>2022-03-03T09:00:33.416Z</time>
      </trkpt>
      <trkpt lat="42.01622" lon="25.06852">
        <ele>275.928328</ele>
        <time>2022-03-03T09:00:37.401Z</time>
      </trkpt>
      <trkpt lat="42.01621" lon="25.06838">
        <ele>276.009957</ele>
        <time>2022-03-03T09:00:41.396Z</time>
      </trkpt>
      <trkpt lat="42.01621" lon="25.06823">
        <ele>276.073102</ele>
        <time>2022-03-03T09:00:45.414Z</time>
      </trkpt>
      <trkpt lat="42.01619" lon="25.0681">
        <ele>276.132883</ele>
        <time>2022-03-03T09:00:49.408Z</time>
      </trkpt>
      <trkpt lat="42.01618" lon="25.06797">
        <ele>276.18975</ele>
        <time>2022-03-03T09:00:53.407Z</time>
      </trkpt>
      <trkpt lat="42.01616" lon="25.06783">
        <ele>276.249387</ele>
        <time>2022-03-03T09:00:57.405Z</time>
      </trkpt>
      <trkpt lat="42.01614" lon="25.0677">
        <ele>276.308828</ele>
        <time>2022-03-03T09:01:01.409Z</time>
      </trkpt>
      <trkpt lat="42.01613" lon="25.06755">
        <ele>276.372137</ele>
        <time>2022-03-03T09:01:05.398Z</time>
      </trkpt>
      <trkpt lat="42.01611" lon="25.06741">
        <ele>276.43471</ele>
        <time>2022-03-03T09:01:09.389Z</time>
      </trkpt>
      <trkpt lat="42.0161" lon="25.06727">
        <ele>276.495869</ele>
        <time>2022-03-03T09:01:13.400Z</time>
      </trkpt>
      <trkpt lat="42.01608" lon="25.06713">
        <ele>276.558504</ele>
        <time>2022-03-03T09:01:17.417Z</time>
      </trkpt>
      <trkpt lat="42.01606" lon="25.06699">
        <ele>276.619212</ele>
        <time>2022-03-03T09:01:21.402Z</time>
      </trkpt>
      <trkpt lat="42.01607" lon="25.06685">
        <ele>276.682826</ele>
        <time>2022-03-03T09:01:25.404Z</time>
      </trkpt>
      <trkpt lat="42.01606" lon="25.06672">
        <ele>276.736793</ele>
        <time>2022-03-03T09:01:28.427Z</time>
      </trkpt>
      <trkpt lat="42.01605" lon="25.06658">
        <ele>276.798383</ele>
        <time>2022-03-03T09:01:32.407Z</time>
      </trkpt>
      <trkpt lat="42.01603" lon="25.06644">
        <ele>276.862935</ele>
        <time>2022-03-03T09:01:36.416Z</time>
      </trkpt>
      <trkpt lat="42.016" lon="25.0663">
        <ele>276.922313</ele>
        <time>2022-03-03T09:01:40.403Z</time>
      </trkpt>
      <trkpt lat="42.01598" lon="25.06615">
        <ele>276.988366</ele>
        <time>2022-03-03T09:01:44.394Z</time>
      </trkpt>
      <trkpt lat="42.01597" lon="25.066">
        <ele>277.11347</ele>
        <time>2022-03-03T09:01:48.422Z</time>
      </trkpt>
      <trkpt lat="42.01596" lon="25.06586">
        <ele>277.266924</ele>
        <time>2022-03-03T09:01:52.397Z</time>
      </trkpt>
      <trkpt lat="42.01594" lon="25.06573">
        <ele>277.401538</ele>
        <time>2022-03-03T09:01:56.401Z</time>
      </trkpt>
      <trkpt lat="42.01594" lon="25.06559">
        <ele>277.550318</ele>
        <time>2022-03-03T09:02:00.425Z</time>
      </trkpt>
      <trkpt lat="42.01592" lon="25.06545">
        <ele>277.701323</ele>
        <time>2022-03-03T09:02:04.384Z</time>
      </trkpt>
      <trkpt lat="42.0159" lon="25.0653">
        <ele>277.858754</ele>
        <time>2022-03-03T09:02:08.409Z</time>
      </trkpt>
      <trkpt lat="42.01588" lon="25.06515">
        <ele>278.017255</ele>
        <time>2022-03-03T09:02:12.407Z</time>
      </trkpt>
      <trkpt lat="42.01587" lon="25.065">
        <ele>278.17556</ele>
        <time>2022-03-03T09:02:16.409Z</time>
      </trkpt>
      <trkpt lat="42.01585" lon="25.06487">
        <ele>278.315109</ele>
        <time>2022-03-03T09:02:20.395Z</time>
      </trkpt>
      <trkpt lat="42.01583" lon="25.06473">
        <ele>278.468123</ele>
        <time>2022-03-03T09:02:24.407Z</time>
      </trkpt>
      <trkpt lat="42.01581" lon="25.06459">
        <ele>278.616922</ele>
        <time>2022-03-03T09:02:28.410Z</time>
      </trkpt>
      <trkpt lat="42.01579" lon="25.06446">
        <ele>278.764425</ele>
        <time>2022-03-03T09:02:32.412Z</time>
      </trkpt>
      <trkpt lat="42.01577" lon="25.06432">
        <ele>278.909622</ele>
        <time>2022-03-03T09:02:36.419Z</time>
      </trkpt>
      <trkpt lat="42.01575" lon="25.06419">
        <ele>279.048594</ele>
        <time>2022-03-03T09:02:40.406Z</time>
      </trkpt>
      <trkpt lat="42.01573" lon="25.06405">
        <ele>279.199997</ele>
        <time>2022-03-03T09:02:44.449Z</time>
      </trkpt>
      <trkpt lat="42.0157" lon="25.06392">
        <ele>279.346172</ele>
        <time>2022-03-03T09:02:48.403Z</time>
      </trkpt>
      <trkpt lat="42.01569" lon="25.06378">
        <ele>279.491968</ele>
        <time>2022-03-03T09:02:52.450Z</time>
      </trkpt>
      <trkpt lat="42.01567" lon="25.06364">
        <ele>279.559189</ele>
        <time>2022-03-03T09:02:56.424Z</time>
      </trkpt>
      <trkpt lat="42.01565" lon="25.06349">
        <ele>279.553644</ele>
        <time>2022-03-03T09:03:00.403Z</time>
      </trkpt>
      <trkpt lat="42.01563" lon="25.06334">
        <ele>279.548115</ele>
        <time>2022-03-03T09:03:04.391Z</time>
      </trkpt>
      <trkpt lat="42.0156" lon="25.06319">
        <ele>279.542626</ele>
        <time>2022-03-03T09:03:08.415Z</time>
      </trkpt>
      <trkpt lat="42.01555" lon="25.06306">
        <ele>279.537367</ele>
        <time>2022-03-03T09:03:12.466Z</time>
      </trkpt>
      <trkpt lat="42.01548" lon="25.06296">
        <ele>279.532562</ele>
        <time>2022-03-03T09:03:16.403Z</time>
      </trkpt>
      <trkpt lat="42.01544" lon="25.06284">
        <ele>279.527907</ele>
        <time>2022-03-03T09:03:20.422Z</time>
      </trkpt>
      <trkpt lat="42.01543" lon="25.06269">
        <ele>279.522753</ele>
        <time>2022-03-03T09:03:25.407Z</time>
      </trkpt>
      <trkpt lat="42.01542" lon="25.06256">
        <ele>279.517969</ele>
        <time>2022-03-03T09:03:29.399Z</time>
      </trkpt>
      <trkpt lat="42.01542" lon="25.06244">
        <ele>279.513545</ele>
        <time>2022-03-03T09:03:33.411Z</time>
      </trkpt>
      <trkpt lat="42.01541" lon="25.06231">
        <ele>279.5091</ele>
        <time>2022-03-03T09:03:37.405Z</time>
      </trkpt>
      <trkpt lat="42.0154" lon="25.06218">
        <ele>279.5042</ele>
        <time>2022-03-03T09:03:41.399Z</time>
      </trkpt>
      <trkpt lat="42.01537" lon="25.06205">
        <ele>279.499465</ele>
        <time>2022-03-03T09:03:45.441Z</time>
      </trkpt>
      <trkpt lat="42.01534" lon="25.06191">
        <ele>279.49446</ele>
        <time>2022-03-03T09:03:49.413Z</time>
      </trkpt>
      <trkpt lat="42.01532" lon="25.06179">
        <ele>279.489957</ele>
        <time>2022-03-03T09:03:53.411Z</time>
      </trkpt>
      <trkpt lat="42.0153" lon="25.06167">
        <ele>279.48554</ele>
        <time>2022-03-03T09:03:57.404Z</time>
      </trkpt>
      <trkpt lat="42.01526" lon="25.06154">
        <ele>279.480344</ele>
        <time>2022-03-03T09:04:02.444Z</time>
      </trkpt>
      <trkpt lat="42.01523" lon="25.06141">
        <ele>279.475793</ele>
        <time>2022-03-03T09:04:06.442Z</time>
      </trkpt>
      <trkpt lat="42.0152" lon="25.06128">
        <ele>279.451571</ele>
        <time>2022-03-03T09:04:10.415Z</time>
      </trkpt>
      <trkpt lat="42.01519" lon="25.06114">
        <ele>279.424901</ele>
        <time>2022-03-03T09:04:14.390Z</time>
      </trkpt>
      <trkpt lat="42.01517" lon="25.06101">
        <ele>279.399508</ele>
        <time>2022-03-03T09:04:18.416Z</time>
      </trkpt>
      <trkpt lat="42.01516" lon="25.06087">
        <ele>279.374231</ele>
        <time>2022-03-03T09:04:22.392Z</time>
      </trkpt>
      <trkpt lat="42.01515" lon="25.06073">
        <ele>279.34812</ele>
        <time>2022-03-03T09:04:26.413Z</time>
      </trkpt>
      <trkpt lat="42.01513" lon="25.06061">
        <ele>279.323578</ele>
        <time>2022-03-03T09:04:30.449Z</time>
      </trkpt>
      <trkpt lat="42.0151" lon="25.06047">
        <ele>279.298169</ele>
        <time>2022-03-03T09:04:34.388Z</time>
      </trkpt>
      <trkpt lat="42.01507" lon="25.06034">
        <ele>279.271496</ele>
        <time>2022-03-03T09:04:38.410Z</time>
      </trkpt>
      <trkpt lat="42.01505" lon="25.0602">
        <ele>279.24536</ele>
        <time>2022-03-03T09:04:42.410Z</time>
      </trkpt>
      <trkpt lat="42.01502" lon="25.06008">
        <ele>279.222452</ele>
        <time>2022-03-03T09:04:46.408Z</time>
      </trkpt>
      <trkpt lat="42.015" lon="25.05995">
        <ele>279.197284</ele>
        <time>2022-03-03T09:04:50.410Z</time>
      </trkpt>
      <trkpt lat="42.01498" lon="25.05981">
        <ele>279.169012</ele>
        <time>2022-03-03T09:04:54.394Z</time>
      </trkpt>
      <trkpt lat="42.01495" lon="25.05968">
        <ele>279.144503</ele>
        <time>2022-03-03T09:04:58.433Z</time>
      </trkpt>
      <trkpt lat="42.01492" lon="25.05955">
        <ele>279.119942</ele>
        <time>2022-03-03T09:05:02.411Z</time>
      </trkpt>
      <trkpt lat="42.0149" lon="25.05943">
        <ele>279.095813</ele>
        <time>2022-03-03T09:05:06.415Z</time>
      </trkpt>
      <trkpt lat="42.01485" lon="25.05931">
        <ele>279.070565</ele>
        <time>2022-03-03T09:05:10.401Z</time>
      </trkpt>
      <trkpt lat="42.01481" lon="25.05919">
        <ele>279.047162</ele>
        <time>2022-03-03T09:05:14.399Z</time>
      </trkpt>
      <trkpt lat="42.01476" lon="25.05906">
        <ele>278.992934</ele>
        <time>2022-03-03T09:05:18.404Z</time>
      </trkpt>
      <trkpt lat="42.0147" lon="25.05892">
        <ele>278.80321</ele>
        <time>2022-03-03T09:05:22.394Z</time>
      </trkpt>
      <trkpt lat="42.01464" lon="25.05882">
        <ele>278.648032</ele>
        <time>2022-03-03T09:05:25.398Z</time>
      </trkpt>
      <trkpt lat="42.01459" lon="25.05869">
        <ele>278.479945</ele>
        <time>2022-03-03T09:05:29.406Z</time>
      </trkpt>
      <trkpt lat="42.01453" lon="25.05859">
        <ele>278.31896</ele>
        <time>2022-03-03T09:05:33.410Z</time>
      </trkpt>
      <trkpt lat="42.01448" lon="25.05848">
        <ele>278.162409</ele>
        <time>2022-03-03T09:05:37.455Z</time>
      </trkpt>
      <trkpt lat="42.01443" lon="25.05837">
        <ele>278.011779</ele>
        <time>2022-03-03T09:05:41.451Z</time>
      </trkpt>
      <trkpt lat="42.01438" lon="25.05825">
        <ele>277.846212</ele>
        <time>2022-03-03T09:05:45.420Z</time>
      </trkpt>
      <trkpt lat="42.01433" lon="25.05813">
        <ele>277.681255</ele>
        <time>2022-03-03T09:05:49.414Z</time>
      </trkpt>
      <trkpt lat="42.01428" lon="25.058">
        <ele>277.503671</ele>
        <time>2022-03-03T09:05:53.410Z</time>
      </trkpt>
      <trkpt lat="42.01423" lon="25.05787">
        <ele>277.335653</ele>
        <time>2022-03-03T09:05:57.429Z</time>
      </trkpt>
      <trkpt lat="42.01417" lon="25.05776">
        <ele>277.163042</ele>
        <time>2022-03-03T09:06:01.399Z</time>
      </trkpt>
      <trkpt lat="42.01411" lon="25.05763">
        <ele>276.977403</ele>
        <time>2022-03-03T09:06:05.409Z</time>
      </trkpt>
      <trkpt lat="42.01406" lon="25.05748">
        <ele>276.78789</ele>
        <time>2022-03-03T09:06:09.414Z</time>
      </trkpt>
      <trkpt lat="42.01402" lon="25.05737">
        <ele>276.638411</ele>
        <time>2022-03-03T09:06:12.392Z</time>
      </trkpt>
      <trkpt lat="42.01396" lon="25.05723">
        <ele>276.446126</ele>
        <time>2022-03-03T09:06:16.392Z</time>
      </trkpt>
      <trkpt lat="42.01392" lon="25.05712">
        <ele>276.286693</ele>
        <time>2022-03-03T09:06:19.407Z</time>
      </trkpt>
      <trkpt lat="42.01386" lon="25.05701">
        <ele>276.128621</ele>
        <time>2022-03-03T09:06:22.444Z</time>
      </trkpt>
      <trkpt lat="42.01379" lon="25.05691">
        <ele>276.433705</ele>
        <time>2022-03-03T09:06:25.399Z</time>
      </trkpt>
      <trkpt lat="42.01373" lon="25.05679">
        <ele>276.82681</ele>
        <time>2022-03-03T09:06:29.423Z</time>
      </trkpt>
      <trkpt lat="42.01367" lon="25.05668">
        <ele>277.196641</ele>
        <time>2022-03-03T09:06:33.413Z</time>
      </trkpt>
      <trkpt lat="42.01359" lon="25.05658">
        <ele>277.564545</ele>
        <time>2022-03-03T09:06:37.388Z</time>
      </trkpt>
      <trkpt lat="42.01353" lon="25.05648">
        <ele>277.889538</ele>
        <time>2022-03-03T09:06:40.393Z</time>
      </trkpt>
      <trkpt lat="42.01345" lon="25.05638">
        <ele>278.289783</ele>
        <time>2022-03-03T09:06:44.400Z</time>
      </trkpt>
      <trkpt lat="42.01338" lon="25.05626">
        <ele>278.680917</ele>
        <time>2022-03-03T09:06:48.425Z</time>
      </trkpt>
      <trkpt lat="42.01332" lon="25.05613">
        <ele>279.094202</ele>
        <time>2022-03-03T09:06:52.405Z</time>
      </trkpt>
      <trkpt lat="42.01324" lon="25.05601">
        <ele>279.514677</ele>
        <time>2022-03-03T09:06:56.386Z</time>
      </trkpt>
      <trkpt lat="42.01316" lon="25.05591">
        <ele>279.907373</ele>
        <time>2022-03-03T09:07:00.426Z</time>
      </trkpt>
      <trkpt lat="42.01309" lon="25.05579">
        <ele>280.302631</ele>
        <time>2022-03-03T09:07:04.425Z</time>
      </trkpt>
      <trkpt lat="42.01303" lon="25.05568">
        <ele>280.668164</ele>
        <time>2022-03-03T09:07:08.399Z</time>
      </trkpt>
      <trkpt lat="42.01296" lon="25.05556">
        <ele>281.04685</ele>
        <time>2022-03-03T09:07:12.393Z</time>
      </trkpt>
      <trkpt lat="42.0129" lon="25.05546">
        <ele>281.39977</ele>
        <time>2022-03-03T09:07:16.405Z</time>
      </trkpt>
      <trkpt lat="42.01284" lon="25.05535">
        <ele>281.778114</ele>
        <time>2022-03-03T09:07:20.423Z</time>
      </trkpt>
      <trkpt lat="42.01276" lon="25.05523">
        <ele>282.184109</ele>
        <time>2022-03-03T09:07:24.408Z</time>
      </trkpt>
      <trkpt lat="42.01269" lon="25.05515">
        <ele>282.503772</ele>
        <time>2022-03-03T09:07:27.426Z</time>
      </trkpt>
      <trkpt lat="42.01262" lon="25.05506">
        <ele>282.70873</ele>
        <time>2022-03-03T09:07:30.453Z</time>
      </trkpt>
      <trkpt lat="42.01255" lon="25.05493">
        <ele>282.96508</ele>
        <time>2022-03-03T09:07:34.394Z</time>
      </trkpt>
      <trkpt lat="42.01248" lon="25.05481">
        <ele>283.212611</ele>
        <time>2022-03-03T09:07:38.413Z</time>
      </trkpt>
      <trkpt lat="42.0124" lon="25.05468">
        <ele>283.473631</ele>
        <time>2022-03-03T09:07:42.417Z</time>
      </trkpt>
      <trkpt lat="42.01235" lon="25.05457">
        <ele>283.684995</ele>
        <time>2022-03-03T09:07:45.404Z</time>
      </trkpt>
      <trkpt lat="42.01232" lon="25.05445">
        <ele>283.890077</ele>
        <time>2022-03-03T09:07:48.414Z</time>
      </trkpt>
      <trkpt lat="42.01229" lon="25.05431">
        <ele>284.109271</ele>
        <time>2022-03-03T09:07:51.412Z</time>
      </trkpt>
      <trkpt lat="42.01227" lon="25.05419">
        <ele>284.309476</ele>
        <time>2022-03-03T09:07:54.412Z</time>
      </trkpt>
      <trkpt lat="42.01225" lon="25.05407">
        <ele>284.509651</ele>
        <time>2022-03-03T09:07:57.438Z</time>
      </trkpt>
      <trkpt lat="42.01224" lon="25.05394">
        <ele>284.725722</ele>
        <time>2022-03-03T09:08:00.402Z</time>
      </trkpt>
      <trkpt lat="42.01222" lon="25.0538">
        <ele>284.945118</ele>
        <time>2022-03-03T09:08:03.426Z</time>
      </trkpt>
      <trkpt lat="42.01219" lon="25.05366">
        <ele>285.172048</ele>
        <time>2022-03-03T09:08:06.406Z</time>
      </trkpt>
      <trkpt lat="42.01217" lon="25.05353">
        <ele>285.388723</ele>
        <time>2022-03-03T09:08:09.424Z</time>
      </trkpt>
      <trkpt lat="42.01216" lon="25.05339">
        <ele>285.607409</ele>
        <time>2022-03-03T09:08:12.418Z</time>
      </trkpt>
      <trkpt lat="42.01215" lon="25.05326">
        <ele>285.81633</ele>
        <time>2022-03-03T09:08:15.399Z</time>
      </trkpt>
      <trkpt lat="42.01212" lon="25.05311">
        <ele>286.075723</ele>
        <time>2022-03-03T09:08:19.405Z</time>
      </trkpt>
      <trkpt lat="42.0121" lon="25.05297">
        <ele>286.295819</ele>
        <time>2022-03-03T09:08:23.546Z</time>
      </trkpt>
      <trkpt lat="42.01207" lon="25.05284">
        <ele>286.655828</ele>
        <time>2022-03-03T09:08:27.409Z</time>
      </trkpt>
      <trkpt lat="42.01204" lon="25.0527">
        <ele>287.129765</ele>
        <time>2022-03-03T09:08:31.437Z</time>
      </trkpt>
      <trkpt lat="42.01202" lon="25.05254">
        <ele>287.622434</ele>
        <time>2022-03-03T09:08:35.409Z</time>
      </trkpt>
      <trkpt lat="42.01201" lon="25.05241">
        <ele>288.018711</ele>
        <time>2022-03-03T09:08:38.428Z</time>
      </trkpt>
      <trkpt lat="42.012" lon="25.05229">
        <ele>288.401706</ele>
        <time>2022-03-03T09:08:41.411Z</time>
      </trkpt>
      <trkpt lat="42.012" lon="25.05216">
        <ele>288.787331</ele>
        <time>2022-03-03T09:08:44.399Z</time>
      </trkpt>
      <trkpt lat="42.01198" lon="25.05202">
        <ele>289.247328</ele>
        <time>2022-03-03T09:08:48.413Z</time>
      </trkpt>
      <trkpt lat="42.01196" lon="25.05186">
        <ele>289.727234</ele>
        <time>2022-03-03T09:08:52.402Z</time>
      </trkpt>
      <trkpt lat="42.01195" lon="25.05172">
        <ele>290.177387</ele>
        <time>2022-03-03T09:08:56.405Z</time>
      </trkpt>
      <trkpt lat="42.01192" lon="25.05155">
        <ele>290.694039</ele>
        <time>2022-03-03T09:09:00.407Z</time>
      </trkpt>
      <trkpt lat="42.0119" lon="25.05143">
        <ele>291.072201</ele>
        <time>2022-03-03T09:09:03.404Z</time>
      </trkpt>
      <trkpt lat="42.01189" lon="25.05129">
        <ele>291.51575</ele>
        <time>2022-03-03T09:09:07.410Z</time>
      </trkpt>
      <trkpt lat="42.01187" lon="25.05114">
        <ele>291.999095</ele>
        <time>2022-03-03T09:09:11.422Z</time>
      </trkpt>
      <trkpt lat="42.01185" lon="25.05102">
        <ele>292.375342</ele>
        <time>2022-03-03T09:09:14.414Z</time>
      </trkpt>
      <trkpt lat="42.01186" lon="25.05089">
        <ele>292.756281</ele>
        <time>2022-03-03T09:09:17.407Z</time>
      </trkpt>
      <trkpt lat="42.01188" lon="25.05075">
        <ele>293.21689</ele>
        <time>2022-03-03T09:09:21.395Z</time>
      </trkpt>
      <trkpt lat="42.01191" lon="25.05061">
        <ele>293.636851</ele>
        <time>2022-03-03T09:09:25.408Z</time>
      </trkpt>
      <trkpt lat="42.01192" lon="25.05047">
        <ele>293.770689</ele>
        <time>2022-03-03T09:09:29.407Z</time>
      </trkpt>
      <trkpt lat="42.01194" lon="25.05032">
        <ele>293.693736</ele>
        <time>2022-03-03T09:09:33.395Z</time>
      </trkpt>
      <trkpt lat="42.01196" lon="25.05016">
        <ele>293.615513</ele>
        <time>2022-03-03T09:09:37.410Z</time>
      </trkpt>
      <trkpt lat="42.01198" lon="25.05001">
        <ele>293.536471</ele>
        <time>2022-03-03T09:09:41.443Z</time>
      </trkpt>
      <trkpt lat="42.01199" lon="25.04989">
        <ele>293.473804</ele>
        <time>2022-03-03T09:09:44.402Z</time>
      </trkpt>
      <trkpt lat="42.01201" lon="25.04973">
        <ele>293.395371</ele>
        <time>2022-03-03T09:09:48.456Z</time>
      </trkpt>
      <trkpt lat="42.01204" lon="25.04959">
        <ele>293.323129</ele>
        <time>2022-03-03T09:09:52.430Z</time>
      </trkpt>
      <trkpt lat="42.01206" lon="25.04945">
        <ele>293.249153</ele>
        <time>2022-03-03T09:09:56.420Z</time>
      </trkpt>
      <trkpt lat="42.01208" lon="25.0493">
        <ele>293.17421</ele>
        <time>2022-03-03T09:10:00.433Z</time>
      </trkpt>
      <trkpt lat="42.0121" lon="25.04917">
        <ele>293.10567</ele>
        <time>2022-03-03T09:10:04.401Z</time>
      </trkpt>
      <trkpt lat="42.01213" lon="25.04903">
        <ele>293.033131</ele>
        <time>2022-03-03T09:10:08.411Z</time>
      </trkpt>
      <trkpt lat="42.01216" lon="25.04888">
        <ele>292.957024</ele>
        <time>2022-03-03T09:10:12.462Z</time>
      </trkpt>
      <trkpt lat="42.01218" lon="25.04874">
        <ele>292.883915</ele>
        <time>2022-03-03T09:10:16.434Z</time>
      </trkpt>
      <trkpt lat="42.0122" lon="25.04861">
        <ele>292.816981</ele>
        <time>2022-03-03T09:10:20.406Z</time>
      </trkpt>
      <trkpt lat="42.01221" lon="25.04846">
        <ele>292.74268</ele>
        <time>2022-03-03T09:10:24.399Z</time>
      </trkpt>
      <trkpt lat="42.01221" lon="25.04833">
        <ele>292.675857</ele>
        <time>2022-03-03T09:10:28.416Z</time>
      </trkpt>
      <trkpt lat="42.01221" lon="25.04821">
        <ele>292.613465</ele>
        <time>2022-03-03T09:10:32.415Z</time>
      </trkpt>
      <trkpt lat="42.01222" lon="25.04807">
        <ele>292.502437</ele>
        <time>2022-03-03T09:10:36.418Z</time>
      </trkpt>
      <trkpt lat="42.0122" lon="25.04792">
        <ele>292.377773</ele>
        <time>2022-03-03T09:10:40.402Z</time>
      </trkpt>
      <trkpt lat="42.01218" lon="25.04775">
        <ele>292.231135</ele>
        <time>2022-03-03T09:10:44.406Z</time>
      </trkpt>
      <trkpt lat="42.01216" lon="25.04762">
        <ele>292.117489</ele>
        <time>2022-03-03T09:10:47.410Z</time>
      </trkpt>
      <trkpt lat="42.01215" lon="25.0475">
        <ele>292.011152</ele>
        <time>2022-03-03T09:10:50.424Z</time>
      </trkpt>
      <trkpt lat="42.01214" lon="25.04736">
        <ele>291.884638</ele>
        <time>2022-03-03T09:10:54.405Z</time>
      </trkpt>
      <trkpt lat="42.01211" lon="25.04722">
        <ele>291.76785</ele>
        <time>2022-03-03T09:10:58.395Z</time>
      </trkpt>
      <trkpt lat="42.01207" lon="25.04708">
        <ele>291.63613</ele>
        <time>2022-03-03T09:11:02.526Z</time>
      </trkpt>
      <trkpt lat="42.01203" lon="25.04695">
        <ele>291.514847</ele>
        <time>2022-03-03T09:11:06.404Z</time>
      </trkpt>
      <trkpt lat="42.01199" lon="25.04682">
        <ele>291.399126</ele>
        <time>2022-03-03T09:11:10.415Z</time>
      </trkpt>
      <trkpt lat="42.01195" lon="25.04669">
        <ele>291.27526</ele>
        <time>2022-03-03T09:11:14.404Z</time>
      </trkpt>
      <trkpt lat="42.01191" lon="25.04657">
        <ele>291.158025</ele>
        <time>2022-03-03T09:11:18.417Z</time>
      </trkpt>
      <trkpt lat="42.01188" lon="25.04643">
        <ele>291.035564</ele>
        <time>2022-03-03T09:11:22.408Z</time>
      </trkpt>
      <trkpt lat="42.01185" lon="25.0463">
        <ele>290.913643</ele>
        <time>2022-03-03T09:11:26.403Z</time>
      </trkpt>
      <trkpt lat="42.01182" lon="25.04617">
        <ele>290.799933</ele>
        <time>2022-03-03T09:11:30.404Z</time>
      </trkpt>
      <trkpt lat="42.01179" lon="25.04605">
        <ele>290.689709</ele>
        <time>2022-03-03T09:11:34.418Z</time>
      </trkpt>
      <trkpt lat="42.01176" lon="25.0459">
        <ele>290.560039</ele>
        <time>2022-03-03T09:11:39.403Z</time>
      </trkpt>
      <trkpt lat="42.01175" lon="25.04577">
        <ele>290.598208</ele>
        <time>2022-03-03T09:11:43.420Z</time>
      </trkpt>
      <trkpt lat="42.01174" lon="25.04562">
        <ele>290.742986</ele>
        <time>2022-03-03T09:11:48.405Z</time>
      </trkpt>
      <trkpt lat="42.01174" lon="25.0455">
        <ele>290.863488</ele>
        <time>2022-03-03T09:11:52.407Z</time>
      </trkpt>
      <trkpt lat="42.01174" lon="25.04536">
        <ele>291.006221</ele>
        <time>2022-03-03T09:11:57.412Z</time>
      </trkpt>
      <trkpt lat="42.01175" lon="25.04523">
        <ele>291.126361</ele>
        <time>2022-03-03T09:12:01.426Z</time>
      </trkpt>
      <trkpt lat="42.01178" lon="25.0451">
        <ele>291.262903</ele>
        <time>2022-03-03T09:12:05.390Z</time>
      </trkpt>
      <trkpt lat="42.01184" lon="25.04496">
        <ele>291.418965</ele>
        <time>2022-03-03T09:12:09.402Z</time>
      </trkpt>
      <trkpt lat="42.0119" lon="25.04484">
        <ele>291.563335</ele>
        <time>2022-03-03T09:12:13.448Z</time>
      </trkpt>
      <trkpt lat="42.01196" lon="25.04471">
        <ele>291.71335</ele>
        <time>2022-03-03T09:12:17.399Z</time>
      </trkpt>
      <trkpt lat="42.01201" lon="25.0446">
        <ele>291.83974</ele>
        <time>2022-03-03T09:12:21.440Z</time>
      </trkpt>
      <trkpt lat="42.01207" lon="25.04449">
        <ele>291.964838</ele>
        <time>2022-03-03T09:12:25.405Z</time>
      </trkpt>
      <trkpt lat="42.01212" lon="25.04436">
        <ele>292.113074</ele>
        <time>2022-03-03T09:12:30.412Z</time>
      </trkpt>
      <trkpt lat="42.01218" lon="25.04426">
        <ele>292.24188</ele>
        <time>2022-03-03T09:12:34.403Z</time>
      </trkpt>
      <trkpt lat="42.01225" lon="25.04414">
        <ele>292.388892</ele>
        <time>2022-03-03T09:12:39.406Z</time>
      </trkpt>
      <trkpt lat="42.01231" lon="25.04402">
        <ele>292.528672</ele>
        <time>2022-03-03T09:12:44.397Z</time>
      </trkpt>
      <trkpt lat="42.01236" lon="25.04392">
        <ele>292.648731</ele>
        <time>2022-03-03T09:12:47.411Z</time>
      </trkpt>
      <trkpt lat="42.01243" lon="25.04382">
        <ele>292.778318</ele>
        <time>2022-03-03T09:12:51.416Z</time>
      </trkpt>
      <trkpt lat="42.01249" lon="25.04372">
        <ele>292.875297</ele>
        <time>2022-03-03T09:12:55.400Z</time>
      </trkpt>
      <trkpt lat="42.01256" lon="25.04359">
        <ele>292.826559</ele>
        <time>2022-03-03T09:12:59.422Z</time>
      </trkpt>
      <trkpt lat="42.01262" lon="25.04348">
        <ele>292.781817</ele>
        <time>2022-03-03T09:13:03.396Z</time>
      </trkpt>
      <trkpt lat="42.01268" lon="25.04336">
        <ele>292.737595</ele>
        <time>2022-03-03T09:13:07.399Z</time>
      </trkpt>
      <trkpt lat="42.01274" lon="25.04326">
        <ele>292.697182</ele>
        <time>2022-03-03T09:13:11.405Z</time>
      </trkpt>
      <trkpt lat="42.01279" lon="25.04315">
        <ele>292.658177</ele>
        <time>2022-03-03T09:13:15.418Z</time>
      </trkpt>
      <trkpt lat="42.01284" lon="25.04305">
        <ele>292.618529</ele>
        <time>2022-03-03T09:13:19.426Z</time>
      </trkpt>
      <trkpt lat="42.01291" lon="25.04294">
        <ele>292.575596</ele>
        <time>2022-03-03T09:13:23.419Z</time>
      </trkpt>
      <trkpt lat="42.01296" lon="25.04284">
        <ele>292.536204</ele>
        <time>2022-03-03T09:13:27.419Z</time>
      </trkpt>
      <trkpt lat="42.01302" lon="25.04273">
        <ele>292.493759</ele>
        <time>2022-03-03T09:13:32.432Z</time>
      </trkpt>
      <trkpt lat="42.01308" lon="25.04261">
        <ele>292.445764</ele>
        <time>2022-03-03T09:13:37.417Z</time>
      </trkpt>
      <trkpt lat="42.01313" lon="25.0425">
        <ele>292.406933</ele>
        <time>2022-03-03T09:13:41.399Z</time>
      </trkpt>
      <trkpt lat="42.01319" lon="25.04237">
        <ele>292.357808</ele>
        <time>2022-03-03T09:13:46.407Z</time>
      </trkpt>
      <trkpt lat="42.01325" lon="25.04223">
        <ele>292.308539</ele>
        <time>2022-03-03T09:13:50.458Z</time>
      </trkpt>
      <trkpt lat="42.0133" lon="25.04213">
        <ele>292.270066</ele>
        <time>2022-03-03T09:13:53.415Z</time>
      </trkpt>
      <trkpt lat="42.01335" lon="25.04201">
        <ele>292.227272</ele>
        <time>2022-03-03T09:13:56.407Z</time>
      </trkpt>
      <trkpt lat="42.01341" lon="25.0419">
        <ele>292.186259</ele>
        <time>2022-03-03T09:13:59.414Z</time>
      </trkpt>
      <trkpt lat="42.01345" lon="25.0418">
        <ele>292.148185</ele>
        <time>2022-03-03T09:14:02.412Z</time>
      </trkpt>
      <trkpt lat="42.01351" lon="25.04168">
        <ele>292.042364</ele>
        <time>2022-03-03T09:14:06.407Z</time>
      </trkpt>
      <trkpt lat="42.01355" lon="25.04157">
        <ele>291.898543</ele>
        <time>2022-03-03T09:14:09.406Z</time>
      </trkpt>
      <trkpt lat="42.0136" lon="25.04146">
        <ele>291.744856</ele>
        <time>2022-03-03T09:14:12.439Z</time>
      </trkpt>
      <trkpt lat="42.01366" lon="25.04136">
        <ele>291.594651</ele>
        <time>2022-03-03T09:14:15.426Z</time>
      </trkpt>
      <trkpt lat="42.01372" lon="25.04126">
        <ele>291.446957</ele>
        <time>2022-03-03T09:14:18.422Z</time>
      </trkpt>
      <trkpt lat="42.01378" lon="25.04117">
        <ele>291.297634</ele>
        <time>2022-03-03T09:14:21.433Z</time>
      </trkpt>
      <trkpt lat="42.01383" lon="25.04106">
        <ele>291.144553</ele>
        <time>2022-03-03T09:14:24.411Z</time>
      </trkpt>
      <trkpt lat="42.01391" lon="25.04094">
        <ele>290.95572</ele>
        <time>2022-03-03T09:14:28.459Z</time>
      </trkpt>
      <trkpt lat="42.01397" lon="25.04084">
        <ele>290.79842</ele>
        <time>2022-03-03T09:14:31.411Z</time>
      </trkpt>
      <trkpt lat="42.01404" lon="25.04074">
        <ele>290.640964</ele>
        <time>2022-03-03T09:14:34.403Z</time>
      </trkpt>
      <trkpt lat="42.01411" lon="25.04064">
        <ele>290.480482</ele>
        <time>2022-03-03T09:14:37.414Z</time>
      </trkpt>
      <trkpt lat="42.01418" lon="25.04053">
        <ele>290.295264</ele>
        <time>2022-03-03T09:14:40.414Z</time>
      </trkpt>
      <trkpt lat="42.01425" lon="25.04041">
        <ele>290.118085</ele>
        <time>2022-03-03T09:14:43.427Z</time>
      </trkpt>
      <trkpt lat="42.01433" lon="25.0403">
        <ele>289.936225</ele>
        <time>2022-03-03T09:14:46.418Z</time>
      </trkpt>
      <trkpt lat="42.01439" lon="25.04019">
        <ele>289.769652</ele>
        <time>2022-03-03T09:14:49.407Z</time>
      </trkpt>
      <trkpt lat="42.01446" lon="25.04009">
        <ele>289.613254</ele>
        <time>2022-03-03T09:14:52.403Z</time>
      </trkpt>
      <trkpt lat="42.01453" lon="25.04">
        <ele>289.456895</ele>
        <time>2022-03-03T09:14:55.426Z</time>
      </trkpt>
      <trkpt lat="42.0146" lon="25.03989">
        <ele>289.283306</ele>
        <time>2022-03-03T09:14:58.425Z</time>
      </trkpt>
      <trkpt lat="42.01468" lon="25.03978">
        <ele>289.045635</ele>
        <time>2022-03-03T09:15:01.436Z</time>
      </trkpt>
      <trkpt lat="42.01476" lon="25.03966">
        <ele>288.784092</ele>
        <time>2022-03-03T09:15:04.423Z</time>
      </trkpt>
      <trkpt lat="42.01484" lon="25.03954">
        <ele>288.515788</ele>
        <time>2022-03-03T09:15:07.449Z</time>
      </trkpt>
      <trkpt lat="42.01492" lon="25.03942">
        <ele>288.263125</ele>
        <time>2022-03-03T09:15:10.409Z</time>
      </trkpt>
      <trkpt lat="42.01499" lon="25.03931">
        <ele>288.018553</ele>
        <time>2022-03-03T09:15:13.419Z</time>
      </trkpt>
      <trkpt lat="42.01506" lon="25.0392">
        <ele>287.780711</ele>
        <time>2022-03-03T09:15:16.410Z</time>
      </trkpt>
      <trkpt lat="42.01512" lon="25.03911">
        <ele>287.580284</ele>
        <time>2022-03-03T09:15:19.403Z</time>
      </trkpt>
      <trkpt lat="42.01519" lon="25.039">
        <ele>287.352592</ele>
        <time>2022-03-03T09:15:22.428Z</time>
      </trkpt>
      <trkpt lat="42.01525" lon="25.03888">
        <ele>287.114715</ele>
        <time>2022-03-03T09:15:25.418Z</time>
      </trkpt>
      <trkpt lat="42.01532" lon="25.03876">
        <ele>286.866278</ele>
        <time>2022-03-03T09:15:28.413Z</time>
      </trkpt>
      <trkpt lat="42.01539" lon="25.03864">
        <ele>286.616573</ele>
        <time>2022-03-03T09:15:31.410Z</time>
      </trkpt>
      <trkpt lat="42.01544" lon="25.03853">
        <ele>286.39008</ele>
        <time>2022-03-03T09:15:34.403Z</time>
      </trkpt>
      <trkpt lat="42.0155" lon="25.03843">
        <ele>286.190297</ele>
        <time>2022-03-03T09:15:37.409Z</time>
      </trkpt>
      <trkpt lat="42.01554" lon="25.0383">
        <ele>285.951631</ele>
        <time>2022-03-03T09:15:41.422Z</time>
      </trkpt>
      <trkpt lat="42.01558" lon="25.03816">
        <ele>285.714507</ele>
        <time>2022-03-03T09:15:45.398Z</time>
      </trkpt>
      <trkpt lat="42.01561" lon="25.03803">
        <ele>285.494759</ele>
        <time>2022-03-03T09:15:48.405Z</time>
      </trkpt>
      <trkpt lat="42.01565" lon="25.0379">
        <ele>285.262002</ele>
        <time>2022-03-03T09:15:51.430Z</time>
      </trkpt>
      <trkpt lat="42.0157" lon="25.03775">
        <ele>285.109475</ele>
        <time>2022-03-03T09:15:54.405Z</time>
      </trkpt>
      <trkpt lat="42.01574" lon="25.0376">
        <ele>284.95334</ele>
        <time>2022-03-03T09:15:57.398Z</time>
      </trkpt>
      <trkpt lat="42.01579" lon="25.03744">
        <ele>284.779355</ele>
        <time>2022-03-03T09:16:00.414Z</time>
      </trkpt>
      <trkpt lat="42.01584" lon="25.03728">
        <ele>284.613594</ele>
        <time>2022-03-03T09:16:03.413Z</time>
      </trkpt>
      <trkpt lat="42.01588" lon="25.03714">
        <ele>284.464781</ele>
        <time>2022-03-03T09:16:06.400Z</time>
      </trkpt>
      <trkpt lat="42.01592" lon="25.03701">
        <ele>284.328383</ele>
        <time>2022-03-03T09:16:09.427Z</time>
      </trkpt>
      <trkpt lat="42.01597" lon="25.03688">
        <ele>284.185457</ele>
        <time>2022-03-03T09:16:12.417Z</time>
      </trkpt>
      <trkpt lat="42.01602" lon="25.03675">
        <ele>284.040794</ele>
        <time>2022-03-03T09:16:15.394Z</time>
      </trkpt>
      <trkpt lat="42.01606" lon="25.03662">
        <ele>283.90791</ele>
        <time>2022-03-03T09:16:18.443Z</time>
      </trkpt>
      <trkpt lat="42.01612" lon="25.0365">
        <ele>283.765542</ele>
        <time>2022-03-03T09:16:21.410Z</time>
      </trkpt>
      <trkpt lat="42.01616" lon="25.03639">
        <ele>283.645657</ele>
        <time>2022-03-03T09:16:24.439Z</time>
      </trkpt>
      <trkpt lat="42.0162" lon="25.03625">
        <ele>283.501963</ele>
        <time>2022-03-03T09:16:27.406Z</time>
      </trkpt>
      <trkpt lat="42.01625" lon="25.0361">
        <ele>283.339125</ele>
        <time>2022-03-03T09:16:30.410Z</time>
      </trkpt>
      <trkpt lat="42.0163" lon="25.03596">
        <ele>283.184244</ele>
        <time>2022-03-03T09:16:33.422Z</time>
      </trkpt>
      <trkpt lat="42.01633" lon="25.03583">
        <ele>283.054903</ele>
        <time>2022-03-03T09:16:36.413Z</time>
      </trkpt>
      <trkpt lat="42.01637" lon="25.03571">
        <ele>282.925743</ele>
        <time>2022-03-03T09:16:39.413Z</time>
      </trkpt>
      <trkpt lat="42.0164" lon="25.03557">
        <ele>282.76081</ele>
        <time>2022-03-03T09:16:42.411Z</time>
      </trkpt>
      <trkpt lat="42.01643" lon="25.03544">
        <ele>282.597771</ele>
        <time>2022-03-03T09:16:45.426Z</time>
      </trkpt>
      <trkpt lat="42.01645" lon="25.03531">
        <ele>282.445259</ele>
        <time>2022-03-03T09:16:48.417Z</time>
      </trkpt>
      <trkpt lat="42.01647" lon="25.03517">
        <ele>282.280405</ele>
        <time>2022-03-03T09:16:51.440Z</time>
      </trkpt>
      <trkpt lat="42.0165" lon="25.03503">
        <ele>282.122643</ele>
        <time>2022-03-03T09:16:54.395Z</time>
      </trkpt>
      <trkpt lat="42.01652" lon="25.0349">
        <ele>281.963813</ele>
        <time>2022-03-03T09:16:57.391Z</time>
      </trkpt>
      <trkpt lat="42.01654" lon="25.03477">
        <ele>281.813093</ele>
        <time>2022-03-03T09:17:00.409Z</time>
      </trkpt>
      <trkpt lat="42.01656" lon="25.03465">
        <ele>281.672907</ele>
        <time>2022-03-03T09:17:03.398Z</time>
      </trkpt>
      <trkpt lat="42.01658" lon="25.03452">
        <ele>281.513448</ele>
        <time>2022-03-03T09:17:07.417Z</time>
      </trkpt>
      <trkpt lat="42.0166" lon="25.03437">
        <ele>281.336709</ele>
        <time>2022-03-03T09:17:12.449Z</time>
      </trkpt>
      <trkpt lat="42.01662" lon="25.03424">
        <ele>281.187431</ele>
        <time>2022-03-03T09:17:16.412Z</time>
      </trkpt>
      <trkpt lat="42.01664" lon="25.03411">
        <ele>281.03084</ele>
        <time>2022-03-03T09:17:20.412Z</time>
      </trkpt>
      <trkpt lat="42.01667" lon="25.03397">
        <ele>280.860728</ele>
        <time>2022-03-03T09:17:24.467Z</time>
      </trkpt>
      <trkpt lat="42.01671" lon="25.03383">
        <ele>280.69429</ele>
        <time>2022-03-03T09:17:28.429Z</time>
      </trkpt>
      <trkpt lat="42.01675" lon="25.0337">
        <ele>280.535343</ele>
        <time>2022-03-03T09:17:32.416Z</time>
      </trkpt>
      <trkpt lat="42.01678" lon="25.03358">
        <ele>280.387289</ele>
        <time>2022-03-03T09:17:36.427Z</time>
      </trkpt>
      <trkpt lat="42.01682" lon="25.03345">
        <ele>280.222013</ele>
        <time>2022-03-03T09:17:41.411Z</time>
      </trkpt>
      <trkpt lat="42.01685" lon="25.03332">
        <ele>280.233119</ele>
        <time>2022-03-03T09:17:45.404Z</time>
      </trkpt>
      <trkpt lat="42.01688" lon="25.0332">
        <ele>280.549249</ele>
        <time>2022-03-03T09:17:49.414Z</time>
      </trkpt>
      <trkpt lat="42.01691" lon="25.03306">
        <ele>280.919157</ele>
        <time>2022-03-03T09:17:54.423Z</time>
      </trkpt>
      <trkpt lat="42.01694" lon="25.03295">
        <ele>281.231227</ele>
        <time>2022-03-03T09:17:58.429Z</time>
      </trkpt>
      <trkpt lat="42.01699" lon="25.03283">
        <ele>281.551334</ele>
        <time>2022-03-03T09:18:02.405Z</time>
      </trkpt>
      <trkpt lat="42.01703" lon="25.03271">
        <ele>281.894075</ele>
        <time>2022-03-03T09:18:06.421Z</time>
      </trkpt>
      <trkpt lat="42.01708" lon="25.03259">
        <ele>282.247027</ele>
        <time>2022-03-03T09:18:10.460Z</time>
      </trkpt>
      <trkpt lat="42.01713" lon="25.03245">
        <ele>282.618718</ele>
        <time>2022-03-03T09:18:14.410Z</time>
      </trkpt>
      <trkpt lat="42.01716" lon="25.03234">
        <ele>282.932869</ele>
        <time>2022-03-03T09:18:18.408Z</time>
      </trkpt>
      <trkpt lat="42.01721" lon="25.03223">
        <ele>283.248936</ele>
        <time>2022-03-03T09:18:22.409Z</time>
      </trkpt>
      <trkpt lat="42.01724" lon="25.03211">
        <ele>283.572749</ele>
        <time>2022-03-03T09:18:26.390Z</time>
      </trkpt>
      <trkpt lat="42.01727" lon="25.03197">
        <ele>283.939197</ele>
        <time>2022-03-03T09:18:31.404Z</time>
      </trkpt>
      <trkpt lat="42.01731" lon="25.03186">
        <ele>284.260223</ele>
        <time>2022-03-03T09:18:35.421Z</time>
      </trkpt>
      <trkpt lat="42.01735" lon="25.03174">
        <ele>284.578796</ele>
        <time>2022-03-03T09:18:39.417Z</time>
      </trkpt>
      <trkpt lat="42.0174" lon="25.03164">
        <ele>284.897858</ele>
        <time>2022-03-03T09:18:43.466Z</time>
      </trkpt>
      <trkpt lat="42.01744" lon="25.03151">
        <ele>285.249006</ele>
        <time>2022-03-03T09:18:48.447Z</time>
      </trkpt>
      <trkpt lat="42.01748" lon="25.03137">
        <ele>285.604755</ele>
        <time>2022-03-03T09:18:53.417Z</time>
      </trkpt>
      <trkpt lat="42.01751" lon="25.03126">
        <ele>285.91343</ele>
        <time>2022-03-03T09:18:57.413Z</time>
      </trkpt>
      <trkpt lat="42.01755" lon="25.03114">
        <ele>286.260072</ele>
        <time>2022-03-03T09:19:02.415Z</time>
      </trkpt>
      <trkpt lat="42.01759" lon="25.03102">
        <ele>286.748958</ele>
        <time>2022-03-03T09:19:06.405Z</time>
      </trkpt>
      <trkpt lat="42.01763" lon="25.0309">
        <ele>287.281457</ele>
        <time>2022-03-03T09:19:11.448Z</time>
      </trkpt>
      <trkpt lat="42.01767" lon="25.03076">
        <ele>287.886895</ele>
        <time>2022-03-03T09:19:16.410Z</time>
      </trkpt>
      <trkpt lat="42.01771" lon="25.03064">
        <ele>288.410011</ele>
        <time>2022-03-03T09:19:20.409Z</time>
      </trkpt>
      <trkpt lat="42.01778" lon="25.03052">
        <ele>289.003371</ele>
        <time>2022-03-03T09:19:24.402Z</time>
      </trkpt>
      <trkpt lat="42.01783" lon="25.0304">
        <ele>289.573806</ele>
        <time>2022-03-03T09:19:28.403Z</time>
      </trkpt>
      <trkpt lat="42.01788" lon="25.03027">
        <ele>290.140562</ele>
        <time>2022-03-03T09:19:33.407Z</time>
      </trkpt>
      <trkpt lat="42.01792" lon="25.03014">
        <ele>290.70522</ele>
        <time>2022-03-03T09:19:38.447Z</time>
      </trkpt>
      <trkpt lat="42.01797" lon="25.03002">
        <ele>291.226235</ele>
        <time>2022-03-03T09:19:42.420Z</time>
      </trkpt>
      <trkpt lat="42.01801" lon="25.02991">
        <ele>291.708809</ele>
        <time>2022-03-03T09:19:46.414Z</time>
      </trkpt>
      <trkpt lat="42.01806" lon="25.0298">
        <ele>292.236725</ele>
        <time>2022-03-03T09:19:51.419Z</time>
      </trkpt>
      <trkpt lat="42.0181" lon="25.02968">
        <ele>292.745444</ele>
        <time>2022-03-03T09:19:55.419Z</time>
      </trkpt>
      <trkpt lat="42.01814" lon="25.02955">
        <ele>293.283728</ele>
        <time>2022-03-03T09:19:59.409Z</time>
      </trkpt>
      <trkpt lat="42.01819" lon="25.02943">
        <ele>293.825528</ele>
        <time>2022-03-03T09:20:03.412Z</time>
      </trkpt>
      <trkpt lat="42.01824" lon="25.02931">
        <ele>294.368967</ele>
        <time>2022-03-03T09:20:07.409Z</time>
      </trkpt>
      <trkpt lat="42.01828" lon="25.0292">
        <ele>294.87289</ele>
        <time>2022-03-03T09:20:11.456Z</time>
      </trkpt>
      <trkpt lat="42.01832" lon="25.02908">
        <ele>295.404755</ele>
        <time>2022-03-03T09:20:15.408Z</time>
      </trkpt>
      <trkpt lat="42.01835" lon="25.02896">
        <ele>295.732703</ele>
        <time>2022-03-03T09:20:19.399Z</time>
      </trkpt>
      <trkpt lat="42.0184" lon="25.02883">
        <ele>295.412337</ele>
        <time>2022-03-03T09:20:23.413Z</time>
      </trkpt>
      <trkpt lat="42.01844" lon="25.02872">
        <ele>295.152034</ele>
        <time>2022-03-03T09:20:26.419Z</time>
      </trkpt>
      <trkpt lat="42.01849" lon="25.0286">
        <ele>294.854779</ele>
        <time>2022-03-03T09:20:30.414Z</time>
      </trkpt>
      <trkpt lat="42.01854" lon="25.02846">
        <ele>294.52923</ele>
        <time>2022-03-03T09:20:34.388Z</time>
      </trkpt>
      <trkpt lat="42.01859" lon="25.02832">
        <ele>294.191506</ele>
        <time>2022-03-03T09:20:38.449Z</time>
      </trkpt>
      <trkpt lat="42.01862" lon="25.02819">
        <ele>293.891219</ele>
        <time>2022-03-03T09:20:42.451Z</time>
      </trkpt>
      <trkpt lat="42.01867" lon="25.02805">
        <ele>293.560587</ele>
        <time>2022-03-03T09:20:46.415Z</time>
      </trkpt>
      <trkpt lat="42.01871" lon="25.02794">
        <ele>293.298977</ele>
        <time>2022-03-03T09:20:49.409Z</time>
      </trkpt>
      <trkpt lat="42.01876" lon="25.0278">
        <ele>292.969097</ele>
        <time>2022-03-03T09:20:53.410Z</time>
      </trkpt>
      <trkpt lat="42.01879" lon="25.02767">
        <ele>292.667816</ele>
        <time>2022-03-03T09:20:57.408Z</time>
      </trkpt>
      <trkpt lat="42.01883" lon="25.02752">
        <ele>292.330375</ele>
        <time>2022-03-03T09:21:01.449Z</time>
      </trkpt>
      <trkpt lat="42.01886" lon="25.02737">
        <ele>291.993298</ele>
        <time>2022-03-03T09:21:05.416Z</time>
      </trkpt>
      <trkpt lat="42.01889" lon="25.02723">
        <ele>291.673646</ele>
        <time>2022-03-03T09:21:09.438Z</time>
      </trkpt>
      <trkpt lat="42.01891" lon="25.02708">
        <ele>291.347499</ele>
        <time>2022-03-03T09:21:13.404Z</time>
      </trkpt>
      <trkpt lat="42.01893" lon="25.02694">
        <ele>291.038222</ele>
        <time>2022-03-03T09:21:17.440Z</time>
      </trkpt>
      <trkpt lat="42.01896" lon="25.02679">
        <ele>290.710886</ele>
        <time>2022-03-03T09:21:21.419Z</time>
      </trkpt>
      <trkpt lat="42.01898" lon="25.02664">
        <ele>290.558449</ele>
        <time>2022-03-03T09:21:25.418Z</time>
      </trkpt>
      <trkpt lat="42.01899" lon="25.02648">
        <ele>290.547068</ele>
        <time>2022-03-03T09:21:29.402Z</time>
      </trkpt>
      <trkpt lat="42.01901" lon="25.02636">
        <ele>290.538232</ele>
        <time>2022-03-03T09:21:32.413Z</time>
      </trkpt>
      <trkpt lat="42.01903" lon="25.02621">
        <ele>290.52677</ele>
        <time>2022-03-03T09:21:36.422Z</time>
      </trkpt>
      <trkpt lat="42.01904" lon="25.02606">
        <ele>290.515618</ele>
        <time>2022-03-03T09:21:40.416Z</time>
      </trkpt>
      <trkpt lat="42.01907" lon="25.02591">
        <ele>290.504907</ele>
        <time>2022-03-03T09:21:44.399Z</time>
      </trkpt>
      <trkpt lat="42.0191" lon="25.02576">
        <ele>290.493156</ele>
        <time>2022-03-03T09:21:48.413Z</time>
      </trkpt>
      <trkpt lat="42.01912" lon="25.02564">
        <ele>290.484129</ele>
        <time>2022-03-03T09:21:51.415Z</time>
      </trkpt>
      <trkpt lat="42.01914" lon="25.02549">
        <ele>290.472901</ele>
        <time>2022-03-03T09:21:55.400Z</time>
      </trkpt>
      <trkpt lat="42.01917" lon="25.02537">
        <ele>290.463663</ele>
        <time>2022-03-03T09:21:58.417Z</time>
      </trkpt>
      <trkpt lat="42.01921" lon="25.02522">
        <ele>290.452306</ele>
        <time>2022-03-03T09:22:02.417Z</time>
      </trkpt>
      <trkpt lat="42.01924" lon="25.02509">
        <ele>290.442229</ele>
        <time>2022-03-03T09:22:06.403Z</time>
      </trkpt>
      <trkpt lat="42.01927" lon="25.02495">
        <ele>290.431407</ele>
        <time>2022-03-03T09:22:10.411Z</time>
      </trkpt>
      <trkpt lat="42.01931" lon="25.0248">
        <ele>290.419978</ele>
        <time>2022-03-03T09:22:14.411Z</time>
      </trkpt>
      <trkpt lat="42.01935" lon="25.02469">
        <ele>290.411125</ele>
        <time>2022-03-03T09:22:17.411Z</time>
      </trkpt>
      <trkpt lat="42.0194" lon="25.02455">
        <ele>290.399597</ele>
        <time>2022-03-03T09:22:21.400Z</time>
      </trkpt>
      <trkpt lat="42.01946" lon="25.02442">
        <ele>290.388315</ele>
        <time>2022-03-03T09:22:25.426Z</time>
      </trkpt>
      <trkpt lat="42.01951" lon="25.02432">
        <ele>290.53389</ele>
        <time>2022-03-03T09:22:28.407Z</time>
      </trkpt>
      <trkpt lat="42.01957" lon="25.02422">
        <ele>290.686558</ele>
        <time>2022-03-03T09:22:31.417Z</time>
      </trkpt>
      <trkpt lat="42.01962" lon="25.02412">
        <ele>290.834966</ele>
        <time>2022-03-03T09:22:34.450Z</time>
      </trkpt>
      <trkpt lat="42.01968" lon="25.02399">
        <ele>291.020185</ele>
        <time>2022-03-03T09:22:38.418Z</time>
      </trkpt>
      <trkpt lat="42.01974" lon="25.02387">
        <ele>291.201842</ele>
        <time>2022-03-03T09:22:42.421Z</time>
      </trkpt>
      <trkpt lat="42.01979" lon="25.02374">
        <ele>291.370985</ele>
        <time>2022-03-03T09:22:46.415Z</time>
      </trkpt>
      <trkpt lat="42.01983" lon="25.02362">
        <ele>291.540317</ele>
        <time>2022-03-03T09:22:50.393Z</time>
      </trkpt>
      <trkpt lat="42.01989" lon="25.02349">
        <ele>291.719503</ele>
        <time>2022-03-03T09:22:54.405Z</time>
      </trkpt>
      <trkpt lat="42.01995" lon="25.02336">
        <ele>291.907844</ele>
        <time>2022-03-03T09:22:58.423Z</time>
      </trkpt>
      <trkpt lat="42.01999" lon="25.02325">
        <ele>292.062743</ele>
        <time>2022-03-03T09:23:01.405Z</time>
      </trkpt>
      <trkpt lat="42.02004" lon="25.02314">
        <ele>292.22057</ele>
        <time>2022-03-03T09:23:04.397Z</time>
      </trkpt>
      <trkpt lat="42.0201" lon="25.023">
        <ele>292.416527</ele>
        <time>2022-03-03T09:23:08.415Z</time>
      </trkpt>
      <trkpt lat="42.02016" lon="25.02287">
        <ele>292.597362</ele>
        <time>2022-03-03T09:23:12.396Z</time>
      </trkpt>
      <trkpt lat="42.0202" lon="25.02272">
        <ele>292.783724</ele>
        <time>2022-03-03T09:23:16.402Z</time>
      </trkpt>
      <trkpt lat="42.02026" lon="25.02262">
        <ele>292.945788</ele>
        <time>2022-03-03T09:23:19.436Z</time>
      </trkpt>
      <trkpt lat="42.02031" lon="25.0225">
        <ele>293.109896</ele>
        <time>2022-03-03T09:23:22.409Z</time>
      </trkpt>
      <trkpt lat="42.02036" lon="25.02238">
        <ele>293.285868</ele>
        <time>2022-03-03T09:23:25.420Z</time>
      </trkpt>
      <trkpt lat="42.02042" lon="25.02225">
        <ele>293.36917</ele>
        <time>2022-03-03T09:23:28.411Z</time>
      </trkpt>
      <trkpt lat="42.02048" lon="25.02212">
        <ele>293.41854</ele>
        <time>2022-03-03T09:23:31.427Z</time>
      </trkpt>
      <trkpt lat="42.02053" lon="25.022">
        <ele>293.45994</ele>
        <time>2022-03-03T09:23:34.394Z</time>
      </trkpt>
      <trkpt lat="42.02058" lon="25.02185">
        <ele>293.512225</ele>
        <time>2022-03-03T09:23:38.434Z</time>
      </trkpt>
      <trkpt lat="42.02062" lon="25.02173">
        <ele>293.555452</ele>
        <time>2022-03-03T09:23:41.437Z</time>
      </trkpt>
      <trkpt lat="42.02066" lon="25.02158">
        <ele>293.606904</ele>
        <time>2022-03-03T09:23:45.426Z</time>
      </trkpt>
      <trkpt lat="42.02071" lon="25.02145">
        <ele>293.654183</ele>
        <time>2022-03-03T09:23:49.393Z</time>
      </trkpt>
      <trkpt lat="42.02076" lon="25.02132">
        <ele>293.702314</ele>
        <time>2022-03-03T09:23:53.418Z</time>
      </trkpt>
      <trkpt lat="42.02079" lon="25.02117">
        <ele>293.752982</ele>
        <time>2022-03-03T09:23:57.416Z</time>
      </trkpt>
      <trkpt lat="42.02084" lon="25.02103">
        <ele>293.800667</ele>
        <time>2022-03-03T09:24:01.423Z</time>
      </trkpt>
      <trkpt lat="42.02088" lon="25.02089">
        <ele>293.850364</ele>
        <time>2022-03-03T09:24:05.400Z</time>
      </trkpt>
      <trkpt lat="42.02092" lon="25.02076">
        <ele>293.893727</ele>
        <time>2022-03-03T09:24:08.422Z</time>
      </trkpt>
      <trkpt lat="42.02094" lon="25.02064">
        <ele>293.935559</ele>
        <time>2022-03-03T09:24:11.416Z</time>
      </trkpt>
      <trkpt lat="42.02096" lon="25.02051">
        <ele>293.976545</ele>
        <time>2022-03-03T09:24:14.405Z</time>
      </trkpt>
      <trkpt lat="42.021" lon="25.02039">
        <ele>294.018091</ele>
        <time>2022-03-03T09:24:17.400Z</time>
      </trkpt>
      <trkpt lat="42.02103" lon="25.02028">
        <ele>294.057081</ele>
        <time>2022-03-03T09:24:20.414Z</time>
      </trkpt>
      <trkpt lat="42.02107" lon="25.02017">
        <ele>294.096943</ele>
        <time>2022-03-03T09:24:23.404Z</time>
      </trkpt>
      <trkpt lat="42.02112" lon="25.02005">
        <ele>293.811563</ele>
        <time>2022-03-03T09:24:26.452Z</time>
      </trkpt>
      <trkpt lat="42.02116" lon="25.01992">
        <ele>293.3595</ele>
        <time>2022-03-03T09:24:29.420Z</time>
      </trkpt>
      <trkpt lat="42.0212" lon="25.01978">
        <ele>292.862327</ele>
        <time>2022-03-03T09:24:32.435Z</time>
      </trkpt>
      <trkpt lat="42.02126" lon="25.01964">
        <ele>292.351795</ele>
        <time>2022-03-03T09:24:35.404Z</time>
      </trkpt>
      <trkpt lat="42.02131" lon="25.0195">
        <ele>291.837366</ele>
        <time>2022-03-03T09:24:38.424Z</time>
      </trkpt>
      <trkpt lat="42.02137" lon="25.01936">
        <ele>291.321203</ele>
        <time>2022-03-03T09:24:41.411Z</time>
      </trkpt>
      <trkpt lat="42.02142" lon="25.01921">
        <ele>290.796082</ele>
        <time>2022-03-03T09:24:44.398Z</time>
      </trkpt>
      <trkpt lat="42.02148" lon="25.01907">
        <ele>290.245787</ele>
        <time>2022-03-03T09:24:47.419Z</time>
      </trkpt>
      <trkpt lat="42.02154" lon="25.01892">
        <ele>289.713858</ele>
        <time>2022-03-03T09:24:50.411Z</time>
      </trkpt>
      <trkpt lat="42.02158" lon="25.01877">
        <ele>289.197587</ele>
        <time>2022-03-03T09:24:53.427Z</time>
      </trkpt>
      <trkpt lat="42.02164" lon="25.01861">
        <ele>288.589823</ele>
        <time>2022-03-03T09:24:56.426Z</time>
      </trkpt>
      <trkpt lat="42.02169" lon="25.01849">
        <ele>288.14405</ele>
        <time>2022-03-03T09:24:58.407Z</time>
      </trkpt>
      <trkpt lat="42.02174" lon="25.01837">
        <ele>287.701818</ele>
        <time>2022-03-03T09:25:00.426Z</time>
      </trkpt>
      <trkpt lat="42.02179" lon="25.01825">
        <ele>287.274911</ele>
        <time>2022-03-03T09:25:02.416Z</time>
      </trkpt>
      <trkpt lat="42.02184" lon="25.01809">
        <ele>286.702481</ele>
        <time>2022-03-03T09:25:05.453Z</time>
      </trkpt>
      <trkpt lat="42.02188" lon="25.01797">
        <ele>286.252202</ele>
        <time>2022-03-03T09:25:07.415Z</time>
      </trkpt>
      <trkpt lat="42.02194" lon="25.01784">
        <ele>285.747065</ele>
        <time>2022-03-03T09:25:09.410Z</time>
      </trkpt>
      <trkpt lat="42.02199" lon="25.01769">
        <ele>285.208883</ele>
        <time>2022-03-03T09:25:11.416Z</time>
      </trkpt>
      <trkpt lat="42.02204" lon="25.01757">
        <ele>284.725059</ele>
        <time>2022-03-03T09:25:13.391Z</time>
      </trkpt>
      <trkpt lat="42.0221" lon="25.01745">
        <ele>284.227936</ele>
        <time>2022-03-03T09:25:15.410Z</time>
      </trkpt>
      <trkpt lat="42.02215" lon="25.01733">
        <ele>283.772452</ele>
        <time>2022-03-03T09:25:17.415Z</time>
      </trkpt>
      <trkpt lat="42.02221" lon="25.01721">
        <ele>283.286414</ele>
        <time>2022-03-03T09:25:19.424Z</time>
      </trkpt>
      <trkpt lat="42.02225" lon="25.01709">
        <ele>282.82937</ele>
        <time>2022-03-03T09:25:21.419Z</time>
      </trkpt>
      <trkpt lat="42.02227" lon="25.01697">
        <ele>282.414312</ele>
        <time>2022-03-03T09:25:23.406Z</time>
      </trkpt>
      <trkpt lat="42.0223" lon="25.01684">
        <ele>281.95382</ele>
        <time>2022-03-03T09:25:25.406Z</time>
      </trkpt>
      <trkpt lat="42.02234" lon="25.01671">
        <ele>281.474684</ele>
        <time>2022-03-03T09:25:27.436Z</time>
      </trkpt>
      <trkpt lat="42.02239" lon="25.0166">
        <ele>281.049981</ele>
        <time>2022-03-03T09:25:29.424Z</time>
      </trkpt>
      <trkpt lat="42.02244" lon="25.0165">
        <ele>280.630467</ele>
        <time>2022-03-03T09:25:31.446Z</time>
      </trkpt>
      <trkpt lat="42.02249" lon="25.01639">
        <ele>280.213991</ele>
        <time>2022-03-03T09:25:33.406Z</time>
      </trkpt>
      <trkpt lat="42.02254" lon="25.01623">
        <ele>279.606293</ele>
        <time>2022-03-03T09:25:36.405Z</time>
      </trkpt>
      <trkpt lat="42.02257" lon="25.01611">
        <ele>279.189723</ele>
        <time>2022-03-03T09:25:38.447Z</time>
      </trkpt>
      <trkpt lat="42.02262" lon="25.01596">
        <ele>278.622655</ele>
        <time>2022-03-03T09:25:41.406Z</time>
      </trkpt>
      <trkpt lat="42.02268" lon="25.01581">
        <ele>278.065261</ele>
        <time>2022-03-03T09:25:44.431Z</time>
      </trkpt>
      <trkpt lat="42.02273" lon="25.01565">
        <ele>277.825093</ele>
        <time>2022-03-03T09:25:47.419Z</time>
      </trkpt>
      <trkpt lat="42.02279" lon="25.01549">
        <ele>277.616027</ele>
        <time>2022-03-03T09:25:50.414Z</time>
      </trkpt>
      <trkpt lat="42.02284" lon="25.01535">
        <ele>277.428859</ele>
        <time>2022-03-03T09:25:53.427Z</time>
      </trkpt>
      <trkpt lat="42.0229" lon="25.01521">
        <ele>277.250893</ele>
        <time>2022-03-03T09:25:56.410Z</time>
      </trkpt>
      <trkpt lat="42.02294" lon="25.01508">
        <ele>277.080707</ele>
        <time>2022-03-03T09:25:59.409Z</time>
      </trkpt>
      <trkpt lat="42.02299" lon="25.01495">
        <ele>276.902113</ele>
        <time>2022-03-03T09:26:02.445Z</time>
      </trkpt>
      <trkpt lat="42.02305" lon="25.01481">
        <ele>276.719265</ele>
        <time>2022-03-03T09:26:05.398Z</time>
      </trkpt>
      <trkpt lat="42.0231" lon="25.01468">
        <ele>276.538768</ele>
        <time>2022-03-03T09:26:08.403Z</time>
      </trkpt>
      <trkpt lat="42.02316" lon="25.01453">
        <ele>276.344676</ele>
        <time>2022-03-03T09:26:11.425Z</time>
      </trkpt>
      <trkpt lat="42.02322" lon="25.01439">
        <ele>276.161829</ele>
        <time>2022-03-03T09:26:14.397Z</time>
      </trkpt>
      <trkpt lat="42.02325" lon="25.01426">
        <ele>275.998559</ele>
        <time>2022-03-03T09:26:17.419Z</time>
      </trkpt>
      <trkpt lat="42.02327" lon="25.01412">
        <ele>275.831579</ele>
        <time>2022-03-03T09:26:20.414Z</time>
      </trkpt>
      <trkpt lat="42.02328" lon="25.01395">
        <ele>275.633568</ele>
        <time>2022-03-03T09:26:23.473Z</time>
      </trkpt>
      <trkpt lat="42.02329" lon="25.01379">
        <ele>275.440898</ele>
        <time>2022-03-03T09:26:26.429Z</time>
      </trkpt>
      <trkpt lat="42.02328" lon="25.01362">
        <ele>275.243322</ele>
        <time>2022-03-03T09:26:29.423Z</time>
      </trkpt>
      <trkpt lat="42.02327" lon="25.01345">
        <ele>275.293866</ele>
        <time>2022-03-03T09:26:32.422Z</time>
      </trkpt>
      <trkpt lat="42.02325" lon="25.01328">
        <ele>275.465084</ele>
        <time>2022-03-03T09:26:35.401Z</time>
      </trkpt>
      <trkpt lat="42.02324" lon="25.01313">
        <ele>275.615989</ele>
        <time>2022-03-03T09:26:38.411Z</time>
      </trkpt>
      <trkpt lat="42.02323" lon="25.01298">
        <ele>275.766406</ele>
        <time>2022-03-03T09:26:41.417Z</time>
      </trkpt>
      <trkpt lat="42.02324" lon="25.01284">
        <ele>275.915578</ele>
        <time>2022-03-03T09:26:44.411Z</time>
      </trkpt>
      <trkpt lat="42.02324" lon="25.01269">
        <ele>276.066617</ele>
        <time>2022-03-03T09:26:47.401Z</time>
      </trkpt>
      <trkpt lat="42.02324" lon="25.01255">
        <ele>276.208614</ele>
        <time>2022-03-03T09:26:50.412Z</time>
      </trkpt>
      <trkpt lat="42.02324" lon="25.0124">
        <ele>276.351597</ele>
        <time>2022-03-03T09:26:53.441Z</time>
      </trkpt>
      <trkpt lat="42.02324" lon="25.01226">
        <ele>276.493568</ele>
        <time>2022-03-03T09:26:56.402Z</time>
      </trkpt>
      <trkpt lat="42.02324" lon="25.01213">
        <ele>276.625498</ele>
        <time>2022-03-03T09:26:59.420Z</time>
      </trkpt>
      <trkpt lat="42.02325" lon="25.012">
        <ele>276.758239</ele>
        <time>2022-03-03T09:27:02.452Z</time>
      </trkpt>
      <trkpt lat="42.02325" lon="25.01186">
        <ele>276.897249</ele>
        <time>2022-03-03T09:27:05.408Z</time>
      </trkpt>
      <trkpt lat="42.02326" lon="25.01172">
        <ele>277.038531</ele>
        <time>2022-03-03T09:27:08.416Z</time>
      </trkpt>
      <trkpt lat="42.02326" lon="25.01159">
        <ele>277.174521</ele>
        <time>2022-03-03T09:27:11.418Z</time>
      </trkpt>
      <trkpt lat="42.02326" lon="25.01146">
        <ele>277.305444</ele>
        <time>2022-03-03T09:27:14.396Z</time>
      </trkpt>
      <trkpt lat="42.02327" lon="25.01133">
        <ele>277.436591</ele>
        <time>2022-03-03T09:27:17.425Z</time>
      </trkpt>
      <trkpt lat="42.02328" lon="25.0112">
        <ele>277.564044</ele>
        <time>2022-03-03T09:27:20.412Z</time>
      </trkpt>
      <trkpt lat="42.02329" lon="25.01107">
        <ele>277.658023</ele>
        <time>2022-03-03T09:27:23.416Z</time>
      </trkpt>
      <trkpt lat="42.0233" lon="25.01095">
        <ele>277.72381</ele>
        <time>2022-03-03T09:27:26.403Z</time>
      </trkpt>
      <trkpt lat="42.0233" lon="25.01083">
        <ele>277.789489</ele>
        <time>2022-03-03T09:27:29.410Z</time>
      </trkpt>
      <trkpt lat="42.0233" lon="25.01067">
        <ele>277.87509</ele>
        <time>2022-03-03T09:27:33.416Z</time>
      </trkpt>
      <trkpt lat="42.02331" lon="25.01053">
        <ele>277.950006</ele>
        <time>2022-03-03T09:27:36.444Z</time>
      </trkpt>
      <trkpt lat="42.02331" lon="25.0104">
        <ele>278.018343</ele>
        <time>2022-03-03T09:27:39.421Z</time>
      </trkpt>
      <trkpt lat="42.02332" lon="25.01027">
        <ele>278.091809</ele>
        <time>2022-03-03T09:27:42.443Z</time>
      </trkpt>
      <trkpt lat="42.02333" lon="25.01014">
        <ele>278.159722</ele>
        <time>2022-03-03T09:27:45.410Z</time>
      </trkpt>
      <trkpt lat="42.02334" lon="25.01002">
        <ele>278.228194</ele>
        <time>2022-03-03T09:27:48.414Z</time>
      </trkpt>
      <trkpt lat="42.02335" lon="25.00986">
        <ele>278.312243</ele>
        <time>2022-03-03T09:27:52.413Z</time>
      </trkpt>
      <trkpt lat="42.02335" lon="25.00973">
        <ele>278.379598</ele>
        <time>2022-03-03T09:27:55.429Z</time>
      </trkpt>
      <trkpt lat="42.02336" lon="25.00961">
        <ele>278.444655</ele>
        <time>2022-03-03T09:27:58.436Z</time>
      </trkpt>
      <trkpt lat="42.02336" lon="25.00949">
        <ele>278.511378</ele>
        <time>2022-03-03T09:28:01.424Z</time>
      </trkpt>
      <trkpt lat="42.02338" lon="25.00936">
        <ele>278.581956</ele>
        <time>2022-03-03T09:28:04.436Z</time>
      </trkpt>
      <trkpt lat="42.02338" lon="25.00923">
        <ele>278.654089</ele>
        <time>2022-03-03T09:28:07.407Z</time>
      </trkpt>
      <trkpt lat="42.02338" lon="25.00907">
        <ele>278.737488</ele>
        <time>2022-03-03T09:28:11.427Z</time>
      </trkpt>
      <trkpt lat="42.02339" lon="25.00891">
        <ele>278.822162</ele>
        <time>2022-03-03T09:28:15.444Z</time>
      </trkpt>
      <trkpt lat="42.0234" lon="25.0088">
        <ele>278.887231</ele>
        <time>2022-03-03T09:28:18.407Z</time>
      </trkpt>
      <trkpt lat="42.02342" lon="25.00865">
        <ele>278.940944</ele>
        <time>2022-03-03T09:28:22.416Z</time>
      </trkpt>
      <trkpt lat="42.02343" lon="25.0085">
        <ele>278.976126</ele>
        <time>2022-03-03T09:28:26.432Z</time>
      </trkpt>
      <trkpt lat="42.02345" lon="25.00836">
        <ele>279.011308</ele>
        <time>2022-03-03T09:28:30.416Z</time>
      </trkpt>
      <trkpt lat="42.02347" lon="25.0082">
        <ele>279.050163</ele>
        <time>2022-03-03T09:28:34.395Z</time>
      </trkpt>
      <trkpt lat="42.02349" lon="25.00808">
        <ele>279.081497</ele>
        <time>2022-03-03T09:28:37.409Z</time>
      </trkpt>
      <trkpt lat="42.02352" lon="25.00795">
        <ele>279.115566</ele>
        <time>2022-03-03T09:28:40.406Z</time>
      </trkpt>
      <trkpt lat="42.02356" lon="25.00782">
        <ele>279.149644</ele>
        <time>2022-03-03T09:28:43.415Z</time>
      </trkpt>
      <trkpt lat="42.02358" lon="25.00768">
        <ele>279.182719</ele>
        <time>2022-03-03T09:28:46.431Z</time>
      </trkpt>
      <trkpt lat="42.02361" lon="25.00754">
        <ele>279.218169</ele>
        <time>2022-03-03T09:28:49.403Z</time>
      </trkpt>
      <trkpt lat="42.02363" lon="25.0074">
        <ele>279.254476</ele>
        <time>2022-03-03T09:28:52.415Z</time>
      </trkpt>
      <trkpt lat="42.02366" lon="25.00725">
        <ele>279.291335</ele>
        <time>2022-03-03T09:28:55.422Z</time>
      </trkpt>
      <trkpt lat="42.02368" lon="25.00709">
        <ele>279.332524</ele>
        <time>2022-03-03T09:28:58.406Z</time>
      </trkpt>
      <trkpt lat="42.02371" lon="25.00697">
        <ele>279.362752</ele>
        <time>2022-03-03T09:29:00.415Z</time>
      </trkpt>
      <trkpt lat="42.02373" lon="25.00684">
        <ele>279.393157</ele>
        <time>2022-03-03T09:29:02.410Z</time>
      </trkpt>
      <trkpt lat="42.02374" lon="25.00672">
        <ele>279.424215</ele>
        <time>2022-03-03T09:29:04.419Z</time>
      </trkpt>
      <trkpt lat="42.02376" lon="25.00654">
        <ele>279.467113</ele>
        <time>2022-03-03T09:29:07.395Z</time>
      </trkpt>
      <trkpt lat="42.02378" lon="25.00637">
        <ele>279.504268</ele>
        <time>2022-03-03T09:29:10.415Z</time>
      </trkpt>
      <trkpt lat="42.02377" lon="25.00624">
        <ele>279.210228</ele>
        <time>2022-03-03T09:29:12.445Z</time>
      </trkpt>
      <trkpt lat="42.02377" lon="25.00612">
        <ele>278.935139</ele>
        <time>2022-03-03T09:29:14.398Z</time>
      </trkpt>
      <trkpt lat="42.02378" lon="25.006">
        <ele>278.659999</ele>
        <time>2022-03-03T09:29:16.415Z</time>
      </trkpt>
      <trkpt lat="42.02378" lon="25.00587">
        <ele>278.368869</ele>
        <time>2022-03-03T09:29:18.433Z</time>
      </trkpt>
      <trkpt lat="42.02379" lon="25.00575">
        <ele>278.079364</ele>
        <time>2022-03-03T09:29:20.405Z</time>
      </trkpt>
      <trkpt lat="42.02379" lon="25.00557">
        <ele>277.681344</ele>
        <time>2022-03-03T09:29:23.402Z</time>
      </trkpt>
      <trkpt lat="42.0238" lon="25.00541">
        <ele>277.324105</ele>
        <time>2022-03-03T09:29:26.402Z</time>
      </trkpt>
      <trkpt lat="42.0238" lon="25.00524">
        <ele>276.932663</ele>
        <time>2022-03-03T09:29:29.429Z</time>
      </trkpt>
      <trkpt lat="42.02381" lon="25.00512">
        <ele>276.641625</ele>
        <time>2022-03-03T09:29:31.405Z</time>
      </trkpt>
      <trkpt lat="42.02382" lon="25.00499">
        <ele>276.347076</ele>
        <time>2022-03-03T09:29:33.426Z</time>
      </trkpt>
      <trkpt lat="42.02383" lon="25.00485">
        <ele>276.037164</ele>
        <time>2022-03-03T09:29:35.435Z</time>
      </trkpt>
      <trkpt lat="42.02384" lon="25.00471">
        <ele>275.722492</ele>
        <time>2022-03-03T09:29:37.447Z</time>
      </trkpt>
      <trkpt lat="42.02385" lon="25.00457">
        <ele>275.385954</ele>
        <time>2022-03-03T09:29:39.407Z</time>
      </trkpt>
      <trkpt lat="42.02386" lon="25.00442">
        <ele>275.061695</ele>
        <time>2022-03-03T09:29:41.404Z</time>
      </trkpt>
      <trkpt lat="42.02387" lon="25.00429">
        <ele>274.7513</ele>
        <time>2022-03-03T09:29:43.413Z</time>
      </trkpt>
      <trkpt lat="42.02387" lon="25.00415">
        <ele>274.432976</ele>
        <time>2022-03-03T09:29:45.421Z</time>
      </trkpt>
      <trkpt lat="42.02387" lon="25.004">
        <ele>274.103288</ele>
        <time>2022-03-03T09:29:47.417Z</time>
      </trkpt>
      <trkpt lat="42.02387" lon="25.00386">
        <ele>273.977571</ele>
        <time>2022-03-03T09:29:49.393Z</time>
      </trkpt>
      <trkpt lat="42.02388" lon="25.00373">
        <ele>273.939467</ele>
        <time>2022-03-03T09:29:51.408Z</time>
      </trkpt>
      <trkpt lat="42.02389" lon="25.00359">
        <ele>273.900697</ele>
        <time>2022-03-03T09:29:53.411Z</time>
      </trkpt>
      <trkpt lat="42.02391" lon="25.00346">
        <ele>273.862954</ele>
        <time>2022-03-03T09:29:55.422Z</time>
      </trkpt>
      <trkpt lat="42.02392" lon="25.00332">
        <ele>273.824932</ele>
        <time>2022-03-03T09:29:57.427Z</time>
      </trkpt>
      <trkpt lat="42.02393" lon="25.00319">
        <ele>273.788399</ele>
        <time>2022-03-03T09:29:59.399Z</time>
      </trkpt>
      <trkpt lat="42.02394" lon="25.00306">
        <ele>273.750787</ele>
        <time>2022-03-03T09:30:01.422Z</time>
      </trkpt>
      <trkpt lat="42.02395" lon="25.00292">
        <ele>273.712091</ele>
        <time>2022-03-03T09:30:03.459Z</time>
      </trkpt>
      <trkpt lat="42.02395" lon="25.00278">
        <ele>273.671266</ele>
        <time>2022-03-03T09:30:05.407Z</time>
      </trkpt>
      <trkpt lat="42.02396" lon="25.00264">
        <ele>273.632112</ele>
        <time>2022-03-03T09:30:07.401Z</time>
      </trkpt>
      <trkpt lat="42.02396" lon="25.00251">
        <ele>273.594942</ele>
        <time>2022-03-03T09:30:09.401Z</time>
      </trkpt>
      <trkpt lat="42.02397" lon="25.00237">
        <ele>273.55721</ele>
        <time>2022-03-03T09:30:11.416Z</time>
      </trkpt>
      <trkpt lat="42.02397" lon="25.00224">
        <ele>273.519976</ele>
        <time>2022-03-03T09:30:13.422Z</time>
      </trkpt>
      <trkpt lat="42.02398" lon="25.0021">
        <ele>273.481103</ele>
        <time>2022-03-03T09:30:15.428Z</time>
      </trkpt>
      <trkpt lat="42.02398" lon="25.00197">
        <ele>273.443613</ele>
        <time>2022-03-03T09:30:17.410Z</time>
      </trkpt>
      <trkpt lat="42.02399" lon="25.00184">
        <ele>273.407809</ele>
        <time>2022-03-03T09:30:19.427Z</time>
      </trkpt>
      <trkpt lat="42.024" lon="25.00172">
        <ele>273.373595</ele>
        <time>2022-03-03T09:30:21.418Z</time>
      </trkpt>
      <trkpt lat="42.02401" lon="25.00154">
        <ele>273.314743</ele>
        <time>2022-03-03T09:30:24.411Z</time>
      </trkpt>
      <trkpt lat="42.02401" lon="25.00142">
        <ele>273.082909</ele>
        <time>2022-03-03T09:30:26.415Z</time>
      </trkpt>
      <trkpt lat="42.02401" lon="25.0013">
        <ele>272.851075</ele>
        <time>2022-03-03T09:30:28.408Z</time>
      </trkpt>
      <trkpt lat="42.02402" lon="25.00118">
        <ele>272.615315</ele>
        <time>2022-03-03T09:30:30.418Z</time>
      </trkpt>
      <trkpt lat="42.02403" lon="25.001">
        <ele>272.278534</ele>
        <time>2022-03-03T09:30:33.411Z</time>
      </trkpt>
      <trkpt lat="42.02404" lon="25.00082">
        <ele>271.937056</ele>
        <time>2022-03-03T09:30:36.411Z</time>
      </trkpt>
      <trkpt lat="42.02405" lon="25.0007">
        <ele>271.704193</ele>
        <time>2022-03-03T09:30:38.407Z</time>
      </trkpt>
      <trkpt lat="42.02406" lon="25.00053">
        <ele>271.363845</ele>
        <time>2022-03-03T09:30:41.417Z</time>
      </trkpt>
      <trkpt lat="42.02407" lon="25.00036">
        <ele>271.045301</ele>
        <time>2022-03-03T09:30:44.395Z</time>
      </trkpt>
      <trkpt lat="42.02407" lon="25.00019">
        <ele>270.721517</ele>
        <time>2022-03-03T09:30:47.399Z</time>
      </trkpt>
      <trkpt lat="42.02407" lon="25.00002">
        <ele>270.39977</ele>
        <time>2022-03-03T09:30:50.418Z</time>
      </trkpt>
      <trkpt lat="42.02409" lon="24.99987">
        <ele>270.097055</ele>
        <time>2022-03-03T09:30:53.403Z</time>
      </trkpt>
      <trkpt lat="42.0241" lon="24.99969">
        <ele>269.767438</ele>
        <time>2022-03-03T09:30:56.410Z</time>
      </trkpt>
      <trkpt lat="42.02411" lon="24.99952">
        <ele>269.432811</ele>
        <time>2022-03-03T09:30:59.455Z</time>
      </trkpt>
      <trkpt lat="42.02412" lon="24.99939">
        <ele>269.187039</ele>
        <time>2022-03-03T09:31:01.417Z</time>
      </trkpt>
      <trkpt lat="42.02413" lon="24.99927">
        <ele>268.942741</ele>
        <time>2022-03-03T09:31:03.396Z</time>
      </trkpt>
      <trkpt lat="42.02413" lon="24.99908">
        <ele>268.630351</ele>
        <time>2022-03-03T09:31:06.410Z</time>
      </trkpt>
      <trkpt lat="42.02414" lon="24.99891">
        <ele>268.42384</ele>
        <time>2022-03-03T09:31:09.418Z</time>
      </trkpt>
      <trkpt lat="42.02415" lon="24.99873">
        <ele>268.218229</ele>
        <time>2022-03-03T09:31:12.403Z</time>
      </trkpt>
      <trkpt lat="42.02416" lon="24.99861">
        <ele>268.07261</ele>
        <time>2022-03-03T09:31:14.414Z</time>
      </trkpt>
      <trkpt lat="42.02416" lon="24.99848">
        <ele>267.920224</ele>
        <time>2022-03-03T09:31:16.415Z</time>
      </trkpt>
      <trkpt lat="42.02417" lon="24.99834">
        <ele>267.763167</ele>
        <time>2022-03-03T09:31:18.412Z</time>
      </trkpt>
      <trkpt lat="42.02417" lon="24.99822">
        <ele>267.615678</ele>
        <time>2022-03-03T09:31:20.406Z</time>
      </trkpt>
      <trkpt lat="42.02417" lon="24.99809">
        <ele>267.467087</ele>
        <time>2022-03-03T09:31:22.422Z</time>
      </trkpt>
      <trkpt lat="42.02418" lon="24.99797">
        <ele>267.321877</ele>
        <time>2022-03-03T09:31:24.402Z</time>
      </trkpt>
      <trkpt lat="42.02419" lon="24.99784">
        <ele>267.173626</ele>
        <time>2022-03-03T09:31:26.417Z</time>
      </trkpt>
      <trkpt lat="42.0242" lon="24.99766">
        <ele>266.963048</ele>
        <time>2022-03-03T09:31:29.402Z</time>
      </trkpt>
      <trkpt lat="42.02421" lon="24.99754">
        <ele>266.820229</ele>
        <time>2022-03-03T09:31:31.428Z</time>
      </trkpt>
      <trkpt lat="42.02422" lon="24.99737">
        <ele>266.618384</ele>
        <time>2022-03-03T09:31:34.397Z</time>
      </trkpt>
      <trkpt lat="42.02423" lon="24.9972">
        <ele>266.420563</ele>
        <time>2022-03-03T09:31:37.405Z</time>
      </trkpt>
      <trkpt lat="42.02423" lon="24.99702">
        <ele>266.212022</ele>
        <time>2022-03-03T09:31:40.426Z</time>
      </trkpt>
      <trkpt lat="42.02424" lon="24.99685">
        <ele>266.004344</ele>
        <time>2022-03-03T09:31:43.445Z</time>
      </trkpt>
      <trkpt lat="42.02425" lon="24.99672">
        <ele>265.858725</ele>
        <time>2022-03-03T09:31:45.414Z</time>
      </trkpt>
      <trkpt lat="42.02427" lon="24.99659">
        <ele>265.627516</ele>
        <time>2022-03-03T09:31:47.399Z</time>
      </trkpt>
      <trkpt lat="42.02428" lon="24.99647">
        <ele>265.400214</ele>
        <time>2022-03-03T09:31:49.428Z</time>
      </trkpt>
      <trkpt lat="42.02428" lon="24.99635">
        <ele>265.177356</ele>
        <time>2022-03-03T09:31:51.415Z</time>
      </trkpt>
      <trkpt lat="42.0243" lon="24.99617">
        <ele>264.854986</ele>
        <time>2022-03-03T09:31:54.440Z</time>
      </trkpt>
      <trkpt lat="42.02431" lon="24.99599">
        <ele>264.525715</ele>
        <time>2022-03-03T09:31:57.430Z</time>
      </trkpt>
      <trkpt lat="42.02432" lon="24.99586">
        <ele>264.297704</ele>
        <time>2022-03-03T09:31:59.406Z</time>
      </trkpt>
      <trkpt lat="42.02432" lon="24.99574">
        <ele>264.074673</ele>
        <time>2022-03-03T09:32:01.416Z</time>
      </trkpt>
      <trkpt lat="42.02434" lon="24.99561">
        <ele>263.845748</ele>
        <time>2022-03-03T09:32:03.403Z</time>
      </trkpt>
      <trkpt lat="42.02436" lon="24.99549">
        <ele>263.625688</ele>
        <time>2022-03-03T09:32:05.411Z</time>
      </trkpt>
      <trkpt lat="42.02438" lon="24.99532">
        <ele>263.308346</ele>
        <time>2022-03-03T09:32:08.426Z</time>
      </trkpt>
      <trkpt lat="42.0244" lon="24.9952">
        <ele>263.081206</ele>
        <time>2022-03-03T09:32:10.402Z</time>
      </trkpt>
      <trkpt lat="42.02441" lon="24.99508">
        <ele>262.859004</ele>
        <time>2022-03-03T09:32:12.410Z</time>
      </trkpt>
      <trkpt lat="42.02445" lon="24.9949">
        <ele>262.536081</ele>
        <time>2022-03-03T09:32:15.435Z</time>
      </trkpt>
      <trkpt lat="42.02447" lon="24.99473">
        <ele>262.224099</ele>
        <time>2022-03-03T09:32:18.419Z</time>
      </trkpt>
      <trkpt lat="42.02449" lon="24.99456">
        <ele>261.909008</ele>
        <time>2022-03-03T09:32:21.406Z</time>
      </trkpt>
      <trkpt lat="42.02453" lon="24.99441">
        <ele>261.61705</ele>
        <time>2022-03-03T09:32:24.405Z</time>
      </trkpt>
      <trkpt lat="42.02456" lon="24.99426">
        <ele>261.467164</ele>
        <time>2022-03-03T09:32:27.415Z</time>
      </trkpt>
      <trkpt lat="42.0246" lon="24.9941">
        <ele>261.448186</ele>
        <time>2022-03-03T09:32:30.414Z</time>
      </trkpt>
      <trkpt lat="42.02462" lon="24.99393">
        <ele>261.426913</ele>
        <time>2022-03-03T09:32:33.419Z</time>
      </trkpt>
      <trkpt lat="42.02465" lon="24.9938">
        <ele>261.411532</ele>
        <time>2022-03-03T09:32:35.418Z</time>
      </trkpt>
      <trkpt lat="42.02468" lon="24.99363">
        <ele>261.390512</ele>
        <time>2022-03-03T09:32:38.409Z</time>
      </trkpt>
      <trkpt lat="42.02471" lon="24.99346">
        <ele>261.369723</ele>
        <time>2022-03-03T09:32:41.416Z</time>
      </trkpt>
      <trkpt lat="42.02474" lon="24.99329">
        <ele>261.348703</ele>
        <time>2022-03-03T09:32:44.406Z</time>
      </trkpt>
      <trkpt lat="42.02477" lon="24.99311">
        <ele>261.327414</ele>
        <time>2022-03-03T09:32:47.417Z</time>
      </trkpt>
      <trkpt lat="42.0248" lon="24.99299">
        <ele>261.312777</ele>
        <time>2022-03-03T09:32:49.427Z</time>
      </trkpt>
      <trkpt lat="42.02483" lon="24.99288">
        <ele>261.298497</ele>
        <time>2022-03-03T09:32:51.414Z</time>
      </trkpt>
      <trkpt lat="42.02488" lon="24.99271">
        <ele>261.277492</ele>
        <time>2022-03-03T09:32:54.400Z</time>
      </trkpt>
      <trkpt lat="42.02491" lon="24.99255">
        <ele>261.25762</ele>
        <time>2022-03-03T09:32:57.407Z</time>
      </trkpt>
      <trkpt lat="42.02494" lon="24.9924">
        <ele>261.23832</ele>
        <time>2022-03-03T09:33:00.421Z</time>
      </trkpt>
      <trkpt lat="42.02497" lon="24.99225">
        <ele>261.220433</ele>
        <time>2022-03-03T09:33:03.396Z</time>
      </trkpt>
      <trkpt lat="42.02501" lon="24.9921">
        <ele>261.202182</ele>
        <time>2022-03-03T09:33:06.415Z</time>
      </trkpt>
      <trkpt lat="42.02504" lon="24.99195">
        <ele>261.26373</ele>
        <time>2022-03-03T09:33:09.427Z</time>
      </trkpt>
      <trkpt lat="42.02508" lon="24.99181">
        <ele>261.479981</ele>
        <time>2022-03-03T09:33:12.410Z</time>
      </trkpt>
      <trkpt lat="42.02511" lon="24.99165">
        <ele>261.714474</ele>
        <time>2022-03-03T09:33:15.409Z</time>
      </trkpt>
      <trkpt lat="42.02514" lon="24.99151">
        <ele>261.914444</ele>
        <time>2022-03-03T09:33:18.416Z</time>
      </trkpt>
      <trkpt lat="42.02517" lon="24.99136">
        <ele>262.129285</ele>
        <time>2022-03-03T09:33:21.414Z</time>
      </trkpt>
      <trkpt lat="42.0252" lon="24.99122">
        <ele>262.328141</ele>
        <time>2022-03-03T09:33:24.422Z</time>
      </trkpt>
      <trkpt lat="42.02523" lon="24.99109">
        <ele>262.523435</ele>
        <time>2022-03-03T09:33:27.402Z</time>
      </trkpt>
      <trkpt lat="42.02527" lon="24.99095">
        <ele>262.7322</ele>
        <time>2022-03-03T09:33:30.477Z</time>
      </trkpt>
      <trkpt lat="42.0253" lon="24.99081">
        <ele>262.937748</ele>
        <time>2022-03-03T09:33:33.427Z</time>
      </trkpt>
      <trkpt lat="42.02533" lon="24.99066">
        <ele>263.153215</ele>
        <time>2022-03-03T09:33:36.400Z</time>
      </trkpt>
      <trkpt lat="42.02536" lon="24.99051">
        <ele>263.365346</ele>
        <time>2022-03-03T09:33:39.417Z</time>
      </trkpt>
      <trkpt lat="42.02539" lon="24.99037">
        <ele>263.57545</ele>
        <time>2022-03-03T09:33:42.415Z</time>
      </trkpt>
      <trkpt lat="42.02542" lon="24.99022">
        <ele>263.788234</ele>
        <time>2022-03-03T09:33:45.414Z</time>
      </trkpt>
      <trkpt lat="42.02544" lon="24.99008">
        <ele>263.998622</ele>
        <time>2022-03-03T09:33:48.403Z</time>
      </trkpt>
      <trkpt lat="42.02548" lon="24.98992">
        <ele>264.218956</ele>
        <time>2022-03-03T09:33:51.407Z</time>
      </trkpt>
      <trkpt lat="42.02551" lon="24.98978">
        <ele>264.425845</ele>
        <time>2022-03-03T09:33:54.398Z</time>
      </trkpt>
      <trkpt lat="42.02553" lon="24.98963">
        <ele>264.388847</ele>
        <time>2022-03-03T09:33:57.404Z</time>
      </trkpt>
      <trkpt lat="42.02556" lon="24.98949">
        <ele>263.801473</ele>
        <time>2022-03-03T09:34:00.428Z</time>
      </trkpt>
      <trkpt lat="42.02559" lon="24.98935">
        <ele>263.221044</ele>
        <time>2022-03-03T09:34:03.404Z</time>
      </trkpt>
      <trkpt lat="42.02563" lon="24.98921">
        <ele>262.62298</ele>
        <time>2022-03-03T09:34:06.407Z</time>
      </trkpt>
      <trkpt lat="42.02568" lon="24.98907">
        <ele>262.037225</ele>
        <time>2022-03-03T09:34:09.446Z</time>
      </trkpt>
      <trkpt lat="42.0258" lon="24.98895">
        <ele>261.282741</ele>
        <time>2022-03-03T09:34:12.408Z</time>
      </trkpt>
      <trkpt lat="42.0259" lon="24.98893">
        <ele>260.725404</ele>
        <time>2022-03-03T09:34:14.407Z</time>
      </trkpt>
      <trkpt lat="42.02598" lon="24.98898">
        <ele>260.239889</ele>
        <time>2022-03-03T09:34:16.423Z</time>
      </trkpt>
      <trkpt lat="42.02607" lon="24.98905">
        <ele>259.725301</ele>
        <time>2022-03-03T09:34:18.419Z</time>
      </trkpt>
      <trkpt lat="42.02615" lon="24.98912">
        <ele>259.201282</ele>
        <time>2022-03-03T09:34:20.417Z</time>
      </trkpt>
      <trkpt lat="42.02624" lon="24.98918">
        <ele>258.656233</ele>
        <time>2022-03-03T09:34:22.411Z</time>
      </trkpt>
      <trkpt lat="42.02634" lon="24.98925">
        <ele>258.081991</ele>
        <time>2022-03-03T09:34:24.398Z</time>
      </trkpt>
      <trkpt lat="42.02644" lon="24.98931">
        <ele>257.503001</ele>
        <time>2022-03-03T09:34:26.418Z</time>
      </trkpt>
      <trkpt lat="42.02653" lon="24.98939">
        <ele>256.92522</ele>
        <time>2022-03-03T09:34:28.411Z</time>
      </trkpt>
      <trkpt lat="42.02663" lon="24.98947">
        <ele>256.306709</ele>
        <time>2022-03-03T09:34:30.444Z</time>
      </trkpt>
      <trkpt lat="42.02674" lon="24.98956">
        <ele>255.651478</ele>
        <time>2022-03-03T09:34:32.437Z</time>
      </trkpt>
      <trkpt lat="42.02684" lon="24.98965">
        <ele>255.04419</ele>
        <time>2022-03-03T09:34:34.409Z</time>
      </trkpt>
      <trkpt lat="42.02694" lon="24.98972">
        <ele>255.077982</ele>
        <time>2022-03-03T09:34:36.423Z</time>
      </trkpt>
      <trkpt lat="42.02704" lon="24.98981">
        <ele>255.110165</ele>
        <time>2022-03-03T09:34:38.406Z</time>
      </trkpt>
      <trkpt lat="42.02713" lon="24.98989">
        <ele>255.1406</ele>
        <time>2022-03-03T09:34:40.428Z</time>
      </trkpt>
      <trkpt lat="42.02721" lon="24.98998">
        <ele>255.170158</ele>
        <time>2022-03-03T09:34:42.426Z</time>
      </trkpt>
      <trkpt lat="42.02728" lon="24.99008">
        <ele>255.197688</ele>
        <time>2022-03-03T09:34:44.402Z</time>
      </trkpt>
      <trkpt lat="42.02734" lon="24.99019">
        <ele>255.224472</ele>
        <time>2022-03-03T09:34:46.418Z</time>
      </trkpt>
      <trkpt lat="42.02739" lon="24.99029">
        <ele>255.250753</ele>
        <time>2022-03-03T09:34:48.461Z</time>
      </trkpt>
      <trkpt lat="42.02744" lon="24.99039">
        <ele>255.276245</ele>
        <time>2022-03-03T09:34:50.418Z</time>
      </trkpt>
      <trkpt lat="42.02752" lon="24.99053">
        <ele>255.310839</ele>
        <time>2022-03-03T09:34:53.417Z</time>
      </trkpt>
      <trkpt lat="42.02759" lon="24.99065">
        <ele>255.344006</ele>
        <time>2022-03-03T09:34:56.437Z</time>
      </trkpt>
      <trkpt lat="42.02768" lon="24.99076">
        <ele>255.37693</ele>
        <time>2022-03-03T09:34:59.393Z</time>
      </trkpt>
      <trkpt lat="42.02777" lon="24.99086">
        <ele>255.411081</ele>
        <time>2022-03-03T09:35:02.405Z</time>
      </trkpt>
      <trkpt lat="42.02785" lon="24.99094">
        <ele>255.437924</ele>
        <time>2022-03-03T09:35:04.402Z</time>
      </trkpt>
      <trkpt lat="42.02793" lon="24.991">
        <ele>255.463759</ele>
        <time>2022-03-03T09:35:06.440Z</time>
      </trkpt>
      <trkpt lat="42.02805" lon="24.99105">
        <ele>255.499248</ele>
        <time>2022-03-03T09:35:09.438Z</time>
      </trkpt>
      <trkpt lat="42.02818" lon="24.9911">
        <ele>255.53666</ele>
        <time>2022-03-03T09:35:12.403Z</time>
      </trkpt>
      <trkpt lat="42.02827" lon="24.99115">
        <ele>255.298697</ele>
        <time>2022-03-03T09:35:14.409Z</time>
      </trkpt>
      <trkpt lat="42.02836" lon="24.99121">
        <ele>254.95349</ele>
        <time>2022-03-03T09:35:16.461Z</time>
      </trkpt>
      <trkpt lat="42.02846" lon="24.99127">
        <ele>254.574921</ele>
        <time>2022-03-03T09:35:18.416Z</time>
      </trkpt>
      <trkpt lat="42.02856" lon="24.99134">
        <ele>254.193729</ele>
        <time>2022-03-03T09:35:20.405Z</time>
      </trkpt>
      <trkpt lat="42.02865" lon="24.99144">
        <ele>253.807364</ele>
        <time>2022-03-03T09:35:22.453Z</time>
      </trkpt>
      <trkpt lat="42.02872" lon="24.99154">
        <ele>253.453673</ele>
        <time>2022-03-03T09:35:24.407Z</time>
      </trkpt>
      <trkpt lat="42.02878" lon="24.99165">
        <ele>253.108684</ele>
        <time>2022-03-03T09:35:26.420Z</time>
      </trkpt>
      <trkpt lat="42.02883" lon="24.99176">
        <ele>252.779369</ele>
        <time>2022-03-03T09:35:28.391Z</time>
      </trkpt>
      <trkpt lat="42.02889" lon="24.99187">
        <ele>252.438848</ele>
        <time>2022-03-03T09:35:30.407Z</time>
      </trkpt>
      <trkpt lat="42.02893" lon="24.99198">
        <ele>252.123237</ele>
        <time>2022-03-03T09:35:32.442Z</time>
      </trkpt>
      <trkpt lat="42.02897" lon="24.99214">
        <ele>251.701829</ele>
        <time>2022-03-03T09:35:35.430Z</time>
      </trkpt>
      <trkpt lat="42.029" lon="24.99229">
        <ele>251.296709</ele>
        <time>2022-03-03T09:35:38.443Z</time>
      </trkpt>
      <trkpt lat="42.02903" lon="24.99245">
        <ele>250.886652</ele>
        <time>2022-03-03T09:35:41.410Z</time>
      </trkpt>
      <trkpt lat="42.02905" lon="24.99262">
        <ele>250.445854</ele>
        <time>2022-03-03T09:35:44.413Z</time>
      </trkpt>
      <trkpt lat="42.02907" lon="24.99275">
        <ele>250.104384</ele>
        <time>2022-03-03T09:35:46.427Z</time>
      </trkpt>
      <trkpt lat="42.02909" lon="24.99288">
        <ele>249.772233</ele>
        <time>2022-03-03T09:35:48.411Z</time>
      </trkpt>
      <trkpt lat="42.02911" lon="24.993">
        <ele>249.44571</ele>
        <time>2022-03-03T09:35:50.401Z</time>
      </trkpt>
      <trkpt lat="42.02913" lon="24.99313">
        <ele>249.334445</ele>
        <time>2022-03-03T09:35:52.420Z</time>
      </trkpt>
      <trkpt lat="42.02917" lon="24.99329">
        <ele>249.233645</ele>
        <time>2022-03-03T09:35:55.416Z</time>
      </trkpt>
      <trkpt lat="42.0292" lon="24.99341">
        <ele>249.163043</ele>
        <time>2022-03-03T09:35:57.422Z</time>
      </trkpt>
      <trkpt lat="42.02924" lon="24.99352">
        <ele>249.089202</ele>
        <time>2022-03-03T09:35:59.406Z</time>
      </trkpt>
      <trkpt lat="42.02929" lon="24.99364">
        <ele>249.009347</ele>
        <time>2022-03-03T09:36:01.412Z</time>
      </trkpt>
      <trkpt lat="42.02935" lon="24.99376">
        <ele>248.929448</ele>
        <time>2022-03-03T09:36:03.416Z</time>
      </trkpt>
      <trkpt lat="42.0294" lon="24.99387">
        <ele>248.85323</ele>
        <time>2022-03-03T09:36:05.424Z</time>
      </trkpt>
      <trkpt lat="42.02946" lon="24.99397">
        <ele>248.78217</ele>
        <time>2022-03-03T09:36:07.414Z</time>
      </trkpt>
      <trkpt lat="42.02955" lon="24.9941">
        <ele>248.676111</ele>
        <time>2022-03-03T09:36:10.415Z</time>
      </trkpt>
      <trkpt lat="42.02964" lon="24.9942">
        <ele>248.592981</ele>
        <time>2022-03-03T09:36:12.417Z</time>
      </trkpt>
      <trkpt lat="42.02972" lon="24.99428">
        <ele>248.512629</ele>
        <time>2022-03-03T09:36:14.406Z</time>
      </trkpt>
      <trkpt lat="42.0298" lon="24.99435">
        <ele>248.434563</ele>
        <time>2022-03-03T09:36:16.418Z</time>
      </trkpt>
      <trkpt lat="42.02992" lon="24.99443">
        <ele>248.33413</ele>
        <time>2022-03-03T09:36:19.405Z</time>
      </trkpt>
      <trkpt lat="42.03004" lon="24.99452">
        <ele>248.228517</ele>
        <time>2022-03-03T09:36:22.417Z</time>
      </trkpt>
      <trkpt lat="42.03013" lon="24.99457">
        <ele>248.153393</ele>
        <time>2022-03-03T09:36:24.411Z</time>
      </trkpt>
      <trkpt lat="42.03022" lon="24.99461">
        <ele>248.079298</ele>
        <time>2022-03-03T09:36:26.439Z</time>
      </trkpt>
      <trkpt lat="42.03035" lon="24.99466">
        <ele>247.905956</ele>
        <time>2022-03-03T09:36:29.433Z</time>
      </trkpt>
      <trkpt lat="42.03044" lon="24.99469">
        <ele>247.649073</ele>
        <time>2022-03-03T09:36:31.420Z</time>
      </trkpt>
      <trkpt lat="42.03055" lon="24.99475">
        <ele>247.303875</ele>
        <time>2022-03-03T09:36:34.442Z</time>
      </trkpt>
      <trkpt lat="42.03067" lon="24.99481">
        <ele>246.947695</ele>
        <time>2022-03-03T09:36:37.406Z</time>
      </trkpt>
      <trkpt lat="42.03079" lon="24.99487">
        <ele>246.564654</ele>
        <time>2022-03-03T09:36:40.464Z</time>
      </trkpt>
      <trkpt lat="42.03092" lon="24.99495">
        <ele>246.187798</ele>
        <time>2022-03-03T09:36:43.416Z</time>
      </trkpt>
      <trkpt lat="42.031" lon="24.995">
        <ele>245.915274</ele>
        <time>2022-03-03T09:36:45.417Z</time>
      </trkpt>
      <trkpt lat="42.0311" lon="24.99506">
        <ele>245.620371</ele>
        <time>2022-03-03T09:36:47.457Z</time>
      </trkpt>
      <trkpt lat="42.0312" lon="24.99511">
        <ele>245.310659</ele>
        <time>2022-03-03T09:36:49.414Z</time>
      </trkpt>
      <trkpt lat="42.0313" lon="24.99517">
        <ele>244.992704</ele>
        <time>2022-03-03T09:36:51.430Z</time>
      </trkpt>
      <trkpt lat="42.03141" lon="24.99522">
        <ele>244.657334</ele>
        <time>2022-03-03T09:36:53.418Z</time>
      </trkpt>
      <trkpt lat="42.03152" lon="24.99527">
        <ele>244.342238</ele>
        <time>2022-03-03T09:36:55.417Z</time>
      </trkpt>
      <trkpt lat="42.03163" lon="24.99533">
        <ele>244.008789</ele>
        <time>2022-03-03T09:36:57.445Z</time>
      </trkpt>
      <trkpt lat="42.03174" lon="24.99538">
        <ele>243.685149</ele>
        <time>2022-03-03T09:36:59.412Z</time>
      </trkpt>
      <trkpt lat="42.03185" lon="24.99544">
        <ele>243.343365</ele>
        <time>2022-03-03T09:37:01.422Z</time>
      </trkpt>
      <trkpt lat="42.03195" lon="24.9955">
        <ele>243.027312</ele>
        <time>2022-03-03T09:37:03.462Z</time>
      </trkpt>
      <trkpt lat="42.03206" lon="24.99555">
        <ele>242.774667</ele>
        <time>2022-03-03T09:37:05.415Z</time>
      </trkpt>
      <trkpt lat="42.03216" lon="24.99561">
        <ele>242.57217</ele>
        <time>2022-03-03T09:37:07.428Z</time>
      </trkpt>
      <trkpt lat="42.03225" lon="24.99566">
        <ele>242.383696</ele>
        <time>2022-03-03T09:37:09.425Z</time>
      </trkpt>
      <trkpt lat="42.03235" lon="24.99572">
        <ele>242.190752</ele>
        <time>2022-03-03T09:37:11.419Z</time>
      </trkpt>
      <trkpt lat="42.03244" lon="24.99577">
        <ele>242.012728</ele>
        <time>2022-03-03T09:37:13.406Z</time>
      </trkpt>
      <trkpt lat="42.03253" lon="24.99582">
        <ele>241.826337</ele>
        <time>2022-03-03T09:37:15.423Z</time>
      </trkpt>
      <trkpt lat="42.03262" lon="24.99587">
        <ele>241.646786</ele>
        <time>2022-03-03T09:37:17.422Z</time>
      </trkpt>
      <trkpt lat="42.03271" lon="24.99591">
        <ele>241.467528</ele>
        <time>2022-03-03T09:37:19.406Z</time>
      </trkpt>
      <trkpt lat="42.0328" lon="24.99596">
        <ele>241.29636</ele>
        <time>2022-03-03T09:37:21.410Z</time>
      </trkpt>
      <trkpt lat="42.03289" lon="24.99601">
        <ele>241.125193</ele>
        <time>2022-03-03T09:37:23.419Z</time>
      </trkpt>
      <trkpt lat="42.03297" lon="24.99605">
        <ele>240.959463</ele>
        <time>2022-03-03T09:37:25.422Z</time>
      </trkpt>
      <trkpt lat="42.03306" lon="24.99609">
        <ele>240.787281</ele>
        <time>2022-03-03T09:37:27.444Z</time>
      </trkpt>
      <trkpt lat="42.03318" lon="24.99616">
        <ele>240.543773</ele>
        <time>2022-03-03T09:37:30.414Z</time>
      </trkpt>
      <trkpt lat="42.0333" lon="24.99623">
        <ele>240.297005</ele>
        <time>2022-03-03T09:37:33.411Z</time>
      </trkpt>
      <trkpt lat="42.03339" lon="24.99628">
        <ele>240.111816</ele>
        <time>2022-03-03T09:37:35.432Z</time>
      </trkpt>
      <trkpt lat="42.03348" lon="24.99633">
        <ele>239.933792</ele>
        <time>2022-03-03T09:37:37.414Z</time>
      </trkpt>
      <trkpt lat="42.03357" lon="24.99638">
        <ele>239.758469</ele>
        <time>2022-03-03T09:37:39.426Z</time>
      </trkpt>
      <trkpt lat="42.03369" lon="24.99644">
        <ele>239.576045</ele>
        <time>2022-03-03T09:37:42.453Z</time>
      </trkpt>
      <trkpt lat="42.03382" lon="24.9965">
        <ele>239.535705</ele>
        <time>2022-03-03T09:37:45.418Z</time>
      </trkpt>
      <trkpt lat="42.03391" lon="24.99654">
        <ele>239.505703</ele>
        <time>2022-03-03T09:37:47.430Z</time>
      </trkpt>
      <trkpt lat="42.034" lon="24.99659">
        <ele>239.478096</ele>
        <time>2022-03-03T09:37:49.401Z</time>
      </trkpt>
      <trkpt lat="42.03411" lon="24.99665">
        <ele>239.440555</ele>
        <time>2022-03-03T09:37:52.415Z</time>
      </trkpt>
      <trkpt lat="42.03424" lon="24.99672">
        <ele>239.400493</ele>
        <time>2022-03-03T09:37:55.428Z</time>
      </trkpt>
      <trkpt lat="42.03432" lon="24.99676">
        <ele>239.373044</ele>
        <time>2022-03-03T09:37:57.420Z</time>
      </trkpt>
      <trkpt lat="42.03445" lon="24.99682">
        <ele>239.332267</ele>
        <time>2022-03-03T09:38:00.418Z</time>
      </trkpt>
      <trkpt lat="42.03454" lon="24.99687">
        <ele>239.305049</ele>
        <time>2022-03-03T09:38:02.418Z</time>
      </trkpt>
      <trkpt lat="42.03462" lon="24.99691">
        <ele>239.277957</ele>
        <time>2022-03-03T09:38:04.459Z</time>
      </trkpt>
      <trkpt lat="42.03471" lon="24.99696">
        <ele>239.248436</ele>
        <time>2022-03-03T09:38:06.431Z</time>
      </trkpt>
      <trkpt lat="42.03481" lon="24.99701">
        <ele>239.218275</ele>
        <time>2022-03-03T09:38:08.423Z</time>
      </trkpt>
      <trkpt lat="42.0349" lon="24.99706">
        <ele>239.188312</ele>
        <time>2022-03-03T09:38:10.435Z</time>
      </trkpt>
      <trkpt lat="42.03499" lon="24.9971">
        <ele>239.161221</ele>
        <time>2022-03-03T09:38:12.429Z</time>
      </trkpt>
      <trkpt lat="42.0351" lon="24.99715">
        <ele>239.124993</ele>
        <time>2022-03-03T09:38:15.418Z</time>
      </trkpt>
      <trkpt lat="42.03523" lon="24.9972">
        <ele>239.084701</ele>
        <time>2022-03-03T09:38:18.411Z</time>
      </trkpt>
      <trkpt lat="42.03536" lon="24.99724">
        <ele>239.037344</ele>
        <time>2022-03-03T09:38:21.413Z</time>
      </trkpt>
      <trkpt lat="42.03548" lon="24.9973">
        <ele>238.834896</ele>
        <time>2022-03-03T09:38:24.404Z</time>
      </trkpt>
      <trkpt lat="42.03557" lon="24.99732">
        <ele>238.692131</ele>
        <time>2022-03-03T09:38:26.456Z</time>
      </trkpt>
      <trkpt lat="42.0357" lon="24.99736">
        <ele>238.488399</ele>
        <time>2022-03-03T09:38:29.413Z</time>
      </trkpt>
      <trkpt lat="42.03579" lon="24.99739">
        <ele>238.34202</ele>
        <time>2022-03-03T09:38:31.407Z</time>
      </trkpt>
      <trkpt lat="42.03589" lon="24.99741">
        <ele>238.189909</ele>
        <time>2022-03-03T09:38:33.409Z</time>
      </trkpt>
      <trkpt lat="42.03598" lon="24.99743">
        <ele>238.039714</ele>
        <time>2022-03-03T09:38:35.417Z</time>
      </trkpt>
      <trkpt lat="42.03611" lon="24.99746">
        <ele>237.837224</ele>
        <time>2022-03-03T09:38:38.447Z</time>
      </trkpt>
      <trkpt lat="42.03624" lon="24.99749">
        <ele>237.632415</ele>
        <time>2022-03-03T09:38:41.408Z</time>
      </trkpt>
      <trkpt lat="42.03636" lon="24.99751">
        <ele>237.435187</ele>
        <time>2022-03-03T09:38:44.415Z</time>
      </trkpt>
      <trkpt lat="42.03649" lon="24.99754">
        <ele>237.229356</ele>
        <time>2022-03-03T09:38:47.416Z</time>
      </trkpt>
      <trkpt lat="42.03661" lon="24.99757">
        <ele>237.035206</ele>
        <time>2022-03-03T09:38:50.415Z</time>
      </trkpt>
      <trkpt lat="42.03674" lon="24.99761">
        <ele>236.838834</ele>
        <time>2022-03-03T09:38:53.402Z</time>
      </trkpt>
      <trkpt lat="42.03686" lon="24.99765">
        <ele>236.635617</ele>
        <time>2022-03-03T09:38:56.420Z</time>
      </trkpt>
      <trkpt lat="42.03698" lon="24.99767">
        <ele>236.448147</ele>
        <time>2022-03-03T09:38:59.419Z</time>
      </trkpt>
      <trkpt lat="42.0371" lon="24.99768">
        <ele>236.26445</ele>
        <time>2022-03-03T09:39:02.398Z</time>
      </trkpt>
      <trkpt lat="42.03723" lon="24.9977">
        <ele>236.457534</ele>
        <time>2022-03-03T09:39:05.415Z</time>
      </trkpt>
      <trkpt lat="42.03736" lon="24.99773">
        <ele>236.701206</ele>
        <time>2022-03-03T09:39:08.425Z</time>
      </trkpt>
      <trkpt lat="42.03748" lon="24.99775">
        <ele>236.950021</ele>
        <time>2022-03-03T09:39:11.411Z</time>
      </trkpt>
      <trkpt lat="42.03761" lon="24.99778">
        <ele>237.197508</ele>
        <time>2022-03-03T09:39:14.417Z</time>
      </trkpt>
      <trkpt lat="42.03774" lon="24.9978">
        <ele>237.445654</ele>
        <time>2022-03-03T09:39:17.454Z</time>
      </trkpt>
      <trkpt lat="42.03786" lon="24.99783">
        <ele>237.693799</ele>
        <time>2022-03-03T09:39:20.419Z</time>
      </trkpt>
      <trkpt lat="42.03798" lon="24.99785">
        <ele>237.913044</ele>
        <time>2022-03-03T09:39:23.436Z</time>
      </trkpt>
      <trkpt lat="42.03809" lon="24.99786">
        <ele>238.133532</ele>
        <time>2022-03-03T09:39:26.412Z</time>
      </trkpt>
      <trkpt lat="42.0382" lon="24.99788">
        <ele>238.34112</ele>
        <time>2022-03-03T09:39:29.411Z</time>
      </trkpt>
      <trkpt lat="42.03831" lon="24.99788">
        <ele>238.553301</ele>
        <time>2022-03-03T09:39:32.464Z</time>
      </trkpt>
      <trkpt lat="42.03843" lon="24.99789">
        <ele>238.788653</ele>
        <time>2022-03-03T09:39:35.417Z</time>
      </trkpt>
      <trkpt lat="42.03855" lon="24.99791">
        <ele>239.026191</ele>
        <time>2022-03-03T09:39:38.421Z</time>
      </trkpt>
      <trkpt lat="42.03868" lon="24.99794">
        <ele>239.282415</ele>
        <time>2022-03-03T09:39:41.418Z</time>
      </trkpt>
      <trkpt lat="42.03881" lon="24.99797">
        <ele>239.523446</ele>
        <time>2022-03-03T09:39:44.402Z</time>
      </trkpt>
      <trkpt lat="42.03894" lon="24.998">
        <ele>239.777537</ele>
        <time>2022-03-03T09:39:47.425Z</time>
      </trkpt>
      <trkpt lat="42.03905" lon="24.99804">
        <ele>240.012491</ele>
        <time>2022-03-03T09:39:50.421Z</time>
      </trkpt>
      <trkpt lat="42.03917" lon="24.99811">
        <ele>240.245135</ele>
        <time>2022-03-03T09:39:53.407Z</time>
      </trkpt>
      <trkpt lat="42.03927" lon="24.99821">
        <ele>240.497111</ele>
        <time>2022-03-03T09:39:56.408Z</time>
      </trkpt>
      <trkpt lat="42.03938" lon="24.99831">
        <ele>240.74344</ele>
        <time>2022-03-03T09:39:59.429Z</time>
      </trkpt>
      <trkpt lat="42.03949" lon="24.9984">
        <ele>240.993843</ele>
        <time>2022-03-03T09:40:02.411Z</time>
      </trkpt>
      <trkpt lat="42.0396" lon="24.99848">
        <ele>241.234521</ele>
        <time>2022-03-03T09:40:05.438Z</time>
      </trkpt>
      <trkpt lat="42.0397" lon="24.99858">
        <ele>241.477685</ele>
        <time>2022-03-03T09:40:08.406Z</time>
      </trkpt>
      <trkpt lat="42.03982" lon="24.99867">
        <ele>241.736875</ele>
        <time>2022-03-03T09:40:11.437Z</time>
      </trkpt>
      <trkpt lat="42.0399" lon="24.99873">
        <ele>241.911907</ele>
        <time>2022-03-03T09:40:13.412Z</time>
      </trkpt>
      <trkpt lat="42.03998" lon="24.9988">
        <ele>242.089108</ele>
        <time>2022-03-03T09:40:15.406Z</time>
      </trkpt>
      <trkpt lat="42.04006" lon="24.99886">
        <ele>242.266792</ele>
        <time>2022-03-03T09:40:17.421Z</time>
      </trkpt>
      <trkpt lat="42.04017" lon="24.99895">
        <ele>242.526485</ele>
        <time>2022-03-03T09:40:20.411Z</time>
      </trkpt>
      <trkpt lat="42.04025" lon="24.99902">
        <ele>242.705174</ele>
        <time>2022-03-03T09:40:22.406Z</time>
      </trkpt>
      <trkpt lat="42.04033" lon="24.99908">
        <ele>242.884962</ele>
        <time>2022-03-03T09:40:24.442Z</time>
      </trkpt>
      <trkpt lat="42.04041" lon="24.99914">
        <ele>243.062903</ele>
        <time>2022-03-03T09:40:26.432Z</time>
      </trkpt>
      <trkpt lat="42.04051" lon="24.99923">
        <ele>243.07346</ele>
        <time>2022-03-03T09:40:29.414Z</time>
      </trkpt>
      <trkpt lat="42.0406" lon="24.99929">
        <ele>242.954596</ele>
        <time>2022-03-03T09:40:31.400Z</time>
      </trkpt>
      <trkpt lat="42.04068" lon="24.99935">
        <ele>242.833731</ele>
        <time>2022-03-03T09:40:33.411Z</time>
      </trkpt>
      <trkpt lat="42.0408" lon="24.99942">
        <ele>242.667861</ele>
        <time>2022-03-03T09:40:36.422Z</time>
      </trkpt>
      <trkpt lat="42.04089" lon="24.99949">
        <ele>242.528449</ele>
        <time>2022-03-03T09:40:39.414Z</time>
      </trkpt>
      <trkpt lat="42.04098" lon="24.99957">
        <ele>242.39144</ele>
        <time>2022-03-03T09:40:42.415Z</time>
      </trkpt>
      <trkpt lat="42.04104" lon="24.99969">
        <ele>242.252439</ele>
        <time>2022-03-03T09:40:45.426Z</time>
      </trkpt>
      <trkpt lat="42.04107" lon="24.99982">
        <ele>242.128432</ele>
        <time>2022-03-03T09:40:48.426Z</time>
      </trkpt>
      <trkpt lat="42.04108" lon="24.99996">
        <ele>241.997113</ele>
        <time>2022-03-03T09:40:52.458Z</time>
      </trkpt>
      <trkpt lat="42.04107" lon="25.0001">
        <ele>241.857048</ele>
        <time>2022-03-03T09:40:57.416Z</time>
      </trkpt>
      <trkpt lat="42.04107" lon="25.00024">
        <ele>241.729631</ele>
        <time>2022-03-03T09:41:02.418Z</time>
      </trkpt>
      <trkpt lat="42.04107" lon="25.00037">
        <ele>241.604058</ele>
        <time>2022-03-03T09:41:06.380Z</time>
      </trkpt>
      <trkpt lat="42.04113" lon="25.00047">
        <ele>241.4781</ele>
        <time>2022-03-03T09:41:12.415Z</time>
      </trkpt>
      <trkpt lat="42.04113" lon="25.00034">
        <ele>241.34773</ele>
        <time>2022-03-03T09:41:17.393Z</time>
      </trkpt>
      <trkpt lat="42.04112" lon="25.00021">
        <ele>241.222746</ele>
        <time>2022-03-03T09:41:21.404Z</time>
      </trkpt>
      <trkpt lat="42.04115" lon="25.00005">
        <ele>241.069137</ele>
        <time>2022-03-03T09:41:25.419Z</time>
      </trkpt>
      <trkpt lat="42.04116" lon="24.99989">
        <ele>240.915278</ele>
        <time>2022-03-03T09:41:29.417Z</time>
      </trkpt>
      <trkpt lat="42.04118" lon="24.99976">
        <ele>240.730925</ele>
        <time>2022-03-03T09:41:32.400Z</time>
      </trkpt>
      <trkpt lat="42.0412" lon="24.99963">
        <ele>240.502731</ele>
        <time>2022-03-03T09:41:35.398Z</time>
      </trkpt>
      <trkpt lat="42.04123" lon="24.9995">
        <ele>240.254135</ele>
        <time>2022-03-03T09:41:38.406Z</time>
      </trkpt>
      <trkpt lat="42.04131" lon="24.99938">
        <ele>239.968066</ele>
        <time>2022-03-03T09:41:42.411Z</time>
      </trkpt>
      <trkpt lat="42.0414" lon="24.99931">
        <ele>239.705538</ele>
        <time>2022-03-03T09:41:45.405Z</time>
      </trkpt>
      <trkpt lat="42.04151" lon="24.99925">
        <ele>239.421277</ele>
        <time>2022-03-03T09:41:48.402Z</time>
      </trkpt>
      <trkpt lat="42.04163" lon="24.9992">
        <ele>239.111449</ele>
        <time>2022-03-03T09:41:51.419Z</time>
      </trkpt>
      <trkpt lat="42.04176" lon="24.99913">
        <ele>238.787452</ele>
        <time>2022-03-03T09:41:54.397Z</time>
      </trkpt>
      <trkpt lat="42.04186" lon="24.99906">
        <ele>238.503693</ele>
        <time>2022-03-03T09:41:57.407Z</time>
      </trkpt>
      <trkpt lat="42.04195" lon="24.99898">
        <ele>238.255881</ele>
        <time>2022-03-03T09:42:00.474Z</time>
      </trkpt>
      <trkpt lat="42.04204" lon="24.99891">
        <ele>238.004686</ele>
        <time>2022-03-03T09:42:03.415Z</time>
      </trkpt>
      <trkpt lat="42.04214" lon="24.99884">
        <ele>237.739486</ele>
        <time>2022-03-03T09:42:06.412Z</time>
      </trkpt>
      <trkpt lat="42.04223" lon="24.99877">
        <ele>237.487985</ele>
        <time>2022-03-03T09:42:09.406Z</time>
      </trkpt>
      <trkpt lat="42.04231" lon="24.9987">
        <ele>237.253778</ele>
        <time>2022-03-03T09:42:12.436Z</time>
      </trkpt>
      <trkpt lat="42.0424" lon="24.99864">
        <ele>237.00387</ele>
        <time>2022-03-03T09:42:15.412Z</time>
      </trkpt>
      <trkpt lat="42.04251" lon="24.99857">
        <ele>236.720339</ele>
        <time>2022-03-03T09:42:18.413Z</time>
      </trkpt>
      <trkpt lat="42.04261" lon="24.9985">
        <ele>236.464748</ele>
        <time>2022-03-03T09:42:21.419Z</time>
      </trkpt>
      <trkpt lat="42.04271" lon="24.99843">
        <ele>236.269391</ele>
        <time>2022-03-03T09:42:24.399Z</time>
      </trkpt>
      <trkpt lat="42.04282" lon="24.99836">
        <ele>236.059178</ele>
        <time>2022-03-03T09:42:27.419Z</time>
      </trkpt>
      <trkpt lat="42.04292" lon="24.99829">
        <ele>235.845958</ele>
        <time>2022-03-03T09:42:30.423Z</time>
      </trkpt>
      <trkpt lat="42.04304" lon="24.99823">
        <ele>235.62194</ele>
        <time>2022-03-03T09:42:33.457Z</time>
      </trkpt>
      <trkpt lat="42.04315" lon="24.99818">
        <ele>235.418779</ele>
        <time>2022-03-03T09:42:36.419Z</time>
      </trkpt>
      <trkpt lat="42.04326" lon="24.99812">
        <ele>235.210501</ele>
        <time>2022-03-03T09:42:39.409Z</time>
      </trkpt>
      <trkpt lat="42.04339" lon="24.99807">
        <ele>234.972775</ele>
        <time>2022-03-03T09:42:42.417Z</time>
      </trkpt>
      <trkpt lat="42.04347" lon="24.99803">
        <ele>234.809237</ele>
        <time>2022-03-03T09:42:44.474Z</time>
      </trkpt>
      <trkpt lat="42.04359" lon="24.99797">
        <ele>234.579517</ele>
        <time>2022-03-03T09:42:47.413Z</time>
      </trkpt>
      <trkpt lat="42.04371" lon="24.99791">
        <ele>234.355705</ele>
        <time>2022-03-03T09:42:50.414Z</time>
      </trkpt>
      <trkpt lat="42.04384" lon="24.99785">
        <ele>234.125106</ele>
        <time>2022-03-03T09:42:53.436Z</time>
      </trkpt>
      <trkpt lat="42.04395" lon="24.99779">
        <ele>233.902725</ele>
        <time>2022-03-03T09:42:56.406Z</time>
      </trkpt>
      <trkpt lat="42.04407" lon="24.99773">
        <ele>233.672569</ele>
        <time>2022-03-03T09:42:59.398Z</time>
      </trkpt>
      <trkpt lat="42.04419" lon="24.99768">
        <ele>233.44622</ele>
        <time>2022-03-03T09:43:02.415Z</time>
      </trkpt>
      <trkpt lat="42.04431" lon="24.99763">
        <ele>233.242297</ele>
        <time>2022-03-03T09:43:05.391Z</time>
      </trkpt>
      <trkpt lat="42.04443" lon="24.99757">
        <ele>233.048348</ele>
        <time>2022-03-03T09:43:08.416Z</time>
      </trkpt>
      <trkpt lat="42.04455" lon="24.99752">
        <ele>232.843227</ele>
        <time>2022-03-03T09:43:11.411Z</time>
      </trkpt>
      <trkpt lat="42.04466" lon="24.99747">
        <ele>232.661908</ele>
        <time>2022-03-03T09:43:14.398Z</time>
      </trkpt>
      <trkpt lat="42.04477" lon="24.99743">
        <ele>232.476766</ele>
        <time>2022-03-03T09:43:18.426Z</time>
      </trkpt>
      <trkpt lat="42.04486" lon="24.99738">
        <ele>232.332632</ele>
        <time>2022-03-03T09:43:21.397Z</time>
      </trkpt>
      <trkpt lat="42.04495" lon="24.99732">
        <ele>232.175493</ele>
        <time>2022-03-03T09:43:24.401Z</time>
      </trkpt>
      <trkpt lat="42.04506" lon="24.99724">
        <ele>231.975985</ele>
        <time>2022-03-03T09:43:27.407Z</time>
      </trkpt>
      <trkpt lat="42.04516" lon="24.99717">
        <ele>231.798882</ele>
        <time>2022-03-03T09:43:30.414Z</time>
      </trkpt>
      <trkpt lat="42.04524" lon="24.99709">
        <ele>231.634656</ele>
        <time>2022-03-03T09:43:33.403Z</time>
      </trkpt>
      <trkpt lat="42.04532" lon="24.997">
        <ele>231.473823</ele>
        <time>2022-03-03T09:43:36.405Z</time>
      </trkpt>
      <trkpt lat="42.0454" lon="24.99691">
        <ele>231.308958</ele>
        <time>2022-03-03T09:43:39.414Z</time>
      </trkpt>
      <trkpt lat="42.04548" lon="24.99681">
        <ele>231.142582</ele>
        <time>2022-03-03T09:43:42.401Z</time>
      </trkpt>
      <trkpt lat="42.04554" lon="24.99668">
        <ele>230.959806</ele>
        <time>2022-03-03T09:43:45.399Z</time>
      </trkpt>
      <trkpt lat="42.04562" lon="24.99655">
        <ele>230.776092</ele>
        <time>2022-03-03T09:43:48.404Z</time>
      </trkpt>
      <trkpt lat="42.04568" lon="24.99644">
        <ele>230.607379</ele>
        <time>2022-03-03T09:43:51.401Z</time>
      </trkpt>
      <trkpt lat="42.04575" lon="24.99633">
        <ele>230.537834</ele>
        <time>2022-03-03T09:43:54.418Z</time>
      </trkpt>
      <trkpt lat="42.04581" lon="24.99623">
        <ele>230.631704</ele>
        <time>2022-03-03T09:43:57.435Z</time>
      </trkpt>
      <trkpt lat="42.04587" lon="24.99613">
        <ele>230.716611</ele>
        <time>2022-03-03T09:44:00.448Z</time>
      </trkpt>
      <trkpt lat="42.04593" lon="24.99603">
        <ele>230.802626</ele>
        <time>2022-03-03T09:44:03.397Z</time>
      </trkpt>
      <trkpt lat="42.04599" lon="24.99591">
        <ele>230.901152</ele>
        <time>2022-03-03T09:44:06.450Z</time>
      </trkpt>
      <trkpt lat="42.04606" lon="24.99581">
        <ele>230.997257</ele>
        <time>2022-03-03T09:44:09.449Z</time>
      </trkpt>
      <trkpt lat="42.04613" lon="24.9957">
        <ele>231.093361</ele>
        <time>2022-03-03T09:44:12.414Z</time>
      </trkpt>
      <trkpt lat="42.04619" lon="24.9956">
        <ele>231.184231</ele>
        <time>2022-03-03T09:44:15.416Z</time>
      </trkpt>
      <trkpt lat="42.04626" lon="24.99549">
        <ele>231.278435</ele>
        <time>2022-03-03T09:44:18.413Z</time>
      </trkpt>
      <trkpt lat="42.04632" lon="24.99538">
        <ele>231.372159</ele>
        <time>2022-03-03T09:44:21.418Z</time>
      </trkpt>
      <trkpt lat="42.04638" lon="24.99527">
        <ele>231.465229</ele>
        <time>2022-03-03T09:44:24.397Z</time>
      </trkpt>
      <trkpt lat="42.04644" lon="24.99517">
        <ele>231.556099</ele>
        <time>2022-03-03T09:44:27.421Z</time>
      </trkpt>
      <trkpt lat="42.04651" lon="24.99504">
        <ele>231.659552</ele>
        <time>2022-03-03T09:44:30.414Z</time>
      </trkpt>
      <trkpt lat="42.04658" lon="24.99492">
        <ele>231.765313</ele>
        <time>2022-03-03T09:44:33.479Z</time>
      </trkpt>
      <trkpt lat="42.04665" lon="24.99482">
        <ele>231.861417</ele>
        <time>2022-03-03T09:44:36.412Z</time>
      </trkpt>
      <trkpt lat="42.04671" lon="24.99471">
        <ele>231.954516</ele>
        <time>2022-03-03T09:44:39.397Z</time>
      </trkpt>
      <trkpt lat="42.04678" lon="24.9946">
        <ele>232.050309</ele>
        <time>2022-03-03T09:44:42.403Z</time>
      </trkpt>
      <trkpt lat="42.04684" lon="24.99449">
        <ele>232.14227</ele>
        <time>2022-03-03T09:44:45.418Z</time>
      </trkpt>
      <trkpt lat="42.0469" lon="24.99439">
        <ele>232.247107</ele>
        <time>2022-03-03T09:44:48.412Z</time>
      </trkpt>
      <trkpt lat="42.04696" lon="24.99429">
        <ele>232.35221</ele>
        <time>2022-03-03T09:44:51.406Z</time>
      </trkpt>
      <trkpt lat="42.04702" lon="24.99418">
        <ele>232.454597</ele>
        <time>2022-03-03T09:44:54.384Z</time>
      </trkpt>
      <trkpt lat="42.04707" lon="24.99408">
        <ele>232.558283</ele>
        <time>2022-03-03T09:44:57.421Z</time>
      </trkpt>
      <trkpt lat="42.04714" lon="24.99398">
        <ele>232.666907</ele>
        <time>2022-03-03T09:45:00.400Z</time>
      </trkpt>
      <trkpt lat="42.0472" lon="24.99387">
        <ele>232.779031</ele>
        <time>2022-03-03T09:45:03.396Z</time>
      </trkpt>
      <trkpt lat="42.04727" lon="24.99376">
        <ele>232.88852</ele>
        <time>2022-03-03T09:45:06.436Z</time>
      </trkpt>
      <trkpt lat="42.04733" lon="24.99364">
        <ele>233.006359</ele>
        <time>2022-03-03T09:45:09.394Z</time>
      </trkpt>
      <trkpt lat="42.0474" lon="24.99353">
        <ele>233.124205</ele>
        <time>2022-03-03T09:45:12.421Z</time>
      </trkpt>
      <trkpt lat="42.04747" lon="24.99341">
        <ele>233.241543</ele>
        <time>2022-03-03T09:45:15.407Z</time>
      </trkpt>
      <trkpt lat="42.04754" lon="24.9933">
        <ele>233.359502</ele>
        <time>2022-03-03T09:45:18.453Z</time>
      </trkpt>
      <trkpt lat="42.0476" lon="24.99318">
        <ele>233.479279</ele>
        <time>2022-03-03T09:45:21.415Z</time>
      </trkpt>
      <trkpt lat="42.04767" lon="24.99306">
        <ele>233.597125</ele>
        <time>2022-03-03T09:45:24.397Z</time>
      </trkpt>
      <trkpt lat="42.04774" lon="24.99295">
        <ele>233.709997</ele>
        <time>2022-03-03T09:45:27.397Z</time>
      </trkpt>
      <trkpt lat="42.04779" lon="24.99285">
        <ele>233.812436</ele>
        <time>2022-03-03T09:45:30.419Z</time>
      </trkpt>
      <trkpt lat="42.04786" lon="24.99275">
        <ele>233.922632</ele>
        <time>2022-03-03T09:45:33.393Z</time>
      </trkpt>
      <trkpt lat="42.04792" lon="24.99264">
        <ele>234.030169</ele>
        <time>2022-03-03T09:45:36.415Z</time>
      </trkpt>
      <trkpt lat="42.04798" lon="24.99254">
        <ele>234.013146</ele>
        <time>2022-03-03T09:45:39.415Z</time>
      </trkpt>
      <trkpt lat="42.04803" lon="24.99244">
        <ele>233.791365</ele>
        <time>2022-03-03T09:45:42.414Z</time>
      </trkpt>
      <trkpt lat="42.04809" lon="24.99233">
        <ele>233.549531</ele>
        <time>2022-03-03T09:45:45.417Z</time>
      </trkpt>
      <trkpt lat="42.04816" lon="24.99222">
        <ele>233.294657</ele>
        <time>2022-03-03T09:45:48.426Z</time>
      </trkpt>
      <trkpt lat="42.04823" lon="24.99211">
        <ele>233.029478</ele>
        <time>2022-03-03T09:45:51.412Z</time>
      </trkpt>
      <trkpt lat="42.0483" lon="24.99199">
        <ele>232.768915</ele>
        <time>2022-03-03T09:45:54.407Z</time>
      </trkpt>
      <trkpt lat="42.04837" lon="24.99187">
        <ele>232.48823</ele>
        <time>2022-03-03T09:45:58.438Z</time>
      </trkpt>
      <trkpt lat="42.04843" lon="24.99177">
        <ele>232.247787</ele>
        <time>2022-03-03T09:46:01.416Z</time>
      </trkpt>
      <trkpt lat="42.0485" lon="24.99165">
        <ele>231.984313</ele>
        <time>2022-03-03T09:46:04.402Z</time>
      </trkpt>
      <trkpt lat="42.04857" lon="24.99155">
        <ele>231.730823</ele>
        <time>2022-03-03T09:46:07.392Z</time>
      </trkpt>
      <trkpt lat="42.04864" lon="24.99143">
        <ele>231.464731</ele>
        <time>2022-03-03T09:46:10.410Z</time>
      </trkpt>
      <trkpt lat="42.0487" lon="24.99132">
        <ele>231.211383</ele>
        <time>2022-03-03T09:46:13.409Z</time>
      </trkpt>
      <trkpt lat="42.04877" lon="24.99121">
        <ele>230.965246</ele>
        <time>2022-03-03T09:46:16.397Z</time>
      </trkpt>
      <trkpt lat="42.04883" lon="24.99109">
        <ele>230.70487</ele>
        <time>2022-03-03T09:46:19.417Z</time>
      </trkpt>
      <trkpt lat="42.0489" lon="24.99098">
        <ele>230.448277</ele>
        <time>2022-03-03T09:46:22.439Z</time>
      </trkpt>
      <trkpt lat="42.04896" lon="24.99089">
        <ele>230.219351</ele>
        <time>2022-03-03T09:46:25.409Z</time>
      </trkpt>
      <trkpt lat="42.04903" lon="24.99078">
        <ele>229.96412</ele>
        <time>2022-03-03T09:46:28.409Z</time>
      </trkpt>
      <trkpt lat="42.04909" lon="24.99066">
        <ele>229.733006</ele>
        <time>2022-03-03T09:46:31.453Z</time>
      </trkpt>
      <trkpt lat="42.04915" lon="24.99056">
        <ele>229.616861</ele>
        <time>2022-03-03T09:46:34.398Z</time>
      </trkpt>
      <trkpt lat="42.0492" lon="24.99046">
        <ele>229.50838</ele>
        <time>2022-03-03T09:46:37.457Z</time>
      </trkpt>
      <trkpt lat="42.04926" lon="24.99035">
        <ele>229.390062</ele>
        <time>2022-03-03T09:46:40.398Z</time>
      </trkpt>
      <trkpt lat="42.04932" lon="24.99025">
        <ele>229.273901</ele>
        <time>2022-03-03T09:46:43.449Z</time>
      </trkpt>
      <trkpt lat="42.04938" lon="24.99013">
        <ele>229.139108</ele>
        <time>2022-03-03T09:46:47.397Z</time>
      </trkpt>
      <trkpt lat="42.04944" lon="24.99003">
        <ele>229.025689</ele>
        <time>2022-03-03T09:46:50.455Z</time>
      </trkpt>
      <trkpt lat="42.0495" lon="24.98992">
        <ele>228.910164</ele>
        <time>2022-03-03T09:46:53.423Z</time>
      </trkpt>
      <trkpt lat="42.04957" lon="24.9898">
        <ele>228.770876</ele>
        <time>2022-03-03T09:46:57.418Z</time>
      </trkpt>
      <trkpt lat="42.04963" lon="24.9897">
        <ele>228.656001</ele>
        <time>2022-03-03T09:47:00.435Z</time>
      </trkpt>
      <trkpt lat="42.04969" lon="24.9896">
        <ele>228.539836</ele>
        <time>2022-03-03T09:47:03.405Z</time>
      </trkpt>
      <trkpt lat="42.04976" lon="24.98949">
        <ele>228.415426</ele>
        <time>2022-03-03T09:47:06.414Z</time>
      </trkpt>
      <trkpt lat="42.04982" lon="24.98938">
        <ele>228.292116</ele>
        <time>2022-03-03T09:47:09.405Z</time>
      </trkpt>
      <trkpt lat="42.04988" lon="24.98927">
        <ele>228.167361</ele>
        <time>2022-03-03T09:47:12.434Z</time>
      </trkpt>
      <trkpt lat="42.04995" lon="24.98915">
        <ele>228.033277</ele>
        <time>2022-03-03T09:47:15.410Z</time>
      </trkpt>
      <trkpt lat="42.05002" lon="24.98904">
        <ele>227.902709</ele>
        <time>2022-03-03T09:47:18.416Z</time>
      </trkpt>
      <trkpt lat="42.0501" lon="24.98892">
        <ele>227.761967</ele>
        <time>2022-03-03T09:47:22.450Z</time>
      </trkpt>
      <trkpt lat="42.05016" lon="24.98881">
        <ele>227.641524</ele>
        <time>2022-03-03T09:47:25.407Z</time>
      </trkpt>
      <trkpt lat="42.05021" lon="24.98871">
        <ele>227.453485</ele>
        <time>2022-03-03T09:47:28.404Z</time>
      </trkpt>
      <trkpt lat="42.05027" lon="24.9886">
        <ele>227.206244</ele>
        <time>2022-03-03T09:47:31.398Z</time>
      </trkpt>
      <trkpt lat="42.05034" lon="24.9885">
        <ele>226.952239</ele>
        <time>2022-03-03T09:47:34.393Z</time>
      </trkpt>
      <trkpt lat="42.05041" lon="24.98838">
        <ele>226.671952</ele>
        <time>2022-03-03T09:47:38.404Z</time>
      </trkpt>
      <trkpt lat="42.05048" lon="24.98828">
        <ele>226.412948</ele>
        <time>2022-03-03T09:47:41.416Z</time>
      </trkpt>
      <trkpt lat="42.05055" lon="24.98818">
        <ele>226.166152</ele>
        <time>2022-03-03T09:47:44.399Z</time>
      </trkpt>
      <trkpt lat="42.0506" lon="24.98808">
        <ele>225.93674</ele>
        <time>2022-03-03T09:47:47.409Z</time>
      </trkpt>
      <trkpt lat="42.05066" lon="24.98798">
        <ele>225.708877</ele>
        <time>2022-03-03T09:47:50.420Z</time>
      </trkpt>
      <trkpt lat="42.05072" lon="24.98786">
        <ele>225.424283</ele>
        <time>2022-03-03T09:47:54.432Z</time>
      </trkpt>
      <trkpt lat="42.05077" lon="24.98776">
        <ele>225.199113</ele>
        <time>2022-03-03T09:47:57.397Z</time>
      </trkpt>
      <trkpt lat="42.05084" lon="24.98763">
        <ele>224.906903</ele>
        <time>2022-03-03T09:48:01.396Z</time>
      </trkpt>
      <trkpt lat="42.05091" lon="24.98751">
        <ele>224.626918</ele>
        <time>2022-03-03T09:48:05.409Z</time>
      </trkpt>
      <trkpt lat="42.05098" lon="24.9874">
        <ele>224.36013</ele>
        <time>2022-03-03T09:48:09.416Z</time>
      </trkpt>
      <trkpt lat="42.05104" lon="24.9873">
        <ele>224.11545</ele>
        <time>2022-03-03T09:48:12.429Z</time>
      </trkpt>
      <trkpt lat="42.0511" lon="24.9872">
        <ele>223.875004</ele>
        <time>2022-03-03T09:48:15.414Z</time>
      </trkpt>
      <trkpt lat="42.05116" lon="24.98709">
        <ele>223.627784</ele>
        <time>2022-03-03T09:48:18.411Z</time>
      </trkpt>
      <trkpt lat="42.05123" lon="24.98698">
        <ele>223.358176</ele>
        <time>2022-03-03T09:48:21.389Z</time>
      </trkpt>
      <trkpt lat="42.05128" lon="24.98687">
        <ele>223.119413</ele>
        <time>2022-03-03T09:48:24.414Z</time>
      </trkpt>
      <trkpt lat="42.05133" lon="24.98677">
        <ele>223.320147</ele>
        <time>2022-03-03T09:48:27.404Z</time>
      </trkpt>
      <trkpt lat="42.0514" lon="24.98667">
        <ele>223.582193</ele>
        <time>2022-03-03T09:48:30.422Z</time>
      </trkpt>
      <trkpt lat="42.05146" lon="24.98656">
        <ele>223.851461</ele>
        <time>2022-03-03T09:48:33.411Z</time>
      </trkpt>
      <trkpt lat="42.05152" lon="24.98645">
        <ele>224.105223</ele>
        <time>2022-03-03T09:48:36.411Z</time>
      </trkpt>
      <trkpt lat="42.05159" lon="24.98634">
        <ele>224.384256</ele>
        <time>2022-03-03T09:48:39.419Z</time>
      </trkpt>
      <trkpt lat="42.05166" lon="24.98624">
        <ele>224.655156</ele>
        <time>2022-03-03T09:48:42.429Z</time>
      </trkpt>
      <trkpt lat="42.05173" lon="24.98613">
        <ele>224.926425</ele>
        <time>2022-03-03T09:48:45.467Z</time>
      </trkpt>
      <trkpt lat="42.05179" lon="24.98602">
        <ele>225.180095</ele>
        <time>2022-03-03T09:48:48.426Z</time>
      </trkpt>
      <trkpt lat="42.05185" lon="24.98591">
        <ele>225.446268</ele>
        <time>2022-03-03T09:48:51.413Z</time>
      </trkpt>
      <trkpt lat="42.05191" lon="24.98579">
        <ele>225.7262</ele>
        <time>2022-03-03T09:48:54.413Z</time>
      </trkpt>
      <trkpt lat="42.05198" lon="24.98568">
        <ele>226.015748</ele>
        <time>2022-03-03T09:48:57.405Z</time>
      </trkpt>
      <trkpt lat="42.05206" lon="24.98556">
        <ele>226.310836</ele>
        <time>2022-03-03T09:49:00.406Z</time>
      </trkpt>
      <trkpt lat="42.05213" lon="24.98545">
        <ele>226.59706</ele>
        <time>2022-03-03T09:49:03.410Z</time>
      </trkpt>
      <trkpt lat="42.0522" lon="24.98534">
        <ele>226.869341</ele>
        <time>2022-03-03T09:49:06.434Z</time>
      </trkpt>
      <trkpt lat="42.05226" lon="24.98523">
        <ele>227.135336</ele>
        <time>2022-03-03T09:49:09.414Z</time>
      </trkpt>
      <trkpt lat="42.05232" lon="24.98514">
        <ele>227.373714</ele>
        <time>2022-03-03T09:49:12.398Z</time>
      </trkpt>
      <trkpt lat="42.05238" lon="24.98502">
        <ele>227.647426</ele>
        <time>2022-03-03T09:49:15.426Z</time>
      </trkpt>
      <trkpt lat="42.05245" lon="24.98491">
        <ele>227.53056</ele>
        <time>2022-03-03T09:49:18.434Z</time>
      </trkpt>
      <trkpt lat="42.05252" lon="24.98479">
        <ele>227.121955</ele>
        <time>2022-03-03T09:49:21.408Z</time>
      </trkpt>
      <trkpt lat="42.05259" lon="24.98468">
        <ele>226.749666</ele>
        <time>2022-03-03T09:49:24.442Z</time>
      </trkpt>
      <trkpt lat="42.05264" lon="24.98458">
        <ele>226.415934</ele>
        <time>2022-03-03T09:49:27.448Z</time>
      </trkpt>
      <trkpt lat="42.0527" lon="24.98447">
        <ele>226.058868</ele>
        <time>2022-03-03T09:49:30.403Z</time>
      </trkpt>
      <trkpt lat="42.05276" lon="24.98436">
        <ele>225.688926</ele>
        <time>2022-03-03T09:49:33.411Z</time>
      </trkpt>
      <trkpt lat="42.05283" lon="24.98424">
        <ele>225.303971</ele>
        <time>2022-03-03T09:49:36.406Z</time>
      </trkpt>
      <trkpt lat="42.05291" lon="24.98412">
        <ele>224.873506</ele>
        <time>2022-03-03T09:49:39.403Z</time>
      </trkpt>
      <trkpt lat="42.05298" lon="24.98401">
        <ele>224.474958</ele>
        <time>2022-03-03T09:49:42.412Z</time>
      </trkpt>
      <trkpt lat="42.05305" lon="24.98388">
        <ele>224.068723</ele>
        <time>2022-03-03T09:49:45.402Z</time>
      </trkpt>
      <trkpt lat="42.05312" lon="24.98376">
        <ele>223.635949</ele>
        <time>2022-03-03T09:49:48.405Z</time>
      </trkpt>
      <trkpt lat="42.0532" lon="24.98365">
        <ele>223.245804</ele>
        <time>2022-03-03T09:49:51.468Z</time>
      </trkpt>
      <trkpt lat="42.05326" lon="24.98354">
        <ele>222.868985</ele>
        <time>2022-03-03T09:49:54.407Z</time>
      </trkpt>
      <trkpt lat="42.05333" lon="24.98343">
        <ele>222.494811</ele>
        <time>2022-03-03T09:49:57.405Z</time>
      </trkpt>
      <trkpt lat="42.0534" lon="24.9833">
        <ele>222.05796</ele>
        <time>2022-03-03T09:50:01.405Z</time>
      </trkpt>
      <trkpt lat="42.05347" lon="24.98319">
        <ele>221.683595</ele>
        <time>2022-03-03T09:50:04.430Z</time>
      </trkpt>
      <trkpt lat="42.05353" lon="24.98308">
        <ele>221.310889</ele>
        <time>2022-03-03T09:50:07.406Z</time>
      </trkpt>
      <trkpt lat="42.0536" lon="24.98297">
        <ele>221.129972</ele>
        <time>2022-03-03T09:50:10.420Z</time>
      </trkpt>
      <trkpt lat="42.05366" lon="24.98287">
        <ele>220.94681</ele>
        <time>2022-03-03T09:50:13.416Z</time>
      </trkpt>
      <trkpt lat="42.05373" lon="24.98275">
        <ele>220.761762</ele>
        <time>2022-03-03T09:50:16.413Z</time>
      </trkpt>
      <trkpt lat="42.0538" lon="24.98264">
        <ele>220.565083</ele>
        <time>2022-03-03T09:50:19.435Z</time>
      </trkpt>
      <trkpt lat="42.05386" lon="24.98253">
        <ele>220.382108</ele>
        <time>2022-03-03T09:50:22.431Z</time>
      </trkpt>
      <trkpt lat="42.05392" lon="24.98242">
        <ele>220.211895</ele>
        <time>2022-03-03T09:50:25.407Z</time>
      </trkpt>
      <trkpt lat="42.05398" lon="24.98232">
        <ele>220.035343</ele>
        <time>2022-03-03T09:50:28.399Z</time>
      </trkpt>
      <trkpt lat="42.05404" lon="24.98222">
        <ele>219.860345</ele>
        <time>2022-03-03T09:50:31.424Z</time>
      </trkpt>
      <trkpt lat="42.0541" lon="24.98212">
        <ele>219.689814</ele>
        <time>2022-03-03T09:50:34.406Z</time>
      </trkpt>
      <trkpt lat="42.05416" lon="24.98201">
        <ele>219.52143</ele>
        <time>2022-03-03T09:50:37.405Z</time>
      </trkpt>
      <trkpt lat="42.05421" lon="24.98191">
        <ele>219.355433</ele>
        <time>2022-03-03T09:50:40.408Z</time>
      </trkpt>
      <trkpt lat="42.05427" lon="24.9818">
        <ele>219.178881</ele>
        <time>2022-03-03T09:50:43.414Z</time>
      </trkpt>
      <trkpt lat="42.05435" lon="24.98168">
        <ele>218.974616</ele>
        <time>2022-03-03T09:50:46.403Z</time>
      </trkpt>
      <trkpt lat="42.05441" lon="24.98157">
        <ele>218.788399</ele>
        <time>2022-03-03T09:50:49.446Z</time>
      </trkpt>
      <trkpt lat="42.05448" lon="24.98147">
        <ele>218.606366</ele>
        <time>2022-03-03T09:50:52.407Z</time>
      </trkpt>
      <trkpt lat="42.05453" lon="24.98137">
        <ele>218.438273</ele>
        <time>2022-03-03T09:50:55.400Z</time>
      </trkpt>
      <trkpt lat="42.05461" lon="24.98125">
        <ele>218.229266</ele>
        <time>2022-03-03T09:50:59.401Z</time>
      </trkpt>
      <trkpt lat="42.05468" lon="24.98113">
        <ele>218.062048</ele>
        <time>2022-03-03T09:51:02.429Z</time>
      </trkpt>
      <trkpt lat="42.05474" lon="24.98102">
        <ele>217.926236</ele>
        <time>2022-03-03T09:51:05.409Z</time>
      </trkpt>
      <trkpt lat="42.0548" lon="24.98092">
        <ele>217.799722</ele>
        <time>2022-03-03T09:51:08.421Z</time>
      </trkpt>
      <trkpt lat="42.05486" lon="24.98082">
        <ele>217.672596</ele>
        <time>2022-03-03T09:51:11.403Z</time>
      </trkpt>
      <trkpt lat="42.05492" lon="24.98072">
        <ele>217.542963</ele>
        <time>2022-03-03T09:51:14.403Z</time>
      </trkpt>
      <trkpt lat="42.05498" lon="24.98062">
        <ele>217.419002</ele>
        <time>2022-03-03T09:51:17.479Z</time>
      </trkpt>
      <trkpt lat="42.05503" lon="24.98052">
        <ele>217.293395</ele>
        <time>2022-03-03T09:51:20.438Z</time>
      </trkpt>
      <trkpt lat="42.05509" lon="24.98042">
        <ele>217.168636</ele>
        <time>2022-03-03T09:51:23.418Z</time>
      </trkpt>
      <trkpt lat="42.05515" lon="24.98031">
        <ele>217.039071</ele>
        <time>2022-03-03T09:51:26.425Z</time>
      </trkpt>
      <trkpt lat="42.05521" lon="24.98021">
        <ele>216.911141</ele>
        <time>2022-03-03T09:51:29.457Z</time>
      </trkpt>
      <trkpt lat="42.05527" lon="24.9801">
        <ele>216.782435</ele>
        <time>2022-03-03T09:51:32.421Z</time>
      </trkpt>
      <trkpt lat="42.05534" lon="24.98">
        <ele>216.649085</ele>
        <time>2022-03-03T09:51:35.399Z</time>
      </trkpt>
      <trkpt lat="42.0554" lon="24.9799">
        <ele>216.521813</ele>
        <time>2022-03-03T09:51:38.397Z</time>
      </trkpt>
      <trkpt lat="42.05546" lon="24.9798">
        <ele>216.389929</ele>
        <time>2022-03-03T09:51:41.413Z</time>
      </trkpt>
      <trkpt lat="42.05552" lon="24.97969">
        <ele>216.253213</ele>
        <time>2022-03-03T09:51:44.397Z</time>
      </trkpt>
      <trkpt lat="42.05559" lon="24.97959">
        <ele>216.121134</ele>
        <time>2022-03-03T09:51:47.414Z</time>
      </trkpt>
      <trkpt lat="42.05566" lon="24.97947">
        <ele>215.970176</ele>
        <time>2022-03-03T09:51:51.402Z</time>
      </trkpt>
      <trkpt lat="42.05573" lon="24.97934">
        <ele>215.815423</ele>
        <time>2022-03-03T09:51:55.411Z</time>
      </trkpt>
      <trkpt lat="42.05579" lon="24.97925">
        <ele>215.768838</ele>
        <time>2022-03-03T09:51:58.435Z</time>
      </trkpt>
      <trkpt lat="42.05585" lon="24.97913">
        <ele>215.840303</ele>
        <time>2022-03-03T09:52:02.396Z</time>
      </trkpt>
      <trkpt lat="42.05592" lon="24.97902">
        <ele>215.910727</ele>
        <time>2022-03-03T09:52:06.410Z</time>
      </trkpt>
      <trkpt lat="42.056" lon="24.9789">
        <ele>215.988441</ele>
        <time>2022-03-03T09:52:10.418Z</time>
      </trkpt>
      <trkpt lat="42.05605" lon="24.9788">
        <ele>216.048956</ele>
        <time>2022-03-03T09:52:13.407Z</time>
      </trkpt>
      <trkpt lat="42.05611" lon="24.9787">
        <ele>216.10907</ele>
        <time>2022-03-03T09:52:16.433Z</time>
      </trkpt>
      <trkpt lat="42.05616" lon="24.9786">
        <ele>216.169656</ele>
        <time>2022-03-03T09:52:19.412Z</time>
      </trkpt>
      <trkpt lat="42.05622" lon="24.9785">
        <ele>216.23267</ele>
        <time>2022-03-03T09:52:22.408Z</time>
      </trkpt>
      <trkpt lat="42.05628" lon="24.9784">
        <ele>216.293169</ele>
        <time>2022-03-03T09:52:25.430Z</time>
      </trkpt>
      <trkpt lat="42.05634" lon="24.9783">
        <ele>216.354223</ele>
        <time>2022-03-03T09:52:28.414Z</time>
      </trkpt>
      <trkpt lat="42.05641" lon="24.9782">
        <ele>216.422595</ele>
        <time>2022-03-03T09:52:31.412Z</time>
      </trkpt>
      <trkpt lat="42.05647" lon="24.97808">
        <ele>216.492511</ele>
        <time>2022-03-03T09:52:34.398Z</time>
      </trkpt>
      <trkpt lat="42.05654" lon="24.97798">
        <ele>216.555841</ele>
        <time>2022-03-03T09:52:37.436Z</time>
      </trkpt>
      <trkpt lat="42.05659" lon="24.97788">
        <ele>216.61634</ele>
        <time>2022-03-03T09:52:40.431Z</time>
      </trkpt>
      <trkpt lat="42.05666" lon="24.97778">
        <ele>216.683587</ele>
        <time>2022-03-03T09:52:43.402Z</time>
      </trkpt>
      <trkpt lat="42.05672" lon="24.97767">
        <ele>216.750093</ele>
        <time>2022-03-03T09:52:46.409Z</time>
      </trkpt>
      <trkpt lat="42.05678" lon="24.97756">
        <ele>216.818042</ele>
        <time>2022-03-03T09:52:49.403Z</time>
      </trkpt>
      <trkpt lat="42.05684" lon="24.97746">
        <ele>216.879325</ele>
        <time>2022-03-03T09:52:52.414Z</time>
      </trkpt>
      <trkpt lat="42.05691" lon="24.97735">
        <ele>216.984324</ele>
        <time>2022-03-03T09:52:55.394Z</time>
      </trkpt>
      <trkpt lat="42.05697" lon="24.97723">
        <ele>217.145551</ele>
        <time>2022-03-03T09:52:58.428Z</time>
      </trkpt>
      <trkpt lat="42.05704" lon="24.97711">
        <ele>217.32038</ele>
        <time>2022-03-03T09:53:01.408Z</time>
      </trkpt>
      <trkpt lat="42.05711" lon="24.97699">
        <ele>217.491718</ele>
        <time>2022-03-03T09:53:04.394Z</time>
      </trkpt>
      <trkpt lat="42.05718" lon="24.97687">
        <ele>217.657517</ele>
        <time>2022-03-03T09:53:07.413Z</time>
      </trkpt>
      <trkpt lat="42.05725" lon="24.97676">
        <ele>217.818803</ele>
        <time>2022-03-03T09:53:10.414Z</time>
      </trkpt>
      <trkpt lat="42.05731" lon="24.97664">
        <ele>217.986339</ele>
        <time>2022-03-03T09:53:13.392Z</time>
      </trkpt>
      <trkpt lat="42.05738" lon="24.97654">
        <ele>218.137982</ele>
        <time>2022-03-03T09:53:16.442Z</time>
      </trkpt>
      <trkpt lat="42.05744" lon="24.97643">
        <ele>218.286597</ele>
        <time>2022-03-03T09:53:19.416Z</time>
      </trkpt>
      <trkpt lat="42.05751" lon="24.97631">
        <ele>218.462304</ele>
        <time>2022-03-03T09:53:23.433Z</time>
      </trkpt>
      <trkpt lat="42.05757" lon="24.97621">
        <ele>218.60647</ele>
        <time>2022-03-03T09:53:26.405Z</time>
      </trkpt>
      <trkpt lat="42.05763" lon="24.97611">
        <ele>218.749203</ele>
        <time>2022-03-03T09:53:29.413Z</time>
      </trkpt>
      <trkpt lat="42.0577" lon="24.97602">
        <ele>218.894951</ele>
        <time>2022-03-03T09:53:32.402Z</time>
      </trkpt>
      <trkpt lat="42.05776" lon="24.97591">
        <ele>219.048145</ele>
        <time>2022-03-03T09:53:35.410Z</time>
      </trkpt>
      <trkpt lat="42.05782" lon="24.97579">
        <ele>219.205029</ele>
        <time>2022-03-03T09:53:38.439Z</time>
      </trkpt>
      <trkpt lat="42.05788" lon="24.97569">
        <ele>219.362811</ele>
        <time>2022-03-03T09:53:41.414Z</time>
      </trkpt>
      <trkpt lat="42.05794" lon="24.97558">
        <ele>219.509674</ele>
        <time>2022-03-03T09:53:44.433Z</time>
      </trkpt>
      <trkpt lat="42.05802" lon="24.97548">
        <ele>219.691929</ele>
        <time>2022-03-03T09:53:47.410Z</time>
      </trkpt>
      <trkpt lat="42.05808" lon="24.97537">
        <ele>219.970835</ele>
        <time>2022-03-03T09:53:50.410Z</time>
      </trkpt>
      <trkpt lat="42.05815" lon="24.97524">
        <ele>220.271421</ele>
        <time>2022-03-03T09:53:53.408Z</time>
      </trkpt>
      <trkpt lat="42.05821" lon="24.97513">
        <ele>220.54081</ele>
        <time>2022-03-03T09:53:56.411Z</time>
      </trkpt>
      <trkpt lat="42.05828" lon="24.97502">
        <ele>220.81521</ele>
        <time>2022-03-03T09:53:59.406Z</time>
      </trkpt>
      <trkpt lat="42.05835" lon="24.9749">
        <ele>221.114272</ele>
        <time>2022-03-03T09:54:02.406Z</time>
      </trkpt>
      <trkpt lat="42.05842" lon="24.97478">
        <ele>221.412109</ele>
        <time>2022-03-03T09:54:05.426Z</time>
      </trkpt>
      <trkpt lat="42.05849" lon="24.97466">
        <ele>221.703369</ele>
        <time>2022-03-03T09:54:08.412Z</time>
      </trkpt>
      <trkpt lat="42.05856" lon="24.97454">
        <ele>221.988359</ele>
        <time>2022-03-03T09:54:11.420Z</time>
      </trkpt>
      <trkpt lat="42.05861" lon="24.97443">
        <ele>222.26156</ele>
        <time>2022-03-03T09:54:14.412Z</time>
      </trkpt>
      <trkpt lat="42.05867" lon="24.97431">
        <ele>222.535973</ele>
        <time>2022-03-03T09:54:17.454Z</time>
      </trkpt>
      <trkpt lat="42.05872" lon="24.97418">
        <ele>222.811137</ele>
        <time>2022-03-03T09:54:20.402Z</time>
      </trkpt>
      <trkpt lat="42.05875" lon="24.97405">
        <ele>223.072932</ele>
        <time>2022-03-03T09:54:23.419Z</time>
      </trkpt>
      <trkpt lat="42.05878" lon="24.97393">
        <ele>223.33321</ele>
        <time>2022-03-03T09:54:26.418Z</time>
      </trkpt>
      <trkpt lat="42.05883" lon="24.9738">
        <ele>223.60266</ele>
        <time>2022-03-03T09:54:29.423Z</time>
      </trkpt>
      <trkpt lat="42.05887" lon="24.97368">
        <ele>223.858808</ele>
        <time>2022-03-03T09:54:32.408Z</time>
      </trkpt>
      <trkpt lat="42.05891" lon="24.97356">
        <ele>224.115181</ele>
        <time>2022-03-03T09:54:35.406Z</time>
      </trkpt>
      <trkpt lat="42.05894" lon="24.97343">
        <ele>224.302351</ele>
        <time>2022-03-03T09:54:38.396Z</time>
      </trkpt>
      <trkpt lat="42.05898" lon="24.9733">
        <ele>224.114371</ele>
        <time>2022-03-03T09:54:41.417Z</time>
      </trkpt>
      <trkpt lat="42.05902" lon="24.97318">
        <ele>223.943425</ele>
        <time>2022-03-03T09:54:44.398Z</time>
      </trkpt>
      <trkpt lat="42.05905" lon="24.97305">
        <ele>223.769403</ele>
        <time>2022-03-03T09:54:47.404Z</time>
      </trkpt>
      <trkpt lat="42.0591" lon="24.97293">
        <ele>223.585535</ele>
        <time>2022-03-03T09:54:50.450Z</time>
      </trkpt>
      <trkpt lat="42.05914" lon="24.9728">
        <ele>223.401196</ele>
        <time>2022-03-03T09:54:53.416Z</time>
      </trkpt>
      <trkpt lat="42.05918" lon="24.97267">
        <ele>223.208341</ele>
        <time>2022-03-03T09:54:56.430Z</time>
      </trkpt>
      <trkpt lat="42.05922" lon="24.97252">
        <ele>223.00635</ele>
        <time>2022-03-03T09:54:59.412Z</time>
      </trkpt>
      <trkpt lat="42.05926" lon="24.97238">
        <ele>222.804309</ele>
        <time>2022-03-03T09:55:02.463Z</time>
      </trkpt>
      <trkpt lat="42.05929" lon="24.97224">
        <ele>222.605515</ele>
        <time>2022-03-03T09:55:05.393Z</time>
      </trkpt>
      <trkpt lat="42.05933" lon="24.9721">
        <ele>222.411559</ele>
        <time>2022-03-03T09:55:08.415Z</time>
      </trkpt>
      <trkpt lat="42.05937" lon="24.97196">
        <ele>222.2083</ele>
        <time>2022-03-03T09:55:11.408Z</time>
      </trkpt>
      <trkpt lat="42.05942" lon="24.97182">
        <ele>222.0094</ele>
        <time>2022-03-03T09:55:14.400Z</time>
      </trkpt>
      <trkpt lat="42.05947" lon="24.9717">
        <ele>221.81679</ele>
        <time>2022-03-03T09:55:17.415Z</time>
      </trkpt>
      <trkpt lat="42.05953" lon="24.97158">
        <ele>221.632797</ele>
        <time>2022-03-03T09:55:20.416Z</time>
      </trkpt>
      <trkpt lat="42.05958" lon="24.97145">
        <ele>221.440188</ele>
        <time>2022-03-03T09:55:23.394Z</time>
      </trkpt>
      <trkpt lat="42.05962" lon="24.97133">
        <ele>221.26295</ele>
        <time>2022-03-03T09:55:26.423Z</time>
      </trkpt>
      <trkpt lat="42.05969" lon="24.97122">
        <ele>220.97237</ele>
        <time>2022-03-03T09:55:29.415Z</time>
      </trkpt>
      <trkpt lat="42.05976" lon="24.97109">
        <ele>220.311821</ele>
        <time>2022-03-03T09:55:32.409Z</time>
      </trkpt>
      <trkpt lat="42.05983" lon="24.97096">
        <ele>219.680093</ele>
        <time>2022-03-03T09:55:35.472Z</time>
      </trkpt>
      <trkpt lat="42.05989" lon="24.97085">
        <ele>219.111254</ele>
        <time>2022-03-03T09:55:38.416Z</time>
      </trkpt>
      <trkpt lat="42.05995" lon="24.97074">
        <ele>218.565283</ele>
        <time>2022-03-03T09:55:41.414Z</time>
      </trkpt>
      <trkpt lat="42.06001" lon="24.97064">
        <ele>218.016058</ele>
        <time>2022-03-03T09:55:44.396Z</time>
      </trkpt>
      <trkpt lat="42.06006" lon="24.97053">
        <ele>217.486437</ele>
        <time>2022-03-03T09:55:47.414Z</time>
      </trkpt>
      <trkpt lat="42.06012" lon="24.97042">
        <ele>216.933254</ele>
        <time>2022-03-03T09:55:50.412Z</time>
      </trkpt>
      <trkpt lat="42.06018" lon="24.97031">
        <ele>216.377389</ele>
        <time>2022-03-03T09:55:53.415Z</time>
      </trkpt>
      <trkpt lat="42.06025" lon="24.97021">
        <ele>215.825909</ele>
        <time>2022-03-03T09:55:56.409Z</time>
      </trkpt>
      <trkpt lat="42.06031" lon="24.97011">
        <ele>215.305562</ele>
        <time>2022-03-03T09:55:59.436Z</time>
      </trkpt>
      <trkpt lat="42.06037" lon="24.97001">
        <ele>214.798802</ele>
        <time>2022-03-03T09:56:02.397Z</time>
      </trkpt>
      <trkpt lat="42.06042" lon="24.9699">
        <ele>214.256121</ele>
        <time>2022-03-03T09:56:05.405Z</time>
      </trkpt>
      <trkpt lat="42.06049" lon="24.9698">
        <ele>213.702976</ele>
        <time>2022-03-03T09:56:08.450Z</time>
      </trkpt>
      <trkpt lat="42.06055" lon="24.9697">
        <ele>213.179145</ele>
        <time>2022-03-03T09:56:11.409Z</time>
      </trkpt>
      <trkpt lat="42.06061" lon="24.9696">
        <ele>212.665665</ele>
        <time>2022-03-03T09:56:14.414Z</time>
      </trkpt>
      <trkpt lat="42.06067" lon="24.9695">
        <ele>212.126174</ele>
        <time>2022-03-03T09:56:17.405Z</time>
      </trkpt>
      <trkpt lat="42.06074" lon="24.96938">
        <ele>211.50428</ele>
        <time>2022-03-03T09:56:20.415Z</time>
      </trkpt>
      <trkpt lat="42.06082" lon="24.96926">
        <ele>211.306403</ele>
        <time>2022-03-03T09:56:23.399Z</time>
      </trkpt>
      <trkpt lat="42.0609" lon="24.96915">
        <ele>211.377861</ele>
        <time>2022-03-03T09:56:26.406Z</time>
      </trkpt>
      <trkpt lat="42.06097" lon="24.96903">
        <ele>211.448268</ele>
        <time>2022-03-03T09:56:29.400Z</time>
      </trkpt>
      <trkpt lat="42.06103" lon="24.96892">
        <ele>211.515536</ele>
        <time>2022-03-03T09:56:32.397Z</time>
      </trkpt>
      <trkpt lat="42.0611" lon="24.9688">
        <ele>211.585045</ele>
        <time>2022-03-03T09:56:35.406Z</time>
      </trkpt>
      <trkpt lat="42.06117" lon="24.96869">
        <ele>211.65018</ele>
        <time>2022-03-03T09:56:38.436Z</time>
      </trkpt>
      <trkpt lat="42.06123" lon="24.96859">
        <ele>211.709289</ele>
        <time>2022-03-03T09:56:41.399Z</time>
      </trkpt>
      <trkpt lat="42.06129" lon="24.9685">
        <ele>211.769202</ele>
        <time>2022-03-03T09:56:44.398Z</time>
      </trkpt>
      <trkpt lat="42.06135" lon="24.96839">
        <ele>211.831223</ele>
        <time>2022-03-03T09:56:47.415Z</time>
      </trkpt>
      <trkpt lat="42.06141" lon="24.96829">
        <ele>211.892026</ele>
        <time>2022-03-03T09:56:50.418Z</time>
      </trkpt>
      <trkpt lat="42.06147" lon="24.96817">
        <ele>211.959701</ele>
        <time>2022-03-03T09:56:53.433Z</time>
      </trkpt>
      <trkpt lat="42.06154" lon="24.96805">
        <ele>212.031448</ele>
        <time>2022-03-03T09:56:56.406Z</time>
      </trkpt>
      <trkpt lat="42.06162" lon="24.96794">
        <ele>212.101215</ele>
        <time>2022-03-03T09:56:59.396Z</time>
      </trkpt>
      <trkpt lat="42.06168" lon="24.96783">
        <ele>212.162136</ele>
        <time>2022-03-03T09:57:02.405Z</time>
      </trkpt>
      <trkpt lat="42.06174" lon="24.96773">
        <ele>212.223424</ele>
        <time>2022-03-03T09:57:05.417Z</time>
      </trkpt>
      <trkpt lat="42.0618" lon="24.96763">
        <ele>212.282222</ele>
        <time>2022-03-03T09:57:08.415Z</time>
      </trkpt>
      <trkpt lat="42.06186" lon="24.96752">
        <ele>212.347989</ele>
        <time>2022-03-03T09:57:11.416Z</time>
      </trkpt>
      <trkpt lat="42.06192" lon="24.96743">
        <ele>212.372441</ele>
        <time>2022-03-03T09:57:14.430Z</time>
      </trkpt>
      <trkpt lat="42.062" lon="24.96731">
        <ele>212.304295</ele>
        <time>2022-03-03T09:57:18.412Z</time>
      </trkpt>
      <trkpt lat="42.06206" lon="24.96721">
        <ele>212.248325</ele>
        <time>2022-03-03T09:57:21.420Z</time>
      </trkpt>
      <trkpt lat="42.06212" lon="24.9671">
        <ele>212.188555</ele>
        <time>2022-03-03T09:57:24.416Z</time>
      </trkpt>
      <trkpt lat="42.06219" lon="24.96698">
        <ele>212.126641</ele>
        <time>2022-03-03T09:57:27.411Z</time>
      </trkpt>
      <trkpt lat="42.06225" lon="24.96688">
        <ele>212.06755</ele>
        <time>2022-03-03T09:57:30.398Z</time>
      </trkpt>
      <trkpt lat="42.06232" lon="24.96676">
        <ele>212.001838</ele>
        <time>2022-03-03T09:57:33.412Z</time>
      </trkpt>
      <trkpt lat="42.0624" lon="24.96665">
        <ele>211.939239</ele>
        <time>2022-03-03T09:57:36.407Z</time>
      </trkpt>
      <trkpt lat="42.06246" lon="24.96655">
        <ele>211.882763</ele>
        <time>2022-03-03T09:57:39.407Z</time>
      </trkpt>
      <trkpt lat="42.06253" lon="24.96645">
        <ele>211.824346</ele>
        <time>2022-03-03T09:57:42.444Z</time>
      </trkpt>
      <trkpt lat="42.06259" lon="24.96634">
        <ele>211.763861</ele>
        <time>2022-03-03T09:57:45.413Z</time>
      </trkpt>
      <trkpt lat="42.06266" lon="24.96622">
        <ele>211.702021</ele>
        <time>2022-03-03T09:57:48.408Z</time>
      </trkpt>
      <trkpt lat="42.06272" lon="24.96612">
        <ele>211.644273</ele>
        <time>2022-03-03T09:57:51.405Z</time>
      </trkpt>
      <trkpt lat="42.06278" lon="24.96602">
        <ele>211.589339</ele>
        <time>2022-03-03T09:57:54.394Z</time>
      </trkpt>
      <trkpt lat="42.06283" lon="24.96592">
        <ele>211.535106</ele>
        <time>2022-03-03T09:57:57.394Z</time>
      </trkpt>
      <trkpt lat="42.0629" lon="24.96581">
        <ele>211.473946</ele>
        <time>2022-03-03T09:58:00.410Z</time>
      </trkpt>
      <trkpt lat="42.06296" lon="24.9657">
        <ele>211.41541</ele>
        <time>2022-03-03T09:58:03.417Z</time>
      </trkpt>
      <trkpt lat="42.06303" lon="24.96559">
        <ele>211.354269</ele>
        <time>2022-03-03T09:58:06.391Z</time>
      </trkpt>
      <trkpt lat="42.06309" lon="24.96549">
        <ele>211.430531</ele>
        <time>2022-03-03T09:58:09.416Z</time>
      </trkpt>
      <trkpt lat="42.06314" lon="24.96538">
        <ele>211.522797</ele>
        <time>2022-03-03T09:58:12.420Z</time>
      </trkpt>
      <trkpt lat="42.0632" lon="24.96529">
        <ele>211.615166</ele>
        <time>2022-03-03T09:58:15.431Z</time>
      </trkpt>
      <trkpt lat="42.06326" lon="24.96519">
        <ele>211.709304</ele>
        <time>2022-03-03T09:58:18.414Z</time>
      </trkpt>
      <trkpt lat="42.06333" lon="24.96509">
        <ele>211.812836</ele>
        <time>2022-03-03T09:58:21.418Z</time>
      </trkpt>
      <trkpt lat="42.0634" lon="24.96498">
        <ele>211.919096</ele>
        <time>2022-03-03T09:58:24.411Z</time>
      </trkpt>
      <trkpt lat="42.06347" lon="24.96488">
        <ele>212.016689</ele>
        <time>2022-03-03T09:58:27.414Z</time>
      </trkpt>
      <trkpt lat="42.06353" lon="24.96477">
        <ele>212.117247</ele>
        <time>2022-03-03T09:58:30.412Z</time>
      </trkpt>
      <trkpt lat="42.06358" lon="24.96467">
        <ele>212.208929</ele>
        <time>2022-03-03T09:58:33.418Z</time>
      </trkpt>
      <trkpt lat="42.06365" lon="24.96457">
        <ele>212.307388</ele>
        <time>2022-03-03T09:58:36.422Z</time>
      </trkpt>
      <trkpt lat="42.06372" lon="24.96445">
        <ele>212.417561</ele>
        <time>2022-03-03T09:58:39.445Z</time>
      </trkpt>
      <trkpt lat="42.06378" lon="24.96434">
        <ele>212.523429</ele>
        <time>2022-03-03T09:58:42.434Z</time>
      </trkpt>
      <trkpt lat="42.06385" lon="24.96423">
        <ele>212.625794</ele>
        <time>2022-03-03T09:58:45.430Z</time>
      </trkpt>
      <trkpt lat="42.06391" lon="24.96412">
        <ele>212.726933</ele>
        <time>2022-03-03T09:58:48.412Z</time>
      </trkpt>
      <trkpt lat="42.06396" lon="24.96398">
        <ele>212.836301</ele>
        <time>2022-03-03T09:58:51.410Z</time>
      </trkpt>
      <trkpt lat="42.064" lon="24.96385">
        <ele>212.942085</ele>
        <time>2022-03-03T09:58:54.474Z</time>
      </trkpt>
      <trkpt lat="42.06402" lon="24.96372">
        <ele>213.042455</ele>
        <time>2022-03-03T09:58:57.409Z</time>
      </trkpt>
      <trkpt lat="42.06405" lon="24.96359">
        <ele>213.200021</ele>
        <time>2022-03-03T09:59:00.424Z</time>
      </trkpt>
      <trkpt lat="42.06408" lon="24.96343">
        <ele>213.844111</ele>
        <time>2022-03-03T09:59:03.401Z</time>
      </trkpt>
      <trkpt lat="42.06411" lon="24.96328">
        <ele>214.481055</ele>
        <time>2022-03-03T09:59:06.415Z</time>
      </trkpt>
      <trkpt lat="42.06414" lon="24.96313">
        <ele>215.104155</ele>
        <time>2022-03-03T09:59:09.419Z</time>
      </trkpt>
      <trkpt lat="42.06417" lon="24.96299">
        <ele>215.726744</ele>
        <time>2022-03-03T09:59:12.406Z</time>
      </trkpt>
      <trkpt lat="42.0642" lon="24.96284">
        <ele>216.348701</ele>
        <time>2022-03-03T09:59:15.395Z</time>
      </trkpt>
      <trkpt lat="42.06423" lon="24.96269">
        <ele>216.979925</ele>
        <time>2022-03-03T09:59:18.424Z</time>
      </trkpt>
      <trkpt lat="42.06426" lon="24.96255">
        <ele>217.579473</ele>
        <time>2022-03-03T09:59:21.414Z</time>
      </trkpt>
      <trkpt lat="42.06429" lon="24.9624">
        <ele>218.193611</ele>
        <time>2022-03-03T09:59:24.389Z</time>
      </trkpt>
      <trkpt lat="42.06433" lon="24.96226">
        <ele>218.807508</ele>
        <time>2022-03-03T09:59:27.456Z</time>
      </trkpt>
      <trkpt lat="42.06438" lon="24.96212">
        <ele>219.435049</ele>
        <time>2022-03-03T09:59:30.405Z</time>
      </trkpt>
      <trkpt lat="42.06441" lon="24.96199">
        <ele>219.974916</ele>
        <time>2022-03-03T09:59:33.411Z</time>
      </trkpt>
      <trkpt lat="42.06443" lon="24.96186">
        <ele>220.537679</ele>
        <time>2022-03-03T09:59:36.431Z</time>
      </trkpt>
      <trkpt lat="42.06447" lon="24.96173">
        <ele>221.062173</ele>
        <time>2022-03-03T09:59:39.418Z</time>
      </trkpt>
      <trkpt lat="42.0645" lon="24.96162">
        <ele>221.560526</ele>
        <time>2022-03-03T09:59:42.409Z</time>
      </trkpt>
      <trkpt lat="42.06451" lon="24.9615">
        <ele>222.054788</ele>
        <time>2022-03-03T09:59:45.413Z</time>
      </trkpt>
      <trkpt lat="42.06454" lon="24.96135">
        <ele>222.689681</ele>
        <time>2022-03-03T09:59:49.432Z</time>
      </trkpt>
      <trkpt lat="42.06457" lon="24.96119">
        <ele>222.749001</ele>
        <time>2022-03-03T09:59:53.396Z</time>
      </trkpt>
      <trkpt lat="42.06464" lon="24.96105">
        <ele>222.388915</ele>
        <time>2022-03-03T09:59:56.414Z</time>
      </trkpt>
      <trkpt lat="42.06472" lon="24.96092">
        <ele>222.035819</ele>
        <time>2022-03-03T09:59:59.421Z</time>
      </trkpt>
      <trkpt lat="42.06478" lon="24.96082">
        <ele>221.740599</ele>
        <time>2022-03-03T10:00:02.394Z</time>
      </trkpt>
      <trkpt lat="42.06485" lon="24.96072">
        <ele>221.458798</ele>
        <time>2022-03-03T10:00:05.404Z</time>
      </trkpt>
      <trkpt lat="42.06491" lon="24.96062">
        <ele>221.191715</ele>
        <time>2022-03-03T10:00:08.414Z</time>
      </trkpt>
      <trkpt lat="42.06497" lon="24.9605">
        <ele>220.880016</ele>
        <time>2022-03-03T10:00:12.413Z</time>
      </trkpt>
      <trkpt lat="42.06504" lon="24.9604">
        <ele>220.592434</ele>
        <time>2022-03-03T10:00:15.421Z</time>
      </trkpt>
      <trkpt lat="42.0651" lon="24.96031">
        <ele>220.323001</ele>
        <time>2022-03-03T10:00:18.418Z</time>
      </trkpt>
      <trkpt lat="42.06516" lon="24.96021">
        <ele>220.048459</ele>
        <time>2022-03-03T10:00:21.415Z</time>
      </trkpt>
      <trkpt lat="42.06522" lon="24.96011">
        <ele>219.77084</ele>
        <time>2022-03-03T10:00:24.476Z</time>
      </trkpt>
      <trkpt lat="42.06529" lon="24.96">
        <ele>219.469521</ele>
        <time>2022-03-03T10:00:27.427Z</time>
      </trkpt>
      <trkpt lat="42.06536" lon="24.95989">
        <ele>219.156151</ele>
        <time>2022-03-03T10:00:30.426Z</time>
      </trkpt>
      <trkpt lat="42.06543" lon="24.95978">
        <ele>218.852059</ele>
        <time>2022-03-03T10:00:33.427Z</time>
      </trkpt>
      <trkpt lat="42.06549" lon="24.95967">
        <ele>218.555622</ele>
        <time>2022-03-03T10:00:36.419Z</time>
      </trkpt>
      <trkpt lat="42.06552" lon="24.95953">
        <ele>218.259544</ele>
        <time>2022-03-03T10:00:39.425Z</time>
      </trkpt>
      <trkpt lat="42.06552" lon="24.95939">
        <ele>217.963153</ele>
        <time>2022-03-03T10:00:42.434Z</time>
      </trkpt>
      <trkpt lat="42.06548" lon="24.95927">
        <ele>217.738148</ele>
        <time>2022-03-03T10:00:45.437Z</time>
      </trkpt>
      <trkpt lat="42.06545" lon="24.95916">
        <ele>217.614239</ele>
        <time>2022-03-03T10:00:48.417Z</time>
      </trkpt>
      <trkpt lat="42.0655" lon="24.95902">
        <ele>217.4638</ele>
        <time>2022-03-03T10:00:52.399Z</time>
      </trkpt>
      <trkpt lat="42.06558" lon="24.95896">
        <ele>217.336685</ele>
        <time>2022-03-03T10:00:55.442Z</time>
      </trkpt>
      <trkpt lat="42.06568" lon="24.95891">
        <ele>217.188107</ele>
        <time>2022-03-03T10:00:59.413Z</time>
      </trkpt>
      <trkpt lat="42.06578" lon="24.95884">
        <ele>217.034722</ele>
        <time>2022-03-03T10:01:03.409Z</time>
      </trkpt>
      <trkpt lat="42.06588" lon="24.95879">
        <ele>216.890783</ele>
        <time>2022-03-03T10:01:07.405Z</time>
      </trkpt>
      <trkpt lat="42.06598" lon="24.95873">
        <ele>216.746885</ele>
        <time>2022-03-03T10:01:11.411Z</time>
      </trkpt>
      <trkpt lat="42.06607" lon="24.95868">
        <ele>216.610092</ele>
        <time>2022-03-03T10:01:15.407Z</time>
      </trkpt>
      <trkpt lat="42.06617" lon="24.95863">
        <ele>216.462919</ele>
        <time>2022-03-03T10:01:20.398Z</time>
      </trkpt>
      <trkpt lat="42.06627" lon="24.95861">
        <ele>216.321764</ele>
        <time>2022-03-03T10:01:25.421Z</time>
      </trkpt>
      <trkpt lat="42.06637" lon="24.95858">
        <ele>216.188672</ele>
        <time>2022-03-03T10:01:29.417Z</time>
      </trkpt>
      <trkpt lat="42.06647" lon="24.95853">
        <ele>216.040551</ele>
        <time>2022-03-03T10:01:34.417Z</time>
      </trkpt>
      <trkpt lat="42.06657" lon="24.95847">
        <ele>215.889972</ele>
        <time>2022-03-03T10:01:39.426Z</time>
      </trkpt>
      <trkpt lat="42.06666" lon="24.95842">
        <ele>215.75842</ele>
        <time>2022-03-03T10:01:44.410Z</time>
      </trkpt>
      <trkpt lat="42.06675" lon="24.95837">
        <ele>215.628621</ele>
        <time>2022-03-03T10:01:49.426Z</time>
      </trkpt>
      <trkpt lat="42.06684" lon="24.95833">
        <ele>215.50592</ele>
        <time>2022-03-03T10:01:54.430Z</time>
      </trkpt>
      <trkpt lat="42.06692" lon="24.95829">
        <ele>215.376892</ele>
        <time>2022-03-03T10:02:00.431Z</time>
      </trkpt>
      <trkpt lat="42.06702" lon="24.95827">
        <ele>215.982469</ele>
        <time>2022-03-03T10:02:06.427Z</time>
      </trkpt>
      <trkpt lat="42.06711" lon="24.95826">
        <ele>216.837976</ele>
        <time>2022-03-03T10:02:12.424Z</time>
      </trkpt>
      <trkpt lat="42.0672" lon="24.95823">
        <ele>217.713803</ele>
        <time>2022-03-03T10:02:18.423Z</time>
      </trkpt>
      <trkpt lat="42.0673" lon="24.95822">
        <ele>218.693069</ele>
        <time>2022-03-03T10:02:25.428Z</time>
      </trkpt>
      <trkpt lat="42.0674" lon="24.9582">
        <ele>219.647417</ele>
        <time>2022-03-03T10:02:32.422Z</time>
      </trkpt>
      <trkpt lat="42.0675" lon="24.95818">
        <ele>220.556969</ele>
        <time>2022-03-03T10:02:39.438Z</time>
      </trkpt>
      <trkpt lat="42.0676" lon="24.95816">
        <ele>221.529185</ele>
        <time>2022-03-03T10:02:46.419Z</time>
      </trkpt>
      <trkpt lat="42.0677" lon="24.95815">
        <ele>222.507771</ele>
        <time>2022-03-03T10:02:53.434Z</time>
      </trkpt>
      <trkpt lat="42.0678" lon="24.9581">
        <ele>223.478878</ele>
        <time>2022-03-03T10:03:00.455Z</time>
      </trkpt>
      <trkpt lat="42.06788" lon="24.95803">
        <ele>224.441092</ele>
        <time>2022-03-03T10:03:07.442Z</time>
      </trkpt>
      <trkpt lat="42.06795" lon="24.95794">
        <ele>225.329347</ele>
        <time>2022-03-03T10:03:14.408Z</time>
      </trkpt>
      <trkpt lat="42.06799" lon="24.95782">
        <ele>226.248438</ele>
        <time>2022-03-03T10:03:21.430Z</time>
      </trkpt>
      <trkpt lat="42.06804" lon="24.9577">
        <ele>227.193304</ele>
        <time>2022-03-03T10:03:27.415Z</time>
      </trkpt>
      <trkpt lat="42.06808" lon="24.95758">
        <ele>228.135448</ele>
        <time>2022-03-03T10:03:33.418Z</time>
      </trkpt>
      <trkpt lat="42.06813" lon="24.95747">
        <ele>229.036284</ele>
        <time>2022-03-03T10:03:40.444Z</time>
      </trkpt>
      <trkpt lat="42.06817" lon="24.95736">
        <ele>229.917728</ele>
        <time>2022-03-03T10:03:47.438Z</time>
      </trkpt>
      <trkpt lat="42.06822" lon="24.95724">
        <ele>230.854942</ele>
        <time>2022-03-03T10:03:53.411Z</time>
      </trkpt>
      <trkpt lat="42.06827" lon="24.95713">
        <ele>231.788539</ele>
        <time>2022-03-03T10:04:01.408Z</time>
      </trkpt>
      <trkpt lat="42.06832" lon="24.95701">
        <ele>232.447523</ele>
        <time>2022-03-03T10:04:08.421Z</time>
      </trkpt>
      <trkpt lat="42.06836" lon="24.9569">
        <ele>232.653878</ele>
        <time>2022-03-03T10:04:15.434Z</time>
      </trkpt>
      <trkpt lat="42.06831" lon="24.95678">
        <ele>232.88851</ele>
        <time>2022-03-03T10:04:22.419Z</time>
      </trkpt>
      <trkpt lat="42.06823" lon="24.95668">
        <ele>233.124788</ele>
        <time>2022-03-03T10:04:27.424Z</time>
      </trkpt>
      <trkpt lat="42.06816" lon="24.95659">
        <ele>233.335962</ele>
        <time>2022-03-03T10:04:31.424Z</time>
      </trkpt>
      <trkpt lat="42.0681" lon="24.9565">
        <ele>233.546778</ele>
        <time>2022-03-03T10:04:35.449Z</time>
      </trkpt>
      <trkpt lat="42.06803" lon="24.9564">
        <ele>233.772182</ele>
        <time>2022-03-03T10:04:39.464Z</time>
      </trkpt>
      <trkpt lat="42.06795" lon="24.9563">
        <ele>234.025644</ele>
        <time>2022-03-03T10:04:43.417Z</time>
      </trkpt>
      <trkpt lat="42.06787" lon="24.95621">
        <ele>234.250307</ele>
        <time>2022-03-03T10:04:47.408Z</time>
      </trkpt>
      <trkpt lat="42.0678" lon="24.95613">
        <ele>234.466728</ele>
        <time>2022-03-03T10:04:51.425Z</time>
      </trkpt>
      <trkpt lat="42.06773" lon="24.95603">
        <ele>234.691662</ele>
        <time>2022-03-03T10:04:56.430Z</time>
      </trkpt>
      <trkpt lat="42.06766" lon="24.95592">
        <ele>234.926924</ele>
        <time>2022-03-03T10:05:03.424Z</time>
      </trkpt>
      <trkpt lat="42.06763" lon="24.9558">
        <ele>235.147802</ele>
        <time>2022-03-03T10:05:10.409Z</time>
      </trkpt>
      <trkpt lat="42.06773" lon="24.95573">
        <ele>235.397531</ele>
        <time>2022-03-03T10:34:45.436Z</time>
      </trkpt>
      <trkpt lat="42.06777" lon="24.9556">
        <ele>235.629228</ele>
        <time>2022-03-03T10:34:49.469Z</time>
      </trkpt>
      <trkpt lat="42.06782" lon="24.95546">
        <ele>235.877003</ele>
        <time>2022-03-03T10:34:53.477Z</time>
      </trkpt>
      <trkpt lat="42.06786" lon="24.95535">
        <ele>236.079899</ele>
        <time>2022-03-03T10:34:56.427Z</time>
      </trkpt>
      <trkpt lat="42.06791" lon="24.95523">
        <ele>236.314532</ele>
        <time>2022-03-03T10:34:59.458Z</time>
      </trkpt>
      <trkpt lat="42.06795" lon="24.95512">
        <ele>236.466446</ele>
        <time>2022-03-03T10:35:02.427Z</time>
      </trkpt>
      <trkpt lat="42.06799" lon="24.95497">
        <ele>236.624609</ele>
        <time>2022-03-03T10:35:06.425Z</time>
      </trkpt>
      <trkpt lat="42.06804" lon="24.95483">
        <ele>236.786791</ele>
        <time>2022-03-03T10:35:10.421Z</time>
      </trkpt>
      <trkpt lat="42.06809" lon="24.9547">
        <ele>236.93457</ele>
        <time>2022-03-03T10:35:14.429Z</time>
      </trkpt>
      <trkpt lat="42.06813" lon="24.95455">
        <ele>237.095996</ele>
        <time>2022-03-03T10:35:18.429Z</time>
      </trkpt>
      <trkpt lat="42.06816" lon="24.95443">
        <ele>237.218354</ele>
        <time>2022-03-03T10:35:21.458Z</time>
      </trkpt>
      <trkpt lat="42.06821" lon="24.95431">
        <ele>237.357698</ele>
        <time>2022-03-03T10:35:24.426Z</time>
      </trkpt>
      <trkpt lat="42.06825" lon="24.9542">
        <ele>237.483935</ele>
        <time>2022-03-03T10:35:27.396Z</time>
      </trkpt>
      <trkpt lat="42.06829" lon="24.95406">
        <ele>237.64575</ele>
        <time>2022-03-03T10:35:31.431Z</time>
      </trkpt>
      <trkpt lat="42.06834" lon="24.95391">
        <ele>237.809564</ele>
        <time>2022-03-03T10:35:35.454Z</time>
      </trkpt>
      <trkpt lat="42.06839" lon="24.95376">
        <ele>237.970817</ele>
        <time>2022-03-03T10:35:39.418Z</time>
      </trkpt>
      <trkpt lat="42.06843" lon="24.95362">
        <ele>238.13035</ele>
        <time>2022-03-03T10:35:43.427Z</time>
      </trkpt>
      <trkpt lat="42.06847" lon="24.95347">
        <ele>238.290912</ele>
        <time>2022-03-03T10:35:47.441Z</time>
      </trkpt>
      <trkpt lat="42.06852" lon="24.95335">
        <ele>238.425137</ele>
        <time>2022-03-03T10:35:50.430Z</time>
      </trkpt>
      <trkpt lat="42.06857" lon="24.95324">
        <ele>238.557583</ele>
        <time>2022-03-03T10:35:53.424Z</time>
      </trkpt>
      <trkpt lat="42.06861" lon="24.95312">
        <ele>238.694432</ele>
        <time>2022-03-03T10:35:56.438Z</time>
      </trkpt>
      <trkpt lat="42.06866" lon="24.953">
        <ele>238.835086</ele>
        <time>2022-03-03T10:35:59.427Z</time>
      </trkpt>
      <trkpt lat="42.06871" lon="24.95287">
        <ele>238.785917</ele>
        <time>2022-03-03T10:36:02.432Z</time>
      </trkpt>
      <trkpt lat="42.06875" lon="24.95276">
        <ele>238.73547</ele>
        <time>2022-03-03T10:36:05.426Z</time>
      </trkpt>
      <trkpt lat="42.06878" lon="24.95264">
        <ele>238.684545</ele>
        <time>2022-03-03T10:36:08.419Z</time>
      </trkpt>
      <trkpt lat="42.06882" lon="24.95251">
        <ele>238.628676</ele>
        <time>2022-03-03T10:36:11.425Z</time>
      </trkpt>
      <trkpt lat="42.06886" lon="24.95239">
        <ele>238.573464</ele>
        <time>2022-03-03T10:36:14.419Z</time>
      </trkpt>
      <trkpt lat="42.06891" lon="24.95227">
        <ele>238.51934</ele>
        <time>2022-03-03T10:36:17.434Z</time>
      </trkpt>
      <trkpt lat="42.06896" lon="24.95215">
        <ele>238.465571</ele>
        <time>2022-03-03T10:36:20.446Z</time>
      </trkpt>
      <trkpt lat="42.069" lon="24.95204">
        <ele>238.413827</ele>
        <time>2022-03-03T10:36:23.434Z</time>
      </trkpt>
      <trkpt lat="42.06904" lon="24.9519">
        <ele>238.355402</ele>
        <time>2022-03-03T10:36:26.423Z</time>
      </trkpt>
      <trkpt lat="42.06908" lon="24.95176">
        <ele>238.297541</ele>
        <time>2022-03-03T10:36:29.462Z</time>
      </trkpt>
      <trkpt lat="42.06912" lon="24.95162">
        <ele>238.235505</ele>
        <time>2022-03-03T10:36:32.441Z</time>
      </trkpt>
      <trkpt lat="42.06917" lon="24.95148">
        <ele>238.175833</ele>
        <time>2022-03-03T10:36:35.429Z</time>
      </trkpt>
      <trkpt lat="42.06922" lon="24.95134">
        <ele>238.112852</ele>
        <time>2022-03-03T10:36:38.435Z</time>
      </trkpt>
      <trkpt lat="42.06927" lon="24.9512">
        <ele>238.048197</ele>
        <time>2022-03-03T10:36:41.422Z</time>
      </trkpt>
      <trkpt lat="42.06932" lon="24.95106">
        <ele>237.984257</ele>
        <time>2022-03-03T10:36:44.423Z</time>
      </trkpt>
      <trkpt lat="42.06937" lon="24.95092">
        <ele>237.921399</ele>
        <time>2022-03-03T10:36:47.427Z</time>
      </trkpt>
      <trkpt lat="42.06942" lon="24.95078">
        <ele>237.827953</ele>
        <time>2022-03-03T10:36:50.436Z</time>
      </trkpt>
      <trkpt lat="42.06947" lon="24.95063">
        <ele>237.467862</ele>
        <time>2022-03-03T10:36:53.411Z</time>
      </trkpt>
      <trkpt lat="42.06952" lon="24.95048">
        <ele>237.10915</ele>
        <time>2022-03-03T10:36:56.441Z</time>
      </trkpt>
      <trkpt lat="42.06957" lon="24.95035">
        <ele>236.786263</ele>
        <time>2022-03-03T10:36:59.429Z</time>
      </trkpt>
      <trkpt lat="42.06962" lon="24.95021">
        <ele>236.451697</ele>
        <time>2022-03-03T10:37:02.441Z</time>
      </trkpt>
      <trkpt lat="42.06969" lon="24.95005">
        <ele>236.060891</ele>
        <time>2022-03-03T10:37:05.443Z</time>
      </trkpt>
      <trkpt lat="42.06974" lon="24.94994">
        <ele>235.767192</ele>
        <time>2022-03-03T10:37:07.433Z</time>
      </trkpt>
      <trkpt lat="42.06981" lon="24.94983">
        <ele>235.452603</ele>
        <time>2022-03-03T10:37:09.412Z</time>
      </trkpt>
      <trkpt lat="42.06988" lon="24.94973">
        <ele>235.143237</ele>
        <time>2022-03-03T10:37:11.423Z</time>
      </trkpt>
      <trkpt lat="42.06997" lon="24.94964">
        <ele>234.817972</ele>
        <time>2022-03-03T10:37:13.430Z</time>
      </trkpt>
      <trkpt lat="42.07006" lon="24.94956">
        <ele>234.497859</ele>
        <time>2022-03-03T10:37:15.423Z</time>
      </trkpt>
      <trkpt lat="42.07015" lon="24.94949">
        <ele>234.195882</ele>
        <time>2022-03-03T10:37:17.437Z</time>
      </trkpt>
      <trkpt lat="42.07024" lon="24.94941">
        <ele>233.885425</ele>
        <time>2022-03-03T10:37:19.462Z</time>
      </trkpt>
      <trkpt lat="42.07032" lon="24.94933">
        <ele>233.58608</ele>
        <time>2022-03-03T10:37:21.441Z</time>
      </trkpt>
      <trkpt lat="42.0704" lon="24.94927">
        <ele>233.31836</ele>
        <time>2022-03-03T10:37:23.431Z</time>
      </trkpt>
      <trkpt lat="42.0705" lon="24.94918">
        <ele>232.946926</ele>
        <time>2022-03-03T10:37:26.427Z</time>
      </trkpt>
      <trkpt lat="42.0706" lon="24.94909">
        <ele>232.613374</ele>
        <time>2022-03-03T10:37:29.412Z</time>
      </trkpt>
      <trkpt lat="42.0707" lon="24.949">
        <ele>232.362487</ele>
        <time>2022-03-03T10:37:32.426Z</time>
      </trkpt>
      <trkpt lat="42.0708" lon="24.94891">
        <ele>232.119612</ele>
        <time>2022-03-03T10:37:35.427Z</time>
      </trkpt>
      <trkpt lat="42.07091" lon="24.94881">
        <ele>231.865222</ele>
        <time>2022-03-03T10:37:38.424Z</time>
      </trkpt>
      <trkpt lat="42.07102" lon="24.94872">
        <ele>231.605827</ele>
        <time>2022-03-03T10:37:41.428Z</time>
      </trkpt>
      <trkpt lat="42.0711" lon="24.94865">
        <ele>231.420228</ele>
        <time>2022-03-03T10:37:43.439Z</time>
      </trkpt>
      <trkpt lat="42.07118" lon="24.94859">
        <ele>231.229543</ele>
        <time>2022-03-03T10:37:45.427Z</time>
      </trkpt>
      <trkpt lat="42.07126" lon="24.94852">
        <ele>231.039036</ele>
        <time>2022-03-03T10:37:47.422Z</time>
      </trkpt>
      <trkpt lat="42.07135" lon="24.94845">
        <ele>230.840386</ele>
        <time>2022-03-03T10:37:49.426Z</time>
      </trkpt>
      <trkpt lat="42.07144" lon="24.94837">
        <ele>230.634365</ele>
        <time>2022-03-03T10:37:51.427Z</time>
      </trkpt>
      <trkpt lat="42.07152" lon="24.94829">
        <ele>230.424327</ele>
        <time>2022-03-03T10:37:53.432Z</time>
      </trkpt>
      <trkpt lat="42.07161" lon="24.94821">
        <ele>230.215107</ele>
        <time>2022-03-03T10:37:55.422Z</time>
      </trkpt>
      <trkpt lat="42.0717" lon="24.94813">
        <ele>229.999318</ele>
        <time>2022-03-03T10:37:57.442Z</time>
      </trkpt>
      <trkpt lat="42.07179" lon="24.94806">
        <ele>229.790909</ele>
        <time>2022-03-03T10:37:59.436Z</time>
      </trkpt>
      <trkpt lat="42.07188" lon="24.94798">
        <ele>229.580871</ele>
        <time>2022-03-03T10:38:01.439Z</time>
      </trkpt>
      <trkpt lat="42.07197" lon="24.9479">
        <ele>229.361674</ele>
        <time>2022-03-03T10:38:03.459Z</time>
      </trkpt>
      <trkpt lat="42.07206" lon="24.94782">
        <ele>229.152407</ele>
        <time>2022-03-03T10:38:05.422Z</time>
      </trkpt>
      <trkpt lat="42.07214" lon="24.94775">
        <ele>228.95447</ele>
        <time>2022-03-03T10:38:07.415Z</time>
      </trkpt>
      <trkpt lat="42.07223" lon="24.94767">
        <ele>228.73769</ele>
        <time>2022-03-03T10:38:09.427Z</time>
      </trkpt>
      <trkpt lat="42.07232" lon="24.9476">
        <ele>228.516094</ele>
        <time>2022-03-03T10:38:11.467Z</time>
      </trkpt>
      <trkpt lat="42.0724" lon="24.94753">
        <ele>228.297957</ele>
        <time>2022-03-03T10:38:13.432Z</time>
      </trkpt>
      <trkpt lat="42.07249" lon="24.94745">
        <ele>228.076731</ele>
        <time>2022-03-03T10:38:15.426Z</time>
      </trkpt>
      <trkpt lat="42.07258" lon="24.94738">
        <ele>227.859045</ele>
        <time>2022-03-03T10:38:17.432Z</time>
      </trkpt>
      <trkpt lat="42.07266" lon="24.94731">
        <ele>227.644779</ele>
        <time>2022-03-03T10:38:19.429Z</time>
      </trkpt>
      <trkpt lat="42.07274" lon="24.94723">
        <ele>227.428883</ele>
        <time>2022-03-03T10:38:21.437Z</time>
      </trkpt>
      <trkpt lat="42.07283" lon="24.94716">
        <ele>227.210135</ele>
        <time>2022-03-03T10:38:23.440Z</time>
      </trkpt>
      <trkpt lat="42.07291" lon="24.9471">
        <ele>227.006305</ele>
        <time>2022-03-03T10:38:25.472Z</time>
      </trkpt>
      <trkpt lat="42.07299" lon="24.94702">
        <ele>226.796633</ele>
        <time>2022-03-03T10:38:27.417Z</time>
      </trkpt>
      <trkpt lat="42.07308" lon="24.94695">
        <ele>226.581611</ele>
        <time>2022-03-03T10:38:29.429Z</time>
      </trkpt>
      <trkpt lat="42.07317" lon="24.94687">
        <ele>226.349572</ele>
        <time>2022-03-03T10:38:31.489Z</time>
      </trkpt>
      <trkpt lat="42.07326" lon="24.9468">
        <ele>226.12829</ele>
        <time>2022-03-03T10:38:33.415Z</time>
      </trkpt>
      <trkpt lat="42.07334" lon="24.94672">
        <ele>225.90881</ele>
        <time>2022-03-03T10:38:35.426Z</time>
      </trkpt>
      <trkpt lat="42.07342" lon="24.94666">
        <ele>225.710492</ele>
        <time>2022-03-03T10:38:37.436Z</time>
      </trkpt>
      <trkpt lat="42.07353" lon="24.94655">
        <ele>225.420862</ele>
        <time>2022-03-03T10:38:40.428Z</time>
      </trkpt>
      <trkpt lat="42.07362" lon="24.94648">
        <ele>225.204773</ele>
        <time>2022-03-03T10:38:42.486Z</time>
      </trkpt>
      <trkpt lat="42.07371" lon="24.94642">
        <ele>225.144436</ele>
        <time>2022-03-03T10:38:44.413Z</time>
      </trkpt>
      <trkpt lat="42.0738" lon="24.94634">
        <ele>225.127933</ele>
        <time>2022-03-03T10:38:46.435Z</time>
      </trkpt>
      <trkpt lat="42.07389" lon="24.94627">
        <ele>225.110961</ele>
        <time>2022-03-03T10:38:48.424Z</time>
      </trkpt>
      <trkpt lat="42.07398" lon="24.9462">
        <ele>225.095144</ele>
        <time>2022-03-03T10:38:50.446Z</time>
      </trkpt>
      <trkpt lat="42.07406" lon="24.94613">
        <ele>225.079659</ele>
        <time>2022-03-03T10:38:52.444Z</time>
      </trkpt>
      <trkpt lat="42.07414" lon="24.94605">
        <ele>225.064147</ele>
        <time>2022-03-03T10:38:54.426Z</time>
      </trkpt>
      <trkpt lat="42.07421" lon="24.94597">
        <ele>225.049252</ele>
        <time>2022-03-03T10:38:56.430Z</time>
      </trkpt>
      <trkpt lat="42.07429" lon="24.9459">
        <ele>225.034423</ele>
        <time>2022-03-03T10:38:58.435Z</time>
      </trkpt>
      <trkpt lat="42.07437" lon="24.94583">
        <ele>225.019395</ele>
        <time>2022-03-03T10:39:00.436Z</time>
      </trkpt>
      <trkpt lat="42.07444" lon="24.94576">
        <ele>225.004546</ele>
        <time>2022-03-03T10:39:02.436Z</time>
      </trkpt>
      <trkpt lat="42.07452" lon="24.94568">
        <ele>224.98973</ele>
        <time>2022-03-03T10:39:04.505Z</time>
      </trkpt>
      <trkpt lat="42.07459" lon="24.9456">
        <ele>224.974887</ele>
        <time>2022-03-03T10:39:06.432Z</time>
      </trkpt>
      <trkpt lat="42.07466" lon="24.94552">
        <ele>224.96012</ele>
        <time>2022-03-03T10:39:08.425Z</time>
      </trkpt>
      <trkpt lat="42.07473" lon="24.94543">
        <ele>224.945006</ele>
        <time>2022-03-03T10:39:10.433Z</time>
      </trkpt>
      <trkpt lat="42.07481" lon="24.94535">
        <ele>224.929376</ele>
        <time>2022-03-03T10:39:12.427Z</time>
      </trkpt>
      <trkpt lat="42.07489" lon="24.94526">
        <ele>224.913944</ele>
        <time>2022-03-03T10:39:14.429Z</time>
      </trkpt>
      <trkpt lat="42.07496" lon="24.94518">
        <ele>224.898905</ele>
        <time>2022-03-03T10:39:16.423Z</time>
      </trkpt>
      <trkpt lat="42.07504" lon="24.9451">
        <ele>224.883375</ele>
        <time>2022-03-03T10:39:18.435Z</time>
      </trkpt>
      <trkpt lat="42.07512" lon="24.94501">
        <ele>224.894059</ele>
        <time>2022-03-03T10:39:20.423Z</time>
      </trkpt>
      <trkpt lat="42.0752" lon="24.94493">
        <ele>224.957938</ele>
        <time>2022-03-03T10:39:22.435Z</time>
      </trkpt>
      <trkpt lat="42.07527" lon="24.94485">
        <ele>225.018054</ele>
        <time>2022-03-03T10:39:24.420Z</time>
      </trkpt>
      <trkpt lat="42.07535" lon="24.94476">
        <ele>225.077884</ele>
        <time>2022-03-03T10:39:26.490Z</time>
      </trkpt>
      <trkpt lat="42.07542" lon="24.94468">
        <ele>225.134855</ele>
        <time>2022-03-03T10:39:28.452Z</time>
      </trkpt>
      <trkpt lat="42.07549" lon="24.94461">
        <ele>225.190466</ele>
        <time>2022-03-03T10:39:30.446Z</time>
      </trkpt>
      <trkpt lat="42.07559" lon="24.94449">
        <ele>225.274539</ele>
        <time>2022-03-03T10:39:33.434Z</time>
      </trkpt>
      <trkpt lat="42.07566" lon="24.94441">
        <ele>225.330276</ele>
        <time>2022-03-03T10:39:35.433Z</time>
      </trkpt>
      <trkpt lat="42.07576" lon="24.94429">
        <ele>225.412049</ele>
        <time>2022-03-03T10:39:38.446Z</time>
      </trkpt>
      <trkpt lat="42.07586" lon="24.94418">
        <ele>225.489451</ele>
        <time>2022-03-03T10:39:41.426Z</time>
      </trkpt>
      <trkpt lat="42.07596" lon="24.94408">
        <ele>225.566959</ele>
        <time>2022-03-03T10:39:44.419Z</time>
      </trkpt>
      <trkpt lat="42.07605" lon="24.94397">
        <ele>225.640464</ele>
        <time>2022-03-03T10:39:47.428Z</time>
      </trkpt>
      <trkpt lat="42.07614" lon="24.94386">
        <ele>225.716408</ele>
        <time>2022-03-03T10:39:50.429Z</time>
      </trkpt>
      <trkpt lat="42.07623" lon="24.94376">
        <ele>225.79098</ele>
        <time>2022-03-03T10:39:53.436Z</time>
      </trkpt>
      <trkpt lat="42.07632" lon="24.94365">
        <ele>225.863888</ele>
        <time>2022-03-03T10:39:56.435Z</time>
      </trkpt>
      <trkpt lat="42.07641" lon="24.94355">
        <ele>225.935914</ele>
        <time>2022-03-03T10:39:59.442Z</time>
      </trkpt>
      <trkpt lat="42.0765" lon="24.94345">
        <ele>225.981641</ele>
        <time>2022-03-03T10:40:02.432Z</time>
      </trkpt>
      <trkpt lat="42.0766" lon="24.94335">
        <ele>225.977185</ele>
        <time>2022-03-03T10:40:05.446Z</time>
      </trkpt>
      <trkpt lat="42.07669" lon="24.94325">
        <ele>225.973066</ele>
        <time>2022-03-03T10:40:08.434Z</time>
      </trkpt>
      <trkpt lat="42.07678" lon="24.94314">
        <ele>225.968908</ele>
        <time>2022-03-03T10:40:11.466Z</time>
      </trkpt>
      <trkpt lat="42.07688" lon="24.94303">
        <ele>225.964376</ele>
        <time>2022-03-03T10:40:14.420Z</time>
      </trkpt>
      <trkpt lat="42.07698" lon="24.94292">
        <ele>225.959887</ele>
        <time>2022-03-03T10:40:17.466Z</time>
      </trkpt>
      <trkpt lat="42.07707" lon="24.94282">
        <ele>225.955592</ele>
        <time>2022-03-03T10:40:20.445Z</time>
      </trkpt>
      <trkpt lat="42.07716" lon="24.94271">
        <ele>225.951375</ele>
        <time>2022-03-03T10:40:23.415Z</time>
      </trkpt>
      <trkpt lat="42.07726" lon="24.94261">
        <ele>225.947136</ele>
        <time>2022-03-03T10:40:26.463Z</time>
      </trkpt>
      <trkpt lat="42.07734" lon="24.94251">
        <ele>225.943163</ele>
        <time>2022-03-03T10:40:29.446Z</time>
      </trkpt>
      <trkpt lat="42.07744" lon="24.9424">
        <ele>225.938886</ele>
        <time>2022-03-03T10:40:32.417Z</time>
      </trkpt>
      <trkpt lat="42.07753" lon="24.94229">
        <ele>225.934446</ele>
        <time>2022-03-03T10:40:35.430Z</time>
      </trkpt>
      <trkpt lat="42.07763" lon="24.94218">
        <ele>225.929914</ele>
        <time>2022-03-03T10:40:38.439Z</time>
      </trkpt>
      <trkpt lat="42.07773" lon="24.94208">
        <ele>225.925713</ele>
        <time>2022-03-03T10:40:41.411Z</time>
      </trkpt>
      <trkpt lat="42.07782" lon="24.94199">
        <ele>225.921828</ele>
        <time>2022-03-03T10:40:44.419Z</time>
      </trkpt>
      <trkpt lat="42.07791" lon="24.94189">
        <ele>225.934111</ele>
        <time>2022-03-03T10:40:47.434Z</time>
      </trkpt>
      <trkpt lat="42.07799" lon="24.94179">
        <ele>225.958777</ele>
        <time>2022-03-03T10:40:50.421Z</time>
      </trkpt>
      <trkpt lat="42.07809" lon="24.9417">
        <ele>225.984668</ele>
        <time>2022-03-03T10:40:53.466Z</time>
      </trkpt>
      <trkpt lat="42.07818" lon="24.9416">
        <ele>226.010344</ele>
        <time>2022-03-03T10:40:56.418Z</time>
      </trkpt>
      <trkpt lat="42.07827" lon="24.94151">
        <ele>226.03414</ele>
        <time>2022-03-03T10:40:59.424Z</time>
      </trkpt>
      <trkpt lat="42.07836" lon="24.94141">
        <ele>226.060886</ele>
        <time>2022-03-03T10:41:02.474Z</time>
      </trkpt>
      <trkpt lat="42.07844" lon="24.94132">
        <ele>226.081655</ele>
        <time>2022-03-03T10:41:04.425Z</time>
      </trkpt>
      <trkpt lat="42.07854" lon="24.94121">
        <ele>226.109712</ele>
        <time>2022-03-03T10:41:07.427Z</time>
      </trkpt>
      <trkpt lat="42.07864" lon="24.9411">
        <ele>226.137902</ele>
        <time>2022-03-03T10:41:10.423Z</time>
      </trkpt>
      <trkpt lat="42.07874" lon="24.941">
        <ele>226.165495</ele>
        <time>2022-03-03T10:41:13.472Z</time>
      </trkpt>
      <trkpt lat="42.07884" lon="24.94089">
        <ele>226.193281</ele>
        <time>2022-03-03T10:41:16.441Z</time>
      </trkpt>
      <trkpt lat="42.07893" lon="24.94079">
        <ele>226.219235</ele>
        <time>2022-03-03T10:41:19.449Z</time>
      </trkpt>
      <trkpt lat="42.07901" lon="24.94069">
        <ele>226.243667</ele>
        <time>2022-03-03T10:41:22.435Z</time>
      </trkpt>
      <trkpt lat="42.07911" lon="24.94059">
        <ele>226.26996</ele>
        <time>2022-03-03T10:41:25.437Z</time>
      </trkpt>
      <trkpt lat="42.0792" lon="24.94049">
        <ele>226.296895</ele>
        <time>2022-03-03T10:41:28.430Z</time>
      </trkpt>
      <trkpt lat="42.0793" lon="24.94039">
        <ele>226.269162</ele>
        <time>2022-03-03T10:41:31.436Z</time>
      </trkpt>
      <trkpt lat="42.0794" lon="24.94029">
        <ele>226.178495</ele>
        <time>2022-03-03T10:41:34.421Z</time>
      </trkpt>
      <trkpt lat="42.07949" lon="24.94019">
        <ele>226.08758</ele>
        <time>2022-03-03T10:41:37.424Z</time>
      </trkpt>
      <trkpt lat="42.07959" lon="24.94009">
        <ele>225.995017</ele>
        <time>2022-03-03T10:41:40.433Z</time>
      </trkpt>
      <trkpt lat="42.07968" lon="24.93998">
        <ele>225.905246</ele>
        <time>2022-03-03T10:41:43.425Z</time>
      </trkpt>
      <trkpt lat="42.07976" lon="24.93988">
        <ele>225.818018</ele>
        <time>2022-03-03T10:41:46.428Z</time>
      </trkpt>
      <trkpt lat="42.07985" lon="24.93979">
        <ele>225.731022</ele>
        <time>2022-03-03T10:41:49.439Z</time>
      </trkpt>
      <trkpt lat="42.07993" lon="24.9397">
        <ele>225.653135</ele>
        <time>2022-03-03T10:41:52.433Z</time>
      </trkpt>
      <trkpt lat="42.08003" lon="24.93959">
        <ele>225.556196</ele>
        <time>2022-03-03T10:41:55.440Z</time>
      </trkpt>
      <trkpt lat="42.0801" lon="24.93951">
        <ele>225.485026</ele>
        <time>2022-03-03T10:41:57.402Z</time>
      </trkpt>
      <trkpt lat="42.08018" lon="24.93944">
        <ele>225.416089</ele>
        <time>2022-03-03T10:41:59.430Z</time>
      </trkpt>
      <trkpt lat="42.08028" lon="24.93934">
        <ele>225.317932</ele>
        <time>2022-03-03T10:42:02.461Z</time>
      </trkpt>
      <trkpt lat="42.08038" lon="24.93923">
        <ele>225.220739</ele>
        <time>2022-03-03T10:42:05.473Z</time>
      </trkpt>
      <trkpt lat="42.08048" lon="24.93911">
        <ele>225.119167</ele>
        <time>2022-03-03T10:42:08.435Z</time>
      </trkpt>
      <trkpt lat="42.08058" lon="24.93901">
        <ele>225.019191</ele>
        <time>2022-03-03T10:42:11.453Z</time>
      </trkpt>
      <trkpt lat="42.08068" lon="24.9389">
        <ele>224.911093</ele>
        <time>2022-03-03T10:42:14.419Z</time>
      </trkpt>
      <trkpt lat="42.08078" lon="24.93879">
        <ele>224.712709</ele>
        <time>2022-03-03T10:42:17.442Z</time>
      </trkpt>
      <trkpt lat="42.08086" lon="24.93872">
        <ele>224.574068</ele>
        <time>2022-03-03T10:42:19.425Z</time>
      </trkpt>
      <trkpt lat="42.08093" lon="24.93864">
        <ele>224.433973</ele>
        <time>2022-03-03T10:42:21.422Z</time>
      </trkpt>
      <trkpt lat="42.08104" lon="24.93853">
        <ele>224.232524</ele>
        <time>2022-03-03T10:42:24.413Z</time>
      </trkpt>
      <trkpt lat="42.08114" lon="24.93842">
        <ele>224.038154</ele>
        <time>2022-03-03T10:42:27.436Z</time>
      </trkpt>
      <trkpt lat="42.08124" lon="24.93831">
        <ele>223.833636</ele>
        <time>2022-03-03T10:42:30.443Z</time>
      </trkpt>
      <trkpt lat="42.08132" lon="24.93823">
        <ele>223.696091</ele>
        <time>2022-03-03T10:42:32.413Z</time>
      </trkpt>
      <trkpt lat="42.08142" lon="24.93813">
        <ele>223.501457</ele>
        <time>2022-03-03T10:42:35.422Z</time>
      </trkpt>
      <trkpt lat="42.08152" lon="24.93802">
        <ele>223.31074</ele>
        <time>2022-03-03T10:42:38.425Z</time>
      </trkpt>
      <trkpt lat="42.08161" lon="24.93792">
        <ele>223.129018</ele>
        <time>2022-03-03T10:42:41.434Z</time>
      </trkpt>
      <trkpt lat="42.08169" lon="24.93783">
        <ele>222.967329</ele>
        <time>2022-03-03T10:42:44.417Z</time>
      </trkpt>
      <trkpt lat="42.08177" lon="24.93773">
        <ele>222.804537</ele>
        <time>2022-03-03T10:42:47.443Z</time>
      </trkpt>
      <trkpt lat="42.08186" lon="24.93763">
        <ele>222.632413</ele>
        <time>2022-03-03T10:42:50.484Z</time>
      </trkpt>
      <trkpt lat="42.08195" lon="24.93752">
        <ele>222.453103</ele>
        <time>2022-03-03T10:42:53.448Z</time>
      </trkpt>
      <trkpt lat="42.08203" lon="24.93741">
        <ele>222.279477</ele>
        <time>2022-03-03T10:42:56.427Z</time>
      </trkpt>
      <trkpt lat="42.08212" lon="24.9373">
        <ele>222.228633</ele>
        <time>2022-03-03T10:42:59.435Z</time>
      </trkpt>
      <trkpt lat="42.08221" lon="24.9372">
        <ele>222.222634</ele>
        <time>2022-03-03T10:43:02.456Z</time>
      </trkpt>
      <trkpt lat="42.0823" lon="24.9371">
        <ele>222.216829</ele>
        <time>2022-03-03T10:43:05.426Z</time>
      </trkpt>
      <trkpt lat="42.08239" lon="24.93699">
        <ele>222.210739</ele>
        <time>2022-03-03T10:43:08.443Z</time>
      </trkpt>
      <trkpt lat="42.08248" lon="24.93688">
        <ele>222.204814</ele>
        <time>2022-03-03T10:43:11.426Z</time>
      </trkpt>
      <trkpt lat="42.08256" lon="24.93677">
        <ele>222.199293</ele>
        <time>2022-03-03T10:43:14.432Z</time>
      </trkpt>
      <trkpt lat="42.08263" lon="24.93667">
        <ele>222.193861</ele>
        <time>2022-03-03T10:43:17.463Z</time>
      </trkpt>
      <trkpt lat="42.08271" lon="24.93658">
        <ele>222.18853</ele>
        <time>2022-03-03T10:43:20.444Z</time>
      </trkpt>
      <trkpt lat="42.08279" lon="24.93648">
        <ele>222.183126</ele>
        <time>2022-03-03T10:43:23.468Z</time>
      </trkpt>
      <trkpt lat="42.08287" lon="24.93638">
        <ele>222.177684</ele>
        <time>2022-03-03T10:43:26.437Z</time>
      </trkpt>
      <trkpt lat="42.08295" lon="24.93629">
        <ele>222.172291</ele>
        <time>2022-03-03T10:43:29.432Z</time>
      </trkpt>
      <trkpt lat="42.08303" lon="24.93619">
        <ele>222.167135</ele>
        <time>2022-03-03T10:43:32.433Z</time>
      </trkpt>
      <trkpt lat="42.08311" lon="24.93609">
        <ele>222.16148</ele>
        <time>2022-03-03T10:43:35.427Z</time>
      </trkpt>
      <trkpt lat="42.0832" lon="24.93599">
        <ele>222.155776</ele>
        <time>2022-03-03T10:43:38.466Z</time>
      </trkpt>
      <trkpt lat="42.08328" lon="24.93588">
        <ele>222.15022</ele>
        <time>2022-03-03T10:43:41.439Z</time>
      </trkpt>
      <trkpt lat="42.08335" lon="24.93578">
        <ele>222.144849</ele>
        <time>2022-03-03T10:43:44.410Z</time>
      </trkpt>
      <trkpt lat="42.08343" lon="24.93569">
        <ele>222.179973</ele>
        <time>2022-03-03T10:43:47.470Z</time>
      </trkpt>
      <trkpt lat="42.0835" lon="24.93559">
        <ele>222.237495</ele>
        <time>2022-03-03T10:43:50.435Z</time>
      </trkpt>
      <trkpt lat="42.08358" lon="24.93549">
        <ele>222.298732</ele>
        <time>2022-03-03T10:43:53.412Z</time>
      </trkpt>
      <trkpt lat="42.08367" lon="24.93539">
        <ele>222.359969</ele>
        <time>2022-03-03T10:43:56.434Z</time>
      </trkpt>
      <trkpt lat="42.08374" lon="24.9353">
        <ele>222.419818</ele>
        <time>2022-03-03T10:43:59.433Z</time>
      </trkpt>
      <trkpt lat="42.08382" lon="24.93521">
        <ele>222.476626</ele>
        <time>2022-03-03T10:44:02.447Z</time>
      </trkpt>
      <trkpt lat="42.08389" lon="24.93512">
        <ele>222.529115</ele>
        <time>2022-03-03T10:44:05.446Z</time>
      </trkpt>
      <trkpt lat="42.08397" lon="24.93503">
        <ele>222.585909</ele>
        <time>2022-03-03T10:44:08.422Z</time>
      </trkpt>
      <trkpt lat="42.08404" lon="24.93494">
        <ele>222.643959</ele>
        <time>2022-03-03T10:44:11.415Z</time>
      </trkpt>
      <trkpt lat="42.08412" lon="24.93484">
        <ele>222.704782</ele>
        <time>2022-03-03T10:44:14.508Z</time>
      </trkpt>
      <trkpt lat="42.0842" lon="24.93475">
        <ele>222.760753</ele>
        <time>2022-03-03T10:44:17.426Z</time>
      </trkpt>
      <trkpt lat="42.08427" lon="24.93465">
        <ele>222.817295</ele>
        <time>2022-03-03T10:44:20.431Z</time>
      </trkpt>
      <trkpt lat="42.08435" lon="24.93455">
        <ele>222.877468</ele>
        <time>2022-03-03T10:44:23.434Z</time>
      </trkpt>
      <trkpt lat="42.08442" lon="24.93446">
        <ele>222.93565</ele>
        <time>2022-03-03T10:44:26.440Z</time>
      </trkpt>
      <trkpt lat="42.08449" lon="24.93436">
        <ele>222.992863</ele>
        <time>2022-03-03T10:44:29.428Z</time>
      </trkpt>
      <trkpt lat="42.08458" lon="24.93423">
        <ele>223.062877</ele>
        <time>2022-03-03T10:44:32.457Z</time>
      </trkpt>
      <trkpt lat="42.08466" lon="24.93412">
        <ele>223.130543</ele>
        <time>2022-03-03T10:44:35.438Z</time>
      </trkpt>
      <trkpt lat="42.08475" lon="24.93403">
        <ele>223.230456</ele>
        <time>2022-03-03T10:44:38.428Z</time>
      </trkpt>
      <trkpt lat="42.08483" lon="24.93394">
        <ele>223.34781</ele>
        <time>2022-03-03T10:44:41.417Z</time>
      </trkpt>
      <trkpt lat="42.08491" lon="24.93384">
        <ele>223.462692</ele>
        <time>2022-03-03T10:44:44.425Z</time>
      </trkpt>
      <trkpt lat="42.08499" lon="24.93374">
        <ele>223.576221</ele>
        <time>2022-03-03T10:44:47.461Z</time>
      </trkpt>
      <trkpt lat="42.08507" lon="24.93365">
        <ele>223.685968</ele>
        <time>2022-03-03T10:44:50.422Z</time>
      </trkpt>
      <trkpt lat="42.08514" lon="24.93357">
        <ele>223.794133</ele>
        <time>2022-03-03T10:44:53.435Z</time>
      </trkpt>
      <trkpt lat="42.08521" lon="24.93347">
        <ele>223.905173</ele>
        <time>2022-03-03T10:44:56.441Z</time>
      </trkpt>
      <trkpt lat="42.08528" lon="24.93335">
        <ele>224.022474</ele>
        <time>2022-03-03T10:44:59.442Z</time>
      </trkpt>
      <trkpt lat="42.08535" lon="24.93324">
        <ele>224.137674</ele>
        <time>2022-03-03T10:45:02.422Z</time>
      </trkpt>
      <trkpt lat="42.0854" lon="24.93312">
        <ele>224.244668</ele>
        <time>2022-03-03T10:45:05.429Z</time>
      </trkpt>
      <trkpt lat="42.08545" lon="24.933">
        <ele>224.358336</ele>
        <time>2022-03-03T10:45:08.432Z</time>
      </trkpt>
      <trkpt lat="42.08552" lon="24.93287">
        <ele>224.486505</ele>
        <time>2022-03-03T10:45:11.415Z</time>
      </trkpt>
      <trkpt lat="42.08558" lon="24.93275">
        <ele>224.605014</ele>
        <time>2022-03-03T10:45:14.419Z</time>
      </trkpt>
      <trkpt lat="42.08564" lon="24.93262">
        <ele>224.728455</ele>
        <time>2022-03-03T10:45:17.421Z</time>
      </trkpt>
      <trkpt lat="42.0857" lon="24.93249">
        <ele>224.850315</ele>
        <time>2022-03-03T10:45:20.436Z</time>
      </trkpt>
      <trkpt lat="42.08576" lon="24.93235">
        <ele>224.972812</ele>
        <time>2022-03-03T10:45:23.438Z</time>
      </trkpt>
      <trkpt lat="42.08582" lon="24.93222">
        <ele>225.074837</ele>
        <time>2022-03-03T10:45:26.434Z</time>
      </trkpt>
      <trkpt lat="42.08588" lon="24.93208">
        <ele>224.836792</ele>
        <time>2022-03-03T10:45:29.415Z</time>
      </trkpt>
      <trkpt lat="42.08594" lon="24.93194">
        <ele>224.591124</ele>
        <time>2022-03-03T10:45:32.431Z</time>
      </trkpt>
      <trkpt lat="42.08601" lon="24.9318">
        <ele>224.340476</ele>
        <time>2022-03-03T10:45:35.425Z</time>
      </trkpt>
      <trkpt lat="42.08608" lon="24.93167">
        <ele>224.098456</ele>
        <time>2022-03-03T10:45:38.420Z</time>
      </trkpt>
      <trkpt lat="42.08615" lon="24.93152">
        <ele>223.845319</ele>
        <time>2022-03-03T10:45:41.432Z</time>
      </trkpt>
      <trkpt lat="42.08622" lon="24.93138">
        <ele>223.585318</ele>
        <time>2022-03-03T10:45:44.435Z</time>
      </trkpt>
      <trkpt lat="42.08629" lon="24.93123">
        <ele>223.323171</ele>
        <time>2022-03-03T10:45:47.429Z</time>
      </trkpt>
      <trkpt lat="42.08636" lon="24.93109">
        <ele>223.069874</ele>
        <time>2022-03-03T10:45:50.449Z</time>
      </trkpt>
      <trkpt lat="42.08643" lon="24.93094">
        <ele>222.808556</ele>
        <time>2022-03-03T10:45:53.437Z</time>
      </trkpt>
      <trkpt lat="42.08649" lon="24.9308">
        <ele>222.555662</ele>
        <time>2022-03-03T10:45:56.426Z</time>
      </trkpt>
      <trkpt lat="42.08655" lon="24.93065">
        <ele>222.312951</ele>
        <time>2022-03-03T10:45:59.443Z</time>
      </trkpt>
      <trkpt lat="42.08661" lon="24.93051">
        <ele>222.066655</ele>
        <time>2022-03-03T10:46:02.424Z</time>
      </trkpt>
      <trkpt lat="42.08668" lon="24.93037">
        <ele>221.822889</ele>
        <time>2022-03-03T10:46:05.424Z</time>
      </trkpt>
      <trkpt lat="42.08675" lon="24.93024">
        <ele>221.579436</ele>
        <time>2022-03-03T10:46:08.434Z</time>
      </trkpt>
      <trkpt lat="42.08681" lon="24.9301">
        <ele>221.4141</ele>
        <time>2022-03-03T10:46:11.435Z</time>
      </trkpt>
      <trkpt lat="42.08688" lon="24.92995">
        <ele>221.297295</ele>
        <time>2022-03-03T10:46:14.418Z</time>
      </trkpt>
      <trkpt lat="42.08694" lon="24.92982">
        <ele>221.190819</ele>
        <time>2022-03-03T10:46:17.458Z</time>
      </trkpt>
      <trkpt lat="42.087" lon="24.9297">
        <ele>221.093682</ele>
        <time>2022-03-03T10:46:20.470Z</time>
      </trkpt>
      <trkpt lat="42.08706" lon="24.92959">
        <ele>221.0037</ele>
        <time>2022-03-03T10:46:23.452Z</time>
      </trkpt>
      <trkpt lat="42.08712" lon="24.92946">
        <ele>220.901535</ele>
        <time>2022-03-03T10:46:26.418Z</time>
      </trkpt>
      <trkpt lat="42.08717" lon="24.92934">
        <ele>220.802763</ele>
        <time>2022-03-03T10:46:29.418Z</time>
      </trkpt>
      <trkpt lat="42.08723" lon="24.9292">
        <ele>220.698307</ele>
        <time>2022-03-03T10:46:32.441Z</time>
      </trkpt>
      <trkpt lat="42.08729" lon="24.92907">
        <ele>220.595369</ele>
        <time>2022-03-03T10:46:35.440Z</time>
      </trkpt>
      <trkpt lat="42.08735" lon="24.92894">
        <ele>220.490413</ele>
        <time>2022-03-03T10:46:38.427Z</time>
      </trkpt>
      <trkpt lat="42.08741" lon="24.9288">
        <ele>220.38182</ele>
        <time>2022-03-03T10:46:41.429Z</time>
      </trkpt>
      <trkpt lat="42.08748" lon="24.92866">
        <ele>220.265154</ele>
        <time>2022-03-03T10:46:44.419Z</time>
      </trkpt>
      <trkpt lat="42.08754" lon="24.92853">
        <ele>220.162796</ele>
        <time>2022-03-03T10:46:47.419Z</time>
      </trkpt>
      <trkpt lat="42.08761" lon="24.9284">
        <ele>220.055389</ele>
        <time>2022-03-03T10:46:50.481Z</time>
      </trkpt>
      <trkpt lat="42.08767" lon="24.92826">
        <ele>219.94746</ele>
        <time>2022-03-03T10:46:53.438Z</time>
      </trkpt>
      <trkpt lat="42.08772" lon="24.92813">
        <ele>219.845305</ele>
        <time>2022-03-03T10:46:56.400Z</time>
      </trkpt>
      <trkpt lat="42.08778" lon="24.928">
        <ele>219.731431</ele>
        <time>2022-03-03T10:46:59.446Z</time>
      </trkpt>
      <trkpt lat="42.08784" lon="24.92788">
        <ele>219.61534</ele>
        <time>2022-03-03T10:47:02.425Z</time>
      </trkpt>
      <trkpt lat="42.08791" lon="24.92775">
        <ele>219.490884</ele>
        <time>2022-03-03T10:47:05.435Z</time>
      </trkpt>
      <trkpt lat="42.08796" lon="24.92762">
        <ele>219.365785</ele>
        <time>2022-03-03T10:47:08.446Z</time>
      </trkpt>
      <trkpt lat="42.08803" lon="24.92748">
        <ele>219.239728</ele>
        <time>2022-03-03T10:47:11.427Z</time>
      </trkpt>
      <trkpt lat="42.08809" lon="24.92734">
        <ele>219.11151</ele>
        <time>2022-03-03T10:47:14.419Z</time>
      </trkpt>
      <trkpt lat="42.08814" lon="24.92721">
        <ele>218.99564</ele>
        <time>2022-03-03T10:47:17.432Z</time>
      </trkpt>
      <trkpt lat="42.0882" lon="24.92709">
        <ele>218.880635</ele>
        <time>2022-03-03T10:47:20.434Z</time>
      </trkpt>
      <trkpt lat="42.08826" lon="24.92697">
        <ele>218.768111</ele>
        <time>2022-03-03T10:47:23.416Z</time>
      </trkpt>
      <trkpt lat="42.08831" lon="24.92685">
        <ele>218.657275</ele>
        <time>2022-03-03T10:47:26.443Z</time>
      </trkpt>
      <trkpt lat="42.08837" lon="24.92672">
        <ele>218.537343</ele>
        <time>2022-03-03T10:47:29.426Z</time>
      </trkpt>
      <trkpt lat="42.08843" lon="24.92659">
        <ele>218.412729</ele>
        <time>2022-03-03T10:47:32.441Z</time>
      </trkpt>
      <trkpt lat="42.0885" lon="24.92646">
        <ele>218.292141</ele>
        <time>2022-03-03T10:47:35.423Z</time>
      </trkpt>
      <trkpt lat="42.08856" lon="24.92634">
        <ele>218.172083</ele>
        <time>2022-03-03T10:47:38.431Z</time>
      </trkpt>
      <trkpt lat="42.08862" lon="24.92621">
        <ele>218.049533</ele>
        <time>2022-03-03T10:47:41.410Z</time>
      </trkpt>
      <trkpt lat="42.08869" lon="24.92607">
        <ele>217.926447</ele>
        <time>2022-03-03T10:47:44.410Z</time>
      </trkpt>
      <trkpt lat="42.08875" lon="24.92593">
        <ele>217.881813</ele>
        <time>2022-03-03T10:47:47.439Z</time>
      </trkpt>
      <trkpt lat="42.08881" lon="24.92579">
        <ele>217.835067</ele>
        <time>2022-03-03T10:47:50.438Z</time>
      </trkpt>
      <trkpt lat="42.08889" lon="24.92565">
        <ele>217.79013</ele>
        <time>2022-03-03T10:47:53.484Z</time>
      </trkpt>
      <trkpt lat="42.08895" lon="24.92552">
        <ele>217.745924</ele>
        <time>2022-03-03T10:47:56.424Z</time>
      </trkpt>
      <trkpt lat="42.08902" lon="24.92538">
        <ele>217.700031</ele>
        <time>2022-03-03T10:47:59.457Z</time>
      </trkpt>
      <trkpt lat="42.08908" lon="24.92523">
        <ele>217.654076</ele>
        <time>2022-03-03T10:48:02.546Z</time>
      </trkpt>
      <trkpt lat="42.08913" lon="24.92509">
        <ele>217.609554</ele>
        <time>2022-03-03T10:48:05.431Z</time>
      </trkpt>
      <trkpt lat="42.0892" lon="24.92495">
        <ele>217.564955</ele>
        <time>2022-03-03T10:48:08.443Z</time>
      </trkpt>
      <trkpt lat="42.08926" lon="24.92481">
        <ele>217.519152</ele>
        <time>2022-03-03T10:48:11.431Z</time>
      </trkpt>
      <trkpt lat="42.08933" lon="24.92467">
        <ele>217.473584</ele>
        <time>2022-03-03T10:48:14.429Z</time>
      </trkpt>
      <trkpt lat="42.0894" lon="24.92452">
        <ele>217.424409</ele>
        <time>2022-03-03T10:48:17.444Z</time>
      </trkpt>
      <trkpt lat="42.08947" lon="24.92438">
        <ele>217.378287</ele>
        <time>2022-03-03T10:48:20.439Z</time>
      </trkpt>
      <trkpt lat="42.08954" lon="24.92423">
        <ele>217.331503</ele>
        <time>2022-03-03T10:48:23.437Z</time>
      </trkpt>
      <trkpt lat="42.0896" lon="24.9241">
        <ele>217.288226</ele>
        <time>2022-03-03T10:48:26.424Z</time>
      </trkpt>
      <trkpt lat="42.08966" lon="24.92396">
        <ele>217.248874</ele>
        <time>2022-03-03T10:48:29.468Z</time>
      </trkpt>
      <trkpt lat="42.08972" lon="24.92384">
        <ele>217.21612</ele>
        <time>2022-03-03T10:48:32.458Z</time>
      </trkpt>
      <trkpt lat="42.08978" lon="24.92371">
        <ele>217.182593</ele>
        <time>2022-03-03T10:48:35.431Z</time>
      </trkpt>
      <trkpt lat="42.08983" lon="24.92359">
        <ele>217.151404</ele>
        <time>2022-03-03T10:48:38.425Z</time>
      </trkpt>
      <trkpt lat="42.08989" lon="24.92346">
        <ele>217.118438</ele>
        <time>2022-03-03T10:48:41.446Z</time>
      </trkpt>
      <trkpt lat="42.08995" lon="24.92333">
        <ele>217.084297</ele>
        <time>2022-03-03T10:48:44.416Z</time>
      </trkpt>
      <trkpt lat="42.09002" lon="24.9232">
        <ele>217.048412</ele>
        <time>2022-03-03T10:48:47.424Z</time>
      </trkpt>
      <trkpt lat="42.09009" lon="24.92307">
        <ele>217.013408</ele>
        <time>2022-03-03T10:48:50.423Z</time>
      </trkpt>
      <trkpt lat="42.09015" lon="24.92293">
        <ele>216.977348</ele>
        <time>2022-03-03T10:48:53.428Z</time>
      </trkpt>
      <trkpt lat="42.09022" lon="24.92279">
        <ele>216.942657</ele>
        <time>2022-03-03T10:48:56.448Z</time>
      </trkpt>
      <trkpt lat="42.09028" lon="24.92266">
        <ele>216.908286</ele>
        <time>2022-03-03T10:48:59.425Z</time>
      </trkpt>
      <trkpt lat="42.09033" lon="24.92253">
        <ele>216.875405</ele>
        <time>2022-03-03T10:49:02.444Z</time>
      </trkpt>
      <trkpt lat="42.09039" lon="24.92241">
        <ele>216.842969</ele>
        <time>2022-03-03T10:49:05.428Z</time>
      </trkpt>
      <trkpt lat="42.09044" lon="24.92229">
        <ele>216.813152</ele>
        <time>2022-03-03T10:49:08.439Z</time>
      </trkpt>
      <trkpt lat="42.0905" lon="24.92218">
        <ele>216.783865</ele>
        <time>2022-03-03T10:49:11.431Z</time>
      </trkpt>
      <trkpt lat="42.09055" lon="24.92207">
        <ele>216.754682</ele>
        <time>2022-03-03T10:49:14.476Z</time>
      </trkpt>
      <trkpt lat="42.0906" lon="24.92197">
        <ele>216.718527</ele>
        <time>2022-03-03T10:49:17.479Z</time>
      </trkpt>
      <trkpt lat="42.09067" lon="24.92184">
        <ele>216.495531</ele>
        <time>2022-03-03T10:49:21.440Z</time>
      </trkpt>
      <trkpt lat="42.09074" lon="24.92172">
        <ele>216.280548</ele>
        <time>2022-03-03T10:49:25.431Z</time>
      </trkpt>
      <trkpt lat="42.0908" lon="24.92161">
        <ele>216.091823</ele>
        <time>2022-03-03T10:49:28.468Z</time>
      </trkpt>
      <trkpt lat="42.09085" lon="24.9215">
        <ele>215.903085</ele>
        <time>2022-03-03T10:49:31.444Z</time>
      </trkpt>
      <trkpt lat="42.09091" lon="24.92138">
        <ele>215.70099</ele>
        <time>2022-03-03T10:49:34.453Z</time>
      </trkpt>
      <trkpt lat="42.09096" lon="24.92126">
        <ele>215.497684</ele>
        <time>2022-03-03T10:49:37.424Z</time>
      </trkpt>
      <trkpt lat="42.09102" lon="24.92113">
        <ele>215.295096</ele>
        <time>2022-03-03T10:49:40.453Z</time>
      </trkpt>
      <trkpt lat="42.09107" lon="24.92101">
        <ele>215.089972</ele>
        <time>2022-03-03T10:49:43.433Z</time>
      </trkpt>
      <trkpt lat="42.09114" lon="24.92089">
        <ele>214.878291</ele>
        <time>2022-03-03T10:49:46.479Z</time>
      </trkpt>
      <trkpt lat="42.0912" lon="24.92075">
        <ele>214.652517</ele>
        <time>2022-03-03T10:49:49.431Z</time>
      </trkpt>
      <trkpt lat="42.09126" lon="24.92064">
        <ele>214.452335</ele>
        <time>2022-03-03T10:49:52.478Z</time>
      </trkpt>
      <trkpt lat="42.09133" lon="24.92052">
        <ele>214.248668</ele>
        <time>2022-03-03T10:49:55.430Z</time>
      </trkpt>
      <trkpt lat="42.09138" lon="24.92041">
        <ele>214.051817</ele>
        <time>2022-03-03T10:49:58.421Z</time>
      </trkpt>
      <trkpt lat="42.09144" lon="24.92029">
        <ele>213.846965</ele>
        <time>2022-03-03T10:50:01.442Z</time>
      </trkpt>
      <trkpt lat="42.0915" lon="24.92017">
        <ele>213.643286</ele>
        <time>2022-03-03T10:50:04.441Z</time>
      </trkpt>
      <trkpt lat="42.09156" lon="24.92005">
        <ele>213.451423</ele>
        <time>2022-03-03T10:50:07.442Z</time>
      </trkpt>
      <trkpt lat="42.0916" lon="24.91995">
        <ele>213.291162</ele>
        <time>2022-03-03T10:50:10.432Z</time>
      </trkpt>
      <trkpt lat="42.09166" lon="24.91983">
        <ele>213.240475</ele>
        <time>2022-03-03T10:50:13.445Z</time>
      </trkpt>
      <trkpt lat="42.0917" lon="24.91972">
        <ele>213.190106</ele>
        <time>2022-03-03T10:50:16.433Z</time>
      </trkpt>
      <trkpt lat="42.09176" lon="24.9196">
        <ele>213.137292</ele>
        <time>2022-03-03T10:50:19.481Z</time>
      </trkpt>
      <trkpt lat="42.09182" lon="24.91949">
        <ele>213.085819</ele>
        <time>2022-03-03T10:50:22.463Z</time>
      </trkpt>
      <trkpt lat="42.09187" lon="24.91939">
        <ele>213.037068</ele>
        <time>2022-03-03T10:50:25.470Z</time>
      </trkpt>
      <trkpt lat="42.09192" lon="24.91928">
        <ele>212.989274</ele>
        <time>2022-03-03T10:50:28.435Z</time>
      </trkpt>
      <trkpt lat="42.09198" lon="24.91915">
        <ele>212.929825</ele>
        <time>2022-03-03T10:50:32.443Z</time>
      </trkpt>
      <trkpt lat="42.09204" lon="24.91904">
        <ele>212.874675</ele>
        <time>2022-03-03T10:50:35.463Z</time>
      </trkpt>
      <trkpt lat="42.09209" lon="24.91892">
        <ele>212.824587</ele>
        <time>2022-03-03T10:50:38.453Z</time>
      </trkpt>
      <trkpt lat="42.09214" lon="24.91882">
        <ele>212.776762</ele>
        <time>2022-03-03T10:50:41.435Z</time>
      </trkpt>
      <trkpt lat="42.09221" lon="24.91871">
        <ele>212.72377</ele>
        <time>2022-03-03T10:50:44.421Z</time>
      </trkpt>
      <trkpt lat="42.09226" lon="24.9186">
        <ele>212.672882</ele>
        <time>2022-03-03T10:50:47.434Z</time>
      </trkpt>
      <trkpt lat="42.09231" lon="24.91849">
        <ele>212.624044</ele>
        <time>2022-03-03T10:50:50.434Z</time>
      </trkpt>
      <trkpt lat="42.09236" lon="24.91838">
        <ele>212.575854</ele>
        <time>2022-03-03T10:50:53.428Z</time>
      </trkpt>
      <trkpt lat="42.09242" lon="24.91824">
        <ele>212.513962</ele>
        <time>2022-03-03T10:50:57.419Z</time>
      </trkpt>
      <trkpt lat="42.09248" lon="24.9181">
        <ele>212.452527</ele>
        <time>2022-03-03T10:51:01.428Z</time>
      </trkpt>
      <trkpt lat="42.09253" lon="24.918">
        <ele>212.405946</ele>
        <time>2022-03-03T10:51:04.433Z</time>
      </trkpt>
      <trkpt lat="42.09258" lon="24.91789">
        <ele>212.368027</ele>
        <time>2022-03-03T10:51:07.414Z</time>
      </trkpt>
      <trkpt lat="42.09263" lon="24.91779">
        <ele>212.368387</ele>
        <time>2022-03-03T10:51:10.432Z</time>
      </trkpt>
      <trkpt lat="42.0927" lon="24.91766">
        <ele>212.368835</ele>
        <time>2022-03-03T10:51:14.491Z</time>
      </trkpt>
      <trkpt lat="42.09277" lon="24.91754">
        <ele>212.36928</ele>
        <time>2022-03-03T10:51:18.441Z</time>
      </trkpt>
      <trkpt lat="42.09284" lon="24.91741">
        <ele>212.369754</ele>
        <time>2022-03-03T10:51:22.425Z</time>
      </trkpt>
      <trkpt lat="42.09289" lon="24.9173">
        <ele>212.37014</ele>
        <time>2022-03-03T10:51:25.471Z</time>
      </trkpt>
      <trkpt lat="42.09294" lon="24.91717">
        <ele>212.370551</ele>
        <time>2022-03-03T10:51:28.432Z</time>
      </trkpt>
      <trkpt lat="42.09298" lon="24.91707">
        <ele>212.370915</ele>
        <time>2022-03-03T10:51:31.423Z</time>
      </trkpt>
      <trkpt lat="42.09303" lon="24.91695">
        <ele>212.371297</ele>
        <time>2022-03-03T10:51:34.419Z</time>
      </trkpt>
      <trkpt lat="42.09308" lon="24.91684">
        <ele>212.371676</ele>
        <time>2022-03-03T10:51:37.427Z</time>
      </trkpt>
      <trkpt lat="42.09314" lon="24.91673">
        <ele>212.372078</ele>
        <time>2022-03-03T10:51:40.407Z</time>
      </trkpt>
      <trkpt lat="42.09319" lon="24.91661">
        <ele>212.372472</ele>
        <time>2022-03-03T10:51:43.412Z</time>
      </trkpt>
      <trkpt lat="42.09325" lon="24.91651">
        <ele>212.372852</ele>
        <time>2022-03-03T10:51:46.422Z</time>
      </trkpt>
      <trkpt lat="42.0933" lon="24.91639">
        <ele>212.37324</ele>
        <time>2022-03-03T10:51:49.458Z</time>
      </trkpt>
      <trkpt lat="42.09336" lon="24.91629">
        <ele>212.373612</ele>
        <time>2022-03-03T10:51:52.415Z</time>
      </trkpt>
      <trkpt lat="42.09341" lon="24.91618">
        <ele>212.373999</ele>
        <time>2022-03-03T10:51:55.429Z</time>
      </trkpt>
      <trkpt lat="42.09347" lon="24.91607">
        <ele>212.374377</ele>
        <time>2022-03-03T10:51:58.433Z</time>
      </trkpt>
      <trkpt lat="42.09352" lon="24.91597">
        <ele>212.374745</ele>
        <time>2022-03-03T10:52:01.435Z</time>
      </trkpt>
      <trkpt lat="42.09357" lon="24.91586">
        <ele>212.367109</ele>
        <time>2022-03-03T10:52:04.464Z</time>
      </trkpt>
      <trkpt lat="42.09362" lon="24.91575">
        <ele>212.343182</ele>
        <time>2022-03-03T10:52:07.424Z</time>
      </trkpt>
      <trkpt lat="42.09367" lon="24.91564">
        <ele>212.321217</ele>
        <time>2022-03-03T10:52:10.451Z</time>
      </trkpt>
      <trkpt lat="42.09372" lon="24.91554">
        <ele>212.298101</ele>
        <time>2022-03-03T10:52:13.425Z</time>
      </trkpt>
      <trkpt lat="42.09377" lon="24.91543">
        <ele>212.275464</ele>
        <time>2022-03-03T10:52:16.408Z</time>
      </trkpt>
      <trkpt lat="42.09382" lon="24.91532">
        <ele>212.252241</ele>
        <time>2022-03-03T10:52:19.418Z</time>
      </trkpt>
      <trkpt lat="42.09388" lon="24.91522">
        <ele>212.228626</ele>
        <time>2022-03-03T10:52:22.430Z</time>
      </trkpt>
      <trkpt lat="42.09394" lon="24.91511">
        <ele>212.205729</ele>
        <time>2022-03-03T10:52:25.424Z</time>
      </trkpt>
      <trkpt lat="42.09398" lon="24.91501">
        <ele>212.183423</ele>
        <time>2022-03-03T10:52:28.423Z</time>
      </trkpt>
      <trkpt lat="42.09404" lon="24.9149">
        <ele>212.160526</ele>
        <time>2022-03-03T10:52:31.421Z</time>
      </trkpt>
      <trkpt lat="42.09409" lon="24.91479">
        <ele>212.136868</ele>
        <time>2022-03-03T10:52:34.440Z</time>
      </trkpt>
      <trkpt lat="42.09414" lon="24.91469">
        <ele>212.114097</ele>
        <time>2022-03-03T10:52:37.407Z</time>
      </trkpt>
      <trkpt lat="42.0942" lon="24.91458">
        <ele>212.089885</ele>
        <time>2022-03-03T10:52:40.401Z</time>
      </trkpt>
      <trkpt lat="42.09425" lon="24.91447">
        <ele>212.065809</ele>
        <time>2022-03-03T10:52:43.450Z</time>
      </trkpt>
      <trkpt lat="42.09431" lon="24.91436">
        <ele>212.043188</ele>
        <time>2022-03-03T10:52:46.413Z</time>
      </trkpt>
      <trkpt lat="42.09436" lon="24.91426">
        <ele>212.021151</ele>
        <time>2022-03-03T10:52:49.423Z</time>
      </trkpt>
      <trkpt lat="42.09441" lon="24.91416">
        <ele>211.998646</ele>
        <time>2022-03-03T10:52:52.422Z</time>
      </trkpt>
      <trkpt lat="42.09446" lon="24.91405">
        <ele>211.974988</ele>
        <time>2022-03-03T10:52:55.430Z</time>
      </trkpt>
      <trkpt lat="42.09452" lon="24.91391">
        <ele>211.94609</ele>
        <time>2022-03-03T10:52:59.432Z</time>
      </trkpt>
      <trkpt lat="42.09458" lon="24.91378">
        <ele>211.86533</ele>
        <time>2022-03-03T10:53:03.439Z</time>
      </trkpt>
      <trkpt lat="42.09465" lon="24.91365">
        <ele>211.759609</ele>
        <time>2022-03-03T10:53:07.419Z</time>
      </trkpt>
      <trkpt lat="42.09472" lon="24.91353">
        <ele>211.658656</ele>
        <time>2022-03-03T10:53:11.426Z</time>
      </trkpt>
      <trkpt lat="42.09478" lon="24.91341">
        <ele>211.563007</ele>
        <time>2022-03-03T10:53:15.436Z</time>
      </trkpt>
      <trkpt lat="42.09484" lon="24.91328">
        <ele>211.463967</ele>
        <time>2022-03-03T10:53:19.415Z</time>
      </trkpt>
      <trkpt lat="42.09491" lon="24.91316">
        <ele>211.365548</ele>
        <time>2022-03-03T10:53:23.448Z</time>
      </trkpt>
      <trkpt lat="42.09496" lon="24.91303">
        <ele>211.264738</ele>
        <time>2022-03-03T10:53:27.451Z</time>
      </trkpt>
      <trkpt lat="42.09501" lon="24.91292">
        <ele>211.1799</ele>
        <time>2022-03-03T10:53:30.434Z</time>
      </trkpt>
      <trkpt lat="42.09506" lon="24.91281">
        <ele>211.096722</ele>
        <time>2022-03-03T10:53:33.427Z</time>
      </trkpt>
      <trkpt lat="42.09512" lon="24.91267">
        <ele>210.98977</ele>
        <time>2022-03-03T10:53:37.430Z</time>
      </trkpt>
      <trkpt lat="42.09516" lon="24.91256">
        <ele>210.907102</ele>
        <time>2022-03-03T10:53:40.427Z</time>
      </trkpt>
      <trkpt lat="42.0952" lon="24.91245">
        <ele>210.824876</ele>
        <time>2022-03-03T10:53:43.469Z</time>
      </trkpt>
      <trkpt lat="42.09525" lon="24.91233">
        <ele>210.740277</ele>
        <time>2022-03-03T10:53:46.418Z</time>
      </trkpt>
      <trkpt lat="42.09528" lon="24.91222">
        <ele>210.655534</ele>
        <time>2022-03-03T10:53:49.413Z</time>
      </trkpt>
      <trkpt lat="42.09532" lon="24.91209">
        <ele>210.566088</ele>
        <time>2022-03-03T10:53:52.427Z</time>
      </trkpt>
      <trkpt lat="42.09537" lon="24.91197">
        <ele>210.477542</ele>
        <time>2022-03-03T10:53:55.421Z</time>
      </trkpt>
      <trkpt lat="42.09541" lon="24.91185">
        <ele>210.388944</ele>
        <time>2022-03-03T10:53:58.414Z</time>
      </trkpt>
      <trkpt lat="42.09544" lon="24.91173">
        <ele>210.381037</ele>
        <time>2022-03-03T10:54:01.405Z</time>
      </trkpt>
      <trkpt lat="42.09547" lon="24.9116">
        <ele>210.50073</ele>
        <time>2022-03-03T10:54:04.428Z</time>
      </trkpt>
      <trkpt lat="42.0955" lon="24.91145">
        <ele>210.646538</ele>
        <time>2022-03-03T10:54:08.444Z</time>
      </trkpt>
      <trkpt lat="42.09554" lon="24.91133">
        <ele>210.766154</ele>
        <time>2022-03-03T10:54:11.479Z</time>
      </trkpt>
      <trkpt lat="42.09557" lon="24.9112">
        <ele>210.890979</ele>
        <time>2022-03-03T10:54:14.429Z</time>
      </trkpt>
      <trkpt lat="42.0956" lon="24.91107">
        <ele>211.012737</ele>
        <time>2022-03-03T10:54:17.435Z</time>
      </trkpt>
      <trkpt lat="42.09563" lon="24.91092">
        <ele>211.155089</ele>
        <time>2022-03-03T10:54:21.434Z</time>
      </trkpt>
      <trkpt lat="42.09566" lon="24.91077">
        <ele>211.299134</ele>
        <time>2022-03-03T10:54:25.419Z</time>
      </trkpt>
      <trkpt lat="42.09569" lon="24.91062">
        <ele>211.445356</ele>
        <time>2022-03-03T10:54:29.436Z</time>
      </trkpt>
      <trkpt lat="42.09572" lon="24.91046">
        <ele>211.59236</ele>
        <time>2022-03-03T10:54:33.426Z</time>
      </trkpt>
      <trkpt lat="42.09575" lon="24.91032">
        <ele>211.732069</ele>
        <time>2022-03-03T10:54:37.418Z</time>
      </trkpt>
      <trkpt lat="42.09578" lon="24.9102">
        <ele>211.846453</ele>
        <time>2022-03-03T10:54:40.450Z</time>
      </trkpt>
      <trkpt lat="42.0958" lon="24.91007">
        <ele>211.960781</ele>
        <time>2022-03-03T10:54:43.419Z</time>
      </trkpt>
      <trkpt lat="42.09582" lon="24.90995">
        <ele>212.075109</ele>
        <time>2022-03-03T10:54:46.415Z</time>
      </trkpt>
      <trkpt lat="42.09585" lon="24.90983">
        <ele>212.195971</ele>
        <time>2022-03-03T10:54:49.427Z</time>
      </trkpt>
      <trkpt lat="42.09587" lon="24.9097">
        <ele>212.312122</ele>
        <time>2022-03-03T10:54:52.430Z</time>
      </trkpt>
      <trkpt lat="42.09589" lon="24.90959">
        <ele>212.424086</ele>
        <time>2022-03-03T10:54:55.416Z</time>
      </trkpt>
      <trkpt lat="42.09593" lon="24.90946">
        <ele>212.549781</ele>
        <time>2022-03-03T10:54:58.421Z</time>
      </trkpt>
      <trkpt lat="42.09595" lon="24.90934">
        <ele>212.650357</ele>
        <time>2022-03-03T10:55:01.430Z</time>
      </trkpt>
      <trkpt lat="42.09598" lon="24.90922">
        <ele>212.751091</ele>
        <time>2022-03-03T10:55:04.412Z</time>
      </trkpt>
      <trkpt lat="42.096" lon="24.9091">
        <ele>212.852475</ele>
        <time>2022-03-03T10:55:07.413Z</time>
      </trkpt>
      <trkpt lat="42.09603" lon="24.90898">
        <ele>212.954306</ele>
        <time>2022-03-03T10:55:10.439Z</time>
      </trkpt>
      <trkpt lat="42.09606" lon="24.90886">
        <ele>213.052629</ele>
        <time>2022-03-03T10:55:13.424Z</time>
      </trkpt>
      <trkpt lat="42.09609" lon="24.90874">
        <ele>213.154913</ele>
        <time>2022-03-03T10:55:16.417Z</time>
      </trkpt>
      <trkpt lat="42.09612" lon="24.90859">
        <ele>213.285522</ele>
        <time>2022-03-03T10:55:20.448Z</time>
      </trkpt>
      <trkpt lat="42.09614" lon="24.90845">
        <ele>213.399938</ele>
        <time>2022-03-03T10:55:23.441Z</time>
      </trkpt>
      <trkpt lat="42.09616" lon="24.90832">
        <ele>213.511036</ele>
        <time>2022-03-03T10:55:26.416Z</time>
      </trkpt>
      <trkpt lat="42.09618" lon="24.90818">
        <ele>213.620906</ele>
        <time>2022-03-03T10:55:29.451Z</time>
      </trkpt>
      <trkpt lat="42.09621" lon="24.90806">
        <ele>213.724924</ele>
        <time>2022-03-03T10:55:32.425Z</time>
      </trkpt>
      <trkpt lat="42.09623" lon="24.90794">
        <ele>213.823943</ele>
        <time>2022-03-03T10:55:35.458Z</time>
      </trkpt>
      <trkpt lat="42.09626" lon="24.9078">
        <ele>213.937247</ele>
        <time>2022-03-03T10:55:38.446Z</time>
      </trkpt>
      <trkpt lat="42.09629" lon="24.90767">
        <ele>214.053353</ele>
        <time>2022-03-03T10:55:41.438Z</time>
      </trkpt>
      <trkpt lat="42.09632" lon="24.90753">
        <ele>214.172399</ele>
        <time>2022-03-03T10:55:44.412Z</time>
      </trkpt>
      <trkpt lat="42.09635" lon="24.90739">
        <ele>214.285582</ele>
        <time>2022-03-03T10:55:47.479Z</time>
      </trkpt>
      <trkpt lat="42.09638" lon="24.90726">
        <ele>214.39594</ele>
        <time>2022-03-03T10:55:50.441Z</time>
      </trkpt>
      <trkpt lat="42.09642" lon="24.90713">
        <ele>214.512112</ele>
        <time>2022-03-03T10:55:53.474Z</time>
      </trkpt>
      <trkpt lat="42.09646" lon="24.90699">
        <ele>214.568125</ele>
        <time>2022-03-03T10:55:56.430Z</time>
      </trkpt>
      <trkpt lat="42.09651" lon="24.90687">
        <ele>214.61557</ele>
        <time>2022-03-03T10:55:59.443Z</time>
      </trkpt>
      <trkpt lat="42.09657" lon="24.90675">
        <ele>214.665944</ele>
        <time>2022-03-03T10:56:02.440Z</time>
      </trkpt>
      <trkpt lat="42.09662" lon="24.90662">
        <ele>214.715035</ele>
        <time>2022-03-03T10:56:05.435Z</time>
      </trkpt>
      <trkpt lat="42.09667" lon="24.9065">
        <ele>214.762482</ele>
        <time>2022-03-03T10:56:08.444Z</time>
      </trkpt>
      <trkpt lat="42.09673" lon="24.90637">
        <ele>214.814868</ele>
        <time>2022-03-03T10:56:11.423Z</time>
      </trkpt>
      <trkpt lat="42.09678" lon="24.90624">
        <ele>214.865081</ele>
        <time>2022-03-03T10:56:14.408Z</time>
      </trkpt>
      <trkpt lat="42.09683" lon="24.90611">
        <ele>214.914851</ele>
        <time>2022-03-03T10:56:17.453Z</time>
      </trkpt>
      <trkpt lat="42.09688" lon="24.906">
        <ele>214.960511</ele>
        <time>2022-03-03T10:56:20.443Z</time>
      </trkpt>
      <trkpt lat="42.09693" lon="24.90588">
        <ele>215.004836</ele>
        <time>2022-03-03T10:56:23.420Z</time>
      </trkpt>
      <trkpt lat="42.09697" lon="24.90575">
        <ele>215.054484</ele>
        <time>2022-03-03T10:56:26.457Z</time>
      </trkpt>
      <trkpt lat="42.09702" lon="24.90562">
        <ele>215.104697</ele>
        <time>2022-03-03T10:56:29.426Z</time>
      </trkpt>
      <trkpt lat="42.09708" lon="24.9055">
        <ele>215.153265</ele>
        <time>2022-03-03T10:56:32.421Z</time>
      </trkpt>
      <trkpt lat="42.09712" lon="24.90537">
        <ele>215.202604</ele>
        <time>2022-03-03T10:56:35.440Z</time>
      </trkpt>
      <trkpt lat="42.09718" lon="24.90524">
        <ele>215.253982</ele>
        <time>2022-03-03T10:56:38.439Z</time>
      </trkpt>
      <trkpt lat="42.09723" lon="24.90511">
        <ele>215.305183</ele>
        <time>2022-03-03T10:56:41.415Z</time>
      </trkpt>
      <trkpt lat="42.09727" lon="24.90498">
        <ele>215.344709</ele>
        <time>2022-03-03T10:56:44.425Z</time>
      </trkpt>
      <trkpt lat="42.09731" lon="24.90484">
        <ele>215.063157</ele>
        <time>2022-03-03T10:56:47.435Z</time>
      </trkpt>
      <trkpt lat="42.09736" lon="24.90471">
        <ele>214.79917</ele>
        <time>2022-03-03T10:56:50.426Z</time>
      </trkpt>
      <trkpt lat="42.09741" lon="24.90457">
        <ele>214.521945</ele>
        <time>2022-03-03T10:56:53.451Z</time>
      </trkpt>
      <trkpt lat="42.09746" lon="24.90445">
        <ele>214.262712</ele>
        <time>2022-03-03T10:56:56.430Z</time>
      </trkpt>
      <trkpt lat="42.0975" lon="24.9043">
        <ele>213.976656</ele>
        <time>2022-03-03T10:56:59.431Z</time>
      </trkpt>
      <trkpt lat="42.09754" lon="24.90417">
        <ele>213.724185</ele>
        <time>2022-03-03T10:57:02.446Z</time>
      </trkpt>
      <trkpt lat="42.09757" lon="24.90403">
        <ele>213.450473</ele>
        <time>2022-03-03T10:57:05.444Z</time>
      </trkpt>
      <trkpt lat="42.0976" lon="24.9039">
        <ele>213.198848</ele>
        <time>2022-03-03T10:57:08.447Z</time>
      </trkpt>
      <trkpt lat="42.09764" lon="24.90377">
        <ele>212.940382</ele>
        <time>2022-03-03T10:57:11.441Z</time>
      </trkpt>
      <trkpt lat="42.09767" lon="24.90362">
        <ele>212.662992</ele>
        <time>2022-03-03T10:57:14.422Z</time>
      </trkpt>
      <trkpt lat="42.09771" lon="24.90349">
        <ele>212.400275</ele>
        <time>2022-03-03T10:57:17.422Z</time>
      </trkpt>
      <trkpt lat="42.09776" lon="24.90335">
        <ele>212.1191</ele>
        <time>2022-03-03T10:57:20.438Z</time>
      </trkpt>
      <trkpt lat="42.09781" lon="24.90321">
        <ele>211.844754</ele>
        <time>2022-03-03T10:57:23.458Z</time>
      </trkpt>
      <trkpt lat="42.09785" lon="24.90307">
        <ele>211.574887</ele>
        <time>2022-03-03T10:57:26.441Z</time>
      </trkpt>
      <trkpt lat="42.09789" lon="24.90294">
        <ele>211.309524</ele>
        <time>2022-03-03T10:57:29.445Z</time>
      </trkpt>
      <trkpt lat="42.09794" lon="24.9028">
        <ele>211.026333</ele>
        <time>2022-03-03T10:57:32.443Z</time>
      </trkpt>
      <trkpt lat="42.09797" lon="24.90264">
        <ele>210.971993</ele>
        <time>2022-03-03T10:57:35.453Z</time>
      </trkpt>
      <trkpt lat="42.09801" lon="24.90249">
        <ele>211.040713</ele>
        <time>2022-03-03T10:57:38.436Z</time>
      </trkpt>
      <trkpt lat="42.09806" lon="24.90234">
        <ele>211.110753</ele>
        <time>2022-03-03T10:57:41.429Z</time>
      </trkpt>
      <trkpt lat="42.0981" lon="24.9022">
        <ele>211.173435</ele>
        <time>2022-03-03T10:57:44.415Z</time>
      </trkpt>
      <trkpt lat="42.09814" lon="24.90209">
        <ele>211.228642</ele>
        <time>2022-03-03T10:57:47.468Z</time>
      </trkpt>
      <trkpt lat="42.09817" lon="24.90196">
        <ele>211.286398</ele>
        <time>2022-03-03T10:57:50.430Z</time>
      </trkpt>
      <trkpt lat="42.0982" lon="24.90183">
        <ele>211.344214</ele>
        <time>2022-03-03T10:57:53.447Z</time>
      </trkpt>
      <trkpt lat="42.09823" lon="24.90168">
        <ele>211.408967</ele>
        <time>2022-03-03T10:57:56.435Z</time>
      </trkpt>
      <trkpt lat="42.09827" lon="24.90154">
        <ele>211.475988</ele>
        <time>2022-03-03T10:57:59.427Z</time>
      </trkpt>
      <trkpt lat="42.09831" lon="24.90141">
        <ele>211.535703</ele>
        <time>2022-03-03T10:58:02.458Z</time>
      </trkpt>
      <trkpt lat="42.09834" lon="24.90127">
        <ele>211.595897</ele>
        <time>2022-03-03T10:58:05.433Z</time>
      </trkpt>
      <trkpt lat="42.09836" lon="24.90113">
        <ele>211.65791</ele>
        <time>2022-03-03T10:58:08.422Z</time>
      </trkpt>
      <trkpt lat="42.0984" lon="24.90101">
        <ele>211.714818</ele>
        <time>2022-03-03T10:58:11.445Z</time>
      </trkpt>
      <trkpt lat="42.09845" lon="24.90088">
        <ele>211.776056</ele>
        <time>2022-03-03T10:58:14.415Z</time>
      </trkpt>
      <trkpt lat="42.09849" lon="24.90074">
        <ele>211.841261</ele>
        <time>2022-03-03T10:58:17.427Z</time>
      </trkpt>
      <trkpt lat="42.09852" lon="24.9006">
        <ele>211.902948</ele>
        <time>2022-03-03T10:58:20.446Z</time>
      </trkpt>
      <trkpt lat="42.09855" lon="24.90046">
        <ele>211.934746</ele>
        <time>2022-03-03T10:58:23.434Z</time>
      </trkpt>
      <trkpt lat="42.09858" lon="24.90031">
        <ele>211.604569</ele>
        <time>2022-03-03T10:58:26.429Z</time>
      </trkpt>
      <trkpt lat="42.09862" lon="24.90016">
        <ele>211.251571</ele>
        <time>2022-03-03T10:58:30.475Z</time>
      </trkpt>
      <trkpt lat="42.09864" lon="24.90003">
        <ele>210.950798</ele>
        <time>2022-03-03T10:58:33.426Z</time>
      </trkpt>
      <trkpt lat="42.09867" lon="24.89989">
        <ele>210.630699</ele>
        <time>2022-03-03T10:58:36.417Z</time>
      </trkpt>
      <trkpt lat="42.09871" lon="24.89975">
        <ele>210.292699</ele>
        <time>2022-03-03T10:58:39.423Z</time>
      </trkpt>
      <trkpt lat="42.09874" lon="24.8996">
        <ele>209.944389</ele>
        <time>2022-03-03T10:58:42.445Z</time>
      </trkpt>
      <trkpt lat="42.09876" lon="24.89946">
        <ele>209.62429</ele>
        <time>2022-03-03T10:58:45.434Z</time>
      </trkpt>
      <trkpt lat="42.0988" lon="24.89933">
        <ele>209.332103</ele>
        <time>2022-03-03T10:58:48.440Z</time>
      </trkpt>
      <trkpt lat="42.09884" lon="24.89919">
        <ele>208.98665</ele>
        <time>2022-03-03T10:58:52.433Z</time>
      </trkpt>
      <trkpt lat="42.09887" lon="24.89906">
        <ele>208.701582</ele>
        <time>2022-03-03T10:58:55.419Z</time>
      </trkpt>
      <trkpt lat="42.0989" lon="24.89895">
        <ele>208.426032</ele>
        <time>2022-03-03T10:58:58.490Z</time>
      </trkpt>
      <trkpt lat="42.09893" lon="24.89882">
        <ele>208.128549</ele>
        <time>2022-03-03T10:59:01.446Z</time>
      </trkpt>
      <trkpt lat="42.09896" lon="24.89868">
        <ele>207.802372</ele>
        <time>2022-03-03T10:59:04.426Z</time>
      </trkpt>
      <trkpt lat="42.09899" lon="24.89856">
        <ele>207.514357</ele>
        <time>2022-03-03T10:59:07.442Z</time>
      </trkpt>
      <trkpt lat="42.09903" lon="24.89842">
        <ele>207.192032</ele>
        <time>2022-03-03T10:59:11.444Z</time>
      </trkpt>
      <trkpt lat="42.09907" lon="24.89829">
        <ele>206.878727</ele>
        <time>2022-03-03T10:59:15.424Z</time>
      </trkpt>
      <trkpt lat="42.09911" lon="24.89816">
        <ele>206.581532</ele>
        <time>2022-03-03T10:59:19.433Z</time>
      </trkpt>
      <trkpt lat="42.09915" lon="24.89802">
        <ele>206.540013</ele>
        <time>2022-03-03T10:59:23.437Z</time>
      </trkpt>
      <trkpt lat="42.09919" lon="24.89791">
        <ele>206.506413</ele>
        <time>2022-03-03T10:59:26.431Z</time>
      </trkpt>
      <trkpt lat="42.09922" lon="24.89779">
        <ele>206.470984</ele>
        <time>2022-03-03T10:59:29.430Z</time>
      </trkpt>
      <trkpt lat="42.09925" lon="24.89764">
        <ele>206.427293</ele>
        <time>2022-03-03T10:59:33.454Z</time>
      </trkpt>
      <trkpt lat="42.09929" lon="24.89751">
        <ele>206.387684</ele>
        <time>2022-03-03T10:59:37.417Z</time>
      </trkpt>
      <trkpt lat="42.09932" lon="24.89737">
        <ele>206.348124</ele>
        <time>2022-03-03T10:59:41.430Z</time>
      </trkpt>
      <trkpt lat="42.09934" lon="24.89724">
        <ele>206.311122</ele>
        <time>2022-03-03T10:59:45.449Z</time>
      </trkpt>
      <trkpt lat="42.09937" lon="24.8971">
        <ele>206.268898</ele>
        <time>2022-03-03T10:59:49.453Z</time>
      </trkpt>
      <trkpt lat="42.0994" lon="24.89694">
        <ele>206.225112</ele>
        <time>2022-03-03T10:59:53.438Z</time>
      </trkpt>
      <trkpt lat="42.09944" lon="24.89679">
        <ele>206.180774</ele>
        <time>2022-03-03T10:59:57.427Z</time>
      </trkpt>
      <trkpt lat="42.09947" lon="24.89665">
        <ele>206.137843</ele>
        <time>2022-03-03T11:00:01.444Z</time>
      </trkpt>
      <trkpt lat="42.0995" lon="24.8965">
        <ele>206.095065</ele>
        <time>2022-03-03T11:00:05.429Z</time>
      </trkpt>
      <trkpt lat="42.09953" lon="24.89635">
        <ele>206.051398</ele>
        <time>2022-03-03T11:00:09.475Z</time>
      </trkpt>
      <trkpt lat="42.09956" lon="24.89623">
        <ele>206.017386</ele>
        <time>2022-03-03T11:00:12.431Z</time>
      </trkpt>
      <trkpt lat="42.09958" lon="24.89607">
        <ele>205.972767</ele>
        <time>2022-03-03T11:00:16.433Z</time>
      </trkpt>
      <trkpt lat="42.0996" lon="24.89595">
        <ele>205.937847</ele>
        <time>2022-03-03T11:00:19.438Z</time>
      </trkpt>
      <trkpt lat="42.09963" lon="24.89583">
        <ele>205.912524</ele>
        <time>2022-03-03T11:00:22.406Z</time>
      </trkpt>
      <trkpt lat="42.09965" lon="24.89567">
        <ele>205.949605</ele>
        <time>2022-03-03T11:00:26.435Z</time>
      </trkpt>
      <trkpt lat="42.09967" lon="24.89555">
        <ele>205.97916</ele>
        <time>2022-03-03T11:00:29.439Z</time>
      </trkpt>
      <trkpt lat="42.0997" lon="24.89539">
        <ele>206.016273</ele>
        <time>2022-03-03T11:00:33.431Z</time>
      </trkpt>
      <trkpt lat="42.09973" lon="24.89527">
        <ele>206.044364</ele>
        <time>2022-03-03T11:00:36.435Z</time>
      </trkpt>
      <trkpt lat="42.09976" lon="24.89512">
        <ele>206.07965</ele>
        <time>2022-03-03T11:00:40.427Z</time>
      </trkpt>
      <trkpt lat="42.09979" lon="24.89498">
        <ele>206.11284</ele>
        <time>2022-03-03T11:00:44.430Z</time>
      </trkpt>
      <trkpt lat="42.09981" lon="24.89483">
        <ele>206.147901</ele>
        <time>2022-03-03T11:00:48.463Z</time>
      </trkpt>
      <trkpt lat="42.09982" lon="24.89471">
        <ele>206.175757</ele>
        <time>2022-03-03T11:00:51.424Z</time>
      </trkpt>
      <trkpt lat="42.09984" lon="24.89456">
        <ele>206.211044</ele>
        <time>2022-03-03T11:00:55.441Z</time>
      </trkpt>
      <trkpt lat="42.09986" lon="24.89444">
        <ele>206.238784</ele>
        <time>2022-03-03T11:00:58.443Z</time>
      </trkpt>
      <trkpt lat="42.09988" lon="24.8943">
        <ele>206.271175</ele>
        <time>2022-03-03T11:01:01.426Z</time>
      </trkpt>
      <trkpt lat="42.09991" lon="24.89417">
        <ele>206.303101</ele>
        <time>2022-03-03T11:01:04.428Z</time>
      </trkpt>
      <trkpt lat="42.09994" lon="24.89403">
        <ele>206.334967</ele>
        <time>2022-03-03T11:01:07.471Z</time>
      </trkpt>
      <trkpt lat="42.09997" lon="24.89389">
        <ele>206.368743</ele>
        <time>2022-03-03T11:01:10.456Z</time>
      </trkpt>
      <trkpt lat="42.1" lon="24.89375">
        <ele>206.40342</ele>
        <time>2022-03-03T11:01:13.431Z</time>
      </trkpt>
      <trkpt lat="42.10002" lon="24.8936">
        <ele>206.436534</ele>
        <time>2022-03-03T11:01:16.442Z</time>
      </trkpt>
      <trkpt lat="42.10005" lon="24.89346">
        <ele>206.435457</ele>
        <time>2022-03-03T11:01:19.432Z</time>
      </trkpt>
      <trkpt lat="42.10007" lon="24.89332">
        <ele>206.303576</ele>
        <time>2022-03-03T11:01:22.428Z</time>
      </trkpt>
      <trkpt lat="42.1001" lon="24.89319">
        <ele>206.177013</ele>
        <time>2022-03-03T11:01:25.450Z</time>
      </trkpt>
      <trkpt lat="42.10013" lon="24.89305">
        <ele>206.051839</ele>
        <time>2022-03-03T11:01:28.430Z</time>
      </trkpt>
      <trkpt lat="42.10015" lon="24.89292">
        <ele>205.929</ele>
        <time>2022-03-03T11:01:31.426Z</time>
      </trkpt>
      <trkpt lat="42.10018" lon="24.89279">
        <ele>205.803538</ele>
        <time>2022-03-03T11:01:34.427Z</time>
      </trkpt>
      <trkpt lat="42.1002" lon="24.89267">
        <ele>205.693244</ele>
        <time>2022-03-03T11:01:37.435Z</time>
      </trkpt>
      <trkpt lat="42.10023" lon="24.89252">
        <ele>205.554944</ele>
        <time>2022-03-03T11:01:41.446Z</time>
      </trkpt>
      <trkpt lat="42.10026" lon="24.89237">
        <ele>205.418662</ele>
        <time>2022-03-03T11:01:45.459Z</time>
      </trkpt>
      <trkpt lat="42.10028" lon="24.89222">
        <ele>205.2754</ele>
        <time>2022-03-03T11:01:49.438Z</time>
      </trkpt>
      <trkpt lat="42.10031" lon="24.8921">
        <ele>205.164409</ele>
        <time>2022-03-03T11:01:52.426Z</time>
      </trkpt>
      <trkpt lat="42.10034" lon="24.89195">
        <ele>205.022809</ele>
        <time>2022-03-03T11:01:56.427Z</time>
      </trkpt>
      <trkpt lat="42.10036" lon="24.89183">
        <ele>204.913977</ele>
        <time>2022-03-03T11:01:59.432Z</time>
      </trkpt>
      <trkpt lat="42.10039" lon="24.89171">
        <ele>204.803396</ele>
        <time>2022-03-03T11:02:02.427Z</time>
      </trkpt>
      <trkpt lat="42.10042" lon="24.89156">
        <ele>204.659517</ele>
        <time>2022-03-03T11:02:06.442Z</time>
      </trkpt>
      <trkpt lat="42.10044" lon="24.89141">
        <ele>204.5243</ele>
        <time>2022-03-03T11:02:10.448Z</time>
      </trkpt>
      <trkpt lat="42.10046" lon="24.89126">
        <ele>204.386557</ele>
        <time>2022-03-03T11:02:14.466Z</time>
      </trkpt>
      <trkpt lat="42.10049" lon="24.89112">
        <ele>204.293138</ele>
        <time>2022-03-03T11:02:18.429Z</time>
      </trkpt>
      <trkpt lat="42.10051" lon="24.89098">
        <ele>204.382671</ele>
        <time>2022-03-03T11:02:22.416Z</time>
      </trkpt>
      <trkpt lat="42.10054" lon="24.89085">
        <ele>204.468087</ele>
        <time>2022-03-03T11:02:26.431Z</time>
      </trkpt>
      <trkpt lat="42.10056" lon="24.89073">
        <ele>204.546998</ele>
        <time>2022-03-03T11:02:30.439Z</time>
      </trkpt>
      <trkpt lat="42.10058" lon="24.89058">
        <ele>204.642848</ele>
        <time>2022-03-03T11:02:35.466Z</time>
      </trkpt>
      <trkpt lat="42.10059" lon="24.89045">
        <ele>204.726003</ele>
        <time>2022-03-03T11:02:39.442Z</time>
      </trkpt>
      <trkpt lat="42.10059" lon="24.8903">
        <ele>204.818439</ele>
        <time>2022-03-03T11:02:43.434Z</time>
      </trkpt>
      <trkpt lat="42.10059" lon="24.89015">
        <ele>204.919147</ele>
        <time>2022-03-03T11:02:47.433Z</time>
      </trkpt>
      <trkpt lat="42.10058" lon="24.89002">
        <ele>204.998925</ele>
        <time>2022-03-03T11:02:50.431Z</time>
      </trkpt>
      <trkpt lat="42.10058" lon="24.88986">
        <ele>205.098974</ele>
        <time>2022-03-03T11:02:54.471Z</time>
      </trkpt>
      <trkpt lat="42.10057" lon="24.88972">
        <ele>205.191588</ele>
        <time>2022-03-03T11:02:58.430Z</time>
      </trkpt>
      <trkpt lat="42.10056" lon="24.88958">
        <ele>205.281255</ele>
        <time>2022-03-03T11:03:02.446Z</time>
      </trkpt>
      <trkpt lat="42.10055" lon="24.88944">
        <ele>205.368485</ele>
        <time>2022-03-03T11:03:06.427Z</time>
      </trkpt>
      <trkpt lat="42.10054" lon="24.88929">
        <ele>205.46264</ele>
        <time>2022-03-03T11:03:10.451Z</time>
      </trkpt>
      <trkpt lat="42.10053" lon="24.88913">
        <ele>205.562204</ele>
        <time>2022-03-03T11:03:14.443Z</time>
      </trkpt>
      <trkpt lat="42.10052" lon="24.88898">
        <ele>205.660854</ele>
        <time>2022-03-03T11:03:18.436Z</time>
      </trkpt>
      <trkpt lat="42.10051" lon="24.88882">
        <ele>205.759272</ele>
        <time>2022-03-03T11:03:22.485Z</time>
      </trkpt>
      <trkpt lat="42.1005" lon="24.88868">
        <ele>205.846501</ele>
        <time>2022-03-03T11:03:26.430Z</time>
      </trkpt>
      <trkpt lat="42.10049" lon="24.88853">
        <ele>205.926018</ele>
        <time>2022-03-03T11:03:30.450Z</time>
      </trkpt>
      <trkpt lat="42.10048" lon="24.8884">
        <ele>205.990004</ele>
        <time>2022-03-03T11:03:33.524Z</time>
      </trkpt>
      <trkpt lat="42.10047" lon="24.88828">
        <ele>206.056385</ele>
        <time>2022-03-03T11:03:36.442Z</time>
      </trkpt>
      <trkpt lat="42.10046" lon="24.88815">
        <ele>206.123029</ele>
        <time>2022-03-03T11:03:39.434Z</time>
      </trkpt>
      <trkpt lat="42.10045" lon="24.88802">
        <ele>206.192561</ele>
        <time>2022-03-03T11:03:42.447Z</time>
      </trkpt>
      <trkpt lat="42.10044" lon="24.88789">
        <ele>206.26255</ele>
        <time>2022-03-03T11:03:45.429Z</time>
      </trkpt>
      <trkpt lat="42.10043" lon="24.88775">
        <ele>206.335997</ele>
        <time>2022-03-03T11:03:48.446Z</time>
      </trkpt>
      <trkpt lat="42.10041" lon="24.88763">
        <ele>206.403594</ele>
        <time>2022-03-03T11:03:51.444Z</time>
      </trkpt>
      <trkpt lat="42.1004" lon="24.88747">
        <ele>206.484555</ele>
        <time>2022-03-03T11:03:55.435Z</time>
      </trkpt>
      <trkpt lat="42.10039" lon="24.88733">
        <ele>206.561381</ele>
        <time>2022-03-03T11:03:59.434Z</time>
      </trkpt>
      <trkpt lat="42.10038" lon="24.88718">
        <ele>206.640441</ele>
        <time>2022-03-03T11:04:03.426Z</time>
      </trkpt>
      <trkpt lat="42.10037" lon="24.88703">
        <ele>206.721311</ele>
        <time>2022-03-03T11:04:07.440Z</time>
      </trkpt>
      <trkpt lat="42.10035" lon="24.88688">
        <ele>206.799757</ele>
        <time>2022-03-03T11:04:11.437Z</time>
      </trkpt>
      <trkpt lat="42.10034" lon="24.88676">
        <ele>206.865943</ele>
        <time>2022-03-03T11:04:14.433Z</time>
      </trkpt>
      <trkpt lat="42.10033" lon="24.88664">
        <ele>206.929625</ele>
        <time>2022-03-03T11:04:17.451Z</time>
      </trkpt>
      <trkpt lat="42.10032" lon="24.88651">
        <ele>206.994358</ele>
        <time>2022-03-03T11:04:20.439Z</time>
      </trkpt>
      <trkpt lat="42.10031" lon="24.88636">
        <ele>207.076985</ele>
        <time>2022-03-03T11:04:24.424Z</time>
      </trkpt>
      <trkpt lat="42.10029" lon="24.8862">
        <ele>206.987517</ele>
        <time>2022-03-03T11:04:28.446Z</time>
      </trkpt>
      <trkpt lat="42.10028" lon="24.88608">
        <ele>206.890545</ele>
        <time>2022-03-03T11:04:31.446Z</time>
      </trkpt>
      <trkpt lat="42.10027" lon="24.88593">
        <ele>206.765504</ele>
        <time>2022-03-03T11:04:35.450Z</time>
      </trkpt>
      <trkpt lat="42.10026" lon="24.8858">
        <ele>206.663489</ele>
        <time>2022-03-03T11:04:38.432Z</time>
      </trkpt>
      <trkpt lat="42.10025" lon="24.88568">
        <ele>206.560808</ele>
        <time>2022-03-03T11:04:41.458Z</time>
      </trkpt>
      <trkpt lat="42.10023" lon="24.88554">
        <ele>206.45145</ele>
        <time>2022-03-03T11:04:44.431Z</time>
      </trkpt>
      <trkpt lat="42.10022" lon="24.88541">
        <ele>206.348343</ele>
        <time>2022-03-03T11:04:47.446Z</time>
      </trkpt>
      <trkpt lat="42.1002" lon="24.88528">
        <ele>206.239172</ele>
        <time>2022-03-03T11:04:50.433Z</time>
      </trkpt>
      <trkpt lat="42.10019" lon="24.88514">
        <ele>206.123284</ele>
        <time>2022-03-03T11:04:53.431Z</time>
      </trkpt>
      <trkpt lat="42.10018" lon="24.885">
        <ele>206.012623</ele>
        <time>2022-03-03T11:04:56.429Z</time>
      </trkpt>
      <trkpt lat="42.10018" lon="24.88487">
        <ele>205.907223</ele>
        <time>2022-03-03T11:04:59.435Z</time>
      </trkpt>
      <trkpt lat="42.10016" lon="24.88474">
        <ele>205.802984</ele>
        <time>2022-03-03T11:05:02.428Z</time>
      </trkpt>
      <trkpt lat="42.10015" lon="24.88461">
        <ele>205.700303</ele>
        <time>2022-03-03T11:05:05.416Z</time>
      </trkpt>
      <trkpt lat="42.10014" lon="24.88448">
        <ele>205.593749</ele>
        <time>2022-03-03T11:05:08.442Z</time>
      </trkpt>
      <trkpt lat="42.10013" lon="24.88435">
        <ele>205.487547</ele>
        <time>2022-03-03T11:05:11.434Z</time>
      </trkpt>
      <trkpt lat="42.10013" lon="24.88422">
        <ele>205.381494</ele>
        <time>2022-03-03T11:05:14.488Z</time>
      </trkpt>
      <trkpt lat="42.10012" lon="24.88409">
        <ele>205.278242</ele>
        <time>2022-03-03T11:05:17.433Z</time>
      </trkpt>
      <trkpt lat="42.10011" lon="24.88396">
        <ele>205.174493</ele>
        <time>2022-03-03T11:05:20.442Z</time>
      </trkpt>
      <trkpt lat="42.1001" lon="24.88384">
        <ele>205.308991</ele>
        <time>2022-03-03T11:05:23.426Z</time>
      </trkpt>
      <trkpt lat="42.10009" lon="24.88371">
        <ele>205.547196</ele>
        <time>2022-03-03T11:05:26.446Z</time>
      </trkpt>
      <trkpt lat="42.10008" lon="24.88359">
        <ele>205.784072</ele>
        <time>2022-03-03T11:05:29.435Z</time>
      </trkpt>
      <trkpt lat="42.10006" lon="24.88347">
        <ele>206.015662</ele>
        <time>2022-03-03T11:05:32.471Z</time>
      </trkpt>
      <trkpt lat="42.10006" lon="24.88334">
        <ele>206.257614</ele>
        <time>2022-03-03T11:05:35.433Z</time>
      </trkpt>
      <trkpt lat="42.10004" lon="24.88318">
        <ele>206.555833</ele>
        <time>2022-03-03T11:05:39.429Z</time>
      </trkpt>
      <trkpt lat="42.10003" lon="24.88303">
        <ele>206.844465</ele>
        <time>2022-03-03T11:05:43.464Z</time>
      </trkpt>
      <trkpt lat="42.10002" lon="24.88287">
        <ele>207.136686</ele>
        <time>2022-03-03T11:05:47.427Z</time>
      </trkpt>
      <trkpt lat="42.10001" lon="24.88275">
        <ele>207.367957</ele>
        <time>2022-03-03T11:05:50.442Z</time>
      </trkpt>
      <trkpt lat="42.1" lon="24.88263">
        <ele>207.600268</ele>
        <time>2022-03-03T11:05:53.435Z</time>
      </trkpt>
      <trkpt lat="42.09999" lon="24.88247">
        <ele>207.893534</ele>
        <time>2022-03-03T11:05:57.449Z</time>
      </trkpt>
      <trkpt lat="42.09997" lon="24.88235">
        <ele>208.132924</ele>
        <time>2022-03-03T11:06:00.476Z</time>
      </trkpt>
      <trkpt lat="42.09995" lon="24.8822">
        <ele>208.423877</ele>
        <time>2022-03-03T11:06:04.424Z</time>
      </trkpt>
      <trkpt lat="42.09998" lon="24.88207">
        <ele>208.671392</ele>
        <time>2022-03-03T11:06:08.426Z</time>
      </trkpt>
      <trkpt lat="42.10005" lon="24.88195">
        <ele>208.952641</ele>
        <time>2022-03-03T11:06:13.435Z</time>
      </trkpt>
      <trkpt lat="42.09999" lon="24.88169">
        <ele>209.474504</ele>
        <time>2022-03-03T11:13:36.471Z</time>
      </trkpt>
      <trkpt lat="42.09992" lon="24.88157">
        <ele>209.774327</ele>
        <time>2022-03-03T11:13:40.447Z</time>
      </trkpt>
      <trkpt lat="42.09988" lon="24.88146">
        <ele>210.174669</ele>
        <time>2022-03-03T11:13:43.437Z</time>
      </trkpt>
      <trkpt lat="42.09985" lon="24.88133">
        <ele>210.61797</ele>
        <time>2022-03-03T11:13:46.436Z</time>
      </trkpt>
      <trkpt lat="42.09984" lon="24.88119">
        <ele>211.051561</ele>
        <time>2022-03-03T11:13:49.442Z</time>
      </trkpt>
      <trkpt lat="42.09982" lon="24.88106">
        <ele>211.497331</ele>
        <time>2022-03-03T11:13:52.424Z</time>
      </trkpt>
      <trkpt lat="42.09982" lon="24.88091">
        <ele>211.95119</ele>
        <time>2022-03-03T11:13:55.410Z</time>
      </trkpt>
      <trkpt lat="42.09979" lon="24.88078">
        <ele>212.398047</ele>
        <time>2022-03-03T11:13:58.434Z</time>
      </trkpt>
      <trkpt lat="42.09977" lon="24.88065">
        <ele>212.830461</ele>
        <time>2022-03-03T11:14:01.467Z</time>
      </trkpt>
      <trkpt lat="42.09976" lon="24.88053">
        <ele>213.220551</ele>
        <time>2022-03-03T11:14:04.417Z</time>
      </trkpt>
      <trkpt lat="42.09975" lon="24.8804">
        <ele>213.628764</ele>
        <time>2022-03-03T11:14:07.434Z</time>
      </trkpt>
      <trkpt lat="42.09974" lon="24.88025">
        <ele>214.097279</ele>
        <time>2022-03-03T11:14:10.461Z</time>
      </trkpt>
      <trkpt lat="42.09972" lon="24.88009">
        <ele>214.627209</ele>
        <time>2022-03-03T11:14:13.436Z</time>
      </trkpt>
      <trkpt lat="42.09971" lon="24.87994">
        <ele>215.094613</ele>
        <time>2022-03-03T11:14:16.430Z</time>
      </trkpt>
      <trkpt lat="42.09967" lon="24.87982">
        <ele>215.538031</ele>
        <time>2022-03-03T11:14:19.433Z</time>
      </trkpt>
      <trkpt lat="42.09964" lon="24.87967">
        <ele>216.005176</ele>
        <time>2022-03-03T11:14:22.482Z</time>
      </trkpt>
      <trkpt lat="42.09962" lon="24.87952">
        <ele>216.505349</ele>
        <time>2022-03-03T11:14:25.429Z</time>
      </trkpt>
      <trkpt lat="42.09962" lon="24.87938">
        <ele>216.959208</ele>
        <time>2022-03-03T11:14:28.437Z</time>
      </trkpt>
      <trkpt lat="42.09961" lon="24.87922">
        <ele>217.44977</ele>
        <time>2022-03-03T11:14:31.457Z</time>
      </trkpt>
      <trkpt lat="42.09962" lon="24.87908">
        <ele>217.737303</ele>
        <time>2022-03-03T11:14:34.423Z</time>
      </trkpt>
      <trkpt lat="42.09965" lon="24.87893">
        <ele>218.038525</ele>
        <time>2022-03-03T11:14:37.433Z</time>
      </trkpt>
      <trkpt lat="42.09967" lon="24.87879">
        <ele>218.340151</ele>
        <time>2022-03-03T11:14:40.457Z</time>
      </trkpt>
      <trkpt lat="42.09968" lon="24.87865">
        <ele>218.617627</ele>
        <time>2022-03-03T11:14:43.442Z</time>
      </trkpt>
      <trkpt lat="42.09969" lon="24.87851">
        <ele>218.895637</ele>
        <time>2022-03-03T11:14:46.451Z</time>
      </trkpt>
      <trkpt lat="42.0997" lon="24.87838">
        <ele>219.151706</ele>
        <time>2022-03-03T11:14:49.434Z</time>
      </trkpt>
      <trkpt lat="42.09972" lon="24.87824">
        <ele>219.436269</ele>
        <time>2022-03-03T11:14:53.437Z</time>
      </trkpt>
      <trkpt lat="42.09972" lon="24.87811">
        <ele>219.703608</ele>
        <time>2022-03-03T11:14:57.449Z</time>
      </trkpt>
      <trkpt lat="42.09971" lon="24.87796">
        <ele>220.01039</ele>
        <time>2022-03-03T11:15:02.460Z</time>
      </trkpt>
      <trkpt lat="42.09975" lon="24.87781">
        <ele>220.324493</ele>
        <time>2022-03-03T11:15:06.443Z</time>
      </trkpt>
      <trkpt lat="42.09979" lon="24.87769">
        <ele>220.58425</ele>
        <time>2022-03-03T11:15:09.471Z</time>
      </trkpt>
      <trkpt lat="42.09982" lon="24.87757">
        <ele>220.846471</ele>
        <time>2022-03-03T11:15:12.417Z</time>
      </trkpt>
      <trkpt lat="42.09981" lon="24.87744">
        <ele>221.106261</ele>
        <time>2022-03-03T11:15:16.480Z</time>
      </trkpt>
      <trkpt lat="42.09983" lon="24.8773">
        <ele>221.384331</ele>
        <time>2022-03-03T11:15:20.448Z</time>
      </trkpt>
      <trkpt lat="42.09985" lon="24.87714">
        <ele>221.711986</ele>
        <time>2022-03-03T11:15:24.425Z</time>
      </trkpt>
      <trkpt lat="42.09989" lon="24.87703">
        <ele>221.964827</ele>
        <time>2022-03-03T11:15:27.478Z</time>
      </trkpt>
      <trkpt lat="42.09992" lon="24.8769">
        <ele>222.229939</ele>
        <time>2022-03-03T11:15:30.448Z</time>
      </trkpt>
      <trkpt lat="42.09995" lon="24.87678">
        <ele>222.138417</ele>
        <time>2022-03-03T11:15:33.458Z</time>
      </trkpt>
      <trkpt lat="42.09997" lon="24.87665">
        <ele>221.896681</ele>
        <time>2022-03-03T11:15:36.450Z</time>
      </trkpt>
      <trkpt lat="42.1" lon="24.87653">
        <ele>221.657331</ele>
        <time>2022-03-03T11:15:39.469Z</time>
      </trkpt>
      <trkpt lat="42.10003" lon="24.87639">
        <ele>221.371256</ele>
        <time>2022-03-03T11:15:42.436Z</time>
      </trkpt>
      <trkpt lat="42.10006" lon="24.87626">
        <ele>221.123633</ele>
        <time>2022-03-03T11:15:45.442Z</time>
      </trkpt>
      <trkpt lat="42.10008" lon="24.87613">
        <ele>220.867559</ele>
        <time>2022-03-03T11:15:48.449Z</time>
      </trkpt>
      <trkpt lat="42.10009" lon="24.87596">
        <ele>220.546505</ele>
        <time>2022-03-03T11:15:51.446Z</time>
      </trkpt>
      <trkpt lat="42.10012" lon="24.87581">
        <ele>220.264676</ele>
        <time>2022-03-03T11:15:54.418Z</time>
      </trkpt>
      <trkpt lat="42.10013" lon="24.87564">
        <ele>219.950386</ele>
        <time>2022-03-03T11:15:57.453Z</time>
      </trkpt>
      <trkpt lat="42.10014" lon="24.87549">
        <ele>219.656644</ele>
        <time>2022-03-03T11:16:00.453Z</time>
      </trkpt>
      <trkpt lat="42.10017" lon="24.87533">
        <ele>219.352084</ele>
        <time>2022-03-03T11:16:03.427Z</time>
      </trkpt>
      <trkpt lat="42.10017" lon="24.87517">
        <ele>219.058569</ele>
        <time>2022-03-03T11:16:06.423Z</time>
      </trkpt>
      <trkpt lat="42.10019" lon="24.875">
        <ele>218.736393</ele>
        <time>2022-03-03T11:16:09.452Z</time>
      </trkpt>
      <trkpt lat="42.1002" lon="24.87484">
        <ele>218.436347</ele>
        <time>2022-03-03T11:16:12.408Z</time>
      </trkpt>
      <trkpt lat="42.10024" lon="24.87469">
        <ele>218.139777</ele>
        <time>2022-03-03T11:16:15.449Z</time>
      </trkpt>
      <trkpt lat="42.10027" lon="24.87453">
        <ele>217.828472</ele>
        <time>2022-03-03T11:16:18.437Z</time>
      </trkpt>
      <trkpt lat="42.1003" lon="24.87439">
        <ele>217.414442</ele>
        <time>2022-03-03T11:16:21.423Z</time>
      </trkpt>
      <trkpt lat="42.10034" lon="24.87426">
        <ele>216.944648</ele>
        <time>2022-03-03T11:16:24.467Z</time>
      </trkpt>
      <trkpt lat="42.10038" lon="24.87411">
        <ele>216.446483</ele>
        <time>2022-03-03T11:16:27.437Z</time>
      </trkpt>
      <trkpt lat="42.10043" lon="24.87397">
        <ele>215.949707</ele>
        <time>2022-03-03T11:16:30.405Z</time>
      </trkpt>
      <trkpt lat="42.10047" lon="24.87381">
        <ele>215.427356</ele>
        <time>2022-03-03T11:16:33.442Z</time>
      </trkpt>
      <trkpt lat="42.1005" lon="24.87367">
        <ele>214.944128</ele>
        <time>2022-03-03T11:16:36.432Z</time>
      </trkpt>
      <trkpt lat="42.10053" lon="24.87352">
        <ele>214.463933</ele>
        <time>2022-03-03T11:16:39.448Z</time>
      </trkpt>
      <trkpt lat="42.10054" lon="24.87337">
        <ele>213.998633</ele>
        <time>2022-03-03T11:16:42.476Z</time>
      </trkpt>
      <trkpt lat="42.10058" lon="24.87323">
        <ele>213.509181</ele>
        <time>2022-03-03T11:16:45.463Z</time>
      </trkpt>
      <trkpt lat="42.10062" lon="24.87307">
        <ele>212.973672</ele>
        <time>2022-03-03T11:16:48.433Z</time>
      </trkpt>
      <trkpt lat="42.10066" lon="24.8729">
        <ele>212.416694</ele>
        <time>2022-03-03T11:16:51.451Z</time>
      </trkpt>
      <trkpt lat="42.10069" lon="24.87275">
        <ele>211.905988</ele>
        <time>2022-03-03T11:16:54.425Z</time>
      </trkpt>
      <trkpt lat="42.10071" lon="24.87261">
        <ele>211.463365</ele>
        <time>2022-03-03T11:16:57.458Z</time>
      </trkpt>
      <trkpt lat="42.10071" lon="24.87246">
        <ele>210.97314</ele>
        <time>2022-03-03T11:17:00.453Z</time>
      </trkpt>
      <trkpt lat="42.10074" lon="24.87232">
        <ele>210.526348</ele>
        <time>2022-03-03T11:17:03.466Z</time>
      </trkpt>
      <trkpt lat="42.10069" lon="24.87219">
        <ele>210.046334</ele>
        <time>2022-03-03T11:17:06.437Z</time>
      </trkpt>
      <trkpt lat="42.10061" lon="24.87209">
        <ele>210.133487</ele>
        <time>2022-03-03T11:17:09.457Z</time>
      </trkpt>
      <trkpt lat="42.10052" lon="24.872">
        <ele>210.222829</ele>
        <time>2022-03-03T11:17:12.472Z</time>
      </trkpt>
      <trkpt lat="42.10044" lon="24.87191">
        <ele>210.309693</ele>
        <time>2022-03-03T11:17:15.437Z</time>
      </trkpt>
      <trkpt lat="42.10036" lon="24.87182">
        <ele>210.398341</ele>
        <time>2022-03-03T11:17:18.443Z</time>
      </trkpt>
      <trkpt lat="42.10028" lon="24.87172">
        <ele>210.484536</ele>
        <time>2022-03-03T11:17:21.435Z</time>
      </trkpt>
      <trkpt lat="42.10022" lon="24.87158">
        <ele>210.580483</ele>
        <time>2022-03-03T11:17:24.428Z</time>
      </trkpt>
      <trkpt lat="42.10019" lon="24.87143">
        <ele>210.673905</ele>
        <time>2022-03-03T11:17:27.427Z</time>
      </trkpt>
      <trkpt lat="42.10018" lon="24.87129">
        <ele>210.763555</ele>
        <time>2022-03-03T11:17:30.421Z</time>
      </trkpt>
      <trkpt lat="42.10016" lon="24.87114">
        <ele>210.853279</ele>
        <time>2022-03-03T11:17:33.475Z</time>
      </trkpt>
      <trkpt lat="42.10014" lon="24.87101">
        <ele>210.938339</ele>
        <time>2022-03-03T11:17:36.438Z</time>
      </trkpt>
      <trkpt lat="42.10013" lon="24.87087">
        <ele>211.021046</ele>
        <time>2022-03-03T11:17:39.438Z</time>
      </trkpt>
      <trkpt lat="42.10012" lon="24.87073">
        <ele>211.105945</ele>
        <time>2022-03-03T11:17:42.464Z</time>
      </trkpt>
      <trkpt lat="42.1001" lon="24.87059">
        <ele>211.196722</ele>
        <time>2022-03-03T11:17:45.424Z</time>
      </trkpt>
      <trkpt lat="42.10008" lon="24.87044">
        <ele>211.288764</ele>
        <time>2022-03-03T11:17:48.465Z</time>
      </trkpt>
      <trkpt lat="42.10006" lon="24.87029">
        <ele>211.379693</ele>
        <time>2022-03-03T11:17:51.446Z</time>
      </trkpt>
      <trkpt lat="42.10005" lon="24.87014">
        <ele>211.472376</ele>
        <time>2022-03-03T11:17:54.415Z</time>
      </trkpt>
      <trkpt lat="42.10004" lon="24.86998">
        <ele>211.580251</ele>
        <time>2022-03-03T11:17:57.423Z</time>
      </trkpt>
      <trkpt lat="42.10002" lon="24.86984">
        <ele>211.695372</ele>
        <time>2022-03-03T11:18:00.471Z</time>
      </trkpt>
      <trkpt lat="42.10001" lon="24.86969">
        <ele>211.807756</ele>
        <time>2022-03-03T11:18:03.437Z</time>
      </trkpt>
      <trkpt lat="42.1" lon="24.86953">
        <ele>211.927869</ele>
        <time>2022-03-03T11:18:06.417Z</time>
      </trkpt>
      <trkpt lat="42.09998" lon="24.86937">
        <ele>212.052826</ele>
        <time>2022-03-03T11:18:09.432Z</time>
      </trkpt>
      <trkpt lat="42.09997" lon="24.86923">
        <ele>212.162829</ele>
        <time>2022-03-03T11:18:12.443Z</time>
      </trkpt>
      <trkpt lat="42.09997" lon="24.8691">
        <ele>212.260224</ele>
        <time>2022-03-03T11:18:15.422Z</time>
      </trkpt>
      <trkpt lat="42.09996" lon="24.86894">
        <ele>212.38536</ele>
        <time>2022-03-03T11:18:19.454Z</time>
      </trkpt>
      <trkpt lat="42.09995" lon="24.8688">
        <ele>212.489732</ele>
        <time>2022-03-03T11:18:22.457Z</time>
      </trkpt>
      <trkpt lat="42.09994" lon="24.86867">
        <ele>212.592848</ele>
        <time>2022-03-03T11:18:25.424Z</time>
      </trkpt>
      <trkpt lat="42.09994" lon="24.86854">
        <ele>212.69411</ele>
        <time>2022-03-03T11:18:28.425Z</time>
      </trkpt>
      <trkpt lat="42.09995" lon="24.8684">
        <ele>212.80466</ele>
        <time>2022-03-03T11:18:31.451Z</time>
      </trkpt>
      <trkpt lat="42.09995" lon="24.86825">
        <ele>212.913547</ele>
        <time>2022-03-03T11:18:34.416Z</time>
      </trkpt>
      <trkpt lat="42.09994" lon="24.86813">
        <ele>213.011925</ele>
        <time>2022-03-03T11:18:37.426Z</time>
      </trkpt>
      <trkpt lat="42.09994" lon="24.86797">
        <ele>213.13227</ele>
        <time>2022-03-03T11:18:40.432Z</time>
      </trkpt>
      <trkpt lat="42.09996" lon="24.86781">
        <ele>213.257827</ele>
        <time>2022-03-03T11:18:43.433Z</time>
      </trkpt>
      <trkpt lat="42.09996" lon="24.86768">
        <ele>213.354495</ele>
        <time>2022-03-03T11:18:45.447Z</time>
      </trkpt>
      <trkpt lat="42.09998" lon="24.8675">
        <ele>213.243577</ele>
        <time>2022-03-03T11:18:48.537Z</time>
      </trkpt>
      <trkpt lat="42.09999" lon="24.86733">
        <ele>213.076093</ele>
        <time>2022-03-03T11:18:51.423Z</time>
      </trkpt>
      <trkpt lat="42.09999" lon="24.86715">
        <ele>212.901192</ele>
        <time>2022-03-03T11:18:54.423Z</time>
      </trkpt>
      <trkpt lat="42.09999" lon="24.86703">
        <ele>212.780109</ele>
        <time>2022-03-03T11:18:56.438Z</time>
      </trkpt>
      <trkpt lat="42.10001" lon="24.86685">
        <ele>212.601581</ele>
        <time>2022-03-03T11:18:59.438Z</time>
      </trkpt>
      <trkpt lat="42.10002" lon="24.86672">
        <ele>212.473967</ele>
        <time>2022-03-03T11:19:01.468Z</time>
      </trkpt>
      <trkpt lat="42.10002" lon="24.86659">
        <ele>212.352778</ele>
        <time>2022-03-03T11:19:03.434Z</time>
      </trkpt>
      <trkpt lat="42.10004" lon="24.86642">
        <ele>212.180448</ele>
        <time>2022-03-03T11:19:06.417Z</time>
      </trkpt>
      <trkpt lat="42.10006" lon="24.86626">
        <ele>212.018034</ele>
        <time>2022-03-03T11:19:09.425Z</time>
      </trkpt>
      <trkpt lat="42.10012" lon="24.86611">
        <ele>211.862235</ele>
        <time>2022-03-03T11:19:12.444Z</time>
      </trkpt>
      <trkpt lat="42.10023" lon="24.86603">
        <ele>211.690759</ele>
        <time>2022-03-03T11:19:15.429Z</time>
      </trkpt>
      <trkpt lat="42.10034" lon="24.86609">
        <ele>211.540676</ele>
        <time>2022-03-03T11:19:18.441Z</time>
      </trkpt>
      <trkpt lat="42.10043" lon="24.86616">
        <ele>211.406765</ele>
        <time>2022-03-03T11:19:21.440Z</time>
      </trkpt>
      <trkpt lat="42.10052" lon="24.86621">
        <ele>211.273506</ele>
        <time>2022-03-03T11:19:25.435Z</time>
      </trkpt>
      <trkpt lat="42.10061" lon="24.86627">
        <ele>211.146955</ele>
        <time>2022-03-03T11:19:30.433Z</time>
      </trkpt>
      <trkpt lat="42.10068" lon="24.86635">
        <ele>211.019142</ele>
        <time>2022-03-03T11:19:37.427Z</time>
      </trkpt>
      <trkpt lat="42.10077" lon="24.86642">
        <ele>210.870725</ele>
        <time>2022-03-03T11:19:43.432Z</time>
      </trkpt>
      <trkpt lat="42.10085" lon="24.86648">
        <ele>210.730397</ele>
        <time>2022-03-03T11:19:49.424Z</time>
      </trkpt>
      <trkpt lat="42.10095" lon="24.86655">
        <ele>210.575599</ele>
        <time>2022-03-03T11:19:55.468Z</time>
      </trkpt>
      <trkpt lat="42.10103" lon="24.86662">
        <ele>210.435095</ele>
        <time>2022-03-03T11:20:01.433Z</time>
      </trkpt>
      <trkpt lat="42.10111" lon="24.86669">
        <ele>210.286753</ele>
        <time>2022-03-03T11:20:08.441Z</time>
      </trkpt>
      <trkpt lat="42.1012" lon="24.86675">
        <ele>210.151234</ele>
        <time>2022-03-03T11:20:14.469Z</time>
      </trkpt>
      <trkpt lat="42.10128" lon="24.8668">
        <ele>210.01834</ele>
        <time>2022-03-03T11:20:20.491Z</time>
      </trkpt>
      <trkpt lat="42.10136" lon="24.86686">
        <ele>209.88575</ele>
        <time>2022-03-03T11:20:26.431Z</time>
      </trkpt>
      <trkpt lat="42.10144" lon="24.86692">
        <ele>209.747622</ele>
        <time>2022-03-03T11:20:32.443Z</time>
      </trkpt>
      <trkpt lat="42.10152" lon="24.86698">
        <ele>209.609102</ele>
        <time>2022-03-03T11:20:38.421Z</time>
      </trkpt>
      <trkpt lat="42.10162" lon="24.86704">
        <ele>209.452275</ele>
        <time>2022-03-03T11:20:44.426Z</time>
      </trkpt>
      <trkpt lat="42.10171" lon="24.86709">
        <ele>209.309092</ele>
        <time>2022-03-03T11:20:49.435Z</time>
      </trkpt>
      <trkpt lat="42.1018" lon="24.86714">
        <ele>209.169644</ele>
        <time>2022-03-03T11:20:54.418Z</time>
      </trkpt>
      <trkpt lat="42.10189" lon="24.8672">
        <ele>209.026112</ele>
        <time>2022-03-03T11:20:58.471Z</time>
      </trkpt>
      <trkpt lat="42.102" lon="24.86725">
        <ele>208.850802</ele>
        <time>2022-03-03T11:21:02.422Z</time>
      </trkpt>
      <trkpt lat="42.10211" lon="24.8673">
        <ele>208.683767</ele>
        <time>2022-03-03T11:21:05.427Z</time>
      </trkpt>
      <trkpt lat="42.10223" lon="24.86735">
        <ele>208.495031</ele>
        <time>2022-03-03T11:21:08.437Z</time>
      </trkpt>
      <trkpt lat="42.10236" lon="24.8674">
        <ele>208.245955</ele>
        <time>2022-03-03T11:21:11.404Z</time>
      </trkpt>
      <trkpt lat="42.10246" lon="24.86743">
        <ele>208.002696</ele>
        <time>2022-03-03T11:21:13.439Z</time>
      </trkpt>
      <trkpt lat="42.10258" lon="24.86748">
        <ele>207.706445</ele>
        <time>2022-03-03T11:21:15.453Z</time>
      </trkpt>
      <trkpt lat="42.10271" lon="24.86754">
        <ele>207.405812</ele>
        <time>2022-03-03T11:21:17.430Z</time>
      </trkpt>
      <trkpt lat="42.10282" lon="24.86759">
        <ele>207.132732</ele>
        <time>2022-03-03T11:21:19.449Z</time>
      </trkpt>
      <trkpt lat="42.10292" lon="24.86763">
        <ele>206.890374</ele>
        <time>2022-03-03T11:21:21.477Z</time>
      </trkpt>
      <trkpt lat="42.10301" lon="24.86764">
        <ele>206.6731</ele>
        <time>2022-03-03T11:21:23.471Z</time>
      </trkpt>
      <trkpt lat="42.1031" lon="24.8676">
        <ele>206.447071</ele>
        <time>2022-03-03T11:21:25.428Z</time>
      </trkpt>
      <trkpt lat="42.10319" lon="24.86753">
        <ele>206.209829</ele>
        <time>2022-03-03T11:21:27.436Z</time>
      </trkpt>
      <trkpt lat="42.10326" lon="24.8674">
        <ele>205.944282</ele>
        <time>2022-03-03T11:21:29.439Z</time>
      </trkpt>
      <trkpt lat="42.1033" lon="24.86726">
        <ele>205.670045</ele>
        <time>2022-03-03T11:21:31.451Z</time>
      </trkpt>
      <trkpt lat="42.10331" lon="24.8671">
        <ele>205.405734</ele>
        <time>2022-03-03T11:21:33.459Z</time>
      </trkpt>
      <trkpt lat="42.10331" lon="24.86696">
        <ele>205.153013</ele>
        <time>2022-03-03T11:21:35.516Z</time>
      </trkpt>
      <trkpt lat="42.10331" lon="24.86683">
        <ele>204.934898</ele>
        <time>2022-03-03T11:21:37.436Z</time>
      </trkpt>
      <trkpt lat="42.10331" lon="24.86669">
        <ele>204.680489</ele>
        <time>2022-03-03T11:21:40.409Z</time>
      </trkpt>
      <trkpt lat="42.1033" lon="24.86655">
        <ele>204.450203</ele>
        <time>2022-03-03T11:21:43.438Z</time>
      </trkpt>
      <trkpt lat="42.10331" lon="24.8664">
        <ele>204.183144</ele>
        <time>2022-03-03T11:21:47.422Z</time>
      </trkpt>
      <trkpt lat="42.10332" lon="24.86623">
        <ele>204.12147</ele>
        <time>2022-03-03T11:21:51.457Z</time>
      </trkpt>
      <trkpt lat="42.10332" lon="24.86608">
        <ele>204.062836</ele>
        <time>2022-03-03T11:21:54.444Z</time>
      </trkpt>
      <trkpt lat="42.10331" lon="24.86592">
        <ele>204.004899</ele>
        <time>2022-03-03T11:21:57.492Z</time>
      </trkpt>
      <trkpt lat="42.10331" lon="24.86576">
        <ele>203.944008</ele>
        <time>2022-03-03T11:22:00.432Z</time>
      </trkpt>
      <trkpt lat="42.10331" lon="24.8656">
        <ele>203.884979</ele>
        <time>2022-03-03T11:22:03.439Z</time>
      </trkpt>
      <trkpt lat="42.10331" lon="24.86544">
        <ele>203.822944</ele>
        <time>2022-03-03T11:22:06.438Z</time>
      </trkpt>
      <trkpt lat="42.10331" lon="24.86526">
        <ele>203.756417</ele>
        <time>2022-03-03T11:22:09.443Z</time>
      </trkpt>
      <trkpt lat="42.10332" lon="24.86509">
        <ele>203.691197</ele>
        <time>2022-03-03T11:22:12.444Z</time>
      </trkpt>
      <trkpt lat="42.10334" lon="24.86492">
        <ele>203.625233</ele>
        <time>2022-03-03T11:22:15.431Z</time>
      </trkpt>
      <trkpt lat="42.10335" lon="24.86479">
        <ele>203.578908</ele>
        <time>2022-03-03T11:22:17.434Z</time>
      </trkpt>
      <trkpt lat="42.10337" lon="24.86467">
        <ele>203.532057</ele>
        <time>2022-03-03T11:22:19.467Z</time>
      </trkpt>
      <trkpt lat="42.10339" lon="24.86455">
        <ele>203.485831</ele>
        <time>2022-03-03T11:22:21.456Z</time>
      </trkpt>
      <trkpt lat="42.10343" lon="24.86438">
        <ele>203.419035</ele>
        <time>2022-03-03T11:22:24.443Z</time>
      </trkpt>
      <trkpt lat="42.10349" lon="24.86424">
        <ele>203.356457</ele>
        <time>2022-03-03T11:22:27.432Z</time>
      </trkpt>
      <trkpt lat="42.10356" lon="24.86411">
        <ele>203.296964</ele>
        <time>2022-03-03T11:22:30.471Z</time>
      </trkpt>
      <trkpt lat="42.10363" lon="24.86398">
        <ele>203.225337</ele>
        <time>2022-03-03T11:22:33.437Z</time>
      </trkpt>
      <trkpt lat="42.1037" lon="24.86387">
        <ele>203.146757</ele>
        <time>2022-03-03T11:22:36.419Z</time>
      </trkpt>
      <trkpt lat="42.10376" lon="24.86374">
        <ele>203.067734</ele>
        <time>2022-03-03T11:22:39.455Z</time>
      </trkpt>
      <trkpt lat="42.10382" lon="24.86362">
        <ele>202.986617</ele>
        <time>2022-03-03T11:22:42.427Z</time>
      </trkpt>
      <trkpt lat="42.10389" lon="24.86349">
        <ele>202.903382</ele>
        <time>2022-03-03T11:22:45.429Z</time>
      </trkpt>
      <trkpt lat="42.10396" lon="24.86337">
        <ele>202.826527</ele>
        <time>2022-03-03T11:22:48.454Z</time>
      </trkpt>
      <trkpt lat="42.10402" lon="24.86326">
        <ele>202.748385</ele>
        <time>2022-03-03T11:22:51.474Z</time>
      </trkpt>
      <trkpt lat="42.10409" lon="24.86314">
        <ele>202.671516</ele>
        <time>2022-03-03T11:22:54.422Z</time>
      </trkpt>
      <trkpt lat="42.10415" lon="24.86303">
        <ele>202.596336</ele>
        <time>2022-03-03T11:22:57.430Z</time>
      </trkpt>
      <trkpt lat="42.10422" lon="24.86292">
        <ele>202.520714</ele>
        <time>2022-03-03T11:23:00.448Z</time>
      </trkpt>
      <trkpt lat="42.10428" lon="24.86281">
        <ele>202.446389</ele>
        <time>2022-03-03T11:23:03.417Z</time>
      </trkpt>
      <trkpt lat="42.10435" lon="24.8627">
        <ele>202.375045</ele>
        <time>2022-03-03T11:23:06.434Z</time>
      </trkpt>
      <trkpt lat="42.1044" lon="24.8626">
        <ele>202.306664</ele>
        <time>2022-03-03T11:23:09.424Z</time>
      </trkpt>
      <trkpt lat="42.10446" lon="24.86249">
        <ele>202.238203</ele>
        <time>2022-03-03T11:23:12.426Z</time>
      </trkpt>
      <trkpt lat="42.10451" lon="24.86239">
        <ele>202.171115</ele>
        <time>2022-03-03T11:23:15.453Z</time>
      </trkpt>
      <trkpt lat="42.10458" lon="24.86228">
        <ele>202.096161</ele>
        <time>2022-03-03T11:23:18.454Z</time>
      </trkpt>
      <trkpt lat="42.10465" lon="24.86217">
        <ele>202.018785</ele>
        <time>2022-03-03T11:23:21.428Z</time>
      </trkpt>
      <trkpt lat="42.10472" lon="24.86205">
        <ele>202.020301</ele>
        <time>2022-03-03T11:23:24.426Z</time>
      </trkpt>
      <trkpt lat="42.10478" lon="24.86194">
        <ele>202.06545</ele>
        <time>2022-03-03T11:23:27.435Z</time>
      </trkpt>
      <trkpt lat="42.10484" lon="24.86183">
        <ele>202.110858</ele>
        <time>2022-03-03T11:23:30.481Z</time>
      </trkpt>
      <trkpt lat="42.10491" lon="24.86171">
        <ele>202.157829</ele>
        <time>2022-03-03T11:23:33.452Z</time>
      </trkpt>
      <trkpt lat="42.10498" lon="24.86159">
        <ele>202.205038</ele>
        <time>2022-03-03T11:23:36.437Z</time>
      </trkpt>
      <trkpt lat="42.10505" lon="24.86148">
        <ele>202.25176</ele>
        <time>2022-03-03T11:23:39.442Z</time>
      </trkpt>
      <trkpt lat="42.10511" lon="24.86137">
        <ele>202.297466</ele>
        <time>2022-03-03T11:23:42.436Z</time>
      </trkpt>
      <trkpt lat="42.10518" lon="24.86127">
        <ele>202.341504</ele>
        <time>2022-03-03T11:23:45.443Z</time>
      </trkpt>
      <trkpt lat="42.10525" lon="24.86115">
        <ele>202.388712</ele>
        <time>2022-03-03T11:23:48.418Z</time>
      </trkpt>
      <trkpt lat="42.10532" lon="24.86103">
        <ele>202.437974</ele>
        <time>2022-03-03T11:23:51.436Z</time>
      </trkpt>
      <trkpt lat="42.10538" lon="24.86092">
        <ele>202.482624</ele>
        <time>2022-03-03T11:23:54.418Z</time>
      </trkpt>
      <trkpt lat="42.10544" lon="24.8608">
        <ele>202.527779</ele>
        <time>2022-03-03T11:23:57.476Z</time>
      </trkpt>
      <trkpt lat="42.1055" lon="24.86069">
        <ele>202.571903</ele>
        <time>2022-03-03T11:24:00.429Z</time>
      </trkpt>
      <trkpt lat="42.10556" lon="24.86058">
        <ele>202.613237</ele>
        <time>2022-03-03T11:24:03.471Z</time>
      </trkpt>
      <trkpt lat="42.10562" lon="24.86048">
        <ele>202.656889</ele>
        <time>2022-03-03T11:24:06.445Z</time>
      </trkpt>
      <trkpt lat="42.10569" lon="24.86037">
        <ele>202.701855</ele>
        <time>2022-03-03T11:24:09.465Z</time>
      </trkpt>
      <trkpt lat="42.10575" lon="24.86027">
        <ele>202.743236</ele>
        <time>2022-03-03T11:24:12.444Z</time>
      </trkpt>
      <trkpt lat="42.10581" lon="24.86017">
        <ele>202.775634</ele>
        <time>2022-03-03T11:24:15.468Z</time>
      </trkpt>
      <trkpt lat="42.10586" lon="24.86007">
        <ele>202.79855</ele>
        <time>2022-03-03T11:24:18.443Z</time>
      </trkpt>
      <trkpt lat="42.10592" lon="24.85997">
        <ele>202.822821</ele>
        <time>2022-03-03T11:24:21.424Z</time>
      </trkpt>
      <trkpt lat="42.10598" lon="24.85986">
        <ele>202.847698</ele>
        <time>2022-03-03T11:24:24.421Z</time>
      </trkpt>
      <trkpt lat="42.10604" lon="24.85976">
        <ele>202.872595</ele>
        <time>2022-03-03T11:24:27.425Z</time>
      </trkpt>
      <trkpt lat="42.1061" lon="24.85965">
        <ele>202.898073</ele>
        <time>2022-03-03T11:24:30.428Z</time>
      </trkpt>
      <trkpt lat="42.10616" lon="24.85955">
        <ele>202.922795</ele>
        <time>2022-03-03T11:24:33.439Z</time>
      </trkpt>
      <trkpt lat="42.10622" lon="24.85944">
        <ele>202.947369</ele>
        <time>2022-03-03T11:24:36.442Z</time>
      </trkpt>
      <trkpt lat="42.10627" lon="24.85934">
        <ele>202.971498</ele>
        <time>2022-03-03T11:24:39.465Z</time>
      </trkpt>
      <trkpt lat="42.10633" lon="24.85924">
        <ele>202.996227</ele>
        <time>2022-03-03T11:24:42.429Z</time>
      </trkpt>
      <trkpt lat="42.10639" lon="24.85913">
        <ele>203.020661</ele>
        <time>2022-03-03T11:24:45.430Z</time>
      </trkpt>
      <trkpt lat="42.10646" lon="24.85903">
        <ele>203.047298</ele>
        <time>2022-03-03T11:24:48.465Z</time>
      </trkpt>
      <trkpt lat="42.10653" lon="24.85892">
        <ele>203.07295</ele>
        <time>2022-03-03T11:24:51.437Z</time>
      </trkpt>
      <trkpt lat="42.10659" lon="24.85881">
        <ele>203.098276</ele>
        <time>2022-03-03T11:24:54.421Z</time>
      </trkpt>
      <trkpt lat="42.10665" lon="24.8587">
        <ele>203.12408</ele>
        <time>2022-03-03T11:24:57.458Z</time>
      </trkpt>
      <trkpt lat="42.1067" lon="24.85859">
        <ele>203.148659</ele>
        <time>2022-03-03T11:25:00.446Z</time>
      </trkpt>
      <trkpt lat="42.10677" lon="24.85849">
        <ele>203.174184</ele>
        <time>2022-03-03T11:25:03.419Z</time>
      </trkpt>
      <trkpt lat="42.10683" lon="24.85838">
        <ele>203.200629</ele>
        <time>2022-03-03T11:25:06.449Z</time>
      </trkpt>
      <trkpt lat="42.10689" lon="24.85827">
        <ele>203.194576</ele>
        <time>2022-03-03T11:25:09.438Z</time>
      </trkpt>
      <trkpt lat="42.10696" lon="24.85816">
        <ele>203.081287</ele>
        <time>2022-03-03T11:25:12.427Z</time>
      </trkpt>
      <trkpt lat="42.10703" lon="24.85804">
        <ele>202.966774</ele>
        <time>2022-03-03T11:25:15.434Z</time>
      </trkpt>
      <trkpt lat="42.10709" lon="24.85793">
        <ele>202.860349</ele>
        <time>2022-03-03T11:25:18.443Z</time>
      </trkpt>
      <trkpt lat="42.10714" lon="24.85781">
        <ele>202.754479</ele>
        <time>2022-03-03T11:25:21.430Z</time>
      </trkpt>
      <trkpt lat="42.10721" lon="24.85771">
        <ele>202.646071</ele>
        <time>2022-03-03T11:25:24.417Z</time>
      </trkpt>
      <trkpt lat="42.10728" lon="24.85759">
        <ele>202.532782</ele>
        <time>2022-03-03T11:25:27.459Z</time>
      </trkpt>
      <trkpt lat="42.10734" lon="24.85747">
        <ele>202.420752</ele>
        <time>2022-03-03T11:25:30.438Z</time>
      </trkpt>
      <trkpt lat="42.1074" lon="24.85736">
        <ele>202.311851</ele>
        <time>2022-03-03T11:25:33.426Z</time>
      </trkpt>
      <trkpt lat="42.10746" lon="24.85725">
        <ele>202.209793</ele>
        <time>2022-03-03T11:25:36.433Z</time>
      </trkpt>
      <trkpt lat="42.10752" lon="24.85715">
        <ele>202.11201</ele>
        <time>2022-03-03T11:25:39.431Z</time>
      </trkpt>
      <trkpt lat="42.10758" lon="24.85705">
        <ele>202.010444</ele>
        <time>2022-03-03T11:25:42.432Z</time>
      </trkpt>
      <trkpt lat="42.10765" lon="24.85696">
        <ele>201.905766</ele>
        <time>2022-03-03T11:25:45.440Z</time>
      </trkpt>
      <trkpt lat="42.10771" lon="24.85684">
        <ele>201.796875</ele>
        <time>2022-03-03T11:25:48.447Z</time>
      </trkpt>
      <trkpt lat="42.10778" lon="24.85672">
        <ele>201.67554</ele>
        <time>2022-03-03T11:25:51.437Z</time>
      </trkpt>
      <trkpt lat="42.10786" lon="24.85661">
        <ele>201.560417</ele>
        <time>2022-03-03T11:25:54.427Z</time>
      </trkpt>
      <trkpt lat="42.10793" lon="24.85652">
        <ele>201.45787</ele>
        <time>2022-03-03T11:25:57.436Z</time>
      </trkpt>
      <trkpt lat="42.10798" lon="24.85641">
        <ele>201.356146</ele>
        <time>2022-03-03T11:26:00.440Z</time>
      </trkpt>
      <trkpt lat="42.10802" lon="24.85627">
        <ele>201.643908</ele>
        <time>2022-03-03T11:26:03.436Z</time>
      </trkpt>
      <trkpt lat="42.10807" lon="24.85615">
        <ele>201.989152</ele>
        <time>2022-03-03T11:26:06.451Z</time>
      </trkpt>
      <trkpt lat="42.10813" lon="24.85604">
        <ele>202.328421</ele>
        <time>2022-03-03T11:26:09.449Z</time>
      </trkpt>
      <trkpt lat="42.10819" lon="24.85592">
        <ele>202.661672</ele>
        <time>2022-03-03T11:26:12.438Z</time>
      </trkpt>
      <trkpt lat="42.10826" lon="24.85581">
        <ele>202.998924</ele>
        <time>2022-03-03T11:26:15.441Z</time>
      </trkpt>
      <trkpt lat="42.10832" lon="24.8557">
        <ele>203.35141</ele>
        <time>2022-03-03T11:26:18.438Z</time>
      </trkpt>
      <trkpt lat="42.10841" lon="24.85558">
        <ele>203.728234</ele>
        <time>2022-03-03T11:26:21.469Z</time>
      </trkpt>
      <trkpt lat="42.10849" lon="24.85546">
        <ele>204.13579</ele>
        <time>2022-03-03T11:26:24.462Z</time>
      </trkpt>
      <trkpt lat="42.10857" lon="24.85533">
        <ele>204.538393</ele>
        <time>2022-03-03T11:26:27.458Z</time>
      </trkpt>
      <trkpt lat="42.10864" lon="24.8552">
        <ele>204.917817</ele>
        <time>2022-03-03T11:26:30.437Z</time>
      </trkpt>
      <trkpt lat="42.10871" lon="24.85509">
        <ele>205.265107</ele>
        <time>2022-03-03T11:26:33.415Z</time>
      </trkpt>
      <trkpt lat="42.10877" lon="24.85498">
        <ele>205.590703</ele>
        <time>2022-03-03T11:26:36.440Z</time>
      </trkpt>
      <trkpt lat="42.10884" lon="24.85487">
        <ele>205.943374</ele>
        <time>2022-03-03T11:26:39.442Z</time>
      </trkpt>
      <trkpt lat="42.10891" lon="24.85475">
        <ele>206.309369</ele>
        <time>2022-03-03T11:26:42.429Z</time>
      </trkpt>
      <trkpt lat="42.10897" lon="24.85461">
        <ele>206.691312</ele>
        <time>2022-03-03T11:26:45.464Z</time>
      </trkpt>
      <trkpt lat="42.10904" lon="24.85447">
        <ele>207.096187</ele>
        <time>2022-03-03T11:26:48.423Z</time>
      </trkpt>
      <trkpt lat="42.10911" lon="24.85434">
        <ele>207.328351</ele>
        <time>2022-03-03T11:26:51.424Z</time>
      </trkpt>
      <trkpt lat="42.10917" lon="24.8542">
        <ele>207.53323</ele>
        <time>2022-03-03T11:26:54.430Z</time>
      </trkpt>
      <trkpt lat="42.10925" lon="24.85408">
        <ele>207.722132</ele>
        <time>2022-03-03T11:26:57.437Z</time>
      </trkpt>
      <trkpt lat="42.10932" lon="24.85395">
        <ele>207.922294</ele>
        <time>2022-03-03T11:27:00.426Z</time>
      </trkpt>
      <trkpt lat="42.10939" lon="24.85384">
        <ele>208.11232</ele>
        <time>2022-03-03T11:27:03.437Z</time>
      </trkpt>
      <trkpt lat="42.10947" lon="24.85372">
        <ele>208.30769</ele>
        <time>2022-03-03T11:27:06.433Z</time>
      </trkpt>
      <trkpt lat="42.10954" lon="24.8536">
        <ele>208.502891</ele>
        <time>2022-03-03T11:27:09.438Z</time>
      </trkpt>
      <trkpt lat="42.10961" lon="24.85347">
        <ele>208.696007</ele>
        <time>2022-03-03T11:27:12.443Z</time>
      </trkpt>
      <trkpt lat="42.10967" lon="24.85335">
        <ele>208.878145</ele>
        <time>2022-03-03T11:27:15.427Z</time>
      </trkpt>
      <trkpt lat="42.10973" lon="24.85322">
        <ele>209.062433</ele>
        <time>2022-03-03T11:27:18.433Z</time>
      </trkpt>
      <trkpt lat="42.10976" lon="24.85308">
        <ele>209.25285</ele>
        <time>2022-03-03T11:27:21.472Z</time>
      </trkpt>
      <trkpt lat="42.10981" lon="24.85296">
        <ele>209.420239</ele>
        <time>2022-03-03T11:27:24.417Z</time>
      </trkpt>
      <trkpt lat="42.10986" lon="24.85283">
        <ele>209.601226</ele>
        <time>2022-03-03T11:27:27.435Z</time>
      </trkpt>
      <trkpt lat="42.1099" lon="24.8527">
        <ele>209.784264</ele>
        <time>2022-03-03T11:27:30.436Z</time>
      </trkpt>
      <trkpt lat="42.10995" lon="24.85256">
        <ele>209.96979</ele>
        <time>2022-03-03T11:27:33.432Z</time>
      </trkpt>
      <trkpt lat="42.10999" lon="24.85241">
        <ele>210.173313</ele>
        <time>2022-03-03T11:27:36.447Z</time>
      </trkpt>
      <trkpt lat="42.11004" lon="24.85226">
        <ele>210.107473</ele>
        <time>2022-03-03T11:27:39.437Z</time>
      </trkpt>
      <trkpt lat="42.11008" lon="24.85212">
        <ele>210.045459</ele>
        <time>2022-03-03T11:27:42.468Z</time>
      </trkpt>
      <trkpt lat="42.11012" lon="24.85198">
        <ele>209.98145</ele>
        <time>2022-03-03T11:27:45.438Z</time>
      </trkpt>
      <trkpt lat="42.11016" lon="24.85185">
        <ele>209.920643</ele>
        <time>2022-03-03T11:27:48.439Z</time>
      </trkpt>
      <trkpt lat="42.11021" lon="24.85172">
        <ele>209.860432</ele>
        <time>2022-03-03T11:27:51.424Z</time>
      </trkpt>
      <trkpt lat="42.11026" lon="24.8516">
        <ele>209.802621</ele>
        <time>2022-03-03T11:27:54.442Z</time>
      </trkpt>
      <trkpt lat="42.11029" lon="24.85146">
        <ele>209.743556</ele>
        <time>2022-03-03T11:27:57.438Z</time>
      </trkpt>
      <trkpt lat="42.11033" lon="24.85132">
        <ele>209.67949</ele>
        <time>2022-03-03T11:28:00.419Z</time>
      </trkpt>
      <trkpt lat="42.11037" lon="24.85119">
        <ele>209.620079</ele>
        <time>2022-03-03T11:28:03.444Z</time>
      </trkpt>
      <trkpt lat="42.11041" lon="24.85107">
        <ele>209.565509</ele>
        <time>2022-03-03T11:28:06.439Z</time>
      </trkpt>
      <trkpt lat="42.11045" lon="24.85095">
        <ele>209.50893</ele>
        <time>2022-03-03T11:28:09.427Z</time>
      </trkpt>
      <trkpt lat="42.11048" lon="24.85082">
        <ele>209.448727</ele>
        <time>2022-03-03T11:28:12.436Z</time>
      </trkpt>
      <trkpt lat="42.11052" lon="24.85068">
        <ele>209.386739</ele>
        <time>2022-03-03T11:28:15.443Z</time>
      </trkpt>
      <trkpt lat="42.11057" lon="24.85057">
        <ele>209.334588</ele>
        <time>2022-03-03T11:28:18.431Z</time>
      </trkpt>
      <trkpt lat="42.11059" lon="24.85045">
        <ele>209.279635</ele>
        <time>2022-03-03T11:28:22.463Z</time>
      </trkpt>
      <trkpt lat="42.11061" lon="24.8503">
        <ele>209.218363</ele>
        <time>2022-03-03T11:28:25.427Z</time>
      </trkpt>
      <trkpt lat="42.11065" lon="24.85016">
        <ele>209.150492</ele>
        <time>2022-03-03T11:28:28.482Z</time>
      </trkpt>
      <trkpt lat="42.11069" lon="24.85002">
        <ele>209.076431</ele>
        <time>2022-03-03T11:28:31.434Z</time>
      </trkpt>
      <trkpt lat="42.11074" lon="24.84988">
        <ele>208.999692</ele>
        <time>2022-03-03T11:28:34.455Z</time>
      </trkpt>
      <trkpt lat="42.11077" lon="24.84975">
        <ele>208.931229</ele>
        <time>2022-03-03T11:28:37.435Z</time>
      </trkpt>
      <trkpt lat="42.11081" lon="24.84961">
        <ele>208.856895</ele>
        <time>2022-03-03T11:28:40.458Z</time>
      </trkpt>
      <trkpt lat="42.11085" lon="24.84948">
        <ele>208.785352</ele>
        <time>2022-03-03T11:28:43.461Z</time>
      </trkpt>
      <trkpt lat="42.1109" lon="24.84934">
        <ele>208.709468</ele>
        <time>2022-03-03T11:28:46.450Z</time>
      </trkpt>
      <trkpt lat="42.11095" lon="24.8492">
        <ele>208.630816</ele>
        <time>2022-03-03T11:28:49.426Z</time>
      </trkpt>
      <trkpt lat="42.11099" lon="24.84905">
        <ele>208.553078</ele>
        <time>2022-03-03T11:28:52.434Z</time>
      </trkpt>
      <trkpt lat="42.11105" lon="24.84891">
        <ele>208.474319</ele>
        <time>2022-03-03T11:28:55.437Z</time>
      </trkpt>
      <trkpt lat="42.1111" lon="24.84877">
        <ele>208.394293</ele>
        <time>2022-03-03T11:28:58.432Z</time>
      </trkpt>
      <trkpt lat="42.11114" lon="24.84863">
        <ele>208.319449</ele>
        <time>2022-03-03T11:29:01.452Z</time>
      </trkpt>
      <trkpt lat="42.1112" lon="24.84848">
        <ele>208.237578</ele>
        <time>2022-03-03T11:29:04.412Z</time>
      </trkpt>
      <trkpt lat="42.11124" lon="24.84834">
        <ele>208.159528</ele>
        <time>2022-03-03T11:29:07.472Z</time>
      </trkpt>
      <trkpt lat="42.11128" lon="24.84819">
        <ele>208.078887</ele>
        <time>2022-03-03T11:29:10.439Z</time>
      </trkpt>
      <trkpt lat="42.11132" lon="24.84804">
        <ele>208.003391</ele>
        <time>2022-03-03T11:29:13.468Z</time>
      </trkpt>
      <trkpt lat="42.11135" lon="24.84789">
        <ele>207.913993</ele>
        <time>2022-03-03T11:29:16.424Z</time>
      </trkpt>
      <trkpt lat="42.11141" lon="24.84774">
        <ele>207.785863</ele>
        <time>2022-03-03T11:29:19.488Z</time>
      </trkpt>
      <trkpt lat="42.11146" lon="24.84758">
        <ele>207.656248</ele>
        <time>2022-03-03T11:29:22.430Z</time>
      </trkpt>
      <trkpt lat="42.1115" lon="24.84742">
        <ele>207.526814</ele>
        <time>2022-03-03T11:29:25.418Z</time>
      </trkpt>
      <trkpt lat="42.11155" lon="24.84725">
        <ele>207.398433</ele>
        <time>2022-03-03T11:29:28.443Z</time>
      </trkpt>
      <trkpt lat="42.11157" lon="24.84714">
        <ele>207.306751</ele>
        <time>2022-03-03T11:29:30.451Z</time>
      </trkpt>
      <trkpt lat="42.11162" lon="24.84702">
        <ele>207.209467</ele>
        <time>2022-03-03T11:29:32.434Z</time>
      </trkpt>
      <trkpt lat="42.11167" lon="24.84686">
        <ele>207.078246</ele>
        <time>2022-03-03T11:29:35.478Z</time>
      </trkpt>
      <trkpt lat="42.11172" lon="24.8467">
        <ele>206.951373</ele>
        <time>2022-03-03T11:29:38.424Z</time>
      </trkpt>
      <trkpt lat="42.11176" lon="24.84657">
        <ele>206.837489</ele>
        <time>2022-03-03T11:29:41.435Z</time>
      </trkpt>
      <trkpt lat="42.11182" lon="24.84643">
        <ele>206.725183</ele>
        <time>2022-03-03T11:29:44.404Z</time>
      </trkpt>
      <trkpt lat="42.11186" lon="24.84628">
        <ele>206.603099</ele>
        <time>2022-03-03T11:29:47.462Z</time>
      </trkpt>
      <trkpt lat="42.1119" lon="24.84613">
        <ele>206.480553</ele>
        <time>2022-03-03T11:29:50.430Z</time>
      </trkpt>
      <trkpt lat="42.11194" lon="24.84597">
        <ele>206.358129</ele>
        <time>2022-03-03T11:29:53.413Z</time>
      </trkpt>
      <trkpt lat="42.11198" lon="24.84583">
        <ele>206.245509</ele>
        <time>2022-03-03T11:29:56.442Z</time>
      </trkpt>
      <trkpt lat="42.11203" lon="24.84569">
        <ele>206.130818</ele>
        <time>2022-03-03T11:29:59.436Z</time>
      </trkpt>
      <trkpt lat="42.11208" lon="24.84555">
        <ele>205.972089</ele>
        <time>2022-03-03T11:30:02.438Z</time>
      </trkpt>
      <trkpt lat="42.11212" lon="24.8454">
        <ele>205.801937</ele>
        <time>2022-03-03T11:30:05.444Z</time>
      </trkpt>
      <trkpt lat="42.11217" lon="24.84525">
        <ele>205.631593</ele>
        <time>2022-03-03T11:30:08.427Z</time>
      </trkpt>
      <trkpt lat="42.11221" lon="24.84509">
        <ele>205.458535</ele>
        <time>2022-03-03T11:30:11.435Z</time>
      </trkpt>
      <trkpt lat="42.11225" lon="24.84493">
        <ele>205.285321</ele>
        <time>2022-03-03T11:30:14.420Z</time>
      </trkpt>
      <trkpt lat="42.11229" lon="24.84477">
        <ele>205.104958</ele>
        <time>2022-03-03T11:30:17.449Z</time>
      </trkpt>
      <trkpt lat="42.11233" lon="24.84461">
        <ele>204.933809</ele>
        <time>2022-03-03T11:30:20.470Z</time>
      </trkpt>
      <trkpt lat="42.11237" lon="24.84446">
        <ele>204.767063</ele>
        <time>2022-03-03T11:30:23.435Z</time>
      </trkpt>
      <trkpt lat="42.11243" lon="24.84431">
        <ele>204.591971</ele>
        <time>2022-03-03T11:30:26.434Z</time>
      </trkpt>
      <trkpt lat="42.11248" lon="24.84415">
        <ele>204.41631</ele>
        <time>2022-03-03T11:30:29.442Z</time>
      </trkpt>
      <trkpt lat="42.11252" lon="24.84401">
        <ele>204.253427</ele>
        <time>2022-03-03T11:30:32.435Z</time>
      </trkpt>
      <trkpt lat="42.11256" lon="24.84388">
        <ele>204.108541</ele>
        <time>2022-03-03T11:30:35.425Z</time>
      </trkpt>
      <trkpt lat="42.11261" lon="24.84375">
        <ele>203.953144</ele>
        <time>2022-03-03T11:30:38.446Z</time>
      </trkpt>
      <trkpt lat="42.11266" lon="24.84358">
        <ele>203.771738</ele>
        <time>2022-03-03T11:30:41.434Z</time>
      </trkpt>
      <trkpt lat="42.1127" lon="24.84343">
        <ele>203.629798</ele>
        <time>2022-03-03T11:30:44.411Z</time>
      </trkpt>
      <trkpt lat="42.11275" lon="24.84328">
        <ele>203.837345</ele>
        <time>2022-03-03T11:30:47.439Z</time>
      </trkpt>
      <trkpt lat="42.1128" lon="24.84314">
        <ele>204.033896</ele>
        <time>2022-03-03T11:30:50.418Z</time>
      </trkpt>
      <trkpt lat="42.11284" lon="24.843">
        <ele>204.22521</ele>
        <time>2022-03-03T11:30:53.426Z</time>
      </trkpt>
      <trkpt lat="42.11288" lon="24.84286">
        <ele>204.423603</ele>
        <time>2022-03-03T11:30:56.475Z</time>
      </trkpt>
      <trkpt lat="42.11292" lon="24.84272">
        <ele>204.608068</ele>
        <time>2022-03-03T11:30:59.463Z</time>
      </trkpt>
      <trkpt lat="42.11297" lon="24.8426">
        <ele>204.789246</ele>
        <time>2022-03-03T11:31:02.438Z</time>
      </trkpt>
      <trkpt lat="42.11301" lon="24.84247">
        <ele>204.973817</ele>
        <time>2022-03-03T11:31:05.469Z</time>
      </trkpt>
      <trkpt lat="42.11305" lon="24.84232">
        <ele>205.164911</ele>
        <time>2022-03-03T11:31:08.442Z</time>
      </trkpt>
      <trkpt lat="42.11308" lon="24.84218">
        <ele>205.35583</ele>
        <time>2022-03-03T11:31:11.412Z</time>
      </trkpt>
      <trkpt lat="42.11311" lon="24.84204">
        <ele>205.546014</ele>
        <time>2022-03-03T11:31:14.411Z</time>
      </trkpt>
      <trkpt lat="42.11316" lon="24.84191">
        <ele>205.733253</ele>
        <time>2022-03-03T11:31:17.458Z</time>
      </trkpt>
      <trkpt lat="42.1132" lon="24.84178">
        <ele>205.908073</ele>
        <time>2022-03-03T11:31:20.423Z</time>
      </trkpt>
      <trkpt lat="42.11323" lon="24.84166">
        <ele>206.075689</ele>
        <time>2022-03-03T11:31:23.511Z</time>
      </trkpt>
      <trkpt lat="42.11326" lon="24.84152">
        <ele>206.26516</ele>
        <time>2022-03-03T11:31:26.445Z</time>
      </trkpt>
      <trkpt lat="42.1133" lon="24.84138">
        <ele>206.456802</ele>
        <time>2022-03-03T11:31:29.427Z</time>
      </trkpt>
      <trkpt lat="42.11334" lon="24.84125">
        <ele>206.638038</ele>
        <time>2022-03-03T11:31:32.426Z</time>
      </trkpt>
      <trkpt lat="42.11339" lon="24.84111">
        <ele>206.71928</ele>
        <time>2022-03-03T11:31:35.431Z</time>
      </trkpt>
      <trkpt lat="42.11343" lon="24.84097">
        <ele>206.719387</ele>
        <time>2022-03-03T11:31:38.434Z</time>
      </trkpt>
      <trkpt lat="42.11349" lon="24.84085">
        <ele>206.719489</ele>
        <time>2022-03-03T11:31:41.435Z</time>
      </trkpt>
      <trkpt lat="42.11353" lon="24.84071">
        <ele>206.719599</ele>
        <time>2022-03-03T11:31:44.431Z</time>
      </trkpt>
      <trkpt lat="42.11357" lon="24.84059">
        <ele>206.719692</ele>
        <time>2022-03-03T11:31:47.442Z</time>
      </trkpt>
      <trkpt lat="42.11359" lon="24.84045">
        <ele>206.719794</ele>
        <time>2022-03-03T11:31:50.442Z</time>
      </trkpt>
      <trkpt lat="42.11364" lon="24.84031">
        <ele>206.719904</ele>
        <time>2022-03-03T11:31:53.418Z</time>
      </trkpt>
      <trkpt lat="42.11368" lon="24.84017">
        <ele>206.720011</ele>
        <time>2022-03-03T11:31:56.468Z</time>
      </trkpt>
      <trkpt lat="42.11371" lon="24.84003">
        <ele>206.720113</ele>
        <time>2022-03-03T11:31:59.437Z</time>
      </trkpt>
      <trkpt lat="42.11375" lon="24.8399">
        <ele>206.720212</ele>
        <time>2022-03-03T11:32:02.425Z</time>
      </trkpt>
      <trkpt lat="42.11379" lon="24.83976">
        <ele>206.720315</ele>
        <time>2022-03-03T11:32:05.441Z</time>
      </trkpt>
      <trkpt lat="42.11383" lon="24.83962">
        <ele>206.720424</ele>
        <time>2022-03-03T11:32:08.430Z</time>
      </trkpt>
      <trkpt lat="42.11386" lon="24.83947">
        <ele>206.720533</ele>
        <time>2022-03-03T11:32:11.475Z</time>
      </trkpt>
      <trkpt lat="42.11391" lon="24.83933">
        <ele>206.720644</ele>
        <time>2022-03-03T11:32:14.423Z</time>
      </trkpt>
      <trkpt lat="42.11395" lon="24.83919">
        <ele>206.720752</ele>
        <time>2022-03-03T11:32:17.440Z</time>
      </trkpt>
      <trkpt lat="42.11399" lon="24.83905">
        <ele>206.720859</ele>
        <time>2022-03-03T11:32:20.426Z</time>
      </trkpt>
      <trkpt lat="42.11403" lon="24.83893">
        <ele>206.714814</ele>
        <time>2022-03-03T11:32:23.458Z</time>
      </trkpt>
      <trkpt lat="42.11408" lon="24.8388">
        <ele>206.665903</ele>
        <time>2022-03-03T11:32:26.447Z</time>
      </trkpt>
      <trkpt lat="42.11412" lon="24.83867">
        <ele>206.614457</ele>
        <time>2022-03-03T11:32:29.423Z</time>
      </trkpt>
      <trkpt lat="42.11417" lon="24.83854">
        <ele>206.56398</ele>
        <time>2022-03-03T11:32:32.490Z</time>
      </trkpt>
      <trkpt lat="42.11421" lon="24.8384">
        <ele>206.510188</ele>
        <time>2022-03-03T11:32:35.434Z</time>
      </trkpt>
      <trkpt lat="42.11425" lon="24.83824">
        <ele>206.452571</ele>
        <time>2022-03-03T11:32:38.446Z</time>
      </trkpt>
      <trkpt lat="42.11429" lon="24.83809">
        <ele>206.398626</ele>
        <time>2022-03-03T11:32:41.445Z</time>
      </trkpt>
      <trkpt lat="42.11433" lon="24.83795">
        <ele>206.344658</ele>
        <time>2022-03-03T11:32:44.414Z</time>
      </trkpt>
      <trkpt lat="42.11438" lon="24.83782">
        <ele>206.29272</ele>
        <time>2022-03-03T11:32:47.433Z</time>
      </trkpt>
      <trkpt lat="42.11442" lon="24.83769">
        <ele>206.243349</ele>
        <time>2022-03-03T11:32:50.419Z</time>
      </trkpt>
      <trkpt lat="42.11446" lon="24.83755">
        <ele>206.190706</ele>
        <time>2022-03-03T11:32:53.454Z</time>
      </trkpt>
      <trkpt lat="42.1145" lon="24.83741">
        <ele>206.137907</ele>
        <time>2022-03-03T11:32:56.431Z</time>
      </trkpt>
      <trkpt lat="42.11453" lon="24.83726">
        <ele>206.084661</ele>
        <time>2022-03-03T11:32:59.447Z</time>
      </trkpt>
      <trkpt lat="42.11457" lon="24.83713">
        <ele>206.036115</ele>
        <time>2022-03-03T11:33:02.443Z</time>
      </trkpt>
      <trkpt lat="42.11461" lon="24.83701">
        <ele>205.989385</ele>
        <time>2022-03-03T11:33:05.492Z</time>
      </trkpt>
      <trkpt lat="42.11464" lon="24.83688">
        <ele>205.941344</ele>
        <time>2022-03-03T11:33:08.422Z</time>
      </trkpt>
      <trkpt lat="42.11468" lon="24.83675">
        <ele>205.893772</ele>
        <time>2022-03-03T11:33:11.439Z</time>
      </trkpt>
      <trkpt lat="42.11473" lon="24.83663">
        <ele>205.696886</ele>
        <time>2022-03-03T11:33:14.452Z</time>
      </trkpt>
      <trkpt lat="42.11477" lon="24.8365">
        <ele>205.387852</ele>
        <time>2022-03-03T11:33:17.410Z</time>
      </trkpt>
      <trkpt lat="42.1148" lon="24.83636">
        <ele>205.060383</ele>
        <time>2022-03-03T11:33:20.427Z</time>
      </trkpt>
      <trkpt lat="42.11485" lon="24.83622">
        <ele>204.713973</ele>
        <time>2022-03-03T11:33:23.438Z</time>
      </trkpt>
      <trkpt lat="42.1149" lon="24.8361">
        <ele>204.394516</ele>
        <time>2022-03-03T11:33:26.427Z</time>
      </trkpt>
      <trkpt lat="42.11495" lon="24.83597">
        <ele>204.070367</ele>
        <time>2022-03-03T11:33:29.436Z</time>
      </trkpt>
      <trkpt lat="42.11503" lon="24.83586">
        <ele>203.721609</ele>
        <time>2022-03-03T11:33:32.444Z</time>
      </trkpt>
      <trkpt lat="42.11512" lon="24.83576">
        <ele>203.383775</ele>
        <time>2022-03-03T11:33:35.432Z</time>
      </trkpt>
      <trkpt lat="42.11519" lon="24.83568">
        <ele>203.092303</ele>
        <time>2022-03-03T11:33:38.485Z</time>
      </trkpt>
      <trkpt lat="42.11527" lon="24.8356">
        <ele>202.788434</ele>
        <time>2022-03-03T11:33:41.436Z</time>
      </trkpt>
      <trkpt lat="42.11535" lon="24.83551">
        <ele>202.480655</ele>
        <time>2022-03-03T11:33:44.417Z</time>
      </trkpt>
      <trkpt lat="42.11543" lon="24.83542">
        <ele>202.163089</ele>
        <time>2022-03-03T11:33:47.443Z</time>
      </trkpt>
      <trkpt lat="42.11551" lon="24.83532">
        <ele>201.827338</ele>
        <time>2022-03-03T11:33:50.441Z</time>
      </trkpt>
      <trkpt lat="42.11559" lon="24.83523">
        <ele>201.509773</ele>
        <time>2022-03-03T11:33:53.434Z</time>
      </trkpt>
      <trkpt lat="42.11567" lon="24.83513">
        <ele>201.180933</ele>
        <time>2022-03-03T11:33:56.437Z</time>
      </trkpt>
      <trkpt lat="42.11575" lon="24.83504">
        <ele>200.857322</ele>
        <time>2022-03-03T11:33:59.431Z</time>
      </trkpt>
      <trkpt lat="42.11583" lon="24.83495">
        <ele>200.548904</ele>
        <time>2022-03-03T11:34:02.445Z</time>
      </trkpt>
      <trkpt lat="42.11591" lon="24.83487">
        <ele>200.355237</ele>
        <time>2022-03-03T11:34:05.435Z</time>
      </trkpt>
      <trkpt lat="42.11599" lon="24.83478">
        <ele>200.228781</ele>
        <time>2022-03-03T11:34:08.434Z</time>
      </trkpt>
      <trkpt lat="42.11606" lon="24.83469">
        <ele>200.10414</ele>
        <time>2022-03-03T11:34:11.434Z</time>
      </trkpt>
      <trkpt lat="42.11614" lon="24.8346">
        <ele>199.970221</ele>
        <time>2022-03-03T11:34:14.436Z</time>
      </trkpt>
      <trkpt lat="42.11622" lon="24.83451">
        <ele>199.842813</ele>
        <time>2022-03-03T11:34:17.428Z</time>
      </trkpt>
      <trkpt lat="42.1163" lon="24.83443">
        <ele>199.717571</ele>
        <time>2022-03-03T11:34:20.449Z</time>
      </trkpt>
      <trkpt lat="42.11637" lon="24.83435">
        <ele>199.59702</ele>
        <time>2022-03-03T11:34:23.445Z</time>
      </trkpt>
      <trkpt lat="42.11645" lon="24.83426">
        <ele>199.469017</ele>
        <time>2022-03-03T11:34:26.432Z</time>
      </trkpt>
      <trkpt lat="42.11653" lon="24.83417">
        <ele>199.344193</ele>
        <time>2022-03-03T11:34:29.435Z</time>
      </trkpt>
      <trkpt lat="42.11662" lon="24.83411">
        <ele>199.21483</ele>
        <time>2022-03-03T11:34:32.437Z</time>
      </trkpt>
      <trkpt lat="42.11671" lon="24.83405">
        <ele>199.089923</ele>
        <time>2022-03-03T11:34:35.419Z</time>
      </trkpt>
      <trkpt lat="42.1168" lon="24.83399">
        <ele>198.963386</ele>
        <time>2022-03-03T11:34:38.441Z</time>
      </trkpt>
      <trkpt lat="42.11688" lon="24.83391">
        <ele>198.837708</ele>
        <time>2022-03-03T11:34:41.435Z</time>
      </trkpt>
      <trkpt lat="42.11694" lon="24.8338">
        <ele>198.709733</ele>
        <time>2022-03-03T11:34:44.427Z</time>
      </trkpt>
      <trkpt lat="42.117" lon="24.83369">
        <ele>198.581006</ele>
        <time>2022-03-03T11:34:47.478Z</time>
      </trkpt>
      <trkpt lat="42.11707" lon="24.83359">
        <ele>198.453364</ele>
        <time>2022-03-03T11:34:50.442Z</time>
      </trkpt>
      <trkpt lat="42.11715" lon="24.83349">
        <ele>198.315048</ele>
        <time>2022-03-03T11:34:53.453Z</time>
      </trkpt>
      <trkpt lat="42.11723" lon="24.83339">
        <ele>198.178006</ele>
        <time>2022-03-03T11:34:56.461Z</time>
      </trkpt>
      <trkpt lat="42.11731" lon="24.8333">
        <ele>197.930861</ele>
        <time>2022-03-03T11:34:59.463Z</time>
      </trkpt>
      <trkpt lat="42.11739" lon="24.83321">
        <ele>197.688064</ele>
        <time>2022-03-03T11:35:02.417Z</time>
      </trkpt>
      <trkpt lat="42.11746" lon="24.83313">
        <ele>197.437206</ele>
        <time>2022-03-03T11:35:05.435Z</time>
      </trkpt>
      <trkpt lat="42.11754" lon="24.83304">
        <ele>197.190172</ele>
        <time>2022-03-03T11:35:08.449Z</time>
      </trkpt>
      <trkpt lat="42.11762" lon="24.83295">
        <ele>196.932753</ele>
        <time>2022-03-03T11:35:11.415Z</time>
      </trkpt>
      <trkpt lat="42.1177" lon="24.83287">
        <ele>196.689957</ele>
        <time>2022-03-03T11:35:14.398Z</time>
      </trkpt>
      <trkpt lat="42.11777" lon="24.83278">
        <ele>196.459608</ele>
        <time>2022-03-03T11:35:17.414Z</time>
      </trkpt>
      <trkpt lat="42.11784" lon="24.83269">
        <ele>196.200499</ele>
        <time>2022-03-03T11:35:20.416Z</time>
      </trkpt>
      <trkpt lat="42.11792" lon="24.83259">
        <ele>195.944456</ele>
        <time>2022-03-03T11:35:23.435Z</time>
      </trkpt>
      <trkpt lat="42.118" lon="24.8325">
        <ele>195.686548</ele>
        <time>2022-03-03T11:35:26.469Z</time>
      </trkpt>
      <trkpt lat="42.11808" lon="24.83241">
        <ele>195.421812</ele>
        <time>2022-03-03T11:35:29.474Z</time>
      </trkpt>
      <trkpt lat="42.11816" lon="24.83232">
        <ele>195.166404</ele>
        <time>2022-03-03T11:35:32.485Z</time>
      </trkpt>
      <trkpt lat="42.11824" lon="24.83223">
        <ele>194.907808</ele>
        <time>2022-03-03T11:35:35.443Z</time>
      </trkpt>
      <trkpt lat="42.11833" lon="24.83213">
        <ele>194.626982</ele>
        <time>2022-03-03T11:35:38.431Z</time>
      </trkpt>
      <trkpt lat="42.11841" lon="24.83203">
        <ele>194.355374</ele>
        <time>2022-03-03T11:35:41.449Z</time>
      </trkpt>
      <trkpt lat="42.1185" lon="24.83194">
        <ele>194.091071</ele>
        <time>2022-03-03T11:35:44.426Z</time>
      </trkpt>
      <trkpt lat="42.11858" lon="24.83184">
        <ele>193.809294</ele>
        <time>2022-03-03T11:35:47.446Z</time>
      </trkpt>
      <trkpt lat="42.11867" lon="24.83174">
        <ele>193.695522</ele>
        <time>2022-03-03T11:35:50.441Z</time>
      </trkpt>
      <trkpt lat="42.11876" lon="24.83164">
        <ele>193.653865</ele>
        <time>2022-03-03T11:35:53.440Z</time>
      </trkpt>
      <trkpt lat="42.11884" lon="24.83154">
        <ele>193.612934</ele>
        <time>2022-03-03T11:35:56.436Z</time>
      </trkpt>
      <trkpt lat="42.11893" lon="24.83145">
        <ele>193.572626</ele>
        <time>2022-03-03T11:35:59.438Z</time>
      </trkpt>
      <trkpt lat="42.11901" lon="24.83135">
        <ele>193.533667</ele>
        <time>2022-03-03T11:36:02.426Z</time>
      </trkpt>
      <trkpt lat="42.11909" lon="24.83126">
        <ele>193.493982</ele>
        <time>2022-03-03T11:36:05.435Z</time>
      </trkpt>
      <trkpt lat="42.11918" lon="24.83116">
        <ele>193.453513</ele>
        <time>2022-03-03T11:36:08.425Z</time>
      </trkpt>
      <trkpt lat="42.11926" lon="24.83106">
        <ele>193.413755</ele>
        <time>2022-03-03T11:36:11.454Z</time>
      </trkpt>
      <trkpt lat="42.11935" lon="24.83097">
        <ele>193.374514</ele>
        <time>2022-03-03T11:36:14.429Z</time>
      </trkpt>
      <trkpt lat="42.11942" lon="24.83089">
        <ele>193.339363</ele>
        <time>2022-03-03T11:36:17.460Z</time>
      </trkpt>
      <trkpt lat="42.11949" lon="24.83081">
        <ele>193.306342</ele>
        <time>2022-03-03T11:36:20.426Z</time>
      </trkpt>
      <trkpt lat="42.11957" lon="24.8307">
        <ele>193.264538</ele>
        <time>2022-03-03T11:36:24.416Z</time>
      </trkpt>
      <trkpt lat="42.11964" lon="24.83062">
        <ele>193.231148</ele>
        <time>2022-03-03T11:36:27.435Z</time>
      </trkpt>
      <trkpt lat="42.11972" lon="24.83053">
        <ele>193.19338</ele>
        <time>2022-03-03T11:36:30.434Z</time>
      </trkpt>
      <trkpt lat="42.1198" lon="24.83045">
        <ele>193.156178</ele>
        <time>2022-03-03T11:36:33.447Z</time>
      </trkpt>
      <trkpt lat="42.11988" lon="24.83036">
        <ele>193.119707</ele>
        <time>2022-03-03T11:36:36.447Z</time>
      </trkpt>
      <trkpt lat="42.11996" lon="24.83026">
        <ele>193.080672</ele>
        <time>2022-03-03T11:36:39.437Z</time>
      </trkpt>
      <trkpt lat="42.12004" lon="24.83017">
        <ele>193.092549</ele>
        <time>2022-03-03T11:36:42.433Z</time>
      </trkpt>
      <trkpt lat="42.12013" lon="24.83007">
        <ele>193.118186</ele>
        <time>2022-03-03T11:36:45.446Z</time>
      </trkpt>
      <trkpt lat="42.12021" lon="24.82997">
        <ele>193.142431</ele>
        <time>2022-03-03T11:36:48.439Z</time>
      </trkpt>
      <trkpt lat="42.12029" lon="24.82988">
        <ele>193.166398</ele>
        <time>2022-03-03T11:36:51.447Z</time>
      </trkpt>
      <trkpt lat="42.12037" lon="24.82978">
        <ele>193.189748</ele>
        <time>2022-03-03T11:36:54.425Z</time>
      </trkpt>
      <trkpt lat="42.12045" lon="24.82969">
        <ele>193.213158</ele>
        <time>2022-03-03T11:36:57.492Z</time>
      </trkpt>
      <trkpt lat="42.12052" lon="24.82961">
        <ele>193.234729</ele>
        <time>2022-03-03T11:37:00.447Z</time>
      </trkpt>
      <trkpt lat="42.1206" lon="24.82952">
        <ele>193.256468</ele>
        <time>2022-03-03T11:37:03.439Z</time>
      </trkpt>
      <trkpt lat="42.12067" lon="24.82943">
        <ele>193.278934</ele>
        <time>2022-03-03T11:37:06.447Z</time>
      </trkpt>
      <trkpt lat="42.12075" lon="24.82934">
        <ele>193.302011</ele>
        <time>2022-03-03T11:37:09.432Z</time>
      </trkpt>
      <trkpt lat="42.12083" lon="24.82924">
        <ele>193.326385</ele>
        <time>2022-03-03T11:37:12.456Z</time>
      </trkpt>
      <trkpt lat="42.12091" lon="24.82915">
        <ele>193.349923</ele>
        <time>2022-03-03T11:37:15.430Z</time>
      </trkpt>
      <trkpt lat="42.12099" lon="24.82907">
        <ele>193.372903</ele>
        <time>2022-03-03T11:37:18.418Z</time>
      </trkpt>
      <trkpt lat="42.12107" lon="24.82897">
        <ele>193.397104</ele>
        <time>2022-03-03T11:37:22.435Z</time>
      </trkpt>
      <trkpt lat="42.12115" lon="24.82888">
        <ele>193.420405</ele>
        <time>2022-03-03T11:37:26.442Z</time>
      </trkpt>
      <trkpt lat="42.12124" lon="24.82878">
        <ele>193.446878</ele>
        <time>2022-03-03T11:37:30.523Z</time>
      </trkpt>
      <trkpt lat="42.12131" lon="24.8287">
        <ele>193.467178</ele>
        <time>2022-03-03T11:37:33.435Z</time>
      </trkpt>
      <trkpt lat="42.12139" lon="24.82861">
        <ele>193.589201</ele>
        <time>2022-03-03T11:37:36.423Z</time>
      </trkpt>
      <trkpt lat="42.12149" lon="24.82851">
        <ele>193.805162</ele>
        <time>2022-03-03T11:37:39.439Z</time>
      </trkpt>
      <trkpt lat="42.12157" lon="24.8284">
        <ele>194.021405</ele>
        <time>2022-03-03T11:37:42.438Z</time>
      </trkpt>
      <trkpt lat="42.12165" lon="24.8283">
        <ele>194.215787</ele>
        <time>2022-03-03T11:37:45.431Z</time>
      </trkpt>
      <trkpt lat="42.12172" lon="24.82822">
        <ele>194.381014</ele>
        <time>2022-03-03T11:37:48.435Z</time>
      </trkpt>
      <trkpt lat="42.12181" lon="24.82812">
        <ele>194.598923</ele>
        <time>2022-03-03T11:37:52.451Z</time>
      </trkpt>
      <trkpt lat="42.1219" lon="24.82802">
        <ele>194.806173</ele>
        <time>2022-03-03T11:37:56.431Z</time>
      </trkpt>
      <trkpt lat="42.12197" lon="24.82794">
        <ele>194.972763</ele>
        <time>2022-03-03T11:37:59.445Z</time>
      </trkpt>
      <trkpt lat="42.12204" lon="24.82785">
        <ele>195.146932</ele>
        <time>2022-03-03T11:38:02.479Z</time>
      </trkpt>
      <trkpt lat="42.12213" lon="24.82775">
        <ele>195.355563</ele>
        <time>2022-03-03T11:38:05.437Z</time>
      </trkpt>
      <trkpt lat="42.12222" lon="24.82764">
        <ele>195.569138</ele>
        <time>2022-03-03T11:38:08.447Z</time>
      </trkpt>
      <trkpt lat="42.12231" lon="24.82754">
        <ele>195.779753</ele>
        <time>2022-03-03T11:38:11.443Z</time>
      </trkpt>
      <trkpt lat="42.1224" lon="24.82745">
        <ele>195.979689</ele>
        <time>2022-03-03T11:38:14.427Z</time>
      </trkpt>
      <trkpt lat="42.12247" lon="24.82737">
        <ele>196.157725</ele>
        <time>2022-03-03T11:38:17.422Z</time>
      </trkpt>
      <trkpt lat="42.12255" lon="24.82727">
        <ele>196.352927</ele>
        <time>2022-03-03T11:38:20.434Z</time>
      </trkpt>
      <trkpt lat="42.12264" lon="24.82717">
        <ele>196.552315</ele>
        <time>2022-03-03T11:38:23.430Z</time>
      </trkpt>
      <trkpt lat="42.12273" lon="24.82708">
        <ele>196.772891</ele>
        <time>2022-03-03T11:38:26.456Z</time>
      </trkpt>
      <trkpt lat="42.1228" lon="24.82699">
        <ele>197.042205</ele>
        <time>2022-03-03T11:38:29.447Z</time>
      </trkpt>
      <trkpt lat="42.12288" lon="24.8269">
        <ele>197.311518</ele>
        <time>2022-03-03T11:38:32.446Z</time>
      </trkpt>
      <trkpt lat="42.12296" lon="24.82682">
        <ele>197.5812</ele>
        <time>2022-03-03T11:38:35.473Z</time>
      </trkpt>
      <trkpt lat="42.12304" lon="24.82674">
        <ele>197.8419</ele>
        <time>2022-03-03T11:38:38.445Z</time>
      </trkpt>
      <trkpt lat="42.12312" lon="24.82666">
        <ele>198.102828</ele>
        <time>2022-03-03T11:38:41.437Z</time>
      </trkpt>
      <trkpt lat="42.12319" lon="24.82657">
        <ele>198.363227</ele>
        <time>2022-03-03T11:38:44.435Z</time>
      </trkpt>
      <trkpt lat="42.12326" lon="24.82649">
        <ele>198.612069</ele>
        <time>2022-03-03T11:38:47.434Z</time>
      </trkpt>
      <trkpt lat="42.12335" lon="24.82639">
        <ele>198.903976</ele>
        <time>2022-03-03T11:38:50.435Z</time>
      </trkpt>
      <trkpt lat="42.12343" lon="24.8263">
        <ele>199.204548</ele>
        <time>2022-03-03T11:38:53.440Z</time>
      </trkpt>
      <trkpt lat="42.12352" lon="24.8262">
        <ele>199.495189</ele>
        <time>2022-03-03T11:38:56.433Z</time>
      </trkpt>
      <trkpt lat="42.12359" lon="24.82611">
        <ele>199.761851</ele>
        <time>2022-03-03T11:38:59.437Z</time>
      </trkpt>
      <trkpt lat="42.12366" lon="24.82602">
        <ele>200.03119</ele>
        <time>2022-03-03T11:39:02.438Z</time>
      </trkpt>
      <trkpt lat="42.12373" lon="24.82594">
        <ele>200.269469</ele>
        <time>2022-03-03T11:39:05.448Z</time>
      </trkpt>
      <trkpt lat="42.1238" lon="24.82585">
        <ele>200.528762</ele>
        <time>2022-03-03T11:39:08.429Z</time>
      </trkpt>
      <trkpt lat="42.12386" lon="24.82575">
        <ele>200.778243</ele>
        <time>2022-03-03T11:39:11.440Z</time>
      </trkpt>
      <trkpt lat="42.12394" lon="24.82566">
        <ele>201.039058</ele>
        <time>2022-03-03T11:39:14.477Z</time>
      </trkpt>
      <trkpt lat="42.12402" lon="24.82557">
        <ele>201.322639</ele>
        <time>2022-03-03T11:39:17.426Z</time>
      </trkpt>
      <trkpt lat="42.1241" lon="24.82549">
        <ele>201.515165</ele>
        <time>2022-03-03T11:39:20.458Z</time>
      </trkpt>
      <trkpt lat="42.12418" lon="24.82539">
        <ele>201.521353</ele>
        <time>2022-03-03T11:39:23.446Z</time>
      </trkpt>
      <trkpt lat="42.12426" lon="24.8253">
        <ele>201.52765</ele>
        <time>2022-03-03T11:39:26.486Z</time>
      </trkpt>
      <trkpt lat="42.12434" lon="24.82521">
        <ele>201.533709</ele>
        <time>2022-03-03T11:39:29.444Z</time>
      </trkpt>
      <trkpt lat="42.12441" lon="24.82513">
        <ele>201.539563</ele>
        <time>2022-03-03T11:39:32.450Z</time>
      </trkpt>
      <trkpt lat="42.12449" lon="24.82505">
        <ele>201.545141</ele>
        <time>2022-03-03T11:39:35.430Z</time>
      </trkpt>
      <trkpt lat="42.12457" lon="24.82496">
        <ele>201.551245</ele>
        <time>2022-03-03T11:39:38.434Z</time>
      </trkpt>
      <trkpt lat="42.12465" lon="24.82486">
        <ele>201.557837</ele>
        <time>2022-03-03T11:39:41.454Z</time>
      </trkpt>
      <trkpt lat="42.12474" lon="24.82476">
        <ele>201.564554</ele>
        <time>2022-03-03T11:39:44.430Z</time>
      </trkpt>
      <trkpt lat="42.12482" lon="24.82467">
        <ele>201.57101</ele>
        <time>2022-03-03T11:39:47.428Z</time>
      </trkpt>
      <trkpt lat="42.1249" lon="24.82458">
        <ele>201.57717</ele>
        <time>2022-03-03T11:39:50.443Z</time>
      </trkpt>
      <trkpt lat="42.12498" lon="24.82449">
        <ele>201.583155</ele>
        <time>2022-03-03T11:39:53.434Z</time>
      </trkpt>
      <trkpt lat="42.12505" lon="24.8244">
        <ele>201.589182</ele>
        <time>2022-03-03T11:39:56.427Z</time>
      </trkpt>
      <trkpt lat="42.12513" lon="24.8243">
        <ele>201.595296</ele>
        <time>2022-03-03T11:39:59.455Z</time>
      </trkpt>
      <trkpt lat="42.12521" lon="24.82421">
        <ele>201.601778</ele>
        <time>2022-03-03T11:40:02.419Z</time>
      </trkpt>
      <trkpt lat="42.1253" lon="24.82412">
        <ele>201.608268</ele>
        <time>2022-03-03T11:40:05.464Z</time>
      </trkpt>
      <trkpt lat="42.12538" lon="24.82401">
        <ele>201.614762</ele>
        <time>2022-03-03T11:40:08.425Z</time>
      </trkpt>
      <trkpt lat="42.12546" lon="24.82391">
        <ele>201.629784</ele>
        <time>2022-03-03T11:40:11.475Z</time>
      </trkpt>
      <trkpt lat="42.12555" lon="24.82382">
        <ele>201.6736</ele>
        <time>2022-03-03T11:40:14.451Z</time>
      </trkpt>
      <trkpt lat="42.12563" lon="24.82372">
        <ele>201.717045</ele>
        <time>2022-03-03T11:40:17.468Z</time>
      </trkpt>
      <trkpt lat="42.12572" lon="24.82362">
        <ele>201.761396</ele>
        <time>2022-03-03T11:40:20.433Z</time>
      </trkpt>
      <trkpt lat="42.1258" lon="24.82353">
        <ele>201.802238</ele>
        <time>2022-03-03T11:40:23.477Z</time>
      </trkpt>
      <trkpt lat="42.12589" lon="24.82344">
        <ele>201.846105</ele>
        <time>2022-03-03T11:40:26.443Z</time>
      </trkpt>
      <trkpt lat="42.12597" lon="24.82334">
        <ele>201.889322</ele>
        <time>2022-03-03T11:40:29.446Z</time>
      </trkpt>
      <trkpt lat="42.12606" lon="24.82324">
        <ele>201.933735</ele>
        <time>2022-03-03T11:40:32.436Z</time>
      </trkpt>
      <trkpt lat="42.12615" lon="24.82314">
        <ele>201.980022</ele>
        <time>2022-03-03T11:40:35.447Z</time>
      </trkpt>
      <trkpt lat="42.12624" lon="24.82304">
        <ele>202.026442</ele>
        <time>2022-03-03T11:40:38.437Z</time>
      </trkpt>
      <trkpt lat="42.12633" lon="24.82293">
        <ele>202.070912</ele>
        <time>2022-03-03T11:40:41.439Z</time>
      </trkpt>
      <trkpt lat="42.12641" lon="24.82284">
        <ele>202.113091</ele>
        <time>2022-03-03T11:40:44.420Z</time>
      </trkpt>
      <trkpt lat="42.1265" lon="24.82274">
        <ele>202.158894</ele>
        <time>2022-03-03T11:40:47.439Z</time>
      </trkpt>
      <trkpt lat="42.1266" lon="24.82264">
        <ele>202.205615</ele>
        <time>2022-03-03T11:40:50.443Z</time>
      </trkpt>
      <trkpt lat="42.12669" lon="24.82254">
        <ele>202.251902</ele>
        <time>2022-03-03T11:40:53.444Z</time>
      </trkpt>
      <trkpt lat="42.12678" lon="24.82243">
        <ele>202.300041</ele>
        <time>2022-03-03T11:40:56.436Z</time>
      </trkpt>
      <trkpt lat="42.12688" lon="24.82232">
        <ele>202.162455</ele>
        <time>2022-03-03T11:40:59.426Z</time>
      </trkpt>
      <trkpt lat="42.12697" lon="24.82222">
        <ele>201.891724</ele>
        <time>2022-03-03T11:41:02.428Z</time>
      </trkpt>
      <trkpt lat="42.12706" lon="24.82213">
        <ele>201.64041</ele>
        <time>2022-03-03T11:41:05.494Z</time>
      </trkpt>
      <trkpt lat="42.12714" lon="24.82201">
        <ele>201.380199</ele>
        <time>2022-03-03T11:41:08.419Z</time>
      </trkpt>
      <trkpt lat="42.12723" lon="24.8219">
        <ele>201.10784</ele>
        <time>2022-03-03T11:41:11.429Z</time>
      </trkpt>
      <trkpt lat="42.12732" lon="24.82179">
        <ele>200.824831</ele>
        <time>2022-03-03T11:41:14.417Z</time>
      </trkpt>
      <trkpt lat="42.12742" lon="24.82168">
        <ele>200.547812</ele>
        <time>2022-03-03T11:41:17.428Z</time>
      </trkpt>
      <trkpt lat="42.12752" lon="24.82156">
        <ele>200.244506</ele>
        <time>2022-03-03T11:41:20.433Z</time>
      </trkpt>
      <trkpt lat="42.12759" lon="24.82148">
        <ele>200.036096</ele>
        <time>2022-03-03T11:41:22.437Z</time>
      </trkpt>
      <trkpt lat="42.12767" lon="24.8214">
        <ele>199.825677</ele>
        <time>2022-03-03T11:41:24.432Z</time>
      </trkpt>
      <trkpt lat="42.12777" lon="24.8213">
        <ele>199.534246</ele>
        <time>2022-03-03T11:41:27.417Z</time>
      </trkpt>
      <trkpt lat="42.12787" lon="24.82119">
        <ele>199.260743</ele>
        <time>2022-03-03T11:41:30.425Z</time>
      </trkpt>
      <trkpt lat="42.12797" lon="24.82108">
        <ele>198.973034</ele>
        <time>2022-03-03T11:41:33.434Z</time>
      </trkpt>
      <trkpt lat="42.12806" lon="24.82098">
        <ele>198.696017</ele>
        <time>2022-03-03T11:41:36.434Z</time>
      </trkpt>
      <trkpt lat="42.12816" lon="24.82087">
        <ele>198.42356</ele>
        <time>2022-03-03T11:41:39.498Z</time>
      </trkpt>
      <trkpt lat="42.12824" lon="24.82076">
        <ele>198.134619</ele>
        <time>2022-03-03T11:41:42.463Z</time>
      </trkpt>
      <trkpt lat="42.12833" lon="24.82065">
        <ele>197.825705</ele>
        <time>2022-03-03T11:41:45.440Z</time>
      </trkpt>
      <trkpt lat="42.12843" lon="24.82054">
        <ele>197.499894</ele>
        <time>2022-03-03T11:41:48.454Z</time>
      </trkpt>
      <trkpt lat="42.12853" lon="24.82043">
        <ele>197.16639</ele>
        <time>2022-03-03T11:41:51.440Z</time>
      </trkpt>
      <trkpt lat="42.12863" lon="24.82032">
        <ele>196.8212</ele>
        <time>2022-03-03T11:41:54.443Z</time>
      </trkpt>
      <trkpt lat="42.1287" lon="24.82025">
        <ele>196.588235</ele>
        <time>2022-03-03T11:41:56.433Z</time>
      </trkpt>
      <trkpt lat="42.1288" lon="24.82014">
        <ele>196.264892</ele>
        <time>2022-03-03T11:41:59.414Z</time>
      </trkpt>
      <trkpt lat="42.12889" lon="24.82003">
        <ele>195.932109</ele>
        <time>2022-03-03T11:42:02.446Z</time>
      </trkpt>
      <trkpt lat="42.12898" lon="24.81992">
        <ele>195.61998</ele>
        <time>2022-03-03T11:42:05.435Z</time>
      </trkpt>
      <trkpt lat="42.12907" lon="24.81981">
        <ele>195.313523</ele>
        <time>2022-03-03T11:42:08.437Z</time>
      </trkpt>
      <trkpt lat="42.12917" lon="24.81971">
        <ele>195.001857</ele>
        <time>2022-03-03T11:42:11.440Z</time>
      </trkpt>
      <trkpt lat="42.12926" lon="24.81961">
        <ele>194.696643</ele>
        <time>2022-03-03T11:42:14.424Z</time>
      </trkpt>
      <trkpt lat="42.12935" lon="24.8195">
        <ele>194.385149</ele>
        <time>2022-03-03T11:42:17.445Z</time>
      </trkpt>
      <trkpt lat="42.12943" lon="24.8194">
        <ele>194.078146</ele>
        <time>2022-03-03T11:42:20.442Z</time>
      </trkpt>
      <trkpt lat="42.12953" lon="24.81929">
        <ele>193.759515</ele>
        <time>2022-03-03T11:42:23.473Z</time>
      </trkpt>
      <trkpt lat="42.12962" lon="24.81918">
        <ele>193.691111</ele>
        <time>2022-03-03T11:42:26.423Z</time>
      </trkpt>
      <trkpt lat="42.12971" lon="24.81908">
        <ele>193.770973</ele>
        <time>2022-03-03T11:42:29.464Z</time>
      </trkpt>
      <trkpt lat="42.12979" lon="24.81899">
        <ele>193.847611</ele>
        <time>2022-03-03T11:42:32.436Z</time>
      </trkpt>
      <trkpt lat="42.12987" lon="24.81888">
        <ele>193.926988</ele>
        <time>2022-03-03T11:42:35.446Z</time>
      </trkpt>
      <trkpt lat="42.12997" lon="24.81878">
        <ele>194.010792</ele>
        <time>2022-03-03T11:42:38.474Z</time>
      </trkpt>
      <trkpt lat="42.13006" lon="24.81869">
        <ele>194.087867</ele>
        <time>2022-03-03T11:42:41.423Z</time>
      </trkpt>
      <trkpt lat="42.13015" lon="24.81859">
        <ele>194.166545</ele>
        <time>2022-03-03T11:42:44.411Z</time>
      </trkpt>
      <trkpt lat="42.13023" lon="24.81849">
        <ele>194.243274</ele>
        <time>2022-03-03T11:42:47.425Z</time>
      </trkpt>
      <trkpt lat="42.13032" lon="24.81839">
        <ele>194.320701</ele>
        <time>2022-03-03T11:42:50.446Z</time>
      </trkpt>
      <trkpt lat="42.1304" lon="24.81829">
        <ele>194.399379</ele>
        <time>2022-03-03T11:42:53.415Z</time>
      </trkpt>
      <trkpt lat="42.13049" lon="24.8182">
        <ele>194.475596</ele>
        <time>2022-03-03T11:42:56.448Z</time>
      </trkpt>
      <trkpt lat="42.13057" lon="24.81811">
        <ele>194.549017</ele>
        <time>2022-03-03T11:42:59.443Z</time>
      </trkpt>
      <trkpt lat="42.13066" lon="24.81801">
        <ele>194.625234</ele>
        <time>2022-03-03T11:43:02.458Z</time>
      </trkpt>
      <trkpt lat="42.13074" lon="24.81791">
        <ele>194.70043</ele>
        <time>2022-03-03T11:43:05.438Z</time>
      </trkpt>
      <trkpt lat="42.13082" lon="24.81782">
        <ele>194.774434</ele>
        <time>2022-03-03T11:43:08.470Z</time>
      </trkpt>
      <trkpt lat="42.1309" lon="24.81772">
        <ele>194.849815</ele>
        <time>2022-03-03T11:43:11.450Z</time>
      </trkpt>
      <trkpt lat="42.13098" lon="24.81763">
        <ele>194.947955</ele>
        <time>2022-03-03T11:43:14.523Z</time>
      </trkpt>
      <trkpt lat="42.13105" lon="24.81754">
        <ele>195.057474</ele>
        <time>2022-03-03T11:43:17.437Z</time>
      </trkpt>
      <trkpt lat="42.13115" lon="24.81744">
        <ele>195.195385</ele>
        <time>2022-03-03T11:43:21.434Z</time>
      </trkpt>
      <trkpt lat="42.13122" lon="24.81735">
        <ele>195.309935</ele>
        <time>2022-03-03T11:43:24.420Z</time>
      </trkpt>
      <trkpt lat="42.1313" lon="24.81726">
        <ele>195.425421</ele>
        <time>2022-03-03T11:43:27.456Z</time>
      </trkpt>
      <trkpt lat="42.13138" lon="24.81718">
        <ele>195.537925</ele>
        <time>2022-03-03T11:43:30.446Z</time>
      </trkpt>
      <trkpt lat="42.13146" lon="24.81708">
        <ele>195.653872</ele>
        <time>2022-03-03T11:43:33.423Z</time>
      </trkpt>
      <trkpt lat="42.13154" lon="24.81699">
        <ele>195.775965</ele>
        <time>2022-03-03T11:43:36.485Z</time>
      </trkpt>
      <trkpt lat="42.13162" lon="24.8169">
        <ele>195.893386</ele>
        <time>2022-03-03T11:43:39.435Z</time>
      </trkpt>
      <trkpt lat="42.1317" lon="24.8168">
        <ele>196.017812</ele>
        <time>2022-03-03T11:43:42.422Z</time>
      </trkpt>
      <trkpt lat="42.13179" lon="24.81671">
        <ele>196.139905</ele>
        <time>2022-03-03T11:43:45.435Z</time>
      </trkpt>
      <trkpt lat="42.13186" lon="24.81662">
        <ele>196.244959</ele>
        <time>2022-03-03T11:43:48.423Z</time>
      </trkpt>
      <trkpt lat="42.13193" lon="24.81652">
        <ele>196.367999</ele>
        <time>2022-03-03T11:43:52.437Z</time>
      </trkpt>
      <trkpt lat="42.13201" lon="24.81643">
        <ele>196.484792</ele>
        <time>2022-03-03T11:43:56.453Z</time>
      </trkpt>
      <trkpt lat="42.13209" lon="24.81634">
        <ele>196.597662</ele>
        <time>2022-03-03T11:43:59.458Z</time>
      </trkpt>
      <trkpt lat="42.13218" lon="24.81624">
        <ele>196.729302</ele>
        <time>2022-03-03T11:44:02.449Z</time>
      </trkpt>
      <trkpt lat="42.13227" lon="24.81614">
        <ele>196.857064</ele>
        <time>2022-03-03T11:44:05.433Z</time>
      </trkpt>
      <trkpt lat="42.13235" lon="24.81605">
        <ele>196.871587</ele>
        <time>2022-03-03T11:44:08.451Z</time>
      </trkpt>
      <trkpt lat="42.13243" lon="24.81596">
        <ele>196.808406</ele>
        <time>2022-03-03T11:44:11.446Z</time>
      </trkpt>
      <trkpt lat="42.13252" lon="24.81587">
        <ele>196.742448</ele>
        <time>2022-03-03T11:44:14.421Z</time>
      </trkpt>
      <trkpt lat="42.1326" lon="24.81578">
        <ele>196.678609</ele>
        <time>2022-03-03T11:44:17.438Z</time>
      </trkpt>
      <trkpt lat="42.13268" lon="24.81568">
        <ele>196.616128</ele>
        <time>2022-03-03T11:44:20.419Z</time>
      </trkpt>
      <trkpt lat="42.13275" lon="24.8156">
        <ele>196.557298</ele>
        <time>2022-03-03T11:44:23.439Z</time>
      </trkpt>
      <trkpt lat="42.13283" lon="24.81551">
        <ele>196.496705</ele>
        <time>2022-03-03T11:44:26.439Z</time>
      </trkpt>
      <trkpt lat="42.13292" lon="24.81542">
        <ele>196.432229</ele>
        <time>2022-03-03T11:44:29.419Z</time>
      </trkpt>
      <trkpt lat="42.133" lon="24.81532">
        <ele>196.36691</ele>
        <time>2022-03-03T11:44:32.483Z</time>
      </trkpt>
      <trkpt lat="42.13307" lon="24.81524">
        <ele>196.308715</ele>
        <time>2022-03-03T11:44:35.425Z</time>
      </trkpt>
      <trkpt lat="42.13316" lon="24.81514">
        <ele>196.241828</ele>
        <time>2022-03-03T11:44:39.437Z</time>
      </trkpt>
      <trkpt lat="42.13325" lon="24.81504">
        <ele>196.170756</ele>
        <time>2022-03-03T11:44:43.485Z</time>
      </trkpt>
      <trkpt lat="42.13332" lon="24.81496">
        <ele>196.116653</ele>
        <time>2022-03-03T11:44:46.439Z</time>
      </trkpt>
      <trkpt lat="42.13341" lon="24.81486">
        <ele>196.046036</ele>
        <time>2022-03-03T11:44:50.433Z</time>
      </trkpt>
      <trkpt lat="42.13348" lon="24.81477">
        <ele>195.990353</ele>
        <time>2022-03-03T11:44:53.437Z</time>
      </trkpt>
      <trkpt lat="42.13355" lon="24.81469">
        <ele>195.933103</ele>
        <time>2022-03-03T11:44:56.447Z</time>
      </trkpt>
      <trkpt lat="42.13364" lon="24.8146">
        <ele>195.868524</ele>
        <time>2022-03-03T11:45:00.429Z</time>
      </trkpt>
      <trkpt lat="42.13372" lon="24.81449">
        <ele>195.88097</ele>
        <time>2022-03-03T11:45:04.420Z</time>
      </trkpt>
      <trkpt lat="42.1338" lon="24.81439">
        <ele>195.967143</ele>
        <time>2022-03-03T11:45:08.439Z</time>
      </trkpt>
      <trkpt lat="42.1339" lon="24.81429">
        <ele>196.062435</ele>
        <time>2022-03-03T11:45:12.435Z</time>
      </trkpt>
      <trkpt lat="42.13397" lon="24.8142">
        <ele>196.139546</ele>
        <time>2022-03-03T11:45:15.437Z</time>
      </trkpt>
      <trkpt lat="42.13405" lon="24.81411">
        <ele>196.21879</ele>
        <time>2022-03-03T11:45:18.424Z</time>
      </trkpt>
      <trkpt lat="42.13412" lon="24.81402">
        <ele>196.293794</ele>
        <time>2022-03-03T11:45:21.438Z</time>
      </trkpt>
      <trkpt lat="42.13419" lon="24.81394">
        <ele>196.366492</ele>
        <time>2022-03-03T11:45:24.430Z</time>
      </trkpt>
      <trkpt lat="42.13426" lon="24.81386">
        <ele>196.43771</ele>
        <time>2022-03-03T11:45:27.465Z</time>
      </trkpt>
      <trkpt lat="42.13435" lon="24.81377">
        <ele>196.524164</ele>
        <time>2022-03-03T11:45:31.443Z</time>
      </trkpt>
      <trkpt lat="42.13444" lon="24.81367">
        <ele>196.61352</ele>
        <time>2022-03-03T11:45:35.439Z</time>
      </trkpt>
      <trkpt lat="42.13452" lon="24.81356">
        <ele>196.704517</ele>
        <time>2022-03-03T11:45:39.428Z</time>
      </trkpt>
      <trkpt lat="42.1346" lon="24.81348">
        <ele>196.782269</ele>
        <time>2022-03-03T11:45:42.434Z</time>
      </trkpt>
      <trkpt lat="42.13468" lon="24.81339">
        <ele>196.859423</ele>
        <time>2022-03-03T11:45:45.430Z</time>
      </trkpt>
      <trkpt lat="42.13476" lon="24.81331">
        <ele>196.938272</ele>
        <time>2022-03-03T11:45:48.429Z</time>
      </trkpt>
      <trkpt lat="42.13483" lon="24.81322">
        <ele>197.016347</ele>
        <time>2022-03-03T11:45:51.418Z</time>
      </trkpt>
      <trkpt lat="42.13491" lon="24.81313">
        <ele>197.096934</ele>
        <time>2022-03-03T11:45:54.433Z</time>
      </trkpt>
      <trkpt lat="42.13499" lon="24.81305">
        <ele>197.174632</ele>
        <time>2022-03-03T11:45:57.425Z</time>
      </trkpt>
      <trkpt lat="42.13507" lon="24.81296">
        <ele>197.258766</ele>
        <time>2022-03-03T11:46:00.447Z</time>
      </trkpt>
      <trkpt lat="42.13514" lon="24.81287">
        <ele>197.343255</ele>
        <time>2022-03-03T11:46:03.427Z</time>
      </trkpt>
      <trkpt lat="42.13521" lon="24.81278">
        <ele>197.423905</ele>
        <time>2022-03-03T11:46:06.468Z</time>
      </trkpt>
      <trkpt lat="42.13529" lon="24.8127">
        <ele>197.503122</ele>
        <time>2022-03-03T11:46:09.442Z</time>
      </trkpt>
      <trkpt lat="42.13536" lon="24.81261">
        <ele>197.58593</ele>
        <time>2022-03-03T11:46:12.436Z</time>
      </trkpt>
      <trkpt lat="42.13543" lon="24.81253">
        <ele>197.666799</ele>
        <time>2022-03-03T11:46:15.435Z</time>
      </trkpt>
      <trkpt lat="42.13551" lon="24.81244">
        <ele>197.756922</ele>
        <time>2022-03-03T11:46:19.435Z</time>
      </trkpt>
      <trkpt lat="42.13558" lon="24.81236">
        <ele>197.838126</ele>
        <time>2022-03-03T11:46:22.437Z</time>
      </trkpt>
      <trkpt lat="42.13566" lon="24.81227">
        <ele>197.923663</ele>
        <time>2022-03-03T11:46:25.435Z</time>
      </trkpt>
      <trkpt lat="42.13574" lon="24.81218">
        <ele>198.010735</ele>
        <time>2022-03-03T11:46:28.432Z</time>
      </trkpt>
      <trkpt lat="42.13582" lon="24.81209">
        <ele>198.105118</ele>
        <time>2022-03-03T11:46:32.437Z</time>
      </trkpt>
      <trkpt lat="42.13589" lon="24.81201">
        <ele>198.185257</ele>
        <time>2022-03-03T11:46:35.549Z</time>
      </trkpt>
      <trkpt lat="42.13596" lon="24.81193">
        <ele>198.264231</ele>
        <time>2022-03-03T11:46:38.434Z</time>
      </trkpt>
      <trkpt lat="42.13604" lon="24.81185">
        <ele>198.34852</ele>
        <time>2022-03-03T11:46:41.428Z</time>
      </trkpt>
      <trkpt lat="42.13613" lon="24.81175">
        <ele>198.443703</ele>
        <time>2022-03-03T11:46:44.431Z</time>
      </trkpt>
      <trkpt lat="42.13622" lon="24.81165">
        <ele>198.540759</ele>
        <time>2022-03-03T11:46:47.443Z</time>
      </trkpt>
      <trkpt lat="42.1363" lon="24.81155">
        <ele>198.6384</ele>
        <time>2022-03-03T11:46:50.488Z</time>
      </trkpt>
      <trkpt lat="42.13637" lon="24.81148">
        <ele>198.715743</ele>
        <time>2022-03-03T11:46:52.427Z</time>
      </trkpt>
      <trkpt lat="42.13646" lon="24.81136">
        <ele>198.772743</ele>
        <time>2022-03-03T11:46:55.443Z</time>
      </trkpt>
      <trkpt lat="42.13655" lon="24.81126">
        <ele>198.768896</ele>
        <time>2022-03-03T11:46:58.453Z</time>
      </trkpt>
      <trkpt lat="42.13662" lon="24.81118">
        <ele>198.76558</ele>
        <time>2022-03-03T11:47:01.428Z</time>
      </trkpt>
      <trkpt lat="42.1367" lon="24.81109">
        <ele>198.762087</ele>
        <time>2022-03-03T11:47:04.426Z</time>
      </trkpt>
      <trkpt lat="42.13679" lon="24.81099">
        <ele>198.757894</ele>
        <time>2022-03-03T11:47:07.479Z</time>
      </trkpt>
      <trkpt lat="42.13688" lon="24.81088">
        <ele>198.753605</ele>
        <time>2022-03-03T11:47:10.437Z</time>
      </trkpt>
      <trkpt lat="42.13698" lon="24.81078">
        <ele>198.749428</ele>
        <time>2022-03-03T11:47:13.435Z</time>
      </trkpt>
      <trkpt lat="42.13706" lon="24.81068">
        <ele>198.745496</ele>
        <time>2022-03-03T11:47:16.446Z</time>
      </trkpt>
      <trkpt lat="42.13714" lon="24.81058">
        <ele>198.741648</ele>
        <time>2022-03-03T11:47:19.435Z</time>
      </trkpt>
      <trkpt lat="42.13723" lon="24.81049">
        <ele>198.738007</ele>
        <time>2022-03-03T11:47:22.433Z</time>
      </trkpt>
      <trkpt lat="42.1373" lon="24.8104">
        <ele>198.734609</ele>
        <time>2022-03-03T11:47:25.438Z</time>
      </trkpt>
      <trkpt lat="42.13738" lon="24.81031">
        <ele>198.730952</ele>
        <time>2022-03-03T11:47:28.430Z</time>
      </trkpt>
      <trkpt lat="42.13745" lon="24.81022">
        <ele>198.727511</ele>
        <time>2022-03-03T11:47:31.434Z</time>
      </trkpt>
      <trkpt lat="42.13752" lon="24.81014">
        <ele>198.724242</ele>
        <time>2022-03-03T11:47:34.457Z</time>
      </trkpt>
      <trkpt lat="42.1376" lon="24.81005">
        <ele>198.720851</ele>
        <time>2022-03-03T11:47:37.430Z</time>
      </trkpt>
      <trkpt lat="42.13768" lon="24.80995">
        <ele>198.716996</ele>
        <time>2022-03-03T11:47:40.434Z</time>
      </trkpt>
      <trkpt lat="42.13775" lon="24.80987">
        <ele>198.713571</ele>
        <time>2022-03-03T11:47:43.431Z</time>
      </trkpt>
      <trkpt lat="42.13783" lon="24.80978">
        <ele>198.800081</ele>
        <time>2022-03-03T11:47:46.440Z</time>
      </trkpt>
      <trkpt lat="42.13791" lon="24.80969">
        <ele>198.95504</ele>
        <time>2022-03-03T11:47:49.442Z</time>
      </trkpt>
      <trkpt lat="42.13799" lon="24.8096">
        <ele>199.109106</ele>
        <time>2022-03-03T11:47:52.451Z</time>
      </trkpt>
      <trkpt lat="42.13806" lon="24.80951">
        <ele>199.25855</ele>
        <time>2022-03-03T11:47:55.438Z</time>
      </trkpt>
      <trkpt lat="42.13814" lon="24.80941">
        <ele>199.423928</ele>
        <time>2022-03-03T11:47:58.488Z</time>
      </trkpt>
      <trkpt lat="42.13824" lon="24.80932">
        <ele>199.597129</ele>
        <time>2022-03-03T11:48:01.445Z</time>
      </trkpt>
      <trkpt lat="42.13832" lon="24.80922">
        <ele>199.768217</ele>
        <time>2022-03-03T11:48:04.426Z</time>
      </trkpt>
      <trkpt lat="42.13842" lon="24.80912">
        <ele>199.943115</ele>
        <time>2022-03-03T11:48:07.448Z</time>
      </trkpt>
      <trkpt lat="42.1385" lon="24.80903">
        <ele>200.10259</ele>
        <time>2022-03-03T11:48:10.431Z</time>
      </trkpt>
      <trkpt lat="42.13858" lon="24.80894">
        <ele>200.257825</ele>
        <time>2022-03-03T11:48:13.446Z</time>
      </trkpt>
      <trkpt lat="42.13866" lon="24.80885">
        <ele>200.42075</ele>
        <time>2022-03-03T11:48:16.440Z</time>
      </trkpt>
      <trkpt lat="42.13875" lon="24.80875">
        <ele>200.596275</ele>
        <time>2022-03-03T11:48:19.441Z</time>
      </trkpt>
      <trkpt lat="42.13884" lon="24.80866">
        <ele>200.761064</ele>
        <time>2022-03-03T11:48:22.431Z</time>
      </trkpt>
      <trkpt lat="42.13892" lon="24.80857">
        <ele>200.915128</ele>
        <time>2022-03-03T11:48:25.448Z</time>
      </trkpt>
      <trkpt lat="42.13899" lon="24.80848">
        <ele>201.063855</ele>
        <time>2022-03-03T11:48:28.455Z</time>
      </trkpt>
      <trkpt lat="42.13906" lon="24.80839">
        <ele>201.216159</ele>
        <time>2022-03-03T11:48:31.438Z</time>
      </trkpt>
      <trkpt lat="42.13914" lon="24.80829">
        <ele>201.36965</ele>
        <time>2022-03-03T11:48:34.428Z</time>
      </trkpt>
      <trkpt lat="42.13921" lon="24.80821">
        <ele>201.229949</ele>
        <time>2022-03-03T11:48:37.439Z</time>
      </trkpt>
      <trkpt lat="42.13929" lon="24.80812">
        <ele>200.970839</ele>
        <time>2022-03-03T11:48:40.444Z</time>
      </trkpt>
      <trkpt lat="42.13938" lon="24.80803">
        <ele>200.677817</ele>
        <time>2022-03-03T11:48:43.466Z</time>
      </trkpt>
      <trkpt lat="42.13946" lon="24.80793">
        <ele>200.379102</ele>
        <time>2022-03-03T11:48:46.441Z</time>
      </trkpt>
      <trkpt lat="42.13956" lon="24.80782">
        <ele>200.059457</ele>
        <time>2022-03-03T11:48:49.480Z</time>
      </trkpt>
      <trkpt lat="42.13965" lon="24.80772">
        <ele>199.757517</ele>
        <time>2022-03-03T11:48:52.449Z</time>
      </trkpt>
      <trkpt lat="42.13973" lon="24.80763">
        <ele>199.482098</ele>
        <time>2022-03-03T11:48:55.435Z</time>
      </trkpt>
      <trkpt lat="42.13981" lon="24.80753">
        <ele>199.198334</ele>
        <time>2022-03-03T11:48:58.440Z</time>
      </trkpt>
      <trkpt lat="42.13989" lon="24.80743">
        <ele>198.922294</ele>
        <time>2022-03-03T11:49:01.446Z</time>
      </trkpt>
      <trkpt lat="42.13997" lon="24.80733">
        <ele>198.648177</ele>
        <time>2022-03-03T11:49:04.419Z</time>
      </trkpt>
      <trkpt lat="42.14005" lon="24.80723">
        <ele>198.365027</ele>
        <time>2022-03-03T11:49:07.441Z</time>
      </trkpt>
      <trkpt lat="42.14013" lon="24.80714">
        <ele>198.083835</ele>
        <time>2022-03-03T11:49:10.433Z</time>
      </trkpt>
      <trkpt lat="42.14021" lon="24.80704">
        <ele>197.806504</ele>
        <time>2022-03-03T11:49:13.441Z</time>
      </trkpt>
      <trkpt lat="42.14028" lon="24.80695">
        <ele>197.536812</ele>
        <time>2022-03-03T11:49:16.460Z</time>
      </trkpt>
      <trkpt lat="42.14037" lon="24.80686">
        <ele>197.270396</ele>
        <time>2022-03-03T11:49:19.427Z</time>
      </trkpt>
      <trkpt lat="42.14045" lon="24.80678">
        <ele>196.988098</ele>
        <time>2022-03-03T11:49:22.499Z</time>
      </trkpt>
      <trkpt lat="42.14054" lon="24.80668">
        <ele>196.780756</ele>
        <time>2022-03-03T11:49:25.431Z</time>
      </trkpt>
      <trkpt lat="42.14062" lon="24.80658">
        <ele>197.09278</ele>
        <time>2022-03-03T11:49:28.433Z</time>
      </trkpt>
      <trkpt lat="42.14071" lon="24.80648">
        <ele>197.416103</ele>
        <time>2022-03-03T11:49:31.443Z</time>
      </trkpt>
      <trkpt lat="42.14079" lon="24.80639">
        <ele>197.712111</ele>
        <time>2022-03-03T11:49:34.423Z</time>
      </trkpt>
      <trkpt lat="42.14086" lon="24.8063">
        <ele>197.990376</ele>
        <time>2022-03-03T11:49:37.445Z</time>
      </trkpt>
      <trkpt lat="42.14095" lon="24.80622">
        <ele>198.282238</ele>
        <time>2022-03-03T11:49:40.445Z</time>
      </trkpt>
      <trkpt lat="42.14103" lon="24.80611">
        <ele>198.59774</ele>
        <time>2022-03-03T11:49:43.447Z</time>
      </trkpt>
      <trkpt lat="42.14111" lon="24.80602">
        <ele>198.90659</ele>
        <time>2022-03-03T11:49:46.422Z</time>
      </trkpt>
      <trkpt lat="42.14119" lon="24.80593">
        <ele>199.188032</ele>
        <time>2022-03-03T11:49:49.446Z</time>
      </trkpt>
      <trkpt lat="42.14127" lon="24.80584">
        <ele>199.479184</ele>
        <time>2022-03-03T11:49:52.448Z</time>
      </trkpt>
      <trkpt lat="42.14135" lon="24.80573">
        <ele>199.801646</ele>
        <time>2022-03-03T11:49:55.478Z</time>
      </trkpt>
      <trkpt lat="42.14144" lon="24.80563">
        <ele>200.131776</ele>
        <time>2022-03-03T11:49:58.454Z</time>
      </trkpt>
      <trkpt lat="42.14152" lon="24.80554">
        <ele>200.441495</ele>
        <time>2022-03-03T11:50:01.466Z</time>
      </trkpt>
      <trkpt lat="42.14161" lon="24.80544">
        <ele>200.756306</ele>
        <time>2022-03-03T11:50:04.425Z</time>
      </trkpt>
      <trkpt lat="42.14169" lon="24.80535">
        <ele>201.042872</ele>
        <time>2022-03-03T11:50:07.423Z</time>
      </trkpt>
      <trkpt lat="42.14176" lon="24.80527">
        <ele>201.313751</ele>
        <time>2022-03-03T11:50:10.435Z</time>
      </trkpt>
      <trkpt lat="42.14184" lon="24.80519">
        <ele>201.58463</ele>
        <time>2022-03-03T11:50:13.435Z</time>
      </trkpt>
      <trkpt lat="42.14192" lon="24.80511">
        <ele>201.737474</ele>
        <time>2022-03-03T11:50:16.416Z</time>
      </trkpt>
      <trkpt lat="42.142" lon="24.80504">
        <ele>201.558215</ele>
        <time>2022-03-03T11:50:19.438Z</time>
      </trkpt>
      <trkpt lat="42.14208" lon="24.80495">
        <ele>201.366693</ele>
        <time>2022-03-03T11:50:22.427Z</time>
      </trkpt>
      <trkpt lat="42.14217" lon="24.80487">
        <ele>201.149263</ele>
        <time>2022-03-03T11:50:25.437Z</time>
      </trkpt>
      <trkpt lat="42.14226" lon="24.8048">
        <ele>200.960829</ele>
        <time>2022-03-03T11:50:28.440Z</time>
      </trkpt>
      <trkpt lat="42.14238" lon="24.80474">
        <ele>200.716624</ele>
        <time>2022-03-03T11:50:31.446Z</time>
      </trkpt>
      <trkpt lat="42.1425" lon="24.80472">
        <ele>200.468897</ele>
        <time>2022-03-03T11:50:34.529Z</time>
      </trkpt>
      <trkpt lat="42.1426" lon="24.80472">
        <ele>200.276517</ele>
        <time>2022-03-03T11:50:37.441Z</time>
      </trkpt>
      <trkpt lat="42.14252" lon="24.80463">
        <ele>200.067902</ele>
        <time>2022-03-03T11:51:46.444Z</time>
      </trkpt>
      <trkpt lat="42.14268" lon="24.80469">
        <ele>199.7511</ele>
        <time>2022-03-03T11:52:37.439Z</time>
      </trkpt>
      <trkpt lat="42.14277" lon="24.80473">
        <ele>199.560044</ele>
        <time>2022-03-03T11:52:40.425Z</time>
      </trkpt>
      <trkpt lat="42.14286" lon="24.80477">
        <ele>199.377435</ele>
        <time>2022-03-03T11:52:43.429Z</time>
      </trkpt>
      <trkpt lat="42.14296" lon="24.80481">
        <ele>199.17709</ele>
        <time>2022-03-03T11:52:46.414Z</time>
      </trkpt>
      <trkpt lat="42.14307" lon="24.80485">
        <ele>198.971165</ele>
        <time>2022-03-03T11:52:49.418Z</time>
      </trkpt>
      <trkpt lat="42.14318" lon="24.8049">
        <ele>198.749875</ele>
        <time>2022-03-03T11:52:52.455Z</time>
      </trkpt>
      <trkpt lat="42.14328" lon="24.80495">
        <ele>198.542301</ele>
        <time>2022-03-03T11:52:55.469Z</time>
      </trkpt>
      <trkpt lat="42.14338" lon="24.805">
        <ele>198.320504</ele>
        <time>2022-03-03T11:52:58.441Z</time>
      </trkpt>
      <trkpt lat="42.14349" lon="24.80504">
        <ele>197.970443</ele>
        <time>2022-03-03T11:53:01.429Z</time>
      </trkpt>
      <trkpt lat="42.14359" lon="24.80509">
        <ele>197.622745</ele>
        <time>2022-03-03T11:53:04.414Z</time>
      </trkpt>
      <trkpt lat="42.1437" lon="24.80513">
        <ele>197.262052</ele>
        <time>2022-03-03T11:53:07.433Z</time>
      </trkpt>
      <trkpt lat="42.1438" lon="24.80517">
        <ele>196.907828</ele>
        <time>2022-03-03T11:53:10.430Z</time>
      </trkpt>
      <trkpt lat="42.14391" lon="24.80521">
        <ele>196.545441</ele>
        <time>2022-03-03T11:53:13.416Z</time>
      </trkpt>
      <trkpt lat="42.14402" lon="24.80525">
        <ele>196.18645</ele>
        <time>2022-03-03T11:53:16.434Z</time>
      </trkpt>
      <trkpt lat="42.14412" lon="24.80527">
        <ele>195.850469</ele>
        <time>2022-03-03T11:53:19.434Z</time>
      </trkpt>
      <trkpt lat="42.14423" lon="24.80531">
        <ele>195.495576</ele>
        <time>2022-03-03T11:53:22.436Z</time>
      </trkpt>
      <trkpt lat="42.14434" lon="24.80535">
        <ele>195.127669</ele>
        <time>2022-03-03T11:53:25.433Z</time>
      </trkpt>
      <trkpt lat="42.14444" lon="24.80538">
        <ele>194.783844</ele>
        <time>2022-03-03T11:53:28.428Z</time>
      </trkpt>
      <trkpt lat="42.14455" lon="24.80541">
        <ele>194.426943</ele>
        <time>2022-03-03T11:53:31.440Z</time>
      </trkpt>
      <trkpt lat="42.14467" lon="24.80546">
        <ele>194.043528</ele>
        <time>2022-03-03T11:53:34.422Z</time>
      </trkpt>
      <trkpt lat="42.14478" lon="24.8055">
        <ele>193.662584</ele>
        <time>2022-03-03T11:53:37.429Z</time>
      </trkpt>
      <trkpt lat="42.14488" lon="24.80554">
        <ele>193.320166</ele>
        <time>2022-03-03T11:53:40.451Z</time>
      </trkpt>
      <trkpt lat="42.145" lon="24.80557">
        <ele>192.935439</ele>
        <time>2022-03-03T11:53:43.458Z</time>
      </trkpt>
      <trkpt lat="42.14512" lon="24.80561">
        <ele>192.549798</ele>
        <time>2022-03-03T11:53:46.425Z</time>
      </trkpt>
      <trkpt lat="42.14524" lon="24.80564">
        <ele>192.563842</ele>
        <time>2022-03-03T11:53:49.464Z</time>
      </trkpt>
      <trkpt lat="42.14536" lon="24.80568">
        <ele>192.578757</ele>
        <time>2022-03-03T11:53:52.435Z</time>
      </trkpt>
      <trkpt lat="42.14547" lon="24.80572">
        <ele>192.592789</ele>
        <time>2022-03-03T11:53:55.462Z</time>
      </trkpt>
      <trkpt lat="42.14559" lon="24.80576">
        <ele>192.606949</ele>
        <time>2022-03-03T11:53:58.442Z</time>
      </trkpt>
      <trkpt lat="42.1457" lon="24.80579">
        <ele>192.621012</ele>
        <time>2022-03-03T11:54:01.483Z</time>
      </trkpt>
      <trkpt lat="42.14582" lon="24.80582">
        <ele>192.635167</ele>
        <time>2022-03-03T11:54:04.423Z</time>
      </trkpt>
      <trkpt lat="42.14594" lon="24.80586">
        <ele>192.649387</ele>
        <time>2022-03-03T11:54:07.504Z</time>
      </trkpt>
      <trkpt lat="42.14605" lon="24.8059">
        <ele>192.663629</ele>
        <time>2022-03-03T11:54:10.434Z</time>
      </trkpt>
      <trkpt lat="42.14617" lon="24.80594">
        <ele>192.678375</ele>
        <time>2022-03-03T11:54:13.462Z</time>
      </trkpt>
      <trkpt lat="42.1463" lon="24.80598">
        <ele>192.693775</ele>
        <time>2022-03-03T11:54:16.423Z</time>
      </trkpt>
      <trkpt lat="42.14639" lon="24.80601">
        <ele>192.704703</ele>
        <time>2022-03-03T11:54:18.506Z</time>
      </trkpt>
      <trkpt lat="42.14651" lon="24.80605">
        <ele>192.720027</ele>
        <time>2022-03-03T11:54:21.454Z</time>
      </trkpt>
      <trkpt lat="42.1466" lon="24.80608">
        <ele>192.730862</ele>
        <time>2022-03-03T11:54:23.494Z</time>
      </trkpt>
      <trkpt lat="42.14669" lon="24.80612">
        <ele>192.741816</ele>
        <time>2022-03-03T11:54:25.438Z</time>
      </trkpt>
      <trkpt lat="42.14678" lon="24.80615">
        <ele>192.753041</ele>
        <time>2022-03-03T11:54:27.432Z</time>
      </trkpt>
      <trkpt lat="42.14687" lon="24.80618">
        <ele>192.761237</ele>
        <time>2022-03-03T11:54:29.455Z</time>
      </trkpt>
      <trkpt lat="42.147" lon="24.80623">
        <ele>192.667344</ele>
        <time>2022-03-03T11:54:32.432Z</time>
      </trkpt>
      <trkpt lat="42.14709" lon="24.80626">
        <ele>192.604237</ele>
        <time>2022-03-03T11:54:34.434Z</time>
      </trkpt>
      <trkpt lat="42.14718" lon="24.80629">
        <ele>192.537786</ele>
        <time>2022-03-03T11:54:36.421Z</time>
      </trkpt>
      <trkpt lat="42.14727" lon="24.80632">
        <ele>192.473752</ele>
        <time>2022-03-03T11:54:38.439Z</time>
      </trkpt>
      <trkpt lat="42.1474" lon="24.80637">
        <ele>192.377035</ele>
        <time>2022-03-03T11:54:41.501Z</time>
      </trkpt>
      <trkpt lat="42.14749" lon="24.80639">
        <ele>192.313576</ele>
        <time>2022-03-03T11:54:43.415Z</time>
      </trkpt>
      <trkpt lat="42.14761" lon="24.80644">
        <ele>192.226</ele>
        <time>2022-03-03T11:54:46.491Z</time>
      </trkpt>
      <trkpt lat="42.14771" lon="24.80649">
        <ele>192.149667</ele>
        <time>2022-03-03T11:54:49.438Z</time>
      </trkpt>
      <trkpt lat="42.14781" lon="24.80651">
        <ele>192.081744</ele>
        <time>2022-03-03T11:54:51.442Z</time>
      </trkpt>
      <trkpt lat="42.14791" lon="24.80655">
        <ele>192.012856</ele>
        <time>2022-03-03T11:54:53.437Z</time>
      </trkpt>
      <trkpt lat="42.148" lon="24.80658">
        <ele>191.947461</ele>
        <time>2022-03-03T11:54:55.414Z</time>
      </trkpt>
      <trkpt lat="42.14809" lon="24.80663">
        <ele>191.879763</ele>
        <time>2022-03-03T11:54:57.421Z</time>
      </trkpt>
      <trkpt lat="42.14818" lon="24.80667">
        <ele>191.811276</ele>
        <time>2022-03-03T11:54:59.435Z</time>
      </trkpt>
      <trkpt lat="42.14827" lon="24.8067">
        <ele>191.747784</ele>
        <time>2022-03-03T11:55:01.437Z</time>
      </trkpt>
      <trkpt lat="42.14836" lon="24.80674">
        <ele>191.683416</ele>
        <time>2022-03-03T11:55:03.482Z</time>
      </trkpt>
      <trkpt lat="42.14848" lon="24.8068">
        <ele>191.591645</ele>
        <time>2022-03-03T11:55:06.418Z</time>
      </trkpt>
      <trkpt lat="42.1486" lon="24.80686">
        <ele>191.52446</ele>
        <time>2022-03-03T11:55:09.430Z</time>
      </trkpt>
      <trkpt lat="42.14873" lon="24.80691">
        <ele>191.664228</ele>
        <time>2022-03-03T11:55:12.429Z</time>
      </trkpt>
      <trkpt lat="42.14885" lon="24.80698">
        <ele>191.796138</ele>
        <time>2022-03-03T11:55:15.427Z</time>
      </trkpt>
      <trkpt lat="42.14894" lon="24.80711">
        <ele>191.93383</ele>
        <time>2022-03-03T11:55:18.529Z</time>
      </trkpt>
      <trkpt lat="42.14898" lon="24.80723">
        <ele>192.037561</ele>
        <time>2022-03-03T11:55:20.439Z</time>
      </trkpt>
      <trkpt lat="42.149" lon="24.80735">
        <ele>192.134695</ele>
        <time>2022-03-03T11:55:22.422Z</time>
      </trkpt>
      <trkpt lat="42.14898" lon="24.80752">
        <ele>192.268502</ele>
        <time>2022-03-03T11:55:25.407Z</time>
      </trkpt>
      <trkpt lat="42.14891" lon="24.80766">
        <ele>192.393098</ele>
        <time>2022-03-03T11:55:28.429Z</time>
      </trkpt>
      <trkpt lat="42.14885" lon="24.80779">
        <ele>192.511503</ele>
        <time>2022-03-03T11:55:31.425Z</time>
      </trkpt>
      <trkpt lat="42.14878" lon="24.80792">
        <ele>192.633676</ele>
        <time>2022-03-03T11:55:34.415Z</time>
      </trkpt>
      <trkpt lat="42.14872" lon="24.80805">
        <ele>192.755337</ele>
        <time>2022-03-03T11:55:37.413Z</time>
      </trkpt>
      <trkpt lat="42.14865" lon="24.80819">
        <ele>192.881292</ele>
        <time>2022-03-03T11:55:40.436Z</time>
      </trkpt>
      <trkpt lat="42.14858" lon="24.80831">
        <ele>193.002284</ele>
        <time>2022-03-03T11:55:43.457Z</time>
      </trkpt>
      <trkpt lat="42.14849" lon="24.80842">
        <ele>193.126842</ele>
        <time>2022-03-03T11:55:46.417Z</time>
      </trkpt>
      <trkpt lat="42.14837" lon="24.80848">
        <ele>193.256571</ele>
        <time>2022-03-03T11:55:49.406Z</time>
      </trkpt>
      <trkpt lat="42.14828" lon="24.80851">
        <ele>193.354213</ele>
        <time>2022-03-03T11:55:52.473Z</time>
      </trkpt>
      <trkpt lat="42.14817" lon="24.80849">
        <ele>193.736633</ele>
        <time>2022-03-03T11:55:56.428Z</time>
      </trkpt>
      <trkpt lat="42.14809" lon="24.80843">
        <ele>194.160834</ele>
        <time>2022-03-03T11:56:00.437Z</time>
      </trkpt>
      <trkpt lat="42.148" lon="24.80836">
        <ele>194.615139</ele>
        <time>2022-03-03T11:56:05.424Z</time>
      </trkpt>
      <trkpt lat="42.14793" lon="24.80826">
        <ele>195.052253</ele>
        <time>2022-03-03T11:56:09.476Z</time>
      </trkpt>
      <trkpt lat="42.14787" lon="24.80815">
        <ele>195.498559</ele>
        <time>2022-03-03T11:56:13.433Z</time>
      </trkpt>
      <trkpt lat="42.14782" lon="24.80802">
        <ele>195.965083</ele>
        <time>2022-03-03T11:56:17.420Z</time>
      </trkpt>
      <trkpt lat="42.14779" lon="24.80789">
        <ele>196.401684</ele>
        <time>2022-03-03T11:56:21.433Z</time>
      </trkpt>
      <trkpt lat="42.14776" lon="24.80776">
        <ele>196.842554</ele>
        <time>2022-03-03T11:56:25.435Z</time>
      </trkpt>
      <trkpt lat="42.14774" lon="24.80761">
        <ele>197.305894</ele>
        <time>2022-03-03T11:56:29.425Z</time>
      </trkpt>
      <trkpt lat="42.14772" lon="24.80747">
        <ele>197.778718</ele>
        <time>2022-03-03T11:56:33.425Z</time>
      </trkpt>
      <trkpt lat="42.1477" lon="24.80732">
        <ele>198.258922</ele>
        <time>2022-03-03T11:56:37.453Z</time>
      </trkpt>
      <trkpt lat="42.14768" lon="24.8072">
        <ele>198.648914</ele>
        <time>2022-03-03T11:56:40.430Z</time>
      </trkpt>
      <trkpt lat="42.14766" lon="24.80709">
        <ele>199.040728</ele>
        <time>2022-03-03T11:56:43.434Z</time>
      </trkpt>
      <trkpt lat="42.14765" lon="24.80696">
        <ele>199.435368</ele>
        <time>2022-03-03T11:56:46.425Z</time>
      </trkpt>
      <trkpt lat="42.14763" lon="24.80681">
        <ele>199.946182</ele>
        <time>2022-03-03T11:56:50.423Z</time>
      </trkpt>
      <trkpt lat="42.14761" lon="24.80666">
        <ele>200.438734</ele>
        <time>2022-03-03T11:56:54.414Z</time>
      </trkpt>
      <trkpt lat="42.14759" lon="24.8065">
        <ele>200.930572</ele>
        <time>2022-03-03T11:56:58.428Z</time>
      </trkpt>
      <trkpt lat="42.14758" lon="24.80635">
        <ele>201.061241</ele>
        <time>2022-03-03T11:57:02.439Z</time>
      </trkpt>
      <trkpt lat="42.14758" lon="24.80622">
        <ele>200.895124</ele>
        <time>2022-03-03T11:57:05.416Z</time>
      </trkpt>
      <trkpt lat="42.14757" lon="24.80608">
        <ele>200.703358</ele>
        <time>2022-03-03T11:57:09.435Z</time>
      </trkpt>
      <trkpt lat="42.14756" lon="24.80595">
        <ele>200.52746</ele>
        <time>2022-03-03T11:57:12.475Z</time>
      </trkpt>
      <trkpt lat="42.14755" lon="24.80581">
        <ele>200.341128</ele>
        <time>2022-03-03T11:57:15.469Z</time>
      </trkpt>
      <trkpt lat="42.14754" lon="24.80566">
        <ele>200.150155</ele>
        <time>2022-03-03T11:57:18.440Z</time>
      </trkpt>
      <trkpt lat="42.14753" lon="24.80551">
        <ele>199.942763</ele>
        <time>2022-03-03T11:57:21.468Z</time>
      </trkpt>
      <trkpt lat="42.14752" lon="24.80535">
        <ele>199.739605</ele>
        <time>2022-03-03T11:57:24.434Z</time>
      </trkpt>
      <trkpt lat="42.14752" lon="24.80519">
        <ele>199.525958</ele>
        <time>2022-03-03T11:57:27.453Z</time>
      </trkpt>
      <trkpt lat="42.14752" lon="24.80504">
        <ele>199.320272</ele>
        <time>2022-03-03T11:57:30.453Z</time>
      </trkpt>
      <trkpt lat="42.14752" lon="24.80488">
        <ele>199.117209</ele>
        <time>2022-03-03T11:57:33.463Z</time>
      </trkpt>
      <trkpt lat="42.14753" lon="24.80474">
        <ele>198.922065</ele>
        <time>2022-03-03T11:57:36.447Z</time>
      </trkpt>
      <trkpt lat="42.14753" lon="24.80458">
        <ele>198.709262</ele>
        <time>2022-03-03T11:57:39.434Z</time>
      </trkpt>
      <trkpt lat="42.14754" lon="24.8044">
        <ele>198.475462</ele>
        <time>2022-03-03T11:57:42.429Z</time>
      </trkpt>
      <trkpt lat="42.14755" lon="24.80428">
        <ele>198.312581</ele>
        <time>2022-03-03T11:57:44.429Z</time>
      </trkpt>
      <trkpt lat="42.14756" lon="24.80415">
        <ele>198.138155</ele>
        <time>2022-03-03T11:57:46.451Z</time>
      </trkpt>
      <trkpt lat="42.14756" lon="24.80401">
        <ele>197.953485</ele>
        <time>2022-03-03T11:57:48.435Z</time>
      </trkpt>
      <trkpt lat="42.14757" lon="24.80387">
        <ele>197.691163</ele>
        <time>2022-03-03T11:57:50.432Z</time>
      </trkpt>
      <trkpt lat="42.14758" lon="24.80372">
        <ele>197.419163</ele>
        <time>2022-03-03T11:57:52.430Z</time>
      </trkpt>
      <trkpt lat="42.14758" lon="24.80358">
        <ele>197.163903</ele>
        <time>2022-03-03T11:57:54.426Z</time>
      </trkpt>
      <trkpt lat="42.14759" lon="24.80344">
        <ele>196.906257</ele>
        <time>2022-03-03T11:57:56.451Z</time>
      </trkpt>
      <trkpt lat="42.1476" lon="24.80331">
        <ele>196.652682</ele>
        <time>2022-03-03T11:57:58.484Z</time>
      </trkpt>
      <trkpt lat="42.1476" lon="24.80317">
        <ele>196.391737</ele>
        <time>2022-03-03T11:58:00.494Z</time>
      </trkpt>
      <trkpt lat="42.14761" lon="24.80302">
        <ele>196.117532</ele>
        <time>2022-03-03T11:58:02.442Z</time>
      </trkpt>
      <trkpt lat="42.14762" lon="24.80287">
        <ele>195.841678</ele>
        <time>2022-03-03T11:58:04.466Z</time>
      </trkpt>
      <trkpt lat="42.14763" lon="24.80272">
        <ele>195.569678</ele>
        <time>2022-03-03T11:58:06.440Z</time>
      </trkpt>
      <trkpt lat="42.14764" lon="24.80258">
        <ele>195.303031</ele>
        <time>2022-03-03T11:58:08.456Z</time>
      </trkpt>
      <trkpt lat="42.14764" lon="24.80243">
        <ele>195.036385</ele>
        <time>2022-03-03T11:58:10.467Z</time>
      </trkpt>
      <trkpt lat="42.14765" lon="24.80229">
        <ele>194.7769</ele>
        <time>2022-03-03T11:58:12.454Z</time>
      </trkpt>
      <trkpt lat="42.14766" lon="24.80216">
        <ele>194.524281</ele>
        <time>2022-03-03T11:58:14.464Z</time>
      </trkpt>
      <trkpt lat="42.14767" lon="24.80203">
        <ele>194.286616</ele>
        <time>2022-03-03T11:58:16.450Z</time>
      </trkpt>
      <trkpt lat="42.14769" lon="24.8019">
        <ele>194.038323</ele>
        <time>2022-03-03T11:58:18.426Z</time>
      </trkpt>
      <trkpt lat="42.14771" lon="24.80178">
        <ele>193.813612</ele>
        <time>2022-03-03T11:58:20.467Z</time>
      </trkpt>
      <trkpt lat="42.14773" lon="24.80161">
        <ele>193.497688</ele>
        <time>2022-03-03T11:58:23.443Z</time>
      </trkpt>
      <trkpt lat="42.14775" lon="24.80145">
        <ele>193.493033</ele>
        <time>2022-03-03T11:58:26.481Z</time>
      </trkpt>
      <trkpt lat="42.14776" lon="24.80131">
        <ele>193.511846</ele>
        <time>2022-03-03T11:58:29.448Z</time>
      </trkpt>
      <trkpt lat="42.14778" lon="24.80117">
        <ele>193.530309</ele>
        <time>2022-03-03T11:58:32.422Z</time>
      </trkpt>
      <trkpt lat="42.14779" lon="24.80102">
        <ele>193.549912</ele>
        <time>2022-03-03T11:58:35.440Z</time>
      </trkpt>
      <trkpt lat="42.1478" lon="24.80087">
        <ele>193.570288</ele>
        <time>2022-03-03T11:58:38.430Z</time>
      </trkpt>
      <trkpt lat="42.14781" lon="24.80071">
        <ele>193.591044</ele>
        <time>2022-03-03T11:58:41.456Z</time>
      </trkpt>
      <trkpt lat="42.14782" lon="24.80056">
        <ele>193.612027</ele>
        <time>2022-03-03T11:58:44.431Z</time>
      </trkpt>
      <trkpt lat="42.14783" lon="24.80041">
        <ele>193.631727</ele>
        <time>2022-03-03T11:58:47.451Z</time>
      </trkpt>
      <trkpt lat="42.14784" lon="24.80026">
        <ele>193.65075</ele>
        <time>2022-03-03T11:58:50.440Z</time>
      </trkpt>
      <trkpt lat="42.14785" lon="24.8001">
        <ele>193.672034</ele>
        <time>2022-03-03T11:58:53.430Z</time>
      </trkpt>
      <trkpt lat="42.14786" lon="24.79994">
        <ele>193.693994</ele>
        <time>2022-03-03T11:58:56.433Z</time>
      </trkpt>
      <trkpt lat="42.14788" lon="24.79978">
        <ele>193.714915</ele>
        <time>2022-03-03T11:58:59.447Z</time>
      </trkpt>
      <trkpt lat="42.14788" lon="24.79962">
        <ele>193.73604</ele>
        <time>2022-03-03T11:59:02.483Z</time>
      </trkpt>
      <trkpt lat="42.1479" lon="24.79945">
        <ele>193.75866</ele>
        <time>2022-03-03T11:59:05.462Z</time>
      </trkpt>
      <trkpt lat="42.14791" lon="24.79927">
        <ele>193.782733</ele>
        <time>2022-03-03T11:59:08.456Z</time>
      </trkpt>
      <trkpt lat="42.14792" lon="24.79914">
        <ele>193.815199</ele>
        <time>2022-03-03T11:59:10.442Z</time>
      </trkpt>
      <trkpt lat="42.14794" lon="24.79902">
        <ele>193.877673</ele>
        <time>2022-03-03T11:59:12.450Z</time>
      </trkpt>
      <trkpt lat="42.14796" lon="24.79889">
        <ele>193.944381</ele>
        <time>2022-03-03T11:59:14.464Z</time>
      </trkpt>
      <trkpt lat="42.14797" lon="24.79876">
        <ele>194.012083</ele>
        <time>2022-03-03T11:59:16.467Z</time>
      </trkpt>
      <trkpt lat="42.14798" lon="24.79863">
        <ele>194.076791</ele>
        <time>2022-03-03T11:59:18.449Z</time>
      </trkpt>
      <trkpt lat="42.14798" lon="24.7985">
        <ele>194.141914</ele>
        <time>2022-03-03T11:59:20.461Z</time>
      </trkpt>
      <trkpt lat="42.14799" lon="24.79837">
        <ele>194.20524</ele>
        <time>2022-03-03T11:59:22.513Z</time>
      </trkpt>
      <trkpt lat="42.148" lon="24.79824">
        <ele>194.270369</ele>
        <time>2022-03-03T11:59:24.466Z</time>
      </trkpt>
      <trkpt lat="42.14802" lon="24.79811">
        <ele>194.334602</ele>
        <time>2022-03-03T11:59:26.445Z</time>
      </trkpt>
      <trkpt lat="42.14803" lon="24.79799">
        <ele>194.396933</ele>
        <time>2022-03-03T11:59:28.455Z</time>
      </trkpt>
      <trkpt lat="42.14804" lon="24.79782">
        <ele>194.483426</ele>
        <time>2022-03-03T11:59:31.425Z</time>
      </trkpt>
      <trkpt lat="42.14807" lon="24.79767">
        <ele>194.560647</ele>
        <time>2022-03-03T11:59:34.514Z</time>
      </trkpt>
      <trkpt lat="42.14812" lon="24.79753">
        <ele>194.639908</ele>
        <time>2022-03-03T11:59:37.408Z</time>
      </trkpt>
      <trkpt lat="42.14817" lon="24.7974">
        <ele>194.714413</ele>
        <time>2022-03-03T11:59:40.438Z</time>
      </trkpt>
      <trkpt lat="42.14819" lon="24.79726">
        <ele>194.783301</ele>
        <time>2022-03-03T11:59:43.441Z</time>
      </trkpt>
      <trkpt lat="42.14816" lon="24.79712">
        <ele>194.857138</ele>
        <time>2022-03-03T11:59:46.426Z</time>
      </trkpt>
      <trkpt lat="42.14812" lon="24.79695">
        <ele>194.942824</ele>
        <time>2022-03-03T11:59:49.468Z</time>
      </trkpt>
      <trkpt lat="42.1481" lon="24.7968">
        <ele>195.043526</ele>
        <time>2022-03-03T11:59:52.439Z</time>
      </trkpt>
      <trkpt lat="42.1481" lon="24.79663">
        <ele>195.2878</ele>
        <time>2022-03-03T11:59:55.453Z</time>
      </trkpt>
      <trkpt lat="42.14812" lon="24.79647">
        <ele>195.518567</ele>
        <time>2022-03-03T11:59:58.442Z</time>
      </trkpt>
      <trkpt lat="42.14813" lon="24.79634">
        <ele>195.705804</ele>
        <time>2022-03-03T12:00:01.458Z</time>
      </trkpt>
      <trkpt lat="42.14814" lon="24.79622">
        <ele>195.882858</ele>
        <time>2022-03-03T12:00:04.434Z</time>
      </trkpt>
      <trkpt lat="42.14815" lon="24.7961">
        <ele>196.060406</ele>
        <time>2022-03-03T12:00:07.463Z</time>
      </trkpt>
      <trkpt lat="42.14815" lon="24.79597">
        <ele>196.239048</ele>
        <time>2022-03-03T12:00:10.444Z</time>
      </trkpt>
      <trkpt lat="42.14816" lon="24.79584">
        <ele>196.432327</ele>
        <time>2022-03-03T12:00:13.458Z</time>
      </trkpt>
      <trkpt lat="42.14817" lon="24.79567">
        <ele>196.668041</ele>
        <time>2022-03-03T12:00:17.468Z</time>
      </trkpt>
      <trkpt lat="42.14817" lon="24.79555">
        <ele>196.841901</ele>
        <time>2022-03-03T12:00:20.447Z</time>
      </trkpt>
      <trkpt lat="42.14817" lon="24.79541">
        <ele>197.048839</ele>
        <time>2022-03-03T12:00:24.466Z</time>
      </trkpt>
      <trkpt lat="42.14817" lon="24.79526">
        <ele>197.260084</ele>
        <time>2022-03-03T12:00:28.440Z</time>
      </trkpt>
      <trkpt lat="42.14817" lon="24.79512">
        <ele>197.46264</ele>
        <time>2022-03-03T12:00:32.463Z</time>
      </trkpt>
      <trkpt lat="42.14817" lon="24.79499">
        <ele>197.656723</ele>
        <time>2022-03-03T12:00:36.429Z</time>
      </trkpt>
      <trkpt lat="42.14817" lon="24.79486">
        <ele>197.833582</ele>
        <time>2022-03-03T12:00:39.426Z</time>
      </trkpt>
      <trkpt lat="42.14817" lon="24.79474">
        <ele>198.008846</ele>
        <time>2022-03-03T12:00:42.424Z</time>
      </trkpt>
      <trkpt lat="42.14817" lon="24.79462">
        <ele>198.185547</ele>
        <time>2022-03-03T12:00:45.473Z</time>
      </trkpt>
      <trkpt lat="42.14817" lon="24.79449">
        <ele>198.370865</ele>
        <time>2022-03-03T12:00:48.430Z</time>
      </trkpt>
      <trkpt lat="42.14817" lon="24.79436">
        <ele>198.528903</ele>
        <time>2022-03-03T12:00:51.441Z</time>
      </trkpt>
      <trkpt lat="42.14817" lon="24.79423">
        <ele>198.6323</ele>
        <time>2022-03-03T12:00:54.465Z</time>
      </trkpt>
      <trkpt lat="42.14817" lon="24.79409">
        <ele>198.750356</ele>
        <time>2022-03-03T12:00:58.467Z</time>
      </trkpt>
      <trkpt lat="42.1482" lon="24.79395">
        <ele>198.863131</ele>
        <time>2022-03-03T12:01:01.463Z</time>
      </trkpt>
      <trkpt lat="42.14821" lon="24.79382">
        <ele>198.971406</ele>
        <time>2022-03-03T12:01:04.435Z</time>
      </trkpt>
      <trkpt lat="42.14822" lon="24.79369">
        <ele>199.0759</ele>
        <time>2022-03-03T12:01:07.440Z</time>
      </trkpt>
      <trkpt lat="42.14823" lon="24.79356">
        <ele>199.182915</ele>
        <time>2022-03-03T12:01:10.447Z</time>
      </trkpt>
      <trkpt lat="42.14823" lon="24.79341">
        <ele>199.311719</ele>
        <time>2022-03-03T12:01:14.433Z</time>
      </trkpt>
      <trkpt lat="42.14824" lon="24.79327">
        <ele>199.419327</ele>
        <time>2022-03-03T12:01:17.424Z</time>
      </trkpt>
      <trkpt lat="42.14824" lon="24.79314">
        <ele>199.531814</ele>
        <time>2022-03-03T12:01:20.425Z</time>
      </trkpt>
      <trkpt lat="42.14825" lon="24.79299">
        <ele>199.64938</ele>
        <time>2022-03-03T12:01:23.439Z</time>
      </trkpt>
      <trkpt lat="42.14826" lon="24.79284">
        <ele>199.774336</ele>
        <time>2022-03-03T12:01:26.456Z</time>
      </trkpt>
      <trkpt lat="42.14828" lon="24.79269">
        <ele>199.893531</ele>
        <time>2022-03-03T12:01:29.430Z</time>
      </trkpt>
      <trkpt lat="42.14831" lon="24.79257">
        <ele>200.000943</ele>
        <time>2022-03-03T12:01:32.435Z</time>
      </trkpt>
      <trkpt lat="42.14835" lon="24.79246">
        <ele>200.100691</ele>
        <time>2022-03-03T12:01:35.438Z</time>
      </trkpt>
      <trkpt lat="42.14837" lon="24.79232">
        <ele>200.216407</ele>
        <time>2022-03-03T12:01:39.443Z</time>
      </trkpt>
      <trkpt lat="42.14836" lon="24.79218">
        <ele>200.331286</ele>
        <time>2022-03-03T12:01:43.450Z</time>
      </trkpt>
      <trkpt lat="42.14837" lon="24.79204">
        <ele>200.444286</ele>
        <time>2022-03-03T12:01:47.433Z</time>
      </trkpt>
      <trkpt lat="42.14838" lon="24.7919">
        <ele>200.652949</ele>
        <time>2022-03-03T12:01:51.434Z</time>
      </trkpt>
      <trkpt lat="42.14841" lon="24.79154">
        <ele>201.278655</ele>
        <time>2022-03-03T12:04:19.442Z</time>
      </trkpt>
      <trkpt lat="42.14842" lon="24.79138">
        <ele>201.554133</ele>
        <time>2022-03-03T12:04:23.422Z</time>
      </trkpt>
      <trkpt lat="42.14842" lon="24.79123">
        <ele>201.818617</ele>
        <time>2022-03-03T12:04:27.435Z</time>
      </trkpt>
      <trkpt lat="42.14844" lon="24.79107">
        <ele>202.092884</ele>
        <time>2022-03-03T12:04:31.464Z</time>
      </trkpt>
      <trkpt lat="42.14844" lon="24.79095">
        <ele>202.304595</ele>
        <time>2022-03-03T12:04:34.432Z</time>
      </trkpt>
      <trkpt lat="42.14845" lon="24.79083">
        <ele>202.524917</ele>
        <time>2022-03-03T12:04:37.432Z</time>
      </trkpt>
      <trkpt lat="42.14847" lon="24.7907">
        <ele>202.740024</ele>
        <time>2022-03-03T12:04:40.430Z</time>
      </trkpt>
      <trkpt lat="42.14847" lon="24.79058">
        <ele>202.958274</ele>
        <time>2022-03-03T12:04:43.445Z</time>
      </trkpt>
      <trkpt lat="42.14848" lon="24.79045">
        <ele>203.186441</ele>
        <time>2022-03-03T12:04:46.440Z</time>
      </trkpt>
      <trkpt lat="42.14851" lon="24.79031">
        <ele>203.426415</ele>
        <time>2022-03-03T12:04:49.454Z</time>
      </trkpt>
      <trkpt lat="42.14852" lon="24.79017">
        <ele>203.668311</ele>
        <time>2022-03-03T12:04:52.458Z</time>
      </trkpt>
      <trkpt lat="42.14852" lon="24.79002">
        <ele>203.927609</ele>
        <time>2022-03-03T12:04:56.480Z</time>
      </trkpt>
      <trkpt lat="42.14853" lon="24.78987">
        <ele>204.189</ele>
        <time>2022-03-03T12:05:00.460Z</time>
      </trkpt>
      <trkpt lat="42.14854" lon="24.78972">
        <ele>204.442244</ele>
        <time>2022-03-03T12:05:04.414Z</time>
      </trkpt>
      <trkpt lat="42.14853" lon="24.78959">
        <ele>204.680876</ele>
        <time>2022-03-03T12:05:08.484Z</time>
      </trkpt>
      <trkpt lat="42.14854" lon="24.78945">
        <ele>204.938936</ele>
        <time>2022-03-03T12:05:12.462Z</time>
      </trkpt>
      <trkpt lat="42.14855" lon="24.78929">
        <ele>205.230425</ele>
        <time>2022-03-03T12:05:16.468Z</time>
      </trkpt>
      <trkpt lat="42.14856" lon="24.78916">
        <ele>205.481091</ele>
        <time>2022-03-03T12:05:19.447Z</time>
      </trkpt>
      <trkpt lat="42.14856" lon="24.78902">
        <ele>205.741247</ele>
        <time>2022-03-03T12:05:22.432Z</time>
      </trkpt>
      <trkpt lat="42.14858" lon="24.78889">
        <ele>205.980147</ele>
        <time>2022-03-03T12:05:25.434Z</time>
      </trkpt>
      <trkpt lat="42.14858" lon="24.78876">
        <ele>206.232373</ele>
        <time>2022-03-03T12:05:28.433Z</time>
      </trkpt>
      <trkpt lat="42.14858" lon="24.78861">
        <ele>206.508645</ele>
        <time>2022-03-03T12:05:31.450Z</time>
      </trkpt>
      <trkpt lat="42.14859" lon="24.78847">
        <ele>206.779264</ele>
        <time>2022-03-03T12:05:34.442Z</time>
      </trkpt>
      <trkpt lat="42.1486" lon="24.78832">
        <ele>207.049145</ele>
        <time>2022-03-03T12:05:37.465Z</time>
      </trkpt>
      <trkpt lat="42.14861" lon="24.78819">
        <ele>207.292782</ele>
        <time>2022-03-03T12:05:40.451Z</time>
      </trkpt>
      <trkpt lat="42.14861" lon="24.78804">
        <ele>207.58255</ele>
        <time>2022-03-03T12:05:44.422Z</time>
      </trkpt>
      <trkpt lat="42.14861" lon="24.78788">
        <ele>207.881207</ele>
        <time>2022-03-03T12:05:48.427Z</time>
      </trkpt>
      <trkpt lat="42.1486" lon="24.78775">
        <ele>208.116808</ele>
        <time>2022-03-03T12:05:51.449Z</time>
      </trkpt>
      <trkpt lat="42.14863" lon="24.78761">
        <ele>208.387931</ele>
        <time>2022-03-03T12:05:54.432Z</time>
      </trkpt>
      <trkpt lat="42.14865" lon="24.78746">
        <ele>208.676619</ele>
        <time>2022-03-03T12:05:58.429Z</time>
      </trkpt>
      <trkpt lat="42.14865" lon="24.78732">
        <ele>208.936592</ele>
        <time>2022-03-03T12:06:02.445Z</time>
      </trkpt>
      <trkpt lat="42.14868" lon="24.78719">
        <ele>209.17451</ele>
        <time>2022-03-03T12:06:05.435Z</time>
      </trkpt>
      <trkpt lat="42.14869" lon="24.78707">
        <ele>209.181255</ele>
        <time>2022-03-03T12:06:08.436Z</time>
      </trkpt>
      <trkpt lat="42.1487" lon="24.78692">
        <ele>209.171275</ele>
        <time>2022-03-03T12:06:12.440Z</time>
      </trkpt>
      <trkpt lat="42.14871" lon="24.78678">
        <ele>209.162115</ele>
        <time>2022-03-03T12:06:16.424Z</time>
      </trkpt>
      <trkpt lat="42.14874" lon="24.78665">
        <ele>209.153669</ele>
        <time>2022-03-03T12:06:20.436Z</time>
      </trkpt>
      <trkpt lat="42.14874" lon="24.78652">
        <ele>209.144839</ele>
        <time>2022-03-03T12:06:25.438Z</time>
      </trkpt>
      <trkpt lat="42.14871" lon="24.78637">
        <ele>209.135193</ele>
        <time>2022-03-03T12:06:33.430Z</time>
      </trkpt>
      <trkpt lat="42.14867" lon="24.78623">
        <ele>209.125508</ele>
        <time>2022-03-03T12:06:36.416Z</time>
      </trkpt>
      <trkpt lat="42.14866" lon="24.7861">
        <ele>209.116792</ele>
        <time>2022-03-03T12:06:39.428Z</time>
      </trkpt>
      <trkpt lat="42.14867" lon="24.78596">
        <ele>209.107928</ele>
        <time>2022-03-03T12:06:42.454Z</time>
      </trkpt>
      <trkpt lat="42.14868" lon="24.78583">
        <ele>209.099451</ele>
        <time>2022-03-03T12:06:45.451Z</time>
      </trkpt>
      <trkpt lat="42.1487" lon="24.78567">
        <ele>209.088802</ele>
        <time>2022-03-03T12:06:48.498Z</time>
      </trkpt>
      <trkpt lat="42.14871" lon="24.78555">
        <ele>209.080769</ele>
        <time>2022-03-03T12:06:50.439Z</time>
      </trkpt>
      <trkpt lat="42.14872" lon="24.78538">
        <ele>209.070051</ele>
        <time>2022-03-03T12:06:53.479Z</time>
      </trkpt>
      <trkpt lat="42.14872" lon="24.78522">
        <ele>209.059465</ele>
        <time>2022-03-03T12:06:56.454Z</time>
      </trkpt>
      <trkpt lat="42.14873" lon="24.78507">
        <ele>209.049252</ele>
        <time>2022-03-03T12:06:59.434Z</time>
      </trkpt>
      <trkpt lat="42.14874" lon="24.78492">
        <ele>209.039553</ele>
        <time>2022-03-03T12:07:02.432Z</time>
      </trkpt>
      <trkpt lat="42.14875" lon="24.78476">
        <ele>209.126699</ele>
        <time>2022-03-03T12:07:05.462Z</time>
      </trkpt>
      <trkpt lat="42.14876" lon="24.7846">
        <ele>209.679112</ele>
        <time>2022-03-03T12:07:08.421Z</time>
      </trkpt>
      <trkpt lat="42.14877" lon="24.78445">
        <ele>210.208702</ele>
        <time>2022-03-03T12:07:11.469Z</time>
      </trkpt>
      <trkpt lat="42.14879" lon="24.7843">
        <ele>210.769584</ele>
        <time>2022-03-03T12:07:14.422Z</time>
      </trkpt>
      <trkpt lat="42.1488" lon="24.78413">
        <ele>211.337994</ele>
        <time>2022-03-03T12:07:17.431Z</time>
      </trkpt>
      <trkpt lat="42.14881" lon="24.78397">
        <ele>211.928779</ele>
        <time>2022-03-03T12:07:20.426Z</time>
      </trkpt>
      <trkpt lat="42.14882" lon="24.78379">
        <ele>212.531749</ele>
        <time>2022-03-03T12:07:23.438Z</time>
      </trkpt>
      <trkpt lat="42.14883" lon="24.78364">
        <ele>213.0624</ele>
        <time>2022-03-03T12:07:26.430Z</time>
      </trkpt>
      <trkpt lat="42.14884" lon="24.7835">
        <ele>213.556078</ele>
        <time>2022-03-03T12:07:29.455Z</time>
      </trkpt>
      <trkpt lat="42.14886" lon="24.78335">
        <ele>214.092586</ele>
        <time>2022-03-03T12:07:32.430Z</time>
      </trkpt>
      <trkpt lat="42.14886" lon="24.78317">
        <ele>214.720058</ele>
        <time>2022-03-03T12:07:35.438Z</time>
      </trkpt>
      <trkpt lat="42.14887" lon="24.78305">
        <ele>215.165558</ele>
        <time>2022-03-03T12:07:37.438Z</time>
      </trkpt>
      <trkpt lat="42.14887" lon="24.78292">
        <ele>215.617833</ele>
        <time>2022-03-03T12:07:39.418Z</time>
      </trkpt>
      <trkpt lat="42.14888" lon="24.78275">
        <ele>216.218343</ele>
        <time>2022-03-03T12:07:42.435Z</time>
      </trkpt>
      <trkpt lat="42.1489" lon="24.78259">
        <ele>216.788007</ele>
        <time>2022-03-03T12:07:45.444Z</time>
      </trkpt>
      <trkpt lat="42.14892" lon="24.78245">
        <ele>217.279677</ele>
        <time>2022-03-03T12:07:48.463Z</time>
      </trkpt>
      <trkpt lat="42.14893" lon="24.78233">
        <ele>217.273411</ele>
        <time>2022-03-03T12:07:51.444Z</time>
      </trkpt>
      <trkpt lat="42.14894" lon="24.78219">
        <ele>216.592185</ele>
        <time>2022-03-03T12:07:54.419Z</time>
      </trkpt>
      <trkpt lat="42.14895" lon="24.78207">
        <ele>215.988</ele>
        <time>2022-03-03T12:07:57.427Z</time>
      </trkpt>
      <trkpt lat="42.14896" lon="24.78191">
        <ele>215.214877</ele>
        <time>2022-03-03T12:08:00.445Z</time>
      </trkpt>
      <trkpt lat="42.14898" lon="24.78174">
        <ele>214.382284</ele>
        <time>2022-03-03T12:08:03.488Z</time>
      </trkpt>
      <trkpt lat="42.149" lon="24.78157">
        <ele>213.540913</ele>
        <time>2022-03-03T12:08:06.427Z</time>
      </trkpt>
      <trkpt lat="42.14902" lon="24.7814">
        <ele>212.648388</ele>
        <time>2022-03-03T12:08:09.444Z</time>
      </trkpt>
      <trkpt lat="42.14903" lon="24.78127">
        <ele>212.041716</ele>
        <time>2022-03-03T12:08:11.444Z</time>
      </trkpt>
      <trkpt lat="42.14903" lon="24.78113">
        <ele>211.326834</ele>
        <time>2022-03-03T12:08:13.479Z</time>
      </trkpt>
      <trkpt lat="42.14904" lon="24.78097">
        <ele>210.549528</ele>
        <time>2022-03-03T12:08:16.465Z</time>
      </trkpt>
      <trkpt lat="42.14905" lon="24.78083">
        <ele>209.837828</ele>
        <time>2022-03-03T12:08:19.463Z</time>
      </trkpt>
      <trkpt lat="42.14907" lon="24.78068">
        <ele>209.107801</ele>
        <time>2022-03-03T12:08:22.429Z</time>
      </trkpt>
      <trkpt lat="42.1491" lon="24.78054">
        <ele>208.396782</ele>
        <time>2022-03-03T12:08:25.454Z</time>
      </trkpt>
      <trkpt lat="42.14911" lon="24.78037">
        <ele>207.530607</ele>
        <time>2022-03-03T12:08:28.433Z</time>
      </trkpt>
      <trkpt lat="42.14912" lon="24.78023">
        <ele>206.882683</ele>
        <time>2022-03-03T12:08:30.458Z</time>
      </trkpt>
      <trkpt lat="42.14913" lon="24.78011">
        <ele>206.245673</ele>
        <time>2022-03-03T12:08:32.448Z</time>
      </trkpt>
      <trkpt lat="42.14915" lon="24.77995">
        <ele>205.531121</ele>
        <time>2022-03-03T12:08:35.443Z</time>
      </trkpt>
      <trkpt lat="42.14916" lon="24.77979">
        <ele>205.106531</ele>
        <time>2022-03-03T12:08:38.479Z</time>
      </trkpt>
      <trkpt lat="42.14917" lon="24.77963">
        <ele>204.707781</ele>
        <time>2022-03-03T12:08:41.434Z</time>
      </trkpt>
      <trkpt lat="42.14918" lon="24.77951">
        <ele>204.379847</ele>
        <time>2022-03-03T12:08:44.432Z</time>
      </trkpt>
      <trkpt lat="42.14918" lon="24.77937">
        <ele>204.040668</ele>
        <time>2022-03-03T12:08:48.423Z</time>
      </trkpt>
      <trkpt lat="42.1492" lon="24.77924">
        <ele>203.694065</ele>
        <time>2022-03-03T12:08:53.461Z</time>
      </trkpt>
      <trkpt lat="42.14919" lon="24.7791">
        <ele>203.331844</ele>
        <time>2022-03-03T12:08:58.433Z</time>
      </trkpt>
      <trkpt lat="42.1492" lon="24.77897">
        <ele>203.006843</ele>
        <time>2022-03-03T12:09:01.437Z</time>
      </trkpt>
      <trkpt lat="42.1492" lon="24.77884">
        <ele>202.678104</ele>
        <time>2022-03-03T12:09:04.425Z</time>
      </trkpt>
      <trkpt lat="42.14921" lon="24.77871">
        <ele>202.32759</ele>
        <time>2022-03-03T12:09:07.496Z</time>
      </trkpt>
      <trkpt lat="42.14922" lon="24.77854">
        <ele>201.905826</ele>
        <time>2022-03-03T12:09:10.422Z</time>
      </trkpt>
      <trkpt lat="42.14922" lon="24.77838">
        <ele>201.487075</ele>
        <time>2022-03-03T12:09:13.430Z</time>
      </trkpt>
      <trkpt lat="42.14923" lon="24.77821">
        <ele>201.047146</ele>
        <time>2022-03-03T12:09:16.435Z</time>
      </trkpt>
      <trkpt lat="42.14924" lon="24.77804">
        <ele>200.603364</ele>
        <time>2022-03-03T12:09:19.481Z</time>
      </trkpt>
      <trkpt lat="42.14925" lon="24.77786">
        <ele>200.139181</ele>
        <time>2022-03-03T12:09:22.422Z</time>
      </trkpt>
      <trkpt lat="42.14926" lon="24.7777">
        <ele>199.721003</ele>
        <time>2022-03-03T12:09:25.389Z</time>
      </trkpt>
      <trkpt lat="42.14927" lon="24.77753">
        <ele>199.4012</ele>
        <time>2022-03-03T12:09:28.398Z</time>
      </trkpt>
      <trkpt lat="42.14929" lon="24.77735">
        <ele>199.681121</ele>
        <time>2022-03-03T12:09:31.420Z</time>
      </trkpt>
      <trkpt lat="42.1493" lon="24.77719">
        <ele>199.941303</ele>
        <time>2022-03-03T12:09:34.404Z</time>
      </trkpt>
      <trkpt lat="42.14932" lon="24.77704">
        <ele>200.180458</ele>
        <time>2022-03-03T12:09:37.410Z</time>
      </trkpt>
      <trkpt lat="42.14934" lon="24.77691">
        <ele>200.386527</ele>
        <time>2022-03-03T12:09:40.415Z</time>
      </trkpt>
      <trkpt lat="42.14934" lon="24.77676">
        <ele>200.618171</ele>
        <time>2022-03-03T12:09:43.460Z</time>
      </trkpt>
      <trkpt lat="42.14933" lon="24.77662">
        <ele>200.852936</ele>
        <time>2022-03-03T12:09:46.439Z</time>
      </trkpt>
      <trkpt lat="42.14933" lon="24.77646">
        <ele>201.097182</ele>
        <time>2022-03-03T12:09:49.438Z</time>
      </trkpt>
      <trkpt lat="42.14931" lon="24.77632">
        <ele>201.329555</ele>
        <time>2022-03-03T12:09:52.429Z</time>
      </trkpt>
      <trkpt lat="42.14929" lon="24.77617">
        <ele>201.561928</ele>
        <time>2022-03-03T12:09:55.410Z</time>
      </trkpt>
      <trkpt lat="42.14928" lon="24.77602">
        <ele>201.799631</ele>
        <time>2022-03-03T12:09:58.455Z</time>
      </trkpt>
      <trkpt lat="42.14926" lon="24.77586">
        <ele>202.061054</ele>
        <time>2022-03-03T12:10:01.443Z</time>
      </trkpt>
      <trkpt lat="42.14923" lon="24.77574">
        <ele>202.257127</ele>
        <time>2022-03-03T12:10:03.448Z</time>
      </trkpt>
      <trkpt lat="42.1492" lon="24.77558">
        <ele>202.521735</ele>
        <time>2022-03-03T12:10:06.430Z</time>
      </trkpt>
      <trkpt lat="42.14918" lon="24.77542">
        <ele>202.76362</ele>
        <time>2022-03-03T12:10:09.418Z</time>
      </trkpt>
      <trkpt lat="42.14919" lon="24.77528">
        <ele>202.991303</ele>
        <time>2022-03-03T12:10:12.423Z</time>
      </trkpt>
      <trkpt lat="42.14922" lon="24.77516">
        <ele>203.194692</ele>
        <time>2022-03-03T12:10:15.434Z</time>
      </trkpt>
      <trkpt lat="42.14925" lon="24.77504">
        <ele>203.552271</ele>
        <time>2022-03-03T12:10:18.442Z</time>
      </trkpt>
      <trkpt lat="42.14923" lon="24.7749">
        <ele>203.948018</ele>
        <time>2022-03-03T12:10:21.428Z</time>
      </trkpt>
      <trkpt lat="42.14921" lon="24.77476">
        <ele>204.366704</ele>
        <time>2022-03-03T12:10:24.426Z</time>
      </trkpt>
      <trkpt lat="42.14919" lon="24.77463">
        <ele>204.744531</ele>
        <time>2022-03-03T12:10:27.441Z</time>
      </trkpt>
      <trkpt lat="42.14916" lon="24.77448">
        <ele>205.180858</ele>
        <time>2022-03-03T12:10:30.451Z</time>
      </trkpt>
      <trkpt lat="42.14913" lon="24.77433">
        <ele>205.637637</ele>
        <time>2022-03-03T12:10:33.438Z</time>
      </trkpt>
      <trkpt lat="42.1491" lon="24.77418">
        <ele>206.097503</ele>
        <time>2022-03-03T12:10:36.454Z</time>
      </trkpt>
      <trkpt lat="42.14905" lon="24.77403">
        <ele>206.540188</ele>
        <time>2022-03-03T12:10:39.424Z</time>
      </trkpt>
      <trkpt lat="42.14901" lon="24.77388">
        <ele>206.998898</ele>
        <time>2022-03-03T12:10:42.456Z</time>
      </trkpt>
      <trkpt lat="42.14897" lon="24.77371">
        <ele>207.530502</ele>
        <time>2022-03-03T12:10:45.443Z</time>
      </trkpt>
      <trkpt lat="42.14893" lon="24.77353">
        <ele>208.04703</ele>
        <time>2022-03-03T12:10:48.437Z</time>
      </trkpt>
      <trkpt lat="42.1489" lon="24.77338">
        <ele>208.506897</ele>
        <time>2022-03-03T12:10:51.426Z</time>
      </trkpt>
      <trkpt lat="42.14887" lon="24.77322">
        <ele>208.976626</ele>
        <time>2022-03-03T12:10:54.439Z</time>
      </trkpt>
      <trkpt lat="42.14884" lon="24.77306">
        <ele>209.456295</ele>
        <time>2022-03-03T12:10:57.447Z</time>
      </trkpt>
      <trkpt lat="42.14881" lon="24.77294">
        <ele>209.817418</ele>
        <time>2022-03-03T12:10:59.431Z</time>
      </trkpt>
      <trkpt lat="42.14879" lon="24.77282">
        <ele>210.163348</ele>
        <time>2022-03-03T12:11:01.463Z</time>
      </trkpt>
      <trkpt lat="42.14876" lon="24.77267">
        <ele>210.527202</ele>
        <time>2022-03-03T12:11:04.422Z</time>
      </trkpt>
      <trkpt lat="42.14874" lon="24.77252">
        <ele>210.901158</ele>
        <time>2022-03-03T12:11:07.446Z</time>
      </trkpt>
      <trkpt lat="42.14871" lon="24.77235">
        <ele>211.320052</ele>
        <time>2022-03-03T12:11:10.459Z</time>
      </trkpt>
      <trkpt lat="42.14872" lon="24.77223">
        <ele>211.62708</ele>
        <time>2022-03-03T12:11:12.432Z</time>
      </trkpt>
      <trkpt lat="42.14868" lon="24.77206">
        <ele>212.036346</ele>
        <time>2022-03-03T12:11:15.433Z</time>
      </trkpt>
      <trkpt lat="42.14865" lon="24.77192">
        <ele>212.410527</ele>
        <time>2022-03-03T12:11:18.447Z</time>
      </trkpt>
      <trkpt lat="42.14862" lon="24.77175">
        <ele>212.815682</ele>
        <time>2022-03-03T12:11:21.456Z</time>
      </trkpt>
      <trkpt lat="42.14858" lon="24.7716">
        <ele>213.200377</ele>
        <time>2022-03-03T12:11:24.423Z</time>
      </trkpt>
      <trkpt lat="42.14856" lon="24.77143">
        <ele>213.630738</ele>
        <time>2022-03-03T12:11:27.428Z</time>
      </trkpt>
      <trkpt lat="42.14854" lon="24.77131">
        <ele>213.927974</ele>
        <time>2022-03-03T12:11:29.422Z</time>
      </trkpt>
      <trkpt lat="42.14851" lon="24.77117">
        <ele>214.262642</ele>
        <time>2022-03-03T12:11:32.448Z</time>
      </trkpt>
      <trkpt lat="42.1485" lon="24.77105">
        <ele>214.572084</ele>
        <time>2022-03-03T12:11:35.415Z</time>
      </trkpt>
      <trkpt lat="42.14846" lon="24.77089">
        <ele>214.96651</ele>
        <time>2022-03-03T12:11:39.435Z</time>
      </trkpt>
      <trkpt lat="42.14844" lon="24.77076">
        <ele>215.280147</ele>
        <time>2022-03-03T12:11:42.421Z</time>
      </trkpt>
      <trkpt lat="42.14842" lon="24.77064">
        <ele>215.582144</ele>
        <time>2022-03-03T12:11:45.433Z</time>
      </trkpt>
      <trkpt lat="42.14838" lon="24.77051">
        <ele>215.925492</ele>
        <time>2022-03-03T12:11:48.440Z</time>
      </trkpt>
      <trkpt lat="42.14834" lon="24.77035">
        <ele>215.551607</ele>
        <time>2022-03-03T12:11:51.441Z</time>
      </trkpt>
      <trkpt lat="42.14832" lon="24.77021">
        <ele>215.076169</ele>
        <time>2022-03-03T12:11:53.423Z</time>
      </trkpt>
      <trkpt lat="42.1483" lon="24.77007">
        <ele>214.608706</ele>
        <time>2022-03-03T12:11:55.444Z</time>
      </trkpt>
      <trkpt lat="42.14828" lon="24.76994">
        <ele>214.167675</ele>
        <time>2022-03-03T12:11:57.469Z</time>
      </trkpt>
      <trkpt lat="42.14826" lon="24.76982">
        <ele>213.752863</ele>
        <time>2022-03-03T12:11:59.466Z</time>
      </trkpt>
      <trkpt lat="42.14823" lon="24.76966">
        <ele>213.200424</ele>
        <time>2022-03-03T12:12:02.428Z</time>
      </trkpt>
      <trkpt lat="42.14821" lon="24.7695">
        <ele>212.630238</ele>
        <time>2022-03-03T12:12:05.438Z</time>
      </trkpt>
      <trkpt lat="42.14818" lon="24.76935">
        <ele>212.138479</ele>
        <time>2022-03-03T12:12:08.477Z</time>
      </trkpt>
      <trkpt lat="42.14815" lon="24.7692">
        <ele>211.608412</ele>
        <time>2022-03-03T12:12:11.431Z</time>
      </trkpt>
      <trkpt lat="42.14812" lon="24.76904">
        <ele>211.052708</ele>
        <time>2022-03-03T12:12:14.440Z</time>
      </trkpt>
      <trkpt lat="42.14809" lon="24.76891">
        <ele>210.609806</ele>
        <time>2022-03-03T12:12:16.437Z</time>
      </trkpt>
      <trkpt lat="42.14806" lon="24.76877">
        <ele>210.123317</ele>
        <time>2022-03-03T12:12:18.447Z</time>
      </trkpt>
      <trkpt lat="42.14804" lon="24.76864">
        <ele>209.672686</ele>
        <time>2022-03-03T12:12:20.418Z</time>
      </trkpt>
      <trkpt lat="42.148" lon="24.76848">
        <ele>209.11309</ele>
        <time>2022-03-03T12:12:23.450Z</time>
      </trkpt>
      <trkpt lat="42.14797" lon="24.76832">
        <ele>208.550852</ele>
        <time>2022-03-03T12:12:26.444Z</time>
      </trkpt>
      <trkpt lat="42.14795" lon="24.76816">
        <ele>207.994139</ele>
        <time>2022-03-03T12:12:29.443Z</time>
      </trkpt>
      <trkpt lat="42.14792" lon="24.768">
        <ele>208.007403</ele>
        <time>2022-03-03T12:12:32.454Z</time>
      </trkpt>
      <trkpt lat="42.1479" lon="24.76783">
        <ele>208.16385</ele>
        <time>2022-03-03T12:12:35.464Z</time>
      </trkpt>
      <trkpt lat="42.14788" lon="24.76766">
        <ele>208.331303</ele>
        <time>2022-03-03T12:12:38.439Z</time>
      </trkpt>
      <trkpt lat="42.14784" lon="24.76749">
        <ele>208.493357</ele>
        <time>2022-03-03T12:12:41.430Z</time>
      </trkpt>
      <trkpt lat="42.14781" lon="24.76734">
        <ele>208.640313</ele>
        <time>2022-03-03T12:12:44.449Z</time>
      </trkpt>
      <trkpt lat="42.14778" lon="24.76719">
        <ele>208.790316</ele>
        <time>2022-03-03T12:12:47.439Z</time>
      </trkpt>
      <trkpt lat="42.14775" lon="24.76704">
        <ele>208.934933</ele>
        <time>2022-03-03T12:12:50.501Z</time>
      </trkpt>
      <trkpt lat="42.14772" lon="24.76687">
        <ele>209.092997</ele>
        <time>2022-03-03T12:12:53.430Z</time>
      </trkpt>
      <trkpt lat="42.14769" lon="24.76672">
        <ele>209.245308</ele>
        <time>2022-03-03T12:12:56.496Z</time>
      </trkpt>
      <trkpt lat="42.14766" lon="24.76657">
        <ele>209.39012</ele>
        <time>2022-03-03T12:12:59.429Z</time>
      </trkpt>
      <trkpt lat="42.14762" lon="24.76642">
        <ele>209.536762</ele>
        <time>2022-03-03T12:13:02.447Z</time>
      </trkpt>
      <trkpt lat="42.14758" lon="24.76627">
        <ele>209.680739</ele>
        <time>2022-03-03T12:13:05.448Z</time>
      </trkpt>
      <trkpt lat="42.14755" lon="24.7661">
        <ele>209.848681</ele>
        <time>2022-03-03T12:13:08.444Z</time>
      </trkpt>
      <trkpt lat="42.14751" lon="24.76595">
        <ele>209.997247</ele>
        <time>2022-03-03T12:13:11.466Z</time>
      </trkpt>
      <trkpt lat="42.14748" lon="24.76578">
        <ele>210.155618</ele>
        <time>2022-03-03T12:13:14.429Z</time>
      </trkpt>
      <trkpt lat="42.14746" lon="24.76562">
        <ele>210.548115</ele>
        <time>2022-03-03T12:13:17.438Z</time>
      </trkpt>
      <trkpt lat="42.14744" lon="24.76547">
        <ele>210.901844</ele>
        <time>2022-03-03T12:13:20.467Z</time>
      </trkpt>
      <trkpt lat="42.14741" lon="24.76533">
        <ele>211.234976</ele>
        <time>2022-03-03T12:13:23.438Z</time>
      </trkpt>
      <trkpt lat="42.14739" lon="24.76517">
        <ele>211.595633</ele>
        <time>2022-03-03T12:13:27.436Z</time>
      </trkpt>
      <trkpt lat="42.14738" lon="24.76505">
        <ele>211.881718</ele>
        <time>2022-03-03T12:13:30.447Z</time>
      </trkpt>
      <trkpt lat="42.14734" lon="24.7649">
        <ele>212.25048</ele>
        <time>2022-03-03T12:13:34.423Z</time>
      </trkpt>
      <trkpt lat="42.1473" lon="24.76478">
        <ele>212.545665</ele>
        <time>2022-03-03T12:13:37.433Z</time>
      </trkpt>
      <trkpt lat="42.14727" lon="24.76466">
        <ele>212.860349</ele>
        <time>2022-03-03T12:13:40.438Z</time>
      </trkpt>
      <trkpt lat="42.14722" lon="24.76451">
        <ele>213.220955</ele>
        <time>2022-03-03T12:13:43.427Z</time>
      </trkpt>
      <trkpt lat="42.14718" lon="24.76436">
        <ele>213.591006</ele>
        <time>2022-03-03T12:13:46.445Z</time>
      </trkpt>
      <trkpt lat="42.14714" lon="24.7642">
        <ele>213.98718</ele>
        <time>2022-03-03T12:13:49.417Z</time>
      </trkpt>
      <trkpt lat="42.14713" lon="24.76407">
        <ele>214.290642</ele>
        <time>2022-03-03T12:13:51.454Z</time>
      </trkpt>
      <trkpt lat="42.14713" lon="24.76394">
        <ele>214.589328</ele>
        <time>2022-03-03T12:13:53.440Z</time>
      </trkpt>
      <trkpt lat="42.1471" lon="24.76378">
        <ele>214.957902</ele>
        <time>2022-03-03T12:13:56.433Z</time>
      </trkpt>
      <trkpt lat="42.1471" lon="24.76366">
        <ele>215.249537</ele>
        <time>2022-03-03T12:14:00.441Z</time>
      </trkpt>
      <trkpt lat="42.14712" lon="24.76351">
        <ele>215.597557</ele>
        <time>2022-03-03T12:14:13.472Z</time>
      </trkpt>
      <trkpt lat="42.14708" lon="24.76312">
        <ele>217.145437</ele>
        <time>2022-03-03T12:15:03.470Z</time>
      </trkpt>
      <trkpt lat="42.14702" lon="24.763">
        <ele>217.729339</ele>
        <time>2022-03-03T12:15:06.433Z</time>
      </trkpt>
      <trkpt lat="42.14696" lon="24.76288">
        <ele>218.327502</ele>
        <time>2022-03-03T12:15:09.425Z</time>
      </trkpt>
      <trkpt lat="42.14693" lon="24.76276">
        <ele>218.856909</ele>
        <time>2022-03-03T12:15:12.424Z</time>
      </trkpt>
      <trkpt lat="42.1469" lon="24.76262">
        <ele>219.513591</ele>
        <time>2022-03-03T12:15:16.418Z</time>
      </trkpt>
      <trkpt lat="42.14688" lon="24.7625">
        <ele>220.03557</ele>
        <time>2022-03-03T12:15:19.432Z</time>
      </trkpt>
      <trkpt lat="42.14684" lon="24.76235">
        <ele>220.700267</ele>
        <time>2022-03-03T12:15:23.443Z</time>
      </trkpt>
      <trkpt lat="42.14679" lon="24.76221">
        <ele>221.383841</ele>
        <time>2022-03-03T12:15:27.443Z</time>
      </trkpt>
      <trkpt lat="42.14672" lon="24.76211">
        <ele>221.908336</ele>
        <time>2022-03-03T12:15:30.423Z</time>
      </trkpt>
      <trkpt lat="42.14667" lon="24.762">
        <ele>222.489624</ele>
        <time>2022-03-03T12:15:34.427Z</time>
      </trkpt>
      <trkpt lat="42.14664" lon="24.76187">
        <ele>223.076793</ele>
        <time>2022-03-03T12:15:37.425Z</time>
      </trkpt>
      <trkpt lat="42.14661" lon="24.76174">
        <ele>223.638425</ele>
        <time>2022-03-03T12:15:40.428Z</time>
      </trkpt>
      <trkpt lat="42.14658" lon="24.76162">
        <ele>224.181736</ele>
        <time>2022-03-03T12:15:43.466Z</time>
      </trkpt>
      <trkpt lat="42.14656" lon="24.76149">
        <ele>224.733607</ele>
        <time>2022-03-03T12:15:46.433Z</time>
      </trkpt>
      <trkpt lat="42.14654" lon="24.76134">
        <ele>225.400349</ele>
        <time>2022-03-03T12:15:49.436Z</time>
      </trkpt>
      <trkpt lat="42.1465" lon="24.76118">
        <ele>226.084326</ele>
        <time>2022-03-03T12:15:52.447Z</time>
      </trkpt>
      <trkpt lat="42.14645" lon="24.76105">
        <ele>226.417738</ele>
        <time>2022-03-03T12:15:56.445Z</time>
      </trkpt>
      <trkpt lat="42.14645" lon="24.76092">
        <ele>226.726574</ele>
        <time>2022-03-03T12:16:03.428Z</time>
      </trkpt>
      <trkpt lat="42.1464" lon="24.76081">
        <ele>227.045935</ele>
        <time>2022-03-03T12:16:08.430Z</time>
      </trkpt>
      <trkpt lat="42.14642" lon="24.76069">
        <ele>227.337426</ele>
        <time>2022-03-03T12:16:11.443Z</time>
      </trkpt>
      <trkpt lat="42.14647" lon="24.76057">
        <ele>227.672203</ele>
        <time>2022-03-03T12:16:16.453Z</time>
      </trkpt>
      <trkpt lat="42.14655" lon="24.76048">
        <ele>228.008999</ele>
        <time>2022-03-03T12:16:19.425Z</time>
      </trkpt>
      <trkpt lat="42.14664" lon="24.76037">
        <ele>228.392703</ele>
        <time>2022-03-03T12:16:22.427Z</time>
      </trkpt>
      <trkpt lat="42.14673" lon="24.76025">
        <ele>228.809028</ele>
        <time>2022-03-03T12:16:25.451Z</time>
      </trkpt>
      <trkpt lat="42.14682" lon="24.76019">
        <ele>229.132527</ele>
        <time>2022-03-03T12:16:29.464Z</time>
      </trkpt>
      <trkpt lat="42.1469" lon="24.76011">
        <ele>229.434904</ele>
        <time>2022-03-03T12:16:35.429Z</time>
      </trkpt>
      <trkpt lat="42.14699" lon="24.76004">
        <ele>229.786397</ele>
        <time>2022-03-03T12:16:40.427Z</time>
      </trkpt>
      <trkpt lat="42.14708" lon="24.75996">
        <ele>230.117217</ele>
        <time>2022-03-03T12:16:46.445Z</time>
      </trkpt>
      <trkpt lat="42.14717" lon="24.75995">
        <ele>230.416132</ele>
        <time>2022-03-03T12:16:49.438Z</time>
      </trkpt>
      <trkpt lat="42.14727" lon="24.75997">
        <ele>230.737602</ele>
        <time>2022-03-03T12:16:53.459Z</time>
      </trkpt>
      <trkpt lat="42.14736" lon="24.75991">
        <ele>231.059262</ele>
        <time>2022-03-03T12:16:57.491Z</time>
      </trkpt>
      <trkpt lat="42.14747" lon="24.75986">
        <ele>231.422864</ele>
        <time>2022-03-03T12:17:02.448Z</time>
      </trkpt>
      <trkpt lat="42.14757" lon="24.75982">
        <ele>231.753794</ele>
        <time>2022-03-03T12:17:07.471Z</time>
      </trkpt>
      <trkpt lat="42.14766" lon="24.75978">
        <ele>231.321805</ele>
        <time>2022-03-03T12:17:12.496Z</time>
      </trkpt>
      <trkpt lat="42.14767" lon="24.75965">
        <ele>230.675684</ele>
        <time>2022-03-03T12:17:16.427Z</time>
      </trkpt>
      <trkpt lat="42.14769" lon="24.7595">
        <ele>229.91881</ele>
        <time>2022-03-03T12:17:21.429Z</time>
      </trkpt>
      <trkpt lat="42.1477" lon="24.75934">
        <ele>229.140051</ele>
        <time>2022-03-03T12:17:25.438Z</time>
      </trkpt>
      <trkpt lat="42.14769" lon="24.75921">
        <ele>228.466216</ele>
        <time>2022-03-03T12:17:29.469Z</time>
      </trkpt>
      <trkpt lat="42.14767" lon="24.75909">
        <ele>227.859462</ele>
        <time>2022-03-03T12:17:33.446Z</time>
      </trkpt>
      <trkpt lat="42.14771" lon="24.75895">
        <ele>227.120171</ele>
        <time>2022-03-03T12:17:37.429Z</time>
      </trkpt>
      <trkpt lat="42.14774" lon="24.75881">
        <ele>226.399779</ele>
        <time>2022-03-03T12:17:41.516Z</time>
      </trkpt>
      <trkpt lat="42.14771" lon="24.75868">
        <ele>225.765915</ele>
        <time>2022-03-03T12:17:44.429Z</time>
      </trkpt>
      <trkpt lat="42.1477" lon="24.75855">
        <ele>225.073693</ele>
        <time>2022-03-03T12:17:47.439Z</time>
      </trkpt>
      <trkpt lat="42.14767" lon="24.7584">
        <ele>224.326734</ele>
        <time>2022-03-03T12:17:50.469Z</time>
      </trkpt>
      <trkpt lat="42.1476" lon="24.75828">
        <ele>223.554348</ele>
        <time>2022-03-03T12:17:53.459Z</time>
      </trkpt>
      <trkpt lat="42.14753" lon="24.75816">
        <ele>222.785899</ele>
        <time>2022-03-03T12:17:57.494Z</time>
      </trkpt>
      <trkpt lat="42.14747" lon="24.75804">
        <ele>222.119041</ele>
        <time>2022-03-03T12:18:00.438Z</time>
      </trkpt>
      <trkpt lat="42.14742" lon="24.75789">
        <ele>221.302163</ele>
        <time>2022-03-03T12:18:04.429Z</time>
      </trkpt>
      <trkpt lat="42.14735" lon="24.75778">
        <ele>220.56751</ele>
        <time>2022-03-03T12:18:08.426Z</time>
      </trkpt>
      <trkpt lat="42.14727" lon="24.75769">
        <ele>219.839019</ele>
        <time>2022-03-03T12:18:12.410Z</time>
      </trkpt>
      <trkpt lat="42.14723" lon="24.75757">
        <ele>219.87116</ele>
        <time>2022-03-03T12:18:15.422Z</time>
      </trkpt>
      <trkpt lat="42.14722" lon="24.75742">
        <ele>219.955886</ele>
        <time>2022-03-03T12:18:19.433Z</time>
      </trkpt>
      <trkpt lat="42.14719" lon="24.75729">
        <ele>220.032175</ele>
        <time>2022-03-03T12:18:23.455Z</time>
      </trkpt>
      <trkpt lat="42.14719" lon="24.75716">
        <ele>220.104547</ele>
        <time>2022-03-03T12:18:27.460Z</time>
      </trkpt>
      <trkpt lat="42.1472" lon="24.75701">
        <ele>220.189852</ele>
        <time>2022-03-03T12:18:32.433Z</time>
      </trkpt>
      <trkpt lat="42.14719" lon="24.75687">
        <ele>220.266185</ele>
        <time>2022-03-03T12:18:36.453Z</time>
      </trkpt>
      <trkpt lat="42.14717" lon="24.75672">
        <ele>220.350723</ele>
        <time>2022-03-03T12:18:40.439Z</time>
      </trkpt>
      <trkpt lat="42.14716" lon="24.75657">
        <ele>220.435845</ele>
        <time>2022-03-03T12:18:44.517Z</time>
      </trkpt>
      <trkpt lat="42.14716" lon="24.75642">
        <ele>220.518931</ele>
        <time>2022-03-03T12:18:47.425Z</time>
      </trkpt>
      <trkpt lat="42.14717" lon="24.75629">
        <ele>220.591623</ele>
        <time>2022-03-03T12:18:50.427Z</time>
      </trkpt>
      <trkpt lat="42.14717" lon="24.75617">
        <ele>220.661767</ele>
        <time>2022-03-03T12:18:54.455Z</time>
      </trkpt>
      <trkpt lat="42.14717" lon="24.75604">
        <ele>220.734155</ele>
        <time>2022-03-03T12:18:57.449Z</time>
      </trkpt>
      <trkpt lat="42.1472" lon="24.75591">
        <ele>220.807635</ele>
        <time>2022-03-03T12:19:01.439Z</time>
      </trkpt>
      <trkpt lat="42.14722" lon="24.75577">
        <ele>220.88777</ele>
        <time>2022-03-03T12:19:05.479Z</time>
      </trkpt>
      <trkpt lat="42.14726" lon="24.75563">
        <ele>220.973854</ele>
        <time>2022-03-03T12:19:09.431Z</time>
      </trkpt>
      <trkpt lat="42.1473" lon="24.75551">
        <ele>221.046668</ele>
        <time>2022-03-03T12:19:13.449Z</time>
      </trkpt>
      <trkpt lat="42.14733" lon="24.75539">
        <ele>221.122517</ele>
        <time>2022-03-03T12:19:18.433Z</time>
      </trkpt>
      <trkpt lat="42.14736" lon="24.75526">
        <ele>221.391441</ele>
        <time>2022-03-03T12:19:23.426Z</time>
      </trkpt>
      <trkpt lat="42.14737" lon="24.75513">
        <ele>221.932649</ele>
        <time>2022-03-03T12:19:28.442Z</time>
      </trkpt>
      <trkpt lat="42.14725" lon="24.75482">
        <ele>223.330059</ele>
        <time>2022-03-03T12:20:12.439Z</time>
      </trkpt>
      <trkpt lat="42.14717" lon="24.75476">
        <ele>223.855245</ele>
        <time>2022-03-03T12:20:16.454Z</time>
      </trkpt>
      <trkpt lat="42.14707" lon="24.7547">
        <ele>224.427789</ele>
        <time>2022-03-03T12:20:20.455Z</time>
      </trkpt>
      <trkpt lat="42.14697" lon="24.75466">
        <ele>225.035592</ele>
        <time>2022-03-03T12:20:24.466Z</time>
      </trkpt>
      <trkpt lat="42.14687" lon="24.75461">
        <ele>225.58788</ele>
        <time>2022-03-03T12:20:28.453Z</time>
      </trkpt>
      <trkpt lat="42.14677" lon="24.75454">
        <ele>226.200573</ele>
        <time>2022-03-03T12:20:33.418Z</time>
      </trkpt>
      <trkpt lat="42.14664" lon="24.75448">
        <ele>226.969803</ele>
        <time>2022-03-03T12:20:36.431Z</time>
      </trkpt>
      <trkpt lat="42.14654" lon="24.75444">
        <ele>227.562909</ele>
        <time>2022-03-03T12:20:38.418Z</time>
      </trkpt>
      <trkpt lat="42.14644" lon="24.75436">
        <ele>228.181223</ele>
        <time>2022-03-03T12:20:41.442Z</time>
      </trkpt>
      <trkpt lat="42.14636" lon="24.75429">
        <ele>228.692509</ele>
        <time>2022-03-03T12:20:44.431Z</time>
      </trkpt>
      <trkpt lat="42.14643" lon="24.75421">
        <ele>229.192759</ele>
        <time>2022-03-03T12:20:55.426Z</time>
      </trkpt>
      <trkpt lat="42.14653" lon="24.75418">
        <ele>229.747509</ele>
        <time>2022-03-03T12:21:04.435Z</time>
      </trkpt>
      <trkpt lat="42.14674" lon="24.75405">
        <ele>230.975374</ele>
        <time>2022-03-03T12:21:38.417Z</time>
      </trkpt>
      <trkpt lat="42.14682" lon="24.75401">
        <ele>230.975374</ele>
        <time>2022-03-03T12:21:46.434Z</time>
      </trkpt>
      <trkpt lat="42.14691" lon="24.75397">
        <ele>230.975374</ele>
        <time>2022-03-03T12:21:51.415Z</time>
      </trkpt>
      <trkpt lat="42.147" lon="24.75393">
        <ele>230.975374</ele>
        <time>2022-03-03T12:21:58.418Z</time>
      </trkpt>
      <trkpt lat="42.14709" lon="24.75391">
        <ele>230.975374</ele>
        <time>2022-03-03T12:22:08.420Z</time>
      </trkpt>
      <trkpt lat="42.14718" lon="24.75396">
        <ele>230.975374</ele>
        <time>2022-03-03T12:22:19.437Z</time>
      </trkpt>
      <trkpt lat="42.14727" lon="24.754">
        <ele>230.975374</ele>
        <time>2022-03-03T12:22:33.398Z</time>
      </trkpt>
      <trkpt lat="42.14725" lon="24.75383">
        <ele>230.975374</ele>
        <time>2022-03-03T12:24:33.475Z</time>
      </trkpt>
      <trkpt lat="42.14731" lon="24.75394">
        <ele>230.975374</ele>
        <time>2022-03-03T12:24:46.418Z</time>
      </trkpt>
      <trkpt lat="42.14729" lon="24.75415">
        <ele>230.975374</ele>
        <time>2022-03-03T12:25:20.429Z</time>
      </trkpt>
      <trkpt lat="42.14731" lon="24.75375">
        <ele>230.975374</ele>
        <time>2022-03-03T12:29:32.427Z</time>
      </trkpt>
      <trkpt lat="42.1473" lon="24.75404">
        <ele>230.975374</ele>
        <time>2022-03-03T12:44:10.295Z</time>
      </trkpt>
    </trkseg>
  </trk>
  <trk>
    <name><![CDATA[Tour d'Europe: étape 612]]></name>
    <extensions>
      <line xmlns="http://www.topografix.com/GPX/gpx_style/0/2">
        <color>000088</color>
        <width>4</width>
      </line>
    </extensions>
    <trkseg>
      <trkpt lat="41.93396" lon="25.55768">
        <ele>219.911504</ele>
        <time>2022-03-02T07:58:54.918Z</time>
      </trkpt>
      <trkpt lat="41.93378" lon="25.55762">
        <ele>219.911504</ele>
        <time>2022-03-02T08:01:28.879Z</time>
      </trkpt>
      <trkpt lat="41.93359" lon="25.55765">
        <ele>219.911504</ele>
        <time>2022-03-02T08:01:35.886Z</time>
      </trkpt>
      <trkpt lat="41.93353" lon="25.55752">
        <ele>219.911504</ele>
        <time>2022-03-02T08:01:44.911Z</time>
      </trkpt>
      <trkpt lat="41.93347" lon="25.55741">
        <ele>219.911504</ele>
        <time>2022-03-02T08:01:48.896Z</time>
      </trkpt>
      <trkpt lat="41.93337" lon="25.55737">
        <ele>219.911504</ele>
        <time>2022-03-02T08:01:54.895Z</time>
      </trkpt>
      <trkpt lat="41.93328" lon="25.55731">
        <ele>219.911504</ele>
        <time>2022-03-02T08:01:59.885Z</time>
      </trkpt>
      <trkpt lat="41.93318" lon="25.55735">
        <ele>219.911504</ele>
        <time>2022-03-02T08:02:03.873Z</time>
      </trkpt>
      <trkpt lat="41.93308" lon="25.55733">
        <ele>221.10974</ele>
        <time>2022-03-02T08:02:14.885Z</time>
      </trkpt>
      <trkpt lat="41.93295" lon="25.55719">
        <ele>223.180722</ele>
        <time>2022-03-02T08:04:55.891Z</time>
      </trkpt>
      <trkpt lat="41.93293" lon="25.55706">
        <ele>224.344761</ele>
        <time>2022-03-02T08:04:58.937Z</time>
      </trkpt>
      <trkpt lat="41.93291" lon="25.55693">
        <ele>225.523052</ele>
        <time>2022-03-02T08:05:01.893Z</time>
      </trkpt>
      <trkpt lat="41.93289" lon="25.55681">
        <ele>226.672453</ele>
        <time>2022-03-02T08:05:04.890Z</time>
      </trkpt>
      <trkpt lat="41.93287" lon="25.55665">
        <ele>228.06642</ele>
        <time>2022-03-02T08:05:08.914Z</time>
      </trkpt>
      <trkpt lat="41.93284" lon="25.55652">
        <ele>229.314283</ele>
        <time>2022-03-02T08:05:12.887Z</time>
      </trkpt>
      <trkpt lat="41.93279" lon="25.5564">
        <ele>230.555561</ele>
        <time>2022-03-02T08:05:16.923Z</time>
      </trkpt>
      <trkpt lat="41.93276" lon="25.55628">
        <ele>231.69368</ele>
        <time>2022-03-02T08:05:20.886Z</time>
      </trkpt>
      <trkpt lat="41.93273" lon="25.55613">
        <ele>233.061409</ele>
        <time>2022-03-02T08:05:24.887Z</time>
      </trkpt>
      <trkpt lat="41.9327" lon="25.556">
        <ele>234.337239</ele>
        <time>2022-03-02T08:05:29.910Z</time>
      </trkpt>
      <trkpt lat="41.93271" lon="25.55586">
        <ele>235.607471</ele>
        <time>2022-03-02T08:05:34.894Z</time>
      </trkpt>
      <trkpt lat="41.93272" lon="25.55572">
        <ele>236.836621</ele>
        <time>2022-03-02T08:05:39.892Z</time>
      </trkpt>
      <trkpt lat="41.93268" lon="25.55561">
        <ele>237.932928</ele>
        <time>2022-03-02T08:05:42.907Z</time>
      </trkpt>
      <trkpt lat="41.93267" lon="25.55548">
        <ele>239.146664</ele>
        <time>2022-03-02T08:05:45.884Z</time>
      </trkpt>
      <trkpt lat="41.93276" lon="25.55537">
        <ele>240.620807</ele>
        <time>2022-03-02T08:05:49.919Z</time>
      </trkpt>
      <trkpt lat="41.93282" lon="25.55525">
        <ele>241.630618</ele>
        <time>2022-03-02T08:05:53.883Z</time>
      </trkpt>
      <trkpt lat="41.93286" lon="25.55512">
        <ele>241.50773</ele>
        <time>2022-03-02T08:05:57.959Z</time>
      </trkpt>
      <trkpt lat="41.93293" lon="25.55499">
        <ele>241.371717</ele>
        <time>2022-03-02T08:06:01.898Z</time>
      </trkpt>
      <trkpt lat="41.93296" lon="25.55485">
        <ele>241.23903</ele>
        <time>2022-03-02T08:06:05.945Z</time>
      </trkpt>
      <trkpt lat="41.93294" lon="25.5547">
        <ele>241.106739</ele>
        <time>2022-03-02T08:06:09.892Z</time>
      </trkpt>
      <trkpt lat="41.93288" lon="25.55459">
        <ele>240.990723</ele>
        <time>2022-03-02T08:06:12.906Z</time>
      </trkpt>
      <trkpt lat="41.93279" lon="25.55451">
        <ele>240.861701</ele>
        <time>2022-03-02T08:06:16.935Z</time>
      </trkpt>
      <trkpt lat="41.93269" lon="25.55444">
        <ele>240.725577</ele>
        <time>2022-03-02T08:06:20.920Z</time>
      </trkpt>
      <trkpt lat="41.93263" lon="25.55432">
        <ele>240.596728</ele>
        <time>2022-03-02T08:06:24.898Z</time>
      </trkpt>
      <trkpt lat="41.93264" lon="25.55416">
        <ele>240.459079</ele>
        <time>2022-03-02T08:06:27.870Z</time>
      </trkpt>
      <trkpt lat="41.93262" lon="25.55404">
        <ele>240.347762</ele>
        <time>2022-03-02T08:06:30.944Z</time>
      </trkpt>
      <trkpt lat="41.93263" lon="25.55391">
        <ele>240.237076</ele>
        <time>2022-03-02T08:06:35.894Z</time>
      </trkpt>
      <trkpt lat="41.93262" lon="25.55379">
        <ele>240.124446</ele>
        <time>2022-03-02T08:06:44.912Z</time>
      </trkpt>
      <trkpt lat="41.93265" lon="25.55363">
        <ele>239.98727</ele>
        <time>2022-03-02T08:06:48.897Z</time>
      </trkpt>
      <trkpt lat="41.93272" lon="25.55352">
        <ele>239.857599</ele>
        <time>2022-03-02T08:06:52.894Z</time>
      </trkpt>
      <trkpt lat="41.93279" lon="25.55341">
        <ele>239.736584</ele>
        <time>2022-03-02T08:06:56.880Z</time>
      </trkpt>
      <trkpt lat="41.93288" lon="25.55338">
        <ele>239.619455</ele>
        <time>2022-03-02T08:06:59.898Z</time>
      </trkpt>
      <trkpt lat="41.93299" lon="25.55331">
        <ele>239.313727</ele>
        <time>2022-03-02T08:07:02.924Z</time>
      </trkpt>
      <trkpt lat="41.93308" lon="25.55322">
        <ele>238.775074</ele>
        <time>2022-03-02T08:07:05.919Z</time>
      </trkpt>
      <trkpt lat="41.93317" lon="25.55311">
        <ele>238.231204</ele>
        <time>2022-03-02T08:07:08.873Z</time>
      </trkpt>
      <trkpt lat="41.93328" lon="25.55301">
        <ele>237.609657</ele>
        <time>2022-03-02T08:07:11.932Z</time>
      </trkpt>
      <trkpt lat="41.93336" lon="25.55292">
        <ele>237.097843</ele>
        <time>2022-03-02T08:07:13.900Z</time>
      </trkpt>
      <trkpt lat="41.93345" lon="25.55281">
        <ele>236.56786</ele>
        <time>2022-03-02T08:07:15.974Z</time>
      </trkpt>
      <trkpt lat="41.93352" lon="25.5527">
        <ele>236.040901</ele>
        <time>2022-03-02T08:07:17.895Z</time>
      </trkpt>
      <trkpt lat="41.93358" lon="25.55259">
        <ele>235.582428</ele>
        <time>2022-03-02T08:07:19.899Z</time>
      </trkpt>
      <trkpt lat="41.93363" lon="25.55248">
        <ele>235.131589</ele>
        <time>2022-03-02T08:07:21.918Z</time>
      </trkpt>
      <trkpt lat="41.93367" lon="25.55237">
        <ele>234.692059</ele>
        <time>2022-03-02T08:07:23.894Z</time>
      </trkpt>
      <trkpt lat="41.93372" lon="25.55226">
        <ele>234.26988</ele>
        <time>2022-03-02T08:07:25.892Z</time>
      </trkpt>
      <trkpt lat="41.93376" lon="25.55215">
        <ele>233.829536</ele>
        <time>2022-03-02T08:07:27.903Z</time>
      </trkpt>
      <trkpt lat="41.93379" lon="25.55203">
        <ele>233.394752</ele>
        <time>2022-03-02T08:07:29.895Z</time>
      </trkpt>
      <trkpt lat="41.93383" lon="25.55192">
        <ele>232.961867</ele>
        <time>2022-03-02T08:07:31.911Z</time>
      </trkpt>
      <trkpt lat="41.93389" lon="25.55175">
        <ele>232.344635</ele>
        <time>2022-03-02T08:07:34.932Z</time>
      </trkpt>
      <trkpt lat="41.93393" lon="25.55164">
        <ele>231.913728</ele>
        <time>2022-03-02T08:07:36.888Z</time>
      </trkpt>
      <trkpt lat="41.93397" lon="25.55152">
        <ele>231.458106</ele>
        <time>2022-03-02T08:07:38.871Z</time>
      </trkpt>
      <trkpt lat="41.93402" lon="25.5514">
        <ele>231.322906</ele>
        <time>2022-03-02T08:07:40.940Z</time>
      </trkpt>
      <trkpt lat="41.93406" lon="25.55129">
        <ele>231.681575</ele>
        <time>2022-03-02T08:07:42.902Z</time>
      </trkpt>
      <trkpt lat="41.9341" lon="25.55118">
        <ele>232.021941</ele>
        <time>2022-03-02T08:07:44.890Z</time>
      </trkpt>
      <trkpt lat="41.93414" lon="25.55106">
        <ele>232.37853</ele>
        <time>2022-03-02T08:07:46.894Z</time>
      </trkpt>
      <trkpt lat="41.93417" lon="25.55094">
        <ele>232.748111</ele>
        <time>2022-03-02T08:07:48.877Z</time>
      </trkpt>
      <trkpt lat="41.93421" lon="25.55081">
        <ele>233.111263</ele>
        <time>2022-03-02T08:07:50.947Z</time>
      </trkpt>
      <trkpt lat="41.93424" lon="25.5507">
        <ele>233.465261</ele>
        <time>2022-03-02T08:07:52.895Z</time>
      </trkpt>
      <trkpt lat="41.93428" lon="25.55058">
        <ele>233.82982</ele>
        <time>2022-03-02T08:07:54.883Z</time>
      </trkpt>
      <trkpt lat="41.9343" lon="25.55045">
        <ele>234.19151</ele>
        <time>2022-03-02T08:07:56.895Z</time>
      </trkpt>
      <trkpt lat="41.93433" lon="25.55029">
        <ele>234.664841</ele>
        <time>2022-03-02T08:07:59.898Z</time>
      </trkpt>
      <trkpt lat="41.93437" lon="25.55012">
        <ele>235.130973</ele>
        <time>2022-03-02T08:08:02.884Z</time>
      </trkpt>
      <trkpt lat="41.93439" lon="25.54999">
        <ele>235.511825</ele>
        <time>2022-03-02T08:08:04.886Z</time>
      </trkpt>
      <trkpt lat="41.9344" lon="25.54985">
        <ele>235.904993</ele>
        <time>2022-03-02T08:08:06.897Z</time>
      </trkpt>
      <trkpt lat="41.93442" lon="25.54971">
        <ele>236.295416</ele>
        <time>2022-03-02T08:08:08.898Z</time>
      </trkpt>
      <trkpt lat="41.93443" lon="25.54958">
        <ele>236.653362</ele>
        <time>2022-03-02T08:08:10.900Z</time>
      </trkpt>
      <trkpt lat="41.93442" lon="25.54945">
        <ele>237.026269</ele>
        <time>2022-03-02T08:08:12.913Z</time>
      </trkpt>
      <trkpt lat="41.93441" lon="25.54932">
        <ele>237.389029</ele>
        <time>2022-03-02T08:08:14.869Z</time>
      </trkpt>
      <trkpt lat="41.93439" lon="25.54919">
        <ele>237.760952</ele>
        <time>2022-03-02T08:08:16.879Z</time>
      </trkpt>
      <trkpt lat="41.93437" lon="25.54907">
        <ele>237.949463</ele>
        <time>2022-03-02T08:08:18.899Z</time>
      </trkpt>
      <trkpt lat="41.93435" lon="25.5489">
        <ele>238.042969</ele>
        <time>2022-03-02T08:08:21.893Z</time>
      </trkpt>
      <trkpt lat="41.93434" lon="25.54872">
        <ele>238.14146</ele>
        <time>2022-03-02T08:08:24.918Z</time>
      </trkpt>
      <trkpt lat="41.93434" lon="25.54855">
        <ele>238.232527</ele>
        <time>2022-03-02T08:08:27.982Z</time>
      </trkpt>
      <trkpt lat="41.93433" lon="25.54838">
        <ele>238.326906</ele>
        <time>2022-03-02T08:08:30.883Z</time>
      </trkpt>
      <trkpt lat="41.93434" lon="25.54821">
        <ele>238.420742</ele>
        <time>2022-03-02T08:08:33.893Z</time>
      </trkpt>
      <trkpt lat="41.93434" lon="25.54806">
        <ele>238.499958</ele>
        <time>2022-03-02T08:08:36.906Z</time>
      </trkpt>
      <trkpt lat="41.93434" lon="25.5479">
        <ele>238.588451</ele>
        <time>2022-03-02T08:08:39.907Z</time>
      </trkpt>
      <trkpt lat="41.93433" lon="25.54773">
        <ele>238.680776</ele>
        <time>2022-03-02T08:08:42.954Z</time>
      </trkpt>
      <trkpt lat="41.93432" lon="25.5476">
        <ele>238.748624</ele>
        <time>2022-03-02T08:08:44.932Z</time>
      </trkpt>
      <trkpt lat="41.93432" lon="25.54745">
        <ele>238.833226</ele>
        <time>2022-03-02T08:08:47.933Z</time>
      </trkpt>
      <trkpt lat="41.93431" lon="25.54728">
        <ele>238.925113</ele>
        <time>2022-03-02T08:08:50.906Z</time>
      </trkpt>
      <trkpt lat="41.9343" lon="25.54715">
        <ele>238.991638</ele>
        <time>2022-03-02T08:08:52.907Z</time>
      </trkpt>
      <trkpt lat="41.93428" lon="25.54697">
        <ele>239.091161</ele>
        <time>2022-03-02T08:08:55.906Z</time>
      </trkpt>
      <trkpt lat="41.93425" lon="25.54682">
        <ele>239.176971</ele>
        <time>2022-03-02T08:08:58.901Z</time>
      </trkpt>
      <trkpt lat="41.93422" lon="25.54667">
        <ele>239.188899</ele>
        <time>2022-03-02T08:09:01.890Z</time>
      </trkpt>
      <trkpt lat="41.93418" lon="25.54652">
        <ele>239.117767</ele>
        <time>2022-03-02T08:09:04.937Z</time>
      </trkpt>
      <trkpt lat="41.93417" lon="25.5464">
        <ele>239.058006</ele>
        <time>2022-03-02T08:09:06.896Z</time>
      </trkpt>
      <trkpt lat="41.93421" lon="25.54626">
        <ele>238.989708</ele>
        <time>2022-03-02T08:09:08.879Z</time>
      </trkpt>
      <trkpt lat="41.93427" lon="25.54615">
        <ele>238.926563</ele>
        <time>2022-03-02T08:09:10.897Z</time>
      </trkpt>
      <trkpt lat="41.9343" lon="25.54603">
        <ele>238.86787</ele>
        <time>2022-03-02T08:09:12.904Z</time>
      </trkpt>
      <trkpt lat="41.93434" lon="25.54592">
        <ele>238.809534</ele>
        <time>2022-03-02T08:09:14.927Z</time>
      </trkpt>
      <trkpt lat="41.93438" lon="25.5458">
        <ele>238.750471</ele>
        <time>2022-03-02T08:09:16.914Z</time>
      </trkpt>
      <trkpt lat="41.93443" lon="25.54565">
        <ele>238.672788</ele>
        <time>2022-03-02T08:09:19.875Z</time>
      </trkpt>
      <trkpt lat="41.93449" lon="25.54551">
        <ele>238.595202</ele>
        <time>2022-03-02T08:09:22.898Z</time>
      </trkpt>
      <trkpt lat="41.93456" lon="25.54538">
        <ele>238.520214</ele>
        <time>2022-03-02T08:09:25.904Z</time>
      </trkpt>
      <trkpt lat="41.93461" lon="25.54526">
        <ele>238.455068</ele>
        <time>2022-03-02T08:09:28.893Z</time>
      </trkpt>
      <trkpt lat="41.93466" lon="25.54513">
        <ele>238.388756</ele>
        <time>2022-03-02T08:09:31.897Z</time>
      </trkpt>
      <trkpt lat="41.9347" lon="25.545">
        <ele>238.320451</ele>
        <time>2022-03-02T08:09:34.939Z</time>
      </trkpt>
      <trkpt lat="41.93473" lon="25.54485">
        <ele>238.249153</ele>
        <time>2022-03-02T08:09:37.900Z</time>
      </trkpt>
      <trkpt lat="41.93476" lon="25.54473">
        <ele>238.190759</ele>
        <time>2022-03-02T08:09:40.884Z</time>
      </trkpt>
      <trkpt lat="41.93481" lon="25.54462">
        <ele>238.128915</ele>
        <time>2022-03-02T08:09:43.919Z</time>
      </trkpt>
      <trkpt lat="41.93487" lon="25.54451">
        <ele>238.212916</ele>
        <time>2022-03-02T08:09:46.940Z</time>
      </trkpt>
      <trkpt lat="41.93494" lon="25.54438">
        <ele>238.62408</ele>
        <time>2022-03-02T08:09:50.889Z</time>
      </trkpt>
      <trkpt lat="41.93498" lon="25.54428">
        <ele>238.939634</ele>
        <time>2022-03-02T08:09:53.912Z</time>
      </trkpt>
      <trkpt lat="41.93503" lon="25.54417">
        <ele>239.266472</ele>
        <time>2022-03-02T08:09:56.895Z</time>
      </trkpt>
      <trkpt lat="41.93509" lon="25.54402">
        <ele>239.693577</ele>
        <time>2022-03-02T08:10:00.905Z</time>
      </trkpt>
      <trkpt lat="41.93513" lon="25.54388">
        <ele>240.072625</ele>
        <time>2022-03-02T08:10:03.933Z</time>
      </trkpt>
      <trkpt lat="41.93518" lon="25.54376">
        <ele>240.426696</ele>
        <time>2022-03-02T08:10:06.881Z</time>
      </trkpt>
      <trkpt lat="41.93523" lon="25.54365">
        <ele>240.753533</ele>
        <time>2022-03-02T08:10:10.899Z</time>
      </trkpt>
      <trkpt lat="41.93525" lon="25.54353">
        <ele>241.062022</ele>
        <time>2022-03-02T08:10:13.909Z</time>
      </trkpt>
      <trkpt lat="41.93533" lon="25.5434">
        <ele>241.48341</ele>
        <time>2022-03-02T08:10:17.912Z</time>
      </trkpt>
      <trkpt lat="41.93539" lon="25.54331">
        <ele>241.805097</ele>
        <time>2022-03-02T08:10:20.924Z</time>
      </trkpt>
      <trkpt lat="41.93547" lon="25.54321">
        <ele>242.159858</ele>
        <time>2022-03-02T08:10:24.886Z</time>
      </trkpt>
      <trkpt lat="41.93556" lon="25.54313">
        <ele>242.538209</ele>
        <time>2022-03-02T08:10:28.902Z</time>
      </trkpt>
      <trkpt lat="41.93564" lon="25.54305">
        <ele>242.872593</ele>
        <time>2022-03-02T08:10:31.922Z</time>
      </trkpt>
      <trkpt lat="41.9357" lon="25.54295">
        <ele>243.205975</ele>
        <time>2022-03-02T08:10:34.926Z</time>
      </trkpt>
      <trkpt lat="41.93575" lon="25.54282">
        <ele>243.584075</ele>
        <time>2022-03-02T08:10:38.941Z</time>
      </trkpt>
      <trkpt lat="41.93578" lon="25.5427">
        <ele>243.911971</ele>
        <time>2022-03-02T08:10:41.916Z</time>
      </trkpt>
      <trkpt lat="41.93582" lon="25.54257">
        <ele>244.252816</ele>
        <time>2022-03-02T08:10:44.929Z</time>
      </trkpt>
      <trkpt lat="41.93586" lon="25.54245">
        <ele>244.194648</ele>
        <time>2022-03-02T08:10:47.971Z</time>
      </trkpt>
      <trkpt lat="41.93591" lon="25.54233">
        <ele>244.132189</ele>
        <time>2022-03-02T08:10:50.889Z</time>
      </trkpt>
      <trkpt lat="41.93596" lon="25.54222">
        <ele>244.07668</ele>
        <time>2022-03-02T08:10:53.909Z</time>
      </trkpt>
      <trkpt lat="41.93602" lon="25.54212">
        <ele>244.021216</ele>
        <time>2022-03-02T08:10:58.914Z</time>
      </trkpt>
      <trkpt lat="41.93614" lon="25.54207">
        <ele>243.946023</ele>
        <time>2022-03-02T08:11:40.909Z</time>
      </trkpt>
      <trkpt lat="41.93619" lon="25.54189">
        <ele>243.860169</ele>
        <time>2022-03-02T08:11:58.900Z</time>
      </trkpt>
      <trkpt lat="41.93621" lon="25.54177">
        <ele>243.807148</ele>
        <time>2022-03-02T08:12:02.901Z</time>
      </trkpt>
      <trkpt lat="41.93623" lon="25.54164">
        <ele>243.747855</ele>
        <time>2022-03-02T08:12:06.936Z</time>
      </trkpt>
      <trkpt lat="41.93628" lon="25.54152">
        <ele>243.68882</ele>
        <time>2022-03-02T08:12:10.906Z</time>
      </trkpt>
      <trkpt lat="41.93633" lon="25.54141">
        <ele>243.63453</ele>
        <time>2022-03-02T08:12:14.903Z</time>
      </trkpt>
      <trkpt lat="41.9364" lon="25.54131">
        <ele>243.572149</ele>
        <time>2022-03-02T08:12:18.901Z</time>
      </trkpt>
      <trkpt lat="41.93647" lon="25.54122">
        <ele>243.511722</ele>
        <time>2022-03-02T08:12:22.925Z</time>
      </trkpt>
      <trkpt lat="41.93654" lon="25.54113">
        <ele>243.454331</ele>
        <time>2022-03-02T08:12:26.904Z</time>
      </trkpt>
      <trkpt lat="41.93662" lon="25.54104">
        <ele>243.392552</ele>
        <time>2022-03-02T08:12:30.901Z</time>
      </trkpt>
      <trkpt lat="41.9367" lon="25.54096">
        <ele>243.335404</ele>
        <time>2022-03-02T08:12:34.893Z</time>
      </trkpt>
      <trkpt lat="41.93679" lon="25.54088">
        <ele>243.2756</ele>
        <time>2022-03-02T08:12:39.901Z</time>
      </trkpt>
      <trkpt lat="41.93687" lon="25.54079">
        <ele>243.211509</ele>
        <time>2022-03-02T08:12:44.904Z</time>
      </trkpt>
      <trkpt lat="41.93694" lon="25.54071">
        <ele>243.129898</ele>
        <time>2022-03-02T08:12:48.913Z</time>
      </trkpt>
      <trkpt lat="41.93702" lon="25.54063">
        <ele>243.021251</ele>
        <time>2022-03-02T08:12:52.886Z</time>
      </trkpt>
      <trkpt lat="41.93711" lon="25.54054">
        <ele>242.901672</ele>
        <time>2022-03-02T08:12:56.891Z</time>
      </trkpt>
      <trkpt lat="41.93721" lon="25.54049">
        <ele>242.784839</ele>
        <time>2022-03-02T08:13:00.929Z</time>
      </trkpt>
      <trkpt lat="41.93732" lon="25.54044">
        <ele>242.666681</ele>
        <time>2022-03-02T08:13:04.917Z</time>
      </trkpt>
      <trkpt lat="41.93742" lon="25.54038">
        <ele>242.555743</ele>
        <time>2022-03-02T08:13:08.916Z</time>
      </trkpt>
      <trkpt lat="41.93743" lon="25.54026">
        <ele>242.456032</ele>
        <time>2022-03-02T08:13:13.940Z</time>
      </trkpt>
      <trkpt lat="41.93733" lon="25.54022">
        <ele>242.340225</ele>
        <time>2022-03-02T08:13:16.902Z</time>
      </trkpt>
      <trkpt lat="41.93724" lon="25.54019">
        <ele>242.242078</ele>
        <time>2022-03-02T08:13:18.939Z</time>
      </trkpt>
      <trkpt lat="41.93714" lon="25.54014">
        <ele>242.127653</ele>
        <time>2022-03-02T08:13:21.910Z</time>
      </trkpt>
      <trkpt lat="41.93707" lon="25.54004">
        <ele>242.019076</ele>
        <time>2022-03-02T08:13:24.890Z</time>
      </trkpt>
      <trkpt lat="41.93706" lon="25.5399">
        <ele>241.908003</ele>
        <time>2022-03-02T08:13:28.888Z</time>
      </trkpt>
      <trkpt lat="41.93705" lon="25.53976">
        <ele>241.800716</ele>
        <time>2022-03-02T08:13:32.903Z</time>
      </trkpt>
      <trkpt lat="41.93705" lon="25.53962">
        <ele>241.688416</ele>
        <time>2022-03-02T08:13:36.892Z</time>
      </trkpt>
      <trkpt lat="41.93701" lon="25.53948">
        <ele>241.570769</ele>
        <time>2022-03-02T08:13:40.927Z</time>
      </trkpt>
      <trkpt lat="41.93702" lon="25.53936">
        <ele>241.472501</ele>
        <time>2022-03-02T08:13:44.914Z</time>
      </trkpt>
      <trkpt lat="41.93703" lon="25.53923">
        <ele>241.372294</ele>
        <time>2022-03-02T08:13:48.903Z</time>
      </trkpt>
      <trkpt lat="41.937" lon="25.53911">
        <ele>241.279504</ele>
        <time>2022-03-02T08:13:52.911Z</time>
      </trkpt>
      <trkpt lat="41.93695" lon="25.53898">
        <ele>241.275204</ele>
        <time>2022-03-02T08:13:56.908Z</time>
      </trkpt>
      <trkpt lat="41.93692" lon="25.53886">
        <ele>241.271292</ele>
        <time>2022-03-02T08:14:00.944Z</time>
      </trkpt>
      <trkpt lat="41.9369" lon="25.53872">
        <ele>241.266851</ele>
        <time>2022-03-02T08:14:05.920Z</time>
      </trkpt>
      <trkpt lat="41.93688" lon="25.53858">
        <ele>241.262708</ele>
        <time>2022-03-02T08:14:10.919Z</time>
      </trkpt>
      <trkpt lat="41.93689" lon="25.53845">
        <ele>241.258726</ele>
        <time>2022-03-02T08:14:15.909Z</time>
      </trkpt>
      <trkpt lat="41.93687" lon="25.53833">
        <ele>241.254999</ele>
        <time>2022-03-02T08:14:19.904Z</time>
      </trkpt>
      <trkpt lat="41.93685" lon="25.53819">
        <ele>241.250603</ele>
        <time>2022-03-02T08:14:23.918Z</time>
      </trkpt>
      <trkpt lat="41.93683" lon="25.53806">
        <ele>241.246576</ele>
        <time>2022-03-02T08:14:26.930Z</time>
      </trkpt>
      <trkpt lat="41.9368" lon="25.53791">
        <ele>241.241632</ele>
        <time>2022-03-02T08:14:29.901Z</time>
      </trkpt>
      <trkpt lat="41.93679" lon="25.53773">
        <ele>241.236073</ele>
        <time>2022-03-02T08:14:32.949Z</time>
      </trkpt>
      <trkpt lat="41.93678" lon="25.53759">
        <ele>241.231987</ele>
        <time>2022-03-02T08:14:34.918Z</time>
      </trkpt>
      <trkpt lat="41.93677" lon="25.53745">
        <ele>241.227514</ele>
        <time>2022-03-02T08:14:36.900Z</time>
      </trkpt>
      <trkpt lat="41.93676" lon="25.53729">
        <ele>241.222745</ele>
        <time>2022-03-02T08:14:38.937Z</time>
      </trkpt>
      <trkpt lat="41.93675" lon="25.53713">
        <ele>241.217745</ele>
        <time>2022-03-02T08:14:40.900Z</time>
      </trkpt>
      <trkpt lat="41.93673" lon="25.53699">
        <ele>241.213427</ele>
        <time>2022-03-02T08:14:42.890Z</time>
      </trkpt>
      <trkpt lat="41.93672" lon="25.53685">
        <ele>241.209138</ele>
        <time>2022-03-02T08:14:44.879Z</time>
      </trkpt>
      <trkpt lat="41.93671" lon="25.5367">
        <ele>241.182469</ele>
        <time>2022-03-02T08:14:46.897Z</time>
      </trkpt>
      <trkpt lat="41.93669" lon="25.53655">
        <ele>241.107533</ele>
        <time>2022-03-02T08:14:48.893Z</time>
      </trkpt>
      <trkpt lat="41.93668" lon="25.53641">
        <ele>241.036681</ele>
        <time>2022-03-02T08:14:50.902Z</time>
      </trkpt>
      <trkpt lat="41.93666" lon="25.53626">
        <ele>240.962358</ele>
        <time>2022-03-02T08:14:52.897Z</time>
      </trkpt>
      <trkpt lat="41.93663" lon="25.5361">
        <ele>240.886334</ele>
        <time>2022-03-02T08:14:54.901Z</time>
      </trkpt>
      <trkpt lat="41.93662" lon="25.53594">
        <ele>240.80654</ele>
        <time>2022-03-02T08:14:56.891Z</time>
      </trkpt>
      <trkpt lat="41.93661" lon="25.53578">
        <ele>240.7277</ele>
        <time>2022-03-02T08:14:58.889Z</time>
      </trkpt>
      <trkpt lat="41.93661" lon="25.53563">
        <ele>240.652327</ele>
        <time>2022-03-02T08:15:00.897Z</time>
      </trkpt>
      <trkpt lat="41.93661" lon="25.53549">
        <ele>240.583818</ele>
        <time>2022-03-02T08:15:02.893Z</time>
      </trkpt>
      <trkpt lat="41.9366" lon="25.53536">
        <ele>240.520129</ele>
        <time>2022-03-02T08:15:04.908Z</time>
      </trkpt>
      <trkpt lat="41.93659" lon="25.53523">
        <ele>240.459036</ele>
        <time>2022-03-02T08:15:06.886Z</time>
      </trkpt>
      <trkpt lat="41.93656" lon="25.53507">
        <ele>240.379306</ele>
        <time>2022-03-02T08:15:09.926Z</time>
      </trkpt>
      <trkpt lat="41.93654" lon="25.5349">
        <ele>240.293433</ele>
        <time>2022-03-02T08:15:12.897Z</time>
      </trkpt>
      <trkpt lat="41.93651" lon="25.53473">
        <ele>240.208412</ele>
        <time>2022-03-02T08:15:15.939Z</time>
      </trkpt>
      <trkpt lat="41.93649" lon="25.53456">
        <ele>240.122538</ele>
        <time>2022-03-02T08:15:18.891Z</time>
      </trkpt>
      <trkpt lat="41.93647" lon="25.53439">
        <ele>240.037244</ele>
        <time>2022-03-02T08:15:21.897Z</time>
      </trkpt>
      <trkpt lat="41.93646" lon="25.53422">
        <ele>240.022397</ele>
        <time>2022-03-02T08:15:24.918Z</time>
      </trkpt>
      <trkpt lat="41.93643" lon="25.53405">
        <ele>240.021612</ele>
        <time>2022-03-02T08:15:27.893Z</time>
      </trkpt>
      <trkpt lat="41.93641" lon="25.53388">
        <ele>240.020808</ele>
        <time>2022-03-02T08:15:30.890Z</time>
      </trkpt>
      <trkpt lat="41.93638" lon="25.53372">
        <ele>240.020041</ele>
        <time>2022-03-02T08:15:33.901Z</time>
      </trkpt>
      <trkpt lat="41.93636" lon="25.53357">
        <ele>240.019302</ele>
        <time>2022-03-02T08:15:36.891Z</time>
      </trkpt>
      <trkpt lat="41.93634" lon="25.53342">
        <ele>240.018579</ele>
        <time>2022-03-02T08:15:39.888Z</time>
      </trkpt>
      <trkpt lat="41.93632" lon="25.53326">
        <ele>240.017839</ele>
        <time>2022-03-02T08:15:42.893Z</time>
      </trkpt>
      <trkpt lat="41.9363" lon="25.53311">
        <ele>240.017122</ele>
        <time>2022-03-02T08:15:45.899Z</time>
      </trkpt>
      <trkpt lat="41.93627" lon="25.53295">
        <ele>240.016352</ele>
        <time>2022-03-02T08:15:48.884Z</time>
      </trkpt>
      <trkpt lat="41.93625" lon="25.53279">
        <ele>240.015608</ele>
        <time>2022-03-02T08:15:51.897Z</time>
      </trkpt>
      <trkpt lat="41.93623" lon="25.53264">
        <ele>240.01488</ele>
        <time>2022-03-02T08:15:54.900Z</time>
      </trkpt>
      <trkpt lat="41.93623" lon="25.53248">
        <ele>240.014156</ele>
        <time>2022-03-02T08:15:57.894Z</time>
      </trkpt>
      <trkpt lat="41.93621" lon="25.53233">
        <ele>240.013436</ele>
        <time>2022-03-02T08:16:00.939Z</time>
      </trkpt>
      <trkpt lat="41.9362" lon="25.53218">
        <ele>240.012719</ele>
        <time>2022-03-02T08:16:03.896Z</time>
      </trkpt>
      <trkpt lat="41.93618" lon="25.53202">
        <ele>240.011983</ele>
        <time>2022-03-02T08:16:06.939Z</time>
      </trkpt>
      <trkpt lat="41.93616" lon="25.53187">
        <ele>240.209168</ele>
        <time>2022-03-02T08:16:09.894Z</time>
      </trkpt>
      <trkpt lat="41.93614" lon="25.53172">
        <ele>240.471094</ele>
        <time>2022-03-02T08:16:12.898Z</time>
      </trkpt>
      <trkpt lat="41.93612" lon="25.53158">
        <ele>240.734681</ele>
        <time>2022-03-02T08:16:15.901Z</time>
      </trkpt>
      <trkpt lat="41.9361" lon="25.53144">
        <ele>240.985937</ele>
        <time>2022-03-02T08:16:18.900Z</time>
      </trkpt>
      <trkpt lat="41.93609" lon="25.53131">
        <ele>241.225258</ele>
        <time>2022-03-02T08:16:21.894Z</time>
      </trkpt>
      <trkpt lat="41.93608" lon="25.53117">
        <ele>241.464833</ele>
        <time>2022-03-02T08:16:24.900Z</time>
      </trkpt>
      <trkpt lat="41.93606" lon="25.53104">
        <ele>241.713106</ele>
        <time>2022-03-02T08:16:27.895Z</time>
      </trkpt>
      <trkpt lat="41.93604" lon="25.5309">
        <ele>241.957563</ele>
        <time>2022-03-02T08:16:30.926Z</time>
      </trkpt>
      <trkpt lat="41.93602" lon="25.53078">
        <ele>242.184114</ele>
        <time>2022-03-02T08:16:33.888Z</time>
      </trkpt>
      <trkpt lat="41.936" lon="25.53064">
        <ele>242.438476</ele>
        <time>2022-03-02T08:16:36.897Z</time>
      </trkpt>
      <trkpt lat="41.93598" lon="25.53049">
        <ele>242.714823</ele>
        <time>2022-03-02T08:16:39.973Z</time>
      </trkpt>
      <trkpt lat="41.93597" lon="25.53035">
        <ele>242.970962</ele>
        <time>2022-03-02T08:16:42.890Z</time>
      </trkpt>
      <trkpt lat="41.93596" lon="25.53021">
        <ele>243.220973</ele>
        <time>2022-03-02T08:16:45.913Z</time>
      </trkpt>
      <trkpt lat="41.93595" lon="25.53007">
        <ele>243.477112</ele>
        <time>2022-03-02T08:16:48.897Z</time>
      </trkpt>
      <trkpt lat="41.93593" lon="25.52994">
        <ele>243.715182</ele>
        <time>2022-03-02T08:16:51.879Z</time>
      </trkpt>
      <trkpt lat="41.93591" lon="25.5298">
        <ele>243.962075</ele>
        <time>2022-03-02T08:16:54.927Z</time>
      </trkpt>
      <trkpt lat="41.93589" lon="25.52967">
        <ele>244.208277</ele>
        <time>2022-03-02T08:16:57.900Z</time>
      </trkpt>
      <trkpt lat="41.93586" lon="25.52954">
        <ele>244.353081</ele>
        <time>2022-03-02T08:17:00.894Z</time>
      </trkpt>
      <trkpt lat="41.93584" lon="25.52941">
        <ele>244.381426</ele>
        <time>2022-03-02T08:17:03.910Z</time>
      </trkpt>
      <trkpt lat="41.93582" lon="25.52928">
        <ele>244.410585</ele>
        <time>2022-03-02T08:17:06.909Z</time>
      </trkpt>
      <trkpt lat="41.9358" lon="25.52915">
        <ele>244.438782</ele>
        <time>2022-03-02T08:17:09.893Z</time>
      </trkpt>
      <trkpt lat="41.93579" lon="25.52901">
        <ele>244.4674</ele>
        <time>2022-03-02T08:17:12.894Z</time>
      </trkpt>
      <trkpt lat="41.93576" lon="25.52888">
        <ele>244.495881</ele>
        <time>2022-03-02T08:17:15.893Z</time>
      </trkpt>
      <trkpt lat="41.93574" lon="25.52874">
        <ele>244.527075</ele>
        <time>2022-03-02T08:17:18.902Z</time>
      </trkpt>
      <trkpt lat="41.93572" lon="25.5286">
        <ele>244.558392</ele>
        <time>2022-03-02T08:17:21.875Z</time>
      </trkpt>
      <trkpt lat="41.9357" lon="25.52846">
        <ele>244.587323</ele>
        <time>2022-03-02T08:17:24.896Z</time>
      </trkpt>
      <trkpt lat="41.93568" lon="25.52833">
        <ele>244.617598</ele>
        <time>2022-03-02T08:17:27.893Z</time>
      </trkpt>
      <trkpt lat="41.93564" lon="25.5282">
        <ele>244.646643</ele>
        <time>2022-03-02T08:17:30.905Z</time>
      </trkpt>
      <trkpt lat="41.93559" lon="25.52807">
        <ele>244.67684</ele>
        <time>2022-03-02T08:17:33.905Z</time>
      </trkpt>
      <trkpt lat="41.93554" lon="25.52795">
        <ele>244.707206</ele>
        <time>2022-03-02T08:17:36.893Z</time>
      </trkpt>
      <trkpt lat="41.9355" lon="25.52783">
        <ele>244.736105</ele>
        <time>2022-03-02T08:17:39.892Z</time>
      </trkpt>
      <trkpt lat="41.93544" lon="25.52771">
        <ele>244.76733</ele>
        <time>2022-03-02T08:17:42.898Z</time>
      </trkpt>
      <trkpt lat="41.93538" lon="25.52757">
        <ele>244.800863</ele>
        <time>2022-03-02T08:17:45.952Z</time>
      </trkpt>
      <trkpt lat="41.93532" lon="25.52743">
        <ele>244.835339</ele>
        <time>2022-03-02T08:17:48.897Z</time>
      </trkpt>
      <trkpt lat="41.93526" lon="25.52728">
        <ele>244.682849</ele>
        <time>2022-03-02T08:17:51.899Z</time>
      </trkpt>
      <trkpt lat="41.9352" lon="25.52714">
        <ele>244.266519</ele>
        <time>2022-03-02T08:17:54.889Z</time>
      </trkpt>
      <trkpt lat="41.93515" lon="25.527">
        <ele>243.865997</ele>
        <time>2022-03-02T08:17:57.899Z</time>
      </trkpt>
      <trkpt lat="41.93509" lon="25.52687">
        <ele>243.467459</ele>
        <time>2022-03-02T08:18:00.903Z</time>
      </trkpt>
      <trkpt lat="41.93503" lon="25.52675">
        <ele>243.095214</ele>
        <time>2022-03-02T08:18:03.893Z</time>
      </trkpt>
      <trkpt lat="41.93496" lon="25.52663">
        <ele>242.731315</ele>
        <time>2022-03-02T08:18:06.893Z</time>
      </trkpt>
      <trkpt lat="41.9349" lon="25.52652">
        <ele>242.352909</ele>
        <time>2022-03-02T08:18:09.901Z</time>
      </trkpt>
      <trkpt lat="41.93483" lon="25.5264">
        <ele>241.976586</ele>
        <time>2022-03-02T08:18:12.878Z</time>
      </trkpt>
      <trkpt lat="41.93477" lon="25.52627">
        <ele>241.591844</ele>
        <time>2022-03-02T08:18:15.891Z</time>
      </trkpt>
      <trkpt lat="41.93471" lon="25.52614">
        <ele>241.202355</ele>
        <time>2022-03-02T08:18:18.922Z</time>
      </trkpt>
      <trkpt lat="41.93465" lon="25.52601">
        <ele>240.806692</ele>
        <time>2022-03-02T08:18:21.886Z</time>
      </trkpt>
      <trkpt lat="41.93459" lon="25.52588">
        <ele>240.408534</ele>
        <time>2022-03-02T08:18:24.897Z</time>
      </trkpt>
      <trkpt lat="41.93453" lon="25.52574">
        <ele>239.996062</ele>
        <time>2022-03-02T08:18:27.912Z</time>
      </trkpt>
      <trkpt lat="41.93447" lon="25.5256">
        <ele>239.598837</ele>
        <time>2022-03-02T08:18:30.894Z</time>
      </trkpt>
      <trkpt lat="41.93441" lon="25.52548">
        <ele>239.225999</ele>
        <time>2022-03-02T08:18:33.889Z</time>
      </trkpt>
      <trkpt lat="41.93436" lon="25.52535">
        <ele>238.843763</ele>
        <time>2022-03-02T08:18:36.884Z</time>
      </trkpt>
      <trkpt lat="41.9343" lon="25.52523">
        <ele>238.6388</ele>
        <time>2022-03-02T08:18:39.893Z</time>
      </trkpt>
      <trkpt lat="41.93423" lon="25.52512">
        <ele>238.597922</ele>
        <time>2022-03-02T08:18:42.892Z</time>
      </trkpt>
      <trkpt lat="41.93417" lon="25.525">
        <ele>238.554789</ele>
        <time>2022-03-02T08:18:45.900Z</time>
      </trkpt>
      <trkpt lat="41.9341" lon="25.52488">
        <ele>238.510956</ele>
        <time>2022-03-02T08:18:48.896Z</time>
      </trkpt>
      <trkpt lat="41.93403" lon="25.52475">
        <ele>238.465453</ele>
        <time>2022-03-02T08:18:51.906Z</time>
      </trkpt>
      <trkpt lat="41.93397" lon="25.52462">
        <ele>238.419821</ele>
        <time>2022-03-02T08:18:54.892Z</time>
      </trkpt>
      <trkpt lat="41.93391" lon="25.52449">
        <ele>238.375949</ele>
        <time>2022-03-02T08:18:57.893Z</time>
      </trkpt>
      <trkpt lat="41.93387" lon="25.52436">
        <ele>238.333563</ele>
        <time>2022-03-02T08:19:00.897Z</time>
      </trkpt>
      <trkpt lat="41.93382" lon="25.52423">
        <ele>238.291082</ele>
        <time>2022-03-02T08:19:03.916Z</time>
      </trkpt>
      <trkpt lat="41.93376" lon="25.5241">
        <ele>238.244952</ele>
        <time>2022-03-02T08:19:06.897Z</time>
      </trkpt>
      <trkpt lat="41.93369" lon="25.52396">
        <ele>238.198618</ele>
        <time>2022-03-02T08:19:09.912Z</time>
      </trkpt>
      <trkpt lat="41.93364" lon="25.52383">
        <ele>238.153845</ele>
        <time>2022-03-02T08:19:12.907Z</time>
      </trkpt>
      <trkpt lat="41.93357" lon="25.5237">
        <ele>238.109203</ele>
        <time>2022-03-02T08:19:15.926Z</time>
      </trkpt>
      <trkpt lat="41.93352" lon="25.52357">
        <ele>238.065974</ele>
        <time>2022-03-02T08:19:18.883Z</time>
      </trkpt>
      <trkpt lat="41.93346" lon="25.52344">
        <ele>238.022606</ele>
        <time>2022-03-02T08:19:21.876Z</time>
      </trkpt>
      <trkpt lat="41.93341" lon="25.52332">
        <ele>237.980895</ele>
        <time>2022-03-02T08:19:24.894Z</time>
      </trkpt>
      <trkpt lat="41.93335" lon="25.5232">
        <ele>238.062488</ele>
        <time>2022-03-02T08:19:27.896Z</time>
      </trkpt>
      <trkpt lat="41.93328" lon="25.52307">
        <ele>238.329177</ele>
        <time>2022-03-02T08:19:30.899Z</time>
      </trkpt>
      <trkpt lat="41.93322" lon="25.52293">
        <ele>238.600196</ele>
        <time>2022-03-02T08:19:33.894Z</time>
      </trkpt>
      <trkpt lat="41.93316" lon="25.52279">
        <ele>238.877139</ele>
        <time>2022-03-02T08:19:36.890Z</time>
      </trkpt>
      <trkpt lat="41.93309" lon="25.52266">
        <ele>239.149629</ele>
        <time>2022-03-02T08:19:39.896Z</time>
      </trkpt>
      <trkpt lat="41.93302" lon="25.52252">
        <ele>239.426573</ele>
        <time>2022-03-02T08:19:42.887Z</time>
      </trkpt>
      <trkpt lat="41.93296" lon="25.52239">
        <ele>239.701737</ele>
        <time>2022-03-02T08:19:45.884Z</time>
      </trkpt>
      <trkpt lat="41.93289" lon="25.52225">
        <ele>239.984941</ele>
        <time>2022-03-02T08:19:48.893Z</time>
      </trkpt>
      <trkpt lat="41.93282" lon="25.52212">
        <ele>240.259757</ele>
        <time>2022-03-02T08:19:51.891Z</time>
      </trkpt>
      <trkpt lat="41.93275" lon="25.52201">
        <ele>240.503353</ele>
        <time>2022-03-02T08:19:54.884Z</time>
      </trkpt>
      <trkpt lat="41.93268" lon="25.52189">
        <ele>240.759126</ele>
        <time>2022-03-02T08:19:57.895Z</time>
      </trkpt>
      <trkpt lat="41.93262" lon="25.52177">
        <ele>241.004021</ele>
        <time>2022-03-02T08:20:00.902Z</time>
      </trkpt>
      <trkpt lat="41.93256" lon="25.52164">
        <ele>241.252886</ele>
        <time>2022-03-02T08:20:03.941Z</time>
      </trkpt>
      <trkpt lat="41.93251" lon="25.5215">
        <ele>241.521783</ele>
        <time>2022-03-02T08:20:06.887Z</time>
      </trkpt>
      <trkpt lat="41.93246" lon="25.52136">
        <ele>241.798245</ele>
        <time>2022-03-02T08:20:09.921Z</time>
      </trkpt>
      <trkpt lat="41.93239" lon="25.52122">
        <ele>242.049384</ele>
        <time>2022-03-02T08:20:12.887Z</time>
      </trkpt>
      <trkpt lat="41.93234" lon="25.52109">
        <ele>241.930165</ele>
        <time>2022-03-02T08:20:15.895Z</time>
      </trkpt>
      <trkpt lat="41.93228" lon="25.52096">
        <ele>241.819192</ele>
        <time>2022-03-02T08:20:18.895Z</time>
      </trkpt>
      <trkpt lat="41.93223" lon="25.52083">
        <ele>241.704658</ele>
        <time>2022-03-02T08:20:21.892Z</time>
      </trkpt>
      <trkpt lat="41.93216" lon="25.52069">
        <ele>241.577917</ele>
        <time>2022-03-02T08:20:24.914Z</time>
      </trkpt>
      <trkpt lat="41.9321" lon="25.52055">
        <ele>241.448872</ele>
        <time>2022-03-02T08:20:27.892Z</time>
      </trkpt>
      <trkpt lat="41.93202" lon="25.52041">
        <ele>241.314515</ele>
        <time>2022-03-02T08:20:30.918Z</time>
      </trkpt>
      <trkpt lat="41.93195" lon="25.52027">
        <ele>241.182079</ele>
        <time>2022-03-02T08:20:33.889Z</time>
      </trkpt>
      <trkpt lat="41.93189" lon="25.52017">
        <ele>241.084921</ele>
        <time>2022-03-02T08:20:35.882Z</time>
      </trkpt>
      <trkpt lat="41.93183" lon="25.52007">
        <ele>240.985284</ele>
        <time>2022-03-02T08:20:37.895Z</time>
      </trkpt>
      <trkpt lat="41.93178" lon="25.51996">
        <ele>240.886193</ele>
        <time>2022-03-02T08:20:39.884Z</time>
      </trkpt>
      <trkpt lat="41.93172" lon="25.51984">
        <ele>240.77879</ele>
        <time>2022-03-02T08:20:41.889Z</time>
      </trkpt>
      <trkpt lat="41.93166" lon="25.51973">
        <ele>240.669704</ele>
        <time>2022-03-02T08:20:43.933Z</time>
      </trkpt>
      <trkpt lat="41.93161" lon="25.51961">
        <ele>240.560683</ele>
        <time>2022-03-02T08:20:45.898Z</time>
      </trkpt>
      <trkpt lat="41.93155" lon="25.51949">
        <ele>240.454755</ele>
        <time>2022-03-02T08:20:47.904Z</time>
      </trkpt>
      <trkpt lat="41.9315" lon="25.51937">
        <ele>240.349496</ele>
        <time>2022-03-02T08:20:49.888Z</time>
      </trkpt>
      <trkpt lat="41.93145" lon="25.51925">
        <ele>240.241878</ele>
        <time>2022-03-02T08:20:51.887Z</time>
      </trkpt>
      <trkpt lat="41.93141" lon="25.51914">
        <ele>240.157821</ele>
        <time>2022-03-02T08:20:53.897Z</time>
      </trkpt>
      <trkpt lat="41.93135" lon="25.51899">
        <ele>240.066531</ele>
        <time>2022-03-02T08:20:56.900Z</time>
      </trkpt>
      <trkpt lat="41.93128" lon="25.51886">
        <ele>239.982498</ele>
        <time>2022-03-02T08:20:59.896Z</time>
      </trkpt>
      <trkpt lat="41.93122" lon="25.51872">
        <ele>239.895416</ele>
        <time>2022-03-02T08:21:02.908Z</time>
      </trkpt>
      <trkpt lat="41.93115" lon="25.51859">
        <ele>239.810139</ele>
        <time>2022-03-02T08:21:05.944Z</time>
      </trkpt>
      <trkpt lat="41.93109" lon="25.51846">
        <ele>239.724907</ele>
        <time>2022-03-02T08:21:08.919Z</time>
      </trkpt>
      <trkpt lat="41.93102" lon="25.51833">
        <ele>239.640526</ele>
        <time>2022-03-02T08:21:11.891Z</time>
      </trkpt>
      <trkpt lat="41.93096" lon="25.5182">
        <ele>239.556429</ele>
        <time>2022-03-02T08:21:14.887Z</time>
      </trkpt>
      <trkpt lat="41.9309" lon="25.51807">
        <ele>239.47447</ele>
        <time>2022-03-02T08:21:17.914Z</time>
      </trkpt>
      <trkpt lat="41.93084" lon="25.51794">
        <ele>239.392686</ele>
        <time>2022-03-02T08:21:20.940Z</time>
      </trkpt>
      <trkpt lat="41.93078" lon="25.51782">
        <ele>239.315837</ele>
        <time>2022-03-02T08:21:23.894Z</time>
      </trkpt>
      <trkpt lat="41.93072" lon="25.5177">
        <ele>239.235388</ele>
        <time>2022-03-02T08:21:26.903Z</time>
      </trkpt>
      <trkpt lat="41.93066" lon="25.51757">
        <ele>239.153604</ele>
        <time>2022-03-02T08:21:29.907Z</time>
      </trkpt>
      <trkpt lat="41.9306" lon="25.51745">
        <ele>239.073323</ele>
        <time>2022-03-02T08:21:32.899Z</time>
      </trkpt>
      <trkpt lat="41.93053" lon="25.51732">
        <ele>238.991186</ele>
        <time>2022-03-02T08:21:35.877Z</time>
      </trkpt>
      <trkpt lat="41.93047" lon="25.51719">
        <ele>238.90793</ele>
        <time>2022-03-02T08:21:38.894Z</time>
      </trkpt>
      <trkpt lat="41.93041" lon="25.51705">
        <ele>239.045865</ele>
        <time>2022-03-02T08:21:41.916Z</time>
      </trkpt>
      <trkpt lat="41.93035" lon="25.51691">
        <ele>239.254755</ele>
        <time>2022-03-02T08:21:44.880Z</time>
      </trkpt>
      <trkpt lat="41.93028" lon="25.51678">
        <ele>239.453881</ele>
        <time>2022-03-02T08:21:47.890Z</time>
      </trkpt>
      <trkpt lat="41.93023" lon="25.51664">
        <ele>239.655245</ele>
        <time>2022-03-02T08:21:50.938Z</time>
      </trkpt>
      <trkpt lat="41.93017" lon="25.5165">
        <ele>239.861327</ele>
        <time>2022-03-02T08:21:53.885Z</time>
      </trkpt>
      <trkpt lat="41.9301" lon="25.51636">
        <ele>240.065663</ele>
        <time>2022-03-02T08:21:56.931Z</time>
      </trkpt>
      <trkpt lat="41.93004" lon="25.51622">
        <ele>240.282052</ele>
        <time>2022-03-02T08:21:59.905Z</time>
      </trkpt>
      <trkpt lat="41.92997" lon="25.51607">
        <ele>240.495089</ele>
        <time>2022-03-02T08:22:02.895Z</time>
      </trkpt>
      <trkpt lat="41.92991" lon="25.51593">
        <ele>240.706283</ele>
        <time>2022-03-02T08:22:05.898Z</time>
      </trkpt>
      <trkpt lat="41.92984" lon="25.5158">
        <ele>240.917071</ele>
        <time>2022-03-02T08:22:08.915Z</time>
      </trkpt>
      <trkpt lat="41.92977" lon="25.51566">
        <ele>241.126137</ele>
        <time>2022-03-02T08:22:11.906Z</time>
      </trkpt>
      <trkpt lat="41.92971" lon="25.51552">
        <ele>241.325445</ele>
        <time>2022-03-02T08:22:14.896Z</time>
      </trkpt>
      <trkpt lat="41.92965" lon="25.51539">
        <ele>241.518791</ele>
        <time>2022-03-02T08:22:17.894Z</time>
      </trkpt>
      <trkpt lat="41.9296" lon="25.51526">
        <ele>241.704128</ele>
        <time>2022-03-02T08:22:20.896Z</time>
      </trkpt>
      <trkpt lat="41.92955" lon="25.51513">
        <ele>241.89171</ele>
        <time>2022-03-02T08:22:23.891Z</time>
      </trkpt>
      <trkpt lat="41.92951" lon="25.51501">
        <ele>242.153979</ele>
        <time>2022-03-02T08:22:26.901Z</time>
      </trkpt>
      <trkpt lat="41.92946" lon="25.51488">
        <ele>242.47126</ele>
        <time>2022-03-02T08:22:29.915Z</time>
      </trkpt>
      <trkpt lat="41.92942" lon="25.51476">
        <ele>242.776872</ele>
        <time>2022-03-02T08:22:32.896Z</time>
      </trkpt>
      <trkpt lat="41.92938" lon="25.51463">
        <ele>243.090301</ele>
        <time>2022-03-02T08:22:35.914Z</time>
      </trkpt>
      <trkpt lat="41.92934" lon="25.5145">
        <ele>243.410835</ele>
        <time>2022-03-02T08:22:38.913Z</time>
      </trkpt>
      <trkpt lat="41.9293" lon="25.51437">
        <ele>243.734391</ele>
        <time>2022-03-02T08:22:41.946Z</time>
      </trkpt>
      <trkpt lat="41.92926" lon="25.51424">
        <ele>244.056129</ele>
        <time>2022-03-02T08:22:44.889Z</time>
      </trkpt>
      <trkpt lat="41.92922" lon="25.5141">
        <ele>244.388043</ele>
        <time>2022-03-02T08:22:47.886Z</time>
      </trkpt>
      <trkpt lat="41.92918" lon="25.51396">
        <ele>244.716872</ele>
        <time>2022-03-02T08:22:50.890Z</time>
      </trkpt>
      <trkpt lat="41.92915" lon="25.51382">
        <ele>245.074439</ele>
        <time>2022-03-02T08:22:53.918Z</time>
      </trkpt>
      <trkpt lat="41.92912" lon="25.51367">
        <ele>245.416095</ele>
        <time>2022-03-02T08:22:56.893Z</time>
      </trkpt>
      <trkpt lat="41.92909" lon="25.51352">
        <ele>245.75871</ele>
        <time>2022-03-02T08:22:59.902Z</time>
      </trkpt>
      <trkpt lat="41.92907" lon="25.51338">
        <ele>246.088616</ele>
        <time>2022-03-02T08:23:02.958Z</time>
      </trkpt>
      <trkpt lat="41.92905" lon="25.51323">
        <ele>246.43486</ele>
        <time>2022-03-02T08:23:05.896Z</time>
      </trkpt>
      <trkpt lat="41.92903" lon="25.51308">
        <ele>246.791431</ele>
        <time>2022-03-02T08:23:08.894Z</time>
      </trkpt>
      <trkpt lat="41.92901" lon="25.51293">
        <ele>247.133631</ele>
        <time>2022-03-02T08:23:11.895Z</time>
      </trkpt>
      <trkpt lat="41.929" lon="25.51279">
        <ele>247.454529</ele>
        <time>2022-03-02T08:23:14.883Z</time>
      </trkpt>
      <trkpt lat="41.92899" lon="25.51264">
        <ele>247.84522</ele>
        <time>2022-03-02T08:23:17.895Z</time>
      </trkpt>
      <trkpt lat="41.92898" lon="25.5125">
        <ele>248.231485</ele>
        <time>2022-03-02T08:23:20.935Z</time>
      </trkpt>
      <trkpt lat="41.92898" lon="25.51235">
        <ele>248.614561</ele>
        <time>2022-03-02T08:23:23.901Z</time>
      </trkpt>
      <trkpt lat="41.92896" lon="25.5122">
        <ele>249.016059</ele>
        <time>2022-03-02T08:23:26.894Z</time>
      </trkpt>
      <trkpt lat="41.92897" lon="25.51206">
        <ele>249.399669</ele>
        <time>2022-03-02T08:23:29.904Z</time>
      </trkpt>
      <trkpt lat="41.92898" lon="25.51191">
        <ele>249.802583</ele>
        <time>2022-03-02T08:23:32.893Z</time>
      </trkpt>
      <trkpt lat="41.92898" lon="25.51175">
        <ele>250.222966</ele>
        <time>2022-03-02T08:23:35.889Z</time>
      </trkpt>
      <trkpt lat="41.92898" lon="25.51159">
        <ele>250.653852</ele>
        <time>2022-03-02T08:23:38.888Z</time>
      </trkpt>
      <trkpt lat="41.92897" lon="25.51144">
        <ele>251.059149</ele>
        <time>2022-03-02T08:23:41.887Z</time>
      </trkpt>
      <trkpt lat="41.92897" lon="25.51128">
        <ele>251.468897</ele>
        <time>2022-03-02T08:23:44.896Z</time>
      </trkpt>
      <trkpt lat="41.92896" lon="25.51113">
        <ele>251.864505</ele>
        <time>2022-03-02T08:23:47.898Z</time>
      </trkpt>
      <trkpt lat="41.92895" lon="25.511">
        <ele>252.216487</ele>
        <time>2022-03-02T08:23:50.883Z</time>
      </trkpt>
      <trkpt lat="41.92894" lon="25.51087">
        <ele>252.562721</ele>
        <time>2022-03-02T08:23:53.934Z</time>
      </trkpt>
      <trkpt lat="41.92894" lon="25.51074">
        <ele>252.92755</ele>
        <time>2022-03-02T08:23:56.895Z</time>
      </trkpt>
      <trkpt lat="41.92893" lon="25.5106">
        <ele>253.298365</ele>
        <time>2022-03-02T08:23:59.930Z</time>
      </trkpt>
      <trkpt lat="41.92894" lon="25.51045">
        <ele>253.689616</ele>
        <time>2022-03-02T08:24:02.933Z</time>
      </trkpt>
      <trkpt lat="41.92894" lon="25.51031">
        <ele>253.989238</ele>
        <time>2022-03-02T08:24:05.896Z</time>
      </trkpt>
      <trkpt lat="41.92894" lon="25.51016">
        <ele>254.225347</ele>
        <time>2022-03-02T08:24:08.888Z</time>
      </trkpt>
      <trkpt lat="41.92894" lon="25.51002">
        <ele>254.44561</ele>
        <time>2022-03-02T08:24:11.905Z</time>
      </trkpt>
      <trkpt lat="41.92894" lon="25.50988">
        <ele>254.670637</ele>
        <time>2022-03-02T08:24:14.910Z</time>
      </trkpt>
      <trkpt lat="41.92893" lon="25.50975">
        <ele>254.878921</ele>
        <time>2022-03-02T08:24:17.877Z</time>
      </trkpt>
      <trkpt lat="41.92892" lon="25.50962">
        <ele>255.082657</ele>
        <time>2022-03-02T08:24:20.896Z</time>
      </trkpt>
      <trkpt lat="41.92891" lon="25.50948">
        <ele>255.296795</ele>
        <time>2022-03-02T08:24:23.895Z</time>
      </trkpt>
      <trkpt lat="41.92889" lon="25.50936">
        <ele>255.492741</ele>
        <time>2022-03-02T08:24:26.904Z</time>
      </trkpt>
      <trkpt lat="41.92888" lon="25.50924">
        <ele>255.686177</ele>
        <time>2022-03-02T08:24:29.898Z</time>
      </trkpt>
      <trkpt lat="41.92887" lon="25.50911">
        <ele>255.89762</ele>
        <time>2022-03-02T08:24:32.938Z</time>
      </trkpt>
      <trkpt lat="41.92886" lon="25.50898">
        <ele>256.109063</ele>
        <time>2022-03-02T08:24:35.897Z</time>
      </trkpt>
      <trkpt lat="41.92886" lon="25.50883">
        <ele>256.343936</ele>
        <time>2022-03-02T08:24:38.903Z</time>
      </trkpt>
      <trkpt lat="41.92885" lon="25.50869">
        <ele>256.563866</ele>
        <time>2022-03-02T08:24:41.905Z</time>
      </trkpt>
      <trkpt lat="41.92883" lon="25.50856">
        <ele>256.775795</ele>
        <time>2022-03-02T08:24:44.901Z</time>
      </trkpt>
      <trkpt lat="41.92883" lon="25.50842">
        <ele>256.99801</ele>
        <time>2022-03-02T08:24:47.901Z</time>
      </trkpt>
      <trkpt lat="41.92881" lon="25.50828">
        <ele>257.224725</ele>
        <time>2022-03-02T08:24:50.897Z</time>
      </trkpt>
      <trkpt lat="41.9288" lon="25.50814">
        <ele>257.436168</ele>
        <time>2022-03-02T08:24:53.901Z</time>
      </trkpt>
      <trkpt lat="41.92881" lon="25.508">
        <ele>257.664364</ele>
        <time>2022-03-02T08:24:56.891Z</time>
      </trkpt>
      <trkpt lat="41.92882" lon="25.50785">
        <ele>257.80853</ele>
        <time>2022-03-02T08:24:59.942Z</time>
      </trkpt>
      <trkpt lat="41.92882" lon="25.50771">
        <ele>257.930077</ele>
        <time>2022-03-02T08:25:02.891Z</time>
      </trkpt>
      <trkpt lat="41.92882" lon="25.50757">
        <ele>258.049916</ele>
        <time>2022-03-02T08:25:05.887Z</time>
      </trkpt>
      <trkpt lat="41.92881" lon="25.50744">
        <ele>258.161946</ele>
        <time>2022-03-02T08:25:08.885Z</time>
      </trkpt>
      <trkpt lat="41.9288" lon="25.50729">
        <ele>258.286565</ele>
        <time>2022-03-02T08:25:11.896Z</time>
      </trkpt>
      <trkpt lat="41.92879" lon="25.50715">
        <ele>258.409741</ele>
        <time>2022-03-02T08:25:14.900Z</time>
      </trkpt>
      <trkpt lat="41.92877" lon="25.50701">
        <ele>258.531217</ele>
        <time>2022-03-02T08:25:17.886Z</time>
      </trkpt>
      <trkpt lat="41.92875" lon="25.50687">
        <ele>258.651212</ele>
        <time>2022-03-02T08:25:20.896Z</time>
      </trkpt>
      <trkpt lat="41.92874" lon="25.50674">
        <ele>258.765762</ele>
        <time>2022-03-02T08:25:23.894Z</time>
      </trkpt>
      <trkpt lat="41.92874" lon="25.5066">
        <ele>258.883804</ele>
        <time>2022-03-02T08:25:26.885Z</time>
      </trkpt>
      <trkpt lat="41.92873" lon="25.50647">
        <ele>258.996099</ele>
        <time>2022-03-02T08:25:29.901Z</time>
      </trkpt>
      <trkpt lat="41.92873" lon="25.50634">
        <ele>259.108983</ele>
        <time>2022-03-02T08:25:32.973Z</time>
      </trkpt>
      <trkpt lat="41.92874" lon="25.50621">
        <ele>259.220188</ele>
        <time>2022-03-02T08:25:35.903Z</time>
      </trkpt>
      <trkpt lat="41.92873" lon="25.50609">
        <ele>259.326608</ele>
        <time>2022-03-02T08:25:38.881Z</time>
      </trkpt>
      <trkpt lat="41.92872" lon="25.50596">
        <ele>259.437</ele>
        <time>2022-03-02T08:25:41.893Z</time>
      </trkpt>
      <trkpt lat="41.92872" lon="25.50582">
        <ele>259.551087</ele>
        <time>2022-03-02T08:25:44.907Z</time>
      </trkpt>
      <trkpt lat="41.9287" lon="25.50568">
        <ele>259.672193</ele>
        <time>2022-03-02T08:25:47.891Z</time>
      </trkpt>
      <trkpt lat="41.92869" lon="25.50555">
        <ele>259.801013</ele>
        <time>2022-03-02T08:25:50.896Z</time>
      </trkpt>
      <trkpt lat="41.92869" lon="25.50541">
        <ele>259.992448</ele>
        <time>2022-03-02T08:25:53.883Z</time>
      </trkpt>
      <trkpt lat="41.92868" lon="25.50528">
        <ele>260.178125</ele>
        <time>2022-03-02T08:25:56.901Z</time>
      </trkpt>
      <trkpt lat="41.92866" lon="25.50514">
        <ele>260.375118</ele>
        <time>2022-03-02T08:25:59.873Z</time>
      </trkpt>
      <trkpt lat="41.92865" lon="25.505">
        <ele>260.566819</ele>
        <time>2022-03-02T08:26:02.889Z</time>
      </trkpt>
      <trkpt lat="41.92864" lon="25.50488">
        <ele>260.743387</ele>
        <time>2022-03-02T08:26:05.922Z</time>
      </trkpt>
      <trkpt lat="41.92863" lon="25.50472">
        <ele>260.961631</ele>
        <time>2022-03-02T08:26:09.904Z</time>
      </trkpt>
      <trkpt lat="41.92861" lon="25.50459">
        <ele>261.140154</ele>
        <time>2022-03-02T08:26:12.885Z</time>
      </trkpt>
      <trkpt lat="41.9286" lon="25.50447">
        <ele>261.309473</ele>
        <time>2022-03-02T08:26:15.889Z</time>
      </trkpt>
      <trkpt lat="41.9286" lon="25.50434">
        <ele>261.489747</ele>
        <time>2022-03-02T08:26:18.898Z</time>
      </trkpt>
      <trkpt lat="41.92859" lon="25.50422">
        <ele>261.661122</ele>
        <time>2022-03-02T08:26:21.895Z</time>
      </trkpt>
      <trkpt lat="41.92858" lon="25.50407">
        <ele>261.87376</ele>
        <time>2022-03-02T08:26:25.888Z</time>
      </trkpt>
      <trkpt lat="41.92857" lon="25.50392">
        <ele>262.080824</ele>
        <time>2022-03-02T08:26:29.895Z</time>
      </trkpt>
      <trkpt lat="41.92856" lon="25.50377">
        <ele>262.299295</ele>
        <time>2022-03-02T08:26:33.944Z</time>
      </trkpt>
      <trkpt lat="41.92854" lon="25.50362">
        <ele>262.508295</ele>
        <time>2022-03-02T08:26:37.889Z</time>
      </trkpt>
      <trkpt lat="41.92853" lon="25.50347">
        <ele>262.714402</ele>
        <time>2022-03-02T08:26:41.888Z</time>
      </trkpt>
      <trkpt lat="41.92852" lon="25.50333">
        <ele>262.920885</ele>
        <time>2022-03-02T08:26:45.913Z</time>
      </trkpt>
      <trkpt lat="41.92851" lon="25.50319">
        <ele>263.11709</ele>
        <time>2022-03-02T08:26:49.897Z</time>
      </trkpt>
      <trkpt lat="41.92851" lon="25.50306">
        <ele>263.190645</ele>
        <time>2022-03-02T08:26:52.920Z</time>
      </trkpt>
      <trkpt lat="41.92852" lon="25.50292">
        <ele>263.250855</ele>
        <time>2022-03-02T08:26:56.894Z</time>
      </trkpt>
      <trkpt lat="41.92852" lon="25.50278">
        <ele>263.308541</ele>
        <time>2022-03-02T08:27:00.891Z</time>
      </trkpt>
      <trkpt lat="41.92851" lon="25.50264">
        <ele>263.366798</ele>
        <time>2022-03-02T08:27:04.885Z</time>
      </trkpt>
      <trkpt lat="41.9285" lon="25.50251">
        <ele>263.424736</ele>
        <time>2022-03-02T08:27:08.900Z</time>
      </trkpt>
      <trkpt lat="41.92849" lon="25.50237">
        <ele>263.483103</ele>
        <time>2022-03-02T08:27:12.894Z</time>
      </trkpt>
      <trkpt lat="41.92846" lon="25.50222">
        <ele>263.546445</ele>
        <time>2022-03-02T08:27:16.903Z</time>
      </trkpt>
      <trkpt lat="41.92845" lon="25.5021">
        <ele>263.597626</ele>
        <time>2022-03-02T08:27:19.933Z</time>
      </trkpt>
      <trkpt lat="41.92844" lon="25.50195">
        <ele>263.663481</ele>
        <time>2022-03-02T08:27:23.893Z</time>
      </trkpt>
      <trkpt lat="41.92844" lon="25.50179">
        <ele>263.727097</ele>
        <time>2022-03-02T08:27:27.898Z</time>
      </trkpt>
      <trkpt lat="41.92843" lon="25.50164">
        <ele>263.791975</ele>
        <time>2022-03-02T08:27:31.910Z</time>
      </trkpt>
      <trkpt lat="41.92842" lon="25.5015">
        <ele>263.849926</ele>
        <time>2022-03-02T08:27:35.893Z</time>
      </trkpt>
      <trkpt lat="41.9284" lon="25.50136">
        <ele>263.911466</ele>
        <time>2022-03-02T08:27:39.897Z</time>
      </trkpt>
      <trkpt lat="41.9284" lon="25.50121">
        <ele>263.97418</ele>
        <time>2022-03-02T08:27:43.923Z</time>
      </trkpt>
      <trkpt lat="41.9284" lon="25.50105">
        <ele>264.041559</ele>
        <time>2022-03-02T08:27:47.904Z</time>
      </trkpt>
      <trkpt lat="41.9284" lon="25.50093">
        <ele>264.093752</ele>
        <time>2022-03-02T08:27:50.885Z</time>
      </trkpt>
      <trkpt lat="41.92839" lon="25.50077">
        <ele>264.160825</ele>
        <time>2022-03-02T08:27:54.914Z</time>
      </trkpt>
      <trkpt lat="41.92838" lon="25.50063">
        <ele>264.304895</ele>
        <time>2022-03-02T08:27:58.902Z</time>
      </trkpt>
      <trkpt lat="41.92837" lon="25.50049">
        <ele>264.451329</ele>
        <time>2022-03-02T08:28:02.897Z</time>
      </trkpt>
      <trkpt lat="41.92836" lon="25.50035">
        <ele>264.598264</ele>
        <time>2022-03-02T08:28:06.896Z</time>
      </trkpt>
      <trkpt lat="41.92835" lon="25.50021">
        <ele>264.742904</ele>
        <time>2022-03-02T08:28:10.915Z</time>
      </trkpt>
      <trkpt lat="41.92834" lon="25.50006">
        <ele>264.898764</ele>
        <time>2022-03-02T08:28:14.916Z</time>
      </trkpt>
      <trkpt lat="41.92833" lon="25.49994">
        <ele>265.026574</ele>
        <time>2022-03-02T08:28:17.894Z</time>
      </trkpt>
      <trkpt lat="41.92833" lon="25.49979">
        <ele>265.185071</ele>
        <time>2022-03-02T08:28:21.903Z</time>
      </trkpt>
      <trkpt lat="41.92832" lon="25.49964">
        <ele>265.343473</ele>
        <time>2022-03-02T08:28:25.907Z</time>
      </trkpt>
      <trkpt lat="41.92831" lon="25.4995">
        <ele>265.498565</ele>
        <time>2022-03-02T08:28:29.891Z</time>
      </trkpt>
      <trkpt lat="41.9283" lon="25.49936">
        <ele>265.64155</ele>
        <time>2022-03-02T08:28:33.925Z</time>
      </trkpt>
      <trkpt lat="41.9283" lon="25.49922">
        <ele>265.789652</ele>
        <time>2022-03-02T08:28:37.919Z</time>
      </trkpt>
      <trkpt lat="41.92829" lon="25.49908">
        <ele>265.935654</ele>
        <time>2022-03-02T08:28:41.891Z</time>
      </trkpt>
      <trkpt lat="41.92828" lon="25.49894">
        <ele>266.08766</ele>
        <time>2022-03-02T08:28:45.946Z</time>
      </trkpt>
      <trkpt lat="41.92828" lon="25.4988">
        <ele>266.236374</ele>
        <time>2022-03-02T08:28:49.997Z</time>
      </trkpt>
      <trkpt lat="41.92826" lon="25.49865">
        <ele>266.397779</ele>
        <time>2022-03-02T08:28:53.900Z</time>
      </trkpt>
      <trkpt lat="41.92824" lon="25.4985">
        <ele>266.556444</ele>
        <time>2022-03-02T08:28:57.897Z</time>
      </trkpt>
      <trkpt lat="41.92823" lon="25.49837">
        <ele>266.696779</ele>
        <time>2022-03-02T08:29:01.920Z</time>
      </trkpt>
      <trkpt lat="41.92822" lon="25.49822">
        <ele>266.457657</ele>
        <time>2022-03-02T08:29:05.898Z</time>
      </trkpt>
      <trkpt lat="41.92822" lon="25.49806">
        <ele>266.155075</ele>
        <time>2022-03-02T08:29:09.884Z</time>
      </trkpt>
      <trkpt lat="41.92822" lon="25.49793">
        <ele>265.910311</ele>
        <time>2022-03-02T08:29:12.926Z</time>
      </trkpt>
      <trkpt lat="41.92822" lon="25.49779">
        <ele>265.638454</ele>
        <time>2022-03-02T08:29:15.898Z</time>
      </trkpt>
      <trkpt lat="41.92822" lon="25.49764">
        <ele>265.349351</ele>
        <time>2022-03-02T08:29:18.889Z</time>
      </trkpt>
      <trkpt lat="41.92823" lon="25.49748">
        <ele>265.03367</ele>
        <time>2022-03-02T08:29:21.886Z</time>
      </trkpt>
      <trkpt lat="41.92824" lon="25.49736">
        <ele>264.800649</ele>
        <time>2022-03-02T08:29:23.913Z</time>
      </trkpt>
      <trkpt lat="41.92826" lon="25.49724">
        <ele>264.567627</ele>
        <time>2022-03-02T08:29:25.899Z</time>
      </trkpt>
      <trkpt lat="41.92828" lon="25.49706">
        <ele>264.221771</ele>
        <time>2022-03-02T08:29:28.887Z</time>
      </trkpt>
      <trkpt lat="41.9283" lon="25.4969">
        <ele>263.893012</ele>
        <time>2022-03-02T08:29:31.900Z</time>
      </trkpt>
      <trkpt lat="41.92833" lon="25.49674">
        <ele>263.580609</ele>
        <time>2022-03-02T08:29:34.895Z</time>
      </trkpt>
      <trkpt lat="41.92836" lon="25.49659">
        <ele>263.290665</ele>
        <time>2022-03-02T08:29:37.896Z</time>
      </trkpt>
      <trkpt lat="41.92838" lon="25.49645">
        <ele>263.015659</ele>
        <time>2022-03-02T08:29:40.938Z</time>
      </trkpt>
      <trkpt lat="41.92841" lon="25.49632">
        <ele>262.758126</ele>
        <time>2022-03-02T08:29:43.891Z</time>
      </trkpt>
      <trkpt lat="41.92843" lon="25.49621">
        <ele>262.524222</ele>
        <time>2022-03-02T08:29:46.916Z</time>
      </trkpt>
      <trkpt lat="41.92846" lon="25.49605">
        <ele>262.217919</ele>
        <time>2022-03-02T08:29:50.901Z</time>
      </trkpt>
      <trkpt lat="41.92849" lon="25.49591">
        <ele>262.193506</ele>
        <time>2022-03-02T08:29:54.879Z</time>
      </trkpt>
      <trkpt lat="41.92852" lon="25.49577">
        <ele>262.47685</ele>
        <time>2022-03-02T08:29:58.887Z</time>
      </trkpt>
      <trkpt lat="41.92854" lon="25.49563">
        <ele>262.749265</ele>
        <time>2022-03-02T08:30:02.930Z</time>
      </trkpt>
      <trkpt lat="41.92856" lon="25.4955">
        <ele>263.018837</ele>
        <time>2022-03-02T08:30:06.899Z</time>
      </trkpt>
      <trkpt lat="41.92857" lon="25.49536">
        <ele>263.312385</ele>
        <time>2022-03-02T08:30:11.897Z</time>
      </trkpt>
      <trkpt lat="41.9286" lon="25.49523">
        <ele>263.57285</ele>
        <time>2022-03-02T08:30:15.906Z</time>
      </trkpt>
      <trkpt lat="41.92863" lon="25.49511">
        <ele>263.82998</ele>
        <time>2022-03-02T08:30:19.894Z</time>
      </trkpt>
      <trkpt lat="41.92866" lon="25.49499">
        <ele>264.079472</ele>
        <time>2022-03-02T08:30:23.888Z</time>
      </trkpt>
      <trkpt lat="41.92868" lon="25.49487">
        <ele>264.341984</ele>
        <time>2022-03-02T08:30:27.904Z</time>
      </trkpt>
      <trkpt lat="41.92869" lon="25.49475">
        <ele>264.589415</ele>
        <time>2022-03-02T08:30:31.939Z</time>
      </trkpt>
      <trkpt lat="41.92873" lon="25.4946">
        <ele>264.889212</ele>
        <time>2022-03-02T08:30:36.905Z</time>
      </trkpt>
      <trkpt lat="41.92876" lon="25.49448">
        <ele>265.14527</ele>
        <time>2022-03-02T08:30:40.903Z</time>
      </trkpt>
      <trkpt lat="41.92878" lon="25.49435">
        <ele>265.425273</ele>
        <time>2022-03-02T08:30:45.893Z</time>
      </trkpt>
      <trkpt lat="41.9288" lon="25.49422">
        <ele>265.673005</ele>
        <time>2022-03-02T08:30:49.917Z</time>
      </trkpt>
      <trkpt lat="41.92882" lon="25.4941">
        <ele>265.93869</ele>
        <time>2022-03-02T08:30:53.936Z</time>
      </trkpt>
      <trkpt lat="41.92885" lon="25.49397">
        <ele>266.197866</ele>
        <time>2022-03-02T08:30:57.887Z</time>
      </trkpt>
      <trkpt lat="41.92887" lon="25.49384">
        <ele>266.461016</ele>
        <time>2022-03-02T08:31:01.890Z</time>
      </trkpt>
      <trkpt lat="41.92889" lon="25.49372">
        <ele>266.720247</ele>
        <time>2022-03-02T08:31:05.897Z</time>
      </trkpt>
      <trkpt lat="41.92891" lon="25.4936">
        <ele>266.943155</ele>
        <time>2022-03-02T08:31:09.894Z</time>
      </trkpt>
      <trkpt lat="41.92893" lon="25.49347">
        <ele>267.086209</ele>
        <time>2022-03-02T08:31:13.896Z</time>
      </trkpt>
      <trkpt lat="41.92896" lon="25.49335">
        <ele>267.237598</ele>
        <time>2022-03-02T08:31:17.897Z</time>
      </trkpt>
      <trkpt lat="41.92898" lon="25.49322">
        <ele>267.382125</ele>
        <time>2022-03-02T08:31:21.938Z</time>
      </trkpt>
      <trkpt lat="41.929" lon="25.4931">
        <ele>267.522263</ele>
        <time>2022-03-02T08:31:25.920Z</time>
      </trkpt>
      <trkpt lat="41.92904" lon="25.49299">
        <ele>267.660599</ele>
        <time>2022-03-02T08:31:29.908Z</time>
      </trkpt>
      <trkpt lat="41.92907" lon="25.49286">
        <ele>267.820514</ele>
        <time>2022-03-02T08:31:34.882Z</time>
      </trkpt>
      <trkpt lat="41.92908" lon="25.49274">
        <ele>267.961427</ele>
        <time>2022-03-02T08:31:38.896Z</time>
      </trkpt>
      <trkpt lat="41.92911" lon="25.49261">
        <ele>268.109272</ele>
        <time>2022-03-02T08:31:42.885Z</time>
      </trkpt>
      <trkpt lat="41.92913" lon="25.49247">
        <ele>268.278501</ele>
        <time>2022-03-02T08:31:47.899Z</time>
      </trkpt>
      <trkpt lat="41.92915" lon="25.49234">
        <ele>268.427794</ele>
        <time>2022-03-02T08:31:51.938Z</time>
      </trkpt>
      <trkpt lat="41.92917" lon="25.49221">
        <ele>268.570494</ele>
        <time>2022-03-02T08:31:55.907Z</time>
      </trkpt>
      <trkpt lat="41.92919" lon="25.49209">
        <ele>268.714654</ele>
        <time>2022-03-02T08:31:59.885Z</time>
      </trkpt>
      <trkpt lat="41.92921" lon="25.49196">
        <ele>268.868985</ele>
        <time>2022-03-02T08:32:03.912Z</time>
      </trkpt>
      <trkpt lat="41.92924" lon="25.49181">
        <ele>269.038263</ele>
        <time>2022-03-02T08:32:08.932Z</time>
      </trkpt>
      <trkpt lat="41.92926" lon="25.4917">
        <ele>269.176889</ele>
        <time>2022-03-02T08:32:12.897Z</time>
      </trkpt>
      <trkpt lat="41.92929" lon="25.49158">
        <ele>269.319754</ele>
        <time>2022-03-02T08:32:16.907Z</time>
      </trkpt>
      <trkpt lat="41.9293" lon="25.49143">
        <ele>269.48703</ele>
        <time>2022-03-02T08:32:21.900Z</time>
      </trkpt>
      <trkpt lat="41.92933" lon="25.49131">
        <ele>269.630836</ele>
        <time>2022-03-02T08:32:25.903Z</time>
      </trkpt>
      <trkpt lat="41.92935" lon="25.49117">
        <ele>269.735499</ele>
        <time>2022-03-02T08:32:30.897Z</time>
      </trkpt>
      <trkpt lat="41.92938" lon="25.49102">
        <ele>269.826126</ele>
        <time>2022-03-02T08:32:35.917Z</time>
      </trkpt>
      <trkpt lat="41.92941" lon="25.4909">
        <ele>269.902794</ele>
        <time>2022-03-02T08:32:39.896Z</time>
      </trkpt>
      <trkpt lat="41.92943" lon="25.49078">
        <ele>269.981931</ele>
        <time>2022-03-02T08:32:43.932Z</time>
      </trkpt>
      <trkpt lat="41.92946" lon="25.49065">
        <ele>270.061887</ele>
        <time>2022-03-02T08:32:47.890Z</time>
      </trkpt>
      <trkpt lat="41.92948" lon="25.49053">
        <ele>270.139404</ele>
        <time>2022-03-02T08:32:51.900Z</time>
      </trkpt>
      <trkpt lat="41.9295" lon="25.49041">
        <ele>270.214727</ele>
        <time>2022-03-02T08:32:55.892Z</time>
      </trkpt>
      <trkpt lat="41.92953" lon="25.49029">
        <ele>270.293153</ele>
        <time>2022-03-02T08:32:59.906Z</time>
      </trkpt>
      <trkpt lat="41.92956" lon="25.49018">
        <ele>270.367573</ele>
        <time>2022-03-02T08:33:03.894Z</time>
      </trkpt>
      <trkpt lat="41.92958" lon="25.49006">
        <ele>270.441915</ele>
        <time>2022-03-02T08:33:07.893Z</time>
      </trkpt>
      <trkpt lat="41.9296" lon="25.48994">
        <ele>270.518481</ele>
        <time>2022-03-02T08:33:11.909Z</time>
      </trkpt>
      <trkpt lat="41.92962" lon="25.48981">
        <ele>270.596387</ele>
        <time>2022-03-02T08:33:15.905Z</time>
      </trkpt>
      <trkpt lat="41.92964" lon="25.48966">
        <ele>270.689434</ele>
        <time>2022-03-02T08:33:20.899Z</time>
      </trkpt>
      <trkpt lat="41.92966" lon="25.48955">
        <ele>270.763266</ele>
        <time>2022-03-02T08:33:24.896Z</time>
      </trkpt>
      <trkpt lat="41.92968" lon="25.48942">
        <ele>270.840187</ele>
        <time>2022-03-02T08:33:28.892Z</time>
      </trkpt>
      <trkpt lat="41.92971" lon="25.4893">
        <ele>270.916307</ele>
        <time>2022-03-02T08:33:32.892Z</time>
      </trkpt>
      <trkpt lat="41.92972" lon="25.48918">
        <ele>270.994825</ele>
        <time>2022-03-02T08:33:36.903Z</time>
      </trkpt>
      <trkpt lat="41.92973" lon="25.48905">
        <ele>271.072439</ele>
        <time>2022-03-02T08:33:40.889Z</time>
      </trkpt>
      <trkpt lat="41.92975" lon="25.48892">
        <ele>271.144591</ele>
        <time>2022-03-02T08:33:44.905Z</time>
      </trkpt>
      <trkpt lat="41.92976" lon="25.48878">
        <ele>271.104524</ele>
        <time>2022-03-02T08:33:48.943Z</time>
      </trkpt>
      <trkpt lat="41.92977" lon="25.48864">
        <ele>271.064628</ele>
        <time>2022-03-02T08:33:52.891Z</time>
      </trkpt>
      <trkpt lat="41.92977" lon="25.48849">
        <ele>271.02186</ele>
        <time>2022-03-02T08:33:56.900Z</time>
      </trkpt>
      <trkpt lat="41.92979" lon="25.48833">
        <ele>270.976892</ele>
        <time>2022-03-02T08:34:00.911Z</time>
      </trkpt>
      <trkpt lat="41.9298" lon="25.48821">
        <ele>270.941355</ele>
        <time>2022-03-02T08:34:03.936Z</time>
      </trkpt>
      <trkpt lat="41.92982" lon="25.48806">
        <ele>270.900344</ele>
        <time>2022-03-02T08:34:06.902Z</time>
      </trkpt>
      <trkpt lat="41.92986" lon="25.4879">
        <ele>270.851961</ele>
        <time>2022-03-02T08:34:09.896Z</time>
      </trkpt>
      <trkpt lat="41.92988" lon="25.48778">
        <ele>270.816186</ele>
        <time>2022-03-02T08:34:11.921Z</time>
      </trkpt>
      <trkpt lat="41.92992" lon="25.48765">
        <ele>270.776889</ele>
        <time>2022-03-02T08:34:13.930Z</time>
      </trkpt>
      <trkpt lat="41.92995" lon="25.48752">
        <ele>270.739689</ele>
        <time>2022-03-02T08:34:15.886Z</time>
      </trkpt>
      <trkpt lat="41.92998" lon="25.48739">
        <ele>270.701417</ele>
        <time>2022-03-02T08:34:17.918Z</time>
      </trkpt>
      <trkpt lat="41.93001" lon="25.48726">
        <ele>270.662876</ele>
        <time>2022-03-02T08:34:19.899Z</time>
      </trkpt>
      <trkpt lat="41.93005" lon="25.48714">
        <ele>270.625081</ele>
        <time>2022-03-02T08:34:21.907Z</time>
      </trkpt>
      <trkpt lat="41.93008" lon="25.48702">
        <ele>270.589899</ele>
        <time>2022-03-02T08:34:23.925Z</time>
      </trkpt>
      <trkpt lat="41.9301" lon="25.48686">
        <ele>270.543819</ele>
        <time>2022-03-02T08:34:26.906Z</time>
      </trkpt>
      <trkpt lat="41.93012" lon="25.48672">
        <ele>270.504526</ele>
        <time>2022-03-02T08:34:29.935Z</time>
      </trkpt>
      <trkpt lat="41.93015" lon="25.4866">
        <ele>270.468072</ele>
        <time>2022-03-02T08:34:32.907Z</time>
      </trkpt>
      <trkpt lat="41.93017" lon="25.48645">
        <ele>270.673418</ele>
        <time>2022-03-02T08:34:36.887Z</time>
      </trkpt>
      <trkpt lat="41.93019" lon="25.48631">
        <ele>270.882643</ele>
        <time>2022-03-02T08:34:40.887Z</time>
      </trkpt>
      <trkpt lat="41.93021" lon="25.48616">
        <ele>271.101935</ele>
        <time>2022-03-02T08:34:44.898Z</time>
      </trkpt>
      <trkpt lat="41.93024" lon="25.48604">
        <ele>271.292852</ele>
        <time>2022-03-02T08:34:48.897Z</time>
      </trkpt>
      <trkpt lat="41.93027" lon="25.48592">
        <ele>271.47863</ele>
        <time>2022-03-02T08:34:52.925Z</time>
      </trkpt>
      <trkpt lat="41.93029" lon="25.48579">
        <ele>271.663398</ele>
        <time>2022-03-02T08:34:56.895Z</time>
      </trkpt>
      <trkpt lat="41.93031" lon="25.48566">
        <ele>271.865944</ele>
        <time>2022-03-02T08:35:01.904Z</time>
      </trkpt>
      <trkpt lat="41.93033" lon="25.48553">
        <ele>272.052531</ele>
        <time>2022-03-02T08:35:05.894Z</time>
      </trkpt>
      <trkpt lat="41.93036" lon="25.48541">
        <ele>272.2347</ele>
        <time>2022-03-02T08:35:09.885Z</time>
      </trkpt>
      <trkpt lat="41.93038" lon="25.48528">
        <ele>272.430161</ele>
        <time>2022-03-02T08:35:13.899Z</time>
      </trkpt>
      <trkpt lat="41.9304" lon="25.48513">
        <ele>272.654132</ele>
        <time>2022-03-02T08:35:18.911Z</time>
      </trkpt>
      <trkpt lat="41.93041" lon="25.485">
        <ele>272.84281</ele>
        <time>2022-03-02T08:35:22.893Z</time>
      </trkpt>
      <trkpt lat="41.93043" lon="25.48487">
        <ele>273.038992</ele>
        <time>2022-03-02T08:35:26.896Z</time>
      </trkpt>
      <trkpt lat="41.93044" lon="25.48475">
        <ele>273.224768</ele>
        <time>2022-03-02T08:35:30.884Z</time>
      </trkpt>
      <trkpt lat="41.93045" lon="25.48461">
        <ele>273.42318</ele>
        <time>2022-03-02T08:35:34.890Z</time>
      </trkpt>
      <trkpt lat="41.93046" lon="25.48447">
        <ele>273.624865</ele>
        <time>2022-03-02T08:35:38.896Z</time>
      </trkpt>
      <trkpt lat="41.93048" lon="25.48434">
        <ele>273.819348</ele>
        <time>2022-03-02T08:35:42.886Z</time>
      </trkpt>
      <trkpt lat="41.93048" lon="25.48422">
        <ele>274.000738</ele>
        <time>2022-03-02T08:35:46.903Z</time>
      </trkpt>
      <trkpt lat="41.9305" lon="25.48407">
        <ele>274.127849</ele>
        <time>2022-03-02T08:35:51.896Z</time>
      </trkpt>
      <trkpt lat="41.93051" lon="25.48392">
        <ele>274.258792</ele>
        <time>2022-03-02T08:35:56.917Z</time>
      </trkpt>
      <trkpt lat="41.93052" lon="25.48379">
        <ele>274.376237</ele>
        <time>2022-03-02T08:36:00.881Z</time>
      </trkpt>
      <trkpt lat="41.93054" lon="25.48365">
        <ele>274.490549</ele>
        <time>2022-03-02T08:36:04.906Z</time>
      </trkpt>
      <trkpt lat="41.93056" lon="25.48351">
        <ele>274.612724</ele>
        <time>2022-03-02T08:36:08.915Z</time>
      </trkpt>
      <trkpt lat="41.93056" lon="25.48337">
        <ele>274.734219</ele>
        <time>2022-03-02T08:36:12.886Z</time>
      </trkpt>
      <trkpt lat="41.93058" lon="25.48323">
        <ele>274.857695</ele>
        <time>2022-03-02T08:36:16.924Z</time>
      </trkpt>
      <trkpt lat="41.9306" lon="25.48308">
        <ele>274.984747</ele>
        <time>2022-03-02T08:36:20.926Z</time>
      </trkpt>
      <trkpt lat="41.93062" lon="25.48293">
        <ele>275.120648</ele>
        <time>2022-03-02T08:36:24.914Z</time>
      </trkpt>
      <trkpt lat="41.93063" lon="25.48281">
        <ele>275.227654</ele>
        <time>2022-03-02T08:36:27.926Z</time>
      </trkpt>
      <trkpt lat="41.93065" lon="25.48268">
        <ele>275.338237</ele>
        <time>2022-03-02T08:36:30.888Z</time>
      </trkpt>
      <trkpt lat="41.93067" lon="25.48254">
        <ele>275.454937</ele>
        <time>2022-03-02T08:36:33.942Z</time>
      </trkpt>
      <trkpt lat="41.93067" lon="25.48241">
        <ele>275.567692</ele>
        <time>2022-03-02T08:36:36.887Z</time>
      </trkpt>
      <trkpt lat="41.93069" lon="25.48228">
        <ele>275.68343</ele>
        <time>2022-03-02T08:36:39.910Z</time>
      </trkpt>
      <trkpt lat="41.9307" lon="25.48215">
        <ele>275.792215</ele>
        <time>2022-03-02T08:36:42.888Z</time>
      </trkpt>
      <trkpt lat="41.93073" lon="25.482">
        <ele>275.931376</ele>
        <time>2022-03-02T08:36:46.890Z</time>
      </trkpt>
      <trkpt lat="41.93074" lon="25.48186">
        <ele>276.048077</ele>
        <time>2022-03-02T08:36:49.917Z</time>
      </trkpt>
      <trkpt lat="41.93075" lon="25.48173">
        <ele>276.134973</ele>
        <time>2022-03-02T08:36:52.902Z</time>
      </trkpt>
      <trkpt lat="41.93076" lon="25.4816">
        <ele>276.210861</ele>
        <time>2022-03-02T08:36:55.951Z</time>
      </trkpt>
      <trkpt lat="41.93077" lon="25.48147">
        <ele>276.288386</ele>
        <time>2022-03-02T08:36:58.904Z</time>
      </trkpt>
      <trkpt lat="41.93078" lon="25.48134">
        <ele>276.365721</ele>
        <time>2022-03-02T08:37:01.887Z</time>
      </trkpt>
      <trkpt lat="41.93079" lon="25.4812">
        <ele>276.443057</ele>
        <time>2022-03-02T08:37:04.924Z</time>
      </trkpt>
      <trkpt lat="41.9308" lon="25.48107">
        <ele>276.518656</ele>
        <time>2022-03-02T08:37:07.892Z</time>
      </trkpt>
      <trkpt lat="41.93082" lon="25.48095">
        <ele>276.591496</ele>
        <time>2022-03-02T08:37:10.897Z</time>
      </trkpt>
      <trkpt lat="41.93084" lon="25.4808">
        <ele>276.68308</ele>
        <time>2022-03-02T08:37:14.896Z</time>
      </trkpt>
      <trkpt lat="41.93085" lon="25.48064">
        <ele>276.775344</ele>
        <time>2022-03-02T08:37:18.901Z</time>
      </trkpt>
      <trkpt lat="41.93087" lon="25.48052">
        <ele>276.847101</ele>
        <time>2022-03-02T08:37:21.896Z</time>
      </trkpt>
      <trkpt lat="41.93088" lon="25.4804">
        <ele>276.917823</ele>
        <time>2022-03-02T08:37:24.897Z</time>
      </trkpt>
      <trkpt lat="41.9309" lon="25.48024">
        <ele>277.008357</ele>
        <time>2022-03-02T08:37:28.961Z</time>
      </trkpt>
      <trkpt lat="41.93091" lon="25.48008">
        <ele>277.101882</ele>
        <time>2022-03-02T08:37:32.915Z</time>
      </trkpt>
      <trkpt lat="41.93092" lon="25.47996">
        <ele>277.172684</ele>
        <time>2022-03-02T08:37:35.902Z</time>
      </trkpt>
      <trkpt lat="41.93094" lon="25.47981">
        <ele>277.264481</ele>
        <time>2022-03-02T08:37:39.982Z</time>
      </trkpt>
      <trkpt lat="41.93095" lon="25.47965">
        <ele>277.353862</ele>
        <time>2022-03-02T08:37:43.891Z</time>
      </trkpt>
      <trkpt lat="41.93096" lon="25.47951">
        <ele>277.43672</ele>
        <time>2022-03-02T08:37:47.900Z</time>
      </trkpt>
      <trkpt lat="41.93097" lon="25.47936">
        <ele>277.517819</ele>
        <time>2022-03-02T08:37:51.898Z</time>
      </trkpt>
      <trkpt lat="41.93098" lon="25.47921">
        <ele>277.595827</ele>
        <time>2022-03-02T08:37:55.930Z</time>
      </trkpt>
      <trkpt lat="41.931" lon="25.47906">
        <ele>277.672723</ele>
        <time>2022-03-02T08:37:59.889Z</time>
      </trkpt>
      <trkpt lat="41.93103" lon="25.47894">
        <ele>277.735121</ele>
        <time>2022-03-02T08:38:02.890Z</time>
      </trkpt>
      <trkpt lat="41.93107" lon="25.47883">
        <ele>277.798335</ele>
        <time>2022-03-02T08:38:05.901Z</time>
      </trkpt>
      <trkpt lat="41.93111" lon="25.47871">
        <ele>277.863113</ele>
        <time>2022-03-02T08:38:08.894Z</time>
      </trkpt>
      <trkpt lat="41.93115" lon="25.47859">
        <ele>277.927983</ele>
        <time>2022-03-02T08:38:11.902Z</time>
      </trkpt>
      <trkpt lat="41.93118" lon="25.47848">
        <ele>277.992235</ele>
        <time>2022-03-02T08:38:14.907Z</time>
      </trkpt>
      <trkpt lat="41.93122" lon="25.47836">
        <ele>278.053643</ele>
        <time>2022-03-02T08:38:17.911Z</time>
      </trkpt>
      <trkpt lat="41.93126" lon="25.47824">
        <ele>278.119712</ele>
        <time>2022-03-02T08:38:20.901Z</time>
      </trkpt>
      <trkpt lat="41.9313" lon="25.47813">
        <ele>278.185758</ele>
        <time>2022-03-02T08:38:23.930Z</time>
      </trkpt>
      <trkpt lat="41.93134" lon="25.478">
        <ele>278.256376</ele>
        <time>2022-03-02T08:38:26.902Z</time>
      </trkpt>
      <trkpt lat="41.93138" lon="25.47787">
        <ele>278.326213</ele>
        <time>2022-03-02T08:38:29.894Z</time>
      </trkpt>
      <trkpt lat="41.93143" lon="25.47774">
        <ele>278.395772</ele>
        <time>2022-03-02T08:38:32.907Z</time>
      </trkpt>
      <trkpt lat="41.93147" lon="25.47761">
        <ele>278.468562</ele>
        <time>2022-03-02T08:38:35.894Z</time>
      </trkpt>
      <trkpt lat="41.93151" lon="25.47747">
        <ele>278.544145</ele>
        <time>2022-03-02T08:38:38.889Z</time>
      </trkpt>
      <trkpt lat="41.93155" lon="25.47733">
        <ele>278.619784</ele>
        <time>2022-03-02T08:38:41.893Z</time>
      </trkpt>
      <trkpt lat="41.9316" lon="25.47719">
        <ele>278.699928</ele>
        <time>2022-03-02T08:38:44.885Z</time>
      </trkpt>
      <trkpt lat="41.93164" lon="25.47704">
        <ele>278.827173</ele>
        <time>2022-03-02T08:38:47.910Z</time>
      </trkpt>
      <trkpt lat="41.93169" lon="25.4769">
        <ele>278.958578</ele>
        <time>2022-03-02T08:38:50.895Z</time>
      </trkpt>
      <trkpt lat="41.93173" lon="25.47675">
        <ele>279.089982</ele>
        <time>2022-03-02T08:38:53.893Z</time>
      </trkpt>
      <trkpt lat="41.93178" lon="25.47662">
        <ele>279.213591</ele>
        <time>2022-03-02T08:38:56.891Z</time>
      </trkpt>
      <trkpt lat="41.93182" lon="25.47648">
        <ele>279.338102</ele>
        <time>2022-03-02T08:38:59.905Z</time>
      </trkpt>
      <trkpt lat="41.93187" lon="25.47634">
        <ele>279.463438</ele>
        <time>2022-03-02T08:39:02.898Z</time>
      </trkpt>
      <trkpt lat="41.93192" lon="25.47621">
        <ele>279.589244</ele>
        <time>2022-03-02T08:39:05.886Z</time>
      </trkpt>
      <trkpt lat="41.93197" lon="25.47607">
        <ele>279.714958</ele>
        <time>2022-03-02T08:39:08.900Z</time>
      </trkpt>
      <trkpt lat="41.93201" lon="25.47593">
        <ele>279.83467</ele>
        <time>2022-03-02T08:39:11.890Z</time>
      </trkpt>
      <trkpt lat="41.93205" lon="25.4758">
        <ele>279.953295</ele>
        <time>2022-03-02T08:39:14.911Z</time>
      </trkpt>
      <trkpt lat="41.93209" lon="25.47567">
        <ele>280.073881</ele>
        <time>2022-03-02T08:39:17.897Z</time>
      </trkpt>
      <trkpt lat="41.93213" lon="25.47554">
        <ele>280.193541</ele>
        <time>2022-03-02T08:39:20.900Z</time>
      </trkpt>
      <trkpt lat="41.93218" lon="25.4754">
        <ele>280.316381</ele>
        <time>2022-03-02T08:39:23.888Z</time>
      </trkpt>
      <trkpt lat="41.93223" lon="25.47527">
        <ele>280.435763</ele>
        <time>2022-03-02T08:39:26.904Z</time>
      </trkpt>
      <trkpt lat="41.93227" lon="25.47514">
        <ele>280.554822</ele>
        <time>2022-03-02T08:39:29.882Z</time>
      </trkpt>
      <trkpt lat="41.93231" lon="25.47502">
        <ele>280.666906</ele>
        <time>2022-03-02T08:39:32.894Z</time>
      </trkpt>
      <trkpt lat="41.93235" lon="25.4749">
        <ele>280.769467</ele>
        <time>2022-03-02T08:39:35.913Z</time>
      </trkpt>
      <trkpt lat="41.93239" lon="25.47479">
        <ele>280.866777</ele>
        <time>2022-03-02T08:39:38.915Z</time>
      </trkpt>
      <trkpt lat="41.93243" lon="25.47467">
        <ele>280.968069</ele>
        <time>2022-03-02T08:39:41.935Z</time>
      </trkpt>
      <trkpt lat="41.93247" lon="25.47453">
        <ele>281.08325</ele>
        <time>2022-03-02T08:39:45.901Z</time>
      </trkpt>
      <trkpt lat="41.93252" lon="25.47439">
        <ele>281.204118</ele>
        <time>2022-03-02T08:39:49.885Z</time>
      </trkpt>
      <trkpt lat="41.93257" lon="25.47424">
        <ele>281.327101</ele>
        <time>2022-03-02T08:39:53.940Z</time>
      </trkpt>
      <trkpt lat="41.93262" lon="25.47411">
        <ele>281.44612</ele>
        <time>2022-03-02T08:39:57.896Z</time>
      </trkpt>
      <trkpt lat="41.93266" lon="25.47397">
        <ele>281.564566</ele>
        <time>2022-03-02T08:40:01.898Z</time>
      </trkpt>
      <trkpt lat="41.9327" lon="25.47382">
        <ele>281.687243</ele>
        <time>2022-03-02T08:40:05.902Z</time>
      </trkpt>
      <trkpt lat="41.93275" lon="25.47367">
        <ele>281.811101</ele>
        <time>2022-03-02T08:40:09.901Z</time>
      </trkpt>
      <trkpt lat="41.93279" lon="25.47353">
        <ele>281.931937</ele>
        <time>2022-03-02T08:40:13.881Z</time>
      </trkpt>
      <trkpt lat="41.93284" lon="25.47338">
        <ele>282.053242</ele>
        <time>2022-03-02T08:40:17.877Z</time>
      </trkpt>
      <trkpt lat="41.93288" lon="25.47324">
        <ele>282.172965</ele>
        <time>2022-03-02T08:40:21.928Z</time>
      </trkpt>
      <trkpt lat="41.93293" lon="25.4731">
        <ele>282.29543</ele>
        <time>2022-03-02T08:40:25.892Z</time>
      </trkpt>
      <trkpt lat="41.93298" lon="25.47296">
        <ele>282.415594</ele>
        <time>2022-03-02T08:40:29.892Z</time>
      </trkpt>
      <trkpt lat="41.93302" lon="25.47282">
        <ele>282.52806</ele>
        <time>2022-03-02T08:40:33.913Z</time>
      </trkpt>
      <trkpt lat="41.93306" lon="25.47269">
        <ele>282.680923</ele>
        <time>2022-03-02T08:40:37.887Z</time>
      </trkpt>
      <trkpt lat="41.9331" lon="25.47256">
        <ele>282.865172</ele>
        <time>2022-03-02T08:40:41.946Z</time>
      </trkpt>
      <trkpt lat="41.93315" lon="25.47244">
        <ele>283.044781</ele>
        <time>2022-03-02T08:40:45.910Z</time>
      </trkpt>
      <trkpt lat="41.93319" lon="25.47232">
        <ele>283.221004</ele>
        <time>2022-03-02T08:40:49.883Z</time>
      </trkpt>
      <trkpt lat="41.93323" lon="25.47219">
        <ele>283.40403</ele>
        <time>2022-03-02T08:40:53.905Z</time>
      </trkpt>
      <trkpt lat="41.93326" lon="25.47207">
        <ele>283.572059</ele>
        <time>2022-03-02T08:40:57.906Z</time>
      </trkpt>
      <trkpt lat="41.9333" lon="25.47195">
        <ele>283.746568</ele>
        <time>2022-03-02T08:41:01.882Z</time>
      </trkpt>
      <trkpt lat="41.93335" lon="25.47183">
        <ele>283.925721</ele>
        <time>2022-03-02T08:41:05.913Z</time>
      </trkpt>
      <trkpt lat="41.93339" lon="25.47172">
        <ele>284.092995</ele>
        <time>2022-03-02T08:41:09.901Z</time>
      </trkpt>
      <trkpt lat="41.93343" lon="25.4716">
        <ele>284.269351</ele>
        <time>2022-03-02T08:41:13.893Z</time>
      </trkpt>
      <trkpt lat="41.93347" lon="25.47149">
        <ele>284.433197</ele>
        <time>2022-03-02T08:41:17.893Z</time>
      </trkpt>
      <trkpt lat="41.9335" lon="25.47138">
        <ele>284.593192</ele>
        <time>2022-03-02T08:41:21.912Z</time>
      </trkpt>
      <trkpt lat="41.93354" lon="25.47126">
        <ele>284.76649</ele>
        <time>2022-03-02T08:41:25.938Z</time>
      </trkpt>
      <trkpt lat="41.93358" lon="25.47113">
        <ele>284.948294</ele>
        <time>2022-03-02T08:41:30.878Z</time>
      </trkpt>
      <trkpt lat="41.93363" lon="25.471">
        <ele>285.140043</ele>
        <time>2022-03-02T08:41:35.897Z</time>
      </trkpt>
      <trkpt lat="41.93366" lon="25.47089">
        <ele>285.30196</ele>
        <time>2022-03-02T08:41:39.901Z</time>
      </trkpt>
      <trkpt lat="41.93371" lon="25.47076">
        <ele>285.490205</ele>
        <time>2022-03-02T08:41:44.904Z</time>
      </trkpt>
      <trkpt lat="41.93375" lon="25.47065">
        <ele>285.654482</ele>
        <time>2022-03-02T08:41:48.894Z</time>
      </trkpt>
      <trkpt lat="41.93379" lon="25.47054">
        <ele>285.823615</ele>
        <time>2022-03-02T08:41:52.880Z</time>
      </trkpt>
      <trkpt lat="41.93382" lon="25.47039">
        <ele>286.061755</ele>
        <time>2022-03-02T08:41:57.893Z</time>
      </trkpt>
      <trkpt lat="41.93385" lon="25.47025">
        <ele>286.299931</ele>
        <time>2022-03-02T08:42:02.895Z</time>
      </trkpt>
      <trkpt lat="41.93388" lon="25.47014">
        <ele>286.491727</ele>
        <time>2022-03-02T08:42:06.900Z</time>
      </trkpt>
      <trkpt lat="41.93391" lon="25.47">
        <ele>286.712933</ele>
        <time>2022-03-02T08:42:11.901Z</time>
      </trkpt>
      <trkpt lat="41.93393" lon="25.46986">
        <ele>286.939515</ele>
        <time>2022-03-02T08:42:16.880Z</time>
      </trkpt>
      <trkpt lat="41.93395" lon="25.46974">
        <ele>287.140186</ele>
        <time>2022-03-02T08:42:20.897Z</time>
      </trkpt>
      <trkpt lat="41.93397" lon="25.4696">
        <ele>287.36754</ele>
        <time>2022-03-02T08:42:25.880Z</time>
      </trkpt>
      <trkpt lat="41.93399" lon="25.46946">
        <ele>287.593478</ele>
        <time>2022-03-02T08:42:30.881Z</time>
      </trkpt>
      <trkpt lat="41.93401" lon="25.46931">
        <ele>287.82859</ele>
        <time>2022-03-02T08:42:35.912Z</time>
      </trkpt>
      <trkpt lat="41.93403" lon="25.46917">
        <ele>288.056473</ele>
        <time>2022-03-02T08:42:40.881Z</time>
      </trkpt>
      <trkpt lat="41.93405" lon="25.46905">
        <ele>288.249537</ele>
        <time>2022-03-02T08:42:45.902Z</time>
      </trkpt>
      <trkpt lat="41.93407" lon="25.46892">
        <ele>288.459292</ele>
        <time>2022-03-02T08:42:50.921Z</time>
      </trkpt>
      <trkpt lat="41.93408" lon="25.46879">
        <ele>288.662736</ele>
        <time>2022-03-02T08:42:55.894Z</time>
      </trkpt>
      <trkpt lat="41.93407" lon="25.46866">
        <ele>288.870635</ele>
        <time>2022-03-02T08:43:00.898Z</time>
      </trkpt>
      <trkpt lat="41.93408" lon="25.46853">
        <ele>289.08704</ele>
        <time>2022-03-02T08:43:05.927Z</time>
      </trkpt>
      <trkpt lat="41.93409" lon="25.46838">
        <ele>289.314126</ele>
        <time>2022-03-02T08:43:10.897Z</time>
      </trkpt>
      <trkpt lat="41.93409" lon="25.46825">
        <ele>289.522199</ele>
        <time>2022-03-02T08:43:15.910Z</time>
      </trkpt>
      <trkpt lat="41.9341" lon="25.46812">
        <ele>289.451136</ele>
        <time>2022-03-02T08:43:20.897Z</time>
      </trkpt>
      <trkpt lat="41.9341" lon="25.46797">
        <ele>289.073287</ele>
        <time>2022-03-02T08:43:25.889Z</time>
      </trkpt>
      <trkpt lat="41.93411" lon="25.46784">
        <ele>288.74548</ele>
        <time>2022-03-02T08:43:29.894Z</time>
      </trkpt>
      <trkpt lat="41.93411" lon="25.4677">
        <ele>288.381143</ele>
        <time>2022-03-02T08:43:33.904Z</time>
      </trkpt>
      <trkpt lat="41.93412" lon="25.46758">
        <ele>288.065324</ele>
        <time>2022-03-02T08:43:36.898Z</time>
      </trkpt>
      <trkpt lat="41.93412" lon="25.46745">
        <ele>287.716266</ele>
        <time>2022-03-02T08:43:39.884Z</time>
      </trkpt>
      <trkpt lat="41.93413" lon="25.46728">
        <ele>287.293833</ele>
        <time>2022-03-02T08:43:42.889Z</time>
      </trkpt>
      <trkpt lat="41.93414" lon="25.46716">
        <ele>286.978471</ele>
        <time>2022-03-02T08:43:44.910Z</time>
      </trkpt>
      <trkpt lat="41.93414" lon="25.46703">
        <ele>286.639914</ele>
        <time>2022-03-02T08:43:46.902Z</time>
      </trkpt>
      <trkpt lat="41.93415" lon="25.46689">
        <ele>286.282907</ele>
        <time>2022-03-02T08:43:48.894Z</time>
      </trkpt>
      <trkpt lat="41.93416" lon="25.46675">
        <ele>285.913235</ele>
        <time>2022-03-02T08:43:50.904Z</time>
      </trkpt>
      <trkpt lat="41.93417" lon="25.4666">
        <ele>285.53796</ele>
        <time>2022-03-02T08:43:52.898Z</time>
      </trkpt>
      <trkpt lat="41.93417" lon="25.46646">
        <ele>285.158155</ele>
        <time>2022-03-02T08:43:54.918Z</time>
      </trkpt>
      <trkpt lat="41.93417" lon="25.4663">
        <ele>284.763016</ele>
        <time>2022-03-02T08:43:56.904Z</time>
      </trkpt>
      <trkpt lat="41.93418" lon="25.46615">
        <ele>284.362583</ele>
        <time>2022-03-02T08:43:58.904Z</time>
      </trkpt>
      <trkpt lat="41.93419" lon="25.46599">
        <ele>283.945869</ele>
        <time>2022-03-02T08:44:00.879Z</time>
      </trkpt>
      <trkpt lat="41.9342" lon="25.46582">
        <ele>283.51762</ele>
        <time>2022-03-02T08:44:02.921Z</time>
      </trkpt>
      <trkpt lat="41.93422" lon="25.46566">
        <ele>283.134453</ele>
        <time>2022-03-02T08:44:04.897Z</time>
      </trkpt>
      <trkpt lat="41.93426" lon="25.46549">
        <ele>282.768347</ele>
        <time>2022-03-02T08:44:06.920Z</time>
      </trkpt>
      <trkpt lat="41.93431" lon="25.46532">
        <ele>282.388845</ele>
        <time>2022-03-02T08:44:08.894Z</time>
      </trkpt>
      <trkpt lat="41.93437" lon="25.46516">
        <ele>282.001937</ele>
        <time>2022-03-02T08:44:10.899Z</time>
      </trkpt>
      <trkpt lat="41.93443" lon="25.46499">
        <ele>281.616926</ele>
        <time>2022-03-02T08:44:12.902Z</time>
      </trkpt>
      <trkpt lat="41.9345" lon="25.46481">
        <ele>281.196131</ele>
        <time>2022-03-02T08:44:14.928Z</time>
      </trkpt>
      <trkpt lat="41.93457" lon="25.46462">
        <ele>280.751437</ele>
        <time>2022-03-02T08:44:16.905Z</time>
      </trkpt>
      <trkpt lat="41.93464" lon="25.46445">
        <ele>280.320218</ele>
        <time>2022-03-02T08:44:18.903Z</time>
      </trkpt>
      <trkpt lat="41.93472" lon="25.46428">
        <ele>279.915697</ele>
        <time>2022-03-02T08:44:20.902Z</time>
      </trkpt>
      <trkpt lat="41.93478" lon="25.46411">
        <ele>279.520364</ele>
        <time>2022-03-02T08:44:22.917Z</time>
      </trkpt>
      <trkpt lat="41.93484" lon="25.46396">
        <ele>279.154192</ele>
        <time>2022-03-02T08:44:24.907Z</time>
      </trkpt>
      <trkpt lat="41.93489" lon="25.46381">
        <ele>278.813769</ele>
        <time>2022-03-02T08:44:26.919Z</time>
      </trkpt>
      <trkpt lat="41.93495" lon="25.46367">
        <ele>278.470727</ele>
        <time>2022-03-02T08:44:28.936Z</time>
      </trkpt>
      <trkpt lat="41.935" lon="25.46352">
        <ele>278.098687</ele>
        <time>2022-03-02T08:44:30.889Z</time>
      </trkpt>
      <trkpt lat="41.93506" lon="25.46338">
        <ele>277.703832</ele>
        <time>2022-03-02T08:44:32.895Z</time>
      </trkpt>
      <trkpt lat="41.93511" lon="25.46325">
        <ele>277.343153</ele>
        <time>2022-03-02T08:44:34.911Z</time>
      </trkpt>
      <trkpt lat="41.93516" lon="25.46312">
        <ele>276.969517</ele>
        <time>2022-03-02T08:44:36.906Z</time>
      </trkpt>
      <trkpt lat="41.93522" lon="25.463">
        <ele>276.609751</ele>
        <time>2022-03-02T08:44:38.900Z</time>
      </trkpt>
      <trkpt lat="41.93527" lon="25.46288">
        <ele>276.266617</ele>
        <time>2022-03-02T08:44:40.880Z</time>
      </trkpt>
      <trkpt lat="41.93531" lon="25.46276">
        <ele>275.937084</ele>
        <time>2022-03-02T08:44:42.886Z</time>
      </trkpt>
      <trkpt lat="41.93535" lon="25.46265">
        <ele>275.626312</ele>
        <time>2022-03-02T08:44:44.902Z</time>
      </trkpt>
      <trkpt lat="41.93539" lon="25.46254">
        <ele>275.323742</ele>
        <time>2022-03-02T08:44:46.890Z</time>
      </trkpt>
      <trkpt lat="41.93543" lon="25.46243">
        <ele>275.017489</ele>
        <time>2022-03-02T08:44:48.907Z</time>
      </trkpt>
      <trkpt lat="41.93549" lon="25.46227">
        <ele>274.572705</ele>
        <time>2022-03-02T08:44:51.904Z</time>
      </trkpt>
      <trkpt lat="41.93553" lon="25.46216">
        <ele>274.266462</ele>
        <time>2022-03-02T08:44:53.899Z</time>
      </trkpt>
      <trkpt lat="41.93558" lon="25.46201">
        <ele>273.856683</ele>
        <time>2022-03-02T08:44:56.913Z</time>
      </trkpt>
      <trkpt lat="41.93564" lon="25.46185">
        <ele>273.408154</ele>
        <time>2022-03-02T08:44:59.899Z</time>
      </trkpt>
      <trkpt lat="41.93571" lon="25.46169">
        <ele>272.958729</ele>
        <time>2022-03-02T08:45:02.899Z</time>
      </trkpt>
      <trkpt lat="41.93575" lon="25.46158">
        <ele>272.649356</ele>
        <time>2022-03-02T08:45:04.901Z</time>
      </trkpt>
      <trkpt lat="41.93578" lon="25.46146">
        <ele>272.322983</ele>
        <time>2022-03-02T08:45:06.905Z</time>
      </trkpt>
      <trkpt lat="41.93582" lon="25.46134">
        <ele>272.027172</ele>
        <time>2022-03-02T08:45:08.913Z</time>
      </trkpt>
      <trkpt lat="41.93585" lon="25.4612">
        <ele>271.712785</ele>
        <time>2022-03-02T08:45:10.886Z</time>
      </trkpt>
      <trkpt lat="41.93589" lon="25.46106">
        <ele>271.387041</ele>
        <time>2022-03-02T08:45:12.890Z</time>
      </trkpt>
      <trkpt lat="41.93592" lon="25.46092">
        <ele>271.058655</ele>
        <time>2022-03-02T08:45:14.913Z</time>
      </trkpt>
      <trkpt lat="41.93595" lon="25.46078">
        <ele>270.734218</ele>
        <time>2022-03-02T08:45:16.929Z</time>
      </trkpt>
      <trkpt lat="41.93598" lon="25.46063">
        <ele>270.399012</ele>
        <time>2022-03-02T08:45:18.941Z</time>
      </trkpt>
      <trkpt lat="41.93601" lon="25.46049">
        <ele>270.072444</ele>
        <time>2022-03-02T08:45:20.919Z</time>
      </trkpt>
      <trkpt lat="41.93603" lon="25.46035">
        <ele>269.763653</ele>
        <time>2022-03-02T08:45:22.911Z</time>
      </trkpt>
      <trkpt lat="41.93606" lon="25.46021">
        <ele>269.454114</ele>
        <time>2022-03-02T08:45:24.879Z</time>
      </trkpt>
      <trkpt lat="41.93608" lon="25.46009">
        <ele>269.175095</ele>
        <time>2022-03-02T08:45:26.905Z</time>
      </trkpt>
      <trkpt lat="41.93611" lon="25.45997">
        <ele>268.904463</ele>
        <time>2022-03-02T08:45:28.905Z</time>
      </trkpt>
      <trkpt lat="41.93614" lon="25.45981">
        <ele>268.521278</ele>
        <time>2022-03-02T08:45:31.911Z</time>
      </trkpt>
      <trkpt lat="41.93618" lon="25.45965">
        <ele>268.161455</ele>
        <time>2022-03-02T08:45:34.918Z</time>
      </trkpt>
      <trkpt lat="41.93621" lon="25.45951">
        <ele>267.83915</ele>
        <time>2022-03-02T08:45:37.886Z</time>
      </trkpt>
      <trkpt lat="41.93624" lon="25.45937">
        <ele>267.522146</ele>
        <time>2022-03-02T08:45:40.906Z</time>
      </trkpt>
      <trkpt lat="41.93627" lon="25.45922">
        <ele>267.189178</ele>
        <time>2022-03-02T08:45:43.885Z</time>
      </trkpt>
      <trkpt lat="41.93629" lon="25.45907">
        <ele>266.884623</ele>
        <time>2022-03-02T08:45:46.896Z</time>
      </trkpt>
      <trkpt lat="41.93633" lon="25.45892">
        <ele>266.659342</ele>
        <time>2022-03-02T08:45:49.903Z</time>
      </trkpt>
      <trkpt lat="41.93635" lon="25.45876">
        <ele>266.429504</ele>
        <time>2022-03-02T08:45:52.891Z</time>
      </trkpt>
      <trkpt lat="41.93638" lon="25.45861">
        <ele>266.200125</ele>
        <time>2022-03-02T08:45:55.940Z</time>
      </trkpt>
      <trkpt lat="41.93642" lon="25.45844">
        <ele>265.950228</ele>
        <time>2022-03-02T08:45:58.907Z</time>
      </trkpt>
      <trkpt lat="41.93645" lon="25.45832">
        <ele>265.772398</ele>
        <time>2022-03-02T08:46:00.884Z</time>
      </trkpt>
      <trkpt lat="41.93647" lon="25.4582">
        <ele>265.589329</ele>
        <time>2022-03-02T08:46:02.909Z</time>
      </trkpt>
      <trkpt lat="41.93653" lon="25.45808">
        <ele>265.379963</ele>
        <time>2022-03-02T08:46:04.889Z</time>
      </trkpt>
      <trkpt lat="41.93663" lon="25.45798">
        <ele>265.145271</ele>
        <time>2022-03-02T08:46:06.895Z</time>
      </trkpt>
      <trkpt lat="41.93676" lon="25.45792">
        <ele>264.8921</ele>
        <time>2022-03-02T08:46:08.954Z</time>
      </trkpt>
      <trkpt lat="41.93689" lon="25.45786">
        <ele>264.613412</ele>
        <time>2022-03-02T08:46:10.939Z</time>
      </trkpt>
      <trkpt lat="41.93704" lon="25.45778">
        <ele>264.301182</ele>
        <time>2022-03-02T08:46:12.899Z</time>
      </trkpt>
      <trkpt lat="41.9372" lon="25.45768">
        <ele>263.974449</ele>
        <time>2022-03-02T08:46:14.901Z</time>
      </trkpt>
      <trkpt lat="41.93736" lon="25.45759">
        <ele>263.641269</ele>
        <time>2022-03-02T08:46:16.892Z</time>
      </trkpt>
      <trkpt lat="41.93744" lon="25.45754">
        <ele>263.509521</ele>
        <time>2022-03-02T08:46:17.900Z</time>
      </trkpt>
      <trkpt lat="41.93752" lon="25.45749">
        <ele>263.570471</ele>
        <time>2022-03-02T08:46:18.964Z</time>
      </trkpt>
      <trkpt lat="41.93761" lon="25.45744">
        <ele>263.631026</ele>
        <time>2022-03-02T08:46:19.895Z</time>
      </trkpt>
      <trkpt lat="41.93769" lon="25.4574">
        <ele>263.692202</ele>
        <time>2022-03-02T08:46:20.905Z</time>
      </trkpt>
      <trkpt lat="41.93785" lon="25.4573">
        <ele>263.810838</ele>
        <time>2022-03-02T08:46:22.912Z</time>
      </trkpt>
      <trkpt lat="41.93801" lon="25.45721">
        <ele>263.926449</ele>
        <time>2022-03-02T08:46:24.880Z</time>
      </trkpt>
      <trkpt lat="41.93816" lon="25.45713">
        <ele>264.034951</ele>
        <time>2022-03-02T08:46:26.897Z</time>
      </trkpt>
      <trkpt lat="41.93829" lon="25.45707">
        <ele>264.128742</ele>
        <time>2022-03-02T08:46:28.916Z</time>
      </trkpt>
      <trkpt lat="41.93839" lon="25.457">
        <ele>264.205034</ele>
        <time>2022-03-02T08:46:30.882Z</time>
      </trkpt>
      <trkpt lat="41.93849" lon="25.45694">
        <ele>264.27483</ele>
        <time>2022-03-02T08:46:32.886Z</time>
      </trkpt>
      <trkpt lat="41.9386" lon="25.45687">
        <ele>264.357666</ele>
        <time>2022-03-02T08:46:35.921Z</time>
      </trkpt>
      <trkpt lat="41.93871" lon="25.45681">
        <ele>264.43682</ele>
        <time>2022-03-02T08:46:38.898Z</time>
      </trkpt>
      <trkpt lat="41.93881" lon="25.45675">
        <ele>264.509466</ele>
        <time>2022-03-02T08:46:41.897Z</time>
      </trkpt>
      <trkpt lat="41.9389" lon="25.4567">
        <ele>264.575564</ele>
        <time>2022-03-02T08:46:44.888Z</time>
      </trkpt>
      <trkpt lat="41.93901" lon="25.45665">
        <ele>264.654131</ele>
        <time>2022-03-02T08:46:48.918Z</time>
      </trkpt>
      <trkpt lat="41.93911" lon="25.45659">
        <ele>264.781177</ele>
        <time>2022-03-02T08:46:52.930Z</time>
      </trkpt>
      <trkpt lat="41.9392" lon="25.45655">
        <ele>265.020676</ele>
        <time>2022-03-02T08:46:56.888Z</time>
      </trkpt>
      <trkpt lat="41.93931" lon="25.45649">
        <ele>265.313617</ele>
        <time>2022-03-02T08:47:00.879Z</time>
      </trkpt>
      <trkpt lat="41.93941" lon="25.45644">
        <ele>265.578828</ele>
        <time>2022-03-02T08:47:04.880Z</time>
      </trkpt>
      <trkpt lat="41.93949" lon="25.45639">
        <ele>265.817817</ele>
        <time>2022-03-02T08:47:08.913Z</time>
      </trkpt>
      <trkpt lat="41.93958" lon="25.45634">
        <ele>266.04614</ele>
        <time>2022-03-02T08:47:12.914Z</time>
      </trkpt>
      <trkpt lat="41.93967" lon="25.45629">
        <ele>266.296697</ele>
        <time>2022-03-02T08:47:16.915Z</time>
      </trkpt>
      <trkpt lat="41.93976" lon="25.45624">
        <ele>266.550887</ele>
        <time>2022-03-02T08:47:20.903Z</time>
      </trkpt>
      <trkpt lat="41.93985" lon="25.45619">
        <ele>266.785435</ele>
        <time>2022-03-02T08:47:24.881Z</time>
      </trkpt>
      <trkpt lat="41.93995" lon="25.45613">
        <ele>267.070026</ele>
        <time>2022-03-02T08:47:29.935Z</time>
      </trkpt>
      <trkpt lat="41.94005" lon="25.45608">
        <ele>267.323598</ele>
        <time>2022-03-02T08:47:34.906Z</time>
      </trkpt>
      <trkpt lat="41.94015" lon="25.45602">
        <ele>267.602862</ele>
        <time>2022-03-02T08:47:39.914Z</time>
      </trkpt>
      <trkpt lat="41.94025" lon="25.45595">
        <ele>267.881387</ele>
        <time>2022-03-02T08:47:44.890Z</time>
      </trkpt>
      <trkpt lat="41.94034" lon="25.4559">
        <ele>268.131041</ele>
        <time>2022-03-02T08:47:48.940Z</time>
      </trkpt>
      <trkpt lat="41.94043" lon="25.45585">
        <ele>268.368465</ele>
        <time>2022-03-02T08:47:52.906Z</time>
      </trkpt>
      <trkpt lat="41.94053" lon="25.45581">
        <ele>268.638818</ele>
        <time>2022-03-02T08:47:57.893Z</time>
      </trkpt>
      <trkpt lat="41.94064" lon="25.45575">
        <ele>268.920474</ele>
        <time>2022-03-02T08:48:02.896Z</time>
      </trkpt>
      <trkpt lat="41.94074" lon="25.45568">
        <ele>269.199147</ele>
        <time>2022-03-02T08:48:07.906Z</time>
      </trkpt>
      <trkpt lat="41.94083" lon="25.45561">
        <ele>269.483488</ele>
        <time>2022-03-02T08:48:12.900Z</time>
      </trkpt>
      <trkpt lat="41.94092" lon="25.45557">
        <ele>269.722413</ele>
        <time>2022-03-02T08:48:16.915Z</time>
      </trkpt>
      <trkpt lat="41.94102" lon="25.45551">
        <ele>270.013301</ele>
        <time>2022-03-02T08:48:21.909Z</time>
      </trkpt>
      <trkpt lat="41.94112" lon="25.45545">
        <ele>270.295749</ele>
        <time>2022-03-02T08:48:26.946Z</time>
      </trkpt>
      <trkpt lat="41.9412" lon="25.45541">
        <ele>270.530549</ele>
        <time>2022-03-02T08:48:30.878Z</time>
      </trkpt>
      <trkpt lat="41.94131" lon="25.45536">
        <ele>270.815661</ele>
        <time>2022-03-02T08:48:35.900Z</time>
      </trkpt>
      <trkpt lat="41.9414" lon="25.45531">
        <ele>271.08878</ele>
        <time>2022-03-02T08:48:40.908Z</time>
      </trkpt>
      <trkpt lat="41.9415" lon="25.45525">
        <ele>271.369686</ele>
        <time>2022-03-02T08:48:45.888Z</time>
      </trkpt>
      <trkpt lat="41.9416" lon="25.45519">
        <ele>271.648187</ele>
        <time>2022-03-02T08:48:50.885Z</time>
      </trkpt>
      <trkpt lat="41.94168" lon="25.45515">
        <ele>271.888848</ele>
        <time>2022-03-02T08:48:54.901Z</time>
      </trkpt>
      <trkpt lat="41.94178" lon="25.4551">
        <ele>272.156728</ele>
        <time>2022-03-02T08:48:59.935Z</time>
      </trkpt>
      <trkpt lat="41.94188" lon="25.45504">
        <ele>272.445172</ele>
        <time>2022-03-02T08:49:04.925Z</time>
      </trkpt>
      <trkpt lat="41.94198" lon="25.455">
        <ele>272.704343</ele>
        <time>2022-03-02T08:49:08.925Z</time>
      </trkpt>
      <trkpt lat="41.94208" lon="25.45493">
        <ele>272.991647</ele>
        <time>2022-03-02T08:49:12.908Z</time>
      </trkpt>
      <trkpt lat="41.94218" lon="25.45487">
        <ele>273.294761</ele>
        <time>2022-03-02T08:49:16.938Z</time>
      </trkpt>
      <trkpt lat="41.94229" lon="25.45481">
        <ele>273.60824</ele>
        <time>2022-03-02T08:49:20.909Z</time>
      </trkpt>
      <trkpt lat="41.94238" lon="25.45476">
        <ele>273.851038</ele>
        <time>2022-03-02T08:49:23.907Z</time>
      </trkpt>
      <trkpt lat="41.94247" lon="25.4547">
        <ele>273.776378</ele>
        <time>2022-03-02T08:49:26.916Z</time>
      </trkpt>
      <trkpt lat="41.94258" lon="25.45465">
        <ele>273.591086</ele>
        <time>2022-03-02T08:49:29.904Z</time>
      </trkpt>
      <trkpt lat="41.94268" lon="25.45459">
        <ele>273.405061</ele>
        <time>2022-03-02T08:49:32.926Z</time>
      </trkpt>
      <trkpt lat="41.94279" lon="25.45453">
        <ele>273.222478</ele>
        <time>2022-03-02T08:49:35.906Z</time>
      </trkpt>
      <trkpt lat="41.94291" lon="25.45446">
        <ele>273.009155</ele>
        <time>2022-03-02T08:49:38.935Z</time>
      </trkpt>
      <trkpt lat="41.94299" lon="25.45441">
        <ele>272.860332</ele>
        <time>2022-03-02T08:49:40.911Z</time>
      </trkpt>
      <trkpt lat="41.94307" lon="25.45436">
        <ele>272.712417</ele>
        <time>2022-03-02T08:49:42.896Z</time>
      </trkpt>
      <trkpt lat="41.94316" lon="25.45431">
        <ele>272.566077</ele>
        <time>2022-03-02T08:49:44.894Z</time>
      </trkpt>
      <trkpt lat="41.94328" lon="25.45423">
        <ele>272.349235</ele>
        <time>2022-03-02T08:49:47.896Z</time>
      </trkpt>
      <trkpt lat="41.9434" lon="25.45416">
        <ele>272.133935</ele>
        <time>2022-03-02T08:49:50.909Z</time>
      </trkpt>
      <trkpt lat="41.94348" lon="25.45411">
        <ele>271.980573</ele>
        <time>2022-03-02T08:49:52.920Z</time>
      </trkpt>
      <trkpt lat="41.94357" lon="25.45406">
        <ele>271.817363</ele>
        <time>2022-03-02T08:49:54.897Z</time>
      </trkpt>
      <trkpt lat="41.94367" lon="25.454">
        <ele>271.650682</ele>
        <time>2022-03-02T08:49:56.906Z</time>
      </trkpt>
      <trkpt lat="41.94376" lon="25.45394">
        <ele>271.48946</ele>
        <time>2022-03-02T08:49:58.877Z</time>
      </trkpt>
      <trkpt lat="41.94385" lon="25.45389">
        <ele>271.321566</ele>
        <time>2022-03-02T08:50:00.893Z</time>
      </trkpt>
      <trkpt lat="41.94395" lon="25.45385">
        <ele>271.15606</ele>
        <time>2022-03-02T08:50:02.907Z</time>
      </trkpt>
      <trkpt lat="41.94404" lon="25.45379">
        <ele>270.987275</ele>
        <time>2022-03-02T08:50:04.918Z</time>
      </trkpt>
      <trkpt lat="41.94413" lon="25.45375">
        <ele>271.083339</ele>
        <time>2022-03-02T08:50:06.886Z</time>
      </trkpt>
      <trkpt lat="41.94425" lon="25.45368">
        <ele>271.240456</ele>
        <time>2022-03-02T08:50:09.904Z</time>
      </trkpt>
      <trkpt lat="41.94435" lon="25.45362">
        <ele>271.367906</ele>
        <time>2022-03-02T08:50:12.900Z</time>
      </trkpt>
      <trkpt lat="41.94445" lon="25.45357">
        <ele>271.50509</ele>
        <time>2022-03-02T08:50:15.932Z</time>
      </trkpt>
      <trkpt lat="41.94456" lon="25.4535">
        <ele>271.648792</ele>
        <time>2022-03-02T08:50:18.894Z</time>
      </trkpt>
      <trkpt lat="41.94466" lon="25.45345">
        <ele>271.775281</ele>
        <time>2022-03-02T08:50:21.941Z</time>
      </trkpt>
      <trkpt lat="41.94475" lon="25.45341">
        <ele>271.89646</ele>
        <time>2022-03-02T08:50:24.902Z</time>
      </trkpt>
      <trkpt lat="41.94485" lon="25.45334">
        <ele>272.025801</ele>
        <time>2022-03-02T08:50:27.915Z</time>
      </trkpt>
      <trkpt lat="41.94494" lon="25.4533">
        <ele>272.146386</ele>
        <time>2022-03-02T08:50:30.883Z</time>
      </trkpt>
      <trkpt lat="41.94503" lon="25.45326">
        <ele>272.25879</ele>
        <time>2022-03-02T08:50:33.901Z</time>
      </trkpt>
      <trkpt lat="41.94512" lon="25.4532">
        <ele>272.38698</ele>
        <time>2022-03-02T08:50:37.900Z</time>
      </trkpt>
      <trkpt lat="41.94521" lon="25.45314">
        <ele>272.507418</ele>
        <time>2022-03-02T08:50:41.922Z</time>
      </trkpt>
      <trkpt lat="41.9453" lon="25.45309">
        <ele>272.621937</ele>
        <time>2022-03-02T08:50:45.898Z</time>
      </trkpt>
      <trkpt lat="41.9454" lon="25.45304">
        <ele>272.75752</ele>
        <time>2022-03-02T08:50:50.930Z</time>
      </trkpt>
      <trkpt lat="41.94551" lon="25.45299">
        <ele>272.892274</ele>
        <time>2022-03-02T08:50:55.915Z</time>
      </trkpt>
      <trkpt lat="41.94561" lon="25.45292">
        <ele>273.02601</ele>
        <time>2022-03-02T08:51:00.889Z</time>
      </trkpt>
      <trkpt lat="41.94569" lon="25.45287">
        <ele>273.135733</ele>
        <time>2022-03-02T08:51:04.908Z</time>
      </trkpt>
      <trkpt lat="41.94579" lon="25.45281">
        <ele>273.476645</ele>
        <time>2022-03-02T08:51:09.889Z</time>
      </trkpt>
      <trkpt lat="41.94589" lon="25.45275">
        <ele>273.884831</ele>
        <time>2022-03-02T08:51:14.934Z</time>
      </trkpt>
      <trkpt lat="41.94598" lon="25.45269">
        <ele>274.267284</ele>
        <time>2022-03-02T08:51:19.915Z</time>
      </trkpt>
      <trkpt lat="41.94608" lon="25.45263">
        <ele>274.662217</ele>
        <time>2022-03-02T08:51:24.906Z</time>
      </trkpt>
      <trkpt lat="41.94618" lon="25.45258">
        <ele>275.058144</ele>
        <time>2022-03-02T08:51:29.905Z</time>
      </trkpt>
      <trkpt lat="41.94628" lon="25.45252">
        <ele>275.455527</ele>
        <time>2022-03-02T08:51:34.874Z</time>
      </trkpt>
      <trkpt lat="41.94638" lon="25.45247">
        <ele>275.821932</ele>
        <time>2022-03-02T08:51:40.899Z</time>
      </trkpt>
      <trkpt lat="41.94647" lon="25.45243">
        <ele>276.173879</ele>
        <time>2022-03-02T08:51:45.904Z</time>
      </trkpt>
      <trkpt lat="41.94656" lon="25.45237">
        <ele>276.534129</ele>
        <time>2022-03-02T08:51:50.886Z</time>
      </trkpt>
      <trkpt lat="41.94665" lon="25.45232">
        <ele>276.915508</ele>
        <time>2022-03-02T08:51:55.925Z</time>
      </trkpt>
      <trkpt lat="41.94674" lon="25.45227">
        <ele>277.254645</ele>
        <time>2022-03-02T08:52:00.892Z</time>
      </trkpt>
      <trkpt lat="41.94682" lon="25.45221">
        <ele>277.602665</ele>
        <time>2022-03-02T08:52:05.896Z</time>
      </trkpt>
      <trkpt lat="41.94691" lon="25.45216">
        <ele>277.949589</ele>
        <time>2022-03-02T08:52:10.899Z</time>
      </trkpt>
      <trkpt lat="41.94701" lon="25.45211">
        <ele>278.331299</ele>
        <time>2022-03-02T08:52:15.907Z</time>
      </trkpt>
      <trkpt lat="41.9471" lon="25.45206">
        <ele>278.687631</ele>
        <time>2022-03-02T08:52:20.900Z</time>
      </trkpt>
      <trkpt lat="41.94719" lon="25.45201">
        <ele>279.044545</ele>
        <time>2022-03-02T08:52:25.973Z</time>
      </trkpt>
      <trkpt lat="41.94728" lon="25.45197">
        <ele>279.403153</ele>
        <time>2022-03-02T08:52:30.881Z</time>
      </trkpt>
      <trkpt lat="41.94737" lon="25.45192">
        <ele>279.745593</ele>
        <time>2022-03-02T08:52:35.924Z</time>
      </trkpt>
      <trkpt lat="41.94745" lon="25.45187">
        <ele>280.030886</ele>
        <time>2022-03-02T08:52:40.902Z</time>
      </trkpt>
      <trkpt lat="41.94754" lon="25.45181">
        <ele>280.361605</ele>
        <time>2022-03-02T08:52:46.899Z</time>
      </trkpt>
      <trkpt lat="41.94763" lon="25.45176">
        <ele>280.650778</ele>
        <time>2022-03-02T08:52:51.911Z</time>
      </trkpt>
      <trkpt lat="41.94771" lon="25.45171">
        <ele>280.958115</ele>
        <time>2022-03-02T08:52:56.934Z</time>
      </trkpt>
      <trkpt lat="41.9478" lon="25.45166">
        <ele>281.25124</ele>
        <time>2022-03-02T08:53:01.909Z</time>
      </trkpt>
      <trkpt lat="41.9479" lon="25.4516">
        <ele>281.589404</ele>
        <time>2022-03-02T08:53:07.910Z</time>
      </trkpt>
      <trkpt lat="41.948" lon="25.45155">
        <ele>281.934053</ele>
        <time>2022-03-02T08:53:13.915Z</time>
      </trkpt>
      <trkpt lat="41.9481" lon="25.45149">
        <ele>282.270263</ele>
        <time>2022-03-02T08:53:19.900Z</time>
      </trkpt>
      <trkpt lat="41.94819" lon="25.45144">
        <ele>282.588201</ele>
        <time>2022-03-02T08:53:26.896Z</time>
      </trkpt>
      <trkpt lat="41.94829" lon="25.45138">
        <ele>282.927306</ele>
        <time>2022-03-02T08:53:32.908Z</time>
      </trkpt>
      <trkpt lat="41.94838" lon="25.45132">
        <ele>283.270316</ele>
        <time>2022-03-02T08:53:37.901Z</time>
      </trkpt>
      <trkpt lat="41.94848" lon="25.45126">
        <ele>283.604606</ele>
        <time>2022-03-02T08:53:42.915Z</time>
      </trkpt>
      <trkpt lat="41.94857" lon="25.4512">
        <ele>283.914987</ele>
        <time>2022-03-02T08:53:47.943Z</time>
      </trkpt>
      <trkpt lat="41.94865" lon="25.45115">
        <ele>284.201318</ele>
        <time>2022-03-02T08:53:51.885Z</time>
      </trkpt>
      <trkpt lat="41.94875" lon="25.45108">
        <ele>284.55493</ele>
        <time>2022-03-02T08:53:56.904Z</time>
      </trkpt>
      <trkpt lat="41.94883" lon="25.45102">
        <ele>284.850096</ele>
        <time>2022-03-02T08:54:00.911Z</time>
      </trkpt>
      <trkpt lat="41.94894" lon="25.45095">
        <ele>285.219417</ele>
        <time>2022-03-02T08:54:04.898Z</time>
      </trkpt>
      <trkpt lat="41.94902" lon="25.4509">
        <ele>285.37449</ele>
        <time>2022-03-02T08:54:07.912Z</time>
      </trkpt>
      <trkpt lat="41.9491" lon="25.45084">
        <ele>285.118454</ele>
        <time>2022-03-02T08:54:10.914Z</time>
      </trkpt>
      <trkpt lat="41.9492" lon="25.45077">
        <ele>284.835832</ele>
        <time>2022-03-02T08:54:13.904Z</time>
      </trkpt>
      <trkpt lat="41.9493" lon="25.4507">
        <ele>284.536182</ele>
        <time>2022-03-02T08:54:16.908Z</time>
      </trkpt>
      <trkpt lat="41.94942" lon="25.45062">
        <ele>284.19034</ele>
        <time>2022-03-02T08:54:19.890Z</time>
      </trkpt>
      <trkpt lat="41.94954" lon="25.45054">
        <ele>283.829607</ele>
        <time>2022-03-02T08:54:22.880Z</time>
      </trkpt>
      <trkpt lat="41.94963" lon="25.45048">
        <ele>283.573315</ele>
        <time>2022-03-02T08:54:24.876Z</time>
      </trkpt>
      <trkpt lat="41.94971" lon="25.45042">
        <ele>283.323464</ele>
        <time>2022-03-02T08:54:26.938Z</time>
      </trkpt>
      <trkpt lat="41.9498" lon="25.45036">
        <ele>283.065713</ele>
        <time>2022-03-02T08:54:28.888Z</time>
      </trkpt>
      <trkpt lat="41.9499" lon="25.4503">
        <ele>282.785831</ele>
        <time>2022-03-02T08:54:30.904Z</time>
      </trkpt>
      <trkpt lat="41.95" lon="25.45024">
        <ele>282.504092</ele>
        <time>2022-03-02T08:54:32.891Z</time>
      </trkpt>
      <trkpt lat="41.95009" lon="25.45017">
        <ele>282.223373</ele>
        <time>2022-03-02T08:54:34.905Z</time>
      </trkpt>
      <trkpt lat="41.95019" lon="25.45009">
        <ele>281.919575</ele>
        <time>2022-03-02T08:54:36.915Z</time>
      </trkpt>
      <trkpt lat="41.9503" lon="25.45002">
        <ele>281.60446</ele>
        <time>2022-03-02T08:54:38.910Z</time>
      </trkpt>
      <trkpt lat="41.95041" lon="25.44995">
        <ele>281.284944</ele>
        <time>2022-03-02T08:54:40.924Z</time>
      </trkpt>
      <trkpt lat="41.95052" lon="25.44987">
        <ele>280.939999</ele>
        <time>2022-03-02T08:54:42.911Z</time>
      </trkpt>
      <trkpt lat="41.95064" lon="25.44978">
        <ele>280.607355</ele>
        <time>2022-03-02T08:54:44.890Z</time>
      </trkpt>
      <trkpt lat="41.95075" lon="25.44971">
        <ele>280.315633</ele>
        <time>2022-03-02T08:54:46.916Z</time>
      </trkpt>
      <trkpt lat="41.95087" lon="25.44963">
        <ele>280.014238</ele>
        <time>2022-03-02T08:54:48.907Z</time>
      </trkpt>
      <trkpt lat="41.95098" lon="25.44954">
        <ele>279.699171</ele>
        <time>2022-03-02T08:54:50.902Z</time>
      </trkpt>
      <trkpt lat="41.95111" lon="25.44946">
        <ele>279.381035</ele>
        <time>2022-03-02T08:54:52.921Z</time>
      </trkpt>
      <trkpt lat="41.95122" lon="25.44938">
        <ele>279.07208</ele>
        <time>2022-03-02T08:54:54.909Z</time>
      </trkpt>
      <trkpt lat="41.95134" lon="25.44931">
        <ele>278.780917</ele>
        <time>2022-03-02T08:54:56.900Z</time>
      </trkpt>
      <trkpt lat="41.95144" lon="25.44924">
        <ele>278.504664</ele>
        <time>2022-03-02T08:54:58.899Z</time>
      </trkpt>
      <trkpt lat="41.95154" lon="25.44917">
        <ele>278.255618</ele>
        <time>2022-03-02T08:55:00.902Z</time>
      </trkpt>
      <trkpt lat="41.95162" lon="25.44912">
        <ele>278.026766</ele>
        <time>2022-03-02T08:55:02.879Z</time>
      </trkpt>
      <trkpt lat="41.95174" lon="25.44904">
        <ele>277.724562</ele>
        <time>2022-03-02T08:55:05.903Z</time>
      </trkpt>
      <trkpt lat="41.95184" lon="25.44897">
        <ele>277.466539</ele>
        <time>2022-03-02T08:55:08.881Z</time>
      </trkpt>
      <trkpt lat="41.95193" lon="25.4489">
        <ele>277.227435</ele>
        <time>2022-03-02T08:55:11.886Z</time>
      </trkpt>
      <trkpt lat="41.95202" lon="25.44883">
        <ele>276.969795</ele>
        <time>2022-03-02T08:55:15.899Z</time>
      </trkpt>
      <trkpt lat="41.95211" lon="25.44877">
        <ele>276.743147</ele>
        <time>2022-03-02T08:55:19.898Z</time>
      </trkpt>
      <trkpt lat="41.9522" lon="25.44872">
        <ele>276.515569</ele>
        <time>2022-03-02T08:55:23.901Z</time>
      </trkpt>
      <trkpt lat="41.95228" lon="25.44867">
        <ele>276.805659</ele>
        <time>2022-03-02T08:55:27.924Z</time>
      </trkpt>
      <trkpt lat="41.95237" lon="25.4486">
        <ele>277.146361</ele>
        <time>2022-03-02T08:55:32.934Z</time>
      </trkpt>
      <trkpt lat="41.95246" lon="25.44853">
        <ele>277.492705</ele>
        <time>2022-03-02T08:55:37.893Z</time>
      </trkpt>
      <trkpt lat="41.95256" lon="25.44845">
        <ele>277.861181</ele>
        <time>2022-03-02T08:55:42.933Z</time>
      </trkpt>
      <trkpt lat="41.95264" lon="25.4484">
        <ele>278.180699</ele>
        <time>2022-03-02T08:55:46.897Z</time>
      </trkpt>
      <trkpt lat="41.95274" lon="25.44833">
        <ele>278.558984</ele>
        <time>2022-03-02T08:55:51.890Z</time>
      </trkpt>
      <trkpt lat="41.95282" lon="25.44827">
        <ele>278.869759</ele>
        <time>2022-03-02T08:55:55.932Z</time>
      </trkpt>
      <trkpt lat="41.95291" lon="25.44821">
        <ele>279.193086</ele>
        <time>2022-03-02T08:55:59.907Z</time>
      </trkpt>
      <trkpt lat="41.95301" lon="25.44815">
        <ele>279.567293</ele>
        <time>2022-03-02T08:56:04.916Z</time>
      </trkpt>
      <trkpt lat="41.95311" lon="25.4481">
        <ele>279.923573</ele>
        <time>2022-03-02T08:56:09.887Z</time>
      </trkpt>
      <trkpt lat="41.9532" lon="25.44804">
        <ele>280.253195</ele>
        <time>2022-03-02T08:56:14.905Z</time>
      </trkpt>
      <trkpt lat="41.95329" lon="25.44797">
        <ele>280.607127</ele>
        <time>2022-03-02T08:56:19.937Z</time>
      </trkpt>
      <trkpt lat="41.95338" lon="25.44791">
        <ele>280.954348</ele>
        <time>2022-03-02T08:56:24.905Z</time>
      </trkpt>
      <trkpt lat="41.95347" lon="25.44784">
        <ele>281.293851</ele>
        <time>2022-03-02T08:56:29.887Z</time>
      </trkpt>
      <trkpt lat="41.95356" lon="25.44778">
        <ele>281.64071</ele>
        <time>2022-03-02T08:56:34.905Z</time>
      </trkpt>
      <trkpt lat="41.95366" lon="25.44772">
        <ele>281.981555</ele>
        <time>2022-03-02T08:56:38.890Z</time>
      </trkpt>
      <trkpt lat="41.95375" lon="25.44765">
        <ele>282.348822</ele>
        <time>2022-03-02T08:56:42.889Z</time>
      </trkpt>
      <trkpt lat="41.95384" lon="25.44759">
        <ele>282.31198</ele>
        <time>2022-03-02T08:56:45.897Z</time>
      </trkpt>
      <trkpt lat="41.95394" lon="25.44752">
        <ele>281.688166</ele>
        <time>2022-03-02T08:56:48.899Z</time>
      </trkpt>
      <trkpt lat="41.95406" lon="25.44744">
        <ele>280.953903</ele>
        <time>2022-03-02T08:56:51.894Z</time>
      </trkpt>
      <trkpt lat="41.95415" lon="25.44738">
        <ele>280.423513</ele>
        <time>2022-03-02T08:56:53.908Z</time>
      </trkpt>
      <trkpt lat="41.95425" lon="25.44732">
        <ele>279.852462</ele>
        <time>2022-03-02T08:56:55.905Z</time>
      </trkpt>
      <trkpt lat="41.95435" lon="25.44725">
        <ele>279.24393</ele>
        <time>2022-03-02T08:56:57.902Z</time>
      </trkpt>
      <trkpt lat="41.95447" lon="25.44718">
        <ele>278.572961</ele>
        <time>2022-03-02T08:56:59.898Z</time>
      </trkpt>
      <trkpt lat="41.95459" lon="25.44709">
        <ele>277.810652</ele>
        <time>2022-03-02T08:57:01.894Z</time>
      </trkpt>
      <trkpt lat="41.95473" lon="25.447">
        <ele>277.019617</ele>
        <time>2022-03-02T08:57:03.920Z</time>
      </trkpt>
      <trkpt lat="41.95487" lon="25.44691">
        <ele>276.168305</ele>
        <time>2022-03-02T08:57:05.917Z</time>
      </trkpt>
      <trkpt lat="41.95501" lon="25.44682">
        <ele>275.336161</ele>
        <time>2022-03-02T08:57:07.895Z</time>
      </trkpt>
      <trkpt lat="41.95515" lon="25.44672">
        <ele>274.472117</ele>
        <time>2022-03-02T08:57:09.896Z</time>
      </trkpt>
      <trkpt lat="41.9553" lon="25.44663">
        <ele>273.599821</ele>
        <time>2022-03-02T08:57:11.884Z</time>
      </trkpt>
      <trkpt lat="41.95545" lon="25.44653">
        <ele>272.637655</ele>
        <time>2022-03-02T08:57:13.885Z</time>
      </trkpt>
      <trkpt lat="41.95559" lon="25.44644">
        <ele>271.297023</ele>
        <time>2022-03-02T08:57:15.903Z</time>
      </trkpt>
      <trkpt lat="41.95572" lon="25.44634">
        <ele>269.981853</ele>
        <time>2022-03-02T08:57:17.908Z</time>
      </trkpt>
      <trkpt lat="41.95587" lon="25.44625">
        <ele>268.639336</ele>
        <time>2022-03-02T08:57:19.949Z</time>
      </trkpt>
      <trkpt lat="41.95601" lon="25.44616">
        <ele>267.331214</ele>
        <time>2022-03-02T08:57:21.902Z</time>
      </trkpt>
      <trkpt lat="41.95614" lon="25.44607">
        <ele>266.079287</ele>
        <time>2022-03-02T08:57:23.913Z</time>
      </trkpt>
      <trkpt lat="41.95628" lon="25.44598">
        <ele>264.755811</ele>
        <time>2022-03-02T08:57:25.900Z</time>
      </trkpt>
      <trkpt lat="41.95643" lon="25.44591">
        <ele>263.435799</ele>
        <time>2022-03-02T08:57:27.902Z</time>
      </trkpt>
      <trkpt lat="41.95657" lon="25.44587">
        <ele>262.189873</ele>
        <time>2022-03-02T08:57:29.893Z</time>
      </trkpt>
      <trkpt lat="41.95672" lon="25.44585">
        <ele>260.945589</ele>
        <time>2022-03-02T08:57:31.910Z</time>
      </trkpt>
      <trkpt lat="41.95686" lon="25.44584">
        <ele>259.715899</ele>
        <time>2022-03-02T08:57:33.893Z</time>
      </trkpt>
      <trkpt lat="41.95701" lon="25.44584">
        <ele>258.471587</ele>
        <time>2022-03-02T08:57:35.893Z</time>
      </trkpt>
      <trkpt lat="41.95714" lon="25.44585">
        <ele>257.371784</ele>
        <time>2022-03-02T08:57:37.912Z</time>
      </trkpt>
      <trkpt lat="41.95727" lon="25.44587">
        <ele>256.275956</ele>
        <time>2022-03-02T08:57:39.915Z</time>
      </trkpt>
      <trkpt lat="41.95741" lon="25.44592">
        <ele>255.088163</ele>
        <time>2022-03-02T08:57:41.912Z</time>
      </trkpt>
      <trkpt lat="41.95755" lon="25.446">
        <ele>253.790858</ele>
        <time>2022-03-02T08:57:43.906Z</time>
      </trkpt>
      <trkpt lat="41.9577" lon="25.44609">
        <ele>252.367151</ele>
        <time>2022-03-02T08:57:45.888Z</time>
      </trkpt>
      <trkpt lat="41.95779" lon="25.44615">
        <ele>251.597338</ele>
        <time>2022-03-02T08:57:46.894Z</time>
      </trkpt>
      <trkpt lat="41.95787" lon="25.44621">
        <ele>250.784323</ele>
        <time>2022-03-02T08:57:47.888Z</time>
      </trkpt>
      <trkpt lat="41.95796" lon="25.44627">
        <ele>249.928046</ele>
        <time>2022-03-02T08:57:48.904Z</time>
      </trkpt>
      <trkpt lat="41.95806" lon="25.44632">
        <ele>249.066825</ele>
        <time>2022-03-02T08:57:49.901Z</time>
      </trkpt>
      <trkpt lat="41.95815" lon="25.44638">
        <ele>248.210548</ele>
        <time>2022-03-02T08:57:50.891Z</time>
      </trkpt>
      <trkpt lat="41.95824" lon="25.44644">
        <ele>247.363856</ele>
        <time>2022-03-02T08:57:51.887Z</time>
      </trkpt>
      <trkpt lat="41.95833" lon="25.44651">
        <ele>246.544098</ele>
        <time>2022-03-02T08:57:52.918Z</time>
      </trkpt>
      <trkpt lat="41.95841" lon="25.44657">
        <ele>245.743412</ele>
        <time>2022-03-02T08:57:53.939Z</time>
      </trkpt>
      <trkpt lat="41.95849" lon="25.44663">
        <ele>244.960424</ele>
        <time>2022-03-02T08:57:54.905Z</time>
      </trkpt>
      <trkpt lat="41.95857" lon="25.44669">
        <ele>244.202398</ele>
        <time>2022-03-02T08:57:55.902Z</time>
      </trkpt>
      <trkpt lat="41.95872" lon="25.44682">
        <ele>242.706178</ele>
        <time>2022-03-02T08:57:57.901Z</time>
      </trkpt>
      <trkpt lat="41.95879" lon="25.44689">
        <ele>242.017992</ele>
        <time>2022-03-02T08:57:58.904Z</time>
      </trkpt>
      <trkpt lat="41.95886" lon="25.44697">
        <ele>241.35204</ele>
        <time>2022-03-02T08:57:59.947Z</time>
      </trkpt>
      <trkpt lat="41.959" lon="25.44712">
        <ele>240.032428</ele>
        <time>2022-03-02T08:58:01.909Z</time>
      </trkpt>
      <trkpt lat="41.95914" lon="25.44727">
        <ele>238.718961</ele>
        <time>2022-03-02T08:58:03.893Z</time>
      </trkpt>
      <trkpt lat="41.95927" lon="25.44742">
        <ele>237.395052</ele>
        <time>2022-03-02T08:58:05.885Z</time>
      </trkpt>
      <trkpt lat="41.95941" lon="25.44757">
        <ele>236.10546</ele>
        <time>2022-03-02T08:58:07.918Z</time>
      </trkpt>
      <trkpt lat="41.95954" lon="25.4477">
        <ele>234.887127</ele>
        <time>2022-03-02T08:58:09.892Z</time>
      </trkpt>
      <trkpt lat="41.95968" lon="25.44784">
        <ele>233.603393</ele>
        <time>2022-03-02T08:58:11.890Z</time>
      </trkpt>
      <trkpt lat="41.95975" lon="25.44792">
        <ele>232.92695</ele>
        <time>2022-03-02T08:58:12.914Z</time>
      </trkpt>
      <trkpt lat="41.95982" lon="25.448">
        <ele>232.24482</ele>
        <time>2022-03-02T08:58:13.933Z</time>
      </trkpt>
      <trkpt lat="41.95994" lon="25.44815">
        <ele>231.028603</ele>
        <time>2022-03-02T08:58:15.910Z</time>
      </trkpt>
      <trkpt lat="41.96006" lon="25.44828">
        <ele>229.890244</ele>
        <time>2022-03-02T08:58:17.915Z</time>
      </trkpt>
      <trkpt lat="41.96019" lon="25.44843">
        <ele>228.627425</ele>
        <time>2022-03-02T08:58:19.903Z</time>
      </trkpt>
      <trkpt lat="41.96032" lon="25.44859">
        <ele>227.319151</ele>
        <time>2022-03-02T08:58:21.930Z</time>
      </trkpt>
      <trkpt lat="41.96043" lon="25.44875">
        <ele>226.060153</ele>
        <time>2022-03-02T08:58:23.894Z</time>
      </trkpt>
      <trkpt lat="41.96054" lon="25.44891">
        <ele>224.801974</ele>
        <time>2022-03-02T08:58:25.892Z</time>
      </trkpt>
      <trkpt lat="41.96067" lon="25.44906">
        <ele>223.539365</ele>
        <time>2022-03-02T08:58:27.890Z</time>
      </trkpt>
      <trkpt lat="41.9608" lon="25.44917">
        <ele>222.329721</ele>
        <time>2022-03-02T08:58:29.924Z</time>
      </trkpt>
      <trkpt lat="41.96095" lon="25.44923">
        <ele>221.135656</ele>
        <time>2022-03-02T08:58:31.882Z</time>
      </trkpt>
      <trkpt lat="41.96113" lon="25.44923">
        <ele>219.835126</ele>
        <time>2022-03-02T08:58:33.907Z</time>
      </trkpt>
      <trkpt lat="41.9613" lon="25.4492">
        <ele>218.492245</ele>
        <time>2022-03-02T08:58:35.903Z</time>
      </trkpt>
      <trkpt lat="41.96145" lon="25.44913">
        <ele>217.25067</ele>
        <time>2022-03-02T08:58:37.890Z</time>
      </trkpt>
      <trkpt lat="41.96158" lon="25.44902">
        <ele>216.126552</ele>
        <time>2022-03-02T08:58:39.899Z</time>
      </trkpt>
      <trkpt lat="41.96169" lon="25.44892">
        <ele>215.216625</ele>
        <time>2022-03-02T08:58:41.918Z</time>
      </trkpt>
      <trkpt lat="41.96181" lon="25.44881">
        <ele>214.431689</ele>
        <time>2022-03-02T08:58:43.889Z</time>
      </trkpt>
      <trkpt lat="41.96192" lon="25.44871">
        <ele>213.683734</ele>
        <time>2022-03-02T08:58:45.883Z</time>
      </trkpt>
      <trkpt lat="41.96203" lon="25.4486">
        <ele>212.912547</ele>
        <time>2022-03-02T08:58:47.906Z</time>
      </trkpt>
      <trkpt lat="41.96215" lon="25.44849">
        <ele>212.125258</ele>
        <time>2022-03-02T08:58:49.934Z</time>
      </trkpt>
      <trkpt lat="41.96226" lon="25.44839">
        <ele>211.361186</ele>
        <time>2022-03-02T08:58:51.974Z</time>
      </trkpt>
      <trkpt lat="41.96237" lon="25.44829">
        <ele>210.606282</ele>
        <time>2022-03-02T08:58:53.895Z</time>
      </trkpt>
      <trkpt lat="41.96249" lon="25.44818">
        <ele>209.837477</ele>
        <time>2022-03-02T08:58:55.885Z</time>
      </trkpt>
      <trkpt lat="41.9626" lon="25.44807">
        <ele>209.047937</ele>
        <time>2022-03-02T08:58:57.898Z</time>
      </trkpt>
      <trkpt lat="41.96271" lon="25.44798">
        <ele>208.327276</ele>
        <time>2022-03-02T08:58:59.903Z</time>
      </trkpt>
      <trkpt lat="41.96282" lon="25.44791">
        <ele>207.665101</ele>
        <time>2022-03-02T08:59:01.905Z</time>
      </trkpt>
      <trkpt lat="41.96292" lon="25.44786">
        <ele>207.036839</ele>
        <time>2022-03-02T08:59:03.893Z</time>
      </trkpt>
      <trkpt lat="41.96303" lon="25.44782">
        <ele>206.404109</ele>
        <time>2022-03-02T08:59:05.888Z</time>
      </trkpt>
      <trkpt lat="41.96316" lon="25.4478">
        <ele>205.711701</ele>
        <time>2022-03-02T08:59:07.991Z</time>
      </trkpt>
      <trkpt lat="41.96328" lon="25.44779">
        <ele>205.403091</ele>
        <time>2022-03-02T08:59:09.903Z</time>
      </trkpt>
      <trkpt lat="41.96341" lon="25.4478">
        <ele>205.214737</ele>
        <time>2022-03-02T08:59:11.892Z</time>
      </trkpt>
      <trkpt lat="41.96351" lon="25.44781">
        <ele>205.059646</ele>
        <time>2022-03-02T08:59:13.902Z</time>
      </trkpt>
      <trkpt lat="41.96361" lon="25.44783">
        <ele>204.899047</ele>
        <time>2022-03-02T08:59:15.955Z</time>
      </trkpt>
      <trkpt lat="41.96371" lon="25.44785">
        <ele>204.7483</ele>
        <time>2022-03-02T08:59:17.940Z</time>
      </trkpt>
      <trkpt lat="41.96381" lon="25.44787">
        <ele>204.600908</ele>
        <time>2022-03-02T08:59:19.896Z</time>
      </trkpt>
      <trkpt lat="41.9639" lon="25.44788">
        <ele>204.458654</ele>
        <time>2022-03-02T08:59:21.902Z</time>
      </trkpt>
      <trkpt lat="41.964" lon="25.4479">
        <ele>204.31426</ele>
        <time>2022-03-02T08:59:23.893Z</time>
      </trkpt>
      <trkpt lat="41.96411" lon="25.44792">
        <ele>204.143373</ele>
        <time>2022-03-02T08:59:26.949Z</time>
      </trkpt>
      <trkpt lat="41.96423" lon="25.44795">
        <ele>203.948822</ele>
        <time>2022-03-02T08:59:29.922Z</time>
      </trkpt>
      <trkpt lat="41.96435" lon="25.44798">
        <ele>203.763082</ele>
        <time>2022-03-02T08:59:32.898Z</time>
      </trkpt>
      <trkpt lat="41.96447" lon="25.448">
        <ele>203.582487</ele>
        <time>2022-03-02T08:59:35.894Z</time>
      </trkpt>
      <trkpt lat="41.96457" lon="25.44802">
        <ele>203.426464</ele>
        <time>2022-03-02T08:59:38.891Z</time>
      </trkpt>
      <trkpt lat="41.96467" lon="25.44803">
        <ele>203.273156</ele>
        <time>2022-03-02T08:59:41.883Z</time>
      </trkpt>
      <trkpt lat="41.96477" lon="25.44804">
        <ele>203.128485</ele>
        <time>2022-03-02T08:59:44.892Z</time>
      </trkpt>
      <trkpt lat="41.96488" lon="25.44807">
        <ele>202.95075</ele>
        <time>2022-03-02T08:59:48.896Z</time>
      </trkpt>
      <trkpt lat="41.96498" lon="25.44808">
        <ele>202.790962</ele>
        <time>2022-03-02T08:59:52.890Z</time>
      </trkpt>
      <trkpt lat="41.96509" lon="25.44809">
        <ele>202.530254</ele>
        <time>2022-03-02T08:59:56.959Z</time>
      </trkpt>
      <trkpt lat="41.9652" lon="25.44811">
        <ele>202.283216</ele>
        <time>2022-03-02T08:59:59.901Z</time>
      </trkpt>
      <trkpt lat="41.96533" lon="25.44814">
        <ele>201.986637</ele>
        <time>2022-03-02T09:00:02.905Z</time>
      </trkpt>
      <trkpt lat="41.96541" lon="25.44817">
        <ele>201.777044</ele>
        <time>2022-03-02T09:00:04.903Z</time>
      </trkpt>
      <trkpt lat="41.96555" lon="25.44816">
        <ele>201.47108</ele>
        <time>2022-03-02T09:00:07.902Z</time>
      </trkpt>
      <trkpt lat="41.96564" lon="25.44812">
        <ele>201.246948</ele>
        <time>2022-03-02T09:00:09.936Z</time>
      </trkpt>
      <trkpt lat="41.96572" lon="25.44804">
        <ele>201.005562</ele>
        <time>2022-03-02T09:00:11.954Z</time>
      </trkpt>
      <trkpt lat="41.96579" lon="25.44794">
        <ele>200.76947</ele>
        <time>2022-03-02T09:00:13.901Z</time>
      </trkpt>
      <trkpt lat="41.96586" lon="25.44784">
        <ele>200.5308</ele>
        <time>2022-03-02T09:00:15.935Z</time>
      </trkpt>
      <trkpt lat="41.96591" lon="25.44773">
        <ele>200.306628</ele>
        <time>2022-03-02T09:00:17.911Z</time>
      </trkpt>
      <trkpt lat="41.96598" lon="25.44758">
        <ele>200.013883</ele>
        <time>2022-03-02T09:00:20.900Z</time>
      </trkpt>
      <trkpt lat="41.96603" lon="25.44745">
        <ele>199.763745</ele>
        <time>2022-03-02T09:00:23.895Z</time>
      </trkpt>
      <trkpt lat="41.96608" lon="25.44734">
        <ele>199.538878</ele>
        <time>2022-03-02T09:00:26.907Z</time>
      </trkpt>
      <trkpt lat="41.96613" lon="25.44722">
        <ele>199.307741</ele>
        <time>2022-03-02T09:00:30.897Z</time>
      </trkpt>
      <trkpt lat="41.96618" lon="25.4471">
        <ele>199.064219</ele>
        <time>2022-03-02T09:00:34.897Z</time>
      </trkpt>
      <trkpt lat="41.96623" lon="25.44698">
        <ele>198.814448</ele>
        <time>2022-03-02T09:00:38.887Z</time>
      </trkpt>
      <trkpt lat="41.9663" lon="25.44685">
        <ele>198.765277</ele>
        <time>2022-03-02T09:00:42.899Z</time>
      </trkpt>
      <trkpt lat="41.96636" lon="25.44671">
        <ele>199.039064</ele>
        <time>2022-03-02T09:00:46.890Z</time>
      </trkpt>
      <trkpt lat="41.96641" lon="25.44659">
        <ele>199.278374</ele>
        <time>2022-03-02T09:00:49.998Z</time>
      </trkpt>
      <trkpt lat="41.96646" lon="25.44648">
        <ele>199.501749</ele>
        <time>2022-03-02T09:00:52.897Z</time>
      </trkpt>
      <trkpt lat="41.96651" lon="25.44637">
        <ele>199.722125</ele>
        <time>2022-03-02T09:00:55.911Z</time>
      </trkpt>
      <trkpt lat="41.96656" lon="25.44625">
        <ele>199.958199</ele>
        <time>2022-03-02T09:00:59.926Z</time>
      </trkpt>
      <trkpt lat="41.96662" lon="25.44613">
        <ele>200.210832</ele>
        <time>2022-03-02T09:01:03.901Z</time>
      </trkpt>
      <trkpt lat="41.96669" lon="25.44601">
        <ele>200.464633</ele>
        <time>2022-03-02T09:01:07.896Z</time>
      </trkpt>
      <trkpt lat="41.96674" lon="25.44591">
        <ele>200.67681</ele>
        <time>2022-03-02T09:01:11.885Z</time>
      </trkpt>
      <trkpt lat="41.9668" lon="25.44581">
        <ele>200.906744</ele>
        <time>2022-03-02T09:01:15.900Z</time>
      </trkpt>
      <trkpt lat="41.96688" lon="25.44572">
        <ele>201.144374</ele>
        <time>2022-03-02T09:01:19.918Z</time>
      </trkpt>
      <trkpt lat="41.96696" lon="25.44565">
        <ele>201.366045</ele>
        <time>2022-03-02T09:01:23.945Z</time>
      </trkpt>
      <trkpt lat="41.96705" lon="25.44559">
        <ele>201.613334</ele>
        <time>2022-03-02T09:01:27.893Z</time>
      </trkpt>
      <trkpt lat="41.96716" lon="25.44552">
        <ele>201.88183</ele>
        <time>2022-03-02T09:01:31.906Z</time>
      </trkpt>
      <trkpt lat="41.96724" lon="25.44547">
        <ele>202.09452</ele>
        <time>2022-03-02T09:01:34.894Z</time>
      </trkpt>
      <trkpt lat="41.96733" lon="25.44543">
        <ele>202.306083</ele>
        <time>2022-03-02T09:01:37.878Z</time>
      </trkpt>
      <trkpt lat="41.96742" lon="25.44537">
        <ele>202.533597</ele>
        <time>2022-03-02T09:01:40.934Z</time>
      </trkpt>
      <trkpt lat="41.96751" lon="25.44531">
        <ele>202.768482</ele>
        <time>2022-03-02T09:01:43.905Z</time>
      </trkpt>
      <trkpt lat="41.9676" lon="25.44525">
        <ele>202.716648</ele>
        <time>2022-03-02T09:01:46.928Z</time>
      </trkpt>
      <trkpt lat="41.96769" lon="25.44519">
        <ele>202.55274</ele>
        <time>2022-03-02T09:01:49.905Z</time>
      </trkpt>
      <trkpt lat="41.96777" lon="25.44512">
        <ele>202.39962</ele>
        <time>2022-03-02T09:01:52.903Z</time>
      </trkpt>
      <trkpt lat="41.96784" lon="25.44503">
        <ele>202.259485</ele>
        <time>2022-03-02T09:01:55.896Z</time>
      </trkpt>
      <trkpt lat="41.96787" lon="25.44488">
        <ele>202.081259</ele>
        <time>2022-03-02T09:01:59.906Z</time>
      </trkpt>
      <trkpt lat="41.96789" lon="25.44476">
        <ele>201.930638</ele>
        <time>2022-03-02T09:02:02.906Z</time>
      </trkpt>
      <trkpt lat="41.96792" lon="25.4446">
        <ele>201.745974</ele>
        <time>2022-03-02T09:02:06.896Z</time>
      </trkpt>
      <trkpt lat="41.96793" lon="25.44444">
        <ele>201.56194</ele>
        <time>2022-03-02T09:02:10.941Z</time>
      </trkpt>
      <trkpt lat="41.96793" lon="25.44429">
        <ele>201.389414</ele>
        <time>2022-03-02T09:02:14.902Z</time>
      </trkpt>
      <trkpt lat="41.96795" lon="25.44417">
        <ele>201.246502</ele>
        <time>2022-03-02T09:02:18.917Z</time>
      </trkpt>
      <trkpt lat="41.96797" lon="25.44403">
        <ele>201.081976</ele>
        <time>2022-03-02T09:02:22.890Z</time>
      </trkpt>
      <trkpt lat="41.96798" lon="25.4439">
        <ele>200.922274</ele>
        <time>2022-03-02T09:02:26.906Z</time>
      </trkpt>
      <trkpt lat="41.968" lon="25.44376">
        <ele>200.758931</ele>
        <time>2022-03-02T09:02:30.898Z</time>
      </trkpt>
      <trkpt lat="41.96802" lon="25.44364">
        <ele>200.613956</ele>
        <time>2022-03-02T09:02:34.905Z</time>
      </trkpt>
      <trkpt lat="41.96804" lon="25.44351">
        <ele>200.464878</ele>
        <time>2022-03-02T09:02:38.925Z</time>
      </trkpt>
      <trkpt lat="41.96806" lon="25.44339">
        <ele>200.317172</ele>
        <time>2022-03-02T09:02:42.907Z</time>
      </trkpt>
      <trkpt lat="41.96808" lon="25.44326">
        <ele>200.167157</ele>
        <time>2022-03-02T09:02:46.889Z</time>
      </trkpt>
      <trkpt lat="41.96809" lon="25.44313">
        <ele>200.067033</ele>
        <time>2022-03-02T09:02:50.900Z</time>
      </trkpt>
      <trkpt lat="41.96811" lon="25.44301">
        <ele>200.578576</ele>
        <time>2022-03-02T09:02:54.909Z</time>
      </trkpt>
      <trkpt lat="41.96813" lon="25.44289">
        <ele>201.124312</ele>
        <time>2022-03-02T09:02:59.898Z</time>
      </trkpt>
      <trkpt lat="41.96815" lon="25.44275">
        <ele>201.706042</ele>
        <time>2022-03-02T09:03:04.898Z</time>
      </trkpt>
      <trkpt lat="41.96816" lon="25.44263">
        <ele>202.230027</ele>
        <time>2022-03-02T09:03:09.917Z</time>
      </trkpt>
      <trkpt lat="41.96817" lon="25.44249">
        <ele>202.820303</ele>
        <time>2022-03-02T09:03:15.904Z</time>
      </trkpt>
      <trkpt lat="41.96821" lon="25.44236">
        <ele>203.39963</ele>
        <time>2022-03-02T09:03:21.904Z</time>
      </trkpt>
      <trkpt lat="41.96822" lon="25.44223">
        <ele>203.95659</ele>
        <time>2022-03-02T09:03:27.906Z</time>
      </trkpt>
      <trkpt lat="41.96826" lon="25.44211">
        <ele>204.498829</ele>
        <time>2022-03-02T09:03:33.918Z</time>
      </trkpt>
      <trkpt lat="41.96828" lon="25.44198">
        <ele>205.053973</ele>
        <time>2022-03-02T09:03:39.898Z</time>
      </trkpt>
      <trkpt lat="41.96831" lon="25.44185">
        <ele>205.618458</ele>
        <time>2022-03-02T09:03:45.908Z</time>
      </trkpt>
      <trkpt lat="41.96834" lon="25.44172">
        <ele>206.213468</ele>
        <time>2022-03-02T09:03:51.895Z</time>
      </trkpt>
      <trkpt lat="41.96837" lon="25.44159">
        <ele>206.774367</ele>
        <time>2022-03-02T09:03:57.904Z</time>
      </trkpt>
      <trkpt lat="41.96839" lon="25.44146">
        <ele>207.305486</ele>
        <time>2022-03-02T09:04:03.923Z</time>
      </trkpt>
      <trkpt lat="41.96842" lon="25.44134">
        <ele>207.848657</ele>
        <time>2022-03-02T09:04:09.911Z</time>
      </trkpt>
      <trkpt lat="41.96845" lon="25.44123">
        <ele>208.369329</ele>
        <time>2022-03-02T09:04:15.909Z</time>
      </trkpt>
      <trkpt lat="41.96849" lon="25.4411">
        <ele>208.922992</ele>
        <time>2022-03-02T09:04:21.914Z</time>
      </trkpt>
      <trkpt lat="41.96852" lon="25.44098">
        <ele>209.456912</ele>
        <time>2022-03-02T09:04:27.908Z</time>
      </trkpt>
      <trkpt lat="41.96855" lon="25.44086">
        <ele>210.020401</ele>
        <time>2022-03-02T09:04:33.942Z</time>
      </trkpt>
      <trkpt lat="41.96859" lon="25.44074">
        <ele>210.356206</ele>
        <time>2022-03-02T09:04:39.929Z</time>
      </trkpt>
      <trkpt lat="41.96862" lon="25.44062">
        <ele>210.604336</ele>
        <time>2022-03-02T09:04:45.926Z</time>
      </trkpt>
      <trkpt lat="41.96866" lon="25.44049">
        <ele>210.864826</ele>
        <time>2022-03-02T09:04:51.894Z</time>
      </trkpt>
      <trkpt lat="41.96867" lon="25.44037">
        <ele>211.093678</ele>
        <time>2022-03-02T09:04:56.910Z</time>
      </trkpt>
      <trkpt lat="41.9687" lon="25.44025">
        <ele>211.336585</ele>
        <time>2022-03-02T09:05:02.930Z</time>
      </trkpt>
      <trkpt lat="41.96875" lon="25.44013">
        <ele>211.577425</ele>
        <time>2022-03-02T09:05:08.911Z</time>
      </trkpt>
      <trkpt lat="41.96878" lon="25.44001">
        <ele>211.8239</ele>
        <time>2022-03-02T09:05:14.937Z</time>
      </trkpt>
      <trkpt lat="41.96882" lon="25.43987">
        <ele>212.093262</ele>
        <time>2022-03-02T09:05:19.892Z</time>
      </trkpt>
      <trkpt lat="41.96885" lon="25.43975">
        <ele>212.338732</ele>
        <time>2022-03-02T09:05:24.906Z</time>
      </trkpt>
      <trkpt lat="41.96889" lon="25.43962">
        <ele>212.611735</ele>
        <time>2022-03-02T09:05:29.884Z</time>
      </trkpt>
      <trkpt lat="41.96892" lon="25.43948">
        <ele>212.876484</ele>
        <time>2022-03-02T09:05:33.904Z</time>
      </trkpt>
      <trkpt lat="41.96895" lon="25.43935">
        <ele>213.130786</ele>
        <time>2022-03-02T09:05:37.911Z</time>
      </trkpt>
      <trkpt lat="41.96898" lon="25.43922">
        <ele>213.388647</ele>
        <time>2022-03-02T09:05:41.905Z</time>
      </trkpt>
      <trkpt lat="41.96902" lon="25.4391">
        <ele>213.639593</ele>
        <time>2022-03-02T09:05:45.900Z</time>
      </trkpt>
      <trkpt lat="41.96905" lon="25.43899">
        <ele>213.873707</ele>
        <time>2022-03-02T09:05:49.907Z</time>
      </trkpt>
      <trkpt lat="41.9691" lon="25.43885">
        <ele>214.153694</ele>
        <time>2022-03-02T09:05:54.909Z</time>
      </trkpt>
      <trkpt lat="41.96912" lon="25.43872">
        <ele>214.398813</ele>
        <time>2022-03-02T09:05:58.881Z</time>
      </trkpt>
      <trkpt lat="41.96914" lon="25.4386">
        <ele>214.640254</ele>
        <time>2022-03-02T09:06:02.903Z</time>
      </trkpt>
      <trkpt lat="41.96916" lon="25.43848">
        <ele>214.984296</ele>
        <time>2022-03-02T09:06:06.910Z</time>
      </trkpt>
      <trkpt lat="41.96921" lon="25.43836">
        <ele>215.497964</ele>
        <time>2022-03-02T09:06:10.921Z</time>
      </trkpt>
      <trkpt lat="41.96928" lon="25.43824">
        <ele>216.045796</ele>
        <time>2022-03-02T09:06:14.893Z</time>
      </trkpt>
      <trkpt lat="41.96935" lon="25.43813">
        <ele>216.554621</ele>
        <time>2022-03-02T09:06:18.895Z</time>
      </trkpt>
      <trkpt lat="41.96941" lon="25.43804">
        <ele>217.000114</ele>
        <time>2022-03-02T09:06:22.905Z</time>
      </trkpt>
      <trkpt lat="41.96947" lon="25.43794">
        <ele>217.471515</ele>
        <time>2022-03-02T09:06:27.911Z</time>
      </trkpt>
      <trkpt lat="41.96953" lon="25.43784">
        <ele>217.965551</ele>
        <time>2022-03-02T09:06:32.891Z</time>
      </trkpt>
      <trkpt lat="41.96961" lon="25.43774">
        <ele>218.483733</ele>
        <time>2022-03-02T09:06:37.937Z</time>
      </trkpt>
      <trkpt lat="41.96968" lon="25.43764">
        <ele>218.991199</ele>
        <time>2022-03-02T09:06:42.892Z</time>
      </trkpt>
      <trkpt lat="41.96975" lon="25.43754">
        <ele>219.509463</ele>
        <time>2022-03-02T09:06:47.913Z</time>
      </trkpt>
      <trkpt lat="41.96982" lon="25.43744">
        <ele>220.018901</ele>
        <time>2022-03-02T09:06:52.888Z</time>
      </trkpt>
      <trkpt lat="41.9699" lon="25.43736">
        <ele>220.496002</ele>
        <time>2022-03-02T09:06:57.901Z</time>
      </trkpt>
      <trkpt lat="41.96997" lon="25.43728">
        <ele>220.970131</ele>
        <time>2022-03-02T09:07:02.901Z</time>
      </trkpt>
      <trkpt lat="41.97004" lon="25.43717">
        <ele>221.487186</ele>
        <time>2022-03-02T09:07:08.937Z</time>
      </trkpt>
      <trkpt lat="41.9701" lon="25.43706">
        <ele>221.973686</ele>
        <time>2022-03-02T09:07:14.936Z</time>
      </trkpt>
      <trkpt lat="41.97012" lon="25.43692">
        <ele>222.516387</ele>
        <time>2022-03-02T09:07:21.895Z</time>
      </trkpt>
      <trkpt lat="41.97014" lon="25.43679">
        <ele>222.979548</ele>
        <time>2022-03-02T09:07:26.891Z</time>
      </trkpt>
      <trkpt lat="41.97017" lon="25.43667">
        <ele>223.439134</ele>
        <time>2022-03-02T09:07:31.889Z</time>
      </trkpt>
      <trkpt lat="41.9702" lon="25.43655">
        <ele>223.848679</ele>
        <time>2022-03-02T09:07:36.906Z</time>
      </trkpt>
      <trkpt lat="41.97021" lon="25.43642">
        <ele>224.232106</ele>
        <time>2022-03-02T09:07:40.893Z</time>
      </trkpt>
      <trkpt lat="41.97023" lon="25.43628">
        <ele>224.630184</ele>
        <time>2022-03-02T09:07:44.915Z</time>
      </trkpt>
      <trkpt lat="41.97026" lon="25.43615">
        <ele>225.013684</ele>
        <time>2022-03-02T09:07:48.982Z</time>
      </trkpt>
      <trkpt lat="41.97029" lon="25.43603">
        <ele>225.358708</ele>
        <time>2022-03-02T09:07:52.908Z</time>
      </trkpt>
      <trkpt lat="41.97031" lon="25.43589">
        <ele>225.767877</ele>
        <time>2022-03-02T09:07:56.951Z</time>
      </trkpt>
      <trkpt lat="41.97034" lon="25.43576">
        <ele>226.152422</ele>
        <time>2022-03-02T09:08:00.889Z</time>
      </trkpt>
      <trkpt lat="41.97038" lon="25.43564">
        <ele>226.542618</ele>
        <time>2022-03-02T09:08:04.900Z</time>
      </trkpt>
      <trkpt lat="41.97042" lon="25.4355">
        <ele>226.959422</ele>
        <time>2022-03-02T09:08:09.932Z</time>
      </trkpt>
      <trkpt lat="41.97045" lon="25.43537">
        <ele>227.353897</ele>
        <time>2022-03-02T09:08:15.940Z</time>
      </trkpt>
      <trkpt lat="41.97047" lon="25.43523">
        <ele>227.747788</ele>
        <time>2022-03-02T09:08:21.913Z</time>
      </trkpt>
      <trkpt lat="41.9705" lon="25.43511">
        <ele>228.112884</ele>
        <time>2022-03-02T09:08:27.914Z</time>
      </trkpt>
      <trkpt lat="41.97053" lon="25.43497">
        <ele>228.515937</ele>
        <time>2022-03-02T09:08:33.922Z</time>
      </trkpt>
      <trkpt lat="41.97059" lon="25.43488">
        <ele>228.87938</ele>
        <time>2022-03-02T09:08:39.888Z</time>
      </trkpt>
      <trkpt lat="41.97068" lon="25.43482">
        <ele>229.267659</ele>
        <time>2022-03-02T09:08:45.938Z</time>
      </trkpt>
      <trkpt lat="41.97078" lon="25.43481">
        <ele>229.626977</ele>
        <time>2022-03-02T09:08:51.896Z</time>
      </trkpt>
      <trkpt lat="41.97087" lon="25.43486">
        <ele>229.993411</ele>
        <time>2022-03-02T09:08:57.894Z</time>
      </trkpt>
      <trkpt lat="41.97095" lon="25.43493">
        <ele>230.359684</ele>
        <time>2022-03-02T09:09:04.922Z</time>
      </trkpt>
      <trkpt lat="41.97103" lon="25.435">
        <ele>230.984252</ele>
        <time>2022-03-02T09:09:11.933Z</time>
      </trkpt>
      <trkpt lat="41.97111" lon="25.43506">
        <ele>231.733773</ele>
        <time>2022-03-02T09:09:18.917Z</time>
      </trkpt>
      <trkpt lat="41.9712" lon="25.43513">
        <ele>232.518206</ele>
        <time>2022-03-02T09:09:26.959Z</time>
      </trkpt>
      <trkpt lat="41.97127" lon="25.43521">
        <ele>233.299723</ele>
        <time>2022-03-02T09:09:34.918Z</time>
      </trkpt>
      <trkpt lat="41.97136" lon="25.43527">
        <ele>234.051732</ele>
        <time>2022-03-02T09:09:43.936Z</time>
      </trkpt>
      <trkpt lat="41.97143" lon="25.43535">
        <ele>234.78986</ele>
        <time>2022-03-02T09:09:51.921Z</time>
      </trkpt>
      <trkpt lat="41.97151" lon="25.43541">
        <ele>235.558419</ele>
        <time>2022-03-02T09:09:59.947Z</time>
      </trkpt>
      <trkpt lat="41.97159" lon="25.43547">
        <ele>236.285164</ele>
        <time>2022-03-02T09:10:08.927Z</time>
      </trkpt>
      <trkpt lat="41.97167" lon="25.43554">
        <ele>237.049586</ele>
        <time>2022-03-02T09:10:16.914Z</time>
      </trkpt>
      <trkpt lat="41.97175" lon="25.43563">
        <ele>237.848937</ele>
        <time>2022-03-02T09:10:24.949Z</time>
      </trkpt>
      <trkpt lat="41.97183" lon="25.43569">
        <ele>238.630554</ele>
        <time>2022-03-02T09:10:34.914Z</time>
      </trkpt>
      <trkpt lat="41.97192" lon="25.43575">
        <ele>239.398551</ele>
        <time>2022-03-02T09:10:42.962Z</time>
      </trkpt>
      <trkpt lat="41.972" lon="25.43582">
        <ele>240.212836</ele>
        <time>2022-03-02T09:10:51.910Z</time>
      </trkpt>
      <trkpt lat="41.97209" lon="25.4359">
        <ele>241.053791</ele>
        <time>2022-03-02T09:11:00.933Z</time>
      </trkpt>
      <trkpt lat="41.97217" lon="25.43596">
        <ele>241.790439</ele>
        <time>2022-03-02T09:11:09.927Z</time>
      </trkpt>
      <trkpt lat="41.97227" lon="25.43601">
        <ele>242.602373</ele>
        <time>2022-03-02T09:11:17.911Z</time>
      </trkpt>
      <trkpt lat="41.97235" lon="25.43605">
        <ele>243.352185</ele>
        <time>2022-03-02T09:11:25.916Z</time>
      </trkpt>
      <trkpt lat="41.97244" lon="25.4361">
        <ele>244.112864</ele>
        <time>2022-03-02T09:11:33.924Z</time>
      </trkpt>
      <trkpt lat="41.97253" lon="25.43611">
        <ele>244.83795</ele>
        <time>2022-03-02T09:11:41.924Z</time>
      </trkpt>
      <trkpt lat="41.97262" lon="25.4361">
        <ele>245.133299</ele>
        <time>2022-03-02T09:11:48.911Z</time>
      </trkpt>
      <trkpt lat="41.97272" lon="25.43609">
        <ele>245.378155</ele>
        <time>2022-03-02T09:11:56.922Z</time>
      </trkpt>
      <trkpt lat="41.97281" lon="25.43607">
        <ele>245.619981</ele>
        <time>2022-03-02T09:12:03.994Z</time>
      </trkpt>
      <trkpt lat="41.97289" lon="25.43602">
        <ele>245.870761</ele>
        <time>2022-03-02T09:12:10.914Z</time>
      </trkpt>
      <trkpt lat="41.97299" lon="25.43598">
        <ele>246.143689</ele>
        <time>2022-03-02T09:12:17.900Z</time>
      </trkpt>
      <trkpt lat="41.97309" lon="25.43594">
        <ele>246.420186</ele>
        <time>2022-03-02T09:12:24.898Z</time>
      </trkpt>
      <trkpt lat="41.97318" lon="25.43593">
        <ele>246.664023</ele>
        <time>2022-03-02T09:12:29.884Z</time>
      </trkpt>
      <trkpt lat="41.97327" lon="25.4359">
        <ele>246.906332</ele>
        <time>2022-03-02T09:12:34.930Z</time>
      </trkpt>
      <trkpt lat="41.97337" lon="25.43588">
        <ele>247.171727</ele>
        <time>2022-03-02T09:12:40.901Z</time>
      </trkpt>
      <trkpt lat="41.97346" lon="25.43583">
        <ele>247.4358</ele>
        <time>2022-03-02T09:12:45.922Z</time>
      </trkpt>
      <trkpt lat="41.97357" lon="25.43579">
        <ele>247.729689</ele>
        <time>2022-03-02T09:12:50.887Z</time>
      </trkpt>
      <trkpt lat="41.97366" lon="25.43574">
        <ele>247.996587</ele>
        <time>2022-03-02T09:12:54.905Z</time>
      </trkpt>
      <trkpt lat="41.97375" lon="25.43567">
        <ele>248.257766</ele>
        <time>2022-03-02T09:12:57.953Z</time>
      </trkpt>
      <trkpt lat="41.97384" lon="25.4356">
        <ele>248.546319</ele>
        <time>2022-03-02T09:13:00.899Z</time>
      </trkpt>
      <trkpt lat="41.97392" lon="25.43554">
        <ele>248.791461</ele>
        <time>2022-03-02T09:13:03.907Z</time>
      </trkpt>
      <trkpt lat="41.97402" lon="25.43546">
        <ele>249.0853</ele>
        <time>2022-03-02T09:13:07.900Z</time>
      </trkpt>
      <trkpt lat="41.97409" lon="25.43537">
        <ele>249.34475</ele>
        <time>2022-03-02T09:13:10.924Z</time>
      </trkpt>
      <trkpt lat="41.97417" lon="25.43527">
        <ele>249.634272</ele>
        <time>2022-03-02T09:13:13.913Z</time>
      </trkpt>
      <trkpt lat="41.97425" lon="25.43519">
        <ele>250.051366</ele>
        <time>2022-03-02T09:13:16.900Z</time>
      </trkpt>
      <trkpt lat="41.97433" lon="25.43513">
        <ele>250.484076</ele>
        <time>2022-03-02T09:13:20.904Z</time>
      </trkpt>
      <trkpt lat="41.97442" lon="25.43505">
        <ele>250.991676</ele>
        <time>2022-03-02T09:13:25.892Z</time>
      </trkpt>
      <trkpt lat="41.9745" lon="25.43496">
        <ele>251.452552</ele>
        <time>2022-03-02T09:13:30.957Z</time>
      </trkpt>
      <trkpt lat="41.97458" lon="25.43489">
        <ele>251.884467</ele>
        <time>2022-03-02T09:13:35.909Z</time>
      </trkpt>
      <trkpt lat="41.97466" lon="25.4348">
        <ele>252.367769</ele>
        <time>2022-03-02T09:13:41.925Z</time>
      </trkpt>
      <trkpt lat="41.97474" lon="25.43473">
        <ele>252.811103</ele>
        <time>2022-03-02T09:13:47.936Z</time>
      </trkpt>
      <trkpt lat="41.97482" lon="25.43465">
        <ele>253.249141</ele>
        <time>2022-03-02T09:13:53.915Z</time>
      </trkpt>
      <trkpt lat="41.97489" lon="25.43458">
        <ele>253.667991</ele>
        <time>2022-03-02T09:13:59.905Z</time>
      </trkpt>
      <trkpt lat="41.97497" lon="25.43451">
        <ele>254.095929</ele>
        <time>2022-03-02T09:14:05.903Z</time>
      </trkpt>
      <trkpt lat="41.97505" lon="25.43443">
        <ele>254.542363</ele>
        <time>2022-03-02T09:14:12.911Z</time>
      </trkpt>
      <trkpt lat="41.97512" lon="25.43435">
        <ele>254.961058</ele>
        <time>2022-03-02T09:14:18.915Z</time>
      </trkpt>
      <trkpt lat="41.97519" lon="25.43427">
        <ele>255.411075</ele>
        <time>2022-03-02T09:14:25.892Z</time>
      </trkpt>
      <trkpt lat="41.97528" lon="25.4342">
        <ele>255.880085</ele>
        <time>2022-03-02T09:14:33.910Z</time>
      </trkpt>
      <trkpt lat="41.97535" lon="25.43412">
        <ele>256.299728</ele>
        <time>2022-03-02T09:14:39.912Z</time>
      </trkpt>
      <trkpt lat="41.97542" lon="25.43404">
        <ele>256.729822</ele>
        <time>2022-03-02T09:14:45.896Z</time>
      </trkpt>
      <trkpt lat="41.9755" lon="25.43396">
        <ele>257.15402</ele>
        <time>2022-03-02T09:14:51.916Z</time>
      </trkpt>
      <trkpt lat="41.97557" lon="25.43388">
        <ele>257.586915</ele>
        <time>2022-03-02T09:14:57.903Z</time>
      </trkpt>
      <trkpt lat="41.97565" lon="25.43382">
        <ele>258.011648</ele>
        <time>2022-03-02T09:15:03.892Z</time>
      </trkpt>
      <trkpt lat="41.97573" lon="25.43374">
        <ele>258.388583</ele>
        <time>2022-03-02T09:15:10.930Z</time>
      </trkpt>
      <trkpt lat="41.97581" lon="25.43365">
        <ele>258.791034</ele>
        <time>2022-03-02T09:15:17.910Z</time>
      </trkpt>
      <trkpt lat="41.97589" lon="25.43359">
        <ele>259.168412</ele>
        <time>2022-03-02T09:15:24.904Z</time>
      </trkpt>
      <trkpt lat="41.97597" lon="25.43351">
        <ele>259.561575</ele>
        <time>2022-03-02T09:15:30.904Z</time>
      </trkpt>
      <trkpt lat="41.97605" lon="25.43342">
        <ele>259.968262</ele>
        <time>2022-03-02T09:15:36.915Z</time>
      </trkpt>
      <trkpt lat="41.97612" lon="25.43335">
        <ele>260.326875</ele>
        <time>2022-03-02T09:15:42.888Z</time>
      </trkpt>
      <trkpt lat="41.9762" lon="25.43328">
        <ele>260.69469</ele>
        <time>2022-03-02T09:15:48.904Z</time>
      </trkpt>
      <trkpt lat="41.97628" lon="25.43321">
        <ele>261.093643</ele>
        <time>2022-03-02T09:15:55.904Z</time>
      </trkpt>
      <trkpt lat="41.97635" lon="25.43313">
        <ele>261.463622</ele>
        <time>2022-03-02T09:16:01.894Z</time>
      </trkpt>
      <trkpt lat="41.97643" lon="25.43306">
        <ele>261.838837</ele>
        <time>2022-03-02T09:16:07.912Z</time>
      </trkpt>
      <trkpt lat="41.97651" lon="25.43299">
        <ele>262.217191</ele>
        <time>2022-03-02T09:16:13.903Z</time>
      </trkpt>
      <trkpt lat="41.97659" lon="25.43291">
        <ele>262.581894</ele>
        <time>2022-03-02T09:16:19.893Z</time>
      </trkpt>
      <trkpt lat="41.97666" lon="25.43284">
        <ele>262.942161</ele>
        <time>2022-03-02T09:16:25.901Z</time>
      </trkpt>
      <trkpt lat="41.97674" lon="25.43276">
        <ele>263.347681</ele>
        <time>2022-03-02T09:16:32.907Z</time>
      </trkpt>
      <trkpt lat="41.97682" lon="25.43268">
        <ele>263.732135</ele>
        <time>2022-03-02T09:16:39.903Z</time>
      </trkpt>
      <trkpt lat="41.97689" lon="25.43259">
        <ele>264.11349</ele>
        <time>2022-03-02T09:16:45.903Z</time>
      </trkpt>
      <trkpt lat="41.97697" lon="25.43252">
        <ele>264.484028</ele>
        <time>2022-03-02T09:16:51.915Z</time>
      </trkpt>
      <trkpt lat="41.97705" lon="25.43245">
        <ele>264.859106</ele>
        <time>2022-03-02T09:16:57.902Z</time>
      </trkpt>
      <trkpt lat="41.97712" lon="25.43238">
        <ele>265.237402</ele>
        <time>2022-03-02T09:17:02.890Z</time>
      </trkpt>
      <trkpt lat="41.9772" lon="25.43231">
        <ele>265.679277</ele>
        <time>2022-03-02T09:17:09.895Z</time>
      </trkpt>
      <trkpt lat="41.97729" lon="25.43223">
        <ele>266.139715</ele>
        <time>2022-03-02T09:17:16.903Z</time>
      </trkpt>
      <trkpt lat="41.97738" lon="25.43217">
        <ele>266.583906</ele>
        <time>2022-03-02T09:17:22.913Z</time>
      </trkpt>
      <trkpt lat="41.97746" lon="25.43211">
        <ele>267.005642</ele>
        <time>2022-03-02T09:17:28.899Z</time>
      </trkpt>
      <trkpt lat="41.97755" lon="25.43204">
        <ele>267.441975</ele>
        <time>2022-03-02T09:17:34.906Z</time>
      </trkpt>
      <trkpt lat="41.97763" lon="25.43197">
        <ele>267.891999</ele>
        <time>2022-03-02T09:17:40.902Z</time>
      </trkpt>
      <trkpt lat="41.97772" lon="25.43191">
        <ele>268.326137</ele>
        <time>2022-03-02T09:17:46.895Z</time>
      </trkpt>
      <trkpt lat="41.9778" lon="25.43186">
        <ele>268.738951</ele>
        <time>2022-03-02T09:17:52.906Z</time>
      </trkpt>
      <trkpt lat="41.97789" lon="25.4318">
        <ele>269.179611</ele>
        <time>2022-03-02T09:17:58.927Z</time>
      </trkpt>
      <trkpt lat="41.97799" lon="25.43175">
        <ele>269.632498</ele>
        <time>2022-03-02T09:18:04.901Z</time>
      </trkpt>
      <trkpt lat="41.97808" lon="25.43168">
        <ele>270.086113</ele>
        <time>2022-03-02T09:18:10.905Z</time>
      </trkpt>
      <trkpt lat="41.97816" lon="25.43161">
        <ele>270.548878</ele>
        <time>2022-03-02T09:18:16.919Z</time>
      </trkpt>
      <trkpt lat="41.97825" lon="25.43155">
        <ele>270.967177</ele>
        <time>2022-03-02T09:18:22.942Z</time>
      </trkpt>
      <trkpt lat="41.97834" lon="25.43148">
        <ele>271.419385</ele>
        <time>2022-03-02T09:18:28.895Z</time>
      </trkpt>
      <trkpt lat="41.97843" lon="25.43142">
        <ele>271.882428</ele>
        <time>2022-03-02T09:18:34.922Z</time>
      </trkpt>
      <trkpt lat="41.97853" lon="25.43136">
        <ele>272.367669</ele>
        <time>2022-03-02T09:18:40.945Z</time>
      </trkpt>
      <trkpt lat="41.97861" lon="25.4313">
        <ele>272.780482</ele>
        <time>2022-03-02T09:18:45.901Z</time>
      </trkpt>
      <trkpt lat="41.97869" lon="25.43123">
        <ele>273.109331</ele>
        <time>2022-03-02T09:18:50.900Z</time>
      </trkpt>
      <trkpt lat="41.97877" lon="25.43117">
        <ele>273.240952</ele>
        <time>2022-03-02T09:18:56.918Z</time>
      </trkpt>
      <trkpt lat="41.97886" lon="25.43111">
        <ele>273.37049</ele>
        <time>2022-03-02T09:19:01.908Z</time>
      </trkpt>
      <trkpt lat="41.97895" lon="25.43105">
        <ele>273.500674</ele>
        <time>2022-03-02T09:19:06.892Z</time>
      </trkpt>
      <trkpt lat="41.97904" lon="25.431">
        <ele>273.628463</ele>
        <time>2022-03-02T09:19:11.914Z</time>
      </trkpt>
      <trkpt lat="41.97913" lon="25.43093">
        <ele>273.764423</ele>
        <time>2022-03-02T09:19:16.918Z</time>
      </trkpt>
      <trkpt lat="41.97922" lon="25.43087">
        <ele>273.899463</ele>
        <time>2022-03-02T09:19:21.900Z</time>
      </trkpt>
      <trkpt lat="41.97931" lon="25.43081">
        <ele>274.032259</ele>
        <time>2022-03-02T09:19:26.959Z</time>
      </trkpt>
      <trkpt lat="41.97939" lon="25.43074">
        <ele>274.161021</ele>
        <time>2022-03-02T09:19:31.901Z</time>
      </trkpt>
      <trkpt lat="41.97948" lon="25.43069">
        <ele>274.284012</ele>
        <time>2022-03-02T09:19:36.902Z</time>
      </trkpt>
      <trkpt lat="41.97957" lon="25.43063">
        <ele>274.422724</ele>
        <time>2022-03-02T09:19:41.904Z</time>
      </trkpt>
      <trkpt lat="41.97965" lon="25.43056">
        <ele>274.553646</ele>
        <time>2022-03-02T09:19:46.903Z</time>
      </trkpt>
      <trkpt lat="41.97974" lon="25.4305">
        <ele>274.676396</ele>
        <time>2022-03-02T09:19:51.890Z</time>
      </trkpt>
      <trkpt lat="41.97983" lon="25.43042">
        <ele>274.818784</ele>
        <time>2022-03-02T09:19:57.913Z</time>
      </trkpt>
      <trkpt lat="41.97991" lon="25.43036">
        <ele>274.949485</ele>
        <time>2022-03-02T09:20:02.892Z</time>
      </trkpt>
      <trkpt lat="41.97999" lon="25.43031">
        <ele>275.069598</ele>
        <time>2022-03-02T09:20:06.907Z</time>
      </trkpt>
      <trkpt lat="41.98009" lon="25.43024">
        <ele>275.217523</ele>
        <time>2022-03-02T09:20:11.900Z</time>
      </trkpt>
      <trkpt lat="41.98018" lon="25.43018">
        <ele>275.346413</ele>
        <time>2022-03-02T09:20:16.921Z</time>
      </trkpt>
      <trkpt lat="41.98026" lon="25.43011">
        <ele>275.430088</ele>
        <time>2022-03-02T09:20:21.909Z</time>
      </trkpt>
      <trkpt lat="41.98036" lon="25.43006">
        <ele>275.264872</ele>
        <time>2022-03-02T09:20:26.917Z</time>
      </trkpt>
      <trkpt lat="41.98046" lon="25.43003">
        <ele>275.089908</ele>
        <time>2022-03-02T09:20:31.941Z</time>
      </trkpt>
      <trkpt lat="41.98057" lon="25.43005">
        <ele>274.911504</ele>
        <time>2022-03-02T09:20:36.899Z</time>
      </trkpt>
      <trkpt lat="41.98067" lon="25.43011">
        <ele>274.740951</ele>
        <time>2022-03-02T09:20:40.890Z</time>
      </trkpt>
      <trkpt lat="41.98075" lon="25.43018">
        <ele>274.583613</ele>
        <time>2022-03-02T09:20:44.897Z</time>
      </trkpt>
      <trkpt lat="41.98084" lon="25.43025">
        <ele>274.417415</ele>
        <time>2022-03-02T09:20:48.920Z</time>
      </trkpt>
      <trkpt lat="41.98093" lon="25.43035">
        <ele>274.228609</ele>
        <time>2022-03-02T09:20:52.906Z</time>
      </trkpt>
      <trkpt lat="41.981" lon="25.43043">
        <ele>274.075884</ele>
        <time>2022-03-02T09:20:55.906Z</time>
      </trkpt>
      <trkpt lat="41.98107" lon="25.43054">
        <ele>273.900965</ele>
        <time>2022-03-02T09:20:59.910Z</time>
      </trkpt>
      <trkpt lat="41.98114" lon="25.43065">
        <ele>273.735125</ele>
        <time>2022-03-02T09:21:03.913Z</time>
      </trkpt>
      <trkpt lat="41.9812" lon="25.43077">
        <ele>273.563567</ele>
        <time>2022-03-02T09:21:07.893Z</time>
      </trkpt>
      <trkpt lat="41.98127" lon="25.43088">
        <ele>273.389702</ele>
        <time>2022-03-02T09:21:11.912Z</time>
      </trkpt>
      <trkpt lat="41.98132" lon="25.43098">
        <ele>273.233313</ele>
        <time>2022-03-02T09:21:15.925Z</time>
      </trkpt>
      <trkpt lat="41.98136" lon="25.4311">
        <ele>273.08658</ele>
        <time>2022-03-02T09:21:19.896Z</time>
      </trkpt>
      <trkpt lat="41.98141" lon="25.43121">
        <ele>272.933196</ele>
        <time>2022-03-02T09:21:23.921Z</time>
      </trkpt>
      <trkpt lat="41.98145" lon="25.43133">
        <ele>272.766433</ele>
        <time>2022-03-02T09:21:27.886Z</time>
      </trkpt>
      <trkpt lat="41.98151" lon="25.43147">
        <ele>272.581733</ele>
        <time>2022-03-02T09:21:31.914Z</time>
      </trkpt>
      <trkpt lat="41.98156" lon="25.43159">
        <ele>272.847652</ele>
        <time>2022-03-02T09:21:35.888Z</time>
      </trkpt>
      <trkpt lat="41.9816" lon="25.4317">
        <ele>273.170961</ele>
        <time>2022-03-02T09:21:39.916Z</time>
      </trkpt>
      <trkpt lat="41.98165" lon="25.43181">
        <ele>273.502589</ele>
        <time>2022-03-02T09:21:43.939Z</time>
      </trkpt>
      <trkpt lat="41.98171" lon="25.43193">
        <ele>273.87981</ele>
        <time>2022-03-02T09:21:47.896Z</time>
      </trkpt>
      <trkpt lat="41.98177" lon="25.43204">
        <ele>274.245651</ele>
        <time>2022-03-02T09:21:51.897Z</time>
      </trkpt>
      <trkpt lat="41.98184" lon="25.43214">
        <ele>274.600876</ele>
        <time>2022-03-02T09:21:55.929Z</time>
      </trkpt>
      <trkpt lat="41.98193" lon="25.4322">
        <ele>274.950187</ele>
        <time>2022-03-02T09:21:59.905Z</time>
      </trkpt>
      <trkpt lat="41.98204" lon="25.43221">
        <ele>275.336353</ele>
        <time>2022-03-02T09:22:03.907Z</time>
      </trkpt>
      <trkpt lat="41.98215" lon="25.43221">
        <ele>275.732328</ele>
        <time>2022-03-02T09:22:07.904Z</time>
      </trkpt>
      <trkpt lat="41.98226" lon="25.43219">
        <ele>276.106396</ele>
        <time>2022-03-02T09:22:11.942Z</time>
      </trkpt>
      <trkpt lat="41.98236" lon="25.43216">
        <ele>276.483653</ele>
        <time>2022-03-02T09:22:15.906Z</time>
      </trkpt>
      <trkpt lat="41.98246" lon="25.43213">
        <ele>276.834254</ele>
        <time>2022-03-02T09:22:19.943Z</time>
      </trkpt>
      <trkpt lat="41.98256" lon="25.4321">
        <ele>277.18822</ele>
        <time>2022-03-02T09:22:23.914Z</time>
      </trkpt>
      <trkpt lat="41.98266" lon="25.43208">
        <ele>277.550206</ele>
        <time>2022-03-02T09:22:27.930Z</time>
      </trkpt>
      <trkpt lat="41.98276" lon="25.43205">
        <ele>277.918427</ele>
        <time>2022-03-02T09:22:31.913Z</time>
      </trkpt>
      <trkpt lat="41.98286" lon="25.43202">
        <ele>278.251813</ele>
        <time>2022-03-02T09:22:35.906Z</time>
      </trkpt>
      <trkpt lat="41.98295" lon="25.43199">
        <ele>278.599018</ele>
        <time>2022-03-02T09:22:39.902Z</time>
      </trkpt>
      <trkpt lat="41.98305" lon="25.43196">
        <ele>278.81936</ele>
        <time>2022-03-02T09:22:43.894Z</time>
      </trkpt>
      <trkpt lat="41.98315" lon="25.43193">
        <ele>278.703629</ele>
        <time>2022-03-02T09:22:47.914Z</time>
      </trkpt>
      <trkpt lat="41.98325" lon="25.4319">
        <ele>278.590518</ele>
        <time>2022-03-02T09:22:51.899Z</time>
      </trkpt>
      <trkpt lat="41.98335" lon="25.43187">
        <ele>278.473012</ele>
        <time>2022-03-02T09:22:56.932Z</time>
      </trkpt>
      <trkpt lat="41.98345" lon="25.43186">
        <ele>278.364338</ele>
        <time>2022-03-02T09:23:00.895Z</time>
      </trkpt>
      <trkpt lat="41.98354" lon="25.43183">
        <ele>278.262498</ele>
        <time>2022-03-02T09:23:04.891Z</time>
      </trkpt>
      <trkpt lat="41.98363" lon="25.43182">
        <ele>278.15855</ele>
        <time>2022-03-02T09:23:08.917Z</time>
      </trkpt>
      <trkpt lat="41.98373" lon="25.43182">
        <ele>278.048245</ele>
        <time>2022-03-02T09:23:12.895Z</time>
      </trkpt>
      <trkpt lat="41.98382" lon="25.43186">
        <ele>277.943039</ele>
        <time>2022-03-02T09:23:17.955Z</time>
      </trkpt>
      <trkpt lat="41.98391" lon="25.4319">
        <ele>277.839188</ele>
        <time>2022-03-02T09:23:24.924Z</time>
      </trkpt>
      <trkpt lat="41.98401" lon="25.43193">
        <ele>277.713805</ele>
        <time>2022-03-02T09:23:29.953Z</time>
      </trkpt>
      <trkpt lat="41.98414" lon="25.43191">
        <ele>277.574468</ele>
        <time>2022-03-02T09:23:33.927Z</time>
      </trkpt>
      <trkpt lat="41.98425" lon="25.43188">
        <ele>277.446709</ele>
        <time>2022-03-02T09:23:36.907Z</time>
      </trkpt>
      <trkpt lat="41.98435" lon="25.43185">
        <ele>277.327924</ele>
        <time>2022-03-02T09:23:39.902Z</time>
      </trkpt>
      <trkpt lat="41.98447" lon="25.43182">
        <ele>277.196689</ele>
        <time>2022-03-02T09:23:43.925Z</time>
      </trkpt>
      <trkpt lat="41.98455" lon="25.43178">
        <ele>277.092674</ele>
        <time>2022-03-02T09:23:47.935Z</time>
      </trkpt>
      <trkpt lat="41.98464" lon="25.43176">
        <ele>276.990834</ele>
        <time>2022-03-02T09:23:51.952Z</time>
      </trkpt>
      <trkpt lat="41.98474" lon="25.43173">
        <ele>276.876806</ele>
        <time>2022-03-02T09:23:55.914Z</time>
      </trkpt>
      <trkpt lat="41.98485" lon="25.43169">
        <ele>276.725684</ele>
        <time>2022-03-02T09:23:59.952Z</time>
      </trkpt>
      <trkpt lat="41.98495" lon="25.43166">
        <ele>276.562688</ele>
        <time>2022-03-02T09:24:03.932Z</time>
      </trkpt>
      <trkpt lat="41.98506" lon="25.43162">
        <ele>276.393303</ele>
        <time>2022-03-02T09:24:07.952Z</time>
      </trkpt>
      <trkpt lat="41.98517" lon="25.43158">
        <ele>276.225969</ele>
        <time>2022-03-02T09:24:11.913Z</time>
      </trkpt>
      <trkpt lat="41.98527" lon="25.43153">
        <ele>276.073063</ele>
        <time>2022-03-02T09:24:15.939Z</time>
      </trkpt>
      <trkpt lat="41.98536" lon="25.43147">
        <ele>275.919366</ele>
        <time>2022-03-02T09:24:19.925Z</time>
      </trkpt>
      <trkpt lat="41.98544" lon="25.43141">
        <ele>275.773353</ele>
        <time>2022-03-02T09:24:23.911Z</time>
      </trkpt>
      <trkpt lat="41.98552" lon="25.43131">
        <ele>275.616311</ele>
        <time>2022-03-02T09:24:27.924Z</time>
      </trkpt>
      <trkpt lat="41.98559" lon="25.43122">
        <ele>275.469142</ele>
        <time>2022-03-02T09:24:31.921Z</time>
      </trkpt>
      <trkpt lat="41.98567" lon="25.43112">
        <ele>275.305745</ele>
        <time>2022-03-02T09:24:35.926Z</time>
      </trkpt>
      <trkpt lat="41.98575" lon="25.43103">
        <ele>275.142536</ele>
        <time>2022-03-02T09:24:39.920Z</time>
      </trkpt>
      <trkpt lat="41.98583" lon="25.43092">
        <ele>274.973625</ele>
        <time>2022-03-02T09:24:43.933Z</time>
      </trkpt>
      <trkpt lat="41.98591" lon="25.43082">
        <ele>274.803117</ele>
        <time>2022-03-02T09:24:47.950Z</time>
      </trkpt>
      <trkpt lat="41.986" lon="25.43073">
        <ele>274.634254</ele>
        <time>2022-03-02T09:24:51.924Z</time>
      </trkpt>
      <trkpt lat="41.98609" lon="25.43063">
        <ele>274.465986</ele>
        <time>2022-03-02T09:24:55.934Z</time>
      </trkpt>
      <trkpt lat="41.98616" lon="25.43053">
        <ele>274.301775</ele>
        <time>2022-03-02T09:24:59.905Z</time>
      </trkpt>
      <trkpt lat="41.98625" lon="25.43043">
        <ele>274.130896</ele>
        <time>2022-03-02T09:25:03.924Z</time>
      </trkpt>
      <trkpt lat="41.98634" lon="25.43032">
        <ele>274.124192</ele>
        <time>2022-03-02T09:25:07.939Z</time>
      </trkpt>
      <trkpt lat="41.98642" lon="25.43023">
        <ele>274.129035</ele>
        <time>2022-03-02T09:25:11.942Z</time>
      </trkpt>
      <trkpt lat="41.98649" lon="25.43012">
        <ele>274.133631</ele>
        <time>2022-03-02T09:25:15.925Z</time>
      </trkpt>
      <trkpt lat="41.98657" lon="25.43003">
        <ele>274.13803</ele>
        <time>2022-03-02T09:25:19.914Z</time>
      </trkpt>
      <trkpt lat="41.98664" lon="25.42994">
        <ele>274.142439</ele>
        <time>2022-03-02T09:25:23.919Z</time>
      </trkpt>
      <trkpt lat="41.98673" lon="25.42985">
        <ele>274.14708</ele>
        <time>2022-03-02T09:25:27.913Z</time>
      </trkpt>
      <trkpt lat="41.98682" lon="25.42975">
        <ele>274.152224</ele>
        <time>2022-03-02T09:25:31.924Z</time>
      </trkpt>
      <trkpt lat="41.9869" lon="25.42966">
        <ele>274.156873</ele>
        <time>2022-03-02T09:25:35.930Z</time>
      </trkpt>
      <trkpt lat="41.98697" lon="25.42958">
        <ele>274.160876</ele>
        <time>2022-03-02T09:25:38.920Z</time>
      </trkpt>
      <trkpt lat="41.98706" lon="25.42948">
        <ele>274.165863</ele>
        <time>2022-03-02T09:25:42.906Z</time>
      </trkpt>
      <trkpt lat="41.98714" lon="25.42938">
        <ele>274.170902</ele>
        <time>2022-03-02T09:25:46.919Z</time>
      </trkpt>
      <trkpt lat="41.98722" lon="25.42928">
        <ele>274.175637</ele>
        <time>2022-03-02T09:25:50.924Z</time>
      </trkpt>
      <trkpt lat="41.98731" lon="25.42918">
        <ele>274.180567</ele>
        <time>2022-03-02T09:25:54.909Z</time>
      </trkpt>
      <trkpt lat="41.9874" lon="25.42907">
        <ele>274.185739</ele>
        <time>2022-03-02T09:25:58.907Z</time>
      </trkpt>
      <trkpt lat="41.98749" lon="25.42898">
        <ele>274.190798</ele>
        <time>2022-03-02T09:26:02.934Z</time>
      </trkpt>
      <trkpt lat="41.98756" lon="25.42891">
        <ele>274.194715</ele>
        <time>2022-03-02T09:26:05.920Z</time>
      </trkpt>
      <trkpt lat="41.98765" lon="25.42881">
        <ele>274.231899</ele>
        <time>2022-03-02T09:26:09.913Z</time>
      </trkpt>
      <trkpt lat="41.98773" lon="25.4287">
        <ele>274.322811</ele>
        <time>2022-03-02T09:26:13.945Z</time>
      </trkpt>
      <trkpt lat="41.98781" lon="25.42858">
        <ele>274.417707</ele>
        <time>2022-03-02T09:26:17.901Z</time>
      </trkpt>
      <trkpt lat="41.98789" lon="25.42847">
        <ele>274.512503</ele>
        <time>2022-03-02T09:26:21.922Z</time>
      </trkpt>
      <trkpt lat="41.98796" lon="25.42835">
        <ele>274.602201</ele>
        <time>2022-03-02T09:26:25.912Z</time>
      </trkpt>
      <trkpt lat="41.98803" lon="25.42824">
        <ele>274.689615</ele>
        <time>2022-03-02T09:26:29.936Z</time>
      </trkpt>
      <trkpt lat="41.98811" lon="25.42812">
        <ele>274.78458</ele>
        <time>2022-03-02T09:26:33.892Z</time>
      </trkpt>
      <trkpt lat="41.98818" lon="25.42801">
        <ele>274.872699</ele>
        <time>2022-03-02T09:26:37.902Z</time>
      </trkpt>
      <trkpt lat="41.98825" lon="25.42789">
        <ele>274.964291</ele>
        <time>2022-03-02T09:26:41.914Z</time>
      </trkpt>
      <trkpt lat="41.98833" lon="25.42777">
        <ele>275.055086</ele>
        <time>2022-03-02T09:26:45.950Z</time>
      </trkpt>
      <trkpt lat="41.9884" lon="25.42765">
        <ele>275.146678</ele>
        <time>2022-03-02T09:26:49.913Z</time>
      </trkpt>
      <trkpt lat="41.98848" lon="25.42754">
        <ele>275.237425</ele>
        <time>2022-03-02T09:26:53.922Z</time>
      </trkpt>
      <trkpt lat="41.98855" lon="25.42743">
        <ele>275.325231</ele>
        <time>2022-03-02T09:26:57.912Z</time>
      </trkpt>
      <trkpt lat="41.98862" lon="25.42732">
        <ele>275.412036</ele>
        <time>2022-03-02T09:27:01.894Z</time>
      </trkpt>
      <trkpt lat="41.98869" lon="25.42721">
        <ele>275.500762</ele>
        <time>2022-03-02T09:27:05.907Z</time>
      </trkpt>
      <trkpt lat="41.98876" lon="25.42711">
        <ele>275.580682</ele>
        <time>2022-03-02T09:27:09.919Z</time>
      </trkpt>
      <trkpt lat="41.98882" lon="25.427">
        <ele>275.702812</ele>
        <time>2022-03-02T09:27:13.897Z</time>
      </trkpt>
      <trkpt lat="41.98888" lon="25.42691">
        <ele>275.941213</ele>
        <time>2022-03-02T09:27:17.927Z</time>
      </trkpt>
      <trkpt lat="41.98894" lon="25.42682">
        <ele>276.175609</ele>
        <time>2022-03-02T09:27:21.952Z</time>
      </trkpt>
      <trkpt lat="41.989" lon="25.42672">
        <ele>276.424555</ele>
        <time>2022-03-02T09:27:25.918Z</time>
      </trkpt>
      <trkpt lat="41.98908" lon="25.42661">
        <ele>276.708974</ele>
        <time>2022-03-02T09:27:30.907Z</time>
      </trkpt>
      <trkpt lat="41.98916" lon="25.42654">
        <ele>276.956159</ele>
        <time>2022-03-02T09:27:34.916Z</time>
      </trkpt>
      <trkpt lat="41.98925" lon="25.42648">
        <ele>277.212679</ele>
        <time>2022-03-02T09:27:39.898Z</time>
      </trkpt>
      <trkpt lat="41.9893" lon="25.42637">
        <ele>277.469661</ele>
        <time>2022-03-02T09:27:46.901Z</time>
      </trkpt>
      <trkpt lat="41.98934" lon="25.42625">
        <ele>277.721292</ele>
        <time>2022-03-02T09:27:51.898Z</time>
      </trkpt>
      <trkpt lat="41.98935" lon="25.42613">
        <ele>277.957852</ele>
        <time>2022-03-02T09:27:56.937Z</time>
      </trkpt>
      <trkpt lat="41.98941" lon="25.42603">
        <ele>278.19353</ele>
        <time>2022-03-02T09:28:02.901Z</time>
      </trkpt>
      <trkpt lat="41.98948" lon="25.42595">
        <ele>278.435026</ele>
        <time>2022-03-02T09:28:08.917Z</time>
      </trkpt>
      <trkpt lat="41.98954" lon="25.42584">
        <ele>278.690919</ele>
        <time>2022-03-02T09:28:14.902Z</time>
      </trkpt>
      <trkpt lat="41.9896" lon="25.42574">
        <ele>278.944784</ele>
        <time>2022-03-02T09:28:20.940Z</time>
      </trkpt>
      <trkpt lat="41.98967" lon="25.42564">
        <ele>279.203543</ele>
        <time>2022-03-02T09:28:26.910Z</time>
      </trkpt>
      <trkpt lat="41.98973" lon="25.42555">
        <ele>279.443821</ele>
        <time>2022-03-02T09:28:31.938Z</time>
      </trkpt>
      <trkpt lat="41.9898" lon="25.42544">
        <ele>279.715158</ele>
        <time>2022-03-02T09:28:36.911Z</time>
      </trkpt>
      <trkpt lat="41.98987" lon="25.42532">
        <ele>279.995269</ele>
        <time>2022-03-02T09:28:41.912Z</time>
      </trkpt>
      <trkpt lat="41.98993" lon="25.4252">
        <ele>280.277004</ele>
        <time>2022-03-02T09:28:46.905Z</time>
      </trkpt>
      <trkpt lat="41.98999" lon="25.42511">
        <ele>280.605191</ele>
        <time>2022-03-02T09:28:50.907Z</time>
      </trkpt>
      <trkpt lat="41.99006" lon="25.42501">
        <ele>280.947922</ele>
        <time>2022-03-02T09:28:55.914Z</time>
      </trkpt>
      <trkpt lat="41.99012" lon="25.4249">
        <ele>281.30785</ele>
        <time>2022-03-02T09:29:00.942Z</time>
      </trkpt>
      <trkpt lat="41.99018" lon="25.4248">
        <ele>281.626423</ele>
        <time>2022-03-02T09:29:05.922Z</time>
      </trkpt>
      <trkpt lat="41.99024" lon="25.42471">
        <ele>281.942231</ele>
        <time>2022-03-02T09:29:10.894Z</time>
      </trkpt>
      <trkpt lat="41.9903" lon="25.4246">
        <ele>282.30256</ele>
        <time>2022-03-02T09:29:16.920Z</time>
      </trkpt>
      <trkpt lat="41.99037" lon="25.42449">
        <ele>282.666885</ele>
        <time>2022-03-02T09:29:22.958Z</time>
      </trkpt>
      <trkpt lat="41.99043" lon="25.42439">
        <ele>282.996589</ele>
        <time>2022-03-02T09:29:28.901Z</time>
      </trkpt>
      <trkpt lat="41.9905" lon="25.42429">
        <ele>283.342099</ele>
        <time>2022-03-02T09:29:35.914Z</time>
      </trkpt>
      <trkpt lat="41.99057" lon="25.42419">
        <ele>283.710267</ele>
        <time>2022-03-02T09:29:41.897Z</time>
      </trkpt>
      <trkpt lat="41.99064" lon="25.42409">
        <ele>284.067616</ele>
        <time>2022-03-02T09:29:47.905Z</time>
      </trkpt>
      <trkpt lat="41.99071" lon="25.42399">
        <ele>284.401399</ele>
        <time>2022-03-02T09:29:53.910Z</time>
      </trkpt>
      <trkpt lat="41.99077" lon="25.42389">
        <ele>284.736526</ele>
        <time>2022-03-02T09:29:59.914Z</time>
      </trkpt>
      <trkpt lat="41.99083" lon="25.42379">
        <ele>285.08671</ele>
        <time>2022-03-02T09:30:05.937Z</time>
      </trkpt>
      <trkpt lat="41.99089" lon="25.42368">
        <ele>285.440435</ele>
        <time>2022-03-02T09:30:11.896Z</time>
      </trkpt>
      <trkpt lat="41.99095" lon="25.42358">
        <ele>285.765659</ele>
        <time>2022-03-02T09:30:17.936Z</time>
      </trkpt>
      <trkpt lat="41.99102" lon="25.42349">
        <ele>286.079289</ele>
        <time>2022-03-02T09:30:23.889Z</time>
      </trkpt>
      <trkpt lat="41.99109" lon="25.42339">
        <ele>286.445113</ele>
        <time>2022-03-02T09:30:30.919Z</time>
      </trkpt>
      <trkpt lat="41.99115" lon="25.4233">
        <ele>286.650676</ele>
        <time>2022-03-02T09:30:36.922Z</time>
      </trkpt>
      <trkpt lat="41.99121" lon="25.42319">
        <ele>286.85113</ele>
        <time>2022-03-02T09:30:43.888Z</time>
      </trkpt>
      <trkpt lat="41.99129" lon="25.4231">
        <ele>287.039218</ele>
        <time>2022-03-02T09:30:49.904Z</time>
      </trkpt>
      <trkpt lat="41.99137" lon="25.42302">
        <ele>287.223821</ele>
        <time>2022-03-02T09:30:55.909Z</time>
      </trkpt>
      <trkpt lat="41.99146" lon="25.42296">
        <ele>287.423698</ele>
        <time>2022-03-02T09:31:01.910Z</time>
      </trkpt>
      <trkpt lat="41.99155" lon="25.42294">
        <ele>287.601001</ele>
        <time>2022-03-02T09:31:06.915Z</time>
      </trkpt>
      <trkpt lat="41.99165" lon="25.42294">
        <ele>287.790105</ele>
        <time>2022-03-02T09:31:11.914Z</time>
      </trkpt>
      <trkpt lat="41.99175" lon="25.42292">
        <ele>287.974628</ele>
        <time>2022-03-02T09:31:16.903Z</time>
      </trkpt>
      <trkpt lat="41.99185" lon="25.42293">
        <ele>288.175123</ele>
        <time>2022-03-02T09:31:20.912Z</time>
      </trkpt>
      <trkpt lat="41.99196" lon="25.42292">
        <ele>288.375642</ele>
        <time>2022-03-02T09:31:24.897Z</time>
      </trkpt>
      <trkpt lat="41.99206" lon="25.42291">
        <ele>288.574714</ele>
        <time>2022-03-02T09:31:28.908Z</time>
      </trkpt>
      <trkpt lat="41.99216" lon="25.42293">
        <ele>288.771727</ele>
        <time>2022-03-02T09:31:33.894Z</time>
      </trkpt>
      <trkpt lat="41.99226" lon="25.42293">
        <ele>288.953131</ele>
        <time>2022-03-02T09:31:38.918Z</time>
      </trkpt>
      <trkpt lat="41.99235" lon="25.42292">
        <ele>289.132962</ele>
        <time>2022-03-02T09:31:42.906Z</time>
      </trkpt>
      <trkpt lat="41.99244" lon="25.42292">
        <ele>289.308668</ele>
        <time>2022-03-02T09:31:46.936Z</time>
      </trkpt>
      <trkpt lat="41.99255" lon="25.42291">
        <ele>289.511231</ele>
        <time>2022-03-02T09:31:51.904Z</time>
      </trkpt>
      <trkpt lat="41.99265" lon="25.42291">
        <ele>289.694527</ele>
        <time>2022-03-02T09:31:56.904Z</time>
      </trkpt>
      <trkpt lat="41.99275" lon="25.42291">
        <ele>289.891204</ele>
        <time>2022-03-02T09:32:02.916Z</time>
      </trkpt>
      <trkpt lat="41.99284" lon="25.42292">
        <ele>289.97866</ele>
        <time>2022-03-02T09:32:08.924Z</time>
      </trkpt>
      <trkpt lat="41.99294" lon="25.4229">
        <ele>290.02213</ele>
        <time>2022-03-02T09:32:15.979Z</time>
      </trkpt>
      <trkpt lat="41.99304" lon="25.4229">
        <ele>290.064986</ele>
        <time>2022-03-02T09:32:22.887Z</time>
      </trkpt>
      <trkpt lat="41.99314" lon="25.4229">
        <ele>290.104374</ele>
        <time>2022-03-02T09:32:28.906Z</time>
      </trkpt>
      <trkpt lat="41.99323" lon="25.4229">
        <ele>290.146428</ele>
        <time>2022-03-02T09:32:34.896Z</time>
      </trkpt>
      <trkpt lat="41.99334" lon="25.4229">
        <ele>290.190099</ele>
        <time>2022-03-02T09:32:40.918Z</time>
      </trkpt>
      <trkpt lat="41.99345" lon="25.4229">
        <ele>290.240619</ele>
        <time>2022-03-02T09:32:45.905Z</time>
      </trkpt>
      <trkpt lat="41.99356" lon="25.42291">
        <ele>290.286447</ele>
        <time>2022-03-02T09:32:48.920Z</time>
      </trkpt>
      <trkpt lat="41.99367" lon="25.42291">
        <ele>290.332703</ele>
        <time>2022-03-02T09:32:51.913Z</time>
      </trkpt>
      <trkpt lat="41.99378" lon="25.42293">
        <ele>290.382139</ele>
        <time>2022-03-02T09:32:54.943Z</time>
      </trkpt>
      <trkpt lat="41.9939" lon="25.42294">
        <ele>290.433167</ele>
        <time>2022-03-02T09:32:57.904Z</time>
      </trkpt>
      <trkpt lat="41.99402" lon="25.42294">
        <ele>290.481983</ele>
        <time>2022-03-02T09:33:00.913Z</time>
      </trkpt>
      <trkpt lat="41.99411" lon="25.42294">
        <ele>290.522675</ele>
        <time>2022-03-02T09:33:03.913Z</time>
      </trkpt>
      <trkpt lat="41.99421" lon="25.42294">
        <ele>290.563348</ele>
        <time>2022-03-02T09:33:07.900Z</time>
      </trkpt>
      <trkpt lat="41.99431" lon="25.42294">
        <ele>290.606607</ele>
        <time>2022-03-02T09:33:11.945Z</time>
      </trkpt>
      <trkpt lat="41.99441" lon="25.42295">
        <ele>290.648768</ele>
        <time>2022-03-02T09:33:15.899Z</time>
      </trkpt>
      <trkpt lat="41.9945" lon="25.42297">
        <ele>290.688483</ele>
        <time>2022-03-02T09:33:19.898Z</time>
      </trkpt>
      <trkpt lat="41.99459" lon="25.42298">
        <ele>290.785069</ele>
        <time>2022-03-02T09:33:23.897Z</time>
      </trkpt>
      <trkpt lat="41.99468" lon="25.42299">
        <ele>291.193515</ele>
        <time>2022-03-02T09:33:27.934Z</time>
      </trkpt>
      <trkpt lat="41.99478" lon="25.423">
        <ele>291.645136</ele>
        <time>2022-03-02T09:33:31.905Z</time>
      </trkpt>
      <trkpt lat="41.99488" lon="25.423">
        <ele>292.069877</ele>
        <time>2022-03-02T09:33:35.907Z</time>
      </trkpt>
      <trkpt lat="41.99498" lon="25.42301">
        <ele>292.518693</ele>
        <time>2022-03-02T09:33:39.904Z</time>
      </trkpt>
      <trkpt lat="41.99508" lon="25.423">
        <ele>292.992847</ele>
        <time>2022-03-02T09:33:44.943Z</time>
      </trkpt>
      <trkpt lat="41.99519" lon="25.42301">
        <ele>293.466722</ele>
        <time>2022-03-02T09:33:49.944Z</time>
      </trkpt>
      <trkpt lat="41.99529" lon="25.42299">
        <ele>293.902498</ele>
        <time>2022-03-02T09:33:55.899Z</time>
      </trkpt>
      <trkpt lat="41.99538" lon="25.42299">
        <ele>294.340611</ele>
        <time>2022-03-02T09:34:00.902Z</time>
      </trkpt>
      <trkpt lat="41.99548" lon="25.42299">
        <ele>294.792122</ele>
        <time>2022-03-02T09:34:06.903Z</time>
      </trkpt>
      <trkpt lat="41.99559" lon="25.423">
        <ele>295.248153</ele>
        <time>2022-03-02T09:34:12.917Z</time>
      </trkpt>
      <trkpt lat="41.99568" lon="25.42299">
        <ele>295.668384</ele>
        <time>2022-03-02T09:34:18.916Z</time>
      </trkpt>
      <trkpt lat="41.99578" lon="25.42298">
        <ele>296.099392</ele>
        <time>2022-03-02T09:34:24.909Z</time>
      </trkpt>
      <trkpt lat="41.99587" lon="25.42298">
        <ele>296.501729</ele>
        <time>2022-03-02T09:34:30.904Z</time>
      </trkpt>
      <trkpt lat="41.99596" lon="25.42299">
        <ele>296.935562</ele>
        <time>2022-03-02T09:34:37.903Z</time>
      </trkpt>
      <trkpt lat="41.99606" lon="25.42298">
        <ele>297.352159</ele>
        <time>2022-03-02T09:34:43.947Z</time>
      </trkpt>
      <trkpt lat="41.99615" lon="25.42299">
        <ele>297.777899</ele>
        <time>2022-03-02T09:34:49.893Z</time>
      </trkpt>
      <trkpt lat="41.99624" lon="25.42298">
        <ele>298.186345</ele>
        <time>2022-03-02T09:34:55.908Z</time>
      </trkpt>
      <trkpt lat="41.99633" lon="25.42297">
        <ele>298.588737</ele>
        <time>2022-03-02T09:35:01.903Z</time>
      </trkpt>
      <trkpt lat="41.99642" lon="25.42296">
        <ele>298.719695</ele>
        <time>2022-03-02T09:35:07.914Z</time>
      </trkpt>
      <trkpt lat="41.99652" lon="25.42294">
        <ele>298.633115</ele>
        <time>2022-03-02T09:35:14.892Z</time>
      </trkpt>
      <trkpt lat="41.99662" lon="25.42296">
        <ele>298.551064</ele>
        <time>2022-03-02T09:35:20.917Z</time>
      </trkpt>
      <trkpt lat="41.99671" lon="25.42297">
        <ele>298.474771</ele>
        <time>2022-03-02T09:35:26.906Z</time>
      </trkpt>
      <trkpt lat="41.99681" lon="25.42297">
        <ele>298.389484</ele>
        <time>2022-03-02T09:35:32.906Z</time>
      </trkpt>
      <trkpt lat="41.99691" lon="25.42297">
        <ele>298.310885</ele>
        <time>2022-03-02T09:35:36.904Z</time>
      </trkpt>
      <trkpt lat="41.99702" lon="25.42296">
        <ele>298.21722</ele>
        <time>2022-03-02T09:35:40.901Z</time>
      </trkpt>
      <trkpt lat="41.99714" lon="25.42295">
        <ele>298.120823</ele>
        <time>2022-03-02T09:35:44.922Z</time>
      </trkpt>
      <trkpt lat="41.99723" lon="25.42295">
        <ele>298.039708</ele>
        <time>2022-03-02T09:35:47.884Z</time>
      </trkpt>
      <trkpt lat="41.99733" lon="25.42295">
        <ele>297.960266</ele>
        <time>2022-03-02T09:35:50.905Z</time>
      </trkpt>
      <trkpt lat="41.99742" lon="25.42294">
        <ele>297.882417</ele>
        <time>2022-03-02T09:35:53.924Z</time>
      </trkpt>
      <trkpt lat="41.99753" lon="25.42293">
        <ele>297.78773</ele>
        <time>2022-03-02T09:35:57.905Z</time>
      </trkpt>
      <trkpt lat="41.99764" lon="25.42293">
        <ele>297.702389</ele>
        <time>2022-03-02T09:36:01.945Z</time>
      </trkpt>
      <trkpt lat="41.99774" lon="25.42292">
        <ele>297.616959</ele>
        <time>2022-03-02T09:36:05.918Z</time>
      </trkpt>
      <trkpt lat="41.99784" lon="25.42292">
        <ele>297.528294</ele>
        <time>2022-03-02T09:36:09.913Z</time>
      </trkpt>
      <trkpt lat="41.99796" lon="25.42292">
        <ele>297.430449</ele>
        <time>2022-03-02T09:36:13.938Z</time>
      </trkpt>
      <trkpt lat="41.99805" lon="25.42291">
        <ele>297.353102</ele>
        <time>2022-03-02T09:36:16.910Z</time>
      </trkpt>
      <trkpt lat="41.99815" lon="25.4229">
        <ele>297.274497</ele>
        <time>2022-03-02T09:36:19.894Z</time>
      </trkpt>
      <trkpt lat="41.99825" lon="25.42291">
        <ele>296.619257</ele>
        <time>2022-03-02T09:36:22.906Z</time>
      </trkpt>
      <trkpt lat="41.99837" lon="25.42292">
        <ele>295.697081</ele>
        <time>2022-03-02T09:36:25.900Z</time>
      </trkpt>
      <trkpt lat="41.99848" lon="25.42292">
        <ele>294.925972</ele>
        <time>2022-03-02T09:36:28.899Z</time>
      </trkpt>
      <trkpt lat="41.99859" lon="25.42292">
        <ele>294.109795</ele>
        <time>2022-03-02T09:36:31.946Z</time>
      </trkpt>
      <trkpt lat="41.99871" lon="25.42291">
        <ele>293.188375</ele>
        <time>2022-03-02T09:36:34.913Z</time>
      </trkpt>
      <trkpt lat="41.99884" lon="25.42291">
        <ele>292.199417</ele>
        <time>2022-03-02T09:36:37.898Z</time>
      </trkpt>
      <trkpt lat="41.99897" lon="25.42291">
        <ele>291.202978</ele>
        <time>2022-03-02T09:36:40.933Z</time>
      </trkpt>
      <trkpt lat="41.9991" lon="25.42294">
        <ele>290.236226</ele>
        <time>2022-03-02T09:36:43.905Z</time>
      </trkpt>
      <trkpt lat="41.99919" lon="25.42296">
        <ele>289.549356</ele>
        <time>2022-03-02T09:36:45.921Z</time>
      </trkpt>
      <trkpt lat="41.99932" lon="25.42301">
        <ele>288.573651</ele>
        <time>2022-03-02T09:36:48.901Z</time>
      </trkpt>
      <trkpt lat="41.99943" lon="25.42308">
        <ele>287.678671</ele>
        <time>2022-03-02T09:36:51.919Z</time>
      </trkpt>
      <trkpt lat="41.99953" lon="25.42315">
        <ele>286.792247</ele>
        <time>2022-03-02T09:36:54.910Z</time>
      </trkpt>
      <trkpt lat="41.99963" lon="25.42322">
        <ele>285.930888</ele>
        <time>2022-03-02T09:36:57.896Z</time>
      </trkpt>
      <trkpt lat="41.99974" lon="25.42329">
        <ele>285.044465</ele>
        <time>2022-03-02T09:37:00.903Z</time>
      </trkpt>
      <trkpt lat="41.99984" lon="25.42335">
        <ele>284.228213</ele>
        <time>2022-03-02T09:37:02.956Z</time>
      </trkpt>
      <trkpt lat="41.99994" lon="25.42343">
        <ele>283.676948</ele>
        <time>2022-03-02T09:37:04.900Z</time>
      </trkpt>
      <trkpt lat="42.00003" lon="25.42349">
        <ele>283.48023</ele>
        <time>2022-03-02T09:37:06.893Z</time>
      </trkpt>
      <trkpt lat="42.00014" lon="25.42358">
        <ele>283.202532</ele>
        <time>2022-03-02T09:37:09.913Z</time>
      </trkpt>
      <trkpt lat="42.00023" lon="25.42365">
        <ele>282.997948</ele>
        <time>2022-03-02T09:37:11.932Z</time>
      </trkpt>
      <trkpt lat="42.00031" lon="25.42371">
        <ele>282.803917</ele>
        <time>2022-03-02T09:37:13.951Z</time>
      </trkpt>
      <trkpt lat="42.0004" lon="25.42379">
        <ele>282.591576</ele>
        <time>2022-03-02T09:37:16.900Z</time>
      </trkpt>
      <trkpt lat="42.00048" lon="25.42384">
        <ele>282.404362</ele>
        <time>2022-03-02T09:37:20.916Z</time>
      </trkpt>
      <trkpt lat="42.00056" lon="25.42391">
        <ele>282.217107</ele>
        <time>2022-03-02T09:37:24.887Z</time>
      </trkpt>
      <trkpt lat="42.00064" lon="25.42398">
        <ele>282.03342</ele>
        <time>2022-03-02T09:37:28.909Z</time>
      </trkpt>
      <trkpt lat="42.00071" lon="25.42405">
        <ele>281.847982</ele>
        <time>2022-03-02T09:37:32.900Z</time>
      </trkpt>
      <trkpt lat="42.0008" lon="25.42412">
        <ele>281.633361</ele>
        <time>2022-03-02T09:37:36.905Z</time>
      </trkpt>
      <trkpt lat="42.0009" lon="25.42419">
        <ele>281.404838</ele>
        <time>2022-03-02T09:37:40.908Z</time>
      </trkpt>
      <trkpt lat="42.00101" lon="25.42427">
        <ele>281.164513</ele>
        <time>2022-03-02T09:37:44.888Z</time>
      </trkpt>
      <trkpt lat="42.00109" lon="25.42434">
        <ele>280.959745</ele>
        <time>2022-03-02T09:37:47.946Z</time>
      </trkpt>
      <trkpt lat="42.00119" lon="25.42441">
        <ele>280.731936</ele>
        <time>2022-03-02T09:37:50.925Z</time>
      </trkpt>
      <trkpt lat="42.00129" lon="25.42448">
        <ele>280.509029</ele>
        <time>2022-03-02T09:37:53.895Z</time>
      </trkpt>
      <trkpt lat="42.00137" lon="25.42456">
        <ele>280.298151</ele>
        <time>2022-03-02T09:37:56.895Z</time>
      </trkpt>
      <trkpt lat="42.00146" lon="25.42463">
        <ele>280.080802</ele>
        <time>2022-03-02T09:37:59.907Z</time>
      </trkpt>
      <trkpt lat="42.00154" lon="25.42469">
        <ele>279.792085</ele>
        <time>2022-03-02T09:38:02.916Z</time>
      </trkpt>
      <trkpt lat="42.00163" lon="25.42476">
        <ele>279.466029</ele>
        <time>2022-03-02T09:38:06.906Z</time>
      </trkpt>
      <trkpt lat="42.00171" lon="25.42483">
        <ele>279.179554</ele>
        <time>2022-03-02T09:38:10.903Z</time>
      </trkpt>
      <trkpt lat="42.00179" lon="25.4249">
        <ele>278.886685</ele>
        <time>2022-03-02T09:38:14.911Z</time>
      </trkpt>
      <trkpt lat="42.00187" lon="25.42496">
        <ele>278.599927</ele>
        <time>2022-03-02T09:38:18.896Z</time>
      </trkpt>
      <trkpt lat="42.00196" lon="25.42503">
        <ele>278.300332</ele>
        <time>2022-03-02T09:38:22.898Z</time>
      </trkpt>
      <trkpt lat="42.00204" lon="25.42509">
        <ele>278.007158</ele>
        <time>2022-03-02T09:38:26.910Z</time>
      </trkpt>
      <trkpt lat="42.00214" lon="25.42515">
        <ele>277.662687</ele>
        <time>2022-03-02T09:38:30.903Z</time>
      </trkpt>
      <trkpt lat="42.00223" lon="25.42521">
        <ele>277.380925</ele>
        <time>2022-03-02T09:38:33.909Z</time>
      </trkpt>
      <trkpt lat="42.00233" lon="25.42528">
        <ele>277.040558</ele>
        <time>2022-03-02T09:38:36.919Z</time>
      </trkpt>
      <trkpt lat="42.00242" lon="25.42536">
        <ele>276.682046</ele>
        <time>2022-03-02T09:38:39.943Z</time>
      </trkpt>
      <trkpt lat="42.00252" lon="25.42544">
        <ele>276.330668</ele>
        <time>2022-03-02T09:38:42.944Z</time>
      </trkpt>
      <trkpt lat="42.00262" lon="25.42551">
        <ele>275.989801</ele>
        <time>2022-03-02T09:38:45.905Z</time>
      </trkpt>
      <trkpt lat="42.0027" lon="25.42558">
        <ele>275.693146</ele>
        <time>2022-03-02T09:38:48.958Z</time>
      </trkpt>
      <trkpt lat="42.0028" lon="25.42566">
        <ele>275.351017</ele>
        <time>2022-03-02T09:38:51.915Z</time>
      </trkpt>
      <trkpt lat="42.00289" lon="25.42574">
        <ele>275.007679</ele>
        <time>2022-03-02T09:38:54.919Z</time>
      </trkpt>
      <trkpt lat="42.00298" lon="25.4258">
        <ele>274.718408</ele>
        <time>2022-03-02T09:38:57.907Z</time>
      </trkpt>
      <trkpt lat="42.00308" lon="25.42588">
        <ele>273.874357</ele>
        <time>2022-03-02T09:39:00.892Z</time>
      </trkpt>
      <trkpt lat="42.00319" lon="25.42596">
        <ele>272.890803</ele>
        <time>2022-03-02T09:39:03.908Z</time>
      </trkpt>
      <trkpt lat="42.00329" lon="25.42602">
        <ele>271.999632</ele>
        <time>2022-03-02T09:39:06.920Z</time>
      </trkpt>
      <trkpt lat="42.00339" lon="25.4261">
        <ele>271.028884</ele>
        <time>2022-03-02T09:39:09.924Z</time>
      </trkpt>
      <trkpt lat="42.00349" lon="25.42617">
        <ele>270.110657</ele>
        <time>2022-03-02T09:39:12.939Z</time>
      </trkpt>
      <trkpt lat="42.00359" lon="25.42624">
        <ele>269.209447</ele>
        <time>2022-03-02T09:39:15.893Z</time>
      </trkpt>
      <trkpt lat="42.00369" lon="25.42632">
        <ele>268.277089</ele>
        <time>2022-03-02T09:39:18.917Z</time>
      </trkpt>
      <trkpt lat="42.00379" lon="25.42639">
        <ele>267.409911</ele>
        <time>2022-03-02T09:39:21.917Z</time>
      </trkpt>
      <trkpt lat="42.00388" lon="25.42647">
        <ele>266.531061</ele>
        <time>2022-03-02T09:39:24.898Z</time>
      </trkpt>
      <trkpt lat="42.00399" lon="25.42657">
        <ele>265.420367</ele>
        <time>2022-03-02T09:39:27.910Z</time>
      </trkpt>
      <trkpt lat="42.00408" lon="25.42663">
        <ele>264.624187</ele>
        <time>2022-03-02T09:39:29.895Z</time>
      </trkpt>
      <trkpt lat="42.00416" lon="25.42669">
        <ele>263.883956</ele>
        <time>2022-03-02T09:39:31.900Z</time>
      </trkpt>
      <trkpt lat="42.00425" lon="25.42675">
        <ele>263.033201</ele>
        <time>2022-03-02T09:39:34.925Z</time>
      </trkpt>
      <trkpt lat="42.00434" lon="25.4268">
        <ele>262.289575</ele>
        <time>2022-03-02T09:39:37.934Z</time>
      </trkpt>
      <trkpt lat="42.00445" lon="25.42682">
        <ele>261.393962</ele>
        <time>2022-03-02T09:39:40.889Z</time>
      </trkpt>
      <trkpt lat="42.00456" lon="25.4268">
        <ele>260.506372</ele>
        <time>2022-03-02T09:39:43.909Z</time>
      </trkpt>
      <trkpt lat="42.00465" lon="25.42677">
        <ele>259.919625</ele>
        <time>2022-03-02T09:39:46.917Z</time>
      </trkpt>
      <trkpt lat="42.00477" lon="25.42675">
        <ele>259.383235</ele>
        <time>2022-03-02T09:39:50.913Z</time>
      </trkpt>
      <trkpt lat="42.00487" lon="25.42681">
        <ele>258.883734</ele>
        <time>2022-03-02T09:39:53.919Z</time>
      </trkpt>
      <trkpt lat="42.00496" lon="25.42692">
        <ele>258.332612</ele>
        <time>2022-03-02T09:39:56.913Z</time>
      </trkpt>
      <trkpt lat="42.00502" lon="25.42707">
        <ele>257.772449</ele>
        <time>2022-03-02T09:39:59.905Z</time>
      </trkpt>
      <trkpt lat="42.00507" lon="25.4272">
        <ele>257.318253</ele>
        <time>2022-03-02T09:40:01.946Z</time>
      </trkpt>
      <trkpt lat="42.0051" lon="25.42732">
        <ele>256.870429</ele>
        <time>2022-03-02T09:40:03.914Z</time>
      </trkpt>
      <trkpt lat="42.00514" lon="25.42744">
        <ele>256.446576</ele>
        <time>2022-03-02T09:40:05.906Z</time>
      </trkpt>
      <trkpt lat="42.00519" lon="25.4276">
        <ele>255.888486</ele>
        <time>2022-03-02T09:40:08.900Z</time>
      </trkpt>
      <trkpt lat="42.00523" lon="25.42775">
        <ele>255.340834</ele>
        <time>2022-03-02T09:40:11.899Z</time>
      </trkpt>
      <trkpt lat="42.0053" lon="25.42788">
        <ele>254.827039</ele>
        <time>2022-03-02T09:40:14.901Z</time>
      </trkpt>
      <trkpt lat="42.00539" lon="25.42799">
        <ele>254.260669</ele>
        <time>2022-03-02T09:40:17.916Z</time>
      </trkpt>
      <trkpt lat="42.00551" lon="25.42804">
        <ele>253.728345</ele>
        <time>2022-03-02T09:40:20.896Z</time>
      </trkpt>
      <trkpt lat="42.00561" lon="25.42808">
        <ele>253.234976</ele>
        <time>2022-03-02T09:40:24.914Z</time>
      </trkpt>
      <trkpt lat="42.00573" lon="25.42812">
        <ele>252.691853</ele>
        <time>2022-03-02T09:40:28.916Z</time>
      </trkpt>
      <trkpt lat="42.00582" lon="25.42817">
        <ele>252.265662</ele>
        <time>2022-03-02T09:40:31.894Z</time>
      </trkpt>
      <trkpt lat="42.00593" lon="25.42821">
        <ele>251.807122</ele>
        <time>2022-03-02T09:40:34.940Z</time>
      </trkpt>
      <trkpt lat="42.00603" lon="25.42826">
        <ele>251.377761</ele>
        <time>2022-03-02T09:40:37.953Z</time>
      </trkpt>
      <trkpt lat="42.00613" lon="25.42829">
        <ele>250.940484</ele>
        <time>2022-03-02T09:40:40.916Z</time>
      </trkpt>
      <trkpt lat="42.00624" lon="25.42831">
        <ele>250.522611</ele>
        <time>2022-03-02T09:40:43.907Z</time>
      </trkpt>
      <trkpt lat="42.00635" lon="25.42835">
        <ele>250.06231</ele>
        <time>2022-03-02T09:40:46.912Z</time>
      </trkpt>
      <trkpt lat="42.00645" lon="25.42838">
        <ele>249.647226</ele>
        <time>2022-03-02T09:40:49.902Z</time>
      </trkpt>
      <trkpt lat="42.00657" lon="25.42841">
        <ele>249.158756</ele>
        <time>2022-03-02T09:40:52.907Z</time>
      </trkpt>
      <trkpt lat="42.00667" lon="25.42844">
        <ele>248.720551</ele>
        <time>2022-03-02T09:40:55.906Z</time>
      </trkpt>
      <trkpt lat="42.00678" lon="25.42846">
        <ele>248.273754</ele>
        <time>2022-03-02T09:40:58.912Z</time>
      </trkpt>
      <trkpt lat="42.00689" lon="25.42846">
        <ele>247.838773</ele>
        <time>2022-03-02T09:41:01.914Z</time>
      </trkpt>
      <trkpt lat="42.007" lon="25.42846">
        <ele>247.395635</ele>
        <time>2022-03-02T09:41:04.956Z</time>
      </trkpt>
      <trkpt lat="42.00712" lon="25.42847">
        <ele>246.919897</ele>
        <time>2022-03-02T09:41:07.907Z</time>
      </trkpt>
      <trkpt lat="42.00723" lon="25.42848">
        <ele>246.457874</ele>
        <time>2022-03-02T09:41:10.906Z</time>
      </trkpt>
      <trkpt lat="42.00734" lon="25.42849">
        <ele>246.022318</ele>
        <time>2022-03-02T09:41:13.897Z</time>
      </trkpt>
      <trkpt lat="42.00743" lon="25.4285">
        <ele>245.651563</ele>
        <time>2022-03-02T09:41:16.922Z</time>
      </trkpt>
      <trkpt lat="42.00754" lon="25.42851">
        <ele>245.22284</ele>
        <time>2022-03-02T09:41:19.916Z</time>
      </trkpt>
      <trkpt lat="42.00765" lon="25.42852">
        <ele>244.675573</ele>
        <time>2022-03-02T09:41:22.907Z</time>
      </trkpt>
      <trkpt lat="42.00774" lon="25.42852">
        <ele>243.88639</ele>
        <time>2022-03-02T09:41:25.913Z</time>
      </trkpt>
      <trkpt lat="42.00785" lon="25.42852">
        <ele>242.945352</ele>
        <time>2022-03-02T09:41:29.903Z</time>
      </trkpt>
      <trkpt lat="42.00797" lon="25.42851">
        <ele>241.927517</ele>
        <time>2022-03-02T09:41:32.912Z</time>
      </trkpt>
      <trkpt lat="42.00808" lon="25.42851">
        <ele>240.994613</ele>
        <time>2022-03-02T09:41:35.910Z</time>
      </trkpt>
      <trkpt lat="42.00819" lon="25.42852">
        <ele>240.120461</ele>
        <time>2022-03-02T09:41:39.901Z</time>
      </trkpt>
      <trkpt lat="42.00829" lon="25.42854">
        <ele>239.259177</ele>
        <time>2022-03-02T09:41:44.900Z</time>
      </trkpt>
      <trkpt lat="42.00839" lon="25.42852">
        <ele>238.357536</ele>
        <time>2022-03-02T09:41:49.893Z</time>
      </trkpt>
      <trkpt lat="42.0085" lon="25.42852">
        <ele>237.457282</ele>
        <time>2022-03-02T09:41:53.897Z</time>
      </trkpt>
      <trkpt lat="42.0086" lon="25.42851">
        <ele>236.608829</ele>
        <time>2022-03-02T09:41:58.905Z</time>
      </trkpt>
      <trkpt lat="42.00871" lon="25.42849">
        <ele>235.661175</ele>
        <time>2022-03-02T09:42:03.901Z</time>
      </trkpt>
      <trkpt lat="42.00882" lon="25.42848">
        <ele>234.758984</ele>
        <time>2022-03-02T09:42:08.939Z</time>
      </trkpt>
      <trkpt lat="42.00892" lon="25.42846">
        <ele>233.907438</ele>
        <time>2022-03-02T09:42:12.915Z</time>
      </trkpt>
      <trkpt lat="42.00902" lon="25.42842">
        <ele>233.021104</ele>
        <time>2022-03-02T09:42:17.921Z</time>
      </trkpt>
      <trkpt lat="42.00913" lon="25.42839">
        <ele>232.025734</ele>
        <time>2022-03-02T09:42:21.920Z</time>
      </trkpt>
      <trkpt lat="42.00922" lon="25.42836">
        <ele>231.219976</ele>
        <time>2022-03-02T09:42:24.913Z</time>
      </trkpt>
      <trkpt lat="42.00933" lon="25.42831">
        <ele>230.283902</ele>
        <time>2022-03-02T09:42:28.903Z</time>
      </trkpt>
      <trkpt lat="42.00943" lon="25.42828">
        <ele>229.448635</ele>
        <time>2022-03-02T09:42:31.900Z</time>
      </trkpt>
      <trkpt lat="42.00954" lon="25.42824">
        <ele>228.588618</ele>
        <time>2022-03-02T09:42:34.913Z</time>
      </trkpt>
      <trkpt lat="42.00965" lon="25.42819">
        <ele>227.680896</ele>
        <time>2022-03-02T09:42:37.934Z</time>
      </trkpt>
      <trkpt lat="42.00976" lon="25.42815">
        <ele>226.829747</ele>
        <time>2022-03-02T09:42:40.904Z</time>
      </trkpt>
      <trkpt lat="42.00987" lon="25.42812">
        <ele>225.945279</ele>
        <time>2022-03-02T09:42:44.903Z</time>
      </trkpt>
      <trkpt lat="42.00996" lon="25.42811">
        <ele>225.244187</ele>
        <time>2022-03-02T09:42:47.906Z</time>
      </trkpt>
      <trkpt lat="42.01007" lon="25.42811">
        <ele>224.44758</ele>
        <time>2022-03-02T09:42:50.890Z</time>
      </trkpt>
      <trkpt lat="42.0102" lon="25.42814">
        <ele>223.422778</ele>
        <time>2022-03-02T09:42:53.889Z</time>
      </trkpt>
      <trkpt lat="42.0103" lon="25.42816">
        <ele>222.710113</ele>
        <time>2022-03-02T09:42:55.884Z</time>
      </trkpt>
      <trkpt lat="42.01039" lon="25.42818">
        <ele>221.964908</ele>
        <time>2022-03-02T09:42:57.931Z</time>
      </trkpt>
      <trkpt lat="42.01049" lon="25.42821">
        <ele>221.21471</ele>
        <time>2022-03-02T09:42:59.903Z</time>
      </trkpt>
      <trkpt lat="42.01061" lon="25.42823">
        <ele>220.319405</ele>
        <time>2022-03-02T09:43:02.904Z</time>
      </trkpt>
      <trkpt lat="42.01072" lon="25.42825">
        <ele>219.475043</ele>
        <time>2022-03-02T09:43:05.918Z</time>
      </trkpt>
      <trkpt lat="42.01082" lon="25.42829">
        <ele>218.638486</ele>
        <time>2022-03-02T09:43:08.875Z</time>
      </trkpt>
      <trkpt lat="42.01094" lon="25.42833">
        <ele>217.730202</ele>
        <time>2022-03-02T09:43:11.914Z</time>
      </trkpt>
      <trkpt lat="42.01107" lon="25.42838">
        <ele>216.703112</ele>
        <time>2022-03-02T09:43:14.923Z</time>
      </trkpt>
      <trkpt lat="42.01117" lon="25.42841">
        <ele>215.960982</ele>
        <time>2022-03-02T09:43:16.902Z</time>
      </trkpt>
      <trkpt lat="42.01125" lon="25.42844">
        <ele>215.532931</ele>
        <time>2022-03-02T09:43:18.924Z</time>
      </trkpt>
      <trkpt lat="42.01135" lon="25.42847">
        <ele>215.073749</ele>
        <time>2022-03-02T09:43:23.907Z</time>
      </trkpt>
      <trkpt lat="42.01146" lon="25.42849">
        <ele>214.557396</ele>
        <time>2022-03-02T09:43:28.904Z</time>
      </trkpt>
      <trkpt lat="42.01155" lon="25.42852">
        <ele>214.124791</ele>
        <time>2022-03-02T09:43:31.916Z</time>
      </trkpt>
      <trkpt lat="42.01165" lon="25.42855">
        <ele>213.607883</ele>
        <time>2022-03-02T09:43:34.914Z</time>
      </trkpt>
      <trkpt lat="42.01178" lon="25.42859">
        <ele>212.992543</ele>
        <time>2022-03-02T09:43:37.912Z</time>
      </trkpt>
      <trkpt lat="42.01188" lon="25.42861">
        <ele>212.516505</ele>
        <time>2022-03-02T09:43:39.916Z</time>
      </trkpt>
      <trkpt lat="42.01199" lon="25.42864">
        <ele>212.0075</ele>
        <time>2022-03-02T09:43:41.903Z</time>
      </trkpt>
      <trkpt lat="42.0121" lon="25.42868">
        <ele>211.472577</ele>
        <time>2022-03-02T09:43:43.902Z</time>
      </trkpt>
      <trkpt lat="42.01222" lon="25.4287">
        <ele>210.909913</ele>
        <time>2022-03-02T09:43:45.922Z</time>
      </trkpt>
      <trkpt lat="42.01234" lon="25.42873">
        <ele>210.330943</ele>
        <time>2022-03-02T09:43:47.918Z</time>
      </trkpt>
      <trkpt lat="42.01245" lon="25.42876">
        <ele>209.79602</ele>
        <time>2022-03-02T09:43:49.912Z</time>
      </trkpt>
      <trkpt lat="42.01256" lon="25.4288">
        <ele>209.276376</ele>
        <time>2022-03-02T09:43:51.910Z</time>
      </trkpt>
      <trkpt lat="42.01266" lon="25.42882">
        <ele>208.789116</ele>
        <time>2022-03-02T09:43:53.903Z</time>
      </trkpt>
      <trkpt lat="42.01276" lon="25.42884">
        <ele>208.315123</ele>
        <time>2022-03-02T09:43:55.909Z</time>
      </trkpt>
      <trkpt lat="42.01286" lon="25.42887">
        <ele>207.847594</ele>
        <time>2022-03-02T09:43:57.912Z</time>
      </trkpt>
      <trkpt lat="42.01295" lon="25.42889">
        <ele>207.518843</ele>
        <time>2022-03-02T09:43:59.932Z</time>
      </trkpt>
      <trkpt lat="42.01306" lon="25.42894">
        <ele>207.513803</ele>
        <time>2022-03-02T09:44:02.909Z</time>
      </trkpt>
      <trkpt lat="42.01318" lon="25.42897">
        <ele>207.508601</ele>
        <time>2022-03-02T09:44:06.894Z</time>
      </trkpt>
      <trkpt lat="42.01328" lon="25.42897">
        <ele>207.50445</ele>
        <time>2022-03-02T09:44:09.904Z</time>
      </trkpt>
      <trkpt lat="42.01338" lon="25.42892">
        <ele>207.499849</ele>
        <time>2022-03-02T09:44:13.953Z</time>
      </trkpt>
      <trkpt lat="42.01345" lon="25.42882">
        <ele>207.495383</ele>
        <time>2022-03-02T09:44:18.914Z</time>
      </trkpt>
      <trkpt lat="42.01352" lon="25.42872">
        <ele>207.490909</ele>
        <time>2022-03-02T09:44:23.907Z</time>
      </trkpt>
      <trkpt lat="42.01361" lon="25.42863">
        <ele>207.485925</ele>
        <time>2022-03-02T09:44:28.932Z</time>
      </trkpt>
      <trkpt lat="42.01368" lon="25.42853">
        <ele>207.481512</ele>
        <time>2022-03-02T09:44:32.920Z</time>
      </trkpt>
      <trkpt lat="42.01376" lon="25.42842">
        <ele>207.476644</ele>
        <time>2022-03-02T09:44:36.898Z</time>
      </trkpt>
      <trkpt lat="42.01384" lon="25.42832">
        <ele>207.472102</ele>
        <time>2022-03-02T09:44:40.899Z</time>
      </trkpt>
      <trkpt lat="42.01392" lon="25.4282">
        <ele>207.466994</ele>
        <time>2022-03-02T09:44:44.896Z</time>
      </trkpt>
      <trkpt lat="42.01399" lon="25.4281">
        <ele>207.462369</ele>
        <time>2022-03-02T09:44:48.920Z</time>
      </trkpt>
      <trkpt lat="42.01407" lon="25.428">
        <ele>207.457782</ele>
        <time>2022-03-02T09:44:52.923Z</time>
      </trkpt>
      <trkpt lat="42.01414" lon="25.4279">
        <ele>207.453401</ele>
        <time>2022-03-02T09:44:56.910Z</time>
      </trkpt>
      <trkpt lat="42.01421" lon="25.42781">
        <ele>207.449309</ele>
        <time>2022-03-02T09:45:00.930Z</time>
      </trkpt>
      <trkpt lat="42.01428" lon="25.4277">
        <ele>207.44449</ele>
        <time>2022-03-02T09:45:05.906Z</time>
      </trkpt>
      <trkpt lat="42.01436" lon="25.4276">
        <ele>207.465255</ele>
        <time>2022-03-02T09:45:10.914Z</time>
      </trkpt>
      <trkpt lat="42.01444" lon="25.42752">
        <ele>207.501733</ele>
        <time>2022-03-02T09:45:14.903Z</time>
      </trkpt>
      <trkpt lat="42.01455" lon="25.42747">
        <ele>207.545126</ele>
        <time>2022-03-02T09:45:18.911Z</time>
      </trkpt>
      <trkpt lat="42.01465" lon="25.42745">
        <ele>207.583821</ele>
        <time>2022-03-02T09:45:21.932Z</time>
      </trkpt>
      <trkpt lat="42.01475" lon="25.42746">
        <ele>207.622188</ele>
        <time>2022-03-02T09:45:24.910Z</time>
      </trkpt>
      <trkpt lat="42.01486" lon="25.42746">
        <ele>207.663976</ele>
        <time>2022-03-02T09:45:27.917Z</time>
      </trkpt>
      <trkpt lat="42.01498" lon="25.42747">
        <ele>207.706816</ele>
        <time>2022-03-02T09:45:30.905Z</time>
      </trkpt>
      <trkpt lat="42.01507" lon="25.42745">
        <ele>207.742421</ele>
        <time>2022-03-02T09:45:33.922Z</time>
      </trkpt>
      <trkpt lat="42.01519" lon="25.42745">
        <ele>207.786786</ele>
        <time>2022-03-02T09:45:37.899Z</time>
      </trkpt>
      <trkpt lat="42.01531" lon="25.42748">
        <ele>207.833491</ele>
        <time>2022-03-02T09:45:40.933Z</time>
      </trkpt>
      <trkpt lat="42.01545" lon="25.42748">
        <ele>207.884241</ele>
        <time>2022-03-02T09:45:43.908Z</time>
      </trkpt>
      <trkpt lat="42.01554" lon="25.42749">
        <ele>207.919217</ele>
        <time>2022-03-02T09:45:45.905Z</time>
      </trkpt>
      <trkpt lat="42.01567" lon="25.4275">
        <ele>207.966648</ele>
        <time>2022-03-02T09:45:48.912Z</time>
      </trkpt>
      <trkpt lat="42.01578" lon="25.42752">
        <ele>208.008256</ele>
        <time>2022-03-02T09:45:51.910Z</time>
      </trkpt>
      <trkpt lat="42.01588" lon="25.42752">
        <ele>208.045851</ele>
        <time>2022-03-02T09:45:54.918Z</time>
      </trkpt>
      <trkpt lat="42.016" lon="25.42751">
        <ele>208.091352</ele>
        <time>2022-03-02T09:45:58.906Z</time>
      </trkpt>
      <trkpt lat="42.0161" lon="25.42751">
        <ele>208.07843</ele>
        <time>2022-03-02T09:46:02.897Z</time>
      </trkpt>
      <trkpt lat="42.01629" lon="25.42749">
        <ele>207.861008</ele>
        <time>2022-03-02T09:46:23.911Z</time>
      </trkpt>
      <trkpt lat="42.01639" lon="25.4275">
        <ele>207.746212</ele>
        <time>2022-03-02T09:46:26.928Z</time>
      </trkpt>
      <trkpt lat="42.0165" lon="25.42751">
        <ele>207.61673</ele>
        <time>2022-03-02T09:46:29.906Z</time>
      </trkpt>
      <trkpt lat="42.01662" lon="25.42751">
        <ele>207.479897</ele>
        <time>2022-03-02T09:46:32.910Z</time>
      </trkpt>
      <trkpt lat="42.01674" lon="25.42751">
        <ele>207.333856</ele>
        <time>2022-03-02T09:46:35.896Z</time>
      </trkpt>
      <trkpt lat="42.01688" lon="25.42751">
        <ele>207.175032</ele>
        <time>2022-03-02T09:46:38.939Z</time>
      </trkpt>
      <trkpt lat="42.01698" lon="25.42751">
        <ele>207.056808</ele>
        <time>2022-03-02T09:46:40.890Z</time>
      </trkpt>
      <trkpt lat="42.01708" lon="25.42751">
        <ele>206.9407</ele>
        <time>2022-03-02T09:46:42.914Z</time>
      </trkpt>
      <trkpt lat="42.01718" lon="25.4275">
        <ele>206.834038</ele>
        <time>2022-03-02T09:46:44.934Z</time>
      </trkpt>
      <trkpt lat="42.01727" lon="25.4275">
        <ele>206.722718</ele>
        <time>2022-03-02T09:46:46.899Z</time>
      </trkpt>
      <trkpt lat="42.01737" lon="25.4275">
        <ele>206.607961</ele>
        <time>2022-03-02T09:46:48.899Z</time>
      </trkpt>
      <trkpt lat="42.01747" lon="25.4275">
        <ele>206.494324</ele>
        <time>2022-03-02T09:46:50.911Z</time>
      </trkpt>
      <trkpt lat="42.01757" lon="25.42751">
        <ele>206.376025</ele>
        <time>2022-03-02T09:46:52.903Z</time>
      </trkpt>
      <trkpt lat="42.01767" lon="25.42751">
        <ele>206.261123</ele>
        <time>2022-03-02T09:46:54.904Z</time>
      </trkpt>
      <trkpt lat="42.01776" lon="25.42752">
        <ele>206.154211</ele>
        <time>2022-03-02T09:46:56.918Z</time>
      </trkpt>
      <trkpt lat="42.0179" lon="25.42753">
        <ele>205.974121</ele>
        <time>2022-03-02T09:46:59.906Z</time>
      </trkpt>
      <trkpt lat="42.01802" lon="25.42754">
        <ele>205.721015</ele>
        <time>2022-03-02T09:47:02.908Z</time>
      </trkpt>
      <trkpt lat="42.01815" lon="25.42755">
        <ele>205.479724</ele>
        <time>2022-03-02T09:47:05.916Z</time>
      </trkpt>
      <trkpt lat="42.01826" lon="25.42755">
        <ele>205.256424</ele>
        <time>2022-03-02T09:47:08.905Z</time>
      </trkpt>
      <trkpt lat="42.01836" lon="25.42753">
        <ele>205.046508</ele>
        <time>2022-03-02T09:47:11.913Z</time>
      </trkpt>
      <trkpt lat="42.01846" lon="25.42752">
        <ele>204.853994</ele>
        <time>2022-03-02T09:47:14.908Z</time>
      </trkpt>
      <trkpt lat="42.01856" lon="25.4275">
        <ele>204.64903</ele>
        <time>2022-03-02T09:47:17.896Z</time>
      </trkpt>
      <trkpt lat="42.01867" lon="25.42748">
        <ele>204.446887</ele>
        <time>2022-03-02T09:47:20.909Z</time>
      </trkpt>
      <trkpt lat="42.01877" lon="25.42746">
        <ele>204.232777</ele>
        <time>2022-03-02T09:47:23.929Z</time>
      </trkpt>
      <trkpt lat="42.01888" lon="25.42746">
        <ele>204.031151</ele>
        <time>2022-03-02T09:47:26.915Z</time>
      </trkpt>
      <trkpt lat="42.01898" lon="25.42744">
        <ele>203.826708</ele>
        <time>2022-03-02T09:47:29.902Z</time>
      </trkpt>
      <trkpt lat="42.01909" lon="25.42742">
        <ele>203.612645</ele>
        <time>2022-03-02T09:47:32.919Z</time>
      </trkpt>
      <trkpt lat="42.0192" lon="25.42739">
        <ele>203.39102</ele>
        <time>2022-03-02T09:47:35.913Z</time>
      </trkpt>
      <trkpt lat="42.01931" lon="25.42737">
        <ele>203.168684</ele>
        <time>2022-03-02T09:47:38.909Z</time>
      </trkpt>
      <trkpt lat="42.01942" lon="25.42733">
        <ele>202.944539</ele>
        <time>2022-03-02T09:47:41.909Z</time>
      </trkpt>
      <trkpt lat="42.01952" lon="25.42727">
        <ele>202.733512</ele>
        <time>2022-03-02T09:47:44.904Z</time>
      </trkpt>
      <trkpt lat="42.01961" lon="25.42721">
        <ele>202.519825</ele>
        <time>2022-03-02T09:47:47.927Z</time>
      </trkpt>
      <trkpt lat="42.01971" lon="25.42714">
        <ele>202.900348</ele>
        <time>2022-03-02T09:47:50.929Z</time>
      </trkpt>
      <trkpt lat="42.01979" lon="25.42704">
        <ele>203.395761</ele>
        <time>2022-03-02T09:47:53.904Z</time>
      </trkpt>
      <trkpt lat="42.01985" lon="25.42694">
        <ele>203.840749</ele>
        <time>2022-03-02T09:47:56.894Z</time>
      </trkpt>
      <trkpt lat="42.01992" lon="25.42684">
        <ele>204.337892</ele>
        <time>2022-03-02T09:48:00.919Z</time>
      </trkpt>
      <trkpt lat="42.01998" lon="25.42674">
        <ele>204.771044</ele>
        <time>2022-03-02T09:48:03.897Z</time>
      </trkpt>
      <trkpt lat="42.02004" lon="25.42665">
        <ele>205.207751</ele>
        <time>2022-03-02T09:48:06.919Z</time>
      </trkpt>
      <trkpt lat="42.02011" lon="25.42655">
        <ele>205.6631</ele>
        <time>2022-03-02T09:48:09.927Z</time>
      </trkpt>
      <trkpt lat="42.02016" lon="25.42645">
        <ele>206.090755</ele>
        <time>2022-03-02T09:48:12.944Z</time>
      </trkpt>
      <trkpt lat="42.02023" lon="25.42633">
        <ele>206.635525</ele>
        <time>2022-03-02T09:48:16.913Z</time>
      </trkpt>
      <trkpt lat="42.0203" lon="25.42623">
        <ele>207.070619</ele>
        <time>2022-03-02T09:48:19.895Z</time>
      </trkpt>
      <trkpt lat="42.02036" lon="25.42614">
        <ele>207.512978</ele>
        <time>2022-03-02T09:48:22.909Z</time>
      </trkpt>
      <trkpt lat="42.02043" lon="25.42605">
        <ele>207.955414</ele>
        <time>2022-03-02T09:48:25.910Z</time>
      </trkpt>
      <trkpt lat="42.02051" lon="25.42598">
        <ele>208.415079</ele>
        <time>2022-03-02T09:48:28.902Z</time>
      </trkpt>
      <trkpt lat="42.02058" lon="25.42588">
        <ele>208.860984</ele>
        <time>2022-03-02T09:48:31.915Z</time>
      </trkpt>
      <trkpt lat="42.02065" lon="25.4258">
        <ele>209.286057</ele>
        <time>2022-03-02T09:48:34.940Z</time>
      </trkpt>
      <trkpt lat="42.02074" lon="25.4257">
        <ele>209.839942</ele>
        <time>2022-03-02T09:48:38.915Z</time>
      </trkpt>
      <trkpt lat="42.02082" lon="25.42563">
        <ele>210.289684</ele>
        <time>2022-03-02T09:48:41.902Z</time>
      </trkpt>
      <trkpt lat="42.02091" lon="25.42553">
        <ele>210.831373</ele>
        <time>2022-03-02T09:48:45.890Z</time>
      </trkpt>
      <trkpt lat="42.02098" lon="25.42544">
        <ele>210.772168</ele>
        <time>2022-03-02T09:48:48.914Z</time>
      </trkpt>
      <trkpt lat="42.02104" lon="25.42535">
        <ele>210.689771</ele>
        <time>2022-03-02T09:48:51.986Z</time>
      </trkpt>
      <trkpt lat="42.02113" lon="25.42526">
        <ele>210.589743</ele>
        <time>2022-03-02T09:48:55.893Z</time>
      </trkpt>
      <trkpt lat="42.0212" lon="25.42518">
        <ele>210.509289</ele>
        <time>2022-03-02T09:48:58.911Z</time>
      </trkpt>
      <trkpt lat="42.02126" lon="25.42509">
        <ele>210.424262</ele>
        <time>2022-03-02T09:49:01.903Z</time>
      </trkpt>
      <trkpt lat="42.02133" lon="25.425">
        <ele>210.341981</ele>
        <time>2022-03-02T09:49:04.910Z</time>
      </trkpt>
      <trkpt lat="42.02143" lon="25.42491">
        <ele>210.234733</ele>
        <time>2022-03-02T09:49:08.915Z</time>
      </trkpt>
      <trkpt lat="42.02152" lon="25.42481">
        <ele>210.128414</ele>
        <time>2022-03-02T09:49:12.945Z</time>
      </trkpt>
      <trkpt lat="42.02159" lon="25.42473">
        <ele>210.044611</ele>
        <time>2022-03-02T09:49:15.905Z</time>
      </trkpt>
      <trkpt lat="42.02169" lon="25.42467">
        <ele>209.94278</ele>
        <time>2022-03-02T09:49:19.901Z</time>
      </trkpt>
      <trkpt lat="42.02179" lon="25.42469">
        <ele>209.854</ele>
        <time>2022-03-02T09:49:22.945Z</time>
      </trkpt>
      <trkpt lat="42.02186" lon="25.42478">
        <ele>209.76959</ele>
        <time>2022-03-02T09:49:25.907Z</time>
      </trkpt>
      <trkpt lat="42.02186" lon="25.42492">
        <ele>209.672881</ele>
        <time>2022-03-02T09:49:29.904Z</time>
      </trkpt>
      <trkpt lat="42.02186" lon="25.42508">
        <ele>209.568183</ele>
        <time>2022-03-02T09:49:33.978Z</time>
      </trkpt>
      <trkpt lat="42.02185" lon="25.42521">
        <ele>209.483926</ele>
        <time>2022-03-02T09:49:36.907Z</time>
      </trkpt>
      <trkpt lat="42.02189" lon="25.42532">
        <ele>209.402188</ele>
        <time>2022-03-02T09:49:39.940Z</time>
      </trkpt>
      <trkpt lat="42.02197" lon="25.42542">
        <ele>209.306789</ele>
        <time>2022-03-02T09:49:42.922Z</time>
      </trkpt>
      <trkpt lat="42.02207" lon="25.42547">
        <ele>209.277354</ele>
        <time>2022-03-02T09:49:46.911Z</time>
      </trkpt>
      <trkpt lat="42.02216" lon="25.4255">
        <ele>209.382318</ele>
        <time>2022-03-02T09:49:49.910Z</time>
      </trkpt>
      <trkpt lat="42.02227" lon="25.42554">
        <ele>209.516029</ele>
        <time>2022-03-02T09:49:53.887Z</time>
      </trkpt>
      <trkpt lat="42.02238" lon="25.42559">
        <ele>209.647817</ele>
        <time>2022-03-02T09:49:57.903Z</time>
      </trkpt>
      <trkpt lat="42.02246" lon="25.42564">
        <ele>209.755365</ele>
        <time>2022-03-02T09:50:00.906Z</time>
      </trkpt>
      <trkpt lat="42.02255" lon="25.42568">
        <ele>209.861748</ele>
        <time>2022-03-02T09:50:03.896Z</time>
      </trkpt>
      <trkpt lat="42.02264" lon="25.42571">
        <ele>209.97295</ele>
        <time>2022-03-02T09:50:06.898Z</time>
      </trkpt>
      <trkpt lat="42.02275" lon="25.42576">
        <ele>210.102827</ele>
        <time>2022-03-02T09:50:10.898Z</time>
      </trkpt>
      <trkpt lat="42.02285" lon="25.42579">
        <ele>210.224725</ele>
        <time>2022-03-02T09:50:14.911Z</time>
      </trkpt>
      <trkpt lat="42.02295" lon="25.42583">
        <ele>210.341089</ele>
        <time>2022-03-02T09:50:18.895Z</time>
      </trkpt>
      <trkpt lat="42.02306" lon="25.42588">
        <ele>210.471786</ele>
        <time>2022-03-02T09:50:23.901Z</time>
      </trkpt>
      <trkpt lat="42.02316" lon="25.42593">
        <ele>210.593027</ele>
        <time>2022-03-02T09:50:28.903Z</time>
      </trkpt>
      <trkpt lat="42.02325" lon="25.42599">
        <ele>210.711502</ele>
        <time>2022-03-02T09:50:32.912Z</time>
      </trkpt>
      <trkpt lat="42.02332" lon="25.42607">
        <ele>210.818344</ele>
        <time>2022-03-02T09:50:36.915Z</time>
      </trkpt>
      <trkpt lat="42.02337" lon="25.42617">
        <ele>210.925046</ele>
        <time>2022-03-02T09:50:41.909Z</time>
      </trkpt>
      <trkpt lat="42.02343" lon="25.42629">
        <ele>211.049041</ele>
        <time>2022-03-02T09:50:47.008Z</time>
      </trkpt>
      <trkpt lat="42.0235" lon="25.4264">
        <ele>211.17025</ele>
        <time>2022-03-02T09:50:50.914Z</time>
      </trkpt>
      <trkpt lat="42.02357" lon="25.42647">
        <ele>211.274151</ele>
        <time>2022-03-02T09:50:53.887Z</time>
      </trkpt>
      <trkpt lat="42.02366" lon="25.42653">
        <ele>211.145883</ele>
        <time>2022-03-02T09:50:57.901Z</time>
      </trkpt>
      <trkpt lat="42.02376" lon="25.42657">
        <ele>210.88923</ele>
        <time>2022-03-02T09:51:01.927Z</time>
      </trkpt>
      <trkpt lat="42.02384" lon="25.42664">
        <ele>210.630564</ele>
        <time>2022-03-02T09:51:05.918Z</time>
      </trkpt>
      <trkpt lat="42.02395" lon="25.42671">
        <ele>210.32727</ele>
        <time>2022-03-02T09:51:09.965Z</time>
      </trkpt>
      <trkpt lat="42.02406" lon="25.42676">
        <ele>210.025414</ele>
        <time>2022-03-02T09:51:13.927Z</time>
      </trkpt>
      <trkpt lat="42.02414" lon="25.4268">
        <ele>209.791478</ele>
        <time>2022-03-02T09:51:16.907Z</time>
      </trkpt>
      <trkpt lat="42.02425" lon="25.42684">
        <ele>209.511055</ele>
        <time>2022-03-02T09:51:20.939Z</time>
      </trkpt>
      <trkpt lat="42.02434" lon="25.42688">
        <ele>209.271607</ele>
        <time>2022-03-02T09:51:23.923Z</time>
      </trkpt>
      <trkpt lat="42.02445" lon="25.42693">
        <ele>208.960002</ele>
        <time>2022-03-02T09:51:27.909Z</time>
      </trkpt>
      <trkpt lat="42.02454" lon="25.42697">
        <ele>208.722477</ele>
        <time>2022-03-02T09:51:30.914Z</time>
      </trkpt>
      <trkpt lat="42.02462" lon="25.42702">
        <ele>208.487872</ele>
        <time>2022-03-02T09:51:33.908Z</time>
      </trkpt>
      <trkpt lat="42.02472" lon="25.4271">
        <ele>208.199371</ele>
        <time>2022-03-02T09:51:37.916Z</time>
      </trkpt>
      <trkpt lat="42.02481" lon="25.42714">
        <ele>207.95616</ele>
        <time>2022-03-02T09:51:42.956Z</time>
      </trkpt>
      <trkpt lat="42.02492" lon="25.42715">
        <ele>207.668293</ele>
        <time>2022-03-02T09:51:46.913Z</time>
      </trkpt>
      <trkpt lat="42.02503" lon="25.42716">
        <ele>207.381503</ele>
        <time>2022-03-02T09:51:50.907Z</time>
      </trkpt>
      <trkpt lat="42.02514" lon="25.42716">
        <ele>207.094694</ele>
        <time>2022-03-02T09:51:54.914Z</time>
      </trkpt>
      <trkpt lat="42.02524" lon="25.42715">
        <ele>206.823303</ele>
        <time>2022-03-02T09:51:58.905Z</time>
      </trkpt>
      <trkpt lat="42.02534" lon="25.42716">
        <ele>206.79961</ele>
        <time>2022-03-02T09:52:02.916Z</time>
      </trkpt>
      <trkpt lat="42.02544" lon="25.42717">
        <ele>207.113892</ele>
        <time>2022-03-02T09:52:06.898Z</time>
      </trkpt>
      <trkpt lat="42.02553" lon="25.42719">
        <ele>207.407114</ele>
        <time>2022-03-02T09:52:10.956Z</time>
      </trkpt>
      <trkpt lat="42.02563" lon="25.4272">
        <ele>207.727616</ele>
        <time>2022-03-02T09:52:15.908Z</time>
      </trkpt>
      <trkpt lat="42.02573" lon="25.42721">
        <ele>208.055208</ele>
        <time>2022-03-02T09:52:20.910Z</time>
      </trkpt>
      <trkpt lat="42.02582" lon="25.42726">
        <ele>208.36667</ele>
        <time>2022-03-02T09:52:25.909Z</time>
      </trkpt>
      <trkpt lat="42.02582" lon="25.42741">
        <ele>208.728806</ele>
        <time>2022-03-02T09:52:30.904Z</time>
      </trkpt>
      <trkpt lat="42.0258" lon="25.42753">
        <ele>209.019869</ele>
        <time>2022-03-02T09:52:35.898Z</time>
      </trkpt>
      <trkpt lat="42.02588" lon="25.42763">
        <ele>209.371387</ele>
        <time>2022-03-02T09:52:42.917Z</time>
      </trkpt>
      <trkpt lat="42.02598" lon="25.42769">
        <ele>209.717756</ele>
        <time>2022-03-02T09:52:48.920Z</time>
      </trkpt>
      <trkpt lat="42.02608" lon="25.42772">
        <ele>210.052363</ele>
        <time>2022-03-02T09:52:53.917Z</time>
      </trkpt>
      <trkpt lat="42.02617" lon="25.42778">
        <ele>210.389229</ele>
        <time>2022-03-02T09:52:58.913Z</time>
      </trkpt>
      <trkpt lat="42.02627" lon="25.42784">
        <ele>210.729552</ele>
        <time>2022-03-02T09:53:03.906Z</time>
      </trkpt>
      <trkpt lat="42.02636" lon="25.42789">
        <ele>211.046044</ele>
        <time>2022-03-02T09:53:08.910Z</time>
      </trkpt>
      <trkpt lat="42.02645" lon="25.42795">
        <ele>211.364777</ele>
        <time>2022-03-02T09:53:13.901Z</time>
      </trkpt>
      <trkpt lat="42.02654" lon="25.42801">
        <ele>211.690659</ele>
        <time>2022-03-02T09:53:18.906Z</time>
      </trkpt>
      <trkpt lat="42.02663" lon="25.42808">
        <ele>212.021672</ele>
        <time>2022-03-02T09:53:23.915Z</time>
      </trkpt>
      <trkpt lat="42.02671" lon="25.42816">
        <ele>212.351985</ele>
        <time>2022-03-02T09:53:28.912Z</time>
      </trkpt>
      <trkpt lat="42.02679" lon="25.42826">
        <ele>212.419808</ele>
        <time>2022-03-02T09:53:33.941Z</time>
      </trkpt>
      <trkpt lat="42.02687" lon="25.42835">
        <ele>212.346074</ele>
        <time>2022-03-02T09:53:38.914Z</time>
      </trkpt>
      <trkpt lat="42.02695" lon="25.42846">
        <ele>212.27021</ele>
        <time>2022-03-02T09:53:43.912Z</time>
      </trkpt>
      <trkpt lat="42.02702" lon="25.42856">
        <ele>212.194777</ele>
        <time>2022-03-02T09:53:48.921Z</time>
      </trkpt>
      <trkpt lat="42.02711" lon="25.42865">
        <ele>212.118299</ele>
        <time>2022-03-02T09:53:53.900Z</time>
      </trkpt>
      <trkpt lat="42.02718" lon="25.42874">
        <ele>212.04808</ele>
        <time>2022-03-02T09:53:58.905Z</time>
      </trkpt>
      <trkpt lat="42.02727" lon="25.42884">
        <ele>211.971602</ele>
        <time>2022-03-02T09:54:03.899Z</time>
      </trkpt>
      <trkpt lat="42.02734" lon="25.42893">
        <ele>211.90323</ele>
        <time>2022-03-02T09:54:07.916Z</time>
      </trkpt>
      <trkpt lat="42.02741" lon="25.42904">
        <ele>211.826652</ele>
        <time>2022-03-02T09:54:11.948Z</time>
      </trkpt>
      <trkpt lat="42.02748" lon="25.42912">
        <ele>211.761074</ele>
        <time>2022-03-02T09:54:15.917Z</time>
      </trkpt>
      <trkpt lat="42.02756" lon="25.42921">
        <ele>211.686043</ele>
        <time>2022-03-02T09:54:20.912Z</time>
      </trkpt>
      <trkpt lat="42.02765" lon="25.42931">
        <ele>211.610094</ele>
        <time>2022-03-02T09:54:24.900Z</time>
      </trkpt>
      <trkpt lat="42.02771" lon="25.42941">
        <ele>211.538334</ele>
        <time>2022-03-02T09:54:28.907Z</time>
      </trkpt>
      <trkpt lat="42.02778" lon="25.42951">
        <ele>211.467951</ele>
        <time>2022-03-02T09:54:32.910Z</time>
      </trkpt>
      <trkpt lat="42.02786" lon="25.42963">
        <ele>211.387574</ele>
        <time>2022-03-02T09:54:36.914Z</time>
      </trkpt>
      <trkpt lat="42.02792" lon="25.42972">
        <ele>211.323638</ele>
        <time>2022-03-02T09:54:39.918Z</time>
      </trkpt>
      <trkpt lat="42.02799" lon="25.42981">
        <ele>211.25835</ele>
        <time>2022-03-02T09:54:42.887Z</time>
      </trkpt>
      <trkpt lat="42.02805" lon="25.4299">
        <ele>211.098068</ele>
        <time>2022-03-02T09:54:45.911Z</time>
      </trkpt>
      <trkpt lat="42.02813" lon="25.42999">
        <ele>210.735211</ele>
        <time>2022-03-02T09:54:48.904Z</time>
      </trkpt>
      <trkpt lat="42.02821" lon="25.43009">
        <ele>210.326529</ele>
        <time>2022-03-02T09:54:51.909Z</time>
      </trkpt>
      <trkpt lat="42.02829" lon="25.43021">
        <ele>209.885055</ele>
        <time>2022-03-02T09:54:54.920Z</time>
      </trkpt>
      <trkpt lat="42.02837" lon="25.43034">
        <ele>209.437736</ele>
        <time>2022-03-02T09:54:57.914Z</time>
      </trkpt>
      <trkpt lat="42.02845" lon="25.43048">
        <ele>208.97991</ele>
        <time>2022-03-02T09:55:00.914Z</time>
      </trkpt>
      <trkpt lat="42.0285" lon="25.43057">
        <ele>208.651768</ele>
        <time>2022-03-02T09:55:02.909Z</time>
      </trkpt>
      <trkpt lat="42.02856" lon="25.43067">
        <ele>208.31926</ele>
        <time>2022-03-02T09:55:04.914Z</time>
      </trkpt>
      <trkpt lat="42.02862" lon="25.43077">
        <ele>207.986753</ele>
        <time>2022-03-02T09:55:06.911Z</time>
      </trkpt>
      <trkpt lat="42.02869" lon="25.43092">
        <ele>207.505222</ele>
        <time>2022-03-02T09:55:09.907Z</time>
      </trkpt>
      <trkpt lat="42.02875" lon="25.43101">
        <ele>207.17058</ele>
        <time>2022-03-02T09:55:11.920Z</time>
      </trkpt>
      <trkpt lat="42.02881" lon="25.43112">
        <ele>206.822787</ele>
        <time>2022-03-02T09:55:13.900Z</time>
      </trkpt>
      <trkpt lat="42.02888" lon="25.43121">
        <ele>206.466579</ele>
        <time>2022-03-02T09:55:15.920Z</time>
      </trkpt>
      <trkpt lat="42.02894" lon="25.43131">
        <ele>206.105401</ele>
        <time>2022-03-02T09:55:17.900Z</time>
      </trkpt>
      <trkpt lat="42.02902" lon="25.4314">
        <ele>205.743379</ele>
        <time>2022-03-02T09:55:19.910Z</time>
      </trkpt>
      <trkpt lat="42.02909" lon="25.43149">
        <ele>205.384131</ele>
        <time>2022-03-02T09:55:21.908Z</time>
      </trkpt>
      <trkpt lat="42.02917" lon="25.43158">
        <ele>205.02082</ele>
        <time>2022-03-02T09:55:23.914Z</time>
      </trkpt>
      <trkpt lat="42.02925" lon="25.43165">
        <ele>204.6602</ele>
        <time>2022-03-02T09:55:25.922Z</time>
      </trkpt>
      <trkpt lat="42.02934" lon="25.43172">
        <ele>204.343183</ele>
        <time>2022-03-02T09:55:27.915Z</time>
      </trkpt>
      <trkpt lat="42.02943" lon="25.43179">
        <ele>204.005797</ele>
        <time>2022-03-02T09:55:29.898Z</time>
      </trkpt>
      <trkpt lat="42.02953" lon="25.43186">
        <ele>203.643668</ele>
        <time>2022-03-02T09:55:31.914Z</time>
      </trkpt>
      <trkpt lat="42.02964" lon="25.43193">
        <ele>203.263331</ele>
        <time>2022-03-02T09:55:33.913Z</time>
      </trkpt>
      <trkpt lat="42.02975" lon="25.43199">
        <ele>202.872156</ele>
        <time>2022-03-02T09:55:35.941Z</time>
      </trkpt>
      <trkpt lat="42.02987" lon="25.43206">
        <ele>202.459929</ele>
        <time>2022-03-02T09:55:37.918Z</time>
      </trkpt>
      <trkpt lat="42.03" lon="25.43214">
        <ele>202.03033</ele>
        <time>2022-03-02T09:55:39.916Z</time>
      </trkpt>
      <trkpt lat="42.03012" lon="25.43222">
        <ele>201.587109</ele>
        <time>2022-03-02T09:55:41.950Z</time>
      </trkpt>
      <trkpt lat="42.03026" lon="25.4323">
        <ele>201.123648</ele>
        <time>2022-03-02T09:55:43.921Z</time>
      </trkpt>
      <trkpt lat="42.0304" lon="25.43238">
        <ele>200.614462</ele>
        <time>2022-03-02T09:55:45.914Z</time>
      </trkpt>
      <trkpt lat="42.03054" lon="25.43245">
        <ele>200.132118</ele>
        <time>2022-03-02T09:55:47.916Z</time>
      </trkpt>
      <trkpt lat="42.03068" lon="25.43253">
        <ele>199.657945</ele>
        <time>2022-03-02T09:55:49.898Z</time>
      </trkpt>
      <trkpt lat="42.03082" lon="25.43261">
        <ele>199.180846</ele>
        <time>2022-03-02T09:55:51.921Z</time>
      </trkpt>
      <trkpt lat="42.03096" lon="25.43269">
        <ele>198.702614</ele>
        <time>2022-03-02T09:55:53.911Z</time>
      </trkpt>
      <trkpt lat="42.0311" lon="25.43278">
        <ele>198.219617</ele>
        <time>2022-03-02T09:55:55.907Z</time>
      </trkpt>
      <trkpt lat="42.03124" lon="25.43286">
        <ele>197.731889</ele>
        <time>2022-03-02T09:55:57.910Z</time>
      </trkpt>
      <trkpt lat="42.03139" lon="25.43295">
        <ele>197.251764</ele>
        <time>2022-03-02T09:55:59.910Z</time>
      </trkpt>
      <trkpt lat="42.03152" lon="25.43303">
        <ele>196.785725</ele>
        <time>2022-03-02T09:56:01.917Z</time>
      </trkpt>
      <trkpt lat="42.03166" lon="25.4331">
        <ele>196.322036</ele>
        <time>2022-03-02T09:56:03.957Z</time>
      </trkpt>
      <trkpt lat="42.0318" lon="25.43317">
        <ele>195.87907</ele>
        <time>2022-03-02T09:56:05.912Z</time>
      </trkpt>
      <trkpt lat="42.03192" lon="25.43324">
        <ele>195.44883</ele>
        <time>2022-03-02T09:56:07.896Z</time>
      </trkpt>
      <trkpt lat="42.03205" lon="25.43331">
        <ele>195.032974</ele>
        <time>2022-03-02T09:56:09.910Z</time>
      </trkpt>
      <trkpt lat="42.03216" lon="25.4334">
        <ele>194.632372</ele>
        <time>2022-03-02T09:56:11.902Z</time>
      </trkpt>
      <trkpt lat="42.03227" lon="25.43348">
        <ele>194.247033</ele>
        <time>2022-03-02T09:56:13.913Z</time>
      </trkpt>
      <trkpt lat="42.03236" lon="25.43356">
        <ele>193.895084</ele>
        <time>2022-03-02T09:56:15.913Z</time>
      </trkpt>
      <trkpt lat="42.03245" lon="25.43364">
        <ele>193.565087</ele>
        <time>2022-03-02T09:56:17.906Z</time>
      </trkpt>
      <trkpt lat="42.03253" lon="25.43371">
        <ele>193.480732</ele>
        <time>2022-03-02T09:56:19.909Z</time>
      </trkpt>
      <trkpt lat="42.03264" lon="25.43379">
        <ele>193.767059</ele>
        <time>2022-03-02T09:56:22.901Z</time>
      </trkpt>
      <trkpt lat="42.03274" lon="25.43387">
        <ele>194.038706</ele>
        <time>2022-03-02T09:56:25.956Z</time>
      </trkpt>
      <trkpt lat="42.03284" lon="25.43395">
        <ele>194.307227</ele>
        <time>2022-03-02T09:56:28.921Z</time>
      </trkpt>
      <trkpt lat="42.03293" lon="25.43403">
        <ele>194.558734</ele>
        <time>2022-03-02T09:56:31.914Z</time>
      </trkpt>
      <trkpt lat="42.03302" lon="25.4341">
        <ele>194.795167</ele>
        <time>2022-03-02T09:56:34.918Z</time>
      </trkpt>
      <trkpt lat="42.0331" lon="25.43417">
        <ele>195.032463</ele>
        <time>2022-03-02T09:56:37.907Z</time>
      </trkpt>
      <trkpt lat="42.03319" lon="25.43424">
        <ele>195.256924</ele>
        <time>2022-03-02T09:56:40.907Z</time>
      </trkpt>
      <trkpt lat="42.03327" lon="25.43429">
        <ele>195.467125</ele>
        <time>2022-03-02T09:56:43.904Z</time>
      </trkpt>
      <trkpt lat="42.03336" lon="25.43437">
        <ele>195.725247</ele>
        <time>2022-03-02T09:56:47.910Z</time>
      </trkpt>
      <trkpt lat="42.03345" lon="25.43444">
        <ele>195.975366</ele>
        <time>2022-03-02T09:56:51.920Z</time>
      </trkpt>
      <trkpt lat="42.03355" lon="25.43452">
        <ele>196.244778</ele>
        <time>2022-03-02T09:56:55.900Z</time>
      </trkpt>
      <trkpt lat="42.03365" lon="25.43461">
        <ele>196.519064</ele>
        <time>2022-03-02T09:56:59.922Z</time>
      </trkpt>
      <trkpt lat="42.03376" lon="25.43468">
        <ele>196.7869</ele>
        <time>2022-03-02T09:57:03.936Z</time>
      </trkpt>
      <trkpt lat="42.03386" lon="25.43476">
        <ele>197.054534</ele>
        <time>2022-03-02T09:57:07.913Z</time>
      </trkpt>
      <trkpt lat="42.03394" lon="25.43483">
        <ele>197.280334</ele>
        <time>2022-03-02T09:57:10.926Z</time>
      </trkpt>
      <trkpt lat="42.03401" lon="25.43489">
        <ele>197.488804</ele>
        <time>2022-03-02T09:57:13.913Z</time>
      </trkpt>
      <trkpt lat="42.03411" lon="25.43497">
        <ele>197.703236</ele>
        <time>2022-03-02T09:57:17.915Z</time>
      </trkpt>
      <trkpt lat="42.03419" lon="25.43503">
        <ele>197.863951</ele>
        <time>2022-03-02T09:57:20.902Z</time>
      </trkpt>
      <trkpt lat="42.03427" lon="25.4351">
        <ele>198.015912</ele>
        <time>2022-03-02T09:57:23.898Z</time>
      </trkpt>
      <trkpt lat="42.03435" lon="25.43517">
        <ele>198.175801</ele>
        <time>2022-03-02T09:57:26.979Z</time>
      </trkpt>
      <trkpt lat="42.03443" lon="25.43524">
        <ele>198.3368</ele>
        <time>2022-03-02T09:57:29.909Z</time>
      </trkpt>
      <trkpt lat="42.03453" lon="25.43532">
        <ele>198.527063</ele>
        <time>2022-03-02T09:57:33.917Z</time>
      </trkpt>
      <trkpt lat="42.03462" lon="25.4354">
        <ele>198.716473</ele>
        <time>2022-03-02T09:57:37.946Z</time>
      </trkpt>
      <trkpt lat="42.03471" lon="25.43546">
        <ele>198.879727</ele>
        <time>2022-03-02T09:57:41.921Z</time>
      </trkpt>
      <trkpt lat="42.03481" lon="25.43554">
        <ele>199.069686</ele>
        <time>2022-03-02T09:57:45.890Z</time>
      </trkpt>
      <trkpt lat="42.03491" lon="25.43561">
        <ele>199.270892</ele>
        <time>2022-03-02T09:57:49.950Z</time>
      </trkpt>
      <trkpt lat="42.03499" lon="25.43567">
        <ele>199.423914</ele>
        <time>2022-03-02T09:57:52.917Z</time>
      </trkpt>
      <trkpt lat="42.03507" lon="25.43573">
        <ele>199.577847</ele>
        <time>2022-03-02T09:57:55.924Z</time>
      </trkpt>
      <trkpt lat="42.03517" lon="25.43579">
        <ele>199.767036</ele>
        <time>2022-03-02T09:57:59.925Z</time>
      </trkpt>
      <trkpt lat="42.03527" lon="25.43587">
        <ele>199.957299</ele>
        <time>2022-03-02T09:58:03.905Z</time>
      </trkpt>
      <trkpt lat="42.03535" lon="25.43592">
        <ele>200.109383</ele>
        <time>2022-03-02T09:58:06.918Z</time>
      </trkpt>
      <trkpt lat="42.03544" lon="25.43598">
        <ele>200.262763</ele>
        <time>2022-03-02T09:58:09.900Z</time>
      </trkpt>
      <trkpt lat="42.03554" lon="25.43604">
        <ele>200.454552</ele>
        <time>2022-03-02T09:58:13.942Z</time>
      </trkpt>
      <trkpt lat="42.03565" lon="25.43607">
        <ele>200.620693</ele>
        <time>2022-03-02T09:58:17.936Z</time>
      </trkpt>
      <trkpt lat="42.03574" lon="25.4361">
        <ele>200.699564</ele>
        <time>2022-03-02T09:58:20.909Z</time>
      </trkpt>
      <trkpt lat="42.03586" lon="25.43616">
        <ele>200.802957</ele>
        <time>2022-03-02T09:58:24.912Z</time>
      </trkpt>
      <trkpt lat="42.03597" lon="25.43621">
        <ele>200.902531</ele>
        <time>2022-03-02T09:58:28.931Z</time>
      </trkpt>
      <trkpt lat="42.03608" lon="25.43627">
        <ele>201.006397</ele>
        <time>2022-03-02T09:58:32.911Z</time>
      </trkpt>
      <trkpt lat="42.03618" lon="25.43631">
        <ele>201.098689</ele>
        <time>2022-03-02T09:58:36.915Z</time>
      </trkpt>
      <trkpt lat="42.03629" lon="25.43637">
        <ele>201.19669</ele>
        <time>2022-03-02T09:58:40.947Z</time>
      </trkpt>
      <trkpt lat="42.0364" lon="25.43641">
        <ele>201.290863</ele>
        <time>2022-03-02T09:58:44.898Z</time>
      </trkpt>
      <trkpt lat="42.0365" lon="25.43646">
        <ele>201.382578</ele>
        <time>2022-03-02T09:58:48.907Z</time>
      </trkpt>
      <trkpt lat="42.03661" lon="25.43652">
        <ele>201.482152</ele>
        <time>2022-03-02T09:58:52.897Z</time>
      </trkpt>
      <trkpt lat="42.0367" lon="25.43656">
        <ele>201.563758</ele>
        <time>2022-03-02T09:58:55.956Z</time>
      </trkpt>
      <trkpt lat="42.03679" lon="25.43661">
        <ele>201.652431</ele>
        <time>2022-03-02T09:58:58.915Z</time>
      </trkpt>
      <trkpt lat="42.03689" lon="25.43666">
        <ele>201.737093</ele>
        <time>2022-03-02T09:59:01.896Z</time>
      </trkpt>
      <trkpt lat="42.037" lon="25.43672">
        <ele>201.841106</ele>
        <time>2022-03-02T09:59:05.919Z</time>
      </trkpt>
      <trkpt lat="42.03709" lon="25.43676">
        <ele>201.921001</ele>
        <time>2022-03-02T09:59:08.920Z</time>
      </trkpt>
      <trkpt lat="42.03719" lon="25.43682">
        <ele>202.016797</ele>
        <time>2022-03-02T09:59:12.907Z</time>
      </trkpt>
      <trkpt lat="42.0373" lon="25.43686">
        <ele>202.115238</ele>
        <time>2022-03-02T09:59:16.907Z</time>
      </trkpt>
      <trkpt lat="42.03741" lon="25.43692">
        <ele>202.158461</ele>
        <time>2022-03-02T09:59:20.949Z</time>
      </trkpt>
      <trkpt lat="42.0375" lon="25.43697">
        <ele>202.185244</ele>
        <time>2022-03-02T09:59:23.911Z</time>
      </trkpt>
      <trkpt lat="42.03759" lon="25.43702">
        <ele>202.21269</ele>
        <time>2022-03-02T09:59:26.909Z</time>
      </trkpt>
      <trkpt lat="42.03767" lon="25.43705">
        <ele>202.239663</ele>
        <time>2022-03-02T09:59:29.906Z</time>
      </trkpt>
      <trkpt lat="42.03777" lon="25.43709">
        <ele>202.267317</ele>
        <time>2022-03-02T09:59:32.905Z</time>
      </trkpt>
      <trkpt lat="42.03787" lon="25.43714">
        <ele>202.301106</ele>
        <time>2022-03-02T09:59:36.944Z</time>
      </trkpt>
      <trkpt lat="42.03799" lon="25.43719">
        <ele>202.335233</ele>
        <time>2022-03-02T09:59:40.907Z</time>
      </trkpt>
      <trkpt lat="42.03809" lon="25.43724">
        <ele>202.366528</ele>
        <time>2022-03-02T09:59:44.933Z</time>
      </trkpt>
      <trkpt lat="42.03819" lon="25.43728">
        <ele>202.397202</ele>
        <time>2022-03-02T09:59:48.909Z</time>
      </trkpt>
      <trkpt lat="42.03828" lon="25.43732">
        <ele>202.424771</ele>
        <time>2022-03-02T09:59:51.921Z</time>
      </trkpt>
      <trkpt lat="42.03837" lon="25.43737">
        <ele>202.45448</ele>
        <time>2022-03-02T09:59:54.906Z</time>
      </trkpt>
      <trkpt lat="42.03846" lon="25.43743">
        <ele>202.483918</ele>
        <time>2022-03-02T09:59:57.902Z</time>
      </trkpt>
      <trkpt lat="42.03855" lon="25.43747">
        <ele>202.51152</ele>
        <time>2022-03-02T10:00:00.918Z</time>
      </trkpt>
      <trkpt lat="42.03866" lon="25.43751">
        <ele>202.543502</ele>
        <time>2022-03-02T10:00:04.920Z</time>
      </trkpt>
      <trkpt lat="42.03876" lon="25.43756">
        <ele>202.576048</ele>
        <time>2022-03-02T10:00:08.903Z</time>
      </trkpt>
      <trkpt lat="42.03887" lon="25.43761">
        <ele>202.608931</ele>
        <time>2022-03-02T10:00:12.922Z</time>
      </trkpt>
      <trkpt lat="42.03897" lon="25.43765">
        <ele>202.639472</ele>
        <time>2022-03-02T10:00:16.913Z</time>
      </trkpt>
      <trkpt lat="42.03907" lon="25.43769">
        <ele>202.754708</ele>
        <time>2022-03-02T10:00:20.910Z</time>
      </trkpt>
      <trkpt lat="42.03917" lon="25.43775">
        <ele>202.946709</ele>
        <time>2022-03-02T10:00:24.918Z</time>
      </trkpt>
      <trkpt lat="42.03927" lon="25.4378">
        <ele>203.135362</ele>
        <time>2022-03-02T10:00:28.913Z</time>
      </trkpt>
      <trkpt lat="42.03936" lon="25.43784">
        <ele>203.305065</ele>
        <time>2022-03-02T10:00:32.917Z</time>
      </trkpt>
      <trkpt lat="42.03945" lon="25.43788">
        <ele>203.471823</ele>
        <time>2022-03-02T10:00:36.946Z</time>
      </trkpt>
      <trkpt lat="42.03954" lon="25.43792">
        <ele>203.647142</ele>
        <time>2022-03-02T10:00:40.908Z</time>
      </trkpt>
      <trkpt lat="42.03964" lon="25.43795">
        <ele>203.826226</ele>
        <time>2022-03-02T10:00:44.895Z</time>
      </trkpt>
      <trkpt lat="42.03974" lon="25.43799">
        <ele>204.002296</ele>
        <time>2022-03-02T10:00:48.910Z</time>
      </trkpt>
      <trkpt lat="42.03983" lon="25.43803">
        <ele>204.180396</ele>
        <time>2022-03-02T10:00:52.912Z</time>
      </trkpt>
      <trkpt lat="42.03993" lon="25.43807">
        <ele>204.363567</ele>
        <time>2022-03-02T10:00:56.910Z</time>
      </trkpt>
      <trkpt lat="42.04003" lon="25.43809">
        <ele>204.545385</ele>
        <time>2022-03-02T10:01:00.918Z</time>
      </trkpt>
      <trkpt lat="42.04013" lon="25.43811">
        <ele>204.715282</ele>
        <time>2022-03-02T10:01:04.907Z</time>
      </trkpt>
      <trkpt lat="42.04022" lon="25.43813">
        <ele>204.890122</ele>
        <time>2022-03-02T10:01:08.903Z</time>
      </trkpt>
      <trkpt lat="42.04032" lon="25.43817">
        <ele>205.06815</ele>
        <time>2022-03-02T10:01:12.906Z</time>
      </trkpt>
      <trkpt lat="42.04042" lon="25.43819">
        <ele>205.249128</ele>
        <time>2022-03-02T10:01:16.905Z</time>
      </trkpt>
      <trkpt lat="42.04052" lon="25.4382">
        <ele>205.431175</ele>
        <time>2022-03-02T10:01:20.924Z</time>
      </trkpt>
      <trkpt lat="42.04063" lon="25.43822">
        <ele>205.615479</ele>
        <time>2022-03-02T10:01:24.902Z</time>
      </trkpt>
      <trkpt lat="42.04073" lon="25.43824">
        <ele>205.800158</ele>
        <time>2022-03-02T10:01:28.921Z</time>
      </trkpt>
      <trkpt lat="42.04082" lon="25.43827">
        <ele>206.003684</ele>
        <time>2022-03-02T10:01:32.912Z</time>
      </trkpt>
      <trkpt lat="42.04092" lon="25.43828">
        <ele>206.228802</ele>
        <time>2022-03-02T10:01:36.914Z</time>
      </trkpt>
      <trkpt lat="42.04102" lon="25.43829">
        <ele>206.459823</ele>
        <time>2022-03-02T10:01:40.928Z</time>
      </trkpt>
      <trkpt lat="42.04112" lon="25.43831">
        <ele>206.69671</ele>
        <time>2022-03-02T10:01:44.906Z</time>
      </trkpt>
      <trkpt lat="42.04121" lon="25.43833">
        <ele>206.916085</ele>
        <time>2022-03-02T10:01:48.900Z</time>
      </trkpt>
      <trkpt lat="42.0413" lon="25.43836">
        <ele>207.138448</ele>
        <time>2022-03-02T10:01:52.909Z</time>
      </trkpt>
      <trkpt lat="42.04141" lon="25.43838">
        <ele>207.385228</ele>
        <time>2022-03-02T10:01:56.924Z</time>
      </trkpt>
      <trkpt lat="42.04151" lon="25.43839">
        <ele>207.632745</ele>
        <time>2022-03-02T10:02:00.897Z</time>
      </trkpt>
      <trkpt lat="42.04162" lon="25.43839">
        <ele>207.875497</ele>
        <time>2022-03-02T10:02:04.905Z</time>
      </trkpt>
      <trkpt lat="42.04173" lon="25.43842">
        <ele>208.132233</ele>
        <time>2022-03-02T10:02:09.920Z</time>
      </trkpt>
      <trkpt lat="42.04183" lon="25.43844">
        <ele>208.388423</ele>
        <time>2022-03-02T10:02:14.886Z</time>
      </trkpt>
      <trkpt lat="42.04192" lon="25.43847">
        <ele>208.601491</ele>
        <time>2022-03-02T10:02:18.918Z</time>
      </trkpt>
      <trkpt lat="42.04202" lon="25.43848">
        <ele>208.815492</ele>
        <time>2022-03-02T10:02:22.932Z</time>
      </trkpt>
      <trkpt lat="42.04212" lon="25.43849">
        <ele>209.069415</ele>
        <time>2022-03-02T10:02:27.920Z</time>
      </trkpt>
      <trkpt lat="42.04221" lon="25.43849">
        <ele>209.279235</ele>
        <time>2022-03-02T10:02:31.917Z</time>
      </trkpt>
      <trkpt lat="42.04232" lon="25.4385">
        <ele>209.524696</ele>
        <time>2022-03-02T10:02:36.900Z</time>
      </trkpt>
      <trkpt lat="42.04242" lon="25.43851">
        <ele>209.757689</ele>
        <time>2022-03-02T10:02:41.913Z</time>
      </trkpt>
      <trkpt lat="42.04252" lon="25.43849">
        <ele>209.991707</ele>
        <time>2022-03-02T10:02:46.912Z</time>
      </trkpt>
      <trkpt lat="42.04263" lon="25.43848">
        <ele>210.284339</ele>
        <time>2022-03-02T10:02:51.894Z</time>
      </trkpt>
      <trkpt lat="42.04274" lon="25.43845">
        <ele>210.577574</ele>
        <time>2022-03-02T10:02:56.926Z</time>
      </trkpt>
      <trkpt lat="42.04285" lon="25.43842">
        <ele>210.869295</ele>
        <time>2022-03-02T10:03:01.916Z</time>
      </trkpt>
      <trkpt lat="42.04296" lon="25.43839">
        <ele>211.170944</ele>
        <time>2022-03-02T10:03:06.935Z</time>
      </trkpt>
      <trkpt lat="42.04306" lon="25.43834">
        <ele>211.468616</ele>
        <time>2022-03-02T10:03:11.906Z</time>
      </trkpt>
      <trkpt lat="42.04316" lon="25.43829">
        <ele>211.749188</ele>
        <time>2022-03-02T10:03:16.904Z</time>
      </trkpt>
      <trkpt lat="42.04326" lon="25.43825">
        <ele>212.04303</ele>
        <time>2022-03-02T10:03:21.956Z</time>
      </trkpt>
      <trkpt lat="42.04336" lon="25.4382">
        <ele>212.309674</ele>
        <time>2022-03-02T10:03:26.913Z</time>
      </trkpt>
      <trkpt lat="42.04345" lon="25.43816">
        <ele>212.58202</ele>
        <time>2022-03-02T10:03:31.917Z</time>
      </trkpt>
      <trkpt lat="42.04355" lon="25.43811">
        <ele>212.852151</ele>
        <time>2022-03-02T10:03:36.927Z</time>
      </trkpt>
      <trkpt lat="42.04364" lon="25.43806">
        <ele>213.106243</ele>
        <time>2022-03-02T10:03:41.904Z</time>
      </trkpt>
      <trkpt lat="42.04372" lon="25.43801">
        <ele>213.359066</ele>
        <time>2022-03-02T10:03:46.920Z</time>
      </trkpt>
      <trkpt lat="42.04382" lon="25.43796">
        <ele>213.630968</ele>
        <time>2022-03-02T10:03:52.910Z</time>
      </trkpt>
      <trkpt lat="42.04391" lon="25.43792">
        <ele>213.885765</ele>
        <time>2022-03-02T10:03:57.916Z</time>
      </trkpt>
      <trkpt lat="42.04401" lon="25.4379">
        <ele>214.150396</ele>
        <time>2022-03-02T10:04:02.912Z</time>
      </trkpt>
      <trkpt lat="42.04409" lon="25.43786">
        <ele>214.395644</ele>
        <time>2022-03-02T10:04:07.899Z</time>
      </trkpt>
      <trkpt lat="42.04418" lon="25.43781">
        <ele>214.654946</ele>
        <time>2022-03-02T10:04:12.942Z</time>
      </trkpt>
      <trkpt lat="42.04427" lon="25.43776">
        <ele>214.827669</ele>
        <time>2022-03-02T10:04:17.951Z</time>
      </trkpt>
      <trkpt lat="42.04437" lon="25.43771">
        <ele>214.786925</ele>
        <time>2022-03-02T10:04:22.917Z</time>
      </trkpt>
      <trkpt lat="42.04446" lon="25.43765">
        <ele>214.747949</ele>
        <time>2022-03-02T10:04:27.909Z</time>
      </trkpt>
      <trkpt lat="42.04456" lon="25.43761">
        <ele>214.708019</ele>
        <time>2022-03-02T10:04:33.902Z</time>
      </trkpt>
      <trkpt lat="42.04466" lon="25.43756">
        <ele>214.668258</ele>
        <time>2022-03-02T10:04:38.902Z</time>
      </trkpt>
      <trkpt lat="42.04476" lon="25.43751">
        <ele>214.627421</ele>
        <time>2022-03-02T10:04:43.927Z</time>
      </trkpt>
      <trkpt lat="42.04486" lon="25.43747">
        <ele>214.589021</ele>
        <time>2022-03-02T10:04:47.918Z</time>
      </trkpt>
      <trkpt lat="42.04497" lon="25.43744">
        <ele>214.544562</ele>
        <time>2022-03-02T10:04:51.907Z</time>
      </trkpt>
      <trkpt lat="42.04507" lon="25.43741">
        <ele>214.506615</ele>
        <time>2022-03-02T10:04:54.935Z</time>
      </trkpt>
      <trkpt lat="42.04518" lon="25.43738">
        <ele>214.465302</ele>
        <time>2022-03-02T10:04:57.913Z</time>
      </trkpt>
      <trkpt lat="42.0453" lon="25.43736">
        <ele>214.416821</ele>
        <time>2022-03-02T10:05:00.920Z</time>
      </trkpt>
      <trkpt lat="42.04544" lon="25.43734">
        <ele>214.36456</ele>
        <time>2022-03-02T10:05:03.917Z</time>
      </trkpt>
      <trkpt lat="42.04554" lon="25.43732">
        <ele>214.32555</ele>
        <time>2022-03-02T10:05:05.909Z</time>
      </trkpt>
      <trkpt lat="42.04565" lon="25.4373">
        <ele>214.282543</ele>
        <time>2022-03-02T10:05:07.909Z</time>
      </trkpt>
      <trkpt lat="42.04577" lon="25.43728">
        <ele>214.23878</ele>
        <time>2022-03-02T10:05:09.913Z</time>
      </trkpt>
      <trkpt lat="42.04588" lon="25.43726">
        <ele>214.195916</ele>
        <time>2022-03-02T10:05:11.911Z</time>
      </trkpt>
      <trkpt lat="42.04599" lon="25.43723">
        <ele>214.152719</ele>
        <time>2022-03-02T10:05:13.958Z</time>
      </trkpt>
      <trkpt lat="42.04611" lon="25.43722">
        <ele>213.515535</ele>
        <time>2022-03-02T10:05:15.914Z</time>
      </trkpt>
      <trkpt lat="42.04624" lon="25.43719">
        <ele>212.819911</ele>
        <time>2022-03-02T10:05:17.913Z</time>
      </trkpt>
      <trkpt lat="42.04637" lon="25.43717">
        <ele>212.065081</ele>
        <time>2022-03-02T10:05:19.915Z</time>
      </trkpt>
      <trkpt lat="42.04652" lon="25.43714">
        <ele>211.261701</ele>
        <time>2022-03-02T10:05:21.927Z</time>
      </trkpt>
      <trkpt lat="42.04666" lon="25.43711">
        <ele>210.494542</ele>
        <time>2022-03-02T10:05:23.921Z</time>
      </trkpt>
      <trkpt lat="42.04681" lon="25.43709">
        <ele>209.701836</ele>
        <time>2022-03-02T10:05:25.904Z</time>
      </trkpt>
      <trkpt lat="42.04695" lon="25.43706">
        <ele>208.92459</ele>
        <time>2022-03-02T10:05:27.918Z</time>
      </trkpt>
      <trkpt lat="42.0471" lon="25.43704">
        <ele>208.143577</ele>
        <time>2022-03-02T10:05:29.914Z</time>
      </trkpt>
      <trkpt lat="42.04724" lon="25.43701">
        <ele>207.367906</ele>
        <time>2022-03-02T10:05:31.959Z</time>
      </trkpt>
      <trkpt lat="42.04738" lon="25.43698">
        <ele>206.611976</ele>
        <time>2022-03-02T10:05:33.927Z</time>
      </trkpt>
      <trkpt lat="42.04752" lon="25.43696">
        <ele>205.848826</ele>
        <time>2022-03-02T10:05:35.914Z</time>
      </trkpt>
      <trkpt lat="42.04766" lon="25.43694">
        <ele>205.100836</ele>
        <time>2022-03-02T10:05:37.959Z</time>
      </trkpt>
      <trkpt lat="42.04779" lon="25.43692">
        <ele>204.400378</ele>
        <time>2022-03-02T10:05:39.926Z</time>
      </trkpt>
      <trkpt lat="42.04793" lon="25.43689">
        <ele>203.91379</ele>
        <time>2022-03-02T10:05:41.921Z</time>
      </trkpt>
      <trkpt lat="42.04805" lon="25.43687">
        <ele>203.454078</ele>
        <time>2022-03-02T10:05:43.898Z</time>
      </trkpt>
      <trkpt lat="42.04817" lon="25.43685">
        <ele>203.012018</ele>
        <time>2022-03-02T10:05:45.917Z</time>
      </trkpt>
      <trkpt lat="42.04829" lon="25.43684">
        <ele>202.587224</ele>
        <time>2022-03-02T10:05:47.902Z</time>
      </trkpt>
      <trkpt lat="42.0484" lon="25.43683">
        <ele>202.184125</ele>
        <time>2022-03-02T10:05:49.971Z</time>
      </trkpt>
      <trkpt lat="42.04851" lon="25.43681">
        <ele>201.782932</ele>
        <time>2022-03-02T10:05:51.916Z</time>
      </trkpt>
      <trkpt lat="42.04862" lon="25.43679">
        <ele>201.392038</ele>
        <time>2022-03-02T10:05:53.923Z</time>
      </trkpt>
      <trkpt lat="42.04872" lon="25.43676">
        <ele>201.003821</ele>
        <time>2022-03-02T10:05:55.934Z</time>
      </trkpt>
      <trkpt lat="42.04883" lon="25.43675">
        <ele>200.624219</ele>
        <time>2022-03-02T10:05:57.911Z</time>
      </trkpt>
      <trkpt lat="42.04893" lon="25.43673">
        <ele>200.244283</ele>
        <time>2022-03-02T10:05:59.924Z</time>
      </trkpt>
      <trkpt lat="42.04903" lon="25.43671">
        <ele>199.870797</ele>
        <time>2022-03-02T10:06:01.912Z</time>
      </trkpt>
      <trkpt lat="42.04913" lon="25.43669">
        <ele>199.504075</ele>
        <time>2022-03-02T10:06:03.907Z</time>
      </trkpt>
      <trkpt lat="42.04923" lon="25.43667">
        <ele>199.143384</ele>
        <time>2022-03-02T10:06:05.917Z</time>
      </trkpt>
      <trkpt lat="42.04933" lon="25.43667">
        <ele>198.780233</ele>
        <time>2022-03-02T10:06:07.912Z</time>
      </trkpt>
      <trkpt lat="42.04944" lon="25.43665">
        <ele>198.401241</ele>
        <time>2022-03-02T10:06:09.917Z</time>
      </trkpt>
      <trkpt lat="42.04954" lon="25.43663">
        <ele>198.006586</ele>
        <time>2022-03-02T10:06:11.912Z</time>
      </trkpt>
      <trkpt lat="42.04966" lon="25.43661">
        <ele>197.543259</ele>
        <time>2022-03-02T10:06:13.918Z</time>
      </trkpt>
      <trkpt lat="42.04978" lon="25.43658">
        <ele>197.071731</ele>
        <time>2022-03-02T10:06:15.906Z</time>
      </trkpt>
      <trkpt lat="42.0499" lon="25.43656">
        <ele>196.608793</ele>
        <time>2022-03-02T10:06:17.934Z</time>
      </trkpt>
      <trkpt lat="42.05002" lon="25.43654">
        <ele>196.127522</ele>
        <time>2022-03-02T10:06:19.917Z</time>
      </trkpt>
      <trkpt lat="42.05015" lon="25.43652">
        <ele>195.622561</ele>
        <time>2022-03-02T10:06:21.900Z</time>
      </trkpt>
      <trkpt lat="42.05028" lon="25.4365">
        <ele>195.102026</ele>
        <time>2022-03-02T10:06:23.941Z</time>
      </trkpt>
      <trkpt lat="42.05042" lon="25.43648">
        <ele>194.563737</ele>
        <time>2022-03-02T10:06:25.914Z</time>
      </trkpt>
      <trkpt lat="42.05055" lon="25.43645">
        <ele>194.017276</ele>
        <time>2022-03-02T10:06:27.924Z</time>
      </trkpt>
      <trkpt lat="42.05069" lon="25.43642">
        <ele>193.471226</ele>
        <time>2022-03-02T10:06:29.914Z</time>
      </trkpt>
      <trkpt lat="42.05083" lon="25.4364">
        <ele>192.929838</ele>
        <time>2022-03-02T10:06:31.925Z</time>
      </trkpt>
      <trkpt lat="42.05096" lon="25.43638">
        <ele>192.405724</ele>
        <time>2022-03-02T10:06:33.913Z</time>
      </trkpt>
      <trkpt lat="42.05109" lon="25.43636">
        <ele>191.891525</ele>
        <time>2022-03-02T10:06:35.941Z</time>
      </trkpt>
      <trkpt lat="42.05122" lon="25.43633">
        <ele>191.377327</ele>
        <time>2022-03-02T10:06:37.933Z</time>
      </trkpt>
      <trkpt lat="42.05135" lon="25.43631">
        <ele>190.868876</ele>
        <time>2022-03-02T10:06:39.919Z</time>
      </trkpt>
      <trkpt lat="42.05148" lon="25.43629">
        <ele>190.420265</ele>
        <time>2022-03-02T10:06:41.903Z</time>
      </trkpt>
      <trkpt lat="42.05161" lon="25.43627">
        <ele>189.957078</ele>
        <time>2022-03-02T10:06:43.933Z</time>
      </trkpt>
      <trkpt lat="42.05174" lon="25.43624">
        <ele>189.497003</ele>
        <time>2022-03-02T10:06:45.919Z</time>
      </trkpt>
      <trkpt lat="42.05186" lon="25.43622">
        <ele>189.066727</ele>
        <time>2022-03-02T10:06:47.918Z</time>
      </trkpt>
      <trkpt lat="42.05197" lon="25.4362">
        <ele>188.666335</ele>
        <time>2022-03-02T10:06:49.912Z</time>
      </trkpt>
      <trkpt lat="42.05209" lon="25.43618">
        <ele>188.262855</ele>
        <time>2022-03-02T10:06:51.960Z</time>
      </trkpt>
      <trkpt lat="42.0522" lon="25.43615">
        <ele>187.862777</ele>
        <time>2022-03-02T10:06:53.905Z</time>
      </trkpt>
      <trkpt lat="42.05232" lon="25.43613">
        <ele>187.447273</ele>
        <time>2022-03-02T10:06:55.916Z</time>
      </trkpt>
      <trkpt lat="42.05244" lon="25.43612">
        <ele>187.032259</ele>
        <time>2022-03-02T10:06:57.919Z</time>
      </trkpt>
      <trkpt lat="42.05255" lon="25.43611">
        <ele>186.618028</ele>
        <time>2022-03-02T10:06:59.924Z</time>
      </trkpt>
      <trkpt lat="42.05267" lon="25.4361">
        <ele>186.19645</ele>
        <time>2022-03-02T10:07:01.902Z</time>
      </trkpt>
      <trkpt lat="42.05279" lon="25.43608">
        <ele>185.77771</ele>
        <time>2022-03-02T10:07:03.911Z</time>
      </trkpt>
      <trkpt lat="42.05291" lon="25.43608">
        <ele>185.367792</ele>
        <time>2022-03-02T10:07:05.918Z</time>
      </trkpt>
      <trkpt lat="42.05303" lon="25.43608">
        <ele>184.943836</ele>
        <time>2022-03-02T10:07:07.923Z</time>
      </trkpt>
      <trkpt lat="42.05315" lon="25.43608">
        <ele>184.55958</ele>
        <time>2022-03-02T10:07:09.915Z</time>
      </trkpt>
      <trkpt lat="42.05327" lon="25.43608">
        <ele>184.33657</ele>
        <time>2022-03-02T10:07:11.912Z</time>
      </trkpt>
      <trkpt lat="42.0534" lon="25.43608">
        <ele>184.106293</ele>
        <time>2022-03-02T10:07:13.945Z</time>
      </trkpt>
      <trkpt lat="42.05352" lon="25.43608">
        <ele>183.87416</ele>
        <time>2022-03-02T10:07:15.922Z</time>
      </trkpt>
      <trkpt lat="42.05364" lon="25.43608">
        <ele>183.660427</ele>
        <time>2022-03-02T10:07:17.930Z</time>
      </trkpt>
      <trkpt lat="42.05375" lon="25.43609">
        <ele>183.457767</ele>
        <time>2022-03-02T10:07:19.959Z</time>
      </trkpt>
      <trkpt lat="42.05386" lon="25.43609">
        <ele>183.26042</ele>
        <time>2022-03-02T10:07:21.910Z</time>
      </trkpt>
      <trkpt lat="42.05396" lon="25.4361">
        <ele>183.068789</ele>
        <time>2022-03-02T10:07:23.910Z</time>
      </trkpt>
      <trkpt lat="42.05407" lon="25.4361">
        <ele>182.871669</ele>
        <time>2022-03-02T10:07:25.921Z</time>
      </trkpt>
      <trkpt lat="42.05418" lon="25.4361">
        <ele>182.665326</ele>
        <time>2022-03-02T10:07:27.913Z</time>
      </trkpt>
      <trkpt lat="42.0543" lon="25.4361">
        <ele>182.451614</ele>
        <time>2022-03-02T10:07:29.914Z</time>
      </trkpt>
      <trkpt lat="42.05442" lon="25.43609">
        <ele>182.228671</ele>
        <time>2022-03-02T10:07:31.914Z</time>
      </trkpt>
      <trkpt lat="42.05454" lon="25.4361">
        <ele>182.005661</ele>
        <time>2022-03-02T10:07:33.910Z</time>
      </trkpt>
      <trkpt lat="42.05465" lon="25.43611">
        <ele>181.795433</ele>
        <time>2022-03-02T10:07:35.921Z</time>
      </trkpt>
      <trkpt lat="42.05477" lon="25.43612">
        <ele>181.584783</ele>
        <time>2022-03-02T10:07:37.921Z</time>
      </trkpt>
      <trkpt lat="42.05487" lon="25.43613">
        <ele>181.392494</ele>
        <time>2022-03-02T10:07:39.917Z</time>
      </trkpt>
      <trkpt lat="42.05497" lon="25.43613">
        <ele>181.371418</ele>
        <time>2022-03-02T10:07:41.941Z</time>
      </trkpt>
      <trkpt lat="42.05506" lon="25.43614">
        <ele>181.559016</ele>
        <time>2022-03-02T10:07:43.913Z</time>
      </trkpt>
      <trkpt lat="42.05518" lon="25.43615">
        <ele>181.798703</ele>
        <time>2022-03-02T10:07:46.932Z</time>
      </trkpt>
      <trkpt lat="42.0553" lon="25.43616">
        <ele>182.046315</ele>
        <time>2022-03-02T10:07:49.913Z</time>
      </trkpt>
      <trkpt lat="42.05542" lon="25.43616">
        <ele>182.277522</ele>
        <time>2022-03-02T10:07:52.917Z</time>
      </trkpt>
      <trkpt lat="42.05552" lon="25.43616">
        <ele>182.480477</ele>
        <time>2022-03-02T10:07:55.920Z</time>
      </trkpt>
      <trkpt lat="42.05562" lon="25.43616">
        <ele>182.691659</ele>
        <time>2022-03-02T10:07:58.916Z</time>
      </trkpt>
      <trkpt lat="42.05573" lon="25.43616">
        <ele>182.910709</ele>
        <time>2022-03-02T10:08:01.914Z</time>
      </trkpt>
      <trkpt lat="42.05583" lon="25.43615">
        <ele>183.117731</ele>
        <time>2022-03-02T10:08:04.928Z</time>
      </trkpt>
      <trkpt lat="42.05594" lon="25.43614">
        <ele>183.32161</ele>
        <time>2022-03-02T10:08:07.908Z</time>
      </trkpt>
      <trkpt lat="42.05603" lon="25.43614">
        <ele>183.508584</ele>
        <time>2022-03-02T10:08:10.907Z</time>
      </trkpt>
      <trkpt lat="42.05614" lon="25.43615">
        <ele>183.725933</ele>
        <time>2022-03-02T10:08:14.962Z</time>
      </trkpt>
      <trkpt lat="42.05625" lon="25.43615">
        <ele>183.959201</ele>
        <time>2022-03-02T10:08:18.914Z</time>
      </trkpt>
      <trkpt lat="42.05635" lon="25.43617">
        <ele>184.167018</ele>
        <time>2022-03-02T10:08:22.933Z</time>
      </trkpt>
      <trkpt lat="42.05647" lon="25.43618">
        <ele>184.390386</ele>
        <time>2022-03-02T10:08:27.914Z</time>
      </trkpt>
      <trkpt lat="42.05657" lon="25.43619">
        <ele>184.591685</ele>
        <time>2022-03-02T10:08:32.911Z</time>
      </trkpt>
      <trkpt lat="42.05666" lon="25.43618">
        <ele>184.776608</ele>
        <time>2022-03-02T10:08:37.905Z</time>
      </trkpt>
      <trkpt lat="42.05675" lon="25.43618">
        <ele>185.062794</ele>
        <time>2022-03-02T10:08:42.918Z</time>
      </trkpt>
      <trkpt lat="42.05684" lon="25.43619">
        <ele>185.638752</ele>
        <time>2022-03-02T10:08:47.953Z</time>
      </trkpt>
      <trkpt lat="42.05695" lon="25.43619">
        <ele>186.250332</ele>
        <time>2022-03-02T10:08:53.918Z</time>
      </trkpt>
      <trkpt lat="42.05704" lon="25.43618">
        <ele>186.840945</ele>
        <time>2022-03-02T10:08:59.908Z</time>
      </trkpt>
      <trkpt lat="42.05713" lon="25.43618">
        <ele>187.385935</ele>
        <time>2022-03-02T10:09:05.910Z</time>
      </trkpt>
      <trkpt lat="42.05723" lon="25.43617">
        <ele>187.937487</ele>
        <time>2022-03-02T10:09:11.915Z</time>
      </trkpt>
      <trkpt lat="42.05732" lon="25.43617">
        <ele>188.482424</ele>
        <time>2022-03-02T10:09:17.925Z</time>
      </trkpt>
      <trkpt lat="42.05741" lon="25.43618">
        <ele>189.047829</ele>
        <time>2022-03-02T10:09:23.915Z</time>
      </trkpt>
      <trkpt lat="42.05751" lon="25.4362">
        <ele>189.622938</ele>
        <time>2022-03-02T10:09:30.919Z</time>
      </trkpt>
      <trkpt lat="42.0576" lon="25.43622">
        <ele>190.183811</ele>
        <time>2022-03-02T10:09:36.918Z</time>
      </trkpt>
      <trkpt lat="42.0577" lon="25.43622">
        <ele>190.812579</ele>
        <time>2022-03-02T10:09:42.950Z</time>
      </trkpt>
      <trkpt lat="42.05779" lon="25.43623">
        <ele>191.356184</ele>
        <time>2022-03-02T10:09:48.917Z</time>
      </trkpt>
      <trkpt lat="42.0579" lon="25.43623">
        <ele>191.990986</ele>
        <time>2022-03-02T10:09:54.934Z</time>
      </trkpt>
      <trkpt lat="42.05801" lon="25.43624">
        <ele>192.625788</ele>
        <time>2022-03-02T10:10:00.917Z</time>
      </trkpt>
      <trkpt lat="42.05811" lon="25.43623">
        <ele>193.249567</ele>
        <time>2022-03-02T10:10:06.913Z</time>
      </trkpt>
      <trkpt lat="42.05822" lon="25.43623">
        <ele>193.884369</ele>
        <time>2022-03-02T10:10:12.917Z</time>
      </trkpt>
      <trkpt lat="42.05832" lon="25.43622">
        <ele>194.483593</ele>
        <time>2022-03-02T10:10:18.917Z</time>
      </trkpt>
      <trkpt lat="42.05841" lon="25.43625">
        <ele>195.070851</ele>
        <time>2022-03-02T10:10:24.925Z</time>
      </trkpt>
      <trkpt lat="42.05852" lon="25.43625">
        <ele>195.692721</ele>
        <time>2022-03-02T10:10:31.915Z</time>
      </trkpt>
      <trkpt lat="42.05862" lon="25.43625">
        <ele>195.947156</ele>
        <time>2022-03-02T10:10:37.916Z</time>
      </trkpt>
      <trkpt lat="42.05871" lon="25.43626">
        <ele>196.175604</ele>
        <time>2022-03-02T10:10:43.985Z</time>
      </trkpt>
      <trkpt lat="42.05881" lon="25.43627">
        <ele>196.415912</ele>
        <time>2022-03-02T10:10:49.918Z</time>
      </trkpt>
      <trkpt lat="42.0589" lon="25.43627">
        <ele>196.645856</ele>
        <time>2022-03-02T10:10:54.972Z</time>
      </trkpt>
      <trkpt lat="42.059" lon="25.43626">
        <ele>196.881041</ele>
        <time>2022-03-02T10:10:59.916Z</time>
      </trkpt>
      <trkpt lat="42.0591" lon="25.43626">
        <ele>197.14299</ele>
        <time>2022-03-02T10:11:05.952Z</time>
      </trkpt>
      <trkpt lat="42.0592" lon="25.43624">
        <ele>197.393952</ele>
        <time>2022-03-02T10:11:11.964Z</time>
      </trkpt>
      <trkpt lat="42.0593" lon="25.43626">
        <ele>197.645126</ele>
        <time>2022-03-02T10:11:17.912Z</time>
      </trkpt>
      <trkpt lat="42.0594" lon="25.43626">
        <ele>197.904549</ele>
        <time>2022-03-02T10:11:23.910Z</time>
      </trkpt>
      <trkpt lat="42.05951" lon="25.43626">
        <ele>198.161558</ele>
        <time>2022-03-02T10:11:29.910Z</time>
      </trkpt>
      <trkpt lat="42.0596" lon="25.43626">
        <ele>198.38631</ele>
        <time>2022-03-02T10:11:35.910Z</time>
      </trkpt>
      <trkpt lat="42.0597" lon="25.43627">
        <ele>198.638252</ele>
        <time>2022-03-02T10:11:41.917Z</time>
      </trkpt>
      <trkpt lat="42.0598" lon="25.43627">
        <ele>198.882711</ele>
        <time>2022-03-02T10:11:46.918Z</time>
      </trkpt>
      <trkpt lat="42.0599" lon="25.43627">
        <ele>199.147258</ele>
        <time>2022-03-02T10:11:52.952Z</time>
      </trkpt>
      <trkpt lat="42.06001" lon="25.43627">
        <ele>199.409155</ele>
        <time>2022-03-02T10:11:58.916Z</time>
      </trkpt>
      <trkpt lat="42.0601" lon="25.43629">
        <ele>199.649998</ele>
        <time>2022-03-02T10:12:03.918Z</time>
      </trkpt>
      <trkpt lat="42.0602" lon="25.4363">
        <ele>199.897367</ele>
        <time>2022-03-02T10:12:09.916Z</time>
      </trkpt>
      <trkpt lat="42.0603" lon="25.4363">
        <ele>200.1443</ele>
        <time>2022-03-02T10:12:15.920Z</time>
      </trkpt>
      <trkpt lat="42.0604" lon="25.43629">
        <ele>200.236529</ele>
        <time>2022-03-02T10:12:21.937Z</time>
      </trkpt>
      <trkpt lat="42.06049" lon="25.43629">
        <ele>200.308499</ele>
        <time>2022-03-02T10:12:26.916Z</time>
      </trkpt>
      <trkpt lat="42.0606" lon="25.43629">
        <ele>200.389154</ele>
        <time>2022-03-02T10:12:31.943Z</time>
      </trkpt>
      <trkpt lat="42.0607" lon="25.43629">
        <ele>200.472181</ele>
        <time>2022-03-02T10:12:36.907Z</time>
      </trkpt>
      <trkpt lat="42.06081" lon="25.43629">
        <ele>200.555998</ele>
        <time>2022-03-02T10:12:41.932Z</time>
      </trkpt>
      <trkpt lat="42.06091" lon="25.43629">
        <ele>200.640616</ele>
        <time>2022-03-02T10:12:46.906Z</time>
      </trkpt>
      <trkpt lat="42.06102" lon="25.43629">
        <ele>200.722862</ele>
        <time>2022-03-02T10:12:51.921Z</time>
      </trkpt>
      <trkpt lat="42.06111" lon="25.43629">
        <ele>200.794833</ele>
        <time>2022-03-02T10:12:55.914Z</time>
      </trkpt>
      <trkpt lat="42.06121" lon="25.43629">
        <ele>200.877854</ele>
        <time>2022-03-02T10:13:00.918Z</time>
      </trkpt>
      <trkpt lat="42.06133" lon="25.4363">
        <ele>200.967228</ele>
        <time>2022-03-02T10:13:05.941Z</time>
      </trkpt>
      <trkpt lat="42.06144" lon="25.43631">
        <ele>201.053133</ele>
        <time>2022-03-02T10:13:10.900Z</time>
      </trkpt>
      <trkpt lat="42.06153" lon="25.43632">
        <ele>201.126748</ele>
        <time>2022-03-02T10:13:14.911Z</time>
      </trkpt>
      <trkpt lat="42.06165" lon="25.43632">
        <ele>201.220865</ele>
        <time>2022-03-02T10:13:18.914Z</time>
      </trkpt>
      <trkpt lat="42.06176" lon="25.43634">
        <ele>201.312215</ele>
        <time>2022-03-02T10:13:22.911Z</time>
      </trkpt>
      <trkpt lat="42.06188" lon="25.43633">
        <ele>201.406348</ele>
        <time>2022-03-02T10:13:26.915Z</time>
      </trkpt>
      <trkpt lat="42.062" lon="25.43633">
        <ele>201.500437</ele>
        <time>2022-03-02T10:13:30.930Z</time>
      </trkpt>
      <trkpt lat="42.06212" lon="25.43634">
        <ele>201.521784</ele>
        <time>2022-03-02T10:13:34.945Z</time>
      </trkpt>
      <trkpt lat="42.06221" lon="25.43634">
        <ele>201.184888</ele>
        <time>2022-03-02T10:13:37.913Z</time>
      </trkpt>
      <trkpt lat="42.06231" lon="25.43635">
        <ele>200.825801</ele>
        <time>2022-03-02T10:13:40.946Z</time>
      </trkpt>
      <trkpt lat="42.06241" lon="25.43635">
        <ele>200.44815</ele>
        <time>2022-03-02T10:13:43.899Z</time>
      </trkpt>
      <trkpt lat="42.0625" lon="25.43636">
        <ele>200.087692</ele>
        <time>2022-03-02T10:13:46.908Z</time>
      </trkpt>
      <trkpt lat="42.06261" lon="25.43636">
        <ele>199.698826</ele>
        <time>2022-03-02T10:13:49.931Z</time>
      </trkpt>
      <trkpt lat="42.06271" lon="25.43635">
        <ele>199.309911</ele>
        <time>2022-03-02T10:13:52.893Z</time>
      </trkpt>
      <trkpt lat="42.06283" lon="25.43636">
        <ele>198.88312</ele>
        <time>2022-03-02T10:13:55.917Z</time>
      </trkpt>
      <trkpt lat="42.06293" lon="25.43637">
        <ele>198.482732</ele>
        <time>2022-03-02T10:13:58.920Z</time>
      </trkpt>
      <trkpt lat="42.06305" lon="25.43637">
        <ele>198.034009</ele>
        <time>2022-03-02T10:14:01.920Z</time>
      </trkpt>
      <trkpt lat="42.06317" lon="25.43638">
        <ele>197.610797</ele>
        <time>2022-03-02T10:14:04.923Z</time>
      </trkpt>
      <trkpt lat="42.06327" lon="25.4364">
        <ele>197.219119</ele>
        <time>2022-03-02T10:14:07.913Z</time>
      </trkpt>
      <trkpt lat="42.06338" lon="25.43641">
        <ele>196.795733</ele>
        <time>2022-03-02T10:14:10.920Z</time>
      </trkpt>
      <trkpt lat="42.0635" lon="25.43643">
        <ele>196.356957</ele>
        <time>2022-03-02T10:14:13.914Z</time>
      </trkpt>
      <trkpt lat="42.06361" lon="25.43645">
        <ele>195.924112</ele>
        <time>2022-03-02T10:14:16.916Z</time>
      </trkpt>
      <trkpt lat="42.06373" lon="25.43646">
        <ele>195.481689</ele>
        <time>2022-03-02T10:14:19.910Z</time>
      </trkpt>
      <trkpt lat="42.06386" lon="25.43649">
        <ele>194.998129</ele>
        <time>2022-03-02T10:14:22.897Z</time>
      </trkpt>
      <trkpt lat="42.06395" lon="25.4365">
        <ele>194.792705</ele>
        <time>2022-03-02T10:14:24.915Z</time>
      </trkpt>
      <trkpt lat="42.06404" lon="25.43652">
        <ele>194.680035</ele>
        <time>2022-03-02T10:14:26.914Z</time>
      </trkpt>
      <trkpt lat="42.06414" lon="25.43653">
        <ele>194.565862</ele>
        <time>2022-03-02T10:14:28.924Z</time>
      </trkpt>
      <trkpt lat="42.06423" lon="25.43654">
        <ele>194.453566</ele>
        <time>2022-03-02T10:14:30.903Z</time>
      </trkpt>
      <trkpt lat="42.06432" lon="25.43656">
        <ele>194.34309</ele>
        <time>2022-03-02T10:14:32.945Z</time>
      </trkpt>
      <trkpt lat="42.06444" lon="25.4366">
        <ele>194.196017</ele>
        <time>2022-03-02T10:14:35.917Z</time>
      </trkpt>
      <trkpt lat="42.06453" lon="25.43662">
        <ele>194.085098</ele>
        <time>2022-03-02T10:14:38.902Z</time>
      </trkpt>
      <trkpt lat="42.06464" lon="25.43663">
        <ele>193.954648</ele>
        <time>2022-03-02T10:14:42.918Z</time>
      </trkpt>
      <trkpt lat="42.06475" lon="25.43666">
        <ele>193.824216</ele>
        <time>2022-03-02T10:14:46.930Z</time>
      </trkpt>
      <trkpt lat="42.06485" lon="25.43668">
        <ele>193.702258</ele>
        <time>2022-03-02T10:14:50.896Z</time>
      </trkpt>
      <trkpt lat="42.06494" lon="25.43669">
        <ele>193.588084</ele>
        <time>2022-03-02T10:14:54.905Z</time>
      </trkpt>
      <trkpt lat="42.06506" lon="25.4367">
        <ele>193.446866</ele>
        <time>2022-03-02T10:14:58.913Z</time>
      </trkpt>
      <trkpt lat="42.06515" lon="25.43673">
        <ele>193.326524</ele>
        <time>2022-03-02T10:15:01.909Z</time>
      </trkpt>
      <trkpt lat="42.06525" lon="25.43675">
        <ele>193.205544</ele>
        <time>2022-03-02T10:15:04.926Z</time>
      </trkpt>
      <trkpt lat="42.06536" lon="25.43675">
        <ele>193.071595</ele>
        <time>2022-03-02T10:15:07.914Z</time>
      </trkpt>
      <trkpt lat="42.06549" lon="25.43677">
        <ele>192.921399</ele>
        <time>2022-03-02T10:15:10.901Z</time>
      </trkpt>
      <trkpt lat="42.06558" lon="25.43679">
        <ele>192.81212</ele>
        <time>2022-03-02T10:15:12.902Z</time>
      </trkpt>
      <trkpt lat="42.0657" lon="25.43681">
        <ele>192.495065</ele>
        <time>2022-03-02T10:15:15.937Z</time>
      </trkpt>
      <trkpt lat="42.06583" lon="25.43683">
        <ele>191.240932</ele>
        <time>2022-03-02T10:15:18.918Z</time>
      </trkpt>
      <trkpt lat="42.06593" lon="25.43685">
        <ele>190.339665</ele>
        <time>2022-03-02T10:15:20.919Z</time>
      </trkpt>
      <trkpt lat="42.06605" lon="25.43687">
        <ele>189.132239</ele>
        <time>2022-03-02T10:15:23.922Z</time>
      </trkpt>
      <trkpt lat="42.06619" lon="25.4369">
        <ele>187.862733</ele>
        <time>2022-03-02T10:15:26.937Z</time>
      </trkpt>
      <trkpt lat="42.06628" lon="25.43692">
        <ele>186.941047</ele>
        <time>2022-03-02T10:15:28.900Z</time>
      </trkpt>
      <trkpt lat="42.06638" lon="25.43693">
        <ele>186.032599</ele>
        <time>2022-03-02T10:15:30.949Z</time>
      </trkpt>
      <trkpt lat="42.06651" lon="25.43693">
        <ele>184.750661</ele>
        <time>2022-03-02T10:15:33.914Z</time>
      </trkpt>
      <trkpt lat="42.06661" lon="25.43695">
        <ele>183.831446</ele>
        <time>2022-03-02T10:15:35.920Z</time>
      </trkpt>
      <trkpt lat="42.06671" lon="25.43697">
        <ele>182.868503</ele>
        <time>2022-03-02T10:15:37.945Z</time>
      </trkpt>
      <trkpt lat="42.06682" lon="25.43699">
        <ele>181.867242</ele>
        <time>2022-03-02T10:15:39.929Z</time>
      </trkpt>
      <trkpt lat="42.06692" lon="25.43701">
        <ele>180.889466</ele>
        <time>2022-03-02T10:15:41.913Z</time>
      </trkpt>
      <trkpt lat="42.06702" lon="25.43704">
        <ele>179.899382</ele>
        <time>2022-03-02T10:15:43.912Z</time>
      </trkpt>
      <trkpt lat="42.06715" lon="25.43708">
        <ele>178.707118</ele>
        <time>2022-03-02T10:15:46.934Z</time>
      </trkpt>
      <trkpt lat="42.06725" lon="25.43714">
        <ele>177.626307</ele>
        <time>2022-03-02T10:15:49.911Z</time>
      </trkpt>
      <trkpt lat="42.06735" lon="25.43725">
        <ele>176.436882</ele>
        <time>2022-03-02T10:15:52.912Z</time>
      </trkpt>
      <trkpt lat="42.06745" lon="25.43736">
        <ele>175.492926</ele>
        <time>2022-03-02T10:15:55.900Z</time>
      </trkpt>
      <trkpt lat="42.06754" lon="25.43746">
        <ele>175.007345</ele>
        <time>2022-03-02T10:15:58.940Z</time>
      </trkpt>
      <trkpt lat="42.06763" lon="25.43755">
        <ele>174.547206</ele>
        <time>2022-03-02T10:16:02.921Z</time>
      </trkpt>
      <trkpt lat="42.06773" lon="25.43762">
        <ele>174.070094</ele>
        <time>2022-03-02T10:16:06.922Z</time>
      </trkpt>
      <trkpt lat="42.06781" lon="25.43771">
        <ele>173.647321</ele>
        <time>2022-03-02T10:16:10.925Z</time>
      </trkpt>
      <trkpt lat="42.06788" lon="25.43782">
        <ele>173.196693</ele>
        <time>2022-03-02T10:16:16.950Z</time>
      </trkpt>
      <trkpt lat="42.06796" lon="25.43793">
        <ele>172.726651</ele>
        <time>2022-03-02T10:16:20.913Z</time>
      </trkpt>
      <trkpt lat="42.06804" lon="25.43805">
        <ele>172.234054</ele>
        <time>2022-03-02T10:16:23.931Z</time>
      </trkpt>
      <trkpt lat="42.0681" lon="25.43813">
        <ele>171.858019</ele>
        <time>2022-03-02T10:16:25.910Z</time>
      </trkpt>
      <trkpt lat="42.06817" lon="25.43822">
        <ele>171.472414</ele>
        <time>2022-03-02T10:16:27.934Z</time>
      </trkpt>
      <trkpt lat="42.06824" lon="25.43831">
        <ele>171.080618</ele>
        <time>2022-03-02T10:16:29.914Z</time>
      </trkpt>
      <trkpt lat="42.06832" lon="25.4384">
        <ele>170.642214</ele>
        <time>2022-03-02T10:16:31.914Z</time>
      </trkpt>
      <trkpt lat="42.0684" lon="25.43851">
        <ele>170.15638</ele>
        <time>2022-03-02T10:16:33.913Z</time>
      </trkpt>
      <trkpt lat="42.0685" lon="25.43862">
        <ele>169.62391</ele>
        <time>2022-03-02T10:16:35.973Z</time>
      </trkpt>
      <trkpt lat="42.0686" lon="25.43873">
        <ele>169.080181</ele>
        <time>2022-03-02T10:16:37.904Z</time>
      </trkpt>
      <trkpt lat="42.06869" lon="25.43885">
        <ele>168.541606</ele>
        <time>2022-03-02T10:16:39.911Z</time>
      </trkpt>
      <trkpt lat="42.06878" lon="25.43898">
        <ele>168.134026</ele>
        <time>2022-03-02T10:16:41.948Z</time>
      </trkpt>
      <trkpt lat="42.06887" lon="25.4391">
        <ele>167.903327</ele>
        <time>2022-03-02T10:16:43.910Z</time>
      </trkpt>
      <trkpt lat="42.06894" lon="25.43922">
        <ele>167.694902</ele>
        <time>2022-03-02T10:16:45.913Z</time>
      </trkpt>
      <trkpt lat="42.06901" lon="25.43932">
        <ele>167.50388</ele>
        <time>2022-03-02T10:16:47.908Z</time>
      </trkpt>
      <trkpt lat="42.06907" lon="25.43942">
        <ele>167.329424</ele>
        <time>2022-03-02T10:16:49.918Z</time>
      </trkpt>
      <trkpt lat="42.06914" lon="25.43951">
        <ele>167.155466</ele>
        <time>2022-03-02T10:16:51.976Z</time>
      </trkpt>
      <trkpt lat="42.06921" lon="25.43961">
        <ele>166.971191</ele>
        <time>2022-03-02T10:16:53.921Z</time>
      </trkpt>
      <trkpt lat="42.06927" lon="25.43971">
        <ele>166.790809</ele>
        <time>2022-03-02T10:16:55.922Z</time>
      </trkpt>
      <trkpt lat="42.06933" lon="25.43981">
        <ele>166.618945</ele>
        <time>2022-03-02T10:16:57.935Z</time>
      </trkpt>
      <trkpt lat="42.06942" lon="25.43994">
        <ele>166.374242</ele>
        <time>2022-03-02T10:17:00.937Z</time>
      </trkpt>
      <trkpt lat="42.06949" lon="25.44002">
        <ele>166.208584</ele>
        <time>2022-03-02T10:17:02.945Z</time>
      </trkpt>
      <trkpt lat="42.06957" lon="25.44014">
        <ele>165.97985</ele>
        <time>2022-03-02T10:17:05.909Z</time>
      </trkpt>
      <trkpt lat="42.06966" lon="25.44025">
        <ele>165.754986</ele>
        <time>2022-03-02T10:17:08.911Z</time>
      </trkpt>
      <trkpt lat="42.06974" lon="25.44032">
        <ele>165.585908</ele>
        <time>2022-03-02T10:17:11.922Z</time>
      </trkpt>
      <trkpt lat="42.06983" lon="25.44023">
        <ele>165.376281</ele>
        <time>2022-03-02T10:17:16.928Z</time>
      </trkpt>
      <trkpt lat="42.06987" lon="25.44009">
        <ele>165.170852</ele>
        <time>2022-03-02T10:17:20.907Z</time>
      </trkpt>
      <trkpt lat="42.06991" lon="25.43996">
        <ele>164.97669</ele>
        <time>2022-03-02T10:17:24.905Z</time>
      </trkpt>
      <trkpt lat="42.06996" lon="25.43984">
        <ele>165.476259</ele>
        <time>2022-03-02T10:17:30.912Z</time>
      </trkpt>
      <trkpt lat="42.07002" lon="25.43973">
        <ele>166.223372</ele>
        <time>2022-03-02T10:17:37.916Z</time>
      </trkpt>
      <trkpt lat="42.07006" lon="25.43962">
        <ele>166.88699</ele>
        <time>2022-03-02T10:17:47.916Z</time>
      </trkpt>
      <trkpt lat="42.06998" lon="25.43952">
        <ele>167.670419</ele>
        <time>2022-03-02T10:37:38.934Z</time>
      </trkpt>
      <trkpt lat="42.07001" lon="25.4394">
        <ele>168.354273</ele>
        <time>2022-03-02T10:37:43.918Z</time>
      </trkpt>
      <trkpt lat="42.07006" lon="25.4393">
        <ele>169.04105</ele>
        <time>2022-03-02T10:37:48.920Z</time>
      </trkpt>
      <trkpt lat="42.07011" lon="25.43917">
        <ele>169.799701</ele>
        <time>2022-03-02T10:37:54.917Z</time>
      </trkpt>
      <trkpt lat="42.07014" lon="25.43904">
        <ele>170.531215</ele>
        <time>2022-03-02T10:38:01.926Z</time>
      </trkpt>
      <trkpt lat="42.07017" lon="25.43891">
        <ele>171.257322</ele>
        <time>2022-03-02T10:38:07.929Z</time>
      </trkpt>
      <trkpt lat="42.07021" lon="25.43879">
        <ele>171.970814</ele>
        <time>2022-03-02T10:38:12.922Z</time>
      </trkpt>
      <trkpt lat="42.07025" lon="25.43868">
        <ele>172.627227</ele>
        <time>2022-03-02T10:38:17.928Z</time>
      </trkpt>
      <trkpt lat="42.07027" lon="25.43855">
        <ele>173.307689</ele>
        <time>2022-03-02T10:38:22.915Z</time>
      </trkpt>
      <trkpt lat="42.07029" lon="25.43843">
        <ele>173.983389</ele>
        <time>2022-03-02T10:38:27.918Z</time>
      </trkpt>
      <trkpt lat="42.07029" lon="25.43831">
        <ele>174.650336</ele>
        <time>2022-03-02T10:38:32.953Z</time>
      </trkpt>
      <trkpt lat="42.07027" lon="25.43817">
        <ele>175.407996</ele>
        <time>2022-03-02T10:38:38.918Z</time>
      </trkpt>
      <trkpt lat="42.07026" lon="25.43804">
        <ele>176.09655</ele>
        <time>2022-03-02T10:38:43.954Z</time>
      </trkpt>
      <trkpt lat="42.07027" lon="25.43792">
        <ele>176.750581</ele>
        <time>2022-03-02T10:38:48.938Z</time>
      </trkpt>
      <trkpt lat="42.07028" lon="25.43778">
        <ele>177.503202</ele>
        <time>2022-03-02T10:38:54.961Z</time>
      </trkpt>
      <trkpt lat="42.07029" lon="25.43765">
        <ele>178.213735</ele>
        <time>2022-03-02T10:39:00.926Z</time>
      </trkpt>
      <trkpt lat="42.0703" lon="25.43753">
        <ele>178.928696</ele>
        <time>2022-03-02T10:39:05.971Z</time>
      </trkpt>
      <trkpt lat="42.07031" lon="25.4374">
        <ele>179.681757</ele>
        <time>2022-03-02T10:39:10.924Z</time>
      </trkpt>
      <trkpt lat="42.0703" lon="25.43727">
        <ele>180.400031</ele>
        <time>2022-03-02T10:39:16.951Z</time>
      </trkpt>
      <trkpt lat="42.07032" lon="25.43715">
        <ele>181.111892</ele>
        <time>2022-03-02T10:39:22.972Z</time>
      </trkpt>
      <trkpt lat="42.07033" lon="25.43702">
        <ele>181.840557</ele>
        <time>2022-03-02T10:39:29.933Z</time>
      </trkpt>
      <trkpt lat="42.07035" lon="25.4369">
        <ele>182.548888</ele>
        <time>2022-03-02T10:39:35.926Z</time>
      </trkpt>
      <trkpt lat="42.07038" lon="25.43677">
        <ele>183.299847</ele>
        <time>2022-03-02T10:39:41.924Z</time>
      </trkpt>
      <trkpt lat="42.07039" lon="25.43664">
        <ele>184.067531</ele>
        <time>2022-03-02T10:39:47.922Z</time>
      </trkpt>
      <trkpt lat="42.07041" lon="25.43651">
        <ele>184.836821</ele>
        <time>2022-03-02T10:39:54.904Z</time>
      </trkpt>
      <trkpt lat="42.07042" lon="25.43638">
        <ele>185.585031</ele>
        <time>2022-03-02T10:40:02.910Z</time>
      </trkpt>
      <trkpt lat="42.07043" lon="25.43624">
        <ele>186.369731</ele>
        <time>2022-03-02T10:40:09.957Z</time>
      </trkpt>
      <trkpt lat="42.07045" lon="25.43612">
        <ele>187.069148</ele>
        <time>2022-03-02T10:40:16.929Z</time>
      </trkpt>
      <trkpt lat="42.07048" lon="25.43599">
        <ele>187.8298</ele>
        <time>2022-03-02T10:40:23.910Z</time>
      </trkpt>
      <trkpt lat="42.07051" lon="25.43586">
        <ele>188.599698</ele>
        <time>2022-03-02T10:40:30.923Z</time>
      </trkpt>
      <trkpt lat="42.07055" lon="25.43574">
        <ele>189.337475</ele>
        <time>2022-03-02T10:40:37.933Z</time>
      </trkpt>
      <trkpt lat="42.07058" lon="25.43562">
        <ele>190.085031</ele>
        <time>2022-03-02T10:40:44.921Z</time>
      </trkpt>
      <trkpt lat="42.07063" lon="25.4355">
        <ele>190.855888</ele>
        <time>2022-03-02T10:40:51.940Z</time>
      </trkpt>
      <trkpt lat="42.07068" lon="25.43539">
        <ele>191.600873</ele>
        <time>2022-03-02T10:40:59.939Z</time>
      </trkpt>
      <trkpt lat="42.07071" lon="25.43527">
        <ele>191.805625</ele>
        <time>2022-03-02T10:41:07.917Z</time>
      </trkpt>
      <trkpt lat="42.07075" lon="25.43516">
        <ele>191.848272</ele>
        <time>2022-03-02T10:41:15.940Z</time>
      </trkpt>
      <trkpt lat="42.07079" lon="25.43504">
        <ele>191.89264</ele>
        <time>2022-03-02T10:41:23.909Z</time>
      </trkpt>
      <trkpt lat="42.07084" lon="25.43494">
        <ele>191.934407</ele>
        <time>2022-03-02T10:41:29.961Z</time>
      </trkpt>
      <trkpt lat="42.07089" lon="25.43481">
        <ele>191.982898</ele>
        <time>2022-03-02T10:41:36.941Z</time>
      </trkpt>
      <trkpt lat="42.07093" lon="25.4347">
        <ele>192.027285</ele>
        <time>2022-03-02T10:41:42.910Z</time>
      </trkpt>
      <trkpt lat="42.07099" lon="25.43458">
        <ele>192.075183</ele>
        <time>2022-03-02T10:41:49.921Z</time>
      </trkpt>
      <trkpt lat="42.07102" lon="25.43447">
        <ele>192.117955</ele>
        <time>2022-03-02T10:41:56.932Z</time>
      </trkpt>
      <trkpt lat="42.07107" lon="25.43435">
        <ele>192.162038</ele>
        <time>2022-03-02T10:42:03.922Z</time>
      </trkpt>
      <trkpt lat="42.07111" lon="25.43423">
        <ele>192.20749</ele>
        <time>2022-03-02T10:42:09.925Z</time>
      </trkpt>
      <trkpt lat="42.07114" lon="25.43411">
        <ele>192.253153</ele>
        <time>2022-03-02T10:42:15.928Z</time>
      </trkpt>
      <trkpt lat="42.07119" lon="25.43399">
        <ele>192.30076</ele>
        <time>2022-03-02T10:42:21.928Z</time>
      </trkpt>
      <trkpt lat="42.07124" lon="25.43388">
        <ele>192.343501</ele>
        <time>2022-03-02T10:42:26.953Z</time>
      </trkpt>
      <trkpt lat="42.07129" lon="25.43376">
        <ele>192.390752</ele>
        <time>2022-03-02T10:42:32.929Z</time>
      </trkpt>
      <trkpt lat="42.07133" lon="25.43363">
        <ele>192.440999</ele>
        <time>2022-03-02T10:42:38.925Z</time>
      </trkpt>
      <trkpt lat="42.07137" lon="25.43349">
        <ele>192.490012</ele>
        <time>2022-03-02T10:42:43.911Z</time>
      </trkpt>
      <trkpt lat="42.07141" lon="25.43337">
        <ele>192.534972</ele>
        <time>2022-03-02T10:42:48.915Z</time>
      </trkpt>
      <trkpt lat="42.07145" lon="25.43324">
        <ele>192.583985</ele>
        <time>2022-03-02T10:42:53.928Z</time>
      </trkpt>
      <trkpt lat="42.07148" lon="25.43311">
        <ele>192.502907</ele>
        <time>2022-03-02T10:42:57.918Z</time>
      </trkpt>
      <trkpt lat="42.07151" lon="25.43297">
        <ele>192.298777</ele>
        <time>2022-03-02T10:43:01.920Z</time>
      </trkpt>
      <trkpt lat="42.07154" lon="25.43283">
        <ele>192.083401</ele>
        <time>2022-03-02T10:43:05.954Z</time>
      </trkpt>
      <trkpt lat="42.07157" lon="25.43267">
        <ele>191.85413</ele>
        <time>2022-03-02T10:43:09.928Z</time>
      </trkpt>
      <trkpt lat="42.07159" lon="25.43253">
        <ele>191.655481</ele>
        <time>2022-03-02T10:43:12.954Z</time>
      </trkpt>
      <trkpt lat="42.07161" lon="25.4324">
        <ele>191.460674</ele>
        <time>2022-03-02T10:43:15.919Z</time>
      </trkpt>
      <trkpt lat="42.07163" lon="25.43227">
        <ele>191.273834</ele>
        <time>2022-03-02T10:43:18.994Z</time>
      </trkpt>
      <trkpt lat="42.07165" lon="25.43214">
        <ele>191.092893</ele>
        <time>2022-03-02T10:43:21.929Z</time>
      </trkpt>
      <trkpt lat="42.07166" lon="25.43201">
        <ele>190.909182</ele>
        <time>2022-03-02T10:43:24.913Z</time>
      </trkpt>
      <trkpt lat="42.07168" lon="25.43188">
        <ele>190.725053</ele>
        <time>2022-03-02T10:43:27.925Z</time>
      </trkpt>
      <trkpt lat="42.0717" lon="25.43176">
        <ele>190.542498</ele>
        <time>2022-03-02T10:43:30.898Z</time>
      </trkpt>
      <trkpt lat="42.07173" lon="25.43163">
        <ele>190.355675</ele>
        <time>2022-03-02T10:43:33.914Z</time>
      </trkpt>
      <trkpt lat="42.07176" lon="25.4315">
        <ele>190.165817</ele>
        <time>2022-03-02T10:43:36.942Z</time>
      </trkpt>
      <trkpt lat="42.07178" lon="25.43137">
        <ele>189.980104</ele>
        <time>2022-03-02T10:43:39.910Z</time>
      </trkpt>
      <trkpt lat="42.0718" lon="25.43125">
        <ele>189.8035</ele>
        <time>2022-03-02T10:43:42.954Z</time>
      </trkpt>
      <trkpt lat="42.07183" lon="25.43113">
        <ele>189.620527</ele>
        <time>2022-03-02T10:43:45.937Z</time>
      </trkpt>
      <trkpt lat="42.07185" lon="25.431">
        <ele>189.435252</ele>
        <time>2022-03-02T10:43:48.930Z</time>
      </trkpt>
      <trkpt lat="42.07186" lon="25.43087">
        <ele>189.24772</ele>
        <time>2022-03-02T10:43:51.930Z</time>
      </trkpt>
      <trkpt lat="42.07188" lon="25.43074">
        <ele>189.081986</ele>
        <time>2022-03-02T10:43:54.913Z</time>
      </trkpt>
      <trkpt lat="42.0719" lon="25.43062">
        <ele>188.930407</ele>
        <time>2022-03-02T10:43:57.914Z</time>
      </trkpt>
      <trkpt lat="42.07192" lon="25.43049">
        <ele>188.765789</ele>
        <time>2022-03-02T10:44:00.926Z</time>
      </trkpt>
      <trkpt lat="42.07194" lon="25.43036">
        <ele>188.600269</ele>
        <time>2022-03-02T10:44:03.928Z</time>
      </trkpt>
      <trkpt lat="42.07196" lon="25.43023">
        <ele>188.438947</ele>
        <time>2022-03-02T10:44:06.918Z</time>
      </trkpt>
      <trkpt lat="42.07197" lon="25.4301">
        <ele>188.280078</ele>
        <time>2022-03-02T10:44:09.916Z</time>
      </trkpt>
      <trkpt lat="42.07199" lon="25.42997">
        <ele>188.111509</ele>
        <time>2022-03-02T10:44:12.918Z</time>
      </trkpt>
      <trkpt lat="42.07202" lon="25.42983">
        <ele>187.936705</ele>
        <time>2022-03-02T10:44:15.951Z</time>
      </trkpt>
      <trkpt lat="42.07204" lon="25.4297">
        <ele>187.767449</ele>
        <time>2022-03-02T10:44:18.924Z</time>
      </trkpt>
      <trkpt lat="42.07206" lon="25.42955">
        <ele>187.583477</ele>
        <time>2022-03-02T10:44:21.964Z</time>
      </trkpt>
      <trkpt lat="42.07209" lon="25.4294">
        <ele>187.390694</ele>
        <time>2022-03-02T10:44:24.908Z</time>
      </trkpt>
      <trkpt lat="42.07213" lon="25.42924">
        <ele>187.191361</ele>
        <time>2022-03-02T10:44:27.910Z</time>
      </trkpt>
      <trkpt lat="42.07217" lon="25.42909">
        <ele>186.988977</ele>
        <time>2022-03-02T10:44:30.919Z</time>
      </trkpt>
      <trkpt lat="42.07221" lon="25.42893">
        <ele>186.773912</ele>
        <time>2022-03-02T10:44:33.915Z</time>
      </trkpt>
      <trkpt lat="42.07225" lon="25.42881">
        <ele>186.623536</ele>
        <time>2022-03-02T10:44:35.926Z</time>
      </trkpt>
      <trkpt lat="42.07228" lon="25.4287">
        <ele>186.469107</ele>
        <time>2022-03-02T10:44:37.914Z</time>
      </trkpt>
      <trkpt lat="42.07232" lon="25.42859">
        <ele>186.319877</ele>
        <time>2022-03-02T10:44:39.922Z</time>
      </trkpt>
      <trkpt lat="42.07236" lon="25.42848">
        <ele>186.122758</ele>
        <time>2022-03-02T10:44:41.924Z</time>
      </trkpt>
      <trkpt lat="42.07241" lon="25.42837">
        <ele>185.72311</ele>
        <time>2022-03-02T10:44:43.913Z</time>
      </trkpt>
      <trkpt lat="42.07246" lon="25.42827">
        <ele>185.318202</ele>
        <time>2022-03-02T10:44:45.920Z</time>
      </trkpt>
      <trkpt lat="42.07251" lon="25.42815">
        <ele>184.879774</ele>
        <time>2022-03-02T10:44:47.921Z</time>
      </trkpt>
      <trkpt lat="42.07258" lon="25.42804">
        <ele>184.413118</ele>
        <time>2022-03-02T10:44:49.970Z</time>
      </trkpt>
      <trkpt lat="42.07264" lon="25.42791">
        <ele>183.920461</ele>
        <time>2022-03-02T10:44:51.917Z</time>
      </trkpt>
      <trkpt lat="42.07271" lon="25.42778">
        <ele>183.404642</ele>
        <time>2022-03-02T10:44:53.920Z</time>
      </trkpt>
      <trkpt lat="42.07278" lon="25.42764">
        <ele>182.862834</ele>
        <time>2022-03-02T10:44:55.915Z</time>
      </trkpt>
      <trkpt lat="42.07286" lon="25.4275">
        <ele>182.295386</ele>
        <time>2022-03-02T10:44:57.962Z</time>
      </trkpt>
      <trkpt lat="42.07293" lon="25.42735">
        <ele>181.714471</ele>
        <time>2022-03-02T10:44:59.912Z</time>
      </trkpt>
      <trkpt lat="42.073" lon="25.42721">
        <ele>181.162229</ele>
        <time>2022-03-02T10:45:01.929Z</time>
      </trkpt>
      <trkpt lat="42.07307" lon="25.42708">
        <ele>180.631054</ele>
        <time>2022-03-02T10:45:03.933Z</time>
      </trkpt>
      <trkpt lat="42.07314" lon="25.42694">
        <ele>180.12017</ele>
        <time>2022-03-02T10:45:05.927Z</time>
      </trkpt>
      <trkpt lat="42.07322" lon="25.42681">
        <ele>179.560512</ele>
        <time>2022-03-02T10:45:07.942Z</time>
      </trkpt>
      <trkpt lat="42.0733" lon="25.42665">
        <ele>178.948219</ele>
        <time>2022-03-02T10:45:09.938Z</time>
      </trkpt>
      <trkpt lat="42.07338" lon="25.42649">
        <ele>178.314755</ele>
        <time>2022-03-02T10:45:11.917Z</time>
      </trkpt>
      <trkpt lat="42.07346" lon="25.42632">
        <ele>177.67542</ele>
        <time>2022-03-02T10:45:13.907Z</time>
      </trkpt>
      <trkpt lat="42.07355" lon="25.42614">
        <ele>177.015517</ele>
        <time>2022-03-02T10:45:15.911Z</time>
      </trkpt>
      <trkpt lat="42.07364" lon="25.42597">
        <ele>176.340444</ele>
        <time>2022-03-02T10:45:17.994Z</time>
      </trkpt>
      <trkpt lat="42.07373" lon="25.42579">
        <ele>175.660394</ele>
        <time>2022-03-02T10:45:19.927Z</time>
      </trkpt>
      <trkpt lat="42.07383" lon="25.42561">
        <ele>174.958096</ele>
        <time>2022-03-02T10:45:21.927Z</time>
      </trkpt>
      <trkpt lat="42.07393" lon="25.42542">
        <ele>174.240794</ele>
        <time>2022-03-02T10:45:23.970Z</time>
      </trkpt>
      <trkpt lat="42.07403" lon="25.42523">
        <ele>173.508032</ele>
        <time>2022-03-02T10:45:25.917Z</time>
      </trkpt>
      <trkpt lat="42.07413" lon="25.42503">
        <ele>172.744935</ele>
        <time>2022-03-02T10:45:27.921Z</time>
      </trkpt>
      <trkpt lat="42.07418" lon="25.42493">
        <ele>172.360703</ele>
        <time>2022-03-02T10:45:28.898Z</time>
      </trkpt>
      <trkpt lat="42.07423" lon="25.42483">
        <ele>171.979068</ele>
        <time>2022-03-02T10:45:29.902Z</time>
      </trkpt>
      <trkpt lat="42.07433" lon="25.42463">
        <ele>171.22264</ele>
        <time>2022-03-02T10:45:31.920Z</time>
      </trkpt>
      <trkpt lat="42.07443" lon="25.42444">
        <ele>170.767607</ele>
        <time>2022-03-02T10:45:33.911Z</time>
      </trkpt>
      <trkpt lat="42.07452" lon="25.42426">
        <ele>170.790429</ele>
        <time>2022-03-02T10:45:35.912Z</time>
      </trkpt>
      <trkpt lat="42.07461" lon="25.42409">
        <ele>170.811991</ele>
        <time>2022-03-02T10:45:37.914Z</time>
      </trkpt>
      <trkpt lat="42.07469" lon="25.42393">
        <ele>170.831803</ele>
        <time>2022-03-02T10:45:39.920Z</time>
      </trkpt>
      <trkpt lat="42.07476" lon="25.4238">
        <ele>170.849031</ele>
        <time>2022-03-02T10:45:41.933Z</time>
      </trkpt>
      <trkpt lat="42.07482" lon="25.42367">
        <ele>170.865035</ele>
        <time>2022-03-02T10:45:43.924Z</time>
      </trkpt>
      <trkpt lat="42.07488" lon="25.42356">
        <ele>170.878768</ele>
        <time>2022-03-02T10:45:45.922Z</time>
      </trkpt>
      <trkpt lat="42.07496" lon="25.42342">
        <ele>170.897</ele>
        <time>2022-03-02T10:45:48.930Z</time>
      </trkpt>
      <trkpt lat="42.07502" lon="25.42331">
        <ele>170.911483</ele>
        <time>2022-03-02T10:45:51.914Z</time>
      </trkpt>
      <trkpt lat="42.07508" lon="25.42321">
        <ele>170.924052</ele>
        <time>2022-03-02T10:45:54.915Z</time>
      </trkpt>
      <trkpt lat="42.07513" lon="25.4231">
        <ele>170.937453</ele>
        <time>2022-03-02T10:45:57.924Z</time>
      </trkpt>
      <trkpt lat="42.07519" lon="25.423">
        <ele>170.951113</ele>
        <time>2022-03-02T10:46:00.900Z</time>
      </trkpt>
      <trkpt lat="42.07524" lon="25.42289">
        <ele>170.964596</ele>
        <time>2022-03-02T10:46:03.918Z</time>
      </trkpt>
      <trkpt lat="42.0753" lon="25.42279">
        <ele>170.977331</ele>
        <time>2022-03-02T10:46:06.957Z</time>
      </trkpt>
      <trkpt lat="42.07536" lon="25.42266">
        <ele>170.993565</ele>
        <time>2022-03-02T10:46:10.930Z</time>
      </trkpt>
      <trkpt lat="42.07542" lon="25.42254">
        <ele>171.008697</ele>
        <time>2022-03-02T10:46:14.937Z</time>
      </trkpt>
      <trkpt lat="42.07548" lon="25.42243">
        <ele>171.511433</ele>
        <time>2022-03-02T10:46:18.910Z</time>
      </trkpt>
      <trkpt lat="42.07552" lon="25.42232">
        <ele>172.022699</ele>
        <time>2022-03-02T10:46:22.909Z</time>
      </trkpt>
      <trkpt lat="42.07558" lon="25.42222">
        <ele>172.538337</ele>
        <time>2022-03-02T10:46:26.910Z</time>
      </trkpt>
      <trkpt lat="42.07563" lon="25.42211">
        <ele>173.077221</ele>
        <time>2022-03-02T10:46:30.939Z</time>
      </trkpt>
      <trkpt lat="42.07569" lon="25.42201">
        <ele>173.582744</ele>
        <time>2022-03-02T10:46:34.949Z</time>
      </trkpt>
      <trkpt lat="42.07575" lon="25.42189">
        <ele>174.200207</ele>
        <time>2022-03-02T10:46:39.901Z</time>
      </trkpt>
      <trkpt lat="42.07581" lon="25.42179">
        <ele>174.718634</ele>
        <time>2022-03-02T10:46:43.938Z</time>
      </trkpt>
      <trkpt lat="42.07586" lon="25.42169">
        <ele>175.237035</ele>
        <time>2022-03-02T10:46:47.907Z</time>
      </trkpt>
      <trkpt lat="42.07592" lon="25.42158">
        <ele>175.766002</ele>
        <time>2022-03-02T10:46:51.921Z</time>
      </trkpt>
      <trkpt lat="42.07597" lon="25.42146">
        <ele>176.358786</ele>
        <time>2022-03-02T10:46:56.906Z</time>
      </trkpt>
      <trkpt lat="42.07603" lon="25.42134">
        <ele>176.95157</ele>
        <time>2022-03-02T10:47:01.942Z</time>
      </trkpt>
      <trkpt lat="42.07608" lon="25.42123">
        <ele>177.472068</ele>
        <time>2022-03-02T10:47:05.913Z</time>
      </trkpt>
      <trkpt lat="42.07612" lon="25.42111">
        <ele>178.000433</ele>
        <time>2022-03-02T10:47:09.918Z</time>
      </trkpt>
      <trkpt lat="42.07617" lon="25.42099">
        <ele>178.592657</ele>
        <time>2022-03-02T10:47:13.958Z</time>
      </trkpt>
      <trkpt lat="42.07622" lon="25.42087">
        <ele>179.119973</ele>
        <time>2022-03-02T10:47:16.900Z</time>
      </trkpt>
      <trkpt lat="42.07627" lon="25.42077">
        <ele>179.634778</ele>
        <time>2022-03-02T10:47:19.913Z</time>
      </trkpt>
      <trkpt lat="42.07632" lon="25.42064">
        <ele>180.241075</ele>
        <time>2022-03-02T10:47:23.951Z</time>
      </trkpt>
      <trkpt lat="42.07637" lon="25.42051">
        <ele>180.852046</ele>
        <time>2022-03-02T10:47:27.910Z</time>
      </trkpt>
      <trkpt lat="42.07643" lon="25.42038">
        <ele>181.12348</ele>
        <time>2022-03-02T10:47:31.925Z</time>
      </trkpt>
      <trkpt lat="42.07648" lon="25.42026">
        <ele>181.301625</ele>
        <time>2022-03-02T10:47:35.920Z</time>
      </trkpt>
      <trkpt lat="42.07654" lon="25.42013">
        <ele>181.485423</ele>
        <time>2022-03-02T10:47:39.918Z</time>
      </trkpt>
      <trkpt lat="42.07659" lon="25.42001">
        <ele>181.669806</ele>
        <time>2022-03-02T10:47:43.913Z</time>
      </trkpt>
      <trkpt lat="42.07664" lon="25.41989">
        <ele>181.842961</ele>
        <time>2022-03-02T10:47:47.925Z</time>
      </trkpt>
      <trkpt lat="42.0767" lon="25.41978">
        <ele>182.015643</ele>
        <time>2022-03-02T10:47:51.926Z</time>
      </trkpt>
      <trkpt lat="42.07675" lon="25.41966">
        <ele>182.184652</ele>
        <time>2022-03-02T10:47:55.922Z</time>
      </trkpt>
      <trkpt lat="42.07679" lon="25.41955">
        <ele>182.347322</ele>
        <time>2022-03-02T10:47:59.953Z</time>
      </trkpt>
      <trkpt lat="42.07685" lon="25.41944">
        <ele>182.514604</ele>
        <time>2022-03-02T10:48:03.949Z</time>
      </trkpt>
      <trkpt lat="42.0769" lon="25.41932">
        <ele>182.684038</ele>
        <time>2022-03-02T10:48:07.925Z</time>
      </trkpt>
      <trkpt lat="42.07695" lon="25.4192">
        <ele>182.858577</ele>
        <time>2022-03-02T10:48:11.922Z</time>
      </trkpt>
      <trkpt lat="42.07699" lon="25.41909">
        <ele>183.022342</ele>
        <time>2022-03-02T10:48:15.922Z</time>
      </trkpt>
      <trkpt lat="42.07704" lon="25.41898">
        <ele>183.176417</ele>
        <time>2022-03-02T10:48:19.928Z</time>
      </trkpt>
      <trkpt lat="42.07709" lon="25.41886">
        <ele>183.357888</ele>
        <time>2022-03-02T10:48:24.934Z</time>
      </trkpt>
      <trkpt lat="42.07715" lon="25.41875">
        <ele>183.529485</ele>
        <time>2022-03-02T10:48:29.922Z</time>
      </trkpt>
      <trkpt lat="42.0772" lon="25.41863">
        <ele>183.701296</ele>
        <time>2022-03-02T10:48:34.900Z</time>
      </trkpt>
      <trkpt lat="42.07725" lon="25.4185">
        <ele>183.883343</ele>
        <time>2022-03-02T10:48:39.931Z</time>
      </trkpt>
      <trkpt lat="42.0773" lon="25.41839">
        <ele>184.084342</ele>
        <time>2022-03-02T10:48:44.920Z</time>
      </trkpt>
      <trkpt lat="42.07735" lon="25.41827">
        <ele>184.717576</ele>
        <time>2022-03-02T10:48:49.924Z</time>
      </trkpt>
      <trkpt lat="42.0774" lon="25.41816">
        <ele>185.3775</ele>
        <time>2022-03-02T10:48:54.957Z</time>
      </trkpt>
      <trkpt lat="42.07745" lon="25.41805">
        <ele>186.007701</ele>
        <time>2022-03-02T10:48:59.924Z</time>
      </trkpt>
      <trkpt lat="42.0775" lon="25.41793">
        <ele>186.669574</ele>
        <time>2022-03-02T10:49:04.916Z</time>
      </trkpt>
      <trkpt lat="42.07754" lon="25.4178">
        <ele>187.368914</ele>
        <time>2022-03-02T10:49:10.913Z</time>
      </trkpt>
      <trkpt lat="42.07759" lon="25.41768">
        <ele>188.03151</ele>
        <time>2022-03-02T10:49:16.925Z</time>
      </trkpt>
      <trkpt lat="42.07763" lon="25.41755">
        <ele>188.726421</ele>
        <time>2022-03-02T10:49:22.951Z</time>
      </trkpt>
      <trkpt lat="42.07767" lon="25.41741">
        <ele>189.419558</ele>
        <time>2022-03-02T10:49:28.951Z</time>
      </trkpt>
      <trkpt lat="42.07771" lon="25.41728">
        <ele>190.090056</ele>
        <time>2022-03-02T10:49:33.914Z</time>
      </trkpt>
      <trkpt lat="42.07774" lon="25.41716">
        <ele>190.719756</ele>
        <time>2022-03-02T10:49:38.926Z</time>
      </trkpt>
      <trkpt lat="42.07777" lon="25.41704">
        <ele>191.321802</ele>
        <time>2022-03-02T10:49:43.899Z</time>
      </trkpt>
      <trkpt lat="42.07781" lon="25.4169">
        <ele>192.04909</ele>
        <time>2022-03-02T10:49:49.899Z</time>
      </trkpt>
      <trkpt lat="42.07784" lon="25.41678">
        <ele>192.69219</ele>
        <time>2022-03-02T10:49:54.892Z</time>
      </trkpt>
      <trkpt lat="42.07786" lon="25.41666">
        <ele>193.287627</ele>
        <time>2022-03-02T10:49:59.897Z</time>
      </trkpt>
      <trkpt lat="42.07788" lon="25.41654">
        <ele>193.879783</ele>
        <time>2022-03-02T10:50:04.896Z</time>
      </trkpt>
      <trkpt lat="42.07791" lon="25.41641">
        <ele>194.570901</ele>
        <time>2022-03-02T10:50:10.894Z</time>
      </trkpt>
      <trkpt lat="42.07793" lon="25.41628">
        <ele>195.194159</ele>
        <time>2022-03-02T10:50:15.894Z</time>
      </trkpt>
      <trkpt lat="42.07797" lon="25.41616">
        <ele>195.848981</ele>
        <time>2022-03-02T10:50:21.895Z</time>
      </trkpt>
      <trkpt lat="42.078" lon="25.41602">
        <ele>196.313982</ele>
        <time>2022-03-02T10:50:27.907Z</time>
      </trkpt>
      <trkpt lat="42.07804" lon="25.4159">
        <ele>196.760244</ele>
        <time>2022-03-02T10:50:33.907Z</time>
      </trkpt>
      <trkpt lat="42.07805" lon="25.41577">
        <ele>197.174636</ele>
        <time>2022-03-02T10:50:39.899Z</time>
      </trkpt>
      <trkpt lat="42.07807" lon="25.41564">
        <ele>197.623215</ele>
        <time>2022-03-02T10:50:45.896Z</time>
      </trkpt>
      <trkpt lat="42.0781" lon="25.41552">
        <ele>198.066497</ele>
        <time>2022-03-02T10:50:50.892Z</time>
      </trkpt>
      <trkpt lat="42.07813" lon="25.41539">
        <ele>198.503372</ele>
        <time>2022-03-02T10:50:55.892Z</time>
      </trkpt>
      <trkpt lat="42.07817" lon="25.41527">
        <ele>198.943388</ele>
        <time>2022-03-02T10:51:00.896Z</time>
      </trkpt>
      <trkpt lat="42.0782" lon="25.41515">
        <ele>199.372455</ele>
        <time>2022-03-02T10:51:05.928Z</time>
      </trkpt>
      <trkpt lat="42.07823" lon="25.41502">
        <ele>199.809295</ele>
        <time>2022-03-02T10:51:10.892Z</time>
      </trkpt>
      <trkpt lat="42.07827" lon="25.4149">
        <ele>200.267054</ele>
        <time>2022-03-02T10:51:15.890Z</time>
      </trkpt>
      <trkpt lat="42.0783" lon="25.41477">
        <ele>200.713366</ele>
        <time>2022-03-02T10:51:20.890Z</time>
      </trkpt>
      <trkpt lat="42.07833" lon="25.41465">
        <ele>201.142414</ele>
        <time>2022-03-02T10:51:25.906Z</time>
      </trkpt>
      <trkpt lat="42.07837" lon="25.41452">
        <ele>201.601198</ele>
        <time>2022-03-02T10:51:30.891Z</time>
      </trkpt>
      <trkpt lat="42.07839" lon="25.41439">
        <ele>202.041107</ele>
        <time>2022-03-02T10:51:35.902Z</time>
      </trkpt>
      <trkpt lat="42.07842" lon="25.41428">
        <ele>202.456076</ele>
        <time>2022-03-02T10:51:40.892Z</time>
      </trkpt>
      <trkpt lat="42.07845" lon="25.41416">
        <ele>202.876251</ele>
        <time>2022-03-02T10:51:45.921Z</time>
      </trkpt>
      <trkpt lat="42.07847" lon="25.41403">
        <ele>203.307531</ele>
        <time>2022-03-02T10:51:50.893Z</time>
      </trkpt>
      <trkpt lat="42.07851" lon="25.4139">
        <ele>203.772595</ele>
        <time>2022-03-02T10:51:56.888Z</time>
      </trkpt>
      <trkpt lat="42.07853" lon="25.41378">
        <ele>203.958568</ele>
        <time>2022-03-02T10:52:01.895Z</time>
      </trkpt>
      <trkpt lat="42.07856" lon="25.41367">
        <ele>204.014383</ele>
        <time>2022-03-02T10:52:06.899Z</time>
      </trkpt>
      <trkpt lat="42.07859" lon="25.41355">
        <ele>204.074687</ele>
        <time>2022-03-02T10:52:12.892Z</time>
      </trkpt>
      <trkpt lat="42.07862" lon="25.41341">
        <ele>204.138782</ele>
        <time>2022-03-02T10:52:18.922Z</time>
      </trkpt>
      <trkpt lat="42.07865" lon="25.41329">
        <ele>204.196706</ele>
        <time>2022-03-02T10:52:23.897Z</time>
      </trkpt>
      <trkpt lat="42.07868" lon="25.41318">
        <ele>204.253972</ele>
        <time>2022-03-02T10:52:28.904Z</time>
      </trkpt>
      <trkpt lat="42.07872" lon="25.41306">
        <ele>204.313249</ele>
        <time>2022-03-02T10:52:33.904Z</time>
      </trkpt>
      <trkpt lat="42.07875" lon="25.41292">
        <ele>204.381124</ele>
        <time>2022-03-02T10:52:38.899Z</time>
      </trkpt>
      <trkpt lat="42.07877" lon="25.41279">
        <ele>204.44298</ele>
        <time>2022-03-02T10:52:43.892Z</time>
      </trkpt>
      <trkpt lat="42.0788" lon="25.41267">
        <ele>204.5027</ele>
        <time>2022-03-02T10:52:48.892Z</time>
      </trkpt>
      <trkpt lat="42.07883" lon="25.41255">
        <ele>204.560468</ele>
        <time>2022-03-02T10:52:53.895Z</time>
      </trkpt>
      <trkpt lat="42.07886" lon="25.41242">
        <ele>204.621513</ele>
        <time>2022-03-02T10:52:58.898Z</time>
      </trkpt>
      <trkpt lat="42.07888" lon="25.41229">
        <ele>204.682311</ele>
        <time>2022-03-02T10:53:03.898Z</time>
      </trkpt>
      <trkpt lat="42.07891" lon="25.41216">
        <ele>204.74892</ele>
        <time>2022-03-02T10:53:09.896Z</time>
      </trkpt>
      <trkpt lat="42.07895" lon="25.41202">
        <ele>204.815328</ele>
        <time>2022-03-02T10:53:15.904Z</time>
      </trkpt>
      <trkpt lat="42.07898" lon="25.4119">
        <ele>204.87442</ele>
        <time>2022-03-02T10:53:20.895Z</time>
      </trkpt>
      <trkpt lat="42.07901" lon="25.41178">
        <ele>204.933654</ele>
        <time>2022-03-02T10:53:25.927Z</time>
      </trkpt>
      <trkpt lat="42.07903" lon="25.41165">
        <ele>204.996992</ele>
        <time>2022-03-02T10:53:30.898Z</time>
      </trkpt>
      <trkpt lat="42.07907" lon="25.41152">
        <ele>205.107233</ele>
        <time>2022-03-02T10:53:35.910Z</time>
      </trkpt>
      <trkpt lat="42.07911" lon="25.41139">
        <ele>205.346386</ele>
        <time>2022-03-02T10:53:40.890Z</time>
      </trkpt>
      <trkpt lat="42.07914" lon="25.41127">
        <ele>205.566203</ele>
        <time>2022-03-02T10:53:45.907Z</time>
      </trkpt>
      <trkpt lat="42.07915" lon="25.41114">
        <ele>205.804366</ele>
        <time>2022-03-02T10:53:50.891Z</time>
      </trkpt>
      <trkpt lat="42.07918" lon="25.41102">
        <ele>206.025134</ele>
        <time>2022-03-02T10:53:55.901Z</time>
      </trkpt>
      <trkpt lat="42.07921" lon="25.41089">
        <ele>206.254285</ele>
        <time>2022-03-02T10:54:00.897Z</time>
      </trkpt>
      <trkpt lat="42.07925" lon="25.41077">
        <ele>206.491694</ele>
        <time>2022-03-02T10:54:05.900Z</time>
      </trkpt>
      <trkpt lat="42.07928" lon="25.41064">
        <ele>206.739829</ele>
        <time>2022-03-02T10:54:10.892Z</time>
      </trkpt>
      <trkpt lat="42.07931" lon="25.41052">
        <ele>206.955065</ele>
        <time>2022-03-02T10:54:14.908Z</time>
      </trkpt>
      <trkpt lat="42.07934" lon="25.41039">
        <ele>207.193089</ele>
        <time>2022-03-02T10:54:19.903Z</time>
      </trkpt>
      <trkpt lat="42.07936" lon="25.41027">
        <ele>207.409532</ele>
        <time>2022-03-02T10:54:23.902Z</time>
      </trkpt>
      <trkpt lat="42.07939" lon="25.41016">
        <ele>207.623876</ele>
        <time>2022-03-02T10:54:27.899Z</time>
      </trkpt>
      <trkpt lat="42.07942" lon="25.41004">
        <ele>207.845789</ele>
        <time>2022-03-02T10:54:31.916Z</time>
      </trkpt>
      <trkpt lat="42.07945" lon="25.40992">
        <ele>208.070114</ele>
        <time>2022-03-02T10:54:35.889Z</time>
      </trkpt>
      <trkpt lat="42.07948" lon="25.40979">
        <ele>208.300194</ele>
        <time>2022-03-02T10:54:39.899Z</time>
      </trkpt>
      <trkpt lat="42.07951" lon="25.40967">
        <ele>208.526649</ele>
        <time>2022-03-02T10:54:43.897Z</time>
      </trkpt>
      <trkpt lat="42.07954" lon="25.40955">
        <ele>208.749517</ele>
        <time>2022-03-02T10:54:47.900Z</time>
      </trkpt>
      <trkpt lat="42.07957" lon="25.40942">
        <ele>208.985549</ele>
        <time>2022-03-02T10:54:51.900Z</time>
      </trkpt>
      <trkpt lat="42.0796" lon="25.40929">
        <ele>209.22158</ele>
        <time>2022-03-02T10:54:55.897Z</time>
      </trkpt>
      <trkpt lat="42.07962" lon="25.40917">
        <ele>209.497034</ele>
        <time>2022-03-02T10:54:59.897Z</time>
      </trkpt>
      <trkpt lat="42.07965" lon="25.40904">
        <ele>209.822276</ele>
        <time>2022-03-02T10:55:03.898Z</time>
      </trkpt>
      <trkpt lat="42.07968" lon="25.40892">
        <ele>210.134473</ele>
        <time>2022-03-02T10:55:07.898Z</time>
      </trkpt>
      <trkpt lat="42.07971" lon="25.40878">
        <ele>210.473181</ele>
        <time>2022-03-02T10:55:11.902Z</time>
      </trkpt>
      <trkpt lat="42.07974" lon="25.40865">
        <ele>210.818001</ele>
        <time>2022-03-02T10:55:15.896Z</time>
      </trkpt>
      <trkpt lat="42.07976" lon="25.40852">
        <ele>211.136013</ele>
        <time>2022-03-02T10:55:19.901Z</time>
      </trkpt>
      <trkpt lat="42.07979" lon="25.4084">
        <ele>211.454514</ele>
        <time>2022-03-02T10:55:23.896Z</time>
      </trkpt>
      <trkpt lat="42.07983" lon="25.40827">
        <ele>211.775291</ele>
        <time>2022-03-02T10:55:27.898Z</time>
      </trkpt>
      <trkpt lat="42.07986" lon="25.40813">
        <ele>212.138373</ele>
        <time>2022-03-02T10:55:32.902Z</time>
      </trkpt>
      <trkpt lat="42.07989" lon="25.40801">
        <ele>212.445641</ele>
        <time>2022-03-02T10:55:36.897Z</time>
      </trkpt>
      <trkpt lat="42.07992" lon="25.40789">
        <ele>212.758555</ele>
        <time>2022-03-02T10:55:40.893Z</time>
      </trkpt>
      <trkpt lat="42.07995" lon="25.40776">
        <ele>213.080583</ele>
        <time>2022-03-02T10:55:44.892Z</time>
      </trkpt>
      <trkpt lat="42.07997" lon="25.40762">
        <ele>213.418217</ele>
        <time>2022-03-02T10:55:48.889Z</time>
      </trkpt>
      <trkpt lat="42.08" lon="25.4075">
        <ele>213.736229</ele>
        <time>2022-03-02T10:55:52.896Z</time>
      </trkpt>
      <trkpt lat="42.08003" lon="25.40737">
        <ele>214.060646</ele>
        <time>2022-03-02T10:55:56.890Z</time>
      </trkpt>
      <trkpt lat="42.08006" lon="25.40724">
        <ele>214.382758</ele>
        <time>2022-03-02T10:56:00.889Z</time>
      </trkpt>
      <trkpt lat="42.0801" lon="25.4071">
        <ele>214.745664</ele>
        <time>2022-03-02T10:56:05.897Z</time>
      </trkpt>
      <trkpt lat="42.08013" lon="25.40698">
        <ele>215.074474</ele>
        <time>2022-03-02T10:56:10.901Z</time>
      </trkpt>
      <trkpt lat="42.08016" lon="25.40685">
        <ele>215.289913</ele>
        <time>2022-03-02T10:56:14.893Z</time>
      </trkpt>
      <trkpt lat="42.08018" lon="25.40671">
        <ele>215.478237</ele>
        <time>2022-03-02T10:56:19.896Z</time>
      </trkpt>
      <trkpt lat="42.08022" lon="25.40658">
        <ele>215.652742</ele>
        <time>2022-03-02T10:56:24.889Z</time>
      </trkpt>
      <trkpt lat="42.08026" lon="25.40646">
        <ele>215.823168</ele>
        <time>2022-03-02T10:56:29.904Z</time>
      </trkpt>
      <trkpt lat="42.08029" lon="25.40634">
        <ele>215.979539</ele>
        <time>2022-03-02T10:56:33.893Z</time>
      </trkpt>
      <trkpt lat="42.08032" lon="25.4062">
        <ele>216.161309</ele>
        <time>2022-03-02T10:56:38.893Z</time>
      </trkpt>
      <trkpt lat="42.08035" lon="25.40609">
        <ele>216.320327</ele>
        <time>2022-03-02T10:56:42.892Z</time>
      </trkpt>
      <trkpt lat="42.08038" lon="25.40597">
        <ele>216.479344</ele>
        <time>2022-03-02T10:56:46.898Z</time>
      </trkpt>
      <trkpt lat="42.08042" lon="25.40584">
        <ele>216.651106</ele>
        <time>2022-03-02T10:56:50.897Z</time>
      </trkpt>
      <trkpt lat="42.08045" lon="25.40571">
        <ele>216.8251</ele>
        <time>2022-03-02T10:56:55.905Z</time>
      </trkpt>
      <trkpt lat="42.08048" lon="25.40559">
        <ele>216.996146</ele>
        <time>2022-03-02T10:57:00.889Z</time>
      </trkpt>
      <trkpt lat="42.08051" lon="25.40544">
        <ele>217.180784</ele>
        <time>2022-03-02T10:57:05.903Z</time>
      </trkpt>
      <trkpt lat="42.08054" lon="25.40531">
        <ele>217.359608</ele>
        <time>2022-03-02T10:57:10.900Z</time>
      </trkpt>
      <trkpt lat="42.08057" lon="25.40519">
        <ele>217.515107</ele>
        <time>2022-03-02T10:57:15.889Z</time>
      </trkpt>
      <trkpt lat="42.08059" lon="25.40506">
        <ele>217.693951</ele>
        <time>2022-03-02T10:57:21.900Z</time>
      </trkpt>
      <trkpt lat="42.08061" lon="25.40493">
        <ele>217.856043</ele>
        <time>2022-03-02T10:57:26.894Z</time>
      </trkpt>
      <trkpt lat="42.08064" lon="25.40481">
        <ele>218.017055</ele>
        <time>2022-03-02T10:57:31.894Z</time>
      </trkpt>
      <trkpt lat="42.08068" lon="25.4047">
        <ele>218.172606</ele>
        <time>2022-03-02T10:57:36.920Z</time>
      </trkpt>
      <trkpt lat="42.08071" lon="25.40458">
        <ele>218.193826</ele>
        <time>2022-03-02T10:57:41.906Z</time>
      </trkpt>
      <trkpt lat="42.08074" lon="25.40446">
        <ele>218.011636</ele>
        <time>2022-03-02T10:57:46.895Z</time>
      </trkpt>
      <trkpt lat="42.08076" lon="25.40434">
        <ele>217.838129</ele>
        <time>2022-03-02T10:57:51.903Z</time>
      </trkpt>
      <trkpt lat="42.08079" lon="25.40421">
        <ele>217.660216</ele>
        <time>2022-03-02T10:57:56.896Z</time>
      </trkpt>
      <trkpt lat="42.0808" lon="25.40409">
        <ele>217.489816</ele>
        <time>2022-03-02T10:58:01.893Z</time>
      </trkpt>
      <trkpt lat="42.08083" lon="25.40397">
        <ele>217.315918</ele>
        <time>2022-03-02T10:58:06.898Z</time>
      </trkpt>
      <trkpt lat="42.08085" lon="25.40384">
        <ele>217.142162</ele>
        <time>2022-03-02T10:58:11.893Z</time>
      </trkpt>
      <trkpt lat="42.08087" lon="25.40371">
        <ele>216.955143</ele>
        <time>2022-03-02T10:58:16.896Z</time>
      </trkpt>
      <trkpt lat="42.08088" lon="25.40358">
        <ele>216.766462</ele>
        <time>2022-03-02T10:58:21.917Z</time>
      </trkpt>
      <trkpt lat="42.0809" lon="25.40343">
        <ele>216.557087</ele>
        <time>2022-03-02T10:58:26.902Z</time>
      </trkpt>
      <trkpt lat="42.08091" lon="25.40327">
        <ele>216.34024</ele>
        <time>2022-03-02T10:58:30.902Z</time>
      </trkpt>
      <trkpt lat="42.08091" lon="25.40314">
        <ele>216.165153</ele>
        <time>2022-03-02T10:58:33.894Z</time>
      </trkpt>
      <trkpt lat="42.08091" lon="25.40299">
        <ele>215.961184</ele>
        <time>2022-03-02T10:58:36.893Z</time>
      </trkpt>
      <trkpt lat="42.08091" lon="25.40282">
        <ele>215.728245</ele>
        <time>2022-03-02T10:58:39.907Z</time>
      </trkpt>
      <trkpt lat="42.08091" lon="25.4027">
        <ele>215.558748</ele>
        <time>2022-03-02T10:58:41.896Z</time>
      </trkpt>
      <trkpt lat="42.0809" lon="25.40257">
        <ele>215.382336</ele>
        <time>2022-03-02T10:58:43.898Z</time>
      </trkpt>
      <trkpt lat="42.08088" lon="25.40244">
        <ele>215.198038</ele>
        <time>2022-03-02T10:58:45.892Z</time>
      </trkpt>
      <trkpt lat="42.08088" lon="25.40231">
        <ele>215.008677</ele>
        <time>2022-03-02T10:58:47.892Z</time>
      </trkpt>
      <trkpt lat="42.08087" lon="25.40216">
        <ele>214.717663</ele>
        <time>2022-03-02T10:58:49.900Z</time>
      </trkpt>
      <trkpt lat="42.08085" lon="25.40201">
        <ele>214.31495</ele>
        <time>2022-03-02T10:58:51.899Z</time>
      </trkpt>
      <trkpt lat="42.08083" lon="25.40185">
        <ele>213.89704</ele>
        <time>2022-03-02T10:58:53.913Z</time>
      </trkpt>
      <trkpt lat="42.08081" lon="25.40168">
        <ele>213.456533</ele>
        <time>2022-03-02T10:58:55.889Z</time>
      </trkpt>
      <trkpt lat="42.08079" lon="25.40151">
        <ele>213.022903</ele>
        <time>2022-03-02T10:58:57.925Z</time>
      </trkpt>
      <trkpt lat="42.08077" lon="25.40135">
        <ele>212.610839</ele>
        <time>2022-03-02T10:58:59.889Z</time>
      </trkpt>
      <trkpt lat="42.08076" lon="25.4012">
        <ele>212.216962</ele>
        <time>2022-03-02T10:59:01.907Z</time>
      </trkpt>
      <trkpt lat="42.08075" lon="25.40105">
        <ele>211.83395</ele>
        <time>2022-03-02T10:59:03.905Z</time>
      </trkpt>
      <trkpt lat="42.08074" lon="25.4009">
        <ele>211.458887</ele>
        <time>2022-03-02T10:59:05.920Z</time>
      </trkpt>
      <trkpt lat="42.08074" lon="25.40076">
        <ele>211.089201</ele>
        <time>2022-03-02T10:59:07.905Z</time>
      </trkpt>
      <trkpt lat="42.08072" lon="25.40061">
        <ele>210.712745</ele>
        <time>2022-03-02T10:59:09.945Z</time>
      </trkpt>
      <trkpt lat="42.08071" lon="25.40046">
        <ele>210.318867</ele>
        <time>2022-03-02T10:59:11.899Z</time>
      </trkpt>
      <trkpt lat="42.0807" lon="25.40031">
        <ele>209.923105</ele>
        <time>2022-03-02T10:59:13.900Z</time>
      </trkpt>
      <trkpt lat="42.08069" lon="25.40014">
        <ele>209.492447</ele>
        <time>2022-03-02T10:59:15.898Z</time>
      </trkpt>
      <trkpt lat="42.08066" lon="25.39996">
        <ele>209.014753</ele>
        <time>2022-03-02T10:59:17.904Z</time>
      </trkpt>
      <trkpt lat="42.0806" lon="25.39975">
        <ele>208.45718</ele>
        <time>2022-03-02T10:59:19.893Z</time>
      </trkpt>
      <trkpt lat="42.08051" lon="25.39956">
        <ele>207.843527</ele>
        <time>2022-03-02T10:59:21.895Z</time>
      </trkpt>
      <trkpt lat="42.08045" lon="25.39946">
        <ele>207.51757</ele>
        <time>2022-03-02T10:59:22.974Z</time>
      </trkpt>
      <trkpt lat="42.08039" lon="25.39936">
        <ele>207.185352</ele>
        <time>2022-03-02T10:59:23.933Z</time>
      </trkpt>
      <trkpt lat="42.08034" lon="25.39926">
        <ele>206.865732</ele>
        <time>2022-03-02T10:59:24.908Z</time>
      </trkpt>
      <trkpt lat="42.08024" lon="25.39906">
        <ele>206.247236</ele>
        <time>2022-03-02T10:59:26.925Z</time>
      </trkpt>
      <trkpt lat="42.08014" lon="25.39887">
        <ele>205.653405</ele>
        <time>2022-03-02T10:59:28.890Z</time>
      </trkpt>
      <trkpt lat="42.08006" lon="25.3987">
        <ele>205.106531</ele>
        <time>2022-03-02T10:59:30.893Z</time>
      </trkpt>
      <trkpt lat="42.07999" lon="25.39854">
        <ele>204.616421</ele>
        <time>2022-03-02T10:59:32.890Z</time>
      </trkpt>
      <trkpt lat="42.07992" lon="25.39839">
        <ele>204.157666</ele>
        <time>2022-03-02T10:59:34.899Z</time>
      </trkpt>
      <trkpt lat="42.07984" lon="25.39824">
        <ele>203.704152</ele>
        <time>2022-03-02T10:59:36.894Z</time>
      </trkpt>
      <trkpt lat="42.07976" lon="25.39811">
        <ele>203.249831</ele>
        <time>2022-03-02T10:59:38.890Z</time>
      </trkpt>
      <trkpt lat="42.07968" lon="25.39797">
        <ele>202.798603</ele>
        <time>2022-03-02T10:59:40.895Z</time>
      </trkpt>
      <trkpt lat="42.0796" lon="25.39783">
        <ele>202.437835</ele>
        <time>2022-03-02T10:59:42.898Z</time>
      </trkpt>
      <trkpt lat="42.07952" lon="25.39767">
        <ele>202.54061</ele>
        <time>2022-03-02T10:59:44.916Z</time>
      </trkpt>
      <trkpt lat="42.07945" lon="25.39751">
        <ele>202.64044</ele>
        <time>2022-03-02T10:59:46.897Z</time>
      </trkpt>
      <trkpt lat="42.07941" lon="25.39733">
        <ele>202.74775</ele>
        <time>2022-03-02T10:59:48.903Z</time>
      </trkpt>
      <trkpt lat="42.0794" lon="25.39713">
        <ele>202.859252</ele>
        <time>2022-03-02T10:59:50.888Z</time>
      </trkpt>
      <trkpt lat="42.0794" lon="25.39694">
        <ele>202.96362</ele>
        <time>2022-03-02T10:59:52.898Z</time>
      </trkpt>
      <trkpt lat="42.0794" lon="25.39679">
        <ele>203.043978</ele>
        <time>2022-03-02T10:59:54.908Z</time>
      </trkpt>
      <trkpt lat="42.07942" lon="25.39666">
        <ele>203.11776</ele>
        <time>2022-03-02T10:59:56.891Z</time>
      </trkpt>
      <trkpt lat="42.07944" lon="25.39653">
        <ele>203.185939</ele>
        <time>2022-03-02T10:59:58.896Z</time>
      </trkpt>
      <trkpt lat="42.07945" lon="25.39638">
        <ele>203.270704</ele>
        <time>2022-03-02T11:00:01.899Z</time>
      </trkpt>
      <trkpt lat="42.07946" lon="25.39623">
        <ele>203.353741</ele>
        <time>2022-03-02T11:00:05.892Z</time>
      </trkpt>
      <trkpt lat="42.07947" lon="25.3961">
        <ele>203.427165</ele>
        <time>2022-03-02T11:00:10.895Z</time>
      </trkpt>
      <trkpt lat="42.0795" lon="25.39596">
        <ele>203.507145</ele>
        <time>2022-03-02T11:00:16.892Z</time>
      </trkpt>
      <trkpt lat="42.07952" lon="25.39584">
        <ele>203.57411</ele>
        <time>2022-03-02T11:00:21.901Z</time>
      </trkpt>
      <trkpt lat="42.07953" lon="25.3957">
        <ele>203.647463</ele>
        <time>2022-03-02T11:00:26.893Z</time>
      </trkpt>
      <trkpt lat="42.07954" lon="25.39557">
        <ele>203.722876</ele>
        <time>2022-03-02T11:00:32.888Z</time>
      </trkpt>
      <trkpt lat="42.07956" lon="25.39544">
        <ele>203.854687</ele>
        <time>2022-03-02T11:00:38.897Z</time>
      </trkpt>
      <trkpt lat="42.07959" lon="25.3953">
        <ele>204.022356</ele>
        <time>2022-03-02T11:00:45.895Z</time>
      </trkpt>
      <trkpt lat="42.07962" lon="25.39518">
        <ele>204.177939</ele>
        <time>2022-03-02T11:00:49.899Z</time>
      </trkpt>
      <trkpt lat="42.07966" lon="25.39504">
        <ele>204.355959</ele>
        <time>2022-03-02T11:00:53.933Z</time>
      </trkpt>
      <trkpt lat="42.07969" lon="25.39491">
        <ele>204.516081</ele>
        <time>2022-03-02T11:00:56.889Z</time>
      </trkpt>
      <trkpt lat="42.07971" lon="25.39479">
        <ele>204.665327</ele>
        <time>2022-03-02T11:00:59.951Z</time>
      </trkpt>
      <trkpt lat="42.07972" lon="25.39464">
        <ele>204.840234</ele>
        <time>2022-03-02T11:01:02.902Z</time>
      </trkpt>
      <trkpt lat="42.07975" lon="25.39448">
        <ele>205.041843</ele>
        <time>2022-03-02T11:01:05.905Z</time>
      </trkpt>
      <trkpt lat="42.07975" lon="25.39435">
        <ele>205.190443</ele>
        <time>2022-03-02T11:01:07.916Z</time>
      </trkpt>
      <trkpt lat="42.07976" lon="25.39422">
        <ele>205.349888</ele>
        <time>2022-03-02T11:01:09.922Z</time>
      </trkpt>
      <trkpt lat="42.07977" lon="25.3941">
        <ele>205.496613</ele>
        <time>2022-03-02T11:01:11.925Z</time>
      </trkpt>
      <trkpt lat="42.07979" lon="25.39394">
        <ele>205.683916</ele>
        <time>2022-03-02T11:01:14.936Z</time>
      </trkpt>
      <trkpt lat="42.07982" lon="25.39378">
        <ele>205.88797</ele>
        <time>2022-03-02T11:01:17.944Z</time>
      </trkpt>
      <trkpt lat="42.07983" lon="25.39365">
        <ele>206.041762</ele>
        <time>2022-03-02T11:01:19.954Z</time>
      </trkpt>
      <trkpt lat="42.07984" lon="25.39351">
        <ele>206.206902</ele>
        <time>2022-03-02T11:01:21.920Z</time>
      </trkpt>
      <trkpt lat="42.0798" lon="25.39335">
        <ele>206.414134</ele>
        <time>2022-03-02T11:01:24.912Z</time>
      </trkpt>
      <trkpt lat="42.07975" lon="25.39323">
        <ele>206.578432</ele>
        <time>2022-03-02T11:01:27.909Z</time>
      </trkpt>
      <trkpt lat="42.07969" lon="25.3931">
        <ele>206.385555</ele>
        <time>2022-03-02T11:01:31.901Z</time>
      </trkpt>
      <trkpt lat="42.07963" lon="25.39297">
        <ele>205.977586</ele>
        <time>2022-03-02T11:01:35.921Z</time>
      </trkpt>
      <trkpt lat="42.0796" lon="25.39285">
        <ele>205.647553</ele>
        <time>2022-03-02T11:01:38.917Z</time>
      </trkpt>
      <trkpt lat="42.07956" lon="25.39273">
        <ele>205.287764</ele>
        <time>2022-03-02T11:01:42.910Z</time>
      </trkpt>
      <trkpt lat="42.07951" lon="25.39259">
        <ele>204.909549</ele>
        <time>2022-03-02T11:01:46.922Z</time>
      </trkpt>
      <trkpt lat="42.07946" lon="25.39249">
        <ele>204.586351</ele>
        <time>2022-03-02T11:01:49.906Z</time>
      </trkpt>
      <trkpt lat="42.07942" lon="25.39237">
        <ele>204.241288</ele>
        <time>2022-03-02T11:01:53.900Z</time>
      </trkpt>
      <trkpt lat="42.07936" lon="25.39226">
        <ele>203.884551</ele>
        <time>2022-03-02T11:01:57.926Z</time>
      </trkpt>
      <trkpt lat="42.0793" lon="25.39213">
        <ele>203.475632</ele>
        <time>2022-03-02T11:02:01.929Z</time>
      </trkpt>
      <trkpt lat="42.07924" lon="25.39201">
        <ele>203.09359</ele>
        <time>2022-03-02T11:02:06.913Z</time>
      </trkpt>
      <trkpt lat="42.07918" lon="25.3919">
        <ele>202.750181</ele>
        <time>2022-03-02T11:02:10.903Z</time>
      </trkpt>
      <trkpt lat="42.07923" lon="25.39204">
        <ele>202.367579</ele>
        <time>2022-03-02T11:02:26.953Z</time>
      </trkpt>
      <trkpt lat="42.07927" lon="25.39218">
        <ele>201.970325</ele>
        <time>2022-03-02T11:02:31.922Z</time>
      </trkpt>
      <trkpt lat="42.0793" lon="25.39231">
        <ele>201.604868</ele>
        <time>2022-03-02T11:02:35.935Z</time>
      </trkpt>
      <trkpt lat="42.07936" lon="25.39243">
        <ele>201.220625</ele>
        <time>2022-03-02T11:02:39.932Z</time>
      </trkpt>
      <trkpt lat="42.07942" lon="25.39255">
        <ele>200.834177</ele>
        <time>2022-03-02T11:02:43.940Z</time>
      </trkpt>
      <trkpt lat="42.07948" lon="25.39268">
        <ele>200.451909</ele>
        <time>2022-03-02T11:02:47.953Z</time>
      </trkpt>
      <trkpt lat="42.07953" lon="25.39281">
        <ele>200.090803</ele>
        <time>2022-03-02T11:02:51.922Z</time>
      </trkpt>
      <trkpt lat="42.0796" lon="25.39292">
        <ele>199.745492</ele>
        <time>2022-03-02T11:02:55.912Z</time>
      </trkpt>
      <trkpt lat="42.07966" lon="25.39302">
        <ele>199.459571</ele>
        <time>2022-03-02T11:02:58.922Z</time>
      </trkpt>
      <trkpt lat="42.07972" lon="25.39316">
        <ele>199.084981</ele>
        <time>2022-03-02T11:03:02.924Z</time>
      </trkpt>
      <trkpt lat="42.07976" lon="25.39327">
        <ele>198.784118</ele>
        <time>2022-03-02T11:03:05.924Z</time>
      </trkpt>
      <trkpt lat="42.0798" lon="25.3934">
        <ele>198.476292</ele>
        <time>2022-03-02T11:03:09.014Z</time>
      </trkpt>
      <trkpt lat="42.07988" lon="25.39351">
        <ele>198.113943</ele>
        <time>2022-03-02T11:03:12.930Z</time>
      </trkpt>
      <trkpt lat="42.08" lon="25.39352">
        <ele>197.728232</ele>
        <time>2022-03-02T11:03:15.910Z</time>
      </trkpt>
      <trkpt lat="42.08011" lon="25.39344">
        <ele>197.326984</ele>
        <time>2022-03-02T11:03:18.934Z</time>
      </trkpt>
      <trkpt lat="42.08022" lon="25.39333">
        <ele>196.920973</ele>
        <time>2022-03-02T11:03:21.930Z</time>
      </trkpt>
      <trkpt lat="42.08032" lon="25.39324">
        <ele>196.529953</ele>
        <time>2022-03-02T11:03:24.925Z</time>
      </trkpt>
      <trkpt lat="42.08041" lon="25.39318">
        <ele>196.205757</ele>
        <time>2022-03-02T11:03:26.916Z</time>
      </trkpt>
      <trkpt lat="42.08052" lon="25.39309">
        <ele>195.826345</ele>
        <time>2022-03-02T11:03:28.929Z</time>
      </trkpt>
      <trkpt lat="42.08063" lon="25.39299">
        <ele>195.403553</ele>
        <time>2022-03-02T11:03:30.911Z</time>
      </trkpt>
      <trkpt lat="42.08072" lon="25.39284">
        <ele>194.955088</ele>
        <time>2022-03-02T11:03:32.959Z</time>
      </trkpt>
      <trkpt lat="42.08081" lon="25.39268">
        <ele>194.670505</ele>
        <time>2022-03-02T11:03:34.924Z</time>
      </trkpt>
      <trkpt lat="42.08089" lon="25.39251">
        <ele>194.697847</ele>
        <time>2022-03-02T11:03:36.902Z</time>
      </trkpt>
      <trkpt lat="42.08099" lon="25.39233">
        <ele>194.726672</ele>
        <time>2022-03-02T11:03:38.920Z</time>
      </trkpt>
      <trkpt lat="42.08106" lon="25.39214">
        <ele>194.755048</ele>
        <time>2022-03-02T11:03:40.905Z</time>
      </trkpt>
      <trkpt lat="42.0811" lon="25.39195">
        <ele>194.782144</ele>
        <time>2022-03-02T11:03:42.908Z</time>
      </trkpt>
      <trkpt lat="42.08114" lon="25.39177">
        <ele>194.806901</ele>
        <time>2022-03-02T11:03:44.924Z</time>
      </trkpt>
      <trkpt lat="42.08119" lon="25.39162">
        <ele>194.829079</ele>
        <time>2022-03-02T11:03:46.901Z</time>
      </trkpt>
      <trkpt lat="42.08124" lon="25.3915">
        <ele>194.847064</ele>
        <time>2022-03-02T11:03:48.927Z</time>
      </trkpt>
      <trkpt lat="42.0813" lon="25.39138">
        <ele>194.866034</ele>
        <time>2022-03-02T11:03:51.894Z</time>
      </trkpt>
      <trkpt lat="42.08136" lon="25.39125">
        <ele>194.886568</ele>
        <time>2022-03-02T11:03:55.914Z</time>
      </trkpt>
      <trkpt lat="42.08142" lon="25.39115">
        <ele>194.903286</ele>
        <time>2022-03-02T11:03:59.908Z</time>
      </trkpt>
      <trkpt lat="42.08147" lon="25.39102">
        <ele>194.923313</ele>
        <time>2022-03-02T11:04:04.946Z</time>
      </trkpt>
      <trkpt lat="42.08153" lon="25.39091">
        <ele>194.941338</ele>
        <time>2022-03-02T11:04:09.912Z</time>
      </trkpt>
      <trkpt lat="42.08157" lon="25.39079">
        <ele>194.959118</ele>
        <time>2022-03-02T11:04:14.917Z</time>
      </trkpt>
      <trkpt lat="42.08162" lon="25.39068">
        <ele>194.975786</ele>
        <time>2022-03-02T11:04:19.955Z</time>
      </trkpt>
      <trkpt lat="42.08167" lon="25.39056">
        <ele>195.130208</ele>
        <time>2022-03-02T11:04:25.906Z</time>
      </trkpt>
      <trkpt lat="42.08172" lon="25.39045">
        <ele>195.383974</ele>
        <time>2022-03-02T11:04:31.949Z</time>
      </trkpt>
      <trkpt lat="42.08176" lon="25.39033">
        <ele>195.628103</ele>
        <time>2022-03-02T11:04:37.918Z</time>
      </trkpt>
      <trkpt lat="42.08181" lon="25.39023">
        <ele>195.863248</ele>
        <time>2022-03-02T11:04:42.900Z</time>
      </trkpt>
      <trkpt lat="42.08185" lon="25.39011">
        <ele>196.106749</ele>
        <time>2022-03-02T11:04:47.889Z</time>
      </trkpt>
      <trkpt lat="42.0819" lon="25.39001">
        <ele>196.339795</ele>
        <time>2022-03-02T11:04:52.887Z</time>
      </trkpt>
      <trkpt lat="42.08195" lon="25.38991">
        <ele>196.580579</ele>
        <time>2022-03-02T11:04:57.892Z</time>
      </trkpt>
      <trkpt lat="42.08202" lon="25.38979">
        <ele>196.854955</ele>
        <time>2022-03-02T11:05:02.885Z</time>
      </trkpt>
      <trkpt lat="42.08207" lon="25.38968">
        <ele>197.111362</ele>
        <time>2022-03-02T11:05:07.890Z</time>
      </trkpt>
      <trkpt lat="42.08212" lon="25.38958">
        <ele>197.345972</ele>
        <time>2022-03-02T11:05:11.898Z</time>
      </trkpt>
      <trkpt lat="42.08217" lon="25.38945">
        <ele>197.618728</ele>
        <time>2022-03-02T11:05:15.917Z</time>
      </trkpt>
      <trkpt lat="42.08221" lon="25.3893">
        <ele>197.929293</ele>
        <time>2022-03-02T11:05:19.896Z</time>
      </trkpt>
      <trkpt lat="42.08225" lon="25.38916">
        <ele>198.220101</ele>
        <time>2022-03-02T11:05:22.897Z</time>
      </trkpt>
      <trkpt lat="42.0823" lon="25.389">
        <ele>198.542257</ele>
        <time>2022-03-02T11:05:25.890Z</time>
      </trkpt>
      <trkpt lat="42.08234" lon="25.38883">
        <ele>198.877827</ele>
        <time>2022-03-02T11:05:28.894Z</time>
      </trkpt>
      <trkpt lat="42.08238" lon="25.38871">
        <ele>199.129367</ele>
        <time>2022-03-02T11:05:30.905Z</time>
      </trkpt>
      <trkpt lat="42.08242" lon="25.38858">
        <ele>199.405859</ele>
        <time>2022-03-02T11:05:32.896Z</time>
      </trkpt>
      <trkpt lat="42.08245" lon="25.38843">
        <ele>199.583156</ele>
        <time>2022-03-02T11:05:34.899Z</time>
      </trkpt>
      <trkpt lat="42.08249" lon="25.3883">
        <ele>199.4987</ele>
        <time>2022-03-02T11:05:36.904Z</time>
      </trkpt>
      <trkpt lat="42.08254" lon="25.38817">
        <ele>199.413636</ele>
        <time>2022-03-02T11:05:38.893Z</time>
      </trkpt>
      <trkpt lat="42.08258" lon="25.38805">
        <ele>199.337326</ele>
        <time>2022-03-02T11:05:40.900Z</time>
      </trkpt>
      <trkpt lat="42.08263" lon="25.38794">
        <ele>199.259286</ele>
        <time>2022-03-02T11:05:42.898Z</time>
      </trkpt>
      <trkpt lat="42.08268" lon="25.38782">
        <ele>199.182771</ele>
        <time>2022-03-02T11:05:44.893Z</time>
      </trkpt>
      <trkpt lat="42.08273" lon="25.38768">
        <ele>199.086769</ele>
        <time>2022-03-02T11:05:47.892Z</time>
      </trkpt>
      <trkpt lat="42.08277" lon="25.38755">
        <ele>199.005378</ele>
        <time>2022-03-02T11:05:50.895Z</time>
      </trkpt>
      <trkpt lat="42.08281" lon="25.38743">
        <ele>198.926119</ele>
        <time>2022-03-02T11:05:53.897Z</time>
      </trkpt>
      <trkpt lat="42.08285" lon="25.38731">
        <ele>198.850636</ele>
        <time>2022-03-02T11:05:56.907Z</time>
      </trkpt>
      <trkpt lat="42.08288" lon="25.38719">
        <ele>198.776097</ele>
        <time>2022-03-02T11:05:59.891Z</time>
      </trkpt>
      <trkpt lat="42.08294" lon="25.38705">
        <ele>198.681672</ele>
        <time>2022-03-02T11:06:03.890Z</time>
      </trkpt>
      <trkpt lat="42.08298" lon="25.38694">
        <ele>198.609393</ele>
        <time>2022-03-02T11:06:06.901Z</time>
      </trkpt>
      <trkpt lat="42.08302" lon="25.38683">
        <ele>198.534293</ele>
        <time>2022-03-02T11:06:09.892Z</time>
      </trkpt>
      <trkpt lat="42.08306" lon="25.38671">
        <ele>198.459671</ele>
        <time>2022-03-02T11:06:12.886Z</time>
      </trkpt>
      <trkpt lat="42.08311" lon="25.38657">
        <ele>198.369471</ele>
        <time>2022-03-02T11:06:16.892Z</time>
      </trkpt>
      <trkpt lat="42.08314" lon="25.38646">
        <ele>198.297991</ele>
        <time>2022-03-02T11:06:19.892Z</time>
      </trkpt>
      <trkpt lat="42.08317" lon="25.38633">
        <ele>198.221236</ele>
        <time>2022-03-02T11:06:22.896Z</time>
      </trkpt>
      <trkpt lat="42.0832" lon="25.38621">
        <ele>198.002708</ele>
        <time>2022-03-02T11:06:25.889Z</time>
      </trkpt>
      <trkpt lat="42.08324" lon="25.38608">
        <ele>197.618669</ele>
        <time>2022-03-02T11:06:28.887Z</time>
      </trkpt>
      <trkpt lat="42.08327" lon="25.38596">
        <ele>197.24519</ele>
        <time>2022-03-02T11:06:31.893Z</time>
      </trkpt>
      <trkpt lat="42.08331" lon="25.38583">
        <ele>196.867716</ele>
        <time>2022-03-02T11:06:34.897Z</time>
      </trkpt>
      <trkpt lat="42.08335" lon="25.3857">
        <ele>196.479355</ele>
        <time>2022-03-02T11:06:37.891Z</time>
      </trkpt>
      <trkpt lat="42.08339" lon="25.38557">
        <ele>196.086291</ele>
        <time>2022-03-02T11:06:40.897Z</time>
      </trkpt>
      <trkpt lat="42.08342" lon="25.38545">
        <ele>195.715311</ele>
        <time>2022-03-02T11:06:43.891Z</time>
      </trkpt>
      <trkpt lat="42.08345" lon="25.38532">
        <ele>195.341834</ele>
        <time>2022-03-02T11:06:46.892Z</time>
      </trkpt>
      <trkpt lat="42.08349" lon="25.38518">
        <ele>194.940185</ele>
        <time>2022-03-02T11:06:49.915Z</time>
      </trkpt>
      <trkpt lat="42.08352" lon="25.38505">
        <ele>194.539293</ele>
        <time>2022-03-02T11:06:52.897Z</time>
      </trkpt>
      <trkpt lat="42.08356" lon="25.3849">
        <ele>194.112278</ele>
        <time>2022-03-02T11:06:55.903Z</time>
      </trkpt>
      <trkpt lat="42.0836" lon="25.38476">
        <ele>193.69041</ele>
        <time>2022-03-02T11:06:58.902Z</time>
      </trkpt>
      <trkpt lat="42.08364" lon="25.38461">
        <ele>193.245067</ele>
        <time>2022-03-02T11:07:01.891Z</time>
      </trkpt>
      <trkpt lat="42.08369" lon="25.38444">
        <ele>192.747411</ele>
        <time>2022-03-02T11:07:04.889Z</time>
      </trkpt>
      <trkpt lat="42.08374" lon="25.38432">
        <ele>192.370392</ele>
        <time>2022-03-02T11:07:06.895Z</time>
      </trkpt>
      <trkpt lat="42.0838" lon="25.38419">
        <ele>191.935229</ele>
        <time>2022-03-02T11:07:08.895Z</time>
      </trkpt>
      <trkpt lat="42.08388" lon="25.38405">
        <ele>191.436363</ele>
        <time>2022-03-02T11:07:10.897Z</time>
      </trkpt>
      <trkpt lat="42.08396" lon="25.38388">
        <ele>190.744943</ele>
        <time>2022-03-02T11:07:12.940Z</time>
      </trkpt>
      <trkpt lat="42.08406" lon="25.38372">
        <ele>190.030349</ele>
        <time>2022-03-02T11:07:14.890Z</time>
      </trkpt>
      <trkpt lat="42.08416" lon="25.38355">
        <ele>189.276949</ele>
        <time>2022-03-02T11:07:16.892Z</time>
      </trkpt>
      <trkpt lat="42.08426" lon="25.38336">
        <ele>188.48511</ele>
        <time>2022-03-02T11:07:18.899Z</time>
      </trkpt>
      <trkpt lat="42.08436" lon="25.38317">
        <ele>187.662874</ele>
        <time>2022-03-02T11:07:20.896Z</time>
      </trkpt>
      <trkpt lat="42.08442" lon="25.38307">
        <ele>187.246197</ele>
        <time>2022-03-02T11:07:21.893Z</time>
      </trkpt>
      <trkpt lat="42.08452" lon="25.38288">
        <ele>186.432207</ele>
        <time>2022-03-02T11:07:23.888Z</time>
      </trkpt>
      <trkpt lat="42.08463" lon="25.3827">
        <ele>185.632029</ele>
        <time>2022-03-02T11:07:25.917Z</time>
      </trkpt>
      <trkpt lat="42.08473" lon="25.38252">
        <ele>184.859254</ele>
        <time>2022-03-02T11:07:27.889Z</time>
      </trkpt>
      <trkpt lat="42.08483" lon="25.38235">
        <ele>184.13088</ele>
        <time>2022-03-02T11:07:29.888Z</time>
      </trkpt>
      <trkpt lat="42.08492" lon="25.38219">
        <ele>183.426887</ele>
        <time>2022-03-02T11:07:31.887Z</time>
      </trkpt>
      <trkpt lat="42.08503" lon="25.38204">
        <ele>182.756356</ele>
        <time>2022-03-02T11:07:33.886Z</time>
      </trkpt>
      <trkpt lat="42.08515" lon="25.3819">
        <ele>182.108932</ele>
        <time>2022-03-02T11:07:35.892Z</time>
      </trkpt>
      <trkpt lat="42.08529" lon="25.3818">
        <ele>181.437229</ele>
        <time>2022-03-02T11:07:37.886Z</time>
      </trkpt>
      <trkpt lat="42.08544" lon="25.3817">
        <ele>180.739543</ele>
        <time>2022-03-02T11:07:39.917Z</time>
      </trkpt>
      <trkpt lat="42.08559" lon="25.38161">
        <ele>180.045616</ele>
        <time>2022-03-02T11:07:41.891Z</time>
      </trkpt>
      <trkpt lat="42.08574" lon="25.38151">
        <ele>179.356228</ele>
        <time>2022-03-02T11:07:43.885Z</time>
      </trkpt>
      <trkpt lat="42.08589" lon="25.3814">
        <ele>178.656683</ele>
        <time>2022-03-02T11:07:45.915Z</time>
      </trkpt>
      <trkpt lat="42.08604" lon="25.3813">
        <ele>177.950671</ele>
        <time>2022-03-02T11:07:47.888Z</time>
      </trkpt>
      <trkpt lat="42.0862" lon="25.3812">
        <ele>177.243712</ele>
        <time>2022-03-02T11:07:49.890Z</time>
      </trkpt>
      <trkpt lat="42.08635" lon="25.38109">
        <ele>176.522444</ele>
        <time>2022-03-02T11:07:51.891Z</time>
      </trkpt>
      <trkpt lat="42.08651" lon="25.38098">
        <ele>175.783835</ele>
        <time>2022-03-02T11:07:53.890Z</time>
      </trkpt>
      <trkpt lat="42.08659" lon="25.38091">
        <ele>175.309751</ele>
        <time>2022-03-02T11:07:54.898Z</time>
      </trkpt>
      <trkpt lat="42.08667" lon="25.38084">
        <ele>174.776264</ele>
        <time>2022-03-02T11:07:55.886Z</time>
      </trkpt>
      <trkpt lat="42.08675" lon="25.38077">
        <ele>174.2174</ele>
        <time>2022-03-02T11:07:56.914Z</time>
      </trkpt>
      <trkpt lat="42.08684" lon="25.38068">
        <ele>173.644231</ele>
        <time>2022-03-02T11:07:57.894Z</time>
      </trkpt>
      <trkpt lat="42.08692" lon="25.3806">
        <ele>173.052691</ele>
        <time>2022-03-02T11:07:58.906Z</time>
      </trkpt>
      <trkpt lat="42.08701" lon="25.38051">
        <ele>172.442766</ele>
        <time>2022-03-02T11:07:59.900Z</time>
      </trkpt>
      <trkpt lat="42.0871" lon="25.38042">
        <ele>171.814117</ele>
        <time>2022-03-02T11:08:00.898Z</time>
      </trkpt>
      <trkpt lat="42.08719" lon="25.38033">
        <ele>171.189416</ele>
        <time>2022-03-02T11:08:01.891Z</time>
      </trkpt>
      <trkpt lat="42.08728" lon="25.38024">
        <ele>170.564023</ele>
        <time>2022-03-02T11:08:02.892Z</time>
      </trkpt>
      <trkpt lat="42.08737" lon="25.38014">
        <ele>169.935155</ele>
        <time>2022-03-02T11:08:03.891Z</time>
      </trkpt>
      <trkpt lat="42.08745" lon="25.38004">
        <ele>169.314905</ele>
        <time>2022-03-02T11:08:04.900Z</time>
      </trkpt>
      <trkpt lat="42.08752" lon="25.37993">
        <ele>168.707387</ele>
        <time>2022-03-02T11:08:05.887Z</time>
      </trkpt>
      <trkpt lat="42.08759" lon="25.37981">
        <ele>168.103127</ele>
        <time>2022-03-02T11:08:06.893Z</time>
      </trkpt>
      <trkpt lat="42.08765" lon="25.37969">
        <ele>167.498234</ele>
        <time>2022-03-02T11:08:07.919Z</time>
      </trkpt>
      <trkpt lat="42.0877" lon="25.37956">
        <ele>166.888829</ele>
        <time>2022-03-02T11:08:08.903Z</time>
      </trkpt>
      <trkpt lat="42.08775" lon="25.37943">
        <ele>166.284741</ele>
        <time>2022-03-02T11:08:09.888Z</time>
      </trkpt>
      <trkpt lat="42.0878" lon="25.37931">
        <ele>165.683252</ele>
        <time>2022-03-02T11:08:10.897Z</time>
      </trkpt>
      <trkpt lat="42.08785" lon="25.37917">
        <ele>165.147841</ele>
        <time>2022-03-02T11:08:11.899Z</time>
      </trkpt>
      <trkpt lat="42.0879" lon="25.37904">
        <ele>164.610337</ele>
        <time>2022-03-02T11:08:12.908Z</time>
      </trkpt>
      <trkpt lat="42.08795" lon="25.37891">
        <ele>164.079231</ele>
        <time>2022-03-02T11:08:13.892Z</time>
      </trkpt>
      <trkpt lat="42.08801" lon="25.37878">
        <ele>163.546669</ele>
        <time>2022-03-02T11:08:14.904Z</time>
      </trkpt>
      <trkpt lat="42.08806" lon="25.37865">
        <ele>163.007777</ele>
        <time>2022-03-02T11:08:15.897Z</time>
      </trkpt>
      <trkpt lat="42.08811" lon="25.37852">
        <ele>162.452331</ele>
        <time>2022-03-02T11:08:16.899Z</time>
      </trkpt>
      <trkpt lat="42.08817" lon="25.37838">
        <ele>161.903901</ele>
        <time>2022-03-02T11:08:17.898Z</time>
      </trkpt>
      <trkpt lat="42.08822" lon="25.37825">
        <ele>161.359503</ele>
        <time>2022-03-02T11:08:18.915Z</time>
      </trkpt>
      <trkpt lat="42.08827" lon="25.37812">
        <ele>160.829284</ele>
        <time>2022-03-02T11:08:19.894Z</time>
      </trkpt>
      <trkpt lat="42.08832" lon="25.378">
        <ele>160.304555</ele>
        <time>2022-03-02T11:08:20.895Z</time>
      </trkpt>
      <trkpt lat="42.08837" lon="25.37787">
        <ele>159.793966</ele>
        <time>2022-03-02T11:08:21.893Z</time>
      </trkpt>
      <trkpt lat="42.08842" lon="25.37775">
        <ele>159.286568</ele>
        <time>2022-03-02T11:08:22.892Z</time>
      </trkpt>
      <trkpt lat="42.08847" lon="25.37763">
        <ele>158.791876</ele>
        <time>2022-03-02T11:08:23.894Z</time>
      </trkpt>
      <trkpt lat="42.08852" lon="25.37751">
        <ele>158.301792</ele>
        <time>2022-03-02T11:08:24.913Z</time>
      </trkpt>
      <trkpt lat="42.08857" lon="25.3774">
        <ele>157.821562</ele>
        <time>2022-03-02T11:08:25.888Z</time>
      </trkpt>
      <trkpt lat="42.08863" lon="25.37729">
        <ele>157.35161</ele>
        <time>2022-03-02T11:08:26.897Z</time>
      </trkpt>
      <trkpt lat="42.08869" lon="25.37719">
        <ele>156.88514</ele>
        <time>2022-03-02T11:08:27.904Z</time>
      </trkpt>
      <trkpt lat="42.08875" lon="25.37709">
        <ele>156.766092</ele>
        <time>2022-03-02T11:08:28.896Z</time>
      </trkpt>
      <trkpt lat="42.0888" lon="25.377">
        <ele>156.649891</ele>
        <time>2022-03-02T11:08:29.890Z</time>
      </trkpt>
      <trkpt lat="42.08892" lon="25.37682">
        <ele>156.427424</ele>
        <time>2022-03-02T11:08:31.896Z</time>
      </trkpt>
      <trkpt lat="42.08903" lon="25.37665">
        <ele>156.210682</ele>
        <time>2022-03-02T11:08:33.888Z</time>
      </trkpt>
      <trkpt lat="42.08915" lon="25.37649">
        <ele>155.998924</ele>
        <time>2022-03-02T11:08:35.924Z</time>
      </trkpt>
      <trkpt lat="42.08926" lon="25.37635">
        <ele>155.801328</ele>
        <time>2022-03-02T11:08:37.899Z</time>
      </trkpt>
      <trkpt lat="42.08937" lon="25.3762">
        <ele>155.609372</ele>
        <time>2022-03-02T11:08:39.894Z</time>
      </trkpt>
      <trkpt lat="42.08948" lon="25.37608">
        <ele>155.421784</ele>
        <time>2022-03-02T11:08:41.886Z</time>
      </trkpt>
      <trkpt lat="42.08959" lon="25.37595">
        <ele>155.238611</ele>
        <time>2022-03-02T11:08:43.902Z</time>
      </trkpt>
      <trkpt lat="42.0897" lon="25.37585">
        <ele>155.064</ele>
        <time>2022-03-02T11:08:45.889Z</time>
      </trkpt>
      <trkpt lat="42.08981" lon="25.37576">
        <ele>154.901077</ele>
        <time>2022-03-02T11:08:47.893Z</time>
      </trkpt>
      <trkpt lat="42.08992" lon="25.37569">
        <ele>154.747159</ele>
        <time>2022-03-02T11:08:49.897Z</time>
      </trkpt>
      <trkpt lat="42.09002" lon="25.37562">
        <ele>154.601232</ele>
        <time>2022-03-02T11:08:51.887Z</time>
      </trkpt>
      <trkpt lat="42.09012" lon="25.37556">
        <ele>154.608459</ele>
        <time>2022-03-02T11:08:53.905Z</time>
      </trkpt>
      <trkpt lat="42.09021" lon="25.3755">
        <ele>154.635112</ele>
        <time>2022-03-02T11:08:55.895Z</time>
      </trkpt>
      <trkpt lat="42.0903" lon="25.37545">
        <ele>154.660879</ele>
        <time>2022-03-02T11:08:57.930Z</time>
      </trkpt>
      <trkpt lat="42.09041" lon="25.37537">
        <ele>154.695204</ele>
        <time>2022-03-02T11:09:00.889Z</time>
      </trkpt>
      <trkpt lat="42.09052" lon="25.37529">
        <ele>154.726017</ele>
        <time>2022-03-02T11:09:03.890Z</time>
      </trkpt>
      <trkpt lat="42.09061" lon="25.37522">
        <ele>154.755041</ele>
        <time>2022-03-02T11:09:06.899Z</time>
      </trkpt>
      <trkpt lat="42.09071" lon="25.37516">
        <ele>154.783313</ele>
        <time>2022-03-02T11:09:09.900Z</time>
      </trkpt>
      <trkpt lat="42.0908" lon="25.3751">
        <ele>154.811497</ele>
        <time>2022-03-02T11:09:12.895Z</time>
      </trkpt>
      <trkpt lat="42.0909" lon="25.37504">
        <ele>154.840238</ele>
        <time>2022-03-02T11:09:15.890Z</time>
      </trkpt>
      <trkpt lat="42.09101" lon="25.37497">
        <ele>154.870844</ele>
        <time>2022-03-02T11:09:18.901Z</time>
      </trkpt>
      <trkpt lat="42.09111" lon="25.3749">
        <ele>154.901713</ele>
        <time>2022-03-02T11:09:21.900Z</time>
      </trkpt>
      <trkpt lat="42.09122" lon="25.37483">
        <ele>154.932557</ele>
        <time>2022-03-02T11:09:24.927Z</time>
      </trkpt>
      <trkpt lat="42.09132" lon="25.37477">
        <ele>154.962184</ele>
        <time>2022-03-02T11:09:27.888Z</time>
      </trkpt>
      <trkpt lat="42.09142" lon="25.3747">
        <ele>154.993101</ele>
        <time>2022-03-02T11:09:30.900Z</time>
      </trkpt>
      <trkpt lat="42.09154" lon="25.37464">
        <ele>155.027492</ele>
        <time>2022-03-02T11:09:33.893Z</time>
      </trkpt>
      <trkpt lat="42.09163" lon="25.37459">
        <ele>155.051564</ele>
        <time>2022-03-02T11:09:35.888Z</time>
      </trkpt>
      <trkpt lat="42.09175" lon="25.37452">
        <ele>155.419726</ele>
        <time>2022-03-02T11:09:38.894Z</time>
      </trkpt>
      <trkpt lat="42.09187" lon="25.37446">
        <ele>155.887595</ele>
        <time>2022-03-02T11:09:41.897Z</time>
      </trkpt>
      <trkpt lat="42.09196" lon="25.37443">
        <ele>156.219195</ele>
        <time>2022-03-02T11:09:43.889Z</time>
      </trkpt>
      <trkpt lat="42.09206" lon="25.37441">
        <ele>156.574011</ele>
        <time>2022-03-02T11:09:45.892Z</time>
      </trkpt>
      <trkpt lat="42.09216" lon="25.37441">
        <ele>156.915078</ele>
        <time>2022-03-02T11:09:47.898Z</time>
      </trkpt>
      <trkpt lat="42.09226" lon="25.37442">
        <ele>157.263405</ele>
        <time>2022-03-02T11:09:49.894Z</time>
      </trkpt>
      <trkpt lat="42.09239" lon="25.37441">
        <ele>157.725413</ele>
        <time>2022-03-02T11:09:52.900Z</time>
      </trkpt>
      <trkpt lat="42.09251" lon="25.37437">
        <ele>158.167305</ele>
        <time>2022-03-02T11:09:55.888Z</time>
      </trkpt>
      <trkpt lat="42.09261" lon="25.37428">
        <ele>158.594489</ele>
        <time>2022-03-02T11:09:58.906Z</time>
      </trkpt>
      <trkpt lat="42.09269" lon="25.37417">
        <ele>159.003185</ele>
        <time>2022-03-02T11:10:01.893Z</time>
      </trkpt>
      <trkpt lat="42.09275" lon="25.37404">
        <ele>159.405483</ele>
        <time>2022-03-02T11:10:05.892Z</time>
      </trkpt>
      <trkpt lat="42.0928" lon="25.37392">
        <ele>159.775125</ele>
        <time>2022-03-02T11:10:09.897Z</time>
      </trkpt>
      <trkpt lat="42.09285" lon="25.3738">
        <ele>160.154071</ele>
        <time>2022-03-02T11:10:13.893Z</time>
      </trkpt>
      <trkpt lat="42.09289" lon="25.37368">
        <ele>160.481674</ele>
        <time>2022-03-02T11:10:16.901Z</time>
      </trkpt>
      <trkpt lat="42.09294" lon="25.37356">
        <ele>160.84814</ele>
        <time>2022-03-02T11:10:19.895Z</time>
      </trkpt>
      <trkpt lat="42.09299" lon="25.37344">
        <ele>161.211682</ele>
        <time>2022-03-02T11:10:22.890Z</time>
      </trkpt>
      <trkpt lat="42.09303" lon="25.37333">
        <ele>161.544647</ele>
        <time>2022-03-02T11:10:25.922Z</time>
      </trkpt>
      <trkpt lat="42.09307" lon="25.37322">
        <ele>161.920063</ele>
        <time>2022-03-02T11:10:28.892Z</time>
      </trkpt>
      <trkpt lat="42.09312" lon="25.37311">
        <ele>162.287988</ele>
        <time>2022-03-02T11:10:31.891Z</time>
      </trkpt>
      <trkpt lat="42.09317" lon="25.37298">
        <ele>162.741648</ele>
        <time>2022-03-02T11:10:35.891Z</time>
      </trkpt>
      <trkpt lat="42.09323" lon="25.37284">
        <ele>163.201731</ele>
        <time>2022-03-02T11:10:39.889Z</time>
      </trkpt>
      <trkpt lat="42.09328" lon="25.3727">
        <ele>163.663305</ele>
        <time>2022-03-02T11:10:43.897Z</time>
      </trkpt>
      <trkpt lat="42.09334" lon="25.37258">
        <ele>164.103362</ele>
        <time>2022-03-02T11:10:47.917Z</time>
      </trkpt>
      <trkpt lat="42.0934" lon="25.37245">
        <ele>164.545299</ele>
        <time>2022-03-02T11:10:51.887Z</time>
      </trkpt>
      <trkpt lat="42.09344" lon="25.37235">
        <ele>164.909107</ele>
        <time>2022-03-02T11:10:54.893Z</time>
      </trkpt>
      <trkpt lat="42.09349" lon="25.37223">
        <ele>165.294281</ele>
        <time>2022-03-02T11:10:57.896Z</time>
      </trkpt>
      <trkpt lat="42.09352" lon="25.37211">
        <ele>165.683028</ele>
        <time>2022-03-02T11:11:00.888Z</time>
      </trkpt>
      <trkpt lat="42.09356" lon="25.372">
        <ele>166.045589</ele>
        <time>2022-03-02T11:11:03.893Z</time>
      </trkpt>
      <trkpt lat="42.09361" lon="25.37189">
        <ele>166.408716</ele>
        <time>2022-03-02T11:11:06.898Z</time>
      </trkpt>
      <trkpt lat="42.09366" lon="25.37178">
        <ele>166.792369</ele>
        <time>2022-03-02T11:11:09.892Z</time>
      </trkpt>
      <trkpt lat="42.09371" lon="25.37165">
        <ele>167.240106</ele>
        <time>2022-03-02T11:11:13.898Z</time>
      </trkpt>
      <trkpt lat="42.09376" lon="25.37154">
        <ele>167.626294</ele>
        <time>2022-03-02T11:11:16.893Z</time>
      </trkpt>
      <trkpt lat="42.09381" lon="25.37141">
        <ele>168.046224</ele>
        <time>2022-03-02T11:11:19.888Z</time>
      </trkpt>
      <trkpt lat="42.09386" lon="25.3713">
        <ele>168.446734</ele>
        <time>2022-03-02T11:11:22.900Z</time>
      </trkpt>
      <trkpt lat="42.09391" lon="25.37118">
        <ele>168.577034</ele>
        <time>2022-03-02T11:11:25.890Z</time>
      </trkpt>
      <trkpt lat="42.09396" lon="25.37106">
        <ele>168.436663</ele>
        <time>2022-03-02T11:11:28.896Z</time>
      </trkpt>
      <trkpt lat="42.09402" lon="25.37095">
        <ele>168.295554</ele>
        <time>2022-03-02T11:11:31.891Z</time>
      </trkpt>
      <trkpt lat="42.09407" lon="25.37083">
        <ele>168.158926</ele>
        <time>2022-03-02T11:11:34.891Z</time>
      </trkpt>
      <trkpt lat="42.09412" lon="25.37072">
        <ele>168.023623</ele>
        <time>2022-03-02T11:11:37.913Z</time>
      </trkpt>
      <trkpt lat="42.09417" lon="25.3706">
        <ele>167.881804</ele>
        <time>2022-03-02T11:11:40.897Z</time>
      </trkpt>
      <trkpt lat="42.09421" lon="25.37047">
        <ele>167.744518</ele>
        <time>2022-03-02T11:11:43.887Z</time>
      </trkpt>
      <trkpt lat="42.09426" lon="25.37035">
        <ele>167.606694</ele>
        <time>2022-03-02T11:11:46.898Z</time>
      </trkpt>
      <trkpt lat="42.0943" lon="25.37024">
        <ele>167.471017</ele>
        <time>2022-03-02T11:11:49.902Z</time>
      </trkpt>
      <trkpt lat="42.09434" lon="25.37011">
        <ele>167.333494</ele>
        <time>2022-03-02T11:11:52.895Z</time>
      </trkpt>
      <trkpt lat="42.09438" lon="25.37">
        <ele>167.204451</ele>
        <time>2022-03-02T11:11:55.897Z</time>
      </trkpt>
      <trkpt lat="42.09443" lon="25.36986">
        <ele>167.046078</ele>
        <time>2022-03-02T11:11:59.913Z</time>
      </trkpt>
      <trkpt lat="42.09448" lon="25.36976">
        <ele>166.922244</ele>
        <time>2022-03-02T11:12:02.897Z</time>
      </trkpt>
      <trkpt lat="42.09451" lon="25.36965">
        <ele>166.797867</ele>
        <time>2022-03-02T11:12:05.927Z</time>
      </trkpt>
      <trkpt lat="42.09455" lon="25.36954">
        <ele>166.673824</ele>
        <time>2022-03-02T11:12:08.893Z</time>
      </trkpt>
      <trkpt lat="42.09459" lon="25.36943">
        <ele>166.547334</ele>
        <time>2022-03-02T11:12:11.889Z</time>
      </trkpt>
      <trkpt lat="42.09464" lon="25.36931">
        <ele>166.411047</ele>
        <time>2022-03-02T11:12:14.904Z</time>
      </trkpt>
      <trkpt lat="42.09469" lon="25.36918">
        <ele>166.265721</ele>
        <time>2022-03-02T11:12:17.887Z</time>
      </trkpt>
      <trkpt lat="42.09473" lon="25.36906">
        <ele>166.138918</ele>
        <time>2022-03-02T11:12:20.897Z</time>
      </trkpt>
      <trkpt lat="42.09476" lon="25.36892">
        <ele>166.041862</ele>
        <time>2022-03-02T11:12:23.891Z</time>
      </trkpt>
      <trkpt lat="42.0948" lon="25.36878">
        <ele>165.941594</ele>
        <time>2022-03-02T11:12:26.896Z</time>
      </trkpt>
      <trkpt lat="42.09484" lon="25.36864">
        <ele>165.841325</ele>
        <time>2022-03-02T11:12:29.888Z</time>
      </trkpt>
      <trkpt lat="42.09489" lon="25.36849">
        <ele>165.732081</ele>
        <time>2022-03-02T11:12:32.901Z</time>
      </trkpt>
      <trkpt lat="42.09493" lon="25.36832">
        <ele>165.6175</ele>
        <time>2022-03-02T11:12:35.895Z</time>
      </trkpt>
      <trkpt lat="42.09498" lon="25.36816">
        <ele>165.501942</ele>
        <time>2022-03-02T11:12:38.895Z</time>
      </trkpt>
      <trkpt lat="42.09502" lon="25.36805">
        <ele>165.421479</ele>
        <time>2022-03-02T11:12:40.894Z</time>
      </trkpt>
      <trkpt lat="42.09505" lon="25.36794">
        <ele>165.340132</ele>
        <time>2022-03-02T11:12:42.889Z</time>
      </trkpt>
      <trkpt lat="42.0951" lon="25.36777">
        <ele>165.222739</ele>
        <time>2022-03-02T11:12:45.892Z</time>
      </trkpt>
      <trkpt lat="42.09513" lon="25.36766">
        <ele>165.142878</ele>
        <time>2022-03-02T11:12:47.903Z</time>
      </trkpt>
      <trkpt lat="42.09517" lon="25.36753">
        <ele>165.055657</ele>
        <time>2022-03-02T11:12:49.893Z</time>
      </trkpt>
      <trkpt lat="42.0952" lon="25.36742">
        <ele>164.971796</ele>
        <time>2022-03-02T11:12:51.896Z</time>
      </trkpt>
      <trkpt lat="42.09524" lon="25.36731">
        <ele>164.890983</ele>
        <time>2022-03-02T11:12:53.895Z</time>
      </trkpt>
      <trkpt lat="42.09527" lon="25.36719">
        <ele>164.808953</ele>
        <time>2022-03-02T11:12:55.900Z</time>
      </trkpt>
      <trkpt lat="42.09531" lon="25.36707">
        <ele>164.723287</ele>
        <time>2022-03-02T11:12:57.897Z</time>
      </trkpt>
      <trkpt lat="42.09533" lon="25.36695">
        <ele>164.639721</ele>
        <time>2022-03-02T11:12:59.895Z</time>
      </trkpt>
      <trkpt lat="42.09536" lon="25.36683">
        <ele>164.558676</ele>
        <time>2022-03-02T11:13:01.889Z</time>
      </trkpt>
      <trkpt lat="42.0954" lon="25.36672">
        <ele>164.432463</ele>
        <time>2022-03-02T11:13:03.893Z</time>
      </trkpt>
      <trkpt lat="42.09542" lon="25.3666">
        <ele>164.308032</ele>
        <time>2022-03-02T11:13:05.896Z</time>
      </trkpt>
      <trkpt lat="42.09546" lon="25.36648">
        <ele>164.179069</ele>
        <time>2022-03-02T11:13:07.893Z</time>
      </trkpt>
      <trkpt lat="42.0955" lon="25.36635">
        <ele>164.042993</ele>
        <time>2022-03-02T11:13:09.902Z</time>
      </trkpt>
      <trkpt lat="42.09553" lon="25.36623">
        <ele>163.912619</ele>
        <time>2022-03-02T11:13:11.916Z</time>
      </trkpt>
      <trkpt lat="42.09557" lon="25.3661">
        <ele>163.778043</ele>
        <time>2022-03-02T11:13:13.894Z</time>
      </trkpt>
      <trkpt lat="42.09561" lon="25.36598">
        <ele>163.644188</ele>
        <time>2022-03-02T11:13:15.894Z</time>
      </trkpt>
      <trkpt lat="42.09565" lon="25.36586">
        <ele>163.510866</ele>
        <time>2022-03-02T11:13:17.895Z</time>
      </trkpt>
      <trkpt lat="42.09569" lon="25.36574">
        <ele>163.383931</ele>
        <time>2022-03-02T11:13:19.892Z</time>
      </trkpt>
      <trkpt lat="42.09573" lon="25.36558">
        <ele>163.211518</ele>
        <time>2022-03-02T11:13:22.900Z</time>
      </trkpt>
      <trkpt lat="42.09575" lon="25.36542">
        <ele>163.048043</ele>
        <time>2022-03-02T11:13:25.900Z</time>
      </trkpt>
      <trkpt lat="42.09577" lon="25.36529">
        <ele>162.924483</ele>
        <time>2022-03-02T11:13:27.897Z</time>
      </trkpt>
      <trkpt lat="42.09579" lon="25.36517">
        <ele>162.800757</ele>
        <time>2022-03-02T11:13:29.904Z</time>
      </trkpt>
      <trkpt lat="42.09581" lon="25.365">
        <ele>162.629424</ele>
        <time>2022-03-02T11:13:32.899Z</time>
      </trkpt>
      <trkpt lat="42.09583" lon="25.36484">
        <ele>162.46714</ele>
        <time>2022-03-02T11:13:35.889Z</time>
      </trkpt>
      <trkpt lat="42.09585" lon="25.36468">
        <ele>162.304063</ele>
        <time>2022-03-02T11:13:38.900Z</time>
      </trkpt>
      <trkpt lat="42.09588" lon="25.36452">
        <ele>162.134432</ele>
        <time>2022-03-02T11:13:41.902Z</time>
      </trkpt>
      <trkpt lat="42.09591" lon="25.36436">
        <ele>161.952646</ele>
        <time>2022-03-02T11:13:44.899Z</time>
      </trkpt>
      <trkpt lat="42.09591" lon="25.36419">
        <ele>161.762927</ele>
        <time>2022-03-02T11:13:47.888Z</time>
      </trkpt>
      <trkpt lat="42.09594" lon="25.36405">
        <ele>161.600502</ele>
        <time>2022-03-02T11:13:50.910Z</time>
      </trkpt>
      <trkpt lat="42.09595" lon="25.36393">
        <ele>161.456311</ele>
        <time>2022-03-02T11:13:53.898Z</time>
      </trkpt>
      <trkpt lat="42.09598" lon="25.3638">
        <ele>161.307008</ele>
        <time>2022-03-02T11:13:56.901Z</time>
      </trkpt>
      <trkpt lat="42.09599" lon="25.36365">
        <ele>161.141317</ele>
        <time>2022-03-02T11:13:59.915Z</time>
      </trkpt>
      <trkpt lat="42.09601" lon="25.36353">
        <ele>160.996582</ele>
        <time>2022-03-02T11:14:02.896Z</time>
      </trkpt>
      <trkpt lat="42.09602" lon="25.36338">
        <ele>160.833444</ele>
        <time>2022-03-02T11:14:05.891Z</time>
      </trkpt>
      <trkpt lat="42.09604" lon="25.36324">
        <ele>160.670981</ele>
        <time>2022-03-02T11:14:08.900Z</time>
      </trkpt>
      <trkpt lat="42.09607" lon="25.36309">
        <ele>160.496514</ele>
        <time>2022-03-02T11:14:11.893Z</time>
      </trkpt>
      <trkpt lat="42.09609" lon="25.36294">
        <ele>160.316292</ele>
        <time>2022-03-02T11:14:14.888Z</time>
      </trkpt>
      <trkpt lat="42.09611" lon="25.36278">
        <ele>160.133274</ele>
        <time>2022-03-02T11:14:17.892Z</time>
      </trkpt>
      <trkpt lat="42.09614" lon="25.36261">
        <ele>159.941107</ele>
        <time>2022-03-02T11:14:20.893Z</time>
      </trkpt>
      <trkpt lat="42.09616" lon="25.36245">
        <ele>159.765015</ele>
        <time>2022-03-02T11:14:23.891Z</time>
      </trkpt>
      <trkpt lat="42.09614" lon="25.3623">
        <ele>159.585144</ele>
        <time>2022-03-02T11:14:26.890Z</time>
      </trkpt>
      <trkpt lat="42.09609" lon="25.36216">
        <ele>159.410235</ele>
        <time>2022-03-02T11:14:29.900Z</time>
      </trkpt>
      <trkpt lat="42.09602" lon="25.36206">
        <ele>159.46786</ele>
        <time>2022-03-02T11:14:32.899Z</time>
      </trkpt>
      <trkpt lat="42.09596" lon="25.36197">
        <ele>159.523828</ele>
        <time>2022-03-02T11:14:35.899Z</time>
      </trkpt>
      <trkpt lat="42.09587" lon="25.36186">
        <ele>159.59512</ele>
        <time>2022-03-02T11:14:39.891Z</time>
      </trkpt>
      <trkpt lat="42.09579" lon="25.36175">
        <ele>159.664091</ele>
        <time>2022-03-02T11:14:43.921Z</time>
      </trkpt>
      <trkpt lat="42.09571" lon="25.36163">
        <ele>159.73453</ele>
        <time>2022-03-02T11:14:47.894Z</time>
      </trkpt>
      <trkpt lat="42.09563" lon="25.36153">
        <ele>159.800464</ele>
        <time>2022-03-02T11:14:51.892Z</time>
      </trkpt>
      <trkpt lat="42.09555" lon="25.36143">
        <ele>159.865224</ele>
        <time>2022-03-02T11:14:55.892Z</time>
      </trkpt>
      <trkpt lat="42.09547" lon="25.36133">
        <ele>159.92981</ele>
        <time>2022-03-02T11:14:59.892Z</time>
      </trkpt>
      <trkpt lat="42.0954" lon="25.36122">
        <ele>159.994639</ele>
        <time>2022-03-02T11:15:03.946Z</time>
      </trkpt>
      <trkpt lat="42.09533" lon="25.36113">
        <ele>160.054916</ele>
        <time>2022-03-02T11:15:07.926Z</time>
      </trkpt>
      <trkpt lat="42.09524" lon="25.36104">
        <ele>160.119995</ele>
        <time>2022-03-02T11:15:12.911Z</time>
      </trkpt>
      <trkpt lat="42.09515" lon="25.36095">
        <ele>160.187573</ele>
        <time>2022-03-02T11:15:17.930Z</time>
      </trkpt>
      <trkpt lat="42.09507" lon="25.36087">
        <ele>160.246419</ele>
        <time>2022-03-02T11:15:21.924Z</time>
      </trkpt>
      <trkpt lat="42.09499" lon="25.36078">
        <ele>160.3075</ele>
        <time>2022-03-02T11:15:25.918Z</time>
      </trkpt>
      <trkpt lat="42.09491" lon="25.36068">
        <ele>160.374471</ele>
        <time>2022-03-02T11:15:29.920Z</time>
      </trkpt>
      <trkpt lat="42.09483" lon="25.3606">
        <ele>160.434344</ele>
        <time>2022-03-02T11:15:33.925Z</time>
      </trkpt>
      <trkpt lat="42.09476" lon="25.36051">
        <ele>160.501055</ele>
        <time>2022-03-02T11:15:38.012Z</time>
      </trkpt>
      <trkpt lat="42.09468" lon="25.36044">
        <ele>160.636042</ele>
        <time>2022-03-02T11:15:41.917Z</time>
      </trkpt>
      <trkpt lat="42.0946" lon="25.36036">
        <ele>160.770605</ele>
        <time>2022-03-02T11:15:45.941Z</time>
      </trkpt>
      <trkpt lat="42.09452" lon="25.36025">
        <ele>160.924896</ele>
        <time>2022-03-02T11:15:50.954Z</time>
      </trkpt>
      <trkpt lat="42.09447" lon="25.36014">
        <ele>161.059717</ele>
        <time>2022-03-02T11:15:54.905Z</time>
      </trkpt>
      <trkpt lat="42.09445" lon="25.36002">
        <ele>161.184001</ele>
        <time>2022-03-02T11:15:57.925Z</time>
      </trkpt>
      <trkpt lat="42.09443" lon="25.35987">
        <ele>161.344345</ele>
        <time>2022-03-02T11:16:01.954Z</time>
      </trkpt>
      <trkpt lat="42.09442" lon="25.35972">
        <ele>161.500439</ele>
        <time>2022-03-02T11:16:05.939Z</time>
      </trkpt>
      <trkpt lat="42.0944" lon="25.35959">
        <ele>161.625981</ele>
        <time>2022-03-02T11:16:08.920Z</time>
      </trkpt>
      <trkpt lat="42.09439" lon="25.35946">
        <ele>161.764663</ele>
        <time>2022-03-02T11:16:11.920Z</time>
      </trkpt>
      <trkpt lat="42.09437" lon="25.35932">
        <ele>161.909622</ele>
        <time>2022-03-02T11:16:14.905Z</time>
      </trkpt>
      <trkpt lat="42.09437" lon="25.35918">
        <ele>162.050154</ele>
        <time>2022-03-02T11:16:17.946Z</time>
      </trkpt>
      <trkpt lat="42.09435" lon="25.35905">
        <ele>162.187436</ele>
        <time>2022-03-02T11:16:20.923Z</time>
      </trkpt>
      <trkpt lat="42.09434" lon="25.35892">
        <ele>162.32633</ele>
        <time>2022-03-02T11:16:23.914Z</time>
      </trkpt>
      <trkpt lat="42.09433" lon="25.35878">
        <ele>162.462883</ele>
        <time>2022-03-02T11:16:26.921Z</time>
      </trkpt>
      <trkpt lat="42.09432" lon="25.35865">
        <ele>162.597122</ele>
        <time>2022-03-02T11:16:29.921Z</time>
      </trkpt>
      <trkpt lat="42.09431" lon="25.35852">
        <ele>162.73889</ele>
        <time>2022-03-02T11:16:32.914Z</time>
      </trkpt>
      <trkpt lat="42.09429" lon="25.35837">
        <ele>162.889339</ele>
        <time>2022-03-02T11:16:35.931Z</time>
      </trkpt>
      <trkpt lat="42.09427" lon="25.35823">
        <ele>162.882157</ele>
        <time>2022-03-02T11:16:38.928Z</time>
      </trkpt>
      <trkpt lat="42.09426" lon="25.3581">
        <ele>162.70488</ele>
        <time>2022-03-02T11:16:41.909Z</time>
      </trkpt>
      <trkpt lat="42.09423" lon="25.35796">
        <ele>162.5172</ele>
        <time>2022-03-02T11:16:44.944Z</time>
      </trkpt>
      <trkpt lat="42.09421" lon="25.35782">
        <ele>162.334186</ele>
        <time>2022-03-02T11:16:47.943Z</time>
      </trkpt>
      <trkpt lat="42.0942" lon="25.35768">
        <ele>162.143806</ele>
        <time>2022-03-02T11:16:50.954Z</time>
      </trkpt>
      <trkpt lat="42.0942" lon="25.35753">
        <ele>161.946379</ele>
        <time>2022-03-02T11:16:53.919Z</time>
      </trkpt>
      <trkpt lat="42.0942" lon="25.35739">
        <ele>161.768732</ele>
        <time>2022-03-02T11:16:56.924Z</time>
      </trkpt>
      <trkpt lat="42.09419" lon="25.35724">
        <ele>161.575367</ele>
        <time>2022-03-02T11:16:59.922Z</time>
      </trkpt>
      <trkpt lat="42.09417" lon="25.35709">
        <ele>161.376135</ele>
        <time>2022-03-02T11:17:02.920Z</time>
      </trkpt>
      <trkpt lat="42.09415" lon="25.35693">
        <ele>161.167343</ele>
        <time>2022-03-02T11:17:05.916Z</time>
      </trkpt>
      <trkpt lat="42.09414" lon="25.35677">
        <ele>160.956696</ele>
        <time>2022-03-02T11:17:08.927Z</time>
      </trkpt>
      <trkpt lat="42.09412" lon="25.35662">
        <ele>160.748628</ele>
        <time>2022-03-02T11:17:11.929Z</time>
      </trkpt>
      <trkpt lat="42.0941" lon="25.35646">
        <ele>160.539276</ele>
        <time>2022-03-02T11:17:14.921Z</time>
      </trkpt>
      <trkpt lat="42.09409" lon="25.35631">
        <ele>160.345463</ele>
        <time>2022-03-02T11:17:17.921Z</time>
      </trkpt>
      <trkpt lat="42.09407" lon="25.35616">
        <ele>160.145114</ele>
        <time>2022-03-02T11:17:20.921Z</time>
      </trkpt>
      <trkpt lat="42.09405" lon="25.35601">
        <ele>159.942775</ele>
        <time>2022-03-02T11:17:23.906Z</time>
      </trkpt>
      <trkpt lat="42.09403" lon="25.35586">
        <ele>159.779558</ele>
        <time>2022-03-02T11:17:26.920Z</time>
      </trkpt>
      <trkpt lat="42.09402" lon="25.3557">
        <ele>159.704086</ele>
        <time>2022-03-02T11:17:29.914Z</time>
      </trkpt>
      <trkpt lat="42.094" lon="25.35554">
        <ele>159.625636</ele>
        <time>2022-03-02T11:17:32.921Z</time>
      </trkpt>
      <trkpt lat="42.09399" lon="25.35539">
        <ele>159.547987</ele>
        <time>2022-03-02T11:17:35.946Z</time>
      </trkpt>
      <trkpt lat="42.09397" lon="25.35522">
        <ele>159.467524</ele>
        <time>2022-03-02T11:17:38.944Z</time>
      </trkpt>
      <trkpt lat="42.09396" lon="25.35506">
        <ele>159.389875</ele>
        <time>2022-03-02T11:17:41.913Z</time>
      </trkpt>
      <trkpt lat="42.09394" lon="25.35489">
        <ele>159.304235</ele>
        <time>2022-03-02T11:17:44.949Z</time>
      </trkpt>
      <trkpt lat="42.09392" lon="25.35471">
        <ele>159.217054</ele>
        <time>2022-03-02T11:17:47.935Z</time>
      </trkpt>
      <trkpt lat="42.09391" lon="25.35459">
        <ele>159.157589</ele>
        <time>2022-03-02T11:17:49.941Z</time>
      </trkpt>
      <trkpt lat="42.09391" lon="25.35446">
        <ele>159.093635</ele>
        <time>2022-03-02T11:17:51.908Z</time>
      </trkpt>
      <trkpt lat="42.0939" lon="25.35433">
        <ele>159.031374</ele>
        <time>2022-03-02T11:17:53.909Z</time>
      </trkpt>
      <trkpt lat="42.09389" lon="25.35421">
        <ele>158.970563</ele>
        <time>2022-03-02T11:17:55.926Z</time>
      </trkpt>
      <trkpt lat="42.09387" lon="25.35408">
        <ele>158.907819</ele>
        <time>2022-03-02T11:17:57.918Z</time>
      </trkpt>
      <trkpt lat="42.09386" lon="25.35395">
        <ele>158.84521</ele>
        <time>2022-03-02T11:17:59.928Z</time>
      </trkpt>
      <trkpt lat="42.09384" lon="25.35383">
        <ele>158.784287</ele>
        <time>2022-03-02T11:18:01.923Z</time>
      </trkpt>
      <trkpt lat="42.09381" lon="25.35371">
        <ele>158.721717</ele>
        <time>2022-03-02T11:18:03.909Z</time>
      </trkpt>
      <trkpt lat="42.09379" lon="25.35353">
        <ele>158.634632</ele>
        <time>2022-03-02T11:18:06.943Z</time>
      </trkpt>
      <trkpt lat="42.09379" lon="25.35341">
        <ele>158.589794</ele>
        <time>2022-03-02T11:18:08.923Z</time>
      </trkpt>
      <trkpt lat="42.09378" lon="25.35328">
        <ele>158.548721</ele>
        <time>2022-03-02T11:18:10.920Z</time>
      </trkpt>
      <trkpt lat="42.09377" lon="25.35315">
        <ele>158.508064</ele>
        <time>2022-03-02T11:18:12.920Z</time>
      </trkpt>
      <trkpt lat="42.09374" lon="25.35298">
        <ele>158.451273</ele>
        <time>2022-03-02T11:18:15.923Z</time>
      </trkpt>
      <trkpt lat="42.09373" lon="25.3528">
        <ele>158.393878</ele>
        <time>2022-03-02T11:18:18.921Z</time>
      </trkpt>
      <trkpt lat="42.09372" lon="25.35268">
        <ele>158.355026</ele>
        <time>2022-03-02T11:18:20.930Z</time>
      </trkpt>
      <trkpt lat="42.09372" lon="25.35251">
        <ele>158.301079</ele>
        <time>2022-03-02T11:18:23.914Z</time>
      </trkpt>
      <trkpt lat="42.09371" lon="25.35235">
        <ele>158.251206</ele>
        <time>2022-03-02T11:18:26.930Z</time>
      </trkpt>
      <trkpt lat="42.09369" lon="25.35218">
        <ele>158.194005</ele>
        <time>2022-03-02T11:18:29.930Z</time>
      </trkpt>
      <trkpt lat="42.09367" lon="25.35206">
        <ele>158.155332</ele>
        <time>2022-03-02T11:18:31.931Z</time>
      </trkpt>
      <trkpt lat="42.09365" lon="25.35188">
        <ele>158.098378</ele>
        <time>2022-03-02T11:18:34.925Z</time>
      </trkpt>
      <trkpt lat="42.09362" lon="25.35171">
        <ele>158.041651</ele>
        <time>2022-03-02T11:18:37.943Z</time>
      </trkpt>
      <trkpt lat="42.0936" lon="25.35154">
        <ele>157.986339</ele>
        <time>2022-03-02T11:18:40.930Z</time>
      </trkpt>
      <trkpt lat="42.09358" lon="25.35136">
        <ele>157.930908</ele>
        <time>2022-03-02T11:18:43.912Z</time>
      </trkpt>
      <trkpt lat="42.09356" lon="25.3512">
        <ele>157.877432</ele>
        <time>2022-03-02T11:18:46.909Z</time>
      </trkpt>
      <trkpt lat="42.09355" lon="25.35104">
        <ele>157.880127</ele>
        <time>2022-03-02T11:18:49.954Z</time>
      </trkpt>
      <trkpt lat="42.09353" lon="25.3509">
        <ele>157.970824</ele>
        <time>2022-03-02T11:18:52.905Z</time>
      </trkpt>
      <trkpt lat="42.09353" lon="25.35078">
        <ele>158.044628</ele>
        <time>2022-03-02T11:18:55.910Z</time>
      </trkpt>
      <trkpt lat="42.09352" lon="25.35064">
        <ele>158.129173</ele>
        <time>2022-03-02T11:19:01.905Z</time>
      </trkpt>
      <trkpt lat="42.09352" lon="25.35049">
        <ele>158.220503</ele>
        <time>2022-03-02T11:19:05.918Z</time>
      </trkpt>
      <trkpt lat="42.09353" lon="25.35033">
        <ele>158.317249</ele>
        <time>2022-03-02T11:19:09.958Z</time>
      </trkpt>
      <trkpt lat="42.09354" lon="25.3502">
        <ele>158.391681</ele>
        <time>2022-03-02T11:19:12.910Z</time>
      </trkpt>
      <trkpt lat="42.09355" lon="25.35007">
        <ele>158.472741</ele>
        <time>2022-03-02T11:19:15.929Z</time>
      </trkpt>
      <trkpt lat="42.09354" lon="25.34993">
        <ele>158.555032</ele>
        <time>2022-03-02T11:19:18.937Z</time>
      </trkpt>
      <trkpt lat="42.09354" lon="25.3498">
        <ele>158.637386</ele>
        <time>2022-03-02T11:19:21.890Z</time>
      </trkpt>
      <trkpt lat="42.09353" lon="25.34966">
        <ele>158.723408</ele>
        <time>2022-03-02T11:19:24.927Z</time>
      </trkpt>
      <trkpt lat="42.09354" lon="25.34952">
        <ele>158.808748</ele>
        <time>2022-03-02T11:19:27.906Z</time>
      </trkpt>
      <trkpt lat="42.09354" lon="25.34937">
        <ele>158.894692</ele>
        <time>2022-03-02T11:19:30.899Z</time>
      </trkpt>
      <trkpt lat="42.09354" lon="25.34923">
        <ele>158.983054</ele>
        <time>2022-03-02T11:19:33.921Z</time>
      </trkpt>
      <trkpt lat="42.09355" lon="25.3491">
        <ele>159.062623</ele>
        <time>2022-03-02T11:19:36.928Z</time>
      </trkpt>
      <trkpt lat="42.09356" lon="25.34897">
        <ele>159.139354</ele>
        <time>2022-03-02T11:19:39.914Z</time>
      </trkpt>
      <trkpt lat="42.09357" lon="25.34883">
        <ele>159.224418</ele>
        <time>2022-03-02T11:19:42.906Z</time>
      </trkpt>
      <trkpt lat="42.09358" lon="25.34869">
        <ele>159.311369</ele>
        <time>2022-03-02T11:19:45.917Z</time>
      </trkpt>
      <trkpt lat="42.09357" lon="25.34854">
        <ele>159.362035</ele>
        <time>2022-03-02T11:19:48.924Z</time>
      </trkpt>
      <trkpt lat="42.09357" lon="25.34839">
        <ele>159.413337</ele>
        <time>2022-03-02T11:19:51.924Z</time>
      </trkpt>
      <trkpt lat="42.09358" lon="25.34825">
        <ele>159.462994</ele>
        <time>2022-03-02T11:19:54.921Z</time>
      </trkpt>
      <trkpt lat="42.09358" lon="25.34811">
        <ele>159.513258</ele>
        <time>2022-03-02T11:19:57.918Z</time>
      </trkpt>
      <trkpt lat="42.09358" lon="25.34797">
        <ele>159.559315</ele>
        <time>2022-03-02T11:20:00.921Z</time>
      </trkpt>
      <trkpt lat="42.09359" lon="25.34784">
        <ele>159.604352</ele>
        <time>2022-03-02T11:20:03.983Z</time>
      </trkpt>
      <trkpt lat="42.09358" lon="25.34771">
        <ele>159.652195</ele>
        <time>2022-03-02T11:20:06.923Z</time>
      </trkpt>
      <trkpt lat="42.09359" lon="25.34756">
        <ele>159.702543</ele>
        <time>2022-03-02T11:20:09.916Z</time>
      </trkpt>
      <trkpt lat="42.0936" lon="25.34743">
        <ele>159.746333</ele>
        <time>2022-03-02T11:20:12.924Z</time>
      </trkpt>
      <trkpt lat="42.09361" lon="25.34731">
        <ele>159.790792</ele>
        <time>2022-03-02T11:20:15.947Z</time>
      </trkpt>
      <trkpt lat="42.09361" lon="25.34716">
        <ele>159.843079</ele>
        <time>2022-03-02T11:20:19.917Z</time>
      </trkpt>
      <trkpt lat="42.09361" lon="25.34702">
        <ele>159.891567</ele>
        <time>2022-03-02T11:20:23.926Z</time>
      </trkpt>
      <trkpt lat="42.09361" lon="25.34687">
        <ele>159.943856</ele>
        <time>2022-03-02T11:20:27.918Z</time>
      </trkpt>
      <trkpt lat="42.09362" lon="25.34674">
        <ele>159.987991</ele>
        <time>2022-03-02T11:20:30.916Z</time>
      </trkpt>
      <trkpt lat="42.09362" lon="25.34661">
        <ele>160.033009</ele>
        <time>2022-03-02T11:20:33.927Z</time>
      </trkpt>
      <trkpt lat="42.09362" lon="25.34648">
        <ele>160.078027</ele>
        <time>2022-03-02T11:20:36.917Z</time>
      </trkpt>
      <trkpt lat="42.09363" lon="25.34635">
        <ele>160.121697</ele>
        <time>2022-03-02T11:20:39.908Z</time>
      </trkpt>
      <trkpt lat="42.09365" lon="25.34622">
        <ele>160.118491</ele>
        <time>2022-03-02T11:20:42.944Z</time>
      </trkpt>
      <trkpt lat="42.09364" lon="25.3461">
        <ele>160.03155</ele>
        <time>2022-03-02T11:20:45.915Z</time>
      </trkpt>
      <trkpt lat="42.09364" lon="25.34597">
        <ele>159.941869</ele>
        <time>2022-03-02T11:20:48.926Z</time>
      </trkpt>
      <trkpt lat="42.09365" lon="25.34583">
        <ele>159.846338</ele>
        <time>2022-03-02T11:20:51.939Z</time>
      </trkpt>
      <trkpt lat="42.09366" lon="25.34569">
        <ele>159.750728</ele>
        <time>2022-03-02T11:20:54.925Z</time>
      </trkpt>
      <trkpt lat="42.09368" lon="25.34556">
        <ele>159.656523</ele>
        <time>2022-03-02T11:20:57.916Z</time>
      </trkpt>
      <trkpt lat="42.09369" lon="25.34543">
        <ele>159.563692</ele>
        <time>2022-03-02T11:21:00.923Z</time>
      </trkpt>
      <trkpt lat="42.09369" lon="25.3453">
        <ele>159.471854</ele>
        <time>2022-03-02T11:21:03.933Z</time>
      </trkpt>
      <trkpt lat="42.09369" lon="25.34517">
        <ele>159.383859</ele>
        <time>2022-03-02T11:21:06.928Z</time>
      </trkpt>
      <trkpt lat="42.09373" lon="25.34502">
        <ele>159.271311</ele>
        <time>2022-03-02T11:21:10.920Z</time>
      </trkpt>
      <trkpt lat="42.09375" lon="25.3449">
        <ele>159.185187</ele>
        <time>2022-03-02T11:21:13.912Z</time>
      </trkpt>
      <trkpt lat="42.09376" lon="25.34475">
        <ele>159.078926</ele>
        <time>2022-03-02T11:21:17.900Z</time>
      </trkpt>
      <trkpt lat="42.09377" lon="25.34459">
        <ele>158.972155</ele>
        <time>2022-03-02T11:21:21.949Z</time>
      </trkpt>
      <trkpt lat="42.09376" lon="25.34446">
        <ele>158.879817</ele>
        <time>2022-03-02T11:21:25.930Z</time>
      </trkpt>
      <trkpt lat="42.09379" lon="25.34433">
        <ele>158.786217</ele>
        <time>2022-03-02T11:21:29.922Z</time>
      </trkpt>
      <trkpt lat="42.09382" lon="25.34421">
        <ele>158.695949</ele>
        <time>2022-03-02T11:21:33.912Z</time>
      </trkpt>
      <trkpt lat="42.09382" lon="25.34407">
        <ele>158.597165</ele>
        <time>2022-03-02T11:21:38.922Z</time>
      </trkpt>
      <trkpt lat="42.09386" lon="25.34395">
        <ele>158.503904</ele>
        <time>2022-03-02T11:21:44.013Z</time>
      </trkpt>
      <trkpt lat="42.09389" lon="25.34381">
        <ele>158.477771</ele>
        <time>2022-03-02T11:21:48.929Z</time>
      </trkpt>
      <trkpt lat="42.09388" lon="25.34367">
        <ele>158.495817</ele>
        <time>2022-03-02T11:21:52.911Z</time>
      </trkpt>
      <trkpt lat="42.09389" lon="25.34354">
        <ele>158.513262</ele>
        <time>2022-03-02T11:21:56.918Z</time>
      </trkpt>
      <trkpt lat="42.09393" lon="25.3434">
        <ele>158.531881</ele>
        <time>2022-03-02T11:22:00.903Z</time>
      </trkpt>
      <trkpt lat="42.09395" lon="25.34326">
        <ele>158.551416</ele>
        <time>2022-03-02T11:22:04.919Z</time>
      </trkpt>
      <trkpt lat="42.09397" lon="25.3431">
        <ele>158.571174</ele>
        <time>2022-03-02T11:22:08.914Z</time>
      </trkpt>
      <trkpt lat="42.09398" lon="25.34298">
        <ele>158.58772</ele>
        <time>2022-03-02T11:22:11.939Z</time>
      </trkpt>
      <trkpt lat="42.094" lon="25.34285">
        <ele>158.604059</ele>
        <time>2022-03-02T11:22:14.925Z</time>
      </trkpt>
      <trkpt lat="42.09402" lon="25.3427">
        <ele>158.624275</ele>
        <time>2022-03-02T11:22:18.925Z</time>
      </trkpt>
      <trkpt lat="42.09404" lon="25.34254">
        <ele>158.64456</ele>
        <time>2022-03-02T11:22:22.914Z</time>
      </trkpt>
      <trkpt lat="42.09407" lon="25.34239">
        <ele>158.665363</ele>
        <time>2022-03-02T11:22:26.898Z</time>
      </trkpt>
      <trkpt lat="42.09409" lon="25.34223">
        <ele>158.685785</ele>
        <time>2022-03-02T11:22:30.929Z</time>
      </trkpt>
      <trkpt lat="42.0941" lon="25.34211">
        <ele>158.701449</ele>
        <time>2022-03-02T11:22:33.926Z</time>
      </trkpt>
      <trkpt lat="42.09412" lon="25.34199">
        <ele>158.717543</ele>
        <time>2022-03-02T11:22:36.922Z</time>
      </trkpt>
      <trkpt lat="42.09414" lon="25.34187">
        <ele>158.733374</ele>
        <time>2022-03-02T11:22:39.949Z</time>
      </trkpt>
      <trkpt lat="42.09415" lon="25.34174">
        <ele>158.749792</ele>
        <time>2022-03-02T11:22:42.913Z</time>
      </trkpt>
      <trkpt lat="42.09415" lon="25.34161">
        <ele>158.766541</ele>
        <time>2022-03-02T11:22:45.912Z</time>
      </trkpt>
      <trkpt lat="42.09417" lon="25.34149">
        <ele>158.816228</ele>
        <time>2022-03-02T11:22:48.921Z</time>
      </trkpt>
      <trkpt lat="42.09419" lon="25.34137">
        <ele>158.961004</ele>
        <time>2022-03-02T11:22:51.922Z</time>
      </trkpt>
      <trkpt lat="42.09421" lon="25.34122">
        <ele>159.139918</ele>
        <time>2022-03-02T11:22:55.916Z</time>
      </trkpt>
      <trkpt lat="42.09426" lon="25.34109">
        <ele>159.320292</ele>
        <time>2022-03-02T11:22:59.922Z</time>
      </trkpt>
      <trkpt lat="42.09431" lon="25.34099">
        <ele>159.468641</ele>
        <time>2022-03-02T11:23:02.915Z</time>
      </trkpt>
      <trkpt lat="42.09435" lon="25.34087">
        <ele>159.616937</ele>
        <time>2022-03-02T11:23:05.919Z</time>
      </trkpt>
      <trkpt lat="42.0944" lon="25.34074">
        <ele>159.797913</ele>
        <time>2022-03-02T11:23:09.914Z</time>
      </trkpt>
      <trkpt lat="42.09446" lon="25.34061">
        <ele>159.980567</ele>
        <time>2022-03-02T11:23:13.917Z</time>
      </trkpt>
      <trkpt lat="42.09451" lon="25.34047">
        <ele>160.166276</ele>
        <time>2022-03-02T11:23:17.924Z</time>
      </trkpt>
      <trkpt lat="42.09454" lon="25.34035">
        <ele>160.313205</ele>
        <time>2022-03-02T11:23:20.916Z</time>
      </trkpt>
      <trkpt lat="42.09458" lon="25.34024">
        <ele>160.460811</ele>
        <time>2022-03-02T11:23:23.940Z</time>
      </trkpt>
      <trkpt lat="42.09463" lon="25.3401">
        <ele>160.646569</ele>
        <time>2022-03-02T11:23:27.942Z</time>
      </trkpt>
      <trkpt lat="42.09467" lon="25.33995">
        <ele>160.831765</ele>
        <time>2022-03-02T11:23:31.919Z</time>
      </trkpt>
      <trkpt lat="42.09472" lon="25.33982">
        <ele>161.00929</ele>
        <time>2022-03-02T11:23:35.913Z</time>
      </trkpt>
      <trkpt lat="42.09477" lon="25.33969">
        <ele>161.1915</ele>
        <time>2022-03-02T11:23:39.915Z</time>
      </trkpt>
      <trkpt lat="42.09481" lon="25.33957">
        <ele>161.343439</ele>
        <time>2022-03-02T11:23:42.902Z</time>
      </trkpt>
      <trkpt lat="42.09485" lon="25.33945">
        <ele>161.498921</ele>
        <time>2022-03-02T11:23:45.921Z</time>
      </trkpt>
      <trkpt lat="42.09488" lon="25.33933">
        <ele>161.652724</ele>
        <time>2022-03-02T11:23:48.927Z</time>
      </trkpt>
      <trkpt lat="42.09492" lon="25.33922">
        <ele>161.67927</ele>
        <time>2022-03-02T11:23:51.949Z</time>
      </trkpt>
      <trkpt lat="42.09496" lon="25.3391">
        <ele>161.689819</ele>
        <time>2022-03-02T11:23:54.916Z</time>
      </trkpt>
      <trkpt lat="42.095" lon="25.33898">
        <ele>161.700761</ele>
        <time>2022-03-02T11:23:57.968Z</time>
      </trkpt>
      <trkpt lat="42.09504" lon="25.33887">
        <ele>161.711143</ele>
        <time>2022-03-02T11:24:00.905Z</time>
      </trkpt>
      <trkpt lat="42.09509" lon="25.33876">
        <ele>161.721439</ele>
        <time>2022-03-02T11:24:03.926Z</time>
      </trkpt>
      <trkpt lat="42.09513" lon="25.33864">
        <ele>161.732063</ele>
        <time>2022-03-02T11:24:06.919Z</time>
      </trkpt>
      <trkpt lat="42.09517" lon="25.33853">
        <ele>161.741934</ele>
        <time>2022-03-02T11:24:09.933Z</time>
      </trkpt>
      <trkpt lat="42.09522" lon="25.3384">
        <ele>161.754396</ele>
        <time>2022-03-02T11:24:13.914Z</time>
      </trkpt>
      <trkpt lat="42.09527" lon="25.33826">
        <ele>161.767228</ele>
        <time>2022-03-02T11:24:17.921Z</time>
      </trkpt>
      <trkpt lat="42.09532" lon="25.33812">
        <ele>161.779472</ele>
        <time>2022-03-02T11:24:21.942Z</time>
      </trkpt>
      <trkpt lat="42.09536" lon="25.33798">
        <ele>161.791904</ele>
        <time>2022-03-02T11:24:25.961Z</time>
      </trkpt>
      <trkpt lat="42.0954" lon="25.33786">
        <ele>161.803264</ele>
        <time>2022-03-02T11:24:29.918Z</time>
      </trkpt>
      <trkpt lat="42.09542" lon="25.33772">
        <ele>161.814849</ele>
        <time>2022-03-02T11:24:34.907Z</time>
      </trkpt>
      <trkpt lat="42.09546" lon="25.33759">
        <ele>161.826182</ele>
        <time>2022-03-02T11:24:38.915Z</time>
      </trkpt>
      <trkpt lat="42.09551" lon="25.33746">
        <ele>161.838622</ele>
        <time>2022-03-02T11:24:42.945Z</time>
      </trkpt>
      <trkpt lat="42.09555" lon="25.33732">
        <ele>161.850405</ele>
        <time>2022-03-02T11:24:46.909Z</time>
      </trkpt>
      <trkpt lat="42.09557" lon="25.33719">
        <ele>161.861387</ele>
        <time>2022-03-02T11:24:50.925Z</time>
      </trkpt>
      <trkpt lat="42.09561" lon="25.33707">
        <ele>161.822351</ele>
        <time>2022-03-02T11:24:54.973Z</time>
      </trkpt>
      <trkpt lat="42.09566" lon="25.33693">
        <ele>161.657683</ele>
        <time>2022-03-02T11:24:58.923Z</time>
      </trkpt>
      <trkpt lat="42.09569" lon="25.33678">
        <ele>161.48881</ele>
        <time>2022-03-02T11:25:02.940Z</time>
      </trkpt>
      <trkpt lat="42.09573" lon="25.33666">
        <ele>161.329936</ele>
        <time>2022-03-02T11:25:06.923Z</time>
      </trkpt>
      <trkpt lat="42.09578" lon="25.33654">
        <ele>161.175784</ele>
        <time>2022-03-02T11:25:10.968Z</time>
      </trkpt>
      <trkpt lat="42.09581" lon="25.3364">
        <ele>161.022328</ele>
        <time>2022-03-02T11:25:14.921Z</time>
      </trkpt>
      <trkpt lat="42.09586" lon="25.33627">
        <ele>160.86061</ele>
        <time>2022-03-02T11:25:18.920Z</time>
      </trkpt>
      <trkpt lat="42.09588" lon="25.33613">
        <ele>160.7019</ele>
        <time>2022-03-02T11:25:22.928Z</time>
      </trkpt>
      <trkpt lat="42.09588" lon="25.33597">
        <ele>160.525462</ele>
        <time>2022-03-02T11:25:26.912Z</time>
      </trkpt>
      <trkpt lat="42.09587" lon="25.33582">
        <ele>160.355967</ele>
        <time>2022-03-02T11:25:30.930Z</time>
      </trkpt>
      <trkpt lat="42.09589" lon="25.33567">
        <ele>160.187441</ele>
        <time>2022-03-02T11:25:34.911Z</time>
      </trkpt>
      <trkpt lat="42.0959" lon="25.33553">
        <ele>160.031618</ele>
        <time>2022-03-02T11:25:38.913Z</time>
      </trkpt>
      <trkpt lat="42.09591" lon="25.33538">
        <ele>159.862335</ele>
        <time>2022-03-02T11:25:42.911Z</time>
      </trkpt>
      <trkpt lat="42.09592" lon="25.33522">
        <ele>159.683824</ele>
        <time>2022-03-02T11:25:46.926Z</time>
      </trkpt>
      <trkpt lat="42.09592" lon="25.3351">
        <ele>159.546706</ele>
        <time>2022-03-02T11:25:49.927Z</time>
      </trkpt>
      <trkpt lat="42.09592" lon="25.33497">
        <ele>159.406245</ele>
        <time>2022-03-02T11:25:52.917Z</time>
      </trkpt>
      <trkpt lat="42.09591" lon="25.33485">
        <ele>159.267818</ele>
        <time>2022-03-02T11:25:55.946Z</time>
      </trkpt>
      <trkpt lat="42.09591" lon="25.33473">
        <ele>159.126987</ele>
        <time>2022-03-02T11:25:58.922Z</time>
      </trkpt>
      <trkpt lat="42.09591" lon="25.33456">
        <ele>158.921027</ele>
        <time>2022-03-02T11:26:02.922Z</time>
      </trkpt>
      <trkpt lat="42.09591" lon="25.33443">
        <ele>158.746479</ele>
        <time>2022-03-02T11:26:05.923Z</time>
      </trkpt>
      <trkpt lat="42.09589" lon="25.33428">
        <ele>158.563113</ele>
        <time>2022-03-02T11:26:08.925Z</time>
      </trkpt>
      <trkpt lat="42.09588" lon="25.33414">
        <ele>158.389425</ele>
        <time>2022-03-02T11:26:11.954Z</time>
      </trkpt>
      <trkpt lat="42.09588" lon="25.33401">
        <ele>158.219908</ele>
        <time>2022-03-02T11:26:14.936Z</time>
      </trkpt>
      <trkpt lat="42.09587" lon="25.33388">
        <ele>158.06117</ele>
        <time>2022-03-02T11:26:17.956Z</time>
      </trkpt>
      <trkpt lat="42.09586" lon="25.33376">
        <ele>157.902675</ele>
        <time>2022-03-02T11:26:20.917Z</time>
      </trkpt>
      <trkpt lat="42.09584" lon="25.33363">
        <ele>157.735068</ele>
        <time>2022-03-02T11:26:23.982Z</time>
      </trkpt>
      <trkpt lat="42.09583" lon="25.33349">
        <ele>157.561639</ele>
        <time>2022-03-02T11:26:26.921Z</time>
      </trkpt>
      <trkpt lat="42.09581" lon="25.33335">
        <ele>157.38923</ele>
        <time>2022-03-02T11:26:29.925Z</time>
      </trkpt>
      <trkpt lat="42.09581" lon="25.33322">
        <ele>157.219679</ele>
        <time>2022-03-02T11:26:32.900Z</time>
      </trkpt>
      <trkpt lat="42.09581" lon="25.33308">
        <ele>157.044615</ele>
        <time>2022-03-02T11:26:35.917Z</time>
      </trkpt>
      <trkpt lat="42.09579" lon="25.33295">
        <ele>156.873208</ele>
        <time>2022-03-02T11:26:38.954Z</time>
      </trkpt>
      <trkpt lat="42.09577" lon="25.33282">
        <ele>156.708645</ele>
        <time>2022-03-02T11:26:41.951Z</time>
      </trkpt>
      <trkpt lat="42.09575" lon="25.33267">
        <ele>156.515455</ele>
        <time>2022-03-02T11:26:45.923Z</time>
      </trkpt>
      <trkpt lat="42.09573" lon="25.33251">
        <ele>156.320994</ele>
        <time>2022-03-02T11:26:49.902Z</time>
      </trkpt>
      <trkpt lat="42.0957" lon="25.33239">
        <ele>156.153428</ele>
        <time>2022-03-02T11:26:52.908Z</time>
      </trkpt>
      <trkpt lat="42.09569" lon="25.33226">
        <ele>156.265288</ele>
        <time>2022-03-02T11:26:55.933Z</time>
      </trkpt>
      <trkpt lat="42.09567" lon="25.33213">
        <ele>156.438025</ele>
        <time>2022-03-02T11:26:58.930Z</time>
      </trkpt>
      <trkpt lat="42.09566" lon="25.332">
        <ele>156.612685</ele>
        <time>2022-03-02T11:27:01.913Z</time>
      </trkpt>
      <trkpt lat="42.09567" lon="25.33188">
        <ele>156.777661</ele>
        <time>2022-03-02T11:27:04.942Z</time>
      </trkpt>
      <trkpt lat="42.09566" lon="25.33175">
        <ele>156.948201</ele>
        <time>2022-03-02T11:27:07.950Z</time>
      </trkpt>
      <trkpt lat="42.09565" lon="25.33163">
        <ele>157.114124</ele>
        <time>2022-03-02T11:27:10.927Z</time>
      </trkpt>
      <trkpt lat="42.09564" lon="25.33148">
        <ele>157.319798</ele>
        <time>2022-03-02T11:27:14.925Z</time>
      </trkpt>
      <trkpt lat="42.0956" lon="25.33136">
        <ele>157.495469</ele>
        <time>2022-03-02T11:27:17.913Z</time>
      </trkpt>
      <trkpt lat="42.09559" lon="25.33123">
        <ele>157.662071</ele>
        <time>2022-03-02T11:27:20.922Z</time>
      </trkpt>
      <trkpt lat="42.09558" lon="25.33108">
        <ele>157.871919</ele>
        <time>2022-03-02T11:27:24.958Z</time>
      </trkpt>
      <trkpt lat="42.09554" lon="25.33096">
        <ele>158.03543</ele>
        <time>2022-03-02T11:27:27.924Z</time>
      </trkpt>
      <trkpt lat="42.09552" lon="25.33081">
        <ele>158.243095</ele>
        <time>2022-03-02T11:27:31.931Z</time>
      </trkpt>
      <trkpt lat="42.0955" lon="25.33066">
        <ele>158.452148</ele>
        <time>2022-03-02T11:27:35.965Z</time>
      </trkpt>
      <trkpt lat="42.09548" lon="25.33054">
        <ele>158.617285</ele>
        <time>2022-03-02T11:27:38.921Z</time>
      </trkpt>
      <trkpt lat="42.09547" lon="25.33041">
        <ele>158.789455</ele>
        <time>2022-03-02T11:27:41.909Z</time>
      </trkpt>
      <trkpt lat="42.09546" lon="25.33029">
        <ele>158.956712</ele>
        <time>2022-03-02T11:27:44.932Z</time>
      </trkpt>
      <trkpt lat="42.09544" lon="25.33014">
        <ele>159.154887</ele>
        <time>2022-03-02T11:27:48.907Z</time>
      </trkpt>
      <trkpt lat="42.09542" lon="25.33">
        <ele>159.347732</ele>
        <time>2022-03-02T11:27:52.913Z</time>
      </trkpt>
      <trkpt lat="42.09541" lon="25.32987">
        <ele>159.468267</ele>
        <time>2022-03-02T11:27:56.927Z</time>
      </trkpt>
      <trkpt lat="42.0954" lon="25.32974">
        <ele>159.573746</ele>
        <time>2022-03-02T11:28:00.917Z</time>
      </trkpt>
      <trkpt lat="42.09538" lon="25.32961">
        <ele>159.680841</ele>
        <time>2022-03-02T11:28:04.919Z</time>
      </trkpt>
      <trkpt lat="42.09537" lon="25.32948">
        <ele>159.789605</ele>
        <time>2022-03-02T11:28:08.948Z</time>
      </trkpt>
      <trkpt lat="42.09536" lon="25.32935">
        <ele>159.897979</ele>
        <time>2022-03-02T11:28:12.922Z</time>
      </trkpt>
      <trkpt lat="42.09535" lon="25.32921">
        <ele>160.006087</ele>
        <time>2022-03-02T11:28:16.919Z</time>
      </trkpt>
      <trkpt lat="42.09533" lon="25.32908">
        <ele>160.121819</ele>
        <time>2022-03-02T11:28:20.921Z</time>
      </trkpt>
      <trkpt lat="42.09532" lon="25.32894">
        <ele>160.235379</ele>
        <time>2022-03-02T11:28:24.919Z</time>
      </trkpt>
      <trkpt lat="42.0953" lon="25.3288">
        <ele>160.34894</ele>
        <time>2022-03-02T11:28:28.912Z</time>
      </trkpt>
      <trkpt lat="42.0953" lon="25.32866">
        <ele>160.466162</ele>
        <time>2022-03-02T11:28:32.921Z</time>
      </trkpt>
      <trkpt lat="42.09528" lon="25.32852">
        <ele>160.58215</ele>
        <time>2022-03-02T11:28:36.936Z</time>
      </trkpt>
      <trkpt lat="42.09526" lon="25.32838">
        <ele>160.700735</ele>
        <time>2022-03-02T11:28:40.931Z</time>
      </trkpt>
      <trkpt lat="42.09525" lon="25.32822">
        <ele>160.825208</ele>
        <time>2022-03-02T11:28:44.929Z</time>
      </trkpt>
      <trkpt lat="42.09524" lon="25.32807">
        <ele>160.948527</ele>
        <time>2022-03-02T11:28:48.925Z</time>
      </trkpt>
      <trkpt lat="42.09523" lon="25.32795">
        <ele>161.04836</ele>
        <time>2022-03-02T11:28:51.924Z</time>
      </trkpt>
      <trkpt lat="42.09522" lon="25.3278">
        <ele>161.172901</ele>
        <time>2022-03-02T11:28:55.920Z</time>
      </trkpt>
      <trkpt lat="42.09521" lon="25.32764">
        <ele>161.304821</ele>
        <time>2022-03-02T11:28:59.908Z</time>
      </trkpt>
      <trkpt lat="42.09518" lon="25.32752">
        <ele>161.386287</ele>
        <time>2022-03-02T11:29:02.888Z</time>
      </trkpt>
      <trkpt lat="42.09517" lon="25.3274">
        <ele>161.44639</ele>
        <time>2022-03-02T11:29:05.925Z</time>
      </trkpt>
      <trkpt lat="42.09517" lon="25.32725">
        <ele>161.516762</ele>
        <time>2022-03-02T11:29:09.925Z</time>
      </trkpt>
      <trkpt lat="42.09515" lon="25.32714">
        <ele>161.575317</ele>
        <time>2022-03-02T11:29:12.933Z</time>
      </trkpt>
      <trkpt lat="42.09513" lon="25.32699">
        <ele>161.64819</ele>
        <time>2022-03-02T11:29:16.926Z</time>
      </trkpt>
      <trkpt lat="42.09511" lon="25.32684">
        <ele>161.718106</ele>
        <time>2022-03-02T11:29:20.919Z</time>
      </trkpt>
      <trkpt lat="42.09509" lon="25.32669">
        <ele>161.791097</ele>
        <time>2022-03-02T11:29:24.923Z</time>
      </trkpt>
      <trkpt lat="42.09507" lon="25.32656">
        <ele>161.857745</ele>
        <time>2022-03-02T11:29:28.927Z</time>
      </trkpt>
      <trkpt lat="42.09506" lon="25.32643">
        <ele>161.921391</ele>
        <time>2022-03-02T11:29:32.949Z</time>
      </trkpt>
      <trkpt lat="42.09508" lon="25.3263">
        <ele>161.982707</ele>
        <time>2022-03-02T11:29:36.950Z</time>
      </trkpt>
      <trkpt lat="42.09508" lon="25.32617">
        <ele>162.04721</ele>
        <time>2022-03-02T11:29:40.909Z</time>
      </trkpt>
      <trkpt lat="42.09508" lon="25.32604">
        <ele>162.106495</ele>
        <time>2022-03-02T11:29:43.929Z</time>
      </trkpt>
      <trkpt lat="42.09505" lon="25.32592">
        <ele>162.165517</ele>
        <time>2022-03-02T11:29:46.932Z</time>
      </trkpt>
      <trkpt lat="42.09504" lon="25.3258">
        <ele>162.225616</ele>
        <time>2022-03-02T11:29:49.917Z</time>
      </trkpt>
      <trkpt lat="42.09502" lon="25.32566">
        <ele>162.29199</ele>
        <time>2022-03-02T11:29:52.920Z</time>
      </trkpt>
      <trkpt lat="42.09501" lon="25.32552">
        <ele>162.359816</ele>
        <time>2022-03-02T11:29:55.933Z</time>
      </trkpt>
      <trkpt lat="42.095" lon="25.32539">
        <ele>162.426287</ele>
        <time>2022-03-02T11:29:58.916Z</time>
      </trkpt>
      <trkpt lat="42.09498" lon="25.32525">
        <ele>162.493362</ele>
        <time>2022-03-02T11:30:01.921Z</time>
      </trkpt>
      <trkpt lat="42.09496" lon="25.32511">
        <ele>162.54868</ele>
        <time>2022-03-02T11:30:04.960Z</time>
      </trkpt>
      <trkpt lat="42.09496" lon="25.32498">
        <ele>162.590012</ele>
        <time>2022-03-02T11:30:07.922Z</time>
      </trkpt>
      <trkpt lat="42.09495" lon="25.32486">
        <ele>162.629166</ele>
        <time>2022-03-02T11:30:10.930Z</time>
      </trkpt>
      <trkpt lat="42.09493" lon="25.32473">
        <ele>162.670572</ele>
        <time>2022-03-02T11:30:13.908Z</time>
      </trkpt>
      <trkpt lat="42.09492" lon="25.3246">
        <ele>162.713278</ele>
        <time>2022-03-02T11:30:16.924Z</time>
      </trkpt>
      <trkpt lat="42.09491" lon="25.32446">
        <ele>162.75739</ele>
        <time>2022-03-02T11:30:19.920Z</time>
      </trkpt>
      <trkpt lat="42.0949" lon="25.32431">
        <ele>162.80402</ele>
        <time>2022-03-02T11:30:22.908Z</time>
      </trkpt>
      <trkpt lat="42.09488" lon="25.32416">
        <ele>162.852451</ele>
        <time>2022-03-02T11:30:25.911Z</time>
      </trkpt>
      <trkpt lat="42.09487" lon="25.32401">
        <ele>162.900506</ele>
        <time>2022-03-02T11:30:28.923Z</time>
      </trkpt>
      <trkpt lat="42.09485" lon="25.32386">
        <ele>162.947817</ele>
        <time>2022-03-02T11:30:31.910Z</time>
      </trkpt>
      <trkpt lat="42.09484" lon="25.32372">
        <ele>162.992694</ele>
        <time>2022-03-02T11:30:34.946Z</time>
      </trkpt>
      <trkpt lat="42.09482" lon="25.32358">
        <ele>163.037677</ele>
        <time>2022-03-02T11:30:37.947Z</time>
      </trkpt>
      <trkpt lat="42.09479" lon="25.32345">
        <ele>163.082014</ele>
        <time>2022-03-02T11:30:40.932Z</time>
      </trkpt>
      <trkpt lat="42.09477" lon="25.32331">
        <ele>163.126865</ele>
        <time>2022-03-02T11:30:43.949Z</time>
      </trkpt>
      <trkpt lat="42.09474" lon="25.32317">
        <ele>163.171315</ele>
        <time>2022-03-02T11:30:46.975Z</time>
      </trkpt>
      <trkpt lat="42.09472" lon="25.32304">
        <ele>163.215676</ele>
        <time>2022-03-02T11:30:49.932Z</time>
      </trkpt>
      <trkpt lat="42.0947" lon="25.32289">
        <ele>163.262608</ele>
        <time>2022-03-02T11:30:52.920Z</time>
      </trkpt>
      <trkpt lat="42.09468" lon="25.32275">
        <ele>163.329772</ele>
        <time>2022-03-02T11:30:55.953Z</time>
      </trkpt>
      <trkpt lat="42.09466" lon="25.3226">
        <ele>163.437477</ele>
        <time>2022-03-02T11:30:58.928Z</time>
      </trkpt>
      <trkpt lat="42.09464" lon="25.32246">
        <ele>163.54004</ele>
        <time>2022-03-02T11:31:01.913Z</time>
      </trkpt>
      <trkpt lat="42.09462" lon="25.32234">
        <ele>163.629838</ele>
        <time>2022-03-02T11:31:04.920Z</time>
      </trkpt>
      <trkpt lat="42.09461" lon="25.32221">
        <ele>163.719241</ele>
        <time>2022-03-02T11:31:07.903Z</time>
      </trkpt>
      <trkpt lat="42.09462" lon="25.32209">
        <ele>163.808022</ele>
        <time>2022-03-02T11:31:10.920Z</time>
      </trkpt>
      <trkpt lat="42.09462" lon="25.32194">
        <ele>163.91576</ele>
        <time>2022-03-02T11:31:14.924Z</time>
      </trkpt>
      <trkpt lat="42.09462" lon="25.3218">
        <ele>164.020414</ele>
        <time>2022-03-02T11:31:18.922Z</time>
      </trkpt>
      <trkpt lat="42.09462" lon="25.32167">
        <ele>164.113687</ele>
        <time>2022-03-02T11:31:21.916Z</time>
      </trkpt>
      <trkpt lat="42.09462" lon="25.32153">
        <ele>164.213314</ele>
        <time>2022-03-02T11:31:24.912Z</time>
      </trkpt>
      <trkpt lat="42.09461" lon="25.32138">
        <ele>164.318958</ele>
        <time>2022-03-02T11:31:27.910Z</time>
      </trkpt>
      <trkpt lat="42.09459" lon="25.32124">
        <ele>164.424355</ele>
        <time>2022-03-02T11:31:30.905Z</time>
      </trkpt>
      <trkpt lat="42.09459" lon="25.32111">
        <ele>164.520376</ele>
        <time>2022-03-02T11:31:33.913Z</time>
      </trkpt>
      <trkpt lat="42.0946" lon="25.32098">
        <ele>164.615154</ele>
        <time>2022-03-02T11:31:36.901Z</time>
      </trkpt>
      <trkpt lat="42.09462" lon="25.32084">
        <ele>164.713463</ele>
        <time>2022-03-02T11:31:39.910Z</time>
      </trkpt>
      <trkpt lat="42.09462" lon="25.32071">
        <ele>164.810205</ele>
        <time>2022-03-02T11:31:42.922Z</time>
      </trkpt>
      <trkpt lat="42.09462" lon="25.32058">
        <ele>164.905539</ele>
        <time>2022-03-02T11:31:45.897Z</time>
      </trkpt>
      <trkpt lat="42.09461" lon="25.32044">
        <ele>165.005356</ele>
        <time>2022-03-02T11:31:48.908Z</time>
      </trkpt>
      <trkpt lat="42.09461" lon="25.32029">
        <ele>165.126016</ele>
        <time>2022-03-02T11:31:51.905Z</time>
      </trkpt>
      <trkpt lat="42.0946" lon="25.32014">
        <ele>165.248458</ele>
        <time>2022-03-02T11:31:54.920Z</time>
      </trkpt>
      <trkpt lat="42.09459" lon="25.31999">
        <ele>165.367969</ele>
        <time>2022-03-02T11:31:57.922Z</time>
      </trkpt>
      <trkpt lat="42.09459" lon="25.31985">
        <ele>165.484548</ele>
        <time>2022-03-02T11:32:00.917Z</time>
      </trkpt>
      <trkpt lat="42.09459" lon="25.3197">
        <ele>165.602738</ele>
        <time>2022-03-02T11:32:03.909Z</time>
      </trkpt>
      <trkpt lat="42.09459" lon="25.31956">
        <ele>165.714493</ele>
        <time>2022-03-02T11:32:06.908Z</time>
      </trkpt>
      <trkpt lat="42.09459" lon="25.31943">
        <ele>165.826976</ele>
        <time>2022-03-02T11:32:09.891Z</time>
      </trkpt>
      <trkpt lat="42.09459" lon="25.31929">
        <ele>165.938667</ele>
        <time>2022-03-02T11:32:12.904Z</time>
      </trkpt>
      <trkpt lat="42.09459" lon="25.31915">
        <ele>166.053616</ele>
        <time>2022-03-02T11:32:15.908Z</time>
      </trkpt>
      <trkpt lat="42.09459" lon="25.31901">
        <ele>166.166293</ele>
        <time>2022-03-02T11:32:18.905Z</time>
      </trkpt>
      <trkpt lat="42.09458" lon="25.31887">
        <ele>166.282292</ele>
        <time>2022-03-02T11:32:21.900Z</time>
      </trkpt>
      <trkpt lat="42.09459" lon="25.31872">
        <ele>166.407239</ele>
        <time>2022-03-02T11:32:24.925Z</time>
      </trkpt>
      <trkpt lat="42.0946" lon="25.31856">
        <ele>166.538319</ele>
        <time>2022-03-02T11:32:27.902Z</time>
      </trkpt>
      <trkpt lat="42.09461" lon="25.31838">
        <ele>166.68272</ele>
        <time>2022-03-02T11:32:30.903Z</time>
      </trkpt>
      <trkpt lat="42.09461" lon="25.31825">
        <ele>166.785634</ele>
        <time>2022-03-02T11:32:32.922Z</time>
      </trkpt>
      <trkpt lat="42.09461" lon="25.31807">
        <ele>166.934861</ele>
        <time>2022-03-02T11:32:35.917Z</time>
      </trkpt>
      <trkpt lat="42.09462" lon="25.31794">
        <ele>167.031745</ele>
        <time>2022-03-02T11:32:37.931Z</time>
      </trkpt>
      <trkpt lat="42.09462" lon="25.31782">
        <ele>167.099708</ele>
        <time>2022-03-02T11:32:39.921Z</time>
      </trkpt>
      <trkpt lat="42.09461" lon="25.3177">
        <ele>167.168277</ele>
        <time>2022-03-02T11:32:41.948Z</time>
      </trkpt>
      <trkpt lat="42.09462" lon="25.31758">
        <ele>167.237403</ele>
        <time>2022-03-02T11:32:43.923Z</time>
      </trkpt>
      <trkpt lat="42.09461" lon="25.3174">
        <ele>167.333941</ele>
        <time>2022-03-02T11:32:46.914Z</time>
      </trkpt>
      <trkpt lat="42.09459" lon="25.31724">
        <ele>167.427721</ele>
        <time>2022-03-02T11:32:49.941Z</time>
      </trkpt>
      <trkpt lat="42.0946" lon="25.31709">
        <ele>167.507162</ele>
        <time>2022-03-02T11:32:52.919Z</time>
      </trkpt>
      <trkpt lat="42.09461" lon="25.31695">
        <ele>167.584668</ele>
        <time>2022-03-02T11:32:55.942Z</time>
      </trkpt>
      <trkpt lat="42.09462" lon="25.31679">
        <ele>167.675647</ele>
        <time>2022-03-02T11:32:59.942Z</time>
      </trkpt>
      <trkpt lat="42.0946" lon="25.31663">
        <ele>167.768694</ele>
        <time>2022-03-02T11:33:02.922Z</time>
      </trkpt>
      <trkpt lat="42.0946" lon="25.31646">
        <ele>167.859627</ele>
        <time>2022-03-02T11:33:05.941Z</time>
      </trkpt>
      <trkpt lat="42.09459" lon="25.31631">
        <ele>167.945557</ele>
        <time>2022-03-02T11:33:08.952Z</time>
      </trkpt>
      <trkpt lat="42.09458" lon="25.31615">
        <ele>168.033459</ele>
        <time>2022-03-02T11:33:11.947Z</time>
      </trkpt>
      <trkpt lat="42.09457" lon="25.31603">
        <ele>168.103222</ele>
        <time>2022-03-02T11:33:14.941Z</time>
      </trkpt>
      <trkpt lat="42.09459" lon="25.31589">
        <ele>168.179822</ele>
        <time>2022-03-02T11:33:17.920Z</time>
      </trkpt>
      <trkpt lat="42.0946" lon="25.31575">
        <ele>168.25823</ele>
        <time>2022-03-02T11:33:20.925Z</time>
      </trkpt>
      <trkpt lat="42.09461" lon="25.3156">
        <ele>168.341801</ele>
        <time>2022-03-02T11:33:23.928Z</time>
      </trkpt>
      <trkpt lat="42.09463" lon="25.31546">
        <ele>168.31848</ele>
        <time>2022-03-02T11:33:26.925Z</time>
      </trkpt>
      <trkpt lat="42.09465" lon="25.31531">
        <ele>168.242819</ele>
        <time>2022-03-02T11:33:29.909Z</time>
      </trkpt>
      <trkpt lat="42.09462" lon="25.31515">
        <ele>168.157388</ele>
        <time>2022-03-02T11:33:32.920Z</time>
      </trkpt>
      <trkpt lat="42.0946" lon="25.31498">
        <ele>168.071438</ele>
        <time>2022-03-02T11:33:35.933Z</time>
      </trkpt>
      <trkpt lat="42.09458" lon="25.31481">
        <ele>167.980086</ele>
        <time>2022-03-02T11:33:38.938Z</time>
      </trkpt>
      <trkpt lat="42.09456" lon="25.31464">
        <ele>167.89352</ele>
        <time>2022-03-02T11:33:41.925Z</time>
      </trkpt>
      <trkpt lat="42.09454" lon="25.31447">
        <ele>167.803068</ele>
        <time>2022-03-02T11:33:44.914Z</time>
      </trkpt>
      <trkpt lat="42.09451" lon="25.31429">
        <ele>167.712859</ele>
        <time>2022-03-02T11:33:47.963Z</time>
      </trkpt>
      <trkpt lat="42.09451" lon="25.31414">
        <ele>167.633959</ele>
        <time>2022-03-02T11:33:50.898Z</time>
      </trkpt>
      <trkpt lat="42.09451" lon="25.31399">
        <ele>167.560361</ele>
        <time>2022-03-02T11:33:53.935Z</time>
      </trkpt>
      <trkpt lat="42.09454" lon="25.31385">
        <ele>167.48556</ele>
        <time>2022-03-02T11:33:56.927Z</time>
      </trkpt>
      <trkpt lat="42.09457" lon="25.3137">
        <ele>167.405669</ele>
        <time>2022-03-02T11:33:59.924Z</time>
      </trkpt>
      <trkpt lat="42.0946" lon="25.31355">
        <ele>167.324427</ele>
        <time>2022-03-02T11:34:02.931Z</time>
      </trkpt>
      <trkpt lat="42.09464" lon="25.3134">
        <ele>167.241483</ele>
        <time>2022-03-02T11:34:05.901Z</time>
      </trkpt>
      <trkpt lat="42.09468" lon="25.31326">
        <ele>167.167404</ele>
        <time>2022-03-02T11:34:08.906Z</time>
      </trkpt>
      <trkpt lat="42.09472" lon="25.31313">
        <ele>167.251312</ele>
        <time>2022-03-02T11:34:11.948Z</time>
      </trkpt>
      <trkpt lat="42.09478" lon="25.31301">
        <ele>167.501215</ele>
        <time>2022-03-02T11:34:14.928Z</time>
      </trkpt>
      <trkpt lat="42.09484" lon="25.3129">
        <ele>167.750627</ele>
        <time>2022-03-02T11:34:17.919Z</time>
      </trkpt>
      <trkpt lat="42.0949" lon="25.31277">
        <ele>168.007396</ele>
        <time>2022-03-02T11:34:20.909Z</time>
      </trkpt>
      <trkpt lat="42.09494" lon="25.31265">
        <ele>168.250487</ele>
        <time>2022-03-02T11:34:23.923Z</time>
      </trkpt>
      <trkpt lat="42.09499" lon="25.31254">
        <ele>168.484515</ele>
        <time>2022-03-02T11:34:26.953Z</time>
      </trkpt>
      <trkpt lat="42.09505" lon="25.31242">
        <ele>168.728518</ele>
        <time>2022-03-02T11:34:29.928Z</time>
      </trkpt>
      <trkpt lat="42.0951" lon="25.31231">
        <ele>168.961404</ele>
        <time>2022-03-02T11:34:32.945Z</time>
      </trkpt>
      <trkpt lat="42.09516" lon="25.31221">
        <ele>169.19237</ele>
        <time>2022-03-02T11:34:35.907Z</time>
      </trkpt>
      <trkpt lat="42.09521" lon="25.31211">
        <ele>169.407756</ele>
        <time>2022-03-02T11:34:38.928Z</time>
      </trkpt>
      <trkpt lat="42.09529" lon="25.312">
        <ele>169.678439</ele>
        <time>2022-03-02T11:34:42.925Z</time>
      </trkpt>
      <trkpt lat="42.09535" lon="25.3119">
        <ele>169.89322</ele>
        <time>2022-03-02T11:34:45.919Z</time>
      </trkpt>
      <trkpt lat="42.09541" lon="25.31181">
        <ele>170.114098</ele>
        <time>2022-03-02T11:34:48.941Z</time>
      </trkpt>
      <trkpt lat="42.09548" lon="25.31171">
        <ele>170.351812</ele>
        <time>2022-03-02T11:34:51.922Z</time>
      </trkpt>
      <trkpt lat="42.09556" lon="25.31161">
        <ele>170.603916</ele>
        <time>2022-03-02T11:34:54.929Z</time>
      </trkpt>
      <trkpt lat="42.09562" lon="25.31151">
        <ele>170.839593</ele>
        <time>2022-03-02T11:34:57.910Z</time>
      </trkpt>
      <trkpt lat="42.09569" lon="25.31139">
        <ele>171.097497</ele>
        <time>2022-03-02T11:35:00.927Z</time>
      </trkpt>
      <trkpt lat="42.09575" lon="25.31128">
        <ele>171.348457</ele>
        <time>2022-03-02T11:35:03.918Z</time>
      </trkpt>
      <trkpt lat="42.09581" lon="25.31117">
        <ele>171.403828</ele>
        <time>2022-03-02T11:35:06.916Z</time>
      </trkpt>
      <trkpt lat="42.09588" lon="25.31105">
        <ele>171.399757</ele>
        <time>2022-03-02T11:35:09.918Z</time>
      </trkpt>
      <trkpt lat="42.09595" lon="25.31094">
        <ele>171.395636</ele>
        <time>2022-03-02T11:35:12.934Z</time>
      </trkpt>
      <trkpt lat="42.09603" lon="25.31083">
        <ele>171.391365</ele>
        <time>2022-03-02T11:35:15.924Z</time>
      </trkpt>
      <trkpt lat="42.0961" lon="25.31072">
        <ele>171.387254</ele>
        <time>2022-03-02T11:35:18.919Z</time>
      </trkpt>
      <trkpt lat="42.09616" lon="25.3106">
        <ele>171.383355</ele>
        <time>2022-03-02T11:35:21.928Z</time>
      </trkpt>
      <trkpt lat="42.09619" lon="25.31048">
        <ele>171.379727</ele>
        <time>2022-03-02T11:35:24.903Z</time>
      </trkpt>
      <trkpt lat="42.09624" lon="25.31036">
        <ele>171.37588</ele>
        <time>2022-03-02T11:35:27.950Z</time>
      </trkpt>
      <trkpt lat="42.0963" lon="25.31025">
        <ele>171.372224</ele>
        <time>2022-03-02T11:35:30.934Z</time>
      </trkpt>
      <trkpt lat="42.09633" lon="25.31013">
        <ele>171.368599</ele>
        <time>2022-03-02T11:35:33.950Z</time>
      </trkpt>
      <trkpt lat="42.09636" lon="25.31">
        <ele>171.364779</ele>
        <time>2022-03-02T11:35:36.914Z</time>
      </trkpt>
      <trkpt lat="42.09641" lon="25.30988">
        <ele>171.36088</ele>
        <time>2022-03-02T11:35:39.925Z</time>
      </trkpt>
      <trkpt lat="42.09646" lon="25.30977">
        <ele>171.357215</ele>
        <time>2022-03-02T11:35:42.924Z</time>
      </trkpt>
      <trkpt lat="42.09651" lon="25.30962">
        <ele>171.352619</ele>
        <time>2022-03-02T11:35:46.922Z</time>
      </trkpt>
      <trkpt lat="42.09655" lon="25.30949">
        <ele>171.348645</ele>
        <time>2022-03-02T11:35:49.912Z</time>
      </trkpt>
      <trkpt lat="42.0966" lon="25.30936">
        <ele>171.344746</ele>
        <time>2022-03-02T11:35:52.924Z</time>
      </trkpt>
      <trkpt lat="42.09665" lon="25.30925">
        <ele>171.340979</ele>
        <time>2022-03-02T11:35:55.915Z</time>
      </trkpt>
      <trkpt lat="42.0967" lon="25.30913">
        <ele>171.263286</ele>
        <time>2022-03-02T11:35:58.919Z</time>
      </trkpt>
      <trkpt lat="42.09675" lon="25.30901">
        <ele>171.099666</ele>
        <time>2022-03-02T11:36:01.934Z</time>
      </trkpt>
      <trkpt lat="42.09682" lon="25.3089">
        <ele>170.932982</ele>
        <time>2022-03-02T11:36:04.926Z</time>
      </trkpt>
      <trkpt lat="42.09687" lon="25.3088">
        <ele>170.781903</ele>
        <time>2022-03-02T11:36:07.923Z</time>
      </trkpt>
      <trkpt lat="42.09692" lon="25.30865">
        <ele>170.5908</ele>
        <time>2022-03-02T11:36:11.927Z</time>
      </trkpt>
      <trkpt lat="42.09696" lon="25.30854">
        <ele>170.443812</ele>
        <time>2022-03-02T11:36:14.931Z</time>
      </trkpt>
      <trkpt lat="42.097" lon="25.30841">
        <ele>170.283836</ele>
        <time>2022-03-02T11:36:17.958Z</time>
      </trkpt>
      <trkpt lat="42.09704" lon="25.30827">
        <ele>170.096784</ele>
        <time>2022-03-02T11:36:21.913Z</time>
      </trkpt>
      <trkpt lat="42.09708" lon="25.30815">
        <ele>169.947529</ele>
        <time>2022-03-02T11:36:24.910Z</time>
      </trkpt>
      <trkpt lat="42.09711" lon="25.30802">
        <ele>169.791121</ele>
        <time>2022-03-02T11:36:27.921Z</time>
      </trkpt>
      <trkpt lat="42.09714" lon="25.3079">
        <ele>169.631312</ele>
        <time>2022-03-02T11:36:30.966Z</time>
      </trkpt>
      <trkpt lat="42.09717" lon="25.30777">
        <ele>169.474863</ele>
        <time>2022-03-02T11:36:33.919Z</time>
      </trkpt>
      <trkpt lat="42.09721" lon="25.30765">
        <ele>169.322669</ele>
        <time>2022-03-02T11:36:36.921Z</time>
      </trkpt>
      <trkpt lat="42.09725" lon="25.30753">
        <ele>169.16892</ele>
        <time>2022-03-02T11:36:39.901Z</time>
      </trkpt>
      <trkpt lat="42.09729" lon="25.30741">
        <ele>169.012374</ele>
        <time>2022-03-02T11:36:42.912Z</time>
      </trkpt>
      <trkpt lat="42.09732" lon="25.30729">
        <ele>168.859717</ele>
        <time>2022-03-02T11:36:45.930Z</time>
      </trkpt>
      <trkpt lat="42.09736" lon="25.30714">
        <ele>168.666138</ele>
        <time>2022-03-02T11:36:49.930Z</time>
      </trkpt>
      <trkpt lat="42.0974" lon="25.30702">
        <ele>168.52193</ele>
        <time>2022-03-02T11:36:52.924Z</time>
      </trkpt>
      <trkpt lat="42.09744" lon="25.30689">
        <ele>168.395488</ele>
        <time>2022-03-02T11:36:56.920Z</time>
      </trkpt>
      <trkpt lat="42.09748" lon="25.30674">
        <ele>168.284009</ele>
        <time>2022-03-02T11:37:00.927Z</time>
      </trkpt>
      <trkpt lat="42.09751" lon="25.30663">
        <ele>168.198018</ele>
        <time>2022-03-02T11:37:03.914Z</time>
      </trkpt>
      <trkpt lat="42.09756" lon="25.30649">
        <ele>168.086269</ele>
        <time>2022-03-02T11:37:07.925Z</time>
      </trkpt>
      <trkpt lat="42.09759" lon="25.30636">
        <ele>167.994379</ele>
        <time>2022-03-02T11:37:10.915Z</time>
      </trkpt>
      <trkpt lat="42.09761" lon="25.30624">
        <ele>167.904295</ele>
        <time>2022-03-02T11:37:13.921Z</time>
      </trkpt>
      <trkpt lat="42.09763" lon="25.30611">
        <ele>167.810958</ele>
        <time>2022-03-02T11:37:16.976Z</time>
      </trkpt>
      <trkpt lat="42.09766" lon="25.30598">
        <ele>167.712119</ele>
        <time>2022-03-02T11:37:19.914Z</time>
      </trkpt>
      <trkpt lat="42.09768" lon="25.30584">
        <ele>167.614192</ele>
        <time>2022-03-02T11:37:22.955Z</time>
      </trkpt>
      <trkpt lat="42.0977" lon="25.30571">
        <ele>167.519465</ele>
        <time>2022-03-02T11:37:25.926Z</time>
      </trkpt>
      <trkpt lat="42.09772" lon="25.30558">
        <ele>167.425825</ele>
        <time>2022-03-02T11:37:28.932Z</time>
      </trkpt>
      <trkpt lat="42.09774" lon="25.30545">
        <ele>167.33145</ele>
        <time>2022-03-02T11:37:31.921Z</time>
      </trkpt>
      <trkpt lat="42.09775" lon="25.30532">
        <ele>167.238054</ele>
        <time>2022-03-02T11:37:34.930Z</time>
      </trkpt>
      <trkpt lat="42.09776" lon="25.30519">
        <ele>167.146069</ele>
        <time>2022-03-02T11:37:37.925Z</time>
      </trkpt>
      <trkpt lat="42.09778" lon="25.30507">
        <ele>167.056062</ele>
        <time>2022-03-02T11:37:40.914Z</time>
      </trkpt>
      <trkpt lat="42.09779" lon="25.30494">
        <ele>166.966055</ele>
        <time>2022-03-02T11:37:43.918Z</time>
      </trkpt>
      <trkpt lat="42.0978" lon="25.30481">
        <ele>166.872659</ele>
        <time>2022-03-02T11:37:46.922Z</time>
      </trkpt>
      <trkpt lat="42.09781" lon="25.30469">
        <ele>166.78102</ele>
        <time>2022-03-02T11:37:49.957Z</time>
      </trkpt>
      <trkpt lat="42.09783" lon="25.30456">
        <ele>166.630999</ele>
        <time>2022-03-02T11:37:52.916Z</time>
      </trkpt>
      <trkpt lat="42.09785" lon="25.30442">
        <ele>166.442945</ele>
        <time>2022-03-02T11:37:55.930Z</time>
      </trkpt>
      <trkpt lat="42.09787" lon="25.30429">
        <ele>166.256908</ele>
        <time>2022-03-02T11:37:58.921Z</time>
      </trkpt>
      <trkpt lat="42.09789" lon="25.30417">
        <ele>166.075961</ele>
        <time>2022-03-02T11:38:01.921Z</time>
      </trkpt>
      <trkpt lat="42.09791" lon="25.30404">
        <ele>165.895405</ele>
        <time>2022-03-02T11:38:04.909Z</time>
      </trkpt>
      <trkpt lat="42.09793" lon="25.3039">
        <ele>165.699135</ele>
        <time>2022-03-02T11:38:07.924Z</time>
      </trkpt>
      <trkpt lat="42.09794" lon="25.30378">
        <ele>165.529329</ele>
        <time>2022-03-02T11:38:10.921Z</time>
      </trkpt>
      <trkpt lat="42.09795" lon="25.30365">
        <ele>165.350735</ele>
        <time>2022-03-02T11:38:13.916Z</time>
      </trkpt>
      <trkpt lat="42.09797" lon="25.30351">
        <ele>165.155151</ele>
        <time>2022-03-02T11:38:16.952Z</time>
      </trkpt>
      <trkpt lat="42.09799" lon="25.30337">
        <ele>164.954516</ele>
        <time>2022-03-02T11:38:19.913Z</time>
      </trkpt>
      <trkpt lat="42.098" lon="25.30323">
        <ele>164.763031</ele>
        <time>2022-03-02T11:38:22.919Z</time>
      </trkpt>
      <trkpt lat="42.09802" lon="25.30309">
        <ele>164.556515</ele>
        <time>2022-03-02T11:38:25.933Z</time>
      </trkpt>
      <trkpt lat="42.09804" lon="25.30294">
        <ele>164.352734</ele>
        <time>2022-03-02T11:38:28.923Z</time>
      </trkpt>
      <trkpt lat="42.09805" lon="25.3028">
        <ele>164.153222</ele>
        <time>2022-03-02T11:38:31.911Z</time>
      </trkpt>
      <trkpt lat="42.09807" lon="25.30265">
        <ele>163.943806</ele>
        <time>2022-03-02T11:38:34.986Z</time>
      </trkpt>
      <trkpt lat="42.09809" lon="25.30249">
        <ele>163.719163</ele>
        <time>2022-03-02T11:38:37.939Z</time>
      </trkpt>
      <trkpt lat="42.09811" lon="25.30233">
        <ele>163.4924</ele>
        <time>2022-03-02T11:38:40.921Z</time>
      </trkpt>
      <trkpt lat="42.09812" lon="25.30217">
        <ele>163.289565</ele>
        <time>2022-03-02T11:38:43.910Z</time>
      </trkpt>
      <trkpt lat="42.09814" lon="25.30201">
        <ele>163.106986</ele>
        <time>2022-03-02T11:38:46.919Z</time>
      </trkpt>
      <trkpt lat="42.09815" lon="25.30185">
        <ele>162.91926</ele>
        <time>2022-03-02T11:38:49.936Z</time>
      </trkpt>
      <trkpt lat="42.09819" lon="25.30169">
        <ele>162.737728</ele>
        <time>2022-03-02T11:38:52.905Z</time>
      </trkpt>
      <trkpt lat="42.09821" lon="25.30152">
        <ele>162.539596</ele>
        <time>2022-03-02T11:38:55.905Z</time>
      </trkpt>
      <trkpt lat="42.09822" lon="25.3014">
        <ele>162.402886</ele>
        <time>2022-03-02T11:38:57.913Z</time>
      </trkpt>
      <trkpt lat="42.09824" lon="25.30123">
        <ele>162.210721</ele>
        <time>2022-03-02T11:39:00.962Z</time>
      </trkpt>
      <trkpt lat="42.09826" lon="25.30106">
        <ele>162.023259</ele>
        <time>2022-03-02T11:39:03.915Z</time>
      </trkpt>
      <trkpt lat="42.09829" lon="25.30089">
        <ele>161.82331</ele>
        <time>2022-03-02T11:39:06.924Z</time>
      </trkpt>
      <trkpt lat="42.09831" lon="25.30077">
        <ele>161.683758</ele>
        <time>2022-03-02T11:39:08.966Z</time>
      </trkpt>
      <trkpt lat="42.09832" lon="25.30059">
        <ele>161.48429</ele>
        <time>2022-03-02T11:39:11.933Z</time>
      </trkpt>
      <trkpt lat="42.09834" lon="25.30042">
        <ele>161.29371</ele>
        <time>2022-03-02T11:39:14.911Z</time>
      </trkpt>
      <trkpt lat="42.09837" lon="25.30025">
        <ele>161.099056</ele>
        <time>2022-03-02T11:39:17.920Z</time>
      </trkpt>
      <trkpt lat="42.09839" lon="25.30008">
        <ele>160.90492</ele>
        <time>2022-03-02T11:39:20.925Z</time>
      </trkpt>
      <trkpt lat="42.09841" lon="25.29992">
        <ele>160.720747</ele>
        <time>2022-03-02T11:39:23.907Z</time>
      </trkpt>
      <trkpt lat="42.09843" lon="25.29975">
        <ele>160.689979</ele>
        <time>2022-03-02T11:39:26.926Z</time>
      </trkpt>
      <trkpt lat="42.09845" lon="25.29959">
        <ele>160.743426</ele>
        <time>2022-03-02T11:39:29.921Z</time>
      </trkpt>
      <trkpt lat="42.09846" lon="25.29944">
        <ele>160.793566</ele>
        <time>2022-03-02T11:39:32.914Z</time>
      </trkpt>
      <trkpt lat="42.09848" lon="25.2993">
        <ele>160.841046</ele>
        <time>2022-03-02T11:39:35.929Z</time>
      </trkpt>
      <trkpt lat="42.0985" lon="25.29914">
        <ele>160.893595</ele>
        <time>2022-03-02T11:39:38.923Z</time>
      </trkpt>
      <trkpt lat="42.09851" lon="25.29898">
        <ele>160.945992</ele>
        <time>2022-03-02T11:39:41.922Z</time>
      </trkpt>
      <trkpt lat="42.09853" lon="25.29882">
        <ele>161.000734</ele>
        <time>2022-03-02T11:39:44.918Z</time>
      </trkpt>
      <trkpt lat="42.09856" lon="25.29866">
        <ele>161.053286</ele>
        <time>2022-03-02T11:39:47.920Z</time>
      </trkpt>
      <trkpt lat="42.09858" lon="25.29849">
        <ele>161.110622</ele>
        <time>2022-03-02T11:39:50.920Z</time>
      </trkpt>
      <trkpt lat="42.0986" lon="25.29832">
        <ele>161.165302</ele>
        <time>2022-03-02T11:39:53.930Z</time>
      </trkpt>
      <trkpt lat="42.09861" lon="25.29816">
        <ele>161.220727</ele>
        <time>2022-03-02T11:39:56.938Z</time>
      </trkpt>
      <trkpt lat="42.09863" lon="25.29799">
        <ele>161.276173</ele>
        <time>2022-03-02T11:39:59.917Z</time>
      </trkpt>
      <trkpt lat="42.09866" lon="25.29783">
        <ele>161.3292</ele>
        <time>2022-03-02T11:40:02.917Z</time>
      </trkpt>
      <trkpt lat="42.09868" lon="25.29768">
        <ele>161.37981</ele>
        <time>2022-03-02T11:40:05.947Z</time>
      </trkpt>
      <trkpt lat="42.09869" lon="25.29752">
        <ele>161.431503</ele>
        <time>2022-03-02T11:40:08.922Z</time>
      </trkpt>
      <trkpt lat="42.09871" lon="25.29737">
        <ele>161.498866</ele>
        <time>2022-03-02T11:40:11.961Z</time>
      </trkpt>
      <trkpt lat="42.09874" lon="25.29723">
        <ele>161.571815</ele>
        <time>2022-03-02T11:40:14.908Z</time>
      </trkpt>
      <trkpt lat="42.09877" lon="25.29707">
        <ele>161.649383</ele>
        <time>2022-03-02T11:40:17.906Z</time>
      </trkpt>
      <trkpt lat="42.09878" lon="25.29692">
        <ele>161.722607</ele>
        <time>2022-03-02T11:40:20.932Z</time>
      </trkpt>
      <trkpt lat="42.09879" lon="25.29678">
        <ele>161.792575</ele>
        <time>2022-03-02T11:40:23.910Z</time>
      </trkpt>
      <trkpt lat="42.0988" lon="25.29664">
        <ele>161.861979</ele>
        <time>2022-03-02T11:40:26.929Z</time>
      </trkpt>
      <trkpt lat="42.09881" lon="25.29649">
        <ele>161.933743</ele>
        <time>2022-03-02T11:40:29.931Z</time>
      </trkpt>
      <trkpt lat="42.09883" lon="25.29635">
        <ele>162.003464</ele>
        <time>2022-03-02T11:40:32.930Z</time>
      </trkpt>
      <trkpt lat="42.09885" lon="25.29622">
        <ele>162.070785</ele>
        <time>2022-03-02T11:40:35.924Z</time>
      </trkpt>
      <trkpt lat="42.09887" lon="25.29608">
        <ele>162.138022</ele>
        <time>2022-03-02T11:40:38.940Z</time>
      </trkpt>
      <trkpt lat="42.09888" lon="25.29594">
        <ele>162.206228</ele>
        <time>2022-03-02T11:40:41.915Z</time>
      </trkpt>
      <trkpt lat="42.0989" lon="25.29581">
        <ele>162.274384</ele>
        <time>2022-03-02T11:40:44.954Z</time>
      </trkpt>
      <trkpt lat="42.09892" lon="25.29566">
        <ele>162.34628</ele>
        <time>2022-03-02T11:40:47.924Z</time>
      </trkpt>
      <trkpt lat="42.09894" lon="25.29552">
        <ele>162.415453</ele>
        <time>2022-03-02T11:40:50.929Z</time>
      </trkpt>
      <trkpt lat="42.09895" lon="25.29539">
        <ele>162.482994</ele>
        <time>2022-03-02T11:40:53.927Z</time>
      </trkpt>
      <trkpt lat="42.09897" lon="25.29524">
        <ele>162.554518</ele>
        <time>2022-03-02T11:40:56.918Z</time>
      </trkpt>
      <trkpt lat="42.09899" lon="25.2951">
        <ele>162.625325</ele>
        <time>2022-03-02T11:40:59.925Z</time>
      </trkpt>
      <trkpt lat="42.09901" lon="25.29496">
        <ele>162.695075</ele>
        <time>2022-03-02T11:41:02.913Z</time>
      </trkpt>
      <trkpt lat="42.09902" lon="25.29482">
        <ele>162.765315</ele>
        <time>2022-03-02T11:41:05.924Z</time>
      </trkpt>
      <trkpt lat="42.09904" lon="25.29468">
        <ele>162.836823</ele>
        <time>2022-03-02T11:41:08.939Z</time>
      </trkpt>
      <trkpt lat="42.09906" lon="25.29453">
        <ele>162.909525</ele>
        <time>2022-03-02T11:41:11.904Z</time>
      </trkpt>
      <trkpt lat="42.09908" lon="25.29439">
        <ele>162.981502</ele>
        <time>2022-03-02T11:41:14.914Z</time>
      </trkpt>
      <trkpt lat="42.09909" lon="25.29424">
        <ele>163.054278</ele>
        <time>2022-03-02T11:41:17.923Z</time>
      </trkpt>
      <trkpt lat="42.09911" lon="25.2941">
        <ele>163.125684</ele>
        <time>2022-03-02T11:41:20.926Z</time>
      </trkpt>
      <trkpt lat="42.09912" lon="25.29396">
        <ele>163.194549</ele>
        <time>2022-03-02T11:41:23.930Z</time>
      </trkpt>
      <trkpt lat="42.09915" lon="25.29382">
        <ele>163.26694</ele>
        <time>2022-03-02T11:41:26.930Z</time>
      </trkpt>
      <trkpt lat="42.09917" lon="25.29368">
        <ele>163.334222</ele>
        <time>2022-03-02T11:41:29.914Z</time>
      </trkpt>
      <trkpt lat="42.09918" lon="25.29354">
        <ele>163.40593</ele>
        <time>2022-03-02T11:41:32.924Z</time>
      </trkpt>
      <trkpt lat="42.0992" lon="25.29339">
        <ele>163.481642</ele>
        <time>2022-03-02T11:41:35.931Z</time>
      </trkpt>
      <trkpt lat="42.09921" lon="25.29324">
        <ele>163.556955</ele>
        <time>2022-03-02T11:41:38.941Z</time>
      </trkpt>
      <trkpt lat="42.09924" lon="25.29309">
        <ele>163.632326</ele>
        <time>2022-03-02T11:41:41.919Z</time>
      </trkpt>
      <trkpt lat="42.09925" lon="25.29294">
        <ele>163.705889</ele>
        <time>2022-03-02T11:41:44.962Z</time>
      </trkpt>
      <trkpt lat="42.09927" lon="25.2928">
        <ele>163.778479</ele>
        <time>2022-03-02T11:41:47.921Z</time>
      </trkpt>
      <trkpt lat="42.09929" lon="25.29265">
        <ele>163.85877</ele>
        <time>2022-03-02T11:41:50.924Z</time>
      </trkpt>
      <trkpt lat="42.09931" lon="25.29251">
        <ele>163.966196</ele>
        <time>2022-03-02T11:41:53.920Z</time>
      </trkpt>
      <trkpt lat="42.09933" lon="25.29236">
        <ele>164.076717</ele>
        <time>2022-03-02T11:41:56.912Z</time>
      </trkpt>
      <trkpt lat="42.09934" lon="25.29222">
        <ele>164.184898</ele>
        <time>2022-03-02T11:41:59.922Z</time>
      </trkpt>
      <trkpt lat="42.09936" lon="25.29208">
        <ele>164.290014</ele>
        <time>2022-03-02T11:42:02.918Z</time>
      </trkpt>
      <trkpt lat="42.09937" lon="25.29193">
        <ele>164.395335</ele>
        <time>2022-03-02T11:42:05.915Z</time>
      </trkpt>
      <trkpt lat="42.09939" lon="25.29179">
        <ele>164.502494</ele>
        <time>2022-03-02T11:42:08.927Z</time>
      </trkpt>
      <trkpt lat="42.09941" lon="25.29166">
        <ele>164.603133</ele>
        <time>2022-03-02T11:42:11.934Z</time>
      </trkpt>
      <trkpt lat="42.09943" lon="25.29152">
        <ele>164.704392</ele>
        <time>2022-03-02T11:42:14.926Z</time>
      </trkpt>
      <trkpt lat="42.09945" lon="25.29139">
        <ele>164.799866</ele>
        <time>2022-03-02T11:42:17.954Z</time>
      </trkpt>
      <trkpt lat="42.09946" lon="25.29127">
        <ele>164.891891</ele>
        <time>2022-03-02T11:42:20.912Z</time>
      </trkpt>
      <trkpt lat="42.09948" lon="25.29115">
        <ele>164.98141</ele>
        <time>2022-03-02T11:42:23.912Z</time>
      </trkpt>
      <trkpt lat="42.09949" lon="25.29099">
        <ele>165.09772</ele>
        <time>2022-03-02T11:42:27.902Z</time>
      </trkpt>
      <trkpt lat="42.09951" lon="25.29087">
        <ele>165.187749</ele>
        <time>2022-03-02T11:42:30.926Z</time>
      </trkpt>
      <trkpt lat="42.09952" lon="25.29075">
        <ele>165.27797</ele>
        <time>2022-03-02T11:42:33.932Z</time>
      </trkpt>
      <trkpt lat="42.09954" lon="25.29061">
        <ele>165.386729</ele>
        <time>2022-03-02T11:42:37.924Z</time>
      </trkpt>
      <trkpt lat="42.09956" lon="25.29046">
        <ele>165.499039</ele>
        <time>2022-03-02T11:42:41.916Z</time>
      </trkpt>
      <trkpt lat="42.09958" lon="25.29031">
        <ele>165.607658</ele>
        <time>2022-03-02T11:42:45.921Z</time>
      </trkpt>
      <trkpt lat="42.09959" lon="25.29017">
        <ele>165.649275</ele>
        <time>2022-03-02T11:42:49.945Z</time>
      </trkpt>
      <trkpt lat="42.09962" lon="25.29004">
        <ele>165.68062</ele>
        <time>2022-03-02T11:42:53.931Z</time>
      </trkpt>
      <trkpt lat="42.09964" lon="25.2899">
        <ele>165.714454</ele>
        <time>2022-03-02T11:42:57.912Z</time>
      </trkpt>
      <trkpt lat="42.09966" lon="25.28975">
        <ele>165.749863</ele>
        <time>2022-03-02T11:43:01.915Z</time>
      </trkpt>
      <trkpt lat="42.09968" lon="25.2896">
        <ele>165.785113</ele>
        <time>2022-03-02T11:43:05.966Z</time>
      </trkpt>
      <trkpt lat="42.09969" lon="25.28946">
        <ele>165.818919</ele>
        <time>2022-03-02T11:43:09.925Z</time>
      </trkpt>
      <trkpt lat="42.0997" lon="25.28931">
        <ele>165.854747</ele>
        <time>2022-03-02T11:43:13.935Z</time>
      </trkpt>
      <trkpt lat="42.09972" lon="25.28917">
        <ele>165.889507</ele>
        <time>2022-03-02T11:43:17.912Z</time>
      </trkpt>
      <trkpt lat="42.09974" lon="25.28902">
        <ele>165.924106</ele>
        <time>2022-03-02T11:43:21.919Z</time>
      </trkpt>
      <trkpt lat="42.09976" lon="25.28887">
        <ele>165.960954</ele>
        <time>2022-03-02T11:43:25.914Z</time>
      </trkpt>
      <trkpt lat="42.09977" lon="25.28874">
        <ele>165.990194</ele>
        <time>2022-03-02T11:43:28.947Z</time>
      </trkpt>
      <trkpt lat="42.09979" lon="25.2886">
        <ele>166.023813</ele>
        <time>2022-03-02T11:43:31.915Z</time>
      </trkpt>
      <trkpt lat="42.0998" lon="25.28846">
        <ele>166.056727</ele>
        <time>2022-03-02T11:43:34.921Z</time>
      </trkpt>
      <trkpt lat="42.09983" lon="25.28832">
        <ele>166.092269</ele>
        <time>2022-03-02T11:43:37.907Z</time>
      </trkpt>
      <trkpt lat="42.09986" lon="25.28816">
        <ele>166.130479</ele>
        <time>2022-03-02T11:43:40.940Z</time>
      </trkpt>
      <trkpt lat="42.09987" lon="25.288">
        <ele>166.169041</ele>
        <time>2022-03-02T11:43:43.915Z</time>
      </trkpt>
      <trkpt lat="42.09989" lon="25.28783">
        <ele>166.09891</ele>
        <time>2022-03-02T11:43:46.937Z</time>
      </trkpt>
      <trkpt lat="42.09992" lon="25.28766">
        <ele>165.90174</ele>
        <time>2022-03-02T11:43:49.950Z</time>
      </trkpt>
      <trkpt lat="42.09994" lon="25.28751">
        <ele>165.721544</ele>
        <time>2022-03-02T11:43:52.921Z</time>
      </trkpt>
      <trkpt lat="42.09996" lon="25.28738">
        <ele>165.581182</ele>
        <time>2022-03-02T11:43:54.922Z</time>
      </trkpt>
      <trkpt lat="42.09997" lon="25.28725">
        <ele>165.424287</ele>
        <time>2022-03-02T11:43:56.919Z</time>
      </trkpt>
      <trkpt lat="42.09999" lon="25.28712">
        <ele>165.273426</ele>
        <time>2022-03-02T11:43:58.915Z</time>
      </trkpt>
      <trkpt lat="42.1" lon="25.28698">
        <ele>165.116531</ele>
        <time>2022-03-02T11:44:00.957Z</time>
      </trkpt>
      <trkpt lat="42.10001" lon="25.28685">
        <ele>164.965462</ele>
        <time>2022-03-02T11:44:02.920Z</time>
      </trkpt>
      <trkpt lat="42.10003" lon="25.28672">
        <ele>164.825824</ele>
        <time>2022-03-02T11:44:04.922Z</time>
      </trkpt>
      <trkpt lat="42.10005" lon="25.28655">
        <ele>164.619464</ele>
        <time>2022-03-02T11:44:07.911Z</time>
      </trkpt>
      <trkpt lat="42.10007" lon="25.28637">
        <ele>164.41998</ele>
        <time>2022-03-02T11:44:10.897Z</time>
      </trkpt>
      <trkpt lat="42.10009" lon="25.2862">
        <ele>164.221122</ele>
        <time>2022-03-02T11:44:13.913Z</time>
      </trkpt>
      <trkpt lat="42.10011" lon="25.28603">
        <ele>164.031842</ele>
        <time>2022-03-02T11:44:16.923Z</time>
      </trkpt>
      <trkpt lat="42.10013" lon="25.28586">
        <ele>163.831</ele>
        <time>2022-03-02T11:44:19.919Z</time>
      </trkpt>
      <trkpt lat="42.10015" lon="25.28568">
        <ele>163.632165</ele>
        <time>2022-03-02T11:44:22.908Z</time>
      </trkpt>
      <trkpt lat="42.10016" lon="25.28556">
        <ele>163.492929</ele>
        <time>2022-03-02T11:44:24.919Z</time>
      </trkpt>
      <trkpt lat="42.10017" lon="25.28544">
        <ele>163.431863</ele>
        <time>2022-03-02T11:44:26.917Z</time>
      </trkpt>
      <trkpt lat="42.10018" lon="25.2853">
        <ele>163.412383</ele>
        <time>2022-03-02T11:44:28.926Z</time>
      </trkpt>
      <trkpt lat="42.1002" lon="25.28516">
        <ele>163.392638</ele>
        <time>2022-03-02T11:44:30.928Z</time>
      </trkpt>
      <trkpt lat="42.10021" lon="25.28501">
        <ele>163.372975</ele>
        <time>2022-03-02T11:44:32.908Z</time>
      </trkpt>
      <trkpt lat="42.10023" lon="25.28488">
        <ele>163.354593</ele>
        <time>2022-03-02T11:44:34.917Z</time>
      </trkpt>
      <trkpt lat="42.10024" lon="25.28475">
        <ele>163.335914</ele>
        <time>2022-03-02T11:44:36.915Z</time>
      </trkpt>
      <trkpt lat="42.10024" lon="25.28462">
        <ele>163.318494</ele>
        <time>2022-03-02T11:44:38.924Z</time>
      </trkpt>
      <trkpt lat="42.10026" lon="25.28449">
        <ele>163.299653</ele>
        <time>2022-03-02T11:44:40.949Z</time>
      </trkpt>
      <trkpt lat="42.10027" lon="25.28436">
        <ele>163.281568</ele>
        <time>2022-03-02T11:44:42.912Z</time>
      </trkpt>
      <trkpt lat="42.10027" lon="25.28423">
        <ele>163.264392</ele>
        <time>2022-03-02T11:44:44.914Z</time>
      </trkpt>
      <trkpt lat="42.10028" lon="25.28411">
        <ele>163.247033</ele>
        <time>2022-03-02T11:44:46.937Z</time>
      </trkpt>
      <trkpt lat="42.10029" lon="25.28399">
        <ele>163.230087</ele>
        <time>2022-03-02T11:44:48.929Z</time>
      </trkpt>
      <trkpt lat="42.10031" lon="25.28381">
        <ele>163.205483</ele>
        <time>2022-03-02T11:44:51.980Z</time>
      </trkpt>
      <trkpt lat="42.10032" lon="25.28364">
        <ele>163.181311</ele>
        <time>2022-03-02T11:44:54.932Z</time>
      </trkpt>
      <trkpt lat="42.10034" lon="25.28347">
        <ele>163.157849</ele>
        <time>2022-03-02T11:44:57.923Z</time>
      </trkpt>
      <trkpt lat="42.10035" lon="25.28331">
        <ele>163.13597</ele>
        <time>2022-03-02T11:45:00.962Z</time>
      </trkpt>
      <trkpt lat="42.10036" lon="25.28316">
        <ele>163.115609</ele>
        <time>2022-03-02T11:45:03.918Z</time>
      </trkpt>
      <trkpt lat="42.10037" lon="25.28303">
        <ele>163.269258</ele>
        <time>2022-03-02T11:45:06.929Z</time>
      </trkpt>
      <trkpt lat="42.10038" lon="25.28289">
        <ele>163.536066</ele>
        <time>2022-03-02T11:45:09.933Z</time>
      </trkpt>
      <trkpt lat="42.10039" lon="25.28275">
        <ele>163.801523</ele>
        <time>2022-03-02T11:45:12.918Z</time>
      </trkpt>
      <trkpt lat="42.10039" lon="25.28262">
        <ele>164.053831</ele>
        <time>2022-03-02T11:45:15.944Z</time>
      </trkpt>
      <trkpt lat="42.10039" lon="25.28248">
        <ele>164.315889</ele>
        <time>2022-03-02T11:45:18.922Z</time>
      </trkpt>
      <trkpt lat="42.1004" lon="25.28235">
        <ele>164.557111</ele>
        <time>2022-03-02T11:45:21.961Z</time>
      </trkpt>
      <trkpt lat="42.1004" lon="25.2822">
        <ele>164.851737</ele>
        <time>2022-03-02T11:45:25.983Z</time>
      </trkpt>
      <trkpt lat="42.10041" lon="25.28207">
        <ele>165.093137</ele>
        <time>2022-03-02T11:45:28.923Z</time>
      </trkpt>
      <trkpt lat="42.10042" lon="25.28195">
        <ele>165.329832</ele>
        <time>2022-03-02T11:45:31.907Z</time>
      </trkpt>
      <trkpt lat="42.10043" lon="25.28183">
        <ele>165.568744</ele>
        <time>2022-03-02T11:45:34.920Z</time>
      </trkpt>
      <trkpt lat="42.10044" lon="25.28167">
        <ele>165.869799</ele>
        <time>2022-03-02T11:45:38.907Z</time>
      </trkpt>
      <trkpt lat="42.10045" lon="25.28154">
        <ele>166.123051</ele>
        <time>2022-03-02T11:45:41.927Z</time>
      </trkpt>
      <trkpt lat="42.10046" lon="25.28142">
        <ele>166.354583</ele>
        <time>2022-03-02T11:45:44.928Z</time>
      </trkpt>
      <trkpt lat="42.10047" lon="25.28129">
        <ele>166.597888</ele>
        <time>2022-03-02T11:45:47.918Z</time>
      </trkpt>
      <trkpt lat="42.10047" lon="25.28114">
        <ele>166.894567</ele>
        <time>2022-03-02T11:45:51.920Z</time>
      </trkpt>
      <trkpt lat="42.10048" lon="25.28098">
        <ele>167.191101</ele>
        <time>2022-03-02T11:45:55.910Z</time>
      </trkpt>
      <trkpt lat="42.10048" lon="25.28086">
        <ele>167.424696</ele>
        <time>2022-03-02T11:45:58.914Z</time>
      </trkpt>
      <trkpt lat="42.10049" lon="25.28073">
        <ele>167.670595</ele>
        <time>2022-03-02T11:46:01.923Z</time>
      </trkpt>
      <trkpt lat="42.10051" lon="25.28061">
        <ele>167.764087</ele>
        <time>2022-03-02T11:46:04.954Z</time>
      </trkpt>
      <trkpt lat="42.10052" lon="25.28045">
        <ele>167.807702</ele>
        <time>2022-03-02T11:46:08.921Z</time>
      </trkpt>
      <trkpt lat="42.10052" lon="25.28033">
        <ele>167.842479</ele>
        <time>2022-03-02T11:46:11.925Z</time>
      </trkpt>
      <trkpt lat="42.10053" lon="25.2802">
        <ele>167.878409</ele>
        <time>2022-03-02T11:46:14.920Z</time>
      </trkpt>
      <trkpt lat="42.10053" lon="25.28007">
        <ele>167.916246</ele>
        <time>2022-03-02T11:46:17.945Z</time>
      </trkpt>
      <trkpt lat="42.10055" lon="25.27994">
        <ele>167.953085</ele>
        <time>2022-03-02T11:46:20.928Z</time>
      </trkpt>
      <trkpt lat="42.10056" lon="25.27981">
        <ele>167.989859</ele>
        <time>2022-03-02T11:46:23.941Z</time>
      </trkpt>
      <trkpt lat="42.10057" lon="25.27968">
        <ele>168.02603</ele>
        <time>2022-03-02T11:46:26.949Z</time>
      </trkpt>
      <trkpt lat="42.10058" lon="25.27956">
        <ele>168.061146</ele>
        <time>2022-03-02T11:46:29.930Z</time>
      </trkpt>
      <trkpt lat="42.10059" lon="25.2794">
        <ele>168.106558</ele>
        <time>2022-03-02T11:46:33.925Z</time>
      </trkpt>
      <trkpt lat="42.1006" lon="25.27927">
        <ele>168.14218</ele>
        <time>2022-03-02T11:46:36.939Z</time>
      </trkpt>
      <trkpt lat="42.1006" lon="25.27914">
        <ele>168.178928</ele>
        <time>2022-03-02T11:46:39.913Z</time>
      </trkpt>
      <trkpt lat="42.10061" lon="25.27901">
        <ele>168.21624</ele>
        <time>2022-03-02T11:46:42.934Z</time>
      </trkpt>
      <trkpt lat="42.10062" lon="25.27889">
        <ele>168.251754</ele>
        <time>2022-03-02T11:46:45.930Z</time>
      </trkpt>
      <trkpt lat="42.10063" lon="25.27876">
        <ele>168.28684</ele>
        <time>2022-03-02T11:46:48.961Z</time>
      </trkpt>
      <trkpt lat="42.10063" lon="25.27864">
        <ele>168.321826</ele>
        <time>2022-03-02T11:46:51.924Z</time>
      </trkpt>
      <trkpt lat="42.10064" lon="25.27851">
        <ele>168.35863</ele>
        <time>2022-03-02T11:46:54.935Z</time>
      </trkpt>
      <trkpt lat="42.10065" lon="25.27839">
        <ele>168.393351</ele>
        <time>2022-03-02T11:46:57.910Z</time>
      </trkpt>
      <trkpt lat="42.10066" lon="25.27826">
        <ele>168.406291</ele>
        <time>2022-03-02T11:47:00.913Z</time>
      </trkpt>
      <trkpt lat="42.10067" lon="25.27813">
        <ele>168.318005</ele>
        <time>2022-03-02T11:47:03.926Z</time>
      </trkpt>
      <trkpt lat="42.10068" lon="25.278">
        <ele>168.228426</ele>
        <time>2022-03-02T11:47:06.920Z</time>
      </trkpt>
      <trkpt lat="42.10069" lon="25.27787">
        <ele>168.135882</ele>
        <time>2022-03-02T11:47:09.918Z</time>
      </trkpt>
      <trkpt lat="42.1007" lon="25.27774">
        <ele>168.046303</ele>
        <time>2022-03-02T11:47:12.918Z</time>
      </trkpt>
      <trkpt lat="42.10071" lon="25.27761">
        <ele>167.951086</ele>
        <time>2022-03-02T11:47:15.933Z</time>
      </trkpt>
      <trkpt lat="42.10072" lon="25.27748">
        <ele>167.862799</ele>
        <time>2022-03-02T11:47:18.922Z</time>
      </trkpt>
      <trkpt lat="42.10072" lon="25.27734">
        <ele>167.761075</ele>
        <time>2022-03-02T11:47:21.913Z</time>
      </trkpt>
      <trkpt lat="42.10073" lon="25.27718">
        <ele>167.655365</ele>
        <time>2022-03-02T11:47:24.949Z</time>
      </trkpt>
      <trkpt lat="42.10074" lon="25.27703">
        <ele>167.544107</ele>
        <time>2022-03-02T11:47:27.926Z</time>
      </trkpt>
      <trkpt lat="42.10075" lon="25.27686">
        <ele>167.430404</ele>
        <time>2022-03-02T11:47:30.912Z</time>
      </trkpt>
      <trkpt lat="42.10076" lon="25.2767">
        <ele>167.317286</ele>
        <time>2022-03-02T11:47:33.932Z</time>
      </trkpt>
      <trkpt lat="42.10077" lon="25.27654">
        <ele>167.203165</ele>
        <time>2022-03-02T11:47:36.919Z</time>
      </trkpt>
      <trkpt lat="42.10078" lon="25.27637">
        <ele>167.082505</ele>
        <time>2022-03-02T11:47:39.909Z</time>
      </trkpt>
      <trkpt lat="42.10079" lon="25.27624">
        <ele>166.997087</ele>
        <time>2022-03-02T11:47:41.923Z</time>
      </trkpt>
      <trkpt lat="42.1008" lon="25.27612">
        <ele>166.910283</ele>
        <time>2022-03-02T11:47:43.923Z</time>
      </trkpt>
      <trkpt lat="42.10081" lon="25.27599">
        <ele>166.820507</ele>
        <time>2022-03-02T11:47:45.958Z</time>
      </trkpt>
      <trkpt lat="42.10082" lon="25.27587">
        <ele>166.729216</ele>
        <time>2022-03-02T11:47:47.911Z</time>
      </trkpt>
      <trkpt lat="42.10083" lon="25.27573">
        <ele>166.495184</ele>
        <time>2022-03-02T11:47:49.924Z</time>
      </trkpt>
      <trkpt lat="42.10084" lon="25.2756">
        <ele>166.265142</ele>
        <time>2022-03-02T11:47:51.929Z</time>
      </trkpt>
      <trkpt lat="42.10085" lon="25.27547">
        <ele>166.023016</ele>
        <time>2022-03-02T11:47:53.957Z</time>
      </trkpt>
      <trkpt lat="42.10086" lon="25.27533">
        <ele>165.778718</ele>
        <time>2022-03-02T11:47:55.906Z</time>
      </trkpt>
      <trkpt lat="42.10087" lon="25.27519">
        <ele>165.525161</ele>
        <time>2022-03-02T11:47:57.917Z</time>
      </trkpt>
      <trkpt lat="42.10089" lon="25.27505">
        <ele>165.274819</ele>
        <time>2022-03-02T11:47:59.952Z</time>
      </trkpt>
      <trkpt lat="42.10091" lon="25.2749">
        <ele>165.017126</ele>
        <time>2022-03-02T11:48:01.930Z</time>
      </trkpt>
      <trkpt lat="42.10093" lon="25.27476">
        <ele>164.766369</ele>
        <time>2022-03-02T11:48:03.925Z</time>
      </trkpt>
      <trkpt lat="42.10095" lon="25.27462">
        <ele>164.513443</ele>
        <time>2022-03-02T11:48:05.913Z</time>
      </trkpt>
      <trkpt lat="42.10097" lon="25.27448">
        <ele>164.256876</ele>
        <time>2022-03-02T11:48:07.917Z</time>
      </trkpt>
      <trkpt lat="42.101" lon="25.27433">
        <ele>163.992661</ele>
        <time>2022-03-02T11:48:09.912Z</time>
      </trkpt>
      <trkpt lat="42.10102" lon="25.27419">
        <ele>163.731078</ele>
        <time>2022-03-02T11:48:11.932Z</time>
      </trkpt>
      <trkpt lat="42.10104" lon="25.27404">
        <ele>163.470782</ele>
        <time>2022-03-02T11:48:13.904Z</time>
      </trkpt>
      <trkpt lat="42.10106" lon="25.2739">
        <ele>163.210931</ele>
        <time>2022-03-02T11:48:15.935Z</time>
      </trkpt>
      <trkpt lat="42.10108" lon="25.27375">
        <ele>162.955822</ele>
        <time>2022-03-02T11:48:17.905Z</time>
      </trkpt>
      <trkpt lat="42.1011" lon="25.27361">
        <ele>162.700942</ele>
        <time>2022-03-02T11:48:19.911Z</time>
      </trkpt>
      <trkpt lat="42.10112" lon="25.27347">
        <ele>162.449744</ele>
        <time>2022-03-02T11:48:21.903Z</time>
      </trkpt>
      <trkpt lat="42.10114" lon="25.27332">
        <ele>162.315333</ele>
        <time>2022-03-02T11:48:23.939Z</time>
      </trkpt>
      <trkpt lat="42.10116" lon="25.27318">
        <ele>162.178556</ele>
        <time>2022-03-02T11:48:25.939Z</time>
      </trkpt>
      <trkpt lat="42.10119" lon="25.27303">
        <ele>162.041297</ele>
        <time>2022-03-02T11:48:27.959Z</time>
      </trkpt>
      <trkpt lat="42.1012" lon="25.27288">
        <ele>161.905388</ele>
        <time>2022-03-02T11:48:29.938Z</time>
      </trkpt>
      <trkpt lat="42.10122" lon="25.27274">
        <ele>161.770789</ele>
        <time>2022-03-02T11:48:31.929Z</time>
      </trkpt>
      <trkpt lat="42.10124" lon="25.2726">
        <ele>161.641867</ele>
        <time>2022-03-02T11:48:33.924Z</time>
      </trkpt>
      <trkpt lat="42.10125" lon="25.27246">
        <ele>161.512501</ele>
        <time>2022-03-02T11:48:35.912Z</time>
      </trkpt>
      <trkpt lat="42.10127" lon="25.27233">
        <ele>161.386738</ele>
        <time>2022-03-02T11:48:37.920Z</time>
      </trkpt>
      <trkpt lat="42.10129" lon="25.27219">
        <ele>161.259169</ele>
        <time>2022-03-02T11:48:39.941Z</time>
      </trkpt>
      <trkpt lat="42.10131" lon="25.27206">
        <ele>161.138336</ele>
        <time>2022-03-02T11:48:41.913Z</time>
      </trkpt>
      <trkpt lat="42.10133" lon="25.27194">
        <ele>161.025567</ele>
        <time>2022-03-02T11:48:43.919Z</time>
      </trkpt>
      <trkpt lat="42.10136" lon="25.27176">
        <ele>160.862165</ele>
        <time>2022-03-02T11:48:46.922Z</time>
      </trkpt>
      <trkpt lat="42.10137" lon="25.2716">
        <ele>160.709973</ele>
        <time>2022-03-02T11:48:49.966Z</time>
      </trkpt>
      <trkpt lat="42.1014" lon="25.27144">
        <ele>160.556039</ele>
        <time>2022-03-02T11:48:52.908Z</time>
      </trkpt>
      <trkpt lat="42.10141" lon="25.27132">
        <ele>160.44425</ele>
        <time>2022-03-02T11:48:54.918Z</time>
      </trkpt>
      <trkpt lat="42.10144" lon="25.27119">
        <ele>160.325567</ele>
        <time>2022-03-02T11:48:56.925Z</time>
      </trkpt>
      <trkpt lat="42.10145" lon="25.27107">
        <ele>160.240707</ele>
        <time>2022-03-02T11:48:58.919Z</time>
      </trkpt>
      <trkpt lat="42.10146" lon="25.27094">
        <ele>160.240881</ele>
        <time>2022-03-02T11:49:00.932Z</time>
      </trkpt>
      <trkpt lat="42.10148" lon="25.27082">
        <ele>160.241043</ele>
        <time>2022-03-02T11:49:02.901Z</time>
      </trkpt>
      <trkpt lat="42.1015" lon="25.27065">
        <ele>160.241269</ele>
        <time>2022-03-02T11:49:05.905Z</time>
      </trkpt>
      <trkpt lat="42.10152" lon="25.27049">
        <ele>160.241487</ele>
        <time>2022-03-02T11:49:08.897Z</time>
      </trkpt>
      <trkpt lat="42.10155" lon="25.27033">
        <ele>160.241702</ele>
        <time>2022-03-02T11:49:11.945Z</time>
      </trkpt>
      <trkpt lat="42.10158" lon="25.27016">
        <ele>160.241938</ele>
        <time>2022-03-02T11:49:14.929Z</time>
      </trkpt>
      <trkpt lat="42.1016" lon="25.26998">
        <ele>160.242176</ele>
        <time>2022-03-02T11:49:17.897Z</time>
      </trkpt>
      <trkpt lat="42.10162" lon="25.26981">
        <ele>160.242405</ele>
        <time>2022-03-02T11:49:20.916Z</time>
      </trkpt>
      <trkpt lat="42.10165" lon="25.26965">
        <ele>160.242629</ele>
        <time>2022-03-02T11:49:23.902Z</time>
      </trkpt>
      <trkpt lat="42.10167" lon="25.26948">
        <ele>160.242858</ele>
        <time>2022-03-02T11:49:26.917Z</time>
      </trkpt>
      <trkpt lat="42.10169" lon="25.26931">
        <ele>160.243081</ele>
        <time>2022-03-02T11:49:29.932Z</time>
      </trkpt>
      <trkpt lat="42.10171" lon="25.26916">
        <ele>160.243284</ele>
        <time>2022-03-02T11:49:32.909Z</time>
      </trkpt>
      <trkpt lat="42.10173" lon="25.26901">
        <ele>160.243484</ele>
        <time>2022-03-02T11:49:35.904Z</time>
      </trkpt>
      <trkpt lat="42.10175" lon="25.26886">
        <ele>160.243693</ele>
        <time>2022-03-02T11:49:38.918Z</time>
      </trkpt>
      <trkpt lat="42.10177" lon="25.26869">
        <ele>160.274358</ele>
        <time>2022-03-02T11:49:41.989Z</time>
      </trkpt>
      <trkpt lat="42.1018" lon="25.26852">
        <ele>160.476277</ele>
        <time>2022-03-02T11:49:44.918Z</time>
      </trkpt>
      <trkpt lat="42.10183" lon="25.26836">
        <ele>160.670515</ele>
        <time>2022-03-02T11:49:47.940Z</time>
      </trkpt>
      <trkpt lat="42.10185" lon="25.26819">
        <ele>160.867985</ele>
        <time>2022-03-02T11:49:50.924Z</time>
      </trkpt>
      <trkpt lat="42.10188" lon="25.26802">
        <ele>161.074231</ele>
        <time>2022-03-02T11:49:53.911Z</time>
      </trkpt>
      <trkpt lat="42.1019" lon="25.26785">
        <ele>161.270749</ele>
        <time>2022-03-02T11:49:56.913Z</time>
      </trkpt>
      <trkpt lat="42.10192" lon="25.26769">
        <ele>161.461579</ele>
        <time>2022-03-02T11:49:59.909Z</time>
      </trkpt>
      <trkpt lat="42.10195" lon="25.26752">
        <ele>161.658666</ele>
        <time>2022-03-02T11:50:02.904Z</time>
      </trkpt>
      <trkpt lat="42.10197" lon="25.26735">
        <ele>161.863773</ele>
        <time>2022-03-02T11:50:05.928Z</time>
      </trkpt>
      <trkpt lat="42.102" lon="25.26718">
        <ele>162.069822</ele>
        <time>2022-03-02T11:50:08.928Z</time>
      </trkpt>
      <trkpt lat="42.10203" lon="25.26701">
        <ele>162.270249</ele>
        <time>2022-03-02T11:50:11.906Z</time>
      </trkpt>
      <trkpt lat="42.10206" lon="25.26684">
        <ele>162.473078</ele>
        <time>2022-03-02T11:50:14.967Z</time>
      </trkpt>
      <trkpt lat="42.10209" lon="25.26666">
        <ele>162.677364</ele>
        <time>2022-03-02T11:50:17.912Z</time>
      </trkpt>
      <trkpt lat="42.1021" lon="25.26649">
        <ele>162.881727</ele>
        <time>2022-03-02T11:50:20.921Z</time>
      </trkpt>
      <trkpt lat="42.10212" lon="25.26632">
        <ele>163.064998</ele>
        <time>2022-03-02T11:50:23.929Z</time>
      </trkpt>
      <trkpt lat="42.10214" lon="25.26616">
        <ele>163.104906</ele>
        <time>2022-03-02T11:50:26.901Z</time>
      </trkpt>
      <trkpt lat="42.10216" lon="25.26599">
        <ele>163.145257</ele>
        <time>2022-03-02T11:50:29.932Z</time>
      </trkpt>
      <trkpt lat="42.10219" lon="25.26583">
        <ele>163.185087</ele>
        <time>2022-03-02T11:50:32.925Z</time>
      </trkpt>
      <trkpt lat="42.10221" lon="25.26567">
        <ele>163.22288</ele>
        <time>2022-03-02T11:50:35.907Z</time>
      </trkpt>
      <trkpt lat="42.10223" lon="25.26552">
        <ele>163.261055</ele>
        <time>2022-03-02T11:50:38.923Z</time>
      </trkpt>
      <trkpt lat="42.10225" lon="25.26535">
        <ele>163.301062</ele>
        <time>2022-03-02T11:50:41.921Z</time>
      </trkpt>
      <trkpt lat="42.10228" lon="25.26519">
        <ele>163.339933</ele>
        <time>2022-03-02T11:50:44.914Z</time>
      </trkpt>
      <trkpt lat="42.10231" lon="25.26504">
        <ele>163.378573</ele>
        <time>2022-03-02T11:50:47.947Z</time>
      </trkpt>
      <trkpt lat="42.10234" lon="25.26488">
        <ele>163.4173</ele>
        <time>2022-03-02T11:50:50.909Z</time>
      </trkpt>
      <trkpt lat="42.10236" lon="25.26472">
        <ele>163.455768</ele>
        <time>2022-03-02T11:50:53.913Z</time>
      </trkpt>
      <trkpt lat="42.10238" lon="25.26457">
        <ele>163.492944</ele>
        <time>2022-03-02T11:50:56.939Z</time>
      </trkpt>
      <trkpt lat="42.1024" lon="25.2644">
        <ele>163.533136</ele>
        <time>2022-03-02T11:50:59.928Z</time>
      </trkpt>
      <trkpt lat="42.10242" lon="25.26423">
        <ele>163.573802</ele>
        <time>2022-03-02T11:51:02.928Z</time>
      </trkpt>
      <trkpt lat="42.10246" lon="25.26406">
        <ele>163.615851</ele>
        <time>2022-03-02T11:51:05.911Z</time>
      </trkpt>
      <trkpt lat="42.10248" lon="25.2639">
        <ele>163.690722</ele>
        <time>2022-03-02T11:51:08.920Z</time>
      </trkpt>
      <trkpt lat="42.1025" lon="25.26373">
        <ele>163.823175</ele>
        <time>2022-03-02T11:51:11.950Z</time>
      </trkpt>
      <trkpt lat="42.10253" lon="25.26356">
        <ele>163.956381</ele>
        <time>2022-03-02T11:51:14.937Z</time>
      </trkpt>
      <trkpt lat="42.10255" lon="25.26339">
        <ele>164.0847</ele>
        <time>2022-03-02T11:51:17.925Z</time>
      </trkpt>
      <trkpt lat="42.10257" lon="25.26323">
        <ele>164.206979</ele>
        <time>2022-03-02T11:51:20.916Z</time>
      </trkpt>
      <trkpt lat="42.10259" lon="25.26307">
        <ele>164.332858</ele>
        <time>2022-03-02T11:51:23.968Z</time>
      </trkpt>
      <trkpt lat="42.10261" lon="25.26291">
        <ele>164.459493</ele>
        <time>2022-03-02T11:51:26.947Z</time>
      </trkpt>
      <trkpt lat="42.10263" lon="25.26275">
        <ele>164.587236</ele>
        <time>2022-03-02T11:51:29.912Z</time>
      </trkpt>
      <trkpt lat="42.10265" lon="25.26259">
        <ele>164.710456</ele>
        <time>2022-03-02T11:51:32.945Z</time>
      </trkpt>
      <trkpt lat="42.10267" lon="25.26242">
        <ele>164.836926</ele>
        <time>2022-03-02T11:51:35.914Z</time>
      </trkpt>
      <trkpt lat="42.10269" lon="25.26226">
        <ele>164.961469</ele>
        <time>2022-03-02T11:51:38.913Z</time>
      </trkpt>
      <trkpt lat="42.10271" lon="25.2621">
        <ele>165.087635</ele>
        <time>2022-03-02T11:51:41.918Z</time>
      </trkpt>
      <trkpt lat="42.10274" lon="25.26194">
        <ele>165.212659</ele>
        <time>2022-03-02T11:51:44.920Z</time>
      </trkpt>
      <trkpt lat="42.10276" lon="25.26178">
        <ele>165.33853</ele>
        <time>2022-03-02T11:51:47.924Z</time>
      </trkpt>
      <trkpt lat="42.10278" lon="25.26162">
        <ele>165.464764</ele>
        <time>2022-03-02T11:51:50.914Z</time>
      </trkpt>
      <trkpt lat="42.1028" lon="25.26146">
        <ele>165.64046</ele>
        <time>2022-03-02T11:51:53.920Z</time>
      </trkpt>
      <trkpt lat="42.10282" lon="25.26131">
        <ele>165.840878</ele>
        <time>2022-03-02T11:51:56.903Z</time>
      </trkpt>
      <trkpt lat="42.10285" lon="25.26115">
        <ele>166.038529</ele>
        <time>2022-03-02T11:51:59.913Z</time>
      </trkpt>
      <trkpt lat="42.10287" lon="25.26098">
        <ele>166.253373</ele>
        <time>2022-03-02T11:52:02.929Z</time>
      </trkpt>
      <trkpt lat="42.1029" lon="25.26083">
        <ele>166.44759</ele>
        <time>2022-03-02T11:52:05.916Z</time>
      </trkpt>
      <trkpt lat="42.10292" lon="25.26068">
        <ele>166.642461</ele>
        <time>2022-03-02T11:52:08.921Z</time>
      </trkpt>
      <trkpt lat="42.10294" lon="25.26053">
        <ele>166.832424</ele>
        <time>2022-03-02T11:52:11.925Z</time>
      </trkpt>
      <trkpt lat="42.10296" lon="25.26038">
        <ele>167.019298</ele>
        <time>2022-03-02T11:52:14.918Z</time>
      </trkpt>
      <trkpt lat="42.10298" lon="25.26023">
        <ele>167.217941</ele>
        <time>2022-03-02T11:52:17.946Z</time>
      </trkpt>
      <trkpt lat="42.103" lon="25.26007">
        <ele>167.416849</ele>
        <time>2022-03-02T11:52:20.916Z</time>
      </trkpt>
      <trkpt lat="42.10302" lon="25.25992">
        <ele>167.60649</ele>
        <time>2022-03-02T11:52:23.920Z</time>
      </trkpt>
      <trkpt lat="42.10304" lon="25.25977">
        <ele>167.798362</ele>
        <time>2022-03-02T11:52:26.916Z</time>
      </trkpt>
      <trkpt lat="42.10305" lon="25.25962">
        <ele>167.984862</ele>
        <time>2022-03-02T11:52:29.904Z</time>
      </trkpt>
      <trkpt lat="42.10305" lon="25.25947">
        <ele>168.171293</ele>
        <time>2022-03-02T11:52:32.932Z</time>
      </trkpt>
      <trkpt lat="42.10306" lon="25.25934">
        <ele>168.341648</ele>
        <time>2022-03-02T11:52:35.918Z</time>
      </trkpt>
      <trkpt lat="42.10306" lon="25.2592">
        <ele>168.510586</ele>
        <time>2022-03-02T11:52:38.927Z</time>
      </trkpt>
      <trkpt lat="42.10305" lon="25.25907">
        <ele>168.696081</ele>
        <time>2022-03-02T11:52:41.930Z</time>
      </trkpt>
      <trkpt lat="42.10304" lon="25.25893">
        <ele>168.902614</ele>
        <time>2022-03-02T11:52:44.947Z</time>
      </trkpt>
      <trkpt lat="42.10303" lon="25.25881">
        <ele>169.087151</ele>
        <time>2022-03-02T11:52:47.928Z</time>
      </trkpt>
      <trkpt lat="42.10301" lon="25.25867">
        <ele>169.29193</ele>
        <time>2022-03-02T11:52:50.906Z</time>
      </trkpt>
      <trkpt lat="42.10299" lon="25.25853">
        <ele>169.506382</ele>
        <time>2022-03-02T11:52:53.929Z</time>
      </trkpt>
      <trkpt lat="42.10297" lon="25.25838">
        <ele>169.731867</ele>
        <time>2022-03-02T11:52:56.904Z</time>
      </trkpt>
      <trkpt lat="42.10294" lon="25.25822">
        <ele>169.966353</ele>
        <time>2022-03-02T11:52:59.934Z</time>
      </trkpt>
      <trkpt lat="42.10291" lon="25.25806">
        <ele>170.205091</ele>
        <time>2022-03-02T11:53:02.906Z</time>
      </trkpt>
      <trkpt lat="42.10288" lon="25.2579">
        <ele>170.44619</ele>
        <time>2022-03-02T11:53:05.920Z</time>
      </trkpt>
      <trkpt lat="42.10285" lon="25.25775">
        <ele>170.68401</ele>
        <time>2022-03-02T11:53:08.901Z</time>
      </trkpt>
      <trkpt lat="42.10281" lon="25.25759">
        <ele>170.915842</ele>
        <time>2022-03-02T11:53:11.918Z</time>
      </trkpt>
      <trkpt lat="42.10278" lon="25.25744">
        <ele>171.149945</ele>
        <time>2022-03-02T11:53:14.927Z</time>
      </trkpt>
      <trkpt lat="42.10274" lon="25.25729">
        <ele>171.38676</ele>
        <time>2022-03-02T11:53:17.951Z</time>
      </trkpt>
      <trkpt lat="42.1027" lon="25.25713">
        <ele>171.635299</ele>
        <time>2022-03-02T11:53:20.939Z</time>
      </trkpt>
      <trkpt lat="42.10267" lon="25.25698">
        <ele>171.860116</ele>
        <time>2022-03-02T11:53:23.912Z</time>
      </trkpt>
      <trkpt lat="42.10263" lon="25.25682">
        <ele>172.05746</ele>
        <time>2022-03-02T11:53:26.926Z</time>
      </trkpt>
      <trkpt lat="42.10259" lon="25.25666">
        <ele>171.870909</ele>
        <time>2022-03-02T11:53:29.920Z</time>
      </trkpt>
      <trkpt lat="42.10255" lon="25.25652">
        <ele>171.702942</ele>
        <time>2022-03-02T11:53:32.921Z</time>
      </trkpt>
      <trkpt lat="42.10252" lon="25.25637">
        <ele>171.53557</ele>
        <time>2022-03-02T11:53:35.908Z</time>
      </trkpt>
      <trkpt lat="42.10248" lon="25.25622">
        <ele>171.356802</ele>
        <time>2022-03-02T11:53:38.929Z</time>
      </trkpt>
      <trkpt lat="42.10245" lon="25.25607">
        <ele>171.1838</ele>
        <time>2022-03-02T11:53:41.917Z</time>
      </trkpt>
      <trkpt lat="42.10242" lon="25.25592">
        <ele>171.009465</ele>
        <time>2022-03-02T11:53:44.917Z</time>
      </trkpt>
      <trkpt lat="42.10238" lon="25.25576">
        <ele>170.824849</ele>
        <time>2022-03-02T11:53:47.911Z</time>
      </trkpt>
      <trkpt lat="42.10234" lon="25.25561">
        <ele>170.642926</ele>
        <time>2022-03-02T11:53:50.952Z</time>
      </trkpt>
      <trkpt lat="42.10231" lon="25.25546">
        <ele>170.471777</ele>
        <time>2022-03-02T11:53:53.908Z</time>
      </trkpt>
      <trkpt lat="42.10227" lon="25.25532">
        <ele>170.306586</ele>
        <time>2022-03-02T11:53:56.915Z</time>
      </trkpt>
      <trkpt lat="42.10224" lon="25.25518">
        <ele>170.144345</ele>
        <time>2022-03-02T11:53:59.918Z</time>
      </trkpt>
      <trkpt lat="42.10221" lon="25.25504">
        <ele>169.977886</ele>
        <time>2022-03-02T11:54:02.918Z</time>
      </trkpt>
      <trkpt lat="42.10218" lon="25.25489">
        <ele>169.807177</ele>
        <time>2022-03-02T11:54:05.935Z</time>
      </trkpt>
      <trkpt lat="42.10215" lon="25.25474">
        <ele>169.634175</ele>
        <time>2022-03-02T11:54:08.907Z</time>
      </trkpt>
      <trkpt lat="42.10212" lon="25.25459">
        <ele>169.459727</ele>
        <time>2022-03-02T11:54:11.916Z</time>
      </trkpt>
      <trkpt lat="42.10208" lon="25.25444">
        <ele>169.392392</ele>
        <time>2022-03-02T11:54:14.922Z</time>
      </trkpt>
      <trkpt lat="42.10205" lon="25.2543">
        <ele>169.406614</ele>
        <time>2022-03-02T11:54:17.920Z</time>
      </trkpt>
      <trkpt lat="42.10202" lon="25.25416">
        <ele>169.420262</ele>
        <time>2022-03-02T11:54:20.911Z</time>
      </trkpt>
      <trkpt lat="42.10199" lon="25.25402">
        <ele>169.43403</ele>
        <time>2022-03-02T11:54:23.963Z</time>
      </trkpt>
      <trkpt lat="42.10195" lon="25.25387">
        <ele>169.448049</ele>
        <time>2022-03-02T11:54:26.924Z</time>
      </trkpt>
      <trkpt lat="42.10192" lon="25.25373">
        <ele>169.462322</ele>
        <time>2022-03-02T11:54:29.908Z</time>
      </trkpt>
      <trkpt lat="42.10189" lon="25.25358">
        <ele>169.476756</ele>
        <time>2022-03-02T11:54:32.934Z</time>
      </trkpt>
      <trkpt lat="42.10186" lon="25.25343">
        <ele>169.491586</ele>
        <time>2022-03-02T11:54:35.933Z</time>
      </trkpt>
      <trkpt lat="42.10182" lon="25.25329">
        <ele>169.505552</ele>
        <time>2022-03-02T11:54:38.932Z</time>
      </trkpt>
      <trkpt lat="42.1018" lon="25.25314">
        <ele>169.519615</ele>
        <time>2022-03-02T11:54:41.925Z</time>
      </trkpt>
      <trkpt lat="42.10176" lon="25.253">
        <ele>169.533582</ele>
        <time>2022-03-02T11:54:44.909Z</time>
      </trkpt>
      <trkpt lat="42.10173" lon="25.25286">
        <ele>169.547295</ele>
        <time>2022-03-02T11:54:47.949Z</time>
      </trkpt>
      <trkpt lat="42.1017" lon="25.25273">
        <ele>169.560327</ele>
        <time>2022-03-02T11:54:50.909Z</time>
      </trkpt>
      <trkpt lat="42.10167" lon="25.25259">
        <ele>169.57404</ele>
        <time>2022-03-02T11:54:53.922Z</time>
      </trkpt>
      <trkpt lat="42.10165" lon="25.25245">
        <ele>169.587617</ele>
        <time>2022-03-02T11:54:56.924Z</time>
      </trkpt>
      <trkpt lat="42.10161" lon="25.25231">
        <ele>169.601525</ele>
        <time>2022-03-02T11:54:59.910Z</time>
      </trkpt>
      <trkpt lat="42.10158" lon="25.25216">
        <ele>169.624468</ele>
        <time>2022-03-02T11:55:02.953Z</time>
      </trkpt>
      <trkpt lat="42.10155" lon="25.25202">
        <ele>169.669316</ele>
        <time>2022-03-02T11:55:05.914Z</time>
      </trkpt>
      <trkpt lat="42.10151" lon="25.25189">
        <ele>169.713787</ele>
        <time>2022-03-02T11:55:08.919Z</time>
      </trkpt>
      <trkpt lat="42.10148" lon="25.25174">
        <ele>169.759577</ele>
        <time>2022-03-02T11:55:11.914Z</time>
      </trkpt>
      <trkpt lat="42.10144" lon="25.25161">
        <ele>169.804189</ele>
        <time>2022-03-02T11:55:14.914Z</time>
      </trkpt>
      <trkpt lat="42.10141" lon="25.25147">
        <ele>169.847543</ele>
        <time>2022-03-02T11:55:17.930Z</time>
      </trkpt>
      <trkpt lat="42.10138" lon="25.25134">
        <ele>169.889645</ele>
        <time>2022-03-02T11:55:20.937Z</time>
      </trkpt>
      <trkpt lat="42.10135" lon="25.25121">
        <ele>169.932112</ele>
        <time>2022-03-02T11:55:23.938Z</time>
      </trkpt>
      <trkpt lat="42.10132" lon="25.25108">
        <ele>169.974805</ele>
        <time>2022-03-02T11:55:26.918Z</time>
      </trkpt>
      <trkpt lat="42.10129" lon="25.25094">
        <ele>170.018266</ele>
        <time>2022-03-02T11:55:29.911Z</time>
      </trkpt>
      <trkpt lat="42.10126" lon="25.25081">
        <ele>170.061327</ele>
        <time>2022-03-02T11:55:32.926Z</time>
      </trkpt>
      <trkpt lat="42.10122" lon="25.25068">
        <ele>170.102926</ele>
        <time>2022-03-02T11:55:35.950Z</time>
      </trkpt>
      <trkpt lat="42.10119" lon="25.25055">
        <ele>170.145661</ele>
        <time>2022-03-02T11:55:38.914Z</time>
      </trkpt>
      <trkpt lat="42.10116" lon="25.25042">
        <ele>170.187976</ele>
        <time>2022-03-02T11:55:41.922Z</time>
      </trkpt>
      <trkpt lat="42.10112" lon="25.25031">
        <ele>170.226814</ele>
        <time>2022-03-02T11:55:44.925Z</time>
      </trkpt>
      <trkpt lat="42.1011" lon="25.25018">
        <ele>170.265594</ele>
        <time>2022-03-02T11:55:47.912Z</time>
      </trkpt>
      <trkpt lat="42.10108" lon="25.25005">
        <ele>170.30696</ele>
        <time>2022-03-02T11:55:50.921Z</time>
      </trkpt>
      <trkpt lat="42.10105" lon="25.24992">
        <ele>170.349772</ele>
        <time>2022-03-02T11:55:53.921Z</time>
      </trkpt>
      <trkpt lat="42.10103" lon="25.24979">
        <ele>170.414876</ele>
        <time>2022-03-02T11:55:56.925Z</time>
      </trkpt>
      <trkpt lat="42.10099" lon="25.24966">
        <ele>170.492009</ele>
        <time>2022-03-02T11:55:59.935Z</time>
      </trkpt>
      <trkpt lat="42.10096" lon="25.24953">
        <ele>170.570075</ele>
        <time>2022-03-02T11:56:02.919Z</time>
      </trkpt>
      <trkpt lat="42.10093" lon="25.24939">
        <ele>170.65135</ele>
        <time>2022-03-02T11:56:05.917Z</time>
      </trkpt>
      <trkpt lat="42.1009" lon="25.24925">
        <ele>170.73102</ele>
        <time>2022-03-02T11:56:08.918Z</time>
      </trkpt>
      <trkpt lat="42.10087" lon="25.24912">
        <ele>170.809727</ele>
        <time>2022-03-02T11:56:11.922Z</time>
      </trkpt>
      <trkpt lat="42.10084" lon="25.24898">
        <ele>170.890595</ele>
        <time>2022-03-02T11:56:14.933Z</time>
      </trkpt>
      <trkpt lat="42.1008" lon="25.24884">
        <ele>170.973589</ele>
        <time>2022-03-02T11:56:17.913Z</time>
      </trkpt>
      <trkpt lat="42.10077" lon="25.24869">
        <ele>171.059399</ele>
        <time>2022-03-02T11:56:20.913Z</time>
      </trkpt>
      <trkpt lat="42.10074" lon="25.24855">
        <ele>171.143027</ele>
        <time>2022-03-02T11:56:23.919Z</time>
      </trkpt>
      <trkpt lat="42.10071" lon="25.24841">
        <ele>171.225911</ele>
        <time>2022-03-02T11:56:26.926Z</time>
      </trkpt>
      <trkpt lat="42.10067" lon="25.24827">
        <ele>171.305797</ele>
        <time>2022-03-02T11:56:29.912Z</time>
      </trkpt>
      <trkpt lat="42.10064" lon="25.24814">
        <ele>171.381198</ele>
        <time>2022-03-02T11:56:32.937Z</time>
      </trkpt>
      <trkpt lat="42.10061" lon="25.24801">
        <ele>171.455004</ele>
        <time>2022-03-02T11:56:35.925Z</time>
      </trkpt>
      <trkpt lat="42.10058" lon="25.24787">
        <ele>171.535744</ele>
        <time>2022-03-02T11:56:38.938Z</time>
      </trkpt>
      <trkpt lat="42.10055" lon="25.24773">
        <ele>171.62056</ele>
        <time>2022-03-02T11:56:41.925Z</time>
      </trkpt>
      <trkpt lat="42.10052" lon="25.24759">
        <ele>171.69928</ele>
        <time>2022-03-02T11:56:44.923Z</time>
      </trkpt>
      <trkpt lat="42.10049" lon="25.24746">
        <ele>171.628215</ele>
        <time>2022-03-02T11:56:47.912Z</time>
      </trkpt>
      <trkpt lat="42.10046" lon="25.24731">
        <ele>171.525718</ele>
        <time>2022-03-02T11:56:50.934Z</time>
      </trkpt>
      <trkpt lat="42.10043" lon="25.24717">
        <ele>171.429781</ele>
        <time>2022-03-02T11:56:53.923Z</time>
      </trkpt>
      <trkpt lat="42.1004" lon="25.24704">
        <ele>171.337007</ele>
        <time>2022-03-02T11:56:56.922Z</time>
      </trkpt>
      <trkpt lat="42.10037" lon="25.2469">
        <ele>171.238244</ele>
        <time>2022-03-02T11:56:59.965Z</time>
      </trkpt>
      <trkpt lat="42.10033" lon="25.24676">
        <ele>171.136503</ele>
        <time>2022-03-02T11:57:02.923Z</time>
      </trkpt>
      <trkpt lat="42.1003" lon="25.24661">
        <ele>171.035921</ele>
        <time>2022-03-02T11:57:05.902Z</time>
      </trkpt>
      <trkpt lat="42.10026" lon="25.24647">
        <ele>170.935128</ele>
        <time>2022-03-02T11:57:08.931Z</time>
      </trkpt>
      <trkpt lat="42.10023" lon="25.24633">
        <ele>170.837644</ele>
        <time>2022-03-02T11:57:11.922Z</time>
      </trkpt>
      <trkpt lat="42.10019" lon="25.2462">
        <ele>170.742078</ele>
        <time>2022-03-02T11:57:14.955Z</time>
      </trkpt>
      <trkpt lat="42.10016" lon="25.24606">
        <ele>170.646141</ele>
        <time>2022-03-02T11:57:17.929Z</time>
      </trkpt>
      <trkpt lat="42.10013" lon="25.24592">
        <ele>170.551358</ele>
        <time>2022-03-02T11:57:20.896Z</time>
      </trkpt>
      <trkpt lat="42.1001" lon="25.24579">
        <ele>170.454939</ele>
        <time>2022-03-02T11:57:23.900Z</time>
      </trkpt>
      <trkpt lat="42.10006" lon="25.24564">
        <ele>170.353498</ele>
        <time>2022-03-02T11:57:26.929Z</time>
      </trkpt>
      <trkpt lat="42.10003" lon="25.24551">
        <ele>170.25638</ele>
        <time>2022-03-02T11:57:29.919Z</time>
      </trkpt>
      <trkpt lat="42.09999" lon="25.24537">
        <ele>170.159328</ele>
        <time>2022-03-02T11:57:32.914Z</time>
      </trkpt>
      <trkpt lat="42.09996" lon="25.24523">
        <ele>170.07521</ele>
        <time>2022-03-02T11:57:35.921Z</time>
      </trkpt>
      <trkpt lat="42.09993" lon="25.24509">
        <ele>170.033333</ele>
        <time>2022-03-02T11:57:38.950Z</time>
      </trkpt>
      <trkpt lat="42.0999" lon="25.24495">
        <ele>169.990128</ele>
        <time>2022-03-02T11:57:41.917Z</time>
      </trkpt>
      <trkpt lat="42.09987" lon="25.2448">
        <ele>169.945756</ele>
        <time>2022-03-02T11:57:44.927Z</time>
      </trkpt>
      <trkpt lat="42.09983" lon="25.24466">
        <ele>169.90308</ele>
        <time>2022-03-02T11:57:47.913Z</time>
      </trkpt>
      <trkpt lat="42.0998" lon="25.24453">
        <ele>169.860966</ele>
        <time>2022-03-02T11:57:50.927Z</time>
      </trkpt>
      <trkpt lat="42.09976" lon="25.24439">
        <ele>169.818813</ele>
        <time>2022-03-02T11:57:53.911Z</time>
      </trkpt>
      <trkpt lat="42.09973" lon="25.24425">
        <ele>169.778282</ele>
        <time>2022-03-02T11:57:56.920Z</time>
      </trkpt>
      <trkpt lat="42.0997" lon="25.24411">
        <ele>169.734131</ele>
        <time>2022-03-02T11:57:59.912Z</time>
      </trkpt>
      <trkpt lat="42.09967" lon="25.24396">
        <ele>169.689981</ele>
        <time>2022-03-02T11:58:02.926Z</time>
      </trkpt>
      <trkpt lat="42.09964" lon="25.24382">
        <ele>169.646881</ele>
        <time>2022-03-02T11:58:05.909Z</time>
      </trkpt>
      <trkpt lat="42.09961" lon="25.24368">
        <ele>169.605181</ele>
        <time>2022-03-02T11:58:08.926Z</time>
      </trkpt>
      <trkpt lat="42.09958" lon="25.24354">
        <ele>169.563182</ele>
        <time>2022-03-02T11:58:11.966Z</time>
      </trkpt>
      <trkpt lat="42.09955" lon="25.24341">
        <ele>169.520984</ele>
        <time>2022-03-02T11:58:14.922Z</time>
      </trkpt>
      <trkpt lat="42.09952" lon="25.24327">
        <ele>169.478507</ele>
        <time>2022-03-02T11:58:17.951Z</time>
      </trkpt>
      <trkpt lat="42.09949" lon="25.24313">
        <ele>169.438038</ele>
        <time>2022-03-02T11:58:20.913Z</time>
      </trkpt>
      <trkpt lat="42.09946" lon="25.24299">
        <ele>169.396788</ele>
        <time>2022-03-02T11:58:23.954Z</time>
      </trkpt>
      <trkpt lat="42.09944" lon="25.24286">
        <ele>169.681478</ele>
        <time>2022-03-02T11:58:26.937Z</time>
      </trkpt>
      <trkpt lat="42.09942" lon="25.24272">
        <ele>170.145266</ele>
        <time>2022-03-02T11:58:29.922Z</time>
      </trkpt>
      <trkpt lat="42.0994" lon="25.24257">
        <ele>170.623498</ele>
        <time>2022-03-02T11:58:32.901Z</time>
      </trkpt>
      <trkpt lat="42.09937" lon="25.24243">
        <ele>171.087586</ele>
        <time>2022-03-02T11:58:35.959Z</time>
      </trkpt>
      <trkpt lat="42.09935" lon="25.24229">
        <ele>171.558037</ele>
        <time>2022-03-02T11:58:38.927Z</time>
      </trkpt>
      <trkpt lat="42.09932" lon="25.24215">
        <ele>172.039986</ele>
        <time>2022-03-02T11:58:41.909Z</time>
      </trkpt>
      <trkpt lat="42.09929" lon="25.24202">
        <ele>172.469885</ele>
        <time>2022-03-02T11:58:44.906Z</time>
      </trkpt>
      <trkpt lat="42.09927" lon="25.24186">
        <ele>172.998627</ele>
        <time>2022-03-02T11:58:48.918Z</time>
      </trkpt>
      <trkpt lat="42.09925" lon="25.24173">
        <ele>173.435176</ele>
        <time>2022-03-02T11:58:51.916Z</time>
      </trkpt>
      <trkpt lat="42.09923" lon="25.2416">
        <ele>173.877397</ele>
        <time>2022-03-02T11:58:54.929Z</time>
      </trkpt>
      <trkpt lat="42.0992" lon="25.24146">
        <ele>174.355167</ele>
        <time>2022-03-02T11:58:57.917Z</time>
      </trkpt>
      <trkpt lat="42.09918" lon="25.24132">
        <ele>174.829758</ele>
        <time>2022-03-02T11:59:00.935Z</time>
      </trkpt>
      <trkpt lat="42.09916" lon="25.24117">
        <ele>175.307528</ele>
        <time>2022-03-02T11:59:03.920Z</time>
      </trkpt>
      <trkpt lat="42.09914" lon="25.24103">
        <ele>175.77853</ele>
        <time>2022-03-02T11:59:06.931Z</time>
      </trkpt>
      <trkpt lat="42.09911" lon="25.24088">
        <ele>176.26994</ele>
        <time>2022-03-02T11:59:09.962Z</time>
      </trkpt>
      <trkpt lat="42.09909" lon="25.24075">
        <ele>176.72122</ele>
        <time>2022-03-02T11:59:12.905Z</time>
      </trkpt>
      <trkpt lat="42.09907" lon="25.24062">
        <ele>177.144297</ele>
        <time>2022-03-02T11:59:15.929Z</time>
      </trkpt>
      <trkpt lat="42.09905" lon="25.24048">
        <ele>177.27357</ele>
        <time>2022-03-02T11:59:18.914Z</time>
      </trkpt>
      <trkpt lat="42.09903" lon="25.24034">
        <ele>177.261778</ele>
        <time>2022-03-02T11:59:21.974Z</time>
      </trkpt>
      <trkpt lat="42.09901" lon="25.24019">
        <ele>177.250278</ele>
        <time>2022-03-02T11:59:24.940Z</time>
      </trkpt>
      <trkpt lat="42.09898" lon="25.24006">
        <ele>177.239457</ele>
        <time>2022-03-02T11:59:27.922Z</time>
      </trkpt>
      <trkpt lat="42.09896" lon="25.23992">
        <ele>177.228122</ele>
        <time>2022-03-02T11:59:30.922Z</time>
      </trkpt>
      <trkpt lat="42.09894" lon="25.23978">
        <ele>177.216154</ele>
        <time>2022-03-02T11:59:33.928Z</time>
      </trkpt>
      <trkpt lat="42.09891" lon="25.23964">
        <ele>177.205326</ele>
        <time>2022-03-02T11:59:36.921Z</time>
      </trkpt>
      <trkpt lat="42.09888" lon="25.23952">
        <ele>177.19462</ele>
        <time>2022-03-02T11:59:39.902Z</time>
      </trkpt>
      <trkpt lat="42.09885" lon="25.23939">
        <ele>177.18403</ele>
        <time>2022-03-02T11:59:42.921Z</time>
      </trkpt>
      <trkpt lat="42.09883" lon="25.23925">
        <ele>177.17321</ele>
        <time>2022-03-02T11:59:45.921Z</time>
      </trkpt>
      <trkpt lat="42.09881" lon="25.23913">
        <ele>177.162852</ele>
        <time>2022-03-02T11:59:48.914Z</time>
      </trkpt>
      <trkpt lat="42.09879" lon="25.23899">
        <ele>177.151946</ele>
        <time>2022-03-02T11:59:51.923Z</time>
      </trkpt>
      <trkpt lat="42.09877" lon="25.23885">
        <ele>177.140659</ele>
        <time>2022-03-02T11:59:54.954Z</time>
      </trkpt>
      <trkpt lat="42.09874" lon="25.23871">
        <ele>177.129003</ele>
        <time>2022-03-02T11:59:57.922Z</time>
      </trkpt>
      <trkpt lat="42.09874" lon="25.23856">
        <ele>177.117008</ele>
        <time>2022-03-02T12:00:00.918Z</time>
      </trkpt>
      <trkpt lat="42.09874" lon="25.23842">
        <ele>177.105637</ele>
        <time>2022-03-02T12:00:03.924Z</time>
      </trkpt>
      <trkpt lat="42.09872" lon="25.23826">
        <ele>177.093201</ele>
        <time>2022-03-02T12:00:06.938Z</time>
      </trkpt>
      <trkpt lat="42.09869" lon="25.2381">
        <ele>177.205169</ele>
        <time>2022-03-02T12:00:09.921Z</time>
      </trkpt>
      <trkpt lat="42.09867" lon="25.23796">
        <ele>177.366173</ele>
        <time>2022-03-02T12:00:12.929Z</time>
      </trkpt>
      <trkpt lat="42.09865" lon="25.23782">
        <ele>177.518062</ele>
        <time>2022-03-02T12:00:15.945Z</time>
      </trkpt>
      <trkpt lat="42.09863" lon="25.23769">
        <ele>177.651771</ele>
        <time>2022-03-02T12:00:18.933Z</time>
      </trkpt>
      <trkpt lat="42.09862" lon="25.23757">
        <ele>177.78261</ele>
        <time>2022-03-02T12:00:21.951Z</time>
      </trkpt>
      <trkpt lat="42.0986" lon="25.23745">
        <ele>177.918946</ele>
        <time>2022-03-02T12:00:24.933Z</time>
      </trkpt>
      <trkpt lat="42.09857" lon="25.23732">
        <ele>178.057959</ele>
        <time>2022-03-02T12:00:27.943Z</time>
      </trkpt>
      <trkpt lat="42.09854" lon="25.23718">
        <ele>178.2193</ele>
        <time>2022-03-02T12:00:30.918Z</time>
      </trkpt>
      <trkpt lat="42.09851" lon="25.23703">
        <ele>178.384307</ele>
        <time>2022-03-02T12:00:33.914Z</time>
      </trkpt>
      <trkpt lat="42.09849" lon="25.23689">
        <ele>178.537976</ele>
        <time>2022-03-02T12:00:36.919Z</time>
      </trkpt>
      <trkpt lat="42.09847" lon="25.23674">
        <ele>178.695074</ele>
        <time>2022-03-02T12:00:39.925Z</time>
      </trkpt>
      <trkpt lat="42.09844" lon="25.23661">
        <ele>178.841445</ele>
        <time>2022-03-02T12:00:42.949Z</time>
      </trkpt>
      <trkpt lat="42.09842" lon="25.23648">
        <ele>178.988134</ele>
        <time>2022-03-02T12:00:45.921Z</time>
      </trkpt>
      <trkpt lat="42.0984" lon="25.23634">
        <ele>179.135862</ele>
        <time>2022-03-02T12:00:48.928Z</time>
      </trkpt>
      <trkpt lat="42.09837" lon="25.23621">
        <ele>179.281259</ele>
        <time>2022-03-02T12:00:51.929Z</time>
      </trkpt>
      <trkpt lat="42.09835" lon="25.23608">
        <ele>179.421526</ele>
        <time>2022-03-02T12:00:54.951Z</time>
      </trkpt>
      <trkpt lat="42.09833" lon="25.23595">
        <ele>179.565464</ele>
        <time>2022-03-02T12:00:57.921Z</time>
      </trkpt>
      <trkpt lat="42.09831" lon="25.2358">
        <ele>179.776988</ele>
        <time>2022-03-02T12:01:00.962Z</time>
      </trkpt>
      <trkpt lat="42.09828" lon="25.23566">
        <ele>180.093122</ele>
        <time>2022-03-02T12:01:03.932Z</time>
      </trkpt>
      <trkpt lat="42.09826" lon="25.23553">
        <ele>180.385226</ele>
        <time>2022-03-02T12:01:06.904Z</time>
      </trkpt>
      <trkpt lat="42.09823" lon="25.23538">
        <ele>180.726584</ele>
        <time>2022-03-02T12:01:09.944Z</time>
      </trkpt>
      <trkpt lat="42.0982" lon="25.23522">
        <ele>181.082395</ele>
        <time>2022-03-02T12:01:12.928Z</time>
      </trkpt>
      <trkpt lat="42.09818" lon="25.23508">
        <ele>181.398326</ele>
        <time>2022-03-02T12:01:15.920Z</time>
      </trkpt>
      <trkpt lat="42.09816" lon="25.23495">
        <ele>181.692031</ele>
        <time>2022-03-02T12:01:18.915Z</time>
      </trkpt>
      <trkpt lat="42.09813" lon="25.23481">
        <ele>182.007856</ele>
        <time>2022-03-02T12:01:21.921Z</time>
      </trkpt>
      <trkpt lat="42.09811" lon="25.23467">
        <ele>182.329393</ele>
        <time>2022-03-02T12:01:24.925Z</time>
      </trkpt>
      <trkpt lat="42.09807" lon="25.23455">
        <ele>182.61562</ele>
        <time>2022-03-02T12:01:27.922Z</time>
      </trkpt>
      <trkpt lat="42.09805" lon="25.23442">
        <ele>182.906775</ele>
        <time>2022-03-02T12:01:30.910Z</time>
      </trkpt>
      <trkpt lat="42.09803" lon="25.23428">
        <ele>183.219945</ele>
        <time>2022-03-02T12:01:33.913Z</time>
      </trkpt>
      <trkpt lat="42.098" lon="25.23413">
        <ele>183.548523</ele>
        <time>2022-03-02T12:01:36.917Z</time>
      </trkpt>
      <trkpt lat="42.09799" lon="25.234">
        <ele>183.830427</ele>
        <time>2022-03-02T12:01:39.928Z</time>
      </trkpt>
      <trkpt lat="42.09797" lon="25.23388">
        <ele>184.098347</ele>
        <time>2022-03-02T12:01:42.914Z</time>
      </trkpt>
      <trkpt lat="42.09794" lon="25.23377">
        <ele>184.368576</ele>
        <time>2022-03-02T12:01:45.919Z</time>
      </trkpt>
      <trkpt lat="42.09791" lon="25.23363">
        <ele>184.679629</ele>
        <time>2022-03-02T12:01:48.913Z</time>
      </trkpt>
      <trkpt lat="42.09789" lon="25.23347">
        <ele>184.918567</ele>
        <time>2022-03-02T12:01:51.920Z</time>
      </trkpt>
      <trkpt lat="42.09786" lon="25.23331">
        <ele>184.562661</ele>
        <time>2022-03-02T12:01:54.928Z</time>
      </trkpt>
      <trkpt lat="42.09782" lon="25.23314">
        <ele>184.189206</ele>
        <time>2022-03-02T12:01:57.925Z</time>
      </trkpt>
      <trkpt lat="42.09779" lon="25.233">
        <ele>183.875414</ele>
        <time>2022-03-02T12:02:00.920Z</time>
      </trkpt>
      <trkpt lat="42.09777" lon="25.23285">
        <ele>183.559334</ele>
        <time>2022-03-02T12:02:03.921Z</time>
      </trkpt>
      <trkpt lat="42.09775" lon="25.23271">
        <ele>183.255883</ele>
        <time>2022-03-02T12:02:06.918Z</time>
      </trkpt>
      <trkpt lat="42.09773" lon="25.23258">
        <ele>182.971116</ele>
        <time>2022-03-02T12:02:09.940Z</time>
      </trkpt>
      <trkpt lat="42.09771" lon="25.23245">
        <ele>182.686348</ele>
        <time>2022-03-02T12:02:12.910Z</time>
      </trkpt>
      <trkpt lat="42.09769" lon="25.23232">
        <ele>182.395331</ele>
        <time>2022-03-02T12:02:15.922Z</time>
      </trkpt>
      <trkpt lat="42.09766" lon="25.23219">
        <ele>182.107831</ele>
        <time>2022-03-02T12:02:18.932Z</time>
      </trkpt>
      <trkpt lat="42.09764" lon="25.23206">
        <ele>181.820981</ele>
        <time>2022-03-02T12:02:21.923Z</time>
      </trkpt>
      <trkpt lat="42.09762" lon="25.23193">
        <ele>181.547295</ele>
        <time>2022-03-02T12:02:24.915Z</time>
      </trkpt>
      <trkpt lat="42.0976" lon="25.2318">
        <ele>181.26166</ele>
        <time>2022-03-02T12:02:27.935Z</time>
      </trkpt>
      <trkpt lat="42.09757" lon="25.23168">
        <ele>180.987234</ele>
        <time>2022-03-02T12:02:30.952Z</time>
      </trkpt>
      <trkpt lat="42.09753" lon="25.23154">
        <ele>180.673475</ele>
        <time>2022-03-02T12:02:33.920Z</time>
      </trkpt>
      <trkpt lat="42.09748" lon="25.23141">
        <ele>180.349908</ele>
        <time>2022-03-02T12:02:36.938Z</time>
      </trkpt>
      <trkpt lat="42.09747" lon="25.23127">
        <ele>180.047387</ele>
        <time>2022-03-02T12:02:39.923Z</time>
      </trkpt>
      <trkpt lat="42.09745" lon="25.23114">
        <ele>179.8074</ele>
        <time>2022-03-02T12:02:42.960Z</time>
      </trkpt>
      <trkpt lat="42.09742" lon="25.23101">
        <ele>179.872958</ele>
        <time>2022-03-02T12:02:45.925Z</time>
      </trkpt>
      <trkpt lat="42.0974" lon="25.23087">
        <ele>179.940104</ele>
        <time>2022-03-02T12:02:48.924Z</time>
      </trkpt>
      <trkpt lat="42.09738" lon="25.23074">
        <ele>180.003138</ele>
        <time>2022-03-02T12:02:51.972Z</time>
      </trkpt>
      <trkpt lat="42.09736" lon="25.23061">
        <ele>180.064555</ele>
        <time>2022-03-02T12:02:54.921Z</time>
      </trkpt>
      <trkpt lat="42.09734" lon="25.23047">
        <ele>180.133508</ele>
        <time>2022-03-02T12:02:57.924Z</time>
      </trkpt>
      <trkpt lat="42.09732" lon="25.23033">
        <ele>180.204519</ele>
        <time>2022-03-02T12:03:00.917Z</time>
      </trkpt>
      <trkpt lat="42.0973" lon="25.23018">
        <ele>180.27447</ele>
        <time>2022-03-02T12:03:03.914Z</time>
      </trkpt>
      <trkpt lat="42.09728" lon="25.23005">
        <ele>180.34086</ele>
        <time>2022-03-02T12:03:06.941Z</time>
      </trkpt>
      <trkpt lat="42.09726" lon="25.2299">
        <ele>180.41315</ele>
        <time>2022-03-02T12:03:09.909Z</time>
      </trkpt>
      <trkpt lat="42.09724" lon="25.22974">
        <ele>180.48861</ele>
        <time>2022-03-02T12:03:12.907Z</time>
      </trkpt>
      <trkpt lat="42.09721" lon="25.22958">
        <ele>180.566048</ele>
        <time>2022-03-02T12:03:15.908Z</time>
      </trkpt>
      <trkpt lat="42.09719" lon="25.22944">
        <ele>180.633662</ele>
        <time>2022-03-02T12:03:18.943Z</time>
      </trkpt>
      <trkpt lat="42.09717" lon="25.22932">
        <ele>180.694947</ele>
        <time>2022-03-02T12:03:21.929Z</time>
      </trkpt>
      <trkpt lat="42.09714" lon="25.22919">
        <ele>180.759385</ele>
        <time>2022-03-02T12:03:24.929Z</time>
      </trkpt>
      <trkpt lat="42.09711" lon="25.22905">
        <ele>180.830253</ele>
        <time>2022-03-02T12:03:27.926Z</time>
      </trkpt>
      <trkpt lat="42.09708" lon="25.22891">
        <ele>180.897657</ele>
        <time>2022-03-02T12:03:30.942Z</time>
      </trkpt>
      <trkpt lat="42.09706" lon="25.22877">
        <ele>180.962655</ele>
        <time>2022-03-02T12:03:33.917Z</time>
      </trkpt>
      <trkpt lat="42.09704" lon="25.22863">
        <ele>181.016413</ele>
        <time>2022-03-02T12:03:36.940Z</time>
      </trkpt>
      <trkpt lat="42.09702" lon="25.22847">
        <ele>181.073685</ele>
        <time>2022-03-02T12:03:39.925Z</time>
      </trkpt>
      <trkpt lat="42.09699" lon="25.22832">
        <ele>181.128203</ele>
        <time>2022-03-02T12:03:42.915Z</time>
      </trkpt>
      <trkpt lat="42.09697" lon="25.22818">
        <ele>181.181336</ele>
        <time>2022-03-02T12:03:45.946Z</time>
      </trkpt>
      <trkpt lat="42.09695" lon="25.22803">
        <ele>181.233589</ele>
        <time>2022-03-02T12:03:48.928Z</time>
      </trkpt>
      <trkpt lat="42.09693" lon="25.22789">
        <ele>181.284535</ele>
        <time>2022-03-02T12:03:51.920Z</time>
      </trkpt>
      <trkpt lat="42.09691" lon="25.22776">
        <ele>181.33443</ele>
        <time>2022-03-02T12:03:54.931Z</time>
      </trkpt>
      <trkpt lat="42.09688" lon="25.22762">
        <ele>181.386281</ele>
        <time>2022-03-02T12:03:57.924Z</time>
      </trkpt>
      <trkpt lat="42.09686" lon="25.22748">
        <ele>181.438012</ele>
        <time>2022-03-02T12:04:00.917Z</time>
      </trkpt>
      <trkpt lat="42.09683" lon="25.22735">
        <ele>181.486615</ele>
        <time>2022-03-02T12:04:03.934Z</time>
      </trkpt>
      <trkpt lat="42.09681" lon="25.22721">
        <ele>181.536615</ele>
        <time>2022-03-02T12:04:06.924Z</time>
      </trkpt>
      <trkpt lat="42.09678" lon="25.22707">
        <ele>181.58916</ele>
        <time>2022-03-02T12:04:09.921Z</time>
      </trkpt>
      <trkpt lat="42.09676" lon="25.22692">
        <ele>181.642284</ele>
        <time>2022-03-02T12:04:12.906Z</time>
      </trkpt>
      <trkpt lat="42.09673" lon="25.22677">
        <ele>181.700296</ele>
        <time>2022-03-02T12:04:16.911Z</time>
      </trkpt>
      <trkpt lat="42.09671" lon="25.22663">
        <ele>181.748939</ele>
        <time>2022-03-02T12:04:19.912Z</time>
      </trkpt>
      <trkpt lat="42.09669" lon="25.22649">
        <ele>181.800587</ele>
        <time>2022-03-02T12:04:22.902Z</time>
      </trkpt>
      <trkpt lat="42.09667" lon="25.22635">
        <ele>181.926441</ele>
        <time>2022-03-02T12:04:25.912Z</time>
      </trkpt>
      <trkpt lat="42.09664" lon="25.22622">
        <ele>182.126851</ele>
        <time>2022-03-02T12:04:28.933Z</time>
      </trkpt>
      <trkpt lat="42.09661" lon="25.22607">
        <ele>182.351411</ele>
        <time>2022-03-02T12:04:31.914Z</time>
      </trkpt>
      <trkpt lat="42.09658" lon="25.22593">
        <ele>182.570223</ele>
        <time>2022-03-02T12:04:34.904Z</time>
      </trkpt>
      <trkpt lat="42.09656" lon="25.2258">
        <ele>182.766388</ele>
        <time>2022-03-02T12:04:37.907Z</time>
      </trkpt>
      <trkpt lat="42.09654" lon="25.22567">
        <ele>182.952999</ele>
        <time>2022-03-02T12:04:40.901Z</time>
      </trkpt>
      <trkpt lat="42.09652" lon="25.22554">
        <ele>183.147322</ele>
        <time>2022-03-02T12:04:43.912Z</time>
      </trkpt>
      <trkpt lat="42.09649" lon="25.22541">
        <ele>183.354991</ele>
        <time>2022-03-02T12:04:46.905Z</time>
      </trkpt>
      <trkpt lat="42.09647" lon="25.22527">
        <ele>183.558726</ele>
        <time>2022-03-02T12:04:49.906Z</time>
      </trkpt>
      <trkpt lat="42.09645" lon="25.22514">
        <ele>183.755316</ele>
        <time>2022-03-02T12:04:52.915Z</time>
      </trkpt>
      <trkpt lat="42.09642" lon="25.22502">
        <ele>183.934081</ele>
        <time>2022-03-02T12:04:55.939Z</time>
      </trkpt>
      <trkpt lat="42.09639" lon="25.2249">
        <ele>184.126239</ele>
        <time>2022-03-02T12:04:58.913Z</time>
      </trkpt>
      <trkpt lat="42.09637" lon="25.22477">
        <ele>184.325559</ele>
        <time>2022-03-02T12:05:01.942Z</time>
      </trkpt>
      <trkpt lat="42.09635" lon="25.22462">
        <ele>184.546518</ele>
        <time>2022-03-02T12:05:04.922Z</time>
      </trkpt>
      <trkpt lat="42.09632" lon="25.22448">
        <ele>184.761573</ele>
        <time>2022-03-02T12:05:07.910Z</time>
      </trkpt>
      <trkpt lat="42.0963" lon="25.22432">
        <ele>184.996036</ele>
        <time>2022-03-02T12:05:10.918Z</time>
      </trkpt>
      <trkpt lat="42.09628" lon="25.22417">
        <ele>185.209812</ele>
        <time>2022-03-02T12:05:13.920Z</time>
      </trkpt>
      <trkpt lat="42.09626" lon="25.22404">
        <ele>185.355677</ele>
        <time>2022-03-02T12:05:16.908Z</time>
      </trkpt>
      <trkpt lat="42.09624" lon="25.22391">
        <ele>185.238518</ele>
        <time>2022-03-02T12:05:19.919Z</time>
      </trkpt>
      <trkpt lat="42.09621" lon="25.22377">
        <ele>185.10561</ele>
        <time>2022-03-02T12:05:22.943Z</time>
      </trkpt>
      <trkpt lat="42.09619" lon="25.22362">
        <ele>184.980743</ele>
        <time>2022-03-02T12:05:25.915Z</time>
      </trkpt>
      <trkpt lat="42.09617" lon="25.22348">
        <ele>184.850125</ele>
        <time>2022-03-02T12:05:28.939Z</time>
      </trkpt>
      <trkpt lat="42.09615" lon="25.22334">
        <ele>184.729026</ele>
        <time>2022-03-02T12:05:31.906Z</time>
      </trkpt>
      <trkpt lat="42.09614" lon="25.22321">
        <ele>184.615828</ele>
        <time>2022-03-02T12:05:34.900Z</time>
      </trkpt>
      <trkpt lat="42.09611" lon="25.22308">
        <ele>184.495267</ele>
        <time>2022-03-02T12:05:37.906Z</time>
      </trkpt>
      <trkpt lat="42.09607" lon="25.22294">
        <ele>184.371102</ele>
        <time>2022-03-02T12:05:40.908Z</time>
      </trkpt>
      <trkpt lat="42.09605" lon="25.22279">
        <ele>184.239193</ele>
        <time>2022-03-02T12:05:43.915Z</time>
      </trkpt>
      <trkpt lat="42.09603" lon="25.22264">
        <ele>184.107402</ele>
        <time>2022-03-02T12:05:46.907Z</time>
      </trkpt>
      <trkpt lat="42.09601" lon="25.22251">
        <ele>183.987243</ele>
        <time>2022-03-02T12:05:49.915Z</time>
      </trkpt>
      <trkpt lat="42.09598" lon="25.22236">
        <ele>183.855706</ele>
        <time>2022-03-02T12:05:52.911Z</time>
      </trkpt>
      <trkpt lat="42.09596" lon="25.22221">
        <ele>183.725339</ele>
        <time>2022-03-02T12:05:55.908Z</time>
      </trkpt>
      <trkpt lat="42.09594" lon="25.22207">
        <ele>183.597492</ele>
        <time>2022-03-02T12:05:58.910Z</time>
      </trkpt>
      <trkpt lat="42.09593" lon="25.22192">
        <ele>183.4718</ele>
        <time>2022-03-02T12:06:01.906Z</time>
      </trkpt>
      <trkpt lat="42.0959" lon="25.22177">
        <ele>183.336094</ele>
        <time>2022-03-02T12:06:04.937Z</time>
      </trkpt>
      <trkpt lat="42.09588" lon="25.22162">
        <ele>183.352093</ele>
        <time>2022-03-02T12:06:07.906Z</time>
      </trkpt>
      <trkpt lat="42.09585" lon="25.22147">
        <ele>183.510069</ele>
        <time>2022-03-02T12:06:10.908Z</time>
      </trkpt>
      <trkpt lat="42.09582" lon="25.22132">
        <ele>183.65881</ele>
        <time>2022-03-02T12:06:13.909Z</time>
      </trkpt>
      <trkpt lat="42.0958" lon="25.22119">
        <ele>183.796406</ele>
        <time>2022-03-02T12:06:16.896Z</time>
      </trkpt>
      <trkpt lat="42.09577" lon="25.22106">
        <ele>183.936686</ele>
        <time>2022-03-02T12:06:19.906Z</time>
      </trkpt>
      <trkpt lat="42.09574" lon="25.22092">
        <ele>184.087065</ele>
        <time>2022-03-02T12:06:22.919Z</time>
      </trkpt>
      <trkpt lat="42.09572" lon="25.22077">
        <ele>184.240222</ele>
        <time>2022-03-02T12:06:25.942Z</time>
      </trkpt>
      <trkpt lat="42.0957" lon="25.22062">
        <ele>184.397629</ele>
        <time>2022-03-02T12:06:28.921Z</time>
      </trkpt>
      <trkpt lat="42.09567" lon="25.22048">
        <ele>184.543741</ele>
        <time>2022-03-02T12:06:31.942Z</time>
      </trkpt>
      <trkpt lat="42.09565" lon="25.22034">
        <ele>184.682709</ele>
        <time>2022-03-02T12:06:34.907Z</time>
      </trkpt>
      <trkpt lat="42.09563" lon="25.22022">
        <ele>184.810434</ele>
        <time>2022-03-02T12:06:37.902Z</time>
      </trkpt>
      <trkpt lat="42.09561" lon="25.2201">
        <ele>184.934241</ele>
        <time>2022-03-02T12:06:40.908Z</time>
      </trkpt>
      <trkpt lat="42.09559" lon="25.21998">
        <ele>185.061723</ele>
        <time>2022-03-02T12:06:43.907Z</time>
      </trkpt>
      <trkpt lat="42.09558" lon="25.21984">
        <ele>185.206458</ele>
        <time>2022-03-02T12:06:46.972Z</time>
      </trkpt>
      <trkpt lat="42.09555" lon="25.21969">
        <ele>185.355224</ele>
        <time>2022-03-02T12:06:49.916Z</time>
      </trkpt>
      <trkpt lat="42.09553" lon="25.21955">
        <ele>185.500886</ele>
        <time>2022-03-02T12:06:52.948Z</time>
      </trkpt>
      <trkpt lat="42.09551" lon="25.21942">
        <ele>185.645026</ele>
        <time>2022-03-02T12:06:55.911Z</time>
      </trkpt>
      <trkpt lat="42.09548" lon="25.21928">
        <ele>185.780519</ele>
        <time>2022-03-02T12:06:58.938Z</time>
      </trkpt>
      <trkpt lat="42.09545" lon="25.21916">
        <ele>185.89902</ele>
        <time>2022-03-02T12:07:01.930Z</time>
      </trkpt>
      <trkpt lat="42.09546" lon="25.21903">
        <ele>186.022201</ele>
        <time>2022-03-02T12:07:06.937Z</time>
      </trkpt>
      <trkpt lat="42.09551" lon="25.21891">
        <ele>186.149488</ele>
        <time>2022-03-02T12:07:12.940Z</time>
      </trkpt>
      <trkpt lat="42.09548" lon="25.21879">
        <ele>186.268449</ele>
        <time>2022-03-02T12:07:16.955Z</time>
      </trkpt>
      <trkpt lat="42.09543" lon="25.21868">
        <ele>186.388779</ele>
        <time>2022-03-02T12:07:19.987Z</time>
      </trkpt>
      <trkpt lat="42.09538" lon="25.21857">
        <ele>186.509035</ele>
        <time>2022-03-02T12:07:22.924Z</time>
      </trkpt>
      <trkpt lat="42.09532" lon="25.21847">
        <ele>186.628443</ele>
        <time>2022-03-02T12:07:25.902Z</time>
      </trkpt>
      <trkpt lat="42.09526" lon="25.21837">
        <ele>186.750187</ele>
        <time>2022-03-02T12:07:28.922Z</time>
      </trkpt>
      <trkpt lat="42.0952" lon="25.21826">
        <ele>186.87489</ele>
        <time>2022-03-02T12:07:31.945Z</time>
      </trkpt>
      <trkpt lat="42.09513" lon="25.21815">
        <ele>187.006997</ele>
        <time>2022-03-02T12:07:34.958Z</time>
      </trkpt>
      <trkpt lat="42.09507" lon="25.21803">
        <ele>187.141339</ele>
        <time>2022-03-02T12:07:37.931Z</time>
      </trkpt>
      <trkpt lat="42.095" lon="25.21791">
        <ele>187.28836</ele>
        <time>2022-03-02T12:07:40.961Z</time>
      </trkpt>
      <trkpt lat="42.09493" lon="25.2178">
        <ele>187.41483</ele>
        <time>2022-03-02T12:07:43.913Z</time>
      </trkpt>
      <trkpt lat="42.09487" lon="25.21769">
        <ele>187.547678</ele>
        <time>2022-03-02T12:07:46.910Z</time>
      </trkpt>
      <trkpt lat="42.09479" lon="25.21756">
        <ele>187.706683</ele>
        <time>2022-03-02T12:07:49.927Z</time>
      </trkpt>
      <trkpt lat="42.09472" lon="25.21743">
        <ele>187.850821</ele>
        <time>2022-03-02T12:07:52.922Z</time>
      </trkpt>
      <trkpt lat="42.09465" lon="25.21732">
        <ele>187.982913</ele>
        <time>2022-03-02T12:07:55.931Z</time>
      </trkpt>
      <trkpt lat="42.09457" lon="25.21721">
        <ele>187.999624</ele>
        <time>2022-03-02T12:07:58.911Z</time>
      </trkpt>
      <trkpt lat="42.0945" lon="25.21709">
        <ele>188.016318</ele>
        <time>2022-03-02T12:08:01.921Z</time>
      </trkpt>
      <trkpt lat="42.09442" lon="25.21698">
        <ele>188.033675</ele>
        <time>2022-03-02T12:08:04.952Z</time>
      </trkpt>
      <trkpt lat="42.09433" lon="25.21687">
        <ele>188.051043</ele>
        <time>2022-03-02T12:08:07.925Z</time>
      </trkpt>
      <trkpt lat="42.09425" lon="25.21677">
        <ele>188.067065</ele>
        <time>2022-03-02T12:08:10.945Z</time>
      </trkpt>
      <trkpt lat="42.09418" lon="25.21667">
        <ele>188.082933</ele>
        <time>2022-03-02T12:08:13.912Z</time>
      </trkpt>
      <trkpt lat="42.09411" lon="25.21656">
        <ele>188.098394</ele>
        <time>2022-03-02T12:08:16.960Z</time>
      </trkpt>
      <trkpt lat="42.09404" lon="25.21645">
        <ele>188.115028</ele>
        <time>2022-03-02T12:08:19.927Z</time>
      </trkpt>
      <trkpt lat="42.09397" lon="25.21633">
        <ele>188.131671</ele>
        <time>2022-03-02T12:08:22.925Z</time>
      </trkpt>
      <trkpt lat="42.09389" lon="25.21621">
        <ele>188.149667</ele>
        <time>2022-03-02T12:08:25.932Z</time>
      </trkpt>
      <trkpt lat="42.09381" lon="25.2161">
        <ele>188.166548</ele>
        <time>2022-03-02T12:08:28.916Z</time>
      </trkpt>
      <trkpt lat="42.09374" lon="25.21599">
        <ele>188.182601</ele>
        <time>2022-03-02T12:08:31.941Z</time>
      </trkpt>
      <trkpt lat="42.09367" lon="25.21585">
        <ele>188.200302</ele>
        <time>2022-03-02T12:08:34.925Z</time>
      </trkpt>
      <trkpt lat="42.09361" lon="25.21572">
        <ele>188.217612</ele>
        <time>2022-03-02T12:08:37.916Z</time>
      </trkpt>
      <trkpt lat="42.09354" lon="25.2156">
        <ele>188.234148</ele>
        <time>2022-03-02T12:08:40.982Z</time>
      </trkpt>
      <trkpt lat="42.09347" lon="25.21548">
        <ele>188.200481</ele>
        <time>2022-03-02T12:08:43.905Z</time>
      </trkpt>
      <trkpt lat="42.09339" lon="25.21537">
        <ele>187.82293</ele>
        <time>2022-03-02T12:08:46.911Z</time>
      </trkpt>
      <trkpt lat="42.09331" lon="25.21526">
        <ele>187.457841</ele>
        <time>2022-03-02T12:08:49.960Z</time>
      </trkpt>
      <trkpt lat="42.09325" lon="25.21513">
        <ele>187.095092</ele>
        <time>2022-03-02T12:08:52.911Z</time>
      </trkpt>
      <trkpt lat="42.09318" lon="25.21502">
        <ele>186.741967</ele>
        <time>2022-03-02T12:08:55.905Z</time>
      </trkpt>
      <trkpt lat="42.09311" lon="25.2149">
        <ele>186.379185</ele>
        <time>2022-03-02T12:08:58.934Z</time>
      </trkpt>
      <trkpt lat="42.09304" lon="25.21478">
        <ele>186.006527</ele>
        <time>2022-03-02T12:09:01.978Z</time>
      </trkpt>
      <trkpt lat="42.09297" lon="25.21466">
        <ele>185.654688</ele>
        <time>2022-03-02T12:09:04.920Z</time>
      </trkpt>
      <trkpt lat="42.09294" lon="25.21453">
        <ele>185.319731</ele>
        <time>2022-03-02T12:09:07.914Z</time>
      </trkpt>
      <trkpt lat="42.09299" lon="25.21439">
        <ele>184.954898</ele>
        <time>2022-03-02T12:09:10.931Z</time>
      </trkpt>
      <trkpt lat="42.09305" lon="25.21428">
        <ele>184.610652</ele>
        <time>2022-03-02T12:09:13.980Z</time>
      </trkpt>
      <trkpt lat="42.09312" lon="25.21417">
        <ele>184.267123</ele>
        <time>2022-03-02T12:09:16.900Z</time>
      </trkpt>
      <trkpt lat="42.09317" lon="25.21404">
        <ele>183.917437</ele>
        <time>2022-03-02T12:09:19.922Z</time>
      </trkpt>
      <trkpt lat="42.09322" lon="25.21391">
        <ele>183.569238</ele>
        <time>2022-03-02T12:09:22.905Z</time>
      </trkpt>
      <trkpt lat="42.09327" lon="25.21378">
        <ele>183.203404</ele>
        <time>2022-03-02T12:09:25.926Z</time>
      </trkpt>
      <trkpt lat="42.09332" lon="25.21364">
        <ele>182.841226</ele>
        <time>2022-03-02T12:09:28.936Z</time>
      </trkpt>
      <trkpt lat="42.09336" lon="25.2135">
        <ele>182.476285</ele>
        <time>2022-03-02T12:09:31.933Z</time>
      </trkpt>
      <trkpt lat="42.09339" lon="25.21337">
        <ele>182.359405</ele>
        <time>2022-03-02T12:09:34.934Z</time>
      </trkpt>
      <trkpt lat="42.09342" lon="25.21324">
        <ele>182.283792</ele>
        <time>2022-03-02T12:09:37.925Z</time>
      </trkpt>
      <trkpt lat="42.09344" lon="25.2131">
        <ele>182.206161</ele>
        <time>2022-03-02T12:09:40.923Z</time>
      </trkpt>
      <trkpt lat="42.09345" lon="25.21294">
        <ele>182.119703</ele>
        <time>2022-03-02T12:09:43.912Z</time>
      </trkpt>
      <trkpt lat="42.09347" lon="25.21279">
        <ele>182.035624</ele>
        <time>2022-03-02T12:09:46.922Z</time>
      </trkpt>
      <trkpt lat="42.09347" lon="25.21263">
        <ele>181.947077</ele>
        <time>2022-03-02T12:09:49.936Z</time>
      </trkpt>
      <trkpt lat="42.09348" lon="25.21248">
        <ele>181.86473</ele>
        <time>2022-03-02T12:09:52.926Z</time>
      </trkpt>
      <trkpt lat="42.09349" lon="25.21235">
        <ele>181.789878</ele>
        <time>2022-03-02T12:09:55.924Z</time>
      </trkpt>
      <trkpt lat="42.0935" lon="25.21221">
        <ele>181.71036</ele>
        <time>2022-03-02T12:09:58.946Z</time>
      </trkpt>
      <trkpt lat="42.0935" lon="25.21206">
        <ele>181.627341</ele>
        <time>2022-03-02T12:10:01.923Z</time>
      </trkpt>
      <trkpt lat="42.09352" lon="25.2119">
        <ele>181.541063</ele>
        <time>2022-03-02T12:10:04.965Z</time>
      </trkpt>
      <trkpt lat="42.09353" lon="25.21175">
        <ele>181.456173</ele>
        <time>2022-03-02T12:10:07.940Z</time>
      </trkpt>
      <trkpt lat="42.09352" lon="25.2116">
        <ele>181.37373</ele>
        <time>2022-03-02T12:10:10.904Z</time>
      </trkpt>
      <trkpt lat="42.09352" lon="25.21145">
        <ele>181.290181</ele>
        <time>2022-03-02T12:10:13.941Z</time>
      </trkpt>
      <trkpt lat="42.09348" lon="25.2113">
        <ele>181.201765</ele>
        <time>2022-03-02T12:10:16.922Z</time>
      </trkpt>
      <trkpt lat="42.09342" lon="25.21116">
        <ele>181.112678</ele>
        <time>2022-03-02T12:10:19.970Z</time>
      </trkpt>
      <trkpt lat="42.09336" lon="25.21102">
        <ele>181.000908</ele>
        <time>2022-03-02T12:10:22.922Z</time>
      </trkpt>
      <trkpt lat="42.09328" lon="25.21092">
        <ele>180.879505</ele>
        <time>2022-03-02T12:10:25.914Z</time>
      </trkpt>
      <trkpt lat="42.09321" lon="25.21081">
        <ele>180.759771</ele>
        <time>2022-03-02T12:10:28.914Z</time>
      </trkpt>
      <trkpt lat="42.09314" lon="25.21069">
        <ele>180.636232</ele>
        <time>2022-03-02T12:10:31.924Z</time>
      </trkpt>
      <trkpt lat="42.09307" lon="25.21057">
        <ele>180.518462</ele>
        <time>2022-03-02T12:10:34.925Z</time>
      </trkpt>
      <trkpt lat="42.093" lon="25.21045">
        <ele>180.396932</ele>
        <time>2022-03-02T12:10:37.950Z</time>
      </trkpt>
      <trkpt lat="42.09292" lon="25.21033">
        <ele>180.271944</ele>
        <time>2022-03-02T12:10:40.901Z</time>
      </trkpt>
      <trkpt lat="42.09284" lon="25.21021">
        <ele>180.142081</ele>
        <time>2022-03-02T12:10:43.931Z</time>
      </trkpt>
      <trkpt lat="42.09277" lon="25.2101">
        <ele>180.021023</ele>
        <time>2022-03-02T12:10:46.903Z</time>
      </trkpt>
      <trkpt lat="42.0927" lon="25.20999">
        <ele>179.905231</ele>
        <time>2022-03-02T12:10:49.925Z</time>
      </trkpt>
      <trkpt lat="42.09263" lon="25.20988">
        <ele>179.79306</ele>
        <time>2022-03-02T12:10:52.928Z</time>
      </trkpt>
      <trkpt lat="42.09256" lon="25.20978">
        <ele>179.67815</ele>
        <time>2022-03-02T12:10:55.943Z</time>
      </trkpt>
      <trkpt lat="42.09249" lon="25.20967">
        <ele>179.563656</ele>
        <time>2022-03-02T12:10:58.929Z</time>
      </trkpt>
      <trkpt lat="42.09242" lon="25.20955">
        <ele>179.442589</ele>
        <time>2022-03-02T12:11:01.926Z</time>
      </trkpt>
      <trkpt lat="42.09234" lon="25.20944">
        <ele>179.318304</ele>
        <time>2022-03-02T12:11:04.913Z</time>
      </trkpt>
      <trkpt lat="42.09227" lon="25.20933">
        <ele>179.201632</ele>
        <time>2022-03-02T12:11:07.923Z</time>
      </trkpt>
      <trkpt lat="42.0922" lon="25.20922">
        <ele>179.266821</ele>
        <time>2022-03-02T12:11:10.918Z</time>
      </trkpt>
      <trkpt lat="42.09213" lon="25.2091">
        <ele>179.499197</ele>
        <time>2022-03-02T12:11:13.918Z</time>
      </trkpt>
      <trkpt lat="42.09206" lon="25.20897">
        <ele>179.742811</ele>
        <time>2022-03-02T12:11:16.959Z</time>
      </trkpt>
      <trkpt lat="42.09199" lon="25.20886">
        <ele>179.964511</ele>
        <time>2022-03-02T12:11:19.928Z</time>
      </trkpt>
      <trkpt lat="42.09192" lon="25.20876">
        <ele>180.176038</ele>
        <time>2022-03-02T12:11:22.917Z</time>
      </trkpt>
      <trkpt lat="42.09186" lon="25.20865">
        <ele>180.392839</ele>
        <time>2022-03-02T12:11:25.925Z</time>
      </trkpt>
      <trkpt lat="42.09179" lon="25.20854">
        <ele>180.625561</ele>
        <time>2022-03-02T12:11:28.929Z</time>
      </trkpt>
      <trkpt lat="42.09171" lon="25.20842">
        <ele>180.85963</ele>
        <time>2022-03-02T12:11:31.937Z</time>
      </trkpt>
      <trkpt lat="42.09164" lon="25.20831">
        <ele>181.09355</ele>
        <time>2022-03-02T12:11:34.921Z</time>
      </trkpt>
      <trkpt lat="42.09158" lon="25.20819">
        <ele>181.319669</ele>
        <time>2022-03-02T12:11:37.918Z</time>
      </trkpt>
      <trkpt lat="42.09151" lon="25.20808">
        <ele>181.54842</ele>
        <time>2022-03-02T12:11:40.949Z</time>
      </trkpt>
      <trkpt lat="42.09145" lon="25.20796">
        <ele>181.772043</ele>
        <time>2022-03-02T12:11:43.924Z</time>
      </trkpt>
      <trkpt lat="42.09138" lon="25.20785">
        <ele>182.003319</ele>
        <time>2022-03-02T12:11:46.918Z</time>
      </trkpt>
      <trkpt lat="42.09131" lon="25.20774">
        <ele>182.222308</ele>
        <time>2022-03-02T12:11:49.914Z</time>
      </trkpt>
      <trkpt lat="42.09124" lon="25.20763">
        <ele>182.447736</ele>
        <time>2022-03-02T12:11:52.926Z</time>
      </trkpt>
      <trkpt lat="42.09117" lon="25.20751">
        <ele>182.686491</ele>
        <time>2022-03-02T12:11:55.927Z</time>
      </trkpt>
      <trkpt lat="42.09109" lon="25.20741">
        <ele>182.908526</ele>
        <time>2022-03-02T12:11:58.946Z</time>
      </trkpt>
      <trkpt lat="42.09101" lon="25.20731">
        <ele>182.926646</ele>
        <time>2022-03-02T12:12:01.906Z</time>
      </trkpt>
      <trkpt lat="42.09095" lon="25.20718">
        <ele>182.939398</ele>
        <time>2022-03-02T12:12:04.915Z</time>
      </trkpt>
      <trkpt lat="42.09088" lon="25.20706">
        <ele>182.952478</ele>
        <time>2022-03-02T12:12:07.924Z</time>
      </trkpt>
      <trkpt lat="42.09081" lon="25.20693">
        <ele>182.965693</ele>
        <time>2022-03-02T12:12:10.927Z</time>
      </trkpt>
      <trkpt lat="42.09074" lon="25.20682">
        <ele>182.978165</ele>
        <time>2022-03-02T12:12:13.904Z</time>
      </trkpt>
      <trkpt lat="42.09067" lon="25.20671">
        <ele>182.990354</ele>
        <time>2022-03-02T12:12:16.926Z</time>
      </trkpt>
      <trkpt lat="42.0906" lon="25.2066">
        <ele>183.002711</ele>
        <time>2022-03-02T12:12:19.932Z</time>
      </trkpt>
      <trkpt lat="42.09053" lon="25.20649">
        <ele>183.014852</ele>
        <time>2022-03-02T12:12:22.906Z</time>
      </trkpt>
      <trkpt lat="42.09046" lon="25.20639">
        <ele>183.026654</ele>
        <time>2022-03-02T12:12:25.942Z</time>
      </trkpt>
      <trkpt lat="42.09039" lon="25.20629">
        <ele>183.03844</ele>
        <time>2022-03-02T12:12:28.964Z</time>
      </trkpt>
      <trkpt lat="42.09032" lon="25.20618">
        <ele>183.05015</ele>
        <time>2022-03-02T12:12:31.921Z</time>
      </trkpt>
      <trkpt lat="42.09026" lon="25.20608">
        <ele>183.061545</ele>
        <time>2022-03-02T12:12:34.925Z</time>
      </trkpt>
      <trkpt lat="42.0902" lon="25.20597">
        <ele>183.072998</ele>
        <time>2022-03-02T12:12:37.932Z</time>
      </trkpt>
      <trkpt lat="42.09013" lon="25.20587">
        <ele>183.08453</ele>
        <time>2022-03-02T12:12:40.914Z</time>
      </trkpt>
      <trkpt lat="42.09005" lon="25.20576">
        <ele>183.096868</ele>
        <time>2022-03-02T12:12:43.942Z</time>
      </trkpt>
      <trkpt lat="42.08999" lon="25.20566">
        <ele>183.10883</ele>
        <time>2022-03-02T12:12:46.930Z</time>
      </trkpt>
      <trkpt lat="42.08992" lon="25.20554">
        <ele>183.104816</ele>
        <time>2022-03-02T12:12:49.940Z</time>
      </trkpt>
      <trkpt lat="42.08986" lon="25.20543">
        <ele>183.007964</ele>
        <time>2022-03-02T12:12:52.918Z</time>
      </trkpt>
      <trkpt lat="42.08979" lon="25.20533">
        <ele>182.909205</ele>
        <time>2022-03-02T12:12:55.931Z</time>
      </trkpt>
      <trkpt lat="42.08972" lon="25.20523">
        <ele>182.812</ele>
        <time>2022-03-02T12:12:58.930Z</time>
      </trkpt>
      <trkpt lat="42.08965" lon="25.20513">
        <ele>182.713383</ele>
        <time>2022-03-02T12:13:01.952Z</time>
      </trkpt>
      <trkpt lat="42.08958" lon="25.20503">
        <ele>182.61005</ele>
        <time>2022-03-02T12:13:04.919Z</time>
      </trkpt>
      <trkpt lat="42.08951" lon="25.20491">
        <ele>182.503359</ele>
        <time>2022-03-02T12:13:07.933Z</time>
      </trkpt>
      <trkpt lat="42.08944" lon="25.20481">
        <ele>182.403166</ele>
        <time>2022-03-02T12:13:10.919Z</time>
      </trkpt>
      <trkpt lat="42.08937" lon="25.20469">
        <ele>182.298052</ele>
        <time>2022-03-02T12:13:13.944Z</time>
      </trkpt>
      <trkpt lat="42.0893" lon="25.20458">
        <ele>182.192564</ele>
        <time>2022-03-02T12:13:16.913Z</time>
      </trkpt>
      <trkpt lat="42.08923" lon="25.20446">
        <ele>182.085387</ele>
        <time>2022-03-02T12:13:19.907Z</time>
      </trkpt>
      <trkpt lat="42.08915" lon="25.20434">
        <ele>181.973035</ele>
        <time>2022-03-02T12:13:22.922Z</time>
      </trkpt>
      <trkpt lat="42.08908" lon="25.20423">
        <ele>181.863408</ele>
        <time>2022-03-02T12:13:25.934Z</time>
      </trkpt>
      <trkpt lat="42.08901" lon="25.20412">
        <ele>181.761858</ele>
        <time>2022-03-02T12:13:28.927Z</time>
      </trkpt>
      <trkpt lat="42.08895" lon="25.20401">
        <ele>181.662629</ele>
        <time>2022-03-02T12:13:31.919Z</time>
      </trkpt>
      <trkpt lat="42.08888" lon="25.2039">
        <ele>181.559765</ele>
        <time>2022-03-02T12:13:34.935Z</time>
      </trkpt>
      <trkpt lat="42.08881" lon="25.20379">
        <ele>181.455731</ele>
        <time>2022-03-02T12:13:37.921Z</time>
      </trkpt>
      <trkpt lat="42.08875" lon="25.20368">
        <ele>181.35785</ele>
        <time>2022-03-02T12:13:40.897Z</time>
      </trkpt>
      <trkpt lat="42.08868" lon="25.20357">
        <ele>181.253109</ele>
        <time>2022-03-02T12:13:43.930Z</time>
      </trkpt>
      <trkpt lat="42.08861" lon="25.20345">
        <ele>181.144706</ele>
        <time>2022-03-02T12:13:46.905Z</time>
      </trkpt>
      <trkpt lat="42.08854" lon="25.20334">
        <ele>181.038382</ele>
        <time>2022-03-02T12:13:49.915Z</time>
      </trkpt>
      <trkpt lat="42.08847" lon="25.20324">
        <ele>180.936819</ele>
        <time>2022-03-02T12:13:52.920Z</time>
      </trkpt>
      <trkpt lat="42.0884" lon="25.20313">
        <ele>180.831885</ele>
        <time>2022-03-02T12:13:55.919Z</time>
      </trkpt>
      <trkpt lat="42.08833" lon="25.20302">
        <ele>180.725293</ele>
        <time>2022-03-02T12:13:58.907Z</time>
      </trkpt>
      <trkpt lat="42.08825" lon="25.2029">
        <ele>180.616336</ele>
        <time>2022-03-02T12:14:01.940Z</time>
      </trkpt>
      <trkpt lat="42.08818" lon="25.20278">
        <ele>180.503092</ele>
        <time>2022-03-02T12:14:04.923Z</time>
      </trkpt>
      <trkpt lat="42.0881" lon="25.20267">
        <ele>180.395451</ele>
        <time>2022-03-02T12:14:07.922Z</time>
      </trkpt>
      <trkpt lat="42.08802" lon="25.20256">
        <ele>180.2825</ele>
        <time>2022-03-02T12:14:10.931Z</time>
      </trkpt>
      <trkpt lat="42.08795" lon="25.20245">
        <ele>180.172274</ele>
        <time>2022-03-02T12:14:13.922Z</time>
      </trkpt>
      <trkpt lat="42.08788" lon="25.20234">
        <ele>180.070168</ele>
        <time>2022-03-02T12:14:16.928Z</time>
      </trkpt>
      <trkpt lat="42.08781" lon="25.20224">
        <ele>179.970754</ele>
        <time>2022-03-02T12:14:19.920Z</time>
      </trkpt>
      <trkpt lat="42.08774" lon="25.20212">
        <ele>179.864838</ele>
        <time>2022-03-02T12:14:22.925Z</time>
      </trkpt>
      <trkpt lat="42.08768" lon="25.20203">
        <ele>179.772131</ele>
        <time>2022-03-02T12:14:25.903Z</time>
      </trkpt>
      <trkpt lat="42.08761" lon="25.20192">
        <ele>179.668727</ele>
        <time>2022-03-02T12:14:28.941Z</time>
      </trkpt>
      <trkpt lat="42.08755" lon="25.20182">
        <ele>179.782019</ele>
        <time>2022-03-02T12:14:31.929Z</time>
      </trkpt>
      <trkpt lat="42.08748" lon="25.20169">
        <ele>180.03865</ele>
        <time>2022-03-02T12:14:34.909Z</time>
      </trkpt>
      <trkpt lat="42.08741" lon="25.20158">
        <ele>180.29151</ele>
        <time>2022-03-02T12:14:37.922Z</time>
      </trkpt>
      <trkpt lat="42.08734" lon="25.20145">
        <ele>180.5441</ele>
        <time>2022-03-02T12:14:40.906Z</time>
      </trkpt>
      <trkpt lat="42.08728" lon="25.20133">
        <ele>180.799554</ele>
        <time>2022-03-02T12:14:43.919Z</time>
      </trkpt>
      <trkpt lat="42.08721" lon="25.20122">
        <ele>181.041541</ele>
        <time>2022-03-02T12:14:46.916Z</time>
      </trkpt>
      <trkpt lat="42.08714" lon="25.20111">
        <ele>181.28843</ele>
        <time>2022-03-02T12:14:49.910Z</time>
      </trkpt>
      <trkpt lat="42.08707" lon="25.201">
        <ele>181.529595</ele>
        <time>2022-03-02T12:14:52.912Z</time>
      </trkpt>
      <trkpt lat="42.087" lon="25.20089">
        <ele>181.75162</ele>
        <time>2022-03-02T12:14:55.920Z</time>
      </trkpt>
      <trkpt lat="42.08693" lon="25.20079">
        <ele>181.995443</ele>
        <time>2022-03-02T12:14:58.924Z</time>
      </trkpt>
      <trkpt lat="42.08686" lon="25.20068">
        <ele>182.234626</ele>
        <time>2022-03-02T12:15:01.913Z</time>
      </trkpt>
      <trkpt lat="42.08679" lon="25.20058">
        <ele>182.469046</ele>
        <time>2022-03-02T12:15:04.936Z</time>
      </trkpt>
      <trkpt lat="42.08672" lon="25.20047">
        <ele>182.712954</ele>
        <time>2022-03-02T12:15:07.958Z</time>
      </trkpt>
      <trkpt lat="42.08665" lon="25.20036">
        <ele>182.953541</ele>
        <time>2022-03-02T12:15:10.916Z</time>
      </trkpt>
      <trkpt lat="42.08659" lon="25.20025">
        <ele>183.184689</ele>
        <time>2022-03-02T12:15:13.928Z</time>
      </trkpt>
      <trkpt lat="42.08653" lon="25.20014">
        <ele>183.413095</ele>
        <time>2022-03-02T12:15:16.929Z</time>
      </trkpt>
      <trkpt lat="42.08647" lon="25.20003">
        <ele>183.644196</ele>
        <time>2022-03-02T12:15:19.926Z</time>
      </trkpt>
      <trkpt lat="42.0864" lon="25.19992">
        <ele>183.653709</ele>
        <time>2022-03-02T12:15:22.921Z</time>
      </trkpt>
      <trkpt lat="42.08634" lon="25.19981">
        <ele>183.612111</ele>
        <time>2022-03-02T12:15:25.912Z</time>
      </trkpt>
      <trkpt lat="42.08627" lon="25.19971">
        <ele>183.569806</ele>
        <time>2022-03-02T12:15:28.925Z</time>
      </trkpt>
      <trkpt lat="42.0862" lon="25.1996">
        <ele>183.526859</ele>
        <time>2022-03-02T12:15:31.940Z</time>
      </trkpt>
      <trkpt lat="42.08613" lon="25.19949">
        <ele>183.482741</ele>
        <time>2022-03-02T12:15:34.925Z</time>
      </trkpt>
      <trkpt lat="42.08606" lon="25.19939">
        <ele>183.439594</ele>
        <time>2022-03-02T12:15:37.941Z</time>
      </trkpt>
      <trkpt lat="42.08599" lon="25.19927">
        <ele>183.394945</ele>
        <time>2022-03-02T12:15:40.930Z</time>
      </trkpt>
      <trkpt lat="42.08592" lon="25.19917">
        <ele>183.350114</ele>
        <time>2022-03-02T12:15:43.919Z</time>
      </trkpt>
      <trkpt lat="42.08584" lon="25.19907">
        <ele>183.306751</ele>
        <time>2022-03-02T12:15:46.930Z</time>
      </trkpt>
      <trkpt lat="42.08577" lon="25.19897">
        <ele>183.26223</ele>
        <time>2022-03-02T12:15:49.929Z</time>
      </trkpt>
      <trkpt lat="42.08569" lon="25.19885">
        <ele>183.216036</ele>
        <time>2022-03-02T12:15:52.917Z</time>
      </trkpt>
      <trkpt lat="42.08563" lon="25.19874">
        <ele>183.172696</ele>
        <time>2022-03-02T12:15:55.928Z</time>
      </trkpt>
      <trkpt lat="42.08556" lon="25.19864">
        <ele>183.132409</ele>
        <time>2022-03-02T12:15:58.932Z</time>
      </trkpt>
      <trkpt lat="42.08549" lon="25.19855">
        <ele>183.091846</ele>
        <time>2022-03-02T12:16:01.910Z</time>
      </trkpt>
      <trkpt lat="42.08543" lon="25.19845">
        <ele>183.05055</ele>
        <time>2022-03-02T12:16:04.920Z</time>
      </trkpt>
      <trkpt lat="42.08537" lon="25.19835">
        <ele>183.010894</ele>
        <time>2022-03-02T12:16:07.925Z</time>
      </trkpt>
      <trkpt lat="42.08531" lon="25.19826">
        <ele>182.973392</ele>
        <time>2022-03-02T12:16:10.909Z</time>
      </trkpt>
      <trkpt lat="42.08523" lon="25.19815">
        <ele>183.067447</ele>
        <time>2022-03-02T12:16:14.938Z</time>
      </trkpt>
      <trkpt lat="42.08517" lon="25.19804">
        <ele>183.310716</ele>
        <time>2022-03-02T12:16:17.932Z</time>
      </trkpt>
      <trkpt lat="42.08511" lon="25.19794">
        <ele>183.548079</ele>
        <time>2022-03-02T12:16:20.923Z</time>
      </trkpt>
      <trkpt lat="42.08506" lon="25.19785">
        <ele>183.772184</ele>
        <time>2022-03-02T12:16:23.948Z</time>
      </trkpt>
      <trkpt lat="42.08498" lon="25.19773">
        <ele>184.065214</ele>
        <time>2022-03-02T12:16:27.937Z</time>
      </trkpt>
      <trkpt lat="42.08492" lon="25.19763">
        <ele>184.290876</ele>
        <time>2022-03-02T12:16:30.912Z</time>
      </trkpt>
      <trkpt lat="42.08485" lon="25.19751">
        <ele>184.579079</ele>
        <time>2022-03-02T12:16:35.000Z</time>
      </trkpt>
      <trkpt lat="42.08479" lon="25.19741">
        <ele>184.809077</ele>
        <time>2022-03-02T12:16:37.964Z</time>
      </trkpt>
      <trkpt lat="42.08473" lon="25.19731">
        <ele>185.046616</ele>
        <time>2022-03-02T12:16:40.905Z</time>
      </trkpt>
      <trkpt lat="42.08467" lon="25.19721">
        <ele>185.292933</ele>
        <time>2022-03-02T12:16:43.943Z</time>
      </trkpt>
      <trkpt lat="42.08461" lon="25.19711">
        <ele>185.521758</ele>
        <time>2022-03-02T12:16:46.929Z</time>
      </trkpt>
      <trkpt lat="42.08454" lon="25.19702">
        <ele>185.756797</ele>
        <time>2022-03-02T12:16:49.914Z</time>
      </trkpt>
      <trkpt lat="42.08448" lon="25.19692">
        <ele>186.006771</ele>
        <time>2022-03-02T12:16:53.014Z</time>
      </trkpt>
      <trkpt lat="42.08441" lon="25.19681">
        <ele>186.282121</ele>
        <time>2022-03-02T12:16:55.911Z</time>
      </trkpt>
      <trkpt lat="42.08433" lon="25.1967">
        <ele>186.550022</ele>
        <time>2022-03-02T12:16:58.930Z</time>
      </trkpt>
      <trkpt lat="42.08427" lon="25.1966">
        <ele>186.7948</ele>
        <time>2022-03-02T12:17:01.910Z</time>
      </trkpt>
      <trkpt lat="42.08419" lon="25.19653">
        <ele>187.020911</ele>
        <time>2022-03-02T12:17:04.913Z</time>
      </trkpt>
      <trkpt lat="42.08409" lon="25.19647">
        <ele>187.30708</ele>
        <time>2022-03-02T12:17:08.912Z</time>
      </trkpt>
      <trkpt lat="42.084" lon="25.19645">
        <ele>187.468566</ele>
        <time>2022-03-02T12:17:11.924Z</time>
      </trkpt>
      <trkpt lat="42.0839" lon="25.19643">
        <ele>187.562864</ele>
        <time>2022-03-02T12:17:14.928Z</time>
      </trkpt>
      <trkpt lat="42.0838" lon="25.1964">
        <ele>187.660932</ele>
        <time>2022-03-02T12:17:17.930Z</time>
      </trkpt>
      <trkpt lat="42.08371" lon="25.19637">
        <ele>187.756904</ele>
        <time>2022-03-02T12:17:20.906Z</time>
      </trkpt>
      <trkpt lat="42.08362" lon="25.19634">
        <ele>187.851329</ele>
        <time>2022-03-02T12:17:23.912Z</time>
      </trkpt>
      <trkpt lat="42.08352" lon="25.19631">
        <ele>187.946509</ele>
        <time>2022-03-02T12:17:26.902Z</time>
      </trkpt>
      <trkpt lat="42.08342" lon="25.19629">
        <ele>188.04297</ele>
        <time>2022-03-02T12:17:29.933Z</time>
      </trkpt>
      <trkpt lat="42.08331" lon="25.19627">
        <ele>188.150792</ele>
        <time>2022-03-02T12:17:33.910Z</time>
      </trkpt>
      <trkpt lat="42.08328" lon="25.19614">
        <ele>188.250891</ele>
        <time>2022-03-02T12:17:38.912Z</time>
      </trkpt>
      <trkpt lat="42.08329" lon="25.19602">
        <ele>188.340333</ele>
        <time>2022-03-02T12:17:41.921Z</time>
      </trkpt>
      <trkpt lat="42.08329" lon="25.19589">
        <ele>188.434519</ele>
        <time>2022-03-02T12:17:44.922Z</time>
      </trkpt>
      <trkpt lat="42.0833" lon="25.19574">
        <ele>188.545299</ele>
        <time>2022-03-02T12:17:48.992Z</time>
      </trkpt>
      <trkpt lat="42.08331" lon="25.19559">
        <ele>188.657312</ele>
        <time>2022-03-02T12:17:51.921Z</time>
      </trkpt>
      <trkpt lat="42.08332" lon="25.19545">
        <ele>188.760125</ele>
        <time>2022-03-02T12:17:54.932Z</time>
      </trkpt>
      <trkpt lat="42.08333" lon="25.19531">
        <ele>188.862525</ele>
        <time>2022-03-02T12:17:57.934Z</time>
      </trkpt>
      <trkpt lat="42.08334" lon="25.19518">
        <ele>188.958392</ele>
        <time>2022-03-02T12:18:00.921Z</time>
      </trkpt>
      <trkpt lat="42.08335" lon="25.19505">
        <ele>189.050239</ele>
        <time>2022-03-02T12:18:03.980Z</time>
      </trkpt>
      <trkpt lat="42.08337" lon="25.19493">
        <ele>189.142435</ele>
        <time>2022-03-02T12:18:06.924Z</time>
      </trkpt>
      <trkpt lat="42.08338" lon="25.19477">
        <ele>189.116993</ele>
        <time>2022-03-02T12:18:10.933Z</time>
      </trkpt>
      <trkpt lat="42.08337" lon="25.19463">
        <ele>188.998105</ele>
        <time>2022-03-02T12:18:14.970Z</time>
      </trkpt>
      <trkpt lat="42.08329" lon="25.19453">
        <ele>188.88147</ele>
        <time>2022-03-02T12:18:18.925Z</time>
      </trkpt>
      <trkpt lat="42.08319" lon="25.19452">
        <ele>188.774599</ele>
        <time>2022-03-02T12:18:21.906Z</time>
      </trkpt>
      <trkpt lat="42.0831" lon="25.1945">
        <ele>188.670477</ele>
        <time>2022-03-02T12:18:24.954Z</time>
      </trkpt>
      <trkpt lat="42.08298" lon="25.19446">
        <ele>188.544441</ele>
        <time>2022-03-02T12:18:28.931Z</time>
      </trkpt>
      <trkpt lat="42.08289" lon="25.19442">
        <ele>188.435309</ele>
        <time>2022-03-02T12:18:32.909Z</time>
      </trkpt>
      <trkpt lat="42.08278" lon="25.19438">
        <ele>188.313854</ele>
        <time>2022-03-02T12:18:36.980Z</time>
      </trkpt>
      <trkpt lat="42.08267" lon="25.19433">
        <ele>188.195521</ele>
        <time>2022-03-02T12:18:39.925Z</time>
      </trkpt>
      <trkpt lat="42.08257" lon="25.1943">
        <ele>188.083653</ele>
        <time>2022-03-02T12:18:42.907Z</time>
      </trkpt>
      <trkpt lat="42.08246" lon="25.19426">
        <ele>187.958575</ele>
        <time>2022-03-02T12:18:46.921Z</time>
      </trkpt>
      <trkpt lat="42.08236" lon="25.19423">
        <ele>187.851033</ele>
        <time>2022-03-02T12:18:50.952Z</time>
      </trkpt>
      <trkpt lat="42.08225" lon="25.19419">
        <ele>187.727083</ele>
        <time>2022-03-02T12:18:54.922Z</time>
      </trkpt>
      <trkpt lat="42.08214" lon="25.19416">
        <ele>187.605687</ele>
        <time>2022-03-02T12:18:58.938Z</time>
      </trkpt>
      <trkpt lat="42.08203" lon="25.19413">
        <ele>187.483561</ele>
        <time>2022-03-02T12:19:02.928Z</time>
      </trkpt>
      <trkpt lat="42.08192" lon="25.1941">
        <ele>187.362492</ele>
        <time>2022-03-02T12:19:06.940Z</time>
      </trkpt>
      <trkpt lat="42.08183" lon="25.19406">
        <ele>187.262017</ele>
        <time>2022-03-02T12:19:09.960Z</time>
      </trkpt>
      <trkpt lat="42.08174" lon="25.19403">
        <ele>187.362387</ele>
        <time>2022-03-02T12:19:12.925Z</time>
      </trkpt>
      <trkpt lat="42.08162" lon="25.19399">
        <ele>187.524797</ele>
        <time>2022-03-02T12:19:16.918Z</time>
      </trkpt>
      <trkpt lat="42.08153" lon="25.19396">
        <ele>187.647575</ele>
        <time>2022-03-02T12:19:19.922Z</time>
      </trkpt>
      <trkpt lat="42.08142" lon="25.19393">
        <ele>187.790982</ele>
        <time>2022-03-02T12:19:23.922Z</time>
      </trkpt>
      <trkpt lat="42.08133" lon="25.19391">
        <ele>187.914305</ele>
        <time>2022-03-02T12:19:26.917Z</time>
      </trkpt>
      <trkpt lat="42.08124" lon="25.19388">
        <ele>188.032639</ele>
        <time>2022-03-02T12:19:29.900Z</time>
      </trkpt>
      <trkpt lat="42.08113" lon="25.19385">
        <ele>188.182956</ele>
        <time>2022-03-02T12:19:33.906Z</time>
      </trkpt>
      <trkpt lat="42.08102" lon="25.1938">
        <ele>188.328903</ele>
        <time>2022-03-02T12:19:37.929Z</time>
      </trkpt>
      <trkpt lat="42.08092" lon="25.19375">
        <ele>188.477739</ele>
        <time>2022-03-02T12:19:41.925Z</time>
      </trkpt>
      <trkpt lat="42.08081" lon="25.19372">
        <ele>188.620607</ele>
        <time>2022-03-02T12:19:45.904Z</time>
      </trkpt>
      <trkpt lat="42.0807" lon="25.1937">
        <ele>188.766415</ele>
        <time>2022-03-02T12:19:49.978Z</time>
      </trkpt>
      <trkpt lat="42.08059" lon="25.19368">
        <ele>188.910714</ele>
        <time>2022-03-02T12:19:53.931Z</time>
      </trkpt>
      <trkpt lat="42.08048" lon="25.19362">
        <ele>189.065786</ele>
        <time>2022-03-02T12:19:57.979Z</time>
      </trkpt>
      <trkpt lat="42.0804" lon="25.19357">
        <ele>189.187667</ele>
        <time>2022-03-02T12:20:01.927Z</time>
      </trkpt>
      <trkpt lat="42.08039" lon="25.19342">
        <ele>189.33564</ele>
        <time>2022-03-02T12:20:05.896Z</time>
      </trkpt>
      <trkpt lat="42.08041" lon="25.19329">
        <ele>189.462246</ele>
        <time>2022-03-02T12:20:08.918Z</time>
      </trkpt>
      <trkpt lat="42.08043" lon="25.19315">
        <ele>189.606584</ele>
        <time>2022-03-02T12:20:12.938Z</time>
      </trkpt>
      <trkpt lat="42.08045" lon="25.193">
        <ele>189.871665</ele>
        <time>2022-03-02T12:20:16.947Z</time>
      </trkpt>
      <trkpt lat="42.08045" lon="25.19286">
        <ele>190.127783</ele>
        <time>2022-03-02T12:20:20.930Z</time>
      </trkpt>
      <trkpt lat="42.08045" lon="25.19273">
        <ele>190.378105</ele>
        <time>2022-03-02T12:20:24.942Z</time>
      </trkpt>
      <trkpt lat="42.08047" lon="25.1926">
        <ele>190.618635</ele>
        <time>2022-03-02T12:20:28.930Z</time>
      </trkpt>
      <trkpt lat="42.08048" lon="25.19247">
        <ele>190.856687</ele>
        <time>2022-03-02T12:20:31.917Z</time>
      </trkpt>
      <trkpt lat="42.08048" lon="25.19232">
        <ele>191.128862</ele>
        <time>2022-03-02T12:20:35.949Z</time>
      </trkpt>
      <trkpt lat="42.08049" lon="25.19219">
        <ele>191.355666</ele>
        <time>2022-03-02T12:20:38.953Z</time>
      </trkpt>
      <trkpt lat="42.08048" lon="25.19204">
        <ele>191.635274</ele>
        <time>2022-03-02T12:20:41.966Z</time>
      </trkpt>
      <trkpt lat="42.08048" lon="25.19192">
        <ele>191.858146</ele>
        <time>2022-03-02T12:20:44.941Z</time>
      </trkpt>
      <trkpt lat="42.08049" lon="25.19176">
        <ele>192.145404</ele>
        <time>2022-03-02T12:20:48.957Z</time>
      </trkpt>
      <trkpt lat="42.0805" lon="25.19163">
        <ele>192.380007</ele>
        <time>2022-03-02T12:20:51.940Z</time>
      </trkpt>
      <trkpt lat="42.08052" lon="25.1915">
        <ele>192.628717</ele>
        <time>2022-03-02T12:20:54.940Z</time>
      </trkpt>
      <trkpt lat="42.08054" lon="25.19135">
        <ele>192.913347</ele>
        <time>2022-03-02T12:20:58.931Z</time>
      </trkpt>
      <trkpt lat="42.08058" lon="25.19121">
        <ele>193.186697</ele>
        <time>2022-03-02T12:21:02.922Z</time>
      </trkpt>
      <trkpt lat="42.08062" lon="25.19109">
        <ele>193.420943</ele>
        <time>2022-03-02T12:21:05.944Z</time>
      </trkpt>
      <trkpt lat="42.08066" lon="25.19097">
        <ele>193.664533</ele>
        <time>2022-03-02T12:21:08.929Z</time>
      </trkpt>
      <trkpt lat="42.0807" lon="25.19085">
        <ele>193.910622</ele>
        <time>2022-03-02T12:21:11.929Z</time>
      </trkpt>
      <trkpt lat="42.08072" lon="25.19073">
        <ele>194.038329</ele>
        <time>2022-03-02T12:21:14.905Z</time>
      </trkpt>
      <trkpt lat="42.08071" lon="25.1906">
        <ele>194.038329</ele>
        <time>2022-03-02T12:21:17.957Z</time>
      </trkpt>
      <trkpt lat="42.08067" lon="25.19048">
        <ele>194.038329</ele>
        <time>2022-03-02T12:21:20.932Z</time>
      </trkpt>
      <trkpt lat="42.08062" lon="25.19038">
        <ele>194.038329</ele>
        <time>2022-03-02T12:21:23.976Z</time>
      </trkpt>
      <trkpt lat="42.08057" lon="25.19027">
        <ele>194.038329</ele>
        <time>2022-03-02T12:21:26.930Z</time>
      </trkpt>
      <trkpt lat="42.08052" lon="25.19017">
        <ele>194.038329</ele>
        <time>2022-03-02T12:21:29.919Z</time>
      </trkpt>
      <trkpt lat="42.08048" lon="25.19005">
        <ele>194.038329</ele>
        <time>2022-03-02T12:21:32.886Z</time>
      </trkpt>
      <trkpt lat="42.08044" lon="25.18994">
        <ele>194.038329</ele>
        <time>2022-03-02T12:21:35.976Z</time>
      </trkpt>
      <trkpt lat="42.08041" lon="25.1898">
        <ele>194.038329</ele>
        <time>2022-03-02T12:21:39.899Z</time>
      </trkpt>
      <trkpt lat="42.08039" lon="25.18967">
        <ele>194.038329</ele>
        <time>2022-03-02T12:21:43.918Z</time>
      </trkpt>
      <trkpt lat="42.08035" lon="25.18954">
        <ele>194.038329</ele>
        <time>2022-03-02T12:21:48.916Z</time>
      </trkpt>
      <trkpt lat="42.08028" lon="25.18943">
        <ele>194.038329</ele>
        <time>2022-03-02T12:21:53.960Z</time>
      </trkpt>
      <trkpt lat="42.08019" lon="25.18942">
        <ele>194.038329</ele>
        <time>2022-03-02T12:21:57.917Z</time>
      </trkpt>
      <trkpt lat="42.08011" lon="25.1895">
        <ele>194.038329</ele>
        <time>2022-03-02T12:22:02.925Z</time>
      </trkpt>
      <trkpt lat="42.08004" lon="25.18959">
        <ele>194.038329</ele>
        <time>2022-03-02T12:22:07.924Z</time>
      </trkpt>
      <trkpt lat="42.08009" lon="25.18967">
        <ele>194.038329</ele>
        <time>2022-03-02T12:23:26.092Z</time>
      </trkpt>
    </trkseg>
  </trk>
  <trk>
    <name><![CDATA[Tour d'Europe: étape 609]]></name>
    <extensions>
      <line xmlns="http://www.topografix.com/GPX/gpx_style/0/2">
        <color>008800</color>
        <width>4</width>
      </line>
    </extensions>
    <trkseg>
      <trkpt lat="41.84446" lon="26.08254">
        <ele>119.888211</ele>
        <time>2022-02-27T07:28:10.619Z</time>
      </trkpt>
      <trkpt lat="41.84438" lon="26.08234">
        <ele>119.888211</ele>
        <time>2022-02-27T07:28:14.592Z</time>
      </trkpt>
      <trkpt lat="41.84444" lon="26.08223">
        <ele>119.888211</ele>
        <time>2022-02-27T07:28:18.641Z</time>
      </trkpt>
      <trkpt lat="41.84453" lon="26.08214">
        <ele>119.888211</ele>
        <time>2022-02-27T07:28:23.595Z</time>
      </trkpt>
      <trkpt lat="41.84459" lon="26.08201">
        <ele>119.888211</ele>
        <time>2022-02-27T07:28:28.568Z</time>
      </trkpt>
      <trkpt lat="41.84467" lon="26.08192">
        <ele>119.888211</ele>
        <time>2022-02-27T07:28:32.587Z</time>
      </trkpt>
      <trkpt lat="41.84478" lon="26.08195">
        <ele>119.888211</ele>
        <time>2022-02-27T07:28:35.588Z</time>
      </trkpt>
      <trkpt lat="41.84486" lon="26.08205">
        <ele>119.888211</ele>
        <time>2022-02-27T07:28:38.577Z</time>
      </trkpt>
      <trkpt lat="41.84495" lon="26.08214">
        <ele>119.876049</ele>
        <time>2022-02-27T07:28:41.592Z</time>
      </trkpt>
      <trkpt lat="41.84502" lon="26.08223">
        <ele>119.834721</ele>
        <time>2022-02-27T07:28:44.603Z</time>
      </trkpt>
      <trkpt lat="41.84509" lon="26.08232">
        <ele>119.795872</ele>
        <time>2022-02-27T07:28:47.602Z</time>
      </trkpt>
      <trkpt lat="41.84517" lon="26.08242">
        <ele>119.752359</ele>
        <time>2022-02-27T07:28:50.606Z</time>
      </trkpt>
      <trkpt lat="41.84526" lon="26.08254">
        <ele>119.704589</ele>
        <time>2022-02-27T07:28:53.600Z</time>
      </trkpt>
      <trkpt lat="41.84533" lon="26.08264">
        <ele>119.663434</ele>
        <time>2022-02-27T07:28:56.613Z</time>
      </trkpt>
      <trkpt lat="41.8454" lon="26.08273">
        <ele>119.625035</ele>
        <time>2022-02-27T07:28:59.605Z</time>
      </trkpt>
      <trkpt lat="41.84548" lon="26.08283">
        <ele>119.580082</ele>
        <time>2022-02-27T07:29:02.594Z</time>
      </trkpt>
      <trkpt lat="41.84556" lon="26.08293">
        <ele>119.536453</ele>
        <time>2022-02-27T07:29:05.579Z</time>
      </trkpt>
      <trkpt lat="41.84563" lon="26.08303">
        <ele>119.494629</ele>
        <time>2022-02-27T07:29:08.599Z</time>
      </trkpt>
      <trkpt lat="41.84572" lon="26.08314">
        <ele>119.448028</ele>
        <time>2022-02-27T07:29:11.612Z</time>
      </trkpt>
      <trkpt lat="41.8458" lon="26.08325">
        <ele>119.40089</ele>
        <time>2022-02-27T07:29:14.611Z</time>
      </trkpt>
      <trkpt lat="41.84588" lon="26.08335">
        <ele>119.355571</ele>
        <time>2022-02-27T07:29:17.631Z</time>
      </trkpt>
      <trkpt lat="41.84596" lon="26.08346">
        <ele>119.310819</ele>
        <time>2022-02-27T07:29:20.643Z</time>
      </trkpt>
      <trkpt lat="41.84604" lon="26.08357">
        <ele>119.267267</ele>
        <time>2022-02-27T07:29:23.589Z</time>
      </trkpt>
      <trkpt lat="41.84611" lon="26.08366">
        <ele>119.22634</ele>
        <time>2022-02-27T07:29:26.582Z</time>
      </trkpt>
      <trkpt lat="41.84619" lon="26.08377">
        <ele>119.181589</ele>
        <time>2022-02-27T07:29:29.599Z</time>
      </trkpt>
      <trkpt lat="41.84627" lon="26.08387">
        <ele>118.82508</ele>
        <time>2022-02-27T07:29:32.600Z</time>
      </trkpt>
      <trkpt lat="41.84634" lon="26.08397">
        <ele>118.370115</ele>
        <time>2022-02-27T07:29:35.611Z</time>
      </trkpt>
      <trkpt lat="41.84641" lon="26.08407">
        <ele>117.922875</ele>
        <time>2022-02-27T07:29:38.595Z</time>
      </trkpt>
      <trkpt lat="41.84647" lon="26.08417">
        <ele>117.487819</ele>
        <time>2022-02-27T07:29:41.582Z</time>
      </trkpt>
      <trkpt lat="41.84654" lon="26.08426">
        <ele>117.062847</ele>
        <time>2022-02-27T07:29:44.606Z</time>
      </trkpt>
      <trkpt lat="41.84663" lon="26.08434">
        <ele>116.602291</ele>
        <time>2022-02-27T07:29:47.592Z</time>
      </trkpt>
      <trkpt lat="41.84673" lon="26.08441">
        <ele>116.113123</ele>
        <time>2022-02-27T07:29:50.583Z</time>
      </trkpt>
      <trkpt lat="41.84685" lon="26.08448">
        <ele>115.555128</ele>
        <time>2022-02-27T07:29:53.592Z</time>
      </trkpt>
      <trkpt lat="41.84697" lon="26.0845">
        <ele>115.026516</ele>
        <time>2022-02-27T07:29:56.624Z</time>
      </trkpt>
      <trkpt lat="41.84707" lon="26.0845">
        <ele>114.570349</ele>
        <time>2022-02-27T07:29:59.598Z</time>
      </trkpt>
      <trkpt lat="41.84718" lon="26.0845">
        <ele>114.101112</ele>
        <time>2022-02-27T07:30:02.593Z</time>
      </trkpt>
      <trkpt lat="41.84729" lon="26.08448">
        <ele>113.608744</ele>
        <time>2022-02-27T07:30:05.601Z</time>
      </trkpt>
      <trkpt lat="41.84741" lon="26.08448">
        <ele>113.073037</ele>
        <time>2022-02-27T07:30:08.595Z</time>
      </trkpt>
      <trkpt lat="41.84754" lon="26.08446">
        <ele>112.501715</ele>
        <time>2022-02-27T07:30:11.602Z</time>
      </trkpt>
      <trkpt lat="41.84764" lon="26.08446">
        <ele>112.072041</ele>
        <time>2022-02-27T07:30:13.649Z</time>
      </trkpt>
      <trkpt lat="41.84774" lon="26.08447">
        <ele>111.637934</ele>
        <time>2022-02-27T07:30:15.592Z</time>
      </trkpt>
      <trkpt lat="41.84784" lon="26.08447">
        <ele>111.265276</ele>
        <time>2022-02-27T07:30:17.625Z</time>
      </trkpt>
      <trkpt lat="41.84795" lon="26.08446">
        <ele>111.192073</ele>
        <time>2022-02-27T07:30:19.600Z</time>
      </trkpt>
      <trkpt lat="41.84805" lon="26.08446">
        <ele>111.118825</ele>
        <time>2022-02-27T07:30:21.589Z</time>
      </trkpt>
      <trkpt lat="41.84816" lon="26.08445">
        <ele>111.039908</ele>
        <time>2022-02-27T07:30:23.607Z</time>
      </trkpt>
      <trkpt lat="41.84827" lon="26.08444">
        <ele>110.963672</ele>
        <time>2022-02-27T07:30:25.708Z</time>
      </trkpt>
      <trkpt lat="41.84837" lon="26.08443">
        <ele>110.891756</ele>
        <time>2022-02-27T07:30:27.588Z</time>
      </trkpt>
      <trkpt lat="41.84847" lon="26.08443">
        <ele>110.823464</ele>
        <time>2022-02-27T07:30:29.595Z</time>
      </trkpt>
      <trkpt lat="41.84859" lon="26.08444">
        <ele>110.736622</ele>
        <time>2022-02-27T07:30:32.594Z</time>
      </trkpt>
      <trkpt lat="41.84866" lon="26.08452">
        <ele>110.673255</ele>
        <time>2022-02-27T07:30:36.586Z</time>
      </trkpt>
      <trkpt lat="41.84876" lon="26.08462">
        <ele>110.58851</ele>
        <time>2022-02-27T07:30:41.583Z</time>
      </trkpt>
      <trkpt lat="41.84887" lon="26.08458">
        <ele>110.504466</ele>
        <time>2022-02-27T07:30:44.586Z</time>
      </trkpt>
      <trkpt lat="41.84898" lon="26.0845">
        <ele>110.419384</ele>
        <time>2022-02-27T07:30:47.656Z</time>
      </trkpt>
      <trkpt lat="41.84908" lon="26.08443">
        <ele>110.33676</ele>
        <time>2022-02-27T07:30:50.608Z</time>
      </trkpt>
      <trkpt lat="41.84919" lon="26.08437">
        <ele>110.256438</ele>
        <time>2022-02-27T07:30:53.614Z</time>
      </trkpt>
      <trkpt lat="41.84931" lon="26.08431">
        <ele>110.162852</ele>
        <time>2022-02-27T07:30:56.585Z</time>
      </trkpt>
      <trkpt lat="41.84941" lon="26.08427">
        <ele>110.095101</ele>
        <time>2022-02-27T07:30:58.582Z</time>
      </trkpt>
      <trkpt lat="41.8495" lon="26.08422">
        <ele>110.025158</ele>
        <time>2022-02-27T07:31:00.596Z</time>
      </trkpt>
      <trkpt lat="41.84959" lon="26.08417">
        <ele>109.973145</ele>
        <time>2022-02-27T07:31:02.598Z</time>
      </trkpt>
      <trkpt lat="41.84968" lon="26.08413">
        <ele>109.925447</ele>
        <time>2022-02-27T07:31:04.591Z</time>
      </trkpt>
      <trkpt lat="41.84976" lon="26.08408">
        <ele>109.879898</ele>
        <time>2022-02-27T07:31:06.609Z</time>
      </trkpt>
      <trkpt lat="41.84988" lon="26.08401">
        <ele>109.81337</ele>
        <time>2022-02-27T07:31:09.585Z</time>
      </trkpt>
      <trkpt lat="41.84997" lon="26.08397">
        <ele>109.767072</ele>
        <time>2022-02-27T07:31:11.616Z</time>
      </trkpt>
      <trkpt lat="41.85006" lon="26.08392">
        <ele>109.719701</ele>
        <time>2022-02-27T07:31:13.628Z</time>
      </trkpt>
      <trkpt lat="41.85014" lon="26.08387">
        <ele>109.672501</ele>
        <time>2022-02-27T07:31:15.592Z</time>
      </trkpt>
      <trkpt lat="41.85023" lon="26.08382">
        <ele>109.626071</ele>
        <time>2022-02-27T07:31:17.586Z</time>
      </trkpt>
      <trkpt lat="41.85035" lon="26.08375">
        <ele>109.559399</ele>
        <time>2022-02-27T07:31:20.597Z</time>
      </trkpt>
      <trkpt lat="41.85046" lon="26.08369">
        <ele>109.496845</ele>
        <time>2022-02-27T07:31:23.594Z</time>
      </trkpt>
      <trkpt lat="41.85058" lon="26.08362">
        <ele>109.434757</ele>
        <time>2022-02-27T07:31:26.603Z</time>
      </trkpt>
      <trkpt lat="41.8507" lon="26.08355">
        <ele>109.369622</ele>
        <time>2022-02-27T07:31:29.603Z</time>
      </trkpt>
      <trkpt lat="41.85081" lon="26.08349">
        <ele>109.30495</ele>
        <time>2022-02-27T07:31:32.599Z</time>
      </trkpt>
      <trkpt lat="41.85094" lon="26.08342">
        <ele>109.237203</ele>
        <time>2022-02-27T07:31:35.621Z</time>
      </trkpt>
      <trkpt lat="41.85102" lon="26.08337">
        <ele>109.190112</ele>
        <time>2022-02-27T07:31:37.593Z</time>
      </trkpt>
      <trkpt lat="41.85111" lon="26.08332">
        <ele>109.144279</ele>
        <time>2022-02-27T07:31:39.605Z</time>
      </trkpt>
      <trkpt lat="41.85119" lon="26.08328">
        <ele>109.091241</ele>
        <time>2022-02-27T07:31:41.604Z</time>
      </trkpt>
      <trkpt lat="41.85128" lon="26.08324">
        <ele>109.019402</ele>
        <time>2022-02-27T07:31:43.582Z</time>
      </trkpt>
      <trkpt lat="41.8514" lon="26.08316">
        <ele>108.911907</ele>
        <time>2022-02-27T07:31:46.596Z</time>
      </trkpt>
      <trkpt lat="41.85149" lon="26.08312">
        <ele>108.840481</ele>
        <time>2022-02-27T07:31:48.579Z</time>
      </trkpt>
      <trkpt lat="41.85161" lon="26.08306">
        <ele>108.734453</ele>
        <time>2022-02-27T07:31:51.763Z</time>
      </trkpt>
      <trkpt lat="41.85174" lon="26.08299">
        <ele>108.628147</ele>
        <time>2022-02-27T07:31:54.595Z</time>
      </trkpt>
      <trkpt lat="41.85186" lon="26.08292">
        <ele>108.522225</ele>
        <time>2022-02-27T07:31:57.610Z</time>
      </trkpt>
      <trkpt lat="41.85199" lon="26.08286">
        <ele>108.418719</ele>
        <time>2022-02-27T07:32:00.583Z</time>
      </trkpt>
      <trkpt lat="41.85211" lon="26.08278">
        <ele>108.31147</ele>
        <time>2022-02-27T07:32:03.590Z</time>
      </trkpt>
      <trkpt lat="41.8522" lon="26.08272">
        <ele>108.235837</ele>
        <time>2022-02-27T07:32:05.604Z</time>
      </trkpt>
      <trkpt lat="41.85228" lon="26.08267">
        <ele>108.16372</ele>
        <time>2022-02-27T07:32:07.612Z</time>
      </trkpt>
      <trkpt lat="41.85239" lon="26.08257">
        <ele>108.05662</ele>
        <time>2022-02-27T07:32:10.608Z</time>
      </trkpt>
      <trkpt lat="41.85247" lon="26.0825">
        <ele>107.981952</ele>
        <time>2022-02-27T07:32:12.571Z</time>
      </trkpt>
      <trkpt lat="41.85255" lon="26.08243">
        <ele>107.908938</ele>
        <time>2022-02-27T07:32:14.648Z</time>
      </trkpt>
      <trkpt lat="41.85262" lon="26.08236">
        <ele>107.835933</ele>
        <time>2022-02-27T07:32:16.584Z</time>
      </trkpt>
      <trkpt lat="41.8527" lon="26.08229">
        <ele>107.762272</ele>
        <time>2022-02-27T07:32:18.592Z</time>
      </trkpt>
      <trkpt lat="41.85278" lon="26.08222">
        <ele>107.698149</ele>
        <time>2022-02-27T07:32:20.613Z</time>
      </trkpt>
      <trkpt lat="41.85287" lon="26.08214">
        <ele>107.921239</ele>
        <time>2022-02-27T07:32:23.600Z</time>
      </trkpt>
      <trkpt lat="41.85295" lon="26.08204">
        <ele>108.13931</ele>
        <time>2022-02-27T07:32:26.587Z</time>
      </trkpt>
      <trkpt lat="41.85302" lon="26.08196">
        <ele>108.347709</ele>
        <time>2022-02-27T07:32:29.611Z</time>
      </trkpt>
      <trkpt lat="41.85311" lon="26.08187">
        <ele>108.566616</ele>
        <time>2022-02-27T07:32:32.601Z</time>
      </trkpt>
      <trkpt lat="41.8532" lon="26.08179">
        <ele>108.783743</ele>
        <time>2022-02-27T07:32:35.592Z</time>
      </trkpt>
      <trkpt lat="41.85328" lon="26.08172">
        <ele>108.988977</ele>
        <time>2022-02-27T07:32:38.605Z</time>
      </trkpt>
      <trkpt lat="41.85338" lon="26.08166">
        <ele>109.215543</ele>
        <time>2022-02-27T07:32:41.595Z</time>
      </trkpt>
      <trkpt lat="41.85349" lon="26.08162">
        <ele>109.448132</ele>
        <time>2022-02-27T07:32:44.595Z</time>
      </trkpt>
      <trkpt lat="41.85359" lon="26.08155">
        <ele>109.665706</ele>
        <time>2022-02-27T07:32:47.603Z</time>
      </trkpt>
      <trkpt lat="41.85366" lon="26.08146">
        <ele>109.872027</ele>
        <time>2022-02-27T07:32:50.600Z</time>
      </trkpt>
      <trkpt lat="41.85374" lon="26.08136">
        <ele>110.099324</ele>
        <time>2022-02-27T07:32:53.609Z</time>
      </trkpt>
      <trkpt lat="41.85382" lon="26.08127">
        <ele>110.318359</ele>
        <time>2022-02-27T07:32:56.585Z</time>
      </trkpt>
      <trkpt lat="41.85391" lon="26.08119">
        <ele>110.537198</ele>
        <time>2022-02-27T07:32:59.604Z</time>
      </trkpt>
      <trkpt lat="41.85399" lon="26.08111">
        <ele>110.752239</ele>
        <time>2022-02-27T07:33:02.596Z</time>
      </trkpt>
      <trkpt lat="41.85408" lon="26.08102">
        <ele>110.973331</ele>
        <time>2022-02-27T07:33:05.582Z</time>
      </trkpt>
      <trkpt lat="41.85418" lon="26.08093">
        <ele>111.221308</ele>
        <time>2022-02-27T07:33:08.626Z</time>
      </trkpt>
      <trkpt lat="41.85429" lon="26.08083">
        <ele>111.354367</ele>
        <time>2022-02-27T07:33:11.578Z</time>
      </trkpt>
      <trkpt lat="41.8544" lon="26.08073">
        <ele>111.289471</ele>
        <time>2022-02-27T07:33:14.587Z</time>
      </trkpt>
      <trkpt lat="41.8545" lon="26.08064">
        <ele>111.229702</ele>
        <time>2022-02-27T07:33:17.583Z</time>
      </trkpt>
      <trkpt lat="41.8546" lon="26.08054">
        <ele>111.166789</ele>
        <time>2022-02-27T07:33:20.601Z</time>
      </trkpt>
      <trkpt lat="41.85468" lon="26.08046">
        <ele>111.120308</ele>
        <time>2022-02-27T07:33:22.592Z</time>
      </trkpt>
      <trkpt lat="41.85475" lon="26.08039">
        <ele>111.075718</ele>
        <time>2022-02-27T07:33:24.588Z</time>
      </trkpt>
      <trkpt lat="41.85486" lon="26.08028">
        <ele>111.008884</ele>
        <time>2022-02-27T07:33:27.587Z</time>
      </trkpt>
      <trkpt lat="41.85496" lon="26.08018">
        <ele>110.947165</ele>
        <time>2022-02-27T07:33:30.626Z</time>
      </trkpt>
      <trkpt lat="41.85505" lon="26.08008">
        <ele>110.888684</ele>
        <time>2022-02-27T07:33:33.589Z</time>
      </trkpt>
      <trkpt lat="41.85515" lon="26.07997">
        <ele>110.826338</ele>
        <time>2022-02-27T07:33:36.668Z</time>
      </trkpt>
      <trkpt lat="41.85525" lon="26.07987">
        <ele>110.762444</ele>
        <time>2022-02-27T07:33:39.573Z</time>
      </trkpt>
      <trkpt lat="41.85536" lon="26.07977">
        <ele>110.698764</ele>
        <time>2022-02-27T07:33:42.595Z</time>
      </trkpt>
      <trkpt lat="41.85546" lon="26.07968">
        <ele>110.63755</ele>
        <time>2022-02-27T07:33:45.613Z</time>
      </trkpt>
      <trkpt lat="41.85557" lon="26.07958">
        <ele>110.574711</ele>
        <time>2022-02-27T07:33:48.608Z</time>
      </trkpt>
      <trkpt lat="41.85564" lon="26.07952">
        <ele>110.53056</ele>
        <time>2022-02-27T07:33:50.577Z</time>
      </trkpt>
      <trkpt lat="41.85575" lon="26.07941">
        <ele>110.417869</ele>
        <time>2022-02-27T07:33:53.609Z</time>
      </trkpt>
      <trkpt lat="41.85584" lon="26.07934">
        <ele>110.296251</ele>
        <time>2022-02-27T07:33:55.599Z</time>
      </trkpt>
      <trkpt lat="41.85592" lon="26.07927">
        <ele>110.176171</ele>
        <time>2022-02-27T07:33:57.592Z</time>
      </trkpt>
      <trkpt lat="41.856" lon="26.07919">
        <ele>110.055594</ele>
        <time>2022-02-27T07:33:59.599Z</time>
      </trkpt>
      <trkpt lat="41.85607" lon="26.07912">
        <ele>109.936818</ele>
        <time>2022-02-27T07:34:01.605Z</time>
      </trkpt>
      <trkpt lat="41.85615" lon="26.07904">
        <ele>109.824335</ele>
        <time>2022-02-27T07:34:03.606Z</time>
      </trkpt>
      <trkpt lat="41.85625" lon="26.07894">
        <ele>109.660629</ele>
        <time>2022-02-27T07:34:06.595Z</time>
      </trkpt>
      <trkpt lat="41.85636" lon="26.07883">
        <ele>109.49685</ele>
        <time>2022-02-27T07:34:09.607Z</time>
      </trkpt>
      <trkpt lat="41.85644" lon="26.07876">
        <ele>109.380835</ele>
        <time>2022-02-27T07:34:11.619Z</time>
      </trkpt>
      <trkpt lat="41.85651" lon="26.07869">
        <ele>109.269442</ele>
        <time>2022-02-27T07:34:13.595Z</time>
      </trkpt>
      <trkpt lat="41.85661" lon="26.07858">
        <ele>109.111995</ele>
        <time>2022-02-27T07:34:16.593Z</time>
      </trkpt>
      <trkpt lat="41.85671" lon="26.07848">
        <ele>108.951621</ele>
        <time>2022-02-27T07:34:19.625Z</time>
      </trkpt>
      <trkpt lat="41.85682" lon="26.07837">
        <ele>108.790687</ele>
        <time>2022-02-27T07:34:22.572Z</time>
      </trkpt>
      <trkpt lat="41.85689" lon="26.0783">
        <ele>108.678752</ele>
        <time>2022-02-27T07:34:24.603Z</time>
      </trkpt>
      <trkpt lat="41.857" lon="26.07819">
        <ele>108.513328</ele>
        <time>2022-02-27T07:34:27.627Z</time>
      </trkpt>
      <trkpt lat="41.8571" lon="26.07808">
        <ele>108.348956</ele>
        <time>2022-02-27T07:34:30.601Z</time>
      </trkpt>
      <trkpt lat="41.85717" lon="26.078">
        <ele>108.232537</ele>
        <time>2022-02-27T07:34:32.586Z</time>
      </trkpt>
      <trkpt lat="41.85723" lon="26.07791">
        <ele>108.101458</ele>
        <time>2022-02-27T07:34:34.619Z</time>
      </trkpt>
      <trkpt lat="41.8573" lon="26.07782">
        <ele>107.970468</ele>
        <time>2022-02-27T07:34:36.598Z</time>
      </trkpt>
      <trkpt lat="41.85736" lon="26.07774">
        <ele>107.841744</ele>
        <time>2022-02-27T07:34:38.607Z</time>
      </trkpt>
      <trkpt lat="41.85746" lon="26.07761">
        <ele>107.647245</ele>
        <time>2022-02-27T07:34:41.573Z</time>
      </trkpt>
      <trkpt lat="41.85752" lon="26.07752">
        <ele>107.511725</ele>
        <time>2022-02-27T07:34:43.585Z</time>
      </trkpt>
      <trkpt lat="41.85759" lon="26.07742">
        <ele>107.373158</ele>
        <time>2022-02-27T07:34:45.594Z</time>
      </trkpt>
      <trkpt lat="41.85766" lon="26.07733">
        <ele>107.238645</ele>
        <time>2022-02-27T07:34:47.602Z</time>
      </trkpt>
      <trkpt lat="41.85772" lon="26.07724">
        <ele>107.101088</ele>
        <time>2022-02-27T07:34:49.585Z</time>
      </trkpt>
      <trkpt lat="41.85779" lon="26.07714">
        <ele>106.95879</ele>
        <time>2022-02-27T07:34:51.589Z</time>
      </trkpt>
      <trkpt lat="41.85786" lon="26.07704">
        <ele>106.815539</ele>
        <time>2022-02-27T07:34:53.620Z</time>
      </trkpt>
      <trkpt lat="41.85791" lon="26.07694">
        <ele>106.677163</ele>
        <time>2022-02-27T07:34:55.585Z</time>
      </trkpt>
      <trkpt lat="41.85798" lon="26.07683">
        <ele>106.529381</ele>
        <time>2022-02-27T07:34:57.600Z</time>
      </trkpt>
      <trkpt lat="41.85804" lon="26.07671">
        <ele>106.373071</ele>
        <time>2022-02-27T07:34:59.600Z</time>
      </trkpt>
      <trkpt lat="41.85811" lon="26.0766">
        <ele>106.225251</ele>
        <time>2022-02-27T07:35:01.592Z</time>
      </trkpt>
      <trkpt lat="41.85817" lon="26.0765">
        <ele>106.081711</ele>
        <time>2022-02-27T07:35:03.624Z</time>
      </trkpt>
      <trkpt lat="41.85824" lon="26.07638">
        <ele>105.926995</ele>
        <time>2022-02-27T07:35:05.627Z</time>
      </trkpt>
      <trkpt lat="41.85831" lon="26.07628">
        <ele>105.777194</ele>
        <time>2022-02-27T07:35:07.616Z</time>
      </trkpt>
      <trkpt lat="41.85837" lon="26.07617">
        <ele>105.70457</ele>
        <time>2022-02-27T07:35:09.610Z</time>
      </trkpt>
      <trkpt lat="41.85843" lon="26.07608">
        <ele>105.719428</ele>
        <time>2022-02-27T07:35:11.604Z</time>
      </trkpt>
      <trkpt lat="41.8585" lon="26.07595">
        <ele>105.739134</ele>
        <time>2022-02-27T07:35:14.617Z</time>
      </trkpt>
      <trkpt lat="41.85857" lon="26.07586">
        <ele>105.754251</ele>
        <time>2022-02-27T07:35:16.618Z</time>
      </trkpt>
      <trkpt lat="41.85863" lon="26.07576">
        <ele>105.770884</ele>
        <time>2022-02-27T07:35:18.607Z</time>
      </trkpt>
      <trkpt lat="41.8587" lon="26.07565">
        <ele>105.787186</ele>
        <time>2022-02-27T07:35:20.606Z</time>
      </trkpt>
      <trkpt lat="41.85876" lon="26.07554">
        <ele>105.80449</ele>
        <time>2022-02-27T07:35:22.632Z</time>
      </trkpt>
      <trkpt lat="41.85884" lon="26.07544">
        <ele>105.821289</ele>
        <time>2022-02-27T07:35:24.615Z</time>
      </trkpt>
      <trkpt lat="41.8589" lon="26.07534">
        <ele>105.837956</ele>
        <time>2022-02-27T07:35:26.589Z</time>
      </trkpt>
      <trkpt lat="41.85897" lon="26.07523">
        <ele>105.854367</ele>
        <time>2022-02-27T07:35:28.597Z</time>
      </trkpt>
      <trkpt lat="41.85904" lon="26.07514">
        <ele>105.870458</ele>
        <time>2022-02-27T07:35:30.604Z</time>
      </trkpt>
      <trkpt lat="41.85911" lon="26.07503">
        <ele>105.887775</ele>
        <time>2022-02-27T07:35:32.613Z</time>
      </trkpt>
      <trkpt lat="41.85917" lon="26.07492">
        <ele>105.904684</ele>
        <time>2022-02-27T07:35:34.594Z</time>
      </trkpt>
      <trkpt lat="41.85924" lon="26.07482">
        <ele>105.920359</ele>
        <time>2022-02-27T07:35:36.596Z</time>
      </trkpt>
      <trkpt lat="41.85929" lon="26.07473">
        <ele>105.935311</ele>
        <time>2022-02-27T07:35:38.597Z</time>
      </trkpt>
      <trkpt lat="41.85938" lon="26.07459">
        <ele>105.956983</ele>
        <time>2022-02-27T07:35:41.583Z</time>
      </trkpt>
      <trkpt lat="41.85947" lon="26.07447">
        <ele>105.976926</ele>
        <time>2022-02-27T07:35:44.641Z</time>
      </trkpt>
      <trkpt lat="41.85955" lon="26.07434">
        <ele>106.034212</ele>
        <time>2022-02-27T07:35:47.603Z</time>
      </trkpt>
      <trkpt lat="41.85962" lon="26.07424">
        <ele>106.111527</ele>
        <time>2022-02-27T07:35:49.582Z</time>
      </trkpt>
      <trkpt lat="41.85968" lon="26.07413">
        <ele>106.190826</ele>
        <time>2022-02-27T07:35:51.592Z</time>
      </trkpt>
      <trkpt lat="41.85975" lon="26.07402">
        <ele>106.27431</ele>
        <time>2022-02-27T07:35:53.606Z</time>
      </trkpt>
      <trkpt lat="41.85981" lon="26.07393">
        <ele>106.348716</ele>
        <time>2022-02-27T07:35:55.593Z</time>
      </trkpt>
      <trkpt lat="41.85987" lon="26.07383">
        <ele>106.42333</ele>
        <time>2022-02-27T07:35:57.593Z</time>
      </trkpt>
      <trkpt lat="41.85993" lon="26.07373">
        <ele>106.502483</ele>
        <time>2022-02-27T07:35:59.598Z</time>
      </trkpt>
      <trkpt lat="41.86" lon="26.07362">
        <ele>106.583195</ele>
        <time>2022-02-27T07:36:01.614Z</time>
      </trkpt>
      <trkpt lat="41.86006" lon="26.07351">
        <ele>106.665164</ele>
        <time>2022-02-27T07:36:03.600Z</time>
      </trkpt>
      <trkpt lat="41.86012" lon="26.07341">
        <ele>106.742986</ele>
        <time>2022-02-27T07:36:05.585Z</time>
      </trkpt>
      <trkpt lat="41.86018" lon="26.07331">
        <ele>106.818943</ele>
        <time>2022-02-27T07:36:07.604Z</time>
      </trkpt>
      <trkpt lat="41.86025" lon="26.07321">
        <ele>106.89787</ele>
        <time>2022-02-27T07:36:09.589Z</time>
      </trkpt>
      <trkpt lat="41.86031" lon="26.07312">
        <ele>106.969753</ele>
        <time>2022-02-27T07:36:11.608Z</time>
      </trkpt>
      <trkpt lat="41.86037" lon="26.07303">
        <ele>107.044014</ele>
        <time>2022-02-27T07:36:13.630Z</time>
      </trkpt>
      <trkpt lat="41.86044" lon="26.07292">
        <ele>107.128459</ele>
        <time>2022-02-27T07:36:15.604Z</time>
      </trkpt>
      <trkpt lat="41.86051" lon="26.07282">
        <ele>107.210734</ele>
        <time>2022-02-27T07:36:17.595Z</time>
      </trkpt>
      <trkpt lat="41.86058" lon="26.07271">
        <ele>107.292859</ele>
        <time>2022-02-27T07:36:19.587Z</time>
      </trkpt>
      <trkpt lat="41.86065" lon="26.0726">
        <ele>107.37968</ele>
        <time>2022-02-27T07:36:21.603Z</time>
      </trkpt>
      <trkpt lat="41.86071" lon="26.07249">
        <ele>107.470763</ele>
        <time>2022-02-27T07:36:23.615Z</time>
      </trkpt>
      <trkpt lat="41.86078" lon="26.07238">
        <ele>107.568814</ele>
        <time>2022-02-27T07:36:25.603Z</time>
      </trkpt>
      <trkpt lat="41.86084" lon="26.07228">
        <ele>107.663031</ele>
        <time>2022-02-27T07:36:27.586Z</time>
      </trkpt>
      <trkpt lat="41.86091" lon="26.07218">
        <ele>107.753572</ele>
        <time>2022-02-27T07:36:29.589Z</time>
      </trkpt>
      <trkpt lat="41.86097" lon="26.07209">
        <ele>107.843085</ele>
        <time>2022-02-27T07:36:31.581Z</time>
      </trkpt>
      <trkpt lat="41.86104" lon="26.07199">
        <ele>107.934563</ele>
        <time>2022-02-27T07:36:33.587Z</time>
      </trkpt>
      <trkpt lat="41.8611" lon="26.07189">
        <ele>108.028108</ele>
        <time>2022-02-27T07:36:35.623Z</time>
      </trkpt>
      <trkpt lat="41.86116" lon="26.07178">
        <ele>108.122153</ele>
        <time>2022-02-27T07:36:37.589Z</time>
      </trkpt>
      <trkpt lat="41.86122" lon="26.07168">
        <ele>108.213418</ele>
        <time>2022-02-27T07:36:39.589Z</time>
      </trkpt>
      <trkpt lat="41.86128" lon="26.07158">
        <ele>108.305279</ele>
        <time>2022-02-27T07:36:41.638Z</time>
      </trkpt>
      <trkpt lat="41.86135" lon="26.07148">
        <ele>108.397907</ele>
        <time>2022-02-27T07:36:43.589Z</time>
      </trkpt>
      <trkpt lat="41.86141" lon="26.07138">
        <ele>108.488767</ele>
        <time>2022-02-27T07:36:45.603Z</time>
      </trkpt>
      <trkpt lat="41.86147" lon="26.07129">
        <ele>108.574981</ele>
        <time>2022-02-27T07:36:47.601Z</time>
      </trkpt>
      <trkpt lat="41.86155" lon="26.07114">
        <ele>108.699942</ele>
        <time>2022-02-27T07:36:50.613Z</time>
      </trkpt>
      <trkpt lat="41.86163" lon="26.07101">
        <ele>108.819929</ele>
        <time>2022-02-27T07:36:53.607Z</time>
      </trkpt>
      <trkpt lat="41.86171" lon="26.07089">
        <ele>108.934746</ele>
        <time>2022-02-27T07:36:56.591Z</time>
      </trkpt>
      <trkpt lat="41.86179" lon="26.07077">
        <ele>109.049273</ele>
        <time>2022-02-27T07:36:59.599Z</time>
      </trkpt>
      <trkpt lat="41.86187" lon="26.07063">
        <ele>109.138686</ele>
        <time>2022-02-27T07:37:02.594Z</time>
      </trkpt>
      <trkpt lat="41.86195" lon="26.07051">
        <ele>109.195775</ele>
        <time>2022-02-27T07:37:05.635Z</time>
      </trkpt>
      <trkpt lat="41.86203" lon="26.07039">
        <ele>109.251548</ele>
        <time>2022-02-27T07:37:08.577Z</time>
      </trkpt>
      <trkpt lat="41.86212" lon="26.07026">
        <ele>109.309107</ele>
        <time>2022-02-27T07:37:11.620Z</time>
      </trkpt>
      <trkpt lat="41.8622" lon="26.07013">
        <ele>109.365596</ele>
        <time>2022-02-27T07:37:14.617Z</time>
      </trkpt>
      <trkpt lat="41.86228" lon="26.07">
        <ele>109.42286</ele>
        <time>2022-02-27T07:37:17.605Z</time>
      </trkpt>
      <trkpt lat="41.86236" lon="26.06987">
        <ele>109.481825</ele>
        <time>2022-02-27T07:37:20.673Z</time>
      </trkpt>
      <trkpt lat="41.86245" lon="26.06974">
        <ele>109.539424</ele>
        <time>2022-02-27T07:37:23.583Z</time>
      </trkpt>
      <trkpt lat="41.86253" lon="26.06962">
        <ele>109.59383</ele>
        <time>2022-02-27T07:37:26.585Z</time>
      </trkpt>
      <trkpt lat="41.8626" lon="26.06951">
        <ele>109.644005</ele>
        <time>2022-02-27T07:37:29.605Z</time>
      </trkpt>
      <trkpt lat="41.86267" lon="26.06939">
        <ele>109.696653</ele>
        <time>2022-02-27T07:37:32.596Z</time>
      </trkpt>
      <trkpt lat="41.86275" lon="26.06926">
        <ele>109.752495</ele>
        <time>2022-02-27T07:37:35.601Z</time>
      </trkpt>
      <trkpt lat="41.86282" lon="26.06914">
        <ele>109.80508</ele>
        <time>2022-02-27T07:37:38.591Z</time>
      </trkpt>
      <trkpt lat="41.8629" lon="26.06903">
        <ele>109.857693</ele>
        <time>2022-02-27T07:37:41.594Z</time>
      </trkpt>
      <trkpt lat="41.86296" lon="26.06892">
        <ele>109.90451</ele>
        <time>2022-02-27T07:37:44.621Z</time>
      </trkpt>
      <trkpt lat="41.86303" lon="26.0688">
        <ele>109.921107</ele>
        <time>2022-02-27T07:37:47.603Z</time>
      </trkpt>
      <trkpt lat="41.8631" lon="26.06868">
        <ele>109.900127</ele>
        <time>2022-02-27T07:37:50.607Z</time>
      </trkpt>
      <trkpt lat="41.86317" lon="26.06856">
        <ele>109.87758</ele>
        <time>2022-02-27T07:37:53.607Z</time>
      </trkpt>
      <trkpt lat="41.86326" lon="26.06843">
        <ele>109.853515</ele>
        <time>2022-02-27T07:37:56.588Z</time>
      </trkpt>
      <trkpt lat="41.86332" lon="26.06834">
        <ele>109.836358</ele>
        <time>2022-02-27T07:37:58.591Z</time>
      </trkpt>
      <trkpt lat="41.86338" lon="26.06824">
        <ele>109.819098</ele>
        <time>2022-02-27T07:38:00.622Z</time>
      </trkpt>
      <trkpt lat="41.86347" lon="26.06812">
        <ele>109.79438</ele>
        <time>2022-02-27T07:38:03.588Z</time>
      </trkpt>
      <trkpt lat="41.86355" lon="26.06798">
        <ele>109.770587</ele>
        <time>2022-02-27T07:38:06.577Z</time>
      </trkpt>
      <trkpt lat="41.86363" lon="26.06785">
        <ele>109.74759</ele>
        <time>2022-02-27T07:38:09.603Z</time>
      </trkpt>
      <trkpt lat="41.86371" lon="26.06772">
        <ele>109.723664</ele>
        <time>2022-02-27T07:38:12.570Z</time>
      </trkpt>
      <trkpt lat="41.8638" lon="26.06759">
        <ele>109.698479</ele>
        <time>2022-02-27T07:38:15.608Z</time>
      </trkpt>
      <trkpt lat="41.86386" lon="26.06749">
        <ele>109.681066</ele>
        <time>2022-02-27T07:38:17.608Z</time>
      </trkpt>
      <trkpt lat="41.86392" lon="26.06739">
        <ele>109.663405</ele>
        <time>2022-02-27T07:38:19.593Z</time>
      </trkpt>
      <trkpt lat="41.86399" lon="26.0673">
        <ele>109.645688</ele>
        <time>2022-02-27T07:38:21.599Z</time>
      </trkpt>
      <trkpt lat="41.86405" lon="26.0672">
        <ele>109.628239</ele>
        <time>2022-02-27T07:38:23.608Z</time>
      </trkpt>
      <trkpt lat="41.86411" lon="26.06711">
        <ele>109.610107</ele>
        <time>2022-02-27T07:38:25.591Z</time>
      </trkpt>
      <trkpt lat="41.86417" lon="26.06701">
        <ele>109.593976</ele>
        <time>2022-02-27T07:38:27.583Z</time>
      </trkpt>
      <trkpt lat="41.86424" lon="26.0669">
        <ele>109.588491</ele>
        <time>2022-02-27T07:38:29.603Z</time>
      </trkpt>
      <trkpt lat="41.86429" lon="26.06679">
        <ele>109.58323</ele>
        <time>2022-02-27T07:38:31.608Z</time>
      </trkpt>
      <trkpt lat="41.86435" lon="26.06669">
        <ele>109.577904</ele>
        <time>2022-02-27T07:38:33.609Z</time>
      </trkpt>
      <trkpt lat="41.86442" lon="26.06659">
        <ele>109.572529</ele>
        <time>2022-02-27T07:38:35.592Z</time>
      </trkpt>
      <trkpt lat="41.86448" lon="26.06648">
        <ele>109.567068</ele>
        <time>2022-02-27T07:38:37.633Z</time>
      </trkpt>
      <trkpt lat="41.86455" lon="26.06638">
        <ele>109.561632</ele>
        <time>2022-02-27T07:38:39.587Z</time>
      </trkpt>
      <trkpt lat="41.86461" lon="26.06628">
        <ele>109.556464</ele>
        <time>2022-02-27T07:38:41.621Z</time>
      </trkpt>
      <trkpt lat="41.86467" lon="26.06618">
        <ele>109.551042</ele>
        <time>2022-02-27T07:38:43.591Z</time>
      </trkpt>
      <trkpt lat="41.86473" lon="26.06607">
        <ele>109.545493</ele>
        <time>2022-02-27T07:38:45.647Z</time>
      </trkpt>
      <trkpt lat="41.8648" lon="26.06596">
        <ele>109.539907</ele>
        <time>2022-02-27T07:38:47.583Z</time>
      </trkpt>
      <trkpt lat="41.86487" lon="26.06585">
        <ele>109.53434</ele>
        <time>2022-02-27T07:38:49.606Z</time>
      </trkpt>
      <trkpt lat="41.86494" lon="26.06575">
        <ele>109.528723</ele>
        <time>2022-02-27T07:38:51.614Z</time>
      </trkpt>
      <trkpt lat="41.86501" lon="26.06565">
        <ele>109.52306</ele>
        <time>2022-02-27T07:38:53.621Z</time>
      </trkpt>
      <trkpt lat="41.86507" lon="26.06554">
        <ele>109.51773</ele>
        <time>2022-02-27T07:38:55.590Z</time>
      </trkpt>
      <trkpt lat="41.86513" lon="26.06545">
        <ele>109.512613</ele>
        <time>2022-02-27T07:38:57.603Z</time>
      </trkpt>
      <trkpt lat="41.8652" lon="26.06535">
        <ele>109.507526</ele>
        <time>2022-02-27T07:38:59.604Z</time>
      </trkpt>
      <trkpt lat="41.86526" lon="26.06526">
        <ele>109.50227</ele>
        <time>2022-02-27T07:39:01.604Z</time>
      </trkpt>
      <trkpt lat="41.86533" lon="26.06516">
        <ele>109.504872</ele>
        <time>2022-02-27T07:39:03.580Z</time>
      </trkpt>
      <trkpt lat="41.86539" lon="26.06506">
        <ele>109.559519</ele>
        <time>2022-02-27T07:39:05.610Z</time>
      </trkpt>
      <trkpt lat="41.86545" lon="26.06497">
        <ele>109.612386</ele>
        <time>2022-02-27T07:39:07.598Z</time>
      </trkpt>
      <trkpt lat="41.86553" lon="26.06483">
        <ele>109.687414</ele>
        <time>2022-02-27T07:39:10.585Z</time>
      </trkpt>
      <trkpt lat="41.86559" lon="26.06473">
        <ele>109.740612</ele>
        <time>2022-02-27T07:39:12.606Z</time>
      </trkpt>
      <trkpt lat="41.86565" lon="26.06463">
        <ele>109.795187</ele>
        <time>2022-02-27T07:39:14.595Z</time>
      </trkpt>
      <trkpt lat="41.86571" lon="26.06452">
        <ele>109.853869</ele>
        <time>2022-02-27T07:39:16.595Z</time>
      </trkpt>
      <trkpt lat="41.86578" lon="26.06441">
        <ele>109.914566</ele>
        <time>2022-02-27T07:39:18.611Z</time>
      </trkpt>
      <trkpt lat="41.86585" lon="26.0643">
        <ele>109.974717</ele>
        <time>2022-02-27T07:39:20.600Z</time>
      </trkpt>
      <trkpt lat="41.86591" lon="26.0642">
        <ele>110.032092</ele>
        <time>2022-02-27T07:39:22.600Z</time>
      </trkpt>
      <trkpt lat="41.86597" lon="26.0641">
        <ele>110.086667</ele>
        <time>2022-02-27T07:39:24.656Z</time>
      </trkpt>
      <trkpt lat="41.86606" lon="26.06396">
        <ele>110.163431</ele>
        <time>2022-02-27T07:39:27.588Z</time>
      </trkpt>
      <trkpt lat="41.86611" lon="26.06386">
        <ele>110.216276</ele>
        <time>2022-02-27T07:39:29.604Z</time>
      </trkpt>
      <trkpt lat="41.86618" lon="26.06376">
        <ele>110.271294</ele>
        <time>2022-02-27T07:39:31.608Z</time>
      </trkpt>
      <trkpt lat="41.86624" lon="26.06366">
        <ele>110.328024</ele>
        <time>2022-02-27T07:39:33.589Z</time>
      </trkpt>
      <trkpt lat="41.86631" lon="26.06357">
        <ele>110.384948</ele>
        <time>2022-02-27T07:39:35.596Z</time>
      </trkpt>
      <trkpt lat="41.86637" lon="26.06347">
        <ele>110.439966</ele>
        <time>2022-02-27T07:39:37.589Z</time>
      </trkpt>
      <trkpt lat="41.86644" lon="26.06337">
        <ele>110.496751</ele>
        <time>2022-02-27T07:39:39.572Z</time>
      </trkpt>
      <trkpt lat="41.8665" lon="26.06327">
        <ele>110.601016</ele>
        <time>2022-02-27T07:39:41.598Z</time>
      </trkpt>
      <trkpt lat="41.86655" lon="26.06317">
        <ele>110.754362</ele>
        <time>2022-02-27T07:39:43.596Z</time>
      </trkpt>
      <trkpt lat="41.86663" lon="26.06303">
        <ele>110.976601</ele>
        <time>2022-02-27T07:39:46.583Z</time>
      </trkpt>
      <trkpt lat="41.86671" lon="26.0629">
        <ele>111.190053</ele>
        <time>2022-02-27T07:39:49.604Z</time>
      </trkpt>
      <trkpt lat="41.8668" lon="26.06277">
        <ele>111.414941</ele>
        <time>2022-02-27T07:39:52.580Z</time>
      </trkpt>
      <trkpt lat="41.86687" lon="26.06264">
        <ele>111.625065</ele>
        <time>2022-02-27T07:39:55.600Z</time>
      </trkpt>
      <trkpt lat="41.86695" lon="26.06251">
        <ele>111.829054</ele>
        <time>2022-02-27T07:39:58.594Z</time>
      </trkpt>
      <trkpt lat="41.86701" lon="26.06239">
        <ele>112.013752</ele>
        <time>2022-02-27T07:40:01.603Z</time>
      </trkpt>
      <trkpt lat="41.86707" lon="26.06228">
        <ele>112.19435</ele>
        <time>2022-02-27T07:40:04.587Z</time>
      </trkpt>
      <trkpt lat="41.86715" lon="26.06216">
        <ele>112.386469</ele>
        <time>2022-02-27T07:40:07.586Z</time>
      </trkpt>
      <trkpt lat="41.86722" lon="26.06205">
        <ele>112.573519</ele>
        <time>2022-02-27T07:40:10.607Z</time>
      </trkpt>
      <trkpt lat="41.8673" lon="26.06193">
        <ele>112.776131</ele>
        <time>2022-02-27T07:40:13.598Z</time>
      </trkpt>
      <trkpt lat="41.86739" lon="26.06181">
        <ele>112.992135</ele>
        <time>2022-02-27T07:40:16.585Z</time>
      </trkpt>
      <trkpt lat="41.86745" lon="26.06169">
        <ele>113.182889</ele>
        <time>2022-02-27T07:40:19.600Z</time>
      </trkpt>
      <trkpt lat="41.86752" lon="26.06154">
        <ele>113.401332</ele>
        <time>2022-02-27T07:40:22.608Z</time>
      </trkpt>
      <trkpt lat="41.86757" lon="26.06143">
        <ele>113.55739</ele>
        <time>2022-02-27T07:40:24.601Z</time>
      </trkpt>
      <trkpt lat="41.86764" lon="26.06129">
        <ele>113.535619</ele>
        <time>2022-02-27T07:40:27.612Z</time>
      </trkpt>
      <trkpt lat="41.86771" lon="26.06115">
        <ele>113.489407</ele>
        <time>2022-02-27T07:40:30.584Z</time>
      </trkpt>
      <trkpt lat="41.86777" lon="26.06101">
        <ele>113.445733</ele>
        <time>2022-02-27T07:40:33.604Z</time>
      </trkpt>
      <trkpt lat="41.86783" lon="26.06086">
        <ele>113.398633</ele>
        <time>2022-02-27T07:40:36.601Z</time>
      </trkpt>
      <trkpt lat="41.86787" lon="26.06074">
        <ele>113.36211</ele>
        <time>2022-02-27T07:40:38.614Z</time>
      </trkpt>
      <trkpt lat="41.86791" lon="26.06062">
        <ele>113.325664</ele>
        <time>2022-02-27T07:40:40.627Z</time>
      </trkpt>
      <trkpt lat="41.86795" lon="26.06051">
        <ele>113.28953</ele>
        <time>2022-02-27T07:40:42.582Z</time>
      </trkpt>
      <trkpt lat="41.86799" lon="26.06039">
        <ele>113.25617</ele>
        <time>2022-02-27T07:40:44.614Z</time>
      </trkpt>
      <trkpt lat="41.86803" lon="26.06028">
        <ele>113.221198</ele>
        <time>2022-02-27T07:40:46.615Z</time>
      </trkpt>
      <trkpt lat="41.86806" lon="26.06016">
        <ele>113.184997</ele>
        <time>2022-02-27T07:40:48.590Z</time>
      </trkpt>
      <trkpt lat="41.86809" lon="26.06004">
        <ele>113.150722</ele>
        <time>2022-02-27T07:40:50.596Z</time>
      </trkpt>
      <trkpt lat="41.86812" lon="26.05992">
        <ele>113.115015</ele>
        <time>2022-02-27T07:40:52.591Z</time>
      </trkpt>
      <trkpt lat="41.86815" lon="26.0598">
        <ele>113.079339</ele>
        <time>2022-02-27T07:40:54.594Z</time>
      </trkpt>
      <trkpt lat="41.86818" lon="26.05962">
        <ele>113.029452</ele>
        <time>2022-02-27T07:40:57.646Z</time>
      </trkpt>
      <trkpt lat="41.8682" lon="26.0595">
        <ele>112.994527</ele>
        <time>2022-02-27T07:40:59.584Z</time>
      </trkpt>
      <trkpt lat="41.86822" lon="26.05937">
        <ele>112.960364</ele>
        <time>2022-02-27T07:41:01.585Z</time>
      </trkpt>
      <trkpt lat="41.86823" lon="26.05924">
        <ele>112.924012</ele>
        <time>2022-02-27T07:41:03.609Z</time>
      </trkpt>
      <trkpt lat="41.86824" lon="26.05911">
        <ele>112.792346</ele>
        <time>2022-02-27T07:41:05.604Z</time>
      </trkpt>
      <trkpt lat="41.86826" lon="26.05898">
        <ele>112.603338</ele>
        <time>2022-02-27T07:41:07.596Z</time>
      </trkpt>
      <trkpt lat="41.86827" lon="26.05885">
        <ele>112.421047</ele>
        <time>2022-02-27T07:41:09.611Z</time>
      </trkpt>
      <trkpt lat="41.86829" lon="26.05872">
        <ele>112.234295</ele>
        <time>2022-02-27T07:41:11.592Z</time>
      </trkpt>
      <trkpt lat="41.8683" lon="26.05859">
        <ele>112.04808</ele>
        <time>2022-02-27T07:41:13.582Z</time>
      </trkpt>
      <trkpt lat="41.86831" lon="26.05846">
        <ele>111.857421</ele>
        <time>2022-02-27T07:41:15.602Z</time>
      </trkpt>
      <trkpt lat="41.86833" lon="26.05832">
        <ele>111.66649</ele>
        <time>2022-02-27T07:41:17.584Z</time>
      </trkpt>
      <trkpt lat="41.86834" lon="26.05819">
        <ele>111.470495</ele>
        <time>2022-02-27T07:41:19.595Z</time>
      </trkpt>
      <trkpt lat="41.86835" lon="26.05805">
        <ele>111.27774</ele>
        <time>2022-02-27T07:41:21.603Z</time>
      </trkpt>
      <trkpt lat="41.86836" lon="26.05792">
        <ele>111.08757</ele>
        <time>2022-02-27T07:41:23.600Z</time>
      </trkpt>
      <trkpt lat="41.86838" lon="26.05778">
        <ele>110.901356</ele>
        <time>2022-02-27T07:41:25.608Z</time>
      </trkpt>
      <trkpt lat="41.86839" lon="26.05765">
        <ele>110.707637</ele>
        <time>2022-02-27T07:41:27.601Z</time>
      </trkpt>
      <trkpt lat="41.86841" lon="26.05752">
        <ele>110.51863</ele>
        <time>2022-02-27T07:41:29.647Z</time>
      </trkpt>
      <trkpt lat="41.86842" lon="26.05739">
        <ele>110.341044</ele>
        <time>2022-02-27T07:41:31.593Z</time>
      </trkpt>
      <trkpt lat="41.86843" lon="26.05727">
        <ele>110.163206</ele>
        <time>2022-02-27T07:41:33.615Z</time>
      </trkpt>
      <trkpt lat="41.86845" lon="26.05714">
        <ele>109.981048</ele>
        <time>2022-02-27T07:41:35.606Z</time>
      </trkpt>
      <trkpt lat="41.86846" lon="26.05701">
        <ele>109.794574</ele>
        <time>2022-02-27T07:41:37.635Z</time>
      </trkpt>
      <trkpt lat="41.86847" lon="26.05687">
        <ele>109.604404</ele>
        <time>2022-02-27T07:41:39.583Z</time>
      </trkpt>
      <trkpt lat="41.86849" lon="26.05674">
        <ele>109.46977</ele>
        <time>2022-02-27T07:41:41.606Z</time>
      </trkpt>
      <trkpt lat="41.8685" lon="26.05661">
        <ele>109.394255</ele>
        <time>2022-02-27T07:41:43.604Z</time>
      </trkpt>
      <trkpt lat="41.86852" lon="26.05648">
        <ele>109.320952</ele>
        <time>2022-02-27T07:41:45.693Z</time>
      </trkpt>
      <trkpt lat="41.86854" lon="26.05635">
        <ele>109.246544</ele>
        <time>2022-02-27T07:41:47.609Z</time>
      </trkpt>
      <trkpt lat="41.86855" lon="26.05622">
        <ele>109.17312</ele>
        <time>2022-02-27T07:41:49.600Z</time>
      </trkpt>
      <trkpt lat="41.86856" lon="26.05609">
        <ele>109.101159</ele>
        <time>2022-02-27T07:41:51.604Z</time>
      </trkpt>
      <trkpt lat="41.86857" lon="26.05597">
        <ele>109.031626</ele>
        <time>2022-02-27T07:41:53.605Z</time>
      </trkpt>
      <trkpt lat="41.86859" lon="26.05585">
        <ele>108.963424</ele>
        <time>2022-02-27T07:41:55.608Z</time>
      </trkpt>
      <trkpt lat="41.86861" lon="26.05567">
        <ele>108.863266</ele>
        <time>2022-02-27T07:41:58.606Z</time>
      </trkpt>
      <trkpt lat="41.86863" lon="26.05554">
        <ele>108.790638</ele>
        <time>2022-02-27T07:42:00.598Z</time>
      </trkpt>
      <trkpt lat="41.86864" lon="26.05541">
        <ele>108.714999</ele>
        <time>2022-02-27T07:42:02.604Z</time>
      </trkpt>
      <trkpt lat="41.86866" lon="26.05529">
        <ele>108.645137</ele>
        <time>2022-02-27T07:42:04.596Z</time>
      </trkpt>
      <trkpt lat="41.86868" lon="26.05516">
        <ele>108.571713</ele>
        <time>2022-02-27T07:42:06.636Z</time>
      </trkpt>
      <trkpt lat="41.86869" lon="26.05502">
        <ele>108.497176</ele>
        <time>2022-02-27T07:42:08.588Z</time>
      </trkpt>
      <trkpt lat="41.8687" lon="26.0549">
        <ele>108.425322</ele>
        <time>2022-02-27T07:42:10.631Z</time>
      </trkpt>
      <trkpt lat="41.86871" lon="26.05477">
        <ele>108.350785</ele>
        <time>2022-02-27T07:42:12.583Z</time>
      </trkpt>
      <trkpt lat="41.86872" lon="26.05464">
        <ele>108.279203</ele>
        <time>2022-02-27T07:42:14.601Z</time>
      </trkpt>
      <trkpt lat="41.86874" lon="26.05446">
        <ele>108.179264</ele>
        <time>2022-02-27T07:42:17.602Z</time>
      </trkpt>
      <trkpt lat="41.86876" lon="26.05429">
        <ele>108.245633</ele>
        <time>2022-02-27T07:42:20.601Z</time>
      </trkpt>
      <trkpt lat="41.86878" lon="26.05411">
        <ele>108.36937</ele>
        <time>2022-02-27T07:42:23.586Z</time>
      </trkpt>
      <trkpt lat="41.86879" lon="26.05399">
        <ele>108.456299</ele>
        <time>2022-02-27T07:42:25.588Z</time>
      </trkpt>
      <trkpt lat="41.8688" lon="26.05385">
        <ele>108.55206</ele>
        <time>2022-02-27T07:42:27.596Z</time>
      </trkpt>
      <trkpt lat="41.86882" lon="26.05372">
        <ele>108.642557</ele>
        <time>2022-02-27T07:42:29.594Z</time>
      </trkpt>
      <trkpt lat="41.86883" lon="26.05359">
        <ele>108.734872</ele>
        <time>2022-02-27T07:42:31.601Z</time>
      </trkpt>
      <trkpt lat="41.86884" lon="26.05346">
        <ele>108.824552</ele>
        <time>2022-02-27T07:42:33.605Z</time>
      </trkpt>
      <trkpt lat="41.86885" lon="26.05333">
        <ele>108.913309</ele>
        <time>2022-02-27T07:42:35.614Z</time>
      </trkpt>
      <trkpt lat="41.86886" lon="26.05321">
        <ele>108.998737</ele>
        <time>2022-02-27T07:42:37.616Z</time>
      </trkpt>
      <trkpt lat="41.86888" lon="26.05309">
        <ele>109.085801</ele>
        <time>2022-02-27T07:42:39.601Z</time>
      </trkpt>
      <trkpt lat="41.86889" lon="26.05297">
        <ele>109.17027</ele>
        <time>2022-02-27T07:42:41.612Z</time>
      </trkpt>
      <trkpt lat="41.86892" lon="26.0528">
        <ele>109.289703</ele>
        <time>2022-02-27T07:42:44.623Z</time>
      </trkpt>
      <trkpt lat="41.86894" lon="26.05263">
        <ele>109.41086</ele>
        <time>2022-02-27T07:42:47.599Z</time>
      </trkpt>
      <trkpt lat="41.86897" lon="26.05245">
        <ele>109.533538</ele>
        <time>2022-02-27T07:42:50.589Z</time>
      </trkpt>
      <trkpt lat="41.86899" lon="26.05228">
        <ele>109.651952</ele>
        <time>2022-02-27T07:42:53.601Z</time>
      </trkpt>
      <trkpt lat="41.86901" lon="26.05212">
        <ele>109.77105</ele>
        <time>2022-02-27T07:42:56.599Z</time>
      </trkpt>
      <trkpt lat="41.86903" lon="26.05195">
        <ele>109.928034</ele>
        <time>2022-02-27T07:42:59.599Z</time>
      </trkpt>
      <trkpt lat="41.86905" lon="26.05178">
        <ele>110.128062</ele>
        <time>2022-02-27T07:43:02.597Z</time>
      </trkpt>
      <trkpt lat="41.86907" lon="26.0516">
        <ele>110.338658</ele>
        <time>2022-02-27T07:43:05.585Z</time>
      </trkpt>
      <trkpt lat="41.86908" lon="26.05144">
        <ele>110.528845</ele>
        <time>2022-02-27T07:43:08.582Z</time>
      </trkpt>
      <trkpt lat="41.86908" lon="26.05127">
        <ele>110.727747</ele>
        <time>2022-02-27T07:43:11.620Z</time>
      </trkpt>
      <trkpt lat="41.86909" lon="26.05111">
        <ele>110.925883</ele>
        <time>2022-02-27T07:43:14.602Z</time>
      </trkpt>
      <trkpt lat="41.8691" lon="26.05093">
        <ele>111.128083</ele>
        <time>2022-02-27T07:43:17.604Z</time>
      </trkpt>
      <trkpt lat="41.86911" lon="26.05076">
        <ele>111.338191</ele>
        <time>2022-02-27T07:43:20.597Z</time>
      </trkpt>
      <trkpt lat="41.86913" lon="26.05059">
        <ele>111.540927</ele>
        <time>2022-02-27T07:43:23.605Z</time>
      </trkpt>
      <trkpt lat="41.86914" lon="26.05042">
        <ele>111.735111</ele>
        <time>2022-02-27T07:43:26.609Z</time>
      </trkpt>
      <trkpt lat="41.86916" lon="26.05026">
        <ele>111.926781</ele>
        <time>2022-02-27T07:43:29.622Z</time>
      </trkpt>
      <trkpt lat="41.86917" lon="26.0501">
        <ele>112.113774</ele>
        <time>2022-02-27T07:43:32.600Z</time>
      </trkpt>
      <trkpt lat="41.86919" lon="26.04994">
        <ele>112.302512</ele>
        <time>2022-02-27T07:43:35.613Z</time>
      </trkpt>
      <trkpt lat="41.8692" lon="26.04978">
        <ele>112.495428</ele>
        <time>2022-02-27T07:43:38.660Z</time>
      </trkpt>
      <trkpt lat="41.86922" lon="26.04962">
        <ele>112.678789</ele>
        <time>2022-02-27T07:43:41.639Z</time>
      </trkpt>
      <trkpt lat="41.86924" lon="26.04946">
        <ele>112.783766</ele>
        <time>2022-02-27T07:43:44.623Z</time>
      </trkpt>
      <trkpt lat="41.86926" lon="26.04929">
        <ele>112.889984</ele>
        <time>2022-02-27T07:43:47.613Z</time>
      </trkpt>
      <trkpt lat="41.86927" lon="26.04912">
        <ele>112.992985</ele>
        <time>2022-02-27T07:43:50.584Z</time>
      </trkpt>
      <trkpt lat="41.86928" lon="26.04898">
        <ele>113.08679</ele>
        <time>2022-02-27T07:43:53.606Z</time>
      </trkpt>
      <trkpt lat="41.8693" lon="26.04882">
        <ele>113.183174</ele>
        <time>2022-02-27T07:43:56.591Z</time>
      </trkpt>
      <trkpt lat="41.86931" lon="26.04868">
        <ele>113.275397</ele>
        <time>2022-02-27T07:43:59.623Z</time>
      </trkpt>
      <trkpt lat="41.86932" lon="26.04853">
        <ele>113.36762</ele>
        <time>2022-02-27T07:44:02.603Z</time>
      </trkpt>
      <trkpt lat="41.86933" lon="26.04839">
        <ele>113.455586</ele>
        <time>2022-02-27T07:44:05.587Z</time>
      </trkpt>
      <trkpt lat="41.86934" lon="26.04826">
        <ele>113.539519</ele>
        <time>2022-02-27T07:44:08.607Z</time>
      </trkpt>
      <trkpt lat="41.86935" lon="26.04813">
        <ele>113.622562</ele>
        <time>2022-02-27T07:44:11.636Z</time>
      </trkpt>
      <trkpt lat="41.86937" lon="26.048">
        <ele>113.704629</ele>
        <time>2022-02-27T07:44:14.584Z</time>
      </trkpt>
      <trkpt lat="41.86938" lon="26.04786">
        <ele>113.78794</ele>
        <time>2022-02-27T07:44:17.605Z</time>
      </trkpt>
      <trkpt lat="41.86939" lon="26.04773">
        <ele>113.87418</ele>
        <time>2022-02-27T07:44:20.596Z</time>
      </trkpt>
      <trkpt lat="41.8694" lon="26.04759">
        <ele>113.95855</ele>
        <time>2022-02-27T07:44:23.580Z</time>
      </trkpt>
      <trkpt lat="41.86941" lon="26.04746">
        <ele>114.04321</ele>
        <time>2022-02-27T07:44:26.606Z</time>
      </trkpt>
      <trkpt lat="41.86942" lon="26.04733">
        <ele>114.121661</ele>
        <time>2022-02-27T07:44:29.609Z</time>
      </trkpt>
      <trkpt lat="41.86943" lon="26.04721">
        <ele>114.218442</ele>
        <time>2022-02-27T07:44:32.602Z</time>
      </trkpt>
      <trkpt lat="41.86944" lon="26.04708">
        <ele>114.386969</ele>
        <time>2022-02-27T07:44:35.603Z</time>
      </trkpt>
      <trkpt lat="41.86944" lon="26.04696">
        <ele>114.547525</ele>
        <time>2022-02-27T07:44:38.592Z</time>
      </trkpt>
      <trkpt lat="41.86943" lon="26.04683">
        <ele>114.712172</ele>
        <time>2022-02-27T07:44:41.591Z</time>
      </trkpt>
      <trkpt lat="41.86944" lon="26.04671">
        <ele>114.879448</ele>
        <time>2022-02-27T07:44:44.600Z</time>
      </trkpt>
      <trkpt lat="41.86944" lon="26.04658">
        <ele>115.049244</ele>
        <time>2022-02-27T07:44:47.589Z</time>
      </trkpt>
      <trkpt lat="41.86944" lon="26.04644">
        <ele>115.229539</ele>
        <time>2022-02-27T07:44:50.623Z</time>
      </trkpt>
      <trkpt lat="41.86944" lon="26.0463">
        <ele>115.411176</ele>
        <time>2022-02-27T07:44:53.600Z</time>
      </trkpt>
      <trkpt lat="41.86944" lon="26.04617">
        <ele>115.591462</ele>
        <time>2022-02-27T07:44:56.631Z</time>
      </trkpt>
      <trkpt lat="41.86943" lon="26.04602">
        <ele>115.777425</ele>
        <time>2022-02-27T07:44:59.591Z</time>
      </trkpt>
      <trkpt lat="41.86942" lon="26.04588">
        <ele>115.974147</ele>
        <time>2022-02-27T07:45:02.663Z</time>
      </trkpt>
      <trkpt lat="41.86942" lon="26.04573">
        <ele>116.16648</ele>
        <time>2022-02-27T07:45:05.602Z</time>
      </trkpt>
      <trkpt lat="41.86941" lon="26.04558">
        <ele>116.365825</ele>
        <time>2022-02-27T07:45:08.603Z</time>
      </trkpt>
      <trkpt lat="41.8694" lon="26.04542">
        <ele>116.569252</ele>
        <time>2022-02-27T07:45:11.616Z</time>
      </trkpt>
      <trkpt lat="41.86939" lon="26.04527">
        <ele>116.768911</ele>
        <time>2022-02-27T07:45:14.585Z</time>
      </trkpt>
      <trkpt lat="41.86938" lon="26.04512">
        <ele>116.972675</ele>
        <time>2022-02-27T07:45:17.603Z</time>
      </trkpt>
      <trkpt lat="41.86937" lon="26.04497">
        <ele>117.176102</ele>
        <time>2022-02-27T07:45:20.621Z</time>
      </trkpt>
      <trkpt lat="41.86935" lon="26.04481">
        <ele>117.346113</ele>
        <time>2022-02-27T07:45:23.631Z</time>
      </trkpt>
      <trkpt lat="41.86934" lon="26.04466">
        <ele>117.097315</ele>
        <time>2022-02-27T07:45:26.613Z</time>
      </trkpt>
      <trkpt lat="41.86933" lon="26.04451">
        <ele>116.842291</ele>
        <time>2022-02-27T07:45:29.612Z</time>
      </trkpt>
      <trkpt lat="41.86932" lon="26.04435">
        <ele>116.572357</ele>
        <time>2022-02-27T07:45:32.651Z</time>
      </trkpt>
      <trkpt lat="41.86931" lon="26.04419">
        <ele>116.305149</ele>
        <time>2022-02-27T07:45:35.607Z</time>
      </trkpt>
      <trkpt lat="41.8693" lon="26.04403">
        <ele>116.038351</ele>
        <time>2022-02-27T07:45:38.603Z</time>
      </trkpt>
      <trkpt lat="41.86929" lon="26.04387">
        <ele>115.766393</ele>
        <time>2022-02-27T07:45:41.628Z</time>
      </trkpt>
      <trkpt lat="41.86927" lon="26.0437">
        <ele>115.482051</ele>
        <time>2022-02-27T07:45:44.606Z</time>
      </trkpt>
      <trkpt lat="41.86926" lon="26.04353">
        <ele>115.206105</ele>
        <time>2022-02-27T07:45:47.595Z</time>
      </trkpt>
      <trkpt lat="41.86925" lon="26.04337">
        <ele>114.92983</ele>
        <time>2022-02-27T07:45:50.614Z</time>
      </trkpt>
      <trkpt lat="41.86924" lon="26.0432">
        <ele>114.654562</ele>
        <time>2022-02-27T07:45:53.600Z</time>
      </trkpt>
      <trkpt lat="41.86923" lon="26.04303">
        <ele>114.372858</ele>
        <time>2022-02-27T07:45:56.589Z</time>
      </trkpt>
      <trkpt lat="41.86922" lon="26.04286">
        <ele>114.090546</ele>
        <time>2022-02-27T07:45:59.605Z</time>
      </trkpt>
      <trkpt lat="41.86921" lon="26.0427">
        <ele>113.813622</ele>
        <time>2022-02-27T07:46:02.614Z</time>
      </trkpt>
      <trkpt lat="41.86919" lon="26.04253">
        <ele>113.541225</ele>
        <time>2022-02-27T07:46:05.605Z</time>
      </trkpt>
      <trkpt lat="41.86918" lon="26.04238">
        <ele>113.384983</ele>
        <time>2022-02-27T07:46:08.600Z</time>
      </trkpt>
      <trkpt lat="41.86917" lon="26.04221">
        <ele>113.511921</ele>
        <time>2022-02-27T07:46:11.626Z</time>
      </trkpt>
      <trkpt lat="41.86916" lon="26.04205">
        <ele>113.637675</ele>
        <time>2022-02-27T07:46:14.605Z</time>
      </trkpt>
      <trkpt lat="41.86915" lon="26.04188">
        <ele>113.76791</ele>
        <time>2022-02-27T07:46:17.621Z</time>
      </trkpt>
      <trkpt lat="41.86915" lon="26.04171">
        <ele>113.903507</ele>
        <time>2022-02-27T07:46:20.625Z</time>
      </trkpt>
      <trkpt lat="41.86914" lon="26.04154">
        <ele>114.037783</ele>
        <time>2022-02-27T07:46:23.605Z</time>
      </trkpt>
      <trkpt lat="41.86912" lon="26.04137">
        <ele>114.170044</ele>
        <time>2022-02-27T07:46:26.649Z</time>
      </trkpt>
      <trkpt lat="41.86911" lon="26.04121">
        <ele>114.294578</ele>
        <time>2022-02-27T07:46:29.601Z</time>
      </trkpt>
      <trkpt lat="41.8691" lon="26.04105">
        <ele>114.422754</ele>
        <time>2022-02-27T07:46:32.583Z</time>
      </trkpt>
      <trkpt lat="41.86909" lon="26.04088">
        <ele>114.555316</ele>
        <time>2022-02-27T07:46:35.604Z</time>
      </trkpt>
      <trkpt lat="41.86907" lon="26.04071">
        <ele>114.684485</ele>
        <time>2022-02-27T07:46:38.602Z</time>
      </trkpt>
      <trkpt lat="41.86906" lon="26.04055">
        <ele>114.813541</ele>
        <time>2022-02-27T07:46:41.604Z</time>
      </trkpt>
      <trkpt lat="41.86904" lon="26.04037">
        <ele>114.952225</ele>
        <time>2022-02-27T07:46:44.616Z</time>
      </trkpt>
      <trkpt lat="41.86903" lon="26.0402">
        <ele>115.085259</ele>
        <time>2022-02-27T07:46:47.596Z</time>
      </trkpt>
      <trkpt lat="41.86901" lon="26.04003">
        <ele>115.216225</ele>
        <time>2022-02-27T07:46:50.610Z</time>
      </trkpt>
      <trkpt lat="41.869" lon="26.03987">
        <ele>115.407691</ele>
        <time>2022-02-27T07:46:53.589Z</time>
      </trkpt>
      <trkpt lat="41.86899" lon="26.0397">
        <ele>115.607388</ele>
        <time>2022-02-27T07:46:56.602Z</time>
      </trkpt>
      <trkpt lat="41.86898" lon="26.03952">
        <ele>115.814427</ele>
        <time>2022-02-27T07:46:59.601Z</time>
      </trkpt>
      <trkpt lat="41.86897" lon="26.03935">
        <ele>116.018389</ele>
        <time>2022-02-27T07:47:02.605Z</time>
      </trkpt>
      <trkpt lat="41.86895" lon="26.03918">
        <ele>116.227241</ele>
        <time>2022-02-27T07:47:05.635Z</time>
      </trkpt>
      <trkpt lat="41.86894" lon="26.03901">
        <ele>116.433738</ele>
        <time>2022-02-27T07:47:08.600Z</time>
      </trkpt>
      <trkpt lat="41.86892" lon="26.03883">
        <ele>116.644772</ele>
        <time>2022-02-27T07:47:11.609Z</time>
      </trkpt>
      <trkpt lat="41.86891" lon="26.03866">
        <ele>116.84605</ele>
        <time>2022-02-27T07:47:14.608Z</time>
      </trkpt>
      <trkpt lat="41.8689" lon="26.03849">
        <ele>117.05119</ele>
        <time>2022-02-27T07:47:17.612Z</time>
      </trkpt>
      <trkpt lat="41.86889" lon="26.03833">
        <ele>117.243919</ele>
        <time>2022-02-27T07:47:20.595Z</time>
      </trkpt>
      <trkpt lat="41.86888" lon="26.03816">
        <ele>117.437829</ele>
        <time>2022-02-27T07:47:23.596Z</time>
      </trkpt>
      <trkpt lat="41.86887" lon="26.03799">
        <ele>117.647104</ele>
        <time>2022-02-27T07:47:26.599Z</time>
      </trkpt>
      <trkpt lat="41.86885" lon="26.03781">
        <ele>117.857134</ele>
        <time>2022-02-27T07:47:29.601Z</time>
      </trkpt>
      <trkpt lat="41.86883" lon="26.03764">
        <ele>118.064998</ele>
        <time>2022-02-27T07:47:32.593Z</time>
      </trkpt>
      <trkpt lat="41.86882" lon="26.03747">
        <ele>118.142126</ele>
        <time>2022-02-27T07:47:35.613Z</time>
      </trkpt>
      <trkpt lat="41.86881" lon="26.0373">
        <ele>118.200152</ele>
        <time>2022-02-27T07:47:38.609Z</time>
      </trkpt>
      <trkpt lat="41.8688" lon="26.03713">
        <ele>118.257534</ele>
        <time>2022-02-27T07:47:41.607Z</time>
      </trkpt>
      <trkpt lat="41.86878" lon="26.03697">
        <ele>118.312334</ele>
        <time>2022-02-27T07:47:44.636Z</time>
      </trkpt>
      <trkpt lat="41.86877" lon="26.03682">
        <ele>118.365925</ele>
        <time>2022-02-27T07:47:47.602Z</time>
      </trkpt>
      <trkpt lat="41.86876" lon="26.03668">
        <ele>118.415291</ele>
        <time>2022-02-27T07:47:50.604Z</time>
      </trkpt>
      <trkpt lat="41.86875" lon="26.03652">
        <ele>118.468583</ele>
        <time>2022-02-27T07:47:53.625Z</time>
      </trkpt>
      <trkpt lat="41.86875" lon="26.03636">
        <ele>118.523697</ele>
        <time>2022-02-27T07:47:56.580Z</time>
      </trkpt>
      <trkpt lat="41.86875" lon="26.0362">
        <ele>118.579897</ele>
        <time>2022-02-27T07:47:59.595Z</time>
      </trkpt>
      <trkpt lat="41.86876" lon="26.03603">
        <ele>118.636864</ele>
        <time>2022-02-27T07:48:02.631Z</time>
      </trkpt>
      <trkpt lat="41.86877" lon="26.03586">
        <ele>118.693525</ele>
        <time>2022-02-27T07:48:05.608Z</time>
      </trkpt>
      <trkpt lat="41.86879" lon="26.0357">
        <ele>118.750671</ele>
        <time>2022-02-27T07:48:08.593Z</time>
      </trkpt>
      <trkpt lat="41.86881" lon="26.03553">
        <ele>118.807964</ele>
        <time>2022-02-27T07:48:11.579Z</time>
      </trkpt>
      <trkpt lat="41.86883" lon="26.03537">
        <ele>118.865042</ele>
        <time>2022-02-27T07:48:14.599Z</time>
      </trkpt>
      <trkpt lat="41.86886" lon="26.0352">
        <ele>118.929395</ele>
        <time>2022-02-27T07:48:17.605Z</time>
      </trkpt>
      <trkpt lat="41.86889" lon="26.03503">
        <ele>119.062975</ele>
        <time>2022-02-27T07:48:20.590Z</time>
      </trkpt>
      <trkpt lat="41.86891" lon="26.03487">
        <ele>119.196315</ele>
        <time>2022-02-27T07:48:23.598Z</time>
      </trkpt>
      <trkpt lat="41.86894" lon="26.03471">
        <ele>119.320093</ele>
        <time>2022-02-27T07:48:26.600Z</time>
      </trkpt>
      <trkpt lat="41.86897" lon="26.03455">
        <ele>119.449649</ele>
        <time>2022-02-27T07:48:29.633Z</time>
      </trkpt>
      <trkpt lat="41.869" lon="26.03439">
        <ele>119.580995</ele>
        <time>2022-02-27T07:48:32.608Z</time>
      </trkpt>
      <trkpt lat="41.86904" lon="26.03422">
        <ele>119.715146</ele>
        <time>2022-02-27T07:48:35.607Z</time>
      </trkpt>
      <trkpt lat="41.86907" lon="26.03405">
        <ele>119.850247</ele>
        <time>2022-02-27T07:48:38.597Z</time>
      </trkpt>
      <trkpt lat="41.8691" lon="26.03388">
        <ele>119.98534</ele>
        <time>2022-02-27T07:48:41.606Z</time>
      </trkpt>
      <trkpt lat="41.86913" lon="26.03372">
        <ele>120.118764</ele>
        <time>2022-02-27T07:48:44.608Z</time>
      </trkpt>
      <trkpt lat="41.86915" lon="26.03355">
        <ele>120.251991</ele>
        <time>2022-02-27T07:48:47.607Z</time>
      </trkpt>
      <trkpt lat="41.86917" lon="26.03338">
        <ele>120.385969</ele>
        <time>2022-02-27T07:48:50.595Z</time>
      </trkpt>
      <trkpt lat="41.8692" lon="26.03321">
        <ele>120.518026</ele>
        <time>2022-02-27T07:48:53.606Z</time>
      </trkpt>
      <trkpt lat="41.86922" lon="26.03305">
        <ele>120.649615</ele>
        <time>2022-02-27T07:48:56.611Z</time>
      </trkpt>
      <trkpt lat="41.86925" lon="26.03288">
        <ele>120.778425</ele>
        <time>2022-02-27T07:48:59.611Z</time>
      </trkpt>
      <trkpt lat="41.86928" lon="26.03273">
        <ele>120.84469</ele>
        <time>2022-02-27T07:49:02.593Z</time>
      </trkpt>
      <trkpt lat="41.86931" lon="26.03256">
        <ele>120.905783</ele>
        <time>2022-02-27T07:49:05.604Z</time>
      </trkpt>
      <trkpt lat="41.86934" lon="26.03239">
        <ele>120.967103</ele>
        <time>2022-02-27T07:49:08.611Z</time>
      </trkpt>
      <trkpt lat="41.86937" lon="26.03221">
        <ele>121.027881</ele>
        <time>2022-02-27T07:49:11.593Z</time>
      </trkpt>
      <trkpt lat="41.8694" lon="26.03204">
        <ele>121.088421</ele>
        <time>2022-02-27T07:49:14.607Z</time>
      </trkpt>
      <trkpt lat="41.86943" lon="26.03188">
        <ele>121.146937</ele>
        <time>2022-02-27T07:49:17.703Z</time>
      </trkpt>
      <trkpt lat="41.86945" lon="26.03172">
        <ele>121.204463</ele>
        <time>2022-02-27T07:49:20.612Z</time>
      </trkpt>
      <trkpt lat="41.86948" lon="26.03156">
        <ele>121.262233</ele>
        <time>2022-02-27T07:49:23.610Z</time>
      </trkpt>
      <trkpt lat="41.86951" lon="26.0314">
        <ele>121.318167</ele>
        <time>2022-02-27T07:49:26.611Z</time>
      </trkpt>
      <trkpt lat="41.86953" lon="26.03124">
        <ele>121.373462</ele>
        <time>2022-02-27T07:49:29.616Z</time>
      </trkpt>
      <trkpt lat="41.86956" lon="26.0311">
        <ele>121.42591</ele>
        <time>2022-02-27T07:49:32.612Z</time>
      </trkpt>
      <trkpt lat="41.86958" lon="26.03094">
        <ele>121.480386</ele>
        <time>2022-02-27T07:49:35.642Z</time>
      </trkpt>
      <trkpt lat="41.86961" lon="26.0308">
        <ele>121.532188</ele>
        <time>2022-02-27T07:49:38.605Z</time>
      </trkpt>
      <trkpt lat="41.86963" lon="26.03065">
        <ele>121.586224</ele>
        <time>2022-02-27T07:49:41.587Z</time>
      </trkpt>
      <trkpt lat="41.86965" lon="26.03049">
        <ele>121.659607</ele>
        <time>2022-02-27T07:49:44.607Z</time>
      </trkpt>
      <trkpt lat="41.86967" lon="26.03034">
        <ele>121.862575</ele>
        <time>2022-02-27T07:49:47.600Z</time>
      </trkpt>
      <trkpt lat="41.86969" lon="26.03018">
        <ele>122.068129</ele>
        <time>2022-02-27T07:49:50.607Z</time>
      </trkpt>
      <trkpt lat="41.86972" lon="26.03003">
        <ele>122.275536</ele>
        <time>2022-02-27T07:49:53.617Z</time>
      </trkpt>
      <trkpt lat="41.86975" lon="26.02988">
        <ele>122.482303</ele>
        <time>2022-02-27T07:49:56.627Z</time>
      </trkpt>
      <trkpt lat="41.86978" lon="26.02973">
        <ele>122.689949</ele>
        <time>2022-02-27T07:49:59.591Z</time>
      </trkpt>
      <trkpt lat="41.86981" lon="26.02957">
        <ele>122.906544</ele>
        <time>2022-02-27T07:50:02.585Z</time>
      </trkpt>
      <trkpt lat="41.86984" lon="26.02941">
        <ele>123.124858</ele>
        <time>2022-02-27T07:50:05.617Z</time>
      </trkpt>
      <trkpt lat="41.86986" lon="26.02925">
        <ele>123.331923</ele>
        <time>2022-02-27T07:50:08.615Z</time>
      </trkpt>
      <trkpt lat="41.86988" lon="26.02909">
        <ele>123.543555</ele>
        <time>2022-02-27T07:50:11.600Z</time>
      </trkpt>
      <trkpt lat="41.8699" lon="26.02894">
        <ele>123.757784</ele>
        <time>2022-02-27T07:50:14.594Z</time>
      </trkpt>
      <trkpt lat="41.86993" lon="26.02878">
        <ele>123.97482</ele>
        <time>2022-02-27T07:50:17.608Z</time>
      </trkpt>
      <trkpt lat="41.86996" lon="26.02861">
        <ele>124.199576</ele>
        <time>2022-02-27T07:50:20.598Z</time>
      </trkpt>
      <trkpt lat="41.86999" lon="26.02844">
        <ele>124.431563</ele>
        <time>2022-02-27T07:50:23.591Z</time>
      </trkpt>
      <trkpt lat="41.87002" lon="26.02828">
        <ele>124.647313</ele>
        <time>2022-02-27T07:50:26.616Z</time>
      </trkpt>
      <trkpt lat="41.87004" lon="26.02811">
        <ele>124.804607</ele>
        <time>2022-02-27T07:50:29.605Z</time>
      </trkpt>
      <trkpt lat="41.87006" lon="26.02795">
        <ele>124.706194</ele>
        <time>2022-02-27T07:50:32.607Z</time>
      </trkpt>
      <trkpt lat="41.87009" lon="26.02778">
        <ele>124.605485</ele>
        <time>2022-02-27T07:50:35.669Z</time>
      </trkpt>
      <trkpt lat="41.87011" lon="26.02761">
        <ele>124.505649</ele>
        <time>2022-02-27T07:50:38.595Z</time>
      </trkpt>
      <trkpt lat="41.87014" lon="26.02744">
        <ele>124.408349</ele>
        <time>2022-02-27T07:50:41.597Z</time>
      </trkpt>
      <trkpt lat="41.87016" lon="26.02728">
        <ele>124.310792</ele>
        <time>2022-02-27T07:50:44.594Z</time>
      </trkpt>
      <trkpt lat="41.87019" lon="26.02711">
        <ele>124.212096</ele>
        <time>2022-02-27T07:50:47.606Z</time>
      </trkpt>
      <trkpt lat="41.87022" lon="26.02695">
        <ele>124.113309</ele>
        <time>2022-02-27T07:50:50.605Z</time>
      </trkpt>
      <trkpt lat="41.87025" lon="26.02678">
        <ele>124.015289</ele>
        <time>2022-02-27T07:50:53.599Z</time>
      </trkpt>
      <trkpt lat="41.87029" lon="26.02662">
        <ele>123.917103</ele>
        <time>2022-02-27T07:50:56.595Z</time>
      </trkpt>
      <trkpt lat="41.87031" lon="26.02647">
        <ele>123.82564</ele>
        <time>2022-02-27T07:50:59.599Z</time>
      </trkpt>
      <trkpt lat="41.87034" lon="26.02632">
        <ele>123.736073</ele>
        <time>2022-02-27T07:51:02.616Z</time>
      </trkpt>
      <trkpt lat="41.87037" lon="26.02616">
        <ele>123.641454</ele>
        <time>2022-02-27T07:51:05.612Z</time>
      </trkpt>
      <trkpt lat="41.8704" lon="26.026">
        <ele>123.548901</ele>
        <time>2022-02-27T07:51:08.652Z</time>
      </trkpt>
      <trkpt lat="41.87043" lon="26.02585">
        <ele>123.457658</ele>
        <time>2022-02-27T07:51:11.596Z</time>
      </trkpt>
      <trkpt lat="41.87045" lon="26.02568">
        <ele>123.313672</ele>
        <time>2022-02-27T07:51:14.606Z</time>
      </trkpt>
      <trkpt lat="41.87047" lon="26.02556">
        <ele>123.194622</ele>
        <time>2022-02-27T07:51:16.595Z</time>
      </trkpt>
      <trkpt lat="41.87049" lon="26.02544">
        <ele>123.078644</ele>
        <time>2022-02-27T07:51:18.607Z</time>
      </trkpt>
      <trkpt lat="41.87053" lon="26.02528">
        <ele>122.914395</ele>
        <time>2022-02-27T07:51:21.608Z</time>
      </trkpt>
      <trkpt lat="41.87056" lon="26.02512">
        <ele>122.755765</ele>
        <time>2022-02-27T07:51:24.603Z</time>
      </trkpt>
      <trkpt lat="41.87058" lon="26.02496">
        <ele>122.603257</ele>
        <time>2022-02-27T07:51:27.587Z</time>
      </trkpt>
      <trkpt lat="41.87061" lon="26.02481">
        <ele>122.453037</ele>
        <time>2022-02-27T07:51:30.622Z</time>
      </trkpt>
      <trkpt lat="41.87063" lon="26.02467">
        <ele>122.311684</ele>
        <time>2022-02-27T07:51:33.587Z</time>
      </trkpt>
      <trkpt lat="41.87065" lon="26.02451">
        <ele>122.160566</ele>
        <time>2022-02-27T07:51:36.608Z</time>
      </trkpt>
      <trkpt lat="41.87067" lon="26.02435">
        <ele>122.003537</ele>
        <time>2022-02-27T07:51:39.602Z</time>
      </trkpt>
      <trkpt lat="41.87069" lon="26.02419">
        <ele>121.845499</ele>
        <time>2022-02-27T07:51:42.594Z</time>
      </trkpt>
      <trkpt lat="41.87072" lon="26.02403">
        <ele>121.683791</ele>
        <time>2022-02-27T07:51:45.584Z</time>
      </trkpt>
      <trkpt lat="41.87075" lon="26.02386">
        <ele>121.51954</ele>
        <time>2022-02-27T07:51:48.611Z</time>
      </trkpt>
      <trkpt lat="41.87077" lon="26.0237">
        <ele>121.355698</ele>
        <time>2022-02-27T07:51:51.623Z</time>
      </trkpt>
      <trkpt lat="41.87079" lon="26.02353">
        <ele>121.191598</ele>
        <time>2022-02-27T07:51:54.598Z</time>
      </trkpt>
      <trkpt lat="41.87081" lon="26.02336">
        <ele>121.102599</ele>
        <time>2022-02-27T07:51:57.629Z</time>
      </trkpt>
      <trkpt lat="41.87084" lon="26.0232">
        <ele>121.117185</ele>
        <time>2022-02-27T07:52:00.619Z</time>
      </trkpt>
      <trkpt lat="41.87086" lon="26.02303">
        <ele>121.131855</ele>
        <time>2022-02-27T07:52:03.611Z</time>
      </trkpt>
      <trkpt lat="41.87089" lon="26.02286">
        <ele>121.14638</ele>
        <time>2022-02-27T07:52:06.609Z</time>
      </trkpt>
      <trkpt lat="41.87091" lon="26.0227">
        <ele>121.160564</ele>
        <time>2022-02-27T07:52:09.595Z</time>
      </trkpt>
      <trkpt lat="41.87093" lon="26.02253">
        <ele>121.175002</ele>
        <time>2022-02-27T07:52:12.615Z</time>
      </trkpt>
      <trkpt lat="41.87096" lon="26.02237">
        <ele>121.189061</ele>
        <time>2022-02-27T07:52:15.639Z</time>
      </trkpt>
      <trkpt lat="41.87098" lon="26.02221">
        <ele>121.203527</ele>
        <time>2022-02-27T07:52:18.594Z</time>
      </trkpt>
      <trkpt lat="41.87101" lon="26.02204">
        <ele>121.218243</ele>
        <time>2022-02-27T07:52:21.607Z</time>
      </trkpt>
      <trkpt lat="41.87104" lon="26.02188">
        <ele>121.232709</ele>
        <time>2022-02-27T07:52:24.597Z</time>
      </trkpt>
      <trkpt lat="41.87107" lon="26.02171">
        <ele>121.247309</ele>
        <time>2022-02-27T07:52:27.603Z</time>
      </trkpt>
      <trkpt lat="41.8711" lon="26.02154">
        <ele>121.262602</ele>
        <time>2022-02-27T07:52:30.642Z</time>
      </trkpt>
      <trkpt lat="41.87112" lon="26.02136">
        <ele>121.277502</ele>
        <time>2022-02-27T07:52:33.590Z</time>
      </trkpt>
      <trkpt lat="41.87115" lon="26.02119">
        <ele>121.292721</ele>
        <time>2022-02-27T07:52:36.593Z</time>
      </trkpt>
      <trkpt lat="41.87117" lon="26.02102">
        <ele>121.350248</ele>
        <time>2022-02-27T07:52:39.613Z</time>
      </trkpt>
      <trkpt lat="41.8712" lon="26.02086">
        <ele>121.520498</ele>
        <time>2022-02-27T07:52:42.623Z</time>
      </trkpt>
      <trkpt lat="41.87123" lon="26.02069">
        <ele>121.698016</ele>
        <time>2022-02-27T07:52:45.603Z</time>
      </trkpt>
      <trkpt lat="41.87126" lon="26.02052">
        <ele>121.876655</ele>
        <time>2022-02-27T07:52:48.606Z</time>
      </trkpt>
      <trkpt lat="41.87128" lon="26.02035">
        <ele>122.043518</ele>
        <time>2022-02-27T07:52:51.627Z</time>
      </trkpt>
      <trkpt lat="41.8713" lon="26.02018">
        <ele>122.221389</ele>
        <time>2022-02-27T07:52:54.606Z</time>
      </trkpt>
      <trkpt lat="41.87132" lon="26.02002">
        <ele>122.392551</ele>
        <time>2022-02-27T07:52:57.591Z</time>
      </trkpt>
      <trkpt lat="41.87135" lon="26.01984">
        <ele>122.576183</ele>
        <time>2022-02-27T07:53:00.606Z</time>
      </trkpt>
      <trkpt lat="41.87137" lon="26.01966">
        <ele>122.756828</ele>
        <time>2022-02-27T07:53:03.606Z</time>
      </trkpt>
      <trkpt lat="41.8714" lon="26.01949">
        <ele>122.936467</ele>
        <time>2022-02-27T07:53:06.603Z</time>
      </trkpt>
      <trkpt lat="41.87142" lon="26.01932">
        <ele>123.110333</ele>
        <time>2022-02-27T07:53:09.640Z</time>
      </trkpt>
      <trkpt lat="41.87144" lon="26.01915">
        <ele>123.290706</ele>
        <time>2022-02-27T07:53:12.589Z</time>
      </trkpt>
      <trkpt lat="41.87147" lon="26.01899">
        <ele>123.459306</ele>
        <time>2022-02-27T07:53:15.624Z</time>
      </trkpt>
      <trkpt lat="41.87151" lon="26.01884">
        <ele>123.621109</ele>
        <time>2022-02-27T07:53:18.605Z</time>
      </trkpt>
      <trkpt lat="41.87154" lon="26.01868">
        <ele>123.757421</ele>
        <time>2022-02-27T07:53:21.611Z</time>
      </trkpt>
      <trkpt lat="41.87157" lon="26.01852">
        <ele>123.718954</ele>
        <time>2022-02-27T07:53:24.584Z</time>
      </trkpt>
      <trkpt lat="41.8716" lon="26.01835">
        <ele>123.680195</ele>
        <time>2022-02-27T07:53:27.623Z</time>
      </trkpt>
      <trkpt lat="41.87163" lon="26.01818">
        <ele>123.641296</ele>
        <time>2022-02-27T07:53:30.605Z</time>
      </trkpt>
      <trkpt lat="41.87165" lon="26.01801">
        <ele>123.603085</ele>
        <time>2022-02-27T07:53:33.601Z</time>
      </trkpt>
      <trkpt lat="41.87168" lon="26.01784">
        <ele>123.564051</ele>
        <time>2022-02-27T07:53:36.594Z</time>
      </trkpt>
      <trkpt lat="41.8717" lon="26.01767">
        <ele>123.524779</ele>
        <time>2022-02-27T07:53:39.609Z</time>
      </trkpt>
      <trkpt lat="41.87172" lon="26.0175">
        <ele>123.487058</ele>
        <time>2022-02-27T07:53:42.613Z</time>
      </trkpt>
      <trkpt lat="41.87174" lon="26.01733">
        <ele>123.448794</ele>
        <time>2022-02-27T07:53:45.631Z</time>
      </trkpt>
      <trkpt lat="41.87176" lon="26.01716">
        <ele>123.409743</ele>
        <time>2022-02-27T07:53:48.612Z</time>
      </trkpt>
      <trkpt lat="41.87178" lon="26.01699">
        <ele>123.370337</ele>
        <time>2022-02-27T07:53:51.603Z</time>
      </trkpt>
      <trkpt lat="41.8718" lon="26.01682">
        <ele>123.330968</ele>
        <time>2022-02-27T07:53:54.628Z</time>
      </trkpt>
      <trkpt lat="41.87182" lon="26.01665">
        <ele>123.292209</ele>
        <time>2022-02-27T07:53:57.584Z</time>
      </trkpt>
      <trkpt lat="41.87184" lon="26.01648">
        <ele>123.254387</ele>
        <time>2022-02-27T07:54:00.605Z</time>
      </trkpt>
      <trkpt lat="41.87187" lon="26.01631">
        <ele>123.219611</ele>
        <time>2022-02-27T07:54:03.620Z</time>
      </trkpt>
      <trkpt lat="41.8719" lon="26.01614">
        <ele>123.212278</ele>
        <time>2022-02-27T07:54:06.586Z</time>
      </trkpt>
      <trkpt lat="41.87192" lon="26.01598">
        <ele>123.20507</ele>
        <time>2022-02-27T07:54:09.606Z</time>
      </trkpt>
      <trkpt lat="41.87195" lon="26.01582">
        <ele>123.198005</ele>
        <time>2022-02-27T07:54:12.610Z</time>
      </trkpt>
      <trkpt lat="41.87198" lon="26.01566">
        <ele>123.191066</ele>
        <time>2022-02-27T07:54:15.591Z</time>
      </trkpt>
      <trkpt lat="41.872" lon="26.0155">
        <ele>123.184025</ele>
        <time>2022-02-27T07:54:18.626Z</time>
      </trkpt>
      <trkpt lat="41.87202" lon="26.01533">
        <ele>123.176978</ele>
        <time>2022-02-27T07:54:21.625Z</time>
      </trkpt>
      <trkpt lat="41.87204" lon="26.01517">
        <ele>123.170016</ele>
        <time>2022-02-27T07:54:24.575Z</time>
      </trkpt>
      <trkpt lat="41.87205" lon="26.01501">
        <ele>123.163214</ele>
        <time>2022-02-27T07:54:27.591Z</time>
      </trkpt>
      <trkpt lat="41.87206" lon="26.01485">
        <ele>123.156274</ele>
        <time>2022-02-27T07:54:30.615Z</time>
      </trkpt>
      <trkpt lat="41.87208" lon="26.01469">
        <ele>123.149269</ele>
        <time>2022-02-27T07:54:33.603Z</time>
      </trkpt>
      <trkpt lat="41.87209" lon="26.01452">
        <ele>123.142038</ele>
        <time>2022-02-27T07:54:36.616Z</time>
      </trkpt>
      <trkpt lat="41.8721" lon="26.01435">
        <ele>123.134823</ele>
        <time>2022-02-27T07:54:39.643Z</time>
      </trkpt>
      <trkpt lat="41.87211" lon="26.01419">
        <ele>123.127948</ele>
        <time>2022-02-27T07:54:42.615Z</time>
      </trkpt>
      <trkpt lat="41.87213" lon="26.01401">
        <ele>123.120384</ele>
        <time>2022-02-27T07:54:45.606Z</time>
      </trkpt>
      <trkpt lat="41.87213" lon="26.01384">
        <ele>123.127204</ele>
        <time>2022-02-27T07:54:48.595Z</time>
      </trkpt>
      <trkpt lat="41.87214" lon="26.01372">
        <ele>123.138412</ele>
        <time>2022-02-27T07:54:50.644Z</time>
      </trkpt>
      <trkpt lat="41.87215" lon="26.01355">
        <ele>123.154289</ele>
        <time>2022-02-27T07:54:53.597Z</time>
      </trkpt>
      <trkpt lat="41.87216" lon="26.01338">
        <ele>123.169727</ele>
        <time>2022-02-27T07:54:56.635Z</time>
      </trkpt>
      <trkpt lat="41.87217" lon="26.01321">
        <ele>123.184821</ele>
        <time>2022-02-27T07:54:59.592Z</time>
      </trkpt>
      <trkpt lat="41.87218" lon="26.01305">
        <ele>123.199915</ele>
        <time>2022-02-27T07:55:02.647Z</time>
      </trkpt>
      <trkpt lat="41.87219" lon="26.01288">
        <ele>123.215261</ele>
        <time>2022-02-27T07:55:05.603Z</time>
      </trkpt>
      <trkpt lat="41.8722" lon="26.01271">
        <ele>123.230709</ele>
        <time>2022-02-27T07:55:08.599Z</time>
      </trkpt>
      <trkpt lat="41.87222" lon="26.01255">
        <ele>123.245907</ele>
        <time>2022-02-27T07:55:11.591Z</time>
      </trkpt>
      <trkpt lat="41.87223" lon="26.01238">
        <ele>123.261457</ele>
        <time>2022-02-27T07:55:14.603Z</time>
      </trkpt>
      <trkpt lat="41.87224" lon="26.01221">
        <ele>123.277179</ele>
        <time>2022-02-27T07:55:17.591Z</time>
      </trkpt>
      <trkpt lat="41.87225" lon="26.01204">
        <ele>123.292481</ele>
        <time>2022-02-27T07:55:20.600Z</time>
      </trkpt>
      <trkpt lat="41.87226" lon="26.01188">
        <ele>123.307544</ele>
        <time>2022-02-27T07:55:23.644Z</time>
      </trkpt>
      <trkpt lat="41.87227" lon="26.01172">
        <ele>123.32215</ele>
        <time>2022-02-27T07:55:26.602Z</time>
      </trkpt>
      <trkpt lat="41.87228" lon="26.01156">
        <ele>123.336948</ele>
        <time>2022-02-27T07:55:29.643Z</time>
      </trkpt>
      <trkpt lat="41.87229" lon="26.01139">
        <ele>123.3583</ele>
        <time>2022-02-27T07:55:32.625Z</time>
      </trkpt>
      <trkpt lat="41.8723" lon="26.01122">
        <ele>123.38146</ele>
        <time>2022-02-27T07:55:35.596Z</time>
      </trkpt>
      <trkpt lat="41.8723" lon="26.01105">
        <ele>123.404505</ele>
        <time>2022-02-27T07:55:38.629Z</time>
      </trkpt>
      <trkpt lat="41.87231" lon="26.01089">
        <ele>123.426758</ele>
        <time>2022-02-27T07:55:41.610Z</time>
      </trkpt>
      <trkpt lat="41.87232" lon="26.01072">
        <ele>123.449174</ele>
        <time>2022-02-27T07:55:44.601Z</time>
      </trkpt>
      <trkpt lat="41.87233" lon="26.01056">
        <ele>123.471011</ele>
        <time>2022-02-27T07:55:47.605Z</time>
      </trkpt>
      <trkpt lat="41.87235" lon="26.01039">
        <ele>123.493864</ele>
        <time>2022-02-27T07:55:50.598Z</time>
      </trkpt>
      <trkpt lat="41.87236" lon="26.01021">
        <ele>123.517754</ele>
        <time>2022-02-27T07:55:53.600Z</time>
      </trkpt>
      <trkpt lat="41.87237" lon="26.01004">
        <ele>123.541659</ele>
        <time>2022-02-27T07:55:56.611Z</time>
      </trkpt>
      <trkpt lat="41.87238" lon="26.00986">
        <ele>123.565522</ele>
        <time>2022-02-27T07:55:59.591Z</time>
      </trkpt>
      <trkpt lat="41.87239" lon="26.00969">
        <ele>123.588624</ele>
        <time>2022-02-27T07:56:02.588Z</time>
      </trkpt>
      <trkpt lat="41.8724" lon="26.00951">
        <ele>123.612621</ele>
        <time>2022-02-27T07:56:05.591Z</time>
      </trkpt>
      <trkpt lat="41.87241" lon="26.00934">
        <ele>123.635492</ele>
        <time>2022-02-27T07:56:08.622Z</time>
      </trkpt>
      <trkpt lat="41.87243" lon="26.00917">
        <ele>123.658746</ele>
        <time>2022-02-27T07:56:11.616Z</time>
      </trkpt>
      <trkpt lat="41.87244" lon="26.009">
        <ele>123.68321</ele>
        <time>2022-02-27T07:56:14.651Z</time>
      </trkpt>
      <trkpt lat="41.87245" lon="26.00882">
        <ele>123.708351</ele>
        <time>2022-02-27T07:56:17.593Z</time>
      </trkpt>
      <trkpt lat="41.87246" lon="26.00865">
        <ele>123.733741</ele>
        <time>2022-02-27T07:56:20.616Z</time>
      </trkpt>
      <trkpt lat="41.87248" lon="26.00848">
        <ele>123.75897</ele>
        <time>2022-02-27T07:56:23.618Z</time>
      </trkpt>
      <trkpt lat="41.87249" lon="26.0083">
        <ele>123.784055</ele>
        <time>2022-02-27T07:56:26.607Z</time>
      </trkpt>
      <trkpt lat="41.87249" lon="26.00813">
        <ele>123.808499</ele>
        <time>2022-02-27T07:56:29.601Z</time>
      </trkpt>
      <trkpt lat="41.8725" lon="26.00797">
        <ele>123.832417</ele>
        <time>2022-02-27T07:56:32.589Z</time>
      </trkpt>
      <trkpt lat="41.87251" lon="26.0078">
        <ele>123.857328</ele>
        <time>2022-02-27T07:56:35.605Z</time>
      </trkpt>
      <trkpt lat="41.87252" lon="26.00762">
        <ele>123.882791</ele>
        <time>2022-02-27T07:56:38.609Z</time>
      </trkpt>
      <trkpt lat="41.87253" lon="26.00744">
        <ele>123.908529</ele>
        <time>2022-02-27T07:56:41.598Z</time>
      </trkpt>
      <trkpt lat="41.87255" lon="26.00727">
        <ele>123.933883</ele>
        <time>2022-02-27T07:56:44.613Z</time>
      </trkpt>
      <trkpt lat="41.87256" lon="26.0071">
        <ele>123.958938</ele>
        <time>2022-02-27T07:56:47.597Z</time>
      </trkpt>
      <trkpt lat="41.87257" lon="26.00693">
        <ele>123.983303</ele>
        <time>2022-02-27T07:56:50.592Z</time>
      </trkpt>
      <trkpt lat="41.87258" lon="26.00677">
        <ele>124.006949</ele>
        <time>2022-02-27T07:56:53.607Z</time>
      </trkpt>
      <trkpt lat="41.87259" lon="26.0066">
        <ele>124.077552</ele>
        <time>2022-02-27T07:56:56.604Z</time>
      </trkpt>
      <trkpt lat="41.8726" lon="26.00644">
        <ele>124.159079</ele>
        <time>2022-02-27T07:56:59.606Z</time>
      </trkpt>
      <trkpt lat="41.87261" lon="26.00627">
        <ele>124.243807</ele>
        <time>2022-02-27T07:57:02.593Z</time>
      </trkpt>
      <trkpt lat="41.87262" lon="26.00611">
        <ele>124.328235</ele>
        <time>2022-02-27T07:57:05.615Z</time>
      </trkpt>
      <trkpt lat="41.87263" lon="26.00593">
        <ele>124.416402</ele>
        <time>2022-02-27T07:57:08.590Z</time>
      </trkpt>
      <trkpt lat="41.87264" lon="26.00577">
        <ele>124.502205</ele>
        <time>2022-02-27T07:57:11.603Z</time>
      </trkpt>
      <trkpt lat="41.87265" lon="26.0056">
        <ele>124.589408</ele>
        <time>2022-02-27T07:57:14.604Z</time>
      </trkpt>
      <trkpt lat="41.87266" lon="26.00542">
        <ele>124.677998</ele>
        <time>2022-02-27T07:57:17.609Z</time>
      </trkpt>
      <trkpt lat="41.87267" lon="26.00526">
        <ele>124.762219</ele>
        <time>2022-02-27T07:57:20.608Z</time>
      </trkpt>
      <trkpt lat="41.87268" lon="26.00508">
        <ele>124.849986</ele>
        <time>2022-02-27T07:57:23.606Z</time>
      </trkpt>
      <trkpt lat="41.8727" lon="26.00492">
        <ele>124.935282</ele>
        <time>2022-02-27T07:57:26.636Z</time>
      </trkpt>
      <trkpt lat="41.87272" lon="26.00475">
        <ele>125.020272</ele>
        <time>2022-02-27T07:57:29.613Z</time>
      </trkpt>
      <trkpt lat="41.87273" lon="26.00458">
        <ele>125.110839</ele>
        <time>2022-02-27T07:57:32.601Z</time>
      </trkpt>
      <trkpt lat="41.87274" lon="26.0044">
        <ele>125.198379</ele>
        <time>2022-02-27T07:57:35.592Z</time>
      </trkpt>
      <trkpt lat="41.87274" lon="26.00424">
        <ele>125.238145</ele>
        <time>2022-02-27T07:57:38.609Z</time>
      </trkpt>
      <trkpt lat="41.87275" lon="26.00407">
        <ele>125.232922</ele>
        <time>2022-02-27T07:57:41.599Z</time>
      </trkpt>
      <trkpt lat="41.87276" lon="26.00391">
        <ele>125.227631</ele>
        <time>2022-02-27T07:57:44.609Z</time>
      </trkpt>
      <trkpt lat="41.87277" lon="26.00374">
        <ele>125.222315</ele>
        <time>2022-02-27T07:57:47.593Z</time>
      </trkpt>
      <trkpt lat="41.87278" lon="26.00357">
        <ele>125.216778</ele>
        <time>2022-02-27T07:57:50.584Z</time>
      </trkpt>
      <trkpt lat="41.87279" lon="26.0034">
        <ele>125.211322</ele>
        <time>2022-02-27T07:57:53.615Z</time>
      </trkpt>
      <trkpt lat="41.8728" lon="26.00323">
        <ele>125.20596</ele>
        <time>2022-02-27T07:57:56.603Z</time>
      </trkpt>
      <trkpt lat="41.87281" lon="26.00306">
        <ele>125.200517</ele>
        <time>2022-02-27T07:57:59.633Z</time>
      </trkpt>
      <trkpt lat="41.87282" lon="26.00289">
        <ele>125.195128</ele>
        <time>2022-02-27T07:58:02.596Z</time>
      </trkpt>
      <trkpt lat="41.87284" lon="26.00272">
        <ele>125.18982</ele>
        <time>2022-02-27T07:58:05.623Z</time>
      </trkpt>
      <trkpt lat="41.87285" lon="26.00256">
        <ele>125.184567</ele>
        <time>2022-02-27T07:58:08.587Z</time>
      </trkpt>
      <trkpt lat="41.87286" lon="26.00238">
        <ele>125.178777</ele>
        <time>2022-02-27T07:58:11.611Z</time>
      </trkpt>
      <trkpt lat="41.87286" lon="26.00225">
        <ele>125.174713</ele>
        <time>2022-02-27T07:58:13.599Z</time>
      </trkpt>
      <trkpt lat="41.87286" lon="26.00212">
        <ele>125.170642</ele>
        <time>2022-02-27T07:58:15.592Z</time>
      </trkpt>
      <trkpt lat="41.87287" lon="26.00199">
        <ele>125.166461</ele>
        <time>2022-02-27T07:58:17.593Z</time>
      </trkpt>
      <trkpt lat="41.87288" lon="26.00185">
        <ele>125.055237</ele>
        <time>2022-02-27T07:58:19.597Z</time>
      </trkpt>
      <trkpt lat="41.87289" lon="26.00171">
        <ele>124.819002</ele>
        <time>2022-02-27T07:58:21.587Z</time>
      </trkpt>
      <trkpt lat="41.8729" lon="26.00157">
        <ele>124.583673</ele>
        <time>2022-02-27T07:58:23.592Z</time>
      </trkpt>
      <trkpt lat="41.87291" lon="26.00142">
        <ele>124.334136</ele>
        <time>2022-02-27T07:58:25.605Z</time>
      </trkpt>
      <trkpt lat="41.87293" lon="26.00127">
        <ele>124.07156</ele>
        <time>2022-02-27T07:58:27.641Z</time>
      </trkpt>
      <trkpt lat="41.87296" lon="26.0011">
        <ele>123.788351</ele>
        <time>2022-02-27T07:58:29.597Z</time>
      </trkpt>
      <trkpt lat="41.87298" lon="26.00092">
        <ele>123.482769</ele>
        <time>2022-02-27T07:58:31.603Z</time>
      </trkpt>
      <trkpt lat="41.87302" lon="26.00074">
        <ele>123.162156</ele>
        <time>2022-02-27T07:58:33.589Z</time>
      </trkpt>
      <trkpt lat="41.87305" lon="26.00055">
        <ele>122.838286</ele>
        <time>2022-02-27T07:58:35.602Z</time>
      </trkpt>
      <trkpt lat="41.87309" lon="26.00036">
        <ele>122.513286</ele>
        <time>2022-02-27T07:58:37.587Z</time>
      </trkpt>
      <trkpt lat="41.87313" lon="26.00018">
        <ele>122.18608</ele>
        <time>2022-02-27T07:58:39.622Z</time>
      </trkpt>
      <trkpt lat="41.87316" lon="26">
        <ele>121.8714</ele>
        <time>2022-02-27T07:58:41.593Z</time>
      </trkpt>
      <trkpt lat="41.87321" lon="25.99981">
        <ele>121.541305</ele>
        <time>2022-02-27T07:58:43.628Z</time>
      </trkpt>
      <trkpt lat="41.87326" lon="25.99962">
        <ele>121.200509</ele>
        <time>2022-02-27T07:58:45.667Z</time>
      </trkpt>
      <trkpt lat="41.87332" lon="25.99941">
        <ele>120.504208</ele>
        <time>2022-02-27T07:58:47.619Z</time>
      </trkpt>
      <trkpt lat="41.8734" lon="25.99919">
        <ele>119.658986</ele>
        <time>2022-02-27T07:58:49.602Z</time>
      </trkpt>
      <trkpt lat="41.87344" lon="25.99908">
        <ele>119.236499</ele>
        <time>2022-02-27T07:58:50.594Z</time>
      </trkpt>
      <trkpt lat="41.87352" lon="25.99887">
        <ele>118.410099</ele>
        <time>2022-02-27T07:58:52.603Z</time>
      </trkpt>
      <trkpt lat="41.87357" lon="25.99876">
        <ele>117.966568</ele>
        <time>2022-02-27T07:58:53.600Z</time>
      </trkpt>
      <trkpt lat="41.87362" lon="25.99865">
        <ele>117.522831</ele>
        <time>2022-02-27T07:58:54.649Z</time>
      </trkpt>
      <trkpt lat="41.87366" lon="25.99854">
        <ele>117.080108</ele>
        <time>2022-02-27T07:58:55.610Z</time>
      </trkpt>
      <trkpt lat="41.87371" lon="25.99842">
        <ele>116.631281</ele>
        <time>2022-02-27T07:58:56.612Z</time>
      </trkpt>
      <trkpt lat="41.87375" lon="25.99831">
        <ele>116.187752</ele>
        <time>2022-02-27T07:58:57.613Z</time>
      </trkpt>
      <trkpt lat="41.8738" lon="25.9982">
        <ele>115.739701</ele>
        <time>2022-02-27T07:58:58.609Z</time>
      </trkpt>
      <trkpt lat="41.87385" lon="25.99809">
        <ele>115.305345</ele>
        <time>2022-02-27T07:58:59.602Z</time>
      </trkpt>
      <trkpt lat="41.87389" lon="25.99798">
        <ele>114.873239</ele>
        <time>2022-02-27T07:59:00.609Z</time>
      </trkpt>
      <trkpt lat="41.87394" lon="25.99787">
        <ele>114.427469</ele>
        <time>2022-02-27T07:59:01.590Z</time>
      </trkpt>
      <trkpt lat="41.87398" lon="25.99776">
        <ele>113.980121</ele>
        <time>2022-02-27T07:59:02.618Z</time>
      </trkpt>
      <trkpt lat="41.87403" lon="25.99764">
        <ele>113.528235</ele>
        <time>2022-02-27T07:59:03.613Z</time>
      </trkpt>
      <trkpt lat="41.87408" lon="25.99753">
        <ele>113.085514</ele>
        <time>2022-02-27T07:59:04.609Z</time>
      </trkpt>
      <trkpt lat="41.87412" lon="25.99742">
        <ele>112.638746</ele>
        <time>2022-02-27T07:59:05.624Z</time>
      </trkpt>
      <trkpt lat="41.87417" lon="25.99731">
        <ele>112.171657</ele>
        <time>2022-02-27T07:59:06.645Z</time>
      </trkpt>
      <trkpt lat="41.87421" lon="25.99721">
        <ele>111.706164</ele>
        <time>2022-02-27T07:59:07.609Z</time>
      </trkpt>
      <trkpt lat="41.87431" lon="25.997">
        <ele>110.798624</ele>
        <time>2022-02-27T07:59:09.609Z</time>
      </trkpt>
      <trkpt lat="41.87439" lon="25.99681">
        <ele>109.923747</ele>
        <time>2022-02-27T07:59:11.604Z</time>
      </trkpt>
      <trkpt lat="41.87447" lon="25.99661">
        <ele>109.089783</ele>
        <time>2022-02-27T07:59:13.604Z</time>
      </trkpt>
      <trkpt lat="41.87455" lon="25.99644">
        <ele>108.312988</ele>
        <time>2022-02-27T07:59:15.596Z</time>
      </trkpt>
      <trkpt lat="41.87462" lon="25.99626">
        <ele>107.558541</ele>
        <time>2022-02-27T07:59:17.652Z</time>
      </trkpt>
      <trkpt lat="41.87469" lon="25.9961">
        <ele>106.841331</ele>
        <time>2022-02-27T07:59:19.628Z</time>
      </trkpt>
      <trkpt lat="41.87475" lon="25.99593">
        <ele>106.131041</ele>
        <time>2022-02-27T07:59:21.590Z</time>
      </trkpt>
      <trkpt lat="41.87482" lon="25.99578">
        <ele>105.479119</ele>
        <time>2022-02-27T07:59:23.583Z</time>
      </trkpt>
      <trkpt lat="41.87488" lon="25.99564">
        <ele>104.862159</ele>
        <time>2022-02-27T07:59:25.610Z</time>
      </trkpt>
      <trkpt lat="41.87494" lon="25.99551">
        <ele>104.272729</ele>
        <time>2022-02-27T07:59:27.591Z</time>
      </trkpt>
      <trkpt lat="41.875" lon="25.99538">
        <ele>103.704234</ele>
        <time>2022-02-27T07:59:29.602Z</time>
      </trkpt>
      <trkpt lat="41.87505" lon="25.99526">
        <ele>103.396852</ele>
        <time>2022-02-27T07:59:31.611Z</time>
      </trkpt>
      <trkpt lat="41.8751" lon="25.99514">
        <ele>103.208805</ele>
        <time>2022-02-27T07:59:33.601Z</time>
      </trkpt>
      <trkpt lat="41.87515" lon="25.99503">
        <ele>103.032088</ele>
        <time>2022-02-27T07:59:35.612Z</time>
      </trkpt>
      <trkpt lat="41.8752" lon="25.99492">
        <ele>102.863613</ele>
        <time>2022-02-27T07:59:37.611Z</time>
      </trkpt>
      <trkpt lat="41.87526" lon="25.99476">
        <ele>102.619689</ele>
        <time>2022-02-27T07:59:40.600Z</time>
      </trkpt>
      <trkpt lat="41.87533" lon="25.9946">
        <ele>102.375434</ele>
        <time>2022-02-27T07:59:43.615Z</time>
      </trkpt>
      <trkpt lat="41.87537" lon="25.99449">
        <ele>102.209824</ele>
        <time>2022-02-27T07:59:45.622Z</time>
      </trkpt>
      <trkpt lat="41.87541" lon="25.99439">
        <ele>102.04018</ele>
        <time>2022-02-27T07:59:47.597Z</time>
      </trkpt>
      <trkpt lat="41.87546" lon="25.99428">
        <ele>101.875564</ele>
        <time>2022-02-27T07:59:49.622Z</time>
      </trkpt>
      <trkpt lat="41.87553" lon="25.99413">
        <ele>101.632758</ele>
        <time>2022-02-27T07:59:52.594Z</time>
      </trkpt>
      <trkpt lat="41.87559" lon="25.99398">
        <ele>101.394146</ele>
        <time>2022-02-27T07:59:55.604Z</time>
      </trkpt>
      <trkpt lat="41.87565" lon="25.99382">
        <ele>101.160508</ele>
        <time>2022-02-27T07:59:58.599Z</time>
      </trkpt>
      <trkpt lat="41.87571" lon="25.99367">
        <ele>100.923701</ele>
        <time>2022-02-27T08:00:01.628Z</time>
      </trkpt>
      <trkpt lat="41.87576" lon="25.99356">
        <ele>100.760001</ele>
        <time>2022-02-27T08:00:03.609Z</time>
      </trkpt>
      <trkpt lat="41.8758" lon="25.99345">
        <ele>100.593915</ele>
        <time>2022-02-27T08:00:05.607Z</time>
      </trkpt>
      <trkpt lat="41.87586" lon="25.9933">
        <ele>100.354122</ele>
        <time>2022-02-27T08:00:08.614Z</time>
      </trkpt>
      <trkpt lat="41.87591" lon="25.9932">
        <ele>100.296058</ele>
        <time>2022-02-27T08:00:10.607Z</time>
      </trkpt>
      <trkpt lat="41.87595" lon="25.99309">
        <ele>100.433732</ele>
        <time>2022-02-27T08:00:12.623Z</time>
      </trkpt>
      <trkpt lat="41.876" lon="25.99298">
        <ele>100.576837</ele>
        <time>2022-02-27T08:00:14.599Z</time>
      </trkpt>
      <trkpt lat="41.87607" lon="25.99282">
        <ele>100.781516</ele>
        <time>2022-02-27T08:00:17.603Z</time>
      </trkpt>
      <trkpt lat="41.87613" lon="25.99267">
        <ele>100.98246</ele>
        <time>2022-02-27T08:00:20.590Z</time>
      </trkpt>
      <trkpt lat="41.87619" lon="25.99251">
        <ele>101.179969</ele>
        <time>2022-02-27T08:00:23.608Z</time>
      </trkpt>
      <trkpt lat="41.87625" lon="25.99236">
        <ele>101.374225</ele>
        <time>2022-02-27T08:00:26.593Z</time>
      </trkpt>
      <trkpt lat="41.8763" lon="25.99226">
        <ele>101.512385</ele>
        <time>2022-02-27T08:00:28.619Z</time>
      </trkpt>
      <trkpt lat="41.87634" lon="25.99215">
        <ele>101.65377</ele>
        <time>2022-02-27T08:00:30.623Z</time>
      </trkpt>
      <trkpt lat="41.87638" lon="25.99204">
        <ele>101.791443</ele>
        <time>2022-02-27T08:00:32.596Z</time>
      </trkpt>
      <trkpt lat="41.87645" lon="25.99189">
        <ele>101.98916</ele>
        <time>2022-02-27T08:00:35.592Z</time>
      </trkpt>
      <trkpt lat="41.8765" lon="25.99178">
        <ele>102.126833</ele>
        <time>2022-02-27T08:00:37.621Z</time>
      </trkpt>
      <trkpt lat="41.87655" lon="25.99164">
        <ele>102.308981</ele>
        <time>2022-02-27T08:00:40.595Z</time>
      </trkpt>
      <trkpt lat="41.87662" lon="25.9915">
        <ele>102.496142</ele>
        <time>2022-02-27T08:00:43.608Z</time>
      </trkpt>
      <trkpt lat="41.87668" lon="25.99135">
        <ele>102.694199</ele>
        <time>2022-02-27T08:00:46.586Z</time>
      </trkpt>
      <trkpt lat="41.87675" lon="25.9912">
        <ele>102.896153</ele>
        <time>2022-02-27T08:00:49.648Z</time>
      </trkpt>
      <trkpt lat="41.87681" lon="25.99104">
        <ele>102.909555</ele>
        <time>2022-02-27T08:00:52.610Z</time>
      </trkpt>
      <trkpt lat="41.87686" lon="25.99094">
        <ele>102.820533</ele>
        <time>2022-02-27T08:00:54.600Z</time>
      </trkpt>
      <trkpt lat="41.87692" lon="25.99078">
        <ele>102.687292</ele>
        <time>2022-02-27T08:00:57.608Z</time>
      </trkpt>
      <trkpt lat="41.87696" lon="25.99067">
        <ele>102.597168</ele>
        <time>2022-02-27T08:00:59.605Z</time>
      </trkpt>
      <trkpt lat="41.87703" lon="25.99052">
        <ele>102.468912</ele>
        <time>2022-02-27T08:01:02.603Z</time>
      </trkpt>
      <trkpt lat="41.8771" lon="25.99037">
        <ele>102.337603</ele>
        <time>2022-02-27T08:01:05.594Z</time>
      </trkpt>
      <trkpt lat="41.87716" lon="25.99022">
        <ele>102.211333</ele>
        <time>2022-02-27T08:01:08.619Z</time>
      </trkpt>
      <trkpt lat="41.87722" lon="25.99007">
        <ele>102.079089</ele>
        <time>2022-02-27T08:01:11.636Z</time>
      </trkpt>
      <trkpt lat="41.87728" lon="25.98991">
        <ele>101.950511</ele>
        <time>2022-02-27T08:01:14.593Z</time>
      </trkpt>
      <trkpt lat="41.87735" lon="25.98976">
        <ele>101.820688</ele>
        <time>2022-02-27T08:01:17.620Z</time>
      </trkpt>
      <trkpt lat="41.87741" lon="25.98961">
        <ele>101.692642</ele>
        <time>2022-02-27T08:01:20.606Z</time>
      </trkpt>
      <trkpt lat="41.87747" lon="25.98946">
        <ele>101.56395</ele>
        <time>2022-02-27T08:01:23.600Z</time>
      </trkpt>
      <trkpt lat="41.87754" lon="25.98931">
        <ele>101.437034</ele>
        <time>2022-02-27T08:01:26.601Z</time>
      </trkpt>
      <trkpt lat="41.87758" lon="25.9892">
        <ele>101.346434</ele>
        <time>2022-02-27T08:01:28.643Z</time>
      </trkpt>
      <trkpt lat="41.87763" lon="25.98909">
        <ele>101.254656</ele>
        <time>2022-02-27T08:01:30.595Z</time>
      </trkpt>
      <trkpt lat="41.87768" lon="25.98898">
        <ele>101.198152</ele>
        <time>2022-02-27T08:01:32.608Z</time>
      </trkpt>
      <trkpt lat="41.87774" lon="25.98882">
        <ele>101.206768</ele>
        <time>2022-02-27T08:01:35.572Z</time>
      </trkpt>
      <trkpt lat="41.87779" lon="25.98872">
        <ele>101.212506</ele>
        <time>2022-02-27T08:01:37.597Z</time>
      </trkpt>
      <trkpt lat="41.87785" lon="25.98856">
        <ele>101.220845</ele>
        <time>2022-02-27T08:01:40.609Z</time>
      </trkpt>
      <trkpt lat="41.87792" lon="25.98841">
        <ele>101.229287</ele>
        <time>2022-02-27T08:01:43.638Z</time>
      </trkpt>
      <trkpt lat="41.87796" lon="25.9883">
        <ele>101.235051</ele>
        <time>2022-02-27T08:01:45.601Z</time>
      </trkpt>
      <trkpt lat="41.87801" lon="25.98819">
        <ele>101.241146</ele>
        <time>2022-02-27T08:01:47.610Z</time>
      </trkpt>
      <trkpt lat="41.87805" lon="25.98807">
        <ele>101.24722</ele>
        <time>2022-02-27T08:01:49.608Z</time>
      </trkpt>
      <trkpt lat="41.8781" lon="25.98796">
        <ele>101.253176</ele>
        <time>2022-02-27T08:01:51.605Z</time>
      </trkpt>
      <trkpt lat="41.87814" lon="25.98785">
        <ele>101.258972</ele>
        <time>2022-02-27T08:01:53.609Z</time>
      </trkpt>
      <trkpt lat="41.8782" lon="25.98774">
        <ele>101.265225</ele>
        <time>2022-02-27T08:01:55.624Z</time>
      </trkpt>
      <trkpt lat="41.87825" lon="25.98763">
        <ele>101.271416</ele>
        <time>2022-02-27T08:01:57.612Z</time>
      </trkpt>
      <trkpt lat="41.8783" lon="25.98752">
        <ele>101.277583</ele>
        <time>2022-02-27T08:01:59.603Z</time>
      </trkpt>
      <trkpt lat="41.87834" lon="25.98741">
        <ele>101.283585</ele>
        <time>2022-02-27T08:02:01.591Z</time>
      </trkpt>
      <trkpt lat="41.87839" lon="25.98729">
        <ele>101.28968</ele>
        <time>2022-02-27T08:02:03.613Z</time>
      </trkpt>
      <trkpt lat="41.87844" lon="25.98718">
        <ele>101.295693</ele>
        <time>2022-02-27T08:02:05.598Z</time>
      </trkpt>
      <trkpt lat="41.87848" lon="25.98708">
        <ele>101.301665</ele>
        <time>2022-02-27T08:02:07.585Z</time>
      </trkpt>
      <trkpt lat="41.87853" lon="25.98696">
        <ele>101.30778</ele>
        <time>2022-02-27T08:02:09.612Z</time>
      </trkpt>
      <trkpt lat="41.87858" lon="25.98685">
        <ele>101.429907</ele>
        <time>2022-02-27T08:02:11.641Z</time>
      </trkpt>
      <trkpt lat="41.87862" lon="25.98673">
        <ele>101.610136</ele>
        <time>2022-02-27T08:02:13.605Z</time>
      </trkpt>
      <trkpt lat="41.87867" lon="25.98662">
        <ele>101.787914</ele>
        <time>2022-02-27T08:02:15.609Z</time>
      </trkpt>
      <trkpt lat="41.87871" lon="25.98651">
        <ele>101.964821</ele>
        <time>2022-02-27T08:02:17.642Z</time>
      </trkpt>
      <trkpt lat="41.87876" lon="25.9864">
        <ele>102.140274</ele>
        <time>2022-02-27T08:02:19.602Z</time>
      </trkpt>
      <trkpt lat="41.87881" lon="25.98629">
        <ele>102.313363</ele>
        <time>2022-02-27T08:02:21.610Z</time>
      </trkpt>
      <trkpt lat="41.87885" lon="25.98618">
        <ele>102.488387</ele>
        <time>2022-02-27T08:02:23.601Z</time>
      </trkpt>
      <trkpt lat="41.8789" lon="25.98608">
        <ele>102.657068</ele>
        <time>2022-02-27T08:02:25.592Z</time>
      </trkpt>
      <trkpt lat="41.87896" lon="25.98592">
        <ele>102.903611</ele>
        <time>2022-02-27T08:02:28.624Z</time>
      </trkpt>
      <trkpt lat="41.87901" lon="25.98581">
        <ele>103.075724</ele>
        <time>2022-02-27T08:02:30.624Z</time>
      </trkpt>
      <trkpt lat="41.87905" lon="25.98571">
        <ele>103.24807</ele>
        <time>2022-02-27T08:02:32.606Z</time>
      </trkpt>
      <trkpt lat="41.8791" lon="25.98559">
        <ele>103.428284</ele>
        <time>2022-02-27T08:02:34.588Z</time>
      </trkpt>
      <trkpt lat="41.87915" lon="25.98548">
        <ele>103.602402</ele>
        <time>2022-02-27T08:02:36.591Z</time>
      </trkpt>
      <trkpt lat="41.87919" lon="25.98538">
        <ele>103.775011</ele>
        <time>2022-02-27T08:02:38.604Z</time>
      </trkpt>
      <trkpt lat="41.87926" lon="25.98521">
        <ele>104.028559</ele>
        <time>2022-02-27T08:02:41.604Z</time>
      </trkpt>
      <trkpt lat="41.8793" lon="25.9851">
        <ele>104.204792</ele>
        <time>2022-02-27T08:02:43.601Z</time>
      </trkpt>
      <trkpt lat="41.87935" lon="25.98499">
        <ele>104.377147</ele>
        <time>2022-02-27T08:02:45.603Z</time>
      </trkpt>
      <trkpt lat="41.87939" lon="25.98488">
        <ele>104.55005</ele>
        <time>2022-02-27T08:02:47.613Z</time>
      </trkpt>
      <trkpt lat="41.87944" lon="25.98477">
        <ele>104.646205</ele>
        <time>2022-02-27T08:02:49.624Z</time>
      </trkpt>
      <trkpt lat="41.87948" lon="25.98467">
        <ele>104.607357</ele>
        <time>2022-02-27T08:02:51.628Z</time>
      </trkpt>
      <trkpt lat="41.87953" lon="25.98456">
        <ele>104.568638</ele>
        <time>2022-02-27T08:02:53.606Z</time>
      </trkpt>
      <trkpt lat="41.87959" lon="25.9844">
        <ele>104.511396</ele>
        <time>2022-02-27T08:02:56.594Z</time>
      </trkpt>
      <trkpt lat="41.87964" lon="25.98429">
        <ele>104.470744</ele>
        <time>2022-02-27T08:02:58.612Z</time>
      </trkpt>
      <trkpt lat="41.87968" lon="25.98418">
        <ele>104.429121</ele>
        <time>2022-02-27T08:03:00.615Z</time>
      </trkpt>
      <trkpt lat="41.87973" lon="25.98406">
        <ele>104.387835</ele>
        <time>2022-02-27T08:03:02.626Z</time>
      </trkpt>
      <trkpt lat="41.87978" lon="25.98395">
        <ele>104.347528</ele>
        <time>2022-02-27T08:03:04.610Z</time>
      </trkpt>
      <trkpt lat="41.87983" lon="25.98384">
        <ele>104.306039</ele>
        <time>2022-02-27T08:03:06.601Z</time>
      </trkpt>
      <trkpt lat="41.87987" lon="25.98372">
        <ele>104.264067</ele>
        <time>2022-02-27T08:03:08.594Z</time>
      </trkpt>
      <trkpt lat="41.87992" lon="25.98361">
        <ele>104.22382</ele>
        <time>2022-02-27T08:03:10.601Z</time>
      </trkpt>
      <trkpt lat="41.87997" lon="25.98349">
        <ele>104.180602</ele>
        <time>2022-02-27T08:03:12.664Z</time>
      </trkpt>
      <trkpt lat="41.88001" lon="25.98338">
        <ele>104.138425</ele>
        <time>2022-02-27T08:03:14.595Z</time>
      </trkpt>
      <trkpt lat="41.88007" lon="25.98326">
        <ele>104.095664</ele>
        <time>2022-02-27T08:03:16.599Z</time>
      </trkpt>
      <trkpt lat="41.88011" lon="25.98315">
        <ele>104.055357</ele>
        <time>2022-02-27T08:03:18.673Z</time>
      </trkpt>
      <trkpt lat="41.88016" lon="25.98304">
        <ele>104.014891</ele>
        <time>2022-02-27T08:03:20.627Z</time>
      </trkpt>
      <trkpt lat="41.88021" lon="25.98293">
        <ele>103.974859</ele>
        <time>2022-02-27T08:03:22.617Z</time>
      </trkpt>
      <trkpt lat="41.88026" lon="25.98282">
        <ele>103.93504</ele>
        <time>2022-02-27T08:03:24.605Z</time>
      </trkpt>
      <trkpt lat="41.8803" lon="25.98271">
        <ele>103.894457</ele>
        <time>2022-02-27T08:03:26.585Z</time>
      </trkpt>
      <trkpt lat="41.88035" lon="25.98261">
        <ele>103.961478</ele>
        <time>2022-02-27T08:03:28.601Z</time>
      </trkpt>
      <trkpt lat="41.88039" lon="25.9825">
        <ele>104.030205</ele>
        <time>2022-02-27T08:03:30.590Z</time>
      </trkpt>
      <trkpt lat="41.88044" lon="25.98239">
        <ele>104.100023</ele>
        <time>2022-02-27T08:03:32.607Z</time>
      </trkpt>
      <trkpt lat="41.88048" lon="25.98228">
        <ele>104.169473</ele>
        <time>2022-02-27T08:03:34.596Z</time>
      </trkpt>
      <trkpt lat="41.88053" lon="25.98218">
        <ele>104.240154</ele>
        <time>2022-02-27T08:03:36.605Z</time>
      </trkpt>
      <trkpt lat="41.88059" lon="25.98202">
        <ele>104.338918</ele>
        <time>2022-02-27T08:03:39.613Z</time>
      </trkpt>
      <trkpt lat="41.88065" lon="25.98187">
        <ele>104.438538</ele>
        <time>2022-02-27T08:03:42.605Z</time>
      </trkpt>
      <trkpt lat="41.88072" lon="25.98172">
        <ele>104.536557</ele>
        <time>2022-02-27T08:03:45.682Z</time>
      </trkpt>
      <trkpt lat="41.88078" lon="25.98157">
        <ele>104.631001</ele>
        <time>2022-02-27T08:03:48.610Z</time>
      </trkpt>
      <trkpt lat="41.88084" lon="25.98142">
        <ele>104.728421</ele>
        <time>2022-02-27T08:03:51.594Z</time>
      </trkpt>
      <trkpt lat="41.88091" lon="25.98126">
        <ele>104.828178</ele>
        <time>2022-02-27T08:03:54.597Z</time>
      </trkpt>
      <trkpt lat="41.88097" lon="25.98111">
        <ele>104.928698</ele>
        <time>2022-02-27T08:03:57.625Z</time>
      </trkpt>
      <trkpt lat="41.88105" lon="25.98097">
        <ele>105.0266</ele>
        <time>2022-02-27T08:04:00.640Z</time>
      </trkpt>
      <trkpt lat="41.88111" lon="25.98082">
        <ele>105.12082</ele>
        <time>2022-02-27T08:04:03.608Z</time>
      </trkpt>
      <trkpt lat="41.88117" lon="25.98067">
        <ele>105.218727</ele>
        <time>2022-02-27T08:04:06.600Z</time>
      </trkpt>
      <trkpt lat="41.88122" lon="25.98052">
        <ele>105.415617</ele>
        <time>2022-02-27T08:04:09.577Z</time>
      </trkpt>
      <trkpt lat="41.88128" lon="25.98037">
        <ele>105.6746</ele>
        <time>2022-02-27T08:04:12.602Z</time>
      </trkpt>
      <trkpt lat="41.88135" lon="25.98024">
        <ele>105.931714</ele>
        <time>2022-02-27T08:04:15.600Z</time>
      </trkpt>
      <trkpt lat="41.88141" lon="25.9801">
        <ele>106.189736</ele>
        <time>2022-02-27T08:04:18.627Z</time>
      </trkpt>
      <trkpt lat="41.88147" lon="25.97995">
        <ele>106.451321</ele>
        <time>2022-02-27T08:04:21.620Z</time>
      </trkpt>
      <trkpt lat="41.88152" lon="25.97981">
        <ele>106.69836</ele>
        <time>2022-02-27T08:04:24.604Z</time>
      </trkpt>
      <trkpt lat="41.88158" lon="25.97968">
        <ele>106.942301</ele>
        <time>2022-02-27T08:04:27.639Z</time>
      </trkpt>
      <trkpt lat="41.88164" lon="25.97954">
        <ele>107.196021</ele>
        <time>2022-02-27T08:04:30.613Z</time>
      </trkpt>
      <trkpt lat="41.88171" lon="25.9794">
        <ele>107.461121</ele>
        <time>2022-02-27T08:04:33.600Z</time>
      </trkpt>
      <trkpt lat="41.88177" lon="25.97926">
        <ele>107.721319</ele>
        <time>2022-02-27T08:04:36.595Z</time>
      </trkpt>
      <trkpt lat="41.88184" lon="25.97911">
        <ele>107.992065</ele>
        <time>2022-02-27T08:04:39.596Z</time>
      </trkpt>
      <trkpt lat="41.8819" lon="25.97896">
        <ele>108.26553</ele>
        <time>2022-02-27T08:04:42.592Z</time>
      </trkpt>
      <trkpt lat="41.88196" lon="25.97881">
        <ele>108.535856</ele>
        <time>2022-02-27T08:04:45.602Z</time>
      </trkpt>
      <trkpt lat="41.88202" lon="25.97866">
        <ele>108.7966</ele>
        <time>2022-02-27T08:04:48.594Z</time>
      </trkpt>
      <trkpt lat="41.88208" lon="25.97852">
        <ele>109.057983</ele>
        <time>2022-02-27T08:04:51.599Z</time>
      </trkpt>
      <trkpt lat="41.88214" lon="25.97836">
        <ele>109.015973</ele>
        <time>2022-02-27T08:04:54.602Z</time>
      </trkpt>
      <trkpt lat="41.88221" lon="25.97821">
        <ele>108.968155</ele>
        <time>2022-02-27T08:04:57.643Z</time>
      </trkpt>
      <trkpt lat="41.88226" lon="25.97806">
        <ele>108.922522</ele>
        <time>2022-02-27T08:05:00.601Z</time>
      </trkpt>
      <trkpt lat="41.88232" lon="25.97791">
        <ele>108.874181</ele>
        <time>2022-02-27T08:05:03.614Z</time>
      </trkpt>
      <trkpt lat="41.88238" lon="25.97775">
        <ele>108.825349</ele>
        <time>2022-02-27T08:05:06.602Z</time>
      </trkpt>
      <trkpt lat="41.88244" lon="25.9776">
        <ele>108.777886</ele>
        <time>2022-02-27T08:05:09.614Z</time>
      </trkpt>
      <trkpt lat="41.8825" lon="25.97744">
        <ele>108.729345</ele>
        <time>2022-02-27T08:05:12.633Z</time>
      </trkpt>
      <trkpt lat="41.88257" lon="25.97728">
        <ele>108.679935</ele>
        <time>2022-02-27T08:05:15.617Z</time>
      </trkpt>
      <trkpt lat="41.88261" lon="25.97717">
        <ele>108.6462</ele>
        <time>2022-02-27T08:05:17.607Z</time>
      </trkpt>
      <trkpt lat="41.88267" lon="25.97702">
        <ele>108.597357</ele>
        <time>2022-02-27T08:05:20.605Z</time>
      </trkpt>
      <trkpt lat="41.88272" lon="25.97691">
        <ele>108.564056</ele>
        <time>2022-02-27T08:05:22.586Z</time>
      </trkpt>
      <trkpt lat="41.88278" lon="25.97676">
        <ele>108.516296</ele>
        <time>2022-02-27T08:05:25.602Z</time>
      </trkpt>
      <trkpt lat="41.88285" lon="25.9766">
        <ele>108.465838</ele>
        <time>2022-02-27T08:05:28.603Z</time>
      </trkpt>
      <trkpt lat="41.8829" lon="25.97649">
        <ele>108.43092</ele>
        <time>2022-02-27T08:05:30.640Z</time>
      </trkpt>
      <trkpt lat="41.88294" lon="25.97639">
        <ele>108.40157</ele>
        <time>2022-02-27T08:05:32.601Z</time>
      </trkpt>
      <trkpt lat="41.883" lon="25.97623">
        <ele>108.589559</ele>
        <time>2022-02-27T08:05:35.622Z</time>
      </trkpt>
      <trkpt lat="41.88307" lon="25.97608">
        <ele>108.779093</ele>
        <time>2022-02-27T08:05:38.605Z</time>
      </trkpt>
      <trkpt lat="41.88313" lon="25.97593">
        <ele>108.957461</ele>
        <time>2022-02-27T08:05:41.621Z</time>
      </trkpt>
      <trkpt lat="41.88319" lon="25.97578">
        <ele>109.130936</ele>
        <time>2022-02-27T08:05:44.611Z</time>
      </trkpt>
      <trkpt lat="41.88324" lon="25.97568">
        <ele>109.259185</ele>
        <time>2022-02-27T08:05:46.604Z</time>
      </trkpt>
      <trkpt lat="41.88329" lon="25.97557">
        <ele>109.393948</ele>
        <time>2022-02-27T08:05:48.611Z</time>
      </trkpt>
      <trkpt lat="41.88335" lon="25.97542">
        <ele>109.580574</ele>
        <time>2022-02-27T08:05:51.596Z</time>
      </trkpt>
      <trkpt lat="41.8834" lon="25.97531">
        <ele>109.714229</ele>
        <time>2022-02-27T08:05:53.633Z</time>
      </trkpt>
      <trkpt lat="41.88344" lon="25.9752">
        <ele>109.845355</ele>
        <time>2022-02-27T08:05:55.613Z</time>
      </trkpt>
      <trkpt lat="41.8835" lon="25.97504">
        <ele>110.038253</ele>
        <time>2022-02-27T08:05:58.632Z</time>
      </trkpt>
      <trkpt lat="41.88355" lon="25.97492">
        <ele>110.173778</ele>
        <time>2022-02-27T08:06:00.605Z</time>
      </trkpt>
      <trkpt lat="41.88361" lon="25.97476">
        <ele>110.370758</ele>
        <time>2022-02-27T08:06:03.618Z</time>
      </trkpt>
      <trkpt lat="41.88366" lon="25.97464">
        <ele>110.510401</ele>
        <time>2022-02-27T08:06:05.621Z</time>
      </trkpt>
      <trkpt lat="41.88373" lon="25.97449">
        <ele>110.699035</ele>
        <time>2022-02-27T08:06:08.621Z</time>
      </trkpt>
      <trkpt lat="41.8838" lon="25.97436">
        <ele>110.872732</ele>
        <time>2022-02-27T08:06:11.601Z</time>
      </trkpt>
      <trkpt lat="41.88388" lon="25.97421">
        <ele>111.108274</ele>
        <time>2022-02-27T08:06:14.605Z</time>
      </trkpt>
      <trkpt lat="41.88393" lon="25.97411">
        <ele>111.307128</ele>
        <time>2022-02-27T08:06:16.609Z</time>
      </trkpt>
      <trkpt lat="41.884" lon="25.97397">
        <ele>111.587748</ele>
        <time>2022-02-27T08:06:19.619Z</time>
      </trkpt>
      <trkpt lat="41.88408" lon="25.97382">
        <ele>111.870848</ele>
        <time>2022-02-27T08:06:22.595Z</time>
      </trkpt>
      <trkpt lat="41.88416" lon="25.97368">
        <ele>112.151391</ele>
        <time>2022-02-27T08:06:25.597Z</time>
      </trkpt>
      <trkpt lat="41.88424" lon="25.97356">
        <ele>112.414282</ele>
        <time>2022-02-27T08:06:28.600Z</time>
      </trkpt>
      <trkpt lat="41.88431" lon="25.97344">
        <ele>112.654821</ele>
        <time>2022-02-27T08:06:31.607Z</time>
      </trkpt>
      <trkpt lat="41.88438" lon="25.97335">
        <ele>112.869519</ele>
        <time>2022-02-27T08:06:34.594Z</time>
      </trkpt>
      <trkpt lat="41.88446" lon="25.97325">
        <ele>113.102216</ele>
        <time>2022-02-27T08:06:37.617Z</time>
      </trkpt>
      <trkpt lat="41.88454" lon="25.97315">
        <ele>113.344017</ele>
        <time>2022-02-27T08:06:40.590Z</time>
      </trkpt>
      <trkpt lat="41.88462" lon="25.97306">
        <ele>113.550143</ele>
        <time>2022-02-27T08:06:43.635Z</time>
      </trkpt>
      <trkpt lat="41.88469" lon="25.97298">
        <ele>113.749542</ele>
        <time>2022-02-27T08:06:46.608Z</time>
      </trkpt>
      <trkpt lat="41.88476" lon="25.9729">
        <ele>113.950373</ele>
        <time>2022-02-27T08:06:49.632Z</time>
      </trkpt>
      <trkpt lat="41.88484" lon="25.9728">
        <ele>114.184293</ele>
        <time>2022-02-27T08:06:52.623Z</time>
      </trkpt>
      <trkpt lat="41.88492" lon="25.9727">
        <ele>114.419317</ele>
        <time>2022-02-27T08:06:55.640Z</time>
      </trkpt>
      <trkpt lat="41.88499" lon="25.9726">
        <ele>114.63667</ele>
        <time>2022-02-27T08:06:58.596Z</time>
      </trkpt>
      <trkpt lat="41.88507" lon="25.97251">
        <ele>114.817547</ele>
        <time>2022-02-27T08:07:01.607Z</time>
      </trkpt>
      <trkpt lat="41.88514" lon="25.97243">
        <ele>114.862778</ele>
        <time>2022-02-27T08:07:04.612Z</time>
      </trkpt>
      <trkpt lat="41.88521" lon="25.97234">
        <ele>114.90933</ele>
        <time>2022-02-27T08:07:07.609Z</time>
      </trkpt>
      <trkpt lat="41.88529" lon="25.97225">
        <ele>114.958458</ele>
        <time>2022-02-27T08:07:10.594Z</time>
      </trkpt>
      <trkpt lat="41.88537" lon="25.97216">
        <ele>115.008798</ele>
        <time>2022-02-27T08:07:13.613Z</time>
      </trkpt>
      <trkpt lat="41.88546" lon="25.97206">
        <ele>115.062664</ele>
        <time>2022-02-27T08:07:16.594Z</time>
      </trkpt>
      <trkpt lat="41.88555" lon="25.97197">
        <ele>115.11658</ele>
        <time>2022-02-27T08:07:19.601Z</time>
      </trkpt>
      <trkpt lat="41.88563" lon="25.97187">
        <ele>115.169496</ele>
        <time>2022-02-27T08:07:22.597Z</time>
      </trkpt>
      <trkpt lat="41.88572" lon="25.97177">
        <ele>115.224546</ele>
        <time>2022-02-27T08:07:25.621Z</time>
      </trkpt>
      <trkpt lat="41.8858" lon="25.97167">
        <ele>115.27854</ele>
        <time>2022-02-27T08:07:28.657Z</time>
      </trkpt>
      <trkpt lat="41.88589" lon="25.97156">
        <ele>115.335014</ele>
        <time>2022-02-27T08:07:31.610Z</time>
      </trkpt>
      <trkpt lat="41.88597" lon="25.97145">
        <ele>115.390939</ele>
        <time>2022-02-27T08:07:34.604Z</time>
      </trkpt>
      <trkpt lat="41.88606" lon="25.97134">
        <ele>115.448004</ele>
        <time>2022-02-27T08:07:37.597Z</time>
      </trkpt>
      <trkpt lat="41.88615" lon="25.97124">
        <ele>115.503998</ele>
        <time>2022-02-27T08:07:40.585Z</time>
      </trkpt>
      <trkpt lat="41.88624" lon="25.97114">
        <ele>115.559601</ele>
        <time>2022-02-27T08:07:43.608Z</time>
      </trkpt>
      <trkpt lat="41.88633" lon="25.97102">
        <ele>115.619621</ele>
        <time>2022-02-27T08:07:46.606Z</time>
      </trkpt>
      <trkpt lat="41.88642" lon="25.97091">
        <ele>115.618604</ele>
        <time>2022-02-27T08:07:49.599Z</time>
      </trkpt>
      <trkpt lat="41.88652" lon="25.9708">
        <ele>115.435942</ele>
        <time>2022-02-27T08:07:52.614Z</time>
      </trkpt>
      <trkpt lat="41.88661" lon="25.97068">
        <ele>115.245389</ele>
        <time>2022-02-27T08:07:55.612Z</time>
      </trkpt>
      <trkpt lat="41.88671" lon="25.97057">
        <ele>115.051348</ele>
        <time>2022-02-27T08:07:58.605Z</time>
      </trkpt>
      <trkpt lat="41.88681" lon="25.97046">
        <ele>114.85592</ele>
        <time>2022-02-27T08:08:01.639Z</time>
      </trkpt>
      <trkpt lat="41.88688" lon="25.97038">
        <ele>114.718061</ele>
        <time>2022-02-27T08:08:03.605Z</time>
      </trkpt>
      <trkpt lat="41.88696" lon="25.97029">
        <ele>114.576574</ele>
        <time>2022-02-27T08:08:05.589Z</time>
      </trkpt>
      <trkpt lat="41.88702" lon="25.97021">
        <ele>114.44168</ele>
        <time>2022-02-27T08:08:07.628Z</time>
      </trkpt>
      <trkpt lat="41.88712" lon="25.97011">
        <ele>114.259333</ele>
        <time>2022-02-27T08:08:10.612Z</time>
      </trkpt>
      <trkpt lat="41.88721" lon="25.96998">
        <ele>114.069059</ele>
        <time>2022-02-27T08:08:13.610Z</time>
      </trkpt>
      <trkpt lat="41.88728" lon="25.9699">
        <ele>113.933742</ele>
        <time>2022-02-27T08:08:15.647Z</time>
      </trkpt>
      <trkpt lat="41.88735" lon="25.96982">
        <ele>113.795883</ele>
        <time>2022-02-27T08:08:17.606Z</time>
      </trkpt>
      <trkpt lat="41.88742" lon="25.96973">
        <ele>113.648885</ele>
        <time>2022-02-27T08:08:19.604Z</time>
      </trkpt>
      <trkpt lat="41.8875" lon="25.96964">
        <ele>113.498942</ele>
        <time>2022-02-27T08:08:21.590Z</time>
      </trkpt>
      <trkpt lat="41.88757" lon="25.96955">
        <ele>113.350447</ele>
        <time>2022-02-27T08:08:23.595Z</time>
      </trkpt>
      <trkpt lat="41.88765" lon="25.96946">
        <ele>113.201952</ele>
        <time>2022-02-27T08:08:25.613Z</time>
      </trkpt>
      <trkpt lat="41.88773" lon="25.96937">
        <ele>113.049441</ele>
        <time>2022-02-27T08:08:27.624Z</time>
      </trkpt>
      <trkpt lat="41.88781" lon="25.96928">
        <ele>113.048243</ele>
        <time>2022-02-27T08:08:29.632Z</time>
      </trkpt>
      <trkpt lat="41.88788" lon="25.96918">
        <ele>113.112008</ele>
        <time>2022-02-27T08:08:31.617Z</time>
      </trkpt>
      <trkpt lat="41.88796" lon="25.96909">
        <ele>113.17605</ele>
        <time>2022-02-27T08:08:33.613Z</time>
      </trkpt>
      <trkpt lat="41.88803" lon="25.96899">
        <ele>113.238424</ele>
        <time>2022-02-27T08:08:35.647Z</time>
      </trkpt>
      <trkpt lat="41.8881" lon="25.9689">
        <ele>113.298826</ele>
        <time>2022-02-27T08:08:37.594Z</time>
      </trkpt>
      <trkpt lat="41.88818" lon="25.96882">
        <ele>113.356525</ele>
        <time>2022-02-27T08:08:39.608Z</time>
      </trkpt>
      <trkpt lat="41.88824" lon="25.96874">
        <ele>113.413077</ele>
        <time>2022-02-27T08:08:41.623Z</time>
      </trkpt>
      <trkpt lat="41.88831" lon="25.96865">
        <ele>113.47164</ele>
        <time>2022-02-27T08:08:43.607Z</time>
      </trkpt>
      <trkpt lat="41.88842" lon="25.96855">
        <ele>113.552484</ele>
        <time>2022-02-27T08:08:46.624Z</time>
      </trkpt>
      <trkpt lat="41.88849" lon="25.96847">
        <ele>113.609613</ele>
        <time>2022-02-27T08:08:48.609Z</time>
      </trkpt>
      <trkpt lat="41.88859" lon="25.96835">
        <ele>113.691404</ele>
        <time>2022-02-27T08:08:51.607Z</time>
      </trkpt>
      <trkpt lat="41.88869" lon="25.96824">
        <ele>113.770192</ele>
        <time>2022-02-27T08:08:54.604Z</time>
      </trkpt>
      <trkpt lat="41.88879" lon="25.96813">
        <ele>113.850892</ele>
        <time>2022-02-27T08:08:57.642Z</time>
      </trkpt>
      <trkpt lat="41.88889" lon="25.96801">
        <ele>113.93399</ele>
        <time>2022-02-27T08:09:00.613Z</time>
      </trkpt>
      <trkpt lat="41.88899" lon="25.9679">
        <ele>114.012397</ele>
        <time>2022-02-27T08:09:03.647Z</time>
      </trkpt>
      <trkpt lat="41.88907" lon="25.96779">
        <ele>114.084097</ele>
        <time>2022-02-27T08:09:06.615Z</time>
      </trkpt>
      <trkpt lat="41.88915" lon="25.96769">
        <ele>114.186682</ele>
        <time>2022-02-27T08:09:09.603Z</time>
      </trkpt>
      <trkpt lat="41.88923" lon="25.96758">
        <ele>114.308253</ele>
        <time>2022-02-27T08:09:12.598Z</time>
      </trkpt>
      <trkpt lat="41.88931" lon="25.96748">
        <ele>114.432667</ele>
        <time>2022-02-27T08:09:15.602Z</time>
      </trkpt>
      <trkpt lat="41.8894" lon="25.96739">
        <ele>114.551552</ele>
        <time>2022-02-27T08:09:18.612Z</time>
      </trkpt>
      <trkpt lat="41.88948" lon="25.96729">
        <ele>114.677479</ele>
        <time>2022-02-27T08:09:21.600Z</time>
      </trkpt>
      <trkpt lat="41.88957" lon="25.96719">
        <ele>114.80347</ele>
        <time>2022-02-27T08:09:24.609Z</time>
      </trkpt>
      <trkpt lat="41.88965" lon="25.9671">
        <ele>114.917822</ele>
        <time>2022-02-27T08:09:27.645Z</time>
      </trkpt>
      <trkpt lat="41.88973" lon="25.967">
        <ele>115.043813</ele>
        <time>2022-02-27T08:09:30.607Z</time>
      </trkpt>
      <trkpt lat="41.88981" lon="25.96692">
        <ele>115.153235</ele>
        <time>2022-02-27T08:09:33.607Z</time>
      </trkpt>
      <trkpt lat="41.88989" lon="25.96684">
        <ele>115.262133</ele>
        <time>2022-02-27T08:09:36.634Z</time>
      </trkpt>
      <trkpt lat="41.88997" lon="25.96674">
        <ele>115.382834</ele>
        <time>2022-02-27T08:09:39.621Z</time>
      </trkpt>
      <trkpt lat="41.89005" lon="25.96664">
        <ele>115.508628</ele>
        <time>2022-02-27T08:09:42.593Z</time>
      </trkpt>
      <trkpt lat="41.89014" lon="25.96654">
        <ele>115.635655</ele>
        <time>2022-02-27T08:09:45.592Z</time>
      </trkpt>
      <trkpt lat="41.89022" lon="25.96644">
        <ele>115.75662</ele>
        <time>2022-02-27T08:09:48.614Z</time>
      </trkpt>
      <trkpt lat="41.89031" lon="25.96634">
        <ele>115.880918</ele>
        <time>2022-02-27T08:09:51.605Z</time>
      </trkpt>
      <trkpt lat="41.89039" lon="25.96625">
        <ele>116.002996</ele>
        <time>2022-02-27T08:09:54.620Z</time>
      </trkpt>
      <trkpt lat="41.89047" lon="25.96615">
        <ele>116.112636</ele>
        <time>2022-02-27T08:09:57.621Z</time>
      </trkpt>
      <trkpt lat="41.89055" lon="25.96606">
        <ele>116.153654</ele>
        <time>2022-02-27T08:10:00.607Z</time>
      </trkpt>
      <trkpt lat="41.89063" lon="25.96598">
        <ele>116.194862</ele>
        <time>2022-02-27T08:10:03.612Z</time>
      </trkpt>
      <trkpt lat="41.89073" lon="25.96589">
        <ele>116.242839</ele>
        <time>2022-02-27T08:10:07.604Z</time>
      </trkpt>
      <trkpt lat="41.8908" lon="25.96581">
        <ele>116.279585</ele>
        <time>2022-02-27T08:10:10.602Z</time>
      </trkpt>
      <trkpt lat="41.89088" lon="25.96572">
        <ele>116.319893</ele>
        <time>2022-02-27T08:10:13.615Z</time>
      </trkpt>
      <trkpt lat="41.89095" lon="25.96563">
        <ele>116.360995</ele>
        <time>2022-02-27T08:10:16.587Z</time>
      </trkpt>
      <trkpt lat="41.89104" lon="25.96554">
        <ele>116.406501</ele>
        <time>2022-02-27T08:10:19.590Z</time>
      </trkpt>
      <trkpt lat="41.89113" lon="25.96545">
        <ele>116.450678</ele>
        <time>2022-02-27T08:10:22.604Z</time>
      </trkpt>
      <trkpt lat="41.89122" lon="25.96537">
        <ele>116.494856</ele>
        <time>2022-02-27T08:10:25.592Z</time>
      </trkpt>
      <trkpt lat="41.89131" lon="25.96528">
        <ele>116.539835</ele>
        <time>2022-02-27T08:10:28.585Z</time>
      </trkpt>
      <trkpt lat="41.8914" lon="25.96519">
        <ele>116.584293</ele>
        <time>2022-02-27T08:10:31.650Z</time>
      </trkpt>
      <trkpt lat="41.89148" lon="25.96509">
        <ele>116.62882</ele>
        <time>2022-02-27T08:10:34.609Z</time>
      </trkpt>
      <trkpt lat="41.89157" lon="25.965">
        <ele>116.673039</ele>
        <time>2022-02-27T08:10:37.582Z</time>
      </trkpt>
      <trkpt lat="41.89166" lon="25.96491">
        <ele>116.717124</ele>
        <time>2022-02-27T08:10:40.605Z</time>
      </trkpt>
      <trkpt lat="41.89175" lon="25.96482">
        <ele>116.764816</ele>
        <time>2022-02-27T08:10:43.605Z</time>
      </trkpt>
      <trkpt lat="41.89184" lon="25.96473">
        <ele>116.809675</ele>
        <time>2022-02-27T08:10:46.606Z</time>
      </trkpt>
      <trkpt lat="41.89193" lon="25.96463">
        <ele>116.776534</ele>
        <time>2022-02-27T08:10:49.591Z</time>
      </trkpt>
      <trkpt lat="41.89203" lon="25.96453">
        <ele>116.684482</ele>
        <time>2022-02-27T08:10:52.591Z</time>
      </trkpt>
      <trkpt lat="41.89212" lon="25.96444">
        <ele>116.6002</ele>
        <time>2022-02-27T08:10:55.611Z</time>
      </trkpt>
      <trkpt lat="41.89222" lon="25.96434">
        <ele>116.50781</ele>
        <time>2022-02-27T08:10:58.636Z</time>
      </trkpt>
      <trkpt lat="41.89232" lon="25.96424">
        <ele>116.416687</ele>
        <time>2022-02-27T08:11:01.629Z</time>
      </trkpt>
      <trkpt lat="41.89241" lon="25.96414">
        <ele>116.326494</ele>
        <time>2022-02-27T08:11:04.615Z</time>
      </trkpt>
      <trkpt lat="41.8925" lon="25.96404">
        <ele>116.240802</ele>
        <time>2022-02-27T08:11:07.591Z</time>
      </trkpt>
      <trkpt lat="41.89259" lon="25.96392">
        <ele>116.150371</ele>
        <time>2022-02-27T08:11:10.617Z</time>
      </trkpt>
      <trkpt lat="41.89268" lon="25.96381">
        <ele>116.05648</ele>
        <time>2022-02-27T08:11:13.607Z</time>
      </trkpt>
      <trkpt lat="41.89278" lon="25.96371">
        <ele>115.961205</ele>
        <time>2022-02-27T08:11:16.595Z</time>
      </trkpt>
      <trkpt lat="41.89286" lon="25.96363">
        <ele>115.893714</ele>
        <time>2022-02-27T08:11:18.707Z</time>
      </trkpt>
      <trkpt lat="41.89296" lon="25.96353">
        <ele>115.795496</ele>
        <time>2022-02-27T08:11:21.607Z</time>
      </trkpt>
      <trkpt lat="41.89306" lon="25.96341">
        <ele>115.695743</ele>
        <time>2022-02-27T08:11:24.589Z</time>
      </trkpt>
      <trkpt lat="41.89313" lon="25.96332">
        <ele>115.627065</ele>
        <time>2022-02-27T08:11:26.618Z</time>
      </trkpt>
      <trkpt lat="41.89322" lon="25.9632">
        <ele>115.529153</ele>
        <time>2022-02-27T08:11:29.663Z</time>
      </trkpt>
      <trkpt lat="41.89332" lon="25.96308">
        <ele>115.372462</ele>
        <time>2022-02-27T08:11:32.688Z</time>
      </trkpt>
      <trkpt lat="41.89338" lon="25.963">
        <ele>115.228906</ele>
        <time>2022-02-27T08:11:34.593Z</time>
      </trkpt>
      <trkpt lat="41.89345" lon="25.96291">
        <ele>115.083243</ele>
        <time>2022-02-27T08:11:36.621Z</time>
      </trkpt>
      <trkpt lat="41.89352" lon="25.96282">
        <ele>114.935341</ele>
        <time>2022-02-27T08:11:38.617Z</time>
      </trkpt>
      <trkpt lat="41.89358" lon="25.96273">
        <ele>114.787194</ele>
        <time>2022-02-27T08:11:40.662Z</time>
      </trkpt>
      <trkpt lat="41.89365" lon="25.96264">
        <ele>114.64235</ele>
        <time>2022-02-27T08:11:42.616Z</time>
      </trkpt>
      <trkpt lat="41.89372" lon="25.96255">
        <ele>114.493637</ele>
        <time>2022-02-27T08:11:44.608Z</time>
      </trkpt>
      <trkpt lat="41.89378" lon="25.96247">
        <ele>114.350874</ele>
        <time>2022-02-27T08:11:46.604Z</time>
      </trkpt>
      <trkpt lat="41.89385" lon="25.96239">
        <ele>114.209899</ele>
        <time>2022-02-27T08:11:48.668Z</time>
      </trkpt>
      <trkpt lat="41.89391" lon="25.96229">
        <ele>114.060942</ele>
        <time>2022-02-27T08:11:50.593Z</time>
      </trkpt>
      <trkpt lat="41.89397" lon="25.96219">
        <ele>113.915781</ele>
        <time>2022-02-27T08:11:52.612Z</time>
      </trkpt>
      <trkpt lat="41.89403" lon="25.96209">
        <ele>113.767962</ele>
        <time>2022-02-27T08:11:54.600Z</time>
      </trkpt>
      <trkpt lat="41.89409" lon="25.96199">
        <ele>113.615457</ele>
        <time>2022-02-27T08:11:56.615Z</time>
      </trkpt>
      <trkpt lat="41.89415" lon="25.96189">
        <ele>113.466501</ele>
        <time>2022-02-27T08:11:58.602Z</time>
      </trkpt>
      <trkpt lat="41.89421" lon="25.96179">
        <ele>113.313449</ele>
        <time>2022-02-27T08:12:00.608Z</time>
      </trkpt>
      <trkpt lat="41.89427" lon="25.96169">
        <ele>113.161793</ele>
        <time>2022-02-27T08:12:02.611Z</time>
      </trkpt>
      <trkpt lat="41.89433" lon="25.96158">
        <ele>113.004646</ele>
        <time>2022-02-27T08:12:04.599Z</time>
      </trkpt>
      <trkpt lat="41.89439" lon="25.96147">
        <ele>112.843763</ele>
        <time>2022-02-27T08:12:06.596Z</time>
      </trkpt>
      <trkpt lat="41.89446" lon="25.96136">
        <ele>112.679144</ele>
        <time>2022-02-27T08:12:08.605Z</time>
      </trkpt>
      <trkpt lat="41.89452" lon="25.96125">
        <ele>112.78869</ele>
        <time>2022-02-27T08:12:10.608Z</time>
      </trkpt>
      <trkpt lat="41.89458" lon="25.96114">
        <ele>112.912699</ele>
        <time>2022-02-27T08:12:12.597Z</time>
      </trkpt>
      <trkpt lat="41.89464" lon="25.96103">
        <ele>113.033036</ele>
        <time>2022-02-27T08:12:14.604Z</time>
      </trkpt>
      <trkpt lat="41.8947" lon="25.96093">
        <ele>113.14416</ele>
        <time>2022-02-27T08:12:16.605Z</time>
      </trkpt>
      <trkpt lat="41.89475" lon="25.96082">
        <ele>113.256965</ele>
        <time>2022-02-27T08:12:18.597Z</time>
      </trkpt>
      <trkpt lat="41.8948" lon="25.96071">
        <ele>113.375585</ele>
        <time>2022-02-27T08:12:20.627Z</time>
      </trkpt>
      <trkpt lat="41.89485" lon="25.9606">
        <ele>113.493841</ele>
        <time>2022-02-27T08:12:22.604Z</time>
      </trkpt>
      <trkpt lat="41.89491" lon="25.96049">
        <ele>113.615625</ele>
        <time>2022-02-27T08:12:24.635Z</time>
      </trkpt>
      <trkpt lat="41.89497" lon="25.96038">
        <ele>113.73173</ele>
        <time>2022-02-27T08:12:26.632Z</time>
      </trkpt>
      <trkpt lat="41.89502" lon="25.96027">
        <ele>113.851459</ele>
        <time>2022-02-27T08:12:28.610Z</time>
      </trkpt>
      <trkpt lat="41.89508" lon="25.96016">
        <ele>113.970079</ele>
        <time>2022-02-27T08:12:30.657Z</time>
      </trkpt>
      <trkpt lat="41.89513" lon="25.96005">
        <ele>114.086549</ele>
        <time>2022-02-27T08:12:32.595Z</time>
      </trkpt>
      <trkpt lat="41.89518" lon="25.95994">
        <ele>114.20441</ele>
        <time>2022-02-27T08:12:34.596Z</time>
      </trkpt>
      <trkpt lat="41.89523" lon="25.95982">
        <ele>114.321177</ele>
        <time>2022-02-27T08:12:36.602Z</time>
      </trkpt>
      <trkpt lat="41.89528" lon="25.95972">
        <ele>114.433715</ele>
        <time>2022-02-27T08:12:38.596Z</time>
      </trkpt>
      <trkpt lat="41.89533" lon="25.95961">
        <ele>114.547161</ele>
        <time>2022-02-27T08:12:40.623Z</time>
      </trkpt>
      <trkpt lat="41.89539" lon="25.95951">
        <ele>114.664626</ele>
        <time>2022-02-27T08:12:42.588Z</time>
      </trkpt>
      <trkpt lat="41.89544" lon="25.95939">
        <ele>114.781235</ele>
        <time>2022-02-27T08:12:44.596Z</time>
      </trkpt>
      <trkpt lat="41.89549" lon="25.95928">
        <ele>114.909705</ele>
        <time>2022-02-27T08:12:46.653Z</time>
      </trkpt>
      <trkpt lat="41.89554" lon="25.95917">
        <ele>115.042889</ele>
        <time>2022-02-27T08:12:48.584Z</time>
      </trkpt>
      <trkpt lat="41.89559" lon="25.95906">
        <ele>115.183906</ele>
        <time>2022-02-27T08:12:50.602Z</time>
      </trkpt>
      <trkpt lat="41.89563" lon="25.95895">
        <ele>115.317632</ele>
        <time>2022-02-27T08:12:52.604Z</time>
      </trkpt>
      <trkpt lat="41.89568" lon="25.95883">
        <ele>115.460062</ele>
        <time>2022-02-27T08:12:54.595Z</time>
      </trkpt>
      <trkpt lat="41.89573" lon="25.95872">
        <ele>115.598539</ele>
        <time>2022-02-27T08:12:56.618Z</time>
      </trkpt>
      <trkpt lat="41.89578" lon="25.95861">
        <ele>115.731723</ele>
        <time>2022-02-27T08:12:58.606Z</time>
      </trkpt>
      <trkpt lat="41.89582" lon="25.95849">
        <ele>115.865262</ele>
        <time>2022-02-27T08:13:00.614Z</time>
      </trkpt>
      <trkpt lat="41.89586" lon="25.95838">
        <ele>116.004169</ele>
        <time>2022-02-27T08:13:02.595Z</time>
      </trkpt>
      <trkpt lat="41.89591" lon="25.95826">
        <ele>116.139938</ele>
        <time>2022-02-27T08:13:04.593Z</time>
      </trkpt>
      <trkpt lat="41.89595" lon="25.95815">
        <ele>116.269433</ele>
        <time>2022-02-27T08:13:06.605Z</time>
      </trkpt>
      <trkpt lat="41.89599" lon="25.95804">
        <ele>116.402971</ele>
        <time>2022-02-27T08:13:08.668Z</time>
      </trkpt>
      <trkpt lat="41.89604" lon="25.95794">
        <ele>116.534896</ele>
        <time>2022-02-27T08:13:10.594Z</time>
      </trkpt>
      <trkpt lat="41.89609" lon="25.95783">
        <ele>116.669366</ele>
        <time>2022-02-27T08:13:12.619Z</time>
      </trkpt>
      <trkpt lat="41.89615" lon="25.95772">
        <ele>116.805914</ele>
        <time>2022-02-27T08:13:14.613Z</time>
      </trkpt>
      <trkpt lat="41.8962" lon="25.95762">
        <ele>116.935154</ele>
        <time>2022-02-27T08:13:16.613Z</time>
      </trkpt>
      <trkpt lat="41.89624" lon="25.95752">
        <ele>117.064695</ele>
        <time>2022-02-27T08:13:18.612Z</time>
      </trkpt>
      <trkpt lat="41.89629" lon="25.95741">
        <ele>117.194827</ele>
        <time>2022-02-27T08:13:20.590Z</time>
      </trkpt>
      <trkpt lat="41.89635" lon="25.95731">
        <ele>117.324591</ele>
        <time>2022-02-27T08:13:22.590Z</time>
      </trkpt>
      <trkpt lat="41.89642" lon="25.95716">
        <ele>117.16665</ele>
        <time>2022-02-27T08:13:25.590Z</time>
      </trkpt>
      <trkpt lat="41.89647" lon="25.95706">
        <ele>116.95582</ele>
        <time>2022-02-27T08:13:27.628Z</time>
      </trkpt>
      <trkpt lat="41.89651" lon="25.95696">
        <ele>116.747965</ele>
        <time>2022-02-27T08:13:29.616Z</time>
      </trkpt>
      <trkpt lat="41.89659" lon="25.95681">
        <ele>116.431335</ele>
        <time>2022-02-27T08:13:32.609Z</time>
      </trkpt>
      <trkpt lat="41.89665" lon="25.9567">
        <ele>116.210625</ele>
        <time>2022-02-27T08:13:34.647Z</time>
      </trkpt>
      <trkpt lat="41.89671" lon="25.9566">
        <ele>115.989885</ele>
        <time>2022-02-27T08:13:36.602Z</time>
      </trkpt>
      <trkpt lat="41.89676" lon="25.9565">
        <ele>115.770556</ele>
        <time>2022-02-27T08:13:38.608Z</time>
      </trkpt>
      <trkpt lat="41.89682" lon="25.9564">
        <ele>115.558171</ele>
        <time>2022-02-27T08:13:40.616Z</time>
      </trkpt>
      <trkpt lat="41.89689" lon="25.95626">
        <ele>115.267765</ele>
        <time>2022-02-27T08:13:43.605Z</time>
      </trkpt>
      <trkpt lat="41.89696" lon="25.95613">
        <ele>114.978896</ele>
        <time>2022-02-27T08:13:46.620Z</time>
      </trkpt>
      <trkpt lat="41.89702" lon="25.95598">
        <ele>114.68986</ele>
        <time>2022-02-27T08:13:49.596Z</time>
      </trkpt>
      <trkpt lat="41.89709" lon="25.95584">
        <ele>114.392797</ele>
        <time>2022-02-27T08:13:52.594Z</time>
      </trkpt>
      <trkpt lat="41.89714" lon="25.95569">
        <ele>114.115801</ele>
        <time>2022-02-27T08:13:55.594Z</time>
      </trkpt>
      <trkpt lat="41.89719" lon="25.95555">
        <ele>113.837365</ele>
        <time>2022-02-27T08:13:58.602Z</time>
      </trkpt>
      <trkpt lat="41.89725" lon="25.95539">
        <ele>113.532983</ele>
        <time>2022-02-27T08:14:01.624Z</time>
      </trkpt>
      <trkpt lat="41.8973" lon="25.95524">
        <ele>113.247003</ele>
        <time>2022-02-27T08:14:04.611Z</time>
      </trkpt>
      <trkpt lat="41.89734" lon="25.95509">
        <ele>113.08029</ele>
        <time>2022-02-27T08:14:07.613Z</time>
      </trkpt>
      <trkpt lat="41.89739" lon="25.95495">
        <ele>112.93472</ele>
        <time>2022-02-27T08:14:10.621Z</time>
      </trkpt>
      <trkpt lat="41.89745" lon="25.95481">
        <ele>112.783533</ele>
        <time>2022-02-27T08:14:13.616Z</time>
      </trkpt>
      <trkpt lat="41.8975" lon="25.95465">
        <ele>112.62501</ele>
        <time>2022-02-27T08:14:16.607Z</time>
      </trkpt>
      <trkpt lat="41.89754" lon="25.9545">
        <ele>112.471581</ele>
        <time>2022-02-27T08:14:19.630Z</time>
      </trkpt>
      <trkpt lat="41.8976" lon="25.95436">
        <ele>112.317912</ele>
        <time>2022-02-27T08:14:22.600Z</time>
      </trkpt>
      <trkpt lat="41.89764" lon="25.95421">
        <ele>112.169851</ele>
        <time>2022-02-27T08:14:25.651Z</time>
      </trkpt>
      <trkpt lat="41.89769" lon="25.95407">
        <ele>112.021944</ele>
        <time>2022-02-27T08:14:28.587Z</time>
      </trkpt>
      <trkpt lat="41.89774" lon="25.95393">
        <ele>111.878487</ele>
        <time>2022-02-27T08:14:31.644Z</time>
      </trkpt>
      <trkpt lat="41.89778" lon="25.95378">
        <ele>111.736583</ele>
        <time>2022-02-27T08:14:34.605Z</time>
      </trkpt>
      <trkpt lat="41.89783" lon="25.95365">
        <ele>111.59439</ele>
        <time>2022-02-27T08:14:37.600Z</time>
      </trkpt>
      <trkpt lat="41.89787" lon="25.95351">
        <ele>111.456583</ele>
        <time>2022-02-27T08:14:40.596Z</time>
      </trkpt>
      <trkpt lat="41.89791" lon="25.95339">
        <ele>111.329896</ele>
        <time>2022-02-27T08:14:43.613Z</time>
      </trkpt>
      <trkpt lat="41.89797" lon="25.95324">
        <ele>111.164345</ele>
        <time>2022-02-27T08:14:46.605Z</time>
      </trkpt>
      <trkpt lat="41.89802" lon="25.95313">
        <ele>111.051389</ele>
        <time>2022-02-27T08:14:48.605Z</time>
      </trkpt>
      <trkpt lat="41.89807" lon="25.95303">
        <ele>110.937835</ele>
        <time>2022-02-27T08:14:50.604Z</time>
      </trkpt>
      <trkpt lat="41.89812" lon="25.95291">
        <ele>111.16623</ele>
        <time>2022-02-27T08:14:52.594Z</time>
      </trkpt>
      <trkpt lat="41.89818" lon="25.9528">
        <ele>111.390129</ele>
        <time>2022-02-27T08:14:54.623Z</time>
      </trkpt>
      <trkpt lat="41.89825" lon="25.95265">
        <ele>111.690586</ele>
        <time>2022-02-27T08:14:57.604Z</time>
      </trkpt>
      <trkpt lat="41.89832" lon="25.9525">
        <ele>111.982932</ele>
        <time>2022-02-27T08:15:00.606Z</time>
      </trkpt>
      <trkpt lat="41.8984" lon="25.95237">
        <ele>112.274949</ele>
        <time>2022-02-27T08:15:03.610Z</time>
      </trkpt>
      <trkpt lat="41.89846" lon="25.95228">
        <ele>112.481783</ele>
        <time>2022-02-27T08:15:05.631Z</time>
      </trkpt>
      <trkpt lat="41.89852" lon="25.95218">
        <ele>112.687485</ele>
        <time>2022-02-27T08:15:07.583Z</time>
      </trkpt>
      <trkpt lat="41.89858" lon="25.95209">
        <ele>112.895802</ele>
        <time>2022-02-27T08:15:09.592Z</time>
      </trkpt>
      <trkpt lat="41.89865" lon="25.952">
        <ele>113.110554</ele>
        <time>2022-02-27T08:15:11.598Z</time>
      </trkpt>
      <trkpt lat="41.89872" lon="25.95192">
        <ele>113.326215</ele>
        <time>2022-02-27T08:15:13.593Z</time>
      </trkpt>
      <trkpt lat="41.89879" lon="25.95184">
        <ele>113.534843</ele>
        <time>2022-02-27T08:15:15.657Z</time>
      </trkpt>
      <trkpt lat="41.89887" lon="25.95177">
        <ele>113.749936</ele>
        <time>2022-02-27T08:15:17.597Z</time>
      </trkpt>
      <trkpt lat="41.89895" lon="25.95168">
        <ele>113.974968</ele>
        <time>2022-02-27T08:15:19.609Z</time>
      </trkpt>
      <trkpt lat="41.89902" lon="25.9516">
        <ele>114.200354</ele>
        <time>2022-02-27T08:15:21.625Z</time>
      </trkpt>
      <trkpt lat="41.8991" lon="25.95152">
        <ele>114.423617</ele>
        <time>2022-02-27T08:15:23.597Z</time>
      </trkpt>
      <trkpt lat="41.89918" lon="25.95143">
        <ele>114.649698</ele>
        <time>2022-02-27T08:15:25.631Z</time>
      </trkpt>
      <trkpt lat="41.89926" lon="25.95135">
        <ele>114.87907</ele>
        <time>2022-02-27T08:15:27.591Z</time>
      </trkpt>
      <trkpt lat="41.89934" lon="25.95127">
        <ele>114.901893</ele>
        <time>2022-02-27T08:15:29.629Z</time>
      </trkpt>
      <trkpt lat="41.89941" lon="25.95119">
        <ele>114.660548</ele>
        <time>2022-02-27T08:15:31.607Z</time>
      </trkpt>
      <trkpt lat="41.89949" lon="25.95111">
        <ele>114.428046</ele>
        <time>2022-02-27T08:15:33.602Z</time>
      </trkpt>
      <trkpt lat="41.89957" lon="25.95103">
        <ele>114.196913</ele>
        <time>2022-02-27T08:15:35.599Z</time>
      </trkpt>
      <trkpt lat="41.89965" lon="25.95095">
        <ele>113.952526</ele>
        <time>2022-02-27T08:15:37.613Z</time>
      </trkpt>
      <trkpt lat="41.89973" lon="25.95087">
        <ele>113.701432</ele>
        <time>2022-02-27T08:15:39.605Z</time>
      </trkpt>
      <trkpt lat="41.89981" lon="25.95078">
        <ele>113.446826</ele>
        <time>2022-02-27T08:15:41.617Z</time>
      </trkpt>
      <trkpt lat="41.8999" lon="25.9507">
        <ele>113.184392</ele>
        <time>2022-02-27T08:15:43.652Z</time>
      </trkpt>
      <trkpt lat="41.89998" lon="25.95061">
        <ele>112.918446</ele>
        <time>2022-02-27T08:15:45.595Z</time>
      </trkpt>
      <trkpt lat="41.90006" lon="25.95053">
        <ele>112.673188</ele>
        <time>2022-02-27T08:15:47.601Z</time>
      </trkpt>
      <trkpt lat="41.90015" lon="25.95045">
        <ele>112.423981</ele>
        <time>2022-02-27T08:15:49.635Z</time>
      </trkpt>
      <trkpt lat="41.90023" lon="25.95036">
        <ele>112.164389</ele>
        <time>2022-02-27T08:15:51.607Z</time>
      </trkpt>
      <trkpt lat="41.90032" lon="25.95027">
        <ele>111.904798</ele>
        <time>2022-02-27T08:15:53.595Z</time>
      </trkpt>
      <trkpt lat="41.9004" lon="25.95019">
        <ele>111.641293</ele>
        <time>2022-02-27T08:15:55.594Z</time>
      </trkpt>
      <trkpt lat="41.90049" lon="25.9501">
        <ele>111.383349</ele>
        <time>2022-02-27T08:15:57.612Z</time>
      </trkpt>
      <trkpt lat="41.90057" lon="25.95001">
        <ele>111.119844</ele>
        <time>2022-02-27T08:15:59.589Z</time>
      </trkpt>
      <trkpt lat="41.90066" lon="25.94993">
        <ele>110.860452</ele>
        <time>2022-02-27T08:16:01.611Z</time>
      </trkpt>
      <trkpt lat="41.90074" lon="25.94985">
        <ele>110.617121</ele>
        <time>2022-02-27T08:16:03.591Z</time>
      </trkpt>
      <trkpt lat="41.90082" lon="25.94977">
        <ele>110.64246</ele>
        <time>2022-02-27T08:16:05.624Z</time>
      </trkpt>
      <trkpt lat="41.9009" lon="25.94969">
        <ele>110.667712</ele>
        <time>2022-02-27T08:16:07.607Z</time>
      </trkpt>
      <trkpt lat="41.90097" lon="25.94961">
        <ele>110.691571</ele>
        <time>2022-02-27T08:16:09.610Z</time>
      </trkpt>
      <trkpt lat="41.90104" lon="25.94953">
        <ele>110.715343</ele>
        <time>2022-02-27T08:16:11.631Z</time>
      </trkpt>
      <trkpt lat="41.90112" lon="25.94946">
        <ele>110.738563</ele>
        <time>2022-02-27T08:16:13.617Z</time>
      </trkpt>
      <trkpt lat="41.90122" lon="25.94936">
        <ele>110.771864</ele>
        <time>2022-02-27T08:16:16.591Z</time>
      </trkpt>
      <trkpt lat="41.9013" lon="25.94928">
        <ele>110.795906</ele>
        <time>2022-02-27T08:16:18.603Z</time>
      </trkpt>
      <trkpt lat="41.90137" lon="25.9492">
        <ele>110.820674</ele>
        <time>2022-02-27T08:16:20.583Z</time>
      </trkpt>
      <trkpt lat="41.90145" lon="25.94912">
        <ele>110.844213</ele>
        <time>2022-02-27T08:16:22.598Z</time>
      </trkpt>
      <trkpt lat="41.90152" lon="25.94905">
        <ele>110.868463</ele>
        <time>2022-02-27T08:16:24.614Z</time>
      </trkpt>
      <trkpt lat="41.9016" lon="25.94898">
        <ele>110.892713</ele>
        <time>2022-02-27T08:16:26.603Z</time>
      </trkpt>
      <trkpt lat="41.90168" lon="25.94889">
        <ele>110.918877</ele>
        <time>2022-02-27T08:16:28.627Z</time>
      </trkpt>
      <trkpt lat="41.90175" lon="25.94881">
        <ele>110.942852</ele>
        <time>2022-02-27T08:16:30.629Z</time>
      </trkpt>
      <trkpt lat="41.90182" lon="25.94874">
        <ele>110.965842</ele>
        <time>2022-02-27T08:16:32.585Z</time>
      </trkpt>
      <trkpt lat="41.9019" lon="25.94866">
        <ele>110.989615</ele>
        <time>2022-02-27T08:16:34.643Z</time>
      </trkpt>
      <trkpt lat="41.90197" lon="25.94859">
        <ele>111.013107</ele>
        <time>2022-02-27T08:16:36.602Z</time>
      </trkpt>
      <trkpt lat="41.90204" lon="25.94851">
        <ele>111.036159</ele>
        <time>2022-02-27T08:16:38.609Z</time>
      </trkpt>
      <trkpt lat="41.90211" lon="25.94844">
        <ele>111.05977</ele>
        <time>2022-02-27T08:16:40.609Z</time>
      </trkpt>
      <trkpt lat="41.90222" lon="25.94834">
        <ele>111.062625</ele>
        <time>2022-02-27T08:16:43.600Z</time>
      </trkpt>
      <trkpt lat="41.9023" lon="25.94826">
        <ele>111.04196</ele>
        <time>2022-02-27T08:16:45.625Z</time>
      </trkpt>
      <trkpt lat="41.90237" lon="25.94818">
        <ele>111.021396</ele>
        <time>2022-02-27T08:16:47.610Z</time>
      </trkpt>
      <trkpt lat="41.90244" lon="25.94811">
        <ele>111.001186</ele>
        <time>2022-02-27T08:16:49.599Z</time>
      </trkpt>
      <trkpt lat="41.90251" lon="25.94804">
        <ele>110.980901</ele>
        <time>2022-02-27T08:16:51.624Z</time>
      </trkpt>
      <trkpt lat="41.90259" lon="25.94796">
        <ele>110.959534</ele>
        <time>2022-02-27T08:16:53.590Z</time>
      </trkpt>
      <trkpt lat="41.90267" lon="25.94789">
        <ele>110.938155</ele>
        <time>2022-02-27T08:16:55.599Z</time>
      </trkpt>
      <trkpt lat="41.90274" lon="25.94781">
        <ele>110.916932</ele>
        <time>2022-02-27T08:16:57.670Z</time>
      </trkpt>
      <trkpt lat="41.90281" lon="25.94773">
        <ele>110.896748</ele>
        <time>2022-02-27T08:16:59.610Z</time>
      </trkpt>
      <trkpt lat="41.90292" lon="25.94763">
        <ele>110.866832</ele>
        <time>2022-02-27T08:17:02.597Z</time>
      </trkpt>
      <trkpt lat="41.90303" lon="25.94752">
        <ele>110.837698</ele>
        <time>2022-02-27T08:17:05.590Z</time>
      </trkpt>
      <trkpt lat="41.90313" lon="25.94742">
        <ele>110.808488</ele>
        <time>2022-02-27T08:17:08.624Z</time>
      </trkpt>
      <trkpt lat="41.90324" lon="25.94731">
        <ele>110.778619</ele>
        <time>2022-02-27T08:17:11.600Z</time>
      </trkpt>
      <trkpt lat="41.90331" lon="25.94723">
        <ele>110.758306</ele>
        <time>2022-02-27T08:17:13.620Z</time>
      </trkpt>
      <trkpt lat="41.90338" lon="25.94715">
        <ele>110.737083</ele>
        <time>2022-02-27T08:17:15.602Z</time>
      </trkpt>
      <trkpt lat="41.90346" lon="25.94707">
        <ele>110.715302</ele>
        <time>2022-02-27T08:17:17.599Z</time>
      </trkpt>
      <trkpt lat="41.90353" lon="25.947">
        <ele>110.6938</ele>
        <time>2022-02-27T08:17:19.628Z</time>
      </trkpt>
      <trkpt lat="41.90361" lon="25.94692">
        <ele>110.673801</ele>
        <time>2022-02-27T08:17:21.594Z</time>
      </trkpt>
      <trkpt lat="41.90369" lon="25.94684">
        <ele>110.66538</ele>
        <time>2022-02-27T08:17:23.599Z</time>
      </trkpt>
      <trkpt lat="41.90376" lon="25.94676">
        <ele>110.657043</ele>
        <time>2022-02-27T08:17:25.598Z</time>
      </trkpt>
      <trkpt lat="41.90384" lon="25.94668">
        <ele>110.648908</ele>
        <time>2022-02-27T08:17:27.609Z</time>
      </trkpt>
      <trkpt lat="41.90391" lon="25.94661">
        <ele>110.640989</ele>
        <time>2022-02-27T08:17:29.594Z</time>
      </trkpt>
      <trkpt lat="41.90398" lon="25.94653">
        <ele>110.632793</ele>
        <time>2022-02-27T08:17:31.605Z</time>
      </trkpt>
      <trkpt lat="41.90406" lon="25.94645">
        <ele>110.624549</ele>
        <time>2022-02-27T08:17:33.594Z</time>
      </trkpt>
      <trkpt lat="41.90414" lon="25.94638">
        <ele>110.616315</ele>
        <time>2022-02-27T08:17:35.586Z</time>
      </trkpt>
      <trkpt lat="41.90421" lon="25.9463">
        <ele>110.6081</ele>
        <time>2022-02-27T08:17:37.609Z</time>
      </trkpt>
      <trkpt lat="41.90431" lon="25.9462">
        <ele>110.596984</ele>
        <time>2022-02-27T08:17:40.602Z</time>
      </trkpt>
      <trkpt lat="41.90438" lon="25.94612">
        <ele>110.589094</ele>
        <time>2022-02-27T08:17:42.615Z</time>
      </trkpt>
      <trkpt lat="41.90446" lon="25.94605">
        <ele>110.581203</ele>
        <time>2022-02-27T08:17:44.617Z</time>
      </trkpt>
      <trkpt lat="41.90456" lon="25.94594">
        <ele>110.569827</ele>
        <time>2022-02-27T08:17:47.581Z</time>
      </trkpt>
      <trkpt lat="41.90467" lon="25.94583">
        <ele>110.558037</ele>
        <time>2022-02-27T08:17:50.606Z</time>
      </trkpt>
      <trkpt lat="41.90474" lon="25.94576">
        <ele>110.550197</ele>
        <time>2022-02-27T08:17:52.594Z</time>
      </trkpt>
      <trkpt lat="41.90485" lon="25.94565">
        <ele>110.538565</ele>
        <time>2022-02-27T08:17:55.620Z</time>
      </trkpt>
      <trkpt lat="41.90495" lon="25.94554">
        <ele>110.527288</ele>
        <time>2022-02-27T08:17:58.610Z</time>
      </trkpt>
      <trkpt lat="41.90505" lon="25.94544">
        <ele>110.558371</ele>
        <time>2022-02-27T08:18:01.595Z</time>
      </trkpt>
      <trkpt lat="41.90515" lon="25.94534">
        <ele>110.779867</ele>
        <time>2022-02-27T08:18:04.609Z</time>
      </trkpt>
      <trkpt lat="41.90526" lon="25.94524">
        <ele>111.008614</ele>
        <time>2022-02-27T08:18:07.606Z</time>
      </trkpt>
      <trkpt lat="41.90536" lon="25.94514">
        <ele>111.232917</ele>
        <time>2022-02-27T08:18:10.590Z</time>
      </trkpt>
      <trkpt lat="41.90546" lon="25.94504">
        <ele>111.449374</ele>
        <time>2022-02-27T08:18:13.608Z</time>
      </trkpt>
      <trkpt lat="41.90555" lon="25.94496">
        <ele>111.647366</ele>
        <time>2022-02-27T08:18:16.604Z</time>
      </trkpt>
      <trkpt lat="41.90565" lon="25.94486">
        <ele>111.852415</ele>
        <time>2022-02-27T08:18:19.612Z</time>
      </trkpt>
      <trkpt lat="41.90574" lon="25.94475">
        <ele>112.069652</ele>
        <time>2022-02-27T08:18:22.589Z</time>
      </trkpt>
      <trkpt lat="41.90583" lon="25.94465">
        <ele>112.28152</ele>
        <time>2022-02-27T08:18:25.618Z</time>
      </trkpt>
      <trkpt lat="41.90593" lon="25.94455">
        <ele>112.498891</ele>
        <time>2022-02-27T08:18:28.588Z</time>
      </trkpt>
      <trkpt lat="41.90603" lon="25.94444">
        <ele>112.719296</ele>
        <time>2022-02-27T08:18:31.602Z</time>
      </trkpt>
      <trkpt lat="41.90613" lon="25.94435">
        <ele>112.937172</ele>
        <time>2022-02-27T08:18:34.610Z</time>
      </trkpt>
      <trkpt lat="41.90622" lon="25.94425">
        <ele>113.151594</ele>
        <time>2022-02-27T08:18:37.617Z</time>
      </trkpt>
      <trkpt lat="41.90632" lon="25.94415">
        <ele>113.364312</ele>
        <time>2022-02-27T08:18:40.603Z</time>
      </trkpt>
      <trkpt lat="41.90642" lon="25.94405">
        <ele>113.57654</ele>
        <time>2022-02-27T08:18:43.584Z</time>
      </trkpt>
      <trkpt lat="41.90652" lon="25.94394">
        <ele>113.715541</ele>
        <time>2022-02-27T08:18:46.622Z</time>
      </trkpt>
      <trkpt lat="41.90662" lon="25.94384">
        <ele>113.77184</ele>
        <time>2022-02-27T08:18:49.591Z</time>
      </trkpt>
      <trkpt lat="41.90672" lon="25.94374">
        <ele>113.825019</ele>
        <time>2022-02-27T08:18:52.606Z</time>
      </trkpt>
      <trkpt lat="41.90681" lon="25.94365">
        <ele>113.878316</ele>
        <time>2022-02-27T08:18:55.607Z</time>
      </trkpt>
      <trkpt lat="41.90691" lon="25.94356">
        <ele>113.931209</ele>
        <time>2022-02-27T08:18:58.628Z</time>
      </trkpt>
      <trkpt lat="41.90701" lon="25.94346">
        <ele>113.985495</ele>
        <time>2022-02-27T08:19:01.615Z</time>
      </trkpt>
      <trkpt lat="41.90711" lon="25.94335">
        <ele>114.04441</ele>
        <time>2022-02-27T08:19:04.611Z</time>
      </trkpt>
      <trkpt lat="41.90722" lon="25.94324">
        <ele>114.10217</ele>
        <time>2022-02-27T08:19:07.604Z</time>
      </trkpt>
      <trkpt lat="41.90731" lon="25.94315">
        <ele>114.153541</ele>
        <time>2022-02-27T08:19:10.602Z</time>
      </trkpt>
      <trkpt lat="41.9074" lon="25.94305">
        <ele>114.205344</ele>
        <time>2022-02-27T08:19:13.627Z</time>
      </trkpt>
      <trkpt lat="41.9075" lon="25.94296">
        <ele>114.257416</ele>
        <time>2022-02-27T08:19:16.620Z</time>
      </trkpt>
      <trkpt lat="41.90759" lon="25.94286">
        <ele>114.30906</ele>
        <time>2022-02-27T08:19:19.631Z</time>
      </trkpt>
      <trkpt lat="41.90768" lon="25.94275">
        <ele>114.364784</ele>
        <time>2022-02-27T08:19:22.627Z</time>
      </trkpt>
      <trkpt lat="41.90778" lon="25.94265">
        <ele>114.420932</ele>
        <time>2022-02-27T08:19:25.628Z</time>
      </trkpt>
      <trkpt lat="41.90789" lon="25.94254">
        <ele>114.480653</ele>
        <time>2022-02-27T08:19:28.601Z</time>
      </trkpt>
      <trkpt lat="41.90797" lon="25.94247">
        <ele>114.459036</ele>
        <time>2022-02-27T08:19:30.593Z</time>
      </trkpt>
      <trkpt lat="41.90804" lon="25.9424">
        <ele>114.433468</ele>
        <time>2022-02-27T08:19:32.624Z</time>
      </trkpt>
      <trkpt lat="41.90811" lon="25.94233">
        <ele>114.408089</ele>
        <time>2022-02-27T08:19:34.599Z</time>
      </trkpt>
      <trkpt lat="41.90821" lon="25.94222">
        <ele>114.37295</ele>
        <time>2022-02-27T08:19:37.596Z</time>
      </trkpt>
      <trkpt lat="41.9083" lon="25.94211">
        <ele>114.33648</ele>
        <time>2022-02-27T08:19:40.613Z</time>
      </trkpt>
      <trkpt lat="41.9084" lon="25.94201">
        <ele>114.301498</ele>
        <time>2022-02-27T08:19:43.592Z</time>
      </trkpt>
      <trkpt lat="41.9085" lon="25.94192">
        <ele>114.266642</ele>
        <time>2022-02-27T08:19:46.630Z</time>
      </trkpt>
      <trkpt lat="41.90861" lon="25.94182">
        <ele>114.230165</ele>
        <time>2022-02-27T08:19:49.595Z</time>
      </trkpt>
      <trkpt lat="41.90871" lon="25.94173">
        <ele>114.195571</ele>
        <time>2022-02-27T08:19:52.593Z</time>
      </trkpt>
      <trkpt lat="41.90879" lon="25.94164">
        <ele>114.164984</ele>
        <time>2022-02-27T08:19:55.606Z</time>
      </trkpt>
      <trkpt lat="41.90889" lon="25.94154">
        <ele>114.132318</ele>
        <time>2022-02-27T08:19:58.635Z</time>
      </trkpt>
      <trkpt lat="41.90898" lon="25.94143">
        <ele>114.097179</ele>
        <time>2022-02-27T08:20:01.618Z</time>
      </trkpt>
      <trkpt lat="41.90908" lon="25.94132">
        <ele>114.060545</ele>
        <time>2022-02-27T08:20:04.629Z</time>
      </trkpt>
      <trkpt lat="41.90918" lon="25.94123">
        <ele>114.024898</ele>
        <time>2022-02-27T08:20:07.606Z</time>
      </trkpt>
      <trkpt lat="41.90928" lon="25.94113">
        <ele>113.991782</ele>
        <time>2022-02-27T08:20:10.593Z</time>
      </trkpt>
      <trkpt lat="41.90936" lon="25.94104">
        <ele>114.094998</ele>
        <time>2022-02-27T08:20:13.604Z</time>
      </trkpt>
      <trkpt lat="41.90946" lon="25.94095">
        <ele>114.403023</ele>
        <time>2022-02-27T08:20:16.604Z</time>
      </trkpt>
      <trkpt lat="41.90955" lon="25.94085">
        <ele>114.71986</ele>
        <time>2022-02-27T08:20:19.601Z</time>
      </trkpt>
      <trkpt lat="41.90964" lon="25.94076">
        <ele>115.026691</ele>
        <time>2022-02-27T08:20:22.606Z</time>
      </trkpt>
      <trkpt lat="41.90973" lon="25.94067">
        <ele>115.319565</ele>
        <time>2022-02-27T08:20:25.608Z</time>
      </trkpt>
      <trkpt lat="41.90981" lon="25.94058">
        <ele>115.605445</ele>
        <time>2022-02-27T08:20:28.613Z</time>
      </trkpt>
      <trkpt lat="41.9099" lon="25.9405">
        <ele>115.896437</ele>
        <time>2022-02-27T08:20:31.634Z</time>
      </trkpt>
      <trkpt lat="41.90999" lon="25.94042">
        <ele>116.186256</ele>
        <time>2022-02-27T08:20:34.595Z</time>
      </trkpt>
      <trkpt lat="41.91008" lon="25.94033">
        <ele>116.487609</ele>
        <time>2022-02-27T08:20:37.595Z</time>
      </trkpt>
      <trkpt lat="41.91017" lon="25.94023">
        <ele>116.791374</ele>
        <time>2022-02-27T08:20:40.626Z</time>
      </trkpt>
      <trkpt lat="41.91026" lon="25.94014">
        <ele>117.081799</ele>
        <time>2022-02-27T08:20:43.602Z</time>
      </trkpt>
      <trkpt lat="41.91034" lon="25.94006">
        <ele>117.362789</ele>
        <time>2022-02-27T08:20:46.606Z</time>
      </trkpt>
      <trkpt lat="41.91044" lon="25.93998">
        <ele>117.663782</ele>
        <time>2022-02-27T08:20:49.605Z</time>
      </trkpt>
      <trkpt lat="41.91053" lon="25.93988">
        <ele>117.968763</ele>
        <time>2022-02-27T08:20:52.605Z</time>
      </trkpt>
      <trkpt lat="41.91061" lon="25.93979">
        <ele>118.24587</ele>
        <time>2022-02-27T08:20:55.601Z</time>
      </trkpt>
      <trkpt lat="41.91068" lon="25.9397">
        <ele>118.519553</ele>
        <time>2022-02-27T08:20:58.575Z</time>
      </trkpt>
      <trkpt lat="41.91076" lon="25.93961">
        <ele>118.793912</ele>
        <time>2022-02-27T08:21:01.607Z</time>
      </trkpt>
      <trkpt lat="41.91084" lon="25.93953">
        <ele>119.176487</ele>
        <time>2022-02-27T08:21:04.629Z</time>
      </trkpt>
      <trkpt lat="41.91092" lon="25.93945">
        <ele>119.52376</ele>
        <time>2022-02-27T08:21:07.621Z</time>
      </trkpt>
      <trkpt lat="41.91101" lon="25.93937">
        <ele>119.96038</ele>
        <time>2022-02-27T08:21:11.607Z</time>
      </trkpt>
      <trkpt lat="41.9111" lon="25.93928">
        <ele>120.367675</ele>
        <time>2022-02-27T08:21:15.617Z</time>
      </trkpt>
      <trkpt lat="41.9112" lon="25.93918">
        <ele>120.826068</ele>
        <time>2022-02-27T08:21:19.608Z</time>
      </trkpt>
      <trkpt lat="41.91128" lon="25.93911">
        <ele>121.176371</ele>
        <time>2022-02-27T08:21:22.589Z</time>
      </trkpt>
      <trkpt lat="41.91136" lon="25.93902">
        <ele>121.570237</ele>
        <time>2022-02-27T08:21:26.593Z</time>
      </trkpt>
      <trkpt lat="41.91144" lon="25.93893">
        <ele>121.964491</ele>
        <time>2022-02-27T08:21:30.593Z</time>
      </trkpt>
      <trkpt lat="41.91152" lon="25.93884">
        <ele>122.355197</ele>
        <time>2022-02-27T08:21:34.609Z</time>
      </trkpt>
      <trkpt lat="41.91161" lon="25.93875">
        <ele>122.7424</ele>
        <time>2022-02-27T08:21:38.617Z</time>
      </trkpt>
      <trkpt lat="41.91169" lon="25.93867">
        <ele>123.132009</ele>
        <time>2022-02-27T08:21:42.596Z</time>
      </trkpt>
      <trkpt lat="41.91177" lon="25.93858">
        <ele>123.507339</ele>
        <time>2022-02-27T08:21:46.630Z</time>
      </trkpt>
      <trkpt lat="41.91185" lon="25.93851">
        <ele>123.866905</ele>
        <time>2022-02-27T08:21:50.607Z</time>
      </trkpt>
      <trkpt lat="41.91193" lon="25.93843">
        <ele>124.222056</ele>
        <time>2022-02-27T08:21:54.633Z</time>
      </trkpt>
      <trkpt lat="41.91201" lon="25.93835">
        <ele>124.591107</ele>
        <time>2022-02-27T08:21:58.613Z</time>
      </trkpt>
      <trkpt lat="41.91208" lon="25.93828">
        <ele>124.930558</ele>
        <time>2022-02-27T08:22:02.595Z</time>
      </trkpt>
      <trkpt lat="41.91216" lon="25.93822">
        <ele>125.268585</ele>
        <time>2022-02-27T08:22:06.598Z</time>
      </trkpt>
      <trkpt lat="41.91223" lon="25.93815">
        <ele>125.611619</ele>
        <time>2022-02-27T08:22:10.602Z</time>
      </trkpt>
      <trkpt lat="41.91231" lon="25.93808">
        <ele>125.954716</ele>
        <time>2022-02-27T08:22:14.662Z</time>
      </trkpt>
      <trkpt lat="41.91238" lon="25.938">
        <ele>126.291355</ele>
        <time>2022-02-27T08:22:18.601Z</time>
      </trkpt>
      <trkpt lat="41.91247" lon="25.93791">
        <ele>126.698139</ele>
        <time>2022-02-27T08:22:23.621Z</time>
      </trkpt>
      <trkpt lat="41.91254" lon="25.93783">
        <ele>127.038002</ele>
        <time>2022-02-27T08:22:27.622Z</time>
      </trkpt>
      <trkpt lat="41.91261" lon="25.93775">
        <ele>127.37884</ele>
        <time>2022-02-27T08:22:31.673Z</time>
      </trkpt>
      <trkpt lat="41.91269" lon="25.93765">
        <ele>127.779339</ele>
        <time>2022-02-27T08:22:36.607Z</time>
      </trkpt>
      <trkpt lat="41.91277" lon="25.93758">
        <ele>128.151448</ele>
        <time>2022-02-27T08:22:40.595Z</time>
      </trkpt>
      <trkpt lat="41.91285" lon="25.93751">
        <ele>128.48527</ele>
        <time>2022-02-27T08:22:44.611Z</time>
      </trkpt>
      <trkpt lat="41.91292" lon="25.93743">
        <ele>128.831559</ele>
        <time>2022-02-27T08:22:48.623Z</time>
      </trkpt>
      <trkpt lat="41.91301" lon="25.93734">
        <ele>129.238342</ele>
        <time>2022-02-27T08:22:52.613Z</time>
      </trkpt>
      <trkpt lat="41.91309" lon="25.93726">
        <ele>129.628426</ele>
        <time>2022-02-27T08:22:56.612Z</time>
      </trkpt>
      <trkpt lat="41.91319" lon="25.93716">
        <ele>130.052896</ele>
        <time>2022-02-27T08:23:00.608Z</time>
      </trkpt>
      <trkpt lat="41.91327" lon="25.93707">
        <ele>130.450579</ele>
        <time>2022-02-27T08:23:04.653Z</time>
      </trkpt>
      <trkpt lat="41.91335" lon="25.93698">
        <ele>130.826161</ele>
        <time>2022-02-27T08:23:08.607Z</time>
      </trkpt>
      <trkpt lat="41.91343" lon="25.93688">
        <ele>131.242649</ele>
        <time>2022-02-27T08:23:12.607Z</time>
      </trkpt>
      <trkpt lat="41.91352" lon="25.93679">
        <ele>131.658221</ele>
        <time>2022-02-27T08:23:16.625Z</time>
      </trkpt>
      <trkpt lat="41.91361" lon="25.93671">
        <ele>132.053488</ele>
        <time>2022-02-27T08:23:20.591Z</time>
      </trkpt>
      <trkpt lat="41.9137" lon="25.93662">
        <ele>132.15356</ele>
        <time>2022-02-27T08:23:24.616Z</time>
      </trkpt>
      <trkpt lat="41.91378" lon="25.93654">
        <ele>132.203777</ele>
        <time>2022-02-27T08:23:28.621Z</time>
      </trkpt>
      <trkpt lat="41.91386" lon="25.93645">
        <ele>132.256045</ele>
        <time>2022-02-27T08:23:32.609Z</time>
      </trkpt>
      <trkpt lat="41.91394" lon="25.93636">
        <ele>132.30581</ele>
        <time>2022-02-27T08:23:36.609Z</time>
      </trkpt>
      <trkpt lat="41.91402" lon="25.93627">
        <ele>132.358382</ele>
        <time>2022-02-27T08:23:40.603Z</time>
      </trkpt>
      <trkpt lat="41.91411" lon="25.93618">
        <ele>132.412325</ele>
        <time>2022-02-27T08:23:44.627Z</time>
      </trkpt>
      <trkpt lat="41.91419" lon="25.93611">
        <ele>132.457347</ele>
        <time>2022-02-27T08:23:47.609Z</time>
      </trkpt>
      <trkpt lat="41.91427" lon="25.93604">
        <ele>132.50501</ele>
        <time>2022-02-27T08:23:50.617Z</time>
      </trkpt>
      <trkpt lat="41.91437" lon="25.93596">
        <ele>132.562063</ele>
        <time>2022-02-27T08:23:54.609Z</time>
      </trkpt>
      <trkpt lat="41.91447" lon="25.93588">
        <ele>132.618698</ele>
        <time>2022-02-27T08:23:58.596Z</time>
      </trkpt>
      <trkpt lat="41.91456" lon="25.93578">
        <ele>132.676608</ele>
        <time>2022-02-27T08:24:02.612Z</time>
      </trkpt>
      <trkpt lat="41.91465" lon="25.93568">
        <ele>132.73321</ele>
        <time>2022-02-27T08:24:06.608Z</time>
      </trkpt>
      <trkpt lat="41.91474" lon="25.93559">
        <ele>132.78709</ele>
        <time>2022-02-27T08:24:10.664Z</time>
      </trkpt>
      <trkpt lat="41.91482" lon="25.93549">
        <ele>132.838891</ele>
        <time>2022-02-27T08:24:14.598Z</time>
      </trkpt>
      <trkpt lat="41.91489" lon="25.9354">
        <ele>132.889843</ele>
        <time>2022-02-27T08:24:18.598Z</time>
      </trkpt>
      <trkpt lat="41.91497" lon="25.9353">
        <ele>132.942009</ele>
        <time>2022-02-27T08:24:22.608Z</time>
      </trkpt>
      <trkpt lat="41.91505" lon="25.93522">
        <ele>132.998702</ele>
        <time>2022-02-27T08:24:26.608Z</time>
      </trkpt>
      <trkpt lat="41.91514" lon="25.93512">
        <ele>133.103337</ele>
        <time>2022-02-27T08:24:30.605Z</time>
      </trkpt>
      <trkpt lat="41.91521" lon="25.93503">
        <ele>133.200613</ele>
        <time>2022-02-27T08:24:34.603Z</time>
      </trkpt>
      <trkpt lat="41.91529" lon="25.93494">
        <ele>133.300679</ele>
        <time>2022-02-27T08:24:38.606Z</time>
      </trkpt>
      <trkpt lat="41.91536" lon="25.93484">
        <ele>133.403527</ele>
        <time>2022-02-27T08:24:42.601Z</time>
      </trkpt>
      <trkpt lat="41.91545" lon="25.93472">
        <ele>133.519302</ele>
        <time>2022-02-27T08:24:46.614Z</time>
      </trkpt>
      <trkpt lat="41.91553" lon="25.93461">
        <ele>133.631664</ele>
        <time>2022-02-27T08:24:50.596Z</time>
      </trkpt>
      <trkpt lat="41.91561" lon="25.93451">
        <ele>133.741308</ele>
        <time>2022-02-27T08:24:54.605Z</time>
      </trkpt>
      <trkpt lat="41.91568" lon="25.9344">
        <ele>133.843817</ele>
        <time>2022-02-27T08:24:58.585Z</time>
      </trkpt>
      <trkpt lat="41.91576" lon="25.9343">
        <ele>133.951233</ele>
        <time>2022-02-27T08:25:02.596Z</time>
      </trkpt>
      <trkpt lat="41.91584" lon="25.93419">
        <ele>134.058883</ele>
        <time>2022-02-27T08:25:06.646Z</time>
      </trkpt>
      <trkpt lat="41.91592" lon="25.9341">
        <ele>134.166097</ele>
        <time>2022-02-27T08:25:10.602Z</time>
      </trkpt>
      <trkpt lat="41.91601" lon="25.934">
        <ele>134.27424</ele>
        <time>2022-02-27T08:25:14.607Z</time>
      </trkpt>
      <trkpt lat="41.91608" lon="25.9339">
        <ele>134.374994</ele>
        <time>2022-02-27T08:25:18.624Z</time>
      </trkpt>
      <trkpt lat="41.91616" lon="25.93381">
        <ele>134.47594</ele>
        <time>2022-02-27T08:25:22.603Z</time>
      </trkpt>
      <trkpt lat="41.91622" lon="25.93369">
        <ele>134.581896</ele>
        <time>2022-02-27T08:25:26.631Z</time>
      </trkpt>
      <trkpt lat="41.91631" lon="25.9336">
        <ele>134.686722</ele>
        <time>2022-02-27T08:25:30.613Z</time>
      </trkpt>
      <trkpt lat="41.91639" lon="25.9335">
        <ele>134.734291</ele>
        <time>2022-02-27T08:25:34.608Z</time>
      </trkpt>
      <trkpt lat="41.91647" lon="25.93339">
        <ele>134.739623</ele>
        <time>2022-02-27T08:25:38.599Z</time>
      </trkpt>
      <trkpt lat="41.91655" lon="25.93328">
        <ele>134.744673</ele>
        <time>2022-02-27T08:25:42.611Z</time>
      </trkpt>
      <trkpt lat="41.91662" lon="25.93318">
        <ele>134.74911</ele>
        <time>2022-02-27T08:25:46.611Z</time>
      </trkpt>
      <trkpt lat="41.91669" lon="25.93308">
        <ele>134.753833</ele>
        <time>2022-02-27T08:25:50.614Z</time>
      </trkpt>
      <trkpt lat="41.91677" lon="25.93297">
        <ele>134.759067</ele>
        <time>2022-02-27T08:25:54.606Z</time>
      </trkpt>
      <trkpt lat="41.91685" lon="25.93285">
        <ele>134.764473</ele>
        <time>2022-02-27T08:25:58.589Z</time>
      </trkpt>
      <trkpt lat="41.91691" lon="25.93276">
        <ele>134.768623</ele>
        <time>2022-02-27T08:26:01.620Z</time>
      </trkpt>
      <trkpt lat="41.91698" lon="25.93267">
        <ele>134.772924</ele>
        <time>2022-02-27T08:26:04.598Z</time>
      </trkpt>
      <trkpt lat="41.91705" lon="25.93257">
        <ele>134.777639</ele>
        <time>2022-02-27T08:26:07.618Z</time>
      </trkpt>
      <trkpt lat="41.91711" lon="25.93247">
        <ele>134.781946</ele>
        <time>2022-02-27T08:26:10.603Z</time>
      </trkpt>
      <trkpt lat="41.91717" lon="25.93237">
        <ele>134.78622</ele>
        <time>2022-02-27T08:26:13.643Z</time>
      </trkpt>
      <trkpt lat="41.91723" lon="25.93225">
        <ele>134.791063</ele>
        <time>2022-02-27T08:26:16.602Z</time>
      </trkpt>
      <trkpt lat="41.91729" lon="25.93212">
        <ele>134.796346</ele>
        <time>2022-02-27T08:26:19.637Z</time>
      </trkpt>
      <trkpt lat="41.91736" lon="25.93199">
        <ele>134.801864</ele>
        <time>2022-02-27T08:26:22.617Z</time>
      </trkpt>
      <trkpt lat="41.91743" lon="25.93185">
        <ele>134.80736</ele>
        <time>2022-02-27T08:26:25.637Z</time>
      </trkpt>
      <trkpt lat="41.9175" lon="25.9317">
        <ele>134.801649</ele>
        <time>2022-02-27T08:26:28.604Z</time>
      </trkpt>
      <trkpt lat="41.91755" lon="25.9316">
        <ele>134.719978</ele>
        <time>2022-02-27T08:26:30.606Z</time>
      </trkpt>
      <trkpt lat="41.91763" lon="25.93146">
        <ele>134.599313</ele>
        <time>2022-02-27T08:26:33.591Z</time>
      </trkpt>
      <trkpt lat="41.91768" lon="25.93136">
        <ele>134.516166</ele>
        <time>2022-02-27T08:26:35.588Z</time>
      </trkpt>
      <trkpt lat="41.91774" lon="25.93126">
        <ele>134.431347</ele>
        <time>2022-02-27T08:26:37.609Z</time>
      </trkpt>
      <trkpt lat="41.91781" lon="25.93116">
        <ele>134.342927</ele>
        <time>2022-02-27T08:26:39.612Z</time>
      </trkpt>
      <trkpt lat="41.91787" lon="25.93107">
        <ele>134.254506</ele>
        <time>2022-02-27T08:26:41.588Z</time>
      </trkpt>
      <trkpt lat="41.91793" lon="25.93096">
        <ele>134.165865</ele>
        <time>2022-02-27T08:26:43.600Z</time>
      </trkpt>
      <trkpt lat="41.91799" lon="25.93086">
        <ele>134.080003</ele>
        <time>2022-02-27T08:26:45.610Z</time>
      </trkpt>
      <trkpt lat="41.91807" lon="25.93072">
        <ele>133.962079</ele>
        <time>2022-02-27T08:26:48.615Z</time>
      </trkpt>
      <trkpt lat="41.91812" lon="25.93062">
        <ele>133.87771</ele>
        <time>2022-02-27T08:26:50.603Z</time>
      </trkpt>
      <trkpt lat="41.91818" lon="25.93052">
        <ele>133.790755</ele>
        <time>2022-02-27T08:26:52.609Z</time>
      </trkpt>
      <trkpt lat="41.91823" lon="25.93042">
        <ele>133.708148</ele>
        <time>2022-02-27T08:26:54.608Z</time>
      </trkpt>
      <trkpt lat="41.9183" lon="25.93027">
        <ele>133.591381</ele>
        <time>2022-02-27T08:26:57.598Z</time>
      </trkpt>
      <trkpt lat="41.91837" lon="25.93016">
        <ele>133.492941</ele>
        <time>2022-02-27T08:27:00.613Z</time>
      </trkpt>
      <trkpt lat="41.91842" lon="25.93005">
        <ele>133.402462</ele>
        <time>2022-02-27T08:27:03.641Z</time>
      </trkpt>
      <trkpt lat="41.91847" lon="25.92993">
        <ele>133.310179</ele>
        <time>2022-02-27T08:27:06.593Z</time>
      </trkpt>
      <trkpt lat="41.91846" lon="25.92978">
        <ele>133.211079</ele>
        <time>2022-02-27T08:27:09.630Z</time>
      </trkpt>
      <trkpt lat="41.91836" lon="25.92976">
        <ele>133.169756</ele>
        <time>2022-02-27T08:27:12.595Z</time>
      </trkpt>
      <trkpt lat="41.91829" lon="25.92985">
        <ele>133.160346</ele>
        <time>2022-02-27T08:27:15.633Z</time>
      </trkpt>
      <trkpt lat="41.91823" lon="25.92995">
        <ele>133.151464</ele>
        <time>2022-02-27T08:27:19.599Z</time>
      </trkpt>
      <trkpt lat="41.91817" lon="25.93005">
        <ele>133.142817</ele>
        <time>2022-02-27T08:27:24.595Z</time>
      </trkpt>
      <trkpt lat="41.91818" lon="25.93019">
        <ele>133.133</ele>
        <time>2022-02-27T08:30:53.647Z</time>
      </trkpt>
      <trkpt lat="41.91827" lon="25.93014">
        <ele>133.124169</ele>
        <time>2022-02-27T08:30:58.620Z</time>
      </trkpt>
      <trkpt lat="41.91836" lon="25.9301">
        <ele>133.115514</ele>
        <time>2022-02-27T08:31:01.588Z</time>
      </trkpt>
      <trkpt lat="41.91843" lon="25.93001">
        <ele>133.106104</ele>
        <time>2022-02-27T08:31:04.609Z</time>
      </trkpt>
      <trkpt lat="41.9185" lon="25.9299">
        <ele>133.096323</ele>
        <time>2022-02-27T08:31:07.593Z</time>
      </trkpt>
      <trkpt lat="41.91855" lon="25.92976">
        <ele>133.085539</ele>
        <time>2022-02-27T08:31:10.640Z</time>
      </trkpt>
      <trkpt lat="41.9186" lon="25.92964">
        <ele>133.075624</ele>
        <time>2022-02-27T08:31:13.591Z</time>
      </trkpt>
      <trkpt lat="41.91866" lon="25.92951">
        <ele>133.064929</ele>
        <time>2022-02-27T08:31:16.595Z</time>
      </trkpt>
      <trkpt lat="41.91872" lon="25.92937">
        <ele>133.053647</ele>
        <time>2022-02-27T08:31:19.592Z</time>
      </trkpt>
      <trkpt lat="41.91877" lon="25.92924">
        <ele>133.043273</ele>
        <time>2022-02-27T08:31:22.610Z</time>
      </trkpt>
      <trkpt lat="41.91882" lon="25.92911">
        <ele>133.032969</ele>
        <time>2022-02-27T08:31:25.600Z</time>
      </trkpt>
      <trkpt lat="41.91887" lon="25.92897">
        <ele>133.022478</ele>
        <time>2022-02-27T08:31:28.597Z</time>
      </trkpt>
      <trkpt lat="41.91892" lon="25.92883">
        <ele>133.011736</ele>
        <time>2022-02-27T08:31:31.591Z</time>
      </trkpt>
      <trkpt lat="41.91897" lon="25.9287">
        <ele>133.003372</ele>
        <time>2022-02-27T08:31:34.592Z</time>
      </trkpt>
      <trkpt lat="41.91903" lon="25.92857">
        <ele>132.997341</ele>
        <time>2022-02-27T08:31:37.626Z</time>
      </trkpt>
      <trkpt lat="41.91909" lon="25.92845">
        <ele>132.991633</ele>
        <time>2022-02-27T08:31:40.599Z</time>
      </trkpt>
      <trkpt lat="41.91914" lon="25.92832">
        <ele>132.985857</ele>
        <time>2022-02-27T08:31:43.591Z</time>
      </trkpt>
      <trkpt lat="41.91919" lon="25.9282">
        <ele>132.980391</ele>
        <time>2022-02-27T08:31:46.593Z</time>
      </trkpt>
      <trkpt lat="41.91925" lon="25.92808">
        <ele>132.974792</ele>
        <time>2022-02-27T08:31:49.589Z</time>
      </trkpt>
      <trkpt lat="41.91931" lon="25.92794">
        <ele>132.968514</ele>
        <time>2022-02-27T08:31:52.583Z</time>
      </trkpt>
      <trkpt lat="41.91936" lon="25.9278">
        <ele>132.962367</ele>
        <time>2022-02-27T08:31:55.601Z</time>
      </trkpt>
      <trkpt lat="41.91942" lon="25.92768">
        <ele>132.956633</ele>
        <time>2022-02-27T08:31:58.597Z</time>
      </trkpt>
      <trkpt lat="41.91947" lon="25.92756">
        <ele>132.95108</ele>
        <time>2022-02-27T08:32:01.621Z</time>
      </trkpt>
      <trkpt lat="41.91953" lon="25.92743">
        <ele>132.945122</ele>
        <time>2022-02-27T08:32:04.589Z</time>
      </trkpt>
      <trkpt lat="41.91959" lon="25.9273">
        <ele>132.939057</ele>
        <time>2022-02-27T08:32:07.609Z</time>
      </trkpt>
      <trkpt lat="41.91964" lon="25.92719">
        <ele>132.933886</ele>
        <time>2022-02-27T08:32:10.636Z</time>
      </trkpt>
      <trkpt lat="41.91969" lon="25.92706">
        <ele>132.92839</ele>
        <time>2022-02-27T08:32:13.608Z</time>
      </trkpt>
      <trkpt lat="41.91974" lon="25.9269">
        <ele>132.92142</ele>
        <time>2022-02-27T08:32:16.587Z</time>
      </trkpt>
      <trkpt lat="41.9198" lon="25.92675">
        <ele>132.91473</ele>
        <time>2022-02-27T08:32:19.606Z</time>
      </trkpt>
      <trkpt lat="41.91986" lon="25.92661">
        <ele>133.013562</ele>
        <time>2022-02-27T08:32:22.600Z</time>
      </trkpt>
      <trkpt lat="41.91991" lon="25.92647">
        <ele>133.269077</ele>
        <time>2022-02-27T08:32:25.595Z</time>
      </trkpt>
      <trkpt lat="41.91996" lon="25.92634">
        <ele>133.511182</ele>
        <time>2022-02-27T08:32:28.607Z</time>
      </trkpt>
      <trkpt lat="41.92001" lon="25.92622">
        <ele>133.7368</ele>
        <time>2022-02-27T08:32:31.597Z</time>
      </trkpt>
      <trkpt lat="41.92007" lon="25.92609">
        <ele>133.989677</ele>
        <time>2022-02-27T08:32:34.624Z</time>
      </trkpt>
      <trkpt lat="41.92012" lon="25.92596">
        <ele>134.242216</ele>
        <time>2022-02-27T08:32:37.588Z</time>
      </trkpt>
      <trkpt lat="41.92018" lon="25.92581">
        <ele>134.512002</ele>
        <time>2022-02-27T08:32:40.589Z</time>
      </trkpt>
      <trkpt lat="41.92025" lon="25.92567">
        <ele>134.780068</ele>
        <time>2022-02-27T08:32:43.587Z</time>
      </trkpt>
      <trkpt lat="41.92031" lon="25.92554">
        <ele>135.051035</ele>
        <time>2022-02-27T08:32:46.597Z</time>
      </trkpt>
      <trkpt lat="41.92038" lon="25.92539">
        <ele>135.33562</ele>
        <time>2022-02-27T08:32:49.604Z</time>
      </trkpt>
      <trkpt lat="41.92045" lon="25.92525">
        <ele>135.610551</ele>
        <time>2022-02-27T08:32:52.587Z</time>
      </trkpt>
      <trkpt lat="41.92051" lon="25.92511">
        <ele>135.872115</ele>
        <time>2022-02-27T08:32:55.588Z</time>
      </trkpt>
      <trkpt lat="41.92058" lon="25.92497">
        <ele>136.148097</ele>
        <time>2022-02-27T08:32:58.595Z</time>
      </trkpt>
      <trkpt lat="41.92061" lon="25.92486">
        <ele>136.346722</ele>
        <time>2022-02-27T08:33:00.592Z</time>
      </trkpt>
      <trkpt lat="41.92065" lon="25.92475">
        <ele>136.550184</ele>
        <time>2022-02-27T08:33:02.607Z</time>
      </trkpt>
      <trkpt lat="41.92071" lon="25.92458">
        <ele>136.851861</ele>
        <time>2022-02-27T08:33:05.595Z</time>
      </trkpt>
      <trkpt lat="41.92075" lon="25.92447">
        <ele>136.715984</ele>
        <time>2022-02-27T08:33:07.621Z</time>
      </trkpt>
      <trkpt lat="41.92079" lon="25.92436">
        <ele>136.516563</ele>
        <time>2022-02-27T08:33:09.604Z</time>
      </trkpt>
      <trkpt lat="41.92083" lon="25.92425">
        <ele>136.313203</ele>
        <time>2022-02-27T08:33:11.601Z</time>
      </trkpt>
      <trkpt lat="41.92089" lon="25.92409">
        <ele>136.024176</ele>
        <time>2022-02-27T08:33:14.592Z</time>
      </trkpt>
      <trkpt lat="41.92095" lon="25.92393">
        <ele>135.743149</ele>
        <time>2022-02-27T08:33:17.578Z</time>
      </trkpt>
      <trkpt lat="41.92101" lon="25.92379">
        <ele>135.464094</ele>
        <time>2022-02-27T08:33:20.609Z</time>
      </trkpt>
      <trkpt lat="41.92107" lon="25.92364">
        <ele>135.185354</ele>
        <time>2022-02-27T08:33:23.589Z</time>
      </trkpt>
      <trkpt lat="41.92115" lon="25.92349">
        <ele>134.892016</ele>
        <time>2022-02-27T08:33:26.613Z</time>
      </trkpt>
      <trkpt lat="41.9212" lon="25.92337">
        <ele>134.66868</ele>
        <time>2022-02-27T08:33:28.603Z</time>
      </trkpt>
      <trkpt lat="41.92124" lon="25.92325">
        <ele>134.445291</ele>
        <time>2022-02-27T08:33:30.589Z</time>
      </trkpt>
      <trkpt lat="41.92129" lon="25.92313">
        <ele>134.227273</ele>
        <time>2022-02-27T08:33:32.590Z</time>
      </trkpt>
      <trkpt lat="41.92134" lon="25.92303">
        <ele>134.022792</ele>
        <time>2022-02-27T08:33:34.599Z</time>
      </trkpt>
      <trkpt lat="41.9214" lon="25.92287">
        <ele>133.732301</ele>
        <time>2022-02-27T08:33:37.604Z</time>
      </trkpt>
      <trkpt lat="41.92146" lon="25.92273">
        <ele>133.469304</ele>
        <time>2022-02-27T08:33:40.617Z</time>
      </trkpt>
      <trkpt lat="41.92152" lon="25.92258">
        <ele>133.190976</ele>
        <time>2022-02-27T08:33:43.595Z</time>
      </trkpt>
      <trkpt lat="41.92159" lon="25.92244">
        <ele>132.930808</ele>
        <time>2022-02-27T08:33:46.592Z</time>
      </trkpt>
      <trkpt lat="41.92165" lon="25.92229">
        <ele>132.917737</ele>
        <time>2022-02-27T08:33:49.602Z</time>
      </trkpt>
      <trkpt lat="41.92172" lon="25.92213">
        <ele>132.903804</ele>
        <time>2022-02-27T08:33:52.609Z</time>
      </trkpt>
      <trkpt lat="41.92178" lon="25.92198">
        <ele>132.890279</ele>
        <time>2022-02-27T08:33:55.598Z</time>
      </trkpt>
      <trkpt lat="41.92184" lon="25.92183">
        <ele>132.877326</ele>
        <time>2022-02-27T08:33:58.602Z</time>
      </trkpt>
      <trkpt lat="41.9219" lon="25.92167">
        <ele>132.863383</ele>
        <time>2022-02-27T08:34:01.591Z</time>
      </trkpt>
      <trkpt lat="41.92194" lon="25.92156">
        <ele>132.853933</ele>
        <time>2022-02-27T08:34:03.630Z</time>
      </trkpt>
      <trkpt lat="41.92198" lon="25.92145">
        <ele>132.844433</ele>
        <time>2022-02-27T08:34:05.587Z</time>
      </trkpt>
      <trkpt lat="41.92204" lon="25.92131">
        <ele>132.831784</ele>
        <time>2022-02-27T08:34:08.586Z</time>
      </trkpt>
      <trkpt lat="41.9221" lon="25.92116">
        <ele>132.818508</ele>
        <time>2022-02-27T08:34:11.606Z</time>
      </trkpt>
      <trkpt lat="41.92216" lon="25.92101">
        <ele>132.805164</ele>
        <time>2022-02-27T08:34:14.639Z</time>
      </trkpt>
      <trkpt lat="41.92222" lon="25.92085">
        <ele>132.791144</ele>
        <time>2022-02-27T08:34:17.607Z</time>
      </trkpt>
      <trkpt lat="41.92229" lon="25.9207">
        <ele>132.777973</ele>
        <time>2022-02-27T08:34:20.601Z</time>
      </trkpt>
      <trkpt lat="41.92236" lon="25.92054">
        <ele>132.76379</ele>
        <time>2022-02-27T08:34:23.606Z</time>
      </trkpt>
      <trkpt lat="41.92242" lon="25.9204">
        <ele>132.750553</ele>
        <time>2022-02-27T08:34:26.580Z</time>
      </trkpt>
      <trkpt lat="41.92249" lon="25.92025">
        <ele>132.702979</ele>
        <time>2022-02-27T08:34:29.601Z</time>
      </trkpt>
      <trkpt lat="41.92255" lon="25.9201">
        <ele>132.62474</ele>
        <time>2022-02-27T08:34:32.585Z</time>
      </trkpt>
      <trkpt lat="41.92262" lon="25.91995">
        <ele>132.549009</ele>
        <time>2022-02-27T08:34:35.597Z</time>
      </trkpt>
      <trkpt lat="41.92266" lon="25.91984">
        <ele>132.494231</ele>
        <time>2022-02-27T08:34:37.597Z</time>
      </trkpt>
      <trkpt lat="41.92271" lon="25.91973">
        <ele>132.438856</ele>
        <time>2022-02-27T08:34:39.600Z</time>
      </trkpt>
      <trkpt lat="41.92277" lon="25.91958">
        <ele>132.366161</ele>
        <time>2022-02-27T08:34:42.610Z</time>
      </trkpt>
      <trkpt lat="41.92282" lon="25.91945">
        <ele>132.299648</ele>
        <time>2022-02-27T08:34:45.594Z</time>
      </trkpt>
      <trkpt lat="41.92287" lon="25.91932">
        <ele>132.233437</ele>
        <time>2022-02-27T08:34:48.649Z</time>
      </trkpt>
      <trkpt lat="41.92292" lon="25.91918">
        <ele>132.164686</ele>
        <time>2022-02-27T08:34:51.631Z</time>
      </trkpt>
      <trkpt lat="41.92298" lon="25.91902">
        <ele>132.085293</ele>
        <time>2022-02-27T08:34:54.608Z</time>
      </trkpt>
      <trkpt lat="41.92303" lon="25.9189">
        <ele>132.025519</ele>
        <time>2022-02-27T08:34:56.595Z</time>
      </trkpt>
      <trkpt lat="41.92307" lon="25.91879">
        <ele>131.972281</ele>
        <time>2022-02-27T08:34:58.597Z</time>
      </trkpt>
      <trkpt lat="41.92313" lon="25.91863">
        <ele>131.893263</ele>
        <time>2022-02-27T08:35:01.587Z</time>
      </trkpt>
      <trkpt lat="41.92318" lon="25.91847">
        <ele>131.817954</ele>
        <time>2022-02-27T08:35:04.586Z</time>
      </trkpt>
      <trkpt lat="41.92324" lon="25.91831">
        <ele>131.737883</ele>
        <time>2022-02-27T08:35:07.583Z</time>
      </trkpt>
      <trkpt lat="41.92329" lon="25.9182">
        <ele>131.683188</ele>
        <time>2022-02-27T08:35:09.593Z</time>
      </trkpt>
      <trkpt lat="41.92334" lon="25.9181">
        <ele>131.875791</ele>
        <time>2022-02-27T08:35:11.612Z</time>
      </trkpt>
      <trkpt lat="41.92338" lon="25.91799">
        <ele>132.080217</ele>
        <time>2022-02-27T08:35:13.606Z</time>
      </trkpt>
      <trkpt lat="41.92343" lon="25.91788">
        <ele>132.28935</ele>
        <time>2022-02-27T08:35:15.579Z</time>
      </trkpt>
      <trkpt lat="41.92349" lon="25.91775">
        <ele>132.552019</ele>
        <time>2022-02-27T08:35:18.598Z</time>
      </trkpt>
      <trkpt lat="41.92354" lon="25.91761">
        <ele>132.810641</ele>
        <time>2022-02-27T08:35:21.603Z</time>
      </trkpt>
      <trkpt lat="41.92359" lon="25.91748">
        <ele>133.067648</ele>
        <time>2022-02-27T08:35:24.592Z</time>
      </trkpt>
      <trkpt lat="41.92364" lon="25.91736">
        <ele>133.297295</ele>
        <time>2022-02-27T08:35:27.632Z</time>
      </trkpt>
      <trkpt lat="41.92369" lon="25.91721">
        <ele>133.55536</ele>
        <time>2022-02-27T08:35:30.597Z</time>
      </trkpt>
      <trkpt lat="41.92374" lon="25.91707">
        <ele>133.823837</ele>
        <time>2022-02-27T08:35:33.635Z</time>
      </trkpt>
      <trkpt lat="41.9238" lon="25.91694">
        <ele>134.080741</ele>
        <time>2022-02-27T08:35:36.592Z</time>
      </trkpt>
      <trkpt lat="41.92386" lon="25.9168">
        <ele>134.35763</ele>
        <time>2022-02-27T08:35:39.583Z</time>
      </trkpt>
      <trkpt lat="41.92391" lon="25.91666">
        <ele>134.610163</ele>
        <time>2022-02-27T08:35:42.597Z</time>
      </trkpt>
      <trkpt lat="41.92398" lon="25.91651">
        <ele>134.904847</ele>
        <time>2022-02-27T08:35:45.590Z</time>
      </trkpt>
      <trkpt lat="41.92403" lon="25.9164">
        <ele>135.129452</ele>
        <time>2022-02-27T08:35:47.611Z</time>
      </trkpt>
      <trkpt lat="41.92408" lon="25.91629">
        <ele>135.335655</ele>
        <time>2022-02-27T08:35:49.581Z</time>
      </trkpt>
      <trkpt lat="41.92413" lon="25.91618">
        <ele>135.567478</ele>
        <time>2022-02-27T08:35:51.627Z</time>
      </trkpt>
      <trkpt lat="41.92419" lon="25.91601">
        <ele>135.814796</ele>
        <time>2022-02-27T08:35:54.619Z</time>
      </trkpt>
      <trkpt lat="41.92426" lon="25.91586">
        <ele>135.980458</ele>
        <time>2022-02-27T08:35:57.607Z</time>
      </trkpt>
      <trkpt lat="41.92432" lon="25.9157">
        <ele>136.154287</ele>
        <time>2022-02-27T08:36:00.606Z</time>
      </trkpt>
      <trkpt lat="41.92437" lon="25.91558">
        <ele>136.288641</ele>
        <time>2022-02-27T08:36:02.597Z</time>
      </trkpt>
      <trkpt lat="41.92442" lon="25.91546">
        <ele>136.421526</ele>
        <time>2022-02-27T08:36:04.593Z</time>
      </trkpt>
      <trkpt lat="41.92447" lon="25.91535">
        <ele>136.542319</ele>
        <time>2022-02-27T08:36:06.614Z</time>
      </trkpt>
      <trkpt lat="41.92453" lon="25.91519">
        <ele>136.712918</ele>
        <time>2022-02-27T08:36:09.620Z</time>
      </trkpt>
      <trkpt lat="41.92458" lon="25.91504">
        <ele>136.874415</ele>
        <time>2022-02-27T08:36:12.606Z</time>
      </trkpt>
      <trkpt lat="41.92464" lon="25.91489">
        <ele>137.036538</ele>
        <time>2022-02-27T08:36:15.615Z</time>
      </trkpt>
      <trkpt lat="41.9247" lon="25.91474">
        <ele>137.190877</ele>
        <time>2022-02-27T08:36:18.632Z</time>
      </trkpt>
      <trkpt lat="41.92475" lon="25.91461">
        <ele>137.336896</ele>
        <time>2022-02-27T08:36:21.610Z</time>
      </trkpt>
      <trkpt lat="41.92479" lon="25.91448">
        <ele>137.47177</ele>
        <time>2022-02-27T08:36:24.610Z</time>
      </trkpt>
      <trkpt lat="41.92484" lon="25.91436">
        <ele>137.599222</ele>
        <time>2022-02-27T08:36:27.616Z</time>
      </trkpt>
      <trkpt lat="41.92488" lon="25.91426">
        <ele>137.716004</ele>
        <time>2022-02-27T08:36:30.594Z</time>
      </trkpt>
      <trkpt lat="41.92494" lon="25.91412">
        <ele>137.867962</ele>
        <time>2022-02-27T08:36:34.610Z</time>
      </trkpt>
      <trkpt lat="41.92499" lon="25.91401">
        <ele>137.994975</ele>
        <time>2022-02-27T08:36:37.712Z</time>
      </trkpt>
      <trkpt lat="41.92505" lon="25.9139">
        <ele>137.990929</ele>
        <time>2022-02-27T08:36:40.598Z</time>
      </trkpt>
      <trkpt lat="41.92511" lon="25.91377">
        <ele>137.879221</ele>
        <time>2022-02-27T08:36:43.587Z</time>
      </trkpt>
      <trkpt lat="41.92518" lon="25.91364">
        <ele>137.763614</ele>
        <time>2022-02-27T08:36:46.606Z</time>
      </trkpt>
      <trkpt lat="41.92524" lon="25.91351">
        <ele>137.644571</ele>
        <time>2022-02-27T08:36:49.630Z</time>
      </trkpt>
      <trkpt lat="41.9253" lon="25.91338">
        <ele>137.529523</ele>
        <time>2022-02-27T08:36:52.605Z</time>
      </trkpt>
      <trkpt lat="41.92537" lon="25.91326">
        <ele>137.412841</ele>
        <time>2022-02-27T08:36:55.616Z</time>
      </trkpt>
      <trkpt lat="41.92545" lon="25.91313">
        <ele>137.286017</ele>
        <time>2022-02-27T08:36:58.616Z</time>
      </trkpt>
      <trkpt lat="41.92557" lon="25.91304">
        <ele>137.156054</ele>
        <time>2022-02-27T08:37:01.594Z</time>
      </trkpt>
      <trkpt lat="41.92568" lon="25.91295">
        <ele>137.024317</ele>
        <time>2022-02-27T08:37:04.641Z</time>
      </trkpt>
      <trkpt lat="41.92575" lon="25.91283">
        <ele>136.908056</ele>
        <time>2022-02-27T08:37:07.610Z</time>
      </trkpt>
      <trkpt lat="41.92577" lon="25.9127">
        <ele>136.807074</ele>
        <time>2022-02-27T08:37:09.614Z</time>
      </trkpt>
      <trkpt lat="41.92581" lon="25.91253">
        <ele>136.676738</ele>
        <time>2022-02-27T08:37:12.612Z</time>
      </trkpt>
      <trkpt lat="41.92586" lon="25.91238">
        <ele>136.553791</ele>
        <time>2022-02-27T08:37:15.607Z</time>
      </trkpt>
      <trkpt lat="41.9259" lon="25.91228">
        <ele>136.462048</ele>
        <time>2022-02-27T08:37:17.610Z</time>
      </trkpt>
      <trkpt lat="41.92596" lon="25.91218">
        <ele>136.369358</ele>
        <time>2022-02-27T08:37:19.602Z</time>
      </trkpt>
      <trkpt lat="41.92601" lon="25.91208">
        <ele>136.275519</ele>
        <time>2022-02-27T08:37:21.603Z</time>
      </trkpt>
      <trkpt lat="41.92607" lon="25.91196">
        <ele>136.305844</ele>
        <time>2022-02-27T08:37:23.609Z</time>
      </trkpt>
      <trkpt lat="41.92613" lon="25.91185">
        <ele>136.416971</ele>
        <time>2022-02-27T08:37:25.641Z</time>
      </trkpt>
      <trkpt lat="41.92619" lon="25.91174">
        <ele>136.523616</ele>
        <time>2022-02-27T08:37:27.623Z</time>
      </trkpt>
      <trkpt lat="41.92625" lon="25.91163">
        <ele>136.628986</ele>
        <time>2022-02-27T08:37:29.596Z</time>
      </trkpt>
      <trkpt lat="41.92632" lon="25.91152">
        <ele>136.743895</ele>
        <time>2022-02-27T08:37:31.612Z</time>
      </trkpt>
      <trkpt lat="41.92639" lon="25.9114">
        <ele>136.865786</ele>
        <time>2022-02-27T08:37:33.607Z</time>
      </trkpt>
      <trkpt lat="41.92645" lon="25.91125">
        <ele>136.998788</ele>
        <time>2022-02-27T08:37:35.646Z</time>
      </trkpt>
      <trkpt lat="41.92651" lon="25.91112">
        <ele>137.119552</ele>
        <time>2022-02-27T08:37:37.611Z</time>
      </trkpt>
      <trkpt lat="41.92656" lon="25.91099">
        <ele>137.234632</ele>
        <time>2022-02-27T08:37:39.603Z</time>
      </trkpt>
      <trkpt lat="41.92662" lon="25.91086">
        <ele>137.353479</ele>
        <time>2022-02-27T08:37:41.656Z</time>
      </trkpt>
      <trkpt lat="41.92667" lon="25.91074">
        <ele>137.468243</ele>
        <time>2022-02-27T08:37:43.602Z</time>
      </trkpt>
      <trkpt lat="41.92674" lon="25.91062">
        <ele>137.585194</ele>
        <time>2022-02-27T08:37:45.615Z</time>
      </trkpt>
      <trkpt lat="41.9268" lon="25.91049">
        <ele>137.709662</ele>
        <time>2022-02-27T08:37:47.612Z</time>
      </trkpt>
      <trkpt lat="41.92686" lon="25.91035">
        <ele>137.833533</ele>
        <time>2022-02-27T08:37:49.602Z</time>
      </trkpt>
      <trkpt lat="41.92692" lon="25.91023">
        <ele>137.95189</ele>
        <time>2022-02-27T08:37:51.607Z</time>
      </trkpt>
      <trkpt lat="41.92698" lon="25.91011">
        <ele>138.065865</ele>
        <time>2022-02-27T08:37:53.610Z</time>
      </trkpt>
      <trkpt lat="41.92704" lon="25.90999">
        <ele>138.098657</ele>
        <time>2022-02-27T08:37:55.620Z</time>
      </trkpt>
      <trkpt lat="41.92711" lon="25.90987">
        <ele>137.915679</ele>
        <time>2022-02-27T08:37:57.615Z</time>
      </trkpt>
      <trkpt lat="41.92717" lon="25.90974">
        <ele>137.730605</ele>
        <time>2022-02-27T08:37:59.609Z</time>
      </trkpt>
      <trkpt lat="41.92723" lon="25.90963">
        <ele>137.562562</ele>
        <time>2022-02-27T08:38:01.600Z</time>
      </trkpt>
      <trkpt lat="41.92729" lon="25.90952">
        <ele>137.398459</ele>
        <time>2022-02-27T08:38:03.606Z</time>
      </trkpt>
      <trkpt lat="41.92732" lon="25.90941">
        <ele>137.249928</ele>
        <time>2022-02-27T08:38:05.605Z</time>
      </trkpt>
      <trkpt lat="41.92737" lon="25.9093">
        <ele>137.097423</ele>
        <time>2022-02-27T08:38:07.615Z</time>
      </trkpt>
      <trkpt lat="41.92745" lon="25.90917">
        <ele>136.88586</ele>
        <time>2022-02-27T08:38:10.603Z</time>
      </trkpt>
      <trkpt lat="41.9275" lon="25.90907">
        <ele>136.736555</ele>
        <time>2022-02-27T08:38:12.608Z</time>
      </trkpt>
      <trkpt lat="41.92754" lon="25.90896">
        <ele>136.577056</ele>
        <time>2022-02-27T08:38:14.631Z</time>
      </trkpt>
      <trkpt lat="41.92759" lon="25.90883">
        <ele>136.410318</ele>
        <time>2022-02-27T08:38:16.600Z</time>
      </trkpt>
      <trkpt lat="41.92764" lon="25.9087">
        <ele>136.230773</ele>
        <time>2022-02-27T08:38:18.604Z</time>
      </trkpt>
      <trkpt lat="41.92768" lon="25.9086">
        <ele>136.079859</ele>
        <time>2022-02-27T08:38:20.616Z</time>
      </trkpt>
      <trkpt lat="41.92772" lon="25.90849">
        <ele>135.929236</ele>
        <time>2022-02-27T08:38:22.611Z</time>
      </trkpt>
      <trkpt lat="41.92778" lon="25.90834">
        <ele>135.717827</ele>
        <time>2022-02-27T08:38:25.607Z</time>
      </trkpt>
      <trkpt lat="41.92786" lon="25.90822">
        <ele>135.530854</ele>
        <time>2022-02-27T08:38:28.625Z</time>
      </trkpt>
      <trkpt lat="41.92793" lon="25.9081">
        <ele>135.346839</ele>
        <time>2022-02-27T08:38:31.600Z</time>
      </trkpt>
      <trkpt lat="41.92799" lon="25.90798">
        <ele>135.16174</ele>
        <time>2022-02-27T08:38:34.616Z</time>
      </trkpt>
      <trkpt lat="41.92805" lon="25.90787">
        <ele>135.036253</ele>
        <time>2022-02-27T08:38:37.585Z</time>
      </trkpt>
      <trkpt lat="41.9281" lon="25.90774">
        <ele>134.916008</ele>
        <time>2022-02-27T08:38:41.609Z</time>
      </trkpt>
      <trkpt lat="41.92814" lon="25.90764">
        <ele>134.807893</ele>
        <time>2022-02-27T08:38:44.611Z</time>
      </trkpt>
      <trkpt lat="41.92819" lon="25.90753">
        <ele>134.69648</ele>
        <time>2022-02-27T08:38:47.599Z</time>
      </trkpt>
      <trkpt lat="41.92825" lon="25.9074">
        <ele>134.560505</ele>
        <time>2022-02-27T08:38:50.628Z</time>
      </trkpt>
      <trkpt lat="41.92832" lon="25.90727">
        <ele>134.412227</ele>
        <time>2022-02-27T08:38:53.609Z</time>
      </trkpt>
      <trkpt lat="41.9284" lon="25.90712">
        <ele>134.255114</ele>
        <time>2022-02-27T08:38:56.620Z</time>
      </trkpt>
      <trkpt lat="41.92844" lon="25.90701">
        <ele>134.145711</ele>
        <time>2022-02-27T08:38:58.632Z</time>
      </trkpt>
      <trkpt lat="41.9285" lon="25.90688">
        <ele>134.009154</ele>
        <time>2022-02-27T08:39:01.608Z</time>
      </trkpt>
      <trkpt lat="41.92856" lon="25.90676">
        <ele>133.881495</ele>
        <time>2022-02-27T08:39:04.609Z</time>
      </trkpt>
      <trkpt lat="41.92861" lon="25.90662">
        <ele>133.743745</ele>
        <time>2022-02-27T08:39:07.607Z</time>
      </trkpt>
      <trkpt lat="41.92867" lon="25.9065">
        <ele>133.617534</ele>
        <time>2022-02-27T08:39:10.610Z</time>
      </trkpt>
      <trkpt lat="41.92873" lon="25.90639">
        <ele>133.496234</ele>
        <time>2022-02-27T08:39:13.634Z</time>
      </trkpt>
      <trkpt lat="41.92878" lon="25.90629">
        <ele>133.385355</ele>
        <time>2022-02-27T08:39:16.599Z</time>
      </trkpt>
      <trkpt lat="41.92884" lon="25.90616">
        <ele>133.251571</ele>
        <time>2022-02-27T08:39:20.635Z</time>
      </trkpt>
      <trkpt lat="41.92888" lon="25.90605">
        <ele>133.140231</ele>
        <time>2022-02-27T08:39:24.630Z</time>
      </trkpt>
      <trkpt lat="41.92893" lon="25.90593">
        <ele>133.023202</ele>
        <time>2022-02-27T08:39:28.659Z</time>
      </trkpt>
      <trkpt lat="41.92898" lon="25.90582">
        <ele>133.019139</ele>
        <time>2022-02-27T08:39:33.608Z</time>
      </trkpt>
      <trkpt lat="41.92902" lon="25.90571">
        <ele>133.015357</ele>
        <time>2022-02-27T08:39:39.637Z</time>
      </trkpt>
      <trkpt lat="41.92909" lon="25.90558">
        <ele>133.010649</ele>
        <time>2022-02-27T08:39:43.607Z</time>
      </trkpt>
      <trkpt lat="41.92913" lon="25.90547">
        <ele>133.006681</ele>
        <time>2022-02-27T08:39:46.610Z</time>
      </trkpt>
      <trkpt lat="41.92919" lon="25.90534">
        <ele>133.002344</ele>
        <time>2022-02-27T08:39:49.639Z</time>
      </trkpt>
      <trkpt lat="41.92925" lon="25.9052">
        <ele>132.99728</ele>
        <time>2022-02-27T08:39:52.600Z</time>
      </trkpt>
      <trkpt lat="41.92931" lon="25.90507">
        <ele>132.992453</ele>
        <time>2022-02-27T08:39:55.624Z</time>
      </trkpt>
      <trkpt lat="41.92937" lon="25.90494">
        <ele>132.987754</ele>
        <time>2022-02-27T08:39:58.620Z</time>
      </trkpt>
      <trkpt lat="41.92943" lon="25.9048">
        <ele>132.982774</ele>
        <time>2022-02-27T08:40:01.619Z</time>
      </trkpt>
      <trkpt lat="41.92949" lon="25.9047">
        <ele>132.978961</ele>
        <time>2022-02-27T08:40:03.617Z</time>
      </trkpt>
      <trkpt lat="41.92956" lon="25.90459">
        <ele>132.974509</ele>
        <time>2022-02-27T08:40:05.605Z</time>
      </trkpt>
      <trkpt lat="41.92963" lon="25.90446">
        <ele>132.96959</ele>
        <time>2022-02-27T08:40:07.631Z</time>
      </trkpt>
      <trkpt lat="41.9297" lon="25.90434">
        <ele>132.965035</ele>
        <time>2022-02-27T08:40:09.614Z</time>
      </trkpt>
      <trkpt lat="41.92977" lon="25.90425">
        <ele>132.960949</ele>
        <time>2022-02-27T08:40:11.608Z</time>
      </trkpt>
      <trkpt lat="41.92983" lon="25.90415">
        <ele>132.957105</ele>
        <time>2022-02-27T08:40:13.648Z</time>
      </trkpt>
      <trkpt lat="41.92989" lon="25.90405">
        <ele>132.953258</ele>
        <time>2022-02-27T08:40:15.614Z</time>
      </trkpt>
      <trkpt lat="41.92994" lon="25.90395">
        <ele>132.949369</ele>
        <time>2022-02-27T08:40:17.620Z</time>
      </trkpt>
      <trkpt lat="41.92998" lon="25.90384">
        <ele>132.845644</ele>
        <time>2022-02-27T08:40:19.617Z</time>
      </trkpt>
      <trkpt lat="41.93003" lon="25.90373">
        <ele>132.727435</ele>
        <time>2022-02-27T08:40:21.607Z</time>
      </trkpt>
      <trkpt lat="41.93007" lon="25.90362">
        <ele>132.619428</ele>
        <time>2022-02-27T08:40:23.607Z</time>
      </trkpt>
      <trkpt lat="41.93014" lon="25.90349">
        <ele>132.477953</ele>
        <time>2022-02-27T08:40:26.620Z</time>
      </trkpt>
      <trkpt lat="41.93021" lon="25.90336">
        <ele>132.337845</ele>
        <time>2022-02-27T08:40:29.612Z</time>
      </trkpt>
      <trkpt lat="41.93028" lon="25.90323">
        <ele>132.196321</ele>
        <time>2022-02-27T08:40:32.597Z</time>
      </trkpt>
      <trkpt lat="41.93036" lon="25.9031">
        <ele>132.044626</ele>
        <time>2022-02-27T08:40:35.675Z</time>
      </trkpt>
      <trkpt lat="41.93043" lon="25.90296">
        <ele>131.892429</ele>
        <time>2022-02-27T08:40:38.615Z</time>
      </trkpt>
      <trkpt lat="41.93052" lon="25.90283">
        <ele>131.739758</ele>
        <time>2022-02-27T08:40:41.600Z</time>
      </trkpt>
      <trkpt lat="41.93059" lon="25.90273">
        <ele>131.606984</ele>
        <time>2022-02-27T08:40:44.605Z</time>
      </trkpt>
      <trkpt lat="41.93072" lon="25.90266">
        <ele>131.446745</ele>
        <time>2022-02-27T08:40:47.611Z</time>
      </trkpt>
      <trkpt lat="41.93082" lon="25.90262">
        <ele>131.323695</ele>
        <time>2022-02-27T08:40:49.598Z</time>
      </trkpt>
      <trkpt lat="41.93092" lon="25.9026">
        <ele>131.201771</ele>
        <time>2022-02-27T08:40:51.615Z</time>
      </trkpt>
      <trkpt lat="41.931" lon="25.90255">
        <ele>131.09162</ele>
        <time>2022-02-27T08:40:53.606Z</time>
      </trkpt>
      <trkpt lat="41.93108" lon="25.9025">
        <ele>130.983464</ele>
        <time>2022-02-27T08:40:55.613Z</time>
      </trkpt>
      <trkpt lat="41.93117" lon="25.90245">
        <ele>130.871651</ele>
        <time>2022-02-27T08:40:57.658Z</time>
      </trkpt>
      <trkpt lat="41.93126" lon="25.90241">
        <ele>130.623453</ele>
        <time>2022-02-27T08:40:59.616Z</time>
      </trkpt>
      <trkpt lat="41.93136" lon="25.90237">
        <ele>130.118087</ele>
        <time>2022-02-27T08:41:01.617Z</time>
      </trkpt>
      <trkpt lat="41.93144" lon="25.90233">
        <ele>129.640875</ele>
        <time>2022-02-27T08:41:03.586Z</time>
      </trkpt>
      <trkpt lat="41.93155" lon="25.90226">
        <ele>129.030768</ele>
        <time>2022-02-27T08:41:06.639Z</time>
      </trkpt>
      <trkpt lat="41.93165" lon="25.90218">
        <ele>128.424479</ele>
        <time>2022-02-27T08:41:09.608Z</time>
      </trkpt>
      <trkpt lat="41.93176" lon="25.90212">
        <ele>127.83203</ele>
        <time>2022-02-27T08:41:12.601Z</time>
      </trkpt>
      <trkpt lat="41.93186" lon="25.90206">
        <ele>127.265466</ele>
        <time>2022-02-27T08:41:15.606Z</time>
      </trkpt>
      <trkpt lat="41.93198" lon="25.90201">
        <ele>126.64573</ele>
        <time>2022-02-27T08:41:18.613Z</time>
      </trkpt>
      <trkpt lat="41.93208" lon="25.90196">
        <ele>126.077789</ele>
        <time>2022-02-27T08:41:21.613Z</time>
      </trkpt>
      <trkpt lat="41.93217" lon="25.9019">
        <ele>125.551123</ele>
        <time>2022-02-27T08:41:24.594Z</time>
      </trkpt>
      <trkpt lat="41.93227" lon="25.90187">
        <ele>125.013057</ele>
        <time>2022-02-27T08:41:29.611Z</time>
      </trkpt>
      <trkpt lat="41.93237" lon="25.90191">
        <ele>124.516936</ele>
        <time>2022-02-27T08:41:33.608Z</time>
      </trkpt>
      <trkpt lat="41.93259" lon="25.902">
        <ele>123.312878</ele>
        <time>2022-02-27T08:41:57.600Z</time>
      </trkpt>
      <trkpt lat="41.93266" lon="25.90192">
        <ele>122.825044</ele>
        <time>2022-02-27T08:42:00.635Z</time>
      </trkpt>
      <trkpt lat="41.93273" lon="25.90183">
        <ele>122.332948</ele>
        <time>2022-02-27T08:42:03.607Z</time>
      </trkpt>
      <trkpt lat="41.93281" lon="25.90171">
        <ele>121.722153</ele>
        <time>2022-02-27T08:42:07.621Z</time>
      </trkpt>
      <trkpt lat="41.93289" lon="25.90161">
        <ele>121.592968</ele>
        <time>2022-02-27T08:42:11.617Z</time>
      </trkpt>
      <trkpt lat="41.93298" lon="25.90152">
        <ele>121.647967</ele>
        <time>2022-02-27T08:42:15.620Z</time>
      </trkpt>
      <trkpt lat="41.93306" lon="25.90145">
        <ele>121.691075</ele>
        <time>2022-02-27T08:42:18.649Z</time>
      </trkpt>
      <trkpt lat="41.93315" lon="25.90138">
        <ele>121.740297</ele>
        <time>2022-02-27T08:42:21.597Z</time>
      </trkpt>
      <trkpt lat="41.93325" lon="25.90131">
        <ele>121.793962</ele>
        <time>2022-02-27T08:42:24.645Z</time>
      </trkpt>
      <trkpt lat="41.93335" lon="25.90125">
        <ele>121.84448</ele>
        <time>2022-02-27T08:42:27.607Z</time>
      </trkpt>
      <trkpt lat="41.93344" lon="25.90118">
        <ele>121.891851</ele>
        <time>2022-02-27T08:42:30.620Z</time>
      </trkpt>
      <trkpt lat="41.93353" lon="25.90112">
        <ele>121.941949</ele>
        <time>2022-02-27T08:42:33.622Z</time>
      </trkpt>
      <trkpt lat="41.93364" lon="25.90105">
        <ele>121.995678</ele>
        <time>2022-02-27T08:42:36.634Z</time>
      </trkpt>
      <trkpt lat="41.93373" lon="25.90097">
        <ele>122.047106</ele>
        <time>2022-02-27T08:42:39.600Z</time>
      </trkpt>
      <trkpt lat="41.93383" lon="25.90091">
        <ele>122.101192</ele>
        <time>2022-02-27T08:42:42.616Z</time>
      </trkpt>
      <trkpt lat="41.93393" lon="25.90084">
        <ele>122.153521</ele>
        <time>2022-02-27T08:42:45.592Z</time>
      </trkpt>
      <trkpt lat="41.93403" lon="25.90078">
        <ele>122.205612</ele>
        <time>2022-02-27T08:42:48.611Z</time>
      </trkpt>
      <trkpt lat="41.93414" lon="25.90071">
        <ele>122.260368</ele>
        <time>2022-02-27T08:42:51.658Z</time>
      </trkpt>
      <trkpt lat="41.93424" lon="25.90064">
        <ele>122.314875</ele>
        <time>2022-02-27T08:42:54.606Z</time>
      </trkpt>
      <trkpt lat="41.93434" lon="25.90057">
        <ele>122.367808</ele>
        <time>2022-02-27T08:42:57.626Z</time>
      </trkpt>
      <trkpt lat="41.93445" lon="25.90051">
        <ele>122.499331</ele>
        <time>2022-02-27T08:43:00.607Z</time>
      </trkpt>
      <trkpt lat="41.93456" lon="25.90043">
        <ele>122.765765</ele>
        <time>2022-02-27T08:43:03.654Z</time>
      </trkpt>
      <trkpt lat="41.93467" lon="25.90036">
        <ele>123.043863</ele>
        <time>2022-02-27T08:43:06.607Z</time>
      </trkpt>
      <trkpt lat="41.93478" lon="25.90029">
        <ele>123.311873</ele>
        <time>2022-02-27T08:43:09.678Z</time>
      </trkpt>
      <trkpt lat="41.93489" lon="25.90023">
        <ele>123.572468</ele>
        <time>2022-02-27T08:43:12.612Z</time>
      </trkpt>
      <trkpt lat="41.93499" lon="25.90016">
        <ele>123.831087</ele>
        <time>2022-02-27T08:43:15.618Z</time>
      </trkpt>
      <trkpt lat="41.9351" lon="25.9001">
        <ele>124.086979</ele>
        <time>2022-02-27T08:43:18.606Z</time>
      </trkpt>
      <trkpt lat="41.93521" lon="25.90003">
        <ele>124.347732</ele>
        <time>2022-02-27T08:43:21.613Z</time>
      </trkpt>
      <trkpt lat="41.93531" lon="25.89997">
        <ele>124.597608</ele>
        <time>2022-02-27T08:43:24.608Z</time>
      </trkpt>
      <trkpt lat="41.93542" lon="25.8999">
        <ele>124.854169</ele>
        <time>2022-02-27T08:43:27.645Z</time>
      </trkpt>
      <trkpt lat="41.93552" lon="25.89983">
        <ele>125.112942</ele>
        <time>2022-02-27T08:43:30.617Z</time>
      </trkpt>
      <trkpt lat="41.93562" lon="25.89977">
        <ele>125.360101</ele>
        <time>2022-02-27T08:43:33.595Z</time>
      </trkpt>
      <trkpt lat="41.93572" lon="25.89971">
        <ele>125.597954</ele>
        <time>2022-02-27T08:43:36.612Z</time>
      </trkpt>
      <trkpt lat="41.93581" lon="25.89965">
        <ele>125.827006</ele>
        <time>2022-02-27T08:43:39.607Z</time>
      </trkpt>
      <trkpt lat="41.9359" lon="25.89959">
        <ele>126.051044</ele>
        <time>2022-02-27T08:43:42.623Z</time>
      </trkpt>
      <trkpt lat="41.936" lon="25.89952">
        <ele>126.277799</ele>
        <time>2022-02-27T08:43:45.618Z</time>
      </trkpt>
      <trkpt lat="41.93608" lon="25.89946">
        <ele>126.478632</ele>
        <time>2022-02-27T08:43:48.618Z</time>
      </trkpt>
      <trkpt lat="41.93616" lon="25.8994">
        <ele>126.690878</ele>
        <time>2022-02-27T08:43:51.619Z</time>
      </trkpt>
      <trkpt lat="41.93625" lon="25.89934">
        <ele>126.910339</ele>
        <time>2022-02-27T08:43:54.623Z</time>
      </trkpt>
      <trkpt lat="41.93635" lon="25.89927">
        <ele>127.146512</ele>
        <time>2022-02-27T08:43:57.626Z</time>
      </trkpt>
      <trkpt lat="41.93645" lon="25.8992">
        <ele>127.385715</ele>
        <time>2022-02-27T08:44:00.615Z</time>
      </trkpt>
      <trkpt lat="41.93654" lon="25.89913">
        <ele>127.606345</ele>
        <time>2022-02-27T08:44:03.602Z</time>
      </trkpt>
      <trkpt lat="41.93663" lon="25.89907">
        <ele>127.825129</ele>
        <time>2022-02-27T08:44:06.593Z</time>
      </trkpt>
      <trkpt lat="41.93672" lon="25.899">
        <ele>128.045344</ele>
        <time>2022-02-27T08:44:09.640Z</time>
      </trkpt>
      <trkpt lat="41.9368" lon="25.89894">
        <ele>128.241673</ele>
        <time>2022-02-27T08:44:12.607Z</time>
      </trkpt>
      <trkpt lat="41.9369" lon="25.89887">
        <ele>128.493821</ele>
        <time>2022-02-27T08:44:16.624Z</time>
      </trkpt>
      <trkpt lat="41.93698" lon="25.89882">
        <ele>128.689937</ele>
        <time>2022-02-27T08:44:19.617Z</time>
      </trkpt>
      <trkpt lat="41.93709" lon="25.89875">
        <ele>128.943097</ele>
        <time>2022-02-27T08:44:23.604Z</time>
      </trkpt>
      <trkpt lat="41.9372" lon="25.89868">
        <ele>129.204739</ele>
        <time>2022-02-27T08:44:27.619Z</time>
      </trkpt>
      <trkpt lat="41.93729" lon="25.89863">
        <ele>129.415209</ele>
        <time>2022-02-27T08:44:30.598Z</time>
      </trkpt>
      <trkpt lat="41.93738" lon="25.89858">
        <ele>129.623056</ele>
        <time>2022-02-27T08:44:33.609Z</time>
      </trkpt>
      <trkpt lat="41.93746" lon="25.89852">
        <ele>129.833818</ele>
        <time>2022-02-27T08:44:36.611Z</time>
      </trkpt>
      <trkpt lat="41.93755" lon="25.89846">
        <ele>130.037363</ele>
        <time>2022-02-27T08:44:39.604Z</time>
      </trkpt>
      <trkpt lat="41.93765" lon="25.89838">
        <ele>130.287962</ele>
        <time>2022-02-27T08:44:43.615Z</time>
      </trkpt>
      <trkpt lat="41.93775" lon="25.89832">
        <ele>130.528347</ele>
        <time>2022-02-27T08:44:47.616Z</time>
      </trkpt>
      <trkpt lat="41.93783" lon="25.89826">
        <ele>130.723869</ele>
        <time>2022-02-27T08:44:50.604Z</time>
      </trkpt>
      <trkpt lat="41.93791" lon="25.8982">
        <ele>130.920897</ele>
        <time>2022-02-27T08:44:53.641Z</time>
      </trkpt>
      <trkpt lat="41.93802" lon="25.89813">
        <ele>131.175575</ele>
        <time>2022-02-27T08:44:57.610Z</time>
      </trkpt>
      <trkpt lat="41.93812" lon="25.89807">
        <ele>131.408012</ele>
        <time>2022-02-27T08:45:01.599Z</time>
      </trkpt>
      <trkpt lat="41.93822" lon="25.89801">
        <ele>131.644388</ele>
        <time>2022-02-27T08:45:05.604Z</time>
      </trkpt>
      <trkpt lat="41.93831" lon="25.89796">
        <ele>131.84046</ele>
        <time>2022-02-27T08:45:08.618Z</time>
      </trkpt>
      <trkpt lat="41.93841" lon="25.8979">
        <ele>132.088469</ele>
        <time>2022-02-27T08:45:12.633Z</time>
      </trkpt>
      <trkpt lat="41.93852" lon="25.89783">
        <ele>132.340401</ele>
        <time>2022-02-27T08:45:16.630Z</time>
      </trkpt>
      <trkpt lat="41.93861" lon="25.89777">
        <ele>132.545595</ele>
        <time>2022-02-27T08:45:19.620Z</time>
      </trkpt>
      <trkpt lat="41.93869" lon="25.89772">
        <ele>132.739105</ele>
        <time>2022-02-27T08:45:22.608Z</time>
      </trkpt>
      <trkpt lat="41.93877" lon="25.89766">
        <ele>132.947386</ele>
        <time>2022-02-27T08:45:25.625Z</time>
      </trkpt>
      <trkpt lat="41.93888" lon="25.8976">
        <ele>133.191521</ele>
        <time>2022-02-27T08:45:29.601Z</time>
      </trkpt>
      <trkpt lat="41.93899" lon="25.89754">
        <ele>133.444754</ele>
        <time>2022-02-27T08:45:33.605Z</time>
      </trkpt>
      <trkpt lat="41.93907" lon="25.89748">
        <ele>133.642255</ele>
        <time>2022-02-27T08:45:36.618Z</time>
      </trkpt>
      <trkpt lat="41.93917" lon="25.89741">
        <ele>133.885516</ele>
        <time>2022-02-27T08:45:40.591Z</time>
      </trkpt>
      <trkpt lat="41.93927" lon="25.89735">
        <ele>134.119423</ele>
        <time>2022-02-27T08:45:44.610Z</time>
      </trkpt>
      <trkpt lat="41.93937" lon="25.89728">
        <ele>134.432545</ele>
        <time>2022-02-27T08:45:48.615Z</time>
      </trkpt>
      <trkpt lat="41.93947" lon="25.8972">
        <ele>134.750423</ele>
        <time>2022-02-27T08:45:52.683Z</time>
      </trkpt>
      <trkpt lat="41.93958" lon="25.89712">
        <ele>135.074521</ele>
        <time>2022-02-27T08:45:56.607Z</time>
      </trkpt>
      <trkpt lat="41.93968" lon="25.89706">
        <ele>135.393092</ele>
        <time>2022-02-27T08:46:00.654Z</time>
      </trkpt>
      <trkpt lat="41.93978" lon="25.897">
        <ele>135.672683</ele>
        <time>2022-02-27T08:46:04.618Z</time>
      </trkpt>
      <trkpt lat="41.93987" lon="25.89693">
        <ele>135.959477</ele>
        <time>2022-02-27T08:46:08.655Z</time>
      </trkpt>
      <trkpt lat="41.93995" lon="25.89687">
        <ele>136.216917</ele>
        <time>2022-02-27T08:46:12.613Z</time>
      </trkpt>
      <trkpt lat="41.94004" lon="25.8968">
        <ele>136.512693</ele>
        <time>2022-02-27T08:46:17.655Z</time>
      </trkpt>
      <trkpt lat="41.94013" lon="25.89674">
        <ele>136.772929</ele>
        <time>2022-02-27T08:46:21.613Z</time>
      </trkpt>
      <trkpt lat="41.94021" lon="25.89669">
        <ele>137.017852</ele>
        <time>2022-02-27T08:46:25.607Z</time>
      </trkpt>
      <trkpt lat="41.94031" lon="25.89662">
        <ele>137.317938</ele>
        <time>2022-02-27T08:46:30.647Z</time>
      </trkpt>
      <trkpt lat="41.9404" lon="25.89655">
        <ele>137.601357</ele>
        <time>2022-02-27T08:46:35.607Z</time>
      </trkpt>
      <trkpt lat="41.94048" lon="25.89648">
        <ele>137.874347</ele>
        <time>2022-02-27T08:46:40.620Z</time>
      </trkpt>
      <trkpt lat="41.94056" lon="25.89641">
        <ele>138.131479</ele>
        <time>2022-02-27T08:46:45.630Z</time>
      </trkpt>
      <trkpt lat="41.94064" lon="25.89634">
        <ele>138.395052</ele>
        <time>2022-02-27T08:46:50.626Z</time>
      </trkpt>
      <trkpt lat="41.94071" lon="25.89626">
        <ele>138.643704</ele>
        <time>2022-02-27T08:46:54.617Z</time>
      </trkpt>
      <trkpt lat="41.94079" lon="25.89618">
        <ele>138.919515</ele>
        <time>2022-02-27T08:46:59.621Z</time>
      </trkpt>
      <trkpt lat="41.94087" lon="25.89609">
        <ele>139.191935</ele>
        <time>2022-02-27T08:47:04.627Z</time>
      </trkpt>
      <trkpt lat="41.94094" lon="25.89599">
        <ele>139.476098</ele>
        <time>2022-02-27T08:47:09.610Z</time>
      </trkpt>
      <trkpt lat="41.94101" lon="25.8959">
        <ele>139.730432</ele>
        <time>2022-02-27T08:47:14.606Z</time>
      </trkpt>
      <trkpt lat="41.94107" lon="25.8958">
        <ele>139.992459</ele>
        <time>2022-02-27T08:47:19.598Z</time>
      </trkpt>
      <trkpt lat="41.94114" lon="25.89571">
        <ele>140.254865</ele>
        <time>2022-02-27T08:47:24.640Z</time>
      </trkpt>
      <trkpt lat="41.94121" lon="25.89562">
        <ele>140.497292</ele>
        <time>2022-02-27T08:47:29.651Z</time>
      </trkpt>
      <trkpt lat="41.94127" lon="25.89553">
        <ele>140.763434</ele>
        <time>2022-02-27T08:47:34.605Z</time>
      </trkpt>
      <trkpt lat="41.94134" lon="25.89543">
        <ele>141.0239</ele>
        <time>2022-02-27T08:47:39.621Z</time>
      </trkpt>
      <trkpt lat="41.94141" lon="25.89535">
        <ele>141.26774</ele>
        <time>2022-02-27T08:47:44.620Z</time>
      </trkpt>
      <trkpt lat="41.94147" lon="25.89526">
        <ele>141.517747</ele>
        <time>2022-02-27T08:47:49.617Z</time>
      </trkpt>
      <trkpt lat="41.94154" lon="25.89517">
        <ele>141.77914</ele>
        <time>2022-02-27T08:47:54.628Z</time>
      </trkpt>
      <trkpt lat="41.94161" lon="25.89506">
        <ele>142.066171</ele>
        <time>2022-02-27T08:48:00.610Z</time>
      </trkpt>
      <trkpt lat="41.94169" lon="25.89496">
        <ele>142.346577</ele>
        <time>2022-02-27T08:48:06.612Z</time>
      </trkpt>
      <trkpt lat="41.94175" lon="25.89487">
        <ele>142.604651</ele>
        <time>2022-02-27T08:48:11.612Z</time>
      </trkpt>
      <trkpt lat="41.94183" lon="25.89477">
        <ele>142.893561</ele>
        <time>2022-02-27T08:48:17.611Z</time>
      </trkpt>
      <trkpt lat="41.9419" lon="25.89467">
        <ele>143.170655</ele>
        <time>2022-02-27T08:48:23.600Z</time>
      </trkpt>
      <trkpt lat="41.94197" lon="25.89458">
        <ele>143.426851</ele>
        <time>2022-02-27T08:48:28.605Z</time>
      </trkpt>
      <trkpt lat="41.94203" lon="25.89448">
        <ele>143.684493</ele>
        <time>2022-02-27T08:48:33.630Z</time>
      </trkpt>
      <trkpt lat="41.9421" lon="25.89439">
        <ele>144.172937</ele>
        <time>2022-02-27T08:48:38.645Z</time>
      </trkpt>
      <trkpt lat="41.94217" lon="25.89431">
        <ele>144.915555</ele>
        <time>2022-02-27T08:48:43.611Z</time>
      </trkpt>
      <trkpt lat="41.94224" lon="25.89422">
        <ele>145.681351</ele>
        <time>2022-02-27T08:48:48.628Z</time>
      </trkpt>
      <trkpt lat="41.94232" lon="25.89412">
        <ele>146.518726</ele>
        <time>2022-02-27T08:48:55.637Z</time>
      </trkpt>
      <trkpt lat="41.94239" lon="25.89403">
        <ele>147.31827</ele>
        <time>2022-02-27T08:49:02.609Z</time>
      </trkpt>
      <trkpt lat="41.94246" lon="25.89394">
        <ele>148.057165</ele>
        <time>2022-02-27T08:49:08.610Z</time>
      </trkpt>
      <trkpt lat="41.94253" lon="25.89385">
        <ele>148.855004</ele>
        <time>2022-02-27T08:49:14.629Z</time>
      </trkpt>
      <trkpt lat="41.94259" lon="25.89376">
        <ele>149.604878</ele>
        <time>2022-02-27T08:49:20.620Z</time>
      </trkpt>
      <trkpt lat="41.94266" lon="25.89367">
        <ele>150.356065</ele>
        <time>2022-02-27T08:49:27.652Z</time>
      </trkpt>
      <trkpt lat="41.94272" lon="25.89358">
        <ele>151.087572</ele>
        <time>2022-02-27T08:49:33.626Z</time>
      </trkpt>
      <trkpt lat="41.94279" lon="25.89349">
        <ele>151.869796</ele>
        <time>2022-02-27T08:49:40.624Z</time>
      </trkpt>
      <trkpt lat="41.94286" lon="25.89339">
        <ele>152.658983</ele>
        <time>2022-02-27T08:49:47.608Z</time>
      </trkpt>
      <trkpt lat="41.94292" lon="25.8933">
        <ele>153.406621</ele>
        <time>2022-02-27T08:49:54.616Z</time>
      </trkpt>
      <trkpt lat="41.94298" lon="25.89321">
        <ele>154.129394</ele>
        <time>2022-02-27T08:50:01.669Z</time>
      </trkpt>
      <trkpt lat="41.94305" lon="25.89311">
        <ele>154.907499</ele>
        <time>2022-02-27T08:50:08.606Z</time>
      </trkpt>
      <trkpt lat="41.94312" lon="25.893">
        <ele>155.762742</ele>
        <time>2022-02-27T08:50:15.611Z</time>
      </trkpt>
      <trkpt lat="41.94318" lon="25.89291">
        <ele>156.492413</ele>
        <time>2022-02-27T08:50:22.632Z</time>
      </trkpt>
      <trkpt lat="41.94324" lon="25.89281">
        <ele>157.219643</ele>
        <time>2022-02-27T08:50:29.625Z</time>
      </trkpt>
      <trkpt lat="41.94329" lon="25.8927">
        <ele>158.018675</ele>
        <time>2022-02-27T08:50:36.615Z</time>
      </trkpt>
      <trkpt lat="41.94334" lon="25.8926">
        <ele>158.833041</ele>
        <time>2022-02-27T08:50:42.608Z</time>
      </trkpt>
      <trkpt lat="41.94338" lon="25.89249">
        <ele>159.662347</ele>
        <time>2022-02-27T08:50:48.624Z</time>
      </trkpt>
      <trkpt lat="41.94343" lon="25.89238">
        <ele>160.581242</ele>
        <time>2022-02-27T08:50:55.628Z</time>
      </trkpt>
      <trkpt lat="41.94348" lon="25.89227">
        <ele>161.452255</ele>
        <time>2022-02-27T08:51:02.627Z</time>
      </trkpt>
      <trkpt lat="41.94352" lon="25.89215">
        <ele>162.343522</ele>
        <time>2022-02-27T08:51:08.642Z</time>
      </trkpt>
      <trkpt lat="41.94357" lon="25.89203">
        <ele>163.264909</ele>
        <time>2022-02-27T08:51:14.606Z</time>
      </trkpt>
      <trkpt lat="41.94359" lon="25.89191">
        <ele>164.097165</ele>
        <time>2022-02-27T08:51:20.636Z</time>
      </trkpt>
      <trkpt lat="41.94363" lon="25.89179">
        <ele>164.970883</ele>
        <time>2022-02-27T08:51:28.611Z</time>
      </trkpt>
      <trkpt lat="41.94366" lon="25.89166">
        <ele>165.91201</ele>
        <time>2022-02-27T08:51:35.625Z</time>
      </trkpt>
      <trkpt lat="41.94369" lon="25.89155">
        <ele>166.763764</ele>
        <time>2022-02-27T08:51:41.634Z</time>
      </trkpt>
      <trkpt lat="41.94371" lon="25.89141">
        <ele>167.688929</ele>
        <time>2022-02-27T08:51:47.680Z</time>
      </trkpt>
      <trkpt lat="41.94374" lon="25.89129">
        <ele>168.582706</ele>
        <time>2022-02-27T08:51:53.607Z</time>
      </trkpt>
      <trkpt lat="41.94375" lon="25.89115">
        <ele>169.507624</ele>
        <time>2022-02-27T08:51:59.663Z</time>
      </trkpt>
      <trkpt lat="41.94377" lon="25.89102">
        <ele>170.433813</ele>
        <time>2022-02-27T08:52:06.618Z</time>
      </trkpt>
      <trkpt lat="41.94378" lon="25.89089">
        <ele>171.364611</ele>
        <time>2022-02-27T08:52:13.593Z</time>
      </trkpt>
      <trkpt lat="41.94379" lon="25.89076">
        <ele>172.233092</ele>
        <time>2022-02-27T08:52:20.619Z</time>
      </trkpt>
      <trkpt lat="41.94379" lon="25.89063">
        <ele>173.111587</ele>
        <time>2022-02-27T08:52:26.613Z</time>
      </trkpt>
      <trkpt lat="41.94379" lon="25.8905">
        <ele>174.037034</ele>
        <time>2022-02-27T08:52:32.593Z</time>
      </trkpt>
      <trkpt lat="41.94379" lon="25.89037">
        <ele>174.847428</ele>
        <time>2022-02-27T08:52:38.681Z</time>
      </trkpt>
      <trkpt lat="41.94378" lon="25.89025">
        <ele>175.443957</ele>
        <time>2022-02-27T08:52:44.653Z</time>
      </trkpt>
      <trkpt lat="41.94376" lon="25.89013">
        <ele>176.035006</ele>
        <time>2022-02-27T08:52:50.622Z</time>
      </trkpt>
      <trkpt lat="41.94375" lon="25.89">
        <ele>176.62301</ele>
        <time>2022-02-27T08:52:56.608Z</time>
      </trkpt>
      <trkpt lat="41.94373" lon="25.88987">
        <ele>177.238413</ele>
        <time>2022-02-27T08:53:03.636Z</time>
      </trkpt>
      <trkpt lat="41.94372" lon="25.88975">
        <ele>177.815424</ele>
        <time>2022-02-27T08:53:09.607Z</time>
      </trkpt>
      <trkpt lat="41.9437" lon="25.88963">
        <ele>178.435808</ele>
        <time>2022-02-27T08:53:15.617Z</time>
      </trkpt>
      <trkpt lat="41.94368" lon="25.88949">
        <ele>179.095402</ele>
        <time>2022-02-27T08:53:22.621Z</time>
      </trkpt>
      <trkpt lat="41.94366" lon="25.88937">
        <ele>179.682063</ele>
        <time>2022-02-27T08:53:28.626Z</time>
      </trkpt>
      <trkpt lat="41.94364" lon="25.88923">
        <ele>180.337005</ele>
        <time>2022-02-27T08:53:34.622Z</time>
      </trkpt>
      <trkpt lat="41.94363" lon="25.88911">
        <ele>180.911908</ele>
        <time>2022-02-27T08:53:40.606Z</time>
      </trkpt>
      <trkpt lat="41.9436" lon="25.88899">
        <ele>181.490904</ele>
        <time>2022-02-27T08:53:46.622Z</time>
      </trkpt>
      <trkpt lat="41.94359" lon="25.88887">
        <ele>182.102348</ele>
        <time>2022-02-27T08:53:53.629Z</time>
      </trkpt>
      <trkpt lat="41.94357" lon="25.88874">
        <ele>182.722413</ele>
        <time>2022-02-27T08:53:59.641Z</time>
      </trkpt>
      <trkpt lat="41.94355" lon="25.88862">
        <ele>183.310488</ele>
        <time>2022-02-27T08:54:05.636Z</time>
      </trkpt>
      <trkpt lat="41.94353" lon="25.88848">
        <ele>183.979838</ele>
        <time>2022-02-27T08:54:12.627Z</time>
      </trkpt>
      <trkpt lat="41.94351" lon="25.88835">
        <ele>184.573452</ele>
        <time>2022-02-27T08:54:18.610Z</time>
      </trkpt>
      <trkpt lat="41.94349" lon="25.88823">
        <ele>185.169359</ele>
        <time>2022-02-27T08:54:24.613Z</time>
      </trkpt>
      <trkpt lat="41.94348" lon="25.88811">
        <ele>185.74288</ele>
        <time>2022-02-27T08:54:30.607Z</time>
      </trkpt>
      <trkpt lat="41.94346" lon="25.88799">
        <ele>186.310466</ele>
        <time>2022-02-27T08:54:37.636Z</time>
      </trkpt>
      <trkpt lat="41.94344" lon="25.88787">
        <ele>186.698475</ele>
        <time>2022-02-27T08:54:43.631Z</time>
      </trkpt>
      <trkpt lat="41.94341" lon="25.88775">
        <ele>187.101691</ele>
        <time>2022-02-27T08:54:49.617Z</time>
      </trkpt>
      <trkpt lat="41.94339" lon="25.88761">
        <ele>187.543345</ele>
        <time>2022-02-27T08:54:56.605Z</time>
      </trkpt>
      <trkpt lat="41.94337" lon="25.88748">
        <ele>187.972139</ele>
        <time>2022-02-27T08:55:03.606Z</time>
      </trkpt>
      <trkpt lat="41.94335" lon="25.88735">
        <ele>188.410365</ele>
        <time>2022-02-27T08:55:10.634Z</time>
      </trkpt>
      <trkpt lat="41.94333" lon="25.88723">
        <ele>188.805504</ele>
        <time>2022-02-27T08:55:16.620Z</time>
      </trkpt>
      <trkpt lat="41.94331" lon="25.88711">
        <ele>189.19127</ele>
        <time>2022-02-27T08:55:22.623Z</time>
      </trkpt>
      <trkpt lat="41.94329" lon="25.88697">
        <ele>189.650324</ele>
        <time>2022-02-27T08:55:29.624Z</time>
      </trkpt>
      <trkpt lat="41.94327" lon="25.88684">
        <ele>190.070507</ele>
        <time>2022-02-27T08:55:35.621Z</time>
      </trkpt>
      <trkpt lat="41.94325" lon="25.88671">
        <ele>190.487693</ele>
        <time>2022-02-27T08:55:41.607Z</time>
      </trkpt>
      <trkpt lat="41.94323" lon="25.88659">
        <ele>190.887052</ele>
        <time>2022-02-27T08:55:47.619Z</time>
      </trkpt>
      <trkpt lat="41.94321" lon="25.88646">
        <ele>191.313506</ele>
        <time>2022-02-27T08:55:54.615Z</time>
      </trkpt>
      <trkpt lat="41.94319" lon="25.88633">
        <ele>191.726597</ele>
        <time>2022-02-27T08:56:00.629Z</time>
      </trkpt>
      <trkpt lat="41.94317" lon="25.88619">
        <ele>192.178167</ele>
        <time>2022-02-27T08:56:06.613Z</time>
      </trkpt>
      <trkpt lat="41.94315" lon="25.88607">
        <ele>192.584512</ele>
        <time>2022-02-27T08:56:11.663Z</time>
      </trkpt>
      <trkpt lat="41.94312" lon="25.88595">
        <ele>192.980805</ele>
        <time>2022-02-27T08:56:16.632Z</time>
      </trkpt>
      <trkpt lat="41.94311" lon="25.88582">
        <ele>193.393897</ele>
        <time>2022-02-27T08:56:21.594Z</time>
      </trkpt>
      <trkpt lat="41.94308" lon="25.88568">
        <ele>193.856349</ele>
        <time>2022-02-27T08:56:27.634Z</time>
      </trkpt>
      <trkpt lat="41.94304" lon="25.88555">
        <ele>194.203426</ele>
        <time>2022-02-27T08:56:33.609Z</time>
      </trkpt>
      <trkpt lat="41.94301" lon="25.88543">
        <ele>194.504548</ele>
        <time>2022-02-27T08:56:38.610Z</time>
      </trkpt>
      <trkpt lat="41.94299" lon="25.8853">
        <ele>194.824972</ele>
        <time>2022-02-27T08:56:43.593Z</time>
      </trkpt>
      <trkpt lat="41.94295" lon="25.88518">
        <ele>195.128269</ele>
        <time>2022-02-27T08:56:48.647Z</time>
      </trkpt>
      <trkpt lat="41.94292" lon="25.88506">
        <ele>195.427889</ele>
        <time>2022-02-27T08:56:53.617Z</time>
      </trkpt>
      <trkpt lat="41.94289" lon="25.88494">
        <ele>195.72557</ele>
        <time>2022-02-27T08:56:58.609Z</time>
      </trkpt>
      <trkpt lat="41.94286" lon="25.88483">
        <ele>196.011062</ele>
        <time>2022-02-27T08:57:03.632Z</time>
      </trkpt>
      <trkpt lat="41.94283" lon="25.8847">
        <ele>196.330881</ele>
        <time>2022-02-27T08:57:08.598Z</time>
      </trkpt>
      <trkpt lat="41.94279" lon="25.88459">
        <ele>196.630802</ele>
        <time>2022-02-27T08:57:13.623Z</time>
      </trkpt>
      <trkpt lat="41.94276" lon="25.88446">
        <ele>196.937288</ele>
        <time>2022-02-27T08:57:18.603Z</time>
      </trkpt>
      <trkpt lat="41.94272" lon="25.88434">
        <ele>197.257107</ele>
        <time>2022-02-27T08:57:23.634Z</time>
      </trkpt>
      <trkpt lat="41.94268" lon="25.88422">
        <ele>197.55819</ele>
        <time>2022-02-27T08:57:28.596Z</time>
      </trkpt>
      <trkpt lat="41.94265" lon="25.8841">
        <ele>197.854838</ele>
        <time>2022-02-27T08:57:33.619Z</time>
      </trkpt>
      <trkpt lat="41.94261" lon="25.88399">
        <ele>198.14165</ele>
        <time>2022-02-27T08:57:38.646Z</time>
      </trkpt>
      <trkpt lat="41.94257" lon="25.88386">
        <ele>198.470678</ele>
        <time>2022-02-27T08:57:44.617Z</time>
      </trkpt>
      <trkpt lat="41.94254" lon="25.88374">
        <ele>198.77729</ele>
        <time>2022-02-27T08:57:49.619Z</time>
      </trkpt>
      <trkpt lat="41.9425" lon="25.88363">
        <ele>199.071395</ele>
        <time>2022-02-27T08:57:54.603Z</time>
      </trkpt>
      <trkpt lat="41.94247" lon="25.88351">
        <ele>199.36685</ele>
        <time>2022-02-27T08:57:59.609Z</time>
      </trkpt>
      <trkpt lat="41.94244" lon="25.88339">
        <ele>199.660253</ele>
        <time>2022-02-27T08:58:04.620Z</time>
      </trkpt>
      <trkpt lat="41.94241" lon="25.88328">
        <ele>199.782287</ele>
        <time>2022-02-27T08:58:09.602Z</time>
      </trkpt>
      <trkpt lat="41.94238" lon="25.88315">
        <ele>199.912678</ele>
        <time>2022-02-27T08:58:14.600Z</time>
      </trkpt>
      <trkpt lat="41.94235" lon="25.88302">
        <ele>200.03645</ele>
        <time>2022-02-27T08:58:19.667Z</time>
      </trkpt>
      <trkpt lat="41.94232" lon="25.88291">
        <ele>200.153453</ele>
        <time>2022-02-27T08:58:24.600Z</time>
      </trkpt>
      <trkpt lat="41.94229" lon="25.88278">
        <ele>200.280886</ele>
        <time>2022-02-27T08:58:29.642Z</time>
      </trkpt>
      <trkpt lat="41.94227" lon="25.88263">
        <ele>200.420359</ele>
        <time>2022-02-27T08:58:34.619Z</time>
      </trkpt>
      <trkpt lat="41.94225" lon="25.88251">
        <ele>200.545203</ele>
        <time>2022-02-27T08:58:39.595Z</time>
      </trkpt>
      <trkpt lat="41.94223" lon="25.88237">
        <ele>200.673686</ele>
        <time>2022-02-27T08:58:44.633Z</time>
      </trkpt>
      <trkpt lat="41.94222" lon="25.88225">
        <ele>200.798022</ele>
        <time>2022-02-27T08:58:49.659Z</time>
      </trkpt>
      <trkpt lat="41.94221" lon="25.88213">
        <ele>200.913504</ele>
        <time>2022-02-27T08:58:54.632Z</time>
      </trkpt>
      <trkpt lat="41.9422" lon="25.882">
        <ele>201.030205</ele>
        <time>2022-02-27T08:58:59.617Z</time>
      </trkpt>
      <trkpt lat="41.9422" lon="25.88188">
        <ele>201.150578</ele>
        <time>2022-02-27T08:59:04.614Z</time>
      </trkpt>
      <trkpt lat="41.94221" lon="25.88175">
        <ele>201.273849</ele>
        <time>2022-02-27T08:59:09.605Z</time>
      </trkpt>
      <trkpt lat="41.94222" lon="25.88162">
        <ele>201.399703</ele>
        <time>2022-02-27T08:59:14.621Z</time>
      </trkpt>
      <trkpt lat="41.94223" lon="25.88147">
        <ele>201.537964</ele>
        <time>2022-02-27T08:59:20.658Z</time>
      </trkpt>
      <trkpt lat="41.94225" lon="25.88134">
        <ele>201.663247</ele>
        <time>2022-02-27T08:59:25.607Z</time>
      </trkpt>
      <trkpt lat="41.94226" lon="25.88123">
        <ele>201.777946</ele>
        <time>2022-02-27T08:59:30.614Z</time>
      </trkpt>
      <trkpt lat="41.94227" lon="25.8811">
        <ele>201.896943</ele>
        <time>2022-02-27T08:59:35.615Z</time>
      </trkpt>
      <trkpt lat="41.94227" lon="25.88097">
        <ele>202.122426</ele>
        <time>2022-02-27T08:59:40.635Z</time>
      </trkpt>
      <trkpt lat="41.94228" lon="25.88083">
        <ele>202.53958</ele>
        <time>2022-02-27T08:59:45.614Z</time>
      </trkpt>
      <trkpt lat="41.94229" lon="25.8807">
        <ele>202.91428</ele>
        <time>2022-02-27T08:59:50.631Z</time>
      </trkpt>
      <trkpt lat="41.9423" lon="25.88057">
        <ele>203.302528</ele>
        <time>2022-02-27T08:59:55.612Z</time>
      </trkpt>
      <trkpt lat="41.94232" lon="25.88043">
        <ele>203.70029</ele>
        <time>2022-02-27T09:00:00.648Z</time>
      </trkpt>
      <trkpt lat="41.94233" lon="25.8803">
        <ele>204.067427</ele>
        <time>2022-02-27T09:00:05.613Z</time>
      </trkpt>
      <trkpt lat="41.94235" lon="25.88017">
        <ele>204.450127</ele>
        <time>2022-02-27T09:00:10.630Z</time>
      </trkpt>
      <trkpt lat="41.94236" lon="25.88005">
        <ele>204.813827</ele>
        <time>2022-02-27T09:00:15.620Z</time>
      </trkpt>
      <trkpt lat="41.94237" lon="25.87993">
        <ele>205.175002</ele>
        <time>2022-02-27T09:00:20.626Z</time>
      </trkpt>
      <trkpt lat="41.94238" lon="25.8798">
        <ele>205.555465</ele>
        <time>2022-02-27T09:00:25.611Z</time>
      </trkpt>
      <trkpt lat="41.94238" lon="25.87966">
        <ele>205.942237</ele>
        <time>2022-02-27T09:00:30.609Z</time>
      </trkpt>
      <trkpt lat="41.94238" lon="25.87953">
        <ele>206.328595</ele>
        <time>2022-02-27T09:00:35.626Z</time>
      </trkpt>
      <trkpt lat="41.94239" lon="25.8794">
        <ele>206.71519</ele>
        <time>2022-02-27T09:00:40.604Z</time>
      </trkpt>
      <trkpt lat="41.94239" lon="25.87928">
        <ele>207.070295</ele>
        <time>2022-02-27T09:00:45.633Z</time>
      </trkpt>
      <trkpt lat="41.94239" lon="25.87915">
        <ele>207.442134</ele>
        <time>2022-02-27T09:00:50.613Z</time>
      </trkpt>
      <trkpt lat="41.9424" lon="25.87903">
        <ele>207.797518</ele>
        <time>2022-02-27T09:00:55.618Z</time>
      </trkpt>
      <trkpt lat="41.94241" lon="25.8789">
        <ele>208.153994</ele>
        <time>2022-02-27T09:01:00.612Z</time>
      </trkpt>
      <trkpt lat="41.94242" lon="25.87878">
        <ele>208.523858</ele>
        <time>2022-02-27T09:01:05.637Z</time>
      </trkpt>
      <trkpt lat="41.94243" lon="25.87865">
        <ele>208.89149</ele>
        <time>2022-02-27T09:01:10.610Z</time>
      </trkpt>
      <trkpt lat="41.94243" lon="25.87852">
        <ele>209.232537</ele>
        <time>2022-02-27T09:01:15.696Z</time>
      </trkpt>
      <trkpt lat="41.94244" lon="25.87839">
        <ele>209.575828</ele>
        <time>2022-02-27T09:01:20.611Z</time>
      </trkpt>
      <trkpt lat="41.94245" lon="25.87826">
        <ele>209.917336</ele>
        <time>2022-02-27T09:01:25.641Z</time>
      </trkpt>
      <trkpt lat="41.94246" lon="25.87814">
        <ele>210.249981</ele>
        <time>2022-02-27T09:01:30.619Z</time>
      </trkpt>
      <trkpt lat="41.94247" lon="25.87802">
        <ele>210.57032</ele>
        <time>2022-02-27T09:01:35.665Z</time>
      </trkpt>
      <trkpt lat="41.94248" lon="25.87789">
        <ele>210.897543</ele>
        <time>2022-02-27T09:01:40.614Z</time>
      </trkpt>
      <trkpt lat="41.9425" lon="25.87777">
        <ele>211.229798</ele>
        <time>2022-02-27T09:01:45.625Z</time>
      </trkpt>
      <trkpt lat="41.94251" lon="25.87763">
        <ele>211.591499</ele>
        <time>2022-02-27T09:01:50.616Z</time>
      </trkpt>
      <trkpt lat="41.94252" lon="25.8775">
        <ele>211.92852</ele>
        <time>2022-02-27T09:01:55.625Z</time>
      </trkpt>
      <trkpt lat="41.94253" lon="25.87736">
        <ele>212.288577</ele>
        <time>2022-02-27T09:02:00.620Z</time>
      </trkpt>
      <trkpt lat="41.94254" lon="25.87722">
        <ele>212.655837</ele>
        <time>2022-02-27T09:02:05.646Z</time>
      </trkpt>
      <trkpt lat="41.94254" lon="25.87708">
        <ele>213.032891</ele>
        <time>2022-02-27T09:02:10.650Z</time>
      </trkpt>
      <trkpt lat="41.94255" lon="25.87693">
        <ele>213.425291</ele>
        <time>2022-02-27T09:02:15.631Z</time>
      </trkpt>
      <trkpt lat="41.94255" lon="25.87678">
        <ele>213.808201</ele>
        <time>2022-02-27T09:02:20.622Z</time>
      </trkpt>
      <trkpt lat="41.94256" lon="25.87666">
        <ele>214.141291</ele>
        <time>2022-02-27T09:02:24.627Z</time>
      </trkpt>
      <trkpt lat="41.94256" lon="25.87653">
        <ele>214.470873</ele>
        <time>2022-02-27T09:02:28.624Z</time>
      </trkpt>
      <trkpt lat="41.94256" lon="25.87641">
        <ele>214.797896</ele>
        <time>2022-02-27T09:02:32.629Z</time>
      </trkpt>
      <trkpt lat="41.94256" lon="25.87628">
        <ele>215.11992</ele>
        <time>2022-02-27T09:02:36.627Z</time>
      </trkpt>
      <trkpt lat="41.94255" lon="25.87616">
        <ele>215.428787</ele>
        <time>2022-02-27T09:02:40.619Z</time>
      </trkpt>
      <trkpt lat="41.94256" lon="25.87603">
        <ele>215.685151</ele>
        <time>2022-02-27T09:02:44.628Z</time>
      </trkpt>
      <trkpt lat="41.94254" lon="25.87589">
        <ele>215.99484</ele>
        <time>2022-02-27T09:02:49.625Z</time>
      </trkpt>
      <trkpt lat="41.94254" lon="25.87574">
        <ele>216.303718</ele>
        <time>2022-02-27T09:02:54.620Z</time>
      </trkpt>
      <trkpt lat="41.94254" lon="25.87562">
        <ele>216.564651</ele>
        <time>2022-02-27T09:02:58.625Z</time>
      </trkpt>
      <trkpt lat="41.94253" lon="25.87547">
        <ele>216.873852</ele>
        <time>2022-02-27T09:03:03.629Z</time>
      </trkpt>
      <trkpt lat="41.94252" lon="25.87533">
        <ele>217.169659</ele>
        <time>2022-02-27T09:03:08.614Z</time>
      </trkpt>
      <trkpt lat="41.94252" lon="25.87521">
        <ele>217.426007</ele>
        <time>2022-02-27T09:03:12.654Z</time>
      </trkpt>
      <trkpt lat="41.94251" lon="25.87508">
        <ele>217.705787</ele>
        <time>2022-02-27T09:03:17.618Z</time>
      </trkpt>
      <trkpt lat="41.94249" lon="25.87493">
        <ele>218.012343</ele>
        <time>2022-02-27T09:03:22.637Z</time>
      </trkpt>
      <trkpt lat="41.94248" lon="25.87481">
        <ele>218.270568</ele>
        <time>2022-02-27T09:03:26.617Z</time>
      </trkpt>
      <trkpt lat="41.94247" lon="25.87468">
        <ele>218.546183</ele>
        <time>2022-02-27T09:03:30.627Z</time>
      </trkpt>
      <trkpt lat="41.94246" lon="25.87455">
        <ele>218.818708</ele>
        <time>2022-02-27T09:03:34.627Z</time>
      </trkpt>
      <trkpt lat="41.94245" lon="25.87441">
        <ele>219.117607</ele>
        <time>2022-02-27T09:03:39.616Z</time>
      </trkpt>
      <trkpt lat="41.94244" lon="25.87426">
        <ele>219.425436</ele>
        <time>2022-02-27T09:03:44.616Z</time>
      </trkpt>
      <trkpt lat="41.94242" lon="25.87412">
        <ele>219.727213</ele>
        <time>2022-02-27T09:03:49.618Z</time>
      </trkpt>
      <trkpt lat="41.94241" lon="25.87399">
        <ele>220.006159</ele>
        <time>2022-02-27T09:03:54.658Z</time>
      </trkpt>
      <trkpt lat="41.94239" lon="25.87385">
        <ele>220.299876</ele>
        <time>2022-02-27T09:03:59.616Z</time>
      </trkpt>
      <trkpt lat="41.94238" lon="25.87371">
        <ele>220.558018</ele>
        <time>2022-02-27T09:04:04.590Z</time>
      </trkpt>
      <trkpt lat="41.94236" lon="25.87357">
        <ele>220.802342</ele>
        <time>2022-02-27T09:04:09.634Z</time>
      </trkpt>
      <trkpt lat="41.94234" lon="25.87344">
        <ele>221.037041</ele>
        <time>2022-02-27T09:04:14.631Z</time>
      </trkpt>
      <trkpt lat="41.94232" lon="25.8733">
        <ele>221.2806</ele>
        <time>2022-02-27T09:04:19.613Z</time>
      </trkpt>
      <trkpt lat="41.94229" lon="25.87316">
        <ele>221.534233</ele>
        <time>2022-02-27T09:04:24.628Z</time>
      </trkpt>
      <trkpt lat="41.94226" lon="25.87302">
        <ele>221.775477</ele>
        <time>2022-02-27T09:04:29.638Z</time>
      </trkpt>
      <trkpt lat="41.94224" lon="25.8729">
        <ele>221.989518</ele>
        <time>2022-02-27T09:04:33.609Z</time>
      </trkpt>
      <trkpt lat="41.94222" lon="25.87277">
        <ele>222.212002</ele>
        <time>2022-02-27T09:04:37.604Z</time>
      </trkpt>
      <trkpt lat="41.94219" lon="25.87264">
        <ele>222.443228</ele>
        <time>2022-02-27T09:04:41.619Z</time>
      </trkpt>
      <trkpt lat="41.94217" lon="25.8725">
        <ele>222.688871</ele>
        <time>2022-02-27T09:04:45.613Z</time>
      </trkpt>
      <trkpt lat="41.94214" lon="25.87237">
        <ele>222.92846</ele>
        <time>2022-02-27T09:04:49.645Z</time>
      </trkpt>
      <trkpt lat="41.94211" lon="25.87222">
        <ele>223.185208</ele>
        <time>2022-02-27T09:04:53.616Z</time>
      </trkpt>
      <trkpt lat="41.94209" lon="25.8721">
        <ele>223.399249</ele>
        <time>2022-02-27T09:04:56.609Z</time>
      </trkpt>
      <trkpt lat="41.94206" lon="25.87197">
        <ele>223.62606</ele>
        <time>2022-02-27T09:04:59.628Z</time>
      </trkpt>
      <trkpt lat="41.94204" lon="25.87185">
        <ele>223.855734</ele>
        <time>2022-02-27T09:05:02.648Z</time>
      </trkpt>
      <trkpt lat="41.94201" lon="25.87172">
        <ele>224.079754</ele>
        <time>2022-02-27T09:05:05.626Z</time>
      </trkpt>
      <trkpt lat="41.94199" lon="25.87159">
        <ele>224.304908</ele>
        <time>2022-02-27T09:05:08.625Z</time>
      </trkpt>
      <trkpt lat="41.94196" lon="25.87147">
        <ele>224.527822</ele>
        <time>2022-02-27T09:05:11.608Z</time>
      </trkpt>
      <trkpt lat="41.94194" lon="25.87135">
        <ele>224.966957</ele>
        <time>2022-02-27T09:05:14.626Z</time>
      </trkpt>
      <trkpt lat="41.94191" lon="25.87123">
        <ele>225.450905</ele>
        <time>2022-02-27T09:05:17.630Z</time>
      </trkpt>
      <trkpt lat="41.94189" lon="25.87111">
        <ele>225.92096</ele>
        <time>2022-02-27T09:05:20.612Z</time>
      </trkpt>
      <trkpt lat="41.94186" lon="25.87097">
        <ele>226.46752</ele>
        <time>2022-02-27T09:05:24.625Z</time>
      </trkpt>
      <trkpt lat="41.94183" lon="25.87086">
        <ele>226.930167</ele>
        <time>2022-02-27T09:05:28.620Z</time>
      </trkpt>
      <trkpt lat="41.94181" lon="25.87072">
        <ele>227.462286</ele>
        <time>2022-02-27T09:05:33.616Z</time>
      </trkpt>
      <trkpt lat="41.94178" lon="25.8706">
        <ele>227.961019</ele>
        <time>2022-02-27T09:05:38.609Z</time>
      </trkpt>
      <trkpt lat="41.94175" lon="25.87046">
        <ele>228.504643</ele>
        <time>2022-02-27T09:05:44.626Z</time>
      </trkpt>
      <trkpt lat="41.94172" lon="25.87032">
        <ele>229.078443</ele>
        <time>2022-02-27T09:05:50.614Z</time>
      </trkpt>
      <trkpt lat="41.94169" lon="25.87019">
        <ele>229.617174</ele>
        <time>2022-02-27T09:05:56.639Z</time>
      </trkpt>
      <trkpt lat="41.94165" lon="25.87006">
        <ele>230.14862</ele>
        <time>2022-02-27T09:06:02.616Z</time>
      </trkpt>
      <trkpt lat="41.94162" lon="25.86993">
        <ele>230.680067</ele>
        <time>2022-02-27T09:06:08.652Z</time>
      </trkpt>
      <trkpt lat="41.94158" lon="25.8698">
        <ele>231.195887</ele>
        <time>2022-02-27T09:06:14.642Z</time>
      </trkpt>
      <trkpt lat="41.94154" lon="25.86968">
        <ele>231.706796</ele>
        <time>2022-02-27T09:06:20.609Z</time>
      </trkpt>
      <trkpt lat="41.9415" lon="25.86955">
        <ele>232.244362</ele>
        <time>2022-02-27T09:06:26.608Z</time>
      </trkpt>
      <trkpt lat="41.94145" lon="25.86943">
        <ele>232.777969</ele>
        <time>2022-02-27T09:06:32.630Z</time>
      </trkpt>
      <trkpt lat="41.94141" lon="25.86932">
        <ele>233.259925</ele>
        <time>2022-02-27T09:06:37.624Z</time>
      </trkpt>
      <trkpt lat="41.94137" lon="25.8692">
        <ele>233.774001</ele>
        <time>2022-02-27T09:06:43.628Z</time>
      </trkpt>
      <trkpt lat="41.94132" lon="25.86908">
        <ele>234.025198</ele>
        <time>2022-02-27T09:06:49.604Z</time>
      </trkpt>
      <trkpt lat="41.94128" lon="25.86896">
        <ele>234.233418</ele>
        <time>2022-02-27T09:06:55.631Z</time>
      </trkpt>
      <trkpt lat="41.94124" lon="25.86885">
        <ele>234.424798</ele>
        <time>2022-02-27T09:07:01.621Z</time>
      </trkpt>
      <trkpt lat="41.94119" lon="25.86872">
        <ele>234.6508</ele>
        <time>2022-02-27T09:07:07.611Z</time>
      </trkpt>
      <trkpt lat="41.94115" lon="25.8686">
        <ele>234.861135</ele>
        <time>2022-02-27T09:07:14.629Z</time>
      </trkpt>
      <trkpt lat="41.94111" lon="25.86848">
        <ele>235.06187</ele>
        <time>2022-02-27T09:07:20.681Z</time>
      </trkpt>
      <trkpt lat="41.94106" lon="25.86836">
        <ele>235.276781</ele>
        <time>2022-02-27T09:07:26.627Z</time>
      </trkpt>
      <trkpt lat="41.94102" lon="25.86824">
        <ele>235.472368</ele>
        <time>2022-02-27T09:07:31.667Z</time>
      </trkpt>
      <trkpt lat="41.94098" lon="25.86813">
        <ele>235.670772</ele>
        <time>2022-02-27T09:07:36.608Z</time>
      </trkpt>
      <trkpt lat="41.94094" lon="25.86801">
        <ele>235.882545</ele>
        <time>2022-02-27T09:07:41.636Z</time>
      </trkpt>
      <trkpt lat="41.94091" lon="25.86788">
        <ele>236.092641</ele>
        <time>2022-02-27T09:07:46.609Z</time>
      </trkpt>
      <trkpt lat="41.94088" lon="25.86774">
        <ele>236.319129</ele>
        <time>2022-02-27T09:07:52.632Z</time>
      </trkpt>
      <trkpt lat="41.94085" lon="25.86762">
        <ele>236.513293</ele>
        <time>2022-02-27T09:07:57.610Z</time>
      </trkpt>
      <trkpt lat="41.94083" lon="25.8675">
        <ele>236.713033</ele>
        <time>2022-02-27T09:08:02.632Z</time>
      </trkpt>
      <trkpt lat="41.94081" lon="25.86736">
        <ele>236.938142</ele>
        <time>2022-02-27T09:08:07.617Z</time>
      </trkpt>
      <trkpt lat="41.94079" lon="25.86721">
        <ele>237.176568</ele>
        <time>2022-02-27T09:08:12.629Z</time>
      </trkpt>
      <trkpt lat="41.94078" lon="25.86708">
        <ele>237.379598</ele>
        <time>2022-02-27T09:08:16.617Z</time>
      </trkpt>
      <trkpt lat="41.94077" lon="25.86695">
        <ele>237.585126</ele>
        <time>2022-02-27T09:08:20.632Z</time>
      </trkpt>
      <trkpt lat="41.94077" lon="25.8668">
        <ele>237.532211</ele>
        <time>2022-02-27T09:08:24.609Z</time>
      </trkpt>
      <trkpt lat="41.94076" lon="25.86666">
        <ele>237.413843</ele>
        <time>2022-02-27T09:08:28.623Z</time>
      </trkpt>
      <trkpt lat="41.94076" lon="25.86654">
        <ele>237.312964</ele>
        <time>2022-02-27T09:08:31.608Z</time>
      </trkpt>
      <trkpt lat="41.94077" lon="25.8664">
        <ele>237.194596</ele>
        <time>2022-02-27T09:08:34.609Z</time>
      </trkpt>
      <trkpt lat="41.94077" lon="25.86624">
        <ele>237.066316</ele>
        <time>2022-02-27T09:08:37.618Z</time>
      </trkpt>
      <trkpt lat="41.94079" lon="25.86607">
        <ele>236.921212</ele>
        <time>2022-02-27T09:08:40.620Z</time>
      </trkpt>
      <trkpt lat="41.94081" lon="25.86594">
        <ele>236.814101</ele>
        <time>2022-02-27T09:08:42.612Z</time>
      </trkpt>
      <trkpt lat="41.94083" lon="25.8658">
        <ele>236.698216</ele>
        <time>2022-02-27T09:08:44.613Z</time>
      </trkpt>
      <trkpt lat="41.94086" lon="25.86566">
        <ele>236.575366</ele>
        <time>2022-02-27T09:08:46.616Z</time>
      </trkpt>
      <trkpt lat="41.94089" lon="25.86551">
        <ele>236.442223</ele>
        <time>2022-02-27T09:08:48.621Z</time>
      </trkpt>
      <trkpt lat="41.94094" lon="25.86534">
        <ele>236.294979</ele>
        <time>2022-02-27T09:08:50.627Z</time>
      </trkpt>
      <trkpt lat="41.941" lon="25.86517">
        <ele>236.139915</ele>
        <time>2022-02-27T09:08:52.604Z</time>
      </trkpt>
      <trkpt lat="41.94107" lon="25.865">
        <ele>235.979892</ele>
        <time>2022-02-27T09:08:54.615Z</time>
      </trkpt>
      <trkpt lat="41.94113" lon="25.86482">
        <ele>235.816923</ele>
        <time>2022-02-27T09:08:56.633Z</time>
      </trkpt>
      <trkpt lat="41.94121" lon="25.86464">
        <ele>235.64502</ele>
        <time>2022-02-27T09:08:58.640Z</time>
      </trkpt>
      <trkpt lat="41.94128" lon="25.86445">
        <ele>235.052734</ele>
        <time>2022-02-27T09:09:00.660Z</time>
      </trkpt>
      <trkpt lat="41.94135" lon="25.86426">
        <ele>234.404238</ele>
        <time>2022-02-27T09:09:02.603Z</time>
      </trkpt>
      <trkpt lat="41.94143" lon="25.86406">
        <ele>233.741349</ele>
        <time>2022-02-27T09:09:04.609Z</time>
      </trkpt>
      <trkpt lat="41.9415" lon="25.86386">
        <ele>233.062265</ele>
        <time>2022-02-27T09:09:06.610Z</time>
      </trkpt>
      <trkpt lat="41.94157" lon="25.86366">
        <ele>232.389505</ele>
        <time>2022-02-27T09:09:08.619Z</time>
      </trkpt>
      <trkpt lat="41.94165" lon="25.86346">
        <ele>231.72127</ele>
        <time>2022-02-27T09:09:10.616Z</time>
      </trkpt>
      <trkpt lat="41.94172" lon="25.86327">
        <ele>231.071921</ele>
        <time>2022-02-27T09:09:12.605Z</time>
      </trkpt>
      <trkpt lat="41.94179" lon="25.86308">
        <ele>230.437819</ele>
        <time>2022-02-27T09:09:14.617Z</time>
      </trkpt>
      <trkpt lat="41.94186" lon="25.8629">
        <ele>229.808742</ele>
        <time>2022-02-27T09:09:16.626Z</time>
      </trkpt>
      <trkpt lat="41.94193" lon="25.86272">
        <ele>229.213071</ele>
        <time>2022-02-27T09:09:18.634Z</time>
      </trkpt>
      <trkpt lat="41.942" lon="25.86256">
        <ele>228.660208</ele>
        <time>2022-02-27T09:09:20.610Z</time>
      </trkpt>
      <trkpt lat="41.94206" lon="25.86241">
        <ele>228.448562</ele>
        <time>2022-02-27T09:09:22.647Z</time>
      </trkpt>
      <trkpt lat="41.94213" lon="25.86227">
        <ele>228.648334</ele>
        <time>2022-02-27T09:09:24.621Z</time>
      </trkpt>
      <trkpt lat="41.9422" lon="25.86215">
        <ele>228.839711</ele>
        <time>2022-02-27T09:09:26.615Z</time>
      </trkpt>
      <trkpt lat="41.94227" lon="25.86204">
        <ele>229.01563</ele>
        <time>2022-02-27T09:09:28.664Z</time>
      </trkpt>
      <trkpt lat="41.94233" lon="25.86195">
        <ele>229.173306</ele>
        <time>2022-02-27T09:09:30.608Z</time>
      </trkpt>
      <trkpt lat="41.94241" lon="25.86183">
        <ele>229.372377</ele>
        <time>2022-02-27T09:09:33.613Z</time>
      </trkpt>
      <trkpt lat="41.94248" lon="25.86172">
        <ele>229.558781</ele>
        <time>2022-02-27T09:09:36.622Z</time>
      </trkpt>
      <trkpt lat="41.94256" lon="25.86163">
        <ele>229.724333</ele>
        <time>2022-02-27T09:09:39.651Z</time>
      </trkpt>
      <trkpt lat="41.94263" lon="25.86154">
        <ele>229.885618</ele>
        <time>2022-02-27T09:09:42.613Z</time>
      </trkpt>
      <trkpt lat="41.9427" lon="25.86146">
        <ele>230.041897</ele>
        <time>2022-02-27T09:09:45.622Z</time>
      </trkpt>
      <trkpt lat="41.94278" lon="25.86139">
        <ele>230.206941</ele>
        <time>2022-02-27T09:09:48.618Z</time>
      </trkpt>
      <trkpt lat="41.94286" lon="25.86132">
        <ele>230.368431</ele>
        <time>2022-02-27T09:09:51.629Z</time>
      </trkpt>
      <trkpt lat="41.94294" lon="25.86125">
        <ele>230.521589</ele>
        <time>2022-02-27T09:09:54.645Z</time>
      </trkpt>
      <trkpt lat="41.94304" lon="25.86117">
        <ele>230.710765</ele>
        <time>2022-02-27T09:09:58.606Z</time>
      </trkpt>
      <trkpt lat="41.94314" lon="25.8611">
        <ele>230.903747</ele>
        <time>2022-02-27T09:10:02.608Z</time>
      </trkpt>
      <trkpt lat="41.94324" lon="25.86103">
        <ele>231.08856</ele>
        <time>2022-02-27T09:10:06.616Z</time>
      </trkpt>
      <trkpt lat="41.94334" lon="25.86096">
        <ele>231.277208</ele>
        <time>2022-02-27T09:10:10.621Z</time>
      </trkpt>
      <trkpt lat="41.94343" lon="25.8609">
        <ele>231.50203</ele>
        <time>2022-02-27T09:10:14.640Z</time>
      </trkpt>
      <trkpt lat="41.94352" lon="25.86083">
        <ele>231.774234</ele>
        <time>2022-02-27T09:10:18.652Z</time>
      </trkpt>
      <trkpt lat="41.94362" lon="25.86076">
        <ele>232.052992</ele>
        <time>2022-02-27T09:10:22.618Z</time>
      </trkpt>
      <trkpt lat="41.94372" lon="25.8607">
        <ele>232.322271</ele>
        <time>2022-02-27T09:10:26.621Z</time>
      </trkpt>
      <trkpt lat="41.94381" lon="25.86064">
        <ele>232.595392</ele>
        <time>2022-02-27T09:10:30.629Z</time>
      </trkpt>
      <trkpt lat="41.94389" lon="25.86059">
        <ele>232.834972</ele>
        <time>2022-02-27T09:10:34.619Z</time>
      </trkpt>
      <trkpt lat="41.94399" lon="25.86052">
        <ele>233.11373</ele>
        <time>2022-02-27T09:10:39.638Z</time>
      </trkpt>
      <trkpt lat="41.94409" lon="25.86046">
        <ele>233.3986</ele>
        <time>2022-02-27T09:10:44.624Z</time>
      </trkpt>
      <trkpt lat="41.94419" lon="25.8604">
        <ele>233.675688</ele>
        <time>2022-02-27T09:10:49.618Z</time>
      </trkpt>
      <trkpt lat="41.94428" lon="25.86034">
        <ele>233.942515</ele>
        <time>2022-02-27T09:10:54.626Z</time>
      </trkpt>
      <trkpt lat="41.94438" lon="25.86028">
        <ele>234.215636</ele>
        <time>2022-02-27T09:10:59.630Z</time>
      </trkpt>
      <trkpt lat="41.94447" lon="25.86023">
        <ele>234.48012</ele>
        <time>2022-02-27T09:11:04.614Z</time>
      </trkpt>
      <trkpt lat="41.94457" lon="25.86015">
        <ele>234.758918</ele>
        <time>2022-02-27T09:11:09.613Z</time>
      </trkpt>
      <trkpt lat="41.94466" lon="25.86009">
        <ele>235.020398</ele>
        <time>2022-02-27T09:11:14.628Z</time>
      </trkpt>
      <trkpt lat="41.94475" lon="25.86002">
        <ele>235.31227</ele>
        <time>2022-02-27T09:11:19.659Z</time>
      </trkpt>
      <trkpt lat="41.94484" lon="25.85994">
        <ele>235.570435</ele>
        <time>2022-02-27T09:11:23.618Z</time>
      </trkpt>
      <trkpt lat="41.94493" lon="25.85986">
        <ele>235.846764</ele>
        <time>2022-02-27T09:11:27.610Z</time>
      </trkpt>
      <trkpt lat="41.945" lon="25.85978">
        <ele>236.020909</ele>
        <time>2022-02-27T09:11:30.621Z</time>
      </trkpt>
      <trkpt lat="41.94508" lon="25.85969">
        <ele>236.084166</ele>
        <time>2022-02-27T09:11:33.616Z</time>
      </trkpt>
      <trkpt lat="41.94516" lon="25.85958">
        <ele>236.153365</ele>
        <time>2022-02-27T09:11:36.609Z</time>
      </trkpt>
      <trkpt lat="41.94523" lon="25.8595">
        <ele>236.206738</ele>
        <time>2022-02-27T09:11:38.616Z</time>
      </trkpt>
      <trkpt lat="41.94532" lon="25.85936">
        <ele>236.289682</ele>
        <time>2022-02-27T09:11:41.625Z</time>
      </trkpt>
      <trkpt lat="41.9454" lon="25.85924">
        <ele>236.35799</ele>
        <time>2022-02-27T09:11:43.630Z</time>
      </trkpt>
      <trkpt lat="41.94547" lon="25.8591">
        <ele>236.434386</ele>
        <time>2022-02-27T09:11:45.623Z</time>
      </trkpt>
      <trkpt lat="41.94555" lon="25.85894">
        <ele>236.519522</ele>
        <time>2022-02-27T09:11:47.605Z</time>
      </trkpt>
      <trkpt lat="41.94563" lon="25.85876">
        <ele>236.611928</ele>
        <time>2022-02-27T09:11:49.622Z</time>
      </trkpt>
      <trkpt lat="41.94571" lon="25.85857">
        <ele>236.709143</ele>
        <time>2022-02-27T09:11:51.632Z</time>
      </trkpt>
      <trkpt lat="41.94578" lon="25.85836">
        <ele>236.812029</ele>
        <time>2022-02-27T09:11:53.630Z</time>
      </trkpt>
      <trkpt lat="41.94582" lon="25.85825">
        <ele>236.865653</ele>
        <time>2022-02-27T09:11:54.646Z</time>
      </trkpt>
      <trkpt lat="41.94585" lon="25.85813">
        <ele>236.920268</ele>
        <time>2022-02-27T09:11:55.629Z</time>
      </trkpt>
      <trkpt lat="41.94589" lon="25.85801">
        <ele>236.976719</ele>
        <time>2022-02-27T09:11:56.608Z</time>
      </trkpt>
      <trkpt lat="41.94592" lon="25.85789">
        <ele>237.03362</ele>
        <time>2022-02-27T09:11:57.639Z</time>
      </trkpt>
      <trkpt lat="41.94595" lon="25.85776">
        <ele>236.915588</ele>
        <time>2022-02-27T09:11:58.625Z</time>
      </trkpt>
      <trkpt lat="41.94597" lon="25.85763">
        <ele>236.486151</ele>
        <time>2022-02-27T09:11:59.650Z</time>
      </trkpt>
      <trkpt lat="41.946" lon="25.8575">
        <ele>236.050591</ele>
        <time>2022-02-27T09:12:00.628Z</time>
      </trkpt>
      <trkpt lat="41.94602" lon="25.85737">
        <ele>235.615954</ele>
        <time>2022-02-27T09:12:01.653Z</time>
      </trkpt>
      <trkpt lat="41.94604" lon="25.85722">
        <ele>235.162833</ele>
        <time>2022-02-27T09:12:02.621Z</time>
      </trkpt>
      <trkpt lat="41.94606" lon="25.85709">
        <ele>234.715954</ele>
        <time>2022-02-27T09:12:03.603Z</time>
      </trkpt>
      <trkpt lat="41.94607" lon="25.85694">
        <ele>234.25971</ele>
        <time>2022-02-27T09:12:04.627Z</time>
      </trkpt>
      <trkpt lat="41.94609" lon="25.8568">
        <ele>233.806018</ele>
        <time>2022-02-27T09:12:05.610Z</time>
      </trkpt>
      <trkpt lat="41.9461" lon="25.85666">
        <ele>233.346579</ele>
        <time>2022-02-27T09:12:06.632Z</time>
      </trkpt>
      <trkpt lat="41.94611" lon="25.85651">
        <ele>232.890283</ele>
        <time>2022-02-27T09:12:07.607Z</time>
      </trkpt>
      <trkpt lat="41.94613" lon="25.85637">
        <ele>232.418264</ele>
        <time>2022-02-27T09:12:08.631Z</time>
      </trkpt>
      <trkpt lat="41.94614" lon="25.85622">
        <ele>231.95617</ele>
        <time>2022-02-27T09:12:09.619Z</time>
      </trkpt>
      <trkpt lat="41.94615" lon="25.85608">
        <ele>231.489916</ele>
        <time>2022-02-27T09:12:10.645Z</time>
      </trkpt>
      <trkpt lat="41.94616" lon="25.85594">
        <ele>231.047995</ele>
        <time>2022-02-27T09:12:11.630Z</time>
      </trkpt>
      <trkpt lat="41.94617" lon="25.8558">
        <ele>230.605255</ele>
        <time>2022-02-27T09:12:12.608Z</time>
      </trkpt>
      <trkpt lat="41.94618" lon="25.85566">
        <ele>230.16649</ele>
        <time>2022-02-27T09:12:13.607Z</time>
      </trkpt>
      <trkpt lat="41.94619" lon="25.85553">
        <ele>229.74702</ele>
        <time>2022-02-27T09:12:14.618Z</time>
      </trkpt>
      <trkpt lat="41.9462" lon="25.8554">
        <ele>229.375089</ele>
        <time>2022-02-27T09:12:15.623Z</time>
      </trkpt>
      <trkpt lat="41.94621" lon="25.85528">
        <ele>229.162384</ele>
        <time>2022-02-27T09:12:16.620Z</time>
      </trkpt>
      <trkpt lat="41.94621" lon="25.85515">
        <ele>228.951554</ele>
        <time>2022-02-27T09:12:17.608Z</time>
      </trkpt>
      <trkpt lat="41.94623" lon="25.85492">
        <ele>228.554853</ele>
        <time>2022-02-27T09:12:19.637Z</time>
      </trkpt>
      <trkpt lat="41.94624" lon="25.8547">
        <ele>228.182561</ele>
        <time>2022-02-27T09:12:21.656Z</time>
      </trkpt>
      <trkpt lat="41.94626" lon="25.85448">
        <ele>227.816457</ele>
        <time>2022-02-27T09:12:23.630Z</time>
      </trkpt>
      <trkpt lat="41.94627" lon="25.85428">
        <ele>227.460691</ele>
        <time>2022-02-27T09:12:25.616Z</time>
      </trkpt>
      <trkpt lat="41.94628" lon="25.85407">
        <ele>227.118826</ele>
        <time>2022-02-27T09:12:27.615Z</time>
      </trkpt>
      <trkpt lat="41.9463" lon="25.85388">
        <ele>226.790479</ele>
        <time>2022-02-27T09:12:29.621Z</time>
      </trkpt>
      <trkpt lat="41.9463" lon="25.8537">
        <ele>226.481241</ele>
        <time>2022-02-27T09:12:31.627Z</time>
      </trkpt>
      <trkpt lat="41.94631" lon="25.85352">
        <ele>226.183843</ele>
        <time>2022-02-27T09:12:33.624Z</time>
      </trkpt>
      <trkpt lat="41.94632" lon="25.85336">
        <ele>225.900268</ele>
        <time>2022-02-27T09:12:35.606Z</time>
      </trkpt>
      <trkpt lat="41.94633" lon="25.8532">
        <ele>225.626971</ele>
        <time>2022-02-27T09:12:37.664Z</time>
      </trkpt>
      <trkpt lat="41.94633" lon="25.85304">
        <ele>225.35378</ele>
        <time>2022-02-27T09:12:39.617Z</time>
      </trkpt>
      <trkpt lat="41.94634" lon="25.85288">
        <ele>225.357491</ele>
        <time>2022-02-27T09:12:41.620Z</time>
      </trkpt>
      <trkpt lat="41.94634" lon="25.85272">
        <ele>225.410943</ele>
        <time>2022-02-27T09:12:43.597Z</time>
      </trkpt>
      <trkpt lat="41.94635" lon="25.85257">
        <ele>225.462351</ele>
        <time>2022-02-27T09:12:45.620Z</time>
      </trkpt>
      <trkpt lat="41.94635" lon="25.85242">
        <ele>225.512393</ele>
        <time>2022-02-27T09:12:47.628Z</time>
      </trkpt>
      <trkpt lat="41.94635" lon="25.85228">
        <ele>225.559383</ele>
        <time>2022-02-27T09:12:49.634Z</time>
      </trkpt>
      <trkpt lat="41.94636" lon="25.85215">
        <ele>225.604684</ele>
        <time>2022-02-27T09:12:51.629Z</time>
      </trkpt>
      <trkpt lat="41.94635" lon="25.85201">
        <ele>225.650316</ele>
        <time>2022-02-27T09:12:53.621Z</time>
      </trkpt>
      <trkpt lat="41.94636" lon="25.85189">
        <ele>225.692576</ele>
        <time>2022-02-27T09:12:55.626Z</time>
      </trkpt>
      <trkpt lat="41.94636" lon="25.85171">
        <ele>225.751403</ele>
        <time>2022-02-27T09:12:58.653Z</time>
      </trkpt>
      <trkpt lat="41.94636" lon="25.85156">
        <ele>225.802443</ele>
        <time>2022-02-27T09:13:01.610Z</time>
      </trkpt>
      <trkpt lat="41.94636" lon="25.8514">
        <ele>225.858558</ele>
        <time>2022-02-27T09:13:04.653Z</time>
      </trkpt>
      <trkpt lat="41.94636" lon="25.85123">
        <ele>225.912976</ele>
        <time>2022-02-27T09:13:07.601Z</time>
      </trkpt>
      <trkpt lat="41.94636" lon="25.8511">
        <ele>225.959281</ele>
        <time>2022-02-27T09:13:10.646Z</time>
      </trkpt>
      <trkpt lat="41.94637" lon="25.85093">
        <ele>226.016081</ele>
        <time>2022-02-27T09:13:13.611Z</time>
      </trkpt>
      <trkpt lat="41.94637" lon="25.85076">
        <ele>226.072235</ele>
        <time>2022-02-27T09:13:16.656Z</time>
      </trkpt>
      <trkpt lat="41.94637" lon="25.85059">
        <ele>226.141797</ele>
        <time>2022-02-27T09:13:19.604Z</time>
      </trkpt>
      <trkpt lat="41.94637" lon="25.85046">
        <ele>226.321432</ele>
        <time>2022-02-27T09:13:21.616Z</time>
      </trkpt>
      <trkpt lat="41.94637" lon="25.85029">
        <ele>226.578965</ele>
        <time>2022-02-27T09:13:24.631Z</time>
      </trkpt>
      <trkpt lat="41.94637" lon="25.85017">
        <ele>226.758512</ele>
        <time>2022-02-27T09:13:26.626Z</time>
      </trkpt>
      <trkpt lat="41.94637" lon="25.84999">
        <ele>227.013171</ele>
        <time>2022-02-27T09:13:29.613Z</time>
      </trkpt>
      <trkpt lat="41.94638" lon="25.84983">
        <ele>227.248762</ele>
        <time>2022-02-27T09:13:32.625Z</time>
      </trkpt>
      <trkpt lat="41.94638" lon="25.84968">
        <ele>227.468175</ele>
        <time>2022-02-27T09:13:35.623Z</time>
      </trkpt>
      <trkpt lat="41.94638" lon="25.84952">
        <ele>227.70665</ele>
        <time>2022-02-27T09:13:38.628Z</time>
      </trkpt>
      <trkpt lat="41.94638" lon="25.84936">
        <ele>227.942117</ele>
        <time>2022-02-27T09:13:41.633Z</time>
      </trkpt>
      <trkpt lat="41.94638" lon="25.84923">
        <ele>228.131955</ele>
        <time>2022-02-27T09:13:44.628Z</time>
      </trkpt>
      <trkpt lat="41.94638" lon="25.84909">
        <ele>228.349835</ele>
        <time>2022-02-27T09:13:47.613Z</time>
      </trkpt>
      <trkpt lat="41.94638" lon="25.84893">
        <ele>228.57507</ele>
        <time>2022-02-27T09:13:50.602Z</time>
      </trkpt>
      <trkpt lat="41.94637" lon="25.84879">
        <ele>228.784273</ele>
        <time>2022-02-27T09:13:53.624Z</time>
      </trkpt>
      <trkpt lat="41.94637" lon="25.84866">
        <ele>228.978526</ele>
        <time>2022-02-27T09:13:56.623Z</time>
      </trkpt>
      <trkpt lat="41.94637" lon="25.84851">
        <ele>229.196765</ele>
        <time>2022-02-27T09:13:59.619Z</time>
      </trkpt>
      <trkpt lat="41.94636" lon="25.84837">
        <ele>229.409792</ele>
        <time>2022-02-27T09:14:02.619Z</time>
      </trkpt>
      <trkpt lat="41.94635" lon="25.84822">
        <ele>229.627022</ele>
        <time>2022-02-27T09:14:05.617Z</time>
      </trkpt>
      <trkpt lat="41.94633" lon="25.84806">
        <ele>229.563862</ele>
        <time>2022-02-27T09:14:08.611Z</time>
      </trkpt>
      <trkpt lat="41.94631" lon="25.84791">
        <ele>229.395467</ele>
        <time>2022-02-27T09:14:11.603Z</time>
      </trkpt>
      <trkpt lat="41.94629" lon="25.84776">
        <ele>229.232063</ele>
        <time>2022-02-27T09:14:14.618Z</time>
      </trkpt>
      <trkpt lat="41.94626" lon="25.84762">
        <ele>229.074309</ele>
        <time>2022-02-27T09:14:17.591Z</time>
      </trkpt>
      <trkpt lat="41.94624" lon="25.84748">
        <ele>228.917602</ele>
        <time>2022-02-27T09:14:20.699Z</time>
      </trkpt>
      <trkpt lat="41.9462" lon="25.84733">
        <ele>228.753154</ele>
        <time>2022-02-27T09:14:23.622Z</time>
      </trkpt>
      <trkpt lat="41.94617" lon="25.84718">
        <ele>228.578196</ele>
        <time>2022-02-27T09:14:26.620Z</time>
      </trkpt>
      <trkpt lat="41.94613" lon="25.84703">
        <ele>228.407257</ele>
        <time>2022-02-27T09:14:29.628Z</time>
      </trkpt>
      <trkpt lat="41.94609" lon="25.84688">
        <ele>228.239377</ele>
        <time>2022-02-27T09:14:32.602Z</time>
      </trkpt>
      <trkpt lat="41.94606" lon="25.84674">
        <ele>228.082414</ele>
        <time>2022-02-27T09:14:35.633Z</time>
      </trkpt>
      <trkpt lat="41.94603" lon="25.84661">
        <ele>227.929682</ele>
        <time>2022-02-27T09:14:38.611Z</time>
      </trkpt>
      <trkpt lat="41.94599" lon="25.84648">
        <ele>227.788629</ele>
        <time>2022-02-27T09:14:41.608Z</time>
      </trkpt>
      <trkpt lat="41.94596" lon="25.84636">
        <ele>227.647575</ele>
        <time>2022-02-27T09:14:44.629Z</time>
      </trkpt>
      <trkpt lat="41.94593" lon="25.84624">
        <ele>227.513514</ele>
        <time>2022-02-27T09:14:47.612Z</time>
      </trkpt>
      <trkpt lat="41.9459" lon="25.84613">
        <ele>227.379453</ele>
        <time>2022-02-27T09:14:50.621Z</time>
      </trkpt>
      <trkpt lat="41.94587" lon="25.84601">
        <ele>227.245392</ele>
        <time>2022-02-27T09:14:53.636Z</time>
      </trkpt>
      <trkpt lat="41.94584" lon="25.84589">
        <ele>227.108357</ele>
        <time>2022-02-27T09:14:56.650Z</time>
      </trkpt>
      <trkpt lat="41.94581" lon="25.84577">
        <ele>227.274896</ele>
        <time>2022-02-27T09:14:59.686Z</time>
      </trkpt>
      <trkpt lat="41.94578" lon="25.84565">
        <ele>227.52778</ele>
        <time>2022-02-27T09:15:02.637Z</time>
      </trkpt>
      <trkpt lat="41.94574" lon="25.84549">
        <ele>227.835912</ele>
        <time>2022-02-27T09:15:06.625Z</time>
      </trkpt>
      <trkpt lat="41.9457" lon="25.84535">
        <ele>228.137946</ele>
        <time>2022-02-27T09:15:10.651Z</time>
      </trkpt>
      <trkpt lat="41.94566" lon="25.8452">
        <ele>228.430543</ele>
        <time>2022-02-27T09:15:14.625Z</time>
      </trkpt>
      <trkpt lat="41.94563" lon="25.84506">
        <ele>228.723205</ele>
        <time>2022-02-27T09:15:18.618Z</time>
      </trkpt>
      <trkpt lat="41.94559" lon="25.84491">
        <ele>229.030355</ele>
        <time>2022-02-27T09:15:22.630Z</time>
      </trkpt>
      <trkpt lat="41.94555" lon="25.84476">
        <ele>229.330331</ele>
        <time>2022-02-27T09:15:26.619Z</time>
      </trkpt>
      <trkpt lat="41.94551" lon="25.84462">
        <ele>229.627649</ele>
        <time>2022-02-27T09:15:30.616Z</time>
      </trkpt>
      <trkpt lat="41.94548" lon="25.84448">
        <ele>229.918487</ele>
        <time>2022-02-27T09:15:34.614Z</time>
      </trkpt>
      <trkpt lat="41.94544" lon="25.84433">
        <ele>230.223813</ele>
        <time>2022-02-27T09:15:38.641Z</time>
      </trkpt>
      <trkpt lat="41.9454" lon="25.84417">
        <ele>230.530625</ele>
        <time>2022-02-27T09:15:42.617Z</time>
      </trkpt>
      <trkpt lat="41.94537" lon="25.84406">
        <ele>230.773503</ele>
        <time>2022-02-27T09:15:45.627Z</time>
      </trkpt>
      <trkpt lat="41.94535" lon="25.84394">
        <ele>231.008224</ele>
        <time>2022-02-27T09:15:48.621Z</time>
      </trkpt>
      <trkpt lat="41.94531" lon="25.84379">
        <ele>231.304735</ele>
        <time>2022-02-27T09:15:52.624Z</time>
      </trkpt>
      <trkpt lat="41.94527" lon="25.84365">
        <ele>231.602882</ele>
        <time>2022-02-27T09:15:56.616Z</time>
      </trkpt>
      <trkpt lat="41.94524" lon="25.8435">
        <ele>231.890967</ele>
        <time>2022-02-27T09:16:00.653Z</time>
      </trkpt>
      <trkpt lat="41.94521" lon="25.84335">
        <ele>232.173052</ele>
        <time>2022-02-27T09:16:04.623Z</time>
      </trkpt>
      <trkpt lat="41.94518" lon="25.84321">
        <ele>232.427589</ele>
        <time>2022-02-27T09:16:08.628Z</time>
      </trkpt>
      <trkpt lat="41.94514" lon="25.84309">
        <ele>232.663101</ele>
        <time>2022-02-27T09:16:12.641Z</time>
      </trkpt>
      <trkpt lat="41.94512" lon="25.84297">
        <ele>232.893217</ele>
        <time>2022-02-27T09:16:16.623Z</time>
      </trkpt>
      <trkpt lat="41.94509" lon="25.84284">
        <ele>233.124027</ele>
        <time>2022-02-27T09:16:20.621Z</time>
      </trkpt>
      <trkpt lat="41.94506" lon="25.84272">
        <ele>233.365573</ele>
        <time>2022-02-27T09:16:24.605Z</time>
      </trkpt>
      <trkpt lat="41.94502" lon="25.84257">
        <ele>233.633997</ele>
        <time>2022-02-27T09:16:29.627Z</time>
      </trkpt>
      <trkpt lat="41.945" lon="25.84246">
        <ele>233.851388</ele>
        <time>2022-02-27T09:16:33.657Z</time>
      </trkpt>
      <trkpt lat="41.94496" lon="25.84233">
        <ele>234.0988</ele>
        <time>2022-02-27T09:16:37.634Z</time>
      </trkpt>
      <trkpt lat="41.94493" lon="25.84219">
        <ele>234.359187</ele>
        <time>2022-02-27T09:16:41.637Z</time>
      </trkpt>
      <trkpt lat="41.94491" lon="25.84206">
        <ele>234.593432</ele>
        <time>2022-02-27T09:16:45.605Z</time>
      </trkpt>
      <trkpt lat="41.94487" lon="25.84193">
        <ele>234.849964</ele>
        <time>2022-02-27T09:16:49.614Z</time>
      </trkpt>
      <trkpt lat="41.94484" lon="25.8418">
        <ele>235.08966</ele>
        <time>2022-02-27T09:16:53.630Z</time>
      </trkpt>
      <trkpt lat="41.9448" lon="25.84168">
        <ele>235.321754</ele>
        <time>2022-02-27T09:16:57.627Z</time>
      </trkpt>
      <trkpt lat="41.94477" lon="25.84157">
        <ele>235.541343</ele>
        <time>2022-02-27T09:17:01.648Z</time>
      </trkpt>
      <trkpt lat="41.94475" lon="25.84144">
        <ele>235.76974</ele>
        <time>2022-02-27T09:17:05.619Z</time>
      </trkpt>
      <trkpt lat="41.94472" lon="25.84132">
        <ele>236.008476</ele>
        <time>2022-02-27T09:17:09.633Z</time>
      </trkpt>
      <trkpt lat="41.9447" lon="25.8412">
        <ele>236.235345</ele>
        <time>2022-02-27T09:17:13.616Z</time>
      </trkpt>
      <trkpt lat="41.94467" lon="25.84106">
        <ele>236.51141</ele>
        <time>2022-02-27T09:17:18.616Z</time>
      </trkpt>
      <trkpt lat="41.94465" lon="25.84092">
        <ele>236.788955</ele>
        <time>2022-02-27T09:17:23.668Z</time>
      </trkpt>
      <trkpt lat="41.94463" lon="25.84079">
        <ele>237.031657</ele>
        <time>2022-02-27T09:17:28.631Z</time>
      </trkpt>
      <trkpt lat="41.94461" lon="25.84065">
        <ele>237.308711</ele>
        <time>2022-02-27T09:17:33.609Z</time>
      </trkpt>
      <trkpt lat="41.94459" lon="25.84053">
        <ele>237.550426</ele>
        <time>2022-02-27T09:17:37.629Z</time>
      </trkpt>
      <trkpt lat="41.94458" lon="25.8404">
        <ele>237.796547</ele>
        <time>2022-02-27T09:17:41.624Z</time>
      </trkpt>
      <trkpt lat="41.94456" lon="25.84026">
        <ele>238.07502</ele>
        <time>2022-02-27T09:17:46.642Z</time>
      </trkpt>
      <trkpt lat="41.94454" lon="25.84013">
        <ele>238.331385</ele>
        <time>2022-02-27T09:17:50.619Z</time>
      </trkpt>
      <trkpt lat="41.94452" lon="25.84001">
        <ele>238.568458</ele>
        <time>2022-02-27T09:17:54.629Z</time>
      </trkpt>
      <trkpt lat="41.9445" lon="25.83986">
        <ele>238.854029</ele>
        <time>2022-02-27T09:17:59.628Z</time>
      </trkpt>
      <trkpt lat="41.94448" lon="25.83974">
        <ele>239.09009</ele>
        <time>2022-02-27T09:18:03.618Z</time>
      </trkpt>
      <trkpt lat="41.94446" lon="25.83962">
        <ele>239.327708</ele>
        <time>2022-02-27T09:18:07.628Z</time>
      </trkpt>
      <trkpt lat="41.94444" lon="25.83949">
        <ele>239.578419</ele>
        <time>2022-02-27T09:18:11.611Z</time>
      </trkpt>
      <trkpt lat="41.94442" lon="25.83935">
        <ele>239.848448</ele>
        <time>2022-02-27T09:18:15.639Z</time>
      </trkpt>
      <trkpt lat="41.94441" lon="25.83921">
        <ele>240.127956</ele>
        <time>2022-02-27T09:18:19.652Z</time>
      </trkpt>
      <trkpt lat="41.94439" lon="25.83906">
        <ele>240.403279</ele>
        <time>2022-02-27T09:18:23.632Z</time>
      </trkpt>
      <trkpt lat="41.94437" lon="25.83894">
        <ele>240.656429</ele>
        <time>2022-02-27T09:18:27.645Z</time>
      </trkpt>
      <trkpt lat="41.94435" lon="25.8388">
        <ele>240.761256</ele>
        <time>2022-02-27T09:18:31.628Z</time>
      </trkpt>
      <trkpt lat="41.94433" lon="25.83866">
        <ele>240.807504</ele>
        <time>2022-02-27T09:18:35.610Z</time>
      </trkpt>
      <trkpt lat="41.94431" lon="25.83853">
        <ele>240.851428</ele>
        <time>2022-02-27T09:18:39.636Z</time>
      </trkpt>
      <trkpt lat="41.94429" lon="25.83839">
        <ele>240.897075</ele>
        <time>2022-02-27T09:18:43.625Z</time>
      </trkpt>
      <trkpt lat="41.94427" lon="25.83826">
        <ele>240.940227</ele>
        <time>2022-02-27T09:18:47.650Z</time>
      </trkpt>
      <trkpt lat="41.94425" lon="25.83812">
        <ele>240.989314</ele>
        <time>2022-02-27T09:18:52.624Z</time>
      </trkpt>
      <trkpt lat="41.94422" lon="25.83798">
        <ele>241.033793</ele>
        <time>2022-02-27T09:18:56.621Z</time>
      </trkpt>
      <trkpt lat="41.94421" lon="25.83783">
        <ele>241.08402</ele>
        <time>2022-02-27T09:19:00.618Z</time>
      </trkpt>
      <trkpt lat="41.94419" lon="25.83771">
        <ele>241.12542</ele>
        <time>2022-02-27T09:19:03.650Z</time>
      </trkpt>
      <trkpt lat="41.94418" lon="25.83759">
        <ele>241.164992</ele>
        <time>2022-02-27T09:19:06.610Z</time>
      </trkpt>
      <trkpt lat="41.94415" lon="25.83743">
        <ele>241.21726</ele>
        <time>2022-02-27T09:19:10.628Z</time>
      </trkpt>
      <trkpt lat="41.94413" lon="25.83727">
        <ele>241.269564</ele>
        <time>2022-02-27T09:19:14.616Z</time>
      </trkpt>
      <trkpt lat="41.94411" lon="25.83715">
        <ele>241.312158</ele>
        <time>2022-02-27T09:19:17.624Z</time>
      </trkpt>
      <trkpt lat="41.94409" lon="25.83701">
        <ele>241.356594</ele>
        <time>2022-02-27T09:19:20.665Z</time>
      </trkpt>
      <trkpt lat="41.94407" lon="25.83687">
        <ele>241.40265</ele>
        <time>2022-02-27T09:19:23.640Z</time>
      </trkpt>
      <trkpt lat="41.94405" lon="25.83673">
        <ele>241.449852</ele>
        <time>2022-02-27T09:19:26.607Z</time>
      </trkpt>
      <trkpt lat="41.94402" lon="25.83658">
        <ele>241.501837</ele>
        <time>2022-02-27T09:19:29.639Z</time>
      </trkpt>
      <trkpt lat="41.944" lon="25.83641">
        <ele>241.326748</ele>
        <time>2022-02-27T09:19:32.614Z</time>
      </trkpt>
      <trkpt lat="41.94397" lon="25.83624">
        <ele>241.059615</ele>
        <time>2022-02-27T09:19:35.637Z</time>
      </trkpt>
      <trkpt lat="41.94395" lon="25.83608">
        <ele>240.812319</ele>
        <time>2022-02-27T09:19:38.622Z</time>
      </trkpt>
      <trkpt lat="41.94393" lon="25.83593">
        <ele>240.569969</ele>
        <time>2022-02-27T09:19:41.635Z</time>
      </trkpt>
      <trkpt lat="41.94391" lon="25.83577">
        <ele>240.329868</ele>
        <time>2022-02-27T09:19:44.615Z</time>
      </trkpt>
      <trkpt lat="41.94389" lon="25.83562">
        <ele>240.088233</ele>
        <time>2022-02-27T09:19:47.622Z</time>
      </trkpt>
      <trkpt lat="41.94387" lon="25.83547">
        <ele>239.859155</ele>
        <time>2022-02-27T09:19:50.633Z</time>
      </trkpt>
      <trkpt lat="41.94386" lon="25.83533">
        <ele>239.627384</ele>
        <time>2022-02-27T09:19:53.659Z</time>
      </trkpt>
      <trkpt lat="41.94385" lon="25.83518">
        <ele>239.395987</ele>
        <time>2022-02-27T09:19:56.650Z</time>
      </trkpt>
      <trkpt lat="41.94384" lon="25.83504">
        <ele>239.183271</ele>
        <time>2022-02-27T09:19:59.656Z</time>
      </trkpt>
      <trkpt lat="41.94384" lon="25.83491">
        <ele>238.982</ele>
        <time>2022-02-27T09:20:02.625Z</time>
      </trkpt>
      <trkpt lat="41.94384" lon="25.83475">
        <ele>238.735874</ele>
        <time>2022-02-27T09:20:06.607Z</time>
      </trkpt>
      <trkpt lat="41.94384" lon="25.83459">
        <ele>238.491163</ele>
        <time>2022-02-27T09:20:10.624Z</time>
      </trkpt>
      <trkpt lat="41.94383" lon="25.83447">
        <ele>238.30382</ele>
        <time>2022-02-27T09:20:13.654Z</time>
      </trkpt>
      <trkpt lat="41.94383" lon="25.83433">
        <ele>238.077816</ele>
        <time>2022-02-27T09:20:16.623Z</time>
      </trkpt>
      <trkpt lat="41.94383" lon="25.83417">
        <ele>237.833167</ele>
        <time>2022-02-27T09:20:19.622Z</time>
      </trkpt>
      <trkpt lat="41.94384" lon="25.834">
        <ele>237.896962</ele>
        <time>2022-02-27T09:20:22.611Z</time>
      </trkpt>
      <trkpt lat="41.94383" lon="25.83383">
        <ele>238.057968</ele>
        <time>2022-02-27T09:20:25.626Z</time>
      </trkpt>
      <trkpt lat="41.94382" lon="25.83366">
        <ele>238.221848</ele>
        <time>2022-02-27T09:20:28.617Z</time>
      </trkpt>
      <trkpt lat="41.94382" lon="25.83349">
        <ele>238.379047</ele>
        <time>2022-02-27T09:20:31.611Z</time>
      </trkpt>
      <trkpt lat="41.94381" lon="25.83332">
        <ele>238.535409</ele>
        <time>2022-02-27T09:20:34.638Z</time>
      </trkpt>
      <trkpt lat="41.94381" lon="25.8332">
        <ele>238.654196</ele>
        <time>2022-02-27T09:20:36.627Z</time>
      </trkpt>
      <trkpt lat="41.9438" lon="25.83307">
        <ele>238.771908</ele>
        <time>2022-02-27T09:20:38.619Z</time>
      </trkpt>
      <trkpt lat="41.9438" lon="25.83289">
        <ele>238.946127</ele>
        <time>2022-02-27T09:20:41.643Z</time>
      </trkpt>
      <trkpt lat="41.94379" lon="25.83276">
        <ele>239.067658</ele>
        <time>2022-02-27T09:20:43.631Z</time>
      </trkpt>
      <trkpt lat="41.94379" lon="25.83263">
        <ele>239.18443</ele>
        <time>2022-02-27T09:20:45.617Z</time>
      </trkpt>
      <trkpt lat="41.94379" lon="25.83245">
        <ele>239.352857</ele>
        <time>2022-02-27T09:20:48.615Z</time>
      </trkpt>
      <trkpt lat="41.94379" lon="25.83233">
        <ele>239.469548</ele>
        <time>2022-02-27T09:20:50.612Z</time>
      </trkpt>
      <trkpt lat="41.94378" lon="25.83221">
        <ele>239.586382</ele>
        <time>2022-02-27T09:20:52.636Z</time>
      </trkpt>
      <trkpt lat="41.94378" lon="25.83208">
        <ele>239.704012</ele>
        <time>2022-02-27T09:20:54.624Z</time>
      </trkpt>
      <trkpt lat="41.94378" lon="25.83196">
        <ele>239.822617</ele>
        <time>2022-02-27T09:20:56.617Z</time>
      </trkpt>
      <trkpt lat="41.94377" lon="25.83183">
        <ele>239.94133</ele>
        <time>2022-02-27T09:20:58.621Z</time>
      </trkpt>
      <trkpt lat="41.94377" lon="25.83171">
        <ele>240.053589</ele>
        <time>2022-02-27T09:21:00.673Z</time>
      </trkpt>
      <trkpt lat="41.94376" lon="25.83153">
        <ele>240.165607</ele>
        <time>2022-02-27T09:21:03.619Z</time>
      </trkpt>
      <trkpt lat="41.94375" lon="25.83136">
        <ele>240.276498</ele>
        <time>2022-02-27T09:21:06.618Z</time>
      </trkpt>
      <trkpt lat="41.94375" lon="25.83119">
        <ele>240.387282</ele>
        <time>2022-02-27T09:21:09.649Z</time>
      </trkpt>
      <trkpt lat="41.94374" lon="25.83102">
        <ele>240.493011</ele>
        <time>2022-02-27T09:21:12.631Z</time>
      </trkpt>
      <trkpt lat="41.94373" lon="25.83087">
        <ele>240.593699</ele>
        <time>2022-02-27T09:21:15.626Z</time>
      </trkpt>
      <trkpt lat="41.94372" lon="25.83071">
        <ele>240.695458</ele>
        <time>2022-02-27T09:21:18.618Z</time>
      </trkpt>
      <trkpt lat="41.94372" lon="25.83055">
        <ele>240.796667</ele>
        <time>2022-02-27T09:21:21.618Z</time>
      </trkpt>
      <trkpt lat="41.94371" lon="25.83039">
        <ele>240.89655</ele>
        <time>2022-02-27T09:21:24.630Z</time>
      </trkpt>
      <trkpt lat="41.9437" lon="25.83024">
        <ele>240.996601</ele>
        <time>2022-02-27T09:21:27.626Z</time>
      </trkpt>
      <trkpt lat="41.94369" lon="25.83008">
        <ele>241.099086</ele>
        <time>2022-02-27T09:21:30.616Z</time>
      </trkpt>
      <trkpt lat="41.94369" lon="25.82992">
        <ele>241.199608</ele>
        <time>2022-02-27T09:21:33.616Z</time>
      </trkpt>
      <trkpt lat="41.94368" lon="25.82977">
        <ele>241.297044</ele>
        <time>2022-02-27T09:21:36.630Z</time>
      </trkpt>
      <trkpt lat="41.94367" lon="25.82961">
        <ele>241.397094</ele>
        <time>2022-02-27T09:21:39.616Z</time>
      </trkpt>
      <trkpt lat="41.94367" lon="25.82947">
        <ele>241.486124</ele>
        <time>2022-02-27T09:21:42.647Z</time>
      </trkpt>
      <trkpt lat="41.94365" lon="25.82934">
        <ele>241.572327</ele>
        <time>2022-02-27T09:21:45.657Z</time>
      </trkpt>
      <trkpt lat="41.94365" lon="25.8292">
        <ele>241.776208</ele>
        <time>2022-02-27T09:21:48.623Z</time>
      </trkpt>
      <trkpt lat="41.94364" lon="25.82905">
        <ele>242.034783</ele>
        <time>2022-02-27T09:21:51.637Z</time>
      </trkpt>
      <trkpt lat="41.94363" lon="25.8289">
        <ele>242.286606</ele>
        <time>2022-02-27T09:21:54.615Z</time>
      </trkpt>
      <trkpt lat="41.94363" lon="25.82877">
        <ele>242.513599</ele>
        <time>2022-02-27T09:21:57.636Z</time>
      </trkpt>
      <trkpt lat="41.94362" lon="25.82864">
        <ele>242.742513</ele>
        <time>2022-02-27T09:22:00.663Z</time>
      </trkpt>
      <trkpt lat="41.94362" lon="25.82852">
        <ele>242.959208</ele>
        <time>2022-02-27T09:22:03.629Z</time>
      </trkpt>
      <trkpt lat="41.94361" lon="25.82836">
        <ele>243.228024</ele>
        <time>2022-02-27T09:22:07.619Z</time>
      </trkpt>
      <trkpt lat="41.94361" lon="25.8282">
        <ele>243.508755</ele>
        <time>2022-02-27T09:22:11.683Z</time>
      </trkpt>
      <trkpt lat="41.9436" lon="25.82807">
        <ele>243.73968</ele>
        <time>2022-02-27T09:22:14.615Z</time>
      </trkpt>
      <trkpt lat="41.94359" lon="25.82793">
        <ele>243.972927</ele>
        <time>2022-02-27T09:22:17.666Z</time>
      </trkpt>
      <trkpt lat="41.94358" lon="25.82781">
        <ele>244.187782</ele>
        <time>2022-02-27T09:22:20.629Z</time>
      </trkpt>
      <trkpt lat="41.94356" lon="25.82769">
        <ele>244.397225</ele>
        <time>2022-02-27T09:22:23.629Z</time>
      </trkpt>
      <trkpt lat="41.94354" lon="25.82754">
        <ele>244.664654</ele>
        <time>2022-02-27T09:22:27.632Z</time>
      </trkpt>
      <trkpt lat="41.94351" lon="25.82739">
        <ele>244.923654</ele>
        <time>2022-02-27T09:22:31.630Z</time>
      </trkpt>
      <trkpt lat="41.94348" lon="25.82726">
        <ele>245.164109</ele>
        <time>2022-02-27T09:22:35.620Z</time>
      </trkpt>
      <trkpt lat="41.94345" lon="25.82713">
        <ele>245.406937</ele>
        <time>2022-02-27T09:22:39.639Z</time>
      </trkpt>
      <trkpt lat="41.94341" lon="25.827">
        <ele>245.644905</ele>
        <time>2022-02-27T09:22:43.640Z</time>
      </trkpt>
      <trkpt lat="41.94336" lon="25.82688">
        <ele>245.857677</ele>
        <time>2022-02-27T09:22:47.658Z</time>
      </trkpt>
      <trkpt lat="41.94331" lon="25.82677">
        <ele>246.034519</ele>
        <time>2022-02-27T09:22:51.616Z</time>
      </trkpt>
      <trkpt lat="41.94327" lon="25.82666">
        <ele>246.208992</ele>
        <time>2022-02-27T09:22:55.632Z</time>
      </trkpt>
      <trkpt lat="41.94321" lon="25.82654">
        <ele>246.402435</ele>
        <time>2022-02-27T09:23:00.620Z</time>
      </trkpt>
      <trkpt lat="41.94315" lon="25.82641">
        <ele>246.602262</ele>
        <time>2022-02-27T09:23:06.617Z</time>
      </trkpt>
      <trkpt lat="41.94309" lon="25.82631">
        <ele>246.768299</ele>
        <time>2022-02-27T09:23:11.625Z</time>
      </trkpt>
      <trkpt lat="41.94304" lon="25.82621">
        <ele>246.948339</ele>
        <time>2022-02-27T09:23:16.635Z</time>
      </trkpt>
      <trkpt lat="41.94297" lon="25.82609">
        <ele>247.148997</ele>
        <time>2022-02-27T09:23:22.620Z</time>
      </trkpt>
      <trkpt lat="41.94291" lon="25.82597">
        <ele>247.337714</ele>
        <time>2022-02-27T09:23:27.622Z</time>
      </trkpt>
      <trkpt lat="41.94285" lon="25.82587">
        <ele>247.513617</ele>
        <time>2022-02-27T09:23:32.656Z</time>
      </trkpt>
      <trkpt lat="41.94279" lon="25.82576">
        <ele>247.690458</ele>
        <time>2022-02-27T09:23:37.635Z</time>
      </trkpt>
      <trkpt lat="41.94274" lon="25.82566">
        <ele>247.857505</ele>
        <time>2022-02-27T09:23:42.628Z</time>
      </trkpt>
      <trkpt lat="41.94269" lon="25.82556">
        <ele>248.022433</ele>
        <time>2022-02-27T09:23:47.628Z</time>
      </trkpt>
      <trkpt lat="41.94262" lon="25.82546">
        <ele>248.206841</ele>
        <time>2022-02-27T09:23:53.619Z</time>
      </trkpt>
      <trkpt lat="41.94257" lon="25.82535">
        <ele>248.376074</ele>
        <time>2022-02-27T09:23:58.618Z</time>
      </trkpt>
      <trkpt lat="41.94251" lon="25.82526">
        <ele>248.546496</ele>
        <time>2022-02-27T09:24:03.635Z</time>
      </trkpt>
      <trkpt lat="41.94245" lon="25.82515">
        <ele>248.730879</ele>
        <time>2022-02-27T09:24:09.627Z</time>
      </trkpt>
      <trkpt lat="41.9424" lon="25.82505">
        <ele>248.901172</ele>
        <time>2022-02-27T09:24:14.676Z</time>
      </trkpt>
      <trkpt lat="41.94233" lon="25.82492">
        <ele>249.05617</ele>
        <time>2022-02-27T09:24:19.612Z</time>
      </trkpt>
      <trkpt lat="41.94228" lon="25.82482">
        <ele>249.066378</ele>
        <time>2022-02-27T09:24:24.631Z</time>
      </trkpt>
      <trkpt lat="41.94222" lon="25.8247">
        <ele>249.07849</ele>
        <time>2022-02-27T09:24:29.616Z</time>
      </trkpt>
      <trkpt lat="41.94215" lon="25.82459">
        <ele>249.09035</ele>
        <time>2022-02-27T09:24:34.628Z</time>
      </trkpt>
      <trkpt lat="41.94208" lon="25.82448">
        <ele>249.10161</ele>
        <time>2022-02-27T09:24:38.655Z</time>
      </trkpt>
      <trkpt lat="41.94202" lon="25.82437">
        <ele>249.112998</ele>
        <time>2022-02-27T09:24:42.632Z</time>
      </trkpt>
      <trkpt lat="41.94196" lon="25.82425">
        <ele>249.12498</ele>
        <time>2022-02-27T09:24:46.627Z</time>
      </trkpt>
      <trkpt lat="41.94189" lon="25.82415">
        <ele>249.135856</ele>
        <time>2022-02-27T09:24:49.638Z</time>
      </trkpt>
      <trkpt lat="41.94183" lon="25.82405">
        <ele>249.146589</ele>
        <time>2022-02-27T09:24:52.613Z</time>
      </trkpt>
      <trkpt lat="41.94177" lon="25.82394">
        <ele>249.157781</ele>
        <time>2022-02-27T09:24:55.682Z</time>
      </trkpt>
      <trkpt lat="41.94171" lon="25.82383">
        <ele>249.169038</ele>
        <time>2022-02-27T09:24:58.660Z</time>
      </trkpt>
      <trkpt lat="41.94165" lon="25.82372">
        <ele>249.179966</ele>
        <time>2022-02-27T09:25:01.609Z</time>
      </trkpt>
      <trkpt lat="41.9416" lon="25.82361">
        <ele>249.191044</ele>
        <time>2022-02-27T09:25:04.633Z</time>
      </trkpt>
      <trkpt lat="41.94154" lon="25.82349">
        <ele>249.202389</ele>
        <time>2022-02-27T09:25:07.624Z</time>
      </trkpt>
      <trkpt lat="41.94149" lon="25.82337">
        <ele>249.214248</ele>
        <time>2022-02-27T09:25:10.623Z</time>
      </trkpt>
      <trkpt lat="41.94144" lon="25.82325">
        <ele>249.225855</ele>
        <time>2022-02-27T09:25:13.611Z</time>
      </trkpt>
      <trkpt lat="41.94138" lon="25.82311">
        <ele>249.238234</ele>
        <time>2022-02-27T09:25:16.619Z</time>
      </trkpt>
      <trkpt lat="41.94133" lon="25.82297">
        <ele>249.251341</ele>
        <time>2022-02-27T09:25:19.625Z</time>
      </trkpt>
      <trkpt lat="41.94128" lon="25.82282">
        <ele>249.1096</ele>
        <time>2022-02-27T09:25:22.632Z</time>
      </trkpt>
      <trkpt lat="41.94123" lon="25.82266">
        <ele>248.969396</ele>
        <time>2022-02-27T09:25:25.608Z</time>
      </trkpt>
      <trkpt lat="41.94119" lon="25.82251">
        <ele>248.828453</ele>
        <time>2022-02-27T09:25:28.624Z</time>
      </trkpt>
      <trkpt lat="41.94115" lon="25.82235">
        <ele>248.685634</ele>
        <time>2022-02-27T09:25:31.617Z</time>
      </trkpt>
      <trkpt lat="41.94112" lon="25.8222">
        <ele>248.547818</ele>
        <time>2022-02-27T09:25:34.633Z</time>
      </trkpt>
      <trkpt lat="41.94109" lon="25.82204">
        <ele>248.41292</ele>
        <time>2022-02-27T09:25:37.604Z</time>
      </trkpt>
      <trkpt lat="41.94106" lon="25.82188">
        <ele>248.272628</ele>
        <time>2022-02-27T09:25:40.619Z</time>
      </trkpt>
      <trkpt lat="41.94104" lon="25.82173">
        <ele>248.139372</ele>
        <time>2022-02-27T09:25:43.629Z</time>
      </trkpt>
      <trkpt lat="41.94102" lon="25.82158">
        <ele>248.008526</ele>
        <time>2022-02-27T09:25:46.624Z</time>
      </trkpt>
      <trkpt lat="41.94101" lon="25.82144">
        <ele>247.885697</ele>
        <time>2022-02-27T09:25:49.615Z</time>
      </trkpt>
      <trkpt lat="41.941" lon="25.8213">
        <ele>247.770263</ele>
        <time>2022-02-27T09:25:52.614Z</time>
      </trkpt>
      <trkpt lat="41.941" lon="25.82115">
        <ele>247.644584</ele>
        <time>2022-02-27T09:25:55.616Z</time>
      </trkpt>
      <trkpt lat="41.941" lon="25.82101">
        <ele>247.522401</ele>
        <time>2022-02-27T09:25:58.629Z</time>
      </trkpt>
      <trkpt lat="41.94101" lon="25.82086">
        <ele>247.39042</ele>
        <time>2022-02-27T09:26:01.636Z</time>
      </trkpt>
      <trkpt lat="41.94102" lon="25.8207">
        <ele>247.257587</ele>
        <time>2022-02-27T09:26:04.631Z</time>
      </trkpt>
      <trkpt lat="41.94103" lon="25.82055">
        <ele>247.198049</ele>
        <time>2022-02-27T09:26:07.626Z</time>
      </trkpt>
      <trkpt lat="41.94104" lon="25.8204">
        <ele>247.22571</ele>
        <time>2022-02-27T09:26:10.630Z</time>
      </trkpt>
      <trkpt lat="41.94107" lon="25.82026">
        <ele>247.252679</ele>
        <time>2022-02-27T09:26:13.664Z</time>
      </trkpt>
      <trkpt lat="41.94109" lon="25.82013">
        <ele>247.277287</ele>
        <time>2022-02-27T09:26:16.613Z</time>
      </trkpt>
      <trkpt lat="41.94111" lon="25.81999">
        <ele>247.304126</ele>
        <time>2022-02-27T09:26:19.616Z</time>
      </trkpt>
      <trkpt lat="41.94115" lon="25.81985">
        <ele>247.331756</ele>
        <time>2022-02-27T09:26:22.600Z</time>
      </trkpt>
      <trkpt lat="41.9412" lon="25.8197">
        <ele>247.362777</ele>
        <time>2022-02-27T09:26:25.634Z</time>
      </trkpt>
      <trkpt lat="41.94124" lon="25.81955">
        <ele>247.39188</ele>
        <time>2022-02-27T09:26:28.615Z</time>
      </trkpt>
      <trkpt lat="41.94128" lon="25.81941">
        <ele>247.4202</ele>
        <time>2022-02-27T09:26:31.621Z</time>
      </trkpt>
      <trkpt lat="41.94131" lon="25.81927">
        <ele>247.448434</ele>
        <time>2022-02-27T09:26:34.627Z</time>
      </trkpt>
      <trkpt lat="41.94136" lon="25.81913">
        <ele>247.47611</ele>
        <time>2022-02-27T09:26:37.617Z</time>
      </trkpt>
      <trkpt lat="41.9414" lon="25.819">
        <ele>247.503044</ele>
        <time>2022-02-27T09:26:40.634Z</time>
      </trkpt>
      <trkpt lat="41.94145" lon="25.81887">
        <ele>247.529668</ele>
        <time>2022-02-27T09:26:43.599Z</time>
      </trkpt>
      <trkpt lat="41.94148" lon="25.81873">
        <ele>247.557117</ele>
        <time>2022-02-27T09:26:46.668Z</time>
      </trkpt>
      <trkpt lat="41.94153" lon="25.8186">
        <ele>247.583983</ele>
        <time>2022-02-27T09:26:49.624Z</time>
      </trkpt>
      <trkpt lat="41.94156" lon="25.81848">
        <ele>247.60704</ele>
        <time>2022-02-27T09:26:52.620Z</time>
      </trkpt>
      <trkpt lat="41.94161" lon="25.81834">
        <ele>247.628775</ele>
        <time>2022-02-27T09:26:56.616Z</time>
      </trkpt>
      <trkpt lat="41.94166" lon="25.81821">
        <ele>247.528796</ele>
        <time>2022-02-27T09:26:59.622Z</time>
      </trkpt>
      <trkpt lat="41.9417" lon="25.81807">
        <ele>247.421139</ele>
        <time>2022-02-27T09:27:02.642Z</time>
      </trkpt>
      <trkpt lat="41.94175" lon="25.81793">
        <ele>247.315887</ele>
        <time>2022-02-27T09:27:05.628Z</time>
      </trkpt>
      <trkpt lat="41.9418" lon="25.81776">
        <ele>247.186682</ele>
        <time>2022-02-27T09:27:08.651Z</time>
      </trkpt>
      <trkpt lat="41.94184" lon="25.81765">
        <ele>247.098674</ele>
        <time>2022-02-27T09:27:10.633Z</time>
      </trkpt>
      <trkpt lat="41.94188" lon="25.81753">
        <ele>247.008088</ele>
        <time>2022-02-27T09:27:12.615Z</time>
      </trkpt>
      <trkpt lat="41.94193" lon="25.81741">
        <ele>246.910043</ele>
        <time>2022-02-27T09:27:14.613Z</time>
      </trkpt>
      <trkpt lat="41.94197" lon="25.81727">
        <ele>246.804629</ele>
        <time>2022-02-27T09:27:16.626Z</time>
      </trkpt>
      <trkpt lat="41.94202" lon="25.81713">
        <ele>246.691146</ele>
        <time>2022-02-27T09:27:18.645Z</time>
      </trkpt>
      <trkpt lat="41.94208" lon="25.81697">
        <ele>246.567019</ele>
        <time>2022-02-27T09:27:20.627Z</time>
      </trkpt>
      <trkpt lat="41.94214" lon="25.81681">
        <ele>246.442846</ele>
        <time>2022-02-27T09:27:22.637Z</time>
      </trkpt>
      <trkpt lat="41.94219" lon="25.81664">
        <ele>246.315076</ele>
        <time>2022-02-27T09:27:24.619Z</time>
      </trkpt>
      <trkpt lat="41.94225" lon="25.81647">
        <ele>246.183918</ele>
        <time>2022-02-27T09:27:26.633Z</time>
      </trkpt>
      <trkpt lat="41.94229" lon="25.81631">
        <ele>246.061432</ele>
        <time>2022-02-27T09:27:28.628Z</time>
      </trkpt>
      <trkpt lat="41.94234" lon="25.81614">
        <ele>245.932666</ele>
        <time>2022-02-27T09:27:30.696Z</time>
      </trkpt>
      <trkpt lat="41.94237" lon="25.81596">
        <ele>245.348187</ele>
        <time>2022-02-27T09:27:32.632Z</time>
      </trkpt>
      <trkpt lat="41.94241" lon="25.81578">
        <ele>244.739216</ele>
        <time>2022-02-27T09:27:34.621Z</time>
      </trkpt>
      <trkpt lat="41.94245" lon="25.81559">
        <ele>244.084554</ele>
        <time>2022-02-27T09:27:36.619Z</time>
      </trkpt>
      <trkpt lat="41.94248" lon="25.81538">
        <ele>243.387402</ele>
        <time>2022-02-27T09:27:38.638Z</time>
      </trkpt>
      <trkpt lat="41.9425" lon="25.81516">
        <ele>242.662762</ele>
        <time>2022-02-27T09:27:40.624Z</time>
      </trkpt>
      <trkpt lat="41.94252" lon="25.81494">
        <ele>241.925688</ele>
        <time>2022-02-27T09:27:42.632Z</time>
      </trkpt>
      <trkpt lat="41.94254" lon="25.81472">
        <ele>241.192677</ele>
        <time>2022-02-27T09:27:44.622Z</time>
      </trkpt>
      <trkpt lat="41.94257" lon="25.81448">
        <ele>240.416194</ele>
        <time>2022-02-27T09:27:46.630Z</time>
      </trkpt>
      <trkpt lat="41.94259" lon="25.81436">
        <ele>240.007482</ele>
        <time>2022-02-27T09:27:47.653Z</time>
      </trkpt>
      <trkpt lat="41.9426" lon="25.81424">
        <ele>239.600103</ele>
        <time>2022-02-27T09:27:48.632Z</time>
      </trkpt>
      <trkpt lat="41.94262" lon="25.81401">
        <ele>238.832034</ele>
        <time>2022-02-27T09:27:50.633Z</time>
      </trkpt>
      <trkpt lat="41.94265" lon="25.81378">
        <ele>238.089297</ele>
        <time>2022-02-27T09:27:52.625Z</time>
      </trkpt>
      <trkpt lat="41.94267" lon="25.81355">
        <ele>237.468327</ele>
        <time>2022-02-27T09:27:54.626Z</time>
      </trkpt>
      <trkpt lat="41.94268" lon="25.81343">
        <ele>237.157767</ele>
        <time>2022-02-27T09:27:55.626Z</time>
      </trkpt>
      <trkpt lat="41.94271" lon="25.81319">
        <ele>236.539197</ele>
        <time>2022-02-27T09:27:57.634Z</time>
      </trkpt>
      <trkpt lat="41.94272" lon="25.81307">
        <ele>236.225175</ele>
        <time>2022-02-27T09:27:58.631Z</time>
      </trkpt>
      <trkpt lat="41.94273" lon="25.81295">
        <ele>235.911628</ele>
        <time>2022-02-27T09:27:59.659Z</time>
      </trkpt>
      <trkpt lat="41.94274" lon="25.81283">
        <ele>235.592989</ele>
        <time>2022-02-27T09:28:00.616Z</time>
      </trkpt>
      <trkpt lat="41.94275" lon="25.8127">
        <ele>235.274349</ele>
        <time>2022-02-27T09:28:01.612Z</time>
      </trkpt>
      <trkpt lat="41.94277" lon="25.81257">
        <ele>234.928826</ele>
        <time>2022-02-27T09:28:02.621Z</time>
      </trkpt>
      <trkpt lat="41.94278" lon="25.81245">
        <ele>234.617346</ele>
        <time>2022-02-27T09:28:03.617Z</time>
      </trkpt>
      <trkpt lat="41.9428" lon="25.81221">
        <ele>234.006423</ele>
        <time>2022-02-27T09:28:05.630Z</time>
      </trkpt>
      <trkpt lat="41.94281" lon="25.81209">
        <ele>233.693715</ele>
        <time>2022-02-27T09:28:06.644Z</time>
      </trkpt>
      <trkpt lat="41.94283" lon="25.81197">
        <ele>233.378056</ele>
        <time>2022-02-27T09:28:07.616Z</time>
      </trkpt>
      <trkpt lat="41.94284" lon="25.81185">
        <ele>233.064035</ele>
        <time>2022-02-27T09:28:08.622Z</time>
      </trkpt>
      <trkpt lat="41.94287" lon="25.81161">
        <ele>232.450192</ele>
        <time>2022-02-27T09:28:10.627Z</time>
      </trkpt>
      <trkpt lat="41.94288" lon="25.81149">
        <ele>232.136646</ele>
        <time>2022-02-27T09:28:11.611Z</time>
      </trkpt>
      <trkpt lat="41.94289" lon="25.81137">
        <ele>231.81396</ele>
        <time>2022-02-27T09:28:12.628Z</time>
      </trkpt>
      <trkpt lat="41.94291" lon="25.81125">
        <ele>231.492747</ele>
        <time>2022-02-27T09:28:13.623Z</time>
      </trkpt>
      <trkpt lat="41.94292" lon="25.81113">
        <ele>231.170469</ele>
        <time>2022-02-27T09:28:14.638Z</time>
      </trkpt>
      <trkpt lat="41.94293" lon="25.811">
        <ele>230.839947</ele>
        <time>2022-02-27T09:28:15.625Z</time>
      </trkpt>
      <trkpt lat="41.94294" lon="25.81088">
        <ele>230.518074</ele>
        <time>2022-02-27T09:28:16.630Z</time>
      </trkpt>
      <trkpt lat="41.94295" lon="25.81076">
        <ele>230.18968</ele>
        <time>2022-02-27T09:28:17.627Z</time>
      </trkpt>
      <trkpt lat="41.94297" lon="25.81062">
        <ele>229.82913</ele>
        <time>2022-02-27T09:28:18.627Z</time>
      </trkpt>
      <trkpt lat="41.94298" lon="25.8105">
        <ele>229.500225</ele>
        <time>2022-02-27T09:28:19.618Z</time>
      </trkpt>
      <trkpt lat="41.943" lon="25.81037">
        <ele>229.169234</ele>
        <time>2022-02-27T09:28:20.657Z</time>
      </trkpt>
      <trkpt lat="41.94301" lon="25.81024">
        <ele>228.83351</ele>
        <time>2022-02-27T09:28:21.614Z</time>
      </trkpt>
      <trkpt lat="41.94302" lon="25.81012">
        <ele>228.494725</ele>
        <time>2022-02-27T09:28:22.614Z</time>
      </trkpt>
      <trkpt lat="41.94304" lon="25.80999">
        <ele>228.150256</ele>
        <time>2022-02-27T09:28:23.620Z</time>
      </trkpt>
      <trkpt lat="41.94305" lon="25.80986">
        <ele>227.810446</ele>
        <time>2022-02-27T09:28:24.621Z</time>
      </trkpt>
      <trkpt lat="41.94307" lon="25.80972">
        <ele>227.447303</ele>
        <time>2022-02-27T09:28:25.623Z</time>
      </trkpt>
      <trkpt lat="41.94308" lon="25.8096">
        <ele>227.125026</ele>
        <time>2022-02-27T09:28:26.627Z</time>
      </trkpt>
      <trkpt lat="41.94309" lon="25.80947">
        <ele>226.795573</ele>
        <time>2022-02-27T09:28:27.619Z</time>
      </trkpt>
      <trkpt lat="41.94311" lon="25.80935">
        <ele>226.459757</ele>
        <time>2022-02-27T09:28:28.629Z</time>
      </trkpt>
      <trkpt lat="41.94312" lon="25.80923">
        <ele>226.13396</ele>
        <time>2022-02-27T09:28:29.634Z</time>
      </trkpt>
      <trkpt lat="41.94313" lon="25.8091">
        <ele>225.803439</ele>
        <time>2022-02-27T09:28:30.620Z</time>
      </trkpt>
      <trkpt lat="41.94315" lon="25.80898">
        <ele>225.471398</ele>
        <time>2022-02-27T09:28:31.670Z</time>
      </trkpt>
      <trkpt lat="41.94316" lon="25.80885">
        <ele>225.177652</ele>
        <time>2022-02-27T09:28:32.628Z</time>
      </trkpt>
      <trkpt lat="41.94318" lon="25.80873">
        <ele>224.874791</ele>
        <time>2022-02-27T09:28:33.646Z</time>
      </trkpt>
      <trkpt lat="41.9432" lon="25.8086">
        <ele>224.586192</ele>
        <time>2022-02-27T09:28:34.627Z</time>
      </trkpt>
      <trkpt lat="41.94321" lon="25.80848">
        <ele>224.294265</ele>
        <time>2022-02-27T09:28:35.634Z</time>
      </trkpt>
      <trkpt lat="41.94323" lon="25.80835">
        <ele>223.991405</ele>
        <time>2022-02-27T09:28:36.640Z</time>
      </trkpt>
      <trkpt lat="41.94325" lon="25.80823">
        <ele>223.694322</ele>
        <time>2022-02-27T09:28:37.617Z</time>
      </trkpt>
      <trkpt lat="41.94326" lon="25.80811">
        <ele>223.403412</ele>
        <time>2022-02-27T09:28:38.617Z</time>
      </trkpt>
      <trkpt lat="41.94327" lon="25.80798">
        <ele>223.111068</ele>
        <time>2022-02-27T09:28:39.633Z</time>
      </trkpt>
      <trkpt lat="41.94329" lon="25.80786">
        <ele>222.817847</ele>
        <time>2022-02-27T09:28:40.643Z</time>
      </trkpt>
      <trkpt lat="41.9433" lon="25.80774">
        <ele>222.532827</ele>
        <time>2022-02-27T09:28:41.623Z</time>
      </trkpt>
      <trkpt lat="41.94333" lon="25.80751">
        <ele>221.985213</ele>
        <time>2022-02-27T09:28:43.642Z</time>
      </trkpt>
      <trkpt lat="41.94335" lon="25.80728">
        <ele>221.452875</ele>
        <time>2022-02-27T09:28:45.636Z</time>
      </trkpt>
      <trkpt lat="41.94338" lon="25.80705">
        <ele>220.903388</ele>
        <time>2022-02-27T09:28:47.610Z</time>
      </trkpt>
      <trkpt lat="41.9434" lon="25.80693">
        <ele>220.61479</ele>
        <time>2022-02-27T09:28:48.672Z</time>
      </trkpt>
      <trkpt lat="41.94342" lon="25.80669">
        <ele>220.055596</ele>
        <time>2022-02-27T09:28:50.676Z</time>
      </trkpt>
      <trkpt lat="41.94345" lon="25.80645">
        <ele>219.354184</ele>
        <time>2022-02-27T09:28:52.613Z</time>
      </trkpt>
      <trkpt lat="41.94346" lon="25.80633">
        <ele>218.935064</ele>
        <time>2022-02-27T09:28:53.625Z</time>
      </trkpt>
      <trkpt lat="41.94347" lon="25.8062">
        <ele>218.504904</ele>
        <time>2022-02-27T09:28:54.649Z</time>
      </trkpt>
      <trkpt lat="41.94348" lon="25.80608">
        <ele>218.097653</ele>
        <time>2022-02-27T09:28:55.617Z</time>
      </trkpt>
      <trkpt lat="41.94351" lon="25.80584">
        <ele>217.28704</ele>
        <time>2022-02-27T09:28:57.636Z</time>
      </trkpt>
      <trkpt lat="41.94353" lon="25.80561">
        <ele>216.499276</ele>
        <time>2022-02-27T09:28:59.622Z</time>
      </trkpt>
      <trkpt lat="41.94355" lon="25.80538">
        <ele>215.726998</ele>
        <time>2022-02-27T09:29:01.619Z</time>
      </trkpt>
      <trkpt lat="41.94356" lon="25.80515">
        <ele>214.932146</ele>
        <time>2022-02-27T09:29:03.628Z</time>
      </trkpt>
      <trkpt lat="41.94356" lon="25.80491">
        <ele>214.137235</ele>
        <time>2022-02-27T09:29:05.631Z</time>
      </trkpt>
      <trkpt lat="41.94356" lon="25.80467">
        <ele>213.328801</ele>
        <time>2022-02-27T09:29:07.618Z</time>
      </trkpt>
      <trkpt lat="41.94356" lon="25.80455">
        <ele>212.920838</ele>
        <time>2022-02-27T09:29:08.628Z</time>
      </trkpt>
      <trkpt lat="41.94355" lon="25.80443">
        <ele>212.505923</ele>
        <time>2022-02-27T09:29:09.628Z</time>
      </trkpt>
      <trkpt lat="41.94354" lon="25.80431">
        <ele>212.095855</ele>
        <time>2022-02-27T09:29:10.604Z</time>
      </trkpt>
      <trkpt lat="41.94353" lon="25.80419">
        <ele>211.687398</ele>
        <time>2022-02-27T09:29:11.633Z</time>
      </trkpt>
      <trkpt lat="41.94351" lon="25.80407">
        <ele>211.263545</ele>
        <time>2022-02-27T09:29:12.628Z</time>
      </trkpt>
      <trkpt lat="41.9435" lon="25.80393">
        <ele>210.795518</ele>
        <time>2022-02-27T09:29:13.623Z</time>
      </trkpt>
      <trkpt lat="41.94349" lon="25.80381">
        <ele>210.347989</ele>
        <time>2022-02-27T09:29:14.606Z</time>
      </trkpt>
      <trkpt lat="41.94347" lon="25.80368">
        <ele>209.909091</ele>
        <time>2022-02-27T09:29:15.625Z</time>
      </trkpt>
      <trkpt lat="41.94345" lon="25.80356">
        <ele>209.464857</ele>
        <time>2022-02-27T09:29:16.621Z</time>
      </trkpt>
      <trkpt lat="41.94343" lon="25.80343">
        <ele>209.014019</ele>
        <time>2022-02-27T09:29:17.668Z</time>
      </trkpt>
      <trkpt lat="41.9434" lon="25.80331">
        <ele>208.558294</ele>
        <time>2022-02-27T09:29:18.612Z</time>
      </trkpt>
      <trkpt lat="41.94337" lon="25.80319">
        <ele>208.107933</ele>
        <time>2022-02-27T09:29:19.612Z</time>
      </trkpt>
      <trkpt lat="41.94334" lon="25.80307">
        <ele>207.66328</ele>
        <time>2022-02-27T09:29:20.617Z</time>
      </trkpt>
      <trkpt lat="41.9433" lon="25.80295">
        <ele>207.211993</ele>
        <time>2022-02-27T09:29:21.629Z</time>
      </trkpt>
      <trkpt lat="41.94327" lon="25.80283">
        <ele>206.761795</ele>
        <time>2022-02-27T09:29:22.629Z</time>
      </trkpt>
      <trkpt lat="41.94323" lon="25.80271">
        <ele>206.319891</ele>
        <time>2022-02-27T09:29:23.629Z</time>
      </trkpt>
      <trkpt lat="41.94319" lon="25.8026">
        <ele>205.872234</ele>
        <time>2022-02-27T09:29:24.661Z</time>
      </trkpt>
      <trkpt lat="41.94314" lon="25.80248">
        <ele>205.421224</ele>
        <time>2022-02-27T09:29:25.628Z</time>
      </trkpt>
      <trkpt lat="41.94309" lon="25.80237">
        <ele>204.971688</ele>
        <time>2022-02-27T09:29:26.648Z</time>
      </trkpt>
      <trkpt lat="41.94305" lon="25.80226">
        <ele>204.522774</ele>
        <time>2022-02-27T09:29:27.632Z</time>
      </trkpt>
      <trkpt lat="41.94299" lon="25.80216">
        <ele>204.07783</ele>
        <time>2022-02-27T09:29:28.654Z</time>
      </trkpt>
      <trkpt lat="41.94294" lon="25.80205">
        <ele>203.636441</ele>
        <time>2022-02-27T09:29:29.614Z</time>
      </trkpt>
      <trkpt lat="41.94289" lon="25.80195">
        <ele>203.203222</ele>
        <time>2022-02-27T09:29:30.629Z</time>
      </trkpt>
      <trkpt lat="41.94278" lon="25.80176">
        <ele>203.513893</ele>
        <time>2022-02-27T09:29:32.636Z</time>
      </trkpt>
      <trkpt lat="41.94268" lon="25.80158">
        <ele>203.840109</ele>
        <time>2022-02-27T09:29:34.620Z</time>
      </trkpt>
      <trkpt lat="41.94258" lon="25.80141">
        <ele>204.148207</ele>
        <time>2022-02-27T09:29:36.623Z</time>
      </trkpt>
      <trkpt lat="41.94248" lon="25.80125">
        <ele>204.436928</ele>
        <time>2022-02-27T09:29:38.621Z</time>
      </trkpt>
      <trkpt lat="41.94239" lon="25.8011">
        <ele>204.708973</ele>
        <time>2022-02-27T09:29:40.628Z</time>
      </trkpt>
      <trkpt lat="41.94231" lon="25.80097">
        <ele>204.956046</ele>
        <time>2022-02-27T09:29:42.623Z</time>
      </trkpt>
      <trkpt lat="41.94224" lon="25.80085">
        <ele>205.160576</ele>
        <time>2022-02-27T09:29:44.634Z</time>
      </trkpt>
      <trkpt lat="41.94217" lon="25.80072">
        <ele>205.394643</ele>
        <time>2022-02-27T09:29:47.615Z</time>
      </trkpt>
      <trkpt lat="41.94211" lon="25.80062">
        <ele>205.574212</ele>
        <time>2022-02-27T09:29:50.647Z</time>
      </trkpt>
      <trkpt lat="41.94205" lon="25.80052">
        <ele>205.751557</ele>
        <time>2022-02-27T09:29:53.620Z</time>
      </trkpt>
      <trkpt lat="41.94198" lon="25.80041">
        <ele>205.961775</ele>
        <time>2022-02-27T09:29:57.640Z</time>
      </trkpt>
      <trkpt lat="41.94192" lon="25.8003">
        <ele>206.150441</ele>
        <time>2022-02-27T09:30:01.621Z</time>
      </trkpt>
      <trkpt lat="41.94186" lon="25.8002">
        <ele>206.333481</ele>
        <time>2022-02-27T09:30:05.623Z</time>
      </trkpt>
      <trkpt lat="41.9418" lon="25.8001">
        <ele>206.519057</ele>
        <time>2022-02-27T09:30:09.615Z</time>
      </trkpt>
      <trkpt lat="41.94174" lon="25.8">
        <ele>207.126882</ele>
        <time>2022-02-27T09:30:13.651Z</time>
      </trkpt>
      <trkpt lat="41.94168" lon="25.79989">
        <ele>208.298522</ele>
        <time>2022-02-27T09:30:18.619Z</time>
      </trkpt>
      <trkpt lat="41.94161" lon="25.79977">
        <ele>209.489036</ele>
        <time>2022-02-27T09:30:23.624Z</time>
      </trkpt>
      <trkpt lat="41.94155" lon="25.79966">
        <ele>210.633331</ele>
        <time>2022-02-27T09:30:28.674Z</time>
      </trkpt>
      <trkpt lat="41.94148" lon="25.79956">
        <ele>211.78683</ele>
        <time>2022-02-27T09:30:33.643Z</time>
      </trkpt>
      <trkpt lat="41.94142" lon="25.79945">
        <ele>212.878625</ele>
        <time>2022-02-27T09:30:38.609Z</time>
      </trkpt>
      <trkpt lat="41.94136" lon="25.79935">
        <ele>213.932291</ele>
        <time>2022-02-27T09:30:43.630Z</time>
      </trkpt>
      <trkpt lat="41.9413" lon="25.79925">
        <ele>214.964895</ele>
        <time>2022-02-27T09:30:48.631Z</time>
      </trkpt>
      <trkpt lat="41.94123" lon="25.79914">
        <ele>216.170196</ele>
        <time>2022-02-27T09:30:54.619Z</time>
      </trkpt>
      <trkpt lat="41.94117" lon="25.79904">
        <ele>217.230189</ele>
        <time>2022-02-27T09:30:59.633Z</time>
      </trkpt>
      <trkpt lat="41.9411" lon="25.79895">
        <ele>218.283847</ele>
        <time>2022-02-27T09:31:05.625Z</time>
      </trkpt>
      <trkpt lat="41.94104" lon="25.79885">
        <ele>219.30136</ele>
        <time>2022-02-27T09:31:10.613Z</time>
      </trkpt>
      <trkpt lat="41.94097" lon="25.79876">
        <ele>220.386319</ele>
        <time>2022-02-27T09:31:16.633Z</time>
      </trkpt>
      <trkpt lat="41.94089" lon="25.79867">
        <ele>221.537359</ele>
        <time>2022-02-27T09:31:22.618Z</time>
      </trkpt>
      <trkpt lat="41.94081" lon="25.79859">
        <ele>222.652322</ele>
        <time>2022-02-27T09:31:28.630Z</time>
      </trkpt>
      <trkpt lat="41.94072" lon="25.79851">
        <ele>223.832785</ele>
        <time>2022-02-27T09:31:34.622Z</time>
      </trkpt>
      <trkpt lat="41.94064" lon="25.79845">
        <ele>224.832593</ele>
        <time>2022-02-27T09:31:39.625Z</time>
      </trkpt>
      <trkpt lat="41.94056" lon="25.79838">
        <ele>225.948957</ele>
        <time>2022-02-27T09:31:44.629Z</time>
      </trkpt>
      <trkpt lat="41.94047" lon="25.79831">
        <ele>226.384688</ele>
        <time>2022-02-27T09:31:50.629Z</time>
      </trkpt>
      <trkpt lat="41.94039" lon="25.79824">
        <ele>226.319633</ele>
        <time>2022-02-27T09:31:55.622Z</time>
      </trkpt>
      <trkpt lat="41.9403" lon="25.79818">
        <ele>226.251613</ele>
        <time>2022-02-27T09:32:01.626Z</time>
      </trkpt>
      <trkpt lat="41.94021" lon="25.79812">
        <ele>226.182274</ele>
        <time>2022-02-27T09:32:07.626Z</time>
      </trkpt>
      <trkpt lat="41.94013" lon="25.79806">
        <ele>226.11528</ele>
        <time>2022-02-27T09:32:13.609Z</time>
      </trkpt>
      <trkpt lat="41.94005" lon="25.79801">
        <ele>226.052128</ele>
        <time>2022-02-27T09:32:19.634Z</time>
      </trkpt>
      <trkpt lat="41.93997" lon="25.79795">
        <ele>225.988407</ele>
        <time>2022-02-27T09:32:25.630Z</time>
      </trkpt>
      <trkpt lat="41.93988" lon="25.7979">
        <ele>225.920421</ele>
        <time>2022-02-27T09:32:31.655Z</time>
      </trkpt>
      <trkpt lat="41.93978" lon="25.79784">
        <ele>225.846234</ele>
        <time>2022-02-27T09:32:38.633Z</time>
      </trkpt>
      <trkpt lat="41.93969" lon="25.79779">
        <ele>225.777391</ele>
        <time>2022-02-27T09:32:43.630Z</time>
      </trkpt>
      <trkpt lat="41.93959" lon="25.79774">
        <ele>225.700602</ele>
        <time>2022-02-27T09:32:48.620Z</time>
      </trkpt>
      <trkpt lat="41.9395" lon="25.7977">
        <ele>225.632438</ele>
        <time>2022-02-27T09:32:54.619Z</time>
      </trkpt>
      <trkpt lat="41.93941" lon="25.79768">
        <ele>225.567262</ele>
        <time>2022-02-27T09:32:59.622Z</time>
      </trkpt>
      <trkpt lat="41.93931" lon="25.79766">
        <ele>225.497243</ele>
        <time>2022-02-27T09:33:04.659Z</time>
      </trkpt>
      <trkpt lat="41.9392" lon="25.79765">
        <ele>225.423999</ele>
        <time>2022-02-27T09:33:10.633Z</time>
      </trkpt>
      <trkpt lat="41.93911" lon="25.79765">
        <ele>225.360034</ele>
        <time>2022-02-27T09:33:16.624Z</time>
      </trkpt>
      <trkpt lat="41.93901" lon="25.79766">
        <ele>225.287575</ele>
        <time>2022-02-27T09:33:22.627Z</time>
      </trkpt>
      <trkpt lat="41.93891" lon="25.79767">
        <ele>225.215339</ele>
        <time>2022-02-27T09:33:28.625Z</time>
      </trkpt>
      <trkpt lat="41.93881" lon="25.79768">
        <ele>225.325185</ele>
        <time>2022-02-27T09:33:34.629Z</time>
      </trkpt>
      <trkpt lat="41.93871" lon="25.79771">
        <ele>225.898069</ele>
        <time>2022-02-27T09:33:41.638Z</time>
      </trkpt>
      <trkpt lat="41.93861" lon="25.79773">
        <ele>226.432496</ele>
        <time>2022-02-27T09:33:47.619Z</time>
      </trkpt>
      <trkpt lat="41.93852" lon="25.79775">
        <ele>226.964442</ele>
        <time>2022-02-27T09:33:54.620Z</time>
      </trkpt>
      <trkpt lat="41.93842" lon="25.79777">
        <ele>227.530864</ele>
        <time>2022-02-27T09:34:00.644Z</time>
      </trkpt>
      <trkpt lat="41.93832" lon="25.79778">
        <ele>228.106342</ele>
        <time>2022-02-27T09:34:06.631Z</time>
      </trkpt>
      <trkpt lat="41.93823" lon="25.79781">
        <ele>228.632758</ele>
        <time>2022-02-27T09:34:12.627Z</time>
      </trkpt>
      <trkpt lat="41.93813" lon="25.79783">
        <ele>229.183142</ele>
        <time>2022-02-27T09:34:20.646Z</time>
      </trkpt>
      <trkpt lat="41.93804" lon="25.79785">
        <ele>229.693461</ele>
        <time>2022-02-27T09:34:26.621Z</time>
      </trkpt>
      <trkpt lat="41.93795" lon="25.79786">
        <ele>230.213222</ele>
        <time>2022-02-27T09:34:32.629Z</time>
      </trkpt>
      <trkpt lat="41.93785" lon="25.79786">
        <ele>230.740486</ele>
        <time>2022-02-27T09:34:38.632Z</time>
      </trkpt>
      <trkpt lat="41.93775" lon="25.79785">
        <ele>231.315116</ele>
        <time>2022-02-27T09:34:45.631Z</time>
      </trkpt>
      <trkpt lat="41.93766" lon="25.79783">
        <ele>231.851584</ele>
        <time>2022-02-27T09:34:51.617Z</time>
      </trkpt>
      <trkpt lat="41.93756" lon="25.79781">
        <ele>232.381187</ele>
        <time>2022-02-27T09:34:57.632Z</time>
      </trkpt>
      <trkpt lat="41.93746" lon="25.79778">
        <ele>232.95129</ele>
        <time>2022-02-27T09:35:04.621Z</time>
      </trkpt>
      <trkpt lat="41.93737" lon="25.79774">
        <ele>233.48163</ele>
        <time>2022-02-27T09:35:10.660Z</time>
      </trkpt>
      <trkpt lat="41.93728" lon="25.79769">
        <ele>234.036197</ele>
        <time>2022-02-27T09:35:16.609Z</time>
      </trkpt>
      <trkpt lat="41.93719" lon="25.79764">
        <ele>234.573654</ele>
        <time>2022-02-27T09:35:22.611Z</time>
      </trkpt>
      <trkpt lat="41.93711" lon="25.79758">
        <ele>235.083424</ele>
        <time>2022-02-27T09:35:27.631Z</time>
      </trkpt>
      <trkpt lat="41.93703" lon="25.79751">
        <ele>235.150836</ele>
        <time>2022-02-27T09:35:33.613Z</time>
      </trkpt>
      <trkpt lat="41.93694" lon="25.79743">
        <ele>235.013073</ele>
        <time>2022-02-27T09:35:39.618Z</time>
      </trkpt>
      <trkpt lat="41.93687" lon="25.79735">
        <ele>234.876298</ele>
        <time>2022-02-27T09:35:45.618Z</time>
      </trkpt>
      <trkpt lat="41.93679" lon="25.79726">
        <ele>234.741637</ele>
        <time>2022-02-27T09:35:51.635Z</time>
      </trkpt>
      <trkpt lat="41.93672" lon="25.79716">
        <ele>234.596898</ele>
        <time>2022-02-27T09:35:57.619Z</time>
      </trkpt>
      <trkpt lat="41.93665" lon="25.79706">
        <ele>234.451952</ele>
        <time>2022-02-27T09:36:03.624Z</time>
      </trkpt>
      <trkpt lat="41.93658" lon="25.79695">
        <ele>234.31381</ele>
        <time>2022-02-27T09:36:08.630Z</time>
      </trkpt>
      <trkpt lat="41.93653" lon="25.79685">
        <ele>234.18152</ele>
        <time>2022-02-27T09:36:12.625Z</time>
      </trkpt>
      <trkpt lat="41.93647" lon="25.79675">
        <ele>234.051699</ele>
        <time>2022-02-27T09:36:16.611Z</time>
      </trkpt>
      <trkpt lat="41.9364" lon="25.79663">
        <ele>233.89805</ele>
        <time>2022-02-27T09:36:20.621Z</time>
      </trkpt>
      <trkpt lat="41.93635" lon="25.79652">
        <ele>233.770638</ele>
        <time>2022-02-27T09:36:23.633Z</time>
      </trkpt>
      <trkpt lat="41.93629" lon="25.79641">
        <ele>233.628272</ele>
        <time>2022-02-27T09:36:26.633Z</time>
      </trkpt>
      <trkpt lat="41.93623" lon="25.79627">
        <ele>233.460373</ele>
        <time>2022-02-27T09:36:29.618Z</time>
      </trkpt>
      <trkpt lat="41.93615" lon="25.79612">
        <ele>233.273488</ele>
        <time>2022-02-27T09:36:32.620Z</time>
      </trkpt>
      <trkpt lat="41.9361" lon="25.79601">
        <ele>233.139883</ele>
        <time>2022-02-27T09:36:34.634Z</time>
      </trkpt>
      <trkpt lat="41.93605" lon="25.79588">
        <ele>232.993887</ele>
        <time>2022-02-27T09:36:36.620Z</time>
      </trkpt>
      <trkpt lat="41.93599" lon="25.79575">
        <ele>232.841116</ele>
        <time>2022-02-27T09:36:38.653Z</time>
      </trkpt>
      <trkpt lat="41.93593" lon="25.79563">
        <ele>232.627311</ele>
        <time>2022-02-27T09:36:40.649Z</time>
      </trkpt>
      <trkpt lat="41.93587" lon="25.79549">
        <ele>232.340589</ele>
        <time>2022-02-27T09:36:42.631Z</time>
      </trkpt>
      <trkpt lat="41.9358" lon="25.79534">
        <ele>232.048499</ele>
        <time>2022-02-27T09:36:44.621Z</time>
      </trkpt>
      <trkpt lat="41.93573" lon="25.79519">
        <ele>231.741243</ele>
        <time>2022-02-27T09:36:46.607Z</time>
      </trkpt>
      <trkpt lat="41.93566" lon="25.79501">
        <ele>231.393249</ele>
        <time>2022-02-27T09:36:48.612Z</time>
      </trkpt>
      <trkpt lat="41.93557" lon="25.79485">
        <ele>231.032992</ele>
        <time>2022-02-27T09:36:50.634Z</time>
      </trkpt>
      <trkpt lat="41.93546" lon="25.79469">
        <ele>230.669682</ele>
        <time>2022-02-27T09:36:52.614Z</time>
      </trkpt>
      <trkpt lat="41.93534" lon="25.79454">
        <ele>230.280475</ele>
        <time>2022-02-27T09:36:54.640Z</time>
      </trkpt>
      <trkpt lat="41.9352" lon="25.79439">
        <ele>229.877812</ele>
        <time>2022-02-27T09:36:56.636Z</time>
      </trkpt>
      <trkpt lat="41.93505" lon="25.79427">
        <ele>229.470814</ele>
        <time>2022-02-27T09:36:58.611Z</time>
      </trkpt>
      <trkpt lat="41.9349" lon="25.79418">
        <ele>229.085828</ele>
        <time>2022-02-27T09:37:00.650Z</time>
      </trkpt>
      <trkpt lat="41.93474" lon="25.79411">
        <ele>228.685767</ele>
        <time>2022-02-27T09:37:02.624Z</time>
      </trkpt>
      <trkpt lat="41.93465" lon="25.79407">
        <ele>228.4545</ele>
        <time>2022-02-27T09:37:03.628Z</time>
      </trkpt>
      <trkpt lat="41.93456" lon="25.79404">
        <ele>228.208501</ele>
        <time>2022-02-27T09:37:04.604Z</time>
      </trkpt>
      <trkpt lat="41.93447" lon="25.79402">
        <ele>227.957379</ele>
        <time>2022-02-27T09:37:05.628Z</time>
      </trkpt>
      <trkpt lat="41.93438" lon="25.79401">
        <ele>227.710593</ele>
        <time>2022-02-27T09:37:06.626Z</time>
      </trkpt>
      <trkpt lat="41.93429" lon="25.79399">
        <ele>227.469094</ele>
        <time>2022-02-27T09:37:07.634Z</time>
      </trkpt>
      <trkpt lat="41.93411" lon="25.79397">
        <ele>227.001399</ele>
        <time>2022-02-27T09:37:09.616Z</time>
      </trkpt>
      <trkpt lat="41.93394" lon="25.79395">
        <ele>226.533868</ele>
        <time>2022-02-27T09:37:11.652Z</time>
      </trkpt>
      <trkpt lat="41.93385" lon="25.79395">
        <ele>226.29125</ele>
        <time>2022-02-27T09:37:12.627Z</time>
      </trkpt>
      <trkpt lat="41.93375" lon="25.79394">
        <ele>226.048526</ele>
        <time>2022-02-27T09:37:13.608Z</time>
      </trkpt>
      <trkpt lat="41.93365" lon="25.79393">
        <ele>225.779103</ele>
        <time>2022-02-27T09:37:14.657Z</time>
      </trkpt>
      <trkpt lat="41.93356" lon="25.79392">
        <ele>225.525497</ele>
        <time>2022-02-27T09:37:15.616Z</time>
      </trkpt>
      <trkpt lat="41.93346" lon="25.79391">
        <ele>225.266578</ele>
        <time>2022-02-27T09:37:16.604Z</time>
      </trkpt>
      <trkpt lat="41.93336" lon="25.79391">
        <ele>224.997155</ele>
        <time>2022-02-27T09:37:17.617Z</time>
      </trkpt>
      <trkpt lat="41.93326" lon="25.7939">
        <ele>224.735579</ele>
        <time>2022-02-27T09:37:18.625Z</time>
      </trkpt>
      <trkpt lat="41.93316" lon="25.79389">
        <ele>224.474131</ele>
        <time>2022-02-27T09:37:19.621Z</time>
      </trkpt>
      <trkpt lat="41.93307" lon="25.79388">
        <ele>224.228748</ele>
        <time>2022-02-27T09:37:20.633Z</time>
      </trkpt>
      <trkpt lat="41.93298" lon="25.79388">
        <ele>223.983366</ele>
        <time>2022-02-27T09:37:21.629Z</time>
      </trkpt>
      <trkpt lat="41.93289" lon="25.79387">
        <ele>223.656029</ele>
        <time>2022-02-27T09:37:22.659Z</time>
      </trkpt>
      <trkpt lat="41.9328" lon="25.79386">
        <ele>223.17825</ele>
        <time>2022-02-27T09:37:23.636Z</time>
      </trkpt>
      <trkpt lat="41.93271" lon="25.79385">
        <ele>222.695197</ele>
        <time>2022-02-27T09:37:24.623Z</time>
      </trkpt>
      <trkpt lat="41.93261" lon="25.79384">
        <ele>222.202163</ele>
        <time>2022-02-27T09:37:25.612Z</time>
      </trkpt>
      <trkpt lat="41.93244" lon="25.79383">
        <ele>221.285229</ele>
        <time>2022-02-27T09:37:27.621Z</time>
      </trkpt>
      <trkpt lat="41.93227" lon="25.79381">
        <ele>220.394447</ele>
        <time>2022-02-27T09:37:29.623Z</time>
      </trkpt>
      <trkpt lat="41.93212" lon="25.7938">
        <ele>219.594392</ele>
        <time>2022-02-27T09:37:31.620Z</time>
      </trkpt>
      <trkpt lat="41.93196" lon="25.79381">
        <ele>218.736219</ele>
        <time>2022-02-27T09:37:33.659Z</time>
      </trkpt>
      <trkpt lat="41.93179" lon="25.79384">
        <ele>217.839586</ele>
        <time>2022-02-27T09:37:35.629Z</time>
      </trkpt>
      <trkpt lat="41.93163" lon="25.79388">
        <ele>216.979976</ele>
        <time>2022-02-27T09:37:37.609Z</time>
      </trkpt>
      <trkpt lat="41.93146" lon="25.79394">
        <ele>216.067428</ele>
        <time>2022-02-27T09:37:39.612Z</time>
      </trkpt>
      <trkpt lat="41.93129" lon="25.79402">
        <ele>215.105557</ele>
        <time>2022-02-27T09:37:41.630Z</time>
      </trkpt>
      <trkpt lat="41.9312" lon="25.79407">
        <ele>214.601618</ele>
        <time>2022-02-27T09:37:42.620Z</time>
      </trkpt>
      <trkpt lat="41.93112" lon="25.79413">
        <ele>214.076368</ele>
        <time>2022-02-27T09:37:43.628Z</time>
      </trkpt>
      <trkpt lat="41.93103" lon="25.79418">
        <ele>213.519463</ele>
        <time>2022-02-27T09:37:44.671Z</time>
      </trkpt>
      <trkpt lat="41.93094" lon="25.79424">
        <ele>212.947826</ele>
        <time>2022-02-27T09:37:45.637Z</time>
      </trkpt>
      <trkpt lat="41.93085" lon="25.79431">
        <ele>212.340661</ele>
        <time>2022-02-27T09:37:46.637Z</time>
      </trkpt>
      <trkpt lat="41.93076" lon="25.79437">
        <ele>211.749692</ele>
        <time>2022-02-27T09:37:47.629Z</time>
      </trkpt>
      <trkpt lat="41.93067" lon="25.79443">
        <ele>211.185154</ele>
        <time>2022-02-27T09:37:48.612Z</time>
      </trkpt>
      <trkpt lat="41.93059" lon="25.79449">
        <ele>210.635968</ele>
        <time>2022-02-27T09:37:49.616Z</time>
      </trkpt>
      <trkpt lat="41.93044" lon="25.79459">
        <ele>209.67769</ele>
        <time>2022-02-27T09:37:51.630Z</time>
      </trkpt>
      <trkpt lat="41.93033" lon="25.79467">
        <ele>208.937203</ele>
        <time>2022-02-27T09:37:53.618Z</time>
      </trkpt>
      <trkpt lat="41.93024" lon="25.79474">
        <ele>208.349364</ele>
        <time>2022-02-27T09:37:55.617Z</time>
      </trkpt>
      <trkpt lat="41.93012" lon="25.79482">
        <ele>207.580464</ele>
        <time>2022-02-27T09:37:58.621Z</time>
      </trkpt>
      <trkpt lat="41.93002" lon="25.79489">
        <ele>206.964162</ele>
        <time>2022-02-27T09:38:00.626Z</time>
      </trkpt>
      <trkpt lat="41.92992" lon="25.79496">
        <ele>206.277678</ele>
        <time>2022-02-27T09:38:02.627Z</time>
      </trkpt>
      <trkpt lat="41.92981" lon="25.79504">
        <ele>205.555605</ele>
        <time>2022-02-27T09:38:04.614Z</time>
      </trkpt>
      <trkpt lat="41.92968" lon="25.79513">
        <ele>204.746048</ele>
        <time>2022-02-27T09:38:06.625Z</time>
      </trkpt>
      <trkpt lat="41.92955" lon="25.79523">
        <ele>203.870432</ele>
        <time>2022-02-27T09:38:08.615Z</time>
      </trkpt>
      <trkpt lat="41.92941" lon="25.79532">
        <ele>202.957238</ele>
        <time>2022-02-27T09:38:10.617Z</time>
      </trkpt>
      <trkpt lat="41.92925" lon="25.79543">
        <ele>201.984872</ele>
        <time>2022-02-27T09:38:12.624Z</time>
      </trkpt>
      <trkpt lat="41.9291" lon="25.79554">
        <ele>201.001648</ele>
        <time>2022-02-27T09:38:14.621Z</time>
      </trkpt>
      <trkpt lat="41.92894" lon="25.79566">
        <ele>200.009497</ele>
        <time>2022-02-27T09:38:16.627Z</time>
      </trkpt>
      <trkpt lat="41.92886" lon="25.79571">
        <ele>199.498887</ele>
        <time>2022-02-27T09:38:17.620Z</time>
      </trkpt>
      <trkpt lat="41.92878" lon="25.79576">
        <ele>198.976767</ele>
        <time>2022-02-27T09:38:18.656Z</time>
      </trkpt>
      <trkpt lat="41.92869" lon="25.79582">
        <ele>198.432192</ele>
        <time>2022-02-27T09:38:19.610Z</time>
      </trkpt>
      <trkpt lat="41.9286" lon="25.79586">
        <ele>197.890824</ele>
        <time>2022-02-27T09:38:20.619Z</time>
      </trkpt>
      <trkpt lat="41.92851" lon="25.7959">
        <ele>197.365922</ele>
        <time>2022-02-27T09:38:21.631Z</time>
      </trkpt>
      <trkpt lat="41.92842" lon="25.79592">
        <ele>196.855979</ele>
        <time>2022-02-27T09:38:22.613Z</time>
      </trkpt>
      <trkpt lat="41.92832" lon="25.79593">
        <ele>196.300515</ele>
        <time>2022-02-27T09:38:23.624Z</time>
      </trkpt>
      <trkpt lat="41.92822" lon="25.79594">
        <ele>195.742472</ele>
        <time>2022-02-27T09:38:24.624Z</time>
      </trkpt>
      <trkpt lat="41.92812" lon="25.79594">
        <ele>195.156568</ele>
        <time>2022-02-27T09:38:25.628Z</time>
      </trkpt>
      <trkpt lat="41.92802" lon="25.79592">
        <ele>194.559868</ele>
        <time>2022-02-27T09:38:26.626Z</time>
      </trkpt>
      <trkpt lat="41.92792" lon="25.79589">
        <ele>193.984257</ele>
        <time>2022-02-27T09:38:27.641Z</time>
      </trkpt>
      <trkpt lat="41.92782" lon="25.79585">
        <ele>193.439324</ele>
        <time>2022-02-27T09:38:28.630Z</time>
      </trkpt>
      <trkpt lat="41.92766" lon="25.79575">
        <ele>192.409481</ele>
        <time>2022-02-27T09:38:30.628Z</time>
      </trkpt>
      <trkpt lat="41.92758" lon="25.79568">
        <ele>191.880651</ele>
        <time>2022-02-27T09:38:31.618Z</time>
      </trkpt>
      <trkpt lat="41.9275" lon="25.7956">
        <ele>191.323601</ele>
        <time>2022-02-27T09:38:32.633Z</time>
      </trkpt>
      <trkpt lat="41.92742" lon="25.79552">
        <ele>190.755123</ele>
        <time>2022-02-27T09:38:33.620Z</time>
      </trkpt>
      <trkpt lat="41.92735" lon="25.79542">
        <ele>190.171693</ele>
        <time>2022-02-27T09:38:34.634Z</time>
      </trkpt>
      <trkpt lat="41.92727" lon="25.79532">
        <ele>189.572523</ele>
        <time>2022-02-27T09:38:35.621Z</time>
      </trkpt>
      <trkpt lat="41.92721" lon="25.79521">
        <ele>188.967427</ele>
        <time>2022-02-27T09:38:36.621Z</time>
      </trkpt>
      <trkpt lat="41.92715" lon="25.79509">
        <ele>188.35528</ele>
        <time>2022-02-27T09:38:37.621Z</time>
      </trkpt>
      <trkpt lat="41.9271" lon="25.79496">
        <ele>187.760175</ele>
        <time>2022-02-27T09:38:38.621Z</time>
      </trkpt>
      <trkpt lat="41.92706" lon="25.79484">
        <ele>187.188635</ele>
        <time>2022-02-27T09:38:39.611Z</time>
      </trkpt>
      <trkpt lat="41.92702" lon="25.79471">
        <ele>186.588555</ele>
        <time>2022-02-27T09:38:40.663Z</time>
      </trkpt>
      <trkpt lat="41.92699" lon="25.79458">
        <ele>186.016915</ele>
        <time>2022-02-27T09:38:41.604Z</time>
      </trkpt>
      <trkpt lat="41.92697" lon="25.79445">
        <ele>185.458186</ele>
        <time>2022-02-27T09:38:42.644Z</time>
      </trkpt>
      <trkpt lat="41.92694" lon="25.79431">
        <ele>184.873149</ele>
        <time>2022-02-27T09:38:43.630Z</time>
      </trkpt>
      <trkpt lat="41.92693" lon="25.79418">
        <ele>184.317198</ele>
        <time>2022-02-27T09:38:44.617Z</time>
      </trkpt>
      <trkpt lat="41.92691" lon="25.79405">
        <ele>183.759765</ele>
        <time>2022-02-27T09:38:45.615Z</time>
      </trkpt>
      <trkpt lat="41.9269" lon="25.79392">
        <ele>183.265824</ele>
        <time>2022-02-27T09:38:46.694Z</time>
      </trkpt>
      <trkpt lat="41.92689" lon="25.79379">
        <ele>182.798621</ele>
        <time>2022-02-27T09:38:47.619Z</time>
      </trkpt>
      <trkpt lat="41.92688" lon="25.79367">
        <ele>182.346875</ele>
        <time>2022-02-27T09:38:48.630Z</time>
      </trkpt>
      <trkpt lat="41.92686" lon="25.79354">
        <ele>181.893895</ele>
        <time>2022-02-27T09:38:49.624Z</time>
      </trkpt>
      <trkpt lat="41.92684" lon="25.7933">
        <ele>181.026033</ele>
        <time>2022-02-27T09:38:51.639Z</time>
      </trkpt>
      <trkpt lat="41.92682" lon="25.79307">
        <ele>180.18013</ele>
        <time>2022-02-27T09:38:53.631Z</time>
      </trkpt>
      <trkpt lat="41.9268" lon="25.79284">
        <ele>179.375097</ele>
        <time>2022-02-27T09:38:55.625Z</time>
      </trkpt>
      <trkpt lat="41.92679" lon="25.79263">
        <ele>178.610806</ele>
        <time>2022-02-27T09:38:57.668Z</time>
      </trkpt>
      <trkpt lat="41.92677" lon="25.79243">
        <ele>177.897839</ele>
        <time>2022-02-27T09:38:59.637Z</time>
      </trkpt>
      <trkpt lat="41.92676" lon="25.79223">
        <ele>177.181294</ele>
        <time>2022-02-27T09:39:01.629Z</time>
      </trkpt>
      <trkpt lat="41.92675" lon="25.79205">
        <ele>176.530244</ele>
        <time>2022-02-27T09:39:03.629Z</time>
      </trkpt>
      <trkpt lat="41.92674" lon="25.79188">
        <ele>175.921795</ele>
        <time>2022-02-27T09:39:05.622Z</time>
      </trkpt>
      <trkpt lat="41.92673" lon="25.79172">
        <ele>175.320501</ele>
        <time>2022-02-27T09:39:07.628Z</time>
      </trkpt>
      <trkpt lat="41.92672" lon="25.79156">
        <ele>174.994801</ele>
        <time>2022-02-27T09:39:09.618Z</time>
      </trkpt>
      <trkpt lat="41.92671" lon="25.79142">
        <ele>175.175568</ele>
        <time>2022-02-27T09:39:11.639Z</time>
      </trkpt>
      <trkpt lat="41.92671" lon="25.79129">
        <ele>175.338148</ele>
        <time>2022-02-27T09:39:13.627Z</time>
      </trkpt>
      <trkpt lat="41.9267" lon="25.79116">
        <ele>175.497285</ele>
        <time>2022-02-27T09:39:15.624Z</time>
      </trkpt>
      <trkpt lat="41.92669" lon="25.79103">
        <ele>175.670202</ele>
        <time>2022-02-27T09:39:17.622Z</time>
      </trkpt>
      <trkpt lat="41.92668" lon="25.79089">
        <ele>175.847505</ele>
        <time>2022-02-27T09:39:19.614Z</time>
      </trkpt>
      <trkpt lat="41.92667" lon="25.79076">
        <ele>176.01454</ele>
        <time>2022-02-27T09:39:21.624Z</time>
      </trkpt>
      <trkpt lat="41.92667" lon="25.79064">
        <ele>176.168254</ele>
        <time>2022-02-27T09:39:23.630Z</time>
      </trkpt>
      <trkpt lat="41.92665" lon="25.79047">
        <ele>176.381419</ele>
        <time>2022-02-27T09:39:26.626Z</time>
      </trkpt>
      <trkpt lat="41.92664" lon="25.79033">
        <ele>176.565978</ele>
        <time>2022-02-27T09:39:29.623Z</time>
      </trkpt>
      <trkpt lat="41.92663" lon="25.79017">
        <ele>176.764584</ele>
        <time>2022-02-27T09:39:32.625Z</time>
      </trkpt>
      <trkpt lat="41.92663" lon="25.79001">
        <ele>176.96155</ele>
        <time>2022-02-27T09:39:35.619Z</time>
      </trkpt>
      <trkpt lat="41.92662" lon="25.78987">
        <ele>177.151035</ele>
        <time>2022-02-27T09:39:38.627Z</time>
      </trkpt>
      <trkpt lat="41.92662" lon="25.78971">
        <ele>177.354045</ele>
        <time>2022-02-27T09:39:41.635Z</time>
      </trkpt>
      <trkpt lat="41.92661" lon="25.78955">
        <ele>177.556593</ele>
        <time>2022-02-27T09:39:44.633Z</time>
      </trkpt>
      <trkpt lat="41.9266" lon="25.78939">
        <ele>177.75367</ele>
        <time>2022-02-27T09:39:47.660Z</time>
      </trkpt>
      <trkpt lat="41.92659" lon="25.78924">
        <ele>177.942786</ele>
        <time>2022-02-27T09:39:50.611Z</time>
      </trkpt>
      <trkpt lat="41.92658" lon="25.78909">
        <ele>178.151066</ele>
        <time>2022-02-27T09:39:53.631Z</time>
      </trkpt>
      <trkpt lat="41.92657" lon="25.78895">
        <ele>178.363917</ele>
        <time>2022-02-27T09:39:56.640Z</time>
      </trkpt>
      <trkpt lat="41.92656" lon="25.78879">
        <ele>178.583596</ele>
        <time>2022-02-27T09:39:59.619Z</time>
      </trkpt>
      <trkpt lat="41.92655" lon="25.78864">
        <ele>178.801838</ele>
        <time>2022-02-27T09:40:02.626Z</time>
      </trkpt>
      <trkpt lat="41.92654" lon="25.78849">
        <ele>179.020424</ele>
        <time>2022-02-27T09:40:05.618Z</time>
      </trkpt>
      <trkpt lat="41.92653" lon="25.78835">
        <ele>179.2299</ele>
        <time>2022-02-27T09:40:08.623Z</time>
      </trkpt>
      <trkpt lat="41.92653" lon="25.7882">
        <ele>179.442248</ele>
        <time>2022-02-27T09:40:11.626Z</time>
      </trkpt>
      <trkpt lat="41.92652" lon="25.78805">
        <ele>179.657967</ele>
        <time>2022-02-27T09:40:14.649Z</time>
      </trkpt>
      <trkpt lat="41.92651" lon="25.7879">
        <ele>179.872068</ele>
        <time>2022-02-27T09:40:17.617Z</time>
      </trkpt>
      <trkpt lat="41.9265" lon="25.78776">
        <ele>180.077233</ele>
        <time>2022-02-27T09:40:20.631Z</time>
      </trkpt>
      <trkpt lat="41.92649" lon="25.78761">
        <ele>180.300752</ele>
        <time>2022-02-27T09:40:23.631Z</time>
      </trkpt>
      <trkpt lat="41.92649" lon="25.78745">
        <ele>180.528588</ele>
        <time>2022-02-27T09:40:26.632Z</time>
      </trkpt>
      <trkpt lat="41.92648" lon="25.78729">
        <ele>180.763495</ele>
        <time>2022-02-27T09:40:29.620Z</time>
      </trkpt>
      <trkpt lat="41.92648" lon="25.78713">
        <ele>180.991652</ele>
        <time>2022-02-27T09:40:32.617Z</time>
      </trkpt>
      <trkpt lat="41.92646" lon="25.78697">
        <ele>181.214944</ele>
        <time>2022-02-27T09:40:35.673Z</time>
      </trkpt>
      <trkpt lat="41.92646" lon="25.78681">
        <ele>181.44431</ele>
        <time>2022-02-27T09:40:38.637Z</time>
      </trkpt>
      <trkpt lat="41.92644" lon="25.78666">
        <ele>181.591853</ele>
        <time>2022-02-27T09:40:41.639Z</time>
      </trkpt>
      <trkpt lat="41.92643" lon="25.78652">
        <ele>181.715161</ele>
        <time>2022-02-27T09:40:44.633Z</time>
      </trkpt>
      <trkpt lat="41.92643" lon="25.78637">
        <ele>181.838744</ele>
        <time>2022-02-27T09:40:47.624Z</time>
      </trkpt>
      <trkpt lat="41.92641" lon="25.78622">
        <ele>181.965435</ele>
        <time>2022-02-27T09:40:50.662Z</time>
      </trkpt>
      <trkpt lat="41.92641" lon="25.78607">
        <ele>182.095108</ele>
        <time>2022-02-27T09:40:53.632Z</time>
      </trkpt>
      <trkpt lat="41.9264" lon="25.78592">
        <ele>182.223267</ele>
        <time>2022-02-27T09:40:56.629Z</time>
      </trkpt>
      <trkpt lat="41.92639" lon="25.78577">
        <ele>182.354074</ele>
        <time>2022-02-27T09:40:59.647Z</time>
      </trkpt>
      <trkpt lat="41.92637" lon="25.78561">
        <ele>182.490075</ele>
        <time>2022-02-27T09:41:02.617Z</time>
      </trkpt>
      <trkpt lat="41.92637" lon="25.78544">
        <ele>182.631635</ele>
        <time>2022-02-27T09:41:05.626Z</time>
      </trkpt>
      <trkpt lat="41.92636" lon="25.78528">
        <ele>182.768181</ele>
        <time>2022-02-27T09:41:08.699Z</time>
      </trkpt>
      <trkpt lat="41.92635" lon="25.78512">
        <ele>182.904645</ele>
        <time>2022-02-27T09:41:11.627Z</time>
      </trkpt>
      <trkpt lat="41.92634" lon="25.78496">
        <ele>183.047219</ele>
        <time>2022-02-27T09:41:14.670Z</time>
      </trkpt>
      <trkpt lat="41.92634" lon="25.78483">
        <ele>183.150246</ele>
        <time>2022-02-27T09:41:16.638Z</time>
      </trkpt>
      <trkpt lat="41.92632" lon="25.78465">
        <ele>183.304037</ele>
        <time>2022-02-27T09:41:19.646Z</time>
      </trkpt>
      <trkpt lat="41.92632" lon="25.78448">
        <ele>183.450625</ele>
        <time>2022-02-27T09:41:22.630Z</time>
      </trkpt>
      <trkpt lat="41.92631" lon="25.78432">
        <ele>183.504763</ele>
        <time>2022-02-27T09:41:25.661Z</time>
      </trkpt>
      <trkpt lat="41.9263" lon="25.78415">
        <ele>183.418241</ele>
        <time>2022-02-27T09:41:28.632Z</time>
      </trkpt>
      <trkpt lat="41.92629" lon="25.78397">
        <ele>183.329803</ele>
        <time>2022-02-27T09:41:31.620Z</time>
      </trkpt>
      <trkpt lat="41.92628" lon="25.78385">
        <ele>183.267809</ele>
        <time>2022-02-27T09:41:33.665Z</time>
      </trkpt>
      <trkpt lat="41.92627" lon="25.78368">
        <ele>183.179573</ele>
        <time>2022-02-27T09:41:36.690Z</time>
      </trkpt>
      <trkpt lat="41.92626" lon="25.7835">
        <ele>183.089569</ele>
        <time>2022-02-27T09:41:39.626Z</time>
      </trkpt>
      <trkpt lat="41.92625" lon="25.78338">
        <ele>183.026754</ele>
        <time>2022-02-27T09:41:41.669Z</time>
      </trkpt>
      <trkpt lat="41.92624" lon="25.7832">
        <ele>182.939372</ele>
        <time>2022-02-27T09:41:44.639Z</time>
      </trkpt>
      <trkpt lat="41.92623" lon="25.78303">
        <ele>182.848685</ele>
        <time>2022-02-27T09:41:47.669Z</time>
      </trkpt>
      <trkpt lat="41.92621" lon="25.78286">
        <ele>182.761657</ele>
        <time>2022-02-27T09:41:50.637Z</time>
      </trkpt>
      <trkpt lat="41.9262" lon="25.78269">
        <ele>182.67766</ele>
        <time>2022-02-27T09:41:53.640Z</time>
      </trkpt>
      <trkpt lat="41.92619" lon="25.78253">
        <ele>182.597763</ele>
        <time>2022-02-27T09:41:56.665Z</time>
      </trkpt>
      <trkpt lat="41.92618" lon="25.78236">
        <ele>182.510736</ele>
        <time>2022-02-27T09:41:59.629Z</time>
      </trkpt>
      <trkpt lat="41.92617" lon="25.78219">
        <ele>182.423764</ele>
        <time>2022-02-27T09:42:02.629Z</time>
      </trkpt>
      <trkpt lat="41.92616" lon="25.78202">
        <ele>182.335781</ele>
        <time>2022-02-27T09:42:05.641Z</time>
      </trkpt>
      <trkpt lat="41.92615" lon="25.78185">
        <ele>182.411208</ele>
        <time>2022-02-27T09:42:08.632Z</time>
      </trkpt>
      <trkpt lat="41.92614" lon="25.78168">
        <ele>182.540979</ele>
        <time>2022-02-27T09:42:11.630Z</time>
      </trkpt>
      <trkpt lat="41.92613" lon="25.78151">
        <ele>182.670214</ele>
        <time>2022-02-27T09:42:14.656Z</time>
      </trkpt>
      <trkpt lat="41.92612" lon="25.78134">
        <ele>182.804889</ele>
        <time>2022-02-27T09:42:17.632Z</time>
      </trkpt>
      <trkpt lat="41.92611" lon="25.78118">
        <ele>182.934035</ele>
        <time>2022-02-27T09:42:20.624Z</time>
      </trkpt>
      <trkpt lat="41.9261" lon="25.78102">
        <ele>183.059136</ele>
        <time>2022-02-27T09:42:23.641Z</time>
      </trkpt>
      <trkpt lat="41.92609" lon="25.78086">
        <ele>183.185015</ele>
        <time>2022-02-27T09:42:26.711Z</time>
      </trkpt>
      <trkpt lat="41.92608" lon="25.78069">
        <ele>183.31408</ele>
        <time>2022-02-27T09:42:29.623Z</time>
      </trkpt>
      <trkpt lat="41.92608" lon="25.78052">
        <ele>183.449057</ele>
        <time>2022-02-27T09:42:32.623Z</time>
      </trkpt>
      <trkpt lat="41.92608" lon="25.78034">
        <ele>183.587922</ele>
        <time>2022-02-27T09:42:35.634Z</time>
      </trkpt>
      <trkpt lat="41.92608" lon="25.78016">
        <ele>183.726783</ele>
        <time>2022-02-27T09:42:38.654Z</time>
      </trkpt>
      <trkpt lat="41.92609" lon="25.77999">
        <ele>183.864228</ele>
        <time>2022-02-27T09:42:41.639Z</time>
      </trkpt>
      <trkpt lat="41.9261" lon="25.77981">
        <ele>184.001785</ele>
        <time>2022-02-27T09:42:44.654Z</time>
      </trkpt>
      <trkpt lat="41.92611" lon="25.77964">
        <ele>184.134906</ele>
        <time>2022-02-27T09:42:47.646Z</time>
      </trkpt>
      <trkpt lat="41.92612" lon="25.77947">
        <ele>184.334983</ele>
        <time>2022-02-27T09:42:50.670Z</time>
      </trkpt>
      <trkpt lat="41.92614" lon="25.7793">
        <ele>184.595715</ele>
        <time>2022-02-27T09:42:53.621Z</time>
      </trkpt>
      <trkpt lat="41.92617" lon="25.77913">
        <ele>184.858177</ele>
        <time>2022-02-27T09:42:56.641Z</time>
      </trkpt>
      <trkpt lat="41.9262" lon="25.77896">
        <ele>185.131807</ele>
        <time>2022-02-27T09:42:59.636Z</time>
      </trkpt>
      <trkpt lat="41.92622" lon="25.77884">
        <ele>185.317026</ele>
        <time>2022-02-27T09:43:01.639Z</time>
      </trkpt>
      <trkpt lat="41.92626" lon="25.77867">
        <ele>185.582329</ele>
        <time>2022-02-27T09:43:04.622Z</time>
      </trkpt>
      <trkpt lat="41.92629" lon="25.7785">
        <ele>185.845772</ele>
        <time>2022-02-27T09:43:07.627Z</time>
      </trkpt>
      <trkpt lat="41.92633" lon="25.77833">
        <ele>186.112994</ele>
        <time>2022-02-27T09:43:10.625Z</time>
      </trkpt>
      <trkpt lat="41.92637" lon="25.77817">
        <ele>186.377025</ele>
        <time>2022-02-27T09:43:13.625Z</time>
      </trkpt>
      <trkpt lat="41.92641" lon="25.77801">
        <ele>186.630442</ele>
        <time>2022-02-27T09:43:16.640Z</time>
      </trkpt>
      <trkpt lat="41.92646" lon="25.77785">
        <ele>186.895856</ele>
        <time>2022-02-27T09:43:19.637Z</time>
      </trkpt>
      <trkpt lat="41.92651" lon="25.77769">
        <ele>187.160627</ele>
        <time>2022-02-27T09:43:22.635Z</time>
      </trkpt>
      <trkpt lat="41.92656" lon="25.77752">
        <ele>187.432123</ele>
        <time>2022-02-27T09:43:25.631Z</time>
      </trkpt>
      <trkpt lat="41.92659" lon="25.77741">
        <ele>187.615796</ele>
        <time>2022-02-27T09:43:27.646Z</time>
      </trkpt>
      <trkpt lat="41.92663" lon="25.7773">
        <ele>187.804648</ele>
        <time>2022-02-27T09:43:29.627Z</time>
      </trkpt>
      <trkpt lat="41.92667" lon="25.77718">
        <ele>187.747703</ele>
        <time>2022-02-27T09:43:31.629Z</time>
      </trkpt>
      <trkpt lat="41.9267" lon="25.77707">
        <ele>187.575794</ele>
        <time>2022-02-27T09:43:33.631Z</time>
      </trkpt>
      <trkpt lat="41.92674" lon="25.77695">
        <ele>187.400547</ele>
        <time>2022-02-27T09:43:35.649Z</time>
      </trkpt>
      <trkpt lat="41.92678" lon="25.77684">
        <ele>187.221959</ele>
        <time>2022-02-27T09:43:37.631Z</time>
      </trkpt>
      <trkpt lat="41.92681" lon="25.77672">
        <ele>187.049291</ele>
        <time>2022-02-27T09:43:39.639Z</time>
      </trkpt>
      <trkpt lat="41.92685" lon="25.77661">
        <ele>186.874792</ele>
        <time>2022-02-27T09:43:41.633Z</time>
      </trkpt>
      <trkpt lat="41.92689" lon="25.77649">
        <ele>186.694365</ele>
        <time>2022-02-27T09:43:43.609Z</time>
      </trkpt>
      <trkpt lat="41.92692" lon="25.77638">
        <ele>186.520409</ele>
        <time>2022-02-27T09:43:45.631Z</time>
      </trkpt>
      <trkpt lat="41.92697" lon="25.77622">
        <ele>186.275311</ele>
        <time>2022-02-27T09:43:48.621Z</time>
      </trkpt>
      <trkpt lat="41.92701" lon="25.77611">
        <ele>186.10487</ele>
        <time>2022-02-27T09:43:50.664Z</time>
      </trkpt>
      <trkpt lat="41.92705" lon="25.77595">
        <ele>185.861181</ele>
        <time>2022-02-27T09:43:53.630Z</time>
      </trkpt>
      <trkpt lat="41.9271" lon="25.77579">
        <ele>185.62474</ele>
        <time>2022-02-27T09:43:56.658Z</time>
      </trkpt>
      <trkpt lat="41.92714" lon="25.77563">
        <ele>185.379097</ele>
        <time>2022-02-27T09:43:59.630Z</time>
      </trkpt>
      <trkpt lat="41.92719" lon="25.77546">
        <ele>185.127509</ele>
        <time>2022-02-27T09:44:02.631Z</time>
      </trkpt>
      <trkpt lat="41.92723" lon="25.7753">
        <ele>184.887737</ele>
        <time>2022-02-27T09:44:05.626Z</time>
      </trkpt>
      <trkpt lat="41.92727" lon="25.77514">
        <ele>184.651244</ele>
        <time>2022-02-27T09:44:08.638Z</time>
      </trkpt>
      <trkpt lat="41.92731" lon="25.77497">
        <ele>184.431401</ele>
        <time>2022-02-27T09:44:11.649Z</time>
      </trkpt>
      <trkpt lat="41.92734" lon="25.7748">
        <ele>184.297342</ele>
        <time>2022-02-27T09:44:14.641Z</time>
      </trkpt>
      <trkpt lat="41.92736" lon="25.77468">
        <ele>184.200744</ele>
        <time>2022-02-27T09:44:16.676Z</time>
      </trkpt>
      <trkpt lat="41.92738" lon="25.77456">
        <ele>184.101882</ele>
        <time>2022-02-27T09:44:18.635Z</time>
      </trkpt>
      <trkpt lat="41.9274" lon="25.77443">
        <ele>184.002488</ele>
        <time>2022-02-27T09:44:20.695Z</time>
      </trkpt>
      <trkpt lat="41.92742" lon="25.77431">
        <ele>183.900812</ele>
        <time>2022-02-27T09:44:22.621Z</time>
      </trkpt>
      <trkpt lat="41.92744" lon="25.77418">
        <ele>183.802794</ele>
        <time>2022-02-27T09:44:24.653Z</time>
      </trkpt>
      <trkpt lat="41.92745" lon="25.77406">
        <ele>183.706063</ele>
        <time>2022-02-27T09:44:26.627Z</time>
      </trkpt>
      <trkpt lat="41.92747" lon="25.77393">
        <ele>183.605164</ele>
        <time>2022-02-27T09:44:28.644Z</time>
      </trkpt>
      <trkpt lat="41.92748" lon="25.7738">
        <ele>183.504589</ele>
        <time>2022-02-27T09:44:30.638Z</time>
      </trkpt>
      <trkpt lat="41.9275" lon="25.77367">
        <ele>183.39832</ele>
        <time>2022-02-27T09:44:32.617Z</time>
      </trkpt>
      <trkpt lat="41.92752" lon="25.77354">
        <ele>183.295883</ele>
        <time>2022-02-27T09:44:34.643Z</time>
      </trkpt>
      <trkpt lat="41.92754" lon="25.77341">
        <ele>183.195941</ele>
        <time>2022-02-27T09:44:36.677Z</time>
      </trkpt>
      <trkpt lat="41.92755" lon="25.77329">
        <ele>183.097513</ele>
        <time>2022-02-27T09:44:38.644Z</time>
      </trkpt>
      <trkpt lat="41.92757" lon="25.77316">
        <ele>182.999679</ele>
        <time>2022-02-27T09:44:40.638Z</time>
      </trkpt>
      <trkpt lat="41.92759" lon="25.77299">
        <ele>182.860344</ele>
        <time>2022-02-27T09:44:43.648Z</time>
      </trkpt>
      <trkpt lat="41.92761" lon="25.77282">
        <ele>182.729312</ele>
        <time>2022-02-27T09:44:46.630Z</time>
      </trkpt>
      <trkpt lat="41.92763" lon="25.77265">
        <ele>182.598586</ele>
        <time>2022-02-27T09:44:49.641Z</time>
      </trkpt>
      <trkpt lat="41.92765" lon="25.77249">
        <ele>182.650055</ele>
        <time>2022-02-27T09:44:52.632Z</time>
      </trkpt>
      <trkpt lat="41.92767" lon="25.77234">
        <ele>182.724289</ele>
        <time>2022-02-27T09:44:55.623Z</time>
      </trkpt>
      <trkpt lat="41.92769" lon="25.77218">
        <ele>182.800624</ele>
        <time>2022-02-27T09:44:58.663Z</time>
      </trkpt>
      <trkpt lat="41.92772" lon="25.77202">
        <ele>182.877292</ele>
        <time>2022-02-27T09:45:01.642Z</time>
      </trkpt>
      <trkpt lat="41.92774" lon="25.77187">
        <ele>182.950721</ele>
        <time>2022-02-27T09:45:04.635Z</time>
      </trkpt>
      <trkpt lat="41.92777" lon="25.77172">
        <ele>183.026816</ele>
        <time>2022-02-27T09:45:07.659Z</time>
      </trkpt>
      <trkpt lat="41.92782" lon="25.77155">
        <ele>183.111465</ele>
        <time>2022-02-27T09:45:10.642Z</time>
      </trkpt>
      <trkpt lat="41.92784" lon="25.77143">
        <ele>183.168645</ele>
        <time>2022-02-27T09:45:12.628Z</time>
      </trkpt>
      <trkpt lat="41.92787" lon="25.77131">
        <ele>183.227126</ele>
        <time>2022-02-27T09:45:14.636Z</time>
      </trkpt>
      <trkpt lat="41.9279" lon="25.77119">
        <ele>183.287846</ele>
        <time>2022-02-27T09:45:16.678Z</time>
      </trkpt>
      <trkpt lat="41.92793" lon="25.77108">
        <ele>183.346123</ele>
        <time>2022-02-27T09:45:18.653Z</time>
      </trkpt>
      <trkpt lat="41.92798" lon="25.77091">
        <ele>183.428325</ele>
        <time>2022-02-27T09:45:21.668Z</time>
      </trkpt>
      <trkpt lat="41.92804" lon="25.77075">
        <ele>183.511615</ele>
        <time>2022-02-27T09:45:24.633Z</time>
      </trkpt>
      <trkpt lat="41.9281" lon="25.7706">
        <ele>183.595023</ele>
        <time>2022-02-27T09:45:27.631Z</time>
      </trkpt>
      <trkpt lat="41.92816" lon="25.77045">
        <ele>183.673843</ele>
        <time>2022-02-27T09:45:30.632Z</time>
      </trkpt>
      <trkpt lat="41.92822" lon="25.77031">
        <ele>183.702806</ele>
        <time>2022-02-27T09:45:33.638Z</time>
      </trkpt>
      <trkpt lat="41.92829" lon="25.77018">
        <ele>183.634837</ele>
        <time>2022-02-27T09:45:36.680Z</time>
      </trkpt>
      <trkpt lat="41.92836" lon="25.77005">
        <ele>183.56448</ele>
        <time>2022-02-27T09:45:39.630Z</time>
      </trkpt>
      <trkpt lat="41.92843" lon="25.76992">
        <ele>183.495183</ele>
        <time>2022-02-27T09:45:42.617Z</time>
      </trkpt>
      <trkpt lat="41.9285" lon="25.7698">
        <ele>183.433402</ele>
        <time>2022-02-27T09:45:45.627Z</time>
      </trkpt>
      <trkpt lat="41.92856" lon="25.7697">
        <ele>183.373932</ele>
        <time>2022-02-27T09:45:48.629Z</time>
      </trkpt>
      <trkpt lat="41.92864" lon="25.76959">
        <ele>183.310908</ele>
        <time>2022-02-27T09:45:51.623Z</time>
      </trkpt>
      <trkpt lat="41.92871" lon="25.76948">
        <ele>183.247114</ele>
        <time>2022-02-27T09:45:54.617Z</time>
      </trkpt>
      <trkpt lat="41.92879" lon="25.76938">
        <ele>183.185089</ele>
        <time>2022-02-27T09:45:57.614Z</time>
      </trkpt>
      <trkpt lat="41.92887" lon="25.76927">
        <ele>183.119927</ele>
        <time>2022-02-27T09:46:00.629Z</time>
      </trkpt>
      <trkpt lat="41.92895" lon="25.76916">
        <ele>183.05466</ele>
        <time>2022-02-27T09:46:03.636Z</time>
      </trkpt>
      <trkpt lat="41.92904" lon="25.76905">
        <ele>182.984301</ele>
        <time>2022-02-27T09:46:06.623Z</time>
      </trkpt>
      <trkpt lat="41.92913" lon="25.76893">
        <ele>182.912259</ele>
        <time>2022-02-27T09:46:09.647Z</time>
      </trkpt>
      <trkpt lat="41.92922" lon="25.7688">
        <ele>182.837686</ele>
        <time>2022-02-27T09:46:12.628Z</time>
      </trkpt>
      <trkpt lat="41.92931" lon="25.76868">
        <ele>182.762204</ele>
        <time>2022-02-27T09:46:15.694Z</time>
      </trkpt>
      <trkpt lat="41.9294" lon="25.76856">
        <ele>182.708796</ele>
        <time>2022-02-27T09:46:18.636Z</time>
      </trkpt>
      <trkpt lat="41.9295" lon="25.76844">
        <ele>183.102258</ele>
        <time>2022-02-27T09:46:21.621Z</time>
      </trkpt>
      <trkpt lat="41.92959" lon="25.76832">
        <ele>183.492913</ele>
        <time>2022-02-27T09:46:24.633Z</time>
      </trkpt>
      <trkpt lat="41.92967" lon="25.76821">
        <ele>183.852713</ele>
        <time>2022-02-27T09:46:27.642Z</time>
      </trkpt>
      <trkpt lat="41.92976" lon="25.7681">
        <ele>184.222363</ele>
        <time>2022-02-27T09:46:30.627Z</time>
      </trkpt>
      <trkpt lat="41.92985" lon="25.76798">
        <ele>184.614237</ele>
        <time>2022-02-27T09:46:33.630Z</time>
      </trkpt>
      <trkpt lat="41.92994" lon="25.76787">
        <ele>184.993487</ele>
        <time>2022-02-27T09:46:36.631Z</time>
      </trkpt>
      <trkpt lat="41.93003" lon="25.76775">
        <ele>185.379328</ele>
        <time>2022-02-27T09:46:39.638Z</time>
      </trkpt>
      <trkpt lat="41.93011" lon="25.76763">
        <ele>185.760762</ele>
        <time>2022-02-27T09:46:42.624Z</time>
      </trkpt>
      <trkpt lat="41.9302" lon="25.76752">
        <ele>186.141202</ele>
        <time>2022-02-27T09:46:45.638Z</time>
      </trkpt>
      <trkpt lat="41.93028" lon="25.76741">
        <ele>186.500954</ele>
        <time>2022-02-27T09:46:48.665Z</time>
      </trkpt>
      <trkpt lat="41.93036" lon="25.76729">
        <ele>186.860706</ele>
        <time>2022-02-27T09:46:51.639Z</time>
      </trkpt>
      <trkpt lat="41.93044" lon="25.76718">
        <ele>187.204123</ele>
        <time>2022-02-27T09:46:54.641Z</time>
      </trkpt>
      <trkpt lat="41.93052" lon="25.76706">
        <ele>187.579007</ele>
        <time>2022-02-27T09:46:57.621Z</time>
      </trkpt>
      <trkpt lat="41.9306" lon="25.76693">
        <ele>187.9674</ele>
        <time>2022-02-27T09:47:00.618Z</time>
      </trkpt>
      <trkpt lat="41.93068" lon="25.76679">
        <ele>188.203327</ele>
        <time>2022-02-27T09:47:03.636Z</time>
      </trkpt>
      <trkpt lat="41.93074" lon="25.76665">
        <ele>188.115569</ele>
        <time>2022-02-27T09:47:06.628Z</time>
      </trkpt>
      <trkpt lat="41.93081" lon="25.76651">
        <ele>188.028695</ele>
        <time>2022-02-27T09:47:09.612Z</time>
      </trkpt>
      <trkpt lat="41.93087" lon="25.76636">
        <ele>187.940763</ele>
        <time>2022-02-27T09:47:12.628Z</time>
      </trkpt>
      <trkpt lat="41.93093" lon="25.76622">
        <ele>187.853698</ele>
        <time>2022-02-27T09:47:15.649Z</time>
      </trkpt>
      <trkpt lat="41.93097" lon="25.76607">
        <ele>187.770596</ele>
        <time>2022-02-27T09:47:18.629Z</time>
      </trkpt>
      <trkpt lat="41.93101" lon="25.76592">
        <ele>187.686349</ele>
        <time>2022-02-27T09:47:21.650Z</time>
      </trkpt>
      <trkpt lat="41.93105" lon="25.76577">
        <ele>187.602313</ele>
        <time>2022-02-27T09:47:24.631Z</time>
      </trkpt>
      <trkpt lat="41.93109" lon="25.76563">
        <ele>187.521029</ele>
        <time>2022-02-27T09:47:27.619Z</time>
      </trkpt>
      <trkpt lat="41.93113" lon="25.76547">
        <ele>187.436763</ele>
        <time>2022-02-27T09:47:30.632Z</time>
      </trkpt>
      <trkpt lat="41.93116" lon="25.76531">
        <ele>187.348069</ele>
        <time>2022-02-27T09:47:33.621Z</time>
      </trkpt>
      <trkpt lat="41.93119" lon="25.76515">
        <ele>187.261764</ele>
        <time>2022-02-27T09:47:36.621Z</time>
      </trkpt>
      <trkpt lat="41.93122" lon="25.76499">
        <ele>187.174166</ele>
        <time>2022-02-27T09:47:39.615Z</time>
      </trkpt>
      <trkpt lat="41.93124" lon="25.76483">
        <ele>187.08716</ele>
        <time>2022-02-27T09:47:42.629Z</time>
      </trkpt>
      <trkpt lat="41.93127" lon="25.76467">
        <ele>187.000822</ele>
        <time>2022-02-27T09:47:45.608Z</time>
      </trkpt>
      <trkpt lat="41.93129" lon="25.7645">
        <ele>186.851582</ele>
        <time>2022-02-27T09:47:48.621Z</time>
      </trkpt>
      <trkpt lat="41.93132" lon="25.76433">
        <ele>186.637247</ele>
        <time>2022-02-27T09:47:51.632Z</time>
      </trkpt>
      <trkpt lat="41.93135" lon="25.76416">
        <ele>186.425766</ele>
        <time>2022-02-27T09:47:54.651Z</time>
      </trkpt>
      <trkpt lat="41.93138" lon="25.76399">
        <ele>186.212735</ele>
        <time>2022-02-27T09:47:57.622Z</time>
      </trkpt>
      <trkpt lat="41.9314" lon="25.76382">
        <ele>186.004978</ele>
        <time>2022-02-27T09:48:00.629Z</time>
      </trkpt>
      <trkpt lat="41.93142" lon="25.76366">
        <ele>185.803198</ele>
        <time>2022-02-27T09:48:03.628Z</time>
      </trkpt>
      <trkpt lat="41.93144" lon="25.76349">
        <ele>185.59458</ele>
        <time>2022-02-27T09:48:06.636Z</time>
      </trkpt>
      <trkpt lat="41.93147" lon="25.76332">
        <ele>185.386839</ele>
        <time>2022-02-27T09:48:09.636Z</time>
      </trkpt>
      <trkpt lat="41.93149" lon="25.76315">
        <ele>185.175751</ele>
        <time>2022-02-27T09:48:12.621Z</time>
      </trkpt>
      <trkpt lat="41.93151" lon="25.76298">
        <ele>184.962659</ele>
        <time>2022-02-27T09:48:15.636Z</time>
      </trkpt>
      <trkpt lat="41.93154" lon="25.7628">
        <ele>184.74718</ele>
        <time>2022-02-27T09:48:18.610Z</time>
      </trkpt>
      <trkpt lat="41.93156" lon="25.76263">
        <ele>184.531411</ele>
        <time>2022-02-27T09:48:21.649Z</time>
      </trkpt>
      <trkpt lat="41.93158" lon="25.76251">
        <ele>184.384484</ele>
        <time>2022-02-27T09:48:23.639Z</time>
      </trkpt>
      <trkpt lat="41.9316" lon="25.76239">
        <ele>184.238092</ele>
        <time>2022-02-27T09:48:25.633Z</time>
      </trkpt>
      <trkpt lat="41.93162" lon="25.76222">
        <ele>184.029043</ele>
        <time>2022-02-27T09:48:28.630Z</time>
      </trkpt>
      <trkpt lat="41.93164" lon="25.76205">
        <ele>184.075929</ele>
        <time>2022-02-27T09:48:31.631Z</time>
      </trkpt>
      <trkpt lat="41.93166" lon="25.76188">
        <ele>184.121794</ele>
        <time>2022-02-27T09:48:34.617Z</time>
      </trkpt>
      <trkpt lat="41.93169" lon="25.76172">
        <ele>184.167726</ele>
        <time>2022-02-27T09:48:37.641Z</time>
      </trkpt>
      <trkpt lat="41.9317" lon="25.76156">
        <ele>184.212976</ele>
        <time>2022-02-27T09:48:40.633Z</time>
      </trkpt>
      <trkpt lat="41.93173" lon="25.7614">
        <ele>184.258168</ele>
        <time>2022-02-27T09:48:43.621Z</time>
      </trkpt>
      <trkpt lat="41.93175" lon="25.76123">
        <ele>184.304782</ele>
        <time>2022-02-27T09:48:46.681Z</time>
      </trkpt>
      <trkpt lat="41.93177" lon="25.76107">
        <ele>184.350191</ele>
        <time>2022-02-27T09:48:49.677Z</time>
      </trkpt>
      <trkpt lat="41.93179" lon="25.76091">
        <ele>184.392882</ele>
        <time>2022-02-27T09:48:52.616Z</time>
      </trkpt>
      <trkpt lat="41.93181" lon="25.76077">
        <ele>184.433809</ele>
        <time>2022-02-27T09:48:55.652Z</time>
      </trkpt>
      <trkpt lat="41.93182" lon="25.76062">
        <ele>184.475569</ele>
        <time>2022-02-27T09:48:58.624Z</time>
      </trkpt>
      <trkpt lat="41.93184" lon="25.76046">
        <ele>184.519201</ele>
        <time>2022-02-27T09:49:01.624Z</time>
      </trkpt>
      <trkpt lat="41.93187" lon="25.7603">
        <ele>184.564932</ele>
        <time>2022-02-27T09:49:04.628Z</time>
      </trkpt>
      <trkpt lat="41.93189" lon="25.76014">
        <ele>184.610341</ele>
        <time>2022-02-27T09:49:07.633Z</time>
      </trkpt>
      <trkpt lat="41.93191" lon="25.75998">
        <ele>184.654311</ele>
        <time>2022-02-27T09:49:10.638Z</time>
      </trkpt>
      <trkpt lat="41.93193" lon="25.75982">
        <ele>184.710285</ele>
        <time>2022-02-27T09:49:13.644Z</time>
      </trkpt>
      <trkpt lat="41.93195" lon="25.75966">
        <ele>184.834338</ele>
        <time>2022-02-27T09:49:16.654Z</time>
      </trkpt>
      <trkpt lat="41.93197" lon="25.7595">
        <ele>184.955031</ele>
        <time>2022-02-27T09:49:19.615Z</time>
      </trkpt>
      <trkpt lat="41.93199" lon="25.75935">
        <ele>185.071095</ele>
        <time>2022-02-27T09:49:22.667Z</time>
      </trkpt>
      <trkpt lat="41.93201" lon="25.75921">
        <ele>185.185848</ele>
        <time>2022-02-27T09:49:25.637Z</time>
      </trkpt>
      <trkpt lat="41.93203" lon="25.75906">
        <ele>185.301543</ele>
        <time>2022-02-27T09:49:28.666Z</time>
      </trkpt>
      <trkpt lat="41.93206" lon="25.75891">
        <ele>185.423191</ele>
        <time>2022-02-27T09:49:31.629Z</time>
      </trkpt>
      <trkpt lat="41.93208" lon="25.75876">
        <ele>185.541925</ele>
        <time>2022-02-27T09:49:34.647Z</time>
      </trkpt>
      <trkpt lat="41.9321" lon="25.7586">
        <ele>185.666508</ele>
        <time>2022-02-27T09:49:37.621Z</time>
      </trkpt>
      <trkpt lat="41.93212" lon="25.75844">
        <ele>185.791665</ele>
        <time>2022-02-27T09:49:40.632Z</time>
      </trkpt>
      <trkpt lat="41.93215" lon="25.75829">
        <ele>185.909328</ele>
        <time>2022-02-27T09:49:43.664Z</time>
      </trkpt>
      <trkpt lat="41.93216" lon="25.75813">
        <ele>186.03002</ele>
        <time>2022-02-27T09:49:46.627Z</time>
      </trkpt>
      <trkpt lat="41.93219" lon="25.75798">
        <ele>186.152735</ele>
        <time>2022-02-27T09:49:49.632Z</time>
      </trkpt>
      <trkpt lat="41.93221" lon="25.75783">
        <ele>186.26767</ele>
        <time>2022-02-27T09:49:52.614Z</time>
      </trkpt>
      <trkpt lat="41.93223" lon="25.7577">
        <ele>186.373344</ele>
        <time>2022-02-27T09:49:55.634Z</time>
      </trkpt>
      <trkpt lat="41.93226" lon="25.75756">
        <ele>186.479018</ele>
        <time>2022-02-27T09:49:58.625Z</time>
      </trkpt>
      <trkpt lat="41.93228" lon="25.75743">
        <ele>186.557199</ele>
        <time>2022-02-27T09:50:01.673Z</time>
      </trkpt>
      <trkpt lat="41.9323" lon="25.75729">
        <ele>186.56065</ele>
        <time>2022-02-27T09:50:04.635Z</time>
      </trkpt>
      <trkpt lat="41.93232" lon="25.75715">
        <ele>186.564037</ele>
        <time>2022-02-27T09:50:07.639Z</time>
      </trkpt>
      <trkpt lat="41.93234" lon="25.757">
        <ele>186.567488</ele>
        <time>2022-02-27T09:50:10.621Z</time>
      </trkpt>
      <trkpt lat="41.93236" lon="25.75686">
        <ele>186.571034</ele>
        <time>2022-02-27T09:50:13.619Z</time>
      </trkpt>
      <trkpt lat="41.93238" lon="25.75671">
        <ele>186.574719</ele>
        <time>2022-02-27T09:50:16.629Z</time>
      </trkpt>
      <trkpt lat="41.9324" lon="25.75655">
        <ele>186.578487</ele>
        <time>2022-02-27T09:50:19.618Z</time>
      </trkpt>
      <trkpt lat="41.93242" lon="25.7564">
        <ele>186.582201</ele>
        <time>2022-02-27T09:50:22.643Z</time>
      </trkpt>
      <trkpt lat="41.93245" lon="25.75626">
        <ele>186.585652</ele>
        <time>2022-02-27T09:50:25.626Z</time>
      </trkpt>
      <trkpt lat="41.93246" lon="25.75612">
        <ele>186.589033</ele>
        <time>2022-02-27T09:50:28.634Z</time>
      </trkpt>
      <trkpt lat="41.93248" lon="25.75597">
        <ele>186.592461</ele>
        <time>2022-02-27T09:50:31.630Z</time>
      </trkpt>
      <trkpt lat="41.9325" lon="25.75584">
        <ele>186.595812</ele>
        <time>2022-02-27T09:50:34.651Z</time>
      </trkpt>
      <trkpt lat="41.93252" lon="25.7557">
        <ele>186.599189</ele>
        <time>2022-02-27T09:50:37.638Z</time>
      </trkpt>
      <trkpt lat="41.93254" lon="25.75555">
        <ele>186.602659</ele>
        <time>2022-02-27T09:50:40.635Z</time>
      </trkpt>
      <trkpt lat="41.93255" lon="25.75541">
        <ele>186.606187</ele>
        <time>2022-02-27T09:50:43.633Z</time>
      </trkpt>
      <trkpt lat="41.93257" lon="25.75526">
        <ele>186.609649</ele>
        <time>2022-02-27T09:50:46.617Z</time>
      </trkpt>
      <trkpt lat="41.93259" lon="25.75512">
        <ele>186.613094</ele>
        <time>2022-02-27T09:50:49.616Z</time>
      </trkpt>
      <trkpt lat="41.93261" lon="25.75498">
        <ele>186.670679</ele>
        <time>2022-02-27T09:50:52.633Z</time>
      </trkpt>
      <trkpt lat="41.93263" lon="25.75485">
        <ele>186.746322</ele>
        <time>2022-02-27T09:50:55.615Z</time>
      </trkpt>
      <trkpt lat="41.93264" lon="25.75471">
        <ele>186.820983</ele>
        <time>2022-02-27T09:50:58.621Z</time>
      </trkpt>
      <trkpt lat="41.93266" lon="25.75457">
        <ele>186.895031</ele>
        <time>2022-02-27T09:51:01.632Z</time>
      </trkpt>
      <trkpt lat="41.93268" lon="25.75444">
        <ele>186.968819</ele>
        <time>2022-02-27T09:51:04.629Z</time>
      </trkpt>
      <trkpt lat="41.93269" lon="25.75431">
        <ele>187.040614</ele>
        <time>2022-02-27T09:51:07.665Z</time>
      </trkpt>
      <trkpt lat="41.93271" lon="25.75418">
        <ele>187.112815</ele>
        <time>2022-02-27T09:51:10.615Z</time>
      </trkpt>
      <trkpt lat="41.93273" lon="25.75403">
        <ele>187.191119</ele>
        <time>2022-02-27T09:51:13.620Z</time>
      </trkpt>
      <trkpt lat="41.93275" lon="25.75389">
        <ele>187.267705</ele>
        <time>2022-02-27T09:51:16.627Z</time>
      </trkpt>
      <trkpt lat="41.93277" lon="25.75375">
        <ele>187.344178</ele>
        <time>2022-02-27T09:51:19.635Z</time>
      </trkpt>
      <trkpt lat="41.93278" lon="25.75362">
        <ele>187.419699</ele>
        <time>2022-02-27T09:51:22.636Z</time>
      </trkpt>
      <trkpt lat="41.9328" lon="25.75349">
        <ele>187.491258</ele>
        <time>2022-02-27T09:51:25.627Z</time>
      </trkpt>
      <trkpt lat="41.93281" lon="25.75336">
        <ele>187.558142</ele>
        <time>2022-02-27T09:51:28.629Z</time>
      </trkpt>
      <trkpt lat="41.93283" lon="25.75323">
        <ele>187.631658</ele>
        <time>2022-02-27T09:51:31.617Z</time>
      </trkpt>
      <trkpt lat="41.93285" lon="25.75309">
        <ele>187.70665</ele>
        <time>2022-02-27T09:51:34.629Z</time>
      </trkpt>
      <trkpt lat="41.93287" lon="25.75296">
        <ele>187.782293</ele>
        <time>2022-02-27T09:51:37.631Z</time>
      </trkpt>
      <trkpt lat="41.93289" lon="25.75282">
        <ele>187.85714</ele>
        <time>2022-02-27T09:51:40.643Z</time>
      </trkpt>
      <trkpt lat="41.93291" lon="25.75269">
        <ele>187.972742</ele>
        <time>2022-02-27T09:51:43.629Z</time>
      </trkpt>
      <trkpt lat="41.93293" lon="25.75257">
        <ele>188.320337</ele>
        <time>2022-02-27T09:51:46.679Z</time>
      </trkpt>
      <trkpt lat="41.93295" lon="25.75245">
        <ele>188.657749</ele>
        <time>2022-02-27T09:51:49.641Z</time>
      </trkpt>
      <trkpt lat="41.93296" lon="25.75233">
        <ele>188.997124</ele>
        <time>2022-02-27T09:51:52.620Z</time>
      </trkpt>
      <trkpt lat="41.93299" lon="25.75217">
        <ele>189.436097</ele>
        <time>2022-02-27T09:51:56.628Z</time>
      </trkpt>
      <trkpt lat="41.933" lon="25.75203">
        <ele>189.844176</ele>
        <time>2022-02-27T09:52:00.629Z</time>
      </trkpt>
      <trkpt lat="41.93303" lon="25.75187">
        <ele>190.287914</ele>
        <time>2022-02-27T09:52:04.620Z</time>
      </trkpt>
      <trkpt lat="41.93304" lon="25.75175">
        <ele>190.640993</ele>
        <time>2022-02-27T09:52:08.633Z</time>
      </trkpt>
      <trkpt lat="41.93306" lon="25.75162">
        <ele>191.015884</ele>
        <time>2022-02-27T09:52:12.627Z</time>
      </trkpt>
      <trkpt lat="41.93307" lon="25.75148">
        <ele>191.402353</ele>
        <time>2022-02-27T09:52:16.630Z</time>
      </trkpt>
      <trkpt lat="41.93309" lon="25.75134">
        <ele>191.791592</ele>
        <time>2022-02-27T09:52:20.655Z</time>
      </trkpt>
      <trkpt lat="41.9331" lon="25.7512">
        <ele>192.205306</ele>
        <time>2022-02-27T09:52:24.619Z</time>
      </trkpt>
      <trkpt lat="41.93311" lon="25.75106">
        <ele>192.59187</ele>
        <time>2022-02-27T09:52:28.641Z</time>
      </trkpt>
      <trkpt lat="41.93311" lon="25.75093">
        <ele>192.958149</ele>
        <time>2022-02-27T09:52:32.622Z</time>
      </trkpt>
      <trkpt lat="41.93311" lon="25.7508">
        <ele>193.318666</ele>
        <time>2022-02-27T09:52:36.674Z</time>
      </trkpt>
      <trkpt lat="41.9331" lon="25.75065">
        <ele>193.744274</ele>
        <time>2022-02-27T09:52:40.628Z</time>
      </trkpt>
      <trkpt lat="41.9331" lon="25.7505">
        <ele>194.147342</ele>
        <time>2022-02-27T09:52:44.607Z</time>
      </trkpt>
      <trkpt lat="41.93308" lon="25.75034">
        <ele>194.597153</ele>
        <time>2022-02-27T09:52:48.642Z</time>
      </trkpt>
      <trkpt lat="41.93307" lon="25.75019">
        <ele>194.698879</ele>
        <time>2022-02-27T09:52:52.644Z</time>
      </trkpt>
      <trkpt lat="41.93304" lon="25.75004">
        <ele>194.725378</ele>
        <time>2022-02-27T09:52:56.613Z</time>
      </trkpt>
      <trkpt lat="41.93302" lon="25.74993">
        <ele>194.74683</ele>
        <time>2022-02-27T09:52:59.631Z</time>
      </trkpt>
      <trkpt lat="41.93299" lon="25.74978">
        <ele>194.774524</ele>
        <time>2022-02-27T09:53:03.681Z</time>
      </trkpt>
      <trkpt lat="41.93295" lon="25.74963">
        <ele>194.801626</ele>
        <time>2022-02-27T09:53:07.637Z</time>
      </trkpt>
      <trkpt lat="41.93291" lon="25.74949">
        <ele>194.828987</ele>
        <time>2022-02-27T09:53:11.636Z</time>
      </trkpt>
      <trkpt lat="41.93288" lon="25.74937">
        <ele>194.850496</ele>
        <time>2022-02-27T09:53:14.669Z</time>
      </trkpt>
      <trkpt lat="41.93284" lon="25.74922">
        <ele>194.879013</ele>
        <time>2022-02-27T09:53:18.640Z</time>
      </trkpt>
      <trkpt lat="41.9328" lon="25.74911">
        <ele>194.901059</ele>
        <time>2022-02-27T09:53:21.627Z</time>
      </trkpt>
      <trkpt lat="41.93275" lon="25.74899">
        <ele>194.924806</ele>
        <time>2022-02-27T09:53:24.621Z</time>
      </trkpt>
      <trkpt lat="41.93271" lon="25.74888">
        <ele>194.947067</ele>
        <time>2022-02-27T09:53:27.646Z</time>
      </trkpt>
      <trkpt lat="41.93266" lon="25.74877">
        <ele>194.970335</ele>
        <time>2022-02-27T09:53:30.655Z</time>
      </trkpt>
      <trkpt lat="41.93261" lon="25.74865">
        <ele>194.993637</ele>
        <time>2022-02-27T09:53:33.625Z</time>
      </trkpt>
      <trkpt lat="41.93257" lon="25.74854">
        <ele>195.016512</ele>
        <time>2022-02-27T09:53:36.636Z</time>
      </trkpt>
      <trkpt lat="41.9325" lon="25.74841">
        <ele>195.044261</ele>
        <time>2022-02-27T09:53:40.632Z</time>
      </trkpt>
      <trkpt lat="41.93245" lon="25.74832">
        <ele>195.065834</ele>
        <time>2022-02-27T09:53:43.634Z</time>
      </trkpt>
      <trkpt lat="41.93239" lon="25.74822">
        <ele>195.088966</ele>
        <time>2022-02-27T09:53:46.624Z</time>
      </trkpt>
      <trkpt lat="41.93232" lon="25.74812">
        <ele>195.01768</ele>
        <time>2022-02-27T09:53:49.620Z</time>
      </trkpt>
      <trkpt lat="41.93225" lon="25.74802">
        <ele>194.632619</ele>
        <time>2022-02-27T09:53:52.619Z</time>
      </trkpt>
      <trkpt lat="41.93218" lon="25.74791">
        <ele>194.232282</ele>
        <time>2022-02-27T09:53:55.641Z</time>
      </trkpt>
      <trkpt lat="41.93211" lon="25.74781">
        <ele>193.870789</ele>
        <time>2022-02-27T09:53:58.625Z</time>
      </trkpt>
      <trkpt lat="41.93204" lon="25.74771">
        <ele>193.466319</ele>
        <time>2022-02-27T09:54:01.611Z</time>
      </trkpt>
      <trkpt lat="41.93197" lon="25.74759">
        <ele>193.062547</ele>
        <time>2022-02-27T09:54:04.621Z</time>
      </trkpt>
      <trkpt lat="41.93191" lon="25.74748">
        <ele>192.668068</ele>
        <time>2022-02-27T09:54:07.636Z</time>
      </trkpt>
      <trkpt lat="41.93183" lon="25.74737">
        <ele>192.237792</ele>
        <time>2022-02-27T09:54:10.644Z</time>
      </trkpt>
      <trkpt lat="41.93175" lon="25.74726">
        <ele>191.803921</ele>
        <time>2022-02-27T09:54:13.621Z</time>
      </trkpt>
      <trkpt lat="41.93167" lon="25.74714">
        <ele>191.369583</ele>
        <time>2022-02-27T09:54:16.639Z</time>
      </trkpt>
      <trkpt lat="41.93159" lon="25.74703">
        <ele>190.941324</ele>
        <time>2022-02-27T09:54:19.639Z</time>
      </trkpt>
      <trkpt lat="41.93151" lon="25.74692">
        <ele>190.526796</ele>
        <time>2022-02-27T09:54:22.635Z</time>
      </trkpt>
      <trkpt lat="41.93144" lon="25.74681">
        <ele>190.117687</ele>
        <time>2022-02-27T09:54:25.646Z</time>
      </trkpt>
      <trkpt lat="41.93136" lon="25.74671">
        <ele>189.720932</ele>
        <time>2022-02-27T09:54:28.638Z</time>
      </trkpt>
      <trkpt lat="41.93129" lon="25.74661">
        <ele>189.341358</ele>
        <time>2022-02-27T09:54:31.618Z</time>
      </trkpt>
      <trkpt lat="41.93123" lon="25.74652">
        <ele>188.979111</ele>
        <time>2022-02-27T09:54:34.656Z</time>
      </trkpt>
      <trkpt lat="41.93116" lon="25.74642">
        <ele>188.627576</ele>
        <time>2022-02-27T09:54:37.628Z</time>
      </trkpt>
      <trkpt lat="41.9311" lon="25.74633">
        <ele>188.43895</ele>
        <time>2022-02-27T09:54:40.637Z</time>
      </trkpt>
      <trkpt lat="41.93102" lon="25.74622">
        <ele>188.58933</ele>
        <time>2022-02-27T09:54:44.629Z</time>
      </trkpt>
      <trkpt lat="41.93095" lon="25.74611">
        <ele>188.740781</ele>
        <time>2022-02-27T09:54:48.646Z</time>
      </trkpt>
      <trkpt lat="41.93087" lon="25.746">
        <ele>188.891161</ele>
        <time>2022-02-27T09:54:52.629Z</time>
      </trkpt>
      <trkpt lat="41.93079" lon="25.74588">
        <ele>189.04081</ele>
        <time>2022-02-27T09:54:56.677Z</time>
      </trkpt>
      <trkpt lat="41.93072" lon="25.74578">
        <ele>189.188696</ele>
        <time>2022-02-27T09:55:00.631Z</time>
      </trkpt>
      <trkpt lat="41.93064" lon="25.74568">
        <ele>189.328366</ele>
        <time>2022-02-27T09:55:04.636Z</time>
      </trkpt>
      <trkpt lat="41.93055" lon="25.74558">
        <ele>189.477974</ele>
        <time>2022-02-27T09:55:08.636Z</time>
      </trkpt>
      <trkpt lat="41.93046" lon="25.74548">
        <ele>189.632164</ele>
        <time>2022-02-27T09:55:12.636Z</time>
      </trkpt>
      <trkpt lat="41.93039" lon="25.7454">
        <ele>189.761909</ele>
        <time>2022-02-27T09:55:15.636Z</time>
      </trkpt>
      <trkpt lat="41.9303" lon="25.74533">
        <ele>189.895228</ele>
        <time>2022-02-27T09:55:18.625Z</time>
      </trkpt>
      <trkpt lat="41.93023" lon="25.74526">
        <ele>190.016375</ele>
        <time>2022-02-27T09:55:21.626Z</time>
      </trkpt>
      <trkpt lat="41.93012" lon="25.74518">
        <ele>190.174593</ele>
        <time>2022-02-27T09:55:25.609Z</time>
      </trkpt>
      <trkpt lat="41.93005" lon="25.74511">
        <ele>190.294125</ele>
        <time>2022-02-27T09:55:28.620Z</time>
      </trkpt>
      <trkpt lat="41.92997" lon="25.74505">
        <ele>190.414876</ele>
        <time>2022-02-27T09:55:31.625Z</time>
      </trkpt>
      <trkpt lat="41.92989" lon="25.74499">
        <ele>190.541359</ele>
        <time>2022-02-27T09:55:34.624Z</time>
      </trkpt>
      <trkpt lat="41.9298" lon="25.74492">
        <ele>190.678845</ele>
        <time>2022-02-27T09:55:37.639Z</time>
      </trkpt>
      <trkpt lat="41.9297" lon="25.74485">
        <ele>190.78478</ele>
        <time>2022-02-27T09:55:40.624Z</time>
      </trkpt>
      <trkpt lat="41.92959" lon="25.74479">
        <ele>190.786422</ele>
        <time>2022-02-27T09:55:43.626Z</time>
      </trkpt>
      <trkpt lat="41.92947" lon="25.74473">
        <ele>190.788167</ele>
        <time>2022-02-27T09:55:46.625Z</time>
      </trkpt>
      <trkpt lat="41.92936" lon="25.74466">
        <ele>190.789942</ele>
        <time>2022-02-27T09:55:49.633Z</time>
      </trkpt>
      <trkpt lat="41.92924" lon="25.74459">
        <ele>190.791801</ele>
        <time>2022-02-27T09:55:52.628Z</time>
      </trkpt>
      <trkpt lat="41.92915" lon="25.74454">
        <ele>190.793097</ele>
        <time>2022-02-27T09:55:54.634Z</time>
      </trkpt>
      <trkpt lat="41.92907" lon="25.74449">
        <ele>190.794369</ele>
        <time>2022-02-27T09:55:56.625Z</time>
      </trkpt>
      <trkpt lat="41.92895" lon="25.74443">
        <ele>190.796216</ele>
        <time>2022-02-27T09:55:59.642Z</time>
      </trkpt>
      <trkpt lat="41.92886" lon="25.74438">
        <ele>190.797551</ele>
        <time>2022-02-27T09:56:01.633Z</time>
      </trkpt>
      <trkpt lat="41.92877" lon="25.74432">
        <ele>190.798928</ele>
        <time>2022-02-27T09:56:03.635Z</time>
      </trkpt>
      <trkpt lat="41.92868" lon="25.74427">
        <ele>190.800242</ele>
        <time>2022-02-27T09:56:05.630Z</time>
      </trkpt>
      <trkpt lat="41.9286" lon="25.74422">
        <ele>190.801512</ele>
        <time>2022-02-27T09:56:07.624Z</time>
      </trkpt>
      <trkpt lat="41.92848" lon="25.74415">
        <ele>190.803372</ele>
        <time>2022-02-27T09:56:10.652Z</time>
      </trkpt>
      <trkpt lat="41.92839" lon="25.7441">
        <ele>190.804647</ele>
        <time>2022-02-27T09:56:12.637Z</time>
      </trkpt>
      <trkpt lat="41.92831" lon="25.74405">
        <ele>190.805931</ele>
        <time>2022-02-27T09:56:14.625Z</time>
      </trkpt>
      <trkpt lat="41.92823" lon="25.744">
        <ele>190.807227</ele>
        <time>2022-02-27T09:56:16.620Z</time>
      </trkpt>
      <trkpt lat="41.92814" lon="25.74395">
        <ele>190.808525</ele>
        <time>2022-02-27T09:56:18.644Z</time>
      </trkpt>
      <trkpt lat="41.92806" lon="25.7439">
        <ele>190.799468</ele>
        <time>2022-02-27T09:56:20.629Z</time>
      </trkpt>
      <trkpt lat="41.92793" lon="25.74383">
        <ele>190.724659</ele>
        <time>2022-02-27T09:56:23.633Z</time>
      </trkpt>
      <trkpt lat="41.92785" lon="25.74378">
        <ele>190.674548</ele>
        <time>2022-02-27T09:56:25.636Z</time>
      </trkpt>
      <trkpt lat="41.92776" lon="25.74373">
        <ele>190.622223</ele>
        <time>2022-02-27T09:56:27.632Z</time>
      </trkpt>
      <trkpt lat="41.92768" lon="25.74368">
        <ele>190.569579</ele>
        <time>2022-02-27T09:56:29.626Z</time>
      </trkpt>
      <trkpt lat="41.92759" lon="25.74363">
        <ele>190.51728</ele>
        <time>2022-02-27T09:56:31.615Z</time>
      </trkpt>
      <trkpt lat="41.9275" lon="25.74358">
        <ele>190.464123</ele>
        <time>2022-02-27T09:56:33.625Z</time>
      </trkpt>
      <trkpt lat="41.92741" lon="25.74353">
        <ele>190.40958</ele>
        <time>2022-02-27T09:56:35.630Z</time>
      </trkpt>
      <trkpt lat="41.92733" lon="25.74348">
        <ele>190.356435</ele>
        <time>2022-02-27T09:56:37.636Z</time>
      </trkpt>
      <trkpt lat="41.92724" lon="25.74344">
        <ele>190.305904</ele>
        <time>2022-02-27T09:56:39.635Z</time>
      </trkpt>
      <trkpt lat="41.92716" lon="25.74339">
        <ele>190.255437</ele>
        <time>2022-02-27T09:56:41.661Z</time>
      </trkpt>
      <trkpt lat="41.92707" lon="25.74335">
        <ele>190.204971</ele>
        <time>2022-02-27T09:56:43.609Z</time>
      </trkpt>
      <trkpt lat="41.92699" lon="25.7433">
        <ele>190.154186</ele>
        <time>2022-02-27T09:56:45.636Z</time>
      </trkpt>
      <trkpt lat="41.9269" lon="25.74325">
        <ele>190.103402</ele>
        <time>2022-02-27T09:56:47.631Z</time>
      </trkpt>
      <trkpt lat="41.92678" lon="25.74318">
        <ele>190.030076</ele>
        <time>2022-02-27T09:56:50.634Z</time>
      </trkpt>
      <trkpt lat="41.92667" lon="25.74312">
        <ele>189.96271</ele>
        <time>2022-02-27T09:56:53.641Z</time>
      </trkpt>
      <trkpt lat="41.92657" lon="25.74305">
        <ele>189.899545</ele>
        <time>2022-02-27T09:56:56.631Z</time>
      </trkpt>
      <trkpt lat="41.92646" lon="25.74298">
        <ele>189.830995</ele>
        <time>2022-02-27T09:56:59.636Z</time>
      </trkpt>
      <trkpt lat="41.92635" lon="25.7429">
        <ele>190.061879</ele>
        <time>2022-02-27T09:57:02.639Z</time>
      </trkpt>
      <trkpt lat="41.92624" lon="25.74283">
        <ele>190.431469</ele>
        <time>2022-02-27T09:57:05.635Z</time>
      </trkpt>
      <trkpt lat="41.92612" lon="25.74274">
        <ele>190.823261</ele>
        <time>2022-02-27T09:57:08.634Z</time>
      </trkpt>
      <trkpt lat="41.92601" lon="25.74264">
        <ele>191.210727</ele>
        <time>2022-02-27T09:57:11.629Z</time>
      </trkpt>
      <trkpt lat="41.9259" lon="25.74254">
        <ele>191.603157</ele>
        <time>2022-02-27T09:57:14.639Z</time>
      </trkpt>
      <trkpt lat="41.92583" lon="25.74246">
        <ele>191.875446</ele>
        <time>2022-02-27T09:57:16.631Z</time>
      </trkpt>
      <trkpt lat="41.92573" lon="25.74235">
        <ele>192.260238</ele>
        <time>2022-02-27T09:57:19.642Z</time>
      </trkpt>
      <trkpt lat="41.92563" lon="25.74224">
        <ele>192.634715</ele>
        <time>2022-02-27T09:57:22.620Z</time>
      </trkpt>
      <trkpt lat="41.92557" lon="25.74216">
        <ele>192.904733</ele>
        <time>2022-02-27T09:57:24.627Z</time>
      </trkpt>
      <trkpt lat="41.9255" lon="25.74207">
        <ele>193.183885</ele>
        <time>2022-02-27T09:57:26.613Z</time>
      </trkpt>
      <trkpt lat="41.92543" lon="25.74197">
        <ele>193.479771</ele>
        <time>2022-02-27T09:57:28.635Z</time>
      </trkpt>
      <trkpt lat="41.92537" lon="25.74188">
        <ele>193.761102</ele>
        <time>2022-02-27T09:57:30.621Z</time>
      </trkpt>
      <trkpt lat="41.9253" lon="25.74178">
        <ele>194.050916</ele>
        <time>2022-02-27T09:57:32.628Z</time>
      </trkpt>
      <trkpt lat="41.92524" lon="25.74168">
        <ele>194.339613</ele>
        <time>2022-02-27T09:57:34.631Z</time>
      </trkpt>
      <trkpt lat="41.92518" lon="25.74159">
        <ele>194.610413</ele>
        <time>2022-02-27T09:57:36.636Z</time>
      </trkpt>
      <trkpt lat="41.92512" lon="25.74148">
        <ele>194.911176</ele>
        <time>2022-02-27T09:57:38.628Z</time>
      </trkpt>
      <trkpt lat="41.92506" lon="25.74137">
        <ele>195.279846</ele>
        <time>2022-02-27T09:57:40.632Z</time>
      </trkpt>
      <trkpt lat="41.925" lon="25.74127">
        <ele>195.819516</ele>
        <time>2022-02-27T09:57:42.624Z</time>
      </trkpt>
      <trkpt lat="41.92493" lon="25.74112">
        <ele>196.565193</ele>
        <time>2022-02-27T09:57:45.623Z</time>
      </trkpt>
      <trkpt lat="41.92488" lon="25.74102">
        <ele>197.081645</ele>
        <time>2022-02-27T09:57:47.630Z</time>
      </trkpt>
      <trkpt lat="41.92484" lon="25.74091">
        <ele>197.59838</ele>
        <time>2022-02-27T09:57:49.638Z</time>
      </trkpt>
      <trkpt lat="41.92479" lon="25.7408">
        <ele>198.130052</ele>
        <time>2022-02-27T09:57:51.629Z</time>
      </trkpt>
      <trkpt lat="41.92475" lon="25.7407">
        <ele>198.651516</ele>
        <time>2022-02-27T09:57:53.638Z</time>
      </trkpt>
      <trkpt lat="41.92469" lon="25.74055">
        <ele>199.382989</ele>
        <time>2022-02-27T09:57:56.639Z</time>
      </trkpt>
      <trkpt lat="41.92464" lon="25.7404">
        <ele>200.054252</ele>
        <time>2022-02-27T09:57:59.633Z</time>
      </trkpt>
      <trkpt lat="41.92458" lon="25.74025">
        <ele>200.793007</ele>
        <time>2022-02-27T09:58:02.631Z</time>
      </trkpt>
      <trkpt lat="41.92454" lon="25.74013">
        <ele>201.327168</ele>
        <time>2022-02-27T09:58:04.626Z</time>
      </trkpt>
      <trkpt lat="41.92451" lon="25.74002">
        <ele>201.8619</ele>
        <time>2022-02-27T09:58:06.635Z</time>
      </trkpt>
      <trkpt lat="41.92448" lon="25.7399">
        <ele>202.372925</ele>
        <time>2022-02-27T09:58:08.630Z</time>
      </trkpt>
      <trkpt lat="41.92443" lon="25.73974">
        <ele>203.13905</ele>
        <time>2022-02-27T09:58:11.645Z</time>
      </trkpt>
      <trkpt lat="41.92438" lon="25.73957">
        <ele>203.891203</ele>
        <time>2022-02-27T09:58:14.641Z</time>
      </trkpt>
      <trkpt lat="41.92435" lon="25.73946">
        <ele>204.413897</ele>
        <time>2022-02-27T09:58:16.632Z</time>
      </trkpt>
      <trkpt lat="41.92432" lon="25.73934">
        <ele>204.936591</ele>
        <time>2022-02-27T09:58:18.629Z</time>
      </trkpt>
      <trkpt lat="41.92429" lon="25.73923">
        <ele>205.433642</ele>
        <time>2022-02-27T09:58:20.667Z</time>
      </trkpt>
      <trkpt lat="41.92424" lon="25.73906">
        <ele>205.534341</ele>
        <time>2022-02-27T09:58:23.618Z</time>
      </trkpt>
      <trkpt lat="41.9242" lon="25.73889">
        <ele>205.633329</ele>
        <time>2022-02-27T09:58:26.633Z</time>
      </trkpt>
      <trkpt lat="41.92416" lon="25.73872">
        <ele>205.732544</ele>
        <time>2022-02-27T09:58:29.614Z</time>
      </trkpt>
      <trkpt lat="41.92413" lon="25.7386">
        <ele>205.799676</ele>
        <time>2022-02-27T09:58:31.624Z</time>
      </trkpt>
      <trkpt lat="41.92409" lon="25.73844">
        <ele>205.895493</ele>
        <time>2022-02-27T09:58:34.644Z</time>
      </trkpt>
      <trkpt lat="41.92405" lon="25.73827">
        <ele>205.993327</ele>
        <time>2022-02-27T09:58:37.624Z</time>
      </trkpt>
      <trkpt lat="41.924" lon="25.73811">
        <ele>206.089593</ele>
        <time>2022-02-27T09:58:40.625Z</time>
      </trkpt>
      <trkpt lat="41.92397" lon="25.738">
        <ele>206.157265</ele>
        <time>2022-02-27T09:58:42.656Z</time>
      </trkpt>
      <trkpt lat="41.92392" lon="25.73782">
        <ele>206.257718</ele>
        <time>2022-02-27T09:58:45.626Z</time>
      </trkpt>
      <trkpt lat="41.92388" lon="25.73766">
        <ele>206.35532</ele>
        <time>2022-02-27T09:58:48.628Z</time>
      </trkpt>
      <trkpt lat="41.92383" lon="25.7375">
        <ele>206.44927</ele>
        <time>2022-02-27T09:58:51.631Z</time>
      </trkpt>
      <trkpt lat="41.92379" lon="25.73734">
        <ele>206.544019</ele>
        <time>2022-02-27T09:58:54.631Z</time>
      </trkpt>
      <trkpt lat="41.92374" lon="25.73718">
        <ele>206.639787</ele>
        <time>2022-02-27T09:58:57.644Z</time>
      </trkpt>
      <trkpt lat="41.9237" lon="25.73703">
        <ele>206.731973</ele>
        <time>2022-02-27T09:59:00.630Z</time>
      </trkpt>
      <trkpt lat="41.92365" lon="25.73687">
        <ele>206.379586</ele>
        <time>2022-02-27T09:59:03.671Z</time>
      </trkpt>
      <trkpt lat="41.92361" lon="25.73672">
        <ele>205.700762</ele>
        <time>2022-02-27T09:59:06.658Z</time>
      </trkpt>
      <trkpt lat="41.92358" lon="25.73656">
        <ele>205.0071</ele>
        <time>2022-02-27T09:59:09.631Z</time>
      </trkpt>
      <trkpt lat="41.92355" lon="25.7364">
        <ele>204.316242</ele>
        <time>2022-02-27T09:59:12.632Z</time>
      </trkpt>
      <trkpt lat="41.92352" lon="25.73622">
        <ele>203.555056</ele>
        <time>2022-02-27T09:59:15.631Z</time>
      </trkpt>
      <trkpt lat="41.9235" lon="25.73609">
        <ele>203.026123</ele>
        <time>2022-02-27T09:59:17.646Z</time>
      </trkpt>
      <trkpt lat="41.92348" lon="25.73592">
        <ele>202.29737</ele>
        <time>2022-02-27T09:59:20.659Z</time>
      </trkpt>
      <trkpt lat="41.92347" lon="25.7358">
        <ele>201.794093</ele>
        <time>2022-02-27T09:59:22.651Z</time>
      </trkpt>
      <trkpt lat="41.92346" lon="25.73567">
        <ele>201.248102</ele>
        <time>2022-02-27T09:59:24.635Z</time>
      </trkpt>
      <trkpt lat="41.92345" lon="25.73554">
        <ele>200.693472</ele>
        <time>2022-02-27T09:59:26.604Z</time>
      </trkpt>
      <trkpt lat="41.92345" lon="25.73541">
        <ele>200.164805</ele>
        <time>2022-02-27T09:59:28.661Z</time>
      </trkpt>
      <trkpt lat="41.92345" lon="25.73529">
        <ele>199.656948</ele>
        <time>2022-02-27T09:59:30.638Z</time>
      </trkpt>
      <trkpt lat="41.92346" lon="25.73516">
        <ele>199.140313</ele>
        <time>2022-02-27T09:59:32.656Z</time>
      </trkpt>
      <trkpt lat="41.92347" lon="25.73499">
        <ele>198.396352</ele>
        <time>2022-02-27T09:59:35.650Z</time>
      </trkpt>
      <trkpt lat="41.92348" lon="25.73486">
        <ele>197.887019</ele>
        <time>2022-02-27T09:59:37.617Z</time>
      </trkpt>
      <trkpt lat="41.92348" lon="25.73474">
        <ele>197.360132</ele>
        <time>2022-02-27T09:59:39.677Z</time>
      </trkpt>
      <trkpt lat="41.92349" lon="25.73462">
        <ele>196.849235</ele>
        <time>2022-02-27T09:59:41.639Z</time>
      </trkpt>
      <trkpt lat="41.92352" lon="25.73444">
        <ele>196.236583</ele>
        <time>2022-02-27T09:59:44.636Z</time>
      </trkpt>
      <trkpt lat="41.92355" lon="25.73426">
        <ele>195.655986</ele>
        <time>2022-02-27T09:59:47.610Z</time>
      </trkpt>
      <trkpt lat="41.92357" lon="25.73414">
        <ele>195.255035</ele>
        <time>2022-02-27T09:59:49.628Z</time>
      </trkpt>
      <trkpt lat="41.92359" lon="25.73402">
        <ele>194.850021</ele>
        <time>2022-02-27T09:59:51.645Z</time>
      </trkpt>
      <trkpt lat="41.92362" lon="25.73389">
        <ele>194.434593</ele>
        <time>2022-02-27T09:59:53.634Z</time>
      </trkpt>
      <trkpt lat="41.92364" lon="25.73377">
        <ele>194.022263</ele>
        <time>2022-02-27T09:59:55.644Z</time>
      </trkpt>
      <trkpt lat="41.92366" lon="25.73364">
        <ele>193.614145</ele>
        <time>2022-02-27T09:59:57.636Z</time>
      </trkpt>
      <trkpt lat="41.92369" lon="25.73352">
        <ele>193.193311</ele>
        <time>2022-02-27T09:59:59.624Z</time>
      </trkpt>
      <trkpt lat="41.92372" lon="25.7334">
        <ele>192.788365</ele>
        <time>2022-02-27T10:00:01.630Z</time>
      </trkpt>
      <trkpt lat="41.92375" lon="25.73327">
        <ele>192.361995</ele>
        <time>2022-02-27T10:00:03.668Z</time>
      </trkpt>
      <trkpt lat="41.92378" lon="25.73315">
        <ele>191.951269</ele>
        <time>2022-02-27T10:00:05.617Z</time>
      </trkpt>
      <trkpt lat="41.92381" lon="25.73303">
        <ele>191.549634</ele>
        <time>2022-02-27T10:00:07.664Z</time>
      </trkpt>
      <trkpt lat="41.92384" lon="25.73292">
        <ele>191.158514</ele>
        <time>2022-02-27T10:00:09.631Z</time>
      </trkpt>
      <trkpt lat="41.92387" lon="25.7328">
        <ele>190.762926</ele>
        <time>2022-02-27T10:00:11.649Z</time>
      </trkpt>
      <trkpt lat="41.92392" lon="25.73264">
        <ele>190.198786</ele>
        <time>2022-02-27T10:00:14.635Z</time>
      </trkpt>
      <trkpt lat="41.92396" lon="25.73247">
        <ele>189.625545</ele>
        <time>2022-02-27T10:00:17.652Z</time>
      </trkpt>
      <trkpt lat="41.924" lon="25.7323">
        <ele>189.061136</ele>
        <time>2022-02-27T10:00:20.633Z</time>
      </trkpt>
      <trkpt lat="41.92404" lon="25.73214">
        <ele>188.912136</ele>
        <time>2022-02-27T10:00:23.637Z</time>
      </trkpt>
      <trkpt lat="41.92408" lon="25.73198">
        <ele>188.864528</ele>
        <time>2022-02-27T10:00:26.623Z</time>
      </trkpt>
      <trkpt lat="41.92412" lon="25.73182">
        <ele>188.817822</ele>
        <time>2022-02-27T10:00:29.642Z</time>
      </trkpt>
      <trkpt lat="41.92415" lon="25.73167">
        <ele>188.772202</ele>
        <time>2022-02-27T10:00:32.628Z</time>
      </trkpt>
      <trkpt lat="41.92419" lon="25.7315">
        <ele>188.721987</ele>
        <time>2022-02-27T10:00:35.636Z</time>
      </trkpt>
      <trkpt lat="41.92421" lon="25.73138">
        <ele>188.687092</ele>
        <time>2022-02-27T10:00:37.616Z</time>
      </trkpt>
      <trkpt lat="41.92424" lon="25.73127">
        <ele>188.651802</ele>
        <time>2022-02-27T10:00:39.632Z</time>
      </trkpt>
      <trkpt lat="41.92428" lon="25.73111">
        <ele>188.604194</ele>
        <time>2022-02-27T10:00:42.615Z</time>
      </trkpt>
      <trkpt lat="41.92431" lon="25.73095">
        <ele>188.557307</ele>
        <time>2022-02-27T10:00:45.637Z</time>
      </trkpt>
      <trkpt lat="41.92435" lon="25.73079">
        <ele>188.510116</ele>
        <time>2022-02-27T10:00:48.644Z</time>
      </trkpt>
      <trkpt lat="41.92438" lon="25.73063">
        <ele>188.463853</ele>
        <time>2022-02-27T10:00:51.636Z</time>
      </trkpt>
      <trkpt lat="41.9244" lon="25.73047">
        <ele>188.417439</ele>
        <time>2022-02-27T10:00:54.641Z</time>
      </trkpt>
      <trkpt lat="41.92443" lon="25.73031">
        <ele>188.369834</ele>
        <time>2022-02-27T10:00:57.613Z</time>
      </trkpt>
      <trkpt lat="41.92444" lon="25.73015">
        <ele>188.323312</ele>
        <time>2022-02-27T10:01:00.621Z</time>
      </trkpt>
      <trkpt lat="41.92446" lon="25.72998">
        <ele>188.27613</ele>
        <time>2022-02-27T10:01:03.689Z</time>
      </trkpt>
      <trkpt lat="41.92447" lon="25.72982">
        <ele>188.48519</ele>
        <time>2022-02-27T10:01:06.620Z</time>
      </trkpt>
      <trkpt lat="41.92448" lon="25.72964">
        <ele>188.809651</ele>
        <time>2022-02-27T10:01:09.661Z</time>
      </trkpt>
      <trkpt lat="41.92449" lon="25.72947">
        <ele>189.133283</ele>
        <time>2022-02-27T10:01:12.652Z</time>
      </trkpt>
      <trkpt lat="41.92448" lon="25.7293">
        <ele>189.453037</ele>
        <time>2022-02-27T10:01:15.672Z</time>
      </trkpt>
      <trkpt lat="41.92447" lon="25.72914">
        <ele>189.766249</ele>
        <time>2022-02-27T10:01:18.628Z</time>
      </trkpt>
      <trkpt lat="41.92446" lon="25.72897">
        <ele>190.081336</ele>
        <time>2022-02-27T10:01:21.631Z</time>
      </trkpt>
      <trkpt lat="41.92444" lon="25.72881">
        <ele>190.390141</ele>
        <time>2022-02-27T10:01:24.638Z</time>
      </trkpt>
      <trkpt lat="41.92441" lon="25.72865">
        <ele>190.688286</ele>
        <time>2022-02-27T10:01:27.651Z</time>
      </trkpt>
      <trkpt lat="41.92438" lon="25.7285">
        <ele>190.986432</ele>
        <time>2022-02-27T10:01:30.647Z</time>
      </trkpt>
      <trkpt lat="41.92435" lon="25.72835">
        <ele>191.282839</ele>
        <time>2022-02-27T10:01:33.609Z</time>
      </trkpt>
      <trkpt lat="41.92431" lon="25.72819">
        <ele>191.591546</ele>
        <time>2022-02-27T10:01:36.676Z</time>
      </trkpt>
      <trkpt lat="41.92427" lon="25.72804">
        <ele>191.897461</ele>
        <time>2022-02-27T10:01:39.647Z</time>
      </trkpt>
      <trkpt lat="41.92423" lon="25.7279">
        <ele>192.182308</ele>
        <time>2022-02-27T10:01:42.632Z</time>
      </trkpt>
      <trkpt lat="41.92418" lon="25.72775">
        <ele>192.480299</ele>
        <time>2022-02-27T10:01:45.635Z</time>
      </trkpt>
      <trkpt lat="41.92414" lon="25.72761">
        <ele>192.779109</ele>
        <time>2022-02-27T10:01:48.606Z</time>
      </trkpt>
      <trkpt lat="41.9241" lon="25.72745">
        <ele>192.939418</ele>
        <time>2022-02-27T10:01:51.628Z</time>
      </trkpt>
      <trkpt lat="41.92406" lon="25.72729">
        <ele>193.089791</ele>
        <time>2022-02-27T10:01:54.657Z</time>
      </trkpt>
      <trkpt lat="41.92402" lon="25.72713">
        <ele>193.229742</ele>
        <time>2022-02-27T10:01:57.639Z</time>
      </trkpt>
      <trkpt lat="41.92398" lon="25.72698">
        <ele>193.369532</ele>
        <time>2022-02-27T10:02:00.614Z</time>
      </trkpt>
      <trkpt lat="41.92393" lon="25.72682">
        <ele>193.52352</ele>
        <time>2022-02-27T10:02:03.676Z</time>
      </trkpt>
      <trkpt lat="41.92388" lon="25.72665">
        <ele>193.676696</ele>
        <time>2022-02-27T10:02:06.636Z</time>
      </trkpt>
      <trkpt lat="41.92384" lon="25.72649">
        <ele>193.828256</ele>
        <time>2022-02-27T10:02:09.626Z</time>
      </trkpt>
      <trkpt lat="41.92379" lon="25.72632">
        <ele>193.978589</ele>
        <time>2022-02-27T10:02:12.633Z</time>
      </trkpt>
      <trkpt lat="41.92375" lon="25.72617">
        <ele>194.117987</ele>
        <time>2022-02-27T10:02:15.636Z</time>
      </trkpt>
      <trkpt lat="41.92371" lon="25.72603">
        <ele>194.250034</ele>
        <time>2022-02-27T10:02:18.633Z</time>
      </trkpt>
      <trkpt lat="41.92368" lon="25.7259">
        <ele>194.373553</ele>
        <time>2022-02-27T10:02:21.633Z</time>
      </trkpt>
      <trkpt lat="41.92364" lon="25.72577">
        <ele>194.486973</ele>
        <time>2022-02-27T10:02:24.638Z</time>
      </trkpt>
      <trkpt lat="41.9236" lon="25.72565">
        <ele>194.608736</ele>
        <time>2022-02-27T10:02:27.617Z</time>
      </trkpt>
      <trkpt lat="41.92355" lon="25.72552">
        <ele>194.731612</ele>
        <time>2022-02-27T10:02:30.632Z</time>
      </trkpt>
      <trkpt lat="41.92351" lon="25.72538">
        <ele>194.861683</ele>
        <time>2022-02-27T10:02:33.632Z</time>
      </trkpt>
      <trkpt lat="41.92347" lon="25.72523">
        <ele>194.699422</ele>
        <time>2022-02-27T10:02:36.670Z</time>
      </trkpt>
      <trkpt lat="41.92342" lon="25.72507">
        <ele>194.404754</ele>
        <time>2022-02-27T10:02:39.646Z</time>
      </trkpt>
      <trkpt lat="41.92338" lon="25.72493">
        <ele>194.123717</ele>
        <time>2022-02-27T10:02:42.633Z</time>
      </trkpt>
      <trkpt lat="41.92333" lon="25.72479">
        <ele>193.8533</ele>
        <time>2022-02-27T10:02:45.661Z</time>
      </trkpt>
      <trkpt lat="41.92329" lon="25.72466">
        <ele>193.604501</ele>
        <time>2022-02-27T10:02:48.659Z</time>
      </trkpt>
      <trkpt lat="41.92326" lon="25.72454">
        <ele>193.365373</ele>
        <time>2022-02-27T10:02:51.637Z</time>
      </trkpt>
      <trkpt lat="41.92323" lon="25.72441">
        <ele>193.130476</ele>
        <time>2022-02-27T10:02:54.628Z</time>
      </trkpt>
      <trkpt lat="41.92318" lon="25.72428">
        <ele>192.880041</ele>
        <time>2022-02-27T10:02:57.642Z</time>
      </trkpt>
      <trkpt lat="41.92315" lon="25.72416">
        <ele>192.644166</ele>
        <time>2022-02-27T10:03:00.617Z</time>
      </trkpt>
      <trkpt lat="41.92312" lon="25.72404">
        <ele>192.417648</ele>
        <time>2022-02-27T10:03:03.680Z</time>
      </trkpt>
      <trkpt lat="41.92309" lon="25.72392">
        <ele>192.194494</ele>
        <time>2022-02-27T10:03:06.667Z</time>
      </trkpt>
      <trkpt lat="41.92306" lon="25.72379">
        <ele>191.945208</ele>
        <time>2022-02-27T10:03:10.627Z</time>
      </trkpt>
      <trkpt lat="41.92302" lon="25.72365">
        <ele>191.685899</ele>
        <time>2022-02-27T10:03:15.628Z</time>
      </trkpt>
      <trkpt lat="41.92298" lon="25.72354">
        <ele>191.456665</ele>
        <time>2022-02-27T10:03:19.619Z</time>
      </trkpt>
      <trkpt lat="41.92295" lon="25.72342">
        <ele>191.235893</ele>
        <time>2022-02-27T10:03:23.628Z</time>
      </trkpt>
      <trkpt lat="41.92292" lon="25.72331">
        <ele>191.014353</ele>
        <time>2022-02-27T10:03:28.629Z</time>
      </trkpt>
      <trkpt lat="41.9229" lon="25.72344">
        <ele>190.760907</ele>
        <time>2022-02-27T10:03:39.629Z</time>
      </trkpt>
      <trkpt lat="41.92294" lon="25.72355">
        <ele>190.498384</ele>
        <time>2022-02-27T10:03:43.631Z</time>
      </trkpt>
      <trkpt lat="41.92302" lon="25.72363">
        <ele>189.9622</ele>
        <time>2022-02-27T10:03:48.619Z</time>
      </trkpt>
      <trkpt lat="41.92315" lon="25.72357">
        <ele>189.250572</ele>
        <time>2022-02-27T10:09:11.627Z</time>
      </trkpt>
      <trkpt lat="41.92303" lon="25.72353">
        <ele>188.589535</ele>
        <time>2022-02-27T10:17:35.632Z</time>
      </trkpt>
      <trkpt lat="41.923" lon="25.7234">
        <ele>188.038934</ele>
        <time>2022-02-27T10:20:44.659Z</time>
      </trkpt>
      <trkpt lat="41.92297" lon="25.72326">
        <ele>187.429671</ele>
        <time>2022-02-27T10:20:48.637Z</time>
      </trkpt>
      <trkpt lat="41.92294" lon="25.72314">
        <ele>186.926647</ele>
        <time>2022-02-27T10:20:51.633Z</time>
      </trkpt>
      <trkpt lat="41.9229" lon="25.72302">
        <ele>186.397374</ele>
        <time>2022-02-27T10:20:54.649Z</time>
      </trkpt>
      <trkpt lat="41.92287" lon="25.7229">
        <ele>185.829394</ele>
        <time>2022-02-27T10:20:57.656Z</time>
      </trkpt>
      <trkpt lat="41.92283" lon="25.72277">
        <ele>185.280953</ele>
        <time>2022-02-27T10:21:00.679Z</time>
      </trkpt>
      <trkpt lat="41.92279" lon="25.72264">
        <ele>184.706494</ele>
        <time>2022-02-27T10:21:03.640Z</time>
      </trkpt>
      <trkpt lat="41.92275" lon="25.72251">
        <ele>184.105621</ele>
        <time>2022-02-27T10:21:06.621Z</time>
      </trkpt>
      <trkpt lat="41.92271" lon="25.72235">
        <ele>183.445985</ele>
        <time>2022-02-27T10:21:09.639Z</time>
      </trkpt>
      <trkpt lat="41.92268" lon="25.7222">
        <ele>182.78241</ele>
        <time>2022-02-27T10:21:12.628Z</time>
      </trkpt>
      <trkpt lat="41.92265" lon="25.72205">
        <ele>182.155824</ele>
        <time>2022-02-27T10:21:15.636Z</time>
      </trkpt>
      <trkpt lat="41.92261" lon="25.7219">
        <ele>181.518118</ele>
        <time>2022-02-27T10:21:18.645Z</time>
      </trkpt>
      <trkpt lat="41.92257" lon="25.72176">
        <ele>180.869504</ele>
        <time>2022-02-27T10:21:21.640Z</time>
      </trkpt>
      <trkpt lat="41.92252" lon="25.7216">
        <ele>180.608169</ele>
        <time>2022-02-27T10:21:24.628Z</time>
      </trkpt>
      <trkpt lat="41.92248" lon="25.72145">
        <ele>180.548931</ele>
        <time>2022-02-27T10:21:27.652Z</time>
      </trkpt>
      <trkpt lat="41.92243" lon="25.72131">
        <ele>180.490184</ele>
        <time>2022-02-27T10:21:30.648Z</time>
      </trkpt>
      <trkpt lat="41.92237" lon="25.72117">
        <ele>180.43098</ele>
        <time>2022-02-27T10:21:33.634Z</time>
      </trkpt>
      <trkpt lat="41.92231" lon="25.72103">
        <ele>180.370618</ele>
        <time>2022-02-27T10:21:36.632Z</time>
      </trkpt>
      <trkpt lat="41.92224" lon="25.72089">
        <ele>180.311026</ele>
        <time>2022-02-27T10:21:39.638Z</time>
      </trkpt>
      <trkpt lat="41.92217" lon="25.72076">
        <ele>180.250143</ele>
        <time>2022-02-27T10:21:42.626Z</time>
      </trkpt>
      <trkpt lat="41.9221" lon="25.72063">
        <ele>180.190144</ele>
        <time>2022-02-27T10:21:45.640Z</time>
      </trkpt>
      <trkpt lat="41.92203" lon="25.72051">
        <ele>180.13517</ele>
        <time>2022-02-27T10:21:48.639Z</time>
      </trkpt>
      <trkpt lat="41.92197" lon="25.7204">
        <ele>180.086991</ele>
        <time>2022-02-27T10:21:51.639Z</time>
      </trkpt>
      <trkpt lat="41.92192" lon="25.72028">
        <ele>180.035266</ele>
        <time>2022-02-27T10:21:55.678Z</time>
      </trkpt>
      <trkpt lat="41.92187" lon="25.72017">
        <ele>179.9874</ele>
        <time>2022-02-27T10:22:00.613Z</time>
      </trkpt>
      <trkpt lat="41.9218" lon="25.72005">
        <ele>179.93092</ele>
        <time>2022-02-27T10:22:05.634Z</time>
      </trkpt>
      <trkpt lat="41.92174" lon="25.71995">
        <ele>179.881485</ele>
        <time>2022-02-27T10:22:08.631Z</time>
      </trkpt>
      <trkpt lat="41.92166" lon="25.71983">
        <ele>179.825702</ele>
        <time>2022-02-27T10:22:11.635Z</time>
      </trkpt>
      <trkpt lat="41.92159" lon="25.71972">
        <ele>179.769367</ele>
        <time>2022-02-27T10:22:14.640Z</time>
      </trkpt>
      <trkpt lat="41.92151" lon="25.7196">
        <ele>179.879876</ele>
        <time>2022-02-27T10:22:17.641Z</time>
      </trkpt>
      <trkpt lat="41.92144" lon="25.71948">
        <ele>180.023279</ele>
        <time>2022-02-27T10:22:20.632Z</time>
      </trkpt>
      <trkpt lat="41.92137" lon="25.71935">
        <ele>180.164456</ele>
        <time>2022-02-27T10:22:23.682Z</time>
      </trkpt>
      <trkpt lat="41.9213" lon="25.71924">
        <ele>180.30427</ele>
        <time>2022-02-27T10:22:26.626Z</time>
      </trkpt>
      <trkpt lat="41.92124" lon="25.71912">
        <ele>180.43652</ele>
        <time>2022-02-27T10:22:29.632Z</time>
      </trkpt>
      <trkpt lat="41.92118" lon="25.71902">
        <ele>180.551679</ele>
        <time>2022-02-27T10:22:32.662Z</time>
      </trkpt>
      <trkpt lat="41.92112" lon="25.71889">
        <ele>180.699137</ele>
        <time>2022-02-27T10:22:36.644Z</time>
      </trkpt>
      <trkpt lat="41.92106" lon="25.71877">
        <ele>180.829331</ele>
        <time>2022-02-27T10:22:39.660Z</time>
      </trkpt>
      <trkpt lat="41.92099" lon="25.71865">
        <ele>180.971273</ele>
        <time>2022-02-27T10:22:42.626Z</time>
      </trkpt>
      <trkpt lat="41.92093" lon="25.71853">
        <ele>181.110208</ele>
        <time>2022-02-27T10:22:45.650Z</time>
      </trkpt>
      <trkpt lat="41.92086" lon="25.7184">
        <ele>181.257331</ele>
        <time>2022-02-27T10:22:48.637Z</time>
      </trkpt>
      <trkpt lat="41.92078" lon="25.71828">
        <ele>181.405391</ele>
        <time>2022-02-27T10:22:51.632Z</time>
      </trkpt>
      <trkpt lat="41.92071" lon="25.71815">
        <ele>181.553248</ele>
        <time>2022-02-27T10:22:54.650Z</time>
      </trkpt>
      <trkpt lat="41.92064" lon="25.71802">
        <ele>181.701382</ele>
        <time>2022-02-27T10:22:57.638Z</time>
      </trkpt>
      <trkpt lat="41.92058" lon="25.71788">
        <ele>181.850774</ele>
        <time>2022-02-27T10:23:00.658Z</time>
      </trkpt>
      <trkpt lat="41.92051" lon="25.71775">
        <ele>181.996318</ele>
        <time>2022-02-27T10:23:03.647Z</time>
      </trkpt>
      <trkpt lat="41.92043" lon="25.71762">
        <ele>181.846546</ele>
        <time>2022-02-27T10:23:06.670Z</time>
      </trkpt>
      <trkpt lat="41.92036" lon="25.71748">
        <ele>181.694617</ele>
        <time>2022-02-27T10:23:09.638Z</time>
      </trkpt>
      <trkpt lat="41.92028" lon="25.71734">
        <ele>181.540481</ele>
        <time>2022-02-27T10:23:12.620Z</time>
      </trkpt>
      <trkpt lat="41.92021" lon="25.7172">
        <ele>181.386902</ele>
        <time>2022-02-27T10:23:15.646Z</time>
      </trkpt>
      <trkpt lat="41.92014" lon="25.71707">
        <ele>181.23425</ele>
        <time>2022-02-27T10:23:18.642Z</time>
      </trkpt>
      <trkpt lat="41.92005" lon="25.71694">
        <ele>181.080368</ele>
        <time>2022-02-27T10:23:21.614Z</time>
      </trkpt>
      <trkpt lat="41.91998" lon="25.71683">
        <ele>180.942711</ele>
        <time>2022-02-27T10:23:24.634Z</time>
      </trkpt>
      <trkpt lat="41.91989" lon="25.71672">
        <ele>180.803969</ele>
        <time>2022-02-27T10:23:27.641Z</time>
      </trkpt>
      <trkpt lat="41.9198" lon="25.71661">
        <ele>180.655863</ele>
        <time>2022-02-27T10:23:30.651Z</time>
      </trkpt>
      <trkpt lat="41.91972" lon="25.71649">
        <ele>180.50992</ele>
        <time>2022-02-27T10:23:33.633Z</time>
      </trkpt>
      <trkpt lat="41.91963" lon="25.71638">
        <ele>180.361813</ele>
        <time>2022-02-27T10:23:36.646Z</time>
      </trkpt>
      <trkpt lat="41.91954" lon="25.71627">
        <ele>180.207769</ele>
        <time>2022-02-27T10:23:39.661Z</time>
      </trkpt>
      <trkpt lat="41.91943" lon="25.71616">
        <ele>180.049466</ele>
        <time>2022-02-27T10:23:42.636Z</time>
      </trkpt>
      <trkpt lat="41.91933" lon="25.71606">
        <ele>179.893897</ele>
        <time>2022-02-27T10:23:45.622Z</time>
      </trkpt>
      <trkpt lat="41.91923" lon="25.71595">
        <ele>179.860352</ele>
        <time>2022-02-27T10:23:48.637Z</time>
      </trkpt>
      <trkpt lat="41.91913" lon="25.71585">
        <ele>179.942725</ele>
        <time>2022-02-27T10:23:51.685Z</time>
      </trkpt>
      <trkpt lat="41.91903" lon="25.71575">
        <ele>180.021308</ele>
        <time>2022-02-27T10:23:54.632Z</time>
      </trkpt>
      <trkpt lat="41.91892" lon="25.71565">
        <ele>180.104087</ele>
        <time>2022-02-27T10:23:57.640Z</time>
      </trkpt>
      <trkpt lat="41.91884" lon="25.71557">
        <ele>180.162337</ele>
        <time>2022-02-27T10:23:59.622Z</time>
      </trkpt>
      <trkpt lat="41.91874" lon="25.71547">
        <ele>180.24536</ele>
        <time>2022-02-27T10:24:02.673Z</time>
      </trkpt>
      <trkpt lat="41.91863" lon="25.71537">
        <ele>180.329948</ele>
        <time>2022-02-27T10:24:05.636Z</time>
      </trkpt>
      <trkpt lat="41.91855" lon="25.7153">
        <ele>180.388798</ele>
        <time>2022-02-27T10:24:07.651Z</time>
      </trkpt>
      <trkpt lat="41.91844" lon="25.71519">
        <ele>180.474842</ele>
        <time>2022-02-27T10:24:10.628Z</time>
      </trkpt>
      <trkpt lat="41.91837" lon="25.71512">
        <ele>180.534134</ele>
        <time>2022-02-27T10:24:12.641Z</time>
      </trkpt>
      <trkpt lat="41.91829" lon="25.71504">
        <ele>180.593212</ele>
        <time>2022-02-27T10:24:14.632Z</time>
      </trkpt>
      <trkpt lat="41.91821" lon="25.71498">
        <ele>180.651849</ele>
        <time>2022-02-27T10:24:16.633Z</time>
      </trkpt>
      <trkpt lat="41.91813" lon="25.71492">
        <ele>180.712783</ele>
        <time>2022-02-27T10:24:18.656Z</time>
      </trkpt>
      <trkpt lat="41.91805" lon="25.71485">
        <ele>180.77314</ele>
        <time>2022-02-27T10:24:20.649Z</time>
      </trkpt>
      <trkpt lat="41.91797" lon="25.71477">
        <ele>180.834539</ele>
        <time>2022-02-27T10:24:22.649Z</time>
      </trkpt>
      <trkpt lat="41.91789" lon="25.7147">
        <ele>180.894356</ele>
        <time>2022-02-27T10:24:24.630Z</time>
      </trkpt>
      <trkpt lat="41.91782" lon="25.71463">
        <ele>180.953671</ele>
        <time>2022-02-27T10:24:26.637Z</time>
      </trkpt>
      <trkpt lat="41.91774" lon="25.71455">
        <ele>181.156332</ele>
        <time>2022-02-27T10:24:28.660Z</time>
      </trkpt>
      <trkpt lat="41.91767" lon="25.71448">
        <ele>181.37123</ele>
        <time>2022-02-27T10:24:30.624Z</time>
      </trkpt>
      <trkpt lat="41.91756" lon="25.71437">
        <ele>181.683146</ele>
        <time>2022-02-27T10:24:33.647Z</time>
      </trkpt>
      <trkpt lat="41.91746" lon="25.71427">
        <ele>181.987358</ele>
        <time>2022-02-27T10:24:36.642Z</time>
      </trkpt>
      <trkpt lat="41.91736" lon="25.71416">
        <ele>182.282015</ele>
        <time>2022-02-27T10:24:39.621Z</time>
      </trkpt>
      <trkpt lat="41.91726" lon="25.71406">
        <ele>182.56899</ele>
        <time>2022-02-27T10:24:42.636Z</time>
      </trkpt>
      <trkpt lat="41.91717" lon="25.71397">
        <ele>182.838479</ele>
        <time>2022-02-27T10:24:45.656Z</time>
      </trkpt>
      <trkpt lat="41.91708" lon="25.71387">
        <ele>183.102851</ele>
        <time>2022-02-27T10:24:48.623Z</time>
      </trkpt>
      <trkpt lat="41.91701" lon="25.71378">
        <ele>183.342066</ele>
        <time>2022-02-27T10:24:51.670Z</time>
      </trkpt>
      <trkpt lat="41.91694" lon="25.71369">
        <ele>183.559499</ele>
        <time>2022-02-27T10:24:54.621Z</time>
      </trkpt>
      <trkpt lat="41.91686" lon="25.71358">
        <ele>183.824293</ele>
        <time>2022-02-27T10:24:58.641Z</time>
      </trkpt>
      <trkpt lat="41.91679" lon="25.71346">
        <ele>184.099554</ele>
        <time>2022-02-27T10:25:02.671Z</time>
      </trkpt>
      <trkpt lat="41.91671" lon="25.71333">
        <ele>184.37335</ele>
        <time>2022-02-27T10:25:06.624Z</time>
      </trkpt>
      <trkpt lat="41.91665" lon="25.71321">
        <ele>184.635888</ele>
        <time>2022-02-27T10:25:10.640Z</time>
      </trkpt>
      <trkpt lat="41.91659" lon="25.71309">
        <ele>184.883447</ele>
        <time>2022-02-27T10:25:14.633Z</time>
      </trkpt>
      <trkpt lat="41.91654" lon="25.71297">
        <ele>185.130196</ele>
        <time>2022-02-27T10:25:18.642Z</time>
      </trkpt>
      <trkpt lat="41.91648" lon="25.71285">
        <ele>185.742107</ele>
        <time>2022-02-27T10:25:22.649Z</time>
      </trkpt>
      <trkpt lat="41.91643" lon="25.71272">
        <ele>186.389352</ele>
        <time>2022-02-27T10:25:26.623Z</time>
      </trkpt>
      <trkpt lat="41.91639" lon="25.7126">
        <ele>186.977276</ele>
        <time>2022-02-27T10:25:30.630Z</time>
      </trkpt>
      <trkpt lat="41.91635" lon="25.71248">
        <ele>187.588283</ele>
        <time>2022-02-27T10:25:34.620Z</time>
      </trkpt>
      <trkpt lat="41.9163" lon="25.71235">
        <ele>188.22495</ele>
        <time>2022-02-27T10:25:38.633Z</time>
      </trkpt>
      <trkpt lat="41.91626" lon="25.71224">
        <ele>188.801093</ele>
        <time>2022-02-27T10:25:42.643Z</time>
      </trkpt>
      <trkpt lat="41.91622" lon="25.71212">
        <ele>189.402089</ele>
        <time>2022-02-27T10:25:46.655Z</time>
      </trkpt>
      <trkpt lat="41.91618" lon="25.712">
        <ele>189.971615</ele>
        <time>2022-02-27T10:25:50.636Z</time>
      </trkpt>
      <trkpt lat="41.91613" lon="25.71186">
        <ele>190.6611</ele>
        <time>2022-02-27T10:25:55.619Z</time>
      </trkpt>
      <trkpt lat="41.9161" lon="25.71175">
        <ele>191.236059</ele>
        <time>2022-02-27T10:25:59.635Z</time>
      </trkpt>
      <trkpt lat="41.91606" lon="25.71162">
        <ele>191.875135</ele>
        <time>2022-02-27T10:26:04.620Z</time>
      </trkpt>
      <trkpt lat="41.91601" lon="25.71149">
        <ele>192.490142</ele>
        <time>2022-02-27T10:26:09.637Z</time>
      </trkpt>
      <trkpt lat="41.91598" lon="25.71136">
        <ele>193.122219</ele>
        <time>2022-02-27T10:26:14.667Z</time>
      </trkpt>
      <trkpt lat="41.91595" lon="25.71122">
        <ele>193.78998</ele>
        <time>2022-02-27T10:26:19.652Z</time>
      </trkpt>
      <trkpt lat="41.91592" lon="25.7111">
        <ele>194.35245</ele>
        <time>2022-02-27T10:26:23.634Z</time>
      </trkpt>
      <trkpt lat="41.91589" lon="25.71098">
        <ele>194.923523</ele>
        <time>2022-02-27T10:26:27.635Z</time>
      </trkpt>
      <trkpt lat="41.91585" lon="25.71085">
        <ele>195.559184</ele>
        <time>2022-02-27T10:26:32.645Z</time>
      </trkpt>
      <trkpt lat="41.91583" lon="25.71073">
        <ele>196.110599</ele>
        <time>2022-02-27T10:26:36.632Z</time>
      </trkpt>
      <trkpt lat="41.9158" lon="25.71061">
        <ele>196.186648</ele>
        <time>2022-02-27T10:26:40.650Z</time>
      </trkpt>
      <trkpt lat="41.91578" lon="25.71049">
        <ele>196.265084</ele>
        <time>2022-02-27T10:26:44.652Z</time>
      </trkpt>
      <trkpt lat="41.91575" lon="25.71036">
        <ele>196.345503</ele>
        <time>2022-02-27T10:26:48.677Z</time>
      </trkpt>
      <trkpt lat="41.91572" lon="25.71022">
        <ele>196.435854</ele>
        <time>2022-02-27T10:26:53.633Z</time>
      </trkpt>
      <trkpt lat="41.91568" lon="25.71007">
        <ele>196.530598</ele>
        <time>2022-02-27T10:26:58.673Z</time>
      </trkpt>
      <trkpt lat="41.91565" lon="25.70995">
        <ele>196.611576</ele>
        <time>2022-02-27T10:27:02.638Z</time>
      </trkpt>
      <trkpt lat="41.91562" lon="25.70982">
        <ele>196.690108</ele>
        <time>2022-02-27T10:27:06.627Z</time>
      </trkpt>
      <trkpt lat="41.91558" lon="25.70969">
        <ele>196.777692</ele>
        <time>2022-02-27T10:27:11.643Z</time>
      </trkpt>
      <trkpt lat="41.91555" lon="25.70956">
        <ele>196.861292</ele>
        <time>2022-02-27T10:27:16.674Z</time>
      </trkpt>
      <trkpt lat="41.91552" lon="25.70942">
        <ele>196.94979</ele>
        <time>2022-02-27T10:27:21.591Z</time>
      </trkpt>
      <trkpt lat="41.91549" lon="25.70928">
        <ele>197.038286</ele>
        <time>2022-02-27T10:27:26.612Z</time>
      </trkpt>
      <trkpt lat="41.91547" lon="25.70914">
        <ele>197.127971</ele>
        <time>2022-02-27T10:27:31.618Z</time>
      </trkpt>
      <trkpt lat="41.91545" lon="25.70901">
        <ele>197.208178</ele>
        <time>2022-02-27T10:27:35.641Z</time>
      </trkpt>
      <trkpt lat="41.91541" lon="25.70888">
        <ele>197.291198</ele>
        <time>2022-02-27T10:27:39.642Z</time>
      </trkpt>
      <trkpt lat="41.91539" lon="25.70875">
        <ele>197.372306</ele>
        <time>2022-02-27T10:27:43.653Z</time>
      </trkpt>
      <trkpt lat="41.91536" lon="25.70862">
        <ele>197.456108</ele>
        <time>2022-02-27T10:27:47.621Z</time>
      </trkpt>
      <trkpt lat="41.91533" lon="25.70847">
        <ele>197.549144</ele>
        <time>2022-02-27T10:27:51.674Z</time>
      </trkpt>
      <trkpt lat="41.91531" lon="25.70832">
        <ele>197.675077</ele>
        <time>2022-02-27T10:27:55.652Z</time>
      </trkpt>
      <trkpt lat="41.91529" lon="25.70817">
        <ele>197.812344</ele>
        <time>2022-02-27T10:27:59.646Z</time>
      </trkpt>
      <trkpt lat="41.91525" lon="25.70802">
        <ele>197.962069</ele>
        <time>2022-02-27T10:28:03.636Z</time>
      </trkpt>
      <trkpt lat="41.91521" lon="25.70789">
        <ele>198.09311</ele>
        <time>2022-02-27T10:28:06.631Z</time>
      </trkpt>
      <trkpt lat="41.91518" lon="25.70775">
        <ele>198.225073</ele>
        <time>2022-02-27T10:28:09.638Z</time>
      </trkpt>
      <trkpt lat="41.91514" lon="25.70761">
        <ele>198.357037</ele>
        <time>2022-02-27T10:28:12.660Z</time>
      </trkpt>
      <trkpt lat="41.91511" lon="25.70747">
        <ele>198.492479</ele>
        <time>2022-02-27T10:28:15.628Z</time>
      </trkpt>
      <trkpt lat="41.91508" lon="25.70731">
        <ele>198.651718</ele>
        <time>2022-02-27T10:28:18.645Z</time>
      </trkpt>
      <trkpt lat="41.91504" lon="25.70715">
        <ele>198.805113</ele>
        <time>2022-02-27T10:28:21.664Z</time>
      </trkpt>
      <trkpt lat="41.915" lon="25.70699">
        <ele>198.959976</ele>
        <time>2022-02-27T10:28:24.633Z</time>
      </trkpt>
      <trkpt lat="41.91496" lon="25.70684">
        <ele>199.105259</ele>
        <time>2022-02-27T10:28:27.621Z</time>
      </trkpt>
      <trkpt lat="41.91492" lon="25.70669">
        <ele>199.25397</ele>
        <time>2022-02-27T10:28:30.635Z</time>
      </trkpt>
      <trkpt lat="41.91488" lon="25.70653">
        <ele>199.410016</ele>
        <time>2022-02-27T10:28:33.635Z</time>
      </trkpt>
      <trkpt lat="41.91485" lon="25.70637">
        <ele>199.562005</ele>
        <time>2022-02-27T10:28:36.631Z</time>
      </trkpt>
      <trkpt lat="41.91481" lon="25.70621">
        <ele>199.711239</ele>
        <time>2022-02-27T10:28:39.638Z</time>
      </trkpt>
      <trkpt lat="41.91477" lon="25.70606">
        <ele>199.759606</ele>
        <time>2022-02-27T10:28:42.638Z</time>
      </trkpt>
      <trkpt lat="41.91473" lon="25.70591">
        <ele>199.621754</ele>
        <time>2022-02-27T10:28:45.637Z</time>
      </trkpt>
      <trkpt lat="41.9147" lon="25.70577">
        <ele>199.491917</ele>
        <time>2022-02-27T10:28:48.621Z</time>
      </trkpt>
      <trkpt lat="41.91466" lon="25.70563">
        <ele>199.362939</ele>
        <time>2022-02-27T10:28:51.624Z</time>
      </trkpt>
      <trkpt lat="41.91462" lon="25.70549">
        <ele>199.240262</ele>
        <time>2022-02-27T10:28:54.632Z</time>
      </trkpt>
      <trkpt lat="41.91459" lon="25.70536">
        <ele>199.11687</ele>
        <time>2022-02-27T10:28:57.630Z</time>
      </trkpt>
      <trkpt lat="41.91456" lon="25.70521">
        <ele>198.980846</ele>
        <time>2022-02-27T10:29:00.640Z</time>
      </trkpt>
      <trkpt lat="41.91453" lon="25.70506">
        <ele>198.847545</ele>
        <time>2022-02-27T10:29:03.641Z</time>
      </trkpt>
      <trkpt lat="41.9145" lon="25.7049">
        <ele>198.71054</ele>
        <time>2022-02-27T10:29:06.695Z</time>
      </trkpt>
      <trkpt lat="41.91446" lon="25.70474">
        <ele>198.567107</ele>
        <time>2022-02-27T10:29:09.629Z</time>
      </trkpt>
      <trkpt lat="41.91442" lon="25.70458">
        <ele>198.421362</ele>
        <time>2022-02-27T10:29:12.633Z</time>
      </trkpt>
      <trkpt lat="41.91439" lon="25.70441">
        <ele>198.271922</ele>
        <time>2022-02-27T10:29:15.629Z</time>
      </trkpt>
      <trkpt lat="41.91435" lon="25.70425">
        <ele>198.120676</ele>
        <time>2022-02-27T10:29:18.628Z</time>
      </trkpt>
      <trkpt lat="41.91431" lon="25.70408">
        <ele>197.971506</ele>
        <time>2022-02-27T10:29:21.641Z</time>
      </trkpt>
      <trkpt lat="41.91427" lon="25.70391">
        <ele>197.819995</ele>
        <time>2022-02-27T10:29:24.630Z</time>
      </trkpt>
      <trkpt lat="41.91425" lon="25.70379">
        <ele>197.683682</ele>
        <time>2022-02-27T10:29:26.631Z</time>
      </trkpt>
      <trkpt lat="41.91422" lon="25.70367">
        <ele>197.401359</ele>
        <time>2022-02-27T10:29:28.689Z</time>
      </trkpt>
      <trkpt lat="41.91419" lon="25.70355">
        <ele>197.12467</ele>
        <time>2022-02-27T10:29:30.634Z</time>
      </trkpt>
      <trkpt lat="41.91418" lon="25.70342">
        <ele>196.833181</ele>
        <time>2022-02-27T10:29:32.636Z</time>
      </trkpt>
      <trkpt lat="41.91415" lon="25.7033">
        <ele>196.542147</ele>
        <time>2022-02-27T10:29:34.640Z</time>
      </trkpt>
      <trkpt lat="41.91412" lon="25.70317">
        <ele>196.239312</ele>
        <time>2022-02-27T10:29:36.636Z</time>
      </trkpt>
      <trkpt lat="41.91409" lon="25.70304">
        <ele>195.943516</ele>
        <time>2022-02-27T10:29:38.634Z</time>
      </trkpt>
      <trkpt lat="41.91406" lon="25.70291">
        <ele>195.637287</ele>
        <time>2022-02-27T10:29:40.666Z</time>
      </trkpt>
      <trkpt lat="41.91403" lon="25.70277">
        <ele>195.31044</ele>
        <time>2022-02-27T10:29:42.631Z</time>
      </trkpt>
      <trkpt lat="41.914" lon="25.70264">
        <ele>194.997318</ele>
        <time>2022-02-27T10:29:44.631Z</time>
      </trkpt>
      <trkpt lat="41.91397" lon="25.70251">
        <ele>194.700362</ele>
        <time>2022-02-27T10:29:46.633Z</time>
      </trkpt>
      <trkpt lat="41.91393" lon="25.70239">
        <ele>194.403407</ele>
        <time>2022-02-27T10:29:48.635Z</time>
      </trkpt>
      <trkpt lat="41.91391" lon="25.70226">
        <ele>194.100026</ele>
        <time>2022-02-27T10:29:50.673Z</time>
      </trkpt>
      <trkpt lat="41.91388" lon="25.70213">
        <ele>193.804472</ele>
        <time>2022-02-27T10:29:52.636Z</time>
      </trkpt>
      <trkpt lat="41.91385" lon="25.702">
        <ele>193.503785</ele>
        <time>2022-02-27T10:29:54.630Z</time>
      </trkpt>
      <trkpt lat="41.91383" lon="25.70187">
        <ele>193.207391</ele>
        <time>2022-02-27T10:29:56.650Z</time>
      </trkpt>
      <trkpt lat="41.9138" lon="25.70174">
        <ele>192.908332</ele>
        <time>2022-02-27T10:29:58.650Z</time>
      </trkpt>
      <trkpt lat="41.91378" lon="25.70161">
        <ele>192.608617</ele>
        <time>2022-02-27T10:30:00.655Z</time>
      </trkpt>
      <trkpt lat="41.91375" lon="25.7015">
        <ele>192.338781</ele>
        <time>2022-02-27T10:30:02.653Z</time>
      </trkpt>
      <trkpt lat="41.91372" lon="25.70138">
        <ele>192.253829</ele>
        <time>2022-02-27T10:30:04.651Z</time>
      </trkpt>
      <trkpt lat="41.91371" lon="25.70124">
        <ele>192.173813</ele>
        <time>2022-02-27T10:30:06.633Z</time>
      </trkpt>
      <trkpt lat="41.91369" lon="25.7011">
        <ele>192.089253</ele>
        <time>2022-02-27T10:30:08.640Z</time>
      </trkpt>
      <trkpt lat="41.91368" lon="25.70094">
        <ele>192.001133</ele>
        <time>2022-02-27T10:30:10.643Z</time>
      </trkpt>
      <trkpt lat="41.91369" lon="25.7008">
        <ele>191.917926</ele>
        <time>2022-02-27T10:30:12.669Z</time>
      </trkpt>
      <trkpt lat="41.91369" lon="25.70065">
        <ele>191.834606</ele>
        <time>2022-02-27T10:30:14.643Z</time>
      </trkpt>
      <trkpt lat="41.9137" lon="25.70051">
        <ele>191.750331</ele>
        <time>2022-02-27T10:30:16.651Z</time>
      </trkpt>
      <trkpt lat="41.91372" lon="25.70037">
        <ele>191.670315</ele>
        <time>2022-02-27T10:30:18.641Z</time>
      </trkpt>
      <trkpt lat="41.91374" lon="25.70023">
        <ele>191.58822</ele>
        <time>2022-02-27T10:30:20.629Z</time>
      </trkpt>
      <trkpt lat="41.91377" lon="25.70008">
        <ele>191.502435</ele>
        <time>2022-02-27T10:30:22.636Z</time>
      </trkpt>
      <trkpt lat="41.91378" lon="25.69993">
        <ele>191.415494</ele>
        <time>2022-02-27T10:30:24.638Z</time>
      </trkpt>
      <trkpt lat="41.9138" lon="25.69979">
        <ele>191.33196</ele>
        <time>2022-02-27T10:30:26.624Z</time>
      </trkpt>
      <trkpt lat="41.91381" lon="25.69965">
        <ele>191.249778</ele>
        <time>2022-02-27T10:30:28.625Z</time>
      </trkpt>
      <trkpt lat="41.91383" lon="25.69951">
        <ele>191.16996</ele>
        <time>2022-02-27T10:30:30.638Z</time>
      </trkpt>
      <trkpt lat="41.91385" lon="25.69938">
        <ele>191.095786</ele>
        <time>2022-02-27T10:30:32.636Z</time>
      </trkpt>
      <trkpt lat="41.91388" lon="25.69921">
        <ele>190.992952</ele>
        <time>2022-02-27T10:30:35.636Z</time>
      </trkpt>
      <trkpt lat="41.91392" lon="25.69905">
        <ele>191.015222</ele>
        <time>2022-02-27T10:30:38.646Z</time>
      </trkpt>
      <trkpt lat="41.91396" lon="25.6989">
        <ele>191.223464</ele>
        <time>2022-02-27T10:30:41.646Z</time>
      </trkpt>
      <trkpt lat="41.914" lon="25.69874">
        <ele>191.432875</ele>
        <time>2022-02-27T10:30:44.640Z</time>
      </trkpt>
      <trkpt lat="41.91405" lon="25.69858">
        <ele>191.648908</ele>
        <time>2022-02-27T10:30:47.646Z</time>
      </trkpt>
      <trkpt lat="41.91409" lon="25.69843">
        <ele>191.85652</ele>
        <time>2022-02-27T10:30:50.644Z</time>
      </trkpt>
      <trkpt lat="41.91413" lon="25.69829">
        <ele>192.055765</ele>
        <time>2022-02-27T10:30:53.636Z</time>
      </trkpt>
      <trkpt lat="41.91417" lon="25.69816">
        <ele>192.235088</ele>
        <time>2022-02-27T10:30:56.675Z</time>
      </trkpt>
      <trkpt lat="41.9142" lon="25.69804">
        <ele>192.400595</ele>
        <time>2022-02-27T10:30:59.640Z</time>
      </trkpt>
      <trkpt lat="41.91423" lon="25.69792">
        <ele>192.561265</ele>
        <time>2022-02-27T10:31:02.631Z</time>
      </trkpt>
      <trkpt lat="41.91427" lon="25.69777">
        <ele>192.761668</ele>
        <time>2022-02-27T10:31:06.650Z</time>
      </trkpt>
      <trkpt lat="41.91431" lon="25.69763">
        <ele>192.949554</ele>
        <time>2022-02-27T10:31:10.655Z</time>
      </trkpt>
      <trkpt lat="41.91434" lon="25.6975">
        <ele>193.133129</ele>
        <time>2022-02-27T10:31:14.636Z</time>
      </trkpt>
      <trkpt lat="41.91438" lon="25.69735">
        <ele>193.332027</ele>
        <time>2022-02-27T10:31:18.676Z</time>
      </trkpt>
      <trkpt lat="41.91441" lon="25.69721">
        <ele>193.526552</ele>
        <time>2022-02-27T10:31:22.626Z</time>
      </trkpt>
      <trkpt lat="41.91445" lon="25.69708">
        <ele>193.703496</ele>
        <time>2022-02-27T10:31:26.644Z</time>
      </trkpt>
      <trkpt lat="41.91448" lon="25.69695">
        <ele>193.874597</ele>
        <time>2022-02-27T10:31:30.650Z</time>
      </trkpt>
      <trkpt lat="41.91451" lon="25.69682">
        <ele>194.063152</ele>
        <time>2022-02-27T10:31:34.633Z</time>
      </trkpt>
      <trkpt lat="41.91455" lon="25.69669">
        <ele>194.392457</ele>
        <time>2022-02-27T10:31:38.637Z</time>
      </trkpt>
      <trkpt lat="41.91458" lon="25.69657">
        <ele>194.6911</ele>
        <time>2022-02-27T10:31:42.641Z</time>
      </trkpt>
      <trkpt lat="41.91463" lon="25.69644">
        <ele>195.02925</ele>
        <time>2022-02-27T10:31:46.668Z</time>
      </trkpt>
      <trkpt lat="41.91466" lon="25.69631">
        <ele>195.345636</ele>
        <time>2022-02-27T10:31:50.628Z</time>
      </trkpt>
      <trkpt lat="41.91469" lon="25.69618">
        <ele>195.671869</ele>
        <time>2022-02-27T10:31:54.621Z</time>
      </trkpt>
      <trkpt lat="41.91473" lon="25.69604">
        <ele>196.01752</ele>
        <time>2022-02-27T10:31:58.648Z</time>
      </trkpt>
      <trkpt lat="41.91477" lon="25.69589">
        <ele>196.38513</ele>
        <time>2022-02-27T10:32:02.630Z</time>
      </trkpt>
      <trkpt lat="41.91481" lon="25.69575">
        <ele>196.735134</ele>
        <time>2022-02-27T10:32:06.629Z</time>
      </trkpt>
      <trkpt lat="41.91484" lon="25.69561">
        <ele>197.074184</ele>
        <time>2022-02-27T10:32:10.640Z</time>
      </trkpt>
      <trkpt lat="41.91488" lon="25.69547">
        <ele>197.417892</ele>
        <time>2022-02-27T10:32:14.678Z</time>
      </trkpt>
      <trkpt lat="41.91492" lon="25.69533">
        <ele>197.781089</ele>
        <time>2022-02-27T10:32:18.634Z</time>
      </trkpt>
      <trkpt lat="41.91495" lon="25.6952">
        <ele>198.082996</ele>
        <time>2022-02-27T10:32:21.640Z</time>
      </trkpt>
      <trkpt lat="41.91498" lon="25.69506">
        <ele>198.436886</ele>
        <time>2022-02-27T10:32:25.652Z</time>
      </trkpt>
      <trkpt lat="41.91502" lon="25.69494">
        <ele>198.730036</ele>
        <time>2022-02-27T10:32:28.653Z</time>
      </trkpt>
      <trkpt lat="41.91505" lon="25.69482">
        <ele>199.027539</ele>
        <time>2022-02-27T10:32:31.644Z</time>
      </trkpt>
      <trkpt lat="41.91508" lon="25.69469">
        <ele>199.337209</ele>
        <time>2022-02-27T10:32:34.624Z</time>
      </trkpt>
      <trkpt lat="41.91511" lon="25.69457">
        <ele>199.644721</ele>
        <time>2022-02-27T10:32:37.649Z</time>
      </trkpt>
      <trkpt lat="41.91514" lon="25.69445">
        <ele>199.695003</ele>
        <time>2022-02-27T10:32:40.635Z</time>
      </trkpt>
      <trkpt lat="41.91517" lon="25.69433">
        <ele>199.715362</ele>
        <time>2022-02-27T10:32:43.639Z</time>
      </trkpt>
      <trkpt lat="41.9152" lon="25.6942">
        <ele>199.736757</ele>
        <time>2022-02-27T10:32:46.643Z</time>
      </trkpt>
      <trkpt lat="41.91523" lon="25.69408">
        <ele>199.757561</ele>
        <time>2022-02-27T10:32:49.643Z</time>
      </trkpt>
      <trkpt lat="41.91526" lon="25.69396">
        <ele>199.778293</ele>
        <time>2022-02-27T10:32:52.648Z</time>
      </trkpt>
      <trkpt lat="41.91529" lon="25.69383">
        <ele>199.79994</ele>
        <time>2022-02-27T10:32:55.653Z</time>
      </trkpt>
      <trkpt lat="41.91532" lon="25.6937">
        <ele>199.821656</ele>
        <time>2022-02-27T10:32:58.638Z</time>
      </trkpt>
      <trkpt lat="41.91536" lon="25.69357">
        <ele>199.843963</ele>
        <time>2022-02-27T10:33:01.647Z</time>
      </trkpt>
      <trkpt lat="41.9154" lon="25.69344">
        <ele>199.867182</ele>
        <time>2022-02-27T10:33:04.663Z</time>
      </trkpt>
      <trkpt lat="41.91543" lon="25.69331">
        <ele>199.889869</ele>
        <time>2022-02-27T10:33:07.637Z</time>
      </trkpt>
      <trkpt lat="41.91547" lon="25.69317">
        <ele>199.913842</ele>
        <time>2022-02-27T10:33:10.649Z</time>
      </trkpt>
      <trkpt lat="41.9155" lon="25.69301">
        <ele>199.93943</ele>
        <time>2022-02-27T10:33:13.620Z</time>
      </trkpt>
      <trkpt lat="41.91554" lon="25.69286">
        <ele>199.966492</ele>
        <time>2022-02-27T10:33:16.633Z</time>
      </trkpt>
      <trkpt lat="41.91559" lon="25.6927">
        <ele>199.993849</ele>
        <time>2022-02-27T10:33:19.633Z</time>
      </trkpt>
      <trkpt lat="41.91561" lon="25.69257">
        <ele>200.013933</ele>
        <time>2022-02-27T10:33:21.638Z</time>
      </trkpt>
      <trkpt lat="41.91564" lon="25.69245">
        <ele>200.034773</ele>
        <time>2022-02-27T10:33:23.640Z</time>
      </trkpt>
      <trkpt lat="41.91567" lon="25.69232">
        <ele>200.056115</ele>
        <time>2022-02-27T10:33:25.638Z</time>
      </trkpt>
      <trkpt lat="41.9157" lon="25.6922">
        <ele>199.875011</ele>
        <time>2022-02-27T10:33:27.635Z</time>
      </trkpt>
      <trkpt lat="41.91573" lon="25.69208">
        <ele>199.533042</ele>
        <time>2022-02-27T10:33:29.634Z</time>
      </trkpt>
      <trkpt lat="41.91576" lon="25.69195">
        <ele>199.18237</ele>
        <time>2022-02-27T10:33:31.633Z</time>
      </trkpt>
      <trkpt lat="41.9158" lon="25.69182">
        <ele>198.819431</ele>
        <time>2022-02-27T10:33:33.634Z</time>
      </trkpt>
      <trkpt lat="41.91583" lon="25.69169">
        <ele>198.450259</ele>
        <time>2022-02-27T10:33:35.640Z</time>
      </trkpt>
      <trkpt lat="41.91587" lon="25.69156">
        <ele>198.077338</ele>
        <time>2022-02-27T10:33:37.655Z</time>
      </trkpt>
      <trkpt lat="41.91591" lon="25.69144">
        <ele>197.710302</ele>
        <time>2022-02-27T10:33:39.632Z</time>
      </trkpt>
      <trkpt lat="41.91595" lon="25.6913">
        <ele>197.331133</ele>
        <time>2022-02-27T10:33:41.654Z</time>
      </trkpt>
      <trkpt lat="41.91599" lon="25.69117">
        <ele>196.94571</ele>
        <time>2022-02-27T10:33:43.633Z</time>
      </trkpt>
      <trkpt lat="41.91602" lon="25.69103">
        <ele>196.572237</ele>
        <time>2022-02-27T10:33:45.639Z</time>
      </trkpt>
      <trkpt lat="41.91605" lon="25.6909">
        <ele>196.193153</ele>
        <time>2022-02-27T10:33:47.637Z</time>
      </trkpt>
      <trkpt lat="41.91608" lon="25.69076">
        <ele>195.808453</ele>
        <time>2022-02-27T10:33:49.641Z</time>
      </trkpt>
      <trkpt lat="41.91612" lon="25.69062">
        <ele>195.424276</ele>
        <time>2022-02-27T10:33:51.644Z</time>
      </trkpt>
      <trkpt lat="41.91616" lon="25.69048">
        <ele>195.016433</ele>
        <time>2022-02-27T10:33:53.678Z</time>
      </trkpt>
      <trkpt lat="41.91619" lon="25.69033">
        <ele>194.585735</ele>
        <time>2022-02-27T10:33:55.637Z</time>
      </trkpt>
      <trkpt lat="41.91623" lon="25.69017">
        <ele>194.152935</ele>
        <time>2022-02-27T10:33:57.635Z</time>
      </trkpt>
      <trkpt lat="41.91628" lon="25.69002">
        <ele>193.723605</ele>
        <time>2022-02-27T10:33:59.652Z</time>
      </trkpt>
      <trkpt lat="41.91633" lon="25.68987">
        <ele>193.522031</ele>
        <time>2022-02-27T10:34:01.630Z</time>
      </trkpt>
      <trkpt lat="41.91637" lon="25.68972">
        <ele>193.385131</ele>
        <time>2022-02-27T10:34:03.631Z</time>
      </trkpt>
      <trkpt lat="41.91641" lon="25.68956">
        <ele>193.247049</ele>
        <time>2022-02-27T10:34:05.647Z</time>
      </trkpt>
      <trkpt lat="41.91645" lon="25.6894">
        <ele>193.109373</ele>
        <time>2022-02-27T10:34:07.636Z</time>
      </trkpt>
      <trkpt lat="41.91649" lon="25.68925">
        <ele>192.976335</ele>
        <time>2022-02-27T10:34:09.633Z</time>
      </trkpt>
      <trkpt lat="41.91653" lon="25.68911">
        <ele>192.849604</ele>
        <time>2022-02-27T10:34:11.655Z</time>
      </trkpt>
      <trkpt lat="41.91656" lon="25.68897">
        <ele>192.727694</ele>
        <time>2022-02-27T10:34:13.646Z</time>
      </trkpt>
      <trkpt lat="41.91659" lon="25.68883">
        <ele>192.608305</ele>
        <time>2022-02-27T10:34:15.620Z</time>
      </trkpt>
      <trkpt lat="41.91663" lon="25.6887">
        <ele>192.489798</ele>
        <time>2022-02-27T10:34:17.635Z</time>
      </trkpt>
      <trkpt lat="41.91666" lon="25.68857">
        <ele>192.375949</ele>
        <time>2022-02-27T10:34:19.640Z</time>
      </trkpt>
      <trkpt lat="41.91669" lon="25.68844">
        <ele>192.259627</ele>
        <time>2022-02-27T10:34:21.662Z</time>
      </trkpt>
      <trkpt lat="41.91673" lon="25.6883">
        <ele>192.139094</ele>
        <time>2022-02-27T10:34:23.624Z</time>
      </trkpt>
      <trkpt lat="41.91676" lon="25.68817">
        <ele>192.020381</ele>
        <time>2022-02-27T10:34:25.651Z</time>
      </trkpt>
      <trkpt lat="41.91679" lon="25.68804">
        <ele>191.91087</ele>
        <time>2022-02-27T10:34:27.625Z</time>
      </trkpt>
      <trkpt lat="41.91682" lon="25.68792">
        <ele>191.802046</ele>
        <time>2022-02-27T10:34:29.635Z</time>
      </trkpt>
      <trkpt lat="41.91686" lon="25.68779">
        <ele>191.687408</ele>
        <time>2022-02-27T10:34:31.645Z</time>
      </trkpt>
      <trkpt lat="41.91689" lon="25.68767">
        <ele>191.644897</ele>
        <time>2022-02-27T10:34:33.633Z</time>
      </trkpt>
      <trkpt lat="41.91692" lon="25.68756">
        <ele>191.732118</ele>
        <time>2022-02-27T10:34:35.643Z</time>
      </trkpt>
      <trkpt lat="41.91696" lon="25.68739">
        <ele>191.856473</ele>
        <time>2022-02-27T10:34:38.636Z</time>
      </trkpt>
      <trkpt lat="41.917" lon="25.68723">
        <ele>191.979927</ele>
        <time>2022-02-27T10:34:41.632Z</time>
      </trkpt>
      <trkpt lat="41.91704" lon="25.68706">
        <ele>192.106308</ele>
        <time>2022-02-27T10:34:44.622Z</time>
      </trkpt>
      <trkpt lat="41.91708" lon="25.68688">
        <ele>192.236725</ele>
        <time>2022-02-27T10:34:47.635Z</time>
      </trkpt>
      <trkpt lat="41.91711" lon="25.68676">
        <ele>192.328969</ele>
        <time>2022-02-27T10:34:49.657Z</time>
      </trkpt>
      <trkpt lat="41.91714" lon="25.68664">
        <ele>192.41987</ele>
        <time>2022-02-27T10:34:51.624Z</time>
      </trkpt>
      <trkpt lat="41.91717" lon="25.68652">
        <ele>192.511878</ele>
        <time>2022-02-27T10:34:53.648Z</time>
      </trkpt>
      <trkpt lat="41.9172" lon="25.6864">
        <ele>192.601849</ele>
        <time>2022-02-27T10:34:55.664Z</time>
      </trkpt>
      <trkpt lat="41.91723" lon="25.68628">
        <ele>192.690564</ele>
        <time>2022-02-27T10:34:57.630Z</time>
      </trkpt>
      <trkpt lat="41.91726" lon="25.68616">
        <ele>192.778456</ele>
        <time>2022-02-27T10:34:59.649Z</time>
      </trkpt>
      <trkpt lat="41.91729" lon="25.68604">
        <ele>192.868024</ele>
        <time>2022-02-27T10:35:01.634Z</time>
      </trkpt>
      <trkpt lat="41.91732" lon="25.68592">
        <ele>192.957995</ele>
        <time>2022-02-27T10:35:03.640Z</time>
      </trkpt>
      <trkpt lat="41.91736" lon="25.6858">
        <ele>193.050259</ele>
        <time>2022-02-27T10:35:05.633Z</time>
      </trkpt>
      <trkpt lat="41.91738" lon="25.68569">
        <ele>193.136377</ele>
        <time>2022-02-27T10:35:07.638Z</time>
      </trkpt>
      <trkpt lat="41.91742" lon="25.68556">
        <ele>193.231645</ele>
        <time>2022-02-27T10:35:09.628Z</time>
      </trkpt>
      <trkpt lat="41.91746" lon="25.68544">
        <ele>193.327551</ele>
        <time>2022-02-27T10:35:11.642Z</time>
      </trkpt>
      <trkpt lat="41.91749" lon="25.68531">
        <ele>193.286905</ele>
        <time>2022-02-27T10:35:13.622Z</time>
      </trkpt>
      <trkpt lat="41.91752" lon="25.68518">
        <ele>193.226931</ele>
        <time>2022-02-27T10:35:15.619Z</time>
      </trkpt>
      <trkpt lat="41.91755" lon="25.68505">
        <ele>193.168557</ele>
        <time>2022-02-27T10:35:17.643Z</time>
      </trkpt>
      <trkpt lat="41.91758" lon="25.68492">
        <ele>193.110358</ele>
        <time>2022-02-27T10:35:19.642Z</time>
      </trkpt>
      <trkpt lat="41.91761" lon="25.6848">
        <ele>193.052401</ele>
        <time>2022-02-27T10:35:21.625Z</time>
      </trkpt>
      <trkpt lat="41.91764" lon="25.68468">
        <ele>192.996111</ele>
        <time>2022-02-27T10:35:23.640Z</time>
      </trkpt>
      <trkpt lat="41.91767" lon="25.68456">
        <ele>192.940064</ele>
        <time>2022-02-27T10:35:25.649Z</time>
      </trkpt>
      <trkpt lat="41.9177" lon="25.68444">
        <ele>192.886222</ele>
        <time>2022-02-27T10:35:27.627Z</time>
      </trkpt>
      <trkpt lat="41.91773" lon="25.68432">
        <ele>192.832834</ele>
        <time>2022-02-27T10:35:29.644Z</time>
      </trkpt>
      <trkpt lat="41.91776" lon="25.68421">
        <ele>192.778749</ele>
        <time>2022-02-27T10:35:31.649Z</time>
      </trkpt>
      <trkpt lat="41.91781" lon="25.68406">
        <ele>192.706233</ele>
        <time>2022-02-27T10:35:34.646Z</time>
      </trkpt>
      <trkpt lat="41.91786" lon="25.68389">
        <ele>192.625946</ele>
        <time>2022-02-27T10:35:37.640Z</time>
      </trkpt>
      <trkpt lat="41.91788" lon="25.68376">
        <ele>192.567747</ele>
        <time>2022-02-27T10:35:39.637Z</time>
      </trkpt>
      <trkpt lat="41.91791" lon="25.68364">
        <ele>192.51173</ele>
        <time>2022-02-27T10:35:41.642Z</time>
      </trkpt>
      <trkpt lat="41.91794" lon="25.68352">
        <ele>192.458656</ele>
        <time>2022-02-27T10:35:43.648Z</time>
      </trkpt>
      <trkpt lat="41.91798" lon="25.68335">
        <ele>192.380182</ele>
        <time>2022-02-27T10:35:46.634Z</time>
      </trkpt>
      <trkpt lat="41.91802" lon="25.68318">
        <ele>192.302838</ele>
        <time>2022-02-27T10:35:49.633Z</time>
      </trkpt>
      <trkpt lat="41.91806" lon="25.68302">
        <ele>192.418019</ele>
        <time>2022-02-27T10:35:52.635Z</time>
      </trkpt>
      <trkpt lat="41.9181" lon="25.68287">
        <ele>192.597243</ele>
        <time>2022-02-27T10:35:55.668Z</time>
      </trkpt>
      <trkpt lat="41.91814" lon="25.68271">
        <ele>192.785376</ele>
        <time>2022-02-27T10:35:58.645Z</time>
      </trkpt>
      <trkpt lat="41.91817" lon="25.68256">
        <ele>192.962917</ele>
        <time>2022-02-27T10:36:01.654Z</time>
      </trkpt>
      <trkpt lat="41.91821" lon="25.68241">
        <ele>193.142616</ele>
        <time>2022-02-27T10:36:04.671Z</time>
      </trkpt>
      <trkpt lat="41.91825" lon="25.68226">
        <ele>193.329886</ele>
        <time>2022-02-27T10:36:07.637Z</time>
      </trkpt>
      <trkpt lat="41.91829" lon="25.6821">
        <ele>193.514869</ele>
        <time>2022-02-27T10:36:10.661Z</time>
      </trkpt>
      <trkpt lat="41.91833" lon="25.68195">
        <ele>193.701392</ele>
        <time>2022-02-27T10:36:13.639Z</time>
      </trkpt>
      <trkpt lat="41.91837" lon="25.68179">
        <ele>193.89218</ele>
        <time>2022-02-27T10:36:16.655Z</time>
      </trkpt>
      <trkpt lat="41.91841" lon="25.68162">
        <ele>194.091677</ele>
        <time>2022-02-27T10:36:19.651Z</time>
      </trkpt>
      <trkpt lat="41.91845" lon="25.68146">
        <ele>194.292257</ele>
        <time>2022-02-27T10:36:22.627Z</time>
      </trkpt>
      <trkpt lat="41.9185" lon="25.6813">
        <ele>194.482014</ele>
        <time>2022-02-27T10:36:25.644Z</time>
      </trkpt>
      <trkpt lat="41.91855" lon="25.68115">
        <ele>194.669779</ele>
        <time>2022-02-27T10:36:28.630Z</time>
      </trkpt>
      <trkpt lat="41.91858" lon="25.68098">
        <ele>194.867919</ele>
        <time>2022-02-27T10:36:31.635Z</time>
      </trkpt>
      <trkpt lat="41.91862" lon="25.68083">
        <ele>195.019364</ele>
        <time>2022-02-27T10:36:34.689Z</time>
      </trkpt>
      <trkpt lat="41.91867" lon="25.68067">
        <ele>194.949885</ele>
        <time>2022-02-27T10:36:37.633Z</time>
      </trkpt>
      <trkpt lat="41.91871" lon="25.68051">
        <ele>194.879608</ele>
        <time>2022-02-27T10:36:40.636Z</time>
      </trkpt>
      <trkpt lat="41.91875" lon="25.68035">
        <ele>194.809891</ele>
        <time>2022-02-27T10:36:43.645Z</time>
      </trkpt>
      <trkpt lat="41.91879" lon="25.68019">
        <ele>194.73918</ele>
        <time>2022-02-27T10:36:46.648Z</time>
      </trkpt>
      <trkpt lat="41.91883" lon="25.68003">
        <ele>194.669472</ele>
        <time>2022-02-27T10:36:49.634Z</time>
      </trkpt>
      <trkpt lat="41.91887" lon="25.67986">
        <ele>194.596627</ele>
        <time>2022-02-27T10:36:52.646Z</time>
      </trkpt>
      <trkpt lat="41.91891" lon="25.67969">
        <ele>194.52427</ele>
        <time>2022-02-27T10:36:55.637Z</time>
      </trkpt>
      <trkpt lat="41.91894" lon="25.67953">
        <ele>194.456422</ele>
        <time>2022-02-27T10:36:58.648Z</time>
      </trkpt>
      <trkpt lat="41.91899" lon="25.67939">
        <ele>194.393278</ele>
        <time>2022-02-27T10:37:01.673Z</time>
      </trkpt>
      <trkpt lat="41.91902" lon="25.67923">
        <ele>194.32242</ele>
        <time>2022-02-27T10:37:04.641Z</time>
      </trkpt>
      <trkpt lat="41.91906" lon="25.67906">
        <ele>194.248224</ele>
        <time>2022-02-27T10:37:07.645Z</time>
      </trkpt>
      <trkpt lat="41.91911" lon="25.67889">
        <ele>194.175449</ele>
        <time>2022-02-27T10:37:10.636Z</time>
      </trkpt>
      <trkpt lat="41.91914" lon="25.67874">
        <ele>194.107876</ele>
        <time>2022-02-27T10:37:13.632Z</time>
      </trkpt>
      <trkpt lat="41.91919" lon="25.67858">
        <ele>194.038977</ele>
        <time>2022-02-27T10:37:16.652Z</time>
      </trkpt>
      <trkpt lat="41.91923" lon="25.67842">
        <ele>194.228669</ele>
        <time>2022-02-27T10:37:19.643Z</time>
      </trkpt>
      <trkpt lat="41.91927" lon="25.67826">
        <ele>194.46091</ele>
        <time>2022-02-27T10:37:22.640Z</time>
      </trkpt>
      <trkpt lat="41.91931" lon="25.6781">
        <ele>194.702694</ele>
        <time>2022-02-27T10:37:25.643Z</time>
      </trkpt>
      <trkpt lat="41.91935" lon="25.67798">
        <ele>194.868366</ele>
        <time>2022-02-27T10:37:27.639Z</time>
      </trkpt>
      <trkpt lat="41.91939" lon="25.67782">
        <ele>195.109489</ele>
        <time>2022-02-27T10:37:30.655Z</time>
      </trkpt>
      <trkpt lat="41.91944" lon="25.67765">
        <ele>195.348089</ele>
        <time>2022-02-27T10:37:33.635Z</time>
      </trkpt>
      <trkpt lat="41.91948" lon="25.67749">
        <ele>195.590487</ele>
        <time>2022-02-27T10:37:36.631Z</time>
      </trkpt>
      <trkpt lat="41.91953" lon="25.67733">
        <ele>195.819468</ele>
        <time>2022-02-27T10:37:39.630Z</time>
      </trkpt>
      <trkpt lat="41.91957" lon="25.67716">
        <ele>196.05947</ele>
        <time>2022-02-27T10:37:42.638Z</time>
      </trkpt>
      <trkpt lat="41.91961" lon="25.67699">
        <ele>196.300203</ele>
        <time>2022-02-27T10:37:45.634Z</time>
      </trkpt>
      <trkpt lat="41.91965" lon="25.67683">
        <ele>196.540383</ele>
        <time>2022-02-27T10:37:48.631Z</time>
      </trkpt>
      <trkpt lat="41.91969" lon="25.67666">
        <ele>196.780564</ele>
        <time>2022-02-27T10:37:51.637Z</time>
      </trkpt>
      <trkpt lat="41.91972" lon="25.67649">
        <ele>197.018139</ele>
        <time>2022-02-27T10:37:54.636Z</time>
      </trkpt>
      <trkpt lat="41.91976" lon="25.67632">
        <ele>197.257779</ele>
        <time>2022-02-27T10:37:57.665Z</time>
      </trkpt>
      <trkpt lat="41.9198" lon="25.67616">
        <ele>197.490036</ele>
        <time>2022-02-27T10:38:00.653Z</time>
      </trkpt>
      <trkpt lat="41.91984" lon="25.67599">
        <ele>197.722985</ele>
        <time>2022-02-27T10:38:03.672Z</time>
      </trkpt>
      <trkpt lat="41.91988" lon="25.67583">
        <ele>197.944646</ele>
        <time>2022-02-27T10:38:06.648Z</time>
      </trkpt>
      <trkpt lat="41.91992" lon="25.67566">
        <ele>198.173299</ele>
        <time>2022-02-27T10:38:09.630Z</time>
      </trkpt>
      <trkpt lat="41.91996" lon="25.67549">
        <ele>198.410935</ele>
        <time>2022-02-27T10:38:12.647Z</time>
      </trkpt>
      <trkpt lat="41.92" lon="25.67533">
        <ele>198.641768</ele>
        <time>2022-02-27T10:38:15.652Z</time>
      </trkpt>
      <trkpt lat="41.92004" lon="25.67516">
        <ele>198.873993</ele>
        <time>2022-02-27T10:38:18.641Z</time>
      </trkpt>
      <trkpt lat="41.92007" lon="25.67504">
        <ele>199.035023</ele>
        <time>2022-02-27T10:38:20.644Z</time>
      </trkpt>
      <trkpt lat="41.92012" lon="25.67488">
        <ele>199.265765</ele>
        <time>2022-02-27T10:38:23.642Z</time>
      </trkpt>
      <trkpt lat="41.92017" lon="25.67472">
        <ele>199.489133</ele>
        <time>2022-02-27T10:38:26.645Z</time>
      </trkpt>
      <trkpt lat="41.92021" lon="25.67457">
        <ele>199.704466</ele>
        <time>2022-02-27T10:38:29.677Z</time>
      </trkpt>
      <trkpt lat="41.92025" lon="25.6744">
        <ele>199.931508</ele>
        <time>2022-02-27T10:38:32.636Z</time>
      </trkpt>
      <trkpt lat="41.92029" lon="25.67429">
        <ele>200.098099</ele>
        <time>2022-02-27T10:38:34.650Z</time>
      </trkpt>
      <trkpt lat="41.92031" lon="25.67417">
        <ele>200.261704</ele>
        <time>2022-02-27T10:38:36.674Z</time>
      </trkpt>
      <trkpt lat="41.92034" lon="25.67405">
        <ele>200.42281</ele>
        <time>2022-02-27T10:38:38.631Z</time>
      </trkpt>
      <trkpt lat="41.92037" lon="25.67394">
        <ele>200.488924</ele>
        <time>2022-02-27T10:38:40.644Z</time>
      </trkpt>
      <trkpt lat="41.9204" lon="25.67382">
        <ele>200.436803</ele>
        <time>2022-02-27T10:38:42.642Z</time>
      </trkpt>
      <trkpt lat="41.92044" lon="25.67365">
        <ele>200.360199</ele>
        <time>2022-02-27T10:38:45.645Z</time>
      </trkpt>
      <trkpt lat="41.92048" lon="25.67349">
        <ele>200.28734</ele>
        <time>2022-02-27T10:38:48.637Z</time>
      </trkpt>
      <trkpt lat="41.92052" lon="25.67333">
        <ele>200.215918</ele>
        <time>2022-02-27T10:38:51.640Z</time>
      </trkpt>
      <trkpt lat="41.92055" lon="25.67317">
        <ele>200.145364</ele>
        <time>2022-02-27T10:38:54.634Z</time>
      </trkpt>
      <trkpt lat="41.92058" lon="25.67301">
        <ele>200.073008</ele>
        <time>2022-02-27T10:38:57.673Z</time>
      </trkpt>
      <trkpt lat="41.9206" lon="25.67285">
        <ele>200.002411</ele>
        <time>2022-02-27T10:39:00.643Z</time>
      </trkpt>
      <trkpt lat="41.92062" lon="25.67269">
        <ele>199.932346</ele>
        <time>2022-02-27T10:39:03.646Z</time>
      </trkpt>
      <trkpt lat="41.92064" lon="25.67251">
        <ele>199.85709</ele>
        <time>2022-02-27T10:39:06.653Z</time>
      </trkpt>
      <trkpt lat="41.92065" lon="25.67239">
        <ele>199.804995</ele>
        <time>2022-02-27T10:39:08.631Z</time>
      </trkpt>
      <trkpt lat="41.92065" lon="25.67227">
        <ele>199.752599</ele>
        <time>2022-02-27T10:39:10.629Z</time>
      </trkpt>
      <trkpt lat="41.92065" lon="25.67215">
        <ele>199.699294</ele>
        <time>2022-02-27T10:39:12.656Z</time>
      </trkpt>
      <trkpt lat="41.92066" lon="25.67202">
        <ele>199.646876</ele>
        <time>2022-02-27T10:39:14.645Z</time>
      </trkpt>
      <trkpt lat="41.92066" lon="25.6719">
        <ele>199.593171</ele>
        <time>2022-02-27T10:39:16.641Z</time>
      </trkpt>
      <trkpt lat="41.92066" lon="25.67178">
        <ele>199.5408</ele>
        <time>2022-02-27T10:39:18.652Z</time>
      </trkpt>
      <trkpt lat="41.92066" lon="25.67166">
        <ele>199.488382</ele>
        <time>2022-02-27T10:39:20.695Z</time>
      </trkpt>
      <trkpt lat="41.92066" lon="25.67148">
        <ele>199.450017</ele>
        <time>2022-02-27T10:39:23.642Z</time>
      </trkpt>
      <trkpt lat="41.92066" lon="25.6713">
        <ele>199.42042</ele>
        <time>2022-02-27T10:39:26.685Z</time>
      </trkpt>
      <trkpt lat="41.92066" lon="25.67112">
        <ele>199.391958</ele>
        <time>2022-02-27T10:39:29.639Z</time>
      </trkpt>
      <trkpt lat="41.92066" lon="25.67095">
        <ele>199.363187</ele>
        <time>2022-02-27T10:39:32.650Z</time>
      </trkpt>
      <trkpt lat="41.92066" lon="25.67078">
        <ele>199.334746</ele>
        <time>2022-02-27T10:39:35.632Z</time>
      </trkpt>
      <trkpt lat="41.92066" lon="25.6706">
        <ele>199.305314</ele>
        <time>2022-02-27T10:39:38.636Z</time>
      </trkpt>
      <trkpt lat="41.92066" lon="25.67043">
        <ele>199.277025</ele>
        <time>2022-02-27T10:39:41.638Z</time>
      </trkpt>
      <trkpt lat="41.92066" lon="25.67026">
        <ele>199.248412</ele>
        <time>2022-02-27T10:39:44.660Z</time>
      </trkpt>
      <trkpt lat="41.92066" lon="25.67008">
        <ele>199.219307</ele>
        <time>2022-02-27T10:39:47.621Z</time>
      </trkpt>
      <trkpt lat="41.92066" lon="25.6699">
        <ele>199.190205</ele>
        <time>2022-02-27T10:39:50.631Z</time>
      </trkpt>
      <trkpt lat="41.92067" lon="25.66974">
        <ele>199.162908</ele>
        <time>2022-02-27T10:39:53.673Z</time>
      </trkpt>
      <trkpt lat="41.92067" lon="25.66957">
        <ele>199.134619</ele>
        <time>2022-02-27T10:39:56.633Z</time>
      </trkpt>
      <trkpt lat="41.92068" lon="25.6694">
        <ele>199.106632</ele>
        <time>2022-02-27T10:39:59.621Z</time>
      </trkpt>
      <trkpt lat="41.92068" lon="25.66923">
        <ele>199.078005</ele>
        <time>2022-02-27T10:40:02.638Z</time>
      </trkpt>
      <trkpt lat="41.92069" lon="25.66905">
        <ele>199.08837</ele>
        <time>2022-02-27T10:40:05.653Z</time>
      </trkpt>
      <trkpt lat="41.9207" lon="25.66887">
        <ele>199.103806</ele>
        <time>2022-02-27T10:40:08.633Z</time>
      </trkpt>
      <trkpt lat="41.92071" lon="25.66875">
        <ele>199.11451</ele>
        <time>2022-02-27T10:40:10.678Z</time>
      </trkpt>
      <trkpt lat="41.92072" lon="25.66858">
        <ele>199.12998</ele>
        <time>2022-02-27T10:40:13.641Z</time>
      </trkpt>
      <trkpt lat="41.92074" lon="25.66846">
        <ele>199.140578</ele>
        <time>2022-02-27T10:40:15.639Z</time>
      </trkpt>
      <trkpt lat="41.92076" lon="25.66828">
        <ele>199.155965</ele>
        <time>2022-02-27T10:40:18.643Z</time>
      </trkpt>
      <trkpt lat="41.92078" lon="25.66811">
        <ele>199.171088</ele>
        <time>2022-02-27T10:40:21.623Z</time>
      </trkpt>
      <trkpt lat="41.92081" lon="25.66794">
        <ele>199.186219</ele>
        <time>2022-02-27T10:40:24.634Z</time>
      </trkpt>
      <trkpt lat="41.92084" lon="25.66778">
        <ele>199.201149</ele>
        <time>2022-02-27T10:40:27.639Z</time>
      </trkpt>
      <trkpt lat="41.92087" lon="25.66761">
        <ele>199.216392</ele>
        <time>2022-02-27T10:40:30.638Z</time>
      </trkpt>
      <trkpt lat="41.92089" lon="25.66744">
        <ele>199.231157</ele>
        <time>2022-02-27T10:40:33.652Z</time>
      </trkpt>
      <trkpt lat="41.92092" lon="25.66728">
        <ele>199.245787</ele>
        <time>2022-02-27T10:40:36.652Z</time>
      </trkpt>
      <trkpt lat="41.92094" lon="25.66711">
        <ele>199.261041</ele>
        <time>2022-02-27T10:40:39.667Z</time>
      </trkpt>
      <trkpt lat="41.92098" lon="25.66694">
        <ele>199.275745</ele>
        <time>2022-02-27T10:40:42.649Z</time>
      </trkpt>
      <trkpt lat="41.921" lon="25.66679">
        <ele>199.287872</ele>
        <time>2022-02-27T10:40:45.636Z</time>
      </trkpt>
      <trkpt lat="41.92103" lon="25.66662">
        <ele>199.295086</ele>
        <time>2022-02-27T10:40:48.640Z</time>
      </trkpt>
      <trkpt lat="41.92106" lon="25.66645">
        <ele>199.302203</ele>
        <time>2022-02-27T10:40:51.643Z</time>
      </trkpt>
      <trkpt lat="41.92109" lon="25.6663">
        <ele>199.309023</ele>
        <time>2022-02-27T10:40:54.640Z</time>
      </trkpt>
      <trkpt lat="41.92112" lon="25.66614">
        <ele>199.315708</ele>
        <time>2022-02-27T10:40:57.643Z</time>
      </trkpt>
      <trkpt lat="41.92115" lon="25.666">
        <ele>199.322095</ele>
        <time>2022-02-27T10:41:00.641Z</time>
      </trkpt>
      <trkpt lat="41.92118" lon="25.66585">
        <ele>199.328561</ele>
        <time>2022-02-27T10:41:03.645Z</time>
      </trkpt>
      <trkpt lat="41.92121" lon="25.66569">
        <ele>199.335165</ele>
        <time>2022-02-27T10:41:06.642Z</time>
      </trkpt>
      <trkpt lat="41.92123" lon="25.66554">
        <ele>199.34177</ele>
        <time>2022-02-27T10:41:09.643Z</time>
      </trkpt>
      <trkpt lat="41.92126" lon="25.66539">
        <ele>199.348264</ele>
        <time>2022-02-27T10:41:12.676Z</time>
      </trkpt>
      <trkpt lat="41.92129" lon="25.66522">
        <ele>199.355286</ele>
        <time>2022-02-27T10:41:15.644Z</time>
      </trkpt>
      <trkpt lat="41.92132" lon="25.66506">
        <ele>199.362457</ele>
        <time>2022-02-27T10:41:18.643Z</time>
      </trkpt>
      <trkpt lat="41.92135" lon="25.66489">
        <ele>199.369656</ele>
        <time>2022-02-27T10:41:21.640Z</time>
      </trkpt>
      <trkpt lat="41.92137" lon="25.66477">
        <ele>199.375052</ele>
        <time>2022-02-27T10:41:23.681Z</time>
      </trkpt>
      <trkpt lat="41.9214" lon="25.66464">
        <ele>199.380434</ele>
        <time>2022-02-27T10:41:25.681Z</time>
      </trkpt>
      <trkpt lat="41.92142" lon="25.66451">
        <ele>199.385926</ele>
        <time>2022-02-27T10:41:27.651Z</time>
      </trkpt>
      <trkpt lat="41.92144" lon="25.66438">
        <ele>199.12148</ele>
        <time>2022-02-27T10:41:29.643Z</time>
      </trkpt>
      <trkpt lat="41.92147" lon="25.66426">
        <ele>198.805367</ele>
        <time>2022-02-27T10:41:31.636Z</time>
      </trkpt>
      <trkpt lat="41.92149" lon="25.66414">
        <ele>198.487529</ele>
        <time>2022-02-27T10:41:33.632Z</time>
      </trkpt>
      <trkpt lat="41.92151" lon="25.66402">
        <ele>198.177849</ele>
        <time>2022-02-27T10:41:35.639Z</time>
      </trkpt>
      <trkpt lat="41.92154" lon="25.6639">
        <ele>197.869036</ele>
        <time>2022-02-27T10:41:37.633Z</time>
      </trkpt>
      <trkpt lat="41.92157" lon="25.66374">
        <ele>197.4434</ele>
        <time>2022-02-27T10:41:40.639Z</time>
      </trkpt>
      <trkpt lat="41.92161" lon="25.66357">
        <ele>197.013368</ele>
        <time>2022-02-27T10:41:43.657Z</time>
      </trkpt>
      <trkpt lat="41.92164" lon="25.6634">
        <ele>196.563939</ele>
        <time>2022-02-27T10:41:46.640Z</time>
      </trkpt>
      <trkpt lat="41.92167" lon="25.66328">
        <ele>196.259106</ele>
        <time>2022-02-27T10:41:48.642Z</time>
      </trkpt>
      <trkpt lat="41.9217" lon="25.66311">
        <ele>195.807907</ele>
        <time>2022-02-27T10:41:51.657Z</time>
      </trkpt>
      <trkpt lat="41.92173" lon="25.66293">
        <ele>195.358515</ele>
        <time>2022-02-27T10:41:54.630Z</time>
      </trkpt>
      <trkpt lat="41.92177" lon="25.66276">
        <ele>194.91237</ele>
        <time>2022-02-27T10:41:57.637Z</time>
      </trkpt>
      <trkpt lat="41.9218" lon="25.66259">
        <ele>194.479197</ele>
        <time>2022-02-27T10:42:00.637Z</time>
      </trkpt>
      <trkpt lat="41.92183" lon="25.66243">
        <ele>194.043623</ele>
        <time>2022-02-27T10:42:03.636Z</time>
      </trkpt>
      <trkpt lat="41.92186" lon="25.66226">
        <ele>193.615342</ele>
        <time>2022-02-27T10:42:06.644Z</time>
      </trkpt>
      <trkpt lat="41.92189" lon="25.66209">
        <ele>193.303953</ele>
        <time>2022-02-27T10:42:09.638Z</time>
      </trkpt>
      <trkpt lat="41.92192" lon="25.66192">
        <ele>193.265022</ele>
        <time>2022-02-27T10:42:12.658Z</time>
      </trkpt>
      <trkpt lat="41.92195" lon="25.66175">
        <ele>193.22595</ele>
        <time>2022-02-27T10:42:15.640Z</time>
      </trkpt>
      <trkpt lat="41.92198" lon="25.66158">
        <ele>193.187091</ele>
        <time>2022-02-27T10:42:18.679Z</time>
      </trkpt>
      <trkpt lat="41.92201" lon="25.66141">
        <ele>193.149011</ele>
        <time>2022-02-27T10:42:21.649Z</time>
      </trkpt>
      <trkpt lat="41.92204" lon="25.66124">
        <ele>193.110435</ele>
        <time>2022-02-27T10:42:24.658Z</time>
      </trkpt>
      <trkpt lat="41.92207" lon="25.66107">
        <ele>193.072994</ele>
        <time>2022-02-27T10:42:27.649Z</time>
      </trkpt>
      <trkpt lat="41.9221" lon="25.6609">
        <ele>193.035835</ele>
        <time>2022-02-27T10:42:30.644Z</time>
      </trkpt>
      <trkpt lat="41.92213" lon="25.66074">
        <ele>192.999876</ele>
        <time>2022-02-27T10:42:33.640Z</time>
      </trkpt>
      <trkpt lat="41.92216" lon="25.66058">
        <ele>192.963918</ele>
        <time>2022-02-27T10:42:36.645Z</time>
      </trkpt>
      <trkpt lat="41.92218" lon="25.66041">
        <ele>192.924899</ele>
        <time>2022-02-27T10:42:39.648Z</time>
      </trkpt>
      <trkpt lat="41.92221" lon="25.66024">
        <ele>192.88631</ele>
        <time>2022-02-27T10:42:42.656Z</time>
      </trkpt>
      <trkpt lat="41.92224" lon="25.66007">
        <ele>192.849495</ele>
        <time>2022-02-27T10:42:45.630Z</time>
      </trkpt>
      <trkpt lat="41.92226" lon="25.65991">
        <ele>192.812862</ele>
        <time>2022-02-27T10:42:48.657Z</time>
      </trkpt>
      <trkpt lat="41.92229" lon="25.65974">
        <ele>192.804678</ele>
        <time>2022-02-27T10:42:51.679Z</time>
      </trkpt>
      <trkpt lat="41.92231" lon="25.65958">
        <ele>192.870816</ele>
        <time>2022-02-27T10:42:54.626Z</time>
      </trkpt>
      <trkpt lat="41.92233" lon="25.65943">
        <ele>192.93383</ele>
        <time>2022-02-27T10:42:57.629Z</time>
      </trkpt>
      <trkpt lat="41.92234" lon="25.65927">
        <ele>192.998038</ele>
        <time>2022-02-27T10:43:00.643Z</time>
      </trkpt>
      <trkpt lat="41.92236" lon="25.65911">
        <ele>193.061219</ele>
        <time>2022-02-27T10:43:03.629Z</time>
      </trkpt>
      <trkpt lat="41.92238" lon="25.65896">
        <ele>193.122564</ele>
        <time>2022-02-27T10:43:06.652Z</time>
      </trkpt>
      <trkpt lat="41.9224" lon="25.65881">
        <ele>193.183673</ele>
        <time>2022-02-27T10:43:09.639Z</time>
      </trkpt>
      <trkpt lat="41.92241" lon="25.65867">
        <ele>193.243109</ele>
        <time>2022-02-27T10:43:12.643Z</time>
      </trkpt>
      <trkpt lat="41.92243" lon="25.65852">
        <ele>193.303821</ele>
        <time>2022-02-27T10:43:15.637Z</time>
      </trkpt>
      <trkpt lat="41.92245" lon="25.65837">
        <ele>193.364847</ele>
        <time>2022-02-27T10:43:18.692Z</time>
      </trkpt>
      <trkpt lat="41.92246" lon="25.65823">
        <ele>193.421337</ele>
        <time>2022-02-27T10:43:21.638Z</time>
      </trkpt>
      <trkpt lat="41.92248" lon="25.65809">
        <ele>193.476159</ele>
        <time>2022-02-27T10:43:24.648Z</time>
      </trkpt>
      <trkpt lat="41.9225" lon="25.65795">
        <ele>193.533697</ele>
        <time>2022-02-27T10:43:27.657Z</time>
      </trkpt>
      <trkpt lat="41.92252" lon="25.65781">
        <ele>193.59311</ele>
        <time>2022-02-27T10:43:30.637Z</time>
      </trkpt>
      <trkpt lat="41.92254" lon="25.65766">
        <ele>193.652722</ele>
        <time>2022-02-27T10:43:33.646Z</time>
      </trkpt>
      <trkpt lat="41.92255" lon="25.65753">
        <ele>193.707544</ele>
        <time>2022-02-27T10:43:36.641Z</time>
      </trkpt>
      <trkpt lat="41.92257" lon="25.65739">
        <ele>193.770465</ele>
        <time>2022-02-27T10:43:39.636Z</time>
      </trkpt>
      <trkpt lat="41.92258" lon="25.65726">
        <ele>193.936358</ele>
        <time>2022-02-27T10:43:42.648Z</time>
      </trkpt>
      <trkpt lat="41.92259" lon="25.65712">
        <ele>194.109883</ele>
        <time>2022-02-27T10:43:45.642Z</time>
      </trkpt>
      <trkpt lat="41.92261" lon="25.65699">
        <ele>194.278472</ele>
        <time>2022-02-27T10:43:48.642Z</time>
      </trkpt>
      <trkpt lat="41.92262" lon="25.65685">
        <ele>194.454944</ele>
        <time>2022-02-27T10:43:51.629Z</time>
      </trkpt>
      <trkpt lat="41.92264" lon="25.6567">
        <ele>194.636597</ele>
        <time>2022-02-27T10:43:54.664Z</time>
      </trkpt>
      <trkpt lat="41.92266" lon="25.65656">
        <ele>194.817293</ele>
        <time>2022-02-27T10:43:57.644Z</time>
      </trkpt>
      <trkpt lat="41.92267" lon="25.65641">
        <ele>195.002389</ele>
        <time>2022-02-27T10:44:00.642Z</time>
      </trkpt>
      <trkpt lat="41.92269" lon="25.65626">
        <ele>195.192661</ele>
        <time>2022-02-27T10:44:03.651Z</time>
      </trkpt>
      <trkpt lat="41.92271" lon="25.65612">
        <ele>195.376525</ele>
        <time>2022-02-27T10:44:06.644Z</time>
      </trkpt>
      <trkpt lat="41.92272" lon="25.65598">
        <ele>195.555216</ele>
        <time>2022-02-27T10:44:09.646Z</time>
      </trkpt>
      <trkpt lat="41.92273" lon="25.65584">
        <ele>195.727083</ele>
        <time>2022-02-27T10:44:12.639Z</time>
      </trkpt>
      <trkpt lat="41.92274" lon="25.65571">
        <ele>195.890094</ele>
        <time>2022-02-27T10:44:15.650Z</time>
      </trkpt>
      <trkpt lat="41.92276" lon="25.65558">
        <ele>196.052066</ele>
        <time>2022-02-27T10:44:18.632Z</time>
      </trkpt>
      <trkpt lat="41.92277" lon="25.65545">
        <ele>196.217374</ele>
        <time>2022-02-27T10:44:21.641Z</time>
      </trkpt>
      <trkpt lat="41.92278" lon="25.65532">
        <ele>196.379346</ele>
        <time>2022-02-27T10:44:24.637Z</time>
      </trkpt>
      <trkpt lat="41.92279" lon="25.65519">
        <ele>196.537406</ele>
        <time>2022-02-27T10:44:27.631Z</time>
      </trkpt>
      <trkpt lat="41.9228" lon="25.65506">
        <ele>196.70577</ele>
        <time>2022-02-27T10:44:30.645Z</time>
      </trkpt>
      <trkpt lat="41.92282" lon="25.65492">
        <ele>196.864569</ele>
        <time>2022-02-27T10:44:33.637Z</time>
      </trkpt>
      <trkpt lat="41.92283" lon="25.65478">
        <ele>197.009205</ele>
        <time>2022-02-27T10:44:36.635Z</time>
      </trkpt>
      <trkpt lat="41.92285" lon="25.65463">
        <ele>197.160111</ele>
        <time>2022-02-27T10:44:39.647Z</time>
      </trkpt>
      <trkpt lat="41.92286" lon="25.65449">
        <ele>197.306983</ele>
        <time>2022-02-27T10:44:42.638Z</time>
      </trkpt>
      <trkpt lat="41.92287" lon="25.65435">
        <ele>197.449783</ele>
        <time>2022-02-27T10:44:45.632Z</time>
      </trkpt>
      <trkpt lat="41.92288" lon="25.6542">
        <ele>197.596533</ele>
        <time>2022-02-27T10:44:48.644Z</time>
      </trkpt>
      <trkpt lat="41.92288" lon="25.65406">
        <ele>197.742993</ele>
        <time>2022-02-27T10:44:51.653Z</time>
      </trkpt>
      <trkpt lat="41.92289" lon="25.65393">
        <ele>197.882611</ele>
        <time>2022-02-27T10:44:54.632Z</time>
      </trkpt>
      <trkpt lat="41.9229" lon="25.65379">
        <ele>198.017418</ele>
        <time>2022-02-27T10:44:57.641Z</time>
      </trkpt>
      <trkpt lat="41.92291" lon="25.65366">
        <ele>198.156147</ele>
        <time>2022-02-27T10:45:00.688Z</time>
      </trkpt>
      <trkpt lat="41.92293" lon="25.65352">
        <ele>198.299975</ele>
        <time>2022-02-27T10:45:03.638Z</time>
      </trkpt>
      <trkpt lat="41.92294" lon="25.65337">
        <ele>198.451351</ele>
        <time>2022-02-27T10:45:06.621Z</time>
      </trkpt>
      <trkpt lat="41.92295" lon="25.65324">
        <ele>198.593592</ele>
        <time>2022-02-27T10:45:09.646Z</time>
      </trkpt>
      <trkpt lat="41.92296" lon="25.6531">
        <ele>198.73653</ele>
        <time>2022-02-27T10:45:12.638Z</time>
      </trkpt>
      <trkpt lat="41.92298" lon="25.65296">
        <ele>198.879963</ele>
        <time>2022-02-27T10:45:15.647Z</time>
      </trkpt>
      <trkpt lat="41.92299" lon="25.65282">
        <ele>199.019852</ele>
        <time>2022-02-27T10:45:18.636Z</time>
      </trkpt>
      <trkpt lat="41.923" lon="25.65268">
        <ele>199.164122</ele>
        <time>2022-02-27T10:45:21.643Z</time>
      </trkpt>
      <trkpt lat="41.92302" lon="25.65254">
        <ele>199.218973</ele>
        <time>2022-02-27T10:45:24.643Z</time>
      </trkpt>
      <trkpt lat="41.92303" lon="25.6524">
        <ele>199.170505</ele>
        <time>2022-02-27T10:45:27.628Z</time>
      </trkpt>
      <trkpt lat="41.92305" lon="25.65226">
        <ele>199.12338</ele>
        <time>2022-02-27T10:45:30.642Z</time>
      </trkpt>
      <trkpt lat="41.92306" lon="25.65212">
        <ele>199.075378</ele>
        <time>2022-02-27T10:45:33.703Z</time>
      </trkpt>
      <trkpt lat="41.92308" lon="25.65198">
        <ele>199.027985</ele>
        <time>2022-02-27T10:45:36.651Z</time>
      </trkpt>
      <trkpt lat="41.92309" lon="25.65185">
        <ele>198.98139</ele>
        <time>2022-02-27T10:45:39.652Z</time>
      </trkpt>
      <trkpt lat="41.92311" lon="25.65171">
        <ele>198.932776</ele>
        <time>2022-02-27T10:45:42.652Z</time>
      </trkpt>
      <trkpt lat="41.92312" lon="25.65157">
        <ele>198.88471</ele>
        <time>2022-02-27T10:45:45.644Z</time>
      </trkpt>
      <trkpt lat="41.92314" lon="25.65142">
        <ele>198.836035</ele>
        <time>2022-02-27T10:45:48.648Z</time>
      </trkpt>
      <trkpt lat="41.92315" lon="25.65128">
        <ele>198.785817</ele>
        <time>2022-02-27T10:45:51.649Z</time>
      </trkpt>
      <trkpt lat="41.92317" lon="25.65114">
        <ele>198.736943</ele>
        <time>2022-02-27T10:45:54.637Z</time>
      </trkpt>
      <trkpt lat="41.92319" lon="25.651">
        <ele>198.688878</ele>
        <time>2022-02-27T10:45:57.646Z</time>
      </trkpt>
      <trkpt lat="41.9232" lon="25.65086">
        <ele>198.643232</ele>
        <time>2022-02-27T10:46:00.650Z</time>
      </trkpt>
      <trkpt lat="41.92321" lon="25.65073">
        <ele>198.597586</ele>
        <time>2022-02-27T10:46:03.640Z</time>
      </trkpt>
      <trkpt lat="41.92323" lon="25.65059">
        <ele>198.549858</ele>
        <time>2022-02-27T10:46:06.694Z</time>
      </trkpt>
      <trkpt lat="41.92324" lon="25.65045">
        <ele>198.500381</ele>
        <time>2022-02-27T10:46:09.654Z</time>
      </trkpt>
      <trkpt lat="41.92326" lon="25.6503">
        <ele>198.450634</ele>
        <time>2022-02-27T10:46:12.639Z</time>
      </trkpt>
      <trkpt lat="41.92327" lon="25.65016">
        <ele>198.4787</ele>
        <time>2022-02-27T10:46:15.682Z</time>
      </trkpt>
      <trkpt lat="41.92328" lon="25.65002">
        <ele>198.620915</ele>
        <time>2022-02-27T10:46:18.633Z</time>
      </trkpt>
      <trkpt lat="41.9233" lon="25.64988">
        <ele>198.773521</ele>
        <time>2022-02-27T10:46:21.637Z</time>
      </trkpt>
      <trkpt lat="41.92331" lon="25.64973">
        <ele>198.931483</ele>
        <time>2022-02-27T10:46:24.644Z</time>
      </trkpt>
      <trkpt lat="41.92332" lon="25.64958">
        <ele>199.085129</ele>
        <time>2022-02-27T10:46:27.632Z</time>
      </trkpt>
      <trkpt lat="41.92333" lon="25.64944">
        <ele>199.235367</ele>
        <time>2022-02-27T10:46:30.634Z</time>
      </trkpt>
      <trkpt lat="41.92334" lon="25.64929">
        <ele>199.391734</ele>
        <time>2022-02-27T10:46:33.640Z</time>
      </trkpt>
      <trkpt lat="41.92335" lon="25.64914">
        <ele>199.552389</ele>
        <time>2022-02-27T10:46:36.636Z</time>
      </trkpt>
      <trkpt lat="41.92336" lon="25.64898">
        <ele>199.71397</ele>
        <time>2022-02-27T10:46:39.670Z</time>
      </trkpt>
      <trkpt lat="41.92337" lon="25.64883">
        <ele>199.879961</ele>
        <time>2022-02-27T10:46:42.641Z</time>
      </trkpt>
      <trkpt lat="41.92338" lon="25.64867">
        <ele>200.043118</ele>
        <time>2022-02-27T10:46:45.646Z</time>
      </trkpt>
      <trkpt lat="41.92339" lon="25.64851">
        <ele>200.208067</ele>
        <time>2022-02-27T10:46:48.640Z</time>
      </trkpt>
      <trkpt lat="41.92341" lon="25.64836">
        <ele>200.371225</ele>
        <time>2022-02-27T10:46:51.647Z</time>
      </trkpt>
      <trkpt lat="41.92342" lon="25.6482">
        <ele>200.536312</ele>
        <time>2022-02-27T10:46:54.646Z</time>
      </trkpt>
      <trkpt lat="41.92343" lon="25.64805">
        <ele>200.700671</ele>
        <time>2022-02-27T10:46:57.639Z</time>
      </trkpt>
      <trkpt lat="41.92345" lon="25.64788">
        <ele>200.87143</ele>
        <time>2022-02-27T10:47:00.636Z</time>
      </trkpt>
      <trkpt lat="41.92347" lon="25.64772">
        <ele>200.906225</ele>
        <time>2022-02-27T10:47:03.644Z</time>
      </trkpt>
      <trkpt lat="41.92349" lon="25.64756">
        <ele>200.831129</ele>
        <time>2022-02-27T10:47:06.654Z</time>
      </trkpt>
      <trkpt lat="41.92351" lon="25.6474">
        <ele>200.753073</ele>
        <time>2022-02-27T10:47:09.623Z</time>
      </trkpt>
      <trkpt lat="41.92353" lon="25.64723">
        <ele>200.674247</ele>
        <time>2022-02-27T10:47:12.700Z</time>
      </trkpt>
      <trkpt lat="41.92354" lon="25.64707">
        <ele>200.598688</ele>
        <time>2022-02-27T10:47:15.651Z</time>
      </trkpt>
      <trkpt lat="41.92357" lon="25.6469">
        <ele>200.516741</ele>
        <time>2022-02-27T10:47:18.647Z</time>
      </trkpt>
      <trkpt lat="41.92358" lon="25.64678">
        <ele>200.458932</ele>
        <time>2022-02-27T10:47:20.636Z</time>
      </trkpt>
      <trkpt lat="41.9236" lon="25.64666">
        <ele>200.401938</ele>
        <time>2022-02-27T10:47:22.632Z</time>
      </trkpt>
      <trkpt lat="41.92361" lon="25.64648">
        <ele>200.318885</ele>
        <time>2022-02-27T10:47:25.639Z</time>
      </trkpt>
      <trkpt lat="41.92363" lon="25.64636">
        <ele>200.261731</ele>
        <time>2022-02-27T10:47:27.637Z</time>
      </trkpt>
      <trkpt lat="41.92364" lon="25.64623">
        <ele>200.20335</ele>
        <time>2022-02-27T10:47:29.628Z</time>
      </trkpt>
      <trkpt lat="41.92365" lon="25.64611">
        <ele>200.144807</ele>
        <time>2022-02-27T10:47:31.655Z</time>
      </trkpt>
      <trkpt lat="41.92366" lon="25.64599">
        <ele>200.088116</ele>
        <time>2022-02-27T10:47:33.648Z</time>
      </trkpt>
      <trkpt lat="41.92368" lon="25.64581">
        <ele>200.003832</ele>
        <time>2022-02-27T10:47:36.633Z</time>
      </trkpt>
      <trkpt lat="41.92369" lon="25.64563">
        <ele>199.920682</ele>
        <time>2022-02-27T10:47:39.648Z</time>
      </trkpt>
      <trkpt lat="41.92371" lon="25.64546">
        <ele>199.836702</ele>
        <time>2022-02-27T10:47:42.644Z</time>
      </trkpt>
      <trkpt lat="41.92372" lon="25.64533">
        <ele>199.908859</ele>
        <time>2022-02-27T10:47:44.645Z</time>
      </trkpt>
      <trkpt lat="41.92373" lon="25.64521">
        <ele>200.031056</ele>
        <time>2022-02-27T10:47:46.668Z</time>
      </trkpt>
      <trkpt lat="41.92375" lon="25.64504">
        <ele>200.207998</ele>
        <time>2022-02-27T10:47:49.633Z</time>
      </trkpt>
      <trkpt lat="41.92376" lon="25.64491">
        <ele>200.334576</ele>
        <time>2022-02-27T10:47:51.623Z</time>
      </trkpt>
      <trkpt lat="41.92378" lon="25.64479">
        <ele>200.462583</ele>
        <time>2022-02-27T10:47:53.684Z</time>
      </trkpt>
      <trkpt lat="41.9238" lon="25.64466">
        <ele>200.590087</ele>
        <time>2022-02-27T10:47:55.658Z</time>
      </trkpt>
      <trkpt lat="41.92382" lon="25.64454">
        <ele>200.718139</ele>
        <time>2022-02-27T10:47:57.647Z</time>
      </trkpt>
      <trkpt lat="41.92384" lon="25.64441">
        <ele>200.847448</ele>
        <time>2022-02-27T10:47:59.644Z</time>
      </trkpt>
      <trkpt lat="41.92386" lon="25.6443">
        <ele>200.970907</ele>
        <time>2022-02-27T10:48:01.673Z</time>
      </trkpt>
      <trkpt lat="41.92389" lon="25.64418">
        <ele>201.09242</ele>
        <time>2022-02-27T10:48:03.646Z</time>
      </trkpt>
      <trkpt lat="41.92393" lon="25.64401">
        <ele>201.270858</ele>
        <time>2022-02-27T10:48:06.637Z</time>
      </trkpt>
      <trkpt lat="41.92397" lon="25.64386">
        <ele>201.437809</ele>
        <time>2022-02-27T10:48:09.642Z</time>
      </trkpt>
      <trkpt lat="41.92401" lon="25.6437">
        <ele>201.605813</ele>
        <time>2022-02-27T10:48:12.689Z</time>
      </trkpt>
      <trkpt lat="41.92406" lon="25.64354">
        <ele>201.779861</ele>
        <time>2022-02-27T10:48:15.653Z</time>
      </trkpt>
      <trkpt lat="41.9241" lon="25.64338">
        <ele>201.948704</ele>
        <time>2022-02-27T10:48:18.639Z</time>
      </trkpt>
      <trkpt lat="41.92414" lon="25.64322">
        <ele>202.124167</ele>
        <time>2022-02-27T10:48:21.638Z</time>
      </trkpt>
      <trkpt lat="41.92418" lon="25.64306">
        <ele>202.245317</ele>
        <time>2022-02-27T10:48:24.643Z</time>
      </trkpt>
      <trkpt lat="41.92422" lon="25.6429">
        <ele>202.186119</ele>
        <time>2022-02-27T10:48:27.640Z</time>
      </trkpt>
      <trkpt lat="41.92426" lon="25.64274">
        <ele>202.126186</ele>
        <time>2022-02-27T10:48:30.642Z</time>
      </trkpt>
      <trkpt lat="41.9243" lon="25.64257">
        <ele>202.065144</ele>
        <time>2022-02-27T10:48:33.652Z</time>
      </trkpt>
      <trkpt lat="41.92434" lon="25.64241">
        <ele>202.003907</ele>
        <time>2022-02-27T10:48:36.643Z</time>
      </trkpt>
      <trkpt lat="41.92437" lon="25.64225">
        <ele>201.943351</ele>
        <time>2022-02-27T10:48:39.645Z</time>
      </trkpt>
      <trkpt lat="41.92442" lon="25.64209">
        <ele>201.883373</ele>
        <time>2022-02-27T10:48:42.641Z</time>
      </trkpt>
      <trkpt lat="41.92446" lon="25.64192">
        <ele>201.820148</ele>
        <time>2022-02-27T10:48:45.681Z</time>
      </trkpt>
      <trkpt lat="41.92448" lon="25.6418">
        <ele>201.776275</ele>
        <time>2022-02-27T10:48:47.664Z</time>
      </trkpt>
      <trkpt lat="41.92453" lon="25.64164">
        <ele>201.714627</ele>
        <time>2022-02-27T10:48:50.643Z</time>
      </trkpt>
      <trkpt lat="41.92457" lon="25.64149">
        <ele>201.656153</ele>
        <time>2022-02-27T10:48:53.677Z</time>
      </trkpt>
      <trkpt lat="41.92461" lon="25.64133">
        <ele>201.595341</ele>
        <time>2022-02-27T10:48:56.670Z</time>
      </trkpt>
      <trkpt lat="41.92466" lon="25.64117">
        <ele>201.534693</ele>
        <time>2022-02-27T10:48:59.643Z</time>
      </trkpt>
      <trkpt lat="41.9247" lon="25.64102">
        <ele>201.477372</ele>
        <time>2022-02-27T10:49:02.666Z</time>
      </trkpt>
      <trkpt lat="41.92474" lon="25.64085">
        <ele>201.416369</ele>
        <time>2022-02-27T10:49:05.642Z</time>
      </trkpt>
      <trkpt lat="41.92478" lon="25.64069">
        <ele>201.458989</ele>
        <time>2022-02-27T10:49:08.652Z</time>
      </trkpt>
      <trkpt lat="41.92482" lon="25.64053">
        <ele>201.546479</ele>
        <time>2022-02-27T10:49:11.633Z</time>
      </trkpt>
      <trkpt lat="41.92486" lon="25.64038">
        <ele>201.631428</ele>
        <time>2022-02-27T10:49:14.641Z</time>
      </trkpt>
      <trkpt lat="41.92489" lon="25.64023">
        <ele>201.716914</ele>
        <time>2022-02-27T10:49:17.651Z</time>
      </trkpt>
      <trkpt lat="41.92493" lon="25.64007">
        <ele>201.801179</ele>
        <time>2022-02-27T10:49:20.649Z</time>
      </trkpt>
      <trkpt lat="41.92497" lon="25.63993">
        <ele>201.88322</ele>
        <time>2022-02-27T10:49:23.638Z</time>
      </trkpt>
      <trkpt lat="41.92501" lon="25.63977">
        <ele>201.971122</ele>
        <time>2022-02-27T10:49:26.647Z</time>
      </trkpt>
      <trkpt lat="41.92505" lon="25.63961">
        <ele>202.060755</ele>
        <time>2022-02-27T10:49:29.643Z</time>
      </trkpt>
      <trkpt lat="41.92509" lon="25.63945">
        <ele>202.147025</ele>
        <time>2022-02-27T10:49:32.641Z</time>
      </trkpt>
      <trkpt lat="41.92513" lon="25.6393">
        <ele>202.230513</ele>
        <time>2022-02-27T10:49:35.649Z</time>
      </trkpt>
      <trkpt lat="41.92517" lon="25.63914">
        <ele>202.322611</ele>
        <time>2022-02-27T10:49:38.651Z</time>
      </trkpt>
      <trkpt lat="41.92521" lon="25.63897">
        <ele>202.413519</ele>
        <time>2022-02-27T10:49:41.643Z</time>
      </trkpt>
      <trkpt lat="41.92525" lon="25.63881">
        <ele>202.502229</ele>
        <time>2022-02-27T10:49:44.650Z</time>
      </trkpt>
      <trkpt lat="41.92529" lon="25.63865">
        <ele>202.591611</ele>
        <time>2022-02-27T10:49:47.631Z</time>
      </trkpt>
      <trkpt lat="41.92533" lon="25.6385">
        <ele>202.684107</ele>
        <time>2022-02-27T10:49:50.654Z</time>
      </trkpt>
      <trkpt lat="41.92537" lon="25.63834">
        <ele>202.825151</ele>
        <time>2022-02-27T10:49:53.632Z</time>
      </trkpt>
      <trkpt lat="41.92541" lon="25.63818">
        <ele>202.96625</ele>
        <time>2022-02-27T10:49:56.641Z</time>
      </trkpt>
      <trkpt lat="41.92546" lon="25.63802">
        <ele>203.110419</ele>
        <time>2022-02-27T10:49:59.661Z</time>
      </trkpt>
      <trkpt lat="41.92551" lon="25.63786">
        <ele>203.251472</ele>
        <time>2022-02-27T10:50:02.644Z</time>
      </trkpt>
      <trkpt lat="41.92555" lon="25.6377">
        <ele>203.39054</ele>
        <time>2022-02-27T10:50:05.638Z</time>
      </trkpt>
      <trkpt lat="41.92559" lon="25.63755">
        <ele>203.524947</ele>
        <time>2022-02-27T10:50:08.651Z</time>
      </trkpt>
      <trkpt lat="41.92563" lon="25.63741">
        <ele>203.654671</ele>
        <time>2022-02-27T10:50:11.649Z</time>
      </trkpt>
      <trkpt lat="41.92567" lon="25.63725">
        <ele>203.791025</ele>
        <time>2022-02-27T10:50:14.644Z</time>
      </trkpt>
      <trkpt lat="41.92571" lon="25.63709">
        <ele>203.930117</ele>
        <time>2022-02-27T10:50:17.646Z</time>
      </trkpt>
      <trkpt lat="41.92575" lon="25.63694">
        <ele>204.067261</ele>
        <time>2022-02-27T10:50:20.623Z</time>
      </trkpt>
      <trkpt lat="41.92579" lon="25.63679">
        <ele>204.203202</ele>
        <time>2022-02-27T10:50:23.646Z</time>
      </trkpt>
      <trkpt lat="41.92583" lon="25.63663">
        <ele>204.346197</ele>
        <time>2022-02-27T10:50:26.652Z</time>
      </trkpt>
      <trkpt lat="41.92587" lon="25.63646">
        <ele>204.494712</ele>
        <time>2022-02-27T10:50:29.645Z</time>
      </trkpt>
      <trkpt lat="41.9259" lon="25.63634">
        <ele>204.596216</ele>
        <time>2022-02-27T10:50:31.640Z</time>
      </trkpt>
      <trkpt lat="41.92593" lon="25.63623">
        <ele>204.680976</ele>
        <time>2022-02-27T10:50:33.670Z</time>
      </trkpt>
      <trkpt lat="41.92598" lon="25.63606">
        <ele>204.421592</ele>
        <time>2022-02-27T10:50:36.643Z</time>
      </trkpt>
      <trkpt lat="41.92602" lon="25.63594">
        <ele>204.2376</ele>
        <time>2022-02-27T10:50:38.641Z</time>
      </trkpt>
      <trkpt lat="41.92606" lon="25.63582">
        <ele>204.048662</ele>
        <time>2022-02-27T10:50:40.648Z</time>
      </trkpt>
      <trkpt lat="41.9261" lon="25.6357">
        <ele>203.855509</ele>
        <time>2022-02-27T10:50:42.641Z</time>
      </trkpt>
      <trkpt lat="41.92615" lon="25.63558">
        <ele>203.654666</ele>
        <time>2022-02-27T10:50:44.659Z</time>
      </trkpt>
      <trkpt lat="41.9262" lon="25.63546">
        <ele>203.451674</ele>
        <time>2022-02-27T10:50:46.693Z</time>
      </trkpt>
      <trkpt lat="41.92626" lon="25.63533">
        <ele>203.243985</ele>
        <time>2022-02-27T10:50:48.652Z</time>
      </trkpt>
      <trkpt lat="41.92632" lon="25.6352">
        <ele>203.026927</ele>
        <time>2022-02-27T10:50:50.644Z</time>
      </trkpt>
      <trkpt lat="41.92638" lon="25.63508">
        <ele>202.805336</ele>
        <time>2022-02-27T10:50:52.671Z</time>
      </trkpt>
      <trkpt lat="41.92645" lon="25.63496">
        <ele>202.589759</ele>
        <time>2022-02-27T10:50:54.644Z</time>
      </trkpt>
      <trkpt lat="41.92651" lon="25.63483">
        <ele>202.37163</ele>
        <time>2022-02-27T10:50:56.673Z</time>
      </trkpt>
      <trkpt lat="41.92657" lon="25.63473">
        <ele>202.185989</ele>
        <time>2022-02-27T10:50:58.679Z</time>
      </trkpt>
      <trkpt lat="41.92663" lon="25.63462">
        <ele>201.99347</ele>
        <time>2022-02-27T10:51:00.653Z</time>
      </trkpt>
      <trkpt lat="41.92669" lon="25.63451">
        <ele>201.798601</ele>
        <time>2022-02-27T10:51:02.645Z</time>
      </trkpt>
      <trkpt lat="41.92676" lon="25.63441">
        <ele>201.60123</ele>
        <time>2022-02-27T10:51:04.685Z</time>
      </trkpt>
      <trkpt lat="41.92682" lon="25.6343">
        <ele>201.408411</ele>
        <time>2022-02-27T10:51:06.650Z</time>
      </trkpt>
      <trkpt lat="41.92688" lon="25.63421">
        <ele>201.223715</ele>
        <time>2022-02-27T10:51:08.646Z</time>
      </trkpt>
      <trkpt lat="41.92694" lon="25.6341">
        <ele>201.197924</ele>
        <time>2022-02-27T10:51:10.682Z</time>
      </trkpt>
      <trkpt lat="41.927" lon="25.634">
        <ele>201.177273</ele>
        <time>2022-02-27T10:51:12.645Z</time>
      </trkpt>
      <trkpt lat="41.92706" lon="25.63389">
        <ele>201.155741</ele>
        <time>2022-02-27T10:51:14.652Z</time>
      </trkpt>
      <trkpt lat="41.92712" lon="25.63378">
        <ele>201.134959</ele>
        <time>2022-02-27T10:51:16.635Z</time>
      </trkpt>
      <trkpt lat="41.92718" lon="25.63368">
        <ele>201.114683</ele>
        <time>2022-02-27T10:51:18.635Z</time>
      </trkpt>
      <trkpt lat="41.92725" lon="25.63352">
        <ele>201.086648</ele>
        <time>2022-02-27T10:51:21.639Z</time>
      </trkpt>
      <trkpt lat="41.9273" lon="25.63342">
        <ele>201.067593</ele>
        <time>2022-02-27T10:51:23.638Z</time>
      </trkpt>
      <trkpt lat="41.92736" lon="25.63327">
        <ele>201.040025</ele>
        <time>2022-02-27T10:51:26.651Z</time>
      </trkpt>
      <trkpt lat="41.92744" lon="25.63312">
        <ele>201.011591</ele>
        <time>2022-02-27T10:51:29.640Z</time>
      </trkpt>
      <trkpt lat="41.92748" lon="25.63301">
        <ele>200.992677</ele>
        <time>2022-02-27T10:51:31.644Z</time>
      </trkpt>
      <trkpt lat="41.92754" lon="25.63286">
        <ele>200.965491</ele>
        <time>2022-02-27T10:51:34.637Z</time>
      </trkpt>
      <trkpt lat="41.92759" lon="25.63271">
        <ele>200.939552</ele>
        <time>2022-02-27T10:51:37.645Z</time>
      </trkpt>
      <trkpt lat="41.92763" lon="25.63256">
        <ele>200.913954</ele>
        <time>2022-02-27T10:51:40.648Z</time>
      </trkpt>
      <trkpt lat="41.92768" lon="25.6324">
        <ele>200.888064</ele>
        <time>2022-02-27T10:51:43.652Z</time>
      </trkpt>
      <trkpt lat="41.92772" lon="25.63225">
        <ele>200.862541</ele>
        <time>2022-02-27T10:51:46.679Z</time>
      </trkpt>
      <trkpt lat="41.92776" lon="25.63209">
        <ele>200.852862</ele>
        <time>2022-02-27T10:51:49.644Z</time>
      </trkpt>
      <trkpt lat="41.92779" lon="25.63193">
        <ele>201.021659</ele>
        <time>2022-02-27T10:51:52.629Z</time>
      </trkpt>
      <trkpt lat="41.92782" lon="25.63177">
        <ele>201.188023</ele>
        <time>2022-02-27T10:51:55.645Z</time>
      </trkpt>
      <trkpt lat="41.92786" lon="25.63161">
        <ele>201.351808</ele>
        <time>2022-02-27T10:51:58.650Z</time>
      </trkpt>
      <trkpt lat="41.92789" lon="25.63146">
        <ele>201.510352</ele>
        <time>2022-02-27T10:52:01.640Z</time>
      </trkpt>
      <trkpt lat="41.92791" lon="25.63131">
        <ele>201.669506</ele>
        <time>2022-02-27T10:52:04.650Z</time>
      </trkpt>
      <trkpt lat="41.92794" lon="25.63116">
        <ele>201.82669</ele>
        <time>2022-02-27T10:52:07.651Z</time>
      </trkpt>
      <trkpt lat="41.92797" lon="25.63101">
        <ele>201.986828</ele>
        <time>2022-02-27T10:52:10.646Z</time>
      </trkpt>
      <trkpt lat="41.92799" lon="25.63084">
        <ele>202.155555</ele>
        <time>2022-02-27T10:52:13.630Z</time>
      </trkpt>
      <trkpt lat="41.92802" lon="25.63067">
        <ele>202.332485</ele>
        <time>2022-02-27T10:52:16.650Z</time>
      </trkpt>
      <trkpt lat="41.92804" lon="25.6305">
        <ele>202.508129</ele>
        <time>2022-02-27T10:52:19.653Z</time>
      </trkpt>
      <trkpt lat="41.92807" lon="25.63033">
        <ele>202.684965</ele>
        <time>2022-02-27T10:52:22.642Z</time>
      </trkpt>
      <trkpt lat="41.9281" lon="25.63016">
        <ele>202.865442</ele>
        <time>2022-02-27T10:52:25.654Z</time>
      </trkpt>
      <trkpt lat="41.92812" lon="25.63003">
        <ele>202.99317</ele>
        <time>2022-02-27T10:52:27.639Z</time>
      </trkpt>
      <trkpt lat="41.92815" lon="25.62987">
        <ele>203.165448</ele>
        <time>2022-02-27T10:52:30.653Z</time>
      </trkpt>
      <trkpt lat="41.92819" lon="25.6297">
        <ele>203.264514</ele>
        <time>2022-02-27T10:52:33.643Z</time>
      </trkpt>
      <trkpt lat="41.92822" lon="25.62953">
        <ele>203.198269</ele>
        <time>2022-02-27T10:52:36.651Z</time>
      </trkpt>
      <trkpt lat="41.92824" lon="25.62941">
        <ele>203.151476</ele>
        <time>2022-02-27T10:52:38.639Z</time>
      </trkpt>
      <trkpt lat="41.92827" lon="25.62929">
        <ele>203.104416</ele>
        <time>2022-02-27T10:52:40.680Z</time>
      </trkpt>
      <trkpt lat="41.9283" lon="25.62912">
        <ele>203.035698</ele>
        <time>2022-02-27T10:52:43.649Z</time>
      </trkpt>
      <trkpt lat="41.92833" lon="25.62895">
        <ele>202.968096</ele>
        <time>2022-02-27T10:52:46.632Z</time>
      </trkpt>
      <trkpt lat="41.92835" lon="25.62883">
        <ele>202.921303</ele>
        <time>2022-02-27T10:52:48.652Z</time>
      </trkpt>
      <trkpt lat="41.92838" lon="25.62866">
        <ele>202.85407</ele>
        <time>2022-02-27T10:52:51.673Z</time>
      </trkpt>
      <trkpt lat="41.92841" lon="25.62848">
        <ele>202.786465</ele>
        <time>2022-02-27T10:52:54.625Z</time>
      </trkpt>
      <trkpt lat="41.92845" lon="25.62832">
        <ele>202.720336</ele>
        <time>2022-02-27T10:52:57.634Z</time>
      </trkpt>
      <trkpt lat="41.92848" lon="25.62815">
        <ele>202.654336</ele>
        <time>2022-02-27T10:53:00.652Z</time>
      </trkpt>
      <trkpt lat="41.92851" lon="25.62797">
        <ele>202.585989</ele>
        <time>2022-02-27T10:53:03.636Z</time>
      </trkpt>
      <trkpt lat="41.92853" lon="25.62785">
        <ele>202.539565</ele>
        <time>2022-02-27T10:53:05.644Z</time>
      </trkpt>
      <trkpt lat="41.92856" lon="25.62774">
        <ele>202.493008</ele>
        <time>2022-02-27T10:53:07.649Z</time>
      </trkpt>
      <trkpt lat="41.92858" lon="25.62762">
        <ele>202.445847</ele>
        <time>2022-02-27T10:53:09.653Z</time>
      </trkpt>
      <trkpt lat="41.92861" lon="25.62749">
        <ele>202.397183</ele>
        <time>2022-02-27T10:53:11.670Z</time>
      </trkpt>
      <trkpt lat="41.92863" lon="25.62737">
        <ele>202.360525</ele>
        <time>2022-02-27T10:53:13.639Z</time>
      </trkpt>
      <trkpt lat="41.92866" lon="25.6272">
        <ele>202.3396</ele>
        <time>2022-02-27T10:53:16.638Z</time>
      </trkpt>
      <trkpt lat="41.92868" lon="25.62708">
        <ele>202.325086</ele>
        <time>2022-02-27T10:53:18.679Z</time>
      </trkpt>
      <trkpt lat="41.92871" lon="25.62695">
        <ele>202.309746</ele>
        <time>2022-02-27T10:53:20.643Z</time>
      </trkpt>
      <trkpt lat="41.92874" lon="25.62678">
        <ele>202.289231</ele>
        <time>2022-02-27T10:53:23.650Z</time>
      </trkpt>
      <trkpt lat="41.92877" lon="25.6266">
        <ele>202.267555</ele>
        <time>2022-02-27T10:53:26.635Z</time>
      </trkpt>
      <trkpt lat="41.92879" lon="25.62647">
        <ele>202.25278</ele>
        <time>2022-02-27T10:53:28.636Z</time>
      </trkpt>
      <trkpt lat="41.92882" lon="25.62635">
        <ele>202.237855</ele>
        <time>2022-02-27T10:53:30.650Z</time>
      </trkpt>
      <trkpt lat="41.92884" lon="25.62621">
        <ele>202.221988</ele>
        <time>2022-02-27T10:53:32.643Z</time>
      </trkpt>
      <trkpt lat="41.92888" lon="25.62604">
        <ele>202.2014</ele>
        <time>2022-02-27T10:53:35.652Z</time>
      </trkpt>
      <trkpt lat="41.9289" lon="25.62592">
        <ele>202.186536</ele>
        <time>2022-02-27T10:53:37.640Z</time>
      </trkpt>
      <trkpt lat="41.92894" lon="25.62575">
        <ele>202.166249</ele>
        <time>2022-02-27T10:53:40.706Z</time>
      </trkpt>
      <trkpt lat="41.92897" lon="25.62558">
        <ele>202.145999</ele>
        <time>2022-02-27T10:53:43.689Z</time>
      </trkpt>
      <trkpt lat="41.929" lon="25.62541">
        <ele>202.125595</ele>
        <time>2022-02-27T10:53:46.646Z</time>
      </trkpt>
      <trkpt lat="41.92902" lon="25.62529">
        <ele>202.111533</ele>
        <time>2022-02-27T10:53:48.641Z</time>
      </trkpt>
      <trkpt lat="41.92905" lon="25.62512">
        <ele>202.090908</ele>
        <time>2022-02-27T10:53:51.693Z</time>
      </trkpt>
      <trkpt lat="41.92907" lon="25.625">
        <ele>202.108735</ele>
        <time>2022-02-27T10:53:53.630Z</time>
      </trkpt>
      <trkpt lat="41.9291" lon="25.62487">
        <ele>202.151126</ele>
        <time>2022-02-27T10:53:55.644Z</time>
      </trkpt>
      <trkpt lat="41.92912" lon="25.62475">
        <ele>202.19437</ele>
        <time>2022-02-27T10:53:57.620Z</time>
      </trkpt>
      <trkpt lat="41.92915" lon="25.62462">
        <ele>202.236887</ele>
        <time>2022-02-27T10:53:59.637Z</time>
      </trkpt>
      <trkpt lat="41.92918" lon="25.62445">
        <ele>202.294226</ele>
        <time>2022-02-27T10:54:02.669Z</time>
      </trkpt>
      <trkpt lat="41.92921" lon="25.62431">
        <ele>202.343824</ele>
        <time>2022-02-27T10:54:05.645Z</time>
      </trkpt>
      <trkpt lat="41.92924" lon="25.62416">
        <ele>202.394333</ele>
        <time>2022-02-27T10:54:08.649Z</time>
      </trkpt>
      <trkpt lat="41.92927" lon="25.624">
        <ele>202.448681</ele>
        <time>2022-02-27T10:54:11.641Z</time>
      </trkpt>
      <trkpt lat="41.92929" lon="25.62385">
        <ele>202.499509</ele>
        <time>2022-02-27T10:54:14.643Z</time>
      </trkpt>
      <trkpt lat="41.92932" lon="25.62371">
        <ele>202.549061</ele>
        <time>2022-02-27T10:54:17.630Z</time>
      </trkpt>
      <trkpt lat="41.92935" lon="25.62356">
        <ele>202.598926</ele>
        <time>2022-02-27T10:54:20.643Z</time>
      </trkpt>
      <trkpt lat="41.92938" lon="25.62342">
        <ele>202.647642</ele>
        <time>2022-02-27T10:54:23.655Z</time>
      </trkpt>
      <trkpt lat="41.92941" lon="25.62328">
        <ele>202.695031</ele>
        <time>2022-02-27T10:54:26.655Z</time>
      </trkpt>
      <trkpt lat="41.92944" lon="25.62315">
        <ele>202.740647</ele>
        <time>2022-02-27T10:54:29.645Z</time>
      </trkpt>
      <trkpt lat="41.92947" lon="25.62301">
        <ele>202.788926</ele>
        <time>2022-02-27T10:54:32.770Z</time>
      </trkpt>
      <trkpt lat="41.9295" lon="25.62287">
        <ele>202.836815</ele>
        <time>2022-02-27T10:54:35.660Z</time>
      </trkpt>
      <trkpt lat="41.92953" lon="25.62273">
        <ele>202.884369</ele>
        <time>2022-02-27T10:54:38.644Z</time>
      </trkpt>
      <trkpt lat="41.92956" lon="25.62259">
        <ele>202.938199</ele>
        <time>2022-02-27T10:54:41.656Z</time>
      </trkpt>
      <trkpt lat="41.92959" lon="25.62244">
        <ele>202.993787</ele>
        <time>2022-02-27T10:54:44.643Z</time>
      </trkpt>
      <trkpt lat="41.92963" lon="25.62228">
        <ele>203.052748</ele>
        <time>2022-02-27T10:54:47.653Z</time>
      </trkpt>
      <trkpt lat="41.92966" lon="25.62212">
        <ele>203.112058</ele>
        <time>2022-02-27T10:54:50.689Z</time>
      </trkpt>
      <trkpt lat="41.92969" lon="25.62197">
        <ele>203.168535</ele>
        <time>2022-02-27T10:54:53.636Z</time>
      </trkpt>
      <trkpt lat="41.92968" lon="25.62182">
        <ele>203.224448</ele>
        <time>2022-02-27T10:54:56.652Z</time>
      </trkpt>
      <trkpt lat="41.92968" lon="25.62167">
        <ele>203.278658</ele>
        <time>2022-02-27T10:54:59.631Z</time>
      </trkpt>
      <trkpt lat="41.92969" lon="25.62151">
        <ele>203.335506</ele>
        <time>2022-02-27T10:55:02.633Z</time>
      </trkpt>
      <trkpt lat="41.92972" lon="25.62135">
        <ele>203.39491</ele>
        <time>2022-02-27T10:55:05.647Z</time>
      </trkpt>
      <trkpt lat="41.92975" lon="25.6212">
        <ele>203.452829</ele>
        <time>2022-02-27T10:55:08.636Z</time>
      </trkpt>
      <trkpt lat="41.92978" lon="25.62105">
        <ele>203.50849</ele>
        <time>2022-02-27T10:55:11.638Z</time>
      </trkpt>
      <trkpt lat="41.92981" lon="25.6209">
        <ele>203.564626</ele>
        <time>2022-02-27T10:55:14.649Z</time>
      </trkpt>
      <trkpt lat="41.92984" lon="25.62074">
        <ele>203.623325</ele>
        <time>2022-02-27T10:55:17.656Z</time>
      </trkpt>
      <trkpt lat="41.92988" lon="25.62059">
        <ele>203.679795</ele>
        <time>2022-02-27T10:55:20.645Z</time>
      </trkpt>
      <trkpt lat="41.92991" lon="25.62044">
        <ele>203.738824</ele>
        <time>2022-02-27T10:55:23.647Z</time>
      </trkpt>
      <trkpt lat="41.92995" lon="25.62028">
        <ele>203.851169</ele>
        <time>2022-02-27T10:55:26.696Z</time>
      </trkpt>
      <trkpt lat="41.92998" lon="25.62012">
        <ele>203.990882</ele>
        <time>2022-02-27T10:55:29.647Z</time>
      </trkpt>
      <trkpt lat="41.93002" lon="25.61996">
        <ele>204.129131</ele>
        <time>2022-02-27T10:55:32.653Z</time>
      </trkpt>
      <trkpt lat="41.93005" lon="25.6198">
        <ele>204.263193</ele>
        <time>2022-02-27T10:55:35.647Z</time>
      </trkpt>
      <trkpt lat="41.93009" lon="25.61965">
        <ele>204.397297</ele>
        <time>2022-02-27T10:55:38.648Z</time>
      </trkpt>
      <trkpt lat="41.93012" lon="25.6195">
        <ele>204.523374</ele>
        <time>2022-02-27T10:55:41.681Z</time>
      </trkpt>
      <trkpt lat="41.93017" lon="25.61937">
        <ele>204.645159</ele>
        <time>2022-02-27T10:55:44.648Z</time>
      </trkpt>
      <trkpt lat="41.9302" lon="25.6192">
        <ele>204.787688</ele>
        <time>2022-02-27T10:55:47.645Z</time>
      </trkpt>
      <trkpt lat="41.93024" lon="25.61905">
        <ele>204.924032</ele>
        <time>2022-02-27T10:55:50.655Z</time>
      </trkpt>
      <trkpt lat="41.93027" lon="25.6189">
        <ele>205.051991</ele>
        <time>2022-02-27T10:55:53.648Z</time>
      </trkpt>
      <trkpt lat="41.9303" lon="25.61875">
        <ele>205.181049</ele>
        <time>2022-02-27T10:55:56.658Z</time>
      </trkpt>
      <trkpt lat="41.93033" lon="25.6186">
        <ele>205.307944</ele>
        <time>2022-02-27T10:55:59.646Z</time>
      </trkpt>
      <trkpt lat="41.93035" lon="25.61846">
        <ele>205.421435</ele>
        <time>2022-02-27T10:56:02.656Z</time>
      </trkpt>
      <trkpt lat="41.93037" lon="25.61832">
        <ele>205.544421</ele>
        <time>2022-02-27T10:56:05.652Z</time>
      </trkpt>
      <trkpt lat="41.93039" lon="25.61815">
        <ele>205.680236</ele>
        <time>2022-02-27T10:56:08.635Z</time>
      </trkpt>
      <trkpt lat="41.93041" lon="25.61799">
        <ele>205.807944</ele>
        <time>2022-02-27T10:56:11.644Z</time>
      </trkpt>
      <trkpt lat="41.93043" lon="25.61782">
        <ele>205.916305</ele>
        <time>2022-02-27T10:56:14.694Z</time>
      </trkpt>
      <trkpt lat="41.93045" lon="25.61767">
        <ele>206.020278</ele>
        <time>2022-02-27T10:56:17.643Z</time>
      </trkpt>
      <trkpt lat="41.93046" lon="25.61751">
        <ele>206.122238</ele>
        <time>2022-02-27T10:56:20.641Z</time>
      </trkpt>
      <trkpt lat="41.93048" lon="25.61735">
        <ele>206.227002</ele>
        <time>2022-02-27T10:56:23.655Z</time>
      </trkpt>
      <trkpt lat="41.93049" lon="25.61718">
        <ele>206.337606</ele>
        <time>2022-02-27T10:56:26.639Z</time>
      </trkpt>
      <trkpt lat="41.93051" lon="25.61701">
        <ele>206.451915</ele>
        <time>2022-02-27T10:56:29.642Z</time>
      </trkpt>
      <trkpt lat="41.93052" lon="25.61683">
        <ele>206.567525</ele>
        <time>2022-02-27T10:56:32.656Z</time>
      </trkpt>
      <trkpt lat="41.93053" lon="25.61666">
        <ele>206.683051</ele>
        <time>2022-02-27T10:56:35.660Z</time>
      </trkpt>
      <trkpt lat="41.93054" lon="25.61648">
        <ele>206.801263</ele>
        <time>2022-02-27T10:56:38.655Z</time>
      </trkpt>
      <trkpt lat="41.93055" lon="25.61636">
        <ele>206.880595</ele>
        <time>2022-02-27T10:56:40.635Z</time>
      </trkpt>
      <trkpt lat="41.93056" lon="25.61617">
        <ele>207.001074</ele>
        <time>2022-02-27T10:56:43.646Z</time>
      </trkpt>
      <trkpt lat="41.93056" lon="25.61605">
        <ele>207.080342</ele>
        <time>2022-02-27T10:56:45.653Z</time>
      </trkpt>
      <trkpt lat="41.93057" lon="25.61592">
        <ele>207.164706</ele>
        <time>2022-02-27T10:56:47.683Z</time>
      </trkpt>
      <trkpt lat="41.93057" lon="25.61579">
        <ele>207.25115</ele>
        <time>2022-02-27T10:56:49.656Z</time>
      </trkpt>
      <trkpt lat="41.93058" lon="25.61566">
        <ele>207.335587</ele>
        <time>2022-02-27T10:56:51.639Z</time>
      </trkpt>
      <trkpt lat="41.93058" lon="25.61553">
        <ele>207.382069</ele>
        <time>2022-02-27T10:56:53.641Z</time>
      </trkpt>
      <trkpt lat="41.93059" lon="25.6154">
        <ele>207.428579</ele>
        <time>2022-02-27T10:56:55.650Z</time>
      </trkpt>
      <trkpt lat="41.9306" lon="25.61527">
        <ele>207.472673</ele>
        <time>2022-02-27T10:56:57.646Z</time>
      </trkpt>
      <trkpt lat="41.9306" lon="25.61515">
        <ele>207.515574</ele>
        <time>2022-02-27T10:56:59.646Z</time>
      </trkpt>
      <trkpt lat="41.93061" lon="25.61497">
        <ele>207.579934</ele>
        <time>2022-02-27T10:57:02.647Z</time>
      </trkpt>
      <trkpt lat="41.93061" lon="25.61479">
        <ele>207.641836</ele>
        <time>2022-02-27T10:57:05.663Z</time>
      </trkpt>
      <trkpt lat="41.93062" lon="25.61467">
        <ele>207.684778</ele>
        <time>2022-02-27T10:57:07.641Z</time>
      </trkpt>
      <trkpt lat="41.93062" lon="25.61454">
        <ele>207.731257</ele>
        <time>2022-02-27T10:57:09.686Z</time>
      </trkpt>
      <trkpt lat="41.93063" lon="25.61441">
        <ele>207.774902</ele>
        <time>2022-02-27T10:57:11.638Z</time>
      </trkpt>
      <trkpt lat="41.93063" lon="25.61423">
        <ele>207.839246</ele>
        <time>2022-02-27T10:57:14.647Z</time>
      </trkpt>
      <trkpt lat="41.93064" lon="25.61411">
        <ele>207.881838</ele>
        <time>2022-02-27T10:57:16.643Z</time>
      </trkpt>
      <trkpt lat="41.93064" lon="25.61399">
        <ele>207.925861</ele>
        <time>2022-02-27T10:57:18.643Z</time>
      </trkpt>
      <trkpt lat="41.93065" lon="25.61386">
        <ele>207.969217</ele>
        <time>2022-02-27T10:57:20.690Z</time>
      </trkpt>
      <trkpt lat="41.93066" lon="25.61369">
        <ele>208.031489</ele>
        <time>2022-02-27T10:57:23.642Z</time>
      </trkpt>
      <trkpt lat="41.93066" lon="25.61357">
        <ele>208.073833</ele>
        <time>2022-02-27T10:57:25.669Z</time>
      </trkpt>
      <trkpt lat="41.93069" lon="25.6134">
        <ele>208.133705</ele>
        <time>2022-02-27T10:57:28.650Z</time>
      </trkpt>
      <trkpt lat="41.9307" lon="25.61323">
        <ele>208.209066</ele>
        <time>2022-02-27T10:57:31.652Z</time>
      </trkpt>
      <trkpt lat="41.9307" lon="25.61306">
        <ele>208.370724</ele>
        <time>2022-02-27T10:57:34.648Z</time>
      </trkpt>
      <trkpt lat="41.93071" lon="25.61289">
        <ele>208.53171</ele>
        <time>2022-02-27T10:57:37.679Z</time>
      </trkpt>
      <trkpt lat="41.93072" lon="25.61273">
        <ele>208.687569</ele>
        <time>2022-02-27T10:57:40.650Z</time>
      </trkpt>
      <trkpt lat="41.93072" lon="25.61256">
        <ele>208.849143</ele>
        <time>2022-02-27T10:57:43.652Z</time>
      </trkpt>
      <trkpt lat="41.93072" lon="25.61239">
        <ele>209.017445</ele>
        <time>2022-02-27T10:57:46.668Z</time>
      </trkpt>
      <trkpt lat="41.93072" lon="25.61222">
        <ele>209.182862</ele>
        <time>2022-02-27T10:57:49.649Z</time>
      </trkpt>
      <trkpt lat="41.93072" lon="25.61205">
        <ele>209.34246</ele>
        <time>2022-02-27T10:57:52.658Z</time>
      </trkpt>
      <trkpt lat="41.93073" lon="25.6119">
        <ele>209.494453</ele>
        <time>2022-02-27T10:57:55.644Z</time>
      </trkpt>
      <trkpt lat="41.93073" lon="25.61173">
        <ele>209.658168</ele>
        <time>2022-02-27T10:57:58.651Z</time>
      </trkpt>
      <trkpt lat="41.93074" lon="25.61156">
        <ele>209.818859</ele>
        <time>2022-02-27T10:58:01.681Z</time>
      </trkpt>
      <trkpt lat="41.93074" lon="25.6114">
        <ele>209.971731</ele>
        <time>2022-02-27T10:58:04.670Z</time>
      </trkpt>
      <trkpt lat="41.93075" lon="25.61125">
        <ele>210.117926</ele>
        <time>2022-02-27T10:58:07.661Z</time>
      </trkpt>
      <trkpt lat="41.93075" lon="25.6111">
        <ele>210.267021</ele>
        <time>2022-02-27T10:58:10.686Z</time>
      </trkpt>
      <trkpt lat="41.93076" lon="25.61094">
        <ele>210.420197</ele>
        <time>2022-02-27T10:58:13.653Z</time>
      </trkpt>
      <trkpt lat="41.93077" lon="25.61079">
        <ele>210.506444</ele>
        <time>2022-02-27T10:58:16.687Z</time>
      </trkpt>
      <trkpt lat="41.93078" lon="25.61063">
        <ele>210.446453</ele>
        <time>2022-02-27T10:58:19.654Z</time>
      </trkpt>
      <trkpt lat="41.93079" lon="25.61047">
        <ele>210.388955</ele>
        <time>2022-02-27T10:58:22.650Z</time>
      </trkpt>
      <trkpt lat="41.9308" lon="25.61031">
        <ele>210.329884</ele>
        <time>2022-02-27T10:58:25.653Z</time>
      </trkpt>
      <trkpt lat="41.9308" lon="25.61016">
        <ele>210.273152</ele>
        <time>2022-02-27T10:58:28.644Z</time>
      </trkpt>
      <trkpt lat="41.93081" lon="25.61001">
        <ele>210.217144</ele>
        <time>2022-02-27T10:58:31.650Z</time>
      </trkpt>
      <trkpt lat="41.93081" lon="25.60987">
        <ele>210.1622</ele>
        <time>2022-02-27T10:58:34.644Z</time>
      </trkpt>
      <trkpt lat="41.93082" lon="25.60973">
        <ele>210.109689</ele>
        <time>2022-02-27T10:58:37.656Z</time>
      </trkpt>
      <trkpt lat="41.93084" lon="25.60959">
        <ele>210.057864</ele>
        <time>2022-02-27T10:58:40.645Z</time>
      </trkpt>
      <trkpt lat="41.93085" lon="25.60946">
        <ele>210.010649</ele>
        <time>2022-02-27T10:58:43.640Z</time>
      </trkpt>
      <trkpt lat="41.93085" lon="25.60933">
        <ele>209.960505</ele>
        <time>2022-02-27T10:58:46.641Z</time>
      </trkpt>
      <trkpt lat="41.93086" lon="25.60918">
        <ele>209.905155</ele>
        <time>2022-02-27T10:58:49.649Z</time>
      </trkpt>
      <trkpt lat="41.93087" lon="25.60901">
        <ele>209.843509</ele>
        <time>2022-02-27T10:58:52.640Z</time>
      </trkpt>
      <trkpt lat="41.93088" lon="25.60885">
        <ele>209.782235</ele>
        <time>2022-02-27T10:58:55.643Z</time>
      </trkpt>
      <trkpt lat="41.93088" lon="25.6087">
        <ele>209.726576</ele>
        <time>2022-02-27T10:58:58.656Z</time>
      </trkpt>
      <trkpt lat="41.93088" lon="25.60856">
        <ele>209.674726</ele>
        <time>2022-02-27T10:59:01.646Z</time>
      </trkpt>
      <trkpt lat="41.93089" lon="25.60841">
        <ele>209.62315</ele>
        <time>2022-02-27T10:59:04.647Z</time>
      </trkpt>
      <trkpt lat="41.93089" lon="25.60826">
        <ele>209.627185</ele>
        <time>2022-02-27T10:59:07.668Z</time>
      </trkpt>
      <trkpt lat="41.9309" lon="25.6081">
        <ele>209.631439</ele>
        <time>2022-02-27T10:59:10.643Z</time>
      </trkpt>
      <trkpt lat="41.93091" lon="25.60793">
        <ele>209.636105</ele>
        <time>2022-02-27T10:59:13.647Z</time>
      </trkpt>
      <trkpt lat="41.93092" lon="25.60777">
        <ele>209.640397</ele>
        <time>2022-02-27T10:59:16.642Z</time>
      </trkpt>
      <trkpt lat="41.93093" lon="25.60762">
        <ele>209.64449</ele>
        <time>2022-02-27T10:59:19.653Z</time>
      </trkpt>
      <trkpt lat="41.93094" lon="25.60747">
        <ele>209.648584</ele>
        <time>2022-02-27T10:59:22.628Z</time>
      </trkpt>
      <trkpt lat="41.93094" lon="25.60732">
        <ele>209.652675</ele>
        <time>2022-02-27T10:59:25.665Z</time>
      </trkpt>
      <trkpt lat="41.93095" lon="25.60718">
        <ele>209.656682</ele>
        <time>2022-02-27T10:59:28.694Z</time>
      </trkpt>
      <trkpt lat="41.93095" lon="25.60703">
        <ele>209.660689</ele>
        <time>2022-02-27T10:59:31.652Z</time>
      </trkpt>
      <trkpt lat="41.93096" lon="25.60689">
        <ele>209.664592</ele>
        <time>2022-02-27T10:59:34.655Z</time>
      </trkpt>
      <trkpt lat="41.93097" lon="25.60675">
        <ele>209.66833</ele>
        <time>2022-02-27T10:59:37.640Z</time>
      </trkpt>
      <trkpt lat="41.93097" lon="25.6066">
        <ele>209.67244</ele>
        <time>2022-02-27T10:59:40.647Z</time>
      </trkpt>
      <trkpt lat="41.93098" lon="25.60645">
        <ele>209.676559</ele>
        <time>2022-02-27T10:59:43.643Z</time>
      </trkpt>
      <trkpt lat="41.93098" lon="25.6063">
        <ele>209.680593</ele>
        <time>2022-02-27T10:59:46.652Z</time>
      </trkpt>
      <trkpt lat="41.93099" lon="25.60615">
        <ele>209.684822</ele>
        <time>2022-02-27T10:59:49.651Z</time>
      </trkpt>
      <trkpt lat="41.931" lon="25.60599">
        <ele>209.709985</ele>
        <time>2022-02-27T10:59:52.646Z</time>
      </trkpt>
      <trkpt lat="41.93101" lon="25.60584">
        <ele>209.887974</ele>
        <time>2022-02-27T10:59:55.680Z</time>
      </trkpt>
      <trkpt lat="41.93102" lon="25.60569">
        <ele>210.069326</ele>
        <time>2022-02-27T10:59:58.653Z</time>
      </trkpt>
      <trkpt lat="41.93105" lon="25.60555">
        <ele>210.241013</ele>
        <time>2022-02-27T11:00:01.702Z</time>
      </trkpt>
      <trkpt lat="41.93109" lon="25.60542">
        <ele>210.406672</ele>
        <time>2022-02-27T11:00:04.637Z</time>
      </trkpt>
      <trkpt lat="41.93114" lon="25.60529">
        <ele>210.576753</ele>
        <time>2022-02-27T11:00:07.661Z</time>
      </trkpt>
      <trkpt lat="41.93117" lon="25.60516">
        <ele>210.734329</ele>
        <time>2022-02-27T11:00:10.652Z</time>
      </trkpt>
      <trkpt lat="41.93114" lon="25.60503">
        <ele>210.895714</ele>
        <time>2022-02-27T11:00:13.643Z</time>
      </trkpt>
      <trkpt lat="41.93107" lon="25.60489">
        <ele>211.090348</ele>
        <time>2022-02-27T11:00:16.712Z</time>
      </trkpt>
      <trkpt lat="41.93103" lon="25.60473">
        <ele>211.292427</ele>
        <time>2022-02-27T11:00:19.654Z</time>
      </trkpt>
      <trkpt lat="41.93104" lon="25.6046">
        <ele>211.436657</ele>
        <time>2022-02-27T11:00:21.642Z</time>
      </trkpt>
      <trkpt lat="41.93105" lon="25.60448">
        <ele>211.579437</ele>
        <time>2022-02-27T11:00:23.743Z</time>
      </trkpt>
      <trkpt lat="41.93106" lon="25.60431">
        <ele>211.78698</ele>
        <time>2022-02-27T11:00:26.655Z</time>
      </trkpt>
      <trkpt lat="41.93107" lon="25.60414">
        <ele>211.989946</ele>
        <time>2022-02-27T11:00:29.705Z</time>
      </trkpt>
      <trkpt lat="41.93108" lon="25.60397">
        <ele>212.181061</ele>
        <time>2022-02-27T11:00:32.651Z</time>
      </trkpt>
      <trkpt lat="41.93108" lon="25.60382">
        <ele>212.361307</ele>
        <time>2022-02-27T11:00:35.662Z</time>
      </trkpt>
      <trkpt lat="41.93109" lon="25.60367">
        <ele>212.534877</ele>
        <time>2022-02-27T11:00:38.653Z</time>
      </trkpt>
      <trkpt lat="41.9311" lon="25.60351">
        <ele>212.608249</ele>
        <time>2022-02-27T11:00:41.650Z</time>
      </trkpt>
      <trkpt lat="41.93111" lon="25.60335">
        <ele>212.68483</ele>
        <time>2022-02-27T11:00:44.650Z</time>
      </trkpt>
      <trkpt lat="41.93112" lon="25.60318">
        <ele>212.760282</ele>
        <time>2022-02-27T11:00:47.658Z</time>
      </trkpt>
      <trkpt lat="41.93112" lon="25.60302">
        <ele>212.832936</ele>
        <time>2022-02-27T11:00:50.645Z</time>
      </trkpt>
      <trkpt lat="41.93112" lon="25.60284">
        <ele>212.915254</ele>
        <time>2022-02-27T11:00:53.644Z</time>
      </trkpt>
      <trkpt lat="41.93112" lon="25.60267">
        <ele>212.994842</ele>
        <time>2022-02-27T11:00:56.644Z</time>
      </trkpt>
      <trkpt lat="41.93113" lon="25.6025">
        <ele>213.072592</ele>
        <time>2022-02-27T11:00:59.659Z</time>
      </trkpt>
      <trkpt lat="41.93114" lon="25.60233">
        <ele>213.153253</ele>
        <time>2022-02-27T11:01:02.671Z</time>
      </trkpt>
      <trkpt lat="41.93115" lon="25.60216">
        <ele>213.229943</ele>
        <time>2022-02-27T11:01:05.642Z</time>
      </trkpt>
      <trkpt lat="41.93116" lon="25.602">
        <ele>213.303038</ele>
        <time>2022-02-27T11:01:08.634Z</time>
      </trkpt>
      <trkpt lat="41.93117" lon="25.60184">
        <ele>213.378297</ele>
        <time>2022-02-27T11:01:11.661Z</time>
      </trkpt>
      <trkpt lat="41.93118" lon="25.6017">
        <ele>213.443884</ele>
        <time>2022-02-27T11:01:14.641Z</time>
      </trkpt>
      <trkpt lat="41.93119" lon="25.60156">
        <ele>213.507532</ele>
        <time>2022-02-27T11:01:17.657Z</time>
      </trkpt>
      <trkpt lat="41.9312" lon="25.60141">
        <ele>213.577523</ele>
        <time>2022-02-27T11:01:20.629Z</time>
      </trkpt>
      <trkpt lat="41.9312" lon="25.60125">
        <ele>213.628673</ele>
        <time>2022-02-27T11:01:23.648Z</time>
      </trkpt>
      <trkpt lat="41.93121" lon="25.60108">
        <ele>213.398768</ele>
        <time>2022-02-27T11:01:26.645Z</time>
      </trkpt>
      <trkpt lat="41.93122" lon="25.60093">
        <ele>213.18964</ele>
        <time>2022-02-27T11:01:29.663Z</time>
      </trkpt>
      <trkpt lat="41.93122" lon="25.60077">
        <ele>212.976321</ele>
        <time>2022-02-27T11:01:32.652Z</time>
      </trkpt>
      <trkpt lat="41.93123" lon="25.60062">
        <ele>212.766086</ele>
        <time>2022-02-27T11:01:35.650Z</time>
      </trkpt>
      <trkpt lat="41.93124" lon="25.60047">
        <ele>212.555084</ele>
        <time>2022-02-27T11:01:38.658Z</time>
      </trkpt>
      <trkpt lat="41.93124" lon="25.60032">
        <ele>212.35675</ele>
        <time>2022-02-27T11:01:41.697Z</time>
      </trkpt>
      <trkpt lat="41.93125" lon="25.60016">
        <ele>212.14195</ele>
        <time>2022-02-27T11:01:44.653Z</time>
      </trkpt>
      <trkpt lat="41.93126" lon="25.6">
        <ele>211.916256</ele>
        <time>2022-02-27T11:01:47.646Z</time>
      </trkpt>
      <trkpt lat="41.93127" lon="25.59984">
        <ele>211.701174</ele>
        <time>2022-02-27T11:01:50.653Z</time>
      </trkpt>
      <trkpt lat="41.93128" lon="25.5997">
        <ele>211.50284</ele>
        <time>2022-02-27T11:01:53.646Z</time>
      </trkpt>
      <trkpt lat="41.93129" lon="25.59956">
        <ele>211.313755</ele>
        <time>2022-02-27T11:01:56.644Z</time>
      </trkpt>
      <trkpt lat="41.93129" lon="25.59944">
        <ele>211.145505</ele>
        <time>2022-02-27T11:01:59.648Z</time>
      </trkpt>
      <trkpt lat="41.9313" lon="25.59929">
        <ele>210.947919</ele>
        <time>2022-02-27T11:02:02.661Z</time>
      </trkpt>
      <trkpt lat="41.93131" lon="25.59916">
        <ele>210.771497</ele>
        <time>2022-02-27T11:02:05.661Z</time>
      </trkpt>
      <trkpt lat="41.93132" lon="25.59903">
        <ele>210.587483</ele>
        <time>2022-02-27T11:02:08.654Z</time>
      </trkpt>
      <trkpt lat="41.93133" lon="25.59889">
        <ele>210.396685</ele>
        <time>2022-02-27T11:02:11.643Z</time>
      </trkpt>
      <trkpt lat="41.93134" lon="25.59874">
        <ele>210.450702</ele>
        <time>2022-02-27T11:02:14.640Z</time>
      </trkpt>
      <trkpt lat="41.93135" lon="25.59859">
        <ele>210.593795</ele>
        <time>2022-02-27T11:02:17.659Z</time>
      </trkpt>
      <trkpt lat="41.93136" lon="25.59844">
        <ele>210.73124</ele>
        <time>2022-02-27T11:02:20.650Z</time>
      </trkpt>
      <trkpt lat="41.93137" lon="25.59829">
        <ele>210.881776</ele>
        <time>2022-02-27T11:02:23.653Z</time>
      </trkpt>
      <trkpt lat="41.93137" lon="25.59813">
        <ele>211.028389</ele>
        <time>2022-02-27T11:02:26.654Z</time>
      </trkpt>
      <trkpt lat="41.93138" lon="25.59798">
        <ele>211.166512</ele>
        <time>2022-02-27T11:02:29.651Z</time>
      </trkpt>
      <trkpt lat="41.93139" lon="25.59784">
        <ele>211.303769</ele>
        <time>2022-02-27T11:02:32.647Z</time>
      </trkpt>
      <trkpt lat="41.93139" lon="25.59769">
        <ele>211.446682</ele>
        <time>2022-02-27T11:02:35.691Z</time>
      </trkpt>
      <trkpt lat="41.93139" lon="25.59754">
        <ele>211.584601</ele>
        <time>2022-02-27T11:02:38.637Z</time>
      </trkpt>
      <trkpt lat="41.9314" lon="25.5974">
        <ele>211.72266</ele>
        <time>2022-02-27T11:02:41.642Z</time>
      </trkpt>
      <trkpt lat="41.93141" lon="25.59725">
        <ele>211.857011</ele>
        <time>2022-02-27T11:02:44.655Z</time>
      </trkpt>
      <trkpt lat="41.93141" lon="25.59712">
        <ele>211.984635</ele>
        <time>2022-02-27T11:02:47.641Z</time>
      </trkpt>
      <trkpt lat="41.93141" lon="25.59699">
        <ele>212.109485</ele>
        <time>2022-02-27T11:02:50.646Z</time>
      </trkpt>
      <trkpt lat="41.93142" lon="25.59685">
        <ele>212.241785</ele>
        <time>2022-02-27T11:02:53.640Z</time>
      </trkpt>
      <trkpt lat="41.93142" lon="25.59672">
        <ele>212.366474</ele>
        <time>2022-02-27T11:02:56.658Z</time>
      </trkpt>
      <trkpt lat="41.93142" lon="25.59658">
        <ele>212.496984</ele>
        <time>2022-02-27T11:02:59.647Z</time>
      </trkpt>
      <trkpt lat="41.93143" lon="25.59643">
        <ele>212.654917</ele>
        <time>2022-02-27T11:03:02.655Z</time>
      </trkpt>
      <trkpt lat="41.93143" lon="25.59629">
        <ele>213.111155</ele>
        <time>2022-02-27T11:03:05.633Z</time>
      </trkpt>
      <trkpt lat="41.93144" lon="25.59615">
        <ele>213.587466</ele>
        <time>2022-02-27T11:03:08.656Z</time>
      </trkpt>
      <trkpt lat="41.93144" lon="25.59599">
        <ele>214.089454</ele>
        <time>2022-02-27T11:03:11.653Z</time>
      </trkpt>
      <trkpt lat="41.93144" lon="25.59585">
        <ele>214.57505</ele>
        <time>2022-02-27T11:03:14.641Z</time>
      </trkpt>
      <trkpt lat="41.93144" lon="25.59571">
        <ele>215.014569</ele>
        <time>2022-02-27T11:03:17.639Z</time>
      </trkpt>
      <trkpt lat="41.93142" lon="25.59558">
        <ele>215.473004</ele>
        <time>2022-02-27T11:03:20.654Z</time>
      </trkpt>
      <trkpt lat="41.93141" lon="25.59545">
        <ele>215.891429</ele>
        <time>2022-02-27T11:03:23.646Z</time>
      </trkpt>
      <trkpt lat="41.9314" lon="25.59531">
        <ele>216.341825</ele>
        <time>2022-02-27T11:03:26.636Z</time>
      </trkpt>
      <trkpt lat="41.9314" lon="25.59517">
        <ele>216.794635</ele>
        <time>2022-02-27T11:03:29.644Z</time>
      </trkpt>
      <trkpt lat="41.93142" lon="25.59502">
        <ele>217.285731</ele>
        <time>2022-02-27T11:03:32.643Z</time>
      </trkpt>
      <trkpt lat="41.93143" lon="25.59489">
        <ele>217.743754</ele>
        <time>2022-02-27T11:03:35.645Z</time>
      </trkpt>
      <trkpt lat="41.93144" lon="25.59474">
        <ele>218.212486</ele>
        <time>2022-02-27T11:03:38.639Z</time>
      </trkpt>
      <trkpt lat="41.93145" lon="25.59459">
        <ele>218.703581</ele>
        <time>2022-02-27T11:03:41.686Z</time>
      </trkpt>
      <trkpt lat="41.93146" lon="25.59445">
        <ele>219.181196</ele>
        <time>2022-02-27T11:03:44.658Z</time>
      </trkpt>
      <trkpt lat="41.93147" lon="25.59431">
        <ele>219.641725</ele>
        <time>2022-02-27T11:03:47.652Z</time>
      </trkpt>
      <trkpt lat="41.93147" lon="25.59417">
        <ele>220.088566</ele>
        <time>2022-02-27T11:03:50.671Z</time>
      </trkpt>
      <trkpt lat="41.93147" lon="25.59404">
        <ele>220.511756</ele>
        <time>2022-02-27T11:03:53.651Z</time>
      </trkpt>
      <trkpt lat="41.93148" lon="25.59392">
        <ele>220.859883</ele>
        <time>2022-02-27T11:03:56.648Z</time>
      </trkpt>
      <trkpt lat="41.93148" lon="25.59377">
        <ele>221.263555</ele>
        <time>2022-02-27T11:03:59.648Z</time>
      </trkpt>
      <trkpt lat="41.93149" lon="25.59364">
        <ele>221.628965</ele>
        <time>2022-02-27T11:04:02.639Z</time>
      </trkpt>
      <trkpt lat="41.93149" lon="25.5935">
        <ele>221.991289</ele>
        <time>2022-02-27T11:04:05.655Z</time>
      </trkpt>
      <trkpt lat="41.9315" lon="25.59336">
        <ele>222.391694</ele>
        <time>2022-02-27T11:04:08.649Z</time>
      </trkpt>
      <trkpt lat="41.9315" lon="25.5932">
        <ele>222.822161</ele>
        <time>2022-02-27T11:04:11.651Z</time>
      </trkpt>
      <trkpt lat="41.93151" lon="25.59305">
        <ele>223.222566</ele>
        <time>2022-02-27T11:04:14.691Z</time>
      </trkpt>
      <trkpt lat="41.93151" lon="25.59288">
        <ele>223.699143</ele>
        <time>2022-02-27T11:04:17.657Z</time>
      </trkpt>
      <trkpt lat="41.93152" lon="25.59272">
        <ele>224.121833</ele>
        <time>2022-02-27T11:04:20.629Z</time>
      </trkpt>
      <trkpt lat="41.93152" lon="25.59258">
        <ele>224.5117</ele>
        <time>2022-02-27T11:04:23.651Z</time>
      </trkpt>
      <trkpt lat="41.93153" lon="25.59244">
        <ele>224.890926</ele>
        <time>2022-02-27T11:04:26.640Z</time>
      </trkpt>
      <trkpt lat="41.93153" lon="25.5923">
        <ele>225.272289</ele>
        <time>2022-02-27T11:04:29.648Z</time>
      </trkpt>
      <trkpt lat="41.93154" lon="25.59215">
        <ele>225.680739</ele>
        <time>2022-02-27T11:04:32.656Z</time>
      </trkpt>
      <trkpt lat="41.93155" lon="25.59199">
        <ele>226.112371</ele>
        <time>2022-02-27T11:04:35.653Z</time>
      </trkpt>
      <trkpt lat="41.93154" lon="25.59183">
        <ele>226.547955</ele>
        <time>2022-02-27T11:04:38.648Z</time>
      </trkpt>
      <trkpt lat="41.93155" lon="25.5917">
        <ele>226.913366</ele>
        <time>2022-02-27T11:04:41.679Z</time>
      </trkpt>
      <trkpt lat="41.93155" lon="25.59156">
        <ele>227.085038</ele>
        <time>2022-02-27T11:04:44.666Z</time>
      </trkpt>
      <trkpt lat="41.93156" lon="25.59141">
        <ele>226.924568</ele>
        <time>2022-02-27T11:04:47.662Z</time>
      </trkpt>
      <trkpt lat="41.93157" lon="25.59126">
        <ele>226.770979</ele>
        <time>2022-02-27T11:04:50.655Z</time>
      </trkpt>
      <trkpt lat="41.93158" lon="25.59109">
        <ele>226.5951</ele>
        <time>2022-02-27T11:04:53.665Z</time>
      </trkpt>
      <trkpt lat="41.9316" lon="25.59093">
        <ele>226.42436</ele>
        <time>2022-02-27T11:04:56.645Z</time>
      </trkpt>
      <trkpt lat="41.93162" lon="25.59075">
        <ele>226.237</ele>
        <time>2022-02-27T11:04:59.644Z</time>
      </trkpt>
      <trkpt lat="41.93163" lon="25.59063">
        <ele>226.109321</ele>
        <time>2022-02-27T11:05:01.656Z</time>
      </trkpt>
      <trkpt lat="41.93166" lon="25.59051">
        <ele>225.980809</ele>
        <time>2022-02-27T11:05:03.658Z</time>
      </trkpt>
      <trkpt lat="41.93168" lon="25.59037">
        <ele>225.831862</ele>
        <time>2022-02-27T11:05:05.653Z</time>
      </trkpt>
      <trkpt lat="41.93171" lon="25.59022">
        <ele>225.678187</ele>
        <time>2022-02-27T11:05:07.643Z</time>
      </trkpt>
      <trkpt lat="41.93175" lon="25.59008">
        <ele>225.524445</ele>
        <time>2022-02-27T11:05:09.636Z</time>
      </trkpt>
      <trkpt lat="41.93178" lon="25.58994">
        <ele>225.370983</ele>
        <time>2022-02-27T11:05:11.636Z</time>
      </trkpt>
      <trkpt lat="41.93182" lon="25.5898">
        <ele>225.216765</ele>
        <time>2022-02-27T11:05:13.660Z</time>
      </trkpt>
      <trkpt lat="41.93187" lon="25.58964">
        <ele>225.032557</ele>
        <time>2022-02-27T11:05:15.656Z</time>
      </trkpt>
      <trkpt lat="41.93191" lon="25.5895">
        <ele>224.88078</ele>
        <time>2022-02-27T11:05:17.663Z</time>
      </trkpt>
      <trkpt lat="41.93196" lon="25.58936">
        <ele>224.718809</ele>
        <time>2022-02-27T11:05:19.640Z</time>
      </trkpt>
      <trkpt lat="41.932" lon="25.58923">
        <ele>224.494769</ele>
        <time>2022-02-27T11:05:21.653Z</time>
      </trkpt>
      <trkpt lat="41.93204" lon="25.58909">
        <ele>224.159998</ele>
        <time>2022-02-27T11:05:23.643Z</time>
      </trkpt>
      <trkpt lat="41.93209" lon="25.58896">
        <ele>223.836257</ele>
        <time>2022-02-27T11:05:25.657Z</time>
      </trkpt>
      <trkpt lat="41.93213" lon="25.58882">
        <ele>223.515999</ele>
        <time>2022-02-27T11:05:27.651Z</time>
      </trkpt>
      <trkpt lat="41.93216" lon="25.5887">
        <ele>223.224099</ele>
        <time>2022-02-27T11:05:29.663Z</time>
      </trkpt>
      <trkpt lat="41.93219" lon="25.58857">
        <ele>222.924109</ele>
        <time>2022-02-27T11:05:31.641Z</time>
      </trkpt>
      <trkpt lat="41.93223" lon="25.58842">
        <ele>222.555745</ele>
        <time>2022-02-27T11:05:33.647Z</time>
      </trkpt>
      <trkpt lat="41.93226" lon="25.58825">
        <ele>222.175083</ele>
        <time>2022-02-27T11:05:35.712Z</time>
      </trkpt>
      <trkpt lat="41.93228" lon="25.58811">
        <ele>221.845304</ele>
        <time>2022-02-27T11:05:37.654Z</time>
      </trkpt>
      <trkpt lat="41.9323" lon="25.58796">
        <ele>221.524862</ele>
        <time>2022-02-27T11:05:39.648Z</time>
      </trkpt>
      <trkpt lat="41.93232" lon="25.58782">
        <ele>221.197165</ele>
        <time>2022-02-27T11:05:41.658Z</time>
      </trkpt>
      <trkpt lat="41.93233" lon="25.58767">
        <ele>220.850036</ele>
        <time>2022-02-27T11:05:43.646Z</time>
      </trkpt>
      <trkpt lat="41.93235" lon="25.5875">
        <ele>220.481711</ele>
        <time>2022-02-27T11:05:45.657Z</time>
      </trkpt>
      <trkpt lat="41.93237" lon="25.58735">
        <ele>220.126614</ele>
        <time>2022-02-27T11:05:47.649Z</time>
      </trkpt>
      <trkpt lat="41.93239" lon="25.5872">
        <ele>219.800623</ele>
        <time>2022-02-27T11:05:49.641Z</time>
      </trkpt>
      <trkpt lat="41.93242" lon="25.58705">
        <ele>219.443969</ele>
        <time>2022-02-27T11:05:52.656Z</time>
      </trkpt>
      <trkpt lat="41.93243" lon="25.58691">
        <ele>219.194342</ele>
        <time>2022-02-27T11:05:56.646Z</time>
      </trkpt>
      <trkpt lat="41.93245" lon="25.58678">
        <ele>219.068929</ele>
        <time>2022-02-27T11:05:59.639Z</time>
      </trkpt>
      <trkpt lat="41.93247" lon="25.58664">
        <ele>218.932745</ele>
        <time>2022-02-27T11:06:02.678Z</time>
      </trkpt>
      <trkpt lat="41.93249" lon="25.58648">
        <ele>218.777598</ele>
        <time>2022-02-27T11:06:05.643Z</time>
      </trkpt>
      <trkpt lat="41.93251" lon="25.5863">
        <ele>218.607573</ele>
        <time>2022-02-27T11:06:08.643Z</time>
      </trkpt>
      <trkpt lat="41.93253" lon="25.58616">
        <ele>218.474838</ele>
        <time>2022-02-27T11:06:11.655Z</time>
      </trkpt>
      <trkpt lat="41.93254" lon="25.58602">
        <ele>218.33305</ele>
        <time>2022-02-27T11:06:14.680Z</time>
      </trkpt>
      <trkpt lat="41.93256" lon="25.58584">
        <ele>218.168681</ele>
        <time>2022-02-27T11:06:17.667Z</time>
      </trkpt>
      <trkpt lat="41.93258" lon="25.58567">
        <ele>218.002245</ele>
        <time>2022-02-27T11:06:20.653Z</time>
      </trkpt>
      <trkpt lat="41.9326" lon="25.5855">
        <ele>217.841823</ele>
        <time>2022-02-27T11:06:23.652Z</time>
      </trkpt>
      <trkpt lat="41.93261" lon="25.58534">
        <ele>217.682961</ele>
        <time>2022-02-27T11:06:26.653Z</time>
      </trkpt>
      <trkpt lat="41.93262" lon="25.58521">
        <ele>217.5587</ele>
        <time>2022-02-27T11:06:28.654Z</time>
      </trkpt>
      <trkpt lat="41.93262" lon="25.58507">
        <ele>217.426409</ele>
        <time>2022-02-27T11:06:30.645Z</time>
      </trkpt>
      <trkpt lat="41.93262" lon="25.58493">
        <ele>217.294018</ele>
        <time>2022-02-27T11:06:32.651Z</time>
      </trkpt>
      <trkpt lat="41.93262" lon="25.58479">
        <ele>217.163623</ele>
        <time>2022-02-27T11:06:34.652Z</time>
      </trkpt>
      <trkpt lat="41.93262" lon="25.58466">
        <ele>217.037035</ele>
        <time>2022-02-27T11:06:36.679Z</time>
      </trkpt>
      <trkpt lat="41.93262" lon="25.58452">
        <ele>216.909704</ele>
        <time>2022-02-27T11:06:38.635Z</time>
      </trkpt>
      <trkpt lat="41.93262" lon="25.58438">
        <ele>216.785277</ele>
        <time>2022-02-27T11:06:40.658Z</time>
      </trkpt>
      <trkpt lat="41.93262" lon="25.58424">
        <ele>216.665036</ele>
        <time>2022-02-27T11:06:42.639Z</time>
      </trkpt>
      <trkpt lat="41.93263" lon="25.5841">
        <ele>216.546521</ele>
        <time>2022-02-27T11:06:44.660Z</time>
      </trkpt>
      <trkpt lat="41.93263" lon="25.58398">
        <ele>216.440144</ele>
        <time>2022-02-27T11:06:46.656Z</time>
      </trkpt>
      <trkpt lat="41.93264" lon="25.58386">
        <ele>216.332978</ele>
        <time>2022-02-27T11:06:48.662Z</time>
      </trkpt>
      <trkpt lat="41.93264" lon="25.58368">
        <ele>216.183388</ele>
        <time>2022-02-27T11:06:51.654Z</time>
      </trkpt>
      <trkpt lat="41.93264" lon="25.58351">
        <ele>216.033028</ele>
        <time>2022-02-27T11:06:54.653Z</time>
      </trkpt>
      <trkpt lat="41.93265" lon="25.58336">
        <ele>215.901613</ele>
        <time>2022-02-27T11:06:57.659Z</time>
      </trkpt>
      <trkpt lat="41.93265" lon="25.58321">
        <ele>215.77717</ele>
        <time>2022-02-27T11:07:00.660Z</time>
      </trkpt>
      <trkpt lat="41.93265" lon="25.58305">
        <ele>215.634562</ele>
        <time>2022-02-27T11:07:03.679Z</time>
      </trkpt>
      <trkpt lat="41.93265" lon="25.58288">
        <ele>215.485907</ele>
        <time>2022-02-27T11:07:06.662Z</time>
      </trkpt>
      <trkpt lat="41.93266" lon="25.58271">
        <ele>215.344993</ele>
        <time>2022-02-27T11:07:09.674Z</time>
      </trkpt>
      <trkpt lat="41.93266" lon="25.58255">
        <ele>215.20584</ele>
        <time>2022-02-27T11:07:12.653Z</time>
      </trkpt>
      <trkpt lat="41.93266" lon="25.58239">
        <ele>215.06496</ele>
        <time>2022-02-27T11:07:15.653Z</time>
      </trkpt>
      <trkpt lat="41.93266" lon="25.58221">
        <ele>214.913714</ele>
        <time>2022-02-27T11:07:18.653Z</time>
      </trkpt>
      <trkpt lat="41.93266" lon="25.58209">
        <ele>214.877678</ele>
        <time>2022-02-27T11:07:20.696Z</time>
      </trkpt>
      <trkpt lat="41.93266" lon="25.58192">
        <ele>214.972774</ele>
        <time>2022-02-27T11:07:23.653Z</time>
      </trkpt>
      <trkpt lat="41.93266" lon="25.58174">
        <ele>215.071685</ele>
        <time>2022-02-27T11:07:26.648Z</time>
      </trkpt>
      <trkpt lat="41.93267" lon="25.58156">
        <ele>215.170148</ele>
        <time>2022-02-27T11:07:29.650Z</time>
      </trkpt>
      <trkpt lat="41.93267" lon="25.58143">
        <ele>215.239553</ele>
        <time>2022-02-27T11:07:31.681Z</time>
      </trkpt>
      <trkpt lat="41.93268" lon="25.5813">
        <ele>215.308798</ele>
        <time>2022-02-27T11:07:33.650Z</time>
      </trkpt>
      <trkpt lat="41.93269" lon="25.58117">
        <ele>215.381571</ele>
        <time>2022-02-27T11:07:35.663Z</time>
      </trkpt>
      <trkpt lat="41.93269" lon="25.58104">
        <ele>215.452065</ele>
        <time>2022-02-27T11:07:37.659Z</time>
      </trkpt>
      <trkpt lat="41.93269" lon="25.58091">
        <ele>215.522013</ele>
        <time>2022-02-27T11:07:39.648Z</time>
      </trkpt>
      <trkpt lat="41.93269" lon="25.58075">
        <ele>215.609448</ele>
        <time>2022-02-27T11:07:41.656Z</time>
      </trkpt>
      <trkpt lat="41.93269" lon="25.58059">
        <ele>215.70071</ele>
        <time>2022-02-27T11:07:44.643Z</time>
      </trkpt>
      <trkpt lat="41.93269" lon="25.58046">
        <ele>215.769569</ele>
        <time>2022-02-27T11:07:46.643Z</time>
      </trkpt>
      <trkpt lat="41.93269" lon="25.58033">
        <ele>215.842799</ele>
        <time>2022-02-27T11:07:48.654Z</time>
      </trkpt>
      <trkpt lat="41.93269" lon="25.5802">
        <ele>215.913874</ele>
        <time>2022-02-27T11:07:50.651Z</time>
      </trkpt>
      <trkpt lat="41.9327" lon="25.58007">
        <ele>215.981154</ele>
        <time>2022-02-27T11:07:52.649Z</time>
      </trkpt>
      <trkpt lat="41.9327" lon="25.57994">
        <ele>216.053422</ele>
        <time>2022-02-27T11:07:54.659Z</time>
      </trkpt>
      <trkpt lat="41.93272" lon="25.57978">
        <ele>216.141548</ele>
        <time>2022-02-27T11:07:57.662Z</time>
      </trkpt>
      <trkpt lat="41.93273" lon="25.57961">
        <ele>216.180361</ele>
        <time>2022-02-27T11:08:00.657Z</time>
      </trkpt>
      <trkpt lat="41.93274" lon="25.57949">
        <ele>216.189248</ele>
        <time>2022-02-27T11:08:02.656Z</time>
      </trkpt>
      <trkpt lat="41.93274" lon="25.57937">
        <ele>216.198328</ele>
        <time>2022-02-27T11:08:04.652Z</time>
      </trkpt>
      <trkpt lat="41.93275" lon="25.57925">
        <ele>216.207151</ele>
        <time>2022-02-27T11:08:06.647Z</time>
      </trkpt>
      <trkpt lat="41.93276" lon="25.57912">
        <ele>216.216505</ele>
        <time>2022-02-27T11:08:08.664Z</time>
      </trkpt>
      <trkpt lat="41.93277" lon="25.579">
        <ele>216.225786</ele>
        <time>2022-02-27T11:08:10.716Z</time>
      </trkpt>
      <trkpt lat="41.93278" lon="25.57882">
        <ele>216.238999</ele>
        <time>2022-02-27T11:08:13.662Z</time>
      </trkpt>
      <trkpt lat="41.93279" lon="25.57865">
        <ele>216.251474</ele>
        <time>2022-02-27T11:08:16.678Z</time>
      </trkpt>
      <trkpt lat="41.9328" lon="25.57849">
        <ele>216.263044</ele>
        <time>2022-02-27T11:08:19.651Z</time>
      </trkpt>
      <trkpt lat="41.9328" lon="25.57833">
        <ele>216.274463</ele>
        <time>2022-02-27T11:08:22.698Z</time>
      </trkpt>
      <trkpt lat="41.9328" lon="25.57819">
        <ele>216.284488</ele>
        <time>2022-02-27T11:08:25.631Z</time>
      </trkpt>
      <trkpt lat="41.93281" lon="25.57805">
        <ele>216.294734</ele>
        <time>2022-02-27T11:08:28.636Z</time>
      </trkpt>
      <trkpt lat="41.93281" lon="25.57792">
        <ele>216.304395</ele>
        <time>2022-02-27T11:08:31.650Z</time>
      </trkpt>
      <trkpt lat="41.93281" lon="25.57776">
        <ele>216.316034</ele>
        <time>2022-02-27T11:08:35.635Z</time>
      </trkpt>
      <trkpt lat="41.93282" lon="25.5776">
        <ele>216.327676</ele>
        <time>2022-02-27T11:08:39.656Z</time>
      </trkpt>
      <trkpt lat="41.93283" lon="25.57745">
        <ele>216.339256</ele>
        <time>2022-02-27T11:08:43.657Z</time>
      </trkpt>
      <trkpt lat="41.93283" lon="25.5773">
        <ele>216.367778</ele>
        <time>2022-02-27T11:08:47.660Z</time>
      </trkpt>
      <trkpt lat="41.93284" lon="25.57717">
        <ele>216.588498</ele>
        <time>2022-02-27T11:08:51.657Z</time>
      </trkpt>
      <trkpt lat="41.93285" lon="25.57705">
        <ele>216.789233</ele>
        <time>2022-02-27T11:08:55.676Z</time>
      </trkpt>
      <trkpt lat="41.93285" lon="25.57692">
        <ele>216.997762</ele>
        <time>2022-02-27T11:08:59.646Z</time>
      </trkpt>
      <trkpt lat="41.93286" lon="25.57679">
        <ele>217.210314</ele>
        <time>2022-02-27T11:09:03.652Z</time>
      </trkpt>
      <trkpt lat="41.93287" lon="25.57666">
        <ele>217.429611</ele>
        <time>2022-02-27T11:09:08.657Z</time>
      </trkpt>
      <trkpt lat="41.93288" lon="25.57651">
        <ele>217.674403</ele>
        <time>2022-02-27T11:09:13.644Z</time>
      </trkpt>
      <trkpt lat="41.93288" lon="25.57636">
        <ele>217.919084</ele>
        <time>2022-02-27T11:09:18.663Z</time>
      </trkpt>
      <trkpt lat="41.93289" lon="25.57624">
        <ele>218.11789</ele>
        <time>2022-02-27T11:09:22.656Z</time>
      </trkpt>
      <trkpt lat="41.93289" lon="25.57609">
        <ele>218.357442</ele>
        <time>2022-02-27T11:09:27.682Z</time>
      </trkpt>
      <trkpt lat="41.93289" lon="25.57597">
        <ele>218.567611</ele>
        <time>2022-02-27T11:09:31.643Z</time>
      </trkpt>
      <trkpt lat="41.9329" lon="25.57582">
        <ele>218.804099</ele>
        <time>2022-02-27T11:09:35.648Z</time>
      </trkpt>
      <trkpt lat="41.9329" lon="25.57569">
        <ele>219.020744</ele>
        <time>2022-02-27T11:09:39.710Z</time>
      </trkpt>
      <trkpt lat="41.93291" lon="25.57554">
        <ele>219.269643</ele>
        <time>2022-02-27T11:09:44.654Z</time>
      </trkpt>
      <trkpt lat="41.93292" lon="25.57541">
        <ele>219.485101</ele>
        <time>2022-02-27T11:09:48.663Z</time>
      </trkpt>
      <trkpt lat="41.93293" lon="25.57527">
        <ele>219.708481</ele>
        <time>2022-02-27T11:09:52.673Z</time>
      </trkpt>
      <trkpt lat="41.93294" lon="25.57513">
        <ele>219.936676</ele>
        <time>2022-02-27T11:09:56.634Z</time>
      </trkpt>
      <trkpt lat="41.93295" lon="25.57501">
        <ele>220.135958</ele>
        <time>2022-02-27T11:09:59.654Z</time>
      </trkpt>
      <trkpt lat="41.93295" lon="25.57486">
        <ele>220.274048</ele>
        <time>2022-02-27T11:10:03.650Z</time>
      </trkpt>
      <trkpt lat="41.93296" lon="25.57474">
        <ele>220.151041</ele>
        <time>2022-02-27T11:10:06.650Z</time>
      </trkpt>
      <trkpt lat="41.93296" lon="25.57461">
        <ele>220.021853</ele>
        <time>2022-02-27T11:10:09.642Z</time>
      </trkpt>
      <trkpt lat="41.93296" lon="25.57448">
        <ele>219.887823</ele>
        <time>2022-02-27T11:10:12.695Z</time>
      </trkpt>
      <trkpt lat="41.93297" lon="25.57434">
        <ele>219.747752</ele>
        <time>2022-02-27T11:10:15.671Z</time>
      </trkpt>
      <trkpt lat="41.93297" lon="25.5742">
        <ele>219.602545</ele>
        <time>2022-02-27T11:10:18.663Z</time>
      </trkpt>
      <trkpt lat="41.93298" lon="25.57406">
        <ele>219.460286</ele>
        <time>2022-02-27T11:10:21.664Z</time>
      </trkpt>
      <trkpt lat="41.93298" lon="25.57391">
        <ele>219.318099</ele>
        <time>2022-02-27T11:10:24.672Z</time>
      </trkpt>
      <trkpt lat="41.93299" lon="25.57377">
        <ele>219.167916</ele>
        <time>2022-02-27T11:10:27.669Z</time>
      </trkpt>
      <trkpt lat="41.93299" lon="25.57361">
        <ele>219.012505</ele>
        <time>2022-02-27T11:10:30.661Z</time>
      </trkpt>
      <trkpt lat="41.93301" lon="25.57344">
        <ele>218.840498</ele>
        <time>2022-02-27T11:10:33.658Z</time>
      </trkpt>
      <trkpt lat="41.93301" lon="25.57327">
        <ele>218.66605</ele>
        <time>2022-02-27T11:10:36.672Z</time>
      </trkpt>
      <trkpt lat="41.93302" lon="25.57311">
        <ele>218.503674</ele>
        <time>2022-02-27T11:10:39.662Z</time>
      </trkpt>
      <trkpt lat="41.93303" lon="25.57295">
        <ele>218.346837</ele>
        <time>2022-02-27T11:10:42.678Z</time>
      </trkpt>
      <trkpt lat="41.93304" lon="25.57278">
        <ele>218.175956</ele>
        <time>2022-02-27T11:10:45.658Z</time>
      </trkpt>
      <trkpt lat="41.93306" lon="25.57262">
        <ele>218.008349</ele>
        <time>2022-02-27T11:10:48.658Z</time>
      </trkpt>
      <trkpt lat="41.93307" lon="25.5725">
        <ele>217.883716</ele>
        <time>2022-02-27T11:10:50.658Z</time>
      </trkpt>
      <trkpt lat="41.93307" lon="25.57235">
        <ele>217.399194</ele>
        <time>2022-02-27T11:10:52.649Z</time>
      </trkpt>
      <trkpt lat="41.93308" lon="25.57218">
        <ele>216.824864</ele>
        <time>2022-02-27T11:10:54.647Z</time>
      </trkpt>
      <trkpt lat="41.93308" lon="25.57199">
        <ele>216.196709</ele>
        <time>2022-02-27T11:10:56.640Z</time>
      </trkpt>
      <trkpt lat="41.93309" lon="25.57179">
        <ele>215.521006</ele>
        <time>2022-02-27T11:10:58.677Z</time>
      </trkpt>
      <trkpt lat="41.9331" lon="25.57161">
        <ele>214.885323</ele>
        <time>2022-02-27T11:11:00.659Z</time>
      </trkpt>
      <trkpt lat="41.9331" lon="25.57142">
        <ele>214.242628</ele>
        <time>2022-02-27T11:11:02.651Z</time>
      </trkpt>
      <trkpt lat="41.93311" lon="25.57122">
        <ele>213.579718</ele>
        <time>2022-02-27T11:11:04.664Z</time>
      </trkpt>
      <trkpt lat="41.93312" lon="25.57102">
        <ele>212.903041</ele>
        <time>2022-02-27T11:11:06.654Z</time>
      </trkpt>
      <trkpt lat="41.93314" lon="25.57083">
        <ele>212.268584</ele>
        <time>2022-02-27T11:11:08.678Z</time>
      </trkpt>
      <trkpt lat="41.93315" lon="25.57067">
        <ele>211.722364</ele>
        <time>2022-02-27T11:11:10.637Z</time>
      </trkpt>
      <trkpt lat="41.93316" lon="25.57052">
        <ele>211.213544</ele>
        <time>2022-02-27T11:11:12.652Z</time>
      </trkpt>
      <trkpt lat="41.93317" lon="25.57037">
        <ele>210.707108</ele>
        <time>2022-02-27T11:11:14.704Z</time>
      </trkpt>
      <trkpt lat="41.93318" lon="25.57023">
        <ele>210.215083</ele>
        <time>2022-02-27T11:11:16.633Z</time>
      </trkpt>
      <trkpt lat="41.93319" lon="25.57008">
        <ele>209.71937</ele>
        <time>2022-02-27T11:11:18.649Z</time>
      </trkpt>
      <trkpt lat="41.9332" lon="25.56993">
        <ele>209.93922</ele>
        <time>2022-02-27T11:11:20.680Z</time>
      </trkpt>
      <trkpt lat="41.93319" lon="25.5698">
        <ele>210.145196</ele>
        <time>2022-02-27T11:11:22.642Z</time>
      </trkpt>
      <trkpt lat="41.93318" lon="25.56966">
        <ele>210.355099</ele>
        <time>2022-02-27T11:11:24.649Z</time>
      </trkpt>
      <trkpt lat="41.93317" lon="25.5695">
        <ele>210.605771</ele>
        <time>2022-02-27T11:11:27.661Z</time>
      </trkpt>
      <trkpt lat="41.93314" lon="25.56935">
        <ele>210.831697</ele>
        <time>2022-02-27T11:11:30.661Z</time>
      </trkpt>
      <trkpt lat="41.93311" lon="25.56922">
        <ele>211.039492</ele>
        <time>2022-02-27T11:11:33.739Z</time>
      </trkpt>
      <trkpt lat="41.93308" lon="25.56909">
        <ele>211.250943</ele>
        <time>2022-02-27T11:11:37.652Z</time>
      </trkpt>
      <trkpt lat="41.93302" lon="25.56889">
        <ele>211.575908</ele>
        <time>2022-02-27T11:11:58.640Z</time>
      </trkpt>
      <trkpt lat="41.93298" lon="25.56873">
        <ele>211.824925</ele>
        <time>2022-02-27T11:12:02.644Z</time>
      </trkpt>
      <trkpt lat="41.93294" lon="25.56861">
        <ele>212.025153</ele>
        <time>2022-02-27T11:12:05.657Z</time>
      </trkpt>
      <trkpt lat="41.93289" lon="25.5685">
        <ele>212.222818</ele>
        <time>2022-02-27T11:12:08.643Z</time>
      </trkpt>
      <trkpt lat="41.93284" lon="25.56837">
        <ele>212.441372</ele>
        <time>2022-02-27T11:12:11.666Z</time>
      </trkpt>
      <trkpt lat="41.93277" lon="25.56823">
        <ele>212.691939</ele>
        <time>2022-02-27T11:12:14.690Z</time>
      </trkpt>
      <trkpt lat="41.93271" lon="25.56808">
        <ele>212.950822</ele>
        <time>2022-02-27T11:12:17.668Z</time>
      </trkpt>
      <trkpt lat="41.93264" lon="25.56793">
        <ele>213.228183</ele>
        <time>2022-02-27T11:12:20.661Z</time>
      </trkpt>
      <trkpt lat="41.93259" lon="25.56782">
        <ele>213.39027</ele>
        <time>2022-02-27T11:12:22.633Z</time>
      </trkpt>
      <trkpt lat="41.93254" lon="25.56771">
        <ele>213.44097</ele>
        <time>2022-02-27T11:12:24.693Z</time>
      </trkpt>
      <trkpt lat="41.93249" lon="25.56761">
        <ele>213.491972</ele>
        <time>2022-02-27T11:12:26.696Z</time>
      </trkpt>
      <trkpt lat="41.93244" lon="25.5675">
        <ele>213.543787</ele>
        <time>2022-02-27T11:12:28.642Z</time>
      </trkpt>
      <trkpt lat="41.9324" lon="25.5674">
        <ele>213.594605</ele>
        <time>2022-02-27T11:12:30.646Z</time>
      </trkpt>
      <trkpt lat="41.93235" lon="25.56729">
        <ele>213.648206</ele>
        <time>2022-02-27T11:12:32.704Z</time>
      </trkpt>
      <trkpt lat="41.9323" lon="25.56718">
        <ele>213.699379</ele>
        <time>2022-02-27T11:12:34.646Z</time>
      </trkpt>
      <trkpt lat="41.93225" lon="25.56707">
        <ele>213.755424</ele>
        <time>2022-02-27T11:12:36.650Z</time>
      </trkpt>
      <trkpt lat="41.93218" lon="25.56692">
        <ele>213.826856</ele>
        <time>2022-02-27T11:12:39.637Z</time>
      </trkpt>
      <trkpt lat="41.93212" lon="25.56677">
        <ele>213.897748</ele>
        <time>2022-02-27T11:12:42.651Z</time>
      </trkpt>
      <trkpt lat="41.93208" lon="25.56666">
        <ele>213.948769</ele>
        <time>2022-02-27T11:12:44.645Z</time>
      </trkpt>
      <trkpt lat="41.93203" lon="25.56653">
        <ele>214.008336</ele>
        <time>2022-02-27T11:12:46.644Z</time>
      </trkpt>
      <trkpt lat="41.93197" lon="25.5664">
        <ele>214.071988</ele>
        <time>2022-02-27T11:12:48.657Z</time>
      </trkpt>
      <trkpt lat="41.93193" lon="25.56627">
        <ele>214.131555</ele>
        <time>2022-02-27T11:12:50.660Z</time>
      </trkpt>
      <trkpt lat="41.93188" lon="25.56615">
        <ele>214.186544</ele>
        <time>2022-02-27T11:12:52.641Z</time>
      </trkpt>
      <trkpt lat="41.93184" lon="25.56604">
        <ele>214.239961</ele>
        <time>2022-02-27T11:12:54.677Z</time>
      </trkpt>
      <trkpt lat="41.93178" lon="25.56589">
        <ele>214.310066</ele>
        <time>2022-02-27T11:12:57.650Z</time>
      </trkpt>
      <trkpt lat="41.93174" lon="25.56577">
        <ele>214.36177</ele>
        <time>2022-02-27T11:12:59.643Z</time>
      </trkpt>
      <trkpt lat="41.93172" lon="25.56564">
        <ele>214.556213</ele>
        <time>2022-02-27T11:13:01.638Z</time>
      </trkpt>
      <trkpt lat="41.9317" lon="25.56552">
        <ele>214.801518</ele>
        <time>2022-02-27T11:13:03.667Z</time>
      </trkpt>
      <trkpt lat="41.93168" lon="25.56536">
        <ele>215.130306</ele>
        <time>2022-02-27T11:13:06.644Z</time>
      </trkpt>
      <trkpt lat="41.93167" lon="25.56519">
        <ele>215.478871</ele>
        <time>2022-02-27T11:13:09.658Z</time>
      </trkpt>
      <trkpt lat="41.93168" lon="25.56506">
        <ele>215.727324</ele>
        <time>2022-02-27T11:13:11.705Z</time>
      </trkpt>
      <trkpt lat="41.93168" lon="25.5649">
        <ele>216.059762</ele>
        <time>2022-02-27T11:13:14.669Z</time>
      </trkpt>
      <trkpt lat="41.93171" lon="25.56477">
        <ele>216.323129</ele>
        <time>2022-02-27T11:13:17.652Z</time>
      </trkpt>
      <trkpt lat="41.93175" lon="25.56461">
        <ele>216.661671</ele>
        <time>2022-02-27T11:13:20.646Z</time>
      </trkpt>
      <trkpt lat="41.93178" lon="25.56449">
        <ele>216.911001</ele>
        <time>2022-02-27T11:13:22.672Z</time>
      </trkpt>
      <trkpt lat="41.93181" lon="25.56436">
        <ele>217.188584</ele>
        <time>2022-02-27T11:13:24.650Z</time>
      </trkpt>
      <trkpt lat="41.93184" lon="25.56424">
        <ele>217.449118</ele>
        <time>2022-02-27T11:13:26.688Z</time>
      </trkpt>
      <trkpt lat="41.93188" lon="25.56408">
        <ele>217.785582</ele>
        <time>2022-02-27T11:13:29.651Z</time>
      </trkpt>
      <trkpt lat="41.93192" lon="25.56392">
        <ele>218.117389</ele>
        <time>2022-02-27T11:13:32.661Z</time>
      </trkpt>
      <trkpt lat="41.93196" lon="25.56378">
        <ele>218.420999</ele>
        <time>2022-02-27T11:13:35.657Z</time>
      </trkpt>
      <trkpt lat="41.93201" lon="25.56363">
        <ele>218.732851</ele>
        <time>2022-02-27T11:13:38.654Z</time>
      </trkpt>
      <trkpt lat="41.93205" lon="25.56351">
        <ele>219.004692</ele>
        <time>2022-02-27T11:13:41.652Z</time>
      </trkpt>
      <trkpt lat="41.93209" lon="25.56338">
        <ele>219.154819</ele>
        <time>2022-02-27T11:13:44.695Z</time>
      </trkpt>
      <trkpt lat="41.93213" lon="25.56322">
        <ele>218.852639</ele>
        <time>2022-02-27T11:13:47.663Z</time>
      </trkpt>
      <trkpt lat="41.93217" lon="25.56307">
        <ele>218.56051</ele>
        <time>2022-02-27T11:13:50.654Z</time>
      </trkpt>
      <trkpt lat="41.93222" lon="25.56291">
        <ele>218.254191</ele>
        <time>2022-02-27T11:13:53.631Z</time>
      </trkpt>
      <trkpt lat="41.93227" lon="25.56279">
        <ele>218.018934</ele>
        <time>2022-02-27T11:13:55.681Z</time>
      </trkpt>
      <trkpt lat="41.9323" lon="25.56268">
        <ele>217.792544</ele>
        <time>2022-02-27T11:13:57.655Z</time>
      </trkpt>
      <trkpt lat="41.93234" lon="25.56256">
        <ele>217.563548</ele>
        <time>2022-02-27T11:13:59.651Z</time>
      </trkpt>
      <trkpt lat="41.93238" lon="25.56245">
        <ele>217.348383</ele>
        <time>2022-02-27T11:14:01.646Z</time>
      </trkpt>
      <trkpt lat="41.93242" lon="25.56229">
        <ele>217.046123</ele>
        <time>2022-02-27T11:14:04.641Z</time>
      </trkpt>
      <trkpt lat="41.93246" lon="25.56213">
        <ele>216.744736</ele>
        <time>2022-02-27T11:14:07.662Z</time>
      </trkpt>
      <trkpt lat="41.93251" lon="25.56198">
        <ele>216.445772</ele>
        <time>2022-02-27T11:14:10.644Z</time>
      </trkpt>
      <trkpt lat="41.93256" lon="25.56182">
        <ele>216.145153</ele>
        <time>2022-02-27T11:14:13.644Z</time>
      </trkpt>
      <trkpt lat="41.9326" lon="25.56167">
        <ele>215.856367</ele>
        <time>2022-02-27T11:14:16.663Z</time>
      </trkpt>
      <trkpt lat="41.93265" lon="25.56153">
        <ele>215.578768</ele>
        <time>2022-02-27T11:14:19.639Z</time>
      </trkpt>
      <trkpt lat="41.9327" lon="25.56138">
        <ele>215.288036</ele>
        <time>2022-02-27T11:14:22.648Z</time>
      </trkpt>
      <trkpt lat="41.93276" lon="25.56123">
        <ele>214.986987</ele>
        <time>2022-02-27T11:14:25.656Z</time>
      </trkpt>
      <trkpt lat="41.9328" lon="25.56112">
        <ele>215.287119</ele>
        <time>2022-02-27T11:14:27.661Z</time>
      </trkpt>
      <trkpt lat="41.93287" lon="25.56096">
        <ele>216.211754</ele>
        <time>2022-02-27T11:14:30.656Z</time>
      </trkpt>
      <trkpt lat="41.93293" lon="25.5608">
        <ele>217.134091</ele>
        <time>2022-02-27T11:14:33.766Z</time>
      </trkpt>
      <trkpt lat="41.93298" lon="25.56069">
        <ele>217.780164</ele>
        <time>2022-02-27T11:14:35.652Z</time>
      </trkpt>
      <trkpt lat="41.93303" lon="25.56055">
        <ele>218.607579</ele>
        <time>2022-02-27T11:14:38.648Z</time>
      </trkpt>
      <trkpt lat="41.93309" lon="25.56041">
        <ele>219.394815</ele>
        <time>2022-02-27T11:14:41.661Z</time>
      </trkpt>
      <trkpt lat="41.93316" lon="25.56029">
        <ele>220.195575</ele>
        <time>2022-02-27T11:14:44.677Z</time>
      </trkpt>
      <trkpt lat="41.9332" lon="25.56016">
        <ele>220.907362</ele>
        <time>2022-02-27T11:14:47.683Z</time>
      </trkpt>
      <trkpt lat="41.93325" lon="25.56003">
        <ele>221.665881</ele>
        <time>2022-02-27T11:14:50.681Z</time>
      </trkpt>
      <trkpt lat="41.9333" lon="25.55987">
        <ele>222.54678</ele>
        <time>2022-02-27T11:14:53.645Z</time>
      </trkpt>
      <trkpt lat="41.93334" lon="25.55974">
        <ele>223.273204</ele>
        <time>2022-02-27T11:14:56.672Z</time>
      </trkpt>
      <trkpt lat="41.93337" lon="25.55959">
        <ele>224.033449</ele>
        <time>2022-02-27T11:14:59.642Z</time>
      </trkpt>
      <trkpt lat="41.9334" lon="25.55946">
        <ele>224.75118</ele>
        <time>2022-02-27T11:15:02.679Z</time>
      </trkpt>
      <trkpt lat="41.93343" lon="25.55934">
        <ele>225.388544</ele>
        <time>2022-02-27T11:15:05.657Z</time>
      </trkpt>
      <trkpt lat="41.93347" lon="25.55919">
        <ele>226.184487</ele>
        <time>2022-02-27T11:15:09.693Z</time>
      </trkpt>
      <trkpt lat="41.9335" lon="25.55908">
        <ele>226.812609</ele>
        <time>2022-02-27T11:15:12.656Z</time>
      </trkpt>
      <trkpt lat="41.93355" lon="25.55896">
        <ele>227.262453</ele>
        <time>2022-02-27T11:15:16.698Z</time>
      </trkpt>
      <trkpt lat="41.93364" lon="25.55891">
        <ele>227.262453</ele>
        <time>2022-02-27T11:15:22.682Z</time>
      </trkpt>
      <trkpt lat="41.93372" lon="25.55885">
        <ele>227.262453</ele>
        <time>2022-02-27T11:15:27.680Z</time>
      </trkpt>
      <trkpt lat="41.93379" lon="25.55876">
        <ele>227.262453</ele>
        <time>2022-02-27T11:15:32.694Z</time>
      </trkpt>
      <trkpt lat="41.93367" lon="25.55873">
        <ele>227.262453</ele>
        <time>2022-02-27T11:15:41.676Z</time>
      </trkpt>
      <trkpt lat="41.93358" lon="25.55868">
        <ele>227.262453</ele>
        <time>2022-02-27T11:15:44.684Z</time>
      </trkpt>
      <trkpt lat="41.93359" lon="25.55855">
        <ele>227.262453</ele>
        <time>2022-02-27T11:15:48.672Z</time>
      </trkpt>
      <trkpt lat="41.93363" lon="25.55842">
        <ele>227.262453</ele>
        <time>2022-02-27T11:15:54.656Z</time>
      </trkpt>
      <trkpt lat="41.9336" lon="25.55828">
        <ele>227.262453</ele>
        <time>2022-02-27T11:16:07.654Z</time>
      </trkpt>
      <trkpt lat="41.93363" lon="25.55815">
        <ele>227.262453</ele>
        <time>2022-02-27T11:16:11.661Z</time>
      </trkpt>
      <trkpt lat="41.93367" lon="25.55802">
        <ele>227.262453</ele>
        <time>2022-02-27T11:16:16.625Z</time>
      </trkpt>
      <trkpt lat="41.93371" lon="25.5579">
        <ele>227.262453</ele>
        <time>2022-02-27T11:16:21.636Z</time>
      </trkpt>
      <trkpt lat="41.93382" lon="25.55781">
        <ele>227.262453</ele>
        <time>2022-02-27T11:19:00.871Z</time>
      </trkpt>
    </trkseg>
  </trk>
  <trk>
    <name><![CDATA[Tour d'Europe: étape 608]]></name>
    <extensions>
      <line xmlns="http://www.topografix.com/GPX/gpx_style/0/2">
        <color>880000</color>
        <width>4</width>
      </line>
    </extensions>
    <trkseg>
      <trkpt lat="41.67244" lon="26.5575">
        <ele>92.189913</ele>
        <time>2022-02-26T06:34:58.387Z</time>
      </trkpt>
      <trkpt lat="41.67246" lon="26.55728">
        <ele>92.189913</ele>
        <time>2022-02-26T06:38:43.298Z</time>
      </trkpt>
      <trkpt lat="41.6725" lon="26.55715">
        <ele>92.189913</ele>
        <time>2022-02-26T06:38:46.253Z</time>
      </trkpt>
      <trkpt lat="41.67253" lon="26.55701">
        <ele>92.189913</ele>
        <time>2022-02-26T06:38:49.239Z</time>
      </trkpt>
      <trkpt lat="41.67257" lon="26.55687">
        <ele>92.189913</ele>
        <time>2022-02-26T06:38:52.229Z</time>
      </trkpt>
      <trkpt lat="41.67261" lon="26.55674">
        <ele>92.189913</ele>
        <time>2022-02-26T06:38:55.251Z</time>
      </trkpt>
      <trkpt lat="41.67264" lon="26.55661">
        <ele>92.189913</ele>
        <time>2022-02-26T06:38:58.228Z</time>
      </trkpt>
      <trkpt lat="41.67266" lon="26.55648">
        <ele>92.189913</ele>
        <time>2022-02-26T06:39:01.234Z</time>
      </trkpt>
      <trkpt lat="41.67265" lon="26.55635">
        <ele>92.189913</ele>
        <time>2022-02-26T06:39:04.248Z</time>
      </trkpt>
      <trkpt lat="41.67265" lon="26.55621">
        <ele>91.836049</ele>
        <time>2022-02-26T06:39:07.254Z</time>
      </trkpt>
      <trkpt lat="41.67261" lon="26.55607">
        <ele>91.456935</ele>
        <time>2022-02-26T06:39:11.249Z</time>
      </trkpt>
      <trkpt lat="41.6726" lon="26.55593">
        <ele>91.100375</ele>
        <time>2022-02-26T06:39:15.300Z</time>
      </trkpt>
      <trkpt lat="41.67255" lon="26.55582">
        <ele>90.756803</ele>
        <time>2022-02-26T06:39:19.225Z</time>
      </trkpt>
      <trkpt lat="41.67249" lon="26.55572">
        <ele>90.426213</ele>
        <time>2022-02-26T06:39:22.248Z</time>
      </trkpt>
      <trkpt lat="41.67241" lon="26.55564">
        <ele>90.076925</ele>
        <time>2022-02-26T06:39:27.263Z</time>
      </trkpt>
      <trkpt lat="41.6723" lon="26.55558">
        <ele>89.691363</ele>
        <time>2022-02-26T06:39:31.291Z</time>
      </trkpt>
      <trkpt lat="41.67222" lon="26.5555">
        <ele>89.335456</ele>
        <time>2022-02-26T06:39:35.278Z</time>
      </trkpt>
      <trkpt lat="41.67213" lon="26.55544">
        <ele>88.988515</ele>
        <time>2022-02-26T06:39:38.243Z</time>
      </trkpt>
      <trkpt lat="41.67204" lon="26.55536">
        <ele>88.633987</ele>
        <time>2022-02-26T06:39:42.256Z</time>
      </trkpt>
      <trkpt lat="41.67199" lon="26.55523">
        <ele>88.249573</ele>
        <time>2022-02-26T06:39:47.249Z</time>
      </trkpt>
      <trkpt lat="41.67189" lon="26.55515">
        <ele>87.856108</ele>
        <time>2022-02-26T06:39:51.247Z</time>
      </trkpt>
      <trkpt lat="41.67182" lon="26.55503">
        <ele>87.446426</ele>
        <time>2022-02-26T06:39:55.255Z</time>
      </trkpt>
      <trkpt lat="41.67177" lon="26.5549">
        <ele>87.076894</ele>
        <time>2022-02-26T06:39:59.249Z</time>
      </trkpt>
      <trkpt lat="41.67173" lon="26.55479">
        <ele>86.757919</ele>
        <time>2022-02-26T06:40:02.285Z</time>
      </trkpt>
      <trkpt lat="41.6717" lon="26.55467">
        <ele>86.437673</ele>
        <time>2022-02-26T06:40:05.252Z</time>
      </trkpt>
      <trkpt lat="41.67166" lon="26.55454">
        <ele>86.089834</ele>
        <time>2022-02-26T06:40:08.259Z</time>
      </trkpt>
      <trkpt lat="41.67161" lon="26.55444">
        <ele>85.900942</ele>
        <time>2022-02-26T06:40:11.255Z</time>
      </trkpt>
      <trkpt lat="41.67156" lon="26.55433">
        <ele>85.753516</ele>
        <time>2022-02-26T06:40:14.245Z</time>
      </trkpt>
      <trkpt lat="41.67151" lon="26.55422">
        <ele>85.611678</ele>
        <time>2022-02-26T06:40:17.250Z</time>
      </trkpt>
      <trkpt lat="41.67147" lon="26.5541">
        <ele>85.459835</ele>
        <time>2022-02-26T06:40:20.241Z</time>
      </trkpt>
      <trkpt lat="41.67143" lon="26.55398">
        <ele>85.303579</ele>
        <time>2022-02-26T06:40:23.248Z</time>
      </trkpt>
      <trkpt lat="41.67138" lon="26.55386">
        <ele>85.152092</ele>
        <time>2022-02-26T06:40:26.248Z</time>
      </trkpt>
      <trkpt lat="41.67134" lon="26.55374">
        <ele>85.006329</ele>
        <time>2022-02-26T06:40:29.283Z</time>
      </trkpt>
      <trkpt lat="41.67128" lon="26.55363">
        <ele>84.850903</ele>
        <time>2022-02-26T06:40:33.238Z</time>
      </trkpt>
      <trkpt lat="41.67119" lon="26.55354">
        <ele>84.674651</ele>
        <time>2022-02-26T06:40:37.240Z</time>
      </trkpt>
      <trkpt lat="41.67109" lon="26.55351">
        <ele>84.519619</ele>
        <time>2022-02-26T06:40:40.247Z</time>
      </trkpt>
      <trkpt lat="41.671" lon="26.55348">
        <ele>84.371287</ele>
        <time>2022-02-26T06:40:43.228Z</time>
      </trkpt>
      <trkpt lat="41.67088" lon="26.55346">
        <ele>84.192503</ele>
        <time>2022-02-26T06:40:46.225Z</time>
      </trkpt>
      <trkpt lat="41.67079" lon="26.55346">
        <ele>84.051983</ele>
        <time>2022-02-26T06:40:50.242Z</time>
      </trkpt>
      <trkpt lat="41.67064" lon="26.55347">
        <ele>83.816438</ele>
        <time>2022-02-26T06:44:00.272Z</time>
      </trkpt>
      <trkpt lat="41.67054" lon="26.55356">
        <ele>83.646307</ele>
        <time>2022-02-26T06:44:03.253Z</time>
      </trkpt>
      <trkpt lat="41.67045" lon="26.55366">
        <ele>83.454806</ele>
        <time>2022-02-26T06:44:06.253Z</time>
      </trkpt>
      <trkpt lat="41.67036" lon="26.55376">
        <ele>83.277798</ele>
        <time>2022-02-26T06:44:09.243Z</time>
      </trkpt>
      <trkpt lat="41.67028" lon="26.55388">
        <ele>83.190053</ele>
        <time>2022-02-26T06:44:12.269Z</time>
      </trkpt>
      <trkpt lat="41.6702" lon="26.55401">
        <ele>83.111553</ele>
        <time>2022-02-26T06:44:15.248Z</time>
      </trkpt>
      <trkpt lat="41.67011" lon="26.55414">
        <ele>83.027024</ele>
        <time>2022-02-26T06:44:18.267Z</time>
      </trkpt>
      <trkpt lat="41.67005" lon="26.55424">
        <ele>82.96837</ele>
        <time>2022-02-26T06:44:20.237Z</time>
      </trkpt>
      <trkpt lat="41.66999" lon="26.55433">
        <ele>82.909396</ele>
        <time>2022-02-26T06:44:22.241Z</time>
      </trkpt>
      <trkpt lat="41.66993" lon="26.55442">
        <ele>82.851472</ele>
        <time>2022-02-26T06:44:24.263Z</time>
      </trkpt>
      <trkpt lat="41.66985" lon="26.55448">
        <ele>82.793863</ele>
        <time>2022-02-26T06:44:26.241Z</time>
      </trkpt>
      <trkpt lat="41.66977" lon="26.55453">
        <ele>82.736241</ele>
        <time>2022-02-26T06:44:28.249Z</time>
      </trkpt>
      <trkpt lat="41.66966" lon="26.55461">
        <ele>82.657298</ele>
        <time>2022-02-26T06:44:31.257Z</time>
      </trkpt>
      <trkpt lat="41.66956" lon="26.55469">
        <ele>82.582724</ele>
        <time>2022-02-26T06:44:34.237Z</time>
      </trkpt>
      <trkpt lat="41.66944" lon="26.55475">
        <ele>82.504512</ele>
        <time>2022-02-26T06:44:37.268Z</time>
      </trkpt>
      <trkpt lat="41.66933" lon="26.55475">
        <ele>82.432015</ele>
        <time>2022-02-26T06:44:40.295Z</time>
      </trkpt>
      <trkpt lat="41.66921" lon="26.55473">
        <ele>82.356846</ele>
        <time>2022-02-26T06:44:43.248Z</time>
      </trkpt>
      <trkpt lat="41.66908" lon="26.55472">
        <ele>82.276024</ele>
        <time>2022-02-26T06:44:46.258Z</time>
      </trkpt>
      <trkpt lat="41.66899" lon="26.5547">
        <ele>82.212755</ele>
        <time>2022-02-26T06:44:49.260Z</time>
      </trkpt>
      <trkpt lat="41.66888" lon="26.55468">
        <ele>82.146849</ele>
        <time>2022-02-26T06:44:52.236Z</time>
      </trkpt>
      <trkpt lat="41.66878" lon="26.55466">
        <ele>82.018498</ele>
        <time>2022-02-26T06:44:55.260Z</time>
      </trkpt>
      <trkpt lat="41.66867" lon="26.55464">
        <ele>81.803587</ele>
        <time>2022-02-26T06:44:58.247Z</time>
      </trkpt>
      <trkpt lat="41.66858" lon="26.55461">
        <ele>81.636589</ele>
        <time>2022-02-26T06:45:00.228Z</time>
      </trkpt>
      <trkpt lat="41.66847" lon="26.55456">
        <ele>81.433743</ele>
        <time>2022-02-26T06:45:03.238Z</time>
      </trkpt>
      <trkpt lat="41.66838" lon="26.55449">
        <ele>81.231334</ele>
        <time>2022-02-26T06:45:07.251Z</time>
      </trkpt>
      <trkpt lat="41.66829" lon="26.55444">
        <ele>81.052394</ele>
        <time>2022-02-26T06:45:11.252Z</time>
      </trkpt>
      <trkpt lat="41.6682" lon="26.55438">
        <ele>80.876169</ele>
        <time>2022-02-26T06:45:15.250Z</time>
      </trkpt>
      <trkpt lat="41.6681" lon="26.55432">
        <ele>80.672981</ele>
        <time>2022-02-26T06:45:20.239Z</time>
      </trkpt>
      <trkpt lat="41.66801" lon="26.55427">
        <ele>80.493948</ele>
        <time>2022-02-26T06:45:24.252Z</time>
      </trkpt>
      <trkpt lat="41.66793" lon="26.55421">
        <ele>80.317722</ele>
        <time>2022-02-26T06:45:28.280Z</time>
      </trkpt>
      <trkpt lat="41.66784" lon="26.55416">
        <ele>80.14435</ele>
        <time>2022-02-26T06:45:32.237Z</time>
      </trkpt>
      <trkpt lat="41.66775" lon="26.5541">
        <ele>79.967097</ele>
        <time>2022-02-26T06:45:35.268Z</time>
      </trkpt>
      <trkpt lat="41.66765" lon="26.55405">
        <ele>79.765724</ele>
        <time>2022-02-26T06:45:38.279Z</time>
      </trkpt>
      <trkpt lat="41.66756" lon="26.55399">
        <ele>79.573843</ele>
        <time>2022-02-26T06:45:41.244Z</time>
      </trkpt>
      <trkpt lat="41.66745" lon="26.55393">
        <ele>79.36283</ele>
        <time>2022-02-26T06:45:44.253Z</time>
      </trkpt>
      <trkpt lat="41.66734" lon="26.55387">
        <ele>79.134534</ele>
        <time>2022-02-26T06:45:47.253Z</time>
      </trkpt>
      <trkpt lat="41.66726" lon="26.55381">
        <ele>78.965669</ele>
        <time>2022-02-26T06:45:50.252Z</time>
      </trkpt>
      <trkpt lat="41.66717" lon="26.55377">
        <ele>78.802819</ele>
        <time>2022-02-26T06:45:54.258Z</time>
      </trkpt>
      <trkpt lat="41.66707" lon="26.55373">
        <ele>78.890255</ele>
        <time>2022-02-26T06:45:58.241Z</time>
      </trkpt>
      <trkpt lat="41.66698" lon="26.55369">
        <ele>78.978585</ele>
        <time>2022-02-26T06:46:01.235Z</time>
      </trkpt>
      <trkpt lat="41.66688" lon="26.55365">
        <ele>79.068136</ele>
        <time>2022-02-26T06:46:04.324Z</time>
      </trkpt>
      <trkpt lat="41.66678" lon="26.5536">
        <ele>79.162049</ele>
        <time>2022-02-26T06:46:07.247Z</time>
      </trkpt>
      <trkpt lat="41.66667" lon="26.55355">
        <ele>79.267488</ele>
        <time>2022-02-26T06:46:10.244Z</time>
      </trkpt>
      <trkpt lat="41.66657" lon="26.5535">
        <ele>79.363532</ele>
        <time>2022-02-26T06:46:13.284Z</time>
      </trkpt>
      <trkpt lat="41.66646" lon="26.55346">
        <ele>79.465233</ele>
        <time>2022-02-26T06:46:16.233Z</time>
      </trkpt>
      <trkpt lat="41.66635" lon="26.55341">
        <ele>79.565645</ele>
        <time>2022-02-26T06:46:19.259Z</time>
      </trkpt>
      <trkpt lat="41.66625" lon="26.55336">
        <ele>79.659558</ele>
        <time>2022-02-26T06:46:22.271Z</time>
      </trkpt>
      <trkpt lat="41.66615" lon="26.55333">
        <ele>79.752502</ele>
        <time>2022-02-26T06:46:25.259Z</time>
      </trkpt>
      <trkpt lat="41.66604" lon="26.55329">
        <ele>79.851582</ele>
        <time>2022-02-26T06:46:28.255Z</time>
      </trkpt>
      <trkpt lat="41.66593" lon="26.55323">
        <ele>79.953164</ele>
        <time>2022-02-26T06:46:31.261Z</time>
      </trkpt>
      <trkpt lat="41.66582" lon="26.55316">
        <ele>80.0654</ele>
        <time>2022-02-26T06:46:34.241Z</time>
      </trkpt>
      <trkpt lat="41.66569" lon="26.55311">
        <ele>80.178408</ele>
        <time>2022-02-26T06:46:37.298Z</time>
      </trkpt>
      <trkpt lat="41.66561" lon="26.55307">
        <ele>80.258752</ele>
        <time>2022-02-26T06:46:39.243Z</time>
      </trkpt>
      <trkpt lat="41.66553" lon="26.55302">
        <ele>80.338999</ele>
        <time>2022-02-26T06:46:41.256Z</time>
      </trkpt>
      <trkpt lat="41.66541" lon="26.55297">
        <ele>80.332427</ele>
        <time>2022-02-26T06:46:44.244Z</time>
      </trkpt>
      <trkpt lat="41.66532" lon="26.55294">
        <ele>80.246379</ele>
        <time>2022-02-26T06:46:46.255Z</time>
      </trkpt>
      <trkpt lat="41.66523" lon="26.5529">
        <ele>80.157264</ele>
        <time>2022-02-26T06:46:48.302Z</time>
      </trkpt>
      <trkpt lat="41.66515" lon="26.55285">
        <ele>80.071323</ele>
        <time>2022-02-26T06:46:50.248Z</time>
      </trkpt>
      <trkpt lat="41.66506" lon="26.55279">
        <ele>79.984195</ele>
        <time>2022-02-26T06:46:52.265Z</time>
      </trkpt>
      <trkpt lat="41.66494" lon="26.55273">
        <ele>79.861849</ele>
        <time>2022-02-26T06:46:55.256Z</time>
      </trkpt>
      <trkpt lat="41.66486" lon="26.55269">
        <ele>79.777183</ele>
        <time>2022-02-26T06:46:57.300Z</time>
      </trkpt>
      <trkpt lat="41.66476" lon="26.55265">
        <ele>79.688616</ele>
        <time>2022-02-26T06:46:59.286Z</time>
      </trkpt>
      <trkpt lat="41.66467" lon="26.55262">
        <ele>79.600771</ele>
        <time>2022-02-26T06:47:01.263Z</time>
      </trkpt>
      <trkpt lat="41.66456" lon="26.55258">
        <ele>79.489884</ele>
        <time>2022-02-26T06:47:04.269Z</time>
      </trkpt>
      <trkpt lat="41.66445" lon="26.55254">
        <ele>79.3842</ele>
        <time>2022-02-26T06:47:07.240Z</time>
      </trkpt>
      <trkpt lat="41.66436" lon="26.5525">
        <ele>79.299145</ele>
        <time>2022-02-26T06:47:10.267Z</time>
      </trkpt>
      <trkpt lat="41.66427" lon="26.55247">
        <ele>79.20554</ele>
        <time>2022-02-26T06:47:13.247Z</time>
      </trkpt>
      <trkpt lat="41.66418" lon="26.55244">
        <ele>79.120662</ele>
        <time>2022-02-26T06:47:16.303Z</time>
      </trkpt>
      <trkpt lat="41.66407" lon="26.55239">
        <ele>79.01176</ele>
        <time>2022-02-26T06:47:20.260Z</time>
      </trkpt>
      <trkpt lat="41.66396" lon="26.55235">
        <ele>78.907534</ele>
        <time>2022-02-26T06:47:24.245Z</time>
      </trkpt>
      <trkpt lat="41.66385" lon="26.5523">
        <ele>78.804093</ele>
        <time>2022-02-26T06:47:28.246Z</time>
      </trkpt>
      <trkpt lat="41.66376" lon="26.55226">
        <ele>78.72259</ele>
        <time>2022-02-26T06:47:32.248Z</time>
      </trkpt>
      <trkpt lat="41.66366" lon="26.55222">
        <ele>78.895114</ele>
        <time>2022-02-26T06:47:36.245Z</time>
      </trkpt>
      <trkpt lat="41.66356" lon="26.55218">
        <ele>79.065222</ele>
        <time>2022-02-26T06:47:40.250Z</time>
      </trkpt>
      <trkpt lat="41.66346" lon="26.55214">
        <ele>79.22606</ele>
        <time>2022-02-26T06:47:44.243Z</time>
      </trkpt>
      <trkpt lat="41.66338" lon="26.5521">
        <ele>79.374023</ele>
        <time>2022-02-26T06:47:47.254Z</time>
      </trkpt>
      <trkpt lat="41.66328" lon="26.55207">
        <ele>79.535416</ele>
        <time>2022-02-26T06:47:50.286Z</time>
      </trkpt>
      <trkpt lat="41.66318" lon="26.55203">
        <ele>79.701872</ele>
        <time>2022-02-26T06:47:53.268Z</time>
      </trkpt>
      <trkpt lat="41.66308" lon="26.55199">
        <ele>79.877203</ele>
        <time>2022-02-26T06:47:56.244Z</time>
      </trkpt>
      <trkpt lat="41.66297" lon="26.55195">
        <ele>80.062843</ele>
        <time>2022-02-26T06:47:59.247Z</time>
      </trkpt>
      <trkpt lat="41.66286" lon="26.55189">
        <ele>80.257018</ele>
        <time>2022-02-26T06:48:02.248Z</time>
      </trkpt>
      <trkpt lat="41.66275" lon="26.55184">
        <ele>80.441518</ele>
        <time>2022-02-26T06:48:05.265Z</time>
      </trkpt>
      <trkpt lat="41.66264" lon="26.55179">
        <ele>80.640759</ele>
        <time>2022-02-26T06:48:08.264Z</time>
      </trkpt>
      <trkpt lat="41.66253" lon="26.55175">
        <ele>80.83195</ele>
        <time>2022-02-26T06:48:11.256Z</time>
      </trkpt>
      <trkpt lat="41.66244" lon="26.55168">
        <ele>81.006355</ele>
        <time>2022-02-26T06:48:15.260Z</time>
      </trkpt>
      <trkpt lat="41.66242" lon="26.55154">
        <ele>81.176573</ele>
        <time>2022-02-26T06:48:20.263Z</time>
      </trkpt>
      <trkpt lat="41.66238" lon="26.55139">
        <ele>81.375034</ele>
        <time>2022-02-26T06:48:24.264Z</time>
      </trkpt>
      <trkpt lat="41.66236" lon="26.55126">
        <ele>81.526336</ele>
        <time>2022-02-26T06:48:27.255Z</time>
      </trkpt>
      <trkpt lat="41.66233" lon="26.55113">
        <ele>81.702014</ele>
        <time>2022-02-26T06:48:31.235Z</time>
      </trkpt>
      <trkpt lat="41.6623" lon="26.55099">
        <ele>81.933079</ele>
        <time>2022-02-26T06:48:35.279Z</time>
      </trkpt>
      <trkpt lat="41.66227" lon="26.55087">
        <ele>82.127311</ele>
        <time>2022-02-26T06:48:38.253Z</time>
      </trkpt>
      <trkpt lat="41.66224" lon="26.55073">
        <ele>82.34951</ele>
        <time>2022-02-26T06:48:41.242Z</time>
      </trkpt>
      <trkpt lat="41.66221" lon="26.55059">
        <ele>82.57559</ele>
        <time>2022-02-26T06:48:44.254Z</time>
      </trkpt>
      <trkpt lat="41.66218" lon="26.55046">
        <ele>82.78577</ele>
        <time>2022-02-26T06:48:47.246Z</time>
      </trkpt>
      <trkpt lat="41.66215" lon="26.55032">
        <ele>83.00485</ele>
        <time>2022-02-26T06:48:50.265Z</time>
      </trkpt>
      <trkpt lat="41.66212" lon="26.55017">
        <ele>83.244722</ele>
        <time>2022-02-26T06:48:54.249Z</time>
      </trkpt>
      <trkpt lat="41.66208" lon="26.55003">
        <ele>83.476468</ele>
        <time>2022-02-26T06:48:57.246Z</time>
      </trkpt>
      <trkpt lat="41.66204" lon="26.54991">
        <ele>83.684161</ele>
        <time>2022-02-26T06:49:00.258Z</time>
      </trkpt>
      <trkpt lat="41.662" lon="26.54979">
        <ele>83.881999</ele>
        <time>2022-02-26T06:49:03.251Z</time>
      </trkpt>
      <trkpt lat="41.66197" lon="26.54967">
        <ele>84.073345</ele>
        <time>2022-02-26T06:49:06.254Z</time>
      </trkpt>
      <trkpt lat="41.66194" lon="26.54954">
        <ele>84.289227</ele>
        <time>2022-02-26T06:49:09.250Z</time>
      </trkpt>
      <trkpt lat="41.6619" lon="26.54942">
        <ele>84.486566</ele>
        <time>2022-02-26T06:49:12.299Z</time>
      </trkpt>
      <trkpt lat="41.66186" lon="26.54929">
        <ele>84.690201</ele>
        <time>2022-02-26T06:49:15.239Z</time>
      </trkpt>
      <trkpt lat="41.66183" lon="26.54917">
        <ele>84.898834</ele>
        <time>2022-02-26T06:49:18.259Z</time>
      </trkpt>
      <trkpt lat="41.6618" lon="26.54903">
        <ele>85.115139</ele>
        <time>2022-02-26T06:49:21.244Z</time>
      </trkpt>
      <trkpt lat="41.66177" lon="26.54891">
        <ele>85.314971</ele>
        <time>2022-02-26T06:49:24.255Z</time>
      </trkpt>
      <trkpt lat="41.66174" lon="26.54879">
        <ele>85.625339</ele>
        <time>2022-02-26T06:49:27.247Z</time>
      </trkpt>
      <trkpt lat="41.6617" lon="26.54867">
        <ele>86.004903</ele>
        <time>2022-02-26T06:49:30.237Z</time>
      </trkpt>
      <trkpt lat="41.66165" lon="26.54852">
        <ele>86.462959</ele>
        <time>2022-02-26T06:49:34.268Z</time>
      </trkpt>
      <trkpt lat="41.66162" lon="26.5484">
        <ele>86.819879</ele>
        <time>2022-02-26T06:49:37.615Z</time>
      </trkpt>
      <trkpt lat="41.66158" lon="26.54826">
        <ele>87.255052</ele>
        <time>2022-02-26T06:49:41.235Z</time>
      </trkpt>
      <trkpt lat="41.66154" lon="26.54814">
        <ele>87.630565</ele>
        <time>2022-02-26T06:49:45.261Z</time>
      </trkpt>
      <trkpt lat="41.6615" lon="26.54803">
        <ele>87.974789</ele>
        <time>2022-02-26T06:49:50.311Z</time>
      </trkpt>
      <trkpt lat="41.6615" lon="26.54817">
        <ele>88.368894</ele>
        <time>2022-02-26T06:50:00.252Z</time>
      </trkpt>
      <trkpt lat="41.66151" lon="26.54829">
        <ele>88.715652</ele>
        <time>2022-02-26T06:50:07.260Z</time>
      </trkpt>
      <trkpt lat="41.66154" lon="26.54841">
        <ele>89.056704</ele>
        <time>2022-02-26T06:50:14.247Z</time>
      </trkpt>
      <trkpt lat="41.66158" lon="26.54829">
        <ele>89.420605</ele>
        <time>2022-02-26T06:50:26.242Z</time>
      </trkpt>
      <trkpt lat="41.66152" lon="26.54817">
        <ele>89.824658</ele>
        <time>2022-02-26T06:50:32.261Z</time>
      </trkpt>
      <trkpt lat="41.66152" lon="26.54794">
        <ele>90.481728</ele>
        <time>2022-02-26T06:56:11.297Z</time>
      </trkpt>
      <trkpt lat="41.6615" lon="26.54782">
        <ele>90.834403</ele>
        <time>2022-02-26T06:56:15.243Z</time>
      </trkpt>
      <trkpt lat="41.66145" lon="26.54769">
        <ele>91.238584</ele>
        <time>2022-02-26T06:56:19.245Z</time>
      </trkpt>
      <trkpt lat="41.66141" lon="26.54756">
        <ele>91.628654</ele>
        <time>2022-02-26T06:56:23.249Z</time>
      </trkpt>
      <trkpt lat="41.66137" lon="26.54742">
        <ele>92.04688</ele>
        <time>2022-02-26T06:56:27.265Z</time>
      </trkpt>
      <trkpt lat="41.66134" lon="26.54728">
        <ele>92.130247</ele>
        <time>2022-02-26T06:56:31.249Z</time>
      </trkpt>
      <trkpt lat="41.6613" lon="26.54715">
        <ele>92.074196</ele>
        <time>2022-02-26T06:56:34.252Z</time>
      </trkpt>
      <trkpt lat="41.66127" lon="26.54701">
        <ele>92.011607</ele>
        <time>2022-02-26T06:56:37.247Z</time>
      </trkpt>
      <trkpt lat="41.66123" lon="26.54688">
        <ele>91.950401</ele>
        <time>2022-02-26T06:56:40.226Z</time>
      </trkpt>
      <trkpt lat="41.66119" lon="26.54675">
        <ele>91.893528</ele>
        <time>2022-02-26T06:56:43.259Z</time>
      </trkpt>
      <trkpt lat="41.66116" lon="26.54663">
        <ele>91.839859</ele>
        <time>2022-02-26T06:56:46.239Z</time>
      </trkpt>
      <trkpt lat="41.66113" lon="26.5465">
        <ele>91.782703</ele>
        <time>2022-02-26T06:56:49.256Z</time>
      </trkpt>
      <trkpt lat="41.66109" lon="26.54637">
        <ele>91.722373</ele>
        <time>2022-02-26T06:56:52.261Z</time>
      </trkpt>
      <trkpt lat="41.66106" lon="26.54624">
        <ele>91.663553</ele>
        <time>2022-02-26T06:56:55.271Z</time>
      </trkpt>
      <trkpt lat="41.66103" lon="26.5461">
        <ele>91.601059</ele>
        <time>2022-02-26T06:56:58.248Z</time>
      </trkpt>
      <trkpt lat="41.661" lon="26.54597">
        <ele>91.543638</ele>
        <time>2022-02-26T06:57:01.274Z</time>
      </trkpt>
      <trkpt lat="41.66096" lon="26.54585">
        <ele>91.489758</ele>
        <time>2022-02-26T06:57:04.260Z</time>
      </trkpt>
      <trkpt lat="41.66093" lon="26.54574">
        <ele>91.438627</ele>
        <time>2022-02-26T06:57:07.250Z</time>
      </trkpt>
      <trkpt lat="41.6609" lon="26.54562">
        <ele>91.386308</ele>
        <time>2022-02-26T06:57:10.237Z</time>
      </trkpt>
      <trkpt lat="41.66086" lon="26.5455">
        <ele>91.329907</ele>
        <time>2022-02-26T06:57:13.260Z</time>
      </trkpt>
      <trkpt lat="41.66084" lon="26.54538">
        <ele>91.278467</ele>
        <time>2022-02-26T06:57:16.260Z</time>
      </trkpt>
      <trkpt lat="41.66081" lon="26.54526">
        <ele>91.224919</ele>
        <time>2022-02-26T06:57:19.255Z</time>
      </trkpt>
      <trkpt lat="41.66078" lon="26.54514">
        <ele>91.173028</ele>
        <time>2022-02-26T06:57:22.264Z</time>
      </trkpt>
      <trkpt lat="41.66074" lon="26.54503">
        <ele>91.085888</ele>
        <time>2022-02-26T06:57:26.264Z</time>
      </trkpt>
      <trkpt lat="41.66071" lon="26.54488">
        <ele>90.972614</ele>
        <time>2022-02-26T06:57:30.293Z</time>
      </trkpt>
      <trkpt lat="41.66067" lon="26.54473">
        <ele>90.853913</ele>
        <time>2022-02-26T06:57:34.271Z</time>
      </trkpt>
      <trkpt lat="41.66063" lon="26.5446">
        <ele>90.740188</ele>
        <time>2022-02-26T06:57:37.260Z</time>
      </trkpt>
      <trkpt lat="41.66058" lon="26.54444">
        <ele>90.610427</ele>
        <time>2022-02-26T06:57:40.246Z</time>
      </trkpt>
      <trkpt lat="41.66054" lon="26.5443">
        <ele>90.494327</ele>
        <time>2022-02-26T06:57:43.235Z</time>
      </trkpt>
      <trkpt lat="41.66051" lon="26.54417">
        <ele>90.387449</ele>
        <time>2022-02-26T06:57:46.253Z</time>
      </trkpt>
      <trkpt lat="41.66048" lon="26.54404">
        <ele>90.291143</ele>
        <time>2022-02-26T06:57:49.242Z</time>
      </trkpt>
      <trkpt lat="41.66046" lon="26.54393">
        <ele>90.198612</ele>
        <time>2022-02-26T06:57:52.243Z</time>
      </trkpt>
      <trkpt lat="41.66042" lon="26.54379">
        <ele>90.086436</ele>
        <time>2022-02-26T06:57:55.273Z</time>
      </trkpt>
      <trkpt lat="41.66037" lon="26.54367">
        <ele>89.983299</ele>
        <time>2022-02-26T06:57:58.293Z</time>
      </trkpt>
      <trkpt lat="41.66035" lon="26.54354">
        <ele>89.884507</ele>
        <time>2022-02-26T06:58:01.231Z</time>
      </trkpt>
      <trkpt lat="41.66032" lon="26.54341">
        <ele>89.78234</ele>
        <time>2022-02-26T06:58:04.251Z</time>
      </trkpt>
      <trkpt lat="41.66028" lon="26.54327">
        <ele>89.669087</ele>
        <time>2022-02-26T06:58:07.235Z</time>
      </trkpt>
      <trkpt lat="41.66024" lon="26.54312">
        <ele>89.54656</ele>
        <time>2022-02-26T06:58:10.255Z</time>
      </trkpt>
      <trkpt lat="41.66021" lon="26.54298">
        <ele>89.429058</ele>
        <time>2022-02-26T06:58:13.305Z</time>
      </trkpt>
      <trkpt lat="41.66018" lon="26.54283">
        <ele>89.310313</ele>
        <time>2022-02-26T06:58:16.263Z</time>
      </trkpt>
      <trkpt lat="41.66014" lon="26.54268">
        <ele>89.157553</ele>
        <time>2022-02-26T06:58:19.251Z</time>
      </trkpt>
      <trkpt lat="41.66012" lon="26.54255">
        <ele>89.029694</ele>
        <time>2022-02-26T06:58:22.257Z</time>
      </trkpt>
      <trkpt lat="41.66008" lon="26.54243">
        <ele>88.896613</ele>
        <time>2022-02-26T06:58:25.272Z</time>
      </trkpt>
      <trkpt lat="41.66006" lon="26.54231">
        <ele>88.779777</ele>
        <time>2022-02-26T06:58:28.217Z</time>
      </trkpt>
      <trkpt lat="41.66003" lon="26.54218">
        <ele>88.647555</ele>
        <time>2022-02-26T06:58:31.314Z</time>
      </trkpt>
      <trkpt lat="41.65999" lon="26.54204">
        <ele>88.508844</ele>
        <time>2022-02-26T06:58:34.245Z</time>
      </trkpt>
      <trkpt lat="41.65997" lon="26.54191">
        <ele>88.380225</ele>
        <time>2022-02-26T06:58:37.250Z</time>
      </trkpt>
      <trkpt lat="41.65996" lon="26.54178">
        <ele>88.248464</ele>
        <time>2022-02-26T06:58:40.247Z</time>
      </trkpt>
      <trkpt lat="41.65993" lon="26.54164">
        <ele>88.110018</ele>
        <time>2022-02-26T06:58:43.249Z</time>
      </trkpt>
      <trkpt lat="41.65989" lon="26.54151">
        <ele>87.972191</ele>
        <time>2022-02-26T06:58:46.248Z</time>
      </trkpt>
      <trkpt lat="41.65984" lon="26.54138">
        <ele>87.824714</ele>
        <time>2022-02-26T06:58:49.260Z</time>
      </trkpt>
      <trkpt lat="41.65979" lon="26.54125">
        <ele>87.689705</ele>
        <time>2022-02-26T06:58:52.245Z</time>
      </trkpt>
      <trkpt lat="41.65973" lon="26.54112">
        <ele>87.542013</ele>
        <time>2022-02-26T06:58:55.254Z</time>
      </trkpt>
      <trkpt lat="41.65969" lon="26.54098">
        <ele>87.39498</ele>
        <time>2022-02-26T06:58:59.253Z</time>
      </trkpt>
      <trkpt lat="41.65967" lon="26.54086">
        <ele>87.276457</ele>
        <time>2022-02-26T06:59:02.252Z</time>
      </trkpt>
      <trkpt lat="41.65962" lon="26.54072">
        <ele>87.122604</ele>
        <time>2022-02-26T06:59:05.280Z</time>
      </trkpt>
      <trkpt lat="41.65957" lon="26.54056">
        <ele>87.013327</ele>
        <time>2022-02-26T06:59:08.265Z</time>
      </trkpt>
      <trkpt lat="41.65953" lon="26.54041">
        <ele>87.156672</ele>
        <time>2022-02-26T06:59:11.250Z</time>
      </trkpt>
      <trkpt lat="41.6595" lon="26.54028">
        <ele>87.292076</ele>
        <time>2022-02-26T06:59:14.258Z</time>
      </trkpt>
      <trkpt lat="41.65945" lon="26.54014">
        <ele>87.432939</ele>
        <time>2022-02-26T06:59:17.267Z</time>
      </trkpt>
      <trkpt lat="41.65941" lon="26.54">
        <ele>87.567902</ele>
        <time>2022-02-26T06:59:20.254Z</time>
      </trkpt>
      <trkpt lat="41.65938" lon="26.53986">
        <ele>87.707024</ele>
        <time>2022-02-26T06:59:23.243Z</time>
      </trkpt>
      <trkpt lat="41.65935" lon="26.53971">
        <ele>87.854416</ele>
        <time>2022-02-26T06:59:26.254Z</time>
      </trkpt>
      <trkpt lat="41.65931" lon="26.53956">
        <ele>87.998908</ele>
        <time>2022-02-26T06:59:29.230Z</time>
      </trkpt>
      <trkpt lat="41.65927" lon="26.53942">
        <ele>88.142634</ele>
        <time>2022-02-26T06:59:32.240Z</time>
      </trkpt>
      <trkpt lat="41.65923" lon="26.53929">
        <ele>88.26985</ele>
        <time>2022-02-26T06:59:35.245Z</time>
      </trkpt>
      <trkpt lat="41.65919" lon="26.53917">
        <ele>88.401347</ele>
        <time>2022-02-26T06:59:38.295Z</time>
      </trkpt>
      <trkpt lat="41.65916" lon="26.53904">
        <ele>88.529902</ele>
        <time>2022-02-26T06:59:41.243Z</time>
      </trkpt>
      <trkpt lat="41.65913" lon="26.53891">
        <ele>88.655231</ele>
        <time>2022-02-26T06:59:44.252Z</time>
      </trkpt>
      <trkpt lat="41.6591" lon="26.53875">
        <ele>88.810515</ele>
        <time>2022-02-26T06:59:47.263Z</time>
      </trkpt>
      <trkpt lat="41.65906" lon="26.53859">
        <ele>88.964527</ele>
        <time>2022-02-26T06:59:50.239Z</time>
      </trkpt>
      <trkpt lat="41.65902" lon="26.53846">
        <ele>89.099128</ele>
        <time>2022-02-26T06:59:53.254Z</time>
      </trkpt>
      <trkpt lat="41.65897" lon="26.53835">
        <ele>89.218656</ele>
        <time>2022-02-26T06:59:57.268Z</time>
      </trkpt>
      <trkpt lat="41.65892" lon="26.53822">
        <ele>88.93236</ele>
        <time>2022-02-26T07:00:01.275Z</time>
      </trkpt>
      <trkpt lat="41.6589" lon="26.53809">
        <ele>88.617985</ele>
        <time>2022-02-26T07:00:05.255Z</time>
      </trkpt>
      <trkpt lat="41.65889" lon="26.53796">
        <ele>88.267798</ele>
        <time>2022-02-26T07:00:09.248Z</time>
      </trkpt>
      <trkpt lat="41.65886" lon="26.53783">
        <ele>87.956682</ele>
        <time>2022-02-26T07:00:12.245Z</time>
      </trkpt>
      <trkpt lat="41.65883" lon="26.53772">
        <ele>87.646702</ele>
        <time>2022-02-26T07:00:15.258Z</time>
      </trkpt>
      <trkpt lat="41.65879" lon="26.53759">
        <ele>87.31008</ele>
        <time>2022-02-26T07:00:18.297Z</time>
      </trkpt>
      <trkpt lat="41.65876" lon="26.53746">
        <ele>86.962967</ele>
        <time>2022-02-26T07:00:21.248Z</time>
      </trkpt>
      <trkpt lat="41.65871" lon="26.53735">
        <ele>86.645589</ele>
        <time>2022-02-26T07:00:24.271Z</time>
      </trkpt>
      <trkpt lat="41.65869" lon="26.53722">
        <ele>86.318525</ele>
        <time>2022-02-26T07:00:28.240Z</time>
      </trkpt>
      <trkpt lat="41.65865" lon="26.53709">
        <ele>85.972579</ele>
        <time>2022-02-26T07:00:32.242Z</time>
      </trkpt>
      <trkpt lat="41.65864" lon="26.53696">
        <ele>85.647363</ele>
        <time>2022-02-26T07:00:35.264Z</time>
      </trkpt>
      <trkpt lat="41.65861" lon="26.53683">
        <ele>85.315888</ele>
        <time>2022-02-26T07:00:38.251Z</time>
      </trkpt>
      <trkpt lat="41.65857" lon="26.53671">
        <ele>84.992023</ele>
        <time>2022-02-26T07:00:41.239Z</time>
      </trkpt>
      <trkpt lat="41.65854" lon="26.53656">
        <ele>84.602133</ele>
        <time>2022-02-26T07:00:45.236Z</time>
      </trkpt>
      <trkpt lat="41.65849" lon="26.53644">
        <ele>84.261318</ele>
        <time>2022-02-26T07:00:49.230Z</time>
      </trkpt>
      <trkpt lat="41.65845" lon="26.53631">
        <ele>83.920055</ele>
        <time>2022-02-26T07:00:53.273Z</time>
      </trkpt>
      <trkpt lat="41.65842" lon="26.5362">
        <ele>83.621736</ele>
        <time>2022-02-26T07:00:56.260Z</time>
      </trkpt>
      <trkpt lat="41.65839" lon="26.53606">
        <ele>83.271731</ele>
        <time>2022-02-26T07:01:00.257Z</time>
      </trkpt>
      <trkpt lat="41.65834" lon="26.53593">
        <ele>83.112947</ele>
        <time>2022-02-26T07:01:04.266Z</time>
      </trkpt>
      <trkpt lat="41.65831" lon="26.53581">
        <ele>82.979394</ele>
        <time>2022-02-26T07:01:07.246Z</time>
      </trkpt>
      <trkpt lat="41.65827" lon="26.53567">
        <ele>82.822688</ele>
        <time>2022-02-26T07:01:10.253Z</time>
      </trkpt>
      <trkpt lat="41.65824" lon="26.53555">
        <ele>82.687132</ele>
        <time>2022-02-26T07:01:13.285Z</time>
      </trkpt>
      <trkpt lat="41.65822" lon="26.53539">
        <ele>82.51947</ele>
        <time>2022-02-26T07:01:17.279Z</time>
      </trkpt>
      <trkpt lat="41.65819" lon="26.53527">
        <ele>82.381329</ele>
        <time>2022-02-26T07:01:20.263Z</time>
      </trkpt>
      <trkpt lat="41.65815" lon="26.53513">
        <ele>82.224516</ele>
        <time>2022-02-26T07:01:23.283Z</time>
      </trkpt>
      <trkpt lat="41.65811" lon="26.53499">
        <ele>82.074178</ele>
        <time>2022-02-26T07:01:26.240Z</time>
      </trkpt>
      <trkpt lat="41.65808" lon="26.53487">
        <ele>81.936716</ele>
        <time>2022-02-26T07:01:29.297Z</time>
      </trkpt>
      <trkpt lat="41.65804" lon="26.53474">
        <ele>81.791379</ele>
        <time>2022-02-26T07:01:32.249Z</time>
      </trkpt>
      <trkpt lat="41.65801" lon="26.53459">
        <ele>81.625807</ele>
        <time>2022-02-26T07:01:36.285Z</time>
      </trkpt>
      <trkpt lat="41.65799" lon="26.53446">
        <ele>81.487547</ele>
        <time>2022-02-26T07:01:39.248Z</time>
      </trkpt>
      <trkpt lat="41.65796" lon="26.53434">
        <ele>81.354065</ele>
        <time>2022-02-26T07:01:42.260Z</time>
      </trkpt>
      <trkpt lat="41.65791" lon="26.53421">
        <ele>81.202589</ele>
        <time>2022-02-26T07:01:46.245Z</time>
      </trkpt>
      <trkpt lat="41.65787" lon="26.53408">
        <ele>81.045989</ele>
        <time>2022-02-26T07:01:49.263Z</time>
      </trkpt>
      <trkpt lat="41.65782" lon="26.53394">
        <ele>80.886661</ele>
        <time>2022-02-26T07:01:52.287Z</time>
      </trkpt>
      <trkpt lat="41.65778" lon="26.53382">
        <ele>80.749649</ele>
        <time>2022-02-26T07:01:55.271Z</time>
      </trkpt>
      <trkpt lat="41.65775" lon="26.5337">
        <ele>80.643403</ele>
        <time>2022-02-26T07:01:58.255Z</time>
      </trkpt>
      <trkpt lat="41.65773" lon="26.53354">
        <ele>80.522468</ele>
        <time>2022-02-26T07:02:02.266Z</time>
      </trkpt>
      <trkpt lat="41.65769" lon="26.5334">
        <ele>80.407519</ele>
        <time>2022-02-26T07:02:06.262Z</time>
      </trkpt>
      <trkpt lat="41.65766" lon="26.53328">
        <ele>80.312461</ele>
        <time>2022-02-26T07:02:09.306Z</time>
      </trkpt>
      <trkpt lat="41.65763" lon="26.53315">
        <ele>80.206236</ele>
        <time>2022-02-26T07:02:12.242Z</time>
      </trkpt>
      <trkpt lat="41.6576" lon="26.53301">
        <ele>80.090626</ele>
        <time>2022-02-26T07:02:15.248Z</time>
      </trkpt>
      <trkpt lat="41.65756" lon="26.53289">
        <ele>79.988358</ele>
        <time>2022-02-26T07:02:18.260Z</time>
      </trkpt>
      <trkpt lat="41.65753" lon="26.53277">
        <ele>79.892864</ele>
        <time>2022-02-26T07:02:21.260Z</time>
      </trkpt>
      <trkpt lat="41.6575" lon="26.53264">
        <ele>79.790885</ele>
        <time>2022-02-26T07:02:24.257Z</time>
      </trkpt>
      <trkpt lat="41.65747" lon="26.53252">
        <ele>79.693807</ele>
        <time>2022-02-26T07:02:27.241Z</time>
      </trkpt>
      <trkpt lat="41.65745" lon="26.5324">
        <ele>79.601763</ele>
        <time>2022-02-26T07:02:30.258Z</time>
      </trkpt>
      <trkpt lat="41.65743" lon="26.53228">
        <ele>79.499792</ele>
        <time>2022-02-26T07:02:34.247Z</time>
      </trkpt>
      <trkpt lat="41.65738" lon="26.53215">
        <ele>79.392872</ele>
        <time>2022-02-26T07:02:38.249Z</time>
      </trkpt>
      <trkpt lat="41.65734" lon="26.53204">
        <ele>79.299058</ele>
        <time>2022-02-26T07:02:41.263Z</time>
      </trkpt>
      <trkpt lat="41.6573" lon="26.5319">
        <ele>79.184823</ele>
        <time>2022-02-26T07:02:45.255Z</time>
      </trkpt>
      <trkpt lat="41.65726" lon="26.53175">
        <ele>79.057838</ele>
        <time>2022-02-26T07:02:49.261Z</time>
      </trkpt>
      <trkpt lat="41.65723" lon="26.53162">
        <ele>78.954478</ele>
        <time>2022-02-26T07:02:52.255Z</time>
      </trkpt>
      <trkpt lat="41.65719" lon="26.5315">
        <ele>78.858395</ele>
        <time>2022-02-26T07:02:55.252Z</time>
      </trkpt>
      <trkpt lat="41.65716" lon="26.53139">
        <ele>78.776008</ele>
        <time>2022-02-26T07:02:58.287Z</time>
      </trkpt>
      <trkpt lat="41.65713" lon="26.53125">
        <ele>78.683114</ele>
        <time>2022-02-26T07:03:01.255Z</time>
      </trkpt>
      <trkpt lat="41.65708" lon="26.53113">
        <ele>78.588893</ele>
        <time>2022-02-26T07:03:04.275Z</time>
      </trkpt>
      <trkpt lat="41.65705" lon="26.53101">
        <ele>78.502267</ele>
        <time>2022-02-26T07:03:07.245Z</time>
      </trkpt>
      <trkpt lat="41.65701" lon="26.53089">
        <ele>78.417679</ele>
        <time>2022-02-26T07:03:10.297Z</time>
      </trkpt>
      <trkpt lat="41.65698" lon="26.53077">
        <ele>78.334559</ele>
        <time>2022-02-26T07:03:13.260Z</time>
      </trkpt>
      <trkpt lat="41.65694" lon="26.53063">
        <ele>78.230778</ele>
        <time>2022-02-26T07:03:17.248Z</time>
      </trkpt>
      <trkpt lat="41.65691" lon="26.5305">
        <ele>78.140206</ele>
        <time>2022-02-26T07:03:20.237Z</time>
      </trkpt>
      <trkpt lat="41.65687" lon="26.53038">
        <ele>78.050267</ele>
        <time>2022-02-26T07:03:23.249Z</time>
      </trkpt>
      <trkpt lat="41.65681" lon="26.53028">
        <ele>77.961797</ele>
        <time>2022-02-26T07:03:26.283Z</time>
      </trkpt>
      <trkpt lat="41.65674" lon="26.53016">
        <ele>77.857989</ele>
        <time>2022-02-26T07:03:29.235Z</time>
      </trkpt>
      <trkpt lat="41.65669" lon="26.53001">
        <ele>77.75354</ele>
        <time>2022-02-26T07:03:32.247Z</time>
      </trkpt>
      <trkpt lat="41.65665" lon="26.52989">
        <ele>77.666914</ele>
        <time>2022-02-26T07:03:35.263Z</time>
      </trkpt>
      <trkpt lat="41.65661" lon="26.52975">
        <ele>77.563143</ele>
        <time>2022-02-26T07:03:39.263Z</time>
      </trkpt>
      <trkpt lat="41.65657" lon="26.52961">
        <ele>77.459361</ele>
        <time>2022-02-26T07:03:43.328Z</time>
      </trkpt>
      <trkpt lat="41.65654" lon="26.52946">
        <ele>77.357416</ele>
        <time>2022-02-26T07:03:47.273Z</time>
      </trkpt>
      <trkpt lat="41.6565" lon="26.52932">
        <ele>77.268536</ele>
        <time>2022-02-26T07:03:51.254Z</time>
      </trkpt>
      <trkpt lat="41.65647" lon="26.5292">
        <ele>77.389924</ele>
        <time>2022-02-26T07:03:55.269Z</time>
      </trkpt>
      <trkpt lat="41.65644" lon="26.52907">
        <ele>77.519206</ele>
        <time>2022-02-26T07:03:59.284Z</time>
      </trkpt>
      <trkpt lat="41.6564" lon="26.52895">
        <ele>77.640624</ele>
        <time>2022-02-26T07:04:03.269Z</time>
      </trkpt>
      <trkpt lat="41.65636" lon="26.52883">
        <ele>77.762911</ele>
        <time>2022-02-26T07:04:07.259Z</time>
      </trkpt>
      <trkpt lat="41.65633" lon="26.52871">
        <ele>77.884409</ele>
        <time>2022-02-26T07:04:11.296Z</time>
      </trkpt>
      <trkpt lat="41.6563" lon="26.52858">
        <ele>78.011557</ele>
        <time>2022-02-26T07:04:15.271Z</time>
      </trkpt>
      <trkpt lat="41.65626" lon="26.52844">
        <ele>78.155394</ele>
        <time>2022-02-26T07:04:19.267Z</time>
      </trkpt>
      <trkpt lat="41.65623" lon="26.52828">
        <ele>78.306663</ele>
        <time>2022-02-26T07:04:23.255Z</time>
      </trkpt>
      <trkpt lat="41.6562" lon="26.52816">
        <ele>78.42906</ele>
        <time>2022-02-26T07:04:26.242Z</time>
      </trkpt>
      <trkpt lat="41.65616" lon="26.52802">
        <ele>78.568948</ele>
        <time>2022-02-26T07:04:29.275Z</time>
      </trkpt>
      <trkpt lat="41.65613" lon="26.52786">
        <ele>78.726723</ele>
        <time>2022-02-26T07:04:32.279Z</time>
      </trkpt>
      <trkpt lat="41.65609" lon="26.52774">
        <ele>78.844975</ele>
        <time>2022-02-26T07:04:34.265Z</time>
      </trkpt>
      <trkpt lat="41.65606" lon="26.52762">
        <ele>78.964111</ele>
        <time>2022-02-26T07:04:36.279Z</time>
      </trkpt>
      <trkpt lat="41.65601" lon="26.52745">
        <ele>79.141489</ele>
        <time>2022-02-26T07:04:39.288Z</time>
      </trkpt>
      <trkpt lat="41.65598" lon="26.52733">
        <ele>79.258117</ele>
        <time>2022-02-26T07:04:41.837Z</time>
      </trkpt>
      <trkpt lat="41.65596" lon="26.5272">
        <ele>79.379438</ele>
        <time>2022-02-26T07:04:43.249Z</time>
      </trkpt>
      <trkpt lat="41.65593" lon="26.52709">
        <ele>79.495169</ele>
        <time>2022-02-26T07:04:45.260Z</time>
      </trkpt>
      <trkpt lat="41.65589" lon="26.52694">
        <ele>79.953527</ele>
        <time>2022-02-26T07:04:48.256Z</time>
      </trkpt>
      <trkpt lat="41.65585" lon="26.52679">
        <ele>80.479165</ele>
        <time>2022-02-26T07:04:51.249Z</time>
      </trkpt>
      <trkpt lat="41.65581" lon="26.52666">
        <ele>80.965547</ele>
        <time>2022-02-26T07:04:54.262Z</time>
      </trkpt>
      <trkpt lat="41.65575" lon="26.52655">
        <ele>81.451136</ele>
        <time>2022-02-26T07:04:58.238Z</time>
      </trkpt>
      <trkpt lat="41.65568" lon="26.52647">
        <ele>81.881418</ele>
        <time>2022-02-26T07:05:02.231Z</time>
      </trkpt>
      <trkpt lat="41.65559" lon="26.5264">
        <ele>82.3272</ele>
        <time>2022-02-26T07:05:07.245Z</time>
      </trkpt>
      <trkpt lat="41.65552" lon="26.52631">
        <ele>82.766225</ele>
        <time>2022-02-26T07:05:12.277Z</time>
      </trkpt>
      <trkpt lat="41.65546" lon="26.52623">
        <ele>83.181899</ele>
        <time>2022-02-26T07:05:16.276Z</time>
      </trkpt>
      <trkpt lat="41.6554" lon="26.52613">
        <ele>83.604948</ele>
        <time>2022-02-26T07:05:20.238Z</time>
      </trkpt>
      <trkpt lat="41.65532" lon="26.52604">
        <ele>84.094095</ele>
        <time>2022-02-26T07:05:24.278Z</time>
      </trkpt>
      <trkpt lat="41.65525" lon="26.52596">
        <ele>84.525012</ele>
        <time>2022-02-26T07:05:27.257Z</time>
      </trkpt>
      <trkpt lat="41.65518" lon="26.52585">
        <ele>84.987546</ele>
        <time>2022-02-26T07:05:30.272Z</time>
      </trkpt>
      <trkpt lat="41.65511" lon="26.52577">
        <ele>85.413037</ele>
        <time>2022-02-26T07:05:33.285Z</time>
      </trkpt>
      <trkpt lat="41.65503" lon="26.52567">
        <ele>85.935198</ele>
        <time>2022-02-26T07:05:37.264Z</time>
      </trkpt>
      <trkpt lat="41.65496" lon="26.52558">
        <ele>86.368409</ele>
        <time>2022-02-26T07:05:40.268Z</time>
      </trkpt>
      <trkpt lat="41.65488" lon="26.52549">
        <ele>86.837487</ele>
        <time>2022-02-26T07:05:43.288Z</time>
      </trkpt>
      <trkpt lat="41.6548" lon="26.5254">
        <ele>87.327917</ele>
        <time>2022-02-26T07:05:46.248Z</time>
      </trkpt>
      <trkpt lat="41.65472" lon="26.52532">
        <ele>87.786959</ele>
        <time>2022-02-26T07:05:49.252Z</time>
      </trkpt>
      <trkpt lat="41.65464" lon="26.52523">
        <ele>87.982283</ele>
        <time>2022-02-26T07:05:52.248Z</time>
      </trkpt>
      <trkpt lat="41.65457" lon="26.52516">
        <ele>88.169944</ele>
        <time>2022-02-26T07:05:55.242Z</time>
      </trkpt>
      <trkpt lat="41.65448" lon="26.52506">
        <ele>88.414441</ele>
        <time>2022-02-26T07:05:59.256Z</time>
      </trkpt>
      <trkpt lat="41.65441" lon="26.52496">
        <ele>88.623538</ele>
        <time>2022-02-26T07:06:02.272Z</time>
      </trkpt>
      <trkpt lat="41.65433" lon="26.52487">
        <ele>88.826419</ele>
        <time>2022-02-26T07:06:05.251Z</time>
      </trkpt>
      <trkpt lat="41.65425" lon="26.52478">
        <ele>89.048873</ele>
        <time>2022-02-26T07:06:08.273Z</time>
      </trkpt>
      <trkpt lat="41.65416" lon="26.52466">
        <ele>89.31394</ele>
        <time>2022-02-26T07:06:11.261Z</time>
      </trkpt>
      <trkpt lat="41.65407" lon="26.52456">
        <ele>89.546425</ele>
        <time>2022-02-26T07:06:14.288Z</time>
      </trkpt>
      <trkpt lat="41.65399" lon="26.52448">
        <ele>89.750386</ele>
        <time>2022-02-26T07:06:17.274Z</time>
      </trkpt>
      <trkpt lat="41.65391" lon="26.52439">
        <ele>89.962956</ele>
        <time>2022-02-26T07:06:20.263Z</time>
      </trkpt>
      <trkpt lat="41.65383" lon="26.52431">
        <ele>90.182267</ele>
        <time>2022-02-26T07:06:23.234Z</time>
      </trkpt>
      <trkpt lat="41.65374" lon="26.52421">
        <ele>90.411783</ele>
        <time>2022-02-26T07:06:26.264Z</time>
      </trkpt>
      <trkpt lat="41.65365" lon="26.52411">
        <ele>90.65949</ele>
        <time>2022-02-26T07:06:29.244Z</time>
      </trkpt>
      <trkpt lat="41.65357" lon="26.52401">
        <ele>90.875784</ele>
        <time>2022-02-26T07:06:32.277Z</time>
      </trkpt>
      <trkpt lat="41.65349" lon="26.52392">
        <ele>91.092506</ele>
        <time>2022-02-26T07:06:35.265Z</time>
      </trkpt>
      <trkpt lat="41.65342" lon="26.52381">
        <ele>91.302076</ele>
        <time>2022-02-26T07:06:38.253Z</time>
      </trkpt>
      <trkpt lat="41.65335" lon="26.52373">
        <ele>91.475061</ele>
        <time>2022-02-26T07:06:41.259Z</time>
      </trkpt>
      <trkpt lat="41.65328" lon="26.52363">
        <ele>91.545292</ele>
        <time>2022-02-26T07:06:45.261Z</time>
      </trkpt>
      <trkpt lat="41.6532" lon="26.52352">
        <ele>91.623911</ele>
        <time>2022-02-26T07:06:49.245Z</time>
      </trkpt>
      <trkpt lat="41.65313" lon="26.52343">
        <ele>91.689628</ele>
        <time>2022-02-26T07:06:52.259Z</time>
      </trkpt>
      <trkpt lat="41.65305" lon="26.52332">
        <ele>91.769101</ele>
        <time>2022-02-26T07:06:56.280Z</time>
      </trkpt>
      <trkpt lat="41.65297" lon="26.5232">
        <ele>91.851758</ele>
        <time>2022-02-26T07:07:00.235Z</time>
      </trkpt>
      <trkpt lat="41.65288" lon="26.52311">
        <ele>91.929944</ele>
        <time>2022-02-26T07:07:04.257Z</time>
      </trkpt>
      <trkpt lat="41.65278" lon="26.52304">
        <ele>92.005601</ele>
        <time>2022-02-26T07:07:08.251Z</time>
      </trkpt>
      <trkpt lat="41.6527" lon="26.52296">
        <ele>92.075579</ele>
        <time>2022-02-26T07:07:12.257Z</time>
      </trkpt>
      <trkpt lat="41.65262" lon="26.52286">
        <ele>92.14993</ele>
        <time>2022-02-26T07:07:16.287Z</time>
      </trkpt>
      <trkpt lat="41.65256" lon="26.52277">
        <ele>92.218375</ele>
        <time>2022-02-26T07:07:20.242Z</time>
      </trkpt>
      <trkpt lat="41.65247" lon="26.52268">
        <ele>92.290075</ele>
        <time>2022-02-26T07:07:24.254Z</time>
      </trkpt>
      <trkpt lat="41.65239" lon="26.5226">
        <ele>92.361527</ele>
        <time>2022-02-26T07:07:28.259Z</time>
      </trkpt>
      <trkpt lat="41.65231" lon="26.52249">
        <ele>92.436749</ele>
        <time>2022-02-26T07:07:32.249Z</time>
      </trkpt>
      <trkpt lat="41.65227" lon="26.52238">
        <ele>92.504096</ele>
        <time>2022-02-26T07:07:37.260Z</time>
      </trkpt>
      <trkpt lat="41.6522" lon="26.5223">
        <ele>92.568302</ele>
        <time>2022-02-26T07:07:42.250Z</time>
      </trkpt>
      <trkpt lat="41.65212" lon="26.52221">
        <ele>92.63537</ele>
        <time>2022-02-26T07:07:47.257Z</time>
      </trkpt>
      <trkpt lat="41.65199" lon="26.52227">
        <ele>92.639316</ele>
        <time>2022-02-26T07:14:46.308Z</time>
      </trkpt>
      <trkpt lat="41.65205" lon="26.52236">
        <ele>92.523693</ele>
        <time>2022-02-26T07:14:52.247Z</time>
      </trkpt>
      <trkpt lat="41.65214" lon="26.5224">
        <ele>92.404258</ele>
        <time>2022-02-26T07:14:57.282Z</time>
      </trkpt>
      <trkpt lat="41.65223" lon="26.52242">
        <ele>92.28432</ele>
        <time>2022-02-26T07:15:03.269Z</time>
      </trkpt>
      <trkpt lat="41.65232" lon="26.52246">
        <ele>92.166434</ele>
        <time>2022-02-26T07:15:09.252Z</time>
      </trkpt>
      <trkpt lat="41.65237" lon="26.52235">
        <ele>92.045535</ele>
        <time>2022-02-26T07:15:16.246Z</time>
      </trkpt>
      <trkpt lat="41.65242" lon="26.52223">
        <ele>91.915036</ele>
        <time>2022-02-26T07:15:21.247Z</time>
      </trkpt>
      <trkpt lat="41.65249" lon="26.5221">
        <ele>91.764342</ele>
        <time>2022-02-26T07:15:25.257Z</time>
      </trkpt>
      <trkpt lat="41.65253" lon="26.52199">
        <ele>91.647085</ele>
        <time>2022-02-26T07:15:28.254Z</time>
      </trkpt>
      <trkpt lat="41.65258" lon="26.52189">
        <ele>91.530742</ele>
        <time>2022-02-26T07:15:31.302Z</time>
      </trkpt>
      <trkpt lat="41.65262" lon="26.52175">
        <ele>91.391515</ele>
        <time>2022-02-26T07:15:35.262Z</time>
      </trkpt>
      <trkpt lat="41.65266" lon="26.52162">
        <ele>91.257472</ele>
        <time>2022-02-26T07:15:39.264Z</time>
      </trkpt>
      <trkpt lat="41.65271" lon="26.52151">
        <ele>91.13319</ele>
        <time>2022-02-26T07:15:43.258Z</time>
      </trkpt>
      <trkpt lat="41.65277" lon="26.52139">
        <ele>90.997147</ele>
        <time>2022-02-26T07:15:47.269Z</time>
      </trkpt>
      <trkpt lat="41.65282" lon="26.52128">
        <ele>90.875612</ele>
        <time>2022-02-26T07:15:50.244Z</time>
      </trkpt>
      <trkpt lat="41.65287" lon="26.52115">
        <ele>90.736117</ele>
        <time>2022-02-26T07:15:53.264Z</time>
      </trkpt>
      <trkpt lat="41.65295" lon="26.52102">
        <ele>90.581968</ele>
        <time>2022-02-26T07:15:56.248Z</time>
      </trkpt>
      <trkpt lat="41.653" lon="26.52091">
        <ele>90.446718</ele>
        <time>2022-02-26T07:15:59.257Z</time>
      </trkpt>
      <trkpt lat="41.65306" lon="26.52079">
        <ele>90.302761</ele>
        <time>2022-02-26T07:16:02.279Z</time>
      </trkpt>
      <trkpt lat="41.65312" lon="26.52067">
        <ele>90.152366</ele>
        <time>2022-02-26T07:16:05.291Z</time>
      </trkpt>
      <trkpt lat="41.65317" lon="26.52055">
        <ele>90.019564</ele>
        <time>2022-02-26T07:16:08.239Z</time>
      </trkpt>
      <trkpt lat="41.65322" lon="26.52043">
        <ele>89.873114</ele>
        <time>2022-02-26T07:16:11.253Z</time>
      </trkpt>
      <trkpt lat="41.65327" lon="26.52031">
        <ele>89.726265</ele>
        <time>2022-02-26T07:16:14.256Z</time>
      </trkpt>
      <trkpt lat="41.65332" lon="26.5202">
        <ele>89.59386</ele>
        <time>2022-02-26T07:16:17.260Z</time>
      </trkpt>
      <trkpt lat="41.65338" lon="26.52009">
        <ele>89.449855</ele>
        <time>2022-02-26T07:16:20.246Z</time>
      </trkpt>
      <trkpt lat="41.65344" lon="26.51997">
        <ele>89.300848</ele>
        <time>2022-02-26T07:16:23.271Z</time>
      </trkpt>
      <trkpt lat="41.6535" lon="26.51985">
        <ele>89.151008</ele>
        <time>2022-02-26T07:16:26.253Z</time>
      </trkpt>
      <trkpt lat="41.65355" lon="26.51972">
        <ele>89.005251</ele>
        <time>2022-02-26T07:16:29.260Z</time>
      </trkpt>
      <trkpt lat="41.65361" lon="26.51962">
        <ele>88.86705</ele>
        <time>2022-02-26T07:16:32.260Z</time>
      </trkpt>
      <trkpt lat="41.65367" lon="26.51949">
        <ele>88.709657</ele>
        <time>2022-02-26T07:16:35.246Z</time>
      </trkpt>
      <trkpt lat="41.65374" lon="26.51938">
        <ele>88.558154</ele>
        <time>2022-02-26T07:16:38.268Z</time>
      </trkpt>
      <trkpt lat="41.65381" lon="26.51926">
        <ele>88.405767</ele>
        <time>2022-02-26T07:16:41.250Z</time>
      </trkpt>
      <trkpt lat="41.65388" lon="26.51915">
        <ele>88.252353</ele>
        <time>2022-02-26T07:16:44.295Z</time>
      </trkpt>
      <trkpt lat="41.65394" lon="26.51903">
        <ele>88.105755</ele>
        <time>2022-02-26T07:16:47.259Z</time>
      </trkpt>
      <trkpt lat="41.65399" lon="26.51892">
        <ele>87.966709</ele>
        <time>2022-02-26T07:16:50.244Z</time>
      </trkpt>
      <trkpt lat="41.65405" lon="26.51882">
        <ele>87.673813</ele>
        <time>2022-02-26T07:16:53.298Z</time>
      </trkpt>
      <trkpt lat="41.65411" lon="26.51871">
        <ele>87.207982</ele>
        <time>2022-02-26T07:16:56.290Z</time>
      </trkpt>
      <trkpt lat="41.65416" lon="26.51858">
        <ele>86.725825</ele>
        <time>2022-02-26T07:16:59.244Z</time>
      </trkpt>
      <trkpt lat="41.65421" lon="26.51846">
        <ele>86.269499</ele>
        <time>2022-02-26T07:17:02.276Z</time>
      </trkpt>
      <trkpt lat="41.65426" lon="26.51834">
        <ele>85.81429</ele>
        <time>2022-02-26T07:17:05.258Z</time>
      </trkpt>
      <trkpt lat="41.6543" lon="26.51822">
        <ele>85.386964</ele>
        <time>2022-02-26T07:17:08.258Z</time>
      </trkpt>
      <trkpt lat="41.65434" lon="26.5181">
        <ele>84.926244</ele>
        <time>2022-02-26T07:17:11.260Z</time>
      </trkpt>
      <trkpt lat="41.65435" lon="26.51797">
        <ele>84.490294</ele>
        <time>2022-02-26T07:17:14.259Z</time>
      </trkpt>
      <trkpt lat="41.65432" lon="26.51783">
        <ele>83.999176</ele>
        <time>2022-02-26T07:17:17.259Z</time>
      </trkpt>
      <trkpt lat="41.65426" lon="26.51771">
        <ele>83.516695</ele>
        <time>2022-02-26T07:17:20.231Z</time>
      </trkpt>
      <trkpt lat="41.6542" lon="26.51759">
        <ele>83.054627</ele>
        <time>2022-02-26T07:17:23.275Z</time>
      </trkpt>
      <trkpt lat="41.65417" lon="26.51747">
        <ele>82.607082</ele>
        <time>2022-02-26T07:17:26.257Z</time>
      </trkpt>
      <trkpt lat="41.65415" lon="26.51734">
        <ele>82.168868</ele>
        <time>2022-02-26T07:17:29.245Z</time>
      </trkpt>
      <trkpt lat="41.65415" lon="26.51721">
        <ele>81.73467</ele>
        <time>2022-02-26T07:17:32.272Z</time>
      </trkpt>
      <trkpt lat="41.65417" lon="26.51708">
        <ele>81.287269</ele>
        <time>2022-02-26T07:17:35.256Z</time>
      </trkpt>
      <trkpt lat="41.65419" lon="26.51696">
        <ele>80.885107</ele>
        <time>2022-02-26T07:17:38.272Z</time>
      </trkpt>
      <trkpt lat="41.65421" lon="26.5168">
        <ele>80.354982</ele>
        <time>2022-02-26T07:17:42.283Z</time>
      </trkpt>
      <trkpt lat="41.65422" lon="26.51668">
        <ele>79.937453</ele>
        <time>2022-02-26T07:17:45.301Z</time>
      </trkpt>
      <trkpt lat="41.65424" lon="26.51655">
        <ele>79.595879</ele>
        <time>2022-02-26T07:17:48.304Z</time>
      </trkpt>
      <trkpt lat="41.65425" lon="26.51641">
        <ele>79.254514</ele>
        <time>2022-02-26T07:17:51.251Z</time>
      </trkpt>
      <trkpt lat="41.65425" lon="26.51625">
        <ele>78.877824</ele>
        <time>2022-02-26T07:17:54.251Z</time>
      </trkpt>
      <trkpt lat="41.65425" lon="26.5161">
        <ele>78.491363</ele>
        <time>2022-02-26T07:17:57.253Z</time>
      </trkpt>
      <trkpt lat="41.65424" lon="26.51595">
        <ele>78.139286</ele>
        <time>2022-02-26T07:18:00.257Z</time>
      </trkpt>
      <trkpt lat="41.65424" lon="26.51582">
        <ele>77.80927</ele>
        <time>2022-02-26T07:18:03.259Z</time>
      </trkpt>
      <trkpt lat="41.65423" lon="26.51569">
        <ele>77.484588</ele>
        <time>2022-02-26T07:18:06.253Z</time>
      </trkpt>
      <trkpt lat="41.65423" lon="26.51556">
        <ele>77.181463</ele>
        <time>2022-02-26T07:18:09.265Z</time>
      </trkpt>
      <trkpt lat="41.65424" lon="26.51544">
        <ele>76.884516</ele>
        <time>2022-02-26T07:18:12.299Z</time>
      </trkpt>
      <trkpt lat="41.65424" lon="26.51531">
        <ele>76.564128</ele>
        <time>2022-02-26T07:18:15.317Z</time>
      </trkpt>
      <trkpt lat="41.65426" lon="26.51518">
        <ele>76.243893</ele>
        <time>2022-02-26T07:18:18.273Z</time>
      </trkpt>
      <trkpt lat="41.6543" lon="26.51505">
        <ele>75.895635</ele>
        <time>2022-02-26T07:18:21.266Z</time>
      </trkpt>
      <trkpt lat="41.65433" lon="26.51491">
        <ele>75.538096</ele>
        <time>2022-02-26T07:18:24.242Z</time>
      </trkpt>
      <trkpt lat="41.65436" lon="26.51477">
        <ele>75.179232</ele>
        <time>2022-02-26T07:18:27.237Z</time>
      </trkpt>
      <trkpt lat="41.65437" lon="26.51463">
        <ele>74.841741</ele>
        <time>2022-02-26T07:18:30.262Z</time>
      </trkpt>
      <trkpt lat="41.65434" lon="26.5145">
        <ele>74.507043</ele>
        <time>2022-02-26T07:18:33.256Z</time>
      </trkpt>
      <trkpt lat="41.65434" lon="26.51437">
        <ele>74.208162</ele>
        <time>2022-02-26T07:18:36.249Z</time>
      </trkpt>
      <trkpt lat="41.65434" lon="26.51424">
        <ele>73.962581</ele>
        <time>2022-02-26T07:18:39.262Z</time>
      </trkpt>
      <trkpt lat="41.6544" lon="26.51412">
        <ele>73.895923</ele>
        <time>2022-02-26T07:18:42.259Z</time>
      </trkpt>
      <trkpt lat="41.65444" lon="26.514">
        <ele>73.837343</ele>
        <time>2022-02-26T07:18:45.274Z</time>
      </trkpt>
      <trkpt lat="41.65449" lon="26.51388">
        <ele>73.77223</ele>
        <time>2022-02-26T07:18:48.267Z</time>
      </trkpt>
      <trkpt lat="41.65455" lon="26.51376">
        <ele>73.703284</ele>
        <time>2022-02-26T07:18:51.267Z</time>
      </trkpt>
      <trkpt lat="41.6546" lon="26.51362">
        <ele>73.632686</ele>
        <time>2022-02-26T07:18:54.270Z</time>
      </trkpt>
      <trkpt lat="41.65466" lon="26.5135">
        <ele>73.565169</ele>
        <time>2022-02-26T07:18:57.274Z</time>
      </trkpt>
      <trkpt lat="41.65471" lon="26.51337">
        <ele>73.498858</ele>
        <time>2022-02-26T07:19:00.279Z</time>
      </trkpt>
      <trkpt lat="41.65475" lon="26.51325">
        <ele>73.434727</ele>
        <time>2022-02-26T07:19:03.264Z</time>
      </trkpt>
      <trkpt lat="41.6548" lon="26.51311">
        <ele>73.366341</ele>
        <time>2022-02-26T07:19:06.271Z</time>
      </trkpt>
      <trkpt lat="41.65486" lon="26.51298">
        <ele>73.293728</ele>
        <time>2022-02-26T07:19:09.252Z</time>
      </trkpt>
      <trkpt lat="41.65491" lon="26.51284">
        <ele>73.220325</ele>
        <time>2022-02-26T07:19:12.270Z</time>
      </trkpt>
      <trkpt lat="41.65497" lon="26.51269">
        <ele>73.142779</ele>
        <time>2022-02-26T07:19:15.266Z</time>
      </trkpt>
      <trkpt lat="41.65502" lon="26.51255">
        <ele>73.067889</ele>
        <time>2022-02-26T07:19:18.303Z</time>
      </trkpt>
      <trkpt lat="41.65508" lon="26.51243">
        <ele>73.002577</ele>
        <time>2022-02-26T07:19:21.281Z</time>
      </trkpt>
      <trkpt lat="41.65512" lon="26.51232">
        <ele>72.945714</ele>
        <time>2022-02-26T07:19:25.308Z</time>
      </trkpt>
      <trkpt lat="41.65517" lon="26.51219">
        <ele>72.880513</ele>
        <time>2022-02-26T07:19:29.251Z</time>
      </trkpt>
      <trkpt lat="41.65522" lon="26.51206">
        <ele>73.052817</ele>
        <time>2022-02-26T07:19:33.263Z</time>
      </trkpt>
      <trkpt lat="41.65528" lon="26.51191">
        <ele>73.308078</ele>
        <time>2022-02-26T07:19:37.305Z</time>
      </trkpt>
      <trkpt lat="41.65532" lon="26.5118">
        <ele>73.506715</ele>
        <time>2022-02-26T07:19:40.260Z</time>
      </trkpt>
      <trkpt lat="41.65536" lon="26.51169">
        <ele>73.702579</ele>
        <time>2022-02-26T07:19:43.276Z</time>
      </trkpt>
      <trkpt lat="41.6554" lon="26.51157">
        <ele>73.907753</ele>
        <time>2022-02-26T07:19:46.254Z</time>
      </trkpt>
      <trkpt lat="41.65545" lon="26.51146">
        <ele>74.101816</ele>
        <time>2022-02-26T07:19:49.266Z</time>
      </trkpt>
      <trkpt lat="41.65547" lon="26.51133">
        <ele>74.306571</ele>
        <time>2022-02-26T07:19:53.257Z</time>
      </trkpt>
      <trkpt lat="41.65551" lon="26.51121">
        <ele>74.520151</ele>
        <time>2022-02-26T07:19:57.289Z</time>
      </trkpt>
      <trkpt lat="41.65556" lon="26.51109">
        <ele>74.732641</ele>
        <time>2022-02-26T07:20:00.255Z</time>
      </trkpt>
      <trkpt lat="41.65562" lon="26.51094">
        <ele>74.991265</ele>
        <time>2022-02-26T07:20:03.285Z</time>
      </trkpt>
      <trkpt lat="41.65566" lon="26.51081">
        <ele>75.215163</ele>
        <time>2022-02-26T07:20:06.293Z</time>
      </trkpt>
      <trkpt lat="41.65571" lon="26.51069">
        <ele>75.430745</ele>
        <time>2022-02-26T07:20:09.263Z</time>
      </trkpt>
      <trkpt lat="41.65576" lon="26.51057">
        <ele>75.657239</ele>
        <time>2022-02-26T07:20:12.266Z</time>
      </trkpt>
      <trkpt lat="41.6558" lon="26.51045">
        <ele>75.860783</ele>
        <time>2022-02-26T07:20:15.266Z</time>
      </trkpt>
      <trkpt lat="41.65586" lon="26.51034">
        <ele>76.071616</ele>
        <time>2022-02-26T07:20:18.275Z</time>
      </trkpt>
      <trkpt lat="41.65591" lon="26.51023">
        <ele>76.270243</ele>
        <time>2022-02-26T07:20:21.255Z</time>
      </trkpt>
      <trkpt lat="41.65597" lon="26.51009">
        <ele>76.515623</ele>
        <time>2022-02-26T07:20:24.276Z</time>
      </trkpt>
      <trkpt lat="41.65603" lon="26.50995">
        <ele>76.633398</ele>
        <time>2022-02-26T07:20:27.251Z</time>
      </trkpt>
      <trkpt lat="41.65609" lon="26.50983">
        <ele>76.629824</ele>
        <time>2022-02-26T07:20:30.277Z</time>
      </trkpt>
      <trkpt lat="41.65614" lon="26.50971">
        <ele>76.626435</ele>
        <time>2022-02-26T07:20:33.292Z</time>
      </trkpt>
      <trkpt lat="41.65618" lon="26.50959">
        <ele>76.623178</ele>
        <time>2022-02-26T07:20:36.250Z</time>
      </trkpt>
      <trkpt lat="41.65622" lon="26.50947">
        <ele>76.620066</ele>
        <time>2022-02-26T07:20:39.270Z</time>
      </trkpt>
      <trkpt lat="41.65625" lon="26.50935">
        <ele>76.616905</ele>
        <time>2022-02-26T07:20:42.277Z</time>
      </trkpt>
      <trkpt lat="41.6563" lon="26.50921">
        <ele>76.61305</ele>
        <time>2022-02-26T07:20:46.271Z</time>
      </trkpt>
      <trkpt lat="41.65635" lon="26.50906">
        <ele>76.609186</ele>
        <time>2022-02-26T07:20:50.263Z</time>
      </trkpt>
      <trkpt lat="41.65639" lon="26.50895">
        <ele>76.606082</ele>
        <time>2022-02-26T07:20:53.269Z</time>
      </trkpt>
      <trkpt lat="41.65643" lon="26.50884">
        <ele>76.603032</ele>
        <time>2022-02-26T07:20:56.241Z</time>
      </trkpt>
      <trkpt lat="41.65648" lon="26.50874">
        <ele>76.600081</ele>
        <time>2022-02-26T07:20:59.269Z</time>
      </trkpt>
      <trkpt lat="41.65652" lon="26.50859">
        <ele>76.596207</ele>
        <time>2022-02-26T07:21:03.273Z</time>
      </trkpt>
      <trkpt lat="41.65655" lon="26.50847">
        <ele>76.593146</ele>
        <time>2022-02-26T07:21:06.270Z</time>
      </trkpt>
      <trkpt lat="41.65659" lon="26.50835">
        <ele>76.589979</ele>
        <time>2022-02-26T07:21:09.263Z</time>
      </trkpt>
      <trkpt lat="41.65665" lon="26.50823">
        <ele>76.586526</ele>
        <time>2022-02-26T07:21:12.301Z</time>
      </trkpt>
      <trkpt lat="41.6567" lon="26.50812">
        <ele>76.583216</ele>
        <time>2022-02-26T07:21:15.287Z</time>
      </trkpt>
      <trkpt lat="41.65675" lon="26.50801">
        <ele>76.580141</ele>
        <time>2022-02-26T07:21:18.276Z</time>
      </trkpt>
      <trkpt lat="41.65679" lon="26.5079">
        <ele>76.57706</ele>
        <time>2022-02-26T07:21:21.312Z</time>
      </trkpt>
      <trkpt lat="41.65684" lon="26.50777">
        <ele>76.526761</ele>
        <time>2022-02-26T07:21:25.255Z</time>
      </trkpt>
      <trkpt lat="41.65689" lon="26.50763">
        <ele>76.468464</ele>
        <time>2022-02-26T07:21:30.294Z</time>
      </trkpt>
      <trkpt lat="41.65691" lon="26.50751">
        <ele>76.417637</ele>
        <time>2022-02-26T07:21:34.253Z</time>
      </trkpt>
      <trkpt lat="41.65695" lon="26.5074">
        <ele>76.368835</ele>
        <time>2022-02-26T07:21:38.263Z</time>
      </trkpt>
      <trkpt lat="41.65699" lon="26.50728">
        <ele>76.317228</ele>
        <time>2022-02-26T07:21:42.273Z</time>
      </trkpt>
      <trkpt lat="41.65704" lon="26.50716">
        <ele>76.264062</ele>
        <time>2022-02-26T07:21:46.286Z</time>
      </trkpt>
      <trkpt lat="41.65708" lon="26.50702">
        <ele>76.205744</ele>
        <time>2022-02-26T07:21:50.273Z</time>
      </trkpt>
      <trkpt lat="41.65712" lon="26.50691">
        <ele>76.157794</ele>
        <time>2022-02-26T07:21:53.271Z</time>
      </trkpt>
      <trkpt lat="41.65717" lon="26.5068">
        <ele>76.10796</ele>
        <time>2022-02-26T07:21:56.251Z</time>
      </trkpt>
      <trkpt lat="41.65721" lon="26.50669">
        <ele>76.06001</ele>
        <time>2022-02-26T07:21:59.306Z</time>
      </trkpt>
      <trkpt lat="41.65724" lon="26.50658">
        <ele>76.012036</ele>
        <time>2022-02-26T07:22:02.252Z</time>
      </trkpt>
      <trkpt lat="41.65728" lon="26.50644">
        <ele>75.955222</ele>
        <time>2022-02-26T07:22:06.306Z</time>
      </trkpt>
      <trkpt lat="41.65732" lon="26.5063">
        <ele>75.896929</ele>
        <time>2022-02-26T07:22:10.271Z</time>
      </trkpt>
      <trkpt lat="41.65735" lon="26.50616">
        <ele>75.83858</ele>
        <time>2022-02-26T07:22:14.269Z</time>
      </trkpt>
      <trkpt lat="41.65739" lon="26.50602">
        <ele>75.778983</ele>
        <time>2022-02-26T07:22:18.277Z</time>
      </trkpt>
      <trkpt lat="41.65742" lon="26.50588">
        <ele>75.722804</ele>
        <time>2022-02-26T07:22:22.275Z</time>
      </trkpt>
      <trkpt lat="41.65744" lon="26.50576">
        <ele>75.671939</ele>
        <time>2022-02-26T07:22:26.259Z</time>
      </trkpt>
      <trkpt lat="41.65747" lon="26.50564">
        <ele>75.612686</ele>
        <time>2022-02-26T07:22:30.297Z</time>
      </trkpt>
      <trkpt lat="41.6575" lon="26.50553">
        <ele>75.446861</ele>
        <time>2022-02-26T07:22:34.269Z</time>
      </trkpt>
      <trkpt lat="41.65752" lon="26.50541">
        <ele>75.280603</ele>
        <time>2022-02-26T07:22:38.272Z</time>
      </trkpt>
      <trkpt lat="41.65755" lon="26.50529">
        <ele>75.107274</ele>
        <time>2022-02-26T07:22:42.261Z</time>
      </trkpt>
      <trkpt lat="41.65758" lon="26.50516">
        <ele>74.922929</ele>
        <time>2022-02-26T07:22:46.274Z</time>
      </trkpt>
      <trkpt lat="41.65761" lon="26.50503">
        <ele>74.743089</ele>
        <time>2022-02-26T07:22:50.265Z</time>
      </trkpt>
      <trkpt lat="41.65764" lon="26.50489">
        <ele>74.53669</ele>
        <time>2022-02-26T07:22:54.280Z</time>
      </trkpt>
      <trkpt lat="41.65767" lon="26.50474">
        <ele>74.323565</ele>
        <time>2022-02-26T07:22:58.276Z</time>
      </trkpt>
      <trkpt lat="41.65771" lon="26.5046">
        <ele>74.11854</ele>
        <time>2022-02-26T07:23:02.284Z</time>
      </trkpt>
      <trkpt lat="41.65775" lon="26.50446">
        <ele>73.920124</ele>
        <time>2022-02-26T07:23:06.264Z</time>
      </trkpt>
      <trkpt lat="41.65778" lon="26.50434">
        <ele>73.744721</ele>
        <time>2022-02-26T07:23:10.270Z</time>
      </trkpt>
      <trkpt lat="41.65783" lon="26.50422">
        <ele>73.563719</ele>
        <time>2022-02-26T07:23:15.326Z</time>
      </trkpt>
      <trkpt lat="41.65788" lon="26.5041">
        <ele>73.366702</ele>
        <time>2022-02-26T07:23:19.255Z</time>
      </trkpt>
      <trkpt lat="41.65792" lon="26.50395">
        <ele>73.152292</ele>
        <time>2022-02-26T07:23:23.274Z</time>
      </trkpt>
      <trkpt lat="41.65795" lon="26.50383">
        <ele>72.978215</ele>
        <time>2022-02-26T07:23:26.292Z</time>
      </trkpt>
      <trkpt lat="41.65799" lon="26.50369">
        <ele>72.772432</ele>
        <time>2022-02-26T07:23:30.280Z</time>
      </trkpt>
      <trkpt lat="41.65802" lon="26.50355">
        <ele>72.577072</ele>
        <time>2022-02-26T07:23:34.325Z</time>
      </trkpt>
      <trkpt lat="41.65805" lon="26.50341">
        <ele>72.372784</ele>
        <time>2022-02-26T07:23:38.288Z</time>
      </trkpt>
      <trkpt lat="41.65808" lon="26.50326">
        <ele>72.45129</ele>
        <time>2022-02-26T07:23:42.301Z</time>
      </trkpt>
      <trkpt lat="41.65811" lon="26.50312">
        <ele>72.581801</ele>
        <time>2022-02-26T07:23:46.270Z</time>
      </trkpt>
      <trkpt lat="41.65814" lon="26.50297">
        <ele>72.709238</ele>
        <time>2022-02-26T07:23:50.253Z</time>
      </trkpt>
      <trkpt lat="41.65816" lon="26.50283">
        <ele>72.834416</ele>
        <time>2022-02-26T07:23:54.272Z</time>
      </trkpt>
      <trkpt lat="41.65819" lon="26.5027">
        <ele>72.953142</ele>
        <time>2022-02-26T07:23:58.254Z</time>
      </trkpt>
      <trkpt lat="41.65821" lon="26.50258">
        <ele>73.062915</ele>
        <time>2022-02-26T07:24:02.266Z</time>
      </trkpt>
      <trkpt lat="41.65825" lon="26.50245">
        <ele>73.182405</ele>
        <time>2022-02-26T07:24:07.277Z</time>
      </trkpt>
      <trkpt lat="41.65828" lon="26.50233">
        <ele>73.295499</ele>
        <time>2022-02-26T07:24:11.260Z</time>
      </trkpt>
      <trkpt lat="41.65832" lon="26.50219">
        <ele>73.418296</ele>
        <time>2022-02-26T07:24:15.260Z</time>
      </trkpt>
      <trkpt lat="41.65836" lon="26.50206">
        <ele>73.545103</ele>
        <time>2022-02-26T07:24:19.248Z</time>
      </trkpt>
      <trkpt lat="41.6584" lon="26.50193">
        <ele>73.668602</ele>
        <time>2022-02-26T07:24:23.277Z</time>
      </trkpt>
      <trkpt lat="41.65844" lon="26.5018">
        <ele>73.788118</ele>
        <time>2022-02-26T07:24:27.271Z</time>
      </trkpt>
      <trkpt lat="41.65845" lon="26.50165">
        <ele>73.92286</ele>
        <time>2022-02-26T07:24:31.254Z</time>
      </trkpt>
      <trkpt lat="41.65846" lon="26.5015">
        <ele>74.055899</ele>
        <time>2022-02-26T07:24:35.265Z</time>
      </trkpt>
      <trkpt lat="41.6585" lon="26.50135">
        <ele>74.189208</ele>
        <time>2022-02-26T07:24:39.282Z</time>
      </trkpt>
      <trkpt lat="41.65856" lon="26.50121">
        <ele>74.325693</ele>
        <time>2022-02-26T07:24:43.259Z</time>
      </trkpt>
      <trkpt lat="41.65861" lon="26.5011">
        <ele>74.44724</ele>
        <time>2022-02-26T07:24:46.291Z</time>
      </trkpt>
      <trkpt lat="41.65864" lon="26.50099">
        <ele>74.757373</ele>
        <time>2022-02-26T07:24:49.266Z</time>
      </trkpt>
      <trkpt lat="41.65869" lon="26.50085">
        <ele>75.130953</ele>
        <time>2022-02-26T07:24:53.284Z</time>
      </trkpt>
      <trkpt lat="41.65872" lon="26.50072">
        <ele>75.467134</ele>
        <time>2022-02-26T07:24:57.272Z</time>
      </trkpt>
      <trkpt lat="41.65873" lon="26.50058">
        <ele>75.807544</ele>
        <time>2022-02-26T07:25:01.266Z</time>
      </trkpt>
      <trkpt lat="41.65871" lon="26.50045">
        <ele>76.123839</ele>
        <time>2022-02-26T07:25:04.269Z</time>
      </trkpt>
      <trkpt lat="41.65867" lon="26.50032">
        <ele>76.470351</ele>
        <time>2022-02-26T07:25:07.258Z</time>
      </trkpt>
      <trkpt lat="41.65863" lon="26.50019">
        <ele>76.820377</ele>
        <time>2022-02-26T07:25:10.268Z</time>
      </trkpt>
      <trkpt lat="41.65859" lon="26.50005">
        <ele>77.185098</ele>
        <time>2022-02-26T07:25:13.273Z</time>
      </trkpt>
      <trkpt lat="41.65855" lon="26.49991">
        <ele>77.555569</ele>
        <time>2022-02-26T07:25:16.267Z</time>
      </trkpt>
      <trkpt lat="41.65851" lon="26.49976">
        <ele>77.942109</ele>
        <time>2022-02-26T07:25:19.282Z</time>
      </trkpt>
      <trkpt lat="41.65846" lon="26.49962">
        <ele>78.317276</ele>
        <time>2022-02-26T07:25:22.287Z</time>
      </trkpt>
      <trkpt lat="41.65842" lon="26.49948">
        <ele>78.685645</ele>
        <time>2022-02-26T07:25:25.286Z</time>
      </trkpt>
      <trkpt lat="41.65837" lon="26.49934">
        <ele>79.069222</ele>
        <time>2022-02-26T07:25:28.271Z</time>
      </trkpt>
      <trkpt lat="41.65832" lon="26.4992">
        <ele>79.445036</ele>
        <time>2022-02-26T07:25:31.295Z</time>
      </trkpt>
      <trkpt lat="41.65828" lon="26.49906">
        <ele>79.822714</ele>
        <time>2022-02-26T07:25:34.278Z</time>
      </trkpt>
      <trkpt lat="41.65823" lon="26.49891">
        <ele>80.207483</ele>
        <time>2022-02-26T07:25:37.252Z</time>
      </trkpt>
      <trkpt lat="41.65819" lon="26.49877">
        <ele>80.348844</ele>
        <time>2022-02-26T07:25:40.245Z</time>
      </trkpt>
      <trkpt lat="41.65814" lon="26.49863">
        <ele>80.385209</ele>
        <time>2022-02-26T07:25:43.269Z</time>
      </trkpt>
      <trkpt lat="41.6581" lon="26.4985">
        <ele>80.419532</ele>
        <time>2022-02-26T07:25:46.276Z</time>
      </trkpt>
      <trkpt lat="41.65806" lon="26.49836">
        <ele>80.456122</ele>
        <time>2022-02-26T07:25:49.316Z</time>
      </trkpt>
      <trkpt lat="41.65802" lon="26.49823">
        <ele>80.491754</ele>
        <time>2022-02-26T07:25:52.258Z</time>
      </trkpt>
      <trkpt lat="41.65798" lon="26.49809">
        <ele>80.526633</ele>
        <time>2022-02-26T07:25:55.258Z</time>
      </trkpt>
      <trkpt lat="41.65794" lon="26.49796">
        <ele>80.560984</ele>
        <time>2022-02-26T07:25:58.267Z</time>
      </trkpt>
      <trkpt lat="41.6579" lon="26.49783">
        <ele>80.596885</ele>
        <time>2022-02-26T07:26:01.283Z</time>
      </trkpt>
      <trkpt lat="41.65785" lon="26.49769">
        <ele>80.632702</ele>
        <time>2022-02-26T07:26:04.257Z</time>
      </trkpt>
      <trkpt lat="41.65781" lon="26.49756">
        <ele>80.667012</ele>
        <time>2022-02-26T07:26:07.258Z</time>
      </trkpt>
      <trkpt lat="41.65777" lon="26.49744">
        <ele>80.698854</ele>
        <time>2022-02-26T07:26:10.254Z</time>
      </trkpt>
      <trkpt lat="41.65773" lon="26.49733">
        <ele>80.73006</ele>
        <time>2022-02-26T07:26:13.261Z</time>
      </trkpt>
      <trkpt lat="41.65768" lon="26.49721">
        <ele>80.763287</ele>
        <time>2022-02-26T07:26:16.268Z</time>
      </trkpt>
      <trkpt lat="41.65761" lon="26.49708">
        <ele>80.799816</ele>
        <time>2022-02-26T07:26:19.266Z</time>
      </trkpt>
      <trkpt lat="41.65754" lon="26.49696">
        <ele>80.837901</ele>
        <time>2022-02-26T07:26:22.261Z</time>
      </trkpt>
      <trkpt lat="41.65747" lon="26.49683">
        <ele>80.8756</ele>
        <time>2022-02-26T07:26:25.247Z</time>
      </trkpt>
      <trkpt lat="41.65741" lon="26.49671">
        <ele>80.878606</ele>
        <time>2022-02-26T07:26:28.262Z</time>
      </trkpt>
      <trkpt lat="41.65734" lon="26.49658">
        <ele>80.659495</ele>
        <time>2022-02-26T07:26:31.265Z</time>
      </trkpt>
      <trkpt lat="41.65727" lon="26.49645">
        <ele>80.436016</ele>
        <time>2022-02-26T07:26:34.300Z</time>
      </trkpt>
      <trkpt lat="41.65719" lon="26.49635">
        <ele>80.23347</ele>
        <time>2022-02-26T07:26:37.276Z</time>
      </trkpt>
      <trkpt lat="41.65711" lon="26.49624">
        <ele>80.032196</ele>
        <time>2022-02-26T07:26:40.317Z</time>
      </trkpt>
      <trkpt lat="41.65704" lon="26.49613">
        <ele>79.82411</ele>
        <time>2022-02-26T07:26:43.269Z</time>
      </trkpt>
      <trkpt lat="41.65696" lon="26.49602">
        <ele>79.616534</ele>
        <time>2022-02-26T07:26:46.261Z</time>
      </trkpt>
      <trkpt lat="41.65688" lon="26.49591">
        <ele>79.406695</ele>
        <time>2022-02-26T07:26:49.261Z</time>
      </trkpt>
      <trkpt lat="41.65681" lon="26.49579">
        <ele>79.186363</ele>
        <time>2022-02-26T07:26:52.279Z</time>
      </trkpt>
      <trkpt lat="41.65673" lon="26.49566">
        <ele>78.966407</ele>
        <time>2022-02-26T07:26:55.269Z</time>
      </trkpt>
      <trkpt lat="41.65665" lon="26.49555">
        <ele>78.752476</ele>
        <time>2022-02-26T07:26:58.281Z</time>
      </trkpt>
      <trkpt lat="41.65658" lon="26.49543">
        <ele>78.549036</ele>
        <time>2022-02-26T07:27:01.279Z</time>
      </trkpt>
      <trkpt lat="41.65651" lon="26.49532">
        <ele>78.343531</ele>
        <time>2022-02-26T07:27:04.268Z</time>
      </trkpt>
      <trkpt lat="41.65644" lon="26.4952">
        <ele>78.131132</ele>
        <time>2022-02-26T07:27:07.283Z</time>
      </trkpt>
      <trkpt lat="41.65637" lon="26.49508">
        <ele>77.922927</ele>
        <time>2022-02-26T07:27:10.280Z</time>
      </trkpt>
      <trkpt lat="41.6563" lon="26.49497">
        <ele>77.727343</ele>
        <time>2022-02-26T07:27:13.301Z</time>
      </trkpt>
      <trkpt lat="41.65622" lon="26.49486">
        <ele>77.683968</ele>
        <time>2022-02-26T07:27:16.270Z</time>
      </trkpt>
      <trkpt lat="41.65615" lon="26.49475">
        <ele>77.965495</ele>
        <time>2022-02-26T07:27:19.278Z</time>
      </trkpt>
      <trkpt lat="41.65607" lon="26.49463">
        <ele>78.251434</ele>
        <time>2022-02-26T07:27:22.246Z</time>
      </trkpt>
      <trkpt lat="41.65601" lon="26.4945">
        <ele>78.537087</ele>
        <time>2022-02-26T07:27:25.273Z</time>
      </trkpt>
      <trkpt lat="41.65595" lon="26.49437">
        <ele>78.808398</ele>
        <time>2022-02-26T07:27:28.257Z</time>
      </trkpt>
      <trkpt lat="41.6559" lon="26.49424">
        <ele>79.073356</ele>
        <time>2022-02-26T07:27:31.261Z</time>
      </trkpt>
      <trkpt lat="41.65586" lon="26.49412">
        <ele>79.340456</ele>
        <time>2022-02-26T07:27:34.262Z</time>
      </trkpt>
      <trkpt lat="41.65581" lon="26.49399">
        <ele>79.597807</ele>
        <time>2022-02-26T07:27:37.308Z</time>
      </trkpt>
      <trkpt lat="41.65577" lon="26.49387">
        <ele>79.845403</ele>
        <time>2022-02-26T07:27:40.266Z</time>
      </trkpt>
      <trkpt lat="41.65572" lon="26.49374">
        <ele>80.109469</ele>
        <time>2022-02-26T07:27:43.300Z</time>
      </trkpt>
      <trkpt lat="41.65568" lon="26.49362">
        <ele>80.363463</ele>
        <time>2022-02-26T07:27:46.249Z</time>
      </trkpt>
      <trkpt lat="41.65563" lon="26.49348">
        <ele>80.629583</ele>
        <time>2022-02-26T07:27:49.239Z</time>
      </trkpt>
      <trkpt lat="41.65558" lon="26.49334">
        <ele>80.925945</ele>
        <time>2022-02-26T07:27:52.271Z</time>
      </trkpt>
      <trkpt lat="41.65552" lon="26.49321">
        <ele>81.212703</ele>
        <time>2022-02-26T07:27:55.270Z</time>
      </trkpt>
      <trkpt lat="41.65546" lon="26.49307">
        <ele>81.509065</ele>
        <time>2022-02-26T07:27:58.250Z</time>
      </trkpt>
      <trkpt lat="41.65541" lon="26.49293">
        <ele>81.788828</ele>
        <time>2022-02-26T07:28:01.273Z</time>
      </trkpt>
      <trkpt lat="41.65536" lon="26.4928">
        <ele>82.033964</ele>
        <time>2022-02-26T07:28:04.258Z</time>
      </trkpt>
      <trkpt lat="41.65531" lon="26.49268">
        <ele>82.059528</ele>
        <time>2022-02-26T07:28:07.308Z</time>
      </trkpt>
      <trkpt lat="41.65526" lon="26.49256">
        <ele>82.085051</ele>
        <time>2022-02-26T07:28:10.261Z</time>
      </trkpt>
      <trkpt lat="41.65521" lon="26.49244">
        <ele>82.110574</ele>
        <time>2022-02-26T07:28:13.241Z</time>
      </trkpt>
      <trkpt lat="41.65516" lon="26.49231">
        <ele>82.136184</ele>
        <time>2022-02-26T07:28:16.283Z</time>
      </trkpt>
      <trkpt lat="41.65511" lon="26.49219">
        <ele>82.161794</ele>
        <time>2022-02-26T07:28:19.268Z</time>
      </trkpt>
      <trkpt lat="41.65506" lon="26.49208">
        <ele>82.184928</ele>
        <time>2022-02-26T07:28:22.281Z</time>
      </trkpt>
      <trkpt lat="41.65501" lon="26.49195">
        <ele>82.21119</ele>
        <time>2022-02-26T07:28:26.289Z</time>
      </trkpt>
      <trkpt lat="41.65498" lon="26.49184">
        <ele>82.233647</ele>
        <time>2022-02-26T07:28:30.267Z</time>
      </trkpt>
      <trkpt lat="41.65495" lon="26.49169">
        <ele>82.260889</ele>
        <time>2022-02-26T07:28:34.265Z</time>
      </trkpt>
      <trkpt lat="41.65497" lon="26.49155">
        <ele>82.285953</ele>
        <time>2022-02-26T07:28:38.265Z</time>
      </trkpt>
      <trkpt lat="41.65499" lon="26.49142">
        <ele>82.310755</ele>
        <time>2022-02-26T07:28:42.260Z</time>
      </trkpt>
      <trkpt lat="41.65499" lon="26.49128">
        <ele>82.336685</ele>
        <time>2022-02-26T07:28:46.279Z</time>
      </trkpt>
      <trkpt lat="41.65497" lon="26.49115">
        <ele>82.361003</ele>
        <time>2022-02-26T07:28:49.270Z</time>
      </trkpt>
      <trkpt lat="41.65495" lon="26.491">
        <ele>82.388171</ele>
        <time>2022-02-26T07:28:53.277Z</time>
      </trkpt>
      <trkpt lat="41.6549" lon="26.49087">
        <ele>82.415467</ele>
        <time>2022-02-26T07:28:57.260Z</time>
      </trkpt>
      <trkpt lat="41.65484" lon="26.49077">
        <ele>82.439456</ele>
        <time>2022-02-26T07:29:01.276Z</time>
      </trkpt>
      <trkpt lat="41.65474" lon="26.49072">
        <ele>82.464542</ele>
        <time>2022-02-26T07:29:06.247Z</time>
      </trkpt>
      <trkpt lat="41.65464" lon="26.49073">
        <ele>82.35445</ele>
        <time>2022-02-26T07:29:12.280Z</time>
      </trkpt>
      <trkpt lat="41.65455" lon="26.49074">
        <ele>82.214468</ele>
        <time>2022-02-26T07:29:19.264Z</time>
      </trkpt>
      <trkpt lat="41.65444" lon="26.49077">
        <ele>82.043702</ele>
        <time>2022-02-26T07:29:44.261Z</time>
      </trkpt>
      <trkpt lat="41.65434" lon="26.49079">
        <ele>81.89515</ele>
        <time>2022-02-26T07:29:51.270Z</time>
      </trkpt>
      <trkpt lat="41.6543" lon="26.49068">
        <ele>81.752913</ele>
        <time>2022-02-26T07:29:58.279Z</time>
      </trkpt>
      <trkpt lat="41.65428" lon="26.49041">
        <ele>81.442343</ele>
        <time>2022-02-26T07:33:38.279Z</time>
      </trkpt>
      <trkpt lat="41.65431" lon="26.49028">
        <ele>81.294643</ele>
        <time>2022-02-26T07:33:45.248Z</time>
      </trkpt>
      <trkpt lat="41.65429" lon="26.49015">
        <ele>81.139728</ele>
        <time>2022-02-26T07:33:49.277Z</time>
      </trkpt>
      <trkpt lat="41.65424" lon="26.49002">
        <ele>80.981659</ele>
        <time>2022-02-26T07:33:53.302Z</time>
      </trkpt>
      <trkpt lat="41.65421" lon="26.4899">
        <ele>80.828592</ele>
        <time>2022-02-26T07:33:57.247Z</time>
      </trkpt>
      <trkpt lat="41.65418" lon="26.48975">
        <ele>80.657946</ele>
        <time>2022-02-26T07:34:01.279Z</time>
      </trkpt>
      <trkpt lat="41.65415" lon="26.48962">
        <ele>80.501787</ele>
        <time>2022-02-26T07:34:05.271Z</time>
      </trkpt>
      <trkpt lat="41.65412" lon="26.48949">
        <ele>80.347876</ele>
        <time>2022-02-26T07:34:08.279Z</time>
      </trkpt>
      <trkpt lat="41.65407" lon="26.48935">
        <ele>80.174684</ele>
        <time>2022-02-26T07:34:11.263Z</time>
      </trkpt>
      <trkpt lat="41.65403" lon="26.4892">
        <ele>79.99837</ele>
        <time>2022-02-26T07:34:14.278Z</time>
      </trkpt>
      <trkpt lat="41.65399" lon="26.48907">
        <ele>79.836421</ele>
        <time>2022-02-26T07:34:17.282Z</time>
      </trkpt>
      <trkpt lat="41.65396" lon="26.48895">
        <ele>79.766347</ele>
        <time>2022-02-26T07:34:20.309Z</time>
      </trkpt>
      <trkpt lat="41.65392" lon="26.48881">
        <ele>79.806249</ele>
        <time>2022-02-26T07:34:24.254Z</time>
      </trkpt>
      <trkpt lat="41.65389" lon="26.48868">
        <ele>79.844716</ele>
        <time>2022-02-26T07:34:28.249Z</time>
      </trkpt>
      <trkpt lat="41.65385" lon="26.48853">
        <ele>79.887497</ele>
        <time>2022-02-26T07:34:33.271Z</time>
      </trkpt>
      <trkpt lat="41.65381" lon="26.48841">
        <ele>79.924067</ele>
        <time>2022-02-26T07:34:37.263Z</time>
      </trkpt>
      <trkpt lat="41.65377" lon="26.48828">
        <ele>79.963147</ele>
        <time>2022-02-26T07:34:41.284Z</time>
      </trkpt>
      <trkpt lat="41.65373" lon="26.48815">
        <ele>80.000714</ele>
        <time>2022-02-26T07:34:45.243Z</time>
      </trkpt>
      <trkpt lat="41.65369" lon="26.48801">
        <ele>80.043621</ele>
        <time>2022-02-26T07:34:50.259Z</time>
      </trkpt>
      <trkpt lat="41.65364" lon="26.48789">
        <ele>80.08089</ele>
        <time>2022-02-26T07:34:53.264Z</time>
      </trkpt>
      <trkpt lat="41.65358" lon="26.48777">
        <ele>80.121056</ele>
        <time>2022-02-26T07:34:58.304Z</time>
      </trkpt>
      <trkpt lat="41.65353" lon="26.48763">
        <ele>80.164232</ele>
        <time>2022-02-26T07:35:02.280Z</time>
      </trkpt>
      <trkpt lat="41.65347" lon="26.48749">
        <ele>80.206672</ele>
        <time>2022-02-26T07:35:06.262Z</time>
      </trkpt>
      <trkpt lat="41.65343" lon="26.48739">
        <ele>80.240331</ele>
        <time>2022-02-26T07:35:09.261Z</time>
      </trkpt>
      <trkpt lat="41.65338" lon="26.48728">
        <ele>80.274064</ele>
        <time>2022-02-26T07:35:12.288Z</time>
      </trkpt>
      <trkpt lat="41.65331" lon="26.48716">
        <ele>80.316237</ele>
        <time>2022-02-26T07:35:16.281Z</time>
      </trkpt>
      <trkpt lat="41.65323" lon="26.48706">
        <ele>80.355286</ele>
        <time>2022-02-26T07:35:20.277Z</time>
      </trkpt>
      <trkpt lat="41.65317" lon="26.48698">
        <ele>80.389139</ele>
        <time>2022-02-26T07:35:23.267Z</time>
      </trkpt>
      <trkpt lat="41.65308" lon="26.48687">
        <ele>80.488326</ele>
        <time>2022-02-26T07:35:27.270Z</time>
      </trkpt>
      <trkpt lat="41.65299" lon="26.48676">
        <ele>80.675013</ele>
        <time>2022-02-26T07:35:31.269Z</time>
      </trkpt>
      <trkpt lat="41.65292" lon="26.48667">
        <ele>80.816059</ele>
        <time>2022-02-26T07:35:34.268Z</time>
      </trkpt>
      <trkpt lat="41.65286" lon="26.48659">
        <ele>80.958004</ele>
        <time>2022-02-26T07:35:37.271Z</time>
      </trkpt>
      <trkpt lat="41.65278" lon="26.48647">
        <ele>81.136733</ele>
        <time>2022-02-26T07:35:41.271Z</time>
      </trkpt>
      <trkpt lat="41.6527" lon="26.48636">
        <ele>81.306313</ele>
        <time>2022-02-26T07:35:45.280Z</time>
      </trkpt>
      <trkpt lat="41.65262" lon="26.48625">
        <ele>81.485049</ele>
        <time>2022-02-26T07:35:49.332Z</time>
      </trkpt>
      <trkpt lat="41.65254" lon="26.48613">
        <ele>81.667206</ele>
        <time>2022-02-26T07:35:53.272Z</time>
      </trkpt>
      <trkpt lat="41.65247" lon="26.48604">
        <ele>81.822848</ele>
        <time>2022-02-26T07:35:56.263Z</time>
      </trkpt>
      <trkpt lat="41.65239" lon="26.48595">
        <ele>81.981114</ele>
        <time>2022-02-26T07:35:59.280Z</time>
      </trkpt>
      <trkpt lat="41.65231" lon="26.48585">
        <ele>82.141619</ele>
        <time>2022-02-26T07:36:02.279Z</time>
      </trkpt>
      <trkpt lat="41.65223" lon="26.48576">
        <ele>82.302506</ele>
        <time>2022-02-26T07:36:05.269Z</time>
      </trkpt>
      <trkpt lat="41.65216" lon="26.48566">
        <ele>82.46401</ele>
        <time>2022-02-26T07:36:08.251Z</time>
      </trkpt>
      <trkpt lat="41.65209" lon="26.48556">
        <ele>82.612916</ele>
        <time>2022-02-26T07:36:11.301Z</time>
      </trkpt>
      <trkpt lat="41.65203" lon="26.48545">
        <ele>82.775487</ele>
        <time>2022-02-26T07:36:14.260Z</time>
      </trkpt>
      <trkpt lat="41.65196" lon="26.48535">
        <ele>82.920272</ele>
        <time>2022-02-26T07:36:17.279Z</time>
      </trkpt>
      <trkpt lat="41.65188" lon="26.48527">
        <ele>83.075392</ele>
        <time>2022-02-26T07:36:20.279Z</time>
      </trkpt>
      <trkpt lat="41.6518" lon="26.48517">
        <ele>83.212836</ele>
        <time>2022-02-26T07:36:23.271Z</time>
      </trkpt>
      <trkpt lat="41.65172" lon="26.48506">
        <ele>83.325871</ele>
        <time>2022-02-26T07:36:26.266Z</time>
      </trkpt>
      <trkpt lat="41.65165" lon="26.48494">
        <ele>83.433535</ele>
        <time>2022-02-26T07:36:29.268Z</time>
      </trkpt>
      <trkpt lat="41.65158" lon="26.48483">
        <ele>83.536223</ele>
        <time>2022-02-26T07:36:32.270Z</time>
      </trkpt>
      <trkpt lat="41.6515" lon="26.48473">
        <ele>83.641643</ele>
        <time>2022-02-26T07:36:35.269Z</time>
      </trkpt>
      <trkpt lat="41.65142" lon="26.48462">
        <ele>83.749444</ele>
        <time>2022-02-26T07:36:38.277Z</time>
      </trkpt>
      <trkpt lat="41.65134" lon="26.48451">
        <ele>83.85844</ele>
        <time>2022-02-26T07:36:41.272Z</time>
      </trkpt>
      <trkpt lat="41.65127" lon="26.48439">
        <ele>83.969482</ele>
        <time>2022-02-26T07:36:44.285Z</time>
      </trkpt>
      <trkpt lat="41.6512" lon="26.48428">
        <ele>84.073882</ele>
        <time>2022-02-26T07:36:47.263Z</time>
      </trkpt>
      <trkpt lat="41.65113" lon="26.48418">
        <ele>84.171252</ele>
        <time>2022-02-26T07:36:50.266Z</time>
      </trkpt>
      <trkpt lat="41.65106" lon="26.48408">
        <ele>84.271062</ele>
        <time>2022-02-26T07:36:53.271Z</time>
      </trkpt>
      <trkpt lat="41.65098" lon="26.48399">
        <ele>84.370447</ele>
        <time>2022-02-26T07:36:56.282Z</time>
      </trkpt>
      <trkpt lat="41.65092" lon="26.48389">
        <ele>84.462134</ele>
        <time>2022-02-26T07:36:59.264Z</time>
      </trkpt>
      <trkpt lat="41.65086" lon="26.48378">
        <ele>84.560512</ele>
        <time>2022-02-26T07:37:02.276Z</time>
      </trkpt>
      <trkpt lat="41.65081" lon="26.48366">
        <ele>84.660671</ele>
        <time>2022-02-26T07:37:05.271Z</time>
      </trkpt>
      <trkpt lat="41.65074" lon="26.48356">
        <ele>84.761013</ele>
        <time>2022-02-26T07:37:08.268Z</time>
      </trkpt>
      <trkpt lat="41.65067" lon="26.48344">
        <ele>84.864016</ele>
        <time>2022-02-26T07:37:11.280Z</time>
      </trkpt>
      <trkpt lat="41.65059" lon="26.48333">
        <ele>84.826022</ele>
        <time>2022-02-26T07:37:14.259Z</time>
      </trkpt>
      <trkpt lat="41.65052" lon="26.48322">
        <ele>84.751016</ele>
        <time>2022-02-26T07:37:17.266Z</time>
      </trkpt>
      <trkpt lat="41.65046" lon="26.4831">
        <ele>84.676493</ele>
        <time>2022-02-26T07:37:20.288Z</time>
      </trkpt>
      <trkpt lat="41.6504" lon="26.483">
        <ele>84.610241</ele>
        <time>2022-02-26T07:37:23.267Z</time>
      </trkpt>
      <trkpt lat="41.65035" lon="26.48291">
        <ele>84.547178</ele>
        <time>2022-02-26T07:37:26.263Z</time>
      </trkpt>
      <trkpt lat="41.65029" lon="26.48282">
        <ele>84.484835</ele>
        <time>2022-02-26T07:37:29.267Z</time>
      </trkpt>
      <trkpt lat="41.65023" lon="26.48271">
        <ele>84.416845</ele>
        <time>2022-02-26T07:37:32.266Z</time>
      </trkpt>
      <trkpt lat="41.65016" lon="26.4826">
        <ele>84.341725</ele>
        <time>2022-02-26T07:37:35.307Z</time>
      </trkpt>
      <trkpt lat="41.65009" lon="26.48249">
        <ele>84.269171</ele>
        <time>2022-02-26T07:37:38.270Z</time>
      </trkpt>
      <trkpt lat="41.65001" lon="26.48239">
        <ele>84.197561</ele>
        <time>2022-02-26T07:37:41.271Z</time>
      </trkpt>
      <trkpt lat="41.64994" lon="26.48231">
        <ele>84.131727</ele>
        <time>2022-02-26T07:37:44.257Z</time>
      </trkpt>
      <trkpt lat="41.64986" lon="26.4822">
        <ele>84.05375</ele>
        <time>2022-02-26T07:37:48.265Z</time>
      </trkpt>
      <trkpt lat="41.64986" lon="26.48208">
        <ele>83.990551</ele>
        <time>2022-02-26T07:37:52.303Z</time>
      </trkpt>
      <trkpt lat="41.64987" lon="26.48194">
        <ele>83.915765</ele>
        <time>2022-02-26T07:37:57.268Z</time>
      </trkpt>
      <trkpt lat="41.64983" lon="26.48181">
        <ele>83.84428</ele>
        <time>2022-02-26T07:38:02.269Z</time>
      </trkpt>
      <trkpt lat="41.6498" lon="26.48168">
        <ele>83.772096</ele>
        <time>2022-02-26T07:45:15.270Z</time>
      </trkpt>
      <trkpt lat="41.64974" lon="26.48158">
        <ele>83.7083</ele>
        <time>2022-02-26T07:45:23.288Z</time>
      </trkpt>
      <trkpt lat="41.64959" lon="26.48152">
        <ele>83.986228</ele>
        <time>2022-02-26T07:48:40.277Z</time>
      </trkpt>
      <trkpt lat="41.6495" lon="26.48146">
        <ele>84.503434</ele>
        <time>2022-02-26T07:48:44.268Z</time>
      </trkpt>
      <trkpt lat="41.64943" lon="26.48138">
        <ele>84.975253</ele>
        <time>2022-02-26T07:48:48.283Z</time>
      </trkpt>
      <trkpt lat="41.64935" lon="26.48127">
        <ele>85.532424</ele>
        <time>2022-02-26T07:48:52.276Z</time>
      </trkpt>
      <trkpt lat="41.64928" lon="26.48119">
        <ele>85.983301</ele>
        <time>2022-02-26T07:48:55.314Z</time>
      </trkpt>
      <trkpt lat="41.64922" lon="26.4811">
        <ele>86.429675</ele>
        <time>2022-02-26T07:48:58.282Z</time>
      </trkpt>
      <trkpt lat="41.64916" lon="26.481">
        <ele>86.916541</ele>
        <time>2022-02-26T07:49:01.284Z</time>
      </trkpt>
      <trkpt lat="41.6491" lon="26.48091">
        <ele>87.364559</ele>
        <time>2022-02-26T07:49:04.288Z</time>
      </trkpt>
      <trkpt lat="41.64903" lon="26.48082">
        <ele>87.825135</ele>
        <time>2022-02-26T07:49:07.279Z</time>
      </trkpt>
      <trkpt lat="41.64896" lon="26.48071">
        <ele>88.373507</ele>
        <time>2022-02-26T07:49:11.257Z</time>
      </trkpt>
      <trkpt lat="41.64889" lon="26.4806">
        <ele>88.907001</ele>
        <time>2022-02-26T07:49:15.296Z</time>
      </trkpt>
      <trkpt lat="41.64882" lon="26.48047">
        <ele>89.512318</ele>
        <time>2022-02-26T07:49:19.271Z</time>
      </trkpt>
      <trkpt lat="41.64876" lon="26.48037">
        <ele>89.995823</ele>
        <time>2022-02-26T07:49:22.273Z</time>
      </trkpt>
      <trkpt lat="41.6487" lon="26.48027">
        <ele>90.467575</ele>
        <time>2022-02-26T07:49:25.283Z</time>
      </trkpt>
      <trkpt lat="41.64863" lon="26.48016">
        <ele>90.971731</ele>
        <time>2022-02-26T07:49:28.328Z</time>
      </trkpt>
      <trkpt lat="41.64857" lon="26.48007">
        <ele>91.443009</ele>
        <time>2022-02-26T07:49:31.271Z</time>
      </trkpt>
      <trkpt lat="41.64851" lon="26.47997">
        <ele>91.90303</ele>
        <time>2022-02-26T07:49:34.265Z</time>
      </trkpt>
      <trkpt lat="41.64844" lon="26.47987">
        <ele>92.408426</ele>
        <time>2022-02-26T07:49:37.280Z</time>
      </trkpt>
      <trkpt lat="41.64838" lon="26.47977">
        <ele>92.537984</ele>
        <time>2022-02-26T07:49:40.309Z</time>
      </trkpt>
      <trkpt lat="41.64833" lon="26.47968">
        <ele>92.509646</ele>
        <time>2022-02-26T07:49:43.290Z</time>
      </trkpt>
      <trkpt lat="41.64827" lon="26.47958">
        <ele>92.480134</ele>
        <time>2022-02-26T07:49:46.278Z</time>
      </trkpt>
      <trkpt lat="41.64821" lon="26.47948">
        <ele>92.45105</ele>
        <time>2022-02-26T07:49:49.251Z</time>
      </trkpt>
      <trkpt lat="41.64814" lon="26.47939">
        <ele>92.420191</ele>
        <time>2022-02-26T07:49:52.264Z</time>
      </trkpt>
      <trkpt lat="41.64807" lon="26.47929">
        <ele>92.388101</ele>
        <time>2022-02-26T07:49:55.266Z</time>
      </trkpt>
      <trkpt lat="41.64799" lon="26.4792">
        <ele>92.355695</ele>
        <time>2022-02-26T07:49:58.274Z</time>
      </trkpt>
      <trkpt lat="41.64791" lon="26.47911">
        <ele>92.324588</ele>
        <time>2022-02-26T07:50:01.279Z</time>
      </trkpt>
      <trkpt lat="41.64786" lon="26.47898">
        <ele>92.28766</ele>
        <time>2022-02-26T07:50:05.267Z</time>
      </trkpt>
      <trkpt lat="41.6478" lon="26.47886">
        <ele>92.256444</ele>
        <time>2022-02-26T07:50:08.300Z</time>
      </trkpt>
      <trkpt lat="41.64772" lon="26.47876">
        <ele>92.221357</ele>
        <time>2022-02-26T07:50:11.268Z</time>
      </trkpt>
      <trkpt lat="41.64766" lon="26.47865">
        <ele>92.189462</ele>
        <time>2022-02-26T07:50:14.314Z</time>
      </trkpt>
      <trkpt lat="41.64759" lon="26.47854">
        <ele>92.154739</ele>
        <time>2022-02-26T07:50:17.260Z</time>
      </trkpt>
      <trkpt lat="41.64754" lon="26.47842">
        <ele>92.121732</ele>
        <time>2022-02-26T07:50:20.273Z</time>
      </trkpt>
      <trkpt lat="41.64747" lon="26.4783">
        <ele>92.086796</ele>
        <time>2022-02-26T07:50:23.279Z</time>
      </trkpt>
      <trkpt lat="41.6474" lon="26.4782">
        <ele>92.053764</ele>
        <time>2022-02-26T07:50:26.272Z</time>
      </trkpt>
      <trkpt lat="41.64733" lon="26.47809">
        <ele>92.022054</ele>
        <time>2022-02-26T07:50:29.265Z</time>
      </trkpt>
      <trkpt lat="41.64729" lon="26.47798">
        <ele>92.003631</ele>
        <time>2022-02-26T07:50:32.300Z</time>
      </trkpt>
      <trkpt lat="41.64723" lon="26.47788">
        <ele>92.129248</ele>
        <time>2022-02-26T07:50:35.279Z</time>
      </trkpt>
      <trkpt lat="41.64714" lon="26.47779">
        <ele>92.282904</ele>
        <time>2022-02-26T07:50:38.272Z</time>
      </trkpt>
      <trkpt lat="41.64705" lon="26.47769">
        <ele>92.444258</ele>
        <time>2022-02-26T07:50:41.289Z</time>
      </trkpt>
      <trkpt lat="41.64695" lon="26.47761">
        <ele>92.598691</ele>
        <time>2022-02-26T07:50:44.267Z</time>
      </trkpt>
      <trkpt lat="41.64687" lon="26.47752">
        <ele>92.749565</ele>
        <time>2022-02-26T07:50:47.270Z</time>
      </trkpt>
      <trkpt lat="41.64681" lon="26.47742">
        <ele>92.875901</ele>
        <time>2022-02-26T07:50:50.271Z</time>
      </trkpt>
      <trkpt lat="41.64678" lon="26.47731">
        <ele>93.00317</ele>
        <time>2022-02-26T07:50:53.299Z</time>
      </trkpt>
      <trkpt lat="41.64671" lon="26.4772">
        <ele>93.139661</ele>
        <time>2022-02-26T07:50:56.253Z</time>
      </trkpt>
      <trkpt lat="41.64664" lon="26.4771">
        <ele>93.283611</ele>
        <time>2022-02-26T07:50:59.300Z</time>
      </trkpt>
      <trkpt lat="41.64659" lon="26.47699">
        <ele>93.418631</ele>
        <time>2022-02-26T07:51:02.259Z</time>
      </trkpt>
      <trkpt lat="41.64653" lon="26.47689">
        <ele>93.55602</ele>
        <time>2022-02-26T07:51:05.272Z</time>
      </trkpt>
      <trkpt lat="41.64647" lon="26.47677">
        <ele>93.695626</ele>
        <time>2022-02-26T07:51:08.263Z</time>
      </trkpt>
      <trkpt lat="41.64641" lon="26.47666">
        <ele>93.840834</ele>
        <time>2022-02-26T07:51:11.269Z</time>
      </trkpt>
      <trkpt lat="41.64634" lon="26.47655">
        <ele>93.981939</ele>
        <time>2022-02-26T07:51:14.273Z</time>
      </trkpt>
      <trkpt lat="41.64629" lon="26.47644">
        <ele>94.11901</ele>
        <time>2022-02-26T07:51:17.272Z</time>
      </trkpt>
      <trkpt lat="41.64621" lon="26.47632">
        <ele>94.281099</ele>
        <time>2022-02-26T07:51:20.279Z</time>
      </trkpt>
      <trkpt lat="41.64614" lon="26.4762">
        <ele>94.435375</ele>
        <time>2022-02-26T07:51:23.261Z</time>
      </trkpt>
      <trkpt lat="41.64608" lon="26.47609">
        <ele>94.681201</ele>
        <time>2022-02-26T07:51:26.288Z</time>
      </trkpt>
      <trkpt lat="41.64602" lon="26.47596">
        <ele>94.988544</ele>
        <time>2022-02-26T07:51:30.272Z</time>
      </trkpt>
      <trkpt lat="41.64597" lon="26.47582">
        <ele>95.290465</ele>
        <time>2022-02-26T07:51:34.256Z</time>
      </trkpt>
      <trkpt lat="41.64595" lon="26.47567">
        <ele>95.595988</ele>
        <time>2022-02-26T07:51:38.290Z</time>
      </trkpt>
      <trkpt lat="41.64596" lon="26.47551">
        <ele>95.901957</ele>
        <time>2022-02-26T07:51:41.273Z</time>
      </trkpt>
      <trkpt lat="41.64599" lon="26.47536">
        <ele>96.223073</ele>
        <time>2022-02-26T07:51:44.267Z</time>
      </trkpt>
      <trkpt lat="41.64607" lon="26.47528">
        <ele>96.489116</ele>
        <time>2022-02-26T07:51:48.259Z</time>
      </trkpt>
      <trkpt lat="41.64617" lon="26.47528">
        <ele>96.756212</ele>
        <time>2022-02-26T07:51:51.269Z</time>
      </trkpt>
      <trkpt lat="41.64628" lon="26.47528">
        <ele>97.041873</ele>
        <time>2022-02-26T07:51:54.259Z</time>
      </trkpt>
      <trkpt lat="41.64639" lon="26.47527">
        <ele>97.325269</ele>
        <time>2022-02-26T07:51:57.308Z</time>
      </trkpt>
      <trkpt lat="41.6465" lon="26.47525">
        <ele>97.631937</ele>
        <time>2022-02-26T07:52:00.274Z</time>
      </trkpt>
      <trkpt lat="41.64662" lon="26.4752">
        <ele>97.940062</ele>
        <time>2022-02-26T07:52:03.277Z</time>
      </trkpt>
      <trkpt lat="41.64672" lon="26.47514">
        <ele>98.243557</ele>
        <time>2022-02-26T07:52:06.272Z</time>
      </trkpt>
      <trkpt lat="41.64684" lon="26.47507">
        <ele>98.589007</ele>
        <time>2022-02-26T07:52:09.304Z</time>
      </trkpt>
      <trkpt lat="41.64696" lon="26.47498">
        <ele>98.948174</ele>
        <time>2022-02-26T07:52:12.264Z</time>
      </trkpt>
      <trkpt lat="41.64705" lon="26.47491">
        <ele>99.21303</ele>
        <time>2022-02-26T07:52:14.273Z</time>
      </trkpt>
      <trkpt lat="41.64714" lon="26.47485">
        <ele>98.912112</ele>
        <time>2022-02-26T07:52:16.280Z</time>
      </trkpt>
      <trkpt lat="41.64723" lon="26.47478">
        <ele>98.58842</ele>
        <time>2022-02-26T07:52:18.273Z</time>
      </trkpt>
      <trkpt lat="41.64732" lon="26.4747">
        <ele>98.267024</ele>
        <time>2022-02-26T07:52:20.242Z</time>
      </trkpt>
      <trkpt lat="41.64742" lon="26.47464">
        <ele>97.952225</ele>
        <time>2022-02-26T07:52:22.283Z</time>
      </trkpt>
      <trkpt lat="41.6475" lon="26.47457">
        <ele>97.656629</ele>
        <time>2022-02-26T07:52:24.274Z</time>
      </trkpt>
      <trkpt lat="41.64759" lon="26.4745">
        <ele>97.366514</ele>
        <time>2022-02-26T07:52:26.279Z</time>
      </trkpt>
      <trkpt lat="41.64767" lon="26.47443">
        <ele>97.080135</ele>
        <time>2022-02-26T07:52:28.283Z</time>
      </trkpt>
      <trkpt lat="41.64775" lon="26.47435">
        <ele>96.785103</ele>
        <time>2022-02-26T07:52:30.273Z</time>
      </trkpt>
      <trkpt lat="41.64783" lon="26.47427">
        <ele>96.476423</ele>
        <time>2022-02-26T07:52:32.248Z</time>
      </trkpt>
      <trkpt lat="41.6479" lon="26.47419">
        <ele>96.202985</ele>
        <time>2022-02-26T07:52:34.278Z</time>
      </trkpt>
      <trkpt lat="41.64799" lon="26.47409">
        <ele>95.86746</ele>
        <time>2022-02-26T07:52:37.297Z</time>
      </trkpt>
      <trkpt lat="41.64806" lon="26.474">
        <ele>95.558541</ele>
        <time>2022-02-26T07:52:40.276Z</time>
      </trkpt>
      <trkpt lat="41.64814" lon="26.47389">
        <ele>95.222732</ele>
        <time>2022-02-26T07:52:43.264Z</time>
      </trkpt>
      <trkpt lat="41.64821" lon="26.47378">
        <ele>94.908735</ele>
        <time>2022-02-26T07:52:46.270Z</time>
      </trkpt>
      <trkpt lat="41.64828" lon="26.47368">
        <ele>94.614671</ele>
        <time>2022-02-26T07:52:49.307Z</time>
      </trkpt>
      <trkpt lat="41.64834" lon="26.4736">
        <ele>94.344715</ele>
        <time>2022-02-26T07:52:52.283Z</time>
      </trkpt>
      <trkpt lat="41.64842" lon="26.47351">
        <ele>94.038508</ele>
        <time>2022-02-26T07:52:55.307Z</time>
      </trkpt>
      <trkpt lat="41.64852" lon="26.47343">
        <ele>93.627724</ele>
        <time>2022-02-26T07:52:58.267Z</time>
      </trkpt>
      <trkpt lat="41.6486" lon="26.47337">
        <ele>93.225388</ele>
        <time>2022-02-26T07:53:00.260Z</time>
      </trkpt>
      <trkpt lat="41.64869" lon="26.47332">
        <ele>92.83303</ele>
        <time>2022-02-26T07:53:02.274Z</time>
      </trkpt>
      <trkpt lat="41.64881" lon="26.47325">
        <ele>92.276597</ele>
        <time>2022-02-26T07:53:05.270Z</time>
      </trkpt>
      <trkpt lat="41.6489" lon="26.47319">
        <ele>91.864112</ele>
        <time>2022-02-26T07:53:07.309Z</time>
      </trkpt>
      <trkpt lat="41.64898" lon="26.47314">
        <ele>91.478597</ele>
        <time>2022-02-26T07:53:09.278Z</time>
      </trkpt>
      <trkpt lat="41.64909" lon="26.47308">
        <ele>90.955537</ele>
        <time>2022-02-26T07:53:12.251Z</time>
      </trkpt>
      <trkpt lat="41.64921" lon="26.47301">
        <ele>90.444104</ele>
        <time>2022-02-26T07:53:15.266Z</time>
      </trkpt>
      <trkpt lat="41.64931" lon="26.47295">
        <ele>89.954527</ele>
        <time>2022-02-26T07:53:18.253Z</time>
      </trkpt>
      <trkpt lat="41.64941" lon="26.47289">
        <ele>89.490636</ele>
        <time>2022-02-26T07:53:21.260Z</time>
      </trkpt>
      <trkpt lat="41.64951" lon="26.47282">
        <ele>89.041689</ele>
        <time>2022-02-26T07:53:24.269Z</time>
      </trkpt>
      <trkpt lat="41.64961" lon="26.47276">
        <ele>88.564817</ele>
        <time>2022-02-26T07:53:27.266Z</time>
      </trkpt>
      <trkpt lat="41.6497" lon="26.47269">
        <ele>88.123395</ele>
        <time>2022-02-26T07:53:30.264Z</time>
      </trkpt>
      <trkpt lat="41.64979" lon="26.47263">
        <ele>87.688675</ele>
        <time>2022-02-26T07:53:33.306Z</time>
      </trkpt>
      <trkpt lat="41.64989" lon="26.47258">
        <ele>87.2617</ele>
        <time>2022-02-26T07:53:36.277Z</time>
      </trkpt>
      <trkpt lat="41.64998" lon="26.47254">
        <ele>86.857099</ele>
        <time>2022-02-26T07:53:39.260Z</time>
      </trkpt>
      <trkpt lat="41.65008" lon="26.47252">
        <ele>86.406461</ele>
        <time>2022-02-26T07:53:42.273Z</time>
      </trkpt>
      <trkpt lat="41.6502" lon="26.47253">
        <ele>86.108644</ele>
        <time>2022-02-26T07:53:45.264Z</time>
      </trkpt>
      <trkpt lat="41.65031" lon="26.47253">
        <ele>85.874665</ele>
        <time>2022-02-26T07:53:48.277Z</time>
      </trkpt>
      <trkpt lat="41.65044" lon="26.47254">
        <ele>85.624622</ele>
        <time>2022-02-26T07:53:51.280Z</time>
      </trkpt>
      <trkpt lat="41.65056" lon="26.47255">
        <ele>85.376544</ele>
        <time>2022-02-26T07:53:54.275Z</time>
      </trkpt>
      <trkpt lat="41.65067" lon="26.47255">
        <ele>85.164568</ele>
        <time>2022-02-26T07:53:57.297Z</time>
      </trkpt>
      <trkpt lat="41.65076" lon="26.47256">
        <ele>84.973036</ele>
        <time>2022-02-26T07:54:00.276Z</time>
      </trkpt>
      <trkpt lat="41.65087" lon="26.47255">
        <ele>84.753155</ele>
        <time>2022-02-26T07:54:04.289Z</time>
      </trkpt>
      <trkpt lat="41.65077" lon="26.47247">
        <ele>84.520202</ele>
        <time>2022-02-26T07:58:29.252Z</time>
      </trkpt>
      <trkpt lat="41.65065" lon="26.47247">
        <ele>84.282323</ele>
        <time>2022-02-26T07:58:32.263Z</time>
      </trkpt>
      <trkpt lat="41.65052" lon="26.47247">
        <ele>84.020193</ele>
        <time>2022-02-26T07:58:35.266Z</time>
      </trkpt>
      <trkpt lat="41.6504" lon="26.47247">
        <ele>83.774179</ele>
        <time>2022-02-26T07:58:38.258Z</time>
      </trkpt>
      <trkpt lat="41.65028" lon="26.47246">
        <ele>83.536339</ele>
        <time>2022-02-26T07:58:41.261Z</time>
      </trkpt>
      <trkpt lat="41.65017" lon="26.47246">
        <ele>83.314622</ele>
        <time>2022-02-26T07:58:44.291Z</time>
      </trkpt>
      <trkpt lat="41.65006" lon="26.4725">
        <ele>83.081505</ele>
        <time>2022-02-26T07:58:47.280Z</time>
      </trkpt>
      <trkpt lat="41.64998" lon="26.47253">
        <ele>82.89943</ele>
        <time>2022-02-26T07:58:49.282Z</time>
      </trkpt>
      <trkpt lat="41.64985" lon="26.47259">
        <ele>82.640844</ele>
        <time>2022-02-26T07:58:52.258Z</time>
      </trkpt>
      <trkpt lat="41.64973" lon="26.47265">
        <ele>82.395807</ele>
        <time>2022-02-26T07:58:55.263Z</time>
      </trkpt>
      <trkpt lat="41.64962" lon="26.47272">
        <ele>82.158473</ele>
        <time>2022-02-26T07:58:58.268Z</time>
      </trkpt>
      <trkpt lat="41.6495" lon="26.47279">
        <ele>81.918249</ele>
        <time>2022-02-26T07:59:01.264Z</time>
      </trkpt>
      <trkpt lat="41.64942" lon="26.47284">
        <ele>81.743247</ele>
        <time>2022-02-26T07:59:03.281Z</time>
      </trkpt>
      <trkpt lat="41.64933" lon="26.47288">
        <ele>81.570369</ele>
        <time>2022-02-26T07:59:05.270Z</time>
      </trkpt>
      <trkpt lat="41.64924" lon="26.47293">
        <ele>81.387273</ele>
        <time>2022-02-26T07:59:07.272Z</time>
      </trkpt>
      <trkpt lat="41.64915" lon="26.47298">
        <ele>81.200673</ele>
        <time>2022-02-26T07:59:09.268Z</time>
      </trkpt>
      <trkpt lat="41.64906" lon="26.47303">
        <ele>81.015279</ele>
        <time>2022-02-26T07:59:11.280Z</time>
      </trkpt>
      <trkpt lat="41.64897" lon="26.47308">
        <ele>80.832021</ele>
        <time>2022-02-26T07:59:13.283Z</time>
      </trkpt>
      <trkpt lat="41.64889" lon="26.47313">
        <ele>80.652417</ele>
        <time>2022-02-26T07:59:15.285Z</time>
      </trkpt>
      <trkpt lat="41.6488" lon="26.47318">
        <ele>80.473367</ele>
        <time>2022-02-26T07:59:17.325Z</time>
      </trkpt>
      <trkpt lat="41.64868" lon="26.47326">
        <ele>80.225828</ele>
        <time>2022-02-26T07:59:20.274Z</time>
      </trkpt>
      <trkpt lat="41.6486" lon="26.47331">
        <ele>80.052887</ele>
        <time>2022-02-26T07:59:22.277Z</time>
      </trkpt>
      <trkpt lat="41.6485" lon="26.47342">
        <ele>79.813721</ele>
        <time>2022-02-26T07:59:25.265Z</time>
      </trkpt>
      <trkpt lat="41.64842" lon="26.47351">
        <ele>79.602192</ele>
        <time>2022-02-26T07:59:28.256Z</time>
      </trkpt>
      <trkpt lat="41.64834" lon="26.47361">
        <ele>79.404345</ele>
        <time>2022-02-26T07:59:31.285Z</time>
      </trkpt>
      <trkpt lat="41.64827" lon="26.4737">
        <ele>79.35314</ele>
        <time>2022-02-26T07:59:34.266Z</time>
      </trkpt>
      <trkpt lat="41.64818" lon="26.47382">
        <ele>80.203969</ele>
        <time>2022-02-26T07:59:37.280Z</time>
      </trkpt>
      <trkpt lat="41.64809" lon="26.47393">
        <ele>81.078286</ele>
        <time>2022-02-26T07:59:40.266Z</time>
      </trkpt>
      <trkpt lat="41.648" lon="26.47404">
        <ele>81.935325</ele>
        <time>2022-02-26T07:59:43.262Z</time>
      </trkpt>
      <trkpt lat="41.64793" lon="26.47412">
        <ele>82.564297</ele>
        <time>2022-02-26T07:59:45.280Z</time>
      </trkpt>
      <trkpt lat="41.64786" lon="26.47421">
        <ele>83.260894</ele>
        <time>2022-02-26T07:59:47.266Z</time>
      </trkpt>
      <trkpt lat="41.64778" lon="26.47429">
        <ele>83.934913</ele>
        <time>2022-02-26T07:59:49.273Z</time>
      </trkpt>
      <trkpt lat="41.6477" lon="26.47436">
        <ele>84.590258</ele>
        <time>2022-02-26T07:59:51.272Z</time>
      </trkpt>
      <trkpt lat="41.64759" lon="26.47446">
        <ele>85.485164</ele>
        <time>2022-02-26T07:59:54.264Z</time>
      </trkpt>
      <trkpt lat="41.64749" lon="26.47454">
        <ele>86.299891</ele>
        <time>2022-02-26T07:59:57.274Z</time>
      </trkpt>
      <trkpt lat="41.6474" lon="26.47462">
        <ele>87.064916</ele>
        <time>2022-02-26T08:00:00.299Z</time>
      </trkpt>
      <trkpt lat="41.6473" lon="26.47471">
        <ele>87.884878</ele>
        <time>2022-02-26T08:00:04.287Z</time>
      </trkpt>
      <trkpt lat="41.6472" lon="26.47478">
        <ele>88.72541</ele>
        <time>2022-02-26T08:00:08.264Z</time>
      </trkpt>
      <trkpt lat="41.64711" lon="26.47484">
        <ele>89.371086</ele>
        <time>2022-02-26T08:00:11.281Z</time>
      </trkpt>
      <trkpt lat="41.64702" lon="26.47493">
        <ele>90.144994</ele>
        <time>2022-02-26T08:00:15.271Z</time>
      </trkpt>
      <trkpt lat="41.64695" lon="26.47499">
        <ele>90.774679</ele>
        <time>2022-02-26T08:00:18.316Z</time>
      </trkpt>
      <trkpt lat="41.64684" lon="26.47507">
        <ele>91.60288</ele>
        <time>2022-02-26T08:00:22.269Z</time>
      </trkpt>
      <trkpt lat="41.64676" lon="26.47512">
        <ele>91.787698</ele>
        <time>2022-02-26T08:00:25.275Z</time>
      </trkpt>
      <trkpt lat="41.64665" lon="26.47517">
        <ele>91.864298</ele>
        <time>2022-02-26T08:00:29.300Z</time>
      </trkpt>
      <trkpt lat="41.64655" lon="26.4752">
        <ele>91.933131</ele>
        <time>2022-02-26T08:00:32.294Z</time>
      </trkpt>
      <trkpt lat="41.64644" lon="26.47523">
        <ele>92.011729</ele>
        <time>2022-02-26T08:00:35.315Z</time>
      </trkpt>
      <trkpt lat="41.64634" lon="26.47524">
        <ele>92.081001</ele>
        <time>2022-02-26T08:00:38.276Z</time>
      </trkpt>
      <trkpt lat="41.64622" lon="26.47526">
        <ele>92.161387</ele>
        <time>2022-02-26T08:00:42.274Z</time>
      </trkpt>
      <trkpt lat="41.64612" lon="26.47528">
        <ele>92.226111</ele>
        <time>2022-02-26T08:00:45.290Z</time>
      </trkpt>
      <trkpt lat="41.64601" lon="26.47529">
        <ele>92.302214</ele>
        <time>2022-02-26T08:00:49.262Z</time>
      </trkpt>
      <trkpt lat="41.64592" lon="26.47526">
        <ele>92.367281</ele>
        <time>2022-02-26T08:00:52.260Z</time>
      </trkpt>
      <trkpt lat="41.64583" lon="26.47519">
        <ele>92.434099</ele>
        <time>2022-02-26T08:00:55.266Z</time>
      </trkpt>
      <trkpt lat="41.64575" lon="26.47513">
        <ele>92.498981</ele>
        <time>2022-02-26T08:00:58.285Z</time>
      </trkpt>
      <trkpt lat="41.64567" lon="26.47506">
        <ele>92.562061</ele>
        <time>2022-02-26T08:01:01.277Z</time>
      </trkpt>
      <trkpt lat="41.6456" lon="26.47499">
        <ele>92.625397</ele>
        <time>2022-02-26T08:01:04.284Z</time>
      </trkpt>
      <trkpt lat="41.64551" lon="26.47489">
        <ele>92.702507</ele>
        <time>2022-02-26T08:01:08.277Z</time>
      </trkpt>
      <trkpt lat="41.64545" lon="26.47479">
        <ele>92.76943</ele>
        <time>2022-02-26T08:01:11.289Z</time>
      </trkpt>
      <trkpt lat="41.64539" lon="26.47465">
        <ele>92.849038</ele>
        <time>2022-02-26T08:01:14.301Z</time>
      </trkpt>
      <trkpt lat="41.64536" lon="26.4745">
        <ele>92.927991</ele>
        <time>2022-02-26T08:01:17.272Z</time>
      </trkpt>
      <trkpt lat="41.64532" lon="26.47435">
        <ele>93.042936</ele>
        <time>2022-02-26T08:01:20.270Z</time>
      </trkpt>
      <trkpt lat="41.64529" lon="26.47421">
        <ele>93.16296</ele>
        <time>2022-02-26T08:01:23.276Z</time>
      </trkpt>
      <trkpt lat="41.64527" lon="26.47405">
        <ele>93.290561</ele>
        <time>2022-02-26T08:01:26.280Z</time>
      </trkpt>
      <trkpt lat="41.64526" lon="26.47391">
        <ele>93.411693</ele>
        <time>2022-02-26T08:01:29.266Z</time>
      </trkpt>
      <trkpt lat="41.64524" lon="26.47377">
        <ele>93.52632</ele>
        <time>2022-02-26T08:01:32.288Z</time>
      </trkpt>
      <trkpt lat="41.64523" lon="26.47363">
        <ele>93.64369</ele>
        <time>2022-02-26T08:01:35.280Z</time>
      </trkpt>
      <trkpt lat="41.64522" lon="26.47349">
        <ele>93.759149</ele>
        <time>2022-02-26T08:01:38.324Z</time>
      </trkpt>
      <trkpt lat="41.6452" lon="26.47333">
        <ele>93.890997</ele>
        <time>2022-02-26T08:01:41.278Z</time>
      </trkpt>
      <trkpt lat="41.64517" lon="26.47317">
        <ele>94.024325</ele>
        <time>2022-02-26T08:01:44.276Z</time>
      </trkpt>
      <trkpt lat="41.64517" lon="26.47302">
        <ele>94.155654</ele>
        <time>2022-02-26T08:01:47.305Z</time>
      </trkpt>
      <trkpt lat="41.64515" lon="26.47285">
        <ele>94.293205</ele>
        <time>2022-02-26T08:01:50.285Z</time>
      </trkpt>
      <trkpt lat="41.64514" lon="26.47268">
        <ele>94.430469</ele>
        <time>2022-02-26T08:01:53.271Z</time>
      </trkpt>
      <trkpt lat="41.64512" lon="26.47252">
        <ele>94.564995</ele>
        <time>2022-02-26T08:01:56.293Z</time>
      </trkpt>
      <trkpt lat="41.6451" lon="26.47237">
        <ele>94.695625</ele>
        <time>2022-02-26T08:01:59.264Z</time>
      </trkpt>
      <trkpt lat="41.64506" lon="26.47223">
        <ele>94.818011</ele>
        <time>2022-02-26T08:02:02.275Z</time>
      </trkpt>
      <trkpt lat="41.64503" lon="26.4721">
        <ele>94.931031</ele>
        <time>2022-02-26T08:02:05.267Z</time>
      </trkpt>
      <trkpt lat="41.64501" lon="26.47194">
        <ele>94.902198</ele>
        <time>2022-02-26T08:02:08.279Z</time>
      </trkpt>
      <trkpt lat="41.64499" lon="26.47179">
        <ele>94.865607</ele>
        <time>2022-02-26T08:02:11.280Z</time>
      </trkpt>
      <trkpt lat="41.64497" lon="26.47163">
        <ele>94.824347</ele>
        <time>2022-02-26T08:02:14.275Z</time>
      </trkpt>
      <trkpt lat="41.64494" lon="26.47146">
        <ele>94.781045</ele>
        <time>2022-02-26T08:02:17.288Z</time>
      </trkpt>
      <trkpt lat="41.64492" lon="26.4713">
        <ele>94.740738</ele>
        <time>2022-02-26T08:02:20.278Z</time>
      </trkpt>
      <trkpt lat="41.64489" lon="26.47114">
        <ele>94.699288</ele>
        <time>2022-02-26T08:02:23.256Z</time>
      </trkpt>
      <trkpt lat="41.64487" lon="26.47097">
        <ele>94.656145</ele>
        <time>2022-02-26T08:02:26.263Z</time>
      </trkpt>
      <trkpt lat="41.64483" lon="26.47081">
        <ele>94.6137</ele>
        <time>2022-02-26T08:02:29.307Z</time>
      </trkpt>
      <trkpt lat="41.64479" lon="26.47065">
        <ele>94.572962</ele>
        <time>2022-02-26T08:02:32.257Z</time>
      </trkpt>
      <trkpt lat="41.64475" lon="26.47051">
        <ele>94.534355</ele>
        <time>2022-02-26T08:02:35.298Z</time>
      </trkpt>
      <trkpt lat="41.64473" lon="26.47034">
        <ele>94.492732</ele>
        <time>2022-02-26T08:02:38.285Z</time>
      </trkpt>
      <trkpt lat="41.6447" lon="26.47018">
        <ele>94.45016</ele>
        <time>2022-02-26T08:02:41.258Z</time>
      </trkpt>
      <trkpt lat="41.64467" lon="26.47003">
        <ele>94.412107</ele>
        <time>2022-02-26T08:02:44.308Z</time>
      </trkpt>
      <trkpt lat="41.64463" lon="26.46989">
        <ele>94.373917</ele>
        <time>2022-02-26T08:02:47.279Z</time>
      </trkpt>
      <trkpt lat="41.6446" lon="26.46974">
        <ele>94.329229</ele>
        <time>2022-02-26T08:02:50.249Z</time>
      </trkpt>
      <trkpt lat="41.64457" lon="26.46959">
        <ele>94.216929</ele>
        <time>2022-02-26T08:02:53.268Z</time>
      </trkpt>
      <trkpt lat="41.64452" lon="26.46944">
        <ele>94.097675</ele>
        <time>2022-02-26T08:02:56.340Z</time>
      </trkpt>
      <trkpt lat="41.64448" lon="26.46929">
        <ele>93.980749</ele>
        <time>2022-02-26T08:02:59.283Z</time>
      </trkpt>
      <trkpt lat="41.64445" lon="26.46913">
        <ele>93.861809</ele>
        <time>2022-02-26T08:03:02.279Z</time>
      </trkpt>
      <trkpt lat="41.6444" lon="26.46896">
        <ele>93.731258</ele>
        <time>2022-02-26T08:03:05.298Z</time>
      </trkpt>
      <trkpt lat="41.64437" lon="26.46884">
        <ele>93.63834</ele>
        <time>2022-02-26T08:03:07.312Z</time>
      </trkpt>
      <trkpt lat="41.64433" lon="26.46873">
        <ele>93.545682</ele>
        <time>2022-02-26T08:03:09.269Z</time>
      </trkpt>
      <trkpt lat="41.64427" lon="26.46861">
        <ele>93.44543</ele>
        <time>2022-02-26T08:03:11.273Z</time>
      </trkpt>
      <trkpt lat="41.64421" lon="26.46849">
        <ele>93.343704</ele>
        <time>2022-02-26T08:03:13.276Z</time>
      </trkpt>
      <trkpt lat="41.64415" lon="26.46838">
        <ele>93.240827</ele>
        <time>2022-02-26T08:03:15.261Z</time>
      </trkpt>
      <trkpt lat="41.64408" lon="26.46826">
        <ele>93.135084</ele>
        <time>2022-02-26T08:03:17.271Z</time>
      </trkpt>
      <trkpt lat="41.64401" lon="26.46816">
        <ele>93.033692</ele>
        <time>2022-02-26T08:03:19.279Z</time>
      </trkpt>
      <trkpt lat="41.64394" lon="26.46806">
        <ele>92.932058</ele>
        <time>2022-02-26T08:03:21.287Z</time>
      </trkpt>
      <trkpt lat="41.64387" lon="26.46795">
        <ele>92.829233</ele>
        <time>2022-02-26T08:03:23.281Z</time>
      </trkpt>
      <trkpt lat="41.6438" lon="26.46785">
        <ele>92.731821</ele>
        <time>2022-02-26T08:03:25.279Z</time>
      </trkpt>
      <trkpt lat="41.64373" lon="26.46776">
        <ele>92.635884</ele>
        <time>2022-02-26T08:03:27.299Z</time>
      </trkpt>
      <trkpt lat="41.64367" lon="26.46767">
        <ele>92.630687</ele>
        <time>2022-02-26T08:03:29.266Z</time>
      </trkpt>
      <trkpt lat="41.6436" lon="26.46758">
        <ele>92.700254</ele>
        <time>2022-02-26T08:03:31.261Z</time>
      </trkpt>
      <trkpt lat="41.64351" lon="26.46745">
        <ele>92.797005</ele>
        <time>2022-02-26T08:03:34.309Z</time>
      </trkpt>
      <trkpt lat="41.64342" lon="26.46733">
        <ele>92.894847</ele>
        <time>2022-02-26T08:03:37.276Z</time>
      </trkpt>
      <trkpt lat="41.64334" lon="26.4672">
        <ele>92.987025</ele>
        <time>2022-02-26T08:03:40.270Z</time>
      </trkpt>
      <trkpt lat="41.64326" lon="26.46707">
        <ele>93.078972</ele>
        <time>2022-02-26T08:03:43.266Z</time>
      </trkpt>
      <trkpt lat="41.64317" lon="26.46694">
        <ele>93.176537</ele>
        <time>2022-02-26T08:03:46.268Z</time>
      </trkpt>
      <trkpt lat="41.64309" lon="26.46682">
        <ele>93.269298</ele>
        <time>2022-02-26T08:03:49.269Z</time>
      </trkpt>
      <trkpt lat="41.64301" lon="26.4667">
        <ele>93.357774</ele>
        <time>2022-02-26T08:03:52.280Z</time>
      </trkpt>
      <trkpt lat="41.64292" lon="26.46659">
        <ele>93.449332</ele>
        <time>2022-02-26T08:03:55.287Z</time>
      </trkpt>
      <trkpt lat="41.64286" lon="26.46651">
        <ele>93.516597</ele>
        <time>2022-02-26T08:03:57.291Z</time>
      </trkpt>
      <trkpt lat="41.64278" lon="26.46636">
        <ele>93.615606</ele>
        <time>2022-02-26T08:04:00.261Z</time>
      </trkpt>
      <trkpt lat="41.64272" lon="26.46627">
        <ele>93.685278</ele>
        <time>2022-02-26T08:04:02.273Z</time>
      </trkpt>
      <trkpt lat="41.64266" lon="26.46617">
        <ele>93.754949</ele>
        <time>2022-02-26T08:04:04.283Z</time>
      </trkpt>
      <trkpt lat="41.64259" lon="26.46607">
        <ele>93.831132</ele>
        <time>2022-02-26T08:04:06.280Z</time>
      </trkpt>
      <trkpt lat="41.64252" lon="26.46597">
        <ele>93.906603</ele>
        <time>2022-02-26T08:04:08.293Z</time>
      </trkpt>
      <trkpt lat="41.64245" lon="26.46588">
        <ele>93.92937</ele>
        <time>2022-02-26T08:04:10.281Z</time>
      </trkpt>
      <trkpt lat="41.64239" lon="26.46578">
        <ele>93.923348</ele>
        <time>2022-02-26T08:04:12.256Z</time>
      </trkpt>
      <trkpt lat="41.6423" lon="26.46565">
        <ele>93.915646</ele>
        <time>2022-02-26T08:04:15.269Z</time>
      </trkpt>
      <trkpt lat="41.64222" lon="26.46553">
        <ele>93.908338</ele>
        <time>2022-02-26T08:04:18.279Z</time>
      </trkpt>
      <trkpt lat="41.64212" lon="26.46542">
        <ele>93.900605</ele>
        <time>2022-02-26T08:04:21.277Z</time>
      </trkpt>
      <trkpt lat="41.64202" lon="26.46534">
        <ele>93.893268</ele>
        <time>2022-02-26T08:04:24.282Z</time>
      </trkpt>
      <trkpt lat="41.6419" lon="26.46531">
        <ele>93.88594</ele>
        <time>2022-02-26T08:04:27.279Z</time>
      </trkpt>
      <trkpt lat="41.6418" lon="26.46536">
        <ele>93.88001</ele>
        <time>2022-02-26T08:04:29.287Z</time>
      </trkpt>
      <trkpt lat="41.64172" lon="26.46543">
        <ele>93.873791</ele>
        <time>2022-02-26T08:04:31.280Z</time>
      </trkpt>
      <trkpt lat="41.64162" lon="26.4655">
        <ele>93.867384</ele>
        <time>2022-02-26T08:04:33.268Z</time>
      </trkpt>
      <trkpt lat="41.64153" lon="26.46556">
        <ele>93.861062</ele>
        <time>2022-02-26T08:04:35.267Z</time>
      </trkpt>
      <trkpt lat="41.64145" lon="26.46562">
        <ele>93.855348</ele>
        <time>2022-02-26T08:04:37.275Z</time>
      </trkpt>
      <trkpt lat="41.64134" lon="26.46569">
        <ele>93.848225</ele>
        <time>2022-02-26T08:04:40.281Z</time>
      </trkpt>
      <trkpt lat="41.64124" lon="26.46573">
        <ele>93.842102</ele>
        <time>2022-02-26T08:04:43.274Z</time>
      </trkpt>
      <trkpt lat="41.64114" lon="26.46574">
        <ele>93.836023</ele>
        <time>2022-02-26T08:04:47.277Z</time>
      </trkpt>
      <trkpt lat="41.64104" lon="26.46573">
        <ele>93.830085</ele>
        <time>2022-02-26T08:04:51.293Z</time>
      </trkpt>
      <trkpt lat="41.64095" lon="26.46567">
        <ele>93.832812</ele>
        <time>2022-02-26T08:04:55.264Z</time>
      </trkpt>
      <trkpt lat="41.64087" lon="26.4656">
        <ele>93.917826</ele>
        <time>2022-02-26T08:04:59.268Z</time>
      </trkpt>
      <trkpt lat="41.64078" lon="26.46552">
        <ele>94.010849</ele>
        <time>2022-02-26T08:05:03.289Z</time>
      </trkpt>
      <trkpt lat="41.64072" lon="26.46541">
        <ele>94.098081</ele>
        <time>2022-02-26T08:05:07.279Z</time>
      </trkpt>
      <trkpt lat="41.64068" lon="26.4653">
        <ele>94.181839</ele>
        <time>2022-02-26T08:05:11.310Z</time>
      </trkpt>
      <trkpt lat="41.64066" lon="26.46517">
        <ele>94.265686</ele>
        <time>2022-02-26T08:05:15.289Z</time>
      </trkpt>
      <trkpt lat="41.64065" lon="26.46504">
        <ele>94.349808</ele>
        <time>2022-02-26T08:05:19.268Z</time>
      </trkpt>
      <trkpt lat="41.64066" lon="26.46492">
        <ele>94.433666</ele>
        <time>2022-02-26T08:05:23.317Z</time>
      </trkpt>
      <trkpt lat="41.64069" lon="26.4648">
        <ele>94.515496</ele>
        <time>2022-02-26T08:05:27.264Z</time>
      </trkpt>
      <trkpt lat="41.64074" lon="26.46467">
        <ele>94.612789</ele>
        <time>2022-02-26T08:05:32.276Z</time>
      </trkpt>
      <trkpt lat="41.64082" lon="26.46455">
        <ele>94.716805</ele>
        <time>2022-02-26T08:05:36.273Z</time>
      </trkpt>
      <trkpt lat="41.64091" lon="26.46446">
        <ele>94.809061</ele>
        <time>2022-02-26T08:05:39.276Z</time>
      </trkpt>
      <trkpt lat="41.641" lon="26.46437">
        <ele>94.911985</ele>
        <time>2022-02-26T08:05:42.271Z</time>
      </trkpt>
      <trkpt lat="41.6411" lon="26.46428">
        <ele>95.018196</ele>
        <time>2022-02-26T08:05:45.309Z</time>
      </trkpt>
      <trkpt lat="41.64121" lon="26.46417">
        <ele>95.134936</ele>
        <time>2022-02-26T08:05:48.295Z</time>
      </trkpt>
      <trkpt lat="41.64128" lon="26.4641">
        <ele>95.214854</ele>
        <time>2022-02-26T08:05:50.277Z</time>
      </trkpt>
      <trkpt lat="41.64136" lon="26.46403">
        <ele>95.29839</ele>
        <time>2022-02-26T08:05:52.266Z</time>
      </trkpt>
      <trkpt lat="41.64145" lon="26.46396">
        <ele>95.384897</ele>
        <time>2022-02-26T08:05:54.275Z</time>
      </trkpt>
      <trkpt lat="41.64153" lon="26.46389">
        <ele>95.292976</ele>
        <time>2022-02-26T08:05:56.318Z</time>
      </trkpt>
      <trkpt lat="41.64162" lon="26.46382">
        <ele>95.151323</ele>
        <time>2022-02-26T08:05:58.279Z</time>
      </trkpt>
      <trkpt lat="41.64171" lon="26.46374">
        <ele>95.012991</ele>
        <time>2022-02-26T08:06:00.286Z</time>
      </trkpt>
      <trkpt lat="41.6418" lon="26.46365">
        <ele>94.866339</ele>
        <time>2022-02-26T08:06:02.333Z</time>
      </trkpt>
      <trkpt lat="41.64189" lon="26.46357">
        <ele>94.719687</ele>
        <time>2022-02-26T08:06:04.242Z</time>
      </trkpt>
      <trkpt lat="41.64198" lon="26.46348">
        <ele>94.570723</ele>
        <time>2022-02-26T08:06:06.265Z</time>
      </trkpt>
      <trkpt lat="41.64207" lon="26.4634">
        <ele>94.422324</ele>
        <time>2022-02-26T08:06:08.281Z</time>
      </trkpt>
      <trkpt lat="41.64217" lon="26.46332">
        <ele>94.267306</ele>
        <time>2022-02-26T08:06:10.275Z</time>
      </trkpt>
      <trkpt lat="41.64226" lon="26.46323">
        <ele>94.113959</ele>
        <time>2022-02-26T08:06:12.251Z</time>
      </trkpt>
      <trkpt lat="41.64236" lon="26.46315">
        <ele>93.957286</ele>
        <time>2022-02-26T08:06:14.275Z</time>
      </trkpt>
      <trkpt lat="41.64246" lon="26.46306">
        <ele>93.797244</ele>
        <time>2022-02-26T08:06:16.263Z</time>
      </trkpt>
      <trkpt lat="41.64256" lon="26.46296">
        <ele>93.633855</ele>
        <time>2022-02-26T08:06:18.293Z</time>
      </trkpt>
      <trkpt lat="41.64266" lon="26.46287">
        <ele>93.472709</ele>
        <time>2022-02-26T08:06:20.268Z</time>
      </trkpt>
      <trkpt lat="41.64275" lon="26.46278">
        <ele>93.312691</ele>
        <time>2022-02-26T08:06:22.262Z</time>
      </trkpt>
      <trkpt lat="41.64285" lon="26.46269">
        <ele>93.150437</ele>
        <time>2022-02-26T08:06:24.282Z</time>
      </trkpt>
      <trkpt lat="41.64295" lon="26.4626">
        <ele>92.991544</ele>
        <time>2022-02-26T08:06:26.269Z</time>
      </trkpt>
      <trkpt lat="41.64305" lon="26.46251">
        <ele>93.08683</ele>
        <time>2022-02-26T08:06:28.282Z</time>
      </trkpt>
      <trkpt lat="41.64314" lon="26.46243">
        <ele>93.180049</ele>
        <time>2022-02-26T08:06:30.300Z</time>
      </trkpt>
      <trkpt lat="41.64324" lon="26.46235">
        <ele>93.275678</ele>
        <time>2022-02-26T08:06:32.289Z</time>
      </trkpt>
      <trkpt lat="41.64334" lon="26.46226">
        <ele>93.376873</ele>
        <time>2022-02-26T08:06:34.268Z</time>
      </trkpt>
      <trkpt lat="41.64344" lon="26.46217">
        <ele>93.474588</ele>
        <time>2022-02-26T08:06:36.291Z</time>
      </trkpt>
      <trkpt lat="41.64354" lon="26.46208">
        <ele>93.57718</ele>
        <time>2022-02-26T08:06:38.281Z</time>
      </trkpt>
      <trkpt lat="41.64363" lon="26.46199">
        <ele>93.677713</ele>
        <time>2022-02-26T08:06:40.286Z</time>
      </trkpt>
      <trkpt lat="41.64373" lon="26.4619">
        <ele>93.772996</ele>
        <time>2022-02-26T08:06:42.282Z</time>
      </trkpt>
      <trkpt lat="41.64382" lon="26.46182">
        <ele>93.86446</ele>
        <time>2022-02-26T08:06:44.290Z</time>
      </trkpt>
      <trkpt lat="41.6439" lon="26.46174">
        <ele>93.950791</ele>
        <time>2022-02-26T08:06:46.296Z</time>
      </trkpt>
      <trkpt lat="41.64399" lon="26.46166">
        <ele>94.035661</ele>
        <time>2022-02-26T08:06:48.320Z</time>
      </trkpt>
      <trkpt lat="41.64407" lon="26.46158">
        <ele>94.118859</ele>
        <time>2022-02-26T08:06:50.281Z</time>
      </trkpt>
      <trkpt lat="41.64414" lon="26.46151">
        <ele>94.197798</ele>
        <time>2022-02-26T08:06:52.269Z</time>
      </trkpt>
      <trkpt lat="41.64423" lon="26.46144">
        <ele>94.278523</ele>
        <time>2022-02-26T08:06:54.279Z</time>
      </trkpt>
      <trkpt lat="41.64434" lon="26.46133">
        <ele>94.392997</ele>
        <time>2022-02-26T08:06:57.324Z</time>
      </trkpt>
      <trkpt lat="41.64441" lon="26.46126">
        <ele>94.469873</ele>
        <time>2022-02-26T08:06:59.279Z</time>
      </trkpt>
      <trkpt lat="41.64449" lon="26.46119">
        <ele>94.508383</ele>
        <time>2022-02-26T08:07:01.263Z</time>
      </trkpt>
      <trkpt lat="41.64456" lon="26.46112">
        <ele>94.52784</ele>
        <time>2022-02-26T08:07:03.269Z</time>
      </trkpt>
      <trkpt lat="41.64464" lon="26.46105">
        <ele>94.547472</ele>
        <time>2022-02-26T08:07:05.280Z</time>
      </trkpt>
      <trkpt lat="41.64472" lon="26.46099">
        <ele>94.56658</ele>
        <time>2022-02-26T08:07:07.280Z</time>
      </trkpt>
      <trkpt lat="41.64479" lon="26.46092">
        <ele>94.585684</ele>
        <time>2022-02-26T08:07:09.271Z</time>
      </trkpt>
      <trkpt lat="41.6449" lon="26.46083">
        <ele>94.613598</ele>
        <time>2022-02-26T08:07:12.271Z</time>
      </trkpt>
      <trkpt lat="41.64501" lon="26.46073">
        <ele>94.64072</ele>
        <time>2022-02-26T08:07:15.296Z</time>
      </trkpt>
      <trkpt lat="41.64512" lon="26.46065">
        <ele>94.66741</ele>
        <time>2022-02-26T08:07:18.288Z</time>
      </trkpt>
      <trkpt lat="41.64522" lon="26.46056">
        <ele>94.693563</ele>
        <time>2022-02-26T08:07:21.266Z</time>
      </trkpt>
      <trkpt lat="41.64533" lon="26.46047">
        <ele>94.719726</ele>
        <time>2022-02-26T08:07:24.277Z</time>
      </trkpt>
      <trkpt lat="41.64544" lon="26.46038">
        <ele>94.747376</ele>
        <time>2022-02-26T08:07:27.276Z</time>
      </trkpt>
      <trkpt lat="41.64551" lon="26.46031">
        <ele>94.766744</ele>
        <time>2022-02-26T08:07:29.292Z</time>
      </trkpt>
      <trkpt lat="41.64562" lon="26.46021">
        <ele>94.793507</ele>
        <time>2022-02-26T08:07:32.268Z</time>
      </trkpt>
      <trkpt lat="41.64572" lon="26.46012">
        <ele>94.819918</ele>
        <time>2022-02-26T08:07:35.265Z</time>
      </trkpt>
      <trkpt lat="41.64583" lon="26.46003">
        <ele>94.846507</ele>
        <time>2022-02-26T08:07:38.269Z</time>
      </trkpt>
      <trkpt lat="41.64593" lon="26.45994">
        <ele>94.872477</ele>
        <time>2022-02-26T08:07:41.259Z</time>
      </trkpt>
      <trkpt lat="41.64604" lon="26.45984">
        <ele>95.038951</ele>
        <time>2022-02-26T08:07:44.304Z</time>
      </trkpt>
      <trkpt lat="41.64611" lon="26.45977">
        <ele>95.169396</ele>
        <time>2022-02-26T08:07:46.290Z</time>
      </trkpt>
      <trkpt lat="41.64622" lon="26.45967">
        <ele>95.359021</ele>
        <time>2022-02-26T08:07:49.280Z</time>
      </trkpt>
      <trkpt lat="41.64633" lon="26.45957">
        <ele>95.546851</ele>
        <time>2022-02-26T08:07:52.278Z</time>
      </trkpt>
      <trkpt lat="41.64644" lon="26.45947">
        <ele>95.737692</ele>
        <time>2022-02-26T08:07:55.298Z</time>
      </trkpt>
      <trkpt lat="41.64655" lon="26.45937">
        <ele>95.929111</ele>
        <time>2022-02-26T08:07:58.301Z</time>
      </trkpt>
      <trkpt lat="41.64666" lon="26.45928">
        <ele>96.115149</ele>
        <time>2022-02-26T08:08:01.280Z</time>
      </trkpt>
      <trkpt lat="41.64675" lon="26.45918">
        <ele>96.291767</ele>
        <time>2022-02-26T08:08:04.279Z</time>
      </trkpt>
      <trkpt lat="41.64686" lon="26.45908">
        <ele>96.477221</ele>
        <time>2022-02-26T08:08:07.269Z</time>
      </trkpt>
      <trkpt lat="41.64697" lon="26.45899">
        <ele>96.667439</ele>
        <time>2022-02-26T08:08:10.303Z</time>
      </trkpt>
      <trkpt lat="41.64708" lon="26.45889">
        <ele>96.850488</ele>
        <time>2022-02-26T08:08:13.305Z</time>
      </trkpt>
      <trkpt lat="41.64718" lon="26.4588">
        <ele>97.032938</ele>
        <time>2022-02-26T08:08:16.271Z</time>
      </trkpt>
      <trkpt lat="41.64728" lon="26.45871">
        <ele>97.204044</ele>
        <time>2022-02-26T08:08:19.273Z</time>
      </trkpt>
      <trkpt lat="41.64739" lon="26.45862">
        <ele>97.3847</ele>
        <time>2022-02-26T08:08:22.278Z</time>
      </trkpt>
      <trkpt lat="41.64749" lon="26.45853">
        <ele>97.625187</ele>
        <time>2022-02-26T08:08:25.295Z</time>
      </trkpt>
      <trkpt lat="41.64758" lon="26.45843">
        <ele>97.927525</ele>
        <time>2022-02-26T08:08:28.283Z</time>
      </trkpt>
      <trkpt lat="41.64768" lon="26.45834">
        <ele>98.221617</ele>
        <time>2022-02-26T08:08:31.269Z</time>
      </trkpt>
      <trkpt lat="41.64778" lon="26.45825">
        <ele>98.518819</ele>
        <time>2022-02-26T08:08:34.324Z</time>
      </trkpt>
      <trkpt lat="41.64787" lon="26.45816">
        <ele>98.799548</ele>
        <time>2022-02-26T08:08:37.273Z</time>
      </trkpt>
      <trkpt lat="41.64796" lon="26.45808">
        <ele>99.068772</ele>
        <time>2022-02-26T08:08:40.269Z</time>
      </trkpt>
      <trkpt lat="41.64804" lon="26.45799">
        <ele>99.333812</ele>
        <time>2022-02-26T08:08:43.297Z</time>
      </trkpt>
      <trkpt lat="41.64814" lon="26.45791">
        <ele>99.616388</ele>
        <time>2022-02-26T08:08:46.272Z</time>
      </trkpt>
      <trkpt lat="41.64823" lon="26.45783">
        <ele>99.878262</ele>
        <time>2022-02-26T08:08:49.285Z</time>
      </trkpt>
      <trkpt lat="41.64832" lon="26.45776">
        <ele>100.138256</ele>
        <time>2022-02-26T08:08:52.265Z</time>
      </trkpt>
      <trkpt lat="41.64841" lon="26.45769">
        <ele>100.402326</ele>
        <time>2022-02-26T08:08:55.261Z</time>
      </trkpt>
      <trkpt lat="41.64849" lon="26.45761">
        <ele>100.664199</ele>
        <time>2022-02-26T08:08:58.281Z</time>
      </trkpt>
      <trkpt lat="41.64858" lon="26.45753">
        <ele>100.927154</ele>
        <time>2022-02-26T08:09:01.288Z</time>
      </trkpt>
      <trkpt lat="41.64867" lon="26.45746">
        <ele>101.194217</ele>
        <time>2022-02-26T08:09:04.271Z</time>
      </trkpt>
      <trkpt lat="41.64876" lon="26.45738">
        <ele>101.459666</ele>
        <time>2022-02-26T08:09:07.280Z</time>
      </trkpt>
      <trkpt lat="41.64885" lon="26.45731">
        <ele>101.724642</ele>
        <time>2022-02-26T08:09:10.266Z</time>
      </trkpt>
      <trkpt lat="41.64894" lon="26.45724">
        <ele>101.941613</ele>
        <time>2022-02-26T08:09:13.273Z</time>
      </trkpt>
      <trkpt lat="41.64904" lon="26.45715">
        <ele>101.899272</ele>
        <time>2022-02-26T08:09:17.294Z</time>
      </trkpt>
      <trkpt lat="41.64912" lon="26.45707">
        <ele>101.864842</ele>
        <time>2022-02-26T08:09:20.290Z</time>
      </trkpt>
      <trkpt lat="41.64919" lon="26.457">
        <ele>101.832146</ele>
        <time>2022-02-26T08:09:23.280Z</time>
      </trkpt>
      <trkpt lat="41.64927" lon="26.45693">
        <ele>101.80006</ele>
        <time>2022-02-26T08:09:26.290Z</time>
      </trkpt>
      <trkpt lat="41.64935" lon="26.45687">
        <ele>101.767679</ele>
        <time>2022-02-26T08:09:29.263Z</time>
      </trkpt>
      <trkpt lat="41.64942" lon="26.4568">
        <ele>101.73442</ele>
        <time>2022-02-26T08:09:32.290Z</time>
      </trkpt>
      <trkpt lat="41.6495" lon="26.45673">
        <ele>101.701161</ele>
        <time>2022-02-26T08:09:35.286Z</time>
      </trkpt>
      <trkpt lat="41.64959" lon="26.45665">
        <ele>101.665999</ele>
        <time>2022-02-26T08:09:38.288Z</time>
      </trkpt>
      <trkpt lat="41.64967" lon="26.45658">
        <ele>101.630344</ele>
        <time>2022-02-26T08:09:41.265Z</time>
      </trkpt>
      <trkpt lat="41.64976" lon="26.45651">
        <ele>101.593814</ele>
        <time>2022-02-26T08:09:44.276Z</time>
      </trkpt>
      <trkpt lat="41.64986" lon="26.45644">
        <ele>101.555759</ele>
        <time>2022-02-26T08:09:47.319Z</time>
      </trkpt>
      <trkpt lat="41.64995" lon="26.45637">
        <ele>101.517267</ele>
        <time>2022-02-26T08:09:50.259Z</time>
      </trkpt>
      <trkpt lat="41.65004" lon="26.4563">
        <ele>101.479996</ele>
        <time>2022-02-26T08:09:53.316Z</time>
      </trkpt>
      <trkpt lat="41.65013" lon="26.45623">
        <ele>101.442685</ele>
        <time>2022-02-26T08:09:56.273Z</time>
      </trkpt>
      <trkpt lat="41.65023" lon="26.45615">
        <ele>101.404003</ele>
        <time>2022-02-26T08:09:59.326Z</time>
      </trkpt>
      <trkpt lat="41.65032" lon="26.45606">
        <ele>101.364006</ele>
        <time>2022-02-26T08:10:02.289Z</time>
      </trkpt>
      <trkpt lat="41.65041" lon="26.45598">
        <ele>101.32385</ele>
        <time>2022-02-26T08:10:05.275Z</time>
      </trkpt>
      <trkpt lat="41.65051" lon="26.45588">
        <ele>101.215024</ele>
        <time>2022-02-26T08:10:08.276Z</time>
      </trkpt>
      <trkpt lat="41.6506" lon="26.45579">
        <ele>101.076661</ele>
        <time>2022-02-26T08:10:11.283Z</time>
      </trkpt>
      <trkpt lat="41.65069" lon="26.45569">
        <ele>100.94153</ele>
        <time>2022-02-26T08:10:14.275Z</time>
      </trkpt>
      <trkpt lat="41.65079" lon="26.4556">
        <ele>100.796861</ele>
        <time>2022-02-26T08:10:17.260Z</time>
      </trkpt>
      <trkpt lat="41.65089" lon="26.45549">
        <ele>100.653262</ele>
        <time>2022-02-26T08:10:20.283Z</time>
      </trkpt>
      <trkpt lat="41.65098" lon="26.4554">
        <ele>100.51404</ele>
        <time>2022-02-26T08:10:23.282Z</time>
      </trkpt>
      <trkpt lat="41.65108" lon="26.45531">
        <ele>100.377256</ele>
        <time>2022-02-26T08:10:26.278Z</time>
      </trkpt>
      <trkpt lat="41.65118" lon="26.45523">
        <ele>100.239991</ele>
        <time>2022-02-26T08:10:29.293Z</time>
      </trkpt>
      <trkpt lat="41.65127" lon="26.45515">
        <ele>100.105122</ele>
        <time>2022-02-26T08:10:32.303Z</time>
      </trkpt>
      <trkpt lat="41.65136" lon="26.45506">
        <ele>99.975633</ele>
        <time>2022-02-26T08:10:35.266Z</time>
      </trkpt>
      <trkpt lat="41.65145" lon="26.45498">
        <ele>99.851054</ele>
        <time>2022-02-26T08:10:38.261Z</time>
      </trkpt>
      <trkpt lat="41.65155" lon="26.4549">
        <ele>99.720136</ele>
        <time>2022-02-26T08:10:41.277Z</time>
      </trkpt>
      <trkpt lat="41.65164" lon="26.45482">
        <ele>99.590581</ele>
        <time>2022-02-26T08:10:44.268Z</time>
      </trkpt>
      <trkpt lat="41.65173" lon="26.45475">
        <ele>99.46595</ele>
        <time>2022-02-26T08:10:47.293Z</time>
      </trkpt>
      <trkpt lat="41.65182" lon="26.45467">
        <ele>99.338944</ele>
        <time>2022-02-26T08:10:50.283Z</time>
      </trkpt>
      <trkpt lat="41.65191" lon="26.45459">
        <ele>99.208026</ele>
        <time>2022-02-26T08:10:53.279Z</time>
      </trkpt>
      <trkpt lat="41.65201" lon="26.4545">
        <ele>99.313983</ele>
        <time>2022-02-26T08:10:56.275Z</time>
      </trkpt>
      <trkpt lat="41.6521" lon="26.45441">
        <ele>99.445517</ele>
        <time>2022-02-26T08:10:59.280Z</time>
      </trkpt>
      <trkpt lat="41.6522" lon="26.45433">
        <ele>99.578928</ele>
        <time>2022-02-26T08:11:02.264Z</time>
      </trkpt>
      <trkpt lat="41.65231" lon="26.45424">
        <ele>99.718998</ele>
        <time>2022-02-26T08:11:05.282Z</time>
      </trkpt>
      <trkpt lat="41.65239" lon="26.45417">
        <ele>99.823382</ele>
        <time>2022-02-26T08:11:07.269Z</time>
      </trkpt>
      <trkpt lat="41.65247" lon="26.4541">
        <ele>99.934789</ele>
        <time>2022-02-26T08:11:09.271Z</time>
      </trkpt>
      <trkpt lat="41.65255" lon="26.45403">
        <ele>100.038246</ele>
        <time>2022-02-26T08:11:11.307Z</time>
      </trkpt>
      <trkpt lat="41.65262" lon="26.45396">
        <ele>100.13984</ele>
        <time>2022-02-26T08:11:13.264Z</time>
      </trkpt>
      <trkpt lat="41.65273" lon="26.45386">
        <ele>100.291502</ele>
        <time>2022-02-26T08:11:16.267Z</time>
      </trkpt>
      <trkpt lat="41.65283" lon="26.45377">
        <ele>100.43241</ele>
        <time>2022-02-26T08:11:19.281Z</time>
      </trkpt>
      <trkpt lat="41.65293" lon="26.45367">
        <ele>100.566771</ele>
        <time>2022-02-26T08:11:22.285Z</time>
      </trkpt>
      <trkpt lat="41.65303" lon="26.45359">
        <ele>100.701125</ele>
        <time>2022-02-26T08:11:25.264Z</time>
      </trkpt>
      <trkpt lat="41.65313" lon="26.4535">
        <ele>100.833133</ele>
        <time>2022-02-26T08:11:28.278Z</time>
      </trkpt>
      <trkpt lat="41.65323" lon="26.45341">
        <ele>100.972624</ele>
        <time>2022-02-26T08:11:31.251Z</time>
      </trkpt>
      <trkpt lat="41.65333" lon="26.45332">
        <ele>101.105094</ele>
        <time>2022-02-26T08:11:34.286Z</time>
      </trkpt>
      <trkpt lat="41.65343" lon="26.45324">
        <ele>101.274834</ele>
        <time>2022-02-26T08:11:37.301Z</time>
      </trkpt>
      <trkpt lat="41.65353" lon="26.45315">
        <ele>101.828184</ele>
        <time>2022-02-26T08:11:40.260Z</time>
      </trkpt>
      <trkpt lat="41.65363" lon="26.45306">
        <ele>102.38536</ele>
        <time>2022-02-26T08:11:43.281Z</time>
      </trkpt>
      <trkpt lat="41.65373" lon="26.45297">
        <ele>102.960008</ele>
        <time>2022-02-26T08:11:46.302Z</time>
      </trkpt>
      <trkpt lat="41.65383" lon="26.45289">
        <ele>103.476916</ele>
        <time>2022-02-26T08:11:49.261Z</time>
      </trkpt>
      <trkpt lat="41.65394" lon="26.4528">
        <ele>104.065479</ele>
        <time>2022-02-26T08:11:52.274Z</time>
      </trkpt>
      <trkpt lat="41.65404" lon="26.4527">
        <ele>104.659327</ele>
        <time>2022-02-26T08:11:55.282Z</time>
      </trkpt>
      <trkpt lat="41.65415" lon="26.45261">
        <ele>105.256867</ele>
        <time>2022-02-26T08:11:58.268Z</time>
      </trkpt>
      <trkpt lat="41.65423" lon="26.45254">
        <ele>105.700688</ele>
        <time>2022-02-26T08:12:00.287Z</time>
      </trkpt>
      <trkpt lat="41.65434" lon="26.45244">
        <ele>106.305928</ele>
        <time>2022-02-26T08:12:03.274Z</time>
      </trkpt>
      <trkpt lat="41.65444" lon="26.45234">
        <ele>106.905803</ele>
        <time>2022-02-26T08:12:06.280Z</time>
      </trkpt>
      <trkpt lat="41.65451" lon="26.45226">
        <ele>107.327646</ele>
        <time>2022-02-26T08:12:08.310Z</time>
      </trkpt>
      <trkpt lat="41.65459" lon="26.45219">
        <ele>107.754395</ele>
        <time>2022-02-26T08:12:10.276Z</time>
      </trkpt>
      <trkpt lat="41.65466" lon="26.45211">
        <ele>108.194215</ele>
        <time>2022-02-26T08:12:12.276Z</time>
      </trkpt>
      <trkpt lat="41.65477" lon="26.45201">
        <ele>108.795828</ele>
        <time>2022-02-26T08:12:15.285Z</time>
      </trkpt>
      <trkpt lat="41.65486" lon="26.45191">
        <ele>109.341634</ele>
        <time>2022-02-26T08:12:18.283Z</time>
      </trkpt>
      <trkpt lat="41.65495" lon="26.45182">
        <ele>109.359524</ele>
        <time>2022-02-26T08:12:21.273Z</time>
      </trkpt>
      <trkpt lat="41.65506" lon="26.45171">
        <ele>109.02155</ele>
        <time>2022-02-26T08:12:24.282Z</time>
      </trkpt>
      <trkpt lat="41.65516" lon="26.45161">
        <ele>108.68797</ele>
        <time>2022-02-26T08:12:27.275Z</time>
      </trkpt>
      <trkpt lat="41.65525" lon="26.45152">
        <ele>108.386041</ele>
        <time>2022-02-26T08:12:30.278Z</time>
      </trkpt>
      <trkpt lat="41.65536" lon="26.45143">
        <ele>108.055139</ele>
        <time>2022-02-26T08:12:33.260Z</time>
      </trkpt>
      <trkpt lat="41.65547" lon="26.45132">
        <ele>107.703829</ele>
        <time>2022-02-26T08:12:36.305Z</time>
      </trkpt>
      <trkpt lat="41.65555" lon="26.45126">
        <ele>107.468463</ele>
        <time>2022-02-26T08:12:38.277Z</time>
      </trkpt>
      <trkpt lat="41.65566" lon="26.45116">
        <ele>107.122505</ele>
        <time>2022-02-26T08:12:41.270Z</time>
      </trkpt>
      <trkpt lat="41.65574" lon="26.4511">
        <ele>106.882749</ele>
        <time>2022-02-26T08:12:43.293Z</time>
      </trkpt>
      <trkpt lat="41.65582" lon="26.45103">
        <ele>106.634361</ele>
        <time>2022-02-26T08:12:45.272Z</time>
      </trkpt>
      <trkpt lat="41.6559" lon="26.45096">
        <ele>106.390185</ele>
        <time>2022-02-26T08:12:47.311Z</time>
      </trkpt>
      <trkpt lat="41.65602" lon="26.45087">
        <ele>106.050217</ele>
        <time>2022-02-26T08:12:50.264Z</time>
      </trkpt>
      <trkpt lat="41.65613" lon="26.45078">
        <ele>105.716891</ele>
        <time>2022-02-26T08:12:53.304Z</time>
      </trkpt>
      <trkpt lat="41.6562" lon="26.45072">
        <ele>105.483759</ele>
        <time>2022-02-26T08:12:55.278Z</time>
      </trkpt>
      <trkpt lat="41.65628" lon="26.45065">
        <ele>105.249478</ele>
        <time>2022-02-26T08:12:57.276Z</time>
      </trkpt>
      <trkpt lat="41.65639" lon="26.45056">
        <ele>104.907519</ele>
        <time>2022-02-26T08:13:00.289Z</time>
      </trkpt>
      <trkpt lat="41.6565" lon="26.45046">
        <ele>104.545528</ele>
        <time>2022-02-26T08:13:03.264Z</time>
      </trkpt>
      <trkpt lat="41.65661" lon="26.45036">
        <ele>104.178719</ele>
        <time>2022-02-26T08:13:06.284Z</time>
      </trkpt>
      <trkpt lat="41.65672" lon="26.45027">
        <ele>103.829148</ele>
        <time>2022-02-26T08:13:09.271Z</time>
      </trkpt>
      <trkpt lat="41.65682" lon="26.45018">
        <ele>103.479444</ele>
        <time>2022-02-26T08:13:12.269Z</time>
      </trkpt>
      <trkpt lat="41.65693" lon="26.45009">
        <ele>103.128785</ele>
        <time>2022-02-26T08:13:15.292Z</time>
      </trkpt>
      <trkpt lat="41.65703" lon="26.45">
        <ele>102.78619</ele>
        <time>2022-02-26T08:13:18.267Z</time>
      </trkpt>
      <trkpt lat="41.65713" lon="26.44989">
        <ele>102.431751</ele>
        <time>2022-02-26T08:13:21.273Z</time>
      </trkpt>
      <trkpt lat="41.65723" lon="26.4498">
        <ele>102.086803</ele>
        <time>2022-02-26T08:13:24.281Z</time>
      </trkpt>
      <trkpt lat="41.65733" lon="26.44971">
        <ele>101.761448</ele>
        <time>2022-02-26T08:13:27.253Z</time>
      </trkpt>
      <trkpt lat="41.65743" lon="26.44962">
        <ele>101.426939</ele>
        <time>2022-02-26T08:13:30.267Z</time>
      </trkpt>
      <trkpt lat="41.65753" lon="26.44953">
        <ele>101.079742</ele>
        <time>2022-02-26T08:13:33.305Z</time>
      </trkpt>
      <trkpt lat="41.65764" lon="26.44944">
        <ele>100.741651</ele>
        <time>2022-02-26T08:13:36.323Z</time>
      </trkpt>
      <trkpt lat="41.65775" lon="26.44934">
        <ele>100.372463</ele>
        <time>2022-02-26T08:13:39.279Z</time>
      </trkpt>
      <trkpt lat="41.65786" lon="26.44925">
        <ele>100.011133</ele>
        <time>2022-02-26T08:13:42.278Z</time>
      </trkpt>
      <trkpt lat="41.65797" lon="26.44917">
        <ele>99.747838</ele>
        <time>2022-02-26T08:13:45.254Z</time>
      </trkpt>
      <trkpt lat="41.65807" lon="26.44907">
        <ele>99.539693</ele>
        <time>2022-02-26T08:13:48.283Z</time>
      </trkpt>
      <trkpt lat="41.65818" lon="26.44899">
        <ele>99.330333</ele>
        <time>2022-02-26T08:13:51.289Z</time>
      </trkpt>
      <trkpt lat="41.65828" lon="26.44891">
        <ele>99.12496</ele>
        <time>2022-02-26T08:13:54.277Z</time>
      </trkpt>
      <trkpt lat="41.65838" lon="26.44882">
        <ele>98.925979</ele>
        <time>2022-02-26T08:13:57.303Z</time>
      </trkpt>
      <trkpt lat="41.65848" lon="26.44873">
        <ele>98.729829</ele>
        <time>2022-02-26T08:14:00.277Z</time>
      </trkpt>
      <trkpt lat="41.65856" lon="26.44865">
        <ele>98.550537</ele>
        <time>2022-02-26T08:14:03.270Z</time>
      </trkpt>
      <trkpt lat="41.65865" lon="26.44858">
        <ele>98.379779</ele>
        <time>2022-02-26T08:14:06.299Z</time>
      </trkpt>
      <trkpt lat="41.65872" lon="26.4485">
        <ele>98.217492</ele>
        <time>2022-02-26T08:14:09.265Z</time>
      </trkpt>
      <trkpt lat="41.65881" lon="26.44843">
        <ele>98.053086</ele>
        <time>2022-02-26T08:14:12.268Z</time>
      </trkpt>
      <trkpt lat="41.6589" lon="26.44835">
        <ele>97.868931</ele>
        <time>2022-02-26T08:14:15.280Z</time>
      </trkpt>
      <trkpt lat="41.65898" lon="26.44827">
        <ele>97.690372</ele>
        <time>2022-02-26T08:14:18.292Z</time>
      </trkpt>
      <trkpt lat="41.65907" lon="26.44819">
        <ele>97.509026</ele>
        <time>2022-02-26T08:14:21.284Z</time>
      </trkpt>
      <trkpt lat="41.65915" lon="26.44811">
        <ele>97.336157</ele>
        <time>2022-02-26T08:14:24.272Z</time>
      </trkpt>
      <trkpt lat="41.65924" lon="26.44804">
        <ele>97.165403</ele>
        <time>2022-02-26T08:14:27.276Z</time>
      </trkpt>
      <trkpt lat="41.65932" lon="26.44797">
        <ele>96.996764</ele>
        <time>2022-02-26T08:14:30.263Z</time>
      </trkpt>
      <trkpt lat="41.6594" lon="26.4479">
        <ele>96.843989</ele>
        <time>2022-02-26T08:14:33.279Z</time>
      </trkpt>
      <trkpt lat="41.65948" lon="26.44782">
        <ele>97.156405</ele>
        <time>2022-02-26T08:14:37.268Z</time>
      </trkpt>
      <trkpt lat="41.65957" lon="26.44773">
        <ele>97.51853</ele>
        <time>2022-02-26T08:14:41.305Z</time>
      </trkpt>
      <trkpt lat="41.65966" lon="26.44765">
        <ele>97.88993</ele>
        <time>2022-02-26T08:14:45.271Z</time>
      </trkpt>
      <trkpt lat="41.65976" lon="26.44757">
        <ele>98.260193</ele>
        <time>2022-02-26T08:14:49.283Z</time>
      </trkpt>
      <trkpt lat="41.65986" lon="26.44749">
        <ele>98.629529</ele>
        <time>2022-02-26T08:14:53.273Z</time>
      </trkpt>
      <trkpt lat="41.65996" lon="26.44741">
        <ele>99.00781</ele>
        <time>2022-02-26T08:14:57.279Z</time>
      </trkpt>
      <trkpt lat="41.66006" lon="26.44732">
        <ele>99.38609</ele>
        <time>2022-02-26T08:15:01.255Z</time>
      </trkpt>
      <trkpt lat="41.66016" lon="26.44724">
        <ele>99.762898</ele>
        <time>2022-02-26T08:15:05.291Z</time>
      </trkpt>
      <trkpt lat="41.66025" lon="26.44717">
        <ele>100.109116</ele>
        <time>2022-02-26T08:15:09.276Z</time>
      </trkpt>
      <trkpt lat="41.66035" lon="26.44709">
        <ele>100.479378</ele>
        <time>2022-02-26T08:15:13.284Z</time>
      </trkpt>
      <trkpt lat="41.66044" lon="26.447">
        <ele>100.850657</ele>
        <time>2022-02-26T08:15:17.266Z</time>
      </trkpt>
      <trkpt lat="41.66054" lon="26.44692">
        <ele>101.227684</ele>
        <time>2022-02-26T08:15:21.277Z</time>
      </trkpt>
      <trkpt lat="41.66063" lon="26.44684">
        <ele>101.582885</ele>
        <time>2022-02-26T08:15:25.257Z</time>
      </trkpt>
      <trkpt lat="41.66073" lon="26.44676">
        <ele>101.954241</ele>
        <time>2022-02-26T08:15:29.267Z</time>
      </trkpt>
      <trkpt lat="41.66081" lon="26.44669">
        <ele>102.253639</ele>
        <time>2022-02-26T08:15:32.321Z</time>
      </trkpt>
      <trkpt lat="41.66092" lon="26.44661">
        <ele>102.647916</ele>
        <time>2022-02-26T08:15:36.280Z</time>
      </trkpt>
      <trkpt lat="41.66101" lon="26.44652">
        <ele>103.01721</ele>
        <time>2022-02-26T08:15:40.297Z</time>
      </trkpt>
      <trkpt lat="41.6611" lon="26.44644">
        <ele>103.358755</ele>
        <time>2022-02-26T08:15:44.274Z</time>
      </trkpt>
      <trkpt lat="41.66118" lon="26.44635">
        <ele>103.700517</ele>
        <time>2022-02-26T08:15:48.276Z</time>
      </trkpt>
      <trkpt lat="41.66127" lon="26.44626">
        <ele>104.056019</ele>
        <time>2022-02-26T08:15:52.290Z</time>
      </trkpt>
      <trkpt lat="41.66137" lon="26.44617">
        <ele>104.433471</ele>
        <time>2022-02-26T08:15:56.323Z</time>
      </trkpt>
      <trkpt lat="41.66144" lon="26.4461">
        <ele>104.726216</ele>
        <time>2022-02-26T08:15:59.261Z</time>
      </trkpt>
      <trkpt lat="41.66151" lon="26.44601">
        <ele>105.026761</ele>
        <time>2022-02-26T08:16:02.260Z</time>
      </trkpt>
      <trkpt lat="41.6616" lon="26.44591">
        <ele>105.402223</ele>
        <time>2022-02-26T08:16:06.269Z</time>
      </trkpt>
      <trkpt lat="41.6617" lon="26.44582">
        <ele>105.786465</ele>
        <time>2022-02-26T08:16:10.273Z</time>
      </trkpt>
      <trkpt lat="41.66178" lon="26.44575">
        <ele>106.084762</ele>
        <time>2022-02-26T08:16:13.264Z</time>
      </trkpt>
      <trkpt lat="41.66185" lon="26.44569">
        <ele>106.370398</ele>
        <time>2022-02-26T08:16:16.319Z</time>
      </trkpt>
      <trkpt lat="41.66193" lon="26.44562">
        <ele>106.661423</ele>
        <time>2022-02-26T08:16:19.267Z</time>
      </trkpt>
      <trkpt lat="41.66201" lon="26.44556">
        <ele>106.964383</ele>
        <time>2022-02-26T08:16:22.253Z</time>
      </trkpt>
      <trkpt lat="41.66209" lon="26.44549">
        <ele>107.262092</ele>
        <time>2022-02-26T08:16:25.276Z</time>
      </trkpt>
      <trkpt lat="41.66218" lon="26.44542">
        <ele>107.581138</ele>
        <time>2022-02-26T08:16:28.262Z</time>
      </trkpt>
      <trkpt lat="41.66226" lon="26.44535">
        <ele>107.89966</ele>
        <time>2022-02-26T08:16:31.268Z</time>
      </trkpt>
      <trkpt lat="41.66235" lon="26.44529">
        <ele>108.215011</ele>
        <time>2022-02-26T08:16:34.267Z</time>
      </trkpt>
      <trkpt lat="41.66243" lon="26.44521">
        <ele>108.334417</ele>
        <time>2022-02-26T08:16:37.259Z</time>
      </trkpt>
      <trkpt lat="41.66251" lon="26.44514">
        <ele>108.208574</ele>
        <time>2022-02-26T08:16:40.282Z</time>
      </trkpt>
      <trkpt lat="41.6626" lon="26.44507">
        <ele>108.079472</ele>
        <time>2022-02-26T08:16:43.265Z</time>
      </trkpt>
      <trkpt lat="41.66268" lon="26.445">
        <ele>107.955717</ele>
        <time>2022-02-26T08:16:46.279Z</time>
      </trkpt>
      <trkpt lat="41.66277" lon="26.44492">
        <ele>107.827228</ele>
        <time>2022-02-26T08:16:49.298Z</time>
      </trkpt>
      <trkpt lat="41.66285" lon="26.44485">
        <ele>107.69503</ele>
        <time>2022-02-26T08:16:52.277Z</time>
      </trkpt>
      <trkpt lat="41.66294" lon="26.44477">
        <ele>107.563883</ele>
        <time>2022-02-26T08:16:55.255Z</time>
      </trkpt>
      <trkpt lat="41.66302" lon="26.44469">
        <ele>107.434795</ele>
        <time>2022-02-26T08:16:58.263Z</time>
      </trkpt>
      <trkpt lat="41.66312" lon="26.4446">
        <ele>107.277072</ele>
        <time>2022-02-26T08:17:01.259Z</time>
      </trkpt>
      <trkpt lat="41.66322" lon="26.44451">
        <ele>107.120978</ele>
        <time>2022-02-26T08:17:04.260Z</time>
      </trkpt>
      <trkpt lat="41.66332" lon="26.44442">
        <ele>106.967518</ele>
        <time>2022-02-26T08:17:07.254Z</time>
      </trkpt>
      <trkpt lat="41.66343" lon="26.44432">
        <ele>106.805587</ele>
        <time>2022-02-26T08:17:10.277Z</time>
      </trkpt>
      <trkpt lat="41.66353" lon="26.44423">
        <ele>106.6479</ele>
        <time>2022-02-26T08:17:13.261Z</time>
      </trkpt>
      <trkpt lat="41.66363" lon="26.44414">
        <ele>106.496004</ele>
        <time>2022-02-26T08:17:16.284Z</time>
      </trkpt>
      <trkpt lat="41.66372" lon="26.44405">
        <ele>106.344591</ele>
        <time>2022-02-26T08:17:19.279Z</time>
      </trkpt>
      <trkpt lat="41.66383" lon="26.44395">
        <ele>106.182574</ele>
        <time>2022-02-26T08:17:22.263Z</time>
      </trkpt>
      <trkpt lat="41.66393" lon="26.44384">
        <ele>106.137041</ele>
        <time>2022-02-26T08:17:25.255Z</time>
      </trkpt>
      <trkpt lat="41.66403" lon="26.44374">
        <ele>106.229397</ele>
        <time>2022-02-26T08:17:28.259Z</time>
      </trkpt>
      <trkpt lat="41.66413" lon="26.44363">
        <ele>106.322075</ele>
        <time>2022-02-26T08:17:31.280Z</time>
      </trkpt>
      <trkpt lat="41.66424" lon="26.44353">
        <ele>106.415324</ele>
        <time>2022-02-26T08:17:34.274Z</time>
      </trkpt>
      <trkpt lat="41.66434" lon="26.44343">
        <ele>106.507679</ele>
        <time>2022-02-26T08:17:37.266Z</time>
      </trkpt>
      <trkpt lat="41.66445" lon="26.44332">
        <ele>106.602968</ele>
        <time>2022-02-26T08:17:40.267Z</time>
      </trkpt>
      <trkpt lat="41.66455" lon="26.44322">
        <ele>106.697001</ele>
        <time>2022-02-26T08:17:43.270Z</time>
      </trkpt>
      <trkpt lat="41.66466" lon="26.44312">
        <ele>106.785345</ele>
        <time>2022-02-26T08:17:46.269Z</time>
      </trkpt>
      <trkpt lat="41.66476" lon="26.44303">
        <ele>106.873395</ele>
        <time>2022-02-26T08:17:49.273Z</time>
      </trkpt>
      <trkpt lat="41.66486" lon="26.44295">
        <ele>106.956986</ele>
        <time>2022-02-26T08:17:52.281Z</time>
      </trkpt>
      <trkpt lat="41.66495" lon="26.44287">
        <ele>107.037012</ele>
        <time>2022-02-26T08:17:55.262Z</time>
      </trkpt>
      <trkpt lat="41.66504" lon="26.44279">
        <ele>107.113461</ele>
        <time>2022-02-26T08:17:58.263Z</time>
      </trkpt>
      <trkpt lat="41.66513" lon="26.44271">
        <ele>107.191689</ele>
        <time>2022-02-26T08:18:01.275Z</time>
      </trkpt>
      <trkpt lat="41.66522" lon="26.44263">
        <ele>107.266656</ele>
        <time>2022-02-26T08:18:04.262Z</time>
      </trkpt>
      <trkpt lat="41.6653" lon="26.44256">
        <ele>107.338095</ele>
        <time>2022-02-26T08:18:07.272Z</time>
      </trkpt>
      <trkpt lat="41.66539" lon="26.44248">
        <ele>107.459745</ele>
        <time>2022-02-26T08:18:10.325Z</time>
      </trkpt>
      <trkpt lat="41.66548" lon="26.44241">
        <ele>107.664585</ele>
        <time>2022-02-26T08:18:13.285Z</time>
      </trkpt>
      <trkpt lat="41.66557" lon="26.44233">
        <ele>107.865431</ele>
        <time>2022-02-26T08:18:16.282Z</time>
      </trkpt>
      <trkpt lat="41.66565" lon="26.44226">
        <ele>108.052715</ele>
        <time>2022-02-26T08:18:19.265Z</time>
      </trkpt>
      <trkpt lat="41.66573" lon="26.44219">
        <ele>108.235242</ele>
        <time>2022-02-26T08:18:22.269Z</time>
      </trkpt>
      <trkpt lat="41.66581" lon="26.44212">
        <ele>108.411413</ele>
        <time>2022-02-26T08:18:25.289Z</time>
      </trkpt>
      <trkpt lat="41.66588" lon="26.44206">
        <ele>108.588506</ele>
        <time>2022-02-26T08:18:28.278Z</time>
      </trkpt>
      <trkpt lat="41.66598" lon="26.44198">
        <ele>108.802974</ele>
        <time>2022-02-26T08:18:32.293Z</time>
      </trkpt>
      <trkpt lat="41.66607" lon="26.4419">
        <ele>108.998995</ele>
        <time>2022-02-26T08:18:36.248Z</time>
      </trkpt>
      <trkpt lat="41.66614" lon="26.44183">
        <ele>109.18324</ele>
        <time>2022-02-26T08:18:40.274Z</time>
      </trkpt>
      <trkpt lat="41.66623" lon="26.44175">
        <ele>109.373714</ele>
        <time>2022-02-26T08:18:44.268Z</time>
      </trkpt>
      <trkpt lat="41.66631" lon="26.44168">
        <ele>109.569734</ele>
        <time>2022-02-26T08:18:48.278Z</time>
      </trkpt>
      <trkpt lat="41.66639" lon="26.4416">
        <ele>109.756363</ele>
        <time>2022-02-26T08:18:52.268Z</time>
      </trkpt>
      <trkpt lat="41.66648" lon="26.44152">
        <ele>109.953242</ele>
        <time>2022-02-26T08:18:56.276Z</time>
      </trkpt>
      <trkpt lat="41.66656" lon="26.44144">
        <ele>110.142254</ele>
        <time>2022-02-26T08:19:00.280Z</time>
      </trkpt>
      <trkpt lat="41.66663" lon="26.44136">
        <ele>110.320633</ele>
        <time>2022-02-26T08:19:04.278Z</time>
      </trkpt>
      <trkpt lat="41.6667" lon="26.44129">
        <ele>110.500277</ele>
        <time>2022-02-26T08:19:08.271Z</time>
      </trkpt>
      <trkpt lat="41.66678" lon="26.44121">
        <ele>110.681657</ele>
        <time>2022-02-26T08:19:12.272Z</time>
      </trkpt>
      <trkpt lat="41.66685" lon="26.44113">
        <ele>110.881546</ele>
        <time>2022-02-26T08:19:16.276Z</time>
      </trkpt>
      <trkpt lat="41.66691" lon="26.44105">
        <ele>111.180253</ele>
        <time>2022-02-26T08:19:20.318Z</time>
      </trkpt>
      <trkpt lat="41.66699" lon="26.44097">
        <ele>111.492404</ele>
        <time>2022-02-26T08:19:24.307Z</time>
      </trkpt>
      <trkpt lat="41.66706" lon="26.44086">
        <ele>111.850237</ele>
        <time>2022-02-26T08:19:29.280Z</time>
      </trkpt>
      <trkpt lat="41.66714" lon="26.44076">
        <ele>112.203988</ele>
        <time>2022-02-26T08:19:34.261Z</time>
      </trkpt>
      <trkpt lat="41.6672" lon="26.44067">
        <ele>112.523333</ele>
        <time>2022-02-26T08:19:38.281Z</time>
      </trkpt>
      <trkpt lat="41.66727" lon="26.44057">
        <ele>112.860621</ele>
        <time>2022-02-26T08:19:42.267Z</time>
      </trkpt>
      <trkpt lat="41.66734" lon="26.44047">
        <ele>113.190801</ele>
        <time>2022-02-26T08:19:46.257Z</time>
      </trkpt>
      <trkpt lat="41.6674" lon="26.44037">
        <ele>113.500431</ele>
        <time>2022-02-26T08:19:50.279Z</time>
      </trkpt>
      <trkpt lat="41.66746" lon="26.44026">
        <ele>113.833114</ele>
        <time>2022-02-26T08:19:54.268Z</time>
      </trkpt>
      <trkpt lat="41.66753" lon="26.44015">
        <ele>114.193518</ele>
        <time>2022-02-26T08:19:58.267Z</time>
      </trkpt>
      <trkpt lat="41.66759" lon="26.44003">
        <ele>114.544009</ele>
        <time>2022-02-26T08:20:02.288Z</time>
      </trkpt>
      <trkpt lat="41.66765" lon="26.43993">
        <ele>114.878962</ele>
        <time>2022-02-26T08:20:06.282Z</time>
      </trkpt>
      <trkpt lat="41.6677" lon="26.43982">
        <ele>115.203163</ele>
        <time>2022-02-26T08:20:10.288Z</time>
      </trkpt>
      <trkpt lat="41.66776" lon="26.43971">
        <ele>115.522326</ele>
        <time>2022-02-26T08:20:14.274Z</time>
      </trkpt>
      <trkpt lat="41.66781" lon="26.43959">
        <ele>115.861419</ele>
        <time>2022-02-26T08:20:18.279Z</time>
      </trkpt>
      <trkpt lat="41.66786" lon="26.43947">
        <ele>116.204307</ele>
        <time>2022-02-26T08:20:22.277Z</time>
      </trkpt>
      <trkpt lat="41.66791" lon="26.43934">
        <ele>116.560513</ele>
        <time>2022-02-26T08:20:26.287Z</time>
      </trkpt>
      <trkpt lat="41.66796" lon="26.43921">
        <ele>116.779428</ele>
        <time>2022-02-26T08:20:30.269Z</time>
      </trkpt>
      <trkpt lat="41.668" lon="26.43908">
        <ele>116.804892</ele>
        <time>2022-02-26T08:20:34.270Z</time>
      </trkpt>
      <trkpt lat="41.66805" lon="26.43895">
        <ele>116.830257</ele>
        <time>2022-02-26T08:20:38.269Z</time>
      </trkpt>
      <trkpt lat="41.66809" lon="26.43881">
        <ele>116.856455</ele>
        <time>2022-02-26T08:20:42.288Z</time>
      </trkpt>
      <trkpt lat="41.66813" lon="26.43866">
        <ele>116.882886</ele>
        <time>2022-02-26T08:20:46.298Z</time>
      </trkpt>
      <trkpt lat="41.66817" lon="26.43851">
        <ele>116.910529</ele>
        <time>2022-02-26T08:20:50.278Z</time>
      </trkpt>
      <trkpt lat="41.66821" lon="26.43837">
        <ele>116.937038</ele>
        <time>2022-02-26T08:20:54.318Z</time>
      </trkpt>
      <trkpt lat="41.66825" lon="26.43822">
        <ele>116.96334</ele>
        <time>2022-02-26T08:20:58.274Z</time>
      </trkpt>
      <trkpt lat="41.66828" lon="26.43808">
        <ele>116.988446</ele>
        <time>2022-02-26T08:21:02.264Z</time>
      </trkpt>
      <trkpt lat="41.66831" lon="26.43794">
        <ele>117.014318</ele>
        <time>2022-02-26T08:21:06.322Z</time>
      </trkpt>
      <trkpt lat="41.66833" lon="26.43779">
        <ele>117.040142</ele>
        <time>2022-02-26T08:21:10.275Z</time>
      </trkpt>
      <trkpt lat="41.66836" lon="26.43765">
        <ele>117.066172</ele>
        <time>2022-02-26T08:21:14.271Z</time>
      </trkpt>
      <trkpt lat="41.66838" lon="26.43749">
        <ele>117.093691</ele>
        <time>2022-02-26T08:21:18.286Z</time>
      </trkpt>
      <trkpt lat="41.6684" lon="26.43734">
        <ele>117.120743</ele>
        <time>2022-02-26T08:21:22.269Z</time>
      </trkpt>
      <trkpt lat="41.66841" lon="26.43719">
        <ele>117.146905</ele>
        <time>2022-02-26T08:21:26.295Z</time>
      </trkpt>
      <trkpt lat="41.66842" lon="26.43703">
        <ele>117.173658</ele>
        <time>2022-02-26T08:21:30.274Z</time>
      </trkpt>
      <trkpt lat="41.66843" lon="26.43691">
        <ele>117.203658</ele>
        <time>2022-02-26T08:21:33.282Z</time>
      </trkpt>
      <trkpt lat="41.66844" lon="26.43678">
        <ele>117.250358</ele>
        <time>2022-02-26T08:21:36.268Z</time>
      </trkpt>
      <trkpt lat="41.66844" lon="26.43664">
        <ele>117.300056</ele>
        <time>2022-02-26T08:21:39.267Z</time>
      </trkpt>
      <trkpt lat="41.66844" lon="26.4365">
        <ele>117.349038</ele>
        <time>2022-02-26T08:21:42.277Z</time>
      </trkpt>
      <trkpt lat="41.66845" lon="26.43636">
        <ele>117.400145</ele>
        <time>2022-02-26T08:21:45.264Z</time>
      </trkpt>
      <trkpt lat="41.66844" lon="26.43621">
        <ele>117.452661</ele>
        <time>2022-02-26T08:21:48.267Z</time>
      </trkpt>
      <trkpt lat="41.66845" lon="26.43606">
        <ele>117.505191</ele>
        <time>2022-02-26T08:21:51.277Z</time>
      </trkpt>
      <trkpt lat="41.66845" lon="26.4359">
        <ele>117.560172</ele>
        <time>2022-02-26T08:21:54.271Z</time>
      </trkpt>
      <trkpt lat="41.66845" lon="26.43575">
        <ele>117.614086</ele>
        <time>2022-02-26T08:21:57.267Z</time>
      </trkpt>
      <trkpt lat="41.66844" lon="26.43559">
        <ele>117.670138</ele>
        <time>2022-02-26T08:22:00.259Z</time>
      </trkpt>
      <trkpt lat="41.66844" lon="26.43542">
        <ele>117.728993</ele>
        <time>2022-02-26T08:22:03.273Z</time>
      </trkpt>
      <trkpt lat="41.66844" lon="26.43526">
        <ele>117.785367</ele>
        <time>2022-02-26T08:22:06.278Z</time>
      </trkpt>
      <trkpt lat="41.66844" lon="26.43511">
        <ele>117.841043</ele>
        <time>2022-02-26T08:22:09.281Z</time>
      </trkpt>
      <trkpt lat="41.66844" lon="26.43495">
        <ele>117.896366</ele>
        <time>2022-02-26T08:22:12.287Z</time>
      </trkpt>
      <trkpt lat="41.66843" lon="26.43478">
        <ele>117.954593</ele>
        <time>2022-02-26T08:22:15.269Z</time>
      </trkpt>
      <trkpt lat="41.66843" lon="26.43462">
        <ele>118.012423</ele>
        <time>2022-02-26T08:22:18.280Z</time>
      </trkpt>
      <trkpt lat="41.66843" lon="26.43446">
        <ele>118.038005</ele>
        <time>2022-02-26T08:22:21.276Z</time>
      </trkpt>
      <trkpt lat="41.66843" lon="26.43429">
        <ele>118.044582</ele>
        <time>2022-02-26T08:22:24.278Z</time>
      </trkpt>
      <trkpt lat="41.66843" lon="26.43413">
        <ele>118.050962</ele>
        <time>2022-02-26T08:22:27.266Z</time>
      </trkpt>
      <trkpt lat="41.66843" lon="26.43396">
        <ele>118.057696</ele>
        <time>2022-02-26T08:22:30.280Z</time>
      </trkpt>
      <trkpt lat="41.66843" lon="26.43383">
        <ele>118.0625</ele>
        <time>2022-02-26T08:22:32.268Z</time>
      </trkpt>
      <trkpt lat="41.66843" lon="26.43366">
        <ele>118.069471</ele>
        <time>2022-02-26T08:22:35.282Z</time>
      </trkpt>
      <trkpt lat="41.66844" lon="26.43349">
        <ele>118.076173</ele>
        <time>2022-02-26T08:22:38.277Z</time>
      </trkpt>
      <trkpt lat="41.66844" lon="26.43333">
        <ele>118.082437</ele>
        <time>2022-02-26T08:22:41.268Z</time>
      </trkpt>
      <trkpt lat="41.66844" lon="26.43316">
        <ele>118.088856</ele>
        <time>2022-02-26T08:22:44.283Z</time>
      </trkpt>
      <trkpt lat="41.66844" lon="26.43299">
        <ele>118.09559</ele>
        <time>2022-02-26T08:22:47.290Z</time>
      </trkpt>
      <trkpt lat="41.66844" lon="26.43282">
        <ele>118.102522</ele>
        <time>2022-02-26T08:22:50.279Z</time>
      </trkpt>
      <trkpt lat="41.66843" lon="26.43264">
        <ele>118.109458</ele>
        <time>2022-02-26T08:22:53.267Z</time>
      </trkpt>
      <trkpt lat="41.66843" lon="26.43246">
        <ele>118.116432</ele>
        <time>2022-02-26T08:22:56.270Z</time>
      </trkpt>
      <trkpt lat="41.66843" lon="26.43229">
        <ele>118.123166</ele>
        <time>2022-02-26T08:22:59.286Z</time>
      </trkpt>
      <trkpt lat="41.66843" lon="26.43212">
        <ele>118.139681</ele>
        <time>2022-02-26T08:23:02.277Z</time>
      </trkpt>
      <trkpt lat="41.66843" lon="26.43195">
        <ele>118.206009</ele>
        <time>2022-02-26T08:23:05.303Z</time>
      </trkpt>
      <trkpt lat="41.66843" lon="26.43178">
        <ele>118.271986</ele>
        <time>2022-02-26T08:23:08.264Z</time>
      </trkpt>
      <trkpt lat="41.66843" lon="26.4316">
        <ele>118.338695</ele>
        <time>2022-02-26T08:23:11.288Z</time>
      </trkpt>
      <trkpt lat="41.66842" lon="26.43143">
        <ele>118.404267</ele>
        <time>2022-02-26T08:23:14.290Z</time>
      </trkpt>
      <trkpt lat="41.66843" lon="26.43126">
        <ele>118.467196</ele>
        <time>2022-02-26T08:23:17.277Z</time>
      </trkpt>
      <trkpt lat="41.66843" lon="26.4311">
        <ele>118.52971</ele>
        <time>2022-02-26T08:23:20.278Z</time>
      </trkpt>
      <trkpt lat="41.66843" lon="26.43093">
        <ele>118.59302</ele>
        <time>2022-02-26T08:23:23.306Z</time>
      </trkpt>
      <trkpt lat="41.66843" lon="26.43077">
        <ele>118.655934</ele>
        <time>2022-02-26T08:23:26.282Z</time>
      </trkpt>
      <trkpt lat="41.66844" lon="26.43061">
        <ele>118.716932</ele>
        <time>2022-02-26T08:23:29.269Z</time>
      </trkpt>
      <trkpt lat="41.66844" lon="26.43045">
        <ele>118.777168</ele>
        <time>2022-02-26T08:23:32.273Z</time>
      </trkpt>
      <trkpt lat="41.66844" lon="26.43029">
        <ele>118.837779</ele>
        <time>2022-02-26T08:23:35.268Z</time>
      </trkpt>
      <trkpt lat="41.66844" lon="26.43014">
        <ele>118.896109</ele>
        <time>2022-02-26T08:23:38.282Z</time>
      </trkpt>
      <trkpt lat="41.66844" lon="26.42998">
        <ele>118.955594</ele>
        <time>2022-02-26T08:23:41.271Z</time>
      </trkpt>
      <trkpt lat="41.66844" lon="26.42982">
        <ele>119.016585</ele>
        <time>2022-02-26T08:23:44.276Z</time>
      </trkpt>
      <trkpt lat="41.66844" lon="26.42967">
        <ele>118.899358</ele>
        <time>2022-02-26T08:23:47.266Z</time>
      </trkpt>
      <trkpt lat="41.66843" lon="26.42951">
        <ele>118.575653</ele>
        <time>2022-02-26T08:23:50.285Z</time>
      </trkpt>
      <trkpt lat="41.66843" lon="26.42935">
        <ele>118.252177</ele>
        <time>2022-02-26T08:23:53.265Z</time>
      </trkpt>
      <trkpt lat="41.66842" lon="26.4292">
        <ele>117.938094</ele>
        <time>2022-02-26T08:23:56.265Z</time>
      </trkpt>
      <trkpt lat="41.66841" lon="26.42904">
        <ele>117.618126</ele>
        <time>2022-02-26T08:23:59.278Z</time>
      </trkpt>
      <trkpt lat="41.6684" lon="26.42889">
        <ele>117.302544</ele>
        <time>2022-02-26T08:24:02.289Z</time>
      </trkpt>
      <trkpt lat="41.66839" lon="26.42873">
        <ele>116.988461</ele>
        <time>2022-02-26T08:24:05.277Z</time>
      </trkpt>
      <trkpt lat="41.66838" lon="26.42858">
        <ele>116.668076</ele>
        <time>2022-02-26T08:24:08.285Z</time>
      </trkpt>
      <trkpt lat="41.66837" lon="26.42843">
        <ele>116.358694</ele>
        <time>2022-02-26T08:24:11.299Z</time>
      </trkpt>
      <trkpt lat="41.66835" lon="26.42827">
        <ele>116.045774</ele>
        <time>2022-02-26T08:24:14.265Z</time>
      </trkpt>
      <trkpt lat="41.66833" lon="26.42813">
        <ele>115.739467</ele>
        <time>2022-02-26T08:24:17.276Z</time>
      </trkpt>
      <trkpt lat="41.66831" lon="26.42798">
        <ele>115.429163</ele>
        <time>2022-02-26T08:24:20.312Z</time>
      </trkpt>
      <trkpt lat="41.66828" lon="26.42783">
        <ele>115.119392</ele>
        <time>2022-02-26T08:24:23.263Z</time>
      </trkpt>
      <trkpt lat="41.66825" lon="26.42768">
        <ele>114.797058</ele>
        <time>2022-02-26T08:24:26.333Z</time>
      </trkpt>
      <trkpt lat="41.66822" lon="26.42752">
        <ele>114.46976</ele>
        <time>2022-02-26T08:24:29.282Z</time>
      </trkpt>
      <trkpt lat="41.66818" lon="26.42737">
        <ele>114.147846</ele>
        <time>2022-02-26T08:24:32.319Z</time>
      </trkpt>
      <trkpt lat="41.66815" lon="26.42722">
        <ele>113.938572</ele>
        <time>2022-02-26T08:24:35.268Z</time>
      </trkpt>
      <trkpt lat="41.66812" lon="26.42707">
        <ele>113.724957</ele>
        <time>2022-02-26T08:24:38.281Z</time>
      </trkpt>
      <trkpt lat="41.66808" lon="26.42691">
        <ele>113.506729</ele>
        <time>2022-02-26T08:24:41.302Z</time>
      </trkpt>
      <trkpt lat="41.66804" lon="26.42676">
        <ele>113.286874</ele>
        <time>2022-02-26T08:24:44.294Z</time>
      </trkpt>
      <trkpt lat="41.66801" lon="26.4266">
        <ele>113.062434</ele>
        <time>2022-02-26T08:24:47.276Z</time>
      </trkpt>
      <trkpt lat="41.66797" lon="26.42644">
        <ele>112.840732</ele>
        <time>2022-02-26T08:24:50.270Z</time>
      </trkpt>
      <trkpt lat="41.66793" lon="26.42629">
        <ele>112.620307</ele>
        <time>2022-02-26T08:24:53.258Z</time>
      </trkpt>
      <trkpt lat="41.66789" lon="26.42613">
        <ele>112.39292</ele>
        <time>2022-02-26T08:24:56.284Z</time>
      </trkpt>
      <trkpt lat="41.66785" lon="26.42596">
        <ele>112.15927</ele>
        <time>2022-02-26T08:24:59.279Z</time>
      </trkpt>
      <trkpt lat="41.66781" lon="26.42581">
        <ele>111.937401</ele>
        <time>2022-02-26T08:25:02.270Z</time>
      </trkpt>
      <trkpt lat="41.66777" lon="26.42565">
        <ele>111.719688</ele>
        <time>2022-02-26T08:25:05.281Z</time>
      </trkpt>
      <trkpt lat="41.66774" lon="26.4255">
        <ele>111.507655</ele>
        <time>2022-02-26T08:25:08.312Z</time>
      </trkpt>
      <trkpt lat="41.66771" lon="26.42535">
        <ele>111.299204</ele>
        <time>2022-02-26T08:25:11.277Z</time>
      </trkpt>
      <trkpt lat="41.66767" lon="26.4252">
        <ele>111.084304</ele>
        <time>2022-02-26T08:25:14.281Z</time>
      </trkpt>
      <trkpt lat="41.66764" lon="26.42504">
        <ele>110.93888</ele>
        <time>2022-02-26T08:25:17.297Z</time>
      </trkpt>
      <trkpt lat="41.6676" lon="26.42488">
        <ele>111.108543</ele>
        <time>2022-02-26T08:25:20.298Z</time>
      </trkpt>
      <trkpt lat="41.66756" lon="26.42474">
        <ele>111.25778</ele>
        <time>2022-02-26T08:25:23.310Z</time>
      </trkpt>
      <trkpt lat="41.66753" lon="26.4246">
        <ele>111.408834</ele>
        <time>2022-02-26T08:25:26.284Z</time>
      </trkpt>
      <trkpt lat="41.66749" lon="26.42443">
        <ele>111.579455</ele>
        <time>2022-02-26T08:25:29.303Z</time>
      </trkpt>
      <trkpt lat="41.66745" lon="26.42426">
        <ele>111.758371</ele>
        <time>2022-02-26T08:25:32.273Z</time>
      </trkpt>
      <trkpt lat="41.66742" lon="26.42409">
        <ele>111.936674</ele>
        <time>2022-02-26T08:25:35.289Z</time>
      </trkpt>
      <trkpt lat="41.66739" lon="26.42392">
        <ele>112.111025</ele>
        <time>2022-02-26T08:25:38.274Z</time>
      </trkpt>
      <trkpt lat="41.66736" lon="26.42376">
        <ele>112.281466</ele>
        <time>2022-02-26T08:25:41.320Z</time>
      </trkpt>
      <trkpt lat="41.66733" lon="26.42359">
        <ele>112.452318</ele>
        <time>2022-02-26T08:25:44.285Z</time>
      </trkpt>
      <trkpt lat="41.66731" lon="26.42342">
        <ele>112.621659</ele>
        <time>2022-02-26T08:25:47.314Z</time>
      </trkpt>
      <trkpt lat="41.66729" lon="26.42326">
        <ele>112.789295</ele>
        <time>2022-02-26T08:25:50.288Z</time>
      </trkpt>
      <trkpt lat="41.66727" lon="26.4231">
        <ele>112.953329</ele>
        <time>2022-02-26T08:25:53.281Z</time>
      </trkpt>
      <trkpt lat="41.66725" lon="26.42294">
        <ele>113.113403</ele>
        <time>2022-02-26T08:25:56.272Z</time>
      </trkpt>
      <trkpt lat="41.66724" lon="26.42278">
        <ele>113.275208</ele>
        <time>2022-02-26T08:25:59.296Z</time>
      </trkpt>
      <trkpt lat="41.66723" lon="26.42261">
        <ele>113.619806</ele>
        <time>2022-02-26T08:26:02.301Z</time>
      </trkpt>
      <trkpt lat="41.66722" lon="26.42245">
        <ele>114.016455</ele>
        <time>2022-02-26T08:26:05.278Z</time>
      </trkpt>
      <trkpt lat="41.66721" lon="26.42228">
        <ele>114.42066</ele>
        <time>2022-02-26T08:26:08.288Z</time>
      </trkpt>
      <trkpt lat="41.6672" lon="26.42212">
        <ele>114.815131</ele>
        <time>2022-02-26T08:26:11.293Z</time>
      </trkpt>
      <trkpt lat="41.66719" lon="26.42196">
        <ele>115.206049</ele>
        <time>2022-02-26T08:26:14.288Z</time>
      </trkpt>
      <trkpt lat="41.66718" lon="26.42181">
        <ele>115.575109</ele>
        <time>2022-02-26T08:26:17.272Z</time>
      </trkpt>
      <trkpt lat="41.66718" lon="26.42166">
        <ele>115.956141</ele>
        <time>2022-02-26T08:26:20.291Z</time>
      </trkpt>
      <trkpt lat="41.66717" lon="26.42149">
        <ele>116.359354</ele>
        <time>2022-02-26T08:26:23.280Z</time>
      </trkpt>
      <trkpt lat="41.66717" lon="26.42133">
        <ele>116.762249</ele>
        <time>2022-02-26T08:26:26.273Z</time>
      </trkpt>
      <trkpt lat="41.66717" lon="26.42116">
        <ele>117.162702</ele>
        <time>2022-02-26T08:26:29.295Z</time>
      </trkpt>
      <trkpt lat="41.66717" lon="26.421">
        <ele>117.563155</ele>
        <time>2022-02-26T08:26:32.305Z</time>
      </trkpt>
      <trkpt lat="41.66718" lon="26.42084">
        <ele>117.944118</ele>
        <time>2022-02-26T08:26:35.277Z</time>
      </trkpt>
      <trkpt lat="41.66718" lon="26.42068">
        <ele>118.349454</ele>
        <time>2022-02-26T08:26:38.273Z</time>
      </trkpt>
      <trkpt lat="41.66718" lon="26.42051">
        <ele>118.762115</ele>
        <time>2022-02-26T08:26:41.278Z</time>
      </trkpt>
      <trkpt lat="41.66718" lon="26.42035">
        <ele>119.15523</ele>
        <time>2022-02-26T08:26:44.310Z</time>
      </trkpt>
      <trkpt lat="41.66718" lon="26.42018">
        <ele>119.305902</ele>
        <time>2022-02-26T08:26:47.271Z</time>
      </trkpt>
      <trkpt lat="41.66718" lon="26.42001">
        <ele>119.434699</ele>
        <time>2022-02-26T08:26:50.325Z</time>
      </trkpt>
      <trkpt lat="41.66717" lon="26.41984">
        <ele>119.559774</ele>
        <time>2022-02-26T08:26:53.275Z</time>
      </trkpt>
      <trkpt lat="41.66717" lon="26.41968">
        <ele>119.681859</ele>
        <time>2022-02-26T08:26:56.310Z</time>
      </trkpt>
      <trkpt lat="41.66717" lon="26.41952">
        <ele>119.800967</ele>
        <time>2022-02-26T08:26:59.281Z</time>
      </trkpt>
      <trkpt lat="41.66717" lon="26.41936">
        <ele>119.922406</ele>
        <time>2022-02-26T08:27:02.310Z</time>
      </trkpt>
      <trkpt lat="41.66717" lon="26.41919">
        <ele>120.044492</ele>
        <time>2022-02-26T08:27:05.281Z</time>
      </trkpt>
      <trkpt lat="41.66717" lon="26.41903">
        <ele>120.165089</ele>
        <time>2022-02-26T08:27:08.320Z</time>
      </trkpt>
      <trkpt lat="41.66717" lon="26.41887">
        <ele>120.284193</ele>
        <time>2022-02-26T08:27:11.289Z</time>
      </trkpt>
      <trkpt lat="41.66717" lon="26.41871">
        <ele>120.405546</ele>
        <time>2022-02-26T08:27:14.283Z</time>
      </trkpt>
      <trkpt lat="41.66717" lon="26.41855">
        <ele>120.525398</ele>
        <time>2022-02-26T08:27:17.277Z</time>
      </trkpt>
      <trkpt lat="41.66717" lon="26.41839">
        <ele>120.64004</ele>
        <time>2022-02-26T08:27:20.276Z</time>
      </trkpt>
      <trkpt lat="41.66717" lon="26.41824">
        <ele>120.751811</ele>
        <time>2022-02-26T08:27:23.275Z</time>
      </trkpt>
      <trkpt lat="41.66717" lon="26.41809">
        <ele>120.863489</ele>
        <time>2022-02-26T08:27:26.284Z</time>
      </trkpt>
      <trkpt lat="41.66717" lon="26.41794">
        <ele>120.973678</ele>
        <time>2022-02-26T08:27:29.287Z</time>
      </trkpt>
      <trkpt lat="41.66718" lon="26.4178">
        <ele>121.191823</ele>
        <time>2022-02-26T08:27:32.276Z</time>
      </trkpt>
      <trkpt lat="41.66718" lon="26.41765">
        <ele>121.422125</ele>
        <time>2022-02-26T08:27:35.271Z</time>
      </trkpt>
      <trkpt lat="41.66718" lon="26.41751">
        <ele>121.642823</ele>
        <time>2022-02-26T08:27:38.292Z</time>
      </trkpt>
      <trkpt lat="41.66718" lon="26.41737">
        <ele>121.860377</ele>
        <time>2022-02-26T08:27:41.307Z</time>
      </trkpt>
      <trkpt lat="41.66718" lon="26.41724">
        <ele>122.068374</ele>
        <time>2022-02-26T08:27:44.282Z</time>
      </trkpt>
      <trkpt lat="41.66718" lon="26.41712">
        <ele>122.268524</ele>
        <time>2022-02-26T08:27:47.286Z</time>
      </trkpt>
      <trkpt lat="41.66718" lon="26.41696">
        <ele>122.522775</ele>
        <time>2022-02-26T08:27:51.262Z</time>
      </trkpt>
      <trkpt lat="41.66719" lon="26.41681">
        <ele>122.761164</ele>
        <time>2022-02-26T08:27:55.280Z</time>
      </trkpt>
      <trkpt lat="41.66719" lon="26.41668">
        <ele>122.970749</ele>
        <time>2022-02-26T08:27:59.286Z</time>
      </trkpt>
      <trkpt lat="41.66719" lon="26.41653">
        <ele>123.204292</ele>
        <time>2022-02-26T08:28:04.269Z</time>
      </trkpt>
      <trkpt lat="41.66719" lon="26.41639">
        <ele>123.425021</ele>
        <time>2022-02-26T08:28:09.260Z</time>
      </trkpt>
      <trkpt lat="41.66719" lon="26.41625">
        <ele>123.64621</ele>
        <time>2022-02-26T08:28:14.271Z</time>
      </trkpt>
      <trkpt lat="41.66718" lon="26.41611">
        <ele>123.86885</ele>
        <time>2022-02-26T08:28:19.289Z</time>
      </trkpt>
      <trkpt lat="41.66719" lon="26.41596">
        <ele>124.107467</ele>
        <time>2022-02-26T08:28:24.280Z</time>
      </trkpt>
      <trkpt lat="41.66719" lon="26.41581">
        <ele>124.340866</ele>
        <time>2022-02-26T08:28:29.265Z</time>
      </trkpt>
      <trkpt lat="41.66719" lon="26.41567">
        <ele>124.572677</ele>
        <time>2022-02-26T08:28:34.279Z</time>
      </trkpt>
      <trkpt lat="41.66718" lon="26.41553">
        <ele>124.798167</ele>
        <time>2022-02-26T08:28:39.280Z</time>
      </trkpt>
      <trkpt lat="41.66719" lon="26.41538">
        <ele>124.927765</ele>
        <time>2022-02-26T08:28:44.274Z</time>
      </trkpt>
      <trkpt lat="41.66718" lon="26.41525">
        <ele>125.033435</ele>
        <time>2022-02-26T08:28:48.297Z</time>
      </trkpt>
      <trkpt lat="41.66718" lon="26.41513">
        <ele>125.138383</ele>
        <time>2022-02-26T08:28:52.277Z</time>
      </trkpt>
      <trkpt lat="41.66718" lon="26.415">
        <ele>125.247334</ele>
        <time>2022-02-26T08:28:56.282Z</time>
      </trkpt>
      <trkpt lat="41.66718" lon="26.41487">
        <ele>125.361358</ele>
        <time>2022-02-26T08:29:00.285Z</time>
      </trkpt>
      <trkpt lat="41.66717" lon="26.41474">
        <ele>125.464453</ele>
        <time>2022-02-26T08:29:04.327Z</time>
      </trkpt>
      <trkpt lat="41.66717" lon="26.41462">
        <ele>125.571864</ele>
        <time>2022-02-26T08:29:08.278Z</time>
      </trkpt>
      <trkpt lat="41.66716" lon="26.41449">
        <ele>125.680259</ele>
        <time>2022-02-26T08:29:12.285Z</time>
      </trkpt>
      <trkpt lat="41.66716" lon="26.41435">
        <ele>125.796899</ele>
        <time>2022-02-26T08:29:17.281Z</time>
      </trkpt>
      <trkpt lat="41.66715" lon="26.41423">
        <ele>125.902961</ele>
        <time>2022-02-26T08:29:21.284Z</time>
      </trkpt>
      <trkpt lat="41.66715" lon="26.41409">
        <ele>126.014469</ele>
        <time>2022-02-26T08:29:25.294Z</time>
      </trkpt>
      <trkpt lat="41.66715" lon="26.41396">
        <ele>126.125115</ele>
        <time>2022-02-26T08:29:29.268Z</time>
      </trkpt>
      <trkpt lat="41.66715" lon="26.41383">
        <ele>126.236692</ele>
        <time>2022-02-26T08:29:33.285Z</time>
      </trkpt>
      <trkpt lat="41.66716" lon="26.4137">
        <ele>126.350069</ele>
        <time>2022-02-26T08:29:37.335Z</time>
      </trkpt>
      <trkpt lat="41.66715" lon="26.41357">
        <ele>126.458229</ele>
        <time>2022-02-26T08:29:41.287Z</time>
      </trkpt>
      <trkpt lat="41.66715" lon="26.41343">
        <ele>126.57227</ele>
        <time>2022-02-26T08:29:45.257Z</time>
      </trkpt>
      <trkpt lat="41.66715" lon="26.41331">
        <ele>126.681221</ele>
        <time>2022-02-26T08:29:49.290Z</time>
      </trkpt>
      <trkpt lat="41.66714" lon="26.41318">
        <ele>126.790459</ele>
        <time>2022-02-26T08:29:53.281Z</time>
      </trkpt>
      <trkpt lat="41.66713" lon="26.41305">
        <ele>126.734069</ele>
        <time>2022-02-26T08:29:57.280Z</time>
      </trkpt>
      <trkpt lat="41.66712" lon="26.41291">
        <ele>126.505792</ele>
        <time>2022-02-26T08:30:01.282Z</time>
      </trkpt>
      <trkpt lat="41.66711" lon="26.41276">
        <ele>126.263638</ele>
        <time>2022-02-26T08:30:05.309Z</time>
      </trkpt>
      <trkpt lat="41.66709" lon="26.41261">
        <ele>126.012201</ele>
        <time>2022-02-26T08:30:09.274Z</time>
      </trkpt>
      <trkpt lat="41.66707" lon="26.41246">
        <ele>125.760183</ele>
        <time>2022-02-26T08:30:13.287Z</time>
      </trkpt>
      <trkpt lat="41.66705" lon="26.41231">
        <ele>125.511343</ele>
        <time>2022-02-26T08:30:17.290Z</time>
      </trkpt>
      <trkpt lat="41.66703" lon="26.41217">
        <ele>125.275515</ele>
        <time>2022-02-26T08:30:21.283Z</time>
      </trkpt>
      <trkpt lat="41.66701" lon="26.41203">
        <ele>125.040798</ele>
        <time>2022-02-26T08:30:25.295Z</time>
      </trkpt>
      <trkpt lat="41.66699" lon="26.41189">
        <ele>124.795248</ele>
        <time>2022-02-26T08:30:29.297Z</time>
      </trkpt>
      <trkpt lat="41.66696" lon="26.41176">
        <ele>124.574476</ele>
        <time>2022-02-26T08:30:33.325Z</time>
      </trkpt>
      <trkpt lat="41.66694" lon="26.4116">
        <ele>124.313891</ele>
        <time>2022-02-26T08:30:37.279Z</time>
      </trkpt>
      <trkpt lat="41.66692" lon="26.41145">
        <ele>124.053358</ele>
        <time>2022-02-26T08:30:41.284Z</time>
      </trkpt>
      <trkpt lat="41.6669" lon="26.41129">
        <ele>123.792026</ele>
        <time>2022-02-26T08:30:45.280Z</time>
      </trkpt>
      <trkpt lat="41.66688" lon="26.41117">
        <ele>123.585388</ele>
        <time>2022-02-26T08:30:48.287Z</time>
      </trkpt>
      <trkpt lat="41.66686" lon="26.41105">
        <ele>123.380583</ele>
        <time>2022-02-26T08:30:51.270Z</time>
      </trkpt>
      <trkpt lat="41.66683" lon="26.41093">
        <ele>123.177369</ele>
        <time>2022-02-26T08:30:54.296Z</time>
      </trkpt>
      <trkpt lat="41.66681" lon="26.4108">
        <ele>122.957653</ele>
        <time>2022-02-26T08:30:57.269Z</time>
      </trkpt>
      <trkpt lat="41.66678" lon="26.41067">
        <ele>122.769172</ele>
        <time>2022-02-26T08:31:00.271Z</time>
      </trkpt>
      <trkpt lat="41.66675" lon="26.41055">
        <ele>122.609542</ele>
        <time>2022-02-26T08:31:03.285Z</time>
      </trkpt>
      <trkpt lat="41.66672" lon="26.41042">
        <ele>122.450277</ele>
        <time>2022-02-26T08:31:06.267Z</time>
      </trkpt>
      <trkpt lat="41.66668" lon="26.4103">
        <ele>122.280082</ele>
        <time>2022-02-26T08:31:09.266Z</time>
      </trkpt>
      <trkpt lat="41.66665" lon="26.41017">
        <ele>122.113356</ele>
        <time>2022-02-26T08:31:12.291Z</time>
      </trkpt>
      <trkpt lat="41.66661" lon="26.41004">
        <ele>121.941958</ele>
        <time>2022-02-26T08:31:15.284Z</time>
      </trkpt>
      <trkpt lat="41.66658" lon="26.40991">
        <ele>121.777537</ele>
        <time>2022-02-26T08:31:18.271Z</time>
      </trkpt>
      <trkpt lat="41.66654" lon="26.40979">
        <ele>121.610606</ele>
        <time>2022-02-26T08:31:21.281Z</time>
      </trkpt>
      <trkpt lat="41.6665" lon="26.40967">
        <ele>121.444431</ele>
        <time>2022-02-26T08:31:24.270Z</time>
      </trkpt>
      <trkpt lat="41.66646" lon="26.40954">
        <ele>121.274573</ele>
        <time>2022-02-26T08:31:27.291Z</time>
      </trkpt>
      <trkpt lat="41.66642" lon="26.40941">
        <ele>121.100809</ele>
        <time>2022-02-26T08:31:30.272Z</time>
      </trkpt>
      <trkpt lat="41.66638" lon="26.40928">
        <ele>120.932245</ele>
        <time>2022-02-26T08:31:33.281Z</time>
      </trkpt>
      <trkpt lat="41.66633" lon="26.40915">
        <ele>120.756979</ele>
        <time>2022-02-26T08:31:36.285Z</time>
      </trkpt>
      <trkpt lat="41.66629" lon="26.40902">
        <ele>120.579655</ele>
        <time>2022-02-26T08:31:39.298Z</time>
      </trkpt>
      <trkpt lat="41.66625" lon="26.40888">
        <ele>120.395559</ele>
        <time>2022-02-26T08:31:42.257Z</time>
      </trkpt>
      <trkpt lat="41.6662" lon="26.40874">
        <ele>120.20302</ele>
        <time>2022-02-26T08:31:45.284Z</time>
      </trkpt>
      <trkpt lat="41.66615" lon="26.4086">
        <ele>120.010514</ele>
        <time>2022-02-26T08:31:48.308Z</time>
      </trkpt>
      <trkpt lat="41.6661" lon="26.40846">
        <ele>119.977624</ele>
        <time>2022-02-26T08:31:51.275Z</time>
      </trkpt>
      <trkpt lat="41.66605" lon="26.40832">
        <ele>120.144572</ele>
        <time>2022-02-26T08:31:54.286Z</time>
      </trkpt>
      <trkpt lat="41.666" lon="26.40818">
        <ele>120.302759</ele>
        <time>2022-02-26T08:31:57.293Z</time>
      </trkpt>
      <trkpt lat="41.66596" lon="26.40804">
        <ele>120.458826</ele>
        <time>2022-02-26T08:32:00.287Z</time>
      </trkpt>
      <trkpt lat="41.66591" lon="26.4079">
        <ele>120.623395</ele>
        <time>2022-02-26T08:32:03.283Z</time>
      </trkpt>
      <trkpt lat="41.66586" lon="26.40776">
        <ele>120.786254</ele>
        <time>2022-02-26T08:32:06.282Z</time>
      </trkpt>
      <trkpt lat="41.66581" lon="26.40763">
        <ele>120.941195</ele>
        <time>2022-02-26T08:32:09.299Z</time>
      </trkpt>
      <trkpt lat="41.66576" lon="26.4075">
        <ele>121.100547</ele>
        <time>2022-02-26T08:32:12.296Z</time>
      </trkpt>
      <trkpt lat="41.66571" lon="26.40736">
        <ele>121.261488</ele>
        <time>2022-02-26T08:32:15.293Z</time>
      </trkpt>
      <trkpt lat="41.66566" lon="26.40723">
        <ele>121.416195</ele>
        <time>2022-02-26T08:32:18.269Z</time>
      </trkpt>
      <trkpt lat="41.66562" lon="26.40709">
        <ele>121.576715</ele>
        <time>2022-02-26T08:32:21.337Z</time>
      </trkpt>
      <trkpt lat="41.66558" lon="26.40696">
        <ele>121.73113</ele>
        <time>2022-02-26T08:32:24.279Z</time>
      </trkpt>
      <trkpt lat="41.66553" lon="26.40682">
        <ele>121.887988</ele>
        <time>2022-02-26T08:32:27.275Z</time>
      </trkpt>
      <trkpt lat="41.66549" lon="26.40668">
        <ele>122.049784</ele>
        <time>2022-02-26T08:32:30.268Z</time>
      </trkpt>
      <trkpt lat="41.66545" lon="26.40654">
        <ele>122.211158</ele>
        <time>2022-02-26T08:32:33.276Z</time>
      </trkpt>
      <trkpt lat="41.6654" lon="26.4064">
        <ele>122.370312</ele>
        <time>2022-02-26T08:32:36.262Z</time>
      </trkpt>
      <trkpt lat="41.66536" lon="26.40626">
        <ele>122.455479</ele>
        <time>2022-02-26T08:32:39.257Z</time>
      </trkpt>
      <trkpt lat="41.66531" lon="26.40613">
        <ele>122.464365</ele>
        <time>2022-02-26T08:32:42.276Z</time>
      </trkpt>
      <trkpt lat="41.66526" lon="26.40599">
        <ele>122.473185</ele>
        <time>2022-02-26T08:32:45.286Z</time>
      </trkpt>
      <trkpt lat="41.66522" lon="26.40586">
        <ele>122.482038</ele>
        <time>2022-02-26T08:32:48.283Z</time>
      </trkpt>
      <trkpt lat="41.66517" lon="26.40572">
        <ele>122.490903</ele>
        <time>2022-02-26T08:32:51.280Z</time>
      </trkpt>
      <trkpt lat="41.66513" lon="26.40559">
        <ele>122.49969</ele>
        <time>2022-02-26T08:32:54.299Z</time>
      </trkpt>
      <trkpt lat="41.66509" lon="26.40546">
        <ele>122.508242</ele>
        <time>2022-02-26T08:32:57.275Z</time>
      </trkpt>
      <trkpt lat="41.66504" lon="26.40532">
        <ele>122.517237</ele>
        <time>2022-02-26T08:33:00.315Z</time>
      </trkpt>
      <trkpt lat="41.665" lon="26.40518">
        <ele>122.526332</ele>
        <time>2022-02-26T08:33:03.272Z</time>
      </trkpt>
      <trkpt lat="41.66495" lon="26.40504">
        <ele>122.535426</ele>
        <time>2022-02-26T08:33:06.360Z</time>
      </trkpt>
      <trkpt lat="41.66491" lon="26.40491">
        <ele>122.544456</ele>
        <time>2022-02-26T08:33:09.272Z</time>
      </trkpt>
      <trkpt lat="41.66486" lon="26.40476">
        <ele>122.554009</ele>
        <time>2022-02-26T08:33:12.268Z</time>
      </trkpt>
      <trkpt lat="41.66481" lon="26.40462">
        <ele>122.563563</ele>
        <time>2022-02-26T08:33:15.291Z</time>
      </trkpt>
      <trkpt lat="41.66476" lon="26.40447">
        <ele>122.573194</ele>
        <time>2022-02-26T08:33:18.279Z</time>
      </trkpt>
      <trkpt lat="41.66471" lon="26.40433">
        <ele>122.582688</ele>
        <time>2022-02-26T08:33:21.335Z</time>
      </trkpt>
      <trkpt lat="41.66466" lon="26.40419">
        <ele>122.591717</ele>
        <time>2022-02-26T08:33:24.265Z</time>
      </trkpt>
      <trkpt lat="41.66461" lon="26.40405">
        <ele>122.617107</ele>
        <time>2022-02-26T08:33:27.282Z</time>
      </trkpt>
      <trkpt lat="41.66456" lon="26.4039">
        <ele>122.652597</ele>
        <time>2022-02-26T08:33:30.288Z</time>
      </trkpt>
      <trkpt lat="41.6645" lon="26.40375">
        <ele>122.689863</ele>
        <time>2022-02-26T08:33:33.281Z</time>
      </trkpt>
      <trkpt lat="41.66445" lon="26.4036">
        <ele>122.726481</ele>
        <time>2022-02-26T08:33:36.275Z</time>
      </trkpt>
      <trkpt lat="41.6644" lon="26.40345">
        <ele>122.763318</ele>
        <time>2022-02-26T08:33:39.309Z</time>
      </trkpt>
      <trkpt lat="41.66434" lon="26.4033">
        <ele>122.801317</ele>
        <time>2022-02-26T08:33:42.282Z</time>
      </trkpt>
      <trkpt lat="41.66429" lon="26.40314">
        <ele>122.838703</ele>
        <time>2022-02-26T08:33:45.326Z</time>
      </trkpt>
      <trkpt lat="41.66425" lon="26.40299">
        <ele>122.874909</ele>
        <time>2022-02-26T08:33:48.285Z</time>
      </trkpt>
      <trkpt lat="41.6642" lon="26.40284">
        <ele>122.910405</ele>
        <time>2022-02-26T08:33:51.284Z</time>
      </trkpt>
      <trkpt lat="41.66416" lon="26.40269">
        <ele>122.94654</ele>
        <time>2022-02-26T08:33:54.282Z</time>
      </trkpt>
      <trkpt lat="41.6641" lon="26.40253">
        <ele>122.985265</ele>
        <time>2022-02-26T08:33:57.279Z</time>
      </trkpt>
      <trkpt lat="41.66407" lon="26.40242">
        <ele>123.011979</ele>
        <time>2022-02-26T08:33:59.295Z</time>
      </trkpt>
      <trkpt lat="41.66401" lon="26.40226">
        <ele>123.051666</ele>
        <time>2022-02-26T08:34:02.274Z</time>
      </trkpt>
      <trkpt lat="41.66398" lon="26.40214">
        <ele>123.079309</ele>
        <time>2022-02-26T08:34:04.271Z</time>
      </trkpt>
      <trkpt lat="41.66394" lon="26.40203">
        <ele>123.106549</ele>
        <time>2022-02-26T08:34:06.270Z</time>
      </trkpt>
      <trkpt lat="41.6639" lon="26.40192">
        <ele>123.110688</ele>
        <time>2022-02-26T08:34:08.282Z</time>
      </trkpt>
      <trkpt lat="41.66386" lon="26.40181">
        <ele>123.013803</ele>
        <time>2022-02-26T08:34:10.288Z</time>
      </trkpt>
      <trkpt lat="41.66382" lon="26.4017">
        <ele>122.918519</ele>
        <time>2022-02-26T08:34:12.288Z</time>
      </trkpt>
      <trkpt lat="41.66378" lon="26.40159">
        <ele>122.820467</ele>
        <time>2022-02-26T08:34:14.282Z</time>
      </trkpt>
      <trkpt lat="41.66374" lon="26.40147">
        <ele>122.720533</ele>
        <time>2022-02-26T08:34:16.279Z</time>
      </trkpt>
      <trkpt lat="41.6637" lon="26.40136">
        <ele>122.624362</ele>
        <time>2022-02-26T08:34:18.289Z</time>
      </trkpt>
      <trkpt lat="41.66365" lon="26.4012">
        <ele>122.484352</ele>
        <time>2022-02-26T08:34:21.283Z</time>
      </trkpt>
      <trkpt lat="41.66359" lon="26.40104">
        <ele>122.343362</ele>
        <time>2022-02-26T08:34:24.310Z</time>
      </trkpt>
      <trkpt lat="41.66353" lon="26.40088">
        <ele>122.201655</ele>
        <time>2022-02-26T08:34:27.281Z</time>
      </trkpt>
      <trkpt lat="41.66348" lon="26.40071">
        <ele>122.058511</ele>
        <time>2022-02-26T08:34:30.322Z</time>
      </trkpt>
      <trkpt lat="41.66344" lon="26.4006">
        <ele>121.96207</ele>
        <time>2022-02-26T08:34:32.284Z</time>
      </trkpt>
      <trkpt lat="41.6634" lon="26.40049">
        <ele>121.864011</ele>
        <time>2022-02-26T08:34:34.278Z</time>
      </trkpt>
      <trkpt lat="41.66336" lon="26.40038">
        <ele>121.764788</ele>
        <time>2022-02-26T08:34:36.271Z</time>
      </trkpt>
      <trkpt lat="41.66332" lon="26.40026">
        <ele>121.662713</ele>
        <time>2022-02-26T08:34:38.291Z</time>
      </trkpt>
      <trkpt lat="41.66328" lon="26.40014">
        <ele>121.561083</ele>
        <time>2022-02-26T08:34:40.311Z</time>
      </trkpt>
      <trkpt lat="41.66324" lon="26.40003">
        <ele>121.464453</ele>
        <time>2022-02-26T08:34:42.269Z</time>
      </trkpt>
      <trkpt lat="41.66318" lon="26.39987">
        <ele>121.323184</ele>
        <time>2022-02-26T08:34:45.296Z</time>
      </trkpt>
      <trkpt lat="41.66313" lon="26.39971">
        <ele>121.100984</ele>
        <time>2022-02-26T08:34:48.266Z</time>
      </trkpt>
      <trkpt lat="41.66307" lon="26.39954">
        <ele>120.696316</ele>
        <time>2022-02-26T08:34:51.281Z</time>
      </trkpt>
      <trkpt lat="41.66304" lon="26.39943">
        <ele>120.417361</ele>
        <time>2022-02-26T08:34:53.278Z</time>
      </trkpt>
      <trkpt lat="41.663" lon="26.39931">
        <ele>120.128703</ele>
        <time>2022-02-26T08:34:55.267Z</time>
      </trkpt>
      <trkpt lat="41.66296" lon="26.39919">
        <ele>119.828978</ele>
        <time>2022-02-26T08:34:57.275Z</time>
      </trkpt>
      <trkpt lat="41.66291" lon="26.39907">
        <ele>119.523328</ele>
        <time>2022-02-26T08:34:59.294Z</time>
      </trkpt>
      <trkpt lat="41.66288" lon="26.39894">
        <ele>119.216082</ele>
        <time>2022-02-26T08:35:01.286Z</time>
      </trkpt>
      <trkpt lat="41.66284" lon="26.39881">
        <ele>118.900245</ele>
        <time>2022-02-26T08:35:03.305Z</time>
      </trkpt>
      <trkpt lat="41.6628" lon="26.39868">
        <ele>118.584408</ele>
        <time>2022-02-26T08:35:05.268Z</time>
      </trkpt>
      <trkpt lat="41.66276" lon="26.39855">
        <ele>118.270812</ele>
        <time>2022-02-26T08:35:07.280Z</time>
      </trkpt>
      <trkpt lat="41.66272" lon="26.39842">
        <ele>117.948733</ele>
        <time>2022-02-26T08:35:09.299Z</time>
      </trkpt>
      <trkpt lat="41.66267" lon="26.39829">
        <ele>117.626075</ele>
        <time>2022-02-26T08:35:11.306Z</time>
      </trkpt>
      <trkpt lat="41.66264" lon="26.39816">
        <ele>117.320929</ele>
        <time>2022-02-26T08:35:13.283Z</time>
      </trkpt>
      <trkpt lat="41.6626" lon="26.39803">
        <ele>117.014545</ele>
        <time>2022-02-26T08:35:15.311Z</time>
      </trkpt>
      <trkpt lat="41.66257" lon="26.39791">
        <ele>116.719834</ele>
        <time>2022-02-26T08:35:17.255Z</time>
      </trkpt>
      <trkpt lat="41.66254" lon="26.39778">
        <ele>116.424524</ele>
        <time>2022-02-26T08:35:19.283Z</time>
      </trkpt>
      <trkpt lat="41.66251" lon="26.39766">
        <ele>116.128343</ele>
        <time>2022-02-26T08:35:21.319Z</time>
      </trkpt>
      <trkpt lat="41.66248" lon="26.39753">
        <ele>115.827866</ele>
        <time>2022-02-26T08:35:23.284Z</time>
      </trkpt>
      <trkpt lat="41.66245" lon="26.3974">
        <ele>115.543065</ele>
        <time>2022-02-26T08:35:25.305Z</time>
      </trkpt>
      <trkpt lat="41.66242" lon="26.39727">
        <ele>115.26338</ele>
        <time>2022-02-26T08:35:27.321Z</time>
      </trkpt>
      <trkpt lat="41.6624" lon="26.39713">
        <ele>114.979364</ele>
        <time>2022-02-26T08:35:29.273Z</time>
      </trkpt>
      <trkpt lat="41.66238" lon="26.397">
        <ele>114.694741</ele>
        <time>2022-02-26T08:35:31.330Z</time>
      </trkpt>
      <trkpt lat="41.66235" lon="26.39686">
        <ele>114.407471</ele>
        <time>2022-02-26T08:35:33.310Z</time>
      </trkpt>
      <trkpt lat="41.66233" lon="26.39673">
        <ele>114.114947</ele>
        <time>2022-02-26T08:35:35.280Z</time>
      </trkpt>
      <trkpt lat="41.66232" lon="26.39658">
        <ele>113.820493</ele>
        <time>2022-02-26T08:35:37.276Z</time>
      </trkpt>
      <trkpt lat="41.6623" lon="26.39644">
        <ele>113.5188</ele>
        <time>2022-02-26T08:35:39.307Z</time>
      </trkpt>
      <trkpt lat="41.66228" lon="26.39629">
        <ele>113.205891</ele>
        <time>2022-02-26T08:35:41.286Z</time>
      </trkpt>
      <trkpt lat="41.66226" lon="26.39614">
        <ele>112.885381</ele>
        <time>2022-02-26T08:35:43.291Z</time>
      </trkpt>
      <trkpt lat="41.66224" lon="26.39598">
        <ele>112.550634</ele>
        <time>2022-02-26T08:35:45.271Z</time>
      </trkpt>
      <trkpt lat="41.66222" lon="26.39582">
        <ele>112.216851</ele>
        <time>2022-02-26T08:35:47.249Z</time>
      </trkpt>
      <trkpt lat="41.6622" lon="26.39566">
        <ele>111.885735</ele>
        <time>2022-02-26T08:35:49.261Z</time>
      </trkpt>
      <trkpt lat="41.66219" lon="26.3955">
        <ele>111.54461</ele>
        <time>2022-02-26T08:35:51.277Z</time>
      </trkpt>
      <trkpt lat="41.66218" lon="26.39533">
        <ele>111.199854</ele>
        <time>2022-02-26T08:35:53.282Z</time>
      </trkpt>
      <trkpt lat="41.66217" lon="26.39517">
        <ele>110.853432</ele>
        <time>2022-02-26T08:35:55.315Z</time>
      </trkpt>
      <trkpt lat="41.66216" lon="26.395">
        <ele>110.545105</ele>
        <time>2022-02-26T08:35:57.271Z</time>
      </trkpt>
      <trkpt lat="41.66216" lon="26.39483">
        <ele>110.230357</ele>
        <time>2022-02-26T08:35:59.267Z</time>
      </trkpt>
      <trkpt lat="41.66215" lon="26.39466">
        <ele>109.922512</ele>
        <time>2022-02-26T08:36:01.265Z</time>
      </trkpt>
      <trkpt lat="41.66214" lon="26.39449">
        <ele>109.611165</ele>
        <time>2022-02-26T08:36:03.309Z</time>
      </trkpt>
      <trkpt lat="41.66214" lon="26.39433">
        <ele>109.302034</ele>
        <time>2022-02-26T08:36:05.257Z</time>
      </trkpt>
      <trkpt lat="41.66213" lon="26.39415">
        <ele>108.985784</ele>
        <time>2022-02-26T08:36:07.267Z</time>
      </trkpt>
      <trkpt lat="41.66213" lon="26.39398">
        <ele>108.66762</ele>
        <time>2022-02-26T08:36:09.301Z</time>
      </trkpt>
      <trkpt lat="41.66213" lon="26.39381">
        <ele>108.358724</ele>
        <time>2022-02-26T08:36:11.272Z</time>
      </trkpt>
      <trkpt lat="41.66213" lon="26.39364">
        <ele>108.038655</ele>
        <time>2022-02-26T08:36:13.273Z</time>
      </trkpt>
      <trkpt lat="41.66213" lon="26.39346">
        <ele>107.718501</ele>
        <time>2022-02-26T08:36:15.280Z</time>
      </trkpt>
      <trkpt lat="41.66213" lon="26.39329">
        <ele>107.39123</ele>
        <time>2022-02-26T08:36:17.285Z</time>
      </trkpt>
      <trkpt lat="41.66213" lon="26.3931">
        <ele>107.056594</ele>
        <time>2022-02-26T08:36:19.287Z</time>
      </trkpt>
      <trkpt lat="41.66213" lon="26.39292">
        <ele>106.72377</ele>
        <time>2022-02-26T08:36:21.304Z</time>
      </trkpt>
      <trkpt lat="41.66213" lon="26.39275">
        <ele>106.405743</ele>
        <time>2022-02-26T08:36:23.284Z</time>
      </trkpt>
      <trkpt lat="41.66213" lon="26.39257">
        <ele>106.317858</ele>
        <time>2022-02-26T08:36:25.268Z</time>
      </trkpt>
      <trkpt lat="41.66213" lon="26.39241">
        <ele>106.235552</ele>
        <time>2022-02-26T08:36:27.276Z</time>
      </trkpt>
      <trkpt lat="41.66213" lon="26.39224">
        <ele>106.154743</ele>
        <time>2022-02-26T08:36:29.280Z</time>
      </trkpt>
      <trkpt lat="41.66212" lon="26.39209">
        <ele>106.075858</ele>
        <time>2022-02-26T08:36:31.265Z</time>
      </trkpt>
      <trkpt lat="41.66212" lon="26.39193">
        <ele>105.995545</ele>
        <time>2022-02-26T08:36:33.277Z</time>
      </trkpt>
      <trkpt lat="41.66214" lon="26.39177">
        <ele>105.916254</ele>
        <time>2022-02-26T08:36:35.296Z</time>
      </trkpt>
      <trkpt lat="41.66214" lon="26.39162">
        <ele>105.84043</ele>
        <time>2022-02-26T08:36:37.285Z</time>
      </trkpt>
      <trkpt lat="41.66214" lon="26.39147">
        <ele>105.767076</ele>
        <time>2022-02-26T08:36:39.275Z</time>
      </trkpt>
      <trkpt lat="41.66213" lon="26.39133">
        <ele>105.696729</ele>
        <time>2022-02-26T08:36:41.291Z</time>
      </trkpt>
      <trkpt lat="41.66213" lon="26.39119">
        <ele>105.629884</ele>
        <time>2022-02-26T08:36:43.309Z</time>
      </trkpt>
      <trkpt lat="41.66213" lon="26.39106">
        <ele>105.564483</ele>
        <time>2022-02-26T08:36:45.282Z</time>
      </trkpt>
      <trkpt lat="41.66213" lon="26.39094">
        <ele>105.501632</ele>
        <time>2022-02-26T08:36:47.295Z</time>
      </trkpt>
      <trkpt lat="41.66213" lon="26.39081">
        <ele>105.440742</ele>
        <time>2022-02-26T08:36:49.276Z</time>
      </trkpt>
      <trkpt lat="41.66213" lon="26.39064">
        <ele>105.35245</ele>
        <time>2022-02-26T08:36:52.293Z</time>
      </trkpt>
      <trkpt lat="41.66212" lon="26.39046">
        <ele>105.263159</ele>
        <time>2022-02-26T08:36:55.278Z</time>
      </trkpt>
      <trkpt lat="41.66212" lon="26.39028">
        <ele>105.289906</ele>
        <time>2022-02-26T08:36:58.275Z</time>
      </trkpt>
      <trkpt lat="41.66212" lon="26.39011">
        <ele>105.511068</ele>
        <time>2022-02-26T08:37:01.276Z</time>
      </trkpt>
      <trkpt lat="41.66212" lon="26.38994">
        <ele>105.730882</ele>
        <time>2022-02-26T08:37:04.279Z</time>
      </trkpt>
      <trkpt lat="41.66212" lon="26.38977">
        <ele>105.951989</ele>
        <time>2022-02-26T08:37:07.284Z</time>
      </trkpt>
      <trkpt lat="41.66212" lon="26.3896">
        <ele>106.169217</ele>
        <time>2022-02-26T08:37:10.262Z</time>
      </trkpt>
      <trkpt lat="41.66212" lon="26.38944">
        <ele>106.377416</ele>
        <time>2022-02-26T08:37:13.299Z</time>
      </trkpt>
      <trkpt lat="41.66212" lon="26.38929">
        <ele>106.576656</ele>
        <time>2022-02-26T08:37:16.338Z</time>
      </trkpt>
      <trkpt lat="41.66213" lon="26.38913">
        <ele>106.773311</ele>
        <time>2022-02-26T08:37:19.285Z</time>
      </trkpt>
      <trkpt lat="41.66212" lon="26.38898">
        <ele>106.971146</ele>
        <time>2022-02-26T08:37:22.363Z</time>
      </trkpt>
      <trkpt lat="41.66212" lon="26.38883">
        <ele>107.166509</ele>
        <time>2022-02-26T08:37:25.275Z</time>
      </trkpt>
      <trkpt lat="41.66212" lon="26.38868">
        <ele>107.356609</ele>
        <time>2022-02-26T08:37:28.295Z</time>
      </trkpt>
      <trkpt lat="41.66212" lon="26.38855">
        <ele>107.533824</ele>
        <time>2022-02-26T08:37:31.291Z</time>
      </trkpt>
      <trkpt lat="41.66212" lon="26.38841">
        <ele>107.704498</ele>
        <time>2022-02-26T08:37:34.281Z</time>
      </trkpt>
      <trkpt lat="41.66212" lon="26.38828">
        <ele>107.873958</ele>
        <time>2022-02-26T08:37:37.275Z</time>
      </trkpt>
      <trkpt lat="41.66211" lon="26.38815">
        <ele>108.048648</ele>
        <time>2022-02-26T08:37:40.285Z</time>
      </trkpt>
      <trkpt lat="41.66211" lon="26.38803">
        <ele>108.207921</ele>
        <time>2022-02-26T08:37:43.291Z</time>
      </trkpt>
      <trkpt lat="41.66211" lon="26.3879">
        <ele>108.366637</ele>
        <time>2022-02-26T08:37:46.270Z</time>
      </trkpt>
      <trkpt lat="41.6621" lon="26.38777">
        <ele>108.502268</ele>
        <time>2022-02-26T08:37:49.303Z</time>
      </trkpt>
      <trkpt lat="41.6621" lon="26.38765">
        <ele>108.638927</ele>
        <time>2022-02-26T08:37:52.300Z</time>
      </trkpt>
      <trkpt lat="41.66209" lon="26.38753">
        <ele>108.772229</ele>
        <time>2022-02-26T08:37:55.309Z</time>
      </trkpt>
      <trkpt lat="41.66209" lon="26.38737">
        <ele>108.950899</ele>
        <time>2022-02-26T08:37:59.272Z</time>
      </trkpt>
      <trkpt lat="41.66208" lon="26.38724">
        <ele>109.094409</ele>
        <time>2022-02-26T08:38:02.271Z</time>
      </trkpt>
      <trkpt lat="41.66207" lon="26.3871">
        <ele>109.244414</ele>
        <time>2022-02-26T08:38:05.276Z</time>
      </trkpt>
      <trkpt lat="41.66207" lon="26.38696">
        <ele>109.39572</ele>
        <time>2022-02-26T08:38:08.281Z</time>
      </trkpt>
      <trkpt lat="41.66206" lon="26.38682">
        <ele>109.550045</ele>
        <time>2022-02-26T08:38:11.279Z</time>
      </trkpt>
      <trkpt lat="41.66205" lon="26.38668">
        <ele>109.712229</ele>
        <time>2022-02-26T08:38:14.284Z</time>
      </trkpt>
      <trkpt lat="41.66205" lon="26.38653">
        <ele>109.877921</ele>
        <time>2022-02-26T08:38:17.320Z</time>
      </trkpt>
      <trkpt lat="41.66203" lon="26.38638">
        <ele>110.037457</ele>
        <time>2022-02-26T08:38:20.287Z</time>
      </trkpt>
      <trkpt lat="41.66203" lon="26.38624">
        <ele>110.197546</ele>
        <time>2022-02-26T08:38:23.314Z</time>
      </trkpt>
      <trkpt lat="41.66201" lon="26.38609">
        <ele>110.362719</ele>
        <time>2022-02-26T08:38:26.298Z</time>
      </trkpt>
      <trkpt lat="41.662" lon="26.38594">
        <ele>110.523701</ele>
        <time>2022-02-26T08:38:29.267Z</time>
      </trkpt>
      <trkpt lat="41.66199" lon="26.38579">
        <ele>110.688875</ele>
        <time>2022-02-26T08:38:32.285Z</time>
      </trkpt>
      <trkpt lat="41.66197" lon="26.38565">
        <ele>110.854221</ele>
        <time>2022-02-26T08:38:35.284Z</time>
      </trkpt>
      <trkpt lat="41.66194" lon="26.38549">
        <ele>110.889612</ele>
        <time>2022-02-26T08:38:38.298Z</time>
      </trkpt>
      <trkpt lat="41.66192" lon="26.38534">
        <ele>110.649182</ele>
        <time>2022-02-26T08:38:41.288Z</time>
      </trkpt>
      <trkpt lat="41.6619" lon="26.3852">
        <ele>110.411535</ele>
        <time>2022-02-26T08:38:44.287Z</time>
      </trkpt>
      <trkpt lat="41.66188" lon="26.38506">
        <ele>110.180439</ele>
        <time>2022-02-26T08:38:47.285Z</time>
      </trkpt>
      <trkpt lat="41.66185" lon="26.38491">
        <ele>109.936002</ele>
        <time>2022-02-26T08:38:50.280Z</time>
      </trkpt>
      <trkpt lat="41.66183" lon="26.38475">
        <ele>109.678681</ele>
        <time>2022-02-26T08:38:53.281Z</time>
      </trkpt>
      <trkpt lat="41.6618" lon="26.38458">
        <ele>109.406921</ele>
        <time>2022-02-26T08:38:56.291Z</time>
      </trkpt>
      <trkpt lat="41.66177" lon="26.38441">
        <ele>109.13169</ele>
        <time>2022-02-26T08:38:59.286Z</time>
      </trkpt>
      <trkpt lat="41.66174" lon="26.38424">
        <ele>108.84457</ele>
        <time>2022-02-26T08:39:02.312Z</time>
      </trkpt>
      <trkpt lat="41.66172" lon="26.38412">
        <ele>108.652123</ele>
        <time>2022-02-26T08:39:04.277Z</time>
      </trkpt>
      <trkpt lat="41.6617" lon="26.384">
        <ele>108.456573</ele>
        <time>2022-02-26T08:39:06.290Z</time>
      </trkpt>
      <trkpt lat="41.66168" lon="26.38388">
        <ele>108.262574</ele>
        <time>2022-02-26T08:39:08.272Z</time>
      </trkpt>
      <trkpt lat="41.66166" lon="26.38376">
        <ele>108.070127</ele>
        <time>2022-02-26T08:39:10.266Z</time>
      </trkpt>
      <trkpt lat="41.66163" lon="26.38359">
        <ele>107.791019</ele>
        <time>2022-02-26T08:39:13.312Z</time>
      </trkpt>
      <trkpt lat="41.66161" lon="26.38342">
        <ele>107.508367</ele>
        <time>2022-02-26T08:39:16.287Z</time>
      </trkpt>
      <trkpt lat="41.66158" lon="26.38325">
        <ele>107.233497</ele>
        <time>2022-02-26T08:39:19.313Z</time>
      </trkpt>
      <trkpt lat="41.66155" lon="26.38308">
        <ele>107.227933</ele>
        <time>2022-02-26T08:39:22.276Z</time>
      </trkpt>
      <trkpt lat="41.66154" lon="26.38296">
        <ele>107.317864</ele>
        <time>2022-02-26T08:39:24.282Z</time>
      </trkpt>
      <trkpt lat="41.66152" lon="26.38284">
        <ele>107.407259</ele>
        <time>2022-02-26T08:39:26.278Z</time>
      </trkpt>
      <trkpt lat="41.6615" lon="26.38272">
        <ele>107.497918</ele>
        <time>2022-02-26T08:39:28.290Z</time>
      </trkpt>
      <trkpt lat="41.66148" lon="26.3826">
        <ele>107.588041</ele>
        <time>2022-02-26T08:39:30.285Z</time>
      </trkpt>
      <trkpt lat="41.66147" lon="26.38248">
        <ele>107.679619</ele>
        <time>2022-02-26T08:39:32.269Z</time>
      </trkpt>
      <trkpt lat="41.66145" lon="26.38235">
        <ele>107.773576</ele>
        <time>2022-02-26T08:39:34.279Z</time>
      </trkpt>
      <trkpt lat="41.66143" lon="26.38223">
        <ele>107.866611</ele>
        <time>2022-02-26T08:39:36.309Z</time>
      </trkpt>
      <trkpt lat="41.66141" lon="26.38211">
        <ele>107.960047</ele>
        <time>2022-02-26T08:39:38.315Z</time>
      </trkpt>
      <trkpt lat="41.66139" lon="26.38199">
        <ele>108.051309</ele>
        <time>2022-02-26T08:39:40.270Z</time>
      </trkpt>
      <trkpt lat="41.66137" lon="26.38186">
        <ele>108.145445</ele>
        <time>2022-02-26T08:39:42.301Z</time>
      </trkpt>
      <trkpt lat="41.66135" lon="26.38174">
        <ele>108.239099</ele>
        <time>2022-02-26T08:39:44.301Z</time>
      </trkpt>
      <trkpt lat="41.66133" lon="26.38162">
        <ele>108.332752</ele>
        <time>2022-02-26T08:39:46.281Z</time>
      </trkpt>
      <trkpt lat="41.66131" lon="26.3815">
        <ele>108.424014</ele>
        <time>2022-02-26T08:39:48.324Z</time>
      </trkpt>
      <trkpt lat="41.66129" lon="26.38138">
        <ele>108.514864</ele>
        <time>2022-02-26T08:39:50.271Z</time>
      </trkpt>
      <trkpt lat="41.66127" lon="26.38126">
        <ele>108.605915</ele>
        <time>2022-02-26T08:39:52.271Z</time>
      </trkpt>
      <trkpt lat="41.66126" lon="26.38114">
        <ele>108.696959</ele>
        <time>2022-02-26T08:39:54.270Z</time>
      </trkpt>
      <trkpt lat="41.66124" lon="26.38101">
        <ele>108.790916</ele>
        <time>2022-02-26T08:39:56.308Z</time>
      </trkpt>
      <trkpt lat="41.66122" lon="26.38089">
        <ele>108.883951</ele>
        <time>2022-02-26T08:39:58.263Z</time>
      </trkpt>
      <trkpt lat="41.6612" lon="26.38077">
        <ele>108.862468</ele>
        <time>2022-02-26T08:40:00.272Z</time>
      </trkpt>
      <trkpt lat="41.66118" lon="26.38064">
        <ele>108.734694</ele>
        <time>2022-02-26T08:40:02.280Z</time>
      </trkpt>
      <trkpt lat="41.66117" lon="26.38052">
        <ele>108.60942</ele>
        <time>2022-02-26T08:40:04.305Z</time>
      </trkpt>
      <trkpt lat="41.66115" lon="26.3804">
        <ele>108.482901</ele>
        <time>2022-02-26T08:40:06.281Z</time>
      </trkpt>
      <trkpt lat="41.66113" lon="26.38028">
        <ele>108.357507</ele>
        <time>2022-02-26T08:40:08.274Z</time>
      </trkpt>
      <trkpt lat="41.66111" lon="26.38015">
        <ele>108.229454</ele>
        <time>2022-02-26T08:40:10.266Z</time>
      </trkpt>
      <trkpt lat="41.66109" lon="26.38003">
        <ele>108.106027</ele>
        <time>2022-02-26T08:40:12.275Z</time>
      </trkpt>
      <trkpt lat="41.66107" lon="26.37992">
        <ele>107.983887</ele>
        <time>2022-02-26T08:40:14.289Z</time>
      </trkpt>
      <trkpt lat="41.66105" lon="26.3798">
        <ele>107.86046</ele>
        <time>2022-02-26T08:40:16.281Z</time>
      </trkpt>
      <trkpt lat="41.66102" lon="26.37962">
        <ele>107.67853</ele>
        <time>2022-02-26T08:40:19.273Z</time>
      </trkpt>
      <trkpt lat="41.661" lon="26.3795">
        <ele>107.557949</ele>
        <time>2022-02-26T08:40:21.322Z</time>
      </trkpt>
      <trkpt lat="41.66097" lon="26.37933">
        <ele>107.376306</ele>
        <time>2022-02-26T08:40:24.272Z</time>
      </trkpt>
      <trkpt lat="41.66095" lon="26.37921">
        <ele>107.252229</ele>
        <time>2022-02-26T08:40:26.271Z</time>
      </trkpt>
      <trkpt lat="41.66093" lon="26.37909">
        <ele>107.127503</ele>
        <time>2022-02-26T08:40:28.307Z</time>
      </trkpt>
      <trkpt lat="41.66091" lon="26.37897">
        <ele>107.001126</ele>
        <time>2022-02-26T08:40:30.281Z</time>
      </trkpt>
      <trkpt lat="41.66088" lon="26.37885">
        <ele>106.876715</ele>
        <time>2022-02-26T08:40:32.316Z</time>
      </trkpt>
      <trkpt lat="41.66086" lon="26.37872">
        <ele>106.750634</ele>
        <time>2022-02-26T08:40:34.277Z</time>
      </trkpt>
      <trkpt lat="41.66085" lon="26.3786">
        <ele>106.624836</ele>
        <time>2022-02-26T08:40:36.276Z</time>
      </trkpt>
      <trkpt lat="41.66083" lon="26.37848">
        <ele>106.497853</ele>
        <time>2022-02-26T08:40:38.367Z</time>
      </trkpt>
      <trkpt lat="41.66081" lon="26.37836">
        <ele>106.449723</ele>
        <time>2022-02-26T08:40:40.290Z</time>
      </trkpt>
      <trkpt lat="41.66078" lon="26.37824">
        <ele>106.402223</ele>
        <time>2022-02-26T08:40:42.278Z</time>
      </trkpt>
      <trkpt lat="41.66076" lon="26.37812">
        <ele>106.355067</ele>
        <time>2022-02-26T08:40:44.292Z</time>
      </trkpt>
      <trkpt lat="41.66074" lon="26.378">
        <ele>106.307426</ele>
        <time>2022-02-26T08:40:46.284Z</time>
      </trkpt>
      <trkpt lat="41.66073" lon="26.37787">
        <ele>106.258765</ele>
        <time>2022-02-26T08:40:48.280Z</time>
      </trkpt>
      <trkpt lat="41.66071" lon="26.37775">
        <ele>106.20935</ele>
        <time>2022-02-26T08:40:50.273Z</time>
      </trkpt>
      <trkpt lat="41.66069" lon="26.37762">
        <ele>106.160034</ele>
        <time>2022-02-26T08:40:52.305Z</time>
      </trkpt>
      <trkpt lat="41.66067" lon="26.3775">
        <ele>106.111642</ele>
        <time>2022-02-26T08:40:54.272Z</time>
      </trkpt>
      <trkpt lat="41.66065" lon="26.37737">
        <ele>106.061473</ele>
        <time>2022-02-26T08:40:56.290Z</time>
      </trkpt>
      <trkpt lat="41.66063" lon="26.37724">
        <ele>106.011094</ele>
        <time>2022-02-26T08:40:58.286Z</time>
      </trkpt>
      <trkpt lat="41.6606" lon="26.37712">
        <ele>105.961441</ele>
        <time>2022-02-26T08:41:00.286Z</time>
      </trkpt>
      <trkpt lat="41.66058" lon="26.37699">
        <ele>105.912673</ele>
        <time>2022-02-26T08:41:02.283Z</time>
      </trkpt>
      <trkpt lat="41.66056" lon="26.37686">
        <ele>105.862402</ele>
        <time>2022-02-26T08:41:04.285Z</time>
      </trkpt>
      <trkpt lat="41.66054" lon="26.37673">
        <ele>105.811478</ele>
        <time>2022-02-26T08:41:06.325Z</time>
      </trkpt>
      <trkpt lat="41.66052" lon="26.3766">
        <ele>105.760273</ele>
        <time>2022-02-26T08:41:08.301Z</time>
      </trkpt>
      <trkpt lat="41.6605" lon="26.37647">
        <ele>105.709625</ele>
        <time>2022-02-26T08:41:10.272Z</time>
      </trkpt>
      <trkpt lat="41.66049" lon="26.37634">
        <ele>105.658702</ele>
        <time>2022-02-26T08:41:12.289Z</time>
      </trkpt>
      <trkpt lat="41.66047" lon="26.37621">
        <ele>105.607677</ele>
        <time>2022-02-26T08:41:14.275Z</time>
      </trkpt>
      <trkpt lat="41.66045" lon="26.37609">
        <ele>105.549655</ele>
        <time>2022-02-26T08:41:16.271Z</time>
      </trkpt>
      <trkpt lat="41.66043" lon="26.37596">
        <ele>105.474105</ele>
        <time>2022-02-26T08:41:18.285Z</time>
      </trkpt>
      <trkpt lat="41.66041" lon="26.37584">
        <ele>105.399395</ele>
        <time>2022-02-26T08:41:20.289Z</time>
      </trkpt>
      <trkpt lat="41.66039" lon="26.37571">
        <ele>105.324722</ele>
        <time>2022-02-26T08:41:22.284Z</time>
      </trkpt>
      <trkpt lat="41.66036" lon="26.37559">
        <ele>105.24965</ele>
        <time>2022-02-26T08:41:24.266Z</time>
      </trkpt>
      <trkpt lat="41.66034" lon="26.37546">
        <ele>105.173789</ele>
        <time>2022-02-26T08:41:26.265Z</time>
      </trkpt>
      <trkpt lat="41.66032" lon="26.37534">
        <ele>105.097927</ele>
        <time>2022-02-26T08:41:28.290Z</time>
      </trkpt>
      <trkpt lat="41.6603" lon="26.37521">
        <ele>105.018605</ele>
        <time>2022-02-26T08:41:30.287Z</time>
      </trkpt>
      <trkpt lat="41.66028" lon="26.37507">
        <ele>104.937229</ele>
        <time>2022-02-26T08:41:32.283Z</time>
      </trkpt>
      <trkpt lat="41.66026" lon="26.37494">
        <ele>104.855682</ele>
        <time>2022-02-26T08:41:34.289Z</time>
      </trkpt>
      <trkpt lat="41.66024" lon="26.3748">
        <ele>104.775624</ele>
        <time>2022-02-26T08:41:36.250Z</time>
      </trkpt>
      <trkpt lat="41.66021" lon="26.37467">
        <ele>104.693097</ele>
        <time>2022-02-26T08:41:38.286Z</time>
      </trkpt>
      <trkpt lat="41.66019" lon="26.37453">
        <ele>104.61262</ele>
        <time>2022-02-26T08:41:40.310Z</time>
      </trkpt>
      <trkpt lat="41.66017" lon="26.3744">
        <ele>104.532721</ele>
        <time>2022-02-26T08:41:42.272Z</time>
      </trkpt>
      <trkpt lat="41.66015" lon="26.37427">
        <ele>104.452086</ele>
        <time>2022-02-26T08:41:44.276Z</time>
      </trkpt>
      <trkpt lat="41.66013" lon="26.37413">
        <ele>104.370875</ele>
        <time>2022-02-26T08:41:46.298Z</time>
      </trkpt>
      <trkpt lat="41.66011" lon="26.37399">
        <ele>104.288923</ele>
        <time>2022-02-26T08:41:48.277Z</time>
      </trkpt>
      <trkpt lat="41.66009" lon="26.37386">
        <ele>104.210017</ele>
        <time>2022-02-26T08:41:50.263Z</time>
      </trkpt>
      <trkpt lat="41.66007" lon="26.37373">
        <ele>104.185566</ele>
        <time>2022-02-26T08:41:52.281Z</time>
      </trkpt>
      <trkpt lat="41.66005" lon="26.3736">
        <ele>104.281792</ele>
        <time>2022-02-26T08:41:54.267Z</time>
      </trkpt>
      <trkpt lat="41.66003" lon="26.37347">
        <ele>104.374676</ele>
        <time>2022-02-26T08:41:56.271Z</time>
      </trkpt>
      <trkpt lat="41.66001" lon="26.37335">
        <ele>104.467063</ele>
        <time>2022-02-26T08:41:58.296Z</time>
      </trkpt>
      <trkpt lat="41.65999" lon="26.37323">
        <ele>104.557832</ele>
        <time>2022-02-26T08:42:00.297Z</time>
      </trkpt>
      <trkpt lat="41.65997" lon="26.37311">
        <ele>104.645786</ele>
        <time>2022-02-26T08:42:02.289Z</time>
      </trkpt>
      <trkpt lat="41.65995" lon="26.37299">
        <ele>104.733956</ele>
        <time>2022-02-26T08:42:04.274Z</time>
      </trkpt>
      <trkpt lat="41.65993" lon="26.37287">
        <ele>104.821206</ele>
        <time>2022-02-26T08:42:06.271Z</time>
      </trkpt>
      <trkpt lat="41.65991" lon="26.37275">
        <ele>104.90857</ele>
        <time>2022-02-26T08:42:08.313Z</time>
      </trkpt>
      <trkpt lat="41.65989" lon="26.37263">
        <ele>104.997022</ele>
        <time>2022-02-26T08:42:10.301Z</time>
      </trkpt>
      <trkpt lat="41.65987" lon="26.37251">
        <ele>105.084491</ele>
        <time>2022-02-26T08:42:12.285Z</time>
      </trkpt>
      <trkpt lat="41.65984" lon="26.37234">
        <ele>105.213748</ele>
        <time>2022-02-26T08:42:15.267Z</time>
      </trkpt>
      <trkpt lat="41.65981" lon="26.37216">
        <ele>105.341597</ele>
        <time>2022-02-26T08:42:18.283Z</time>
      </trkpt>
      <trkpt lat="41.65979" lon="26.372">
        <ele>105.463706</ele>
        <time>2022-02-26T08:42:21.292Z</time>
      </trkpt>
      <trkpt lat="41.65977" lon="26.37183">
        <ele>105.583688</ele>
        <time>2022-02-26T08:42:24.270Z</time>
      </trkpt>
      <trkpt lat="41.65974" lon="26.37167">
        <ele>105.706503</ele>
        <time>2022-02-26T08:42:27.278Z</time>
      </trkpt>
      <trkpt lat="41.65972" lon="26.3715">
        <ele>105.830733</ele>
        <time>2022-02-26T08:42:30.275Z</time>
      </trkpt>
      <trkpt lat="41.65969" lon="26.37132">
        <ele>105.954479</ele>
        <time>2022-02-26T08:42:33.295Z</time>
      </trkpt>
      <trkpt lat="41.65967" lon="26.3712">
        <ele>106.035341</ele>
        <time>2022-02-26T08:42:35.281Z</time>
      </trkpt>
      <trkpt lat="41.65965" lon="26.37103">
        <ele>106.153773</ele>
        <time>2022-02-26T08:42:38.302Z</time>
      </trkpt>
      <trkpt lat="41.65962" lon="26.37086">
        <ele>106.271211</ele>
        <time>2022-02-26T08:42:41.284Z</time>
      </trkpt>
      <trkpt lat="41.6596" lon="26.37069">
        <ele>106.383947</ele>
        <time>2022-02-26T08:42:44.268Z</time>
      </trkpt>
      <trkpt lat="41.65957" lon="26.37052">
        <ele>106.498598</ele>
        <time>2022-02-26T08:42:47.258Z</time>
      </trkpt>
      <trkpt lat="41.65955" lon="26.37035">
        <ele>106.614562</ele>
        <time>2022-02-26T08:42:50.273Z</time>
      </trkpt>
      <trkpt lat="41.65952" lon="26.37018">
        <ele>106.731866</ele>
        <time>2022-02-26T08:42:53.282Z</time>
      </trkpt>
      <trkpt lat="41.65949" lon="26.37001">
        <ele>106.848899</ele>
        <time>2022-02-26T08:42:56.291Z</time>
      </trkpt>
      <trkpt lat="41.65947" lon="26.36984">
        <ele>106.963407</ele>
        <time>2022-02-26T08:42:59.274Z</time>
      </trkpt>
      <trkpt lat="41.65944" lon="26.36967">
        <ele>107.081364</ele>
        <time>2022-02-26T08:43:02.275Z</time>
      </trkpt>
      <trkpt lat="41.65941" lon="26.3695">
        <ele>107.194056</ele>
        <time>2022-02-26T08:43:05.290Z</time>
      </trkpt>
      <trkpt lat="41.65938" lon="26.36934">
        <ele>107.303941</ele>
        <time>2022-02-26T08:43:08.315Z</time>
      </trkpt>
      <trkpt lat="41.65935" lon="26.36918">
        <ele>107.41793</ele>
        <time>2022-02-26T08:43:11.309Z</time>
      </trkpt>
      <trkpt lat="41.65932" lon="26.36901">
        <ele>107.5032</ele>
        <time>2022-02-26T08:43:14.282Z</time>
      </trkpt>
      <trkpt lat="41.65928" lon="26.36884">
        <ele>107.521573</ele>
        <time>2022-02-26T08:43:17.291Z</time>
      </trkpt>
      <trkpt lat="41.65926" lon="26.36867">
        <ele>107.539783</ele>
        <time>2022-02-26T08:43:20.290Z</time>
      </trkpt>
      <trkpt lat="41.65922" lon="26.3685">
        <ele>107.558426</ele>
        <time>2022-02-26T08:43:23.273Z</time>
      </trkpt>
      <trkpt lat="41.6592" lon="26.36834">
        <ele>107.576024</ele>
        <time>2022-02-26T08:43:26.287Z</time>
      </trkpt>
      <trkpt lat="41.65917" lon="26.36818">
        <ele>107.593348</ele>
        <time>2022-02-26T08:43:29.282Z</time>
      </trkpt>
      <trkpt lat="41.65914" lon="26.36802">
        <ele>107.610111</ele>
        <time>2022-02-26T08:43:32.269Z</time>
      </trkpt>
      <trkpt lat="41.65912" lon="26.36786">
        <ele>107.62695</ele>
        <time>2022-02-26T08:43:35.297Z</time>
      </trkpt>
      <trkpt lat="41.6591" lon="26.36771">
        <ele>107.64348</ele>
        <time>2022-02-26T08:43:38.271Z</time>
      </trkpt>
      <trkpt lat="41.65908" lon="26.36755">
        <ele>107.659911</ele>
        <time>2022-02-26T08:43:41.259Z</time>
      </trkpt>
      <trkpt lat="41.65905" lon="26.36738">
        <ele>107.677803</ele>
        <time>2022-02-26T08:43:44.283Z</time>
      </trkpt>
      <trkpt lat="41.65903" lon="26.36721">
        <ele>107.696184</ele>
        <time>2022-02-26T08:43:47.280Z</time>
      </trkpt>
      <trkpt lat="41.65901" lon="26.36704">
        <ele>107.713876</ele>
        <time>2022-02-26T08:43:50.291Z</time>
      </trkpt>
      <trkpt lat="41.65899" lon="26.36688">
        <ele>107.73087</ele>
        <time>2022-02-26T08:43:53.303Z</time>
      </trkpt>
      <trkpt lat="41.65897" lon="26.36672">
        <ele>107.747982</ele>
        <time>2022-02-26T08:43:56.313Z</time>
      </trkpt>
      <trkpt lat="41.65896" lon="26.36655">
        <ele>107.704633</ele>
        <time>2022-02-26T08:43:59.283Z</time>
      </trkpt>
      <trkpt lat="41.65894" lon="26.36638">
        <ele>107.653972</ele>
        <time>2022-02-26T08:44:02.287Z</time>
      </trkpt>
      <trkpt lat="41.65892" lon="26.36621">
        <ele>107.60418</ele>
        <time>2022-02-26T08:44:05.277Z</time>
      </trkpt>
      <trkpt lat="41.65891" lon="26.36604">
        <ele>107.554241</ele>
        <time>2022-02-26T08:44:08.285Z</time>
      </trkpt>
      <trkpt lat="41.65889" lon="26.36588">
        <ele>107.506042</ele>
        <time>2022-02-26T08:44:11.296Z</time>
      </trkpt>
      <trkpt lat="41.65888" lon="26.36572">
        <ele>107.459451</ele>
        <time>2022-02-26T08:44:14.276Z</time>
      </trkpt>
      <trkpt lat="41.65888" lon="26.36556">
        <ele>107.413793</ele>
        <time>2022-02-26T08:44:17.298Z</time>
      </trkpt>
      <trkpt lat="41.65887" lon="26.3654">
        <ele>107.365024</ele>
        <time>2022-02-26T08:44:20.287Z</time>
      </trkpt>
      <trkpt lat="41.65887" lon="26.36523">
        <ele>107.317403</ele>
        <time>2022-02-26T08:44:23.282Z</time>
      </trkpt>
      <trkpt lat="41.65887" lon="26.36507">
        <ele>107.269514</ele>
        <time>2022-02-26T08:44:26.283Z</time>
      </trkpt>
      <trkpt lat="41.65887" lon="26.36491">
        <ele>107.221919</ele>
        <time>2022-02-26T08:44:29.311Z</time>
      </trkpt>
      <trkpt lat="41.65887" lon="26.36473">
        <ele>107.171982</ele>
        <time>2022-02-26T08:44:32.285Z</time>
      </trkpt>
      <trkpt lat="41.65888" lon="26.36456">
        <ele>107.119889</ele>
        <time>2022-02-26T08:44:35.318Z</time>
      </trkpt>
      <trkpt lat="41.65889" lon="26.36438">
        <ele>107.068609</ele>
        <time>2022-02-26T08:44:38.282Z</time>
      </trkpt>
      <trkpt lat="41.6589" lon="26.36426">
        <ele>107.056898</ele>
        <time>2022-02-26T08:44:40.285Z</time>
      </trkpt>
      <trkpt lat="41.65892" lon="26.36409">
        <ele>107.095035</ele>
        <time>2022-02-26T08:44:43.277Z</time>
      </trkpt>
      <trkpt lat="41.65894" lon="26.36392">
        <ele>107.133621</ele>
        <time>2022-02-26T08:44:46.298Z</time>
      </trkpt>
      <trkpt lat="41.65895" lon="26.3638">
        <ele>107.160222</ele>
        <time>2022-02-26T08:44:48.263Z</time>
      </trkpt>
      <trkpt lat="41.65897" lon="26.36368">
        <ele>107.187144</ele>
        <time>2022-02-26T08:44:50.255Z</time>
      </trkpt>
      <trkpt lat="41.65899" lon="26.36355">
        <ele>107.215948</ele>
        <time>2022-02-26T08:44:52.268Z</time>
      </trkpt>
      <trkpt lat="41.65901" lon="26.36343">
        <ele>107.243329</ele>
        <time>2022-02-26T08:44:54.291Z</time>
      </trkpt>
      <trkpt lat="41.65904" lon="26.36331">
        <ele>107.271505</ele>
        <time>2022-02-26T08:44:56.265Z</time>
      </trkpt>
      <trkpt lat="41.65906" lon="26.36319">
        <ele>107.298812</ele>
        <time>2022-02-26T08:44:58.293Z</time>
      </trkpt>
      <trkpt lat="41.65909" lon="26.36306">
        <ele>107.326564</ele>
        <time>2022-02-26T08:45:00.275Z</time>
      </trkpt>
      <trkpt lat="41.65911" lon="26.36294">
        <ele>107.354236</ele>
        <time>2022-02-26T08:45:02.259Z</time>
      </trkpt>
      <trkpt lat="41.65913" lon="26.36283">
        <ele>107.38083</ele>
        <time>2022-02-26T08:45:04.308Z</time>
      </trkpt>
      <trkpt lat="41.65917" lon="26.36266">
        <ele>107.419905</ele>
        <time>2022-02-26T08:45:07.302Z</time>
      </trkpt>
      <trkpt lat="41.65921" lon="26.36249">
        <ele>107.458174</ele>
        <time>2022-02-26T08:45:10.274Z</time>
      </trkpt>
      <trkpt lat="41.65924" lon="26.36237">
        <ele>107.485345</ele>
        <time>2022-02-26T08:45:12.300Z</time>
      </trkpt>
      <trkpt lat="41.65927" lon="26.36226">
        <ele>107.512381</ele>
        <time>2022-02-26T08:45:14.319Z</time>
      </trkpt>
      <trkpt lat="41.65929" lon="26.36214">
        <ele>107.539286</ele>
        <time>2022-02-26T08:45:16.290Z</time>
      </trkpt>
      <trkpt lat="41.65931" lon="26.36202">
        <ele>107.566307</ele>
        <time>2022-02-26T08:45:18.288Z</time>
      </trkpt>
      <trkpt lat="41.65934" lon="26.3619">
        <ele>107.611126</ele>
        <time>2022-02-26T08:45:20.319Z</time>
      </trkpt>
      <trkpt lat="41.65937" lon="26.36178">
        <ele>107.666724</ele>
        <time>2022-02-26T08:45:22.283Z</time>
      </trkpt>
      <trkpt lat="41.65939" lon="26.36167">
        <ele>107.722581</ele>
        <time>2022-02-26T08:45:24.299Z</time>
      </trkpt>
      <trkpt lat="41.65942" lon="26.36155">
        <ele>107.778439</ele>
        <time>2022-02-26T08:45:26.303Z</time>
      </trkpt>
      <trkpt lat="41.65946" lon="26.36138">
        <ele>107.85857</ele>
        <time>2022-02-26T08:45:29.279Z</time>
      </trkpt>
      <trkpt lat="41.6595" lon="26.36121">
        <ele>107.939747</ele>
        <time>2022-02-26T08:45:32.277Z</time>
      </trkpt>
      <trkpt lat="41.65952" lon="26.36109">
        <ele>107.994734</ele>
        <time>2022-02-26T08:45:34.281Z</time>
      </trkpt>
      <trkpt lat="41.65956" lon="26.36092">
        <ele>108.075397</ele>
        <time>2022-02-26T08:45:37.301Z</time>
      </trkpt>
      <trkpt lat="41.6596" lon="26.36076">
        <ele>108.15257</ele>
        <time>2022-02-26T08:45:40.282Z</time>
      </trkpt>
      <trkpt lat="41.65963" lon="26.3606">
        <ele>108.226787</ele>
        <time>2022-02-26T08:45:43.300Z</time>
      </trkpt>
      <trkpt lat="41.65967" lon="26.36044">
        <ele>108.305116</ele>
        <time>2022-02-26T08:45:46.280Z</time>
      </trkpt>
      <trkpt lat="41.65971" lon="26.36027">
        <ele>108.383258</ele>
        <time>2022-02-26T08:45:49.271Z</time>
      </trkpt>
      <trkpt lat="41.65975" lon="26.36012">
        <ele>108.458572</ele>
        <time>2022-02-26T08:45:52.267Z</time>
      </trkpt>
      <trkpt lat="41.65978" lon="26.35996">
        <ele>108.533396</ele>
        <time>2022-02-26T08:45:55.278Z</time>
      </trkpt>
      <trkpt lat="41.65983" lon="26.3598">
        <ele>108.609767</ele>
        <time>2022-02-26T08:45:58.322Z</time>
      </trkpt>
      <trkpt lat="41.65988" lon="26.35966">
        <ele>108.694201</ele>
        <time>2022-02-26T08:46:01.285Z</time>
      </trkpt>
      <trkpt lat="41.65992" lon="26.35952">
        <ele>108.837011</ele>
        <time>2022-02-26T08:46:04.284Z</time>
      </trkpt>
      <trkpt lat="41.65997" lon="26.35937">
        <ele>108.981661</ele>
        <time>2022-02-26T08:46:07.268Z</time>
      </trkpt>
      <trkpt lat="41.66002" lon="26.35923">
        <ele>109.129029</ele>
        <time>2022-02-26T08:46:10.290Z</time>
      </trkpt>
      <trkpt lat="41.66007" lon="26.35909">
        <ele>109.27628</ele>
        <time>2022-02-26T08:46:13.259Z</time>
      </trkpt>
      <trkpt lat="41.66012" lon="26.35895">
        <ele>109.419989</ele>
        <time>2022-02-26T08:46:16.280Z</time>
      </trkpt>
      <trkpt lat="41.66018" lon="26.35882">
        <ele>109.563698</ele>
        <time>2022-02-26T08:46:19.274Z</time>
      </trkpt>
      <trkpt lat="41.66024" lon="26.35869">
        <ele>109.706998</ele>
        <time>2022-02-26T08:46:22.286Z</time>
      </trkpt>
      <trkpt lat="41.6603" lon="26.35855">
        <ele>109.854966</ele>
        <time>2022-02-26T08:46:25.267Z</time>
      </trkpt>
      <trkpt lat="41.66036" lon="26.35842">
        <ele>110.000969</ele>
        <time>2022-02-26T08:46:28.271Z</time>
      </trkpt>
      <trkpt lat="41.66042" lon="26.35829">
        <ele>110.142593</ele>
        <time>2022-02-26T08:46:31.265Z</time>
      </trkpt>
      <trkpt lat="41.66048" lon="26.35817">
        <ele>110.277469</ele>
        <time>2022-02-26T08:46:34.280Z</time>
      </trkpt>
      <trkpt lat="41.66055" lon="26.35806">
        <ele>110.413057</ele>
        <time>2022-02-26T08:46:37.271Z</time>
      </trkpt>
      <trkpt lat="41.66061" lon="26.35795">
        <ele>110.541158</ele>
        <time>2022-02-26T08:46:40.282Z</time>
      </trkpt>
      <trkpt lat="41.66067" lon="26.35784">
        <ele>110.668472</ele>
        <time>2022-02-26T08:46:43.293Z</time>
      </trkpt>
      <trkpt lat="41.66073" lon="26.35773">
        <ele>110.79278</ele>
        <time>2022-02-26T08:46:46.291Z</time>
      </trkpt>
      <trkpt lat="41.66079" lon="26.35763">
        <ele>110.917068</ele>
        <time>2022-02-26T08:46:49.279Z</time>
      </trkpt>
      <trkpt lat="41.66086" lon="26.35752">
        <ele>111.205627</ele>
        <time>2022-02-26T08:46:52.315Z</time>
      </trkpt>
      <trkpt lat="41.66092" lon="26.35742">
        <ele>111.498602</ele>
        <time>2022-02-26T08:46:55.277Z</time>
      </trkpt>
      <trkpt lat="41.66099" lon="26.35731">
        <ele>111.793</ele>
        <time>2022-02-26T08:46:58.260Z</time>
      </trkpt>
      <trkpt lat="41.66106" lon="26.3572">
        <ele>112.094291</ele>
        <time>2022-02-26T08:47:01.274Z</time>
      </trkpt>
      <trkpt lat="41.66112" lon="26.35709">
        <ele>112.38326</ele>
        <time>2022-02-26T08:47:04.303Z</time>
      </trkpt>
      <trkpt lat="41.66118" lon="26.35698">
        <ele>112.684162</ele>
        <time>2022-02-26T08:47:07.316Z</time>
      </trkpt>
      <trkpt lat="41.66125" lon="26.35687">
        <ele>112.981649</ele>
        <time>2022-02-26T08:47:10.268Z</time>
      </trkpt>
      <trkpt lat="41.66131" lon="26.35676">
        <ele>113.257023</ele>
        <time>2022-02-26T08:47:13.282Z</time>
      </trkpt>
      <trkpt lat="41.66137" lon="26.35666">
        <ele>113.549496</ele>
        <time>2022-02-26T08:47:16.297Z</time>
      </trkpt>
      <trkpt lat="41.66144" lon="26.35654">
        <ele>113.853916</ele>
        <time>2022-02-26T08:47:19.265Z</time>
      </trkpt>
      <trkpt lat="41.6615" lon="26.35643">
        <ele>114.158237</ele>
        <time>2022-02-26T08:47:22.247Z</time>
      </trkpt>
      <trkpt lat="41.66157" lon="26.35632">
        <ele>114.460786</ele>
        <time>2022-02-26T08:47:25.254Z</time>
      </trkpt>
      <trkpt lat="41.66163" lon="26.3562">
        <ele>114.765106</ele>
        <time>2022-02-26T08:47:28.302Z</time>
      </trkpt>
      <trkpt lat="41.6617" lon="26.35609">
        <ele>115.074519</ele>
        <time>2022-02-26T08:47:31.267Z</time>
      </trkpt>
      <trkpt lat="41.66176" lon="26.35598">
        <ele>115.366991</ele>
        <time>2022-02-26T08:47:34.300Z</time>
      </trkpt>
      <trkpt lat="41.66183" lon="26.35587">
        <ele>115.659586</ele>
        <time>2022-02-26T08:47:37.274Z</time>
      </trkpt>
      <trkpt lat="41.66189" lon="26.35577">
        <ele>115.940037</ele>
        <time>2022-02-26T08:47:40.307Z</time>
      </trkpt>
      <trkpt lat="41.66195" lon="26.35566">
        <ele>116.142451</ele>
        <time>2022-02-26T08:47:43.266Z</time>
      </trkpt>
      <trkpt lat="41.66201" lon="26.35555">
        <ele>116.301003</ele>
        <time>2022-02-26T08:47:46.276Z</time>
      </trkpt>
      <trkpt lat="41.66208" lon="26.35544">
        <ele>116.460815</ele>
        <time>2022-02-26T08:47:49.297Z</time>
      </trkpt>
      <trkpt lat="41.66215" lon="26.35534">
        <ele>116.620513</ele>
        <time>2022-02-26T08:47:52.271Z</time>
      </trkpt>
      <trkpt lat="41.66221" lon="26.35523">
        <ele>116.782092</ele>
        <time>2022-02-26T08:47:55.269Z</time>
      </trkpt>
      <trkpt lat="41.66228" lon="26.35512">
        <ele>116.944671</ele>
        <time>2022-02-26T08:47:58.333Z</time>
      </trkpt>
      <trkpt lat="41.66235" lon="26.35501">
        <ele>117.10705</ele>
        <time>2022-02-26T08:48:01.277Z</time>
      </trkpt>
      <trkpt lat="41.66241" lon="26.35491">
        <ele>117.26322</ele>
        <time>2022-02-26T08:48:04.285Z</time>
      </trkpt>
      <trkpt lat="41.66248" lon="26.3548">
        <ele>117.422758</ele>
        <time>2022-02-26T08:48:07.277Z</time>
      </trkpt>
      <trkpt lat="41.66254" lon="26.35469">
        <ele>117.583264</ele>
        <time>2022-02-26T08:48:10.282Z</time>
      </trkpt>
      <trkpt lat="41.6626" lon="26.35458">
        <ele>117.745522</ele>
        <time>2022-02-26T08:48:13.282Z</time>
      </trkpt>
      <trkpt lat="41.66268" lon="26.35447">
        <ele>117.919172</ele>
        <time>2022-02-26T08:48:16.282Z</time>
      </trkpt>
      <trkpt lat="41.66275" lon="26.35437">
        <ele>118.088407</ele>
        <time>2022-02-26T08:48:19.271Z</time>
      </trkpt>
      <trkpt lat="41.66283" lon="26.35426">
        <ele>118.257606</ele>
        <time>2022-02-26T08:48:22.260Z</time>
      </trkpt>
      <trkpt lat="41.6629" lon="26.35416">
        <ele>118.421918</ele>
        <time>2022-02-26T08:48:25.303Z</time>
      </trkpt>
      <trkpt lat="41.66298" lon="26.35406">
        <ele>118.590036</ele>
        <time>2022-02-26T08:48:28.304Z</time>
      </trkpt>
      <trkpt lat="41.66306" lon="26.35396">
        <ele>118.757044</ele>
        <time>2022-02-26T08:48:31.296Z</time>
      </trkpt>
      <trkpt lat="41.66314" lon="26.35386">
        <ele>118.565224</ele>
        <time>2022-02-26T08:48:34.274Z</time>
      </trkpt>
      <trkpt lat="41.66322" lon="26.35376">
        <ele>118.167574</ele>
        <time>2022-02-26T08:48:37.285Z</time>
      </trkpt>
      <trkpt lat="41.66334" lon="26.3537">
        <ele>117.703958</ele>
        <time>2022-02-26T08:48:40.277Z</time>
      </trkpt>
      <trkpt lat="41.66345" lon="26.35377">
        <ele>117.276309</ele>
        <time>2022-02-26T08:48:43.288Z</time>
      </trkpt>
      <trkpt lat="41.66352" lon="26.35386">
        <ele>116.92316</ele>
        <time>2022-02-26T08:48:46.283Z</time>
      </trkpt>
      <trkpt lat="41.66358" lon="26.35396">
        <ele>116.587669</ele>
        <time>2022-02-26T08:48:48.275Z</time>
      </trkpt>
      <trkpt lat="41.66367" lon="26.3541">
        <ele>116.085782</ele>
        <time>2022-02-26T08:48:51.263Z</time>
      </trkpt>
      <trkpt lat="41.66373" lon="26.35421">
        <ele>115.70947</ele>
        <time>2022-02-26T08:48:53.309Z</time>
      </trkpt>
      <trkpt lat="41.6638" lon="26.35432">
        <ele>115.340859</ele>
        <time>2022-02-26T08:48:55.299Z</time>
      </trkpt>
      <trkpt lat="41.66387" lon="26.35443">
        <ele>114.935494</ele>
        <time>2022-02-26T08:48:57.280Z</time>
      </trkpt>
      <trkpt lat="41.66397" lon="26.35454">
        <ele>114.47251</ele>
        <time>2022-02-26T08:48:59.280Z</time>
      </trkpt>
      <trkpt lat="41.66409" lon="26.35457">
        <ele>114.015611</ele>
        <time>2022-02-26T08:49:02.259Z</time>
      </trkpt>
      <trkpt lat="41.66419" lon="26.35456">
        <ele>113.679919</ele>
        <time>2022-02-26T08:49:04.267Z</time>
      </trkpt>
      <trkpt lat="41.6643" lon="26.35455">
        <ele>113.26313</ele>
        <time>2022-02-26T08:49:07.300Z</time>
      </trkpt>
      <trkpt lat="41.6644" lon="26.35455">
        <ele>112.900085</ele>
        <time>2022-02-26T08:49:10.273Z</time>
      </trkpt>
      <trkpt lat="41.6645" lon="26.35455">
        <ele>112.536951</ele>
        <time>2022-02-26T08:49:13.301Z</time>
      </trkpt>
      <trkpt lat="41.66461" lon="26.35454">
        <ele>112.430753</ele>
        <time>2022-02-26T08:49:16.285Z</time>
      </trkpt>
      <trkpt lat="41.66471" lon="26.35452">
        <ele>112.569285</ele>
        <time>2022-02-26T08:49:19.327Z</time>
      </trkpt>
      <trkpt lat="41.66481" lon="26.35454">
        <ele>112.712123</ele>
        <time>2022-02-26T08:49:22.271Z</time>
      </trkpt>
      <trkpt lat="41.66492" lon="26.35453">
        <ele>112.866487</ele>
        <time>2022-02-26T08:49:25.318Z</time>
      </trkpt>
      <trkpt lat="41.66503" lon="26.35454">
        <ele>113.025269</ele>
        <time>2022-02-26T08:49:28.285Z</time>
      </trkpt>
      <trkpt lat="41.66515" lon="26.35454">
        <ele>113.183916</ele>
        <time>2022-02-26T08:49:31.326Z</time>
      </trkpt>
      <trkpt lat="41.66525" lon="26.35453">
        <ele>113.331344</ele>
        <time>2022-02-26T08:49:34.279Z</time>
      </trkpt>
      <trkpt lat="41.66535" lon="26.35453">
        <ele>113.46886</ele>
        <time>2022-02-26T08:49:37.290Z</time>
      </trkpt>
      <trkpt lat="41.66545" lon="26.35453">
        <ele>113.610644</ele>
        <time>2022-02-26T08:49:40.279Z</time>
      </trkpt>
      <trkpt lat="41.66556" lon="26.35451">
        <ele>113.761719</ele>
        <time>2022-02-26T08:49:43.284Z</time>
      </trkpt>
      <trkpt lat="41.66566" lon="26.35449">
        <ele>113.912398</ele>
        <time>2022-02-26T08:49:46.288Z</time>
      </trkpt>
      <trkpt lat="41.66577" lon="26.35447">
        <ele>114.056762</ele>
        <time>2022-02-26T08:49:49.278Z</time>
      </trkpt>
      <trkpt lat="41.66587" lon="26.35445">
        <ele>114.203654</ele>
        <time>2022-02-26T08:49:52.296Z</time>
      </trkpt>
      <trkpt lat="41.66597" lon="26.35444">
        <ele>114.34399</ele>
        <time>2022-02-26T08:49:55.266Z</time>
      </trkpt>
      <trkpt lat="41.66607" lon="26.35442">
        <ele>114.481129</ele>
        <time>2022-02-26T08:49:58.276Z</time>
      </trkpt>
      <trkpt lat="41.66617" lon="26.35441">
        <ele>114.624392</ele>
        <time>2022-02-26T08:50:01.287Z</time>
      </trkpt>
      <trkpt lat="41.66626" lon="26.3544">
        <ele>114.761803</ele>
        <time>2022-02-26T08:50:04.273Z</time>
      </trkpt>
      <trkpt lat="41.66637" lon="26.35438">
        <ele>114.95729</ele>
        <time>2022-02-26T08:50:07.271Z</time>
      </trkpt>
      <trkpt lat="41.66647" lon="26.35437">
        <ele>115.35934</ele>
        <time>2022-02-26T08:50:10.267Z</time>
      </trkpt>
      <trkpt lat="41.66658" lon="26.35435">
        <ele>115.764389</ele>
        <time>2022-02-26T08:50:13.294Z</time>
      </trkpt>
      <trkpt lat="41.66668" lon="26.35436">
        <ele>116.149437</ele>
        <time>2022-02-26T08:50:16.283Z</time>
      </trkpt>
      <trkpt lat="41.66677" lon="26.35437">
        <ele>116.530487</ele>
        <time>2022-02-26T08:50:19.289Z</time>
      </trkpt>
      <trkpt lat="41.66687" lon="26.35437">
        <ele>116.892072</ele>
        <time>2022-02-26T08:50:22.288Z</time>
      </trkpt>
      <trkpt lat="41.66697" lon="26.35437">
        <ele>117.299497</ele>
        <time>2022-02-26T08:50:25.281Z</time>
      </trkpt>
      <trkpt lat="41.66708" lon="26.35439">
        <ele>117.708375</ele>
        <time>2022-02-26T08:50:28.316Z</time>
      </trkpt>
      <trkpt lat="41.66718" lon="26.35437">
        <ele>118.101695</ele>
        <time>2022-02-26T08:50:31.262Z</time>
      </trkpt>
      <trkpt lat="41.66729" lon="26.35438">
        <ele>118.512973</ele>
        <time>2022-02-26T08:50:34.278Z</time>
      </trkpt>
      <trkpt lat="41.66738" lon="26.35439">
        <ele>118.877952</ele>
        <time>2022-02-26T08:50:37.290Z</time>
      </trkpt>
      <trkpt lat="41.6675" lon="26.3544">
        <ele>119.308677</ele>
        <time>2022-02-26T08:50:41.278Z</time>
      </trkpt>
      <trkpt lat="41.66759" lon="26.3544">
        <ele>119.669989</ele>
        <time>2022-02-26T08:50:44.274Z</time>
      </trkpt>
      <trkpt lat="41.66769" lon="26.35441">
        <ele>120.059055</ele>
        <time>2022-02-26T08:50:48.297Z</time>
      </trkpt>
      <trkpt lat="41.6678" lon="26.35442">
        <ele>120.465241</ele>
        <time>2022-02-26T08:50:52.316Z</time>
      </trkpt>
      <trkpt lat="41.66791" lon="26.35444">
        <ele>120.902635</ele>
        <time>2022-02-26T08:50:56.307Z</time>
      </trkpt>
      <trkpt lat="41.668" lon="26.35445">
        <ele>121.253358</ele>
        <time>2022-02-26T08:50:59.300Z</time>
      </trkpt>
      <trkpt lat="41.66809" lon="26.35446">
        <ele>121.61138</ele>
        <time>2022-02-26T08:51:02.305Z</time>
      </trkpt>
      <trkpt lat="41.66819" lon="26.35447">
        <ele>121.817195</ele>
        <time>2022-02-26T08:51:05.267Z</time>
      </trkpt>
      <trkpt lat="41.66828" lon="26.35447">
        <ele>121.865498</ele>
        <time>2022-02-26T08:51:08.276Z</time>
      </trkpt>
      <trkpt lat="41.66838" lon="26.35449">
        <ele>121.916833</ele>
        <time>2022-02-26T08:51:11.273Z</time>
      </trkpt>
      <trkpt lat="41.66848" lon="26.3545">
        <ele>121.967599</ele>
        <time>2022-02-26T08:51:14.282Z</time>
      </trkpt>
      <trkpt lat="41.66857" lon="26.3545">
        <ele>122.019031</ele>
        <time>2022-02-26T08:51:17.265Z</time>
      </trkpt>
      <trkpt lat="41.66868" lon="26.3545">
        <ele>122.074131</ele>
        <time>2022-02-26T08:51:20.268Z</time>
      </trkpt>
      <trkpt lat="41.66879" lon="26.3545">
        <ele>122.129768</ele>
        <time>2022-02-26T08:51:23.268Z</time>
      </trkpt>
      <trkpt lat="41.66888" lon="26.35451">
        <ele>122.181813</ele>
        <time>2022-02-26T08:51:26.319Z</time>
      </trkpt>
      <trkpt lat="41.66898" lon="26.3545">
        <ele>122.232196</ele>
        <time>2022-02-26T08:51:29.280Z</time>
      </trkpt>
      <trkpt lat="41.66908" lon="26.35448">
        <ele>122.283889</ele>
        <time>2022-02-26T08:51:32.274Z</time>
      </trkpt>
      <trkpt lat="41.66919" lon="26.35446">
        <ele>122.342955</ele>
        <time>2022-02-26T08:51:36.255Z</time>
      </trkpt>
      <trkpt lat="41.66929" lon="26.35442">
        <ele>122.398841</ele>
        <time>2022-02-26T08:51:40.291Z</time>
      </trkpt>
      <trkpt lat="41.6694" lon="26.35439">
        <ele>122.456686</ele>
        <time>2022-02-26T08:51:44.263Z</time>
      </trkpt>
      <trkpt lat="41.66951" lon="26.35437">
        <ele>122.515443</ele>
        <time>2022-02-26T08:51:48.280Z</time>
      </trkpt>
      <trkpt lat="41.6696" lon="26.35434">
        <ele>122.564039</ele>
        <time>2022-02-26T08:51:51.284Z</time>
      </trkpt>
      <trkpt lat="41.66969" lon="26.35432">
        <ele>122.611532</ele>
        <time>2022-02-26T08:51:54.288Z</time>
      </trkpt>
      <trkpt lat="41.6698" lon="26.35429">
        <ele>122.668386</ele>
        <time>2022-02-26T08:51:58.273Z</time>
      </trkpt>
      <trkpt lat="41.66991" lon="26.35427">
        <ele>122.727846</ele>
        <time>2022-02-26T08:52:02.261Z</time>
      </trkpt>
      <trkpt lat="41.67002" lon="26.35424">
        <ele>122.703652</ele>
        <time>2022-02-26T08:52:06.305Z</time>
      </trkpt>
      <trkpt lat="41.67013" lon="26.35421">
        <ele>122.671155</ele>
        <time>2022-02-26T08:52:10.275Z</time>
      </trkpt>
      <trkpt lat="41.67025" lon="26.35419">
        <ele>122.637717</ele>
        <time>2022-02-26T08:52:14.315Z</time>
      </trkpt>
      <trkpt lat="41.67037" lon="26.35417">
        <ele>122.60393</ele>
        <time>2022-02-26T08:52:18.282Z</time>
      </trkpt>
      <trkpt lat="41.67048" lon="26.35414">
        <ele>122.570874</ele>
        <time>2022-02-26T08:52:22.273Z</time>
      </trkpt>
      <trkpt lat="41.67059" lon="26.3541">
        <ele>122.538402</ele>
        <time>2022-02-26T08:52:26.306Z</time>
      </trkpt>
      <trkpt lat="41.6707" lon="26.35408">
        <ele>122.505649</ele>
        <time>2022-02-26T08:52:30.302Z</time>
      </trkpt>
      <trkpt lat="41.67082" lon="26.35407">
        <ele>122.472665</ele>
        <time>2022-02-26T08:52:34.278Z</time>
      </trkpt>
      <trkpt lat="41.67093" lon="26.35403">
        <ele>122.441349</ele>
        <time>2022-02-26T08:52:38.284Z</time>
      </trkpt>
      <trkpt lat="41.67102" lon="26.354">
        <ele>122.412609</ele>
        <time>2022-02-26T08:52:42.275Z</time>
      </trkpt>
      <trkpt lat="41.67113" lon="26.35397">
        <ele>122.381311</ele>
        <time>2022-02-26T08:52:46.284Z</time>
      </trkpt>
      <trkpt lat="41.67122" lon="26.35395">
        <ele>122.355361</ele>
        <time>2022-02-26T08:52:49.297Z</time>
      </trkpt>
      <trkpt lat="41.67132" lon="26.35392">
        <ele>122.327928</ele>
        <time>2022-02-26T08:52:52.284Z</time>
      </trkpt>
      <trkpt lat="41.67141" lon="26.3539">
        <ele>122.300387</ele>
        <time>2022-02-26T08:52:55.271Z</time>
      </trkpt>
      <trkpt lat="41.67151" lon="26.35387">
        <ele>122.272567</ele>
        <time>2022-02-26T08:52:58.312Z</time>
      </trkpt>
      <trkpt lat="41.6716" lon="26.35382">
        <ele>122.243907</ele>
        <time>2022-02-26T08:53:01.284Z</time>
      </trkpt>
      <trkpt lat="41.6717" lon="26.35379">
        <ele>122.216898</ele>
        <time>2022-02-26T08:53:04.312Z</time>
      </trkpt>
      <trkpt lat="41.6718" lon="26.3538">
        <ele>122.199066</ele>
        <time>2022-02-26T08:53:07.281Z</time>
      </trkpt>
      <trkpt lat="41.67189" lon="26.35379">
        <ele>122.181928</ele>
        <time>2022-02-26T08:53:11.275Z</time>
      </trkpt>
      <trkpt lat="41.67199" lon="26.35377">
        <ele>122.163261</ele>
        <time>2022-02-26T08:53:17.271Z</time>
      </trkpt>
      <trkpt lat="41.67213" lon="26.35371">
        <ele>122.135691</ele>
        <time>2022-02-26T08:55:47.304Z</time>
      </trkpt>
      <trkpt lat="41.67224" lon="26.35368">
        <ele>122.116119</ele>
        <time>2022-02-26T08:55:51.261Z</time>
      </trkpt>
      <trkpt lat="41.67234" lon="26.35365">
        <ele>122.097862</ele>
        <time>2022-02-26T08:55:55.272Z</time>
      </trkpt>
      <trkpt lat="41.67243" lon="26.35361">
        <ele>122.079042</ele>
        <time>2022-02-26T08:55:59.268Z</time>
      </trkpt>
      <trkpt lat="41.67253" lon="26.35356">
        <ele>122.059355</ele>
        <time>2022-02-26T08:56:03.268Z</time>
      </trkpt>
      <trkpt lat="41.67263" lon="26.35351">
        <ele>122.040841</ele>
        <time>2022-02-26T08:56:07.270Z</time>
      </trkpt>
      <trkpt lat="41.6727" lon="26.35344">
        <ele>122.024192</ele>
        <time>2022-02-26T08:56:10.275Z</time>
      </trkpt>
      <trkpt lat="41.67278" lon="26.35334">
        <ele>122.003952</ele>
        <time>2022-02-26T08:56:13.263Z</time>
      </trkpt>
      <trkpt lat="41.67288" lon="26.3532">
        <ele>121.978551</ele>
        <time>2022-02-26T08:56:16.270Z</time>
      </trkpt>
      <trkpt lat="41.67294" lon="26.3531">
        <ele>121.959945</ele>
        <time>2022-02-26T08:56:18.271Z</time>
      </trkpt>
      <trkpt lat="41.67301" lon="26.35299">
        <ele>121.94101</ele>
        <time>2022-02-26T08:56:20.265Z</time>
      </trkpt>
      <trkpt lat="41.67307" lon="26.35289">
        <ele>121.921641</ele>
        <time>2022-02-26T08:56:22.317Z</time>
      </trkpt>
      <trkpt lat="41.67314" lon="26.35277">
        <ele>121.900974</ele>
        <time>2022-02-26T08:56:24.273Z</time>
      </trkpt>
      <trkpt lat="41.67322" lon="26.35265">
        <ele>122.002881</ele>
        <time>2022-02-26T08:56:26.280Z</time>
      </trkpt>
      <trkpt lat="41.67329" lon="26.35252">
        <ele>122.236132</ele>
        <time>2022-02-26T08:56:28.282Z</time>
      </trkpt>
      <trkpt lat="41.67336" lon="26.3524">
        <ele>122.462233</ele>
        <time>2022-02-26T08:56:30.258Z</time>
      </trkpt>
      <trkpt lat="41.67344" lon="26.35229">
        <ele>122.682804</ele>
        <time>2022-02-26T08:56:32.271Z</time>
      </trkpt>
      <trkpt lat="41.67351" lon="26.35219">
        <ele>122.883432</ele>
        <time>2022-02-26T08:56:34.277Z</time>
      </trkpt>
      <trkpt lat="41.67358" lon="26.3521">
        <ele>123.063052</ele>
        <time>2022-02-26T08:56:36.283Z</time>
      </trkpt>
      <trkpt lat="41.67368" lon="26.35199">
        <ele>123.32172</ele>
        <time>2022-02-26T08:56:39.277Z</time>
      </trkpt>
      <trkpt lat="41.6738" lon="26.35191">
        <ele>123.576466</ele>
        <time>2022-02-26T08:56:42.273Z</time>
      </trkpt>
      <trkpt lat="41.6739" lon="26.35185">
        <ele>123.79042</ele>
        <time>2022-02-26T08:56:45.297Z</time>
      </trkpt>
      <trkpt lat="41.67399" lon="26.35181">
        <ele>123.977454</ele>
        <time>2022-02-26T08:56:48.284Z</time>
      </trkpt>
      <trkpt lat="41.6741" lon="26.35175">
        <ele>124.206051</ele>
        <time>2022-02-26T08:56:52.280Z</time>
      </trkpt>
      <trkpt lat="41.67421" lon="26.35171">
        <ele>124.435567</ele>
        <time>2022-02-26T08:56:56.304Z</time>
      </trkpt>
      <trkpt lat="41.67431" lon="26.35166">
        <ele>124.652528</ele>
        <time>2022-02-26T08:57:00.269Z</time>
      </trkpt>
      <trkpt lat="41.67442" lon="26.35161">
        <ele>124.865825</ele>
        <time>2022-02-26T08:57:04.282Z</time>
      </trkpt>
      <trkpt lat="41.67451" lon="26.35155">
        <ele>125.069242</ele>
        <time>2022-02-26T08:57:08.274Z</time>
      </trkpt>
      <trkpt lat="41.67461" lon="26.35149">
        <ele>125.267368</ele>
        <time>2022-02-26T08:57:12.274Z</time>
      </trkpt>
      <trkpt lat="41.6747" lon="26.35142">
        <ele>125.523482</ele>
        <time>2022-02-26T08:57:16.264Z</time>
      </trkpt>
      <trkpt lat="41.67478" lon="26.35134">
        <ele>125.777725</ele>
        <time>2022-02-26T08:57:19.270Z</time>
      </trkpt>
      <trkpt lat="41.67484" lon="26.35121">
        <ele>126.093022</ele>
        <time>2022-02-26T08:57:23.290Z</time>
      </trkpt>
      <trkpt lat="41.67489" lon="26.35108">
        <ele>126.37967</ele>
        <time>2022-02-26T08:57:27.285Z</time>
      </trkpt>
      <trkpt lat="41.67492" lon="26.35095">
        <ele>126.665344</ele>
        <time>2022-02-26T08:57:32.300Z</time>
      </trkpt>
      <trkpt lat="41.67496" lon="26.35084">
        <ele>126.911184</ele>
        <time>2022-02-26T08:57:35.278Z</time>
      </trkpt>
      <trkpt lat="41.67499" lon="26.35072">
        <ele>127.174214</ele>
        <time>2022-02-26T08:57:38.282Z</time>
      </trkpt>
      <trkpt lat="41.67502" lon="26.35058">
        <ele>127.473607</ele>
        <time>2022-02-26T08:57:42.313Z</time>
      </trkpt>
      <trkpt lat="41.67506" lon="26.35044">
        <ele>127.768904</ele>
        <time>2022-02-26T08:57:47.277Z</time>
      </trkpt>
      <trkpt lat="41.6751" lon="26.35031">
        <ele>128.045525</ele>
        <time>2022-02-26T08:57:51.281Z</time>
      </trkpt>
      <trkpt lat="41.67514" lon="26.35018">
        <ele>128.346182</ele>
        <time>2022-02-26T08:57:55.266Z</time>
      </trkpt>
      <trkpt lat="41.67519" lon="26.35005">
        <ele>128.623905</ele>
        <time>2022-02-26T08:57:59.317Z</time>
      </trkpt>
      <trkpt lat="41.67524" lon="26.34992">
        <ele>128.929735</ele>
        <time>2022-02-26T08:58:03.273Z</time>
      </trkpt>
      <trkpt lat="41.67529" lon="26.3498">
        <ele>129.211561</ele>
        <time>2022-02-26T08:58:07.276Z</time>
      </trkpt>
      <trkpt lat="41.67534" lon="26.34968">
        <ele>129.483947</ele>
        <time>2022-02-26T08:58:11.283Z</time>
      </trkpt>
      <trkpt lat="41.67539" lon="26.34956">
        <ele>129.773032</ele>
        <time>2022-02-26T08:58:15.272Z</time>
      </trkpt>
      <trkpt lat="41.67545" lon="26.34944">
        <ele>130.06289</ele>
        <time>2022-02-26T08:58:19.271Z</time>
      </trkpt>
      <trkpt lat="41.6755" lon="26.34931">
        <ele>130.28091</ele>
        <time>2022-02-26T08:58:23.276Z</time>
      </trkpt>
      <trkpt lat="41.67557" lon="26.34919">
        <ele>130.315571</ele>
        <time>2022-02-26T08:58:27.263Z</time>
      </trkpt>
      <trkpt lat="41.67563" lon="26.34907">
        <ele>130.349102</ele>
        <time>2022-02-26T08:58:31.311Z</time>
      </trkpt>
      <trkpt lat="41.67569" lon="26.34894">
        <ele>130.384665</ele>
        <time>2022-02-26T08:58:35.281Z</time>
      </trkpt>
      <trkpt lat="41.67576" lon="26.34882">
        <ele>130.418359</ele>
        <time>2022-02-26T08:58:39.295Z</time>
      </trkpt>
      <trkpt lat="41.67583" lon="26.34871">
        <ele>130.453597</ele>
        <time>2022-02-26T08:58:43.271Z</time>
      </trkpt>
      <trkpt lat="41.67589" lon="26.34861">
        <ele>130.482513</ele>
        <time>2022-02-26T08:58:46.275Z</time>
      </trkpt>
      <trkpt lat="41.67596" lon="26.34849">
        <ele>130.518459</ele>
        <time>2022-02-26T08:58:50.285Z</time>
      </trkpt>
      <trkpt lat="41.67604" lon="26.34836">
        <ele>130.555485</ele>
        <time>2022-02-26T08:58:54.278Z</time>
      </trkpt>
      <trkpt lat="41.6761" lon="26.34826">
        <ele>130.58697</ele>
        <time>2022-02-26T08:58:57.297Z</time>
      </trkpt>
      <trkpt lat="41.67617" lon="26.34816">
        <ele>130.617919</ele>
        <time>2022-02-26T08:59:00.290Z</time>
      </trkpt>
      <trkpt lat="41.67623" lon="26.34806">
        <ele>130.647549</ele>
        <time>2022-02-26T08:59:03.270Z</time>
      </trkpt>
      <trkpt lat="41.67629" lon="26.34796">
        <ele>130.676865</ele>
        <time>2022-02-26T08:59:06.280Z</time>
      </trkpt>
      <trkpt lat="41.67635" lon="26.34785">
        <ele>130.709994</ele>
        <time>2022-02-26T08:59:09.277Z</time>
      </trkpt>
      <trkpt lat="41.67642" lon="26.34773">
        <ele>130.744233</ele>
        <time>2022-02-26T08:59:12.276Z</time>
      </trkpt>
      <trkpt lat="41.67648" lon="26.34762">
        <ele>130.776625</ele>
        <time>2022-02-26T08:59:15.269Z</time>
      </trkpt>
      <trkpt lat="41.67654" lon="26.34751">
        <ele>130.806989</ele>
        <time>2022-02-26T08:59:18.273Z</time>
      </trkpt>
      <trkpt lat="41.6766" lon="26.34741">
        <ele>130.777983</ele>
        <time>2022-02-26T08:59:21.273Z</time>
      </trkpt>
      <trkpt lat="41.67666" lon="26.3473">
        <ele>130.627651</ele>
        <time>2022-02-26T08:59:24.310Z</time>
      </trkpt>
      <trkpt lat="41.67671" lon="26.34719">
        <ele>130.47548</ele>
        <time>2022-02-26T08:59:27.271Z</time>
      </trkpt>
      <trkpt lat="41.67676" lon="26.34708">
        <ele>130.320574</ele>
        <time>2022-02-26T08:59:30.308Z</time>
      </trkpt>
      <trkpt lat="41.67681" lon="26.34696">
        <ele>130.159019</ele>
        <time>2022-02-26T08:59:33.275Z</time>
      </trkpt>
      <trkpt lat="41.67686" lon="26.34683">
        <ele>129.99169</ele>
        <time>2022-02-26T08:59:36.284Z</time>
      </trkpt>
      <trkpt lat="41.67691" lon="26.3467">
        <ele>129.823555</ele>
        <time>2022-02-26T08:59:39.262Z</time>
      </trkpt>
      <trkpt lat="41.67696" lon="26.34656">
        <ele>129.644623</ele>
        <time>2022-02-26T08:59:42.320Z</time>
      </trkpt>
      <trkpt lat="41.67701" lon="26.34643">
        <ele>129.469515</ele>
        <time>2022-02-26T08:59:45.259Z</time>
      </trkpt>
      <trkpt lat="41.67706" lon="26.34628">
        <ele>129.281882</ele>
        <time>2022-02-26T08:59:48.280Z</time>
      </trkpt>
      <trkpt lat="41.67711" lon="26.34613">
        <ele>129.0879</ele>
        <time>2022-02-26T08:59:51.261Z</time>
      </trkpt>
      <trkpt lat="41.67716" lon="26.34598">
        <ele>128.903433</ele>
        <time>2022-02-26T08:59:54.279Z</time>
      </trkpt>
      <trkpt lat="41.6772" lon="26.34584">
        <ele>128.725162</ele>
        <time>2022-02-26T08:59:57.273Z</time>
      </trkpt>
      <trkpt lat="41.67725" lon="26.34571">
        <ele>128.558075</ele>
        <time>2022-02-26T09:00:00.262Z</time>
      </trkpt>
      <trkpt lat="41.67729" lon="26.3456">
        <ele>128.410166</ele>
        <time>2022-02-26T09:00:03.270Z</time>
      </trkpt>
      <trkpt lat="41.67733" lon="26.34548">
        <ele>128.261817</ele>
        <time>2022-02-26T09:00:06.295Z</time>
      </trkpt>
      <trkpt lat="41.67737" lon="26.34537">
        <ele>128.118001</ele>
        <time>2022-02-26T09:00:09.272Z</time>
      </trkpt>
      <trkpt lat="41.67742" lon="26.34526">
        <ele>127.99863</ele>
        <time>2022-02-26T09:00:12.267Z</time>
      </trkpt>
      <trkpt lat="41.67747" lon="26.34513">
        <ele>127.930596</ele>
        <time>2022-02-26T09:00:15.283Z</time>
      </trkpt>
      <trkpt lat="41.67751" lon="26.34501">
        <ele>127.864487</ele>
        <time>2022-02-26T09:00:18.282Z</time>
      </trkpt>
      <trkpt lat="41.67756" lon="26.3449">
        <ele>127.801439</ele>
        <time>2022-02-26T09:00:21.265Z</time>
      </trkpt>
      <trkpt lat="41.67761" lon="26.34479">
        <ele>127.739645</ele>
        <time>2022-02-26T09:00:24.271Z</time>
      </trkpt>
      <trkpt lat="41.67765" lon="26.34469">
        <ele>127.68029</ele>
        <time>2022-02-26T09:00:27.295Z</time>
      </trkpt>
      <trkpt lat="41.67771" lon="26.34456">
        <ele>127.605648</ele>
        <time>2022-02-26T09:00:31.272Z</time>
      </trkpt>
      <trkpt lat="41.67775" lon="26.34445">
        <ele>127.545942</ele>
        <time>2022-02-26T09:00:34.268Z</time>
      </trkpt>
      <trkpt lat="41.67781" lon="26.34432">
        <ele>127.469914</ele>
        <time>2022-02-26T09:00:38.283Z</time>
      </trkpt>
      <trkpt lat="41.67786" lon="26.3442">
        <ele>127.400328</ele>
        <time>2022-02-26T09:00:42.284Z</time>
      </trkpt>
      <trkpt lat="41.67791" lon="26.34407">
        <ele>127.328774</ele>
        <time>2022-02-26T09:00:46.285Z</time>
      </trkpt>
      <trkpt lat="41.67796" lon="26.34394">
        <ele>127.25884</ele>
        <time>2022-02-26T09:00:50.272Z</time>
      </trkpt>
      <trkpt lat="41.678" lon="26.34379">
        <ele>127.18273</ele>
        <time>2022-02-26T09:00:54.287Z</time>
      </trkpt>
      <trkpt lat="41.67803" lon="26.34367">
        <ele>127.121214</ele>
        <time>2022-02-26T09:00:57.275Z</time>
      </trkpt>
      <trkpt lat="41.67805" lon="26.34355">
        <ele>127.058148</ele>
        <time>2022-02-26T09:01:00.266Z</time>
      </trkpt>
      <trkpt lat="41.67808" lon="26.34343">
        <ele>126.995212</ele>
        <time>2022-02-26T09:01:03.283Z</time>
      </trkpt>
      <trkpt lat="41.67809" lon="26.3433">
        <ele>126.932659</ele>
        <time>2022-02-26T09:01:06.269Z</time>
      </trkpt>
      <trkpt lat="41.6781" lon="26.34318">
        <ele>126.871926</ele>
        <time>2022-02-26T09:01:09.267Z</time>
      </trkpt>
      <trkpt lat="41.67811" lon="26.34305">
        <ele>126.947384</ele>
        <time>2022-02-26T09:01:12.286Z</time>
      </trkpt>
      <trkpt lat="41.67812" lon="26.34291">
        <ele>127.194241</ele>
        <time>2022-02-26T09:01:15.281Z</time>
      </trkpt>
      <trkpt lat="41.67813" lon="26.34277">
        <ele>127.435627</ele>
        <time>2022-02-26T09:01:18.277Z</time>
      </trkpt>
      <trkpt lat="41.67813" lon="26.34263">
        <ele>127.681129</ele>
        <time>2022-02-26T09:01:21.277Z</time>
      </trkpt>
      <trkpt lat="41.67813" lon="26.34249">
        <ele>127.925058</ele>
        <time>2022-02-26T09:01:24.290Z</time>
      </trkpt>
      <trkpt lat="41.67814" lon="26.34235">
        <ele>128.173216</ele>
        <time>2022-02-26T09:01:27.282Z</time>
      </trkpt>
      <trkpt lat="41.67814" lon="26.34222">
        <ele>128.409996</ele>
        <time>2022-02-26T09:01:30.276Z</time>
      </trkpt>
      <trkpt lat="41.67814" lon="26.34209">
        <ele>128.643224</ele>
        <time>2022-02-26T09:01:33.295Z</time>
      </trkpt>
      <trkpt lat="41.67814" lon="26.34195">
        <ele>128.883511</ele>
        <time>2022-02-26T09:01:36.270Z</time>
      </trkpt>
      <trkpt lat="41.67815" lon="26.34181">
        <ele>129.122414</ele>
        <time>2022-02-26T09:01:39.300Z</time>
      </trkpt>
      <trkpt lat="41.67815" lon="26.34168">
        <ele>129.350574</ele>
        <time>2022-02-26T09:01:42.275Z</time>
      </trkpt>
      <trkpt lat="41.67815" lon="26.34154">
        <ele>129.604942</ele>
        <time>2022-02-26T09:01:45.259Z</time>
      </trkpt>
      <trkpt lat="41.67815" lon="26.34138">
        <ele>129.883802</ele>
        <time>2022-02-26T09:01:48.286Z</time>
      </trkpt>
      <trkpt lat="41.67816" lon="26.34122">
        <ele>130.166168</ele>
        <time>2022-02-26T09:01:51.286Z</time>
      </trkpt>
      <trkpt lat="41.67816" lon="26.34106">
        <ele>130.44562</ele>
        <time>2022-02-26T09:01:54.253Z</time>
      </trkpt>
      <trkpt lat="41.67818" lon="26.3409">
        <ele>130.721438</ele>
        <time>2022-02-26T09:01:57.271Z</time>
      </trkpt>
      <trkpt lat="41.6782" lon="26.34075">
        <ele>130.989056</ele>
        <time>2022-02-26T09:02:00.278Z</time>
      </trkpt>
      <trkpt lat="41.67823" lon="26.3406">
        <ele>131.235157</ele>
        <time>2022-02-26T09:02:03.305Z</time>
      </trkpt>
      <trkpt lat="41.67828" lon="26.34046">
        <ele>131.475927</ele>
        <time>2022-02-26T09:02:06.273Z</time>
      </trkpt>
      <trkpt lat="41.67835" lon="26.34032">
        <ele>131.731295</ele>
        <time>2022-02-26T09:02:09.280Z</time>
      </trkpt>
      <trkpt lat="41.67842" lon="26.3402">
        <ele>131.969978</ele>
        <time>2022-02-26T09:02:12.272Z</time>
      </trkpt>
      <trkpt lat="41.67849" lon="26.34008">
        <ele>132.19852</ele>
        <time>2022-02-26T09:02:15.286Z</time>
      </trkpt>
      <trkpt lat="41.67857" lon="26.33998">
        <ele>132.420058</ele>
        <time>2022-02-26T09:02:18.289Z</time>
      </trkpt>
      <trkpt lat="41.67865" lon="26.33987">
        <ele>132.645093</ele>
        <time>2022-02-26T09:02:21.291Z</time>
      </trkpt>
      <trkpt lat="41.67872" lon="26.33977">
        <ele>132.868344</ele>
        <time>2022-02-26T09:02:24.283Z</time>
      </trkpt>
      <trkpt lat="41.6788" lon="26.33967">
        <ele>133.080757</ele>
        <time>2022-02-26T09:02:27.289Z</time>
      </trkpt>
      <trkpt lat="41.67887" lon="26.33957">
        <ele>133.298971</ele>
        <time>2022-02-26T09:02:30.274Z</time>
      </trkpt>
      <trkpt lat="41.67894" lon="26.33947">
        <ele>133.502395</ele>
        <time>2022-02-26T09:02:33.289Z</time>
      </trkpt>
      <trkpt lat="41.67901" lon="26.33937">
        <ele>133.708031</ele>
        <time>2022-02-26T09:02:36.281Z</time>
      </trkpt>
      <trkpt lat="41.67908" lon="26.33927">
        <ele>133.926364</ele>
        <time>2022-02-26T09:02:39.281Z</time>
      </trkpt>
      <trkpt lat="41.67915" lon="26.33916">
        <ele>134.150142</ele>
        <time>2022-02-26T09:02:42.353Z</time>
      </trkpt>
      <trkpt lat="41.67922" lon="26.33906">
        <ele>134.355502</ele>
        <time>2022-02-26T09:02:45.283Z</time>
      </trkpt>
      <trkpt lat="41.67929" lon="26.33896">
        <ele>134.555849</ele>
        <time>2022-02-26T09:02:48.291Z</time>
      </trkpt>
      <trkpt lat="41.67935" lon="26.33886">
        <ele>134.788192</ele>
        <time>2022-02-26T09:02:51.284Z</time>
      </trkpt>
      <trkpt lat="41.67941" lon="26.33876">
        <ele>135.319849</ele>
        <time>2022-02-26T09:02:54.276Z</time>
      </trkpt>
      <trkpt lat="41.67948" lon="26.33866">
        <ele>135.871544</ele>
        <time>2022-02-26T09:02:57.271Z</time>
      </trkpt>
      <trkpt lat="41.67955" lon="26.33855">
        <ele>136.461341</ele>
        <time>2022-02-26T09:03:00.281Z</time>
      </trkpt>
      <trkpt lat="41.67962" lon="26.33845">
        <ele>137.042835</ele>
        <time>2022-02-26T09:03:03.288Z</time>
      </trkpt>
      <trkpt lat="41.67969" lon="26.33834">
        <ele>137.621294</ele>
        <time>2022-02-26T09:03:06.273Z</time>
      </trkpt>
      <trkpt lat="41.67976" lon="26.33825">
        <ele>138.169223</ele>
        <time>2022-02-26T09:03:09.308Z</time>
      </trkpt>
      <trkpt lat="41.67985" lon="26.33813">
        <ele>138.834967</ele>
        <time>2022-02-26T09:03:13.279Z</time>
      </trkpt>
      <trkpt lat="41.67991" lon="26.33803">
        <ele>139.349723</ele>
        <time>2022-02-26T09:03:16.271Z</time>
      </trkpt>
      <trkpt lat="41.67997" lon="26.33794">
        <ele>139.846765</ele>
        <time>2022-02-26T09:03:19.292Z</time>
      </trkpt>
      <trkpt lat="41.68005" lon="26.33783">
        <ele>140.478171</ele>
        <time>2022-02-26T09:03:23.290Z</time>
      </trkpt>
      <trkpt lat="41.68011" lon="26.33773">
        <ele>140.983162</ele>
        <time>2022-02-26T09:03:26.279Z</time>
      </trkpt>
      <trkpt lat="41.68017" lon="26.33764">
        <ele>141.505025</ele>
        <time>2022-02-26T09:03:29.271Z</time>
      </trkpt>
      <trkpt lat="41.68024" lon="26.33755">
        <ele>142.013397</ele>
        <time>2022-02-26T09:03:32.277Z</time>
      </trkpt>
      <trkpt lat="41.68032" lon="26.33745">
        <ele>142.626956</ele>
        <time>2022-02-26T09:03:36.281Z</time>
      </trkpt>
      <trkpt lat="41.68038" lon="26.33736">
        <ele>143.117282</ele>
        <time>2022-02-26T09:03:39.257Z</time>
      </trkpt>
      <trkpt lat="41.68045" lon="26.33727">
        <ele>143.645131</ele>
        <time>2022-02-26T09:03:42.285Z</time>
      </trkpt>
      <trkpt lat="41.68052" lon="26.33718">
        <ele>144.174132</ele>
        <time>2022-02-26T09:03:45.276Z</time>
      </trkpt>
      <trkpt lat="41.68062" lon="26.3371">
        <ele>144.45633</ele>
        <time>2022-02-26T09:03:49.322Z</time>
      </trkpt>
      <trkpt lat="41.68072" lon="26.33701">
        <ele>144.136296</ele>
        <time>2022-02-26T09:03:53.307Z</time>
      </trkpt>
      <trkpt lat="41.68082" lon="26.33694">
        <ele>143.815359</ele>
        <time>2022-02-26T09:03:57.289Z</time>
      </trkpt>
      <trkpt lat="41.68092" lon="26.33688">
        <ele>143.519152</ele>
        <time>2022-02-26T09:04:01.313Z</time>
      </trkpt>
      <trkpt lat="41.68102" lon="26.3368">
        <ele>143.194414</ele>
        <time>2022-02-26T09:04:05.279Z</time>
      </trkpt>
      <trkpt lat="41.68113" lon="26.33674">
        <ele>142.872344</ele>
        <time>2022-02-26T09:04:09.282Z</time>
      </trkpt>
      <trkpt lat="41.68123" lon="26.33668">
        <ele>142.561029</ele>
        <time>2022-02-26T09:04:13.317Z</time>
      </trkpt>
      <trkpt lat="41.68134" lon="26.33662">
        <ele>142.242097</ele>
        <time>2022-02-26T09:04:17.279Z</time>
      </trkpt>
      <trkpt lat="41.68144" lon="26.33656">
        <ele>141.93756</ele>
        <time>2022-02-26T09:04:21.293Z</time>
      </trkpt>
      <trkpt lat="41.68155" lon="26.33651">
        <ele>141.627019</ele>
        <time>2022-02-26T09:04:25.280Z</time>
      </trkpt>
      <trkpt lat="41.68165" lon="26.33645">
        <ele>141.324997</ele>
        <time>2022-02-26T09:04:29.313Z</time>
      </trkpt>
      <trkpt lat="41.68176" lon="26.33639">
        <ele>141.008608</ele>
        <time>2022-02-26T09:04:33.289Z</time>
      </trkpt>
      <trkpt lat="41.68185" lon="26.33633">
        <ele>140.717366</ele>
        <time>2022-02-26T09:04:37.261Z</time>
      </trkpt>
      <trkpt lat="41.68199" lon="26.33625">
        <ele>140.319392</ele>
        <time>2022-02-26T09:04:42.317Z</time>
      </trkpt>
      <trkpt lat="41.68207" lon="26.3362">
        <ele>140.070772</ele>
        <time>2022-02-26T09:04:45.297Z</time>
      </trkpt>
      <trkpt lat="41.68217" lon="26.33612">
        <ele>139.739155</ele>
        <time>2022-02-26T09:04:49.270Z</time>
      </trkpt>
      <trkpt lat="41.68226" lon="26.33601">
        <ele>139.429399</ele>
        <time>2022-02-26T09:04:53.302Z</time>
      </trkpt>
      <trkpt lat="41.68233" lon="26.33593">
        <ele>139.19795</ele>
        <time>2022-02-26T09:04:56.256Z</time>
      </trkpt>
      <trkpt lat="41.68239" lon="26.3358">
        <ele>138.902547</ele>
        <time>2022-02-26T09:05:00.298Z</time>
      </trkpt>
      <trkpt lat="41.68244" lon="26.33567">
        <ele>138.628827</ele>
        <time>2022-02-26T09:05:04.287Z</time>
      </trkpt>
      <trkpt lat="41.68246" lon="26.33555">
        <ele>138.399795</ele>
        <time>2022-02-26T09:05:07.279Z</time>
      </trkpt>
      <trkpt lat="41.68247" lon="26.33543">
        <ele>138.160919</ele>
        <time>2022-02-26T09:05:10.299Z</time>
      </trkpt>
      <trkpt lat="41.68248" lon="26.33529">
        <ele>137.904195</ele>
        <time>2022-02-26T09:05:13.285Z</time>
      </trkpt>
      <trkpt lat="41.68249" lon="26.33516">
        <ele>137.648797</ele>
        <time>2022-02-26T09:05:16.282Z</time>
      </trkpt>
      <trkpt lat="41.68249" lon="26.33503">
        <ele>137.4019</ele>
        <time>2022-02-26T09:05:19.321Z</time>
      </trkpt>
      <trkpt lat="41.68249" lon="26.3349">
        <ele>137.153172</ele>
        <time>2022-02-26T09:05:22.298Z</time>
      </trkpt>
      <trkpt lat="41.6825" lon="26.33476">
        <ele>136.892658</ele>
        <time>2022-02-26T09:05:25.323Z</time>
      </trkpt>
      <trkpt lat="41.68251" lon="26.33461">
        <ele>136.616831</ele>
        <time>2022-02-26T09:05:28.267Z</time>
      </trkpt>
      <trkpt lat="41.68252" lon="26.33446">
        <ele>136.332845</ele>
        <time>2022-02-26T09:05:31.317Z</time>
      </trkpt>
      <trkpt lat="41.68253" lon="26.33431">
        <ele>136.035622</ele>
        <time>2022-02-26T09:05:34.277Z</time>
      </trkpt>
      <trkpt lat="41.68254" lon="26.33415">
        <ele>135.737044</ele>
        <time>2022-02-26T09:05:37.270Z</time>
      </trkpt>
      <trkpt lat="41.68255" lon="26.33401">
        <ele>135.4644</ele>
        <time>2022-02-26T09:05:40.290Z</time>
      </trkpt>
      <trkpt lat="41.68257" lon="26.33386">
        <ele>135.184639</ele>
        <time>2022-02-26T09:05:43.288Z</time>
      </trkpt>
      <trkpt lat="41.68258" lon="26.33372">
        <ele>135.193689</ele>
        <time>2022-02-26T09:05:46.260Z</time>
      </trkpt>
      <trkpt lat="41.6826" lon="26.33356">
        <ele>135.402689</ele>
        <time>2022-02-26T09:05:49.323Z</time>
      </trkpt>
      <trkpt lat="41.68263" lon="26.33342">
        <ele>135.601259</ele>
        <time>2022-02-26T09:05:52.272Z</time>
      </trkpt>
      <trkpt lat="41.68265" lon="26.33329">
        <ele>135.781914</ele>
        <time>2022-02-26T09:05:55.270Z</time>
      </trkpt>
      <trkpt lat="41.68269" lon="26.33316">
        <ele>135.975386</ele>
        <time>2022-02-26T09:05:58.289Z</time>
      </trkpt>
      <trkpt lat="41.68274" lon="26.33304">
        <ele>136.163023</ele>
        <time>2022-02-26T09:06:01.288Z</time>
      </trkpt>
      <trkpt lat="41.6828" lon="26.33292">
        <ele>136.360526</ele>
        <time>2022-02-26T09:06:04.280Z</time>
      </trkpt>
      <trkpt lat="41.68286" lon="26.33279">
        <ele>136.558029</ele>
        <time>2022-02-26T09:06:07.289Z</time>
      </trkpt>
      <trkpt lat="41.68292" lon="26.33267">
        <ele>136.755532</ele>
        <time>2022-02-26T09:06:10.311Z</time>
      </trkpt>
      <trkpt lat="41.68299" lon="26.33255">
        <ele>136.963615</ele>
        <time>2022-02-26T09:06:13.259Z</time>
      </trkpt>
      <trkpt lat="41.68306" lon="26.33242">
        <ele>137.172688</ele>
        <time>2022-02-26T09:06:16.287Z</time>
      </trkpt>
      <trkpt lat="41.68312" lon="26.3323">
        <ele>137.373102</ele>
        <time>2022-02-26T09:06:19.267Z</time>
      </trkpt>
      <trkpt lat="41.68319" lon="26.33219">
        <ele>137.573606</ele>
        <time>2022-02-26T09:06:22.282Z</time>
      </trkpt>
      <trkpt lat="41.68326" lon="26.33207">
        <ele>137.772987</ele>
        <time>2022-02-26T09:06:25.311Z</time>
      </trkpt>
      <trkpt lat="41.68333" lon="26.33196">
        <ele>137.968063</ele>
        <time>2022-02-26T09:06:28.286Z</time>
      </trkpt>
      <trkpt lat="41.6834" lon="26.33185">
        <ele>138.169444</ele>
        <time>2022-02-26T09:06:31.289Z</time>
      </trkpt>
      <trkpt lat="41.68348" lon="26.33174">
        <ele>138.505471</ele>
        <time>2022-02-26T09:06:34.291Z</time>
      </trkpt>
      <trkpt lat="41.68355" lon="26.33163">
        <ele>139.306849</ele>
        <time>2022-02-26T09:06:37.263Z</time>
      </trkpt>
      <trkpt lat="41.68362" lon="26.33154">
        <ele>140.107625</ele>
        <time>2022-02-26T09:06:40.271Z</time>
      </trkpt>
      <trkpt lat="41.6837" lon="26.33143">
        <ele>140.94478</ele>
        <time>2022-02-26T09:06:43.316Z</time>
      </trkpt>
      <trkpt lat="41.68378" lon="26.33133">
        <ele>141.755987</ele>
        <time>2022-02-26T09:06:46.270Z</time>
      </trkpt>
      <trkpt lat="41.68385" lon="26.33124">
        <ele>142.570197</ele>
        <time>2022-02-26T09:06:49.312Z</time>
      </trkpt>
      <trkpt lat="41.68394" lon="26.33114">
        <ele>143.411494</ele>
        <time>2022-02-26T09:06:52.273Z</time>
      </trkpt>
      <trkpt lat="41.68403" lon="26.33105">
        <ele>144.269005</ele>
        <time>2022-02-26T09:06:55.271Z</time>
      </trkpt>
      <trkpt lat="41.68412" lon="26.33097">
        <ele>145.100269</ele>
        <time>2022-02-26T09:06:58.308Z</time>
      </trkpt>
      <trkpt lat="41.6842" lon="26.3309">
        <ele>145.842269</ele>
        <time>2022-02-26T09:07:01.280Z</time>
      </trkpt>
      <trkpt lat="41.68428" lon="26.33083">
        <ele>146.561938</ele>
        <time>2022-02-26T09:07:04.297Z</time>
      </trkpt>
      <trkpt lat="41.68436" lon="26.33077">
        <ele>147.256484</ele>
        <time>2022-02-26T09:07:07.301Z</time>
      </trkpt>
      <trkpt lat="41.68444" lon="26.33071">
        <ele>147.969946</ele>
        <time>2022-02-26T09:07:10.270Z</time>
      </trkpt>
      <trkpt lat="41.68452" lon="26.33065">
        <ele>148.68503</ele>
        <time>2022-02-26T09:07:13.309Z</time>
      </trkpt>
      <trkpt lat="41.68461" lon="26.33058">
        <ele>149.531172</ele>
        <time>2022-02-26T09:07:17.269Z</time>
      </trkpt>
      <trkpt lat="41.68472" lon="26.3305">
        <ele>150.439241</ele>
        <time>2022-02-26T09:07:21.282Z</time>
      </trkpt>
      <trkpt lat="41.68482" lon="26.33042">
        <ele>151.338632</ele>
        <time>2022-02-26T09:07:25.261Z</time>
      </trkpt>
      <trkpt lat="41.68491" lon="26.33036">
        <ele>152.095518</ele>
        <time>2022-02-26T09:07:29.304Z</time>
      </trkpt>
      <trkpt lat="41.68499" lon="26.33029">
        <ele>152.114977</ele>
        <time>2022-02-26T09:07:33.273Z</time>
      </trkpt>
      <trkpt lat="41.68508" lon="26.33022">
        <ele>152.116134</ele>
        <time>2022-02-26T09:07:37.279Z</time>
      </trkpt>
      <trkpt lat="41.68517" lon="26.33015">
        <ele>152.117381</ele>
        <time>2022-02-26T09:07:42.276Z</time>
      </trkpt>
      <trkpt lat="41.68527" lon="26.33007">
        <ele>152.118615</ele>
        <time>2022-02-26T09:07:47.288Z</time>
      </trkpt>
      <trkpt lat="41.68536" lon="26.33001">
        <ele>152.11978</ele>
        <time>2022-02-26T09:07:52.283Z</time>
      </trkpt>
      <trkpt lat="41.68544" lon="26.32993">
        <ele>152.120971</ele>
        <time>2022-02-26T09:07:57.280Z</time>
      </trkpt>
      <trkpt lat="41.68552" lon="26.32985">
        <ele>152.122063</ele>
        <time>2022-02-26T09:08:02.308Z</time>
      </trkpt>
      <trkpt lat="41.68559" lon="26.32977">
        <ele>152.123103</ele>
        <time>2022-02-26T09:08:07.265Z</time>
      </trkpt>
      <trkpt lat="41.68565" lon="26.32968">
        <ele>152.124129</ele>
        <time>2022-02-26T09:08:12.269Z</time>
      </trkpt>
      <trkpt lat="41.68573" lon="26.32959">
        <ele>152.125352</ele>
        <time>2022-02-26T09:08:17.302Z</time>
      </trkpt>
      <trkpt lat="41.68579" lon="26.32948">
        <ele>152.126486</ele>
        <time>2022-02-26T09:08:22.292Z</time>
      </trkpt>
      <trkpt lat="41.68585" lon="26.32937">
        <ele>152.127646</ele>
        <time>2022-02-26T09:08:27.273Z</time>
      </trkpt>
      <trkpt lat="41.6859" lon="26.32927">
        <ele>152.128691</ele>
        <time>2022-02-26T09:08:31.270Z</time>
      </trkpt>
      <trkpt lat="41.68594" lon="26.32915">
        <ele>152.129803</ele>
        <time>2022-02-26T09:08:35.276Z</time>
      </trkpt>
      <trkpt lat="41.68598" lon="26.32903">
        <ele>152.130912</ele>
        <time>2022-02-26T09:08:39.296Z</time>
      </trkpt>
      <trkpt lat="41.68601" lon="26.32891">
        <ele>152.131994</ele>
        <time>2022-02-26T09:08:43.282Z</time>
      </trkpt>
      <trkpt lat="41.68605" lon="26.32879">
        <ele>152.133072</ele>
        <time>2022-02-26T09:08:47.305Z</time>
      </trkpt>
      <trkpt lat="41.68609" lon="26.32867">
        <ele>152.134242</ele>
        <time>2022-02-26T09:08:51.265Z</time>
      </trkpt>
      <trkpt lat="41.68612" lon="26.32854">
        <ele>151.839078</ele>
        <time>2022-02-26T09:08:55.259Z</time>
      </trkpt>
      <trkpt lat="41.68617" lon="26.3284">
        <ele>151.490769</ele>
        <time>2022-02-26T09:08:59.281Z</time>
      </trkpt>
      <trkpt lat="41.6862" lon="26.32826">
        <ele>151.13875</ele>
        <time>2022-02-26T09:09:03.276Z</time>
      </trkpt>
      <trkpt lat="41.68622" lon="26.32814">
        <ele>150.850269</ele>
        <time>2022-02-26T09:09:06.281Z</time>
      </trkpt>
      <trkpt lat="41.68625" lon="26.32802">
        <ele>150.560913</ele>
        <time>2022-02-26T09:09:09.276Z</time>
      </trkpt>
      <trkpt lat="41.68627" lon="26.3279">
        <ele>150.271336</ele>
        <time>2022-02-26T09:09:12.285Z</time>
      </trkpt>
      <trkpt lat="41.68627" lon="26.32774">
        <ele>149.892034</ele>
        <time>2022-02-26T09:09:16.289Z</time>
      </trkpt>
      <trkpt lat="41.68627" lon="26.32761">
        <ele>149.585699</ele>
        <time>2022-02-26T09:09:19.299Z</time>
      </trkpt>
      <trkpt lat="41.68627" lon="26.32748">
        <ele>149.284634</ele>
        <time>2022-02-26T09:09:22.266Z</time>
      </trkpt>
      <trkpt lat="41.68626" lon="26.32736">
        <ele>148.997422</ele>
        <time>2022-02-26T09:09:25.270Z</time>
      </trkpt>
      <trkpt lat="41.68626" lon="26.3272">
        <ele>148.632532</ele>
        <time>2022-02-26T09:09:29.271Z</time>
      </trkpt>
      <trkpt lat="41.68625" lon="26.32708">
        <ele>148.336858</ele>
        <time>2022-02-26T09:09:32.287Z</time>
      </trkpt>
      <trkpt lat="41.68624" lon="26.32696">
        <ele>148.048817</ele>
        <time>2022-02-26T09:09:35.283Z</time>
      </trkpt>
      <trkpt lat="41.68623" lon="26.32683">
        <ele>147.753462</ele>
        <time>2022-02-26T09:09:38.281Z</time>
      </trkpt>
      <trkpt lat="41.68622" lon="26.32671">
        <ele>147.47037</ele>
        <time>2022-02-26T09:09:41.265Z</time>
      </trkpt>
      <trkpt lat="41.68622" lon="26.32655">
        <ele>147.09811</ele>
        <time>2022-02-26T09:09:45.325Z</time>
      </trkpt>
      <trkpt lat="41.68621" lon="26.32643">
        <ele>146.812673</ele>
        <time>2022-02-26T09:09:48.301Z</time>
      </trkpt>
      <trkpt lat="41.68621" lon="26.32631">
        <ele>146.52781</ele>
        <time>2022-02-26T09:09:51.315Z</time>
      </trkpt>
      <trkpt lat="41.68622" lon="26.32618">
        <ele>146.774373</ele>
        <time>2022-02-26T09:09:54.284Z</time>
      </trkpt>
      <trkpt lat="41.68622" lon="26.32606">
        <ele>147.129685</ele>
        <time>2022-02-26T09:09:57.272Z</time>
      </trkpt>
      <trkpt lat="41.68623" lon="26.3259">
        <ele>147.581349</ele>
        <time>2022-02-26T09:10:01.290Z</time>
      </trkpt>
      <trkpt lat="41.68626" lon="26.32575">
        <ele>148.0346</ele>
        <time>2022-02-26T09:10:05.299Z</time>
      </trkpt>
      <trkpt lat="41.68629" lon="26.32561">
        <ele>148.473835</ele>
        <time>2022-02-26T09:10:09.264Z</time>
      </trkpt>
      <trkpt lat="41.68632" lon="26.32548">
        <ele>148.879015</ele>
        <time>2022-02-26T09:10:13.303Z</time>
      </trkpt>
      <trkpt lat="41.68636" lon="26.32534">
        <ele>149.300539</ele>
        <time>2022-02-26T09:10:17.299Z</time>
      </trkpt>
      <trkpt lat="41.6864" lon="26.32522">
        <ele>149.687493</ele>
        <time>2022-02-26T09:10:21.260Z</time>
      </trkpt>
      <trkpt lat="41.68644" lon="26.3251">
        <ele>150.078184</ele>
        <time>2022-02-26T09:10:25.318Z</time>
      </trkpt>
      <trkpt lat="41.68649" lon="26.32497">
        <ele>150.496184</ele>
        <time>2022-02-26T09:10:29.288Z</time>
      </trkpt>
      <trkpt lat="41.68654" lon="26.32484">
        <ele>150.925467</ele>
        <time>2022-02-26T09:10:33.308Z</time>
      </trkpt>
      <trkpt lat="41.68658" lon="26.32472">
        <ele>151.301766</ele>
        <time>2022-02-26T09:10:37.281Z</time>
      </trkpt>
      <trkpt lat="41.68663" lon="26.32459">
        <ele>151.729412</ele>
        <time>2022-02-26T09:10:42.282Z</time>
      </trkpt>
      <trkpt lat="41.68667" lon="26.32448">
        <ele>152.105787</ele>
        <time>2022-02-26T09:10:46.301Z</time>
      </trkpt>
      <trkpt lat="41.68671" lon="26.32435">
        <ele>152.497009</ele>
        <time>2022-02-26T09:10:50.268Z</time>
      </trkpt>
      <trkpt lat="41.68675" lon="26.32423">
        <ele>152.879705</ele>
        <time>2022-02-26T09:10:54.311Z</time>
      </trkpt>
      <trkpt lat="41.6868" lon="26.32412">
        <ele>153.244962</ele>
        <time>2022-02-26T09:10:58.312Z</time>
      </trkpt>
      <trkpt lat="41.68684" lon="26.324">
        <ele>153.437108</ele>
        <time>2022-02-26T09:11:02.279Z</time>
      </trkpt>
      <trkpt lat="41.68688" lon="26.32388">
        <ele>153.314494</ele>
        <time>2022-02-26T09:11:06.283Z</time>
      </trkpt>
      <trkpt lat="41.68692" lon="26.32375">
        <ele>153.187423</ele>
        <time>2022-02-26T09:11:10.263Z</time>
      </trkpt>
      <trkpt lat="41.68695" lon="26.32363">
        <ele>153.067302</ele>
        <time>2022-02-26T09:11:14.281Z</time>
      </trkpt>
      <trkpt lat="41.687" lon="26.3235">
        <ele>152.933987</ele>
        <time>2022-02-26T09:11:18.282Z</time>
      </trkpt>
      <trkpt lat="41.68703" lon="26.32337">
        <ele>152.805559</ele>
        <time>2022-02-26T09:11:22.282Z</time>
      </trkpt>
      <trkpt lat="41.68706" lon="26.32323">
        <ele>152.667654</ele>
        <time>2022-02-26T09:11:26.306Z</time>
      </trkpt>
      <trkpt lat="41.68711" lon="26.32308">
        <ele>152.522443</ele>
        <time>2022-02-26T09:11:30.279Z</time>
      </trkpt>
      <trkpt lat="41.68714" lon="26.32294">
        <ele>152.381566</ele>
        <time>2022-02-26T09:11:34.284Z</time>
      </trkpt>
      <trkpt lat="41.68719" lon="26.32281">
        <ele>152.243054</ele>
        <time>2022-02-26T09:11:38.282Z</time>
      </trkpt>
      <trkpt lat="41.68723" lon="26.32267">
        <ele>152.107018</ele>
        <time>2022-02-26T09:11:42.261Z</time>
      </trkpt>
      <trkpt lat="41.68729" lon="26.32253">
        <ele>151.956635</ele>
        <time>2022-02-26T09:11:46.276Z</time>
      </trkpt>
      <trkpt lat="41.68734" lon="26.32241">
        <ele>151.834963</ele>
        <time>2022-02-26T09:11:49.283Z</time>
      </trkpt>
      <trkpt lat="41.68739" lon="26.3223">
        <ele>151.713856</ele>
        <time>2022-02-26T09:11:52.296Z</time>
      </trkpt>
      <trkpt lat="41.68744" lon="26.32219">
        <ele>151.590794</ele>
        <time>2022-02-26T09:11:55.284Z</time>
      </trkpt>
      <trkpt lat="41.6875" lon="26.32209">
        <ele>151.468057</ele>
        <time>2022-02-26T09:11:58.283Z</time>
      </trkpt>
      <trkpt lat="41.68757" lon="26.32198">
        <ele>151.336313</ele>
        <time>2022-02-26T09:12:01.285Z</time>
      </trkpt>
      <trkpt lat="41.68764" lon="26.32187">
        <ele>151.243486</ele>
        <time>2022-02-26T09:12:04.279Z</time>
      </trkpt>
      <trkpt lat="41.68771" lon="26.32178">
        <ele>151.229004</ele>
        <time>2022-02-26T09:12:07.265Z</time>
      </trkpt>
      <trkpt lat="41.68778" lon="26.32168">
        <ele>151.214242</ele>
        <time>2022-02-26T09:12:10.288Z</time>
      </trkpt>
      <trkpt lat="41.68785" lon="26.32159">
        <ele>151.20037</ele>
        <time>2022-02-26T09:12:13.285Z</time>
      </trkpt>
      <trkpt lat="41.68792" lon="26.3215">
        <ele>151.186364</ele>
        <time>2022-02-26T09:12:16.286Z</time>
      </trkpt>
      <trkpt lat="41.688" lon="26.32141">
        <ele>151.172111</ele>
        <time>2022-02-26T09:12:19.261Z</time>
      </trkpt>
      <trkpt lat="41.68807" lon="26.32133">
        <ele>151.158038</ele>
        <time>2022-02-26T09:12:22.282Z</time>
      </trkpt>
      <trkpt lat="41.68814" lon="26.32124">
        <ele>151.143809</ele>
        <time>2022-02-26T09:12:25.282Z</time>
      </trkpt>
      <trkpt lat="41.68822" lon="26.32115">
        <ele>151.129306</ele>
        <time>2022-02-26T09:12:28.316Z</time>
      </trkpt>
      <trkpt lat="41.68829" lon="26.32105">
        <ele>151.115047</ele>
        <time>2022-02-26T09:12:31.287Z</time>
      </trkpt>
      <trkpt lat="41.68836" lon="26.32097">
        <ele>151.100974</ele>
        <time>2022-02-26T09:12:34.323Z</time>
      </trkpt>
      <trkpt lat="41.68843" lon="26.32088">
        <ele>151.086789</ele>
        <time>2022-02-26T09:12:37.295Z</time>
      </trkpt>
      <trkpt lat="41.6885" lon="26.32078">
        <ele>151.072334</ele>
        <time>2022-02-26T09:12:40.337Z</time>
      </trkpt>
      <trkpt lat="41.68858" lon="26.32069">
        <ele>151.057626</ele>
        <time>2022-02-26T09:12:43.275Z</time>
      </trkpt>
      <trkpt lat="41.68865" lon="26.32059">
        <ele>151.04301</ele>
        <time>2022-02-26T09:12:46.268Z</time>
      </trkpt>
      <trkpt lat="41.68872" lon="26.3205">
        <ele>151.028857</ele>
        <time>2022-02-26T09:12:49.305Z</time>
      </trkpt>
      <trkpt lat="41.68879" lon="26.3204">
        <ele>151.014148</ele>
        <time>2022-02-26T09:12:52.306Z</time>
      </trkpt>
      <trkpt lat="41.68885" lon="26.32031">
        <ele>151.000685</ele>
        <time>2022-02-26T09:12:55.275Z</time>
      </trkpt>
      <trkpt lat="41.68891" lon="26.32021">
        <ele>151.002458</ele>
        <time>2022-02-26T09:12:58.284Z</time>
      </trkpt>
      <trkpt lat="41.68896" lon="26.32008">
        <ele>151.120377</ele>
        <time>2022-02-26T09:13:02.311Z</time>
      </trkpt>
      <trkpt lat="41.68901" lon="26.31996">
        <ele>151.222714</ele>
        <time>2022-02-26T09:13:05.272Z</time>
      </trkpt>
      <trkpt lat="41.68904" lon="26.31984">
        <ele>151.325259</ele>
        <time>2022-02-26T09:13:08.270Z</time>
      </trkpt>
      <trkpt lat="41.68907" lon="26.31972">
        <ele>151.424534</ele>
        <time>2022-02-26T09:13:11.299Z</time>
      </trkpt>
      <trkpt lat="41.68909" lon="26.3196">
        <ele>151.521486</ele>
        <time>2022-02-26T09:13:14.289Z</time>
      </trkpt>
      <trkpt lat="41.68911" lon="26.31948">
        <ele>151.619206</ele>
        <time>2022-02-26T09:13:17.275Z</time>
      </trkpt>
      <trkpt lat="41.68912" lon="26.31932">
        <ele>151.742219</ele>
        <time>2022-02-26T09:13:21.280Z</time>
      </trkpt>
      <trkpt lat="41.68914" lon="26.31917">
        <ele>151.860741</ele>
        <time>2022-02-26T09:13:25.276Z</time>
      </trkpt>
      <trkpt lat="41.68915" lon="26.31902">
        <ele>151.974709</ele>
        <time>2022-02-26T09:13:29.265Z</time>
      </trkpt>
      <trkpt lat="41.68917" lon="26.31888">
        <ele>152.088022</ele>
        <time>2022-02-26T09:13:33.285Z</time>
      </trkpt>
      <trkpt lat="41.68918" lon="26.31874">
        <ele>152.195271</ele>
        <time>2022-02-26T09:13:37.300Z</time>
      </trkpt>
      <trkpt lat="41.68919" lon="26.3186">
        <ele>152.309633</ele>
        <time>2022-02-26T09:13:41.312Z</time>
      </trkpt>
      <trkpt lat="41.6892" lon="26.31845">
        <ele>152.423524</ele>
        <time>2022-02-26T09:13:45.271Z</time>
      </trkpt>
      <trkpt lat="41.68922" lon="26.31831">
        <ele>152.535271</ele>
        <time>2022-02-26T09:13:49.270Z</time>
      </trkpt>
      <trkpt lat="41.68924" lon="26.31816">
        <ele>152.657813</ele>
        <time>2022-02-26T09:13:53.272Z</time>
      </trkpt>
      <trkpt lat="41.68926" lon="26.318">
        <ele>152.78052</ele>
        <time>2022-02-26T09:13:57.303Z</time>
      </trkpt>
      <trkpt lat="41.68928" lon="26.31787">
        <ele>152.94011</ele>
        <time>2022-02-26T09:14:01.290Z</time>
      </trkpt>
      <trkpt lat="41.68929" lon="26.31773">
        <ele>153.459057</ele>
        <time>2022-02-26T09:14:05.253Z</time>
      </trkpt>
      <trkpt lat="41.68931" lon="26.3176">
        <ele>153.919576</ele>
        <time>2022-02-26T09:14:09.283Z</time>
      </trkpt>
      <trkpt lat="41.68933" lon="26.31747">
        <ele>154.396882</ele>
        <time>2022-02-26T09:14:13.322Z</time>
      </trkpt>
      <trkpt lat="41.68934" lon="26.31734">
        <ele>154.858619</ele>
        <time>2022-02-26T09:14:17.287Z</time>
      </trkpt>
      <trkpt lat="41.68935" lon="26.31721">
        <ele>155.319688</ele>
        <time>2022-02-26T09:14:21.290Z</time>
      </trkpt>
      <trkpt lat="41.68936" lon="26.31707">
        <ele>155.822662</ele>
        <time>2022-02-26T09:14:25.280Z</time>
      </trkpt>
      <trkpt lat="41.68938" lon="26.31694">
        <ele>156.304275</ele>
        <time>2022-02-26T09:14:29.277Z</time>
      </trkpt>
      <trkpt lat="41.6894" lon="26.31681">
        <ele>156.783676</ele>
        <time>2022-02-26T09:14:33.277Z</time>
      </trkpt>
      <trkpt lat="41.68941" lon="26.31667">
        <ele>157.265973</ele>
        <time>2022-02-26T09:14:37.276Z</time>
      </trkpt>
      <trkpt lat="41.68943" lon="26.31655">
        <ele>157.728938</ele>
        <time>2022-02-26T09:14:41.296Z</time>
      </trkpt>
      <trkpt lat="41.68946" lon="26.31642">
        <ele>158.194265</ele>
        <time>2022-02-26T09:14:45.279Z</time>
      </trkpt>
      <trkpt lat="41.68946" lon="26.3163">
        <ele>158.62324</ele>
        <time>2022-02-26T09:14:49.295Z</time>
      </trkpt>
      <trkpt lat="41.68948" lon="26.31616">
        <ele>159.130931</ele>
        <time>2022-02-26T09:14:55.265Z</time>
      </trkpt>
      <trkpt lat="41.68948" lon="26.31603">
        <ele>159.600061</ele>
        <time>2022-02-26T09:15:01.278Z</time>
      </trkpt>
      <trkpt lat="41.6895" lon="26.3159">
        <ele>160.075279</ele>
        <time>2022-02-26T09:15:06.293Z</time>
      </trkpt>
      <trkpt lat="41.68951" lon="26.31577">
        <ele>160.513067</ele>
        <time>2022-02-26T09:15:11.275Z</time>
      </trkpt>
      <trkpt lat="41.68955" lon="26.31564">
        <ele>161.019741</ele>
        <time>2022-02-26T09:15:17.308Z</time>
      </trkpt>
      <trkpt lat="41.68963" lon="26.31557">
        <ele>161.501319</ele>
        <time>2022-02-26T09:15:22.265Z</time>
      </trkpt>
      <trkpt lat="41.68973" lon="26.31555">
        <ele>162.114835</ele>
        <time>2022-02-26T09:15:26.301Z</time>
      </trkpt>
      <trkpt lat="41.68983" lon="26.31556">
        <ele>162.678028</ele>
        <time>2022-02-26T09:15:29.281Z</time>
      </trkpt>
      <trkpt lat="41.68993" lon="26.31557">
        <ele>163.311681</ele>
        <time>2022-02-26T09:15:32.284Z</time>
      </trkpt>
      <trkpt lat="41.69004" lon="26.31557">
        <ele>163.987319</ele>
        <time>2022-02-26T09:15:35.295Z</time>
      </trkpt>
      <trkpt lat="41.69016" lon="26.31557">
        <ele>164.693234</ele>
        <time>2022-02-26T09:15:38.293Z</time>
      </trkpt>
      <trkpt lat="41.69028" lon="26.31558">
        <ele>165.417466</ele>
        <time>2022-02-26T09:15:41.300Z</time>
      </trkpt>
      <trkpt lat="41.6904" lon="26.31558">
        <ele>166.159459</ele>
        <time>2022-02-26T09:15:44.270Z</time>
      </trkpt>
      <trkpt lat="41.69053" lon="26.31558">
        <ele>166.913557</ele>
        <time>2022-02-26T09:15:47.287Z</time>
      </trkpt>
      <trkpt lat="41.69065" lon="26.31557">
        <ele>167.637789</ele>
        <time>2022-02-26T09:15:50.261Z</time>
      </trkpt>
      <trkpt lat="41.69077" lon="26.31555">
        <ele>168.384689</ele>
        <time>2022-02-26T09:15:53.268Z</time>
      </trkpt>
      <trkpt lat="41.69088" lon="26.31552">
        <ele>169.060128</ele>
        <time>2022-02-26T09:15:56.311Z</time>
      </trkpt>
      <trkpt lat="41.69099" lon="26.31548">
        <ele>169.732294</ele>
        <time>2022-02-26T09:15:59.279Z</time>
      </trkpt>
      <trkpt lat="41.69109" lon="26.31541">
        <ele>170.41916</ele>
        <time>2022-02-26T09:16:02.271Z</time>
      </trkpt>
      <trkpt lat="41.69119" lon="26.31534">
        <ele>171.118024</ele>
        <time>2022-02-26T09:16:05.303Z</time>
      </trkpt>
      <trkpt lat="41.69129" lon="26.31527">
        <ele>171.764664</ele>
        <time>2022-02-26T09:16:08.290Z</time>
      </trkpt>
      <trkpt lat="41.69138" lon="26.31519">
        <ele>172.312175</ele>
        <time>2022-02-26T09:16:11.267Z</time>
      </trkpt>
      <trkpt lat="41.69149" lon="26.31512">
        <ele>172.280627</ele>
        <time>2022-02-26T09:16:14.288Z</time>
      </trkpt>
      <trkpt lat="41.69159" lon="26.31504">
        <ele>172.25105</ele>
        <time>2022-02-26T09:16:17.277Z</time>
      </trkpt>
      <trkpt lat="41.69168" lon="26.31497">
        <ele>172.222229</ele>
        <time>2022-02-26T09:16:20.263Z</time>
      </trkpt>
      <trkpt lat="41.69178" lon="26.31489">
        <ele>172.193011</ele>
        <time>2022-02-26T09:16:23.306Z</time>
      </trkpt>
      <trkpt lat="41.69187" lon="26.31482">
        <ele>172.164716</ele>
        <time>2022-02-26T09:16:26.296Z</time>
      </trkpt>
      <trkpt lat="41.69196" lon="26.31475">
        <ele>172.13799</ele>
        <time>2022-02-26T09:16:29.316Z</time>
      </trkpt>
      <trkpt lat="41.69204" lon="26.31468">
        <ele>172.110835</ele>
        <time>2022-02-26T09:16:32.290Z</time>
      </trkpt>
      <trkpt lat="41.69214" lon="26.31461">
        <ele>172.081484</ele>
        <time>2022-02-26T09:16:35.269Z</time>
      </trkpt>
      <trkpt lat="41.69225" lon="26.31453">
        <ele>172.049889</ele>
        <time>2022-02-26T09:16:38.276Z</time>
      </trkpt>
      <trkpt lat="41.69235" lon="26.31446">
        <ele>172.019459</ele>
        <time>2022-02-26T09:16:41.320Z</time>
      </trkpt>
      <trkpt lat="41.69245" lon="26.31439">
        <ele>171.988657</ele>
        <time>2022-02-26T09:16:44.279Z</time>
      </trkpt>
      <trkpt lat="41.69254" lon="26.31431">
        <ele>171.959804</ele>
        <time>2022-02-26T09:16:47.268Z</time>
      </trkpt>
      <trkpt lat="41.69265" lon="26.31424">
        <ele>171.928298</ele>
        <time>2022-02-26T09:16:50.290Z</time>
      </trkpt>
      <trkpt lat="41.69275" lon="26.31416">
        <ele>171.896561</ele>
        <time>2022-02-26T09:16:53.281Z</time>
      </trkpt>
      <trkpt lat="41.69286" lon="26.31407">
        <ele>171.86249</ele>
        <time>2022-02-26T09:16:56.271Z</time>
      </trkpt>
      <trkpt lat="41.69296" lon="26.31398">
        <ele>171.563111</ele>
        <time>2022-02-26T09:16:59.300Z</time>
      </trkpt>
      <trkpt lat="41.69305" lon="26.3139">
        <ele>170.87422</ele>
        <time>2022-02-26T09:17:02.302Z</time>
      </trkpt>
      <trkpt lat="41.69313" lon="26.31382">
        <ele>170.154476</ele>
        <time>2022-02-26T09:17:07.279Z</time>
      </trkpt>
      <trkpt lat="41.69322" lon="26.31373">
        <ele>169.45083</ele>
        <time>2022-02-26T09:17:09.280Z</time>
      </trkpt>
      <trkpt lat="41.69329" lon="26.31364">
        <ele>168.774443</ele>
        <time>2022-02-26T09:17:12.292Z</time>
      </trkpt>
      <trkpt lat="41.69336" lon="26.31354">
        <ele>168.101236</ele>
        <time>2022-02-26T09:17:15.277Z</time>
      </trkpt>
      <trkpt lat="41.69343" lon="26.31343">
        <ele>167.383758</ele>
        <time>2022-02-26T09:17:18.273Z</time>
      </trkpt>
      <trkpt lat="41.69349" lon="26.31332">
        <ele>166.679533</ele>
        <time>2022-02-26T09:17:21.284Z</time>
      </trkpt>
      <trkpt lat="41.69355" lon="26.3132">
        <ele>165.991415</ele>
        <time>2022-02-26T09:17:24.287Z</time>
      </trkpt>
      <trkpt lat="41.69361" lon="26.31309">
        <ele>165.302986</ele>
        <time>2022-02-26T09:17:26.330Z</time>
      </trkpt>
      <trkpt lat="41.69368" lon="26.31295">
        <ele>164.444907</ele>
        <time>2022-02-26T09:17:29.266Z</time>
      </trkpt>
      <trkpt lat="41.69373" lon="26.31283">
        <ele>163.767567</ele>
        <time>2022-02-26T09:17:32.279Z</time>
      </trkpt>
      <trkpt lat="41.69379" lon="26.31271">
        <ele>163.054195</ele>
        <time>2022-02-26T09:17:35.285Z</time>
      </trkpt>
      <trkpt lat="41.69385" lon="26.3126">
        <ele>162.376855</ele>
        <time>2022-02-26T09:17:38.284Z</time>
      </trkpt>
      <trkpt lat="41.6939" lon="26.31249">
        <ele>161.730686</ele>
        <time>2022-02-26T09:17:41.270Z</time>
      </trkpt>
      <trkpt lat="41.69395" lon="26.31237">
        <ele>161.064738</ele>
        <time>2022-02-26T09:17:44.279Z</time>
      </trkpt>
      <trkpt lat="41.694" lon="26.31225">
        <ele>160.360352</ele>
        <time>2022-02-26T09:17:47.277Z</time>
      </trkpt>
      <trkpt lat="41.69406" lon="26.31212">
        <ele>159.777006</ele>
        <time>2022-02-26T09:17:50.305Z</time>
      </trkpt>
      <trkpt lat="41.69412" lon="26.31201">
        <ele>159.660008</ele>
        <time>2022-02-26T09:17:52.284Z</time>
      </trkpt>
      <trkpt lat="41.69418" lon="26.3119">
        <ele>159.535116</ele>
        <time>2022-02-26T09:17:54.287Z</time>
      </trkpt>
      <trkpt lat="41.69423" lon="26.3118">
        <ele>159.418249</ele>
        <time>2022-02-26T09:17:56.304Z</time>
      </trkpt>
      <trkpt lat="41.69428" lon="26.3117">
        <ele>159.306511</ele>
        <time>2022-02-26T09:17:58.277Z</time>
      </trkpt>
      <trkpt lat="41.69434" lon="26.31159">
        <ele>159.193283</ele>
        <time>2022-02-26T09:18:00.272Z</time>
      </trkpt>
      <trkpt lat="41.69439" lon="26.31149">
        <ele>159.079237</ele>
        <time>2022-02-26T09:18:02.277Z</time>
      </trkpt>
      <trkpt lat="41.69444" lon="26.31139">
        <ele>158.965259</ele>
        <time>2022-02-26T09:18:04.280Z</time>
      </trkpt>
      <trkpt lat="41.6945" lon="26.31128">
        <ele>158.85133</ele>
        <time>2022-02-26T09:18:06.308Z</time>
      </trkpt>
      <trkpt lat="41.69455" lon="26.31119">
        <ele>158.741085</ele>
        <time>2022-02-26T09:18:08.275Z</time>
      </trkpt>
      <trkpt lat="41.69463" lon="26.31105">
        <ele>158.582634</ele>
        <time>2022-02-26T09:18:11.277Z</time>
      </trkpt>
      <trkpt lat="41.69467" lon="26.31094">
        <ele>158.471709</ele>
        <time>2022-02-26T09:18:13.281Z</time>
      </trkpt>
      <trkpt lat="41.69473" lon="26.31083">
        <ele>158.350119</ele>
        <time>2022-02-26T09:18:15.276Z</time>
      </trkpt>
      <trkpt lat="41.69478" lon="26.31071">
        <ele>158.223237</ele>
        <time>2022-02-26T09:18:17.297Z</time>
      </trkpt>
      <trkpt lat="41.69483" lon="26.3106">
        <ele>158.104483</ele>
        <time>2022-02-26T09:18:19.295Z</time>
      </trkpt>
      <trkpt lat="41.69488" lon="26.31049">
        <ele>157.991369</ele>
        <time>2022-02-26T09:18:21.287Z</time>
      </trkpt>
      <trkpt lat="41.69492" lon="26.31039">
        <ele>157.880266</ele>
        <time>2022-02-26T09:18:23.266Z</time>
      </trkpt>
      <trkpt lat="41.69498" lon="26.31026">
        <ele>157.745523</ele>
        <time>2022-02-26T09:18:26.297Z</time>
      </trkpt>
      <trkpt lat="41.69502" lon="26.31015">
        <ele>157.634895</ele>
        <time>2022-02-26T09:18:29.323Z</time>
      </trkpt>
      <trkpt lat="41.69505" lon="26.31003">
        <ele>157.691477</ele>
        <time>2022-02-26T09:18:32.283Z</time>
      </trkpt>
      <trkpt lat="41.6951" lon="26.3099">
        <ele>157.766891</ele>
        <time>2022-02-26T09:18:35.326Z</time>
      </trkpt>
      <trkpt lat="41.69515" lon="26.30976">
        <ele>157.849001</ele>
        <time>2022-02-26T09:18:38.269Z</time>
      </trkpt>
      <trkpt lat="41.6952" lon="26.30961">
        <ele>157.936797</ele>
        <time>2022-02-26T09:18:41.286Z</time>
      </trkpt>
      <trkpt lat="41.69525" lon="26.30945">
        <ele>158.029559</ele>
        <time>2022-02-26T09:18:44.269Z</time>
      </trkpt>
      <trkpt lat="41.6953" lon="26.30928">
        <ele>158.123073</ele>
        <time>2022-02-26T09:18:47.283Z</time>
      </trkpt>
      <trkpt lat="41.69536" lon="26.30912">
        <ele>158.219772</ele>
        <time>2022-02-26T09:18:50.280Z</time>
      </trkpt>
      <trkpt lat="41.6954" lon="26.30901">
        <ele>158.288278</ele>
        <time>2022-02-26T09:18:52.261Z</time>
      </trkpt>
      <trkpt lat="41.69544" lon="26.30889">
        <ele>158.357201</ele>
        <time>2022-02-26T09:18:54.274Z</time>
      </trkpt>
      <trkpt lat="41.69549" lon="26.30878">
        <ele>158.424023</ele>
        <time>2022-02-26T09:18:56.279Z</time>
      </trkpt>
      <trkpt lat="41.69553" lon="26.30866">
        <ele>158.492011</ele>
        <time>2022-02-26T09:18:58.272Z</time>
      </trkpt>
      <trkpt lat="41.69557" lon="26.30855">
        <ele>158.559664</ele>
        <time>2022-02-26T09:19:00.267Z</time>
      </trkpt>
      <trkpt lat="41.69561" lon="26.30844">
        <ele>158.626361</ele>
        <time>2022-02-26T09:19:02.260Z</time>
      </trkpt>
      <trkpt lat="41.69567" lon="26.30829">
        <ele>158.716365</ele>
        <time>2022-02-26T09:19:05.291Z</time>
      </trkpt>
      <trkpt lat="41.69573" lon="26.30815">
        <ele>158.799222</ele>
        <time>2022-02-26T09:19:08.316Z</time>
      </trkpt>
      <trkpt lat="41.69578" lon="26.30801">
        <ele>158.881606</ele>
        <time>2022-02-26T09:19:11.303Z</time>
      </trkpt>
      <trkpt lat="41.69583" lon="26.30787">
        <ele>158.780941</ele>
        <time>2022-02-26T09:19:14.272Z</time>
      </trkpt>
      <trkpt lat="41.69589" lon="26.30772">
        <ele>158.599906</ele>
        <time>2022-02-26T09:19:17.277Z</time>
      </trkpt>
      <trkpt lat="41.69595" lon="26.30757">
        <ele>158.40772</ele>
        <time>2022-02-26T09:19:20.278Z</time>
      </trkpt>
      <trkpt lat="41.69599" lon="26.30746">
        <ele>158.275838</ele>
        <time>2022-02-26T09:19:22.270Z</time>
      </trkpt>
      <trkpt lat="41.69605" lon="26.3073">
        <ele>158.080647</ele>
        <time>2022-02-26T09:19:25.295Z</time>
      </trkpt>
      <trkpt lat="41.69611" lon="26.30714">
        <ele>157.886807</ele>
        <time>2022-02-26T09:19:28.293Z</time>
      </trkpt>
      <trkpt lat="41.69616" lon="26.30699">
        <ele>157.700854</ele>
        <time>2022-02-26T09:19:31.285Z</time>
      </trkpt>
      <trkpt lat="41.69622" lon="26.30685">
        <ele>157.519371</ele>
        <time>2022-02-26T09:19:34.272Z</time>
      </trkpt>
      <trkpt lat="41.69628" lon="26.3067">
        <ele>157.336355</ele>
        <time>2022-02-26T09:19:37.291Z</time>
      </trkpt>
      <trkpt lat="41.69634" lon="26.30654">
        <ele>157.147114</ele>
        <time>2022-02-26T09:19:40.277Z</time>
      </trkpt>
      <trkpt lat="41.6964" lon="26.3064">
        <ele>156.965162</ele>
        <time>2022-02-26T09:19:43.284Z</time>
      </trkpt>
      <trkpt lat="41.69646" lon="26.30626">
        <ele>156.786314</ele>
        <time>2022-02-26T09:19:46.299Z</time>
      </trkpt>
      <trkpt lat="41.69651" lon="26.30611">
        <ele>156.605796</ele>
        <time>2022-02-26T09:19:49.272Z</time>
      </trkpt>
      <trkpt lat="41.69658" lon="26.30596">
        <ele>156.415179</ele>
        <time>2022-02-26T09:19:52.295Z</time>
      </trkpt>
      <trkpt lat="41.69663" lon="26.30581">
        <ele>156.238335</ele>
        <time>2022-02-26T09:19:55.275Z</time>
      </trkpt>
      <trkpt lat="41.69669" lon="26.30565">
        <ele>156.114174</ele>
        <time>2022-02-26T09:19:58.279Z</time>
      </trkpt>
      <trkpt lat="41.69675" lon="26.30549">
        <ele>155.983152</ele>
        <time>2022-02-26T09:20:01.287Z</time>
      </trkpt>
      <trkpt lat="41.6968" lon="26.30537">
        <ele>155.887936</ele>
        <time>2022-02-26T09:20:03.308Z</time>
      </trkpt>
      <trkpt lat="41.69684" lon="26.30525">
        <ele>155.791438</ele>
        <time>2022-02-26T09:20:05.274Z</time>
      </trkpt>
      <trkpt lat="41.69689" lon="26.30512">
        <ele>155.687221</ele>
        <time>2022-02-26T09:20:07.281Z</time>
      </trkpt>
      <trkpt lat="41.69695" lon="26.30498">
        <ele>155.572266</ele>
        <time>2022-02-26T09:20:09.268Z</time>
      </trkpt>
      <trkpt lat="41.697" lon="26.30483">
        <ele>155.452789</ele>
        <time>2022-02-26T09:20:11.276Z</time>
      </trkpt>
      <trkpt lat="41.69706" lon="26.30467">
        <ele>155.32369</ele>
        <time>2022-02-26T09:20:13.263Z</time>
      </trkpt>
      <trkpt lat="41.69713" lon="26.30451">
        <ele>155.189438</ele>
        <time>2022-02-26T09:20:15.279Z</time>
      </trkpt>
      <trkpt lat="41.69719" lon="26.30435">
        <ele>155.059634</ele>
        <time>2022-02-26T09:20:17.285Z</time>
      </trkpt>
      <trkpt lat="41.69726" lon="26.30419">
        <ele>154.929062</ele>
        <time>2022-02-26T09:20:19.277Z</time>
      </trkpt>
      <trkpt lat="41.69732" lon="26.30404">
        <ele>154.805689</ele>
        <time>2022-02-26T09:20:21.282Z</time>
      </trkpt>
      <trkpt lat="41.69738" lon="26.30389">
        <ele>154.685301</ele>
        <time>2022-02-26T09:20:23.302Z</time>
      </trkpt>
      <trkpt lat="41.69744" lon="26.30375">
        <ele>154.56882</ele>
        <time>2022-02-26T09:20:25.283Z</time>
      </trkpt>
      <trkpt lat="41.6975" lon="26.30364">
        <ele>154.170855</ele>
        <time>2022-02-26T09:20:27.294Z</time>
      </trkpt>
      <trkpt lat="41.69756" lon="26.30352">
        <ele>153.520422</ele>
        <time>2022-02-26T09:20:29.285Z</time>
      </trkpt>
      <trkpt lat="41.69763" lon="26.30338">
        <ele>152.799562</ele>
        <time>2022-02-26T09:20:31.300Z</time>
      </trkpt>
      <trkpt lat="41.69771" lon="26.30325">
        <ele>152.046063</ele>
        <time>2022-02-26T09:20:33.258Z</time>
      </trkpt>
      <trkpt lat="41.69779" lon="26.30313">
        <ele>151.306265</ele>
        <time>2022-02-26T09:20:35.293Z</time>
      </trkpt>
      <trkpt lat="41.69787" lon="26.30301">
        <ele>150.567917</ele>
        <time>2022-02-26T09:20:37.279Z</time>
      </trkpt>
      <trkpt lat="41.69796" lon="26.30289">
        <ele>149.844283</ele>
        <time>2022-02-26T09:20:39.262Z</time>
      </trkpt>
      <trkpt lat="41.69805" lon="26.30277">
        <ele>149.084691</ele>
        <time>2022-02-26T09:20:41.288Z</time>
      </trkpt>
      <trkpt lat="41.69815" lon="26.30265">
        <ele>148.309046</ele>
        <time>2022-02-26T09:20:43.277Z</time>
      </trkpt>
      <trkpt lat="41.69825" lon="26.30253">
        <ele>147.489009</ele>
        <time>2022-02-26T09:20:45.269Z</time>
      </trkpt>
      <trkpt lat="41.69835" lon="26.30239">
        <ele>146.629645</ele>
        <time>2022-02-26T09:20:47.318Z</time>
      </trkpt>
      <trkpt lat="41.69845" lon="26.30227">
        <ele>145.831809</ele>
        <time>2022-02-26T09:20:49.287Z</time>
      </trkpt>
      <trkpt lat="41.69855" lon="26.30215">
        <ele>145.014828</ele>
        <time>2022-02-26T09:20:51.271Z</time>
      </trkpt>
      <trkpt lat="41.69866" lon="26.30203">
        <ele>144.185932</ele>
        <time>2022-02-26T09:20:53.299Z</time>
      </trkpt>
      <trkpt lat="41.69877" lon="26.30191">
        <ele>143.271572</ele>
        <time>2022-02-26T09:20:55.299Z</time>
      </trkpt>
      <trkpt lat="41.6989" lon="26.30179">
        <ele>142.287146</ele>
        <time>2022-02-26T09:20:57.270Z</time>
      </trkpt>
      <trkpt lat="41.69903" lon="26.30168">
        <ele>141.310244</ele>
        <time>2022-02-26T09:20:59.267Z</time>
      </trkpt>
      <trkpt lat="41.69916" lon="26.30158">
        <ele>140.360398</ele>
        <time>2022-02-26T09:21:01.296Z</time>
      </trkpt>
      <trkpt lat="41.69929" lon="26.30149">
        <ele>139.429788</ele>
        <time>2022-02-26T09:21:03.274Z</time>
      </trkpt>
      <trkpt lat="41.69941" lon="26.30141">
        <ele>138.519291</ele>
        <time>2022-02-26T09:21:05.275Z</time>
      </trkpt>
      <trkpt lat="41.69954" lon="26.30132">
        <ele>137.623047</ele>
        <time>2022-02-26T09:21:07.281Z</time>
      </trkpt>
      <trkpt lat="41.69967" lon="26.30124">
        <ele>136.726803</ele>
        <time>2022-02-26T09:21:09.266Z</time>
      </trkpt>
      <trkpt lat="41.69979" lon="26.30116">
        <ele>135.83056</ele>
        <time>2022-02-26T09:21:11.274Z</time>
      </trkpt>
      <trkpt lat="41.69992" lon="26.30107">
        <ele>134.908681</ele>
        <time>2022-02-26T09:21:13.309Z</time>
      </trkpt>
      <trkpt lat="41.70005" lon="26.30098">
        <ele>133.963928</ele>
        <time>2022-02-26T09:21:15.271Z</time>
      </trkpt>
      <trkpt lat="41.70019" lon="26.30089">
        <ele>133.007114</ele>
        <time>2022-02-26T09:21:17.301Z</time>
      </trkpt>
      <trkpt lat="41.70032" lon="26.30081">
        <ele>132.039641</ele>
        <time>2022-02-26T09:21:19.283Z</time>
      </trkpt>
      <trkpt lat="41.70043" lon="26.30071">
        <ele>130.995467</ele>
        <time>2022-02-26T09:21:21.277Z</time>
      </trkpt>
      <trkpt lat="41.70054" lon="26.3006">
        <ele>129.979148</ele>
        <time>2022-02-26T09:21:23.277Z</time>
      </trkpt>
      <trkpt lat="41.70065" lon="26.30048">
        <ele>128.893712</ele>
        <time>2022-02-26T09:21:25.280Z</time>
      </trkpt>
      <trkpt lat="41.70076" lon="26.30034">
        <ele>127.77256</ele>
        <time>2022-02-26T09:21:27.268Z</time>
      </trkpt>
      <trkpt lat="41.70085" lon="26.3002">
        <ele>126.684973</ele>
        <time>2022-02-26T09:21:29.269Z</time>
      </trkpt>
      <trkpt lat="41.70094" lon="26.30006">
        <ele>125.606679</ele>
        <time>2022-02-26T09:21:31.283Z</time>
      </trkpt>
      <trkpt lat="41.70103" lon="26.29992">
        <ele>124.584609</ele>
        <time>2022-02-26T09:21:33.269Z</time>
      </trkpt>
      <trkpt lat="41.70111" lon="26.29978">
        <ele>123.576634</ele>
        <time>2022-02-26T09:21:35.321Z</time>
      </trkpt>
      <trkpt lat="41.7012" lon="26.29965">
        <ele>122.590464</ele>
        <time>2022-02-26T09:21:37.289Z</time>
      </trkpt>
      <trkpt lat="41.70128" lon="26.29952">
        <ele>121.645681</ele>
        <time>2022-02-26T09:21:39.274Z</time>
      </trkpt>
      <trkpt lat="41.70135" lon="26.29941">
        <ele>120.803795</ele>
        <time>2022-02-26T09:21:41.236Z</time>
      </trkpt>
      <trkpt lat="41.70143" lon="26.2993">
        <ele>119.944878</ele>
        <time>2022-02-26T09:21:43.287Z</time>
      </trkpt>
      <trkpt lat="41.7015" lon="26.29918">
        <ele>119.060348</ele>
        <time>2022-02-26T09:21:45.267Z</time>
      </trkpt>
      <trkpt lat="41.70157" lon="26.29906">
        <ele>118.215651</ele>
        <time>2022-02-26T09:21:47.296Z</time>
      </trkpt>
      <trkpt lat="41.70165" lon="26.29893">
        <ele>117.358827</ele>
        <time>2022-02-26T09:21:49.295Z</time>
      </trkpt>
      <trkpt lat="41.70173" lon="26.29881">
        <ele>116.492884</ele>
        <time>2022-02-26T09:21:51.270Z</time>
      </trkpt>
      <trkpt lat="41.70181" lon="26.29869">
        <ele>115.643372</ele>
        <time>2022-02-26T09:21:53.283Z</time>
      </trkpt>
      <trkpt lat="41.70188" lon="26.29857">
        <ele>114.875179</ele>
        <time>2022-02-26T09:21:55.283Z</time>
      </trkpt>
      <trkpt lat="41.70196" lon="26.29846">
        <ele>114.063112</ele>
        <time>2022-02-26T09:21:57.312Z</time>
      </trkpt>
      <trkpt lat="41.70203" lon="26.29834">
        <ele>113.278353</ele>
        <time>2022-02-26T09:21:59.266Z</time>
      </trkpt>
      <trkpt lat="41.7021" lon="26.29823">
        <ele>112.551733</ele>
        <time>2022-02-26T09:22:01.268Z</time>
      </trkpt>
      <trkpt lat="41.70216" lon="26.29813">
        <ele>111.837021</ele>
        <time>2022-02-26T09:22:03.264Z</time>
      </trkpt>
      <trkpt lat="41.70223" lon="26.29802">
        <ele>111.097887</ele>
        <time>2022-02-26T09:22:05.298Z</time>
      </trkpt>
      <trkpt lat="41.7023" lon="26.29791">
        <ele>110.351112</ele>
        <time>2022-02-26T09:22:07.301Z</time>
      </trkpt>
      <trkpt lat="41.70237" lon="26.29779">
        <ele>109.529371</ele>
        <time>2022-02-26T09:22:09.263Z</time>
      </trkpt>
      <trkpt lat="41.70243" lon="26.29765">
        <ele>108.674985</ele>
        <time>2022-02-26T09:22:11.303Z</time>
      </trkpt>
      <trkpt lat="41.70248" lon="26.2975">
        <ele>107.826934</ele>
        <time>2022-02-26T09:22:13.298Z</time>
      </trkpt>
      <trkpt lat="41.70253" lon="26.29737">
        <ele>107.085856</ele>
        <time>2022-02-26T09:22:15.278Z</time>
      </trkpt>
      <trkpt lat="41.70257" lon="26.29724">
        <ele>106.337931</ele>
        <time>2022-02-26T09:22:17.273Z</time>
      </trkpt>
      <trkpt lat="41.70263" lon="26.29707">
        <ele>105.26976</ele>
        <time>2022-02-26T09:22:20.291Z</time>
      </trkpt>
      <trkpt lat="41.70267" lon="26.29695">
        <ele>104.48511</ele>
        <time>2022-02-26T09:22:22.267Z</time>
      </trkpt>
      <trkpt lat="41.70273" lon="26.29681">
        <ele>103.572114</ele>
        <time>2022-02-26T09:22:24.277Z</time>
      </trkpt>
      <trkpt lat="41.70278" lon="26.29666">
        <ele>102.606347</ele>
        <time>2022-02-26T09:22:26.294Z</time>
      </trkpt>
      <trkpt lat="41.70285" lon="26.29652">
        <ele>101.579216</ele>
        <time>2022-02-26T09:22:28.271Z</time>
      </trkpt>
      <trkpt lat="41.70292" lon="26.29641">
        <ele>100.712421</ele>
        <time>2022-02-26T09:22:30.280Z</time>
      </trkpt>
      <trkpt lat="41.703" lon="26.29631">
        <ele>99.852515</ele>
        <time>2022-02-26T09:22:32.278Z</time>
      </trkpt>
      <trkpt lat="41.70309" lon="26.29622">
        <ele>98.962505</ele>
        <time>2022-02-26T09:22:34.270Z</time>
      </trkpt>
      <trkpt lat="41.70319" lon="26.29612">
        <ele>98.017191</ele>
        <time>2022-02-26T09:22:36.261Z</time>
      </trkpt>
      <trkpt lat="41.7033" lon="26.29601">
        <ele>96.955774</ele>
        <time>2022-02-26T09:22:38.284Z</time>
      </trkpt>
      <trkpt lat="41.7034" lon="26.2959">
        <ele>95.894357</ele>
        <time>2022-02-26T09:22:40.270Z</time>
      </trkpt>
      <trkpt lat="41.70351" lon="26.2958">
        <ele>94.818318</ele>
        <time>2022-02-26T09:22:42.279Z</time>
      </trkpt>
      <trkpt lat="41.70363" lon="26.29569">
        <ele>93.704878</ele>
        <time>2022-02-26T09:22:44.268Z</time>
      </trkpt>
      <trkpt lat="41.70373" lon="26.29559">
        <ele>92.74365</ele>
        <time>2022-02-26T09:22:46.294Z</time>
      </trkpt>
      <trkpt lat="41.70381" lon="26.29551">
        <ele>91.949033</ele>
        <time>2022-02-26T09:22:48.333Z</time>
      </trkpt>
      <trkpt lat="41.70389" lon="26.29543">
        <ele>91.286946</ele>
        <time>2022-02-26T09:22:50.271Z</time>
      </trkpt>
      <trkpt lat="41.70397" lon="26.29534">
        <ele>90.703898</ele>
        <time>2022-02-26T09:22:52.269Z</time>
      </trkpt>
      <trkpt lat="41.70405" lon="26.29526">
        <ele>90.096892</ele>
        <time>2022-02-26T09:22:54.293Z</time>
      </trkpt>
      <trkpt lat="41.70415" lon="26.29515">
        <ele>89.323294</ele>
        <time>2022-02-26T09:22:57.287Z</time>
      </trkpt>
      <trkpt lat="41.70425" lon="26.29505">
        <ele>88.614227</ele>
        <time>2022-02-26T09:23:00.275Z</time>
      </trkpt>
      <trkpt lat="41.70434" lon="26.29495">
        <ele>87.901469</ele>
        <time>2022-02-26T09:23:03.289Z</time>
      </trkpt>
      <trkpt lat="41.70444" lon="26.29485">
        <ele>87.190007</ele>
        <time>2022-02-26T09:23:06.289Z</time>
      </trkpt>
      <trkpt lat="41.70451" lon="26.29475">
        <ele>86.600776</ele>
        <time>2022-02-26T09:23:08.275Z</time>
      </trkpt>
      <trkpt lat="41.70455" lon="26.29459">
        <ele>85.838545</ele>
        <time>2022-02-26T09:23:11.271Z</time>
      </trkpt>
      <trkpt lat="41.70457" lon="26.29445">
        <ele>85.223752</ele>
        <time>2022-02-26T09:23:13.279Z</time>
      </trkpt>
      <trkpt lat="41.70459" lon="26.2943">
        <ele>84.534295</ele>
        <time>2022-02-26T09:23:15.288Z</time>
      </trkpt>
      <trkpt lat="41.70461" lon="26.29414">
        <ele>83.818827</ele>
        <time>2022-02-26T09:23:17.295Z</time>
      </trkpt>
      <trkpt lat="41.70463" lon="26.29398">
        <ele>83.114006</ele>
        <time>2022-02-26T09:23:19.289Z</time>
      </trkpt>
      <trkpt lat="41.70466" lon="26.29384">
        <ele>82.466657</ele>
        <time>2022-02-26T09:23:21.298Z</time>
      </trkpt>
      <trkpt lat="41.70468" lon="26.2937">
        <ele>81.850706</ele>
        <time>2022-02-26T09:23:23.283Z</time>
      </trkpt>
      <trkpt lat="41.7047" lon="26.29357">
        <ele>81.251077</ele>
        <time>2022-02-26T09:23:25.272Z</time>
      </trkpt>
      <trkpt lat="41.70472" lon="26.29345">
        <ele>81.444969</ele>
        <time>2022-02-26T09:23:27.282Z</time>
      </trkpt>
      <trkpt lat="41.70474" lon="26.29333">
        <ele>81.699213</ele>
        <time>2022-02-26T09:23:29.294Z</time>
      </trkpt>
      <trkpt lat="41.70476" lon="26.2932">
        <ele>81.968523</ele>
        <time>2022-02-26T09:23:31.261Z</time>
      </trkpt>
      <trkpt lat="41.70478" lon="26.29308">
        <ele>82.223578</ele>
        <time>2022-02-26T09:23:33.266Z</time>
      </trkpt>
      <trkpt lat="41.7048" lon="26.29293">
        <ele>82.546609</ele>
        <time>2022-02-26T09:23:36.292Z</time>
      </trkpt>
      <trkpt lat="41.70483" lon="26.29282">
        <ele>82.800827</ele>
        <time>2022-02-26T09:23:39.284Z</time>
      </trkpt>
      <trkpt lat="41.70486" lon="26.29267">
        <ele>83.111076</ele>
        <time>2022-02-26T09:23:42.291Z</time>
      </trkpt>
      <trkpt lat="41.70488" lon="26.2925">
        <ele>83.463738</ele>
        <time>2022-02-26T09:23:45.287Z</time>
      </trkpt>
      <trkpt lat="41.7049" lon="26.29234">
        <ele>83.805144</ele>
        <time>2022-02-26T09:23:48.291Z</time>
      </trkpt>
      <trkpt lat="41.70492" lon="26.2922">
        <ele>84.097569</ele>
        <time>2022-02-26T09:23:51.269Z</time>
      </trkpt>
      <trkpt lat="41.70493" lon="26.29207">
        <ele>84.377862</ele>
        <time>2022-02-26T09:23:54.269Z</time>
      </trkpt>
      <trkpt lat="41.70495" lon="26.29193">
        <ele>84.667196</ele>
        <time>2022-02-26T09:23:57.296Z</time>
      </trkpt>
      <trkpt lat="41.70499" lon="26.2918">
        <ele>84.966232</ele>
        <time>2022-02-26T09:24:00.273Z</time>
      </trkpt>
      <trkpt lat="41.70503" lon="26.29166">
        <ele>85.28782</ele>
        <time>2022-02-26T09:24:03.305Z</time>
      </trkpt>
      <trkpt lat="41.70506" lon="26.29152">
        <ele>85.581056</ele>
        <time>2022-02-26T09:24:06.276Z</time>
      </trkpt>
      <trkpt lat="41.70503" lon="26.29137">
        <ele>85.901232</ele>
        <time>2022-02-26T09:24:09.283Z</time>
      </trkpt>
      <trkpt lat="41.70497" lon="26.29123">
        <ele>86.220747</ele>
        <time>2022-02-26T09:24:12.339Z</time>
      </trkpt>
      <trkpt lat="41.70492" lon="26.29111">
        <ele>86.299795</ele>
        <time>2022-02-26T09:24:15.332Z</time>
      </trkpt>
      <trkpt lat="41.70485" lon="26.29099">
        <ele>86.383155</ele>
        <time>2022-02-26T09:24:19.259Z</time>
      </trkpt>
      <trkpt lat="41.7048" lon="26.29088">
        <ele>86.455314</ele>
        <time>2022-02-26T09:24:23.272Z</time>
      </trkpt>
      <trkpt lat="41.70475" lon="26.29078">
        <ele>86.523948</ele>
        <time>2022-02-26T09:24:28.279Z</time>
      </trkpt>
      <trkpt lat="41.70472" lon="26.29063">
        <ele>86.609586</ele>
        <time>2022-02-26T09:24:34.273Z</time>
      </trkpt>
      <trkpt lat="41.70473" lon="26.2905">
        <ele>86.6859</ele>
        <time>2022-02-26T09:24:41.319Z</time>
      </trkpt>
      <trkpt lat="41.70474" lon="26.29035">
        <ele>86.768849</ele>
        <time>2022-02-26T09:24:46.317Z</time>
      </trkpt>
      <trkpt lat="41.70476" lon="26.2902">
        <ele>86.852683</ele>
        <time>2022-02-26T09:24:50.304Z</time>
      </trkpt>
      <trkpt lat="41.70477" lon="26.29005">
        <ele>86.940334</ele>
        <time>2022-02-26T09:24:54.286Z</time>
      </trkpt>
      <trkpt lat="41.70478" lon="26.28993">
        <ele>87.009226</ele>
        <time>2022-02-26T09:24:57.295Z</time>
      </trkpt>
      <trkpt lat="41.7048" lon="26.2898">
        <ele>87.081603</ele>
        <time>2022-02-26T09:25:00.275Z</time>
      </trkpt>
      <trkpt lat="41.70481" lon="26.28967">
        <ele>87.158003</ele>
        <time>2022-02-26T09:25:03.299Z</time>
      </trkpt>
      <trkpt lat="41.70481" lon="26.28952">
        <ele>87.24246</ele>
        <time>2022-02-26T09:25:06.288Z</time>
      </trkpt>
      <trkpt lat="41.70482" lon="26.28938">
        <ele>87.321166</ele>
        <time>2022-02-26T09:25:09.263Z</time>
      </trkpt>
      <trkpt lat="41.7048" lon="26.28924">
        <ele>87.395532</ele>
        <time>2022-02-26T09:25:12.273Z</time>
      </trkpt>
      <trkpt lat="41.70477" lon="26.28911">
        <ele>87.476874</ele>
        <time>2022-02-26T09:25:15.284Z</time>
      </trkpt>
      <trkpt lat="41.70471" lon="26.28896">
        <ele>87.567777</ele>
        <time>2022-02-26T09:25:18.273Z</time>
      </trkpt>
      <trkpt lat="41.70464" lon="26.28883">
        <ele>87.416295</ele>
        <time>2022-02-26T09:25:21.334Z</time>
      </trkpt>
      <trkpt lat="41.70457" lon="26.28871">
        <ele>87.264214</ele>
        <time>2022-02-26T09:25:24.280Z</time>
      </trkpt>
      <trkpt lat="41.70449" lon="26.28861">
        <ele>87.120653</ele>
        <time>2022-02-26T09:25:27.343Z</time>
      </trkpt>
      <trkpt lat="41.70443" lon="26.28849">
        <ele>86.979996</ele>
        <time>2022-02-26T09:25:30.275Z</time>
      </trkpt>
      <trkpt lat="41.70435" lon="26.28839">
        <ele>86.840048</ele>
        <time>2022-02-26T09:25:33.319Z</time>
      </trkpt>
      <trkpt lat="41.70428" lon="26.2883">
        <ele>86.706114</ele>
        <time>2022-02-26T09:25:36.282Z</time>
      </trkpt>
      <trkpt lat="41.70421" lon="26.28821">
        <ele>86.585946</ele>
        <time>2022-02-26T09:25:39.320Z</time>
      </trkpt>
      <trkpt lat="41.70415" lon="26.28812">
        <ele>86.462201</ele>
        <time>2022-02-26T09:25:42.276Z</time>
      </trkpt>
      <trkpt lat="41.70408" lon="26.28803">
        <ele>86.335328</ele>
        <time>2022-02-26T09:25:45.308Z</time>
      </trkpt>
      <trkpt lat="41.70401" lon="26.28793">
        <ele>86.199136</ele>
        <time>2022-02-26T09:25:48.287Z</time>
      </trkpt>
      <trkpt lat="41.70394" lon="26.28784">
        <ele>86.071148</ele>
        <time>2022-02-26T09:25:51.319Z</time>
      </trkpt>
      <trkpt lat="41.70386" lon="26.28776">
        <ele>85.93855</ele>
        <time>2022-02-26T09:25:54.280Z</time>
      </trkpt>
      <trkpt lat="41.70378" lon="26.28768">
        <ele>85.803642</ele>
        <time>2022-02-26T09:25:57.281Z</time>
      </trkpt>
      <trkpt lat="41.7037" lon="26.28762">
        <ele>85.681152</ele>
        <time>2022-02-26T09:26:00.275Z</time>
      </trkpt>
      <trkpt lat="41.70361" lon="26.28755">
        <ele>85.542461</ele>
        <time>2022-02-26T09:26:03.290Z</time>
      </trkpt>
      <trkpt lat="41.70351" lon="26.28749">
        <ele>85.405066</ele>
        <time>2022-02-26T09:26:06.303Z</time>
      </trkpt>
      <trkpt lat="41.7034" lon="26.28744">
        <ele>85.252059</ele>
        <time>2022-02-26T09:26:09.329Z</time>
      </trkpt>
      <trkpt lat="41.70329" lon="26.2874">
        <ele>85.613683</ele>
        <time>2022-02-26T09:26:12.283Z</time>
      </trkpt>
      <trkpt lat="41.70317" lon="26.28737">
        <ele>86.217283</ele>
        <time>2022-02-26T09:26:15.289Z</time>
      </trkpt>
      <trkpt lat="41.70305" lon="26.28734">
        <ele>86.842267</ele>
        <time>2022-02-26T09:26:18.285Z</time>
      </trkpt>
      <trkpt lat="41.70293" lon="26.28733">
        <ele>87.46641</ele>
        <time>2022-02-26T09:26:21.297Z</time>
      </trkpt>
      <trkpt lat="41.70281" lon="26.28731">
        <ele>88.094642</ele>
        <time>2022-02-26T09:26:24.294Z</time>
      </trkpt>
      <trkpt lat="41.70268" lon="26.28728">
        <ele>88.817238</ele>
        <time>2022-02-26T09:26:27.285Z</time>
      </trkpt>
      <trkpt lat="41.70259" lon="26.28725">
        <ele>89.294383</ele>
        <time>2022-02-26T09:26:29.265Z</time>
      </trkpt>
      <trkpt lat="41.7025" lon="26.28723">
        <ele>89.767972</ele>
        <time>2022-02-26T09:26:31.276Z</time>
      </trkpt>
      <trkpt lat="41.70237" lon="26.2872">
        <ele>90.435199</ele>
        <time>2022-02-26T09:26:34.275Z</time>
      </trkpt>
      <trkpt lat="41.70225" lon="26.28716">
        <ele>91.077809</ele>
        <time>2022-02-26T09:26:37.273Z</time>
      </trkpt>
      <trkpt lat="41.70212" lon="26.28712">
        <ele>91.785854</ele>
        <time>2022-02-26T09:26:40.275Z</time>
      </trkpt>
      <trkpt lat="41.70203" lon="26.28707">
        <ele>92.266575</ele>
        <time>2022-02-26T09:26:42.278Z</time>
      </trkpt>
      <trkpt lat="41.70192" lon="26.28701">
        <ele>92.870607</ele>
        <time>2022-02-26T09:26:45.283Z</time>
      </trkpt>
      <trkpt lat="41.70182" lon="26.28694">
        <ele>93.456531</ele>
        <time>2022-02-26T09:26:48.299Z</time>
      </trkpt>
      <trkpt lat="41.7017" lon="26.28686">
        <ele>94.153623</ele>
        <time>2022-02-26T09:26:51.285Z</time>
      </trkpt>
      <trkpt lat="41.70159" lon="26.28678">
        <ele>94.580093</ele>
        <time>2022-02-26T09:26:54.286Z</time>
      </trkpt>
      <trkpt lat="41.70148" lon="26.28669">
        <ele>94.690133</ele>
        <time>2022-02-26T09:26:57.275Z</time>
      </trkpt>
      <trkpt lat="41.7014" lon="26.28663">
        <ele>94.768198</ele>
        <time>2022-02-26T09:26:59.290Z</time>
      </trkpt>
      <trkpt lat="41.70128" lon="26.28655">
        <ele>94.880494</ele>
        <time>2022-02-26T09:27:02.282Z</time>
      </trkpt>
      <trkpt lat="41.70119" lon="26.2865">
        <ele>94.957249</ele>
        <time>2022-02-26T09:27:04.283Z</time>
      </trkpt>
      <trkpt lat="41.70111" lon="26.28645">
        <ele>95.03453</ele>
        <time>2022-02-26T09:27:06.286Z</time>
      </trkpt>
      <trkpt lat="41.70103" lon="26.2864">
        <ele>95.111029</ele>
        <time>2022-02-26T09:27:08.303Z</time>
      </trkpt>
      <trkpt lat="41.70091" lon="26.28633">
        <ele>95.222719</ele>
        <time>2022-02-26T09:27:11.314Z</time>
      </trkpt>
      <trkpt lat="41.70079" lon="26.28626">
        <ele>95.328528</ele>
        <time>2022-02-26T09:27:14.288Z</time>
      </trkpt>
      <trkpt lat="41.70068" lon="26.28619">
        <ele>95.430971</ele>
        <time>2022-02-26T09:27:17.304Z</time>
      </trkpt>
      <trkpt lat="41.70057" lon="26.28611">
        <ele>95.53954</ele>
        <time>2022-02-26T09:27:20.283Z</time>
      </trkpt>
      <trkpt lat="41.70047" lon="26.28604">
        <ele>95.636067</ele>
        <time>2022-02-26T09:27:23.272Z</time>
      </trkpt>
      <trkpt lat="41.70037" lon="26.28598">
        <ele>95.724437</ele>
        <time>2022-02-26T09:27:26.270Z</time>
      </trkpt>
      <trkpt lat="41.70028" lon="26.28591">
        <ele>95.818108</ele>
        <time>2022-02-26T09:27:29.283Z</time>
      </trkpt>
      <trkpt lat="41.7002" lon="26.2858">
        <ele>95.910223</ele>
        <time>2022-02-26T09:27:32.276Z</time>
      </trkpt>
      <trkpt lat="41.70015" lon="26.28565">
        <ele>96.014518</ele>
        <time>2022-02-26T09:27:35.309Z</time>
      </trkpt>
      <trkpt lat="41.70014" lon="26.28551">
        <ele>95.859167</ele>
        <time>2022-02-26T09:27:38.297Z</time>
      </trkpt>
      <trkpt lat="41.70014" lon="26.28539">
        <ele>95.57605</ele>
        <time>2022-02-26T09:27:41.282Z</time>
      </trkpt>
      <trkpt lat="41.70013" lon="26.28525">
        <ele>95.26943</ele>
        <time>2022-02-26T09:27:44.285Z</time>
      </trkpt>
      <trkpt lat="41.70011" lon="26.28512">
        <ele>94.938124</ele>
        <time>2022-02-26T09:27:47.277Z</time>
      </trkpt>
      <trkpt lat="41.70006" lon="26.28498">
        <ele>94.608818</ele>
        <time>2022-02-26T09:27:50.316Z</time>
      </trkpt>
      <trkpt lat="41.70001" lon="26.28488">
        <ele>94.325824</ele>
        <time>2022-02-26T09:27:53.280Z</time>
      </trkpt>
      <trkpt lat="41.69994" lon="26.28477">
        <ele>93.991877</ele>
        <time>2022-02-26T09:27:57.294Z</time>
      </trkpt>
      <trkpt lat="41.69986" lon="26.28469">
        <ele>93.681386</ele>
        <time>2022-02-26T09:28:01.289Z</time>
      </trkpt>
      <trkpt lat="41.69977" lon="26.28461">
        <ele>93.344558</ele>
        <time>2022-02-26T09:28:06.270Z</time>
      </trkpt>
      <trkpt lat="41.69968" lon="26.28456">
        <ele>93.055048</ele>
        <time>2022-02-26T09:28:11.277Z</time>
      </trkpt>
      <trkpt lat="41.69959" lon="26.28454">
        <ele>92.769743</ele>
        <time>2022-02-26T09:28:16.288Z</time>
      </trkpt>
      <trkpt lat="41.6995" lon="26.28449">
        <ele>92.459169</ele>
        <time>2022-02-26T09:28:21.270Z</time>
      </trkpt>
      <trkpt lat="41.6994" lon="26.28442">
        <ele>92.125524</ele>
        <time>2022-02-26T09:28:26.306Z</time>
      </trkpt>
      <trkpt lat="41.69932" lon="26.28434">
        <ele>91.818479</ele>
        <time>2022-02-26T09:28:30.277Z</time>
      </trkpt>
      <trkpt lat="41.69926" lon="26.28423">
        <ele>91.492056</ele>
        <time>2022-02-26T09:28:34.298Z</time>
      </trkpt>
      <trkpt lat="41.69922" lon="26.28408">
        <ele>91.124061</ele>
        <time>2022-02-26T09:28:38.284Z</time>
      </trkpt>
      <trkpt lat="41.6992" lon="26.28392">
        <ele>90.755975</ele>
        <time>2022-02-26T09:28:42.275Z</time>
      </trkpt>
      <trkpt lat="41.69921" lon="26.28379">
        <ele>90.455875</ele>
        <time>2022-02-26T09:28:45.287Z</time>
      </trkpt>
      <trkpt lat="41.69923" lon="26.28364">
        <ele>90.174466</ele>
        <time>2022-02-26T09:28:48.331Z</time>
      </trkpt>
      <trkpt lat="41.69925" lon="26.28349">
        <ele>89.865773</ele>
        <time>2022-02-26T09:28:51.285Z</time>
      </trkpt>
      <trkpt lat="41.69927" lon="26.28333">
        <ele>89.544335</ele>
        <time>2022-02-26T09:28:54.288Z</time>
      </trkpt>
      <trkpt lat="41.6993" lon="26.28316">
        <ele>89.201286</ele>
        <time>2022-02-26T09:28:57.303Z</time>
      </trkpt>
      <trkpt lat="41.69933" lon="26.28298">
        <ele>88.843438</ele>
        <time>2022-02-26T09:29:00.277Z</time>
      </trkpt>
      <trkpt lat="41.69934" lon="26.28285">
        <ele>88.59492</ele>
        <time>2022-02-26T09:29:02.285Z</time>
      </trkpt>
      <trkpt lat="41.69936" lon="26.28273">
        <ele>88.353152</ele>
        <time>2022-02-26T09:29:04.278Z</time>
      </trkpt>
      <trkpt lat="41.69938" lon="26.28261">
        <ele>88.10754</ele>
        <time>2022-02-26T09:29:06.291Z</time>
      </trkpt>
      <trkpt lat="41.6994" lon="26.28249">
        <ele>87.866744</ele>
        <time>2022-02-26T09:29:08.277Z</time>
      </trkpt>
      <trkpt lat="41.69941" lon="26.28237">
        <ele>87.627876</ele>
        <time>2022-02-26T09:29:10.271Z</time>
      </trkpt>
      <trkpt lat="41.69943" lon="26.28224">
        <ele>87.373982</ele>
        <time>2022-02-26T09:29:12.276Z</time>
      </trkpt>
      <trkpt lat="41.69944" lon="26.28211">
        <ele>87.124731</ele>
        <time>2022-02-26T09:29:14.295Z</time>
      </trkpt>
      <trkpt lat="41.69945" lon="26.28199">
        <ele>86.883243</ele>
        <time>2022-02-26T09:29:16.310Z</time>
      </trkpt>
      <trkpt lat="41.69946" lon="26.28187">
        <ele>86.634948</ele>
        <time>2022-02-26T09:29:18.273Z</time>
      </trkpt>
      <trkpt lat="41.69948" lon="26.28175">
        <ele>86.399643</ele>
        <time>2022-02-26T09:29:20.303Z</time>
      </trkpt>
      <trkpt lat="41.69949" lon="26.28157">
        <ele>86.048</ele>
        <time>2022-02-26T09:29:23.269Z</time>
      </trkpt>
      <trkpt lat="41.6995" lon="26.28139">
        <ele>85.697554</ele>
        <time>2022-02-26T09:29:26.277Z</time>
      </trkpt>
      <trkpt lat="41.69951" lon="26.28127">
        <ele>85.463999</ele>
        <time>2022-02-26T09:29:28.283Z</time>
      </trkpt>
      <trkpt lat="41.69951" lon="26.28109">
        <ele>85.114928</ele>
        <time>2022-02-26T09:29:31.282Z</time>
      </trkpt>
      <trkpt lat="41.69952" lon="26.28097">
        <ele>84.877188</ele>
        <time>2022-02-26T09:29:33.304Z</time>
      </trkpt>
      <trkpt lat="41.69953" lon="26.28079">
        <ele>84.538726</ele>
        <time>2022-02-26T09:29:36.296Z</time>
      </trkpt>
      <trkpt lat="41.69954" lon="26.28067">
        <ele>84.304616</ele>
        <time>2022-02-26T09:29:38.280Z</time>
      </trkpt>
      <trkpt lat="41.69955" lon="26.28055">
        <ele>84.068586</ele>
        <time>2022-02-26T09:29:40.281Z</time>
      </trkpt>
      <trkpt lat="41.69955" lon="26.28043">
        <ele>83.834875</ele>
        <time>2022-02-26T09:29:42.309Z</time>
      </trkpt>
      <trkpt lat="41.69956" lon="26.2803">
        <ele>83.596925</ele>
        <time>2022-02-26T09:29:44.315Z</time>
      </trkpt>
      <trkpt lat="41.69957" lon="26.28013">
        <ele>83.257483</ele>
        <time>2022-02-26T09:29:47.299Z</time>
      </trkpt>
      <trkpt lat="41.69957" lon="26.27995">
        <ele>82.908498</ele>
        <time>2022-02-26T09:29:50.311Z</time>
      </trkpt>
      <trkpt lat="41.69957" lon="26.27982">
        <ele>82.673359</ele>
        <time>2022-02-26T09:29:52.261Z</time>
      </trkpt>
      <trkpt lat="41.69957" lon="26.27965">
        <ele>82.335932</ele>
        <time>2022-02-26T09:29:55.269Z</time>
      </trkpt>
      <trkpt lat="41.69956" lon="26.27947">
        <ele>81.992639</ele>
        <time>2022-02-26T09:29:58.286Z</time>
      </trkpt>
      <trkpt lat="41.69956" lon="26.27935">
        <ele>81.761311</ele>
        <time>2022-02-26T09:30:00.307Z</time>
      </trkpt>
      <trkpt lat="41.69955" lon="26.27918">
        <ele>81.421134</ele>
        <time>2022-02-26T09:30:03.276Z</time>
      </trkpt>
      <trkpt lat="41.69954" lon="26.27901">
        <ele>81.173832</ele>
        <time>2022-02-26T09:30:06.275Z</time>
      </trkpt>
      <trkpt lat="41.69952" lon="26.27884">
        <ele>81.358635</ele>
        <time>2022-02-26T09:30:09.271Z</time>
      </trkpt>
      <trkpt lat="41.69951" lon="26.27868">
        <ele>81.542508</ele>
        <time>2022-02-26T09:30:12.270Z</time>
      </trkpt>
      <trkpt lat="41.69949" lon="26.27852">
        <ele>81.724563</ele>
        <time>2022-02-26T09:30:15.250Z</time>
      </trkpt>
      <trkpt lat="41.69948" lon="26.27836">
        <ele>81.899247</ele>
        <time>2022-02-26T09:30:18.259Z</time>
      </trkpt>
      <trkpt lat="41.69946" lon="26.27821">
        <ele>82.072368</ele>
        <time>2022-02-26T09:30:21.277Z</time>
      </trkpt>
      <trkpt lat="41.69943" lon="26.27805">
        <ele>82.24795</ele>
        <time>2022-02-26T09:30:24.336Z</time>
      </trkpt>
      <trkpt lat="41.69941" lon="26.2779">
        <ele>82.419161</ele>
        <time>2022-02-26T09:30:27.290Z</time>
      </trkpt>
      <trkpt lat="41.69939" lon="26.27774">
        <ele>82.601076</ele>
        <time>2022-02-26T09:30:30.310Z</time>
      </trkpt>
      <trkpt lat="41.69936" lon="26.27759">
        <ele>82.776035</ele>
        <time>2022-02-26T09:30:33.283Z</time>
      </trkpt>
      <trkpt lat="41.69933" lon="26.27743">
        <ele>82.952783</ele>
        <time>2022-02-26T09:30:36.269Z</time>
      </trkpt>
      <trkpt lat="41.6993" lon="26.27727">
        <ele>83.136043</ele>
        <time>2022-02-26T09:30:39.283Z</time>
      </trkpt>
      <trkpt lat="41.69926" lon="26.27712">
        <ele>83.31988</ele>
        <time>2022-02-26T09:30:42.276Z</time>
      </trkpt>
      <trkpt lat="41.69923" lon="26.27696">
        <ele>83.49925</ele>
        <time>2022-02-26T09:30:45.296Z</time>
      </trkpt>
      <trkpt lat="41.6992" lon="26.27681">
        <ele>83.669241</ele>
        <time>2022-02-26T09:30:48.293Z</time>
      </trkpt>
      <trkpt lat="41.69917" lon="26.27668">
        <ele>83.834685</ele>
        <time>2022-02-26T09:30:51.289Z</time>
      </trkpt>
      <trkpt lat="41.69914" lon="26.27654">
        <ele>84.154378</ele>
        <time>2022-02-26T09:30:54.281Z</time>
      </trkpt>
      <trkpt lat="41.69911" lon="26.27641">
        <ele>84.462917</ele>
        <time>2022-02-26T09:30:57.271Z</time>
      </trkpt>
      <trkpt lat="41.69908" lon="26.27628">
        <ele>84.758912</ele>
        <time>2022-02-26T09:31:00.305Z</time>
      </trkpt>
      <trkpt lat="41.69905" lon="26.27615">
        <ele>85.066095</ele>
        <time>2022-02-26T09:31:03.280Z</time>
      </trkpt>
      <trkpt lat="41.69902" lon="26.27603">
        <ele>85.362458</ele>
        <time>2022-02-26T09:31:06.265Z</time>
      </trkpt>
      <trkpt lat="41.699" lon="26.27591">
        <ele>85.644142</ele>
        <time>2022-02-26T09:31:09.298Z</time>
      </trkpt>
      <trkpt lat="41.69897" lon="26.27579">
        <ele>85.91689</ele>
        <time>2022-02-26T09:31:12.291Z</time>
      </trkpt>
      <trkpt lat="41.69895" lon="26.27567">
        <ele>86.20074</ele>
        <time>2022-02-26T09:31:15.264Z</time>
      </trkpt>
      <trkpt lat="41.69892" lon="26.27552">
        <ele>86.552994</ele>
        <time>2022-02-26T09:31:19.297Z</time>
      </trkpt>
      <trkpt lat="41.69889" lon="26.2754">
        <ele>86.82951</ele>
        <time>2022-02-26T09:31:22.311Z</time>
      </trkpt>
      <trkpt lat="41.69886" lon="26.27525">
        <ele>87.181642</ele>
        <time>2022-02-26T09:31:26.281Z</time>
      </trkpt>
      <trkpt lat="41.69882" lon="26.2751">
        <ele>87.537193</ele>
        <time>2022-02-26T09:31:30.288Z</time>
      </trkpt>
      <trkpt lat="41.69879" lon="26.27499">
        <ele>87.808698</ele>
        <time>2022-02-26T09:31:33.330Z</time>
      </trkpt>
      <trkpt lat="41.69877" lon="26.27487">
        <ele>88.087824</ele>
        <time>2022-02-26T09:31:36.288Z</time>
      </trkpt>
      <trkpt lat="41.69873" lon="26.27472">
        <ele>88.445166</ele>
        <time>2022-02-26T09:31:40.283Z</time>
      </trkpt>
      <trkpt lat="41.6987" lon="26.27457">
        <ele>88.784742</ele>
        <time>2022-02-26T09:31:44.309Z</time>
      </trkpt>
      <trkpt lat="41.69867" lon="26.27444">
        <ele>89.10962</ele>
        <time>2022-02-26T09:31:48.286Z</time>
      </trkpt>
      <trkpt lat="41.69864" lon="26.27431">
        <ele>89.29315</ele>
        <time>2022-02-26T09:31:52.285Z</time>
      </trkpt>
      <trkpt lat="41.69862" lon="26.27418">
        <ele>89.368268</ele>
        <time>2022-02-26T09:31:56.284Z</time>
      </trkpt>
      <trkpt lat="41.6986" lon="26.27406">
        <ele>89.443778</ele>
        <time>2022-02-26T09:32:00.276Z</time>
      </trkpt>
      <trkpt lat="41.69857" lon="26.27392">
        <ele>89.526935</ele>
        <time>2022-02-26T09:32:04.276Z</time>
      </trkpt>
      <trkpt lat="41.69854" lon="26.27376">
        <ele>89.618638</ele>
        <time>2022-02-26T09:32:08.259Z</time>
      </trkpt>
      <trkpt lat="41.69851" lon="26.27362">
        <ele>89.706607</ele>
        <time>2022-02-26T09:32:12.278Z</time>
      </trkpt>
      <trkpt lat="41.69848" lon="26.27348">
        <ele>89.78563</ele>
        <time>2022-02-26T09:32:16.304Z</time>
      </trkpt>
      <trkpt lat="41.69846" lon="26.27335">
        <ele>89.863909</ele>
        <time>2022-02-26T09:32:20.296Z</time>
      </trkpt>
      <trkpt lat="41.69843" lon="26.27322">
        <ele>89.941656</ele>
        <time>2022-02-26T09:32:24.322Z</time>
      </trkpt>
      <trkpt lat="41.6984" lon="26.27309">
        <ele>90.022596</ele>
        <time>2022-02-26T09:32:28.298Z</time>
      </trkpt>
      <trkpt lat="41.69838" lon="26.27295">
        <ele>90.099962</ele>
        <time>2022-02-26T09:32:32.287Z</time>
      </trkpt>
      <trkpt lat="41.69836" lon="26.27283">
        <ele>90.175444</ele>
        <time>2022-02-26T09:32:36.287Z</time>
      </trkpt>
      <trkpt lat="41.69833" lon="26.2727">
        <ele>90.253068</ele>
        <time>2022-02-26T09:32:40.335Z</time>
      </trkpt>
      <trkpt lat="41.6983" lon="26.27256">
        <ele>90.338207</ele>
        <time>2022-02-26T09:32:44.263Z</time>
      </trkpt>
      <trkpt lat="41.69826" lon="26.27243">
        <ele>90.418172</ele>
        <time>2022-02-26T09:32:48.311Z</time>
      </trkpt>
      <trkpt lat="41.69823" lon="26.27229">
        <ele>90.499233</ele>
        <time>2022-02-26T09:32:52.294Z</time>
      </trkpt>
      <trkpt lat="41.6982" lon="26.27217">
        <ele>90.575203</ele>
        <time>2022-02-26T09:32:56.273Z</time>
      </trkpt>
      <trkpt lat="41.69817" lon="26.27204">
        <ele>90.662338</ele>
        <time>2022-02-26T09:33:00.297Z</time>
      </trkpt>
      <trkpt lat="41.69815" lon="26.27192">
        <ele>90.823099</ele>
        <time>2022-02-26T09:33:04.288Z</time>
      </trkpt>
      <trkpt lat="41.69812" lon="26.27179">
        <ele>90.992641</ele>
        <time>2022-02-26T09:33:08.278Z</time>
      </trkpt>
      <trkpt lat="41.69809" lon="26.27165">
        <ele>91.180557</ele>
        <time>2022-02-26T09:33:12.297Z</time>
      </trkpt>
      <trkpt lat="41.69806" lon="26.27152">
        <ele>91.357504</ele>
        <time>2022-02-26T09:33:16.277Z</time>
      </trkpt>
      <trkpt lat="41.69803" lon="26.27138">
        <ele>91.554317</ele>
        <time>2022-02-26T09:33:20.273Z</time>
      </trkpt>
      <trkpt lat="41.69799" lon="26.27124">
        <ele>91.749481</ele>
        <time>2022-02-26T09:33:24.273Z</time>
      </trkpt>
      <trkpt lat="41.69796" lon="26.27111">
        <ele>91.932232</ele>
        <time>2022-02-26T09:33:28.310Z</time>
      </trkpt>
      <trkpt lat="41.69793" lon="26.27097">
        <ele>92.110683</ele>
        <time>2022-02-26T09:33:32.299Z</time>
      </trkpt>
      <trkpt lat="41.69789" lon="26.27084">
        <ele>92.298329</ele>
        <time>2022-02-26T09:33:36.304Z</time>
      </trkpt>
      <trkpt lat="41.69786" lon="26.2707">
        <ele>92.487741</ele>
        <time>2022-02-26T09:33:40.318Z</time>
      </trkpt>
      <trkpt lat="41.69783" lon="26.27056">
        <ele>92.675485</ele>
        <time>2022-02-26T09:33:44.282Z</time>
      </trkpt>
      <trkpt lat="41.6978" lon="26.27043">
        <ele>92.853469</ele>
        <time>2022-02-26T09:33:48.281Z</time>
      </trkpt>
      <trkpt lat="41.69777" lon="26.2703">
        <ele>93.027776</ele>
        <time>2022-02-26T09:33:52.360Z</time>
      </trkpt>
      <trkpt lat="41.69774" lon="26.27018">
        <ele>93.192297</ele>
        <time>2022-02-26T09:33:56.284Z</time>
      </trkpt>
      <trkpt lat="41.69772" lon="26.27006">
        <ele>93.351551</ele>
        <time>2022-02-26T09:34:00.272Z</time>
      </trkpt>
      <trkpt lat="41.69769" lon="26.26993">
        <ele>93.530789</ele>
        <time>2022-02-26T09:34:04.268Z</time>
      </trkpt>
      <trkpt lat="41.69766" lon="26.26979">
        <ele>93.715052</ele>
        <time>2022-02-26T09:34:08.287Z</time>
      </trkpt>
      <trkpt lat="41.69763" lon="26.26966">
        <ele>93.964264</ele>
        <time>2022-02-26T09:34:12.291Z</time>
      </trkpt>
      <trkpt lat="41.69761" lon="26.26951">
        <ele>94.272951</ele>
        <time>2022-02-26T09:34:16.297Z</time>
      </trkpt>
      <trkpt lat="41.69759" lon="26.26936">
        <ele>94.584798</ele>
        <time>2022-02-26T09:34:20.285Z</time>
      </trkpt>
      <trkpt lat="41.69757" lon="26.26922">
        <ele>94.878589</ele>
        <time>2022-02-26T09:34:24.279Z</time>
      </trkpt>
      <trkpt lat="41.69755" lon="26.26908">
        <ele>95.181901</ele>
        <time>2022-02-26T09:34:28.279Z</time>
      </trkpt>
      <trkpt lat="41.69752" lon="26.26893">
        <ele>95.494264</ele>
        <time>2022-02-26T09:34:32.292Z</time>
      </trkpt>
      <trkpt lat="41.69751" lon="26.26878">
        <ele>95.788129</ele>
        <time>2022-02-26T09:34:36.323Z</time>
      </trkpt>
      <trkpt lat="41.69749" lon="26.26864">
        <ele>96.094986</ele>
        <time>2022-02-26T09:34:40.275Z</time>
      </trkpt>
      <trkpt lat="41.69747" lon="26.2685">
        <ele>96.383988</ele>
        <time>2022-02-26T09:34:44.274Z</time>
      </trkpt>
      <trkpt lat="41.69745" lon="26.26835">
        <ele>96.685475</ele>
        <time>2022-02-26T09:34:48.288Z</time>
      </trkpt>
      <trkpt lat="41.69743" lon="26.26822">
        <ele>96.955158</ele>
        <time>2022-02-26T09:34:52.326Z</time>
      </trkpt>
      <trkpt lat="41.69741" lon="26.26809">
        <ele>97.242021</ele>
        <time>2022-02-26T09:34:56.300Z</time>
      </trkpt>
      <trkpt lat="41.6974" lon="26.26794">
        <ele>97.530254</ele>
        <time>2022-02-26T09:35:00.283Z</time>
      </trkpt>
      <trkpt lat="41.69739" lon="26.2678">
        <ele>97.823303</ele>
        <time>2022-02-26T09:35:04.316Z</time>
      </trkpt>
      <trkpt lat="41.69738" lon="26.26765">
        <ele>98.127501</ele>
        <time>2022-02-26T09:35:08.289Z</time>
      </trkpt>
      <trkpt lat="41.69737" lon="26.2675">
        <ele>98.442478</ele>
        <time>2022-02-26T09:35:12.275Z</time>
      </trkpt>
      <trkpt lat="41.69737" lon="26.26738">
        <ele>98.698428</ele>
        <time>2022-02-26T09:35:15.353Z</time>
      </trkpt>
      <trkpt lat="41.69736" lon="26.26725">
        <ele>98.546467</ele>
        <time>2022-02-26T09:35:18.268Z</time>
      </trkpt>
      <trkpt lat="41.69736" lon="26.2671">
        <ele>98.359843</ele>
        <time>2022-02-26T09:35:22.275Z</time>
      </trkpt>
      <trkpt lat="41.69735" lon="26.26696">
        <ele>98.187763</ele>
        <time>2022-02-26T09:35:26.323Z</time>
      </trkpt>
      <trkpt lat="41.69735" lon="26.26682">
        <ele>98.015848</ele>
        <time>2022-02-26T09:35:30.284Z</time>
      </trkpt>
      <trkpt lat="41.69735" lon="26.26668">
        <ele>97.840273</ele>
        <time>2022-02-26T09:35:34.296Z</time>
      </trkpt>
      <trkpt lat="41.69735" lon="26.26653">
        <ele>97.661015</ele>
        <time>2022-02-26T09:35:38.280Z</time>
      </trkpt>
      <trkpt lat="41.69736" lon="26.26638">
        <ele>97.471764</ele>
        <time>2022-02-26T09:35:42.268Z</time>
      </trkpt>
      <trkpt lat="41.69736" lon="26.26623">
        <ele>97.293673</ele>
        <time>2022-02-26T09:35:46.271Z</time>
      </trkpt>
      <trkpt lat="41.69736" lon="26.26611">
        <ele>97.146262</ele>
        <time>2022-02-26T09:35:49.289Z</time>
      </trkpt>
      <trkpt lat="41.69737" lon="26.26595">
        <ele>96.95036</ele>
        <time>2022-02-26T09:35:53.262Z</time>
      </trkpt>
      <trkpt lat="41.69738" lon="26.2658">
        <ele>96.762868</ele>
        <time>2022-02-26T09:35:57.290Z</time>
      </trkpt>
      <trkpt lat="41.69739" lon="26.26564">
        <ele>96.569938</ele>
        <time>2022-02-26T09:36:01.286Z</time>
      </trkpt>
      <trkpt lat="41.6974" lon="26.2655">
        <ele>96.389982</ele>
        <time>2022-02-26T09:36:05.266Z</time>
      </trkpt>
      <trkpt lat="41.69742" lon="26.26534">
        <ele>96.198485</ele>
        <time>2022-02-26T09:36:09.306Z</time>
      </trkpt>
      <trkpt lat="41.69743" lon="26.26522">
        <ele>96.041517</ele>
        <time>2022-02-26T09:36:12.295Z</time>
      </trkpt>
      <trkpt lat="41.69744" lon="26.26509">
        <ele>95.881226</ele>
        <time>2022-02-26T09:36:15.278Z</time>
      </trkpt>
      <trkpt lat="41.69745" lon="26.26494">
        <ele>95.780338</ele>
        <time>2022-02-26T09:36:18.286Z</time>
      </trkpt>
      <trkpt lat="41.69746" lon="26.26481">
        <ele>95.961587</ele>
        <time>2022-02-26T09:36:21.307Z</time>
      </trkpt>
      <trkpt lat="41.69748" lon="26.26469">
        <ele>96.136461</ele>
        <time>2022-02-26T09:36:24.279Z</time>
      </trkpt>
      <trkpt lat="41.6975" lon="26.26456">
        <ele>96.314671</ele>
        <time>2022-02-26T09:36:27.273Z</time>
      </trkpt>
      <trkpt lat="41.69751" lon="26.26443">
        <ele>96.494032</ele>
        <time>2022-02-26T09:36:30.271Z</time>
      </trkpt>
      <trkpt lat="41.69753" lon="26.26429">
        <ele>96.674565</ele>
        <time>2022-02-26T09:36:33.272Z</time>
      </trkpt>
      <trkpt lat="41.69755" lon="26.26416">
        <ele>96.853765</ele>
        <time>2022-02-26T09:36:36.280Z</time>
      </trkpt>
      <trkpt lat="41.69757" lon="26.26403">
        <ele>97.038397</ele>
        <time>2022-02-26T09:36:39.312Z</time>
      </trkpt>
      <trkpt lat="41.6976" lon="26.26389">
        <ele>97.236658</ele>
        <time>2022-02-26T09:36:42.267Z</time>
      </trkpt>
      <trkpt lat="41.69762" lon="26.26375">
        <ele>97.434396</ele>
        <time>2022-02-26T09:36:45.283Z</time>
      </trkpt>
      <trkpt lat="41.69765" lon="26.2636">
        <ele>97.640469</ele>
        <time>2022-02-26T09:36:48.278Z</time>
      </trkpt>
      <trkpt lat="41.69768" lon="26.26345">
        <ele>97.848001</ele>
        <time>2022-02-26T09:36:51.274Z</time>
      </trkpt>
      <trkpt lat="41.69772" lon="26.2633">
        <ele>98.062293</ele>
        <time>2022-02-26T09:36:54.274Z</time>
      </trkpt>
      <trkpt lat="41.69775" lon="26.26315">
        <ele>98.271414</ele>
        <time>2022-02-26T09:36:57.293Z</time>
      </trkpt>
      <trkpt lat="41.69779" lon="26.263">
        <ele>98.490533</ele>
        <time>2022-02-26T09:37:00.277Z</time>
      </trkpt>
      <trkpt lat="41.69783" lon="26.26285">
        <ele>98.704079</ele>
        <time>2022-02-26T09:37:03.290Z</time>
      </trkpt>
      <trkpt lat="41.69787" lon="26.26271">
        <ele>98.909779</ele>
        <time>2022-02-26T09:37:06.302Z</time>
      </trkpt>
      <trkpt lat="41.6979" lon="26.26256">
        <ele>99.100642</ele>
        <time>2022-02-26T09:37:09.284Z</time>
      </trkpt>
      <trkpt lat="41.69795" lon="26.26242">
        <ele>99.278176</ele>
        <time>2022-02-26T09:37:12.309Z</time>
      </trkpt>
      <trkpt lat="41.69799" lon="26.26226">
        <ele>99.467372</ele>
        <time>2022-02-26T09:37:15.267Z</time>
      </trkpt>
      <trkpt lat="41.69803" lon="26.26211">
        <ele>99.655026</ele>
        <time>2022-02-26T09:37:18.297Z</time>
      </trkpt>
      <trkpt lat="41.69808" lon="26.26196">
        <ele>99.833266</ele>
        <time>2022-02-26T09:37:21.283Z</time>
      </trkpt>
      <trkpt lat="41.69813" lon="26.26181">
        <ele>100.021416</ele>
        <time>2022-02-26T09:37:24.301Z</time>
      </trkpt>
      <trkpt lat="41.69818" lon="26.26165">
        <ele>100.214083</ele>
        <time>2022-02-26T09:37:27.302Z</time>
      </trkpt>
      <trkpt lat="41.69824" lon="26.26149">
        <ele>100.41602</ele>
        <time>2022-02-26T09:37:30.339Z</time>
      </trkpt>
      <trkpt lat="41.69828" lon="26.26138">
        <ele>100.557202</ele>
        <time>2022-02-26T09:37:32.271Z</time>
      </trkpt>
      <trkpt lat="41.69833" lon="26.26127">
        <ele>100.701384</ele>
        <time>2022-02-26T09:37:34.290Z</time>
      </trkpt>
      <trkpt lat="41.69837" lon="26.26115">
        <ele>100.852988</ele>
        <time>2022-02-26T09:37:36.291Z</time>
      </trkpt>
      <trkpt lat="41.69842" lon="26.26103">
        <ele>101.004757</ele>
        <time>2022-02-26T09:37:38.306Z</time>
      </trkpt>
      <trkpt lat="41.69847" lon="26.26092">
        <ele>101.152086</ele>
        <time>2022-02-26T09:37:40.273Z</time>
      </trkpt>
      <trkpt lat="41.69852" lon="26.26081">
        <ele>101.297438</ele>
        <time>2022-02-26T09:37:42.279Z</time>
      </trkpt>
      <trkpt lat="41.69856" lon="26.2607">
        <ele>101.442559</ele>
        <time>2022-02-26T09:37:44.283Z</time>
      </trkpt>
      <trkpt lat="41.69861" lon="26.26059">
        <ele>101.586701</ele>
        <time>2022-02-26T09:37:46.275Z</time>
      </trkpt>
      <trkpt lat="41.69866" lon="26.26048">
        <ele>101.724431</ele>
        <time>2022-02-26T09:37:48.303Z</time>
      </trkpt>
      <trkpt lat="41.69871" lon="26.26038">
        <ele>101.62079</ele>
        <time>2022-02-26T09:37:50.275Z</time>
      </trkpt>
      <trkpt lat="41.69876" lon="26.26027">
        <ele>101.497318</ele>
        <time>2022-02-26T09:37:52.277Z</time>
      </trkpt>
      <trkpt lat="41.69881" lon="26.26017">
        <ele>101.373846</ele>
        <time>2022-02-26T09:37:54.317Z</time>
      </trkpt>
      <trkpt lat="41.69887" lon="26.26006">
        <ele>101.251096</ele>
        <time>2022-02-26T09:37:56.302Z</time>
      </trkpt>
      <trkpt lat="41.69892" lon="26.25995">
        <ele>101.129862</ele>
        <time>2022-02-26T09:37:58.263Z</time>
      </trkpt>
      <trkpt lat="41.69897" lon="26.25985">
        <ele>101.01014</ele>
        <time>2022-02-26T09:38:00.270Z</time>
      </trkpt>
      <trkpt lat="41.69902" lon="26.25975">
        <ele>100.890633</ele>
        <time>2022-02-26T09:38:02.296Z</time>
      </trkpt>
      <trkpt lat="41.69908" lon="26.25965">
        <ele>100.771851</ele>
        <time>2022-02-26T09:38:04.323Z</time>
      </trkpt>
      <trkpt lat="41.69913" lon="26.25955">
        <ele>100.655384</ele>
        <time>2022-02-26T09:38:06.281Z</time>
      </trkpt>
      <trkpt lat="41.69919" lon="26.25945">
        <ele>100.531993</ele>
        <time>2022-02-26T09:38:08.276Z</time>
      </trkpt>
      <trkpt lat="41.69925" lon="26.25935">
        <ele>100.41317</ele>
        <time>2022-02-26T09:38:10.314Z</time>
      </trkpt>
      <trkpt lat="41.69933" lon="26.25921">
        <ele>100.23968</ele>
        <time>2022-02-26T09:38:13.285Z</time>
      </trkpt>
      <trkpt lat="41.69939" lon="26.25911">
        <ele>100.116916</ele>
        <time>2022-02-26T09:38:15.299Z</time>
      </trkpt>
      <trkpt lat="41.69945" lon="26.25901">
        <ele>99.992668</ele>
        <time>2022-02-26T09:38:17.290Z</time>
      </trkpt>
      <trkpt lat="41.69951" lon="26.25891">
        <ele>99.866858</ele>
        <time>2022-02-26T09:38:19.281Z</time>
      </trkpt>
      <trkpt lat="41.69957" lon="26.25881">
        <ele>99.743354</ele>
        <time>2022-02-26T09:38:21.283Z</time>
      </trkpt>
      <trkpt lat="41.69963" lon="26.25871">
        <ele>99.619205</ele>
        <time>2022-02-26T09:38:23.286Z</time>
      </trkpt>
      <trkpt lat="41.6997" lon="26.25861">
        <ele>99.49393</ele>
        <time>2022-02-26T09:38:25.300Z</time>
      </trkpt>
      <trkpt lat="41.69976" lon="26.25852">
        <ele>99.46675</ele>
        <time>2022-02-26T09:38:27.281Z</time>
      </trkpt>
      <trkpt lat="41.69983" lon="26.25842">
        <ele>99.618224</ele>
        <time>2022-02-26T09:38:29.311Z</time>
      </trkpt>
      <trkpt lat="41.6999" lon="26.25833">
        <ele>99.772533</ele>
        <time>2022-02-26T09:38:31.276Z</time>
      </trkpt>
      <trkpt lat="41.69996" lon="26.25824">
        <ele>99.924636</ele>
        <time>2022-02-26T09:38:33.290Z</time>
      </trkpt>
      <trkpt lat="41.70003" lon="26.25815">
        <ele>100.07256</ele>
        <time>2022-02-26T09:38:35.279Z</time>
      </trkpt>
      <trkpt lat="41.7001" lon="26.25806">
        <ele>100.225518</ele>
        <time>2022-02-26T09:38:37.287Z</time>
      </trkpt>
      <trkpt lat="41.70017" lon="26.25797">
        <ele>100.373739</ele>
        <time>2022-02-26T09:38:39.302Z</time>
      </trkpt>
      <trkpt lat="41.70023" lon="26.25788">
        <ele>100.520842</ele>
        <time>2022-02-26T09:38:41.300Z</time>
      </trkpt>
      <trkpt lat="41.7003" lon="26.2578">
        <ele>100.662409</ele>
        <time>2022-02-26T09:38:43.280Z</time>
      </trkpt>
      <trkpt lat="41.70039" lon="26.25768">
        <ele>100.87183</ele>
        <time>2022-02-26T09:38:46.277Z</time>
      </trkpt>
      <trkpt lat="41.70049" lon="26.25755">
        <ele>101.080935</ele>
        <time>2022-02-26T09:38:49.291Z</time>
      </trkpt>
      <trkpt lat="41.70058" lon="26.25743">
        <ele>101.286781</ele>
        <time>2022-02-26T09:38:52.280Z</time>
      </trkpt>
      <trkpt lat="41.70068" lon="26.25732">
        <ele>101.489426</ele>
        <time>2022-02-26T09:38:55.283Z</time>
      </trkpt>
      <trkpt lat="41.70077" lon="26.2572">
        <ele>101.690909</ele>
        <time>2022-02-26T09:38:58.285Z</time>
      </trkpt>
      <trkpt lat="41.70086" lon="26.25709">
        <ele>101.884929</ele>
        <time>2022-02-26T09:39:01.337Z</time>
      </trkpt>
      <trkpt lat="41.70095" lon="26.25698">
        <ele>102.06605</ele>
        <time>2022-02-26T09:39:04.274Z</time>
      </trkpt>
      <trkpt lat="41.70104" lon="26.25688">
        <ele>102.249911</ele>
        <time>2022-02-26T09:39:07.277Z</time>
      </trkpt>
      <trkpt lat="41.70111" lon="26.25677">
        <ele>102.295617</ele>
        <time>2022-02-26T09:39:10.280Z</time>
      </trkpt>
      <trkpt lat="41.7012" lon="26.25667">
        <ele>102.343333</ele>
        <time>2022-02-26T09:39:13.273Z</time>
      </trkpt>
      <trkpt lat="41.70128" lon="26.25656">
        <ele>102.391474</ele>
        <time>2022-02-26T09:39:16.279Z</time>
      </trkpt>
      <trkpt lat="41.70136" lon="26.25646">
        <ele>102.437259</ele>
        <time>2022-02-26T09:39:19.287Z</time>
      </trkpt>
      <trkpt lat="41.70144" lon="26.25635">
        <ele>102.483917</ele>
        <time>2022-02-26T09:39:22.279Z</time>
      </trkpt>
      <trkpt lat="41.70152" lon="26.25625">
        <ele>102.530588</ele>
        <time>2022-02-26T09:39:25.268Z</time>
      </trkpt>
      <trkpt lat="41.7016" lon="26.25614">
        <ele>102.57632</ele>
        <time>2022-02-26T09:39:28.277Z</time>
      </trkpt>
      <trkpt lat="41.70167" lon="26.25604">
        <ele>102.620865</ele>
        <time>2022-02-26T09:39:31.280Z</time>
      </trkpt>
      <trkpt lat="41.70175" lon="26.25593">
        <ele>102.667454</ele>
        <time>2022-02-26T09:39:34.273Z</time>
      </trkpt>
      <trkpt lat="41.70183" lon="26.25582">
        <ele>102.714555</ele>
        <time>2022-02-26T09:39:37.290Z</time>
      </trkpt>
      <trkpt lat="41.70191" lon="26.2557">
        <ele>102.764862</ele>
        <time>2022-02-26T09:39:40.279Z</time>
      </trkpt>
      <trkpt lat="41.70199" lon="26.25559">
        <ele>102.814744</ele>
        <time>2022-02-26T09:39:43.284Z</time>
      </trkpt>
      <trkpt lat="41.70207" lon="26.25548">
        <ele>102.861342</ele>
        <time>2022-02-26T09:39:46.282Z</time>
      </trkpt>
      <trkpt lat="41.70214" lon="26.25538">
        <ele>102.904439</ele>
        <time>2022-02-26T09:39:49.281Z</time>
      </trkpt>
      <trkpt lat="41.70221" lon="26.25527">
        <ele>102.949252</ele>
        <time>2022-02-26T09:39:52.283Z</time>
      </trkpt>
      <trkpt lat="41.70228" lon="26.25517">
        <ele>102.992039</ele>
        <time>2022-02-26T09:39:55.288Z</time>
      </trkpt>
      <trkpt lat="41.70235" lon="26.25507">
        <ele>102.970917</ele>
        <time>2022-02-26T09:39:58.288Z</time>
      </trkpt>
      <trkpt lat="41.70241" lon="26.25496">
        <ele>102.941412</ele>
        <time>2022-02-26T09:40:01.284Z</time>
      </trkpt>
      <trkpt lat="41.70248" lon="26.25486">
        <ele>102.91178</ele>
        <time>2022-02-26T09:40:04.298Z</time>
      </trkpt>
      <trkpt lat="41.70254" lon="26.25474">
        <ele>102.880796</ele>
        <time>2022-02-26T09:40:07.295Z</time>
      </trkpt>
      <trkpt lat="41.70261" lon="26.25463">
        <ele>102.849921</ele>
        <time>2022-02-26T09:40:10.302Z</time>
      </trkpt>
      <trkpt lat="41.70268" lon="26.25452">
        <ele>102.820123</ele>
        <time>2022-02-26T09:40:13.275Z</time>
      </trkpt>
      <trkpt lat="41.70275" lon="26.2544">
        <ele>102.788112</ele>
        <time>2022-02-26T09:40:16.286Z</time>
      </trkpt>
      <trkpt lat="41.70281" lon="26.25428">
        <ele>102.756275</ele>
        <time>2022-02-26T09:40:19.291Z</time>
      </trkpt>
      <trkpt lat="41.70288" lon="26.25416">
        <ele>102.723569</ele>
        <time>2022-02-26T09:40:22.289Z</time>
      </trkpt>
      <trkpt lat="41.70295" lon="26.25404">
        <ele>102.691903</ele>
        <time>2022-02-26T09:40:25.266Z</time>
      </trkpt>
      <trkpt lat="41.70302" lon="26.25393">
        <ele>102.660222</ele>
        <time>2022-02-26T09:40:28.281Z</time>
      </trkpt>
      <trkpt lat="41.70308" lon="26.25381">
        <ele>102.628886</ele>
        <time>2022-02-26T09:40:31.279Z</time>
      </trkpt>
      <trkpt lat="41.70315" lon="26.25369">
        <ele>102.596192</ele>
        <time>2022-02-26T09:40:34.271Z</time>
      </trkpt>
      <trkpt lat="41.70322" lon="26.25356">
        <ele>102.563478</ele>
        <time>2022-02-26T09:40:37.301Z</time>
      </trkpt>
      <trkpt lat="41.70328" lon="26.25345">
        <ele>102.534023</ele>
        <time>2022-02-26T09:40:40.281Z</time>
      </trkpt>
      <trkpt lat="41.70333" lon="26.25333">
        <ele>102.504555</ele>
        <time>2022-02-26T09:40:43.283Z</time>
      </trkpt>
      <trkpt lat="41.70339" lon="26.25321">
        <ele>102.479494</ele>
        <time>2022-02-26T09:40:46.290Z</time>
      </trkpt>
      <trkpt lat="41.70345" lon="26.2531">
        <ele>102.472277</ele>
        <time>2022-02-26T09:40:49.298Z</time>
      </trkpt>
      <trkpt lat="41.70351" lon="26.25298">
        <ele>102.464848</ele>
        <time>2022-02-26T09:40:52.288Z</time>
      </trkpt>
      <trkpt lat="41.70357" lon="26.25285">
        <ele>102.457396</ele>
        <time>2022-02-26T09:40:55.296Z</time>
      </trkpt>
      <trkpt lat="41.70363" lon="26.25273">
        <ele>102.449766</ele>
        <time>2022-02-26T09:40:58.285Z</time>
      </trkpt>
      <trkpt lat="41.70369" lon="26.2526">
        <ele>102.442017</ele>
        <time>2022-02-26T09:41:01.291Z</time>
      </trkpt>
      <trkpt lat="41.70376" lon="26.25247">
        <ele>102.434006</ele>
        <time>2022-02-26T09:41:04.280Z</time>
      </trkpt>
      <trkpt lat="41.70381" lon="26.25235">
        <ele>102.426561</ele>
        <time>2022-02-26T09:41:07.283Z</time>
      </trkpt>
      <trkpt lat="41.70387" lon="26.25223">
        <ele>102.419486</ele>
        <time>2022-02-26T09:41:10.331Z</time>
      </trkpt>
      <trkpt lat="41.70392" lon="26.25211">
        <ele>102.412281</ele>
        <time>2022-02-26T09:41:13.318Z</time>
      </trkpt>
      <trkpt lat="41.70398" lon="26.25199">
        <ele>102.405024</ele>
        <time>2022-02-26T09:41:16.283Z</time>
      </trkpt>
      <trkpt lat="41.70403" lon="26.25186">
        <ele>102.397589</ele>
        <time>2022-02-26T09:41:19.289Z</time>
      </trkpt>
      <trkpt lat="41.70409" lon="26.25174">
        <ele>102.390108</ele>
        <time>2022-02-26T09:41:22.281Z</time>
      </trkpt>
      <trkpt lat="41.70414" lon="26.25162">
        <ele>102.382896</ele>
        <time>2022-02-26T09:41:25.275Z</time>
      </trkpt>
      <trkpt lat="41.70419" lon="26.25149">
        <ele>102.375673</ele>
        <time>2022-02-26T09:41:28.288Z</time>
      </trkpt>
      <trkpt lat="41.70424" lon="26.25136">
        <ele>102.368317</ele>
        <time>2022-02-26T09:41:31.287Z</time>
      </trkpt>
      <trkpt lat="41.70429" lon="26.25124">
        <ele>102.361033</ele>
        <time>2022-02-26T09:41:34.284Z</time>
      </trkpt>
      <trkpt lat="41.70434" lon="26.2511">
        <ele>102.403512</ele>
        <time>2022-02-26T09:41:37.281Z</time>
      </trkpt>
      <trkpt lat="41.70439" lon="26.25096">
        <ele>102.479812</ele>
        <time>2022-02-26T09:41:40.330Z</time>
      </trkpt>
      <trkpt lat="41.70444" lon="26.25083">
        <ele>102.552597</ele>
        <time>2022-02-26T09:41:43.283Z</time>
      </trkpt>
      <trkpt lat="41.70449" lon="26.25069">
        <ele>102.628021</ele>
        <time>2022-02-26T09:41:46.273Z</time>
      </trkpt>
      <trkpt lat="41.70455" lon="26.25055">
        <ele>102.70432</ele>
        <time>2022-02-26T09:41:49.300Z</time>
      </trkpt>
      <trkpt lat="41.70459" lon="26.25042">
        <ele>102.779034</ele>
        <time>2022-02-26T09:41:52.299Z</time>
      </trkpt>
      <trkpt lat="41.70465" lon="26.25028">
        <ele>102.853583</ele>
        <time>2022-02-26T09:41:55.277Z</time>
      </trkpt>
      <trkpt lat="41.70469" lon="26.25015">
        <ele>102.926965</ele>
        <time>2022-02-26T09:41:58.275Z</time>
      </trkpt>
      <trkpt lat="41.70474" lon="26.25001">
        <ele>103.001678</ele>
        <time>2022-02-26T09:42:01.283Z</time>
      </trkpt>
      <trkpt lat="41.70479" lon="26.24989">
        <ele>103.068801</ele>
        <time>2022-02-26T09:42:04.317Z</time>
      </trkpt>
      <trkpt lat="41.70485" lon="26.24979">
        <ele>103.131761</ele>
        <time>2022-02-26T09:42:07.276Z</time>
      </trkpt>
      <trkpt lat="41.7049" lon="26.24967">
        <ele>103.197829</ele>
        <time>2022-02-26T09:42:10.299Z</time>
      </trkpt>
      <trkpt lat="41.70494" lon="26.24954">
        <ele>103.268272</ele>
        <time>2022-02-26T09:42:13.281Z</time>
      </trkpt>
      <trkpt lat="41.70499" lon="26.24941">
        <ele>103.336092</ele>
        <time>2022-02-26T09:42:16.278Z</time>
      </trkpt>
      <trkpt lat="41.70503" lon="26.24929">
        <ele>103.400771</ele>
        <time>2022-02-26T09:42:19.298Z</time>
      </trkpt>
      <trkpt lat="41.70506" lon="26.24916">
        <ele>103.468586</ele>
        <time>2022-02-26T09:42:22.270Z</time>
      </trkpt>
      <trkpt lat="41.70509" lon="26.24902">
        <ele>103.54378</ele>
        <time>2022-02-26T09:42:25.268Z</time>
      </trkpt>
      <trkpt lat="41.70515" lon="26.24889">
        <ele>103.682385</ele>
        <time>2022-02-26T09:42:28.271Z</time>
      </trkpt>
      <trkpt lat="41.70519" lon="26.24877">
        <ele>103.80878</ele>
        <time>2022-02-26T09:42:31.276Z</time>
      </trkpt>
      <trkpt lat="41.70524" lon="26.24864">
        <ele>103.940779</ele>
        <time>2022-02-26T09:42:34.267Z</time>
      </trkpt>
      <trkpt lat="41.70528" lon="26.24851">
        <ele>104.069948</ele>
        <time>2022-02-26T09:42:37.270Z</time>
      </trkpt>
      <trkpt lat="41.70533" lon="26.24838">
        <ele>104.200787</ele>
        <time>2022-02-26T09:42:40.284Z</time>
      </trkpt>
      <trkpt lat="41.70537" lon="26.24825">
        <ele>104.335824</ele>
        <time>2022-02-26T09:42:43.265Z</time>
      </trkpt>
      <trkpt lat="41.70541" lon="26.24812">
        <ele>104.466332</ele>
        <time>2022-02-26T09:42:46.282Z</time>
      </trkpt>
      <trkpt lat="41.70545" lon="26.24799">
        <ele>104.594655</ele>
        <time>2022-02-26T09:42:49.260Z</time>
      </trkpt>
      <trkpt lat="41.7055" lon="26.24786">
        <ele>104.728849</ele>
        <time>2022-02-26T09:42:52.267Z</time>
      </trkpt>
      <trkpt lat="41.70554" lon="26.24772">
        <ele>104.865072</ele>
        <time>2022-02-26T09:42:55.268Z</time>
      </trkpt>
      <trkpt lat="41.70559" lon="26.24758">
        <ele>105.00688</ele>
        <time>2022-02-26T09:42:58.290Z</time>
      </trkpt>
      <trkpt lat="41.70563" lon="26.24745">
        <ele>105.142123</ele>
        <time>2022-02-26T09:43:01.287Z</time>
      </trkpt>
      <trkpt lat="41.70567" lon="26.24732">
        <ele>105.271299</ele>
        <time>2022-02-26T09:43:04.291Z</time>
      </trkpt>
      <trkpt lat="41.70572" lon="26.24719">
        <ele>105.405707</ele>
        <time>2022-02-26T09:43:07.273Z</time>
      </trkpt>
      <trkpt lat="41.70577" lon="26.24706">
        <ele>105.534875</ele>
        <time>2022-02-26T09:43:10.301Z</time>
      </trkpt>
      <trkpt lat="41.70581" lon="26.24692">
        <ele>105.675832</ele>
        <time>2022-02-26T09:43:13.323Z</time>
      </trkpt>
      <trkpt lat="41.70586" lon="26.24677">
        <ele>105.690225</ele>
        <time>2022-02-26T09:43:16.275Z</time>
      </trkpt>
      <trkpt lat="41.7059" lon="26.24663">
        <ele>105.501535</ele>
        <time>2022-02-26T09:43:19.266Z</time>
      </trkpt>
      <trkpt lat="41.70594" lon="26.24649">
        <ele>105.318571</ele>
        <time>2022-02-26T09:43:22.292Z</time>
      </trkpt>
      <trkpt lat="41.70599" lon="26.24635">
        <ele>105.1347</ele>
        <time>2022-02-26T09:43:25.295Z</time>
      </trkpt>
      <trkpt lat="41.70603" lon="26.24621">
        <ele>104.948773</ele>
        <time>2022-02-26T09:43:28.286Z</time>
      </trkpt>
      <trkpt lat="41.70608" lon="26.24607">
        <ele>104.757095</ele>
        <time>2022-02-26T09:43:31.281Z</time>
      </trkpt>
      <trkpt lat="41.70613" lon="26.24592">
        <ele>104.56523</ele>
        <time>2022-02-26T09:43:34.287Z</time>
      </trkpt>
      <trkpt lat="41.70617" lon="26.24578">
        <ele>104.37306</ele>
        <time>2022-02-26T09:43:37.280Z</time>
      </trkpt>
      <trkpt lat="41.70622" lon="26.24562">
        <ele>104.166653</ele>
        <time>2022-02-26T09:43:40.284Z</time>
      </trkpt>
      <trkpt lat="41.70627" lon="26.24546">
        <ele>103.953381</ele>
        <time>2022-02-26T09:43:43.279Z</time>
      </trkpt>
      <trkpt lat="41.70631" lon="26.24534">
        <ele>103.803261</ele>
        <time>2022-02-26T09:43:45.276Z</time>
      </trkpt>
      <trkpt lat="41.70634" lon="26.24523">
        <ele>103.656476</ele>
        <time>2022-02-26T09:43:47.284Z</time>
      </trkpt>
      <trkpt lat="41.70638" lon="26.24512">
        <ele>103.502805</ele>
        <time>2022-02-26T09:43:49.287Z</time>
      </trkpt>
      <trkpt lat="41.70642" lon="26.245">
        <ele>103.340032</ele>
        <time>2022-02-26T09:43:51.307Z</time>
      </trkpt>
      <trkpt lat="41.70647" lon="26.24488">
        <ele>103.177687</ele>
        <time>2022-02-26T09:43:53.279Z</time>
      </trkpt>
      <trkpt lat="41.70651" lon="26.24476">
        <ele>103.016842</ele>
        <time>2022-02-26T09:43:55.282Z</time>
      </trkpt>
      <trkpt lat="41.70655" lon="26.24463">
        <ele>102.854731</ele>
        <time>2022-02-26T09:43:57.284Z</time>
      </trkpt>
      <trkpt lat="41.70659" lon="26.24452">
        <ele>102.808052</ele>
        <time>2022-02-26T09:43:59.297Z</time>
      </trkpt>
      <trkpt lat="41.70663" lon="26.2444">
        <ele>102.775234</ele>
        <time>2022-02-26T09:44:01.285Z</time>
      </trkpt>
      <trkpt lat="41.70667" lon="26.24428">
        <ele>102.741955</ele>
        <time>2022-02-26T09:44:03.302Z</time>
      </trkpt>
      <trkpt lat="41.70671" lon="26.24417">
        <ele>102.709971</ele>
        <time>2022-02-26T09:44:05.277Z</time>
      </trkpt>
      <trkpt lat="41.70675" lon="26.24405">
        <ele>102.677235</ele>
        <time>2022-02-26T09:44:07.285Z</time>
      </trkpt>
      <trkpt lat="41.70679" lon="26.24393">
        <ele>102.644559</ele>
        <time>2022-02-26T09:44:09.312Z</time>
      </trkpt>
      <trkpt lat="41.70683" lon="26.24382">
        <ele>102.613263</ele>
        <time>2022-02-26T09:44:11.267Z</time>
      </trkpt>
      <trkpt lat="41.70687" lon="26.24371">
        <ele>102.582044</ele>
        <time>2022-02-26T09:44:13.285Z</time>
      </trkpt>
      <trkpt lat="41.70692" lon="26.24359">
        <ele>102.548097</ele>
        <time>2022-02-26T09:44:15.328Z</time>
      </trkpt>
      <trkpt lat="41.70696" lon="26.24347">
        <ele>102.513985</ele>
        <time>2022-02-26T09:44:17.285Z</time>
      </trkpt>
      <trkpt lat="41.707" lon="26.24335">
        <ele>102.479268</ele>
        <time>2022-02-26T09:44:19.283Z</time>
      </trkpt>
      <trkpt lat="41.70704" lon="26.24323">
        <ele>102.44547</ele>
        <time>2022-02-26T09:44:21.277Z</time>
      </trkpt>
      <trkpt lat="41.70709" lon="26.2431">
        <ele>102.410149</ele>
        <time>2022-02-26T09:44:23.292Z</time>
      </trkpt>
      <trkpt lat="41.70713" lon="26.24298">
        <ele>102.375202</ele>
        <time>2022-02-26T09:44:25.288Z</time>
      </trkpt>
      <trkpt lat="41.70717" lon="26.24285">
        <ele>102.340534</ele>
        <time>2022-02-26T09:44:27.288Z</time>
      </trkpt>
      <trkpt lat="41.70721" lon="26.24273">
        <ele>102.307069</ele>
        <time>2022-02-26T09:44:29.266Z</time>
      </trkpt>
      <trkpt lat="41.70725" lon="26.24261">
        <ele>102.273329</ele>
        <time>2022-02-26T09:44:31.282Z</time>
      </trkpt>
      <trkpt lat="41.70729" lon="26.24249">
        <ele>102.24005</ele>
        <time>2022-02-26T09:44:33.268Z</time>
      </trkpt>
      <trkpt lat="41.70733" lon="26.24237">
        <ele>102.148586</ele>
        <time>2022-02-26T09:44:35.275Z</time>
      </trkpt>
      <trkpt lat="41.70737" lon="26.24225">
        <ele>102.005248</ele>
        <time>2022-02-26T09:44:37.304Z</time>
      </trkpt>
      <trkpt lat="41.70742" lon="26.24213">
        <ele>101.861714</ele>
        <time>2022-02-26T09:44:39.296Z</time>
      </trkpt>
      <trkpt lat="41.70745" lon="26.24201">
        <ele>101.723434</ele>
        <time>2022-02-26T09:44:41.290Z</time>
      </trkpt>
      <trkpt lat="41.70749" lon="26.24189">
        <ele>101.588663</ele>
        <time>2022-02-26T09:44:43.276Z</time>
      </trkpt>
      <trkpt lat="41.70753" lon="26.24178">
        <ele>101.453324</ele>
        <time>2022-02-26T09:44:45.279Z</time>
      </trkpt>
      <trkpt lat="41.70757" lon="26.24166">
        <ele>101.314614</ele>
        <time>2022-02-26T09:44:47.295Z</time>
      </trkpt>
      <trkpt lat="41.70761" lon="26.24154">
        <ele>101.175184</ele>
        <time>2022-02-26T09:44:49.288Z</time>
      </trkpt>
      <trkpt lat="41.70765" lon="26.24142">
        <ele>101.038063</ele>
        <time>2022-02-26T09:44:51.285Z</time>
      </trkpt>
      <trkpt lat="41.70769" lon="26.2413">
        <ele>100.898399</ele>
        <time>2022-02-26T09:44:53.259Z</time>
      </trkpt>
      <trkpt lat="41.70773" lon="26.24118">
        <ele>100.75955</ele>
        <time>2022-02-26T09:44:55.299Z</time>
      </trkpt>
      <trkpt lat="41.70777" lon="26.24106">
        <ele>100.616986</ele>
        <time>2022-02-26T09:44:57.300Z</time>
      </trkpt>
      <trkpt lat="41.70781" lon="26.24094">
        <ele>100.477159</ele>
        <time>2022-02-26T09:44:59.293Z</time>
      </trkpt>
      <trkpt lat="41.70784" lon="26.24083">
        <ele>100.343535</ele>
        <time>2022-02-26T09:45:01.289Z</time>
      </trkpt>
      <trkpt lat="41.70788" lon="26.2407">
        <ele>100.203288</ele>
        <time>2022-02-26T09:45:03.283Z</time>
      </trkpt>
      <trkpt lat="41.70792" lon="26.24059">
        <ele>100.063265</ele>
        <time>2022-02-26T09:45:05.284Z</time>
      </trkpt>
      <trkpt lat="41.70796" lon="26.24046">
        <ele>99.922458</ele>
        <time>2022-02-26T09:45:07.290Z</time>
      </trkpt>
      <trkpt lat="41.708" lon="26.24035">
        <ele>99.78361</ele>
        <time>2022-02-26T09:45:09.289Z</time>
      </trkpt>
      <trkpt lat="41.70804" lon="26.24022">
        <ele>99.660676</ele>
        <time>2022-02-26T09:45:11.275Z</time>
      </trkpt>
      <trkpt lat="41.70808" lon="26.2401">
        <ele>99.786041</ele>
        <time>2022-02-26T09:45:13.304Z</time>
      </trkpt>
      <trkpt lat="41.70812" lon="26.23998">
        <ele>99.910026</ele>
        <time>2022-02-26T09:45:15.308Z</time>
      </trkpt>
      <trkpt lat="41.70816" lon="26.23986">
        <ele>100.030402</ele>
        <time>2022-02-26T09:45:17.293Z</time>
      </trkpt>
      <trkpt lat="41.7082" lon="26.23975">
        <ele>100.150095</ele>
        <time>2022-02-26T09:45:19.280Z</time>
      </trkpt>
      <trkpt lat="41.70824" lon="26.23963">
        <ele>100.270878</ele>
        <time>2022-02-26T09:45:21.287Z</time>
      </trkpt>
      <trkpt lat="41.70828" lon="26.23951">
        <ele>100.394723</ele>
        <time>2022-02-26T09:45:23.289Z</time>
      </trkpt>
      <trkpt lat="41.70832" lon="26.23939">
        <ele>100.517334</ele>
        <time>2022-02-26T09:45:25.298Z</time>
      </trkpt>
      <trkpt lat="41.70836" lon="26.23928">
        <ele>100.640197</ele>
        <time>2022-02-26T09:45:27.279Z</time>
      </trkpt>
      <trkpt lat="41.7084" lon="26.23916">
        <ele>100.762989</ele>
        <time>2022-02-26T09:45:29.278Z</time>
      </trkpt>
      <trkpt lat="41.70844" lon="26.23905">
        <ele>100.883013</ele>
        <time>2022-02-26T09:45:31.281Z</time>
      </trkpt>
      <trkpt lat="41.70849" lon="26.23893">
        <ele>101.008297</ele>
        <time>2022-02-26T09:45:33.284Z</time>
      </trkpt>
      <trkpt lat="41.70853" lon="26.23881">
        <ele>101.133026</ele>
        <time>2022-02-26T09:45:35.294Z</time>
      </trkpt>
      <trkpt lat="41.70857" lon="26.23869">
        <ele>101.25411</ele>
        <time>2022-02-26T09:45:37.282Z</time>
      </trkpt>
      <trkpt lat="41.70861" lon="26.23858">
        <ele>101.374342</ele>
        <time>2022-02-26T09:45:39.280Z</time>
      </trkpt>
      <trkpt lat="41.70865" lon="26.23846">
        <ele>101.493431</ele>
        <time>2022-02-26T09:45:41.279Z</time>
      </trkpt>
      <trkpt lat="41.70869" lon="26.23835">
        <ele>101.615695</ele>
        <time>2022-02-26T09:45:43.285Z</time>
      </trkpt>
      <trkpt lat="41.70873" lon="26.23823">
        <ele>101.740035</ele>
        <time>2022-02-26T09:45:45.285Z</time>
      </trkpt>
      <trkpt lat="41.70877" lon="26.2381">
        <ele>101.867981</ele>
        <time>2022-02-26T09:45:47.279Z</time>
      </trkpt>
      <trkpt lat="41.70881" lon="26.23797">
        <ele>101.813014</ele>
        <time>2022-02-26T09:45:49.298Z</time>
      </trkpt>
      <trkpt lat="41.70885" lon="26.23784">
        <ele>101.623764</ele>
        <time>2022-02-26T09:45:51.341Z</time>
      </trkpt>
      <trkpt lat="41.70889" lon="26.23772">
        <ele>101.444111</ele>
        <time>2022-02-26T09:45:53.308Z</time>
      </trkpt>
      <trkpt lat="41.70892" lon="26.2376">
        <ele>101.263777</ele>
        <time>2022-02-26T09:45:55.280Z</time>
      </trkpt>
      <trkpt lat="41.70896" lon="26.23748">
        <ele>101.083805</ele>
        <time>2022-02-26T09:45:57.283Z</time>
      </trkpt>
      <trkpt lat="41.709" lon="26.23735">
        <ele>100.896299</ele>
        <time>2022-02-26T09:45:59.287Z</time>
      </trkpt>
      <trkpt lat="41.70904" lon="26.23723">
        <ele>100.715811</ele>
        <time>2022-02-26T09:46:01.299Z</time>
      </trkpt>
      <trkpt lat="41.70908" lon="26.23711">
        <ele>100.530088</ele>
        <time>2022-02-26T09:46:03.283Z</time>
      </trkpt>
      <trkpt lat="41.70912" lon="26.23698">
        <ele>100.343988</ele>
        <time>2022-02-26T09:46:05.278Z</time>
      </trkpt>
      <trkpt lat="41.70916" lon="26.23686">
        <ele>100.159721</ele>
        <time>2022-02-26T09:46:07.279Z</time>
      </trkpt>
      <trkpt lat="41.7092" lon="26.23673">
        <ele>99.974733</ele>
        <time>2022-02-26T09:46:09.278Z</time>
      </trkpt>
      <trkpt lat="41.70924" lon="26.23661">
        <ele>99.794006</ele>
        <time>2022-02-26T09:46:11.281Z</time>
      </trkpt>
      <trkpt lat="41.70928" lon="26.23649">
        <ele>99.615498</ele>
        <time>2022-02-26T09:46:13.284Z</time>
      </trkpt>
      <trkpt lat="41.70932" lon="26.23637">
        <ele>99.437791</ele>
        <time>2022-02-26T09:46:15.290Z</time>
      </trkpt>
      <trkpt lat="41.70935" lon="26.23625">
        <ele>99.250997</ele>
        <time>2022-02-26T09:46:17.293Z</time>
      </trkpt>
      <trkpt lat="41.7094" lon="26.23612">
        <ele>99.059523</ele>
        <time>2022-02-26T09:46:19.331Z</time>
      </trkpt>
      <trkpt lat="41.70944" lon="26.23599">
        <ele>98.869301</ele>
        <time>2022-02-26T09:46:21.293Z</time>
      </trkpt>
      <trkpt lat="41.70948" lon="26.23586">
        <ele>98.674581</ele>
        <time>2022-02-26T09:46:23.282Z</time>
      </trkpt>
      <trkpt lat="41.70953" lon="26.23574">
        <ele>98.460845</ele>
        <time>2022-02-26T09:46:25.282Z</time>
      </trkpt>
      <trkpt lat="41.70957" lon="26.23561">
        <ele>98.238806</ele>
        <time>2022-02-26T09:46:27.319Z</time>
      </trkpt>
      <trkpt lat="41.70961" lon="26.23549">
        <ele>98.029459</ele>
        <time>2022-02-26T09:46:29.269Z</time>
      </trkpt>
      <trkpt lat="41.70965" lon="26.23537">
        <ele>97.811829</ele>
        <time>2022-02-26T09:46:31.273Z</time>
      </trkpt>
      <trkpt lat="41.70969" lon="26.23525">
        <ele>97.584049</ele>
        <time>2022-02-26T09:46:33.271Z</time>
      </trkpt>
      <trkpt lat="41.70974" lon="26.23512">
        <ele>97.348947</ele>
        <time>2022-02-26T09:46:35.272Z</time>
      </trkpt>
      <trkpt lat="41.70979" lon="26.23499">
        <ele>97.118246</ele>
        <time>2022-02-26T09:46:37.307Z</time>
      </trkpt>
      <trkpt lat="41.70983" lon="26.23486">
        <ele>96.892344</ele>
        <time>2022-02-26T09:46:39.273Z</time>
      </trkpt>
      <trkpt lat="41.70988" lon="26.23474">
        <ele>96.65499</ele>
        <time>2022-02-26T09:46:41.332Z</time>
      </trkpt>
      <trkpt lat="41.70993" lon="26.2346">
        <ele>96.414555</ele>
        <time>2022-02-26T09:46:43.278Z</time>
      </trkpt>
      <trkpt lat="41.70998" lon="26.23446">
        <ele>96.170602</ele>
        <time>2022-02-26T09:46:45.283Z</time>
      </trkpt>
      <trkpt lat="41.71002" lon="26.23432">
        <ele>95.916863</ele>
        <time>2022-02-26T09:46:47.303Z</time>
      </trkpt>
      <trkpt lat="41.71008" lon="26.23418">
        <ele>95.658549</ele>
        <time>2022-02-26T09:46:49.291Z</time>
      </trkpt>
      <trkpt lat="41.71012" lon="26.23403">
        <ele>95.397987</ele>
        <time>2022-02-26T09:46:51.267Z</time>
      </trkpt>
      <trkpt lat="41.71018" lon="26.23388">
        <ele>95.127933</ele>
        <time>2022-02-26T09:46:53.309Z</time>
      </trkpt>
      <trkpt lat="41.71023" lon="26.23373">
        <ele>94.852545</ele>
        <time>2022-02-26T09:46:55.268Z</time>
      </trkpt>
      <trkpt lat="41.71028" lon="26.23357">
        <ele>94.715961</ele>
        <time>2022-02-26T09:46:57.298Z</time>
      </trkpt>
      <trkpt lat="41.71034" lon="26.2334">
        <ele>94.723788</ele>
        <time>2022-02-26T09:46:59.273Z</time>
      </trkpt>
      <trkpt lat="41.71039" lon="26.23323">
        <ele>94.731967</ele>
        <time>2022-02-26T09:47:01.276Z</time>
      </trkpt>
      <trkpt lat="41.71045" lon="26.23305">
        <ele>94.740418</ele>
        <time>2022-02-26T09:47:03.273Z</time>
      </trkpt>
      <trkpt lat="41.71051" lon="26.23286">
        <ele>94.74914</ele>
        <time>2022-02-26T09:47:05.320Z</time>
      </trkpt>
      <trkpt lat="41.71057" lon="26.23267">
        <ele>94.757989</ele>
        <time>2022-02-26T09:47:07.284Z</time>
      </trkpt>
      <trkpt lat="41.71064" lon="26.23249">
        <ele>94.766922</ele>
        <time>2022-02-26T09:47:09.276Z</time>
      </trkpt>
      <trkpt lat="41.71071" lon="26.2323">
        <ele>94.776034</ele>
        <time>2022-02-26T09:47:11.273Z</time>
      </trkpt>
      <trkpt lat="41.71078" lon="26.23211">
        <ele>94.785289</ele>
        <time>2022-02-26T09:47:13.273Z</time>
      </trkpt>
      <trkpt lat="41.71085" lon="26.23192">
        <ele>94.794261</ele>
        <time>2022-02-26T09:47:15.268Z</time>
      </trkpt>
      <trkpt lat="41.71093" lon="26.23173">
        <ele>94.803351</ele>
        <time>2022-02-26T09:47:17.321Z</time>
      </trkpt>
      <trkpt lat="41.71099" lon="26.23155">
        <ele>94.812117</ele>
        <time>2022-02-26T09:47:19.279Z</time>
      </trkpt>
      <trkpt lat="41.71106" lon="26.23137">
        <ele>94.810268</ele>
        <time>2022-02-26T09:47:21.320Z</time>
      </trkpt>
      <trkpt lat="41.71114" lon="26.2312">
        <ele>94.799959</ele>
        <time>2022-02-26T09:47:23.286Z</time>
      </trkpt>
      <trkpt lat="41.71121" lon="26.23103">
        <ele>94.790248</ele>
        <time>2022-02-26T09:47:25.281Z</time>
      </trkpt>
      <trkpt lat="41.71128" lon="26.23088">
        <ele>94.781051</ele>
        <time>2022-02-26T09:47:27.270Z</time>
      </trkpt>
      <trkpt lat="41.71135" lon="26.23073">
        <ele>94.772125</ele>
        <time>2022-02-26T09:47:29.279Z</time>
      </trkpt>
      <trkpt lat="41.71141" lon="26.23059">
        <ele>94.763483</ele>
        <time>2022-02-26T09:47:31.275Z</time>
      </trkpt>
      <trkpt lat="41.71147" lon="26.23045">
        <ele>94.755195</ele>
        <time>2022-02-26T09:47:33.286Z</time>
      </trkpt>
      <trkpt lat="41.71153" lon="26.23032">
        <ele>94.747524</ele>
        <time>2022-02-26T09:47:35.266Z</time>
      </trkpt>
      <trkpt lat="41.71159" lon="26.2302">
        <ele>94.740126</ele>
        <time>2022-02-26T09:47:37.280Z</time>
      </trkpt>
      <trkpt lat="41.71164" lon="26.23009">
        <ele>94.733339</ele>
        <time>2022-02-26T09:47:39.312Z</time>
      </trkpt>
      <trkpt lat="41.71168" lon="26.22998">
        <ele>94.727001</ele>
        <time>2022-02-26T09:47:41.307Z</time>
      </trkpt>
      <trkpt lat="41.71173" lon="26.22988">
        <ele>94.720796</ele>
        <time>2022-02-26T09:47:43.311Z</time>
      </trkpt>
      <trkpt lat="41.7118" lon="26.22973">
        <ele>94.711739</ele>
        <time>2022-02-26T09:47:46.275Z</time>
      </trkpt>
      <trkpt lat="41.71185" lon="26.22962">
        <ele>94.705504</ele>
        <time>2022-02-26T09:47:48.300Z</time>
      </trkpt>
      <trkpt lat="41.71192" lon="26.22948">
        <ele>94.696455</ele>
        <time>2022-02-26T09:47:51.287Z</time>
      </trkpt>
      <trkpt lat="41.71197" lon="26.22937">
        <ele>94.745158</ele>
        <time>2022-02-26T09:47:53.275Z</time>
      </trkpt>
      <trkpt lat="41.71204" lon="26.22922">
        <ele>94.971186</ele>
        <time>2022-02-26T09:47:56.293Z</time>
      </trkpt>
      <trkpt lat="41.7121" lon="26.22907">
        <ele>95.194698</ele>
        <time>2022-02-26T09:47:59.297Z</time>
      </trkpt>
      <trkpt lat="41.71217" lon="26.22892">
        <ele>95.416912</ele>
        <time>2022-02-26T09:48:02.284Z</time>
      </trkpt>
      <trkpt lat="41.71223" lon="26.22878">
        <ele>95.629229</ele>
        <time>2022-02-26T09:48:05.322Z</time>
      </trkpt>
      <trkpt lat="41.71229" lon="26.22864">
        <ele>95.834537</ele>
        <time>2022-02-26T09:48:08.279Z</time>
      </trkpt>
      <trkpt lat="41.71235" lon="26.22851">
        <ele>96.030388</ele>
        <time>2022-02-26T09:48:11.284Z</time>
      </trkpt>
      <trkpt lat="41.71241" lon="26.22838">
        <ele>96.216162</ele>
        <time>2022-02-26T09:48:14.283Z</time>
      </trkpt>
      <trkpt lat="41.71246" lon="26.22826">
        <ele>96.40003</ele>
        <time>2022-02-26T09:48:17.267Z</time>
      </trkpt>
      <trkpt lat="41.71252" lon="26.22814">
        <ele>96.581888</ele>
        <time>2022-02-26T09:48:20.280Z</time>
      </trkpt>
      <trkpt lat="41.71257" lon="26.22802">
        <ele>96.759956</ele>
        <time>2022-02-26T09:48:23.276Z</time>
      </trkpt>
      <trkpt lat="41.71262" lon="26.2279">
        <ele>96.929268</ele>
        <time>2022-02-26T09:48:26.288Z</time>
      </trkpt>
      <trkpt lat="41.71266" lon="26.22779">
        <ele>97.091903</ele>
        <time>2022-02-26T09:48:29.282Z</time>
      </trkpt>
      <trkpt lat="41.71272" lon="26.22768">
        <ele>97.25623</ele>
        <time>2022-02-26T09:48:32.279Z</time>
      </trkpt>
      <trkpt lat="41.71277" lon="26.22758">
        <ele>97.413482</ele>
        <time>2022-02-26T09:48:35.272Z</time>
      </trkpt>
      <trkpt lat="41.71281" lon="26.22747">
        <ele>97.573329</ele>
        <time>2022-02-26T09:48:38.279Z</time>
      </trkpt>
      <trkpt lat="41.71287" lon="26.22734">
        <ele>97.763033</ele>
        <time>2022-02-26T09:48:42.271Z</time>
      </trkpt>
      <trkpt lat="41.71292" lon="26.22722">
        <ele>98.639823</ele>
        <time>2022-02-26T09:48:46.264Z</time>
      </trkpt>
      <trkpt lat="41.71297" lon="26.22711">
        <ele>99.462163</ele>
        <time>2022-02-26T09:48:50.291Z</time>
      </trkpt>
      <trkpt lat="41.71303" lon="26.22697">
        <ele>100.460168</ele>
        <time>2022-02-26T09:48:55.276Z</time>
      </trkpt>
      <trkpt lat="41.71309" lon="26.22684">
        <ele>101.424878</ele>
        <time>2022-02-26T09:48:59.289Z</time>
      </trkpt>
      <trkpt lat="41.71315" lon="26.22672">
        <ele>102.359711</ele>
        <time>2022-02-26T09:49:03.334Z</time>
      </trkpt>
      <trkpt lat="41.71319" lon="26.22659">
        <ele>103.259246</ele>
        <time>2022-02-26T09:49:07.320Z</time>
      </trkpt>
      <trkpt lat="41.71324" lon="26.22646">
        <ele>104.219935</ele>
        <time>2022-02-26T09:49:11.296Z</time>
      </trkpt>
      <trkpt lat="41.71329" lon="26.22633">
        <ele>105.126952</ele>
        <time>2022-02-26T09:49:15.268Z</time>
      </trkpt>
      <trkpt lat="41.71334" lon="26.22621">
        <ele>106.013413</ele>
        <time>2022-02-26T09:49:19.276Z</time>
      </trkpt>
      <trkpt lat="41.71338" lon="26.2261">
        <ele>106.82165</ele>
        <time>2022-02-26T09:49:23.310Z</time>
      </trkpt>
      <trkpt lat="41.71343" lon="26.22599">
        <ele>107.613071</ele>
        <time>2022-02-26T09:49:27.284Z</time>
      </trkpt>
      <trkpt lat="41.71348" lon="26.22586">
        <ele>108.577371</ele>
        <time>2022-02-26T09:49:32.305Z</time>
      </trkpt>
      <trkpt lat="41.71352" lon="26.22575">
        <ele>109.360578</ele>
        <time>2022-02-26T09:49:36.295Z</time>
      </trkpt>
      <trkpt lat="41.71356" lon="26.22564">
        <ele>110.183576</ele>
        <time>2022-02-26T09:49:40.284Z</time>
      </trkpt>
      <trkpt lat="41.71361" lon="26.22552">
        <ele>110.997027</ele>
        <time>2022-02-26T09:49:44.286Z</time>
      </trkpt>
      <trkpt lat="41.71365" lon="26.22541">
        <ele>111.781917</ele>
        <time>2022-02-26T09:49:48.269Z</time>
      </trkpt>
      <trkpt lat="41.71369" lon="26.2253">
        <ele>112.562911</ele>
        <time>2022-02-26T09:49:52.291Z</time>
      </trkpt>
      <trkpt lat="41.71373" lon="26.22519">
        <ele>113.202063</ele>
        <time>2022-02-26T09:49:56.287Z</time>
      </trkpt>
      <trkpt lat="41.71377" lon="26.22507">
        <ele>113.255064</ele>
        <time>2022-02-26T09:50:00.281Z</time>
      </trkpt>
      <trkpt lat="41.71382" lon="26.22495">
        <ele>113.309904</ele>
        <time>2022-02-26T09:50:04.277Z</time>
      </trkpt>
      <trkpt lat="41.71386" lon="26.22483">
        <ele>113.364591</ele>
        <time>2022-02-26T09:50:08.289Z</time>
      </trkpt>
      <trkpt lat="41.7139" lon="26.22472">
        <ele>113.416744</ele>
        <time>2022-02-26T09:50:12.300Z</time>
      </trkpt>
      <trkpt lat="41.71394" lon="26.2246">
        <ele>113.469034</ele>
        <time>2022-02-26T09:50:16.268Z</time>
      </trkpt>
      <trkpt lat="41.71398" lon="26.22449">
        <ele>113.519752</ele>
        <time>2022-02-26T09:50:20.295Z</time>
      </trkpt>
      <trkpt lat="41.71402" lon="26.22437">
        <ele>113.574228</ele>
        <time>2022-02-26T09:50:24.268Z</time>
      </trkpt>
      <trkpt lat="41.71406" lon="26.22426">
        <ele>113.624883</ele>
        <time>2022-02-26T09:50:28.278Z</time>
      </trkpt>
      <trkpt lat="41.71409" lon="26.22414">
        <ele>113.675303</ele>
        <time>2022-02-26T09:50:32.266Z</time>
      </trkpt>
      <trkpt lat="41.71413" lon="26.22401">
        <ele>113.732521</ele>
        <time>2022-02-26T09:50:37.287Z</time>
      </trkpt>
      <trkpt lat="41.71418" lon="26.22389">
        <ele>113.787476</ele>
        <time>2022-02-26T09:50:41.290Z</time>
      </trkpt>
      <trkpt lat="41.71421" lon="26.22377">
        <ele>113.840261</ele>
        <time>2022-02-26T09:50:45.317Z</time>
      </trkpt>
      <trkpt lat="41.71425" lon="26.22365">
        <ele>113.89479</ele>
        <time>2022-02-26T09:50:49.279Z</time>
      </trkpt>
      <trkpt lat="41.71428" lon="26.22353">
        <ele>113.946955</ele>
        <time>2022-02-26T09:50:53.298Z</time>
      </trkpt>
      <trkpt lat="41.71432" lon="26.22341">
        <ele>114.000086</ele>
        <time>2022-02-26T09:50:57.306Z</time>
      </trkpt>
      <trkpt lat="41.71435" lon="26.22329">
        <ele>114.05339</ele>
        <time>2022-02-26T09:51:01.284Z</time>
      </trkpt>
      <trkpt lat="41.7144" lon="26.22316">
        <ele>114.111524</ele>
        <time>2022-02-26T09:51:05.286Z</time>
      </trkpt>
      <trkpt lat="41.71443" lon="26.22302">
        <ele>114.171333</ele>
        <time>2022-02-26T09:51:09.284Z</time>
      </trkpt>
      <trkpt lat="41.71447" lon="26.2229">
        <ele>113.651891</ele>
        <time>2022-02-26T09:51:13.280Z</time>
      </trkpt>
      <trkpt lat="41.7145" lon="26.22277">
        <ele>113.063351</ele>
        <time>2022-02-26T09:51:17.289Z</time>
      </trkpt>
      <trkpt lat="41.71454" lon="26.22264">
        <ele>112.450071</ele>
        <time>2022-02-26T09:51:21.274Z</time>
      </trkpt>
      <trkpt lat="41.71458" lon="26.2225">
        <ele>111.807921</ele>
        <time>2022-02-26T09:51:25.266Z</time>
      </trkpt>
      <trkpt lat="41.71461" lon="26.22235">
        <ele>111.12176</ele>
        <time>2022-02-26T09:51:29.260Z</time>
      </trkpt>
      <trkpt lat="41.71464" lon="26.22222">
        <ele>110.486987</ele>
        <time>2022-02-26T09:51:33.273Z</time>
      </trkpt>
      <trkpt lat="41.71468" lon="26.22208">
        <ele>109.861124</ele>
        <time>2022-02-26T09:51:37.265Z</time>
      </trkpt>
      <trkpt lat="41.71471" lon="26.22194">
        <ele>109.202362</ele>
        <time>2022-02-26T09:51:41.289Z</time>
      </trkpt>
      <trkpt lat="41.71474" lon="26.2218">
        <ele>108.558318</ele>
        <time>2022-02-26T09:51:45.301Z</time>
      </trkpt>
      <trkpt lat="41.71478" lon="26.22165">
        <ele>107.871387</ele>
        <time>2022-02-26T09:51:49.303Z</time>
      </trkpt>
      <trkpt lat="41.71481" lon="26.22153">
        <ele>107.342335</ele>
        <time>2022-02-26T09:51:52.269Z</time>
      </trkpt>
      <trkpt lat="41.71484" lon="26.22142">
        <ele>106.796623</ele>
        <time>2022-02-26T09:51:55.297Z</time>
      </trkpt>
      <trkpt lat="41.71486" lon="26.22129">
        <ele>106.213228</ele>
        <time>2022-02-26T09:51:58.312Z</time>
      </trkpt>
      <trkpt lat="41.71489" lon="26.22116">
        <ele>105.623896</ele>
        <time>2022-02-26T09:52:01.279Z</time>
      </trkpt>
      <trkpt lat="41.71493" lon="26.22103">
        <ele>105.014244</ele>
        <time>2022-02-26T09:52:04.272Z</time>
      </trkpt>
      <trkpt lat="41.71496" lon="26.2209">
        <ele>104.406385</ele>
        <time>2022-02-26T09:52:07.248Z</time>
      </trkpt>
      <trkpt lat="41.71499" lon="26.22076">
        <ele>103.796735</ele>
        <time>2022-02-26T09:52:10.260Z</time>
      </trkpt>
      <trkpt lat="41.71502" lon="26.22063">
        <ele>103.51412</ele>
        <time>2022-02-26T09:52:13.270Z</time>
      </trkpt>
      <trkpt lat="41.71506" lon="26.22049">
        <ele>103.398011</ele>
        <time>2022-02-26T09:52:16.247Z</time>
      </trkpt>
      <trkpt lat="41.71509" lon="26.22035">
        <ele>103.279624</ele>
        <time>2022-02-26T09:52:19.251Z</time>
      </trkpt>
      <trkpt lat="41.71514" lon="26.22021">
        <ele>103.153901</ele>
        <time>2022-02-26T09:52:22.275Z</time>
      </trkpt>
      <trkpt lat="41.71518" lon="26.22006">
        <ele>103.029948</ele>
        <time>2022-02-26T09:52:25.283Z</time>
      </trkpt>
      <trkpt lat="41.71522" lon="26.21991">
        <ele>102.904451</ele>
        <time>2022-02-26T09:52:28.257Z</time>
      </trkpt>
      <trkpt lat="41.71526" lon="26.21976">
        <ele>102.776329</ele>
        <time>2022-02-26T09:52:31.255Z</time>
      </trkpt>
      <trkpt lat="41.7153" lon="26.21961">
        <ele>102.64745</ele>
        <time>2022-02-26T09:52:34.262Z</time>
      </trkpt>
      <trkpt lat="41.71534" lon="26.21945">
        <ele>102.511094</ele>
        <time>2022-02-26T09:52:37.256Z</time>
      </trkpt>
      <trkpt lat="41.71539" lon="26.21929">
        <ele>102.370614</ele>
        <time>2022-02-26T09:52:40.266Z</time>
      </trkpt>
      <trkpt lat="41.71542" lon="26.21917">
        <ele>102.271418</ele>
        <time>2022-02-26T09:52:42.255Z</time>
      </trkpt>
      <trkpt lat="41.71545" lon="26.21905">
        <ele>102.169944</ele>
        <time>2022-02-26T09:52:44.253Z</time>
      </trkpt>
      <trkpt lat="41.71548" lon="26.21893">
        <ele>102.065524</ele>
        <time>2022-02-26T09:52:46.251Z</time>
      </trkpt>
      <trkpt lat="41.71551" lon="26.2188">
        <ele>101.958093</ele>
        <time>2022-02-26T09:52:48.254Z</time>
      </trkpt>
      <trkpt lat="41.71554" lon="26.21868">
        <ele>101.851282</ele>
        <time>2022-02-26T09:52:50.256Z</time>
      </trkpt>
      <trkpt lat="41.71558" lon="26.21855">
        <ele>101.741977</ele>
        <time>2022-02-26T09:52:52.271Z</time>
      </trkpt>
      <trkpt lat="41.71562" lon="26.21842">
        <ele>101.640272</ele>
        <time>2022-02-26T09:52:54.256Z</time>
      </trkpt>
      <trkpt lat="41.71565" lon="26.21828">
        <ele>101.567287</ele>
        <time>2022-02-26T09:52:56.260Z</time>
      </trkpt>
      <trkpt lat="41.71569" lon="26.21815">
        <ele>101.493185</ele>
        <time>2022-02-26T09:52:58.250Z</time>
      </trkpt>
      <trkpt lat="41.71572" lon="26.21801">
        <ele>101.416399</ele>
        <time>2022-02-26T09:53:00.273Z</time>
      </trkpt>
      <trkpt lat="41.71576" lon="26.21787">
        <ele>101.338909</ele>
        <time>2022-02-26T09:53:02.253Z</time>
      </trkpt>
      <trkpt lat="41.7158" lon="26.21772">
        <ele>101.259007</ele>
        <time>2022-02-26T09:53:04.262Z</time>
      </trkpt>
      <trkpt lat="41.71584" lon="26.21758">
        <ele>101.181044</ele>
        <time>2022-02-26T09:53:06.262Z</time>
      </trkpt>
      <trkpt lat="41.71589" lon="26.21745">
        <ele>101.105231</ele>
        <time>2022-02-26T09:53:08.260Z</time>
      </trkpt>
      <trkpt lat="41.71594" lon="26.21731">
        <ele>101.0298</ele>
        <time>2022-02-26T09:53:10.260Z</time>
      </trkpt>
      <trkpt lat="41.71597" lon="26.21717">
        <ele>100.953502</ele>
        <time>2022-02-26T09:53:12.281Z</time>
      </trkpt>
      <trkpt lat="41.71601" lon="26.21704">
        <ele>100.881064</ele>
        <time>2022-02-26T09:53:14.257Z</time>
      </trkpt>
      <trkpt lat="41.71604" lon="26.21691">
        <ele>100.812215</ele>
        <time>2022-02-26T09:53:16.255Z</time>
      </trkpt>
      <trkpt lat="41.71607" lon="26.2168">
        <ele>100.748415</ele>
        <time>2022-02-26T09:53:18.278Z</time>
      </trkpt>
      <trkpt lat="41.71609" lon="26.21668">
        <ele>100.685107</ele>
        <time>2022-02-26T09:53:20.267Z</time>
      </trkpt>
      <trkpt lat="41.71613" lon="26.21652">
        <ele>100.597454</ele>
        <time>2022-02-26T09:53:23.249Z</time>
      </trkpt>
      <trkpt lat="41.71617" lon="26.21636">
        <ele>100.511736</ele>
        <time>2022-02-26T09:53:26.265Z</time>
      </trkpt>
      <trkpt lat="41.71619" lon="26.21624">
        <ele>100.44923</ele>
        <time>2022-02-26T09:53:28.256Z</time>
      </trkpt>
      <trkpt lat="41.71622" lon="26.21607">
        <ele>100.648463</ele>
        <time>2022-02-26T09:53:31.249Z</time>
      </trkpt>
      <trkpt lat="41.71626" lon="26.2159">
        <ele>100.988039</ele>
        <time>2022-02-26T09:53:34.259Z</time>
      </trkpt>
      <trkpt lat="41.7163" lon="26.21574">
        <ele>101.329851</ele>
        <time>2022-02-26T09:53:37.254Z</time>
      </trkpt>
      <trkpt lat="41.71633" lon="26.21558">
        <ele>101.658075</ele>
        <time>2022-02-26T09:53:40.273Z</time>
      </trkpt>
      <trkpt lat="41.71636" lon="26.21541">
        <ele>101.991776</ele>
        <time>2022-02-26T09:53:43.259Z</time>
      </trkpt>
      <trkpt lat="41.71639" lon="26.21526">
        <ele>102.310863</ele>
        <time>2022-02-26T09:53:46.259Z</time>
      </trkpt>
      <trkpt lat="41.71642" lon="26.2151">
        <ele>102.631869</ele>
        <time>2022-02-26T09:53:49.248Z</time>
      </trkpt>
      <trkpt lat="41.71644" lon="26.21493">
        <ele>102.957004</ele>
        <time>2022-02-26T09:53:52.264Z</time>
      </trkpt>
      <trkpt lat="41.71647" lon="26.21478">
        <ele>103.268634</ele>
        <time>2022-02-26T09:53:55.256Z</time>
      </trkpt>
      <trkpt lat="41.71649" lon="26.21464">
        <ele>103.555252</ele>
        <time>2022-02-26T09:53:58.259Z</time>
      </trkpt>
      <trkpt lat="41.71651" lon="26.2145">
        <ele>103.8413</ele>
        <time>2022-02-26T09:54:01.250Z</time>
      </trkpt>
      <trkpt lat="41.71653" lon="26.21436">
        <ele>104.119973</ele>
        <time>2022-02-26T09:54:04.255Z</time>
      </trkpt>
      <trkpt lat="41.71655" lon="26.21422">
        <ele>104.393372</ele>
        <time>2022-02-26T09:54:07.255Z</time>
      </trkpt>
      <trkpt lat="41.71658" lon="26.21407">
        <ele>104.688253</ele>
        <time>2022-02-26T09:54:10.255Z</time>
      </trkpt>
      <trkpt lat="41.71661" lon="26.21394">
        <ele>104.964625</ele>
        <time>2022-02-26T09:54:13.255Z</time>
      </trkpt>
      <trkpt lat="41.71663" lon="26.2138">
        <ele>105.328792</ele>
        <time>2022-02-26T09:54:16.261Z</time>
      </trkpt>
      <trkpt lat="41.71666" lon="26.21367">
        <ele>105.868463</ele>
        <time>2022-02-26T09:54:19.260Z</time>
      </trkpt>
      <trkpt lat="41.71668" lon="26.21354">
        <ele>106.377864</ele>
        <time>2022-02-26T09:54:22.276Z</time>
      </trkpt>
      <trkpt lat="41.7167" lon="26.21342">
        <ele>106.868632</ele>
        <time>2022-02-26T09:54:25.257Z</time>
      </trkpt>
      <trkpt lat="41.71672" lon="26.21328">
        <ele>107.390047</ele>
        <time>2022-02-26T09:54:28.257Z</time>
      </trkpt>
      <trkpt lat="41.71673" lon="26.21315">
        <ele>107.938335</ele>
        <time>2022-02-26T09:54:31.266Z</time>
      </trkpt>
      <trkpt lat="41.71675" lon="26.21301">
        <ele>108.459264</ele>
        <time>2022-02-26T09:54:34.253Z</time>
      </trkpt>
      <trkpt lat="41.71676" lon="26.21288">
        <ele>108.991106</ele>
        <time>2022-02-26T09:54:37.247Z</time>
      </trkpt>
      <trkpt lat="41.71678" lon="26.21276">
        <ele>109.479859</ele>
        <time>2022-02-26T09:54:40.254Z</time>
      </trkpt>
      <trkpt lat="41.71679" lon="26.21263">
        <ele>109.968406</ele>
        <time>2022-02-26T09:54:43.251Z</time>
      </trkpt>
      <trkpt lat="41.7168" lon="26.21249">
        <ele>110.524172</ele>
        <time>2022-02-26T09:54:47.256Z</time>
      </trkpt>
      <trkpt lat="41.71682" lon="26.21235">
        <ele>111.09752</ele>
        <time>2022-02-26T09:54:51.252Z</time>
      </trkpt>
      <trkpt lat="41.71683" lon="26.21222">
        <ele>111.588715</ele>
        <time>2022-02-26T09:54:54.255Z</time>
      </trkpt>
      <trkpt lat="41.71683" lon="26.2121">
        <ele>112.078122</ele>
        <time>2022-02-26T09:54:57.253Z</time>
      </trkpt>
      <trkpt lat="41.71684" lon="26.21198">
        <ele>112.550506</ele>
        <time>2022-02-26T09:55:00.256Z</time>
      </trkpt>
      <trkpt lat="41.71685" lon="26.21182">
        <ele>113.177057</ele>
        <time>2022-02-26T09:55:04.259Z</time>
      </trkpt>
      <trkpt lat="41.71686" lon="26.21169">
        <ele>113.652715</ele>
        <time>2022-02-26T09:55:07.258Z</time>
      </trkpt>
      <trkpt lat="41.71686" lon="26.21154">
        <ele>114.270405</ele>
        <time>2022-02-26T09:55:11.261Z</time>
      </trkpt>
      <trkpt lat="41.71688" lon="26.21138">
        <ele>114.732881</ele>
        <time>2022-02-26T09:55:15.261Z</time>
      </trkpt>
      <trkpt lat="41.71689" lon="26.21123">
        <ele>115.055132</ele>
        <time>2022-02-26T09:55:19.260Z</time>
      </trkpt>
      <trkpt lat="41.71689" lon="26.21107">
        <ele>115.371045</ele>
        <time>2022-02-26T09:55:23.276Z</time>
      </trkpt>
      <trkpt lat="41.7169" lon="26.21095">
        <ele>115.618747</ele>
        <time>2022-02-26T09:55:26.248Z</time>
      </trkpt>
      <trkpt lat="41.71691" lon="26.2108">
        <ele>115.932237</ele>
        <time>2022-02-26T09:55:30.256Z</time>
      </trkpt>
      <trkpt lat="41.71692" lon="26.21065">
        <ele>116.240482</ele>
        <time>2022-02-26T09:55:34.256Z</time>
      </trkpt>
      <trkpt lat="41.71693" lon="26.21049">
        <ele>116.556395</ele>
        <time>2022-02-26T09:55:38.254Z</time>
      </trkpt>
      <trkpt lat="41.71693" lon="26.21034">
        <ele>116.879941</ele>
        <time>2022-02-26T09:55:42.260Z</time>
      </trkpt>
      <trkpt lat="41.71693" lon="26.21021">
        <ele>117.133595</ele>
        <time>2022-02-26T09:55:45.257Z</time>
      </trkpt>
      <trkpt lat="41.71694" lon="26.21006">
        <ele>117.451346</ele>
        <time>2022-02-26T09:55:49.259Z</time>
      </trkpt>
      <trkpt lat="41.71695" lon="26.20993">
        <ele>117.709264</ele>
        <time>2022-02-26T09:55:52.263Z</time>
      </trkpt>
      <trkpt lat="41.71695" lon="26.20979">
        <ele>118.003965</ele>
        <time>2022-02-26T09:55:56.254Z</time>
      </trkpt>
      <trkpt lat="41.71696" lon="26.20964">
        <ele>118.294836</ele>
        <time>2022-02-26T09:56:00.257Z</time>
      </trkpt>
      <trkpt lat="41.71696" lon="26.20951">
        <ele>118.569224</ele>
        <time>2022-02-26T09:56:04.257Z</time>
      </trkpt>
      <trkpt lat="41.71697" lon="26.20937">
        <ele>118.849888</ele>
        <time>2022-02-26T09:56:08.260Z</time>
      </trkpt>
      <trkpt lat="41.71697" lon="26.20924">
        <ele>119.12277</ele>
        <time>2022-02-26T09:56:12.271Z</time>
      </trkpt>
      <trkpt lat="41.71698" lon="26.20911">
        <ele>119.393406</ele>
        <time>2022-02-26T09:56:16.256Z</time>
      </trkpt>
      <trkpt lat="41.71699" lon="26.20898">
        <ele>119.584402</ele>
        <time>2022-02-26T09:56:20.283Z</time>
      </trkpt>
      <trkpt lat="41.71699" lon="26.20884">
        <ele>119.72028</ele>
        <time>2022-02-26T09:56:24.259Z</time>
      </trkpt>
      <trkpt lat="41.717" lon="26.20871">
        <ele>119.85445</ele>
        <time>2022-02-26T09:56:28.256Z</time>
      </trkpt>
      <trkpt lat="41.717" lon="26.20857">
        <ele>119.997499</ele>
        <time>2022-02-26T09:56:32.270Z</time>
      </trkpt>
      <trkpt lat="41.71701" lon="26.20844">
        <ele>120.136865</ele>
        <time>2022-02-26T09:56:36.279Z</time>
      </trkpt>
      <trkpt lat="41.71701" lon="26.2083">
        <ele>120.278892</ele>
        <time>2022-02-26T09:56:40.256Z</time>
      </trkpt>
      <trkpt lat="41.71701" lon="26.20817">
        <ele>120.410677</ele>
        <time>2022-02-26T09:56:44.251Z</time>
      </trkpt>
      <trkpt lat="41.71701" lon="26.20804">
        <ele>120.540534</ele>
        <time>2022-02-26T09:56:48.284Z</time>
      </trkpt>
      <trkpt lat="41.71701" lon="26.20792">
        <ele>120.667218</ele>
        <time>2022-02-26T09:56:52.252Z</time>
      </trkpt>
      <trkpt lat="41.71702" lon="26.20779">
        <ele>120.799067</ele>
        <time>2022-02-26T09:56:56.264Z</time>
      </trkpt>
      <trkpt lat="41.71702" lon="26.20765">
        <ele>120.935967</ele>
        <time>2022-02-26T09:57:00.246Z</time>
      </trkpt>
      <trkpt lat="41.71702" lon="26.20752">
        <ele>121.070927</ele>
        <time>2022-02-26T09:57:04.260Z</time>
      </trkpt>
      <trkpt lat="41.71703" lon="26.20739">
        <ele>121.202968</ele>
        <time>2022-02-26T09:57:08.260Z</time>
      </trkpt>
      <trkpt lat="41.71703" lon="26.20726">
        <ele>121.343973</ele>
        <time>2022-02-26T09:57:12.259Z</time>
      </trkpt>
      <trkpt lat="41.71702" lon="26.20712">
        <ele>121.483937</ele>
        <time>2022-02-26T09:57:16.279Z</time>
      </trkpt>
      <trkpt lat="41.71702" lon="26.20698">
        <ele>121.621852</ele>
        <time>2022-02-26T09:57:20.265Z</time>
      </trkpt>
      <trkpt lat="41.71702" lon="26.20686">
        <ele>121.748536</ele>
        <time>2022-02-26T09:57:24.250Z</time>
      </trkpt>
      <trkpt lat="41.71703" lon="26.20673">
        <ele>121.877285</ele>
        <time>2022-02-26T09:57:28.254Z</time>
      </trkpt>
      <trkpt lat="41.71703" lon="26.20661">
        <ele>121.997522</ele>
        <time>2022-02-26T09:57:32.246Z</time>
      </trkpt>
      <trkpt lat="41.71703" lon="26.20649">
        <ele>122.102443</ele>
        <time>2022-02-26T09:57:36.264Z</time>
      </trkpt>
      <trkpt lat="41.71703" lon="26.20636">
        <ele>122.205773</ele>
        <time>2022-02-26T09:57:40.262Z</time>
      </trkpt>
      <trkpt lat="41.71704" lon="26.20624">
        <ele>122.309253</ele>
        <time>2022-02-26T09:57:44.259Z</time>
      </trkpt>
      <trkpt lat="41.71705" lon="26.20612">
        <ele>122.414613</ele>
        <time>2022-02-26T09:57:48.259Z</time>
      </trkpt>
      <trkpt lat="41.71706" lon="26.20599">
        <ele>122.522232</ele>
        <time>2022-02-26T09:57:52.251Z</time>
      </trkpt>
      <trkpt lat="41.71706" lon="26.20586">
        <ele>122.63676</ele>
        <time>2022-02-26T09:57:56.252Z</time>
      </trkpt>
      <trkpt lat="41.71707" lon="26.20572">
        <ele>122.752331</ele>
        <time>2022-02-26T09:58:00.259Z</time>
      </trkpt>
      <trkpt lat="41.71708" lon="26.20559">
        <ele>122.862645</ele>
        <time>2022-02-26T09:58:04.255Z</time>
      </trkpt>
      <trkpt lat="41.71709" lon="26.20547">
        <ele>122.964759</ele>
        <time>2022-02-26T09:58:08.254Z</time>
      </trkpt>
      <trkpt lat="41.7171" lon="26.20532">
        <ele>123.08865</ele>
        <time>2022-02-26T09:58:13.249Z</time>
      </trkpt>
      <trkpt lat="41.71711" lon="26.2052">
        <ele>123.195383</ele>
        <time>2022-02-26T09:58:17.258Z</time>
      </trkpt>
      <trkpt lat="41.71713" lon="26.20505">
        <ele>123.320708</ele>
        <time>2022-02-26T09:58:21.257Z</time>
      </trkpt>
      <trkpt lat="41.71714" lon="26.20491">
        <ele>123.437121</ele>
        <time>2022-02-26T09:58:25.248Z</time>
      </trkpt>
      <trkpt lat="41.71715" lon="26.20478">
        <ele>123.550806</ele>
        <time>2022-02-26T09:58:29.278Z</time>
      </trkpt>
      <trkpt lat="41.71715" lon="26.20465">
        <ele>123.659954</ele>
        <time>2022-02-26T09:58:33.252Z</time>
      </trkpt>
      <trkpt lat="41.71715" lon="26.20452">
        <ele>123.774123</ele>
        <time>2022-02-26T09:58:37.258Z</time>
      </trkpt>
      <trkpt lat="41.71714" lon="26.20438">
        <ele>123.888432</ele>
        <time>2022-02-26T09:58:41.256Z</time>
      </trkpt>
      <trkpt lat="41.71714" lon="26.20424">
        <ele>123.992764</ele>
        <time>2022-02-26T09:58:45.250Z</time>
      </trkpt>
      <trkpt lat="41.71713" lon="26.2041">
        <ele>123.485047</ele>
        <time>2022-02-26T09:58:49.251Z</time>
      </trkpt>
      <trkpt lat="41.71713" lon="26.20394">
        <ele>122.928409</ele>
        <time>2022-02-26T09:58:53.256Z</time>
      </trkpt>
      <trkpt lat="41.71712" lon="26.20381">
        <ele>122.473097</ele>
        <time>2022-02-26T09:58:56.247Z</time>
      </trkpt>
      <trkpt lat="41.71712" lon="26.20368">
        <ele>122.03565</ele>
        <time>2022-02-26T09:58:59.248Z</time>
      </trkpt>
      <trkpt lat="41.71712" lon="26.20355">
        <ele>121.579759</ele>
        <time>2022-02-26T09:59:02.256Z</time>
      </trkpt>
      <trkpt lat="41.71712" lon="26.20341">
        <ele>121.09005</ele>
        <time>2022-02-26T09:59:05.259Z</time>
      </trkpt>
      <trkpt lat="41.71712" lon="26.20327">
        <ele>120.575793</ele>
        <time>2022-02-26T09:59:08.259Z</time>
      </trkpt>
      <trkpt lat="41.71713" lon="26.2031">
        <ele>119.998187</ele>
        <time>2022-02-26T09:59:11.258Z</time>
      </trkpt>
      <trkpt lat="41.71713" lon="26.20293">
        <ele>119.413591</ele>
        <time>2022-02-26T09:59:14.280Z</time>
      </trkpt>
      <trkpt lat="41.71714" lon="26.20277">
        <ele>118.832659</ele>
        <time>2022-02-26T09:59:17.252Z</time>
      </trkpt>
      <trkpt lat="41.71714" lon="26.20259">
        <ele>118.195911</ele>
        <time>2022-02-26T09:59:20.255Z</time>
      </trkpt>
      <trkpt lat="41.71714" lon="26.20245">
        <ele>117.737321</ele>
        <time>2022-02-26T09:59:22.259Z</time>
      </trkpt>
      <trkpt lat="41.71714" lon="26.20232">
        <ele>117.258105</ele>
        <time>2022-02-26T09:59:24.252Z</time>
      </trkpt>
      <trkpt lat="41.71714" lon="26.20218">
        <ele>116.768395</ele>
        <time>2022-02-26T09:59:26.252Z</time>
      </trkpt>
      <trkpt lat="41.71715" lon="26.20203">
        <ele>116.257378</ele>
        <time>2022-02-26T09:59:28.259Z</time>
      </trkpt>
      <trkpt lat="41.71715" lon="26.20188">
        <ele>115.729133</ele>
        <time>2022-02-26T09:59:30.273Z</time>
      </trkpt>
      <trkpt lat="41.71715" lon="26.20172">
        <ele>115.107089</ele>
        <time>2022-02-26T09:59:32.251Z</time>
      </trkpt>
      <trkpt lat="41.71715" lon="26.20154">
        <ele>114.441754</ele>
        <time>2022-02-26T09:59:34.262Z</time>
      </trkpt>
      <trkpt lat="41.71715" lon="26.20137">
        <ele>113.753209</ele>
        <time>2022-02-26T09:59:36.285Z</time>
      </trkpt>
      <trkpt lat="41.71715" lon="26.20119">
        <ele>113.080137</ele>
        <time>2022-02-26T09:59:38.272Z</time>
      </trkpt>
      <trkpt lat="41.71715" lon="26.20101">
        <ele>112.383547</ele>
        <time>2022-02-26T09:59:40.250Z</time>
      </trkpt>
      <trkpt lat="41.71716" lon="26.20083">
        <ele>111.667625</ele>
        <time>2022-02-26T09:59:42.263Z</time>
      </trkpt>
      <trkpt lat="41.71716" lon="26.20063">
        <ele>110.92404</ele>
        <time>2022-02-26T09:59:44.249Z</time>
      </trkpt>
      <trkpt lat="41.71717" lon="26.20045">
        <ele>110.206544</ele>
        <time>2022-02-26T09:59:46.248Z</time>
      </trkpt>
      <trkpt lat="41.71718" lon="26.20027">
        <ele>109.501307</ele>
        <time>2022-02-26T09:59:48.249Z</time>
      </trkpt>
      <trkpt lat="41.71719" lon="26.20008">
        <ele>108.776095</ele>
        <time>2022-02-26T09:59:50.260Z</time>
      </trkpt>
      <trkpt lat="41.7172" lon="26.19988">
        <ele>107.992996</ele>
        <time>2022-02-26T09:59:52.250Z</time>
      </trkpt>
      <trkpt lat="41.71721" lon="26.19967">
        <ele>107.186389</ele>
        <time>2022-02-26T09:59:54.256Z</time>
      </trkpt>
      <trkpt lat="41.71722" lon="26.19946">
        <ele>106.360829</ele>
        <time>2022-02-26T09:59:56.246Z</time>
      </trkpt>
      <trkpt lat="41.71723" lon="26.19923">
        <ele>106.112219</ele>
        <time>2022-02-26T09:59:58.289Z</time>
      </trkpt>
      <trkpt lat="41.71724" lon="26.19901">
        <ele>105.946932</ele>
        <time>2022-02-26T10:00:00.258Z</time>
      </trkpt>
      <trkpt lat="41.71725" lon="26.19878">
        <ele>105.785134</ele>
        <time>2022-02-26T10:00:02.271Z</time>
      </trkpt>
      <trkpt lat="41.71726" lon="26.19855">
        <ele>105.618942</ele>
        <time>2022-02-26T10:00:04.246Z</time>
      </trkpt>
      <trkpt lat="41.71727" lon="26.19832">
        <ele>105.446774</ele>
        <time>2022-02-26T10:00:06.263Z</time>
      </trkpt>
      <trkpt lat="41.71728" lon="26.19819">
        <ele>105.356602</ele>
        <time>2022-02-26T10:00:07.264Z</time>
      </trkpt>
      <trkpt lat="41.71729" lon="26.19807">
        <ele>105.267062</ele>
        <time>2022-02-26T10:00:08.326Z</time>
      </trkpt>
      <trkpt lat="41.71729" lon="26.19795">
        <ele>105.177037</ele>
        <time>2022-02-26T10:00:09.278Z</time>
      </trkpt>
      <trkpt lat="41.7173" lon="26.19782">
        <ele>105.086865</ele>
        <time>2022-02-26T10:00:10.258Z</time>
      </trkpt>
      <trkpt lat="41.71731" lon="26.19769">
        <ele>104.994604</ele>
        <time>2022-02-26T10:00:11.262Z</time>
      </trkpt>
      <trkpt lat="41.71732" lon="26.19757">
        <ele>104.905233</ele>
        <time>2022-02-26T10:00:12.307Z</time>
      </trkpt>
      <trkpt lat="41.71732" lon="26.19745">
        <ele>104.816504</ele>
        <time>2022-02-26T10:00:13.311Z</time>
      </trkpt>
      <trkpt lat="41.71733" lon="26.19732">
        <ele>104.725689</ele>
        <time>2022-02-26T10:00:14.319Z</time>
      </trkpt>
      <trkpt lat="41.71734" lon="26.1972">
        <ele>104.634217</ele>
        <time>2022-02-26T10:00:15.288Z</time>
      </trkpt>
      <trkpt lat="41.71734" lon="26.19707">
        <ele>104.5413</ele>
        <time>2022-02-26T10:00:16.325Z</time>
      </trkpt>
      <trkpt lat="41.71735" lon="26.19695">
        <ele>104.193494</ele>
        <time>2022-02-26T10:00:17.270Z</time>
      </trkpt>
      <trkpt lat="41.71735" lon="26.19682">
        <ele>103.697787</ele>
        <time>2022-02-26T10:00:18.261Z</time>
      </trkpt>
      <trkpt lat="41.71736" lon="26.1967">
        <ele>103.209474</ele>
        <time>2022-02-26T10:00:19.270Z</time>
      </trkpt>
      <trkpt lat="41.71737" lon="26.19658">
        <ele>102.709204</ele>
        <time>2022-02-26T10:00:20.269Z</time>
      </trkpt>
      <trkpt lat="41.71737" lon="26.19645">
        <ele>102.221477</ele>
        <time>2022-02-26T10:00:21.267Z</time>
      </trkpt>
      <trkpt lat="41.71737" lon="26.19633">
        <ele>101.733487</ele>
        <time>2022-02-26T10:00:22.292Z</time>
      </trkpt>
      <trkpt lat="41.71738" lon="26.19609">
        <ele>100.758606</ele>
        <time>2022-02-26T10:00:24.277Z</time>
      </trkpt>
      <trkpt lat="41.71738" lon="26.19596">
        <ele>100.263333</ele>
        <time>2022-02-26T10:00:25.258Z</time>
      </trkpt>
      <trkpt lat="41.71739" lon="26.19584">
        <ele>99.763378</ele>
        <time>2022-02-26T10:00:26.260Z</time>
      </trkpt>
      <trkpt lat="41.71739" lon="26.19572">
        <ele>99.267874</ele>
        <time>2022-02-26T10:00:27.267Z</time>
      </trkpt>
      <trkpt lat="41.71739" lon="26.19559">
        <ele>98.768521</ele>
        <time>2022-02-26T10:00:28.253Z</time>
      </trkpt>
      <trkpt lat="41.71739" lon="26.19547">
        <ele>98.273017</ele>
        <time>2022-02-26T10:00:29.269Z</time>
      </trkpt>
      <trkpt lat="41.7174" lon="26.19534">
        <ele>97.773664</ele>
        <time>2022-02-26T10:00:30.294Z</time>
      </trkpt>
      <trkpt lat="41.7174" lon="26.19521">
        <ele>97.246224</ele>
        <time>2022-02-26T10:00:31.333Z</time>
      </trkpt>
      <trkpt lat="41.7174" lon="26.19508">
        <ele>96.742878</ele>
        <time>2022-02-26T10:00:32.320Z</time>
      </trkpt>
      <trkpt lat="41.7174" lon="26.19496">
        <ele>96.243525</ele>
        <time>2022-02-26T10:00:33.293Z</time>
      </trkpt>
      <trkpt lat="41.71741" lon="26.19472">
        <ele>95.296426</ele>
        <time>2022-02-26T10:00:35.265Z</time>
      </trkpt>
      <trkpt lat="41.71741" lon="26.19448">
        <ele>94.487433</ele>
        <time>2022-02-26T10:00:37.272Z</time>
      </trkpt>
      <trkpt lat="41.71742" lon="26.19425">
        <ele>93.805509</ele>
        <time>2022-02-26T10:00:39.359Z</time>
      </trkpt>
      <trkpt lat="41.71742" lon="26.19401">
        <ele>93.126484</ele>
        <time>2022-02-26T10:00:41.307Z</time>
      </trkpt>
      <trkpt lat="41.71742" lon="26.19378">
        <ele>92.45633</ele>
        <time>2022-02-26T10:00:43.262Z</time>
      </trkpt>
      <trkpt lat="41.71743" lon="26.19355">
        <ele>91.791887</ele>
        <time>2022-02-26T10:00:45.269Z</time>
      </trkpt>
      <trkpt lat="41.71743" lon="26.19333">
        <ele>91.141633</ele>
        <time>2022-02-26T10:00:47.286Z</time>
      </trkpt>
      <trkpt lat="41.71743" lon="26.19311">
        <ele>90.506195</ele>
        <time>2022-02-26T10:00:49.294Z</time>
      </trkpt>
      <trkpt lat="41.71744" lon="26.1929">
        <ele>89.893469</ele>
        <time>2022-02-26T10:00:51.304Z</time>
      </trkpt>
      <trkpt lat="41.71745" lon="26.19269">
        <ele>89.30038</ele>
        <time>2022-02-26T10:00:53.284Z</time>
      </trkpt>
      <trkpt lat="41.71746" lon="26.1925">
        <ele>88.725328</ele>
        <time>2022-02-26T10:00:55.252Z</time>
      </trkpt>
      <trkpt lat="41.71746" lon="26.1923">
        <ele>88.162041</ele>
        <time>2022-02-26T10:00:57.259Z</time>
      </trkpt>
      <trkpt lat="41.71747" lon="26.19212">
        <ele>87.988227</ele>
        <time>2022-02-26T10:00:59.251Z</time>
      </trkpt>
      <trkpt lat="41.71747" lon="26.19195">
        <ele>88.163525</ele>
        <time>2022-02-26T10:01:01.263Z</time>
      </trkpt>
      <trkpt lat="41.71748" lon="26.1918">
        <ele>88.322492</ele>
        <time>2022-02-26T10:01:03.296Z</time>
      </trkpt>
      <trkpt lat="41.71749" lon="26.19165">
        <ele>88.478356</ele>
        <time>2022-02-26T10:01:05.275Z</time>
      </trkpt>
      <trkpt lat="41.7175" lon="26.1915">
        <ele>88.629908</ele>
        <time>2022-02-26T10:01:07.264Z</time>
      </trkpt>
      <trkpt lat="41.7175" lon="26.19136">
        <ele>88.77939</ele>
        <time>2022-02-26T10:01:09.260Z</time>
      </trkpt>
      <trkpt lat="41.71751" lon="26.19122">
        <ele>88.920593</ele>
        <time>2022-02-26T10:01:11.264Z</time>
      </trkpt>
      <trkpt lat="41.71751" lon="26.19109">
        <ele>89.057518</ele>
        <time>2022-02-26T10:01:13.309Z</time>
      </trkpt>
      <trkpt lat="41.71752" lon="26.19096">
        <ele>89.188583</ele>
        <time>2022-02-26T10:01:15.322Z</time>
      </trkpt>
      <trkpt lat="41.71753" lon="26.19084">
        <ele>89.319442</ele>
        <time>2022-02-26T10:01:17.271Z</time>
      </trkpt>
      <trkpt lat="41.71753" lon="26.19072">
        <ele>89.447197</ele>
        <time>2022-02-26T10:01:19.301Z</time>
      </trkpt>
      <trkpt lat="41.71754" lon="26.1906">
        <ele>89.571951</ele>
        <time>2022-02-26T10:01:21.283Z</time>
      </trkpt>
      <trkpt lat="41.71755" lon="26.19042">
        <ele>89.751601</ele>
        <time>2022-02-26T10:01:24.335Z</time>
      </trkpt>
      <trkpt lat="41.71756" lon="26.19026">
        <ele>89.924011</ele>
        <time>2022-02-26T10:01:27.296Z</time>
      </trkpt>
      <trkpt lat="41.71756" lon="26.19009">
        <ele>90.094448</ele>
        <time>2022-02-26T10:01:30.277Z</time>
      </trkpt>
      <trkpt lat="41.71757" lon="26.18993">
        <ele>90.26049</ele>
        <time>2022-02-26T10:01:33.255Z</time>
      </trkpt>
      <trkpt lat="41.71758" lon="26.18977">
        <ele>90.4238</ele>
        <time>2022-02-26T10:01:36.275Z</time>
      </trkpt>
      <trkpt lat="41.71759" lon="26.1896">
        <ele>90.565194</ele>
        <time>2022-02-26T10:01:39.287Z</time>
      </trkpt>
      <trkpt lat="41.7176" lon="26.18943">
        <ele>90.702653</ele>
        <time>2022-02-26T10:01:42.267Z</time>
      </trkpt>
      <trkpt lat="41.71761" lon="26.18926">
        <ele>90.83921</ele>
        <time>2022-02-26T10:01:45.275Z</time>
      </trkpt>
      <trkpt lat="41.71761" lon="26.1891">
        <ele>90.973879</ele>
        <time>2022-02-26T10:01:48.280Z</time>
      </trkpt>
      <trkpt lat="41.71762" lon="26.18894">
        <ele>91.107249</ele>
        <time>2022-02-26T10:01:51.278Z</time>
      </trkpt>
      <trkpt lat="41.71763" lon="26.18877">
        <ele>91.244426</ele>
        <time>2022-02-26T10:01:54.280Z</time>
      </trkpt>
      <trkpt lat="41.71763" lon="26.1886">
        <ele>91.381555</ele>
        <time>2022-02-26T10:01:57.267Z</time>
      </trkpt>
      <trkpt lat="41.71764" lon="26.18845">
        <ele>91.504866</ele>
        <time>2022-02-26T10:02:00.269Z</time>
      </trkpt>
      <trkpt lat="41.71765" lon="26.1883">
        <ele>91.633909</ele>
        <time>2022-02-26T10:02:03.280Z</time>
      </trkpt>
      <trkpt lat="41.71766" lon="26.18813">
        <ele>91.770391</ele>
        <time>2022-02-26T10:02:06.248Z</time>
      </trkpt>
      <trkpt lat="41.71767" lon="26.18796">
        <ele>91.908398</ele>
        <time>2022-02-26T10:02:09.288Z</time>
      </trkpt>
      <trkpt lat="41.71769" lon="26.18779">
        <ele>92.048849</ele>
        <time>2022-02-26T10:02:12.293Z</time>
      </trkpt>
      <trkpt lat="41.7177" lon="26.18763">
        <ele>92.180483</ele>
        <time>2022-02-26T10:02:15.275Z</time>
      </trkpt>
      <trkpt lat="41.71772" lon="26.18749">
        <ele>92.30108</ele>
        <time>2022-02-26T10:02:18.290Z</time>
      </trkpt>
      <trkpt lat="41.71774" lon="26.18734">
        <ele>92.370343</ele>
        <time>2022-02-26T10:02:21.270Z</time>
      </trkpt>
      <trkpt lat="41.71777" lon="26.18718">
        <ele>92.372327</ele>
        <time>2022-02-26T10:02:24.289Z</time>
      </trkpt>
      <trkpt lat="41.71781" lon="26.18703">
        <ele>92.37428</ele>
        <time>2022-02-26T10:02:27.287Z</time>
      </trkpt>
      <trkpt lat="41.71784" lon="26.18687">
        <ele>92.376294</ele>
        <time>2022-02-26T10:02:30.267Z</time>
      </trkpt>
      <trkpt lat="41.71788" lon="26.18672">
        <ele>92.378348</ele>
        <time>2022-02-26T10:02:33.271Z</time>
      </trkpt>
      <trkpt lat="41.71793" lon="26.18657">
        <ele>92.380377</ele>
        <time>2022-02-26T10:02:36.264Z</time>
      </trkpt>
      <trkpt lat="41.71798" lon="26.18641">
        <ele>92.382457</ele>
        <time>2022-02-26T10:02:39.296Z</time>
      </trkpt>
      <trkpt lat="41.71803" lon="26.18626">
        <ele>92.384535</ele>
        <time>2022-02-26T10:02:42.261Z</time>
      </trkpt>
      <trkpt lat="41.71808" lon="26.18612">
        <ele>92.386495</ele>
        <time>2022-02-26T10:02:45.281Z</time>
      </trkpt>
      <trkpt lat="41.71814" lon="26.18598">
        <ele>92.38842</ele>
        <time>2022-02-26T10:02:48.270Z</time>
      </trkpt>
      <trkpt lat="41.7182" lon="26.18584">
        <ele>92.390438</ele>
        <time>2022-02-26T10:02:51.279Z</time>
      </trkpt>
      <trkpt lat="41.71827" lon="26.18571">
        <ele>92.392483</ele>
        <time>2022-02-26T10:02:54.272Z</time>
      </trkpt>
      <trkpt lat="41.71834" lon="26.18558">
        <ele>92.394453</ele>
        <time>2022-02-26T10:02:57.337Z</time>
      </trkpt>
      <trkpt lat="41.71841" lon="26.18545">
        <ele>92.396393</ele>
        <time>2022-02-26T10:03:00.267Z</time>
      </trkpt>
      <trkpt lat="41.71848" lon="26.18533">
        <ele>92.398324</ele>
        <time>2022-02-26T10:03:03.268Z</time>
      </trkpt>
      <trkpt lat="41.71856" lon="26.18522">
        <ele>92.500254</ele>
        <time>2022-02-26T10:03:06.268Z</time>
      </trkpt>
      <trkpt lat="41.71864" lon="26.1851">
        <ele>92.718207</ele>
        <time>2022-02-26T10:03:09.283Z</time>
      </trkpt>
      <trkpt lat="41.71872" lon="26.18498">
        <ele>92.935655</ele>
        <time>2022-02-26T10:03:12.277Z</time>
      </trkpt>
      <trkpt lat="41.71881" lon="26.18486">
        <ele>93.16438</ele>
        <time>2022-02-26T10:03:15.323Z</time>
      </trkpt>
      <trkpt lat="41.7189" lon="26.18474">
        <ele>93.406984</ele>
        <time>2022-02-26T10:03:18.284Z</time>
      </trkpt>
      <trkpt lat="41.71896" lon="26.18465">
        <ele>93.571735</ele>
        <time>2022-02-26T10:03:20.314Z</time>
      </trkpt>
      <trkpt lat="41.71906" lon="26.18453">
        <ele>93.816952</ele>
        <time>2022-02-26T10:03:23.281Z</time>
      </trkpt>
      <trkpt lat="41.71915" lon="26.18442">
        <ele>94.037963</ele>
        <time>2022-02-26T10:03:26.267Z</time>
      </trkpt>
      <trkpt lat="41.71923" lon="26.18431">
        <ele>94.24471</ele>
        <time>2022-02-26T10:03:29.287Z</time>
      </trkpt>
      <trkpt lat="41.71931" lon="26.18419">
        <ele>94.464704</ele>
        <time>2022-02-26T10:03:32.275Z</time>
      </trkpt>
      <trkpt lat="41.71939" lon="26.18408">
        <ele>94.67823</ele>
        <time>2022-02-26T10:03:35.275Z</time>
      </trkpt>
      <trkpt lat="41.71948" lon="26.18396">
        <ele>94.904417</ele>
        <time>2022-02-26T10:03:38.289Z</time>
      </trkpt>
      <trkpt lat="41.71957" lon="26.18384">
        <ele>95.133777</ele>
        <time>2022-02-26T10:03:41.268Z</time>
      </trkpt>
      <trkpt lat="41.71965" lon="26.18373">
        <ele>95.35672</ele>
        <time>2022-02-26T10:03:44.286Z</time>
      </trkpt>
      <trkpt lat="41.71974" lon="26.18361">
        <ele>95.579291</ele>
        <time>2022-02-26T10:03:47.279Z</time>
      </trkpt>
      <trkpt lat="41.71982" lon="26.18349">
        <ele>95.765611</ele>
        <time>2022-02-26T10:03:50.270Z</time>
      </trkpt>
      <trkpt lat="41.71991" lon="26.18336">
        <ele>95.908041</ele>
        <time>2022-02-26T10:03:53.326Z</time>
      </trkpt>
      <trkpt lat="41.72" lon="26.18324">
        <ele>96.053605</ele>
        <time>2022-02-26T10:03:56.273Z</time>
      </trkpt>
      <trkpt lat="41.72009" lon="26.18311">
        <ele>96.201157</ele>
        <time>2022-02-26T10:03:59.322Z</time>
      </trkpt>
      <trkpt lat="41.72018" lon="26.183">
        <ele>96.338783</ele>
        <time>2022-02-26T10:04:02.301Z</time>
      </trkpt>
      <trkpt lat="41.72026" lon="26.18288">
        <ele>96.478005</ele>
        <time>2022-02-26T10:04:05.316Z</time>
      </trkpt>
      <trkpt lat="41.72035" lon="26.18276">
        <ele>96.616625</ele>
        <time>2022-02-26T10:04:08.301Z</time>
      </trkpt>
      <trkpt lat="41.72043" lon="26.18265">
        <ele>96.746922</ele>
        <time>2022-02-26T10:04:11.291Z</time>
      </trkpt>
      <trkpt lat="41.72051" lon="26.18254">
        <ele>96.877828</ele>
        <time>2022-02-26T10:04:14.282Z</time>
      </trkpt>
      <trkpt lat="41.72059" lon="26.18242">
        <ele>97.014109</ele>
        <time>2022-02-26T10:04:17.293Z</time>
      </trkpt>
      <trkpt lat="41.72068" lon="26.1823">
        <ele>97.155153</ele>
        <time>2022-02-26T10:04:20.296Z</time>
      </trkpt>
      <trkpt lat="41.72076" lon="26.18218">
        <ele>97.29252</ele>
        <time>2022-02-26T10:04:23.303Z</time>
      </trkpt>
      <trkpt lat="41.72082" lon="26.18209">
        <ele>97.394844</ele>
        <time>2022-02-26T10:04:25.268Z</time>
      </trkpt>
      <trkpt lat="41.72089" lon="26.182">
        <ele>97.497939</ele>
        <time>2022-02-26T10:04:27.273Z</time>
      </trkpt>
      <trkpt lat="41.72095" lon="26.18191">
        <ele>97.60126</ele>
        <time>2022-02-26T10:04:29.276Z</time>
      </trkpt>
      <trkpt lat="41.72104" lon="26.18177">
        <ele>97.584926</ele>
        <time>2022-02-26T10:04:32.277Z</time>
      </trkpt>
      <trkpt lat="41.72113" lon="26.18164">
        <ele>96.948157</ele>
        <time>2022-02-26T10:04:35.281Z</time>
      </trkpt>
      <trkpt lat="41.72122" lon="26.18151">
        <ele>96.308752</ele>
        <time>2022-02-26T10:04:38.289Z</time>
      </trkpt>
      <trkpt lat="41.72128" lon="26.18143">
        <ele>95.873437</ele>
        <time>2022-02-26T10:04:40.281Z</time>
      </trkpt>
      <trkpt lat="41.72137" lon="26.18131">
        <ele>95.283723</ele>
        <time>2022-02-26T10:04:43.282Z</time>
      </trkpt>
      <trkpt lat="41.72146" lon="26.18119">
        <ele>94.682844</ele>
        <time>2022-02-26T10:04:46.271Z</time>
      </trkpt>
      <trkpt lat="41.72155" lon="26.18108">
        <ele>94.087157</ele>
        <time>2022-02-26T10:04:49.298Z</time>
      </trkpt>
      <trkpt lat="41.72164" lon="26.18097">
        <ele>93.463957</ele>
        <time>2022-02-26T10:04:52.294Z</time>
      </trkpt>
      <trkpt lat="41.72175" lon="26.18085">
        <ele>92.820225</ele>
        <time>2022-02-26T10:04:55.296Z</time>
      </trkpt>
      <trkpt lat="41.72182" lon="26.18078">
        <ele>92.388972</ele>
        <time>2022-02-26T10:04:57.291Z</time>
      </trkpt>
      <trkpt lat="41.72189" lon="26.18071">
        <ele>91.939229</ele>
        <time>2022-02-26T10:04:59.306Z</time>
      </trkpt>
      <trkpt lat="41.72197" lon="26.18064">
        <ele>91.491512</ele>
        <time>2022-02-26T10:05:01.268Z</time>
      </trkpt>
      <trkpt lat="41.72208" lon="26.18054">
        <ele>90.847888</ele>
        <time>2022-02-26T10:05:04.291Z</time>
      </trkpt>
      <trkpt lat="41.7222" lon="26.18045">
        <ele>90.212456</ele>
        <time>2022-02-26T10:05:07.281Z</time>
      </trkpt>
      <trkpt lat="41.72228" lon="26.18039">
        <ele>89.776496</ele>
        <time>2022-02-26T10:05:09.323Z</time>
      </trkpt>
      <trkpt lat="41.72239" lon="26.18032">
        <ele>89.162672</ele>
        <time>2022-02-26T10:05:12.282Z</time>
      </trkpt>
      <trkpt lat="41.72251" lon="26.18025">
        <ele>89.039818</ele>
        <time>2022-02-26T10:05:15.304Z</time>
      </trkpt>
      <trkpt lat="41.72263" lon="26.18018">
        <ele>89.008913</ele>
        <time>2022-02-26T10:05:18.271Z</time>
      </trkpt>
      <trkpt lat="41.72275" lon="26.18012">
        <ele>88.975938</ele>
        <time>2022-02-26T10:05:21.291Z</time>
      </trkpt>
      <trkpt lat="41.72284" lon="26.18008">
        <ele>88.953524</ele>
        <time>2022-02-26T10:05:23.287Z</time>
      </trkpt>
      <trkpt lat="41.72293" lon="26.18004">
        <ele>88.931163</ele>
        <time>2022-02-26T10:05:25.272Z</time>
      </trkpt>
      <trkpt lat="41.72302" lon="26.18001">
        <ele>88.908214</ele>
        <time>2022-02-26T10:05:27.286Z</time>
      </trkpt>
      <trkpt lat="41.72313" lon="26.17997">
        <ele>88.883089</ele>
        <time>2022-02-26T10:05:29.275Z</time>
      </trkpt>
      <trkpt lat="41.72322" lon="26.17994">
        <ele>88.858693</ele>
        <time>2022-02-26T10:05:31.262Z</time>
      </trkpt>
      <trkpt lat="41.72333" lon="26.17991">
        <ele>88.83383</ele>
        <time>2022-02-26T10:05:33.266Z</time>
      </trkpt>
      <trkpt lat="41.72342" lon="26.17988">
        <ele>88.810429</ele>
        <time>2022-02-26T10:05:35.296Z</time>
      </trkpt>
      <trkpt lat="41.72352" lon="26.17986">
        <ele>88.787353</ele>
        <time>2022-02-26T10:05:37.318Z</time>
      </trkpt>
      <trkpt lat="41.72361" lon="26.17985">
        <ele>88.764638</ele>
        <time>2022-02-26T10:05:39.289Z</time>
      </trkpt>
      <trkpt lat="41.72371" lon="26.17984">
        <ele>88.741484</ele>
        <time>2022-02-26T10:05:41.281Z</time>
      </trkpt>
      <trkpt lat="41.7238" lon="26.17982">
        <ele>88.718093</ele>
        <time>2022-02-26T10:05:43.327Z</time>
      </trkpt>
      <trkpt lat="41.7239" lon="26.17982">
        <ele>88.695502</ele>
        <time>2022-02-26T10:05:45.276Z</time>
      </trkpt>
      <trkpt lat="41.72399" lon="26.17981">
        <ele>88.673174</ele>
        <time>2022-02-26T10:05:47.287Z</time>
      </trkpt>
      <trkpt lat="41.72408" lon="26.17981">
        <ele>88.650612</ele>
        <time>2022-02-26T10:05:49.334Z</time>
      </trkpt>
      <trkpt lat="41.72418" lon="26.17981">
        <ele>88.661885</ele>
        <time>2022-02-26T10:05:51.281Z</time>
      </trkpt>
      <trkpt lat="41.72428" lon="26.17982">
        <ele>88.766842</ele>
        <time>2022-02-26T10:05:53.286Z</time>
      </trkpt>
      <trkpt lat="41.72438" lon="26.17982">
        <ele>88.874981</ele>
        <time>2022-02-26T10:05:55.310Z</time>
      </trkpt>
      <trkpt lat="41.72448" lon="26.17982">
        <ele>88.975805</ele>
        <time>2022-02-26T10:05:57.270Z</time>
      </trkpt>
      <trkpt lat="41.72457" lon="26.17983">
        <ele>89.070372</ele>
        <time>2022-02-26T10:05:59.285Z</time>
      </trkpt>
      <trkpt lat="41.72466" lon="26.17984">
        <ele>89.167125</ele>
        <time>2022-02-26T10:06:01.322Z</time>
      </trkpt>
      <trkpt lat="41.72475" lon="26.17985">
        <ele>89.2619</ele>
        <time>2022-02-26T10:06:03.265Z</time>
      </trkpt>
      <trkpt lat="41.72484" lon="26.17986">
        <ele>89.357558</ele>
        <time>2022-02-26T10:06:05.259Z</time>
      </trkpt>
      <trkpt lat="41.72494" lon="26.17986">
        <ele>89.455411</ele>
        <time>2022-02-26T10:06:07.319Z</time>
      </trkpt>
      <trkpt lat="41.72503" lon="26.17987">
        <ele>89.552012</ele>
        <time>2022-02-26T10:06:09.289Z</time>
      </trkpt>
      <trkpt lat="41.72512" lon="26.17987">
        <ele>89.649724</ele>
        <time>2022-02-26T10:06:11.288Z</time>
      </trkpt>
      <trkpt lat="41.72522" lon="26.17988">
        <ele>89.750775</ele>
        <time>2022-02-26T10:06:13.349Z</time>
      </trkpt>
      <trkpt lat="41.72531" lon="26.17989">
        <ele>89.85055</ele>
        <time>2022-02-26T10:06:15.290Z</time>
      </trkpt>
      <trkpt lat="41.72541" lon="26.1799">
        <ele>89.948303</ele>
        <time>2022-02-26T10:06:17.276Z</time>
      </trkpt>
      <trkpt lat="41.7255" lon="26.1799">
        <ele>90.045953</ele>
        <time>2022-02-26T10:06:19.320Z</time>
      </trkpt>
      <trkpt lat="41.72559" lon="26.1799">
        <ele>90.141504</ele>
        <time>2022-02-26T10:06:21.279Z</time>
      </trkpt>
      <trkpt lat="41.72568" lon="26.17991">
        <ele>90.23721</ele>
        <time>2022-02-26T10:06:23.320Z</time>
      </trkpt>
      <trkpt lat="41.72581" lon="26.17992">
        <ele>90.373863</ele>
        <time>2022-02-26T10:06:26.265Z</time>
      </trkpt>
      <trkpt lat="41.7259" lon="26.17993">
        <ele>90.470464</ele>
        <time>2022-02-26T10:06:28.268Z</time>
      </trkpt>
      <trkpt lat="41.72603" lon="26.17993">
        <ele>90.583359</ele>
        <time>2022-02-26T10:06:31.303Z</time>
      </trkpt>
      <trkpt lat="41.72616" lon="26.17994">
        <ele>90.678725</ele>
        <time>2022-02-26T10:06:34.279Z</time>
      </trkpt>
      <trkpt lat="41.72625" lon="26.17994">
        <ele>90.746278</ele>
        <time>2022-02-26T10:06:36.337Z</time>
      </trkpt>
      <trkpt lat="41.72634" lon="26.17994">
        <ele>90.814639</ele>
        <time>2022-02-26T10:06:38.270Z</time>
      </trkpt>
      <trkpt lat="41.72647" lon="26.17995">
        <ele>90.910097</ele>
        <time>2022-02-26T10:06:41.274Z</time>
      </trkpt>
      <trkpt lat="41.72659" lon="26.17995">
        <ele>90.998683</ele>
        <time>2022-02-26T10:06:44.311Z</time>
      </trkpt>
      <trkpt lat="41.7267" lon="26.17996">
        <ele>91.087316</ele>
        <time>2022-02-26T10:06:47.285Z</time>
      </trkpt>
      <trkpt lat="41.72683" lon="26.17996">
        <ele>91.17818</ele>
        <time>2022-02-26T10:06:50.269Z</time>
      </trkpt>
      <trkpt lat="41.72695" lon="26.17997">
        <ele>91.269112</ele>
        <time>2022-02-26T10:06:53.333Z</time>
      </trkpt>
      <trkpt lat="41.72707" lon="26.17998">
        <ele>91.358545</ele>
        <time>2022-02-26T10:06:56.265Z</time>
      </trkpt>
      <trkpt lat="41.72718" lon="26.17998">
        <ele>91.447201</ele>
        <time>2022-02-26T10:06:59.325Z</time>
      </trkpt>
      <trkpt lat="41.7273" lon="26.17999">
        <ele>91.535108</ele>
        <time>2022-02-26T10:07:02.270Z</time>
      </trkpt>
      <trkpt lat="41.72742" lon="26.18">
        <ele>91.623764</ele>
        <time>2022-02-26T10:07:05.293Z</time>
      </trkpt>
      <trkpt lat="41.72753" lon="26.18">
        <ele>91.706359</ele>
        <time>2022-02-26T10:07:08.286Z</time>
      </trkpt>
      <trkpt lat="41.72764" lon="26.18001">
        <ele>91.789078</ele>
        <time>2022-02-26T10:07:11.274Z</time>
      </trkpt>
      <trkpt lat="41.72775" lon="26.18001">
        <ele>91.8709</ele>
        <time>2022-02-26T10:07:14.284Z</time>
      </trkpt>
      <trkpt lat="41.72786" lon="26.18002">
        <ele>92.232947</ele>
        <time>2022-02-26T10:07:17.262Z</time>
      </trkpt>
      <trkpt lat="41.72798" lon="26.18002">
        <ele>92.606023</ele>
        <time>2022-02-26T10:07:20.254Z</time>
      </trkpt>
      <trkpt lat="41.72808" lon="26.18003">
        <ele>92.947009</ele>
        <time>2022-02-26T10:07:23.252Z</time>
      </trkpt>
      <trkpt lat="41.72819" lon="26.18003">
        <ele>93.294324</ele>
        <time>2022-02-26T10:07:26.254Z</time>
      </trkpt>
      <trkpt lat="41.72829" lon="26.18002">
        <ele>93.610554</ele>
        <time>2022-02-26T10:07:29.253Z</time>
      </trkpt>
      <trkpt lat="41.72839" lon="26.18001">
        <ele>93.926265</ele>
        <time>2022-02-26T10:07:32.258Z</time>
      </trkpt>
      <trkpt lat="41.72849" lon="26.17999">
        <ele>94.275408</ele>
        <time>2022-02-26T10:07:35.252Z</time>
      </trkpt>
      <trkpt lat="41.72861" lon="26.17998">
        <ele>94.634396</ele>
        <time>2022-02-26T10:07:38.265Z</time>
      </trkpt>
      <trkpt lat="41.72871" lon="26.17995">
        <ele>94.977748</ele>
        <time>2022-02-26T10:07:41.253Z</time>
      </trkpt>
      <trkpt lat="41.72881" lon="26.17993">
        <ele>95.301258</ele>
        <time>2022-02-26T10:07:44.295Z</time>
      </trkpt>
      <trkpt lat="41.72891" lon="26.1799">
        <ele>95.631858</ele>
        <time>2022-02-26T10:07:47.254Z</time>
      </trkpt>
      <trkpt lat="41.72901" lon="26.17986">
        <ele>95.967437</ele>
        <time>2022-02-26T10:07:50.255Z</time>
      </trkpt>
      <trkpt lat="41.72911" lon="26.17981">
        <ele>96.303597</ele>
        <time>2022-02-26T10:07:53.259Z</time>
      </trkpt>
      <trkpt lat="41.72921" lon="26.17976">
        <ele>96.645163</ele>
        <time>2022-02-26T10:07:56.250Z</time>
      </trkpt>
      <trkpt lat="41.72931" lon="26.17971">
        <ele>96.981514</ele>
        <time>2022-02-26T10:07:59.259Z</time>
      </trkpt>
      <trkpt lat="41.72941" lon="26.17967">
        <ele>97.318498</ele>
        <time>2022-02-26T10:08:02.252Z</time>
      </trkpt>
      <trkpt lat="41.7295" lon="26.17963">
        <ele>97.652399</ele>
        <time>2022-02-26T10:08:05.249Z</time>
      </trkpt>
      <trkpt lat="41.7296" lon="26.17957">
        <ele>98.226346</ele>
        <time>2022-02-26T10:08:08.251Z</time>
      </trkpt>
      <trkpt lat="41.72968" lon="26.17951">
        <ele>98.753488</ele>
        <time>2022-02-26T10:08:11.267Z</time>
      </trkpt>
      <trkpt lat="41.72976" lon="26.17945">
        <ele>99.281646</ele>
        <time>2022-02-26T10:08:14.262Z</time>
      </trkpt>
      <trkpt lat="41.72985" lon="26.17939">
        <ele>99.846724</ele>
        <time>2022-02-26T10:08:17.282Z</time>
      </trkpt>
      <trkpt lat="41.72993" lon="26.17932">
        <ele>100.362288</ele>
        <time>2022-02-26T10:08:20.249Z</time>
      </trkpt>
      <trkpt lat="41.73003" lon="26.17924">
        <ele>101.01741</ele>
        <time>2022-02-26T10:08:24.253Z</time>
      </trkpt>
      <trkpt lat="41.73012" lon="26.17916">
        <ele>101.625737</ele>
        <time>2022-02-26T10:08:28.251Z</time>
      </trkpt>
      <trkpt lat="41.73021" lon="26.17908">
        <ele>102.269015</ele>
        <time>2022-02-26T10:08:32.257Z</time>
      </trkpt>
      <trkpt lat="41.73028" lon="26.179">
        <ele>102.784394</ele>
        <time>2022-02-26T10:08:35.267Z</time>
      </trkpt>
      <trkpt lat="41.73037" lon="26.1789">
        <ele>103.435772</ele>
        <time>2022-02-26T10:08:39.254Z</time>
      </trkpt>
      <trkpt lat="41.73045" lon="26.17879">
        <ele>104.06739</ele>
        <time>2022-02-26T10:08:43.260Z</time>
      </trkpt>
      <trkpt lat="41.73051" lon="26.17871">
        <ele>104.574832</ele>
        <time>2022-02-26T10:08:46.263Z</time>
      </trkpt>
      <trkpt lat="41.7306" lon="26.1786">
        <ele>105.226344</ele>
        <time>2022-02-26T10:08:50.281Z</time>
      </trkpt>
      <trkpt lat="41.73066" lon="26.17851">
        <ele>105.747706</ele>
        <time>2022-02-26T10:08:53.257Z</time>
      </trkpt>
      <trkpt lat="41.73074" lon="26.17841">
        <ele>106.327726</ele>
        <time>2022-02-26T10:08:57.260Z</time>
      </trkpt>
      <trkpt lat="41.7308" lon="26.17833">
        <ele>106.842126</ele>
        <time>2022-02-26T10:09:01.253Z</time>
      </trkpt>
      <trkpt lat="41.73087" lon="26.17824">
        <ele>107.372404</ele>
        <time>2022-02-26T10:09:05.262Z</time>
      </trkpt>
      <trkpt lat="41.73093" lon="26.17815">
        <ele>107.886786</ele>
        <time>2022-02-26T10:09:09.253Z</time>
      </trkpt>
      <trkpt lat="41.73102" lon="26.17804">
        <ele>108.393912</ele>
        <time>2022-02-26T10:09:14.257Z</time>
      </trkpt>
      <trkpt lat="41.73108" lon="26.17795">
        <ele>108.83488</ele>
        <time>2022-02-26T10:09:18.254Z</time>
      </trkpt>
      <trkpt lat="41.73116" lon="26.17785">
        <ele>109.307336</ele>
        <time>2022-02-26T10:09:23.256Z</time>
      </trkpt>
      <trkpt lat="41.73123" lon="26.17774">
        <ele>109.805281</ele>
        <time>2022-02-26T10:09:28.253Z</time>
      </trkpt>
      <trkpt lat="41.73131" lon="26.17764">
        <ele>110.292826</ele>
        <time>2022-02-26T10:09:33.252Z</time>
      </trkpt>
      <trkpt lat="41.73137" lon="26.17755">
        <ele>110.714047</ele>
        <time>2022-02-26T10:09:37.249Z</time>
      </trkpt>
      <trkpt lat="41.73146" lon="26.17744">
        <ele>111.23436</ele>
        <time>2022-02-26T10:09:42.271Z</time>
      </trkpt>
      <trkpt lat="41.73154" lon="26.17734">
        <ele>111.733564</ele>
        <time>2022-02-26T10:09:47.259Z</time>
      </trkpt>
      <trkpt lat="41.73162" lon="26.17725">
        <ele>112.24307</ele>
        <time>2022-02-26T10:09:52.278Z</time>
      </trkpt>
      <trkpt lat="41.73169" lon="26.17715">
        <ele>112.693091</ele>
        <time>2022-02-26T10:09:57.256Z</time>
      </trkpt>
      <trkpt lat="41.73176" lon="26.17707">
        <ele>113.10475</ele>
        <time>2022-02-26T10:10:02.255Z</time>
      </trkpt>
      <trkpt lat="41.73183" lon="26.17699">
        <ele>113.521661</ele>
        <time>2022-02-26T10:10:07.256Z</time>
      </trkpt>
      <trkpt lat="41.7319" lon="26.1769">
        <ele>113.971277</ele>
        <time>2022-02-26T10:10:12.253Z</time>
      </trkpt>
      <trkpt lat="41.73197" lon="26.1768">
        <ele>114.436446</ele>
        <time>2022-02-26T10:10:18.258Z</time>
      </trkpt>
      <trkpt lat="41.73204" lon="26.17671">
        <ele>114.852857</ele>
        <time>2022-02-26T10:10:24.255Z</time>
      </trkpt>
      <trkpt lat="41.73211" lon="26.17661">
        <ele>115.328581</ele>
        <time>2022-02-26T10:10:31.258Z</time>
      </trkpt>
      <trkpt lat="41.73218" lon="26.17651">
        <ele>115.779702</ele>
        <time>2022-02-26T10:10:37.262Z</time>
      </trkpt>
      <trkpt lat="41.73224" lon="26.17642">
        <ele>115.93484</ele>
        <time>2022-02-26T10:10:42.257Z</time>
      </trkpt>
      <trkpt lat="41.73231" lon="26.17633">
        <ele>115.93253</ele>
        <time>2022-02-26T10:10:47.259Z</time>
      </trkpt>
      <trkpt lat="41.73238" lon="26.17623">
        <ele>115.93006</ele>
        <time>2022-02-26T10:10:53.260Z</time>
      </trkpt>
      <trkpt lat="41.73246" lon="26.17613">
        <ele>115.927636</ele>
        <time>2022-02-26T10:10:59.260Z</time>
      </trkpt>
      <trkpt lat="41.73254" lon="26.17604">
        <ele>115.92512</ele>
        <time>2022-02-26T10:11:05.259Z</time>
      </trkpt>
      <trkpt lat="41.73261" lon="26.17595">
        <ele>115.922837</ele>
        <time>2022-02-26T10:11:11.252Z</time>
      </trkpt>
      <trkpt lat="41.73268" lon="26.17585">
        <ele>115.920362</ele>
        <time>2022-02-26T10:11:17.298Z</time>
      </trkpt>
      <trkpt lat="41.73276" lon="26.17575">
        <ele>115.917922</ele>
        <time>2022-02-26T10:11:23.250Z</time>
      </trkpt>
      <trkpt lat="41.73283" lon="26.17565">
        <ele>115.915407</ele>
        <time>2022-02-26T10:11:29.254Z</time>
      </trkpt>
      <trkpt lat="41.73289" lon="26.17556">
        <ele>115.913192</ele>
        <time>2022-02-26T10:11:34.256Z</time>
      </trkpt>
      <trkpt lat="41.73297" lon="26.17546">
        <ele>115.91066</ele>
        <time>2022-02-26T10:11:40.258Z</time>
      </trkpt>
      <trkpt lat="41.73304" lon="26.17538">
        <ele>115.908473</ele>
        <time>2022-02-26T10:11:45.251Z</time>
      </trkpt>
      <trkpt lat="41.73311" lon="26.17529">
        <ele>115.906315</ele>
        <time>2022-02-26T10:11:49.249Z</time>
      </trkpt>
      <trkpt lat="41.73318" lon="26.17519">
        <ele>115.903785</ele>
        <time>2022-02-26T10:11:53.259Z</time>
      </trkpt>
      <trkpt lat="41.73325" lon="26.17511">
        <ele>115.901656</ele>
        <time>2022-02-26T10:11:57.255Z</time>
      </trkpt>
      <trkpt lat="41.73331" lon="26.17502">
        <ele>115.899466</ele>
        <time>2022-02-26T10:12:01.278Z</time>
      </trkpt>
      <trkpt lat="41.73338" lon="26.17494">
        <ele>115.897293</ele>
        <time>2022-02-26T10:12:05.247Z</time>
      </trkpt>
      <trkpt lat="41.73346" lon="26.17483">
        <ele>115.894617</ele>
        <time>2022-02-26T10:12:10.253Z</time>
      </trkpt>
      <trkpt lat="41.73353" lon="26.17473">
        <ele>116.014021</ele>
        <time>2022-02-26T10:12:14.256Z</time>
      </trkpt>
      <trkpt lat="41.73361" lon="26.17463">
        <ele>116.208919</ele>
        <time>2022-02-26T10:12:18.271Z</time>
      </trkpt>
      <trkpt lat="41.73368" lon="26.17453">
        <ele>116.405123</ele>
        <time>2022-02-26T10:12:22.264Z</time>
      </trkpt>
      <trkpt lat="41.73375" lon="26.17443">
        <ele>116.589388</ele>
        <time>2022-02-26T10:12:26.248Z</time>
      </trkpt>
      <trkpt lat="41.73384" lon="26.17433">
        <ele>116.796015</ele>
        <time>2022-02-26T10:12:30.282Z</time>
      </trkpt>
      <trkpt lat="41.73392" lon="26.17421">
        <ele>117.015223</ele>
        <time>2022-02-26T10:12:34.248Z</time>
      </trkpt>
      <trkpt lat="41.73399" lon="26.17413">
        <ele>117.184699</ele>
        <time>2022-02-26T10:12:37.260Z</time>
      </trkpt>
      <trkpt lat="41.73406" lon="26.17405">
        <ele>117.354624</ele>
        <time>2022-02-26T10:12:40.255Z</time>
      </trkpt>
      <trkpt lat="41.73413" lon="26.17396">
        <ele>117.528651</ele>
        <time>2022-02-26T10:12:43.247Z</time>
      </trkpt>
      <trkpt lat="41.73421" lon="26.17387">
        <ele>117.715338</ele>
        <time>2022-02-26T10:12:46.250Z</time>
      </trkpt>
      <trkpt lat="41.73428" lon="26.17377">
        <ele>117.909487</ele>
        <time>2022-02-26T10:12:49.255Z</time>
      </trkpt>
      <trkpt lat="41.73437" lon="26.17367">
        <ele>118.110724</ele>
        <time>2022-02-26T10:12:52.248Z</time>
      </trkpt>
      <trkpt lat="41.73445" lon="26.17356">
        <ele>118.320301</ele>
        <time>2022-02-26T10:12:55.246Z</time>
      </trkpt>
      <trkpt lat="41.73453" lon="26.17345">
        <ele>118.538331</ele>
        <time>2022-02-26T10:12:58.252Z</time>
      </trkpt>
      <trkpt lat="41.73462" lon="26.17335">
        <ele>118.754502</ele>
        <time>2022-02-26T10:13:01.264Z</time>
      </trkpt>
      <trkpt lat="41.73471" lon="26.17323">
        <ele>118.979506</ele>
        <time>2022-02-26T10:13:04.256Z</time>
      </trkpt>
      <trkpt lat="41.7348" lon="26.17311">
        <ele>119.142131</ele>
        <time>2022-02-26T10:13:07.253Z</time>
      </trkpt>
      <trkpt lat="41.73489" lon="26.17299">
        <ele>118.947368</ele>
        <time>2022-02-26T10:13:10.254Z</time>
      </trkpt>
      <trkpt lat="41.73499" lon="26.17287">
        <ele>118.760862</ele>
        <time>2022-02-26T10:13:13.257Z</time>
      </trkpt>
      <trkpt lat="41.73508" lon="26.17276">
        <ele>118.576039</ele>
        <time>2022-02-26T10:13:16.249Z</time>
      </trkpt>
      <trkpt lat="41.73516" lon="26.17265">
        <ele>118.405751</ele>
        <time>2022-02-26T10:13:19.247Z</time>
      </trkpt>
      <trkpt lat="41.73524" lon="26.17255">
        <ele>118.235782</ele>
        <time>2022-02-26T10:13:22.251Z</time>
      </trkpt>
      <trkpt lat="41.73531" lon="26.17245">
        <ele>118.083887</ele>
        <time>2022-02-26T10:13:25.253Z</time>
      </trkpt>
      <trkpt lat="41.73539" lon="26.17236">
        <ele>117.936087</ele>
        <time>2022-02-26T10:13:28.257Z</time>
      </trkpt>
      <trkpt lat="41.73546" lon="26.17227">
        <ele>117.789421</ele>
        <time>2022-02-26T10:13:31.244Z</time>
      </trkpt>
      <trkpt lat="41.73553" lon="26.17219">
        <ele>117.653811</ele>
        <time>2022-02-26T10:13:34.263Z</time>
      </trkpt>
      <trkpt lat="41.73561" lon="26.17209">
        <ele>117.48761</ele>
        <time>2022-02-26T10:13:38.284Z</time>
      </trkpt>
      <trkpt lat="41.73569" lon="26.17199">
        <ele>117.331702</ele>
        <time>2022-02-26T10:13:42.251Z</time>
      </trkpt>
      <trkpt lat="41.73577" lon="26.17188">
        <ele>117.160327</ele>
        <time>2022-02-26T10:13:46.252Z</time>
      </trkpt>
      <trkpt lat="41.73586" lon="26.17177">
        <ele>116.985156</ele>
        <time>2022-02-26T10:13:50.274Z</time>
      </trkpt>
      <trkpt lat="41.73595" lon="26.17167">
        <ele>116.809006</ele>
        <time>2022-02-26T10:13:54.255Z</time>
      </trkpt>
      <trkpt lat="41.73603" lon="26.17157">
        <ele>116.646071</ele>
        <time>2022-02-26T10:13:58.255Z</time>
      </trkpt>
      <trkpt lat="41.7361" lon="26.17148">
        <ele>116.508759</ele>
        <time>2022-02-26T10:14:01.279Z</time>
      </trkpt>
      <trkpt lat="41.73617" lon="26.17138">
        <ele>116.660591</ele>
        <time>2022-02-26T10:14:04.255Z</time>
      </trkpt>
      <trkpt lat="41.73626" lon="26.17128">
        <ele>116.823216</ele>
        <time>2022-02-26T10:14:07.251Z</time>
      </trkpt>
      <trkpt lat="41.73634" lon="26.17117">
        <ele>116.994996</ele>
        <time>2022-02-26T10:14:10.250Z</time>
      </trkpt>
      <trkpt lat="41.73643" lon="26.17107">
        <ele>117.166015</ele>
        <time>2022-02-26T10:14:13.282Z</time>
      </trkpt>
      <trkpt lat="41.73652" lon="26.17097">
        <ele>117.326507</ele>
        <time>2022-02-26T10:14:16.254Z</time>
      </trkpt>
      <trkpt lat="41.7366" lon="26.17089">
        <ele>117.473682</ele>
        <time>2022-02-26T10:14:19.263Z</time>
      </trkpt>
      <trkpt lat="41.73667" lon="26.1708">
        <ele>117.619877</ele>
        <time>2022-02-26T10:14:22.245Z</time>
      </trkpt>
      <trkpt lat="41.73674" lon="26.17072">
        <ele>117.753359</ele>
        <time>2022-02-26T10:14:25.251Z</time>
      </trkpt>
      <trkpt lat="41.73683" lon="26.17062">
        <ele>117.922859</ele>
        <time>2022-02-26T10:14:29.251Z</time>
      </trkpt>
      <trkpt lat="41.7369" lon="26.17053">
        <ele>118.062456</ele>
        <time>2022-02-26T10:14:32.259Z</time>
      </trkpt>
      <trkpt lat="41.73698" lon="26.17044">
        <ele>118.209251</ele>
        <time>2022-02-26T10:14:35.268Z</time>
      </trkpt>
      <trkpt lat="41.73705" lon="26.17035">
        <ele>118.350131</ele>
        <time>2022-02-26T10:14:38.251Z</time>
      </trkpt>
      <trkpt lat="41.73712" lon="26.17025">
        <ele>118.495914</ele>
        <time>2022-02-26T10:14:41.255Z</time>
      </trkpt>
      <trkpt lat="41.73719" lon="26.17016">
        <ele>118.637824</ele>
        <time>2022-02-26T10:14:44.258Z</time>
      </trkpt>
      <trkpt lat="41.73725" lon="26.17005">
        <ele>118.785857</ele>
        <time>2022-02-26T10:14:47.282Z</time>
      </trkpt>
      <trkpt lat="41.7373" lon="26.16994">
        <ele>118.929243</ele>
        <time>2022-02-26T10:14:50.251Z</time>
      </trkpt>
      <trkpt lat="41.73735" lon="26.16982">
        <ele>119.074949</ele>
        <time>2022-02-26T10:14:53.253Z</time>
      </trkpt>
      <trkpt lat="41.73739" lon="26.1697">
        <ele>119.49159</ele>
        <time>2022-02-26T10:14:56.263Z</time>
      </trkpt>
      <trkpt lat="41.73743" lon="26.16959">
        <ele>119.965552</ele>
        <time>2022-02-26T10:14:59.264Z</time>
      </trkpt>
      <trkpt lat="41.73749" lon="26.16945">
        <ele>120.573649</ele>
        <time>2022-02-26T10:15:03.280Z</time>
      </trkpt>
      <trkpt lat="41.73756" lon="26.16937">
        <ele>121.040026</ele>
        <time>2022-02-26T10:15:06.283Z</time>
      </trkpt>
      <trkpt lat="41.73762" lon="26.16929">
        <ele>121.512792</ele>
        <time>2022-02-26T10:15:09.281Z</time>
      </trkpt>
      <trkpt lat="41.73771" lon="26.1692">
        <ele>122.056517</ele>
        <time>2022-02-26T10:15:13.262Z</time>
      </trkpt>
      <trkpt lat="41.73778" lon="26.1691">
        <ele>122.585654</ele>
        <time>2022-02-26T10:15:17.271Z</time>
      </trkpt>
      <trkpt lat="41.73786" lon="26.169">
        <ele>123.149365</ele>
        <time>2022-02-26T10:15:22.279Z</time>
      </trkpt>
      <trkpt lat="41.73794" lon="26.16891">
        <ele>123.691542</ele>
        <time>2022-02-26T10:15:27.279Z</time>
      </trkpt>
      <trkpt lat="41.73801" lon="26.16883">
        <ele>124.164205</ele>
        <time>2022-02-26T10:15:32.321Z</time>
      </trkpt>
      <trkpt lat="41.73808" lon="26.16875">
        <ele>124.649325</ele>
        <time>2022-02-26T10:15:38.273Z</time>
      </trkpt>
      <trkpt lat="41.73824" lon="26.1686">
        <ele>125.637137</ele>
        <time>2022-02-26T10:18:39.288Z</time>
      </trkpt>
      <trkpt lat="41.73831" lon="26.16852">
        <ele>126.115115</ele>
        <time>2022-02-26T10:18:48.281Z</time>
      </trkpt>
      <trkpt lat="41.73838" lon="26.16844">
        <ele>126.58526</ele>
        <time>2022-02-26T10:18:57.277Z</time>
      </trkpt>
      <trkpt lat="41.73847" lon="26.16832">
        <ele>127.270728</ele>
        <time>2022-02-26T10:20:52.262Z</time>
      </trkpt>
      <trkpt lat="41.73858" lon="26.16824">
        <ele>127.893846</ele>
        <time>2022-02-26T10:20:55.284Z</time>
      </trkpt>
      <trkpt lat="41.73867" lon="26.1682">
        <ele>128.355143</ele>
        <time>2022-02-26T10:20:57.249Z</time>
      </trkpt>
      <trkpt lat="41.73878" lon="26.16822">
        <ele>127.888311</ele>
        <time>2022-02-26T10:21:02.252Z</time>
      </trkpt>
      <trkpt lat="41.73887" lon="26.16828">
        <ele>127.449102</ele>
        <time>2022-02-26T10:21:05.253Z</time>
      </trkpt>
      <trkpt lat="41.73897" lon="26.16832">
        <ele>126.939436</ele>
        <time>2022-02-26T10:21:08.253Z</time>
      </trkpt>
      <trkpt lat="41.73907" lon="26.16829">
        <ele>126.500814</ele>
        <time>2022-02-26T10:21:11.253Z</time>
      </trkpt>
      <trkpt lat="41.73912" lon="26.16818">
        <ele>126.045728</ele>
        <time>2022-02-26T10:21:14.251Z</time>
      </trkpt>
      <trkpt lat="41.73918" lon="26.16806">
        <ele>125.559851</ele>
        <time>2022-02-26T10:21:18.263Z</time>
      </trkpt>
      <trkpt lat="41.73925" lon="26.16797">
        <ele>125.13547</ele>
        <time>2022-02-26T10:21:22.252Z</time>
      </trkpt>
      <trkpt lat="41.73936" lon="26.16782">
        <ele>124.397651</ele>
        <time>2022-02-26T10:23:11.271Z</time>
      </trkpt>
      <trkpt lat="41.73943" lon="26.16773">
        <ele>123.972598</ele>
        <time>2022-02-26T10:23:15.260Z</time>
      </trkpt>
      <trkpt lat="41.73951" lon="26.16764">
        <ele>123.507894</ele>
        <time>2022-02-26T10:23:19.263Z</time>
      </trkpt>
      <trkpt lat="41.73959" lon="26.16754">
        <ele>123.005375</ele>
        <time>2022-02-26T10:23:23.251Z</time>
      </trkpt>
      <trkpt lat="41.73964" lon="26.16743">
        <ele>122.587836</ele>
        <time>2022-02-26T10:23:26.256Z</time>
      </trkpt>
      <trkpt lat="41.73967" lon="26.16731">
        <ele>122.148139</ele>
        <time>2022-02-26T10:23:29.268Z</time>
      </trkpt>
      <trkpt lat="41.73971" lon="26.1672">
        <ele>121.728968</ele>
        <time>2022-02-26T10:23:32.247Z</time>
      </trkpt>
      <trkpt lat="41.73979" lon="26.16708">
        <ele>121.198843</ele>
        <time>2022-02-26T10:23:36.275Z</time>
      </trkpt>
      <trkpt lat="41.73986" lon="26.16699">
        <ele>120.75906</ele>
        <time>2022-02-26T10:23:39.251Z</time>
      </trkpt>
      <trkpt lat="41.73995" lon="26.1669">
        <ele>120.261276</ele>
        <time>2022-02-26T10:23:42.277Z</time>
      </trkpt>
      <trkpt lat="41.74003" lon="26.16681">
        <ele>119.811838</ele>
        <time>2022-02-26T10:23:45.263Z</time>
      </trkpt>
      <trkpt lat="41.74012" lon="26.16672">
        <ele>119.364806</ele>
        <time>2022-02-26T10:23:48.250Z</time>
      </trkpt>
      <trkpt lat="41.74021" lon="26.16665">
        <ele>118.917198</ele>
        <time>2022-02-26T10:23:51.250Z</time>
      </trkpt>
      <trkpt lat="41.74031" lon="26.16657">
        <ele>118.459327</ele>
        <time>2022-02-26T10:23:54.252Z</time>
      </trkpt>
      <trkpt lat="41.7404" lon="26.1665">
        <ele>118.022828</ele>
        <time>2022-02-26T10:23:57.246Z</time>
      </trkpt>
      <trkpt lat="41.7405" lon="26.16643">
        <ele>117.544852</ele>
        <time>2022-02-26T10:24:00.262Z</time>
      </trkpt>
      <trkpt lat="41.7406" lon="26.16638">
        <ele>117.09228</ele>
        <time>2022-02-26T10:24:03.251Z</time>
      </trkpt>
      <trkpt lat="41.74072" lon="26.16632">
        <ele>116.586296</ele>
        <time>2022-02-26T10:24:06.246Z</time>
      </trkpt>
      <trkpt lat="41.74084" lon="26.16627">
        <ele>116.052175</ele>
        <time>2022-02-26T10:24:09.267Z</time>
      </trkpt>
      <trkpt lat="41.74097" lon="26.16622">
        <ele>115.484409</ele>
        <time>2022-02-26T10:24:12.246Z</time>
      </trkpt>
      <trkpt lat="41.74107" lon="26.16618">
        <ele>115.088182</ele>
        <time>2022-02-26T10:24:14.255Z</time>
      </trkpt>
      <trkpt lat="41.74116" lon="26.16615">
        <ele>114.703643</ele>
        <time>2022-02-26T10:24:16.246Z</time>
      </trkpt>
      <trkpt lat="41.74125" lon="26.16613">
        <ele>114.331242</ele>
        <time>2022-02-26T10:24:18.248Z</time>
      </trkpt>
      <trkpt lat="41.74138" lon="26.1661">
        <ele>113.790515</ele>
        <time>2022-02-26T10:24:21.267Z</time>
      </trkpt>
      <trkpt lat="41.74148" lon="26.16609">
        <ele>113.376701</ele>
        <time>2022-02-26T10:24:23.263Z</time>
      </trkpt>
      <trkpt lat="41.74159" lon="26.16608">
        <ele>112.917606</ele>
        <time>2022-02-26T10:24:25.255Z</time>
      </trkpt>
      <trkpt lat="41.74169" lon="26.16608">
        <ele>112.574741</ele>
        <time>2022-02-26T10:24:27.249Z</time>
      </trkpt>
      <trkpt lat="41.7418" lon="26.16608">
        <ele>112.258671</ele>
        <time>2022-02-26T10:24:29.252Z</time>
      </trkpt>
      <trkpt lat="41.74191" lon="26.16608">
        <ele>111.936736</ele>
        <time>2022-02-26T10:24:31.246Z</time>
      </trkpt>
      <trkpt lat="41.74203" lon="26.16608">
        <ele>111.591642</ele>
        <time>2022-02-26T10:24:33.249Z</time>
      </trkpt>
      <trkpt lat="41.74215" lon="26.16609">
        <ele>111.255211</ele>
        <time>2022-02-26T10:24:35.263Z</time>
      </trkpt>
      <trkpt lat="41.74226" lon="26.1661">
        <ele>110.929858</ele>
        <time>2022-02-26T10:24:37.253Z</time>
      </trkpt>
      <trkpt lat="41.74238" lon="26.1661">
        <ele>110.590342</ele>
        <time>2022-02-26T10:24:39.249Z</time>
      </trkpt>
      <trkpt lat="41.7425" lon="26.1661">
        <ele>110.236569</ele>
        <time>2022-02-26T10:24:41.250Z</time>
      </trkpt>
      <trkpt lat="41.74263" lon="26.16611">
        <ele>109.868246</ele>
        <time>2022-02-26T10:24:43.249Z</time>
      </trkpt>
      <trkpt lat="41.74275" lon="26.16611">
        <ele>109.502855</ele>
        <time>2022-02-26T10:24:45.253Z</time>
      </trkpt>
      <trkpt lat="41.74288" lon="26.16612">
        <ele>109.148665</ele>
        <time>2022-02-26T10:24:47.250Z</time>
      </trkpt>
      <trkpt lat="41.743" lon="26.16612">
        <ele>108.783274</ele>
        <time>2022-02-26T10:24:49.249Z</time>
      </trkpt>
      <trkpt lat="41.74313" lon="26.16612">
        <ele>108.406254</ele>
        <time>2022-02-26T10:24:51.256Z</time>
      </trkpt>
      <trkpt lat="41.74326" lon="26.16612">
        <ele>108.040888</ele>
        <time>2022-02-26T10:24:53.258Z</time>
      </trkpt>
      <trkpt lat="41.74339" lon="26.16613">
        <ele>107.660926</ele>
        <time>2022-02-26T10:24:55.249Z</time>
      </trkpt>
      <trkpt lat="41.74353" lon="26.16613">
        <ele>106.990345</ele>
        <time>2022-02-26T10:24:57.251Z</time>
      </trkpt>
      <trkpt lat="41.74366" lon="26.16613">
        <ele>106.285119</ele>
        <time>2022-02-26T10:24:59.250Z</time>
      </trkpt>
      <trkpt lat="41.74379" lon="26.16614">
        <ele>105.620836</ele>
        <time>2022-02-26T10:25:01.250Z</time>
      </trkpt>
      <trkpt lat="41.74393" lon="26.16614">
        <ele>104.925427</ele>
        <time>2022-02-26T10:25:03.279Z</time>
      </trkpt>
      <trkpt lat="41.74407" lon="26.16615">
        <ele>104.209443</ele>
        <time>2022-02-26T10:25:05.253Z</time>
      </trkpt>
      <trkpt lat="41.7442" lon="26.16616">
        <ele>103.518835</ele>
        <time>2022-02-26T10:25:07.250Z</time>
      </trkpt>
      <trkpt lat="41.74433" lon="26.16616">
        <ele>102.880382</ele>
        <time>2022-02-26T10:25:09.253Z</time>
      </trkpt>
      <trkpt lat="41.74444" lon="26.16617">
        <ele>102.278034</ele>
        <time>2022-02-26T10:25:11.251Z</time>
      </trkpt>
      <trkpt lat="41.74456" lon="26.16617">
        <ele>101.696272</ele>
        <time>2022-02-26T10:25:13.249Z</time>
      </trkpt>
      <trkpt lat="41.74468" lon="26.16617">
        <ele>101.07858</ele>
        <time>2022-02-26T10:25:15.253Z</time>
      </trkpt>
      <trkpt lat="41.74479" lon="26.16617">
        <ele>100.47633</ele>
        <time>2022-02-26T10:25:17.250Z</time>
      </trkpt>
      <trkpt lat="41.74492" lon="26.16616">
        <ele>99.843104</ele>
        <time>2022-02-26T10:25:19.251Z</time>
      </trkpt>
      <trkpt lat="41.74504" lon="26.16617">
        <ele>99.178388</ele>
        <time>2022-02-26T10:25:21.245Z</time>
      </trkpt>
      <trkpt lat="41.74518" lon="26.16618">
        <ele>98.457506</ele>
        <time>2022-02-26T10:25:23.251Z</time>
      </trkpt>
      <trkpt lat="41.74533" lon="26.16618">
        <ele>97.751131</ele>
        <time>2022-02-26T10:25:25.254Z</time>
      </trkpt>
      <trkpt lat="41.74549" lon="26.16618">
        <ele>97.022555</ele>
        <time>2022-02-26T10:25:27.245Z</time>
      </trkpt>
      <trkpt lat="41.74565" lon="26.16619">
        <ele>96.293313</ele>
        <time>2022-02-26T10:25:29.249Z</time>
      </trkpt>
      <trkpt lat="41.7458" lon="26.1662">
        <ele>95.587401</ele>
        <time>2022-02-26T10:25:31.263Z</time>
      </trkpt>
      <trkpt lat="41.74594" lon="26.1662">
        <ele>94.895976</ele>
        <time>2022-02-26T10:25:33.260Z</time>
      </trkpt>
      <trkpt lat="41.7461" lon="26.16621">
        <ele>94.1899</ele>
        <time>2022-02-26T10:25:35.261Z</time>
      </trkpt>
      <trkpt lat="41.74623" lon="26.16622">
        <ele>93.539794</ele>
        <time>2022-02-26T10:25:37.246Z</time>
      </trkpt>
      <trkpt lat="41.74637" lon="26.16623">
        <ele>92.926992</ele>
        <time>2022-02-26T10:25:39.250Z</time>
      </trkpt>
      <trkpt lat="41.7465" lon="26.16625">
        <ele>92.308585</ele>
        <time>2022-02-26T10:25:41.273Z</time>
      </trkpt>
      <trkpt lat="41.74663" lon="26.16626">
        <ele>91.694547</ele>
        <time>2022-02-26T10:25:43.250Z</time>
      </trkpt>
      <trkpt lat="41.74676" lon="26.16627">
        <ele>91.07242</ele>
        <time>2022-02-26T10:25:45.252Z</time>
      </trkpt>
      <trkpt lat="41.74689" lon="26.16628">
        <ele>90.459183</ele>
        <time>2022-02-26T10:25:47.252Z</time>
      </trkpt>
      <trkpt lat="41.74702" lon="26.1663">
        <ele>89.877587</ele>
        <time>2022-02-26T10:25:49.259Z</time>
      </trkpt>
      <trkpt lat="41.74714" lon="26.16632">
        <ele>89.35333</ele>
        <time>2022-02-26T10:25:51.286Z</time>
      </trkpt>
      <trkpt lat="41.74728" lon="26.16633">
        <ele>88.797477</ele>
        <time>2022-02-26T10:25:53.256Z</time>
      </trkpt>
      <trkpt lat="41.74741" lon="26.16634">
        <ele>88.23771</ele>
        <time>2022-02-26T10:25:55.252Z</time>
      </trkpt>
      <trkpt lat="41.74754" lon="26.16635">
        <ele>87.731597</ele>
        <time>2022-02-26T10:25:57.249Z</time>
      </trkpt>
      <trkpt lat="41.74763" lon="26.16636">
        <ele>87.329849</ele>
        <time>2022-02-26T10:25:59.254Z</time>
      </trkpt>
      <trkpt lat="41.74775" lon="26.16637">
        <ele>86.824151</ele>
        <time>2022-02-26T10:26:02.256Z</time>
      </trkpt>
      <trkpt lat="41.74788" lon="26.16638">
        <ele>86.30875</ele>
        <time>2022-02-26T10:26:05.267Z</time>
      </trkpt>
      <trkpt lat="41.74797" lon="26.1664">
        <ele>85.921558</ele>
        <time>2022-02-26T10:26:08.249Z</time>
      </trkpt>
      <trkpt lat="41.7482" lon="26.16641">
        <ele>84.960982</ele>
        <time>2022-02-26T10:28:48.306Z</time>
      </trkpt>
      <trkpt lat="41.74832" lon="26.16643">
        <ele>84.480793</ele>
        <time>2022-02-26T10:28:52.261Z</time>
      </trkpt>
      <trkpt lat="41.74842" lon="26.16644">
        <ele>84.069236</ele>
        <time>2022-02-26T10:28:55.277Z</time>
      </trkpt>
      <trkpt lat="41.74852" lon="26.16646">
        <ele>83.640905</ele>
        <time>2022-02-26T10:28:58.280Z</time>
      </trkpt>
      <trkpt lat="41.74864" lon="26.16646">
        <ele>83.164861</ele>
        <time>2022-02-26T10:29:01.275Z</time>
      </trkpt>
      <trkpt lat="41.74875" lon="26.16647">
        <ele>82.697179</ele>
        <time>2022-02-26T10:29:04.294Z</time>
      </trkpt>
      <trkpt lat="41.74887" lon="26.16647">
        <ele>82.731848</ele>
        <time>2022-02-26T10:29:07.283Z</time>
      </trkpt>
      <trkpt lat="41.74899" lon="26.16647">
        <ele>83.10005</ele>
        <time>2022-02-26T10:29:10.271Z</time>
      </trkpt>
      <trkpt lat="41.74911" lon="26.16648">
        <ele>83.477703</ele>
        <time>2022-02-26T10:29:13.285Z</time>
      </trkpt>
      <trkpt lat="41.74924" lon="26.16648">
        <ele>83.867665</ele>
        <time>2022-02-26T10:29:16.328Z</time>
      </trkpt>
      <trkpt lat="41.74937" lon="26.16649">
        <ele>84.279591</ele>
        <time>2022-02-26T10:29:19.294Z</time>
      </trkpt>
      <trkpt lat="41.7495" lon="26.1665">
        <ele>84.69175</ele>
        <time>2022-02-26T10:29:22.281Z</time>
      </trkpt>
      <trkpt lat="41.74963" lon="26.16651">
        <ele>85.079197</ele>
        <time>2022-02-26T10:29:25.276Z</time>
      </trkpt>
      <trkpt lat="41.74975" lon="26.16652">
        <ele>85.464034</ele>
        <time>2022-02-26T10:29:28.274Z</time>
      </trkpt>
      <trkpt lat="41.74988" lon="26.16653">
        <ele>85.848697</ele>
        <time>2022-02-26T10:29:31.311Z</time>
      </trkpt>
      <trkpt lat="41.75" lon="26.16655">
        <ele>86.241009</ele>
        <time>2022-02-26T10:29:34.262Z</time>
      </trkpt>
      <trkpt lat="41.75013" lon="26.16657">
        <ele>86.633587</ele>
        <time>2022-02-26T10:29:37.334Z</time>
      </trkpt>
      <trkpt lat="41.75026" lon="26.16659">
        <ele>87.042079</ele>
        <time>2022-02-26T10:29:40.290Z</time>
      </trkpt>
      <trkpt lat="41.75039" lon="26.16662">
        <ele>87.439938</ele>
        <time>2022-02-26T10:29:43.301Z</time>
      </trkpt>
      <trkpt lat="41.75052" lon="26.16665">
        <ele>87.852096</ele>
        <time>2022-02-26T10:29:46.281Z</time>
      </trkpt>
      <trkpt lat="41.75065" lon="26.16667">
        <ele>87.990913</ele>
        <time>2022-02-26T10:29:49.323Z</time>
      </trkpt>
      <trkpt lat="41.75077" lon="26.16669">
        <ele>87.828626</ele>
        <time>2022-02-26T10:29:52.272Z</time>
      </trkpt>
      <trkpt lat="41.75089" lon="26.16671">
        <ele>87.672758</ele>
        <time>2022-02-26T10:29:55.300Z</time>
      </trkpt>
      <trkpt lat="41.75101" lon="26.16673">
        <ele>87.51599</ele>
        <time>2022-02-26T10:29:58.283Z</time>
      </trkpt>
      <trkpt lat="41.75112" lon="26.16676">
        <ele>87.367959</ele>
        <time>2022-02-26T10:30:01.310Z</time>
      </trkpt>
      <trkpt lat="41.75123" lon="26.16678">
        <ele>87.22121</ele>
        <time>2022-02-26T10:30:04.275Z</time>
      </trkpt>
      <trkpt lat="41.75135" lon="26.1668">
        <ele>87.07203</ele>
        <time>2022-02-26T10:30:07.329Z</time>
      </trkpt>
      <trkpt lat="41.75146" lon="26.16682">
        <ele>86.924387</ele>
        <time>2022-02-26T10:30:10.254Z</time>
      </trkpt>
      <trkpt lat="41.75157" lon="26.16683">
        <ele>86.777078</ele>
        <time>2022-02-26T10:30:13.244Z</time>
      </trkpt>
      <trkpt lat="41.75168" lon="26.16685">
        <ele>86.632628</ele>
        <time>2022-02-26T10:30:16.244Z</time>
      </trkpt>
      <trkpt lat="41.75179" lon="26.16686">
        <ele>86.491866</ele>
        <time>2022-02-26T10:30:19.249Z</time>
      </trkpt>
      <trkpt lat="41.7519" lon="26.16688">
        <ele>86.348619</ele>
        <time>2022-02-26T10:30:22.245Z</time>
      </trkpt>
      <trkpt lat="41.75201" lon="26.16689">
        <ele>86.204325</ele>
        <time>2022-02-26T10:30:25.249Z</time>
      </trkpt>
      <trkpt lat="41.75212" lon="26.1669">
        <ele>86.059875</ele>
        <time>2022-02-26T10:30:28.254Z</time>
      </trkpt>
      <trkpt lat="41.75223" lon="26.16691">
        <ele>85.920822</ele>
        <time>2022-02-26T10:30:31.253Z</time>
      </trkpt>
      <trkpt lat="41.75233" lon="26.16691">
        <ele>85.788574</ele>
        <time>2022-02-26T10:30:34.256Z</time>
      </trkpt>
      <trkpt lat="41.75243" lon="26.16692">
        <ele>85.851398</ele>
        <time>2022-02-26T10:30:37.261Z</time>
      </trkpt>
      <trkpt lat="41.75253" lon="26.16693">
        <ele>86.040925</ele>
        <time>2022-02-26T10:30:40.254Z</time>
      </trkpt>
      <trkpt lat="41.75263" lon="26.16693">
        <ele>86.222777</ele>
        <time>2022-02-26T10:30:43.247Z</time>
      </trkpt>
      <trkpt lat="41.75273" lon="26.16694">
        <ele>86.414028</ele>
        <time>2022-02-26T10:30:46.245Z</time>
      </trkpt>
      <trkpt lat="41.75284" lon="26.16693">
        <ele>86.622304</ele>
        <time>2022-02-26T10:30:49.247Z</time>
      </trkpt>
      <trkpt lat="41.75295" lon="26.16693">
        <ele>86.824974</ele>
        <time>2022-02-26T10:30:52.258Z</time>
      </trkpt>
      <trkpt lat="41.75306" lon="26.16693">
        <ele>87.029536</ele>
        <time>2022-02-26T10:30:55.248Z</time>
      </trkpt>
      <trkpt lat="41.75316" lon="26.16692">
        <ele>87.228661</ele>
        <time>2022-02-26T10:30:58.255Z</time>
      </trkpt>
      <trkpt lat="41.75327" lon="26.16691">
        <ele>87.426184</ele>
        <time>2022-02-26T10:31:01.254Z</time>
      </trkpt>
      <trkpt lat="41.75337" lon="26.1669">
        <ele>87.617748</ele>
        <time>2022-02-26T10:31:04.252Z</time>
      </trkpt>
      <trkpt lat="41.75347" lon="26.16689">
        <ele>87.805957</ele>
        <time>2022-02-26T10:31:07.248Z</time>
      </trkpt>
      <trkpt lat="41.75357" lon="26.16688">
        <ele>87.999705</ele>
        <time>2022-02-26T10:31:10.247Z</time>
      </trkpt>
      <trkpt lat="41.75367" lon="26.16687">
        <ele>88.189678</ele>
        <time>2022-02-26T10:31:13.249Z</time>
      </trkpt>
      <trkpt lat="41.75378" lon="26.16685">
        <ele>88.395916</ele>
        <time>2022-02-26T10:31:16.250Z</time>
      </trkpt>
      <trkpt lat="41.75388" lon="26.16683">
        <ele>88.597729</ele>
        <time>2022-02-26T10:31:19.268Z</time>
      </trkpt>
      <trkpt lat="41.75399" lon="26.16681">
        <ele>88.809261</ele>
        <time>2022-02-26T10:31:22.247Z</time>
      </trkpt>
      <trkpt lat="41.75411" lon="26.1668">
        <ele>89.026767</ele>
        <time>2022-02-26T10:31:25.254Z</time>
      </trkpt>
      <trkpt lat="41.75422" lon="26.16677">
        <ele>89.149514</ele>
        <time>2022-02-26T10:31:28.245Z</time>
      </trkpt>
      <trkpt lat="41.75432" lon="26.16674">
        <ele>89.166022</ele>
        <time>2022-02-26T10:31:31.253Z</time>
      </trkpt>
      <trkpt lat="41.75443" lon="26.16672">
        <ele>89.181975</ele>
        <time>2022-02-26T10:31:34.252Z</time>
      </trkpt>
      <trkpt lat="41.75453" lon="26.16669">
        <ele>89.197909</ele>
        <time>2022-02-26T10:31:37.254Z</time>
      </trkpt>
      <trkpt lat="41.75463" lon="26.16666">
        <ele>89.213348</ele>
        <time>2022-02-26T10:31:40.258Z</time>
      </trkpt>
      <trkpt lat="41.75472" lon="26.16663">
        <ele>89.228539</ele>
        <time>2022-02-26T10:31:43.253Z</time>
      </trkpt>
      <trkpt lat="41.75482" lon="26.1666">
        <ele>89.24353</ele>
        <time>2022-02-26T10:31:46.251Z</time>
      </trkpt>
      <trkpt lat="41.75492" lon="26.16658">
        <ele>89.258373</ele>
        <time>2022-02-26T10:31:49.249Z</time>
      </trkpt>
      <trkpt lat="41.75502" lon="26.16654">
        <ele>89.274209</ele>
        <time>2022-02-26T10:31:52.249Z</time>
      </trkpt>
      <trkpt lat="41.75512" lon="26.1665">
        <ele>89.290705</ele>
        <time>2022-02-26T10:31:55.273Z</time>
      </trkpt>
      <trkpt lat="41.75522" lon="26.16646">
        <ele>89.307166</ele>
        <time>2022-02-26T10:31:58.253Z</time>
      </trkpt>
      <trkpt lat="41.75532" lon="26.16642">
        <ele>89.322327</ele>
        <time>2022-02-26T10:32:01.290Z</time>
      </trkpt>
      <trkpt lat="41.75541" lon="26.16637">
        <ele>89.338268</ele>
        <time>2022-02-26T10:32:04.256Z</time>
      </trkpt>
      <trkpt lat="41.75551" lon="26.16632">
        <ele>89.354007</ele>
        <time>2022-02-26T10:32:07.250Z</time>
      </trkpt>
      <trkpt lat="41.75561" lon="26.16627">
        <ele>89.37015</ele>
        <time>2022-02-26T10:32:10.243Z</time>
      </trkpt>
      <trkpt lat="41.7557" lon="26.16623">
        <ele>89.385018</ele>
        <time>2022-02-26T10:32:13.255Z</time>
      </trkpt>
      <trkpt lat="41.75579" lon="26.16619">
        <ele>89.398727</ele>
        <time>2022-02-26T10:32:16.247Z</time>
      </trkpt>
      <trkpt lat="41.75587" lon="26.16614">
        <ele>89.412447</ele>
        <time>2022-02-26T10:32:19.255Z</time>
      </trkpt>
      <trkpt lat="41.75598" lon="26.1661">
        <ele>89.53028</ele>
        <time>2022-02-26T10:32:23.247Z</time>
      </trkpt>
      <trkpt lat="41.75607" lon="26.16605">
        <ele>89.657018</ele>
        <time>2022-02-26T10:32:26.251Z</time>
      </trkpt>
      <trkpt lat="41.75615" lon="26.16601">
        <ele>89.774558</ele>
        <time>2022-02-26T10:32:29.266Z</time>
      </trkpt>
      <trkpt lat="41.75626" lon="26.16595">
        <ele>89.917941</ele>
        <time>2022-02-26T10:32:33.287Z</time>
      </trkpt>
      <trkpt lat="41.75635" lon="26.16589">
        <ele>90.047198</ele>
        <time>2022-02-26T10:32:41.323Z</time>
      </trkpt>
      <trkpt lat="41.75643" lon="26.16584">
        <ele>90.166483</ele>
        <time>2022-02-26T10:32:45.288Z</time>
      </trkpt>
      <trkpt lat="41.75653" lon="26.16579">
        <ele>90.309288</ele>
        <time>2022-02-26T10:32:48.291Z</time>
      </trkpt>
      <trkpt lat="41.75663" lon="26.16571">
        <ele>90.45283</ele>
        <time>2022-02-26T10:32:51.267Z</time>
      </trkpt>
      <trkpt lat="41.75671" lon="26.16564">
        <ele>90.576236</ele>
        <time>2022-02-26T10:32:54.283Z</time>
      </trkpt>
      <trkpt lat="41.75679" lon="26.16556">
        <ele>90.715349</ele>
        <time>2022-02-26T10:32:58.265Z</time>
      </trkpt>
      <trkpt lat="41.75682" lon="26.16544">
        <ele>90.838361</ele>
        <time>2022-02-26T10:33:02.281Z</time>
      </trkpt>
      <trkpt lat="41.75683" lon="26.16528">
        <ele>90.985624</ele>
        <time>2022-02-26T10:33:06.273Z</time>
      </trkpt>
      <trkpt lat="41.75687" lon="26.16517">
        <ele>91.105825</ele>
        <time>2022-02-26T10:33:10.265Z</time>
      </trkpt>
      <trkpt lat="41.75693" lon="26.16508">
        <ele>91.225394</ele>
        <time>2022-02-26T10:33:14.293Z</time>
      </trkpt>
      <trkpt lat="41.75701" lon="26.165">
        <ele>91.350959</ele>
        <time>2022-02-26T10:33:19.276Z</time>
      </trkpt>
      <trkpt lat="41.75708" lon="26.16493">
        <ele>91.471913</ele>
        <time>2022-02-26T10:33:25.262Z</time>
      </trkpt>
      <trkpt lat="41.75716" lon="26.16486">
        <ele>91.594819</ele>
        <time>2022-02-26T10:33:31.267Z</time>
      </trkpt>
      <trkpt lat="41.75725" lon="26.1648">
        <ele>91.728606</ele>
        <time>2022-02-26T10:33:35.269Z</time>
      </trkpt>
      <trkpt lat="41.75735" lon="26.16472">
        <ele>92.001481</ele>
        <time>2022-02-26T10:33:39.272Z</time>
      </trkpt>
      <trkpt lat="41.75744" lon="26.16464">
        <ele>92.270284</ele>
        <time>2022-02-26T10:33:43.290Z</time>
      </trkpt>
      <trkpt lat="41.75753" lon="26.16457">
        <ele>92.529851</ele>
        <time>2022-02-26T10:33:47.272Z</time>
      </trkpt>
      <trkpt lat="41.75762" lon="26.16449">
        <ele>92.77798</ele>
        <time>2022-02-26T10:33:51.284Z</time>
      </trkpt>
      <trkpt lat="41.75769" lon="26.16442">
        <ele>93.013633</ele>
        <time>2022-02-26T10:33:56.270Z</time>
      </trkpt>
      <trkpt lat="41.75788" lon="26.16424">
        <ele>93.589818</ele>
        <time>2022-02-26T10:40:55.314Z</time>
      </trkpt>
      <trkpt lat="41.75795" lon="26.16412">
        <ele>93.875181</ele>
        <time>2022-02-26T10:40:59.276Z</time>
      </trkpt>
      <trkpt lat="41.758" lon="26.164">
        <ele>94.133448</ele>
        <time>2022-02-26T10:41:02.312Z</time>
      </trkpt>
      <trkpt lat="41.75804" lon="26.16389">
        <ele>94.365439</ele>
        <time>2022-02-26T10:41:05.274Z</time>
      </trkpt>
      <trkpt lat="41.7581" lon="26.16377">
        <ele>94.628674</ele>
        <time>2022-02-26T10:41:09.281Z</time>
      </trkpt>
      <trkpt lat="41.75815" lon="26.16365">
        <ele>94.886708</ele>
        <time>2022-02-26T10:41:13.288Z</time>
      </trkpt>
      <trkpt lat="41.75822" lon="26.16354">
        <ele>95.142254</ele>
        <time>2022-02-26T10:41:17.288Z</time>
      </trkpt>
      <trkpt lat="41.75826" lon="26.16343">
        <ele>95.371457</ele>
        <time>2022-02-26T10:41:21.270Z</time>
      </trkpt>
      <trkpt lat="41.75829" lon="26.16332">
        <ele>95.6022</ele>
        <time>2022-02-26T10:41:25.280Z</time>
      </trkpt>
      <trkpt lat="41.75835" lon="26.16322">
        <ele>95.830943</ele>
        <time>2022-02-26T10:41:31.284Z</time>
      </trkpt>
      <trkpt lat="41.75849" lon="26.16324">
        <ele>96.185426</ele>
        <time>2022-02-26T10:44:38.278Z</time>
      </trkpt>
      <trkpt lat="41.75859" lon="26.16328">
        <ele>96.161965</ele>
        <time>2022-02-26T10:44:42.272Z</time>
      </trkpt>
      <trkpt lat="41.7587" lon="26.16332">
        <ele>96.052585</ele>
        <time>2022-02-26T10:44:46.260Z</time>
      </trkpt>
      <trkpt lat="41.75881" lon="26.16336">
        <ele>95.938229</ele>
        <time>2022-02-26T10:44:50.281Z</time>
      </trkpt>
      <trkpt lat="41.7589" lon="26.16336">
        <ele>95.843034</ele>
        <time>2022-02-26T10:44:53.275Z</time>
      </trkpt>
      <trkpt lat="41.75899" lon="26.16333">
        <ele>95.753435</ele>
        <time>2022-02-26T10:44:56.272Z</time>
      </trkpt>
      <trkpt lat="41.7591" lon="26.16329">
        <ele>95.640852</ele>
        <time>2022-02-26T10:45:00.285Z</time>
      </trkpt>
      <trkpt lat="41.75919" lon="26.16325">
        <ele>95.549418</ele>
        <time>2022-02-26T10:45:03.282Z</time>
      </trkpt>
      <trkpt lat="41.75927" lon="26.16321">
        <ele>95.457751</ele>
        <time>2022-02-26T10:45:06.270Z</time>
      </trkpt>
      <trkpt lat="41.75938" lon="26.16314">
        <ele>95.340659</ele>
        <time>2022-02-26T10:45:10.287Z</time>
      </trkpt>
      <trkpt lat="41.75946" lon="26.16307">
        <ele>95.250049</ele>
        <time>2022-02-26T10:45:13.279Z</time>
      </trkpt>
      <trkpt lat="41.75953" lon="26.163">
        <ele>95.159965</ele>
        <time>2022-02-26T10:45:16.270Z</time>
      </trkpt>
      <trkpt lat="41.75961" lon="26.1629">
        <ele>95.047771</ele>
        <time>2022-02-26T10:45:20.281Z</time>
      </trkpt>
      <trkpt lat="41.75969" lon="26.16282">
        <ele>94.955673</ele>
        <time>2022-02-26T10:45:23.294Z</time>
      </trkpt>
      <trkpt lat="41.75979" lon="26.16275">
        <ele>94.840835</ele>
        <time>2022-02-26T10:45:27.275Z</time>
      </trkpt>
      <trkpt lat="41.75989" lon="26.16267">
        <ele>94.72821</ele>
        <time>2022-02-26T10:45:31.290Z</time>
      </trkpt>
      <trkpt lat="41.75998" lon="26.16258">
        <ele>94.614966</ele>
        <time>2022-02-26T10:45:35.268Z</time>
      </trkpt>
      <trkpt lat="41.76006" lon="26.16252">
        <ele>94.522215</ele>
        <time>2022-02-26T10:45:38.283Z</time>
      </trkpt>
      <trkpt lat="41.76014" lon="26.16246">
        <ele>94.455555</ele>
        <time>2022-02-26T10:45:41.308Z</time>
      </trkpt>
      <trkpt lat="41.76023" lon="26.16239">
        <ele>94.440284</ele>
        <time>2022-02-26T10:45:44.285Z</time>
      </trkpt>
      <trkpt lat="41.76031" lon="26.16232">
        <ele>94.425026</ele>
        <time>2022-02-26T10:45:47.267Z</time>
      </trkpt>
      <trkpt lat="41.76039" lon="26.16223">
        <ele>94.408233</ele>
        <time>2022-02-26T10:45:50.291Z</time>
      </trkpt>
      <trkpt lat="41.76048" lon="26.16215">
        <ele>94.391718</ele>
        <time>2022-02-26T10:45:53.274Z</time>
      </trkpt>
      <trkpt lat="41.76055" lon="26.16206">
        <ele>94.375231</ele>
        <time>2022-02-26T10:45:56.272Z</time>
      </trkpt>
      <trkpt lat="41.76063" lon="26.16197">
        <ele>94.358947</ele>
        <time>2022-02-26T10:45:59.325Z</time>
      </trkpt>
      <trkpt lat="41.76071" lon="26.16189">
        <ele>94.343329</ele>
        <time>2022-02-26T10:46:02.282Z</time>
      </trkpt>
      <trkpt lat="41.76078" lon="26.1618">
        <ele>94.327542</ele>
        <time>2022-02-26T10:46:05.271Z</time>
      </trkpt>
      <trkpt lat="41.76086" lon="26.16172">
        <ele>94.312087</ele>
        <time>2022-02-26T10:46:08.328Z</time>
      </trkpt>
      <trkpt lat="41.76093" lon="26.16163">
        <ele>94.296788</ele>
        <time>2022-02-26T10:46:11.283Z</time>
      </trkpt>
      <trkpt lat="41.761" lon="26.16155">
        <ele>94.281719</ele>
        <time>2022-02-26T10:46:14.255Z</time>
      </trkpt>
      <trkpt lat="41.76108" lon="26.16147">
        <ele>94.266328</ele>
        <time>2022-02-26T10:46:17.279Z</time>
      </trkpt>
      <trkpt lat="41.76115" lon="26.16139">
        <ele>94.251532</ele>
        <time>2022-02-26T10:46:20.268Z</time>
      </trkpt>
      <trkpt lat="41.76122" lon="26.16131">
        <ele>94.23701</ele>
        <time>2022-02-26T10:46:23.273Z</time>
      </trkpt>
      <trkpt lat="41.76129" lon="26.16123">
        <ele>94.222336</ele>
        <time>2022-02-26T10:46:26.276Z</time>
      </trkpt>
      <trkpt lat="41.76136" lon="26.16115">
        <ele>94.207871</ele>
        <time>2022-02-26T10:46:29.268Z</time>
      </trkpt>
      <trkpt lat="41.76145" lon="26.16106">
        <ele>94.189456</ele>
        <time>2022-02-26T10:46:33.280Z</time>
      </trkpt>
      <trkpt lat="41.76152" lon="26.16098">
        <ele>94.176587</ele>
        <time>2022-02-26T10:46:36.269Z</time>
      </trkpt>
      <trkpt lat="41.7616" lon="26.16089">
        <ele>94.279918</ele>
        <time>2022-02-26T10:46:39.274Z</time>
      </trkpt>
      <trkpt lat="41.76168" lon="26.16081">
        <ele>94.377203</ele>
        <time>2022-02-26T10:46:42.275Z</time>
      </trkpt>
      <trkpt lat="41.76175" lon="26.16072">
        <ele>94.4753</ele>
        <time>2022-02-26T10:46:45.271Z</time>
      </trkpt>
      <trkpt lat="41.76183" lon="26.16064">
        <ele>94.571346</ele>
        <time>2022-02-26T10:46:48.275Z</time>
      </trkpt>
      <trkpt lat="41.7619" lon="26.16057">
        <ele>94.661868</ele>
        <time>2022-02-26T10:46:51.278Z</time>
      </trkpt>
      <trkpt lat="41.76198" lon="26.16049">
        <ele>94.754819</ele>
        <time>2022-02-26T10:46:54.287Z</time>
      </trkpt>
      <trkpt lat="41.76205" lon="26.16041">
        <ele>94.851648</ele>
        <time>2022-02-26T10:46:57.272Z</time>
      </trkpt>
      <trkpt lat="41.76213" lon="26.16032">
        <ele>94.952029</ele>
        <time>2022-02-26T10:47:00.280Z</time>
      </trkpt>
      <trkpt lat="41.76221" lon="26.16024">
        <ele>95.046717</ele>
        <time>2022-02-26T10:47:03.270Z</time>
      </trkpt>
      <trkpt lat="41.76228" lon="26.16017">
        <ele>95.143093</ele>
        <time>2022-02-26T10:47:06.311Z</time>
      </trkpt>
      <trkpt lat="41.76236" lon="26.16009">
        <ele>95.239021</ele>
        <time>2022-02-26T10:47:09.281Z</time>
      </trkpt>
      <trkpt lat="41.76244" lon="26.16">
        <ele>95.338467</ele>
        <time>2022-02-26T10:47:12.299Z</time>
      </trkpt>
      <trkpt lat="41.76252" lon="26.15992">
        <ele>95.43761</ele>
        <time>2022-02-26T10:47:15.271Z</time>
      </trkpt>
      <trkpt lat="41.7626" lon="26.15983">
        <ele>95.540186</ele>
        <time>2022-02-26T10:47:18.303Z</time>
      </trkpt>
      <trkpt lat="41.76268" lon="26.15975">
        <ele>95.641073</ele>
        <time>2022-02-26T10:47:21.253Z</time>
      </trkpt>
      <trkpt lat="41.76275" lon="26.15966">
        <ele>95.739221</ele>
        <time>2022-02-26T10:47:24.258Z</time>
      </trkpt>
      <trkpt lat="41.76281" lon="26.15956">
        <ele>95.839129</ele>
        <time>2022-02-26T10:47:27.298Z</time>
      </trkpt>
      <trkpt lat="41.76288" lon="26.15946">
        <ele>95.938788</ele>
        <time>2022-02-26T10:47:30.250Z</time>
      </trkpt>
      <trkpt lat="41.76295" lon="26.15937">
        <ele>95.884979</ele>
        <time>2022-02-26T10:47:33.248Z</time>
      </trkpt>
      <trkpt lat="41.76302" lon="26.15926">
        <ele>95.761064</ele>
        <time>2022-02-26T10:47:37.254Z</time>
      </trkpt>
      <trkpt lat="41.76303" lon="26.1591">
        <ele>95.633472</ele>
        <time>2022-02-26T10:47:41.263Z</time>
      </trkpt>
      <trkpt lat="41.76302" lon="26.15898">
        <ele>95.533617</ele>
        <time>2022-02-26T10:47:44.279Z</time>
      </trkpt>
      <trkpt lat="41.76301" lon="26.15886">
        <ele>95.430826</ele>
        <time>2022-02-26T10:47:47.254Z</time>
      </trkpt>
      <trkpt lat="41.76302" lon="26.15872">
        <ele>95.317184</ele>
        <time>2022-02-26T10:47:50.256Z</time>
      </trkpt>
      <trkpt lat="41.76308" lon="26.15857">
        <ele>95.1749</ele>
        <time>2022-02-26T10:47:53.267Z</time>
      </trkpt>
      <trkpt lat="41.76315" lon="26.15848">
        <ele>95.064352</ele>
        <time>2022-02-26T10:47:55.246Z</time>
      </trkpt>
      <trkpt lat="41.76325" lon="26.1584">
        <ele>94.936014</ele>
        <time>2022-02-26T10:47:57.253Z</time>
      </trkpt>
      <trkpt lat="41.76335" lon="26.15832">
        <ele>94.808169</ele>
        <time>2022-02-26T10:47:59.249Z</time>
      </trkpt>
      <trkpt lat="41.76345" lon="26.15825">
        <ele>94.680905</ele>
        <time>2022-02-26T10:48:01.255Z</time>
      </trkpt>
      <trkpt lat="41.76356" lon="26.15818">
        <ele>94.550502</ele>
        <time>2022-02-26T10:48:03.253Z</time>
      </trkpt>
      <trkpt lat="41.76367" lon="26.15811">
        <ele>94.416568</ele>
        <time>2022-02-26T10:48:05.255Z</time>
      </trkpt>
      <trkpt lat="41.76377" lon="26.15804">
        <ele>94.282933</ele>
        <time>2022-02-26T10:48:07.259Z</time>
      </trkpt>
      <trkpt lat="41.76389" lon="26.15797">
        <ele>94.144292</ele>
        <time>2022-02-26T10:48:09.253Z</time>
      </trkpt>
      <trkpt lat="41.764" lon="26.1579">
        <ele>94.006594</ele>
        <time>2022-02-26T10:48:11.257Z</time>
      </trkpt>
      <trkpt lat="41.76411" lon="26.15782">
        <ele>93.853117</ele>
        <time>2022-02-26T10:48:13.254Z</time>
      </trkpt>
      <trkpt lat="41.76423" lon="26.15775">
        <ele>93.691404</ele>
        <time>2022-02-26T10:48:15.259Z</time>
      </trkpt>
      <trkpt lat="41.76434" lon="26.15767">
        <ele>93.526172</ele>
        <time>2022-02-26T10:48:17.259Z</time>
      </trkpt>
      <trkpt lat="41.76446" lon="26.15759">
        <ele>93.363049</ele>
        <time>2022-02-26T10:48:19.258Z</time>
      </trkpt>
      <trkpt lat="41.76458" lon="26.15752">
        <ele>93.197816</ele>
        <time>2022-02-26T10:48:21.268Z</time>
      </trkpt>
      <trkpt lat="41.76468" lon="26.15742">
        <ele>93.035624</ele>
        <time>2022-02-26T10:48:23.251Z</time>
      </trkpt>
      <trkpt lat="41.76478" lon="26.1573">
        <ele>92.868636</ele>
        <time>2022-02-26T10:48:25.246Z</time>
      </trkpt>
      <trkpt lat="41.76489" lon="26.15718">
        <ele>92.69221</ele>
        <time>2022-02-26T10:48:27.253Z</time>
      </trkpt>
      <trkpt lat="41.76499" lon="26.15705">
        <ele>92.509447</ele>
        <time>2022-02-26T10:48:29.245Z</time>
      </trkpt>
      <trkpt lat="41.76509" lon="26.15691">
        <ele>92.32872</ele>
        <time>2022-02-26T10:48:31.250Z</time>
      </trkpt>
      <trkpt lat="41.76515" lon="26.15676">
        <ele>92.163395</ele>
        <time>2022-02-26T10:48:33.255Z</time>
      </trkpt>
      <trkpt lat="41.76521" lon="26.15661">
        <ele>92.011835</ele>
        <time>2022-02-26T10:48:35.249Z</time>
      </trkpt>
      <trkpt lat="41.76525" lon="26.15647">
        <ele>91.867685</ele>
        <time>2022-02-26T10:48:37.255Z</time>
      </trkpt>
      <trkpt lat="41.76529" lon="26.15635">
        <ele>91.737416</ele>
        <time>2022-02-26T10:48:39.252Z</time>
      </trkpt>
      <trkpt lat="41.76532" lon="26.15623">
        <ele>91.847578</ele>
        <time>2022-02-26T10:48:41.268Z</time>
      </trkpt>
      <trkpt lat="41.76536" lon="26.15607">
        <ele>92.196519</ele>
        <time>2022-02-26T10:48:44.253Z</time>
      </trkpt>
      <trkpt lat="41.76541" lon="26.15591">
        <ele>92.536804</ele>
        <time>2022-02-26T10:48:47.256Z</time>
      </trkpt>
      <trkpt lat="41.76544" lon="26.15575">
        <ele>92.86404</ele>
        <time>2022-02-26T10:48:50.247Z</time>
      </trkpt>
      <trkpt lat="41.76548" lon="26.15561">
        <ele>93.178797</ele>
        <time>2022-02-26T10:48:53.247Z</time>
      </trkpt>
      <trkpt lat="41.76553" lon="26.15546">
        <ele>93.493766</ele>
        <time>2022-02-26T10:48:56.248Z</time>
      </trkpt>
      <trkpt lat="41.76557" lon="26.15532">
        <ele>93.796317</ele>
        <time>2022-02-26T10:48:59.250Z</time>
      </trkpt>
      <trkpt lat="41.76562" lon="26.15519">
        <ele>94.094623</ele>
        <time>2022-02-26T10:49:02.259Z</time>
      </trkpt>
      <trkpt lat="41.76566" lon="26.15506">
        <ele>94.393349</ele>
        <time>2022-02-26T10:49:05.268Z</time>
      </trkpt>
      <trkpt lat="41.76571" lon="26.15492">
        <ele>94.696287</ele>
        <time>2022-02-26T10:49:08.260Z</time>
      </trkpt>
      <trkpt lat="41.76577" lon="26.15478">
        <ele>95.014816</ele>
        <time>2022-02-26T10:49:11.260Z</time>
      </trkpt>
      <trkpt lat="41.76583" lon="26.15464">
        <ele>95.333957</ele>
        <time>2022-02-26T10:49:14.249Z</time>
      </trkpt>
      <trkpt lat="41.76588" lon="26.15451">
        <ele>95.646555</ele>
        <time>2022-02-26T10:49:17.256Z</time>
      </trkpt>
      <trkpt lat="41.76593" lon="26.15438">
        <ele>95.948504</ele>
        <time>2022-02-26T10:49:20.250Z</time>
      </trkpt>
      <trkpt lat="41.76599" lon="26.15425">
        <ele>96.239008</ele>
        <time>2022-02-26T10:49:23.283Z</time>
      </trkpt>
      <trkpt lat="41.76604" lon="26.15412">
        <ele>96.539425</ele>
        <time>2022-02-26T10:49:26.265Z</time>
      </trkpt>
      <trkpt lat="41.76611" lon="26.15399">
        <ele>96.250194</ele>
        <time>2022-02-26T10:49:29.275Z</time>
      </trkpt>
      <trkpt lat="41.76618" lon="26.15385">
        <ele>95.918462</ele>
        <time>2022-02-26T10:49:32.253Z</time>
      </trkpt>
      <trkpt lat="41.76625" lon="26.15371">
        <ele>95.582779</ele>
        <time>2022-02-26T10:49:35.264Z</time>
      </trkpt>
      <trkpt lat="41.76632" lon="26.15357">
        <ele>95.248822</ele>
        <time>2022-02-26T10:49:38.251Z</time>
      </trkpt>
      <trkpt lat="41.7664" lon="26.15343">
        <ele>94.889165</ele>
        <time>2022-02-26T10:49:41.249Z</time>
      </trkpt>
      <trkpt lat="41.76646" lon="26.15333">
        <ele>94.638698</ele>
        <time>2022-02-26T10:49:43.249Z</time>
      </trkpt>
      <trkpt lat="41.76652" lon="26.15323">
        <ele>94.376834</ele>
        <time>2022-02-26T10:49:45.251Z</time>
      </trkpt>
      <trkpt lat="41.76658" lon="26.15313">
        <ele>94.10832</ele>
        <time>2022-02-26T10:49:47.276Z</time>
      </trkpt>
      <trkpt lat="41.76665" lon="26.15302">
        <ele>93.839806</ele>
        <time>2022-02-26T10:49:49.254Z</time>
      </trkpt>
      <trkpt lat="41.76671" lon="26.15292">
        <ele>93.561697</ele>
        <time>2022-02-26T10:49:51.251Z</time>
      </trkpt>
      <trkpt lat="41.76678" lon="26.15281">
        <ele>93.280607</ele>
        <time>2022-02-26T10:49:53.279Z</time>
      </trkpt>
      <trkpt lat="41.76684" lon="26.1527">
        <ele>93.009132</ele>
        <time>2022-02-26T10:49:55.245Z</time>
      </trkpt>
      <trkpt lat="41.7669" lon="26.15259">
        <ele>92.739377</ele>
        <time>2022-02-26T10:49:57.268Z</time>
      </trkpt>
      <trkpt lat="41.76697" lon="26.15248">
        <ele>92.455138</ele>
        <time>2022-02-26T10:49:59.278Z</time>
      </trkpt>
      <trkpt lat="41.76702" lon="26.15237">
        <ele>92.180391</ele>
        <time>2022-02-26T10:50:01.247Z</time>
      </trkpt>
      <trkpt lat="41.76707" lon="26.15225">
        <ele>91.917252</ele>
        <time>2022-02-26T10:50:03.262Z</time>
      </trkpt>
      <trkpt lat="41.76712" lon="26.15208">
        <ele>91.830938</ele>
        <time>2022-02-26T10:50:06.268Z</time>
      </trkpt>
      <trkpt lat="41.76715" lon="26.15192">
        <ele>92.03545</ele>
        <time>2022-02-26T10:50:09.249Z</time>
      </trkpt>
      <trkpt lat="41.76718" lon="26.15177">
        <ele>92.236048</ele>
        <time>2022-02-26T10:50:12.246Z</time>
      </trkpt>
      <trkpt lat="41.7672" lon="26.1516">
        <ele>92.447629</ele>
        <time>2022-02-26T10:50:15.253Z</time>
      </trkpt>
      <trkpt lat="41.76723" lon="26.15143">
        <ele>92.654043</ele>
        <time>2022-02-26T10:50:18.248Z</time>
      </trkpt>
      <trkpt lat="41.76725" lon="26.15127">
        <ele>92.855639</ele>
        <time>2022-02-26T10:50:21.257Z</time>
      </trkpt>
      <trkpt lat="41.76727" lon="26.15112">
        <ele>93.049157</ele>
        <time>2022-02-26T10:50:24.261Z</time>
      </trkpt>
      <trkpt lat="41.76729" lon="26.15097">
        <ele>93.236256</ele>
        <time>2022-02-26T10:50:27.262Z</time>
      </trkpt>
      <trkpt lat="41.76732" lon="26.15082">
        <ele>93.423085</ele>
        <time>2022-02-26T10:50:30.246Z</time>
      </trkpt>
      <trkpt lat="41.76734" lon="26.15067">
        <ele>93.608975</ele>
        <time>2022-02-26T10:50:33.250Z</time>
      </trkpt>
      <trkpt lat="41.76736" lon="26.15052">
        <ele>93.788253</ele>
        <time>2022-02-26T10:50:36.246Z</time>
      </trkpt>
      <trkpt lat="41.76738" lon="26.15038">
        <ele>93.967786</ele>
        <time>2022-02-26T10:50:39.278Z</time>
      </trkpt>
      <trkpt lat="41.76741" lon="26.15024">
        <ele>94.151291</ele>
        <time>2022-02-26T10:50:42.253Z</time>
      </trkpt>
      <trkpt lat="41.76744" lon="26.1501">
        <ele>94.332074</ele>
        <time>2022-02-26T10:50:45.279Z</time>
      </trkpt>
      <trkpt lat="41.76749" lon="26.14996">
        <ele>94.518612</ele>
        <time>2022-02-26T10:50:48.245Z</time>
      </trkpt>
      <trkpt lat="41.76754" lon="26.14983">
        <ele>94.683783</ele>
        <time>2022-02-26T10:50:51.278Z</time>
      </trkpt>
      <trkpt lat="41.76762" lon="26.14972">
        <ele>94.589956</ele>
        <time>2022-02-26T10:50:54.248Z</time>
      </trkpt>
      <trkpt lat="41.76772" lon="26.14964">
        <ele>94.492221</ele>
        <time>2022-02-26T10:50:57.251Z</time>
      </trkpt>
      <trkpt lat="41.76782" lon="26.14953">
        <ele>94.387436</ele>
        <time>2022-02-26T10:51:00.250Z</time>
      </trkpt>
      <trkpt lat="41.76792" lon="26.14942">
        <ele>94.276261</ele>
        <time>2022-02-26T10:51:03.252Z</time>
      </trkpt>
      <trkpt lat="41.76802" lon="26.1493">
        <ele>94.166358</ele>
        <time>2022-02-26T10:51:06.250Z</time>
      </trkpt>
      <trkpt lat="41.76812" lon="26.14919">
        <ele>94.057809</ele>
        <time>2022-02-26T10:51:09.251Z</time>
      </trkpt>
      <trkpt lat="41.76823" lon="26.14909">
        <ele>93.949003</ele>
        <time>2022-02-26T10:51:12.247Z</time>
      </trkpt>
      <trkpt lat="41.76835" lon="26.14901">
        <ele>93.836459</ele>
        <time>2022-02-26T10:51:15.255Z</time>
      </trkpt>
      <trkpt lat="41.76848" lon="26.14896">
        <ele>93.726215</ele>
        <time>2022-02-26T10:51:18.291Z</time>
      </trkpt>
      <trkpt lat="41.76857" lon="26.14894">
        <ele>93.649666</ele>
        <time>2022-02-26T10:51:20.252Z</time>
      </trkpt>
      <trkpt lat="41.76865" lon="26.14891">
        <ele>93.573935</ele>
        <time>2022-02-26T10:51:22.251Z</time>
      </trkpt>
      <trkpt lat="41.76878" lon="26.14888">
        <ele>93.463787</ele>
        <time>2022-02-26T10:51:25.246Z</time>
      </trkpt>
      <trkpt lat="41.76891" lon="26.14885">
        <ele>93.360426</ele>
        <time>2022-02-26T10:51:28.252Z</time>
      </trkpt>
      <trkpt lat="41.76903" lon="26.14883">
        <ele>93.252429</ele>
        <time>2022-02-26T10:51:31.261Z</time>
      </trkpt>
      <trkpt lat="41.76915" lon="26.1488">
        <ele>93.038308</ele>
        <time>2022-02-26T10:51:34.245Z</time>
      </trkpt>
      <trkpt lat="41.76927" lon="26.14877">
        <ele>92.65987</ele>
        <time>2022-02-26T10:51:37.251Z</time>
      </trkpt>
      <trkpt lat="41.76937" lon="26.14872">
        <ele>92.303357</ele>
        <time>2022-02-26T10:51:40.255Z</time>
      </trkpt>
      <trkpt lat="41.76946" lon="26.14869">
        <ele>91.997624</ele>
        <time>2022-02-26T10:51:43.250Z</time>
      </trkpt>
      <trkpt lat="41.76956" lon="26.14883">
        <ele>91.504226</ele>
        <time>2022-02-26T10:52:13.259Z</time>
      </trkpt>
      <trkpt lat="41.7696" lon="26.14894">
        <ele>91.203929</ele>
        <time>2022-02-26T10:52:18.255Z</time>
      </trkpt>
      <trkpt lat="41.76967" lon="26.14904">
        <ele>90.87397</ele>
        <time>2022-02-26T10:52:25.272Z</time>
      </trkpt>
      <trkpt lat="41.76974" lon="26.14914">
        <ele>90.545056</ele>
        <time>2022-02-26T10:52:31.255Z</time>
      </trkpt>
      <trkpt lat="41.7698" lon="26.14923">
        <ele>90.240828</ele>
        <time>2022-02-26T10:52:36.253Z</time>
      </trkpt>
      <trkpt lat="41.76987" lon="26.14935">
        <ele>89.870528</ele>
        <time>2022-02-26T10:52:43.252Z</time>
      </trkpt>
      <trkpt lat="41.76993" lon="26.14945">
        <ele>89.564786</ele>
        <time>2022-02-26T10:52:51.279Z</time>
      </trkpt>
      <trkpt lat="41.77001" lon="26.14952">
        <ele>89.248856</ele>
        <time>2022-02-26T10:52:59.248Z</time>
      </trkpt>
      <trkpt lat="41.77013" lon="26.14939">
        <ele>88.753513</ele>
        <time>2022-02-26T10:53:36.276Z</time>
      </trkpt>
      <trkpt lat="41.77024" lon="26.14916">
        <ele>88.068412</ele>
        <time>2022-02-26T10:54:08.254Z</time>
      </trkpt>
      <trkpt lat="41.77032" lon="26.14907">
        <ele>87.742512</ele>
        <time>2022-02-26T10:54:13.249Z</time>
      </trkpt>
      <trkpt lat="41.77038" lon="26.14898">
        <ele>87.433821</ele>
        <time>2022-02-26T10:54:18.250Z</time>
      </trkpt>
      <trkpt lat="41.77046" lon="26.1489">
        <ele>87.170148</ele>
        <time>2022-02-26T10:54:25.251Z</time>
      </trkpt>
      <trkpt lat="41.77053" lon="26.14881">
        <ele>86.97502</ele>
        <time>2022-02-26T10:54:29.251Z</time>
      </trkpt>
      <trkpt lat="41.77062" lon="26.14872">
        <ele>86.723589</ele>
        <time>2022-02-26T10:54:34.258Z</time>
      </trkpt>
      <trkpt lat="41.77071" lon="26.14864">
        <ele>86.492808</ele>
        <time>2022-02-26T10:54:38.246Z</time>
      </trkpt>
      <trkpt lat="41.77078" lon="26.14856">
        <ele>86.293686</ele>
        <time>2022-02-26T10:54:42.253Z</time>
      </trkpt>
      <trkpt lat="41.77086" lon="26.14848">
        <ele>86.088977</ele>
        <time>2022-02-26T10:54:46.246Z</time>
      </trkpt>
      <trkpt lat="41.77093" lon="26.1484">
        <ele>85.878212</ele>
        <time>2022-02-26T10:54:50.252Z</time>
      </trkpt>
      <trkpt lat="41.77101" lon="26.14832">
        <ele>85.66707</ele>
        <time>2022-02-26T10:54:54.251Z</time>
      </trkpt>
      <trkpt lat="41.77109" lon="26.14823">
        <ele>85.441143</ele>
        <time>2022-02-26T10:54:58.246Z</time>
      </trkpt>
      <trkpt lat="41.77117" lon="26.14815">
        <ele>85.232068</ele>
        <time>2022-02-26T10:55:02.279Z</time>
      </trkpt>
      <trkpt lat="41.77126" lon="26.14806">
        <ele>84.997379</ele>
        <time>2022-02-26T10:55:06.246Z</time>
      </trkpt>
      <trkpt lat="41.77135" lon="26.14798">
        <ele>84.756774</ele>
        <time>2022-02-26T10:55:10.247Z</time>
      </trkpt>
      <trkpt lat="41.77145" lon="26.1479">
        <ele>84.501479</ele>
        <time>2022-02-26T10:55:14.255Z</time>
      </trkpt>
      <trkpt lat="41.77153" lon="26.14783">
        <ele>84.304671</ele>
        <time>2022-02-26T10:55:17.262Z</time>
      </trkpt>
      <trkpt lat="41.7716" lon="26.14776">
        <ele>84.106108</ele>
        <time>2022-02-26T10:55:20.246Z</time>
      </trkpt>
      <trkpt lat="41.77168" lon="26.1477">
        <ele>83.911012</ele>
        <time>2022-02-26T10:55:23.274Z</time>
      </trkpt>
      <trkpt lat="41.77176" lon="26.14763">
        <ele>83.706054</ele>
        <time>2022-02-26T10:55:26.249Z</time>
      </trkpt>
      <trkpt lat="41.77184" lon="26.14756">
        <ele>83.501244</ele>
        <time>2022-02-26T10:55:29.250Z</time>
      </trkpt>
      <trkpt lat="41.77192" lon="26.14748">
        <ele>83.457289</ele>
        <time>2022-02-26T10:55:32.245Z</time>
      </trkpt>
      <trkpt lat="41.77199" lon="26.14741">
        <ele>83.516493</ele>
        <time>2022-02-26T10:55:35.259Z</time>
      </trkpt>
      <trkpt lat="41.77207" lon="26.14735">
        <ele>83.572925</ele>
        <time>2022-02-26T10:55:38.251Z</time>
      </trkpt>
      <trkpt lat="41.77216" lon="26.14731">
        <ele>83.629858</ele>
        <time>2022-02-26T10:55:41.248Z</time>
      </trkpt>
      <trkpt lat="41.77225" lon="26.14729">
        <ele>83.688591</ele>
        <time>2022-02-26T10:55:44.252Z</time>
      </trkpt>
      <trkpt lat="41.77234" lon="26.1472">
        <ele>83.754528</ele>
        <time>2022-02-26T10:55:47.253Z</time>
      </trkpt>
      <trkpt lat="41.77242" lon="26.1471">
        <ele>83.823623</ele>
        <time>2022-02-26T10:55:50.273Z</time>
      </trkpt>
      <trkpt lat="41.7725" lon="26.14701">
        <ele>83.890871</ele>
        <time>2022-02-26T10:55:53.247Z</time>
      </trkpt>
      <trkpt lat="41.77259" lon="26.1469">
        <ele>83.961504</ele>
        <time>2022-02-26T10:55:56.275Z</time>
      </trkpt>
      <trkpt lat="41.77268" lon="26.14681">
        <ele>84.031523</ele>
        <time>2022-02-26T10:55:59.250Z</time>
      </trkpt>
      <trkpt lat="41.77277" lon="26.14674">
        <ele>84.096844</ele>
        <time>2022-02-26T10:56:02.248Z</time>
      </trkpt>
      <trkpt lat="41.77284" lon="26.14664">
        <ele>84.1604</ele>
        <time>2022-02-26T10:56:05.253Z</time>
      </trkpt>
      <trkpt lat="41.77292" lon="26.14655">
        <ele>84.226589</ele>
        <time>2022-02-26T10:56:08.248Z</time>
      </trkpt>
      <trkpt lat="41.773" lon="26.14645">
        <ele>84.29185</ele>
        <time>2022-02-26T10:56:11.252Z</time>
      </trkpt>
      <trkpt lat="41.77308" lon="26.14636">
        <ele>84.358039</ele>
        <time>2022-02-26T10:56:14.247Z</time>
      </trkpt>
      <trkpt lat="41.77317" lon="26.14626">
        <ele>84.428996</ele>
        <time>2022-02-26T10:56:17.254Z</time>
      </trkpt>
      <trkpt lat="41.77325" lon="26.14615">
        <ele>84.500556</ele>
        <time>2022-02-26T10:56:20.261Z</time>
      </trkpt>
      <trkpt lat="41.77334" lon="26.14605">
        <ele>84.917843</ele>
        <time>2022-02-26T10:56:23.256Z</time>
      </trkpt>
      <trkpt lat="41.77342" lon="26.14595">
        <ele>85.603923</ele>
        <time>2022-02-26T10:56:26.252Z</time>
      </trkpt>
      <trkpt lat="41.7735" lon="26.14583">
        <ele>86.320908</ele>
        <time>2022-02-26T10:56:30.243Z</time>
      </trkpt>
      <trkpt lat="41.77361" lon="26.14583">
        <ele>87.030851</ele>
        <time>2022-02-26T10:56:34.245Z</time>
      </trkpt>
      <trkpt lat="41.77367" lon="26.14593">
        <ele>87.597811</ele>
        <time>2022-02-26T10:56:37.252Z</time>
      </trkpt>
      <trkpt lat="41.77374" lon="26.14603">
        <ele>88.23546</ele>
        <time>2022-02-26T10:56:40.246Z</time>
      </trkpt>
      <trkpt lat="41.77381" lon="26.14615">
        <ele>88.937254</ele>
        <time>2022-02-26T10:56:43.251Z</time>
      </trkpt>
      <trkpt lat="41.77388" lon="26.14626">
        <ele>89.638506</ele>
        <time>2022-02-26T10:56:46.244Z</time>
      </trkpt>
      <trkpt lat="41.77396" lon="26.14638">
        <ele>90.370076</ele>
        <time>2022-02-26T10:56:49.250Z</time>
      </trkpt>
      <trkpt lat="41.77403" lon="26.14649">
        <ele>91.057967</ele>
        <time>2022-02-26T10:56:52.245Z</time>
      </trkpt>
      <trkpt lat="41.77411" lon="26.1466">
        <ele>91.727172</ele>
        <time>2022-02-26T10:56:55.253Z</time>
      </trkpt>
      <trkpt lat="41.77419" lon="26.14669">
        <ele>92.411099</ele>
        <time>2022-02-26T10:56:58.257Z</time>
      </trkpt>
      <trkpt lat="41.7743" lon="26.14669">
        <ele>93.133418</ele>
        <time>2022-02-26T10:57:02.254Z</time>
      </trkpt>
      <trkpt lat="41.77439" lon="26.14666">
        <ele>93.716892</ele>
        <time>2022-02-26T10:57:05.255Z</time>
      </trkpt>
      <trkpt lat="41.7745" lon="26.14657">
        <ele>94.516363</ele>
        <time>2022-02-26T10:57:09.245Z</time>
      </trkpt>
      <trkpt lat="41.77462" lon="26.14656">
        <ele>95.233359</ele>
        <time>2022-02-26T10:57:13.244Z</time>
      </trkpt>
      <trkpt lat="41.77472" lon="26.14657">
        <ele>95.729801</ele>
        <time>2022-02-26T10:57:16.243Z</time>
      </trkpt>
      <trkpt lat="41.77482" lon="26.14658">
        <ele>95.706682</ele>
        <time>2022-02-26T10:57:19.248Z</time>
      </trkpt>
      <trkpt lat="41.77491" lon="26.14659">
        <ele>95.6843</ele>
        <time>2022-02-26T10:57:22.261Z</time>
      </trkpt>
      <trkpt lat="41.77502" lon="26.14659">
        <ele>95.657209</ele>
        <time>2022-02-26T10:57:25.245Z</time>
      </trkpt>
      <trkpt lat="41.77513" lon="26.14656">
        <ele>95.631267</ele>
        <time>2022-02-26T10:57:28.251Z</time>
      </trkpt>
      <trkpt lat="41.77524" lon="26.1465">
        <ele>95.603465</ele>
        <time>2022-02-26T10:57:31.244Z</time>
      </trkpt>
      <trkpt lat="41.77534" lon="26.14642">
        <ele>95.576496</ele>
        <time>2022-02-26T10:57:34.245Z</time>
      </trkpt>
      <trkpt lat="41.77542" lon="26.14633">
        <ele>95.550242</ele>
        <time>2022-02-26T10:57:37.251Z</time>
      </trkpt>
      <trkpt lat="41.77551" lon="26.14624">
        <ele>95.525552</ele>
        <time>2022-02-26T10:57:40.245Z</time>
      </trkpt>
      <trkpt lat="41.77558" lon="26.14615">
        <ele>95.499977</ele>
        <time>2022-02-26T10:57:43.253Z</time>
      </trkpt>
      <trkpt lat="41.77567" lon="26.14606">
        <ele>95.474054</ele>
        <time>2022-02-26T10:57:46.251Z</time>
      </trkpt>
      <trkpt lat="41.77575" lon="26.14597">
        <ele>95.450603</ele>
        <time>2022-02-26T10:57:49.246Z</time>
      </trkpt>
      <trkpt lat="41.77586" lon="26.14598">
        <ele>95.423929</ele>
        <time>2022-02-26T10:57:53.248Z</time>
      </trkpt>
      <trkpt lat="41.77593" lon="26.14608">
        <ele>95.398796</ele>
        <time>2022-02-26T10:57:56.250Z</time>
      </trkpt>
      <trkpt lat="41.77601" lon="26.14618">
        <ele>95.373029</ele>
        <time>2022-02-26T10:57:59.248Z</time>
      </trkpt>
      <trkpt lat="41.7761" lon="26.14628">
        <ele>95.345923</ele>
        <time>2022-02-26T10:58:02.247Z</time>
      </trkpt>
      <trkpt lat="41.77619" lon="26.14637">
        <ele>95.318289</ele>
        <time>2022-02-26T10:58:05.243Z</time>
      </trkpt>
      <trkpt lat="41.77628" lon="26.14646">
        <ele>95.159632</ele>
        <time>2022-02-26T10:58:08.249Z</time>
      </trkpt>
      <trkpt lat="41.77638" lon="26.14645">
        <ele>94.922485</ele>
        <time>2022-02-26T10:58:11.253Z</time>
      </trkpt>
      <trkpt lat="41.77646" lon="26.14639">
        <ele>94.712352</ele>
        <time>2022-02-26T10:58:13.244Z</time>
      </trkpt>
      <trkpt lat="41.77654" lon="26.14628">
        <ele>94.447508</ele>
        <time>2022-02-26T10:58:16.248Z</time>
      </trkpt>
      <trkpt lat="41.77661" lon="26.14619">
        <ele>94.223104</ele>
        <time>2022-02-26T10:58:19.253Z</time>
      </trkpt>
      <trkpt lat="41.77669" lon="26.14611">
        <ele>93.993803</ele>
        <time>2022-02-26T10:58:22.246Z</time>
      </trkpt>
      <trkpt lat="41.77677" lon="26.14602">
        <ele>93.746302</ele>
        <time>2022-02-26T10:58:25.245Z</time>
      </trkpt>
      <trkpt lat="41.77685" lon="26.14593">
        <ele>93.502849</ele>
        <time>2022-02-26T10:58:28.254Z</time>
      </trkpt>
      <trkpt lat="41.77694" lon="26.14584">
        <ele>93.247801</ele>
        <time>2022-02-26T10:58:31.245Z</time>
      </trkpt>
      <trkpt lat="41.77703" lon="26.14574">
        <ele>92.974014</ele>
        <time>2022-02-26T10:58:34.251Z</time>
      </trkpt>
      <trkpt lat="41.77712" lon="26.14563">
        <ele>92.695841</ele>
        <time>2022-02-26T10:58:37.245Z</time>
      </trkpt>
      <trkpt lat="41.77721" lon="26.14554">
        <ele>92.422379</ele>
        <time>2022-02-26T10:58:40.255Z</time>
      </trkpt>
      <trkpt lat="41.77733" lon="26.1455">
        <ele>92.134708</ele>
        <time>2022-02-26T10:58:43.246Z</time>
      </trkpt>
      <trkpt lat="41.77746" lon="26.1455">
        <ele>91.846856</ele>
        <time>2022-02-26T10:58:46.246Z</time>
      </trkpt>
      <trkpt lat="41.77758" lon="26.14551">
        <ele>91.554158</ele>
        <time>2022-02-26T10:58:49.252Z</time>
      </trkpt>
      <trkpt lat="41.77769" lon="26.14552">
        <ele>91.2977</ele>
        <time>2022-02-26T10:58:52.251Z</time>
      </trkpt>
      <trkpt lat="41.77781" lon="26.14554">
        <ele>91.207293</ele>
        <time>2022-02-26T10:58:55.259Z</time>
      </trkpt>
      <trkpt lat="41.77793" lon="26.14555">
        <ele>91.418324</ele>
        <time>2022-02-26T10:58:58.248Z</time>
      </trkpt>
      <trkpt lat="41.77804" lon="26.14555">
        <ele>91.627386</ele>
        <time>2022-02-26T10:59:01.249Z</time>
      </trkpt>
      <trkpt lat="41.77816" lon="26.14556">
        <ele>91.84228</ele>
        <time>2022-02-26T10:59:04.250Z</time>
      </trkpt>
      <trkpt lat="41.77829" lon="26.14557">
        <ele>92.058848</ele>
        <time>2022-02-26T10:59:07.251Z</time>
      </trkpt>
      <trkpt lat="41.77841" lon="26.14558">
        <ele>92.278867</ele>
        <time>2022-02-26T10:59:10.249Z</time>
      </trkpt>
      <trkpt lat="41.77853" lon="26.14561">
        <ele>92.49726</ele>
        <time>2022-02-26T10:59:13.284Z</time>
      </trkpt>
      <trkpt lat="41.77865" lon="26.14563">
        <ele>92.706332</ele>
        <time>2022-02-26T10:59:16.260Z</time>
      </trkpt>
      <trkpt lat="41.77876" lon="26.14566">
        <ele>92.900912</ele>
        <time>2022-02-26T10:59:19.255Z</time>
      </trkpt>
      <trkpt lat="41.77887" lon="26.14565">
        <ele>93.101121</ele>
        <time>2022-02-26T10:59:23.267Z</time>
      </trkpt>
      <trkpt lat="41.77894" lon="26.14554">
        <ele>93.290292</ele>
        <time>2022-02-26T10:59:27.262Z</time>
      </trkpt>
      <trkpt lat="41.77898" lon="26.14541">
        <ele>93.47902</ele>
        <time>2022-02-26T10:59:30.244Z</time>
      </trkpt>
      <trkpt lat="41.77901" lon="26.14527">
        <ele>93.674751</ele>
        <time>2022-02-26T10:59:33.248Z</time>
      </trkpt>
      <trkpt lat="41.77904" lon="26.14511">
        <ele>93.886125</ele>
        <time>2022-02-26T10:59:36.249Z</time>
      </trkpt>
      <trkpt lat="41.77907" lon="26.14495">
        <ele>94.104476</ele>
        <time>2022-02-26T10:59:39.255Z</time>
      </trkpt>
      <trkpt lat="41.77909" lon="26.14479">
        <ele>94.319233</ele>
        <time>2022-02-26T10:59:42.256Z</time>
      </trkpt>
      <trkpt lat="41.77911" lon="26.14463">
        <ele>94.379227</ele>
        <time>2022-02-26T10:59:45.269Z</time>
      </trkpt>
      <trkpt lat="41.77913" lon="26.14446">
        <ele>94.441003</ele>
        <time>2022-02-26T10:59:48.250Z</time>
      </trkpt>
      <trkpt lat="41.77915" lon="26.14429">
        <ele>94.503848</ele>
        <time>2022-02-26T10:59:51.254Z</time>
      </trkpt>
      <trkpt lat="41.77918" lon="26.14411">
        <ele>94.568</ele>
        <time>2022-02-26T10:59:54.249Z</time>
      </trkpt>
      <trkpt lat="41.77919" lon="26.14394">
        <ele>94.632134</ele>
        <time>2022-02-26T10:59:57.262Z</time>
      </trkpt>
      <trkpt lat="41.7792" lon="26.14376">
        <ele>94.694778</ele>
        <time>2022-02-26T11:00:00.251Z</time>
      </trkpt>
      <trkpt lat="41.77923" lon="26.14359">
        <ele>94.757782</ele>
        <time>2022-02-26T11:00:03.252Z</time>
      </trkpt>
      <trkpt lat="41.77925" lon="26.14346">
        <ele>94.804917</ele>
        <time>2022-02-26T11:00:05.269Z</time>
      </trkpt>
      <trkpt lat="41.77926" lon="26.14334">
        <ele>94.851337</ele>
        <time>2022-02-26T11:00:07.248Z</time>
      </trkpt>
      <trkpt lat="41.77927" lon="26.14322">
        <ele>94.895047</ele>
        <time>2022-02-26T11:00:09.249Z</time>
      </trkpt>
      <trkpt lat="41.77929" lon="26.14304">
        <ele>94.959</ele>
        <time>2022-02-26T11:00:12.245Z</time>
      </trkpt>
      <trkpt lat="41.77931" lon="26.14286">
        <ele>95.023492</ele>
        <time>2022-02-26T11:00:15.263Z</time>
      </trkpt>
      <trkpt lat="41.77932" lon="26.14269">
        <ele>95.088051</ele>
        <time>2022-02-26T11:00:18.247Z</time>
      </trkpt>
      <trkpt lat="41.77934" lon="26.14253">
        <ele>95.145699</ele>
        <time>2022-02-26T11:00:21.249Z</time>
      </trkpt>
      <trkpt lat="41.77935" lon="26.14235">
        <ele>95.18585</ele>
        <time>2022-02-26T11:00:24.248Z</time>
      </trkpt>
      <trkpt lat="41.77937" lon="26.14223">
        <ele>95.179421</ele>
        <time>2022-02-26T11:00:26.253Z</time>
      </trkpt>
      <trkpt lat="41.77939" lon="26.14211">
        <ele>95.172952</ele>
        <time>2022-02-26T11:00:28.255Z</time>
      </trkpt>
      <trkpt lat="41.7794" lon="26.14199">
        <ele>95.166443</ele>
        <time>2022-02-26T11:00:30.252Z</time>
      </trkpt>
      <trkpt lat="41.77942" lon="26.14181">
        <ele>95.157139</ele>
        <time>2022-02-26T11:00:33.257Z</time>
      </trkpt>
      <trkpt lat="41.77943" lon="26.14163">
        <ele>95.147656</ele>
        <time>2022-02-26T11:00:36.249Z</time>
      </trkpt>
      <trkpt lat="41.77945" lon="26.1415">
        <ele>95.14095</ele>
        <time>2022-02-26T11:00:38.255Z</time>
      </trkpt>
      <trkpt lat="41.77946" lon="26.14138">
        <ele>95.134243</ele>
        <time>2022-02-26T11:00:40.247Z</time>
      </trkpt>
      <trkpt lat="41.77947" lon="26.14125">
        <ele>95.127579</ele>
        <time>2022-02-26T11:00:42.251Z</time>
      </trkpt>
      <trkpt lat="41.77948" lon="26.14112">
        <ele>95.120898</ele>
        <time>2022-02-26T11:00:44.247Z</time>
      </trkpt>
      <trkpt lat="41.7795" lon="26.141">
        <ele>95.114502</ele>
        <time>2022-02-26T11:00:46.261Z</time>
      </trkpt>
      <trkpt lat="41.77951" lon="26.14088">
        <ele>95.108073</ele>
        <time>2022-02-26T11:00:48.290Z</time>
      </trkpt>
      <trkpt lat="41.77952" lon="26.14076">
        <ele>95.101756</ele>
        <time>2022-02-26T11:00:50.252Z</time>
      </trkpt>
      <trkpt lat="41.77953" lon="26.14064">
        <ele>95.095413</ele>
        <time>2022-02-26T11:00:52.258Z</time>
      </trkpt>
      <trkpt lat="41.77955" lon="26.14046">
        <ele>95.086128</ele>
        <time>2022-02-26T11:00:55.249Z</time>
      </trkpt>
      <trkpt lat="41.77956" lon="26.14034">
        <ele>95.079395</ele>
        <time>2022-02-26T11:00:57.246Z</time>
      </trkpt>
      <trkpt lat="41.77957" lon="26.1402">
        <ele>95.072118</ele>
        <time>2022-02-26T11:00:59.256Z</time>
      </trkpt>
      <trkpt lat="41.77958" lon="26.14007">
        <ele>95.065162</ele>
        <time>2022-02-26T11:01:01.254Z</time>
      </trkpt>
      <trkpt lat="41.7796" lon="26.13993">
        <ele>94.902413</ele>
        <time>2022-02-26T11:01:03.247Z</time>
      </trkpt>
      <trkpt lat="41.77961" lon="26.1398">
        <ele>94.656562</ele>
        <time>2022-02-26T11:01:05.244Z</time>
      </trkpt>
      <trkpt lat="41.77962" lon="26.13967">
        <ele>94.409813</ele>
        <time>2022-02-26T11:01:07.254Z</time>
      </trkpt>
      <trkpt lat="41.77964" lon="26.13954">
        <ele>94.16544</ele>
        <time>2022-02-26T11:01:09.260Z</time>
      </trkpt>
      <trkpt lat="41.77965" lon="26.13942">
        <ele>93.925499</ele>
        <time>2022-02-26T11:01:11.271Z</time>
      </trkpt>
      <trkpt lat="41.77967" lon="26.1393">
        <ele>93.69591</ele>
        <time>2022-02-26T11:01:13.252Z</time>
      </trkpt>
      <trkpt lat="41.77968" lon="26.13917">
        <ele>93.447954</ele>
        <time>2022-02-26T11:01:15.246Z</time>
      </trkpt>
      <trkpt lat="41.7797" lon="26.13903">
        <ele>93.192165</ele>
        <time>2022-02-26T11:01:17.271Z</time>
      </trkpt>
      <trkpt lat="41.77972" lon="26.1389">
        <ele>92.93363</ele>
        <time>2022-02-26T11:01:19.247Z</time>
      </trkpt>
      <trkpt lat="41.77975" lon="26.13876">
        <ele>92.673863</ele>
        <time>2022-02-26T11:01:21.253Z</time>
      </trkpt>
      <trkpt lat="41.77977" lon="26.13863">
        <ele>92.423744</ele>
        <time>2022-02-26T11:01:23.244Z</time>
      </trkpt>
      <trkpt lat="41.7798" lon="26.13851">
        <ele>92.178715</ele>
        <time>2022-02-26T11:01:25.257Z</time>
      </trkpt>
      <trkpt lat="41.77983" lon="26.13839">
        <ele>91.940177</ele>
        <time>2022-02-26T11:01:27.262Z</time>
      </trkpt>
      <trkpt lat="41.77987" lon="26.13827">
        <ele>91.706042</ele>
        <time>2022-02-26T11:01:29.276Z</time>
      </trkpt>
      <trkpt lat="41.77991" lon="26.13815">
        <ele>91.467873</ele>
        <time>2022-02-26T11:01:31.269Z</time>
      </trkpt>
      <trkpt lat="41.77995" lon="26.13804">
        <ele>91.220772</ele>
        <time>2022-02-26T11:01:33.271Z</time>
      </trkpt>
      <trkpt lat="41.78" lon="26.13792">
        <ele>90.978159</ele>
        <time>2022-02-26T11:01:35.273Z</time>
      </trkpt>
      <trkpt lat="41.78005" lon="26.13782">
        <ele>90.747637</ele>
        <time>2022-02-26T11:01:37.284Z</time>
      </trkpt>
      <trkpt lat="41.78012" lon="26.13767">
        <ele>90.245719</ele>
        <time>2022-02-26T11:01:40.322Z</time>
      </trkpt>
      <trkpt lat="41.7802" lon="26.13754">
        <ele>89.502685</ele>
        <time>2022-02-26T11:01:43.268Z</time>
      </trkpt>
      <trkpt lat="41.78029" lon="26.13741">
        <ele>88.725679</ele>
        <time>2022-02-26T11:01:46.300Z</time>
      </trkpt>
      <trkpt lat="41.78038" lon="26.13728">
        <ele>87.951609</ele>
        <time>2022-02-26T11:01:49.269Z</time>
      </trkpt>
      <trkpt lat="41.78044" lon="26.1372">
        <ele>87.42211</ele>
        <time>2022-02-26T11:01:51.268Z</time>
      </trkpt>
      <trkpt lat="41.78051" lon="26.13711">
        <ele>86.892324</ele>
        <time>2022-02-26T11:01:53.283Z</time>
      </trkpt>
      <trkpt lat="41.78058" lon="26.13703">
        <ele>86.35528</ele>
        <time>2022-02-26T11:01:55.285Z</time>
      </trkpt>
      <trkpt lat="41.78065" lon="26.13695">
        <ele>85.806635</ele>
        <time>2022-02-26T11:01:57.269Z</time>
      </trkpt>
      <trkpt lat="41.78072" lon="26.13687">
        <ele>85.254632</ele>
        <time>2022-02-26T11:01:59.276Z</time>
      </trkpt>
      <trkpt lat="41.78079" lon="26.13679">
        <ele>84.723404</ele>
        <time>2022-02-26T11:02:01.281Z</time>
      </trkpt>
      <trkpt lat="41.78086" lon="26.13671">
        <ele>84.19329</ele>
        <time>2022-02-26T11:02:03.283Z</time>
      </trkpt>
      <trkpt lat="41.78093" lon="26.13663">
        <ele>83.640197</ele>
        <time>2022-02-26T11:02:05.264Z</time>
      </trkpt>
      <trkpt lat="41.78101" lon="26.13655">
        <ele>83.071777</ele>
        <time>2022-02-26T11:02:07.267Z</time>
      </trkpt>
      <trkpt lat="41.78108" lon="26.13646">
        <ele>82.493986</ele>
        <time>2022-02-26T11:02:09.272Z</time>
      </trkpt>
      <trkpt lat="41.78116" lon="26.13637">
        <ele>81.917765</ele>
        <time>2022-02-26T11:02:11.270Z</time>
      </trkpt>
      <trkpt lat="41.78123" lon="26.13628">
        <ele>81.334185</ele>
        <time>2022-02-26T11:02:13.273Z</time>
      </trkpt>
      <trkpt lat="41.7813" lon="26.1362">
        <ele>80.773804</ele>
        <time>2022-02-26T11:02:15.267Z</time>
      </trkpt>
      <trkpt lat="41.78138" lon="26.13611">
        <ele>80.203404</ele>
        <time>2022-02-26T11:02:17.282Z</time>
      </trkpt>
      <trkpt lat="41.78144" lon="26.13603">
        <ele>79.897023</ele>
        <time>2022-02-26T11:02:19.283Z</time>
      </trkpt>
      <trkpt lat="41.78154" lon="26.13591">
        <ele>79.649459</ele>
        <time>2022-02-26T11:02:22.269Z</time>
      </trkpt>
      <trkpt lat="41.78164" lon="26.1358">
        <ele>79.399508</ele>
        <time>2022-02-26T11:02:25.276Z</time>
      </trkpt>
      <trkpt lat="41.78171" lon="26.13572">
        <ele>79.222976</ele>
        <time>2022-02-26T11:02:27.276Z</time>
      </trkpt>
      <trkpt lat="41.78178" lon="26.13563">
        <ele>79.037412</ele>
        <time>2022-02-26T11:02:29.279Z</time>
      </trkpt>
      <trkpt lat="41.78186" lon="26.13555">
        <ele>78.850183</ele>
        <time>2022-02-26T11:02:31.275Z</time>
      </trkpt>
      <trkpt lat="41.78194" lon="26.13546">
        <ele>78.653384</ele>
        <time>2022-02-26T11:02:33.307Z</time>
      </trkpt>
      <trkpt lat="41.78202" lon="26.13538">
        <ele>78.456847</ele>
        <time>2022-02-26T11:02:35.275Z</time>
      </trkpt>
      <trkpt lat="41.78209" lon="26.1353">
        <ele>78.279462</ele>
        <time>2022-02-26T11:02:37.271Z</time>
      </trkpt>
      <trkpt lat="41.78217" lon="26.13523">
        <ele>78.096797</ele>
        <time>2022-02-26T11:02:39.294Z</time>
      </trkpt>
      <trkpt lat="41.78225" lon="26.13515">
        <ele>77.906224</ele>
        <time>2022-02-26T11:02:41.277Z</time>
      </trkpt>
      <trkpt lat="41.78234" lon="26.13508">
        <ele>77.714014</ele>
        <time>2022-02-26T11:02:43.266Z</time>
      </trkpt>
      <trkpt lat="41.78242" lon="26.13501">
        <ele>77.526666</ele>
        <time>2022-02-26T11:02:45.271Z</time>
      </trkpt>
      <trkpt lat="41.7825" lon="26.13494">
        <ele>77.344745</ele>
        <time>2022-02-26T11:02:47.265Z</time>
      </trkpt>
      <trkpt lat="41.78258" lon="26.13488">
        <ele>77.158056</ele>
        <time>2022-02-26T11:02:49.269Z</time>
      </trkpt>
      <trkpt lat="41.78266" lon="26.13481">
        <ele>76.980157</ele>
        <time>2022-02-26T11:02:51.267Z</time>
      </trkpt>
      <trkpt lat="41.78274" lon="26.13475">
        <ele>76.804915</ele>
        <time>2022-02-26T11:02:53.278Z</time>
      </trkpt>
      <trkpt lat="41.78282" lon="26.13469">
        <ele>76.625619</ele>
        <time>2022-02-26T11:02:55.320Z</time>
      </trkpt>
      <trkpt lat="41.7829" lon="26.13464">
        <ele>76.830021</ele>
        <time>2022-02-26T11:02:57.284Z</time>
      </trkpt>
      <trkpt lat="41.78302" lon="26.13456">
        <ele>77.410023</ele>
        <time>2022-02-26T11:03:00.268Z</time>
      </trkpt>
      <trkpt lat="41.7831" lon="26.13451">
        <ele>77.8302</ele>
        <time>2022-02-26T11:03:02.283Z</time>
      </trkpt>
      <trkpt lat="41.78319" lon="26.13445">
        <ele>78.27112</ele>
        <time>2022-02-26T11:03:04.285Z</time>
      </trkpt>
      <trkpt lat="41.78327" lon="26.1344">
        <ele>78.696891</ele>
        <time>2022-02-26T11:03:06.263Z</time>
      </trkpt>
      <trkpt lat="41.78335" lon="26.13435">
        <ele>79.110328</ele>
        <time>2022-02-26T11:03:08.287Z</time>
      </trkpt>
      <trkpt lat="41.78344" lon="26.13432">
        <ele>79.533943</ele>
        <time>2022-02-26T11:03:10.273Z</time>
      </trkpt>
      <trkpt lat="41.78353" lon="26.13428">
        <ele>79.958639</ele>
        <time>2022-02-26T11:03:12.266Z</time>
      </trkpt>
      <trkpt lat="41.78362" lon="26.13423">
        <ele>80.392191</ele>
        <time>2022-02-26T11:03:14.283Z</time>
      </trkpt>
      <trkpt lat="41.78375" lon="26.13419">
        <ele>81.004186</ele>
        <time>2022-02-26T11:03:17.289Z</time>
      </trkpt>
      <trkpt lat="41.78384" lon="26.13416">
        <ele>81.420931</ele>
        <time>2022-02-26T11:03:19.257Z</time>
      </trkpt>
      <trkpt lat="41.78393" lon="26.13413">
        <ele>81.844</ele>
        <time>2022-02-26T11:03:21.271Z</time>
      </trkpt>
      <trkpt lat="41.78402" lon="26.1341">
        <ele>82.259618</ele>
        <time>2022-02-26T11:03:23.283Z</time>
      </trkpt>
      <trkpt lat="41.78411" lon="26.13408">
        <ele>82.684885</ele>
        <time>2022-02-26T11:03:25.272Z</time>
      </trkpt>
      <trkpt lat="41.7842" lon="26.13406">
        <ele>83.106366</ele>
        <time>2022-02-26T11:03:27.278Z</time>
      </trkpt>
      <trkpt lat="41.78433" lon="26.13402">
        <ele>83.702127</ele>
        <time>2022-02-26T11:03:30.304Z</time>
      </trkpt>
      <trkpt lat="41.78442" lon="26.13401">
        <ele>84.121189</ele>
        <time>2022-02-26T11:03:32.264Z</time>
      </trkpt>
      <trkpt lat="41.78451" lon="26.13399">
        <ele>84.540681</ele>
        <time>2022-02-26T11:03:34.277Z</time>
      </trkpt>
      <trkpt lat="41.78464" lon="26.13397">
        <ele>85.149847</ele>
        <time>2022-02-26T11:03:37.292Z</time>
      </trkpt>
      <trkpt lat="41.78477" lon="26.13395">
        <ele>85.739278</ele>
        <time>2022-02-26T11:03:40.258Z</time>
      </trkpt>
      <trkpt lat="41.78486" lon="26.13394">
        <ele>86.163692</ele>
        <time>2022-02-26T11:03:42.278Z</time>
      </trkpt>
      <trkpt lat="41.78495" lon="26.13392">
        <ele>86.575775</ele>
        <time>2022-02-26T11:03:44.291Z</time>
      </trkpt>
      <trkpt lat="41.78504" lon="26.13391">
        <ele>86.991161</ele>
        <time>2022-02-26T11:03:46.275Z</time>
      </trkpt>
      <trkpt lat="41.78514" lon="26.13389">
        <ele>87.409186</ele>
        <time>2022-02-26T11:03:48.273Z</time>
      </trkpt>
      <trkpt lat="41.78522" lon="26.13386">
        <ele>87.823041</ele>
        <time>2022-02-26T11:03:50.253Z</time>
      </trkpt>
      <trkpt lat="41.78531" lon="26.13383">
        <ele>88.236485</ele>
        <time>2022-02-26T11:03:52.275Z</time>
      </trkpt>
      <trkpt lat="41.78545" lon="26.1338">
        <ele>88.855501</ele>
        <time>2022-02-26T11:03:55.287Z</time>
      </trkpt>
      <trkpt lat="41.78554" lon="26.13378">
        <ele>89.283569</ele>
        <time>2022-02-26T11:03:57.308Z</time>
      </trkpt>
      <trkpt lat="41.78563" lon="26.13376">
        <ele>89.711089</ele>
        <time>2022-02-26T11:03:59.266Z</time>
      </trkpt>
      <trkpt lat="41.78572" lon="26.13374">
        <ele>90.129114</ele>
        <time>2022-02-26T11:04:01.268Z</time>
      </trkpt>
      <trkpt lat="41.78581" lon="26.13373">
        <ele>90.544872</ele>
        <time>2022-02-26T11:04:03.308Z</time>
      </trkpt>
      <trkpt lat="41.78591" lon="26.13371">
        <ele>90.96965</ele>
        <time>2022-02-26T11:04:05.265Z</time>
      </trkpt>
      <trkpt lat="41.786" lon="26.13369">
        <ele>91.39568</ele>
        <time>2022-02-26T11:04:07.262Z</time>
      </trkpt>
      <trkpt lat="41.78609" lon="26.13367">
        <ele>91.816</ele>
        <time>2022-02-26T11:04:09.271Z</time>
      </trkpt>
      <trkpt lat="41.78618" lon="26.13364">
        <ele>92.224593</ele>
        <time>2022-02-26T11:04:11.274Z</time>
      </trkpt>
      <trkpt lat="41.78628" lon="26.13354">
        <ele>92.799581</ele>
        <time>2022-02-26T11:04:14.316Z</time>
      </trkpt>
      <trkpt lat="41.78632" lon="26.13338">
        <ele>92.836484</ele>
        <time>2022-02-26T11:04:17.287Z</time>
      </trkpt>
      <trkpt lat="41.78633" lon="26.13323">
        <ele>92.696081</ele>
        <time>2022-02-26T11:04:20.300Z</time>
      </trkpt>
      <trkpt lat="41.78634" lon="26.13311">
        <ele>92.57974</ele>
        <time>2022-02-26T11:04:23.274Z</time>
      </trkpt>
      <trkpt lat="41.78634" lon="26.13297">
        <ele>92.451936</ele>
        <time>2022-02-26T11:04:27.271Z</time>
      </trkpt>
      <trkpt lat="41.78635" lon="26.13284">
        <ele>92.327831</ele>
        <time>2022-02-26T11:04:32.262Z</time>
      </trkpt>
      <trkpt lat="41.78635" lon="26.1327">
        <ele>92.200027</ele>
        <time>2022-02-26T11:04:37.260Z</time>
      </trkpt>
      <trkpt lat="41.78636" lon="26.13257">
        <ele>92.077563</ele>
        <time>2022-02-26T11:04:42.255Z</time>
      </trkpt>
      <trkpt lat="41.78637" lon="26.13244">
        <ele>91.964328</ele>
        <time>2022-02-26T11:04:47.255Z</time>
      </trkpt>
      <trkpt lat="41.78638" lon="26.13232">
        <ele>91.848269</ele>
        <time>2022-02-26T11:04:52.279Z</time>
      </trkpt>
      <trkpt lat="41.78639" lon="26.13219">
        <ele>91.729639</ele>
        <time>2022-02-26T11:04:57.249Z</time>
      </trkpt>
      <trkpt lat="41.78641" lon="26.13206">
        <ele>91.605158</ele>
        <time>2022-02-26T11:05:03.270Z</time>
      </trkpt>
      <trkpt lat="41.78642" lon="26.13193">
        <ele>91.482106</ele>
        <time>2022-02-26T11:05:09.269Z</time>
      </trkpt>
      <trkpt lat="41.78644" lon="26.13179">
        <ele>91.350301</ele>
        <time>2022-02-26T11:05:15.267Z</time>
      </trkpt>
      <trkpt lat="41.78645" lon="26.13165">
        <ele>91.224168</ele>
        <time>2022-02-26T11:05:21.279Z</time>
      </trkpt>
      <trkpt lat="41.78647" lon="26.13152">
        <ele>91.095284</ele>
        <time>2022-02-26T11:05:27.268Z</time>
      </trkpt>
      <trkpt lat="41.78649" lon="26.13139">
        <ele>90.980315</ele>
        <time>2022-02-26T11:05:33.273Z</time>
      </trkpt>
      <trkpt lat="41.78651" lon="26.13127">
        <ele>90.860559</ele>
        <time>2022-02-26T11:05:39.274Z</time>
      </trkpt>
      <trkpt lat="41.78656" lon="26.13116">
        <ele>90.741474</ele>
        <time>2022-02-26T11:05:45.269Z</time>
      </trkpt>
      <trkpt lat="41.78661" lon="26.13105">
        <ele>90.829106</ele>
        <time>2022-02-26T11:05:50.270Z</time>
      </trkpt>
      <trkpt lat="41.78668" lon="26.13093">
        <ele>90.986537</ele>
        <time>2022-02-26T11:05:54.279Z</time>
      </trkpt>
      <trkpt lat="41.78674" lon="26.13083">
        <ele>91.128524</ele>
        <time>2022-02-26T11:05:57.264Z</time>
      </trkpt>
      <trkpt lat="41.7868" lon="26.13074">
        <ele>91.258382</ele>
        <time>2022-02-26T11:06:00.267Z</time>
      </trkpt>
      <trkpt lat="41.78687" lon="26.13061">
        <ele>91.421761</ele>
        <time>2022-02-26T11:06:04.298Z</time>
      </trkpt>
      <trkpt lat="41.78694" lon="26.13048">
        <ele>91.592091</ele>
        <time>2022-02-26T11:06:08.272Z</time>
      </trkpt>
      <trkpt lat="41.78699" lon="26.13035">
        <ele>91.758087</ele>
        <time>2022-02-26T11:06:12.273Z</time>
      </trkpt>
      <trkpt lat="41.78704" lon="26.13025">
        <ele>91.890193</ele>
        <time>2022-02-26T11:06:15.309Z</time>
      </trkpt>
      <trkpt lat="41.7871" lon="26.13011">
        <ele>92.057848</ele>
        <time>2022-02-26T11:06:19.281Z</time>
      </trkpt>
      <trkpt lat="41.78716" lon="26.12998">
        <ele>92.224276</ele>
        <time>2022-02-26T11:06:23.303Z</time>
      </trkpt>
      <trkpt lat="41.78723" lon="26.12986">
        <ele>92.386797</ele>
        <time>2022-02-26T11:06:27.273Z</time>
      </trkpt>
      <trkpt lat="41.78728" lon="26.12975">
        <ele>92.52043</ele>
        <time>2022-02-26T11:06:30.286Z</time>
      </trkpt>
      <trkpt lat="41.78735" lon="26.12963">
        <ele>92.688977</ele>
        <time>2022-02-26T11:06:34.283Z</time>
      </trkpt>
      <trkpt lat="41.78743" lon="26.1295">
        <ele>92.861977</ele>
        <time>2022-02-26T11:06:38.284Z</time>
      </trkpt>
      <trkpt lat="41.78749" lon="26.12941">
        <ele>92.994601</ele>
        <time>2022-02-26T11:06:41.270Z</time>
      </trkpt>
      <trkpt lat="41.78758" lon="26.12931">
        <ele>93.158735</ele>
        <time>2022-02-26T11:06:45.283Z</time>
      </trkpt>
      <trkpt lat="41.78765" lon="26.1292">
        <ele>93.302745</ele>
        <time>2022-02-26T11:06:49.306Z</time>
      </trkpt>
      <trkpt lat="41.78771" lon="26.12906">
        <ele>93.272206</ele>
        <time>2022-02-26T11:06:53.267Z</time>
      </trkpt>
      <trkpt lat="41.78776" lon="26.12896">
        <ele>93.248062</ele>
        <time>2022-02-26T11:06:56.285Z</time>
      </trkpt>
      <trkpt lat="41.78781" lon="26.12885">
        <ele>93.224924</ele>
        <time>2022-02-26T11:06:59.284Z</time>
      </trkpt>
      <trkpt lat="41.78788" lon="26.12873">
        <ele>93.195502</ele>
        <time>2022-02-26T11:07:03.275Z</time>
      </trkpt>
      <trkpt lat="41.78795" lon="26.1286">
        <ele>93.165624</ele>
        <time>2022-02-26T11:07:07.264Z</time>
      </trkpt>
      <trkpt lat="41.78801" lon="26.12851">
        <ele>93.142721</ele>
        <time>2022-02-26T11:07:10.281Z</time>
      </trkpt>
      <trkpt lat="41.78807" lon="26.12838">
        <ele>93.112796</ele>
        <time>2022-02-26T11:07:14.279Z</time>
      </trkpt>
      <trkpt lat="41.78814" lon="26.12825">
        <ele>93.083666</ele>
        <time>2022-02-26T11:07:18.290Z</time>
      </trkpt>
      <trkpt lat="41.78819" lon="26.12815">
        <ele>93.060712</ele>
        <time>2022-02-26T11:07:21.283Z</time>
      </trkpt>
      <trkpt lat="41.78824" lon="26.12804">
        <ele>93.036823</ele>
        <time>2022-02-26T11:07:24.260Z</time>
      </trkpt>
      <trkpt lat="41.78828" lon="26.12794">
        <ele>93.014111</ele>
        <time>2022-02-26T11:07:27.287Z</time>
      </trkpt>
      <trkpt lat="41.78834" lon="26.12783">
        <ele>92.99028</ele>
        <time>2022-02-26T11:07:30.280Z</time>
      </trkpt>
      <trkpt lat="41.7884" lon="26.12774">
        <ele>92.965405</ele>
        <time>2022-02-26T11:07:33.287Z</time>
      </trkpt>
      <trkpt lat="41.78847" lon="26.12764">
        <ele>92.940316</ele>
        <time>2022-02-26T11:07:36.290Z</time>
      </trkpt>
      <trkpt lat="41.78854" lon="26.12756">
        <ele>92.916103</ele>
        <time>2022-02-26T11:07:39.259Z</time>
      </trkpt>
      <trkpt lat="41.78862" lon="26.12746">
        <ele>92.889812</ele>
        <time>2022-02-26T11:07:43.271Z</time>
      </trkpt>
      <trkpt lat="41.7887" lon="26.12738">
        <ele>92.86451</ele>
        <time>2022-02-26T11:07:47.289Z</time>
      </trkpt>
      <trkpt lat="41.78878" lon="26.12729">
        <ele>92.711133</ele>
        <time>2022-02-26T11:07:51.285Z</time>
      </trkpt>
      <trkpt lat="41.78886" lon="26.1272">
        <ele>92.389603</ele>
        <time>2022-02-26T11:07:55.272Z</time>
      </trkpt>
      <trkpt lat="41.78895" lon="26.12711">
        <ele>92.0652</ele>
        <time>2022-02-26T11:07:59.282Z</time>
      </trkpt>
      <trkpt lat="41.78902" lon="26.12703">
        <ele>91.77513</ele>
        <time>2022-02-26T11:08:02.275Z</time>
      </trkpt>
      <trkpt lat="41.7891" lon="26.12694">
        <ele>91.466473</ele>
        <time>2022-02-26T11:08:05.285Z</time>
      </trkpt>
      <trkpt lat="41.7892" lon="26.12686">
        <ele>91.096212</ele>
        <time>2022-02-26T11:08:08.279Z</time>
      </trkpt>
      <trkpt lat="41.7893" lon="26.12676">
        <ele>90.727879</ele>
        <time>2022-02-26T11:08:11.277Z</time>
      </trkpt>
      <trkpt lat="41.78938" lon="26.12668">
        <ele>90.420636</ele>
        <time>2022-02-26T11:08:14.274Z</time>
      </trkpt>
      <trkpt lat="41.78945" lon="26.1266">
        <ele>90.135759</ele>
        <time>2022-02-26T11:08:17.283Z</time>
      </trkpt>
      <trkpt lat="41.78952" lon="26.12653">
        <ele>89.859423</ele>
        <time>2022-02-26T11:08:20.269Z</time>
      </trkpt>
      <trkpt lat="41.7896" lon="26.12646">
        <ele>89.573223</ele>
        <time>2022-02-26T11:08:23.283Z</time>
      </trkpt>
      <trkpt lat="41.78968" lon="26.12638">
        <ele>89.278837</ele>
        <time>2022-02-26T11:08:26.269Z</time>
      </trkpt>
      <trkpt lat="41.78975" lon="26.1263">
        <ele>88.995473</ele>
        <time>2022-02-26T11:08:29.269Z</time>
      </trkpt>
      <trkpt lat="41.78982" lon="26.12622">
        <ele>88.700991</ele>
        <time>2022-02-26T11:08:32.267Z</time>
      </trkpt>
      <trkpt lat="41.78989" lon="26.12613">
        <ele>88.412634</ele>
        <time>2022-02-26T11:08:35.282Z</time>
      </trkpt>
      <trkpt lat="41.78998" lon="26.12602">
        <ele>88.042781</ele>
        <time>2022-02-26T11:08:39.280Z</time>
      </trkpt>
      <trkpt lat="41.79005" lon="26.12594">
        <ele>87.755208</ele>
        <time>2022-02-26T11:08:42.284Z</time>
      </trkpt>
      <trkpt lat="41.79012" lon="26.12585">
        <ele>87.460027</ele>
        <time>2022-02-26T11:08:45.287Z</time>
      </trkpt>
      <trkpt lat="41.79019" lon="26.12577">
        <ele>87.427007</ele>
        <time>2022-02-26T11:08:48.271Z</time>
      </trkpt>
      <trkpt lat="41.79026" lon="26.12569">
        <ele>87.579679</ele>
        <time>2022-02-26T11:08:51.248Z</time>
      </trkpt>
      <trkpt lat="41.79034" lon="26.1256">
        <ele>87.741068</ele>
        <time>2022-02-26T11:08:54.280Z</time>
      </trkpt>
      <trkpt lat="41.7904" lon="26.12552">
        <ele>87.889904</ele>
        <time>2022-02-26T11:08:57.255Z</time>
      </trkpt>
      <trkpt lat="41.79048" lon="26.12543">
        <ele>88.051293</ele>
        <time>2022-02-26T11:09:01.253Z</time>
      </trkpt>
      <trkpt lat="41.79055" lon="26.12535">
        <ele>88.202964</ele>
        <time>2022-02-26T11:09:06.270Z</time>
      </trkpt>
      <trkpt lat="41.79066" lon="26.1252">
        <ele>88.461441</ele>
        <time>2022-02-26T11:10:04.260Z</time>
      </trkpt>
      <trkpt lat="41.79074" lon="26.12513">
        <ele>88.61042</ele>
        <time>2022-02-26T11:10:36.261Z</time>
      </trkpt>
      <trkpt lat="41.79083" lon="26.125">
        <ele>88.828813</ele>
        <time>2022-02-26T11:11:05.248Z</time>
      </trkpt>
      <trkpt lat="41.79091" lon="26.12491">
        <ele>88.996657</ele>
        <time>2022-02-26T11:11:12.245Z</time>
      </trkpt>
      <trkpt lat="41.79099" lon="26.12485">
        <ele>89.144101</ele>
        <time>2022-02-26T11:11:16.253Z</time>
      </trkpt>
      <trkpt lat="41.79108" lon="26.12479">
        <ele>89.321135</ele>
        <time>2022-02-26T11:11:21.260Z</time>
      </trkpt>
      <trkpt lat="41.79117" lon="26.12473">
        <ele>89.484606</ele>
        <time>2022-02-26T11:11:26.279Z</time>
      </trkpt>
      <trkpt lat="41.79125" lon="26.12468">
        <ele>89.632377</ele>
        <time>2022-02-26T11:11:31.251Z</time>
      </trkpt>
      <trkpt lat="41.79134" lon="26.12462">
        <ele>89.783471</ele>
        <time>2022-02-26T11:11:36.253Z</time>
      </trkpt>
      <trkpt lat="41.79142" lon="26.12457">
        <ele>89.932577</ele>
        <time>2022-02-26T11:11:41.244Z</time>
      </trkpt>
      <trkpt lat="41.79152" lon="26.12451">
        <ele>90.105611</ele>
        <time>2022-02-26T11:11:46.249Z</time>
      </trkpt>
      <trkpt lat="41.79161" lon="26.12444">
        <ele>90.270902</ele>
        <time>2022-02-26T11:11:51.256Z</time>
      </trkpt>
      <trkpt lat="41.7917" lon="26.12438">
        <ele>90.33219</ele>
        <time>2022-02-26T11:11:56.251Z</time>
      </trkpt>
      <trkpt lat="41.7918" lon="26.12433">
        <ele>90.394617</ele>
        <time>2022-02-26T11:12:01.248Z</time>
      </trkpt>
      <trkpt lat="41.7919" lon="26.12425">
        <ele>90.46048</ele>
        <time>2022-02-26T11:12:06.271Z</time>
      </trkpt>
      <trkpt lat="41.79198" lon="26.12418">
        <ele>90.518441</ele>
        <time>2022-02-26T11:12:10.247Z</time>
      </trkpt>
      <trkpt lat="41.79206" lon="26.12412">
        <ele>90.572328</ele>
        <time>2022-02-26T11:12:14.263Z</time>
      </trkpt>
      <trkpt lat="41.79215" lon="26.12405">
        <ele>90.633702</ele>
        <time>2022-02-26T11:12:19.251Z</time>
      </trkpt>
      <trkpt lat="41.79224" lon="26.124">
        <ele>90.688396</ele>
        <time>2022-02-26T11:12:23.242Z</time>
      </trkpt>
      <trkpt lat="41.79234" lon="26.12393">
        <ele>90.756297</ele>
        <time>2022-02-26T11:12:28.284Z</time>
      </trkpt>
      <trkpt lat="41.79244" lon="26.12386">
        <ele>90.819941</ele>
        <time>2022-02-26T11:12:32.248Z</time>
      </trkpt>
      <trkpt lat="41.79251" lon="26.12379">
        <ele>90.877024</ele>
        <time>2022-02-26T11:12:37.244Z</time>
      </trkpt>
      <trkpt lat="41.7926" lon="26.1237">
        <ele>90.937343</ele>
        <time>2022-02-26T11:12:42.253Z</time>
      </trkpt>
      <trkpt lat="41.79265" lon="26.12359">
        <ele>90.995364</ele>
        <time>2022-02-26T11:12:47.254Z</time>
      </trkpt>
      <trkpt lat="41.79273" lon="26.12351">
        <ele>91.053223</ele>
        <time>2022-02-26T11:12:54.259Z</time>
      </trkpt>
      <trkpt lat="41.79283" lon="26.12345">
        <ele>91.115596</ele>
        <time>2022-02-26T11:13:00.251Z</time>
      </trkpt>
      <trkpt lat="41.79291" lon="26.12338">
        <ele>91.173635</ele>
        <time>2022-02-26T11:13:05.247Z</time>
      </trkpt>
      <trkpt lat="41.79298" lon="26.12328">
        <ele>91.235536</ele>
        <time>2022-02-26T11:13:10.251Z</time>
      </trkpt>
      <trkpt lat="41.79306" lon="26.12318">
        <ele>91.297437</ele>
        <time>2022-02-26T11:13:15.247Z</time>
      </trkpt>
      <trkpt lat="41.79313" lon="26.12306">
        <ele>91.313513</ele>
        <time>2022-02-26T11:13:20.269Z</time>
      </trkpt>
      <trkpt lat="41.7932" lon="26.12297">
        <ele>91.296064</ele>
        <time>2022-02-26T11:13:24.256Z</time>
      </trkpt>
      <trkpt lat="41.79326" lon="26.12287">
        <ele>91.280214</ele>
        <time>2022-02-26T11:13:28.260Z</time>
      </trkpt>
      <trkpt lat="41.79334" lon="26.12278">
        <ele>91.261617</ele>
        <time>2022-02-26T11:13:33.250Z</time>
      </trkpt>
      <trkpt lat="41.79342" lon="26.12268">
        <ele>91.243613</ele>
        <time>2022-02-26T11:13:38.251Z</time>
      </trkpt>
      <trkpt lat="41.7935" lon="26.12257">
        <ele>91.22413</ele>
        <time>2022-02-26T11:13:43.248Z</time>
      </trkpt>
      <trkpt lat="41.79356" lon="26.12248">
        <ele>91.20802</ele>
        <time>2022-02-26T11:13:47.246Z</time>
      </trkpt>
      <trkpt lat="41.79363" lon="26.1224">
        <ele>91.191264</ele>
        <time>2022-02-26T11:13:51.272Z</time>
      </trkpt>
      <trkpt lat="41.79371" lon="26.12231">
        <ele>91.174463</ele>
        <time>2022-02-26T11:13:55.245Z</time>
      </trkpt>
      <trkpt lat="41.79378" lon="26.12223">
        <ele>91.158949</ele>
        <time>2022-02-26T11:13:59.247Z</time>
      </trkpt>
      <trkpt lat="41.79384" lon="26.12215">
        <ele>91.143266</ele>
        <time>2022-02-26T11:14:03.251Z</time>
      </trkpt>
      <trkpt lat="41.79391" lon="26.12205">
        <ele>91.12551</ele>
        <time>2022-02-26T11:14:08.249Z</time>
      </trkpt>
      <trkpt lat="41.79398" lon="26.12194">
        <ele>91.106882</ele>
        <time>2022-02-26T11:14:13.271Z</time>
      </trkpt>
      <trkpt lat="41.79406" lon="26.12183">
        <ele>91.088424</ele>
        <time>2022-02-26T11:14:18.248Z</time>
      </trkpt>
      <trkpt lat="41.79413" lon="26.12174">
        <ele>91.070545</ele>
        <time>2022-02-26T11:14:23.260Z</time>
      </trkpt>
      <trkpt lat="41.79421" lon="26.12164">
        <ele>91.051729</ele>
        <time>2022-02-26T11:14:28.262Z</time>
      </trkpt>
      <trkpt lat="41.79429" lon="26.12154">
        <ele>91.033156</ele>
        <time>2022-02-26T11:14:33.253Z</time>
      </trkpt>
      <trkpt lat="41.79436" lon="26.12145">
        <ele>91.016713</ele>
        <time>2022-02-26T11:14:38.252Z</time>
      </trkpt>
      <trkpt lat="41.79442" lon="26.12136">
        <ele>91.331241</ele>
        <time>2022-02-26T11:14:43.251Z</time>
      </trkpt>
      <trkpt lat="41.79449" lon="26.12126">
        <ele>91.724187</ele>
        <time>2022-02-26T11:14:48.280Z</time>
      </trkpt>
      <trkpt lat="41.79456" lon="26.12116">
        <ele>92.122315</ele>
        <time>2022-02-26T11:14:54.255Z</time>
      </trkpt>
      <trkpt lat="41.79464" lon="26.12106">
        <ele>92.510813</ele>
        <time>2022-02-26T11:14:59.272Z</time>
      </trkpt>
      <trkpt lat="41.79472" lon="26.12097">
        <ele>92.91407</ele>
        <time>2022-02-26T11:15:05.272Z</time>
      </trkpt>
      <trkpt lat="41.79479" lon="26.12088">
        <ele>93.3125</ele>
        <time>2022-02-26T11:15:10.269Z</time>
      </trkpt>
      <trkpt lat="41.79485" lon="26.12077">
        <ele>93.685424</ele>
        <time>2022-02-26T11:15:15.284Z</time>
      </trkpt>
      <trkpt lat="41.79492" lon="26.12067">
        <ele>94.066086</ele>
        <time>2022-02-26T11:15:20.273Z</time>
      </trkpt>
      <trkpt lat="41.79498" lon="26.12057">
        <ele>94.437777</ele>
        <time>2022-02-26T11:15:25.279Z</time>
      </trkpt>
      <trkpt lat="41.79505" lon="26.12047">
        <ele>94.832838</ele>
        <time>2022-02-26T11:15:30.265Z</time>
      </trkpt>
      <trkpt lat="41.79512" lon="26.12036">
        <ele>95.25227</ele>
        <time>2022-02-26T11:15:35.273Z</time>
      </trkpt>
      <trkpt lat="41.7952" lon="26.12025">
        <ele>95.677098</ele>
        <time>2022-02-26T11:15:40.284Z</time>
      </trkpt>
      <trkpt lat="41.79527" lon="26.12015">
        <ele>96.06696</ele>
        <time>2022-02-26T11:15:45.326Z</time>
      </trkpt>
      <trkpt lat="41.79534" lon="26.12006">
        <ele>96.443313</ele>
        <time>2022-02-26T11:15:50.274Z</time>
      </trkpt>
      <trkpt lat="41.7954" lon="26.11997">
        <ele>96.795523</ele>
        <time>2022-02-26T11:15:54.316Z</time>
      </trkpt>
      <trkpt lat="41.79548" lon="26.11987">
        <ele>97.206461</ele>
        <time>2022-02-26T11:15:59.276Z</time>
      </trkpt>
      <trkpt lat="41.79554" lon="26.11978">
        <ele>97.557856</ele>
        <time>2022-02-26T11:16:03.267Z</time>
      </trkpt>
      <trkpt lat="41.79561" lon="26.11969">
        <ele>97.90857</ele>
        <time>2022-02-26T11:16:07.277Z</time>
      </trkpt>
      <trkpt lat="41.79568" lon="26.11961">
        <ele>98.05295</ele>
        <time>2022-02-26T11:16:11.310Z</time>
      </trkpt>
      <trkpt lat="41.79576" lon="26.11951">
        <ele>98.213961</ele>
        <time>2022-02-26T11:16:16.291Z</time>
      </trkpt>
      <trkpt lat="41.79583" lon="26.11941">
        <ele>98.364354</ele>
        <time>2022-02-26T11:16:21.283Z</time>
      </trkpt>
      <trkpt lat="41.79587" lon="26.11928">
        <ele>98.532464</ele>
        <time>2022-02-26T11:16:26.293Z</time>
      </trkpt>
      <trkpt lat="41.79592" lon="26.11917">
        <ele>98.67874</ele>
        <time>2022-02-26T11:16:31.270Z</time>
      </trkpt>
      <trkpt lat="41.79599" lon="26.11908">
        <ele>98.816023</ele>
        <time>2022-02-26T11:16:37.294Z</time>
      </trkpt>
      <trkpt lat="41.79607" lon="26.11902">
        <ele>98.96278</ele>
        <time>2022-02-26T11:16:43.274Z</time>
      </trkpt>
      <trkpt lat="41.79614" lon="26.11894">
        <ele>99.100731</ele>
        <time>2022-02-26T11:16:48.285Z</time>
      </trkpt>
      <trkpt lat="41.79621" lon="26.11884">
        <ele>99.25088</ele>
        <time>2022-02-26T11:16:53.271Z</time>
      </trkpt>
      <trkpt lat="41.79628" lon="26.11874">
        <ele>99.418242</ele>
        <time>2022-02-26T11:16:58.272Z</time>
      </trkpt>
      <trkpt lat="41.79635" lon="26.11863">
        <ele>99.569537</ele>
        <time>2022-02-26T11:17:03.291Z</time>
      </trkpt>
      <trkpt lat="41.79642" lon="26.11855">
        <ele>99.716173</ele>
        <time>2022-02-26T11:17:10.281Z</time>
      </trkpt>
      <trkpt lat="41.79649" lon="26.11845">
        <ele>99.871175</ele>
        <time>2022-02-26T11:17:15.289Z</time>
      </trkpt>
      <trkpt lat="41.79656" lon="26.11834">
        <ele>100.035841</ele>
        <time>2022-02-26T11:17:20.261Z</time>
      </trkpt>
      <trkpt lat="41.79663" lon="26.11825">
        <ele>100.187418</ele>
        <time>2022-02-26T11:17:25.299Z</time>
      </trkpt>
      <trkpt lat="41.79672" lon="26.1182">
        <ele>100.326274</ele>
        <time>2022-02-26T11:17:30.267Z</time>
      </trkpt>
      <trkpt lat="41.79681" lon="26.11814">
        <ele>100.483237</ele>
        <time>2022-02-26T11:17:35.275Z</time>
      </trkpt>
      <trkpt lat="41.7969" lon="26.11807">
        <ele>100.63351</ele>
        <time>2022-02-26T11:17:40.266Z</time>
      </trkpt>
      <trkpt lat="41.79699" lon="26.118">
        <ele>100.635085</ele>
        <time>2022-02-26T11:17:45.263Z</time>
      </trkpt>
      <trkpt lat="41.79708" lon="26.11793">
        <ele>100.63672</ele>
        <time>2022-02-26T11:17:50.265Z</time>
      </trkpt>
      <trkpt lat="41.79717" lon="26.11786">
        <ele>100.6384</ele>
        <time>2022-02-26T11:17:55.284Z</time>
      </trkpt>
      <trkpt lat="41.79726" lon="26.11777">
        <ele>100.640102</ele>
        <time>2022-02-26T11:18:00.315Z</time>
      </trkpt>
      <trkpt lat="41.79735" lon="26.1177">
        <ele>100.641813</ele>
        <time>2022-02-26T11:18:05.274Z</time>
      </trkpt>
      <trkpt lat="41.79743" lon="26.11764">
        <ele>100.643285</ele>
        <time>2022-02-26T11:18:09.279Z</time>
      </trkpt>
      <trkpt lat="41.79752" lon="26.11757">
        <ele>100.644802</ele>
        <time>2022-02-26T11:18:13.266Z</time>
      </trkpt>
      <trkpt lat="41.79762" lon="26.11749">
        <ele>100.646662</ele>
        <time>2022-02-26T11:18:17.290Z</time>
      </trkpt>
      <trkpt lat="41.7977" lon="26.11743">
        <ele>100.648066</ele>
        <time>2022-02-26T11:18:20.288Z</time>
      </trkpt>
      <trkpt lat="41.79778" lon="26.11735">
        <ele>100.649677</ele>
        <time>2022-02-26T11:18:24.327Z</time>
      </trkpt>
      <trkpt lat="41.79788" lon="26.11727">
        <ele>100.651498</ele>
        <time>2022-02-26T11:18:28.262Z</time>
      </trkpt>
      <trkpt lat="41.79797" lon="26.1172">
        <ele>100.653112</ele>
        <time>2022-02-26T11:18:32.277Z</time>
      </trkpt>
      <trkpt lat="41.79807" lon="26.11712">
        <ele>100.654855</ele>
        <time>2022-02-26T11:18:37.275Z</time>
      </trkpt>
      <trkpt lat="41.79815" lon="26.11706">
        <ele>100.656293</ele>
        <time>2022-02-26T11:18:41.307Z</time>
      </trkpt>
      <trkpt lat="41.79824" lon="26.11699">
        <ele>100.658005</ele>
        <time>2022-02-26T11:18:45.289Z</time>
      </trkpt>
      <trkpt lat="41.79833" lon="26.11693">
        <ele>100.659533</ele>
        <time>2022-02-26T11:18:48.295Z</time>
      </trkpt>
      <trkpt lat="41.79841" lon="26.11687">
        <ele>100.660946</ele>
        <time>2022-02-26T11:18:51.255Z</time>
      </trkpt>
      <trkpt lat="41.79849" lon="26.1168">
        <ele>100.735543</ele>
        <time>2022-02-26T11:18:55.273Z</time>
      </trkpt>
      <trkpt lat="41.79858" lon="26.11675">
        <ele>100.855114</ele>
        <time>2022-02-26T11:19:00.296Z</time>
      </trkpt>
      <trkpt lat="41.79868" lon="26.11669">
        <ele>100.986981</ele>
        <time>2022-02-26T11:19:05.269Z</time>
      </trkpt>
      <trkpt lat="41.79876" lon="26.11664">
        <ele>101.100447</ele>
        <time>2022-02-26T11:19:09.275Z</time>
      </trkpt>
      <trkpt lat="41.79885" lon="26.11658">
        <ele>101.221504</ele>
        <time>2022-02-26T11:19:13.311Z</time>
      </trkpt>
      <trkpt lat="41.79893" lon="26.11653">
        <ele>101.334633</ele>
        <time>2022-02-26T11:19:17.283Z</time>
      </trkpt>
      <trkpt lat="41.79902" lon="26.11647">
        <ele>101.460253</ele>
        <time>2022-02-26T11:19:21.267Z</time>
      </trkpt>
      <trkpt lat="41.79911" lon="26.1164">
        <ele>101.585761</ele>
        <time>2022-02-26T11:19:25.316Z</time>
      </trkpt>
      <trkpt lat="41.7992" lon="26.11634">
        <ele>101.709532</ele>
        <time>2022-02-26T11:19:29.276Z</time>
      </trkpt>
      <trkpt lat="41.79928" lon="26.11627">
        <ele>101.828245</ele>
        <time>2022-02-26T11:19:34.288Z</time>
      </trkpt>
      <trkpt lat="41.79936" lon="26.1162">
        <ele>101.951852</ele>
        <time>2022-02-26T11:19:40.285Z</time>
      </trkpt>
      <trkpt lat="41.79944" lon="26.11614">
        <ele>102.06598</ele>
        <time>2022-02-26T11:19:45.285Z</time>
      </trkpt>
      <trkpt lat="41.79954" lon="26.11606">
        <ele>102.206385</ele>
        <time>2022-02-26T11:19:50.262Z</time>
      </trkpt>
      <trkpt lat="41.79962" lon="26.11599">
        <ele>102.320756</ele>
        <time>2022-02-26T11:19:56.280Z</time>
      </trkpt>
      <trkpt lat="41.7997" lon="26.11592">
        <ele>102.443589</ele>
        <time>2022-02-26T11:20:03.259Z</time>
      </trkpt>
      <trkpt lat="41.79978" lon="26.11584">
        <ele>102.574164</ele>
        <time>2022-02-26T11:20:09.311Z</time>
      </trkpt>
      <trkpt lat="41.79987" lon="26.11577">
        <ele>102.696996</ele>
        <time>2022-02-26T11:20:15.332Z</time>
      </trkpt>
      <trkpt lat="41.79995" lon="26.11569">
        <ele>102.826083</ele>
        <time>2022-02-26T11:20:21.270Z</time>
      </trkpt>
      <trkpt lat="41.80003" lon="26.11563">
        <ele>102.927321</ele>
        <time>2022-02-26T11:20:26.317Z</time>
      </trkpt>
      <trkpt lat="41.80012" lon="26.11555">
        <ele>103.023962</ele>
        <time>2022-02-26T11:20:32.268Z</time>
      </trkpt>
      <trkpt lat="41.8002" lon="26.11548">
        <ele>103.107966</ele>
        <time>2022-02-26T11:20:37.320Z</time>
      </trkpt>
      <trkpt lat="41.80028" lon="26.11542">
        <ele>103.190636</ele>
        <time>2022-02-26T11:20:42.273Z</time>
      </trkpt>
      <trkpt lat="41.80037" lon="26.11536">
        <ele>103.284636</ele>
        <time>2022-02-26T11:20:48.271Z</time>
      </trkpt>
      <trkpt lat="41.80046" lon="26.11529">
        <ele>103.380307</ele>
        <time>2022-02-26T11:20:54.320Z</time>
      </trkpt>
      <trkpt lat="41.80054" lon="26.11522">
        <ele>103.466432</ele>
        <time>2022-02-26T11:20:59.279Z</time>
      </trkpt>
      <trkpt lat="41.80062" lon="26.11515">
        <ele>103.553321</ele>
        <time>2022-02-26T11:21:04.274Z</time>
      </trkpt>
      <trkpt lat="41.80071" lon="26.11508">
        <ele>103.643288</ele>
        <time>2022-02-26T11:21:09.289Z</time>
      </trkpt>
      <trkpt lat="41.80079" lon="26.11501">
        <ele>103.73413</ele>
        <time>2022-02-26T11:21:14.273Z</time>
      </trkpt>
      <trkpt lat="41.80088" lon="26.11493">
        <ele>103.8334</ele>
        <time>2022-02-26T11:21:19.272Z</time>
      </trkpt>
      <trkpt lat="41.80095" lon="26.11484">
        <ele>103.91784</ele>
        <time>2022-02-26T11:21:24.264Z</time>
      </trkpt>
      <trkpt lat="41.80104" lon="26.11477">
        <ele>104.007388</ele>
        <time>2022-02-26T11:21:29.260Z</time>
      </trkpt>
      <trkpt lat="41.80113" lon="26.11472">
        <ele>104.098956</ele>
        <time>2022-02-26T11:21:34.294Z</time>
      </trkpt>
      <trkpt lat="41.80121" lon="26.11465">
        <ele>104.187322</ele>
        <time>2022-02-26T11:21:39.311Z</time>
      </trkpt>
      <trkpt lat="41.8013" lon="26.11457">
        <ele>104.285112</ele>
        <time>2022-02-26T11:21:44.260Z</time>
      </trkpt>
      <trkpt lat="41.80139" lon="26.11451">
        <ele>104.378789</ele>
        <time>2022-02-26T11:21:49.271Z</time>
      </trkpt>
      <trkpt lat="41.80147" lon="26.11444">
        <ele>104.462661</ele>
        <time>2022-02-26T11:21:53.266Z</time>
      </trkpt>
      <trkpt lat="41.80157" lon="26.11437">
        <ele>104.538488</ele>
        <time>2022-02-26T11:21:58.274Z</time>
      </trkpt>
      <trkpt lat="41.80166" lon="26.1143">
        <ele>104.571616</ele>
        <time>2022-02-26T11:22:03.270Z</time>
      </trkpt>
      <trkpt lat="41.80176" lon="26.11426">
        <ele>104.601396</ele>
        <time>2022-02-26T11:22:08.288Z</time>
      </trkpt>
      <trkpt lat="41.80186" lon="26.11422">
        <ele>104.634401</ele>
        <time>2022-02-26T11:22:13.268Z</time>
      </trkpt>
      <trkpt lat="41.80195" lon="26.11417">
        <ele>104.663919</ele>
        <time>2022-02-26T11:22:17.283Z</time>
      </trkpt>
      <trkpt lat="41.80205" lon="26.11409">
        <ele>104.698252</ele>
        <time>2022-02-26T11:22:22.274Z</time>
      </trkpt>
      <trkpt lat="41.80213" lon="26.11403">
        <ele>104.727337</ele>
        <time>2022-02-26T11:22:27.277Z</time>
      </trkpt>
      <trkpt lat="41.80221" lon="26.11396">
        <ele>104.757964</ele>
        <time>2022-02-26T11:22:33.260Z</time>
      </trkpt>
      <trkpt lat="41.80231" lon="26.11389">
        <ele>104.790455</ele>
        <time>2022-02-26T11:22:39.278Z</time>
      </trkpt>
      <trkpt lat="41.8024" lon="26.11383">
        <ele>104.822646</ele>
        <time>2022-02-26T11:22:44.262Z</time>
      </trkpt>
      <trkpt lat="41.80249" lon="26.11376">
        <ele>104.853273</ele>
        <time>2022-02-26T11:22:49.286Z</time>
      </trkpt>
      <trkpt lat="41.80257" lon="26.11368">
        <ele>104.88514</ele>
        <time>2022-02-26T11:22:54.282Z</time>
      </trkpt>
      <trkpt lat="41.80264" lon="26.11359">
        <ele>104.914607</ele>
        <time>2022-02-26T11:22:59.259Z</time>
      </trkpt>
      <trkpt lat="41.80272" lon="26.1135">
        <ele>104.946083</ele>
        <time>2022-02-26T11:23:05.272Z</time>
      </trkpt>
      <trkpt lat="41.80281" lon="26.11345">
        <ele>104.977333</ele>
        <time>2022-02-26T11:23:12.271Z</time>
      </trkpt>
      <trkpt lat="41.80291" lon="26.1134">
        <ele>105.009176</ele>
        <time>2022-02-26T11:23:18.269Z</time>
      </trkpt>
      <trkpt lat="41.80301" lon="26.11333">
        <ele>105.042114</ele>
        <time>2022-02-26T11:23:24.281Z</time>
      </trkpt>
      <trkpt lat="41.80308" lon="26.11325">
        <ele>105.070668</ele>
        <time>2022-02-26T11:23:29.275Z</time>
      </trkpt>
      <trkpt lat="41.80315" lon="26.11316">
        <ele>105.132135</ele>
        <time>2022-02-26T11:23:34.272Z</time>
      </trkpt>
      <trkpt lat="41.80325" lon="26.11312">
        <ele>105.199698</ele>
        <time>2022-02-26T11:23:40.261Z</time>
      </trkpt>
      <trkpt lat="41.80333" lon="26.11306">
        <ele>105.266289</ele>
        <time>2022-02-26T11:23:46.283Z</time>
      </trkpt>
      <trkpt lat="41.80341" lon="26.11299">
        <ele>105.332582</ele>
        <time>2022-02-26T11:23:51.304Z</time>
      </trkpt>
      <trkpt lat="41.8035" lon="26.11293">
        <ele>105.40281</ele>
        <time>2022-02-26T11:23:57.314Z</time>
      </trkpt>
      <trkpt lat="41.8036" lon="26.11288">
        <ele>105.473438</ele>
        <time>2022-02-26T11:24:03.269Z</time>
      </trkpt>
      <trkpt lat="41.80368" lon="26.11283">
        <ele>105.536887</ele>
        <time>2022-02-26T11:24:08.264Z</time>
      </trkpt>
      <trkpt lat="41.80376" lon="26.11275">
        <ele>105.603486</ele>
        <time>2022-02-26T11:24:14.288Z</time>
      </trkpt>
      <trkpt lat="41.80384" lon="26.11268">
        <ele>105.67178</ele>
        <time>2022-02-26T11:24:20.280Z</time>
      </trkpt>
      <trkpt lat="41.80393" lon="26.1126">
        <ele>105.745789</ele>
        <time>2022-02-26T11:24:26.285Z</time>
      </trkpt>
      <trkpt lat="41.80402" lon="26.11254">
        <ele>105.808876</ele>
        <time>2022-02-26T11:24:31.285Z</time>
      </trkpt>
      <trkpt lat="41.80412" lon="26.11251">
        <ele>105.879279</ele>
        <time>2022-02-26T11:24:37.267Z</time>
      </trkpt>
      <trkpt lat="41.80421" lon="26.11249">
        <ele>105.948338</ele>
        <time>2022-02-26T11:24:43.286Z</time>
      </trkpt>
      <trkpt lat="41.80431" lon="26.11246">
        <ele>106.015383</ele>
        <time>2022-02-26T11:24:49.289Z</time>
      </trkpt>
      <trkpt lat="41.80438" lon="26.11237">
        <ele>106.080375</ele>
        <time>2022-02-26T11:24:54.272Z</time>
      </trkpt>
      <trkpt lat="41.80445" lon="26.1123">
        <ele>106.143738</ele>
        <time>2022-02-26T11:24:59.306Z</time>
      </trkpt>
      <trkpt lat="41.80454" lon="26.11225">
        <ele>106.207076</ele>
        <time>2022-02-26T11:25:04.285Z</time>
      </trkpt>
      <trkpt lat="41.80463" lon="26.1122">
        <ele>106.275132</ele>
        <time>2022-02-26T11:25:09.285Z</time>
      </trkpt>
      <trkpt lat="41.80471" lon="26.11212">
        <ele>106.346673</ele>
        <time>2022-02-26T11:25:14.328Z</time>
      </trkpt>
      <trkpt lat="41.8048" lon="26.11203">
        <ele>106.423672</ele>
        <time>2022-02-26T11:25:19.284Z</time>
      </trkpt>
      <trkpt lat="41.8049" lon="26.112">
        <ele>106.495568</ele>
        <time>2022-02-26T11:25:24.273Z</time>
      </trkpt>
      <trkpt lat="41.80499" lon="26.11196">
        <ele>106.562227</ele>
        <time>2022-02-26T11:25:29.300Z</time>
      </trkpt>
      <trkpt lat="41.80507" lon="26.11188">
        <ele>106.638018</ele>
        <time>2022-02-26T11:25:35.275Z</time>
      </trkpt>
      <trkpt lat="41.80515" lon="26.1118">
        <ele>106.71055</ele>
        <time>2022-02-26T11:25:41.275Z</time>
      </trkpt>
      <trkpt lat="41.80525" lon="26.11175">
        <ele>106.784748</ele>
        <time>2022-02-26T11:25:46.271Z</time>
      </trkpt>
      <trkpt lat="41.80535" lon="26.11169">
        <ele>106.864594</ele>
        <time>2022-02-26T11:25:51.280Z</time>
      </trkpt>
      <trkpt lat="41.80544" lon="26.11163">
        <ele>106.930436</ele>
        <time>2022-02-26T11:25:55.273Z</time>
      </trkpt>
      <trkpt lat="41.80552" lon="26.11156">
        <ele>107.000936</ele>
        <time>2022-02-26T11:25:59.278Z</time>
      </trkpt>
      <trkpt lat="41.8056" lon="26.11147">
        <ele>107.079584</ele>
        <time>2022-02-26T11:26:04.274Z</time>
      </trkpt>
      <trkpt lat="41.80568" lon="26.11139">
        <ele>107.146197</ele>
        <time>2022-02-26T11:26:09.269Z</time>
      </trkpt>
      <trkpt lat="41.80577" lon="26.11135">
        <ele>107.211629</ele>
        <time>2022-02-26T11:26:14.270Z</time>
      </trkpt>
      <trkpt lat="41.80585" lon="26.11129">
        <ele>107.281382</ele>
        <time>2022-02-26T11:26:19.304Z</time>
      </trkpt>
      <trkpt lat="41.80593" lon="26.11122">
        <ele>107.345329</ele>
        <time>2022-02-26T11:26:23.271Z</time>
      </trkpt>
      <trkpt lat="41.80601" lon="26.11117">
        <ele>107.410012</ele>
        <time>2022-02-26T11:26:27.295Z</time>
      </trkpt>
      <trkpt lat="41.80611" lon="26.11112">
        <ele>107.489139</ele>
        <time>2022-02-26T11:26:32.260Z</time>
      </trkpt>
      <trkpt lat="41.80621" lon="26.11106">
        <ele>107.566845</ele>
        <time>2022-02-26T11:26:37.261Z</time>
      </trkpt>
      <trkpt lat="41.80631" lon="26.11099">
        <ele>107.315379</ele>
        <time>2022-02-26T11:26:42.287Z</time>
      </trkpt>
      <trkpt lat="41.80641" lon="26.11092">
        <ele>106.86563</ele>
        <time>2022-02-26T11:26:47.267Z</time>
      </trkpt>
      <trkpt lat="41.80651" lon="26.11086">
        <ele>106.40329</ele>
        <time>2022-02-26T11:26:52.269Z</time>
      </trkpt>
      <trkpt lat="41.80659" lon="26.1108">
        <ele>106.018015</ele>
        <time>2022-02-26T11:26:56.298Z</time>
      </trkpt>
      <trkpt lat="41.80669" lon="26.11074">
        <ele>105.594239</ele>
        <time>2022-02-26T11:27:01.270Z</time>
      </trkpt>
      <trkpt lat="41.80679" lon="26.11068">
        <ele>105.153238</ele>
        <time>2022-02-26T11:27:06.283Z</time>
      </trkpt>
      <trkpt lat="41.80687" lon="26.11063">
        <ele>104.780023</ele>
        <time>2022-02-26T11:27:10.274Z</time>
      </trkpt>
      <trkpt lat="41.80696" lon="26.11058">
        <ele>104.374372</ele>
        <time>2022-02-26T11:27:14.307Z</time>
      </trkpt>
      <trkpt lat="41.80705" lon="26.11055">
        <ele>104.00619</ele>
        <time>2022-02-26T11:27:19.293Z</time>
      </trkpt>
      <trkpt lat="41.80714" lon="26.11054">
        <ele>103.622067</ele>
        <time>2022-02-26T11:27:24.271Z</time>
      </trkpt>
      <trkpt lat="41.80724" lon="26.11055">
        <ele>103.231149</ele>
        <time>2022-02-26T11:27:28.288Z</time>
      </trkpt>
      <trkpt lat="41.80733" lon="26.11055">
        <ele>102.848479</ele>
        <time>2022-02-26T11:27:32.283Z</time>
      </trkpt>
      <trkpt lat="41.80744" lon="26.11052">
        <ele>102.414349</ele>
        <time>2022-02-26T11:27:38.272Z</time>
      </trkpt>
      <trkpt lat="41.80755" lon="26.11051">
        <ele>101.96048</ele>
        <time>2022-02-26T11:27:44.283Z</time>
      </trkpt>
      <trkpt lat="41.80765" lon="26.11049">
        <ele>101.557381</ele>
        <time>2022-02-26T11:27:48.264Z</time>
      </trkpt>
      <trkpt lat="41.80774" lon="26.11046">
        <ele>101.164393</ele>
        <time>2022-02-26T11:27:52.279Z</time>
      </trkpt>
      <trkpt lat="41.80786" lon="26.11043">
        <ele>100.690143</ele>
        <time>2022-02-26T11:27:56.271Z</time>
      </trkpt>
      <trkpt lat="41.80794" lon="26.11039">
        <ele>100.323442</ele>
        <time>2022-02-26T11:27:59.285Z</time>
      </trkpt>
      <trkpt lat="41.80804" lon="26.11032">
        <ele>99.961634</ele>
        <time>2022-02-26T11:28:03.266Z</time>
      </trkpt>
      <trkpt lat="41.80813" lon="26.11025">
        <ele>99.635508</ele>
        <time>2022-02-26T11:28:07.287Z</time>
      </trkpt>
      <trkpt lat="41.80821" lon="26.11017">
        <ele>99.336591</ele>
        <time>2022-02-26T11:28:11.289Z</time>
      </trkpt>
      <trkpt lat="41.80828" lon="26.11008">
        <ele>99.030269</ele>
        <time>2022-02-26T11:28:15.284Z</time>
      </trkpt>
      <trkpt lat="41.80836" lon="26.10998">
        <ele>98.707766</ele>
        <time>2022-02-26T11:28:19.275Z</time>
      </trkpt>
      <trkpt lat="41.80844" lon="26.10988">
        <ele>98.368557</ele>
        <time>2022-02-26T11:28:23.293Z</time>
      </trkpt>
      <trkpt lat="41.80851" lon="26.10978">
        <ele>98.035312</ele>
        <time>2022-02-26T11:28:27.257Z</time>
      </trkpt>
      <trkpt lat="41.80859" lon="26.10967">
        <ele>97.694944</ele>
        <time>2022-02-26T11:28:31.273Z</time>
      </trkpt>
      <trkpt lat="41.80866" lon="26.10956">
        <ele>97.360903</ele>
        <time>2022-02-26T11:28:35.293Z</time>
      </trkpt>
      <trkpt lat="41.80874" lon="26.10949">
        <ele>97.061987</ele>
        <time>2022-02-26T11:28:39.287Z</time>
      </trkpt>
      <trkpt lat="41.80883" lon="26.10943">
        <ele>96.762857</ele>
        <time>2022-02-26T11:28:43.321Z</time>
      </trkpt>
      <trkpt lat="41.80893" lon="26.10937">
        <ele>96.426267</ele>
        <time>2022-02-26T11:28:47.283Z</time>
      </trkpt>
      <trkpt lat="41.80902" lon="26.10932">
        <ele>96.107504</ele>
        <time>2022-02-26T11:28:51.268Z</time>
      </trkpt>
      <trkpt lat="41.80911" lon="26.10924">
        <ele>95.786784</ele>
        <time>2022-02-26T11:28:56.289Z</time>
      </trkpt>
      <trkpt lat="41.80919" lon="26.10916">
        <ele>95.484018</ele>
        <time>2022-02-26T11:29:02.280Z</time>
      </trkpt>
      <trkpt lat="41.80926" lon="26.10908">
        <ele>95.183642</ele>
        <time>2022-02-26T11:29:07.270Z</time>
      </trkpt>
      <trkpt lat="41.80934" lon="26.109">
        <ele>94.882754</ele>
        <time>2022-02-26T11:29:12.284Z</time>
      </trkpt>
      <trkpt lat="41.80942" lon="26.10892">
        <ele>94.779272</ele>
        <time>2022-02-26T11:29:17.306Z</time>
      </trkpt>
      <trkpt lat="41.80949" lon="26.10884">
        <ele>94.915879</ele>
        <time>2022-02-26T11:29:21.291Z</time>
      </trkpt>
      <trkpt lat="41.80959" lon="26.10879">
        <ele>95.077731</ele>
        <time>2022-02-26T11:29:26.267Z</time>
      </trkpt>
      <trkpt lat="41.80968" lon="26.10872">
        <ele>95.243941</ele>
        <time>2022-02-26T11:29:31.282Z</time>
      </trkpt>
      <trkpt lat="41.80976" lon="26.10865">
        <ele>95.384309</ele>
        <time>2022-02-26T11:29:35.260Z</time>
      </trkpt>
      <trkpt lat="41.80984" lon="26.10859">
        <ele>95.528085</ele>
        <time>2022-02-26T11:29:40.287Z</time>
      </trkpt>
      <trkpt lat="41.80993" lon="26.10854">
        <ele>95.675495</ele>
        <time>2022-02-26T11:29:48.282Z</time>
      </trkpt>
      <trkpt lat="41.81003" lon="26.10848">
        <ele>95.835306</ele>
        <time>2022-02-26T11:29:52.308Z</time>
      </trkpt>
      <trkpt lat="41.81012" lon="26.10842">
        <ele>95.988824</ele>
        <time>2022-02-26T11:29:59.279Z</time>
      </trkpt>
      <trkpt lat="41.81018" lon="26.10833">
        <ele>96.125265</ele>
        <time>2022-02-26T11:30:05.263Z</time>
      </trkpt>
      <trkpt lat="41.81027" lon="26.10825">
        <ele>96.285057</ele>
        <time>2022-02-26T11:30:10.277Z</time>
      </trkpt>
      <trkpt lat="41.81036" lon="26.10821">
        <ele>96.422959</ele>
        <time>2022-02-26T11:30:14.282Z</time>
      </trkpt>
      <trkpt lat="41.81045" lon="26.10816">
        <ele>96.577799</ele>
        <time>2022-02-26T11:30:18.287Z</time>
      </trkpt>
      <trkpt lat="41.81055" lon="26.10809">
        <ele>96.749687</ele>
        <time>2022-02-26T11:30:22.282Z</time>
      </trkpt>
      <trkpt lat="41.81066" lon="26.10801">
        <ele>96.930015</ele>
        <time>2022-02-26T11:30:26.259Z</time>
      </trkpt>
      <trkpt lat="41.81074" lon="26.10795">
        <ele>97.075245</ele>
        <time>2022-02-26T11:30:30.264Z</time>
      </trkpt>
      <trkpt lat="41.81083" lon="26.10789">
        <ele>97.221026</ele>
        <time>2022-02-26T11:30:34.262Z</time>
      </trkpt>
      <trkpt lat="41.81091" lon="26.10782">
        <ele>97.361591</ele>
        <time>2022-02-26T11:30:38.277Z</time>
      </trkpt>
      <trkpt lat="41.811" lon="26.10775">
        <ele>97.428738</ele>
        <time>2022-02-26T11:30:42.308Z</time>
      </trkpt>
      <trkpt lat="41.81109" lon="26.10768">
        <ele>97.424958</ele>
        <time>2022-02-26T11:30:47.274Z</time>
      </trkpt>
      <trkpt lat="41.81118" lon="26.10759">
        <ele>97.421218</ele>
        <time>2022-02-26T11:30:51.258Z</time>
      </trkpt>
      <trkpt lat="41.81127" lon="26.1075">
        <ele>97.41729</ele>
        <time>2022-02-26T11:30:55.263Z</time>
      </trkpt>
      <trkpt lat="41.81137" lon="26.10742">
        <ele>97.41359</ele>
        <time>2022-02-26T11:30:59.270Z</time>
      </trkpt>
      <trkpt lat="41.81146" lon="26.10738">
        <ele>97.410203</ele>
        <time>2022-02-26T11:31:04.269Z</time>
      </trkpt>
      <trkpt lat="41.81156" lon="26.10733">
        <ele>97.406675</ele>
        <time>2022-02-26T11:31:09.280Z</time>
      </trkpt>
      <trkpt lat="41.81164" lon="26.10725">
        <ele>97.403245</ele>
        <time>2022-02-26T11:31:13.279Z</time>
      </trkpt>
      <trkpt lat="41.81172" lon="26.10716">
        <ele>97.399675</ele>
        <time>2022-02-26T11:31:17.263Z</time>
      </trkpt>
      <trkpt lat="41.81181" lon="26.10708">
        <ele>97.396048</ele>
        <time>2022-02-26T11:31:21.277Z</time>
      </trkpt>
      <trkpt lat="41.81189" lon="26.107">
        <ele>97.392572</ele>
        <time>2022-02-26T11:31:26.265Z</time>
      </trkpt>
      <trkpt lat="41.81196" lon="26.10689">
        <ele>97.388976</ele>
        <time>2022-02-26T11:31:32.268Z</time>
      </trkpt>
      <trkpt lat="41.81203" lon="26.1068">
        <ele>97.385659</ele>
        <time>2022-02-26T11:31:37.281Z</time>
      </trkpt>
      <trkpt lat="41.8121" lon="26.10671">
        <ele>97.382465</ele>
        <time>2022-02-26T11:31:45.284Z</time>
      </trkpt>
      <trkpt lat="41.81217" lon="26.10664">
        <ele>97.379163</ele>
        <time>2022-02-26T11:31:52.254Z</time>
      </trkpt>
      <trkpt lat="41.81225" lon="26.10656">
        <ele>97.375954</ele>
        <time>2022-02-26T11:31:57.285Z</time>
      </trkpt>
      <trkpt lat="41.81233" lon="26.10648">
        <ele>97.372725</ele>
        <time>2022-02-26T11:32:04.305Z</time>
      </trkpt>
      <trkpt lat="41.81239" lon="26.10638">
        <ele>97.391423</ele>
        <time>2022-02-26T11:32:10.263Z</time>
      </trkpt>
      <trkpt lat="41.81246" lon="26.10627">
        <ele>97.948953</ele>
        <time>2022-02-26T11:32:18.269Z</time>
      </trkpt>
      <trkpt lat="41.81253" lon="26.1062">
        <ele>98.44102</ele>
        <time>2022-02-26T11:32:23.290Z</time>
      </trkpt>
      <trkpt lat="41.81261" lon="26.10612">
        <ele>98.927425</ele>
        <time>2022-02-26T11:32:29.259Z</time>
      </trkpt>
      <trkpt lat="41.81269" lon="26.10606">
        <ele>99.46754</ele>
        <time>2022-02-26T11:32:35.276Z</time>
      </trkpt>
      <trkpt lat="41.81278" lon="26.106">
        <ele>99.970702</ele>
        <time>2022-02-26T11:32:41.271Z</time>
      </trkpt>
      <trkpt lat="41.81287" lon="26.10595">
        <ele>100.481999</ele>
        <time>2022-02-26T11:32:47.263Z</time>
      </trkpt>
      <trkpt lat="41.81296" lon="26.10591">
        <ele>100.973308</ele>
        <time>2022-02-26T11:32:52.259Z</time>
      </trkpt>
      <trkpt lat="41.81305" lon="26.10586">
        <ele>101.495907</ele>
        <time>2022-02-26T11:32:57.272Z</time>
      </trkpt>
      <trkpt lat="41.81314" lon="26.1058">
        <ele>102.026711</ele>
        <time>2022-02-26T11:33:03.281Z</time>
      </trkpt>
      <trkpt lat="41.81323" lon="26.10572">
        <ele>102.614261</ele>
        <time>2022-02-26T11:33:09.283Z</time>
      </trkpt>
      <trkpt lat="41.81331" lon="26.10565">
        <ele>103.100587</ele>
        <time>2022-02-26T11:33:14.274Z</time>
      </trkpt>
      <trkpt lat="41.81339" lon="26.10558">
        <ele>103.627037</ele>
        <time>2022-02-26T11:33:20.281Z</time>
      </trkpt>
      <trkpt lat="41.81348" lon="26.10552">
        <ele>104.153742</ele>
        <time>2022-02-26T11:33:26.288Z</time>
      </trkpt>
      <trkpt lat="41.81357" lon="26.10547">
        <ele>104.655241</ele>
        <time>2022-02-26T11:33:31.268Z</time>
      </trkpt>
      <trkpt lat="41.81366" lon="26.10541">
        <ele>105.187369</ele>
        <time>2022-02-26T11:33:37.282Z</time>
      </trkpt>
      <trkpt lat="41.81374" lon="26.10537">
        <ele>105.681464</ele>
        <time>2022-02-26T11:33:41.291Z</time>
      </trkpt>
      <trkpt lat="41.81383" lon="26.10532">
        <ele>106.15876</ele>
        <time>2022-02-26T11:33:45.301Z</time>
      </trkpt>
      <trkpt lat="41.81392" lon="26.10526">
        <ele>106.707042</ele>
        <time>2022-02-26T11:33:50.266Z</time>
      </trkpt>
      <trkpt lat="41.81401" lon="26.10522">
        <ele>106.87509</ele>
        <time>2022-02-26T11:33:55.277Z</time>
      </trkpt>
      <trkpt lat="41.8141" lon="26.10517">
        <ele>106.837531</ele>
        <time>2022-02-26T11:33:59.271Z</time>
      </trkpt>
      <trkpt lat="41.81419" lon="26.10513">
        <ele>106.798512</ele>
        <time>2022-02-26T11:34:03.260Z</time>
      </trkpt>
      <trkpt lat="41.81428" lon="26.10509">
        <ele>106.758794</ele>
        <time>2022-02-26T11:34:07.257Z</time>
      </trkpt>
      <trkpt lat="41.81437" lon="26.10503">
        <ele>106.714749</ele>
        <time>2022-02-26T11:34:11.278Z</time>
      </trkpt>
      <trkpt lat="41.81447" lon="26.10497">
        <ele>106.669452</ele>
        <time>2022-02-26T11:34:15.280Z</time>
      </trkpt>
      <trkpt lat="41.81456" lon="26.1049">
        <ele>106.625844</ele>
        <time>2022-02-26T11:34:19.303Z</time>
      </trkpt>
      <trkpt lat="41.81466" lon="26.10481">
        <ele>106.578489</ele>
        <time>2022-02-26T11:34:23.259Z</time>
      </trkpt>
      <trkpt lat="41.81476" lon="26.10474">
        <ele>106.529453</ele>
        <time>2022-02-26T11:34:27.275Z</time>
      </trkpt>
      <trkpt lat="41.81487" lon="26.10469">
        <ele>106.481484</ele>
        <time>2022-02-26T11:34:31.271Z</time>
      </trkpt>
      <trkpt lat="41.81498" lon="26.10464">
        <ele>106.433906</ele>
        <time>2022-02-26T11:34:35.274Z</time>
      </trkpt>
      <trkpt lat="41.81509" lon="26.10458">
        <ele>106.387389</ele>
        <time>2022-02-26T11:34:39.284Z</time>
      </trkpt>
      <trkpt lat="41.81517" lon="26.10454">
        <ele>106.348726</ele>
        <time>2022-02-26T11:34:43.274Z</time>
      </trkpt>
      <trkpt lat="41.81527" lon="26.10451">
        <ele>106.307232</ele>
        <time>2022-02-26T11:34:47.316Z</time>
      </trkpt>
      <trkpt lat="41.81537" lon="26.10448">
        <ele>106.265263</ele>
        <time>2022-02-26T11:34:51.252Z</time>
      </trkpt>
      <trkpt lat="41.81547" lon="26.10446">
        <ele>106.223702</ele>
        <time>2022-02-26T11:34:55.262Z</time>
      </trkpt>
      <trkpt lat="41.81554" lon="26.10438">
        <ele>106.184862</ele>
        <time>2022-02-26T11:34:59.314Z</time>
      </trkpt>
      <trkpt lat="41.81564" lon="26.10434">
        <ele>106.18541</ele>
        <time>2022-02-26T11:35:03.268Z</time>
      </trkpt>
      <trkpt lat="41.81574" lon="26.10429">
        <ele>106.296244</ele>
        <time>2022-02-26T11:35:07.272Z</time>
      </trkpt>
      <trkpt lat="41.81585" lon="26.10425">
        <ele>106.410605</ele>
        <time>2022-02-26T11:35:11.282Z</time>
      </trkpt>
      <trkpt lat="41.81596" lon="26.10419">
        <ele>106.523637</ele>
        <time>2022-02-26T11:35:15.276Z</time>
      </trkpt>
      <trkpt lat="41.81605" lon="26.10415">
        <ele>106.622355</ele>
        <time>2022-02-26T11:35:18.272Z</time>
      </trkpt>
      <trkpt lat="41.81615" lon="26.1041">
        <ele>106.729111</ele>
        <time>2022-02-26T11:35:22.284Z</time>
      </trkpt>
      <trkpt lat="41.81625" lon="26.10404">
        <ele>106.842051</ele>
        <time>2022-02-26T11:35:26.292Z</time>
      </trkpt>
      <trkpt lat="41.81634" lon="26.10399">
        <ele>106.942136</ele>
        <time>2022-02-26T11:35:29.261Z</time>
      </trkpt>
      <trkpt lat="41.81643" lon="26.10388">
        <ele>107.057995</ele>
        <time>2022-02-26T11:35:33.271Z</time>
      </trkpt>
      <trkpt lat="41.81651" lon="26.10381">
        <ele>107.155989</ele>
        <time>2022-02-26T11:35:36.277Z</time>
      </trkpt>
      <trkpt lat="41.8166" lon="26.10376">
        <ele>107.249668</ele>
        <time>2022-02-26T11:35:39.304Z</time>
      </trkpt>
      <trkpt lat="41.81671" lon="26.10369">
        <ele>107.372729</ele>
        <time>2022-02-26T11:35:43.304Z</time>
      </trkpt>
      <trkpt lat="41.81681" lon="26.10362">
        <ele>107.489291</ele>
        <time>2022-02-26T11:35:47.273Z</time>
      </trkpt>
      <trkpt lat="41.81691" lon="26.10363">
        <ele>107.590598</ele>
        <time>2022-02-26T11:35:51.269Z</time>
      </trkpt>
      <trkpt lat="41.81702" lon="26.10361">
        <ele>107.699334</ele>
        <time>2022-02-26T11:35:55.265Z</time>
      </trkpt>
      <trkpt lat="41.81713" lon="26.10357">
        <ele>107.808686</ele>
        <time>2022-02-26T11:35:59.263Z</time>
      </trkpt>
      <trkpt lat="41.81724" lon="26.10351">
        <ele>107.925998</ele>
        <time>2022-02-26T11:36:03.271Z</time>
      </trkpt>
      <trkpt lat="41.81734" lon="26.10347">
        <ele>107.938183</ele>
        <time>2022-02-26T11:36:07.260Z</time>
      </trkpt>
      <trkpt lat="41.81744" lon="26.10341">
        <ele>107.909592</ele>
        <time>2022-02-26T11:36:11.280Z</time>
      </trkpt>
      <trkpt lat="41.81753" lon="26.10336">
        <ele>107.882227</ele>
        <time>2022-02-26T11:36:15.273Z</time>
      </trkpt>
      <trkpt lat="41.81762" lon="26.10329">
        <ele>107.855719</ele>
        <time>2022-02-26T11:36:20.276Z</time>
      </trkpt>
      <trkpt lat="41.8177" lon="26.10321">
        <ele>107.828924</ele>
        <time>2022-02-26T11:36:25.277Z</time>
      </trkpt>
      <trkpt lat="41.81779" lon="26.10318">
        <ele>107.804722</ele>
        <time>2022-02-26T11:36:29.271Z</time>
      </trkpt>
      <trkpt lat="41.81788" lon="26.10313">
        <ele>107.77841</ele>
        <time>2022-02-26T11:36:34.271Z</time>
      </trkpt>
      <trkpt lat="41.81797" lon="26.10306">
        <ele>107.751748</ele>
        <time>2022-02-26T11:36:40.277Z</time>
      </trkpt>
      <trkpt lat="41.81806" lon="26.103">
        <ele>107.724768</ele>
        <time>2022-02-26T11:36:46.278Z</time>
      </trkpt>
      <trkpt lat="41.81815" lon="26.10295">
        <ele>107.697773</ele>
        <time>2022-02-26T11:36:52.271Z</time>
      </trkpt>
      <trkpt lat="41.81824" lon="26.10288">
        <ele>107.670936</ele>
        <time>2022-02-26T11:36:58.274Z</time>
      </trkpt>
      <trkpt lat="41.81834" lon="26.10282">
        <ele>107.642652</ele>
        <time>2022-02-26T11:37:04.294Z</time>
      </trkpt>
      <trkpt lat="41.81842" lon="26.10276">
        <ele>107.617297</ele>
        <time>2022-02-26T11:37:08.257Z</time>
      </trkpt>
      <trkpt lat="41.8185" lon="26.1027">
        <ele>107.593377</ele>
        <time>2022-02-26T11:37:12.266Z</time>
      </trkpt>
      <trkpt lat="41.81859" lon="26.10263">
        <ele>107.565745</ele>
        <time>2022-02-26T11:37:17.319Z</time>
      </trkpt>
      <trkpt lat="41.81868" lon="26.10258">
        <ele>107.540126</ele>
        <time>2022-02-26T11:37:22.287Z</time>
      </trkpt>
      <trkpt lat="41.81876" lon="26.10251">
        <ele>107.513714</ele>
        <time>2022-02-26T11:37:27.280Z</time>
      </trkpt>
      <trkpt lat="41.81886" lon="26.10245">
        <ele>107.484806</ele>
        <time>2022-02-26T11:37:32.279Z</time>
      </trkpt>
      <trkpt lat="41.81897" lon="26.1024">
        <ele>107.067603</ele>
        <time>2022-02-26T11:37:37.254Z</time>
      </trkpt>
      <trkpt lat="41.81906" lon="26.10236">
        <ele>106.680869</ele>
        <time>2022-02-26T11:37:41.273Z</time>
      </trkpt>
      <trkpt lat="41.81915" lon="26.1023">
        <ele>106.2734</ele>
        <time>2022-02-26T11:37:45.268Z</time>
      </trkpt>
      <trkpt lat="41.81923" lon="26.10223">
        <ele>105.904408</ele>
        <time>2022-02-26T11:37:49.271Z</time>
      </trkpt>
      <trkpt lat="41.81933" lon="26.10217">
        <ele>105.451896</ele>
        <time>2022-02-26T11:37:53.275Z</time>
      </trkpt>
      <trkpt lat="41.81942" lon="26.10211">
        <ele>105.056911</ele>
        <time>2022-02-26T11:37:57.271Z</time>
      </trkpt>
      <trkpt lat="41.81951" lon="26.10206">
        <ele>104.677266</ele>
        <time>2022-02-26T11:38:01.285Z</time>
      </trkpt>
      <trkpt lat="41.81961" lon="26.10201">
        <ele>104.262813</ele>
        <time>2022-02-26T11:38:05.266Z</time>
      </trkpt>
      <trkpt lat="41.81969" lon="26.10196">
        <ele>103.891854</ele>
        <time>2022-02-26T11:38:08.310Z</time>
      </trkpt>
      <trkpt lat="41.81978" lon="26.10191">
        <ele>103.508996</ele>
        <time>2022-02-26T11:38:11.274Z</time>
      </trkpt>
      <trkpt lat="41.81987" lon="26.10184">
        <ele>103.063512</ele>
        <time>2022-02-26T11:38:15.273Z</time>
      </trkpt>
      <trkpt lat="41.81996" lon="26.10178">
        <ele>102.692384</ele>
        <time>2022-02-26T11:38:20.262Z</time>
      </trkpt>
      <trkpt lat="41.82005" lon="26.10171">
        <ele>102.2808</ele>
        <time>2022-02-26T11:38:25.333Z</time>
      </trkpt>
      <trkpt lat="41.82015" lon="26.10165">
        <ele>101.824645</ele>
        <time>2022-02-26T11:38:29.286Z</time>
      </trkpt>
      <trkpt lat="41.82023" lon="26.1016">
        <ele>101.456318</ele>
        <time>2022-02-26T11:38:32.267Z</time>
      </trkpt>
      <trkpt lat="41.82032" lon="26.10157">
        <ele>101.089914</ele>
        <time>2022-02-26T11:38:35.259Z</time>
      </trkpt>
      <trkpt lat="41.82044" lon="26.10154">
        <ele>100.624697</ele>
        <time>2022-02-26T11:38:39.267Z</time>
      </trkpt>
      <trkpt lat="41.82055" lon="26.10152">
        <ele>100.221391</ele>
        <time>2022-02-26T11:38:43.283Z</time>
      </trkpt>
      <trkpt lat="41.82064" lon="26.10145">
        <ele>100.104955</ele>
        <time>2022-02-26T11:38:47.312Z</time>
      </trkpt>
      <trkpt lat="41.82072" lon="26.10138">
        <ele>99.991537</ele>
        <time>2022-02-26T11:38:51.256Z</time>
      </trkpt>
      <trkpt lat="41.8208" lon="26.10131">
        <ele>99.880016</ele>
        <time>2022-02-26T11:38:55.273Z</time>
      </trkpt>
      <trkpt lat="41.82088" lon="26.10125">
        <ele>99.768667</ele>
        <time>2022-02-26T11:38:59.328Z</time>
      </trkpt>
      <trkpt lat="41.82098" lon="26.10125">
        <ele>99.655715</ele>
        <time>2022-02-26T11:39:04.257Z</time>
      </trkpt>
      <trkpt lat="41.82107" lon="26.10118">
        <ele>99.534986</ele>
        <time>2022-02-26T11:39:09.314Z</time>
      </trkpt>
      <trkpt lat="41.82115" lon="26.10109">
        <ele>99.408791</ele>
        <time>2022-02-26T11:39:13.273Z</time>
      </trkpt>
      <trkpt lat="41.82125" lon="26.10105">
        <ele>99.287202</ele>
        <time>2022-02-26T11:39:17.277Z</time>
      </trkpt>
      <trkpt lat="41.82135" lon="26.101">
        <ele>99.15458</ele>
        <time>2022-02-26T11:39:21.268Z</time>
      </trkpt>
      <trkpt lat="41.82146" lon="26.10095">
        <ele>99.028519</ele>
        <time>2022-02-26T11:39:25.277Z</time>
      </trkpt>
      <trkpt lat="41.82157" lon="26.10092">
        <ele>98.894473</ele>
        <time>2022-02-26T11:39:29.280Z</time>
      </trkpt>
      <trkpt lat="41.82167" lon="26.10088">
        <ele>98.77062</ele>
        <time>2022-02-26T11:39:33.263Z</time>
      </trkpt>
      <trkpt lat="41.82176" lon="26.1008">
        <ele>98.648795</ele>
        <time>2022-02-26T11:39:37.281Z</time>
      </trkpt>
      <trkpt lat="41.82185" lon="26.10074">
        <ele>98.529763</ele>
        <time>2022-02-26T11:39:41.281Z</time>
      </trkpt>
      <trkpt lat="41.82195" lon="26.10068">
        <ele>98.401219</ele>
        <time>2022-02-26T11:39:45.291Z</time>
      </trkpt>
      <trkpt lat="41.82203" lon="26.10064">
        <ele>98.2919</ele>
        <time>2022-02-26T11:39:48.273Z</time>
      </trkpt>
      <trkpt lat="41.82212" lon="26.10058">
        <ele>98.179043</ele>
        <time>2022-02-26T11:39:52.280Z</time>
      </trkpt>
      <trkpt lat="41.82221" lon="26.10054">
        <ele>98.116096</ele>
        <time>2022-02-26T11:39:56.280Z</time>
      </trkpt>
      <trkpt lat="41.82232" lon="26.10049">
        <ele>98.079001</ele>
        <time>2022-02-26T11:40:01.324Z</time>
      </trkpt>
      <trkpt lat="41.82239" lon="26.10041">
        <ele>98.047765</ele>
        <time>2022-02-26T11:40:05.275Z</time>
      </trkpt>
      <trkpt lat="41.82248" lon="26.10035">
        <ele>98.014112</ele>
        <time>2022-02-26T11:40:09.272Z</time>
      </trkpt>
      <trkpt lat="41.82259" lon="26.1003">
        <ele>97.977132</ele>
        <time>2022-02-26T11:40:13.279Z</time>
      </trkpt>
      <trkpt lat="41.82269" lon="26.10026">
        <ele>97.942676</ele>
        <time>2022-02-26T11:40:17.263Z</time>
      </trkpt>
      <trkpt lat="41.82279" lon="26.1002">
        <ele>97.905133</ele>
        <time>2022-02-26T11:40:21.270Z</time>
      </trkpt>
      <trkpt lat="41.82287" lon="26.10014">
        <ele>97.873653</ele>
        <time>2022-02-26T11:40:25.274Z</time>
      </trkpt>
      <trkpt lat="41.82299" lon="26.10008">
        <ele>97.833008</ele>
        <time>2022-02-26T11:40:29.300Z</time>
      </trkpt>
      <trkpt lat="41.82309" lon="26.10008">
        <ele>97.800408</ele>
        <time>2022-02-26T11:40:33.279Z</time>
      </trkpt>
      <trkpt lat="41.82317" lon="26.10003">
        <ele>97.769435</ele>
        <time>2022-02-26T11:40:37.277Z</time>
      </trkpt>
      <trkpt lat="41.82327" lon="26.09995">
        <ele>97.731994</ele>
        <time>2022-02-26T11:40:41.305Z</time>
      </trkpt>
      <trkpt lat="41.82336" lon="26.09989">
        <ele>97.696293</ele>
        <time>2022-02-26T11:40:45.303Z</time>
      </trkpt>
      <trkpt lat="41.82346" lon="26.09985">
        <ele>97.6619</ele>
        <time>2022-02-26T11:40:49.281Z</time>
      </trkpt>
      <trkpt lat="41.82357" lon="26.09979">
        <ele>97.624222</ele>
        <time>2022-02-26T11:40:53.285Z</time>
      </trkpt>
      <trkpt lat="41.82367" lon="26.09973">
        <ele>97.585549</ele>
        <time>2022-02-26T11:40:57.276Z</time>
      </trkpt>
      <trkpt lat="41.82378" lon="26.09968">
        <ele>97.546678</ele>
        <time>2022-02-26T11:41:01.257Z</time>
      </trkpt>
      <trkpt lat="41.82388" lon="26.09962">
        <ele>97.513605</ele>
        <time>2022-02-26T11:41:05.273Z</time>
      </trkpt>
      <trkpt lat="41.82397" lon="26.09954">
        <ele>97.480405</ele>
        <time>2022-02-26T11:41:09.257Z</time>
      </trkpt>
      <trkpt lat="41.82405" lon="26.0995">
        <ele>97.452487</ele>
        <time>2022-02-26T11:41:12.285Z</time>
      </trkpt>
      <trkpt lat="41.82416" lon="26.09944">
        <ele>97.417201</ele>
        <time>2022-02-26T11:41:16.263Z</time>
      </trkpt>
      <trkpt lat="41.82426" lon="26.09938">
        <ele>97.381253</ele>
        <time>2022-02-26T11:41:20.280Z</time>
      </trkpt>
      <trkpt lat="41.82434" lon="26.09932">
        <ele>97.353031</ele>
        <time>2022-02-26T11:41:23.269Z</time>
      </trkpt>
      <trkpt lat="41.82445" lon="26.09926">
        <ele>97.317837</ele>
        <time>2022-02-26T11:41:27.264Z</time>
      </trkpt>
      <trkpt lat="41.82455" lon="26.09919">
        <ele>97.283644</ele>
        <time>2022-02-26T11:41:31.281Z</time>
      </trkpt>
      <trkpt lat="41.82465" lon="26.09913">
        <ele>97.248792</ele>
        <time>2022-02-26T11:41:35.276Z</time>
      </trkpt>
      <trkpt lat="41.82475" lon="26.09907">
        <ele>97.212828</ele>
        <time>2022-02-26T11:41:39.289Z</time>
      </trkpt>
      <trkpt lat="41.82486" lon="26.09901">
        <ele>97.177823</ele>
        <time>2022-02-26T11:41:43.273Z</time>
      </trkpt>
      <trkpt lat="41.82495" lon="26.09894">
        <ele>97.144288</ele>
        <time>2022-02-26T11:41:47.304Z</time>
      </trkpt>
      <trkpt lat="41.82505" lon="26.0989">
        <ele>97.1133</ele>
        <time>2022-02-26T11:41:51.273Z</time>
      </trkpt>
      <trkpt lat="41.82513" lon="26.09886">
        <ele>97.084892</ele>
        <time>2022-02-26T11:41:54.312Z</time>
      </trkpt>
      <trkpt lat="41.82521" lon="26.0988">
        <ele>97.05667</ele>
        <time>2022-02-26T11:41:57.275Z</time>
      </trkpt>
      <trkpt lat="41.82531" lon="26.09874">
        <ele>97.022227</ele>
        <time>2022-02-26T11:42:01.292Z</time>
      </trkpt>
      <trkpt lat="41.82541" lon="26.09869">
        <ele>96.989502</ele>
        <time>2022-02-26T11:42:05.303Z</time>
      </trkpt>
      <trkpt lat="41.82551" lon="26.09863">
        <ele>97.086313</ele>
        <time>2022-02-26T11:42:09.262Z</time>
      </trkpt>
      <trkpt lat="41.82561" lon="26.09856">
        <ele>97.251914</ele>
        <time>2022-02-26T11:42:13.261Z</time>
      </trkpt>
      <trkpt lat="41.82571" lon="26.09851">
        <ele>97.399139</ele>
        <time>2022-02-26T11:42:16.269Z</time>
      </trkpt>
      <trkpt lat="41.8258" lon="26.09846">
        <ele>97.538562</ele>
        <time>2022-02-26T11:42:19.302Z</time>
      </trkpt>
      <trkpt lat="41.82591" lon="26.09841">
        <ele>97.700472</ele>
        <time>2022-02-26T11:42:23.301Z</time>
      </trkpt>
      <trkpt lat="41.82601" lon="26.09835">
        <ele>97.860163</ele>
        <time>2022-02-26T11:42:27.271Z</time>
      </trkpt>
      <trkpt lat="41.82611" lon="26.09829">
        <ele>98.012148</ele>
        <time>2022-02-26T11:42:31.280Z</time>
      </trkpt>
      <trkpt lat="41.82621" lon="26.09824">
        <ele>98.163617</ele>
        <time>2022-02-26T11:42:35.283Z</time>
      </trkpt>
      <trkpt lat="41.82631" lon="26.09821">
        <ele>98.311121</ele>
        <time>2022-02-26T11:42:39.289Z</time>
      </trkpt>
      <trkpt lat="41.82641" lon="26.09817">
        <ele>98.461511</ele>
        <time>2022-02-26T11:42:43.271Z</time>
      </trkpt>
      <trkpt lat="41.82652" lon="26.09814">
        <ele>98.625983</ele>
        <time>2022-02-26T11:42:47.319Z</time>
      </trkpt>
      <trkpt lat="41.82663" lon="26.09809">
        <ele>98.788209</ele>
        <time>2022-02-26T11:42:51.284Z</time>
      </trkpt>
      <trkpt lat="41.82671" lon="26.09803">
        <ele>98.921857</ele>
        <time>2022-02-26T11:42:54.279Z</time>
      </trkpt>
      <trkpt lat="41.82682" lon="26.09798">
        <ele>99.086407</ele>
        <time>2022-02-26T11:42:58.278Z</time>
      </trkpt>
      <trkpt lat="41.82693" lon="26.09791">
        <ele>99.250849</ele>
        <time>2022-02-26T11:43:02.277Z</time>
      </trkpt>
      <trkpt lat="41.82701" lon="26.09784">
        <ele>99.396718</ele>
        <time>2022-02-26T11:43:06.282Z</time>
      </trkpt>
      <trkpt lat="41.82711" lon="26.09778">
        <ele>99.544675</ele>
        <time>2022-02-26T11:43:10.269Z</time>
      </trkpt>
      <trkpt lat="41.82721" lon="26.09772">
        <ele>99.589156</ele>
        <time>2022-02-26T11:43:14.263Z</time>
      </trkpt>
      <trkpt lat="41.8273" lon="26.09766">
        <ele>99.628634</ele>
        <time>2022-02-26T11:43:18.283Z</time>
      </trkpt>
      <trkpt lat="41.8274" lon="26.09761">
        <ele>99.670869</ele>
        <time>2022-02-26T11:43:22.277Z</time>
      </trkpt>
      <trkpt lat="41.82749" lon="26.09757">
        <ele>99.708895</ele>
        <time>2022-02-26T11:43:26.303Z</time>
      </trkpt>
      <trkpt lat="41.82758" lon="26.09751">
        <ele>99.749346</ele>
        <time>2022-02-26T11:43:30.273Z</time>
      </trkpt>
      <trkpt lat="41.82766" lon="26.09742">
        <ele>99.790004</ele>
        <time>2022-02-26T11:43:34.278Z</time>
      </trkpt>
      <trkpt lat="41.82776" lon="26.09735">
        <ele>99.834382</ele>
        <time>2022-02-26T11:43:38.274Z</time>
      </trkpt>
      <trkpt lat="41.82786" lon="26.09728">
        <ele>99.879288</ele>
        <time>2022-02-26T11:43:42.275Z</time>
      </trkpt>
      <trkpt lat="41.82797" lon="26.09724">
        <ele>99.923851</ele>
        <time>2022-02-26T11:43:46.312Z</time>
      </trkpt>
      <trkpt lat="41.82807" lon="26.09719">
        <ele>99.968167</ele>
        <time>2022-02-26T11:43:50.275Z</time>
      </trkpt>
      <trkpt lat="41.82817" lon="26.0971">
        <ele>100.01428</ele>
        <time>2022-02-26T11:43:54.268Z</time>
      </trkpt>
      <trkpt lat="41.82828" lon="26.09704">
        <ele>100.059716</ele>
        <time>2022-02-26T11:43:58.281Z</time>
      </trkpt>
      <trkpt lat="41.82837" lon="26.09699">
        <ele>100.100109</ele>
        <time>2022-02-26T11:44:02.263Z</time>
      </trkpt>
      <trkpt lat="41.82848" lon="26.09697">
        <ele>100.141655</ele>
        <time>2022-02-26T11:44:07.271Z</time>
      </trkpt>
      <trkpt lat="41.82857" lon="26.09695">
        <ele>100.179802</ele>
        <time>2022-02-26T11:44:11.273Z</time>
      </trkpt>
      <trkpt lat="41.82867" lon="26.09699">
        <ele>100.2196</ele>
        <time>2022-02-26T11:44:14.285Z</time>
      </trkpt>
      <trkpt lat="41.82875" lon="26.09706">
        <ele>100.249439</ele>
        <time>2022-02-26T11:44:18.284Z</time>
      </trkpt>
      <trkpt lat="41.82885" lon="26.09703">
        <ele>100.183617</ele>
        <time>2022-02-26T11:44:22.310Z</time>
      </trkpt>
      <trkpt lat="41.82895" lon="26.09698">
        <ele>100.119487</ele>
        <time>2022-02-26T11:44:25.276Z</time>
      </trkpt>
      <trkpt lat="41.82903" lon="26.0969">
        <ele>100.05761</ele>
        <time>2022-02-26T11:44:28.267Z</time>
      </trkpt>
      <trkpt lat="41.82911" lon="26.09682">
        <ele>99.995172</ele>
        <time>2022-02-26T11:44:31.288Z</time>
      </trkpt>
      <trkpt lat="41.82919" lon="26.09674">
        <ele>99.930701</ele>
        <time>2022-02-26T11:44:34.277Z</time>
      </trkpt>
      <trkpt lat="41.82928" lon="26.09667">
        <ele>99.867269</ele>
        <time>2022-02-26T11:44:37.274Z</time>
      </trkpt>
      <trkpt lat="41.82936" lon="26.0966">
        <ele>99.804867</ele>
        <time>2022-02-26T11:44:40.270Z</time>
      </trkpt>
      <trkpt lat="41.82945" lon="26.09652">
        <ele>99.739613</ele>
        <time>2022-02-26T11:44:43.288Z</time>
      </trkpt>
      <trkpt lat="41.82955" lon="26.09645">
        <ele>99.67112</ele>
        <time>2022-02-26T11:44:46.272Z</time>
      </trkpt>
      <trkpt lat="41.82964" lon="26.09637">
        <ele>99.603316</ele>
        <time>2022-02-26T11:44:49.274Z</time>
      </trkpt>
      <trkpt lat="41.82973" lon="26.0963">
        <ele>99.535419</ele>
        <time>2022-02-26T11:44:52.273Z</time>
      </trkpt>
      <trkpt lat="41.82983" lon="26.09623">
        <ele>99.466844</ele>
        <time>2022-02-26T11:44:55.269Z</time>
      </trkpt>
      <trkpt lat="41.82993" lon="26.09616">
        <ele>99.400769</ele>
        <time>2022-02-26T11:44:58.307Z</time>
      </trkpt>
      <trkpt lat="41.83002" lon="26.0961">
        <ele>99.337547</ele>
        <time>2022-02-26T11:45:01.289Z</time>
      </trkpt>
      <trkpt lat="41.83011" lon="26.09604">
        <ele>99.271139</ele>
        <time>2022-02-26T11:45:04.294Z</time>
      </trkpt>
      <trkpt lat="41.83022" lon="26.09598">
        <ele>99.199404</ele>
        <time>2022-02-26T11:45:07.263Z</time>
      </trkpt>
      <trkpt lat="41.83033" lon="26.09592">
        <ele>99.135372</ele>
        <time>2022-02-26T11:45:10.279Z</time>
      </trkpt>
      <trkpt lat="41.83043" lon="26.09586">
        <ele>99.156665</ele>
        <time>2022-02-26T11:45:13.270Z</time>
      </trkpt>
      <trkpt lat="41.83053" lon="26.0958">
        <ele>99.177447</ele>
        <time>2022-02-26T11:45:16.273Z</time>
      </trkpt>
      <trkpt lat="41.83064" lon="26.09574">
        <ele>99.198866</ele>
        <time>2022-02-26T11:45:19.272Z</time>
      </trkpt>
      <trkpt lat="41.83074" lon="26.09567">
        <ele>99.220731</ele>
        <time>2022-02-26T11:45:22.286Z</time>
      </trkpt>
      <trkpt lat="41.83085" lon="26.09561">
        <ele>99.243106</ele>
        <time>2022-02-26T11:45:25.301Z</time>
      </trkpt>
      <trkpt lat="41.83096" lon="26.09555">
        <ele>99.26522</ele>
        <time>2022-02-26T11:45:28.274Z</time>
      </trkpt>
      <trkpt lat="41.83107" lon="26.09548">
        <ele>99.287654</ele>
        <time>2022-02-26T11:45:31.281Z</time>
      </trkpt>
      <trkpt lat="41.83118" lon="26.09542">
        <ele>99.310257</ele>
        <time>2022-02-26T11:45:34.271Z</time>
      </trkpt>
      <trkpt lat="41.83129" lon="26.09535">
        <ele>99.332581</ele>
        <time>2022-02-26T11:45:37.255Z</time>
      </trkpt>
      <trkpt lat="41.8314" lon="26.09529">
        <ele>99.354899</ele>
        <time>2022-02-26T11:45:40.276Z</time>
      </trkpt>
      <trkpt lat="41.83151" lon="26.09522">
        <ele>99.377907</ele>
        <time>2022-02-26T11:45:43.270Z</time>
      </trkpt>
      <trkpt lat="41.83162" lon="26.09515">
        <ele>99.400054</ele>
        <time>2022-02-26T11:45:46.262Z</time>
      </trkpt>
      <trkpt lat="41.83174" lon="26.09508">
        <ele>99.423512</ele>
        <time>2022-02-26T11:45:49.277Z</time>
      </trkpt>
      <trkpt lat="41.83186" lon="26.09501">
        <ele>99.447939</ele>
        <time>2022-02-26T11:45:52.319Z</time>
      </trkpt>
      <trkpt lat="41.83197" lon="26.09495">
        <ele>99.476718</ele>
        <time>2022-02-26T11:45:55.262Z</time>
      </trkpt>
      <trkpt lat="41.83209" lon="26.09488">
        <ele>99.553062</ele>
        <time>2022-02-26T11:45:58.269Z</time>
      </trkpt>
      <trkpt lat="41.8322" lon="26.09481">
        <ele>99.625953</ele>
        <time>2022-02-26T11:46:01.274Z</time>
      </trkpt>
      <trkpt lat="41.83231" lon="26.09475">
        <ele>99.697207</ele>
        <time>2022-02-26T11:46:04.316Z</time>
      </trkpt>
      <trkpt lat="41.83242" lon="26.09469">
        <ele>99.769202</ele>
        <time>2022-02-26T11:46:07.266Z</time>
      </trkpt>
      <trkpt lat="41.83254" lon="26.09462">
        <ele>99.845953</ele>
        <time>2022-02-26T11:46:10.267Z</time>
      </trkpt>
      <trkpt lat="41.83266" lon="26.09456">
        <ele>99.920876</ele>
        <time>2022-02-26T11:46:13.295Z</time>
      </trkpt>
      <trkpt lat="41.83277" lon="26.09449">
        <ele>99.995419</ele>
        <time>2022-02-26T11:46:16.306Z</time>
      </trkpt>
      <trkpt lat="41.83289" lon="26.09443">
        <ele>100.072339</ele>
        <time>2022-02-26T11:46:19.258Z</time>
      </trkpt>
      <trkpt lat="41.83301" lon="26.09436">
        <ele>100.146374</ele>
        <time>2022-02-26T11:46:22.273Z</time>
      </trkpt>
      <trkpt lat="41.83312" lon="26.0943">
        <ele>100.218369</ele>
        <time>2022-02-26T11:46:25.267Z</time>
      </trkpt>
      <trkpt lat="41.83322" lon="26.09424">
        <ele>100.287268</ele>
        <time>2022-02-26T11:46:28.267Z</time>
      </trkpt>
      <trkpt lat="41.83332" lon="26.09419">
        <ele>100.350386</ele>
        <time>2022-02-26T11:46:31.277Z</time>
      </trkpt>
      <trkpt lat="41.83342" lon="26.09413">
        <ele>100.413466</ele>
        <time>2022-02-26T11:46:34.267Z</time>
      </trkpt>
      <trkpt lat="41.83352" lon="26.09407">
        <ele>100.47947</ele>
        <time>2022-02-26T11:46:37.283Z</time>
      </trkpt>
      <trkpt lat="41.83363" lon="26.09401">
        <ele>100.563745</ele>
        <time>2022-02-26T11:46:40.287Z</time>
      </trkpt>
      <trkpt lat="41.83374" lon="26.09395">
        <ele>100.891492</ele>
        <time>2022-02-26T11:46:43.292Z</time>
      </trkpt>
      <trkpt lat="41.83385" lon="26.09389">
        <ele>101.225047</ele>
        <time>2022-02-26T11:46:46.271Z</time>
      </trkpt>
      <trkpt lat="41.83395" lon="26.09382">
        <ele>101.550152</ele>
        <time>2022-02-26T11:46:49.268Z</time>
      </trkpt>
      <trkpt lat="41.83406" lon="26.09377">
        <ele>101.864487</ele>
        <time>2022-02-26T11:46:52.273Z</time>
      </trkpt>
      <trkpt lat="41.83416" lon="26.09371">
        <ele>102.16106</ele>
        <time>2022-02-26T11:46:55.273Z</time>
      </trkpt>
      <trkpt lat="41.83425" lon="26.09365">
        <ele>102.450704</ele>
        <time>2022-02-26T11:46:58.271Z</time>
      </trkpt>
      <trkpt lat="41.83434" lon="26.0936">
        <ele>102.722626</ele>
        <time>2022-02-26T11:47:01.274Z</time>
      </trkpt>
      <trkpt lat="41.83443" lon="26.09355">
        <ele>102.993689</ele>
        <time>2022-02-26T11:47:04.307Z</time>
      </trkpt>
      <trkpt lat="41.83453" lon="26.09348">
        <ele>103.294576</ele>
        <time>2022-02-26T11:47:07.280Z</time>
      </trkpt>
      <trkpt lat="41.83463" lon="26.09342">
        <ele>103.607127</ele>
        <time>2022-02-26T11:47:10.292Z</time>
      </trkpt>
      <trkpt lat="41.83474" lon="26.09336">
        <ele>103.928024</ele>
        <time>2022-02-26T11:47:13.274Z</time>
      </trkpt>
      <trkpt lat="41.83484" lon="26.09329">
        <ele>104.249799</ele>
        <time>2022-02-26T11:47:16.269Z</time>
      </trkpt>
      <trkpt lat="41.83493" lon="26.09321">
        <ele>104.557479</ele>
        <time>2022-02-26T11:47:19.255Z</time>
      </trkpt>
      <trkpt lat="41.83503" lon="26.09315">
        <ele>104.854354</ele>
        <time>2022-02-26T11:47:22.281Z</time>
      </trkpt>
      <trkpt lat="41.83511" lon="26.09303">
        <ele>105.180255</ele>
        <time>2022-02-26T11:47:25.275Z</time>
      </trkpt>
      <trkpt lat="41.83508" lon="26.0929">
        <ele>105.456537</ele>
        <time>2022-02-26T11:47:28.275Z</time>
      </trkpt>
      <trkpt lat="41.83505" lon="26.09276">
        <ele>105.62938</ele>
        <time>2022-02-26T11:47:31.278Z</time>
      </trkpt>
      <trkpt lat="41.83502" lon="26.09261">
        <ele>105.752813</ele>
        <time>2022-02-26T11:47:34.262Z</time>
      </trkpt>
      <trkpt lat="41.83499" lon="26.09248">
        <ele>105.865452</ele>
        <time>2022-02-26T11:47:37.281Z</time>
      </trkpt>
      <trkpt lat="41.83497" lon="26.09236">
        <ele>105.969487</ele>
        <time>2022-02-26T11:47:40.294Z</time>
      </trkpt>
      <trkpt lat="41.83495" lon="26.09223">
        <ele>106.075685</ele>
        <time>2022-02-26T11:47:43.306Z</time>
      </trkpt>
      <trkpt lat="41.83494" lon="26.0921">
        <ele>106.189262</ele>
        <time>2022-02-26T11:47:46.264Z</time>
      </trkpt>
      <trkpt lat="41.83491" lon="26.09194">
        <ele>106.320797</ele>
        <time>2022-02-26T11:47:49.279Z</time>
      </trkpt>
      <trkpt lat="41.83488" lon="26.0918">
        <ele>106.44875</ele>
        <time>2022-02-26T11:47:52.288Z</time>
      </trkpt>
      <trkpt lat="41.83484" lon="26.09167">
        <ele>106.566628</ele>
        <time>2022-02-26T11:47:55.261Z</time>
      </trkpt>
      <trkpt lat="41.83481" lon="26.09155">
        <ele>106.669862</ele>
        <time>2022-02-26T11:47:58.274Z</time>
      </trkpt>
      <trkpt lat="41.83483" lon="26.09142">
        <ele>106.780343</ele>
        <time>2022-02-26T11:48:01.273Z</time>
      </trkpt>
      <trkpt lat="41.83492" lon="26.09133">
        <ele>106.902154</ele>
        <time>2022-02-26T11:48:05.313Z</time>
      </trkpt>
      <trkpt lat="41.83502" lon="26.09128">
        <ele>107.023535</ele>
        <time>2022-02-26T11:48:09.269Z</time>
      </trkpt>
      <trkpt lat="41.83513" lon="26.09123">
        <ele>107.148927</ele>
        <time>2022-02-26T11:48:13.260Z</time>
      </trkpt>
      <trkpt lat="41.83523" lon="26.09116">
        <ele>107.279225</ele>
        <time>2022-02-26T11:48:17.270Z</time>
      </trkpt>
      <trkpt lat="41.83534" lon="26.09109">
        <ele>107.412083</ele>
        <time>2022-02-26T11:48:21.273Z</time>
      </trkpt>
      <trkpt lat="41.83544" lon="26.09103">
        <ele>107.533896</ele>
        <time>2022-02-26T11:48:25.281Z</time>
      </trkpt>
      <trkpt lat="41.83554" lon="26.09097">
        <ele>107.640458</ele>
        <time>2022-02-26T11:48:29.276Z</time>
      </trkpt>
      <trkpt lat="41.83564" lon="26.0909">
        <ele>107.744772</ele>
        <time>2022-02-26T11:48:33.281Z</time>
      </trkpt>
      <trkpt lat="41.83574" lon="26.09083">
        <ele>107.849245</ele>
        <time>2022-02-26T11:48:37.303Z</time>
      </trkpt>
      <trkpt lat="41.83585" lon="26.09076">
        <ele>107.957375</ele>
        <time>2022-02-26T11:48:41.262Z</time>
      </trkpt>
      <trkpt lat="41.83594" lon="26.09071">
        <ele>108.045181</ele>
        <time>2022-02-26T11:48:44.270Z</time>
      </trkpt>
      <trkpt lat="41.83602" lon="26.09065">
        <ele>108.134686</ele>
        <time>2022-02-26T11:48:47.280Z</time>
      </trkpt>
      <trkpt lat="41.83611" lon="26.09062">
        <ele>108.221066</ele>
        <time>2022-02-26T11:48:50.308Z</time>
      </trkpt>
      <trkpt lat="41.8362" lon="26.09057">
        <ele>108.304976</ele>
        <time>2022-02-26T11:48:53.267Z</time>
      </trkpt>
      <trkpt lat="41.83631" lon="26.09051">
        <ele>108.415014</ele>
        <time>2022-02-26T11:48:57.275Z</time>
      </trkpt>
      <trkpt lat="41.83641" lon="26.09044">
        <ele>108.516948</ele>
        <time>2022-02-26T11:49:01.275Z</time>
      </trkpt>
      <trkpt lat="41.83649" lon="26.09039">
        <ele>108.604546</ele>
        <time>2022-02-26T11:49:04.261Z</time>
      </trkpt>
      <trkpt lat="41.83659" lon="26.09035">
        <ele>108.701902</ele>
        <time>2022-02-26T11:49:08.266Z</time>
      </trkpt>
      <trkpt lat="41.83668" lon="26.09029">
        <ele>108.788588</ele>
        <time>2022-02-26T11:49:11.279Z</time>
      </trkpt>
      <trkpt lat="41.83676" lon="26.09024">
        <ele>108.876164</ele>
        <time>2022-02-26T11:49:14.271Z</time>
      </trkpt>
      <trkpt lat="41.83685" lon="26.09018">
        <ele>108.968803</ele>
        <time>2022-02-26T11:49:17.260Z</time>
      </trkpt>
      <trkpt lat="41.83695" lon="26.09012">
        <ele>109.065372</ele>
        <time>2022-02-26T11:49:20.281Z</time>
      </trkpt>
      <trkpt lat="41.83704" lon="26.09005">
        <ele>109.164208</ele>
        <time>2022-02-26T11:49:23.268Z</time>
      </trkpt>
      <trkpt lat="41.83714" lon="26.08999">
        <ele>109.30972</ele>
        <time>2022-02-26T11:49:26.286Z</time>
      </trkpt>
      <trkpt lat="41.83724" lon="26.08993">
        <ele>109.48902</ele>
        <time>2022-02-26T11:49:29.284Z</time>
      </trkpt>
      <trkpt lat="41.83734" lon="26.08987">
        <ele>109.679907</ele>
        <time>2022-02-26T11:49:32.271Z</time>
      </trkpt>
      <trkpt lat="41.83743" lon="26.08982">
        <ele>109.83755</ele>
        <time>2022-02-26T11:49:35.271Z</time>
      </trkpt>
      <trkpt lat="41.83753" lon="26.08976">
        <ele>110.013977</ele>
        <time>2022-02-26T11:49:39.262Z</time>
      </trkpt>
      <trkpt lat="41.83762" lon="26.08971">
        <ele>110.184716</ele>
        <time>2022-02-26T11:49:47.262Z</time>
      </trkpt>
      <trkpt lat="41.83772" lon="26.08965">
        <ele>110.352445</ele>
        <time>2022-02-26T11:49:51.266Z</time>
      </trkpt>
      <trkpt lat="41.83782" lon="26.08959">
        <ele>110.540811</ele>
        <time>2022-02-26T11:49:55.260Z</time>
      </trkpt>
      <trkpt lat="41.83793" lon="26.08952">
        <ele>110.736357</ele>
        <time>2022-02-26T11:49:59.273Z</time>
      </trkpt>
      <trkpt lat="41.83801" lon="26.08947">
        <ele>110.893</ele>
        <time>2022-02-26T11:50:02.259Z</time>
      </trkpt>
      <trkpt lat="41.83811" lon="26.08942">
        <ele>111.063901</ele>
        <time>2022-02-26T11:50:05.274Z</time>
      </trkpt>
      <trkpt lat="41.83819" lon="26.08936">
        <ele>111.221738</ele>
        <time>2022-02-26T11:50:08.278Z</time>
      </trkpt>
      <trkpt lat="41.83828" lon="26.0893">
        <ele>111.380138</ele>
        <time>2022-02-26T11:50:11.272Z</time>
      </trkpt>
      <trkpt lat="41.83836" lon="26.08925">
        <ele>111.529299</ele>
        <time>2022-02-26T11:50:14.276Z</time>
      </trkpt>
      <trkpt lat="41.83845" lon="26.0892">
        <ele>111.685954</ele>
        <time>2022-02-26T11:50:17.270Z</time>
      </trkpt>
      <trkpt lat="41.83853" lon="26.08914">
        <ele>111.847161</ele>
        <time>2022-02-26T11:50:20.278Z</time>
      </trkpt>
      <trkpt lat="41.83862" lon="26.08908">
        <ele>112.010927</ele>
        <time>2022-02-26T11:50:23.274Z</time>
      </trkpt>
      <trkpt lat="41.83871" lon="26.08902">
        <ele>112.173401</ele>
        <time>2022-02-26T11:50:26.275Z</time>
      </trkpt>
      <trkpt lat="41.8388" lon="26.08897">
        <ele>112.274103</ele>
        <time>2022-02-26T11:50:29.305Z</time>
      </trkpt>
      <trkpt lat="41.83889" lon="26.08892">
        <ele>112.373411</ele>
        <time>2022-02-26T11:50:32.268Z</time>
      </trkpt>
      <trkpt lat="41.83898" lon="26.08887">
        <ele>112.469899</ele>
        <time>2022-02-26T11:50:35.320Z</time>
      </trkpt>
      <trkpt lat="41.83907" lon="26.08882">
        <ele>112.562764</ele>
        <time>2022-02-26T11:50:38.281Z</time>
      </trkpt>
      <trkpt lat="41.83917" lon="26.08876">
        <ele>112.668063</ele>
        <time>2022-02-26T11:50:42.261Z</time>
      </trkpt>
      <trkpt lat="41.83925" lon="26.0887">
        <ele>112.764072</ele>
        <time>2022-02-26T11:50:46.271Z</time>
      </trkpt>
      <trkpt lat="41.83933" lon="26.08864">
        <ele>112.858518</ele>
        <time>2022-02-26T11:50:49.267Z</time>
      </trkpt>
      <trkpt lat="41.83943" lon="26.08858">
        <ele>112.961177</ele>
        <time>2022-02-26T11:50:52.337Z</time>
      </trkpt>
      <trkpt lat="41.83951" lon="26.08852">
        <ele>113.050681</ele>
        <time>2022-02-26T11:50:55.283Z</time>
      </trkpt>
      <trkpt lat="41.83959" lon="26.08846">
        <ele>113.14316</ele>
        <time>2022-02-26T11:50:58.271Z</time>
      </trkpt>
      <trkpt lat="41.83967" lon="26.08841">
        <ele>113.237605</ele>
        <time>2022-02-26T11:51:01.268Z</time>
      </trkpt>
      <trkpt lat="41.83976" lon="26.08836">
        <ele>113.328428</ele>
        <time>2022-02-26T11:51:04.271Z</time>
      </trkpt>
      <trkpt lat="41.83984" lon="26.0883">
        <ele>113.418652</ele>
        <time>2022-02-26T11:51:07.292Z</time>
      </trkpt>
      <trkpt lat="41.83994" lon="26.08822">
        <ele>113.541122</ele>
        <time>2022-02-26T11:51:11.260Z</time>
      </trkpt>
      <trkpt lat="41.84004" lon="26.08816">
        <ele>113.651241</ele>
        <time>2022-02-26T11:51:14.280Z</time>
      </trkpt>
      <trkpt lat="41.84015" lon="26.08809">
        <ele>113.763793</ele>
        <time>2022-02-26T11:51:17.263Z</time>
      </trkpt>
      <trkpt lat="41.84025" lon="26.08802">
        <ele>113.879038</ele>
        <time>2022-02-26T11:51:21.298Z</time>
      </trkpt>
      <trkpt lat="41.84035" lon="26.08795">
        <ele>113.946928</ele>
        <time>2022-02-26T11:51:25.288Z</time>
      </trkpt>
      <trkpt lat="41.84044" lon="26.0879">
        <ele>113.855629</ele>
        <time>2022-02-26T11:51:28.262Z</time>
      </trkpt>
      <trkpt lat="41.84052" lon="26.08784">
        <ele>113.761376</ele>
        <time>2022-02-26T11:51:31.267Z</time>
      </trkpt>
      <trkpt lat="41.84061" lon="26.0878">
        <ele>113.669211</ele>
        <time>2022-02-26T11:51:34.291Z</time>
      </trkpt>
      <trkpt lat="41.84073" lon="26.08775">
        <ele>113.552279</ele>
        <time>2022-02-26T11:51:38.323Z</time>
      </trkpt>
      <trkpt lat="41.84084" lon="26.08772">
        <ele>113.443585</ele>
        <time>2022-02-26T11:51:42.260Z</time>
      </trkpt>
      <trkpt lat="41.84094" lon="26.08771">
        <ele>113.33967</ele>
        <time>2022-02-26T11:51:46.268Z</time>
      </trkpt>
      <trkpt lat="41.84103" lon="26.08766">
        <ele>113.250142</ele>
        <time>2022-02-26T11:51:49.279Z</time>
      </trkpt>
      <trkpt lat="41.84103" lon="26.08754">
        <ele>113.16127</ele>
        <time>2022-02-26T11:51:53.268Z</time>
      </trkpt>
      <trkpt lat="41.84103" lon="26.08739">
        <ele>113.047011</ele>
        <time>2022-02-26T11:51:57.269Z</time>
      </trkpt>
      <trkpt lat="41.84103" lon="26.08726">
        <ele>112.952397</ele>
        <time>2022-02-26T11:52:00.269Z</time>
      </trkpt>
      <trkpt lat="41.84103" lon="26.08711">
        <ele>112.846868</ele>
        <time>2022-02-26T11:52:03.275Z</time>
      </trkpt>
      <trkpt lat="41.84103" lon="26.08697">
        <ele>112.742793</ele>
        <time>2022-02-26T11:52:06.271Z</time>
      </trkpt>
      <trkpt lat="41.84103" lon="26.08682">
        <ele>112.63654</ele>
        <time>2022-02-26T11:52:09.265Z</time>
      </trkpt>
      <trkpt lat="41.84102" lon="26.08667">
        <ele>112.528473</ele>
        <time>2022-02-26T11:52:12.281Z</time>
      </trkpt>
      <trkpt lat="41.84102" lon="26.08655">
        <ele>112.436027</ele>
        <time>2022-02-26T11:52:15.268Z</time>
      </trkpt>
      <trkpt lat="41.84102" lon="26.08642">
        <ele>112.343555</ele>
        <time>2022-02-26T11:52:18.269Z</time>
      </trkpt>
      <trkpt lat="41.84104" lon="26.0863">
        <ele>112.254775</ele>
        <time>2022-02-26T11:52:21.273Z</time>
      </trkpt>
      <trkpt lat="41.84113" lon="26.08624">
        <ele>112.26303</ele>
        <time>2022-02-26T11:52:25.278Z</time>
      </trkpt>
      <trkpt lat="41.84124" lon="26.08625">
        <ele>112.354157</ele>
        <time>2022-02-26T11:52:29.271Z</time>
      </trkpt>
      <trkpt lat="41.8413" lon="26.08611">
        <ele>112.446289</ele>
        <time>2022-02-26T11:52:33.283Z</time>
      </trkpt>
      <trkpt lat="41.8414" lon="26.08603">
        <ele>112.541229</ele>
        <time>2022-02-26T11:52:37.260Z</time>
      </trkpt>
      <trkpt lat="41.84148" lon="26.08599">
        <ele>112.615003</ele>
        <time>2022-02-26T11:52:40.265Z</time>
      </trkpt>
      <trkpt lat="41.84159" lon="26.08594">
        <ele>112.701743</ele>
        <time>2022-02-26T11:52:43.276Z</time>
      </trkpt>
      <trkpt lat="41.84169" lon="26.08589">
        <ele>112.788327</ele>
        <time>2022-02-26T11:52:46.275Z</time>
      </trkpt>
      <trkpt lat="41.84178" lon="26.08584">
        <ele>112.868905</ele>
        <time>2022-02-26T11:52:49.263Z</time>
      </trkpt>
      <trkpt lat="41.84188" lon="26.08579">
        <ele>112.955161</ele>
        <time>2022-02-26T11:52:52.269Z</time>
      </trkpt>
      <trkpt lat="41.84198" lon="26.08575">
        <ele>113.040031</ele>
        <time>2022-02-26T11:52:55.281Z</time>
      </trkpt>
      <trkpt lat="41.84208" lon="26.08571">
        <ele>113.126969</ele>
        <time>2022-02-26T11:52:58.264Z</time>
      </trkpt>
      <trkpt lat="41.84219" lon="26.08565">
        <ele>113.215692</ele>
        <time>2022-02-26T11:53:01.279Z</time>
      </trkpt>
      <trkpt lat="41.84228" lon="26.08561">
        <ele>113.297855</ele>
        <time>2022-02-26T11:53:04.266Z</time>
      </trkpt>
      <trkpt lat="41.84238" lon="26.08557">
        <ele>113.374332</ele>
        <time>2022-02-26T11:53:07.267Z</time>
      </trkpt>
      <trkpt lat="41.84247" lon="26.08553">
        <ele>113.450776</ele>
        <time>2022-02-26T11:53:10.285Z</time>
      </trkpt>
      <trkpt lat="41.84256" lon="26.08549">
        <ele>113.530651</ele>
        <time>2022-02-26T11:53:13.269Z</time>
      </trkpt>
      <trkpt lat="41.84266" lon="26.08544">
        <ele>113.61607</ele>
        <time>2022-02-26T11:53:16.257Z</time>
      </trkpt>
      <trkpt lat="41.84277" lon="26.08539">
        <ele>113.748741</ele>
        <time>2022-02-26T11:53:19.274Z</time>
      </trkpt>
      <trkpt lat="41.84287" lon="26.08535">
        <ele>113.913561</ele>
        <time>2022-02-26T11:53:22.271Z</time>
      </trkpt>
      <trkpt lat="41.84298" lon="26.08531">
        <ele>114.072827</ele>
        <time>2022-02-26T11:53:25.250Z</time>
      </trkpt>
      <trkpt lat="41.84308" lon="26.08526">
        <ele>114.234194</ele>
        <time>2022-02-26T11:53:28.280Z</time>
      </trkpt>
      <trkpt lat="41.84318" lon="26.08522">
        <ele>114.394151</ele>
        <time>2022-02-26T11:53:31.275Z</time>
      </trkpt>
      <trkpt lat="41.84329" lon="26.08518">
        <ele>114.555813</ele>
        <time>2022-02-26T11:53:34.270Z</time>
      </trkpt>
      <trkpt lat="41.84339" lon="26.08513">
        <ele>114.716126</ele>
        <time>2022-02-26T11:53:37.263Z</time>
      </trkpt>
      <trkpt lat="41.84348" lon="26.08508">
        <ele>114.858613</ele>
        <time>2022-02-26T11:53:40.274Z</time>
      </trkpt>
      <trkpt lat="41.84355" lon="26.08501">
        <ele>114.995091</ele>
        <time>2022-02-26T11:53:43.311Z</time>
      </trkpt>
      <trkpt lat="41.84363" lon="26.08495">
        <ele>115.13468</ele>
        <time>2022-02-26T11:53:46.279Z</time>
      </trkpt>
      <trkpt lat="41.84374" lon="26.08487">
        <ele>115.308347</ele>
        <time>2022-02-26T11:53:50.276Z</time>
      </trkpt>
      <trkpt lat="41.84382" lon="26.08481">
        <ele>115.45432</ele>
        <time>2022-02-26T11:53:53.272Z</time>
      </trkpt>
      <trkpt lat="41.84391" lon="26.08474">
        <ele>115.606381</ele>
        <time>2022-02-26T11:53:56.273Z</time>
      </trkpt>
      <trkpt lat="41.844" lon="26.08467">
        <ele>115.762762</ele>
        <time>2022-02-26T11:53:59.286Z</time>
      </trkpt>
      <trkpt lat="41.84409" lon="26.0846">
        <ele>115.921631</ele>
        <time>2022-02-26T11:54:02.271Z</time>
      </trkpt>
      <trkpt lat="41.8442" lon="26.08451">
        <ele>116.098841</ele>
        <time>2022-02-26T11:54:05.272Z</time>
      </trkpt>
      <trkpt lat="41.8443" lon="26.08442">
        <ele>116.282764</ele>
        <time>2022-02-26T11:54:08.275Z</time>
      </trkpt>
      <trkpt lat="41.84439" lon="26.08434">
        <ele>116.333655</ele>
        <time>2022-02-26T11:54:11.275Z</time>
      </trkpt>
      <trkpt lat="41.84448" lon="26.08428">
        <ele>116.333655</ele>
        <time>2022-02-26T11:54:14.270Z</time>
      </trkpt>
      <trkpt lat="41.84456" lon="26.08422">
        <ele>116.333655</ele>
        <time>2022-02-26T11:54:17.277Z</time>
      </trkpt>
      <trkpt lat="41.84465" lon="26.08414">
        <ele>116.333655</ele>
        <time>2022-02-26T11:54:20.277Z</time>
      </trkpt>
      <trkpt lat="41.84475" lon="26.08406">
        <ele>116.333655</ele>
        <time>2022-02-26T11:54:23.275Z</time>
      </trkpt>
      <trkpt lat="41.84484" lon="26.08398">
        <ele>116.333655</ele>
        <time>2022-02-26T11:54:26.274Z</time>
      </trkpt>
      <trkpt lat="41.84492" lon="26.08392">
        <ele>116.333655</ele>
        <time>2022-02-26T11:54:29.264Z</time>
      </trkpt>
      <trkpt lat="41.84501" lon="26.08384">
        <ele>116.333655</ele>
        <time>2022-02-26T11:54:33.270Z</time>
      </trkpt>
      <trkpt lat="41.84501" lon="26.08368">
        <ele>116.333655</ele>
        <time>2022-02-26T11:54:37.271Z</time>
      </trkpt>
      <trkpt lat="41.84497" lon="26.08353">
        <ele>116.333655</ele>
        <time>2022-02-26T11:54:40.285Z</time>
      </trkpt>
      <trkpt lat="41.84492" lon="26.08339">
        <ele>116.333655</ele>
        <time>2022-02-26T11:54:43.269Z</time>
      </trkpt>
      <trkpt lat="41.84487" lon="26.08328">
        <ele>116.333655</ele>
        <time>2022-02-26T11:54:46.263Z</time>
      </trkpt>
      <trkpt lat="41.84483" lon="26.08316">
        <ele>116.333655</ele>
        <time>2022-02-26T11:54:49.278Z</time>
      </trkpt>
      <trkpt lat="41.84478" lon="26.08302">
        <ele>116.333655</ele>
        <time>2022-02-26T11:54:53.331Z</time>
      </trkpt>
      <trkpt lat="41.84474" lon="26.08289">
        <ele>116.333655</ele>
        <time>2022-02-26T11:54:57.282Z</time>
      </trkpt>
      <trkpt lat="41.84468" lon="26.08276">
        <ele>116.333655</ele>
        <time>2022-02-26T11:55:01.259Z</time>
      </trkpt>
      <trkpt lat="41.84462" lon="26.08265">
        <ele>116.333655</ele>
        <time>2022-02-26T11:55:05.254Z</time>
      </trkpt>
      <trkpt lat="41.84457" lon="26.08254">
        <ele>116.333655</ele>
        <time>2022-02-26T11:55:12.263Z</time>
      </trkpt>
      <trkpt lat="41.84442" lon="26.08241">
        <ele>116.333655</ele>
        <time>2022-02-26T11:59:28.244Z</time>
      </trkpt>
      <trkpt lat="41.84447" lon="26.08252">
        <ele>116.333655</ele>
        <time>2022-02-26T11:59:42.239Z</time>
      </trkpt>
      <trkpt lat="41.84453" lon="26.08261">
        <ele>116.333655</ele>
        <time>2022-02-26T11:59:52.243Z</time>
      </trkpt>
      <trkpt lat="41.84461" lon="26.08268">
        <ele>116.333655</ele>
        <time>2022-02-26T12:00:50.251Z</time>
      </trkpt>
    </trkseg>
  </trk>
</gpx>